/* DATA DESCRIPTION:
Citation:	Nixdorf, Erik; Hannemann, Marco; Kreck, Manuel; Schoßland, Andreas (2021): Hydrological records in 5 min resolution of tributaries in the Mueglitz River Basin, Trebnitz, Level 3 [dataset]. PANGAEA, https://doi.org/10.1594/PANGAEA.927733, 
	In: Nixdorf, E et al. (2021): Hydrological records in 5 min resolution of tributaries in the Mueglitz River Basin (Germany) [dataset bundled publication]. PANGAEA, https://doi.org/10.1594/PANGAEA.927741
Keyword(s):	flash floods; hydrological data; Saxony; water balance dynamics; water quality
Project(s):	Modular Observation Solutions for Earth Systems (MOSES) (URI: https://www.ufz.de/moses/)
Coverage:	LATITUDE: 50.864000 * LONGITUDE: 13.816000
	DATE/TIME START: 2019-06-18T09:25:00 * DATE/TIME END: 2020-10-01T10:40:00
Event(s):	Trebnitz * LATITUDE: 50.864000 * LONGITUDE: 13.816000 * DATE/TIME START: 2019-04-23T00:00:00 * DATE/TIME END: 2019-12-18T00:00:00 * O2A REGISTRY URI: https://hdl.handle.net/10013/sensor.0c8373a8-0b62-4a4e-97a6-e8db9bbc3b12 * LOCATION: Mueglitz River, Germany * METHOD/DEVICE: LTC Level Logger (LTC)
Comment:	Time series are split into 3 different product levels to consider the processing of raw data. Level 1 includes the stacked and cleaned time series of water temperature, absolute pressure and electric conductivity for each monitoring location. Level 2 adds a data column "level", which describes the time-dependent water level of each stream at the logger location. Level 3 provides time series of surface water discharge derived from level 2 data by applying the Manning equation.
Parameter(s):	DATE/TIME (Date/Time) * GEOCODE * PI: Nixdorf, Erik (https://orcid.org/0000-0001-5569-4597, erik.nixdorf@ufz.de)
	Water level [m] (WL) * PI: Nixdorf, Erik (https://orcid.org/0000-0001-5569-4597, erik.nixdorf@ufz.de)
	Temperature, water [°C] (Temp) * PI: Nixdorf, Erik (https://orcid.org/0000-0001-5569-4597, erik.nixdorf@ufz.de)
	Conductivity, electrical [µS/cm] (EC) * PI: Nixdorf, Erik (https://orcid.org/0000-0001-5569-4597, erik.nixdorf@ufz.de)
	Hydraulic diameter [m] (Hydr diam) * PI: Nixdorf, Erik (https://orcid.org/0000-0001-5569-4597, erik.nixdorf@ufz.de)
	Cross sectional area [m**2] (CSA) * PI: Nixdorf, Erik (https://orcid.org/0000-0001-5569-4597, erik.nixdorf@ufz.de)
	Discharge [m**3/s] (Q) * PI: Nixdorf, Erik (https://orcid.org/0000-0001-5569-4597, erik.nixdorf@ufz.de) * COMMENT: Discharge 1
	Discharge [m**3/s] (Q) * PI: Nixdorf, Erik (https://orcid.org/0000-0001-5569-4597, erik.nixdorf@ufz.de) * COMMENT: Discharge 2
	Discharge [m**3/s] (Q) * PI: Nixdorf, Erik (https://orcid.org/0000-0001-5569-4597, erik.nixdorf@ufz.de) * COMMENT: Discharge 3
License:	Creative Commons Attribution 4.0 International (CC-BY-4.0) (URI: https://creativecommons.org/licenses/by/4.0/)
Size:	1050991 data points
*/
Date/Time	WL [m]	Temp [°C]	EC [µS/cm]	Hydr diam [m]	CSA [m**2]	Q [m**3/s] (Discharge 1)	Q [m**3/s] (Discharge 2)	Q [m**3/s] (Discharge 3)
2019-06-18T09:25:00	0.4167	16.405	0.0	1.149910589	1.681132367	0.042671371	0.440232672	0.135683985
2019-06-18T09:30:00	0.4042	13.396	204.8	1.113513717	1.610031200	0.039999692	0.412669449	0.127188732
2019-06-18T09:35:00	0.4035	13.413	192.1	1.111498278	1.606132529	0.039854670	0.411173282	0.126727599
2019-06-18T09:40:00	0.4013	13.447	205.6	1.105085895	1.593755147	0.039395287	0.406433911	0.125266879
2019-06-18T09:45:00	0.3999	13.486	192.7	1.100719121	1.585349537	0.039084211	0.403224597	0.124277737
2019-06-18T09:50:00	0.4014	13.522	193.0	1.105153179	1.593884809	0.039400091	0.406483475	0.125282155
2019-06-18T09:55:00	0.4027	13.559	193.3	1.108996868	1.601299387	0.039675103	0.409320720	0.126156621
2019-06-18T10:00:00	0.3988	13.598	207.0	1.097590422	1.579338679	0.038862206	0.400934218	0.123571820
2019-06-18T10:05:00	0.4008	13.638	194.0	1.103367313	1.590444796	0.039272690	0.405169104	0.124877053
2019-06-18T10:10:00	0.4011	13.682	194.2	1.104446945	1.592524054	0.039349681	0.405963404	0.125121864
2019-06-18T10:15:00	0.4001	13.725	194.5	1.101419777	1.586696961	0.039134027	0.403738547	0.124436141
2019-06-18T10:20:00	0.4000	13.768	194.8	1.101032698	1.585952514	0.039106502	0.403454567	0.124348616
2019-06-18T10:25:00	0.3972	13.818	195.1	1.093007510	1.570551418	0.038538331	0.397592853	0.122541979
2019-06-18T10:30:00	0.3977	13.867	208.8	1.094383664	1.573187876	0.038635420	0.398594502	0.122850697
2019-06-18T10:35:00	0.3961	13.915	209.1	1.089584261	1.564001194	0.038297428	0.395107500	0.121775969
2019-06-18T10:40:00	0.3980	13.964	209.4	1.095371799	1.575082112	0.038705220	0.399314624	0.123072645
2019-06-18T10:45:00	0.3981	14.014	209.7	1.095571935	1.575465887	0.038719367	0.399460568	0.123117627
2019-06-18T10:50:00	0.3974	14.067	196.7	1.093420679	1.571342776	0.038567465	0.397893429	0.122634619
2019-06-18T10:55:00	0.3975	14.118	210.5	1.093914884	1.572289569	0.038602331	0.398253132	0.122745483
2019-06-18T11:00:00	0.3969	14.170	197.3	1.092056910	1.568731333	0.038471347	0.396901796	0.122328988
2019-06-18T11:05:00	0.3938	14.214	197.5	1.082836353	1.551123164	0.037825105	0.390234637	0.120274105
2019-06-18T11:10:00	0.3960	14.262	198.2	1.089515803	1.563870320	0.038292619	0.395057889	0.121760678
2019-06-18T11:15:00	0.3950	14.318	198.3	1.086478206	1.558067887	0.038079599	0.392860201	0.121083329
2019-06-18T11:20:00	0.3952	14.382	198.4	1.086973204	1.559012815	0.038114265	0.393217848	0.121193560
2019-06-18T11:25:00	0.3953	14.449	212.5	1.087468145	1.559957876	0.038148946	0.393575642	0.121303835
2019-06-18T11:30:00	0.3940	14.519	212.8	1.083545178	1.552473814	0.037874561	0.390744864	0.120431362
2019-06-18T11:35:00	0.3939	14.586	213.2	1.083156500	1.551733136	0.037847438	0.390465038	0.120345117
2019-06-18T11:40:00	0.3912	14.654	213.6	1.075098069	1.536410115	0.037287608	0.384689375	0.118565001
2019-06-18T11:45:00	0.3932	14.724	213.9	1.081199865	1.548006755	0.037711067	0.389058121	0.119911491
2019-06-18T11:50:00	0.3922	14.794	214.3	1.078156413	1.542218020	0.037499510	0.386875534	0.119238797
2019-06-18T11:55:00	0.3936	14.862	214.7	1.082191014	1.549893912	0.037780111	0.389770441	0.120131035
2019-06-18T12:00:00	0.3938	14.923	215.1	1.082981225	1.551399174	0.037835210	0.390338887	0.120306236
2019-06-18T12:05:00	0.3913	14.972	215.4	1.075512954	1.537197458	0.037316313	0.384985524	0.118656277
2019-06-18T12:10:00	0.3917	15.026	215.6	1.076599549	1.539260333	0.037391554	0.385761770	0.118895524
2019-06-18T12:15:00	0.3928	15.074	215.9	1.080045820	1.545810658	0.037630766	0.388229676	0.119656157
2019-06-18T12:20:00	0.3913	15.117	216.2	1.075525694	1.537221637	0.037317195	0.384994620	0.118659081
2019-06-18T12:25:00	0.3899	15.175	202.4	1.071296338	1.529203273	0.037025160	0.381981747	0.117730484
2019-06-18T12:30:00	0.3909	15.228	216.9	1.074451570	1.535183564	0.037242902	0.384228157	0.118422849
2019-06-18T12:35:00	0.3905	15.282	217.1	1.073176011	1.532764750	0.037154788	0.383319095	0.118142668
2019-06-18T12:40:00	0.3924	15.325	217.3	1.078690557	1.543233320	0.037536590	0.387258080	0.119356701
2019-06-18T12:45:00	0.3908	15.352	217.4	1.074169007	1.534647609	0.037223373	0.384026674	0.118360751
2019-06-18T12:50:00	0.3918	15.373	217.7	1.077027024	1.540072201	0.037421178	0.386067397	0.118989721
2019-06-18T12:55:00	0.3918	15.395	217.8	1.076932895	1.539893414	0.037414654	0.386000087	0.118968976
2019-06-18T13:00:00	0.3911	15.391	217.7	1.075067604	1.536352307	0.037285500	0.384667634	0.118558301
2019-06-18T13:05:00	0.3906	15.387	217.8	1.073496877	1.533373050	0.037176941	0.383547652	0.118213111
2019-06-18T13:10:00	0.3913	15.393	217.7	1.075469752	1.537115463	0.037313323	0.384954680	0.118646771
2019-06-18T13:15:00	0.3892	15.422	218.0	1.069466873	1.525740250	0.036899244	0.380682699	0.117330105
2019-06-18T13:20:00	0.3890	15.436	218.1	1.068781247	1.524443260	0.036852118	0.380196511	0.117180257
2019-06-18T13:25:00	0.3893	15.443	218.1	1.069573924	1.525942796	0.036906605	0.380758642	0.117353511
2019-06-18T13:30:00	0.3905	15.448	218.2	1.073025824	1.532480059	0.037144421	0.383212141	0.118109704
2019-06-18T13:35:00	0.3889	15.445	218.2	1.068498311	1.523908169	0.036832681	0.379995980	0.117118452
2019-06-18T13:40:00	0.3905	15.415	218.0	1.073132786	1.532682810	0.037151804	0.383288311	0.118133180
2019-06-18T13:45:00	0.3907	15.385	217.9	1.073629318	1.533624162	0.037186088	0.383642014	0.118242195
2019-06-18T13:50:00	0.3893	15.384	217.9	1.069693728	1.526169489	0.036914844	0.380843644	0.117379710
2019-06-18T13:55:00	0.3899	15.387	217.9	1.071372851	1.529348177	0.037030431	0.382036133	0.117747246
2019-06-18T14:00:00	0.3900	15.388	218.0	1.071574103	1.529729344	0.037044299	0.382179202	0.117791342
2019-06-18T14:05:00	0.3882	15.386	218.0	1.066453405	1.520043147	0.036692374	0.378548461	0.116672312
2019-06-18T14:10:00	0.3894	15.383	218.1	1.069907815	1.526574615	0.036929570	0.380995566	0.117426534
2019-06-18T14:15:00	0.3889	15.382	218.0	1.068335199	1.523599725	0.036821478	0.379880403	0.117082829
2019-06-18T14:20:00	0.3890	15.375	218.0	1.068832286	1.524539794	0.036855625	0.380232691	0.117191408
2019-06-18T14:25:00	0.3897	15.368	218.1	1.070807303	1.528277249	0.036991477	0.381634249	0.117623382
2019-06-18T14:30:00	0.3932	15.362	218.0	1.081044982	1.547711943	0.037700284	0.388946877	0.119877205
2019-06-18T14:35:00	0.3907	15.355	218.0	1.073868697	1.534078078	0.037202623	0.383812603	0.118294772
2019-06-18T14:40:00	0.3889	15.348	218.1	1.068455039	1.523826338	0.036829709	0.379965316	0.117109001
2019-06-18T14:45:00	0.3893	15.342	218.1	1.069543419	1.525885079	0.036904508	0.380737001	0.117346841
2019-06-18T14:50:00	0.3905	15.336	218.2	1.073290731	1.532982225	0.037162707	0.383400802	0.118167851
2019-06-18T14:55:00	0.3887	15.332	218.1	1.067876343	1.522732171	0.036789973	0.379555375	0.116982653
2019-06-18T15:00:00	0.3892	15.326	218.1	1.069260534	1.525349872	0.036885058	0.380536343	0.117284997
2019-06-18T15:05:00	0.3886	15.323	218.1	1.067687681	1.522375530	0.036777025	0.379421784	0.116941479
2019-06-18T15:10:00	0.3871	15.318	218.2	1.063154528	1.513816648	0.036466676	0.376219976	0.115954650
2019-06-18T15:15:00	0.3868	15.310	217.9	1.062171758	1.511963765	0.036399593	0.375527888	0.115741342
2019-06-18T15:20:00	0.3864	15.300	217.9	1.061188762	1.510111401	0.036332565	0.374836373	0.115528210
2019-06-18T15:25:00	0.3872	15.287	217.8	1.063463368	1.514399120	0.036487772	0.376437619	0.116021730
2019-06-18T15:30:00	0.3877	15.274	217.8	1.064848984	1.517013539	0.036582505	0.377414965	0.116322958
2019-06-18T15:35:00	0.3888	15.259	217.7	1.068008957	1.522982882	0.036799077	0.379649295	0.117011600
2019-06-18T15:40:00	0.3903	15.244	217.5	1.072643960	1.531756303	0.037118069	0.382940279	0.118025913
2019-06-18T15:45:00	0.3870	15.229	217.5	1.062789558	1.513128436	0.036441755	0.375962871	0.115875408
2019-06-18T15:50:00	0.3883	15.215	217.5	1.066542771	1.520211971	0.036698499	0.378611654	0.116691789
2019-06-18T15:55:00	0.3875	15.201	217.4	1.064376982	1.516122741	0.036550219	0.377081874	0.116220296
2019-06-18T16:00:00	0.3883	15.191	217.2	1.066649894	1.520414349	0.036705843	0.378687411	0.116715138
2019-06-18T16:05:00	0.3883	15.181	217.2	1.066689131	1.520488478	0.036708532	0.378715162	0.116723691
2019-06-18T16:10:00	0.3875	15.163	217.0	1.064361091	1.516092755	0.036549133	0.377070663	0.116216840
2019-06-18T16:15:00	0.3890	15.146	216.9	1.068837879	1.524550372	0.036856009	0.380236656	0.117192630
2019-06-18T16:20:00	0.3890	15.135	216.9	1.068877095	1.524624547	0.036858704	0.380264457	0.117201199
2019-06-18T16:25:00	0.3896	15.124	216.9	1.070394441	1.527495649	0.036963055	0.381341020	0.117533006
2019-06-18T16:30:00	0.3876	15.111	216.7	1.064518119	1.516389082	0.036559872	0.377181456	0.116250988
2019-06-18T16:35:00	0.3888	15.096	216.7	1.068107636	1.523169449	0.036805852	0.379719190	0.117033142
2019-06-18T16:40:00	0.3886	15.082	216.6	1.067555359	1.522125412	0.036767944	0.379328102	0.116912605
2019-06-18T16:45:00	0.3876	15.069	202.4	1.064635886	1.516611337	0.036567927	0.377264561	0.116276602
2019-06-18T16:50:00	0.3881	15.062	216.4	1.066154733	1.519478978	0.036671907	0.378337306	0.116607232
2019-06-18T16:55:00	0.3884	15.056	202.4	1.067081476	1.521229813	0.036735435	0.378992714	0.116809235
2019-06-18T17:00:00	0.3869	15.051	216.4	1.062385281	1.512366255	0.036414162	0.375678194	0.115787668
2019-06-18T17:05:00	0.3890	15.044	202.3	1.068638676	1.524173619	0.036842323	0.380095456	0.117149111
2019-06-18T17:10:00	0.3879	15.040	202.3	1.065424033	1.518099108	0.036621862	0.377821003	0.116448102
2019-06-18T17:15:00	0.3866	15.036	216.3	1.061614655	1.510913841	0.036361597	0.375135889	0.115620524
2019-06-18T17:20:00	0.3861	15.030	216.3	1.060172789	1.508197883	0.036263362	0.374122425	0.115308165
2019-06-18T17:25:00	0.3867	15.024	216.2	1.061989386	1.511620031	0.036387152	0.375399539	0.115701784
2019-06-18T17:30:00	0.3865	15.016	216.2	1.061436319	1.510577809	0.036349438	0.375010454	0.115581864
2019-06-18T17:35:00	0.3869	15.008	216.2	1.062660203	1.512884546	0.036432925	0.375871770	0.115847330
2019-06-18T17:40:00	0.3871	14.999	216.1	1.062995572	1.513516894	0.036455821	0.376107986	0.115920134
2019-06-18T17:45:00	0.3865	14.991	216.1	1.061257975	1.510241795	0.036337282	0.374885038	0.115543210
2019-06-18T17:50:00	0.3860	14.982	216.0	1.059815988	1.507526112	0.036239077	0.373871878	0.115230944
2019-06-18T17:55:00	0.3872	14.970	216.0	1.063409448	1.514297421	0.036484089	0.376399616	0.116010017
2019-06-18T18:00:00	0.3891	14.960	215.9	1.069070058	1.524989543	0.036871965	0.380401268	0.117243365
2019-06-18T18:05:00	0.3868	14.948	215.9	1.062303610	1.512212300	0.036408589	0.375620699	0.115769947
2019-06-18T18:10:00	0.3876	14.935	215.8	1.064711278	1.516753626	0.036573084	0.377317768	0.116293001
2019-06-18T18:15:00	0.3883	14.921	215.8	1.066525950	1.520180193	0.036697347	0.378599759	0.116688123
2019-06-18T18:20:00	0.3881	14.908	215.7	1.065973469	1.519136626	0.036659489	0.378209190	0.116567745
2019-06-18T18:25:00	0.3871	14.894	215.5	1.063052917	1.513625032	0.036459737	0.376148386	0.115932586
2019-06-18T18:30:00	0.3872	14.881	215.5	1.063388255	1.514257450	0.036482641	0.376384680	0.116005414
2019-06-18T18:35:00	0.3874	14.867	215.4	1.064019593	1.515448395	0.036525784	0.376829778	0.116142597
2019-06-18T18:40:00	0.3890	14.854	215.4	1.068792433	1.524464416	0.036852887	0.380204440	0.117182701
2019-06-18T18:45:00	0.3883	14.840	201.3	1.066761371	1.520624964	0.036713485	0.378766257	0.116739439
2019-06-18T18:50:00	0.3882	14.825	215.2	1.066504773	1.520140187	0.036695895	0.378584784	0.116683507
2019-06-18T18:55:00	0.3902	14.810	201.2	1.072161302	1.530841718	0.037084778	0.382596817	0.117920055
2019-06-18T19:00:00	0.3891	14.795	215.0	1.068949298	1.524761118	0.036863666	0.380315645	0.117216975
2019-06-18T19:05:00	0.3901	14.780	214.9	1.071944216	1.530430436	0.037069810	0.382442395	0.117872460
2019-06-18T19:10:00	0.3920	14.764	214.8	1.077593594	1.541148517	0.037460462	0.386472686	0.119114635
2019-06-18T19:15:00	0.3905	14.746	214.8	1.073204282	1.532818341	0.037156739	0.383339229	0.118148873
2019-06-18T19:20:00	0.3934	14.729	214.8	1.081800945	1.549151103	0.037752930	0.389490017	0.120044606
2019-06-18T19:25:00	0.3925	14.711	214.5	1.079186114	1.544175524	0.037571010	0.387613186	0.119466148
2019-06-18T19:30:00	0.3928	14.693	214.5	1.079815135	1.545371830	0.037614726	0.388064197	0.119605154
2019-06-18T19:35:00	0.3927	14.674	214.3	1.079559315	1.544885251	0.037596944	0.387880737	0.119548610
2019-06-18T19:40:00	0.3935	14.655	214.2	1.081957338	1.549448903	0.037763826	0.389602435	0.120079254
2019-06-18T19:45:00	0.3929	14.637	214.1	1.080227394	1.546156098	0.037643394	0.388359954	0.119696309
2019-06-18T19:50:00	0.3925	14.618	214.0	1.079086754	1.543986590	0.037564107	0.387541971	0.119444199
2019-06-18T19:55:00	0.3935	14.598	213.9	1.082074628	1.549672262	0.037772000	0.389686758	0.120105243
2019-06-18T20:00:00	0.3952	14.578	213.8	1.087121939	1.559296791	0.038124685	0.393325349	0.121226693
2019-06-18T20:05:00	0.3948	14.560	213.6	1.085983118	1.557123029	0.038044944	0.392502676	0.120973137
2019-06-18T20:10:00	0.3936	14.540	213.5	1.082191915	1.549895629	0.037780174	0.389771089	0.120131235
2019-06-18T20:15:00	0.3946	14.520	213.4	1.085177641	1.555586318	0.037988602	0.391921406	0.120793984
2019-06-18T20:20:00	0.3962	14.500	213.2	1.089927105	1.564656688	0.038321515	0.395356007	0.121852561
2019-06-18T20:25:00	0.3934	14.479	212.9	1.081719642	1.548996295	0.037747266	0.389431582	0.120026596
2019-06-18T20:30:00	0.3940	14.457	213.0	1.083527155	1.552439466	0.037873303	0.390731886	0.120427362
2019-06-18T20:35:00	0.3944	14.436	212.9	1.084744767	1.554760731	0.037958343	0.391609229	0.120697768
2019-06-18T20:40:00	0.3929	14.414	212.7	1.080362734	1.546413601	0.037652808	0.388457075	0.119726243
2019-06-18T20:45:00	0.3936	14.393	212.6	1.082170815	1.549855444	0.037778703	0.389755917	0.120126559
2019-06-18T20:50:00	0.3925	14.371	212.5	1.078966275	1.543757513	0.037555738	0.387455630	0.119417588
2019-06-18T20:55:00	0.3944	14.349	214.4	1.084606461	1.554496990	0.037948678	0.391509516	0.120667035
2019-06-18T21:00:00	0.3953	14.326	214.2	1.087296112	1.559629363	0.038136889	0.393451258	0.121265499
2019-06-18T21:05:00	0.3935	14.303	214.1	1.082032426	1.549591896	0.037769059	0.389656417	0.120095892
2019-06-18T21:10:00	0.3930	14.281	214.0	1.080597398	1.546860124	0.037669134	0.388625507	0.119778155
2019-06-18T21:15:00	0.3939	14.258	214.0	1.083289546	1.551986656	0.037856721	0.390560810	0.120374635
2019-06-18T21:20:00	0.3933	14.235	213.7	1.081560136	1.548692603	0.037736155	0.389316954	0.119991266
2019-06-18T21:25:00	0.3930	14.212	213.6	1.080419848	1.546522274	0.037656781	0.388498066	0.119738877
2019-06-18T21:30:00	0.3930	14.188	213.0	1.080458959	1.546596693	0.037659502	0.388526136	0.119747529
2019-06-18T21:35:00	0.3932	14.166	211.1	1.081087794	1.547793431	0.037703264	0.388977625	0.119886682
2019-06-18T21:40:00	0.3920	14.143	210.9	1.077587377	1.541136706	0.037460031	0.386468238	0.119113264
2019-06-18T21:45:00	0.3937	14.120	210.7	1.082639934	1.550748978	0.037811407	0.390093318	0.120230549
2019-06-18T21:50:00	0.3928	14.097	210.6	1.080025612	1.545772213	0.037629361	0.388215178	0.119651688
2019-06-18T21:55:00	0.3923	14.072	210.5	1.078589915	1.543041999	0.037529602	0.387185986	0.119334481
2019-06-18T22:00:00	0.3926	14.049	210.3	1.079513982	1.544799033	0.037593793	0.387848231	0.119538592
2019-06-18T22:05:00	0.3939	14.026	210.3	1.083130098	1.551682828	0.037845596	0.390446034	0.120339259
2019-06-18T22:10:00	0.3933	14.003	210.1	1.081439726	1.548463365	0.037727769	0.389230436	0.119964601
2019-06-18T22:15:00	0.3914	13.980	210.0	1.075912853	1.537956522	0.037343994	0.385271101	0.118744295
2019-06-18T22:20:00	0.3920	13.957	209.9	1.077466857	1.540907726	0.037451673	0.386382005	0.119086686
2019-06-18T22:25:00	0.3917	13.936	209.8	1.076659789	1.539374730	0.037395728	0.385804830	0.118908796
2019-06-18T22:30:00	0.3908	13.913	209.6	1.074081004	1.534480703	0.037217291	0.383963935	0.118341414
2019-06-18T22:35:00	0.3914	13.891	209.5	1.075930874	1.537990732	0.037345242	0.385283973	0.118748262
2019-06-18T22:40:00	0.3906	13.869	209.4	1.073351652	1.533097719	0.037166914	0.383444197	0.118181225
2019-06-18T22:45:00	0.3907	13.848	209.3	1.073725359	1.533806270	0.037192721	0.383710451	0.118263287
2019-06-18T22:50:00	0.3924	13.828	209.2	1.078821569	1.543482389	0.037545688	0.387351942	0.119385630
2019-06-18T22:55:00	0.3909	13.807	209.1	1.074472674	1.535223597	0.037244361	0.384243208	0.118427488
2019-06-18T23:00:00	0.3919	13.788	208.9	1.077207789	1.540415567	0.037433709	0.386196679	0.119029567
2019-06-18T23:05:00	0.3918	13.768	208.8	1.076990957	1.540003695	0.037418678	0.386041605	0.118981772
2019-06-18T23:10:00	0.3924	13.749	208.9	1.078839578	1.543516628	0.037546939	0.387364846	0.119389607
2019-06-18T23:15:00	0.3944	13.730	208.6	1.084813602	1.554892001	0.037963154	0.391658861	0.120713065
2019-06-18T23:20:00	0.3924	13.712	208.5	1.078701083	1.543253329	0.037537321	0.387265621	0.119359025
2019-06-18T23:25:00	0.3944	13.695	208.4	1.084675298	1.554628255	0.037953488	0.391559142	0.120682330
2019-06-18T23:30:00	0.3909	13.677	208.3	1.074430399	1.535143404	0.037241439	0.384213058	0.118418196
2019-06-18T23:35:00	0.3915	13.659	208.2	1.075984938	1.538093365	0.037348985	0.385322591	0.118760165
2019-06-18T23:40:00	0.3904	13.641	208.1	1.072814971	1.532080408	0.037129869	0.383062014	0.118063433
2019-06-18T23:45:00	0.3903	13.624	208.0	1.072597918	1.531669050	0.037114893	0.382907508	0.118015813
2019-06-18T23:50:00	0.3905	13.607	207.9	1.073267078	1.532937385	0.037161074	0.383383955	0.118162658
2019-06-18T23:55:00	0.3899	13.590	207.8	1.071277327	1.529167269	0.037023850	0.381968235	0.117726320
2019-06-19T00:00:00	0.3913	13.574	207.7	1.075490851	1.537155508	0.037314784	0.384969744	0.118651414
2019-06-19T00:05:00	0.3905	13.557	207.3	1.073206757	1.532823034	0.037156910	0.383340992	0.118149417
2019-06-19T00:10:00	0.3913	13.541	207.1	1.075647472	1.537452775	0.037325623	0.385081573	0.118685881
2019-06-19T00:15:00	0.3902	13.525	207.1	1.072181815	1.530880584	0.037086192	0.382611411	0.117924553
2019-06-19T00:20:00	0.3905	13.508	207.0	1.073146436	1.532708686	0.037152746	0.383298032	0.118136176
2019-06-19T00:25:00	0.3914	13.491	207.0	1.075882394	1.537898700	0.037341885	0.385249345	0.118737590
2019-06-19T00:30:00	0.3902	13.475	207.0	1.072416926	1.531326070	0.037102407	0.382778699	0.117976112
2019-06-19T00:35:00	0.3912	13.460	206.9	1.075153347	1.536515008	0.037291432	0.384728825	0.118577160
2019-06-19T00:40:00	0.3895	13.445	206.7	1.070209607	1.527145786	0.036950334	0.381209786	0.117492558
2019-06-19T00:45:00	0.3881	13.431	206.7	1.066147863	1.519466003	0.036671437	0.378332450	0.116605736
2019-06-19T00:50:00	0.3890	13.417	206.6	1.068592592	1.524086464	0.036839157	0.380062795	0.117139044
2019-06-19T00:55:00	0.3897	13.403	206.5	1.070740387	1.528150557	0.036986869	0.381586714	0.117608731
2019-06-19T01:00:00	0.3900	13.389	206.5	1.071705331	1.529977910	0.037053343	0.382272509	0.117820100
2019-06-19T01:05:00	0.3876	13.376	206.6	1.064686337	1.516706555	0.036571378	0.377300166	0.116287575
2019-06-19T01:10:00	0.3885	13.363	206.4	1.067131899	1.521325097	0.036738894	0.379028392	0.116820232
2019-06-19T01:15:00	0.3895	13.351	206.3	1.070167289	1.527065690	0.036947422	0.381179743	0.117483299
2019-06-19T01:20:00	0.3899	13.339	206.4	1.071427876	1.529452389	0.037034222	0.382075247	0.117759302
2019-06-19T01:25:00	0.3904	13.327	206.3	1.072983501	1.532399835	0.037141500	0.383182004	0.118100415
2019-06-19T01:30:00	0.3892	13.317	206.2	1.069220048	1.525273281	0.036882275	0.380507631	0.117276147
2019-06-19T01:35:00	0.3880	13.305	206.1	1.065749199	1.518713094	0.036644128	0.378050711	0.116518901
2019-06-19T01:40:00	0.3887	13.294	206.1	1.067898418	1.522773902	0.036791489	0.379571007	0.116987471
2019-06-19T01:45:00	0.3906	13.282	206.0	1.073592285	1.533553946	0.037183530	0.383615628	0.118234062
2019-06-19T01:50:00	0.3876	13.273	205.9	1.064505011	1.516364345	0.036558975	0.377172207	0.116248137
2019-06-19T01:55:00	0.3892	13.262	205.9	1.069316523	1.525455795	0.036888907	0.380576053	0.117297236
2019-06-19T02:00:00	0.3885	13.252	205.8	1.067324940	1.521689912	0.036752135	0.379165003	0.116862336
2019-06-19T02:05:00	0.3876	13.242	205.7	1.064740542	1.516808860	0.036575086	0.377338423	0.116299367
2019-06-19T02:10:00	0.3869	13.232	205.7	1.062450718	1.512489612	0.036418627	0.375724264	0.115801867
2019-06-19T02:15:00	0.3892	13.223	205.6	1.069334572	1.525489941	0.036890148	0.380588854	0.117301181
2019-06-19T02:20:00	0.3912	13.214	205.6	1.075321785	1.536834648	0.037303085	0.384849049	0.118614215
2019-06-19T02:25:00	0.3925	13.204	205.5	1.078941417	1.543710250	0.037554012	0.387437818	0.119412098
2019-06-19T02:30:00	0.3902	13.194	205.5	1.072229702	1.530971315	0.037089495	0.382645480	0.117935053
2019-06-19T02:35:00	0.3913	13.186	205.4	1.075556724	1.537280531	0.037319342	0.385016775	0.118665909
2019-06-19T02:40:00	0.3888	13.177	205.4	1.068248315	1.523435439	0.036815512	0.379818847	0.117063857
2019-06-19T02:45:00	0.3909	13.169	205.3	1.074237041	1.534776645	0.037228074	0.384075180	0.118375701
2019-06-19T02:50:00	0.3914	13.161	205.3	1.075791650	1.537726445	0.037335603	0.385184534	0.118717614
2019-06-19T02:55:00	0.3905	13.153	205.2	1.073212345	1.532833626	0.037157296	0.383344971	0.118150643
2019-06-19T03:00:00	0.3899	13.145	205.2	1.071518076	1.529623226	0.037040438	0.382139370	0.117779065
2019-06-19T03:05:00	0.3920	13.137	205.2	1.077502251	1.540974972	0.037454127	0.386407329	0.119094491
2019-06-19T03:10:00	0.3914	13.130	205.2	1.075809672	1.537760654	0.037336851	0.385197405	0.118721581
2019-06-19T03:15:00	0.3928	13.123	205.1	1.080018764	1.545759186	0.037628885	0.388210266	0.119650174
2019-06-19T03:20:00	0.3920	13.117	205.0	1.077737071	1.541421132	0.037470415	0.386575359	0.119146280
2019-06-19T03:25:00	0.3934	13.110	205.0	1.081649489	1.548862725	0.037742379	0.389381165	0.120011057
2019-06-19T03:30:00	0.3927	13.104	205.0	1.079663609	1.545083614	0.037604193	0.387955525	0.119571661
2019-06-19T03:35:00	0.3931	13.099	205.0	1.080921418	1.547476763	0.037691683	0.388858142	0.119849856
2019-06-19T03:40:00	0.3924	13.095	204.9	1.078640203	1.543137595	0.037533094	0.387222008	0.119345584
2019-06-19T03:45:00	0.3925	13.092	204.9	1.079013451	1.543847212	0.037559015	0.387489438	0.119428008
2019-06-19T03:50:00	0.3934	13.089	204.8	1.081745686	1.549045884	0.037749080	0.389450300	0.120032365
2019-06-19T03:55:00	0.3924	13.087	204.8	1.078874961	1.543583900	0.037549396	0.387390198	0.119397421
2019-06-19T04:00:00	0.3929	13.084	204.8	1.080133001	1.545976512	0.037636829	0.388292224	0.119675435
2019-06-19T04:05:00	0.3927	13.080	204.8	1.079749294	1.545246592	0.037610149	0.388016975	0.119590600
2019-06-19T04:10:00	0.3929	13.076	204.7	1.080250341	1.546199756	0.037644990	0.388376420	0.119701384
2019-06-19T04:15:00	0.3920	13.072	204.7	1.077506596	1.540983227	0.037454429	0.386410437	0.119095450
2019-06-19T04:20:00	0.3909	13.068	204.7	1.074465818	1.535210591	0.037243887	0.384238318	0.118425981
2019-06-19T04:25:00	0.3925	13.064	204.7	1.079099149	1.544010159	0.037564968	0.387550855	0.119446937
2019-06-19T04:30:00	0.3930	13.061	204.7	1.080485011	1.546646264	0.037661314	0.388544835	0.119753292
2019-06-19T04:35:00	0.3918	13.057	204.7	1.077151234	1.540308137	0.037429789	0.386156228	0.119017100
2019-06-19T04:40:00	0.3928	13.055	204.6	1.080012551	1.545747367	0.037628453	0.388205809	0.119648800
2019-06-19T04:45:00	0.3936	13.053	204.7	1.082282491	1.550068134	0.037786487	0.389836221	0.120151309
2019-06-19T04:50:00	0.3926	13.050	204.7	1.079245082	1.544287655	0.037575107	0.387655453	0.119479175
2019-06-19T04:55:00	0.3924	13.048	204.7	1.078861296	1.543557918	0.037548447	0.387380407	0.119394404
2019-06-19T05:00:00	0.3896	13.047	204.6	1.070504548	1.527704079	0.036970633	0.381419209	0.117557105
2019-06-19T05:05:00	0.3925	13.047	204.7	1.078978670	1.543781081	0.037556599	0.387464513	0.119420326
2019-06-19T05:10:00	0.3917	13.049	204.7	1.076824423	1.539687396	0.037407136	0.385922528	0.118945071
2019-06-19T05:15:00	0.3915	13.050	204.7	1.076145252	1.538397720	0.037360086	0.385437118	0.118795463
2019-06-19T05:20:00	0.3911	13.053	204.8	1.074875479	1.535987766	0.037272212	0.384530541	0.118516047
2019-06-19T05:25:00	0.3906	13.056	204.8	1.073605332	1.533578683	0.037184431	0.383624924	0.118236927
2019-06-19T05:30:00	0.3924	13.060	204.8	1.078829621	1.543497698	0.037546247	0.387357712	0.119387409
2019-06-19T05:35:00	0.3906	13.063	204.8	1.073427493	1.533241504	0.037172150	0.383498222	0.118197877
2019-06-19T05:40:00	0.3906	13.065	204.9	1.073338571	1.533072920	0.037166010	0.383434879	0.118178354
2019-06-19T05:45:00	0.3895	13.069	204.8	1.070294844	1.527307122	0.036956200	0.381270302	0.117511210
2019-06-19T05:50:00	0.3899	13.075	205.2	1.071388047	1.529376956	0.037031478	0.382046934	0.117750575
2019-06-19T05:55:00	0.3910	13.081	204.9	1.074548496	1.535367427	0.037249603	0.384297284	0.118444155
2019-06-19T06:00:00	0.3460	13.297	205.1	0.939742547	1.288431002	0.028586374	0.294920348	0.090897316
2019-06-19T06:05:00	0.3450	13.098	205.1	0.936599713	1.282880830	0.028399736	0.292994842	0.090303856
2019-06-19T06:10:00	0.3447	13.106	205.1	0.935592051	1.281103289	0.028340041	0.292378976	0.090114040
2019-06-19T06:15:00	0.3433	13.113	205.1	0.931529297	1.273946171	0.028100070	0.289903240	0.089350994
2019-06-19T06:20:00	0.3452	13.123	205.2	0.937239653	1.284010195	0.028437684	0.293386339	0.090424519
2019-06-19T06:25:00	0.3452	13.134	205.2	0.937147780	1.283848034	0.028432234	0.293330115	0.090407190
2019-06-19T06:30:00	0.3448	13.147	205.3	0.935834992	1.281531755	0.028354426	0.292527391	0.090159783
2019-06-19T06:35:00	0.3442	13.161	205.4	0.934216392	1.278678134	0.028258658	0.291539367	0.089855264
2019-06-19T06:40:00	0.3451	13.177	192.3	0.936872148	1.283361576	0.028415888	0.293161474	0.090355213
2019-06-19T06:45:00	0.3459	13.194	192.3	0.939221156	1.287509595	0.028555364	0.294600422	0.090798711
2019-06-19T06:50:00	0.3452	13.209	205.6	0.937298757	1.284114523	0.028441190	0.293422512	0.090435668
2019-06-19T06:55:00	0.3464	13.225	205.7	0.940867283	1.290419519	0.028653333	0.295611152	0.091110228
2019-06-19T07:00:00	0.3453	13.241	205.7	0.937420178	1.284328856	0.028448394	0.293496832	0.090458574
2019-06-19T07:05:00	0.3455	13.264	205.9	0.938243691	1.285782898	0.028497279	0.294001170	0.090614016
2019-06-19T07:10:00	0.3459	13.300	206.0	0.939372056	1.287776241	0.028564337	0.294692994	0.090827243
2019-06-19T07:15:00	0.3451	13.327	206.1	0.936839378	1.283303746	0.028413945	0.293141428	0.090349035
2019-06-19T07:20:00	0.3443	13.352	206.3	0.934305115	1.278834490	0.028263903	0.291593476	0.089871941
2019-06-19T07:25:00	0.3456	13.376	206.4	0.938486473	1.286211689	0.028511700	0.294149948	0.090659871
2019-06-19T07:30:00	0.3433	13.408	206.6	0.931371666	1.273668794	0.028090782	0.289807421	0.089321462
2019-06-19T07:35:00	0.3456	13.431	206.7	0.938302781	1.285887255	0.028500788	0.294037377	0.090625175
2019-06-19T07:40:00	0.3449	13.452	206.8	0.936379947	1.282493075	0.028386711	0.292860462	0.090262439
2019-06-19T07:45:00	0.3432	13.480	206.8	0.931095640	1.273183139	0.028074523	0.289639676	0.089269761
2019-06-19T07:50:00	0.3455	13.497	207.0	0.938027228	1.285400637	0.028484424	0.293868556	0.090573143
2019-06-19T07:55:00	0.3448	13.529	207.2	0.936104263	1.282006724	0.028370376	0.292691940	0.090210499
2019-06-19T08:00:00	0.3439	13.553	194.0	0.933264082	1.277000344	0.028202397	0.290958932	0.089676369
2019-06-19T08:05:00	0.3458	13.582	207.5	0.938971992	1.287069360	0.028540551	0.294447603	0.090751611
2019-06-19T08:10:00	0.3440	13.607	194.2	0.933385624	1.277214431	0.028209574	0.291032976	0.089699190
2019-06-19T08:15:00	0.3434	13.634	207.7	0.931766044	1.274362809	0.028114022	0.290047184	0.089395359
2019-06-19T08:20:00	0.3433	13.669	194.6	0.931368447	1.273663129	0.028090592	0.289805464	0.089320859
2019-06-19T08:25:00	0.3438	13.704	194.8	0.932804245	1.276190503	0.028175253	0.290678892	0.089590058
2019-06-19T08:30:00	0.3417	13.757	195.0	0.926597442	1.265278833	0.027810296	0.286913700	0.088429589
2019-06-19T08:35:00	0.3430	13.810	208.7	0.930481110	1.272102156	0.028038343	0.289266411	0.089154717
2019-06-19T08:40:00	0.3423	13.862	195.4	0.928248715	1.268178271	0.027907131	0.287912723	0.088737497
2019-06-19T08:45:00	0.3426	13.896	195.6	0.929379871	1.270165923	0.027973573	0.288598195	0.088948767
2019-06-19T08:50:00	0.3409	13.937	209.3	0.924086390	1.260874626	0.027663403	0.285398224	0.087962504
2019-06-19T08:55:00	0.3424	13.982	196.1	0.928584167	1.268767597	0.027926825	0.288115910	0.088800121
2019-06-19T09:00:00	0.3422	14.025	196.2	0.927880392	1.267531318	0.027885515	0.287689719	0.088668765
2019-06-19T09:05:00	0.3413	14.073	210.0	0.925340500	1.263073506	0.027736712	0.286154547	0.088195611
2019-06-19T09:10:00	0.3413	14.111	196.6	0.925248356	1.262911896	0.027731322	0.286098939	0.088178472
2019-06-19T09:15:00	0.3410	14.148	196.9	0.924237857	1.261140120	0.027672251	0.285489511	0.087990640
2019-06-19T09:20:00	0.3398	14.187	212.7	0.920776524	1.255078378	0.027470442	0.283407487	0.087348940
2019-06-19T09:25:00	0.3416	14.199	210.6	0.926196112	1.264574531	0.027786790	0.286671187	0.088354844
2019-06-19T09:30:00	0.3407	14.220	210.8	0.923348949	1.259582328	0.027620345	0.284954013	0.087825594
2019-06-19T09:35:00	0.3411	14.252	210.9	0.924787604	1.262103910	0.027704379	0.285820971	0.088092799
2019-06-19T09:40:00	0.3422	14.288	210.6	0.928061336	1.267849127	0.027896133	0.287799261	0.088702527
2019-06-19T09:45:00	0.3407	14.345	211.5	0.923378604	1.259634285	0.027622076	0.284971868	0.087831097
2019-06-19T09:50:00	0.3409	14.392	211.6	0.923898818	1.260545873	0.027652447	0.285285200	0.087927669
2019-06-19T09:55:00	0.3399	14.422	211.9	0.921050030	1.255556953	0.027486358	0.283571693	0.087399550
2019-06-19T10:00:00	0.3410	14.458	212.0	0.924326799	1.261296030	0.027677447	0.285543122	0.088007163
2019-06-19T10:05:00	0.3406	14.490	212.2	0.923226619	1.259368005	0.027613207	0.284880362	0.087802894
2019-06-19T10:10:00	0.3404	14.520	212.0	0.922432439	1.257976939	0.027566885	0.284402474	0.087655605
2019-06-19T10:15:00	0.3422	14.545	212.5	0.928066324	1.267857889	0.027896426	0.287802281	0.088703458
2019-06-19T10:20:00	0.3413	14.573	212.7	0.925131075	1.262706212	0.027724463	0.286028171	0.088156660
2019-06-19T10:25:00	0.3420	14.598	212.8	0.927397558	1.266683421	0.027857193	0.287397529	0.088578710
2019-06-19T10:30:00	0.3393	14.626	212.9	0.919254152	1.252415837	0.027381943	0.282494456	0.087067535
2019-06-19T10:35:00	0.3393	14.661	213.1	0.919072326	1.252097979	0.027371383	0.282385517	0.087033959
2019-06-19T10:40:00	0.3409	14.701	213.3	0.924098631	1.260896081	0.027664118	0.285405601	0.087964778
2019-06-19T10:45:00	0.3383	14.752	213.7	0.915948539	1.246641975	0.027190327	0.280517595	0.086458247
2019-06-19T10:50:00	0.3389	14.816	214.0	0.917913576	1.250073043	0.027304144	0.281691817	0.086820154
2019-06-19T10:55:00	0.3388	14.864	214.4	0.917731689	1.249755307	0.027293598	0.281583014	0.086786620
2019-06-19T11:00:00	0.3385	14.915	214.5	0.916629703	1.247830918	0.027229751	0.280924320	0.086583604
2019-06-19T11:05:00	0.3399	14.955	214.8	0.921046317	1.255550455	0.027486142	0.283569464	0.087398863
2019-06-19T11:10:00	0.3406	14.996	214.9	0.923008864	1.258986532	0.027600502	0.284749286	0.087762495
2019-06-19T11:15:00	0.3405	15.032	215.2	0.922827207	1.258668331	0.027589905	0.284639965	0.087728802
2019-06-19T11:20:00	0.3415	15.076	215.4	0.926013143	1.264253486	0.027776077	0.286560662	0.088320779
2019-06-19T11:25:00	0.3415	15.128	215.7	0.925831622	1.263935012	0.027765451	0.286451035	0.088286991
2019-06-19T11:30:00	0.3433	15.188	215.9	0.931460763	1.273825571	0.028096031	0.289861578	0.089338153
2019-06-19T11:35:00	0.3425	15.227	216.5	0.928833798	1.269206221	0.027941487	0.288267165	0.088846740
2019-06-19T11:40:00	0.3414	15.277	216.9	0.925593070	1.263516527	0.027751490	0.286307002	0.088242598
2019-06-19T11:45:00	0.3417	15.321	216.8	0.926635598	1.265345801	0.027812532	0.286936762	0.088436697
2019-06-19T11:50:00	0.3420	15.354	217.5	0.927371952	1.266638462	0.027855692	0.287382039	0.088573935
2019-06-19T11:55:00	0.3422	15.392	217.3	0.928108173	1.267931396	0.027898882	0.287827619	0.088711268
2019-06-19T12:00:00	0.3431	15.426	217.3	0.930678659	1.272449613	0.028049970	0.289386373	0.089191691
2019-06-19T12:05:00	0.3417	15.448	217.4	0.926521580	1.265145691	0.027805852	0.286867850	0.088415457
2019-06-19T12:10:00	0.3429	15.468	217.5	0.930316028	1.271811831	0.028028628	0.289166187	0.089123827
2019-06-19T12:15:00	0.3439	15.482	217.6	0.933190595	1.276870909	0.028198058	0.290914168	0.089662572
2019-06-19T12:20:00	0.3425	15.496	217.7	0.929036104	1.269561732	0.027953371	0.288389778	0.088884530
2019-06-19T12:25:00	0.3434	15.511	203.7	0.931605999	1.274081149	0.028104590	0.289949871	0.089365366
2019-06-19T12:30:00	0.3424	15.525	217.8	0.928673325	1.268924249	0.027932061	0.288169927	0.088816770
2019-06-19T12:35:00	0.3434	15.539	217.9	0.931549061	1.273980951	0.028101234	0.289915255	0.089354697
2019-06-19T12:40:00	0.3435	15.537	217.8	0.931978966	1.274737564	0.028126574	0.290176677	0.089435270
2019-06-19T12:45:00	0.3437	15.533	203.8	0.932714347	1.276032203	0.028169948	0.290624162	0.089573189
2019-06-19T12:50:00	0.3414	15.529	218.0	0.925499962	1.263353203	0.027746041	0.286250795	0.088225275
2019-06-19T12:55:00	0.3406	15.534	203.9	0.923175355	1.259278194	0.027610215	0.284849501	0.087793383
2019-06-19T13:00:00	0.3424	15.540	218.1	0.928502385	1.268623912	0.027922023	0.288066366	0.088784852
2019-06-19T13:05:00	0.3415	15.543	218.2	0.925873493	1.264008472	0.027767902	0.286476321	0.088294784
2019-06-19T13:10:00	0.3400	15.566	218.3	0.921405098	1.256178349	0.027507029	0.283784948	0.087465277
2019-06-19T13:15:00	0.3395	15.598	218.4	0.919691168	1.253179931	0.027407331	0.282756385	0.087148264
2019-06-19T13:20:00	0.3407	15.613	218.6	0.923492051	1.259833060	0.027628698	0.285040182	0.087852152
2019-06-19T13:25:00	0.3406	15.625	218.6	0.923004181	1.258978329	0.027600228	0.284746468	0.087761627
2019-06-19T13:30:00	0.3407	15.619	218.6	0.923434998	1.259733094	0.027625368	0.285005826	0.087841564
2019-06-19T13:35:00	0.3403	15.601	204.4	0.922334574	1.257805561	0.027561180	0.284343616	0.087637464
2019-06-19T13:40:00	0.3404	15.581	218.5	0.922459186	1.258023779	0.027568445	0.284418562	0.087660563
2019-06-19T13:45:00	0.3418	15.569	218.4	0.926869409	1.265756199	0.027826232	0.287078107	0.088480261
2019-06-19T13:50:00	0.3386	15.566	204.3	0.916885079	1.248276778	0.027244539	0.281076890	0.086630627
2019-06-19T13:55:00	0.3396	15.561	218.4	0.920075722	1.253852446	0.027429683	0.282986982	0.087219336
2019-06-19T14:00:00	0.3377	15.554	204.2	0.914373445	1.243894377	0.027099288	0.279578360	0.086168766
2019-06-19T14:05:00	0.3382	15.544	204.2	0.915725698	1.246253110	0.027177437	0.280384608	0.086417259
2019-06-19T14:10:00	0.3392	15.531	218.2	0.918917262	1.251826929	0.027362380	0.282292631	0.087005331
2019-06-19T14:15:00	0.3377	15.517	218.2	0.914134213	1.243477262	0.027085476	0.279435858	0.086124845
2019-06-19T14:20:00	0.3383	15.502	218.1	0.916100138	1.246906549	0.027199099	0.280608088	0.086486138
2019-06-19T14:25:00	0.3367	15.491	218.2	0.911313728	1.238563617	0.026922925	0.277758850	0.085607975
2019-06-19T14:30:00	0.3397	15.478	218.1	0.920335565	1.254306943	0.027444792	0.283142856	0.087267378
2019-06-19T14:35:00	0.3376	15.466	218.0	0.914019841	1.243277867	0.027078873	0.279367746	0.086103852
2019-06-19T14:40:00	0.3387	15.454	217.9	0.917212761	1.248848966	0.027263522	0.281272726	0.086690986
2019-06-19T14:45:00	0.3376	15.444	217.9	0.913962653	1.243178171	0.027075573	0.279333692	0.086093357
2019-06-19T14:50:00	0.3366	15.434	217.8	0.910709910	1.237512653	0.026888196	0.277400561	0.085497547
2019-06-19T14:55:00	0.3361	15.425	217.8	0.909298710	1.235057743	0.026807128	0.276564198	0.085239772
2019-06-19T15:00:00	0.3355	15.418	203.7	0.907579597	1.232069701	0.026708556	0.275547245	0.084926337
2019-06-19T15:05:00	0.3360	15.413	217.8	0.908934145	1.234423852	0.026786207	0.276348363	0.085173249
2019-06-19T15:10:00	0.3352	15.410	217.9	0.906599921	1.230368128	0.026652472	0.274968642	0.084748006
2019-06-19T15:15:00	0.3354	15.408	217.8	0.907032503	1.231119357	0.026677228	0.275224044	0.084826723
2019-06-19T15:20:00	0.3372	15.408	217.8	0.912688017	1.240956877	0.027002060	0.278575275	0.085859605
2019-06-19T15:25:00	0.3370	15.408	217.9	0.912198834	1.240104785	0.026973877	0.278284512	0.085769989
2019-06-19T15:30:00	0.3355	15.409	217.8	0.907407757	1.231771172	0.026698714	0.275445706	0.084895042
2019-06-19T15:35:00	0.3362	15.408	217.8	0.909684261	1.235728261	0.026829263	0.276792560	0.085310155
2019-06-19T15:40:00	0.3372	15.407	217.9	0.912573604	1.240757564	0.026995467	0.278507254	0.085838641
2019-06-19T15:45:00	0.3356	15.406	217.8	0.907782976	1.232423056	0.026720207	0.275667446	0.084963384
2019-06-19T15:50:00	0.3377	15.404	217.8	0.914358255	1.243867890	0.027098411	0.279569311	0.086165977
2019-06-19T15:55:00	0.3387	15.405	217.9	0.917244232	1.248903925	0.027265345	0.281291539	0.086696784
2019-06-19T16:00:00	0.3379	15.404	217.8	0.914914846	1.244838537	0.027130562	0.279901002	0.086268207
2019-06-19T16:05:00	0.3368	15.402	217.8	0.911453710	1.238807309	0.026930979	0.277841949	0.085633587
2019-06-19T16:10:00	0.3373	15.399	203.7	0.912904872	1.241334680	0.027014559	0.278704224	0.085899349
2019-06-19T16:15:00	0.3370	15.395	217.7	0.912206590	1.240118293	0.026974323	0.278289121	0.085771410
2019-06-19T16:20:00	0.3365	15.390	217.8	0.910586707	1.237298256	0.026881113	0.277327487	0.085475025
2019-06-19T16:25:00	0.3367	15.383	217.7	0.911116826	1.238220865	0.026911597	0.277641985	0.085571956
2019-06-19T16:30:00	0.3360	15.376	217.6	0.908881897	1.234333016	0.026783210	0.276317438	0.085163718
2019-06-19T16:35:00	0.3344	15.368	217.7	0.904184981	1.226177502	0.026514504	0.273545252	0.084309303
2019-06-19T16:40:00	0.3345	15.359	217.7	0.904408291	1.226564782	0.026527245	0.273676701	0.084349817
2019-06-19T16:45:00	0.3363	15.352	203.6	0.909858266	1.236030920	0.026839256	0.276895657	0.085341931
2019-06-19T16:50:00	0.3339	15.344	217.5	0.902700844	1.223604785	0.026429911	0.272672524	0.084040320
2019-06-19T16:55:00	0.3321	15.338	217.5	0.897072044	1.213866006	0.026110445	0.269376647	0.083024499
2019-06-19T17:00:00	0.3320	15.331	217.5	0.896679267	1.213187534	0.026088233	0.269147491	0.082953871
2019-06-19T17:05:00	0.3304	15.323	217.4	0.891659300	1.204528797	0.025805273	0.266228245	0.082054131
2019-06-19T17:10:00	0.3298	15.315	217.4	0.890031049	1.201725312	0.025713861	0.265285162	0.081763463
2019-06-19T17:15:00	0.3309	15.307	217.4	0.893341609	1.207427938	0.025899909	0.267204586	0.082355048
2019-06-19T17:20:00	0.3287	15.299	217.4	0.886463491	1.195591362	0.025514201	0.263225312	0.081128598
2019-06-19T17:25:00	0.3310	15.291	217.4	0.893480930	1.207668150	0.025907755	0.267285531	0.082379997
2019-06-19T17:30:00	0.3305	15.288	217.3	0.892162054	1.205394924	0.025833535	0.266519814	0.082143995
2019-06-19T17:35:00	0.3299	15.284	217.3	0.890225253	1.202059559	0.025724754	0.265397547	0.081798102
2019-06-19T17:40:00	0.3332	15.280	217.3	0.900317102	1.219476911	0.026294357	0.271274035	0.083609292
2019-06-19T17:45:00	0.3337	15.273	217.2	0.902080173	1.222529473	0.026394579	0.272308005	0.083927972
2019-06-19T17:50:00	0.3314	15.266	217.1	0.894908774	1.210131012	0.025988240	0.268115886	0.082635920
2019-06-19T17:55:00	0.3315	15.259	203.2	0.895132604	1.210517265	0.026000870	0.268246183	0.082676079
2019-06-19T18:00:00	0.3328	15.249	217.1	0.899055135	1.217293730	0.026222751	0.270535284	0.083381602
2019-06-19T18:05:00	0.3311	15.238	203.0	0.894038168	1.208629094	0.025939149	0.267609420	0.082479822
2019-06-19T18:10:00	0.3315	15.224	216.9	0.895187302	1.210611662	0.026003957	0.268278029	0.082685894
2019-06-19T18:15:00	0.3312	15.207	216.8	0.894177465	1.208869354	0.025947000	0.267690419	0.082504787
2019-06-19T18:20:00	0.3281	15.192	216.7	0.884518861	1.192252787	0.025405732	0.262106258	0.080783694
2019-06-19T18:25:00	0.3296	15.178	216.7	0.889378490	1.200602442	0.025677276	0.264907721	0.081647132
2019-06-19T18:30:00	0.3294	15.164	216.5	0.888676076	1.199394224	0.025637928	0.264501775	0.081522016
2019-06-19T18:35:00	0.3298	15.150	216.4	0.889826762	1.201373749	0.025702405	0.265166970	0.081727035
2019-06-19T18:40:00	0.3288	15.136	216.3	0.886961863	1.196447540	0.025542041	0.263512530	0.081217121
2019-06-19T18:45:00	0.3296	15.122	216.3	0.889348583	1.200550989	0.025675600	0.264890429	0.081641803
2019-06-19T18:50:00	0.3294	15.109	216.3	0.888646163	1.199342782	0.025636253	0.264484495	0.081516690
2019-06-19T18:55:00	0.3299	15.093	216.1	0.890105647	1.201853699	0.025718045	0.265328328	0.081776768
2019-06-19T19:00:00	0.3308	15.079	216.1	0.893107613	1.207024533	0.025886734	0.267068666	0.082313157
2019-06-19T19:05:00	0.3308	15.063	216.0	0.893023006	1.206878685	0.025881972	0.267019530	0.082298012
2019-06-19T19:10:00	0.3341	15.048	215.9	0.903107774	1.224309984	0.026453091	0.272911660	0.084114024
2019-06-19T19:15:00	0.3319	15.033	215.7	0.896246538	1.212440217	0.026063774	0.268895153	0.082876097
2019-06-19T19:20:00	0.3346	15.016	215.6	0.904785255	1.227218646	0.026548761	0.273898676	0.084418232
2019-06-19T19:25:00	0.3357	14.998	215.6	0.908083585	1.232945413	0.026737433	0.275845166	0.085018159
2019-06-19T19:30:00	0.3355	14.981	215.4	0.907384461	1.231730703	0.026697379	0.275431942	0.084890800
2019-06-19T19:35:00	0.3364	14.964	215.4	0.910373450	1.236927182	0.026868855	0.277201027	0.085436049
2019-06-19T19:40:00	0.3343	14.946	215.2	0.903832427	1.225566172	0.026494396	0.273337797	0.084245364
2019-06-19T19:45:00	0.3353	14.931	215.1	0.906824071	1.230757369	0.026665298	0.275100967	0.084788790
2019-06-19T19:50:00	0.3346	14.914	215.0	0.904586742	1.226874298	0.026537430	0.273781769	0.084382200
2019-06-19T19:55:00	0.3353	14.898	201.1	0.906962922	1.230998511	0.026673245	0.275182954	0.084814059
2019-06-19T20:00:00	0.3352	14.881	214.9	0.906571118	1.230318113	0.026650824	0.274951641	0.084742766
2019-06-19T20:05:00	0.3352	14.865	214.8	0.906486796	1.230171702	0.026646000	0.274901874	0.084727427
2019-06-19T20:10:00	0.3345	14.848	214.7	0.904556949	1.226822620	0.026535729	0.273764226	0.084376793
2019-06-19T20:15:00	0.3344	14.831	214.6	0.904164908	1.226142691	0.026513359	0.273533438	0.084305662
2019-06-19T20:20:00	0.3352	14.814	214.5	0.906541339	1.230266406	0.026649121	0.274934065	0.084737349
2019-06-19T20:25:00	0.3350	14.796	214.3	0.905841945	1.229052233	0.026609125	0.274521441	0.084610174
2019-06-19T20:30:00	0.3336	14.778	214.3	0.901757248	1.221970147	0.026376206	0.272118459	0.083869552
2019-06-19T20:35:00	0.3333	14.761	214.1	0.900749075	1.220224556	0.026318893	0.271527168	0.083687310
2019-06-19T20:40:00	0.3327	14.742	214.0	0.898816450	1.216880975	0.026209219	0.270395684	0.083338576
2019-06-19T20:45:00	0.3318	14.725	213.9	0.895958027	1.211942057	0.026047474	0.268726984	0.082824266
2019-06-19T20:50:00	0.3290	14.709	213.9	0.887539859	1.197440795	0.025574350	0.263845853	0.081319854
2019-06-19T20:55:00	0.3300	14.693	213.8	0.890543765	1.202607830	0.025742626	0.265581927	0.081854929
2019-06-19T21:00:00	0.3302	14.676	213.7	0.891076555	1.203525157	0.025772536	0.265890505	0.081950036
2019-06-19T21:05:00	0.3285	14.659	213.6	0.886049498	1.194880318	0.025491088	0.262986855	0.081055103
2019-06-19T21:10:00	0.3280	14.642	213.5	0.884418941	1.192081336	0.025400166	0.262048829	0.080765994
2019-06-19T21:15:00	0.3276	14.625	213.5	0.883097048	1.189814006	0.025326587	0.261289733	0.080532033
2019-06-19T21:20:00	0.3286	14.606	199.6	0.886104321	1.194974470	0.025494148	0.263018426	0.081064833
2019-06-19T21:25:00	0.3274	14.587	213.1	0.882618056	1.188992832	0.025299955	0.261014972	0.080447349
2019-06-19T21:30:00	0.3271	14.568	213.1	0.881605014	1.187256788	0.025243680	0.260434396	0.080268410
2019-06-19T21:35:00	0.3274	14.550	213.0	0.882448393	1.188702015	0.025290525	0.260917688	0.080417365
2019-06-19T21:40:00	0.3280	14.532	212.8	0.884219408	1.191738992	0.025389052	0.261934170	0.080730655
2019-06-19T21:45:00	0.3249	14.515	212.7	0.874846438	1.175698926	0.024870011	0.256579321	0.079080239
2019-06-19T21:50:00	0.3278	14.498	212.6	0.883740552	1.190917553	0.025362391	0.261659113	0.080645880
2019-06-19T21:55:00	0.3260	14.482	212.5	0.878084787	1.181231575	0.025048669	0.258422503	0.079648325
2019-06-19T22:00:00	0.3265	14.466	212.4	0.879857757	1.184264757	0.025146782	0.259434719	0.079960300
2019-06-19T22:05:00	0.3257	14.449	212.3	0.877298194	1.179886807	0.025005208	0.257974125	0.079510131
2019-06-19T22:10:00	0.3251	14.432	212.2	0.875356878	1.176570359	0.024898125	0.256869366	0.079169633
2019-06-19T22:15:00	0.3244	14.415	198.5	0.873104512	1.172726883	0.024774202	0.255590877	0.078775591
2019-06-19T22:20:00	0.3250	14.399	212.0	0.875192449	1.176289617	0.024889067	0.256775914	0.079140830
2019-06-19T22:25:00	0.3256	14.382	198.3	0.876969491	1.179325023	0.024987059	0.257786883	0.079452421
2019-06-19T22:30:00	0.3251	14.365	198.2	0.875337957	1.176538053	0.024897083	0.256858612	0.079166319
2019-06-19T22:35:00	0.3251	14.350	211.8	0.875255743	1.176397681	0.024892553	0.256811885	0.079151917
2019-06-19T22:40:00	0.3244	14.334	198.1	0.873313422	1.173083174	0.024785682	0.255709310	0.078812093
2019-06-19T22:45:00	0.3232	14.319	211.6	0.869508242	1.166599836	0.024577046	0.253556856	0.078148686
2019-06-19T22:50:00	0.3236	14.304	211.5	0.870667298	1.168573245	0.024640494	0.254211429	0.078350431
2019-06-19T22:55:00	0.3249	14.289	211.3	0.874616894	1.175307122	0.024857374	0.256448948	0.079040056
2019-06-19T23:00:00	0.3245	14.275	211.3	0.873604572	1.173579789	0.024801685	0.255874417	0.078862980
2019-06-19T23:05:00	0.3235	14.261	211.2	0.870420358	1.168152702	0.024626968	0.254071893	0.078307425
2019-06-19T23:10:00	0.3235	14.247	211.1	0.870338042	1.168012527	0.024622461	0.254025388	0.078293092
2019-06-19T23:15:00	0.3235	14.234	211.1	0.870566043	1.168400798	0.024634947	0.254154209	0.078332795
2019-06-19T23:20:00	0.3255	14.221	211.0	0.876685117	1.178839081	0.024971363	0.257624954	0.079402513
2019-06-19T23:25:00	0.3244	14.209	210.9	0.873193304	1.172878310	0.024779081	0.255641210	0.078791104
2019-06-19T23:30:00	0.3229	14.195	210.8	0.868456697	1.164810545	0.024519562	0.252963805	0.077965901
2019-06-19T23:35:00	0.3217	14.183	210.8	0.864957577	1.158863826	0.024328813	0.250995879	0.077359367
2019-06-19T23:40:00	0.3211	14.169	210.6	0.863010165	1.155559095	0.024223008	0.249904310	0.077022935
2019-06-19T23:45:00	0.3202	14.156	210.6	0.860128499	1.150675339	0.024066910	0.248293877	0.076526584
2019-06-19T23:50:00	0.3213	14.142	210.5	0.863467004	1.156334032	0.024247806	0.250160143	0.077101786
2019-06-19T23:55:00	0.3209	14.130	210.4	0.862451808	1.154612213	0.024192719	0.249591821	0.076926623
2019-06-20T00:00:00	0.3194	14.117	210.3	0.857702225	1.146569276	0.023935911	0.246942384	0.076110041
2019-06-20T00:05:00	0.3207	14.106	210.2	0.861664866	1.153278177	0.024150065	0.249151770	0.076790995
2019-06-20T00:10:00	0.3212	14.094	210.1	0.863137144	1.155774471	0.024229899	0.249975405	0.077044848
2019-06-20T00:15:00	0.3198	14.082	210.1	0.859010884	1.148783292	0.024006519	0.247670834	0.076334557
2019-06-20T00:20:00	0.3200	14.070	210.0	0.859550735	1.149697079	0.024035680	0.247971680	0.076427280
2019-06-20T00:25:00	0.3210	14.058	210.0	0.862578805	1.154827555	0.024199606	0.249662878	0.076948524
2019-06-20T00:30:00	0.3236	14.046	196.4	0.870572580	1.168411931	0.024635305	0.254157903	0.078333934
2019-06-20T00:35:00	0.3212	14.035	209.8	0.863346584	1.156129745	0.024241268	0.250092693	0.077080997
2019-06-20T00:40:00	0.3241	14.024	209.8	0.872269428	1.171303069	0.024728343	0.255117761	0.078629772
2019-06-20T00:45:00	0.3223	14.013	196.2	0.866599960	1.161653637	0.024418243	0.251918509	0.077643731
2019-06-20T00:50:00	0.3224	14.002	209.6	0.867138767	1.162569414	0.024447621	0.252221598	0.077737146
2019-06-20T00:55:00	0.3254	13.990	196.1	0.876362890	1.178288547	0.024953585	0.257441538	0.079345982
2019-06-20T01:00:00	0.3242	13.976	209.5	0.872560655	1.171799535	0.024744331	0.255282700	0.078680607
2019-06-20T01:05:00	0.3209	13.964	209.4	0.862229887	1.154235951	0.024180686	0.249467682	0.076888362
2019-06-20T01:10:00	0.3224	13.952	209.3	0.867119807	1.162537184	0.024446587	0.252210929	0.077733858
2019-06-20T01:15:00	0.3234	13.940	209.2	0.870142050	1.167678804	0.024611730	0.253914682	0.078258971
2019-06-20T01:20:00	0.3220	13.930	195.8	0.865712469	1.160145805	0.024369895	0.251419718	0.077489999
2019-06-20T01:25:00	0.3210	13.918	195.7	0.862521857	1.154730991	0.024196518	0.249631014	0.076938703
2019-06-20T01:30:00	0.3207	13.905	195.5	0.861817427	1.153536757	0.024158331	0.249237047	0.076817279
2019-06-20T01:35:00	0.3195	13.893	195.6	0.858001092	1.147074766	0.023952026	0.247108641	0.076161283
2019-06-20T01:40:00	0.3179	13.882	208.9	0.852934413	1.138516273	0.023679633	0.244298413	0.075295144
2019-06-20T01:45:00	0.3174	13.871	195.5	0.851292860	1.135748451	0.023591748	0.243391716	0.075015691
2019-06-20T01:50:00	0.3183	13.859	208.8	0.854327322	1.140866793	0.023754348	0.245069228	0.075532716
2019-06-20T01:55:00	0.3187	13.847	195.3	0.855490870	1.142831630	0.023816859	0.245714140	0.075731484
2019-06-20T02:00:00	0.3184	13.836	195.3	0.854473605	1.141113747	0.023762202	0.245150256	0.075557690
2019-06-20T02:05:00	0.3179	13.825	195.2	0.853144399	1.138870510	0.023690889	0.244414531	0.075330932
2019-06-20T02:10:00	0.3163	13.814	195.2	0.848071417	1.130323940	0.023419800	0.241617761	0.074468940
2019-06-20T02:15:00	0.3161	13.800	195.1	0.847364379	1.129134647	0.023382154	0.241229369	0.074349234
2019-06-20T02:20:00	0.3168	13.788	195.0	0.849466061	1.132671183	0.023494156	0.242384876	0.074705373
2019-06-20T02:25:00	0.3166	13.774	195.0	0.849071302	1.132006608	0.023473096	0.242167606	0.074638408
2019-06-20T02:30:00	0.3156	13.761	194.8	0.845867087	1.126617590	0.023302540	0.240408005	0.074096082
2019-06-20T02:35:00	0.3155	13.747	194.8	0.845471964	1.125953700	0.023281555	0.240191510	0.074029356
2019-06-20T02:40:00	0.3141	13.733	194.7	0.841014349	1.118473853	0.023045533	0.237756511	0.073278866
2019-06-20T02:45:00	0.3162	13.719	207.1	0.847803995	1.129874062	0.023405557	0.241470820	0.074423652
2019-06-20T02:50:00	0.3143	13.704	194.6	0.841786377	1.119768013	0.023086316	0.238177262	0.073408545
2019-06-20T02:55:00	0.3158	13.690	194.5	0.846389695	1.127495899	0.023330311	0.240694515	0.074184387
2019-06-20T03:00:00	0.3147	13.676	194.4	0.842870775	1.121586720	0.023143667	0.238768942	0.073590907
2019-06-20T03:05:00	0.3164	13.662	194.4	0.848409123	1.130892151	0.023437793	0.241803392	0.074526154
2019-06-20T03:10:00	0.3159	13.650	194.3	0.846765666	1.128127920	0.023350301	0.240900751	0.074247951
2019-06-20T03:15:00	0.3143	13.637	194.2	0.841684372	1.119596989	0.023080925	0.238121646	0.073391404
2019-06-20T03:20:00	0.3120	13.625	194.2	0.834717887	1.107939299	0.022714391	0.234340180	0.072225919
2019-06-20T03:25:00	0.3110	13.613	194.0	0.831501816	1.102572443	0.022546263	0.232605643	0.071691318
2019-06-20T03:30:00	0.3141	13.602	194.0	0.841122959	1.118655883	0.023051268	0.237815678	0.073297101
2019-06-20T03:35:00	0.3146	13.590	194.0	0.842602996	1.121137512	0.023129497	0.238622759	0.073545852
2019-06-20T03:40:00	0.3134	13.579	207.2	0.839080649	1.115234754	0.022943557	0.236704443	0.072954608
2019-06-20T03:45:00	0.3120	13.570	207.2	0.834615696	1.107768621	0.022709038	0.234284956	0.072208899
2019-06-20T03:50:00	0.3114	13.559	207.1	0.832653076	1.104492541	0.022606370	0.233225747	0.071882440
2019-06-20T03:55:00	0.3127	13.551	193.8	0.836641245	1.111153421	0.022815265	0.235380882	0.072546674
2019-06-20T04:00:00	0.3113	13.544	193.7	0.832486842	1.104215217	0.022597685	0.233136153	0.071854826
2019-06-20T04:05:00	0.3123	13.536	193.8	0.835353072	1.109000383	0.022747677	0.234683590	0.072331762
2019-06-20T04:10:00	0.3109	13.530	193.8	0.831014161	1.101759485	0.022520830	0.232343250	0.071610446
2019-06-20T04:15:00	0.3127	13.523	207.0	0.836699564	1.111250930	0.022818327	0.235412478	0.072556412
2019-06-20T04:20:00	0.3147	13.516	193.6	0.843001702	1.121806378	0.023150596	0.238840434	0.073612941
2019-06-20T04:25:00	0.3139	13.513	193.6	0.840547970	1.117692320	0.023020915	0.237502534	0.073200588
2019-06-20T04:30:00	0.3143	13.511	206.8	0.841845611	1.119867329	0.023089446	0.238209561	0.073418500
2019-06-20T04:35:00	0.3181	13.511	206.8	0.853752972	1.139897367	0.023723525	0.244751229	0.075434706
2019-06-20T04:40:00	0.3210	13.510	206.8	0.862515976	1.154721018	0.024196199	0.249627723	0.076937689
2019-06-20T04:45:00	0.3210	13.508	193.6	0.862562781	1.154800383	0.024198737	0.249653911	0.076945760
2019-06-20T04:50:00	0.3217	13.507	193.5	0.864785533	1.158571729	0.024319455	0.250899338	0.077329613
2019-06-20T04:55:00	0.3245	13.504	206.7	0.873523972	1.173442302	0.024797255	0.255828704	0.078848891
2019-06-20T05:00:00	0.3230	13.499	206.7	0.868916842	1.165593394	0.024544708	0.253223224	0.078045857
2019-06-20T05:05:00	0.3244	13.495	206.7	0.873307241	1.173072631	0.024785342	0.255705806	0.078811013
2019-06-20T05:10:00	0.3259	13.493	193.4	0.878002490	1.181090852	0.025044120	0.258375571	0.079633860
2019-06-20T05:15:00	0.3300	13.492	193.4	0.890418503	1.202392199	0.025735597	0.265509407	0.081832578
2019-06-20T05:20:00	0.3298	13.495	193.5	0.889847432	1.201409320	0.025703564	0.265178928	0.081730721
2019-06-20T05:25:00	0.3302	13.498	193.5	0.891128896	1.203615290	0.025775476	0.265920831	0.081959383
2019-06-20T05:30:00	0.3311	13.503	206.8	0.893952638	1.208481580	0.025934329	0.267559692	0.082464496
2019-06-20T05:35:00	0.3308	13.511	206.9	0.893073540	1.206965796	0.025884816	0.267048877	0.082307058
2019-06-20T05:40:00	0.3317	13.518	206.9	0.895895901	1.211834797	0.026043964	0.268690780	0.082813108
2019-06-20T05:45:00	0.3312	13.536	206.7	0.894091938	1.208721835	0.025942180	0.267640685	0.082489458
2019-06-20T05:50:00	0.3350	13.556	207.1	0.905842781	1.229053685	0.026609173	0.274521934	0.084610326
2019-06-20T05:55:00	0.3342	13.573	193.9	0.903427872	1.224864814	0.026471332	0.273099850	0.084172026
2019-06-20T06:00:00	0.3318	13.594	207.3	0.896081542	1.212155316	0.026054451	0.268798972	0.082846454
2019-06-20T06:05:00	0.3320	13.607	194.1	0.896744523	1.213300245	0.026091923	0.269185556	0.082965603
2019-06-20T06:10:00	0.3319	13.617	194.1	0.896482654	1.212847964	0.026077118	0.269032823	0.082918529
2019-06-20T06:15:00	0.3322	13.625	207.5	0.897453787	1.214525554	0.026132043	0.269599469	0.083093175
2019-06-20T06:20:00	0.3316	13.634	194.2	0.895342172	1.210878947	0.026012698	0.268368209	0.082713688
2019-06-20T06:25:00	0.3331	13.644	207.4	0.900011407	1.218947928	0.026277001	0.271094980	0.083554106
2019-06-20T06:30:00	0.3333	13.655	194.2	0.900673734	1.220094147	0.026314613	0.271483009	0.083673700
2019-06-20T06:35:00	0.3337	13.668	207.6	0.901951717	1.222306968	0.026387270	0.272232597	0.083904730
2019-06-20T06:40:00	0.3334	13.684	207.7	0.901074384	1.220787706	0.026337379	0.271717883	0.083746090
2019-06-20T06:45:00	0.3325	13.699	207.8	0.898348460	1.216071840	0.026182700	0.270122087	0.083254250
2019-06-20T06:50:00	0.3315	13.711	207.8	0.895312309	1.210827406	0.026011012	0.268350819	0.082708329
2019-06-20T06:55:00	0.3324	13.725	194.6	0.897824916	1.215166896	0.026153050	0.269816194	0.083159971
2019-06-20T07:00:00	0.3315	13.737	208.0	0.895096767	1.210455420	0.025998848	0.268225319	0.082669648
2019-06-20T07:05:00	0.3330	13.741	208.0	0.899766290	1.218523834	0.026263090	0.270951454	0.083509870
2019-06-20T07:10:00	0.3313	13.744	194.6	0.894572795	1.209551318	0.025969289	0.267920371	0.082575660
2019-06-20T07:15:00	0.3327	13.746	194.6	0.898934852	1.217085719	0.026215931	0.270464929	0.083359918
2019-06-20T07:20:00	0.3307	13.754	194.7	0.892814680	1.206519592	0.025870247	0.266898565	0.082260730
2019-06-20T07:25:00	0.3307	13.764	208.0	0.892552552	1.206067820	0.025855498	0.266746404	0.082213832
2019-06-20T07:30:00	0.3301	13.761	194.7	0.890747071	1.202957839	0.025754037	0.265699653	0.081891213
2019-06-20T07:35:00	0.3309	13.772	194.8	0.893262563	1.207291659	0.025895458	0.267158667	0.082340896
2019-06-20T07:40:00	0.3330	13.777	194.8	0.899782827	1.218552444	0.026264028	0.270961136	0.083512854
2019-06-20T07:45:00	0.3347	13.790	194.9	0.905062154	1.227699025	0.026564572	0.274061792	0.084468506
2019-06-20T07:50:00	0.3331	13.788	194.8	0.900183566	1.219245826	0.026286775	0.271195811	0.083585183
2019-06-20T07:55:00	0.3334	13.790	208.2	0.901153798	1.220925196	0.026341893	0.271764451	0.083760443
2019-06-20T08:00:00	0.3312	13.794	194.9	0.894111748	1.208756002	0.025943296	0.267652203	0.082493009
2019-06-20T08:05:00	0.3318	13.799	194.9	0.896008523	1.212029241	0.026050326	0.268756413	0.082833337
2019-06-20T08:10:00	0.3316	13.803	195.0	0.895438255	1.211044786	0.026018122	0.268424166	0.082730935
2019-06-20T08:15:00	0.3319	13.817	194.9	0.896409642	1.212721874	0.026072992	0.268990248	0.082905407
2019-06-20T08:20:00	0.3325	13.822	195.0	0.898305323	1.215997268	0.026180256	0.270096875	0.083246480
2019-06-20T08:25:00	0.3330	13.834	195.0	0.899892095	1.218741491	0.026270229	0.271025112	0.083532572
2019-06-20T08:30:00	0.3325	13.845	195.1	0.898398088	1.216157636	0.026185511	0.270151093	0.083263191
2019-06-20T08:35:00	0.3306	13.855	195.2	0.892277089	1.205593135	0.025840004	0.266586553	0.082164565
2019-06-20T08:40:00	0.3322	13.877	195.3	0.897258155	1.214187538	0.026120973	0.269485266	0.083057976
2019-06-20T08:45:00	0.3304	13.899	195.4	0.891752746	1.204689764	0.025810525	0.266282424	0.082070829
2019-06-20T08:50:00	0.3322	13.932	195.5	0.897350945	1.214347858	0.026126223	0.269539430	0.083074670
2019-06-20T08:55:00	0.3310	13.986	195.8	0.893697084	1.208040868	0.025919930	0.267411142	0.082418711
2019-06-20T09:00:00	0.3306	14.031	196.0	0.892509352	1.205993372	0.025853067	0.266721331	0.082206105
2019-06-20T09:05:00	0.3305	14.076	209.6	0.891938581	1.205009903	0.025820970	0.266390190	0.082104044
2019-06-20T09:10:00	0.3291	14.128	196.4	0.887661852	1.197650473	0.025581172	0.263916235	0.081341547
2019-06-20T09:15:00	0.3274	14.154	196.4	0.882452492	1.188709042	0.025290753	0.260920039	0.080418090
2019-06-20T09:20:00	0.3308	14.163	196.5	0.893003715	1.206845432	0.025880886	0.267008328	0.082294560
2019-06-20T09:25:00	0.3305	14.174	209.9	0.892124408	1.205330059	0.025831418	0.266497975	0.082137264
2019-06-20T09:30:00	0.3298	14.171	196.4	0.890009959	1.201689017	0.025712678	0.265272959	0.081759702
2019-06-20T09:35:00	0.3298	14.174	196.5	0.890056439	1.201769010	0.025715285	0.265299854	0.081767991
2019-06-20T09:40:00	0.3296	14.198	210.2	0.889176479	1.200254917	0.025665956	0.264790937	0.081611138
2019-06-20T09:45:00	0.3307	14.242	210.4	0.892618819	1.206182025	0.025859226	0.266784866	0.082225687
2019-06-20T09:50:00	0.3312	14.265	210.6	0.894207860	1.208921783	0.025948714	0.267708095	0.082510235
2019-06-20T09:55:00	0.3299	14.296	210.8	0.890242354	1.202088994	0.025725714	0.265407445	0.081801152
2019-06-20T10:00:00	0.3287	14.309	210.8	0.886581946	1.195794842	0.025520817	0.263293564	0.081149634
2019-06-20T10:05:00	0.3304	14.333	211.0	0.891654791	1.204521029	0.025805020	0.266225630	0.082053325
2019-06-20T10:10:00	0.3290	14.364	211.2	0.887462483	1.197307810	0.025570023	0.263801218	0.081306097
2019-06-20T10:15:00	0.3315	14.406	211.3	0.895310528	1.210824332	0.026010912	0.268349781	0.082708009
2019-06-20T10:20:00	0.3304	14.445	211.6	0.891739427	1.204666820	0.025809776	0.266274702	0.082068449
2019-06-20T10:25:00	0.3319	14.485	198.2	0.896497424	1.212873472	0.026077953	0.269041437	0.082921184
2019-06-20T10:30:00	0.3316	14.513	211.9	0.895395086	1.210970275	0.026015685	0.268399024	0.082723186
2019-06-20T10:35:00	0.3300	14.547	212.1	0.890589295	1.202686210	0.025745181	0.265608289	0.081863054
2019-06-20T10:40:00	0.3319	14.581	212.4	0.896273670	1.212487068	0.026065307	0.268910970	0.082880973
2019-06-20T10:45:00	0.3305	14.621	212.5	0.892086236	1.205264292	0.025829272	0.266475833	0.082130440
2019-06-20T10:50:00	0.3316	14.666	212.8	0.895610611	1.211342294	0.026027853	0.268524560	0.082761877
2019-06-20T10:55:00	0.3332	14.711	213.0	0.900363985	1.219558046	0.026297019	0.271301502	0.083617758
2019-06-20T11:00:00	0.3306	14.757	213.3	0.892479468	1.205941872	0.025851386	0.266703988	0.082200759
2019-06-20T11:05:00	0.3299	14.800	213.5	0.890141109	1.201914734	0.025720034	0.265348850	0.081783093
2019-06-20T11:10:00	0.3297	14.839	213.8	0.889654679	1.201077637	0.025692756	0.265067432	0.081696357
2019-06-20T11:15:00	0.3293	14.877	213.9	0.888241530	1.198646995	0.025613602	0.264250811	0.081444666
2019-06-20T11:20:00	0.3278	14.923	214.2	0.883736349	1.190910343	0.025362157	0.261656699	0.080645136
2019-06-20T11:25:00	0.3273	14.973	214.4	0.882321088	1.188483821	0.025283451	0.260844705	0.080394871
2019-06-20T11:30:00	0.3291	15.009	214.6	0.887708359	1.197730412	0.025583773	0.263943069	0.081349817
2019-06-20T11:35:00	0.3283	15.070	215.0	0.885367187	1.193708777	0.025453020	0.262594110	0.080934055
2019-06-20T11:40:00	0.3270	15.130	215.2	0.881168219	1.186508550	0.025219438	0.260184289	0.080191325
2019-06-20T11:45:00	0.3284	15.182	215.5	0.885629790	1.194159620	0.025467667	0.262745229	0.080980631
2019-06-20T11:50:00	0.3268	15.203	215.6	0.880502630	1.185368720	0.025182521	0.259803430	0.080073940
2019-06-20T11:55:00	0.3276	15.228	215.8	0.883109450	1.189835272	0.025327277	0.261296849	0.080534227
2019-06-20T12:00:00	0.3277	15.252	215.9	0.883550129	1.190590955	0.025351793	0.261549777	0.080612181
2019-06-20T12:05:00	0.3284	15.240	215.8	0.885536725	1.193999838	0.025462476	0.262691668	0.080964123
2019-06-20T12:10:00	0.3279	15.216	215.8	0.884122108	1.191572063	0.025383633	0.261878267	0.080713425
2019-06-20T12:15:00	0.3300	15.199	215.7	0.890433296	1.202417663	0.025736427	0.265517971	0.081835217
2019-06-20T12:20:00	0.3324	15.190	215.7	0.897967327	1.215413028	0.026161113	0.269899381	0.083185611
2019-06-20T12:25:00	0.3336	15.187	215.7	0.901486501	1.221501273	0.026360808	0.271959596	0.083820589
2019-06-20T12:30:00	0.3313	15.189	215.7	0.894529617	1.209476827	0.025966854	0.267895250	0.082567918
2019-06-20T12:35:00	0.3349	15.184	215.7	0.905748412	1.228889890	0.026603779	0.274466285	0.084593175
2019-06-20T12:40:00	0.3368	15.165	215.6	0.911411236	1.238733365	0.026928535	0.277816733	0.085625815
2019-06-20T12:45:00	0.3370	15.140	215.5	0.912155880	1.240029976	0.026971403	0.278258990	0.085762123
2019-06-20T12:50:00	0.3355	15.111	215.3	0.907370254	1.231706023	0.026696566	0.275423548	0.084888213
2019-06-20T12:55:00	0.3344	15.085	215.1	0.904117651	1.226060743	0.026510663	0.273505626	0.084297090
2019-06-20T13:00:00	0.3352	15.063	215.0	0.906709037	1.230557605	0.026658715	0.275033053	0.084767858
2019-06-20T13:05:00	0.3362	15.045	215.0	0.909606026	1.235592190	0.026824771	0.276746213	0.085295870
2019-06-20T13:10:00	0.3343	15.031	214.9	0.903894325	1.225673495	0.026497926	0.273374213	0.084256588
2019-06-20T13:15:00	0.3337	15.025	214.8	0.901870541	1.222166367	0.026382651	0.272184950	0.083890045
2019-06-20T13:20:00	0.3363	15.030	214.8	0.909997534	1.236273179	0.026847256	0.276978188	0.085367367
2019-06-20T13:25:00	0.3350	15.037	214.8	0.905824493	1.229021941	0.026608128	0.274511149	0.084607002
2019-06-20T13:30:00	0.3363	15.038	214.7	0.909951286	1.236192728	0.026844599	0.276950779	0.085358920
2019-06-20T13:35:00	0.3359	15.055	214.8	0.908852658	1.234282183	0.026781532	0.276300132	0.085158384
2019-06-20T13:40:00	0.3374	15.071	214.9	0.913283331	1.241994135	0.027036380	0.278929348	0.085968734
2019-06-20T13:45:00	0.3365	15.070	214.9	0.910649961	1.237408330	0.026884749	0.277365003	0.085486588
2019-06-20T13:50:00	0.3338	15.076	215.1	0.902170131	1.222685303	0.026399698	0.272360820	0.083944250
2019-06-20T13:55:00	0.3355	15.098	215.1	0.907530605	1.231984587	0.026705749	0.275518294	0.084917414
2019-06-20T14:00:00	0.3323	15.087	215.0	0.897503426	1.214611328	0.026134852	0.269628451	0.083102107
2019-06-20T14:05:00	0.3326	15.059	214.8	0.898558801	1.216435485	0.026194617	0.270245037	0.083292145
2019-06-20T14:10:00	0.3309	15.037	214.7	0.893448328	1.207611937	0.025905919	0.267266588	0.082374158
2019-06-20T14:15:00	0.3293	15.036	214.8	0.888331277	1.198801306	0.025618625	0.264302632	0.081460638
2019-06-20T14:20:00	0.3309	15.031	214.8	0.893401888	1.207531866	0.025903303	0.267239606	0.082365842
2019-06-20T14:25:00	0.3309	15.018	214.7	0.893224403	1.207225871	0.025893309	0.267136500	0.082334064
2019-06-20T14:30:00	0.3294	14.999	214.6	0.888724880	1.199478158	0.025640661	0.264529970	0.081530706
2019-06-20T14:35:00	0.3294	14.987	214.6	0.888547186	1.199172573	0.025630711	0.264427324	0.081499069
2019-06-20T14:40:00	0.3293	14.976	214.5	0.888369485	1.198867003	0.025620764	0.264324695	0.081467438
2019-06-20T14:45:00	0.3299	14.961	214.5	0.890353668	1.202280595	0.025731959	0.265471875	0.081821010
2019-06-20T14:50:00	0.3305	14.965	214.4	0.892028245	1.205164378	0.025826011	0.266442195	0.082120072
2019-06-20T14:55:00	0.3298	14.993	214.7	0.889998418	1.201669154	0.025712031	0.265266281	0.081757644
2019-06-20T15:00:00	0.3286	15.007	214.7	0.886113458	1.194990162	0.025494658	0.263023688	0.081066455
2019-06-20T15:05:00	0.3271	15.001	214.6	0.881605855	1.187258230	0.025243727	0.260434877	0.080268559
2019-06-20T15:10:00	0.3275	14.985	214.6	0.882665464	1.189074097	0.025302590	0.261042159	0.080455729
2019-06-20T15:15:00	0.3271	14.965	214.5	0.881559275	1.187178430	0.025241141	0.260408200	0.080260336
2019-06-20T15:20:00	0.3270	14.945	214.3	0.881381260	1.186873471	0.025231260	0.260306258	0.080228917
2019-06-20T15:25:00	0.3280	14.925	200.5	0.884296743	1.191871673	0.025393359	0.261978606	0.080744351
2019-06-20T15:30:00	0.3276	14.916	214.2	0.883191010	1.189975119	0.025331814	0.261343650	0.080548651
2019-06-20T15:35:00	0.3262	14.916	200.4	0.878680074	1.182249664	0.025081588	0.258762118	0.079752998
2019-06-20T15:40:00	0.3260	14.912	214.1	0.878192234	1.181415311	0.025054609	0.258483783	0.079667212
2019-06-20T15:45:00	0.3259	14.906	200.4	0.877704333	1.180581075	0.025027643	0.258205580	0.079581468
2019-06-20T15:50:00	0.3236	14.905	214.1	0.870705536	1.168638370	0.024642588	0.254233040	0.078357092
2019-06-20T15:55:00	0.3255	14.909	214.2	0.876728350	1.178912953	0.024973749	0.257649568	0.079410099
2019-06-20T16:00:00	0.3255	14.915	214.2	0.876550116	1.178608417	0.024963914	0.257548101	0.079378826
2019-06-20T16:05:00	0.3254	14.924	214.4	0.876251358	1.178098013	0.024947433	0.257378069	0.079326420
2019-06-20T16:10:00	0.3243	14.930	214.2	0.872852527	1.172297181	0.024760359	0.255448064	0.078731574
2019-06-20T16:15:00	0.3251	14.931	214.3	0.875343855	1.176548122	0.024897408	0.256861964	0.079167352
2019-06-20T16:20:00	0.3251	14.931	214.3	0.875354948	1.176567063	0.024898019	0.256868269	0.079169295
2019-06-20T16:25:00	0.3251	14.929	214.3	0.875366040	1.176586003	0.024898630	0.256874574	0.079171238
2019-06-20T16:30:00	0.3226	14.926	214.3	0.867621295	1.163389764	0.024473947	0.252493200	0.077820856
2019-06-20T16:35:00	0.3244	14.921	214.3	0.873218136	1.172920660	0.024780445	0.255655288	0.078795443
2019-06-20T16:40:00	0.3250	14.919	214.3	0.875089379	1.176113650	0.024883390	0.256717344	0.079122779
2019-06-20T16:45:00	0.3256	14.915	214.2	0.876959736	1.179308353	0.024986521	0.257781327	0.079450709
2019-06-20T16:50:00	0.3265	14.911	214.2	0.879758070	1.184094136	0.025141260	0.259377748	0.079942741
2019-06-20T16:55:00	0.3264	14.906	214.2	0.879459554	1.183583262	0.025124728	0.259207188	0.079890173
2019-06-20T17:00:00	0.3254	14.900	214.2	0.876373349	1.178306414	0.024954162	0.257447490	0.079347817
2019-06-20T17:05:00	0.3258	14.893	214.2	0.877623641	1.180443127	0.025023185	0.258159586	0.079567292
2019-06-20T17:10:00	0.3249	14.887	214.2	0.874845982	1.175698147	0.024869986	0.256579062	0.079080159
2019-06-20T17:15:00	0.3259	14.881	214.1	0.877955552	1.181010595	0.025041526	0.258348806	0.079625611
2019-06-20T17:20:00	0.3239	14.871	213.9	0.871767267	1.170447196	0.024700790	0.254833494	0.078542158
2019-06-20T17:25:00	0.3244	14.863	214.2	0.873329122	1.173109951	0.024786545	0.255718212	0.078814836
2019-06-20T17:30:00	0.3234	14.857	214.1	0.870238114	1.167842371	0.024616989	0.253968940	0.078275694
2019-06-20T17:35:00	0.3243	14.852	213.9	0.873041219	1.172618945	0.024770725	0.255555001	0.078764533
2019-06-20T17:40:00	0.3220	14.847	200.4	0.865602605	1.159959199	0.024363914	0.251358010	0.077470980
2019-06-20T17:45:00	0.3225	14.842	213.9	0.867166908	1.162617252	0.024449156	0.252237434	0.077742027
2019-06-20T17:50:00	0.3223	14.836	213.7	0.866556826	1.161580337	0.024415892	0.251894255	0.077636256
2019-06-20T17:55:00	0.3226	14.828	213.8	0.867499701	1.163183022	0.024467312	0.252424743	0.077799757
2019-06-20T18:00:00	0.3213	14.820	214.1	0.863471616	1.156341857	0.024248056	0.250162727	0.077102582
2019-06-20T18:05:00	0.3224	14.813	213.7	0.866900788	1.162164902	0.024434643	0.252087706	0.077695879
2019-06-20T18:10:00	0.3224	14.806	213.8	0.866911904	1.162183797	0.024435249	0.252093959	0.077697807
2019-06-20T18:15:00	0.3216	14.799	213.7	0.864437479	1.157980886	0.024300531	0.250704095	0.077269437
2019-06-20T18:20:00	0.3206	14.791	213.7	0.861339470	1.152726726	0.024132440	0.248969936	0.076734952
2019-06-20T18:25:00	0.3204	14.783	213.6	0.860728482	1.151691543	0.024099365	0.248628708	0.076629782
2019-06-20T18:30:00	0.3181	14.775	213.6	0.853578140	1.139602336	0.023714146	0.244654476	0.075404886
2019-06-20T18:35:00	0.3206	14.765	213.6	0.861372867	1.152783319	0.024134249	0.248988595	0.076740703
2019-06-20T18:40:00	0.3201	14.755	213.4	0.859828526	1.150167392	0.024050693	0.248126565	0.076475017
2019-06-20T18:45:00	0.3192	14.745	213.5	0.857038262	1.145446571	0.023900131	0.246573248	0.075996270
2019-06-20T18:50:00	0.3196	14.734	213.4	0.858294717	1.147571472	0.023967865	0.247272042	0.076211645
2019-06-20T18:55:00	0.3192	14.722	213.3	0.857060551	1.145484253	0.023901332	0.246585635	0.076000088
2019-06-20T19:00:00	0.3208	14.710	213.2	0.862050537	1.153931902	0.024170964	0.249367381	0.076857449
2019-06-20T19:05:00	0.3227	14.700	213.2	0.867965831	1.163975644	0.024492754	0.252687228	0.077880658
2019-06-20T19:10:00	0.3221	14.690	213.1	0.866113436	1.160826951	0.024391732	0.251645004	0.077559434
2019-06-20T19:15:00	0.3237	14.678	213.0	0.871091937	1.169296546	0.024663761	0.254451476	0.078424416
2019-06-20T19:20:00	0.3239	14.669	213.0	0.871723523	1.170372651	0.024698390	0.254808740	0.078534528
2019-06-20T19:25:00	0.3253	14.656	212.9	0.876075244	1.177797175	0.024937721	0.257277867	0.079295537
2019-06-20T19:30:00	0.3235	14.644	212.9	0.870504677	1.168296291	0.024631586	0.254119533	0.078322108
2019-06-20T19:35:00	0.3243	14.628	212.7	0.872997489	1.172544373	0.024768322	0.255530216	0.078756894
2019-06-20T19:40:00	0.3228	14.614	212.6	0.868354119	1.164636055	0.024513959	0.252905994	0.077948083
2019-06-20T19:45:00	0.3259	14.600	212.6	0.877978390	1.181049644	0.025042788	0.258361828	0.079629625
2019-06-20T19:50:00	0.3271	14.589	198.9	0.881704409	1.187427080	0.025249199	0.260491328	0.080285957
2019-06-20T19:55:00	0.3266	14.582	198.8	0.880168023	1.184795856	0.025163974	0.259612080	0.080014964
2019-06-20T20:00:00	0.3267	14.573	198.8	0.880179103	1.184814823	0.025164588	0.259618414	0.080016917
2019-06-20T20:05:00	0.3271	14.567	212.3	0.881428192	1.186953867	0.025233865	0.260333132	0.080237200
2019-06-20T20:10:00	0.3239	14.559	212.2	0.871524332	1.170033226	0.024687466	0.254696035	0.078499792
2019-06-20T20:15:00	0.3258	14.548	198.5	0.877425415	1.180104267	0.025012235	0.258046615	0.079532473
2019-06-20T20:20:00	0.3236	14.542	198.3	0.870615739	1.168485435	0.024637669	0.254182292	0.078341451
2019-06-20T20:25:00	0.3242	14.532	198.4	0.872488219	1.171676044	0.024740354	0.255241670	0.078667961
2019-06-20T20:30:00	0.3226	14.522	211.9	0.867533714	1.163240851	0.024469168	0.252443891	0.077805659
2019-06-20T20:35:00	0.3223	14.513	211.8	0.866613082	1.161675937	0.024418958	0.251925889	0.077646006
2019-06-20T20:40:00	0.3244	14.504	198.2	0.873141778	1.172790436	0.024776250	0.255612001	0.078782101
2019-06-20T20:45:00	0.3243	14.497	211.7	0.872842762	1.172280531	0.024759823	0.255442530	0.078729869
2019-06-20T20:50:00	0.3298	14.489	211.6	0.889874118	1.201455243	0.025705060	0.265194366	0.081735479
2019-06-20T20:55:00	0.3291	14.485	211.5	0.887723022	1.197755615	0.025584593	0.263951530	0.081352425
2019-06-20T21:00:00	0.3294	14.477	197.8	0.888660857	1.199368052	0.025637076	0.264492984	0.081519306
2019-06-20T21:05:00	0.3295	14.467	211.3	0.888980789	1.199918303	0.025654993	0.264677835	0.081576279
2019-06-20T21:10:00	0.3302	14.454	197.8	0.891153301	1.203657317	0.025776846	0.265934971	0.081963741
2019-06-20T21:15:00	0.3302	14.439	211.3	0.891164350	1.203676343	0.025777467	0.265941373	0.081965714
2019-06-20T21:20:00	0.3301	14.426	211.2	0.890866692	1.203163797	0.025760752	0.265768935	0.081912567
2019-06-20T21:25:00	0.3303	14.413	211.1	0.891495128	1.204246017	0.025796048	0.266133072	0.082024797
2019-06-20T21:30:00	0.3311	14.402	211.0	0.893974754	1.208519724	0.025935575	0.267572550	0.082468459
2019-06-20T21:35:00	0.3341	14.388	210.9	0.903229326	1.224520660	0.026460017	0.272983113	0.084136047
2019-06-20T21:40:00	0.3362	14.377	210.8	0.909698078	1.235752291	0.026830056	0.276800745	0.085312678
2019-06-20T21:45:00	0.3370	14.368	210.6	0.912166419	1.240048330	0.026972010	0.278265252	0.085764053
2019-06-20T21:50:00	0.3391	14.358	210.6	0.918620762	1.251308715	0.027345169	0.282115070	0.086950604
2019-06-20T21:55:00	0.3401	14.349	210.4	0.921696361	1.256688169	0.027523992	0.283959947	0.087519214
2019-06-20T22:00:00	0.3387	14.339	210.3	0.917416207	1.249204267	0.027275311	0.281394352	0.086728472
2019-06-20T22:05:00	0.3395	14.331	210.0	0.919657355	1.253120806	0.027405367	0.282736114	0.087142016
2019-06-20T22:10:00	0.3371	14.324	209.8	0.912389771	1.240437344	0.026984875	0.278397982	0.085804962
2019-06-20T22:15:00	0.3403	14.318	209.8	0.922298529	1.257742443	0.027559079	0.284321939	0.087630783
2019-06-20T22:20:00	0.3423	14.312	209.6	0.928208842	1.268108229	0.027904790	0.287888578	0.088730056
2019-06-20T22:25:00	0.3431	14.303	209.5	0.930749665	1.272574511	0.028054150	0.289429498	0.089204982
2019-06-20T22:30:00	0.3401	14.297	209.3	0.921664439	1.256632290	0.027522132	0.283940765	0.087513301
2019-06-20T22:35:00	0.3413	14.291	195.8	0.925127747	1.262700375	0.027724268	0.286026162	0.088156041
2019-06-20T22:40:00	0.3409	14.283	209.3	0.923998136	1.260719941	0.027658248	0.285345042	0.087946113
2019-06-20T22:45:00	0.3416	14.275	209.2	0.926235623	1.264643863	0.027789103	0.286695058	0.088362201
2019-06-20T22:50:00	0.3405	14.266	195.8	0.922963147	1.258906448	0.027597835	0.284721772	0.087754015
2019-06-20T22:55:00	0.3389	14.257	209.2	0.917848595	1.249959525	0.027300376	0.281652943	0.086808173
2019-06-20T23:00:00	0.3379	14.249	209.1	0.914876162	1.244771066	0.027128326	0.279877942	0.086261100
2019-06-20T23:05:00	0.3366	14.240	195.6	0.910980136	1.237982949	0.026903735	0.277560874	0.085546957
2019-06-20T23:10:00	0.3398	14.231	209.0	0.920585951	1.254744958	0.027459355	0.283293102	0.087313685
2019-06-20T23:15:00	0.3402	14.222	209.1	0.921906450	1.257055954	0.027536230	0.284086213	0.087558130
2019-06-20T23:20:00	0.3385	14.212	209.0	0.916790552	1.248111738	0.027239065	0.281020412	0.086613220
2019-06-20T23:25:00	0.3390	14.201	209.1	0.918112298	1.250420225	0.027315669	0.281810717	0.086856800
2019-06-20T23:30:00	0.3377	14.193	195.8	0.914219416	1.243625813	0.027090395	0.279486606	0.086140486
2019-06-20T23:35:00	0.3387	14.183	195.7	0.917382479	1.249145362	0.027273356	0.281374187	0.086722257
2019-06-20T23:40:00	0.3377	14.171	209.2	0.914102787	1.243422473	0.027083661	0.279417142	0.086119077
2019-06-20T23:45:00	0.3375	14.159	209.2	0.913584050	1.242518224	0.027053726	0.279108300	0.086023889
2019-06-20T23:50:00	0.3394	14.148	209.2	0.919507174	1.252858209	0.027396641	0.282646091	0.087114270
2019-06-20T23:55:00	0.3384	14.137	209.2	0.916535969	1.247667284	0.027224324	0.280868332	0.086566348
2019-06-21T00:00:00	0.3391	14.126	209.2	0.918471029	1.251047045	0.027336480	0.282025424	0.086922975
2019-06-21T00:05:00	0.3404	14.115	209.1	0.922549694	1.258182283	0.027573722	0.284473003	0.087677342
2019-06-21T00:10:00	0.3384	14.106	209.1	0.916514498	1.247629803	0.027223081	0.280855508	0.086562395
2019-06-21T00:15:00	0.3399	14.096	195.7	0.920901567	1.255297166	0.027477718	0.283482553	0.087372076
2019-06-21T00:20:00	0.3393	14.085	209.0	0.919157737	1.252247286	0.027376343	0.282436687	0.087049730
2019-06-21T00:25:00	0.3390	14.074	209.1	0.918333062	1.250805957	0.027328475	0.281942838	0.086897521
2019-06-21T00:30:00	0.3400	14.063	195.8	0.921186515	1.255795799	0.027494303	0.283653656	0.087424812
2019-06-21T00:35:00	0.3383	14.052	209.4	0.916069701	1.246853427	0.027197338	0.280589918	0.086480538
2019-06-21T00:40:00	0.3399	14.042	209.4	0.921070088	1.255592053	0.027487526	0.283583738	0.087403262
2019-06-21T00:45:00	0.3392	14.032	195.9	0.918713232	1.251470322	0.027350536	0.282170440	0.086967670
2019-06-21T00:50:00	0.3396	14.022	209.3	0.920034346	1.253780080	0.027427277	0.282962166	0.087211688
2019-06-21T00:55:00	0.3388	14.012	195.8	0.917676882	1.249659570	0.027290420	0.281550234	0.086776516
2019-06-21T01:00:00	0.3401	14.001	195.8	0.921450000	1.256256939	0.027509644	0.283811922	0.087473591
2019-06-21T01:05:00	0.3404	13.992	195.9	0.922463939	1.258032102	0.027568722	0.284421420	0.087661444
2019-06-21T01:10:00	0.3391	13.985	196.0	0.918575273	1.251229218	0.027342529	0.282087834	0.086942210
2019-06-21T01:15:00	0.3400	13.977	196.0	0.921428555	1.256219405	0.027508395	0.283799039	0.087469620
2019-06-21T01:20:00	0.3377	13.966	196.1	0.914164179	1.243529506	0.027087205	0.279453706	0.086130346
2019-06-21T01:25:00	0.3399	13.957	209.5	0.921005748	1.255479465	0.027483781	0.283545104	0.087391355
2019-06-21T01:30:00	0.3402	13.945	196.1	0.922019799	1.257254402	0.027542835	0.284154350	0.087579130
2019-06-21T01:35:00	0.3390	13.934	209.7	0.918130704	1.250452383	0.027316736	0.281821731	0.086860195
2019-06-21T01:40:00	0.3407	13.922	209.7	0.923434755	1.259732669	0.027625354	0.285005680	0.087841518
2019-06-21T01:45:00	0.3378	13.912	196.2	0.914639879	1.244358983	0.027114676	0.279737113	0.086217695
2019-06-21T01:50:00	0.3392	13.901	196.2	0.918722434	1.251486404	0.027351070	0.282175950	0.086969368
2019-06-21T01:55:00	0.3383	13.890	196.3	0.916057435	1.246832021	0.027196628	0.280582596	0.086478281
2019-06-21T02:00:00	0.3394	13.878	196.4	0.919525574	1.252890380	0.027397710	0.282657119	0.087117669
2019-06-21T02:05:00	0.3392	13.865	209.8	0.918700975	1.251448900	0.027349825	0.282163100	0.086965408
2019-06-21T02:10:00	0.3411	13.854	196.3	0.924616568	1.261804028	0.027694381	0.285717825	0.088061009
2019-06-21T02:15:00	0.3426	13.841	196.4	0.929300599	1.270026587	0.027968914	0.288550127	0.088933951
2019-06-21T02:20:00	0.3424	13.828	209.9	0.928783818	1.269118397	0.027938551	0.288236878	0.088837405
2019-06-21T02:25:00	0.3437	13.816	196.4	0.932546554	1.275736758	0.028160048	0.290522025	0.089541709
2019-06-21T02:30:00	0.3430	13.803	209.8	0.930502090	1.272139056	0.028039577	0.289279151	0.089158644
2019-06-21T02:35:00	0.3437	13.791	209.9	0.932735974	1.276070285	0.028171224	0.290637328	0.089577247
2019-06-21T02:40:00	0.3426	13.778	209.8	0.929163003	1.269784751	0.027960828	0.288466704	0.088908240
2019-06-21T02:45:00	0.3431	13.765	209.8	0.930786361	1.272639061	0.028056311	0.289451787	0.089211852
2019-06-21T02:50:00	0.3423	13.752	209.9	0.928435184	1.268505850	0.027918078	0.288025660	0.088772306
2019-06-21T02:55:00	0.3428	13.738	209.8	0.929753113	1.270822042	0.027995516	0.288824576	0.089018539
2019-06-21T03:00:00	0.3451	13.724	209.8	0.936873496	1.283363955	0.028415968	0.293162299	0.090355468
2019-06-21T03:05:00	0.3425	13.711	209.6	0.929025402	1.269542924	0.027952742	0.288383291	0.088882531
2019-06-21T03:10:00	0.3431	13.699	209.6	0.930648816	1.272397122	0.028048214	0.289368249	0.089186105
2019-06-21T03:15:00	0.3439	13.686	209.6	0.933188104	1.276866521	0.028197911	0.290912651	0.089662104
2019-06-21T03:20:00	0.3444	13.673	209.6	0.934809847	1.279724119	0.028293750	0.291901406	0.089966848
2019-06-21T03:25:00	0.3438	13.659	196.1	0.932766528	1.276124087	0.028173027	0.290655929	0.089582980
2019-06-21T03:30:00	0.3412	13.647	209.4	0.924910442	1.262319302	0.027711561	0.285895064	0.088115635
2019-06-21T03:35:00	0.3422	13.636	196.0	0.928065112	1.267855759	0.027896355	0.287801547	0.088703232
2019-06-21T03:40:00	0.3427	13.623	195.9	0.929688912	1.270709173	0.027991741	0.288785629	0.089006536
2019-06-21T03:45:00	0.3417	13.610	209.2	0.926419240	1.264966084	0.027799857	0.286806003	0.088396396
2019-06-21T03:50:00	0.3418	13.597	209.0	0.926820063	1.265669579	0.027823340	0.287048273	0.088471065
2019-06-21T03:55:00	0.3407	13.586	195.7	0.923548062	1.259931205	0.027631967	0.285073914	0.087862549
2019-06-21T04:00:00	0.3407	13.575	209.1	0.923336775	1.259560999	0.027619635	0.284946683	0.087823335
2019-06-21T04:05:00	0.3426	13.563	209.1	0.929242832	1.269925055	0.027965519	0.288515102	0.088923156
2019-06-21T04:10:00	0.3409	13.551	195.8	0.924133516	1.260957227	0.027666155	0.285426624	0.087971258
2019-06-21T04:15:00	0.3418	13.540	209.2	0.926674169	1.265413499	0.027814792	0.286960077	0.088443883
2019-06-21T04:20:00	0.3419	13.528	209.5	0.927072229	1.266112240	0.027838120	0.287200748	0.088518060
2019-06-21T04:25:00	0.3418	13.519	195.8	0.926858389	1.265736855	0.027825586	0.287071445	0.088478207
2019-06-21T04:30:00	0.3420	13.507	196.0	0.927562343	1.266972773	0.027866857	0.287497231	0.088609439
2019-06-21T04:35:00	0.3434	13.495	196.0	0.931629086	1.274121777	0.028105950	0.289963907	0.089369692
2019-06-21T04:40:00	0.3443	13.484	209.4	0.934470414	1.279125817	0.028273676	0.291694303	0.089903017
2019-06-21T04:45:00	0.3437	13.474	195.9	0.932729711	1.276059256	0.028170855	0.290633515	0.089576072
2019-06-21T04:50:00	0.3418	13.465	209.4	0.926707021	1.265471162	0.027816716	0.286979936	0.088450003
2019-06-21T04:55:00	0.3432	13.456	196.1	0.931080270	1.273156098	0.028073618	0.289630337	0.089266883
2019-06-21T05:00:00	0.3443	13.447	196.2	0.934532776	1.279235731	0.028277363	0.291732346	0.089914742
2019-06-21T05:05:00	0.3435	13.438	196.2	0.931875483	1.274555423	0.028120473	0.290113738	0.089415872
2019-06-21T05:10:00	0.3438	13.431	196.3	0.932884071	1.276331075	0.028179964	0.290727495	0.089605038
2019-06-21T05:15:00	0.3432	13.424	196.3	0.931142684	1.273265906	0.028077294	0.289668261	0.089278571
2019-06-21T05:20:00	0.3444	13.416	196.3	0.934595137	1.279345647	0.028281051	0.291770392	0.089926468
2019-06-21T05:25:00	0.3449	13.410	196.3	0.936213585	1.282199577	0.028376853	0.292758761	0.090231093
2019-06-21T05:30:00	0.3453	13.405	196.3	0.937526250	1.284516107	0.028454687	0.293561765	0.090478587
2019-06-21T05:35:00	0.3442	13.400	196.4	0.934260183	1.278755306	0.028261247	0.291566073	0.089863495
2019-06-21T05:40:00	0.3461	13.398	209.9	0.939845345	1.288612699	0.028592490	0.294983449	0.090916764
2019-06-21T05:45:00	0.3466	13.397	209.5	0.941461698	1.291470917	0.028688756	0.295976602	0.091222863
2019-06-21T05:50:00	0.3456	13.397	196.5	0.938503888	1.286242449	0.028512734	0.294160621	0.090663160
2019-06-21T05:55:00	0.3446	13.398	209.9	0.935238610	1.280480036	0.028319119	0.292163130	0.090047514
2019-06-21T06:00:00	0.3445	13.399	210.1	0.935025202	1.280103773	0.028306491	0.292032846	0.090007359
2019-06-21T06:05:00	0.3448	13.400	210.1	0.936033005	1.281881026	0.028366155	0.292648390	0.090197076
2019-06-21T06:10:00	0.3453	13.402	210.1	0.937345729	1.284197436	0.028443976	0.293451261	0.090444529
2019-06-21T06:15:00	0.3455	13.405	210.3	0.938047859	1.285437068	0.028485649	0.293881194	0.090577038
2019-06-21T06:20:00	0.3459	13.408	210.4	0.939359931	1.287754814	0.028563615	0.294685555	0.090824950
2019-06-21T06:25:00	0.3486	13.409	210.4	0.947678462	1.302487051	0.029060699	0.299813879	0.092405549
2019-06-21T06:30:00	0.3496	13.412	196.9	0.950508575	1.307514104	0.029230913	0.301569943	0.092946785
2019-06-21T06:35:00	0.3484	13.416	210.5	0.946948514	1.301191693	0.029016888	0.299361885	0.092266240
2019-06-21T06:40:00	0.3484	13.419	197.1	0.947040166	1.301354309	0.029022387	0.299418616	0.092283725
2019-06-21T06:45:00	0.3481	13.426	210.6	0.945913930	1.299356590	0.028954856	0.298721911	0.092068994
2019-06-21T06:50:00	0.3474	13.438	210.5	0.943873477	1.295740274	0.028832731	0.297461976	0.091680670
2019-06-21T06:55:00	0.3484	13.455	210.7	0.947010684	1.301302000	0.029020618	0.299400367	0.092278101
2019-06-21T07:00:00	0.3503	13.466	210.8	0.952578349	1.311195375	0.029355750	0.302857866	0.093343736
2019-06-21T07:05:00	0.3513	13.478	210.7	0.955708860	1.316770953	0.029545133	0.304811694	0.093945924
2019-06-21T07:10:00	0.3491	13.499	210.7	0.949111703	1.305031933	0.029146830	0.300702475	0.092679423
2019-06-21T07:15:00	0.3501	13.502	210.6	0.952244876	1.310601990	0.029335617	0.302650153	0.093279717
2019-06-21T07:20:00	0.3494	13.511	197.1	0.949903388	1.306438491	0.029194468	0.301193945	0.092830899
2019-06-21T07:25:00	0.3502	13.516	196.9	0.952427938	1.310927720	0.029346668	0.302764169	0.093314857
2019-06-21T07:30:00	0.3498	13.524	196.9	0.951303193	1.308926921	0.029278805	0.302064032	0.093099068
2019-06-21T07:35:00	0.3503	13.535	196.8	0.952610993	1.311253467	0.029357722	0.302878204	0.093350004
2019-06-21T07:40:00	0.3477	13.539	210.2	0.944790591	1.297365200	0.028887587	0.298027905	0.091855095
2019-06-21T07:45:00	0.3496	13.538	196.6	0.950665465	1.307793004	0.029240365	0.301667460	0.092976841
2019-06-21T07:50:00	0.3492	13.554	212.5	0.949235976	1.305252685	0.029154305	0.300779593	0.092703192
2019-06-21T07:55:00	0.3501	13.578	212.4	0.952065008	1.310281976	0.029324761	0.302538151	0.093245196
2019-06-21T08:00:00	0.3491	13.587	213.4	0.949114908	1.305037626	0.029147023	0.300704464	0.092680036
2019-06-21T08:05:00	0.3496	13.615	211.1	0.950727578	1.307903428	0.029244108	0.301706073	0.092988742
2019-06-21T08:10:00	0.3489	13.632	210.8	0.948385218	1.303741735	0.029103154	0.300251877	0.092540545
2019-06-21T08:15:00	0.3476	13.659	212.5	0.944518687	1.296883363	0.028871317	0.297860057	0.091803362
2019-06-21T08:20:00	0.3481	13.679	213.9	0.946133181	1.299745403	0.028967996	0.298857471	0.092110775
2019-06-21T08:25:00	0.3507	13.698	211.9	0.953830078	1.313423647	0.029431393	0.303638254	0.093584259
2019-06-21T08:30:00	0.3493	13.724	196.7	0.949664493	1.306013992	0.029180089	0.301045594	0.092785176
2019-06-21T08:35:00	0.3481	13.743	213.3	0.946103693	1.299693107	0.028966228	0.298839237	0.092105155
2019-06-21T08:40:00	0.3492	13.769	212.7	0.949239181	1.305258378	0.029154498	0.300781582	0.092703805
2019-06-21T08:45:00	0.3486	13.790	196.9	0.947504805	1.302178835	0.029050273	0.299706313	0.092372397
2019-06-21T08:50:00	0.3506	13.818	210.6	0.953679713	1.313155896	0.029422300	0.303544450	0.093555347
2019-06-21T08:55:00	0.3477	13.858	210.9	0.944947702	1.297643644	0.028896990	0.298124914	0.091884994
2019-06-21T09:00:00	0.3490	13.874	210.9	0.948692744	1.304287823	0.029121638	0.300442572	0.092599319
2019-06-21T09:05:00	0.3504	13.902	211.2	0.953042357	1.312021208	0.029383778	0.303147019	0.093432855
2019-06-21T09:10:00	0.3504	13.911	211.1	0.953133871	1.312184108	0.029389307	0.303204066	0.093450438
2019-06-21T09:15:00	0.3504	13.920	211.3	0.952921402	1.311805915	0.029376470	0.303071630	0.093409620
2019-06-21T09:20:00	0.3500	13.942	211.3	0.951796793	1.309804833	0.029308576	0.302371178	0.093193734
2019-06-21T09:25:00	0.3490	13.951	211.4	0.948846498	1.304560886	0.029130882	0.300537939	0.092628712
2019-06-21T09:30:00	0.3485	13.976	211.6	0.947111954	1.301481689	0.029026695	0.299463057	0.092297422
2019-06-21T09:35:00	0.3488	13.998	211.8	0.948116760	1.303265094	0.029087024	0.300085464	0.092489254
2019-06-21T09:40:00	0.3517	14.021	211.8	0.957024845	1.319117548	0.029624949	0.305635140	0.094199718
2019-06-21T09:45:00	0.3505	14.041	211.9	0.953470474	1.312783344	0.029409651	0.303413944	0.093515124
2019-06-21T09:50:00	0.3495	14.075	212.1	0.950217208	1.306996207	0.029213363	0.301388886	0.092890982
2019-06-21T09:55:00	0.3496	14.100	198.6	0.950612962	1.307699668	0.029237202	0.301634824	0.092966782
2019-06-21T10:00:00	0.3488	14.128	212.4	0.948270536	1.303538112	0.029096263	0.300180781	0.092518632
2019-06-21T10:05:00	0.3509	14.143	212.6	0.954395824	1.314431249	0.029465617	0.303991337	0.093693082
2019-06-21T10:10:00	0.3505	14.153	212.6	0.953223146	1.312343028	0.029394702	0.303259723	0.093467592
2019-06-21T10:15:00	0.3492	14.165	199.0	0.949312688	1.305388960	0.029158920	0.300827202	0.092717865
2019-06-21T10:20:00	0.3489	14.187	212.8	0.948442885	1.303844130	0.029106620	0.300287631	0.092551564
2019-06-21T10:25:00	0.3494	14.226	212.9	0.950007308	1.306623166	0.029200724	0.301258491	0.092850793
2019-06-21T10:30:00	0.3489	14.273	213.2	0.948529057	1.303997146	0.029111799	0.300341062	0.092568032
2019-06-21T10:35:00	0.3452	14.301	213.3	0.937296753	1.284110984	0.028441071	0.293421285	0.090435290
2019-06-21T10:40:00	0.3472	14.337	213.7	0.943438585	1.294970020	0.028806740	0.297193826	0.091598023
2019-06-21T10:45:00	0.3470	14.353	213.6	0.942567524	1.293427783	0.028754720	0.296657145	0.091432613
2019-06-21T10:50:00	0.3462	14.357	213.7	0.940171824	1.289189818	0.028611920	0.295183900	0.090978545
2019-06-21T10:55:00	0.3469	14.374	213.8	0.942349048	1.293041077	0.028741681	0.296522622	0.091391152
2019-06-21T11:00:00	0.3463	14.387	213.9	0.940563101	1.289881613	0.028635215	0.295424237	0.091052619
2019-06-21T11:05:00	0.3469	14.389	200.1	0.942435349	1.293193826	0.028746831	0.296575756	0.091407528
2019-06-21T11:10:00	0.3486	14.396	214.0	0.947656363	1.302447828	0.029059373	0.299800190	0.092401330
2019-06-21T11:15:00	0.3452	14.410	214.1	0.937337227	1.284182428	0.028443472	0.293446057	0.090442925
2019-06-21T11:20:00	0.3456	14.430	214.2	0.938295801	1.285874928	0.028500374	0.294033100	0.090623857
2019-06-21T11:25:00	0.3461	14.447	214.3	0.939864136	1.288645913	0.028593608	0.294994984	0.090920319
2019-06-21T11:30:00	0.3456	14.460	214.5	0.938382188	1.286027500	0.028505505	0.294086037	0.090640173
2019-06-21T11:35:00	0.3445	14.473	214.5	0.935068120	1.280179438	0.028309030	0.292059044	0.090015434
2019-06-21T11:40:00	0.3437	14.491	214.5	0.932667979	1.275950556	0.028167212	0.290595935	0.089564490
2019-06-21T11:45:00	0.3447	14.514	214.7	0.935765181	1.281408627	0.028350292	0.292484738	0.090146637
2019-06-21T11:50:00	0.3437	14.536	214.8	0.932754486	1.276102883	0.028172317	0.290648598	0.089580721
2019-06-21T11:55:00	0.3433	14.552	215.0	0.931269933	1.273489790	0.028084789	0.289745589	0.089302405
2019-06-21T12:00:00	0.3446	14.583	215.1	0.935284257	1.280560523	0.028321821	0.292191002	0.090056104
2019-06-21T12:05:00	0.3450	14.609	201.5	0.936548549	1.282790553	0.028396703	0.292963554	0.090294213
2019-06-21T12:10:00	0.3432	14.608	215.3	0.931094117	1.273180459	0.028074433	0.289638750	0.089269476
2019-06-21T12:15:00	0.3449	14.611	201.6	0.936329748	1.282404512	0.028383736	0.292829773	0.090252980
2019-06-21T12:20:00	0.3417	14.621	215.5	0.926593665	1.265272203	0.027810075	0.286911417	0.088428885
2019-06-21T12:25:00	0.3413	14.649	215.7	0.925412917	1.263200524	0.027740949	0.286198254	0.088209082
2019-06-21T12:30:00	0.3445	14.686	215.9	0.934932968	1.279941166	0.028301034	0.291976547	0.089990008
2019-06-21T12:35:00	0.3445	14.697	216.0	0.934976197	1.280017378	0.028303591	0.292002933	0.089998140
2019-06-21T12:40:00	0.3426	14.706	216.0	0.929213879	1.269874168	0.027963817	0.288497548	0.088917746
2019-06-21T12:45:00	0.3437	14.710	215.9	0.932619257	1.275864768	0.028164337	0.290566277	0.089555349
2019-06-21T12:50:00	0.3437	14.706	216.0	0.932662512	1.275940930	0.028166890	0.290592607	0.089563464
2019-06-21T12:55:00	0.3460	14.711	216.0	0.939726415	1.288402490	0.028585414	0.294910447	0.090894264
2019-06-21T13:00:00	0.3437	14.705	216.0	0.932749019	1.276093256	0.028171994	0.290645270	0.089579695
2019-06-21T13:05:00	0.3432	14.699	215.9	0.930958832	1.272942457	0.028066466	0.289556556	0.089244143
2019-06-21T13:10:00	0.3416	14.705	202.2	0.926108909	1.264421517	0.027781684	0.286618508	0.088338608
2019-06-21T13:15:00	0.3411	14.716	216.2	0.924621908	1.261813389	0.027694693	0.285721045	0.088062001
2019-06-21T13:20:00	0.3420	14.724	216.3	0.927419386	1.266721749	0.027858473	0.287410735	0.088582780
2019-06-21T13:25:00	0.3409	14.741	216.3	0.924096308	1.260892009	0.027663982	0.285404201	0.087964346
2019-06-21T13:30:00	0.3402	14.759	216.2	0.921995964	1.257212671	0.027541446	0.284140021	0.087574714
2019-06-21T13:35:00	0.3403	14.756	216.5	0.922345641	1.257824941	0.027561825	0.284350271	0.087639515
2019-06-21T13:40:00	0.3410	14.764	216.5	0.924226345	1.261119940	0.027671578	0.285482572	0.087988501
2019-06-21T13:45:00	0.3386	14.772	216.5	0.916915371	1.248329670	0.027246294	0.281094991	0.086636206
2019-06-21T13:50:00	0.3373	14.780	216.5	0.912969620	1.241447493	0.027018291	0.278742732	0.085911217
2019-06-21T13:55:00	0.3388	14.790	216.7	0.917615579	1.249552491	0.027286866	0.281513571	0.086765217
2019-06-21T14:00:00	0.3398	14.792	216.7	0.920724361	1.254987112	0.027467407	0.283376175	0.087339289
2019-06-21T14:05:00	0.3380	14.806	216.8	0.915248458	1.245420465	0.027149842	0.280099917	0.086329515
2019-06-21T14:10:00	0.3394	14.842	217.0	0.919585286	1.252994787	0.027401179	0.282692911	0.087128701
2019-06-21T14:15:00	0.3400	14.862	217.1	0.921160905	1.255750981	0.027492812	0.283638276	0.087420071
2019-06-21T14:20:00	0.3386	14.852	217.1	0.916912627	1.248324878	0.027246135	0.281093351	0.086635701
2019-06-21T14:25:00	0.3389	14.840	217.1	0.917876067	1.250007517	0.027301969	0.281669378	0.086813238
2019-06-21T14:30:00	0.3390	14.836	217.1	0.918226102	1.250619065	0.027322270	0.281878821	0.086877790
2019-06-21T14:35:00	0.3360	14.832	217.1	0.909060740	1.234643957	0.026793471	0.276423301	0.085196346
2019-06-21T14:40:00	0.3387	14.828	217.2	0.917393004	1.249163743	0.027273966	0.281380479	0.086724196
2019-06-21T14:45:00	0.3387	14.837	217.2	0.917436422	1.249239574	0.027276482	0.281406439	0.086732198
2019-06-21T14:50:00	0.3383	14.847	217.3	0.915946211	1.246637913	0.027190193	0.280516206	0.086457819
2019-06-21T14:55:00	0.3363	14.862	217.5	0.909849322	1.236015363	0.026838742	0.276890357	0.085340297
2019-06-21T15:00:00	0.3366	14.874	217.2	0.910814461	1.237694603	0.026894207	0.277462580	0.085516662
2019-06-21T15:05:00	0.3362	14.878	217.3	0.909629065	1.235632261	0.026826093	0.276759861	0.085300077
2019-06-21T15:10:00	0.3356	14.886	217.0	0.907828553	1.232502248	0.026722818	0.275694387	0.084971688
2019-06-21T15:15:00	0.3341	14.913	217.6	0.903258362	1.224570989	0.026461671	0.273000184	0.084141308
2019-06-21T15:20:00	0.3351	14.938	217.7	0.906378301	1.229983326	0.026639794	0.274837846	0.084707693
2019-06-21T15:25:00	0.3351	14.948	217.5	0.906114312	1.229525018	0.026624697	0.274682089	0.084659688
2019-06-21T15:30:00	0.3369	14.955	217.6	0.911689659	1.239218108	0.026944559	0.277982047	0.085676767
2019-06-21T15:35:00	0.3349	14.956	217.9	0.905586282	1.228608506	0.026594513	0.274370693	0.084563712
2019-06-21T15:40:00	0.3342	14.953	217.9	0.903476217	1.224948619	0.026474087	0.273128279	0.084180788
2019-06-21T15:45:00	0.3347	14.949	218.1	0.905058182	1.227692133	0.026564345	0.274059452	0.084467785
2019-06-21T15:50:00	0.3344	14.946	218.0	0.904178778	1.226166745	0.026514150	0.273541601	0.084308178
2019-06-21T15:55:00	0.3336	14.941	218.0	0.901760107	1.221975099	0.026376369	0.272120137	0.083870069
2019-06-21T16:00:00	0.3358	14.934	217.9	0.908263752	1.233258522	0.026747760	0.275951711	0.085050997
2019-06-21T16:05:00	0.3342	14.932	217.8	0.903484478	1.224962940	0.026474558	0.273133137	0.084182285
2019-06-21T16:10:00	0.3345	14.929	217.8	0.904549282	1.226809323	0.026535292	0.273759712	0.084375402
2019-06-21T16:15:00	0.3351	14.920	217.9	0.906228910	1.229723962	0.026631250	0.274749698	0.084680525
2019-06-21T16:20:00	0.3341	14.905	217.8	0.903294161	1.224633039	0.026463711	0.273021230	0.084147795
2019-06-21T16:25:00	0.3334	14.895	217.8	0.900973170	1.220612482	0.026331627	0.271658537	0.083727799
2019-06-21T16:30:00	0.3324	14.888	203.7	0.898034551	1.215529220	0.026164920	0.269938655	0.083197715
2019-06-21T16:35:00	0.3339	14.884	218.0	0.902488247	1.223236419	0.026417806	0.272547635	0.084001828
2019-06-21T16:40:00	0.3334	14.882	218.0	0.901090671	1.220815904	0.026338305	0.271727433	0.083749034
2019-06-21T16:45:00	0.3327	14.879	218.0	0.898768397	1.216797884	0.026206496	0.270367584	0.083329915
2019-06-21T16:50:00	0.3326	14.875	217.9	0.898602180	1.216510485	0.026197075	0.270270397	0.083299961
2019-06-21T16:55:00	0.3318	14.866	218.3	0.895970144	1.211962979	0.026048158	0.268734046	0.082826443
2019-06-21T17:00:00	0.3331	14.855	217.7	0.900118157	1.219132641	0.026283061	0.271157499	0.083573375
2019-06-21T17:05:00	0.3316	14.846	217.4	0.895329109	1.210856402	0.026011961	0.268360602	0.082711344
2019-06-21T17:10:00	0.3318	14.838	217.5	0.896087793	1.212166109	0.026054805	0.268802616	0.082847577
2019-06-21T17:15:00	0.3314	14.830	217.5	0.894996379	1.210282183	0.025993183	0.268166879	0.082651637
2019-06-21T17:20:00	0.3316	14.822	217.4	0.895446777	1.211059495	0.026018603	0.268429129	0.082732465
2019-06-21T17:25:00	0.3328	14.813	217.4	0.899287281	1.217695227	0.026235915	0.270671097	0.083423461
2019-06-21T17:30:00	0.3323	14.806	217.2	0.897580398	1.214744334	0.026139208	0.269673394	0.083115959
2019-06-21T17:35:00	0.3311	14.794	217.6	0.894022376	1.208601857	0.025938259	0.267600238	0.082476992
2019-06-21T17:40:00	0.3299	14.781	217.4	0.890152406	1.201934176	0.025720668	0.265355388	0.081785108
2019-06-21T17:45:00	0.3288	14.767	217.1	0.886896761	1.196335685	0.025538404	0.263475001	0.081205554
2019-06-21T17:50:00	0.3279	14.751	217.2	0.883947710	1.191272889	0.025373923	0.261778085	0.080682548
2019-06-21T17:55:00	0.3285	14.736	217.1	0.885945170	1.194701158	0.025485265	0.262926782	0.081036588
2019-06-21T18:00:00	0.3294	14.722	217.0	0.888559467	1.199193691	0.025631399	0.264434417	0.081501255
2019-06-21T18:05:00	0.3301	14.707	217.2	0.890863336	1.203158017	0.025760564	0.265766990	0.081911968
2019-06-21T18:10:00	0.3290	14.693	216.9	0.887299291	1.197027355	0.025560900	0.263707092	0.081277087
2019-06-21T18:15:00	0.3272	14.679	216.7	0.881875962	1.187721017	0.025258725	0.260589606	0.080316248
2019-06-21T18:20:00	0.3289	14.667	216.6	0.887274898	1.196985435	0.025559536	0.263693024	0.081272751
2019-06-21T18:25:00	0.3283	14.654	216.7	0.885253702	1.193513964	0.025446691	0.262528819	0.080913932
2019-06-21T18:30:00	0.3291	14.642	216.6	0.887868455	1.198005607	0.025592728	0.264035454	0.081378291
2019-06-21T18:35:00	0.3302	14.630	216.5	0.891098932	1.203563691	0.025773793	0.265903470	0.081954032
2019-06-21T18:40:00	0.3290	14.620	216.5	0.887535099	1.197432615	0.025574084	0.263843107	0.081319008
2019-06-21T18:45:00	0.3301	14.608	216.3	0.890765848	1.202990168	0.025755091	0.265710528	0.081894565
2019-06-21T18:50:00	0.3298	14.597	216.2	0.889981770	1.201640504	0.025711097	0.265256649	0.081754675
2019-06-21T18:55:00	0.3302	14.585	216.2	0.891050192	1.203479760	0.025771056	0.265875232	0.081945329
2019-06-21T19:00:00	0.3300	14.572	216.0	0.890574922	1.202661468	0.025744375	0.265599967	0.081860489
2019-06-21T19:05:00	0.3333	14.559	215.9	0.900584196	1.219939168	0.026309526	0.271430534	0.083657527
2019-06-21T19:10:00	0.3307	14.546	215.8	0.892711159	1.206341169	0.025864421	0.266838467	0.082242207
2019-06-21T19:15:00	0.3312	14.532	215.9	0.894087326	1.208713880	0.025941920	0.267638003	0.082488632
2019-06-21T19:20:00	0.3313	14.518	215.8	0.894537826	1.209490990	0.025967317	0.267900026	0.082569390
2019-06-21T19:25:00	0.3313	14.504	215.6	0.894679866	1.209736045	0.025975328	0.267982670	0.082594861
2019-06-21T19:30:00	0.3321	14.489	201.7	0.896980190	1.213707327	0.026105250	0.269323048	0.083007979
2019-06-21T19:35:00	0.3315	14.473	215.8	0.895272317	1.210758384	0.026008755	0.268327531	0.082701151
2019-06-21T19:40:00	0.3328	14.458	215.9	0.899112990	1.217393785	0.026226031	0.270569127	0.083392033
2019-06-21T19:45:00	0.3339	14.442	215.5	0.902642170	1.223503116	0.026426570	0.272638053	0.084029696
2019-06-21T19:50:00	0.3338	14.426	215.4	0.902168283	1.222682102	0.026399593	0.272359735	0.083943916
2019-06-21T19:55:00	0.3343	14.412	215.2	0.903848913	1.225594755	0.026495336	0.273347495	0.084248353
2019-06-21T20:00:00	0.3342	14.397	215.1	0.903375169	1.224773456	0.026468328	0.273068860	0.084162475
2019-06-21T20:05:00	0.3342	14.382	201.2	0.903516893	1.225019133	0.026476406	0.273152200	0.084188161
2019-06-21T20:10:00	0.3358	14.367	214.9	0.908271864	1.233272619	0.026748225	0.275956509	0.085052476
2019-06-21T20:15:00	0.3346	14.352	214.7	0.904723371	1.227111296	0.026545229	0.273862229	0.084406999
2019-06-21T20:20:00	0.3356	14.336	214.7	0.907632802	1.232162137	0.026711603	0.275578687	0.084936028
2019-06-21T20:25:00	0.3356	14.320	214.6	0.907774376	1.232408113	0.026719714	0.275662362	0.084961817
2019-06-21T20:30:00	0.3353	14.305	200.8	0.906993638	1.231051857	0.026675003	0.275201092	0.084819649
2019-06-21T20:35:00	0.3345	14.290	200.7	0.904367136	1.226493404	0.026524897	0.273652473	0.084342350
2019-06-21T20:40:00	0.3361	14.276	214.2	0.909428391	1.235283258	0.026814572	0.276640996	0.085263442
2019-06-21T20:45:00	0.3338	14.260	214.1	0.902188541	1.222717194	0.026400746	0.272371630	0.083947582
2019-06-21T20:50:00	0.3350	14.245	200.2	0.906022561	1.229365746	0.026619451	0.274627967	0.084643007
2019-06-21T20:55:00	0.3371	14.230	213.8	0.912310162	1.240298685	0.026980289	0.278350670	0.085790380
2019-06-21T21:00:00	0.3364	14.215	213.6	0.910301631	1.236802224	0.026864728	0.277158445	0.085422925
2019-06-21T21:05:00	0.3356	14.200	200.0	0.907677301	1.232239449	0.026714152	0.275604986	0.084944133
2019-06-21T21:10:00	0.3350	14.187	213.5	0.905974003	1.229281456	0.026616675	0.274599325	0.084634179
2019-06-21T21:15:00	0.3366	14.174	213.4	0.910726054	1.237540748	0.026889124	0.277410137	0.085500498
2019-06-21T21:20:00	0.3351	14.161	213.3	0.906257263	1.229773185	0.026632872	0.274766426	0.084685681
2019-06-21T21:25:00	0.3350	14.147	213.6	0.906091357	1.229485169	0.026623384	0.274668548	0.084655514
2019-06-21T21:30:00	0.3359	14.133	199.9	0.908692464	1.234003695	0.026772343	0.276205331	0.085129165
2019-06-21T21:35:00	0.3351	14.118	199.8	0.906374609	1.229976915	0.026639583	0.274835667	0.084707022
2019-06-21T21:40:00	0.3346	14.103	199.7	0.904670755	1.227020025	0.026542225	0.273831242	0.084397448
2019-06-21T21:45:00	0.3338	14.089	199.7	0.902350565	1.222997882	0.026409968	0.272466772	0.083976905
2019-06-21T21:50:00	0.3363	14.074	199.5	0.909873126	1.236056768	0.026840110	0.276904462	0.085344644
2019-06-21T21:55:00	0.3366	14.059	199.5	0.910936230	1.237906531	0.026901210	0.277534823	0.085538928
2019-06-21T22:00:00	0.3355	14.044	213.0	0.907390102	1.231740503	0.026697702	0.275435275	0.084891827
2019-06-21T22:05:00	0.3363	14.030	199.3	0.909941368	1.236175475	0.026844029	0.276944902	0.085357108
2019-06-21T22:10:00	0.3347	14.014	199.3	0.905115044	1.227790789	0.026567592	0.274092954	0.084478110
2019-06-21T22:15:00	0.3356	13.998	212.8	0.907667761	1.232222874	0.026713606	0.275599348	0.084942396
2019-06-21T22:20:00	0.3361	13.982	212.6	0.909297074	1.235054899	0.026807034	0.276563229	0.085239473
2019-06-21T22:25:00	0.3332	13.965	212.4	0.900468319	1.219738613	0.026302945	0.271362632	0.083636599
2019-06-21T22:30:00	0.3329	13.949	198.9	0.899328977	1.217767346	0.026238280	0.270695495	0.083430980
2019-06-21T22:35:00	0.3344	13.931	212.4	0.904039865	1.225925856	0.026506226	0.273459850	0.084282982
2019-06-21T22:40:00	0.3349	13.912	198.8	0.905670657	1.228754941	0.026599335	0.274420438	0.084579044
2019-06-21T22:45:00	0.3332	13.895	198.7	0.900531211	1.219847462	0.026306517	0.271399485	0.083647957
2019-06-21T22:50:00	0.3317	13.876	212.1	0.895693487	1.211485356	0.026032533	0.268572840	0.082776758
2019-06-21T22:55:00	0.3332	13.858	212.1	0.900408670	1.219635380	0.026299557	0.271327682	0.083625827
2019-06-21T23:00:00	0.3326	13.839	212.1	0.898653131	1.216598580	0.026199963	0.270300186	0.083309143
2019-06-21T23:05:00	0.3344	13.820	211.9	0.903980270	1.225822517	0.026502827	0.273424782	0.084272173
2019-06-21T23:10:00	0.3347	13.801	211.8	0.904995884	1.227584049	0.026560788	0.274022749	0.084456472
2019-06-21T23:15:00	0.3363	13.781	211.7	0.910007347	1.236290250	0.026847819	0.276984004	0.085369160
2019-06-21T23:20:00	0.3345	13.761	211.6	0.904258165	1.226304417	0.026518679	0.273588327	0.084322579
2019-06-21T23:25:00	0.3367	13.742	211.5	0.911113903	1.238215778	0.026911429	0.277640251	0.085571422
2019-06-21T23:30:00	0.3368	13.725	211.4	0.911513508	1.238911414	0.026934420	0.277877450	0.085644529
2019-06-21T23:35:00	0.3370	13.706	211.3	0.912220154	1.240141917	0.026975105	0.278297181	0.085773894
2019-06-21T23:40:00	0.3364	13.687	211.2	0.910162582	1.236560307	0.026856738	0.277076014	0.085397519
2019-06-21T23:45:00	0.3345	13.668	197.5	0.904413623	1.226574029	0.026527550	0.273679840	0.084350785
2019-06-21T23:50:00	0.3347	13.649	211.1	0.905121524	1.227802033	0.026567963	0.274096773	0.084479287
2019-06-21T23:55:00	0.3357	13.630	210.8	0.907981644	1.232768264	0.026731590	0.275784891	0.084999582
2019-06-22T00:00:00	0.3367	13.611	210.8	0.911146883	1.238273185	0.026913326	0.277659823	0.085577454
2019-06-22T00:05:00	0.3362	13.593	210.7	0.909703333	1.235761432	0.026830358	0.276803858	0.085313637
2019-06-22T00:10:00	0.3360	13.575	210.6	0.908873961	1.234319218	0.026782754	0.276312741	0.085162270
2019-06-22T00:15:00	0.3350	13.558	196.9	0.905892107	1.229139302	0.026611993	0.274551024	0.084619292
2019-06-22T00:20:00	0.3363	13.541	196.8	0.909980830	1.236244122	0.026846296	0.276968289	0.085364316
2019-06-22T00:25:00	0.3365	13.525	196.7	0.910687747	1.237474084	0.026886922	0.277387415	0.085493495
2019-06-22T00:30:00	0.3356	13.509	196.6	0.907707245	1.232291476	0.026715868	0.275622684	0.084949588
2019-06-22T00:35:00	0.3352	13.493	209.9	0.906569968	1.230316118	0.026650758	0.274950963	0.084742557
2019-06-22T00:40:00	0.3337	13.477	209.8	0.902047432	1.222472758	0.026392716	0.272288784	0.083922048
2019-06-22T00:45:00	0.3335	13.463	209.8	0.901216469	1.221033704	0.026345455	0.271801205	0.083771771
2019-06-22T00:50:00	0.3345	13.448	209.6	0.904387069	1.226527975	0.026526034	0.273664207	0.084345967
2019-06-22T00:55:00	0.3333	13.433	209.7	0.900786012	1.220288495	0.026320992	0.271548819	0.083693983
2019-06-22T01:00:00	0.3345	13.419	209.7	0.904264647	1.226315658	0.026519049	0.273592142	0.084323755
2019-06-22T01:05:00	0.3354	13.404	209.5	0.907125379	1.231280671	0.026682545	0.275278897	0.084843629
2019-06-22T01:10:00	0.3341	13.389	209.5	0.903219043	1.224502837	0.026459431	0.272977068	0.084134183
2019-06-22T01:15:00	0.3346	13.374	196.0	0.904850170	1.227331257	0.026552467	0.273936911	0.084430017
2019-06-22T01:20:00	0.3335	13.358	195.9	0.901249531	1.221090948	0.026347335	0.271820595	0.083777747
2019-06-22T01:25:00	0.3321	13.344	195.9	0.897029207	1.213792004	0.026108022	0.269351650	0.083016794
2019-06-22T01:30:00	0.3308	13.330	195.8	0.893112960	1.207033750	0.025887035	0.267071771	0.082314114
2019-06-22T01:35:00	0.3314	13.317	209.1	0.894748228	1.209853996	0.025979184	0.268022451	0.082607122
2019-06-22T01:40:00	0.3302	13.305	195.6	0.891138442	1.203631727	0.025776012	0.265926362	0.081961087
2019-06-22T01:45:00	0.3324	13.292	208.7	0.898016751	1.215498452	0.026163912	0.269928255	0.083194510
2019-06-22T01:50:00	0.3304	13.279	208.9	0.891632976	1.204483453	0.025803794	0.266212983	0.082049427
2019-06-22T01:55:00	0.3321	13.266	195.5	0.896969507	1.213688872	0.026104645	0.269316814	0.083006058
2019-06-22T02:00:00	0.3318	13.252	208.5	0.896137485	1.212251910	0.026057612	0.268831580	0.082856504
2019-06-22T02:05:00	0.3313	13.238	208.5	0.894688494	1.209750932	0.025975815	0.267987690	0.082596409
2019-06-22T02:10:00	0.3323	13.224	208.4	0.897556102	1.214702351	0.026137833	0.269659207	0.083111587
2019-06-22T02:15:00	0.3313	13.209	208.3	0.894565773	1.209539204	0.025968893	0.267916286	0.082574401
2019-06-22T02:20:00	0.3334	13.194	208.2	0.901130256	1.220884438	0.026340555	0.271750646	0.083756188
2019-06-22T02:25:00	0.3337	13.180	194.9	0.901838740	1.222111287	0.026380842	0.272166285	0.083884292
2019-06-22T02:30:00	0.3342	13.168	208.2	0.903470431	1.224938589	0.026473758	0.273124876	0.084179739
2019-06-22T02:35:00	0.3333	13.156	208.1	0.900792500	1.220299725	0.026321360	0.271552621	0.083695155
2019-06-22T02:40:00	0.3318	13.144	208.0	0.895955093	1.211936992	0.026047308	0.268725275	0.082823740
2019-06-22T02:45:00	0.3316	13.133	194.5	0.895431234	1.211032669	0.026017725	0.268420077	0.082729675
2019-06-22T02:50:00	0.3335	13.122	207.8	0.901378533	1.221314314	0.026354669	0.271896259	0.083801068
2019-06-22T02:55:00	0.3303	13.111	207.8	0.891606337	1.204437567	0.025802297	0.266197539	0.082044667
2019-06-22T03:00:00	0.3316	13.101	207.7	0.895401372	1.210981126	0.026016040	0.268402686	0.082724314
2019-06-22T03:05:00	0.3318	13.091	207.7	0.896110875	1.212205964	0.026056109	0.268816070	0.082851723
2019-06-22T03:10:00	0.3324	13.082	207.6	0.898053085	1.215561254	0.026165969	0.269949483	0.083201052
2019-06-22T03:15:00	0.3314	13.073	207.7	0.894754726	1.209865207	0.025979550	0.268026232	0.082608288
2019-06-22T03:20:00	0.3305	13.065	207.6	0.892070926	1.205237913	0.025828411	0.266466952	0.082127702
2019-06-22T03:25:00	0.3298	13.056	207.6	0.890002930	1.201676919	0.025712284	0.265268891	0.081758449
2019-06-22T03:30:00	0.3299	13.047	207.5	0.890095889	1.201836906	0.025717498	0.265322682	0.081775027
2019-06-22T03:35:00	0.3292	13.038	207.4	0.888026864	1.198277927	0.025601590	0.264126884	0.081406471
2019-06-22T03:40:00	0.3289	13.029	207.3	0.887192966	1.196844642	0.025554957	0.263645777	0.081258189
2019-06-22T03:45:00	0.3305	13.021	207.2	0.892226860	1.205506586	0.025837179	0.266557411	0.082155583
2019-06-22T03:50:00	0.3304	13.011	207.1	0.891702510	1.204603228	0.025807701	0.266253297	0.082061852
2019-06-22T03:55:00	0.3287	13.002	207.0	0.886544982	1.195731344	0.025518752	0.263272265	0.081143069
2019-06-22T04:00:00	0.3304	12.991	207.0	0.891888348	1.204923363	0.025818146	0.266361058	0.082095065
2019-06-22T04:05:00	0.3321	12.982	206.9	0.896908025	1.213582667	0.026101168	0.269280941	0.082995001
2019-06-22T04:10:00	0.3317	12.972	207.0	0.895759388	1.211599121	0.026036254	0.268611235	0.082788591
2019-06-22T04:15:00	0.3328	12.963	206.7	0.899234140	1.217603314	0.026232901	0.270640004	0.083413878
2019-06-22T04:20:00	0.3330	12.955	206.7	0.899934692	1.218815192	0.026272647	0.271050055	0.083540259
2019-06-22T04:25:00	0.3314	12.946	206.8	0.894779563	1.209908061	0.025980951	0.268040685	0.082612742
2019-06-22T04:30:00	0.3332	12.938	206.6	0.900411600	1.219640451	0.026299723	0.271329399	0.083626356
2019-06-22T04:35:00	0.3333	12.930	206.5	0.900804010	1.220319649	0.026322014	0.271559368	0.083697235
2019-06-22T04:40:00	0.3347	12.922	206.7	0.904889683	1.227399803	0.026554723	0.273960186	0.084437190
2019-06-22T04:45:00	0.3353	12.916	206.7	0.906819369	1.230749204	0.026665029	0.275098191	0.084787934
2019-06-22T04:50:00	0.3351	12.911	206.7	0.906288681	1.229827730	0.026634668	0.274784964	0.084691394
2019-06-22T04:55:00	0.3351	12.904	206.5	0.906373006	1.229974134	0.026639491	0.274834722	0.084706730
2019-06-22T05:00:00	0.3353	12.900	206.5	0.906764831	1.230654492	0.026661908	0.275065991	0.084778010
2019-06-22T05:05:00	0.3346	12.898	206.4	0.904696192	1.227064149	0.026543677	0.273846223	0.084402065
2019-06-22T05:10:00	0.3366	12.896	206.5	0.910928646	1.237893331	0.026900774	0.277530323	0.085537541
2019-06-22T05:15:00	0.3351	12.897	206.4	0.906402786	1.230025838	0.026641195	0.274852295	0.084712147
2019-06-22T05:20:00	0.3365	12.900	206.3	0.910482741	1.237117348	0.026875137	0.277265832	0.085456022
2019-06-22T05:25:00	0.3372	12.904	206.2	0.912716777	1.241006979	0.027003717	0.278592374	0.085864875
2019-06-22T05:30:00	0.3369	12.906	206.3	0.911879785	1.239549166	0.026955504	0.278094967	0.085711570
2019-06-22T05:35:00	0.3377	12.908	206.4	0.914113042	1.243440352	0.027084253	0.279423250	0.086120959
2019-06-22T05:40:00	0.3370	12.914	193.4	0.912048199	1.239842445	0.026965201	0.278195012	0.085742404
2019-06-22T05:45:00	0.3368	12.922	193.0	0.911518204	1.238919590	0.026934691	0.277880239	0.085645388
2019-06-22T05:50:00	0.3368	12.928	206.5	0.911602419	1.239066213	0.026939538	0.277930242	0.085660800
2019-06-22T05:55:00	0.3386	12.934	206.6	0.916904116	1.248310017	0.027245642	0.281088266	0.086634133
2019-06-22T06:00:00	0.3374	12.937	206.6	0.913306071	1.242033763	0.027037691	0.278942878	0.085972904
2019-06-22T06:05:00	0.3376	12.937	206.5	0.914004162	1.243250534	0.027077968	0.279358409	0.086100975
2019-06-22T06:10:00	0.3390	12.937	206.5	0.918076389	1.250357485	0.027313586	0.281789229	0.086850177
2019-06-22T06:15:00	0.3381	12.943	206.5	0.915399980	1.245684804	0.027158602	0.280190288	0.086357368
2019-06-22T06:20:00	0.3389	12.949	206.7	0.917937922	1.250115575	0.027305555	0.281706382	0.086824643
2019-06-22T06:25:00	0.3384	12.957	206.7	0.916488580	1.247584559	0.027221581	0.280840029	0.086557624
2019-06-22T06:30:00	0.3388	12.964	193.6	0.917492796	1.249338033	0.027279750	0.281440147	0.086742587
2019-06-22T06:35:00	0.3374	12.969	206.8	0.913281349	1.241990682	0.027036266	0.278928169	0.085968371
2019-06-22T06:40:00	0.3376	12.973	193.7	0.913979445	1.243207444	0.027076542	0.279343690	0.086096438
2019-06-22T06:45:00	0.3364	12.977	206.7	0.910378773	1.236936445	0.026869161	0.277204183	0.085437021
2019-06-22T06:50:00	0.3373	12.980	206.7	0.912919894	1.241360853	0.027015425	0.278713158	0.085902102
2019-06-22T06:55:00	0.3391	12.985	206.8	0.918526450	1.251143896	0.027339696	0.282058604	0.086933201
2019-06-22T07:00:00	0.3398	12.992	206.7	0.920756013	1.255042491	0.027469249	0.283395174	0.087345145
2019-06-22T07:05:00	0.3379	13.000	206.8	0.914707137	1.244476276	0.027118561	0.279777195	0.086230049
2019-06-22T07:10:00	0.3382	13.008	206.7	0.915711798	1.246228856	0.027176633	0.280376314	0.086414703
2019-06-22T07:15:00	0.3392	13.017	193.7	0.918862714	1.251731585	0.027359213	0.282259960	0.086995261
2019-06-22T07:20:00	0.3376	13.027	193.7	0.914038891	1.243311079	0.027079973	0.279379090	0.086107349
2019-06-22T07:25:00	0.3381	13.060	207.2	0.915350562	1.245598590	0.027155745	0.280160812	0.086348283
2019-06-22T07:30:00	0.3374	13.072	207.2	0.913286356	1.241999407	0.027036554	0.278931148	0.085969289
2019-06-22T07:35:00	0.3384	13.097	207.4	0.916439176	1.247498318	0.027218721	0.280810523	0.086548530
2019-06-22T07:40:00	0.3369	13.106	207.5	0.911919542	1.239618396	0.026957793	0.278118582	0.085718848
2019-06-22T07:45:00	0.3383	13.133	207.5	0.915993884	1.246721110	0.027192951	0.280544661	0.086466589
2019-06-22T07:50:00	0.3375	13.156	207.5	0.913623059	1.242586216	0.027055976	0.279131519	0.086031045
2019-06-22T07:55:00	0.3385	13.169	207.8	0.916775614	1.248085657	0.027238200	0.281011487	0.086610469
2019-06-22T08:00:00	0.3396	13.180	194.7	0.919925696	1.253590061	0.027420962	0.282897007	0.087191605
2019-06-22T08:05:00	0.3401	13.231	208.2	0.921541814	1.256417644	0.027514990	0.283867084	0.087490592
2019-06-22T08:10:00	0.3391	13.273	195.0	0.918561141	1.251204519	0.027341709	0.282079373	0.086939602
2019-06-22T08:15:00	0.3399	13.308	208.3	0.921097087	1.255639300	0.027489097	0.283599951	0.087408259
2019-06-22T08:20:00	0.3377	13.338	208.6	0.914128060	1.243466534	0.027085120	0.279432194	0.086123716
2019-06-22T08:25:00	0.3385	13.353	208.6	0.916666806	1.247895693	0.027231899	0.280946484	0.086590435
2019-06-22T08:30:00	0.3365	13.368	208.6	0.910611758	1.237341850	0.026882553	0.277342345	0.085479604
2019-06-22T08:35:00	0.3366	13.415	208.8	0.911003167	1.238023035	0.026905060	0.277574540	0.085551169
2019-06-22T08:40:00	0.3373	13.461	208.9	0.912929909	1.241378302	0.027016002	0.278719114	0.085903938
2019-06-22T08:45:00	0.3354	13.514	209.2	0.907176675	1.231369768	0.026685482	0.275309194	0.084852967
2019-06-22T08:50:00	0.3359	13.568	196.3	0.908797938	1.234187052	0.026778393	0.276267747	0.085148403
2019-06-22T08:55:00	0.3366	13.624	209.9	0.910725741	1.237540203	0.026889106	0.277409951	0.085500441
2019-06-22T09:00:00	0.3345	13.648	209.9	0.904354033	1.226470680	0.026524149	0.273644760	0.084339972
2019-06-22T09:05:00	0.3377	13.694	210.2	0.914271664	1.243716909	0.027093411	0.279517728	0.086150078
2019-06-22T09:10:00	0.3373	13.702	210.1	0.913128009	1.241723474	0.027027423	0.278836943	0.085940254
2019-06-22T09:15:00	0.3359	13.738	197.0	0.908604637	1.233851022	0.026767306	0.276153363	0.085113148
2019-06-22T09:20:00	0.3366	13.764	197.1	0.910839720	1.237738563	0.026895660	0.277477565	0.085521280
2019-06-22T09:25:00	0.3370	13.771	197.2	0.912152437	1.240023980	0.026971204	0.278256944	0.085761493
2019-06-22T09:30:00	0.3368	13.789	197.3	0.911622455	1.239101098	0.026940691	0.277942140	0.085664467
2019-06-22T09:35:00	0.3369	13.798	210.8	0.911706669	1.239247725	0.026945538	0.277992148	0.085679880
2019-06-22T09:40:00	0.3376	13.805	210.8	0.913940022	1.243138718	0.027074266	0.279320216	0.086089203
2019-06-22T09:45:00	0.3370	13.813	197.3	0.912182174	1.240075770	0.026972917	0.278274613	0.085766938
2019-06-22T09:50:00	0.3388	13.826	197.4	0.917483105	1.249321108	0.027279188	0.281434352	0.086740801
2019-06-22T09:55:00	0.3385	13.848	197.4	0.916647108	1.247861304	0.027230759	0.280934717	0.086586808
2019-06-22T10:00:00	0.3363	13.861	210.9	0.909977594	1.236238492	0.026846110	0.276966371	0.085363725
2019-06-22T10:05:00	0.3381	13.871	210.9	0.915365575	1.245624781	0.027156613	0.280169767	0.086351043
2019-06-22T10:10:00	0.3365	13.884	210.8	0.910621779	1.237359287	0.026883129	0.277348288	0.085481436
2019-06-22T10:15:00	0.3359	13.918	211.2	0.908639413	1.233911474	0.026769301	0.276173940	0.085119490
2019-06-22T10:20:00	0.3379	13.947	211.2	0.914949880	1.244899643	0.027132586	0.279921887	0.086274644
2019-06-22T10:25:00	0.3376	13.972	211.3	0.913890586	1.243052540	0.027071413	0.279290781	0.086080131
2019-06-22T10:30:00	0.3367	14.020	198.1	0.911295603	1.238532066	0.026921882	0.277748092	0.085604659
2019-06-22T10:35:00	0.3369	14.032	211.6	0.911771158	1.239360014	0.026949250	0.278030448	0.085691684
2019-06-22T10:40:00	0.3376	14.037	198.1	0.913781700	1.242862733	0.027065130	0.279225953	0.086060151
2019-06-22T10:45:00	0.3377	14.052	211.7	0.914256959	1.243691271	0.027092562	0.279508969	0.086147379
2019-06-22T10:50:00	0.3376	14.072	198.4	0.913811425	1.242914548	0.027066845	0.279243650	0.086065605
2019-06-22T10:55:00	0.3366	14.107	212.1	0.910909233	1.237859543	0.026899657	0.277518805	0.085533991
2019-06-22T11:00:00	0.3341	14.165	198.9	0.903083617	1.224268116	0.026451714	0.272897460	0.084109648
2019-06-22T11:05:00	0.3339	14.203	212.6	0.902636836	1.223493874	0.026426266	0.272634919	0.084028730
2019-06-22T11:10:00	0.3349	14.262	199.4	0.905574820	1.228588615	0.026593859	0.274363936	0.084561630
2019-06-22T11:15:00	0.3329	14.321	213.3	0.899587414	1.218214383	0.026252940	0.270846742	0.083477596
2019-06-22T11:20:00	0.3324	14.346	213.5	0.897907745	1.215310049	0.026157739	0.269864576	0.083174883
2019-06-22T11:25:00	0.3352	14.364	213.6	0.906695872	1.230534744	0.026657962	0.275025282	0.084765463
2019-06-22T11:30:00	0.3360	14.374	213.5	0.909016291	1.234566674	0.026790920	0.276396988	0.085188236
2019-06-22T11:35:00	0.3340	14.378	213.8	0.902726259	1.223648823	0.026431359	0.272687455	0.084044922
2019-06-22T11:40:00	0.3335	14.389	213.6	0.901355830	1.221275002	0.026353378	0.271882942	0.083796963
2019-06-22T11:45:00	0.3338	14.423	200.0	0.902140424	1.222633842	0.026398008	0.272343379	0.083938874
2019-06-22T11:50:00	0.3341	14.456	200.1	0.903232637	1.224526400	0.026460205	0.272985060	0.084136647
2019-06-22T11:55:00	0.3319	14.525	214.3	0.896316935	1.212561778	0.026067752	0.268936194	0.082888747
2019-06-22T12:00:00	0.3333	14.567	214.5	0.900799615	1.220312041	0.026321765	0.271556792	0.083696441
2019-06-22T12:05:00	0.3314	14.565	214.6	0.894805028	1.209951999	0.025982388	0.268055505	0.082617310
2019-06-22T12:10:00	0.3316	14.543	214.6	0.895590914	1.211308292	0.026026741	0.268513085	0.082758341
2019-06-22T12:15:00	0.3308	14.542	200.8	0.892984005	1.206811455	0.025879776	0.266996882	0.082291032
2019-06-22T12:20:00	0.3296	14.542	214.6	0.889449008	1.200723765	0.025681228	0.264948494	0.081659699
2019-06-22T12:25:00	0.3288	14.563	214.5	0.886838063	1.196234837	0.025535124	0.263441167	0.081195126
2019-06-22T12:30:00	0.3321	14.584	214.6	0.896883830	1.213540873	0.026099800	0.269266825	0.082990651
2019-06-22T12:35:00	0.3333	14.593	214.7	0.900750017	1.220226187	0.026318947	0.271527720	0.083687480
2019-06-22T12:40:00	0.3319	14.595	214.9	0.896297136	1.212527589	0.026066633	0.268924651	0.082885189
2019-06-22T12:45:00	0.3298	14.595	215.0	0.889986981	1.201649472	0.025711389	0.265259664	0.081755605
2019-06-22T12:50:00	0.3309	14.590	214.8	0.893242854	1.207257680	0.025894348	0.267147218	0.082337367
2019-06-22T12:55:00	0.3289	14.578	214.7	0.887236855	1.196920060	0.025557410	0.263671085	0.081265989
2019-06-22T13:00:00	0.3286	14.580	214.6	0.886170171	1.195087562	0.025497824	0.263056350	0.081076522
2019-06-22T13:05:00	0.3297	14.584	214.6	0.889737993	1.201220997	0.025697427	0.265115621	0.081711209
2019-06-22T13:10:00	0.3293	14.588	214.6	0.888363082	1.198855993	0.025620405	0.264320998	0.081466299
2019-06-22T13:15:00	0.3305	14.594	214.6	0.891928933	1.204993281	0.025820428	0.266384595	0.082102319
2019-06-22T13:20:00	0.3323	14.601	214.8	0.897649514	1.214863771	0.026143120	0.269713753	0.083128398
2019-06-22T13:25:00	0.3302	14.607	214.9	0.891032814	1.203449837	0.025770080	0.265865164	0.081942226
2019-06-22T13:30:00	0.3307	14.628	201.2	0.892745270	1.206399960	0.025866341	0.266858269	0.082248310
2019-06-22T13:35:00	0.3309	14.641	201.2	0.893223040	1.207223521	0.025893233	0.267135709	0.082333820
2019-06-22T13:40:00	0.3324	14.638	201.3	0.898017379	1.215499538	0.026163947	0.269928622	0.083194623
2019-06-22T13:45:00	0.3325	14.642	215.0	0.898186378	1.215791655	0.026173519	0.270027366	0.083225057
2019-06-22T13:50:00	0.3314	14.662	215.2	0.894964418	1.210227031	0.025991380	0.268148275	0.082645902
2019-06-22T13:55:00	0.3301	14.667	215.3	0.890813788	1.203072707	0.025757782	0.265738293	0.081903123
2019-06-22T14:00:00	0.3321	14.658	215.3	0.897152480	1.214004967	0.026114995	0.269423589	0.083038967
2019-06-22T14:05:00	0.3324	14.648	201.4	0.897937903	1.215362172	0.026159447	0.269882192	0.083180313
2019-06-22T14:10:00	0.3318	14.638	201.3	0.895949226	1.211926863	0.026046977	0.268721856	0.082822686
2019-06-22T14:15:00	0.3333	14.629	215.0	0.900740285	1.220209342	0.026318394	0.271522016	0.083685722
2019-06-22T14:20:00	0.3323	14.619	214.9	0.897520391	1.214640644	0.026135812	0.269638356	0.083105160
2019-06-22T14:25:00	0.3327	14.610	214.9	0.898921976	1.217063452	0.026215201	0.270457398	0.083357597
2019-06-22T14:30:00	0.3335	14.600	201.1	0.901246916	1.221086419	0.026347186	0.271819061	0.083777274
2019-06-22T14:35:00	0.3333	14.592	214.9	0.900799929	1.220312585	0.026321782	0.271556976	0.083696497
2019-06-22T14:40:00	0.3336	14.585	214.7	0.901584633	1.221671208	0.026366389	0.272017170	0.083838334
2019-06-22T14:45:00	0.3313	14.579	214.6	0.894666067	1.209712238	0.025974550	0.267974640	0.082592387
2019-06-22T14:50:00	0.3332	14.575	214.8	0.900382717	1.219590465	0.026298083	0.271312477	0.083621140
2019-06-22T14:55:00	0.3311	14.573	214.8	0.894079046	1.208699598	0.025941453	0.267633188	0.082487148
2019-06-22T15:00:00	0.3307	14.573	214.7	0.892705637	1.206331651	0.025864111	0.266835261	0.082241219
2019-06-22T15:05:00	0.3308	14.572	200.8	0.892874862	1.206623324	0.025873633	0.266933507	0.082271499
2019-06-22T15:10:00	0.3306	14.572	214.6	0.892426934	1.205851343	0.025848431	0.266673501	0.082191363
2019-06-22T15:15:00	0.3302	14.574	200.8	0.891052954	1.203484517	0.025771211	0.265876832	0.081945822
2019-06-22T15:20:00	0.3302	14.577	214.6	0.891222249	1.203776052	0.025780719	0.265974923	0.081976054
2019-06-22T15:25:00	0.3305	14.580	214.7	0.892008844	1.205130953	0.025824920	0.266430942	0.082116604
2019-06-22T15:30:00	0.3322	14.584	214.7	0.897421112	1.214469096	0.026130194	0.269580393	0.083087295
2019-06-22T15:35:00	0.3306	14.587	201.0	0.892347346	1.205714197	0.025843955	0.266627318	0.082177129
2019-06-22T15:40:00	0.3287	14.585	214.8	0.886649049	1.195910114	0.025524565	0.263332231	0.081161551
2019-06-22T15:45:00	0.3297	14.584	214.8	0.889598855	1.200981584	0.025689627	0.265035147	0.081686406
2019-06-22T15:50:00	0.3301	14.580	214.8	0.890694514	1.202867355	0.025751087	0.265669217	0.081881833
2019-06-22T15:55:00	0.3292	14.578	201.1	0.888084389	1.198376824	0.025604809	0.264160090	0.081416705
2019-06-22T16:00:00	0.3281	14.577	201.1	0.884545022	1.192297678	0.025407190	0.262121295	0.080788329
2019-06-22T16:05:00	0.3284	14.578	214.8	0.885565611	1.194049431	0.025464087	0.262708292	0.080969247
2019-06-22T16:10:00	0.3290	14.579	214.7	0.887512982	1.197394601	0.025572847	0.263830348	0.081315076
2019-06-22T16:15:00	0.3270	14.576	214.7	0.881112276	1.186412731	0.025216334	0.260152265	0.080181455
2019-06-22T16:20:00	0.3269	14.580	214.8	0.880895961	1.186042254	0.025204333	0.260028461	0.080143297
2019-06-22T16:25:00	0.3270	14.588	214.8	0.881298611	1.186731895	0.025226673	0.260258936	0.080214332
2019-06-22T16:30:00	0.3271	14.593	201.1	0.881701220	1.187421615	0.025249022	0.260489501	0.080285394
2019-06-22T16:35:00	0.3276	14.595	214.7	0.883031882	1.189702275	0.025322963	0.261252343	0.080520509
2019-06-22T16:40:00	0.3261	14.597	214.7	0.878482462	1.181911661	0.025070657	0.258649351	0.079718242
2019-06-22T16:45:00	0.3265	14.596	214.6	0.879814208	1.184190219	0.025144370	0.259409830	0.079952629
2019-06-22T16:50:00	0.3250	14.595	214.8	0.874951129	1.175877637	0.024875776	0.256638795	0.079098569
2019-06-22T16:55:00	0.3237	14.594	201.1	0.871012973	1.169162031	0.024659433	0.254406829	0.078410655
2019-06-22T17:00:00	0.3226	14.592	201.1	0.867691991	1.163509974	0.024477805	0.252533006	0.077833125
2019-06-22T17:05:00	0.3227	14.592	201.1	0.867785477	1.163668941	0.024482908	0.252585650	0.077849350
2019-06-22T17:10:00	0.3231	14.591	201.1	0.869120841	1.165940523	0.024555860	0.253338280	0.078081318
2019-06-22T17:15:00	0.3242	14.584	214.8	0.872627363	1.171913267	0.024747994	0.255320489	0.078692254
2019-06-22T17:20:00	0.3249	14.578	214.8	0.874891096	1.175775156	0.024872470	0.256604690	0.079088057
2019-06-22T17:25:00	0.3237	14.572	201.1	0.870952879	1.169059666	0.024656140	0.254372854	0.078400184
2019-06-22T17:30:00	0.3230	14.567	201.1	0.868873805	1.165520166	0.024542355	0.253198954	0.078038377
2019-06-22T17:35:00	0.3228	14.564	214.8	0.868346347	1.164622835	0.024513534	0.252901614	0.077946734
2019-06-22T17:40:00	0.3229	14.561	214.8	0.868439818	1.164781832	0.024518640	0.252954292	0.077962969
2019-06-22T17:45:00	0.3221	14.556	201.1	0.866048763	1.160717078	0.024388209	0.251608659	0.077548232
2019-06-22T17:50:00	0.3221	14.551	201.0	0.866142288	1.160875970	0.024393304	0.251661219	0.077564432
2019-06-22T17:55:00	0.3220	14.544	214.9	0.865614465	1.159979342	0.024364560	0.251364670	0.077473033
2019-06-22T18:00:00	0.3224	14.537	201.1	0.866950566	1.162249510	0.024437357	0.252115709	0.077704510
2019-06-22T18:05:00	0.3210	14.530	201.0	0.862693473	1.155022002	0.024205826	0.249727045	0.076968300
2019-06-22T18:10:00	0.3220	14.523	201.0	0.865895064	1.160455973	0.024379838	0.251522296	0.077521615
2019-06-22T18:15:00	0.3236	14.513	214.7	0.870645859	1.168536732	0.024639319	0.254199313	0.078346697
2019-06-22T18:20:00	0.3218	14.504	214.6	0.865150027	1.159190600	0.024339283	0.251103893	0.077392659
2019-06-22T18:25:00	0.3217	14.495	214.6	0.864932834	1.158821816	0.024327467	0.250981993	0.077355088
2019-06-22T18:30:00	0.3233	14.484	200.8	0.869684790	1.166900347	0.024586705	0.253656501	0.078179397
2019-06-22T18:35:00	0.3221	14.472	214.7	0.866052035	1.160722637	0.024388388	0.251610498	0.077548799
2019-06-22T18:40:00	0.3218	14.460	214.4	0.865213482	1.159298353	0.024342735	0.251139514	0.077403637
2019-06-22T18:45:00	0.3222	14.449	214.3	0.866239083	1.161040427	0.024398577	0.251715622	0.077581199
2019-06-22T18:50:00	0.3235	14.438	200.6	0.870368867	1.168065018	0.024624149	0.254042802	0.078298459
2019-06-22T18:55:00	0.3223	14.426	200.5	0.866736744	1.161886095	0.024425699	0.251995434	0.077667440
2019-06-22T19:00:00	0.3226	14.414	200.4	0.867761948	1.163628930	0.024481624	0.252572399	0.077845266
2019-06-22T19:05:00	0.3203	14.401	214.0	0.860395855	1.151128124	0.024081369	0.248443048	0.076572560
2019-06-22T19:10:00	0.3211	14.389	200.3	0.862977556	1.155503789	0.024221239	0.249886054	0.077017309
2019-06-22T19:15:00	0.3223	14.375	213.9	0.866800174	1.161993898	0.024429157	0.252031110	0.077678436
2019-06-22T19:20:00	0.3209	14.361	213.8	0.862231965	1.154239474	0.024180799	0.249468844	0.076888720
2019-06-22T19:25:00	0.3212	14.346	213.7	0.863258345	1.155980059	0.024236478	0.250043275	0.077065766
2019-06-22T19:30:00	0.3219	14.331	213.5	0.865527472	1.159831590	0.024359824	0.251315814	0.077457975
2019-06-22T19:35:00	0.3215	14.315	213.5	0.864067216	1.157352463	0.024280407	0.250496486	0.077205450
2019-06-22T19:40:00	0.3226	14.298	213.3	0.867578243	1.163316563	0.024471598	0.252468961	0.077813386
2019-06-22T19:45:00	0.3237	14.282	199.6	0.871086139	1.169286668	0.024663443	0.254448198	0.078423406
2019-06-22T19:50:00	0.3234	14.266	213.2	0.870248659	1.167860326	0.024617567	0.253974897	0.078277530
2019-06-22T19:55:00	0.3224	14.249	213.2	0.866927031	1.162209508	0.024436074	0.252102469	0.077700429
2019-06-22T20:00:00	0.3243	14.233	213.1	0.872917263	1.172407569	0.024763915	0.255484749	0.078742881
2019-06-22T20:05:00	0.3249	14.217	199.3	0.874870873	1.175740637	0.024871357	0.256593202	0.079084517
2019-06-22T20:10:00	0.3254	14.200	212.9	0.876203838	1.178016837	0.024944812	0.257351030	0.079318087
2019-06-22T20:15:00	0.3229	14.185	212.9	0.868543097	1.164957524	0.024524283	0.253012504	0.077980911
2019-06-22T20:20:00	0.3241	14.168	212.7	0.872360311	1.171457993	0.024733332	0.255169227	0.078645634
2019-06-22T20:25:00	0.3258	14.151	212.7	0.877413100	1.180083217	0.025011555	0.258039597	0.079530310
2019-06-22T20:30:00	0.3235	14.134	212.5	0.870375404	1.168076150	0.024624507	0.254046496	0.078299597
2019-06-22T20:35:00	0.3238	14.117	198.8	0.871399661	1.169820804	0.024680630	0.254625509	0.078478055
2019-06-22T20:40:00	0.3239	14.099	198.7	0.871803281	1.170508570	0.024702765	0.254853876	0.078548440
2019-06-22T20:45:00	0.3235	14.081	198.6	0.870345353	1.168024977	0.024622861	0.254029518	0.078294365
2019-06-22T20:50:00	0.3243	14.062	198.5	0.872920530	1.172413139	0.024764095	0.255486600	0.078743451
2019-06-22T20:55:00	0.3238	14.043	198.5	0.871463016	1.169928750	0.024684104	0.254661348	0.078489101
2019-06-22T21:00:00	0.3239	14.025	198.4	0.871556412	1.170087889	0.024689225	0.254714185	0.078505386
2019-06-22T21:05:00	0.3228	14.005	211.7	0.868235889	1.164434951	0.024507501	0.252839370	0.077927550
2019-06-22T21:10:00	0.3240	13.988	211.7	0.872053401	1.170934848	0.024716488	0.254995449	0.078592074
2019-06-22T21:15:00	0.3251	13.968	211.6	0.875247388	1.176383416	0.024892093	0.256807136	0.079150453
2019-06-22T21:20:00	0.3246	13.950	198.0	0.873790734	1.173897369	0.024811921	0.255980018	0.078895527
2019-06-22T21:25:00	0.3251	13.932	197.9	0.875434000	1.176702044	0.024902374	0.256913205	0.079183145
2019-06-22T21:30:00	0.3234	13.913	197.8	0.870255196	1.167871459	0.024617925	0.253978590	0.078278668
2019-06-22T21:35:00	0.3254	13.896	197.7	0.876240373	1.178079247	0.024946827	0.257371818	0.079324494
2019-06-22T21:40:00	0.3258	13.878	197.6	0.877572875	1.180356341	0.025020380	0.258130651	0.079558374
2019-06-22T21:45:00	0.3268	13.861	197.5	0.880762401	1.185813533	0.025196926	0.259952037	0.080119743
2019-06-22T21:50:00	0.3259	13.843	197.4	0.877759377	1.180675182	0.025030685	0.258236959	0.079591139
2019-06-22T21:55:00	0.3272	13.825	210.8	0.881877118	1.187722999	0.025258789	0.260590269	0.080316452
2019-06-22T22:00:00	0.3277	13.809	197.2	0.883517024	1.190534181	0.025349951	0.261530772	0.080606324
2019-06-22T22:05:00	0.3282	13.793	210.6	0.884934625	1.192966283	0.025428902	0.262345291	0.080857367
2019-06-22T22:10:00	0.3271	13.775	197.0	0.881712960	1.187441731	0.025249673	0.260496226	0.080287467
2019-06-22T22:15:00	0.3297	13.758	210.4	0.889621625	1.201020763	0.025690904	0.265048315	0.081690465
2019-06-22T22:20:00	0.3292	13.743	210.3	0.887948797	1.198143720	0.025597222	0.264081823	0.081392583
2019-06-22T22:25:00	0.3261	13.727	196.7	0.878540828	1.182011488	0.025073886	0.258682655	0.079728506
2019-06-22T22:30:00	0.3273	13.712	196.6	0.882126601	1.188150510	0.025272646	0.260733229	0.080360513
2019-06-22T22:35:00	0.3281	13.696	209.9	0.884781660	1.192703760	0.025420376	0.262257334	0.080830257
2019-06-22T22:40:00	0.3262	13.681	209.9	0.878773896	1.182410153	0.025086778	0.258815666	0.079769502
2019-06-22T22:45:00	0.3280	13.665	196.4	0.884215310	1.191731961	0.025388824	0.261931815	0.080729929
2019-06-22T22:50:00	0.3280	13.650	209.7	0.884395965	1.192041915	0.025398886	0.262035625	0.080761925
2019-06-22T22:55:00	0.3271	13.634	209.6	0.881483324	1.187048315	0.025236925	0.260364703	0.080246930
2019-06-22T23:00:00	0.3276	13.618	196.0	0.883210980	1.190009361	0.025332924	0.261355110	0.080552183
2019-06-22T23:05:00	0.3262	13.602	209.3	0.878749450	1.182368335	0.025085426	0.258801713	0.079765201
2019-06-22T23:10:00	0.3271	13.586	196.0	0.881716220	1.187447315	0.025249854	0.260498093	0.080288042
2019-06-22T23:15:00	0.3285	13.568	195.8	0.885917372	1.194653422	0.025483714	0.262910777	0.081031655
2019-06-22T23:20:00	0.3267	13.553	209.0	0.880220895	1.184886368	0.025166904	0.259642310	0.080024282
2019-06-22T23:25:00	0.3268	13.536	208.9	0.880711255	1.185725948	0.025194089	0.259922774	0.080110723
2019-06-22T23:30:00	0.3251	13.520	208.9	0.875317211	1.176502630	0.024895940	0.256846820	0.079162684
2019-06-22T23:35:00	0.3248	13.503	195.4	0.874568407	1.175224366	0.024854705	0.256421413	0.079031570
2019-06-22T23:40:00	0.3262	13.486	195.2	0.878777158	1.182415732	0.025086959	0.258817528	0.079770076
2019-06-22T23:45:00	0.3262	13.470	208.4	0.878648402	1.182195489	0.025079836	0.258744042	0.079747427
2019-06-22T23:50:00	0.3252	13.452	195.0	0.875731522	1.177210111	0.024918771	0.257082363	0.079235281
2019-06-22T23:55:00	0.3261	13.436	208.2	0.878390878	1.181755025	0.025065593	0.258597099	0.079702137
2019-06-23T00:00:00	0.3238	13.418	208.0	0.871442776	1.169894265	0.024682994	0.254649898	0.078485572
2019-06-23T00:05:00	0.3246	13.400	194.6	0.873794984	1.173904618	0.024812155	0.255982428	0.078896270
2019-06-23T00:10:00	0.3233	13.382	194.5	0.869943552	1.167340849	0.024600865	0.253802587	0.078224422
2019-06-23T00:15:00	0.3224	13.365	194.4	0.867020219	1.162367902	0.024441155	0.252154896	0.077716588
2019-06-23T00:20:00	0.3230	13.346	207.6	0.868754219	1.165316699	0.024535819	0.253131524	0.078017594
2019-06-23T00:25:00	0.3235	13.329	207.6	0.870487455	1.168266963	0.024630643	0.254109802	0.078319109
2019-06-23T00:30:00	0.3234	13.311	194.2	0.870048092	1.167518831	0.024606587	0.253861619	0.078242616
2019-06-23T00:35:00	0.3230	13.293	194.2	0.868987867	1.165714247	0.024548590	0.253263279	0.078058202
2019-06-23T00:40:00	0.3219	13.277	194.1	0.865442449	1.159687190	0.024355196	0.251268068	0.077443259
2019-06-23T00:45:00	0.3213	13.260	207.2	0.863448483	1.156302612	0.024246800	0.250149769	0.077098588
2019-06-23T00:50:00	0.3225	13.243	194.0	0.867358582	1.162943097	0.024459612	0.252345306	0.077775274
2019-06-23T00:55:00	0.3236	13.226	207.1	0.870644243	1.168533979	0.024639231	0.254198400	0.078346416
2019-06-23T01:00:00	0.3226	13.211	193.7	0.867721430	1.163560032	0.024479412	0.252549583	0.077838234
2019-06-23T01:05:00	0.3215	13.194	193.7	0.864174869	1.157535164	0.024286257	0.250556838	0.077224051
2019-06-23T01:10:00	0.3217	13.178	206.8	0.864977991	1.158898487	0.024329923	0.251007335	0.077362898
2019-06-23T01:15:00	0.3215	13.162	206.7	0.864227217	1.157624007	0.024289102	0.250586188	0.077233097
2019-06-23T01:20:00	0.3208	13.145	193.5	0.861921656	1.153713428	0.024163979	0.249295318	0.076835238
2019-06-23T01:25:00	0.3210	13.128	206.6	0.862725238	1.155075871	0.024207549	0.249744822	0.076973780
2019-06-23T01:30:00	0.3213	13.113	206.5	0.863528656	1.156438627	0.024251153	0.250194680	0.077112430
2019-06-23T01:35:00	0.3220	13.095	206.4	0.865885599	1.160439893	0.024379323	0.251516978	0.077519975
2019-06-23T01:40:00	0.3224	13.078	206.3	0.866998971	1.162331786	0.024439997	0.252142941	0.077712903
2019-06-23T01:45:00	0.3218	13.059	206.3	0.865005796	1.158945697	0.024331436	0.251022940	0.077367708
2019-06-23T01:50:00	0.3206	13.042	193.0	0.861456781	1.152925522	0.024138793	0.249035481	0.076755154
2019-06-23T01:55:00	0.3208	13.024	206.1	0.861949482	1.153760597	0.024165487	0.249310876	0.076840033
2019-06-23T02:00:00	0.3192	13.006	192.8	0.857152422	1.145639577	0.023906281	0.246636695	0.076015825
2019-06-23T02:05:00	0.3197	12.989	192.7	0.858579543	1.148053367	0.023983234	0.247430603	0.076260515
2019-06-23T02:10:00	0.3198	12.973	192.6	0.858761378	1.148361051	0.023993048	0.247531858	0.076291723
2019-06-23T02:15:00	0.3212	12.955	192.5	0.863297958	1.156047256	0.024238628	0.250065459	0.077072603
2019-06-23T02:20:00	0.3209	12.938	192.5	0.862235909	1.154246162	0.024181013	0.249471050	0.076889400
2019-06-23T02:25:00	0.3216	12.921	192.4	0.864593628	1.158245946	0.024309020	0.250791678	0.077296431
2019-06-23T02:30:00	0.3186	12.903	192.3	0.855129641	1.142221504	0.023797442	0.245513824	0.075669745
2019-06-23T02:35:00	0.3193	12.884	192.2	0.857491637	1.146213145	0.023924560	0.246825273	0.076073946
2019-06-23T02:40:00	0.3222	12.867	192.1	0.866381017	1.161281590	0.024406311	0.251795408	0.077605790
2019-06-23T02:45:00	0.3213	12.849	192.0	0.863455032	1.156313722	0.024247156	0.250153437	0.077099719
2019-06-23T02:50:00	0.3198	12.832	191.8	0.858971052	1.148715880	0.024004368	0.247648645	0.076327717
2019-06-23T02:55:00	0.3201	12.813	191.8	0.859775239	1.150077170	0.024047813	0.248096850	0.076465859
2019-06-23T03:00:00	0.3209	12.795	191.7	0.862445398	1.154601345	0.024192371	0.249588235	0.076925518
2019-06-23T03:05:00	0.3215	12.778	191.6	0.864181417	1.157546277	0.024286613	0.250560509	0.077225182
2019-06-23T03:10:00	0.3208	12.761	191.5	0.861875829	1.153635750	0.024161496	0.249269697	0.076827341
2019-06-23T03:15:00	0.3205	12.743	191.4	0.861124462	1.152362403	0.024120798	0.248849827	0.076697934
2019-06-23T03:20:00	0.3205	12.726	191.4	0.860995127	1.152143271	0.024113797	0.248777593	0.076675670
2019-06-23T03:25:00	0.3231	12.708	191.3	0.869255815	1.166170218	0.024563240	0.253414422	0.078104786
2019-06-23T03:30:00	0.3227	12.691	191.3	0.867884870	1.163837961	0.024488334	0.252641627	0.077866603
2019-06-23T03:35:00	0.3220	12.675	191.1	0.865892144	1.160451011	0.024379679	0.251520656	0.077521109
2019-06-23T03:40:00	0.3235	12.658	191.1	0.870420499	1.168152941	0.024626976	0.254071972	0.078307449
2019-06-23T03:45:00	0.3227	12.641	191.0	0.867808057	1.163707338	0.024484141	0.252598366	0.077853270
2019-06-23T03:50:00	0.3221	12.625	190.8	0.866125962	1.160848233	0.024392414	0.251652043	0.077561604
2019-06-23T03:55:00	0.3204	12.610	190.8	0.860711886	1.151663430	0.024098467	0.248619443	0.076626927
2019-06-23T04:00:00	0.3212	12.595	190.7	0.863381408	1.156188821	0.024243159	0.250112198	0.077087008
2019-06-23T04:05:00	0.3215	12.581	190.6	0.864049895	1.157323069	0.024279466	0.250486776	0.077202457
2019-06-23T04:10:00	0.3243	12.567	190.6	0.872789967	1.172190509	0.024756923	0.255412615	0.078720648
2019-06-23T04:15:00	0.3247	12.552	190.5	0.874076967	1.174385723	0.024827664	0.256142430	0.078945585
2019-06-23T04:20:00	0.3244	12.540	190.5	0.873193444	1.172878550	0.024779089	0.255641290	0.078791128
2019-06-23T04:25:00	0.3247	12.528	190.3	0.874170302	1.174544982	0.024832798	0.256195402	0.078961911
2019-06-23T04:30:00	0.3246	12.516	190.2	0.873906937	1.174095618	0.024818312	0.256045946	0.078915847
2019-06-23T04:35:00	0.3242	12.506	190.1	0.872713250	1.172059703	0.024752710	0.255369147	0.078707251
2019-06-23T04:40:00	0.3256	12.495	190.1	0.876789619	1.179017647	0.024977131	0.257684453	0.079420851
2019-06-23T04:45:00	0.3250	12.486	190.1	0.874976933	1.175921686	0.024877197	0.256653455	0.079103087
2019-06-23T04:50:00	0.3253	12.477	190.1	0.875953349	1.177588971	0.024930999	0.257208526	0.079274166
2019-06-23T04:55:00	0.3248	12.468	190.0	0.874450293	1.175022784	0.024848205	0.256354346	0.079010899
2019-06-23T05:00:00	0.3244	12.461	189.9	0.873256771	1.172986552	0.024782569	0.255677191	0.078802193
2019-06-23T05:05:00	0.3247	12.455	189.9	0.874233612	1.174653014	0.024836281	0.256231337	0.078972987
2019-06-23T05:10:00	0.3231	12.449	202.7	0.869316919	1.166274209	0.024566582	0.253448897	0.078115411
2019-06-23T05:15:00	0.3253	12.444	202.7	0.875876694	1.177458046	0.024926773	0.257164925	0.079260727
2019-06-23T05:20:00	0.3257	12.440	189.7	0.877162688	1.179655203	0.024997726	0.257896926	0.079486337
2019-06-23T05:25:00	0.3265	12.438	189.7	0.879686818	1.183972190	0.025137314	0.259337032	0.079930192
2019-06-23T05:30:00	0.3239	12.436	189.6	0.871675948	1.170291580	0.024695781	0.254781819	0.078526231
2019-06-23T05:35:00	0.3242	12.435	202.5	0.872653182	1.171957287	0.024749411	0.255335116	0.078696763
2019-06-23T05:40:00	0.3233	12.435	189.6	0.869907626	1.167279688	0.024598899	0.253782302	0.078218170
2019-06-23T05:45:00	0.3260	12.437	189.3	0.878015329	1.181112806	0.025044830	0.258382893	0.079636117
2019-06-23T05:50:00	0.3250	12.439	202.6	0.874963557	1.175898853	0.024876460	0.256645855	0.079100745
2019-06-23T05:55:00	0.3270	12.442	202.6	0.881204498	1.186570690	0.025221451	0.260205057	0.080197726
2019-06-23T06:00:00	0.3252	12.446	202.5	0.875676730	1.177116538	0.024915751	0.257051206	0.079225678
2019-06-23T06:05:00	0.3259	12.450	202.6	0.877892091	1.180902088	0.025038019	0.258312621	0.079614459
2019-06-23T06:10:00	0.3248	12.455	202.5	0.874530241	1.175159228	0.024852605	0.256399741	0.079024890
2019-06-23T06:15:00	0.3250	12.460	202.6	0.875196837	1.176297108	0.024889309	0.256778408	0.079141599
2019-06-23T06:20:00	0.3249	12.466	202.7	0.874623565	1.175318508	0.024857741	0.256452736	0.079041224
2019-06-23T06:25:00	0.3249	12.475	202.6	0.874670226	1.175398149	0.024860310	0.256479235	0.079049391
2019-06-23T06:30:00	0.3263	12.484	202.6	0.879054227	1.182889725	0.025102290	0.258975700	0.079818826
2019-06-23T06:35:00	0.3253	12.493	202.6	0.876003259	1.177674218	0.024933751	0.257236916	0.079282916
2019-06-23T06:40:00	0.3247	12.504	202.7	0.874190212	1.174578955	0.024833894	0.256206703	0.078965394
2019-06-23T06:45:00	0.3238	12.515	202.8	0.871445728	1.169899294	0.024683156	0.254651568	0.078486086
2019-06-23T06:50:00	0.3244	12.526	202.9	0.873353391	1.173151344	0.024787878	0.255731972	0.078819078
2019-06-23T06:55:00	0.3271	12.540	203.0	0.881454023	1.186998119	0.025235299	0.260347924	0.080241759
2019-06-23T07:00:00	0.3249	12.555	203.0	0.874686868	1.175426554	0.024861226	0.256488687	0.079052304
2019-06-23T07:05:00	0.3253	12.570	203.1	0.875973250	1.177622962	0.024932097	0.257219846	0.079277655
2019-06-23T07:10:00	0.3243	12.596	190.3	0.872919898	1.172412061	0.024764060	0.255486242	0.078743341
2019-06-23T07:15:00	0.3241	12.615	190.3	0.872346294	1.171434099	0.024732563	0.255161289	0.078643187
2019-06-23T07:20:00	0.3242	12.629	190.5	0.872703133	1.172042454	0.024752155	0.255363416	0.078705485
2019-06-23T07:25:00	0.3235	12.647	203.5	0.870267955	1.167893184	0.024618623	0.253985797	0.078280889
2019-06-23T07:30:00	0.3242	12.667	190.6	0.872486357	1.171672870	0.024740252	0.255240615	0.078667636
2019-06-23T07:35:00	0.3242	12.684	203.6	0.872533043	1.171752462	0.024742815	0.255267059	0.078675787
2019-06-23T07:40:00	0.3249	12.699	190.8	0.874750170	1.175534602	0.024864711	0.256524640	0.079063385
2019-06-23T07:45:00	0.3242	12.730	203.8	0.872626415	1.171911650	0.024747942	0.255319952	0.078692089
2019-06-23T07:50:00	0.3236	12.753	203.9	0.870811813	1.168819384	0.024648411	0.254293109	0.078375606
2019-06-23T07:55:00	0.3255	12.771	204.0	0.876749510	1.178949110	0.024974917	0.257661616	0.079413812
2019-06-23T08:00:00	0.3248	12.786	191.1	0.874316831	1.174795023	0.024840860	0.256278576	0.078987546
2019-06-23T08:05:00	0.3236	12.813	191.2	0.870641642	1.168529549	0.024639088	0.254196930	0.078345963
2019-06-23T08:10:00	0.3236	12.843	204.3	0.870688350	1.168609100	0.024641647	0.254223327	0.078354098
2019-06-23T08:15:00	0.3233	12.880	204.5	0.869804067	1.167103389	0.024593231	0.253723834	0.078200150
2019-06-23T08:20:00	0.3237	12.920	204.6	0.871092043	1.169296725	0.024663767	0.254451536	0.078424435
2019-06-23T08:25:00	0.3229	12.958	204.7	0.868655868	1.165149372	0.024530445	0.253076075	0.078000504
2019-06-23T08:30:00	0.3246	12.996	191.9	0.873976783	1.174214786	0.024822153	0.256085578	0.078928062
2019-06-23T08:35:00	0.3233	13.031	205.1	0.869680572	1.166893166	0.024586474	0.253654120	0.078178663
2019-06-23T08:40:00	0.3238	13.076	205.4	0.871278851	1.169614974	0.024674007	0.254557177	0.078456994
2019-06-23T08:45:00	0.3231	13.107	205.5	0.869153223	1.165995627	0.024557630	0.253356546	0.078086948
2019-06-23T08:50:00	0.3239	13.130	192.6	0.871682484	1.170302716	0.024696139	0.254785517	0.078527371
2019-06-23T08:55:00	0.3239	13.151	192.8	0.871729180	1.170382291	0.024698701	0.254811941	0.078535515
2019-06-23T09:00:00	0.3229	13.191	193.0	0.868672535	1.165177729	0.024531355	0.253085471	0.078003400
2019-06-23T09:05:00	0.3234	13.220	193.0	0.869960882	1.167370353	0.024601813	0.253812372	0.078227438
2019-06-23T09:10:00	0.3230	13.268	206.4	0.868765998	1.165336741	0.024536463	0.253138165	0.078019641
2019-06-23T09:15:00	0.3229	13.318	193.5	0.868502271	1.164888072	0.024522052	0.252989492	0.077973818
2019-06-23T09:20:00	0.3213	13.375	193.9	0.863578406	1.156523033	0.024253855	0.250222551	0.077121020
2019-06-23T09:25:00	0.3213	13.420	194.4	0.863625199	1.156602422	0.024256396	0.250248767	0.077129100
2019-06-23T09:30:00	0.3230	13.458	194.0	0.868952917	1.165654778	0.024546680	0.253243568	0.078052127
2019-06-23T09:35:00	0.3230	13.498	194.3	0.868999645	1.165734289	0.024549234	0.253269922	0.078060250
2019-06-23T09:40:00	0.3218	13.530	194.4	0.865008752	1.158950717	0.024331597	0.251024599	0.077368219
2019-06-23T09:45:00	0.3227	13.572	194.6	0.867851212	1.163780723	0.024486496	0.252622670	0.077860760
2019-06-23T09:50:00	0.3231	13.613	194.9	0.869139827	1.165972832	0.024556898	0.253348990	0.078084619
2019-06-23T09:55:00	0.3199	13.652	195.1	0.859240672	1.149172213	0.024018929	0.247798865	0.076374017
2019-06-23T10:00:00	0.3211	13.694	208.7	0.863020130	1.155575997	0.024223549	0.249909889	0.077024655
2019-06-23T10:05:00	0.3209	13.733	195.4	0.862263417	1.154292798	0.024182504	0.249486436	0.076894142
2019-06-23T10:10:00	0.3206	13.776	195.7	0.861506557	1.153009878	0.024141489	0.249063296	0.076763727
2019-06-23T10:15:00	0.3210	13.817	209.3	0.862615608	1.154889961	0.024201602	0.249683471	0.076954871
2019-06-23T10:20:00	0.3198	13.852	209.4	0.859058859	1.148864487	0.024009110	0.247697561	0.076342794
2019-06-23T10:25:00	0.3202	13.879	196.1	0.860168602	1.150743252	0.024069079	0.248316249	0.076533480
2019-06-23T10:30:00	0.3203	13.915	209.7	0.860344795	1.151041646	0.024078608	0.248414556	0.076563779
2019-06-23T10:35:00	0.3210	13.944	209.9	0.862698086	1.155029826	0.024206076	0.249729626	0.076969096
2019-06-23T10:40:00	0.3230	13.986	210.2	0.868777109	1.165355645	0.024537070	0.253144430	0.078021572
2019-06-23T10:45:00	0.3224	14.030	210.5	0.867089871	1.162486297	0.024444954	0.252194085	0.077728666
2019-06-23T10:50:00	0.3212	14.076	197.3	0.863226302	1.155925705	0.024234739	0.250025330	0.077060235
2019-06-23T10:55:00	0.3240	14.122	211.1	0.872097176	1.171009461	0.024718890	0.255020232	0.078599712
2019-06-23T11:00:00	0.3234	14.169	211.3	0.870101029	1.167608961	0.024609484	0.253891515	0.078251831
2019-06-23T11:05:00	0.3231	14.205	211.5	0.869035263	1.165794896	0.024551181	0.253290010	0.078066441
2019-06-23T11:10:00	0.3215	14.250	198.2	0.864241298	1.157647906	0.024289867	0.250594083	0.077235530
2019-06-23T11:15:00	0.3216	14.296	198.5	0.864417309	1.157946649	0.024299434	0.250692783	0.077265951
2019-06-23T11:20:00	0.3224	14.336	198.8	0.867078755	1.162467402	0.024444348	0.252187830	0.077726739
2019-06-23T11:25:00	0.3236	14.395	212.7	0.870669407	1.168576836	0.024640609	0.254212621	0.078350799
2019-06-23T11:30:00	0.3232	14.453	213.0	0.869603794	1.166762476	0.024582273	0.253610784	0.078165307
2019-06-23T11:35:00	0.3216	14.509	213.4	0.864499749	1.158086586	0.024303916	0.250739020	0.077280201
2019-06-23T11:40:00	0.3214	14.573	213.8	0.863743321	1.156802842	0.024262811	0.250314953	0.077149500
2019-06-23T11:45:00	0.3218	14.634	214.1	0.865162485	1.159211756	0.024339961	0.251110887	0.077394814
2019-06-23T11:50:00	0.3204	14.684	214.3	0.860674890	1.151600759	0.024096465	0.248598790	0.076620561
2019-06-23T11:55:00	0.3202	14.735	214.6	0.860228861	1.150845301	0.024072337	0.248349868	0.076543841
2019-06-23T12:00:00	0.3222	14.794	201.2	0.866311705	1.161163817	0.024402534	0.251756443	0.077593781
2019-06-23T12:05:00	0.3212	14.854	215.4	0.863380105	1.156186610	0.024243088	0.250111468	0.077086784
2019-06-23T12:10:00	0.3226	14.907	215.8	0.867595267	1.163345509	0.024472527	0.252478545	0.077816340
2019-06-23T12:15:00	0.3212	14.955	216.0	0.863421336	1.156256558	0.024245326	0.250134563	0.077093902
2019-06-23T12:20:00	0.3188	15.003	216.3	0.855818235	1.143384661	0.023834462	0.245895755	0.075787460
2019-06-23T12:25:00	0.3205	15.046	216.5	0.860974833	1.152108889	0.024112698	0.248766260	0.076672177
2019-06-23T12:30:00	0.3197	15.087	216.8	0.858661789	1.148192532	0.023987673	0.247476399	0.076274630
2019-06-23T12:35:00	0.3184	15.128	217.1	0.854478334	1.141121731	0.023762456	0.245152875	0.075558497
2019-06-23T12:40:00	0.3207	15.159	217.2	0.861814292	1.153531443	0.024158161	0.249235295	0.076816738
2019-06-23T12:45:00	0.3210	15.180	217.4	0.862612332	1.154884408	0.024201425	0.249681638	0.076954306
2019-06-23T12:50:00	0.3228	15.192	217.4	0.868381021	1.164681815	0.024515428	0.252921155	0.077952756
2019-06-23T12:55:00	0.3215	15.202	217.5	0.864207925	1.157591266	0.024288054	0.250575372	0.077229763
2019-06-23T13:00:00	0.3219	15.214	217.6	0.865316213	1.159472807	0.024348326	0.251197188	0.077421413
2019-06-23T13:05:00	0.3208	15.240	217.8	0.862072904	1.153969818	0.024172176	0.249379888	0.076861303
2019-06-23T13:10:00	0.3189	15.269	218.0	0.856024786	1.143733647	0.023845573	0.246010382	0.075822789
2019-06-23T13:15:00	0.3218	15.298	218.1	0.865222668	1.159313952	0.024343235	0.251144671	0.077405227
2019-06-23T13:20:00	0.3200	15.324	218.3	0.859490606	1.149595289	0.024032431	0.247938162	0.076416949
2019-06-23T13:25:00	0.3203	15.342	218.5	0.860600226	1.151474286	0.024092425	0.248557112	0.076607716
2019-06-23T13:30:00	0.3212	15.350	218.5	0.863264260	1.155990094	0.024236799	0.250046588	0.077066787
2019-06-23T13:35:00	0.3203	15.348	218.5	0.860330383	1.151017237	0.024077828	0.248406514	0.076561300
2019-06-23T13:40:00	0.3206	15.338	218.5	0.861439766	1.152896687	0.024137872	0.249025974	0.076752224
2019-06-23T13:45:00	0.3197	15.325	218.4	0.858504522	1.147926432	0.023979185	0.247388834	0.076247641
2019-06-23T13:50:00	0.3196	15.307	218.3	0.858369531	1.147698041	0.023971901	0.247313685	0.076224479
2019-06-23T13:55:00	0.3194	15.294	218.3	0.857611919	1.146416553	0.023931043	0.246892160	0.076094561
2019-06-23T14:00:00	0.3197	15.284	218.3	0.858722071	1.148294538	0.023990927	0.247509968	0.076284976
2019-06-23T14:05:00	0.3195	15.278	218.2	0.857964528	1.147012920	0.023950055	0.247088297	0.076155013
2019-06-23T14:10:00	0.3190	15.278	218.2	0.856272632	1.144152457	0.023858909	0.246147966	0.075865194
2019-06-23T14:15:00	0.3177	15.282	218.2	0.852398381	1.137612198	0.023650916	0.244002137	0.075203828
2019-06-23T14:20:00	0.3182	15.285	218.3	0.853821660	1.140013287	0.023727210	0.244789247	0.075446423
2019-06-23T14:25:00	0.3175	15.287	218.2	0.851816189	1.136630569	0.023619747	0.243680571	0.075104719
2019-06-23T14:30:00	0.3165	15.290	218.2	0.848561672	1.131148857	0.023445923	0.241887271	0.074552006
2019-06-23T14:35:00	0.3184	15.288	218.2	0.854662653	1.141432926	0.023772354	0.245254994	0.075589971
2019-06-23T14:40:00	0.3176	15.284	218.3	0.852034111	1.136997968	0.023631411	0.243800910	0.075141808
2019-06-23T14:45:00	0.3168	15.282	218.3	0.849715773	1.133091646	0.023507483	0.242522370	0.074747750
2019-06-23T14:50:00	0.3188	15.279	218.3	0.855814954	1.143379118	0.023834286	0.245893934	0.075786899
2019-06-23T14:55:00	0.3183	15.279	218.3	0.854122129	1.140520419	0.023743333	0.244955593	0.075497693
2019-06-23T15:00:00	0.3192	15.278	218.3	0.857101955	1.145554253	0.023903562	0.246608645	0.076007180
2019-06-23T15:05:00	0.3167	15.277	218.3	0.849174563	1.132180434	0.023478604	0.242224429	0.074655922
2019-06-23T15:10:00	0.3168	15.275	218.3	0.849663231	1.133003172	0.023504679	0.242493436	0.074738832
2019-06-23T15:15:00	0.3170	15.271	218.3	0.850151838	1.133826026	0.023530766	0.242762573	0.074821783
2019-06-23T15:20:00	0.3163	15.267	218.3	0.848144482	1.130446868	0.023423692	0.241657917	0.074481317
2019-06-23T15:25:00	0.3163	15.260	218.2	0.848009132	1.130219154	0.023416482	0.241583533	0.074458391
2019-06-23T15:30:00	0.3172	15.253	218.2	0.850681749	1.134718687	0.023559076	0.243054647	0.074911803
2019-06-23T15:35:00	0.3165	15.244	218.2	0.848674666	1.131339015	0.023451947	0.241949410	0.074571158
2019-06-23T15:40:00	0.3170	15.232	218.1	0.850099302	1.133737541	0.023527960	0.242733627	0.074812861
2019-06-23T15:45:00	0.3175	15.217	218.1	0.851835224	1.136662658	0.023620765	0.243691081	0.075107958
2019-06-23T15:50:00	0.3178	15.201	218.0	0.852635300	1.138011756	0.023663606	0.244133063	0.075244181
2019-06-23T15:55:00	0.3169	15.187	218.0	0.850005393	1.133579378	0.023522945	0.242681890	0.074796916
2019-06-23T16:00:00	0.3158	15.173	217.9	0.846437153	1.127575670	0.023332834	0.240720543	0.074192409
2019-06-23T16:05:00	0.3155	15.160	217.8	0.845597179	1.126164073	0.023288204	0.240260106	0.074050498
2019-06-23T16:10:00	0.3153	15.148	217.8	0.844757025	1.124752817	0.023243611	0.239800054	0.073908705
2019-06-23T16:15:00	0.3153	15.135	217.7	0.844853855	1.124915435	0.023248748	0.239853052	0.073925040
2019-06-23T16:20:00	0.3146	15.125	217.7	0.842763666	1.121407033	0.023137998	0.238710464	0.073572883
2019-06-23T16:25:00	0.3142	15.112	217.6	0.841297676	1.118948734	0.023060495	0.237910875	0.073326442
2019-06-23T16:30:00	0.3131	15.097	217.5	0.837954154	1.113349356	0.022884264	0.236092730	0.072766072
2019-06-23T16:35:00	0.3144	15.084	217.4	0.842116699	1.120321901	0.023103777	0.238357410	0.073464069
2019-06-23T16:40:00	0.3143	15.071	217.4	0.841901019	1.119960235	0.023092375	0.238239776	0.073427813
2019-06-23T16:45:00	0.3136	15.057	217.3	0.839496474	1.115931005	0.022965465	0.236930465	0.073024270
2019-06-23T16:50:00	0.3120	15.044	217.3	0.834585829	1.107718740	0.022707473	0.234268818	0.072203925
2019-06-23T16:55:00	0.3124	15.032	217.3	0.835935389	1.109973474	0.022778216	0.234998660	0.072428869
2019-06-23T17:00:00	0.3137	15.022	217.2	0.839787351	1.116418139	0.022980797	0.237088642	0.073073022
2019-06-23T17:05:00	0.3147	15.011	217.1	0.843010551	1.121821224	0.023151065	0.238845266	0.073614431
2019-06-23T17:10:00	0.3102	14.999	217.1	0.829019806	1.098436990	0.022416978	0.231271828	0.071280223
2019-06-23T17:15:00	0.3127	14.987	217.0	0.836636601	1.111145655	0.022815021	0.235378366	0.072545899
2019-06-23T17:20:00	0.3135	14.975	217.0	0.839236859	1.115496290	0.022951785	0.236789337	0.072980773
2019-06-23T17:25:00	0.3126	14.961	217.0	0.836517655	1.110946788	0.022808776	0.235313934	0.072526040
2019-06-23T17:30:00	0.3149	14.948	216.8	0.843494896	1.122633956	0.023176710	0.239109846	0.073695977
2019-06-23T17:35:00	0.3133	14.937	216.8	0.838589305	1.114412257	0.022917684	0.236437525	0.072872342
2019-06-23T17:40:00	0.3141	14.926	216.7	0.841188257	1.118765330	0.023054716	0.237851254	0.073308066
2019-06-23T17:45:00	0.3122	14.916	216.7	0.835340517	1.108979407	0.022747019	0.234676800	0.072329669
2019-06-23T17:50:00	0.3148	14.905	216.6	0.843257421	1.122235445	0.023164134	0.238980102	0.073655988
2019-06-23T17:55:00	0.3128	14.893	216.6	0.837099833	1.111920265	0.022839353	0.235629391	0.072623267
2019-06-23T18:00:00	0.3141	14.882	216.5	0.841263293	1.118891101	0.023058679	0.237892139	0.073320668
2019-06-23T18:05:00	0.3127	14.869	216.5	0.836667905	1.111197996	0.022816665	0.235395326	0.072551126
2019-06-23T18:10:00	0.3124	14.856	216.4	0.835825819	1.109790352	0.022772468	0.234939359	0.072410592
2019-06-23T18:15:00	0.3122	14.842	216.3	0.835296683	1.108906169	0.022744721	0.234653093	0.072322362
2019-06-23T18:20:00	0.3127	14.829	216.3	0.836645996	1.111161364	0.022815514	0.235383456	0.072547467
2019-06-23T18:25:00	0.3108	14.815	216.2	0.830791402	1.101388200	0.022509217	0.232223443	0.071573521
2019-06-23T18:30:00	0.3103	14.802	216.2	0.829320883	1.098938337	0.022432639	0.231433401	0.071330022
2019-06-23T18:35:00	0.3114	14.788	216.1	0.832552783	1.104325222	0.022601130	0.233171690	0.071865779
2019-06-23T18:40:00	0.3137	14.774	216.1	0.839849909	1.116522916	0.022984095	0.237122668	0.073083509
2019-06-23T18:45:00	0.3130	14.761	216.0	0.837757028	1.113019549	0.022873897	0.235985775	0.072733108
2019-06-23T18:50:00	0.3137	14.748	215.9	0.839731062	1.116323865	0.022977829	0.237058028	0.073063586
2019-06-23T18:55:00	0.3145	14.734	215.8	0.842329251	1.120678364	0.023115017	0.238473369	0.073499808
2019-06-23T19:00:00	0.3133	14.721	215.7	0.838673781	1.114553651	0.022922131	0.236483404	0.072886482
2019-06-23T19:05:00	0.3127	14.707	215.7	0.836893270	1.111574829	0.022828501	0.235517437	0.072588761
2019-06-23T19:10:00	0.3115	14.693	201.7	0.832919378	1.104936856	0.022620285	0.233369314	0.071926689
2019-06-23T19:15:00	0.3132	14.679	215.5	0.838339021	1.113993371	0.022904512	0.236301624	0.072830455
2019-06-23T19:20:00	0.3131	14.666	215.5	0.838123131	1.113632097	0.022893152	0.236184433	0.072794336
2019-06-23T19:25:00	0.3130	14.651	215.4	0.837594308	1.112747332	0.022865341	0.235897507	0.072705903
2019-06-23T19:30:00	0.3139	14.636	215.3	0.840506638	1.117623067	0.023018734	0.237480033	0.073193653
2019-06-23T19:35:00	0.3127	14.621	215.3	0.836849453	1.111501559	0.022826199	0.235493692	0.072581443
2019-06-23T19:40:00	0.3145	14.606	215.2	0.842263618	1.120568288	0.023111546	0.238437559	0.073488771
2019-06-23T19:45:00	0.3140	14.591	215.1	0.840797440	1.118110343	0.023034081	0.237638370	0.073242453
2019-06-23T19:50:00	0.3148	14.575	215.0	0.843394917	1.122466174	0.023171415	0.239055218	0.073679140
2019-06-23T19:55:00	0.3144	14.557	214.9	0.841929166	1.120007431	0.023093863	0.238255126	0.073432544
2019-06-23T20:00:00	0.3155	14.540	214.7	0.845462908	1.125938487	0.023281074	0.240186549	0.074027827
2019-06-23T20:05:00	0.3161	14.522	214.7	0.847433038	1.129250117	0.023385808	0.241267070	0.074360854
2019-06-23T20:10:00	0.3139	14.504	214.7	0.840656735	1.117874563	0.023026655	0.237561751	0.073218839
2019-06-23T20:15:00	0.3165	14.485	214.6	0.848562838	1.131150820	0.023445986	0.241887912	0.074552204
2019-06-23T20:20:00	0.3167	14.466	214.4	0.849283617	1.132364021	0.023484422	0.242284448	0.074674420
2019-06-23T20:25:00	0.3162	14.447	214.4	0.847820079	1.129901119	0.023406414	0.241479657	0.074426375
2019-06-23T20:30:00	0.3174	14.429	214.2	0.851348488	1.135842204	0.023594723	0.243422411	0.075025151
2019-06-23T20:35:00	0.3164	14.408	200.3	0.848325671	1.130751729	0.023433346	0.241757513	0.074512013
2019-06-23T20:40:00	0.3159	14.389	200.2	0.846861774	1.128289503	0.023355413	0.240953486	0.074264204
2019-06-23T20:45:00	0.3154	14.369	200.2	0.845085007	1.125303671	0.023261014	0.239979593	0.073964041
2019-06-23T20:50:00	0.3156	14.348	200.0	0.845806429	1.126515663	0.023299317	0.240374762	0.074085836
2019-06-23T20:55:00	0.3156	14.328	199.9	0.845903234	1.126678331	0.023304460	0.240427815	0.074102188
2019-06-23T21:00:00	0.3163	14.307	199.8	0.847873141	1.129990379	0.023409240	0.241508809	0.074435360
2019-06-23T21:05:00	0.3166	14.286	199.7	0.848906086	1.131728509	0.023464285	0.242076705	0.074610392
2019-06-23T21:10:00	0.3161	14.265	199.5	0.847442407	1.129265874	0.023386307	0.241272215	0.074362440
2019-06-23T21:15:00	0.3153	14.243	213.1	0.845041283	1.125230229	0.023258694	0.239955654	0.073956663
2019-06-23T21:20:00	0.3160	14.221	213.0	0.847011626	1.128541458	0.023363384	0.241035722	0.074289550
2019-06-23T21:25:00	0.3163	14.198	199.2	0.848044799	1.130279159	0.023418382	0.241603133	0.074464432
2019-06-23T21:30:00	0.3169	14.176	199.1	0.850013625	1.133593242	0.023523385	0.242686426	0.074798313
2019-06-23T21:35:00	0.3197	14.154	199.0	0.858523383	1.147958345	0.023980203	0.247399334	0.076250878
2019-06-23T21:40:00	0.3182	14.131	198.8	0.853948302	1.140227024	0.023734005	0.244859351	0.075468030
2019-06-23T21:45:00	0.3184	14.109	212.4	0.854668088	1.141442102	0.023772646	0.245258005	0.075590899
2019-06-23T21:50:00	0.3185	14.086	198.6	0.854764673	1.141605184	0.023777834	0.245311526	0.075607395
2019-06-23T21:55:00	0.3177	14.064	198.5	0.852368050	1.137561049	0.023649291	0.243985378	0.075198663
2019-06-23T22:00:00	0.3186	14.042	212.0	0.855269366	1.142457490	0.023804952	0.245591297	0.075693623
2019-06-23T22:05:00	0.3187	14.019	198.3	0.855363149	1.142615892	0.023809993	0.245643304	0.075709652
2019-06-23T22:10:00	0.3180	13.996	211.6	0.853275794	1.139092186	0.023697933	0.244487205	0.075353331
2019-06-23T22:15:00	0.3188	13.972	211.5	0.855862192	1.143458927	0.023836827	0.245920147	0.075794978
2019-06-23T22:20:00	0.3183	13.949	211.3	0.854398329	1.140986664	0.023758160	0.245108557	0.075544838
2019-06-23T22:25:00	0.3185	13.926	211.2	0.854803701	1.141671085	0.023779930	0.245333155	0.075614061
2019-06-23T22:30:00	0.3192	13.904	211.1	0.857077726	1.145513290	0.023902257	0.246595180	0.076003029
2019-06-23T22:35:00	0.3201	13.881	210.9	0.859972771	1.150411633	0.024058490	0.248207011	0.076499811
2019-06-23T22:40:00	0.3178	13.858	210.8	0.852592013	1.137938750	0.023661287	0.244109139	0.075236807
2019-06-23T22:45:00	0.3187	13.836	210.7	0.855490377	1.142830796	0.023816832	0.245713867	0.075731400
2019-06-23T22:50:00	0.3194	13.813	210.6	0.857764003	1.146673758	0.023939242	0.246976746	0.076120632
2019-06-23T22:55:00	0.3180	13.790	210.5	0.853185244	1.138939418	0.023693078	0.244437121	0.075337895
2019-06-23T23:00:00	0.3171	13.767	210.3	0.850472973	1.134366962	0.023547920	0.242939552	0.074876329
2019-06-23T23:05:00	0.3172	13.742	210.2	0.850878752	1.135050613	0.023569606	0.243163280	0.074945284
2019-06-23T23:10:00	0.3171	13.720	210.1	0.850348867	1.134157901	0.023541290	0.242871149	0.074855247
2019-06-23T23:15:00	0.3182	13.698	209.9	0.853872204	1.140098591	0.023729921	0.244817225	0.075455047
2019-06-23T23:20:00	0.3184	13.675	196.3	0.854589216	1.141308934	0.023768410	0.245214305	0.075577430
2019-06-23T23:25:00	0.3187	13.653	209.7	0.855617600	1.143045708	0.023823673	0.245784438	0.075753151
2019-06-23T23:30:00	0.3207	13.630	209.5	0.861625096	1.153210773	0.024147911	0.249129542	0.076784144
2019-06-23T23:35:00	0.3188	13.607	196.0	0.855805146	1.143362548	0.023833758	0.245888492	0.075785221
2019-06-23T23:40:00	0.3197	13.584	195.9	0.858701131	1.148259104	0.023989796	0.247498307	0.076281382
2019-06-23T23:45:00	0.3186	13.560	195.8	0.855058188	1.142100833	0.023793603	0.245474212	0.075657536
2019-06-23T23:50:00	0.3184	13.537	195.6	0.854528870	1.141207050	0.023765169	0.245180872	0.075567126
2019-06-23T23:55:00	0.3172	13.514	195.6	0.850882037	1.135056148	0.023569782	0.243165091	0.074945843
2019-06-24T00:00:00	0.3172	13.490	208.7	0.850664051	1.134688870	0.023558130	0.243044890	0.074908795
2019-06-24T00:05:00	0.3180	13.467	195.2	0.853252177	1.139052341	0.023696667	0.244474142	0.075349305
2019-06-24T00:10:00	0.3181	13.443	195.1	0.853657668	1.139736537	0.023718412	0.244698485	0.075418449
2019-06-24T00:15:00	0.3173	13.419	194.9	0.851257576	1.135688985	0.023589861	0.243372247	0.075009690
2019-06-24T00:20:00	0.3160	13.397	208.1	0.846983374	1.128493956	0.023361881	0.241020217	0.074284772
2019-06-24T00:25:00	0.3176	13.373	207.9	0.852068929	1.137056673	0.023633275	0.243820140	0.075147735
2019-06-24T00:30:00	0.3199	13.349	207.8	0.859326852	1.149318088	0.024023584	0.247846891	0.076388819
2019-06-24T00:35:00	0.3183	13.326	207.7	0.854126752	1.140528223	0.023743581	0.244958153	0.075498482
2019-06-24T00:40:00	0.3182	13.303	207.5	0.853908947	1.140160603	0.023731893	0.244837565	0.075461315
2019-06-24T00:45:00	0.3184	13.279	207.4	0.854625952	1.141370960	0.023770383	0.245234659	0.075583703
2019-06-24T00:50:00	0.3191	13.257	207.3	0.856588680	1.144686594	0.023875921	0.246323471	0.075919286
2019-06-24T00:55:00	0.3183	13.234	207.2	0.854190386	1.140635637	0.023746997	0.244993390	0.075509342
2019-06-24T01:00:00	0.3193	13.211	207.0	0.857398928	1.146056376	0.023919563	0.246773726	0.076058059
2019-06-24T01:05:00	0.3193	13.188	206.9	0.857492659	1.146214875	0.023924615	0.246825841	0.076074121
2019-06-24T01:10:00	0.3204	13.162	206.8	0.860698497	1.151640749	0.024097743	0.248611968	0.076624623
2019-06-24T01:15:00	0.3186	13.138	206.6	0.855188707	1.142321260	0.023800616	0.245546573	0.075679838
2019-06-24T01:20:00	0.3190	13.115	206.4	0.856528365	1.144584652	0.023872674	0.246289972	0.075908961
2019-06-24T01:25:00	0.3173	13.092	206.3	0.851012696	1.135276312	0.023576767	0.243237155	0.074968053
2019-06-24T01:30:00	0.3179	13.070	206.2	0.852977237	1.138588512	0.023681929	0.244322092	0.075302441
2019-06-24T01:35:00	0.3197	13.046	192.9	0.858677547	1.148219197	0.023988523	0.247485174	0.076277334
2019-06-24T01:40:00	0.3204	13.023	205.9	0.860638245	1.151538686	0.024094482	0.248578334	0.076614257
2019-06-24T01:45:00	0.3193	13.000	205.8	0.857308474	1.145903427	0.023914689	0.246723438	0.076042560
2019-06-24T01:50:00	0.3197	12.977	205.7	0.858647406	1.148168195	0.023986897	0.247468390	0.076272161
2019-06-24T01:55:00	0.3187	12.954	192.5	0.855627443	1.143062337	0.023824202	0.245789899	0.075754834
2019-06-24T02:00:00	0.3178	12.933	205.4	0.852605148	1.137960901	0.023661991	0.244116398	0.075239045
2019-06-24T02:05:00	0.3169	12.912	205.4	0.849892473	1.133389207	0.023516916	0.242619688	0.074777744
2019-06-24T02:10:00	0.3181	12.891	205.2	0.853727875	1.139855015	0.023722178	0.244737339	0.075430425
2019-06-24T02:15:00	0.3193	12.869	205.1	0.857248170	1.145801463	0.023911440	0.246689915	0.076032228
2019-06-24T02:20:00	0.3174	12.848	205.0	0.851421703	1.135965604	0.023598640	0.243462814	0.075037604
2019-06-24T02:25:00	0.3186	12.826	204.8	0.855255606	1.142434248	0.023804212	0.245583667	0.075691271
2019-06-24T02:30:00	0.3169	12.805	204.7	0.849738139	1.133129309	0.023508677	0.242534687	0.074751546
2019-06-24T02:35:00	0.3185	12.783	204.6	0.854820110	1.141698792	0.023780811	0.245342248	0.075616864
2019-06-24T02:40:00	0.3185	12.761	204.5	0.854913903	1.141857174	0.023785850	0.245394232	0.075632886
2019-06-24T02:45:00	0.3194	12.739	204.3	0.857810548	1.146752479	0.023941751	0.247002636	0.076128611
2019-06-24T02:50:00	0.3187	12.717	204.1	0.855413003	1.142700100	0.023812672	0.245670952	0.075718173
2019-06-24T02:55:00	0.3190	12.698	204.1	0.856441171	1.144437285	0.023867980	0.246241549	0.075894037
2019-06-24T03:00:00	0.3188	12.677	203.9	0.855912039	1.143543147	0.023839508	0.245947809	0.075803503
2019-06-24T03:05:00	0.3213	12.658	203.8	0.863473729	1.156345441	0.024248171	0.250163911	0.077102947
2019-06-24T03:10:00	0.3210	12.638	190.8	0.862634625	1.154922210	0.024202634	0.249694113	0.076958151
2019-06-24T03:15:00	0.3217	12.619	190.6	0.864904113	1.158773052	0.024325905	0.250965876	0.077350120
2019-06-24T03:20:00	0.3210	12.600	190.6	0.862510904	1.154712419	0.024195924	0.249624885	0.076936814
2019-06-24T03:25:00	0.3227	12.580	190.4	0.867886875	1.163841370	0.024488443	0.252642756	0.077866951
2019-06-24T03:30:00	0.3223	12.563	190.3	0.866738116	1.161888427	0.024425774	0.251996206	0.077667678
2019-06-24T03:35:00	0.3230	12.544	190.2	0.869005236	1.165743802	0.024549540	0.253273075	0.078061221
2019-06-24T03:40:00	0.3226	12.527	203.1	0.867546271	1.163262201	0.024469853	0.252450960	0.077807838
2019-06-24T03:45:00	0.3228	12.509	190.0	0.868260787	1.164477301	0.024508861	0.252853400	0.077931874
2019-06-24T03:50:00	0.3222	12.493	189.9	0.866490930	1.161468358	0.024412300	0.251857203	0.077624836
2019-06-24T03:55:00	0.3217	12.477	189.8	0.864720275	1.158460942	0.024315907	0.250862725	0.077318328
2019-06-24T04:00:00	0.3211	12.461	189.7	0.862948821	1.155455053	0.024219679	0.249869968	0.077012351
2019-06-24T04:05:00	0.3216	12.446	189.7	0.864500277	1.158087482	0.024303945	0.250739316	0.077280292
2019-06-24T04:10:00	0.3244	12.431	189.5	0.873189897	1.172872500	0.024778894	0.255639279	0.078790508
2019-06-24T04:15:00	0.3220	12.416	189.5	0.865737665	1.160188603	0.024371267	0.251433871	0.077494361
2019-06-24T04:20:00	0.3238	12.401	189.4	0.871323303	1.169690708	0.024676444	0.254582319	0.078464743
2019-06-24T04:25:00	0.3233	12.388	189.3	0.869768984	1.167043667	0.024591312	0.253704028	0.078194045
2019-06-24T04:30:00	0.3260	12.374	189.2	0.878137300	1.181321373	0.025051572	0.258452452	0.079657556
2019-06-24T04:35:00	0.3254	12.361	189.2	0.876275820	1.178139800	0.024948782	0.257391988	0.079330711
2019-06-24T04:40:00	0.3240	12.348	189.1	0.871932647	1.170729040	0.024709862	0.254927094	0.078571006
2019-06-24T04:45:00	0.3244	12.336	189.1	0.873170474	1.172839375	0.024777826	0.255628268	0.078787115
2019-06-24T04:50:00	0.3261	12.325	188.9	0.878435916	1.181832053	0.025068083	0.258622794	0.079710057
2019-06-24T04:55:00	0.3253	12.315	188.9	0.875954858	1.177591549	0.024931083	0.257209384	0.079274430
2019-06-24T05:00:00	0.3243	12.306	188.8	0.872852035	1.172296343	0.024760332	0.255447785	0.078731488
2019-06-24T05:05:00	0.3240	12.297	188.7	0.871918769	1.170705388	0.024709101	0.254919239	0.078568585
2019-06-24T05:10:00	0.3253	12.291	188.7	0.875946540	1.177577341	0.024930624	0.257204653	0.079272972
2019-06-24T05:15:00	0.3250	12.284	188.7	0.875014006	1.175984974	0.024879239	0.256674518	0.079109579
2019-06-24T05:20:00	0.3244	12.278	188.6	0.873151051	1.172806250	0.024776759	0.255617258	0.078783721
2019-06-24T05:25:00	0.3258	12.274	188.6	0.877487340	1.180210121	0.025015655	0.258081903	0.079543349
2019-06-24T05:30:00	0.3248	12.271	188.6	0.874385722	1.174912587	0.024844651	0.256317686	0.078999600
2019-06-24T05:35:00	0.3238	12.268	188.6	0.871281663	1.169619764	0.024674161	0.254558767	0.078457484
2019-06-24T05:40:00	0.3253	12.268	188.5	0.875929904	1.177548926	0.024929707	0.257195190	0.079270055
2019-06-24T05:45:00	0.3230	12.268	201.0	0.868793319	1.165383225	0.024537956	0.253153570	0.078024389
2019-06-24T05:50:00	0.3237	12.269	188.5	0.870963071	1.169077026	0.024656699	0.254378615	0.078401960
2019-06-24T05:55:00	0.3233	12.272	188.5	0.869718995	1.166958572	0.024588576	0.253675809	0.078185348
2019-06-24T06:00:00	0.3238	12.275	188.5	0.871267782	1.169596116	0.024673400	0.254550917	0.078455065
2019-06-24T06:05:00	0.3231	12.280	188.5	0.869092643	1.165892539	0.024554318	0.253322375	0.078076416
2019-06-24T06:10:00	0.3233	12.286	188.6	0.869710664	1.166944390	0.024588120	0.253671106	0.078183899
2019-06-24T06:15:00	0.3242	12.293	188.6	0.872500268	1.171696586	0.024741015	0.255248494	0.078670065
2019-06-24T06:20:00	0.3259	12.301	188.7	0.877766604	1.180687538	0.025031084	0.258241079	0.079592408
2019-06-24T06:25:00	0.3235	12.312	188.7	0.870323033	1.167986971	0.024621639	0.254016910	0.078290479
2019-06-24T06:30:00	0.3244	12.323	188.8	0.873112204	1.172740001	0.024774625	0.255595237	0.078776934
2019-06-24T06:35:00	0.3257	12.335	188.8	0.877138758	1.179614304	0.024996404	0.257883295	0.079482136
2019-06-24T06:40:00	0.3239	12.348	188.9	0.871555815	1.170086872	0.024689192	0.254713847	0.078505281
2019-06-24T06:45:00	0.3248	12.362	188.9	0.874344114	1.174841581	0.024842362	0.256294064	0.078992320
2019-06-24T06:50:00	0.3241	12.379	189.0	0.872170673	1.171134735	0.024722923	0.255061843	0.078612537
2019-06-24T06:55:00	0.3246	12.398	189.1	0.873718497	1.173774133	0.024807949	0.255939038	0.078882897
2019-06-24T07:00:00	0.3249	12.422	189.2	0.874645790	1.175356440	0.024858965	0.256465357	0.079045114
2019-06-24T07:05:00	0.3229	12.443	189.3	0.868438411	1.164779439	0.024518563	0.252953499	0.077962725
2019-06-24T07:10:00	0.3226	12.485	189.5	0.867504098	1.163190497	0.024467551	0.252427218	0.077800520
2019-06-24T07:15:00	0.3242	12.518	189.6	0.872466966	1.171639811	0.024739187	0.255229632	0.078664251
2019-06-24T07:20:00	0.3248	12.542	189.8	0.874324696	1.174808445	0.024841293	0.256283041	0.078988922
2019-06-24T07:25:00	0.3243	12.567	189.9	0.872771561	1.172159125	0.024755912	0.255402185	0.078717434
2019-06-24T07:30:00	0.3233	12.595	190.1	0.869666229	1.166868751	0.024585689	0.253646024	0.078176168
2019-06-24T07:35:00	0.3229	12.628	190.2	0.868421743	1.164751085	0.024517653	0.252944104	0.077959830
2019-06-24T07:40:00	0.3231	12.640	190.3	0.869039869	1.165802734	0.024551433	0.253292608	0.078067242
2019-06-24T07:45:00	0.3230	12.674	190.4	0.868726651	1.165269797	0.024534313	0.253115981	0.078012803
2019-06-24T07:50:00	0.3219	12.699	190.5	0.865307414	1.159457865	0.024347847	0.251192248	0.077419890
2019-06-24T07:55:00	0.3264	12.712	190.6	0.879262367	1.183245845	0.025113811	0.259094557	0.079855459
2019-06-24T08:00:00	0.3245	12.727	203.7	0.873372356	1.173183692	0.024788921	0.255742726	0.078822392
2019-06-24T08:05:00	0.3247	12.753	190.8	0.873989706	1.174236834	0.024822864	0.256092911	0.078930322
2019-06-24T08:10:00	0.3232	12.787	203.9	0.869333619	1.166302630	0.024567495	0.253458319	0.078118316
2019-06-24T08:15:00	0.3243	12.820	204.1	0.872743810	1.172111809	0.024754388	0.255386462	0.078712588
2019-06-24T08:20:00	0.3223	12.855	204.3	0.866844043	1.162068458	0.024431549	0.252055786	0.077686041
2019-06-24T08:25:00	0.3246	12.887	204.5	0.873978609	1.174217901	0.024822254	0.256086614	0.078928382
2019-06-24T08:30:00	0.3222	12.930	204.7	0.866527871	1.161531133	0.024414314	0.251877974	0.077631238
2019-06-24T08:35:00	0.3233	12.967	204.9	0.869940494	1.167335643	0.024600697	0.253800860	0.078223890
2019-06-24T08:40:00	0.3241	13.009	205.1	0.872419787	1.171559382	0.024736597	0.255202910	0.078656015
2019-06-24T08:45:00	0.3247	13.033	205.3	0.874277539	1.174727973	0.024838698	0.256256272	0.078980672
2019-06-24T08:50:00	0.3243	13.076	205.5	0.873034510	1.172607505	0.024770356	0.255551199	0.078763361
2019-06-24T08:55:00	0.3244	13.123	192.6	0.873341836	1.173131636	0.024787243	0.255725421	0.078817058
2019-06-24T09:00:00	0.3233	13.179	192.9	0.869926609	1.167312004	0.024599937	0.253793020	0.078221474
2019-06-24T09:05:00	0.3258	13.236	193.1	0.877675144	1.180531174	0.025026030	0.258188942	0.079576339
2019-06-24T09:10:00	0.3240	13.279	206.6	0.872092960	1.171002275	0.024718659	0.255017845	0.078598977
2019-06-24T09:15:00	0.3245	13.325	206.9	0.873640815	1.173641614	0.024803678	0.255894974	0.078869316
2019-06-24T09:20:00	0.3240	13.375	194.0	0.872087409	1.170992814	0.024718354	0.255014702	0.078598008
2019-06-24T09:25:00	0.3242	13.416	207.3	0.872704960	1.172045568	0.024752255	0.255364450	0.078705804
2019-06-24T09:30:00	0.3235	13.450	207.5	0.870530615	1.168340464	0.024633007	0.254134190	0.078326625
2019-06-24T09:35:00	0.3234	13.477	207.6	0.870217516	1.167807299	0.024615862	0.253957306	0.078272108
2019-06-24T09:40:00	0.3233	13.512	207.8	0.869904392	1.167274183	0.024598722	0.253780476	0.078217607
2019-06-24T09:45:00	0.3247	13.544	208.0	0.874244252	1.174671170	0.024836867	0.256237376	0.078974848
2019-06-24T09:50:00	0.3242	13.575	208.2	0.872691085	1.172021911	0.024751493	0.255356589	0.078703381
2019-06-24T09:55:00	0.3242	13.605	195.1	0.872688310	1.172017179	0.024751340	0.255355017	0.078702896
2019-06-24T10:00:00	0.3240	13.636	208.5	0.872065206	1.170954968	0.024717136	0.255002132	0.078594134
2019-06-24T10:05:00	0.3242	13.663	208.7	0.872504343	1.171703533	0.024741239	0.255250803	0.078670776
2019-06-24T10:10:00	0.3218	13.692	195.5	0.865182793	1.159246239	0.024341066	0.251122286	0.077398328
2019-06-24T10:15:00	0.3218	13.724	209.0	0.865001255	1.158937988	0.024331189	0.251020391	0.077366923
2019-06-24T10:20:00	0.3223	13.753	195.8	0.866683832	1.161796172	0.024422815	0.251965676	0.077658268
2019-06-24T10:25:00	0.3240	13.787	196.0	0.872089693	1.170996706	0.024718479	0.255015995	0.078598406
2019-06-24T10:30:00	0.3219	13.825	196.2	0.865388851	1.159596164	0.024352279	0.251237972	0.077433983
2019-06-24T10:35:00	0.3220	13.863	209.8	0.865828734	1.160343297	0.024376226	0.251485031	0.077510129
2019-06-24T10:40:00	0.3208	13.901	210.0	0.861917112	1.153705726	0.024163733	0.249292777	0.076834455
2019-06-24T10:45:00	0.3213	13.938	210.2	0.863601010	1.156561384	0.024255083	0.250235215	0.077124924
2019-06-24T10:50:00	0.3199	13.978	210.4	0.859375986	1.149401258	0.024026239	0.247874275	0.076397259
2019-06-24T10:55:00	0.3197	14.020	210.7	0.858571717	1.148040124	0.023982811	0.247426245	0.076259172
2019-06-24T11:00:00	0.3194	14.063	210.9	0.857767282	1.146679304	0.023939419	0.246978570	0.076121194
2019-06-24T11:05:00	0.3175	14.104	211.1	0.851665569	1.136376659	0.023611686	0.243597416	0.075079089
2019-06-24T11:10:00	0.3173	14.148	211.4	0.851171571	1.135544043	0.023585262	0.243324796	0.074995065
2019-06-24T11:15:00	0.3187	14.191	211.6	0.855352988	1.142598728	0.023809446	0.245637668	0.075707915
2019-06-24T11:20:00	0.3159	14.240	211.9	0.846750708	1.128102774	0.023349506	0.240892544	0.074245422
2019-06-24T11:25:00	0.3165	14.290	198.6	0.848753197	1.131471183	0.023456133	0.241992603	0.074584471
2019-06-24T11:30:00	0.3160	14.345	198.9	0.847010317	1.128539258	0.023363314	0.241035004	0.074289329
2019-06-24T11:35:00	0.3171	14.401	199.2	0.850572452	1.134534550	0.023553236	0.242994390	0.074893231
2019-06-24T11:40:00	0.3164	14.461	213.1	0.848206269	1.130550825	0.023426984	0.241691878	0.074491784
2019-06-24T11:45:00	0.3166	14.529	199.8	0.848960122	1.131819462	0.023467167	0.242106434	0.074619554
2019-06-24T11:50:00	0.3167	14.600	213.8	0.849401855	1.132563083	0.023490730	0.242349531	0.074694479
2019-06-24T11:55:00	0.3170	14.676	214.3	0.850155477	1.133832155	0.023530960	0.242764578	0.074822401
2019-06-24T12:00:00	0.3138	14.741	214.6	0.840291047	1.117261865	0.023007359	0.237362685	0.073157485
2019-06-24T12:05:00	0.3162	14.810	215.0	0.847606695	1.129542191	0.023395052	0.241362440	0.074390248
2019-06-24T12:10:00	0.3146	14.877	215.4	0.842739348	1.121366238	0.023136712	0.238697188	0.073568792
2019-06-24T12:15:00	0.3146	14.940	215.8	0.842556766	1.121059966	0.023127051	0.238597526	0.073538075
2019-06-24T12:20:00	0.3146	14.998	216.1	0.842686712	1.121277941	0.023133926	0.238668455	0.073559936
2019-06-24T12:25:00	0.3149	15.056	216.5	0.843754085	1.123068964	0.023190440	0.239251497	0.073739635
2019-06-24T12:30:00	0.3156	15.116	216.8	0.845758115	1.126434479	0.023296751	0.240348286	0.074077676
2019-06-24T12:35:00	0.3147	15.171	217.1	0.843076526	1.121931918	0.023154557	0.238881296	0.073625535
2019-06-24T12:40:00	0.3120	15.218	217.4	0.834447063	1.107486994	0.022700206	0.234193843	0.072180817
2019-06-24T12:45:00	0.3150	15.269	217.7	0.843961276	1.123416744	0.023201419	0.239364763	0.073774545
2019-06-24T12:50:00	0.3135	15.323	218.0	0.839402167	1.115773085	0.022960495	0.236879194	0.073008468
2019-06-24T12:55:00	0.3142	15.372	218.3	0.841408438	1.119134400	0.023066346	0.237971236	0.073345046
2019-06-24T13:00:00	0.3124	15.420	218.6	0.835907235	1.109926419	0.022776739	0.234983422	0.072424173
2019-06-24T13:05:00	0.3134	15.470	204.8	0.838853924	1.114855194	0.022931616	0.236581256	0.072916641
2019-06-24T13:10:00	0.3115	15.515	219.1	0.833035808	1.105131136	0.022626371	0.233432098	0.071946040
2019-06-24T13:15:00	0.3131	15.555	205.3	0.837862610	1.113196191	0.022879449	0.236043057	0.072750763
2019-06-24T13:20:00	0.3138	15.591	205.5	0.840182414	1.117079878	0.023001629	0.237303567	0.073139264
2019-06-24T13:25:00	0.3127	15.622	205.7	0.836871042	1.111537660	0.022827333	0.235505392	0.072585049
2019-06-24T13:30:00	0.3126	15.645	219.9	0.836375164	1.110708572	0.022801295	0.235236759	0.072502254
2019-06-24T13:35:00	0.3129	15.660	222.8	0.837444271	1.112496354	0.022857454	0.235816136	0.072680823
2019-06-24T13:40:00	0.3129	15.663	220.0	0.837261440	1.112190546	0.022847844	0.235717000	0.072650269
2019-06-24T13:45:00	0.3138	15.661	220.0	0.840207102	1.117121236	0.023002931	0.237317001	0.073143405
2019-06-24T13:50:00	0.3129	15.652	205.8	0.837521683	1.112625843	0.022861523	0.235858118	0.072693763
2019-06-24T13:55:00	0.3127	15.638	219.9	0.836712894	1.111273219	0.022819027	0.235419700	0.072558638
2019-06-24T14:00:00	0.3126	15.624	219.9	0.836530028	1.110967475	0.022809425	0.235320636	0.072528105
2019-06-24T14:05:00	0.3126	15.609	219.8	0.836347154	1.110661747	0.022799825	0.235221590	0.072497579
2019-06-24T14:10:00	0.3136	15.598	219.7	0.839606295	1.116114914	0.022971253	0.236990178	0.073042675
2019-06-24T14:15:00	0.3136	15.585	219.7	0.839423565	1.115808916	0.022961623	0.236890827	0.073012054
2019-06-24T14:20:00	0.3126	15.576	219.6	0.836424588	1.110791197	0.022803890	0.235263526	0.072510504
2019-06-24T14:25:00	0.3136	15.568	219.6	0.839683663	1.116244484	0.022975331	0.237032251	0.073055642
2019-06-24T14:30:00	0.3132	15.560	219.6	0.838249612	1.113843747	0.022899807	0.236253086	0.072815496
2019-06-24T14:35:00	0.3137	15.553	205.5	0.839943744	1.116680084	0.022989042	0.237173711	0.073099241
2019-06-24T14:40:00	0.3126	15.547	219.6	0.836319144	1.110614923	0.022798355	0.235206422	0.072492904
2019-06-24T14:45:00	0.3119	15.539	219.5	0.834257492	1.107170431	0.022690280	0.234091441	0.072149255
2019-06-24T14:50:00	0.3121	15.529	219.6	0.835014052	1.108434001	0.022729908	0.234500267	0.072275260
2019-06-24T14:55:00	0.3136	15.519	219.5	0.839525630	1.115979829	0.022967001	0.236946317	0.073029156
2019-06-24T15:00:00	0.3138	15.509	219.5	0.840281165	1.117245310	0.023006838	0.237357306	0.073155827
2019-06-24T15:05:00	0.3138	15.499	219.4	0.840098467	1.116939253	0.022997201	0.237257888	0.073125185
2019-06-24T15:10:00	0.3132	15.490	219.3	0.838351707	1.114014603	0.022905179	0.236308511	0.072832578
2019-06-24T15:15:00	0.3137	15.479	219.3	0.839733045	1.116327187	0.022977934	0.237059107	0.073063919
2019-06-24T15:20:00	0.3092	15.466	219.2	0.825763657	1.093020172	0.022247984	0.229528349	0.070742866
2019-06-24T15:25:00	0.3093	15.451	219.2	0.826208036	1.093758859	0.022271006	0.229765863	0.070816071
2019-06-24T15:30:00	0.3112	15.436	219.2	0.831983623	1.103375865	0.022571407	0.232865049	0.071771270
2019-06-24T15:35:00	0.3136	15.419	205.1	0.839627692	1.116150747	0.022972380	0.237001813	0.073046261
2019-06-24T15:40:00	0.3148	15.406	219.1	0.843196581	1.122133357	0.023160913	0.238946868	0.073645745
2019-06-24T15:45:00	0.3144	15.390	219.0	0.842076410	1.120254339	0.023101647	0.238335434	0.073457295
2019-06-24T15:50:00	0.3140	15.374	218.8	0.840955918	1.118375925	0.023042447	0.237724682	0.073269056
2019-06-24T15:55:00	0.3141	15.355	218.8	0.841085918	1.118593801	0.023049312	0.237795498	0.073290882
2019-06-24T16:00:00	0.3131	15.337	218.7	0.838088224	1.113573686	0.022891316	0.236165487	0.072788497
2019-06-24T16:05:00	0.3129	15.319	218.6	0.837465184	1.112531334	0.022858553	0.235827477	0.072684319
2019-06-24T16:10:00	0.3129	15.299	218.5	0.837467984	1.112536018	0.022858700	0.235828995	0.072684787
2019-06-24T16:15:00	0.3096	15.277	218.4	0.827129835	1.095291727	0.022318803	0.230258980	0.070968054
2019-06-24T16:20:00	0.3114	15.258	218.3	0.832776577	1.104698589	0.022612823	0.233292322	0.071902959
2019-06-24T16:25:00	0.3114	15.240	218.1	0.832779380	1.104703267	0.022612969	0.233293833	0.071903425
2019-06-24T16:30:00	0.3110	15.224	218.1	0.831528689	1.102617249	0.022547665	0.232620108	0.071695776
2019-06-24T16:35:00	0.3116	15.208	218.0	0.833411582	1.105758253	0.022646018	0.233634795	0.072008513
2019-06-24T16:40:00	0.3108	15.194	217.9	0.830907399	1.101581533	0.022515264	0.232285826	0.071592747
2019-06-24T16:45:00	0.3113	15.181	217.9	0.832477259	1.104199232	0.022597185	0.233130989	0.071853235
2019-06-24T16:50:00	0.3090	15.165	217.8	0.825266354	1.092193723	0.022222235	0.229262706	0.070660993
2019-06-24T16:55:00	0.3091	15.150	217.8	0.825583083	1.092720056	0.022238633	0.229431873	0.070713131
2019-06-24T17:00:00	0.3105	15.137	217.7	0.829978083	1.100032980	0.022466845	0.231786302	0.071438789
2019-06-24T17:05:00	0.3110	15.124	217.6	0.831548320	1.102649980	0.022548690	0.232630674	0.071699033
2019-06-24T17:10:00	0.3099	15.109	203.6	0.828101940	1.096909084	0.022369270	0.230779634	0.071128524
2019-06-24T17:15:00	0.3094	15.092	217.5	0.826535920	1.094304011	0.022288001	0.229941199	0.070870111
2019-06-24T17:20:00	0.3114	15.077	217.4	0.832810219	1.104754721	0.022614581	0.233310459	0.071908549
2019-06-24T17:25:00	0.3115	15.062	217.3	0.833126331	1.105282195	0.022631103	0.233480918	0.071961087
2019-06-24T17:30:00	0.3109	15.047	217.2	0.831248908	1.102150799	0.022533071	0.232469540	0.071649370
2019-06-24T17:35:00	0.3117	15.031	217.2	0.833758476	1.106337286	0.022664164	0.233821999	0.072066211
2019-06-24T17:40:00	0.3122	15.015	217.1	0.835327183	1.108957127	0.022746320	0.234669588	0.072327446
2019-06-24T17:45:00	0.3112	15.001	217.0	0.832197547	1.103732655	0.022582576	0.232980277	0.071806784
2019-06-24T17:50:00	0.3108	14.987	217.0	0.830946667	1.101646985	0.022517311	0.232306946	0.071599257
2019-06-24T17:55:00	0.3120	14.972	216.8	0.834709303	1.107924962	0.022713941	0.234335541	0.072224490
2019-06-24T18:00:00	0.3104	14.958	216.8	0.829698190	1.099566737	0.022452274	0.231635970	0.071392456
2019-06-24T18:05:00	0.3117	14.945	216.7	0.833775293	1.106365359	0.022665044	0.233831077	0.072069009
2019-06-24T18:10:00	0.3118	14.932	216.6	0.834091326	1.106892979	0.022681582	0.234001701	0.072121597
2019-06-24T18:15:00	0.3105	14.919	216.6	0.830020166	1.100103088	0.022469037	0.231808910	0.071445757
2019-06-24T18:20:00	0.3116	14.905	216.5	0.833157167	1.105333654	0.022632715	0.233497550	0.071966213
2019-06-24T18:25:00	0.3111	14.892	216.4	0.831593191	1.102724796	0.022551031	0.232654828	0.071706477
2019-06-24T18:30:00	0.3116	14.880	216.3	0.833162773	1.105343010	0.022633008	0.233500574	0.071967145
2019-06-24T18:35:00	0.3112	14.867	216.2	0.831912206	1.103256762	0.022567679	0.232826588	0.071759416
2019-06-24T18:40:00	0.3114	14.854	216.2	0.832541746	1.104306808	0.022600553	0.233165742	0.071863946
2019-06-24T18:45:00	0.3113	14.841	216.1	0.832231194	1.103788777	0.022584333	0.232998404	0.071812371
2019-06-24T18:50:00	0.3124	14.828	216.1	0.835679508	1.109545842	0.022764794	0.234860184	0.072386190
2019-06-24T18:55:00	0.3123	14.816	216.0	0.835369208	1.109027343	0.022748523	0.234692318	0.072334452
2019-06-24T19:00:00	0.3114	14.804	202.2	0.832552960	1.104325518	0.022601139	0.233171786	0.071865809
2019-06-24T19:05:00	0.3119	14.791	215.9	0.834122154	1.106944453	0.022683196	0.234018349	0.072126728
2019-06-24T19:10:00	0.3113	14.778	215.9	0.832245214	1.103812161	0.022585065	0.233005957	0.071814699
2019-06-24T19:15:00	0.3127	14.766	215.7	0.836632665	1.111139076	0.022814814	0.235376235	0.072545241
2019-06-24T19:20:00	0.3125	14.753	215.7	0.836009392	1.110097160	0.022782099	0.235038717	0.072441215
2019-06-24T19:25:00	0.3131	14.741	215.6	0.837890112	1.113242205	0.022880895	0.236057979	0.072755362
2019-06-24T19:30:00	0.3146	14.729	215.6	0.842583739	1.121105211	0.023128478	0.238612248	0.073542612
2019-06-24T19:35:00	0.3144	14.717	215.5	0.841961419	1.120061513	0.023095568	0.238272716	0.073437965
2019-06-24T19:40:00	0.3140	14.706	215.4	0.840713683	1.117969989	0.023029660	0.237592759	0.073228396
2019-06-24T19:45:00	0.3136	14.694	215.4	0.839465546	1.115879214	0.022963835	0.236913650	0.073019088
2019-06-24T19:50:00	0.3175	14.682	215.4	0.851647840	1.136346774	0.023610738	0.243587629	0.075076073
2019-06-24T19:55:00	0.3154	14.671	215.3	0.845097177	1.125324112	0.023261660	0.239986256	0.073966095
2019-06-24T20:00:00	0.3150	14.658	215.2	0.843850445	1.123230705	0.023195546	0.239304171	0.073755870
2019-06-24T20:05:00	0.3147	14.645	215.1	0.842915834	1.121662314	0.023146051	0.238793544	0.073598490
2019-06-24T20:10:00	0.3171	14.631	215.1	0.850411574	1.134263532	0.023544640	0.242905709	0.074865899
2019-06-24T20:15:00	0.3174	14.617	215.0	0.851349971	1.135844704	0.023594803	0.243423230	0.075025403
2019-06-24T20:20:00	0.3167	14.602	215.0	0.849169333	1.132171629	0.023478325	0.242221551	0.074655035
2019-06-24T20:25:00	0.3178	14.587	214.8	0.852602676	1.137956733	0.023661858	0.244115032	0.075238624
2019-06-24T20:30:00	0.3169	14.574	214.8	0.849798877	1.133231589	0.023511919	0.242568137	0.074761856
2019-06-24T20:35:00	0.3162	14.560	214.6	0.847617372	1.129560148	0.023395621	0.241368305	0.074392056
2019-06-24T20:40:00	0.3178	14.546	214.6	0.852611044	1.137970846	0.023662307	0.244119657	0.075240049
2019-06-24T20:45:00	0.3185	14.531	214.6	0.854795338	1.141656963	0.023779481	0.245328520	0.075612632
2019-06-24T20:50:00	0.3175	14.517	214.4	0.851681320	1.136403210	0.023612529	0.243606111	0.075081769
2019-06-24T20:55:00	0.3161	14.503	214.4	0.847316402	1.129053962	0.023379600	0.241203027	0.074341115
2019-06-24T21:00:00	0.3181	14.488	214.3	0.853557279	1.139567133	0.023713027	0.244642933	0.075401328
2019-06-24T21:05:00	0.3183	14.473	214.2	0.854183328	1.140623722	0.023746618	0.244989481	0.075508137
2019-06-24T21:10:00	0.3180	14.459	214.1	0.853251189	1.139050673	0.023696614	0.244473595	0.075349136
2019-06-24T21:15:00	0.3177	14.444	214.0	0.852318827	1.137478046	0.023646655	0.243958183	0.075190281
2019-06-24T21:20:00	0.3163	14.429	213.9	0.847954623	1.130127452	0.023413579	0.241553580	0.074449159
2019-06-24T21:25:00	0.3167	14.413	213.8	0.849205626	1.132232725	0.023480261	0.242241524	0.074661190
2019-06-24T21:30:00	0.3190	14.398	213.7	0.856377890	1.144330339	0.023864574	0.246206410	0.075883207
2019-06-24T21:35:00	0.3178	14.383	213.7	0.852641726	1.138022594	0.023663950	0.244136615	0.075245276
2019-06-24T21:40:00	0.3165	14.368	213.6	0.848589947	1.131196440	0.023447431	0.241902819	0.074556798
2019-06-24T21:45:00	0.3184	14.354	199.8	0.854517224	1.141187388	0.023764544	0.245174420	0.075565137
2019-06-24T21:50:00	0.3192	14.339	199.7	0.857011847	1.145401913	0.023898708	0.246558568	0.075991745
2019-06-24T21:55:00	0.3175	14.324	213.3	0.851717589	1.136464350	0.023614470	0.243626134	0.075087940
2019-06-24T22:00:00	0.3186	14.309	213.2	0.855148695	1.142253683	0.023798466	0.245524388	0.075673001
2019-06-24T22:05:00	0.3154	14.293	199.5	0.845167043	1.125441467	0.023265368	0.240024511	0.073977885
2019-06-24T22:10:00	0.3174	14.278	199.4	0.851408565	1.135943460	0.023597937	0.243455564	0.075035369
2019-06-24T22:15:00	0.3182	14.262	199.4	0.853902382	1.140149523	0.023731541	0.244833931	0.075460195
2019-06-24T22:20:00	0.3171	14.246	199.3	0.850472973	1.134366962	0.023547920	0.242939552	0.074876329
2019-06-24T22:25:00	0.3171	14.232	199.2	0.850472973	1.134366962	0.023547920	0.242939552	0.074876329
2019-06-24T22:30:00	0.3173	14.216	199.1	0.851096726	1.135417914	0.023581259	0.243283507	0.074982340
2019-06-24T22:35:00	0.3177	14.200	212.6	0.852343933	1.137520381	0.023648000	0.243972053	0.075194556
2019-06-24T22:40:00	0.3175	14.184	199.0	0.851720379	1.136469053	0.023614619	0.243627674	0.075088415
2019-06-24T22:45:00	0.3182	14.168	198.8	0.853902382	1.140149523	0.023731541	0.244833931	0.075460195
2019-06-24T22:50:00	0.3175	14.151	212.3	0.851720379	1.136469053	0.023614619	0.243627674	0.075088415
2019-06-24T22:55:00	0.3168	14.134	198.7	0.849537157	1.132790887	0.023497950	0.242424018	0.074717437
2019-06-24T23:00:00	0.3170	14.117	212.1	0.850161059	1.133841557	0.023531258	0.242767654	0.074823349
2019-06-24T23:05:00	0.3155	14.101	212.0	0.845479356	1.125966120	0.023281947	0.240195559	0.074030604
2019-06-24T23:10:00	0.3156	14.085	198.4	0.845791645	1.126490820	0.023298532	0.240366660	0.074083339
2019-06-24T23:15:00	0.3175	14.068	211.8	0.851720379	1.136469053	0.023614619	0.243627674	0.075088415
2019-06-24T23:20:00	0.3165	14.051	211.7	0.848601116	1.131215236	0.023448026	0.241908961	0.074558691
2019-06-24T23:25:00	0.3147	14.034	198.0	0.842980147	1.121770213	0.023149455	0.238828663	0.073609313
2019-06-24T23:30:00	0.3159	14.020	211.5	0.846728360	1.128065202	0.023348317	0.240880283	0.074241643
2019-06-24T23:35:00	0.3165	14.006	211.5	0.848601116	1.131215236	0.023448026	0.241908961	0.074558691
2019-06-24T23:40:00	0.3149	13.991	211.4	0.843605100	1.122818908	0.023182547	0.239170068	0.073714538
2019-06-24T23:45:00	0.3164	13.976	197.8	0.848289052	1.130690113	0.023431395	0.241737382	0.074505809
2019-06-24T23:50:00	0.3151	13.962	211.2	0.844229952	1.123867791	0.023215660	0.239511686	0.073819828
2019-06-24T23:55:00	0.3169	13.947	197.6	0.849849120	1.133316199	0.023514602	0.242595809	0.074770384
2019-06-25T00:00:00	0.3176	13.931	211.0	0.852032168	1.136994694	0.023631307	0.243799837	0.075141478
2019-06-25T00:05:00	0.3158	13.916	197.4	0.846416147	1.127540361	0.023331717	0.240709022	0.074188858
2019-06-25T00:10:00	0.3159	13.902	210.8	0.846728360	1.128065202	0.023348317	0.240880283	0.074241643
2019-06-25T00:15:00	0.3162	13.887	210.7	0.847664850	1.129640008	0.023398148	0.241394383	0.074400093
2019-06-25T00:20:00	0.3149	13.871	210.6	0.843605100	1.122818908	0.023182547	0.239170068	0.073714538
2019-06-25T00:25:00	0.3162	13.855	197.2	0.847664850	1.129640008	0.023398148	0.241394383	0.074400093
2019-06-25T00:30:00	0.3167	13.839	210.5	0.849225168	1.132265623	0.023481303	0.242252279	0.074664505
2019-06-25T00:35:00	0.3165	13.822	210.4	0.848601116	1.131215236	0.023448026	0.241908961	0.074558691
2019-06-25T00:40:00	0.3161	13.807	210.2	0.847352712	1.129115026	0.023381533	0.241222963	0.074347260
2019-06-25T00:45:00	0.3157	13.792	210.1	0.846103908	1.127015567	0.023315122	0.240537815	0.074136091
2019-06-25T00:50:00	0.3159	13.776	210.0	0.846728360	1.128065202	0.023348317	0.240880283	0.074241643
2019-06-25T00:55:00	0.3156	13.762	209.9	0.845791645	1.126490820	0.023298532	0.240366660	0.074083339
2019-06-25T01:00:00	0.3162	13.749	209.8	0.847664850	1.129640008	0.023398148	0.241394383	0.074400093
2019-06-25T01:05:00	0.3172	13.735	209.8	0.850784862	1.134892414	0.023564587	0.243111503	0.074929326
2019-06-25T01:10:00	0.3147	13.722	209.6	0.842980147	1.121770213	0.023149455	0.238828663	0.073609313
2019-06-25T01:15:00	0.3162	13.709	209.7	0.847664850	1.129640008	0.023398148	0.241394383	0.074400093
2019-06-25T01:20:00	0.3150	13.696	209.4	0.843917538	1.123343326	0.023199101	0.239340850	0.073767175
2019-06-25T01:25:00	0.3141	13.684	210.0	0.841104686	1.118625257	0.023050303	0.237805723	0.073294033
2019-06-25T01:30:00	0.3136	13.671	209.4	0.839541111	1.116005754	0.022967817	0.236954735	0.073031751
2019-06-25T01:35:00	0.3131	13.658	209.2	0.837976907	1.113387426	0.022885460	0.236105076	0.072769878
2019-06-25T01:40:00	0.3116	13.644	209.1	0.833280509	1.105539495	0.022639164	0.233564082	0.071986718
2019-06-25T01:45:00	0.3125	13.631	209.0	0.836099030	1.110246984	0.022786803	0.235087242	0.072456171
2019-06-25T01:50:00	0.3108	13.617	209.0	0.830773436	1.101358257	0.022508281	0.232213782	0.071570543
2019-06-25T01:55:00	0.3110	13.605	195.6	0.831400356	1.102403284	0.022540971	0.232551037	0.071674488
2019-06-25T02:00:00	0.3103	13.592	195.5	0.829205691	1.098746511	0.022426646	0.231371575	0.071310967
2019-06-25T02:05:00	0.3116	13.581	195.4	0.833280509	1.105539495	0.022639164	0.233564082	0.071986718
2019-06-25T02:10:00	0.3106	13.569	208.7	0.830146414	1.100313418	0.022475611	0.231876740	0.071466663
2019-06-25T02:15:00	0.3107	13.556	195.2	0.830459938	1.100835814	0.022491943	0.232045234	0.071518595
2019-06-25T02:20:00	0.3111	13.543	195.2	0.831713778	1.102925868	0.022557323	0.232719745	0.071726486
2019-06-25T02:25:00	0.3106	13.529	208.4	0.830146414	1.100313418	0.022475611	0.231876740	0.071466663
2019-06-25T02:30:00	0.3117	13.514	195.0	0.833593779	1.106062361	0.022655548	0.233733109	0.072038814
2019-06-25T02:35:00	0.3119	13.500	208.3	0.834220243	1.107108235	0.022688330	0.234071323	0.072143055
2019-06-25T02:40:00	0.3120	13.487	208.1	0.834533438	1.107631242	0.022704730	0.234240510	0.072195200
2019-06-25T02:45:00	0.3119	13.474	194.8	0.834220243	1.107108235	0.022688330	0.234071323	0.072143055
2019-06-25T02:50:00	0.3141	13.460	194.7	0.841104686	1.118625257	0.023050303	0.237805723	0.073294033
2019-06-25T02:55:00	0.3140	13.447	194.6	0.840792021	1.118101263	0.023033795	0.237635419	0.073241544
2019-06-25T03:00:00	0.3140	13.433	207.8	0.840792021	1.118101263	0.023033795	0.237635419	0.073241544
2019-06-25T03:05:00	0.3113	13.418	194.4	0.832340547	1.103971178	0.022590044	0.233057320	0.071830529
2019-06-25T03:10:00	0.3146	13.405	194.3	0.842667633	1.121245936	0.023132917	0.238658040	0.073556726
2019-06-25T03:15:00	0.3159	13.391	194.3	0.846728360	1.128065202	0.023348317	0.240880283	0.074241643
2019-06-25T03:20:00	0.3159	13.376	194.2	0.846728360	1.128065202	0.023348317	0.240880283	0.074241643
2019-06-25T03:25:00	0.3162	13.363	207.3	0.847664850	1.129640008	0.023398148	0.241394383	0.074400093
2019-06-25T03:30:00	0.3163	13.350	194.0	0.847976964	1.130165037	0.023414769	0.241565856	0.074452943
2019-06-25T03:35:00	0.3171	13.337	193.9	0.850472973	1.134366962	0.023547920	0.242939552	0.074876329
2019-06-25T03:40:00	0.3157	13.326	207.0	0.846103908	1.127015567	0.023315122	0.240537815	0.074136091
2019-06-25T03:45:00	0.3171	13.315	207.0	0.850472973	1.134366962	0.023547920	0.242939552	0.074876329
2019-06-25T03:50:00	0.3152	13.304	207.0	0.844542341	1.124392302	0.023232224	0.239682575	0.073872497
2019-06-25T03:55:00	0.3147	13.294	193.7	0.842980147	1.121770213	0.023149455	0.238828663	0.073609313
2019-06-25T04:00:00	0.3165	13.283	206.8	0.848601116	1.131215236	0.023448026	0.241908961	0.074558691
2019-06-25T04:05:00	0.3151	13.274	206.8	0.844182927	1.123788842	0.023213167	0.239485967	0.073811901
2019-06-25T04:10:00	0.3164	13.265	206.7	0.848195100	1.130532032	0.023426389	0.241685738	0.074489892
2019-06-25T04:15:00	0.3166	13.256	206.7	0.849084272	1.132028440	0.023473788	0.242174743	0.074640608
2019-06-25T04:20:00	0.3172	13.249	206.6	0.850908953	1.135101501	0.023571220	0.243179936	0.074950418
2019-06-25T04:25:00	0.3196	13.243	206.6	0.858339740	1.147647640	0.023970294	0.247297102	0.076219368
2019-06-25T04:30:00	0.3177	13.236	206.5	0.852374123	1.137571291	0.023649616	0.243988734	0.075199697
2019-06-25T04:35:00	0.3186	13.229	206.4	0.855131970	1.142225437	0.023797567	0.245515115	0.075670143
2019-06-25T04:40:00	0.3189	13.223	206.4	0.856019565	1.143724825	0.023845292	0.246007485	0.075821896
2019-06-25T04:45:00	0.3179	13.216	206.3	0.852856812	1.138385376	0.023675475	0.244255509	0.075281920
2019-06-25T04:50:00	0.3164	13.210	206.3	0.848443444	1.130949903	0.023439622	0.241822261	0.074531970
2019-06-25T04:55:00	0.3171	13.204	206.3	0.850580330	1.134547821	0.023553657	0.242998732	0.074894569
2019-06-25T05:00:00	0.3175	13.199	206.2	0.851780768	1.136570856	0.023617851	0.243661014	0.075098691
2019-06-25T05:05:00	0.3164	13.195	206.2	0.848302519	1.130712773	0.023432113	0.241744785	0.074508091
2019-06-25T05:10:00	0.3175	13.193	206.2	0.851686900	1.136412616	0.023612828	0.243609191	0.075082719
2019-06-25T05:15:00	0.3184	13.190	206.2	0.854445231	1.141065845	0.023760678	0.245134538	0.075552845
2019-06-25T05:20:00	0.3155	13.188	206.2	0.845664101	1.126276513	0.023291758	0.240296772	0.074061799
2019-06-25T05:25:00	0.3169	13.187	206.1	0.849986703	1.133547900	0.023521947	0.242671594	0.074793742
2019-06-25T05:30:00	0.3188	13.186	206.1	0.855862192	1.143458927	0.023836827	0.245920147	0.075794978
2019-06-25T05:35:00	0.3168	13.186	193.0	0.849580831	1.132864425	0.023500281	0.242448064	0.074724848
2019-06-25T05:40:00	0.3182	13.188	206.1	0.853899100	1.140143983	0.023731365	0.244832114	0.075459635
2019-06-25T05:45:00	0.3176	13.189	205.8	0.851981953	1.136910031	0.023628619	0.243772105	0.075132930
2019-06-25T05:50:00	0.3175	13.191	206.2	0.851623225	1.136305280	0.023609421	0.243574041	0.075071885
2019-06-25T05:55:00	0.3173	13.194	206.1	0.851264463	1.135700592	0.023590229	0.243376047	0.075010861
2019-06-25T06:00:00	0.3151	13.197	206.2	0.844350962	1.124070960	0.023222076	0.239577875	0.073840228
2019-06-25T06:05:00	0.3172	13.202	206.2	0.850858724	1.135016866	0.023568535	0.243152234	0.074941880
2019-06-25T06:10:00	0.3155	13.208	206.2	0.845506310	1.126011404	0.023283379	0.240210324	0.074035155
2019-06-25T06:15:00	0.3154	13.214	206.2	0.845146985	1.125407776	0.023264303	0.240013528	0.073974500
2019-06-25T06:20:00	0.3160	13.222	206.2	0.846973509	1.128477368	0.023361356	0.241014803	0.074283103
2019-06-25T06:25:00	0.3175	13.230	206.3	0.851606485	1.136277063	0.023608525	0.243564800	0.075069037
2019-06-25T06:30:00	0.3158	13.240	206.3	0.846567323	1.127794483	0.023339754	0.240791940	0.074214414
2019-06-25T06:35:00	0.3151	13.250	206.3	0.844334191	1.124042801	0.023221187	0.239568701	0.073837400
2019-06-25T06:40:00	0.3150	13.262	206.4	0.843974758	1.123439376	0.023202134	0.239372134	0.073776817
2019-06-25T06:45:00	0.3165	13.275	206.5	0.848611295	1.131232366	0.023448569	0.241914559	0.074560417
2019-06-25T06:50:00	0.3161	13.288	206.6	0.847315907	1.129053130	0.023379574	0.241202755	0.074341032
2019-06-25T06:55:00	0.3158	13.306	206.6	0.846332334	1.127399484	0.023327262	0.240663059	0.074174692
2019-06-25T07:00:00	0.3171	13.325	206.7	0.850654196	1.134672265	0.023557604	0.243039456	0.074907121
2019-06-25T07:05:00	0.3170	13.344	206.8	0.850295345	1.134067745	0.023538431	0.242841652	0.074846156
2019-06-25T07:10:00	0.3157	13.382	193.8	0.846191333	1.127162498	0.023319768	0.240585745	0.074150863
2019-06-25T07:15:00	0.3167	13.415	207.2	0.849265559	1.132333621	0.023483458	0.242274509	0.074671357
2019-06-25T07:20:00	0.3177	13.436	207.3	0.852337365	1.137509306	0.023647648	0.243968425	0.075193438
2019-06-25T07:25:00	0.3173	13.463	194.2	0.851043214	1.135327738	0.023578398	0.243253988	0.074973242
2019-06-25T07:30:00	0.3177	13.489	194.3	0.852243510	1.137351041	0.023642622	0.243916573	0.075177457
2019-06-25T07:35:00	0.3174	13.525	207.8	0.851573004	1.136220627	0.023606734	0.243546320	0.075063341
2019-06-25T07:40:00	0.3160	13.540	194.5	0.847158183	1.128787894	0.023371181	0.241116166	0.074314344
2019-06-25T07:45:00	0.3180	13.575	207.9	0.853349609	1.139216727	0.023701891	0.244528037	0.075365916
2019-06-25T07:50:00	0.3162	13.603	208.1	0.847688501	1.129679789	0.023399408	0.241407374	0.074404097
2019-06-25T07:55:00	0.3177	13.623	208.1	0.852320628	1.137481082	0.023646752	0.243959178	0.075190588
2019-06-25T08:00:00	0.3165	13.630	208.2	0.848530816	1.131096932	0.023444279	0.241870303	0.074546777
2019-06-25T08:05:00	0.3192	13.657	195.1	0.856900399	1.145213506	0.023892706	0.246496640	0.075972658
2019-06-25T08:10:00	0.3187	13.691	195.2	0.855607757	1.143029080	0.023823143	0.245778978	0.075751468
2019-06-25T08:15:00	0.3166	13.724	195.4	0.849013981	1.131910119	0.023470039	0.242136066	0.074628687
2019-06-25T08:20:00	0.3179	13.766	209.0	0.853021191	1.138662658	0.023684284	0.244346396	0.075309932
2019-06-25T08:25:00	0.3181	13.806	209.2	0.853597625	1.139635216	0.023715191	0.244665258	0.075408209
2019-06-25T08:30:00	0.3173	13.853	209.4	0.851056671	1.135350416	0.023579118	0.243261411	0.074975530
2019-06-25T08:35:00	0.3168	13.896	209.5	0.849450124	1.132644351	0.023493306	0.242376103	0.074702669
2019-06-25T08:40:00	0.3157	13.945	209.8	0.846282045	1.127314960	0.023324589	0.240635483	0.074166193
2019-06-25T08:45:00	0.3159	13.974	210.0	0.846859476	1.128285639	0.023355290	0.240952224	0.074263816
2019-06-25T08:50:00	0.3157	14.016	210.2	0.846188044	1.127156970	0.023319593	0.240583942	0.074150307
2019-06-25T08:55:00	0.3173	14.071	210.5	0.851133813	1.135480413	0.023583243	0.243303966	0.074988645
2019-06-25T09:00:00	0.3168	14.140	210.8	0.849527298	1.132774288	0.023497424	0.242418590	0.074715764
2019-06-25T09:05:00	0.3173	14.202	211.1	0.851039929	1.135322203	0.023578223	0.243252176	0.074972683
2019-06-25T09:10:00	0.3180	14.264	197.9	0.853175395	1.138922801	0.023692550	0.244431673	0.075336216
2019-06-25T09:15:00	0.3154	14.304	198.2	0.845328456	1.125712612	0.023273936	0.240112906	0.074005129
2019-06-25T09:20:00	0.3156	14.358	212.0	0.845906028	1.126683026	0.023304608	0.240429347	0.074102660
2019-06-25T09:25:00	0.3151	14.410	198.7	0.844297357	1.123980959	0.023219234	0.239548553	0.073831191
2019-06-25T09:30:00	0.3167	14.452	199.0	0.849245523	1.132299890	0.023482389	0.242263482	0.074667958
2019-06-25T09:35:00	0.3165	14.493	212.7	0.848574502	1.131170448	0.023446607	0.241894326	0.074554180
2019-06-25T09:40:00	0.3154	14.527	213.1	0.845093391	1.125317754	0.023261459	0.239984183	0.073965456
2019-06-25T09:45:00	0.3160	14.568	213.5	0.846919940	1.128387299	0.023358506	0.240985405	0.074274042
2019-06-25T09:50:00	0.3149	14.608	213.4	0.843749803	1.123061777	0.023190213	0.239249156	0.073738914
2019-06-25T09:55:00	0.3154	14.650	213.7	0.845264677	1.125605472	0.023270550	0.240077976	0.073994364
2019-06-25T10:00:00	0.3146	14.688	213.9	0.842718287	1.121330908	0.023135597	0.238685691	0.073565248
2019-06-25T10:05:00	0.3136	14.718	214.0	0.839674772	1.116229593	0.022974862	0.237027415	0.073054151
2019-06-25T10:10:00	0.3135	14.750	214.2	0.839132165	1.115321002	0.022946270	0.236732438	0.072963237
2019-06-25T10:15:00	0.3139	14.788	214.4	0.840466156	1.117555240	0.023016598	0.237457996	0.073186860
2019-06-25T10:20:00	0.3136	14.817	214.6	0.839610900	1.116122626	0.022971495	0.236992682	0.073043446
2019-06-25T10:25:00	0.3143	14.849	214.8	0.841882609	1.119929365	0.023091402	0.238229736	0.073424718
2019-06-25T10:30:00	0.3130	14.883	215.0	0.837586900	1.112734940	0.022864951	0.235893489	0.072704664
2019-06-25T10:35:00	0.3138	14.914	215.2	0.840172532	1.117063323	0.023001108	0.237298189	0.073137607
2019-06-25T10:40:00	0.3122	14.954	215.4	0.835248734	1.108826060	0.022742207	0.234627162	0.072314370
2019-06-25T10:45:00	0.3131	14.997	215.7	0.838148825	1.113675091	0.022894504	0.236198378	0.072798634
2019-06-25T10:50:00	0.3121	15.040	216.0	0.834788579	1.108057372	0.022718094	0.234378386	0.072237695
2019-06-25T10:55:00	0.3126	15.088	216.3	0.836437103	1.110812120	0.022804547	0.235270304	0.072512593
2019-06-25T11:00:00	0.3129	15.130	216.5	0.837459087	1.112521137	0.022858232	0.235824171	0.072683300
2019-06-25T11:05:00	0.3128	15.172	216.8	0.836916171	1.111613124	0.022829704	0.235529847	0.072592586
2019-06-25T11:10:00	0.3133	15.214	203.1	0.838563792	1.114369554	0.022916341	0.236423670	0.072868071
2019-06-25T11:15:00	0.3119	15.264	217.3	0.834264409	1.107181982	0.022690643	0.234095177	0.072150407
2019-06-25T11:20:00	0.3122	15.306	217.5	0.835286965	1.108889934	0.022744212	0.234647838	0.072320742
2019-06-25T11:25:00	0.3138	15.344	203.8	0.840063896	1.116881343	0.022995378	0.237239078	0.073119388
2019-06-25T11:30:00	0.3118	15.392	204.1	0.833887227	1.106552224	0.022670901	0.233891502	0.072087632
2019-06-25T11:35:00	0.3140	15.441	218.4	0.840855201	1.118207138	0.023037130	0.237669826	0.073252149
2019-06-25T11:40:00	0.3138	15.491	204.6	0.840312759	1.117298240	0.023008505	0.237374501	0.073161127
2019-06-25T11:45:00	0.3133	15.532	218.9	0.838519002	1.114294588	0.022913984	0.236399347	0.072860575
2019-06-25T11:50:00	0.3122	15.589	219.3	0.835159076	1.108676272	0.022737508	0.234578678	0.072299427
2019-06-25T11:55:00	0.3119	15.655	219.7	0.834302650	1.107245839	0.022692645	0.234115832	0.072156773
2019-06-25T12:00:00	0.3126	15.725	220.1	0.836577465	1.111046784	0.022811916	0.235346332	0.072536025
2019-06-25T12:05:00	0.3120	15.796	220.4	0.834468807	1.107523307	0.022701345	0.234205591	0.072184438
2019-06-25T12:10:00	0.3124	15.865	220.9	0.835804401	1.109754558	0.022771345	0.234927768	0.072407020
2019-06-25T12:15:00	0.3119	15.935	221.2	0.834321771	1.107277767	0.022693646	0.234126160	0.072159956
2019-06-25T12:20:00	0.3112	16.002	221.6	0.832211886	1.103756572	0.022583325	0.232988002	0.071809165
2019-06-25T12:25:00	0.3105	16.055	221.9	0.829787299	1.099715166	0.022456912	0.231683825	0.071407205
2019-06-25T12:30:00	0.3121	16.109	222.1	0.834884168	1.108217038	0.022723102	0.234430053	0.072253619
2019-06-25T12:35:00	0.3113	16.166	222.5	0.832461253	1.104172530	0.022596349	0.233122363	0.071850576
2019-06-25T12:40:00	0.3119	16.216	222.8	0.834110767	1.106925439	0.022682600	0.234012199	0.072124833
2019-06-25T12:45:00	0.3116	16.256	223.0	0.833254109	1.105495436	0.022637784	0.233549841	0.071982329
2019-06-25T12:50:00	0.3116	16.288	223.2	0.833337211	1.105634127	0.022642129	0.233594671	0.071996146
2019-06-25T12:55:00	0.3114	16.326	223.4	0.832793717	1.104727188	0.022613718	0.233301563	0.071905807
2019-06-25T13:00:00	0.3131	16.364	223.6	0.837886639	1.113236394	0.022880713	0.236056095	0.072754781
2019-06-25T13:05:00	0.3119	16.399	223.8	0.834212971	1.107096091	0.022687950	0.234067395	0.072141844
2019-06-25T13:10:00	0.3115	16.432	224.0	0.833043047	1.105143216	0.022626749	0.233436002	0.071947243
2019-06-25T13:15:00	0.3138	16.466	224.2	0.840325262	1.117319186	0.023009164	0.237381306	0.073163224
2019-06-25T13:20:00	0.3115	16.496	224.3	0.832895956	1.104897776	0.022619061	0.233356685	0.071922797
2019-06-25T13:25:00	0.3108	16.531	224.5	0.830785295	1.101378022	0.022508899	0.232220159	0.071572508
2019-06-25T13:30:00	0.3088	16.558	224.7	0.824593807	1.091076400	0.022187439	0.228903722	0.070550350
2019-06-25T13:35:00	0.3090	16.572	224.8	0.825305005	1.092257947	0.022224236	0.229283346	0.070667354
2019-06-25T13:40:00	0.3092	16.578	224.8	0.825702187	1.092918005	0.022244800	0.229495504	0.070732743
2019-06-25T13:45:00	0.3082	16.587	224.9	0.822645275	1.087841556	0.022086795	0.227865388	0.070230326
2019-06-25T13:50:00	0.3101	16.601	225.0	0.828692631	1.097892277	0.022399966	0.231096318	0.071226130
2019-06-25T13:55:00	0.3093	16.611	225.1	0.825951973	1.093333187	0.022257738	0.229628985	0.070773883
2019-06-25T14:00:00	0.3087	16.621	225.2	0.824151555	1.090341895	0.022164574	0.228667828	0.070477645
2019-06-25T14:05:00	0.3084	16.626	225.2	0.823292689	1.088915975	0.022120207	0.228210096	0.070336568
2019-06-25T14:10:00	0.3093	16.633	225.3	0.826201744	1.093748398	0.022270680	0.229762499	0.070815034
2019-06-25T14:15:00	0.3080	16.638	225.4	0.821888604	1.086586303	0.022047779	0.227462868	0.070106265
2019-06-25T14:20:00	0.3087	16.643	225.4	0.824170725	1.090373730	0.022165565	0.228678051	0.070480796
2019-06-25T14:25:00	0.3084	16.645	225.4	0.823311864	1.088947803	0.022121197	0.228220310	0.070339716
2019-06-25T14:30:00	0.3068	16.647	225.4	0.818366555	1.080750339	0.021866668	0.225594379	0.069530379
2019-06-25T14:35:00	0.3074	16.645	225.4	0.820022093	1.083492133	0.021951697	0.226471615	0.069800751
2019-06-25T14:40:00	0.3050	16.645	225.5	0.812553628	1.071142987	0.021569535	0.222528915	0.068585573
2019-06-25T14:45:00	0.3057	16.646	225.5	0.814841283	1.074920278	0.021686206	0.223732590	0.068956557
2019-06-25T14:50:00	0.3067	16.643	225.5	0.818071249	1.080261534	0.021851519	0.225438097	0.069482211
2019-06-25T14:55:00	0.3071	16.641	225.5	0.819098097	1.081961564	0.021904218	0.225981779	0.069649779
2019-06-25T15:00:00	0.3070	16.637	225.5	0.818867063	1.081578986	0.021892355	0.225859392	0.069612058
2019-06-25T15:05:00	0.3079	16.626	225.4	0.821779454	1.086405274	0.022042154	0.227404836	0.070088379
2019-06-25T15:10:00	0.3067	16.617	225.4	0.817775921	1.079772770	0.021836376	0.225281863	0.069434058
2019-06-25T15:15:00	0.3076	16.608	225.4	0.820689136	1.084597547	0.021986008	0.226825592	0.069909850
2019-06-25T15:20:00	0.3078	16.599	225.3	0.821401053	1.085777770	0.022022659	0.227203715	0.070026391
2019-06-25T15:25:00	0.3073	16.586	225.3	0.819912890	1.083311202	0.021946083	0.226413693	0.069782899
2019-06-25T15:30:00	0.3081	16.574	225.2	0.822196180	1.087096482	0.022063634	0.227626440	0.070156679
2019-06-25T15:35:00	0.3072	16.555	225.1	0.819450907	1.082545891	0.021922340	0.226168745	0.069707404
2019-06-25T15:40:00	0.3071	16.533	225.0	0.819219894	1.082163273	0.021910473	0.226046314	0.069669669
2019-06-25T15:45:00	0.3067	16.510	224.9	0.818045422	1.080218787	0.021850195	0.225424432	0.069477999
2019-06-25T15:50:00	0.3071	16.487	224.8	0.819072277	1.081918805	0.021902892	0.225968099	0.069645563
2019-06-25T15:55:00	0.3064	16.465	224.7	0.816954047	1.078412997	0.021794262	0.224847387	0.069300148
2019-06-25T16:00:00	0.3081	16.443	224.6	0.822382037	1.087404807	0.022073217	0.227725311	0.070187153
2019-06-25T16:05:00	0.3087	16.422	224.5	0.824088743	1.090237589	0.022161328	0.228634335	0.070467323
2019-06-25T16:10:00	0.3081	16.404	224.5	0.822340368	1.087335679	0.022071068	0.227703143	0.070180320
2019-06-25T16:15:00	0.3070	16.382	224.4	0.819019318	1.081831106	0.021900173	0.225940043	0.069636916
2019-06-25T16:20:00	0.3090	16.362	224.3	0.825125226	1.091959229	0.022214931	0.229187351	0.070637767
2019-06-25T16:25:00	0.3076	16.342	224.1	0.820863817	1.084887092	0.021994998	0.226918339	0.069938436
2019-06-25T16:30:00	0.3073	16.323	224.1	0.819742795	1.083029404	0.021937340	0.226323490	0.069755098
2019-06-25T16:35:00	0.3076	16.309	224.0	0.820822132	1.084817994	0.021992852	0.226896204	0.069931614
2019-06-25T16:40:00	0.3058	16.296	223.9	0.814982432	1.075153492	0.021693416	0.223806973	0.068979483
2019-06-25T16:45:00	0.3056	16.282	223.9	0.814489370	1.074338904	0.021668236	0.223547197	0.068899417
2019-06-25T16:50:00	0.3072	16.268	223.8	0.819659401	1.082891253	0.021933054	0.226279273	0.069741469
2019-06-25T16:55:00	0.3056	16.255	223.7	0.814447616	1.074269933	0.021666104	0.223525206	0.068892639
2019-06-25T17:00:00	0.3058	16.241	223.7	0.815213699	1.075535644	0.021705232	0.223928875	0.069017054
2019-06-25T17:05:00	0.3058	16.225	223.6	0.815035446	1.075241090	0.021696124	0.223834914	0.068988094
2019-06-25T17:10:00	0.3041	16.210	223.6	0.809817389	1.066631218	0.021430436	0.221093853	0.068143273
2019-06-25T17:15:00	0.3036	16.194	223.5	0.808062519	1.063741180	0.021341483	0.220176143	0.067860426
2019-06-25T17:20:00	0.3033	16.177	223.5	0.807253177	1.062409237	0.021300526	0.219753597	0.067730193
2019-06-25T17:25:00	0.3030	16.162	223.4	0.806128179	1.060558797	0.021243666	0.219166984	0.067549393
2019-06-25T17:30:00	0.3038	16.145	223.3	0.808788060	1.064935713	0.021378235	0.220555313	0.067977290
2019-06-25T17:35:00	0.3036	16.130	223.2	0.808294203	1.064122573	0.021353215	0.220297183	0.067897731
2019-06-25T17:40:00	0.3030	16.113	223.1	0.806223160	1.060714980	0.021248463	0.219216477	0.067564647
2019-06-25T17:45:00	0.3037	16.095	223.0	0.808567691	1.064572847	0.021367069	0.220440110	0.067941783
2019-06-25T17:50:00	0.3024	16.079	223.0	0.804287891	1.057534279	0.021150832	0.218209231	0.067254204
2019-06-25T17:55:00	0.3027	16.062	222.9	0.805371576	1.059314948	0.021205472	0.218772944	0.067427946
2019-06-25T18:00:00	0.3024	16.043	222.8	0.804246026	1.057465509	0.021148722	0.218187470	0.067247497
2019-06-25T18:05:00	0.3050	16.027	222.7	0.812580812	1.071187844	0.021570919	0.222543197	0.068589975
2019-06-25T18:10:00	0.3035	16.010	222.6	0.807990157	1.063622070	0.021337819	0.220138346	0.067848776
2019-06-25T18:15:00	0.3040	15.993	222.5	0.809388039	1.065923878	0.021408654	0.220869132	0.068074012
2019-06-25T18:20:00	0.3037	15.977	222.4	0.808578976	1.064591428	0.021367641	0.220446009	0.067943601
2019-06-25T18:25:00	0.3032	15.962	222.3	0.806823539	1.061702418	0.021278801	0.219529468	0.067661114
2019-06-25T18:30:00	0.3039	15.947	222.2	0.809167704	1.065560949	0.021397480	0.220753858	0.068038483
2019-06-25T18:35:00	0.3025	15.933	222.2	0.804572962	1.058002593	0.021165198	0.218357443	0.067299885
2019-06-25T18:40:00	0.3035	15.919	222.1	0.807864682	1.063415543	0.021331467	0.220072814	0.067828579
2019-06-25T18:45:00	0.3042	15.906	222.0	0.810208211	1.067275229	0.021450273	0.221298516	0.068206352
2019-06-25T18:50:00	0.3053	15.892	222.0	0.813495103	1.072696943	0.021617509	0.223023854	0.068738118
2019-06-25T18:55:00	0.3053	15.881	221.9	0.813631665	1.072922412	0.021624472	0.223095695	0.068760260
2019-06-25T19:00:00	0.3050	15.870	221.9	0.812508535	1.071068579	0.021567239	0.222505224	0.068578271
2019-06-25T19:05:00	0.3064	15.858	221.8	0.817052074	1.078575149	0.021799283	0.224899184	0.069316113
2019-06-25T19:10:00	0.3065	15.847	221.7	0.817188509	1.078800848	0.021806272	0.224971287	0.069338335
2019-06-25T19:15:00	0.3081	15.835	221.7	0.822354922	1.087359824	0.022071819	0.227710885	0.070182706
2019-06-25T19:20:00	0.3085	15.823	221.6	0.823433528	1.089149756	0.022127479	0.228285122	0.070359692
2019-06-25T19:25:00	0.3072	15.811	221.5	0.819484665	1.082601808	0.021924075	0.226186639	0.069712919
2019-06-25T19:30:00	0.3080	15.797	221.4	0.822135329	1.086995541	0.022060496	0.227594073	0.070146704
2019-06-25T19:35:00	0.3109	15.784	221.4	0.831058506	1.101833402	0.022523142	0.232367104	0.071617798
2019-06-25T19:40:00	0.3100	15.771	221.3	0.828372356	1.097359147	0.022383320	0.230924581	0.071173199
2019-06-25T19:45:00	0.3096	15.758	221.2	0.826939728	1.094975533	0.022308941	0.230157235	0.070936695
2019-06-25T19:50:00	0.3110	15.747	221.1	0.831466316	1.102513254	0.022544411	0.232586536	0.071685429
2019-06-25T19:55:00	0.3109	15.736	221.1	0.830975355	1.101694802	0.022518807	0.232322376	0.071604013
2019-06-25T20:00:00	0.3120	15.724	220.9	0.834557807	1.107671940	0.022706006	0.234253676	0.072199258
2019-06-25T20:05:00	0.3100	15.712	220.9	0.828425186	1.097447082	0.022386065	0.230952905	0.071181928
2019-06-25T20:10:00	0.3112	15.700	220.8	0.832009996	1.103419848	0.022572784	0.232879253	0.071775648
2019-06-25T20:15:00	0.3113	15.687	220.8	0.832459266	1.104169215	0.022596245	0.233121292	0.071850246
2019-06-25T20:20:00	0.3120	15.674	220.7	0.834474731	1.107533200	0.022701655	0.234208791	0.072185424
2019-06-25T20:25:00	0.3110	15.662	220.6	0.831477534	1.102531958	0.022544997	0.232592574	0.071687290
2019-06-25T20:30:00	0.3108	15.649	220.5	0.830673094	1.101191027	0.022503051	0.232159827	0.071553913
2019-06-25T20:35:00	0.3098	15.636	220.4	0.827672952	1.096195242	0.022346991	0.230549791	0.071057685
2019-06-25T20:40:00	0.3105	15.623	220.4	0.830004470	1.100076938	0.022468219	0.231800477	0.071443158
2019-06-25T20:45:00	0.3116	15.610	220.3	0.833274548	1.105529546	0.022638852	0.233560866	0.071985727
2019-06-25T20:50:00	0.3107	15.597	220.3	0.830589935	1.101052442	0.022498717	0.232115117	0.071540133
2019-06-25T20:55:00	0.3110	15.584	220.0	0.831352821	1.102324034	0.022538491	0.232525456	0.071666604
2019-06-25T21:00:00	0.3114	15.572	219.9	0.832742260	1.104641333	0.022611029	0.233273822	0.071897257
2019-06-25T21:05:00	0.3104	15.559	220.0	0.829430140	1.099120289	0.022438324	0.231492049	0.071348098
2019-06-25T21:10:00	0.3104	15.546	219.8	0.829566138	1.099346792	0.022445401	0.231565063	0.071370601
2019-06-25T21:15:00	0.3101	15.533	219.7	0.828761301	1.098006597	0.022403536	0.231133150	0.071237481
2019-06-25T21:20:00	0.3128	15.519	219.7	0.837043328	1.111825767	0.022836384	0.235598763	0.072613827
2019-06-25T21:25:00	0.3116	15.506	219.6	0.833421624	1.105775013	0.022646543	0.233640213	0.072010183
2019-06-25T21:30:00	0.3087	15.492	219.5	0.824148247	1.090336402	0.022164403	0.228666064	0.070477102
2019-06-25T21:35:00	0.3105	15.479	219.4	0.829932519	1.099957074	0.022464473	0.231761826	0.071431246
2019-06-25T21:40:00	0.3102	15.467	219.3	0.828814126	1.098094542	0.022406282	0.231161484	0.071246215
2019-06-25T21:45:00	0.3108	15.456	219.6	0.830831488	1.101455011	0.022511307	0.232245000	0.071580165
2019-06-25T21:50:00	0.3101	15.444	205.1	0.828458866	1.097503143	0.022387815	0.230970963	0.071187494
2019-06-25T21:55:00	0.3097	15.434	219.1	0.827340047	1.095641399	0.022329711	0.230371514	0.071002738
2019-06-25T22:00:00	0.3091	15.423	219.0	0.825593144	1.092736778	0.022239154	0.229437248	0.070714788
2019-06-25T22:05:00	0.3099	15.413	204.9	0.828103574	1.096911804	0.022369355	0.230780510	0.071128794
2019-06-25T22:10:00	0.3086	15.402	218.9	0.824023297	1.090128915	0.022157946	0.228599441	0.070456568
2019-06-25T22:15:00	0.3098	15.392	218.8	0.827789859	1.096389762	0.022353062	0.230612415	0.071076986
2019-06-25T22:20:00	0.3093	15.381	218.7	0.826220905	1.093780253	0.022271673	0.229772743	0.070818191
2019-06-25T22:25:00	0.3093	15.369	218.7	0.826220905	1.093780253	0.022271673	0.229772743	0.070818191
2019-06-25T22:30:00	0.3091	15.359	204.6	0.825593144	1.092736778	0.022239154	0.229437248	0.070714788
2019-06-25T22:35:00	0.3101	15.347	218.5	0.828730927	1.097956031	0.022401957	0.231116858	0.071232460
2019-06-25T22:40:00	0.3085	15.336	204.4	0.823709251	1.089607483	0.022141720	0.228432040	0.070404973
2019-06-25T22:45:00	0.3104	15.325	218.4	0.829671766	1.099522724	0.022450898	0.231621780	0.071388082
2019-06-25T22:50:00	0.3088	15.314	204.3	0.824651313	1.091171919	0.022190413	0.228934404	0.070559807
2019-06-25T22:55:00	0.3095	15.305	204.3	0.826848563	1.094823915	0.022304213	0.230108452	0.070921660
2019-06-25T23:00:00	0.3094	15.294	218.1	0.826534747	1.094302060	0.022287940	0.229940571	0.070869917
2019-06-25T23:05:00	0.3095	15.285	218.1	0.826848563	1.094823915	0.022304213	0.230108452	0.070921660
2019-06-25T23:10:00	0.3106	15.275	204.1	0.830298864	1.100567421	0.022483552	0.231958661	0.071491912
2019-06-25T23:15:00	0.3115	15.264	218.0	0.833119553	1.105270884	0.022630749	0.233477263	0.071959960
2019-06-25T23:20:00	0.3106	15.254	217.9	0.830298864	1.100567421	0.022483552	0.231958661	0.071491912
2019-06-25T23:25:00	0.3120	15.243	217.8	0.834685716	1.107885565	0.022712705	0.234322794	0.072220561
2019-06-25T23:30:00	0.3090	15.233	217.8	0.825279226	1.092215111	0.022222902	0.229269580	0.070663111
2019-06-25T23:35:00	0.3093	15.222	203.7	0.826220905	1.093780253	0.022271673	0.229772743	0.070818191
2019-06-25T23:40:00	0.3097	15.211	203.7	0.827476119	1.095867766	0.022336773	0.230444374	0.071025194
2019-06-25T23:45:00	0.3119	15.199	217.6	0.834372534	1.107362535	0.022696304	0.234153581	0.072168408
2019-06-25T23:50:00	0.3106	15.188	217.4	0.830298864	1.100567421	0.022483552	0.231958661	0.071491912
2019-06-25T23:55:00	0.3096	15.176	217.4	0.827162354	1.095345817	0.022320491	0.230276387	0.070973419
2019-06-26T00:00:00	0.3109	15.165	217.4	0.831239322	1.102134819	0.022532571	0.232464383	0.071647780
2019-06-26T00:05:00	0.3112	15.152	217.3	0.832179552	1.103702640	0.022581637	0.232970583	0.071803796
2019-06-26T00:10:00	0.3117	15.141	217.3	0.833746094	1.106316616	0.022663516	0.233815316	0.072064151
2019-06-26T00:15:00	0.3117	15.129	217.2	0.833746094	1.106316616	0.022663516	0.233815316	0.072064151
2019-06-26T00:20:00	0.3113	15.117	217.0	0.832492911	1.104225341	0.022598002	0.233139423	0.071855834
2019-06-26T00:25:00	0.3125	15.107	217.0	0.836251246	1.110501422	0.022794791	0.235169655	0.072481572
2019-06-26T00:30:00	0.3099	15.096	217.0	0.828103574	1.096911804	0.022369355	0.230780510	0.071128794
2019-06-26T00:35:00	0.3132	15.085	216.9	0.838441929	1.114165595	0.022909927	0.236357496	0.072847676
2019-06-26T00:40:00	0.3119	15.073	216.8	0.834372534	1.107362535	0.022696304	0.234153581	0.072168408
2019-06-26T00:45:00	0.3117	15.061	216.8	0.833746094	1.106316616	0.022663516	0.233815316	0.072064151
2019-06-26T00:50:00	0.3122	15.051	216.6	0.835312004	1.108931767	0.022745524	0.234661379	0.072324916
2019-06-26T00:55:00	0.3118	15.041	216.6	0.834059326	1.106839552	0.022679907	0.233984422	0.072116271
2019-06-26T01:00:00	0.3103	15.032	216.6	0.829358178	1.099000446	0.022434579	0.231453420	0.071336192
2019-06-26T01:05:00	0.3111	15.023	216.5	0.831866167	1.103179986	0.022565276	0.232801796	0.071751775
2019-06-26T01:10:00	0.3123	15.015	216.4	0.835625110	1.109454938	0.022761941	0.234830751	0.072377118
2019-06-26T01:15:00	0.3113	15.007	216.3	0.832492911	1.104225341	0.022598002	0.233139423	0.071855834
2019-06-26T01:20:00	0.3119	14.998	216.3	0.834372534	1.107362535	0.022696304	0.234153581	0.072168408
2019-06-26T01:25:00	0.3130	14.990	216.2	0.837816145	1.113118453	0.022877005	0.236017847	0.072742993
2019-06-26T01:30:00	0.3113	14.982	216.2	0.832492911	1.104225341	0.022598002	0.233139423	0.071855834
2019-06-26T01:35:00	0.3128	14.974	216.1	0.837190261	1.112071500	0.022844104	0.235678411	0.072638375
2019-06-26T01:40:00	0.3129	14.965	216.0	0.837503216	1.112594953	0.022860552	0.235848103	0.072690676
2019-06-26T01:45:00	0.3111	14.958	216.0	0.831866167	1.103179986	0.022565276	0.232801796	0.071751775
2019-06-26T01:50:00	0.3106	14.948	215.9	0.830298864	1.100567421	0.022483552	0.231958661	0.071491912
2019-06-26T01:55:00	0.3118	14.942	215.8	0.834059326	1.106839552	0.022679907	0.233984422	0.072116271
2019-06-26T02:00:00	0.3127	14.934	215.8	0.836877282	1.111548093	0.022827661	0.235508773	0.072586091
2019-06-26T02:05:00	0.3116	14.926	202.0	0.833432836	1.105793726	0.022647130	0.233646263	0.072012047
2019-06-26T02:10:00	0.3103	14.920	215.7	0.829358178	1.099000446	0.022434579	0.231453420	0.071336192
2019-06-26T02:15:00	0.3117	14.915	215.8	0.833746094	1.106316616	0.022663516	0.233815316	0.072064151
2019-06-26T02:20:00	0.3107	14.908	216.0	0.830612376	1.101089840	0.022499887	0.232127182	0.071543852
2019-06-26T02:25:00	0.3115	14.903	202.1	0.833119553	1.105270884	0.022630749	0.233477263	0.071959960
2019-06-26T02:30:00	0.3107	14.898	215.7	0.830612376	1.101089840	0.022499887	0.232127182	0.071543852
2019-06-26T02:35:00	0.3100	14.893	215.9	0.828417263	1.097433894	0.022385653	0.230948657	0.071180619
2019-06-26T02:40:00	0.3108	14.887	215.7	0.830925862	1.101612306	0.022516226	0.232295756	0.071595808
2019-06-26T02:45:00	0.3106	14.882	215.6	0.830298864	1.100567421	0.022483552	0.231958661	0.071491912
2019-06-26T02:50:00	0.3101	14.875	215.7	0.828730927	1.097956031	0.022401957	0.231116858	0.071232460
2019-06-26T02:55:00	0.3099	14.870	215.6	0.828103574	1.096911804	0.022369355	0.230780510	0.071128794
2019-06-26T03:00:00	0.3098	14.864	201.8	0.827789859	1.096389762	0.022353062	0.230612415	0.071076986
2019-06-26T03:05:00	0.3095	14.859	215.3	0.826848563	1.094823915	0.022304213	0.230108452	0.070921660
2019-06-26T03:10:00	0.3089	14.853	215.6	0.824965282	1.091693492	0.022206655	0.229101965	0.070611451
2019-06-26T03:15:00	0.3099	14.849	215.6	0.828103574	1.096911804	0.022369355	0.230780510	0.071128794
2019-06-26T03:20:00	0.3073	14.844	215.5	0.819938705	1.083353971	0.021947410	0.226427385	0.069787119
2019-06-26T03:25:00	0.3102	14.839	215.5	0.829044565	1.098478215	0.022418265	0.231285112	0.071284318
2019-06-26T03:30:00	0.3086	14.832	201.6	0.824023297	1.090128915	0.022157946	0.228599441	0.070456568
2019-06-26T03:35:00	0.3096	14.826	215.4	0.827162354	1.095345817	0.022320491	0.230276387	0.070973419
2019-06-26T03:40:00	0.3092	14.819	215.3	0.825907037	1.093258492	0.022255411	0.229604969	0.070766481
2019-06-26T03:45:00	0.3093	14.811	215.2	0.826220905	1.093780253	0.022271673	0.229772743	0.070818191
2019-06-26T03:50:00	0.3097	14.805	201.3	0.827476119	1.095867766	0.022336773	0.230444374	0.071025194
2019-06-26T03:55:00	0.3105	14.797	215.1	0.829985328	1.100045049	0.022467223	0.231790194	0.071439989
2019-06-26T04:00:00	0.3098	14.790	215.1	0.827789859	1.096389762	0.022353062	0.230612415	0.071076986
2019-06-26T04:05:00	0.3102	14.782	215.0	0.828775333	1.098029959	0.022404265	0.231140676	0.071239801
2019-06-26T04:10:00	0.3092	14.777	214.9	0.825682028	1.092884501	0.022243756	0.229484734	0.070729424
2019-06-26T04:15:00	0.3091	14.771	214.9	0.825412562	1.092436677	0.022229804	0.229340788	0.070685058
2019-06-26T04:20:00	0.3104	14.766	214.8	0.829535771	1.099296214	0.022443820	0.231548758	0.071365576
2019-06-26T04:25:00	0.3095	14.761	214.7	0.826756898	1.094671474	0.022299459	0.230059408	0.070906544
2019-06-26T04:30:00	0.3086	14.756	214.8	0.823976027	1.090050422	0.022155503	0.228574240	0.070448801
2019-06-26T04:35:00	0.3104	14.750	214.7	0.829668960	1.099518050	0.022450752	0.231620274	0.071387618
2019-06-26T04:40:00	0.3098	14.745	214.8	0.827517733	1.095936996	0.022338933	0.230466659	0.071032063
2019-06-26T04:45:00	0.3105	14.741	214.6	0.829757750	1.099665946	0.022455374	0.231667956	0.071402314
2019-06-26T04:50:00	0.3107	14.735	214.6	0.830429222	1.100784631	0.022490343	0.232028724	0.071513506
2019-06-26T04:55:00	0.3113	14.730	214.5	0.832354211	1.103993971	0.022590758	0.233064683	0.071832799
2019-06-26T05:00:00	0.3106	14.726	214.5	0.830204476	1.100410154	0.022478635	0.231907938	0.071476279
2019-06-26T05:05:00	0.3102	14.722	214.4	0.828994550	1.098394937	0.022415664	0.231258276	0.071276047
2019-06-26T05:10:00	0.3105	14.718	214.4	0.829979717	1.100035701	0.022466930	0.231787180	0.071439060
2019-06-26T05:15:00	0.3110	14.712	214.5	0.831278090	1.102199448	0.022534593	0.232485243	0.071654210
2019-06-26T05:20:00	0.3097	14.709	214.6	0.827245587	1.095484266	0.022324809	0.230320942	0.070987151
2019-06-26T05:25:00	0.3114	14.708	214.4	0.832620391	1.104438011	0.022604662	0.233208129	0.071877010
2019-06-26T05:30:00	0.3113	14.706	214.3	0.832351407	1.103989294	0.022590611	0.233063172	0.071832333
2019-06-26T05:35:00	0.3103	14.704	214.3	0.829260961	1.098838549	0.022429521	0.231401238	0.071320109
2019-06-26T05:40:00	0.3114	14.704	214.3	0.832753474	1.104660044	0.022611615	0.233279867	0.071899121
2019-06-26T05:45:00	0.3116	14.704	214.2	0.833424427	1.105779691	0.022646690	0.233641725	0.072010649
2019-06-26T05:50:00	0.3125	14.706	214.2	0.835974110	1.110038191	0.022780248	0.235019619	0.072435329
2019-06-26T05:55:00	0.3136	14.707	214.3	0.839460586	1.115870909	0.022963573	0.236910954	0.073018257
2019-06-26T06:00:00	0.3114	14.710	214.2	0.832617587	1.104433333	0.022604515	0.233206618	0.071876545
2019-06-26T06:05:00	0.3114	14.715	214.3	0.832661949	1.104507343	0.022606833	0.233230530	0.071883914
2019-06-26T06:10:00	0.3130	14.720	214.3	0.837716340	1.112951478	0.022871757	0.235963702	0.072726304
2019-06-26T06:15:00	0.3136	14.726	214.2	0.839637717	1.116167536	0.022972909	0.237007265	0.073047941
2019-06-26T06:20:00	0.3139	14.734	214.4	0.840620185	1.117813320	0.023024726	0.237541850	0.073212705
2019-06-26T06:25:00	0.3143	14.740	214.3	0.841915004	1.119983684	0.023093114	0.238247402	0.073430163
2019-06-26T06:30:00	0.3134	14.749	214.5	0.838832168	1.114818775	0.022930471	0.236569438	0.072912998
2019-06-26T06:35:00	0.3118	14.759	214.3	0.833867927	1.106520004	0.022669891	0.233881082	0.072084421
2019-06-26T06:40:00	0.3136	14.771	214.5	0.839546354	1.116014534	0.022968093	0.236957586	0.073032629
2019-06-26T06:45:00	0.3144	14.779	200.9	0.842092023	1.120280521	0.023102472	0.238343950	0.073459920
2019-06-26T06:50:00	0.3163	14.791	214.6	0.848070568	1.130322513	0.023419755	0.241617295	0.074468797
2019-06-26T06:55:00	0.3152	14.802	214.6	0.844680252	1.124623889	0.023239539	0.239758039	0.073895756
2019-06-26T07:00:00	0.3143	14.810	214.6	0.841912207	1.119978994	0.023092966	0.238245877	0.073429693
2019-06-26T07:05:00	0.3145	14.822	214.7	0.842269034	1.120577372	0.023111832	0.238440514	0.073489682
2019-06-26T07:10:00	0.3134	14.858	214.9	0.838873660	1.114888232	0.022932655	0.236591978	0.072919945
2019-06-26T07:15:00	0.3147	14.890	215.0	0.842982589	1.121774311	0.023149585	0.238829996	0.073609724
2019-06-26T07:20:00	0.3162	14.912	215.1	0.847711480	1.129718441	0.023400631	0.241419997	0.074407988
2019-06-26T07:25:00	0.3151	14.930	215.2	0.844320851	1.124020405	0.023220479	0.239561404	0.073835151
2019-06-26T07:30:00	0.3169	14.955	215.4	0.849984053	1.133543438	0.023521806	0.242670135	0.074793292
2019-06-26T07:35:00	0.3177	14.983	215.4	0.852522915	1.137822216	0.023657586	0.244070952	0.075225038
2019-06-26T07:40:00	0.3178	14.995	215.5	0.852567050	1.137896649	0.023659950	0.244095343	0.075232555
2019-06-26T07:45:00	0.3183	15.029	215.7	0.854169528	1.140600428	0.023745877	0.244981840	0.075505782
2019-06-26T07:50:00	0.3191	15.060	215.8	0.856705674	1.144884345	0.023882220	0.246388457	0.075939315
2019-06-26T07:55:00	0.3164	15.087	215.9	0.848332882	1.130763862	0.023433730	0.241761477	0.074513235
2019-06-26T08:00:00	0.3189	15.096	216.1	0.856171005	1.143980721	0.023853440	0.246091546	0.075847805
2019-06-26T08:05:00	0.3190	15.127	216.4	0.856526530	1.144581552	0.023872575	0.246288954	0.075908647
2019-06-26T08:10:00	0.3202	15.162	202.5	0.860305822	1.150975640	0.024076500	0.248392809	0.076557076
2019-06-26T08:15:00	0.3209	15.199	216.5	0.862216115	1.154212604	0.024179940	0.249459979	0.076885988
2019-06-26T08:20:00	0.3200	15.232	216.7	0.859460471	1.149544274	0.024030803	0.247921364	0.076411772
2019-06-26T08:25:00	0.3193	15.266	216.9	0.857325648	1.145932466	0.023915614	0.246732985	0.076045502
2019-06-26T08:30:00	0.3193	15.316	203.2	0.857369729	1.146007003	0.023917990	0.246757492	0.076053055
2019-06-26T08:35:00	0.3195	15.358	217.3	0.858036456	1.147134586	0.023953934	0.247128318	0.076167348
2019-06-26T08:40:00	0.3210	15.406	203.5	0.862747178	1.155113077	0.024208739	0.249757101	0.076977564
2019-06-26T08:45:00	0.3200	15.437	217.7	0.859680751	1.149917195	0.024042706	0.248044165	0.076449621
2019-06-26T08:50:00	0.3197	15.483	218.1	0.858479950	1.147884857	0.023977859	0.247375153	0.076243425
2019-06-26T08:55:00	0.3205	15.541	218.2	0.861013307	1.152174072	0.024114781	0.248787746	0.076678800
2019-06-26T09:00:00	0.3190	15.601	218.6	0.856388684	1.144348580	0.023865155	0.246212403	0.075885054
2019-06-26T09:05:00	0.3210	15.645	218.7	0.862656354	1.154959057	0.024203813	0.249706272	0.076961898
2019-06-26T09:10:00	0.3203	15.692	219.3	0.860523271	1.151343936	0.024088262	0.248514158	0.076594477
2019-06-26T09:15:00	0.3202	15.750	219.4	0.860256206	1.150891612	0.024073816	0.248365125	0.076548544
2019-06-26T09:20:00	0.3199	15.815	219.6	0.859366786	1.149385686	0.024025742	0.247869147	0.076395678
2019-06-26T09:25:00	0.3200	15.857	219.9	0.859410844	1.149460266	0.024028122	0.247893703	0.076403247
2019-06-26T09:30:00	0.3205	15.887	220.1	0.861010523	1.152169357	0.024114630	0.248786192	0.076678320
2019-06-26T09:35:00	0.3202	15.923	220.3	0.860121275	1.150663105	0.024066520	0.248289847	0.076525342
2019-06-26T09:40:00	0.3193	15.955	220.5	0.857364157	1.145997581	0.023917690	0.246754394	0.076052101
2019-06-26T09:45:00	0.3189	16.002	220.8	0.856162645	1.143966594	0.023852990	0.246086905	0.075846374
2019-06-26T09:50:00	0.3169	16.044	221.0	0.849972888	1.133524635	0.023521210	0.242663984	0.074791397
2019-06-26T09:55:00	0.3145	16.076	221.5	0.842523349	1.121003914	0.023125284	0.238579288	0.073532454
2019-06-26T10:00:00	0.3161	16.111	221.4	0.847252797	1.128946998	0.023376215	0.241168106	0.074330352
2019-06-26T10:05:00	0.3177	16.158	221.6	0.852370980	1.137565992	0.023649448	0.243986997	0.075199162
2019-06-26T10:10:00	0.3168	16.188	221.8	0.849691145	1.133050176	0.023506169	0.242508808	0.074743570
2019-06-26T10:15:00	0.3189	16.220	222.0	0.856052160	1.143779902	0.023847046	0.246025576	0.075827472
2019-06-26T10:20:00	0.3180	16.255	222.0	0.853374849	1.139259313	0.023703244	0.244541999	0.075370219
2019-06-26T10:25:00	0.3198	16.296	222.5	0.858796277	1.148420108	0.023994932	0.247551295	0.076297713
2019-06-26T10:30:00	0.3177	16.332	222.6	0.852381644	1.137583974	0.023650019	0.243992889	0.075200978
2019-06-26T10:35:00	0.3173	16.361	223.2	0.851261319	1.135695294	0.023590061	0.243374313	0.075010327
2019-06-26T10:40:00	0.3174	16.389	223.2	0.851388186	1.135909113	0.023596847	0.243444318	0.075031903
2019-06-26T10:45:00	0.3167	16.410	223.5	0.849331711	1.132444990	0.023486987	0.242310920	0.074682579
2019-06-26T10:50:00	0.3167	16.438	223.4	0.849146646	1.132133437	0.023477115	0.242209066	0.074651186
2019-06-26T10:55:00	0.3157	16.467	223.5	0.846152360	1.127096997	0.023317697	0.240564378	0.074144278
2019-06-26T11:00:00	0.3138	16.512	224.0	0.840342369	1.117347847	0.023010067	0.237390617	0.073166094
2019-06-26T11:05:00	0.3138	16.558	224.0	0.840156876	1.117037097	0.023000282	0.237289670	0.073134981
2019-06-26T11:10:00	0.3134	16.602	224.2	0.839033031	1.115155032	0.022941048	0.236678568	0.072946633
2019-06-26T11:15:00	0.3133	16.644	224.5	0.838534629	1.114320743	0.022914806	0.236407833	0.072863190
2019-06-26T11:20:00	0.3128	16.689	225.0	0.837097352	1.111916115	0.022839222	0.235628046	0.072622852
2019-06-26T11:25:00	0.3131	16.739	224.9	0.838163461	1.113699583	0.022895274	0.236206323	0.072801083
2019-06-26T11:30:00	0.3107	16.778	225.2	0.830460896	1.100837411	0.022491993	0.232045750	0.071518754
2019-06-26T11:35:00	0.3118	16.829	225.6	0.834035415	1.106799630	0.022678656	0.233971510	0.072112292
2019-06-26T11:40:00	0.3102	16.881	225.9	0.828834588	1.098128609	0.022407346	0.231172461	0.071249597
2019-06-26T11:45:00	0.3110	16.927	226.1	0.831470434	1.102520120	0.022544626	0.232588753	0.071686112
2019-06-26T11:50:00	0.3105	16.978	226.4	0.829716978	1.099598032	0.022453252	0.231646060	0.071395565
2019-06-26T11:55:00	0.3106	17.030	226.6	0.830158097	1.100332883	0.022476220	0.231883017	0.071468598
2019-06-26T12:00:00	0.3116	17.075	226.9	0.833419637	1.105771696	0.022646439	0.233639141	0.072009852
2019-06-26T12:05:00	0.3114	17.135	227.3	0.832607189	1.104415986	0.022603972	0.233201014	0.071874817
2019-06-26T12:10:00	0.3093	17.188	227.6	0.826149203	1.093661051	0.022267957	0.229734410	0.070806376
2019-06-26T12:15:00	0.3099	17.248	228.0	0.827845825	1.096482885	0.022355968	0.230642398	0.071086227
2019-06-26T12:20:00	0.3101	17.298	228.5	0.828600832	1.097739459	0.022395194	0.231047087	0.071210956
2019-06-26T12:25:00	0.3087	17.352	228.4	0.824334828	1.090646259	0.022174048	0.228765568	0.070507770
2019-06-26T12:30:00	0.3085	17.411	228.9	0.823520470	1.089294080	0.022131969	0.228331443	0.070373968
2019-06-26T12:35:00	0.3109	17.468	229.3	0.831178436	1.102033319	0.022529396	0.232431623	0.071637684
2019-06-26T12:40:00	0.3081	17.520	229.6	0.822205432	1.087111830	0.022064111	0.227631361	0.070158196
2019-06-26T12:45:00	0.3087	17.574	229.8	0.824217816	1.090451932	0.022167999	0.228703163	0.070488536
2019-06-26T12:50:00	0.3092	17.620	230.1	0.825915285	1.093272202	0.022255838	0.229609377	0.070767840
2019-06-26T12:55:00	0.3089	17.672	230.5	0.824787302	1.091397816	0.022197447	0.229006971	0.070582173
2019-06-26T13:00:00	0.3087	17.720	230.5	0.824287063	1.090566932	0.022171579	0.228740093	0.070499918
2019-06-26T13:05:00	0.3079	17.775	231.0	0.821587767	1.086087382	0.022032277	0.227302942	0.070056974
2019-06-26T13:10:00	0.3078	17.820	231.1	0.821401373	1.085778301	0.022022676	0.227203885	0.070026444
2019-06-26T13:15:00	0.3100	17.864	231.7	0.828436235	1.097465473	0.022386639	0.230958829	0.071183754
2019-06-26T13:20:00	0.3090	17.902	231.7	0.825111999	1.091937251	0.022214247	0.229180289	0.070635591
2019-06-26T13:25:00	0.3089	17.946	232.0	0.824925775	1.091627857	0.022204611	0.229080877	0.070604951
2019-06-26T13:30:00	0.3095	17.986	232.1	0.826622933	1.094448700	0.022292512	0.229987741	0.070884456
2019-06-26T13:35:00	0.3100	18.021	232.4	0.828319347	1.097270917	0.022380565	0.230896164	0.071164440
2019-06-26T13:40:00	0.3084	18.041	232.5	0.823424920	1.089135465	0.022127034	0.228280536	0.070358278
2019-06-26T13:45:00	0.3078	18.051	232.6	0.821353572	1.085699041	0.022020214	0.227178485	0.070018616
2019-06-26T13:50:00	0.3088	18.064	232.9	0.824622542	1.091124130	0.022188925	0.228919053	0.070555075
2019-06-26T13:55:00	0.3088	18.066	233.1	0.824436295	1.090814779	0.022179294	0.228819691	0.070524451
2019-06-26T14:00:00	0.3071	18.068	232.9	0.819222529	1.082167638	0.021910609	0.226047710	0.069670100
2019-06-26T14:05:00	0.3086	18.062	233.0	0.823749731	1.089674690	0.022143811	0.228453614	0.070411623
2019-06-26T14:10:00	0.3052	18.052	233.1	0.813185156	1.072185270	0.021601709	0.222860847	0.068687877
2019-06-26T14:15:00	0.3078	18.033	232.9	0.821492169	1.085928856	0.022027352	0.227252134	0.070041315
2019-06-26T14:20:00	0.3081	18.015	232.9	0.822248418	1.087183140	0.022066327	0.227654227	0.070165244
2019-06-26T14:25:00	0.3049	18.007	232.8	0.812309750	1.070740583	0.021557117	0.222400804	0.068546088
2019-06-26T14:30:00	0.3072	17.994	232.7	0.819361203	1.082397312	0.021917732	0.226121200	0.069692750
2019-06-26T14:35:00	0.3071	17.977	232.5	0.819174701	1.082088428	0.021908152	0.226022367	0.069662289
2019-06-26T14:40:00	0.3069	17.962	232.7	0.818673735	1.081258882	0.021882431	0.225757007	0.069580502
2019-06-26T14:45:00	0.3056	17.951	232.7	0.814396733	1.074185884	0.021663507	0.223498408	0.068884380
2019-06-26T14:50:00	0.3052	17.934	232.6	0.813265374	1.072317688	0.021605797	0.222903029	0.068700878
2019-06-26T14:55:00	0.3054	17.929	232.3	0.813708378	1.073049077	0.021628385	0.223136058	0.068772700
2019-06-26T15:00:00	0.3047	17.923	232.5	0.811631797	1.069622231	0.021522618	0.222044882	0.068436389
2019-06-26T15:05:00	0.3067	17.913	232.6	0.818055504	1.080235473	0.021850712	0.225429766	0.069479643
2019-06-26T15:10:00	0.3037	17.904	232.5	0.808421307	1.064331830	0.021359653	0.220363602	0.067918202
2019-06-26T15:15:00	0.3053	17.895	232.8	0.813591043	1.072855342	0.021622401	0.223074324	0.068753673
2019-06-26T15:20:00	0.3038	17.882	232.1	0.808677859	1.064754248	0.021372651	0.220497699	0.067959532
2019-06-26T15:25:00	0.3043	17.868	232.2	0.810382190	1.067561962	0.021459108	0.221389658	0.068234443
2019-06-26T15:30:00	0.3042	17.859	232.3	0.810195253	1.067253874	0.021449615	0.221291729	0.068204260
2019-06-26T15:35:00	0.3039	17.851	232.3	0.809062656	1.065387932	0.021392154	0.220698910	0.068021548
2019-06-26T15:40:00	0.3033	17.830	232.1	0.807298974	1.062484590	0.021302842	0.219777495	0.067737558
2019-06-26T15:45:00	0.3040	17.807	232.1	0.809319165	1.065810427	0.021405161	0.220833096	0.068062905
2019-06-26T15:50:00	0.3023	17.779	232.0	0.804084854	1.057200773	0.021140603	0.218103703	0.067221679
2019-06-26T15:55:00	0.3025	17.750	231.9	0.804844535	1.058448802	0.021178888	0.218498688	0.067343418
2019-06-26T16:00:00	0.3018	17.724	231.6	0.802447363	1.054512416	0.021058206	0.217253632	0.066959679
2019-06-26T16:05:00	0.3024	17.697	231.6	0.804487057	1.057861461	0.021160868	0.218312774	0.067286117
2019-06-26T16:10:00	0.3025	17.677	231.5	0.804632412	1.058100266	0.021168194	0.218388359	0.067309413
2019-06-26T16:15:00	0.3005	17.653	231.3	0.798460385	1.047976869	0.020858317	0.215191407	0.066324081
2019-06-26T16:20:00	0.3005	17.629	231.2	0.798289838	1.047697623	0.020849789	0.215103431	0.066296967
2019-06-26T16:25:00	0.2997	17.604	231.2	0.795905535	1.043796415	0.020730771	0.213875545	0.065918520
2019-06-26T16:30:00	0.3002	17.579	230.8	0.797316324	1.046104138	0.020801149	0.214601623	0.066142304
2019-06-26T16:35:00	0.2989	17.553	230.9	0.793348975	1.039619029	0.020603565	0.212563182	0.065514037
2019-06-26T16:40:00	0.2990	17.532	230.9	0.793494754	1.039857072	0.020610807	0.212637897	0.065537065
2019-06-26T16:45:00	0.2975	17.511	230.7	0.788889631	1.032346553	0.020382697	0.210284529	0.064811734
2019-06-26T16:50:00	0.2987	17.492	230.8	0.792836626	1.038782562	0.020578123	0.212300703	0.065433139
2019-06-26T16:55:00	0.2971	17.473	230.5	0.787596696	1.030241316	0.020318900	0.209626346	0.064608876
2019-06-26T17:00:00	0.2967	17.454	230.5	0.786474405	1.028415147	0.020263611	0.209055937	0.064433070
2019-06-26T17:05:00	0.2967	17.434	230.3	0.786303321	1.028136861	0.020255190	0.208969057	0.064406293
2019-06-26T17:10:00	0.2961	17.415	230.2	0.784546130	1.025280128	0.020168805	0.208077845	0.064131613
2019-06-26T17:15:00	0.2949	17.392	230.2	0.780565443	1.018818788	0.019973851	0.206066536	0.063511708
2019-06-26T17:20:00	0.2934	17.369	230.1	0.775944617	1.011336144	0.019748828	0.203745014	0.062796192
2019-06-26T17:25:00	0.2943	17.346	229.9	0.778634164	1.015689090	0.019879635	0.205094526	0.063212125
2019-06-26T17:30:00	0.2931	17.323	229.9	0.774965366	1.009752861	0.019701317	0.203254858	0.062645121
2019-06-26T17:35:00	0.2941	17.298	229.8	0.777973458	1.014619160	0.019847458	0.204762564	0.063109811
2019-06-26T17:40:00	0.2923	17.274	229.5	0.772394673	1.005600550	0.019576888	0.201971145	0.062249468
2019-06-26T17:45:00	0.2929	17.251	229.4	0.774132386	1.008406745	0.019660952	0.202838417	0.062516770
2019-06-26T17:50:00	0.2918	17.227	229.4	0.770777675	1.002991712	0.019498838	0.201165920	0.062001290
2019-06-26T17:55:00	0.2926	17.203	229.2	0.773470894	1.007338199	0.019628929	0.202508038	0.062414944
2019-06-26T18:00:00	0.2908	17.179	229.3	0.767566761	0.997818177	0.019344351	0.199572101	0.061510060
2019-06-26T18:05:00	0.2903	17.154	229.0	0.766119700	0.995489620	0.019274944	0.198856047	0.061289365
2019-06-26T18:10:00	0.2897	17.131	228.8	0.764034117	0.992136851	0.019175148	0.197826467	0.060972038
2019-06-26T18:15:00	0.2902	17.108	228.7	0.765775680	0.994936309	0.019258464	0.198686018	0.061236960
2019-06-26T18:20:00	0.2910	17.085	228.6	0.768153818	0.998763378	0.019372547	0.199862992	0.061599715
2019-06-26T18:25:00	0.2894	17.063	228.6	0.763198722	0.990794960	0.019135252	0.197414868	0.060845179
2019-06-26T18:30:00	0.2898	17.038	228.5	0.764302750	0.992568486	0.019187987	0.197958920	0.061012862
2019-06-26T18:35:00	0.2903	17.016	228.3	0.766044189	0.995368161	0.019271326	0.198818719	0.061277860
2019-06-26T18:40:00	0.2898	16.992	228.3	0.764277567	0.992528021	0.019186783	0.197946501	0.061009034
2019-06-26T18:45:00	0.2920	16.968	228.1	0.771435455	1.004052682	0.019530568	0.201493269	0.062102182
2019-06-26T18:50:00	0.2908	16.946	228.3	0.767440957	0.997615663	0.019338311	0.199509794	0.061490856
2019-06-26T18:55:00	0.2925	16.924	228.0	0.773001924	1.006580880	0.019606242	0.202273989	0.062342808
2019-06-26T19:00:00	0.2909	16.903	227.8	0.768053191	0.998601339	0.019367712	0.199813114	0.061584342
2019-06-26T19:05:00	0.2901	16.881	227.7	0.765330929	0.994221142	0.019237168	0.198466319	0.061169247
2019-06-26T19:10:00	0.2888	16.859	227.7	0.761329958	0.987795417	0.019046167	0.196495797	0.060561913
2019-06-26T19:15:00	0.2912	16.838	227.5	0.768812055	0.999823549	0.019404187	0.200189424	0.061700325
2019-06-26T19:20:00	0.2902	16.816	227.4	0.765771491	0.994929572	0.019258263	0.198683948	0.061236322
2019-06-26T19:25:00	0.2907	16.796	227.3	0.767193523	0.997217396	0.019326436	0.199387277	0.061453095
2019-06-26T19:30:00	0.2916	16.776	227.2	0.770207800	1.002072839	0.019471371	0.200882549	0.061913953
2019-06-26T19:35:00	0.2917	16.757	227.1	0.770354470	1.002309304	0.019478439	0.200955461	0.061936425
2019-06-26T19:40:00	0.2908	16.738	226.7	0.767633867	0.997926206	0.019347573	0.199605341	0.061520305
2019-06-26T19:45:00	0.2921	16.720	226.9	0.771603028	1.004323032	0.019538656	0.201576709	0.062127899
2019-06-26T19:50:00	0.2918	16.699	226.7	0.770794446	1.003018758	0.019499647	0.201174263	0.062003862
2019-06-26T19:55:00	0.2936	16.681	226.7	0.776350487	1.011992617	0.019768537	0.203948356	0.062858864
2019-06-26T20:00:00	0.2946	16.661	226.6	0.779675186	1.017375684	0.019930390	0.205618163	0.063373515
2019-06-26T20:05:00	0.2939	16.642	226.4	0.777597068	1.014009819	0.019829140	0.204573582	0.063051565
2019-06-26T20:10:00	0.2923	16.624	226.3	0.772336052	1.005505931	0.019574056	0.201941923	0.062240462
2019-06-26T20:15:00	0.2930	16.607	226.2	0.774710066	1.009340222	0.019688941	0.203127173	0.062605768
2019-06-26T20:20:00	0.2919	16.591	226.1	0.771037461	1.003410689	0.019511366	0.201295170	0.062041126
2019-06-26T20:25:00	0.2912	16.573	226.1	0.768954594	1.000053175	0.019411043	0.200260149	0.061722123
2019-06-26T20:30:00	0.2922	16.555	226.0	0.771967466	1.004911076	0.019556251	0.201758238	0.062183848
2019-06-26T20:35:00	0.2926	16.540	225.9	0.773387168	1.007202979	0.019624877	0.202466242	0.062402062
2019-06-26T20:40:00	0.2934	16.525	225.8	0.775760523	1.011038429	0.019739891	0.203652819	0.062767777
2019-06-26T20:45:00	0.2935	16.508	225.5	0.776224974	1.011789591	0.019762441	0.203885462	0.062839480
2019-06-26T20:50:00	0.2951	16.491	225.6	0.781137971	1.019747226	0.020001827	0.206355165	0.063600666
2019-06-26T20:55:00	0.2931	16.474	225.6	0.774927717	1.009692005	0.019699492	0.203236025	0.062639317
2019-06-26T21:00:00	0.2941	16.457	225.4	0.777935839	1.014558252	0.019845627	0.204743671	0.063103988
2019-06-26T21:05:00	0.2942	16.442	225.3	0.778400023	1.015309884	0.019868229	0.204976852	0.063175857
2019-06-26T21:10:00	0.2940	16.425	225.3	0.777910747	1.014517628	0.019844405	0.204731070	0.063100104
2019-06-26T21:15:00	0.2923	16.410	225.2	0.772331870	1.005499181	0.019573853	0.201939838	0.062239819
2019-06-26T21:20:00	0.2925	16.394	225.1	0.773114999	1.006763463	0.019611711	0.202330408	0.062360197
2019-06-26T21:25:00	0.2929	16.378	225.0	0.774216132	1.008542052	0.019665008	0.202880264	0.062529668
2019-06-26T21:30:00	0.2930	16.362	224.9	0.774680773	1.009292881	0.019687521	0.203112526	0.062601253
2019-06-26T21:35:00	0.2931	16.344	224.7	0.774827270	1.009529650	0.019694622	0.203185786	0.062623832
2019-06-26T21:40:00	0.2930	16.329	224.7	0.774655660	1.009252295	0.019686304	0.203099969	0.062597383
2019-06-26T21:45:00	0.2939	16.311	224.6	0.777346121	1.013603629	0.019816932	0.204447636	0.063012747
2019-06-26T21:50:00	0.2962	16.294	224.5	0.784796637	1.025687218	0.020181108	0.208204771	0.064170733
2019-06-26T21:55:00	0.2947	16.278	224.4	0.779863300	1.017680557	0.019939569	0.205712861	0.063402702
2019-06-26T22:00:00	0.2953	16.262	224.2	0.781915111	1.021007944	0.020039836	0.206747296	0.063721524
2019-06-26T22:05:00	0.2952	16.246	224.2	0.781696026	1.020652478	0.020029117	0.206636709	0.063687440
2019-06-26T22:10:00	0.2957	16.232	224.1	0.783064309	1.022873223	0.020096113	0.207327897	0.063900471
2019-06-26T22:15:00	0.2957	16.217	223.8	0.783162706	1.023032986	0.020100936	0.207377650	0.063915806
2019-06-26T22:20:00	0.2956	16.201	223.9	0.782943693	1.022677392	0.020090203	0.207266917	0.063881677
2019-06-26T22:25:00	0.2952	16.186	223.8	0.781454701	1.020260978	0.020017313	0.206514933	0.063649908
2019-06-26T22:30:00	0.2946	16.172	223.7	0.779647443	1.017330724	0.019929037	0.205604198	0.063369211
2019-06-26T22:35:00	0.2938	16.156	223.6	0.777203575	1.013372923	0.019809999	0.204376113	0.062990703
2019-06-26T22:40:00	0.2936	16.139	223.6	0.776348326	1.011989122	0.019768432	0.203947273	0.062858530
2019-06-26T22:45:00	0.2946	16.123	223.4	0.779625205	1.017294687	0.019927952	0.205593006	0.063365761
2019-06-26T22:50:00	0.2924	16.108	223.3	0.772728069	1.006138735	0.019593001	0.202137384	0.062300705
2019-06-26T22:55:00	0.2929	16.093	223.2	0.774417742	1.008867816	0.019674775	0.202981026	0.062560723
2019-06-26T23:00:00	0.2923	16.078	223.1	0.772288822	1.005429701	0.019571774	0.201918381	0.062233206
2019-06-26T23:05:00	0.2917	16.064	223.1	0.770477184	1.002507161	0.019484353	0.201016474	0.061955229
2019-06-26T23:10:00	0.2933	16.050	222.9	0.775667806	1.010888500	0.019735391	0.203606394	0.062753468
2019-06-26T23:15:00	0.2940	16.034	222.9	0.777674041	1.014134421	0.019832885	0.204612222	0.063063474
2019-06-26T23:20:00	0.2934	16.019	222.9	0.775864980	1.011207351	0.019744962	0.203705129	0.062783899
2019-06-26T23:25:00	0.2931	16.005	222.6	0.775009428	1.009824082	0.019703454	0.203276899	0.062651914
2019-06-26T23:30:00	0.2958	15.991	222.8	0.783369017	1.023367995	0.020111049	0.207481989	0.063947964
2019-06-26T23:35:00	0.2936	15.975	222.5	0.776478696	1.012200020	0.019774766	0.204012612	0.062878668
2019-06-26T23:40:00	0.2958	15.963	222.3	0.783565791	1.023687553	0.020120698	0.207581532	0.063978644
2019-06-26T23:45:00	0.2941	15.950	222.2	0.777947394	1.014576962	0.019846189	0.204749474	0.063105777
2019-06-26T23:50:00	0.2926	15.935	222.0	0.773275470	1.007022593	0.019619473	0.202410490	0.062384879
2019-06-26T23:55:00	0.2924	15.920	221.9	0.772737622	1.006154158	0.019593463	0.202142148	0.062302173
2019-06-27T00:00:00	0.2919	15.906	221.7	0.771244613	1.003744824	0.019521359	0.201398266	0.062072901
2019-06-27T00:05:00	0.2929	15.891	221.9	0.774207772	1.008528545	0.019664603	0.202876086	0.062528380
2019-06-27T00:10:00	0.2936	15.878	221.7	0.776532752	1.012287470	0.019777392	0.204039707	0.062887019
2019-06-27T00:15:00	0.2935	15.866	221.7	0.776313355	1.011932553	0.019766734	0.203929749	0.062853129
2019-06-27T00:20:00	0.2929	15.853	221.7	0.774185502	1.008492563	0.019663525	0.202864958	0.062524950
2019-06-27T00:25:00	0.2936	15.840	221.5	0.776510496	1.012251464	0.019776311	0.204028551	0.062883581
2019-06-27T00:30:00	0.2938	15.828	221.5	0.777244910	1.013439820	0.019812010	0.204396851	0.062997095
2019-06-27T00:35:00	0.2931	15.817	221.4	0.774799491	1.009484753	0.019693276	0.203171893	0.062619551
2019-06-27T00:40:00	0.2944	15.807	221.2	0.779031072	1.016332020	0.019898978	0.205294087	0.063273631
2019-06-27T00:45:00	0.2930	15.796	221.2	0.774678611	1.009289387	0.019687416	0.203111445	0.062600920
2019-06-27T00:50:00	0.2934	15.787	221.1	0.775731418	1.010991364	0.019738479	0.203638245	0.062763285
2019-06-27T00:55:00	0.2924	15.780	221.1	0.772648508	1.006010295	0.019589155	0.202097706	0.062288476
2019-06-27T01:00:00	0.2949	15.772	220.9	0.780695705	1.019030001	0.019980214	0.206132186	0.063531942
2019-06-27T01:05:00	0.2918	15.768	220.9	0.770617315	1.002733116	0.019491107	0.201086159	0.061976707
2019-06-27T01:10:00	0.2941	15.764	221.0	0.778033216	1.014715915	0.019850367	0.204792576	0.063119061
2019-06-27T01:15:00	0.2932	15.758	220.9	0.775270257	1.010245725	0.019716103	0.203407400	0.062692136
2019-06-27T01:20:00	0.2920	15.748	220.7	0.771550272	1.004237918	0.019536109	0.201550438	0.062119802
2019-06-27T01:25:00	0.2920	15.737	206.4	0.771330587	1.003883509	0.019525508	0.201441061	0.062086092
2019-06-27T01:30:00	0.2919	15.724	220.6	0.771110889	1.003529123	0.019514908	0.201331710	0.062052388
2019-06-27T01:35:00	0.2919	15.712	220.5	0.771209596	1.003688338	0.019519670	0.201380836	0.062067530
2019-06-27T01:40:00	0.2905	15.700	220.4	0.766529334	0.996148598	0.019294578	0.199058607	0.061351796
2019-06-27T01:45:00	0.2912	15.688	206.2	0.768859040	0.999899237	0.019406447	0.200212735	0.061707509
2019-06-27T01:50:00	0.2928	15.676	220.3	0.774051882	1.008276681	0.019657053	0.202798194	0.062504373
2019-06-27T01:55:00	0.2914	15.664	220.2	0.769375142	1.000730773	0.019431276	0.200468897	0.061786461
2019-06-27T02:00:00	0.2907	15.652	219.8	0.767243379	0.997297640	0.019328828	0.199411960	0.061460703
2019-06-27T02:05:00	0.2920	15.642	220.0	0.771483416	1.004130057	0.019532883	0.201517148	0.062109542
2019-06-27T02:10:00	0.2919	15.633	219.9	0.770945313	1.003262069	0.019506922	0.201249319	0.062026995
2019-06-27T02:15:00	0.2899	15.624	219.9	0.764670278	0.993159129	0.019205559	0.198140212	0.061068738
2019-06-27T02:20:00	0.2936	15.612	219.7	0.776551838	1.012318348	0.019778319	0.204049275	0.062889968
2019-06-27T02:25:00	0.2922	15.601	219.6	0.772196525	1.005280736	0.019567315	0.201872379	0.062219028
2019-06-27T02:30:00	0.2923	15.589	219.6	0.772295204	1.005440001	0.019572082	0.201921562	0.062234186
2019-06-27T02:35:00	0.2929	15.577	219.5	0.774303227	1.008682778	0.019669227	0.202923790	0.062543083
2019-06-27T02:40:00	0.2920	15.564	219.4	0.771537543	1.004217381	0.019535495	0.201544100	0.062117849
2019-06-27T02:45:00	0.2937	15.550	205.3	0.776726712	1.012601274	0.019786817	0.204136944	0.062916989
2019-06-27T02:50:00	0.2924	15.532	219.2	0.772689893	1.006077105	0.019591156	0.202118344	0.062294837
2019-06-27T02:55:00	0.2920	15.515	219.0	0.771515258	1.004181427	0.019534419	0.201533003	0.062114429
2019-06-27T03:00:00	0.2914	15.497	219.2	0.769384703	1.000746180	0.019431737	0.200473644	0.061787924
2019-06-27T03:05:00	0.2919	15.480	218.9	0.771075870	1.003472640	0.019513219	0.201314283	0.062047017
2019-06-27T03:10:00	0.2912	15.464	219.1	0.768945067	1.000037827	0.019410584	0.200255422	0.061720666
2019-06-27T03:15:00	0.2914	15.447	218.7	0.769362405	1.000710249	0.019430663	0.200462573	0.061784512
2019-06-27T03:20:00	0.2913	15.430	218.5	0.769142592	1.000356064	0.019420086	0.200353452	0.061750880
2019-06-27T03:25:00	0.2901	15.411	218.4	0.765416567	0.994358837	0.019241268	0.198508613	0.061182282
2019-06-27T03:30:00	0.2929	15.394	218.3	0.774433668	1.008893552	0.019675547	0.202988987	0.062563177
2019-06-27T03:35:00	0.2897	15.379	218.3	0.764019555	0.992113456	0.019174452	0.197819288	0.060969826
2019-06-27T03:40:00	0.2899	15.364	218.1	0.764756401	0.993297552	0.019209678	0.198182708	0.061081835
2019-06-27T03:45:00	0.2905	15.349	218.1	0.766768435	0.996533310	0.019306043	0.199176891	0.061388252
2019-06-27T03:50:00	0.2911	15.334	217.9	0.768460774	0.999257719	0.019387298	0.200015181	0.061646621
2019-06-27T03:55:00	0.2907	15.319	218.0	0.767284823	0.997364346	0.019330817	0.199432480	0.061467027
2019-06-27T04:00:00	0.2904	15.305	217.6	0.766427327	0.995984486	0.019289688	0.199008155	0.061336246
2019-06-27T04:05:00	0.2907	15.292	217.5	0.767380778	0.997518795	0.019335423	0.199479993	0.061481671
2019-06-27T04:10:00	0.2913	15.278	217.6	0.769289809	1.000593270	0.019427170	0.200426531	0.061773403
2019-06-27T04:15:00	0.2924	15.265	217.5	0.772789568	1.006238021	0.019595974	0.202168057	0.062310158
2019-06-27T04:20:00	0.2925	15.251	217.3	0.773104979	1.006747282	0.019611226	0.202325408	0.062358656
2019-06-27T04:25:00	0.2930	15.235	217.5	0.774693023	1.009312679	0.019688115	0.203118651	0.062603141
2019-06-27T04:30:00	0.2939	15.221	217.1	0.777552101	1.013937029	0.019826952	0.204551010	0.063044608
2019-06-27T04:35:00	0.2938	15.209	216.8	0.777231372	1.013417910	0.019811351	0.204390059	0.062995001
2019-06-27T04:40:00	0.2935	15.197	217.0	0.776274711	1.011870043	0.019764857	0.203910384	0.062847161
2019-06-27T04:45:00	0.2951	15.186	216.9	0.781356117	1.020101060	0.020012493	0.206465197	0.063634579
2019-06-27T04:50:00	0.2960	15.172	216.6	0.784210177	1.024734272	0.020152312	0.207907691	0.064079170
2019-06-27T04:55:00	0.2969	15.160	216.8	0.787062096	1.029371285	0.020292553	0.209354529	0.064525099
2019-06-27T05:00:00	0.2972	15.146	216.7	0.788010369	1.030914722	0.020339300	0.209836810	0.064673743
2019-06-27T05:05:00	0.2959	15.133	216.6	0.783884331	1.024204933	0.020136323	0.207742728	0.064028326
2019-06-27T05:10:00	0.2952	15.121	216.6	0.781659450	1.020593138	0.020027328	0.206618250	0.063681751
2019-06-27T05:15:00	0.2970	15.113	216.4	0.787367811	1.029868788	0.020307618	0.209509946	0.064573000
2019-06-27T05:20:00	0.2971	15.104	216.4	0.787682012	1.030380187	0.020323106	0.209669743	0.064622251
2019-06-27T05:25:00	0.2978	15.094	216.3	0.789897703	1.033988997	0.020432513	0.210798474	0.064970137
2019-06-27T05:30:00	0.2976	15.084	216.3	0.789261134	1.032951735	0.020401048	0.210473854	0.064870086
2019-06-27T05:35:00	0.2953	15.076	216.2	0.781962760	1.021085260	0.020042168	0.206771351	0.063728939
2019-06-27T05:40:00	0.2971	15.069	216.1	0.787670666	1.030361718	0.020322547	0.209663971	0.064620472
2019-06-27T05:45:00	0.2972	15.062	215.8	0.787984841	1.030873161	0.020338041	0.209823819	0.064669739
2019-06-27T05:50:00	0.2973	15.056	202.2	0.788298991	1.031384651	0.020353540	0.209983719	0.064719022
2019-06-27T05:55:00	0.2992	15.052	216.0	0.794313895	1.041195005	0.020651526	0.213057991	0.065666542
2019-06-27T06:00:00	0.2975	15.047	215.8	0.788927214	1.032407770	0.020384553	0.210303678	0.064817636
2019-06-27T06:05:00	0.2974	15.043	202.1	0.788607444	1.031886950	0.020368764	0.210140783	0.064767430
2019-06-27T06:10:00	0.2990	15.039	216.0	0.793672399	1.040147175	0.020619634	0.212728964	0.065565133
2019-06-27T06:15:00	0.2993	15.036	215.8	0.794619029	1.041693546	0.020666706	0.213214593	0.065714808
2019-06-27T06:20:00	0.3029	15.032	215.8	0.805991386	1.060333872	0.021236758	0.219095714	0.067527427
2019-06-27T06:25:00	0.3030	15.031	215.7	0.806304059	1.060848015	0.021252550	0.219258638	0.067577641
2019-06-27T06:30:00	0.3035	15.030	215.6	0.807878326	1.063438000	0.021332158	0.220079940	0.067830775
2019-06-27T06:35:00	0.3031	15.026	215.8	0.806613883	1.061357562	0.021268204	0.219420142	0.067627419
2019-06-27T06:40:00	0.3047	15.022	215.6	0.811655063	1.069660602	0.021523801	0.222057091	0.068440152
2019-06-27T06:45:00	0.3038	15.018	215.6	0.808815806	1.064981404	0.021379642	0.220569821	0.067981761
2019-06-27T06:50:00	0.3041	15.015	215.6	0.809758698	1.066534517	0.021427457	0.221063127	0.068133803
2019-06-27T06:55:00	0.3035	15.015	215.6	0.807864218	1.063414779	0.021331444	0.220072572	0.067828504
2019-06-27T07:00:00	0.3042	15.017	215.7	0.810068243	1.067044569	0.021443168	0.221225207	0.068183757
2019-06-27T07:05:00	0.3055	15.011	215.6	0.814160496	1.073795694	0.021651450	0.223374017	0.068846041
2019-06-27T07:10:00	0.3044	15.013	201.8	0.810692899	1.068074106	0.021474890	0.221552478	0.068284625
2019-06-27T07:15:00	0.3059	15.031	215.5	0.815414009	1.075866683	0.021715469	0.224034490	0.069049606
2019-06-27T07:20:00	0.3042	15.041	215.7	0.810056963	1.067025981	0.021442595	0.221219299	0.068181937
2019-06-27T07:25:00	0.3062	15.031	201.8	0.816352469	1.077418086	0.021763465	0.224529657	0.069202221
2019-06-27T07:30:00	0.3057	15.047	215.8	0.814776037	1.074812481	0.021682874	0.223698211	0.068945961
2019-06-27T07:35:00	0.3057	15.054	215.7	0.814773221	1.074807827	0.021682730	0.223696727	0.068945504
2019-06-27T07:40:00	0.3052	15.051	215.7	0.813196142	1.072203405	0.021602269	0.222866624	0.068689658
2019-06-27T07:45:00	0.3046	15.055	215.7	0.811303357	1.069080584	0.021505915	0.221872564	0.068383279
2019-06-27T07:50:00	0.3047	15.064	215.6	0.811615597	1.069595512	0.021521794	0.222036381	0.068433769
2019-06-27T07:55:00	0.3062	15.054	215.5	0.816335576	1.077390152	0.021762601	0.224520739	0.069199472
2019-06-27T08:00:00	0.3062	15.037	215.6	0.816332760	1.077385497	0.021762457	0.224519252	0.069199014
2019-06-27T08:05:00	0.3081	15.043	215.5	0.822303859	1.087275112	0.022069186	0.227683720	0.070174334
2019-06-27T08:10:00	0.3086	15.054	215.6	0.823871595	1.089877022	0.022150107	0.228518569	0.070431642
2019-06-27T08:15:00	0.3056	15.060	215.5	0.814435885	1.074250555	0.021665506	0.223519028	0.068890735
2019-06-27T08:20:00	0.3056	15.074	215.9	0.814433068	1.074245902	0.021665362	0.223517544	0.068890278
2019-06-27T08:25:00	0.3055	15.090	215.8	0.814115422	1.073721251	0.021649150	0.223350287	0.068838728
2019-06-27T08:30:00	0.3072	15.109	215.8	0.819461198	1.082562937	0.021922869	0.226174200	0.069709085
2019-06-27T08:35:00	0.3065	15.142	216.0	0.817256921	1.078914025	0.021809777	0.225007445	0.069349480
2019-06-27T08:40:00	0.3066	15.175	216.2	0.817568678	1.079429834	0.021825752	0.225172263	0.069400278
2019-06-27T08:45:00	0.3047	15.179	216.3	0.811584588	1.069544370	0.021520217	0.222020109	0.068428754
2019-06-27T08:50:00	0.3056	15.198	216.4	0.814416167	1.074217983	0.021664499	0.223508643	0.068887534
2019-06-27T08:55:00	0.3051	15.215	216.5	0.812838941	1.071613828	0.021584067	0.222678843	0.068631782
2019-06-27T09:00:00	0.3056	15.253	216.6	0.814410533	1.074208677	0.021664211	0.223505676	0.068886620
2019-06-27T09:05:00	0.3041	15.303	216.8	0.809682548	1.066409055	0.021423593	0.221023264	0.068121517
2019-06-27T09:10:00	0.3046	15.335	217.0	0.811255431	1.069001554	0.021503479	0.221847426	0.068375531
2019-06-27T09:15:00	0.3059	15.355	217.0	0.815346420	1.075754979	0.021712014	0.223998850	0.069038621
2019-06-27T09:20:00	0.3046	15.398	217.4	0.811249792	1.068992256	0.021503192	0.221844468	0.068374620
2019-06-27T09:25:00	0.3033	15.432	217.7	0.807148791	1.062237490	0.021295246	0.219699130	0.067713406
2019-06-27T09:30:00	0.3042	15.453	217.7	0.809983639	1.066905155	0.021438873	0.221180901	0.068170102
2019-06-27T09:35:00	0.3035	15.477	217.8	0.807773921	1.063266164	0.021326873	0.220025420	0.067813971
2019-06-27T09:40:00	0.3039	15.500	218.0	0.809032340	1.065338004	0.021390617	0.220683055	0.068016661
2019-06-27T09:45:00	0.3030	15.516	217.9	0.806191142	1.060662331	0.021246846	0.219199793	0.067559505
2019-06-27T09:50:00	0.3022	15.532	218.2	0.803663550	1.056508865	0.021119387	0.217884819	0.067154217
2019-06-27T09:55:00	0.3014	15.556	218.3	0.801134289	1.052358416	0.020992260	0.216573278	0.066749988
2019-06-27T10:00:00	0.3021	15.574	218.5	0.803342187	1.055981198	0.021103211	0.217717939	0.067102783
2019-06-27T10:05:00	0.3036	15.597	218.5	0.808203452	1.063973176	0.021348619	0.220249768	0.067883117
2019-06-27T10:10:00	0.3021	15.613	218.5	0.803283361	1.055884617	0.021100251	0.217687398	0.067093370
2019-06-27T10:15:00	0.3029	15.615	218.5	0.805936746	1.060244034	0.021233999	0.219067249	0.067518654
2019-06-27T10:20:00	0.3025	15.620	218.5	0.804802891	1.058380374	0.021176789	0.218477026	0.067336741
2019-06-27T10:25:00	0.3011	15.630	218.8	0.800194426	1.050817593	0.020945127	0.216087011	0.066600115
2019-06-27T10:30:00	0.3033	15.641	218.7	0.807268145	1.062433865	0.021301283	0.219761407	0.067732600
2019-06-27T10:35:00	0.3025	15.644	218.8	0.804556875	1.057976164	0.021164387	0.218349078	0.067297306
2019-06-27T10:40:00	0.3024	15.652	218.9	0.804369654	1.057668591	0.021154952	0.218251735	0.067267304
2019-06-27T10:45:00	0.3016	15.659	218.9	0.801972184	1.053732741	0.021034329	0.217007290	0.066883754
2019-06-27T10:50:00	0.2996	15.666	218.9	0.795462510	1.043072097	0.020708697	0.213647813	0.065848331
2019-06-27T10:55:00	0.3020	15.677	219.0	0.803176507	1.055709192	0.021094874	0.217631930	0.067076274
2019-06-27T11:00:00	0.3009	15.690	219.2	0.799514328	1.049703126	0.020911056	0.215735510	0.066491780
2019-06-27T11:05:00	0.3023	15.699	219.2	0.804064796	1.057167829	0.021139593	0.218093279	0.067218467
2019-06-27T11:10:00	0.3010	15.715	219.2	0.800087486	1.050642323	0.020939767	0.216031719	0.066583074
2019-06-27T11:15:00	0.3028	15.730	219.4	0.805584016	1.059664146	0.021216192	0.218883544	0.067462034
2019-06-27T11:20:00	0.3020	15.749	219.6	0.803187307	1.055726922	0.021095418	0.217637536	0.067078002
2019-06-27T11:25:00	0.3023	15.779	219.7	0.803947166	1.056974630	0.021133668	0.218032155	0.067199628
2019-06-27T11:30:00	0.3024	15.803	220.0	0.804391247	1.057704063	0.021156040	0.218262961	0.067270764
2019-06-27T11:35:00	0.3000	15.823	220.0	0.796937044	1.045483547	0.020782216	0.214406291	0.066082101
2019-06-27T11:40:00	0.3014	15.847	220.1	0.801174685	1.052424660	0.020994287	0.216594192	0.066756434
2019-06-27T11:45:00	0.3011	15.871	220.3	0.800355405	1.051081446	0.020953196	0.216170256	0.066625772
2019-06-27T11:50:00	0.2998	15.894	220.4	0.796057917	1.044045589	0.020738367	0.213953906	0.065942672
2019-06-27T11:55:00	0.3009	15.926	220.6	0.799664525	1.049949216	0.020918578	0.215813111	0.066515697
2019-06-27T12:00:00	0.3017	15.952	220.8	0.802320418	1.054304105	0.021051826	0.217187806	0.066939391
2019-06-27T12:05:00	0.3014	15.982	220.9	0.801185491	1.052442380	0.020994830	0.216599786	0.066758158
2019-06-27T12:10:00	0.3024	16.019	206.9	0.804471649	1.057836147	0.021160091	0.218304763	0.067283648
2019-06-27T12:15:00	0.3016	16.053	221.3	0.801758399	1.053382028	0.021023591	0.216896509	0.066849611
2019-06-27T12:20:00	0.3018	16.077	221.5	0.802518542	1.054629223	0.021061784	0.217290545	0.066971056
2019-06-27T12:25:00	0.3021	16.111	222.0	0.803278534	1.055876691	0.021100008	0.217684892	0.067092598
2019-06-27T12:30:00	0.3033	16.151	222.0	0.807193768	1.062311490	0.021297521	0.219722597	0.067720638
2019-06-27T12:35:00	0.3027	16.189	222.2	0.805429226	1.059409706	0.021208381	0.218802955	0.067437196
2019-06-27T12:40:00	0.3030	16.219	222.4	0.806188641	1.060658218	0.021246720	0.219198489	0.067559103
2019-06-27T12:45:00	0.3046	16.248	222.6	0.811361382	1.069176269	0.021508866	0.221903002	0.068392660
2019-06-27T12:50:00	0.3036	16.273	222.8	0.808022374	1.063675099	0.021339450	0.220155173	0.067853963
2019-06-27T12:55:00	0.3034	16.291	222.9	0.807519952	1.062848206	0.021314021	0.219892828	0.067773105
2019-06-27T13:00:00	0.3027	16.317	223.1	0.805440020	1.059427448	0.021208925	0.218808574	0.067438928
2019-06-27T13:05:00	0.3030	16.352	223.3	0.806199433	1.060675963	0.021247265	0.219204113	0.067560836
2019-06-27T13:10:00	0.3011	16.387	223.6	0.800328957	1.051038096	0.020951870	0.216156578	0.066621557
2019-06-27T13:15:00	0.2990	16.426	223.8	0.793499953	1.039865561	0.020611065	0.212640562	0.065537886
2019-06-27T13:20:00	0.2998	16.463	224.0	0.796160134	1.044212746	0.020743462	0.214006478	0.065958875
2019-06-27T13:25:00	0.3009	16.494	224.2	0.799766645	1.050116546	0.020923693	0.215865881	0.066531961
2019-06-27T13:30:00	0.3004	16.525	224.4	0.797998676	1.047220949	0.020835235	0.214953282	0.066250689
2019-06-27T13:35:00	0.2987	16.552	224.6	0.792748843	1.038639270	0.020573766	0.212255749	0.065419283
2019-06-27T13:40:00	0.2987	16.563	224.9	0.792561042	1.038332739	0.020564445	0.212159593	0.065389647
2019-06-27T13:45:00	0.2993	16.576	224.8	0.794589029	1.041644527	0.020665213	0.213199194	0.065710062
2019-06-27T13:50:00	0.3007	16.591	225.2	0.799145361	1.049098680	0.020892585	0.215544945	0.066433045
2019-06-27T13:55:00	0.2988	16.604	225.2	0.792947463	1.038963496	0.020583626	0.212357471	0.065450635
2019-06-27T14:00:00	0.2993	16.593	225.0	0.794658813	1.041758553	0.020668685	0.213235016	0.065721103
2019-06-27T14:05:00	0.2977	16.577	224.9	0.789404378	1.033185112	0.020408126	0.210546878	0.064892592
2019-06-27T14:10:00	0.2964	16.565	224.9	0.785411749	1.026687053	0.020211334	0.208516612	0.064266845
2019-06-27T14:15:00	0.2979	16.539	224.9	0.790295876	1.034637989	0.020452208	0.211001662	0.065032761
2019-06-27T14:20:00	0.2989	16.512	224.8	0.793274865	1.039498021	0.020599884	0.212525204	0.065502332
2019-06-27T14:25:00	0.2978	16.484	224.7	0.789920024	1.034025375	0.020433617	0.210809862	0.064973647
2019-06-27T14:30:00	0.2994	16.456	224.5	0.794798377	1.041986612	0.020675630	0.213306668	0.065743187
2019-06-27T14:35:00	0.2981	16.425	224.3	0.790811402	1.035478467	0.020477723	0.211264892	0.065113892
2019-06-27T14:40:00	0.2981	16.401	224.2	0.790940272	1.035688606	0.020484104	0.211330722	0.065134181
2019-06-27T14:45:00	0.2977	16.374	224.1	0.789485096	1.033316629	0.020412115	0.210588033	0.064905277
2019-06-27T14:50:00	0.2967	16.358	223.9	0.786444054	1.028365776	0.020262117	0.209040523	0.064428319
2019-06-27T14:55:00	0.2963	16.338	223.8	0.784987157	1.025996862	0.020190468	0.208301331	0.064200493
2019-06-27T15:00:00	0.2963	16.327	223.9	0.785116224	1.026206650	0.020196809	0.208366760	0.064220659
2019-06-27T15:05:00	0.2968	16.310	223.8	0.786513987	1.028479535	0.020265559	0.209076041	0.064439266
2019-06-27T15:10:00	0.2971	16.294	223.8	0.787594218	1.030237283	0.020318778	0.209625086	0.064608487
2019-06-27T15:15:00	0.2964	16.269	223.7	0.785503402	1.026836059	0.020215840	0.208563098	0.064281172
2019-06-27T15:20:00	0.2969	16.254	223.6	0.786901022	1.029109197	0.020284618	0.209272668	0.064499869
2019-06-27T15:25:00	0.2959	16.237	223.4	0.783857913	1.024162021	0.020135027	0.207729357	0.064024205
2019-06-27T15:30:00	0.2952	16.220	223.5	0.781447508	1.020249309	0.020016962	0.206511304	0.063648789
2019-06-27T15:35:00	0.2940	16.205	223.4	0.777764369	1.014280649	0.019837281	0.204657570	0.063077451
2019-06-27T15:40:00	0.2942	16.188	223.3	0.778529315	1.015519275	0.019874527	0.205041827	0.063195882
2019-06-27T15:45:00	0.2938	16.160	223.2	0.777069376	1.013155746	0.019803474	0.204308791	0.062969954
2019-06-27T15:50:00	0.2951	16.138	223.1	0.781329177	1.020057362	0.020011175	0.206451607	0.063630390
2019-06-27T15:55:00	0.2967	16.119	223.0	0.786218549	1.027998980	0.020251017	0.208926014	0.064393027
2019-06-27T16:00:00	0.2942	16.095	222.9	0.778410894	1.015327489	0.019868758	0.204982315	0.063177540
2019-06-27T16:05:00	0.2936	16.072	222.5	0.776467136	1.012181319	0.019774204	0.204006818	0.062876883
2019-06-27T16:10:00	0.2932	16.049	222.7	0.775158578	1.010065184	0.019710686	0.203351518	0.062674913
2019-06-27T16:15:00	0.2935	16.017	222.5	0.776076190	1.011548940	0.019755216	0.203810921	0.062816505
2019-06-27T16:20:00	0.2912	15.988	222.4	0.768718663	0.999673105	0.019399696	0.200143091	0.061686044
2019-06-27T16:25:00	0.2917	15.970	222.4	0.770593329	1.002694439	0.019489951	0.201074230	0.061973031
2019-06-27T16:30:00	0.2897	15.951	222.3	0.764182219	0.992374812	0.019182226	0.197899485	0.060994543
2019-06-27T16:35:00	0.2906	15.931	222.0	0.767015536	0.996930946	0.019317896	0.199299173	0.061425941
2019-06-27T16:40:00	0.2903	15.906	222.0	0.766022557	0.995333368	0.019270290	0.198808027	0.061274565
2019-06-27T16:45:00	0.2890	15.878	221.8	0.761838704	0.988611695	0.019070397	0.196745773	0.060638958
2019-06-27T16:50:00	0.2884	15.854	221.8	0.759886395	0.985480484	0.018977505	0.195787421	0.060343585
2019-06-27T16:55:00	0.2892	15.836	221.6	0.762403808	0.989518669	0.019097331	0.197023642	0.060724600
2019-06-27T17:00:00	0.2889	15.813	221.5	0.761409613	0.987923208	0.019049960	0.196534925	0.060573973
2019-06-27T17:05:00	0.2891	15.787	221.4	0.762011403	0.988888842	0.019078626	0.196830669	0.060665124
2019-06-27T17:10:00	0.2885	15.767	221.3	0.760378519	0.986269458	0.019000898	0.196028758	0.060417967
2019-06-27T17:15:00	0.2876	15.746	221.0	0.757466872	0.981604621	0.018862721	0.194603211	0.059978600
2019-06-27T17:20:00	0.2864	15.727	221.1	0.753593399	0.975410459	0.018679738	0.192715410	0.059396761
2019-06-27T17:25:00	0.2859	15.709	221.1	0.751956852	0.972797410	0.018602715	0.191920779	0.059151848
2019-06-27T17:30:00	0.2851	15.685	221.0	0.749358937	0.968654225	0.018480796	0.190662968	0.058764179
2019-06-27T17:35:00	0.2860	15.664	220.8	0.752203441	0.973190984	0.018614309	0.192040399	0.059188716
2019-06-27T17:40:00	0.2854	15.644	220.7	0.750246118	0.970068441	0.018522383	0.191092009	0.058896413
2019-06-27T17:45:00	0.2871	15.621	220.6	0.755648600	0.978695324	0.018776706	0.193715816	0.059705096
2019-06-27T17:50:00	0.2861	15.602	220.5	0.752733284	0.974036832	0.018639236	0.192297559	0.059267975
2019-06-27T17:55:00	0.2870	15.581	220.3	0.755575232	0.978577995	0.018773240	0.193680055	0.059694074
2019-06-27T18:00:00	0.2870	15.562	206.1	0.755538547	0.978519331	0.018771507	0.193662176	0.059688563
2019-06-27T18:05:00	0.2879	15.544	220.2	0.758378374	0.983064158	0.018905919	0.195048883	0.060115960
2019-06-27T18:10:00	0.2856	15.525	220.0	0.750986176	0.971248666	0.018557111	0.191450296	0.059006841
2019-06-27T18:15:00	0.2859	15.507	205.9	0.751909692	0.972722146	0.018600498	0.191897907	0.059144799
2019-06-27T18:20:00	0.2858	15.487	219.8	0.751552914	0.972152814	0.018583730	0.191724917	0.059091481
2019-06-27T18:25:00	0.2858	15.466	219.8	0.751516191	0.972094218	0.018582005	0.191707116	0.059085995
2019-06-27T18:30:00	0.2841	15.445	219.6	0.746034192	0.963360582	0.018325395	0.189059718	0.058270041
2019-06-27T18:35:00	0.2851	15.423	219.5	0.749521765	0.968913730	0.018488425	0.190741673	0.058788436
2019-06-27T18:40:00	0.2852	15.402	219.4	0.749805256	0.969365595	0.018501711	0.190878743	0.058830683
2019-06-27T18:45:00	0.2848	15.381	219.3	0.748487401	0.967265625	0.018439992	0.190241997	0.058634431
2019-06-27T18:50:00	0.2854	15.360	219.3	0.750372173	0.970269436	0.018528296	0.191153011	0.058915214
2019-06-27T18:55:00	0.2853	15.339	219.1	0.750015249	0.969700355	0.018511556	0.190980311	0.058861987
2019-06-27T19:00:00	0.2847	15.316	219.0	0.748056782	0.966579777	0.018419849	0.190034182	0.058570381
2019-06-27T19:05:00	0.2847	15.293	218.8	0.748020024	0.966521240	0.018418130	0.190016449	0.058564915
2019-06-27T19:10:00	0.2832	15.271	218.7	0.743174532	0.958815251	0.018192293	0.187686538	0.057846814
2019-06-27T19:15:00	0.2855	15.248	218.6	0.750508667	0.970487092	0.018534699	0.191219077	0.058935577
2019-06-27T19:20:00	0.2852	15.223	218.5	0.749831551	0.969407511	0.018502944	0.190891460	0.058834602
2019-06-27T19:25:00	0.2847	15.199	218.3	0.748193361	0.966797288	0.018426236	0.190100081	0.058590691
2019-06-27T19:30:00	0.2841	15.174	218.2	0.746233941	0.963678346	0.018334711	0.189155836	0.058299666
2019-06-27T19:35:00	0.2842	15.149	218.2	0.746517681	0.964129784	0.018347950	0.189292414	0.058341760
2019-06-27T19:40:00	0.2861	15.124	218.0	0.752565558	0.973769044	0.018631343	0.192216133	0.059242879
2019-06-27T19:45:00	0.2853	15.098	217.8	0.749968065	0.969625133	0.018509344	0.190957487	0.058854952
2019-06-27T19:50:00	0.2853	15.071	217.7	0.749931326	0.969566564	0.018507621	0.190939716	0.058849475
2019-06-27T19:55:00	0.2850	15.043	217.5	0.748933824	0.967976817	0.018460887	0.190457567	0.058700872
2019-06-27T20:00:00	0.2854	15.016	217.4	0.750498224	0.970470438	0.018534209	0.191214021	0.058934018
2019-06-27T20:05:00	0.2864	14.992	217.3	0.753661769	0.975519677	0.018682959	0.192748646	0.059407005
2019-06-27T20:10:00	0.2862	14.967	217.1	0.752985222	0.974439116	0.018651094	0.192419902	0.059305683
2019-06-27T20:15:00	0.2849	14.943	217.0	0.748786824	0.967742614	0.018454005	0.190386569	0.058678989
2019-06-27T20:20:00	0.2871	14.916	216.8	0.755790297	0.978921940	0.018783402	0.193784892	0.059726386
2019-06-27T20:25:00	0.2857	14.887	216.6	0.751274958	0.971709340	0.018570672	0.191590203	0.059049961
2019-06-27T20:30:00	0.2865	14.858	216.4	0.753798144	0.975737539	0.018689386	0.192814949	0.059427440
2019-06-27T20:35:00	0.2851	14.831	216.3	0.749280404	0.968529072	0.018477117	0.190625015	0.058752481
2019-06-27T20:40:00	0.2856	14.802	216.2	0.750844659	0.971022942	0.018550468	0.191381755	0.058985716
2019-06-27T20:45:00	0.2859	14.776	216.1	0.752088250	0.973007124	0.018608893	0.191984515	0.059171492
2019-06-27T20:50:00	0.2876	14.750	215.8	0.757488082	0.981638576	0.018863725	0.194613576	0.059981794
2019-06-27T20:55:00	0.2859	14.725	215.7	0.752014813	0.972889914	0.018605440	0.191948892	0.059160513
2019-06-27T21:00:00	0.2868	14.696	215.5	0.754857304	0.977430140	0.018739339	0.193330310	0.059586279
2019-06-27T21:05:00	0.2870	14.669	215.4	0.755460144	0.978393956	0.018767803	0.193623966	0.059676787
2019-06-27T21:10:00	0.2865	14.645	215.3	0.753824411	0.975779503	0.018690624	0.192827721	0.059431376
2019-06-27T21:15:00	0.2863	14.617	215.1	0.753147893	0.974698892	0.018658753	0.192498919	0.059330036
2019-06-27T21:20:00	0.2861	14.591	215.1	0.752471253	0.973618492	0.018626906	0.192170359	0.059228771
2019-06-27T21:25:00	0.2860	14.565	214.9	0.752114529	0.973049067	0.018610128	0.191997263	0.059175421
2019-06-27T21:30:00	0.2867	14.539	214.5	0.754637150	0.977078239	0.018728950	0.193223128	0.059553244
2019-06-27T21:35:00	0.2865	14.515	214.6	0.753960779	0.975997376	0.018697052	0.192894035	0.059451815
2019-06-27T21:40:00	0.2862	14.488	214.5	0.752964349	0.974405784	0.018650112	0.192409765	0.059302558
2019-06-27T21:45:00	0.2884	14.464	214.3	0.759960041	0.985598539	0.018981005	0.195823527	0.060354713
2019-06-27T21:50:00	0.2883	14.437	214.1	0.759604027	0.985027887	0.018964090	0.195649020	0.060300928
2019-06-27T21:55:00	0.2876	14.413	213.9	0.757330993	0.981387109	0.018856285	0.194536821	0.059958138
2019-06-27T22:00:00	0.2875	14.387	213.9	0.756974730	0.980816888	0.018839419	0.194362809	0.059904506
2019-06-27T22:05:00	0.2859	14.364	213.7	0.751815045	0.972571102	0.018596049	0.191852008	0.059130652
2019-06-27T22:10:00	0.2883	14.339	213.6	0.759765398	0.985286534	0.018971756	0.195728109	0.060325304
2019-06-27T22:15:00	0.2868	14.315	213.4	0.754929346	0.977545302	0.018742740	0.193365390	0.059597091
2019-06-27T22:20:00	0.2881	14.290	213.3	0.759041867	0.984127034	0.018937397	0.195373637	0.060216052
2019-06-27T22:25:00	0.2875	14.266	213.1	0.757082387	0.980989188	0.018844515	0.194415384	0.059920710
2019-06-27T22:30:00	0.2888	14.240	212.9	0.761192555	0.987574994	0.019039626	0.196428312	0.060541113
2019-06-27T22:35:00	0.2890	14.216	199.2	0.761788667	0.988531402	0.019068013	0.196721180	0.060631378
2019-06-27T22:40:00	0.2895	14.193	212.7	0.763342015	0.991025086	0.019142092	0.197485435	0.060866929
2019-06-27T22:45:00	0.2907	14.169	212.5	0.767126625	0.997109729	0.019323226	0.199354160	0.061442888
2019-06-27T22:50:00	0.2906	14.146	212.5	0.767084349	0.997041690	0.019321198	0.199333233	0.061436438
2019-06-27T22:55:00	0.2905	14.121	212.3	0.766723303	0.996460688	0.019303879	0.199154561	0.061381370
2019-06-27T23:00:00	0.2915	14.097	212.1	0.769867543	1.001524344	0.019454982	0.200713459	0.061861837
2019-06-27T23:05:00	0.2898	14.073	212.0	0.764406548	0.992735286	0.019192949	0.198010112	0.061028640
2019-06-27T23:10:00	0.2891	14.051	211.8	0.762130702	0.989080307	0.019084312	0.196889326	0.060683202
2019-06-27T23:15:00	0.2908	14.027	211.7	0.767510448	0.997727524	0.019341647	0.199544209	0.061501463
2019-06-27T23:20:00	0.2910	14.004	211.7	0.768105562	0.998685671	0.019370228	0.199839072	0.061592343
2019-06-27T23:25:00	0.2897	13.978	211.4	0.764237318	0.992463346	0.019184859	0.197926654	0.061002917
2019-06-27T23:30:00	0.2916	13.957	211.3	0.770251087	1.002142626	0.019473457	0.200904066	0.061920584
2019-06-27T23:35:00	0.2920	13.934	197.6	0.771482587	1.004128719	0.019532843	0.201516735	0.062109415
2019-06-27T23:40:00	0.2921	13.909	197.5	0.771758731	1.004574254	0.019546172	0.201654255	0.062151800
2019-06-27T23:45:00	0.2914	13.887	210.8	0.769487316	1.000911538	0.019436675	0.200524597	0.061803628
2019-06-27T23:50:00	0.2930	13.864	197.3	0.774538486	1.009062935	0.019680625	0.203041385	0.062579327
2019-06-27T23:55:00	0.2915	13.843	210.6	0.769721359	1.001288726	0.019447942	0.200640837	0.061839455
2019-06-28T00:00:00	0.2934	13.820	210.5	0.775726411	1.010983268	0.019738236	0.203635738	0.062762512
2019-06-28T00:05:00	0.2917	13.798	210.4	0.770592355	1.002692868	0.019489904	0.201073746	0.061972881
2019-06-28T00:10:00	0.2915	13.777	210.2	0.769913143	1.001597846	0.019457178	0.200736116	0.061868820
2019-06-28T00:15:00	0.2911	13.754	209.9	0.768596613	0.999476511	0.019393828	0.200082551	0.061667385
2019-06-28T00:20:00	0.2911	13.733	196.5	0.768554354	0.999408443	0.019391797	0.200061591	0.061660925
2019-06-28T00:25:00	0.2906	13.710	196.4	0.766918597	0.996774944	0.019313246	0.199251196	0.061411154
2019-06-28T00:30:00	0.2910	13.687	209.4	0.768151184	0.998759135	0.019372420	0.199861686	0.061599313
2019-06-28T00:35:00	0.2910	13.664	209.5	0.768108919	0.998691076	0.019370389	0.199840736	0.061592856
2019-06-28T00:40:00	0.2894	13.644	209.4	0.763283578	0.990931235	0.019139302	0.197456655	0.060858059
2019-06-28T00:45:00	0.2907	13.621	195.9	0.767386987	0.997528790	0.019335721	0.199483068	0.061482619
2019-06-28T00:50:00	0.2910	13.600	195.8	0.768300785	0.999000052	0.019379609	0.199935850	0.061622171
2019-06-28T00:55:00	0.2901	13.577	209.0	0.765389550	0.994315396	0.019239974	0.198495270	0.061178170
2019-06-28T01:00:00	0.2925	13.556	195.5	0.772993092	1.006566620	0.019605815	0.202269583	0.062341450
2019-06-28T01:05:00	0.2926	13.535	208.7	0.773269126	1.007012349	0.019619166	0.202407324	0.062383903
2019-06-28T01:10:00	0.2921	13.514	195.3	0.771635410	1.004375277	0.019540219	0.201592835	0.062132870
2019-06-28T01:15:00	0.2910	13.492	208.5	0.768089465	0.998659749	0.019369455	0.199831093	0.061589884
2019-06-28T01:20:00	0.2885	13.471	208.3	0.760391322	0.986289987	0.019001506	0.196035039	0.060419903
2019-06-28T01:25:00	0.2889	13.450	208.2	0.761626045	0.988270457	0.019060267	0.196641261	0.060606746
2019-06-28T01:30:00	0.2902	13.430	208.0	0.765731258	0.994864870	0.019256336	0.198664068	0.061230195
2019-06-28T01:35:00	0.2898	13.412	208.0	0.764413268	0.992746085	0.019193270	0.198013427	0.061029661
2019-06-28T01:40:00	0.2903	13.391	207.8	0.765965534	0.995241651	0.019267558	0.198779842	0.061265878
2019-06-28T01:45:00	0.2888	13.372	207.7	0.761137447	0.987486595	0.019037003	0.196401250	0.060532773
2019-06-28T01:50:00	0.2900	13.352	207.5	0.764924271	0.993567384	0.019217708	0.198265553	0.061107369
2019-06-28T01:55:00	0.2910	13.336	207.4	0.768070010	0.998628422	0.019368520	0.199821450	0.061586912
2019-06-28T02:00:00	0.2925	13.317	207.2	0.773123074	1.006776501	0.019612102	0.202334437	0.062361439
2019-06-28T02:05:00	0.2917	13.298	207.1	0.770534030	1.002598821	0.019487093	0.201044741	0.061963942
2019-06-28T02:10:00	0.2935	13.280	207.1	0.776219824	1.011781260	0.019762191	0.203882882	0.062838684
2019-06-28T02:15:00	0.2931	13.262	206.9	0.774905488	1.009656075	0.019698414	0.203224907	0.062635890
2019-06-28T02:20:00	0.2911	13.242	206.9	0.768495998	0.999314451	0.019388991	0.200032649	0.061652005
2019-06-28T02:25:00	0.2925	13.225	206.8	0.772912023	1.006435725	0.019601895	0.202229139	0.062328985
2019-06-28T02:30:00	0.2924	13.205	206.7	0.772551533	1.005853749	0.019584468	0.202049350	0.062273572
2019-06-28T02:35:00	0.2924	13.186	206.5	0.772827599	1.006299421	0.019597813	0.202187026	0.062316005
2019-06-28T02:40:00	0.2937	13.168	206.3	0.776920662	1.012915095	0.019796244	0.204234200	0.062946964
2019-06-28T02:45:00	0.2938	13.149	206.3	0.777196409	1.013361327	0.019809651	0.204372518	0.062989595
2019-06-28T02:50:00	0.2943	13.132	206.0	0.778743437	1.015866081	0.019884959	0.205149457	0.063229055
2019-06-28T02:55:00	0.2921	13.118	206.0	0.771703778	1.004485586	0.019543519	0.201626884	0.062143364
2019-06-28T03:00:00	0.2935	13.104	205.7	0.776116061	1.011613427	0.019757152	0.203830895	0.062822661
2019-06-28T03:05:00	0.2933	13.092	205.9	0.775437840	1.010516665	0.019724233	0.203491272	0.062717986
2019-06-28T03:10:00	0.2933	13.084	205.8	0.775395657	1.010448463	0.019722186	0.203470158	0.062711479
2019-06-28T03:15:00	0.2921	13.077	205.8	0.771853238	1.004726749	0.019550735	0.201701331	0.062166309
2019-06-28T03:20:00	0.2924	13.070	205.7	0.772765956	1.006199901	0.019594833	0.202156280	0.062306529
2019-06-28T03:25:00	0.2945	13.065	205.7	0.779401669	1.016932457	0.019917048	0.205480513	0.063331090
2019-06-28T03:30:00	0.2946	13.060	205.6	0.779677237	1.017379008	0.019930490	0.205619195	0.063373833
2019-06-28T03:35:00	0.2941	13.057	205.6	0.778046283	1.014737073	0.019851003	0.204799140	0.063121084
2019-06-28T03:40:00	0.2963	13.051	192.5	0.784990031	1.026001535	0.020190609	0.208302788	0.064200942
2019-06-28T03:45:00	0.2941	13.049	192.4	0.777961974	1.014600567	0.019846899	0.204756796	0.063108033
2019-06-28T03:50:00	0.2951	13.047	192.3	0.781414455	1.020195691	0.020015345	0.206494628	0.063643650
2019-06-28T03:55:00	0.2950	13.046	192.3	0.781054773	1.019612291	0.019997761	0.206313209	0.063587735
2019-06-28T04:00:00	0.2956	13.045	205.5	0.782917663	1.022635134	0.020088927	0.207253759	0.063877621
2019-06-28T04:05:00	0.2964	13.045	205.5	0.785273709	1.026462646	0.020204549	0.208446608	0.064245269
2019-06-28T04:10:00	0.2971	13.044	192.3	0.787628295	1.030292749	0.020320458	0.209642419	0.064613829
2019-06-28T04:15:00	0.2957	13.046	192.3	0.783322104	1.023291815	0.020108749	0.207458261	0.063940651
2019-06-28T04:20:00	0.2974	13.048	192.4	0.788531553	1.031763359	0.020365018	0.210102134	0.064755518
2019-06-28T04:25:00	0.2979	13.049	205.4	0.790250556	1.034564114	0.020449966	0.210978530	0.065025632
2019-06-28T04:30:00	0.2970	13.051	192.3	0.787215801	1.029621404	0.020300126	0.209432660	0.064549180
2019-06-28T04:35:00	0.2950	13.050	192.3	0.781004127	1.019530153	0.019995285	0.206287671	0.063579864
2019-06-28T04:40:00	0.2984	13.053	205.4	0.791604432	1.036771834	0.020517006	0.211670164	0.065238800
2019-06-28T04:45:00	0.2970	13.056	192.3	0.787302742	1.029762890	0.020304411	0.209476861	0.064562803
2019-06-28T04:50:00	0.2993	13.058	192.2	0.794722467	1.041862567	0.020671853	0.213267694	0.065731175
2019-06-28T04:55:00	0.2983	13.060	192.2	0.791374568	1.036396888	0.020505615	0.211552651	0.065202582
2019-06-28T05:00:00	0.2996	13.062	205.1	0.795624046	1.043336177	0.020716744	0.213730833	0.065873919
2019-06-28T05:05:00	0.2992	13.064	192.2	0.794176320	1.040970257	0.020644685	0.212987405	0.065644787
2019-06-28T05:10:00	0.2971	13.065	192.2	0.787658996	1.030342722	0.020321972	0.209658035	0.064618643
2019-06-28T05:15:00	0.2972	13.068	192.2	0.787793646	1.030561906	0.020328611	0.209726534	0.064639755
2019-06-28T05:20:00	0.2991	13.072	192.2	0.793946612	1.040595033	0.020633263	0.212869575	0.065608471
2019-06-28T05:25:00	0.2988	13.079	192.1	0.793131444	1.039263856	0.020592761	0.212451718	0.065479683
2019-06-28T05:30:00	0.2984	13.082	192.2	0.791682771	1.036899631	0.020520888	0.211710222	0.065251147
2019-06-28T05:35:00	0.2992	13.082	192.2	0.794349883	1.041253799	0.020653316	0.213076458	0.065672234
2019-06-28T05:40:00	0.3006	13.085	192.2	0.798596051	1.048199021	0.020865101	0.215261403	0.066345655
2019-06-28T05:45:00	0.3002	13.090	192.0	0.797465676	1.046348548	0.020808607	0.214678567	0.066166019
2019-06-28T05:50:00	0.2991	13.095	192.2	0.793803682	1.040361585	0.020626159	0.212796277	0.065585879
2019-06-28T05:55:00	0.3001	13.094	192.2	0.797101848	1.045753190	0.020790442	0.214491155	0.066108257
2019-06-28T06:00:00	0.3007	13.100	192.2	0.799133081	1.049078566	0.020891970	0.215538604	0.066431091
2019-06-28T06:05:00	0.2991	13.103	192.2	0.793890473	1.040503339	0.020630473	0.212840784	0.065599597
2019-06-28T06:10:00	0.3006	13.107	192.2	0.798769412	1.048482923	0.020873773	0.215350867	0.066373229
2019-06-28T06:15:00	0.3019	13.110	192.2	0.802694909	1.054918670	0.021070651	0.217382025	0.066999251
2019-06-28T06:20:00	0.3021	13.111	192.2	0.803460516	1.056175478	0.021109166	0.217779377	0.067121719
2019-06-28T06:25:00	0.3028	13.114	192.2	0.805488377	1.059506934	0.021211366	0.218833749	0.067446687
2019-06-28T06:30:00	0.3033	13.120	192.3	0.807199769	1.062321364	0.021297824	0.219725729	0.067721604
2019-06-28T06:35:00	0.3028	13.126	192.3	0.805756419	1.059947561	0.021224894	0.218973322	0.067489705
2019-06-28T06:40:00	0.3030	13.131	192.3	0.806205936	1.060686658	0.021247593	0.219207502	0.067561881
2019-06-28T06:45:00	0.3027	13.136	192.3	0.805393378	1.059350783	0.021206572	0.218784293	0.067431444
2019-06-28T06:50:00	0.3039	13.141	192.3	0.808996847	1.065279549	0.021388818	0.220664492	0.068010939
2019-06-28T06:55:00	0.3051	13.146	192.3	0.812911890	1.071734223	0.021587784	0.222717185	0.068643599
2019-06-28T07:00:00	0.3038	13.155	192.3	0.808949392	1.065201395	0.021386412	0.220639674	0.068003290
2019-06-28T07:05:00	0.3044	13.161	192.4	0.810659242	1.068018624	0.021473180	0.221534837	0.068279188
2019-06-28T07:10:00	0.3046	13.174	205.4	0.811423260	1.069278311	0.021512012	0.221935464	0.068402665
2019-06-28T07:15:00	0.3035	13.183	192.4	0.807774600	1.063267281	0.021326908	0.220025774	0.067814080
2019-06-28T07:20:00	0.3032	13.191	192.5	0.806962375	1.061930805	0.021285820	0.219601881	0.067683432
2019-06-28T07:25:00	0.3030	13.198	192.5	0.806149977	1.060594640	0.021244767	0.219178342	0.067552894
2019-06-28T07:30:00	0.3024	13.210	192.5	0.804390604	1.057703006	0.021156007	0.218262626	0.067270661
2019-06-28T07:35:00	0.3024	13.226	192.6	0.804524665	1.057923246	0.021162763	0.218332329	0.067292144
2019-06-28T07:40:00	0.3017	13.255	192.7	0.802132944	1.053996494	0.021042405	0.217090614	0.066909436
2019-06-28T07:45:00	0.3003	13.252	192.7	0.797843114	1.046966302	0.020827462	0.214873084	0.066225971
2019-06-28T07:50:00	0.3014	13.255	192.7	0.801137796	1.052364166	0.020992436	0.216575094	0.066750547
2019-06-28T07:55:00	0.3021	13.264	205.9	0.803482615	1.056211764	0.021110279	0.217790853	0.067125256
2019-06-28T08:00:00	0.3015	13.284	205.9	0.801406142	1.052804243	0.021005904	0.216714041	0.066793372
2019-06-28T08:05:00	0.3022	13.295	206.6	0.803750797	1.056652137	0.021123779	0.217930137	0.067168185
2019-06-28T08:10:00	0.3033	13.307	206.0	0.807355809	1.062578108	0.021305717	0.219807155	0.067746700
2019-06-28T08:15:00	0.3007	13.330	206.1	0.798964891	1.048803078	0.020883553	0.215451768	0.066404327
2019-06-28T08:20:00	0.3035	13.337	206.1	0.807939082	1.063538000	0.021335233	0.220111670	0.067840554
2019-06-28T08:25:00	0.3026	13.362	206.3	0.804918350	1.058570096	0.021182611	0.218537088	0.067355253
2019-06-28T08:30:00	0.3022	13.360	206.3	0.803789843	1.056716259	0.021125745	0.217950420	0.067174436
2019-06-28T08:35:00	0.3033	13.375	206.3	0.807079413	1.062123348	0.021291738	0.219662934	0.067702250
2019-06-28T08:40:00	0.2999	13.395	206.4	0.796474470	1.044726845	0.020759137	0.214168193	0.066008717
2019-06-28T08:45:00	0.3031	13.417	206.5	0.806716498	1.061526344	0.021273390	0.219473647	0.067643910
2019-06-28T08:50:00	0.3009	13.438	206.6	0.799588532	1.049824703	0.020914772	0.215773847	0.066503595
2019-06-28T08:55:00	0.3023	13.448	206.6	0.804144562	1.057298844	0.021143611	0.218134733	0.067231243
2019-06-28T09:00:00	0.3017	13.477	206.8	0.802068448	1.053890674	0.021039165	0.217057183	0.066899132
2019-06-28T09:05:00	0.2992	13.496	206.8	0.794298912	1.041170527	0.020650781	0.213050303	0.065664173
2019-06-28T09:10:00	0.3007	13.491	206.8	0.798861246	1.048633323	0.020878367	0.215398266	0.066387837
2019-06-28T09:15:00	0.2996	13.504	206.9	0.795516977	1.043161137	0.020711410	0.213675804	0.065856958
2019-06-28T09:20:00	0.3002	13.534	207.0	0.797549053	1.046485000	0.020812772	0.214721528	0.066179260
2019-06-28T09:25:00	0.3006	13.556	207.2	0.798631819	1.048257594	0.020866890	0.215279860	0.066351344
2019-06-28T09:30:00	0.2995	13.603	207.4	0.795287350	1.042785769	0.020699973	0.213557809	0.065820591
2019-06-28T09:35:00	0.3003	13.595	207.3	0.797635759	1.046626907	0.020817103	0.214766209	0.066193031
2019-06-28T09:40:00	0.2999	13.617	207.4	0.796505100	1.044776945	0.020760665	0.214183955	0.066013575
2019-06-28T09:45:00	0.3000	13.637	207.6	0.796955706	1.045514080	0.020783147	0.214415900	0.066085063
2019-06-28T09:50:00	0.3010	13.643	207.6	0.799935158	1.050392685	0.020932135	0.215952975	0.066558804
2019-06-28T09:55:00	0.3008	13.647	207.8	0.799437330	1.049576977	0.020907201	0.215695735	0.066479520
2019-06-28T10:00:00	0.3005	13.654	207.7	0.798307204	1.047726057	0.020850657	0.215112389	0.066299727
2019-06-28T10:05:00	0.3000	13.660	207.7	0.796720505	1.045129297	0.020771411	0.214294815	0.066047743
2019-06-28T10:10:00	0.2998	13.695	207.9	0.796082244	1.044085371	0.020739579	0.213966417	0.065946528
2019-06-28T10:15:00	0.3003	13.684	207.8	0.797657891	1.046663132	0.020818208	0.214777615	0.066196547
2019-06-28T10:20:00	0.3024	13.684	207.8	0.804286604	1.057532164	0.021150767	0.218208562	0.067253998
2019-06-28T10:25:00	0.3021	13.698	207.8	0.803333891	1.055967576	0.021102794	0.217713631	0.067101456
2019-06-28T10:30:00	0.3018	13.713	207.9	0.802380940	1.054403417	0.021054868	0.217219188	0.066949063
2019-06-28T10:35:00	0.3007	13.727	208.0	0.798899840	1.048696534	0.020880298	0.215418188	0.066393978
2019-06-28T10:40:00	0.3028	13.762	208.2	0.805526404	1.059569442	0.021213285	0.218853547	0.067452789
2019-06-28T10:45:00	0.3016	13.767	208.2	0.801732319	1.053339246	0.021022281	0.216882997	0.066845446
2019-06-28T10:50:00	0.3025	13.773	208.2	0.804568351	1.057995017	0.021164965	0.218355045	0.067299146
2019-06-28T10:55:00	0.3039	13.784	208.3	0.808978922	1.065250028	0.021387909	0.220655117	0.068008050
2019-06-28T11:00:00	0.3020	13.796	208.3	0.802978596	1.055384305	0.021084918	0.217529213	0.067044616
2019-06-28T11:05:00	0.3015	13.803	208.4	0.801393834	1.052784057	0.021005286	0.216707667	0.066791408
2019-06-28T11:10:00	0.3006	13.816	208.5	0.798544134	1.048114005	0.020862505	0.215234615	0.066337399
2019-06-28T11:15:00	0.3018	13.864	208.7	0.802330076	1.054319952	0.021052311	0.217192814	0.066940935
2019-06-28T11:20:00	0.3022	13.880	208.8	0.803903152	1.056902343	0.021131451	0.218009287	0.067192579
2019-06-28T11:25:00	0.3026	13.901	208.9	0.805160018	1.058967241	0.021194799	0.218662833	0.067394009
2019-06-28T11:30:00	0.3019	13.915	195.7	0.802944692	1.055328652	0.021083213	0.217511620	0.067039194
2019-06-28T11:35:00	0.3021	13.936	209.1	0.803570509	1.056356085	0.021114703	0.217836497	0.067139324
2019-06-28T11:40:00	0.3015	13.974	209.3	0.801670141	1.053237253	0.021019159	0.216850784	0.066835518
2019-06-28T11:45:00	0.3030	14.021	196.2	0.806399535	1.061005029	0.021257373	0.219308400	0.067592979
2019-06-28T11:50:00	0.3033	14.030	196.1	0.807340199	1.062552421	0.021304927	0.219799008	0.067744189
2019-06-28T11:55:00	0.3028	14.049	196.3	0.805757240	1.059948912	0.021224936	0.218973750	0.067489837
2019-06-28T12:00:00	0.3001	14.088	196.5	0.797222842	1.045951167	0.020796482	0.214553470	0.066127463
2019-06-28T12:05:00	0.2997	14.131	210.3	0.795952042	1.043872460	0.020733089	0.213899459	0.065925891
2019-06-28T12:10:00	0.3000	14.156	210.3	0.796895277	1.045415215	0.020780132	0.214384787	0.066075473
2019-06-28T12:15:00	0.2986	14.176	197.0	0.792459410	1.038166867	0.020559403	0.212107566	0.065373612
2019-06-28T12:20:00	0.2999	14.184	210.5	0.796567684	1.044879314	0.020763787	0.214216161	0.066023501
2019-06-28T12:25:00	0.3014	14.210	210.7	0.801303386	1.052635719	0.021000746	0.216660829	0.066776972
2019-06-28T12:30:00	0.2991	14.264	210.9	0.794025226	1.040723443	0.020637172	0.212909897	0.065620898
2019-06-28T12:35:00	0.2984	14.326	211.3	0.791803434	1.037096480	0.020526870	0.211771929	0.065270165
2019-06-28T12:40:00	0.2994	14.336	211.4	0.794963275	1.042256090	0.020683838	0.213391343	0.065769284
2019-06-28T12:45:00	0.2972	14.329	211.4	0.787990012	1.030881579	0.020338296	0.209826450	0.064670550
2019-06-28T12:50:00	0.2992	14.347	211.5	0.794319056	1.041203438	0.020651783	0.213060640	0.065667358
2019-06-28T12:55:00	0.2977	14.389	211.7	0.789563335	1.033444114	0.020415983	0.210627929	0.064917573
2019-06-28T13:00:00	0.2976	14.452	212.1	0.789240783	1.032918579	0.020400043	0.210463480	0.064866889
2019-06-28T13:05:00	0.2971	14.521	198.9	0.787650306	1.030328578	0.020321543	0.209653615	0.064617280
2019-06-28T13:10:00	0.2957	14.575	212.7	0.783203652	1.023099472	0.020102943	0.207398356	0.063922187
2019-06-28T13:15:00	0.2978	14.609	212.9	0.789857510	1.033923493	0.020430526	0.210777970	0.064963817
2019-06-28T13:20:00	0.2969	14.648	213.1	0.786999176	1.029268903	0.020289453	0.209322549	0.064515243
2019-06-28T13:25:00	0.2968	14.694	213.4	0.786676406	1.028743756	0.020273556	0.209158543	0.064464694
2019-06-28T13:30:00	0.2955	14.733	213.6	0.782546079	1.022031930	0.020070725	0.207065966	0.063819742
2019-06-28T13:35:00	0.2964	14.762	213.8	0.785396407	1.026662112	0.020210580	0.208508831	0.064264447
2019-06-28T13:40:00	0.2965	14.792	214.1	0.785707933	1.027168607	0.020225898	0.208666857	0.064313152
2019-06-28T13:45:00	0.2979	14.823	214.2	0.790140322	1.034384431	0.020444513	0.210922270	0.065008292
2019-06-28T13:50:00	0.2977	14.847	214.4	0.789500959	1.033342477	0.020412900	0.210596121	0.064907770
2019-06-28T13:55:00	0.2982	14.861	214.4	0.791079327	1.035915368	0.020490990	0.211401766	0.065156078
2019-06-28T14:00:00	0.2957	14.861	214.4	0.783146852	1.023007244	0.020100159	0.207369633	0.063913335
2019-06-28T14:05:00	0.2965	14.857	214.5	0.785679552	1.027122459	0.020224502	0.208652458	0.064308714
2019-06-28T14:10:00	0.2967	14.867	214.5	0.786308206	1.028144807	0.020255430	0.208971537	0.064407057
2019-06-28T14:15:00	0.2958	14.873	214.6	0.783447203	1.023494964	0.020114883	0.207521538	0.063960154
2019-06-28T14:20:00	0.2949	14.880	214.7	0.780584042	1.018848944	0.019974759	0.206075909	0.063514597
2019-06-28T14:25:00	0.2943	14.876	214.7	0.778672172	1.015750651	0.019881487	0.205113632	0.063218013
2019-06-28T14:30:00	0.2958	14.874	214.7	0.783430164	1.023467293	0.020114047	0.207512919	0.063957497
2019-06-28T14:35:00	0.2960	14.872	214.7	0.784059190	1.024488981	0.020144902	0.207831244	0.064055608
2019-06-28T14:40:00	0.2947	14.868	214.7	0.779926015	1.017782205	0.019942630	0.205744438	0.063412434
2019-06-28T14:45:00	0.2953	14.861	214.6	0.781825889	1.020863176	0.020035470	0.206702255	0.063707643
2019-06-28T14:50:00	0.2951	14.853	214.6	0.781185126	1.019823708	0.020004132	0.206378947	0.063607996
2019-06-28T14:55:00	0.2957	14.842	214.6	0.783084370	1.022905794	0.020097096	0.207338040	0.063903597
2019-06-28T15:00:00	0.2957	14.838	214.6	0.783078690	1.022896571	0.020096818	0.207335168	0.063902712
2019-06-28T15:05:00	0.2954	14.834	214.6	0.782120663	1.021341490	0.020049896	0.206851080	0.063753512
2019-06-28T15:10:00	0.2958	14.830	214.5	0.783384726	1.023393505	0.020111820	0.207489935	0.063950413
2019-06-28T15:15:00	0.2961	14.827	214.5	0.784331078	1.024930699	0.020158247	0.207968917	0.064098040
2019-06-28T15:20:00	0.2961	14.820	214.5	0.784325399	1.024921473	0.020157968	0.207966041	0.064097153
2019-06-28T15:25:00	0.2967	14.813	214.5	0.786223075	1.028006341	0.020251240	0.208928312	0.064393735
2019-06-28T15:30:00	0.2974	14.806	214.5	0.788436778	1.031609020	0.020360340	0.210053873	0.064740644
2019-06-28T15:35:00	0.2964	14.799	214.5	0.785260163	1.026440626	0.020203883	0.208439740	0.064243152
2019-06-28T15:40:00	0.2971	14.792	214.5	0.787474427	1.030042308	0.020312873	0.209564162	0.064589710
2019-06-28T15:45:00	0.2960	14.784	214.5	0.783979687	1.024359829	0.020141001	0.207790996	0.064043203
2019-06-28T15:50:00	0.2957	14.772	214.4	0.783021887	1.022804346	0.020094034	0.207306448	0.063893861
2019-06-28T15:55:00	0.2946	14.758	214.3	0.779840740	1.017643993	0.019938468	0.205701503	0.063399201
2019-06-28T16:00:00	0.2938	14.743	214.2	0.777292762	1.013517266	0.019814337	0.204420861	0.063004495
2019-06-28T16:05:00	0.2932	14.727	214.2	0.775159767	1.010067105	0.019710744	0.203352113	0.062675096
2019-06-28T16:10:00	0.2934	14.712	214.1	0.775888752	1.011245797	0.019746116	0.203717035	0.062787569
2019-06-28T16:15:00	0.2944	14.697	214.1	0.779160343	1.016541449	0.019905280	0.205359105	0.063293671
2019-06-28T16:20:00	0.2940	14.682	214.0	0.777664177	1.014118453	0.019832405	0.204607269	0.063061948
2019-06-28T16:25:00	0.2921	14.666	214.0	0.771712973	1.004500422	0.019543963	0.201631464	0.062144775
2019-06-28T16:30:00	0.2924	14.651	213.9	0.772760910	1.006191754	0.019594589	0.202153763	0.062305753
2019-06-28T16:35:00	0.2911	14.638	213.9	0.768395523	0.999152628	0.019384162	0.199982824	0.061636649
2019-06-28T16:40:00	0.2927	14.627	213.9	0.773583307	1.007519759	0.019634369	0.202564162	0.062432242
2019-06-28T16:45:00	0.2909	14.614	213.8	0.767944367	0.998426112	0.019362484	0.199759181	0.061567720
2019-06-28T16:50:00	0.2922	14.603	213.7	0.772177921	1.005250711	0.019566416	0.201863107	0.062216170
2019-06-28T16:55:00	0.2910	14.590	213.7	0.768130538	0.998725890	0.019371428	0.199851452	0.061596158
2019-06-28T17:00:00	0.2922	14.575	200.0	0.772045564	1.005037105	0.019560023	0.201797150	0.062195842
2019-06-28T17:05:00	0.2923	14.561	213.5	0.772456863	1.005700932	0.019579893	0.202002149	0.062259024
2019-06-28T17:10:00	0.2911	14.547	213.5	0.768409779	0.999175588	0.019384847	0.199989893	0.061638827
2019-06-28T17:15:00	0.2925	14.533	213.4	0.772961083	1.006514937	0.019604267	0.202253613	0.062336528
2019-06-28T17:20:00	0.2897	14.518	213.4	0.764132539	0.992294987	0.019179851	0.197874990	0.060986994
2019-06-28T17:25:00	0.2912	14.503	213.3	0.769007602	1.000138575	0.019413592	0.200286455	0.061730231
2019-06-28T17:30:00	0.2907	14.489	213.3	0.767188685	0.997209610	0.019326204	0.199384882	0.061452357
2019-06-28T17:35:00	0.2899	14.475	213.1	0.764731041	0.993256791	0.019208465	0.198170194	0.061077978
2019-06-28T17:40:00	0.2893	14.458	213.1	0.762910059	0.990331427	0.019121477	0.197272751	0.060801378
2019-06-28T17:45:00	0.2908	14.445	213.0	0.767467995	0.997659186	0.019339609	0.199523184	0.061494983
2019-06-28T17:50:00	0.2911	14.429	212.8	0.768517110	0.999348455	0.019390006	0.200043119	0.061655232
2019-06-28T17:55:00	0.2901	14.413	212.9	0.765422599	0.994368535	0.019241557	0.198511592	0.061183201
2019-06-28T18:00:00	0.2892	14.397	213.1	0.762644689	0.989905361	0.019108818	0.197142150	0.060761125
2019-06-28T18:05:00	0.2887	14.379	212.8	0.760822698	0.986981752	0.019022025	0.196246721	0.060485145
2019-06-28T18:10:00	0.2899	14.362	212.6	0.764745311	0.993279727	0.019209148	0.198177235	0.061080149
2019-06-28T18:15:00	0.2886	14.347	212.6	0.760689942	0.986768843	0.019015709	0.196181563	0.060465063
2019-06-28T18:20:00	0.2891	14.332	212.5	0.762060135	0.988967052	0.019080949	0.196854629	0.060672508
2019-06-28T18:25:00	0.2889	14.314	212.4	0.761514974	0.988092247	0.019054977	0.196586686	0.060589926
2019-06-28T18:30:00	0.2884	14.296	212.3	0.760011801	0.985681515	0.018983465	0.195848905	0.060362535
2019-06-28T18:35:00	0.2877	14.277	198.7	0.757549469	0.981736848	0.018866633	0.194643574	0.059991040
2019-06-28T18:40:00	0.2912	14.259	212.2	0.768810576	0.999821165	0.019404116	0.200188690	0.061700098
2019-06-28T18:45:00	0.2909	14.239	212.0	0.767947723	0.998431516	0.019362646	0.199760844	0.061568232
2019-06-28T18:50:00	0.2905	14.219	211.9	0.766765908	0.996529243	0.019305922	0.199175641	0.061387867
2019-06-28T18:55:00	0.2911	14.197	211.8	0.768452546	0.999244467	0.019386903	0.200011101	0.061645364
2019-06-28T19:00:00	0.2905	14.176	211.7	0.766633360	0.996315970	0.019299566	0.199110064	0.061367656
2019-06-28T19:05:00	0.2895	14.154	198.1	0.763537303	0.991338747	0.019151416	0.197581631	0.060896578
2019-06-28T19:10:00	0.2913	14.133	211.5	0.769050362	1.000207466	0.019415649	0.200307676	0.061736771
2019-06-28T19:15:00	0.2914	14.108	211.4	0.769461988	1.000870721	0.019435456	0.200512019	0.061799752
2019-06-28T19:20:00	0.2907	14.085	197.7	0.767324570	0.997428322	0.019332725	0.199452160	0.061473093
2019-06-28T19:25:00	0.2918	14.061	197.6	0.770922015	1.003224493	0.019505798	0.201237727	0.062023422
2019-06-28T19:30:00	0.2928	14.036	211.0	0.773879732	1.007998572	0.019648717	0.202712195	0.062477867
2019-06-28T19:35:00	0.2913	14.012	197.4	0.769197078	1.000443852	0.019422708	0.200380497	0.061759215
2019-06-28T19:40:00	0.2921	13.988	196.5	0.771837806	1.004701847	0.019549990	0.201693643	0.062163940
2019-06-28T19:45:00	0.2939	13.963	210.1	0.777338776	1.013591741	0.019816575	0.204443950	0.063011611
2019-06-28T19:50:00	0.2959	13.938	209.8	0.783783941	1.024041868	0.020131398	0.207691919	0.064012667
2019-06-28T19:55:00	0.2961	13.913	209.6	0.784511271	1.025223484	0.020167094	0.208060186	0.064126170
2019-06-28T20:00:00	0.2972	13.889	209.7	0.787775442	1.030532272	0.020327713	0.209717272	0.064636900
2019-06-28T20:05:00	0.2966	13.865	196.0	0.785965513	1.027587458	0.020238567	0.208797567	0.064353438
2019-06-28T20:10:00	0.2979	13.840	209.4	0.790179005	1.034447483	0.020446426	0.210942012	0.065014377
2019-06-28T20:15:00	0.2973	13.815	195.8	0.788370219	1.031500634	0.020357055	0.210019983	0.064730198
2019-06-28T20:20:00	0.2961	13.791	195.7	0.784340098	1.024945356	0.020158690	0.207973485	0.064099448
2019-06-28T20:25:00	0.2956	13.766	195.6	0.782845974	1.022518748	0.020085415	0.207217521	0.063866452
2019-06-28T20:30:00	0.2959	13.740	208.9	0.783890837	1.024215501	0.020136642	0.207746021	0.064029341
2019-06-28T20:35:00	0.2979	13.715	195.4	0.790008087	1.034168901	0.020437972	0.210854793	0.064987495
2019-06-28T20:40:00	0.2969	13.690	208.8	0.786931083	1.029158108	0.020286099	0.209287944	0.064504577
2019-06-28T20:45:00	0.2938	13.664	195.2	0.777181503	1.013337202	0.019808926	0.204365039	0.062987290
2019-06-28T20:50:00	0.2967	13.638	208.4	0.786482128	1.028427709	0.020263991	0.209059859	0.064434279
2019-06-28T20:55:00	0.2955	13.616	208.3	0.782450004	1.021875988	0.020066020	0.207017426	0.063804781
2019-06-28T21:00:00	0.2951	13.590	194.8	0.781272708	1.019965766	0.020008414	0.206423123	0.063621611
2019-06-28T21:05:00	0.2961	13.564	208.3	0.784539661	1.025269616	0.020168488	0.208074568	0.064130603
2019-06-28T21:10:00	0.2966	13.539	208.2	0.785901245	1.027482947	0.020235406	0.208764950	0.064343385
2019-06-28T21:15:00	0.2963	13.515	207.8	0.785042277	1.026086453	0.020193176	0.208329272	0.064209105
2019-06-28T21:20:00	0.2966	13.490	194.3	0.786086537	1.027784277	0.020244522	0.208858996	0.064372371
2019-06-28T21:25:00	0.2954	13.466	194.1	0.782371474	1.021748531	0.020062174	0.206977755	0.063792554
2019-06-28T21:30:00	0.2965	13.440	193.9	0.785637482	1.027054056	0.020222433	0.208631114	0.064302136
2019-06-28T21:35:00	0.2985	13.417	207.6	0.792068600	1.037529117	0.020540017	0.211907569	0.065311971
2019-06-28T21:40:00	0.2982	13.391	207.4	0.791211023	1.036130145	0.020497513	0.211469063	0.065176819
2019-06-28T21:45:00	0.2970	13.366	207.3	0.787183911	1.029569509	0.020298555	0.209416449	0.064544183
2019-06-28T21:50:00	0.2981	13.341	207.2	0.790762572	1.035398848	0.020475305	0.211239952	0.065106205
2019-06-28T21:55:00	0.2957	13.317	207.0	0.783245246	1.023167010	0.020104982	0.207419390	0.063928670
2019-06-28T22:00:00	0.2948	13.294	206.9	0.780162759	1.018165951	0.019954186	0.205863661	0.063449180
2019-06-28T22:05:00	0.2958	13.269	206.7	0.783517694	1.023609443	0.020118339	0.207557199	0.063971145
2019-06-28T22:10:00	0.2963	13.245	206.6	0.784966639	1.025963514	0.020189459	0.208290931	0.064197288
2019-06-28T22:15:00	0.2955	13.224	206.5	0.782607563	1.022131730	0.020073736	0.207097032	0.063829317
2019-06-28T22:20:00	0.2942	13.200	206.3	0.778340667	1.015213761	0.019865338	0.204947027	0.063166664
2019-06-28T22:25:00	0.2955	13.174	193.1	0.782649666	1.022200073	0.020075798	0.207118308	0.063835874
2019-06-28T22:30:00	0.2940	13.149	193.0	0.777747161	1.014252790	0.019836443	0.204648930	0.063074788
2019-06-28T22:35:00	0.2953	13.126	192.8	0.782056833	1.021237911	0.020046772	0.206818849	0.063743578
2019-06-28T22:40:00	0.2949	13.102	192.7	0.780648903	1.018954112	0.019977928	0.206108597	0.063524671
2019-06-28T22:45:00	0.2958	13.078	205.7	0.783368693	1.023367470	0.020111034	0.207481826	0.063947914
2019-06-28T22:50:00	0.2958	13.053	205.4	0.783548429	1.023659356	0.020119847	0.207572748	0.063975937
2019-06-28T22:55:00	0.2950	13.030	192.4	0.780870891	1.019314080	0.019988774	0.206220495	0.063559159
2019-06-28T23:00:00	0.2948	13.005	192.2	0.780415535	1.018575737	0.019966529	0.205990998	0.063488426
2019-06-28T23:05:00	0.2976	12.982	192.1	0.789161388	1.032789235	0.020396120	0.210423012	0.064854416
2019-06-28T23:10:00	0.2965	12.957	192.0	0.785853502	1.027405309	0.020233057	0.208740721	0.064335918
2019-06-28T23:15:00	0.2954	12.933	191.9	0.782225268	1.021511247	0.020055016	0.206903907	0.063769794
2019-06-28T23:20:00	0.2936	12.909	191.7	0.776368422	1.012021630	0.019769409	0.203957344	0.062861634
2019-06-28T23:25:00	0.2962	12.884	191.6	0.784806339	1.025702986	0.020181585	0.208209688	0.064172248
2019-06-28T23:30:00	0.2976	12.861	191.5	0.789108015	1.032702287	0.020393484	0.210395810	0.064846032
2019-06-28T23:35:00	0.2965	12.839	191.3	0.785800082	1.027318443	0.020230430	0.208713613	0.064327563
2019-06-28T23:40:00	0.2983	12.816	191.2	0.791367717	1.036385712	0.020505276	0.211549149	0.065201502
2019-06-28T23:45:00	0.2969	12.793	191.1	0.787110650	1.029450293	0.020294945	0.209379208	0.064532705
2019-06-28T23:50:00	0.2969	12.772	191.0	0.786973138	1.029226536	0.020288171	0.209309317	0.064511164
2019-06-28T23:55:00	0.2970	12.749	190.9	0.787152703	1.029518725	0.020297017	0.209400585	0.064539294
2019-06-29T00:00:00	0.2972	12.727	190.8	0.787966315	1.030843000	0.020337127	0.209814391	0.064666833
2019-06-29T00:05:00	0.2996	12.704	190.6	0.795429543	1.043018204	0.020707055	0.213630871	0.065843109
2019-06-29T00:10:00	0.2990	12.681	190.5	0.793710042	1.040208651	0.020621505	0.212748263	0.065571081
2019-06-29T00:15:00	0.2984	12.658	190.3	0.791673087	1.036883831	0.020520408	0.211705270	0.065249620
2019-06-29T00:20:00	0.2976	12.636	190.2	0.789318167	1.033044652	0.020403866	0.210502927	0.064879046
2019-06-29T00:25:00	0.3003	12.614	190.1	0.797727440	1.046776965	0.020821682	0.214813460	0.066207595
2019-06-29T00:30:00	0.2975	12.593	190.0	0.788726373	1.032080644	0.020374636	0.210201360	0.064786100
2019-06-29T00:35:00	0.2992	12.572	189.9	0.794289735	1.041155536	0.020650325	0.213045595	0.065662721
2019-06-29T00:40:00	0.2999	12.550	189.8	0.796367246	1.044551469	0.020753790	0.214113023	0.065991713
2019-06-29T00:45:00	0.2988	12.526	189.6	0.793065612	1.039156378	0.020589492	0.212417992	0.065469288
2019-06-29T00:50:00	0.2969	12.504	189.5	0.786908385	1.029121176	0.020284981	0.209276409	0.064501022
2019-06-29T00:55:00	0.2991	12.482	202.4	0.794057202	1.040775674	0.020638762	0.212926298	0.065625953
2019-06-29T01:00:00	0.2989	12.463	189.3	0.793286876	1.039517632	0.020600480	0.212531359	0.065504229
2019-06-29T01:05:00	0.3003	12.443	202.0	0.797895183	1.047051535	0.020830064	0.214899926	0.066234244
2019-06-29T01:10:00	0.3012	12.422	202.0	0.800602692	1.051486812	0.020965594	0.216298167	0.066665196
2019-06-29T01:15:00	0.3012	12.399	188.9	0.800465666	1.051262185	0.020958723	0.216227284	0.066643349
2019-06-29T01:20:00	0.3021	12.378	201.7	0.803487085	1.056219103	0.021110504	0.217793174	0.067125971
2019-06-29T01:25:00	0.3009	12.357	201.6	0.799559573	1.049777257	0.020913322	0.215758886	0.066498984
2019-06-29T01:30:00	0.3026	12.337	201.5	0.805107189	1.058880420	0.021192134	0.218635342	0.067385536
2019-06-29T01:35:00	0.3026	12.317	201.4	0.804970324	1.058655502	0.021185231	0.218564128	0.067363587
2019-06-29T01:40:00	0.3020	12.298	201.2	0.803255110	1.055838236	0.021098829	0.217672732	0.067088850
2019-06-29T01:45:00	0.3009	12.277	201.1	0.799643406	1.049914612	0.020917520	0.215802199	0.066512334
2019-06-29T01:50:00	0.3030	12.258	201.0	0.806137506	1.060574133	0.021244137	0.219171844	0.067550891
2019-06-29T01:55:00	0.3010	12.239	200.9	0.800001337	1.050501138	0.020935450	0.215987183	0.066569348
2019-06-29T02:00:00	0.3004	12.221	200.8	0.797967736	1.047170300	0.020833689	0.214937330	0.066245773
2019-06-29T02:05:00	0.3002	12.202	187.9	0.797514420	1.046428321	0.020811042	0.214703683	0.066173760
2019-06-29T02:10:00	0.2984	12.182	187.6	0.791681086	1.036896880	0.020520805	0.211709360	0.065250881
2019-06-29T02:15:00	0.2997	12.163	200.5	0.795975009	1.043910015	0.020734234	0.213911269	0.065929531
2019-06-29T02:20:00	0.2995	12.146	200.4	0.795205070	1.042651280	0.020695876	0.213515539	0.065807563
2019-06-29T02:25:00	0.2985	12.127	187.4	0.791902430	1.037257991	0.020531777	0.211822563	0.065285771
2019-06-29T02:30:00	0.2992	12.109	187.4	0.794297729	1.041168595	0.020650722	0.213049696	0.065663985
2019-06-29T02:35:00	0.3014	12.091	200.0	0.801116828	1.052329782	0.020991384	0.216564239	0.066747202
2019-06-29T02:40:00	0.2993	12.073	187.2	0.794656161	1.041754220	0.020668553	0.213233655	0.065720683
2019-06-29T02:45:00	0.2993	12.056	187.1	0.794518921	1.041529977	0.020661725	0.213163209	0.065698971
2019-06-29T02:50:00	0.2995	12.039	187.0	0.795330961	1.042857057	0.020702145	0.213580217	0.065827497
2019-06-29T02:55:00	0.3009	12.022	199.6	0.799620783	1.049877546	0.020916387	0.215790510	0.066508731
2019-06-29T03:00:00	0.2994	12.007	186.8	0.795056526	1.042408493	0.020688480	0.213439236	0.065784045
2019-06-29T03:05:00	0.3003	11.990	186.7	0.797766046	1.046840155	0.020823611	0.214833358	0.066213727
2019-06-29T03:10:00	0.3004	11.975	186.6	0.797945104	1.047133252	0.020832558	0.214925662	0.066242176
2019-06-29T03:15:00	0.3004	11.959	186.5	0.798124153	1.047426364	0.020841507	0.215017982	0.066270630
2019-06-29T03:20:00	0.3002	11.944	199.2	0.797354648	1.046166851	0.020803063	0.214621365	0.066148389
2019-06-29T03:25:00	0.2988	11.928	199.0	0.793104265	1.039219483	0.020591411	0.212437794	0.065475391
2019-06-29T03:30:00	0.3018	11.913	198.9	0.802452728	1.054521220	0.021058476	0.217256414	0.066960537
2019-06-29T03:35:00	0.2993	11.898	186.1	0.794728775	1.041872875	0.020672167	0.213270933	0.065732173
2019-06-29T03:40:00	0.2977	11.883	198.7	0.789524969	1.033381599	0.020414086	0.210608365	0.064911543
2019-06-29T03:45:00	0.2993	11.869	198.7	0.794454296	1.041424388	0.020658510	0.213130041	0.065688748
2019-06-29T03:50:00	0.2972	11.855	198.6	0.787982328	1.030869070	0.020337917	0.209822540	0.064669345
2019-06-29T03:55:00	0.2990	11.842	198.5	0.793546776	1.039942023	0.020613392	0.212664563	0.065545284
2019-06-29T04:00:00	0.2999	11.830	185.7	0.796573667	1.044889100	0.020764085	0.214219240	0.066024450
2019-06-29T04:05:00	0.2987	11.818	198.3	0.792815505	1.038748085	0.020577075	0.212289887	0.065429805
2019-06-29T04:10:00	0.3006	11.808	198.2	0.798549110	1.048122155	0.020862754	0.215237183	0.066338190
2019-06-29T04:15:00	0.2996	11.797	198.2	0.795425708	1.043011936	0.020706864	0.213628901	0.065842502
2019-06-29T04:20:00	0.2987	11.786	185.5	0.792616376	1.038423052	0.020567191	0.212187922	0.065398378
2019-06-29T04:25:00	0.3001	11.777	185.4	0.797085515	1.045726465	0.020789626	0.214482744	0.066105665
2019-06-29T04:30:00	0.2996	11.767	185.3	0.795543100	1.043203842	0.020712712	0.213689229	0.065861096
2019-06-29T04:35:00	0.2999	11.758	185.3	0.796531216	1.044819662	0.020761968	0.214197394	0.066017717
2019-06-29T04:40:00	0.3001	11.750	185.3	0.797202855	1.045918463	0.020795484	0.214543176	0.066124290
2019-06-29T04:45:00	0.2992	11.743	185.2	0.794394831	1.041327234	0.020655552	0.213099524	0.065679343
2019-06-29T04:50:00	0.3008	11.736	185.2	0.799177974	1.049152103	0.020894217	0.215561785	0.066438236
2019-06-29T04:55:00	0.3001	11.730	185.1	0.797003955	1.045593020	0.020785555	0.214440744	0.066092720
2019-06-29T05:00:00	0.2995	11.727	185.1	0.795145115	1.042553285	0.020692891	0.213484740	0.065798070
2019-06-29T05:05:00	0.2999	11.724	185.1	0.796449644	1.044686238	0.020757899	0.214155419	0.066004780
2019-06-29T05:10:00	0.2995	11.722	185.1	0.795223383	1.042681212	0.020696788	0.213524946	0.065810462
2019-06-29T05:15:00	0.3009	11.722	185.0	0.799689473	1.049990095	0.020919827	0.215826003	0.066519670
2019-06-29T05:20:00	0.3017	11.721	185.0	0.802255925	1.054198279	0.021048585	0.217154368	0.066929085
2019-06-29T05:25:00	0.3016	11.723	185.0	0.801979160	1.053744185	0.021034679	0.217010905	0.066884869
2019-06-29T05:30:00	0.3019	11.724	185.0	0.802649843	1.054844708	0.021068385	0.217358648	0.066992046
2019-06-29T05:35:00	0.3014	11.727	185.0	0.801109672	1.052318048	0.020991025	0.216560534	0.066746060
2019-06-29T05:40:00	0.3012	11.732	185.0	0.800516877	1.051346133	0.020961291	0.216253774	0.066651513
2019-06-29T05:45:00	0.3011	11.738	197.3	0.800239986	1.050892266	0.020947410	0.216110569	0.066607376
2019-06-29T05:50:00	0.3018	11.746	185.0	0.802490285	1.054582852	0.021060364	0.217275891	0.066966540
2019-06-29T05:55:00	0.3007	11.755	185.1	0.799054035	1.048949089	0.020888014	0.215497790	0.066418512
2019-06-29T06:00:00	0.2990	11.765	185.1	0.793716029	1.040218429	0.020621802	0.212751333	0.065572027
2019-06-29T06:05:00	0.2992	11.774	185.1	0.794388164	1.041316342	0.020655221	0.213096102	0.065678288
2019-06-29T06:10:00	0.3003	11.786	185.1	0.797590633	1.046553052	0.020814848	0.214742954	0.066185864
2019-06-29T06:15:00	0.2999	11.798	185.2	0.796364738	1.044547368	0.020753665	0.214111733	0.065991315
2019-06-29T06:20:00	0.3010	11.812	185.2	0.799881577	1.050304880	0.020929450	0.215925280	0.066550268
2019-06-29T06:25:00	0.3021	11.828	185.4	0.803395183	1.056068209	0.021105878	0.217745454	0.067111264
2019-06-29T06:30:00	0.3011	11.845	185.5	0.800275740	1.050950867	0.020949202	0.216129057	0.066613074
2019-06-29T06:35:00	0.3010	11.864	185.4	0.799998831	1.050497032	0.020935325	0.215985888	0.066568948
2019-06-29T06:40:00	0.3019	11.883	185.6	0.802880853	1.055223865	0.021080002	0.217478494	0.067028984
2019-06-29T06:45:00	0.3016	11.904	185.7	0.801972506	1.053733269	0.021034345	0.217007457	0.066883806
2019-06-29T06:50:00	0.3006	11.927	198.5	0.798851901	1.048618019	0.020877900	0.215393442	0.066386351
2019-06-29T06:55:00	0.3015	11.951	185.9	0.801418915	1.052825191	0.021006545	0.216720655	0.066795411
2019-06-29T07:00:00	0.3021	11.977	198.7	0.803352808	1.055998635	0.021103746	0.217723453	0.067104483
2019-06-29T07:05:00	0.3025	12.004	198.8	0.804654540	1.058136623	0.021169310	0.218399866	0.067312960
2019-06-29T07:10:00	0.3016	12.047	199.0	0.801851985	1.053535550	0.021028291	0.216945000	0.066864556
2019-06-29T07:15:00	0.3038	12.100	186.5	0.808833375	1.065010336	0.021380532	0.220579007	0.067984592
2019-06-29T07:20:00	0.3040	12.138	186.7	0.809502860	1.066113027	0.021414478	0.220929217	0.068092530
2019-06-29T07:25:00	0.3034	12.178	199.6	0.807650082	1.063062355	0.021320606	0.219960760	0.067794043
2019-06-29T07:30:00	0.3028	12.216	187.1	0.805796409	1.060013306	0.021226913	0.218994150	0.067496124
2019-06-29T07:35:00	0.3021	12.262	199.9	0.803310432	1.055929062	0.021101613	0.217701452	0.067097702
2019-06-29T07:40:00	0.3024	12.287	187.3	0.804296543	1.057548491	0.021151268	0.218213729	0.067255590
2019-06-29T07:45:00	0.3030	12.322	200.3	0.806228984	1.060724558	0.021248757	0.219219512	0.067565583
2019-06-29T07:50:00	0.3036	12.375	187.6	0.808160451	1.063902389	0.021346442	0.220227302	0.067876193
2019-06-29T07:55:00	0.3028	12.400	200.6	0.805676008	1.059815369	0.021220835	0.218931446	0.067476798
2019-06-29T08:00:00	0.3025	12.404	200.7	0.804768324	1.058323576	0.021175046	0.218459046	0.067331200
2019-06-29T08:05:00	0.3029	12.439	200.9	0.806069575	1.060462433	0.021240706	0.219136449	0.067539982
2019-06-29T08:10:00	0.3028	12.479	201.1	0.805793085	1.060007842	0.021226745	0.218992419	0.067495590
2019-06-29T08:15:00	0.3041	12.519	201.2	0.809616501	1.066300241	0.021420242	0.220988693	0.068110861
2019-06-29T08:20:00	0.3036	12.569	201.4	0.808079127	1.063768518	0.021342324	0.220184818	0.067863099
2019-06-29T08:25:00	0.3039	12.618	201.7	0.809064013	1.065390167	0.021392223	0.220699620	0.068021766
2019-06-29T08:30:00	0.3041	12.673	202.0	0.809733458	1.066492931	0.021426177	0.221049914	0.068129730
2019-06-29T08:35:00	0.3048	12.738	202.3	0.811978192	1.070193593	0.021540241	0.222226699	0.068492427
2019-06-29T08:40:00	0.3029	12.806	202.6	0.806027229	1.060392806	0.021238568	0.219114387	0.067533182
2019-06-29T08:45:00	0.3017	12.841	189.9	0.802278353	1.054235080	0.021049712	0.217165996	0.066932669
2019-06-29T08:50:00	0.3013	12.886	190.1	0.801053960	1.052226693	0.020988229	0.216531695	0.066737171
2019-06-29T08:55:00	0.3013	12.936	190.4	0.800777108	1.051772755	0.020974341	0.216388410	0.066693009
2019-06-29T09:00:00	0.3012	13.009	190.7	0.800500236	1.051318854	0.020960457	0.216245166	0.066648860
2019-06-29T09:05:00	0.3000	13.086	191.0	0.796745938	1.045170904	0.020772680	0.214307907	0.066051778
2019-06-29T09:10:00	0.2998	13.159	191.2	0.796152466	1.044200207	0.020743080	0.214002535	0.065957660
2019-06-29T09:15:00	0.2981	13.210	191.6	0.790810397	1.035476829	0.020477673	0.211264379	0.065113733
2019-06-29T09:20:00	0.3002	13.291	192.0	0.797495761	1.046397783	0.020810110	0.214694068	0.066170797
2019-06-29T09:25:00	0.3014	13.335	192.2	0.801327465	1.052675209	0.021001955	0.216673297	0.066780815
2019-06-29T09:30:00	0.3022	13.386	192.5	0.803892819	1.056885373	0.021130931	0.218003918	0.067190925
2019-06-29T09:35:00	0.3028	13.434	192.7	0.805509928	1.059542359	0.021212453	0.218844969	0.067450145
2019-06-29T09:40:00	0.3014	13.480	206.2	0.801128779	1.052349380	0.020991984	0.216570426	0.066749109
2019-06-29T09:45:00	0.3014	13.538	193.3	0.801167851	1.052413453	0.020993944	0.216590654	0.066755343
2019-06-29T09:50:00	0.3010	13.590	206.7	0.799943104	1.050405706	0.020932533	0.215957082	0.066560070
2019-06-29T09:55:00	0.2996	13.640	206.9	0.795555570	1.043224228	0.020713333	0.213695638	0.065863071
2019-06-29T10:00:00	0.3025	13.688	207.2	0.804758350	1.058307189	0.021174543	0.218453858	0.067329601
2019-06-29T10:05:00	0.3003	13.733	207.4	0.797707779	1.046744784	0.020820700	0.214803326	0.066204471
2019-06-29T10:10:00	0.3019	13.779	207.6	0.802662791	1.054865957	0.021069036	0.217365364	0.066994116
2019-06-29T10:15:00	0.3015	13.824	207.9	0.801614581	1.053146118	0.021016369	0.216822001	0.066826647
2019-06-29T10:20:00	0.3015	13.850	208.1	0.801513833	1.052980870	0.021011310	0.216769816	0.066810562
2019-06-29T10:25:00	0.3009	13.888	208.3	0.799517299	1.049707994	0.020911205	0.215737045	0.066492253
2019-06-29T10:30:00	0.3016	13.921	208.5	0.801944066	1.053686612	0.021032916	0.216992718	0.066879263
2019-06-29T10:35:00	0.3013	13.953	208.6	0.800895659	1.051967128	0.020980288	0.216449760	0.066711918
2019-06-29T10:40:00	0.3013	13.984	208.8	0.800794893	1.051801914	0.020975233	0.216397613	0.066695846
2019-06-29T10:45:00	0.3007	14.014	209.0	0.799114072	1.049047428	0.020891019	0.215528789	0.066428066
2019-06-29T10:50:00	0.2992	14.043	209.2	0.794269053	1.041121747	0.020649296	0.213034982	0.065659451
2019-06-29T10:55:00	0.3000	14.074	209.3	0.796699155	1.045094372	0.020770346	0.214283826	0.066044356
2019-06-29T11:00:00	0.2996	14.108	209.4	0.795649308	1.043377478	0.020718003	0.213743818	0.065877921
2019-06-29T11:05:00	0.2998	14.143	209.6	0.796181093	1.044247022	0.020744507	0.214017259	0.065962198
2019-06-29T11:10:00	0.3010	14.178	209.8	0.799874239	1.050292856	0.020929083	0.215921488	0.066549099
2019-06-29T11:15:00	0.3010	14.212	196.6	0.800089454	1.050645549	0.020939866	0.216032737	0.066583388
2019-06-29T11:20:00	0.3008	14.252	196.8	0.799356607	1.049444732	0.020903159	0.215654039	0.066466669
2019-06-29T11:25:00	0.3001	14.296	210.4	0.797042711	1.045656431	0.020787490	0.214460701	0.066098871
2019-06-29T11:30:00	0.2983	14.350	197.3	0.791561710	1.036702144	0.020514888	0.211648321	0.065232068
2019-06-29T11:35:00	0.2993	14.409	211.1	0.794626484	1.041705728	0.020667077	0.213218420	0.065715988
2019-06-29T11:40:00	0.2965	14.464	211.3	0.785654475	1.027081685	0.020223269	0.208639735	0.064304793
2019-06-29T11:45:00	0.2983	14.514	211.7	0.791575377	1.036724438	0.020515566	0.211655309	0.065234222
2019-06-29T11:50:00	0.2976	14.566	198.4	0.789256755	1.032944601	0.020400832	0.210471622	0.064869398
2019-06-29T11:55:00	0.2983	14.617	198.6	0.791373349	1.036394898	0.020505555	0.211552028	0.065202389
2019-06-29T12:00:00	0.2982	14.668	212.5	0.790955592	1.035713587	0.020484862	0.211338548	0.065136593
2019-06-29T12:05:00	0.2987	14.715	212.7	0.792754652	1.038648753	0.020574054	0.212258724	0.065420200
2019-06-29T12:10:00	0.2972	14.765	213.0	0.787901542	1.030737551	0.020333932	0.209781431	0.064656675
2019-06-29T12:15:00	0.2981	14.813	213.3	0.790652496	1.035219373	0.020469856	0.211183735	0.065088878
2019-06-29T12:20:00	0.2979	14.863	213.6	0.790234660	1.034538202	0.020449180	0.210970417	0.065023131
2019-06-29T12:25:00	0.2983	14.916	213.9	0.791400683	1.036439483	0.020506909	0.211566000	0.065206696
2019-06-29T12:30:00	0.2980	14.975	214.2	0.790349377	1.034725202	0.020454855	0.211028972	0.065041179
2019-06-29T12:35:00	0.2972	15.036	214.6	0.788030009	1.030946696	0.020340269	0.209846805	0.064676823
2019-06-29T12:40:00	0.2985	15.093	214.9	0.792047726	1.037495057	0.020538982	0.211896890	0.065308679
2019-06-29T12:45:00	0.2986	15.151	215.3	0.792263382	1.037846959	0.020549678	0.212007236	0.065342689
2019-06-29T12:50:00	0.2961	15.212	215.6	0.784555150	1.025294785	0.020169248	0.208082415	0.064133021
2019-06-29T12:55:00	0.2977	15.266	215.9	0.789527266	1.033385342	0.020414200	0.210609536	0.064911904
2019-06-29T13:00:00	0.2980	15.322	216.2	0.790376719	1.034769773	0.020456208	0.211042929	0.065045480
2019-06-29T13:05:00	0.2963	15.373	216.6	0.785203357	1.026348284	0.020201091	0.208410936	0.064234275
2019-06-29T13:10:00	0.2967	15.429	216.9	0.786370922	1.028246819	0.020258517	0.209003384	0.064416873
2019-06-29T13:15:00	0.2963	15.481	217.2	0.785000991	1.026019348	0.020191147	0.208308344	0.064202655
2019-06-29T13:20:00	0.2961	15.536	217.6	0.784582533	1.025339283	0.020170593	0.208096287	0.064137297
2019-06-29T13:25:00	0.2959	15.591	217.9	0.783846699	1.024143805	0.020134476	0.207723681	0.064022456
2019-06-29T13:30:00	0.2945	15.643	218.2	0.779299937	1.016767619	0.019912087	0.205429328	0.063315314
2019-06-29T13:35:00	0.2946	15.693	218.5	0.779834011	1.017633087	0.019938140	0.205698115	0.063398157
2019-06-29T13:40:00	0.2954	15.737	218.8	0.782273345	1.021589271	0.020057370	0.206928189	0.063777277
2019-06-29T13:45:00	0.2942	15.779	219.0	0.778360357	1.015245646	0.019866297	0.204956920	0.063169713
2019-06-29T13:50:00	0.2950	15.817	219.2	0.780800637	1.019200155	0.019985341	0.206185079	0.063548244
2019-06-29T13:55:00	0.2941	15.848	219.5	0.778157625	1.014917356	0.019856424	0.204855067	0.063138321
2019-06-29T14:00:00	0.2950	15.872	219.6	0.780915639	1.019386648	0.019990961	0.206243055	0.063566113
2019-06-29T14:05:00	0.2949	15.887	219.8	0.780496732	1.018707381	0.019970495	0.206031911	0.063501036
2019-06-29T14:10:00	0.2944	15.893	219.9	0.779124679	1.016483668	0.019903541	0.205341166	0.063288142
2019-06-29T14:15:00	0.2932	15.895	219.9	0.775208438	1.010145786	0.019713105	0.203376466	0.062682602
2019-06-29T14:20:00	0.2948	15.892	220.0	0.780192801	1.018214650	0.019955653	0.205878793	0.063453843
2019-06-29T14:25:00	0.2939	15.887	220.0	0.777549365	1.013932600	0.019826819	0.204549637	0.063044185
2019-06-29T14:30:00	0.2927	15.881	220.0	0.773631494	1.007597589	0.019636701	0.202588222	0.062439657
2019-06-29T14:35:00	0.2921	15.874	219.9	0.771620265	1.004350842	0.019539488	0.201585293	0.062130545
2019-06-29T14:40:00	0.2912	15.865	219.8	0.768970832	1.000079335	0.019411824	0.200268207	0.061724606
2019-06-29T14:45:00	0.2896	15.853	220.2	0.763768139	0.991709544	0.019162441	0.197695369	0.060931633
2019-06-29T14:50:00	0.2918	15.839	219.8	0.770678776	1.002832226	0.019494070	0.201116727	0.061986129
2019-06-29T14:55:00	0.2906	15.827	219.8	0.767072543	0.997022690	0.019320631	0.199327390	0.061434637
2019-06-29T15:00:00	0.2923	15.818	219.8	0.772385948	1.005586468	0.019576466	0.201966796	0.062248128
2019-06-29T15:05:00	0.2909	15.809	219.8	0.767825397	0.998234559	0.019356770	0.199700229	0.061549550
2019-06-29T15:10:00	0.2895	15.803	219.8	0.763578391	0.991404744	0.019153378	0.197601873	0.060902816
2019-06-29T15:15:00	0.2910	15.797	219.8	0.768259460	0.998933501	0.019377623	0.199915362	0.061615856
2019-06-29T15:20:00	0.2914	15.790	219.8	0.769432257	1.000822812	0.019434025	0.200497256	0.061795202
2019-06-29T15:25:00	0.2897	15.780	219.7	0.764230201	0.992451909	0.019184519	0.197923144	0.061001835
2019-06-29T15:30:00	0.2905	15.768	219.7	0.766679614	0.996390391	0.019301784	0.199132946	0.061374708
2019-06-29T15:35:00	0.2907	15.755	219.6	0.767215472	0.997252724	0.019327489	0.199398144	0.061456445
2019-06-29T15:40:00	0.2910	15.742	219.6	0.768069938	0.998628306	0.019368517	0.199821415	0.061586901
2019-06-29T15:45:00	0.2924	15.730	219.5	0.772745445	1.006166787	0.019593841	0.202146050	0.062303376
2019-06-29T15:50:00	0.2911	15.716	219.5	0.768503973	0.999327297	0.019389375	0.200036604	0.061653224
2019-06-29T15:55:00	0.2916	15.702	219.5	0.769995215	1.001730140	0.019461131	0.200776897	0.061881389
2019-06-29T16:00:00	0.2912	15.690	219.4	0.768937959	1.000026375	0.019410243	0.200251894	0.061719579
2019-06-29T16:05:00	0.2909	15.676	219.4	0.767840990	0.998259665	0.019357519	0.199707955	0.061551931
2019-06-29T16:10:00	0.2909	15.659	219.3	0.768018613	0.998545661	0.019366051	0.199795976	0.061579060
2019-06-29T16:15:00	0.2903	15.641	219.2	0.765964957	0.995240722	0.019267530	0.198779556	0.061265790
2019-06-29T16:20:00	0.2902	15.623	219.1	0.765823822	0.995013732	0.019260769	0.198709807	0.061244292
2019-06-29T16:25:00	0.2902	15.605	219.1	0.765682682	0.994786752	0.019254010	0.198640068	0.061222798
2019-06-29T16:30:00	0.2888	15.585	219.0	0.761074529	0.987385669	0.019034008	0.196370354	0.060523250
2019-06-29T16:35:00	0.2899	15.567	218.9	0.764762542	0.993307423	0.019209972	0.198185738	0.061082769
2019-06-29T16:40:00	0.2891	15.548	218.8	0.762068812	0.988980977	0.019081362	0.196858895	0.060673823
2019-06-29T16:45:00	0.2896	15.529	218.8	0.763842178	0.991828486	0.019165978	0.197731858	0.060942879
2019-06-29T16:50:00	0.2904	15.512	218.7	0.766252410	0.995703094	0.019281304	0.198921658	0.061309587
2019-06-29T16:55:00	0.2901	15.493	218.7	0.765473563	0.994450480	0.019243996	0.198536763	0.061190959
2019-06-29T17:00:00	0.2902	15.472	218.5	0.765651297	0.994736281	0.019252507	0.198624562	0.061218019
2019-06-29T17:05:00	0.2888	15.451	218.4	0.761362355	0.987847391	0.019047710	0.196511711	0.060566818
2019-06-29T17:10:00	0.2901	15.433	218.3	0.765368998	0.994282352	0.019238991	0.198485120	0.061175042
2019-06-29T17:15:00	0.2894	15.413	218.3	0.762994814	0.990467517	0.019125521	0.197314472	0.060814237
2019-06-29T17:20:00	0.2889	15.394	218.2	0.761576909	0.988191620	0.019057927	0.196617117	0.060599305
2019-06-29T17:25:00	0.2906	15.374	218.1	0.766858627	0.996678440	0.019310369	0.199221519	0.061402007
2019-06-29T17:30:00	0.2910	15.355	218.0	0.768311107	0.999016675	0.019380105	0.199940968	0.061623748
2019-06-29T17:35:00	0.2899	15.335	217.9	0.764663161	0.993147690	0.019205219	0.198136701	0.061067655
2019-06-29T17:40:00	0.2904	15.315	217.8	0.766435307	0.995997324	0.019290071	0.199012101	0.061337462
2019-06-29T17:45:00	0.2907	15.294	217.7	0.767250527	0.997309145	0.019329172	0.199415499	0.061461794
2019-06-29T17:50:00	0.2893	15.273	217.7	0.762963406	0.990417085	0.019124022	0.197299011	0.060809471
2019-06-29T17:55:00	0.2896	15.252	217.5	0.763779377	0.991727597	0.019162978	0.197700907	0.060933340
2019-06-29T18:00:00	0.2882	15.232	217.5	0.759168893	0.984330567	0.018943427	0.195435845	0.060235225
2019-06-29T18:05:00	0.2877	15.211	217.3	0.757749546	0.982057173	0.018876112	0.194741364	0.060021180
2019-06-29T18:10:00	0.2911	15.189	217.3	0.768457346	0.999252197	0.019387133	0.200013481	0.061646097
2019-06-29T18:15:00	0.2903	15.168	217.1	0.766085105	0.995433973	0.019273287	0.198838945	0.061284094
2019-06-29T18:20:00	0.2897	15.148	217.0	0.764030395	0.992130871	0.019174970	0.197824632	0.060971473
2019-06-29T18:25:00	0.2898	15.126	217.0	0.764527180	0.992929146	0.019198716	0.198069615	0.061046979
2019-06-29T18:30:00	0.2904	15.106	216.8	0.766299390	0.995778669	0.019283556	0.198944888	0.061316747
2019-06-29T18:35:00	0.2906	15.084	216.7	0.766795876	0.996577464	0.019307359	0.199190469	0.061392437
2019-06-29T18:40:00	0.2888	15.062	216.6	0.761231462	0.987637408	0.019041478	0.196447420	0.060547003
2019-06-29T18:45:00	0.2914	15.040	216.5	0.769381780	1.000741471	0.019431596	0.200472193	0.061787477
2019-06-29T18:50:00	0.2897	15.018	216.4	0.764140199	0.992307295	0.019180217	0.197878766	0.060988158
2019-06-29T18:55:00	0.2914	14.995	216.2	0.769418330	1.000800369	0.019433355	0.200490341	0.061793070
2019-06-29T19:00:00	0.2910	14.973	216.1	0.768321501	0.999033415	0.019380604	0.199946122	0.061625337
2019-06-29T19:05:00	0.2894	14.950	216.0	0.763078445	0.990601812	0.019129512	0.197355645	0.060826927
2019-06-29T19:10:00	0.2899	14.927	215.9	0.764851337	0.993450147	0.019214219	0.198229557	0.061096275
2019-06-29T19:15:00	0.2923	14.903	215.8	0.772357287	1.005540205	0.019575082	0.201952508	0.062243724
2019-06-29T19:20:00	0.2921	14.881	215.7	0.771579697	1.004285391	0.019537530	0.201565091	0.062124319
2019-06-29T19:25:00	0.2929	14.857	215.6	0.774303155	1.008682661	0.019669224	0.202923754	0.062543072
2019-06-29T19:30:00	0.2932	14.835	215.5	0.775116680	1.009997453	0.019708654	0.203330555	0.062668452
2019-06-29T19:35:00	0.2948	14.813	215.3	0.780379523	1.018517353	0.019964770	0.205972855	0.063482834
2019-06-29T19:40:00	0.2956	14.790	215.2	0.782779245	1.022410420	0.020082146	0.207183793	0.063856057
2019-06-29T19:45:00	0.2959	14.767	215.1	0.783908305	1.024243876	0.020137499	0.207754863	0.064032066
2019-06-29T19:50:00	0.2960	14.744	215.0	0.784085176	1.024531195	0.020146178	0.207844400	0.064059663
2019-06-29T19:55:00	0.2969	14.721	214.9	0.787116755	1.029460228	0.020295246	0.209382311	0.064533662
2019-06-29T20:00:00	0.2958	14.698	214.8	0.783486888	1.023559413	0.020116829	0.207541614	0.063966341
2019-06-29T20:05:00	0.2966	14.674	214.6	0.785884648	1.027455958	0.020234589	0.208756527	0.064340789
2019-06-29T20:10:00	0.2958	14.650	214.5	0.783523302	1.023618550	0.020118614	0.207560036	0.063972019
2019-06-29T20:15:00	0.2950	14.625	214.3	0.780842905	1.019268696	0.019987406	0.206206386	0.063554811
2019-06-29T20:20:00	0.2979	14.599	214.2	0.790218620	1.034512057	0.020448386	0.210962230	0.065020608
2019-06-29T20:25:00	0.2968	14.574	214.1	0.786591714	1.028605976	0.020269386	0.209115520	0.064451434
2019-06-29T20:30:00	0.2981	14.549	213.9	0.790888538	1.035604245	0.020481542	0.211304294	0.065126035
2019-06-29T20:35:00	0.2969	14.524	213.9	0.786945197	1.029181073	0.020286794	0.209295117	0.064506788
2019-06-29T20:40:00	0.2965	14.499	213.7	0.785853430	1.027405193	0.020233054	0.208740685	0.064335906
2019-06-29T20:45:00	0.2953	14.476	213.5	0.781904862	1.020991313	0.020039335	0.206742121	0.063719930
2019-06-29T20:50:00	0.2968	14.452	213.4	0.786524116	1.028496012	0.020266058	0.209081185	0.064440852
2019-06-29T20:55:00	0.2951	14.428	213.3	0.781306230	1.020020140	0.020010053	0.206440032	0.063626823
2019-06-29T21:00:00	0.2926	14.406	199.5	0.773218124	1.006929987	0.019616699	0.202381870	0.062376058
2019-06-29T21:05:00	0.2944	14.383	199.4	0.779119136	1.016474690	0.019903271	0.205338379	0.063287283
2019-06-29T21:10:00	0.2936	14.361	212.9	0.776435624	1.012130341	0.019772673	0.203991024	0.062872015
2019-06-29T21:15:00	0.2948	14.338	199.2	0.780426327	1.018593235	0.019967056	0.205996436	0.063490102
2019-06-29T21:20:00	0.2944	14.316	199.1	0.779014949	1.016305900	0.019898192	0.205285978	0.063271132
2019-06-29T21:25:00	0.2957	14.293	199.0	0.783320343	1.023288955	0.020108663	0.207457370	0.063940376
2019-06-29T21:30:00	0.2929	14.272	198.9	0.774282219	1.008648833	0.019668209	0.202913290	0.062539847
2019-06-29T21:35:00	0.2956	14.252	198.7	0.782721934	1.022317386	0.020079338	0.207154829	0.063847130
2019-06-29T21:40:00	0.2953	14.230	212.2	0.781946469	1.021058826	0.020041371	0.206763127	0.063726404
2019-06-29T21:45:00	0.2943	14.209	198.5	0.778629449	1.015681453	0.019879405	0.205092156	0.063211394
2019-06-29T21:50:00	0.2956	14.187	198.4	0.782935280	1.022663734	0.020089790	0.207262664	0.063880366
2019-06-29T21:55:00	0.2957	14.165	211.8	0.783112196	1.022950973	0.020098460	0.207352109	0.063907934
2019-06-29T22:00:00	0.2984	14.143	198.2	0.791849023	1.037170856	0.020529130	0.211795246	0.065277352
2019-06-29T22:05:00	0.2964	14.120	198.1	0.785279960	1.026472809	0.020204856	0.208449778	0.064246246
2019-06-29T22:10:00	0.2954	14.098	197.9	0.782193444	1.021459602	0.020053459	0.206887835	0.063764840
2019-06-29T22:15:00	0.2949	14.075	197.8	0.780692791	1.019025276	0.019980072	0.206130717	0.063531489
2019-06-29T22:20:00	0.2969	14.053	197.7	0.787126595	1.029476240	0.020295731	0.209387313	0.064535203
2019-06-29T22:25:00	0.2955	14.030	197.6	0.782454606	1.021883459	0.020066245	0.207019751	0.063805498
2019-06-29T22:30:00	0.2950	14.008	211.0	0.780954056	1.019448949	0.019992838	0.206262424	0.063572082
2019-06-29T22:35:00	0.2968	13.986	197.4	0.786753267	1.028868800	0.020277341	0.209197591	0.064476729
2019-06-29T22:40:00	0.2963	13.962	197.2	0.784937174	1.025915624	0.020188012	0.208275996	0.064192685
2019-06-29T22:45:00	0.2953	13.939	210.5	0.781850379	1.020902912	0.020036669	0.206714618	0.063711453
2019-06-29T22:50:00	0.2961	13.917	210.4	0.784476627	1.025167192	0.020165393	0.208042637	0.064120761
2019-06-29T22:55:00	0.2972	13.893	196.8	0.788052161	1.030982763	0.020341362	0.209858079	0.064680298
2019-06-29T23:00:00	0.2972	13.869	210.2	0.787822084	1.030608199	0.020330014	0.209741002	0.064644214
2019-06-29T23:05:00	0.2960	13.846	210.0	0.784103039	1.024560214	0.020147054	0.207853444	0.064062450
2019-06-29T23:10:00	0.2954	13.822	209.8	0.782285678	1.021609287	0.020057974	0.206934418	0.063779197
2019-06-29T23:15:00	0.2985	13.801	209.7	0.792201517	1.037746003	0.020546609	0.211975578	0.065332932
2019-06-29T23:20:00	0.2966	13.781	209.6	0.785950245	1.027562630	0.020237816	0.208789818	0.064351050
2019-06-29T23:25:00	0.2970	13.759	209.5	0.787305650	1.029767624	0.020304554	0.209478340	0.064563259
2019-06-29T23:30:00	0.2965	13.737	209.4	0.785807015	1.027329718	0.020230771	0.208717132	0.064328647
2019-06-29T23:35:00	0.2949	13.716	209.2	0.780498206	1.018709772	0.019970567	0.206032654	0.063501265
2019-06-29T23:40:00	0.2961	13.695	209.1	0.784394797	1.025034229	0.020161375	0.208001188	0.064107986
2019-06-29T23:45:00	0.2950	13.676	209.0	0.780989991	1.019507227	0.019994594	0.206280543	0.063577667
2019-06-29T23:50:00	0.2965	13.656	208.9	0.785837731	1.027379664	0.020232281	0.208732718	0.064333451
2019-06-29T23:55:00	0.2958	13.638	208.7	0.783386487	1.023396366	0.020111906	0.207490826	0.063950688
2019-06-30T00:00:00	0.2956	13.618	208.7	0.782838711	1.022506958	0.020085059	0.207213850	0.063865321
2019-06-30T00:05:00	0.2943	13.599	208.4	0.778797028	1.015952888	0.019887571	0.205176400	0.063237359
2019-06-30T00:10:00	0.2962	13.579	208.4	0.784916800	1.025882510	0.020187011	0.208265670	0.064189502
2019-06-30T00:15:00	0.2958	13.559	208.3	0.783417222	1.023446277	0.020113413	0.207506373	0.063955479
2019-06-30T00:20:00	0.2948	13.541	208.1	0.780329191	1.018435756	0.019962312	0.205947498	0.063475019
2019-06-30T00:25:00	0.2947	13.522	208.0	0.780098645	1.018062022	0.019951056	0.205831370	0.063439227
2019-06-30T00:30:00	0.2955	13.502	207.9	0.782408653	1.021808874	0.020063995	0.206996537	0.063798343
2019-06-30T00:35:00	0.2963	13.482	207.7	0.785034516	1.026073838	0.020192794	0.208325338	0.064207892
2019-06-30T00:40:00	0.2966	13.463	207.6	0.786073102	1.027762427	0.020243860	0.208852177	0.064370269
2019-06-30T00:45:00	0.2956	13.445	207.5	0.782987230	1.022748077	0.020092336	0.207288927	0.063888460
2019-06-30T00:50:00	0.2948	13.427	207.4	0.780216511	1.018253085	0.019956811	0.205890735	0.063457524
2019-06-30T00:55:00	0.2967	13.410	207.3	0.786333997	1.028186757	0.020256699	0.208984633	0.064411094
2019-06-30T01:00:00	0.2979	13.394	207.2	0.790224613	1.034521825	0.020448683	0.210965289	0.065021551
2019-06-30T01:05:00	0.2958	13.376	193.8	0.783335369	1.023313355	0.020109400	0.207464970	0.063942719
2019-06-30T01:10:00	0.2957	13.358	193.8	0.783105006	1.022939299	0.020098108	0.207348473	0.063906813
2019-06-30T01:15:00	0.2957	13.341	193.6	0.783192041	1.023080618	0.020102374	0.207392484	0.063920378
2019-06-30T01:20:00	0.2964	13.325	193.6	0.785500168	1.026830802	0.020215681	0.208561458	0.064280667
2019-06-30T01:25:00	0.2931	13.309	193.4	0.774787025	1.009464605	0.019692671	0.203165659	0.062617629
2019-06-30T01:30:00	0.2938	13.293	206.6	0.777100271	1.013205742	0.019804976	0.204324288	0.062974730
2019-06-30T01:35:00	0.2946	13.277	193.3	0.779729807	1.017464205	0.019933055	0.205645657	0.063381989
2019-06-30T01:40:00	0.2938	13.262	193.2	0.777274615	1.013487896	0.019813454	0.204411755	0.063001688
2019-06-30T01:45:00	0.2941	13.245	193.1	0.777997505	1.014658095	0.019848628	0.204774641	0.063113533
2019-06-30T01:50:00	0.2943	13.230	193.0	0.778720258	1.015828537	0.019883830	0.205137804	0.063225464
2019-06-30T01:55:00	0.2931	13.215	192.9	0.774992279	1.009796362	0.019702622	0.203268320	0.062649270
2019-06-30T02:00:00	0.2935	13.200	192.8	0.776033617	1.011480085	0.019753149	0.203789595	0.062809932
2019-06-30T02:05:00	0.2923	13.184	192.7	0.772302991	1.005452570	0.019572458	0.201925443	0.062235383
2019-06-30T02:10:00	0.2916	13.169	192.6	0.770161481	1.001998168	0.019469140	0.200859527	0.061906857
2019-06-30T02:15:00	0.2932	13.154	192.6	0.775341153	1.010360343	0.019719542	0.203442879	0.062703071
2019-06-30T02:20:00	0.2920	13.138	192.5	0.771291459	1.003820391	0.019523620	0.201421584	0.062080088
2019-06-30T02:25:00	0.2914	13.123	192.4	0.769467941	1.000880315	0.019435743	0.200514975	0.061800663
2019-06-30T02:30:00	0.2905	13.107	192.3	0.766687304	0.996402765	0.019302153	0.199136751	0.061375881
2019-06-30T02:35:00	0.2919	13.090	192.2	0.771234985	1.003729292	0.019520895	0.201393473	0.062071424
2019-06-30T02:40:00	0.2927	13.074	192.1	0.773550402	1.007466612	0.019632776	0.202547732	0.062427178
2019-06-30T02:45:00	0.2933	13.059	192.0	0.775546377	1.010692153	0.019729499	0.203545601	0.062734731
2019-06-30T02:50:00	0.2936	13.044	191.9	0.776587563	1.012376144	0.019780055	0.204067183	0.062895488
2019-06-30T02:55:00	0.2935	13.028	191.8	0.776038804	1.011488473	0.019753401	0.203792193	0.062810733
2019-06-30T03:00:00	0.2924	13.014	191.7	0.772626482	1.005974737	0.019588091	0.202086722	0.062285090
2019-06-30T03:05:00	0.2910	12.999	191.6	0.768255237	0.998926701	0.019377420	0.199913269	0.061615211
2019-06-30T03:10:00	0.2926	12.985	191.5	0.773437519	1.007284297	0.019627314	0.202491377	0.062409809
2019-06-30T03:15:00	0.2909	12.970	191.5	0.767792658	0.998181849	0.019355198	0.199684007	0.061544550
2019-06-30T03:20:00	0.2909	12.957	191.4	0.767880045	0.998322547	0.019359395	0.199727307	0.061557896
2019-06-30T03:25:00	0.2932	12.943	204.4	0.775289926	1.010277524	0.019717057	0.203417243	0.062695170
2019-06-30T03:30:00	0.2935	12.930	204.3	0.776331183	1.011961391	0.019767600	0.203938682	0.062855883
2019-06-30T03:35:00	0.2936	12.917	204.2	0.776418373	1.012102435	0.019771835	0.203982378	0.062869350
2019-06-30T03:40:00	0.2928	12.904	191.1	0.773961033	1.008129911	0.019652654	0.202752807	0.062490384
2019-06-30T03:45:00	0.2951	12.892	191.0	0.781359030	1.020105785	0.020012635	0.206466667	0.063635032
2019-06-30T03:50:00	0.2938	12.879	190.9	0.776997864	1.013040022	0.019799997	0.204272921	0.062958898
2019-06-30T03:55:00	0.2955	12.867	190.9	0.782485673	1.021933882	0.020067766	0.207035446	0.063810335
2019-06-30T04:00:00	0.2961	12.857	203.8	0.784476951	1.025167717	0.020165408	0.208042801	0.064120812
2019-06-30T04:05:00	0.2959	12.845	203.8	0.783830956	1.024118233	0.020133704	0.207715713	0.064020000
2019-06-30T04:10:00	0.2961	12.834	203.7	0.784454238	1.025130812	0.020164293	0.208031296	0.064117266
2019-06-30T04:15:00	0.2970	12.825	203.6	0.787297463	1.029754299	0.020304150	0.209474178	0.064561976
2019-06-30T04:20:00	0.2976	12.815	203.6	0.789187985	1.032832564	0.020397434	0.210436568	0.064858594
2019-06-30T04:25:00	0.2992	12.806	203.5	0.794243674	1.041080288	0.020648034	0.213021961	0.065655437
2019-06-30T04:30:00	0.2983	12.797	203.4	0.791382962	1.036410579	0.020506031	0.211556942	0.065203904
2019-06-30T04:35:00	0.3013	12.786	203.3	0.800861343	1.051910863	0.020978566	0.216432000	0.066706444
2019-06-30T04:40:00	0.3005	12.778	203.3	0.798321742	1.047749860	0.020851384	0.215119887	0.066302038
2019-06-30T04:45:00	0.3010	12.770	203.2	0.799890811	1.050320012	0.020929913	0.215930053	0.066551739
2019-06-30T04:50:00	0.3023	12.765	203.2	0.803985459	1.057037522	0.021135596	0.218052052	0.067205760
2019-06-30T04:55:00	0.3028	12.760	203.1	0.805552208	1.059611859	0.021214587	0.218866983	0.067456930
2019-06-30T05:00:00	0.3025	12.756	203.1	0.804594161	1.058037422	0.021166266	0.218368467	0.067303282
2019-06-30T05:05:00	0.3033	12.752	203.1	0.807107028	1.062168781	0.021293134	0.219677342	0.067706690
2019-06-30T05:10:00	0.3023	12.750	203.0	0.803940265	1.056963296	0.021133320	0.218028570	0.067198523
2019-06-30T05:15:00	0.3029	12.749	203.0	0.805822568	1.060056313	0.021228234	0.219007775	0.067500323
2019-06-30T05:20:00	0.3014	12.749	203.0	0.801075501	1.052262014	0.020989310	0.216542845	0.066740608
2019-06-30T05:25:00	0.3024	12.750	202.9	0.804537678	1.057944624	0.021163419	0.218339095	0.067294230
2019-06-30T05:30:00	0.3021	12.750	203.0	0.803579377	1.056370647	0.021115149	0.217841102	0.067140743
2019-06-30T05:35:00	0.3018	12.753	203.0	0.802620836	1.054797102	0.021066927	0.217343602	0.066987409
2019-06-30T05:40:00	0.3022	12.755	203.0	0.803872474	1.056851961	0.021129906	0.217993348	0.067187667
2019-06-30T05:45:00	0.3036	12.759	189.8	0.808278203	1.064096233	0.021352405	0.220288823	0.067895155
2019-06-30T05:50:00	0.3025	12.765	203.0	0.804796814	1.058370389	0.021176482	0.218473865	0.067335767
2019-06-30T05:55:00	0.3034	12.770	203.0	0.807624935	1.063020970	0.021319333	0.219947632	0.067789996
2019-06-30T06:00:00	0.3038	12.777	203.0	0.808874940	1.065078785	0.021382639	0.220600741	0.067991291
2019-06-30T06:05:00	0.3038	12.785	203.1	0.808863656	1.065060202	0.021382067	0.220594840	0.067989472
2019-06-30T06:10:00	0.3039	12.794	203.1	0.809167632	1.065560832	0.021397476	0.220753820	0.068038471
2019-06-30T06:15:00	0.3040	12.805	203.2	0.809471585	1.066061505	0.021412891	0.220912850	0.068087486
2019-06-30T06:20:00	0.3067	12.817	203.2	0.817961920	1.080080586	0.021845913	0.225380253	0.069464383
2019-06-30T06:25:00	0.3058	12.830	203.3	0.815118869	1.075378939	0.021700386	0.223878886	0.069001647
2019-06-30T06:30:00	0.3052	12.844	203.3	0.813218577	1.072240439	0.021603412	0.222878421	0.068693294
2019-06-30T06:35:00	0.3057	12.859	190.4	0.814781564	1.074821611	0.021683156	0.223701123	0.068946859
2019-06-30T06:40:00	0.3059	12.875	190.5	0.815399822	1.075843234	0.021714744	0.224027009	0.069047300
2019-06-30T06:45:00	0.3064	12.892	203.5	0.816961922	1.078426023	0.021794666	0.224851548	0.069301431
2019-06-30T06:50:00	0.3063	12.911	203.6	0.816636039	1.077887024	0.021777979	0.224679397	0.069248372
2019-06-30T06:55:00	0.3050	12.931	203.7	0.812532330	1.071107843	0.021568450	0.222517725	0.068582124
2019-06-30T07:00:00	0.3064	12.953	190.8	0.816928141	1.078370147	0.021792936	0.224833699	0.069295930
2019-06-30T07:05:00	0.3068	12.977	203.9	0.818175125	1.080433466	0.021856847	0.225493064	0.069499152
2019-06-30T07:10:00	0.3066	13.012	191.0	0.817534796	1.079373771	0.021824016	0.225154347	0.069394756
2019-06-30T07:15:00	0.3071	13.063	191.2	0.819096031	1.081958144	0.021904112	0.225980685	0.069649442
2019-06-30T07:20:00	0.3071	13.096	191.4	0.819084777	1.081939507	0.021903534	0.225974722	0.069647604
2019-06-30T07:25:00	0.3068	13.133	204.6	0.818130098	1.080358938	0.021854538	0.225469237	0.069491809
2019-06-30T07:30:00	0.3060	13.168	191.7	0.815601905	1.076177236	0.021725074	0.224133583	0.069080147
2019-06-30T07:35:00	0.3048	13.208	191.8	0.811812135	1.069919675	0.021531792	0.222139528	0.068465560
2019-06-30T07:40:00	0.3051	13.232	192.0	0.812745837	1.071460173	0.021579324	0.222629912	0.068616701
2019-06-30T07:45:00	0.3052	13.256	192.1	0.813364422	1.072481199	0.021610846	0.222955119	0.068716933
2019-06-30T07:50:00	0.3055	13.311	192.3	0.814297747	1.074022383	0.021658454	0.223446282	0.068868314
2019-06-30T07:55:00	0.3062	13.335	192.4	0.816489641	1.077644918	0.021770485	0.224602085	0.069224544
2019-06-30T08:00:00	0.3057	13.332	192.5	0.814904817	1.075025250	0.021689451	0.223766070	0.068966876
2019-06-30T08:05:00	0.3063	13.367	192.6	0.816781755	1.078128020	0.021785440	0.224756364	0.069272094
2019-06-30T08:10:00	0.3064	13.403	192.8	0.817085105	1.078629789	0.021800975	0.224916639	0.069321493
2019-06-30T08:15:00	0.3067	13.438	192.9	0.818017529	1.080172622	0.021848764	0.225409674	0.069473451
2019-06-30T08:20:00	0.3059	13.485	193.1	0.815489261	1.075991055	0.021719315	0.224074174	0.069061837
2019-06-30T08:25:00	0.3068	13.529	206.5	0.818309526	1.080655936	0.021863742	0.225564193	0.069521075
2019-06-30T08:30:00	0.3072	13.586	206.8	0.819556063	1.082720074	0.021927743	0.226224487	0.069724584
2019-06-30T08:35:00	0.3054	13.654	207.2	0.813881486	1.073334921	0.021637214	0.223227152	0.068800776
2019-06-30T08:40:00	0.3067	13.727	207.5	0.817961243	1.080079466	0.021845878	0.225379895	0.069464273
2019-06-30T08:45:00	0.3077	13.771	207.8	0.821093984	1.085268651	0.022006846	0.227040578	0.069976111
2019-06-30T08:50:00	0.3059	13.823	194.8	0.815421674	1.075879349	0.021715861	0.224038532	0.069050851
2019-06-30T08:55:00	0.3071	13.877	208.3	0.819185385	1.082106122	0.021908701	0.226028028	0.069664033
2019-06-30T09:00:00	0.3072	13.949	208.6	0.819488547	1.082608237	0.021924274	0.226188697	0.069713553
2019-06-30T09:05:00	0.3050	14.035	209.1	0.812554199	1.071143929	0.021569564	0.222529215	0.068585665
2019-06-30T09:10:00	0.3047	14.118	196.1	0.811597898	1.069566322	0.021520894	0.222027094	0.068430907
2019-06-30T09:15:00	0.3049	14.176	209.9	0.812216668	1.070587011	0.021552379	0.222351918	0.068531021
2019-06-30T09:20:00	0.3076	14.265	210.3	0.820700955	1.084617137	0.021986616	0.226831867	0.069911784
2019-06-30T09:25:00	0.3067	14.314	210.6	0.817859926	1.079911789	0.021840683	0.225326297	0.069447753
2019-06-30T09:30:00	0.3064	14.370	197.4	0.816904944	1.078331776	0.021791748	0.224821443	0.069292152
2019-06-30T09:35:00	0.3079	14.424	211.2	0.821610011	1.086124270	0.022033423	0.227314765	0.070060618
2019-06-30T09:40:00	0.3052	14.476	197.9	0.813105186	1.072053267	0.021597633	0.222818800	0.068674918
2019-06-30T09:45:00	0.3058	14.539	198.3	0.814983002	1.075154435	0.021693445	0.223807274	0.068979575
2019-06-30T09:50:00	0.3046	14.599	212.1	0.811192622	1.068897987	0.021500286	0.221814483	0.068365378
2019-06-30T09:55:00	0.3053	14.659	212.5	0.813386286	1.072517293	0.021611961	0.222966618	0.068720477
2019-06-30T10:00:00	0.3054	14.717	212.8	0.813689905	1.073018573	0.021627443	0.223126337	0.068769704
2019-06-30T10:05:00	0.3040	14.775	213.1	0.809451984	1.066029215	0.021411897	0.220902593	0.068084324
2019-06-30T10:10:00	0.3036	14.828	213.4	0.808048483	1.063718075	0.021340772	0.220168811	0.067858166
2019-06-30T10:15:00	0.3035	14.884	213.7	0.807906079	1.063483679	0.021333563	0.220094433	0.067835242
2019-06-30T10:20:00	0.3026	14.922	213.9	0.804924356	1.058579964	0.021182913	0.218540212	0.067356216
2019-06-30T10:25:00	0.3013	14.968	214.2	0.800992666	1.052126186	0.020985154	0.216499967	0.066727393
2019-06-30T10:30:00	0.3004	15.011	214.4	0.798005552	1.047232205	0.020835579	0.214956827	0.066251782
2019-06-30T10:35:00	0.3006	15.049	214.7	0.798811194	1.048551350	0.020875863	0.215372431	0.066379875
2019-06-30T10:40:00	0.2989	15.085	214.9	0.793290748	1.039523955	0.020600673	0.212533343	0.065504840
2019-06-30T10:45:00	0.3015	15.125	215.1	0.801685632	1.053262663	0.021019936	0.216858809	0.066837991
2019-06-30T10:50:00	0.2989	15.161	215.3	0.793321404	1.039574009	0.020602195	0.212549052	0.065509682
2019-06-30T10:55:00	0.3000	15.199	215.5	0.796659105	1.045028857	0.020768347	0.214263212	0.066038003
2019-06-30T11:00:00	0.2995	15.234	215.7	0.795250905	1.042726197	0.020698158	0.213539085	0.065814820
2019-06-30T11:05:00	0.2987	15.267	215.9	0.792575925	1.038357029	0.020565184	0.212167212	0.065391995
2019-06-30T11:10:00	0.2982	15.299	216.1	0.791166216	1.036057070	0.020495294	0.211446165	0.065169762
2019-06-30T11:15:00	0.2985	15.333	216.3	0.791973303	1.037373626	0.020535291	0.211858817	0.065296945
2019-06-30T11:20:00	0.2971	15.368	216.5	0.787711241	1.030427764	0.020324548	0.209684612	0.064626834
2019-06-30T11:25:00	0.2962	15.415	216.7	0.784713699	1.025552433	0.020177034	0.208162744	0.064157779
2019-06-30T11:30:00	0.2947	15.472	203.2	0.780125845	1.018106113	0.019952384	0.205845069	0.063443449
2019-06-30T11:35:00	0.2941	15.529	203.5	0.778075910	1.014785043	0.019852445	0.204814020	0.063125670
2019-06-30T11:40:00	0.2946	15.590	217.8	0.779838941	1.017641077	0.019938381	0.205700597	0.063398922
2019-06-30T11:45:00	0.2943	15.650	218.1	0.778742285	1.015864215	0.019884903	0.205148878	0.063228877
2019-06-30T11:50:00	0.2948	15.711	218.5	0.780187368	1.018205844	0.019955388	0.205876056	0.063453000
2019-06-30T11:55:00	0.2920	15.770	218.8	0.771457308	1.004087937	0.019531623	0.201504149	0.062105536
2019-06-30T12:00:00	0.2929	15.827	219.1	0.774178007	1.008480453	0.019663162	0.202861212	0.062523796
2019-06-30T12:05:00	0.2939	15.877	219.5	0.777532551	1.013905384	0.019826001	0.204541198	0.063041584
2019-06-30T12:10:00	0.2946	15.923	219.7	0.779613546	1.017275793	0.019927383	0.205587138	0.063363952
2019-06-30T12:15:00	0.2923	15.966	219.9	0.772473987	1.005728574	0.019580721	0.202010686	0.062261655
2019-06-30T12:20:00	0.2915	16.005	220.2	0.769782907	1.001387927	0.019450906	0.200671411	0.061848878
2019-06-30T12:25:00	0.2920	16.046	220.5	0.771549804	1.004237161	0.019536087	0.201550205	0.062119731
2019-06-30T12:30:00	0.2924	16.098	220.8	0.772679367	1.006060111	0.019590647	0.202113095	0.062293219
2019-06-30T12:35:00	0.2915	16.155	221.1	0.769669912	1.001205809	0.019445465	0.200615282	0.061831578
2019-06-30T12:40:00	0.2910	16.211	221.4	0.768251664	0.998920946	0.019377248	0.199911497	0.061614665
2019-06-30T12:45:00	0.2915	16.267	221.7	0.769700759	1.001255524	0.019446951	0.200630604	0.061836301
2019-06-30T12:50:00	0.2899	16.322	222.0	0.764775728	0.993328617	0.019210603	0.198192245	0.061084775
2019-06-30T12:55:00	0.2897	16.372	222.3	0.763993721	0.992071949	0.019173218	0.197806553	0.060965901
2019-06-30T13:00:00	0.2910	16.427	222.6	0.768313381	0.999020337	0.019380214	0.199942095	0.061624096
2019-06-30T13:05:00	0.2909	16.479	223.0	0.767850808	0.998275473	0.019357991	0.199712820	0.061553431
2019-06-30T13:10:00	0.2894	16.540	223.3	0.763242451	0.990865187	0.019137339	0.197436402	0.060851816
2019-06-30T13:15:00	0.2885	16.593	223.7	0.760225456	0.986024044	0.018993620	0.195953679	0.060394827
2019-06-30T13:20:00	0.2908	16.650	224.0	0.767737755	0.998093456	0.019352561	0.199656806	0.061536167
2019-06-30T13:25:00	0.2890	16.707	224.4	0.761852695	0.988634147	0.019071064	0.196752650	0.060641078
2019-06-30T13:30:00	0.2899	16.763	224.7	0.764580323	0.993014554	0.019201257	0.198095832	0.061055059
2019-06-30T13:35:00	0.2885	16.817	225.1	0.760287304	0.986123206	0.018996561	0.195984015	0.060404177
2019-06-30T13:40:00	0.2904	16.870	225.4	0.766205682	0.995627927	0.019279065	0.198898555	0.061302466
2019-06-30T13:45:00	0.2885	16.919	225.7	0.760318227	0.986172787	0.018998031	0.195999183	0.060408852
2019-06-30T13:50:00	0.2877	16.964	226.0	0.757618455	0.981847291	0.018869901	0.194677288	0.060001431
2019-06-30T13:55:00	0.2872	17.002	226.3	0.756195662	0.979570334	0.018802563	0.193982577	0.059787314
2019-06-30T14:00:00	0.2874	17.035	226.5	0.756690622	0.980362236	0.018825974	0.194224101	0.059861754
2019-06-30T14:05:00	0.2875	17.062	226.7	0.757185516	0.981154251	0.018849397	0.194465755	0.059936234
2019-06-30T14:10:00	0.2869	17.085	226.9	0.755123080	0.977855021	0.018751885	0.193459745	0.059626172
2019-06-30T14:15:00	0.2861	17.102	226.9	0.752739554	0.974046842	0.018639531	0.192300603	0.059268913
2019-06-30T14:20:00	0.2857	17.117	227.2	0.751314911	0.971773079	0.018572549	0.191609563	0.059055928
2019-06-30T14:25:00	0.2852	17.126	227.2	0.749569499	0.968989809	0.018490662	0.190764749	0.058795548
2019-06-30T14:30:00	0.2856	17.131	227.3	0.751025806	0.971311880	0.018558972	0.191469492	0.059012757
2019-06-30T14:35:00	0.2863	17.129	227.2	0.753121476	0.974656705	0.018657509	0.192486086	0.059326081
2019-06-30T14:40:00	0.2863	17.125	227.3	0.753296932	0.974936920	0.018665772	0.192571329	0.059352354
2019-06-30T14:45:00	0.2842	17.119	227.4	0.746427798	0.963986770	0.018343755	0.189249143	0.058328424
2019-06-30T14:50:00	0.2848	17.113	227.3	0.748526041	0.967327175	0.018441800	0.190260650	0.058640180
2019-06-30T14:55:00	0.2863	17.104	227.3	0.753183441	0.974755664	0.018660427	0.192516189	0.059335359
2019-06-30T15:00:00	0.2844	17.093	227.3	0.747275533	0.965335897	0.018383334	0.189657466	0.058454273
2019-06-30T15:05:00	0.2846	17.081	227.3	0.747771672	0.966125770	0.018406518	0.189896656	0.058527994
2019-06-30T15:10:00	0.2847	17.070	227.3	0.747947378	0.966405555	0.018414733	0.189981404	0.058554114
2019-06-30T15:15:00	0.2859	17.057	227.2	0.751965479	0.972811179	0.018603120	0.191924964	0.059153138
2019-06-30T15:20:00	0.2838	17.048	227.2	0.745093901	0.961865226	0.018281572	0.188607609	0.058130697
2019-06-30T15:25:00	0.2840	17.042	227.2	0.745910896	0.963164458	0.018319645	0.189000402	0.058251759
2019-06-30T15:30:00	0.2837	17.030	227.2	0.744804315	0.961404851	0.018268087	0.188468487	0.058087818
2019-06-30T15:35:00	0.2848	17.015	227.1	0.748505470	0.967294406	0.018440837	0.190250719	0.058637119
2019-06-30T15:40:00	0.2850	16.999	227.1	0.749001445	0.968084559	0.018464053	0.190490231	0.058710939
2019-06-30T15:45:00	0.2853	16.985	227.1	0.750137793	0.969895728	0.018517302	0.191039595	0.058880259
2019-06-30T15:50:00	0.2859	16.968	227.1	0.751913933	0.972728915	0.018600697	0.191899964	0.059145433
2019-06-30T15:55:00	0.2867	16.952	227.0	0.754648778	0.977096824	0.018729499	0.193228788	0.059554989
2019-06-30T16:00:00	0.2841	16.933	226.9	0.746179812	0.963592232	0.018332186	0.189129787	0.058291637
2019-06-30T16:05:00	0.2867	16.916	226.8	0.754374238	0.976658049	0.018716548	0.193095170	0.059513807
2019-06-30T16:10:00	0.2859	16.895	226.7	0.752004554	0.972873542	0.018604957	0.191943917	0.059158979
2019-06-30T16:15:00	0.2851	16.872	226.6	0.749313124	0.968581214	0.018478650	0.190640827	0.058757354
2019-06-30T16:20:00	0.2846	16.848	226.5	0.747901511	0.966332516	0.018412588	0.189959279	0.058547295
2019-06-30T16:25:00	0.2852	16.820	226.4	0.749693038	0.969186718	0.018496451	0.190824478	0.058813958
2019-06-30T16:30:00	0.2847	16.791	226.2	0.747961204	0.966427571	0.018415379	0.189988073	0.058556169
2019-06-30T16:35:00	0.2853	16.765	226.1	0.750072913	0.969792287	0.018514260	0.191008206	0.058870584
2019-06-30T16:40:00	0.2859	16.738	226.0	0.751863402	0.972648272	0.018598322	0.191875458	0.059137880
2019-06-30T16:45:00	0.2846	16.715	225.9	0.747890552	0.966315065	0.018412076	0.189953993	0.058545665
2019-06-30T16:50:00	0.2840	16.691	225.8	0.745837338	0.963047457	0.018316215	0.188965019	0.058240854
2019-06-30T16:55:00	0.2829	16.669	225.7	0.742178971	0.957234533	0.018146078	0.187209737	0.057699859
2019-06-30T17:00:00	0.2819	16.642	225.6	0.739159340	0.952445411	0.018006285	0.185767521	0.057255354
2019-06-30T17:05:00	0.2832	16.618	225.5	0.743201237	0.958857664	0.018193534	0.187699337	0.057850759
2019-06-30T17:10:00	0.2838	16.593	225.4	0.745315633	0.962217778	0.018291901	0.188714169	0.058163540
2019-06-30T17:15:00	0.2812	16.568	225.3	0.736839867	0.948772189	0.017899298	0.184663758	0.056915164
2019-06-30T17:20:00	0.2810	16.543	225.1	0.736066389	0.947548327	0.017863697	0.184296465	0.056801960
2019-06-30T17:25:00	0.2801	16.519	225.1	0.733363450	0.943275642	0.017739584	0.183016020	0.056407315
2019-06-30T17:30:00	0.2815	16.494	225.0	0.737732899	0.950185874	0.017940449	0.185088307	0.057046014
2019-06-30T17:35:00	0.2785	16.468	224.9	0.728273765	0.935247515	0.017507131	0.180617843	0.055668173
2019-06-30T17:40:00	0.2785	16.442	224.7	0.728142730	0.935041129	0.017501168	0.180556324	0.055649213
2019-06-30T17:45:00	0.2792	16.416	224.6	0.730587568	0.938894333	0.017612603	0.181705978	0.056003547
2019-06-30T17:50:00	0.2792	16.390	224.5	0.730456615	0.938687810	0.017606625	0.181644300	0.055984537
2019-06-30T17:55:00	0.2771	16.365	224.4	0.723559685	0.927832113	0.017293290	0.178411681	0.054988213
2019-06-30T18:00:00	0.2794	16.338	224.2	0.731160290	0.939797733	0.017638762	0.181975855	0.056086726
2019-06-30T18:05:00	0.2799	16.313	224.1	0.732638184	0.942130266	0.017706360	0.182673255	0.056301671
2019-06-30T18:10:00	0.2776	16.287	224.0	0.725422999	0.930760840	0.017377646	0.179281975	0.055256446
2019-06-30T18:15:00	0.2778	16.262	223.9	0.725936472	0.931568443	0.017400931	0.179522199	0.055330485
2019-06-30T18:20:00	0.2781	16.236	223.8	0.726772092	0.932883221	0.017438860	0.179913501	0.055451088
2019-06-30T18:25:00	0.2770	16.211	223.6	0.723417452	0.927608679	0.017286859	0.178345342	0.054967766
2019-06-30T18:30:00	0.2766	16.185	223.5	0.721995994	0.925376676	0.017222666	0.177683072	0.054763648
2019-06-30T18:35:00	0.2770	16.160	223.4	0.723477538	0.927703066	0.017289576	0.178373365	0.054976403
2019-06-30T18:40:00	0.2773	16.133	223.3	0.724313712	0.929016914	0.017327400	0.178763591	0.055096675
2019-06-30T18:45:00	0.2789	16.109	223.1	0.729337816	0.936923998	0.017555593	0.181117812	0.055822269
2019-06-30T18:50:00	0.2785	16.083	223.0	0.728240715	0.935195458	0.017505627	0.180602325	0.055663391
2019-06-30T18:55:00	0.2787	16.058	222.8	0.728753798	0.936003716	0.017528985	0.180843307	0.055737663
2019-06-30T19:00:00	0.2788	16.034	222.8	0.729266811	0.936812094	0.017552356	0.181084426	0.055811979
2019-06-30T19:05:00	0.2801	16.009	222.7	0.733319444	0.943206131	0.017737567	0.182995212	0.056400902
2019-06-30T19:10:00	0.2786	15.985	222.5	0.728360730	0.935384497	0.017511089	0.180658678	0.055680759
2019-06-30T19:15:00	0.2793	15.960	222.4	0.730805425	0.939237942	0.017622551	0.181808611	0.056035180
2019-06-30T19:20:00	0.2786	15.935	208.0	0.728420736	0.935479018	0.017513820	0.180686857	0.055689444
2019-06-30T19:25:00	0.2782	15.910	222.1	0.727323363	0.933750935	0.017463906	0.180171898	0.055530729
2019-06-30T19:30:00	0.2797	15.884	222.0	0.732021667	0.941156996	0.017678144	0.182382156	0.056211952
2019-06-30T19:35:00	0.2804	15.860	221.9	0.734142407	0.944506323	0.017775305	0.183384541	0.056520897
2019-06-30T19:40:00	0.2810	15.833	221.8	0.736261939	0.947857694	0.017872694	0.184389287	0.056830569
2019-06-30T19:45:00	0.2786	15.807	207.4	0.728409720	0.935461665	0.017513319	0.180681684	0.055687850
2019-06-30T19:50:00	0.2797	15.779	221.5	0.732141561	0.941346240	0.017683630	0.182438746	0.056229393
2019-06-30T19:55:00	0.2802	15.752	221.3	0.733619065	0.943679431	0.017751302	0.183136907	0.056444573
2019-06-30T20:00:00	0.2797	15.726	221.2	0.732201506	0.941440865	0.017686372	0.182467044	0.056238115
2019-06-30T20:05:00	0.2795	15.699	221.1	0.731427064	0.940218635	0.017650954	0.182101637	0.056125493
2019-06-30T20:10:00	0.2796	15.671	220.9	0.731617938	0.940519825	0.017659680	0.182191661	0.056153239
2019-06-30T20:15:00	0.2785	15.644	220.8	0.728267673	0.935237919	0.017506854	0.180614983	0.055667292
2019-06-30T20:20:00	0.2794	15.617	220.6	0.731034278	0.939598939	0.017633005	0.181916458	0.056068419
2019-06-30T20:25:00	0.2804	15.590	220.5	0.734441962	0.944979735	0.017789051	0.183526365	0.056564608
2019-06-30T20:30:00	0.2820	15.564	220.4	0.739452419	0.952909881	0.018019827	0.185907238	0.057298416
2019-06-30T20:35:00	0.2791	15.537	220.2	0.729997657	0.937964120	0.017585680	0.181428224	0.055917941
2019-06-30T20:40:00	0.2793	15.512	220.1	0.730832365	0.939280435	0.017623781	0.181821304	0.056039092
2019-06-30T20:45:00	0.2797	15.487	219.9	0.731988651	0.941104883	0.017676634	0.182366573	0.056207149
2019-06-30T20:50:00	0.2786	15.462	219.8	0.728638720	0.935822414	0.017523745	0.180789243	0.055721000
2019-06-30T20:55:00	0.2800	15.438	219.7	0.733013714	0.942723263	0.017723559	0.182850690	0.056356358
2019-06-30T21:00:00	0.2796	15.413	219.6	0.731595924	0.940485087	0.017658673	0.182181278	0.056150039
2019-06-30T21:05:00	0.2798	15.389	219.4	0.732430273	0.941802007	0.017696842	0.182575058	0.056271406
2019-06-30T21:10:00	0.2790	15.366	219.3	0.729724692	0.937533792	0.017573230	0.181299777	0.055878352
2019-06-30T21:15:00	0.2793	15.343	219.1	0.730881322	0.939357658	0.017626018	0.181844374	0.056046202
2019-06-30T21:20:00	0.2799	15.321	219.0	0.732681033	0.942197922	0.017708322	0.182693496	0.056307910
2019-06-30T21:25:00	0.2792	15.300	218.9	0.730297546	0.938436968	0.017599364	0.181569395	0.055961451
2019-06-30T21:30:00	0.2811	15.278	218.8	0.736599214	0.948391352	0.017888217	0.184549440	0.056879930
2019-06-30T21:35:00	0.2785	15.257	218.7	0.728103586	0.934979479	0.017499387	0.180537949	0.055643549
2019-06-30T21:40:00	0.2778	15.236	218.5	0.726039443	0.931730426	0.017405603	0.179570393	0.055345339
2019-06-30T21:45:00	0.2774	15.217	218.4	0.724618990	0.929496738	0.017341220	0.178906172	0.055140620
2019-06-30T21:50:00	0.2782	15.198	218.3	0.727066148	0.933346038	0.017452217	0.180051309	0.055493562
2019-06-30T21:55:00	0.2783	15.178	218.2	0.727579394	0.934154023	0.017475545	0.180291974	0.055567737
2019-06-30T22:00:00	0.2775	15.159	218.1	0.724870277	0.929891764	0.017352601	0.179023582	0.055176806
2019-06-30T22:05:00	0.2771	15.139	217.9	0.723583463	0.927869468	0.017294365	0.178422773	0.054991631
2019-06-30T22:10:00	0.2778	15.120	217.8	0.725843026	0.931421451	0.017396692	0.179478468	0.055317007
2019-06-30T22:15:00	0.2757	15.101	217.7	0.719071757	0.920790539	0.017091007	0.176324765	0.054345005
2019-06-30T22:20:00	0.2771	15.082	217.6	0.723592119	0.927883067	0.017294756	0.178426811	0.054992876
2019-06-30T22:25:00	0.2768	15.065	217.5	0.722627439	0.926367966	0.017251167	0.177977105	0.054854272
2019-06-30T22:30:00	0.2781	15.048	217.4	0.726821286	0.932960641	0.017441094	0.179936552	0.055458193
2019-06-30T22:35:00	0.2785	15.031	217.3	0.728112743	0.934993900	0.017499804	0.180542247	0.055644874
2019-06-30T22:40:00	0.2779	15.014	217.2	0.726182597	0.931955637	0.017412098	0.179637406	0.055365993
2019-06-30T22:45:00	0.2783	14.997	203.2	0.727474276	0.933988522	0.017470766	0.180242670	0.055552541
2019-06-30T22:50:00	0.2785	14.981	217.0	0.728121389	0.935007517	0.017500197	0.180546306	0.055646125
2019-06-30T22:55:00	0.2780	14.965	216.9	0.726513488	0.932476263	0.017427117	0.179792354	0.055413750
2019-06-30T23:00:00	0.2789	14.949	203.0	0.729415275	0.937046077	0.017559123	0.181154236	0.055833495
2019-06-30T23:05:00	0.2799	14.933	216.7	0.732636508	0.942127619	0.017706284	0.182672463	0.056301427
2019-06-30T23:10:00	0.2766	14.917	216.6	0.722008235	0.925395890	0.017223218	0.177688769	0.054765404
2019-06-30T23:15:00	0.2778	14.901	216.5	0.725880514	0.931480420	0.017398393	0.179496011	0.055322414
2019-06-30T23:20:00	0.2788	14.886	202.6	0.729104811	0.936556797	0.017544974	0.181008266	0.055788506
2019-06-30T23:25:00	0.2776	14.870	216.3	0.725241664	0.930475687	0.017369427	0.179197181	0.055230311
2019-06-30T23:30:00	0.2767	14.854	216.2	0.722342385	0.925920423	0.017238297	0.177844337	0.054813352
2019-06-30T23:35:00	0.2782	14.840	216.1	0.727180947	0.933526742	0.017457434	0.180105124	0.055510148
2019-06-30T23:40:00	0.2782	14.825	216.0	0.727183829	0.933531279	0.017457565	0.180106476	0.055510565
2019-06-30T23:45:00	0.2785	14.811	215.9	0.728153090	0.935057446	0.017501639	0.180561188	0.055650712
2019-06-30T23:50:00	0.2771	14.796	215.8	0.723644058	0.927964663	0.017297105	0.178451040	0.055000344
2019-06-30T23:55:00	0.2825	14.782	215.8	0.741019952	0.955395385	0.018092353	0.186655469	0.057529028
2019-07-01T00:00:00	0.2815	14.767	215.7	0.737811711	0.950310669	0.017944083	0.185125799	0.057057569
2019-07-01T00:05:00	0.2831	14.751	215.6	0.742951038	0.958460319	0.018181913	0.187579444	0.057813807
2019-07-01T00:10:00	0.2817	14.739	215.5	0.738459903	0.951337252	0.017973987	0.185434311	0.057152655
2019-07-01T00:15:00	0.2858	14.726	215.4	0.751608561	0.972241606	0.018586345	0.191751893	0.059099796
2019-07-01T00:20:00	0.2818	14.714	215.3	0.738786830	0.951855168	0.017989080	0.185590018	0.057200646
2019-07-01T00:25:00	0.2829	14.700	215.3	0.742320852	0.957459753	0.018152660	0.187277648	0.057720790
2019-07-01T00:30:00	0.2829	14.687	215.2	0.742323723	0.957464311	0.018152793	0.187279022	0.057721213
2019-07-01T00:35:00	0.2801	14.676	215.0	0.733331647	0.943225407	0.017738127	0.183000982	0.056402680
2019-07-01T00:40:00	0.2814	14.663	215.0	0.737513445	0.949838410	0.017930332	0.184983930	0.057013844
2019-07-01T00:45:00	0.2807	14.653	214.9	0.735266716	0.946283571	0.017826929	0.183917145	0.056685050
2019-07-01T00:50:00	0.2790	14.643	214.8	0.729800611	0.937653471	0.017576693	0.181335497	0.055889361
2019-07-01T00:55:00	0.2783	14.632	214.8	0.727549220	0.934106515	0.017474173	0.180277821	0.055563375
2019-07-01T01:00:00	0.2790	14.622	214.6	0.729806372	0.937662553	0.017576955	0.181338207	0.055890197
2019-07-01T01:05:00	0.2806	14.612	214.6	0.734956740	0.945793467	0.017812688	0.183770222	0.056639767
2019-07-01T01:10:00	0.2824	14.601	214.5	0.740742048	0.954954578	0.018079484	0.186522700	0.057488108
2019-07-01T01:15:00	0.2823	14.591	214.4	0.740423910	0.954450036	0.018064757	0.186370770	0.057441281
2019-07-01T01:20:00	0.2848	14.581	214.4	0.748443790	0.967196158	0.018437951	0.190220945	0.058627943
2019-07-01T01:25:00	0.2848	14.571	214.2	0.748446656	0.967200724	0.018438085	0.190222328	0.058628369
2019-07-01T01:30:00	0.2848	14.560	214.2	0.748449523	0.967205289	0.018438220	0.190223712	0.058628795
2019-07-01T01:35:00	0.2851	14.551	214.1	0.749413275	0.968740821	0.018483342	0.190689231	0.058772273
2019-07-01T01:40:00	0.2858	14.541	214.0	0.751657247	0.972319292	0.018588633	0.191775496	0.059107070
2019-07-01T01:45:00	0.2856	14.532	213.9	0.751019932	0.971302511	0.018558696	0.191466647	0.059011880
2019-07-01T01:50:00	0.2852	14.521	213.9	0.749742111	0.969264940	0.018498751	0.190848208	0.058821271
2019-07-01T01:55:00	0.2859	14.512	213.8	0.751985887	0.972843749	0.018604080	0.191934862	0.059156188
2019-07-01T02:00:00	0.2839	14.503	213.8	0.745582595	0.962642303	0.018304341	0.188842509	0.058203095
2019-07-01T02:05:00	0.2849	14.494	213.7	0.748789908	0.967747526	0.018454149	0.190388058	0.058679448
2019-07-01T02:10:00	0.2841	14.484	213.6	0.746229440	0.963671184	0.018334501	0.189153669	0.058298998
2019-07-01T02:15:00	0.2835	14.475	213.5	0.744308655	0.960617038	0.018245018	0.188230492	0.058014466
2019-07-01T02:20:00	0.2844	14.466	213.4	0.747196630	0.965210300	0.018379648	0.189619441	0.058442553
2019-07-01T02:25:00	0.2841	14.457	213.3	0.746238044	0.963684872	0.018334903	0.189157810	0.058300274
2019-07-01T02:30:00	0.2848	14.448	213.3	0.748483918	0.967260077	0.018439829	0.190240315	0.058633913
2019-07-01T02:35:00	0.2857	14.441	213.2	0.751368676	0.971858857	0.018575074	0.191635619	0.059063959
2019-07-01T02:40:00	0.2848	14.434	213.2	0.748489651	0.967269208	0.018440097	0.190243083	0.058634766
2019-07-01T02:45:00	0.2850	14.426	213.2	0.749133128	0.968294383	0.018470219	0.190553849	0.058730547
2019-07-01T02:50:00	0.2832	14.418	213.1	0.743366550	0.959120230	0.018201215	0.187778575	0.057875181
2019-07-01T02:55:00	0.2851	14.411	213.0	0.749459123	0.968813892	0.018485490	0.190711392	0.058779103
2019-07-01T03:00:00	0.2868	14.404	212.9	0.754902290	0.977502051	0.018741463	0.193352215	0.059593030
2019-07-01T03:05:00	0.2860	14.397	212.9	0.752345994	0.973418533	0.018621014	0.192109569	0.059210035
2019-07-01T03:10:00	0.2848	14.391	212.8	0.748506848	0.967296602	0.018440902	0.190251385	0.058637324
2019-07-01T03:15:00	0.2842	14.384	212.8	0.746587233	0.964240454	0.018351196	0.189325901	0.058352081
2019-07-01T03:20:00	0.2857	14.378	212.7	0.751394452	0.971899983	0.018576285	0.191648111	0.059067809
2019-07-01T03:25:00	0.2856	14.372	212.6	0.751077218	0.971393891	0.018561386	0.191494398	0.059020433
2019-07-01T03:30:00	0.2858	14.366	199.0	0.751720251	0.972419830	0.018591593	0.191806043	0.059116485
2019-07-01T03:35:00	0.2841	14.362	212.5	0.746278195	0.963748751	0.018336776	0.189177134	0.058306230
2019-07-01T03:40:00	0.2849	14.358	212.5	0.748844362	0.967834282	0.018456699	0.190414357	0.058687554
2019-07-01T03:45:00	0.2842	14.356	212.4	0.746604439	0.964267833	0.018351999	0.189334186	0.058354635
2019-07-01T03:50:00	0.2874	14.354	212.4	0.756849114	0.980615859	0.018833473	0.194301474	0.059885601
2019-07-01T03:55:00	0.2856	14.350	212.3	0.751094404	0.971421306	0.018562193	0.191502723	0.059022999
2019-07-01T04:00:00	0.2857	14.349	198.7	0.751417365	0.971936539	0.018577362	0.191659215	0.059071232
2019-07-01T04:05:00	0.2839	14.348	198.7	0.745606051	0.962679607	0.018305434	0.188853788	0.058206572
2019-07-01T04:10:00	0.2831	14.347	198.7	0.742995113	0.958530311	0.018183960	0.187600562	0.057820315
2019-07-01T04:15:00	0.2823	14.347	198.7	0.740382350	0.954384132	0.018062834	0.186350928	0.057435166
2019-07-01T04:20:00	0.2857	14.347	198.6	0.751236092	0.971647336	0.018568847	0.191571371	0.059044157
2019-07-01T04:25:00	0.2877	14.347	198.6	0.757587364	0.981797516	0.018868428	0.194662093	0.059996748
2019-07-01T04:30:00	0.2882	14.347	198.6	0.759139588	0.984283611	0.018942036	0.195421492	0.060230802
2019-07-01T04:35:00	0.2878	14.348	198.6	0.758135954	0.982675912	0.018894425	0.194930300	0.060079412
2019-07-01T04:40:00	0.2892	14.348	198.6	0.762561264	0.989771432	0.019104839	0.197101103	0.060748474
2019-07-01T04:45:00	0.2912	14.350	198.6	0.768893465	0.999954696	0.019408103	0.200229817	0.061712774
2019-07-01T04:50:00	0.2886	14.352	198.6	0.760555553	0.986553332	0.019009317	0.196115615	0.060444737
2019-07-01T04:55:00	0.2857	14.357	212.2	0.751238957	0.971651905	0.018568981	0.191572758	0.059044585
2019-07-01T05:00:00	0.2853	14.360	212.2	0.749913010	0.969537367	0.018506763	0.190930857	0.058846745
2019-07-01T05:05:00	0.2845	14.362	198.6	0.747305076	0.965382925	0.018384714	0.189671704	0.058458661
2019-07-01T05:10:00	0.2824	14.366	198.6	0.740845447	0.955118579	0.018084271	0.186572093	0.057503331
2019-07-01T05:15:00	0.2839	14.366	198.6	0.745611788	0.962688731	0.018305701	0.188856546	0.058207422
2019-07-01T05:20:00	0.2868	14.366	212.2	0.754851799	0.977421339	0.018739080	0.193327629	0.059585453
2019-07-01T05:25:00	0.2852	14.369	212.2	0.749686328	0.969176022	0.018496137	0.190821234	0.058812958
2019-07-01T05:30:00	0.2859	14.377	198.6	0.751881962	0.972677891	0.018599194	0.191884458	0.059140654
2019-07-01T05:35:00	0.2857	14.382	212.3	0.751196501	0.971584176	0.018566988	0.191552188	0.059038245
2019-07-01T05:40:00	0.2853	14.387	198.6	0.749870540	0.969469663	0.018504771	0.190910316	0.058840414
2019-07-01T05:45:00	0.2812	14.396	211.9	0.736994471	0.949016879	0.017906419	0.184737219	0.056937805
2019-07-01T05:50:00	0.2807	14.404	212.2	0.735342013	0.946402635	0.017830390	0.183952844	0.056696053
2019-07-01T05:55:00	0.2825	14.406	212.2	0.741078410	0.955488117	0.018095060	0.186683403	0.057537638
2019-07-01T06:00:00	0.2818	14.412	212.3	0.738785484	0.951853036	0.017989017	0.185589377	0.057200448
2019-07-01T06:05:00	0.2875	14.419	212.3	0.757002024	0.980860571	0.018840711	0.194376138	0.059908614
2019-07-01T06:10:00	0.2857	14.426	198.7	0.751199366	0.971588745	0.018567122	0.191553575	0.059038672
2019-07-01T06:15:00	0.2870	14.430	212.3	0.755313110	0.978158849	0.018760859	0.193552320	0.059654705
2019-07-01T06:20:00	0.2837	14.440	212.3	0.745021707	0.961750446	0.018278210	0.188572920	0.058120005
2019-07-01T06:25:00	0.2843	14.449	212.4	0.746899621	0.964737573	0.018365778	0.189476345	0.058398450
2019-07-01T06:30:00	0.2856	14.458	212.5	0.751018083	0.971299561	0.018558609	0.191465751	0.059011604
2019-07-01T06:35:00	0.2858	14.465	212.5	0.751612948	0.972248605	0.018586551	0.191754019	0.059100451
2019-07-01T06:40:00	0.2906	14.475	198.9	0.766899678	0.996744500	0.019312338	0.199241834	0.061408268
2019-07-01T06:45:00	0.2886	14.490	212.6	0.760473710	0.986422093	0.019005424	0.196075458	0.060432361
2019-07-01T06:50:00	0.2889	14.508	212.6	0.761386328	0.987885851	0.019048851	0.196523486	0.060570447
2019-07-01T06:55:00	0.2865	14.523	212.7	0.753991465	0.976046404	0.018698498	0.192908959	0.059456415
2019-07-01T07:00:00	0.2867	14.537	212.7	0.754585859	0.976996259	0.018726530	0.193198161	0.059545549
2019-07-01T07:05:00	0.2878	14.549	212.8	0.758056916	0.982549342	0.018890678	0.194891646	0.060067498
2019-07-01T07:10:00	0.2878	14.573	212.9	0.758011679	0.982476902	0.018888534	0.194869525	0.060060680
2019-07-01T07:15:00	0.2873	14.611	213.0	0.756368476	0.979846801	0.018810735	0.194066886	0.059813299
2019-07-01T07:20:00	0.2902	14.635	213.2	0.765582097	0.994625002	0.019249193	0.198590375	0.061207482
2019-07-01T07:25:00	0.2892	14.656	213.3	0.762346766	0.989427106	0.019094611	0.196995584	0.060715952
2019-07-01T07:30:00	0.2917	14.677	213.3	0.770590551	1.002689960	0.019489817	0.201072849	0.061972605
2019-07-01T07:35:00	0.2918	14.702	213.5	0.770863911	1.003130786	0.019502997	0.201208820	0.062014512
2019-07-01T07:40:00	0.2900	14.722	213.5	0.765082597	0.993821898	0.019225283	0.198343706	0.061131456
2019-07-01T07:45:00	0.2906	14.737	213.6	0.766950513	0.996826305	0.019314777	0.199266991	0.061416022
2019-07-01T07:50:00	0.2900	14.768	213.7	0.764992291	0.993676725	0.019220963	0.198299127	0.061117717
2019-07-01T07:55:00	0.2882	14.773	213.7	0.759201960	0.984383553	0.018944997	0.195452040	0.060240217
2019-07-01T08:00:00	0.2912	14.769	213.8	0.768727288	0.999686998	0.019400111	0.200147370	0.061687363
2019-07-01T08:05:00	0.2930	14.787	213.9	0.774731071	1.009374171	0.019689959	0.203137677	0.062609005
2019-07-01T08:10:00	0.2938	14.816	214.0	0.777230075	1.013415812	0.019811288	0.204389408	0.062994801
2019-07-01T08:15:00	0.2973	14.841	214.1	0.788295365	1.031378747	0.020353361	0.209981873	0.064718453
2019-07-01T08:20:00	0.2972	14.874	214.3	0.787933498	1.030789574	0.020335508	0.209797692	0.064661686
2019-07-01T08:25:00	0.2944	14.901	214.5	0.779002029	1.016284970	0.019897562	0.205279481	0.063269130
2019-07-01T08:30:00	0.2935	14.934	214.7	0.776096179	1.011581271	0.019756187	0.203820935	0.062819592
2019-07-01T08:35:00	0.2911	14.966	214.6	0.768411511	0.999178378	0.019384930	0.199990752	0.061639092
2019-07-01T08:40:00	0.2900	15.012	215.6	0.765178609	0.993976249	0.019229878	0.198391106	0.061146066
2019-07-01T08:45:00	0.2898	15.038	215.5	0.764495568	0.992878344	0.019197205	0.198054021	0.061042173
2019-07-01T08:50:00	0.2903	15.063	215.2	0.766044947	0.995369381	0.019271362	0.198819094	0.061277976
2019-07-01T08:55:00	0.2891	15.097	215.3	0.762171732	0.989146160	0.019086267	0.196909502	0.060689421
2019-07-01T09:00:00	0.2913	15.113	215.4	0.769141798	1.000354785	0.019420048	0.200353058	0.061750758
2019-07-01T09:05:00	0.2924	15.153	215.6	0.772599480	1.005931149	0.019586786	0.202073258	0.062280940
2019-07-01T09:10:00	0.2905	15.164	215.7	0.766502036	0.996104680	0.019293269	0.199045105	0.061347634
2019-07-01T09:15:00	0.2903	15.190	215.8	0.766138081	0.995519186	0.019275825	0.198865134	0.061292166
2019-07-01T09:20:00	0.2898	15.215	216.0	0.764498422	0.992882930	0.019197341	0.198055429	0.061042607
2019-07-01T09:25:00	0.2910	15.194	215.8	0.768279022	0.998965004	0.019378563	0.199925060	0.061618845
2019-07-01T09:30:00	0.2876	15.201	215.9	0.757384020	0.981471992	0.018858797	0.194562729	0.059966123
2019-07-01T09:35:00	0.2896	15.225	216.0	0.763724921	0.991640120	0.019160377	0.197674072	0.060925069
2019-07-01T09:40:00	0.2923	15.249	216.1	0.772284027	1.005421962	0.019571542	0.201915991	0.062232469
2019-07-01T09:45:00	0.2926	15.277	216.3	0.773193794	1.006890698	0.019615522	0.202369728	0.062372315
2019-07-01T09:50:00	0.2932	15.291	216.4	0.775375772	1.010416313	0.019721221	0.203460206	0.062708411
2019-07-01T09:55:00	0.2906	15.317	216.5	0.767052181	0.996989920	0.019319654	0.199317311	0.061431531
2019-07-01T10:00:00	0.2881	15.335	216.6	0.759029638	0.984107441	0.018936817	0.195367649	0.060214207
2019-07-01T10:05:00	0.2889	15.355	216.7	0.761488146	0.988049204	0.019053700	0.196573506	0.060585864
2019-07-01T10:10:00	0.2868	15.373	216.9	0.754682138	0.977150146	0.018731073	0.193245027	0.059559994
2019-07-01T10:15:00	0.2866	15.396	217.0	0.754266032	0.976485130	0.018711444	0.193042521	0.059497580
2019-07-01T10:20:00	0.2883	15.414	217.1	0.759603231	0.985026611	0.018964052	0.195648630	0.060300808
2019-07-01T10:25:00	0.2888	15.426	217.1	0.761103710	0.987432478	0.019035397	0.196384683	0.060527667
2019-07-01T10:30:00	0.2889	15.422	217.2	0.761646075	0.988302596	0.019061221	0.196651103	0.060609780
2019-07-01T10:35:00	0.2877	15.417	217.2	0.757717371	0.982005658	0.018874587	0.194725636	0.060016332
2019-07-01T10:40:00	0.2846	15.416	217.2	0.747701887	0.966014658	0.018403256	0.189863003	0.058517622
2019-07-01T10:45:00	0.2842	15.419	217.2	0.746644079	0.964330909	0.018353849	0.189353273	0.058360518
2019-07-01T10:50:00	0.2859	15.426	217.2	0.751992121	0.972853699	0.018604373	0.191937886	0.059157121
2019-07-01T10:55:00	0.2845	15.437	217.4	0.747412503	0.965553937	0.018389733	0.189723484	0.058474620
2019-07-01T11:00:00	0.2843	15.453	217.4	0.746675115	0.964380297	0.018355297	0.189368218	0.058365124
2019-07-01T11:05:00	0.2855	15.458	217.5	0.750742770	0.970860435	0.018545685	0.191332415	0.058970509
2019-07-01T11:10:00	0.2866	15.471	217.6	0.754166373	0.976325879	0.018706745	0.192994036	0.059482636
2019-07-01T11:15:00	0.2835	15.491	217.7	0.744141387	0.960351226	0.018237237	0.188150213	0.057989723
2019-07-01T11:20:00	0.2836	15.507	217.8	0.744686208	0.961217109	0.018262589	0.188411762	0.058070335
2019-07-01T11:25:00	0.2818	15.529	217.9	0.738813203	0.951896952	0.017990297	0.185602582	0.057204518
2019-07-01T11:30:00	0.2830	15.570	218.2	0.742568585	0.957853046	0.018164157	0.187396257	0.057757346
2019-07-01T11:35:00	0.2790	15.605	218.4	0.729937859	0.937869843	0.017582953	0.181400081	0.055909267
2019-07-01T11:40:00	0.2808	15.647	218.5	0.735631314	0.946860146	0.017843688	0.184090038	0.056738338
2019-07-01T11:45:00	0.2799	15.685	218.8	0.732640407	0.942133775	0.017706462	0.182674305	0.056301995
2019-07-01T11:50:00	0.2804	15.722	219.0	0.734151731	0.944521057	0.017775732	0.183388954	0.056522257
2019-07-01T11:55:00	0.2805	15.758	219.2	0.734698013	0.945384456	0.017800806	0.183647638	0.056601985
2019-07-01T12:00:00	0.2792	15.792	219.4	0.730419027	0.938628533	0.017604909	0.181626598	0.055979082
2019-07-01T12:05:00	0.2791	15.833	205.6	0.730000210	0.937968144	0.017585797	0.181429425	0.055918311
2019-07-01T12:10:00	0.2785	15.879	220.0	0.728293281	0.935278255	0.017508019	0.180627007	0.055670998
2019-07-01T12:15:00	0.2786	15.924	220.3	0.728518385	0.935632842	0.017518266	0.180732718	0.055703579
2019-07-01T12:20:00	0.2759	15.968	220.5	0.719715583	0.921799622	0.017119948	0.176623346	0.054437031
2019-07-01T12:25:00	0.2744	16.015	220.8	0.715096070	0.914567382	0.016912869	0.174486948	0.053778572
2019-07-01T12:30:00	0.2743	16.062	221.1	0.714675518	0.913909898	0.016894083	0.174293141	0.053718839
2019-07-01T12:35:00	0.2752	16.109	221.4	0.717486451	0.918307398	0.017019855	0.175590709	0.054118762
2019-07-01T12:40:00	0.2733	16.145	221.6	0.711246715	0.908555122	0.016741336	0.172717274	0.053233141
2019-07-01T12:45:00	0.2739	16.184	221.8	0.713413576	0.911937926	0.016837780	0.173712273	0.053539810
2019-07-01T12:50:00	0.2747	16.227	222.1	0.715902332	0.915828310	0.016948915	0.174858827	0.053893189
2019-07-01T12:55:00	0.2724	16.269	222.3	0.708364901	0.904062510	0.016613525	0.171398676	0.052826736
2019-07-01T13:00:00	0.2709	16.310	222.5	0.703731153	0.896853876	0.016409103	0.169289694	0.052176728
2019-07-01T13:05:00	0.2723	16.346	222.6	0.708169927	0.903758817	0.016604897	0.171309657	0.052799300
2019-07-01T13:10:00	0.2724	16.389	223.0	0.708396259	0.904111357	0.016614913	0.171412995	0.052831150
2019-07-01T13:15:00	0.2746	16.421	223.3	0.715739051	0.915572907	0.016941611	0.174783482	0.053869967
2019-07-01T13:20:00	0.2734	16.453	223.4	0.711761645	0.909358636	0.016764228	0.172953450	0.053305933
2019-07-01T13:25:00	0.2714	16.499	223.7	0.705188140	0.899118470	0.016473235	0.169951329	0.052380650
2019-07-01T13:30:00	0.2726	16.537	224.0	0.708977703	0.905017234	0.016640660	0.171678620	0.052913018
2019-07-01T13:35:00	0.2732	16.578	224.3	0.711145897	0.908397830	0.016736856	0.172671054	0.053218896
2019-07-01T13:40:00	0.2714	16.622	224.5	0.705219524	0.899167271	0.016474618	0.169965596	0.052385047
2019-07-01T13:45:00	0.2728	16.672	224.8	0.709656507	0.906075169	0.016670745	0.171988998	0.053008680
2019-07-01T13:50:00	0.2722	16.709	225.0	0.707940171	0.903400987	0.016594732	0.171204790	0.052766979
2019-07-01T13:55:00	0.2722	16.733	225.2	0.707842674	0.903249157	0.016590419	0.171160300	0.052753267
2019-07-01T14:00:00	0.2741	16.756	225.4	0.713893488	0.912687696	0.016859180	0.173933053	0.053607856
2019-07-01T14:05:00	0.2736	16.780	225.5	0.712502583	0.910515227	0.016797197	0.173293585	0.053410766
2019-07-01T14:10:00	0.2744	16.802	225.7	0.714991952	0.914404592	0.016908217	0.174438956	0.053763780
2019-07-01T14:15:00	0.2722	16.830	226.0	0.707776537	0.903146168	0.016587495	0.171130123	0.052743966
2019-07-01T14:20:00	0.2720	16.859	226.1	0.707031237	0.901985840	0.016554552	0.170790260	0.052639217
2019-07-01T14:25:00	0.2712	16.882	226.3	0.704665462	0.898305860	0.016450213	0.169713817	0.052307447
2019-07-01T14:30:00	0.2725	16.890	226.4	0.708779351	0.904708173	0.016631874	0.171587981	0.052885082
2019-07-01T14:35:00	0.2709	16.903	226.4	0.703497704	0.896491198	0.016398840	0.169183809	0.052144093
2019-07-01T14:40:00	0.2684	16.921	226.5	0.695609897	0.884264808	0.016054058	0.165626753	0.051047774
2019-07-01T14:45:00	0.2680	16.940	226.6	0.694212064	0.882103747	0.015993361	0.165000559	0.050854775
2019-07-01T14:50:00	0.2687	16.941	226.7	0.696388976	0.885470006	0.016087939	0.165976305	0.051155509
2019-07-01T14:55:00	0.2683	16.945	226.8	0.695316416	0.883810944	0.016041304	0.165495177	0.051007221
2019-07-01T15:00:00	0.2696	16.945	226.8	0.699440772	0.890196058	0.016221024	0.167349316	0.051578685
2019-07-01T15:05:00	0.2690	16.945	226.8	0.697394899	0.887026899	0.016131742	0.166428212	0.051294791
2019-07-01T15:10:00	0.2682	16.939	226.8	0.694697910	0.882854676	0.016014444	0.165218064	0.050921812
2019-07-01T15:15:00	0.2694	16.924	226.8	0.698822960	0.889238654	0.016194035	0.167070878	0.051492867
2019-07-01T15:20:00	0.2684	16.914	226.7	0.695477182	0.884059557	0.016048290	0.165567247	0.051029433
2019-07-01T15:25:00	0.2720	16.899	226.7	0.707059194	0.902029356	0.016555787	0.170803002	0.052643144
2019-07-01T15:30:00	0.2716	16.886	226.6	0.705989743	0.900365189	0.016508575	0.170315929	0.052493023
2019-07-01T15:35:00	0.2704	16.869	226.6	0.702001802	0.894168344	0.016333155	0.168506149	0.051935232
2019-07-01T15:40:00	0.2676	16.849	226.5	0.692810273	0.879938265	0.015932615	0.164373850	0.050661617
2019-07-01T15:45:00	0.2690	16.827	226.5	0.697587024	0.887324356	0.016140116	0.166514597	0.051321416
2019-07-01T15:50:00	0.2688	16.803	226.4	0.696839656	0.886167426	0.016107556	0.166178691	0.051217886
2019-07-01T15:55:00	0.2696	16.777	226.3	0.699339630	0.890039300	0.016216604	0.167303716	0.051564630
2019-07-01T16:00:00	0.2677	16.753	226.2	0.693394188	0.880840088	0.015957904	0.164634752	0.050742030
2019-07-01T16:05:00	0.2687	16.733	226.1	0.696333746	0.885384550	0.016085536	0.165951512	0.051147868
2019-07-01T16:10:00	0.2674	16.711	226.0	0.692122530	0.878876465	0.015902856	0.164066837	0.050566993
2019-07-01T16:15:00	0.2651	16.691	225.9	0.684648818	0.867364253	0.015581361	0.160750034	0.049544722
2019-07-01T16:20:00	0.2646	16.672	225.8	0.683033490	0.864882409	0.015512330	0.160037850	0.049325220
2019-07-01T16:25:00	0.2651	16.657	225.7	0.684677979	0.867409078	0.015582609	0.160762906	0.049548689
2019-07-01T16:30:00	0.2653	16.636	225.7	0.685344315	0.868433532	0.015611133	0.161057186	0.049639389
2019-07-01T16:35:00	0.2673	16.616	225.6	0.691870032	0.878486739	0.015891938	0.163954196	0.050532275
2019-07-01T16:40:00	0.2646	16.595	225.5	0.683091839	0.864972018	0.015514821	0.160063546	0.049333140
2019-07-01T16:45:00	0.2645	16.576	225.4	0.682780363	0.864493700	0.015501527	0.159926399	0.049290870
2019-07-01T16:50:00	0.2642	16.559	225.4	0.681816593	0.863014214	0.015460432	0.159502430	0.049160198
2019-07-01T16:55:00	0.2641	16.544	225.4	0.681505009	0.862536072	0.015447159	0.159365489	0.049117991
2019-07-01T17:00:00	0.2640	16.525	225.3	0.681193398	0.862057972	0.015433890	0.159228598	0.049075800
2019-07-01T17:05:00	0.2647	16.508	225.2	0.683490802	0.865584809	0.015531857	0.160239306	0.049387310
2019-07-01T17:10:00	0.2640	16.491	225.1	0.681222587	0.862102753	0.015435133	0.159241418	0.049079752
2019-07-01T17:15:00	0.2622	16.474	225.1	0.675360576	0.853124212	0.015186629	0.156677650	0.048289574
2019-07-01T17:20:00	0.2656	16.457	225.1	0.686467468	0.870161185	0.015659275	0.161553855	0.049792467
2019-07-01T17:25:00	0.2645	16.441	225.0	0.682897068	0.864672909	0.015506507	0.159977779	0.049306705
2019-07-01T17:30:00	0.2654	16.423	224.9	0.685845066	0.869203661	0.015632587	0.161278523	0.049707607
2019-07-01T17:35:00	0.2636	16.408	224.9	0.679990486	0.860213150	0.015382725	0.158700738	0.048913109
2019-07-01T17:40:00	0.2638	16.388	224.8	0.680657678	0.861236222	0.015411092	0.158993400	0.049003310
2019-07-01T17:45:00	0.2662	16.367	224.7	0.688494263	0.873281593	0.015746348	0.162452165	0.050069335
2019-07-01T17:50:00	0.2644	16.345	224.7	0.682643932	0.864284216	0.015495706	0.159866346	0.049272361
2019-07-01T17:55:00	0.2630	16.321	224.6	0.677763919	0.856801708	0.015288255	0.157726112	0.048612720
2019-07-01T18:00:00	0.2658	16.295	224.4	0.686909778	0.870841853	0.015678255	0.161749670	0.049852819
2019-07-01T18:05:00	0.2640	16.273	224.3	0.681056907	0.861848583	0.015428080	0.159168657	0.049057326
2019-07-01T18:10:00	0.2641	16.252	224.2	0.681397718	0.862371447	0.015442589	0.159318349	0.049103462
2019-07-01T18:15:00	0.2651	16.230	224.2	0.684672848	0.867401191	0.015582390	0.160760641	0.049547991
2019-07-01T18:20:00	0.2646	16.207	224.1	0.683057531	0.864919330	0.015513356	0.160048437	0.049328483
2019-07-01T18:25:00	0.2664	16.184	223.9	0.688936328	0.873962659	0.015765373	0.162648444	0.050129830
2019-07-01T18:30:00	0.2641	16.165	223.8	0.681456093	0.862461015	0.015445075	0.159343996	0.049111367
2019-07-01T18:35:00	0.2636	16.148	223.9	0.679839351	0.859981452	0.015376303	0.158634482	0.048892688
2019-07-01T18:40:00	0.2643	16.128	223.7	0.682137607	0.863506915	0.015474114	0.159643581	0.049203702
2019-07-01T18:45:00	0.2657	16.107	223.6	0.686715211	0.870542414	0.015669905	0.161663518	0.049826266
2019-07-01T18:50:00	0.2670	16.088	223.6	0.690961757	0.877085286	0.015852696	0.163549346	0.050407497
2019-07-01T18:55:00	0.2656	16.068	223.5	0.686418618	0.870086021	0.015657180	0.161532237	0.049785804
2019-07-01T19:00:00	0.2648	16.045	223.3	0.683826253	0.866100155	0.015546189	0.160387164	0.049432882
2019-07-01T19:05:00	0.2663	16.024	223.3	0.688727304	0.873640606	0.015756375	0.162555621	0.050101221
2019-07-01T19:10:00	0.2663	16.004	223.1	0.688741869	0.873663045	0.015757002	0.162562088	0.050103214
2019-07-01T19:15:00	0.2658	15.981	223.0	0.687128350	0.871178274	0.015687639	0.161846480	0.049882657
2019-07-01T19:20:00	0.2663	15.958	222.9	0.688770998	0.873707924	0.015758256	0.162575022	0.050107201
2019-07-01T19:25:00	0.2662	15.936	222.9	0.688460006	0.873228823	0.015744874	0.162436960	0.050064648
2019-07-01T19:30:00	0.2673	15.912	222.7	0.692054084	0.878770814	0.015899896	0.164036299	0.050557580
2019-07-01T19:35:00	0.2685	15.891	222.6	0.695969558	0.884821121	0.016069694	0.165788075	0.051097495
2019-07-01T19:40:00	0.2665	15.865	222.4	0.689480273	0.874800917	0.015788799	0.162890131	0.050204320
2019-07-01T19:45:00	0.2679	15.840	222.3	0.693723614	0.881348997	0.015972180	0.164782041	0.050787425
2019-07-01T19:50:00	0.2681	15.814	222.1	0.694388305	0.882376122	0.016001007	0.165079442	0.050879087
2019-07-01T19:55:00	0.2672	15.789	222.0	0.691476293	0.877879119	0.015874920	0.163778628	0.050478164
2019-07-01T20:00:00	0.2681	15.765	222.0	0.694417389	0.882421074	0.016002269	0.165092461	0.050883100
2019-07-01T20:05:00	0.2678	15.739	221.8	0.693456680	0.880936621	0.015960612	0.164662688	0.050750640
2019-07-01T20:10:00	0.2673	15.714	221.7	0.691845238	0.878448472	0.015890866	0.163943137	0.050528867
2019-07-01T20:15:00	0.2683	15.689	221.6	0.695111032	0.883493364	0.016032382	0.165403130	0.050978851
2019-07-01T20:20:00	0.2697	15.666	221.4	0.699672456	0.890555179	0.016231151	0.167453796	0.051610886
2019-07-01T20:25:00	0.2689	15.639	221.3	0.697089458	0.886554067	0.016118435	0.166290925	0.051252478
2019-07-01T20:30:00	0.2692	15.613	221.1	0.698078270	0.888085072	0.016161536	0.166735584	0.051389526
2019-07-01T20:35:00	0.2688	15.588	221.0	0.696793704	0.886096308	0.016105556	0.166158049	0.051211524
2019-07-01T20:40:00	0.2690	15.563	220.9	0.697457838	0.887124341	0.016134485	0.166456508	0.051303512
2019-07-01T20:45:00	0.2692	15.537	220.7	0.698121853	0.888152571	0.016163437	0.166755197	0.051395571
2019-07-01T20:50:00	0.2679	15.509	220.6	0.693912691	0.881641133	0.015980378	0.164866611	0.050813491
2019-07-01T20:55:00	0.2696	15.481	220.5	0.699449522	0.890209620	0.016221407	0.167353261	0.051579900
2019-07-01T21:00:00	0.2703	15.453	220.3	0.701735506	0.893755040	0.016321477	0.168385665	0.051898097
2019-07-01T21:05:00	0.2676	15.424	220.1	0.692980946	0.880201829	0.015940004	0.164450087	0.050685114
2019-07-01T21:10:00	0.2714	15.393	220.0	0.705331113	0.899340792	0.016479535	0.170016328	0.052400683
2019-07-01T21:15:00	0.2708	15.366	219.8	0.703400640	0.896340418	0.016394574	0.169139794	0.052130527
2019-07-01T21:20:00	0.2730	15.337	219.6	0.710541665	0.907455315	0.016710018	0.172394178	0.053133560
2019-07-01T21:25:00	0.2700	15.312	219.5	0.700834778	0.892357525	0.016282008	0.167978474	0.051772597
2019-07-01T21:30:00	0.2712	15.283	219.3	0.704740906	0.898423138	0.016453535	0.169748089	0.052318010
2019-07-01T21:35:00	0.2700	15.256	219.2	0.700863811	0.892402560	0.016283279	0.167991591	0.051776640
2019-07-01T21:40:00	0.2695	15.228	219.0	0.698930991	0.889406043	0.016198753	0.167119548	0.051507868
2019-07-01T21:45:00	0.2680	15.203	218.8	0.694072672	0.881888337	0.015987315	0.164938184	0.050835550
2019-07-01T21:50:00	0.2705	15.177	218.7	0.702205001	0.894483760	0.016342069	0.168598116	0.051963577
2019-07-01T21:55:00	0.2689	15.153	218.5	0.697026218	0.886456180	0.016115681	0.166262508	0.051243720
2019-07-01T22:00:00	0.2696	15.130	218.4	0.699313710	0.889999128	0.016215472	0.167292031	0.051561029
2019-07-01T22:05:00	0.2703	15.106	218.2	0.701826515	0.893896283	0.016325467	0.168426836	0.051910787
2019-07-01T22:10:00	0.2734	15.082	218.1	0.711785865	0.909396436	0.016765305	0.172964563	0.053309358
2019-07-01T22:15:00	0.2738	15.060	218.0	0.712996789	0.911286939	0.016819207	0.173520653	0.053480751
2019-07-01T22:20:00	0.2711	15.037	217.8	0.704171423	0.897537993	0.016428469	0.169489482	0.052238304
2019-07-01T22:25:00	0.2717	15.016	217.7	0.706356940	0.900936469	0.016524777	0.170483083	0.052544542
2019-07-01T22:30:00	0.2725	14.991	203.6	0.708864942	0.904841532	0.016635665	0.171627089	0.052897136
2019-07-01T22:35:00	0.2723	14.967	217.4	0.708134350	0.903703404	0.016603322	0.171293416	0.052794295
2019-07-01T22:40:00	0.2707	14.943	217.2	0.702866285	0.895510487	0.016371097	0.168897594	0.052055879
2019-07-01T22:45:00	0.2702	14.918	217.1	0.701485726	0.893367426	0.016310526	0.168272695	0.051863279
2019-07-01T22:50:00	0.2711	14.896	203.1	0.704321228	0.897770807	0.016435060	0.169557489	0.052259265
2019-07-01T22:55:00	0.2714	14.871	216.8	0.705210531	0.899153287	0.016474222	0.169961508	0.052383787
2019-07-01T23:00:00	0.2714	14.845	216.6	0.705127462	0.899024121	0.016470562	0.169923747	0.052372149
2019-07-01T23:05:00	0.2699	14.819	216.5	0.700504152	0.891844722	0.016267533	0.167829139	0.051726571
2019-07-01T23:10:00	0.2696	14.794	216.3	0.699447316	0.890206201	0.016221310	0.167352267	0.051579594
2019-07-01T23:15:00	0.2697	14.770	216.2	0.699688705	0.890580367	0.016231862	0.167461125	0.051613145
2019-07-01T23:20:00	0.2691	14.747	216.0	0.697657500	0.887433479	0.016143188	0.166546291	0.051331184
2019-07-01T23:25:00	0.2695	14.728	215.9	0.699197711	0.889819355	0.016210403	0.167239743	0.051544913
2019-07-01T23:30:00	0.2705	14.708	215.8	0.702359331	0.894723342	0.016348841	0.168667983	0.051985110
2019-07-01T23:35:00	0.2703	14.688	215.7	0.701627446	0.893587344	0.016316739	0.168336787	0.051883033
2019-07-01T23:40:00	0.2725	14.669	215.6	0.708674432	0.904544708	0.016627228	0.171540047	0.052870309
2019-07-01T23:45:00	0.2696	14.651	215.5	0.699514117	0.890309741	0.016224230	0.167382388	0.051588878
2019-07-01T23:50:00	0.2711	14.636	215.3	0.704296665	0.897732632	0.016433980	0.169546337	0.052255828
2019-07-01T23:55:00	0.2709	14.618	215.2	0.703565166	0.896596000	0.016401806	0.169214404	0.052153523
2019-07-02T00:00:00	0.2701	14.600	215.1	0.700887221	0.892438873	0.016284305	0.168002168	0.051779900
2019-07-02T00:05:00	0.2716	14.586	215.0	0.705992019	0.900368728	0.016508676	0.170316965	0.052493343
2019-07-02T00:10:00	0.2707	14.570	214.9	0.702991571	0.895705052	0.016376600	0.168954364	0.052073376
2019-07-02T00:15:00	0.2726	14.552	214.8	0.709064829	0.905153000	0.016644520	0.171718441	0.052925291
2019-07-02T00:20:00	0.2717	14.536	214.7	0.706066885	0.900485195	0.016511978	0.170351038	0.052503844
2019-07-02T00:25:00	0.2720	14.520	214.5	0.707279687	0.902372588	0.016565530	0.170903516	0.052674123
2019-07-02T00:30:00	0.2720	14.503	214.4	0.707196665	0.902243345	0.016561861	0.170865665	0.052662457
2019-07-02T00:35:00	0.2735	14.486	214.3	0.711969253	0.909682660	0.016773462	0.173048719	0.053335296
2019-07-02T00:40:00	0.2733	14.469	214.2	0.711239275	0.908543515	0.016741005	0.172713863	0.053232090
2019-07-02T00:45:00	0.2730	14.452	214.1	0.710509153	0.907404609	0.016708575	0.172379286	0.053128970
2019-07-02T00:50:00	0.2721	14.434	213.9	0.707512383	0.902734862	0.016575815	0.171009626	0.052706827
2019-07-02T00:55:00	0.2741	14.415	213.8	0.713901544	0.912700284	0.016859540	0.173936761	0.053608999
2019-07-02T01:00:00	0.2727	14.398	213.7	0.709612952	0.906007274	0.016668813	0.171969074	0.053002539
2019-07-02T01:05:00	0.2732	14.381	213.6	0.711148169	0.908401375	0.016736957	0.172672095	0.053219217
2019-07-02T01:10:00	0.2746	14.365	213.5	0.715592491	0.915343678	0.016935058	0.174715867	0.053849127
2019-07-02T01:15:00	0.2751	14.348	213.4	0.717125226	0.917741902	0.017003665	0.175423675	0.054067280
2019-07-02T01:20:00	0.2762	14.331	213.2	0.720917006	0.923683607	0.017174024	0.177181237	0.054608978
2019-07-02T01:25:00	0.2760	14.315	213.1	0.720188792	0.922541524	0.017141236	0.176842973	0.054504722
2019-07-02T01:30:00	0.2769	14.301	213.0	0.723009973	0.926968666	0.017268445	0.178155359	0.054909212
2019-07-02T01:35:00	0.2749	14.287	212.9	0.716470921	0.916717880	0.016974359	0.175121335	0.053974096
2019-07-02T01:40:00	0.2753	14.271	199.2	0.718003292	0.919116711	0.017043035	0.175829847	0.054192466
2019-07-02T01:45:00	0.2762	14.255	212.7	0.720826138	0.923541070	0.017169931	0.177139008	0.054595963
2019-07-02T01:50:00	0.2764	14.238	212.5	0.721388818	0.924423816	0.017195285	0.177400583	0.054676582
2019-07-02T01:55:00	0.2760	14.220	198.9	0.720015171	0.922269296	0.017133424	0.176762375	0.054479881
2019-07-02T02:00:00	0.2756	14.203	198.6	0.718963911	0.920621545	0.017086161	0.176274777	0.054329598
2019-07-02T02:05:00	0.2780	14.185	198.4	0.726622428	0.932647692	0.017432063	0.179843383	0.055429477
2019-07-02T02:10:00	0.2783	14.169	198.3	0.727506385	0.934039074	0.017472225	0.180257729	0.055557183
2019-07-02T02:15:00	0.2787	14.152	198.2	0.728712181	0.935938148	0.017527090	0.180823754	0.055731637
2019-07-02T02:20:00	0.2791	14.136	198.1	0.730239503	0.938345442	0.017596715	0.181542067	0.055953028
2019-07-02T02:25:00	0.2793	14.119	198.0	0.730800759	0.939230582	0.017622338	0.181806412	0.056034502
2019-07-02T02:30:00	0.2785	14.099	211.4	0.728142474	0.935040727	0.017501156	0.180556204	0.055649176
2019-07-02T02:35:00	0.2762	14.076	211.2	0.720644395	0.923256007	0.017161746	0.177054565	0.054569937
2019-07-02T02:40:00	0.2792	14.054	197.6	0.730553263	0.938840229	0.017611037	0.181689819	0.055998567
2019-07-02T02:45:00	0.2798	14.032	197.4	0.732401559	0.941756676	0.017695528	0.182561499	0.056267227
2019-07-02T02:50:00	0.2797	14.013	197.3	0.731997360	0.941118630	0.017677032	0.182370684	0.056208416
2019-07-02T02:55:00	0.2795	13.995	197.2	0.731271317	0.939972899	0.017643836	0.182028198	0.056102859
2019-07-02T03:00:00	0.2812	13.976	197.1	0.736977111	0.948989403	0.017905619	0.184728970	0.056935263
2019-07-02T03:05:00	0.2796	13.956	210.4	0.731749944	0.940728143	0.017665716	0.182253935	0.056172433
2019-07-02T03:10:00	0.2812	13.933	210.3	0.736812389	0.948728702	0.017898033	0.184650703	0.056911140
2019-07-02T03:15:00	0.2825	13.911	196.7	0.740905143	0.955213268	0.018087036	0.186600612	0.057512121
2019-07-02T03:20:00	0.2798	13.892	196.6	0.732467768	0.941861203	0.017698558	0.182592765	0.056276864
2019-07-02T03:25:00	0.2818	13.870	209.8	0.738814112	0.951898393	0.017990339	0.185603015	0.057204652
2019-07-02T03:30:00	0.2800	13.849	209.7	0.732946240	0.942616706	0.017720468	0.182818802	0.056346530
2019-07-02T03:35:00	0.2814	13.830	209.7	0.737364540	0.949602670	0.017923469	0.184913125	0.056992021
2019-07-02T03:40:00	0.2800	13.812	209.5	0.733103009	0.942864287	0.017727650	0.182892894	0.056369366
2019-07-02T03:45:00	0.2795	13.793	209.4	0.731411901	0.940194711	0.017650261	0.182094487	0.056123289
2019-07-02T03:50:00	0.2790	13.776	209.2	0.729720024	0.937526434	0.017573017	0.181297581	0.055877675
2019-07-02T03:55:00	0.2807	13.757	209.1	0.735106725	0.946030597	0.017819578	0.183841304	0.056661675
2019-07-02T04:00:00	0.2818	13.741	209.1	0.738880207	0.952003112	0.017993392	0.185634504	0.057214357
2019-07-02T04:05:00	0.2804	13.725	208.9	0.734335764	0.944811892	0.017784177	0.183476079	0.056549109
2019-07-02T04:10:00	0.2792	13.706	208.8	0.730429599	0.938645207	0.017605391	0.181631577	0.055980616
2019-07-02T04:15:00	0.2787	13.691	208.7	0.728774224	0.936035897	0.017529915	0.180852903	0.055740621
2019-07-02T04:20:00	0.2786	13.676	208.6	0.728406583	0.935456724	0.017513176	0.180680210	0.055687396
2019-07-02T04:25:00	0.2783	13.657	208.5	0.727394661	0.933863178	0.017467147	0.180205332	0.055541033
2019-07-02T04:30:00	0.2798	13.644	208.4	0.732499942	0.941912000	0.017700031	0.182607960	0.056281547
2019-07-02T04:35:00	0.2798	13.630	208.3	0.732454395	0.941840090	0.017697946	0.182586450	0.056274917
2019-07-02T04:40:00	0.2800	13.616	208.2	0.733052223	0.942784079	0.017725323	0.182868890	0.056361968
2019-07-02T04:45:00	0.2800	13.604	208.1	0.733006682	0.942712158	0.017723237	0.182847366	0.056355334
2019-07-02T04:50:00	0.2803	13.592	208.0	0.733926020	0.944164398	0.017765378	0.183282130	0.056489332
2019-07-02T04:55:00	0.2810	13.581	207.9	0.736130930	0.947650430	0.017866666	0.184327098	0.056811402
2019-07-02T05:00:00	0.2819	13.571	194.6	0.738976891	0.952156305	0.017997857	0.185680572	0.057228555
2019-07-02T05:05:00	0.2812	13.565	194.5	0.737004006	0.949031971	0.017906858	0.184741750	0.056939202
2019-07-02T05:10:00	0.2830	13.557	207.8	0.742737851	0.958121796	0.018172014	0.187477320	0.057782331
2019-07-02T05:15:00	0.2844	13.551	207.7	0.747181350	0.965185978	0.018378934	0.189612078	0.058440284
2019-07-02T05:20:00	0.2826	13.545	194.4	0.741363450	0.955940328	0.018108266	0.186819645	0.057579629
2019-07-02T05:25:00	0.2828	13.542	194.4	0.741959851	0.956886740	0.018135914	0.187104882	0.057667542
2019-07-02T05:30:00	0.2810	13.540	194.3	0.736133806	0.947654979	0.017866798	0.184328463	0.056811823
2019-07-02T05:35:00	0.2824	13.541	207.5	0.740585164	0.954705761	0.018072221	0.186447770	0.057465014
2019-07-02T05:40:00	0.2822	13.544	207.5	0.740218687	0.954124616	0.018055261	0.186272800	0.057411086
2019-07-02T05:45:00	0.2835	13.547	207.2	0.744344506	0.960674011	0.018246686	0.188247700	0.058019769
2019-07-02T05:50:00	0.2830	13.547	207.5	0.742695299	0.958054232	0.018170039	0.187456939	0.057776049
2019-07-02T05:55:00	0.2828	13.550	194.3	0.742008154	0.956963404	0.018138154	0.187127993	0.057674665
2019-07-02T06:00:00	0.2836	13.555	207.6	0.744528981	0.960967201	0.018255271	0.188336263	0.058047065
2019-07-02T06:05:00	0.2846	13.557	194.3	0.747688968	0.965994088	0.018402652	0.189856773	0.058515701
2019-07-02T06:10:00	0.2838	13.558	194.3	0.745079484	0.961842304	0.018280901	0.188600681	0.058128562
2019-07-02T06:15:00	0.2854	13.560	207.5	0.750480818	0.970442681	0.018533393	0.191205596	0.058931422
2019-07-02T06:20:00	0.2859	13.559	207.5	0.752035981	0.972923700	0.018606435	0.191959160	0.059163677
2019-07-02T06:25:00	0.2858	13.557	207.5	0.751670624	0.972340637	0.018589261	0.191781981	0.059109069
2019-07-02T06:30:00	0.2867	13.560	194.3	0.754504791	0.976866693	0.018722706	0.193158704	0.059533388
2019-07-02T06:35:00	0.2878	13.567	194.3	0.757975923	0.982419646	0.018886839	0.194852040	0.060055291
2019-07-02T06:40:00	0.2857	13.572	194.3	0.751214593	0.971613038	0.018567837	0.191560953	0.059040946
2019-07-02T06:45:00	0.2870	13.579	207.6	0.755328320	0.978183170	0.018761577	0.193559731	0.059656989
2019-07-02T06:50:00	0.2868	13.588	194.4	0.754963283	0.977599555	0.018744342	0.193381917	0.059602185
2019-07-02T06:55:00	0.2862	13.595	207.6	0.752998812	0.974460817	0.018651734	0.192426503	0.059307717
2019-07-02T07:00:00	0.2860	13.599	207.6	0.752313555	0.973366751	0.018619488	0.192093828	0.059205183
2019-07-02T07:05:00	0.2859	13.597	207.6	0.751948225	0.972783641	0.018602309	0.191916595	0.059150558
2019-07-02T07:10:00	0.2850	13.611	194.4	0.749021433	0.968116407	0.018464989	0.190499887	0.058713915
2019-07-02T07:15:00	0.2871	13.656	207.8	0.755696183	0.978771422	0.018778954	0.193739011	0.059712245
2019-07-02T07:20:00	0.2878	13.679	208.0	0.757888306	0.982279347	0.018882687	0.194809200	0.060042087
2019-07-02T07:25:00	0.2862	13.713	194.8	0.753046972	0.974537725	0.018654002	0.192449895	0.059314927
2019-07-02T07:30:00	0.2881	13.736	208.2	0.759075767	0.984181351	0.018939006	0.195390238	0.060221169
2019-07-02T07:35:00	0.2858	13.752	208.2	0.751676351	0.972349777	0.018589530	0.191784758	0.059109925
2019-07-02T07:40:00	0.2864	13.761	208.3	0.753550934	0.975342627	0.018677737	0.192694769	0.059390399
2019-07-02T07:45:00	0.2871	13.754	208.3	0.755744309	0.978848389	0.018781228	0.193762472	0.059719476
2019-07-02T07:50:00	0.2881	13.796	208.4	0.758894864	0.983891511	0.018930421	0.195301660	0.060193868
2019-07-02T07:55:00	0.2859	13.802	208.4	0.751815154	0.972571275	0.018596054	0.191852060	0.059130668
2019-07-02T08:00:00	0.2860	13.767	208.3	0.752409893	0.973520536	0.018624020	0.192140579	0.059219592
2019-07-02T08:05:00	0.2855	13.758	208.3	0.750764236	0.970894671	0.018546693	0.191342810	0.058973712
2019-07-02T08:10:00	0.2849	13.759	208.3	0.748797563	0.967759722	0.018454508	0.190391755	0.058680588
2019-07-02T08:15:00	0.2864	13.758	208.4	0.753553796	0.975347199	0.018677872	0.192696160	0.059390828
2019-07-02T08:20:00	0.2861	13.788	208.4	0.752548669	0.973742081	0.018630549	0.192207935	0.059240352
2019-07-02T08:25:00	0.2855	13.808	208.5	0.750582932	0.970605522	0.018538184	0.191255027	0.058946657
2019-07-02T08:30:00	0.2839	13.819	208.6	0.745411570	0.962370331	0.018296371	0.188760285	0.058177753
2019-07-02T08:35:00	0.2844	13.848	208.7	0.747289289	0.965357793	0.018383976	0.189664095	0.058456316
2019-07-02T08:40:00	0.2865	13.879	208.9	0.753967119	0.976007505	0.018697351	0.192897119	0.059452765
2019-07-02T08:45:00	0.2855	13.902	209.0	0.750721775	0.970826951	0.018544700	0.191322249	0.058967375
2019-07-02T08:50:00	0.2873	13.925	209.2	0.756434660	0.979952688	0.018813865	0.194099180	0.059823252
2019-07-02T08:55:00	0.2851	13.957	209.3	0.749350304	0.968640467	0.018480392	0.190658796	0.058762893
2019-07-02T09:00:00	0.2863	13.948	209.2	0.753146154	0.974696115	0.018658671	0.192498074	0.059329776
2019-07-02T09:05:00	0.2850	13.987	196.1	0.748939338	0.967985603	0.018461145	0.190460230	0.058701693
2019-07-02T09:10:00	0.2835	14.037	196.2	0.744407124	0.960773529	0.018249600	0.188277760	0.058029034
2019-07-02T09:15:00	0.2849	14.062	209.8	0.748848643	0.967841103	0.018456899	0.190416424	0.058688191
2019-07-02T09:20:00	0.2853	14.080	209.9	0.750084301	0.969810443	0.018514794	0.191013715	0.058872282
2019-07-02T09:25:00	0.2864	14.095	196.5	0.753559521	0.975356344	0.018678142	0.192698943	0.059391686
2019-07-02T09:30:00	0.2851	14.077	196.5	0.749353170	0.968645033	0.018480526	0.190660181	0.058763319
2019-07-02T09:35:00	0.2847	14.113	210.1	0.748026556	0.966531641	0.018418435	0.190019600	0.058565886
2019-07-02T09:40:00	0.2858	14.172	196.9	0.751503684	0.972074262	0.018581417	0.191701053	0.059084126
2019-07-02T09:45:00	0.2848	14.143	210.3	0.748576545	0.967407625	0.018444163	0.190285032	0.058647695
2019-07-02T09:50:00	0.2843	14.181	210.4	0.746929203	0.964784654	0.018367159	0.189490595	0.058402842
2019-07-02T09:55:00	0.2837	14.171	210.4	0.744960514	0.961653162	0.018275360	0.188543521	0.058110944
2019-07-02T10:00:00	0.2846	14.182	197.0	0.747799759	0.966170493	0.018407831	0.189910202	0.058532169
2019-07-02T10:05:00	0.2852	14.180	210.5	0.749766956	0.969304542	0.018499916	0.190860222	0.058824974
2019-07-02T10:10:00	0.2863	14.219	197.2	0.753333059	0.974994620	0.018667474	0.192588884	0.059357764
2019-07-02T10:15:00	0.2855	14.241	197.3	0.750818154	0.970980666	0.018549223	0.191368919	0.058981759
2019-07-02T10:20:00	0.2851	14.269	210.9	0.749262485	0.968500516	0.018476278	0.190616355	0.058749812
2019-07-02T10:25:00	0.2853	14.243	197.3	0.749948299	0.969593623	0.018508417	0.190947926	0.058852005
2019-07-02T10:30:00	0.2852	14.261	210.9	0.749673415	0.969155441	0.018495532	0.190814991	0.058811033
2019-07-02T10:35:00	0.2858	14.291	197.6	0.751639629	0.972291179	0.018587805	0.191766954	0.059104438
2019-07-02T10:40:00	0.2837	14.310	211.2	0.744957645	0.961648601	0.018275226	0.188542142	0.058110519
2019-07-02T10:45:00	0.2831	14.302	211.2	0.743078756	0.958663143	0.018187845	0.187640640	0.057832668
2019-07-02T10:50:00	0.2838	14.302	211.2	0.745369049	0.962302715	0.018294390	0.188739845	0.058171453
2019-07-02T10:55:00	0.2839	14.319	211.3	0.745414439	0.962374893	0.018296504	0.188761664	0.058178178
2019-07-02T11:00:00	0.2819	14.350	197.9	0.739042473	0.952260222	0.018000886	0.185711824	0.057238188
2019-07-02T11:05:00	0.2800	14.380	198.1	0.732981289	0.942672056	0.017722074	0.182835365	0.056351635
2019-07-02T11:10:00	0.2810	14.411	198.3	0.736242064	0.947826249	0.017871779	0.184379852	0.056827661
2019-07-02T11:15:00	0.2834	14.424	198.3	0.743992745	0.960115036	0.018230324	0.188078889	0.057967740
2019-07-02T11:20:00	0.2812	14.415	198.3	0.736975764	0.948987272	0.017905557	0.184728330	0.056935065
2019-07-02T11:25:00	0.2823	14.438	198.5	0.740554077	0.954656460	0.018070782	0.186432925	0.057460438
2019-07-02T11:30:00	0.2817	14.464	212.1	0.738351781	0.951165988	0.017968997	0.185382831	0.057136789
2019-07-02T11:35:00	0.2804	14.509	198.8	0.734219328	0.944627881	0.017778834	0.183420954	0.056532119
2019-07-02T11:40:00	0.2803	14.553	199.1	0.733943285	0.944191677	0.017766170	0.183290300	0.056491850
2019-07-02T11:45:00	0.2802	14.605	199.4	0.733667221	0.943755508	0.017753510	0.183159685	0.056451594
2019-07-02T11:50:00	0.2807	14.628	213.1	0.735320422	0.946368493	0.017829397	0.183942607	0.056692898
2019-07-02T11:55:00	0.2800	14.640	213.2	0.733115031	0.942883274	0.017728201	0.182898577	0.056371118
2019-07-02T12:00:00	0.2790	14.691	213.5	0.729942672	0.937877431	0.017583172	0.181402346	0.055909965
2019-07-02T12:05:00	0.2788	14.699	213.5	0.729022349	0.936426855	0.017541217	0.180969506	0.055776559
2019-07-02T12:10:00	0.2779	14.747	213.9	0.726168764	0.931933873	0.017411470	0.179630930	0.055363997
2019-07-02T12:15:00	0.2780	14.791	214.1	0.726536627	0.932512674	0.017428168	0.179803192	0.055417090
2019-07-02T12:20:00	0.2789	14.811	214.2	0.729481099	0.937149824	0.017562124	0.181185193	0.055843036
2019-07-02T12:25:00	0.2800	14.842	214.4	0.733066613	0.942806807	0.017725982	0.182875692	0.056364064
2019-07-02T12:30:00	0.2800	14.851	214.5	0.733112153	0.942878729	0.017728069	0.182897217	0.056370698
2019-07-02T12:35:00	0.2782	14.845	214.4	0.727363464	0.933814064	0.017465729	0.180190702	0.055536524
2019-07-02T12:40:00	0.2767	14.854	214.5	0.722251113	0.925777140	0.017234178	0.177801837	0.054800253
2019-07-02T12:45:00	0.2786	14.852	214.5	0.728420991	0.935479421	0.017513832	0.180686977	0.055689481
2019-07-02T12:50:00	0.2782	14.873	214.7	0.727178137	0.933522319	0.017457306	0.180103807	0.055509742
2019-07-02T12:55:00	0.2781	14.911	214.9	0.726901570	0.933086998	0.017444741	0.179974174	0.055469788
2019-07-02T13:00:00	0.2772	14.929	215.0	0.724046354	0.928596758	0.017315301	0.178638771	0.055058204
2019-07-02T13:05:00	0.2764	14.938	215.2	0.721511614	0.924616496	0.017200820	0.177457694	0.054694185
2019-07-02T13:10:00	0.2767	14.935	215.1	0.722525141	0.926207346	0.017246548	0.177929452	0.054839585
2019-07-02T13:15:00	0.2773	14.922	215.1	0.724183304	0.928811969	0.017321498	0.178702703	0.055077908
2019-07-02T13:20:00	0.2777	14.920	215.1	0.725518428	0.930910914	0.017381973	0.179326608	0.055270202
2019-07-02T13:25:00	0.2764	14.930	215.3	0.721371678	0.924396921	0.017194512	0.177392612	0.054674126
2019-07-02T13:30:00	0.2767	14.938	215.3	0.722385243	0.925987707	0.017240232	0.177864296	0.054819503
2019-07-02T13:35:00	0.2781	14.942	215.5	0.726944303	0.933154255	0.017446682	0.179994200	0.055475961
2019-07-02T13:40:00	0.2765	14.967	215.6	0.721831374	0.925118301	0.017215240	0.177606458	0.054740035
2019-07-02T13:45:00	0.2759	14.990	215.8	0.719940770	0.922152648	0.017130077	0.176727842	0.054469237
2019-07-02T13:50:00	0.2766	15.001	215.8	0.721922729	0.925261682	0.017219361	0.177648972	0.054753139
2019-07-02T13:55:00	0.2759	15.008	215.9	0.719709368	0.921789878	0.017119668	0.176620462	0.054436142
2019-07-02T14:00:00	0.2763	15.012	215.9	0.721046103	0.923886124	0.017179840	0.177241240	0.054627471
2019-07-02T14:05:00	0.2758	15.018	216.0	0.719477951	0.921427133	0.017109263	0.176513110	0.054403055
2019-07-02T14:10:00	0.2754	15.017	216.0	0.718232095	0.919475062	0.017053301	0.175935767	0.054225112
2019-07-02T14:15:00	0.2769	15.026	216.1	0.723118797	0.927139577	0.017273362	0.178206087	0.054924847
2019-07-02T14:20:00	0.2758	15.032	216.1	0.719615069	0.921642060	0.017115428	0.176576714	0.054422658
2019-07-02T14:25:00	0.2764	15.029	216.1	0.721274535	0.924244503	0.017190134	0.177347439	0.054660203
2019-07-02T14:30:00	0.2748	15.020	216.1	0.716153772	0.916221659	0.016960164	0.174974887	0.053928960
2019-07-02T14:35:00	0.2759	15.020	216.2	0.719752183	0.921856996	0.017121594	0.176640328	0.054442265
2019-07-02T14:40:00	0.2728	15.028	216.2	0.709777200	0.906263314	0.016676097	0.172044215	0.053025698
2019-07-02T14:45:00	0.2733	15.024	216.2	0.711441086	0.908858399	0.016749975	0.172806404	0.053260612
2019-07-02T14:50:00	0.2742	15.025	216.2	0.714397577	0.913475455	0.016881674	0.174165117	0.053679381
2019-07-02T14:55:00	0.2736	15.025	216.3	0.712503169	0.910516142	0.016797223	0.173293855	0.053410849
2019-07-02T15:00:00	0.2736	15.016	216.3	0.712225504	0.910082656	0.016784864	0.173166348	0.053371550
2019-07-02T15:05:00	0.2748	14.999	216.2	0.716150881	0.916217136	0.016960035	0.174973552	0.053928548
2019-07-02T15:10:00	0.2727	14.989	216.2	0.709404771	0.905682784	0.016659584	0.171873859	0.052973193
2019-07-02T15:15:00	0.2742	14.985	216.2	0.714303143	0.913327863	0.016877459	0.174121631	0.053665978
2019-07-02T15:20:00	0.2721	14.988	216.2	0.707553653	0.902799117	0.016577639	0.171028449	0.052712629
2019-07-02T15:25:00	0.2709	14.987	216.2	0.703710919	0.896822440	0.016408214	0.169280515	0.052173899
2019-07-02T15:30:00	0.2735	14.988	216.3	0.712176813	0.910006647	0.016782697	0.173143993	0.053364660
2019-07-02T15:35:00	0.2715	14.991	216.3	0.705423427	0.899484350	0.016483604	0.170058304	0.052413621
2019-07-02T15:40:00	0.2733	14.977	216.3	0.711297874	0.908634942	0.016743609	0.172740731	0.053240371
2019-07-02T15:45:00	0.2718	14.970	216.2	0.706487244	0.901139224	0.016530529	0.170542420	0.052562830
2019-07-02T15:50:00	0.2712	14.964	216.2	0.704588768	0.898186644	0.016446837	0.169678982	0.052296710
2019-07-02T15:55:00	0.2719	14.954	216.2	0.706902933	0.901786137	0.016548884	0.170731788	0.052621195
2019-07-02T16:00:00	0.2705	14.944	216.2	0.702410907	0.894803414	0.016351105	0.168691335	0.051992308
2019-07-02T16:05:00	0.2717	14.927	202.3	0.706263695	0.900791388	0.016520662	0.170440628	0.052531457
2019-07-02T16:10:00	0.2686	14.906	216.1	0.696168822	0.885129386	0.016078361	0.165877488	0.051125053
2019-07-02T16:15:00	0.2687	14.889	216.0	0.696456422	0.885574366	0.016090874	0.166006584	0.051164841
2019-07-02T16:20:00	0.2683	14.871	216.0	0.695119461	0.883506397	0.016032748	0.165406908	0.050980015
2019-07-02T16:25:00	0.2671	14.856	215.9	0.691180307	0.877422440	0.015862134	0.163646713	0.050437506
2019-07-02T16:30:00	0.2667	14.844	215.9	0.689841420	0.875357612	0.015804363	0.163050701	0.050253809
2019-07-02T16:35:00	0.2673	14.828	215.9	0.692081529	0.878813177	0.015901083	0.164048543	0.050561354
2019-07-02T16:40:00	0.2684	14.810	215.8	0.695620239	0.884280803	0.016054507	0.165631391	0.051049203
2019-07-02T16:45:00	0.2685	14.791	215.7	0.695907881	0.884725713	0.016067012	0.165760405	0.051088967
2019-07-02T16:50:00	0.2670	14.771	215.6	0.690993668	0.877134514	0.015854074	0.163563561	0.050411878
2019-07-02T16:55:00	0.2670	14.755	215.6	0.690956340	0.877076930	0.015852462	0.163546933	0.050406753
2019-07-02T17:00:00	0.2652	14.735	215.6	0.685057982	0.867993265	0.015598873	0.160930695	0.049600403
2019-07-02T17:05:00	0.2643	14.719	215.4	0.682086520	0.863428499	0.015471936	0.159621113	0.049196777
2019-07-02T17:10:00	0.2641	14.703	215.3	0.681396757	0.862369973	0.015442549	0.159317927	0.049103332
2019-07-02T17:15:00	0.2642	14.687	215.3	0.681685520	0.862813065	0.015454848	0.159444816	0.049142441
2019-07-02T17:20:00	0.2633	14.675	215.3	0.679037735	0.858752867	0.015342264	0.158283308	0.048784453
2019-07-02T17:25:00	0.2614	14.670	215.2	0.672793108	0.849201069	0.015078456	0.155561647	0.047945611
2019-07-02T17:30:00	0.2628	14.660	215.2	0.677330374	0.856137948	0.015269896	0.157536706	0.048554343
2019-07-02T17:35:00	0.2635	14.644	215.2	0.679578166	0.859581090	0.015365208	0.158520017	0.048857409
2019-07-02T17:40:00	0.2637	14.630	215.1	0.680193395	0.860524250	0.015391349	0.158789714	0.048940532
2019-07-02T17:45:00	0.2617	14.618	215.0	0.673623869	0.850469867	0.015113413	0.155922296	0.048056766
2019-07-02T17:50:00	0.2619	14.596	214.9	0.674240105	0.851411412	0.015139371	0.156190099	0.048139305
2019-07-02T17:55:00	0.2604	14.579	214.8	0.669296613	0.843867465	0.014931793	0.154048559	0.047479262
2019-07-02T18:00:00	0.2637	14.566	214.9	0.680043636	0.860294635	0.015384984	0.158724042	0.048920291
2019-07-02T18:05:00	0.2632	14.549	214.7	0.678700660	0.858236419	0.015327962	0.158135763	0.048738978
2019-07-02T18:10:00	0.2629	14.535	214.7	0.677683738	0.856678938	0.015284859	0.157691074	0.048601921
2019-07-02T18:15:00	0.2628	14.519	214.5	0.677319721	0.856121641	0.015269445	0.157532054	0.048552909
2019-07-02T18:20:00	0.2636	14.502	214.6	0.679893870	0.860065030	0.015378619	0.158658381	0.048900054
2019-07-02T18:25:00	0.2626	14.487	214.5	0.676591580	0.855007222	0.015238638	0.157214218	0.048454949
2019-07-02T18:30:00	0.2641	14.466	214.5	0.681450329	0.862452172	0.015444830	0.159341464	0.049110587
2019-07-02T18:35:00	0.2635	14.448	214.3	0.679455181	0.859392591	0.015359985	0.158466133	0.048840801
2019-07-02T18:40:00	0.2625	14.428	214.2	0.676152494	0.854335422	0.015220076	0.157022720	0.048395927
2019-07-02T18:45:00	0.2619	14.410	214.1	0.674481277	0.851779986	0.015149536	0.156294973	0.048171629
2019-07-02T18:50:00	0.2634	14.392	214.0	0.679342839	0.859220415	0.015355215	0.158416921	0.048825634
2019-07-02T18:55:00	0.2613	14.377	214.0	0.672444788	0.848669265	0.015063811	0.155410565	0.047899046
2019-07-02T19:00:00	0.2609	14.361	200.2	0.671099006	0.846615549	0.015007302	0.154827565	0.047719359
2019-07-02T19:05:00	0.2612	14.344	213.8	0.672042724	0.848055537	0.015046917	0.155236269	0.047845326
2019-07-02T19:10:00	0.2607	14.324	213.7	0.670369617	0.845503125	0.014976721	0.154512070	0.047622121
2019-07-02T19:15:00	0.2633	14.307	199.9	0.678829179	0.858433317	0.015333414	0.158192010	0.048756314
2019-07-02T19:20:00	0.2620	14.284	199.8	0.674545611	0.851878315	0.015152249	0.156322955	0.048180253
2019-07-02T19:25:00	0.2622	14.259	213.3	0.675161691	0.852820109	0.015178235	0.156591051	0.048262883
2019-07-02T19:30:00	0.2632	14.221	199.5	0.678716818	0.858261173	0.015328648	0.158142834	0.048741157
2019-07-02T19:35:00	0.2641	14.187	212.8	0.681616176	0.862706654	0.015451894	0.159414340	0.049133048
2019-07-02T19:40:00	0.2664	14.152	212.7	0.689073299	0.874173717	0.015771270	0.162709285	0.050148582
2019-07-02T19:45:00	0.2662	14.118	212.6	0.688384854	0.873113059	0.015741641	0.162403606	0.050054368
2019-07-02T19:50:00	0.2670	14.084	198.8	0.690951217	0.877069029	0.015852241	0.163544651	0.050406050
2019-07-02T19:55:00	0.2670	14.046	198.6	0.690913888	0.877011446	0.015850630	0.163528024	0.050400925
2019-07-02T20:00:00	0.2655	14.011	198.4	0.685992964	0.869431162	0.015638927	0.161343927	0.049727765
2019-07-02T20:05:00	0.2670	13.970	198.2	0.690839228	0.876896282	0.015847406	0.163494771	0.050390676
2019-07-02T20:10:00	0.2678	13.934	211.6	0.693403873	0.880855048	0.015958323	0.164639082	0.050743364
2019-07-02T20:15:00	0.2681	13.900	211.4	0.694666877	0.882806705	0.016013097	0.165204166	0.050917529
2019-07-02T20:20:00	0.2695	13.864	211.2	0.699177084	0.889787390	0.016209502	0.167230446	0.051542048
2019-07-02T20:25:00	0.2681	13.831	211.0	0.694592294	0.882691417	0.016009859	0.165170768	0.050907235
2019-07-02T20:30:00	0.2689	13.797	210.8	0.697154315	0.886654461	0.016121260	0.166320071	0.051261461
2019-07-02T20:35:00	0.2705	13.762	210.6	0.702310215	0.894647092	0.016346686	0.168645746	0.051978257
2019-07-02T20:40:00	0.2701	13.728	210.4	0.700975384	0.892575635	0.016288166	0.168042004	0.051792177
2019-07-02T20:45:00	0.2709	13.694	210.2	0.703532959	0.896545967	0.016400390	0.169199797	0.052149021
2019-07-02T20:50:00	0.2703	13.659	210.0	0.701549808	0.893466864	0.016313335	0.168301674	0.051872210
2019-07-02T20:55:00	0.2703	13.624	209.9	0.701836986	0.893912534	0.016325926	0.168431574	0.051912247
2019-07-02T21:00:00	0.2712	13.591	209.7	0.704718107	0.898387697	0.016452531	0.169737732	0.052314818
2019-07-02T21:05:00	0.2724	13.559	209.5	0.708568483	0.904379647	0.016622537	0.171491650	0.052855392
2019-07-02T21:10:00	0.2722	13.531	209.3	0.707883683	0.903313019	0.016592233	0.171179012	0.052759034
2019-07-02T21:15:00	0.2701	13.503	209.1	0.701039254	0.892674716	0.016290963	0.168070866	0.051801073
2019-07-02T21:20:00	0.2725	13.479	209.0	0.708780818	0.904710459	0.016631939	0.171588651	0.052885289
2019-07-02T21:25:00	0.2731	13.451	208.9	0.710685824	0.907680152	0.016716419	0.172460213	0.053153913
2019-07-02T21:30:00	0.2715	13.425	195.4	0.705467289	0.899552562	0.016485537	0.170078250	0.052419768
2019-07-02T21:35:00	0.2731	13.401	195.3	0.710611564	0.907564331	0.016713122	0.172426195	0.053143428
2019-07-02T21:40:00	0.2726	13.378	195.1	0.709279739	0.905487916	0.016654043	0.171816687	0.052955572
2019-07-02T21:45:00	0.2720	13.354	208.3	0.707299681	0.902403714	0.016566413	0.170912632	0.052676933
2019-07-02T21:50:00	0.2715	13.332	194.9	0.705642623	0.899825251	0.016493267	0.170157995	0.052444347
2019-07-02T21:55:00	0.2722	13.307	208.1	0.707873119	0.903296568	0.016591766	0.171174192	0.052757548
2019-07-02T22:00:00	0.2717	13.281	194.6	0.706216319	0.900717679	0.016518572	0.170419060	0.052524809
2019-07-02T22:05:00	0.2713	13.258	194.5	0.704971780	0.898782065	0.016463703	0.169852991	0.052350341
2019-07-02T22:10:00	0.2738	13.233	194.3	0.713117189	0.911474978	0.016824571	0.173575996	0.053497808
2019-07-02T22:15:00	0.2726	13.208	207.5	0.709286046	0.905497745	0.016654322	0.171819571	0.052956460
2019-07-02T22:20:00	0.2735	13.179	207.2	0.711926567	0.909616035	0.016771563	0.173029128	0.053329258
2019-07-02T22:25:00	0.2740	13.150	207.1	0.713595272	0.912221766	0.016845880	0.173795843	0.053565567
2019-07-02T22:30:00	0.2754	13.123	207.0	0.718170936	0.919379270	0.017050557	0.175907451	0.054216385
2019-07-02T22:35:00	0.2752	13.095	206.8	0.717576486	0.918448366	0.017023892	0.175632355	0.054131597
2019-07-02T22:40:00	0.2752	13.069	206.6	0.717627997	0.918529019	0.017026202	0.175656183	0.054138942
2019-07-02T22:45:00	0.2761	13.042	206.5	0.720585323	0.923163359	0.017159086	0.177027123	0.054561479
2019-07-02T22:50:00	0.2750	13.013	193.1	0.716761917	0.917173257	0.016987389	0.175255764	0.054015528
2019-07-02T22:55:00	0.2751	12.989	206.2	0.717136495	0.917759542	0.017004170	0.175428885	0.054068886
2019-07-02T23:00:00	0.2743	12.966	192.9	0.714602804	0.913796233	0.016890836	0.174259643	0.053708514
2019-07-02T23:05:00	0.2752	12.941	205.9	0.717562547	0.918426542	0.017023267	0.175625907	0.054129610
2019-07-02T23:10:00	0.2731	12.918	192.6	0.710824808	0.907896937	0.016722591	0.172523892	0.053173539
2019-07-02T23:15:00	0.2741	12.893	205.5	0.714110900	0.913027426	0.016868880	0.174033122	0.053638698
2019-07-02T23:20:00	0.2722	12.868	192.3	0.707690738	0.903012566	0.016583700	0.171090980	0.052731902
2019-07-02T23:25:00	0.2735	12.842	192.1	0.711950237	0.909652979	0.016772616	0.173039991	0.053332606
2019-07-02T23:30:00	0.2743	12.814	205.1	0.714588854	0.913774428	0.016890213	0.174253217	0.053706534
2019-07-02T23:35:00	0.2728	12.785	191.8	0.709788308	0.906280631	0.016676589	0.172049298	0.053027265
2019-07-02T23:40:00	0.2718	12.757	204.7	0.706601693	0.901317319	0.016535582	0.170594547	0.052578896
2019-07-02T23:45:00	0.2719	12.729	204.5	0.706977304	0.901901892	0.016552169	0.170765680	0.052631641
2019-07-02T23:50:00	0.2738	12.700	204.4	0.712855065	0.911065613	0.016812893	0.173455521	0.053460676
2019-07-02T23:55:00	0.2730	12.672	204.2	0.710318435	0.907107187	0.016700109	0.172291946	0.053102051
2019-07-03T00:00:00	0.2717	12.643	204.0	0.706160392	0.900630667	0.016516104	0.170393600	0.052516962
2019-07-03T00:05:00	0.2721	12.611	190.8	0.707507834	0.902727779	0.016575614	0.171007551	0.052706188
2019-07-03T00:10:00	0.2740	12.582	203.7	0.713708108	0.912398051	0.016850912	0.173847753	0.053581566
2019-07-03T00:15:00	0.2715	12.553	203.6	0.705667361	0.899863726	0.016494358	0.170169247	0.052447815
2019-07-03T00:20:00	0.2709	12.523	203.4	0.703774264	0.896920858	0.016410999	0.169309252	0.052182756
2019-07-03T00:25:00	0.2723	12.492	203.2	0.708038289	0.903553793	0.016599072	0.171249569	0.052780780
2019-07-03T00:30:00	0.2700	12.464	203.0	0.700634186	0.892046394	0.016273225	0.167887864	0.051744670
2019-07-03T00:35:00	0.2712	12.431	189.8	0.704577718	0.898169466	0.016446350	0.169673962	0.052295163
2019-07-03T00:40:00	0.2726	12.400	202.6	0.709164567	0.905308427	0.016648939	0.171764032	0.052939343
2019-07-03T00:45:00	0.2729	12.370	189.5	0.710187276	0.906902666	0.016694288	0.172231896	0.053083543
2019-07-03T00:50:00	0.2717	12.338	189.3	0.706353087	0.900930474	0.016524607	0.170481328	0.052544001
2019-07-03T00:55:00	0.2724	12.310	189.1	0.708348140	0.904036402	0.016612783	0.171391022	0.052824378
2019-07-03T01:00:00	0.2705	12.283	189.0	0.702242289	0.894541644	0.016343705	0.168614995	0.051968779
2019-07-03T01:05:00	0.2717	12.254	188.8	0.706184099	0.900667550	0.016517150	0.170404392	0.052520289
2019-07-03T01:10:00	0.2727	12.222	188.6	0.709474325	0.905791193	0.016662667	0.171905667	0.052982996
2019-07-03T01:15:00	0.2705	12.192	188.5	0.702397462	0.894782541	0.016350515	0.168685248	0.051990432
2019-07-03T01:20:00	0.2713	12.164	188.3	0.705042922	0.898892675	0.016466837	0.169885322	0.052360306
2019-07-03T01:25:00	0.2708	12.133	188.1	0.703149504	0.895950336	0.016383538	0.169025942	0.052095437
2019-07-03T01:30:00	0.2706	12.105	188.0	0.702552629	0.895023448	0.016357326	0.168755512	0.052012088
2019-07-03T01:35:00	0.2723	12.078	187.8	0.708113627	0.903671128	0.016602405	0.171283957	0.052791379
2019-07-03T01:40:00	0.2728	12.051	187.7	0.709784056	0.906274001	0.016676401	0.172047352	0.053026665
2019-07-03T01:45:00	0.2718	12.025	187.5	0.706597436	0.901310695	0.016535394	0.170592608	0.052578298
2019-07-03T01:50:00	0.2719	12.000	187.4	0.706973048	0.901895267	0.016551981	0.170763740	0.052631043
2019-07-03T01:55:00	0.2707	11.971	187.2	0.703135511	0.895928602	0.016382923	0.169019599	0.052093482
2019-07-03T02:00:00	0.2718	11.942	187.0	0.706428459	0.901047752	0.016527934	0.170515650	0.052554579
2019-07-03T02:05:00	0.2729	11.913	186.9	0.710042145	0.906676375	0.016687849	0.172165461	0.053063067
2019-07-03T02:10:00	0.2725	11.884	186.7	0.708798897	0.904738627	0.016632740	0.171596911	0.052887835
2019-07-03T02:15:00	0.2715	11.856	186.6	0.705611426	0.899776729	0.016491891	0.170143804	0.052439973
2019-07-03T02:20:00	0.2712	11.828	199.1	0.704690830	0.898345295	0.016451330	0.169725341	0.052310998
2019-07-03T02:25:00	0.2713	11.800	198.9	0.705066636	0.898929546	0.016467882	0.169896100	0.052363628
2019-07-03T02:30:00	0.2709	11.773	186.1	0.703497483	0.896490856	0.016398830	0.169183709	0.052144062
2019-07-03T02:35:00	0.2745	11.747	198.5	0.715203186	0.914734870	0.016917655	0.174536330	0.053793792
2019-07-03T02:40:00	0.2743	11.719	198.2	0.714608259	0.913804761	0.016891080	0.174262156	0.053709289
2019-07-03T02:45:00	0.2731	11.691	198.2	0.710778664	0.907824961	0.016720542	0.172502749	0.053167023
2019-07-03T02:50:00	0.2726	11.666	185.3	0.709211942	0.905382256	0.016651038	0.171785690	0.052946018
2019-07-03T02:55:00	0.2748	11.642	197.9	0.716378810	0.916573750	0.016970236	0.175078795	0.053960985
2019-07-03T03:00:00	0.2745	11.618	197.7	0.715137694	0.914632465	0.016914729	0.174506137	0.053784486
2019-07-03T03:05:00	0.2744	11.593	197.6	0.714866011	0.914207694	0.016902591	0.174380914	0.053745891
2019-07-03T03:10:00	0.2747	11.569	184.8	0.715887142	0.915804550	0.016948235	0.174851817	0.053891028
2019-07-03T03:15:00	0.2743	11.547	197.3	0.714645861	0.913863539	0.016892759	0.174279478	0.053714628
2019-07-03T03:20:00	0.2749	11.524	184.5	0.716636439	0.916976888	0.016981770	0.175197791	0.053997661
2019-07-03T03:25:00	0.2737	11.500	197.0	0.712808946	0.910993594	0.016810839	0.173434328	0.053454144
2019-07-03T03:30:00	0.2759	11.481	184.2	0.719646039	0.921690607	0.017116820	0.176591082	0.054427086
2019-07-03T03:35:00	0.2750	11.459	184.1	0.716791008	0.917218785	0.016988692	0.175269206	0.054019671
2019-07-03T03:40:00	0.2761	11.438	184.0	0.720394575	0.922864214	0.017150498	0.176938527	0.054534172
2019-07-03T03:45:00	0.2758	11.417	183.9	0.719477658	0.921426674	0.017109250	0.176512975	0.054403013
2019-07-03T03:50:00	0.2762	11.397	196.3	0.720820253	0.923531839	0.017169665	0.177136274	0.054595120
2019-07-03T03:55:00	0.2765	11.378	196.2	0.721839742	0.925131434	0.017215618	0.177610352	0.054741236
2019-07-03T04:00:00	0.2736	11.360	196.1	0.712523135	0.910547315	0.016798112	0.173303025	0.053413675
2019-07-03T04:05:00	0.2759	11.345	197.5	0.719769221	0.921883706	0.017122360	0.176648234	0.054444701
2019-07-03T04:10:00	0.2761	11.327	196.5	0.720551875	0.923110902	0.017157580	0.177011586	0.054556690
2019-07-03T04:15:00	0.2762	11.311	183.3	0.720688954	0.923325896	0.017163752	0.177075267	0.054576317
2019-07-03T04:20:00	0.2769	11.296	195.7	0.723084386	0.927085532	0.017271807	0.178190045	0.054919902
2019-07-03T04:25:00	0.2764	11.283	183.2	0.721285792	0.924262164	0.017190641	0.177352673	0.054661816
2019-07-03T04:30:00	0.2773	11.270	195.5	0.724325726	0.929035796	0.017327944	0.178769202	0.055098404
2019-07-03T04:35:00	0.2790	11.257	196.5	0.729939500	0.937872429	0.017583027	0.181400853	0.055909505
2019-07-03T04:40:00	0.2786	11.243	182.8	0.728466296	0.935550787	0.017515894	0.180708254	0.055696039
2019-07-03T04:45:00	0.2781	11.231	195.7	0.726992508	0.933230129	0.017448872	0.180016793	0.055482924
2019-07-03T04:50:00	0.2771	11.222	195.2	0.723583755	0.927869927	0.017294378	0.178422909	0.054991673
2019-07-03T04:55:00	0.2785	11.211	195.2	0.728232543	0.935182587	0.017505255	0.180598489	0.055662208
2019-07-03T05:00:00	0.2798	11.203	182.5	0.732232116	0.941489185	0.017687773	0.182481495	0.056242569
2019-07-03T05:05:00	0.2814	11.197	182.5	0.737512717	0.949837258	0.017930298	0.184983584	0.057013737
2019-07-03T05:10:00	0.2819	11.190	182.5	0.739255144	0.952597233	0.018010711	0.185813187	0.057269429
2019-07-03T05:15:00	0.2803	11.184	182.4	0.733928606	0.944168484	0.017765497	0.183283353	0.056489710
2019-07-03T05:20:00	0.2818	11.181	182.4	0.738885663	0.952011757	0.017993644	0.185637104	0.057215158
2019-07-03T05:25:00	0.2813	11.181	182.3	0.737094698	0.949175519	0.017911036	0.184784852	0.056952486
2019-07-03T05:30:00	0.2834	11.179	182.3	0.743972367	0.960082656	0.018229376	0.188069112	0.057964727
2019-07-03T05:35:00	0.2815	11.180	182.3	0.737688907	0.950116218	0.017938421	0.185067381	0.057039564
2019-07-03T05:40:00	0.2821	11.184	182.4	0.739752348	0.953385285	0.018033692	0.186050279	0.057342503
2019-07-03T05:45:00	0.2813	11.190	194.4	0.737319270	0.949531006	0.017921383	0.184891602	0.056985387
2019-07-03T05:50:00	0.2817	11.198	182.4	0.738419449	0.951273171	0.017972120	0.185415048	0.057146719
2019-07-03T05:55:00	0.2818	11.209	182.5	0.738877042	0.951998098	0.017993245	0.185632996	0.057213892
2019-07-03T06:00:00	0.2824	11.221	182.4	0.740618832	0.954759156	0.018073779	0.186463849	0.057469969
2019-07-03T06:05:00	0.2819	11.235	182.5	0.739149847	0.952430368	0.018005846	0.185762996	0.057253960
2019-07-03T06:10:00	0.2812	11.250	182.6	0.736716376	0.948576756	0.017893611	0.184605091	0.056897082
2019-07-03T06:15:00	0.2834	11.267	182.6	0.743915480	0.959992270	0.018226731	0.188041820	0.057956315
2019-07-03T06:20:00	0.2816	11.285	182.7	0.738274399	0.951043421	0.017965426	0.185345991	0.057125434
2019-07-03T06:25:00	0.2818	11.304	182.7	0.738732011	0.951768317	0.017986548	0.185563904	0.057192597
2019-07-03T06:30:00	0.2823	11.325	182.8	0.740473868	0.954529260	0.018067069	0.186394624	0.057448633
2019-07-03T06:35:00	0.2840	11.345	182.9	0.745742828	0.962897138	0.018311809	0.188919563	0.058226844
2019-07-03T06:40:00	0.2828	11.368	195.5	0.742030324	0.956998592	0.018139182	0.187138602	0.057677935
2019-07-03T06:45:00	0.2821	11.387	195.6	0.739919813	0.953650762	0.018041436	0.186130171	0.057367126
2019-07-03T06:50:00	0.2832	11.408	195.7	0.743265365	0.958959515	0.018196513	0.187730073	0.057860232
2019-07-03T06:55:00	0.2834	11.427	195.7	0.744043092	0.960195035	0.018232665	0.188103046	0.057975185
2019-07-03T07:00:00	0.2820	11.449	195.9	0.739365676	0.952772404	0.018015819	0.185865880	0.057285669
2019-07-03T07:05:00	0.2841	11.476	196.0	0.746239169	0.963686663	0.018334955	0.189158352	0.058300441
2019-07-03T07:10:00	0.2845	11.515	196.1	0.747336724	0.965433304	0.018386192	0.189686958	0.058463363
2019-07-03T07:15:00	0.2847	11.576	196.5	0.748113606	0.966670271	0.018422506	0.190061598	0.058578830
2019-07-03T07:20:00	0.2846	11.626	184.1	0.747929307	0.966376778	0.018413888	0.189972687	0.058551427
2019-07-03T07:25:00	0.2839	11.634	196.8	0.745501550	0.962513418	0.018300564	0.188803542	0.058191085
2019-07-03T07:30:00	0.2846	11.652	196.7	0.747881081	0.966299984	0.018411633	0.189949425	0.058544257
2019-07-03T07:35:00	0.2838	11.710	197.1	0.745132685	0.961926889	0.018283378	0.188626245	0.058136441
2019-07-03T07:40:00	0.2845	11.759	197.2	0.747512451	0.965713053	0.018394403	0.189771665	0.058489470
2019-07-03T07:45:00	0.2849	11.758	197.3	0.748609633	0.967460334	0.018445712	0.190301008	0.058652619
2019-07-03T07:50:00	0.2848	11.815	197.4	0.748425359	0.967166800	0.018437089	0.190212048	0.058625200
2019-07-03T07:55:00	0.2842	11.829	184.9	0.746638961	0.964322765	0.018353610	0.189350808	0.058359758
2019-07-03T08:00:00	0.2837	11.825	197.6	0.744851710	0.961480192	0.018270294	0.188491252	0.058094835
2019-07-03T08:05:00	0.2835	11.852	197.8	0.744346576	0.960677302	0.018246783	0.188248694	0.058020076
2019-07-03T08:10:00	0.2857	11.831	197.6	0.751210931	0.971607196	0.018567665	0.191559179	0.059040399
2019-07-03T08:15:00	0.2851	11.861	197.7	0.749425861	0.968760881	0.018483932	0.190695315	0.058774148
2019-07-03T08:20:00	0.2852	11.859	197.7	0.749561882	0.968977669	0.018490305	0.190761067	0.058794413
2019-07-03T08:25:00	0.2844	11.906	198.0	0.747135183	0.965112493	0.018376778	0.189589832	0.058433427
2019-07-03T08:30:00	0.2847	11.952	198.2	0.748232476	0.966859584	0.018428066	0.190118956	0.058596509
2019-07-03T08:35:00	0.2850	11.957	198.2	0.749009172	0.968096870	0.018464415	0.190493964	0.058712090
2019-07-03T08:40:00	0.2843	12.005	198.4	0.746902597	0.964742310	0.018365917	0.189477778	0.058398891
2019-07-03T08:45:00	0.2851	12.019	198.5	0.749281239	0.968530402	0.018477157	0.190625418	0.058752605
2019-07-03T08:50:00	0.2844	12.051	198.7	0.747174817	0.965175579	0.018378629	0.189608930	0.058439314
2019-07-03T08:55:00	0.2845	12.082	198.7	0.747310920	0.965392226	0.018384987	0.189674521	0.058459529
2019-07-03T09:00:00	0.2842	12.090	198.8	0.746485627	0.964078781	0.018346454	0.189276982	0.058337004
2019-07-03T09:05:00	0.2827	12.175	186.5	0.741811269	0.956650929	0.018129024	0.187033798	0.057645633
2019-07-03T09:10:00	0.2841	12.234	186.8	0.746116860	0.963492086	0.018329250	0.189099494	0.058282301
2019-07-03T09:15:00	0.2844	12.266	187.0	0.747214451	0.965238666	0.018380481	0.189628029	0.058445200
2019-07-03T09:20:00	0.2842	12.340	187.3	0.746389137	0.963925257	0.018341952	0.189230533	0.058322688
2019-07-03T09:25:00	0.2828	12.362	187.4	0.742035558	0.957006899	0.018139425	0.187141106	0.057678706
2019-07-03T09:30:00	0.2847	12.398	187.6	0.747943133	0.966398794	0.018414534	0.189979356	0.058553483
2019-07-03T09:35:00	0.2857	12.454	187.9	0.751281520	0.971719809	0.018570981	0.191593383	0.059050941
2019-07-03T09:40:00	0.2824	12.499	188.1	0.740839812	0.955109641	0.018084010	0.186569400	0.057502501
2019-07-03T09:45:00	0.2835	12.546	188.4	0.744184539	0.960419799	0.018239244	0.188170922	0.057996106
2019-07-03T09:50:00	0.2818	12.603	188.6	0.738865038	0.951979079	0.017992691	0.185627277	0.057212130
2019-07-03T09:55:00	0.2843	12.622	188.6	0.746701033	0.964421540	0.018356507	0.189380699	0.058368971
2019-07-03T10:00:00	0.2818	12.615	188.7	0.738816695	0.951902484	0.017990459	0.185604246	0.057205031
2019-07-03T10:05:00	0.2833	12.643	188.8	0.743673576	0.959607944	0.018215484	0.187925788	0.057920553
2019-07-03T10:10:00	0.2848	12.701	189.1	0.748524155	0.967324170	0.018441712	0.190259740	0.058639899
2019-07-03T10:15:00	0.2839	12.719	189.1	0.745682591	0.962801335	0.018309002	0.188890594	0.058217916
2019-07-03T10:20:00	0.2851	12.735	189.3	0.749249716	0.968480168	0.018475680	0.190610185	0.058747910
2019-07-03T10:25:00	0.2858	12.765	189.4	0.751533374	0.972121636	0.018582812	0.191715445	0.059088562
2019-07-03T10:30:00	0.2855	12.796	202.5	0.750615495	0.970657452	0.018539712	0.191270792	0.058951516
2019-07-03T10:35:00	0.2836	12.775	189.4	0.744570204	0.961032723	0.018257189	0.188356057	0.058053166
2019-07-03T10:40:00	0.2845	12.783	189.5	0.747497608	0.965689422	0.018393709	0.189764509	0.058487265
2019-07-03T10:45:00	0.2835	12.798	189.6	0.744334590	0.960658253	0.018246225	0.188242940	0.058018302
2019-07-03T10:50:00	0.2841	12.820	189.7	0.746300740	0.963784617	0.018337827	0.189187985	0.058309574
2019-07-03T10:55:00	0.2834	12.835	202.7	0.743778237	0.959774218	0.018220349	0.187975985	0.057936024
2019-07-03T11:00:00	0.2833	12.856	189.9	0.743500030	0.959332254	0.018207417	0.187842569	0.057894904
2019-07-03T11:05:00	0.2826	12.855	189.9	0.741296599	0.955834265	0.018105169	0.186787688	0.057569779
2019-07-03T11:10:00	0.2836	12.874	203.0	0.744547250	0.960996238	0.018256121	0.188345035	0.058049769
2019-07-03T11:15:00	0.2838	12.899	203.1	0.745231060	0.962083302	0.018287961	0.188673521	0.058151012
2019-07-03T11:20:00	0.2831	12.894	203.1	0.743028650	0.958583570	0.018185517	0.187616631	0.057825268
2019-07-03T11:25:00	0.2830	12.887	203.0	0.742750387	0.958141701	0.018172596	0.187483324	0.057784181
2019-07-03T11:30:00	0.2820	12.889	203.1	0.739583348	0.953117401	0.018025879	0.185969673	0.057317659
2019-07-03T11:35:00	0.2815	12.938	203.4	0.737698877	0.950132004	0.017938881	0.185072123	0.057041026
2019-07-03T11:40:00	0.2828	12.991	203.7	0.741915473	0.956816307	0.018133856	0.187083649	0.057660998
2019-07-03T11:45:00	0.2822	13.025	203.8	0.740032180	0.953828906	0.018046633	0.186183788	0.057383652
2019-07-03T11:50:00	0.2805	13.043	204.0	0.734612834	0.945249814	0.017796895	0.183607290	0.056589550
2019-07-03T11:55:00	0.2812	13.063	204.1	0.736905451	0.948875986	0.017902318	0.184694919	0.056924768
2019-07-03T12:00:00	0.2823	13.091	204.2	0.740480958	0.954540504	0.018067398	0.186398010	0.057449677
2019-07-03T12:05:00	0.2810	13.141	204.5	0.736347990	0.947993839	0.017876654	0.184430141	0.056843160
2019-07-03T12:10:00	0.2813	13.145	204.5	0.737033303	0.949078342	0.017908207	0.184755673	0.056943493
2019-07-03T12:15:00	0.2819	13.155	204.5	0.739003299	0.952198148	0.017999077	0.185693155	0.057232434
2019-07-03T12:20:00	0.2811	13.180	204.7	0.736475861	0.948196163	0.017882539	0.184490858	0.056861874
2019-07-03T12:25:00	0.2796	13.200	204.8	0.731694948	0.940641352	0.017663201	0.182227989	0.056164436
2019-07-03T12:30:00	0.2801	13.228	205.0	0.733346146	0.943248309	0.017738791	0.183007838	0.056404793
2019-07-03T12:35:00	0.2786	13.262	205.2	0.728561209	0.935700304	0.017520215	0.180752833	0.055709778
2019-07-03T12:40:00	0.2801	13.302	192.3	0.733431463	0.943383074	0.017742701	0.183048181	0.056417227
2019-07-03T12:45:00	0.2780	13.304	205.4	0.726713884	0.932791615	0.017436216	0.179886229	0.055442683
2019-07-03T12:50:00	0.2775	13.310	205.5	0.724822884	0.929817256	0.017350454	0.179001435	0.055169981
2019-07-03T12:55:00	0.2783	13.315	205.5	0.727443700	0.933940383	0.017469376	0.180228330	0.055548122
2019-07-03T13:00:00	0.2786	13.327	205.6	0.728452727	0.935529412	0.017515277	0.180701881	0.055694075
2019-07-03T13:05:00	0.2775	13.341	205.7	0.724951152	0.930018910	0.017356264	0.179061377	0.055188456
2019-07-03T13:10:00	0.2780	13.336	205.7	0.726605348	0.932620814	0.017431288	0.179835382	0.055427011
2019-07-03T13:15:00	0.2792	13.347	208.3	0.730512650	0.938776179	0.017609183	0.181670690	0.055992671
2019-07-03T13:20:00	0.2764	13.370	206.5	0.721531860	0.924648266	0.017201733	0.177467111	0.054697087
2019-07-03T13:25:00	0.2767	13.414	206.2	0.722219909	0.925728155	0.017232770	0.177787309	0.054795775
2019-07-03T13:30:00	0.2739	13.460	193.3	0.713218979	0.911633962	0.016829107	0.173622792	0.053512231
2019-07-03T13:35:00	0.2762	13.488	193.4	0.720692171	0.923330941	0.017163897	0.177076761	0.054576778
2019-07-03T13:40:00	0.2752	13.517	206.8	0.717506280	0.918338444	0.017020744	0.175599880	0.054121588
2019-07-03T13:45:00	0.2752	13.547	193.8	0.717549121	0.918405520	0.017022665	0.175619696	0.054127696
2019-07-03T13:50:00	0.2749	13.569	207.2	0.716622826	0.916955585	0.016981160	0.175191502	0.053995722
2019-07-03T13:55:00	0.2733	13.572	194.0	0.711492719	0.908938967	0.016752270	0.172830084	0.053267910
2019-07-03T14:00:00	0.2748	13.566	207.3	0.716385434	0.916584115	0.016970532	0.175081854	0.053961928
2019-07-03T14:05:00	0.2746	13.557	194.1	0.715458847	0.915134666	0.016929082	0.174654223	0.053830128
2019-07-03T14:10:00	0.2747	13.568	207.3	0.715824883	0.915707162	0.016945450	0.174823087	0.053882173
2019-07-03T14:15:00	0.2753	13.569	194.2	0.717806156	0.918807991	0.017034191	0.175738613	0.054164347
2019-07-03T14:20:00	0.2755	13.575	194.2	0.718494898	0.919886723	0.017065098	0.176057469	0.054262622
2019-07-03T14:25:00	0.2733	13.577	194.3	0.711426648	0.908835870	0.016749333	0.172799782	0.053258571
2019-07-03T14:30:00	0.2741	13.575	194.2	0.714056960	0.912943135	0.016866473	0.174008292	0.053631046
2019-07-03T14:35:00	0.2721	13.579	194.3	0.707628010	0.902914894	0.016580927	0.171062365	0.052723082
2019-07-03T14:40:00	0.2750	13.586	194.4	0.717051316	0.917626209	0.017000353	0.175389509	0.054056750
2019-07-03T14:45:00	0.2743	13.590	194.4	0.714508888	0.913649434	0.016886643	0.174216383	0.053695181
2019-07-03T14:50:00	0.2734	13.576	194.3	0.711641200	0.909170670	0.016758872	0.172898192	0.053288902
2019-07-03T14:55:00	0.2726	13.568	194.4	0.709095044	0.905200085	0.016645858	0.171732252	0.052929548
2019-07-03T15:00:00	0.2737	13.579	194.4	0.712697438	0.910819471	0.016805873	0.173383095	0.053438354
2019-07-03T15:05:00	0.2718	13.582	194.5	0.706590098	0.901299275	0.016535070	0.170589265	0.052577268
2019-07-03T15:10:00	0.2718	13.575	194.4	0.706633066	0.901366140	0.016536967	0.170608837	0.052583300
2019-07-03T15:15:00	0.2717	13.576	194.4	0.706352059	0.900928875	0.016524562	0.170480861	0.052543857
2019-07-03T15:20:00	0.2724	13.588	194.6	0.708338421	0.904021263	0.016612353	0.171386584	0.052823010
2019-07-03T15:25:00	0.2727	13.598	194.6	0.709352669	0.905601579	0.016657275	0.171850033	0.052965849
2019-07-03T15:30:00	0.2709	13.595	207.9	0.703564027	0.896594231	0.016401755	0.169213888	0.052153364
2019-07-03T15:35:00	0.2710	13.600	194.6	0.703931245	0.897164771	0.016417903	0.169380477	0.052204708
2019-07-03T15:40:00	0.2711	13.599	208.0	0.704298427	0.897735371	0.016434057	0.169547137	0.052256074
2019-07-03T15:45:00	0.2731	13.597	194.7	0.710819017	0.907887905	0.016722334	0.172521239	0.053172721
2019-07-03T15:50:00	0.2715	13.588	194.7	0.705680831	0.899884677	0.016494952	0.170175375	0.052449703
2019-07-03T15:55:00	0.2713	13.576	194.6	0.705075666	0.898943587	0.016468280	0.169900204	0.052364893
2019-07-03T16:00:00	0.2725	13.560	194.6	0.708681987	0.904556478	0.016627563	0.171543498	0.052871372
2019-07-03T16:05:00	0.2715	13.553	207.9	0.705494414	0.899594746	0.016486733	0.170090585	0.052423570
2019-07-03T16:10:00	0.2709	13.544	207.8	0.703601228	0.896652024	0.016403391	0.169230760	0.052158564
2019-07-03T16:15:00	0.2702	13.535	194.6	0.701382656	0.893207496	0.016306009	0.168226091	0.051848915
2019-07-03T16:20:00	0.2700	13.528	194.6	0.700785494	0.892281080	0.016279850	0.167956210	0.051765735
2019-07-03T16:25:00	0.2695	13.517	207.8	0.699214514	0.889845395	0.016211137	0.167247317	0.051547247
2019-07-03T16:30:00	0.2678	13.507	207.7	0.693418603	0.880877802	0.015958962	0.164645666	0.050745393
2019-07-03T16:35:00	0.2689	13.497	194.5	0.697045090	0.886485392	0.016116503	0.166270988	0.051246333
2019-07-03T16:40:00	0.2688	13.489	194.4	0.696772070	0.886062827	0.016104614	0.166148332	0.051208529
2019-07-03T16:45:00	0.2696	13.476	194.4	0.699421580	0.890166313	0.016220185	0.167340663	0.051576018
2019-07-03T16:50:00	0.2682	13.461	207.6	0.694926213	0.883207615	0.016024356	0.165320324	0.050953329
2019-07-03T16:55:00	0.2673	13.449	194.3	0.692051947	0.878767516	0.015899804	0.164035345	0.050557287
2019-07-03T17:00:00	0.2683	13.432	194.2	0.695029869	0.883367874	0.016028857	0.165366763	0.050967642
2019-07-03T17:05:00	0.2679	13.412	194.1	0.693781535	0.881438485	0.015974691	0.164807945	0.050795409
2019-07-03T17:10:00	0.2682	13.400	207.7	0.694808529	0.883025680	0.016019246	0.165267607	0.050937082
2019-07-03T17:15:00	0.2678	13.388	194.1	0.693560120	0.881096414	0.015965094	0.164708933	0.050764893
2019-07-03T17:20:00	0.2683	13.376	207.3	0.695237172	0.883688406	0.016037861	0.165459659	0.050996274
2019-07-03T17:25:00	0.2679	13.364	207.2	0.693988908	0.881758902	0.015983683	0.164900707	0.050823999
2019-07-03T17:30:00	0.2666	13.348	194.0	0.689812337	0.875312776	0.015803109	0.163037767	0.050249823
2019-07-03T17:35:00	0.2666	13.331	194.0	0.689538777	0.874891091	0.015791320	0.162916136	0.050212335
2019-07-03T17:40:00	0.2668	13.319	207.1	0.690241564	0.875974550	0.015821617	0.163228706	0.050308673
2019-07-03T17:45:00	0.2651	13.315	207.1	0.684757342	0.867531074	0.015586005	0.160797941	0.049559487
2019-07-03T17:50:00	0.2644	13.314	207.1	0.682527330	0.864105191	0.015490732	0.159815031	0.049256545
2019-07-03T17:55:00	0.2654	13.312	193.9	0.685838830	0.869194068	0.015632320	0.161275766	0.049706757
2019-07-03T18:00:00	0.2650	13.307	193.9	0.684587356	0.867269780	0.015578732	0.160722905	0.049536360
2019-07-03T18:05:00	0.2643	13.303	207.1	0.682031110	0.863343451	0.015469574	0.159596747	0.049189267
2019-07-03T18:10:00	0.2629	13.296	193.8	0.677514309	0.856419535	0.015277684	0.157617049	0.048579105
2019-07-03T18:15:00	0.2642	13.288	207.0	0.681808983	0.863002535	0.015460108	0.159499085	0.049159167
2019-07-03T18:20:00	0.2641	13.277	207.0	0.681534824	0.862581820	0.015448429	0.159378590	0.049122029
2019-07-03T18:25:00	0.2645	13.259	207.0	0.682891344	0.864664118	0.015506263	0.159975259	0.049305928
2019-07-03T18:30:00	0.2651	13.237	193.6	0.684899194	0.867749141	0.015592076	0.160860572	0.049578790
2019-07-03T18:35:00	0.2646	13.220	193.6	0.682995341	0.864823823	0.015510702	0.160021051	0.049320042
2019-07-03T18:40:00	0.2657	13.203	193.5	0.686632165	0.870414616	0.015666341	0.161626753	0.049814935
2019-07-03T18:45:00	0.2643	13.180	206.6	0.682121058	0.863481513	0.015473408	0.159636303	0.049201459
2019-07-03T18:50:00	0.2647	13.159	206.4	0.683477361	0.865564163	0.015531283	0.160233383	0.049385485
2019-07-03T18:55:00	0.2647	13.132	193.1	0.683529352	0.865644028	0.015533504	0.160256294	0.049392546
2019-07-03T19:00:00	0.2639	13.111	206.1	0.680972365	0.861718895	0.015424482	0.159131535	0.049045885
2019-07-03T19:05:00	0.2629	13.085	206.1	0.677434049	0.856296661	0.015274286	0.157581989	0.048568299
2019-07-03T19:10:00	0.2637	13.058	206.0	0.680097597	0.860377368	0.015387277	0.158747703	0.048927584
2019-07-03T19:15:00	0.2640	13.031	205.7	0.681128442	0.861958321	0.015431125	0.159200070	0.049067008
2019-07-03T19:20:00	0.2640	12.999	205.6	0.681180466	0.862038132	0.015433339	0.159222918	0.049074050
2019-07-03T19:25:00	0.2647	12.967	205.4	0.683515283	0.865622416	0.015532903	0.160250094	0.049390635
2019-07-03T19:30:00	0.2667	12.935	205.3	0.690081600	0.875727903	0.015814718	0.163157534	0.050286736
2019-07-03T19:35:00	0.2671	12.905	192.0	0.691434953	0.877815331	0.015873134	0.163760200	0.050472484
2019-07-03T19:40:00	0.2677	12.872	204.9	0.693112978	0.880405738	0.015945722	0.164509076	0.050703295
2019-07-03T19:45:00	0.2669	12.841	191.7	0.690562687	0.876469755	0.015835471	0.163371634	0.050352724
2019-07-03T19:50:00	0.2653	12.807	204.7	0.685404804	0.868526550	0.015613724	0.161083914	0.049647627
2019-07-03T19:55:00	0.2676	12.778	204.5	0.692943379	0.880143814	0.015938378	0.164433305	0.050679942
2019-07-03T20:00:00	0.2697	12.747	191.3	0.699817408	0.890779883	0.016237489	0.167519181	0.051631038
2019-07-03T20:05:00	0.2684	12.716	191.2	0.695647473	0.884322925	0.016055691	0.165643604	0.051052967
2019-07-03T20:10:00	0.2697	12.684	204.3	0.699596357	0.890437217	0.016227825	0.167419475	0.051600308
2019-07-03T20:15:00	0.2669	12.653	190.9	0.690548645	0.876448100	0.015834865	0.163365383	0.050350797
2019-07-03T20:20:00	0.2681	12.621	190.7	0.694503020	0.882553427	0.016005985	0.165130797	0.050894915
2019-07-03T20:25:00	0.2675	12.592	203.4	0.692604159	0.879620005	0.015923693	0.164281808	0.050633249
2019-07-03T20:30:00	0.2681	12.565	203.5	0.694606688	0.882713666	0.016010484	0.165177214	0.050909221
2019-07-03T20:35:00	0.2671	12.532	203.2	0.691406877	0.877772009	0.015871921	0.163747685	0.050468627
2019-07-03T20:40:00	0.2691	12.504	203.3	0.697634327	0.887397598	0.016142177	0.166535869	0.051327972
2019-07-03T20:45:00	0.2692	12.477	203.1	0.698010855	0.887980663	0.016158595	0.166705248	0.051380176
2019-07-03T20:50:00	0.2691	12.447	202.6	0.697737906	0.887557981	0.016146693	0.166582455	0.051342330
2019-07-03T20:55:00	0.2695	12.420	189.4	0.699088437	0.889650015	0.016205630	0.167190494	0.051529734
2019-07-03T21:00:00	0.2694	12.388	202.4	0.698815569	0.889227202	0.016193713	0.167067548	0.051491841
2019-07-03T21:05:00	0.2683	12.358	202.3	0.695294480	0.883777022	0.016040351	0.165485345	0.051004190
2019-07-03T21:10:00	0.2721	12.330	189.3	0.707674047	0.902986577	0.016582962	0.171083366	0.052729555
2019-07-03T21:15:00	0.2714	12.302	189.1	0.705133849	0.899034053	0.016470843	0.169926650	0.052373044
2019-07-03T21:20:00	0.2710	12.269	201.8	0.703888944	0.897099042	0.016416042	0.169361283	0.052198792
2019-07-03T21:25:00	0.2711	12.240	188.6	0.704264831	0.897683158	0.016432579	0.169531885	0.052251373
2019-07-03T21:30:00	0.2710	12.212	188.6	0.703992347	0.897259715	0.016420590	0.169408205	0.052213254
2019-07-03T21:35:00	0.2709	12.184	188.7	0.703719842	0.896836304	0.016408606	0.169284563	0.052175146
2019-07-03T21:40:00	0.2716	12.155	201.2	0.706040352	0.900443917	0.016510808	0.170338962	0.052500122
2019-07-03T21:45:00	0.2722	12.125	201.2	0.707711720	0.903045238	0.016584628	0.171100552	0.052734852
2019-07-03T21:50:00	0.2707	12.095	188.0	0.702902207	0.895566271	0.016372675	0.168913870	0.052060895
2019-07-03T21:55:00	0.2716	12.065	201.1	0.705871349	0.900181017	0.016503353	0.170262053	0.052476418
2019-07-03T22:00:00	0.2718	12.032	187.8	0.706571017	0.901269582	0.016534227	0.170580574	0.052574590
2019-07-03T22:05:00	0.2732	12.005	187.6	0.710923436	0.908050785	0.016726972	0.172569088	0.053187469
2019-07-03T22:10:00	0.2730	11.977	187.5	0.710419458	0.907264728	0.016704593	0.172338207	0.053116309
2019-07-03T22:15:00	0.2709	11.948	187.3	0.703760457	0.896899405	0.016410392	0.169302988	0.052180825
2019-07-03T22:20:00	0.2730	11.920	187.1	0.710382326	0.907206821	0.016702945	0.172321203	0.053111068
2019-07-03T22:25:00	0.2729	11.893	187.0	0.710201939	0.906925530	0.016694939	0.172238609	0.053085612
2019-07-03T22:30:00	0.2722	11.863	186.9	0.707755189	0.903112924	0.016586550	0.171120383	0.052740964
2019-07-03T22:35:00	0.2711	11.836	186.7	0.704334446	0.897791350	0.016435642	0.169563490	0.052261114
2019-07-03T22:40:00	0.2724	11.807	186.6	0.708365708	0.904063767	0.016613561	0.171399044	0.052826850
2019-07-03T22:45:00	0.2700	11.780	186.4	0.700729669	0.892194490	0.016277405	0.167930992	0.051757963
2019-07-03T22:50:00	0.2710	11.752	186.2	0.703792368	0.896948986	0.016411795	0.169317465	0.052185287
2019-07-03T22:55:00	0.2703	11.723	186.1	0.701665769	0.893646816	0.016318419	0.168354121	0.051888375
2019-07-03T23:00:00	0.2710	11.697	186.0	0.704079371	0.897394944	0.016424419	0.169447699	0.052225427
2019-07-03T23:05:00	0.2705	11.673	185.9	0.702277299	0.894595993	0.016345242	0.168630844	0.051973664
2019-07-03T23:10:00	0.2719	11.646	185.7	0.706958739	0.901872995	0.016551349	0.170757219	0.052629033
2019-07-03T23:15:00	0.2710	11.621	185.6	0.703861477	0.897056364	0.016414834	0.169348820	0.052194951
2019-07-03T23:20:00	0.2722	11.596	185.4	0.707893257	0.903327928	0.016592657	0.171183381	0.052760381
2019-07-03T23:25:00	0.2713	11.569	197.9	0.704796781	0.898509999	0.016455996	0.169773474	0.052325833
2019-07-03T23:30:00	0.2718	11.543	185.2	0.706560449	0.901253138	0.016533761	0.170575761	0.052573106
2019-07-03T23:35:00	0.2732	11.518	197.6	0.710912880	0.908034319	0.016726503	0.172564251	0.053185978
2019-07-03T23:40:00	0.2721	11.494	184.9	0.707495068	0.902707903	0.016575049	0.171001729	0.052704394
2019-07-03T23:45:00	0.2712	11.471	197.4	0.704722403	0.898394374	0.016452720	0.169739683	0.052315419
2019-07-03T23:50:00	0.2723	11.448	184.6	0.708105631	0.903658675	0.016602052	0.171280307	0.052790254
2019-07-03T23:55:00	0.2723	11.423	184.5	0.708248967	0.903881926	0.016608394	0.171345741	0.052810422
2019-07-04T00:00:00	0.2732	11.398	197.0	0.710981856	0.908141918	0.016729567	0.172595862	0.053195721
2019-07-04T00:05:00	0.2739	11.377	184.2	0.713389366	0.911900108	0.016836701	0.173701139	0.053536378
2019-07-04T00:10:00	0.2728	11.351	196.6	0.709650165	0.906065282	0.016670463	0.171986097	0.053007785
2019-07-04T00:15:00	0.2718	11.328	196.5	0.706555165	0.901244915	0.016533527	0.170573354	0.052572364
2019-07-04T00:20:00	0.2709	11.304	196.4	0.703781792	0.896932554	0.016411330	0.169312667	0.052183808
2019-07-04T00:25:00	0.2729	11.280	196.3	0.710079977	0.906735361	0.016689527	0.172182778	0.053068404
2019-07-04T00:30:00	0.2711	11.257	196.1	0.704392970	0.897882310	0.016438218	0.169590063	0.052269305
2019-07-04T00:35:00	0.2729	11.233	183.5	0.710042842	0.906677461	0.016687880	0.172165780	0.053063165
2019-07-04T00:40:00	0.2719	11.208	195.8	0.706948172	0.901856549	0.016550882	0.170752404	0.052627549
2019-07-04T00:45:00	0.2734	11.184	195.7	0.711623685	0.909143336	0.016758093	0.172890157	0.053286425
2019-07-04T00:50:00	0.2729	11.163	195.6	0.710148968	0.906842934	0.016692589	0.172214359	0.053078138
2019-07-04T00:55:00	0.2732	11.142	195.4	0.710939452	0.908075769	0.016727684	0.172576428	0.053189731
2019-07-04T01:00:00	0.2732	11.121	195.3	0.711082678	0.908299203	0.016734047	0.172642074	0.053209964
2019-07-04T01:05:00	0.2734	11.100	182.6	0.711872962	0.909532369	0.016769179	0.173004528	0.053321676
2019-07-04T01:10:00	0.2750	11.081	182.5	0.716865326	0.917335099	0.016992021	0.175303548	0.054030256
2019-07-04T01:15:00	0.2740	11.060	195.0	0.713776372	0.912504706	0.016853956	0.173879161	0.053591246
2019-07-04T01:20:00	0.2746	11.040	182.3	0.715535754	0.915254943	0.016932521	0.174689696	0.053841061
2019-07-04T01:25:00	0.2727	11.019	182.2	0.709533464	0.905883373	0.016665289	0.171932716	0.052991333
2019-07-04T01:30:00	0.2731	11.000	194.5	0.710647704	0.907620698	0.016714726	0.172442751	0.053148530
2019-07-04T01:35:00	0.2714	10.977	181.9	0.705285670	0.899270127	0.016477533	0.169995667	0.052394316
2019-07-04T01:40:00	0.2730	10.953	181.8	0.710286947	0.907058085	0.016698712	0.172277529	0.053097607
2019-07-04T01:45:00	0.2726	10.931	181.6	0.709135453	0.905263056	0.016647649	0.171750723	0.052935241
2019-07-04T01:50:00	0.2720	10.912	181.6	0.707335854	0.902460027	0.016568012	0.170929125	0.052682016
2019-07-04T01:55:00	0.2723	10.894	181.4	0.708126941	0.903691865	0.016602995	0.171290034	0.052793252
2019-07-04T02:00:00	0.2729	10.873	181.3	0.710212679	0.906942277	0.016695416	0.172243526	0.053087127
2019-07-04T02:05:00	0.2729	10.852	181.2	0.710032284	0.906660999	0.016687411	0.172160947	0.053061676
2019-07-04T02:10:00	0.2724	10.834	181.1	0.708556931	0.904361651	0.016622026	0.171486374	0.052853766
2019-07-04T02:15:00	0.2735	10.816	181.0	0.711936643	0.909631762	0.016772012	0.173033753	0.053330683
2019-07-04T02:20:00	0.2748	10.798	180.9	0.716282743	0.916423440	0.016965936	0.175034433	0.053947312
2019-07-04T02:25:00	0.2747	10.780	180.7	0.715779497	0.915636170	0.016943420	0.174802144	0.053875718
2019-07-04T02:30:00	0.2742	10.765	180.6	0.714306439	0.913333013	0.016877606	0.174123148	0.053666445
2019-07-04T02:35:00	0.2766	10.749	180.5	0.722200069	0.925697010	0.017231874	0.177778071	0.054792928
2019-07-04T02:40:00	0.2756	10.729	180.4	0.718792683	0.920353253	0.017078470	0.176195425	0.054305141
2019-07-04T02:45:00	0.2750	10.710	180.3	0.716997784	0.917542420	0.016997955	0.175364766	0.054049124
2019-07-04T02:50:00	0.2750	10.695	180.2	0.716817720	0.917260592	0.016989889	0.175281549	0.054023476
2019-07-04T02:55:00	0.2760	10.678	180.1	0.720189889	0.922543244	0.017141285	0.176843482	0.054504879
2019-07-04T03:00:00	0.2752	10.660	180.0	0.717426743	0.918213918	0.017017178	0.175563093	0.054110250
2019-07-04T03:05:00	0.2758	10.642	179.9	0.719507240	0.921473041	0.017110580	0.176526695	0.054407242
2019-07-04T03:10:00	0.2760	10.623	179.8	0.719972944	0.922203090	0.017131524	0.176742775	0.054473840
2019-07-04T03:15:00	0.2754	10.605	179.7	0.718178617	0.919391302	0.017050902	0.175911008	0.054217481
2019-07-04T03:20:00	0.2765	10.586	179.6	0.721872192	0.925182363	0.017217081	0.177625453	0.054745890
2019-07-04T03:25:00	0.2770	10.572	179.5	0.723305240	0.927432417	0.017281787	0.178293013	0.054951638
2019-07-04T03:30:00	0.2766	10.556	179.4	0.722157793	0.925630648	0.017229967	0.177758389	0.054786862
2019-07-04T03:35:00	0.2761	10.541	179.3	0.720364526	0.922817090	0.017149145	0.176924572	0.054529871
2019-07-04T03:40:00	0.2758	10.526	179.2	0.719539015	0.921522846	0.017112008	0.176541434	0.054411785
2019-07-04T03:45:00	0.2758	10.512	179.2	0.719359074	0.921240812	0.017103919	0.176457978	0.054386063
2019-07-04T03:50:00	0.2749	10.501	179.1	0.716595307	0.916912522	0.016979928	0.175178790	0.053991804
2019-07-04T03:55:00	0.2755	10.486	191.1	0.718353349	0.919664990	0.017058744	0.175991913	0.054242417
2019-07-04T04:00:00	0.2744	10.476	178.9	0.714942418	0.914327148	0.016906004	0.174416126	0.053756744
2019-07-04T04:05:00	0.2749	10.468	178.9	0.716598198	0.916917046	0.016980058	0.175180125	0.053992216
2019-07-04T04:10:00	0.2757	10.455	178.8	0.719221946	0.921025900	0.017097756	0.176394393	0.054366465
2019-07-04T04:15:00	0.2748	10.445	178.7	0.716355022	0.916536530	0.016969171	0.175067810	0.053957599
2019-07-04T04:20:00	0.2756	10.436	178.7	0.718978942	0.920645097	0.017086837	0.176281744	0.054331745
2019-07-04T04:25:00	0.2755	10.431	190.8	0.718373064	0.919695871	0.017059629	0.176001043	0.054245231
2019-07-04T04:30:00	0.2769	10.423	178.8	0.722931285	0.926845090	0.017264890	0.178118684	0.054897908
2019-07-04T04:35:00	0.2781	10.414	178.6	0.726839569	0.932989416	0.017441924	0.179945119	0.055460833
2019-07-04T04:40:00	0.2774	10.405	190.6	0.724623372	0.929503626	0.017341419	0.178908219	0.055141251
2019-07-04T04:45:00	0.2770	10.400	178.4	0.723373473	0.927539596	0.017284871	0.178324832	0.054961445
2019-07-04T04:50:00	0.2784	10.395	178.4	0.727925556	0.934699104	0.017491288	0.180454389	0.055617795
2019-07-04T04:55:00	0.2789	10.391	190.4	0.729575548	0.937298695	0.017566430	0.181229616	0.055856728
2019-07-04T05:00:00	0.2807	10.389	190.4	0.735406094	0.946503968	0.017833335	0.183983228	0.056705418
2019-07-04T05:05:00	0.2805	10.387	190.4	0.734481367	0.945042016	0.017790860	0.183545025	0.056570359
2019-07-04T05:10:00	0.2811	10.387	190.4	0.736449836	0.948154983	0.017881341	0.184478499	0.056858065
2019-07-04T05:15:00	0.2811	10.389	190.4	0.736489583	0.948217876	0.017883171	0.184497374	0.056863883
2019-07-04T05:20:00	0.2798	10.387	190.3	0.732349306	0.941674184	0.017693136	0.182536825	0.056259622
2019-07-04T05:25:00	0.2804	10.390	178.2	0.734318902	0.944785243	0.017783403	0.183468095	0.056546649
2019-07-04T05:30:00	0.2819	10.394	190.3	0.739178763	0.952476190	0.018007182	0.185776778	0.057258207
2019-07-04T05:35:00	0.2813	10.399	190.4	0.737291213	0.949486590	0.017920090	0.184878263	0.056981276
2019-07-04T05:40:00	0.2836	10.405	190.3	0.744713339	0.961260234	0.018263852	0.188424792	0.058074351
2019-07-04T05:45:00	0.2831	10.415	178.0	0.742828585	0.958265869	0.018176227	0.187520781	0.057795726
2019-07-04T05:50:00	0.2826	10.424	178.3	0.741263846	0.955782301	0.018103651	0.186772031	0.057564954
2019-07-04T05:55:00	0.2834	10.437	178.3	0.743870254	0.959920412	0.018224628	0.188020124	0.057949628
2019-07-04T06:00:00	0.2831	10.451	190.5	0.742947622	0.958454895	0.018181754	0.187577808	0.057813302
2019-07-04T06:05:00	0.2832	10.467	190.6	0.743308092	0.959027379	0.018198498	0.187750553	0.057866544
2019-07-04T06:10:00	0.2823	10.486	178.5	0.740459688	0.954506773	0.018066413	0.186387853	0.057446547
2019-07-04T06:15:00	0.2822	10.505	190.8	0.740178361	0.954060676	0.018053395	0.186253552	0.057405154
2019-07-04T06:20:00	0.2823	10.527	190.8	0.740539097	0.954632704	0.018070088	0.186425771	0.057458233
2019-07-04T06:25:00	0.2863	10.552	190.9	0.753077339	0.974586219	0.018655431	0.192464646	0.059319473
2019-07-04T06:30:00	0.2855	10.574	178.8	0.750556533	0.970563424	0.018536945	0.191242248	0.058942718
2019-07-04T06:35:00	0.2867	10.601	178.9	0.754436001	0.976756754	0.018719461	0.193125226	0.059523070
2019-07-04T06:40:00	0.2860	10.628	179.0	0.752236135	0.973243170	0.018615847	0.192056262	0.059193605
2019-07-04T06:45:00	0.2861	10.654	179.1	0.752595711	0.973817185	0.018632762	0.192230770	0.059247390
2019-07-04T06:50:00	0.2857	10.681	179.2	0.751355153	0.971837283	0.018574439	0.191629065	0.059061939
2019-07-04T06:55:00	0.2883	10.707	179.3	0.759707738	0.985194113	0.018969017	0.195699847	0.060316594
2019-07-04T07:00:00	0.2872	10.735	179.4	0.756232485	0.979629241	0.018804304	0.194000540	0.059792850
2019-07-04T07:05:00	0.2877	10.763	179.6	0.757550482	0.981738471	0.018866681	0.194644069	0.059991192
2019-07-04T07:10:00	0.2886	10.797	179.7	0.760464921	0.986408001	0.019005006	0.196071147	0.060431032
2019-07-04T07:15:00	0.2875	10.856	179.9	0.756990368	0.980841916	0.018840159	0.194370446	0.059906859
2019-07-04T07:20:00	0.2877	10.902	180.2	0.757669053	0.981928299	0.018872298	0.194702019	0.060009053
2019-07-04T07:25:00	0.2888	10.952	180.4	0.761221952	0.987622152	0.019041025	0.196442749	0.060545563
2019-07-04T07:30:00	0.2886	10.987	180.5	0.760622893	0.986661319	0.019012519	0.196148659	0.060454922
2019-07-04T07:35:00	0.2879	11.029	180.7	0.758426647	0.983141475	0.018908208	0.195072501	0.060123239
2019-07-04T07:40:00	0.2901	11.069	180.8	0.765488227	0.994474059	0.019244698	0.198544007	0.061193191
2019-07-04T07:45:00	0.2907	11.071	180.8	0.767121751	0.997101885	0.019322992	0.199351748	0.061442145
2019-07-04T07:50:00	0.2898	11.099	180.7	0.764291369	0.992550198	0.019187443	0.197953308	0.061011132
2019-07-04T07:55:00	0.2906	11.137	181.1	0.766881842	0.996715798	0.019311483	0.199233007	0.061405548
2019-07-04T08:00:00	0.2893	11.129	181.1	0.762775027	0.990114618	0.019115035	0.197206290	0.060780894
2019-07-04T08:05:00	0.2905	11.152	181.2	0.766641918	0.996329738	0.019299976	0.199114298	0.061368960
2019-07-04T08:10:00	0.2882	11.182	181.4	0.759342113	0.984608139	0.018951651	0.195520692	0.060261376
2019-07-04T08:15:00	0.2890	11.215	181.5	0.761935991	0.988767817	0.019075033	0.196793595	0.060653697
2019-07-04T08:20:00	0.2893	11.250	181.6	0.762932902	0.990368104	0.019122567	0.197283995	0.060804843
2019-07-04T08:25:00	0.2898	11.279	181.8	0.764248555	0.992481402	0.019185396	0.197932195	0.061004625
2019-07-04T08:30:00	0.2877	11.327	194.5	0.757583274	0.981790968	0.018868234	0.194660095	0.059996132
2019-07-04T08:35:00	0.2895	11.376	182.2	0.763370383	0.991070649	0.019143446	0.197499408	0.060871236
2019-07-04T08:40:00	0.2886	11.436	182.5	0.760537181	0.986523871	0.019008443	0.196106600	0.060441959
2019-07-04T08:45:00	0.2870	11.460	195.1	0.755464345	0.978400674	0.018768002	0.193626013	0.059677418
2019-07-04T08:50:00	0.2869	11.523	195.4	0.755184143	0.977952647	0.018754769	0.193489490	0.059635340
2019-07-04T08:55:00	0.2864	11.568	195.6	0.753624559	0.975460235	0.018681206	0.192730557	0.059401430
2019-07-04T09:00:00	0.2880	11.622	195.9	0.758778901	0.983705732	0.018924918	0.195244891	0.060176372
2019-07-04T09:05:00	0.2853	11.700	196.2	0.749863069	0.969457753	0.018504421	0.190906703	0.058839300
2019-07-04T09:10:00	0.2852	11.751	196.4	0.749582448	0.969010448	0.018491269	0.190771009	0.058797478
2019-07-04T09:15:00	0.2875	11.792	196.7	0.756980268	0.980825752	0.018839681	0.194365514	0.059905339
2019-07-04T09:20:00	0.2870	11.858	184.4	0.755421430	0.978332052	0.018765975	0.193605101	0.059670972
2019-07-04T09:25:00	0.2864	11.877	184.5	0.753542057	0.975328447	0.018677319	0.192690454	0.059389069
2019-07-04T09:30:00	0.2872	11.949	184.9	0.756139938	0.979481194	0.018799928	0.193955396	0.059778937
2019-07-04T09:35:00	0.2883	11.992	185.1	0.759694281	0.985172545	0.018968377	0.195693252	0.060314561
2019-07-04T09:40:00	0.2881	12.022	185.3	0.759094979	0.984212133	0.018939918	0.195399646	0.060224069
2019-07-04T09:45:00	0.2867	12.073	185.4	0.754659862	0.977114540	0.018730022	0.193234183	0.059556652
2019-07-04T09:50:00	0.2867	12.118	185.7	0.754379599	0.976666617	0.018716800	0.193097779	0.059514611
2019-07-04T09:55:00	0.2883	12.170	185.9	0.759532907	0.984913903	0.018960712	0.195614169	0.060290187
2019-07-04T10:00:00	0.2864	12.218	186.2	0.753499121	0.975259862	0.018675296	0.192669585	0.059382637
2019-07-04T10:05:00	0.2880	12.267	186.5	0.758599829	0.983418872	0.018916423	0.195157244	0.060149358
2019-07-04T10:10:00	0.2863	12.318	186.7	0.753150575	0.974703175	0.018658880	0.192500222	0.059330438
2019-07-04T10:15:00	0.2864	12.361	186.9	0.753456184	0.975191279	0.018673273	0.192648717	0.059376206
2019-07-04T10:20:00	0.2864	12.389	187.0	0.753441871	0.975168418	0.018672599	0.192641762	0.059374062
2019-07-04T10:25:00	0.2871	12.427	187.2	0.755666271	0.978723586	0.018777541	0.193724430	0.059707751
2019-07-04T10:30:00	0.2861	12.468	187.4	0.752453385	0.973589967	0.018626066	0.192161687	0.059226098
2019-07-04T10:35:00	0.2875	12.501	187.7	0.756916339	0.980723440	0.018836655	0.194334297	0.059895718
2019-07-04T10:40:00	0.2869	12.523	187.7	0.754983856	0.977632443	0.018745313	0.193391936	0.059605273
2019-07-04T10:45:00	0.2861	12.548	187.9	0.752730421	0.974032261	0.018639101	0.192296169	0.059267547
2019-07-04T10:50:00	0.2870	12.577	188.0	0.755594751	0.978609209	0.018774162	0.193689569	0.059697006
2019-07-04T10:55:00	0.2848	12.603	188.2	0.748539828	0.967349137	0.018442445	0.190267306	0.058642232
2019-07-04T11:00:00	0.2870	12.627	188.3	0.755566142	0.978563459	0.018772810	0.193675625	0.059692709
2019-07-04T11:05:00	0.2860	12.657	188.5	0.752353171	0.973429989	0.018621352	0.192113052	0.059211108
2019-07-04T11:10:00	0.2848	12.684	201.5	0.748496835	0.967280651	0.018440433	0.190246551	0.058635835
2019-07-04T11:15:00	0.2852	12.699	188.7	0.749763619	0.969299224	0.018499759	0.190858608	0.058824477
2019-07-04T11:20:00	0.2842	12.711	188.8	0.746545669	0.964174317	0.018349256	0.189305889	0.058345914
2019-07-04T11:25:00	0.2823	12.724	201.7	0.740436854	0.954470563	0.018065356	0.186376951	0.057443186
2019-07-04T11:30:00	0.2840	12.752	201.9	0.745875932	0.963108845	0.018318015	0.188983583	0.058246576
2019-07-04T11:35:00	0.2828	12.790	202.2	0.742012915	0.956970961	0.018138375	0.187130271	0.057675367
2019-07-04T11:40:00	0.2834	12.827	202.4	0.743923399	0.960004852	0.018227099	0.188045619	0.057957486
2019-07-04T11:45:00	0.2843	12.866	202.5	0.746794466	0.964570225	0.018360869	0.189425696	0.058382839
2019-07-04T11:50:00	0.2831	12.905	202.8	0.742932398	0.958430718	0.018181047	0.187570514	0.057811054
2019-07-04T11:55:00	0.2825	12.957	203.1	0.740992686	0.955352133	0.018091090	0.186642440	0.057525013
2019-07-04T12:00:00	0.2823	13.006	190.3	0.740336317	0.954311136	0.018060704	0.186328951	0.057428392
2019-07-04T12:05:00	0.2805	13.057	203.6	0.734538871	0.945132905	0.017793500	0.183572258	0.056578753
2019-07-04T12:10:00	0.2833	13.091	203.8	0.743516560	0.959358513	0.018208186	0.187850495	0.057897347
2019-07-04T12:15:00	0.2818	13.125	204.1	0.738687703	0.951698123	0.017984503	0.185542799	0.057186093
2019-07-04T12:20:00	0.2816	13.157	204.2	0.738030928	0.950657816	0.017954194	0.185230107	0.057089718
2019-07-04T12:25:00	0.2822	13.181	191.3	0.739943451	0.953688235	0.018042529	0.186141449	0.057370602
2019-07-04T12:30:00	0.2860	13.208	191.5	0.752109781	0.973041489	0.018609905	0.191994960	0.059174711
2019-07-04T12:35:00	0.2857	13.242	204.6	0.751455358	0.971997157	0.018579147	0.191677630	0.059076907
2019-07-04T12:40:00	0.2818	13.278	191.7	0.738937024	0.952093137	0.017996016	0.185661576	0.057222701
2019-07-04T12:45:00	0.2831	13.315	191.9	0.743095324	0.958689455	0.018188614	0.187648580	0.057835115
2019-07-04T12:50:00	0.2808	13.351	205.1	0.735695353	0.946961430	0.017846632	0.184120415	0.056747700
2019-07-04T12:55:00	0.2810	13.385	192.2	0.736323784	0.947955541	0.017875540	0.184418648	0.056839618
2019-07-04T13:00:00	0.2797	13.410	205.5	0.732129134	0.941326625	0.017683061	0.182432880	0.056227585
2019-07-04T13:05:00	0.2778	13.437	192.5	0.725996627	0.931663071	0.017403660	0.179550353	0.055339162
2019-07-04T13:10:00	0.2779	13.480	205.9	0.726304468	0.932147377	0.017417629	0.179694467	0.055383580
2019-07-04T13:15:00	0.2778	13.513	192.9	0.725967791	0.931617709	0.017402352	0.179536856	0.055335003
2019-07-04T13:20:00	0.2779	13.553	193.2	0.726275634	0.932102011	0.017416320	0.179680966	0.055379419
2019-07-04T13:25:00	0.2769	13.599	193.5	0.723037334	0.927011637	0.017269681	0.178168113	0.054913143
2019-07-04T13:30:00	0.2764	13.649	193.8	0.721409906	0.924456903	0.017196235	0.177410390	0.054679605
2019-07-04T13:35:00	0.2778	13.694	207.2	0.725910118	0.931526986	0.017399736	0.179509865	0.055326684
2019-07-04T13:40:00	0.2757	13.734	207.4	0.719121638	0.920868705	0.017093248	0.176347888	0.054352132
2019-07-04T13:45:00	0.2779	13.775	207.7	0.726203548	0.931988598	0.017413049	0.179647215	0.055369016
2019-07-04T13:50:00	0.2779	13.814	207.9	0.726189131	0.931965915	0.017412395	0.179640465	0.055366936
2019-07-04T13:55:00	0.2774	13.848	208.1	0.724563085	0.929408863	0.017338689	0.178880057	0.055132571
2019-07-04T14:00:00	0.2776	13.875	208.3	0.725193399	0.930399794	0.017367240	0.179174615	0.055223356
2019-07-04T14:05:00	0.2775	13.900	208.4	0.724856622	0.929870295	0.017351982	0.179017200	0.055174840
2019-07-04T14:10:00	0.2770	13.919	208.5	0.723229992	0.927314223	0.017278386	0.178257927	0.054940824
2019-07-04T14:15:00	0.2768	13.935	208.7	0.722570481	0.926278534	0.017248595	0.177950572	0.054846095
2019-07-04T14:20:00	0.2760	13.956	208.8	0.719974589	0.922205669	0.017131598	0.176743538	0.054474075
2019-07-04T14:25:00	0.2756	13.967	208.9	0.718991632	0.920664982	0.017087407	0.176287625	0.054333558
2019-07-04T14:30:00	0.2765	13.987	209.1	0.721881985	0.925197733	0.017217523	0.177630010	0.054747294
2019-07-04T14:35:00	0.2762	14.005	209.4	0.720899534	0.923656200	0.017173237	0.177173117	0.054606475
2019-07-04T14:40:00	0.2772	14.015	209.4	0.724110849	0.928698107	0.017318219	0.178668877	0.055067483
2019-07-04T14:45:00	0.2759	14.014	209.5	0.719902381	0.922092461	0.017128350	0.176710026	0.054463746
2019-07-04T14:50:00	0.2749	14.020	209.6	0.716658505	0.917011420	0.016982758	0.175207985	0.054000803
2019-07-04T14:55:00	0.2756	14.024	209.7	0.718904959	0.920529171	0.017083513	0.176247455	0.054321177
2019-07-04T15:00:00	0.2749	14.028	209.7	0.716629596	0.916966180	0.016981464	0.175194630	0.053996686
2019-07-04T15:05:00	0.2747	14.027	209.8	0.715968908	0.915932456	0.016951893	0.174889554	0.053902659
2019-07-04T15:10:00	0.2738	14.025	209.8	0.713044993	0.911362222	0.016821354	0.173542810	0.053487579
2019-07-04T15:15:00	0.2761	14.025	209.9	0.720461290	0.922968838	0.017153501	0.176969511	0.054543722
2019-07-04T15:20:00	0.2736	14.027	210.0	0.712369194	0.910306973	0.016791259	0.173232325	0.053391885
2019-07-04T15:25:00	0.2728	14.018	210.0	0.709766128	0.906246053	0.016675606	0.172039150	0.053024137
2019-07-04T15:30:00	0.2746	14.010	196.5	0.715573457	0.915313908	0.016934207	0.174707087	0.053846421
2019-07-04T15:35:00	0.2743	14.006	209.9	0.714589330	0.913775172	0.016890235	0.174253436	0.053706601
2019-07-04T15:40:00	0.2749	14.000	196.6	0.716513957	0.916785222	0.016976286	0.175141213	0.053980223
2019-07-04T15:45:00	0.2743	13.995	196.6	0.714560404	0.913729959	0.016888943	0.174240112	0.053702495
2019-07-04T15:50:00	0.2731	13.991	196.5	0.710664675	0.907647166	0.016715480	0.172450525	0.053150927
2019-07-04T15:55:00	0.2753	13.983	196.5	0.717762770	0.918740051	0.017032246	0.175718537	0.054158160
2019-07-04T16:00:00	0.2740	13.977	209.9	0.713547074	0.912146471	0.016843732	0.173773673	0.053558734
2019-07-04T16:05:00	0.2737	13.970	209.9	0.712802939	0.910984213	0.016810572	0.173431568	0.053453294
2019-07-04T16:10:00	0.2743	13.964	196.5	0.714645642	0.913863196	0.016892749	0.174279377	0.053714597
2019-07-04T16:15:00	0.2736	13.956	196.5	0.712284747	0.910175138	0.016787501	0.173193548	0.053379934
2019-07-04T16:20:00	0.2730	13.940	196.4	0.710569632	0.907498932	0.016711260	0.172406988	0.053137508
2019-07-04T16:25:00	0.2715	13.922	196.4	0.705614619	0.899781695	0.016492032	0.170145257	0.052440420
2019-07-04T16:30:00	0.2709	13.901	209.7	0.703572180	0.896606897	0.016402114	0.169217585	0.052154503
2019-07-04T16:35:00	0.2705	13.885	196.2	0.702177374	0.894440874	0.016340857	0.168585611	0.051959723
2019-07-04T16:40:00	0.2724	13.870	209.5	0.708561295	0.904368449	0.016622219	0.171488367	0.052854380
2019-07-04T16:45:00	0.2729	13.857	196.1	0.710082470	0.906739248	0.016689638	0.172183919	0.053068756
2019-07-04T16:50:00	0.2701	13.844	196.1	0.700911145	0.892475985	0.016285352	0.168012977	0.051783231
2019-07-04T16:55:00	0.2702	13.826	196.0	0.701462356	0.893331163	0.016309502	0.168262128	0.051860022
2019-07-04T17:00:00	0.2702	13.807	209.3	0.701364688	0.893179616	0.016305222	0.168217967	0.051846411
2019-07-04T17:05:00	0.2697	13.789	209.2	0.699644480	0.890511812	0.016229928	0.167441178	0.051606997
2019-07-04T17:10:00	0.2714	13.774	209.2	0.705384703	0.899424129	0.016481897	0.170040695	0.052408194
2019-07-04T17:15:00	0.2708	13.755	209.1	0.703342136	0.896249541	0.016392003	0.169113268	0.052122352
2019-07-04T17:20:00	0.2690	13.733	209.0	0.697403176	0.887039713	0.016132103	0.166431933	0.051295938
2019-07-04T17:25:00	0.2713	13.719	209.0	0.704767889	0.898465085	0.016454723	0.169760347	0.052321788
2019-07-04T17:30:00	0.2700	13.709	208.9	0.700778622	0.892270420	0.016279549	0.167953105	0.051764778
2019-07-04T17:35:00	0.2694	13.699	208.9	0.698733495	0.889100040	0.016190129	0.167030578	0.051480446
2019-07-04T17:40:00	0.2692	13.686	208.9	0.697986360	0.887942728	0.016157527	0.166694226	0.051376779
2019-07-04T17:45:00	0.2690	13.674	208.8	0.697563850	0.887288476	0.016139105	0.166504176	0.051318204
2019-07-04T17:50:00	0.2716	13.662	208.8	0.705900452	0.900226289	0.016504637	0.170275296	0.052480500
2019-07-04T17:55:00	0.2693	13.651	208.8	0.698342514	0.888494351	0.016173064	0.166854518	0.051426183
2019-07-04T18:00:00	0.2699	13.643	208.7	0.700516979	0.891864615	0.016268094	0.167834932	0.051728356
2019-07-04T18:05:00	0.2699	13.629	208.7	0.700419285	0.891713109	0.016263819	0.167790819	0.051714760
2019-07-04T18:10:00	0.2693	13.616	208.6	0.698373958	0.888543057	0.016174436	0.166868674	0.051430546
2019-07-04T18:15:00	0.2690	13.600	208.6	0.697301978	0.886883046	0.016127693	0.166386440	0.051281917
2019-07-04T18:20:00	0.2704	13.578	208.5	0.702072891	0.894278689	0.016336273	0.168538321	0.051945147
2019-07-04T18:25:00	0.2694	13.557	208.4	0.698730075	0.889094742	0.016189980	0.167029037	0.051479971
2019-07-04T18:30:00	0.2698	13.537	208.3	0.699930778	0.890955642	0.016242447	0.167570329	0.051646803
2019-07-04T18:35:00	0.2679	13.516	194.9	0.693986294	0.881754862	0.015983569	0.164899537	0.050823639
2019-07-04T18:40:00	0.2691	13.491	208.1	0.697787414	0.887634644	0.016148851	0.166604724	0.051349194
2019-07-04T18:45:00	0.2699	13.464	208.0	0.700286744	0.891507573	0.016258019	0.167730981	0.051696317
2019-07-04T18:50:00	0.2717	13.438	194.5	0.706349968	0.900925621	0.016524470	0.170479908	0.052543563
2019-07-04T18:55:00	0.2709	13.412	194.4	0.703659544	0.896742623	0.016405955	0.169257211	0.052166716
2019-07-04T19:00:00	0.2703	13.385	194.3	0.701616019	0.893569611	0.016316238	0.168331619	0.051881440
2019-07-04T19:05:00	0.2695	13.356	194.2	0.698922130	0.889392312	0.016198366	0.167115556	0.051506637
2019-07-04T19:10:00	0.2691	13.326	194.0	0.697850310	0.887732040	0.016151594	0.166633017	0.051357914
2019-07-04T19:15:00	0.2689	13.295	207.1	0.697102996	0.886575022	0.016119025	0.166297008	0.051254353
2019-07-04T19:20:00	0.2699	13.261	193.8	0.700251899	0.891453540	0.016256494	0.167715251	0.051691469
2019-07-04T19:25:00	0.2716	13.231	193.6	0.705991175	0.900367415	0.016508639	0.170316581	0.052493224
2019-07-04T19:30:00	0.2715	13.196	193.5	0.705569584	0.899711653	0.016490047	0.170124773	0.052434107
2019-07-04T19:35:00	0.2715	13.161	206.5	0.705472024	0.899559926	0.016485746	0.170080403	0.052420432
2019-07-04T19:40:00	0.2719	13.130	206.4	0.706994474	0.901928618	0.016552928	0.170773505	0.052634053
2019-07-04T19:45:00	0.2735	13.098	206.2	0.712076350	0.909849827	0.016778227	0.173097875	0.053350446
2019-07-04T19:50:00	0.2730	13.065	192.9	0.710361139	0.907173781	0.016702004	0.172311501	0.053108078
2019-07-04T19:55:00	0.2728	13.032	205.9	0.709940048	0.906517193	0.016683320	0.172118733	0.053048665
2019-07-04T20:00:00	0.2734	12.997	205.7	0.711784180	0.909393806	0.016765230	0.172963789	0.053309120
2019-07-04T20:05:00	0.2729	12.963	192.5	0.710068833	0.906717985	0.016689033	0.172177676	0.053066832
2019-07-04T20:10:00	0.2724	12.932	205.5	0.708352688	0.904043486	0.016612985	0.171393099	0.052825018
2019-07-04T20:15:00	0.2728	12.902	205.3	0.709873949	0.906414143	0.016680388	0.172088485	0.053039342
2019-07-04T20:20:00	0.2737	12.870	192.1	0.712688536	0.910805571	0.016805477	0.173379005	0.053437093
2019-07-04T20:25:00	0.2733	12.839	205.0	0.711297177	0.908633856	0.016743578	0.172740412	0.053240273
2019-07-04T20:30:00	0.2742	12.807	204.9	0.714433973	0.913532341	0.016883299	0.174181879	0.053684547
2019-07-04T20:35:00	0.2734	12.775	204.7	0.711749443	0.909339594	0.016763685	0.172947851	0.053304207
2019-07-04T20:40:00	0.2723	12.751	204.6	0.708091583	0.903636796	0.016601430	0.171273895	0.052788278
2019-07-04T20:45:00	0.2736	12.723	204.4	0.712525113	0.910550403	0.016798200	0.173303934	0.053413955
2019-07-04T20:50:00	0.2732	12.696	204.2	0.711133693	0.908378790	0.016736313	0.172665459	0.053217171
2019-07-04T20:55:00	0.2748	12.666	204.1	0.716209877	0.916309436	0.016962675	0.175000790	0.053936943
2019-07-04T21:00:00	0.2748	12.637	203.9	0.716112599	0.916157244	0.016958322	0.174955879	0.053923101
2019-07-04T21:05:00	0.2739	12.613	203.8	0.713429288	0.911962470	0.016838480	0.173719499	0.053542037
2019-07-04T21:10:00	0.2741	12.588	203.7	0.713978630	0.912820736	0.016862978	0.173972238	0.053619933
2019-07-04T21:15:00	0.2748	12.565	203.5	0.716143891	0.916206199	0.016959722	0.174970325	0.053927554
2019-07-04T21:20:00	0.2747	12.539	203.4	0.716046610	0.916054010	0.016955369	0.174925418	0.053913713
2019-07-04T21:25:00	0.2755	12.514	190.2	0.718533595	0.919947343	0.017066835	0.176075393	0.054268146
2019-07-04T21:30:00	0.2739	12.487	190.1	0.713265898	0.911707248	0.016831198	0.173644365	0.053518880
2019-07-04T21:35:00	0.2719	12.463	190.0	0.707019020	0.901966823	0.016554012	0.170784692	0.052637501
2019-07-04T21:40:00	0.2758	12.437	189.8	0.719533493	0.921514192	0.017111760	0.176538873	0.054410995
2019-07-04T21:45:00	0.2753	12.410	189.7	0.717821740	0.918832395	0.017034890	0.175745825	0.054166570
2019-07-04T21:50:00	0.2750	12.383	189.6	0.716755403	0.917163063	0.016987098	0.175252754	0.054014601
2019-07-04T21:55:00	0.2757	12.357	189.5	0.719241912	0.921057191	0.017098653	0.176403650	0.054369318
2019-07-04T22:00:00	0.2749	12.332	189.3	0.716560872	0.916858635	0.016978386	0.175162883	0.053986902
2019-07-04T22:05:00	0.2749	12.306	189.2	0.716460711	0.916701904	0.016973902	0.175116620	0.053972643
2019-07-04T22:10:00	0.2739	12.282	189.1	0.713451410	0.911997027	0.016839467	0.173729673	0.053545172
2019-07-04T22:15:00	0.2752	12.256	189.0	0.717552633	0.918411019	0.017022822	0.175621321	0.054128197
2019-07-04T22:20:00	0.2735	12.232	188.8	0.711957162	0.909663788	0.016772924	0.173043169	0.053333585
2019-07-04T22:25:00	0.2726	12.208	188.7	0.709267933	0.905469516	0.016653519	0.171811289	0.052953908
2019-07-04T22:30:00	0.2728	12.181	188.5	0.709814998	0.906322239	0.016677773	0.172061510	0.053031028
2019-07-04T22:35:00	0.2744	12.160	188.4	0.714890102	0.914245355	0.016903667	0.174392016	0.053749313
2019-07-04T22:40:00	0.2755	12.138	188.3	0.718666835	0.920156082	0.017072818	0.176137116	0.054287170
2019-07-04T22:45:00	0.2749	12.116	188.2	0.716628717	0.916964805	0.016981424	0.175194224	0.053996561
2019-07-04T22:50:00	0.2740	12.091	188.1	0.713619553	0.912259701	0.016846963	0.173807013	0.053569009
2019-07-04T22:55:00	0.2754	12.065	187.9	0.718043567	0.919179786	0.017044842	0.175848489	0.054198212
2019-07-04T23:00:00	0.2754	12.047	187.9	0.718266405	0.919528803	0.017054841	0.175951653	0.054230008
2019-07-04T23:05:00	0.2774	12.029	187.8	0.724619720	0.929497886	0.017341253	0.178906513	0.055140725
2019-07-04T23:10:00	0.2786	12.008	187.7	0.728386556	0.935425178	0.017512265	0.180670806	0.055684497
2019-07-04T23:15:00	0.2773	11.985	187.5	0.724419832	0.929183700	0.017332203	0.178813148	0.055111949
2019-07-04T23:20:00	0.2777	11.966	187.4	0.725609327	0.931053874	0.017386094	0.179369127	0.055283307
2019-07-04T23:25:00	0.2781	11.946	187.3	0.726798441	0.932924688	0.017440056	0.179925847	0.055454893
2019-07-04T23:30:00	0.2775	11.929	187.2	0.725087155	0.930232742	0.017362426	0.179124947	0.055208048
2019-07-04T23:35:00	0.2793	11.908	187.1	0.730785156	0.939205972	0.017621625	0.181799061	0.056032236
2019-07-04T23:40:00	0.2792	11.889	187.0	0.730363501	0.938540971	0.017602374	0.181600451	0.055971023
2019-07-04T23:45:00	0.2792	11.871	186.9	0.730585600	0.938891228	0.017612513	0.181705050	0.056003261
2019-07-04T23:50:00	0.2791	11.852	186.8	0.730163921	0.938226265	0.017593266	0.181506484	0.055942061
2019-07-04T23:55:00	0.2811	11.834	199.4	0.736496936	0.948229510	0.017883509	0.184500866	0.056864959
2019-07-05T00:00:00	0.2811	11.817	186.6	0.736397312	0.948071876	0.017878924	0.184453559	0.056850378
2019-07-05T00:05:00	0.2811	11.800	186.5	0.736619051	0.948422742	0.017889130	0.184558861	0.056882834
2019-07-05T00:10:00	0.2799	11.781	186.3	0.732661102	0.942166452	0.017707410	0.182684081	0.056305008
2019-07-05T00:15:00	0.2801	11.763	186.3	0.733204725	0.943024935	0.017732310	0.182940976	0.056384186
2019-07-05T00:20:00	0.2796	11.751	198.9	0.731818168	0.940835813	0.017668836	0.182286124	0.056182354
2019-07-05T00:25:00	0.2794	11.734	198.8	0.731074812	0.939662884	0.017634856	0.181935563	0.056074307
2019-07-05T00:30:00	0.2785	11.719	198.7	0.728077356	0.934938169	0.017498193	0.180525637	0.055639754
2019-07-05T00:35:00	0.2791	11.706	198.6	0.730231518	0.938332852	0.017596351	0.181538308	0.055951870
2019-07-05T00:40:00	0.2763	11.691	198.5	0.721107215	0.923981995	0.017182593	0.177269647	0.054636227
2019-07-05T00:45:00	0.2772	11.677	198.3	0.723910385	0.928383106	0.017309150	0.178575310	0.055038645
2019-07-05T00:50:00	0.2775	11.664	198.4	0.725100044	0.930253006	0.017363010	0.179130972	0.055209905
2019-07-05T00:55:00	0.2772	11.648	198.2	0.724032914	0.928575639	0.017314693	0.178632498	0.055056271
2019-07-05T01:00:00	0.2758	11.633	198.2	0.719415898	0.921329874	0.017106473	0.176484331	0.054394185
2019-07-05T01:05:00	0.2759	11.615	198.0	0.719638653	0.921679029	0.017116488	0.176587655	0.054426030
2019-07-05T01:10:00	0.2774	11.598	197.9	0.724700308	0.929624564	0.017344903	0.178944162	0.055152329
2019-07-05T01:15:00	0.2780	11.583	197.8	0.726534218	0.932508883	0.017428058	0.179802064	0.055416742
2019-07-05T01:20:00	0.2776	11.569	185.1	0.725145170	0.930323960	0.017365055	0.179152067	0.055216407
2019-07-05T01:25:00	0.2770	11.554	197.6	0.723433122	0.927633294	0.017287568	0.178352650	0.054970019
2019-07-05T01:30:00	0.2767	11.539	197.5	0.722365513	0.925956732	0.017239341	0.177855108	0.054816671
2019-07-05T01:35:00	0.2763	11.526	184.8	0.720974903	0.923774429	0.017176632	0.177208145	0.054617271
2019-07-05T01:40:00	0.2750	11.513	197.3	0.717000236	0.917546257	0.016998065	0.175365899	0.054049473
2019-07-05T01:45:00	0.2766	11.500	197.2	0.722065494	0.925485765	0.017225802	0.177715422	0.054773619
2019-07-05T01:50:00	0.2750	11.487	197.2	0.716799936	0.917232759	0.016989092	0.175273331	0.054020943
2019-07-05T01:55:00	0.2771	11.478	197.0	0.723800745	0.928210836	0.017304191	0.178524146	0.055022875
2019-07-05T02:00:00	0.2750	11.470	184.3	0.716922701	0.917424899	0.016994591	0.175330063	0.054038428
2019-07-05T02:05:00	0.2763	11.460	196.9	0.721020079	0.923845299	0.017178667	0.177229143	0.054623743
2019-07-05T02:10:00	0.2760	11.453	196.8	0.720274558	0.922676009	0.017145096	0.176882794	0.054516995
2019-07-05T02:15:00	0.2754	11.446	196.8	0.718237325	0.919483255	0.017053536	0.175938189	0.054225859
2019-07-05T02:20:00	0.2770	11.438	196.7	0.723300893	0.927425589	0.017281591	0.178290986	0.054951014
2019-07-05T02:25:00	0.2737	11.430	196.6	0.712542625	0.910577744	0.016798980	0.173311977	0.053416434
2019-07-05T02:30:00	0.2762	11.421	196.6	0.720842586	0.923566871	0.017170671	0.177146652	0.054598319
2019-07-05T02:35:00	0.2754	11.414	196.4	0.718159816	0.919361854	0.017050058	0.175902303	0.054214798
2019-07-05T02:40:00	0.2761	11.408	196.5	0.720319743	0.922746864	0.017147130	0.176903776	0.054523462
2019-07-05T02:45:00	0.2767	11.399	183.7	0.722478411	0.926133979	0.017244438	0.177907687	0.054832877
2019-07-05T02:50:00	0.2767	11.391	196.3	0.722378411	0.925976981	0.017239924	0.177861114	0.054818523
2019-07-05T02:55:00	0.2775	11.383	196.2	0.724858265	0.929872878	0.017352056	0.179017968	0.055175076
2019-07-05T03:00:00	0.2752	11.380	196.2	0.717659203	0.918577881	0.017027601	0.175670620	0.054143391
2019-07-05T03:05:00	0.2755	11.373	183.9	0.718527962	0.919938520	0.017066582	0.176072784	0.054267342
2019-07-05T03:10:00	0.2748	11.367	196.1	0.716166655	0.916241814	0.016960741	0.174980835	0.053930793
2019-07-05T03:15:00	0.2766	11.360	195.9	0.722200982	0.925698444	0.017231916	0.177778497	0.054793059
2019-07-05T03:20:00	0.2775	11.355	183.4	0.725003327	0.930100940	0.017358628	0.179085763	0.055195971
2019-07-05T03:25:00	0.2774	11.350	183.4	0.724581014	0.929437045	0.017339501	0.178888432	0.055135152
2019-07-05T03:30:00	0.2800	11.347	195.9	0.732854099	0.942471201	0.017716248	0.182775262	0.056333111
2019-07-05T03:35:00	0.2787	11.343	183.3	0.728892143	0.936221689	0.017535286	0.180908313	0.055757699
2019-07-05T03:40:00	0.2801	11.340	183.2	0.733297986	0.943172239	0.017736584	0.182985067	0.056397775
2019-07-05T03:45:00	0.2811	11.337	183.2	0.736413364	0.948097275	0.017879662	0.184461181	0.056852727
2019-07-05T03:50:00	0.2771	11.338	183.2	0.723758816	0.928144959	0.017302294	0.178504581	0.055016846
2019-07-05T03:55:00	0.2761	11.334	183.1	0.720432704	0.922924007	0.017152214	0.176956234	0.054539630
2019-07-05T04:00:00	0.2795	11.332	183.1	0.731290417	0.940003033	0.017644708	0.182037204	0.056105634
2019-07-05T04:05:00	0.2797	11.330	183.0	0.731976661	0.941085959	0.017676085	0.182360915	0.056205405
2019-07-05T04:10:00	0.2806	11.329	183.0	0.734913954	0.945725824	0.017810723	0.183749947	0.056633518
2019-07-05T04:15:00	0.2805	11.328	182.9	0.734635085	0.945284986	0.017797917	0.183617829	0.056592798
2019-07-05T04:20:00	0.2811	11.327	182.9	0.736606348	0.948402641	0.017888546	0.184552828	0.056880974
2019-07-05T04:25:00	0.2809	11.329	182.9	0.736006215	0.947453136	0.017860929	0.184267907	0.056793159
2019-07-05T04:30:00	0.2794	11.332	182.9	0.731224698	0.939899347	0.017641705	0.182006219	0.056096084
2019-07-05T04:35:00	0.2813	11.334	182.9	0.737055539	0.949113537	0.017909232	0.184766241	0.056946750
2019-07-05T04:40:00	0.2819	11.339	182.9	0.739025523	0.952233364	0.018000103	0.185703746	0.057235698
2019-07-05T04:45:00	0.2826	11.342	182.8	0.741315430	0.955864140	0.018106041	0.186796689	0.057572554
2019-07-05T04:50:00	0.2818	11.348	195.4	0.738789558	0.951859491	0.017989206	0.185591318	0.057201047
2019-07-05T04:55:00	0.2824	11.355	182.9	0.740758627	0.954980873	0.018080251	0.186530619	0.057490548
2019-07-05T05:00:00	0.2798	11.363	195.5	0.732446050	0.941826916	0.017697564	0.182582509	0.056273703
2019-07-05T05:05:00	0.2806	11.370	182.9	0.735061501	0.945959094	0.017817501	0.183819870	0.056655069
2019-07-05T05:10:00	0.2819	11.378	182.9	0.738959940	0.952129447	0.017997074	0.185672495	0.057226066
2019-07-05T05:15:00	0.2801	11.386	182.9	0.733217403	0.943044959	0.017732891	0.182946969	0.056386033
2019-07-05T05:20:00	0.2818	11.396	182.9	0.738723971	0.951755581	0.017986177	0.185560075	0.057191417
2019-07-05T05:25:00	0.2808	11.409	183.0	0.735553512	0.946737099	0.017840111	0.184053137	0.056726964
2019-07-05T05:30:00	0.2783	11.421	183.0	0.727551445	0.934110019	0.017474274	0.180278865	0.055563697
2019-07-05T05:35:00	0.2809	11.434	183.1	0.735960201	0.947380348	0.017858812	0.184246071	0.056786429
2019-07-05T05:40:00	0.2824	11.447	183.1	0.740820797	0.955079481	0.018083130	0.186560317	0.057499702
2019-07-05T05:45:00	0.2815	11.461	182.9	0.737973369	0.950566663	0.017951539	0.185202716	0.057081276
2019-07-05T05:50:00	0.2816	11.475	195.7	0.738015975	0.950634135	0.017953504	0.185222990	0.057087525
2019-07-05T05:55:00	0.2826	11.489	183.2	0.741269481	0.955791240	0.018103912	0.186774725	0.057565784
2019-07-05T06:00:00	0.2810	11.507	196.0	0.736173339	0.947717520	0.017868617	0.184347228	0.056817606
2019-07-05T06:05:00	0.2806	11.525	196.0	0.734930195	0.945751499	0.017811469	0.183757643	0.056635890
2019-07-05T06:10:00	0.2801	11.544	196.1	0.733365017	0.943278116	0.017739656	0.183016761	0.056407543
2019-07-05T06:15:00	0.2810	11.561	196.1	0.736301216	0.947919834	0.017874501	0.184407933	0.056836316
2019-07-05T06:20:00	0.2813	11.581	196.1	0.737307844	0.949512917	0.017920856	0.184886170	0.056983713
2019-07-05T06:25:00	0.2797	11.601	196.3	0.732206280	0.941448401	0.017686591	0.182469298	0.056238810
2019-07-05T06:30:00	0.2801	11.621	196.3	0.733214015	0.943039608	0.017732736	0.182945368	0.056385539
2019-07-05T06:35:00	0.2808	11.641	196.5	0.735507492	0.946664320	0.017837996	0.184031312	0.056720238
2019-07-05T06:40:00	0.2812	11.666	183.9	0.736835682	0.948765565	0.017899105	0.184661769	0.056914551
2019-07-05T06:45:00	0.2810	11.699	184.1	0.736235585	0.947815998	0.017871481	0.184376776	0.056826713
2019-07-05T06:50:00	0.2793	11.730	184.2	0.730810711	0.939246280	0.017622792	0.181811102	0.056035947
2019-07-05T06:55:00	0.2803	11.755	184.3	0.734070510	0.944392710	0.017772006	0.183350510	0.056510408
2019-07-05T07:00:00	0.2769	11.778	184.4	0.723163728	0.927210147	0.017275392	0.178227033	0.054931303
2019-07-05T07:05:00	0.2776	11.802	184.5	0.725141081	0.930317530	0.017364869	0.179150156	0.055215818
2019-07-05T07:10:00	0.2784	11.827	184.7	0.727761673	0.934441034	0.017483834	0.180377488	0.055594093
2019-07-05T07:15:00	0.2804	11.850	184.8	0.734241108	0.944662300	0.017779833	0.183431264	0.056535297
2019-07-05T07:20:00	0.2803	11.877	184.9	0.733962189	0.944221547	0.017767037	0.183299245	0.056494608
2019-07-05T07:25:00	0.2817	11.902	185.0	0.738504212	0.951407442	0.017976032	0.185455410	0.057159159
2019-07-05T07:30:00	0.2804	11.926	185.1	0.734369051	0.944864501	0.017785705	0.183491840	0.056553967
2019-07-05T07:35:00	0.2792	11.954	185.2	0.730551185	0.938836952	0.017610942	0.181688840	0.055998265
2019-07-05T07:40:00	0.2800	11.984	185.4	0.733167966	0.942966878	0.017730626	0.182923599	0.056378830
2019-07-05T07:45:00	0.2807	12.023	185.5	0.735140006	0.946083218	0.017821107	0.183857079	0.056666537
2019-07-05T07:50:00	0.2794	12.053	185.7	0.731001106	0.939546611	0.017631489	0.181900823	0.056063600
2019-07-05T07:55:00	0.2819	12.081	185.8	0.739080956	0.952321202	0.018002664	0.185730163	0.057243840
2019-07-05T08:00:00	0.2783	12.112	185.9	0.727544659	0.934099334	0.017473966	0.180275681	0.055562716
2019-07-05T08:05:00	0.2787	12.145	186.1	0.728875694	0.936195771	0.017534537	0.180900583	0.055755316
2019-07-05T08:10:00	0.2782	12.187	186.3	0.727307965	0.933726694	0.017463206	0.180164678	0.055528503
2019-07-05T08:15:00	0.2779	12.224	186.5	0.726384106	0.932272681	0.017421244	0.179731759	0.055395074
2019-07-05T08:20:00	0.2788	12.236	186.6	0.729003822	0.936397660	0.017540373	0.180960798	0.055773875
2019-07-05T08:25:00	0.2778	12.257	186.7	0.725825067	0.931393202	0.017395878	0.179470064	0.055314417
2019-07-05T08:30:00	0.2800	12.280	186.8	0.732951268	0.942624646	0.017720698	0.182821178	0.056347263
2019-07-05T08:35:00	0.2796	12.303	186.9	0.731707048	0.940660447	0.017663754	0.182233698	0.056166195
2019-07-05T08:40:00	0.2772	12.326	187.0	0.724019146	0.928554004	0.017314070	0.178626071	0.055054290
2019-07-05T08:45:00	0.2788	12.350	199.9	0.729217358	0.936734159	0.017550103	0.181061175	0.055804813
2019-07-05T08:50:00	0.2799	12.367	187.2	0.732800249	0.942386167	0.017713781	0.182749818	0.056325269
2019-07-05T08:55:00	0.2791	12.385	187.2	0.730268598	0.938391320	0.017598043	0.181555765	0.055957250
2019-07-05T09:00:00	0.2799	12.401	200.1	0.732563890	0.942012962	0.017702959	0.182638162	0.056290855
2019-07-05T09:05:00	0.2793	12.419	200.2	0.730675864	0.939033591	0.017616635	0.181747571	0.056016366
2019-07-05T09:10:00	0.2798	12.436	200.2	0.732327515	0.941639784	0.017692139	0.182526536	0.056256451
2019-07-05T09:15:00	0.2809	12.455	200.3	0.735907415	0.947296850	0.017856384	0.184221024	0.056778709
2019-07-05T09:20:00	0.2797	12.476	200.4	0.732091126	0.941266630	0.017681322	0.182414939	0.056222056
2019-07-05T09:25:00	0.2795	12.505	200.5	0.731490264	0.940318359	0.017653843	0.182131443	0.056134679
2019-07-05T09:30:00	0.2776	12.533	187.8	0.725413873	0.930746487	0.017377233	0.179277707	0.055255130
2019-07-05T09:35:00	0.2783	12.558	187.9	0.727390027	0.933855883	0.017466936	0.180203159	0.055540364
2019-07-05T09:40:00	0.2790	12.586	200.9	0.729687096	0.937474528	0.017571516	0.181282090	0.055872901
2019-07-05T09:45:00	0.2805	12.604	200.9	0.734555878	0.945159787	0.017794281	0.183580313	0.056581235
2019-07-05T09:50:00	0.2812	12.623	201.1	0.736848529	0.948785898	0.017899697	0.184667873	0.056916432
2019-07-05T09:55:00	0.2821	12.645	201.2	0.739781987	0.953432269	0.018035063	0.186064417	0.057346860
2019-07-05T10:00:00	0.2810	12.670	201.3	0.736291060	0.947903766	0.017874034	0.184403112	0.056834830
2019-07-05T10:05:00	0.2828	12.702	201.5	0.742065687	0.957054721	0.018140823	0.187155523	0.057683150
2019-07-05T10:10:00	0.2809	12.731	201.6	0.735958162	0.947377123	0.017858718	0.184245104	0.056786130
2019-07-05T10:15:00	0.2816	12.754	201.7	0.738201600	0.950928117	0.017962067	0.185311337	0.057114754
2019-07-05T10:20:00	0.2810	12.772	201.8	0.736268055	0.947867369	0.017872975	0.184392190	0.056831464
2019-07-05T10:25:00	0.2811	12.805	189.1	0.736583673	0.948366758	0.017887502	0.184542058	0.056877655
2019-07-05T10:30:00	0.2806	12.829	202.2	0.734970796	0.945815688	0.017813334	0.183776883	0.056641820
2019-07-05T10:35:00	0.2796	12.868	189.5	0.731748704	0.940726187	0.017665659	0.182253350	0.056172253
2019-07-05T10:40:00	0.2781	12.910	189.6	0.726913211	0.933105320	0.017445269	0.179979629	0.055471470
2019-07-05T10:45:00	0.2815	12.947	189.8	0.737845877	0.950364770	0.017945659	0.185142054	0.057062579
2019-07-05T10:50:00	0.2819	12.976	203.0	0.739124895	0.952390828	0.018004694	0.185751104	0.057250294
2019-07-05T10:55:00	0.2788	13.006	203.1	0.729150582	0.936628925	0.017547060	0.181029782	0.055795137
2019-07-05T11:00:00	0.2802	13.032	203.2	0.733650064	0.943728404	0.017752723	0.183151570	0.056449093
2019-07-05T11:05:00	0.2803	13.079	203.5	0.733965904	0.944227417	0.017767207	0.183301003	0.056495149
2019-07-05T11:10:00	0.2801	13.138	203.9	0.733316930	0.943202161	0.017737452	0.182994024	0.056400535
2019-07-05T11:15:00	0.2786	13.176	204.0	0.728483477	0.935577851	0.017516677	0.180716323	0.055698526
2019-07-05T11:20:00	0.2795	13.222	191.2	0.731375088	0.940136626	0.017648578	0.182077128	0.056117939
2019-07-05T11:25:00	0.2788	13.249	204.4	0.729116007	0.936574441	0.017545485	0.181013529	0.055790128
2019-07-05T11:30:00	0.2785	13.267	191.4	0.728144116	0.935043312	0.017501231	0.180556975	0.055649413
2019-07-05T11:35:00	0.2788	13.284	204.6	0.729104483	0.936556280	0.017544959	0.181008112	0.055788458
2019-07-05T11:40:00	0.2757	13.331	205.0	0.719103207	0.920839822	0.017092420	0.176339344	0.054349498
2019-07-05T11:45:00	0.2777	13.409	205.3	0.725549239	0.930959371	0.017383370	0.179341019	0.055274644
2019-07-05T11:50:00	0.2781	13.440	205.5	0.726832489	0.932978274	0.017441603	0.179941801	0.055459811
2019-07-05T11:55:00	0.2770	13.460	205.6	0.723280839	0.927394090	0.017280684	0.178281635	0.054948131
2019-07-05T12:00:00	0.2753	13.472	192.6	0.717788377	0.918780151	0.017033394	0.175730386	0.054161812
2019-07-05T12:05:00	0.2751	13.499	205.9	0.717136568	0.917759657	0.017004173	0.175428919	0.054068897
2019-07-05T12:10:00	0.2750	13.534	206.1	0.716807730	0.917244957	0.016989441	0.175276933	0.054022053
2019-07-05T12:15:00	0.2755	13.552	193.0	0.718416955	0.919764625	0.017061599	0.176021370	0.054251496
2019-07-05T12:20:00	0.2752	13.559	206.2	0.717442255	0.918238204	0.017017874	0.175570268	0.054112462
2019-07-05T12:25:00	0.2762	13.578	206.4	0.720665231	0.923288687	0.017162684	0.177064245	0.054572920
2019-07-05T12:30:00	0.2759	13.607	206.6	0.719691122	0.921761277	0.017118848	0.176611997	0.054433533
2019-07-05T12:35:00	0.2738	13.620	206.6	0.712899902	0.911135631	0.016814890	0.173476125	0.053467026
2019-07-05T12:40:00	0.2755	13.640	206.8	0.718388060	0.919719362	0.017060302	0.176007988	0.054247371
2019-07-05T12:45:00	0.2762	13.661	207.0	0.720642128	0.923252453	0.017161644	0.177053512	0.054569612
2019-07-05T12:50:00	0.2750	13.683	207.0	0.716761478	0.917172570	0.016987370	0.175255561	0.054015466
2019-07-05T12:55:00	0.2760	13.690	207.1	0.719985045	0.922222063	0.017132068	0.176748392	0.054475571
2019-07-05T13:00:00	0.2742	13.705	207.1	0.714164399	0.913111032	0.016871267	0.174057751	0.053646289
2019-07-05T13:05:00	0.2721	13.721	207.3	0.707363002	0.902502291	0.016569212	0.170941503	0.052685831
2019-07-05T13:10:00	0.2720	13.732	207.4	0.707033292	0.901989038	0.016554643	0.170791196	0.052639505
2019-07-05T13:15:00	0.2731	13.743	207.5	0.710588986	0.907529116	0.016712119	0.172415852	0.053140240
2019-07-05T13:20:00	0.2712	13.750	207.5	0.704753498	0.898442713	0.016454090	0.169753810	0.052319773
2019-07-05T13:25:00	0.2737	13.756	194.3	0.712842025	0.911045249	0.016812312	0.173449528	0.053458829
2019-07-05T13:30:00	0.2720	13.769	207.6	0.707334020	0.902457172	0.016567931	0.170928288	0.052681758
2019-07-05T13:35:00	0.2706	13.784	207.8	0.702790803	0.895393272	0.016367783	0.168863396	0.052045339
2019-07-05T13:40:00	0.2710	13.807	194.6	0.704081978	0.897398995	0.016424533	0.169448883	0.052225791
2019-07-05T13:45:00	0.2714	13.837	208.1	0.705372700	0.899405464	0.016481368	0.170035237	0.052406511
2019-07-05T13:50:00	0.2717	13.861	208.2	0.706338996	0.900908549	0.016523986	0.170474912	0.052542024
2019-07-05T13:55:00	0.2699	13.886	195.1	0.700496764	0.891833265	0.016267210	0.167825803	0.051725543
2019-07-05T14:00:00	0.2699	13.896	195.2	0.700490957	0.891824259	0.016266955	0.167823181	0.051724734
2019-07-05T14:05:00	0.2703	13.909	208.6	0.701782939	0.893828655	0.016323556	0.168407123	0.051904711
2019-07-05T14:10:00	0.2705	13.921	195.4	0.702425858	0.894826627	0.016351761	0.168698105	0.051994394
2019-07-05T14:15:00	0.2685	13.936	208.8	0.695927643	0.884756282	0.016067872	0.165769270	0.051091699
2019-07-05T14:20:00	0.2700	13.953	208.9	0.700792220	0.892291512	0.016280144	0.167959248	0.051766671
2019-07-05T14:25:00	0.2715	13.973	195.7	0.705650368	0.899837296	0.016493608	0.170161517	0.052445432
2019-07-05T14:30:00	0.2711	13.995	195.9	0.704348141	0.897812635	0.016436245	0.169569708	0.052263031
2019-07-05T14:35:00	0.2704	14.031	196.0	0.702072487	0.894278061	0.016336256	0.168538138	0.051945091
2019-07-05T14:40:00	0.2688	14.055	209.8	0.696873172	0.886219299	0.016109016	0.166193747	0.051222527
2019-07-05T14:45:00	0.2683	14.076	196.4	0.695242877	0.883697228	0.016038109	0.165462216	0.050997062
2019-07-05T14:50:00	0.2682	14.089	196.5	0.694912078	0.883185762	0.016023742	0.165313991	0.050951378
2019-07-05T14:55:00	0.2702	14.096	196.5	0.701400478	0.893235149	0.016306790	0.168234149	0.051851398
2019-07-05T15:00:00	0.2700	14.098	210.0	0.700745766	0.892219458	0.016278110	0.167938263	0.051760204
2019-07-05T15:05:00	0.2699	14.099	196.6	0.700415463	0.891707181	0.016263651	0.167789093	0.051714228
2019-07-05T15:10:00	0.2714	14.104	196.7	0.705274108	0.899252147	0.016477023	0.169990410	0.052392695
2019-07-05T15:15:00	0.2688	14.111	196.7	0.696832481	0.886156323	0.016107244	0.166175468	0.051216893
2019-07-05T15:20:00	0.2681	14.115	196.8	0.694552167	0.882629392	0.016008118	0.165152801	0.050901697
2019-07-05T15:25:00	0.2675	14.111	210.3	0.692595651	0.879606868	0.015923325	0.164278009	0.050632078
2019-07-05T15:30:00	0.2686	14.109	196.8	0.696165327	0.885123977	0.016078209	0.165875920	0.051124569
2019-07-05T15:35:00	0.2672	14.102	196.8	0.691608269	0.878082769	0.015880623	0.163837465	0.050496298
2019-07-05T15:40:00	0.2665	14.091	196.8	0.689324700	0.874561141	0.015782097	0.162820987	0.050183009
2019-07-05T15:45:00	0.2688	14.080	196.8	0.696797603	0.886102344	0.016105725	0.166159801	0.051212064
2019-07-05T15:50:00	0.2674	14.066	210.2	0.692241332	0.879059853	0.015907995	0.164119849	0.050583331
2019-07-05T15:55:00	0.2661	14.055	196.7	0.688005012	0.872528029	0.015725306	0.162235080	0.050002427
2019-07-05T16:00:00	0.2656	14.041	196.7	0.686370764	0.870012391	0.015655127	0.161511060	0.049779277
2019-07-05T16:05:00	0.2655	14.031	196.7	0.686091117	0.869582154	0.015643135	0.161387339	0.049741145
2019-07-05T16:10:00	0.2670	14.022	210.1	0.691020642	0.877176124	0.015855239	0.163575577	0.050415582
2019-07-05T16:15:00	0.2662	14.012	196.7	0.688463067	0.873233538	0.015745005	0.162438318	0.050065067
2019-07-05T16:20:00	0.2652	14.004	196.7	0.685252047	0.868291653	0.015607182	0.161016420	0.049626824
2019-07-05T16:25:00	0.2637	13.996	210.1	0.680080817	0.860351641	0.015386564	0.158740345	0.048925316
2019-07-05T16:30:00	0.2647	13.988	196.6	0.683388702	0.865427975	0.015527496	0.160194317	0.049373444
2019-07-05T16:35:00	0.2635	13.979	196.6	0.679520537	0.859492760	0.015362760	0.158494766	0.048849626
2019-07-05T16:40:00	0.2638	13.971	196.6	0.680545706	0.861064497	0.015406330	0.158944264	0.048988166
2019-07-05T16:45:00	0.2643	13.964	210.0	0.682222898	0.863637837	0.015477750	0.159681095	0.049215264
2019-07-05T16:50:00	0.2629	13.959	196.6	0.677700492	0.856704591	0.015285569	0.157698395	0.048604177
2019-07-05T16:55:00	0.2631	13.954	196.6	0.678399718	0.857775414	0.015315200	0.158004096	0.048698397
2019-07-05T17:00:00	0.2644	13.949	196.6	0.682361414	0.863850471	0.015483656	0.159742028	0.049234044
2019-07-05T17:05:00	0.2613	13.944	196.6	0.672284116	0.848423991	0.015057059	0.155340901	0.047877574
2019-07-05T17:10:00	0.2635	13.938	196.6	0.679517617	0.859488284	0.015362636	0.158493487	0.048849232
2019-07-05T17:15:00	0.2625	13.934	196.6	0.676298713	0.854559120	0.015226256	0.157086477	0.048415578
2019-07-05T17:20:00	0.2629	13.930	196.6	0.677651340	0.856629333	0.015283487	0.157676918	0.048597557
2019-07-05T17:25:00	0.2620	13.924	196.6	0.674757596	0.852202337	0.015161187	0.156415176	0.048208676
2019-07-05T17:30:00	0.2629	13.916	196.6	0.677743800	0.856770902	0.015287403	0.157717320	0.048610010
2019-07-05T17:35:00	0.2628	13.908	196.6	0.677136923	0.855841825	0.015261708	0.157452230	0.048528306
2019-07-05T17:40:00	0.2653	13.902	196.6	0.685338484	0.868424565	0.015610884	0.161054609	0.049638595
2019-07-05T17:45:00	0.2631	13.897	210.0	0.678208986	0.857483278	0.015307114	0.157920677	0.048672686
2019-07-05T17:50:00	0.2629	13.888	196.6	0.677602187	0.856554077	0.015281405	0.157655441	0.048590938
2019-07-05T17:55:00	0.2612	13.881	210.0	0.672093063	0.848132369	0.015049032	0.155258085	0.047852050
2019-07-05T18:00:00	0.2617	13.874	210.0	0.673774152	0.850699454	0.015119741	0.155987584	0.048076888
2019-07-05T18:05:00	0.2624	13.866	196.6	0.676107872	0.854267160	0.015218190	0.157003265	0.048389931
2019-07-05T18:10:00	0.2623	13.858	196.6	0.675500722	0.853338521	0.015192545	0.156738688	0.048308386
2019-07-05T18:15:00	0.2641	13.848	196.6	0.681423285	0.862410676	0.015443678	0.159329582	0.049106924
2019-07-05T18:20:00	0.2617	13.840	196.5	0.673632385	0.850482876	0.015113772	0.155925995	0.048057906
2019-07-05T18:25:00	0.2632	13.831	196.5	0.678578756	0.858049667	0.015322792	0.158082421	0.048722537
2019-07-05T18:30:00	0.2622	13.818	209.8	0.675359022	0.853121836	0.015186563	0.156676974	0.048289365
2019-07-05T18:35:00	0.2621	13.807	196.4	0.675078529	0.852692961	0.015174726	0.156554848	0.048251725
2019-07-05T18:40:00	0.2634	13.795	209.8	0.679370232	0.859262397	0.015356378	0.158428920	0.048829332
2019-07-05T18:45:00	0.2627	13.784	209.7	0.676804481	0.855333020	0.015247642	0.157307115	0.048483581
2019-07-05T18:50:00	0.2637	13.774	196.3	0.680115338	0.860404568	0.015388031	0.158755482	0.048929982
2019-07-05T18:55:00	0.2640	13.763	209.6	0.681140339	0.861976574	0.015431631	0.159205296	0.049068618
2019-07-05T19:00:00	0.2622	13.750	196.2	0.675309838	0.853046629	0.015184487	0.156655556	0.048282764
2019-07-05T19:05:00	0.2629	13.739	209.5	0.677642574	0.856615913	0.015283116	0.157673088	0.048596377
2019-07-05T19:10:00	0.2626	13.726	196.1	0.676709075	0.855187017	0.015243607	0.157265482	0.048470749
2019-07-05T19:15:00	0.2641	13.714	196.0	0.681651273	0.862760511	0.015453389	0.159429764	0.049137802
2019-07-05T19:20:00	0.2646	13.702	196.0	0.683001915	0.864833918	0.015510982	0.160023945	0.049320934
2019-07-05T19:25:00	0.2637	13.690	195.9	0.680112418	0.860400091	0.015387907	0.158754202	0.048929587
2019-07-05T19:30:00	0.2645	13.679	195.9	0.682768176	0.864474986	0.015501007	0.159921034	0.049289216
2019-07-05T19:35:00	0.2647	13.668	195.8	0.683466431	0.865547373	0.015530816	0.160228566	0.049384000
2019-07-05T19:40:00	0.2646	13.657	209.1	0.683186561	0.865117496	0.015518865	0.160105266	0.049345998
2019-07-05T19:45:00	0.2675	13.646	209.1	0.692675578	0.879730279	0.015926784	0.164313698	0.050643077
2019-07-05T19:50:00	0.2679	13.636	195.7	0.694022156	0.881810277	0.015985124	0.164915582	0.050828584
2019-07-05T19:55:00	0.2669	13.625	209.0	0.690490636	0.876358638	0.015832362	0.163339559	0.050342839
2019-07-05T20:00:00	0.2669	13.616	209.0	0.690536705	0.876429684	0.015834350	0.163360067	0.050349159
2019-07-05T20:05:00	0.2679	13.606	195.6	0.693835147	0.881521318	0.015977016	0.164831924	0.050802800
2019-07-05T20:10:00	0.2679	13.596	208.9	0.693881173	0.881592433	0.015979011	0.164852512	0.050809145
2019-07-05T20:15:00	0.2674	13.586	208.8	0.692301413	0.879152601	0.015910594	0.164146662	0.050591595
2019-07-05T20:20:00	0.2647	13.574	195.5	0.683555827	0.865684698	0.015534635	0.160267961	0.049396142
2019-07-05T20:25:00	0.2653	13.562	208.7	0.685557481	0.868761344	0.015620264	0.161151388	0.049668423
2019-07-05T20:30:00	0.2653	13.550	195.3	0.685277772	0.868331208	0.015608284	0.161027785	0.049630327
2019-07-05T20:35:00	0.2667	13.537	208.6	0.689882963	0.875421655	0.015806154	0.163069176	0.050259504
2019-07-05T20:40:00	0.2679	13.522	195.2	0.693832238	0.881516824	0.015976889	0.164830623	0.050802399
2019-07-05T20:45:00	0.2682	13.507	208.5	0.694853402	0.883095050	0.016021194	0.165287707	0.050943277
2019-07-05T20:50:00	0.2697	13.491	208.3	0.699771162	0.890708191	0.016235467	0.167498319	0.051624609
2019-07-05T20:55:00	0.2690	13.476	208.3	0.697544465	0.887258462	0.016138261	0.166495459	0.051315517
2019-07-05T21:00:00	0.2703	13.459	208.2	0.701809908	0.893870509	0.016324739	0.168419323	0.051908471
2019-07-05T21:05:00	0.2702	13.441	208.1	0.701207009	0.892934971	0.016298312	0.168146685	0.051824441
2019-07-05T21:10:00	0.2691	13.420	208.0	0.697682402	0.887472037	0.016144273	0.166557491	0.051334636
2019-07-05T21:15:00	0.2700	13.400	207.9	0.700649953	0.892070849	0.016273915	0.167894985	0.051746865
2019-07-05T21:20:00	0.2700	13.379	207.8	0.700695893	0.892142103	0.016275927	0.167915735	0.051753260
2019-07-05T21:25:00	0.2702	13.358	207.6	0.701390740	0.893220039	0.016306363	0.168229746	0.051850041
2019-07-05T21:30:00	0.2710	13.336	207.5	0.704031122	0.897319968	0.016422296	0.169425802	0.052218678
2019-07-05T21:35:00	0.2736	13.315	207.4	0.712496282	0.910505389	0.016796917	0.173290691	0.053409874
2019-07-05T21:40:00	0.2715	13.292	207.3	0.705419426	0.899478128	0.016483428	0.170056484	0.052413060
2019-07-05T21:45:00	0.2730	13.270	207.2	0.710323090	0.907114447	0.016700316	0.172294078	0.053102708
2019-07-05T21:50:00	0.2727	13.246	207.0	0.709397878	0.905672040	0.016659279	0.171870707	0.052972221
2019-07-05T21:55:00	0.2701	13.224	206.9	0.701017462	0.892640910	0.016290009	0.168061018	0.051798038
2019-07-05T22:00:00	0.2727	13.201	206.9	0.709489540	0.905814909	0.016663342	0.171912626	0.052985141
2019-07-05T22:05:00	0.2709	13.180	206.7	0.703508794	0.896508427	0.016399327	0.169188839	0.052145643
2019-07-05T22:10:00	0.2734	13.158	193.4	0.711780369	0.909387858	0.016765061	0.172962041	0.053308581
2019-07-05T22:15:00	0.2735	13.136	206.5	0.711954890	0.909660242	0.016772823	0.173042127	0.053333264
2019-07-05T22:20:00	0.2726	13.116	206.4	0.709216929	0.905390028	0.016651259	0.171787970	0.052946721
2019-07-05T22:25:00	0.2743	13.093	193.0	0.714567471	0.913741004	0.016889259	0.174243367	0.053703498
2019-07-05T22:30:00	0.2759	13.072	192.9	0.719910278	0.922104842	0.017128705	0.176713691	0.054464876
2019-07-05T22:35:00	0.2757	13.049	205.9	0.719115933	0.920859765	0.017092992	0.176345244	0.054351317
2019-07-05T22:40:00	0.2761	13.029	192.7	0.720581302	0.923157053	0.017158905	0.177025255	0.054560903
2019-07-05T22:45:00	0.2752	13.007	205.7	0.717526731	0.918370464	0.017021661	0.175609340	0.054124504
2019-07-05T22:50:00	0.2778	12.986	205.6	0.725767026	0.931301908	0.017393245	0.179442906	0.055306046
2019-07-05T22:55:00	0.2772	12.964	205.5	0.724006729	0.928534492	0.017313508	0.178620276	0.055052504
2019-07-05T23:00:00	0.2765	12.944	205.3	0.721600345	0.924755735	0.017204821	0.177498969	0.054706906
2019-07-05T23:05:00	0.2754	12.920	205.2	0.718223682	0.919461885	0.017052924	0.175931872	0.054223912
2019-07-05T23:10:00	0.2763	12.902	205.1	0.720980458	0.923783144	0.017176882	0.177210727	0.054618067
2019-07-05T23:15:00	0.2768	12.879	204.9	0.722767656	0.926588136	0.017257499	0.178042433	0.054874407
2019-07-05T23:20:00	0.2751	12.855	204.8	0.717131446	0.917751638	0.017003944	0.175426551	0.054068167
2019-07-05T23:25:00	0.2774	12.836	204.7	0.724727912	0.929667958	0.017346153	0.178957059	0.055156304
2019-07-05T23:30:00	0.2768	12.812	204.5	0.722644574	0.926394870	0.017251940	0.177985088	0.054856733
2019-07-05T23:35:00	0.2780	12.792	204.4	0.726687134	0.932749518	0.017435001	0.179873696	0.055438820
2019-07-05T23:40:00	0.2777	12.771	191.2	0.725571945	0.930995082	0.017384399	0.179351641	0.055277917
2019-07-05T23:45:00	0.2770	12.748	191.1	0.723489080	0.927721198	0.017290097	0.178378749	0.054978063
2019-07-05T23:50:00	0.2778	12.727	191.0	0.725919681	0.931542030	0.017400169	0.179514340	0.055328063
2019-07-05T23:55:00	0.2777	12.708	190.9	0.725448956	0.930801659	0.017378823	0.179294115	0.055260187
2019-07-06T00:00:00	0.2779	12.686	203.8	0.726267385	0.932089033	0.017415946	0.179677103	0.055378228
2019-07-06T00:05:00	0.2769	12.666	190.6	0.722894972	0.926788065	0.017263249	0.178101761	0.054892692
2019-07-06T00:10:00	0.2771	12.646	190.5	0.723713965	0.928074493	0.017300266	0.178483655	0.055010396
2019-07-06T00:15:00	0.2790	12.626	190.4	0.729687570	0.937475275	0.017571537	0.181282313	0.055872969
2019-07-06T00:20:00	0.2786	12.605	190.3	0.728573282	0.935719324	0.017520765	0.180758504	0.055711526
2019-07-06T00:25:00	0.2775	12.584	190.1	0.724880610	0.929908008	0.017353069	0.179028410	0.055178295
2019-07-06T00:30:00	0.2792	12.563	190.0	0.730530477	0.938804294	0.017609996	0.181679087	0.055995259
2019-07-06T00:35:00	0.2776	12.542	189.9	0.725228411	0.930454848	0.017368827	0.179190984	0.055228402
2019-07-06T00:40:00	0.2775	12.522	189.8	0.725079963	0.930221433	0.017362100	0.179121585	0.055207012
2019-07-06T00:45:00	0.2792	12.505	189.7	0.730407652	0.938610595	0.017604390	0.181621242	0.055977431
2019-07-06T00:50:00	0.2796	12.487	202.5	0.731868570	0.940915359	0.017671141	0.182309906	0.056189684
2019-07-06T00:55:00	0.2791	12.470	202.4	0.730111162	0.938143079	0.017590859	0.181481649	0.055934407
2019-07-06T01:00:00	0.2804	12.453	202.3	0.734145612	0.944511388	0.017775452	0.183386058	0.056521364
2019-07-06T01:05:00	0.2808	12.435	202.2	0.735605065	0.946818631	0.017842481	0.184077588	0.056734500
2019-07-06T01:10:00	0.2804	12.419	189.1	0.734170998	0.944551504	0.017776616	0.183398075	0.056525068
2019-07-06T01:15:00	0.2795	12.404	202.0	0.731449406	0.940253889	0.017651975	0.182112174	0.056128741
2019-07-06T01:20:00	0.2801	12.389	201.9	0.733231574	0.943067342	0.017733541	0.182953669	0.056388098
2019-07-06T01:25:00	0.2822	12.376	201.8	0.740153198	0.954020779	0.018052231	0.186241542	0.057401452
2019-07-06T01:30:00	0.2816	12.362	201.6	0.738078482	0.950733126	0.017956387	0.185252737	0.057096693
2019-07-06T01:35:00	0.2817	12.349	201.6	0.738572968	0.951516359	0.017979206	0.185488153	0.057169250
2019-07-06T01:40:00	0.2811	12.337	201.5	0.736497373	0.948230201	0.017883529	0.184501073	0.056865023
2019-07-06T01:45:00	0.2816	12.326	201.4	0.738277128	0.951047742	0.017965552	0.185347290	0.057125835
2019-07-06T01:50:00	0.2828	12.313	201.3	0.741981876	0.956921697	0.018136935	0.187115420	0.057670790
2019-07-06T01:55:00	0.2828	12.302	201.2	0.742154984	0.957196459	0.018144965	0.187198257	0.057696321
2019-07-06T02:00:00	0.2816	12.290	201.2	0.738154558	0.950853611	0.017959897	0.185288945	0.057107852
2019-07-06T02:05:00	0.2811	12.278	188.2	0.736400114	0.948076311	0.017879053	0.184454890	0.056850788
2019-07-06T02:10:00	0.2828	12.268	201.0	0.742032541	0.957002111	0.018139285	0.187139663	0.057678261
2019-07-06T02:15:00	0.2823	12.256	200.9	0.740279920	0.954221709	0.018058094	0.186302029	0.057420095
2019-07-06T02:20:00	0.2806	12.246	200.8	0.734991734	0.945848791	0.017814296	0.183786805	0.056644878
2019-07-06T02:25:00	0.2813	12.236	187.8	0.737093533	0.949173676	0.017910982	0.184784298	0.056952315
2019-07-06T02:30:00	0.2823	12.227	187.9	0.740478450	0.954536526	0.018067281	0.186396812	0.057449308
2019-07-06T02:35:00	0.2818	12.215	187.6	0.738725099	0.951757367	0.017986229	0.185560612	0.057191583
2019-07-06T02:40:00	0.2832	12.204	187.5	0.743391836	0.959160395	0.018202390	0.187790698	0.057878917
2019-07-06T02:45:00	0.2825	12.192	187.4	0.740997958	0.955360495	0.018091334	0.186644959	0.057525789
2019-07-06T02:50:00	0.2828	12.180	187.3	0.742133868	0.957162942	0.018143985	0.187188152	0.057693206
2019-07-06T02:55:00	0.2838	12.169	187.3	0.745193620	0.962023773	0.018286217	0.188655528	0.058145466
2019-07-06T03:00:00	0.2829	12.158	187.2	0.742480062	0.957712503	0.018160048	0.187353869	0.057744282
2019-07-06T03:05:00	0.2842	12.147	187.1	0.746501164	0.964103503	0.018347179	0.189284462	0.058339310
2019-07-06T03:10:00	0.2843	12.135	187.0	0.746674062	0.964378622	0.018355248	0.189367711	0.058364968
2019-07-06T03:15:00	0.2848	12.124	187.0	0.748448978	0.967204422	0.018438194	0.190223449	0.058628714
2019-07-06T03:20:00	0.2870	12.114	186.8	0.755342517	0.978205870	0.018762247	0.193566649	0.059659121
2019-07-06T03:25:00	0.2848	12.105	186.7	0.748474267	0.967244704	0.018439377	0.190235657	0.058632477
2019-07-06T03:30:00	0.2851	12.097	186.6	0.749287659	0.968540634	0.018477457	0.190628521	0.058753561
2019-07-06T03:35:00	0.2851	12.090	186.6	0.749460429	0.968815973	0.018485551	0.190712024	0.058779298
2019-07-06T03:40:00	0.2849	12.082	186.5	0.748672362	0.967560263	0.018448647	0.190331295	0.058661954
2019-07-06T03:45:00	0.2848	12.074	186.6	0.748524844	0.967325268	0.018441744	0.190260072	0.058640002
2019-07-06T03:50:00	0.2839	12.068	186.5	0.745493125	0.962500021	0.018300171	0.188799492	0.058189837
2019-07-06T03:55:00	0.2851	12.059	186.5	0.749510993	0.968896560	0.018487920	0.190736466	0.058786831
2019-07-06T04:00:00	0.2856	12.052	186.3	0.750964458	0.971214023	0.018556092	0.191439776	0.059003598
2019-07-06T04:05:00	0.2839	12.044	186.2	0.745691378	0.962815310	0.018309411	0.188894819	0.058219218
2019-07-06T04:10:00	0.2848	12.038	186.2	0.748427898	0.967170845	0.018437208	0.190213274	0.058625578
2019-07-06T04:15:00	0.2837	12.032	186.1	0.744754850	0.961326220	0.018265784	0.188444729	0.058080496
2019-07-06T04:20:00	0.2817	12.027	186.1	0.738509560	0.951415913	0.017976279	0.185457957	0.057159943
2019-07-06T04:25:00	0.2799	12.025	198.7	0.732575513	0.942031314	0.017703491	0.182643652	0.056292548
2019-07-06T04:30:00	0.2807	12.022	198.7	0.735321660	0.946370451	0.017829454	0.183943194	0.056693079
2019-07-06T04:35:00	0.2820	12.018	186.0	0.739350473	0.952748309	0.018015116	0.185858632	0.057283435
2019-07-06T04:40:00	0.2807	12.015	185.9	0.735347037	0.946410581	0.017830621	0.183955226	0.056696787
2019-07-06T04:45:00	0.2844	12.010	198.6	0.747074642	0.965016132	0.018373951	0.189560662	0.058424437
2019-07-06T04:50:00	0.2836	12.006	185.9	0.744683121	0.961212202	0.018262445	0.188410280	0.058069878
2019-07-06T04:55:00	0.2832	12.001	198.5	0.743252539	0.958939145	0.018195917	0.187723925	0.057858337
2019-07-06T05:00:00	0.2843	12.000	185.8	0.746952361	0.964821509	0.018368240	0.189501750	0.058406280
2019-07-06T05:05:00	0.2834	12.002	198.4	0.743919367	0.959998446	0.018226911	0.188043685	0.057956890
2019-07-06T05:10:00	0.2831	12.002	185.7	0.742809326	0.958235288	0.018175333	0.187511556	0.057792883
2019-07-06T05:15:00	0.2847	12.004	198.4	0.748111755	0.966667324	0.018422419	0.190060705	0.058578555
2019-07-06T05:20:00	0.2846	12.009	185.7	0.747643824	0.965922210	0.018400542	0.189835005	0.058508992
2019-07-06T05:25:00	0.2833	12.012	185.7	0.743649272	0.959569334	0.018214354	0.187914133	0.057916961
2019-07-06T05:30:00	0.2846	12.018	185.7	0.747669118	0.965962482	0.018401725	0.189847201	0.058512751
2019-07-06T05:35:00	0.2836	12.026	185.7	0.744636706	0.961138424	0.018260285	0.188387990	0.058063008
2019-07-06T05:40:00	0.2841	12.028	198.4	0.746092063	0.963452641	0.018328094	0.189087563	0.058278623
2019-07-06T05:45:00	0.2847	12.033	185.4	0.748187628	0.966788158	0.018425968	0.190097315	0.058589839
2019-07-06T05:50:00	0.2838	12.039	185.7	0.745155636	0.961963379	0.018284447	0.188637274	0.058139840
2019-07-06T05:55:00	0.2821	12.047	185.7	0.739874357	0.953578699	0.018039334	0.186108483	0.057360442
2019-07-06T06:00:00	0.2848	12.056	185.7	0.748385738	0.967103691	0.018435235	0.190192924	0.058619306
2019-07-06T06:05:00	0.2833	12.065	185.8	0.743750555	0.959730240	0.018219062	0.187962708	0.057931932
2019-07-06T06:10:00	0.2839	12.077	185.8	0.745526858	0.962553665	0.018301743	0.188815710	0.058194836
2019-07-06T06:15:00	0.2834	12.086	185.8	0.743775876	0.959770467	0.018220240	0.187974853	0.057935675
2019-07-06T06:20:00	0.2839	12.099	198.5	0.745552167	0.962593913	0.018302923	0.188827879	0.058198586
2019-07-06T06:25:00	0.2841	12.107	198.5	0.746045665	0.963378832	0.018325930	0.189065238	0.058271743
2019-07-06T06:30:00	0.2839	12.121	185.9	0.745577475	0.962634161	0.018304102	0.188840047	0.058202337
2019-07-06T06:35:00	0.2849	12.136	186.0	0.748634413	0.967499808	0.018446871	0.190312972	0.058656306
2019-07-06T06:40:00	0.2830	12.152	186.0	0.742716448	0.958087812	0.018171020	0.187467069	0.057779171
2019-07-06T06:45:00	0.2841	12.169	186.1	0.746096275	0.963459340	0.018328290	0.189089589	0.058279248
2019-07-06T06:50:00	0.2828	12.189	186.2	0.742100069	0.957109293	0.018142417	0.187171976	0.057688221
2019-07-06T06:55:00	0.2826	12.211	186.3	0.741310449	0.955856239	0.018105810	0.186794308	0.057571820
2019-07-06T07:00:00	0.2813	12.236	186.4	0.737309117	0.949514933	0.017920915	0.184886775	0.056983900
2019-07-06T07:05:00	0.2816	12.262	186.5	0.738124942	0.950806707	0.017958531	0.185274850	0.057103508
2019-07-06T07:10:00	0.2827	12.293	186.6	0.741829842	0.956680405	0.018129885	0.187042683	0.057648372
2019-07-06T07:15:00	0.2819	12.352	186.9	0.739113838	0.952373306	0.018004183	0.185745834	0.057248670
2019-07-06T07:20:00	0.2828	12.408	187.1	0.741855175	0.956720610	0.018131060	0.187054802	0.057652107
2019-07-06T07:25:00	0.2815	12.463	187.4	0.737854428	0.950378310	0.017946053	0.185146122	0.057063833
2019-07-06T07:30:00	0.2810	12.505	187.5	0.736099843	0.947601250	0.017865236	0.184312343	0.056806854
2019-07-06T07:35:00	0.2806	12.548	187.7	0.734987473	0.945842055	0.017814100	0.183784786	0.056644256
2019-07-06T07:40:00	0.2821	12.593	187.9	0.739658884	0.953237132	0.018029371	0.186005698	0.057328763
2019-07-06T07:45:00	0.2819	12.618	188.0	0.739189893	0.952493828	0.018007696	0.185782083	0.057259842
2019-07-06T07:50:00	0.2813	12.647	188.1	0.737114641	0.949207086	0.017911954	0.184794330	0.056955407
2019-07-06T07:55:00	0.2801	12.703	188.3	0.733430443	0.943381463	0.017742655	0.183047698	0.056417078
2019-07-06T08:00:00	0.2814	12.714	188.5	0.737461300	0.949755854	0.017927928	0.184959133	0.057006201
2019-07-06T08:05:00	0.2794	12.730	188.5	0.731203776	0.939866338	0.017640749	0.181996355	0.056093044
2019-07-06T08:10:00	0.2788	12.765	201.6	0.729124067	0.936587143	0.017545852	0.181017318	0.055791295
2019-07-06T08:15:00	0.2803	12.808	188.8	0.734124415	0.944477891	0.017774479	0.183376024	0.056518272
2019-07-06T08:20:00	0.2791	12.843	189.0	0.730115355	0.938149690	0.017591050	0.181483623	0.055935015
2019-07-06T08:25:00	0.2800	12.872	189.2	0.732863317	0.942485757	0.017716670	0.182779617	0.056334453
2019-07-06T08:30:00	0.2791	12.910	189.4	0.730140769	0.938189760	0.017592210	0.181495585	0.055938702
2019-07-06T08:35:00	0.2791	12.956	189.6	0.729992516	0.937956014	0.017585446	0.181425804	0.055917195
2019-07-06T08:40:00	0.2797	13.014	202.8	0.732097139	0.941276121	0.017681597	0.182417777	0.056222931
2019-07-06T08:45:00	0.2798	13.069	203.0	0.732270706	0.941550103	0.017689539	0.182499714	0.056248184
2019-07-06T08:50:00	0.2799	13.138	203.4	0.732765964	0.942332028	0.017712211	0.182733620	0.056320276
2019-07-06T08:55:00	0.2810	13.186	203.6	0.736154810	0.947688208	0.017867765	0.184338433	0.056814895
2019-07-06T09:00:00	0.2794	13.249	204.0	0.731182598	0.939832927	0.017639781	0.181986372	0.056089967
2019-07-06T09:05:00	0.2805	13.322	204.2	0.734572885	0.945186668	0.017795061	0.183588368	0.056583718
2019-07-06T09:10:00	0.2796	13.326	204.3	0.731851587	0.940888556	0.017670364	0.182301893	0.056187214
2019-07-06T09:15:00	0.2807	13.362	204.5	0.735241265	0.946243327	0.017825760	0.183905079	0.056681332
2019-07-06T09:20:00	0.2801	13.475	204.9	0.733485450	0.943468354	0.017745176	0.183073711	0.056425096
2019-07-06T09:25:00	0.2800	13.526	205.3	0.733015681	0.942726370	0.017723649	0.182851619	0.056356645
2019-07-06T09:30:00	0.2800	13.585	205.6	0.732867543	0.942492431	0.017716863	0.182781614	0.056335069
2019-07-06T09:35:00	0.2795	13.617	205.8	0.731432421	0.940227089	0.017651199	0.182104164	0.056126272
2019-07-06T09:40:00	0.2802	13.656	192.8	0.733536230	0.943548572	0.017747504	0.183097727	0.056432498
2019-07-06T09:45:00	0.2810	13.700	193.1	0.736281669	0.947888908	0.017873602	0.184398653	0.056833456
2019-07-06T09:50:00	0.2805	13.756	193.3	0.734526343	0.945113104	0.017792925	0.183566325	0.056576924
2019-07-06T09:55:00	0.2806	13.820	206.8	0.735021301	0.945895537	0.017815654	0.183800817	0.056649197
2019-07-06T10:00:00	0.2785	13.839	193.7	0.728115552	0.934998324	0.017499931	0.180543566	0.055645280
2019-07-06T10:05:00	0.2806	13.878	193.9	0.735049558	0.945940211	0.017816952	0.183814209	0.056653324
2019-07-06T10:10:00	0.2781	13.918	194.1	0.726858180	0.933018708	0.017442770	0.179953840	0.055463521
2019-07-06T10:15:00	0.2792	13.962	194.4	0.730577178	0.938877946	0.017612129	0.181701084	0.056002039
2019-07-06T10:20:00	0.2794	14.018	194.6	0.731075541	0.939664034	0.017634890	0.181935907	0.056074413
2019-07-06T10:25:00	0.2810	14.031	194.7	0.736076145	0.947563760	0.017864145	0.184301096	0.056803388
2019-07-06T10:30:00	0.2799	14.033	208.0	0.732715501	0.942252346	0.017709901	0.182709779	0.056312928
2019-07-06T10:35:00	0.2798	14.011	207.9	0.732248514	0.941515071	0.017688524	0.182489236	0.056244955
2019-07-06T10:40:00	0.2789	14.048	194.8	0.729528396	0.937224374	0.017564280	0.181207438	0.055849892
2019-07-06T10:45:00	0.2799	14.093	208.3	0.732601383	0.942072160	0.017704675	0.182655872	0.056296314
2019-07-06T10:50:00	0.2767	14.138	208.6	0.722469643	0.926120212	0.017244042	0.177903603	0.054831618
2019-07-06T10:55:00	0.2756	14.179	208.8	0.718773775	0.920323628	0.017077621	0.176186664	0.054302441
2019-07-06T11:00:00	0.2759	14.204	208.9	0.719919382	0.922119115	0.017129114	0.176717916	0.054466178
2019-07-06T11:05:00	0.2750	14.220	209.1	0.716867155	0.917337963	0.016992103	0.175304393	0.054030517
2019-07-06T11:10:00	0.2767	14.239	209.2	0.722532119	0.926218303	0.017246863	0.177932703	0.054840587
2019-07-06T11:15:00	0.2752	14.286	196.1	0.717544511	0.918398302	0.017022458	0.175617564	0.054127039
2019-07-06T11:20:00	0.2761	14.329	209.7	0.720304681	0.922723246	0.017146452	0.176896782	0.054521306
2019-07-06T11:25:00	0.2752	14.367	209.9	0.717575791	0.918447278	0.017023861	0.175632033	0.054131498
2019-07-06T11:30:00	0.2752	14.406	210.1	0.717429926	0.918218901	0.017017321	0.175564565	0.054110704
2019-07-06T11:35:00	0.2729	14.464	197.1	0.710170560	0.906876601	0.016693547	0.172224243	0.053081184
2019-07-06T11:40:00	0.2730	14.497	197.1	0.710348053	0.907153374	0.016701424	0.172305509	0.053106231
2019-07-06T11:45:00	0.2728	14.520	211.0	0.709878238	0.906420830	0.016680578	0.172090448	0.053039947
2019-07-06T11:50:00	0.2703	14.550	211.0	0.701630900	0.893592704	0.016316890	0.168338349	0.051883514
2019-07-06T11:55:00	0.2736	14.572	211.1	0.712498077	0.910508191	0.016796996	0.173291516	0.053410128
2019-07-06T12:00:00	0.2716	14.616	211.4	0.705877111	0.900189980	0.016503607	0.170264675	0.052477226
2019-07-06T12:05:00	0.2706	14.657	211.6	0.702488932	0.894924552	0.016354530	0.168726666	0.052003197
2019-07-06T12:10:00	0.2705	14.695	211.9	0.702342469	0.894697165	0.016348101	0.168660348	0.051982757
2019-07-06T12:15:00	0.2717	14.724	212.1	0.706086188	0.900515225	0.016512830	0.170359824	0.052506552
2019-07-06T12:20:00	0.2705	14.758	212.4	0.702373878	0.894745927	0.016349480	0.168674569	0.051987140
2019-07-06T12:25:00	0.2705	14.809	212.7	0.702227411	0.894518547	0.016343053	0.168608260	0.051966703
2019-07-06T12:30:00	0.2695	14.826	212.8	0.699160502	0.889761692	0.016208778	0.167222973	0.051539744
2019-07-06T12:35:00	0.2699	14.851	212.9	0.700312216	0.891547073	0.016259133	0.167742480	0.051699861
2019-07-06T12:40:00	0.2705	14.883	213.1	0.702436695	0.894843451	0.016352237	0.168703012	0.051995907
2019-07-06T12:45:00	0.2712	14.894	213.2	0.704559948	0.898141846	0.016445568	0.169665892	0.052292676
2019-07-06T12:50:00	0.2707	14.894	213.2	0.703116706	0.895899396	0.016382097	0.169011076	0.052090855
2019-07-06T12:55:00	0.2716	14.914	213.4	0.705887681	0.900206422	0.016504074	0.170269484	0.052478709
2019-07-06T13:00:00	0.2686	14.935	213.5	0.696007240	0.884879414	0.016071333	0.165804982	0.051102706
2019-07-06T13:05:00	0.2697	14.956	213.7	0.699757414	0.890686877	0.016234866	0.167492117	0.051622697
2019-07-06T13:10:00	0.2668	14.992	213.9	0.690185872	0.875888677	0.015819215	0.163203926	0.050301035
2019-07-06T13:15:00	0.2689	15.015	214.1	0.697191397	0.886711863	0.016122876	0.166336737	0.051266598
2019-07-06T13:20:00	0.2693	15.055	214.3	0.698343728	0.888496231	0.016173117	0.166855065	0.051426351
2019-07-06T13:25:00	0.2692	15.091	214.6	0.698197100	0.888269116	0.016166719	0.166789063	0.051406009
2019-07-06T13:30:00	0.2689	15.115	214.7	0.697076177	0.886533510	0.016117857	0.166284957	0.051250639
2019-07-06T13:35:00	0.2685	15.132	214.8	0.695954912	0.884798464	0.016069057	0.165781504	0.051095470
2019-07-06T13:40:00	0.2676	15.147	214.9	0.692882757	0.880050196	0.015935753	0.164406225	0.050671595
2019-07-06T13:45:00	0.2668	15.168	215.1	0.690458868	0.876309645	0.015830991	0.163325418	0.050338480
2019-07-06T13:50:00	0.2671	15.182	215.2	0.691288011	0.877588609	0.015866786	0.163694708	0.050452299
2019-07-06T13:55:00	0.2663	15.207	215.4	0.688537517	0.873348225	0.015748209	0.162471364	0.050075252
2019-07-06T14:00:00	0.2683	15.237	215.6	0.695221234	0.883663762	0.016037169	0.165452516	0.050994072
2019-07-06T14:05:00	0.2678	15.275	215.8	0.693449205	0.880925073	0.015960288	0.164659346	0.050749610
2019-07-06T14:10:00	0.2659	15.318	216.0	0.687445172	0.871665993	0.015701246	0.161986862	0.049925924
2019-07-06T14:15:00	0.2662	15.342	216.2	0.688274999	0.872943848	0.015736916	0.162354856	0.050039343
2019-07-06T14:20:00	0.2656	15.357	216.4	0.686499604	0.870210632	0.015660654	0.161568078	0.049796851
2019-07-06T14:25:00	0.2642	15.372	216.6	0.681789034	0.862971920	0.015459258	0.159490316	0.049156464
2019-07-06T14:30:00	0.2647	15.385	216.7	0.683598290	0.865749930	0.015536449	0.160286676	0.049401910
2019-07-06T14:35:00	0.2658	15.392	216.8	0.687035500	0.871035356	0.015683652	0.161805352	0.049869981
2019-07-06T14:40:00	0.2642	15.396	203.0	0.681673328	0.862794356	0.015454328	0.159439458	0.049140789
2019-07-06T14:45:00	0.2623	15.407	203.1	0.675649892	0.853566647	0.015198844	0.156803670	0.048328414
2019-07-06T14:50:00	0.2628	15.421	203.2	0.677135628	0.855839844	0.015261653	0.157451665	0.048528132
2019-07-06T14:55:00	0.2632	15.431	217.3	0.678620759	0.858114013	0.015324573	0.158100800	0.048728202
2019-07-06T15:00:00	0.2640	15.435	217.3	0.681084102	0.861890302	0.015429238	0.159180599	0.049061007
2019-07-06T15:05:00	0.2630	15.435	217.4	0.677999421	0.857162332	0.015298233	0.157829048	0.048644446
2019-07-06T15:10:00	0.2631	15.440	203.6	0.678178478	0.857436553	0.015305821	0.157907337	0.048668575
2019-07-06T15:15:00	0.2617	15.444	203.6	0.673784037	0.850714557	0.015120158	0.155991879	0.048078212
2019-07-06T15:20:00	0.2627	15.450	217.6	0.676903917	0.855485198	0.015251849	0.157350513	0.048496956
2019-07-06T15:25:00	0.2620	15.455	217.7	0.674796201	0.852261349	0.015162816	0.156431974	0.048213854
2019-07-06T15:30:00	0.2628	15.458	217.9	0.677262131	0.856033482	0.015267008	0.157506903	0.048545157
2019-07-06T15:35:00	0.2608	15.460	217.9	0.670577103	0.845819524	0.014985417	0.154601783	0.047649771
2019-07-06T15:40:00	0.2611	15.461	217.9	0.671737860	0.847590271	0.015034113	0.155104177	0.047804614
2019-07-06T15:45:00	0.2610	15.457	204.0	0.671263064	0.846865826	0.015014185	0.154898574	0.047741245
2019-07-06T15:50:00	0.2634	15.452	218.0	0.679284246	0.859130619	0.015352727	0.158391257	0.048817724
2019-07-06T15:55:00	0.2626	15.452	218.0	0.676524692	0.854904873	0.015235810	0.157185039	0.048445955
2019-07-06T16:00:00	0.2608	15.456	218.0	0.670819888	0.846189800	0.014995595	0.154706794	0.047682136
2019-07-06T16:05:00	0.2603	15.457	218.1	0.669241823	0.843783973	0.014929501	0.154024911	0.047471973
2019-07-06T16:10:00	0.2602	15.457	218.2	0.668645242	0.842875016	0.014904554	0.153767540	0.047392649
2019-07-06T16:15:00	0.2594	15.456	218.2	0.666083634	0.838975597	0.014797686	0.152665000	0.047052836
2019-07-06T16:20:00	0.2580	15.450	218.2	0.661552829	0.832092337	0.014609651	0.150725079	0.046454933
2019-07-06T16:25:00	0.2574	15.440	204.2	0.659642579	0.829195528	0.014530751	0.149911075	0.046204049
2019-07-06T16:30:00	0.2567	15.436	218.2	0.657402972	0.825803240	0.014438531	0.148959659	0.045910814
2019-07-06T16:35:00	0.2551	15.426	218.2	0.651874811	0.817448189	0.014212212	0.146624771	0.045191179
2019-07-06T16:40:00	0.2567	15.412	218.2	0.657191086	0.825482523	0.014429822	0.148869811	0.045883122
2019-07-06T16:45:00	0.2559	15.402	218.1	0.654621358	0.821595953	0.014324420	0.147782401	0.045547971
2019-07-06T16:50:00	0.2547	15.387	218.1	0.650734158	0.815727497	0.014165747	0.146145400	0.045043432
2019-07-06T16:55:00	0.2550	15.371	218.1	0.651779268	0.817304018	0.014208317	0.146584587	0.045178793
2019-07-06T17:00:00	0.2551	15.359	218.1	0.652166454	0.817888316	0.014224105	0.146747469	0.045228995
2019-07-06T17:05:00	0.2548	15.341	218.0	0.650909203	0.815991482	0.014172872	0.146218911	0.045066088
2019-07-06T17:10:00	0.2526	15.320	204.0	0.643723391	0.805175993	0.013881902	0.143217028	0.044140879
2019-07-06T17:15:00	0.2510	15.299	218.0	0.638504282	0.797348160	0.013672539	0.141057068	0.043475158
2019-07-06T17:20:00	0.2508	15.280	217.9	0.637902598	0.796447217	0.013648509	0.140809155	0.043398749
2019-07-06T17:25:00	0.2496	15.260	203.8	0.633997278	0.790606976	0.013493073	0.139205550	0.042904502
2019-07-06T17:30:00	0.2501	15.238	217.7	0.635708020	0.793163728	0.013561049	0.139906841	0.043120647
2019-07-06T17:35:00	0.2502	15.216	217.6	0.635766614	0.793251341	0.013563380	0.139930893	0.043128060
2019-07-06T17:40:00	0.2496	15.193	203.7	0.633842634	0.790375979	0.013486937	0.139142246	0.042884992
2019-07-06T17:45:00	0.2480	15.172	217.5	0.628609113	0.782570417	0.013280136	0.137008713	0.042227416
2019-07-06T17:50:00	0.2503	15.154	217.4	0.636272700	0.794008201	0.013583525	0.140138724	0.043192116
2019-07-06T17:55:00	0.2502	15.134	217.4	0.636000978	0.793601809	0.013572707	0.140027118	0.043157718
2019-07-06T18:00:00	0.2491	15.111	203.3	0.632093584	0.787764769	0.013417639	0.138427313	0.042664642
2019-07-06T18:05:00	0.2488	15.085	217.2	0.631160070	0.786372159	0.013380729	0.138046516	0.042547277
2019-07-06T18:10:00	0.2504	15.060	217.1	0.636507030	0.794358720	0.013592858	0.140235010	0.043221792
2019-07-06T18:15:00	0.2478	15.036	217.0	0.627968305	0.781616273	0.013254928	0.136748652	0.042147263
2019-07-06T18:20:00	0.2477	15.013	216.9	0.627695952	0.781210853	0.013244222	0.136638200	0.042113220
2019-07-06T18:25:00	0.2465	14.991	216.8	0.623779470	0.775387773	0.013090763	0.135054993	0.041625261
2019-07-06T18:30:00	0.2449	14.969	216.7	0.618199218	0.767113337	0.012873713	0.132815720	0.040935095
2019-07-06T18:35:00	0.2437	14.944	216.6	0.614272284	0.761306180	0.012722094	0.131251502	0.040452988
2019-07-06T18:40:00	0.2453	14.919	216.5	0.619644572	0.769253998	0.012929751	0.133393860	0.041113283
2019-07-06T18:45:00	0.2429	14.899	216.4	0.611730570	0.757554404	0.012624454	0.130244161	0.040142515
2019-07-06T18:50:00	0.2432	14.877	216.3	0.612787127	0.759113308	0.012664994	0.130662413	0.040271425
2019-07-06T18:55:00	0.2433	14.858	216.3	0.613178553	0.759691079	0.012680031	0.130817539	0.040319236
2019-07-06T19:00:00	0.2448	14.837	216.1	0.617888553	0.766653452	0.012861684	0.132691623	0.040896847
2019-07-06T19:05:00	0.2444	14.814	216.1	0.616619214	0.764775264	0.012812597	0.132185204	0.040740764
2019-07-06T19:10:00	0.2438	14.791	216.0	0.614684887	0.761915728	0.012737981	0.131415404	0.040503504
2019-07-06T19:15:00	0.2438	14.770	215.9	0.614743827	0.762002812	0.012740251	0.131438826	0.040510723
2019-07-06T19:20:00	0.2441	14.749	215.8	0.615799489	0.763563070	0.012780949	0.131858696	0.040640131
2019-07-06T19:25:00	0.2432	14.727	215.7	0.612534965	0.758741169	0.012655313	0.130562528	0.040240639
2019-07-06T19:30:00	0.2432	14.704	215.6	0.612593940	0.758828199	0.012657577	0.130585885	0.040247838
2019-07-06T19:35:00	0.2439	14.680	215.5	0.614979574	0.762351163	0.012749334	0.131532530	0.040539603
2019-07-06T19:40:00	0.2437	14.657	215.4	0.614373915	0.761456308	0.012726007	0.131291864	0.040465427
2019-07-06T19:45:00	0.2418	14.634	215.3	0.608113119	0.752224111	0.012486157	0.128817384	0.039702769
2019-07-06T19:50:00	0.2422	14.610	215.2	0.609503552	0.754271606	0.012539221	0.129364833	0.039871498
2019-07-06T19:55:00	0.2416	14.586	215.1	0.607232365	0.750927989	0.012452605	0.128471229	0.039596080
2019-07-06T20:00:00	0.2426	14.562	215.0	0.610619779	0.755916491	0.012581904	0.129805186	0.040007219
2019-07-06T20:05:00	0.2415	14.538	214.9	0.607017489	0.750611875	0.012444426	0.128386851	0.039570074
2019-07-06T20:10:00	0.2410	14.515	214.7	0.605411107	0.748249879	0.012383371	0.127756956	0.039375935
2019-07-06T20:15:00	0.2392	14.490	214.7	0.599468196	0.739530318	0.012158838	0.125440486	0.038661976
2019-07-06T20:20:00	0.2382	14.466	214.5	0.596188593	0.734731069	0.012035833	0.124171471	0.038270853
2019-07-06T20:25:00	0.2401	14.443	214.4	0.602255305	0.743615940	0.012263876	0.126524149	0.038995972
2019-07-06T20:30:00	0.2383	14.418	214.3	0.596307087	0.734904313	0.012040266	0.124217206	0.038284949
2019-07-06T20:35:00	0.2387	14.395	214.2	0.597702163	0.736944854	0.012092521	0.124756310	0.038451106
2019-07-06T20:40:00	0.2386	14.372	214.0	0.597427481	0.736542955	0.012082223	0.124650069	0.038418362
2019-07-06T20:45:00	0.2383	14.348	214.1	0.596484822	0.735164190	0.012046917	0.124285822	0.038306097
2019-07-06T20:50:00	0.2380	14.325	213.8	0.595207796	0.733297554	0.011999172	0.123793247	0.038154281
2019-07-06T20:55:00	0.2391	14.301	200.0	0.598940520	0.738757530	0.012139003	0.125235858	0.038598908
2019-07-06T21:00:00	0.2396	14.278	213.6	0.600668187	0.741288588	0.012204005	0.125906470	0.038805597
2019-07-06T21:05:00	0.2404	14.257	213.5	0.603395225	0.745288821	0.012306971	0.126968746	0.039133001
2019-07-06T21:10:00	0.2399	14.236	213.4	0.601787200	0.742929290	0.012246202	0.126341809	0.038939772
2019-07-06T21:15:00	0.2384	14.214	213.3	0.596840263	0.735683984	0.012060223	0.124423101	0.038348408
2019-07-06T21:20:00	0.2395	14.193	213.2	0.600237625	0.740657574	0.012187789	0.125739170	0.038754033
2019-07-06T21:25:00	0.2395	14.173	213.1	0.600296805	0.740744296	0.012190017	0.125762159	0.038761119
2019-07-06T21:30:00	0.2426	14.150	199.3	0.610683873	0.756010971	0.012584357	0.129830494	0.040015019
2019-07-06T21:35:00	0.2425	14.133	199.2	0.610410195	0.755607566	0.012573884	0.129722446	0.039981718
2019-07-06T21:40:00	0.2434	14.115	199.1	0.613462183	0.760109815	0.012690932	0.130930005	0.040353899
2019-07-06T21:45:00	0.2432	14.099	199.1	0.612523780	0.758724663	0.012654883	0.130558099	0.040239274
2019-07-06T21:50:00	0.2449	14.086	199.0	0.618230689	0.767159929	0.012874931	0.132828294	0.040938970
2019-07-06T21:55:00	0.2474	14.076	212.6	0.626578987	0.779548813	0.013200362	0.136185701	0.041973756
2019-07-06T22:00:00	0.2465	14.066	212.5	0.623655807	0.775204120	0.013085933	0.135005159	0.041609901
2019-07-06T22:05:00	0.2477	14.059	198.9	0.627683952	0.781192991	0.013243751	0.136633334	0.042111721
2019-07-06T22:10:00	0.2486	14.054	212.4	0.630715272	0.785708872	0.013363161	0.137865267	0.042491414
2019-07-06T22:15:00	0.2486	14.048	212.5	0.630437208	0.785294304	0.013352184	0.137752023	0.042456511
2019-07-06T22:20:00	0.2499	14.041	212.4	0.634788173	0.791788683	0.013524477	0.139529537	0.043004358
2019-07-06T22:25:00	0.2514	14.034	198.7	0.639793868	0.799280181	0.013724117	0.141589182	0.043639161
2019-07-06T22:30:00	0.2498	14.028	198.7	0.634563125	0.791452375	0.013515537	0.139437307	0.042975932
2019-07-06T22:35:00	0.2504	14.019	198.6	0.636597968	0.794494759	0.013596481	0.140272385	0.043233311
2019-07-06T22:40:00	0.2512	14.010	212.0	0.639291755	0.798527762	0.013704023	0.141381874	0.043575267
2019-07-06T22:45:00	0.2502	13.999	212.1	0.636042731	0.793664251	0.013574369	0.140044264	0.043163002
2019-07-06T22:50:00	0.2490	13.988	198.5	0.631798771	0.787324890	0.013405977	0.138306995	0.042627559
2019-07-06T22:55:00	0.2502	13.976	212.0	0.635817761	0.793327822	0.013565415	0.139951890	0.043134532
2019-07-06T23:00:00	0.2520	13.963	198.3	0.641811517	0.802305799	0.013805016	0.142423804	0.043896400
2019-07-06T23:05:00	0.2529	13.948	198.3	0.644830923	0.806840092	0.013926544	0.143677585	0.044282827
2019-07-06T23:10:00	0.2516	13.934	198.2	0.640597349	0.800484648	0.013756303	0.141921245	0.043741506
2019-07-06T23:15:00	0.2556	13.919	198.1	0.653821559	0.820387453	0.014291697	0.147444806	0.045443921
2019-07-06T23:20:00	0.2535	13.906	211.5	0.646635665	0.809554008	0.013999448	0.144429722	0.044514643
2019-07-06T23:25:00	0.2549	13.893	211.5	0.651295999	0.816574903	0.014188624	0.146381417	0.045116174
2019-07-06T23:30:00	0.2540	13.880	197.8	0.648387007	0.812190273	0.014070384	0.145161562	0.044740203
2019-07-06T23:35:00	0.2531	13.870	211.3	0.645475665	0.807809318	0.013952566	0.143946050	0.044365571
2019-07-06T23:40:00	0.2523	13.859	197.7	0.642891669	0.803926991	0.013848427	0.142871670	0.044034436
2019-07-06T23:45:00	0.2532	13.849	211.1	0.645910168	0.808462695	0.013970117	0.144127121	0.044421378
2019-07-06T23:50:00	0.2525	13.839	211.1	0.643326484	0.804579882	0.013865922	0.143052165	0.044090067
2019-07-06T23:55:00	0.2552	13.831	211.0	0.652268431	0.818042229	0.014228265	0.146790385	0.045242222
2019-07-07T00:00:00	0.2547	13.824	210.9	0.650676367	0.815640348	0.014163395	0.146121135	0.045035953
2019-07-07T00:05:00	0.2551	13.817	210.9	0.652044474	0.817704223	0.014219130	0.146696144	0.045213176
2019-07-07T00:10:00	0.2548	13.811	210.8	0.651110243	0.816294705	0.014181058	0.146303363	0.045092117
2019-07-07T00:15:00	0.2538	13.804	210.7	0.647871886	0.811414598	0.014049500	0.144946106	0.044673797
2019-07-07T00:20:00	0.2521	13.797	210.7	0.641993420	0.802578747	0.013812322	0.142499175	0.043919630
2019-07-07T00:25:00	0.2514	13.791	210.6	0.639736910	0.799194818	0.013721836	0.141565658	0.043631911
2019-07-07T00:30:00	0.2511	13.783	210.6	0.638799478	0.797790290	0.013684337	0.141178781	0.043512671
2019-07-07T00:35:00	0.2498	13.776	210.5	0.634558783	0.791445888	0.013515365	0.139435528	0.042975384
2019-07-07T00:40:00	0.2507	13.769	210.4	0.637584292	0.795970719	0.013635806	0.140678094	0.043358355
2019-07-07T00:45:00	0.2507	13.763	210.4	0.637636946	0.796049535	0.013637907	0.140699770	0.043365036
2019-07-07T00:50:00	0.2511	13.757	210.3	0.639010019	0.798105672	0.013692754	0.141265623	0.043539437
2019-07-07T00:55:00	0.2509	13.751	210.3	0.638072397	0.796701438	0.013655289	0.140879095	0.043420305
2019-07-07T01:00:00	0.2509	13.743	210.2	0.638125044	0.796780265	0.013657391	0.140900783	0.043426990
2019-07-07T01:05:00	0.2501	13.738	210.2	0.635535752	0.792906155	0.013554196	0.139836140	0.043098856
2019-07-07T01:10:00	0.2501	13.731	210.1	0.635588436	0.792984925	0.013556291	0.139857760	0.043105520
2019-07-07T01:15:00	0.2484	13.725	210.0	0.630020690	0.784673437	0.013335751	0.137582481	0.042404257
2019-07-07T01:20:00	0.2508	13.720	210.0	0.638005503	0.796601282	0.013652618	0.140851539	0.043411812
2019-07-07T01:25:00	0.2496	13.715	209.9	0.633763868	0.790258332	0.013483813	0.139110009	0.042875056
2019-07-07T01:30:00	0.2482	13.709	209.8	0.629186270	0.783430084	0.013302861	0.137243162	0.042299675
2019-07-07T01:35:00	0.2495	13.704	209.8	0.633538755	0.789922124	0.013474884	0.139017897	0.042846666
2019-07-07T01:40:00	0.2483	13.699	209.8	0.629622750	0.784080402	0.013320060	0.137420604	0.042354365
2019-07-07T01:45:00	0.2486	13.693	209.7	0.630668099	0.785638537	0.013361298	0.137846052	0.042485492
2019-07-07T01:50:00	0.2492	13.688	209.6	0.632705156	0.788677509	0.013441849	0.138677078	0.042741622
2019-07-07T01:55:00	0.2530	13.681	209.5	0.644970016	0.807049159	0.013932156	0.143735480	0.044300671
2019-07-07T02:00:00	0.2549	13.664	209.4	0.651277483	0.816546973	0.014187870	0.146373636	0.045113776
2019-07-07T02:05:00	0.2554	13.637	195.8	0.652974142	0.819107598	0.014257069	0.147087553	0.045333812
2019-07-07T02:10:00	0.2556	13.607	195.6	0.653684035	0.820179708	0.014286075	0.147386798	0.045426043
2019-07-07T02:15:00	0.2576	13.573	195.4	0.660304414	0.830198818	0.014558062	0.150192838	0.046290891
2019-07-07T02:20:00	0.2587	13.538	195.2	0.663963986	0.835753210	0.014709561	0.151755829	0.046772620
2019-07-07T02:25:00	0.2606	13.500	194.9	0.670238428	0.845303090	0.014971224	0.154455360	0.047604642
2019-07-07T02:30:00	0.2614	13.465	194.7	0.672580268	0.848876099	0.015069506	0.155469320	0.047917154
2019-07-07T02:35:00	0.2596	13.426	194.5	0.666741882	0.839977080	0.014825109	0.152947919	0.047140034
2019-07-07T02:40:00	0.2623	13.390	207.5	0.675626209	0.853530427	0.015197844	0.156793352	0.048325234
2019-07-07T02:45:00	0.2623	13.353	207.3	0.675678311	0.853610112	0.015200044	0.156816052	0.048332230
2019-07-07T02:50:00	0.2628	13.317	207.1	0.677363589	0.856188795	0.015271302	0.157551213	0.048558814
2019-07-07T02:55:00	0.2626	13.282	193.6	0.676762494	0.855268764	0.015245866	0.157288792	0.048477933
2019-07-07T03:00:00	0.2624	13.252	206.7	0.675834615	0.853849173	0.015206646	0.156884160	0.048353222
2019-07-07T03:05:00	0.2620	13.221	206.5	0.674579703	0.851930422	0.015153686	0.156337784	0.048184823
2019-07-07T03:10:00	0.2646	13.194	206.3	0.683118908	0.865013591	0.015515976	0.160075468	0.049336814
2019-07-07T03:15:00	0.2635	13.167	206.2	0.679582676	0.859588002	0.015365399	0.158521993	0.048858018
2019-07-07T03:20:00	0.2671	13.144	206.1	0.691364762	0.877707029	0.015870102	0.163728914	0.050462841
2019-07-07T03:25:00	0.2671	13.119	205.9	0.691416641	0.877787075	0.015872343	0.163752038	0.050469968
2019-07-07T03:30:00	0.2665	13.098	205.6	0.689190688	0.874354614	0.015776325	0.162761438	0.050164656
2019-07-07T03:35:00	0.2662	13.074	205.4	0.688265964	0.872929932	0.015736527	0.162350847	0.050038108
2019-07-07T03:40:00	0.2651	13.050	205.1	0.684734715	0.867496291	0.015585037	0.160787952	0.049556408
2019-07-07T03:45:00	0.2655	13.028	205.1	0.686090047	0.869580508	0.015643089	0.161386866	0.049740999
2019-07-07T03:50:00	0.2667	13.007	205.0	0.690049238	0.875678006	0.015813323	0.163143137	0.050282299
2019-07-07T03:55:00	0.2662	12.987	204.7	0.688473650	0.873249840	0.015745461	0.162443015	0.050066515
2019-07-07T04:00:00	0.2651	12.964	204.6	0.684616703	0.867314888	0.015579987	0.160735858	0.049540353
2019-07-07T04:05:00	0.2646	12.941	204.6	0.683082016	0.864956932	0.015514401	0.160059220	0.049331806
2019-07-07T04:10:00	0.2678	12.920	204.4	0.693595728	0.881151423	0.015966637	0.164724854	0.050769800
2019-07-07T04:15:00	0.2677	12.899	204.2	0.693365574	0.880795889	0.015956664	0.164621962	0.050738088
2019-07-07T04:20:00	0.2664	12.878	204.1	0.688905947	0.873915847	0.015764065	0.162634951	0.050125671
2019-07-07T04:25:00	0.2672	12.857	204.0	0.691604290	0.878076629	0.015880451	0.163835690	0.050495751
2019-07-07T04:30:00	0.2677	12.836	203.8	0.693325360	0.880733772	0.015954922	0.164603988	0.050732548
2019-07-07T04:35:00	0.2675	12.816	203.6	0.692444814	0.879373986	0.015916798	0.164210669	0.050611323
2019-07-07T04:40:00	0.2693	12.797	203.5	0.698388889	0.888566185	0.016175087	0.166875396	0.051432618
2019-07-07T04:45:00	0.2683	12.779	203.4	0.695235479	0.883685788	0.016037788	0.165458900	0.050996040
2019-07-07T04:50:00	0.2692	12.761	203.3	0.698253884	0.888357067	0.016169197	0.166814621	0.051413886
2019-07-07T04:55:00	0.2715	12.742	203.0	0.705485054	0.899580190	0.016486320	0.170086329	0.052422258
2019-07-07T05:00:00	0.2693	12.721	189.8	0.698443573	0.888650894	0.016177474	0.166900016	0.051440206
2019-07-07T05:05:00	0.2688	12.704	189.7	0.696914672	0.886283529	0.016110823	0.166212390	0.051228273
2019-07-07T05:10:00	0.2680	12.689	189.6	0.694085079	0.881907511	0.015987853	0.164943735	0.050837261
2019-07-07T05:15:00	0.2711	12.672	189.4	0.704243169	0.897649492	0.016431625	0.169522050	0.052248342
2019-07-07T05:20:00	0.2716	12.655	189.3	0.705958328	0.900316319	0.016507190	0.170301633	0.052488617
2019-07-07T05:25:00	0.2707	12.640	189.2	0.703135694	0.895928887	0.016382931	0.169019683	0.052093508
2019-07-07T05:30:00	0.2721	12.623	188.7	0.707443416	0.902627485	0.016572766	0.170978173	0.052697133
2019-07-07T05:35:00	0.2717	12.606	188.3	0.706242264	0.900758045	0.016519717	0.170430871	0.052528450
2019-07-07T05:40:00	0.2735	12.591	188.3	0.712164099	0.909986801	0.016782131	0.173138157	0.053362861
2019-07-07T05:45:00	0.2723	12.579	200.8	0.708051090	0.903573730	0.016599639	0.171255412	0.052782581
2019-07-07T05:50:00	0.2736	12.567	188.2	0.712353074	0.910281807	0.016790542	0.173224923	0.053389604
2019-07-07T05:55:00	0.2739	12.555	188.1	0.713417788	0.911944505	0.016837968	0.173714210	0.053540407
2019-07-07T06:00:00	0.2749	12.545	188.0	0.716421334	0.916640289	0.016972139	0.175098434	0.053967038
2019-07-07T06:05:00	0.2778	12.537	187.9	0.725873688	0.931469682	0.017398083	0.179492816	0.055321429
2019-07-07T06:10:00	0.2771	12.526	187.7	0.723711226	0.928070189	0.017300142	0.178482377	0.055010002
2019-07-07T06:15:00	0.2767	12.519	187.6	0.722515349	0.926191973	0.017246106	0.177924892	0.054838180
2019-07-07T06:20:00	0.2759	12.513	187.6	0.719705346	0.921783573	0.017119487	0.176618596	0.054435567
2019-07-07T06:25:00	0.2776	12.507	187.6	0.725283357	0.930541247	0.017371317	0.179216675	0.055236320
2019-07-07T06:30:00	0.2751	12.503	187.6	0.717310617	0.918032117	0.017011973	0.175509391	0.054093699
2019-07-07T06:35:00	0.2770	12.504	187.5	0.723214759	0.927290298	0.017277698	0.178250825	0.054938635
2019-07-07T06:40:00	0.2746	12.503	187.5	0.715560755	0.915294043	0.016933639	0.174701228	0.053844615
2019-07-07T06:45:00	0.2737	12.501	187.5	0.712745463	0.910894462	0.016808012	0.173405159	0.053445154
2019-07-07T06:50:00	0.2728	12.495	187.4	0.709928023	0.906498446	0.016682786	0.172113230	0.053046969
2019-07-07T06:55:00	0.2734	12.493	187.3	0.711640541	0.909169641	0.016758843	0.172897889	0.053288809
2019-07-07T07:00:00	0.2734	12.488	187.3	0.711735043	0.909317120	0.016763045	0.172941244	0.053302171
2019-07-07T07:05:00	0.2745	12.483	187.2	0.715386404	0.915021376	0.016925844	0.174620813	0.053819831
2019-07-07T07:10:00	0.2722	12.475	187.1	0.707716159	0.903052149	0.016584824	0.171102577	0.052735476
2019-07-07T07:15:00	0.2709	12.468	187.0	0.703598180	0.896647289	0.016403257	0.169229377	0.052158138
2019-07-07T07:20:00	0.2721	12.463	186.9	0.707581496	0.902842469	0.016578870	0.171041148	0.052716543
2019-07-07T07:25:00	0.2728	12.458	186.8	0.709618818	0.906016418	0.016669073	0.171971757	0.053003366
2019-07-07T07:30:00	0.2740	12.456	186.8	0.713595638	0.912222338	0.016845897	0.173796012	0.053565619
2019-07-07T07:35:00	0.2716	12.454	186.7	0.705921665	0.900259286	0.016505572	0.170284949	0.052483475
2019-07-07T07:40:00	0.2724	12.449	186.6	0.708607540	0.904440495	0.016624266	0.171509491	0.052860891
2019-07-07T07:45:00	0.2726	12.445	186.6	0.709025887	0.905092317	0.016642794	0.171700642	0.052919805
2019-07-07T07:50:00	0.2722	12.448	186.5	0.707825250	0.903222024	0.016589649	0.171152349	0.052750816
2019-07-07T07:55:00	0.2734	12.450	186.5	0.711804003	0.909424743	0.016766112	0.172972885	0.053311923
2019-07-07T08:00:00	0.2744	12.451	186.5	0.714808861	0.914118348	0.016900038	0.174354578	0.053737774
2019-07-07T08:05:00	0.2740	12.469	186.6	0.713610104	0.912244939	0.016846542	0.173802666	0.053567670
2019-07-07T08:10:00	0.2741	12.480	186.6	0.714027884	0.912897700	0.016865176	0.173994908	0.053626921
2019-07-07T08:15:00	0.2751	12.487	186.7	0.717353973	0.918099991	0.017013916	0.175529440	0.054099878
2019-07-07T08:20:00	0.2747	12.498	186.7	0.715832899	0.915719701	0.016945809	0.174826786	0.053883313
2019-07-07T08:25:00	0.2746	12.513	186.8	0.715604131	0.915361883	0.016935578	0.174721237	0.053850782
2019-07-07T08:30:00	0.2755	12.542	186.9	0.718605903	0.920060621	0.017070082	0.176108888	0.054278470
2019-07-07T08:35:00	0.2753	12.564	186.9	0.717731382	0.918690901	0.017030838	0.175704014	0.054153684
2019-07-07T08:40:00	0.2763	12.550	186.9	0.721054144	0.923898738	0.017180202	0.177244977	0.054628623
2019-07-07T08:45:00	0.2759	12.546	186.9	0.719857410	0.922021958	0.017126327	0.176689156	0.054457314
2019-07-07T08:50:00	0.2778	12.554	186.9	0.726079777	0.931793877	0.017407433	0.179589273	0.055351158
2019-07-07T08:55:00	0.2765	12.569	186.9	0.721659584	0.924848697	0.017207492	0.177526527	0.054715400
2019-07-07T09:00:00	0.2761	12.595	187.0	0.720463045	0.922971590	0.017153580	0.176970326	0.054543973
2019-07-07T09:05:00	0.2766	12.624	187.1	0.722170692	0.925650895	0.017230549	0.177764394	0.054788713
2019-07-07T09:10:00	0.2746	12.647	187.3	0.715484215	0.915174338	0.016930217	0.174665923	0.053833734
2019-07-07T09:15:00	0.2763	12.652	187.3	0.721068581	0.923921387	0.017180853	0.177251689	0.054630692
2019-07-07T09:20:00	0.2755	12.677	187.3	0.718580411	0.920020685	0.017068937	0.176097079	0.054274830
2019-07-07T09:25:00	0.2772	12.716	187.5	0.723837669	0.928268851	0.017305861	0.178541376	0.055028186
2019-07-07T09:30:00	0.2756	12.736	187.6	0.718769057	0.920316236	0.017077409	0.176184478	0.054301767
2019-07-07T09:35:00	0.2776	12.746	187.7	0.725315594	0.930591939	0.017372778	0.179231749	0.055240966
2019-07-07T09:40:00	0.2773	12.738	187.6	0.724442655	0.929219571	0.017333237	0.178823807	0.055115234
2019-07-07T09:45:00	0.2760	12.745	187.7	0.720020509	0.922277665	0.017133664	0.176764852	0.054480644
2019-07-07T09:50:00	0.2773	12.776	187.8	0.724308599	0.929008879	0.017327169	0.178761204	0.055095939
2019-07-07T09:55:00	0.2759	12.835	188.1	0.719886294	0.922067241	0.017127626	0.176702560	0.054461445
2019-07-07T10:00:00	0.2763	12.852	188.1	0.720948842	0.923733547	0.017175458	0.177196033	0.054613538
2019-07-07T10:05:00	0.2761	12.845	188.1	0.720397646	0.922869029	0.017150636	0.176939953	0.054534612
2019-07-07T10:10:00	0.2769	12.845	188.1	0.723073025	0.927067689	0.017271293	0.178184749	0.054918270
2019-07-07T10:15:00	0.2781	12.872	188.2	0.727035422	0.933297675	0.017450821	0.180036907	0.055489123
2019-07-07T10:20:00	0.2759	12.894	188.3	0.719712146	0.921794234	0.017119793	0.176621752	0.054436539
2019-07-07T10:25:00	0.2805	12.902	188.3	0.734626054	0.945270710	0.017797502	0.183613552	0.056591480
2019-07-07T10:30:00	0.2789	12.929	188.5	0.729572156	0.937293349	0.017566275	0.181228021	0.055856236
2019-07-07T10:35:00	0.2786	12.973	188.7	0.728378166	0.935411962	0.017511883	0.180666866	0.055683283
2019-07-07T10:40:00	0.2777	12.988	188.7	0.725572602	0.930996115	0.017384429	0.179351948	0.055278012
2019-07-07T10:45:00	0.2776	13.017	188.9	0.725344435	0.930637293	0.017374085	0.179245235	0.055245122
2019-07-07T10:50:00	0.2774	13.049	189.0	0.724793892	0.929771680	0.017349141	0.178987888	0.055165805
2019-07-07T10:55:00	0.2756	13.077	189.2	0.718758012	0.920298931	0.017076913	0.176179360	0.054300190
2019-07-07T11:00:00	0.2766	13.077	189.2	0.722079854	0.925508306	0.017226450	0.177722106	0.054775679
2019-07-07T11:05:00	0.2779	13.085	189.2	0.726365565	0.932243508	0.017420402	0.179723077	0.055392398
2019-07-07T11:10:00	0.2775	13.087	189.2	0.724848187	0.929857036	0.017351600	0.179013259	0.055173625
2019-07-07T11:15:00	0.2770	13.092	189.2	0.723330188	0.927471605	0.017282915	0.178304647	0.054955224
2019-07-07T11:20:00	0.2776	13.094	189.3	0.725358856	0.930659970	0.017374739	0.179251979	0.055247201
2019-07-07T11:25:00	0.2764	13.121	202.4	0.721260500	0.924222483	0.017189501	0.177340913	0.054658192
2019-07-07T11:30:00	0.2767	13.148	189.6	0.722322655	0.925889449	0.017237407	0.177835150	0.054810520
2019-07-07T11:35:00	0.2758	13.177	202.7	0.719512505	0.921481294	0.017110816	0.176529138	0.054407995
2019-07-07T11:40:00	0.2739	13.211	189.9	0.713468001	0.912022945	0.016840206	0.173737303	0.053547524
2019-07-07T11:45:00	0.2739	13.219	189.9	0.713239087	0.911665370	0.016830003	0.173632037	0.053515080
2019-07-07T11:50:00	0.2752	13.216	202.8	0.717535036	0.918383466	0.017022033	0.175613181	0.054125688
2019-07-07T11:55:00	0.2721	13.230	202.9	0.707602809	0.902875654	0.016579813	0.171050870	0.052719539
2019-07-07T12:00:00	0.2737	13.261	203.0	0.712552259	0.910592788	0.016799409	0.173316402	0.053417798
2019-07-07T12:05:00	0.2728	13.275	203.2	0.709734672	0.906197016	0.016674211	0.172024758	0.053019701
2019-07-07T12:10:00	0.2719	13.275	203.2	0.706914931	0.901804810	0.016549414	0.170737255	0.052622880
2019-07-07T12:15:00	0.2716	13.293	203.2	0.706037636	0.900439693	0.016510688	0.170337726	0.052499741
2019-07-07T12:20:00	0.2712	13.328	203.5	0.704511890	0.898067145	0.016443452	0.169644066	0.052285949
2019-07-07T12:25:00	0.2723	13.355	203.6	0.708170404	0.903759559	0.016604918	0.171309875	0.052799367
2019-07-07T12:30:00	0.2705	13.378	203.7	0.702431626	0.894835581	0.016352014	0.168700717	0.051995199
2019-07-07T12:35:00	0.2694	13.386	203.8	0.698632407	0.888943427	0.016185716	0.166985048	0.051466414
2019-07-07T12:40:00	0.2688	13.398	203.8	0.696778766	0.886073190	0.016104905	0.166151339	0.051209456
2019-07-07T12:45:00	0.2690	13.431	204.0	0.697523241	0.887225600	0.016137335	0.166485915	0.051312576
2019-07-07T12:50:00	0.2687	13.454	204.1	0.696643702	0.885864169	0.016099025	0.166090678	0.051190760
2019-07-07T12:55:00	0.2691	13.464	204.2	0.697712968	0.887519366	0.016145606	0.166571238	0.051338873
2019-07-07T13:00:00	0.2687	13.462	204.2	0.696508633	0.885655156	0.016093147	0.166030026	0.051172067
2019-07-07T13:05:00	0.2675	13.470	204.2	0.692703277	0.879773047	0.015927983	0.164326066	0.050646890
2019-07-07T13:10:00	0.2688	13.481	191.3	0.696698413	0.885948836	0.016101407	0.166115249	0.051198333
2019-07-07T13:15:00	0.2669	13.486	204.3	0.690616309	0.876552454	0.015837785	0.163395506	0.050360082
2019-07-07T13:20:00	0.2684	13.485	204.4	0.695588662	0.884231965	0.016053135	0.165617231	0.051044839
2019-07-07T13:25:00	0.2666	13.493	204.4	0.689504714	0.874838588	0.015789852	0.162900995	0.050207669
2019-07-07T13:30:00	0.2673	13.500	191.5	0.691877363	0.878498053	0.015892255	0.163957466	0.050533283
2019-07-07T13:35:00	0.2662	13.493	204.4	0.688392782	0.873125271	0.015741982	0.162407124	0.050055453
2019-07-07T13:40:00	0.2666	13.493	191.4	0.689789925	0.875278226	0.015802143	0.163027800	0.050246751
2019-07-07T13:45:00	0.2655	13.491	204.5	0.685977577	0.869407492	0.015638267	0.161337121	0.049725668
2019-07-07T13:50:00	0.2689	13.489	204.5	0.697132647	0.886620920	0.016120316	0.166310333	0.051258460
2019-07-07T13:55:00	0.2673	13.495	191.5	0.692027155	0.878729248	0.015898732	0.164024284	0.050553877
2019-07-07T14:00:00	0.2659	13.492	191.5	0.687240231	0.871350495	0.015692444	0.161896047	0.049897934
2019-07-07T14:05:00	0.2636	13.510	191.8	0.679837244	0.859978222	0.015376213	0.158633559	0.048892403
2019-07-07T14:10:00	0.2646	13.534	191.9	0.683194427	0.865129577	0.015519201	0.160108731	0.049347066
2019-07-07T14:15:00	0.2659	13.559	192.0	0.687525618	0.871789846	0.015704702	0.162022517	0.049936913
2019-07-07T14:20:00	0.2655	13.592	205.6	0.685992152	0.869429914	0.015638892	0.161343568	0.049727654
2019-07-07T14:25:00	0.2660	13.610	192.3	0.687715864	0.872082767	0.015712877	0.162106854	0.049962907
2019-07-07T14:30:00	0.2658	13.603	192.3	0.687159668	0.871226481	0.015688984	0.161860354	0.049886933
2019-07-07T14:35:00	0.2641	13.601	192.3	0.681387890	0.862356368	0.015442171	0.159314031	0.049102132
2019-07-07T14:40:00	0.2650	13.612	192.4	0.684417731	0.867009066	0.015571476	0.160648048	0.049513289
2019-07-07T14:45:00	0.2656	13.604	192.3	0.686467948	0.870161923	0.015659296	0.161554067	0.049792533
2019-07-07T14:50:00	0.2657	13.595	192.3	0.686563099	0.870308337	0.015663378	0.161596181	0.049805513
2019-07-07T14:55:00	0.2647	13.586	192.5	0.683399484	0.865444537	0.015527957	0.160199068	0.049374908
2019-07-07T15:00:00	0.2646	13.581	205.4	0.683168688	0.865090045	0.015518102	0.160097394	0.049343572
2019-07-07T15:05:00	0.2653	13.573	192.3	0.685545450	0.868742841	0.015619749	0.161146070	0.049666784
2019-07-07T15:10:00	0.2648	13.564	192.3	0.683685171	0.865883403	0.015540160	0.160324970	0.049413713
2019-07-07T15:15:00	0.2660	13.555	192.3	0.687690156	0.872043184	0.015711772	0.162095457	0.049959394
2019-07-07T15:20:00	0.2646	13.534	205.3	0.683223600	0.865174384	0.015520446	0.160121581	0.049351026
2019-07-07T15:25:00	0.2644	13.527	205.4	0.682340618	0.863818547	0.015482770	0.159732879	0.049231225
2019-07-07T15:30:00	0.2642	13.522	205.3	0.681783603	0.862963586	0.015459027	0.159487929	0.049155729
2019-07-07T15:35:00	0.2644	13.516	192.2	0.682531134	0.864111031	0.015490895	0.159816705	0.049257061
2019-07-07T15:40:00	0.2623	13.511	192.2	0.675772043	0.853753468	0.015204003	0.156856892	0.048344818
2019-07-07T15:45:00	0.2635	13.505	205.4	0.679459359	0.859398993	0.015360162	0.158467963	0.048841365
2019-07-07T15:50:00	0.2641	13.495	205.4	0.681512361	0.862547353	0.015447472	0.159368720	0.049118987
2019-07-07T15:55:00	0.2631	13.484	192.2	0.678344363	0.857690626	0.015312853	0.157979883	0.048690934
2019-07-07T16:00:00	0.2634	13.481	205.3	0.679092599	0.858836935	0.015344592	0.158307330	0.048791857
2019-07-07T16:05:00	0.2637	13.459	205.2	0.680221964	0.860568055	0.015392564	0.158802243	0.048944394
2019-07-07T16:10:00	0.2645	13.443	205.2	0.682655566	0.864302079	0.015496203	0.159871467	0.049273939
2019-07-07T16:15:00	0.2646	13.435	192.1	0.683131796	0.865033385	0.015516527	0.160081145	0.049338563
2019-07-07T16:20:00	0.2645	13.424	205.2	0.682955899	0.864763252	0.015509018	0.160003683	0.049314689
2019-07-07T16:25:00	0.2642	13.405	205.0	0.681801631	0.862991253	0.015459795	0.159495853	0.049158171
2019-07-07T16:30:00	0.2619	13.386	205.0	0.674442631	0.851720922	0.015147907	0.156278165	0.048166448
2019-07-07T16:35:00	0.2627	13.376	205.0	0.676880094	0.855448738	0.015250841	0.157340115	0.048493752
2019-07-07T16:40:00	0.2616	13.369	205.0	0.673436219	0.850183223	0.015105513	0.155840795	0.048031647
2019-07-07T16:45:00	0.2610	13.355	205.1	0.671297743	0.846918731	0.015015640	0.154913586	0.047745872
2019-07-07T16:50:00	0.2593	13.343	204.9	0.665883535	0.838671233	0.014789355	0.152579051	0.047026345
2019-07-07T16:55:00	0.2593	13.332	204.9	0.665706802	0.838402439	0.014781999	0.152503160	0.047002955
2019-07-07T17:00:00	0.2594	13.324	204.9	0.666185256	0.839130185	0.014801918	0.152708660	0.047066292
2019-07-07T17:05:00	0.2584	13.315	204.8	0.662731220	0.833880872	0.014658435	0.151228372	0.046610053
2019-07-07T17:10:00	0.2580	13.295	191.9	0.661570511	0.832119166	0.014610383	0.150732625	0.046457259
2019-07-07T17:15:00	0.2569	13.281	204.8	0.657783755	0.826379702	0.014454188	0.149121197	0.045960601
2019-07-07T17:20:00	0.2560	13.264	204.8	0.654978914	0.822136398	0.014339062	0.147933455	0.045594528
2019-07-07T17:25:00	0.2567	13.256	204.8	0.657429489	0.825843380	0.014439621	0.148970906	0.045914280
2019-07-07T17:30:00	0.2570	13.243	204.8	0.658237340	0.827066539	0.014472851	0.149313740	0.046019945
2019-07-07T17:35:00	0.2561	13.222	204.5	0.655432851	0.822822681	0.014357661	0.148125343	0.045653669
2019-07-07T17:40:00	0.2579	13.201	204.6	0.661164826	0.831503695	0.014593607	0.150559555	0.046403917
2019-07-07T17:45:00	0.2587	13.189	204.5	0.663939001	0.835715250	0.014708524	0.151745129	0.046769323
2019-07-07T17:50:00	0.2586	13.179	204.6	0.663434372	0.834948668	0.014687585	0.151529108	0.046702743
2019-07-07T17:55:00	0.2569	13.171	204.5	0.658008398	0.826719844	0.014463430	0.149216540	0.045989987
2019-07-07T18:00:00	0.2591	13.162	204.5	0.665047216	0.837399506	0.014754562	0.152220099	0.046915713
2019-07-07T18:05:00	0.2571	13.151	204.4	0.658639041	0.827674959	0.014489390	0.149484366	0.046072534
2019-07-07T18:10:00	0.2595	13.140	204.4	0.666331803	0.839353128	0.014808022	0.152771633	0.047085701
2019-07-07T18:15:00	0.2580	13.129	204.4	0.661566202	0.832112628	0.014610204	0.150730786	0.046456692
2019-07-07T18:20:00	0.2583	13.115	204.3	0.662701027	0.833835032	0.014657184	0.151215466	0.046606075
2019-07-07T18:25:00	0.2568	13.105	204.3	0.657602313	0.826105003	0.014446726	0.149044213	0.045936874
2019-07-07T18:30:00	0.2591	13.095	204.3	0.665297275	0.837779688	0.014764961	0.152327379	0.046948777
2019-07-07T18:35:00	0.2593	13.084	204.2	0.665775782	0.838507348	0.014784870	0.152532778	0.047012084
2019-07-07T18:40:00	0.2605	13.070	204.1	0.669855615	0.844719471	0.014955190	0.154289943	0.047553659
2019-07-07T18:45:00	0.2570	13.057	204.1	0.658207110	0.827020759	0.014471607	0.149300903	0.046015988
2019-07-07T18:50:00	0.2570	13.044	204.0	0.658358294	0.827249722	0.014477830	0.149365105	0.046035776
2019-07-07T18:55:00	0.2583	13.026	204.2	0.662446481	0.833448594	0.014646639	0.151106679	0.046572546
2019-07-07T19:00:00	0.2562	13.004	203.9	0.655705193	0.823234505	0.014368826	0.148240530	0.045689171
2019-07-07T19:05:00	0.2592	12.977	203.8	0.665370567	0.837891130	0.014768009	0.152358830	0.046958471
2019-07-07T19:10:00	0.2605	12.951	203.6	0.669778114	0.844601331	0.014951945	0.154256465	0.047543341
2019-07-07T19:15:00	0.2594	12.925	203.6	0.665999930	0.838848274	0.014794201	0.152629044	0.047041754
2019-07-07T19:20:00	0.2589	12.900	203.6	0.664512564	0.836586815	0.014732342	0.151990855	0.046845058
2019-07-07T19:25:00	0.2599	12.873	203.5	0.667939057	0.841799461	0.014875053	0.153463176	0.047298841
2019-07-07T19:30:00	0.2597	12.848	203.4	0.667107515	0.840533529	0.014840353	0.153105189	0.047188506
2019-07-07T19:35:00	0.2580	12.824	190.2	0.661687045	0.832295987	0.014615203	0.150782359	0.046472587
2019-07-07T19:40:00	0.2616	12.801	190.1	0.673298586	0.849973000	0.015099720	0.155781032	0.048013227
2019-07-07T19:45:00	0.2603	12.778	203.1	0.669196783	0.843715338	0.014927617	0.154005472	0.047465982
2019-07-07T19:50:00	0.2603	12.755	190.0	0.669020211	0.843446287	0.014920232	0.153929279	0.047442499
2019-07-07T19:55:00	0.2616	12.734	202.9	0.673423333	0.850163541	0.015104971	0.155835200	0.048029922
2019-07-07T20:00:00	0.2613	12.715	202.8	0.672266041	0.848396400	0.015056299	0.155333065	0.047875159
2019-07-07T20:05:00	0.2614	12.696	189.7	0.672743631	0.849125522	0.015076375	0.155540182	0.047938995
2019-07-07T20:10:00	0.2604	12.677	189.7	0.669295834	0.843866279	0.014931761	0.154048223	0.047479158
2019-07-07T20:15:00	0.2604	12.661	189.6	0.669446556	0.844095975	0.014938067	0.154113287	0.047499212
2019-07-07T20:20:00	0.2613	12.643	189.5	0.672214408	0.848317585	0.015054130	0.155310682	0.047868260
2019-07-07T20:25:00	0.2614	12.627	189.4	0.672692004	0.849046696	0.015074204	0.155517786	0.047932092
2019-07-07T20:30:00	0.2587	12.614	189.4	0.664003709	0.835813563	0.014711210	0.151772841	0.046777864
2019-07-07T20:35:00	0.2594	12.598	189.3	0.666120625	0.839031867	0.014799227	0.152680892	0.047057734
2019-07-07T20:40:00	0.2574	12.582	189.3	0.659714351	0.829304310	0.014533711	0.149941617	0.046213462
2019-07-07T20:45:00	0.2578	12.569	189.2	0.660849756	0.831025796	0.014580586	0.150425215	0.046362512
2019-07-07T20:50:00	0.2587	12.558	189.2	0.663951958	0.835734935	0.014709062	0.151750678	0.046771033
2019-07-07T20:55:00	0.2585	12.543	189.1	0.663119500	0.834470456	0.014674528	0.151394400	0.046661224
2019-07-07T21:00:00	0.2581	12.531	189.1	0.661958917	0.832708554	0.014626453	0.150898421	0.046508359
2019-07-07T21:05:00	0.2583	12.519	189.0	0.662437865	0.833435514	0.014646283	0.151102998	0.046571411
2019-07-07T21:10:00	0.2586	12.506	189.0	0.663572417	0.835158350	0.014693312	0.151588186	0.046720951
2019-07-07T21:15:00	0.2578	12.491	188.9	0.660772062	0.830907962	0.014577376	0.150392097	0.046352305
2019-07-07T21:20:00	0.2568	12.481	188.9	0.657641213	0.826163894	0.014448326	0.149060716	0.045941960
2019-07-07T21:25:00	0.2580	12.470	188.8	0.661402224	0.831863838	0.014603423	0.150660819	0.046435128
2019-07-07T21:30:00	0.2583	12.462	188.8	0.662537101	0.833586161	0.014650393	0.151145403	0.046584481
2019-07-07T21:35:00	0.2583	12.455	188.8	0.662688104	0.833815411	0.014656649	0.151209942	0.046604373
2019-07-07T21:40:00	0.2576	12.444	188.7	0.660215188	0.830063536	0.014554378	0.150154835	0.046279179
2019-07-07T21:45:00	0.2572	12.431	188.7	0.659053672	0.828303107	0.014506471	0.149660592	0.046126848
2019-07-07T21:50:00	0.2571	12.419	188.6	0.658548361	0.827537602	0.014485656	0.149445840	0.046060659
2019-07-07T21:55:00	0.2569	12.408	188.6	0.658042980	0.826772210	0.014464853	0.149231220	0.045994511
2019-07-07T22:00:00	0.2584	12.399	188.5	0.662787333	0.833966069	0.014660760	0.151252360	0.046617446
2019-07-07T22:05:00	0.2578	12.389	188.5	0.660871864	0.831059326	0.014581499	0.150434639	0.046365417
2019-07-07T22:10:00	0.2586	12.377	188.4	0.663547578	0.835120620	0.014692281	0.151577555	0.046717675
2019-07-07T22:15:00	0.2580	12.366	188.4	0.661632512	0.832213241	0.014612947	0.150759085	0.046465414
2019-07-07T22:20:00	0.2592	12.356	188.3	0.665618377	0.838267963	0.014778319	0.152465196	0.046991254
2019-07-07T22:25:00	0.2586	12.341	188.2	0.663376598	0.834860917	0.014685189	0.151504387	0.046695123
2019-07-07T22:30:00	0.2594	12.327	188.2	0.666050464	0.838925142	0.014796305	0.152650751	0.047048444
2019-07-07T22:35:00	0.2610	12.311	188.1	0.671340126	0.846983394	0.015017418	0.154931935	0.047751527
2019-07-07T22:40:00	0.2602	12.298	188.1	0.668774562	0.843072022	0.014909960	0.153823310	0.047409838
2019-07-07T22:45:00	0.2630	12.281	188.0	0.677980450	0.857133279	0.015297429	0.157820755	0.048641889
2019-07-07T22:50:00	0.2621	12.264	187.9	0.675092815	0.852714803	0.015175329	0.156561067	0.048253641
2019-07-07T22:55:00	0.2622	12.249	187.8	0.675144926	0.852794476	0.015177527	0.156583752	0.048260633
2019-07-07T23:00:00	0.2619	12.235	187.7	0.674216635	0.851375546	0.015138382	0.156179895	0.048136160
2019-07-07T23:05:00	0.2600	12.219	187.6	0.668053495	0.841973726	0.014879831	0.153512477	0.047314036
2019-07-07T23:10:00	0.2612	12.202	187.5	0.672032315	0.848039651	0.015046480	0.155231758	0.047843935
2019-07-07T23:15:00	0.2610	12.182	187.4	0.671430339	0.847121032	0.015021204	0.154970994	0.047763565
2019-07-07T23:20:00	0.2618	12.162	187.3	0.674098282	0.851194692	0.015133395	0.156128444	0.048120303
2019-07-07T23:25:00	0.2608	12.142	187.2	0.670880434	0.846282148	0.014998134	0.154732987	0.047690209
2019-07-07T23:30:00	0.2611	12.119	187.1	0.671586825	0.847359801	0.015027772	0.155038758	0.047784451
2019-07-07T23:35:00	0.2598	12.098	187.0	0.667384507	0.840955153	0.014851907	0.153224388	0.047225244
2019-07-07T23:40:00	0.2616	12.078	186.9	0.673326135	0.850015078	0.015100880	0.155792994	0.048016914
2019-07-07T23:45:00	0.2609	12.059	199.5	0.671089113	0.846600458	0.015006887	0.154823283	0.047718040
2019-07-07T23:50:00	0.2606	12.041	199.3	0.670159786	0.845183185	0.014967930	0.154421371	0.047594166
2019-07-07T23:55:00	0.2604	12.020	199.4	0.669557499	0.844265062	0.014942710	0.154161188	0.047513975
2019-07-08T00:00:00	0.2604	12.002	186.4	0.669282415	0.843845829	0.014931199	0.154042431	0.047477373
2019-07-08T00:05:00	0.2604	11.985	186.6	0.669334609	0.843925369	0.014933383	0.154064960	0.047484317
2019-07-08T00:10:00	0.2604	11.967	186.5	0.669386802	0.844004909	0.014935567	0.154087490	0.047491261
2019-07-08T00:15:00	0.2604	11.951	186.4	0.669438994	0.844084451	0.014937751	0.154110022	0.047498205
2019-07-08T00:20:00	0.2579	11.936	198.9	0.661300208	0.831709070	0.014599204	0.150617299	0.046421714
2019-07-08T00:25:00	0.2601	11.922	186.0	0.668561449	0.842747372	0.014901052	0.153731408	0.047381513
2019-07-08T00:30:00	0.2624	11.907	185.9	0.675808195	0.853808763	0.015205530	0.156872646	0.048349673
2019-07-08T00:35:00	0.2617	11.893	185.8	0.673572699	0.850391700	0.015111259	0.155900070	0.048049916
2019-07-08T00:40:00	0.2605	11.881	198.4	0.669699944	0.844482177	0.014948673	0.154222702	0.047532935
2019-07-08T00:45:00	0.2625	11.865	198.3	0.676291166	0.854547572	0.015225937	0.157083185	0.048414563
2019-07-08T00:50:00	0.2612	11.848	185.6	0.672094286	0.848134235	0.015049083	0.155258615	0.047852213
2019-07-08T00:55:00	0.2605	11.833	185.4	0.669856505	0.844720827	0.014955228	0.154290327	0.047553777
2019-07-08T01:00:00	0.2606	11.816	198.2	0.670235907	0.845299247	0.014971119	0.154454271	0.047604306
2019-07-08T01:05:00	0.2609	11.798	185.4	0.670942424	0.846376701	0.015000734	0.154759807	0.047698476
2019-07-08T01:10:00	0.2616	11.780	185.3	0.673283811	0.849950435	0.015099099	0.155774618	0.048011250
2019-07-08T01:15:00	0.2595	11.759	185.4	0.666464062	0.839554349	0.014813532	0.152828477	0.047103221
2019-07-08T01:20:00	0.2616	11.737	184.9	0.673388083	0.850109698	0.015103487	0.155819892	0.048025204
2019-07-08T01:25:00	0.2608	11.714	184.9	0.670823964	0.846196017	0.014995766	0.154708557	0.047682680
2019-07-08T01:30:00	0.2608	11.693	184.7	0.670876136	0.846275592	0.014997954	0.154731127	0.047689636
2019-07-08T01:35:00	0.2612	11.671	184.5	0.671909594	0.847852353	0.015041325	0.155178579	0.047827545
2019-07-08T01:40:00	0.2630	11.649	197.2	0.677843839	0.856924084	0.015291641	0.157761041	0.048623485
2019-07-08T01:45:00	0.2610	11.626	197.1	0.671359762	0.847013352	0.015018242	0.154940436	0.047754147
2019-07-08T01:50:00	0.2622	11.605	184.4	0.675334967	0.853085053	0.015185548	0.156666498	0.048286136
2019-07-08T01:55:00	0.2609	11.578	196.7	0.671136983	0.846673482	0.015008895	0.154844001	0.047724425
2019-07-08T02:00:00	0.2635	11.553	183.9	0.679684254	0.859743701	0.015369714	0.158566505	0.048871737
2019-07-08T02:05:00	0.2627	11.530	183.9	0.676797970	0.855323056	0.015247367	0.157304274	0.048482705
2019-07-08T02:10:00	0.2625	11.506	183.8	0.676196782	0.854403176	0.015221948	0.157042029	0.048401879
2019-07-08T02:15:00	0.2636	11.482	183.5	0.679840386	0.859983039	0.015376347	0.158634936	0.048892828
2019-07-08T02:20:00	0.2620	11.457	183.9	0.674667318	0.852064341	0.015157380	0.156375898	0.048196571
2019-07-08T02:25:00	0.2611	11.431	183.7	0.671777053	0.847650080	0.015035759	0.155121155	0.047809846
2019-07-08T02:30:00	0.2631	11.410	183.6	0.678364516	0.857721494	0.015313708	0.157988698	0.048693651
2019-07-08T02:35:00	0.2641	11.389	183.4	0.681353603	0.862303762	0.015440711	0.159298969	0.049097489
2019-07-08T02:40:00	0.2651	11.371	183.4	0.684666167	0.867390921	0.015582104	0.160757692	0.049547082
2019-07-08T02:45:00	0.2638	11.352	195.6	0.680478927	0.860962088	0.015403490	0.158914964	0.048979135
2019-07-08T02:50:00	0.2622	11.335	195.3	0.675306767	0.853041932	0.015184358	0.156654218	0.048282351
2019-07-08T02:55:00	0.2629	11.321	195.2	0.677645348	0.856620160	0.015283233	0.157674300	0.048596750
2019-07-08T03:00:00	0.2604	11.308	183.1	0.669524954	0.844215460	0.014941348	0.154147135	0.047509644
2019-07-08T03:05:00	0.2612	11.295	182.6	0.672194295	0.848286885	0.015053285	0.155301963	0.047865573
2019-07-08T03:10:00	0.2616	11.283	195.0	0.673227379	0.849864245	0.015096724	0.155750118	0.048003699
2019-07-08T03:15:00	0.2605	11.270	182.7	0.669681522	0.844454098	0.014947902	0.154214746	0.047530483
2019-07-08T03:20:00	0.2610	11.261	195.0	0.671369580	0.847028331	0.015018654	0.154944687	0.047755457
2019-07-08T03:25:00	0.2613	11.252	182.5	0.672402898	0.848605316	0.015062051	0.155392401	0.047893447
2019-07-08T03:30:00	0.2625	11.242	194.8	0.676376964	0.854678840	0.015229564	0.157120603	0.048426096
2019-07-08T03:35:00	0.2624	11.235	182.0	0.676102396	0.854258783	0.015217959	0.157000878	0.048389195
2019-07-08T03:40:00	0.2621	11.228	194.4	0.674847576	0.852339883	0.015164983	0.156454329	0.048220744
2019-07-08T03:45:00	0.2618	11.221	182.0	0.673919209	0.850921075	0.015125851	0.156050614	0.048096315
2019-07-08T03:50:00	0.2608	11.217	194.4	0.670701203	0.846008784	0.014990619	0.154655454	0.047666313
2019-07-08T03:55:00	0.2610	11.211	181.9	0.671407629	0.847086382	0.015020251	0.154961160	0.047760535
2019-07-08T04:00:00	0.2614	11.208	181.9	0.672767925	0.849162617	0.015077397	0.155550722	0.047942243
2019-07-08T04:05:00	0.2620	11.205	181.8	0.674778435	0.852234191	0.015162066	0.156424243	0.048211471
2019-07-08T04:10:00	0.2630	11.202	181.7	0.677767543	0.856807258	0.015288409	0.157727696	0.048613208
2019-07-08T04:15:00	0.2637	11.201	181.7	0.680101626	0.860383545	0.015387449	0.158749470	0.048928128
2019-07-08T04:20:00	0.2640	11.200	181.7	0.681129550	0.861960022	0.015431172	0.159200557	0.049067158
2019-07-08T04:25:00	0.2633	11.200	181.7	0.678894398	0.858533242	0.015336182	0.158220558	0.048765112
2019-07-08T04:30:00	0.2625	11.201	194.2	0.676331235	0.854608875	0.015227631	0.157100659	0.048419949
2019-07-08T04:35:00	0.2662	11.201	194.1	0.688446473	0.873207976	0.015744291	0.162430953	0.050062797
2019-07-08T04:40:00	0.2669	11.203	194.1	0.690773743	0.876795274	0.015844580	0.163465608	0.050381688
2019-07-08T04:45:00	0.2664	11.205	181.6	0.688870035	0.873860514	0.015762519	0.162619002	0.050120756
2019-07-08T04:50:00	0.2670	11.207	181.6	0.690871694	0.876946361	0.015848808	0.163509231	0.050395133
2019-07-08T04:55:00	0.2673	11.210	182.0	0.691896594	0.878527734	0.015893086	0.163966043	0.050535927
2019-07-08T05:00:00	0.2687	11.214	194.2	0.696496380	0.885636197	0.016092613	0.166024525	0.051170371
2019-07-08T05:05:00	0.2682	11.221	181.6	0.694920655	0.883199022	0.016024114	0.165317833	0.050952562
2019-07-08T05:10:00	0.2690	11.229	194.1	0.697568595	0.887295822	0.016139312	0.166506310	0.051318862
2019-07-08T05:15:00	0.2668	11.236	181.6	0.690465833	0.876320387	0.015831292	0.163328519	0.050339436
2019-07-08T05:20:00	0.2695	11.242	181.6	0.698965150	0.889458973	0.016200245	0.167134939	0.051512612
2019-07-08T05:25:00	0.2713	11.248	181.6	0.704852802	0.898597091	0.016458463	0.169798927	0.052333678
2019-07-08T05:30:00	0.2696	11.254	194.2	0.699387499	0.890113490	0.016218696	0.167325297	0.051571282
2019-07-08T05:35:00	0.2722	11.261	181.3	0.707866223	0.903285829	0.016591461	0.171171045	0.052756578
2019-07-08T05:40:00	0.2718	11.265	181.6	0.706619342	0.901344784	0.016536361	0.170602586	0.052581374
2019-07-08T05:45:00	0.2720	11.272	193.8	0.707315970	0.902429072	0.016567133	0.170920058	0.052679222
2019-07-08T05:50:00	0.2709	11.285	181.6	0.703475889	0.896457311	0.016397881	0.169173916	0.052141044
2019-07-08T05:55:00	0.2707	11.298	181.7	0.702876165	0.895525830	0.016371531	0.168902071	0.052057258
2019-07-08T06:00:00	0.2731	11.308	181.7	0.710699715	0.907701819	0.016717036	0.172466578	0.053155874
2019-07-08T06:05:00	0.2711	11.317	181.7	0.704270706	0.897692288	0.016432837	0.169534552	0.052252195
2019-07-08T06:10:00	0.2728	11.323	181.7	0.709826216	0.906339728	0.016678271	0.172066643	0.053032610
2019-07-08T06:15:00	0.2732	11.330	181.7	0.711169425	0.908434537	0.016737901	0.172681840	0.053222220
2019-07-08T06:20:00	0.2730	11.337	181.8	0.710570952	0.907500990	0.016711318	0.172407592	0.053137694
2019-07-08T06:25:00	0.2744	11.342	181.7	0.714824238	0.914142387	0.016900725	0.174361664	0.053739958
2019-07-08T06:30:00	0.2738	11.351	181.8	0.712932943	0.911187229	0.016816362	0.173491309	0.053471706
2019-07-08T06:35:00	0.2725	11.356	181.7	0.708774951	0.904701317	0.016631679	0.171585970	0.052884462
2019-07-08T06:40:00	0.2709	11.361	181.8	0.703639714	0.896711815	0.016405083	0.169248216	0.052163944
2019-07-08T06:45:00	0.2718	11.372	181.8	0.706605362	0.901323029	0.016535744	0.170596218	0.052579411
2019-07-08T06:50:00	0.2708	11.383	181.8	0.703413090	0.896359757	0.016395121	0.169145440	0.052132267
2019-07-08T06:55:00	0.2715	11.396	181.9	0.705406836	0.899458549	0.016482873	0.170050759	0.052411296
2019-07-08T07:00:00	0.2728	11.406	194.3	0.709666076	0.906090085	0.016671169	0.171993376	0.053010029
2019-07-08T07:05:00	0.2724	11.414	194.4	0.708419804	0.904148034	0.016615955	0.171423747	0.052834464
2019-07-08T07:10:00	0.2729	11.435	194.6	0.710087199	0.906746622	0.016689848	0.172186083	0.053069423
2019-07-08T07:15:00	0.2737	11.474	182.1	0.712724253	0.910861342	0.016807067	0.173395414	0.053442151
2019-07-08T07:20:00	0.2707	11.489	182.2	0.703057426	0.895807328	0.016379493	0.168984209	0.052082574
2019-07-08T07:25:00	0.2716	11.480	194.9	0.706023543	0.900417770	0.016510066	0.170331312	0.052497765
2019-07-08T07:30:00	0.2729	11.530	195.2	0.709958415	0.906545829	0.016684134	0.172127139	0.053051256
2019-07-08T07:35:00	0.2719	11.530	194.9	0.706769048	0.901577762	0.016542971	0.170670784	0.052602393
2019-07-08T07:40:00	0.2726	11.536	195.4	0.709084741	0.905184028	0.016645402	0.171727542	0.052928096
2019-07-08T07:45:00	0.2736	11.518	194.8	0.712369487	0.910307431	0.016791272	0.173232460	0.053391927
2019-07-08T07:50:00	0.2737	11.622	182.7	0.712741617	0.910888456	0.016807841	0.173403392	0.053444610
2019-07-08T07:55:00	0.2731	11.596	195.1	0.710849255	0.907935070	0.016723677	0.172535094	0.053176992
2019-07-08T08:00:00	0.2718	11.539	194.8	0.706688912	0.901453049	0.016539433	0.170634277	0.052591141
2019-07-08T08:05:00	0.2740	11.528	194.9	0.713534439	0.912126732	0.016843168	0.173767861	0.053556942
2019-07-08T08:10:00	0.2738	11.550	194.9	0.712936349	0.911192550	0.016816514	0.173492875	0.053472189
2019-07-08T08:15:00	0.2720	11.569	195.0	0.707159133	0.902184921	0.016560202	0.170848556	0.052657184
2019-07-08T08:20:00	0.2724	11.620	195.2	0.708503313	0.904278123	0.016619652	0.171461885	0.052846218
2019-07-08T08:25:00	0.2722	11.628	182.8	0.707904407	0.903345293	0.016593150	0.171188469	0.052761949
2019-07-08T08:30:00	0.2713	11.621	195.3	0.705037379	0.898884057	0.016466593	0.169882803	0.052359530
2019-07-08T08:35:00	0.2750	11.618	195.2	0.716735314	0.917131623	0.016986198	0.175243472	0.054011740
2019-07-08T08:40:00	0.2731	11.646	182.8	0.710640447	0.907609378	0.016714404	0.172439426	0.053147506
2019-07-08T08:45:00	0.2719	11.688	183.1	0.706803831	0.901631896	0.016544507	0.170686632	0.052607278
2019-07-08T08:50:00	0.2729	11.687	183.0	0.710090608	0.906751937	0.016689999	0.172187644	0.053069904
2019-07-08T08:55:00	0.2724	11.682	183.1	0.708520697	0.904305203	0.016620421	0.171469824	0.052848665
2019-07-08T09:00:00	0.2719	11.707	183.1	0.706950117	0.901859575	0.016550968	0.170753290	0.052627822
2019-07-08T09:05:00	0.2720	11.711	183.3	0.707322794	0.902439695	0.016567435	0.170923170	0.052680181
2019-07-08T09:10:00	0.2708	11.695	183.1	0.703158465	0.895964255	0.016383932	0.169030004	0.052096689
2019-07-08T09:15:00	0.2714	11.723	183.2	0.705152350	0.899062819	0.016471658	0.169935060	0.052375636
2019-07-08T09:20:00	0.2713	11.844	196.4	0.704877031	0.898634759	0.016459530	0.169809936	0.052337071
2019-07-08T09:25:00	0.2728	11.788	183.5	0.709784312	0.906274401	0.016676412	0.172047470	0.053026701
2019-07-08T09:30:00	0.2737	11.760	183.3	0.712745024	0.910893776	0.016807992	0.173404957	0.053445092
2019-07-08T09:35:00	0.2708	11.753	183.3	0.703402513	0.896343327	0.016394656	0.169140644	0.052130789
2019-07-08T09:40:00	0.2712	11.755	183.3	0.704748064	0.898434267	0.016453850	0.169751341	0.052319012
2019-07-08T09:45:00	0.2705	11.820	196.1	0.702202944	0.894480566	0.016341979	0.168597185	0.051963290
2019-07-08T09:50:00	0.2708	11.884	196.4	0.703224685	0.896067106	0.016386841	0.169060021	0.052105940
2019-07-08T09:55:00	0.2715	11.865	183.8	0.705542607	0.899669696	0.016488857	0.170112503	0.052430326
2019-07-08T10:00:00	0.2694	11.843	183.7	0.698779937	0.889171996	0.016192157	0.167051498	0.051486894
2019-07-08T10:05:00	0.2701	11.839	196.3	0.701002983	0.892618448	0.016289375	0.168054475	0.051796021
2019-07-08T10:10:00	0.2699	11.849	183.7	0.700305159	0.891536129	0.016258824	0.167739294	0.051698879
2019-07-08T10:15:00	0.2703	11.894	183.9	0.701554180	0.893473649	0.016313527	0.168303651	0.051872820
2019-07-08T10:20:00	0.2697	11.911	196.5	0.699882916	0.890881439	0.016240354	0.167548734	0.051640147
2019-07-08T10:25:00	0.2694	11.901	184.0	0.698860245	0.889296425	0.016195664	0.167087675	0.051498044
2019-07-08T10:30:00	0.2717	11.889	184.0	0.706270814	0.900802465	0.016520977	0.170443869	0.052532456
2019-07-08T10:35:00	0.2720	11.880	183.9	0.707193913	0.902239062	0.016561739	0.170864411	0.052662071
2019-07-08T10:40:00	0.2707	11.875	183.9	0.702931812	0.895612246	0.016373975	0.168927284	0.052065030
2019-07-08T10:45:00	0.2715	11.884	183.9	0.705476429	0.899566776	0.016485940	0.170082406	0.052421049
2019-07-08T10:50:00	0.2714	11.895	184.0	0.705103565	0.898986964	0.016469509	0.169912885	0.052368801
2019-07-08T10:55:00	0.2713	11.890	183.9	0.705054779	0.898911111	0.016467359	0.169890711	0.052361967
2019-07-08T11:00:00	0.2720	11.885	184.0	0.707274038	0.902363793	0.016565280	0.170900940	0.052673329
2019-07-08T11:05:00	0.2717	11.886	183.8	0.706253420	0.900775402	0.016520209	0.170435950	0.052530015
2019-07-08T11:10:00	0.2718	11.897	184.1	0.706528636	0.901203632	0.016532356	0.170561271	0.052568640
2019-07-08T11:15:00	0.2713	11.920	183.9	0.704859630	0.898607706	0.016458764	0.169802029	0.052334634
2019-07-08T11:20:00	0.2719	11.939	184.1	0.706755068	0.901556005	0.016542354	0.170664415	0.052600430
2019-07-08T11:25:00	0.2718	11.943	196.8	0.706382333	0.900975980	0.016525898	0.170494646	0.052548106
2019-07-08T11:30:00	0.2729	11.934	184.2	0.710219388	0.906952738	0.016695713	0.172246597	0.053088074
2019-07-08T11:35:00	0.2730	11.934	196.8	0.710494308	0.907381457	0.016707916	0.172372487	0.053126875
2019-07-08T11:40:00	0.2734	11.936	196.8	0.711739879	0.909324668	0.016763260	0.172943463	0.053302855
2019-07-08T11:45:00	0.2720	11.941	196.9	0.707159133	0.902184921	0.016560202	0.170848556	0.052657184
2019-07-08T11:50:00	0.2725	11.952	196.9	0.708729624	0.904630697	0.016629672	0.171565262	0.052878080
2019-07-08T11:55:00	0.2720	11.956	197.0	0.707061616	0.902033125	0.016555894	0.170804106	0.052643484
2019-07-08T12:00:00	0.2729	11.956	184.4	0.710250730	0.907001610	0.016697104	0.172260947	0.053092497
2019-07-08T12:05:00	0.2719	11.961	196.9	0.706964095	0.901881333	0.016551586	0.170759660	0.052629786
2019-07-08T12:10:00	0.2721	11.958	184.4	0.707563154	0.902813911	0.016578059	0.171032782	0.052713964
2019-07-08T12:15:00	0.2724	11.964	184.5	0.708485929	0.904251042	0.016618882	0.171453945	0.052843771
2019-07-08T12:20:00	0.2709	11.985	184.5	0.703576917	0.896614256	0.016402322	0.169219734	0.052155165
2019-07-08T12:25:00	0.2718	11.997	184.7	0.706445082	0.901073618	0.016528668	0.170523220	0.052556912
2019-07-08T12:30:00	0.2710	11.988	197.2	0.703803531	0.896966330	0.016412286	0.169322529	0.052186848
2019-07-08T12:35:00	0.2717	11.993	197.3	0.706347546	0.900921853	0.016524363	0.170478805	0.052543224
2019-07-08T12:40:00	0.2717	12.003	184.7	0.706298777	0.900845972	0.016522211	0.170456600	0.052536380
2019-07-08T12:45:00	0.2730	12.002	197.3	0.710459559	0.907327265	0.016706373	0.172356572	0.053121969
2019-07-08T12:50:00	0.2736	12.002	184.7	0.712352121	0.910280320	0.016790499	0.173224485	0.053389469
2019-07-08T12:55:00	0.2724	12.009	197.4	0.708419804	0.904148034	0.016615955	0.171423747	0.052834464
2019-07-08T13:00:00	0.2735	12.020	197.4	0.711931257	0.909623356	0.016771772	0.173031281	0.053329921
2019-07-08T13:05:00	0.2734	12.024	184.8	0.711559045	0.909042466	0.016755219	0.172860506	0.053277287
2019-07-08T13:10:00	0.2724	12.038	197.5	0.708597382	0.904424669	0.016623817	0.171504850	0.052859461
2019-07-08T13:15:00	0.2730	12.044	197.6	0.710490899	0.907376141	0.016707764	0.172370926	0.053126393
2019-07-08T13:20:00	0.2714	12.051	197.7	0.705260489	0.899230971	0.016476423	0.169984219	0.052390787
2019-07-08T13:25:00	0.2726	12.057	197.7	0.709098711	0.905205799	0.016646021	0.171733928	0.052930065
2019-07-08T13:30:00	0.2735	12.066	197.8	0.711962584	0.909672252	0.016773166	0.173045658	0.053334352
2019-07-08T13:35:00	0.2716	12.076	197.8	0.705762273	0.900011352	0.016498543	0.170212425	0.052461122
2019-07-08T13:40:00	0.2708	12.091	198.0	0.703444490	0.896408534	0.016396501	0.169159678	0.052136656
2019-07-08T13:45:00	0.2718	12.103	198.0	0.706636735	0.901371850	0.016537129	0.170610508	0.052583816
2019-07-08T13:50:00	0.2729	12.105	185.4	0.710149885	0.906844363	0.016692629	0.172214778	0.053078267
2019-07-08T13:55:00	0.2745	12.102	198.1	0.715276072	0.914848841	0.016920913	0.174569936	0.053804150
2019-07-08T14:00:00	0.2747	12.099	198.1	0.715873783	0.915783653	0.016947638	0.174845652	0.053889128
2019-07-08T14:05:00	0.2716	12.099	198.1	0.705793653	0.900060161	0.016499927	0.170226701	0.052465523
2019-07-08T14:10:00	0.2739	12.110	198.1	0.713190299	0.911589167	0.016827829	0.173609606	0.053508167
2019-07-08T14:15:00	0.2728	12.111	198.1	0.709906284	0.906464553	0.016681822	0.172103282	0.053043903
2019-07-08T14:20:00	0.2714	12.113	185.5	0.705323257	0.899328576	0.016479189	0.170012756	0.052399583
2019-07-08T14:25:00	0.2734	12.115	198.2	0.711750432	0.909341138	0.016763729	0.172948305	0.053304347
2019-07-08T14:30:00	0.2721	12.124	198.2	0.707493601	0.902705618	0.016574985	0.171001060	0.052704187
2019-07-08T14:35:00	0.2716	12.133	198.3	0.705825032	0.900108971	0.016501310	0.170240979	0.052469923
2019-07-08T14:40:00	0.2705	12.139	198.3	0.702210107	0.894491687	0.016342293	0.168600428	0.051964289
2019-07-08T14:45:00	0.2694	12.148	198.3	0.698916283	0.889383253	0.016198111	0.167112922	0.051505825
2019-07-08T14:50:00	0.2695	12.157	198.5	0.699192049	0.889810580	0.016210156	0.167237191	0.051544127
2019-07-08T14:55:00	0.2697	12.165	198.5	0.699792374	0.890741074	0.016236394	0.167507887	0.051627558
2019-07-08T15:00:00	0.2683	12.163	198.5	0.695196721	0.883625858	0.016036104	0.165441530	0.050990686
2019-07-08T15:05:00	0.2694	12.161	198.5	0.698720808	0.889080385	0.016189575	0.167024863	0.051478685
2019-07-08T15:10:00	0.2692	12.166	198.6	0.698022551	0.887998777	0.016159105	0.166710511	0.051381798
2019-07-08T15:15:00	0.2688	12.176	198.7	0.696674534	0.885911883	0.016100368	0.166104525	0.051195028
2019-07-08T15:20:00	0.2695	12.183	198.7	0.699223485	0.889859298	0.016211529	0.167251360	0.051548494
2019-07-08T15:25:00	0.2692	12.185	186.0	0.698200630	0.888274584	0.016166873	0.166790652	0.051406499
2019-07-08T15:30:00	0.2688	12.191	198.8	0.696852680	0.886187583	0.016108124	0.166184541	0.051219690
2019-07-08T15:35:00	0.2680	12.196	198.8	0.694204222	0.882091628	0.015993021	0.164997050	0.050853693
2019-07-08T15:40:00	0.2676	12.203	186.2	0.692854802	0.880007027	0.015934543	0.164393739	0.050667747
2019-07-08T15:45:00	0.2671	12.204	198.9	0.691179570	0.877421303	0.015862102	0.163646385	0.050437405
2019-07-08T15:50:00	0.2675	12.202	186.2	0.692431701	0.879353740	0.015916230	0.164204815	0.050609519
2019-07-08T15:55:00	0.2668	12.212	186.3	0.690430894	0.876266507	0.015829784	0.163312967	0.050334642
2019-07-08T16:00:00	0.2651	12.215	199.0	0.684845931	0.867667259	0.015589796	0.160837054	0.049571542
2019-07-08T16:05:00	0.2661	12.213	186.3	0.687875820	0.872329076	0.015719752	0.162177782	0.049984767
2019-07-08T16:10:00	0.2647	12.213	199.0	0.683412408	0.865464390	0.015528509	0.160204762	0.049376664
2019-07-08T16:15:00	0.2644	12.213	199.1	0.682532390	0.864112959	0.015490948	0.159817258	0.049257231
2019-07-08T16:20:00	0.2647	12.219	186.4	0.683608702	0.865765926	0.015536893	0.160291265	0.049403325
2019-07-08T16:25:00	0.2665	12.220	186.4	0.689244551	0.874437622	0.015778645	0.162785371	0.050172032
2019-07-08T16:30:00	0.2664	12.220	199.1	0.689017037	0.874087020	0.015768847	0.162684293	0.050140879
2019-07-08T16:35:00	0.2653	12.223	199.2	0.685532644	0.868723147	0.015619200	0.161140411	0.049665040
2019-07-08T16:40:00	0.2641	12.228	186.5	0.681392582	0.862363568	0.015442371	0.159316093	0.049102767
2019-07-08T16:45:00	0.2642	12.226	199.3	0.681816962	0.863014781	0.015460448	0.159502593	0.049160248
2019-07-08T16:50:00	0.2628	12.220	199.3	0.677346131	0.856162069	0.015270563	0.157543588	0.048556464
2019-07-08T16:55:00	0.2621	12.216	186.5	0.674831068	0.852314648	0.015164286	0.156447146	0.048218530
2019-07-08T17:00:00	0.2630	12.215	186.5	0.677869283	0.856963046	0.015292719	0.157772162	0.048626913
2019-07-08T17:05:00	0.2602	12.205	186.5	0.668813861	0.843131894	0.014911603	0.153840261	0.047415062
2019-07-08T17:10:00	0.2626	12.200	199.2	0.676759645	0.855264405	0.015245746	0.157287549	0.048477550
2019-07-08T17:15:00	0.2599	12.198	199.2	0.667701456	0.841437679	0.014865133	0.153360842	0.047267301
2019-07-08T17:20:00	0.2608	12.202	199.2	0.670745631	0.846076545	0.014992482	0.154674672	0.047672236
2019-07-08T17:25:00	0.2603	12.205	186.6	0.669208015	0.843732454	0.014928087	0.154010320	0.047467476
2019-07-08T17:30:00	0.2602	12.209	186.6	0.668651916	0.842885182	0.014904833	0.153770418	0.047393536
2019-07-08T17:35:00	0.2618	12.209	199.4	0.673984071	0.851020180	0.015128583	0.156078803	0.048105003
2019-07-08T17:40:00	0.2600	12.205	186.6	0.668194293	0.842188149	0.014885712	0.153573145	0.047332735
2019-07-08T17:45:00	0.2596	12.202	186.6	0.666655596	0.839845781	0.014821513	0.152910817	0.047128599
2019-07-08T17:50:00	0.2582	12.200	186.7	0.662166066	0.833022947	0.014635028	0.150986885	0.046535624
2019-07-08T17:55:00	0.2589	12.193	186.6	0.664559519	0.836658178	0.014734293	0.152010981	0.046851261
2019-07-08T18:00:00	0.2588	12.187	186.6	0.664330456	0.836310060	0.014724777	0.151912814	0.046821005
2019-07-08T18:05:00	0.2588	12.181	186.6	0.664101380	0.835961965	0.014715265	0.151814674	0.046790757
2019-07-08T18:10:00	0.2592	12.175	186.6	0.665510802	0.838104372	0.014773843	0.152419017	0.046977021
2019-07-08T18:15:00	0.2588	12.168	186.6	0.664298718	0.836261830	0.014723459	0.151899215	0.046816813
2019-07-08T18:20:00	0.2586	12.159	186.6	0.663414062	0.834917820	0.014686743	0.151520417	0.046700064
2019-07-08T18:25:00	0.2585	12.149	199.2	0.663184928	0.834569817	0.014677241	0.151422386	0.046669850
2019-07-08T18:30:00	0.2597	12.134	186.5	0.667215451	0.840697816	0.014844855	0.153151632	0.047202820
2019-07-08T18:35:00	0.2593	12.120	199.1	0.665676338	0.838356108	0.014780731	0.152490080	0.046998924
2019-07-08T18:40:00	0.2576	12.101	186.3	0.660201400	0.830042633	0.014553809	0.150148964	0.046277369
2019-07-08T18:45:00	0.2591	12.087	199.0	0.665218340	0.837659672	0.014761678	0.152293510	0.046938339
2019-07-08T18:50:00	0.2594	12.068	199.0	0.666299786	0.839304418	0.014806688	0.152757873	0.047081460
2019-07-08T18:55:00	0.2599	12.047	198.8	0.667708354	0.841448181	0.014865421	0.153363812	0.047268216
2019-07-08T19:00:00	0.2598	12.027	198.8	0.667479491	0.841099748	0.014855870	0.153265274	0.047237846
2019-07-08T19:05:00	0.2609	12.006	198.7	0.671178146	0.846736277	0.015010622	0.154861817	0.047729916
2019-07-08T19:10:00	0.2585	11.986	198.5	0.663089683	0.834425175	0.014673292	0.151381646	0.046657294
2019-07-08T19:15:00	0.2604	11.966	198.4	0.669411971	0.844043267	0.014936620	0.154098356	0.047494610
2019-07-08T19:20:00	0.2589	11.947	198.3	0.664598158	0.836716905	0.014735898	0.152027543	0.046856365
2019-07-08T19:25:00	0.2591	11.930	198.3	0.665024503	0.837364976	0.014753618	0.152210356	0.046912710
2019-07-08T19:30:00	0.2589	11.912	198.2	0.664467762	0.836518725	0.014730481	0.151971654	0.046839140
2019-07-08T19:35:00	0.2597	11.895	198.1	0.667187187	0.840654796	0.014843676	0.153139470	0.047199072
2019-07-08T19:40:00	0.2575	11.878	198.0	0.660074302	0.829849943	0.014548563	0.150094841	0.046260688
2019-07-08T19:45:00	0.2599	11.861	198.0	0.667711803	0.841453433	0.014865565	0.153365297	0.047268674
2019-07-08T19:50:00	0.2582	11.846	197.9	0.662239942	0.833135077	0.014638086	0.151018440	0.046545350
2019-07-08T19:55:00	0.2578	11.830	197.9	0.661026763	0.831294271	0.014587900	0.150500680	0.046385771
2019-07-08T20:00:00	0.2574	11.816	197.8	0.659485019	0.828956735	0.014524253	0.149844037	0.046183388
2019-07-08T20:05:00	0.2582	11.803	197.8	0.662208186	0.833086876	0.014636772	0.151004875	0.046541169
2019-07-08T20:10:00	0.2579	11.792	197.7	0.661323019	0.831743675	0.014600147	0.150627030	0.046424713
2019-07-08T20:15:00	0.2576	11.780	197.7	0.660109533	0.829903355	0.014550017	0.150109842	0.046265311
2019-07-08T20:20:00	0.2600	11.768	197.6	0.668074372	0.842005519	0.014880703	0.153521472	0.047316809
2019-07-08T20:25:00	0.2603	11.756	197.5	0.669154967	0.843651618	0.014925868	0.153987426	0.047460420
2019-07-08T20:30:00	0.2600	11.742	184.8	0.668271495	0.842305727	0.014888937	0.153606416	0.047342989
2019-07-08T20:35:00	0.2595	11.732	197.5	0.666405297	0.839464942	0.014811084	0.152803219	0.047095436
2019-07-08T20:40:00	0.2621	11.721	197.3	0.675009948	0.852588111	0.015171832	0.156524995	0.048242524
2019-07-08T20:45:00	0.2600	11.714	184.7	0.668239791	0.842257442	0.014887612	0.153592753	0.047338778
2019-07-08T20:50:00	0.2617	11.704	184.6	0.673572551	0.850391474	0.015111252	0.155900005	0.048049896
2019-07-08T20:55:00	0.2619	11.696	184.6	0.674324693	0.851540679	0.015142936	0.156226878	0.048150641
2019-07-08T21:00:00	0.2609	11.692	184.6	0.671153359	0.846698465	0.015009582	0.154851089	0.047726609
2019-07-08T21:05:00	0.2613	11.685	184.5	0.672233039	0.848346024	0.015054913	0.155318758	0.047870750
2019-07-08T21:10:00	0.2622	11.677	184.5	0.675273422	0.852990946	0.015182950	0.156639698	0.048277876
2019-07-08T21:15:00	0.2646	11.670	197.1	0.683205136	0.865146025	0.015519658	0.160113448	0.049348520
2019-07-08T21:20:00	0.2623	11.666	197.1	0.675470155	0.853291777	0.015191255	0.156725374	0.048304282
2019-07-08T21:25:00	0.2640	11.661	197.1	0.681118576	0.861943187	0.015430705	0.159195738	0.049065673
2019-07-08T21:30:00	0.2623	11.655	197.0	0.675666877	0.853592624	0.015199561	0.156811070	0.048330695
2019-07-08T21:35:00	0.2637	11.653	197.1	0.680336238	0.860743278	0.015397422	0.158852366	0.048959842
2019-07-08T21:40:00	0.2628	11.650	197.0	0.677170139	0.855892669	0.015263114	0.157466733	0.048532777
2019-07-08T21:45:00	0.2624	11.645	196.8	0.675961940	0.854043928	0.015212024	0.156939651	0.048370325
2019-07-08T21:50:00	0.2629	11.642	184.0	0.677693317	0.856693605	0.015285265	0.157695260	0.048603211
2019-07-08T21:55:00	0.2633	11.640	184.0	0.678771058	0.858344270	0.015330949	0.158166572	0.048748474
2019-07-08T22:00:00	0.2636	11.635	184.0	0.679848480	0.859995448	0.015376691	0.158638484	0.048893922
2019-07-08T22:05:00	0.2637	11.629	183.9	0.680177725	0.860500223	0.015390683	0.158782841	0.048938414
2019-07-08T22:10:00	0.2626	11.625	183.9	0.676589471	0.855003995	0.015238549	0.157213298	0.048454665
2019-07-08T22:15:00	0.2637	11.620	183.9	0.680183564	0.860509176	0.015390931	0.158785402	0.048939203
2019-07-08T22:20:00	0.2624	11.615	183.8	0.675941996	0.854013421	0.015211182	0.156930959	0.048367646
2019-07-08T22:25:00	0.2630	11.609	183.8	0.677904527	0.857017015	0.015294212	0.157787567	0.048631660
2019-07-08T22:30:00	0.2621	11.605	183.8	0.674967644	0.852523436	0.015170047	0.156506583	0.048236849
2019-07-08T22:35:00	0.2623	11.602	183.7	0.675624062	0.853527145	0.015197753	0.156792417	0.048324946
2019-07-08T22:40:00	0.2621	11.597	183.7	0.674973492	0.852532376	0.015170294	0.156509128	0.048237633
2019-07-08T22:45:00	0.2613	11.590	183.7	0.672361267	0.848541764	0.015060301	0.155374350	0.047887884
2019-07-08T22:50:00	0.2615	11.585	183.6	0.673018156	0.849544720	0.015087921	0.155659302	0.047975708
2019-07-08T22:55:00	0.2604	11.581	183.6	0.669422832	0.844059820	0.014937075	0.154103045	0.047496055
2019-07-08T23:00:00	0.2609	11.572	183.5	0.671061769	0.846558747	0.015005740	0.154811450	0.047714392
2019-07-08T23:05:00	0.2622	11.567	183.5	0.675314872	0.853054325	0.015184700	0.156657747	0.048283439
2019-07-08T23:10:00	0.2610	11.562	183.5	0.671394736	0.847066711	0.015019710	0.154955578	0.047758814
2019-07-08T23:15:00	0.2618	11.557	183.5	0.674013504	0.851065151	0.015129823	0.156091595	0.048108945
2019-07-08T23:20:00	0.2614	11.553	183.4	0.672708744	0.849072255	0.015074908	0.155525048	0.047934330
2019-07-08T23:25:00	0.2614	11.547	183.4	0.672711670	0.849076722	0.015075031	0.155526317	0.047934721
2019-07-08T23:30:00	0.2621	11.541	183.4	0.675002731	0.852577077	0.015171528	0.156521854	0.048241556
2019-07-08T23:35:00	0.2631	11.535	183.3	0.678271923	0.857579673	0.015309782	0.157948201	0.048681170
2019-07-08T23:40:00	0.2644	11.530	183.3	0.682516619	0.864088746	0.015490276	0.159810318	0.049255092
2019-07-08T23:45:00	0.2633	11.527	183.2	0.678930667	0.858588813	0.015337720	0.158236434	0.048770006
2019-07-08T23:50:00	0.2624	11.523	183.2	0.675994612	0.854093905	0.015213405	0.156953893	0.048374714
2019-07-08T23:55:00	0.2624	11.520	183.2	0.675997535	0.854098377	0.015213528	0.156955167	0.048375107
2019-07-09T00:00:00	0.2626	11.515	183.2	0.676653768	0.855102383	0.015241268	0.157241351	0.048463311
2019-07-09T00:05:00	0.2619	11.511	183.1	0.674369596	0.851609302	0.015144828	0.156246404	0.048156659
2019-07-09T00:10:00	0.2633	11.507	183.1	0.678945271	0.858611189	0.015338340	0.158242827	0.048771976
2019-07-09T00:15:00	0.2625	11.506	183.1	0.676335896	0.854616008	0.015227828	0.157102692	0.048420576
2019-07-09T00:20:00	0.2635	11.506	183.0	0.679603893	0.859620524	0.015366301	0.158531290	0.048860883
2019-07-09T00:25:00	0.2628	11.503	183.0	0.677321571	0.856124472	0.015269524	0.157532861	0.048553158
2019-07-09T00:30:00	0.2627	11.502	183.0	0.676997913	0.855629058	0.015255826	0.157391542	0.048509602
2019-07-09T00:35:00	0.2617	11.501	183.0	0.673733425	0.850637234	0.015118026	0.155969889	0.048071435
2019-07-09T00:40:00	0.2607	11.500	182.9	0.670466005	0.845650105	0.014980760	0.154553743	0.047634965
2019-07-09T00:45:00	0.2615	11.499	183.0	0.673085442	0.849647475	0.015090752	0.155688505	0.047984709
2019-07-09T00:50:00	0.2613	11.499	182.9	0.672434417	0.848653433	0.015063376	0.155406069	0.047897660
2019-07-09T00:55:00	0.2626	11.498	182.9	0.676685916	0.855151578	0.015242627	0.157255377	0.048467635
2019-07-09T01:00:00	0.2620	11.496	182.9	0.674728577	0.852157978	0.015159964	0.156402550	0.048204785
2019-07-09T01:05:00	0.2605	11.495	182.9	0.669826224	0.844674666	0.014953960	0.154277246	0.047549746
2019-07-09T01:10:00	0.2623	11.493	182.8	0.675714687	0.853665745	0.015201580	0.156831901	0.048337115
2019-07-09T01:15:00	0.2623	11.490	182.8	0.675717610	0.853670216	0.015201704	0.156833174	0.048337507
2019-07-09T01:20:00	0.2621	11.487	182.8	0.675067056	0.852675420	0.015174242	0.156549854	0.048250185
2019-07-09T01:25:00	0.2628	11.486	182.8	0.677356635	0.856178150	0.015271008	0.157548176	0.048557878
2019-07-09T01:30:00	0.2632	11.483	182.7	0.678665572	0.858182664	0.015326474	0.158120409	0.048734246
2019-07-09T01:35:00	0.2626	11.481	182.5	0.676709297	0.855187357	0.015243616	0.157265579	0.048470779
2019-07-09T01:40:00	0.2631	11.477	182.4	0.678344955	0.857691532	0.015312878	0.157980142	0.048691014
2019-07-09T01:45:00	0.2629	11.468	181.7	0.677694870	0.856695983	0.015285331	0.157695939	0.048603420
2019-07-09T01:50:00	0.2640	11.460	181.1	0.681287874	0.862202917	0.015437912	0.159270095	0.049088590
2019-07-09T01:55:00	0.2645	11.455	181.2	0.682921480	0.864710396	0.015507549	0.159988527	0.049310018
2019-07-09T02:00:00	0.2627	11.452	193.6	0.677050514	0.855709566	0.015258052	0.157414505	0.048516679
2019-07-09T02:05:00	0.2616	11.449	181.3	0.673459176	0.850218289	0.015106480	0.155850765	0.048034719
2019-07-09T02:10:00	0.2626	11.446	181.2	0.676729754	0.855218663	0.015244482	0.157274506	0.048473530
2019-07-09T02:15:00	0.2627	11.443	193.5	0.677059281	0.855722985	0.015258422	0.157418332	0.048517859
2019-07-09T02:20:00	0.2605	11.440	181.2	0.669870144	0.844741619	0.014955799	0.154296219	0.047555593
2019-07-09T02:25:00	0.2635	11.439	181.1	0.679676898	0.859732426	0.015369401	0.158563281	0.048870743
2019-07-09T02:30:00	0.2620	11.438	193.6	0.674781211	0.852238434	0.015162183	0.156425451	0.048211843
2019-07-09T02:35:00	0.2616	11.436	181.2	0.673476727	0.850245098	0.015107218	0.155858387	0.048037069
2019-07-09T02:40:00	0.2620	11.434	193.5	0.674787059	0.852247374	0.015162430	0.156427996	0.048212627
2019-07-09T02:45:00	0.2639	11.431	180.9	0.680993759	0.861751714	0.015425392	0.159140929	0.049048780
2019-07-09T02:50:00	0.2631	11.427	180.9	0.678385851	0.857754174	0.015314612	0.157998031	0.048696527
2019-07-09T02:55:00	0.2625	11.425	180.9	0.676429426	0.854759108	0.015231782	0.157143484	0.048433148
2019-07-09T03:00:00	0.2630	11.422	180.9	0.678065209	0.857263082	0.015301021	0.157857810	0.048653310
2019-07-09T03:05:00	0.2644	11.420	193.2	0.682636250	0.864272420	0.015495379	0.159862965	0.049271318
2019-07-09T03:10:00	0.2641	11.417	180.8	0.681660767	0.862775081	0.015453793	0.159433937	0.049139088
2019-07-09T03:15:00	0.2624	11.413	180.7	0.676114458	0.854277235	0.015218469	0.157006137	0.048390816
2019-07-09T03:20:00	0.2627	11.411	180.7	0.677097270	0.855781131	0.015260030	0.157434917	0.048522970
2019-07-09T03:25:00	0.2642	11.409	180.7	0.681995685	0.863289078	0.015468064	0.159581169	0.049184466
2019-07-09T03:30:00	0.2622	11.406	180.7	0.675469822	0.853291267	0.015191241	0.156725229	0.048304238
2019-07-09T03:35:00	0.2644	11.402	192.9	0.682327653	0.863798645	0.015482217	0.159727176	0.049229467
2019-07-09T03:40:00	0.2638	11.399	192.8	0.680373343	0.860800175	0.015399000	0.158868643	0.048964859
2019-07-09T03:45:00	0.2638	11.395	192.7	0.680376262	0.860804652	0.015399124	0.158869923	0.048965253
2019-07-09T03:50:00	0.2641	11.392	180.3	0.681357926	0.862310395	0.015440895	0.159300868	0.049098075
2019-07-09T03:55:00	0.2643	11.389	192.5	0.682013194	0.863315952	0.015468811	0.159588869	0.049186839
2019-07-09T04:00:00	0.2648	11.385	192.4	0.683646476	0.865823955	0.015538507	0.160307914	0.049408456
2019-07-09T04:05:00	0.2654	11.378	192.3	0.685881635	0.869259911	0.015634155	0.161294693	0.049712591
2019-07-09T04:10:00	0.2635	11.372	192.2	0.679639971	0.859675823	0.015367833	0.158547099	0.048865756
2019-07-09T04:15:00	0.2640	11.369	192.2	0.681225210	0.862106778	0.015435244	0.159242570	0.049080107
2019-07-09T04:20:00	0.2634	11.368	179.9	0.679221178	0.859033969	0.015350050	0.158363635	0.048809210
2019-07-09T04:25:00	0.2659	11.365	179.9	0.687325846	0.871482291	0.015696121	0.161933982	0.049909626
2019-07-09T04:30:00	0.2648	11.361	179.9	0.683695547	0.865899343	0.015540604	0.160329544	0.049415122
2019-07-09T04:35:00	0.2648	11.359	192.3	0.683649393	0.865828437	0.015538632	0.160309200	0.049408852
2019-07-09T04:40:00	0.2641	11.359	192.3	0.681646692	0.862753481	0.015453194	0.159427751	0.049137181
2019-07-09T04:45:00	0.2617	11.361	180.4	0.673763711	0.850683503	0.015119302	0.155983047	0.048075490
2019-07-09T04:50:00	0.2636	11.362	180.4	0.679923032	0.860109738	0.015379859	0.158671166	0.048903994
2019-07-09T04:55:00	0.2633	11.363	180.5	0.678897689	0.858538283	0.015336321	0.158221998	0.048765556
2019-07-09T05:00:00	0.2644	11.365	180.5	0.682440421	0.863971762	0.015487026	0.159776789	0.049244758
2019-07-09T05:05:00	0.2651	11.369	180.6	0.684676318	0.867406525	0.015582538	0.160762173	0.049548463
2019-07-09T05:10:00	0.2654	11.371	180.6	0.685607781	0.868838703	0.015622419	0.161173621	0.049675275
2019-07-09T05:15:00	0.2642	11.374	180.5	0.681975774	0.863258518	0.015467216	0.159572414	0.049181768
2019-07-09T05:20:00	0.2641	11.377	180.6	0.681603430	0.862687095	0.015451351	0.159408739	0.049131321
2019-07-09T05:25:00	0.2649	11.380	180.6	0.684165808	0.866621904	0.015560703	0.160536905	0.049479033
2019-07-09T05:30:00	0.2653	11.385	180.6	0.685423257	0.868554927	0.015614515	0.161092068	0.049650140
2019-07-09T05:35:00	0.2679	11.391	180.6	0.693839307	0.881527747	0.015977196	0.164833785	0.050803373
2019-07-09T05:40:00	0.2658	11.398	180.6	0.686959876	0.870918958	0.015680406	0.161771857	0.049859657
2019-07-09T05:45:00	0.2659	11.406	180.4	0.687239456	0.871349302	0.015692410	0.161895704	0.049897828
2019-07-09T05:50:00	0.2668	11.414	180.7	0.690448732	0.876294015	0.015830554	0.163320907	0.050337090
2019-07-09T05:55:00	0.2678	11.417	180.7	0.693655198	0.881243297	0.015969215	0.164751446	0.050777996
2019-07-09T06:00:00	0.2674	11.420	180.7	0.692308485	0.879163519	0.015910900	0.164149819	0.050592568
2019-07-09T06:05:00	0.2675	11.421	180.8	0.692587658	0.879594527	0.015922979	0.164274440	0.050630978
2019-07-09T06:10:00	0.2680	11.425	180.8	0.694167294	0.882034560	0.015991419	0.164980524	0.050848600
2019-07-09T06:15:00	0.2690	11.428	180.8	0.697370510	0.886989142	0.016130680	0.166417247	0.051291412
2019-07-09T06:20:00	0.2690	11.429	180.8	0.697324528	0.886917956	0.016128676	0.166396577	0.051285041
2019-07-09T06:25:00	0.2701	11.431	180.9	0.701173936	0.892883660	0.016296863	0.168131736	0.051819834
2019-07-09T06:30:00	0.2699	11.435	180.9	0.700479048	0.891805791	0.016266434	0.167817804	0.051723077
2019-07-09T06:35:00	0.2687	11.446	180.9	0.696536928	0.885698939	0.016094378	0.166042731	0.051175982
2019-07-09T06:40:00	0.2702	11.457	181.0	0.701360572	0.893173230	0.016305041	0.168216106	0.051845838
2019-07-09T06:45:00	0.2702	11.469	181.0	0.701314640	0.893101962	0.016303029	0.168195340	0.051839437
2019-07-09T06:50:00	0.2676	11.477	181.1	0.692823680	0.879958968	0.015933195	0.164379838	0.050663463
2019-07-09T06:55:00	0.2705	11.479	181.1	0.702195964	0.894469731	0.016341673	0.168594025	0.051962316
2019-07-09T07:00:00	0.2698	11.480	181.1	0.700203379	0.891378306	0.016254371	0.167693350	0.051684719
2019-07-09T07:05:00	0.2706	11.481	181.1	0.702752786	0.895334237	0.016366113	0.168846173	0.052040030
2019-07-09T07:10:00	0.2691	11.488	181.1	0.697839018	0.887714554	0.016151102	0.166627937	0.051356349
2019-07-09T07:15:00	0.2693	11.494	181.1	0.698442470	0.888649185	0.016177426	0.166899519	0.051440053
2019-07-09T07:20:00	0.2694	11.502	181.1	0.698721176	0.889080954	0.016189591	0.167025029	0.051478736
2019-07-09T07:25:00	0.2708	11.509	181.1	0.703217707	0.896056268	0.016386535	0.169056858	0.052104965
2019-07-09T07:30:00	0.2692	11.516	181.2	0.697979850	0.887932647	0.016157243	0.166691297	0.051375877
2019-07-09T07:35:00	0.2714	11.522	181.2	0.705395091	0.899440283	0.016482355	0.170045418	0.052409649
2019-07-09T07:40:00	0.2706	11.529	181.2	0.702755687	0.895338743	0.016366241	0.168847488	0.052040435
2019-07-09T07:45:00	0.2710	11.528	181.2	0.704006778	0.897282138	0.016421225	0.169414753	0.052215272
2019-07-09T07:50:00	0.2726	11.527	181.2	0.709144400	0.905276999	0.016648045	0.171754813	0.052936501
2019-07-09T07:55:00	0.2722	11.527	181.2	0.707803352	0.903187923	0.016588680	0.171142358	0.052747737
2019-07-09T08:00:00	0.2733	11.528	181.2	0.711318286	0.908666790	0.016744517	0.172750090	0.053243256
2019-07-09T08:05:00	0.2717	11.531	181.2	0.706091950	0.900524189	0.016513084	0.170362447	0.052507361
2019-07-09T08:10:00	0.2713	11.548	181.3	0.705073904	0.898940847	0.016468202	0.169899404	0.052364646
2019-07-09T08:15:00	0.2707	11.581	181.4	0.703082879	0.895846859	0.016380611	0.168995745	0.052086130
2019-07-09T08:20:00	0.2718	11.588	181.5	0.706602317	0.901318289	0.016535609	0.170594831	0.052578984
2019-07-09T08:25:00	0.2733	11.579	181.4	0.711412796	0.908814256	0.016748717	0.172793430	0.053256613
2019-07-09T08:30:00	0.2722	11.583	181.5	0.707806249	0.903192436	0.016588809	0.171143680	0.052748144
2019-07-09T08:35:00	0.2734	11.587	181.4	0.711644718	0.909176160	0.016759028	0.172899806	0.053289399
2019-07-09T08:40:00	0.2720	11.597	181.5	0.707066752	0.902041120	0.016556121	0.170806447	0.052644206
2019-07-09T08:45:00	0.2705	11.620	181.6	0.702483091	0.894915484	0.016354273	0.168724021	0.052002382
2019-07-09T08:50:00	0.2702	11.633	181.7	0.701464047	0.893333786	0.016309576	0.168262892	0.051860257
2019-07-09T08:55:00	0.2697	11.654	181.7	0.699795646	0.890746146	0.016236537	0.167509363	0.051628013
2019-07-09T09:00:00	0.2714	11.670	181.8	0.705263242	0.899235252	0.016476544	0.169985471	0.052391173
2019-07-09T09:05:00	0.2692	11.670	181.8	0.698080514	0.888088546	0.016161634	0.166736594	0.051389837
2019-07-09T09:10:00	0.2684	11.677	181.8	0.695435851	0.883995638	0.016046494	0.165548716	0.051023722
2019-07-09T09:15:00	0.2695	11.700	181.9	0.698962613	0.889455042	0.016200134	0.167133796	0.051512259
2019-07-09T09:20:00	0.2689	11.729	182.0	0.697293076	0.886869265	0.016127306	0.166382438	0.051280683
2019-07-09T09:25:00	0.2703	11.771	182.2	0.701791353	0.893841713	0.016323925	0.168410929	0.051905884
2019-07-09T09:30:00	0.2683	11.797	182.3	0.695251821	0.883711058	0.016038498	0.165466225	0.050998297
2019-07-09T09:35:00	0.2687	11.806	182.4	0.696505469	0.885650260	0.016093009	0.166028605	0.051171629
2019-07-09T09:40:00	0.2682	11.803	182.3	0.694834813	0.883066312	0.016020387	0.165279380	0.050940710
2019-07-09T09:45:00	0.2692	11.800	182.3	0.698037446	0.888021846	0.016159755	0.166717213	0.051383864
2019-07-09T09:50:00	0.2681	11.813	182.4	0.694417757	0.882421643	0.016002285	0.165092626	0.050883151
2019-07-09T09:55:00	0.2682	11.838	182.5	0.694696769	0.882852912	0.016014394	0.165217553	0.050921654
2019-07-09T10:00:00	0.2676	11.860	182.6	0.693025288	0.880270309	0.015941925	0.164469897	0.050691220
2019-07-09T10:05:00	0.2678	11.875	182.7	0.693580594	0.881128043	0.015965981	0.164718087	0.050767714
2019-07-09T10:10:00	0.2680	11.890	195.2	0.694135815	0.881985913	0.015990054	0.164966438	0.050844258
2019-07-09T10:15:00	0.2675	11.897	195.3	0.692740330	0.879830262	0.015929587	0.164342613	0.050651990
2019-07-09T10:20:00	0.2686	11.912	195.4	0.696220780	0.885209771	0.016080621	0.165900807	0.051132240
2019-07-09T10:25:00	0.2675	11.919	195.3	0.692550345	0.879536917	0.015921364	0.164257781	0.050625843
2019-07-09T10:30:00	0.2696	11.909	195.3	0.699278525	0.889944597	0.016213934	0.167276170	0.051556140
2019-07-09T10:35:00	0.2681	11.902	195.3	0.694636212	0.882759303	0.016011766	0.165190434	0.050913296
2019-07-09T10:40:00	0.2677	11.910	195.3	0.693240917	0.880603341	0.015951264	0.164566247	0.050720916
2019-07-09T10:45:00	0.2690	11.922	195.4	0.697370510	0.886989142	0.016130680	0.166417247	0.051291412
2019-07-09T10:50:00	0.2681	11.928	182.9	0.694676411	0.882821443	0.016013511	0.165208436	0.050918845
2019-07-09T10:55:00	0.2688	11.930	195.5	0.696855954	0.886192651	0.016108266	0.166186012	0.051220143
2019-07-09T11:00:00	0.2702	11.931	195.4	0.701305931	0.893088450	0.016302647	0.168191403	0.051838224
2019-07-09T11:05:00	0.2695	11.927	195.3	0.698939375	0.889419034	0.016199119	0.167123326	0.051509032
2019-07-09T11:10:00	0.2717	11.928	195.4	0.706303914	0.900853965	0.016522437	0.170458939	0.052537101
2019-07-09T11:15:00	0.2702	11.940	195.5	0.701346058	0.893150709	0.016304405	0.168209544	0.051843815
2019-07-09T11:20:00	0.2702	11.954	195.6	0.701251289	0.893003671	0.016300253	0.168166701	0.051830610
2019-07-09T11:25:00	0.2715	11.958	195.5	0.705695952	0.899908196	0.016495618	0.170182254	0.052451823
2019-07-09T11:30:00	0.2708	11.956	195.5	0.703332220	0.896234138	0.016391567	0.169108772	0.052120966
2019-07-09T11:35:00	0.2709	11.947	195.5	0.703561750	0.896590694	0.016401655	0.169212855	0.052153045
2019-07-09T11:40:00	0.2717	11.933	195.4	0.706060059	0.900474576	0.016511677	0.170347931	0.052502887
2019-07-09T11:45:00	0.2734	11.921	195.4	0.711793194	0.909407873	0.016765631	0.172967925	0.053310394
2019-07-09T11:50:00	0.2711	11.909	195.4	0.704250255	0.897660505	0.016431937	0.169525267	0.052249334
2019-07-09T11:55:00	0.2713	11.900	182.8	0.704803866	0.898521014	0.016456308	0.169776693	0.052326826
2019-07-09T12:00:00	0.2726	11.897	195.4	0.709244246	0.905432600	0.016652470	0.171800459	0.052950570
2019-07-09T12:05:00	0.2710	11.894	195.3	0.703966166	0.897219032	0.016419439	0.169396324	0.052209592
2019-07-09T12:10:00	0.2696	11.898	195.4	0.699329777	0.890024028	0.016216174	0.167299274	0.051563261
2019-07-09T12:15:00	0.2701	11.903	195.4	0.701182131	0.892896374	0.016297222	0.168135440	0.051820975
2019-07-09T12:20:00	0.2681	11.912	195.4	0.694592588	0.882691872	0.016009872	0.165170900	0.050907276
2019-07-09T12:25:00	0.2689	11.928	195.5	0.697096999	0.886565740	0.016118764	0.166294314	0.051253523
2019-07-09T12:30:00	0.2693	11.944	195.6	0.698301141	0.888430266	0.016171259	0.166835894	0.051420443
2019-07-09T12:35:00	0.2696	11.961	195.7	0.699504889	0.890295438	0.016223826	0.167378227	0.051587595
2019-07-09T12:40:00	0.2706	11.982	183.3	0.702654637	0.895181835	0.016361804	0.168801714	0.052026327
2019-07-09T12:45:00	0.2716	11.985	195.8	0.705801690	0.900072663	0.016500281	0.170230358	0.052466650
2019-07-09T12:50:00	0.2686	11.990	195.8	0.696297722	0.885328814	0.016083969	0.165935342	0.051142884
2019-07-09T12:55:00	0.2669	11.993	195.8	0.690675642	0.876643965	0.015840345	0.163421924	0.050368224
2019-07-09T13:00:00	0.2669	12.000	195.9	0.690580598	0.876497378	0.015836244	0.163379607	0.050355182
2019-07-09T13:05:00	0.2677	12.011	196.0	0.693087750	0.880366776	0.015944630	0.164497804	0.050699821
2019-07-09T13:10:00	0.2657	12.011	183.9	0.686809360	0.870687306	0.015673945	0.161705203	0.049839114
2019-07-09T13:15:00	0.2690	11.999	197.1	0.697447428	0.887108224	0.016134031	0.166451828	0.051302070
2019-07-09T13:20:00	0.2699	11.985	197.4	0.700274431	0.891488479	0.016257480	0.167725422	0.051694604
2019-07-09T13:25:00	0.2693	11.971	184.9	0.698556617	0.888826013	0.016182408	0.166950917	0.051455894
2019-07-09T13:30:00	0.2696	11.963	197.4	0.699435698	0.890188194	0.016220802	0.167347029	0.051577979
2019-07-09T13:35:00	0.2702	11.959	197.1	0.701287999	0.893060627	0.016301861	0.168183296	0.051835725
2019-07-09T13:40:00	0.2691	11.962	196.9	0.697622630	0.887379486	0.016141668	0.166530609	0.051326351
2019-07-09T13:45:00	0.2690	11.966	196.7	0.697527765	0.887232606	0.016137533	0.166487950	0.051313203
2019-07-09T13:50:00	0.2685	11.977	196.5	0.695808666	0.884572244	0.016062698	0.165715899	0.051075249
2019-07-09T13:55:00	0.2680	11.983	196.5	0.694088761	0.881913200	0.015988013	0.164945383	0.050837769
2019-07-09T14:00:00	0.2717	11.971	196.3	0.706326079	0.900888451	0.016523415	0.170469031	0.052540211
2019-07-09T14:05:00	0.2720	11.955	196.2	0.707203305	0.902253682	0.016562154	0.170868693	0.052663391
2019-07-09T14:10:00	0.2713	11.932	196.0	0.704840540	0.898578029	0.016457923	0.169793356	0.052331961
2019-07-09T14:15:00	0.2700	11.919	195.9	0.700854256	0.892387738	0.016282861	0.167987274	0.051775309
2019-07-09T14:20:00	0.2705	11.915	195.8	0.702381519	0.894757789	0.016349815	0.168678029	0.051988207
2019-07-09T14:25:00	0.2695	11.914	195.8	0.699041888	0.889577882	0.016203596	0.167169517	0.051523269
2019-07-09T14:30:00	0.2722	11.919	195.8	0.707701926	0.903029987	0.016584195	0.171096084	0.052733475
2019-07-09T14:35:00	0.2706	11.926	195.8	0.702745953	0.895323628	0.016365813	0.168843078	0.052039076
2019-07-09T14:40:00	0.2688	11.936	195.8	0.696808935	0.886119881	0.016106219	0.166164891	0.051213633
2019-07-09T14:45:00	0.2708	11.946	195.9	0.703205073	0.896036644	0.016385980	0.169051131	0.052103200
2019-07-09T14:50:00	0.2704	11.953	195.9	0.702137404	0.894378828	0.016339104	0.168567519	0.051954146
2019-07-09T14:55:00	0.2711	11.959	196.0	0.704312526	0.897757283	0.016434678	0.169553538	0.052258047
2019-07-09T15:00:00	0.2709	11.962	196.0	0.703569426	0.896602618	0.016401993	0.169216336	0.052154118
2019-07-09T15:05:00	0.2714	11.967	196.0	0.705095562	0.898974522	0.016469156	0.169909247	0.052367680
2019-07-09T15:10:00	0.2707	11.973	196.1	0.703055737	0.895804704	0.016379419	0.168983443	0.052082338
2019-07-09T15:15:00	0.2688	11.973	196.1	0.696794403	0.886097390	0.016105586	0.166158363	0.051211621
2019-07-09T15:20:00	0.2700	11.973	196.1	0.700595521	0.891986428	0.016271533	0.167870402	0.051739288
2019-07-09T15:25:00	0.2697	11.976	196.2	0.699851669	0.890832998	0.016238987	0.167534637	0.051635802
2019-07-09T15:30:00	0.2692	11.975	196.1	0.698133658	0.888170856	0.016163952	0.166760510	0.051397209
2019-07-09T15:35:00	0.2667	11.974	196.2	0.689911788	0.875466094	0.015807397	0.163081997	0.050263455
2019-07-09T15:40:00	0.2670	11.977	196.2	0.691118292	0.877326766	0.015859456	0.163619081	0.050428990
2019-07-09T15:45:00	0.2676	11.982	196.3	0.692974795	0.880192330	0.015939738	0.164447339	0.050684267
2019-07-09T15:50:00	0.2662	11.984	183.7	0.688324487	0.873020075	0.015739044	0.162376816	0.050046112
2019-07-09T15:55:00	0.2675	11.983	196.3	0.692459622	0.879396847	0.015917439	0.164217279	0.050613360
2019-07-09T16:00:00	0.2669	11.979	183.7	0.690738144	0.876740366	0.015843043	0.163449755	0.050376802
2019-07-09T16:05:00	0.2651	11.974	196.3	0.684787463	0.867577377	0.015587294	0.160811239	0.049563586
2019-07-09T16:10:00	0.2636	11.977	196.3	0.679806232	0.859930683	0.015374896	0.158619966	0.048888214
2019-07-09T16:15:00	0.2636	11.978	196.3	0.679716745	0.859793506	0.015371094	0.158580744	0.048876126
2019-07-09T16:20:00	0.2647	11.980	196.3	0.683541463	0.865662633	0.015534021	0.160261631	0.049394191
2019-07-09T16:25:00	0.2634	11.986	196.4	0.679211381	0.859018956	0.015349634	0.158359345	0.048807888
2019-07-09T16:30:00	0.2641	11.987	196.4	0.681405994	0.862384145	0.015442942	0.159321985	0.049104583
2019-07-09T16:35:00	0.2636	11.985	196.4	0.680011480	0.860245336	0.015383617	0.158709943	0.048915946
2019-07-09T16:40:00	0.2629	11.984	196.4	0.677636953	0.856607305	0.015282878	0.157670631	0.048595620
2019-07-09T16:45:00	0.2631	11.984	196.4	0.678200444	0.857470195	0.015306752	0.157916942	0.048671535
2019-07-09T16:50:00	0.2637	11.983	196.4	0.680069360	0.860334075	0.015386077	0.158735321	0.048923768
2019-07-09T16:55:00	0.2631	11.985	196.4	0.678347876	0.857696007	0.015313002	0.157981420	0.048691408
2019-07-09T17:00:00	0.2621	11.984	196.5	0.674992071	0.852560781	0.015171078	0.156517215	0.048240126
2019-07-09T17:05:00	0.2622	11.981	183.9	0.675229234	0.852923380	0.015181085	0.156620458	0.048271946
2019-07-09T17:10:00	0.2631	11.976	196.5	0.678405782	0.857784703	0.015315457	0.158006749	0.048699214
2019-07-09T17:15:00	0.2608	11.974	196.5	0.670799546	0.846158774	0.014994742	0.154697993	0.047679424
2019-07-09T17:20:00	0.2624	11.970	196.5	0.675940627	0.854011327	0.015211124	0.156930362	0.048367462
2019-07-09T17:25:00	0.2628	11.967	196.6	0.677157600	0.855873475	0.015262583	0.157461258	0.048531089
2019-07-09T17:30:00	0.2629	11.964	196.5	0.677721166	0.856736246	0.015286444	0.157707429	0.048606961
2019-07-09T17:35:00	0.2612	11.959	196.5	0.672076247	0.848106702	0.015048325	0.155250797	0.047849803
2019-07-09T17:40:00	0.2620	11.955	196.5	0.674601986	0.851964481	0.015154625	0.156347477	0.048187811
2019-07-09T17:45:00	0.2643	11.950	196.5	0.682021432	0.863328596	0.015469162	0.159592491	0.049187956
2019-07-09T17:50:00	0.2628	11.942	196.5	0.677362997	0.856187889	0.015271277	0.157550954	0.048558734
2019-07-09T17:55:00	0.2633	11.937	196.5	0.678905933	0.858550916	0.015336671	0.158225607	0.048766669
2019-07-09T18:00:00	0.2616	11.933	196.5	0.673262853	0.849918424	0.015098217	0.155765518	0.048008446
2019-07-09T18:05:00	0.2613	11.929	196.4	0.672519269	0.848782972	0.015066942	0.155442865	0.047909001
2019-07-09T18:10:00	0.2619	11.922	196.4	0.674391103	0.851642171	0.015145735	0.156255756	0.048159542
2019-07-09T18:15:00	0.2611	11.916	196.4	0.671685848	0.847510903	0.015031930	0.155081647	0.047797670
2019-07-09T18:20:00	0.2631	11.913	196.4	0.678131884	0.857365193	0.015303846	0.157886963	0.048662295
2019-07-09T18:25:00	0.2615	11.912	196.4	0.673141543	0.849733152	0.015093112	0.155712856	0.047992215
2019-07-09T18:30:00	0.2617	11.911	196.4	0.673705731	0.850594926	0.015116860	0.155957858	0.048067726
2019-07-09T18:35:00	0.2625	11.909	196.5	0.676230340	0.854454515	0.015223366	0.157056662	0.048406388
2019-07-09T18:40:00	0.2630	11.904	196.4	0.677773756	0.856816771	0.015288672	0.157730412	0.048614045
2019-07-09T18:45:00	0.2618	11.897	196.4	0.674090581	0.851182926	0.015133070	0.156125097	0.048119271
2019-07-09T18:50:00	0.2624	11.889	196.4	0.675961607	0.854043418	0.015212010	0.156939506	0.048370280
2019-07-09T18:55:00	0.2622	11.881	196.4	0.675218575	0.852907083	0.015180635	0.156615817	0.048270516
2019-07-09T19:00:00	0.2627	11.872	196.4	0.677089021	0.855768505	0.015259681	0.157431316	0.048521861
2019-07-09T19:05:00	0.2615	11.863	196.3	0.673078221	0.849636447	0.015090448	0.155685371	0.047983743
2019-07-09T19:10:00	0.2637	11.855	196.3	0.680174472	0.860495236	0.015390545	0.158781415	0.048937974
2019-07-09T19:15:00	0.2633	11.845	196.3	0.678779488	0.858357185	0.015331306	0.158170261	0.048749611
2019-07-09T19:20:00	0.2638	11.835	196.2	0.680648107	0.861221543	0.015410685	0.158989200	0.049002016
2019-07-09T19:25:00	0.2641	11.826	196.2	0.681537336	0.862585675	0.015448536	0.159379694	0.049122370
2019-07-09T19:30:00	0.2638	11.818	196.1	0.680469171	0.860947126	0.015403075	0.158910683	0.048977816
2019-07-09T19:35:00	0.2635	11.808	196.1	0.679400693	0.859309080	0.015357671	0.158442263	0.048833444
2019-07-09T19:40:00	0.2644	11.798	196.0	0.682573609	0.864176244	0.015492707	0.159835397	0.049262822
2019-07-09T19:45:00	0.2630	11.789	196.0	0.677915880	0.857034400	0.015294693	0.157792529	0.048633190
2019-07-09T19:50:00	0.2633	11.779	196.0	0.678805775	0.858397460	0.015332422	0.158181767	0.048753157
2019-07-09T19:55:00	0.2640	11.771	195.9	0.681326854	0.862262721	0.015439572	0.159287218	0.049093867
2019-07-09T20:00:00	0.2661	11.760	183.3	0.688081500	0.872645825	0.015728594	0.162269008	0.050012884
2019-07-09T20:05:00	0.2641	11.749	183.3	0.681474159	0.862488736	0.015445845	0.159351934	0.049113814
2019-07-09T20:10:00	0.2656	11.740	195.9	0.686274464	0.869864225	0.015650997	0.161468449	0.049766144
2019-07-09T20:15:00	0.2639	11.734	195.8	0.680969039	0.861713794	0.015424340	0.159130075	0.049045435
2019-07-09T20:20:00	0.2651	11.726	195.8	0.684792446	0.867585037	0.015587507	0.160813439	0.049564264
2019-07-09T20:25:00	0.2623	11.717	195.7	0.675566297	0.853438803	0.015195314	0.156767252	0.048317190
2019-07-09T20:30:00	0.2652	11.708	183.2	0.684939612	0.867811278	0.015593806	0.160878419	0.049584291
2019-07-09T20:35:00	0.2637	11.699	183.1	0.680284904	0.860664563	0.015395240	0.158829849	0.048952902
2019-07-09T20:40:00	0.2635	11.691	195.7	0.679542753	0.859526811	0.015363704	0.158504500	0.048852626
2019-07-09T20:45:00	0.2629	11.682	183.0	0.677494485	0.856389184	0.015276844	0.157608389	0.048576436
2019-07-09T20:50:00	0.2639	11.673	183.0	0.680995311	0.861754094	0.015425458	0.159141610	0.049048990
2019-07-09T20:55:00	0.2645	11.664	195.6	0.682862796	0.864620280	0.015505045	0.159962690	0.049302054
2019-07-09T21:00:00	0.2631	11.656	195.5	0.678205436	0.857477841	0.015306964	0.157919125	0.048672208
2019-07-09T21:05:00	0.2625	11.647	195.4	0.676156415	0.854341422	0.015220242	0.157024429	0.048396454
2019-07-09T21:10:00	0.2632	11.638	182.8	0.678679326	0.858203736	0.015327058	0.158126428	0.048736101
2019-07-09T21:15:00	0.2631	11.630	182.8	0.678263344	0.857566533	0.015309419	0.157944449	0.048680013
2019-07-09T21:20:00	0.2639	11.620	195.3	0.680784798	0.861431190	0.015416500	0.159049193	0.049020506
2019-07-09T21:25:00	0.2633	11.613	182.7	0.678737227	0.858292440	0.015329514	0.158151766	0.048743910
2019-07-09T21:30:00	0.2622	11.607	195.2	0.675381782	0.853156638	0.015187524	0.156686885	0.048292420
2019-07-09T21:35:00	0.2629	11.600	182.4	0.677578701	0.856518119	0.015280411	0.157645180	0.048587776
2019-07-09T21:40:00	0.2633	11.593	182.5	0.678795127	0.858381146	0.015331970	0.158177106	0.048751720
2019-07-09T21:45:00	0.2632	11.587	182.4	0.678705615	0.858244009	0.015328173	0.158137932	0.048739646
2019-07-09T21:50:00	0.2642	11.581	195.0	0.681879136	0.863110199	0.015463097	0.159529925	0.049168672
2019-07-09T21:55:00	0.2650	11.575	195.3	0.684398092	0.866978881	0.015570636	0.160639382	0.049510618
2019-07-09T22:00:00	0.2639	11.571	194.9	0.680721608	0.861334272	0.015413812	0.159021458	0.049011958
2019-07-09T22:05:00	0.2642	11.564	182.4	0.681795536	0.862981898	0.015459535	0.159493174	0.049157345
2019-07-09T22:10:00	0.2647	11.560	182.5	0.683521228	0.865631549	0.015533157	0.160252714	0.049391443
2019-07-09T22:15:00	0.2630	11.555	195.2	0.678070202	0.857270727	0.015301232	0.157859993	0.048653983
2019-07-09T22:20:00	0.2640	11.551	182.3	0.681102799	0.861918983	0.015430033	0.159188809	0.049063537
2019-07-09T22:25:00	0.2630	11.547	182.4	0.677934445	0.857062829	0.015295480	0.157800644	0.048635691
2019-07-09T22:30:00	0.2624	11.542	182.2	0.676070279	0.854209653	0.015216602	0.156986877	0.048384880
2019-07-09T22:35:00	0.2640	11.538	182.3	0.681062450	0.861857086	0.015428316	0.159171091	0.049058076
2019-07-09T22:40:00	0.2632	11.533	194.7	0.678547031	0.858001069	0.015321447	0.158068541	0.048718259
2019-07-09T22:45:00	0.2643	11.528	182.1	0.682231542	0.863651105	0.015478119	0.159684897	0.049216436
2019-07-09T22:50:00	0.2639	11.521	182.2	0.680695851	0.861294768	0.015412716	0.159010154	0.049008474
2019-07-09T22:55:00	0.2622	11.516	194.8	0.675240595	0.852940752	0.015181565	0.156625405	0.048273471
2019-07-09T23:00:00	0.2626	11.507	194.7	0.676642781	0.855085570	0.015240803	0.157236557	0.048461834
2019-07-09T23:05:00	0.2617	11.499	182.0	0.673797440	0.850735033	0.015120722	0.155997702	0.048080007
2019-07-09T23:10:00	0.2621	11.493	194.8	0.674873411	0.852379377	0.015166072	0.156465572	0.048224209
2019-07-09T23:15:00	0.2611	11.486	182.0	0.671699629	0.847531932	0.015032508	0.155087616	0.047799510
2019-07-09T23:20:00	0.2619	11.478	182.0	0.674410722	0.851672155	0.015146562	0.156264288	0.048162171
2019-07-09T23:25:00	0.2631	11.469	181.8	0.678099416	0.857315468	0.015302470	0.157872766	0.048657920
2019-07-09T23:30:00	0.2633	11.462	181.9	0.678847702	0.858461697	0.015334200	0.158200118	0.048758813
2019-07-09T23:35:00	0.2632	11.454	181.9	0.678616618	0.858107669	0.015324398	0.158098988	0.048727643
2019-07-09T23:40:00	0.2631	11.449	181.8	0.678385519	0.857753665	0.015314598	0.157997885	0.048696483
2019-07-09T23:45:00	0.2630	11.444	181.7	0.677827899	0.856899677	0.015290966	0.157754074	0.048621338
2019-07-09T23:50:00	0.2620	11.436	181.8	0.674656695	0.852048103	0.015156932	0.156371277	0.048195146
2019-07-09T23:55:00	0.2610	11.429	181.7	0.671482724	0.847200960	0.015023403	0.154993677	0.047770556
2019-07-10T00:00:00	0.2626	11.423	181.7	0.676481184	0.854838302	0.015233970	0.157166060	0.048440106
2019-07-10T00:05:00	0.2625	11.416	194.0	0.676249949	0.854484515	0.015224195	0.157065212	0.048409024
2019-07-10T00:10:00	0.2613	11.411	181.5	0.672423417	0.848636640	0.015062913	0.155401299	0.047896189
2019-07-10T00:15:00	0.2611	11.405	181.6	0.671864883	0.847784117	0.015039447	0.155159206	0.047821574
2019-07-10T00:20:00	0.2619	11.399	194.0	0.674249027	0.851425045	0.015139747	0.156193978	0.048140501
2019-07-10T00:25:00	0.2628	11.393	181.4	0.677284805	0.856068191	0.015267967	0.157516805	0.048548209
2019-07-10T00:30:00	0.2616	11.389	181.4	0.673459361	0.850218572	0.015106487	0.155850845	0.048034744
2019-07-10T00:35:00	0.2621	11.386	181.3	0.674862233	0.852362290	0.015165601	0.156460707	0.048222710
2019-07-10T00:40:00	0.2617	11.381	181.3	0.673650342	0.850510309	0.015114528	0.155933796	0.048060310
2019-07-10T00:45:00	0.2601	11.378	181.3	0.668511877	0.842671861	0.014898980	0.153710035	0.047374926
2019-07-10T00:50:00	0.2628	11.374	181.4	0.677108626	0.855798513	0.015260511	0.157439875	0.048524499
2019-07-10T00:55:00	0.2609	11.370	181.3	0.670993779	0.846455034	0.015002888	0.154782028	0.047705324
2019-07-10T01:00:00	0.2626	11.366	193.7	0.676646221	0.855090835	0.015240949	0.157238058	0.048462296
2019-07-10T01:05:00	0.2624	11.363	181.3	0.676088335	0.854237275	0.015217365	0.156994748	0.048387306
2019-07-10T01:10:00	0.2611	11.359	181.2	0.671607534	0.847391400	0.015028642	0.155047727	0.047787215
2019-07-10T01:15:00	0.2599	11.356	181.1	0.667776109	0.841551344	0.014868250	0.153392991	0.047277209
2019-07-10T01:20:00	0.2609	11.352	181.1	0.671144430	0.846684843	0.015009207	0.154847224	0.047725418
2019-07-10T01:25:00	0.2612	11.348	181.2	0.671894148	0.847828778	0.015040676	0.155171886	0.047825482
2019-07-10T01:30:00	0.2620	11.343	181.1	0.674605096	0.851969233	0.015154757	0.156348830	0.048188228
2019-07-10T01:35:00	0.2627	11.340	181.0	0.676987444	0.855613035	0.015255383	0.157386972	0.048508193
2019-07-10T01:40:00	0.2623	11.337	181.0	0.675776261	0.853759920	0.015204181	0.156858731	0.048345384
2019-07-10T01:45:00	0.2614	11.334	180.9	0.672603268	0.848911213	0.015070473	0.155479296	0.047920229
2019-07-10T01:50:00	0.2632	11.330	180.9	0.678579680	0.858051083	0.015322831	0.158082826	0.048722662
2019-07-10T01:55:00	0.2625	11.326	181.0	0.676389210	0.854697577	0.015230082	0.157125944	0.048427742
2019-07-10T02:00:00	0.2614	11.324	180.7	0.672562824	0.848849467	0.015068773	0.155461754	0.047914823
2019-07-10T02:05:00	0.2623	11.322	181.0	0.675600009	0.853490359	0.015196737	0.156781938	0.048321716
2019-07-10T02:10:00	0.2623	11.319	180.9	0.675695444	0.853636315	0.015200768	0.156823517	0.048334531
2019-07-10T02:15:00	0.2622	11.318	180.8	0.675464160	0.853282609	0.015191002	0.156722763	0.048303478
2019-07-10T02:20:00	0.2624	11.316	180.9	0.675886308	0.853928240	0.015208829	0.156906688	0.048360165
2019-07-10T02:25:00	0.2616	11.314	180.7	0.673367310	0.850077969	0.015102613	0.155810872	0.048022424
2019-07-10T02:30:00	0.2628	11.313	180.6	0.677383636	0.856219484	0.015272151	0.157559969	0.048561513
2019-07-10T02:35:00	0.2635	11.311	180.8	0.679437807	0.859365963	0.015359247	0.158458522	0.048838455
2019-07-10T02:40:00	0.2630	11.309	180.8	0.677900939	0.857011521	0.015294060	0.157785999	0.048631177
2019-07-10T02:45:00	0.2634	11.307	180.9	0.679302101	0.859157983	0.015353485	0.158399077	0.048820134
2019-07-10T02:50:00	0.2626	11.305	180.9	0.676458838	0.854804111	0.015233025	0.157156313	0.048437102
2019-07-10T02:55:00	0.2626	11.301	180.8	0.676554251	0.854950103	0.015237059	0.157197934	0.048449930
2019-07-10T03:00:00	0.2645	11.298	180.7	0.682850276	0.864601054	0.015504511	0.159957178	0.049300356
2019-07-10T03:05:00	0.2635	11.296	180.8	0.679683440	0.859742455	0.015369679	0.158566149	0.048871627
2019-07-10T03:10:00	0.2640	11.294	180.7	0.681083917	0.861890018	0.015429230	0.159180518	0.049060982
2019-07-10T03:15:00	0.2636	11.290	180.6	0.679874095	0.860034715	0.015377779	0.158649713	0.048897382
2019-07-10T03:20:00	0.2641	11.288	193.1	0.681600696	0.862682900	0.015451234	0.159407537	0.049130951
2019-07-10T03:25:00	0.2667	11.285	180.4	0.689841236	0.875357328	0.015804355	0.163050619	0.050253784
2019-07-10T03:30:00	0.2647	11.282	180.6	0.683421714	0.865478683	0.015528906	0.160208862	0.049377927
2019-07-10T03:35:00	0.2640	11.279	180.4	0.681234152	0.862120496	0.015435625	0.159246498	0.049081317
2019-07-10T03:40:00	0.2653	11.277	180.4	0.685567667	0.868777009	0.015620701	0.161155890	0.049669810
2019-07-10T03:45:00	0.2646	11.276	180.6	0.683055352	0.864915984	0.015513263	0.160047478	0.049328187
2019-07-10T03:50:00	0.2640	11.274	180.4	0.681193804	0.862058596	0.015433907	0.159228777	0.049075855
2019-07-10T03:55:00	0.2642	11.266	180.4	0.681941456	0.863205846	0.015465753	0.159557325	0.049177117
2019-07-10T04:00:00	0.2662	11.258	180.4	0.688228202	0.872871769	0.015734903	0.162334092	0.050032944
2019-07-10T04:05:00	0.2660	11.250	180.4	0.687620152	0.871935396	0.015708764	0.162064422	0.049949829
2019-07-10T04:10:00	0.2678	11.243	180.4	0.693520203	0.881034749	0.015963364	0.164691086	0.050759392
2019-07-10T04:15:00	0.2673	11.234	180.2	0.691937376	0.878590678	0.015894850	0.163984235	0.050541534
2019-07-10T04:20:00	0.2669	11.226	180.1	0.690679254	0.876649536	0.015840501	0.163423532	0.050368720
2019-07-10T04:25:00	0.2648	11.216	180.0	0.683883260	0.866187743	0.015548625	0.160412298	0.049440628
2019-07-10T04:30:00	0.2669	11.208	180.0	0.690765562	0.876782656	0.015844227	0.163461965	0.050380565
2019-07-10T04:35:00	0.2672	11.201	179.9	0.691459381	0.877853024	0.015874190	0.163771089	0.050475840
2019-07-10T04:40:00	0.2665	11.189	179.7	0.689224717	0.874407054	0.015777791	0.162776558	0.050169316
2019-07-10T04:45:00	0.2664	11.177	179.7	0.688942375	0.873971976	0.015765633	0.162651130	0.050130658
2019-07-10T04:50:00	0.2673	11.163	179.6	0.691914093	0.878554743	0.015893843	0.163973849	0.050538333
2019-07-10T04:55:00	0.2664	11.153	179.5	0.689028724	0.874105030	0.015769351	0.162689484	0.050142479
2019-07-10T05:00:00	0.2660	11.145	191.7	0.687769601	0.872165513	0.015715186	0.162130681	0.049970250
2019-07-10T05:05:00	0.2681	11.137	191.6	0.694644605	0.882772277	0.016012130	0.165194193	0.050914455
2019-07-10T05:10:00	0.2691	11.130	179.5	0.697936450	0.887865435	0.016155350	0.166671770	0.051369858
2019-07-10T05:15:00	0.2678	11.124	179.4	0.693430534	0.880896232	0.015959479	0.164651000	0.050747037
2019-07-10T05:20:00	0.2695	11.121	179.3	0.698996625	0.889507745	0.016201619	0.167149121	0.051516983
2019-07-10T05:25:00	0.2681	11.119	179.3	0.694492012	0.882536413	0.016005507	0.165125869	0.050893396
2019-07-10T05:30:00	0.2688	11.116	179.3	0.696809634	0.886120963	0.016106249	0.166165205	0.051213730
2019-07-10T05:35:00	0.2686	11.113	179.2	0.696203007	0.885182273	0.016079848	0.165892830	0.051129781
2019-07-10T05:40:00	0.2681	11.116	179.3	0.694621339	0.882736314	0.016011120	0.165183774	0.050911244
2019-07-10T05:45:00	0.2698	11.118	178.9	0.700185626	0.891350777	0.016253594	0.167685336	0.051682249
2019-07-10T05:50:00	0.2697	11.120	179.2	0.699579556	0.890411174	0.016227090	0.167411898	0.051597973
2019-07-10T05:55:00	0.2694	11.121	179.2	0.698648734	0.888968722	0.016186429	0.166992402	0.051468680
2019-07-10T06:00:00	0.2703	11.123	179.3	0.701612602	0.893564309	0.016316088	0.168330073	0.051880963
2019-07-10T06:05:00	0.2683	11.119	191.4	0.695161864	0.883571961	0.016034590	0.165425909	0.050985872
2019-07-10T06:10:00	0.2698	11.115	179.2	0.700076308	0.891181275	0.016248812	0.167635998	0.051667043
2019-07-10T06:15:00	0.2724	11.123	191.5	0.708547652	0.904347196	0.016621615	0.171482136	0.052852460
2019-07-10T06:20:00	0.2704	11.130	179.2	0.702109079	0.894334860	0.016337861	0.168554699	0.051950195
2019-07-10T06:25:00	0.2704	11.141	179.2	0.702152099	0.894401639	0.016339748	0.168574170	0.051956196
2019-07-10T06:30:00	0.2714	11.140	179.1	0.705113146	0.899001861	0.016469931	0.169917240	0.052370143
2019-07-10T06:35:00	0.2696	11.147	179.2	0.699317828	0.890005510	0.016215652	0.167293888	0.051561601
2019-07-10T06:40:00	0.2709	11.157	179.3	0.703578313	0.896616424	0.016402383	0.169220367	0.052155360
2019-07-10T06:45:00	0.2688	11.169	179.4	0.696806213	0.886115667	0.016106100	0.166163668	0.051213256
2019-07-10T06:50:00	0.2681	11.185	179.5	0.694574807	0.882664387	0.016009100	0.165162939	0.050904822
2019-07-10T06:55:00	0.2709	11.194	179.5	0.703707320	0.896816849	0.016408055	0.169278883	0.052173396
2019-07-10T07:00:00	0.2707	11.200	179.4	0.703101831	0.895876293	0.016381444	0.169004334	0.052088777
2019-07-10T07:05:00	0.2715	11.219	179.6	0.705414031	0.899469737	0.016483190	0.170054031	0.052412304
2019-07-10T07:10:00	0.2723	11.239	179.7	0.708048632	0.903569902	0.016599530	0.171254290	0.052782235
2019-07-10T07:15:00	0.2714	11.243	179.7	0.705175916	0.899099463	0.016472696	0.169945772	0.052378937
2019-07-10T07:20:00	0.2737	11.266	179.7	0.712665384	0.910769420	0.016804446	0.173368368	0.053433815
2019-07-10T07:25:00	0.2719	11.269	179.7	0.706881946	0.901753472	0.016547957	0.170722225	0.052618248
2019-07-10T07:30:00	0.2747	11.273	179.6	0.715984024	0.915956103	0.016952569	0.174896530	0.053904809
2019-07-10T07:35:00	0.2726	11.350	180.0	0.709234712	0.905417743	0.016652047	0.171796100	0.052949227
2019-07-10T07:40:00	0.2715	11.311	179.9	0.705714891	0.899937653	0.016496453	0.170190869	0.052454479
2019-07-10T07:45:00	0.2744	11.310	179.9	0.714819844	0.914135518	0.016900529	0.174359640	0.053739334
2019-07-10T07:50:00	0.2745	11.345	180.0	0.715185944	0.914707909	0.016916885	0.174528381	0.053791342
2019-07-10T07:55:00	0.2734	11.322	179.9	0.711671797	0.909218419	0.016760232	0.172912228	0.053293228
2019-07-10T08:00:00	0.2735	11.327	179.9	0.712038209	0.909790291	0.016776530	0.173080368	0.053345050
2019-07-10T08:05:00	0.2722	11.340	192.4	0.707873412	0.903297025	0.016591779	0.171174326	0.052757590
2019-07-10T08:10:00	0.2712	11.367	180.3	0.704676439	0.898322923	0.016450697	0.169718804	0.052308984
2019-07-10T08:15:00	0.2736	11.359	180.0	0.712490384	0.910496180	0.016796654	0.173287982	0.053409039
2019-07-10T08:20:00	0.2728	11.369	180.0	0.709621127	0.906020018	0.016669176	0.171972814	0.053003691
2019-07-10T08:25:00	0.2722	11.388	180.1	0.707721368	0.903060260	0.016585055	0.171104953	0.052736208
2019-07-10T08:30:00	0.2729	11.401	180.2	0.710030671	0.906658484	0.016687340	0.172160209	0.053061448
2019-07-10T08:35:00	0.2751	11.403	180.2	0.717187280	0.917839039	0.017006446	0.175452364	0.054076123
2019-07-10T08:40:00	0.2737	11.409	180.3	0.712704874	0.910831083	0.016806204	0.173386511	0.053439407
2019-07-10T08:45:00	0.2730	11.421	180.2	0.710483092	0.907363965	0.016707418	0.172367350	0.053125291
2019-07-10T08:50:00	0.2730	11.453	180.4	0.710526014	0.907430905	0.016709323	0.172387009	0.053131350
2019-07-10T08:55:00	0.2733	11.467	180.5	0.711539661	0.909012216	0.016754357	0.172851614	0.053274546
2019-07-10T09:00:00	0.2745	11.474	180.4	0.715139671	0.914635556	0.016914817	0.174507048	0.053784767
2019-07-10T09:05:00	0.2728	11.488	180.6	0.709683821	0.906117747	0.016671956	0.172001494	0.053012531
2019-07-10T09:10:00	0.2726	11.543	180.9	0.709079314	0.905175571	0.016645161	0.171725062	0.052927332
2019-07-10T09:15:00	0.2748	11.569	180.9	0.716237765	0.916353068	0.016963923	0.175013666	0.053940911
2019-07-10T09:20:00	0.2749	11.601	181.1	0.716603724	0.916925693	0.016980305	0.175182678	0.053993003
2019-07-10T09:25:00	0.2747	11.623	181.1	0.716000348	0.915981639	0.016953299	0.174904065	0.053907131
2019-07-10T09:30:00	0.2754	11.635	181.3	0.718304482	0.919588445	0.017056550	0.175969285	0.054235443
2019-07-10T09:35:00	0.2736	11.685	181.5	0.712206416	0.910052858	0.016784015	0.173157584	0.053368849
2019-07-10T09:40:00	0.2737	11.713	181.7	0.712572774	0.910624819	0.016800322	0.173325826	0.053420703
2019-07-10T09:45:00	0.2717	11.753	194.3	0.706141236	0.900600865	0.016515259	0.170384880	0.052514275
2019-07-10T09:50:00	0.2734	11.816	182.1	0.711688140	0.909243923	0.016760959	0.172919726	0.053295539
2019-07-10T09:55:00	0.2738	11.869	182.4	0.713024884	0.911330816	0.016820458	0.173533566	0.053484730
2019-07-10T10:00:00	0.2733	11.890	194.9	0.711450431	0.908872980	0.016750390	0.172810689	0.053261933
2019-07-10T10:05:00	0.2730	11.960	182.7	0.710470995	0.907345101	0.016706881	0.172361810	0.053123584
2019-07-10T10:10:00	0.2722	11.980	195.4	0.707872385	0.903295425	0.016591734	0.171173857	0.052757445
2019-07-10T10:15:00	0.2740	12.044	195.7	0.713688478	0.912367383	0.016850037	0.173838722	0.053578782
2019-07-10T10:20:00	0.2738	12.056	183.2	0.713033052	0.911343573	0.016820822	0.173537321	0.053485888
2019-07-10T10:25:00	0.2716	12.105	183.7	0.705902654	0.900229714	0.016504734	0.170276298	0.052480809
2019-07-10T10:30:00	0.2724	12.131	183.7	0.708485269	0.904250014	0.016618853	0.171453644	0.052843678
2019-07-10T10:35:00	0.2700	12.155	196.4	0.700697143	0.892144041	0.016275981	0.167916300	0.051753434
2019-07-10T10:40:00	0.2727	12.182	196.5	0.709439163	0.905736388	0.016661109	0.171889587	0.052978040
2019-07-10T10:45:00	0.2727	12.191	196.6	0.709430473	0.905722844	0.016660723	0.171885613	0.052976815
2019-07-10T10:50:00	0.2710	12.216	196.7	0.703914464	0.897138696	0.016417165	0.169372863	0.052202361
2019-07-10T10:55:00	0.2711	12.243	196.8	0.704229950	0.897628949	0.016431044	0.169516050	0.052246493
2019-07-10T11:00:00	0.2712	12.269	197.1	0.704545409	0.898119247	0.016444928	0.169659289	0.052290641
2019-07-10T11:05:00	0.2700	12.302	197.1	0.700644881	0.892062982	0.016273693	0.167892694	0.051746159
2019-07-10T11:10:00	0.2706	12.331	197.4	0.702582603	0.895069989	0.016358641	0.168769088	0.052016272
2019-07-10T11:15:00	0.2713	12.355	184.9	0.704843441	0.898582537	0.016458051	0.169794673	0.052332367
2019-07-10T11:20:00	0.2705	12.400	197.7	0.702240856	0.894539420	0.016343642	0.168614347	0.051968579
2019-07-10T11:25:00	0.2714	12.395	185.1	0.705150147	0.899059395	0.016471561	0.169934058	0.052375327
2019-07-10T11:30:00	0.2699	12.419	185.2	0.700276820	0.891492184	0.016257584	0.167726501	0.051694936
2019-07-10T11:35:00	0.2699	12.453	185.4	0.700268108	0.891478676	0.016257203	0.167722568	0.051693724
2019-07-10T11:40:00	0.2692	12.484	185.6	0.697987022	0.887943754	0.016157556	0.166694524	0.051376871
2019-07-10T11:45:00	0.2690	12.526	198.4	0.697328795	0.886924562	0.016128862	0.166398495	0.051285632
2019-07-10T11:50:00	0.2709	12.561	186.0	0.703485805	0.896472714	0.016398317	0.169178413	0.052142430
2019-07-10T11:55:00	0.2689	12.606	186.3	0.696986559	0.886394795	0.016113954	0.166244688	0.051238227
2019-07-10T12:00:00	0.2689	12.640	186.3	0.696977840	0.886381299	0.016113574	0.166240771	0.051237020
2019-07-10T12:05:00	0.2697	12.683	186.6	0.699891297	0.890894433	0.016240720	0.167552516	0.051641313
2019-07-10T12:10:00	0.2705	12.727	186.8	0.702478132	0.894907784	0.016354055	0.168721776	0.052001690
2019-07-10T12:15:00	0.2686	12.757	187.0	0.696301991	0.885335418	0.016084155	0.165937258	0.051143474
2019-07-10T12:20:00	0.2663	12.789	187.1	0.688813511	0.873773424	0.015760086	0.162593900	0.050113019
2019-07-10T12:25:00	0.2661	12.815	200.1	0.688153635	0.872756921	0.015731696	0.162301009	0.050022747
2019-07-10T12:30:00	0.2672	12.841	187.5	0.691724729	0.878262491	0.015885657	0.163889394	0.050512303
2019-07-10T12:35:00	0.2659	12.864	187.7	0.687484897	0.871727153	0.015702953	0.162004469	0.049931351
2019-07-10T12:40:00	0.2645	12.887	187.5	0.682914093	0.864699053	0.015507234	0.159985275	0.049309016
2019-07-10T12:45:00	0.2646	12.909	187.8	0.683231392	0.865186351	0.015520779	0.160125014	0.049352084
2019-07-10T12:50:00	0.2653	12.942	200.8	0.685504191	0.868679389	0.015617981	0.161127835	0.049661164
2019-07-10T12:55:00	0.2649	12.970	188.1	0.684191872	0.866661958	0.015561817	0.160548402	0.049482577
2019-07-10T13:00:00	0.2649	12.999	188.3	0.684183123	0.866648512	0.015561443	0.160544542	0.049481387
2019-07-10T13:05:00	0.2654	13.032	188.4	0.685803773	0.869140146	0.015630818	0.161260265	0.049701980
2019-07-10T13:10:00	0.2638	13.076	188.7	0.680578374	0.861114597	0.015407719	0.158958599	0.048992584
2019-07-10T13:15:00	0.2648	13.097	188.9	0.683830905	0.866107303	0.015546388	0.160389215	0.049433514
2019-07-10T13:20:00	0.2622	13.133	188.9	0.675336706	0.853087712	0.015185621	0.156667256	0.048286370
2019-07-10T13:25:00	0.2625	13.171	202.1	0.676308037	0.854573384	0.015226650	0.157090543	0.048416831
2019-07-10T13:30:00	0.2626	13.207	202.3	0.676625911	0.855059756	0.015240090	0.157229197	0.048459565
2019-07-10T13:35:00	0.2630	13.243	189.7	0.677923424	0.857045953	0.015295013	0.157795827	0.048634206
2019-07-10T13:40:00	0.2647	13.283	202.9	0.683461151	0.865539262	0.015530591	0.160226240	0.049383283
2019-07-10T13:45:00	0.2635	13.319	202.9	0.679538096	0.859519673	0.015363506	0.158502460	0.048851997
2019-07-10T13:50:00	0.2637	13.343	203.2	0.680182012	0.860506796	0.015390865	0.158784722	0.048938993
2019-07-10T13:55:00	0.2623	13.360	203.2	0.675602044	0.853493472	0.015196823	0.156782825	0.048321989
2019-07-10T14:00:00	0.2626	13.387	190.4	0.676573304	0.854979257	0.015237865	0.157206245	0.048452492
2019-07-10T14:05:00	0.2628	13.411	203.6	0.677217745	0.855965538	0.015265129	0.157487520	0.048539183
2019-07-10T14:10:00	0.2637	13.433	203.8	0.680146975	0.860453075	0.015389376	0.158769356	0.048934258
2019-07-10T14:15:00	0.2620	13.454	203.9	0.674586662	0.851941058	0.015153979	0.156340811	0.048185756
2019-07-10T14:20:00	0.2628	13.472	204.1	0.677191445	0.855925282	0.015264016	0.157476036	0.048535644
2019-07-10T14:25:00	0.2610	13.490	204.0	0.671299521	0.846921445	0.015015714	0.154914356	0.047746109
2019-07-10T14:30:00	0.2617	13.506	204.4	0.673579771	0.850402503	0.015111556	0.155903141	0.048050862
2019-07-10T14:35:00	0.2618	13.519	204.2	0.673897884	0.850888493	0.015124953	0.156041347	0.048093459
2019-07-10T14:40:00	0.2604	13.533	204.5	0.669309995	0.843887858	0.014932353	0.154054335	0.047481042
2019-07-10T14:45:00	0.2621	13.557	204.6	0.674860826	0.852360140	0.015165541	0.156460095	0.048222521
2019-07-10T14:50:00	0.2608	13.567	191.7	0.670601337	0.845856482	0.014986433	0.154612263	0.047653001
2019-07-10T14:55:00	0.2616	13.562	204.7	0.673208975	0.849836137	0.015095949	0.155742128	0.048001236
2019-07-10T15:00:00	0.2598	13.562	204.7	0.667310587	0.840842630	0.014848823	0.153192573	0.047215439
2019-07-10T15:05:00	0.2601	13.555	204.8	0.668284065	0.842324872	0.014889462	0.153611834	0.047344659
2019-07-10T15:10:00	0.2608	13.557	204.8	0.670566208	0.845802909	0.014984960	0.154597071	0.047648319
2019-07-10T15:15:00	0.2615	13.555	204.9	0.673173871	0.849782524	0.015094472	0.155726889	0.047996540
2019-07-10T15:20:00	0.2608	13.544	204.7	0.670875803	0.846275083	0.014997940	0.154730983	0.047689592
2019-07-10T15:25:00	0.2598	13.539	204.9	0.667594091	0.841274216	0.014860652	0.153314611	0.047253052
2019-07-10T15:30:00	0.2591	13.535	204.9	0.665292488	0.837772410	0.014764762	0.152325324	0.046948144
2019-07-10T15:35:00	0.2600	13.529	191.9	0.668231337	0.842244566	0.014887259	0.153589109	0.047337655
2019-07-10T15:40:00	0.2612	13.530	191.9	0.672149032	0.848217796	0.015051383	0.155282344	0.047859526
2019-07-10T15:45:00	0.2611	13.541	204.8	0.671813208	0.847705255	0.015037277	0.155136818	0.047814674
2019-07-10T15:50:00	0.2621	13.550	205.1	0.675073570	0.852685379	0.015174516	0.156552689	0.048251059
2019-07-10T15:55:00	0.2608	13.547	192.0	0.670814330	0.846181323	0.014995362	0.154704389	0.047681395
2019-07-10T16:00:00	0.2610	13.538	205.3	0.671459792	0.847165970	0.015022440	0.154983747	0.047767496
2019-07-10T16:05:00	0.2607	13.536	205.3	0.670478383	0.845668979	0.014981279	0.154559095	0.047636614
2019-07-10T16:10:00	0.2613	13.528	205.2	0.672440936	0.848663384	0.015063650	0.155408895	0.047898531
2019-07-10T16:15:00	0.2619	13.517	205.1	0.674402430	0.851659482	0.015146212	0.156260682	0.048161060
2019-07-10T16:20:00	0.2621	13.512	205.1	0.675056027	0.852658558	0.015173776	0.156545053	0.048248706
2019-07-10T16:25:00	0.2603	13.515	205.1	0.669169425	0.843673649	0.014926473	0.153993665	0.047462343
2019-07-10T16:30:00	0.2583	13.516	205.3	0.662617542	0.833708284	0.014653725	0.151179782	0.046595077
2019-07-10T16:35:00	0.2578	13.515	205.1	0.660977720	0.831219881	0.014585874	0.150479768	0.046379326
2019-07-10T16:40:00	0.2580	13.511	205.1	0.661633738	0.832215101	0.014612998	0.150759608	0.046465575
2019-07-10T16:45:00	0.2586	13.491	192.1	0.663601080	0.835201889	0.014694501	0.151600454	0.046724732
2019-07-10T16:50:00	0.2576	13.462	205.1	0.660321582	0.830224849	0.014558770	0.150200151	0.046293145
2019-07-10T16:55:00	0.2557	13.437	204.9	0.654082334	0.820781425	0.014302362	0.147554835	0.045477833
2019-07-10T17:00:00	0.2556	13.419	204.9	0.653753654	0.820284873	0.014288921	0.147416162	0.045435093
2019-07-10T17:05:00	0.2561	13.398	204.9	0.655396755	0.822768104	0.014356182	0.148110080	0.045648965
2019-07-10T17:10:00	0.2542	13.374	204.7	0.649148984	0.813338080	0.014101306	0.145480574	0.044838526
2019-07-10T17:15:00	0.2558	13.353	204.7	0.654410984	0.821278024	0.014315809	0.147693563	0.045520590
2019-07-10T17:20:00	0.2554	13.332	204.7	0.653096203	0.819291910	0.014262054	0.147138983	0.045349664
2019-07-10T17:25:00	0.2553	13.308	204.5	0.652767434	0.818795498	0.014248629	0.147000477	0.045306975
2019-07-10T17:30:00	0.2553	13.285	204.5	0.652767434	0.818795498	0.014248629	0.147000477	0.045306975
2019-07-10T17:35:00	0.2550	13.264	204.4	0.651780944	0.817306547	0.014208385	0.146585292	0.045179011
2019-07-10T17:40:00	0.2542	13.243	191.0	0.649148984	0.813338080	0.014101306	0.145480574	0.044838526
2019-07-10T17:45:00	0.2536	13.222	191.1	0.647173753	0.810363704	0.014021223	0.144654369	0.044583882
2019-07-10T17:50:00	0.2545	13.198	204.1	0.650136194	0.814825902	0.014141420	0.145894427	0.044966079
2019-07-10T17:55:00	0.2540	13.176	204.0	0.648490694	0.812346433	0.014074590	0.145204950	0.044753576
2019-07-10T18:00:00	0.2533	13.154	190.9	0.646185730	0.808877150	0.013981254	0.144242018	0.044456791
2019-07-10T18:05:00	0.2547	13.131	203.9	0.650794184	0.815818019	0.014168190	0.146170606	0.045051200
2019-07-10T18:10:00	0.2561	13.107	190.7	0.655396755	0.822768104	0.014356182	0.148110080	0.045648965
2019-07-10T18:15:00	0.2548	13.084	203.7	0.651123134	0.816314148	0.014181583	0.146308779	0.045093787
2019-07-10T18:20:00	0.2551	13.060	203.4	0.652109804	0.817802817	0.014221794	0.146723631	0.045221648
2019-07-10T18:25:00	0.2553	13.039	203.5	0.652767434	0.818795498	0.014248629	0.147000477	0.045306975
2019-07-10T18:30:00	0.2538	13.015	203.3	0.647832284	0.811354974	0.014047896	0.144929549	0.044668694
2019-07-10T18:35:00	0.2541	12.992	190.3	0.648819854	0.812842233	0.014087945	0.145342734	0.044796042
2019-07-10T18:40:00	0.2537	12.969	190.0	0.647503033	0.810859315	0.014034556	0.144791931	0.044626279
2019-07-10T18:45:00	0.2539	12.944	203.0	0.648161504	0.811850680	0.014061240	0.145067222	0.044711127
2019-07-10T18:50:00	0.2530	12.919	190.0	0.645197437	0.807391020	0.013941333	0.143830166	0.044329854
2019-07-10T18:55:00	0.2544	12.895	189.9	0.649807154	0.814329914	0.014128043	0.145756420	0.044923544
2019-07-10T19:00:00	0.2526	12.869	189.8	0.643879289	0.805410172	0.013888182	0.143281810	0.044160845
2019-07-10T19:05:00	0.2542	12.842	189.7	0.649148984	0.813338080	0.014101306	0.145480574	0.044838526
2019-07-10T19:10:00	0.2532	12.818	189.5	0.645856329	0.808381727	0.013967942	0.144104678	0.044414461
2019-07-10T19:15:00	0.2545	12.791	189.5	0.650136194	0.814825902	0.014141420	0.145894427	0.044966079
2019-07-10T19:20:00	0.2551	12.764	189.4	0.652109804	0.817802817	0.014221794	0.146723631	0.045221648
2019-07-10T19:25:00	0.2563	12.736	189.2	0.656053787	0.823761725	0.014383124	0.148388036	0.045734634
2019-07-10T19:30:00	0.2552	12.709	189.0	0.652438634	0.818299134	0.014235209	0.146862027	0.045264303
2019-07-10T19:35:00	0.2562	12.679	189.0	0.655725286	0.823264891	0.014369650	0.148249030	0.045691791
2019-07-10T19:40:00	0.2562	12.650	188.9	0.655725286	0.823264891	0.014369650	0.148249030	0.045691791
2019-07-10T19:45:00	0.2558	12.618	188.9	0.654410984	0.821278024	0.014315809	0.147693563	0.045520590
2019-07-10T19:50:00	0.2565	12.589	188.7	0.656710699	0.824755535	0.014410087	0.148666213	0.045820371
2019-07-10T19:55:00	0.2568	12.559	188.5	0.657695843	0.826246602	0.014450573	0.149083895	0.045949104
2019-07-10T20:00:00	0.2563	12.530	201.3	0.656053787	0.823761725	0.014383124	0.148388036	0.045734634
2019-07-10T20:05:00	0.2565	12.503	188.3	0.656710699	0.824755535	0.014410087	0.148666213	0.045820371
2019-07-10T20:10:00	0.2587	12.473	188.1	0.663928866	0.835699852	0.014708103	0.151740789	0.046767985
2019-07-10T20:15:00	0.2562	12.446	188.0	0.655725286	0.823264891	0.014369650	0.148249030	0.045691791
2019-07-10T20:20:00	0.2575	12.417	187.9	0.659993469	0.829727403	0.014545227	0.150060425	0.046250080
2019-07-10T20:25:00	0.2579	12.388	187.9	0.661305744	0.831717467	0.014599433	0.150619660	0.046422442
2019-07-10T20:30:00	0.2582	12.361	200.5	0.662289637	0.833210509	0.014640144	0.151039669	0.046551893
2019-07-10T20:35:00	0.2577	12.335	187.5	0.660649666	0.830722341	0.014572319	0.150339932	0.046336227
2019-07-10T20:40:00	0.2593	12.309	187.4	0.665894963	0.838688615	0.014789831	0.152583959	0.047027858
2019-07-10T20:45:00	0.2588	12.282	200.0	0.664256623	0.836197862	0.014721711	0.151881179	0.046811254
2019-07-10T20:50:00	0.2596	12.255	187.1	0.666877612	0.840183632	0.014830767	0.153006291	0.047158025
2019-07-10T20:55:00	0.2598	12.230	187.1	0.667532563	0.841180545	0.014858085	0.153288122	0.047244888
2019-07-10T21:00:00	0.2595	12.201	187.0	0.666550092	0.839685246	0.014817116	0.152865458	0.047114619
2019-07-10T21:05:00	0.2575	12.174	186.8	0.659993469	0.829727403	0.014545227	0.150060425	0.046250080
2019-07-10T21:10:00	0.2583	12.146	186.7	0.662617542	0.833708284	0.014653725	0.151179782	0.046595077
2019-07-10T21:15:00	0.2589	12.120	186.5	0.664584351	0.836695918	0.014735324	0.152021625	0.046854541
2019-07-10T21:20:00	0.2603	12.094	186.5	0.669169425	0.843673649	0.014926473	0.153993665	0.047462343
2019-07-10T21:25:00	0.2603	12.068	186.3	0.669169425	0.843673649	0.014926473	0.153993665	0.047462343
2019-07-10T21:30:00	0.2591	12.039	198.9	0.665239716	0.837692173	0.014762567	0.152302681	0.046941166
2019-07-10T21:35:00	0.2604	12.013	186.3	0.669496708	0.844172411	0.014940166	0.154134940	0.047505885
2019-07-10T21:40:00	0.2604	11.988	198.7	0.669496708	0.844172411	0.014940166	0.154134940	0.047505885
2019-07-10T21:45:00	0.2611	11.963	198.6	0.671786869	0.847665061	0.015036171	0.155125408	0.047811157
2019-07-10T21:50:00	0.2604	11.937	198.4	0.669496708	0.844172411	0.014940166	0.154134940	0.047505885
2019-07-10T21:55:00	0.2588	11.909	198.2	0.664256623	0.836197862	0.014721711	0.151881179	0.046811254
2019-07-10T22:00:00	0.2589	11.882	198.2	0.664584351	0.836695918	0.014735324	0.152021625	0.046854541
2019-07-10T22:05:00	0.2595	11.857	198.0	0.666593533	0.839751345	0.014818927	0.152884134	0.047120375
2019-07-10T22:10:00	0.2595	11.833	197.9	0.666636974	0.839817444	0.014820737	0.152902811	0.047126131
2019-07-10T22:15:00	0.2597	11.809	197.7	0.667007922	0.840381949	0.014836200	0.153062342	0.047175300
2019-07-10T22:20:00	0.2595	11.783	197.6	0.666396319	0.839451282	0.014810710	0.152799360	0.047094247
2019-07-10T22:25:00	0.2612	11.759	197.5	0.672003756	0.847996062	0.015045280	0.155219381	0.047840121
2019-07-10T22:30:00	0.2602	11.735	197.4	0.668775266	0.843073096	0.014909990	0.153823614	0.047409932
2019-07-10T22:35:00	0.2615	11.712	197.2	0.673071481	0.849626155	0.015090165	0.155682445	0.047982842
2019-07-10T22:40:00	0.2601	11.688	197.1	0.668534753	0.842706708	0.014899937	0.153719898	0.047377966
2019-07-10T22:45:00	0.2594	11.665	197.1	0.666285984	0.839283422	0.014806113	0.152751943	0.047079632
2019-07-10T22:50:00	0.2591	11.642	196.9	0.665018973	0.837356569	0.014753388	0.152207984	0.046911979
2019-07-10T22:55:00	0.2610	11.618	196.7	0.671282812	0.846895953	0.015015013	0.154907123	0.047743880
2019-07-10T23:00:00	0.2612	11.595	196.5	0.671980346	0.847960332	0.015044297	0.155209236	0.047836994
2019-07-10T23:05:00	0.2584	11.572	196.5	0.662854994	0.834068803	0.014663564	0.151281287	0.046626362
2019-07-10T23:10:00	0.2591	11.548	183.7	0.665192807	0.837620852	0.014760616	0.152282555	0.046934963
2019-07-10T23:15:00	0.2586	11.524	196.3	0.663597627	0.835196644	0.014694357	0.151598976	0.046724277
2019-07-10T23:20:00	0.2568	11.501	196.3	0.657735932	0.826307296	0.014452221	0.149100904	0.045954347
2019-07-10T23:25:00	0.2584	11.477	196.0	0.663028933	0.834332922	0.014670773	0.151355665	0.046649286
2019-07-10T23:30:00	0.2598	11.453	195.9	0.667331951	0.840875150	0.014849715	0.153201768	0.047218273
2019-07-10T23:35:00	0.2587	11.430	183.2	0.663771530	0.835460820	0.014701573	0.151673420	0.046747221
2019-07-10T23:40:00	0.2589	11.410	183.0	0.664470509	0.836522899	0.014730595	0.151972831	0.046839502
2019-07-10T23:45:00	0.2589	11.385	182.9	0.664513975	0.836588958	0.014732400	0.151991460	0.046845244
2019-07-10T23:50:00	0.2606	11.364	182.9	0.670124318	0.845129110	0.014966444	0.154406043	0.047589442
2019-07-10T23:55:00	0.2602	11.343	182.9	0.668858646	0.843200126	0.014913476	0.153859579	0.047421016
2019-07-11T00:00:00	0.2597	11.324	192.8	0.667265078	0.840773356	0.014846925	0.153172988	0.047209402
2019-07-11T00:05:00	0.2593	11.301	194.6	0.665670809	0.838347700	0.014780501	0.152487706	0.046998192
2019-07-11T00:10:00	0.2579	11.280	182.0	0.661124812	0.831442997	0.014591953	0.150542490	0.046398658
2019-07-11T00:15:00	0.2588	11.255	182.0	0.664119310	0.835989210	0.014716009	0.151822355	0.046793124
2019-07-11T00:20:00	0.2599	11.233	181.8	0.667766245	0.841536324	0.014867838	0.153388742	0.047275900
2019-07-11T00:25:00	0.2600	11.213	181.6	0.668137077	0.842101012	0.014883322	0.153548490	0.047325136
2019-07-11T00:30:00	0.2602	11.193	181.6	0.668835216	0.843164428	0.014912496	0.153849472	0.047417901
2019-07-11T00:35:00	0.2595	11.172	193.9	0.666586633	0.839740846	0.014818639	0.152881167	0.047119461
2019-07-11T00:40:00	0.2584	11.152	181.0	0.663025479	0.834327678	0.014670630	0.151354188	0.046648831
2019-07-11T00:45:00	0.2610	11.133	180.9	0.671255951	0.846854973	0.015013886	0.154895495	0.047740296
2019-07-11T00:50:00	0.2583	11.113	181.1	0.662456695	0.833464098	0.014647062	0.151111044	0.046573891
2019-07-11T00:55:00	0.2588	11.089	180.8	0.664139319	0.836019613	0.014716840	0.151830926	0.046795766
2019-07-11T01:00:00	0.2576	11.069	180.7	0.660247667	0.830112780	0.014555719	0.150168668	0.046283442
2019-07-11T01:05:00	0.2573	11.053	193.0	0.659306747	0.828686577	0.014516902	0.149768207	0.046160016
2019-07-11T01:10:00	0.2597	11.034	180.6	0.667218195	0.840701994	0.014844969	0.153152813	0.047203184
2019-07-11T01:15:00	0.2590	11.017	180.3	0.664968610	0.837280006	0.014751294	0.152186383	0.046905321
2019-07-11T01:20:00	0.2578	10.999	180.2	0.660749805	0.830874207	0.014576456	0.150382610	0.046349381
2019-07-11T01:25:00	0.2594	10.980	180.0	0.666038406	0.838906799	0.014795803	0.152645571	0.047046847
2019-07-11T01:30:00	0.2578	10.961	192.1	0.660836826	0.831006185	0.014580051	0.150419703	0.046360813
2019-07-11T01:35:00	0.2574	10.940	192.3	0.659567907	0.829082355	0.014527671	0.149879302	0.046194256
2019-07-11T01:40:00	0.2572	10.922	190.7	0.658955047	0.828153680	0.014502407	0.149618665	0.046113925
2019-07-11T01:45:00	0.2563	10.904	190.6	0.656043406	0.823746024	0.014382698	0.148383642	0.045733280
2019-07-11T01:50:00	0.2579	10.888	190.3	0.661338882	0.831767741	0.014600803	0.150633797	0.046426799
2019-07-11T01:55:00	0.2572	10.871	190.4	0.659085642	0.828351546	0.014507789	0.149674184	0.046131037
2019-07-11T02:00:00	0.2580	10.856	190.5	0.661425889	0.831899741	0.014604401	0.150670916	0.046438240
2019-07-11T02:05:00	0.2574	10.840	190.4	0.659500890	0.828980788	0.014524907	0.149850789	0.046185469
2019-07-11T02:10:00	0.2574	10.826	190.3	0.659544416	0.829046753	0.014526702	0.149869307	0.046191176
2019-07-11T02:15:00	0.2600	10.813	190.2	0.668110193	0.842060070	0.014882199	0.153536906	0.047321566
2019-07-11T02:20:00	0.2575	10.800	190.3	0.659959612	0.829676078	0.014543830	0.150046011	0.046245638
2019-07-11T02:25:00	0.2576	10.788	190.2	0.660331244	0.830239498	0.014559169	0.150204266	0.046294414
2019-07-11T02:30:00	0.2584	10.778	189.9	0.662998557	0.834286796	0.014669514	0.151342675	0.046645282
2019-07-11T02:35:00	0.2576	10.766	189.8	0.660090171	0.829874001	0.014549218	0.150101598	0.046262770
2019-07-11T02:40:00	0.2579	10.755	189.6	0.661117901	0.831432515	0.014591667	0.150539543	0.046397749
2019-07-11T02:45:00	0.2590	10.748	189.5	0.664767856	0.836974837	0.014742950	0.152100294	0.046878788
2019-07-11T02:50:00	0.2589	10.737	189.5	0.664483612	0.836542813	0.014731139	0.151978446	0.046841233
2019-07-11T02:55:00	0.2582	10.727	189.4	0.662232328	0.833123520	0.014637771	0.151015187	0.046544347
2019-07-11T03:00:00	0.2586	10.715	189.4	0.663587268	0.835180909	0.014693928	0.151594543	0.046722910
2019-07-11T03:05:00	0.2566	10.705	189.3	0.657068829	0.825297487	0.014424798	0.148817982	0.045867147
2019-07-11T03:10:00	0.2588	10.693	189.1	0.664329751	0.836308988	0.014724748	0.151912512	0.046820911
2019-07-11T03:15:00	0.2603	10.682	189.2	0.668958560	0.843352351	0.014917653	0.153902680	0.047434301
2019-07-11T03:20:00	0.2585	10.671	189.1	0.663105538	0.834449254	0.014673949	0.151388428	0.046659384
2019-07-11T03:25:00	0.2609	10.659	189.0	0.671008711	0.846477811	0.015003514	0.154788490	0.047707316
2019-07-11T03:30:00	0.2598	10.649	189.0	0.667451897	0.841057741	0.014854719	0.153253396	0.047234185
2019-07-11T03:35:00	0.2587	10.636	188.8	0.663891593	0.835643223	0.014706556	0.151724828	0.046763066
2019-07-11T03:40:00	0.2610	10.627	188.7	0.671465979	0.847175410	0.015022700	0.154986426	0.047768322
2019-07-11T03:45:00	0.2604	10.618	188.6	0.669546304	0.844248000	0.014942242	0.154156354	0.047512486
2019-07-11T03:50:00	0.2609	10.609	188.4	0.670898516	0.846309728	0.014998893	0.154740810	0.047692620
2019-07-11T03:55:00	0.2611	10.601	188.7	0.671596124	0.847373990	0.015028163	0.155042785	0.047785692
2019-07-11T04:00:00	0.2635	10.599	188.5	0.679480873	0.859431967	0.015361076	0.158477389	0.048844270
2019-07-11T04:05:00	0.2608	10.598	188.5	0.670698609	0.846004828	0.014990510	0.154654332	0.047665967
2019-07-11T04:10:00	0.2622	10.597	188.0	0.675316389	0.853056645	0.015184764	0.156658408	0.048283643
2019-07-11T04:15:00	0.2634	10.595	188.3	0.679275595	0.859117362	0.015352360	0.158387468	0.048816556
2019-07-11T04:20:00	0.2631	10.599	188.4	0.678336672	0.857678845	0.015312527	0.157976519	0.048689898
2019-07-11T04:25:00	0.2630	10.602	188.3	0.678050565	0.857240655	0.015300400	0.157851408	0.048651337
2019-07-11T04:30:00	0.2625	10.608	188.2	0.676131441	0.854303215	0.015219186	0.157013541	0.048393098
2019-07-11T04:35:00	0.2612	10.617	188.5	0.671922671	0.847872309	0.015041874	0.155184245	0.047829291
2019-07-11T04:40:00	0.2621	10.626	188.1	0.674905352	0.852428207	0.015167420	0.156479472	0.048228493
2019-07-11T04:45:00	0.2629	10.636	188.3	0.677559062	0.856488051	0.015279579	0.157636600	0.048585131
2019-07-11T04:50:00	0.2631	10.646	188.1	0.678252473	0.857549882	0.015308958	0.157939695	0.048678548
2019-07-11T04:55:00	0.2634	10.656	188.0	0.679272157	0.859112093	0.015352214	0.158385962	0.048816092
2019-07-11T05:00:00	0.2645	10.667	188.5	0.682901020	0.864678977	0.015506676	0.159979519	0.049307241
2019-07-11T05:05:00	0.2654	10.676	188.4	0.685874735	0.869249297	0.015633859	0.161291642	0.049711651
2019-07-11T05:10:00	0.2662	10.686	188.5	0.688194901	0.872820479	0.015733471	0.162319317	0.050028390
2019-07-11T05:15:00	0.2661	10.696	187.9	0.687909566	0.872381043	0.015721202	0.162192748	0.049989380
2019-07-11T05:20:00	0.2673	10.707	188.1	0.691855148	0.878463767	0.015891295	0.163947557	0.050530229
2019-07-11T05:25:00	0.2660	10.718	188.8	0.687664486	0.872003658	0.015710669	0.162084076	0.049955886
2019-07-11T05:30:00	0.2672	10.728	188.7	0.691610332	0.878085953	0.015880713	0.163838384	0.050496581
2019-07-11T05:35:00	0.2655	10.737	188.7	0.686116504	0.869621208	0.015644223	0.161398569	0.049744606
2019-07-11T05:40:00	0.2655	10.746	188.8	0.686156797	0.869683196	0.015645951	0.161416393	0.049750100
2019-07-11T05:45:00	0.2656	10.757	188.2	0.686522847	0.870246398	0.015661651	0.161578365	0.049800021
2019-07-11T05:50:00	0.2673	10.766	188.6	0.691771261	0.878334301	0.015887668	0.163910144	0.050518698
2019-07-11T05:55:00	0.2685	10.774	188.7	0.695712687	0.884423790	0.016058526	0.165672850	0.051061981
2019-07-11T06:00:00	0.2682	10.784	188.6	0.694777976	0.882978447	0.016017919	0.165253923	0.050932864
2019-07-11T06:05:00	0.2666	10.793	188.8	0.689614385	0.875007632	0.015794578	0.162949749	0.050222695
2019-07-11T06:10:00	0.2678	10.802	188.8	0.693558131	0.881093342	0.015965008	0.164708044	0.050764619
2019-07-11T06:15:00	0.2671	10.813	188.7	0.691321837	0.877640798	0.015868247	0.163709783	0.050456945
2019-07-11T06:20:00	0.2693	10.824	188.4	0.698511974	0.888756854	0.016180459	0.166930814	0.051449698
2019-07-11T06:25:00	0.2682	10.837	188.7	0.694978962	0.883289167	0.016026646	0.165343955	0.050960613
2019-07-11T06:30:00	0.2697	10.850	188.5	0.699890746	0.890893578	0.016240696	0.167552267	0.051641236
2019-07-11T06:35:00	0.2702	10.864	188.6	0.701228873	0.892968893	0.016299270	0.168156568	0.051827487
2019-07-11T06:40:00	0.2682	10.881	188.6	0.694774553	0.882973154	0.016017771	0.165252389	0.050932391
2019-07-11T06:45:00	0.2702	10.900	188.7	0.701309128	0.893093410	0.016302787	0.168192848	0.051838669
2019-07-11T06:50:00	0.2700	10.920	188.9	0.700700340	0.892149000	0.016276121	0.167917744	0.051753880
2019-07-11T06:55:00	0.2686	10.944	189.0	0.696194912	0.885169749	0.016079496	0.165889197	0.051128662
2019-07-11T07:00:00	0.2683	10.966	188.8	0.695260323	0.883724205	0.016038867	0.165470035	0.050999472
2019-07-11T07:05:00	0.2686	10.988	176.1	0.696275276	0.885294085	0.016082992	0.165925267	0.051139779
2019-07-11T07:10:00	0.2681	11.014	176.0	0.694690731	0.882843579	0.016014132	0.165214849	0.050920821
2019-07-11T07:15:00	0.2698	11.035	175.8	0.699927469	0.890950512	0.016242302	0.167568836	0.051646343
2019-07-11T07:20:00	0.2698	11.057	175.6	0.699967611	0.891012747	0.016244058	0.167586948	0.051651925
2019-07-11T07:25:00	0.2697	11.084	175.0	0.699683191	0.890571819	0.016231621	0.167458638	0.051612379
2019-07-11T07:30:00	0.2683	11.111	175.3	0.695176513	0.883594612	0.016035226	0.165432474	0.050987895
2019-07-11T07:35:00	0.2690	11.142	175.5	0.697490797	0.887175369	0.016135921	0.166471327	0.051308080
2019-07-11T07:40:00	0.2689	11.176	175.7	0.697206185	0.886734755	0.016123520	0.166343383	0.051268646
2019-07-11T07:45:00	0.2688	11.213	189.0	0.696921551	0.886294177	0.016111123	0.166215481	0.051229226
2019-07-11T07:50:00	0.2703	11.254	190.3	0.701830740	0.893902840	0.016325653	0.168428748	0.051911376
2019-07-11T07:55:00	0.2687	11.283	190.3	0.696352217	0.885413130	0.016086340	0.165959804	0.051150423
2019-07-11T08:00:00	0.2692	11.315	190.2	0.698016372	0.887989207	0.016158836	0.166707730	0.051380942
2019-07-11T08:05:00	0.2689	11.342	190.5	0.697082247	0.886542906	0.016118121	0.166287684	0.051251479
2019-07-11T08:10:00	0.2687	11.367	190.4	0.696472758	0.885599645	0.016091585	0.166013919	0.051167102
2019-07-11T08:15:00	0.2679	11.397	190.5	0.693913170	0.881641872	0.015980398	0.164866825	0.050813557
2019-07-11T08:20:00	0.2693	11.431	190.9	0.698501714	0.888740960	0.016180011	0.166926194	0.051448274
2019-07-11T08:25:00	0.2696	11.466	190.8	0.699515771	0.890312305	0.016224302	0.167383134	0.051589107
2019-07-11T08:30:00	0.2713	11.511	191.0	0.705069756	0.898934397	0.016468019	0.169897518	0.052364065
2019-07-11T08:35:00	0.2708	11.549	191.1	0.703164746	0.895974009	0.016384208	0.169032851	0.052097566
2019-07-11T08:40:00	0.2715	11.582	191.2	0.705474006	0.899563008	0.016485833	0.170081304	0.052420710
2019-07-11T08:45:00	0.2723	11.606	191.2	0.708105667	0.903658732	0.016602053	0.171280324	0.052790259
2019-07-11T08:50:00	0.2727	11.626	191.4	0.709440813	0.905738960	0.016661182	0.171890341	0.052978273
2019-07-11T08:55:00	0.2723	11.647	191.9	0.708185772	0.903783496	0.016605598	0.171316891	0.052801529
2019-07-11T09:00:00	0.2722	11.675	191.8	0.707901987	0.903341523	0.016593043	0.171187365	0.052761608
2019-07-11T09:05:00	0.2722	11.700	192.0	0.707942041	0.903403901	0.016594815	0.171205643	0.052767242
2019-07-11T09:10:00	0.2716	11.728	192.3	0.706038517	0.900441063	0.016510727	0.170338127	0.052499865
2019-07-11T09:15:00	0.2735	11.749	192.6	0.711906195	0.909584239	0.016770657	0.173019779	0.053326376
2019-07-11T09:20:00	0.2708	11.779	192.1	0.703201437	0.896030997	0.016385820	0.169049482	0.052102692
2019-07-11T09:25:00	0.2730	11.816	192.0	0.710368397	0.907185100	0.016702327	0.172314824	0.053109102
2019-07-11T09:30:00	0.2722	11.845	191.1	0.707818464	0.903211457	0.016589349	0.171149253	0.052749862
2019-07-11T09:35:00	0.2717	11.864	181.9	0.706238888	0.900752792	0.016519568	0.170429334	0.052527976
2019-07-11T09:40:00	0.2725	11.883	182.2	0.708870003	0.904849417	0.016635889	0.171629402	0.052897848
2019-07-11T09:45:00	0.2733	11.905	181.2	0.711499242	0.908949145	0.016752560	0.172833076	0.053268832
2019-07-11T09:50:00	0.2715	11.922	193.5	0.705711074	0.899931716	0.016496285	0.170189132	0.052453943
2019-07-11T09:55:00	0.2706	11.936	181.2	0.702509319	0.894956205	0.016355424	0.168735899	0.052006043
2019-07-11T10:00:00	0.2709	11.951	181.3	0.703522272	0.896529365	0.016399920	0.169194951	0.052147527
2019-07-11T10:05:00	0.2727	11.969	193.7	0.709393954	0.905665925	0.016659105	0.171868913	0.052971668
2019-07-11T10:10:00	0.2710	11.988	193.9	0.703926692	0.897157696	0.016417703	0.169378411	0.052204071
2019-07-11T10:15:00	0.2713	12.013	181.5	0.704939255	0.898731497	0.016462271	0.169838210	0.052345786
2019-07-11T10:20:00	0.2708	12.040	181.8	0.703358442	0.896274870	0.016392719	0.169120661	0.052124630
2019-07-11T10:25:00	0.2712	12.058	181.8	0.704695309	0.898352257	0.016451527	0.169727375	0.052311625
2019-07-11T10:30:00	0.2711	12.077	181.8	0.704411255	0.897910728	0.016439023	0.169598366	0.052271863
2019-07-11T10:35:00	0.2708	12.093	181.9	0.703154499	0.895958094	0.016383758	0.169028206	0.052096135
2019-07-11T10:40:00	0.2691	12.110	181.9	0.697677951	0.887465145	0.016144079	0.166555489	0.051334019
2019-07-11T10:45:00	0.2698	12.124	182.0	0.699990659	0.891048481	0.016245066	0.167597348	0.051655130
2019-07-11T10:50:00	0.2701	12.152	182.1	0.701004306	0.892620500	0.016289433	0.168055073	0.051796206
2019-07-11T10:55:00	0.2698	12.186	182.2	0.700070941	0.891172954	0.016248577	0.167633576	0.051666296
2019-07-11T11:00:00	0.2705	12.215	182.3	0.702382144	0.894758759	0.016349843	0.168678312	0.051988294
2019-07-11T11:05:00	0.2693	12.243	182.5	0.698528191	0.888781977	0.016181167	0.166938117	0.051451949
2019-07-11T11:10:00	0.2704	12.264	182.6	0.702138028	0.894379797	0.016339131	0.168567802	0.051954234
2019-07-11T11:15:00	0.2692	12.284	182.7	0.697959106	0.887900522	0.016156338	0.166681964	0.051373000
2019-07-11T11:20:00	0.2679	12.303	182.8	0.693775422	0.881429041	0.015974426	0.164805212	0.050794567
2019-07-11T11:25:00	0.2667	12.322	182.9	0.689912414	0.875467060	0.015807424	0.163082275	0.050263541
2019-07-11T11:30:00	0.2673	12.342	183.0	0.691904773	0.878540357	0.015893440	0.163969691	0.050537051
2019-07-11T11:35:00	0.2682	12.361	183.0	0.694871182	0.883122537	0.016021966	0.165295671	0.050945731
2019-07-11T11:40:00	0.2676	12.382	183.1	0.692960874	0.880170831	0.015939135	0.164441120	0.050682350
2019-07-11T11:45:00	0.2662	12.408	195.4	0.688445920	0.873207124	0.015744268	0.162430707	0.050062722
2019-07-11T11:50:00	0.2660	12.430	195.7	0.687834993	0.872266206	0.015717997	0.162159677	0.049979187
2019-07-11T11:55:00	0.2674	12.450	195.4	0.692105916	0.878850820	0.015902138	0.164059424	0.050564708
2019-07-11T12:00:00	0.2670	12.484	196.2	0.690844940	0.876905093	0.015847653	0.163497315	0.050391460
2019-07-11T12:05:00	0.2674	12.524	195.8	0.692186370	0.878975010	0.015905617	0.164095323	0.050575772
2019-07-11T12:10:00	0.2664	12.563	196.3	0.688972793	0.874018846	0.015766943	0.162664640	0.050134822
2019-07-11T12:15:00	0.2658	12.599	184.0	0.687059404	0.871072150	0.015684679	0.161815940	0.049873244
2019-07-11T12:20:00	0.2659	12.627	196.6	0.687425364	0.871635498	0.015700395	0.161978084	0.049923218
2019-07-11T12:25:00	0.2664	12.654	184.7	0.689093577	0.874204964	0.015772143	0.162718294	0.050151358
2019-07-11T12:30:00	0.2664	12.680	197.7	0.689133837	0.874267005	0.015773877	0.162736180	0.050156871
2019-07-11T12:35:00	0.2638	12.716	198.0	0.680374821	0.860802442	0.015399063	0.158869291	0.048965058
2019-07-11T12:40:00	0.2629	12.758	185.3	0.677477397	0.856363024	0.015276121	0.157600924	0.048574135
2019-07-11T12:45:00	0.2623	12.786	185.2	0.675557971	0.853426069	0.015194962	0.156763625	0.048316072
2019-07-11T12:50:00	0.2635	12.803	185.2	0.679516914	0.859487208	0.015362606	0.158493179	0.048849137
2019-07-11T12:55:00	0.2630	12.831	198.2	0.677925088	0.857048502	0.015295083	0.157796555	0.048634431
2019-07-11T13:00:00	0.2633	12.870	185.6	0.678944864	0.858610565	0.015338323	0.158242649	0.048771921
2019-07-11T13:05:00	0.2653	12.916	198.5	0.685507733	0.868684837	0.015618133	0.161129401	0.049661646
2019-07-11T13:10:00	0.2642	12.953	185.1	0.681962143	0.863237596	0.015466635	0.159566421	0.049179921
2019-07-11T13:15:00	0.2640	12.987	185.4	0.681023911	0.861797966	0.015426676	0.159154168	0.049052860
2019-07-11T13:20:00	0.2617	13.026	185.4	0.673553224	0.850361950	0.015110439	0.155891610	0.048047308
2019-07-11T13:25:00	0.2623	13.066	185.8	0.675554529	0.853420806	0.015194817	0.156762126	0.048315610
2019-07-11T13:30:00	0.2621	13.101	186.1	0.674941439	0.852483375	0.015168942	0.156495178	0.048233334
2019-07-11T13:35:00	0.2636	13.139	199.3	0.679880194	0.860044065	0.015378038	0.158652386	0.048898206
2019-07-11T13:40:00	0.2627	13.171	186.9	0.676982377	0.855605279	0.015255168	0.157384760	0.048507512
2019-07-11T13:45:00	0.2617	13.198	187.0	0.673755381	0.850670776	0.015118951	0.155979428	0.048074375
2019-07-11T13:50:00	0.2631	13.217	187.3	0.678369286	0.857728800	0.015313910	0.157990785	0.048694294
2019-07-11T13:55:00	0.2619	13.229	187.6	0.674163104	0.851293745	0.015136126	0.156156623	0.048128988
2019-07-11T14:00:00	0.2615	13.238	200.4	0.672895913	0.849358047	0.015082779	0.155606253	0.047959358
2019-07-11T14:05:00	0.2608	13.244	200.7	0.670646916	0.845925993	0.014988343	0.154631975	0.047659076
2019-07-11T14:10:00	0.2607	13.243	186.7	0.670360204	0.845488772	0.014976327	0.154508001	0.047620866
2019-07-11T14:15:00	0.2614	13.242	200.4	0.672690264	0.849044038	0.015074131	0.155517031	0.047931859
2019-07-11T14:20:00	0.2620	13.235	200.2	0.674692044	0.852102135	0.015158423	0.156386655	0.048199886
2019-07-11T14:25:00	0.2632	13.224	199.9	0.678651928	0.858161763	0.015325895	0.158114439	0.048732406
2019-07-11T14:30:00	0.2636	13.219	200.4	0.679997842	0.860224427	0.015383038	0.158703963	0.048914103
2019-07-11T14:35:00	0.2614	13.215	186.9	0.672852029	0.849291037	0.015080934	0.155587211	0.047953490
2019-07-11T14:40:00	0.2630	13.212	200.4	0.677793616	0.856847181	0.015289513	0.157739091	0.048616720
2019-07-11T14:45:00	0.2613	13.212	200.8	0.672278930	0.848416076	0.015056841	0.155338653	0.047876881
2019-07-11T14:50:00	0.2601	13.215	188.0	0.668393078	0.842490909	0.014894016	0.153658821	0.047359141
2019-07-11T14:55:00	0.2600	13.219	200.9	0.668106188	0.842053972	0.014882032	0.153535180	0.047321034
2019-07-11T15:00:00	0.2579	13.221	188.0	0.661264951	0.831655583	0.014597747	0.150602260	0.046417079
2019-07-11T15:05:00	0.2595	13.218	200.8	0.666549869	0.839684907	0.014817107	0.152865363	0.047114589
2019-07-11T15:10:00	0.2612	13.216	200.5	0.672154143	0.848225598	0.015051598	0.155284559	0.047860209
2019-07-11T15:15:00	0.2590	13.218	188.2	0.664992882	0.837316905	0.014752303	0.152196794	0.046908530
2019-07-11T15:20:00	0.2607	13.222	200.9	0.670272374	0.845354849	0.014972646	0.154470033	0.047609164
2019-07-11T15:25:00	0.2599	13.226	188.2	0.667694336	0.841426838	0.014864836	0.153357775	0.047266356
2019-07-11T15:30:00	0.2593	13.230	200.9	0.665769734	0.838498149	0.014784618	0.152530181	0.047011283
2019-07-11T15:35:00	0.2589	13.232	188.8	0.664499610	0.836567127	0.014731804	0.151985303	0.046843346
2019-07-11T15:40:00	0.2595	13.233	201.9	0.666505908	0.839618019	0.014815275	0.152846465	0.047108765
2019-07-11T15:45:00	0.2587	13.236	188.6	0.663925191	0.835694268	0.014707951	0.151739215	0.046767500
2019-07-11T15:50:00	0.2597	13.241	188.6	0.667241933	0.840738126	0.014845960	0.153163028	0.047206333
2019-07-11T15:55:00	0.2592	13.242	188.6	0.665644723	0.838308029	0.014779416	0.152476507	0.046994740
2019-07-11T16:00:00	0.2583	13.242	188.5	0.662407633	0.833389621	0.014645031	0.151090080	0.046567430
2019-07-11T16:05:00	0.2578	13.243	201.4	0.660817096	0.830976261	0.014579236	0.150411292	0.046358221
2019-07-11T16:10:00	0.2559	13.244	188.7	0.654628169	0.821606247	0.014324699	0.147785277	0.045548858
2019-07-11T16:15:00	0.2557	13.245	188.7	0.654020353	0.820687780	0.014299827	0.147528679	0.045469772
2019-07-11T16:20:00	0.2553	13.246	188.7	0.652754921	0.818776608	0.014248118	0.146995207	0.045305350
2019-07-11T16:25:00	0.2566	13.248	188.7	0.657076045	0.825308408	0.014425095	0.148821041	0.045868090
2019-07-11T16:30:00	0.2558	13.247	188.9	0.654497413	0.821408636	0.014319346	0.147730057	0.045531838
2019-07-11T16:35:00	0.2569	13.246	188.8	0.657831615	0.826452165	0.014456157	0.149141507	0.045966861
2019-07-11T16:40:00	0.2572	13.244	204.9	0.658865862	0.828018564	0.014498733	0.149580756	0.046102242
2019-07-11T16:45:00	0.2566	13.241	190.4	0.656945377	0.825110657	0.014419726	0.148765656	0.045851020
2019-07-11T16:50:00	0.2558	13.236	189.3	0.654366652	0.821211032	0.014313995	0.147674846	0.045514822
2019-07-11T16:55:00	0.2553	13.233	188.9	0.652772573	0.818803257	0.014248839	0.147002642	0.045307642
2019-07-11T17:00:00	0.2564	13.229	201.4	0.656436832	0.824341171	0.014398843	0.148550208	0.045784617
2019-07-11T17:05:00	0.2561	13.226	209.2	0.655172248	0.822428668	0.014346982	0.148015165	0.045619711
2019-07-11T17:10:00	0.2540	13.222	205.6	0.648315309	0.812082295	0.014067477	0.145131563	0.044730957
2019-07-11T17:15:00	0.2545	13.216	204.0	0.650010418	0.814636299	0.014136306	0.145841665	0.044949818
2019-07-11T17:20:00	0.2539	13.210	202.9	0.648085214	0.811735803	0.014058147	0.145035313	0.044701292
2019-07-11T17:25:00	0.2539	13.205	202.6	0.648134769	0.811810422	0.014060156	0.145056039	0.044707680
2019-07-11T17:30:00	0.2546	13.201	202.0	0.650488009	0.815356323	0.014155730	0.146042061	0.045011581
2019-07-11T17:35:00	0.2537	13.195	203.6	0.647575419	0.810968279	0.014037488	0.144822181	0.044635603
2019-07-11T17:40:00	0.2540	13.187	202.4	0.648283430	0.812034287	0.014066184	0.145118226	0.044726847
2019-07-11T17:45:00	0.2521	13.180	189.0	0.642072939	0.802698074	0.013815516	0.142532131	0.043929787
2019-07-11T17:50:00	0.2545	13.172	201.5	0.650028083	0.814662927	0.014137024	0.145849075	0.044952101
2019-07-11T17:55:00	0.2538	13.164	201.4	0.647773663	0.811266719	0.014045520	0.144905042	0.044661141
2019-07-11T18:00:00	0.2534	13.157	201.2	0.646506036	0.809358984	0.013994205	0.144375630	0.044497971
2019-07-11T18:05:00	0.2527	13.149	202.7	0.644249409	0.805966221	0.013903095	0.143435672	0.044208267
2019-07-11T18:10:00	0.2534	13.141	201.9	0.646275826	0.809012672	0.013984896	0.144279594	0.044468372
2019-07-11T18:15:00	0.2527	13.133	201.5	0.644019055	0.805620134	0.013893812	0.143339902	0.044178750
2019-07-11T18:20:00	0.2528	13.126	188.4	0.644398230	0.806189835	0.013909094	0.143497562	0.044227342
2019-07-11T18:25:00	0.2520	13.118	201.5	0.641810508	0.802304286	0.013804975	0.142423386	0.043896271
2019-07-11T18:30:00	0.2535	13.111	201.4	0.646803486	0.809806512	0.014006237	0.144499766	0.044536231
2019-07-11T18:35:00	0.2540	13.102	201.4	0.648499307	0.812359404	0.014074939	0.145208554	0.044754687
2019-07-11T18:40:00	0.2539	13.094	201.4	0.648219671	0.811938271	0.014063598	0.145091553	0.044718626
2019-07-11T18:45:00	0.2535	13.085	189.5	0.646622870	0.809534758	0.013998930	0.144424383	0.044512997
2019-07-11T18:50:00	0.2525	13.076	189.3	0.643377523	0.804656530	0.013867977	0.143073359	0.044096599
2019-07-11T18:55:00	0.2550	13.068	188.9	0.651658689	0.817122081	0.014203402	0.146533881	0.045163165
2019-07-11T19:00:00	0.2538	13.058	201.7	0.647759455	0.811245329	0.014044944	0.144899102	0.044659311
2019-07-11T19:05:00	0.2550	13.050	201.6	0.651757700	0.817271475	0.014207438	0.146575517	0.045175998
2019-07-11T19:10:00	0.2530	13.041	190.5	0.645223745	0.807430571	0.013942395	0.143841122	0.044333231
2019-07-11T19:15:00	0.2529	13.034	189.9	0.644943855	0.807009835	0.013931100	0.143724590	0.044297315
2019-07-11T19:20:00	0.2543	13.026	189.4	0.649274343	0.813526962	0.014106397	0.145533092	0.044854712
2019-07-11T19:25:00	0.2539	13.018	189.4	0.648007245	0.811618402	0.014054987	0.145002705	0.044691242
2019-07-11T19:30:00	0.2538	13.010	189.9	0.647727571	0.811197328	0.014043653	0.144885774	0.044655203
2019-07-11T19:35:00	0.2540	13.002	189.9	0.648435552	0.812263383	0.014072353	0.145181875	0.044746464
2019-07-11T19:40:00	0.2556	12.996	189.4	0.653748069	0.820276437	0.014288693	0.147413807	0.045434367
2019-07-11T19:45:00	0.2570	12.990	189.2	0.658396293	0.827307275	0.014479395	0.149381245	0.046040750
2019-07-11T19:50:00	0.2568	12.983	189.1	0.657460767	0.825890727	0.014440907	0.148984171	0.045918369
2019-07-11T19:55:00	0.2562	12.976	191.9	0.655539535	0.822983997	0.014362034	0.148170460	0.045667575
2019-07-11T20:00:00	0.2581	12.972	204.3	0.661825639	0.832506297	0.014620938	0.150841519	0.046490821
2019-07-11T20:05:00	0.2567	12.967	202.6	0.657280685	0.825618137	0.014433504	0.148907801	0.045894830
2019-07-11T20:10:00	0.2575	12.962	191.3	0.659956118	0.829670782	0.014543686	0.150044523	0.046245179
2019-07-11T20:15:00	0.2550	12.958	203.8	0.651793013	0.817324758	0.014208877	0.146590368	0.045180575
2019-07-11T20:20:00	0.2560	12.954	203.2	0.655129711	0.822364361	0.014345239	0.147997186	0.045614170
2019-07-11T20:25:00	0.2559	12.948	190.9	0.654521979	0.821445761	0.014320352	0.147740431	0.045535036
2019-07-11T20:30:00	0.2572	12.943	203.1	0.658840991	0.827980885	0.014497708	0.149570185	0.046098984
2019-07-11T20:35:00	0.2567	12.938	190.0	0.657248885	0.825570004	0.014432197	0.148894317	0.045890675
2019-07-11T20:40:00	0.2555	12.933	202.7	0.653355691	0.819683775	0.014272655	0.147248350	0.045383371
2019-07-11T20:45:00	0.2588	12.927	202.5	0.664236912	0.836167909	0.014720892	0.151872734	0.046808652
2019-07-11T20:50:00	0.2587	12.921	189.3	0.663958492	0.835744862	0.014709333	0.151753476	0.046771895
2019-07-11T20:55:00	0.2566	12.916	189.2	0.657118223	0.825372244	0.014426828	0.148838921	0.045873601
2019-07-11T21:00:00	0.2568	12.910	189.1	0.657496024	0.825944098	0.014442356	0.148999126	0.045922978
2019-07-11T21:05:00	0.2566	12.905	201.9	0.656888689	0.825024871	0.014417397	0.148741632	0.045843616
2019-07-11T21:10:00	0.2553	12.901	189.0	0.652666328	0.818642857	0.014244502	0.146957896	0.045293851
2019-07-11T21:15:00	0.2564	12.895	201.8	0.656330695	0.824180601	0.014394486	0.148505263	0.045770764
2019-07-11T21:20:00	0.2552	12.890	188.9	0.652436511	0.818295930	0.014235122	0.146861133	0.045264027
2019-07-11T21:25:00	0.2562	12.884	188.9	0.655772615	0.823336467	0.014371591	0.148269053	0.045697962
2019-07-11T21:30:00	0.2581	12.879	201.8	0.661730358	0.832361711	0.014616995	0.150800847	0.046478285
2019-07-11T21:35:00	0.2584	12.873	201.8	0.662763491	0.833929870	0.014659772	0.151242168	0.046614305
2019-07-11T21:40:00	0.2560	12.869	188.9	0.654935333	0.822070520	0.014337277	0.147915039	0.045588852
2019-07-11T21:45:00	0.2569	12.863	188.9	0.657940832	0.826617534	0.014460650	0.149187860	0.045981147
2019-07-11T21:50:00	0.2569	12.858	201.6	0.657990252	0.826692366	0.014462683	0.149208837	0.045987613
2019-07-11T21:55:00	0.2555	12.854	188.8	0.653440469	0.819811817	0.014276119	0.147284091	0.045394387
2019-07-11T22:00:00	0.2580	12.848	201.5	0.661698598	0.832313517	0.014615681	0.150787290	0.046474107
2019-07-11T22:05:00	0.2580	12.843	188.7	0.661460550	0.831952328	0.014605835	0.150685704	0.046442797
2019-07-11T22:10:00	0.2592	12.839	188.7	0.665484195	0.838063912	0.014772736	0.152407597	0.046973502
2019-07-11T22:15:00	0.2574	12.835	201.5	0.659672016	0.829240145	0.014531965	0.149923601	0.046207910
2019-07-11T22:20:00	0.2565	12.831	188.8	0.656479019	0.824404995	0.014400575	0.148568074	0.045790123
2019-07-11T22:25:00	0.2571	12.826	199.0	0.658539178	0.827523692	0.014485278	0.149441939	0.046059457
2019-07-11T22:30:00	0.2579	12.823	188.9	0.661254251	0.831639352	0.014597304	0.150597696	0.046415673
2019-07-11T22:35:00	0.2585	12.818	199.4	0.663311694	0.834762341	0.014682497	0.151476617	0.046686564
2019-07-11T22:40:00	0.2595	12.814	202.0	0.666350761	0.839381970	0.014808812	0.152779780	0.047088212
2019-07-11T22:45:00	0.2588	12.810	200.6	0.664147040	0.836031346	0.014717161	0.151834233	0.046796785
2019-07-11T22:50:00	0.2600	12.808	201.5	0.668167706	0.842147658	0.014884601	0.153561688	0.047329204
2019-07-11T22:55:00	0.2601	12.807	200.9	0.668584845	0.842783011	0.014902030	0.153741496	0.047384622
2019-07-11T23:00:00	0.2609	12.802	180.2	0.670965285	0.846411572	0.015001693	0.154769699	0.047701524
2019-07-11T23:05:00	0.2609	12.796	199.3	0.671054988	0.846548404	0.015005455	0.154808516	0.047713488
2019-07-11T23:10:00	0.2611	12.790	186.8	0.671798872	0.847683377	0.015036675	0.155130607	0.047812760
2019-07-11T23:15:00	0.2618	12.783	187.6	0.673850346	0.850815863	0.015122950	0.156020690	0.048087092
2019-07-11T23:20:00	0.2633	12.777	187.0	0.678839716	0.858449461	0.015333861	0.158196622	0.048757735
2019-07-11T23:25:00	0.2611	12.770	199.4	0.671740860	0.847594850	0.015034239	0.155105476	0.047805014
2019-07-11T23:30:00	0.2616	12.763	200.5	0.673465471	0.850227904	0.015106745	0.155853498	0.048035562
2019-07-11T23:35:00	0.2617	12.757	187.1	0.673555112	0.850364834	0.015110518	0.155892431	0.048047561
2019-07-11T23:40:00	0.2606	12.751	202.5	0.670047119	0.845011413	0.014963210	0.154372682	0.047579160
2019-07-11T23:45:00	0.2606	12.745	200.6	0.670136845	0.845148209	0.014966969	0.154411456	0.047591110
2019-07-11T23:50:00	0.2621	12.740	187.4	0.675131306	0.852773652	0.015176953	0.156577823	0.048258806
2019-07-11T23:55:00	0.2605	12.735	186.9	0.669661840	0.844424098	0.014947078	0.154206246	0.047527863
2019-07-12T00:00:00	0.2623	12.730	187.1	0.675637236	0.853547292	0.015198309	0.156798156	0.048326715
2019-07-12T00:05:00	0.2620	12.726	199.6	0.674746566	0.852185476	0.015160722	0.156410377	0.048207197
2019-07-12T00:10:00	0.2607	12.720	187.2	0.670258255	0.845333320	0.014972055	0.154463930	0.047607283
2019-07-12T00:15:00	0.2608	12.719	199.9	0.670675153	0.845969055	0.014989527	0.154644187	0.047662840
2019-07-12T00:20:00	0.2607	12.719	198.6	0.670437693	0.845606931	0.014979574	0.154541502	0.047631192
2019-07-12T00:25:00	0.2644	12.721	184.6	0.682612834	0.864236468	0.015494380	0.159852659	0.049268142
2019-07-12T00:30:00	0.2657	12.719	184.1	0.686613164	0.870385377	0.015665526	0.161618343	0.049812343
2019-07-12T00:35:00	0.2644	12.714	196.2	0.682465574	0.864010378	0.015488098	0.159787856	0.049248169
2019-07-12T00:40:00	0.2647	12.709	196.2	0.683533155	0.865649870	0.015533666	0.160257970	0.049393063
2019-07-12T00:45:00	0.2636	12.704	184.0	0.680034765	0.860281035	0.015384607	0.158720152	0.048919092
2019-07-12T00:50:00	0.2636	12.699	184.0	0.679797916	0.859917934	0.015374542	0.158616320	0.048887090
2019-07-12T00:55:00	0.2650	12.693	196.5	0.684453244	0.867063647	0.015572995	0.160663719	0.049518118
2019-07-12T01:00:00	0.2648	12.688	196.5	0.683890718	0.866199202	0.015548944	0.160415587	0.049441642
2019-07-12T01:05:00	0.2652	12.684	198.2	0.684957882	0.867839367	0.015594588	0.160886488	0.049586778
2019-07-12T01:10:00	0.2678	12.679	183.7	0.693510186	0.881019276	0.015962930	0.164686608	0.050758012
2019-07-12T01:15:00	0.2651	12.674	196.5	0.684810717	0.867613125	0.015588289	0.160821506	0.049566750
2019-07-12T01:20:00	0.2653	12.670	196.3	0.685551798	0.868752603	0.015620021	0.161148876	0.049667649
2019-07-12T01:25:00	0.2666	12.666	196.2	0.689548915	0.874906717	0.015791757	0.162920643	0.050213724
2019-07-12T01:30:00	0.2649	12.663	196.1	0.684101052	0.866522395	0.015557935	0.160508342	0.049470230
2019-07-12T01:35:00	0.2649	12.659	183.2	0.684190433	0.866659746	0.015561756	0.160547767	0.049482381
2019-07-12T01:40:00	0.2653	12.654	195.4	0.685583351	0.868801130	0.015621373	0.161162822	0.049671947
2019-07-12T01:45:00	0.2668	12.650	182.8	0.690231318	0.875958751	0.015821175	0.163224147	0.050307267
2019-07-12T01:50:00	0.2664	12.646	195.1	0.689018696	0.874089577	0.015768919	0.162685030	0.050141106
2019-07-12T01:55:00	0.2655	12.642	182.4	0.686177165	0.869714531	0.015646824	0.161425403	0.049752877
2019-07-12T02:00:00	0.2659	12.638	182.4	0.687243662	0.871355776	0.015692591	0.161897567	0.049898402
2019-07-12T02:05:00	0.2669	12.634	182.2	0.690588226	0.876509143	0.015836573	0.163383004	0.050356229
2019-07-12T02:10:00	0.2682	12.630	182.1	0.694904863	0.883174608	0.016023429	0.165310759	0.050950381
2019-07-12T02:15:00	0.2679	12.628	181.9	0.694018879	0.881805214	0.015984982	0.164914116	0.050828132
2019-07-12T02:20:00	0.2690	12.623	181.7	0.697357267	0.886968640	0.016130103	0.166411294	0.051289577
2019-07-12T02:25:00	0.2684	12.619	181.5	0.695497167	0.884090464	0.016049158	0.165576207	0.051032195
2019-07-12T02:30:00	0.2682	12.614	181.3	0.694936336	0.883223265	0.016024795	0.165324858	0.050954727
2019-07-12T02:35:00	0.2677	12.609	181.0	0.693075007	0.880347095	0.015944078	0.164492111	0.050698066
2019-07-12T02:40:00	0.2689	12.604	180.9	0.697063926	0.886514547	0.016117323	0.166279452	0.051248942
2019-07-12T02:45:00	0.2702	12.599	180.8	0.701372956	0.893192444	0.016305584	0.168221705	0.051847563
2019-07-12T02:50:00	0.2696	12.595	180.7	0.699514889	0.890310938	0.016224264	0.167382736	0.051588985
2019-07-12T02:55:00	0.2693	12.590	180.6	0.698305334	0.888436760	0.016171441	0.166837781	0.051421024
2019-07-12T03:00:00	0.2712	12.587	180.5	0.704558296	0.898139278	0.016445495	0.169665141	0.052292444
2019-07-12T03:05:00	0.2722	12.582	180.3	0.707887131	0.903318388	0.016592386	0.171180586	0.052759519
2019-07-12T03:10:00	0.2744	12.579	180.0	0.715093653	0.914563604	0.016912761	0.174485835	0.053778229
2019-07-12T03:15:00	0.2730	12.573	179.9	0.710330898	0.907126622	0.016700662	0.172297653	0.053103810
2019-07-12T03:20:00	0.2730	12.569	179.9	0.710419642	0.907265014	0.016704601	0.172338291	0.053116335
2019-07-12T03:25:00	0.2746	12.563	179.9	0.715682719	0.915484798	0.016939092	0.174757492	0.053861956
2019-07-12T03:30:00	0.2746	12.559	192.0	0.715448158	0.915117950	0.016928605	0.174649293	0.053828608
2019-07-12T03:35:00	0.2747	12.555	179.9	0.715859947	0.915762011	0.016947019	0.174839267	0.053887160
2019-07-12T03:40:00	0.2749	12.550	179.9	0.716594795	0.916911720	0.016979905	0.175178553	0.053991731
2019-07-12T03:45:00	0.2743	12.546	192.0	0.714744387	0.914017556	0.016897159	0.174324871	0.053728618
2019-07-12T03:50:00	0.2757	12.542	191.9	0.719032810	0.920729508	0.017089257	0.176306712	0.054339441
2019-07-12T03:55:00	0.2756	12.538	191.8	0.718798462	0.920362306	0.017078729	0.176198103	0.054305967
2019-07-12T04:00:00	0.2750	12.535	179.6	0.716949156	0.917466306	0.016995776	0.175342290	0.054042197
2019-07-12T04:05:00	0.2746	12.532	179.5	0.715605156	0.915363486	0.016935624	0.174721710	0.053850928
2019-07-12T04:10:00	0.2766	12.529	179.4	0.722011597	0.925401167	0.017223370	0.177690334	0.054765887
2019-07-12T04:15:00	0.2759	12.526	191.7	0.719701104	0.921776925	0.017119297	0.176616628	0.054434960
2019-07-12T04:20:00	0.2772	12.522	179.5	0.723843951	0.928278722	0.017306145	0.178544307	0.055029089
2019-07-12T04:25:00	0.2783	12.520	191.6	0.727660063	0.934281039	0.017479213	0.180329816	0.055579401
2019-07-12T04:30:00	0.2772	12.517	191.6	0.724063555	0.928623788	0.017316080	0.178646800	0.055060679
2019-07-12T04:35:00	0.2779	12.514	179.4	0.726268553	0.932090871	0.017415999	0.179677650	0.055378397
2019-07-12T04:40:00	0.2776	12.512	179.3	0.725250280	0.930489235	0.017369818	0.179201209	0.055231553
2019-07-12T04:45:00	0.2791	12.511	179.2	0.730030838	0.938016433	0.017587194	0.181443840	0.055922754
2019-07-12T04:50:00	0.2774	12.510	178.9	0.724502724	0.929313987	0.017335956	0.178851863	0.055123881
2019-07-12T04:55:00	0.2798	12.510	178.8	0.732502711	0.941916372	0.017700158	0.182609268	0.056281950
2019-07-12T05:00:00	0.2798	12.509	178.6	0.732451407	0.941835373	0.017697810	0.182585039	0.056274482
2019-07-12T05:05:00	0.2811	12.509	178.6	0.736580069	0.948361056	0.017887336	0.184540347	0.056877127
2019-07-12T05:10:00	0.2817	12.509	178.4	0.738456483	0.951331835	0.017973829	0.185432682	0.057152154
2019-07-12T05:15:00	0.2797	12.508	190.5	0.731975750	0.941084521	0.017676044	0.182360485	0.056205272
2019-07-12T05:20:00	0.2811	12.508	190.5	0.736426322	0.948117778	0.017880259	0.184467334	0.056854624
2019-07-12T05:25:00	0.2823	12.510	178.3	0.740550587	0.954650925	0.018070620	0.186431258	0.057459924
2019-07-12T05:30:00	0.2828	12.512	178.2	0.742104139	0.957115754	0.018142606	0.187173924	0.057688821
2019-07-12T05:35:00	0.2844	12.514	190.3	0.747183600	0.965189560	0.018379040	0.189613163	0.058440618
2019-07-12T05:40:00	0.2825	12.517	190.3	0.741039002	0.955425603	0.018093235	0.186664572	0.057531834
2019-07-12T05:45:00	0.2836	12.520	178.1	0.744516886	0.960947978	0.018254708	0.188330456	0.058045276
2019-07-12T05:50:00	0.2840	12.523	178.4	0.745748238	0.962905742	0.018312062	0.188922164	0.058227646
2019-07-12T05:55:00	0.2846	12.525	190.6	0.747620054	0.965884365	0.018399432	0.189823543	0.058505460
2019-07-12T06:00:00	0.2829	12.526	178.6	0.742438852	0.957647079	0.018158136	0.187334138	0.057738201
2019-07-12T06:05:00	0.2849	12.531	178.5	0.748799304	0.967762496	0.018454589	0.190392596	0.058680847
2019-07-12T06:10:00	0.2851	12.535	178.6	0.749388790	0.968701801	0.018482195	0.190677397	0.058768626
2019-07-12T06:15:00	0.2846	12.539	178.7	0.747736072	0.966069087	0.018404854	0.189879488	0.058522702
2019-07-12T06:20:00	0.2838	12.541	190.9	0.745120883	0.961908124	0.018282829	0.188620574	0.058134693
2019-07-12T06:25:00	0.2844	12.544	178.8	0.746993013	0.964886210	0.018370139	0.189521334	0.058412316
2019-07-12T06:30:00	0.2845	12.546	190.9	0.747582783	0.965825026	0.018397690	0.189805573	0.058499921
2019-07-12T06:35:00	0.2851	12.548	178.9	0.749453682	0.968805221	0.018485235	0.190708762	0.058778293
2019-07-12T06:40:00	0.2850	12.551	191.0	0.749082342	0.968213458	0.018467841	0.190529312	0.058722984
2019-07-12T06:45:00	0.2851	12.552	178.9	0.749351537	0.968642432	0.018480450	0.190659392	0.058763076
2019-07-12T06:50:00	0.2877	12.552	179.0	0.757618093	0.981846711	0.018869884	0.194677111	0.060001376
2019-07-12T06:55:00	0.2871	12.553	179.1	0.755649288	0.978696425	0.018776739	0.193716151	0.059705199
2019-07-12T07:00:00	0.2860	12.557	179.2	0.752399672	0.973504220	0.018623539	0.192135618	0.059218064
2019-07-12T07:05:00	0.2869	12.567	179.2	0.755227567	0.978022075	0.018756819	0.193510644	0.059641860
2019-07-12T07:10:00	0.2867	12.575	179.3	0.754536994	0.976918160	0.018724225	0.193174377	0.059538219
2019-07-12T07:15:00	0.2878	12.577	179.4	0.758002378	0.982462008	0.018888093	0.194864976	0.060059278
2019-07-12T07:20:00	0.2873	12.576	179.4	0.756353451	0.979822762	0.018810024	0.194059555	0.059811040
2019-07-12T07:25:00	0.2871	12.580	179.5	0.755663085	0.978718489	0.018777391	0.193722877	0.059707272
2019-07-12T07:30:00	0.2862	12.588	179.5	0.753053422	0.974548025	0.018654305	0.192453028	0.059315892
2019-07-12T07:35:00	0.2868	12.597	179.7	0.754921595	0.977532912	0.018742374	0.193361616	0.059595928
2019-07-12T07:40:00	0.2871	12.618	179.8	0.755829840	0.978985184	0.018785270	0.193804171	0.059732328
2019-07-12T07:45:00	0.2870	12.635	179.9	0.755459130	0.978392335	0.018767755	0.193623472	0.059676634
2019-07-12T07:50:00	0.2868	12.636	180.0	0.754768599	0.977288346	0.018735153	0.193287120	0.059572968
2019-07-12T07:55:00	0.2877	12.640	180.1	0.757594711	0.981809279	0.018868776	0.194665684	0.059997854
2019-07-12T08:00:00	0.2875	12.646	180.2	0.756904573	0.980704612	0.018836098	0.194328553	0.059893947
2019-07-12T08:05:00	0.2868	12.660	180.3	0.754935394	0.977554972	0.018743025	0.193368336	0.059597999
2019-07-12T08:10:00	0.2856	12.672	180.4	0.751044986	0.971342475	0.018559873	0.191478783	0.059015621
2019-07-12T08:15:00	0.2890	12.693	180.6	0.761862239	0.988649463	0.019071519	0.196757342	0.060642524
2019-07-12T08:20:00	0.2875	12.720	180.6	0.757020305	0.980889828	0.018841576	0.194385065	0.059911365
2019-07-12T08:25:00	0.2875	12.738	180.8	0.756969336	0.980808256	0.018839163	0.194360176	0.059903694
2019-07-12T08:30:00	0.2875	12.758	181.0	0.756918366	0.980726685	0.018836751	0.194335287	0.059896023
2019-07-12T08:35:00	0.2872	12.775	181.0	0.756228104	0.979622232	0.018804097	0.193998402	0.059792192
2019-07-12T08:40:00	0.2869	12.786	181.1	0.755217969	0.978006730	0.018756366	0.193505969	0.059640419
2019-07-12T08:45:00	0.2879	12.811	181.3	0.758363248	0.983039932	0.018905202	0.195041483	0.060113679
2019-07-12T08:50:00	0.2861	12.838	181.5	0.752556968	0.973755331	0.018630939	0.192211963	0.059241594
2019-07-12T08:55:00	0.2875	12.852	193.9	0.756983128	0.980830329	0.018839816	0.194366911	0.059905770
2019-07-12T09:00:00	0.2865	12.858	181.6	0.753734667	0.975636131	0.018686394	0.192784086	0.059417928
2019-07-12T09:05:00	0.2869	12.882	181.7	0.755282761	0.978110324	0.018759425	0.193537534	0.059650148
2019-07-12T09:10:00	0.2866	12.912	194.3	0.754272372	0.976495261	0.018711743	0.193045605	0.059498530
2019-07-12T09:15:00	0.2878	12.922	194.4	0.758057532	0.982550327	0.018890708	0.194891947	0.060067591
2019-07-12T09:20:00	0.2875	12.961	194.6	0.757047889	0.980933975	0.018842882	0.194398536	0.059915517
2019-07-12T09:25:00	0.2851	12.995	195.1	0.749318492	0.968589769	0.018478902	0.190643421	0.058758154
2019-07-12T09:30:00	0.2876	13.031	182.8	0.757265549	0.981282353	0.018853186	0.194504850	0.059948284
2019-07-12T09:35:00	0.2871	13.046	195.3	0.755936009	0.979154994	0.018790288	0.193855939	0.059748283
2019-07-12T09:40:00	0.2877	13.049	182.9	0.757802749	0.982142356	0.018878633	0.194767372	0.060029196
2019-07-12T09:45:00	0.2891	13.073	195.6	0.762222739	0.989228029	0.019088699	0.196934585	0.060697152
2019-07-12T09:50:00	0.2881	13.113	195.8	0.758978804	0.984025995	0.018934404	0.195342758	0.060206535
2019-07-12T09:55:00	0.2853	13.153	195.9	0.749972780	0.969632650	0.018509565	0.190959767	0.058855655
2019-07-12T10:00:00	0.2862	13.177	196.1	0.752802504	0.974147353	0.018642493	0.192331168	0.059278334
2019-07-12T10:05:00	0.2856	13.232	196.5	0.751018191	0.971299735	0.018558614	0.191465804	0.059011620
2019-07-12T10:10:00	0.2875	13.231	196.5	0.756911632	0.980715909	0.018836432	0.194331999	0.059895010
2019-07-12T10:15:00	0.2862	13.254	196.7	0.752890240	0.974287446	0.018646623	0.192373773	0.059291465
2019-07-12T10:20:00	0.2862	13.265	196.8	0.753026135	0.974504450	0.018653021	0.192439774	0.059311807
2019-07-12T10:25:00	0.2860	13.304	197.0	0.752202100	0.973188844	0.018614246	0.192039748	0.059188516
2019-07-12T10:30:00	0.2858	13.339	197.1	0.751697957	0.972384254	0.018590546	0.191795233	0.059113154
2019-07-12T10:35:00	0.2868	13.382	197.3	0.754713217	0.977199821	0.018732540	0.193260157	0.059564657
2019-07-12T10:40:00	0.2864	13.375	184.9	0.753569666	0.975372549	0.018678620	0.192703874	0.059393206
2019-07-12T10:45:00	0.2876	13.374	197.1	0.757222655	0.981213696	0.018851155	0.194483896	0.059941826
2019-07-12T10:50:00	0.2864	13.388	184.7	0.753521513	0.975295630	0.018676351	0.192680469	0.059385992
2019-07-12T10:55:00	0.2839	13.399	184.9	0.745651547	0.962751962	0.018307555	0.188875665	0.058213314
2019-07-12T11:00:00	0.2834	13.417	185.1	0.743863824	0.959910197	0.018224329	0.188017039	0.057948677
2019-07-12T11:05:00	0.2828	13.442	185.2	0.742075246	0.957069893	0.018141266	0.187160098	0.057684560
2019-07-12T11:10:00	0.2826	13.469	197.8	0.741248797	0.955758424	0.018102954	0.186764838	0.057562737
2019-07-12T11:15:00	0.2818	13.505	185.5	0.738816695	0.951902484	0.017990459	0.185604246	0.057205031
2019-07-12T11:20:00	0.2811	13.519	185.6	0.736704365	0.948557749	0.017893058	0.184599385	0.056895323
2019-07-12T11:25:00	0.2809	13.504	185.7	0.735876726	0.947248306	0.017854973	0.184206462	0.056774221
2019-07-12T11:30:00	0.2775	13.504	185.7	0.725069411	0.930204843	0.017361622	0.179116652	0.055205492
2019-07-12T11:35:00	0.2788	13.512	185.8	0.729072388	0.936505705	0.017543497	0.180993026	0.055783808
2019-07-12T11:40:00	0.2780	13.544	186.0	0.726632318	0.932663256	0.017432512	0.179848017	0.055430905
2019-07-12T11:45:00	0.2773	13.580	186.3	0.724190644	0.928823504	0.017321830	0.178706130	0.055078965
2019-07-12T11:50:00	0.2787	13.603	186.4	0.728838673	0.936137441	0.017532850	0.180883186	0.055749955
2019-07-12T11:55:00	0.2761	13.619	186.5	0.720593657	0.923176431	0.017159461	0.177030995	0.054562672
2019-07-12T12:00:00	0.2775	13.636	186.6	0.724923841	0.929975973	0.017355027	0.179048613	0.055184522
2019-07-12T12:05:00	0.2786	13.643	199.4	0.728604943	0.935769202	0.017522207	0.180773376	0.055716110
2019-07-12T12:10:00	0.2749	13.673	186.8	0.716484242	0.916738724	0.016974956	0.175127488	0.053975993
2019-07-12T12:15:00	0.2722	13.690	186.9	0.707887791	0.903319417	0.016592415	0.171180887	0.052759612
2019-07-12T12:20:00	0.2746	13.688	186.9	0.715466168	0.915146115	0.016929410	0.174657600	0.053831169
2019-07-12T12:25:00	0.2734	13.709	187.0	0.711723280	0.909298763	0.016762522	0.172935848	0.053300508
2019-07-12T12:30:00	0.2715	13.729	187.1	0.705708982	0.899928462	0.016496193	0.170188181	0.052453650
2019-07-12T12:35:00	0.2721	13.726	187.2	0.707466417	0.902663296	0.016573783	0.170988662	0.052700366
2019-07-12T12:40:00	0.2715	13.725	187.2	0.705660204	0.899852595	0.016494042	0.170165992	0.052446811
2019-07-12T12:45:00	0.2703	13.735	187.3	0.701582950	0.893518295	0.016314788	0.168316663	0.051876830
2019-07-12T12:50:00	0.2709	13.760	187.4	0.703666595	0.896753577	0.016406265	0.169260409	0.052167702
2019-07-12T12:55:00	0.2713	13.798	187.6	0.704776810	0.898478953	0.016455116	0.169764400	0.052323037
2019-07-12T13:00:00	0.2696	13.840	200.7	0.699400403	0.890133491	0.016219260	0.167331115	0.051573075
2019-07-12T13:05:00	0.2690	13.893	200.9	0.697590224	0.887329311	0.016140255	0.166516036	0.051321859
2019-07-12T13:10:00	0.2690	13.941	201.3	0.697403396	0.887040055	0.016132113	0.166432032	0.051295969
2019-07-12T13:15:00	0.2688	13.970	201.5	0.696891751	0.886248055	0.016109825	0.166202093	0.051225099
2019-07-12T13:20:00	0.2701	14.000	201.7	0.700925368	0.892498047	0.016285975	0.168019403	0.051785212
2019-07-12T13:25:00	0.2692	14.035	201.9	0.698141933	0.888183672	0.016164313	0.166764234	0.051398357
2019-07-12T13:30:00	0.2712	14.072	202.3	0.704443968	0.897961573	0.016440462	0.169613221	0.052276442
2019-07-12T13:35:00	0.2699	14.117	202.4	0.700365365	0.891629492	0.016261459	0.167766474	0.051707257
2019-07-12T13:40:00	0.2676	14.164	202.8	0.693032028	0.880280718	0.015942216	0.164472908	0.050692148
2019-07-12T13:45:00	0.2668	14.198	202.9	0.690242596	0.875976141	0.015821662	0.163229166	0.050308814
2019-07-12T13:50:00	0.2673	14.224	203.1	0.692007446	0.878698827	0.015897879	0.164015492	0.050551167
2019-07-12T13:55:00	0.2672	14.243	203.2	0.691495047	0.877908057	0.015875731	0.163786988	0.050480740
2019-07-12T14:00:00	0.2663	14.268	203.4	0.688704443	0.873605386	0.015755392	0.162545470	0.050098093
2019-07-12T14:05:00	0.2665	14.294	190.6	0.689168235	0.874320013	0.015775358	0.162751462	0.050161581
2019-07-12T14:10:00	0.2648	14.318	203.7	0.683768876	0.866012001	0.015543737	0.160361869	0.049425085
2019-07-12T14:15:00	0.2657	14.341	190.9	0.686839943	0.870734373	0.015675258	0.161718746	0.049843288
2019-07-12T14:20:00	0.2665	14.360	203.9	0.689257492	0.874457564	0.015779202	0.162791121	0.050173805
2019-07-12T14:25:00	0.2645	14.376	191.1	0.682880190	0.864646991	0.015505787	0.159970348	0.049304415
2019-07-12T14:30:00	0.2666	14.380	191.1	0.689533985	0.874883704	0.015791113	0.162914006	0.050211679
2019-07-12T14:35:00	0.2642	14.390	191.3	0.681852759	0.863069719	0.015461973	0.159518330	0.049165098
2019-07-12T14:40:00	0.2649	14.393	191.3	0.684273608	0.866787568	0.015565312	0.160584459	0.049493690
2019-07-12T14:45:00	0.2638	14.395	191.4	0.680498772	0.860992521	0.015404334	0.158923671	0.048981819
2019-07-12T14:50:00	0.2631	14.401	191.4	0.678352757	0.857703483	0.015313209	0.157983555	0.048692066
2019-07-12T14:55:00	0.2629	14.410	204.5	0.677511905	0.856415854	0.015277582	0.157615999	0.048578782
2019-07-12T15:00:00	0.2618	14.418	191.6	0.674056929	0.851131505	0.015131653	0.156110470	0.048114763
2019-07-12T15:05:00	0.2613	14.428	191.6	0.672234150	0.848347720	0.015054959	0.155319240	0.047870898
2019-07-12T15:10:00	0.2612	14.429	191.6	0.672046021	0.848060569	0.015047055	0.155237697	0.047845766
2019-07-12T15:15:00	0.2614	14.413	191.6	0.672838919	0.849271019	0.015080382	0.155581523	0.047951736
2019-07-12T15:20:00	0.2590	14.400	191.6	0.664794691	0.837015627	0.014744065	0.152111800	0.046882334
2019-07-12T15:25:00	0.2573	14.389	191.6	0.659359010	0.828765775	0.014519057	0.149790436	0.046166867
2019-07-12T15:30:00	0.2582	14.370	191.5	0.662122832	0.832957327	0.014633238	0.150968419	0.046529933
2019-07-12T15:35:00	0.2609	14.344	191.5	0.671105230	0.846625044	0.015007563	0.154830259	0.047720189
2019-07-12T15:40:00	0.2616	14.323	204.5	0.673206309	0.849832065	0.015095837	0.155740971	0.048000880
2019-07-12T15:45:00	0.2600	14.307	191.3	0.668110638	0.842060748	0.014882218	0.153537098	0.047321625
2019-07-12T15:50:00	0.2614	14.294	204.3	0.672830142	0.849257617	0.015080013	0.155577715	0.047950563
2019-07-12T15:55:00	0.2636	14.288	191.3	0.679828632	0.859965020	0.015375847	0.158629784	0.048891240
2019-07-12T16:00:00	0.2644	14.285	191.3	0.682576933	0.864181348	0.015492848	0.159836860	0.049263273
2019-07-12T16:05:00	0.2623	14.278	204.3	0.675583726	0.853465458	0.015196050	0.156774845	0.048319530
2019-07-12T16:10:00	0.2626	14.268	191.3	0.676751655	0.855252177	0.015245408	0.157284062	0.048476476
2019-07-12T16:15:00	0.2619	14.260	191.3	0.674325803	0.851542376	0.015142983	0.156227361	0.048150790
2019-07-12T16:20:00	0.2595	14.249	191.2	0.666334177	0.839356740	0.014808121	0.152772653	0.047086015
2019-07-12T16:25:00	0.2602	14.237	204.3	0.668814639	0.843133080	0.014911636	0.153840596	0.047415166
2019-07-12T16:30:00	0.2609	14.222	191.3	0.670966286	0.846413098	0.015001735	0.154770132	0.047701658
2019-07-12T16:35:00	0.2597	14.211	191.2	0.667226912	0.840715261	0.014845333	0.153156563	0.047204340
2019-07-12T16:40:00	0.2593	14.201	204.4	0.665777637	0.838510170	0.014784947	0.152533575	0.047012329
2019-07-12T16:45:00	0.2604	14.188	204.2	0.669567766	0.844280711	0.014943140	0.154165621	0.047515342
2019-07-12T16:50:00	0.2612	14.172	191.2	0.672046021	0.848060569	0.015047055	0.155237697	0.047845766
2019-07-12T16:55:00	0.2623	14.155	204.3	0.675502906	0.853341860	0.015192637	0.156739639	0.048308679
2019-07-12T17:00:00	0.2607	14.137	204.1	0.670459706	0.845640498	0.014980496	0.154551019	0.047634125
2019-07-12T17:05:00	0.2598	14.118	191.0	0.667374789	0.840940360	0.014851502	0.153220205	0.047223955
2019-07-12T17:10:00	0.2619	14.098	204.0	0.674432970	0.851706156	0.015147500	0.156273963	0.048165153
2019-07-12T17:15:00	0.2610	14.077	190.9	0.671351426	0.847000634	0.015017892	0.154936827	0.047753035
2019-07-12T17:20:00	0.2629	14.058	190.9	0.677748903	0.856778717	0.015287619	0.157719551	0.048610697
2019-07-12T17:25:00	0.2634	14.039	190.8	0.679242546	0.859066714	0.015350957	0.158372993	0.048812095
2019-07-12T17:30:00	0.2627	14.021	203.7	0.676818354	0.855354250	0.015248229	0.157313169	0.048485447
2019-07-12T17:35:00	0.2645	14.005	203.7	0.682880190	0.864646991	0.015505787	0.159970348	0.049304415
2019-07-12T17:40:00	0.2651	13.993	203.6	0.684697654	0.867439322	0.015583451	0.160771591	0.049551366
2019-07-12T17:45:00	0.2678	13.980	203.5	0.693673572	0.881271685	0.015970011	0.164759663	0.050780528
2019-07-12T17:50:00	0.2694	13.968	190.6	0.698733715	0.889100382	0.016190139	0.167030677	0.051480477
2019-07-12T17:55:00	0.2666	13.954	203.5	0.689493729	0.874821656	0.015789379	0.162896112	0.050206164
2019-07-12T18:00:00	0.2670	13.943	203.5	0.690982577	0.877117403	0.015853595	0.163558620	0.050410355
2019-07-12T18:05:00	0.2681	13.932	203.4	0.694421586	0.882427560	0.016002451	0.165094340	0.050883679
2019-07-12T18:10:00	0.2690	13.917	203.3	0.697532621	0.887240123	0.016137744	0.166490133	0.051313876
2019-07-12T18:15:00	0.2696	13.899	203.2	0.699342829	0.890044257	0.016216744	0.167305158	0.051565075
2019-07-12T18:20:00	0.2690	13.885	203.1	0.697581506	0.887315813	0.016139875	0.166512116	0.051320651
2019-07-12T18:25:00	0.2684	13.870	203.1	0.695494407	0.884086195	0.016049038	0.165574969	0.051031813
2019-07-12T18:30:00	0.2677	13.858	203.0	0.693080974	0.880356310	0.015944336	0.164494776	0.050698888
2019-07-12T18:35:00	0.2685	13.847	190.2	0.695868247	0.884664405	0.016065289	0.165742625	0.051083487
2019-07-12T18:40:00	0.2709	13.833	203.0	0.703520179	0.896526113	0.016399828	0.169194001	0.052147234
2019-07-12T18:45:00	0.2710	13.820	202.9	0.704030902	0.897319626	0.016422286	0.169425702	0.052218647
2019-07-12T18:50:00	0.2719	13.804	202.8	0.706809885	0.901641318	0.016544775	0.170689390	0.052608128
2019-07-12T18:55:00	0.2710	13.788	202.8	0.704079701	0.897395457	0.016424433	0.169447849	0.052225473
2019-07-12T19:00:00	0.2728	13.771	202.7	0.709772984	0.906256741	0.016675910	0.172042286	0.053025103
2019-07-12T19:05:00	0.2722	13.752	202.6	0.707692792	0.903015765	0.016583791	0.171091917	0.052732190
2019-07-12T19:10:00	0.2727	13.734	202.5	0.709498010	0.905828110	0.016663717	0.171916500	0.052986335
2019-07-12T19:15:00	0.2712	13.714	202.5	0.704501463	0.898050938	0.016442993	0.169639330	0.052284489
2019-07-12T19:20:00	0.2725	13.695	202.4	0.708899266	0.904895013	0.016637185	0.171642774	0.052901970
2019-07-12T19:25:00	0.2695	13.675	202.3	0.699035637	0.889568196	0.016203323	0.167166701	0.051522401
2019-07-12T19:30:00	0.2714	13.654	202.3	0.705384923	0.899424471	0.016481907	0.170040795	0.052408224
2019-07-12T19:35:00	0.2715	13.630	202.1	0.705571346	0.899714393	0.016490124	0.170125574	0.052434354
2019-07-12T19:40:00	0.2737	13.609	189.1	0.712556326	0.910599137	0.016799590	0.173318270	0.053418374
2019-07-12T19:45:00	0.2718	13.585	201.9	0.706592153	0.901302472	0.016535160	0.170590201	0.052577557
2019-07-12T19:50:00	0.2727	13.561	201.8	0.709369205	0.905627352	0.016658008	0.171857595	0.052968180
2019-07-12T19:55:00	0.2716	13.538	188.9	0.705992936	0.900370156	0.016508716	0.170317382	0.052493471
2019-07-12T20:00:00	0.2726	13.516	201.6	0.709094201	0.905198771	0.016645821	0.171731867	0.052929429
2019-07-12T20:05:00	0.2706	13.495	201.6	0.702800133	0.895407759	0.016368192	0.168867622	0.052046641
2019-07-12T20:10:00	0.2731	13.473	188.5	0.710761291	0.907797862	0.016719770	0.172494789	0.053164569
2019-07-12T20:15:00	0.2733	13.450	188.4	0.711271012	0.908593031	0.016742415	0.172728414	0.053236575
2019-07-12T20:20:00	0.2724	13.427	188.3	0.708544132	0.904341711	0.016621459	0.171480528	0.052851964
2019-07-12T20:25:00	0.2738	13.406	188.3	0.712937118	0.911193751	0.016816548	0.173493229	0.053472298
2019-07-12T20:30:00	0.2728	13.384	188.2	0.709887807	0.906435747	0.016681002	0.172094826	0.053041297
2019-07-12T20:35:00	0.2713	13.361	188.1	0.704891789	0.898657702	0.016460180	0.169816641	0.052339138
2019-07-12T20:40:00	0.2700	13.337	188.0	0.700862525	0.892400565	0.016283223	0.167991010	0.051776461
2019-07-12T20:45:00	0.2727	13.313	187.8	0.709475351	0.905792793	0.016662713	0.171906137	0.052983141
2019-07-12T20:50:00	0.2722	13.291	187.7	0.707718873	0.903056376	0.016584945	0.171103815	0.052735858
2019-07-12T20:55:00	0.2722	13.270	187.7	0.707905178	0.903346492	0.016593184	0.171188821	0.052762057
2019-07-12T21:00:00	0.2701	13.248	187.5	0.700960206	0.892552090	0.016287501	0.168035145	0.051790064
2019-07-12T21:05:00	0.2698	13.226	187.5	0.700173385	0.891331797	0.016253059	0.167679812	0.051680546
2019-07-12T21:10:00	0.2693	13.204	187.3	0.698412461	0.888602700	0.016176116	0.166886008	0.051435889
2019-07-12T21:15:00	0.2691	13.182	187.1	0.697625095	0.887383302	0.016141775	0.166531717	0.051326693
2019-07-12T21:20:00	0.2682	13.160	199.6	0.694888078	0.883148658	0.016022700	0.165303240	0.050948064
2019-07-12T21:25:00	0.2703	13.141	199.4	0.701568951	0.893496571	0.016314175	0.168310332	0.051874879
2019-07-12T21:30:00	0.2691	13.120	186.9	0.697860793	0.887748273	0.016152051	0.166637733	0.051359368
2019-07-12T21:35:00	0.2711	13.099	199.5	0.704212106	0.897601217	0.016430259	0.169507949	0.052243996
2019-07-12T21:40:00	0.2695	13.079	199.4	0.699208373	0.889835879	0.016210869	0.167244549	0.051546394
2019-07-12T21:45:00	0.2695	13.061	199.3	0.699070494	0.889622210	0.016204846	0.167182408	0.051527242
2019-07-12T21:50:00	0.2682	13.044	186.5	0.694709837	0.882873113	0.016014961	0.165223405	0.050923458
2019-07-12T21:55:00	0.2670	13.027	199.2	0.690994737	0.877136162	0.015854120	0.163564037	0.050412025
2019-07-12T22:00:00	0.2663	13.009	186.4	0.688578337	0.873411108	0.015749965	0.162489484	0.050080837
2019-07-12T22:05:00	0.2697	12.992	199.0	0.699587644	0.890423711	0.016227444	0.167415545	0.051599097
2019-07-12T22:10:00	0.2680	12.976	198.9	0.694347513	0.882313077	0.015999237	0.165061182	0.050873459
2019-07-12T22:15:00	0.2679	12.958	198.9	0.693979335	0.881744109	0.015983267	0.164896424	0.050822679
2019-07-12T22:20:00	0.2671	12.942	186.1	0.691334622	0.877660525	0.015868800	0.163715481	0.050458701
2019-07-12T22:25:00	0.2673	12.927	186.1	0.691942055	0.878597899	0.015895052	0.163986322	0.050542177
2019-07-12T22:30:00	0.2652	12.910	198.5	0.685061968	0.867999393	0.015599043	0.160932456	0.049600946
2019-07-12T22:35:00	0.2663	12.893	198.6	0.688601641	0.873447009	0.015750968	0.162499829	0.050084026
2019-07-12T22:40:00	0.2658	12.877	185.8	0.686930290	0.870873422	0.015679136	0.161758754	0.049855619
2019-07-12T22:45:00	0.2663	12.864	185.8	0.688840833	0.873815520	0.015761262	0.162606033	0.050116759
2019-07-12T22:50:00	0.2647	12.850	198.4	0.683585292	0.865729963	0.015535893	0.160280947	0.049400145
2019-07-12T22:55:00	0.2639	12.835	198.3	0.680933049	0.861658587	0.015422809	0.159114274	0.049040565
2019-07-12T23:00:00	0.2643	12.821	198.2	0.682194530	0.863594290	0.015476541	0.159668617	0.049211418
2019-07-12T23:05:00	0.2624	12.807	185.6	0.675949470	0.854024854	0.015211498	0.156934216	0.048368650
2019-07-12T23:10:00	0.2638	12.793	198.1	0.680476968	0.860959084	0.015403406	0.158914105	0.048978870
2019-07-12T23:15:00	0.2649	12.781	198.1	0.684021085	0.866399515	0.015554516	0.160473074	0.049459360
2019-07-12T23:20:00	0.2642	12.769	185.4	0.681695347	0.862828145	0.015455266	0.159449135	0.049143772
2019-07-12T23:25:00	0.2656	12.757	198.0	0.686541479	0.870275068	0.015662450	0.161586612	0.049802563
2019-07-12T23:30:00	0.2644	12.745	197.9	0.682587238	0.864197169	0.015493288	0.159841395	0.049264670
2019-07-12T23:35:00	0.2637	12.734	185.2	0.680260586	0.860627274	0.015394206	0.158819183	0.048949614
2019-07-12T23:40:00	0.2638	12.723	197.9	0.680543599	0.861061266	0.015406240	0.158943340	0.048987881
2019-07-12T23:45:00	0.2626	12.714	197.8	0.676582849	0.854993862	0.015238269	0.157210409	0.048453775
2019-07-12T23:50:00	0.2637	12.705	197.8	0.680130750	0.860428198	0.015388686	0.158762241	0.048932065
2019-07-12T23:55:00	0.2637	12.696	197.8	0.680087470	0.860361841	0.015386847	0.158743262	0.048926215
2019-07-13T00:00:00	0.2644	12.688	185.1	0.682327727	0.863798758	0.015482220	0.159727208	0.049229477
2019-07-13T00:05:00	0.2646	12.679	185.1	0.683262707	0.865234448	0.015522116	0.160138808	0.049356336
2019-07-13T00:10:00	0.2647	12.671	197.7	0.683545488	0.865668815	0.015534193	0.160263405	0.049394738
2019-07-13T00:15:00	0.2653	12.663	185.0	0.685457801	0.868608048	0.015615994	0.161107334	0.049654845
2019-07-13T00:20:00	0.2630	12.655	197.5	0.677912515	0.857029247	0.015294551	0.157791058	0.048632737
2019-07-13T00:25:00	0.2636	12.647	197.6	0.679827781	0.859963717	0.015375811	0.158629411	0.048891125
2019-07-13T00:30:00	0.2643	12.640	197.5	0.682068198	0.863400377	0.015471155	0.159613056	0.049194294
2019-07-13T00:35:00	0.2618	12.634	184.8	0.673862194	0.850833964	0.015123449	0.156025838	0.048088679
2019-07-13T00:40:00	0.2629	12.626	197.4	0.677739288	0.856763993	0.015287212	0.157715348	0.048609402
2019-07-13T00:45:00	0.2627	12.619	197.4	0.677042857	0.855697847	0.015257728	0.157411162	0.048515649
2019-07-13T00:50:00	0.2647	12.612	197.4	0.683525585	0.865638242	0.015533343	0.160254634	0.049392035
2019-07-13T00:55:00	0.2639	12.606	197.4	0.680873298	0.861566936	0.015420266	0.159088042	0.049032480
2019-07-13T01:00:00	0.2629	12.599	184.7	0.677566052	0.856498753	0.015279875	0.157639654	0.048586072
2019-07-13T01:05:00	0.2633	12.592	197.3	0.678828698	0.858432581	0.015333394	0.158191800	0.048756249
2019-07-13T01:10:00	0.2634	12.584	197.2	0.679111823	0.858866394	0.015345408	0.158315748	0.048794451
2019-07-13T01:15:00	0.2637	12.578	197.2	0.680047627	0.860300755	0.015385153	0.158725792	0.048920831
2019-07-13T01:20:00	0.2646	12.572	184.5	0.683266141	0.865239723	0.015522263	0.160140321	0.049356802
2019-07-13T01:25:00	0.2646	12.566	184.5	0.683222899	0.865173306	0.015520416	0.160121272	0.049350931
2019-07-13T01:30:00	0.2640	12.558	197.1	0.681222883	0.862103207	0.015435145	0.159241548	0.049079792
2019-07-13T01:35:00	0.2631	12.551	197.1	0.678242452	0.857534534	0.015308533	0.157935312	0.048677197
2019-07-13T01:40:00	0.2623	12.545	197.0	0.675586317	0.853469420	0.015196159	0.156775974	0.048319878
2019-07-13T01:45:00	0.2613	12.538	197.0	0.672274263	0.848408952	0.015056645	0.155336630	0.047876258
2019-07-13T01:50:00	0.2633	12.531	184.4	0.678765475	0.858335717	0.015330712	0.158164129	0.048747720
2019-07-13T01:55:00	0.2647	12.524	197.0	0.683615496	0.865776363	0.015537184	0.160294260	0.049404248
2019-07-13T02:00:00	0.2630	12.518	196.9	0.678025936	0.857202937	0.015299356	0.157840640	0.048648018
2019-07-13T02:05:00	0.2629	12.512	196.9	0.677656110	0.856636638	0.015283689	0.157679002	0.048598200
2019-07-13T02:10:00	0.2631	12.507	196.8	0.678265822	0.857570328	0.015309524	0.157945533	0.048680347
2019-07-13T02:15:00	0.2630	12.501	184.2	0.677896021	0.857003989	0.015293852	0.157783849	0.048630515
2019-07-13T02:20:00	0.2639	12.496	184.1	0.680790193	0.861439465	0.015416730	0.159051561	0.049021236
2019-07-13T02:25:00	0.2635	12.491	184.1	0.679441652	0.859371855	0.015359410	0.158460206	0.048838974
2019-07-13T02:30:00	0.2635	12.486	184.0	0.679398364	0.859305511	0.015357572	0.158441243	0.048833130
2019-07-13T02:35:00	0.2619	12.482	196.6	0.674456031	0.851741402	0.015148472	0.156283993	0.048168244
2019-07-13T02:40:00	0.2630	12.478	196.6	0.678006004	0.857172412	0.015298512	0.157831926	0.048645332
2019-07-13T02:45:00	0.2638	12.473	183.9	0.680573828	0.861107626	0.015407526	0.158956604	0.048991969
2019-07-13T02:50:00	0.2649	12.470	196.6	0.684117851	0.866548208	0.015558653	0.160515751	0.049472513
2019-07-13T02:55:00	0.2641	12.466	183.9	0.681465994	0.862476208	0.015445497	0.159348347	0.049112708
2019-07-13T03:00:00	0.2639	12.461	196.5	0.680770275	0.861408916	0.015415883	0.159042819	0.049018541
2019-07-13T03:05:00	0.2650	12.458	196.5	0.684314107	0.866849806	0.015567044	0.160602326	0.049499197
2019-07-13T03:10:00	0.2645	12.454	183.8	0.682966868	0.864780096	0.015509486	0.160008512	0.049316178
2019-07-13T03:15:00	0.2633	12.452	196.4	0.679008750	0.858708454	0.015341034	0.158270618	0.048780542
2019-07-13T03:20:00	0.2648	12.449	196.4	0.683858449	0.866149622	0.015547565	0.160401359	0.049437257
2019-07-13T03:25:00	0.2646	12.447	183.7	0.683163186	0.865081594	0.015517867	0.160094970	0.049342825
2019-07-13T03:30:00	0.2653	12.445	183.7	0.685401556	0.868521556	0.015613585	0.161082479	0.049647184
2019-07-13T03:35:00	0.2663	12.445	196.3	0.688615358	0.873468141	0.015751558	0.162505919	0.050085902
2019-07-13T03:40:00	0.2648	12.444	183.7	0.683685504	0.865883914	0.015540175	0.160325117	0.049413758
2019-07-13T03:45:00	0.2648	12.444	183.6	0.683642266	0.865817489	0.015538327	0.160306058	0.049407884
2019-07-13T03:50:00	0.2651	12.445	183.7	0.684902811	0.867754702	0.015592231	0.160862169	0.049579283
2019-07-13T03:55:00	0.2669	12.446	196.2	0.690720934	0.876713822	0.015842300	0.163442092	0.050374440
2019-07-13T04:00:00	0.2671	12.447	196.2	0.691328469	0.877651031	0.015868534	0.163712739	0.050457856
2019-07-13T04:05:00	0.2657	12.450	183.6	0.686684811	0.870495632	0.015668600	0.161650060	0.049822118
2019-07-13T04:10:00	0.2667	12.452	183.6	0.689854322	0.875377501	0.015804919	0.163056438	0.050255578
2019-07-13T04:15:00	0.2682	12.454	196.2	0.694971563	0.883277728	0.016026325	0.165340640	0.050959591
2019-07-13T04:20:00	0.2669	12.457	183.7	0.690657916	0.876616625	0.015839580	0.163414031	0.050365792
2019-07-13T04:25:00	0.2671	12.460	183.6	0.691222313	0.877487247	0.015863948	0.163665431	0.050443275
2019-07-13T04:30:00	0.2652	12.463	196.2	0.684949467	0.867826429	0.015594228	0.160882771	0.049585633
2019-07-13T04:35:00	0.2662	12.466	183.6	0.688446067	0.873207351	0.015744274	0.162430773	0.050062742
2019-07-13T04:40:00	0.2674	12.469	183.6	0.692264576	0.879095735	0.015909000	0.164130222	0.050586529
2019-07-13T04:45:00	0.2657	12.472	183.6	0.686645040	0.870434430	0.015666894	0.161632453	0.049816692
2019-07-13T04:50:00	0.2672	12.474	183.6	0.691766766	0.878327365	0.015887474	0.163908140	0.050518081
2019-07-13T04:55:00	0.2682	12.476	183.6	0.694931882	0.883216379	0.016024602	0.165322863	0.050954112
2019-07-13T05:00:00	0.2663	12.479	183.6	0.688665395	0.873545227	0.015753711	0.162528133	0.050092749
2019-07-13T05:05:00	0.2676	12.490	193.8	0.692808874	0.879936104	0.015932554	0.164373225	0.050661424
2019-07-13T05:10:00	0.2697	12.495	180.4	0.699869866	0.890861208	0.016239783	0.167542847	0.051638332
2019-07-13T05:15:00	0.2700	12.497	180.6	0.700757343	0.892237414	0.016278617	0.167943493	0.051761815
2019-07-13T05:20:00	0.2676	12.499	181.0	0.692875280	0.880038650	0.015935429	0.164402886	0.050670566
2019-07-13T05:25:00	0.2700	12.502	181.0	0.700585194	0.891970410	0.016271080	0.167865737	0.051737851
2019-07-13T05:30:00	0.2668	12.504	180.9	0.690425698	0.876258493	0.015829560	0.163310654	0.050333930
2019-07-13T05:35:00	0.2684	12.504	181.0	0.695542142	0.884160019	0.016051113	0.165596372	0.051038410
2019-07-13T05:40:00	0.2700	12.505	181.2	0.700651460	0.892073186	0.016273981	0.167895666	0.051747075
2019-07-13T05:45:00	0.2682	12.507	193.5	0.694719776	0.882888478	0.016015393	0.165227857	0.050924830
2019-07-13T05:50:00	0.2686	12.510	181.5	0.696258313	0.885267840	0.016082254	0.165917653	0.051137432
2019-07-13T05:55:00	0.2697	12.513	181.6	0.699744143	0.890666305	0.016234285	0.167486131	0.051620852
2019-07-13T06:00:00	0.2697	12.517	181.6	0.699658045	0.890532840	0.016230521	0.167447296	0.051608883
2019-07-13T06:05:00	0.2697	12.519	181.7	0.699571946	0.890399378	0.016226758	0.167408466	0.051596915
2019-07-13T06:10:00	0.2721	12.524	181.7	0.707591730	0.902858405	0.016579323	0.171045816	0.052717982
2019-07-13T06:15:00	0.2721	12.528	181.7	0.707505817	0.902724638	0.016575525	0.171006631	0.052705904
2019-07-13T06:20:00	0.2716	12.531	181.6	0.705800076	0.900070152	0.016500210	0.170229624	0.052466423
2019-07-13T06:25:00	0.2738	12.539	181.6	0.713159605	0.911541226	0.016826461	0.173595495	0.053503818
2019-07-13T06:30:00	0.2719	12.550	181.6	0.706924140	0.901819144	0.016549821	0.170741452	0.052624174
2019-07-13T06:35:00	0.2717	12.559	181.6	0.706190264	0.900677142	0.016517422	0.170407199	0.052521154
2019-07-13T06:40:00	0.2730	12.568	181.6	0.710314036	0.907100328	0.016699914	0.172289932	0.053101430
2019-07-13T06:45:00	0.2718	12.576	181.6	0.706666346	0.901417931	0.016538436	0.170623997	0.052587973
2019-07-13T06:50:00	0.2731	12.586	181.5	0.710789586	0.907841997	0.016721027	0.172507753	0.053168565
2019-07-13T06:55:00	0.2737	12.598	181.5	0.712644870	0.910737388	0.016803532	0.173358944	0.053430910
2019-07-13T07:00:00	0.2733	12.608	181.5	0.711265075	0.908583768	0.016742152	0.172725692	0.053235736
2019-07-13T07:05:00	0.2723	12.616	181.4	0.708266022	0.903908491	0.016609149	0.171353528	0.052812821
2019-07-13T07:10:00	0.2726	12.620	181.3	0.709151477	0.905288027	0.016648359	0.171758048	0.052937499
2019-07-13T07:15:00	0.2733	12.625	181.4	0.711331149	0.908686860	0.016745088	0.172755989	0.053245073
2019-07-13T07:20:00	0.2730	12.635	181.4	0.710274520	0.907038708	0.016698160	0.172271839	0.053095854
2019-07-13T07:25:00	0.2735	12.651	181.6	0.712130062	0.909933669	0.016780617	0.173122531	0.053358046
2019-07-13T07:30:00	0.2720	12.660	181.7	0.707188740	0.902231009	0.016561511	0.170862053	0.052661344
2019-07-13T07:35:00	0.2723	12.671	181.8	0.708074454	0.903610118	0.016600672	0.171266076	0.052785868
2019-07-13T07:40:00	0.2712	12.683	182.0	0.704748689	0.898435237	0.016453878	0.169751625	0.052319099
2019-07-13T07:45:00	0.2723	12.695	182.1	0.708226484	0.903846907	0.016607399	0.171335477	0.052807258
2019-07-13T07:50:00	0.2714	12.724	182.2	0.705224957	0.899175719	0.016474857	0.169968066	0.052385809
2019-07-13T07:55:00	0.2716	12.752	182.4	0.705787120	0.900050000	0.016499639	0.170223729	0.052464607
2019-07-13T08:00:00	0.2711	12.754	182.4	0.704404756	0.897900628	0.016438737	0.169595415	0.052270954
2019-07-13T08:05:00	0.2712	12.764	182.4	0.704642920	0.898270819	0.016449221	0.169703578	0.052304291
2019-07-13T08:10:00	0.2696	12.775	182.5	0.699366947	0.890081637	0.016217798	0.167316032	0.051568426
2019-07-13T08:15:00	0.2714	12.783	182.4	0.705119202	0.899011279	0.016470198	0.169919993	0.052370992
2019-07-13T08:20:00	0.2707	12.787	182.4	0.703088095	0.895854959	0.016380840	0.168998108	0.052086858
2019-07-13T08:25:00	0.2705	12.796	182.4	0.702353453	0.894714217	0.016348583	0.168665321	0.051984290
2019-07-13T08:30:00	0.2699	12.801	182.5	0.700320817	0.891560410	0.016259510	0.167746362	0.051701058
2019-07-13T08:35:00	0.2683	12.817	182.5	0.695038630	0.883381419	0.016029237	0.165370688	0.050968852
2019-07-13T08:40:00	0.2696	12.830	182.5	0.699499521	0.890287118	0.016223592	0.167375806	0.051586849
2019-07-13T08:45:00	0.2692	12.836	182.7	0.698114791	0.888141634	0.016163129	0.166752019	0.051394592
2019-07-13T08:50:00	0.2705	12.833	182.7	0.702247616	0.894549913	0.016343939	0.168617407	0.051969522
2019-07-13T08:55:00	0.2704	12.834	182.8	0.702161577	0.894416352	0.016340164	0.168578460	0.051957519
2019-07-13T09:00:00	0.2714	12.839	182.8	0.705317751	0.899320014	0.016478946	0.170010253	0.052398811
2019-07-13T09:05:00	0.2706	12.840	182.9	0.702638181	0.895156283	0.016361081	0.168794260	0.052024030
2019-07-13T09:10:00	0.2709	12.844	183.0	0.703524990	0.896533587	0.016400039	0.169196183	0.052147907
2019-07-13T09:15:00	0.2717	12.845	182.9	0.706356023	0.900935042	0.016524737	0.170482665	0.052544413
2019-07-13T09:20:00	0.2714	12.845	182.8	0.705297967	0.899289249	0.016478075	0.170001258	0.052396039
2019-07-13T09:25:00	0.2723	12.846	182.9	0.708127638	0.903692950	0.016603025	0.171290352	0.052793350
2019-07-13T09:30:00	0.2722	12.847	182.9	0.707717883	0.903054834	0.016584901	0.171103364	0.052735718
2019-07-13T09:35:00	0.2727	12.851	182.9	0.709574711	0.905947666	0.016667118	0.171951582	0.052997148
2019-07-13T09:40:00	0.2729	12.852	182.9	0.710136211	0.906823043	0.016692022	0.172208519	0.053076338
2019-07-13T09:45:00	0.2746	12.855	182.9	0.715548529	0.915274922	0.016933092	0.174695588	0.053842877
2019-07-13T09:50:00	0.2734	12.860	182.9	0.711582497	0.909079063	0.016756262	0.172871263	0.053280602
2019-07-13T09:55:00	0.2738	12.867	182.9	0.713114002	0.911470001	0.016824429	0.173574531	0.053497356
2019-07-13T10:00:00	0.2735	12.874	182.9	0.712057884	0.909821003	0.016777405	0.173089399	0.053347834
2019-07-13T10:05:00	0.2739	12.882	182.8	0.713262932	0.911702614	0.016831066	0.173643000	0.053518459
2019-07-13T10:10:00	0.2734	12.903	183.0	0.711880473	0.909544093	0.016769513	0.173007975	0.053322738
2019-07-13T10:15:00	0.2752	12.928	183.1	0.717610363	0.918501409	0.017025411	0.175648026	0.054136428
2019-07-13T10:20:00	0.2728	12.952	183.2	0.709761435	0.906238738	0.016675398	0.172037002	0.053023475
2019-07-13T10:25:00	0.2742	12.977	183.3	0.714201640	0.913169230	0.016872929	0.174074896	0.053651573
2019-07-13T10:30:00	0.2762	12.990	183.4	0.720896208	0.923650983	0.017173087	0.177171571	0.054605999
2019-07-13T10:35:00	0.2768	12.997	196.0	0.722743544	0.926550274	0.017256410	0.178031198	0.054870944
2019-07-13T10:40:00	0.2762	13.019	183.5	0.720719220	0.923373367	0.017165115	0.177089329	0.054580651
2019-07-13T10:45:00	0.2752	13.041	196.1	0.717401938	0.918175083	0.017016067	0.175551621	0.054106715
2019-07-13T10:50:00	0.2761	13.082	183.8	0.720542224	0.923095766	0.017157145	0.177007103	0.054555308
2019-07-13T10:55:00	0.2768	13.116	183.9	0.722712308	0.926501226	0.017254999	0.178016645	0.054866459
2019-07-13T11:00:00	0.2749	13.134	196.6	0.716490061	0.916747829	0.016975216	0.175130175	0.053976821
2019-07-13T11:05:00	0.2764	13.181	196.7	0.721567565	0.924704294	0.017203343	0.177483720	0.054702206
2019-07-13T11:10:00	0.2764	13.213	196.8	0.721479088	0.924565458	0.017199354	0.177442566	0.054689522
2019-07-13T11:15:00	0.2747	13.238	196.9	0.715901124	0.915826421	0.016948861	0.174858270	0.053893017
2019-07-13T11:20:00	0.2753	13.259	196.9	0.717750953	0.918721548	0.017031716	0.175713070	0.054156475
2019-07-13T11:25:00	0.2753	13.287	197.0	0.717985368	0.919088639	0.017042231	0.175821551	0.054189909
2019-07-13T11:30:00	0.2737	13.319	197.2	0.712725572	0.910863402	0.016807126	0.173396020	0.053442337
2019-07-13T11:35:00	0.2751	13.334	197.2	0.717162217	0.917799806	0.017005322	0.175440777	0.054072551
2019-07-13T11:40:00	0.2730	13.360	197.4	0.710283391	0.907052541	0.016698554	0.172275901	0.053097106
2019-07-13T11:45:00	0.2748	13.385	197.4	0.716338883	0.916511278	0.016968449	0.175060357	0.053955302
2019-07-13T11:50:00	0.2732	13.391	197.5	0.711076741	0.908289940	0.016733783	0.172639353	0.053209125
2019-07-13T11:55:00	0.2739	13.392	197.5	0.713252383	0.911686137	0.016830595	0.173638150	0.053516964
2019-07-13T12:00:00	0.2734	13.403	197.5	0.711869921	0.909527623	0.016769044	0.173003133	0.053321246
2019-07-13T12:05:00	0.2723	13.431	197.6	0.708220872	0.903838166	0.016607151	0.171332915	0.052806468
2019-07-13T12:10:00	0.2719	13.456	185.1	0.706836523	0.901682776	0.016545951	0.170701527	0.052611869
2019-07-13T12:15:00	0.2712	13.471	185.2	0.704479324	0.898016527	0.016442019	0.169629276	0.052281390
2019-07-13T12:20:00	0.2720	13.502	197.9	0.707306725	0.902414680	0.016566725	0.170915843	0.052677923
2019-07-13T12:25:00	0.2710	13.543	198.2	0.703977365	0.897236435	0.016419931	0.169401406	0.052211159
2019-07-13T12:30:00	0.2712	13.577	198.3	0.704536818	0.898105894	0.016444550	0.169655387	0.052289438
2019-07-13T12:35:00	0.2707	13.590	198.3	0.702826799	0.895449169	0.016369363	0.168879704	0.052050365
2019-07-13T12:40:00	0.2709	13.597	198.4	0.703710662	0.896822041	0.016408202	0.169280398	0.052173863
2019-07-13T12:45:00	0.2715	13.611	185.9	0.705566611	0.899707029	0.016489916	0.170123420	0.052433690
2019-07-13T12:50:00	0.2704	13.643	186.0	0.701911312	0.894027892	0.016329186	0.168465202	0.051922611
2019-07-13T12:55:00	0.2692	13.677	186.2	0.698252376	0.888354731	0.016169131	0.166813942	0.051413677
2019-07-13T13:00:00	0.2679	13.714	199.1	0.693939680	0.881682835	0.015981548	0.164878684	0.050817212
2019-07-13T13:05:00	0.2691	13.748	186.6	0.697749566	0.887576036	0.016147201	0.166587699	0.051343947
2019-07-13T13:10:00	0.2684	13.759	199.4	0.695386532	0.883919369	0.016044351	0.165526607	0.051016908
2019-07-13T13:15:00	0.2697	13.779	199.5	0.699844097	0.890821258	0.016238656	0.167531221	0.051634749
2019-07-13T13:20:00	0.2678	13.782	186.9	0.693583098	0.881131911	0.015966090	0.164719207	0.050768059
2019-07-13T13:25:00	0.2667	13.772	186.9	0.689915842	0.875472345	0.015807571	0.163083800	0.050264011
2019-07-13T13:30:00	0.2672	13.769	186.9	0.691453486	0.877843927	0.015873935	0.163768461	0.050475030
2019-07-13T13:35:00	0.2684	13.772	187.0	0.695590907	0.884235438	0.016053232	0.165618238	0.051045149
2019-07-13T13:40:00	0.2672	13.776	187.0	0.691600384	0.878070602	0.015880283	0.163833949	0.050495214
2019-07-13T13:45:00	0.2648	13.774	187.0	0.683695658	0.865899513	0.015540608	0.160329592	0.049415137
2019-07-13T13:50:00	0.2663	13.771	187.0	0.688818599	0.873781264	0.015760305	0.162596160	0.050113716
2019-07-13T13:55:00	0.2649	13.772	187.0	0.684168835	0.866626557	0.015560832	0.160538240	0.049479445
2019-07-13T14:00:00	0.2653	13.775	187.0	0.685383066	0.868493122	0.015612793	0.161074309	0.049644666
2019-07-13T14:05:00	0.2637	13.789	187.2	0.680076345	0.860344785	0.015386374	0.158738384	0.048924712
2019-07-13T14:10:00	0.2627	13.799	200.0	0.677048738	0.855706849	0.015257976	0.157413730	0.048516440
2019-07-13T14:15:00	0.2623	13.808	200.1	0.675652556	0.853570722	0.015198956	0.156804831	0.048328772
2019-07-13T14:20:00	0.2635	13.820	187.4	0.679481538	0.859432987	0.015361104	0.158477680	0.048844360
2019-07-13T14:25:00	0.2630	13.835	187.5	0.677759776	0.856795366	0.015288080	0.157724302	0.048612162
2019-07-13T14:30:00	0.2635	13.840	187.6	0.679628918	0.859658882	0.015367363	0.158542256	0.048864263
2019-07-13T14:35:00	0.2650	13.850	187.7	0.684431648	0.867030456	0.015572071	0.160654189	0.049515181
2019-07-13T14:40:00	0.2672	13.857	187.8	0.691505879	0.877924772	0.015876199	0.163791817	0.050482229
2019-07-13T14:45:00	0.2665	13.858	187.8	0.689464310	0.874776314	0.015788111	0.162883035	0.050202133
2019-07-13T14:50:00	0.2648	13.873	187.9	0.683837551	0.866117514	0.015546672	0.160392145	0.049434417
2019-07-13T14:55:00	0.2636	13.896	188.0	0.679834176	0.859973519	0.015376083	0.158632214	0.048891989
2019-07-13T15:00:00	0.2636	13.917	188.2	0.679744689	0.859836341	0.015372281	0.158592991	0.048879900
2019-07-13T15:05:00	0.2639	13.928	188.2	0.680960393	0.861700531	0.015423972	0.159126279	0.049044265
2019-07-13T15:10:00	0.2681	13.931	188.3	0.694547712	0.882622507	0.016007925	0.165150807	0.050901083
2019-07-13T15:15:00	0.2739	13.921	199.5	0.713262602	0.911702099	0.016831051	0.173642849	0.053518412
2019-07-13T15:20:00	0.2793	13.880	191.6	0.730917739	0.939415103	0.017627681	0.181861535	0.056051491
2019-07-13T15:25:00	0.2814	13.816	170.5	0.737582256	0.949947354	0.017933504	0.185016654	0.057023930
2019-07-13T15:30:00	0.2760	13.805	169.5	0.720104633	0.922409564	0.017137449	0.176803902	0.054492680
2019-07-13T15:35:00	0.2778	13.801	170.0	0.725821818	0.931388091	0.017395730	0.179468544	0.055313948
2019-07-13T15:40:00	0.2789	13.791	170.6	0.729598959	0.937335597	0.017567497	0.181240628	0.055860122
2019-07-13T15:45:00	0.2829	13.771	183.7	0.742367114	0.957533194	0.018154807	0.187299794	0.057727616
2019-07-13T15:50:00	0.2840	13.750	185.6	0.745806984	0.962999179	0.018314800	0.188950419	0.058236354
2019-07-13T15:55:00	0.2867	13.728	186.2	0.754364494	0.976642476	0.018716088	0.193090429	0.059512345
2019-07-13T16:00:00	0.2881	13.703	185.5	0.759071317	0.984174221	0.018938795	0.195388059	0.060220497
2019-07-13T16:05:00	0.2900	13.676	185.5	0.765051027	0.993771145	0.019223773	0.198328120	0.061126653
2019-07-13T16:10:00	0.2902	13.649	185.7	0.765604236	0.994660604	0.019250253	0.198601313	0.061210853
2019-07-13T16:15:00	0.2915	13.620	185.6	0.769662877	1.001194470	0.019445127	0.200611787	0.061830501
2019-07-13T16:20:00	0.2884	13.592	185.3	0.760009993	0.985678616	0.018983379	0.195848019	0.060362261
2019-07-13T16:25:00	0.2908	13.566	184.9	0.767582103	0.997842874	0.019345087	0.199579700	0.061512402
2019-07-13T16:30:00	0.2900	13.542	184.5	0.764946957	0.993603850	0.019218794	0.198276750	0.061110820
2019-07-13T16:35:00	0.2909	13.519	172.4	0.768050411	0.998596864	0.019367578	0.199811736	0.061583918
2019-07-13T16:40:00	0.2925	13.498	171.6	0.773061292	1.006676739	0.019609114	0.202303609	0.062351937
2019-07-13T16:45:00	0.2950	13.477	182.1	0.780924920	1.019401698	0.019991414	0.206247734	0.063567555
2019-07-13T16:50:00	0.2924	13.456	169.6	0.772574173	1.005890296	0.019585563	0.202060638	0.062277051
2019-07-13T16:55:00	0.2929	13.436	168.8	0.774399041	1.008837597	0.019673869	0.202971678	0.062557842
2019-07-13T17:00:00	0.2966	13.415	168.3	0.786067713	1.027753664	0.020243595	0.208849442	0.064369426
2019-07-13T17:05:00	0.2966	13.397	168.2	0.785983582	1.027616843	0.020239456	0.208806738	0.064356265
2019-07-13T17:10:00	0.2992	13.379	168.4	0.794137033	1.040906078	0.020642731	0.212967250	0.065638575
2019-07-13T17:15:00	0.3016	13.363	168.8	0.801957267	1.053708268	0.021033579	0.216999559	0.066881372
2019-07-13T17:20:00	0.3008	13.347	169.0	0.799345868	1.049427139	0.020902621	0.215648492	0.066464960
2019-07-13T17:25:00	0.3005	13.332	169.0	0.798313721	1.047736727	0.020850983	0.215115750	0.066300763
2019-07-13T17:30:00	0.2997	13.319	168.9	0.795699831	1.043460079	0.020720520	0.213769789	0.065885925
2019-07-13T17:35:00	0.2985	13.306	168.8	0.792134306	1.037636330	0.020543276	0.211941187	0.065322332
2019-07-13T17:40:00	0.2992	13.294	168.7	0.794266293	1.041117238	0.020649159	0.213033566	0.065659014
2019-07-13T17:45:00	0.2987	13.281	180.4	0.792599593	1.038395659	0.020566359	0.212179330	0.065395730
2019-07-13T17:50:00	0.2973	13.268	169.3	0.788397288	1.031544713	0.020358391	0.210033765	0.064734446
2019-07-13T17:55:00	0.2981	13.254	169.8	0.790848140	1.035538372	0.020479542	0.211283658	0.065119675
2019-07-13T18:00:00	0.2979	13.243	170.1	0.790130526	1.034368463	0.020444028	0.210917271	0.065006751
2019-07-13T18:05:00	0.2971	13.230	170.1	0.787511018	1.030101864	0.020314676	0.209582771	0.064595445
2019-07-13T18:10:00	0.2966	13.217	169.8	0.786158524	1.027901355	0.020248064	0.208895541	0.064383634
2019-07-13T18:15:00	0.2983	13.206	169.4	0.791462275	1.036539947	0.020509961	0.211597485	0.065216400
2019-07-13T18:20:00	0.2971	13.195	169.3	0.787575761	1.030207242	0.020317868	0.209615699	0.064605594
2019-07-13T18:25:00	0.2985	13.184	169.4	0.791927645	1.037299130	0.020533028	0.211835461	0.065289746
2019-07-13T18:30:00	0.2981	13.174	169.6	0.790893489	1.035612319	0.020481787	0.211306823	0.065126815
2019-07-13T18:35:00	0.2981	13.164	169.9	0.790809465	1.035475308	0.020477627	0.211263903	0.065113587
2019-07-13T18:40:00	0.2969	13.154	170.3	0.786922284	1.029143791	0.020285666	0.209283473	0.064503199
2019-07-13T18:45:00	0.2989	13.144	182.4	0.793174794	1.039334632	0.020594914	0.212473928	0.065486528
2019-07-13T18:50:00	0.2992	13.134	171.4	0.794356908	1.041265277	0.020653666	0.213080063	0.065673345
2019-07-13T18:55:00	0.2989	13.124	171.6	0.793323412	1.039577288	0.020602295	0.212550081	0.065509999
2019-07-13T19:00:00	0.2996	13.114	171.8	0.795454734	1.043059385	0.020708310	0.213643817	0.065847099
2019-07-13T19:05:00	0.2998	13.103	171.8	0.796319849	1.044473950	0.020751426	0.214088638	0.065984197
2019-07-13T19:10:00	0.3018	13.091	171.4	0.802556992	1.054692324	0.021063717	0.217310487	0.066977203
2019-07-13T19:15:00	0.3038	13.081	171.1	0.808783989	1.064929010	0.021378029	0.220553185	0.067976634
2019-07-13T19:20:00	0.3059	13.068	182.2	0.815315656	1.075704136	0.021710442	0.223982629	0.069033622
2019-07-13T19:25:00	0.3058	13.056	181.8	0.815232165	1.075566161	0.021706175	0.223938611	0.069020055
2019-07-13T19:30:00	0.3089	13.044	181.6	0.824893806	1.091574747	0.022202957	0.229063814	0.070599692
2019-07-13T19:35:00	0.3076	13.032	169.9	0.820726764	1.084659916	0.021987944	0.226845569	0.069916007
2019-07-13T19:40:00	0.3093	13.022	181.3	0.825982938	1.093384658	0.022259343	0.229645535	0.070778984
2019-07-13T19:45:00	0.3105	13.011	169.8	0.829977976	1.100032802	0.022466840	0.231786245	0.071438772
2019-07-13T19:50:00	0.3093	13.000	169.6	0.826130291	1.093629611	0.022266977	0.229724300	0.070803260
2019-07-13T19:55:00	0.3107	12.989	169.7	0.830438703	1.100800430	0.022490837	0.232033820	0.071515077
2019-07-13T20:00:00	0.3111	12.978	169.6	0.831609414	1.102751846	0.022551877	0.232663561	0.071709169
2019-07-13T20:05:00	0.3111	12.967	169.5	0.831839687	1.103135827	0.022563894	0.232787537	0.071747380
2019-07-13T20:10:00	0.3120	12.955	169.4	0.834576181	1.107702627	0.022706968	0.234263605	0.072202318
2019-07-13T20:15:00	0.3095	12.944	181.2	0.826655563	1.094502959	0.022294204	0.230005196	0.070889835
2019-07-13T20:20:00	0.3093	12.932	169.6	0.825944614	1.093320954	0.022257357	0.229625052	0.070772671
2019-07-13T20:25:00	0.3097	12.921	169.7	0.827430455	1.095791797	0.022334403	0.230419922	0.071017658
2019-07-13T20:30:00	0.3091	12.911	169.9	0.825464188	1.092522469	0.022232477	0.229368362	0.070693557
2019-07-13T20:35:00	0.3108	12.902	170.0	0.830713927	1.101259078	0.022505179	0.232181783	0.071560680
2019-07-13T20:40:00	0.3090	12.893	170.2	0.825297644	1.092245716	0.022223855	0.229279415	0.070666143
2019-07-13T20:45:00	0.3074	12.884	170.4	0.820188117	1.083767228	0.021960234	0.226559690	0.069827897
2019-07-13T20:50:00	0.3069	12.875	182.2	0.818532650	1.081025303	0.021875190	0.225682306	0.069557478
2019-07-13T20:55:00	0.3055	12.866	182.4	0.814043888	1.073603112	0.021645500	0.223312630	0.068827121
2019-07-13T21:00:00	0.3056	12.857	182.5	0.814590027	1.074505182	0.021673375	0.223600216	0.068915758
2019-07-13T21:05:00	0.3067	12.848	171.1	0.817967869	1.080090432	0.021846218	0.225383401	0.069465353
2019-07-13T21:10:00	0.3064	12.841	182.9	0.816940720	1.078390953	0.021793580	0.224840345	0.069297978
2019-07-13T21:15:00	0.3040	12.832	171.1	0.809299028	1.065777257	0.021404139	0.220822560	0.068059657
2019-07-13T21:20:00	0.3052	12.823	182.9	0.813311385	1.072393643	0.021608143	0.222927226	0.068708336
2019-07-13T21:25:00	0.3068	12.815	182.9	0.818263183	1.080579223	0.021861364	0.225539666	0.069513515
2019-07-13T21:30:00	0.3077	12.806	182.9	0.821009301	1.085128263	0.022002487	0.226995600	0.069962248
2019-07-13T21:35:00	0.3075	12.799	182.9	0.820297312	1.083948173	0.021965850	0.226617628	0.069845754
2019-07-13T21:40:00	0.3066	12.791	182.8	0.817698362	1.079644424	0.021832400	0.225240843	0.069421415
2019-07-13T21:45:00	0.3048	12.784	182.8	0.811948756	1.070145035	0.021538743	0.222211246	0.068487664
2019-07-13T21:50:00	0.3042	12.777	182.8	0.809974572	1.066890214	0.021438413	0.221176153	0.068168638
2019-07-13T21:55:00	0.3059	12.771	183.0	0.815560163	1.076108242	0.021722940	0.224111567	0.069073362
2019-07-13T22:00:00	0.3059	12.764	183.1	0.815476678	1.075970257	0.021718672	0.224067538	0.069059791
2019-07-13T22:05:00	0.3058	12.758	183.2	0.814983680	1.075155554	0.021693480	0.223807631	0.068979685
2019-07-13T22:10:00	0.3065	12.751	183.6	0.817322873	1.079023137	0.021813156	0.225042307	0.069360225
2019-07-13T22:15:00	0.3083	12.746	183.8	0.822803251	1.088103692	0.022094945	0.227949474	0.070256242
2019-07-13T22:20:00	0.3067	12.739	183.9	0.817910264	1.079995096	0.021843264	0.225352926	0.069455960
2019-07-13T22:25:00	0.3072	12.732	184.1	0.819618949	1.082824244	0.021930975	0.226257826	0.069734859
2019-07-13T22:30:00	0.3075	12.726	184.2	0.820384004	1.084091836	0.021970309	0.226663631	0.069859932
2019-07-13T22:35:00	0.3080	12.720	184.3	0.822091593	1.086922994	0.022058242	0.227570812	0.070139535
2019-07-13T22:40:00	0.3080	12.714	184.4	0.821913658	1.086627857	0.022049070	0.227476190	0.070110371
2019-07-13T22:45:00	0.3050	12.707	184.3	0.812612562	1.071240237	0.021572536	0.222559879	0.068595116
2019-07-13T22:50:00	0.3052	12.701	184.4	0.813064095	1.071985441	0.021595539	0.222797196	0.068668260
2019-07-13T22:55:00	0.3051	12.694	184.4	0.812885743	1.071691069	0.021586452	0.222703441	0.068639363
2019-07-13T23:00:00	0.3061	12.689	184.4	0.816170348	1.077116953	0.021754146	0.224433517	0.069172590
2019-07-13T23:05:00	0.3052	12.683	184.4	0.813158904	1.072141936	0.021600371	0.222847044	0.068683623
2019-07-13T23:10:00	0.3052	12.680	184.4	0.813295477	1.072367383	0.021607332	0.222918860	0.068705758
2019-07-13T23:15:00	0.3055	12.674	184.3	0.814061790	1.073632676	0.021646413	0.223322054	0.068830026
2019-07-13T23:20:00	0.3040	12.671	184.3	0.809472906	1.066063681	0.021412958	0.220913541	0.068087699
2019-07-13T23:25:00	0.3054	12.666	184.4	0.813705169	1.073043777	0.021628221	0.223134369	0.068772180
2019-07-13T23:30:00	0.3042	12.662	172.6	0.810061497	1.067033451	0.021442825	0.221221674	0.068182668
2019-07-13T23:35:00	0.3056	12.658	184.3	0.814607926	1.074534751	0.021674289	0.223609645	0.068918664
2019-07-13T23:40:00	0.3058	12.653	184.4	0.815059225	1.075280382	0.021697339	0.223847447	0.068991957
2019-07-13T23:45:00	0.3067	12.646	184.5	0.818027468	1.080189071	0.021849274	0.225414933	0.069475071
2019-07-13T23:50:00	0.3080	12.640	184.4	0.821936150	1.086665161	0.022050229	0.227488149	0.070114057
2019-07-13T23:55:00	0.3072	12.634	184.5	0.819558057	1.082723377	0.021927846	0.226225544	0.069724910
2019-07-14T00:00:00	0.3089	12.628	184.5	0.824721299	1.091288174	0.022194033	0.228971749	0.070571317
2019-07-14T00:05:00	0.3070	12.622	184.7	0.818887506	1.081612837	0.021893405	0.225870220	0.069615396
2019-07-14T00:10:00	0.3082	12.615	184.7	0.822795317	1.088090526	0.022094536	0.227945251	0.070254940
2019-07-14T00:15:00	0.3077	12.609	184.7	0.821046357	1.085189694	0.022004394	0.227015281	0.069968314
2019-07-14T00:20:00	0.3054	12.604	184.7	0.813947781	1.073444398	0.021640596	0.223262043	0.068811530
2019-07-14T00:25:00	0.3078	12.598	184.7	0.821318940	1.085641619	0.022018430	0.227160084	0.070012944
2019-07-14T00:30:00	0.3077	12.592	184.8	0.821140969	1.085346547	0.022009266	0.227065536	0.069983803
2019-07-14T00:35:00	0.3082	12.588	184.8	0.822534082	1.087657064	0.022081059	0.227806213	0.070212087
2019-07-14T00:40:00	0.3071	12.584	184.9	0.819213199	1.082152185	0.021910129	0.226042766	0.069668576
2019-07-14T00:45:00	0.3068	12.581	184.8	0.818091697	1.080295377	0.021852568	0.225448917	0.069485546
2019-07-14T00:50:00	0.3070	12.577	173.2	0.818857055	1.081562414	0.021891841	0.225854091	0.069610424
2019-07-14T00:55:00	0.3053	12.576	185.0	0.813644183	1.072943081	0.021625111	0.223102282	0.068762290
2019-07-14T01:00:00	0.3046	12.573	173.5	0.811260962	1.069010675	0.021503760	0.221850327	0.068376425
2019-07-14T01:05:00	0.3044	12.570	185.2	0.810767423	1.068196957	0.021478676	0.221591540	0.068296665
2019-07-14T01:10:00	0.3067	12.568	173.7	0.817830143	1.079862501	0.021839156	0.225310543	0.069442898
2019-07-14T01:15:00	0.3048	12.565	173.9	0.811985899	1.070206306	0.021540634	0.222230745	0.068493674
2019-07-14T01:20:00	0.3053	12.563	173.8	0.813382327	1.072510757	0.021611759	0.222964536	0.068719835
2019-07-14T01:25:00	0.3031	12.561	173.9	0.806585049	1.061310137	0.021266747	0.219405109	0.067622785
2019-07-14T01:30:00	0.3041	12.559	185.4	0.809875044	1.066726215	0.021433361	0.221124039	0.068152576
2019-07-14T01:35:00	0.3041	12.558	174.0	0.809696543	1.066432112	0.021424304	0.221030590	0.068123774
2019-07-14T01:40:00	0.3026	12.556	174.1	0.805102435	1.058872607	0.021191894	0.218632868	0.067384773
2019-07-14T01:45:00	0.3040	12.555	185.9	0.809339517	1.065843951	0.021406193	0.220843744	0.068066187
2019-07-14T01:50:00	0.3061	12.555	174.2	0.816090191	1.076984424	0.021750045	0.224391209	0.069159550
2019-07-14T01:55:00	0.3039	12.554	186.3	0.808982457	1.065255850	0.021388088	0.220656966	0.068008620
2019-07-14T02:00:00	0.3066	12.553	174.4	0.817621550	1.079517320	0.021828462	0.225200221	0.069408895
2019-07-14T02:05:00	0.3079	12.553	186.2	0.821844866	1.086513761	0.022045525	0.227439613	0.070099098
2019-07-14T02:10:00	0.3067	12.552	174.6	0.817894375	1.079968801	0.021842449	0.225344521	0.069453370
2019-07-14T02:15:00	0.3076	12.553	174.7	0.820860435	1.084881486	0.021994824	0.226916543	0.069937882
2019-07-14T02:20:00	0.3068	12.552	174.8	0.818167182	1.080420317	0.021856440	0.225488860	0.069497857
2019-07-14T02:25:00	0.3062	12.552	174.9	0.816416120	1.077523339	0.021766723	0.224563264	0.069212579
2019-07-14T02:30:00	0.3074	12.552	175.1	0.820012088	1.083475556	0.021951183	0.226466308	0.069799115
2019-07-14T02:35:00	0.3053	12.552	175.2	0.813541433	1.072773433	0.021619871	0.223048226	0.068745629
2019-07-14T02:40:00	0.3058	12.552	175.3	0.815252058	1.075599034	0.021707192	0.223949098	0.069023287
2019-07-14T02:45:00	0.3063	12.552	175.4	0.816647300	1.077905648	0.021778556	0.224685345	0.069250205
2019-07-14T02:50:00	0.3066	12.552	175.6	0.817727505	1.079692649	0.021833894	0.225256256	0.069426166
2019-07-14T02:55:00	0.3059	12.551	175.7	0.815346813	1.075755627	0.021712034	0.223999057	0.069038685
2019-07-14T03:00:00	0.3064	12.551	175.8	0.817056635	1.078582693	0.021799517	0.224901594	0.069316855
2019-07-14T03:05:00	0.3072	12.551	175.9	0.819394570	1.082452579	0.021919446	0.226138885	0.069698201
2019-07-14T03:10:00	0.3062	12.551	176.0	0.816385649	1.077472951	0.021765163	0.224547175	0.069207620
2019-07-14T03:15:00	0.3066	12.551	176.2	0.817465926	1.079259818	0.021820486	0.225117933	0.069383533
2019-07-14T03:20:00	0.3044	12.551	176.3	0.810675874	1.068046042	0.021474025	0.221543554	0.068281875
2019-07-14T03:25:00	0.3048	12.551	176.4	0.812072778	1.070349626	0.021545055	0.222276360	0.068507733
2019-07-14T03:30:00	0.3053	12.551	176.6	0.813469174	1.072654135	0.021616187	0.223010215	0.068733914
2019-07-14T03:35:00	0.3049	12.551	188.9	0.812345997	1.070800389	0.021558963	0.222419842	0.068551956
2019-07-14T03:40:00	0.3038	12.552	176.8	0.808701035	1.064792410	0.021373825	0.220509815	0.067963267
2019-07-14T03:45:00	0.3042	12.553	177.0	0.810098658	1.067094689	0.021444712	0.221241136	0.068188667
2019-07-14T03:50:00	0.3063	12.553	177.1	0.816533369	1.077717231	0.021772724	0.224625176	0.069231661
2019-07-14T03:55:00	0.3057	12.553	189.5	0.814781564	1.074821611	0.021683156	0.223701123	0.068946859
2019-07-14T04:00:00	0.3048	12.555	177.4	0.812084053	1.070368226	0.021545629	0.222282280	0.068509557
2019-07-14T04:05:00	0.3058	12.556	177.6	0.815191097	1.075498294	0.021704077	0.223916960	0.069013382
2019-07-14T04:10:00	0.3062	12.557	177.8	0.816408172	1.077510197	0.021766316	0.224559068	0.069211286
2019-07-14T04:15:00	0.3047	12.558	190.0	0.811643680	1.069641828	0.021523222	0.222051118	0.068438311
2019-07-14T04:20:00	0.3044	12.559	190.1	0.810656636	1.068014329	0.021473047	0.221533472	0.068278767
2019-07-14T04:25:00	0.3056	12.559	190.4	0.814394523	1.074182232	0.021663394	0.223497244	0.068884021
2019-07-14T04:30:00	0.3081	12.560	190.5	0.822215289	1.087128182	0.022064619	0.227636604	0.070159812
2019-07-14T04:35:00	0.3061	12.560	190.8	0.816199502	1.077165156	0.021755638	0.224448906	0.069177333
2019-07-14T04:40:00	0.3053	12.561	190.9	0.813639547	1.072935426	0.021624874	0.223099842	0.068761538
2019-07-14T04:45:00	0.3046	12.562	191.1	0.811392964	1.069228349	0.021510472	0.221919570	0.068397767
2019-07-14T04:50:00	0.3034	12.564	191.3	0.807568497	1.062928092	0.021316477	0.219918168	0.067780915
2019-07-14T04:55:00	0.3045	12.566	191.5	0.810994304	1.068570998	0.021490205	0.221710484	0.068333324
2019-07-14T05:00:00	0.3035	12.567	191.6	0.807800210	1.063309431	0.021328204	0.220039147	0.067818202
2019-07-14T05:05:00	0.3047	12.569	191.8	0.811540876	1.069472278	0.021517994	0.221997173	0.068421685
2019-07-14T05:10:00	0.3041	12.571	192.1	0.809608289	1.066286713	0.021419826	0.220984395	0.068109537
2019-07-14T05:15:00	0.3042	12.572	192.2	0.810196859	1.067256521	0.021449697	0.221292570	0.068204519
2019-07-14T05:20:00	0.3040	12.575	192.4	0.809524675	1.066148964	0.021415584	0.220940634	0.068096049
2019-07-14T05:25:00	0.3056	12.577	192.6	0.814523101	1.074394624	0.021669958	0.223564963	0.068904893
2019-07-14T05:30:00	0.3048	12.580	192.8	0.811962029	1.070166930	0.021539419	0.222218214	0.068489812
2019-07-14T05:35:00	0.3051	12.582	180.6	0.812865196	1.071657158	0.021585405	0.222692642	0.068636035
2019-07-14T05:40:00	0.3050	12.585	193.1	0.812508464	1.071068461	0.021567235	0.222505187	0.068578259
2019-07-14T05:45:00	0.3033	12.589	192.9	0.807108350	1.062170956	0.021293201	0.219678031	0.067706903
2019-07-14T05:50:00	0.3040	12.590	180.9	0.809273820	1.065735736	0.021402861	0.220809371	0.068055593
2019-07-14T05:55:00	0.3042	12.594	181.0	0.810177619	1.067224813	0.021448720	0.221282492	0.068201413
2019-07-14T06:00:00	0.3038	12.596	193.5	0.808874940	1.065078785	0.021382639	0.220600741	0.067991291
2019-07-14T06:05:00	0.3030	12.597	181.3	0.806310098	1.060857946	0.021252855	0.219261785	0.067578612
2019-07-14T06:10:00	0.3033	12.599	181.4	0.807214595	1.062345757	0.021298574	0.219733465	0.067723988
2019-07-14T06:15:00	0.3033	12.600	193.9	0.807172762	1.062276929	0.021296459	0.219711637	0.067717260
2019-07-14T06:20:00	0.3040	12.601	194.0	0.809338196	1.065841775	0.021406126	0.220843053	0.068065974
2019-07-14T06:25:00	0.3032	12.603	194.2	0.806773663	1.061620374	0.021276280	0.219503457	0.067653097
2019-07-14T06:30:00	0.3038	12.604	194.3	0.808939322	1.065184812	0.021385902	0.220634408	0.068001667
2019-07-14T06:35:00	0.3043	12.605	181.9	0.810473532	1.067712512	0.021463747	0.221437516	0.068249193
2019-07-14T06:40:00	0.3045	12.607	194.4	0.811061969	1.068682561	0.021493644	0.221745965	0.068344260
2019-07-14T06:45:00	0.3050	12.608	182.1	0.812595331	1.071211803	0.021571659	0.222550826	0.068592326
2019-07-14T06:50:00	0.3034	12.609	182.2	0.807510736	1.062833041	0.021313555	0.219888017	0.067771622
2019-07-14T06:55:00	0.3039	12.612	182.4	0.809045516	1.065359704	0.021391285	0.220689946	0.068018785
2019-07-14T07:00:00	0.3060	12.614	194.7	0.815618480	1.076204633	0.021725921	0.224142326	0.069082842
2019-07-14T07:05:00	0.3062	12.616	182.4	0.816206131	1.077176117	0.021755977	0.224452405	0.069178411
2019-07-14T07:10:00	0.3058	12.618	194.9	0.815220258	1.075546484	0.021705567	0.223932334	0.069018120
2019-07-14T07:15:00	0.3054	12.622	182.5	0.813919288	1.073397345	0.021639143	0.223247047	0.068806908
2019-07-14T07:20:00	0.3040	12.627	195.0	0.809466943	1.066053859	0.021412656	0.220910421	0.068086737
2019-07-14T07:25:00	0.3042	12.630	182.6	0.810055535	1.067023628	0.021442522	0.221218552	0.068181706
2019-07-14T07:30:00	0.3046	12.632	182.6	0.811274237	1.069032566	0.021504435	0.221857290	0.068378571
2019-07-14T07:35:00	0.3055	12.635	182.7	0.814067103	1.073641451	0.021646684	0.223324851	0.068830888
2019-07-14T07:40:00	0.3030	12.638	182.7	0.806146046	1.060588177	0.021244568	0.219176294	0.067552262
2019-07-14T07:45:00	0.3039	12.651	195.1	0.809257896	1.065709506	0.021402053	0.220801040	0.068053025
2019-07-14T07:50:00	0.3052	12.659	182.8	0.813312063	1.072394762	0.021608177	0.222927582	0.068708446
2019-07-14T07:55:00	0.3034	12.665	195.2	0.807597716	1.062976177	0.021317956	0.219933422	0.067785617
2019-07-14T08:00:00	0.3027	12.678	195.3	0.805347594	1.059275530	0.021204262	0.218760460	0.067424098
2019-07-14T08:05:00	0.3033	12.686	195.1	0.807198662	1.062319542	0.021297768	0.219725151	0.067721425
2019-07-14T08:10:00	0.3048	12.695	183.1	0.811885103	1.070040035	0.021535504	0.222177830	0.068477365
2019-07-14T08:15:00	0.3041	12.712	195.5	0.809637493	1.066334826	0.021421308	0.220999681	0.068114248
2019-07-14T08:20:00	0.3021	12.720	195.4	0.803286258	1.055889373	0.021100397	0.217688902	0.067093834
2019-07-14T08:25:00	0.3029	12.731	182.9	0.806084941	1.060487699	0.021241482	0.219144455	0.067542449
2019-07-14T08:30:00	0.3038	12.740	183.0	0.808881582	1.065089722	0.021382975	0.220604214	0.067992361
2019-07-14T08:35:00	0.3014	12.760	195.6	0.801265710	1.052573932	0.020998855	0.216641320	0.066770959
2019-07-14T08:40:00	0.3010	12.779	183.2	0.799959997	1.050433391	0.020933379	0.215965814	0.066562761
2019-07-14T08:45:00	0.3033	12.808	195.9	0.807179406	1.062287862	0.021296795	0.219715104	0.067718329
2019-07-14T08:50:00	0.3023	12.814	196.0	0.803982134	1.057032060	0.021135429	0.218050324	0.067205228
2019-07-14T08:55:00	0.3027	12.824	183.4	0.805202767	1.059037497	0.021196955	0.218685081	0.067400866
2019-07-14T09:00:00	0.3016	12.842	196.1	0.802003843	1.053784681	0.021035919	0.217023698	0.066888811
2019-07-14T09:05:00	0.3007	12.854	183.7	0.799118332	1.049054406	0.020891232	0.215530988	0.066428744
2019-07-14T09:10:00	0.3010	12.855	196.3	0.800024529	1.050539147	0.020936613	0.215999173	0.066573043
2019-07-14T09:15:00	0.3018	12.853	196.4	0.802509814	1.054614901	0.021061346	0.217286019	0.066969661
2019-07-14T09:20:00	0.3028	12.855	196.5	0.805624616	1.059730886	0.021218241	0.218904685	0.067468550
2019-07-14T09:25:00	0.3041	12.861	196.4	0.809682620	1.066409173	0.021423597	0.221023302	0.068121528
2019-07-14T09:30:00	0.3010	12.866	196.5	0.799856880	1.050264409	0.020928213	0.215912515	0.066546334
2019-07-14T09:35:00	0.2999	12.882	196.6	0.796337189	1.044502309	0.020752291	0.214097559	0.065986947
2019-07-14T09:40:00	0.3007	12.920	184.4	0.799140957	1.049091467	0.020892364	0.215542671	0.066432344
2019-07-14T09:45:00	0.3007	12.913	184.3	0.799099036	1.049022799	0.020890266	0.215521025	0.066425673
2019-07-14T09:50:00	0.3018	12.929	184.3	0.802532420	1.054651998	0.021062482	0.217297743	0.066973275
2019-07-14T09:55:00	0.3013	12.950	184.4	0.800911225	1.051992650	0.020981068	0.216457815	0.066714401
2019-07-14T10:00:00	0.3019	12.961	184.7	0.802764438	1.055032786	0.021074147	0.217418094	0.067010368
2019-07-14T10:05:00	0.3015	12.970	184.6	0.801408861	1.052808702	0.021006041	0.216715449	0.066793806
2019-07-14T10:10:00	0.3023	12.987	184.7	0.804158577	1.057321864	0.021144317	0.218142017	0.067233488
2019-07-14T10:15:00	0.3014	12.998	184.7	0.801224313	1.052506043	0.020996778	0.216619886	0.066764353
2019-07-14T10:20:00	0.3006	13.000	197.5	0.798603928	1.048211920	0.020865495	0.215265468	0.066346908
2019-07-14T10:25:00	0.3003	13.016	184.8	0.797879283	1.047025508	0.020829269	0.214891729	0.066231718
2019-07-14T10:30:00	0.3011	13.055	185.0	0.800315572	1.051016157	0.020951199	0.216149656	0.066619423
2019-07-14T10:35:00	0.3005	13.079	185.1	0.798326898	1.047758302	0.020851642	0.215122547	0.066302858
2019-07-14T10:40:00	0.3018	13.098	185.3	0.802342273	1.054339967	0.021052924	0.217199138	0.066942884
2019-07-14T10:45:00	0.3022	13.106	185.7	0.803828781	1.056780204	0.021127706	0.217970648	0.067180671
2019-07-14T10:50:00	0.3012	13.131	198.3	0.800578322	1.051446861	0.020964372	0.216285560	0.066661310
2019-07-14T10:55:00	0.2988	13.170	197.9	0.792895398	1.038878502	0.020581041	0.212330803	0.065442416
2019-07-14T11:00:00	0.2975	13.208	198.5	0.789001839	1.032529328	0.020388239	0.210341703	0.064829356
2019-07-14T11:05:00	0.2992	13.217	185.9	0.794293140	1.041161099	0.020650494	0.213047342	0.065663260
2019-07-14T11:10:00	0.2973	13.238	186.0	0.788182777	1.031195424	0.020347806	0.209924559	0.064700788
2019-07-14T11:15:00	0.2964	13.273	186.2	0.785553413	1.026917369	0.020218299	0.208588467	0.064288991
2019-07-14T11:20:00	0.2967	13.322	186.3	0.786412266	1.028314068	0.020260552	0.209024379	0.064423344
2019-07-14T11:25:00	0.2947	13.355	186.6	0.779971566	1.017856036	0.019944853	0.205767374	0.063419503
2019-07-14T11:30:00	0.2945	13.382	199.5	0.779243366	1.016675961	0.019909328	0.205400869	0.063306543
2019-07-14T11:35:00	0.2940	13.435	199.7	0.777879391	1.014466862	0.019842879	0.204715325	0.063095251
2019-07-14T11:40:00	0.2952	13.458	199.8	0.781598850	1.020494824	0.020024364	0.206587668	0.063672326
2019-07-14T11:45:00	0.2949	13.495	187.2	0.780553356	1.018799189	0.019973260	0.206060445	0.063509830
2019-07-14T11:50:00	0.2948	13.490	200.1	0.780460576	1.018648762	0.019968729	0.206013693	0.063495421
2019-07-14T11:55:00	0.2966	13.504	200.2	0.786080933	1.027775163	0.020244246	0.208856152	0.064371494
2019-07-14T12:00:00	0.2969	13.552	187.8	0.786939666	1.029172074	0.020286522	0.209292306	0.064505921
2019-07-14T12:05:00	0.2955	13.573	200.5	0.782405130	1.021803155	0.020063822	0.206994756	0.063797794
2019-07-14T12:10:00	0.2955	13.587	200.6	0.782629855	1.022167915	0.020074828	0.207108297	0.063832788
2019-07-14T12:15:00	0.2966	13.605	200.7	0.786027516	1.027688291	0.020241618	0.208829037	0.064363137
2019-07-14T12:20:00	0.2965	13.627	200.8	0.785617686	1.027021870	0.020221460	0.208621072	0.064299040
2019-07-14T12:25:00	0.2951	13.673	201.1	0.781399133	1.020170837	0.020014596	0.206486898	0.063641267
2019-07-14T12:30:00	0.2946	13.712	188.4	0.779718257	1.017445486	0.019932492	0.205639843	0.063380197
2019-07-14T12:35:00	0.2960	13.742	188.6	0.784070620	1.024507548	0.020145463	0.207837030	0.064057391
2019-07-14T12:40:00	0.2937	13.759	188.7	0.776672227	1.012513120	0.019784169	0.204109627	0.062908569
2019-07-14T12:45:00	0.2924	13.798	201.6	0.772761991	1.006193500	0.019594641	0.202154302	0.062305919
2019-07-14T12:50:00	0.2934	13.835	201.8	0.775850500	1.011183935	0.019744259	0.203697877	0.062781664
2019-07-14T12:55:00	0.2944	13.865	189.1	0.778936492	1.016178801	0.019894368	0.205246524	0.063258972
2019-07-14T13:00:00	0.2942	13.881	202.1	0.778525896	1.015513737	0.019874360	0.205040109	0.063195353
2019-07-14T13:05:00	0.2915	13.901	202.2	0.769842795	1.001484454	0.019453790	0.200701164	0.061858048
2019-07-14T13:10:00	0.2937	13.900	202.2	0.776750875	1.012640369	0.019787991	0.204149059	0.062920723
2019-07-14T13:15:00	0.2940	13.897	189.3	0.777929575	1.014548111	0.019845322	0.204740525	0.063103018
2019-07-14T13:20:00	0.2941	13.914	202.4	0.778154565	1.014912401	0.019856275	0.204853530	0.063137847
2019-07-14T13:25:00	0.2947	13.944	189.6	0.779968220	1.017850612	0.019944690	0.205765689	0.063418984
2019-07-14T13:30:00	0.2939	13.965	202.7	0.777333160	1.013582650	0.019816302	0.204441132	0.063010742
2019-07-14T13:35:00	0.2924	13.984	202.7	0.772787117	1.006234064	0.019595856	0.202166834	0.062309782
2019-07-14T13:40:00	0.2935	13.991	203.1	0.776193604	1.011738850	0.019760918	0.203869745	0.062834635
2019-07-14T13:45:00	0.2928	14.002	202.8	0.773874110	1.007989490	0.019648445	0.202709387	0.062477002
2019-07-14T13:50:00	0.2929	14.012	203.0	0.774417489	1.008867409	0.019674763	0.202980900	0.062560685
2019-07-14T13:55:00	0.2932	14.010	203.0	0.775278867	1.010259644	0.019716521	0.203411709	0.062693464
2019-07-14T14:00:00	0.2927	14.011	203.0	0.773595273	1.007539085	0.019634948	0.202570136	0.062434083
2019-07-14T14:05:00	0.2930	14.008	189.9	0.774456837	1.008930992	0.019676669	0.203000568	0.062566747
2019-07-14T14:10:00	0.2928	14.001	189.8	0.774045756	1.008266783	0.019656756	0.202795133	0.062503429
2019-07-14T14:15:00	0.2939	13.996	202.6	0.777451111	1.013773561	0.019822039	0.204500323	0.063028986
2019-07-14T14:20:00	0.2940	13.986	189.7	0.777676130	1.014137802	0.019832987	0.204613270	0.063063797
2019-07-14T14:25:00	0.2927	13.990	202.7	0.773766931	1.007816356	0.019643256	0.202655856	0.062460503
2019-07-14T14:30:00	0.2919	13.996	202.8	0.771127551	1.003555998	0.019515712	0.201340002	0.062054944
2019-07-14T14:35:00	0.2927	14.007	189.8	0.773581037	1.007516091	0.019634259	0.202563028	0.062431892
2019-07-14T14:40:00	0.2942	14.013	190.0	0.778258272	1.015080333	0.019861325	0.204905629	0.063153905
2019-07-14T14:45:00	0.2939	14.017	202.8	0.777529743	1.013900838	0.019825864	0.204539788	0.063041149
2019-07-14T14:50:00	0.2925	14.017	202.9	0.772983936	1.006551837	0.019605373	0.202265015	0.062340042
2019-07-14T14:55:00	0.2928	14.019	190.0	0.773845640	1.007943499	0.019647067	0.202695167	0.062472619
2019-07-14T15:00:00	0.2912	14.011	202.9	0.768976822	1.000088986	0.019412112	0.200271180	0.061725523
2019-07-14T15:05:00	0.2920	13.996	202.8	0.771431704	1.004046632	0.019530387	0.201491402	0.062101607
2019-07-14T15:10:00	0.2936	13.983	202.7	0.776429574	1.012120554	0.019772379	0.203987992	0.062871080
2019-07-14T15:15:00	0.2931	13.978	202.7	0.775064585	1.009913242	0.019706128	0.203304492	0.062660419
2019-07-14T15:20:00	0.2915	13.969	189.9	0.769878835	1.001542545	0.019455525	0.200719070	0.061863567
2019-07-14T15:25:00	0.2913	13.965	202.7	0.769148690	1.000365889	0.019420380	0.200356478	0.061751813
2019-07-14T15:30:00	0.2902	13.969	189.8	0.765549555	0.994572674	0.019247635	0.198574300	0.061202528
2019-07-14T15:35:00	0.2907	13.970	202.7	0.767369262	0.997500259	0.019334870	0.199474290	0.061479914
2019-07-14T15:40:00	0.2914	13.960	189.8	0.769506655	1.000942703	0.019437606	0.200534200	0.061806588
2019-07-14T15:45:00	0.2918	13.950	202.8	0.770687613	1.002846476	0.019494496	0.201121122	0.061987483
2019-07-14T15:50:00	0.2906	13.945	189.8	0.767089945	0.997050696	0.019321466	0.199336003	0.061437292
2019-07-14T15:55:00	0.2893	13.944	202.7	0.762850676	0.990236079	0.019118644	0.197243522	0.060792369
2019-07-14T16:00:00	0.2901	13.938	202.5	0.765309546	0.994186762	0.019236145	0.198455760	0.061165993
2019-07-14T16:05:00	0.2888	13.935	202.8	0.761167243	0.987534391	0.019038421	0.196415882	0.060537282
2019-07-14T16:10:00	0.2901	13.931	202.7	0.765320959	0.994205113	0.019236691	0.198461396	0.061167730
2019-07-14T16:15:00	0.2907	13.928	189.8	0.767239588	0.997291539	0.019328647	0.199410084	0.061460124
2019-07-14T16:20:00	0.2900	13.921	189.7	0.765013459	0.993710753	0.019221975	0.198309576	0.061120937
2019-07-14T16:25:00	0.2910	13.916	189.7	0.768207091	0.998849165	0.019375106	0.199889400	0.061607854
2019-07-14T16:30:00	0.2889	13.904	202.5	0.761515046	0.988092363	0.019054981	0.196586722	0.060589937
2019-07-14T16:35:00	0.2905	13.893	202.4	0.766624875	0.996302317	0.019299159	0.199105867	0.061366362
2019-07-14T16:40:00	0.2900	13.883	202.5	0.765036289	0.993747453	0.019223068	0.198320845	0.061124411
2019-07-14T16:45:00	0.2890	13.871	202.5	0.761851393	0.988632058	0.019071002	0.196752010	0.060640880
2019-07-14T16:50:00	0.2896	13.867	189.6	0.763771788	0.991715407	0.019162615	0.197697168	0.060932187
2019-07-14T16:55:00	0.2878	13.858	202.4	0.758030534	0.982507095	0.018889428	0.194878745	0.060063522
2019-07-14T17:00:00	0.2865	13.846	202.5	0.753880205	0.975868642	0.018693254	0.192854851	0.059439738
2019-07-14T17:05:00	0.2881	13.839	202.5	0.759000404	0.984060602	0.018935429	0.195353334	0.060209795
2019-07-14T17:10:00	0.2865	13.831	202.4	0.753891654	0.975886933	0.018693793	0.192860419	0.059441454
2019-07-14T17:15:00	0.2864	13.818	202.3	0.753577493	0.975385051	0.018678988	0.192707679	0.059394378
2019-07-14T17:20:00	0.2871	13.804	202.3	0.755821837	0.978972384	0.018784892	0.193800270	0.059731125
2019-07-14T17:25:00	0.2874	13.793	189.4	0.756786557	0.980515752	0.018830513	0.194270933	0.059876188
2019-07-14T17:30:00	0.2896	13.784	202.1	0.763817462	0.991788780	0.019164797	0.197719677	0.060939125
2019-07-14T17:35:00	0.2887	13.771	202.1	0.760950821	0.987187245	0.019028121	0.196309616	0.060504530
2019-07-14T17:40:00	0.2867	13.760	189.3	0.754565683	0.976964012	0.018725578	0.193188340	0.059542523
2019-07-14T17:45:00	0.2868	13.752	202.1	0.754891206	0.977484334	0.018740939	0.193346818	0.059591367
2019-07-14T17:50:00	0.2865	13.743	202.0	0.753937448	0.975960098	0.018695952	0.192882688	0.059448318
2019-07-14T17:55:00	0.2872	13.732	202.0	0.756181577	0.979547803	0.018801897	0.193975706	0.059785197
2019-07-14T18:00:00	0.2857	13.722	202.0	0.751389087	0.971891422	0.018576033	0.191645510	0.059067008
2019-07-14T18:05:00	0.2851	13.711	201.9	0.749473814	0.968837305	0.018486178	0.190718493	0.058781292
2019-07-14T18:10:00	0.2852	13.699	201.8	0.749799779	0.969356865	0.018501454	0.190876095	0.058829866
2019-07-14T18:15:00	0.2847	13.687	201.8	0.748204065	0.966814336	0.018426737	0.190105246	0.058592283
2019-07-14T18:20:00	0.2841	13.676	201.5	0.746287162	0.963763016	0.018337194	0.189181450	0.058307560
2019-07-14T18:25:00	0.2842	13.665	201.7	0.746613405	0.964282100	0.018352417	0.189338503	0.058355966
2019-07-14T18:30:00	0.2853	13.654	188.8	0.750142907	0.969903880	0.018517542	0.191042069	0.058881021
2019-07-14T18:35:00	0.2856	13.643	201.6	0.751109088	0.971444730	0.018562883	0.191509837	0.059025192
2019-07-14T18:40:00	0.2843	13.634	188.6	0.746951090	0.964819487	0.018368181	0.189501138	0.058406091
2019-07-14T18:45:00	0.2843	13.623	201.5	0.746956825	0.964828615	0.018368449	0.189503901	0.058406943
2019-07-14T18:50:00	0.2833	13.610	201.4	0.743756549	0.959739763	0.018219341	0.187965583	0.057932818
2019-07-14T18:55:00	0.2841	13.597	201.4	0.746327313	0.963826896	0.018339067	0.189200775	0.058313516
2019-07-14T19:00:00	0.2837	13.585	201.2	0.745050759	0.961796635	0.018279563	0.188586879	0.058124308
2019-07-14T19:05:00	0.2851	13.572	201.2	0.749222329	0.968436525	0.018474397	0.190596950	0.058743831
2019-07-14T19:10:00	0.2868	13.559	201.2	0.754668700	0.977128666	0.018730439	0.193238486	0.059557978
2019-07-14T19:15:00	0.2859	13.545	201.3	0.751795072	0.972539227	0.018595110	0.191842322	0.059127667
2019-07-14T19:20:00	0.2867	13.532	201.1	0.754360328	0.976635818	0.018715891	0.193088402	0.059511721
2019-07-14T19:25:00	0.2859	13.517	201.0	0.751806527	0.972557507	0.018595648	0.191847877	0.059129379
2019-07-14T19:30:00	0.2876	13.502	200.9	0.757249151	0.981256107	0.018852410	0.194496839	0.059945815
2019-07-14T19:35:00	0.2876	13.488	200.8	0.757254871	0.981265261	0.018852681	0.194499633	0.059946676
2019-07-14T19:40:00	0.2876	13.475	200.9	0.757260590	0.981274416	0.018852952	0.194502427	0.059947537
2019-07-14T19:45:00	0.2886	13.463	200.8	0.760460798	0.986401389	0.019004810	0.196069124	0.060430408
2019-07-14T19:50:00	0.2890	13.450	187.9	0.761743547	0.988459000	0.019065864	0.196699004	0.060624543
2019-07-14T19:55:00	0.2892	13.437	200.7	0.762387614	0.989492674	0.019096559	0.197015676	0.060722145
2019-07-14T20:00:00	0.2898	13.426	200.6	0.764307735	0.992576498	0.019188225	0.197961379	0.061013620
2019-07-14T20:05:00	0.2886	13.414	187.7	0.760483655	0.986438041	0.019005897	0.196080338	0.060433865
2019-07-14T20:10:00	0.2884	13.402	187.7	0.759850694	0.985423255	0.018975809	0.195769919	0.060338190
2019-07-14T20:15:00	0.2897	13.391	187.6	0.764005861	0.992091454	0.019173798	0.197812538	0.060967745
2019-07-14T20:20:00	0.2908	13.382	187.5	0.767519075	0.997741412	0.019342061	0.199548482	0.061502780
2019-07-14T20:25:00	0.2898	13.372	187.4	0.764336278	0.992622363	0.019189589	0.197975455	0.061017958
2019-07-14T20:30:00	0.2888	13.363	187.4	0.761150790	0.987507999	0.019037638	0.196407802	0.060534792
2019-07-14T20:35:00	0.2896	13.353	187.5	0.763709672	0.991615624	0.019159648	0.197666558	0.060922753
2019-07-14T20:40:00	0.2917	13.345	187.4	0.770409226	1.002397588	0.019481077	0.200982684	0.061944815
2019-07-14T20:45:00	0.2897	13.337	187.3	0.764040115	0.992146488	0.019175435	0.197829423	0.060972950
2019-07-14T20:50:00	0.2895	13.327	187.3	0.763407750	0.991130664	0.019145230	0.197517813	0.060876908
2019-07-14T20:55:00	0.2884	13.317	187.3	0.759902130	0.985505707	0.018978253	0.195795135	0.060345962
2019-07-14T21:00:00	0.2889	13.306	187.2	0.761504308	0.988075134	0.019054469	0.196581446	0.060588311
2019-07-14T21:05:00	0.2893	13.295	187.2	0.762786702	0.990133362	0.019115592	0.197212035	0.060782665
2019-07-14T21:10:00	0.2898	13.282	187.1	0.764387653	0.992704921	0.019192045	0.198000793	0.061025767
2019-07-14T21:15:00	0.2900	13.269	187.0	0.765031268	0.993739381	0.019222827	0.198318367	0.061123647
2019-07-14T21:20:00	0.2906	13.257	186.9	0.766950044	0.996825550	0.019314754	0.199266759	0.061415950
2019-07-14T21:25:00	0.2905	13.244	186.8	0.766636971	0.996321779	0.019299739	0.199111851	0.061368206
2019-07-14T21:30:00	0.2902	13.232	186.8	0.765686185	0.994792386	0.019254177	0.198641799	0.061223332
2019-07-14T21:35:00	0.2904	13.221	186.7	0.766329578	0.995827232	0.019285002	0.198959815	0.061321347
2019-07-14T21:40:00	0.2899	13.212	186.7	0.764740867	0.993272585	0.019208935	0.198175043	0.061079473
2019-07-14T21:45:00	0.2902	13.203	186.7	0.765703304	0.994819916	0.019254997	0.198650257	0.061225938
2019-07-14T21:50:00	0.2877	13.194	186.7	0.757728844	0.982024027	0.018875131	0.194731244	0.060018061
2019-07-14T21:55:00	0.2882	13.185	186.6	0.759331947	0.984591849	0.018951168	0.195515712	0.060259841
2019-07-14T22:00:00	0.2891	13.177	186.6	0.762211244	0.989209578	0.019088151	0.196928932	0.060695409
2019-07-14T22:05:00	0.2873	13.169	186.4	0.756507142	0.980068656	0.018817294	0.194134550	0.059834154
2019-07-14T22:10:00	0.2875	13.162	186.5	0.757191633	0.981164042	0.018849687	0.194468743	0.059937155
2019-07-14T22:15:00	0.2880	13.155	199.0	0.758515012	0.983283012	0.018912399	0.195115738	0.060136565
2019-07-14T22:20:00	0.2863	13.149	186.4	0.753125245	0.974662723	0.018657687	0.192487917	0.059326645
2019-07-14T22:25:00	0.2876	13.142	186.5	0.757327373	0.981381315	0.018856114	0.194535052	0.059957592
2019-07-14T22:30:00	0.2876	13.135	186.4	0.757372618	0.981453741	0.018858257	0.194557158	0.059964406
2019-07-14T22:35:00	0.2872	13.129	186.3	0.756139359	0.979480267	0.018799901	0.193955113	0.059778849
2019-07-14T22:40:00	0.2875	13.122	186.3	0.757143526	0.981087043	0.018847409	0.194445245	0.059929913
2019-07-14T22:45:00	0.2888	13.116	186.3	0.761341167	0.987813399	0.019046701	0.196501303	0.060563610
2019-07-14T22:50:00	0.2892	13.110	186.2	0.762343947	0.989422580	0.019094477	0.196994197	0.060715525
2019-07-14T22:55:00	0.2874	13.105	186.3	0.756640046	0.980281309	0.018823581	0.194199414	0.059854146
2019-07-14T23:00:00	0.2874	13.100	186.2	0.756685300	0.980353721	0.018825722	0.194221503	0.059860954
2019-07-14T23:05:00	0.2885	13.096	186.3	0.760244842	0.986055126	0.018994542	0.195963188	0.060397758
2019-07-14T23:10:00	0.2888	13.091	198.7	0.761247914	0.987663800	0.019042261	0.196455500	0.060549493
2019-07-14T23:15:00	0.2887	13.086	186.2	0.760973856	0.987224192	0.019029217	0.196320925	0.060508016
2019-07-14T23:20:00	0.2880	13.081	186.2	0.758783532	0.983713151	0.018925138	0.195247158	0.060177070
2019-07-14T23:25:00	0.2900	13.076	186.1	0.764893458	0.993517853	0.019216234	0.198250345	0.061102682
2019-07-14T23:30:00	0.2889	13.072	186.1	0.761428704	0.987953837	0.019050869	0.196544303	0.060576863
2019-07-14T23:35:00	0.2896	13.068	186.1	0.763707830	0.991612663	0.019159560	0.197665650	0.060922473
2019-07-14T23:40:00	0.2885	13.063	186.0	0.760241985	0.986050545	0.018994406	0.195961786	0.060397326
2019-07-14T23:45:00	0.2898	13.057	186.1	0.764436174	0.992782894	0.019194365	0.198024724	0.061033143
2019-07-14T23:50:00	0.2884	13.053	185.9	0.760013067	0.985683545	0.018983525	0.195849526	0.060362726
2019-07-14T23:55:00	0.2895	13.047	185.9	0.763569465	0.991390407	0.019152952	0.197597476	0.060901461
2019-07-15T00:00:00	0.2887	13.042	185.9	0.760742126	0.986852532	0.019018191	0.196207174	0.060472957
2019-07-15T00:05:00	0.2869	13.038	185.9	0.755035794	0.977715474	0.018747765	0.193417231	0.059613069
2019-07-15T00:10:00	0.2883	13.034	185.9	0.759555191	0.984949617	0.018961770	0.195625089	0.060293552
2019-07-15T00:15:00	0.2884	13.029	185.8	0.759919782	0.985534003	0.018979092	0.195803789	0.060348629
2019-07-15T00:20:00	0.2880	13.024	185.9	0.758687358	0.983559083	0.018920575	0.195200083	0.060162561
2019-07-15T00:25:00	0.2881	13.020	185.8	0.759052033	0.984143323	0.018937880	0.195378616	0.060217587
2019-07-15T00:30:00	0.2879	13.015	185.8	0.758458346	0.983192247	0.018909712	0.195088011	0.060128020
2019-07-15T00:35:00	0.2885	13.010	185.8	0.760100636	0.985823929	0.018987687	0.195892465	0.060375960
2019-07-15T00:40:00	0.2880	13.005	185.8	0.758548809	0.983337147	0.018914002	0.195132277	0.060141663
2019-07-15T00:45:00	0.2868	13.000	185.7	0.754758421	0.977272077	0.018734673	0.193282164	0.059571440
2019-07-15T00:50:00	0.2878	12.995	185.7	0.758000279	0.982458647	0.018887994	0.194863950	0.060058962
2019-07-15T00:55:00	0.2864	12.990	185.7	0.753569594	0.975372434	0.018678616	0.192703839	0.059393195
2019-07-15T01:00:00	0.2869	12.985	185.7	0.755214022	0.978000419	0.018756179	0.193504046	0.059639826
2019-07-15T01:05:00	0.2849	12.980	185.6	0.748858729	0.967857171	0.018457371	0.190421295	0.058689693
2019-07-15T01:10:00	0.2871	12.974	185.6	0.755624301	0.978656465	0.018775558	0.193703972	0.059701445
2019-07-15T01:15:00	0.2856	12.969	185.6	0.750870693	0.971064465	0.018551690	0.191394363	0.058989602
2019-07-15T01:20:00	0.2859	12.963	185.5	0.751876271	0.972668809	0.018598927	0.191881698	0.059139803
2019-07-15T01:25:00	0.2854	12.958	185.5	0.750321041	0.970187904	0.018525897	0.191128265	0.058907588
2019-07-15T01:30:00	0.2829	12.953	185.4	0.742353486	0.957511560	0.018154174	0.187293270	0.057725605
2019-07-15T01:35:00	0.2846	12.948	185.5	0.747849474	0.966249655	0.018410155	0.189934180	0.058539559
2019-07-15T01:40:00	0.2846	12.942	185.4	0.747894834	0.966321884	0.018412276	0.189956058	0.058546302
2019-07-15T01:45:00	0.2850	12.937	185.4	0.748901210	0.967924854	0.018459360	0.190441814	0.058696017
2019-07-15T01:50:00	0.2829	12.932	185.3	0.742214332	0.957290664	0.018147718	0.187226661	0.057705075
2019-07-15T01:55:00	0.2829	12.927	185.3	0.742259761	0.957362776	0.018149826	0.187248405	0.057711777
2019-07-15T02:00:00	0.2823	12.921	185.3	0.740379514	0.954379634	0.018062703	0.186349574	0.057434748
2019-07-15T02:05:00	0.2813	12.916	185.2	0.737213336	0.949363312	0.017916501	0.184841242	0.056969866
2019-07-15T02:10:00	0.2818	12.911	185.3	0.738864965	0.951978964	0.017992688	0.185627242	0.057212119
2019-07-15T02:15:00	0.2801	12.906	185.2	0.733446799	0.943407300	0.017743404	0.183055433	0.056419462
2019-07-15T02:20:00	0.2801	12.902	185.2	0.733492335	0.943479230	0.017745492	0.183076967	0.056426099
2019-07-15T02:25:00	0.2816	12.897	185.2	0.738037805	0.950668706	0.017954511	0.185233379	0.057090726
2019-07-15T02:30:00	0.2808	12.893	185.2	0.735512589	0.946672381	0.017838230	0.184033729	0.056720983
2019-07-15T02:35:00	0.2800	12.888	197.8	0.732985661	0.942678960	0.017722274	0.182837432	0.056352272
2019-07-15T02:40:00	0.2806	12.883	185.1	0.734960673	0.945799684	0.017812869	0.183772086	0.056640342
2019-07-15T02:45:00	0.2809	12.878	197.7	0.735970539	0.947396702	0.017859288	0.184250978	0.056787941
2019-07-15T02:50:00	0.2803	12.873	197.7	0.734087119	0.944418955	0.017772768	0.183358371	0.056512831
2019-07-15T02:55:00	0.2815	12.868	185.0	0.737989451	0.950592130	0.017952280	0.185210369	0.057083634
2019-07-15T03:00:00	0.2808	12.864	197.7	0.735464202	0.946595861	0.017836006	0.184010783	0.056713910
2019-07-15T03:05:00	0.2812	12.859	185.1	0.736795283	0.948701630	0.017897245	0.184642576	0.056908635
2019-07-15T03:10:00	0.2835	12.855	184.9	0.744224132	0.960482716	0.018241086	0.188189923	0.058001962
2019-07-15T03:15:00	0.2825	12.851	185.0	0.741061214	0.955460840	0.018094264	0.186675186	0.057535105
2019-07-15T03:20:00	0.2828	12.846	184.9	0.742069431	0.957060663	0.018140996	0.187157315	0.057683702
2019-07-15T03:25:00	0.2820	12.842	184.9	0.739546943	0.953059698	0.018024196	0.185952311	0.057312308
2019-07-15T03:30:00	0.2814	12.837	184.9	0.737665328	0.950078884	0.017937334	0.185056165	0.057036107
2019-07-15T03:35:00	0.2812	12.832	184.9	0.736746913	0.948625081	0.017895018	0.184619597	0.056901553
2019-07-15T03:40:00	0.2817	12.828	184.9	0.738398748	0.951240382	0.017971165	0.185405192	0.057143681
2019-07-15T03:45:00	0.2809	12.824	184.8	0.735873777	0.947243642	0.017854837	0.184205063	0.056773789
2019-07-15T03:50:00	0.2833	12.819	184.8	0.743625222	0.959531128	0.018213236	0.187902599	0.057913406
2019-07-15T03:55:00	0.2818	12.814	184.8	0.738856344	0.951965304	0.017992290	0.185623135	0.057210853
2019-07-15T04:00:00	0.2813	12.809	197.4	0.737295689	0.949493676	0.017920296	0.184880391	0.056981932
2019-07-15T04:05:00	0.2826	12.804	184.7	0.741515612	0.956181761	0.018115318	0.186892397	0.057602052
2019-07-15T04:10:00	0.2807	12.800	184.7	0.735136983	0.946078439	0.017820968	0.183855646	0.056666096
2019-07-15T04:15:00	0.2810	12.797	197.3	0.736146802	0.947675538	0.017867396	0.184334632	0.056813724
2019-07-15T04:20:00	0.2805	12.793	197.2	0.734585012	0.945205836	0.017795618	0.183594112	0.056585488
2019-07-15T04:25:00	0.2808	12.790	184.7	0.735594980	0.946802682	0.017842017	0.184072805	0.056733026
2019-07-15T04:30:00	0.2814	12.787	197.2	0.737568610	0.949925749	0.017932875	0.185010164	0.057021929
2019-07-15T04:35:00	0.2802	12.785	197.3	0.733756901	0.943897192	0.017757622	0.183202110	0.056464670
2019-07-15T04:40:00	0.2816	12.783	184.6	0.738302049	0.951087215	0.017966702	0.185359154	0.057129491
2019-07-15T04:45:00	0.2794	12.782	197.3	0.730952515	0.939469960	0.017629269	0.181877923	0.056056542
2019-07-15T04:50:00	0.2812	12.780	184.6	0.736786657	0.948687979	0.017896848	0.184638478	0.056907372
2019-07-15T04:55:00	0.2813	12.777	184.6	0.737153472	0.949268551	0.017913743	0.184812786	0.056961096
2019-07-15T05:00:00	0.2802	12.775	197.2	0.733662959	0.943748775	0.017753314	0.183157669	0.056450972
2019-07-15T05:05:00	0.2811	12.771	197.1	0.736601799	0.948395441	0.017888336	0.184550667	0.056880308
2019-07-15T05:10:00	0.2812	12.769	184.7	0.736968631	0.948975982	0.017905228	0.184724940	0.056934021
2019-07-15T05:15:00	0.2824	12.769	197.2	0.740867951	0.955154275	0.018085313	0.186582844	0.057506645
2019-07-15T05:20:00	0.2816	12.768	184.6	0.738023433	0.950645947	0.017953848	0.185226540	0.057088618
2019-07-15T05:25:00	0.2825	12.767	184.6	0.740958840	0.955298443	0.018089522	0.186626268	0.057520028
2019-07-15T05:30:00	0.2828	12.766	184.5	0.741967084	0.956898219	0.018136249	0.187108342	0.057668608
2019-07-15T05:35:00	0.2831	12.766	184.5	0.742975056	0.958498459	0.018183028	0.187590952	0.057817353
2019-07-15T05:40:00	0.2828	12.765	197.1	0.742057946	0.957042434	0.018140464	0.187151819	0.057682008
2019-07-15T05:45:00	0.2838	12.763	184.3	0.745310804	0.962210099	0.018291676	0.188711848	0.058162824
2019-07-15T05:50:00	0.2847	12.764	197.1	0.748240494	0.966872356	0.018428441	0.190122826	0.058597701
2019-07-15T05:55:00	0.2847	12.763	184.5	0.747965485	0.966434389	0.018415579	0.189990138	0.058556806
2019-07-15T06:00:00	0.2845	12.762	197.1	0.747370041	0.965486341	0.018387749	0.189703016	0.058468312
2019-07-15T06:05:00	0.2858	12.762	197.0	0.751578617	0.972193826	0.018584938	0.191737377	0.059095322
2019-07-15T06:10:00	0.2860	12.760	184.5	0.752264008	0.973287661	0.018617158	0.192069786	0.059197773
2019-07-15T06:15:00	0.2865	12.760	184.4	0.753909008	0.975914659	0.018694611	0.192868858	0.059444055
2019-07-15T06:20:00	0.2857	12.759	184.4	0.751394489	0.971900040	0.018576287	0.191648128	0.059067814
2019-07-15T06:25:00	0.2874	12.758	184.7	0.756877242	0.980660872	0.018834805	0.194315208	0.059889834
2019-07-15T06:30:00	0.2874	12.756	184.4	0.756602865	0.980221816	0.018821822	0.194181267	0.059848552
2019-07-15T06:35:00	0.2895	12.756	197.0	0.763354519	0.991045169	0.019142689	0.197491594	0.060868827
2019-07-15T06:40:00	0.2881	12.755	196.9	0.758930141	0.983948029	0.018932095	0.195318931	0.060199192
2019-07-15T06:45:00	0.2872	12.758	197.0	0.756099313	0.979416207	0.018798008	0.193935580	0.059772829
2019-07-15T06:50:00	0.2876	12.758	184.4	0.757423076	0.981534511	0.018860646	0.194581811	0.059972004
2019-07-15T06:55:00	0.2849	12.760	184.4	0.748830069	0.967811509	0.018456029	0.190407453	0.058685426
2019-07-15T07:00:00	0.2868	12.763	184.5	0.754956184	0.977588207	0.018744007	0.193378460	0.059601119
2019-07-15T07:05:00	0.2878	12.763	184.4	0.757878353	0.982263411	0.018882215	0.194804334	0.060040588
2019-07-15T07:10:00	0.2878	12.767	197.0	0.757923592	0.982335849	0.018884359	0.194826452	0.060047405
2019-07-15T07:15:00	0.2866	12.769	184.4	0.754132573	0.976271870	0.018705151	0.192977594	0.059477569
2019-07-15T07:20:00	0.2882	12.768	184.4	0.759291935	0.984527730	0.018949269	0.195496111	0.060253800
2019-07-15T07:25:00	0.2882	12.767	184.4	0.759337157	0.984600197	0.018951416	0.195518264	0.060260628
2019-07-15T07:30:00	0.2886	12.769	184.4	0.760659781	0.986720474	0.019014274	0.196166761	0.060460501
2019-07-15T07:35:00	0.2863	12.771	184.4	0.753354075	0.975028187	0.018668463	0.192599096	0.059360912
2019-07-15T07:40:00	0.2877	12.769	184.4	0.757555947	0.981747220	0.018866940	0.194646740	0.059992016
2019-07-15T07:45:00	0.2877	12.769	196.9	0.757601190	0.981819651	0.018869083	0.194668851	0.059998830
2019-07-15T07:50:00	0.2887	12.771	197.0	0.760840599	0.987010461	0.019022876	0.196255508	0.060487854
2019-07-15T07:55:00	0.2879	12.773	184.4	0.758330716	0.982987828	0.018903659	0.195025568	0.060108774
2019-07-15T08:00:00	0.2863	12.774	184.3	0.753260624	0.974878931	0.018664062	0.192553688	0.059346917
2019-07-15T08:05:00	0.2882	12.775	196.9	0.759379520	0.984668085	0.018953427	0.195539017	0.060267024
2019-07-15T08:10:00	0.2888	12.778	184.5	0.761340661	0.987812587	0.019046677	0.196501054	0.060563533
2019-07-15T08:15:00	0.2896	12.776	184.4	0.763619839	0.991471321	0.019155358	0.197622294	0.060909110
2019-07-15T08:20:00	0.2885	12.774	184.5	0.760153914	0.985909344	0.018990219	0.195918592	0.060384013
2019-07-15T08:25:00	0.2891	12.773	197.0	0.762114651	0.989054546	0.019083547	0.196881433	0.060680770
2019-07-15T08:30:00	0.2882	12.772	184.5	0.759286219	0.984518570	0.018948997	0.195493311	0.060252937
2019-07-15T08:35:00	0.2896	12.772	184.4	0.763800515	0.991761556	0.019163987	0.197711325	0.060936550
2019-07-15T08:40:00	0.2899	12.772	184.4	0.764802641	0.993371875	0.019211890	0.198205526	0.061088868
2019-07-15T08:45:00	0.2904	12.773	184.4	0.766442168	0.996008361	0.019290399	0.199015495	0.061338508
2019-07-15T08:50:00	0.2894	12.773	184.4	0.762978839	0.990441866	0.019124759	0.197306608	0.060811813
2019-07-15T08:55:00	0.2898	12.775	184.4	0.764300184	0.992564364	0.019187864	0.197957655	0.061012472
2019-07-15T09:00:00	0.2896	12.776	184.4	0.763707324	0.991611851	0.019159536	0.197665401	0.060922396
2019-07-15T09:05:00	0.2904	12.778	184.4	0.766303904	0.995785930	0.019283772	0.198947120	0.061317434
2019-07-15T09:10:00	0.2890	12.780	197.0	0.761882991	0.988682765	0.019072507	0.196767542	0.060645667
2019-07-15T09:15:00	0.2897	12.781	184.5	0.764161842	0.992342069	0.019181252	0.197889437	0.060991446
2019-07-15T09:20:00	0.2880	12.783	197.0	0.758780167	0.983707760	0.018924978	0.195245511	0.060176563
2019-07-15T09:25:00	0.2874	12.789	184.5	0.756588565	0.980198935	0.018821145	0.194174287	0.059846401
2019-07-15T09:30:00	0.2894	12.796	197.1	0.763021161	0.990509825	0.019126778	0.197327443	0.060818234
2019-07-15T09:35:00	0.2890	12.801	197.1	0.761789752	0.988533142	0.019068065	0.196721713	0.060631542
2019-07-15T09:40:00	0.2875	12.806	197.2	0.757043943	0.980927660	0.018842695	0.194396609	0.059914923
2019-07-15T09:45:00	0.2880	12.815	197.2	0.758686851	0.983558272	0.018920551	0.195199835	0.060162485
2019-07-15T09:50:00	0.2873	12.826	197.2	0.756495194	0.980049540	0.018816729	0.194128720	0.059832357
2019-07-15T09:55:00	0.2892	12.833	197.3	0.762608832	0.989847797	0.019107108	0.197124507	0.060755687
2019-07-15T10:00:00	0.2863	12.842	197.3	0.753067990	0.974571289	0.018654991	0.192460104	0.059318073
2019-07-15T10:05:00	0.2871	12.852	197.4	0.755895381	0.979090012	0.018788368	0.193836128	0.059742177
2019-07-15T10:10:00	0.2883	12.864	197.4	0.759678907	0.985147903	0.018967647	0.195685717	0.060312239
2019-07-15T10:15:00	0.2873	12.870	197.9	0.756432777	0.979949676	0.018813776	0.194098261	0.059822969
2019-07-15T10:20:00	0.2872	12.872	197.5	0.756062126	0.979356724	0.018796250	0.193917443	0.059767239
2019-07-15T10:25:00	0.2869	12.876	197.4	0.755051947	0.977741299	0.018748527	0.193425098	0.059615494
2019-07-15T10:30:00	0.2855	12.884	184.8	0.750521395	0.970507389	0.018535297	0.191225238	0.058937475
2019-07-15T10:35:00	0.2886	12.887	184.9	0.760701623	0.986787576	0.019016265	0.196187295	0.060466830
2019-07-15T10:40:00	0.2861	12.886	185.1	0.752659787	0.973919485	0.018635777	0.192261876	0.059256977
2019-07-15T10:45:00	0.2864	12.888	198.0	0.753568579	0.975370813	0.018678568	0.192703346	0.059393043
2019-07-15T10:50:00	0.2866	12.892	199.2	0.754157316	0.976311407	0.018706318	0.192989631	0.059481278
2019-07-15T10:55:00	0.2878	12.896	187.2	0.757942592	0.982366273	0.018885260	0.194835742	0.060050268
2019-07-15T11:00:00	0.2857	12.900	187.1	0.751175473	0.971550630	0.018566000	0.191541999	0.059035104
2019-07-15T11:05:00	0.2867	12.903	186.6	0.754643960	0.977089123	0.018729272	0.193226442	0.059554266
2019-07-15T11:10:00	0.2887	12.911	186.0	0.760983765	0.987240084	0.019029689	0.196325790	0.060509515
2019-07-15T11:15:00	0.2878	12.917	185.7	0.758058292	0.982551544	0.018890744	0.194892319	0.060067705
2019-07-15T11:20:00	0.2876	12.923	198.1	0.757368239	0.981446730	0.018858049	0.194555018	0.059963746
2019-07-15T11:25:00	0.2858	12.930	185.3	0.751560419	0.972164788	0.018584083	0.191728555	0.059092603
2019-07-15T11:30:00	0.2878	12.934	185.3	0.757905424	0.982306758	0.018883498	0.194817569	0.060044667
2019-07-15T11:35:00	0.2864	12.937	185.2	0.753698218	0.975577904	0.018684677	0.192766366	0.059412466
2019-07-15T11:40:00	0.2855	12.943	185.2	0.750767064	0.970899181	0.018546825	0.191344179	0.058974134
2019-07-15T11:45:00	0.2870	12.951	185.2	0.755515081	0.978481805	0.018770398	0.193650739	0.059685038
2019-07-15T11:50:00	0.2867	12.961	197.8	0.754504755	0.976866635	0.018722704	0.193158686	0.059533383
2019-07-15T11:55:00	0.2862	12.967	185.3	0.752854290	0.974230043	0.018644931	0.192356316	0.059286085
2019-07-15T12:00:00	0.2860	12.971	197.9	0.752163281	0.973126881	0.018612421	0.192020914	0.059182711
2019-07-15T12:05:00	0.2866	12.978	197.9	0.754031896	0.976111004	0.018700404	0.192928623	0.059462475
2019-07-15T12:10:00	0.2842	12.986	185.3	0.746616781	0.964287472	0.018352575	0.189340129	0.058356467
2019-07-15T12:15:00	0.2856	12.996	185.5	0.751049953	0.971350399	0.018560106	0.191481190	0.059016362
2019-07-15T12:20:00	0.2843	13.008	185.4	0.746835047	0.964634807	0.018362763	0.189445241	0.058388863
2019-07-15T12:25:00	0.2847	13.014	185.5	0.748065636	0.966593877	0.018420263	0.190038454	0.058571697
2019-07-15T12:30:00	0.2849	13.026	185.5	0.748655238	0.967532983	0.018447846	0.190323027	0.058659405
2019-07-15T12:35:00	0.2843	13.043	198.2	0.746681722	0.964390810	0.018355606	0.189371399	0.058366104
2019-07-15T12:40:00	0.2843	13.057	185.6	0.746951090	0.964819487	0.018368181	0.189501138	0.058406091
2019-07-15T12:45:00	0.2849	13.060	185.6	0.748822305	0.967799141	0.018455666	0.190403704	0.058684271
2019-07-15T12:50:00	0.2841	13.067	185.7	0.746207875	0.963636877	0.018333495	0.189143291	0.058295799
2019-07-15T12:55:00	0.2834	13.081	185.9	0.743912356	0.959987306	0.018226585	0.188040321	0.057955853
2019-07-15T13:00:00	0.2833	13.097	185.9	0.743540465	0.959396486	0.018209297	0.187861957	0.057900880
2019-07-15T13:05:00	0.2839	13.111	185.9	0.745413386	0.962373218	0.018296455	0.188761158	0.058178022
2019-07-15T13:10:00	0.2839	13.119	185.9	0.745682845	0.962801740	0.018309013	0.188890716	0.058217953
2019-07-15T13:15:00	0.2845	13.127	186.1	0.747554694	0.965780306	0.018396377	0.189792031	0.058495747
2019-07-15T13:20:00	0.2834	13.130	186.0	0.743977343	0.960090563	0.018229607	0.188071499	0.057965463
2019-07-15T13:25:00	0.2845	13.133	186.0	0.747452497	0.965617606	0.018391602	0.189742763	0.058480562
2019-07-15T13:30:00	0.2849	13.137	186.1	0.748682883	0.967577024	0.018449140	0.190336376	0.058663520
2019-07-15T13:35:00	0.2845	13.144	186.1	0.747350298	0.965454911	0.018386827	0.189693500	0.058465379
2019-07-15T13:40:00	0.2849	13.148	186.1	0.748580717	0.967414271	0.018444359	0.190287047	0.058648316
2019-07-15T13:45:00	0.2843	13.153	186.1	0.746927642	0.964782170	0.018367086	0.189489843	0.058402610
2019-07-15T13:50:00	0.2844	13.161	186.1	0.747196993	0.965210878	0.018379665	0.189619616	0.058442607
2019-07-15T13:55:00	0.2827	13.169	186.2	0.741694303	0.956465311	0.018123601	0.186977851	0.057628390
2019-07-15T14:00:00	0.2847	13.174	186.2	0.748056020	0.966578564	0.018419813	0.190033815	0.058570267
2019-07-15T14:05:00	0.2829	13.176	186.2	0.742233739	0.957321470	0.018148618	0.187235950	0.057707938
2019-07-15T14:10:00	0.2824	13.183	186.3	0.740577856	0.954694171	0.018071882	0.186444280	0.057463938
2019-07-15T14:15:00	0.2848	13.190	186.3	0.748543456	0.967354916	0.018442615	0.190269058	0.058642771
2019-07-15T14:20:00	0.2848	13.198	186.4	0.748492372	0.967273543	0.018440224	0.190244396	0.058635171
2019-07-15T14:25:00	0.2844	13.203	186.3	0.747159718	0.965151546	0.018377924	0.189601655	0.058437071
2019-07-15T14:30:00	0.2846	13.215	186.5	0.747749463	0.966090408	0.018405480	0.189885946	0.058524693
2019-07-15T14:35:00	0.2853	13.223	199.1	0.749940501	0.969581192	0.018508051	0.190944154	0.058850843
2019-07-15T14:40:00	0.2848	13.228	186.4	0.748288027	0.966948060	0.018430664	0.190145765	0.058604771
2019-07-15T14:45:00	0.2860	13.230	186.5	0.752399237	0.973503526	0.018623519	0.192135407	0.059217999
2019-07-15T14:50:00	0.2866	13.232	186.5	0.754267735	0.976487851	0.018711525	0.193043349	0.059497835
2019-07-15T14:55:00	0.2849	13.233	199.1	0.748775433	0.967724465	0.018453472	0.190381067	0.058677294
2019-07-15T15:00:00	0.2845	13.237	186.6	0.747442880	0.965602296	0.018391152	0.189738126	0.058479133
2019-07-15T15:05:00	0.2842	13.243	186.6	0.746430376	0.963990871	0.018343876	0.189250384	0.058328806
2019-07-15T15:10:00	0.2838	13.249	186.6	0.745096988	0.961870133	0.018281716	0.188609092	0.058131154
2019-07-15T15:15:00	0.2817	13.253	186.6	0.738627790	0.951603206	0.017981737	0.185514262	0.057177297
2019-07-15T15:20:00	0.2840	13.257	186.7	0.745956497	0.963236993	0.018321771	0.189022339	0.058258521
2019-07-15T15:25:00	0.2831	13.262	186.7	0.743019276	0.958568683	0.018185082	0.187612139	0.057823883
2019-07-15T15:30:00	0.2842	13.266	186.8	0.746495319	0.964094203	0.018346906	0.189281649	0.058338442
2019-07-15T15:35:00	0.2834	13.270	186.7	0.743879263	0.959934726	0.018225047	0.188024445	0.057950960
2019-07-15T15:40:00	0.2835	13.270	186.7	0.744148833	0.960363058	0.018237583	0.188153786	0.057990824
2019-07-15T15:45:00	0.2837	13.268	199.4	0.744739052	0.961301107	0.018265049	0.188437141	0.058078157
2019-07-15T15:50:00	0.2824	13.268	186.8	0.740838030	0.955106815	0.018083928	0.186568549	0.057502239
2019-07-15T15:55:00	0.2834	13.270	186.8	0.743995397	0.960119250	0.018230447	0.188080161	0.057968132
2019-07-15T16:00:00	0.2818	13.274	186.9	0.738809165	0.951890554	0.017990111	0.185600658	0.057203925
2019-07-15T16:05:00	0.2828	13.276	186.8	0.742113153	0.957130060	0.018143024	0.187178238	0.057690151
2019-07-15T16:10:00	0.2829	13.278	186.9	0.742206882	0.957278838	0.018147372	0.187223096	0.057703976
2019-07-15T16:15:00	0.2825	13.278	186.9	0.741016935	0.955390598	0.018092213	0.186654027	0.057528584
2019-07-15T16:20:00	0.2815	13.279	186.9	0.737899654	0.950449928	0.017948139	0.185167640	0.057070465
2019-07-15T16:25:00	0.2822	13.278	186.9	0.740241449	0.954160709	0.018056314	0.186283665	0.057414435
2019-07-15T16:30:00	0.2815	13.277	186.9	0.737766083	0.950238419	0.017941979	0.185104093	0.057050879
2019-07-15T16:35:00	0.2819	13.275	186.9	0.739144682	0.952422183	0.018005608	0.185760534	0.057253201
2019-07-15T16:40:00	0.2808	13.275	199.9	0.735704419	0.946975768	0.017847049	0.184124715	0.056749025
2019-07-15T16:45:00	0.2791	13.275	186.9	0.730008195	0.937980734	0.017586161	0.181433183	0.055919469
2019-07-15T16:50:00	0.2799	13.273	186.8	0.732676660	0.942191018	0.017708122	0.182691431	0.056307273
2019-07-15T16:55:00	0.2795	13.270	187.0	0.731483667	0.940307949	0.017653541	0.182128331	0.056133721
2019-07-15T17:00:00	0.2802	13.268	186.8	0.733507889	0.943503802	0.017746205	0.183084323	0.056428367
2019-07-15T17:05:00	0.2799	13.264	199.5	0.732636872	0.942128194	0.017706300	0.182672635	0.056301480
2019-07-15T17:10:00	0.2769	13.261	186.9	0.723067655	0.927059256	0.017271051	0.178182246	0.054917499
2019-07-15T17:15:00	0.2785	13.259	186.8	0.728318561	0.935318074	0.017509170	0.180638877	0.055674656
2019-07-15T17:20:00	0.2792	13.256	186.8	0.730344506	0.938511018	0.017601507	0.181591507	0.055968266
2019-07-15T17:25:00	0.2778	13.253	186.8	0.725929391	0.931557304	0.017400610	0.179518884	0.055329464
2019-07-15T17:30:00	0.2779	13.249	186.9	0.726345784	0.932212383	0.017419504	0.179713813	0.055389543
2019-07-15T17:35:00	0.2782	13.245	186.8	0.727084320	0.933374642	0.017453043	0.180059827	0.055496188
2019-07-15T17:40:00	0.2785	13.240	186.9	0.728144809	0.935044404	0.017501263	0.180557300	0.055649514
2019-07-15T17:45:00	0.2779	13.236	186.8	0.726305928	0.932149674	0.017417695	0.179695150	0.055383791
2019-07-15T17:50:00	0.2754	13.233	186.9	0.718335390	0.919636858	0.017057938	0.175983597	0.054239854
2019-07-15T17:55:00	0.2759	13.228	186.8	0.719721214	0.921808449	0.017120201	0.176625959	0.054437836
2019-07-15T18:00:00	0.2746	13.224	186.8	0.715616613	0.915381405	0.016936136	0.174726995	0.053852557
2019-07-15T18:05:00	0.2741	13.219	186.9	0.714094824	0.913002305	0.016868162	0.174025721	0.053636417
2019-07-15T18:10:00	0.2746	13.214	186.8	0.715482238	0.915171247	0.016930128	0.174665011	0.053833453
2019-07-15T18:15:00	0.2744	13.209	186.8	0.714930227	0.914308088	0.016905459	0.174410508	0.053755012
2019-07-15T18:20:00	0.2754	13.204	186.8	0.718255505	0.919511730	0.017054352	0.175946606	0.054228453
2019-07-15T18:25:00	0.2747	13.198	186.8	0.715765441	0.915614185	0.016942792	0.174795659	0.053873720
2019-07-15T18:30:00	0.2729	13.192	187.0	0.710038479	0.906670659	0.016687686	0.172163783	0.053062550
2019-07-15T18:35:00	0.2760	13.186	186.8	0.720152745	0.922485002	0.017139614	0.176826238	0.054499564
2019-07-15T18:40:00	0.2755	13.179	186.7	0.718632821	0.920102793	0.017071291	0.176121359	0.054282313
2019-07-15T18:45:00	0.2735	13.172	199.5	0.711939941	0.909636909	0.016772158	0.173035266	0.053331149
2019-07-15T18:50:00	0.2772	13.165	186.7	0.723984195	0.928499084	0.017312489	0.178609758	0.055049262
2019-07-15T18:55:00	0.2761	13.156	186.6	0.720529869	0.923076389	0.017156589	0.177001364	0.054553539
2019-07-15T19:00:00	0.2763	13.148	199.2	0.720946868	0.923730451	0.017175369	0.177195115	0.054613255
2019-07-15T19:05:00	0.2775	13.137	199.1	0.724911536	0.929956628	0.017354470	0.179042863	0.055182749
2019-07-15T19:10:00	0.2757	13.125	199.3	0.719198725	0.920989509	0.017096712	0.176383627	0.054363147
2019-07-15T19:15:00	0.2757	13.111	199.1	0.719293033	0.921137309	0.017100951	0.176427354	0.054376624
2019-07-15T19:20:00	0.2778	13.095	186.3	0.725838646	0.931414561	0.017396494	0.179476418	0.055316375
2019-07-15T19:25:00	0.2761	13.077	186.1	0.720450031	0.922951181	0.017152994	0.176964282	0.054542110
2019-07-15T19:30:00	0.2776	13.060	198.9	0.725382330	0.930696884	0.017375803	0.179262956	0.055250584
2019-07-15T19:35:00	0.2780	13.041	186.1	0.726443305	0.932365829	0.017423931	0.179759483	0.055403618
2019-07-15T19:40:00	0.2766	13.022	186.1	0.722023546	0.925419922	0.017223909	0.177695896	0.054767601
2019-07-15T19:45:00	0.2795	13.002	198.6	0.731461653	0.940273213	0.017652535	0.182117949	0.056130521
2019-07-15T19:50:00	0.2775	12.982	185.9	0.725114283	0.930275394	0.017363655	0.179137628	0.055211957
2019-07-15T19:55:00	0.2777	12.961	198.2	0.725530767	0.930930320	0.017382532	0.179332379	0.055271981
2019-07-15T20:00:00	0.2794	12.940	198.3	0.731100036	0.939702677	0.017636009	0.181947453	0.056077972
2019-07-15T20:05:00	0.2784	12.919	198.2	0.727974442	0.934776091	0.017493511	0.180477332	0.055624867
2019-07-15T20:10:00	0.2783	12.896	198.1	0.727424289	0.933909823	0.017468493	0.180219226	0.055545316
2019-07-15T20:15:00	0.2785	12.874	185.4	0.728162611	0.935072442	0.017502073	0.180565658	0.055652089
2019-07-15T20:20:00	0.2774	12.851	185.3	0.724712175	0.929643219	0.017345440	0.178949706	0.055154037
2019-07-15T20:25:00	0.2782	12.828	197.7	0.727062280	0.933339950	0.017452042	0.180049496	0.055493003
2019-07-15T20:30:00	0.2799	12.806	197.6	0.732629257	0.942116171	0.017705952	0.182669038	0.056300372
2019-07-15T20:35:00	0.2781	12.783	197.5	0.726928319	0.933129098	0.017445956	0.179986709	0.055473652
2019-07-15T20:40:00	0.2799	12.759	197.6	0.732817191	0.942412919	0.017714557	0.182757823	0.056327736
2019-07-15T20:45:00	0.2801	12.736	197.3	0.733232813	0.943069299	0.017733597	0.182954255	0.056388278
2019-07-15T20:50:00	0.2786	12.715	197.2	0.728499089	0.935602445	0.017517387	0.180723655	0.055700786
2019-07-15T20:55:00	0.2789	12.694	197.1	0.729559174	0.937272886	0.017565683	0.181221915	0.055854354
2019-07-15T21:00:00	0.2790	12.673	196.9	0.729653220	0.937421128	0.017569971	0.181266153	0.055867989
2019-07-15T21:05:00	0.2745	12.652	196.8	0.715231337	0.914778890	0.016918913	0.174549310	0.053797792
2019-07-15T21:10:00	0.2761	12.631	184.1	0.720493350	0.923019116	0.017154945	0.176984402	0.054548311
2019-07-15T21:15:00	0.2757	12.609	196.6	0.719296434	0.921142639	0.017101103	0.176428931	0.054377110
2019-07-15T21:20:00	0.2763	12.588	196.8	0.721004618	0.923821045	0.017177971	0.177221957	0.054621528
2019-07-15T21:25:00	0.2779	12.568	196.5	0.726258443	0.932074964	0.017415540	0.179672917	0.055376938
2019-07-15T21:30:00	0.2774	12.547	196.3	0.724741021	0.929688565	0.017346746	0.178963184	0.055158191
2019-07-15T21:35:00	0.2788	12.529	196.2	0.729023662	0.936428924	0.017541277	0.180970123	0.055776749
2019-07-15T21:40:00	0.2776	12.507	196.1	0.725251704	0.930491474	0.017369882	0.179201875	0.055231758
2019-07-15T21:45:00	0.2788	12.489	184.0	0.729211778	0.936725365	0.017549849	0.181058552	0.055804004
2019-07-15T21:50:00	0.2792	12.471	183.4	0.730593547	0.938903762	0.017612876	0.181708794	0.056004415
2019-07-15T21:55:00	0.2805	12.455	196.0	0.734547939	0.945147238	0.017793916	0.183576553	0.056580077
2019-07-15T22:00:00	0.2802	12.440	183.2	0.733677165	0.943771219	0.017753966	0.183164389	0.056453044
2019-07-15T22:05:00	0.2821	12.426	195.7	0.739779805	0.953428810	0.018034962	0.186063376	0.057346540
2019-07-15T22:10:00	0.2814	12.413	196.0	0.737528692	0.949862549	0.017931035	0.184991180	0.057016078
2019-07-15T22:15:00	0.2815	12.400	195.6	0.737847078	0.950366672	0.017945714	0.185142625	0.057062755
2019-07-15T22:20:00	0.2812	12.388	183.0	0.736880338	0.948836241	0.017901162	0.184682987	0.056921090
2019-07-15T22:25:00	0.2827	12.378	182.9	0.741694303	0.956465311	0.018123601	0.186977851	0.057628390
2019-07-15T22:30:00	0.2801	12.367	182.8	0.733338278	0.943235880	0.017738430	0.183004117	0.056403646
2019-07-15T22:35:00	0.2809	12.358	182.8	0.735907597	0.947297138	0.017856393	0.184221110	0.056778735
2019-07-15T22:40:00	0.2801	12.348	182.7	0.733332522	0.943226788	0.017738167	0.183001396	0.056402807
2019-07-15T22:45:00	0.2810	12.338	182.7	0.736223245	0.947796475	0.017870913	0.184370918	0.056824908
2019-07-15T22:50:00	0.2814	12.329	182.7	0.737505694	0.949826139	0.017929975	0.184980244	0.057012708
2019-07-15T22:55:00	0.2814	12.321	182.6	0.737502820	0.949821588	0.017929842	0.184978877	0.057012286
2019-07-15T23:00:00	0.2805	12.313	182.6	0.734607336	0.945241122	0.017796643	0.183604685	0.056588747
2019-07-15T23:05:00	0.2815	12.306	182.6	0.737818333	0.950321155	0.017944389	0.185128950	0.057058540
2019-07-15T23:10:00	0.2801	12.299	195.0	0.733315254	0.943199514	0.017737375	0.182993231	0.056400291
2019-07-15T23:15:00	0.2803	12.291	182.5	0.733955596	0.944211130	0.017766735	0.183296125	0.056493646
2019-07-15T23:20:00	0.2825	12.283	182.5	0.741020825	0.955396769	0.018092393	0.186655886	0.057529157
2019-07-15T23:25:00	0.2821	12.275	182.4	0.739733837	0.953355943	0.018032836	0.186041449	0.057339781
2019-07-15T23:30:00	0.2822	12.267	182.3	0.740052035	0.953860385	0.018047552	0.186193263	0.057386572
2019-07-15T23:35:00	0.2826	12.261	182.3	0.741333169	0.955892285	0.018106863	0.186805169	0.057575167
2019-07-15T23:40:00	0.2817	12.256	182.4	0.738440658	0.951306767	0.017973099	0.185425147	0.057149831
2019-07-15T23:45:00	0.2834	12.249	194.9	0.743894120	0.959958332	0.018225737	0.188031573	0.057953157
2019-07-15T23:50:00	0.2813	12.244	182.4	0.737149905	0.949262905	0.017913579	0.184811091	0.056960573
2019-07-15T23:55:00	0.2817	12.239	182.3	0.738432036	0.951293110	0.017972701	0.185421042	0.057148566
2019-07-16T00:00:00	0.2811	12.235	182.3	0.736501486	0.948236709	0.017883718	0.184503026	0.056865625
2019-07-16T00:05:00	0.2803	12.230	182.3	0.733926821	0.944165664	0.017765415	0.183282509	0.056489449
2019-07-16T00:10:00	0.2825	12.226	182.2	0.740992105	0.955351210	0.018091063	0.186642162	0.057524927
2019-07-16T00:15:00	0.2805	12.222	182.2	0.734564181	0.945172911	0.017794662	0.183584246	0.056582448
2019-07-16T00:20:00	0.2809	12.219	182.1	0.735847201	0.947201606	0.017853615	0.184192453	0.056769903
2019-07-16T00:25:00	0.2815	12.214	182.1	0.737772341	0.950248328	0.017942268	0.185107070	0.057051797
2019-07-16T00:30:00	0.2834	12.212	182.1	0.743868292	0.959917296	0.018224536	0.188019183	0.057949338
2019-07-16T00:35:00	0.2808	12.209	182.1	0.735517140	0.946679579	0.017838439	0.184035887	0.056721648
2019-07-16T00:40:00	0.2808	12.206	182.0	0.735514264	0.946675030	0.017838307	0.184034523	0.056721227
2019-07-16T00:45:00	0.2819	12.203	182.0	0.739045638	0.952265237	0.018001032	0.185713332	0.057238652
2019-07-16T00:50:00	0.2829	12.199	182.0	0.742252819	0.957351757	0.018149504	0.187245083	0.057710753
2019-07-16T00:55:00	0.2825	12.195	181.9	0.740966256	0.955310208	0.018089866	0.186629812	0.057521120
2019-07-16T01:00:00	0.2812	12.191	181.9	0.736788331	0.948690629	0.017896925	0.184639273	0.056907617
2019-07-16T01:05:00	0.2830	12.187	181.9	0.742565061	0.957847450	0.018163993	0.187394569	0.057756826
2019-07-16T01:10:00	0.2812	12.184	181.9	0.736782581	0.948681528	0.017896660	0.184636541	0.056906775
2019-07-16T01:15:00	0.2819	12.180	181.9	0.739028397	0.952237917	0.018000236	0.185705115	0.057236120
2019-07-16T01:20:00	0.2817	12.178	181.9	0.738383178	0.951215718	0.017970446	0.185397779	0.057141396
2019-07-16T01:25:00	0.2809	12.176	181.9	0.735809813	0.947142468	0.017851895	0.184174715	0.056764436
2019-07-16T01:30:00	0.2806	12.173	181.8	0.734842546	0.945612934	0.017807443	0.183716111	0.056623090
2019-07-16T01:35:00	0.2809	12.170	181.8	0.735804061	0.947133370	0.017851631	0.184171986	0.056763595
2019-07-16T01:40:00	0.2819	12.168	181.8	0.739014029	0.952215151	0.017999572	0.185698269	0.057234010
2019-07-16T01:45:00	0.2801	12.166	181.8	0.733226037	0.943058596	0.017733287	0.182951051	0.056387291
2019-07-16T01:50:00	0.2798	12.162	181.8	0.732258098	0.941530199	0.017688962	0.182493761	0.056246350
2019-07-16T01:55:00	0.2803	12.160	194.4	0.733863517	0.944065640	0.017762511	0.183252554	0.056480217
2019-07-16T02:00:00	0.2801	12.158	181.7	0.733217403	0.943044959	0.017732891	0.182946969	0.056386033
2019-07-16T02:05:00	0.2789	12.156	181.7	0.729352768	0.936947563	0.017556274	0.181124843	0.055824436
2019-07-16T02:10:00	0.2796	12.153	181.7	0.731603067	0.940496359	0.017659000	0.182184647	0.056151078
2019-07-16T02:15:00	0.2792	12.152	181.7	0.730312823	0.938461057	0.017600061	0.181576588	0.055963668
2019-07-16T02:20:00	0.2790	12.151	181.7	0.729666092	0.937441419	0.017570558	0.181272209	0.055869855
2019-07-16T02:25:00	0.2788	12.149	181.7	0.729019249	0.936421970	0.017541076	0.180968049	0.055776110
2019-07-16T02:30:00	0.2780	12.144	181.7	0.726439400	0.932359684	0.017423754	0.179757654	0.055403055
2019-07-16T02:35:00	0.2771	12.141	181.6	0.723535286	0.927793783	0.017292186	0.178400300	0.054984705
2019-07-16T02:40:00	0.2776	12.138	181.7	0.725144476	0.930322869	0.017365023	0.179151743	0.055216307
2019-07-16T02:45:00	0.2786	12.135	181.6	0.728363648	0.935389093	0.017511222	0.180660048	0.055681181
2019-07-16T02:50:00	0.2770	12.131	181.6	0.723204129	0.927273602	0.017277218	0.178245869	0.054937108
2019-07-16T02:55:00	0.2775	12.129	181.5	0.724813464	0.929802447	0.017350027	0.178997033	0.055168624
2019-07-16T03:00:00	0.2782	12.126	181.5	0.727066513	0.933346612	0.017452234	0.180051480	0.055493615
2019-07-16T03:05:00	0.2775	12.122	181.5	0.724807694	0.929793378	0.017349766	0.178994337	0.055167793
2019-07-16T03:10:00	0.2771	12.119	181.5	0.723515087	0.927762052	0.017291273	0.178390879	0.054981801
2019-07-16T03:15:00	0.2762	12.116	181.5	0.720608681	0.923199994	0.017160137	0.177037974	0.054564823
2019-07-16T03:20:00	0.2760	12.113	181.4	0.720283039	0.922689309	0.017145478	0.176886732	0.054518209
2019-07-16T03:25:00	0.2769	12.109	181.5	0.723183929	0.927241874	0.017276305	0.178236451	0.054934205
2019-07-16T03:30:00	0.2776	12.106	181.4	0.725437967	0.930784379	0.017378325	0.179288976	0.055258603
2019-07-16T03:35:00	0.2779	12.104	181.4	0.726401917	0.932300706	0.017422052	0.179740100	0.055397645
2019-07-16T03:40:00	0.2788	12.101	181.4	0.729298029	0.936861292	0.017553779	0.181099104	0.055816503
2019-07-16T03:45:00	0.2772	12.099	181.4	0.724139809	0.928743617	0.017319530	0.178682397	0.055071650
2019-07-16T03:50:00	0.2774	12.098	181.4	0.724781734	0.929752566	0.017348590	0.178982206	0.055164054
2019-07-16T03:55:00	0.2797	12.098	181.3	0.732186128	0.941416591	0.017685669	0.182459784	0.056235878
2019-07-16T04:00:00	0.2781	12.097	181.4	0.727031919	0.933292161	0.017450662	0.180035265	0.055488617
2019-07-16T04:05:00	0.2785	12.095	181.4	0.728229224	0.935177359	0.017505104	0.180596930	0.055661728
2019-07-16T04:10:00	0.2788	12.095	181.4	0.729104154	0.936555763	0.017544944	0.181007958	0.055788410
2019-07-16T04:15:00	0.2789	12.094	181.3	0.729334972	0.936919515	0.017555463	0.181116474	0.055821856
2019-07-16T04:20:00	0.2785	12.092	181.3	0.728277704	0.935253720	0.017507310	0.180619693	0.055668744
2019-07-16T04:25:00	0.2780	12.090	181.3	0.726575750	0.932574238	0.017429944	0.179821518	0.055422738
2019-07-16T04:30:00	0.2781	12.088	181.3	0.726806725	0.932937725	0.017440433	0.179929729	0.055456090
2019-07-16T04:35:00	0.2774	12.086	181.3	0.724781734	0.929752566	0.017348590	0.178982206	0.055164054
2019-07-16T04:40:00	0.2789	12.084	181.3	0.729523072	0.937215982	0.017564037	0.181204934	0.055849121
2019-07-16T04:45:00	0.2795	12.084	181.3	0.731363242	0.940117936	0.017648037	0.182071542	0.056116217
2019-07-16T04:50:00	0.2792	12.084	181.3	0.730306552	0.938451168	0.017599775	0.181573636	0.055962758
2019-07-16T04:55:00	0.2802	12.084	181.3	0.733754679	0.943893681	0.017757520	0.183201059	0.056464346
2019-07-16T05:00:00	0.2791	12.083	181.3	0.730124252	0.938163717	0.017591456	0.181487810	0.055936306
2019-07-16T05:05:00	0.2786	12.083	181.2	0.728423143	0.935482811	0.017513930	0.180687988	0.055689793
2019-07-16T05:10:00	0.2798	12.084	181.3	0.732516485	0.941938118	0.017700789	0.182615773	0.056283955
2019-07-16T05:15:00	0.2813	12.081	181.3	0.737247981	0.949418153	0.017918098	0.184857711	0.056974942
2019-07-16T05:20:00	0.2787	12.080	181.2	0.728793664	0.936066527	0.017530801	0.180862038	0.055743437
2019-07-16T05:25:00	0.2782	12.080	181.2	0.727091947	0.933386647	0.017453390	0.180063402	0.055497289
2019-07-16T05:30:00	0.2790	12.078	181.1	0.729899245	0.937808966	0.017581191	0.181381909	0.055903666
2019-07-16T05:35:00	0.2777	12.077	181.1	0.725620497	0.931071442	0.017386601	0.179374353	0.055284918
2019-07-16T05:40:00	0.2787	12.077	181.2	0.728750953	0.935999234	0.017528855	0.180841970	0.055737251
2019-07-16T05:45:00	0.2802	12.077	180.9	0.733808843	0.943979257	0.017760004	0.183226685	0.056472244
2019-07-16T05:50:00	0.2789	12.076	181.2	0.729534596	0.937234146	0.017564563	0.181210354	0.055850791
2019-07-16T05:55:00	0.2779	12.074	181.1	0.726222309	0.932018114	0.017413900	0.179655998	0.055371724
2019-07-16T06:00:00	0.2789	12.073	181.2	0.729352258	0.936946758	0.017556251	0.181124603	0.055824362
2019-07-16T06:05:00	0.2789	12.073	181.2	0.729583060	0.937310536	0.017566772	0.181233150	0.055857817
2019-07-16T06:10:00	0.2792	12.073	181.1	0.730457672	0.938689477	0.017606673	0.181644798	0.055984691
2019-07-16T06:15:00	0.2778	12.070	181.1	0.725857299	0.931443902	0.017397340	0.179485147	0.055319065
2019-07-16T06:20:00	0.2785	12.068	181.1	0.728343476	0.935357318	0.017510304	0.180650576	0.055678262
2019-07-16T06:25:00	0.2785	12.067	181.1	0.728252278	0.935213672	0.017506153	0.180607755	0.055665064
2019-07-16T06:30:00	0.2805	12.064	181.1	0.734597175	0.945225062	0.017796177	0.183599873	0.056587264
2019-07-16T06:35:00	0.2824	12.060	181.1	0.740610288	0.954745606	0.018073384	0.186459768	0.057468712
2019-07-16T06:40:00	0.2786	12.060	181.1	0.728622817	0.935797359	0.017523020	0.180781772	0.055718698
2019-07-16T06:45:00	0.2785	12.057	193.7	0.728209561	0.935146389	0.017504209	0.180587699	0.055658883
2019-07-16T06:50:00	0.2792	12.055	181.1	0.730372287	0.938554827	0.017602775	0.181604588	0.055972298
2019-07-16T06:55:00	0.2772	12.055	181.0	0.723837560	0.928268679	0.017305856	0.178541325	0.055028170
2019-07-16T07:00:00	0.2807	12.054	181.0	0.735336952	0.946394632	0.017830157	0.183950444	0.056695313
2019-07-16T07:05:00	0.1987	11.963	4.6	0.461482379	0.545238279	0.007529770	0.077683252	0.023942733
2019-07-16T07:10:00	0.2039	12.806	1.9	0.479398616	0.569595782	0.008068447	0.083240675	0.025655585
2019-07-16T07:15:00	0.2805	12.125	181.5	0.734742367	0.945454570	0.017802843	0.183668650	0.056608462
2019-07-16T07:20:00	0.2825	12.056	181.4	0.741076228	0.955484657	0.018094959	0.186682361	0.057537317
2019-07-16T07:25:00	0.2794	12.054	193.8	0.731021775	0.939579215	0.017632433	0.181910565	0.056066603
2019-07-16T07:30:00	0.2786	12.054	181.4	0.728355003	0.935375475	0.017510828	0.180655989	0.055679930
2019-07-16T07:35:00	0.2812	12.057	181.4	0.736949670	0.948945971	0.017904355	0.184715930	0.056931244
2019-07-16T07:40:00	0.2803	12.061	181.4	0.733965576	0.944226899	0.017767192	0.183300848	0.056495102
2019-07-16T07:45:00	0.2793	12.063	181.4	0.730657236	0.939004210	0.017615784	0.181738795	0.056013662
2019-07-16T07:50:00	0.2796	12.065	181.5	0.731853373	0.940891374	0.017670446	0.182302735	0.056187474
2019-07-16T07:55:00	0.2810	12.066	193.8	0.736264342	0.947861495	0.017872804	0.184390428	0.056830921
2019-07-16T08:00:00	0.2781	12.067	181.4	0.726841320	0.932992173	0.017442004	0.179945940	0.055461086
2019-07-16T08:05:00	0.2790	12.073	181.5	0.729648808	0.937414173	0.017569770	0.181264078	0.055867349
2019-07-16T08:10:00	0.2793	12.077	181.5	0.730845269	0.939300790	0.017624371	0.181827385	0.056040966
2019-07-16T08:15:00	0.2793	12.075	181.5	0.730754134	0.939157040	0.017620209	0.181784445	0.056027731
2019-07-16T08:20:00	0.2806	12.074	193.9	0.734844913	0.945616676	0.017807552	0.183717233	0.056623435
2019-07-16T08:25:00	0.2794	12.075	193.9	0.731215549	0.939884913	0.017641287	0.182001906	0.056094755
2019-07-16T08:30:00	0.2818	12.076	193.9	0.738840266	0.951939831	0.017991547	0.185615475	0.057208492
2019-07-16T08:35:00	0.2801	12.070	193.8	0.733285455	0.943152445	0.017736010	0.182979142	0.056395949
2019-07-16T08:40:00	0.2791	12.072	181.5	0.729976509	0.937930778	0.017584716	0.181418271	0.055914873
2019-07-16T08:45:00	0.2801	12.073	193.9	0.733424942	0.943372774	0.017742403	0.183045097	0.056416277
2019-07-16T08:50:00	0.2806	12.074	181.5	0.734941702	0.945769691	0.017811998	0.183763095	0.056637571
2019-07-16T08:55:00	0.2814	12.072	193.8	0.737421818	0.949693347	0.017926109	0.184940359	0.057000415
2019-07-16T09:00:00	0.2808	12.071	193.9	0.735724042	0.947006804	0.017847951	0.184134024	0.056751894
2019-07-16T09:05:00	0.2822	12.070	193.9	0.740130434	0.953984687	0.018051178	0.186230678	0.057398104
2019-07-16T09:10:00	0.2814	12.069	193.9	0.737470179	0.949769911	0.017928338	0.184963355	0.057007502
2019-07-16T09:15:00	0.2810	12.070	181.5	0.736093836	0.947591748	0.017864959	0.184309492	0.056805976
2019-07-16T09:20:00	0.2808	12.070	193.9	0.735681410	0.946939377	0.017845991	0.184113801	0.056745661
2019-07-16T09:25:00	0.2796	12.077	193.9	0.731731102	0.940698407	0.017664854	0.182245046	0.056169693
2019-07-16T09:30:00	0.2806	12.087	193.9	0.734856420	0.945634867	0.017808081	0.183722685	0.056625116
2019-07-16T09:35:00	0.2826	12.086	193.9	0.741511032	0.956174494	0.018115106	0.186890207	0.057601377
2019-07-16T09:40:00	0.2805	12.086	181.5	0.734674342	0.945347039	0.017799719	0.183636425	0.056598530
2019-07-16T09:45:00	0.2809	12.086	193.9	0.735869190	0.947236386	0.017854626	0.184202886	0.056773119
2019-07-16T09:50:00	0.2816	12.088	193.9	0.738027472	0.950652342	0.017954034	0.185228462	0.057089211
2019-07-16T09:55:00	0.2807	12.091	194.0	0.735365716	0.946440117	0.017831479	0.183964082	0.056699517
2019-07-16T10:00:00	0.2809	12.100	194.0	0.735917571	0.947312916	0.017856851	0.184225843	0.056780194
2019-07-16T10:05:00	0.2792	12.110	181.7	0.730492234	0.938743982	0.017608251	0.181661075	0.055989708
2019-07-16T10:10:00	0.2803	12.113	181.7	0.734073897	0.944398063	0.017772161	0.183352114	0.056510902
2019-07-16T10:15:00	0.2806	12.121	181.7	0.735081127	0.945990125	0.017818402	0.183829172	0.056657936
2019-07-16T10:20:00	0.2807	12.130	194.2	0.735123766	0.946057541	0.017820361	0.183849381	0.056664165
2019-07-16T10:25:00	0.2815	12.142	181.8	0.737737338	0.950192903	0.017940654	0.185090418	0.057046665
2019-07-16T10:30:00	0.2811	12.151	181.8	0.736494716	0.948225996	0.017883407	0.184499811	0.056864634
2019-07-16T10:35:00	0.2809	12.151	181.9	0.735894564	0.947276522	0.017855793	0.184214926	0.056776829
2019-07-16T10:40:00	0.2811	12.152	181.9	0.736579960	0.948360884	0.017887331	0.184540295	0.056877111
2019-07-16T10:45:00	0.2823	12.152	181.9	0.740476813	0.954533931	0.018067206	0.186396030	0.057449067
2019-07-16T10:50:00	0.2799	12.162	181.9	0.732807026	0.942396868	0.017714092	0.182753020	0.056326256
2019-07-16T10:55:00	0.2817	12.171	181.9	0.738635393	0.951615250	0.017982088	0.185517884	0.057178413
2019-07-16T11:00:00	0.2810	12.181	182.0	0.736107706	0.947613689	0.017865597	0.184316075	0.056808004
2019-07-16T11:05:00	0.2825	12.195	182.1	0.740968110	0.955313149	0.018089952	0.186630697	0.057521393
2019-07-16T11:10:00	0.2812	12.213	182.1	0.736835682	0.948765565	0.017899105	0.184661769	0.056914551
2019-07-16T11:15:00	0.2824	12.229	182.2	0.740732268	0.954939067	0.018079031	0.186518028	0.057486668
2019-07-16T11:20:00	0.2827	12.254	182.3	0.741737702	0.956534182	0.018125613	0.186998609	0.057634787
2019-07-16T11:25:00	0.2810	12.277	182.4	0.736320835	0.947950876	0.017875404	0.184417248	0.056839187
2019-07-16T11:30:00	0.2803	12.293	182.5	0.734113160	0.944460106	0.017773963	0.183370697	0.056516630
2019-07-16T11:35:00	0.2800	12.316	195.0	0.732869329	0.942495250	0.017716945	0.182782458	0.056335329
2019-07-16T11:40:00	0.2819	12.340	182.7	0.739018758	0.952222643	0.017999791	0.185700522	0.057234704
2019-07-16T11:45:00	0.2819	12.372	195.3	0.739061351	0.952290136	0.018001758	0.185720820	0.057240960
2019-07-16T11:50:00	0.2811	12.422	183.1	0.736533953	0.948288083	0.017885213	0.184518445	0.056870377
2019-07-16T11:55:00	0.2812	12.430	183.1	0.736897917	0.948864062	0.017901971	0.184691339	0.056923664
2019-07-16T12:00:00	0.2795	12.452	195.7	0.731474008	0.940292709	0.017653100	0.182123776	0.056132317
2019-07-16T12:05:00	0.2786	12.490	195.9	0.728619424	0.935792015	0.017522866	0.180780178	0.055718207
2019-07-16T12:10:00	0.2793	12.497	183.4	0.730915734	0.939411940	0.017627589	0.181860590	0.056051200
2019-07-16T12:15:00	0.2795	12.511	196.0	0.731280248	0.939986989	0.017644244	0.182032409	0.056104156
2019-07-16T12:20:00	0.2800	12.544	196.2	0.732931630	0.942593635	0.017719799	0.182811898	0.056344402
2019-07-16T12:25:00	0.2808	12.595	196.4	0.735546740	0.946726390	0.017839800	0.184049925	0.056725974
2019-07-16T12:30:00	0.2791	12.631	196.6	0.730120861	0.938158371	0.017591301	0.181486214	0.055935814
2019-07-16T12:35:00	0.2791	12.668	196.8	0.730163556	0.938225690	0.017593250	0.181506313	0.055942008
2019-07-16T12:40:00	0.2796	12.707	197.0	0.731815435	0.940831499	0.017668711	0.182284834	0.056181956
2019-07-16T12:45:00	0.2800	12.726	184.5	0.733144942	0.942930514	0.017729571	0.182912715	0.056375475
2019-07-16T12:50:00	0.2801	12.721	197.1	0.733187602	0.942997892	0.017731526	0.182932882	0.056381691
2019-07-16T12:55:00	0.2800	12.723	197.1	0.732908604	0.942557272	0.017718744	0.182801017	0.056341049
2019-07-16T13:00:00	0.2812	12.738	197.2	0.736809295	0.948723806	0.017897890	0.184649233	0.056910687
2019-07-16T13:05:00	0.2808	12.766	197.4	0.735566363	0.946757425	0.017840702	0.184059232	0.056728843
2019-07-16T13:10:00	0.2801	12.809	185.0	0.733358241	0.943267413	0.017739345	0.183013557	0.056406556
2019-07-16T13:15:00	0.2800	12.839	197.8	0.733079255	0.942826772	0.017726561	0.182881667	0.056365906
2019-07-16T13:20:00	0.2815	12.850	185.2	0.737943607	0.950519531	0.017950166	0.185188554	0.057076911
2019-07-16T13:25:00	0.2797	12.859	185.2	0.732199502	0.941437701	0.017686281	0.182466098	0.056237823
2019-07-16T13:30:00	0.2790	12.870	185.3	0.729667441	0.937443545	0.017570620	0.181272844	0.055870051
2019-07-16T13:35:00	0.2785	12.884	185.4	0.728100047	0.934973906	0.017499226	0.180536288	0.055643037
2019-07-16T13:40:00	0.2803	12.898	198.1	0.733935782	0.944179822	0.017765826	0.183286749	0.056490756
2019-07-16T13:45:00	0.2792	12.903	198.1	0.730439370	0.938660615	0.017605837	0.181636179	0.055982034
2019-07-16T13:50:00	0.2790	12.919	185.5	0.729838241	0.937712794	0.017578409	0.181353203	0.055894818
2019-07-16T13:55:00	0.2802	12.956	185.7	0.733742149	0.943873885	0.017756945	0.183195131	0.056462519
2019-07-16T14:00:00	0.2792	12.993	185.9	0.730567444	0.938862595	0.017611684	0.181696499	0.056000626
2019-07-16T14:05:00	0.2805	13.024	186.1	0.734470587	0.945024978	0.017790365	0.183539920	0.056568786
2019-07-16T14:10:00	0.2794	13.055	186.2	0.730974678	0.939504921	0.017630282	0.181888368	0.056059762
2019-07-16T14:15:00	0.2808	13.074	186.3	0.735520344	0.946684645	0.017838586	0.184037407	0.056722116
2019-07-16T14:20:00	0.2782	13.089	186.4	0.727196053	0.933550522	0.017458120	0.180112207	0.055512331
2019-07-16T14:25:00	0.2803	13.095	186.4	0.733998065	0.944278236	0.017768683	0.183316224	0.056499841
2019-07-16T14:30:00	0.2786	13.092	186.4	0.728569926	0.935714037	0.017520612	0.180756927	0.055711041
2019-07-16T14:35:00	0.2791	13.083	186.4	0.730222513	0.938318652	0.017595940	0.181534068	0.055950563
2019-07-16T14:40:00	0.2790	13.073	186.4	0.729943292	0.937878408	0.017583200	0.181402638	0.055910055
2019-07-16T14:45:00	0.2799	13.074	186.4	0.732560501	0.942007612	0.017702804	0.182636562	0.056290362
2019-07-16T14:50:00	0.2800	13.072	186.4	0.732924854	0.942582933	0.017719488	0.182808696	0.056343415
2019-07-16T14:55:00	0.2802	13.062	186.4	0.733610796	0.943666368	0.017750923	0.183132995	0.056443368
2019-07-16T15:00:00	0.2789	13.061	186.4	0.729470195	0.937132639	0.017561627	0.181180065	0.055841456
2019-07-16T15:05:00	0.2784	13.067	186.4	0.727902718	0.934663139	0.017490249	0.180443671	0.055614492
2019-07-16T15:10:00	0.2789	13.075	186.5	0.729555600	0.937267254	0.017565520	0.181220234	0.055853836
2019-07-16T15:15:00	0.2784	13.080	186.5	0.727988159	0.934797693	0.017494135	0.180483770	0.055626851
2019-07-16T15:20:00	0.2798	13.083	186.5	0.732215754	0.941463357	0.017687024	0.182473770	0.056240188
2019-07-16T15:25:00	0.2798	13.094	186.5	0.732258426	0.941530717	0.017688977	0.182493916	0.056246397
2019-07-16T15:30:00	0.2799	13.093	186.5	0.732622808	0.942105988	0.017705656	0.182665992	0.056299433
2019-07-16T15:35:00	0.2790	13.089	186.6	0.729769106	0.937603805	0.017575256	0.181320673	0.055884792
2019-07-16T15:40:00	0.2757	13.088	186.6	0.719172542	0.920948477	0.017095535	0.176371487	0.054359405
2019-07-16T15:45:00	0.2768	13.079	186.5	0.722765135	0.926584178	0.017257385	0.178041258	0.054874045
2019-07-16T15:50:00	0.2757	13.070	186.5	0.719258184	0.921082693	0.017099384	0.176411195	0.054371644
2019-07-16T15:55:00	0.2775	13.073	186.5	0.725107820	0.930265233	0.017363362	0.179134607	0.055211026
2019-07-16T16:00:00	0.2744	13.080	186.6	0.714821162	0.914137579	0.016900588	0.174360247	0.053739521
2019-07-16T16:05:00	0.2767	13.078	186.6	0.722482467	0.926140347	0.017244621	0.177909576	0.054833459
2019-07-16T16:10:00	0.2766	13.075	186.6	0.722071414	0.925495057	0.017226069	0.177718177	0.054774468
2019-07-16T16:15:00	0.2760	13.083	186.6	0.720046723	0.922318765	0.017134843	0.176777020	0.054484394
2019-07-16T16:20:00	0.2758	13.084	186.6	0.719635399	0.921673928	0.017116342	0.176586145	0.054425565
2019-07-16T16:25:00	0.2749	13.076	186.7	0.716640245	0.916982844	0.016981940	0.175199549	0.053998203
2019-07-16T16:30:00	0.2763	13.073	186.7	0.721072200	0.923927064	0.017181016	0.177253371	0.054631210
2019-07-16T16:35:00	0.2765	13.073	186.7	0.721629069	0.924800811	0.017206116	0.177512331	0.054711024
2019-07-16T16:40:00	0.2745	13.068	186.7	0.715405000	0.915050457	0.016926675	0.174629389	0.053822474
2019-07-16T16:45:00	0.2746	13.059	186.6	0.715639564	0.915417300	0.016937162	0.174737582	0.053855820
2019-07-16T16:50:00	0.2734	13.054	186.6	0.711670735	0.909216760	0.016760185	0.172911741	0.053293078
2019-07-16T16:55:00	0.2729	13.047	186.6	0.709964024	0.906554573	0.016684383	0.172129706	0.053052047
2019-07-16T17:00:00	0.2725	13.039	186.6	0.708904106	0.904902556	0.016637400	0.171644986	0.052902652
2019-07-16T17:05:00	0.2712	13.035	186.6	0.704603894	0.898210156	0.016447503	0.169685852	0.052298827
2019-07-16T17:10:00	0.2717	13.030	186.6	0.706135401	0.900591787	0.016515001	0.170382224	0.052513456
2019-07-16T17:15:00	0.2720	13.022	186.6	0.707342384	0.902470193	0.016568301	0.170932102	0.052682934
2019-07-16T17:20:00	0.2708	13.017	186.5	0.703364612	0.896284454	0.016392990	0.169123459	0.052125492
2019-07-16T17:25:00	0.2697	13.012	186.5	0.699707123	0.890608918	0.016232667	0.167469432	0.051615706
2019-07-16T17:30:00	0.2702	13.002	186.5	0.701240669	0.892987194	0.016299787	0.168161900	0.051829131
2019-07-16T17:35:00	0.2695	12.995	186.5	0.699204513	0.889829896	0.016210701	0.167242809	0.051545858
2019-07-16T17:40:00	0.2697	12.989	186.5	0.699764692	0.890698161	0.016235184	0.167495400	0.051623709
2019-07-16T17:45:00	0.2701	12.982	186.4	0.700973767	0.892573126	0.016288095	0.168041273	0.051791952
2019-07-16T17:50:00	0.2692	12.973	186.4	0.697963409	0.887907186	0.016156526	0.166683900	0.051373597
2019-07-16T17:55:00	0.2682	12.960	186.4	0.694950581	0.883245289	0.016025414	0.165331240	0.050956694
2019-07-16T18:00:00	0.2703	12.949	186.3	0.701680172	0.893669167	0.016319050	0.168360635	0.051890383
2019-07-16T18:05:00	0.2703	12.939	186.3	0.701591218	0.893531124	0.016315151	0.168320402	0.051877983
2019-07-16T18:10:00	0.2697	12.931	186.3	0.699879828	0.890876652	0.016240219	0.167547341	0.051639718
2019-07-16T18:15:00	0.2687	12.923	186.2	0.696543734	0.885709473	0.016094674	0.166045787	0.051176924
2019-07-16T18:20:00	0.2676	12.917	186.2	0.692879442	0.880045077	0.015935609	0.164404745	0.050671139
2019-07-16T18:25:00	0.2669	12.911	186.2	0.690513265	0.876393536	0.015833338	0.163349632	0.050345943
2019-07-16T18:30:00	0.2685	12.905	186.2	0.695951600	0.884793341	0.016068913	0.165780018	0.051095012
2019-07-16T18:35:00	0.2684	12.899	186.2	0.695537578	0.884152961	0.016050914	0.165594325	0.051037779
2019-07-16T18:40:00	0.2695	12.893	186.2	0.699021187	0.889545805	0.016202692	0.167160189	0.051520394
2019-07-16T18:45:00	0.2695	12.888	186.1	0.698932168	0.889407867	0.016198804	0.167120079	0.051508031
2019-07-16T18:50:00	0.2686	12.882	186.1	0.696245030	0.885247288	0.016081676	0.165911691	0.051135594
2019-07-16T18:55:00	0.2693	12.875	186.1	0.698429452	0.888629019	0.016176858	0.166893658	0.051438246
2019-07-16T19:00:00	0.2693	12.868	186.1	0.698340418	0.888491104	0.016172972	0.166853575	0.051425892
2019-07-16T19:05:00	0.2708	12.862	186.1	0.703442947	0.896406138	0.016396433	0.169158978	0.052136440
2019-07-16T19:10:00	0.2687	12.855	186.0	0.696538436	0.885701274	0.016094444	0.166043408	0.051176191
2019-07-16T19:15:00	0.2693	12.848	186.0	0.698398009	0.888580313	0.016175485	0.166879502	0.051433883
2019-07-16T19:20:00	0.2705	12.841	186.0	0.702203274	0.894481079	0.016341994	0.168597334	0.051963336
2019-07-16T19:25:00	0.2709	12.834	198.6	0.703735780	0.896861065	0.016409307	0.169291793	0.052177375
2019-07-16T19:30:00	0.2714	12.827	185.9	0.705267647	0.899242101	0.016476738	0.169987473	0.052391790
2019-07-16T19:35:00	0.2698	12.820	185.9	0.699989667	0.891046942	0.016245022	0.167596900	0.051654992
2019-07-16T19:40:00	0.2724	12.813	185.9	0.708329472	0.904007323	0.016611957	0.171382498	0.052821750
2019-07-16T19:45:00	0.2718	12.806	185.9	0.706621214	0.901347696	0.016536443	0.170603438	0.052581637
2019-07-16T19:50:00	0.2728	12.799	185.8	0.709770674	0.906253140	0.016675807	0.172041229	0.053024778
2019-07-16T19:55:00	0.2696	12.792	198.4	0.699309077	0.889991948	0.016215269	0.167289943	0.051560385
2019-07-16T20:00:00	0.2720	12.784	185.8	0.707326536	0.902445521	0.016567600	0.170924876	0.052680707
2019-07-16T20:05:00	0.2718	12.778	185.7	0.706589841	0.901298875	0.016535058	0.170589148	0.052577232
2019-07-16T20:10:00	0.2711	12.771	185.7	0.704232484	0.897632887	0.016431155	0.169517200	0.052246847
2019-07-16T20:15:00	0.2703	12.765	185.7	0.701549220	0.893465952	0.016313310	0.168301408	0.051872129
2019-07-16T20:20:00	0.2703	12.758	185.6	0.701784666	0.893831335	0.016323632	0.168407904	0.051904952
2019-07-16T20:25:00	0.2701	12.752	185.6	0.701046861	0.892686517	0.016291297	0.168074304	0.051802133
2019-07-16T20:30:00	0.2706	12.746	198.2	0.702579848	0.895065711	0.016358520	0.168767840	0.052015887
2019-07-16T20:35:00	0.2700	12.741	185.6	0.700544434	0.891907195	0.016269296	0.167847330	0.051732177
2019-07-16T20:40:00	0.2700	12.734	198.2	0.700779945	0.892272472	0.016279607	0.167953703	0.051764962
2019-07-16T20:45:00	0.2716	12.728	198.1	0.705879093	0.900193063	0.016503695	0.170265576	0.052477504
2019-07-16T20:50:00	0.2712	12.723	185.5	0.704493863	0.898039126	0.016442659	0.169635879	0.052283425
2019-07-16T20:55:00	0.2708	12.718	198.1	0.703432370	0.896389708	0.016395968	0.169154182	0.052134962
2019-07-16T21:00:00	0.2710	12.712	185.5	0.703991906	0.897259030	0.016420571	0.169408005	0.052213192
2019-07-16T21:05:00	0.2724	12.707	185.4	0.708439059	0.904178028	0.016616808	0.171432540	0.052837174
2019-07-16T21:10:00	0.2727	12.702	185.4	0.709321576	0.905553119	0.016655897	0.171835816	0.052961467
2019-07-16T21:15:00	0.2704	12.697	197.9	0.702103752	0.894326591	0.016337627	0.168552288	0.051949452
2019-07-16T21:20:00	0.2730	12.691	185.3	0.710438776	0.907294853	0.016705451	0.172347054	0.053119036
2019-07-16T21:25:00	0.2744	12.682	197.8	0.714878166	0.914226696	0.016903134	0.174386515	0.053747618
2019-07-16T21:30:00	0.2723	12.673	197.8	0.708318909	0.903990870	0.016611490	0.171377675	0.052820264
2019-07-16T21:35:00	0.2721	12.665	197.8	0.707582413	0.902843897	0.016578911	0.171041566	0.052716672
2019-07-16T21:40:00	0.2737	12.655	197.8	0.712672161	0.910780002	0.016804747	0.173371482	0.053434774
2019-07-16T21:45:00	0.2746	12.644	197.6	0.715493293	0.915188535	0.016930622	0.174670110	0.053835024
2019-07-16T21:50:00	0.2749	12.632	185.0	0.716697221	0.917072008	0.016984492	0.175225872	0.054006316
2019-07-16T21:55:00	0.2731	12.621	185.0	0.710788450	0.907840225	0.016720977	0.172507233	0.053168404
2019-07-16T22:00:00	0.2746	12.608	197.5	0.715550616	0.915278185	0.016933185	0.174696551	0.053843174
2019-07-16T22:05:00	0.2744	12.594	197.4	0.714809776	0.914119778	0.016900079	0.174355000	0.053737904
2019-07-16T22:10:00	0.2732	12.580	197.3	0.711157844	0.908416469	0.016737386	0.172676531	0.053220584
2019-07-16T22:15:00	0.2739	12.564	197.2	0.713327651	0.911803706	0.016833950	0.173672759	0.053527631
2019-07-16T22:20:00	0.2749	12.549	197.2	0.716465615	0.916709577	0.016974122	0.175118885	0.053973341
2019-07-16T22:25:00	0.2738	12.533	197.1	0.713138727	0.911508617	0.016825531	0.173585897	0.053500859
2019-07-16T22:30:00	0.2737	12.516	197.0	0.712720846	0.910856023	0.016806916	0.173393849	0.053441668
2019-07-16T22:35:00	0.2764	12.501	184.3	0.721348873	0.924361139	0.017193484	0.177382006	0.054670857
2019-07-16T22:40:00	0.2744	12.483	196.8	0.714795314	0.914097170	0.016899433	0.174348336	0.053735851
2019-07-16T22:45:00	0.2760	12.467	196.8	0.720192156	0.922546798	0.017141387	0.176844535	0.054505203
2019-07-16T22:50:00	0.2759	12.451	196.6	0.719775071	0.921892877	0.017122623	0.176650948	0.054445538
2019-07-16T22:55:00	0.2753	12.433	196.6	0.717743344	0.918709633	0.017031374	0.175709549	0.054155390
2019-07-16T23:00:00	0.2748	12.416	196.5	0.716356779	0.916539279	0.016969250	0.175068621	0.053957849
2019-07-16T23:05:00	0.2751	12.400	196.4	0.717231625	0.917908457	0.017008433	0.175472866	0.054082442
2019-07-16T23:10:00	0.2748	12.384	196.3	0.716168009	0.916243933	0.016960801	0.174981460	0.053930985
2019-07-16T23:15:00	0.2750	12.367	196.2	0.717042900	0.917613036	0.016999976	0.175385619	0.054055551
2019-07-16T23:20:00	0.2742	12.350	196.1	0.714363158	0.913421660	0.016880137	0.174149267	0.053674495
2019-07-16T23:25:00	0.2750	12.333	196.1	0.716854165	0.917317632	0.016991521	0.175298390	0.054028666
2019-07-16T23:30:00	0.2744	12.317	195.9	0.714820833	0.914137064	0.016900573	0.174360095	0.053739475
2019-07-16T23:35:00	0.2758	12.301	195.9	0.719572033	0.921574601	0.017113493	0.176556750	0.054416505
2019-07-16T23:40:00	0.2766	12.287	195.8	0.722059538	0.925476416	0.017225533	0.177712649	0.054772764
2019-07-16T23:45:00	0.2761	12.275	183.2	0.720351840	0.922797198	0.017148574	0.176918681	0.054528056
2019-07-16T23:50:00	0.2769	12.263	183.1	0.723161354	0.927206417	0.017275285	0.178225926	0.054930961
2019-07-16T23:55:00	0.2765	12.253	183.1	0.721776816	0.925032675	0.017212779	0.177581071	0.054732211
2019-07-17T00:00:00	0.2757	12.243	183.0	0.719100501	0.920835581	0.017092298	0.176338090	0.054349112
2019-07-17T00:05:00	0.2777	12.235	183.0	0.725458155	0.930816127	0.017379240	0.179298417	0.055261514
2019-07-17T00:10:00	0.2778	12.227	182.9	0.726008600	0.931681905	0.017404203	0.179555956	0.055340890
2019-07-17T00:15:00	0.2782	12.219	182.9	0.727203351	0.933562010	0.017458452	0.180115628	0.055513386
2019-07-17T00:20:00	0.2766	12.213	195.4	0.721950866	0.925305844	0.017220630	0.177662067	0.054757175
2019-07-17T00:25:00	0.2756	12.207	182.8	0.718951806	0.920602578	0.017085618	0.176269167	0.054327869
2019-07-17T00:30:00	0.2762	12.202	182.8	0.720794337	0.923491189	0.017168498	0.177124231	0.054591408
2019-07-17T00:35:00	0.2756	12.197	182.8	0.718763169	0.920307011	0.017077144	0.176181750	0.054300926
2019-07-17T00:40:00	0.2761	12.193	182.7	0.720605793	0.923195465	0.017160007	0.177036633	0.054564410
2019-07-17T00:45:00	0.2744	12.190	182.7	0.715020728	0.914449582	0.016909502	0.174452219	0.053767868
2019-07-17T00:50:00	0.2748	12.187	182.7	0.716219027	0.916323751	0.016963084	0.175005014	0.053938245
2019-07-17T00:55:00	0.2746	12.184	182.7	0.715478321	0.915165121	0.016929953	0.174663205	0.053832896
2019-07-17T01:00:00	0.2758	12.183	182.7	0.719583075	0.921591910	0.017113989	0.176561872	0.054418084
2019-07-17T01:05:00	0.2764	12.181	182.7	0.721425292	0.924481046	0.017196929	0.177417545	0.054681811
2019-07-17T01:10:00	0.2763	12.180	182.6	0.721008347	0.923826893	0.017178139	0.177223690	0.054622062
2019-07-17T01:15:00	0.2748	12.179	182.6	0.716393338	0.916596483	0.016970886	0.175085504	0.053963053
2019-07-17T01:20:00	0.2755	12.177	182.6	0.718560075	0.919988827	0.017068024	0.176087659	0.054271927
2019-07-17T01:25:00	0.2763	12.177	182.6	0.721048260	0.923889507	0.017179937	0.177242242	0.054627780
2019-07-17T01:30:00	0.2751	12.177	182.6	0.717079453	0.917670252	0.017001614	0.175402516	0.054060759
2019-07-17T01:35:00	0.2759	12.177	195.1	0.719891449	0.922075323	0.017127858	0.176704952	0.054462182
2019-07-17T01:40:00	0.2760	12.176	182.6	0.720119952	0.922433583	0.017138138	0.176811014	0.054494872
2019-07-17T01:45:00	0.2756	12.176	182.6	0.718734276	0.920261743	0.017075847	0.176168363	0.054296800
2019-07-17T01:50:00	0.2752	12.176	182.6	0.717671092	0.918596498	0.017028134	0.175676121	0.054145087
2019-07-17T01:55:00	0.2756	12.176	182.6	0.718868534	0.920472097	0.017081877	0.176230574	0.054315974
2019-07-17T02:00:00	0.2756	12.177	182.6	0.718774214	0.920324316	0.017077640	0.176186868	0.054302504
2019-07-17T02:05:00	0.2775	12.178	182.6	0.724810068	0.929797109	0.017349873	0.178995446	0.055168135
2019-07-17T02:10:00	0.2760	12.178	182.6	0.720199796	0.922558779	0.017141731	0.176848082	0.054506296
2019-07-17T02:15:00	0.2764	12.179	182.6	0.721396420	0.924435743	0.017195627	0.177404118	0.054677672
2019-07-17T02:20:00	0.2753	12.181	182.6	0.717750990	0.918721606	0.017031717	0.175713087	0.054156480
2019-07-17T02:25:00	0.2774	12.181	182.6	0.724755772	0.929711754	0.017347414	0.178970076	0.055160316
2019-07-17T02:30:00	0.2753	12.181	195.0	0.717885283	0.918931901	0.017037741	0.175775230	0.054175633
2019-07-17T02:35:00	0.2746	12.180	195.1	0.715529348	0.915244924	0.016932234	0.174686741	0.053840150
2019-07-17T02:40:00	0.2751	12.180	182.6	0.717373583	0.918130692	0.017014796	0.175538509	0.054102673
2019-07-17T02:45:00	0.2755	12.181	182.5	0.718571121	0.920006131	0.017068520	0.176092776	0.054273504
2019-07-17T02:50:00	0.2747	12.182	182.9	0.715892486	0.915812909	0.016948474	0.174854283	0.053891788
2019-07-17T02:55:00	0.2757	12.182	182.5	0.719028275	0.920722402	0.017089053	0.176304610	0.054338793
2019-07-17T03:00:00	0.2765	12.183	182.5	0.721838792	0.925129943	0.017215575	0.177609910	0.054741099
2019-07-17T03:05:00	0.2776	12.185	195.0	0.725291900	0.930554681	0.017371704	0.179220669	0.055237551
2019-07-17T03:10:00	0.2770	12.185	195.0	0.723263196	0.927366377	0.017279887	0.178273409	0.054945596
2019-07-17T03:15:00	0.2751	12.186	195.0	0.717359132	0.918108067	0.017014148	0.175531826	0.054100613
2019-07-17T03:20:00	0.2769	12.187	182.5	0.723074778	0.927070443	0.017271373	0.178185567	0.054918522
2019-07-17T03:25:00	0.2773	12.189	182.5	0.724270474	0.928948962	0.017325443	0.178743402	0.055090452
2019-07-17T03:30:00	0.2771	12.191	182.5	0.723531377	0.927787643	0.017292010	0.178398477	0.054984143
2019-07-17T03:35:00	0.2761	12.192	182.5	0.720533597	0.923082236	0.017156757	0.177003096	0.054554073
2019-07-17T03:40:00	0.2759	12.194	195.0	0.719793755	0.921922167	0.017123464	0.176659617	0.054448210
2019-07-17T03:45:00	0.2759	12.196	182.5	0.719699459	0.921774345	0.017119223	0.176615865	0.054434725
2019-07-17T03:50:00	0.2772	12.198	182.5	0.724121987	0.928715611	0.017318723	0.178674077	0.055069086
2019-07-17T03:55:00	0.2750	12.200	182.5	0.716927275	0.917432058	0.016994796	0.175332177	0.054039080
2019-07-17T04:00:00	0.2761	12.201	182.6	0.720384961	0.922849136	0.017150065	0.176934062	0.054532796
2019-07-17T04:05:00	0.2767	12.203	182.6	0.722318124	0.925882336	0.017237202	0.177833040	0.054809870
2019-07-17T04:10:00	0.2744	12.205	182.6	0.714888198	0.914242379	0.016903582	0.174391138	0.053749042
2019-07-17T04:15:00	0.2757	12.208	182.6	0.719085032	0.920811341	0.017091603	0.176330919	0.054346902
2019-07-17T04:20:00	0.2766	12.210	195.0	0.721986859	0.925362338	0.017222254	0.177678820	0.054762338
2019-07-17T04:25:00	0.2746	12.213	182.6	0.715525944	0.915239600	0.016932082	0.174685171	0.053839666
2019-07-17T04:30:00	0.2765	12.216	195.1	0.721658451	0.924846919	0.017207441	0.177526000	0.054715237
2019-07-17T04:35:00	0.2765	12.219	182.6	0.721655564	0.924842389	0.017207311	0.177524657	0.054714823
2019-07-17T04:40:00	0.2767	12.220	182.6	0.722297919	0.925850616	0.017236290	0.177823631	0.054806970
2019-07-17T04:45:00	0.2757	12.223	182.6	0.719067698	0.920784178	0.017090824	0.176322884	0.054344425
2019-07-17T04:50:00	0.2750	12.228	182.6	0.716803998	0.917239116	0.016989274	0.175275208	0.054021521
2019-07-17T04:55:00	0.2761	12.231	182.6	0.720353193	0.922799319	0.017148635	0.176919309	0.054528249
2019-07-17T05:00:00	0.2755	12.235	182.6	0.718413225	0.919758781	0.017061431	0.176019642	0.054250963
2019-07-17T05:05:00	0.2764	12.241	195.1	0.721315578	0.924308899	0.017191983	0.177366524	0.054666085
2019-07-17T05:10:00	0.2764	12.247	195.1	0.721312691	0.924304369	0.017191853	0.177365181	0.054665671
2019-07-17T05:15:00	0.2762	12.253	195.2	0.720664390	0.923287368	0.017162646	0.177063855	0.054572800
2019-07-17T05:20:00	0.2751	12.260	182.7	0.717109712	0.917717617	0.017002970	0.175416504	0.054065070
2019-07-17T05:25:00	0.2767	12.266	182.7	0.722271940	0.925809834	0.017235118	0.177811535	0.054803242
2019-07-17T05:30:00	0.2771	12.269	195.2	0.723559210	0.927831367	0.017293268	0.178411460	0.054988145
2019-07-17T05:35:00	0.2764	12.276	182.7	0.721298254	0.924281718	0.017191203	0.177358468	0.054663602
2019-07-17T05:40:00	0.2759	12.281	195.2	0.719681616	0.921746375	0.017118420	0.176607587	0.054432173
2019-07-17T05:45:00	0.2776	12.287	182.5	0.725162622	0.930351400	0.017365845	0.179160226	0.055218922
2019-07-17T05:50:00	0.2770	12.292	182.8	0.723225170	0.927306650	0.017278168	0.178255679	0.054940131
2019-07-17T05:55:00	0.2772	12.302	182.8	0.723867253	0.928315333	0.017307199	0.178555181	0.055032441
2019-07-17T06:00:00	0.2782	12.307	195.3	0.727087531	0.933379697	0.017453189	0.180061333	0.055496651
2019-07-17T06:05:00	0.2798	12.316	195.4	0.732235906	0.941495167	0.017687947	0.182483284	0.056243120
2019-07-17T06:10:00	0.2776	12.323	182.9	0.725148200	0.930328724	0.017365192	0.179153484	0.055216844
2019-07-17T06:15:00	0.2774	12.330	195.4	0.724500570	0.929310600	0.017335859	0.178850856	0.055123571
2019-07-17T06:20:00	0.2783	12.340	182.9	0.727398164	0.933868693	0.017467306	0.180206975	0.055541540
2019-07-17T06:25:00	0.2773	12.351	195.5	0.724172385	0.928794809	0.017321004	0.178697605	0.055076337
2019-07-17T06:30:00	0.2793	12.359	183.0	0.730612504	0.938933661	0.017613741	0.181717724	0.056007167
2019-07-17T06:35:00	0.2795	12.367	195.6	0.731253311	0.939944490	0.017643013	0.182019709	0.056100242
2019-07-17T06:40:00	0.2796	12.377	183.1	0.731572234	0.940447703	0.017657590	0.182170103	0.056146595
2019-07-17T06:45:00	0.2786	12.384	195.6	0.728350078	0.935367718	0.017510604	0.180653676	0.055679217
2019-07-17T06:50:00	0.2778	12.385	195.7	0.725769764	0.931306214	0.017393370	0.179444187	0.055306441
2019-07-17T06:55:00	0.2765	12.396	195.7	0.721574727	0.924715534	0.017203666	0.177487052	0.054703233
2019-07-17T07:00:00	0.2784	12.415	195.8	0.728019351	0.934846816	0.017495554	0.180498410	0.055631363
2019-07-17T07:05:00	0.2792	12.426	195.9	0.730592344	0.938901865	0.017612821	0.181708227	0.056004240
2019-07-17T07:10:00	0.2777	12.433	195.9	0.725758229	0.931288071	0.017392846	0.179438790	0.055304778
2019-07-17T07:15:00	0.2785	12.442	195.9	0.728332787	0.935340483	0.017509817	0.180645557	0.055676715
2019-07-17T07:20:00	0.2774	12.462	196.0	0.724785458	0.929758421	0.017348759	0.178983947	0.055164591
2019-07-17T07:25:00	0.2795	12.464	196.0	0.731546320	0.940406812	0.017656406	0.182157881	0.056142828
2019-07-17T07:30:00	0.2780	12.473	196.0	0.726713446	0.932790926	0.017436196	0.179886024	0.055442620
2019-07-17T07:35:00	0.2785	12.482	196.1	0.728321260	0.935322326	0.017509293	0.180640144	0.055675047
2019-07-17T07:40:00	0.2793	12.489	196.1	0.730894044	0.939377726	0.017626599	0.181850369	0.056048050
2019-07-17T07:45:00	0.2788	12.502	196.1	0.729281581	0.936835371	0.017553030	0.181091370	0.055814119
2019-07-17T07:50:00	0.2789	12.534	196.2	0.729600673	0.937338298	0.017567575	0.181241435	0.055860370
2019-07-17T07:55:00	0.2795	12.571	196.5	0.731529044	0.940379551	0.017655616	0.182149733	0.056140317
2019-07-17T08:00:00	0.2791	12.550	196.3	0.730238774	0.938344292	0.017596682	0.181541724	0.055952922
2019-07-17T08:05:00	0.2773	12.551	183.8	0.724437104	0.929210847	0.017332985	0.178821215	0.055114435
2019-07-17T08:10:00	0.2793	12.565	196.4	0.730876765	0.939350471	0.017625809	0.181842226	0.056045540
2019-07-17T08:15:00	0.2789	12.592	184.0	0.729586269	0.937315594	0.017566918	0.181234659	0.055858282
2019-07-17T08:20:00	0.2778	12.628	196.7	0.726040137	0.931731517	0.017405634	0.179570718	0.055345439
2019-07-17T08:25:00	0.2784	12.624	196.7	0.727970356	0.934769656	0.017493326	0.180475415	0.055624276
2019-07-17T08:30:00	0.2796	12.626	196.7	0.731830668	0.940855541	0.017669408	0.182292022	0.056184172
2019-07-17T08:35:00	0.2782	12.652	196.9	0.727320335	0.933746167	0.017463768	0.180170478	0.055530291
2019-07-17T08:40:00	0.2784	12.689	184.5	0.727961710	0.934756040	0.017492932	0.180471357	0.055623025
2019-07-17T08:45:00	0.2767	12.729	184.7	0.722479069	0.926135012	0.017244468	0.177907993	0.054832971
2019-07-17T08:50:00	0.2755	12.768	184.8	0.718603233	0.920056439	0.017069962	0.176107651	0.054278089
2019-07-17T08:55:00	0.2765	12.757	184.8	0.721828085	0.925113139	0.017215092	0.177604928	0.054739564
2019-07-17T09:00:00	0.2764	12.761	184.8	0.721502550	0.924602274	0.017200412	0.177453478	0.054692885
2019-07-17T09:05:00	0.2778	12.831	185.1	0.726014184	0.931690691	0.017404457	0.179558570	0.055341695
2019-07-17T09:10:00	0.2763	12.910	185.4	0.721174100	0.924086928	0.017185607	0.177300742	0.054645811
2019-07-17T09:15:00	0.2753	12.970	185.7	0.717942898	0.919022128	0.017040325	0.175801894	0.054183851
2019-07-17T09:20:00	0.2764	12.923	185.5	0.721491002	0.924584153	0.017199891	0.177448107	0.054691230
2019-07-17T09:25:00	0.2770	12.952	185.7	0.723423589	0.927618318	0.017287137	0.178348203	0.054968648
2019-07-17T09:30:00	0.2750	13.003	185.9	0.716965182	0.917491391	0.016996494	0.175349697	0.054044480
2019-07-17T09:35:00	0.2749	13.044	186.2	0.716639220	0.916981240	0.016981895	0.175199076	0.053998057
2019-07-17T09:40:00	0.2752	13.075	186.2	0.717605461	0.918493733	0.017025191	0.175645758	0.054135729
2019-07-17T09:45:00	0.2771	13.070	186.3	0.723734528	0.928106799	0.017301196	0.178493249	0.055013353
2019-07-17T09:50:00	0.2769	13.074	186.3	0.723086650	0.927089089	0.017271909	0.178191101	0.054920228
2019-07-17T09:55:00	0.2769	13.116	186.5	0.723083765	0.927084557	0.017271779	0.178189756	0.054919813
2019-07-17T10:00:00	0.2762	13.179	186.8	0.720822519	0.923535394	0.017169768	0.177137327	0.054595444
2019-07-17T10:05:00	0.2761	13.217	187.0	0.720494008	0.923020148	0.017154974	0.176984707	0.054548406
2019-07-17T10:10:00	0.2762	13.195	186.8	0.720810968	0.923517276	0.017169247	0.177131960	0.054593790
2019-07-17T10:15:00	0.2759	13.162	186.7	0.719836898	0.921989802	0.017125404	0.176679637	0.054454380
2019-07-17T10:20:00	0.2749	13.153	186.7	0.716601638	0.916922429	0.016980212	0.175181714	0.053992706
2019-07-17T10:25:00	0.2739	13.206	187.0	0.713363545	0.911859773	0.016835550	0.173689265	0.053532718
2019-07-17T10:30:00	0.2763	13.257	187.2	0.721110577	0.923987270	0.017182745	0.177271211	0.054636709
2019-07-17T10:35:00	0.2757	13.276	187.3	0.719168117	0.920941542	0.017095337	0.176369436	0.054358773
2019-07-17T10:40:00	0.2769	13.254	187.2	0.723034704	0.927007506	0.017269562	0.178166887	0.054912765
2019-07-17T10:45:00	0.2746	13.250	187.2	0.715603326	0.915360623	0.016935542	0.174720865	0.053850668
2019-07-17T10:50:00	0.2749	13.276	187.3	0.716566947	0.916868141	0.016978658	0.175165689	0.053987767
2019-07-17T10:55:00	0.2748	13.304	200.3	0.716238058	0.916353526	0.016963936	0.175013801	0.053940953
2019-07-17T11:00:00	0.2759	13.305	187.5	0.719784907	0.921908296	0.017123066	0.176655512	0.054446944
2019-07-17T11:05:00	0.2741	13.311	187.5	0.713963946	0.912797790	0.016862323	0.173965480	0.053617850
2019-07-17T11:10:00	0.2758	13.334	187.6	0.719450526	0.921384148	0.017108030	0.176500391	0.054399135
2019-07-17T11:15:00	0.2757	13.350	187.7	0.719121894	0.920869106	0.017093259	0.176348007	0.054352168
2019-07-17T11:20:00	0.2747	13.369	187.8	0.715886008	0.915802775	0.016948184	0.174851294	0.053890867
2019-07-17T11:25:00	0.2752	13.393	187.9	0.717495634	0.918321775	0.017020267	0.175594956	0.054120071
2019-07-17T11:30:00	0.2742	13.435	188.1	0.714258324	0.913257817	0.016875458	0.174100994	0.053659617
2019-07-17T11:35:00	0.2753	13.465	188.3	0.717807071	0.918809423	0.017034232	0.175739036	0.054164478
2019-07-17T11:40:00	0.2726	13.469	201.1	0.709070403	0.905161686	0.016644767	0.171720989	0.052926076
2019-07-17T11:45:00	0.2740	13.485	201.3	0.713594319	0.912220279	0.016845838	0.173795405	0.053565432
2019-07-17T11:50:00	0.2755	13.516	201.5	0.718435646	0.919793903	0.017062438	0.176030026	0.054254164
2019-07-17T11:55:00	0.2753	13.539	201.6	0.717783951	0.918773219	0.017033196	0.175728338	0.054161181
2019-07-17T12:00:00	0.2737	13.585	201.8	0.712606771	0.910677900	0.016801836	0.173341442	0.053425516
2019-07-17T12:05:00	0.2742	13.630	202.1	0.714217825	0.913194524	0.016873651	0.174082347	0.053653870
2019-07-17T12:10:00	0.2758	13.659	202.2	0.719381197	0.921275485	0.017104913	0.176468238	0.054389225
2019-07-17T12:15:00	0.2737	13.667	202.2	0.712589406	0.910650787	0.016801063	0.173333466	0.053423058
2019-07-17T12:20:00	0.2733	13.688	202.4	0.711289628	0.908622077	0.016743243	0.172736950	0.053239206
2019-07-17T12:25:00	0.2736	13.682	202.3	0.712254374	0.910127725	0.016786149	0.173179603	0.053375636
2019-07-17T12:30:00	0.2744	13.670	202.2	0.714835441	0.914159901	0.016901225	0.174366827	0.053741549
2019-07-17T12:35:00	0.2730	13.679	202.4	0.710301463	0.907080721	0.016699356	0.172284175	0.053099656
2019-07-17T12:40:00	0.2749	13.702	202.5	0.716439742	0.916669092	0.016972963	0.175106935	0.053969658
2019-07-17T12:45:00	0.2735	13.728	202.6	0.711907734	0.909586641	0.016770726	0.173020485	0.053326594
2019-07-17T12:50:00	0.2731	13.759	202.7	0.710607716	0.907558328	0.016712951	0.172424432	0.053142885
2019-07-17T12:55:00	0.2724	13.786	202.9	0.708335927	0.904017378	0.016612243	0.171385446	0.052822659
2019-07-17T13:00:00	0.2715	13.819	203.1	0.705414654	0.899470707	0.016483217	0.170054314	0.052412391
2019-07-17T13:05:00	0.2726	13.856	190.4	0.708971909	0.905008206	0.016640403	0.171675972	0.052912202
2019-07-17T13:10:00	0.2725	13.876	203.5	0.708966116	0.904999178	0.016640147	0.171673324	0.052911386
2019-07-17T13:15:00	0.2727	13.885	190.5	0.709607782	0.905999216	0.016668584	0.171966709	0.053001810
2019-07-17T13:20:00	0.2730	13.898	190.6	0.710572968	0.907504135	0.016711408	0.172408515	0.053137979
2019-07-17T13:25:00	0.2714	13.922	203.7	0.705385657	0.899425613	0.016481939	0.170041129	0.052408327
2019-07-17T13:30:00	0.2719	13.957	190.9	0.706999868	0.901937012	0.016553166	0.170775963	0.052634810
2019-07-17T13:35:00	0.2731	13.995	191.1	0.710879198	0.907981779	0.016725007	0.172548816	0.053181221
2019-07-17T13:40:00	0.2721	14.034	204.4	0.707636081	0.902927460	0.016581284	0.171066047	0.052724217
2019-07-17T13:45:00	0.2707	14.062	191.5	0.703093236	0.895862945	0.016381066	0.169000439	0.052087577
2019-07-17T13:50:00	0.2714	14.075	191.6	0.705356660	0.899380519	0.016480661	0.170027944	0.052404264
2019-07-17T13:55:00	0.2705	14.094	191.7	0.702433022	0.894837748	0.016352076	0.168701349	0.051995394
2019-07-17T14:00:00	0.2732	14.110	191.8	0.711173823	0.908441398	0.016738096	0.172683856	0.053222841
2019-07-17T14:05:00	0.2732	14.120	191.8	0.711168032	0.908432364	0.016737839	0.172681201	0.053222023
2019-07-17T14:10:00	0.2711	14.139	191.9	0.704361101	0.897832778	0.016436815	0.169575593	0.052264845
2019-07-17T14:15:00	0.2719	14.163	205.2	0.706947695	0.901855806	0.016550861	0.170752186	0.052627482
2019-07-17T14:20:00	0.2700	14.178	205.3	0.700781966	0.892275608	0.016279695	0.167954616	0.051765244
2019-07-17T14:25:00	0.2699	14.188	205.4	0.700451666	0.891763326	0.016265236	0.167805440	0.051719266
2019-07-17T14:30:00	0.2716	14.201	205.5	0.705958365	0.900316376	0.016507191	0.170301649	0.052488622
2019-07-17T14:35:00	0.2706	14.212	192.4	0.702710911	0.895269215	0.016364275	0.168827204	0.052034184
2019-07-17T14:40:00	0.2698	14.213	192.5	0.700109721	0.891233082	0.016250274	0.167651078	0.051671690
2019-07-17T14:45:00	0.2710	14.207	205.6	0.703996313	0.897265877	0.016420765	0.169410004	0.052213809
2019-07-17T14:50:00	0.2703	14.209	205.6	0.701720442	0.893731662	0.016320816	0.168378851	0.051895997
2019-07-17T14:55:00	0.2702	14.218	205.6	0.701390226	0.893219241	0.016306341	0.168229513	0.051849970
2019-07-17T15:00:00	0.2712	14.221	192.6	0.704627244	0.898246451	0.016448531	0.169696457	0.052302096
2019-07-17T15:05:00	0.2708	14.225	205.8	0.703324655	0.896222386	0.016391234	0.169105342	0.052119909
2019-07-17T15:10:00	0.2715	14.230	192.7	0.705587936	0.899740195	0.016490856	0.170133120	0.052436680
2019-07-17T15:15:00	0.2706	14.235	192.7	0.702664481	0.895197121	0.016362236	0.168806173	0.052027702
2019-07-17T15:20:00	0.2701	14.237	192.8	0.701036755	0.892670840	0.016290854	0.168069737	0.051800725
2019-07-17T15:25:00	0.2685	14.235	192.8	0.695835973	0.884614482	0.016063886	0.165728147	0.051079024
2019-07-17T15:30:00	0.2696	14.236	192.8	0.699402499	0.890136739	0.016219352	0.167332060	0.051573366
2019-07-17T15:35:00	0.2686	14.229	192.8	0.696149246	0.885099099	0.016077510	0.165868703	0.051122345
2019-07-17T15:40:00	0.2675	14.223	192.8	0.692567915	0.879564044	0.015922125	0.164265625	0.050628261
2019-07-17T15:45:00	0.2678	14.210	206.0	0.693537584	0.881061599	0.015964117	0.164698857	0.050761787
2019-07-17T15:50:00	0.2674	14.199	205.9	0.692231054	0.879043987	0.015907550	0.164115263	0.050581918
2019-07-17T15:55:00	0.2671	14.185	192.7	0.691249396	0.877529031	0.015865118	0.163677500	0.050446995
2019-07-17T16:00:00	0.2665	14.168	205.8	0.689291114	0.874509381	0.015780650	0.162806062	0.050178409
2019-07-17T16:05:00	0.2683	14.151	205.7	0.695332317	0.883835532	0.016041995	0.165502304	0.051009418
2019-07-17T16:10:00	0.2677	14.133	192.5	0.693243937	0.880608005	0.015951395	0.164567597	0.050721332
2019-07-17T16:15:00	0.2679	14.116	192.5	0.693756091	0.881399174	0.015973588	0.164796566	0.050791902
2019-07-17T16:20:00	0.2678	14.098	205.6	0.693618006	0.881185840	0.015967603	0.164734816	0.050772870
2019-07-17T16:25:00	0.2667	14.082	192.4	0.689901799	0.875450693	0.015806966	0.163077554	0.050262086
2019-07-17T16:30:00	0.2675	14.066	192.3	0.692691490	0.879754848	0.015927473	0.164320803	0.050645267
2019-07-17T16:35:00	0.2655	14.050	192.2	0.686043443	0.869508815	0.015641091	0.161366252	0.049734646
2019-07-17T16:40:00	0.2675	14.031	205.3	0.692740440	0.879830432	0.015929592	0.164342663	0.050652005
2019-07-17T16:45:00	0.2670	14.012	192.1	0.690975944	0.877107171	0.015853309	0.163555665	0.050409445
2019-07-17T16:50:00	0.2655	13.993	192.0	0.685954108	0.869371391	0.015637261	0.161326742	0.049722469
2019-07-17T16:55:00	0.2665	13.976	192.0	0.689397842	0.874673869	0.015785248	0.162853493	0.050193028
2019-07-17T17:00:00	0.2658	13.959	191.9	0.686980387	0.870950527	0.015681286	0.161780941	0.049862457
2019-07-17T17:05:00	0.2647	13.942	191.9	0.683583446	0.865727127	0.015535814	0.160280134	0.049399894
2019-07-17T17:10:00	0.2648	13.926	191.8	0.683770980	0.866015234	0.015543827	0.160362796	0.049425371
2019-07-17T17:15:00	0.2649	13.911	191.7	0.683958505	0.866303357	0.015551841	0.160445477	0.049450854
2019-07-17T17:20:00	0.2657	13.897	191.7	0.686752731	0.870600155	0.015671515	0.161680130	0.049831386
2019-07-17T17:25:00	0.2637	13.880	204.7	0.680093864	0.860371645	0.015387119	0.158746066	0.048927079
2019-07-17T17:30:00	0.2641	13.865	191.6	0.681586546	0.862661187	0.015450632	0.159401319	0.049129035
2019-07-17T17:35:00	0.2640	13.849	204.6	0.681121791	0.861948118	0.015430842	0.159197150	0.049066108
2019-07-17T17:40:00	0.2638	13.833	204.5	0.680656976	0.861235145	0.015411063	0.158993092	0.049003215
2019-07-17T17:45:00	0.2619	13.816	204.5	0.674313809	0.851524046	0.015142477	0.156222145	0.048149182
2019-07-17T17:50:00	0.2622	13.798	191.3	0.675155400	0.852810490	0.015177969	0.156588312	0.048262039
2019-07-17T17:55:00	0.2629	13.779	191.3	0.677629851	0.856596433	0.015282577	0.157667529	0.048594664
2019-07-17T18:00:00	0.2634	13.762	191.2	0.679123543	0.858884352	0.015345906	0.158320879	0.048796033
2019-07-17T18:05:00	0.2635	13.745	191.1	0.679637679	0.859672310	0.015367736	0.158546095	0.048865446
2019-07-17T18:10:00	0.2633	13.727	191.0	0.678846260	0.858459488	0.015334139	0.158199487	0.048758618
2019-07-17T18:15:00	0.2628	13.709	204.0	0.677401612	0.856247003	0.015272912	0.157567820	0.048563932
2019-07-17T18:20:00	0.2635	13.690	203.9	0.679548187	0.859535140	0.015363935	0.158506881	0.048853360
2019-07-17T18:25:00	0.2641	13.672	203.8	0.681367311	0.862324793	0.015441295	0.159304990	0.049099345
2019-07-17T18:30:00	0.2621	13.653	203.7	0.675025382	0.852611706	0.015172483	0.156531713	0.048244594
2019-07-17T18:35:00	0.2614	13.633	203.7	0.672598379	0.848903750	0.015070268	0.155477175	0.047919575
2019-07-17T18:40:00	0.2629	13.615	203.6	0.677687769	0.856685111	0.015285030	0.157692836	0.048602463
2019-07-17T18:45:00	0.2637	13.595	203.5	0.680160502	0.860473816	0.015389951	0.158775288	0.048936086
2019-07-17T18:50:00	0.2639	13.574	203.4	0.681000743	0.861762427	0.015425690	0.159143995	0.049049725
2019-07-17T18:55:00	0.2643	13.553	203.3	0.682166937	0.863551935	0.015475364	0.159656480	0.049207678
2019-07-17T19:00:00	0.2635	13.530	203.2	0.679418326	0.859336105	0.015358420	0.158449987	0.048835825
2019-07-17T19:05:00	0.2650	13.508	203.1	0.684498207	0.867132754	0.015574918	0.160683561	0.049524234
2019-07-17T19:10:00	0.2659	13.486	203.0	0.687292021	0.871430219	0.015694668	0.161918994	0.049905006
2019-07-17T19:15:00	0.2665	13.462	202.9	0.689432791	0.874727733	0.015786753	0.162869026	0.050197815
2019-07-17T19:20:00	0.2668	13.438	202.8	0.690270902	0.876019789	0.015822882	0.163241762	0.050312696
2019-07-17T19:25:00	0.2664	13.414	202.6	0.689156290	0.874301605	0.015774844	0.162746155	0.050159946
2019-07-17T19:30:00	0.2681	13.390	202.5	0.694547712	0.882622507	0.016007925	0.165150807	0.050901083
2019-07-17T19:35:00	0.2663	13.365	202.4	0.688554221	0.873373957	0.015748927	0.162478779	0.050077538
2019-07-17T19:40:00	0.2680	13.340	202.3	0.694271598	0.882195751	0.015995944	0.165027203	0.050862987
2019-07-17T19:45:00	0.2688	13.315	202.2	0.696733144	0.886002586	0.016102919	0.166130848	0.051203141
2019-07-17T19:50:00	0.2683	13.289	189.2	0.695295547	0.883778673	0.016040397	0.165485823	0.051004338
2019-07-17T19:55:00	0.2681	13.262	201.9	0.694507511	0.882560369	0.016006180	0.165132808	0.050895535
2019-07-17T20:00:00	0.2672	13.235	188.9	0.691768166	0.878329525	0.015887534	0.163908764	0.050518273
2019-07-17T20:05:00	0.2683	13.207	188.8	0.695206438	0.883640883	0.016036526	0.165445885	0.050992029
2019-07-17T20:10:00	0.2685	13.182	188.7	0.695718318	0.884432499	0.016058771	0.165675375	0.051062760
2019-07-17T20:15:00	0.2675	13.154	201.5	0.692654694	0.879698033	0.015925880	0.164304372	0.050640203
2019-07-17T20:20:00	0.2686	13.129	188.4	0.696092135	0.885010746	0.016075025	0.165843075	0.051114446
2019-07-17T20:25:00	0.2691	13.103	188.3	0.697903053	0.887813717	0.016153894	0.166656745	0.051365227
2019-07-17T20:30:00	0.2686	13.078	188.2	0.696141040	0.885086404	0.016077153	0.165865021	0.051121210
2019-07-17T20:35:00	0.2674	13.052	188.0	0.692102159	0.878845020	0.015901975	0.164057747	0.050564191
2019-07-17T20:40:00	0.2667	13.027	188.0	0.690011936	0.875620495	0.015811714	0.163126543	0.050277185
2019-07-17T20:45:00	0.2675	13.003	187.8	0.692476345	0.879422665	0.015918162	0.164224744	0.050615661
2019-07-17T20:50:00	0.2679	12.977	187.7	0.693963981	0.881720385	0.015982602	0.164889555	0.050820562
2019-07-17T20:55:00	0.2679	12.951	187.6	0.693825905	0.881507039	0.015976615	0.164827790	0.050801526
2019-07-17T21:00:00	0.2692	12.926	187.5	0.698236488	0.888330123	0.016168438	0.166806791	0.051411473
2019-07-17T21:05:00	0.2712	12.902	187.4	0.704587153	0.898184133	0.016446766	0.169678248	0.052296484
2019-07-17T21:10:00	0.2707	12.878	187.2	0.702828342	0.895451565	0.016369431	0.168880403	0.052050580
2019-07-17T21:15:00	0.2701	12.853	187.1	0.701068690	0.892720381	0.016292253	0.168084168	0.051805173
2019-07-17T21:20:00	0.2690	12.830	187.0	0.697360026	0.886972911	0.016130223	0.166412534	0.051289959
2019-07-17T21:25:00	0.2681	12.806	186.9	0.694622812	0.882738590	0.016011184	0.165184434	0.050911447
2019-07-17T21:30:00	0.2681	12.781	186.7	0.694484760	0.882525203	0.016005193	0.165122622	0.050892396
2019-07-17T21:35:00	0.2693	12.755	186.6	0.698569893	0.888846579	0.016182987	0.166956895	0.051457737
2019-07-17T21:40:00	0.2701	12.730	186.5	0.701028560	0.892658126	0.016290495	0.168066033	0.051799584
2019-07-17T21:45:00	0.2710	12.705	186.4	0.703809810	0.896976087	0.016412562	0.169325378	0.052187726
2019-07-17T21:50:00	0.2703	12.680	186.3	0.701726247	0.893740671	0.016321071	0.168381477	0.051896806
2019-07-17T21:55:00	0.2716	12.653	186.1	0.705803342	0.900075232	0.016500354	0.170231110	0.052466881
2019-07-17T22:00:00	0.2725	12.630	186.0	0.708904766	0.904903584	0.016637429	0.171645288	0.052902745
2019-07-17T22:05:00	0.2714	12.608	185.9	0.705201097	0.899138618	0.016473806	0.169957219	0.052382466
2019-07-17T22:10:00	0.2714	12.583	185.8	0.705384630	0.899424015	0.016481894	0.170040662	0.052408183
2019-07-17T22:15:00	0.2729	12.560	185.6	0.710102156	0.906769942	0.016690511	0.172192930	0.053071533
2019-07-17T22:20:00	0.2720	12.534	185.5	0.707047600	0.902011310	0.016555275	0.170797718	0.052641515
2019-07-17T22:25:00	0.2716	12.510	185.4	0.705935171	0.900280295	0.016506168	0.170291094	0.052485369
2019-07-17T22:30:00	0.2726	12.486	197.9	0.709033587	0.905104316	0.016643136	0.171704161	0.052920890
2019-07-17T22:35:00	0.2711	12.463	197.8	0.704357687	0.897827471	0.016436665	0.169574043	0.052264367
2019-07-17T22:40:00	0.2697	12.441	185.1	0.699675839	0.890560421	0.016231299	0.167455322	0.051611356
2019-07-17T22:45:00	0.2691	12.417	197.5	0.697911770	0.887827216	0.016154274	0.166660667	0.051366436
2019-07-17T22:50:00	0.2723	12.393	197.4	0.708148104	0.903724827	0.016603931	0.171299695	0.052796230
2019-07-17T22:55:00	0.2714	12.371	197.3	0.705091928	0.898968871	0.016468996	0.169907596	0.052367171
2019-07-17T23:00:00	0.2716	12.350	197.1	0.705923574	0.900262255	0.016505657	0.170285817	0.052483743
2019-07-17T23:05:00	0.2705	12.327	197.1	0.702216904	0.894502237	0.016342592	0.168603504	0.051965237
2019-07-17T23:10:00	0.2705	12.304	197.0	0.702400585	0.894787389	0.016350652	0.168686661	0.051990867
2019-07-17T23:15:00	0.2699	12.281	196.8	0.700313319	0.891548783	0.016259181	0.167742977	0.051700015
2019-07-17T23:20:00	0.2701	12.260	196.6	0.701146045	0.892840388	0.016295641	0.168119129	0.051815948
2019-07-17T23:25:00	0.2709	12.239	196.6	0.703600090	0.896650256	0.016403341	0.169230244	0.052158405
2019-07-17T23:30:00	0.2692	12.219	196.5	0.698267932	0.888378827	0.016169810	0.166820945	0.051415835
2019-07-17T23:35:00	0.2698	12.198	196.4	0.700074874	0.891179052	0.016248749	0.167635351	0.051666843
2019-07-17T23:40:00	0.2727	12.177	196.3	0.709334152	0.905572720	0.016656454	0.171841567	0.052963240
2019-07-17T23:45:00	0.2741	12.159	196.2	0.714046633	0.912926998	0.016866012	0.174003539	0.053629580
2019-07-17T23:50:00	0.2724	12.139	196.0	0.708405794	0.904126211	0.016615335	0.171417349	0.052832492
2019-07-17T23:55:00	0.2725	12.119	195.9	0.708912944	0.904916326	0.016637791	0.171649025	0.052903896
2019-07-18T00:00:00	0.2724	12.098	195.8	0.708448741	0.904193111	0.016617236	0.171436962	0.052838537
2019-07-18T00:05:00	0.2729	12.079	195.7	0.710250693	0.907001553	0.016697103	0.172260930	0.053092492
2019-07-18T00:10:00	0.2721	12.057	195.6	0.707520160	0.902746970	0.016576159	0.171013173	0.052707921
2019-07-18T00:15:00	0.2741	12.036	195.5	0.713851959	0.912622807	0.016857328	0.173913943	0.053601966
2019-07-18T00:20:00	0.2733	12.017	195.3	0.711447646	0.908868634	0.016750267	0.172809412	0.053261539
2019-07-18T00:25:00	0.2726	11.996	195.3	0.709041765	0.905117059	0.016643498	0.171707899	0.052922042
2019-07-18T00:30:00	0.2721	11.976	195.1	0.707606074	0.902880737	0.016579957	0.171052359	0.052719998
2019-07-18T00:35:00	0.2753	11.955	195.1	0.717815558	0.918822714	0.017034613	0.175742964	0.054165688
2019-07-18T00:40:00	0.2746	11.934	194.8	0.715737001	0.915569701	0.016941520	0.174782536	0.053869675
2019-07-18T00:45:00	0.2730	11.914	194.8	0.710422391	0.907269301	0.016704723	0.172339550	0.053116723
2019-07-18T00:50:00	0.2724	11.895	194.7	0.708339668	0.904023205	0.016612408	0.171387154	0.052823185
2019-07-18T00:55:00	0.2726	11.876	194.6	0.709170581	0.905317799	0.016649205	0.171766782	0.052940190
2019-07-18T01:00:00	0.2710	11.857	194.4	0.703846495	0.897033085	0.016414175	0.169342022	0.052192856
2019-07-18T01:05:00	0.2721	11.837	194.4	0.707594482	0.902862688	0.016579444	0.171047071	0.052718369
2019-07-18T01:10:00	0.2726	11.818	194.3	0.709073117	0.905165914	0.016644887	0.171722229	0.052926459
2019-07-18T01:15:00	0.2733	11.799	194.1	0.711521888	0.908984483	0.016753567	0.172843463	0.053272034
2019-07-18T01:20:00	0.2719	11.782	194.1	0.706849145	0.901702420	0.016546509	0.170707279	0.052613641
2019-07-18T01:25:00	0.2729	11.762	181.5	0.709946793	0.906527710	0.016683619	0.172121820	0.053049617
2019-07-18T01:30:00	0.2721	11.745	181.4	0.707539933	0.902777756	0.016577033	0.171022191	0.052710700
2019-07-18T01:35:00	0.2720	11.726	181.3	0.707075557	0.902054826	0.016556510	0.170810460	0.052645443
2019-07-18T01:40:00	0.2693	11.709	181.2	0.698503074	0.888743067	0.016180071	0.166926807	0.051448463
2019-07-18T01:45:00	0.2724	11.690	181.1	0.708413973	0.904138951	0.016615697	0.171421084	0.052833643
2019-07-18T01:50:00	0.2713	11.673	181.0	0.705033928	0.898878692	0.016466441	0.169881235	0.052359046
2019-07-18T01:55:00	0.2727	11.654	180.9	0.709428200	0.905719301	0.016660623	0.171884573	0.052976495
2019-07-18T02:00:00	0.2726	11.636	180.8	0.709287806	0.905500488	0.016654400	0.171820375	0.052956708
2019-07-18T02:05:00	0.2716	11.618	180.7	0.705908563	0.900238905	0.016504995	0.170278987	0.052481637
2019-07-18T02:10:00	0.2722	11.599	180.6	0.707711757	0.903045295	0.016584630	0.171100569	0.052734857
2019-07-18T02:15:00	0.2716	11.581	180.5	0.705951539	0.900305757	0.016506890	0.170298543	0.052487665
2019-07-18T02:20:00	0.2714	11.563	180.4	0.705162885	0.899079200	0.016472122	0.169939848	0.052377112
2019-07-18T02:25:00	0.2711	11.548	180.3	0.704374062	0.897852922	0.016437386	0.169581478	0.052266658
2019-07-18T02:30:00	0.2721	11.533	180.2	0.707473791	0.902674776	0.016574109	0.170992025	0.052701403
2019-07-18T02:35:00	0.2710	11.516	180.1	0.704092883	0.897415942	0.016425013	0.169453832	0.052227317
2019-07-18T02:40:00	0.2718	11.500	180.0	0.706544964	0.901229041	0.016533077	0.170568708	0.052570932
2019-07-18T02:45:00	0.2724	11.481	179.9	0.708347847	0.904035945	0.016612770	0.171390888	0.052824336
2019-07-18T02:50:00	0.2720	11.465	179.8	0.707235810	0.902304283	0.016563591	0.170883511	0.052667958
2019-07-18T02:55:00	0.2719	11.449	179.7	0.706771396	0.901581416	0.016543075	0.170671854	0.052602723
2019-07-18T03:00:00	0.2739	11.432	179.6	0.713427860	0.911960239	0.016838417	0.173718842	0.053541834
2019-07-18T03:05:00	0.2731	11.415	179.6	0.710699678	0.907701762	0.016717034	0.172466561	0.053155869
2019-07-18T03:10:00	0.2715	11.399	179.5	0.705701861	0.899917387	0.016495879	0.170184942	0.052452652
2019-07-18T03:15:00	0.2726	11.383	179.4	0.709124233	0.905245570	0.016647152	0.171745594	0.052933660
2019-07-18T03:20:00	0.2725	11.367	179.3	0.708660056	0.904522311	0.016626592	0.171533480	0.052868284
2019-07-18T03:25:00	0.2733	11.352	179.2	0.711432658	0.908845247	0.016749600	0.172802538	0.053259421
2019-07-18T03:30:00	0.2741	11.337	179.1	0.713879865	0.912666409	0.016858572	0.173926784	0.053605924
2019-07-18T03:35:00	0.2727	11.323	179.0	0.709533831	0.905883945	0.016665305	0.171932883	0.052991384
2019-07-18T03:40:00	0.2742	11.311	179.0	0.714246057	0.913238646	0.016874911	0.174095346	0.053657876
2019-07-18T03:45:00	0.2735	11.298	178.9	0.712165492	0.909988974	0.016782193	0.173138796	0.053363058
2019-07-18T03:50:00	0.2750	11.285	178.8	0.716874364	0.917349245	0.016992426	0.175307725	0.054031543
2019-07-18T03:55:00	0.2751	11.274	178.8	0.717057316	0.917635602	0.017000622	0.175392283	0.054057605
2019-07-18T04:00:00	0.2757	11.261	178.7	0.719177954	0.920956958	0.017095779	0.176373997	0.054360179
2019-07-18T04:05:00	0.2767	11.249	178.6	0.722402306	0.926014495	0.017241002	0.177872242	0.054821952
2019-07-18T04:10:00	0.2762	11.237	178.5	0.720786149	0.923478346	0.017168129	0.177120427	0.054590236
2019-07-18T04:15:00	0.2751	11.227	178.5	0.717231588	0.917908400	0.017008431	0.175472849	0.054082436
2019-07-18T04:20:00	0.2765	11.216	178.4	0.721748422	0.924988114	0.017211499	0.177567859	0.054728139
2019-07-18T04:25:00	0.2769	11.206	190.5	0.723035873	0.927009342	0.017269615	0.178167432	0.054912933
2019-07-18T04:30:00	0.2759	11.197	178.3	0.719806296	0.921941827	0.017124028	0.176665437	0.054450003
2019-07-18T04:35:00	0.2762	11.189	178.3	0.720771711	0.923455699	0.017167479	0.177113718	0.054588168
2019-07-18T04:40:00	0.2754	11.183	178.2	0.718186116	0.919403046	0.017051238	0.175914479	0.054218551
2019-07-18T04:45:00	0.2754	11.174	178.2	0.718183226	0.919398520	0.017051108	0.175913141	0.054218139
2019-07-18T04:50:00	0.2764	11.165	178.1	0.721408444	0.924454610	0.017196169	0.177409710	0.054679396
2019-07-18T04:55:00	0.2745	11.160	178.1	0.715269739	0.914838938	0.016920630	0.174567016	0.053803250
2019-07-18T05:00:00	0.2746	11.154	178.0	0.715590039	0.915339842	0.016934948	0.174714736	0.053848778
2019-07-18T05:05:00	0.2749	11.151	178.0	0.716556554	0.916851878	0.016978193	0.175160888	0.053986287
2019-07-18T05:10:00	0.2745	11.145	178.0	0.715261063	0.914825371	0.016920242	0.174563015	0.053802017
2019-07-18T05:15:00	0.2739	11.143	178.0	0.713318421	0.911789288	0.016833539	0.173668515	0.053526323
2019-07-18T05:20:00	0.2731	11.141	177.9	0.710727607	0.907745324	0.016718275	0.172479356	0.053159813
2019-07-18T05:25:00	0.2767	11.140	177.9	0.722356123	0.925941991	0.017238918	0.177850735	0.054815324
2019-07-18T05:30:00	0.2758	11.140	177.9	0.719448808	0.921381455	0.017107953	0.176499594	0.054398889
2019-07-18T05:35:00	0.2744	11.142	190.0	0.714923381	0.914297384	0.016905154	0.174407353	0.053754040
2019-07-18T05:40:00	0.2739	11.143	177.9	0.713303954	0.911766690	0.016832894	0.173661863	0.053524273
2019-07-18T05:45:00	0.2751	11.147	177.7	0.717179560	0.917826954	0.017006100	0.175448795	0.054075022
2019-07-18T05:50:00	0.2754	11.151	178.0	0.718145660	0.919339682	0.017049423	0.175895750	0.054212778
2019-07-18T05:55:00	0.2755	11.158	178.0	0.718465711	0.919841001	0.017063788	0.176043951	0.054258455
2019-07-18T06:00:00	0.2743	11.164	190.1	0.714585668	0.913769449	0.016890071	0.174251749	0.053706081
2019-07-18T06:05:00	0.2746	11.172	178.0	0.715552446	0.915281048	0.016933267	0.174697395	0.053843434
2019-07-18T06:10:00	0.2748	11.180	178.1	0.716195860	0.916287506	0.016962048	0.174994318	0.053934948
2019-07-18T06:15:00	0.2749	11.189	178.1	0.716516080	0.916788544	0.016976381	0.175142193	0.053980525
2019-07-18T06:20:00	0.2768	11.199	178.1	0.722646948	0.926398598	0.017252048	0.177986194	0.054857074
2019-07-18T06:25:00	0.2747	11.212	178.2	0.715864047	0.915768423	0.016947202	0.174841159	0.053887743
2019-07-18T06:30:00	0.2744	11.224	178.2	0.714891566	0.914247645	0.016903732	0.174392691	0.053749521
2019-07-18T06:35:00	0.2743	11.239	178.3	0.714565421	0.913737799	0.016889167	0.174242422	0.053703207
2019-07-18T06:40:00	0.2751	11.254	178.3	0.717147765	0.917777183	0.017004675	0.175434095	0.054070492
2019-07-18T06:45:00	0.2753	11.271	178.4	0.717790902	0.918784103	0.017033507	0.175731554	0.054162172
2019-07-18T06:50:00	0.2740	11.290	178.5	0.713586811	0.912208549	0.016845503	0.173791952	0.053564367
2019-07-18T06:55:00	0.2747	11.310	178.6	0.715846698	0.915741285	0.016946426	0.174833153	0.053885276
2019-07-18T07:00:00	0.2750	11.330	178.7	0.716813146	0.917253433	0.016989684	0.175279435	0.054022824
2019-07-18T07:05:00	0.2747	11.352	178.8	0.715840915	0.915732239	0.016946167	0.174830485	0.053884453
2019-07-18T07:10:00	0.2738	11.377	178.9	0.712928474	0.911180250	0.016816163	0.173489256	0.053471073
2019-07-18T07:15:00	0.2740	11.405	179.0	0.713572345	0.912185949	0.016844858	0.173785297	0.053562316
2019-07-18T07:20:00	0.2736	11.448	179.2	0.712275807	0.910161183	0.016787103	0.173189444	0.053378669
2019-07-18T07:25:00	0.2755	11.486	179.4	0.718413700	0.919759526	0.017061453	0.176019862	0.054251031
2019-07-18T07:30:00	0.2747	11.533	179.5	0.715826457	0.915709624	0.016945521	0.174823813	0.053882397
2019-07-18T07:35:00	0.2762	11.559	179.7	0.720667753	0.923292643	0.017162797	0.177065417	0.054573281
2019-07-18T07:40:00	0.2747	11.586	179.8	0.715820674	0.915700578	0.016945262	0.174821144	0.053881575
2019-07-18T07:45:00	0.2745	11.627	179.9	0.715171410	0.914685184	0.016916235	0.174521681	0.053789277
2019-07-18T07:50:00	0.2737	11.662	180.0	0.712581896	0.910639062	0.016800728	0.173330016	0.053421994
2019-07-18T07:55:00	0.2742	11.686	180.2	0.714195854	0.913160188	0.016872671	0.174072232	0.053650752
2019-07-18T08:00:00	0.2774	11.701	180.3	0.724524123	0.929347621	0.017336925	0.178861858	0.055126962
2019-07-18T08:05:00	0.2754	11.729	180.4	0.718067637	0.919217482	0.017045922	0.175859631	0.054201646
2019-07-18T08:10:00	0.2753	11.755	180.6	0.717741771	0.918707170	0.017031304	0.175708822	0.054155165
2019-07-18T08:15:00	0.2756	11.792	180.7	0.718707724	0.920220143	0.017074654	0.176156060	0.054293009
2019-07-18T08:20:00	0.2765	11.824	180.9	0.721609847	0.924770646	0.017205250	0.177503389	0.054708268
2019-07-18T08:25:00	0.2764	11.862	181.0	0.721284293	0.924259813	0.017190573	0.177351976	0.054661602
2019-07-18T08:30:00	0.2766	11.902	181.3	0.721926712	0.925267933	0.017219541	0.177650826	0.054753710
2019-07-18T08:35:00	0.2743	11.950	193.8	0.714495999	0.913629289	0.016886068	0.174210446	0.053693351
2019-07-18T08:40:00	0.2765	12.004	194.0	0.721598299	0.924752524	0.017204729	0.177498017	0.054706613
2019-07-18T08:45:00	0.2754	12.063	182.0	0.718044518	0.919181275	0.017044884	0.175848929	0.054198348
2019-07-18T08:50:00	0.2769	12.123	194.7	0.722882917	0.926769133	0.017262705	0.178096143	0.054890961
2019-07-18T08:55:00	0.2761	12.170	194.9	0.720298796	0.922714016	0.017146187	0.176894049	0.054520464
2019-07-18T09:00:00	0.2755	12.180	194.8	0.718358799	0.919673527	0.017058988	0.175994437	0.054243195
2019-07-18T09:05:00	0.2745	12.253	182.9	0.715125137	0.914612831	0.016914168	0.174500348	0.053782702
2019-07-18T09:10:00	0.2743	12.319	195.6	0.714475751	0.913597640	0.016885164	0.174201120	0.053690477
2019-07-18T09:15:00	0.2747	12.405	196.0	0.715765734	0.915614643	0.016942805	0.174795794	0.053873761
2019-07-18T09:20:00	0.2747	12.458	196.2	0.715762843	0.915610120	0.016942675	0.174794459	0.053873350
2019-07-18T09:25:00	0.2752	12.499	196.5	0.717698420	0.918639289	0.017029360	0.175688764	0.054148983
2019-07-18T09:30:00	0.2728	12.510	196.5	0.709935539	0.906510163	0.016683120	0.172116670	0.053048029
2019-07-18T09:35:00	0.2745	12.544	196.6	0.715430990	0.915091102	0.016927837	0.174641376	0.053826168
2019-07-18T09:40:00	0.2742	12.574	184.3	0.714458396	0.913570513	0.016884389	0.174193127	0.053688013
2019-07-18T09:45:00	0.2738	12.598	196.9	0.713162169	0.911545230	0.016826575	0.173596674	0.053504181
2019-07-18T09:50:00	0.2745	12.627	197.1	0.715422315	0.915077534	0.016927449	0.174637374	0.053824935
2019-07-18T09:55:00	0.2739	12.650	197.2	0.713479758	0.912041310	0.016840730	0.173742711	0.053549191
2019-07-18T10:00:00	0.2729	12.667	197.3	0.710241822	0.906987720	0.016696709	0.172256868	0.053091240
2019-07-18T10:05:00	0.2738	12.687	184.8	0.712964555	0.911236598	0.016817770	0.173505838	0.053476184
2019-07-18T10:10:00	0.2726	12.716	184.9	0.709216232	0.905388942	0.016651228	0.171787652	0.052946623
2019-07-18T10:15:00	0.2740	12.753	185.1	0.713556853	0.912161747	0.016844167	0.173778171	0.053560120
2019-07-18T10:20:00	0.2728	12.782	185.2	0.709809132	0.906313094	0.016677513	0.172058826	0.053030201
2019-07-18T10:25:00	0.2722	12.806	185.3	0.707677312	0.902991660	0.016583107	0.171084855	0.052730014
2019-07-18T10:30:00	0.2726	12.820	198.0	0.709107182	0.905218999	0.016646396	0.171737800	0.052931258
2019-07-18T10:35:00	0.2735	12.856	185.6	0.712154244	0.909971416	0.016781693	0.173133632	0.053361467
2019-07-18T10:40:00	0.2711	12.919	185.9	0.704193197	0.897571831	0.016429427	0.169499365	0.052241351
2019-07-18T10:45:00	0.2724	12.953	186.1	0.708539731	0.904334855	0.016621264	0.171478518	0.052851345
2019-07-18T10:50:00	0.2717	12.976	186.1	0.706083179	0.900510544	0.016512697	0.170358454	0.052506130
2019-07-18T10:55:00	0.2720	12.985	186.2	0.707189767	0.902232608	0.016561556	0.170862521	0.052661488
2019-07-18T11:00:00	0.2722	13.004	186.3	0.707972192	0.903450856	0.016596148	0.171219403	0.052771483
2019-07-18T11:05:00	0.2709	13.046	186.5	0.703570380	0.896604101	0.016402035	0.169216769	0.052154252
2019-07-18T11:10:00	0.2716	13.079	186.7	0.705974036	0.900340754	0.016507883	0.170308781	0.052490820
2019-07-18T11:15:00	0.2705	13.113	186.9	0.702218594	0.894504860	0.016342666	0.168604269	0.051965473
2019-07-18T11:20:00	0.2702	13.146	187.0	0.701380305	0.893203847	0.016305906	0.168225028	0.051848587
2019-07-18T11:25:00	0.2701	13.174	187.2	0.701190767	0.892909771	0.016297601	0.168139343	0.051822179
2019-07-18T11:30:00	0.2696	13.207	187.4	0.699378565	0.890099643	0.016218306	0.167321269	0.051570040
2019-07-18T11:35:00	0.2687	13.241	187.5	0.696591051	0.885782692	0.016096734	0.166067034	0.051183473
2019-07-18T11:40:00	0.2672	13.282	187.7	0.691525038	0.877954336	0.015877027	0.163800358	0.050484861
2019-07-18T11:45:00	0.2679	13.334	200.8	0.693936587	0.881678056	0.015981414	0.164877300	0.050816785
2019-07-18T11:50:00	0.2678	13.374	188.2	0.693421549	0.880882353	0.015959089	0.164646983	0.050745799
2019-07-18T11:55:00	0.2692	13.402	201.2	0.698105560	0.888127337	0.016162726	0.166747865	0.051393311
2019-07-18T12:00:00	0.2676	13.436	201.4	0.693041640	0.880295563	0.015942633	0.164477203	0.050693471
2019-07-18T12:05:00	0.2680	13.464	201.6	0.694152162	0.882011175	0.015990763	0.164973753	0.050846513
2019-07-18T12:10:00	0.2694	13.487	201.7	0.698835241	0.889257683	0.016194572	0.167076411	0.051494572
2019-07-18T12:15:00	0.2691	13.525	201.8	0.697671441	0.887455064	0.016143795	0.166552561	0.051333117
2019-07-18T12:20:00	0.2683	13.583	202.1	0.695207616	0.883642704	0.016036577	0.165446413	0.050992191
2019-07-18T12:25:00	0.2683	13.632	202.4	0.695342733	0.883851639	0.016042447	0.165506973	0.051010857
2019-07-18T12:30:00	0.2696	13.665	202.6	0.699375146	0.890094344	0.016218156	0.167319728	0.051569565
2019-07-18T12:35:00	0.2687	13.691	202.7	0.696587629	0.885777397	0.016096585	0.166065498	0.051182999
2019-07-18T12:40:00	0.2682	13.693	202.8	0.694773154	0.882970992	0.016017710	0.165251763	0.050932198
2019-07-18T12:45:00	0.2694	13.682	202.7	0.698806192	0.889212674	0.016193303	0.167063324	0.051490539
2019-07-18T12:50:00	0.2700	13.665	202.7	0.700564024	0.891937577	0.016270154	0.167856177	0.051734904
2019-07-18T12:55:00	0.2683	13.653	202.6	0.695178538	0.883597742	0.016035314	0.165433381	0.050988175
2019-07-18T13:00:00	0.2686	13.651	202.6	0.696288413	0.885314410	0.016083564	0.165931163	0.051141596
2019-07-18T13:05:00	0.2685	13.661	202.7	0.695773705	0.884518167	0.016061178	0.165700217	0.051070416
2019-07-18T13:10:00	0.2679	13.695	202.8	0.693958826	0.881712420	0.015982378	0.164887249	0.050819852
2019-07-18T13:15:00	0.2671	13.734	203.0	0.691167189	0.877402203	0.015861568	0.163640868	0.050435705
2019-07-18T13:20:00	0.2676	13.753	203.2	0.692928684	0.880121120	0.015937741	0.164426741	0.050677918
2019-07-18T13:25:00	0.2679	13.766	190.3	0.694039240	0.881836676	0.015985865	0.164923226	0.050830940
2019-07-18T13:30:00	0.2660	13.779	203.4	0.687667363	0.872008087	0.015710793	0.162085351	0.049956279
2019-07-18T13:35:00	0.2670	13.779	190.4	0.691057602	0.877233140	0.015856835	0.163592043	0.050420656
2019-07-18T13:40:00	0.2655	13.784	203.5	0.685983924	0.869417255	0.015638539	0.161339928	0.049726533
2019-07-18T13:45:00	0.2661	13.789	203.6	0.688073534	0.872633557	0.015728252	0.162265474	0.050011795
2019-07-18T13:50:00	0.2665	13.788	203.5	0.689185563	0.874346716	0.015776104	0.162759161	0.050163954
2019-07-18T13:55:00	0.2642	13.796	203.6	0.681826863	0.863029975	0.015460870	0.159506945	0.049161590
2019-07-18T14:00:00	0.2651	13.821	203.8	0.684896647	0.867745226	0.015591967	0.160859447	0.049578444
2019-07-18T14:05:00	0.2653	13.845	190.9	0.685358007	0.868454587	0.015611720	0.161063236	0.049641253
2019-07-18T14:10:00	0.2659	13.869	204.1	0.687447975	0.871670309	0.015701367	0.161988104	0.049926307
2019-07-18T14:15:00	0.2636	13.896	191.3	0.679759437	0.859858949	0.015372908	0.158599455	0.048881892
2019-07-18T14:20:00	0.2637	13.915	191.4	0.680221447	0.860567262	0.015392542	0.158802017	0.048944324
2019-07-18T14:25:00	0.2625	13.927	191.5	0.676439489	0.854774505	0.015232207	0.157147873	0.048434501
2019-07-18T14:30:00	0.2647	13.934	204.5	0.683428139	0.865488553	0.015529181	0.160211693	0.049378800
2019-07-18T14:35:00	0.2654	13.943	191.5	0.685845029	0.869203604	0.015632586	0.161278507	0.049707602
2019-07-18T14:40:00	0.2635	13.953	204.6	0.679458841	0.859398200	0.015360140	0.158467736	0.048841295
2019-07-18T14:45:00	0.2629	13.954	204.7	0.677635843	0.856605607	0.015282831	0.157670146	0.048595470
2019-07-18T14:50:00	0.2630	13.957	191.6	0.677771611	0.856813487	0.015288581	0.157729474	0.048613756
2019-07-18T14:55:00	0.2634	13.971	191.7	0.679213193	0.859021732	0.015349711	0.158360138	0.048808133
2019-07-18T15:00:00	0.2623	13.979	191.8	0.675756908	0.853730320	0.015203363	0.156850298	0.048342785
2019-07-18T15:05:00	0.2634	13.980	191.8	0.679158220	0.858937491	0.015347377	0.158336064	0.048800713
2019-07-18T15:10:00	0.2614	13.988	205.0	0.672760296	0.849150968	0.015077076	0.155547412	0.047941223
2019-07-18T15:15:00	0.2605	14.004	192.0	0.669625145	0.844368166	0.014945542	0.154190399	0.047522978
2019-07-18T15:20:00	0.2607	14.013	192.1	0.670415644	0.845573308	0.014978650	0.154531969	0.047628254
2019-07-18T15:25:00	0.2598	14.015	192.1	0.667605922	0.841292228	0.014861146	0.153319705	0.047254622
2019-07-18T15:30:00	0.2614	14.014	192.1	0.672650155	0.848982799	0.015072445	0.155499633	0.047926497
2019-07-18T15:35:00	0.2607	14.011	205.2	0.670496578	0.845696725	0.014982042	0.154566962	0.047639039
2019-07-18T15:40:00	0.2605	14.011	205.2	0.669650980	0.844407544	0.014946623	0.154201556	0.047526417
2019-07-18T15:45:00	0.2596	14.009	192.2	0.666840666	0.840127407	0.014829227	0.152990401	0.047153127
2019-07-18T15:50:00	0.2609	14.010	192.2	0.670904667	0.846319110	0.014999151	0.154743471	0.047693441
2019-07-18T15:55:00	0.2608	14.011	192.2	0.670713542	0.846027603	0.014991136	0.154660791	0.047667958
2019-07-18T16:00:00	0.2605	14.006	192.3	0.669867995	0.844738342	0.014955709	0.154295291	0.047555307
2019-07-18T16:05:00	0.2592	14.000	192.3	0.665570917	0.838195788	0.014776344	0.152444822	0.046984975
2019-07-18T16:10:00	0.2603	13.996	192.3	0.669132502	0.843617387	0.014924928	0.153977732	0.047457432
2019-07-18T16:15:00	0.2579	13.995	192.3	0.661228171	0.831599787	0.014596226	0.150586572	0.046412244
2019-07-18T16:20:00	0.2579	13.998	192.3	0.661187600	0.831538243	0.014594549	0.150569268	0.046406911
2019-07-18T16:25:00	0.2589	14.000	192.3	0.664425780	0.836454923	0.014728737	0.151953662	0.046833594
2019-07-18T16:30:00	0.2578	13.996	192.3	0.660778416	0.830917598	0.014577638	0.150394805	0.046353140
2019-07-18T16:35:00	0.2576	13.993	192.3	0.660081660	0.829861099	0.014548867	0.150097974	0.046261653
2019-07-18T16:40:00	0.2576	13.991	192.3	0.660369186	0.830297027	0.014560736	0.150220428	0.046299395
2019-07-18T16:45:00	0.2560	13.981	205.4	0.655075229	0.822281996	0.014343007	0.147974158	0.045607073
2019-07-18T16:50:00	0.2574	13.971	192.3	0.659631763	0.829179135	0.014530304	0.149906472	0.046202631
2019-07-18T16:55:00	0.2568	13.967	205.4	0.657621651	0.826134280	0.014447522	0.149052417	0.045939403
2019-07-18T17:00:00	0.2561	13.963	192.3	0.655281880	0.822594416	0.014351474	0.148061510	0.045633995
2019-07-18T17:05:00	0.2548	13.959	192.3	0.650967437	0.816079311	0.014175243	0.146243371	0.045073627
2019-07-18T17:10:00	0.2559	13.954	192.3	0.654543418	0.821478162	0.014321229	0.147749485	0.045537826
2019-07-18T17:15:00	0.2568	13.946	192.3	0.657459205	0.825888362	0.014440842	0.148983509	0.045918164
2019-07-18T17:20:00	0.2581	13.938	192.3	0.662012739	0.832790236	0.014628681	0.150921403	0.046515442
2019-07-18T17:25:00	0.2565	13.932	192.3	0.656721189	0.824771407	0.014410518	0.148670657	0.045821740
2019-07-18T17:30:00	0.2569	13.925	205.3	0.657994044	0.826698109	0.014462839	0.149210447	0.045988109
2019-07-18T17:35:00	0.2573	13.917	192.3	0.659266452	0.828625517	0.014515241	0.149751070	0.046154734
2019-07-18T17:40:00	0.2581	13.907	192.2	0.661850490	0.832544008	0.014621966	0.150852128	0.046494091
2019-07-18T17:45:00	0.2580	13.895	205.3	0.661481948	0.831984794	0.014606720	0.150694834	0.046445611
2019-07-18T17:50:00	0.2561	13.883	192.1	0.655204066	0.822476772	0.014348285	0.148028615	0.045623857
2019-07-18T17:55:00	0.2550	13.873	192.1	0.651547383	0.816954145	0.014198866	0.146487082	0.045148741
2019-07-18T18:00:00	0.2569	13.861	192.1	0.658078715	0.826826322	0.014466323	0.149246390	0.045999187
2019-07-18T18:05:00	0.2567	13.850	192.1	0.657381438	0.825770644	0.014437645	0.148950527	0.045907999
2019-07-18T18:10:00	0.2583	13.837	192.0	0.662590914	0.833667858	0.014652622	0.151168401	0.046591569
2019-07-18T18:15:00	0.2584	13.827	205.1	0.662878241	0.834104101	0.014664527	0.151291227	0.046629425
2019-07-18T18:20:00	0.2567	13.815	205.0	0.657259596	0.825586217	0.014432637	0.148898859	0.045892074
2019-07-18T18:25:00	0.2584	13.803	205.0	0.662797137	0.833980955	0.014661166	0.151256551	0.046618738
2019-07-18T18:30:00	0.2581	13.791	191.9	0.661772817	0.832426140	0.014618752	0.150818970	0.046483871
2019-07-18T18:35:00	0.2586	13.779	191.8	0.663371734	0.834853530	0.014684987	0.151502305	0.046694482
2019-07-18T18:40:00	0.2574	13.767	191.8	0.659723308	0.829317887	0.014534080	0.149945429	0.046214637
2019-07-18T18:45:00	0.2572	13.753	204.8	0.659026349	0.828261709	0.014505346	0.149648976	0.046123268
2019-07-18T18:50:00	0.2596	13.739	191.7	0.666854465	0.840148406	0.014829802	0.152996336	0.047154956
2019-07-18T18:55:00	0.2600	13.726	204.7	0.668123765	0.842080739	0.014882766	0.153542754	0.047323368
2019-07-18T19:00:00	0.2608	13.712	204.6	0.670701499	0.846009236	0.014990632	0.154655583	0.047666353
2019-07-18T19:05:00	0.2597	13.698	204.5	0.667060445	0.840461888	0.014838390	0.153084938	0.047182265
2019-07-18T19:10:00	0.2589	13.684	204.5	0.664399054	0.836414307	0.014727627	0.151942209	0.046830064
2019-07-18T19:15:00	0.2594	13.670	191.4	0.665996813	0.838843533	0.014794071	0.152627705	0.047041341
2019-07-18T19:20:00	0.2611	13.656	204.4	0.671848103	0.847758508	0.015038743	0.155151936	0.047819334
2019-07-18T19:25:00	0.2616	13.641	204.4	0.673442588	0.850192951	0.015105781	0.155843561	0.048032499
2019-07-18T19:30:00	0.2614	13.625	191.2	0.672748260	0.849132590	0.015076570	0.155542190	0.047939614
2019-07-18T19:35:00	0.2619	13.609	204.2	0.674342350	0.851567664	0.015143680	0.156234556	0.048153007
2019-07-18T19:40:00	0.2628	13.592	204.1	0.677242268	0.856003077	0.015266167	0.157498229	0.048542484
2019-07-18T19:45:00	0.2625	13.575	204.1	0.676222015	0.854441779	0.015223014	0.157053032	0.048405270
2019-07-18T19:50:00	0.2631	13.558	204.0	0.678141092	0.857379295	0.015304237	0.157890989	0.048663536
2019-07-18T19:55:00	0.2633	13.541	203.8	0.678753643	0.858317590	0.015330210	0.158158950	0.048746125
2019-07-18T20:00:00	0.2633	13.523	203.8	0.679039695	0.858755869	0.015342347	0.158284166	0.048784717
2019-07-18T20:05:00	0.2635	13.505	203.7	0.679652095	0.859694408	0.015368348	0.158552412	0.048867393
2019-07-18T20:10:00	0.2628	13.487	203.6	0.677326490	0.856132003	0.015269732	0.157535010	0.048553820
2019-07-18T20:15:00	0.2635	13.469	203.6	0.679571364	0.859570665	0.015364919	0.158517036	0.048856490
2019-07-18T20:20:00	0.2641	13.451	203.4	0.681488679	0.862511015	0.015446463	0.159358314	0.049115780
2019-07-18T20:25:00	0.2641	13.433	190.2	0.681448334	0.862449110	0.015444745	0.159340587	0.049110316
2019-07-18T20:30:00	0.2639	13.415	202.1	0.680755531	0.861386302	0.015415255	0.159036347	0.049016547
2019-07-18T20:35:00	0.2660	13.397	202.0	0.687560253	0.871843171	0.015706190	0.162037869	0.049941645
2019-07-18T20:40:00	0.2642	13.379	201.9	0.681979653	0.863264471	0.015467381	0.159574120	0.049182293
2019-07-18T20:45:00	0.2633	13.360	202.0	0.679002761	0.858699277	0.015340780	0.158267996	0.048779733
2019-07-18T20:50:00	0.2634	13.343	201.8	0.679288793	0.859137587	0.015352920	0.158393248	0.048818337
2019-07-18T20:55:00	0.2645	13.325	201.8	0.682836980	0.864580638	0.015503943	0.159951324	0.049298552
2019-07-18T21:00:00	0.2641	13.307	201.7	0.681492115	0.862516287	0.015446610	0.159359824	0.049116245
2019-07-18T21:05:00	0.2613	13.290	188.9	0.672306821	0.848458650	0.015058013	0.155350744	0.047880608
2019-07-18T21:10:00	0.2609	13.273	201.5	0.670958060	0.846400551	0.015001390	0.154766573	0.047700561
2019-07-18T21:15:00	0.2631	13.256	201.7	0.678107589	0.857327984	0.015302817	0.157876339	0.048659021
2019-07-18T21:20:00	0.2614	13.240	201.6	0.672839474	0.849271867	0.015080406	0.155581764	0.047951811
2019-07-18T21:25:00	0.2606	13.223	188.6	0.670182318	0.845217540	0.014968874	0.154431109	0.047597168
2019-07-18T21:30:00	0.2609	13.205	188.6	0.671123348	0.846652683	0.015008323	0.154838100	0.047722606
2019-07-18T21:35:00	0.2642	13.190	188.6	0.681862069	0.863084006	0.015462370	0.159522422	0.049166360
2019-07-18T21:40:00	0.2621	13.175	188.5	0.674965867	0.852520720	0.015169972	0.156505809	0.048236610
2019-07-18T21:45:00	0.2631	13.160	188.4	0.678191791	0.857456942	0.015306386	0.157913158	0.048670369
2019-07-18T21:50:00	0.2624	13.146	188.3	0.675865253	0.853896036	0.015207940	0.156897512	0.048357337
2019-07-18T21:55:00	0.2615	13.131	188.4	0.672883359	0.849338877	0.015082251	0.155600806	0.047957679
2019-07-18T22:00:00	0.2613	13.117	201.1	0.672515936	0.848777883	0.015066802	0.155441419	0.047908555
2019-07-18T22:05:00	0.2617	13.104	201.0	0.673592286	0.850421621	0.015112083	0.155908577	0.048052538
2019-07-18T22:10:00	0.2626	13.092	188.0	0.676628612	0.855063888	0.015240204	0.157230375	0.048459929
2019-07-18T22:15:00	0.2627	13.079	188.0	0.677050625	0.855709736	0.015258056	0.157414553	0.048516694
2019-07-18T22:20:00	0.2631	13.066	200.7	0.678125635	0.857355622	0.015303582	0.157884230	0.048661453
2019-07-18T22:25:00	0.2631	13.053	200.0	0.678221004	0.857501684	0.015307624	0.157925933	0.048674306
2019-07-18T22:30:00	0.2641	13.040	199.9	0.681579675	0.862650643	0.015450339	0.159398299	0.049128104
2019-07-18T22:35:00	0.2631	13.026	199.8	0.678085253	0.857293777	0.015301870	0.157866574	0.048656011
2019-07-18T22:40:00	0.2648	13.013	199.8	0.683726710	0.865947219	0.015541935	0.160343281	0.049419356
2019-07-18T22:45:00	0.2631	13.000	199.7	0.678275991	0.857585903	0.015309955	0.157949980	0.048681718
2019-07-18T22:50:00	0.2641	12.985	199.7	0.681634611	0.862734943	0.015452679	0.159422442	0.049135545
2019-07-18T22:55:00	0.2644	12.969	199.6	0.682382172	0.863882339	0.015484542	0.159751161	0.049236859
2019-07-18T23:00:00	0.2653	12.954	199.5	0.685411189	0.868536368	0.015613998	0.161086735	0.049648496
2019-07-18T23:05:00	0.2655	12.940	199.3	0.686157978	0.869685013	0.015646002	0.161416915	0.049750261
2019-07-18T23:10:00	0.2636	12.925	199.4	0.679731974	0.859816850	0.015371741	0.158587419	0.048878183
2019-07-18T23:15:00	0.2622	12.910	186.5	0.675255658	0.852963784	0.015182200	0.156631963	0.048275492
2019-07-18T23:20:00	0.2656	12.895	199.1	0.686443449	0.870124227	0.015658245	0.161543225	0.049789191
2019-07-18T23:25:00	0.2633	12.879	199.0	0.679038844	0.858754566	0.015342311	0.158283794	0.048784602
2019-07-18T23:30:00	0.2643	12.864	199.0	0.682070636	0.863404119	0.015471259	0.159614128	0.049194624
2019-07-18T23:35:00	0.2632	12.851	186.2	0.678576685	0.858046495	0.015322704	0.158081515	0.048722258
2019-07-18T23:40:00	0.2637	12.835	186.1	0.680303900	0.860693691	0.015396047	0.158838181	0.048955470
2019-07-18T23:45:00	0.2636	12.821	198.7	0.679746574	0.859839231	0.015372361	0.158593818	0.048880155
2019-07-18T23:50:00	0.2656	12.807	198.7	0.686362868	0.870000242	0.015654788	0.161507566	0.049778200
2019-07-18T23:55:00	0.2644	12.792	198.5	0.682546942	0.864135302	0.015491569	0.159823662	0.049259205
2019-07-19T00:00:00	0.2640	12.779	198.5	0.681337605	0.862279217	0.015440030	0.159291941	0.049095323
2019-07-19T00:05:00	0.2647	12.765	198.4	0.683389551	0.865429279	0.015527533	0.160194691	0.049373560
2019-07-19T00:10:00	0.2641	12.751	198.3	0.681528173	0.862571616	0.015448145	0.159375668	0.049121129
2019-07-19T00:15:00	0.2646	12.736	198.3	0.683253992	0.865221063	0.015521744	0.160134969	0.049355153
2019-07-19T00:20:00	0.2648	12.722	198.3	0.683675239	0.865868144	0.015539736	0.160320592	0.049412363
2019-07-19T00:25:00	0.2643	12.708	198.0	0.682140156	0.863510827	0.015474223	0.159644702	0.049204048
2019-07-19T00:30:00	0.2646	12.693	198.0	0.683213667	0.865159127	0.015520022	0.160117206	0.049349678
2019-07-19T00:35:00	0.2646	12.679	197.9	0.682982859	0.864804653	0.015510169	0.160015554	0.049318348
2019-07-19T00:40:00	0.2650	12.663	197.8	0.684382070	0.866954258	0.015569951	0.160632312	0.049508439
2019-07-19T00:45:00	0.2646	12.650	197.7	0.683173341	0.865097191	0.015518300	0.160099443	0.049344203
2019-07-19T00:50:00	0.2651	12.634	197.6	0.684898382	0.867747893	0.015592041	0.160860213	0.049578680
2019-07-19T00:55:00	0.2648	12.620	197.5	0.683689824	0.865890550	0.015540359	0.160327021	0.049414345
2019-07-19T01:00:00	0.2632	12.605	197.5	0.678565518	0.858029389	0.015322231	0.158076629	0.048720752
2019-07-19T01:05:00	0.2613	12.589	197.4	0.672453121	0.848681987	0.015064162	0.155414179	0.047900159
2019-07-19T01:10:00	0.2621	12.573	197.3	0.674836879	0.852323532	0.015164531	0.156449674	0.048219309
2019-07-19T01:15:00	0.2633	12.555	197.2	0.678851584	0.858467645	0.015334365	0.158201817	0.048759336
2019-07-19T01:20:00	0.2645	12.539	197.0	0.682861872	0.864618862	0.015505005	0.159962283	0.049301929
2019-07-19T01:25:00	0.2636	12.523	197.0	0.680021385	0.860260522	0.015384038	0.158714286	0.048917284
2019-07-19T01:30:00	0.2642	12.507	196.9	0.681747917	0.862908820	0.015457506	0.159472242	0.049150894
2019-07-19T01:35:00	0.2636	12.491	196.8	0.679885701	0.860052507	0.015378272	0.158654800	0.048898950
2019-07-19T01:40:00	0.2635	12.476	196.8	0.679654682	0.859698374	0.015368458	0.158553546	0.048867743
2019-07-19T01:45:00	0.2644	12.460	196.6	0.682359862	0.863848090	0.015483590	0.159741345	0.049233834
2019-07-19T01:50:00	0.2642	12.445	196.6	0.681802850	0.862993124	0.015459847	0.159496389	0.049158336
2019-07-19T01:55:00	0.2636	12.431	196.4	0.679940663	0.860136766	0.015380608	0.158678895	0.048906376
2019-07-19T02:00:00	0.2637	12.417	196.3	0.680362293	0.860783231	0.015398530	0.158863795	0.048963365
2019-07-19T02:05:00	0.2639	12.402	196.3	0.680783874	0.861429773	0.015416461	0.159048788	0.049020381
2019-07-19T02:10:00	0.2640	12.391	196.1	0.681205406	0.862076395	0.015434401	0.159233872	0.049077426
2019-07-19T02:15:00	0.2635	12.379	183.6	0.679669283	0.859720754	0.015369078	0.158559944	0.048869715
2019-07-19T02:20:00	0.2652	12.368	183.5	0.684982428	0.867877103	0.015595638	0.160897327	0.049590119
2019-07-19T02:25:00	0.2636	12.357	195.9	0.679859939	0.860013013	0.015377178	0.158643507	0.048895470
2019-07-19T02:30:00	0.2652	12.349	183.5	0.685172806	0.868169810	0.015603789	0.160981414	0.049616035
2019-07-19T02:35:00	0.2643	12.340	195.9	0.682007986	0.863307958	0.015468589	0.159586578	0.049186133
2019-07-19T02:40:00	0.2645	12.334	195.9	0.682755471	0.864455478	0.015500465	0.159915442	0.049287492
2019-07-19T02:45:00	0.2650	12.328	195.8	0.684480709	0.867105860	0.015574170	0.160675839	0.049521854
2019-07-19T02:50:00	0.2654	12.322	195.8	0.685879347	0.869256392	0.015634057	0.161293682	0.049712279
2019-07-19T02:55:00	0.2649	12.316	195.7	0.684019239	0.866396678	0.015554437	0.160472260	0.049459109
2019-07-19T03:00:00	0.2638	12.311	195.6	0.680527154	0.861036046	0.015405541	0.158936124	0.048985657
2019-07-19T03:05:00	0.2662	12.307	195.6	0.688444555	0.873205022	0.015744209	0.162430102	0.050062535
2019-07-19T03:10:00	0.2633	12.302	195.6	0.678759670	0.858326824	0.015330466	0.158161588	0.048746937
2019-07-19T03:15:00	0.2653	12.298	195.5	0.685377752	0.868484950	0.015612566	0.161071960	0.049643942
2019-07-19T03:20:00	0.2620	12.295	195.5	0.674704444	0.852121089	0.015158946	0.156392050	0.048201549
2019-07-19T03:25:00	0.2654	12.293	183.0	0.685893923	0.869278813	0.015634682	0.161300127	0.049714266
2019-07-19T03:30:00	0.2655	12.290	183.0	0.685989090	0.869425202	0.015638761	0.161342213	0.049727237
2019-07-19T03:35:00	0.2640	12.288	195.5	0.681194248	0.862059276	0.015433926	0.159228971	0.049075915
2019-07-19T03:40:00	0.2641	12.286	195.4	0.681615732	0.862705973	0.015451875	0.159414145	0.049132988
2019-07-19T03:45:00	0.2644	12.285	195.5	0.682363298	0.863853363	0.015483737	0.159742857	0.049234300
2019-07-19T03:50:00	0.2641	12.284	182.9	0.681480107	0.862497863	0.015446098	0.159354548	0.049114619
2019-07-19T03:55:00	0.2650	12.283	195.4	0.684509872	0.867150684	0.015575417	0.160688709	0.049525821
2019-07-19T04:00:00	0.2664	12.280	182.9	0.689165028	0.874315070	0.015775220	0.162750037	0.050161142
2019-07-19T04:05:00	0.2667	12.278	182.9	0.689962950	0.875544970	0.015809602	0.163104753	0.050270469
2019-07-19T04:10:00	0.2658	12.277	195.3	0.687179920	0.871257655	0.015689853	0.161869326	0.049889698
2019-07-19T04:15:00	0.2663	12.278	182.9	0.688629444	0.873489841	0.015752164	0.162512172	0.050087830
2019-07-19T04:20:00	0.2669	12.279	195.3	0.690729189	0.876726554	0.015842657	0.163445767	0.050375573
2019-07-19T04:25:00	0.2674	12.279	195.2	0.692177308	0.878961022	0.015905225	0.164091279	0.050574526
2019-07-19T04:30:00	0.2668	12.279	195.3	0.690372294	0.876176139	0.015827256	0.163286885	0.050326604
2019-07-19T04:35:00	0.2669	12.280	195.3	0.690519236	0.876402743	0.015833596	0.163352290	0.050346762
2019-07-19T04:40:00	0.2659	12.282	182.8	0.687410979	0.871613352	0.015699777	0.161971708	0.049921254
2019-07-19T04:45:00	0.2674	12.285	182.8	0.692114315	0.878863785	0.015902501	0.164063171	0.050565863
2019-07-19T04:50:00	0.2672	12.287	182.8	0.691610664	0.878086465	0.015880727	0.163838532	0.050496627
2019-07-19T04:55:00	0.2666	12.290	195.3	0.689805370	0.875302036	0.015802809	0.163034669	0.050248868
2019-07-19T05:00:00	0.2669	12.293	182.8	0.690603152	0.876532163	0.015837217	0.163389649	0.050358277
2019-07-19T05:05:00	0.2644	12.296	195.3	0.682606850	0.864227281	0.015494124	0.159850026	0.049267331
2019-07-19T05:10:00	0.2656	12.301	195.2	0.686339218	0.869963853	0.015653774	0.161497101	0.049774975
2019-07-19T05:15:00	0.2660	12.306	195.3	0.687789075	0.872195499	0.015716023	0.162139316	0.049972912
2019-07-19T05:20:00	0.2665	12.313	182.9	0.689238358	0.874428076	0.015778378	0.162782619	0.050171184
2019-07-19T05:25:00	0.2648	12.319	182.9	0.683847852	0.866133341	0.015547112	0.160396687	0.049435817
2019-07-19T05:30:00	0.2652	12.326	195.5	0.684972831	0.867862349	0.015595228	0.160893089	0.049588813
2019-07-19T05:35:00	0.2653	12.333	195.4	0.685445843	0.868589660	0.015615482	0.161102049	0.049653216
2019-07-19T05:40:00	0.2657	12.340	195.5	0.686570330	0.870319464	0.015663688	0.161599382	0.049806499
2019-07-19T05:45:00	0.2646	12.349	182.7	0.683132682	0.865034746	0.015516564	0.160081535	0.049338684
2019-07-19T05:50:00	0.2662	12.361	195.5	0.688492714	0.873279208	0.015746281	0.162451477	0.050069123
2019-07-19T05:55:00	0.2653	12.374	195.5	0.685382734	0.868492611	0.015612779	0.161074162	0.049644621
2019-07-19T06:00:00	0.2652	12.384	183.0	0.685204030	0.868217820	0.015605126	0.160995207	0.049620286
2019-07-19T06:05:00	0.2643	12.392	195.6	0.682091248	0.863435757	0.015472138	0.159623193	0.049197418
2019-07-19T06:10:00	0.2680	12.400	195.6	0.694285293	0.882216917	0.015996538	0.165033333	0.050864876
2019-07-19T06:15:00	0.2658	12.409	195.7	0.686948513	0.870901470	0.015679918	0.161766825	0.049858106
2019-07-19T06:20:00	0.2662	12.422	195.7	0.688398129	0.873133508	0.015742212	0.162409497	0.050056184
2019-07-19T06:25:00	0.2657	12.438	183.3	0.686591249	0.870351654	0.015664586	0.161608642	0.049809353
2019-07-19T06:30:00	0.2658	12.457	195.9	0.687064052	0.871079304	0.015684878	0.161817999	0.049873879
2019-07-19T06:35:00	0.2659	12.472	196.0	0.687536794	0.871807053	0.015705182	0.162027471	0.049938440
2019-07-19T06:40:00	0.2676	12.492	196.0	0.692890381	0.880061969	0.015936083	0.164409631	0.050672645
2019-07-19T06:45:00	0.2673	12.509	196.1	0.692061599	0.878782414	0.015900221	0.164039651	0.050558614
2019-07-19T06:50:00	0.2669	12.522	196.2	0.690581924	0.876499424	0.015836301	0.163380198	0.050355364
2019-07-19T06:55:00	0.2685	12.538	196.2	0.695931065	0.884761576	0.016068021	0.165770805	0.051092172
2019-07-19T07:00:00	0.2679	12.555	196.3	0.693802818	0.881471368	0.015975614	0.164817464	0.050798343
2019-07-19T07:05:00	0.2671	12.575	196.4	0.691348034	0.877681218	0.015869379	0.163721459	0.050460544
2019-07-19T07:10:00	0.2660	12.598	196.4	0.687589243	0.871887807	0.015707436	0.162050720	0.049945606
2019-07-19T07:15:00	0.2670	12.616	196.6	0.690991200	0.877130705	0.015853968	0.163562461	0.050411539
2019-07-19T07:20:00	0.2656	12.638	196.6	0.686254871	0.869834082	0.015650157	0.161459781	0.049763473
2019-07-19T07:25:00	0.2681	12.656	196.7	0.694536778	0.882605606	0.016007450	0.165145911	0.050899574
2019-07-19T07:30:00	0.2672	12.681	196.8	0.691757224	0.878312639	0.015887061	0.163903884	0.050516769
2019-07-19T07:35:00	0.2666	12.713	196.9	0.689626550	0.875026383	0.015795102	0.162955157	0.050224362
2019-07-19T07:40:00	0.2691	12.740	197.0	0.697900847	0.887810299	0.016153798	0.166655752	0.051364921
2019-07-19T07:45:00	0.2679	12.772	197.2	0.693823695	0.881503625	0.015976519	0.164826802	0.050801221
2019-07-19T07:50:00	0.2680	12.802	197.5	0.694295565	0.882232792	0.015996984	0.165037930	0.050866293
2019-07-19T07:55:00	0.2688	12.818	197.5	0.696716919	0.885977476	0.016102213	0.166123561	0.051200895
2019-07-19T08:00:00	0.2691	12.843	197.5	0.697837952	0.887712902	0.016151055	0.166627457	0.051356201
2019-07-19T08:05:00	0.2682	12.855	197.6	0.694735900	0.882913403	0.016016093	0.165235078	0.050927056
2019-07-19T08:10:00	0.2671	12.865	197.6	0.691305919	0.877616238	0.015867560	0.163702689	0.050454759
2019-07-19T08:15:00	0.2694	12.884	197.7	0.698602547	0.888897168	0.016184413	0.166971601	0.051462269
2019-07-19T08:20:00	0.2680	12.896	185.2	0.694201130	0.882086848	0.015992887	0.164995666	0.050853267
2019-07-19T08:25:00	0.2664	12.907	197.8	0.689143460	0.874281834	0.015774291	0.162740455	0.050158189
2019-07-19T08:30:00	0.2678	12.917	197.9	0.693519466	0.881033611	0.015963332	0.164690757	0.050759291
2019-07-19T08:35:00	0.2673	12.927	198.0	0.692040380	0.878749662	0.015899304	0.164030185	0.050555696
2019-07-19T08:40:00	0.2670	12.937	198.0	0.690886066	0.876968529	0.015849428	0.163515632	0.050397106
2019-07-19T08:45:00	0.2676	12.945	198.1	0.692984518	0.880207346	0.015940159	0.164451683	0.050685606
2019-07-19T08:50:00	0.2668	12.952	198.2	0.690203785	0.875916297	0.015819988	0.163211896	0.050303491
2019-07-19T08:55:00	0.2678	12.959	198.2	0.693603314	0.881163142	0.015966966	0.164728246	0.050770845
2019-07-19T09:00:00	0.2684	12.967	185.5	0.695375269	0.883901953	0.016043861	0.165521558	0.051015352
2019-07-19T09:05:00	0.2675	12.973	198.2	0.692596350	0.879607948	0.015923355	0.164278321	0.050632174
2019-07-19T09:10:00	0.2675	12.981	198.2	0.692743203	0.879834698	0.015929711	0.164343896	0.050652385
2019-07-19T09:15:00	0.2676	12.989	198.3	0.692890049	0.880061457	0.015936069	0.164409483	0.050672599
2019-07-19T09:20:00	0.2679	12.998	198.3	0.694012252	0.881794973	0.015984695	0.164911151	0.050827218
2019-07-19T09:25:00	0.2674	13.006	198.3	0.692208141	0.879008617	0.015906559	0.164105038	0.050578766
2019-07-19T09:30:00	0.2669	13.019	198.4	0.690728526	0.876725531	0.015842628	0.163445472	0.050375482
2019-07-19T09:35:00	0.2658	13.029	198.4	0.686969098	0.870933153	0.015680802	0.161775941	0.049860916
2019-07-19T09:40:00	0.2657	13.043	198.5	0.686790472	0.870658236	0.015673135	0.161696840	0.049836536
2019-07-19T09:45:00	0.2683	13.060	198.5	0.695071169	0.883431729	0.016030651	0.165385268	0.050973346
2019-07-19T09:50:00	0.2683	13.075	198.6	0.695217922	0.883658640	0.016037025	0.165451032	0.050993615
2019-07-19T09:55:00	0.2662	13.092	198.7	0.688208620	0.872841608	0.015734061	0.162325404	0.050030266
2019-07-19T10:00:00	0.2655	13.110	198.8	0.686075878	0.869558710	0.015642482	0.161380599	0.049739068
2019-07-19T10:05:00	0.2661	13.123	198.9	0.687981040	0.872491112	0.015724275	0.162224447	0.049999150
2019-07-19T10:10:00	0.2667	13.137	198.9	0.689885211	0.875425121	0.015806251	0.163070176	0.050259812
2019-07-19T10:15:00	0.2684	13.151	199.0	0.695364669	0.883885561	0.016043401	0.165516807	0.051013887
2019-07-19T10:20:00	0.2700	13.164	199.0	0.700835954	0.892359349	0.016282059	0.167979006	0.051772761
2019-07-19T10:25:00	0.2697	13.175	199.2	0.699813548	0.890773899	0.016237320	0.167517439	0.051630502
2019-07-19T10:30:00	0.2721	13.191	199.2	0.707546096	0.902787351	0.016577305	0.171025002	0.052711567
2019-07-19T10:35:00	0.2713	13.203	199.3	0.704905335	0.898678762	0.016460776	0.169822797	0.052341035
2019-07-19T10:40:00	0.2702	13.219	199.3	0.701289505	0.893062965	0.016301927	0.168183977	0.051835935
2019-07-19T10:45:00	0.2695	13.231	199.4	0.698968901	0.889464785	0.016200409	0.167136629	0.051513132
2019-07-19T10:50:00	0.2699	13.246	199.6	0.700218376	0.891401560	0.016255027	0.167700119	0.051686805
2019-07-19T10:55:00	0.2697	13.262	199.6	0.699844979	0.890822625	0.016238695	0.167531619	0.051634872
2019-07-19T11:00:00	0.2691	13.279	199.7	0.697848214	0.887728793	0.016151502	0.166632074	0.051357623
2019-07-19T11:05:00	0.2697	13.290	199.8	0.699747267	0.890671149	0.016234422	0.167487540	0.051621286
2019-07-19T11:10:00	0.2690	13.300	199.9	0.697425688	0.887074566	0.016133084	0.166442054	0.051299057
2019-07-19T11:15:00	0.2708	13.310	200.0	0.703218184	0.896057009	0.016386556	0.169057074	0.052105032
2019-07-19T11:20:00	0.2705	13.323	200.0	0.702196441	0.894470472	0.016341694	0.168594241	0.051962383
2019-07-19T11:25:00	0.2703	13.343	200.4	0.701823245	0.893891208	0.016325324	0.168425357	0.051910331
2019-07-19T11:30:00	0.2696	13.364	200.5	0.699502977	0.890292475	0.016223743	0.167377365	0.051587329
2019-07-19T11:35:00	0.2721	13.390	200.6	0.707560072	0.902809113	0.016577923	0.171031377	0.052713531
2019-07-19T11:40:00	0.2720	13.413	200.7	0.707187419	0.902228953	0.016561452	0.170861451	0.052661158
2019-07-19T11:45:00	0.2719	13.437	200.8	0.706814728	0.901648856	0.016544989	0.170691597	0.052608808
2019-07-19T11:50:00	0.2714	13.455	200.8	0.705145853	0.899052717	0.016471372	0.169932106	0.052374726
2019-07-19T11:55:00	0.2719	13.466	200.8	0.706717202	0.901497075	0.016540682	0.170647164	0.052595113
2019-07-19T12:00:00	0.2715	13.476	200.9	0.705696430	0.899908938	0.016495639	0.170182471	0.052451890
2019-07-19T12:05:00	0.2732	13.483	201.0	0.711152384	0.908407950	0.016737144	0.172674027	0.053219812
2019-07-19T12:10:00	0.2726	13.491	201.0	0.709161744	0.905304027	0.016648814	0.171762742	0.052938945
2019-07-19T12:15:00	0.2716	13.501	201.1	0.705874138	0.900185356	0.016503476	0.170263322	0.052476809
2019-07-19T12:20:00	0.2706	13.511	201.1	0.702583595	0.895071529	0.016358685	0.168769537	0.052016410
2019-07-19T12:25:00	0.2720	13.531	201.2	0.707072512	0.902050086	0.016556375	0.170809072	0.052645015
2019-07-19T12:30:00	0.2731	13.546	201.3	0.710908849	0.908028031	0.016726324	0.172562403	0.053185409
2019-07-19T12:35:00	0.2730	13.559	201.4	0.710536534	0.907447312	0.016709790	0.172391827	0.053132835
2019-07-19T12:40:00	0.2715	13.574	201.4	0.705630255	0.899806013	0.016492722	0.170152368	0.052442612
2019-07-19T12:45:00	0.2716	13.588	201.4	0.705905517	0.900234167	0.016504860	0.170277600	0.052481210
2019-07-19T12:50:00	0.2707	13.602	201.5	0.702939305	0.895623882	0.016374304	0.168930680	0.052066076
2019-07-19T12:55:00	0.2724	13.618	201.6	0.708399340	0.904116156	0.016615049	0.171414402	0.052831583
2019-07-19T13:00:00	0.2723	13.638	201.7	0.708026771	0.903535856	0.016598563	0.171244313	0.052779160
2019-07-19T13:05:00	0.2726	13.661	201.8	0.709273176	0.905477687	0.016653752	0.171813686	0.052954647
2019-07-19T13:10:00	0.2712	13.673	201.8	0.704689362	0.898343012	0.016451266	0.169724674	0.052310793
2019-07-19T13:15:00	0.2703	13.686	201.9	0.701722169	0.893734342	0.016320892	0.168379632	0.051896238
2019-07-19T13:20:00	0.2711	13.699	202.0	0.704267622	0.897687495	0.016432701	0.169533152	0.052251764
2019-07-19T13:25:00	0.2711	13.709	202.0	0.704218825	0.897611660	0.016430554	0.169510999	0.052244936
2019-07-19T13:30:00	0.2701	13.719	202.1	0.700926801	0.892500270	0.016286038	0.168020051	0.051785412
2019-07-19T13:35:00	0.2704	13.728	202.2	0.701851241	0.893934659	0.016326552	0.168438023	0.051914235
2019-07-19T13:40:00	0.2692	13.726	202.2	0.698232406	0.888323800	0.016168260	0.166804954	0.051410907
2019-07-19T13:45:00	0.2711	13.726	202.2	0.704347810	0.897812121	0.016436230	0.169569558	0.052262985
2019-07-19T13:50:00	0.2716	13.739	202.3	0.705919500	0.900255918	0.016505477	0.170283963	0.052483171
2019-07-19T13:55:00	0.2723	13.762	202.4	0.708138238	0.903709460	0.016603494	0.171295191	0.052794842
2019-07-19T14:00:00	0.2711	13.788	202.5	0.704201421	0.897584612	0.016429788	0.169503099	0.052242501
2019-07-19T14:05:00	0.2690	13.803	202.6	0.697338507	0.886939596	0.016129285	0.166402860	0.051286978
2019-07-19T14:10:00	0.2699	13.818	202.7	0.700536054	0.891894199	0.016268929	0.167843546	0.051731011
2019-07-19T14:15:00	0.2684	13.826	202.8	0.695616411	0.884274883	0.016054341	0.165629674	0.051048674
2019-07-19T14:20:00	0.2693	13.832	202.8	0.698490792	0.888724040	0.016179535	0.166921276	0.051446759
2019-07-19T14:25:00	0.2684	13.838	202.9	0.695518587	0.884123591	0.016050089	0.165585810	0.051035155
2019-07-19T14:30:00	0.2698	13.845	203.0	0.700016133	0.891087977	0.016246180	0.167608843	0.051658673
2019-07-19T14:35:00	0.2672	13.847	203.0	0.691519254	0.877945410	0.015876777	0.163797779	0.050484066
2019-07-19T14:40:00	0.2675	13.854	203.0	0.692446067	0.879375919	0.015916852	0.164211228	0.050611495
2019-07-19T14:45:00	0.2653	13.860	203.1	0.685561098	0.868766906	0.015620419	0.161152986	0.049668915
2019-07-19T14:50:00	0.2664	13.870	203.2	0.689094462	0.874206328	0.015772181	0.162718687	0.050151480
2019-07-19T14:55:00	0.2648	13.884	203.2	0.683833453	0.866111217	0.015546496	0.160390338	0.049433860
2019-07-19T15:00:00	0.2653	13.894	203.2	0.685413957	0.868540625	0.015614116	0.161087959	0.049648873
2019-07-19T15:05:00	0.2653	13.895	203.3	0.685364909	0.868465200	0.015612015	0.161066285	0.049642193
2019-07-19T15:10:00	0.2672	13.905	203.4	0.691501790	0.877918461	0.015876022	0.163789994	0.050481667
2019-07-19T15:15:00	0.2660	13.918	203.4	0.687547085	0.871822897	0.015705624	0.162032032	0.049939846
2019-07-19T15:20:00	0.2671	13.931	203.6	0.691403856	0.877767348	0.015871791	0.163746339	0.050468212
2019-07-19T15:25:00	0.2639	13.946	203.6	0.680930019	0.861653939	0.015422680	0.159112944	0.049040155
2019-07-19T15:30:00	0.2641	13.963	203.7	0.681533346	0.862579553	0.015448366	0.159377941	0.049121829
2019-07-19T15:35:00	0.2655	13.975	203.8	0.686048093	0.869515967	0.015641290	0.161368309	0.049735280
2019-07-19T15:40:00	0.2658	13.988	190.8	0.686976292	0.870944225	0.015681111	0.161779127	0.049861898
2019-07-19T15:45:00	0.2639	13.996	203.9	0.680733581	0.861352635	0.015414321	0.159026713	0.049013577
2019-07-19T15:50:00	0.2635	14.010	204.0	0.679705545	0.859776338	0.015370618	0.158575836	0.048874613
2019-07-19T15:55:00	0.2640	14.018	204.0	0.681287837	0.862202860	0.015437911	0.159270079	0.049088585
2019-07-19T16:00:00	0.2628	14.026	204.1	0.677322052	0.856125208	0.015269544	0.157533071	0.048553223
2019-07-19T16:05:00	0.2645	14.032	204.2	0.682687698	0.864351415	0.015497574	0.159885610	0.049278298
2019-07-19T16:10:00	0.2630	14.039	204.2	0.677937662	0.857067756	0.015295616	0.157802051	0.048636125
2019-07-19T16:15:00	0.2632	14.039	204.2	0.678735120	0.858289211	0.015329424	0.158150844	0.048743626
2019-07-19T16:20:00	0.2632	14.042	204.2	0.678553169	0.858010471	0.015321707	0.158071226	0.048719087
2019-07-19T16:25:00	0.2637	14.048	204.3	0.680329512	0.860732964	0.015397136	0.158849416	0.048958933
2019-07-19T16:30:00	0.2642	14.048	204.3	0.681778838	0.862956272	0.015458824	0.159485834	0.049155083
2019-07-19T16:35:00	0.2635	14.049	204.4	0.679639416	0.859674973	0.015367809	0.158546856	0.048865681
2019-07-19T16:40:00	0.2613	14.054	204.4	0.672270189	0.848402733	0.015056474	0.155334863	0.047875713
2019-07-19T16:45:00	0.2620	14.064	204.5	0.674703259	0.852119278	0.015158896	0.156391535	0.048201390
2019-07-19T16:50:00	0.2611	14.068	204.5	0.671578564	0.847347195	0.015027426	0.155035180	0.047783348
2019-07-19T16:55:00	0.2645	14.070	204.6	0.682826713	0.864564873	0.015503505	0.159946804	0.049297158
2019-07-19T17:00:00	0.2643	14.069	204.5	0.682318862	0.863785149	0.015481842	0.159723308	0.049228275
2019-07-19T17:05:00	0.2621	14.073	204.6	0.674955060	0.852504198	0.015169517	0.156501106	0.048235161
2019-07-19T17:10:00	0.2632	14.078	204.7	0.678692341	0.858223674	0.015327610	0.158132123	0.048737856
2019-07-19T17:15:00	0.2620	14.075	204.7	0.674590771	0.851947338	0.015154153	0.156342598	0.048186307
2019-07-19T17:20:00	0.2610	14.069	204.7	0.671465979	0.847175410	0.015022700	0.154986426	0.047768322
2019-07-19T17:25:00	0.2610	14.062	204.6	0.671283664	0.846897253	0.015015049	0.154907492	0.047743993
2019-07-19T17:30:00	0.2611	14.056	204.7	0.671755530	0.847617236	0.015034855	0.155111831	0.047806973
2019-07-19T17:35:00	0.2612	14.048	204.6	0.671900297	0.847838163	0.015040935	0.155174550	0.047826303
2019-07-19T17:40:00	0.2594	14.044	204.6	0.666153571	0.839081985	0.014800599	0.152695047	0.047062096
2019-07-19T17:45:00	0.2606	14.038	204.7	0.670227124	0.845285855	0.014970751	0.154450475	0.047603136
2019-07-19T17:50:00	0.2600	14.033	204.6	0.668080899	0.842015458	0.014880976	0.153524284	0.047317675
2019-07-19T17:55:00	0.2588	14.023	204.6	0.664295081	0.836256302	0.014723308	0.151897656	0.046816333
2019-07-19T18:00:00	0.2591	14.013	204.7	0.665095537	0.837472967	0.014756571	0.152240826	0.046922101
2019-07-19T18:05:00	0.2599	14.001	204.5	0.667860848	0.841680370	0.014871787	0.153429487	0.047288458
2019-07-19T18:10:00	0.2598	13.990	204.5	0.667350904	0.840904001	0.014850505	0.153209925	0.047220787
2019-07-19T18:15:00	0.2585	13.980	204.5	0.663236504	0.834648145	0.014679379	0.151444449	0.046676650
2019-07-19T18:20:00	0.2583	13.969	204.4	0.662398014	0.833375019	0.014644632	0.151085970	0.046566163
2019-07-19T18:25:00	0.2583	13.960	204.4	0.662543155	0.833595351	0.014650644	0.151147990	0.046585279
2019-07-19T18:30:00	0.2587	13.951	204.4	0.663999588	0.835807302	0.014711039	0.151771076	0.046777320
2019-07-19T18:35:00	0.2581	13.940	204.4	0.661849673	0.832542768	0.014621932	0.150851779	0.046493983
2019-07-19T18:40:00	0.2590	13.929	204.4	0.664945154	0.837244349	0.014750319	0.152176323	0.046902221
2019-07-19T18:45:00	0.2594	13.919	204.3	0.666073060	0.838959512	0.014797246	0.152660458	0.047051436
2019-07-19T18:50:00	0.2595	13.908	204.3	0.666545603	0.839678416	0.014816929	0.152863529	0.047114024
2019-07-19T18:55:00	0.2588	13.898	204.3	0.664069454	0.835913456	0.014713939	0.151801000	0.046786542
2019-07-19T19:00:00	0.2599	13.888	204.2	0.667817941	0.841615038	0.014869996	0.153411007	0.047282762
2019-07-19T19:05:00	0.2600	13.877	204.1	0.667962865	0.841835714	0.014876047	0.153473432	0.047302002
2019-07-19T19:10:00	0.2595	13.866	204.1	0.666470443	0.839564058	0.014813798	0.152831220	0.047104066
2019-07-19T19:15:00	0.2609	13.856	204.0	0.671197931	0.846766460	0.015011452	0.154870381	0.047732555
2019-07-19T19:20:00	0.2613	13.849	204.0	0.672323896	0.848484715	0.015058731	0.155358147	0.047882890
2019-07-19T19:25:00	0.2609	13.840	204.0	0.671160399	0.846709204	0.015009877	0.154854136	0.047727549
2019-07-19T19:30:00	0.2619	13.832	204.0	0.674247953	0.851423405	0.015139702	0.156193511	0.048140357
2019-07-19T19:35:00	0.2618	13.822	204.0	0.674065778	0.851145025	0.015132025	0.156114316	0.048115948
2019-07-19T19:40:00	0.2622	13.812	203.9	0.675190855	0.852864699	0.015179466	0.156603748	0.048266796
2019-07-19T19:45:00	0.2617	13.802	203.9	0.673701399	0.850588308	0.015116678	0.155955976	0.048067146
2019-07-19T19:50:00	0.2626	13.791	203.8	0.676460170	0.854806149	0.015233082	0.157156894	0.048437281
2019-07-19T19:55:00	0.2611	13.782	203.9	0.671702000	0.847535550	0.015032608	0.155088643	0.047799826
2019-07-19T20:00:00	0.2623	13.772	203.8	0.675769341	0.853749337	0.015203889	0.156855715	0.048344455
2019-07-19T20:05:00	0.2630	13.762	203.7	0.677873573	0.856969615	0.015292901	0.157774037	0.048627490
2019-07-19T20:10:00	0.2625	13.751	203.7	0.676385214	0.854691463	0.015229913	0.157124201	0.048427205
2019-07-19T20:15:00	0.2620	13.741	203.7	0.674569450	0.851914750	0.015153254	0.156333324	0.048183449
2019-07-19T20:20:00	0.2622	13.732	203.8	0.675367645	0.853135021	0.015186927	0.156680729	0.048290522
2019-07-19T20:25:00	0.2601	13.725	203.6	0.668317140	0.842375247	0.014890844	0.153626089	0.047349053
2019-07-19T20:30:00	0.2622	13.716	203.6	0.675330156	0.853077696	0.015185345	0.156664403	0.048285491
2019-07-19T20:35:00	0.2625	13.707	203.5	0.676128185	0.854298235	0.015219049	0.157012121	0.048392661
2019-07-19T20:40:00	0.2601	13.697	203.4	0.668424484	0.842538744	0.014895329	0.153672359	0.047363314
2019-07-19T20:45:00	0.2618	13.687	203.5	0.674130119	0.851243341	0.015134736	0.156142284	0.048124568
2019-07-19T20:50:00	0.2632	13.678	203.4	0.678521222	0.857961533	0.015320352	0.158057249	0.048714779
2019-07-19T20:55:00	0.2635	13.670	203.4	0.679644924	0.859683416	0.015368043	0.158549270	0.048866425
2019-07-19T21:00:00	0.2637	13.660	203.3	0.680115707	0.860405135	0.015388047	0.158755645	0.048930031
2019-07-19T21:05:00	0.2628	13.652	203.2	0.677322237	0.856125491	0.015269552	0.157533152	0.048553247
2019-07-19T21:10:00	0.2619	13.641	203.3	0.674199791	0.851349806	0.015137672	0.156172572	0.048133903
2019-07-19T21:15:00	0.2619	13.631	203.2	0.674344460	0.851570889	0.015143769	0.156235474	0.048153290
2019-07-19T21:20:00	0.2612	13.622	203.1	0.672200666	0.848296610	0.015053552	0.155304725	0.047866425
2019-07-19T21:25:00	0.2616	13.614	203.1	0.673326320	0.850015361	0.015100888	0.155793074	0.048016939
2019-07-19T21:30:00	0.2611	13.604	203.0	0.671836101	0.847740192	0.015038239	0.155146736	0.047817731
2019-07-19T21:35:00	0.2610	13.594	203.0	0.671326715	0.846962933	0.015016855	0.154926129	0.047749738
2019-07-19T21:40:00	0.2608	13.585	203.0	0.670817258	0.846185788	0.014995485	0.154705655	0.047681785
2019-07-19T21:45:00	0.2615	13.576	203.0	0.672924354	0.849401477	0.015083975	0.155618594	0.047963162
2019-07-19T21:50:00	0.2612	13.566	203.0	0.672088100	0.848124793	0.015048823	0.155255934	0.047851387
2019-07-19T21:55:00	0.2612	13.557	202.9	0.671905816	0.847846586	0.015041166	0.155176942	0.047827040
2019-07-19T22:00:00	0.2625	13.547	202.8	0.676299601	0.854560478	0.015226294	0.157086864	0.048415697
2019-07-19T22:05:00	0.2638	13.537	202.7	0.680497479	0.860990537	0.015404279	0.158923104	0.048981644
2019-07-19T22:10:00	0.2634	13.531	202.7	0.679145909	0.858918626	0.015346855	0.158330673	0.048799051
2019-07-19T22:15:00	0.2616	13.523	202.7	0.673219640	0.849852425	0.015096398	0.155746758	0.048002663
2019-07-19T22:20:00	0.2612	13.514	202.6	0.672192406	0.848284002	0.015053205	0.155301145	0.047865321
2019-07-19T22:25:00	0.2619	13.505	202.6	0.674434598	0.851708645	0.015147568	0.156274672	0.048165372
2019-07-19T22:30:00	0.2630	13.495	202.5	0.677981670	0.857135148	0.015297481	0.157821288	0.048642054
2019-07-19T22:35:00	0.2635	13.488	202.5	0.679567631	0.859564942	0.015364760	0.158515401	0.048855986
2019-07-19T22:40:00	0.2647	13.481	202.5	0.683435746	0.865500237	0.015529505	0.160215045	0.049379833
2019-07-19T22:45:00	0.2627	13.474	202.4	0.676863300	0.855423035	0.015250131	0.157332785	0.048491492
2019-07-19T22:50:00	0.2623	13.466	202.3	0.675510381	0.853353292	0.015192953	0.156742895	0.048309683
2019-07-19T22:55:00	0.2612	13.459	202.3	0.672195332	0.848288468	0.015053328	0.155302413	0.047865712
2019-07-19T23:00:00	0.2620	13.451	202.2	0.674764333	0.852212634	0.015161472	0.156418107	0.048209580
2019-07-19T23:05:00	0.2637	13.444	202.2	0.680269419	0.860640818	0.015394581	0.158823057	0.048950809
2019-07-19T23:10:00	0.2628	13.435	202.2	0.677285286	0.856068927	0.015267988	0.157517015	0.048548274
2019-07-19T23:15:00	0.2623	13.427	202.2	0.675605819	0.853499244	0.015196983	0.156784469	0.048322496
2019-07-19T23:20:00	0.2617	13.419	202.0	0.673598691	0.850431406	0.015112353	0.155911360	0.048053395
2019-07-19T23:25:00	0.2631	13.411	202.1	0.678126189	0.857356471	0.015303605	0.157884473	0.048661528
2019-07-19T23:30:00	0.2645	13.402	202.0	0.682974143	0.864791269	0.015509797	0.160011716	0.049317165
2019-07-19T23:35:00	0.2648	13.393	201.9	0.683906040	0.866222745	0.015549599	0.160422343	0.049443724
2019-07-19T23:40:00	0.2639	13.383	201.9	0.680924883	0.861646061	0.015422461	0.159110689	0.049039460
2019-07-19T23:45:00	0.2647	13.373	201.8	0.683487737	0.865580101	0.015531726	0.160237955	0.049386894
2019-07-19T23:50:00	0.2664	13.363	201.8	0.688979688	0.874029469	0.015767239	0.162667703	0.050135766
2019-07-19T23:55:00	0.2648	13.353	201.7	0.683721430	0.865939108	0.015541710	0.160340953	0.049418639
2019-07-20T00:00:00	0.2659	13.343	201.6	0.687259486	0.871380136	0.015693270	0.161904578	0.049900563
2019-07-20T00:05:00	0.2660	13.332	201.7	0.687864682	0.872311925	0.015719273	0.162172843	0.049983245
2019-07-20T00:10:00	0.2653	13.321	201.5	0.685538475	0.868732115	0.015619450	0.161142988	0.049665834
2019-07-20T00:15:00	0.2653	13.311	201.5	0.685492344	0.868661171	0.015617474	0.161122600	0.049659550
2019-07-20T00:20:00	0.2672	13.301	188.5	0.691631922	0.878119270	0.015881646	0.163848011	0.050499548
2019-07-20T00:25:00	0.2653	13.290	188.5	0.685400080	0.868519285	0.015613522	0.161081827	0.049646983
2019-07-20T00:30:00	0.2641	13.280	201.3	0.681441684	0.862438906	0.015444462	0.159337665	0.049109416
2019-07-20T00:35:00	0.2659	13.269	201.2	0.687262400	0.871384622	0.015693396	0.161905869	0.049900961
2019-07-20T00:40:00	0.2645	13.259	201.2	0.682653904	0.864299527	0.015496132	0.159870735	0.049273713
2019-07-20T00:45:00	0.2642	13.248	201.1	0.681955493	0.863227391	0.015466351	0.159563497	0.049179019
2019-07-20T00:50:00	0.2640	13.238	201.0	0.681256949	0.862155471	0.015436596	0.159256511	0.049084403
2019-07-20T00:55:00	0.2638	13.228	201.0	0.680558270	0.861083766	0.015406864	0.158949777	0.048989865
2019-07-20T01:00:00	0.2638	13.218	200.9	0.680512076	0.861012923	0.015404899	0.158929508	0.048983618
2019-07-20T01:05:00	0.2642	13.209	200.8	0.681770784	0.862943913	0.015458480	0.159482294	0.049153992
2019-07-20T01:10:00	0.2658	13.199	200.8	0.686939623	0.870887787	0.015679536	0.161762887	0.049856893
2019-07-20T01:15:00	0.2672	13.190	200.9	0.691450612	0.877839493	0.015873811	0.163767180	0.050474635
2019-07-20T01:20:00	0.2666	13.181	200.8	0.689777650	0.875259304	0.015801614	0.163022342	0.050245069
2019-07-20T01:25:00	0.2653	13.172	188.0	0.685498175	0.868670138	0.015617724	0.161125177	0.049660344
2019-07-20T01:30:00	0.2650	13.164	200.7	0.684474397	0.867096158	0.015573900	0.160673053	0.049520995
2019-07-20T01:35:00	0.2647	13.157	200.7	0.683450331	0.865522642	0.015530128	0.160221472	0.049381814
2019-07-20T01:40:00	0.2633	13.149	200.7	0.678837017	0.858445326	0.015333747	0.158195441	0.048757371
2019-07-20T01:45:00	0.2654	13.141	200.6	0.685639482	0.868887457	0.015623778	0.161187633	0.049679594
2019-07-20T01:50:00	0.2653	13.133	200.6	0.685267511	0.868315431	0.015607844	0.161023252	0.049628930
2019-07-20T01:55:00	0.2653	13.125	200.5	0.685547222	0.868745566	0.015619825	0.161146853	0.049667025
2019-07-20T02:00:00	0.2662	13.117	200.4	0.688432423	0.873186334	0.015743687	0.162424717	0.050060875
2019-07-20T02:05:00	0.2660	13.108	187.6	0.687735116	0.872112412	0.015713704	0.162115390	0.049965538
2019-07-20T02:10:00	0.2664	13.099	200.4	0.688991338	0.874047422	0.015767741	0.162672878	0.050137361
2019-07-20T02:15:00	0.2658	13.090	200.3	0.686991564	0.870967732	0.015681766	0.161785892	0.049863983
2019-07-20T02:20:00	0.2674	13.080	200.3	0.692153032	0.878923548	0.015904175	0.164080447	0.050571187
2019-07-20T02:25:00	0.2681	13.070	187.4	0.694383003	0.882367928	0.016000777	0.165077068	0.050878356
2019-07-20T02:30:00	0.2677	13.061	200.2	0.693361708	0.880789916	0.015956497	0.164620234	0.050737555
2019-07-20T02:35:00	0.2696	13.051	200.1	0.699488124	0.890269453	0.016223094	0.167370667	0.051585265
2019-07-20T02:40:00	0.2675	13.042	200.1	0.692619298	0.879643379	0.015924348	0.164288567	0.050635332
2019-07-20T02:45:00	0.2685	13.032	200.0	0.695823865	0.884595754	0.016063359	0.165722716	0.051077351
2019-07-20T02:50:00	0.2692	13.022	187.1	0.698051606	0.888043775	0.016160373	0.166723585	0.051385828
2019-07-20T02:55:00	0.2677	13.011	199.9	0.693131539	0.880434405	0.015946526	0.164517370	0.050705851
2019-07-20T03:00:00	0.2684	13.000	199.9	0.695360915	0.883879755	0.016043237	0.165515124	0.051013369
2019-07-20T03:05:00	0.2682	12.990	199.7	0.694989931	0.883306126	0.016027123	0.165348869	0.050962127
2019-07-20T03:10:00	0.2684	12.979	199.7	0.695593851	0.884239991	0.016053360	0.165619558	0.051045556
2019-07-20T03:15:00	0.2695	12.967	199.7	0.699120462	0.889699643	0.016207029	0.167204927	0.051534182
2019-07-20T03:20:00	0.2691	12.957	199.6	0.697775755	0.887616589	0.016148343	0.166599479	0.051347577
2019-07-20T03:25:00	0.2697	12.946	199.5	0.699677750	0.890563385	0.016231383	0.167456184	0.051611622
2019-07-20T03:30:00	0.2679	12.934	201.2	0.693784701	0.881443378	0.015974829	0.164809362	0.050795846
2019-07-20T03:35:00	0.2683	12.922	201.2	0.695038850	0.883381760	0.016029247	0.165370787	0.050968883
2019-07-20T03:40:00	0.2694	12.911	201.2	0.698890654	0.889343542	0.016196991	0.167101375	0.051502267
2019-07-20T03:45:00	0.2666	12.901	201.2	0.689743221	0.875206229	0.015800130	0.163007032	0.050240350
2019-07-20T03:50:00	0.2674	12.891	188.2	0.692299902	0.879150269	0.015910528	0.164145988	0.050591388
2019-07-20T03:55:00	0.2671	12.880	201.1	0.691278026	0.877573203	0.015866355	0.163690258	0.050450927
2019-07-20T04:00:00	0.2691	12.871	188.1	0.697732683	0.887549894	0.016146465	0.166580106	0.051341606
2019-07-20T04:05:00	0.2668	12.861	200.9	0.690157897	0.875845542	0.015818009	0.163191478	0.050297199
2019-07-20T04:10:00	0.2677	12.854	200.9	0.693312766	0.880714318	0.015954376	0.164598359	0.050730813
2019-07-20T04:15:00	0.2674	12.847	188.0	0.692239306	0.879056725	0.015907907	0.164118945	0.050583053
2019-07-20T04:20:00	0.2678	12.840	200.7	0.693442134	0.880914151	0.015959981	0.164656185	0.050748635
2019-07-20T04:25:00	0.2686	12.833	187.9	0.696269315	0.885284863	0.016082733	0.165922591	0.051138954
2019-07-20T04:30:00	0.2658	12.828	200.7	0.687063388	0.871078282	0.015684850	0.161817704	0.049873788
2019-07-20T04:35:00	0.2668	12.822	200.7	0.690220924	0.875942724	0.015820727	0.163219522	0.050305842
2019-07-20T04:40:00	0.2679	12.818	200.6	0.694025948	0.881816137	0.015985289	0.164917279	0.050829107
2019-07-20T04:45:00	0.2681	12.814	200.6	0.694578194	0.882669622	0.016009247	0.165164455	0.050905289
2019-07-20T04:50:00	0.2687	12.810	200.6	0.696430040	0.885533544	0.016089726	0.165994740	0.051161191
2019-07-20T04:55:00	0.2686	12.806	187.7	0.696007351	0.884879584	0.016071338	0.165805031	0.051102721
2019-07-20T05:00:00	0.2673	12.803	200.4	0.692008551	0.878700533	0.015897927	0.164015985	0.050551319
2019-07-20T05:05:00	0.2700	12.800	200.5	0.700682258	0.892120955	0.016275330	0.167909577	0.051751362
2019-07-20T05:10:00	0.2693	12.796	200.4	0.698312395	0.888447697	0.016171750	0.166840959	0.051422004
2019-07-20T05:15:00	0.2702	12.793	200.3	0.701460262	0.893327913	0.016309410	0.168261181	0.051859730
2019-07-20T05:20:00	0.2683	12.790	187.5	0.695193298	0.883620565	0.016035955	0.165439996	0.050990214
2019-07-20T05:25:00	0.2702	12.788	200.3	0.701264922	0.893024823	0.016300850	0.168172864	0.051832510
2019-07-20T05:30:00	0.2718	12.784	200.2	0.706678675	0.901437117	0.016538981	0.170629613	0.052589704
2019-07-20T05:35:00	0.2707	12.783	200.3	0.703015776	0.895742642	0.016377663	0.168965333	0.052076757
2019-07-20T05:40:00	0.2714	12.782	200.3	0.705187479	0.899117442	0.016473206	0.169951028	0.052380557
2019-07-20T05:45:00	0.2711	12.783	199.9	0.704117484	0.897454172	0.016426095	0.169464998	0.052230758
2019-07-20T05:50:00	0.2716	12.784	200.3	0.705964531	0.900325967	0.016507463	0.170304455	0.052489487
2019-07-20T05:55:00	0.2699	12.784	187.4	0.700354338	0.891612392	0.016260976	0.167761496	0.051705722
2019-07-20T06:00:00	0.2724	12.786	187.4	0.708360830	0.904056169	0.016613345	0.171396817	0.052826163
2019-07-20T06:05:00	0.2706	12.789	200.2	0.702754292	0.895336576	0.016366179	0.168846855	0.052040241
2019-07-20T06:10:00	0.2711	12.793	200.2	0.704277866	0.897703416	0.016433152	0.169537802	0.052253197
2019-07-20T06:15:00	0.2699	12.798	200.2	0.700288067	0.891509625	0.016258076	0.167731578	0.051696501
2019-07-20T06:20:00	0.2719	12.804	200.3	0.706999207	0.901935985	0.016553137	0.170775662	0.052634718
2019-07-20T06:25:00	0.2729	12.811	200.2	0.710139657	0.906828415	0.016692175	0.172210096	0.053076824
2019-07-20T06:30:00	0.2719	12.818	200.4	0.706804161	0.901632410	0.016544522	0.170686782	0.052607324
2019-07-20T06:35:00	0.2702	12.828	200.4	0.701195250	0.892916727	0.016297797	0.168141370	0.051822803
2019-07-20T06:40:00	0.2743	12.838	200.4	0.714699353	0.913947158	0.016895147	0.174304122	0.053722223
2019-07-20T06:45:00	0.2730	12.850	200.5	0.710397208	0.907230030	0.016703605	0.172328018	0.053113169
2019-07-20T06:50:00	0.2753	12.863	200.5	0.717736028	0.918698176	0.017031046	0.175706164	0.054154346
2019-07-20T06:55:00	0.2727	12.877	200.6	0.709554986	0.905916920	0.016666243	0.171942560	0.052994367
2019-07-20T07:00:00	0.2733	12.891	187.8	0.711399310	0.908793213	0.016748118	0.172787245	0.053254707
2019-07-20T07:05:00	0.2727	12.907	200.7	0.709360075	0.905613122	0.016657603	0.171853420	0.052966893
2019-07-20T07:10:00	0.2723	12.927	200.9	0.708291292	0.903947852	0.016610267	0.171365065	0.052816377
2019-07-20T07:15:00	0.2708	12.950	201.0	0.703333212	0.896235678	0.016391610	0.169109222	0.052121105
2019-07-20T07:20:00	0.2712	12.990	201.1	0.704532413	0.898099045	0.016444356	0.169653386	0.052288821
2019-07-20T07:25:00	0.2699	13.022	201.3	0.700218376	0.891401560	0.016255027	0.167700119	0.051686805
2019-07-20T07:30:00	0.2723	13.049	201.3	0.708225164	0.903844850	0.016607341	0.171334874	0.052807072
2019-07-20T07:35:00	0.2721	13.054	201.4	0.707479954	0.902684371	0.016574381	0.170994836	0.052702269
2019-07-20T07:40:00	0.2710	13.089	201.5	0.703817852	0.896988582	0.016412916	0.169329027	0.052188851
2019-07-20T07:45:00	0.2750	13.083	201.5	0.716989332	0.917529190	0.016997576	0.175360859	0.054047920
2019-07-20T07:50:00	0.2730	13.112	201.7	0.710425140	0.907273588	0.016704845	0.172340809	0.053117111
2019-07-20T07:55:00	0.2728	13.133	201.8	0.709680375	0.906112374	0.016671803	0.171999917	0.053012045
2019-07-20T08:00:00	0.2727	13.147	201.9	0.709582924	0.905960468	0.016667482	0.171955338	0.052998305
2019-07-20T08:05:00	0.2731	13.164	201.9	0.710780093	0.907827190	0.016720605	0.172503404	0.053167224
2019-07-20T08:10:00	0.2731	13.184	202.0	0.710682671	0.907675236	0.016716279	0.172458769	0.053153468
2019-07-20T08:15:00	0.2723	13.202	202.1	0.708319240	0.903991384	0.016611504	0.171377826	0.052820310
2019-07-20T08:20:00	0.2712	13.232	202.2	0.704657972	0.898294218	0.016449883	0.169710415	0.052306398
2019-07-20T08:25:00	0.2730	13.268	202.4	0.710390391	0.907219397	0.016703303	0.172324896	0.053112207
2019-07-20T08:30:00	0.2736	13.295	202.5	0.712234297	0.910096382	0.016785255	0.173170385	0.053372794
2019-07-20T08:35:00	0.2733	13.322	202.6	0.711489897	0.908934564	0.016752145	0.172828790	0.053267512
2019-07-20T08:40:00	0.2724	13.348	202.8	0.708479438	0.904240930	0.016618595	0.171450981	0.052842857
2019-07-20T08:45:00	0.2717	13.384	203.0	0.706114593	0.900559415	0.016514083	0.170372753	0.052510537
2019-07-20T08:50:00	0.2715	13.437	203.2	0.705693016	0.899903629	0.016495489	0.170180918	0.052451412
2019-07-20T08:55:00	0.2716	13.485	203.5	0.705919500	0.900255918	0.016505477	0.170283963	0.052483171
2019-07-20T09:00:00	0.2709	13.542	203.7	0.703553010	0.896577116	0.016401271	0.169208891	0.052151824
2019-07-20T09:05:00	0.2710	13.580	203.9	0.704103825	0.897432945	0.016425494	0.169458799	0.052228848
2019-07-20T09:10:00	0.2708	13.641	204.2	0.703357781	0.896273843	0.016392690	0.169120362	0.052124538
2019-07-20T09:15:00	0.2699	13.700	204.4	0.700340665	0.891591189	0.016260378	0.167755323	0.051703820
2019-07-20T09:20:00	0.2676	13.762	204.7	0.692771269	0.879878036	0.015930926	0.164356430	0.050656248
2019-07-20T09:25:00	0.2690	13.751	204.8	0.697548070	0.887264043	0.016138418	0.166497080	0.051316017
2019-07-20T09:30:00	0.2689	13.767	204.8	0.697125510	0.886609873	0.016120006	0.166307126	0.051257471
2019-07-20T09:35:00	0.2698	13.784	205.0	0.699949856	0.890985220	0.016243281	0.167578937	0.051649456
2019-07-20T09:40:00	0.2697	13.835	205.2	0.699852147	0.890833739	0.016239008	0.167534853	0.051635869
2019-07-20T09:45:00	0.2704	13.876	205.4	0.702025719	0.894205467	0.016334204	0.168516972	0.051938568
2019-07-20T09:50:00	0.2693	13.904	205.5	0.698358181	0.888518619	0.016173747	0.166861571	0.051428357
2019-07-20T09:55:00	0.2688	13.958	205.7	0.696961395	0.886355846	0.016112858	0.166233382	0.051234743
2019-07-20T10:00:00	0.2689	13.958	205.8	0.697188417	0.886707250	0.016122746	0.166335397	0.051266185
2019-07-20T10:05:00	0.2692	13.964	205.8	0.697967161	0.887912996	0.016156690	0.166685588	0.051374117
2019-07-20T10:10:00	0.2704	13.976	205.8	0.701990890	0.894151407	0.016332676	0.168501211	0.051933710
2019-07-20T10:15:00	0.2697	13.975	205.9	0.699848729	0.890828438	0.016238859	0.167533310	0.051635393
2019-07-20T10:20:00	0.2704	13.989	205.9	0.701924648	0.894048592	0.016329771	0.168471237	0.051924471
2019-07-20T10:25:00	0.2699	14.041	206.2	0.700431525	0.891732090	0.016264354	0.167796345	0.051716463
2019-07-20T10:30:00	0.2703	14.089	206.4	0.701534008	0.893442347	0.016312643	0.168294529	0.051870008
2019-07-20T10:35:00	0.2692	14.115	206.6	0.698092945	0.888107799	0.016162176	0.166742188	0.051391562
2019-07-20T10:40:00	0.2686	14.164	206.9	0.696273400	0.885291182	0.016082911	0.165924424	0.051139519
2019-07-20T10:45:00	0.2676	14.188	207.0	0.692827400	0.879964712	0.015933356	0.164381500	0.050663975
2019-07-20T10:50:00	0.2689	14.219	207.2	0.697181575	0.886696658	0.016122448	0.166332322	0.051265237
2019-07-20T10:55:00	0.2679	14.267	207.3	0.693736428	0.881368795	0.015972736	0.164787772	0.050789192
2019-07-20T11:00:00	0.2679	14.320	207.7	0.693865782	0.881568652	0.015978344	0.164845627	0.050807023
2019-07-20T11:05:00	0.2677	14.349	207.8	0.693344915	0.880763977	0.015955769	0.164612728	0.050735242
2019-07-20T11:10:00	0.2689	14.389	208.1	0.697048916	0.886491314	0.016116669	0.166272707	0.051246863
2019-07-20T11:15:00	0.2684	14.424	208.2	0.695553809	0.884178062	0.016051620	0.165601603	0.051040022
2019-07-20T11:20:00	0.2679	14.445	208.4	0.693733004	0.881363504	0.015972587	0.164786241	0.050788720
2019-07-20T11:25:00	0.2663	14.487	208.6	0.688657209	0.873532616	0.015753359	0.162524499	0.050091629
2019-07-20T11:30:00	0.2675	14.531	208.9	0.692691159	0.879754336	0.015927459	0.164320655	0.050645222
2019-07-20T11:35:00	0.2663	14.583	209.1	0.688590726	0.873430195	0.015750498	0.162494984	0.050082532
2019-07-20T11:40:00	0.2675	14.649	209.5	0.692624749	0.879651796	0.015924584	0.164291001	0.050636082
2019-07-20T11:45:00	0.2664	14.698	209.7	0.688849793	0.873829325	0.015761648	0.162610012	0.050117985
2019-07-20T11:50:00	0.2667	14.739	210.0	0.689955762	0.875533889	0.015809292	0.163101556	0.050269483
2019-07-20T11:55:00	0.2654	14.788	210.2	0.685852262	0.869214729	0.015632896	0.161281705	0.049708588
2019-07-20T12:00:00	0.2669	14.837	210.5	0.690540132	0.876434970	0.015834498	0.163361593	0.050349629
2019-07-20T12:05:00	0.2668	14.879	210.7	0.690344210	0.876132831	0.015826045	0.163274385	0.050322751
2019-07-20T12:10:00	0.2664	14.921	211.0	0.688846364	0.873824042	0.015761500	0.162608489	0.050117516
2019-07-20T12:15:00	0.2663	14.970	211.3	0.688650351	0.873522050	0.015753064	0.162521454	0.050090691
2019-07-20T12:20:00	0.2661	15.006	211.4	0.688128742	0.872718583	0.015730626	0.162289965	0.050019343
2019-07-20T12:25:00	0.2664	15.037	211.7	0.688909413	0.873921187	0.015764214	0.162636490	0.050126146
2019-07-20T12:30:00	0.2643	15.070	211.8	0.682196635	0.863597522	0.015476630	0.159669543	0.049211704
2019-07-20T12:35:00	0.2649	15.099	212.0	0.683956622	0.866300464	0.015551761	0.160444647	0.049450598
2019-07-20T12:40:00	0.2653	15.137	212.3	0.685389931	0.868503678	0.015613087	0.161077342	0.049645601
2019-07-20T12:45:00	0.2641	15.178	212.5	0.681607494	0.862693331	0.015451524	0.159410524	0.049131872
2019-07-20T12:50:00	0.2653	15.214	212.7	0.685323389	0.868401353	0.015610237	0.161047940	0.049636539
2019-07-20T12:55:00	0.2637	15.245	212.8	0.680235898	0.860589419	0.015393156	0.158808354	0.048946277
2019-07-20T13:00:00	0.2647	15.270	213.0	0.683627201	0.865794345	0.015537684	0.160299418	0.049405838
2019-07-20T13:05:00	0.2659	15.302	213.2	0.687341043	0.871505686	0.015696773	0.161940716	0.049911701
2019-07-20T13:10:00	0.2649	15.329	213.4	0.684212583	0.866693786	0.015562703	0.160557538	0.049485392
2019-07-20T13:15:00	0.2664	15.361	213.5	0.688902555	0.873910620	0.015763919	0.162633444	0.050125207
2019-07-20T13:20:00	0.2662	15.379	213.6	0.688380982	0.873107095	0.015741474	0.162401887	0.050053839
2019-07-20T13:25:00	0.2660	15.402	213.8	0.687859334	0.872303690	0.015719043	0.162170471	0.049982514
2019-07-20T13:30:00	0.2635	15.424	213.9	0.679513144	0.859481429	0.015362446	0.158491527	0.048848628
2019-07-20T13:35:00	0.2627	15.435	214.0	0.677031205	0.855680012	0.015257234	0.157406075	0.048514081
2019-07-20T13:40:00	0.2626	15.450	214.2	0.676507932	0.854879229	0.015235101	0.157177728	0.048443702
2019-07-20T13:45:00	0.2628	15.476	214.4	0.677291093	0.856077816	0.015268234	0.157519551	0.048549055
2019-07-20T13:50:00	0.2619	15.492	214.5	0.674480833	0.851779307	0.015149518	0.156294780	0.048171569
2019-07-20T13:55:00	0.2628	15.493	214.5	0.677224402	0.855975730	0.015265411	0.157490428	0.048540079
2019-07-20T14:00:00	0.2617	15.494	214.6	0.673760379	0.850678412	0.015119161	0.155981600	0.048075044
2019-07-20T14:05:00	0.2609	15.506	214.7	0.670947389	0.846384274	0.015000942	0.154761956	0.047699138
2019-07-20T14:10:00	0.2610	15.512	214.7	0.671404665	0.847081860	0.015020127	0.154959877	0.047760139
2019-07-20T14:15:00	0.2608	15.516	214.8	0.670880582	0.846282374	0.014998141	0.154733051	0.047690229
2019-07-20T14:20:00	0.2599	15.527	214.9	0.667737948	0.841493241	0.014866657	0.153376556	0.047272144
2019-07-20T14:25:00	0.2598	15.540	215.0	0.667540797	0.841193079	0.014858428	0.153291666	0.047245980
2019-07-20T14:30:00	0.2594	15.556	215.1	0.666033545	0.838899406	0.014795601	0.152643483	0.047046204
2019-07-20T14:35:00	0.2600	15.575	215.2	0.668128771	0.842088363	0.014882975	0.153544911	0.047324033
2019-07-20T14:40:00	0.2581	15.596	215.4	0.662033465	0.832821692	0.014629539	0.150930254	0.046518170
2019-07-20T14:45:00	0.2584	15.614	215.5	0.662819753	0.834015293	0.014662104	0.151266220	0.046621718
2019-07-20T14:50:00	0.2571	15.630	215.6	0.658685515	0.827745357	0.014491304	0.149504113	0.046078620
2019-07-20T14:55:00	0.2578	15.639	215.8	0.660784993	0.830927573	0.014577910	0.150397608	0.046354004
2019-07-20T15:00:00	0.2594	15.656	215.9	0.666160435	0.839092426	0.014800884	0.152697996	0.047063005
2019-07-20T15:05:00	0.2580	15.672	216.0	0.661702052	0.832318759	0.014615824	0.150788765	0.046474562
2019-07-20T15:10:00	0.2573	15.694	216.1	0.659207906	0.828536801	0.014512828	0.149726172	0.046147060
2019-07-20T15:15:00	0.2574	15.708	216.3	0.659666664	0.829232033	0.014531744	0.149921324	0.046207208
2019-07-20T15:20:00	0.2568	15.718	216.4	0.657499483	0.825949334	0.014442498	0.149000593	0.045923430
2019-07-20T15:25:00	0.2575	15.735	216.5	0.659927798	0.829627852	0.014542517	0.150032467	0.046241463
2019-07-20T15:30:00	0.2570	15.747	216.6	0.658417375	0.827339205	0.014480262	0.149390199	0.046043510
2019-07-20T15:35:00	0.2565	15.753	216.6	0.656577897	0.824554596	0.014404634	0.148609955	0.045803031
2019-07-20T15:40:00	0.2566	15.757	216.7	0.657036990	0.825249301	0.014423490	0.148804486	0.045862988
2019-07-20T15:45:00	0.2568	15.757	216.8	0.657496024	0.825944098	0.014442356	0.148999126	0.045922978
2019-07-20T15:50:00	0.2553	15.762	216.8	0.652698168	0.818690926	0.014245801	0.146971305	0.045297984
2019-07-20T15:55:00	0.2553	15.772	216.9	0.652828989	0.818888435	0.014251142	0.147026405	0.045314966
2019-07-20T16:00:00	0.2551	15.775	216.9	0.651973369	0.817596918	0.014216231	0.146666230	0.045203956
2019-07-20T16:05:00	0.2558	15.773	217.0	0.654475452	0.821375448	0.014318448	0.147720784	0.045528980
2019-07-20T16:10:00	0.2554	15.767	217.0	0.653032828	0.819196211	0.014259466	0.147112279	0.045341433
2019-07-20T16:15:00	0.2539	15.761	217.0	0.647969994	0.811562313	0.014053477	0.144987128	0.044686441
2019-07-20T16:20:00	0.2531	15.755	217.0	0.645536562	0.807900881	0.013955025	0.143971421	0.044373390
2019-07-20T16:25:00	0.2530	15.746	217.0	0.645078952	0.807212906	0.013936551	0.143780831	0.044314649
2019-07-20T16:30:00	0.2522	15.735	217.0	0.642643563	0.803554524	0.013838450	0.142768733	0.044002710
2019-07-20T16:35:00	0.2516	15.727	217.1	0.640536443	0.800393327	0.013753862	0.141896059	0.043733744
2019-07-20T16:40:00	0.2513	15.720	217.0	0.639418243	0.798717284	0.013709083	0.141434082	0.043591358
2019-07-20T16:45:00	0.2492	15.716	217.0	0.632683436	0.788645088	0.013440989	0.138668204	0.042738887
2019-07-20T16:50:00	0.2473	15.709	217.0	0.626267175	0.779085026	0.013188131	0.136059520	0.041934866
2019-07-20T16:55:00	0.2466	15.689	217.0	0.623818963	0.775446427	0.013092306	0.135070910	0.041630166
2019-07-20T17:00:00	0.2490	15.668	216.9	0.631966949	0.787575814	0.013412629	0.138375624	0.042648711
2019-07-20T17:05:00	0.2471	15.654	216.9	0.625549401	0.778017727	0.013160000	0.135769290	0.041845414
2019-07-20T17:10:00	0.2472	15.645	216.9	0.626083083	0.778811248	0.013180913	0.135985053	0.041911914
2019-07-20T17:15:00	0.2462	15.636	216.8	0.622640212	0.773696339	0.013046298	0.134596251	0.041483872
2019-07-20T17:20:00	0.2447	15.622	216.8	0.617534237	0.766129048	0.012847972	0.132550164	0.040853248
2019-07-20T17:25:00	0.2451	15.606	216.7	0.619064929	0.768395299	0.012907262	0.133161848	0.041041775
2019-07-20T17:30:00	0.2421	15.590	216.7	0.608964815	0.753478092	0.012518647	0.129152577	0.039806078
2019-07-20T17:35:00	0.2412	15.573	216.7	0.606171587	0.749367806	0.012412256	0.128054957	0.039467781
2019-07-20T17:40:00	0.2421	15.555	216.6	0.609038740	0.753586962	0.012521469	0.129181691	0.039815052
2019-07-20T17:45:00	0.2418	15.537	216.5	0.607910627	0.751926065	0.012478439	0.128737758	0.039678227
2019-07-20T17:50:00	0.2418	15.521	216.5	0.608114061	0.752225499	0.012486193	0.128817755	0.039702883
2019-07-20T17:55:00	0.2411	15.505	216.6	0.605653324	0.748605892	0.012392567	0.127851832	0.039405176
2019-07-20T18:00:00	0.2409	15.488	216.6	0.605190573	0.747925779	0.012375001	0.127670605	0.039349320
2019-07-20T18:05:00	0.2404	15.471	216.4	0.603394583	0.745287878	0.012306946	0.126968496	0.039132924
2019-07-20T18:10:00	0.2395	15.454	216.4	0.600263323	0.740695231	0.012188756	0.125749152	0.038757110
2019-07-20T18:15:00	0.2395	15.437	216.3	0.600467197	0.740994005	0.012196434	0.125828359	0.038781522
2019-07-20T18:20:00	0.2380	15.421	216.3	0.595329200	0.733474952	0.012003707	0.123840032	0.038168701
2019-07-20T18:25:00	0.2398	15.402	216.2	0.601208489	0.742080650	0.012224370	0.126116571	0.038870352
2019-07-20T18:30:00	0.2371	15.383	216.2	0.592395123	0.729191053	0.011894357	0.122711885	0.037820995
2019-07-20T18:35:00	0.2371	15.365	216.1	0.592265059	0.729001318	0.011889521	0.122661998	0.037805619
2019-07-20T18:40:00	0.2372	15.346	216.0	0.592803769	0.729787265	0.011909556	0.122868691	0.037869324
2019-07-20T18:45:00	0.2353	15.328	216.0	0.586314954	0.720336547	0.011669388	0.120390923	0.037105652
2019-07-20T18:50:00	0.2339	15.308	215.9	0.581491723	0.713334396	0.011492491	0.118565909	0.036543165
2019-07-20T18:55:00	0.2358	15.287	215.8	0.588063791	0.722880211	0.011733870	0.121056173	0.037310688
2019-07-20T19:00:00	0.2376	15.265	215.7	0.593955182	0.731467922	0.011952435	0.123311065	0.038005668
2019-07-20T19:05:00	0.2377	15.244	215.7	0.594493634	0.732254252	0.011972514	0.123518219	0.038069515
2019-07-20T19:10:00	0.2362	15.223	215.6	0.589346930	0.724748142	0.011781297	0.121545469	0.037461494
2019-07-20T19:15:00	0.2368	15.205	215.5	0.591224370	0.727483699	0.011850867	0.122263211	0.037682709
2019-07-20T19:20:00	0.2381	15.188	215.5	0.595774436	0.734125647	0.012020345	0.124011688	0.038221607
2019-07-20T19:25:00	0.2401	15.170	215.4	0.602319966	0.743710803	0.012266319	0.126549347	0.039003738
2019-07-20T19:30:00	0.2390	15.153	215.3	0.598853984	0.738630819	0.012135752	0.125202317	0.038588570
2019-07-20T19:35:00	0.2378	15.137	215.2	0.594716312	0.732579511	0.011980823	0.123603940	0.038095935
2019-07-20T19:40:00	0.2364	15.120	215.2	0.589904582	0.725560372	0.011801939	0.121758432	0.037527131
2019-07-20T19:45:00	0.2375	15.105	215.2	0.593787883	0.731223656	0.011946199	0.123246738	0.037985842
2019-07-20T19:50:00	0.2370	15.088	215.1	0.591986090	0.728594413	0.011879153	0.122555033	0.037772651
2019-07-20T19:55:00	0.2377	15.071	215.0	0.594196367	0.731820108	0.011961426	0.123403832	0.038034259
2019-07-20T20:00:00	0.2371	15.052	214.9	0.592394782	0.729190555	0.011894344	0.122711754	0.037820954
2019-07-20T20:05:00	0.2365	15.035	214.8	0.590257693	0.726074818	0.011815020	0.121893381	0.037568724
2019-07-20T20:10:00	0.2354	15.019	214.8	0.586779842	0.721012474	0.011686511	0.120567581	0.037160099
2019-07-20T20:15:00	0.2347	15.003	214.8	0.584304193	0.717415064	0.011595473	0.119628357	0.036870621
2019-07-20T20:20:00	0.2351	14.988	214.7	0.585514286	0.719172835	0.011639927	0.120086978	0.037011973
2019-07-20T20:25:00	0.2354	14.971	214.6	0.586723963	0.720931219	0.011684452	0.120546340	0.037153553
2019-07-20T20:30:00	0.2340	14.957	214.6	0.581901294	0.713928242	0.011507459	0.118720329	0.036590758
2019-07-20T20:35:00	0.2352	14.943	214.5	0.586128435	0.720065408	0.011662521	0.120320082	0.037083818
2019-07-20T20:40:00	0.2348	14.928	214.5	0.584657866	0.717928680	0.011608456	0.119762305	0.036911906
2019-07-20T20:45:00	0.2340	14.913	214.4	0.581845338	0.713847101	0.011505413	0.118699225	0.036584254
2019-07-20T20:50:00	0.2341	14.899	214.4	0.582385644	0.714630691	0.011525172	0.118903074	0.036647082
2019-07-20T20:55:00	0.2325	14.884	214.3	0.576885329	0.706665077	0.011324836	0.116836249	0.036010067
2019-07-20T21:00:00	0.2306	14.870	214.2	0.570703503	0.697742425	0.011101819	0.114535417	0.035300928
2019-07-20T21:05:00	0.2317	14.856	214.2	0.574271961	0.702889162	0.011230279	0.115860723	0.035709400
2019-07-20T21:10:00	0.2306	14.843	214.1	0.570441758	0.697365329	0.011092426	0.114438512	0.035271061
2019-07-20T21:15:00	0.2274	14.831	214.0	0.559863609	0.682172720	0.010716208	0.110557146	0.034074786
2019-07-20T21:20:00	0.2287	14.820	214.0	0.564117416	0.688271047	0.010866703	0.112109776	0.034553322
2019-07-20T21:25:00	0.2292	14.808	213.9	0.565671467	0.690502682	0.010921950	0.112679747	0.034728992
2019-07-20T21:30:00	0.2309	14.793	213.9	0.571600521	0.699035190	0.011134040	0.114867833	0.035403382
2019-07-20T21:35:00	0.2395	14.782	213.8	0.600281084	0.740721259	0.012189425	0.125756052	0.038759236
2019-07-20T21:40:00	0.2453	14.780	213.5	0.619782994	0.769459102	0.012935125	0.133449297	0.041130369
2019-07-20T21:45:00	0.2465	14.773	213.6	0.623633732	0.775171337	0.013085071	0.134996264	0.041607160
2019-07-20T21:50:00	0.2495	14.779	211.8	0.633435310	0.789767642	0.013470782	0.138975580	0.042833623
2019-07-20T21:55:00	0.2514	14.775	211.8	0.639912041	0.799457296	0.013728848	0.141637995	0.043654206
2019-07-20T22:00:00	0.2570	14.803	203.7	0.658214919	0.827032584	0.014471929	0.149304219	0.046017010
2019-07-20T22:05:00	0.2671	14.826	195.9	0.691230420	0.877499754	0.015864299	0.163669043	0.050444389
2019-07-20T22:10:00	0.2675	14.814	196.9	0.692540216	0.879521277	0.015920926	0.164253259	0.050624450
2019-07-20T22:15:00	0.2725	14.784	201.0	0.708773411	0.904698917	0.016631611	0.171585267	0.052884246
2019-07-20T22:20:00	0.2723	14.762	202.1	0.708134496	0.903703633	0.016603329	0.171293483	0.052794315
2019-07-20T22:25:00	0.2706	14.749	201.4	0.702633956	0.895149724	0.016360896	0.168792346	0.052023440
2019-07-20T22:30:00	0.2716	14.728	200.7	0.705884378	0.900201284	0.016503928	0.170267981	0.052478245
2019-07-20T22:35:00	0.2682	14.702	201.3	0.694859586	0.883104611	0.016021463	0.165290477	0.050944130
2019-07-20T22:40:00	0.2693	14.676	202.5	0.698441587	0.888647818	0.016177387	0.166899122	0.051439930
2019-07-20T22:45:00	0.2683	14.652	203.5	0.695202021	0.883634053	0.016036334	0.165443906	0.050991418
2019-07-20T22:50:00	0.2663	14.631	204.5	0.688705550	0.873607090	0.015755439	0.162545961	0.050098244
2019-07-20T22:55:00	0.2646	14.614	205.0	0.683175778	0.865100935	0.015518404	0.160100517	0.049344534
2019-07-20T23:00:00	0.2639	14.596	204.9	0.680901529	0.861610239	0.015421467	0.159100436	0.049036300
2019-07-20T23:05:00	0.2599	14.574	204.5	0.667837077	0.841644175	0.014870795	0.153419249	0.047285302
2019-07-20T23:10:00	0.2578	14.556	204.3	0.660963564	0.831198409	0.014585289	0.150473733	0.046377466
2019-07-20T23:15:00	0.2562	14.539	204.2	0.655719928	0.823256788	0.014369430	0.148246763	0.045691092
2019-07-20T23:20:00	0.2513	14.524	204.3	0.639595445	0.798982818	0.013716174	0.141507240	0.043613906
2019-07-20T23:25:00	0.2516	14.507	204.5	0.640594136	0.800479830	0.013756174	0.141919916	0.043741096
2019-07-20T23:30:00	0.2535	14.490	204.6	0.646865591	0.809899963	0.014008750	0.144525692	0.044544222
2019-07-20T23:35:00	0.2512	14.474	204.7	0.639292016	0.798528154	0.013704033	0.141381982	0.043575300
2019-07-20T23:40:00	0.2484	14.458	204.8	0.630048459	0.784714826	0.013336846	0.137593781	0.042407740
2019-07-20T23:45:00	0.2504	14.442	204.8	0.636668629	0.794600471	0.013599296	0.140301430	0.043242263
2019-07-20T23:50:00	0.2489	14.423	204.8	0.631720185	0.787207647	0.013402869	0.138274932	0.042617677
2019-07-20T23:55:00	0.2501	14.405	204.8	0.635695449	0.793144930	0.013560549	0.139901681	0.043119057
2019-07-21T00:00:00	0.2491	14.386	204.9	0.632399308	0.788221007	0.013429739	0.138552141	0.042703115
2019-07-21T00:05:00	0.2504	14.370	205.0	0.636704090	0.794653523	0.013600709	0.140316007	0.043246756
2019-07-21T00:10:00	0.2482	14.353	204.9	0.629109014	0.783314996	0.013299818	0.137211767	0.042289999
2019-07-21T00:15:00	0.2476	14.337	204.9	0.627131606	0.780370976	0.013222052	0.136409478	0.042042726
2019-07-21T00:20:00	0.2506	14.319	204.9	0.637060924	0.795187436	0.013614932	0.140462739	0.043291980
2019-07-21T00:25:00	0.2491	14.303	204.9	0.632113022	0.787793776	0.013418409	0.138435248	0.042667088
2019-07-21T00:30:00	0.2481	14.288	204.9	0.628813580	0.782874936	0.013288184	0.137091747	0.042253008
2019-07-21T00:35:00	0.2499	14.271	204.8	0.634775224	0.791769331	0.013523963	0.139524229	0.043002723
2019-07-21T00:40:00	0.2486	14.254	204.8	0.630485883	0.785366870	0.013354105	0.137771843	0.042462620
2019-07-21T00:45:00	0.2476	14.238	204.9	0.627184939	0.780450336	0.013224147	0.136431085	0.042049385
2019-07-21T00:50:00	0.2475	14.223	204.9	0.626862677	0.779970843	0.013211495	0.136300554	0.042009155
2019-07-21T00:55:00	0.2461	14.209	205.0	0.622232248	0.773090909	0.013030394	0.134432174	0.041433302
2019-07-21T01:00:00	0.2467	14.195	205.0	0.624230162	0.776057208	0.013108376	0.135236695	0.041681263
2019-07-21T01:05:00	0.2492	14.181	205.2	0.632514692	0.788393218	0.013434307	0.138599268	0.042717640
2019-07-21T01:10:00	0.2470	14.167	205.2	0.625242040	0.777560827	0.013147963	0.135645107	0.041807139
2019-07-21T01:15:00	0.2475	14.153	205.3	0.626907125	0.780036972	0.013213239	0.136318554	0.042014702
2019-07-21T01:20:00	0.2484	14.139	205.5	0.629895219	0.784486438	0.013330802	0.137531430	0.042388523
2019-07-21T01:25:00	0.2467	14.126	205.5	0.624274642	0.776123286	0.013110115	0.135254635	0.041686792
2019-07-21T01:30:00	0.2470	14.113	205.7	0.625277615	0.777613705	0.013149356	0.135659477	0.041811568
2019-07-21T01:35:00	0.2465	14.100	205.9	0.623629565	0.775165149	0.013084908	0.134994585	0.041606642
2019-07-21T01:40:00	0.2464	14.086	206.0	0.623306982	0.774686147	0.013072313	0.134864640	0.041566592
2019-07-21T01:45:00	0.2474	14.073	205.9	0.626629290	0.779623641	0.013202336	0.136206063	0.041980031
2019-07-21T01:50:00	0.2467	14.060	206.0	0.624319122	0.776189366	0.013111853	0.135272575	0.041692321
2019-07-21T01:55:00	0.2451	14.046	206.0	0.619021662	0.768331213	0.012905585	0.133144537	0.041036440
2019-07-21T02:00:00	0.2454	14.032	206.0	0.620026112	0.769819377	0.012944565	0.133546693	0.041160388
2019-07-21T02:05:00	0.2474	14.016	206.0	0.626664850	0.779676540	0.013203731	0.136220458	0.041984468
2019-07-21T02:10:00	0.2474	14.001	205.9	0.626673740	0.779689765	0.013204080	0.136224057	0.041985577
2019-07-21T02:15:00	0.2498	13.987	205.9	0.634622186	0.791540631	0.013517883	0.139461509	0.042983391
2019-07-21T02:20:00	0.2468	13.973	205.9	0.624703879	0.776761028	0.013126901	0.135427816	0.041740168
2019-07-21T02:25:00	0.2479	13.959	205.8	0.628355930	0.782193394	0.013270173	0.136905933	0.042195738
2019-07-21T02:30:00	0.2466	13.943	205.9	0.624058879	0.775802772	0.013101681	0.135167625	0.041659975
2019-07-21T02:35:00	0.2447	13.928	205.8	0.617765137	0.766470778	0.012856907	0.132642341	0.040881658
2019-07-21T02:40:00	0.2453	13.914	205.8	0.619765555	0.769433262	0.012934448	0.133442312	0.041128217
2019-07-21T02:45:00	0.2449	13.898	205.8	0.618446919	0.767480072	0.012883307	0.132914708	0.040965604
2019-07-21T02:50:00	0.2463	13.881	205.7	0.623100059	0.774378933	0.013064236	0.134781319	0.041540912
2019-07-21T02:55:00	0.2458	13.866	205.7	0.621451003	0.771931913	0.012999966	0.134118258	0.041336550
2019-07-21T03:00:00	0.2450	13.849	205.7	0.618805580	0.768011184	0.012897207	0.133058106	0.041009801
2019-07-21T03:05:00	0.2460	13.833	205.7	0.622132080	0.772942280	0.013026491	0.134391904	0.041420890
2019-07-21T03:10:00	0.2451	13.816	205.7	0.619155297	0.768529153	0.012910767	0.133198005	0.041052919
2019-07-21T03:15:00	0.2473	13.799	205.6	0.626126903	0.778876413	0.013182631	0.136002776	0.041917377
2019-07-21T03:20:00	0.2476	13.783	205.5	0.627129355	0.780367627	0.013221964	0.136408566	0.042042445
2019-07-21T03:25:00	0.2438	13.765	205.5	0.614532679	0.761690851	0.012732119	0.131354929	0.040484865
2019-07-21T03:30:00	0.2440	13.750	205.5	0.615206162	0.762686024	0.012758067	0.131622626	0.040567372
2019-07-21T03:35:00	0.2424	13.734	205.4	0.609895113	0.754848496	0.012554185	0.129519217	0.039919080
2019-07-21T03:40:00	0.2423	13.717	205.4	0.609571284	0.754371386	0.012541809	0.129391531	0.039879727
2019-07-21T03:45:00	0.2416	13.702	205.3	0.607250016	0.750953958	0.012453277	0.128478161	0.039598217
2019-07-21T03:50:00	0.2447	13.688	205.3	0.617566804	0.766177245	0.012849232	0.132563163	0.040857254
2019-07-21T03:55:00	0.2425	13.678	205.2	0.610263570	0.755391463	0.012568275	0.129664577	0.039963882
2019-07-21T04:00:00	0.2441	13.667	205.1	0.615591903	0.763256187	0.012772941	0.131776078	0.040614667
2019-07-21T04:05:00	0.2450	13.657	205.1	0.618777460	0.767969539	0.012896117	0.133046860	0.041006334
2019-07-21T04:10:00	0.2474	13.649	205.1	0.626599843	0.779579837	0.013201180	0.136194143	0.041976358
2019-07-21T04:15:00	0.2460	13.641	205.0	0.621825251	0.772487055	0.013014538	0.134268589	0.041382883
2019-07-21T04:20:00	0.2467	13.636	204.9	0.624342507	0.776224106	0.013112768	0.135282008	0.041695229
2019-07-21T04:25:00	0.2467	13.631	204.9	0.624207677	0.776023807	0.013107497	0.135227627	0.041678468
2019-07-21T04:30:00	0.2474	13.627	204.9	0.626723254	0.779763423	0.013206023	0.136244102	0.041991755
2019-07-21T04:35:00	0.2485	13.623	204.9	0.630229760	0.784985063	0.013343998	0.137667569	0.042430482
2019-07-21T04:40:00	0.2493	13.620	204.8	0.633071712	0.789224727	0.013456370	0.138826892	0.042787796
2019-07-21T04:45:00	0.2498	13.616	204.9	0.634589848	0.791492308	0.013516599	0.139448257	0.042979307
2019-07-21T04:50:00	0.2490	13.612	204.8	0.631810720	0.787342717	0.013406450	0.138311870	0.042629062
2019-07-21T04:55:00	0.2494	13.611	204.9	0.633329391	0.789609474	0.013466583	0.138932257	0.042820271
2019-07-21T05:00:00	0.2518	13.609	204.9	0.641120052	0.801268506	0.013777263	0.142137484	0.043808153
2019-07-21T05:05:00	0.2557	13.608	204.9	0.654156226	0.820893070	0.014305385	0.147586020	0.045487445
2019-07-21T05:10:00	0.2584	13.605	204.7	0.662885742	0.834115491	0.014664838	0.151294434	0.046630414
2019-07-21T05:15:00	0.2631	13.601	204.8	0.678129998	0.857362305	0.015303767	0.157886138	0.048662041
2019-07-21T05:20:00	0.2635	13.609	202.4	0.679629325	0.859659505	0.015367381	0.158542434	0.048864318
2019-07-21T05:25:00	0.2623	13.620	200.1	0.675577991	0.853456686	0.015195808	0.156772347	0.048318760
2019-07-21T05:30:00	0.2622	13.627	198.8	0.675445064	0.853253408	0.015190195	0.156714446	0.048300914
2019-07-21T05:35:00	0.2615	13.628	199.1	0.673024192	0.849553938	0.015088175	0.155661921	0.047976516
2019-07-21T05:40:00	0.2574	13.627	199.5	0.659460858	0.828920119	0.014523256	0.149833759	0.046180220
2019-07-21T05:45:00	0.2562	13.626	199.4	0.655715463	0.823250035	0.014369247	0.148244875	0.045690510
2019-07-21T05:50:00	0.2586	13.628	199.7	0.663457912	0.834984423	0.014688562	0.151539182	0.046705847
2019-07-21T05:55:00	0.2587	13.629	200.1	0.663980135	0.835777746	0.014710231	0.151762745	0.046774752
2019-07-21T06:00:00	0.2615	13.630	200.5	0.673013009	0.849536859	0.015087705	0.155657068	0.047975020
2019-07-21T06:05:00	0.2639	13.633	200.9	0.680718689	0.861329794	0.015413688	0.159020177	0.049011563
2019-07-21T06:10:00	0.2651	13.635	201.1	0.684825039	0.867635142	0.015588902	0.160827829	0.049568699
2019-07-21T06:15:00	0.2633	13.642	201.0	0.678821415	0.858421421	0.015333085	0.158188612	0.048755266
2019-07-21T06:20:00	0.2634	13.646	200.8	0.679341435	0.859218263	0.015355155	0.158416306	0.048825444
2019-07-21T06:25:00	0.2661	13.644	200.8	0.688010729	0.872536832	0.015725551	0.162237615	0.050003209
2019-07-21T06:30:00	0.2644	13.640	200.9	0.682338476	0.863815259	0.015482678	0.159731937	0.049230934
2019-07-21T06:35:00	0.2650	13.640	200.9	0.684487982	0.867117038	0.015574481	0.160679048	0.049522843
2019-07-21T06:40:00	0.2653	13.643	201.0	0.685333058	0.868416222	0.015610651	0.161052212	0.049637856
2019-07-21T06:45:00	0.2644	13.649	201.1	0.682592667	0.864205505	0.015493519	0.159843784	0.049265407
2019-07-21T06:50:00	0.2667	13.650	201.1	0.689952740	0.875529229	0.015809162	0.163100211	0.050269069
2019-07-21T06:55:00	0.2671	13.656	201.1	0.691121903	0.877332337	0.015859612	0.163620690	0.050429486
2019-07-21T07:00:00	0.2673	13.669	201.2	0.691965449	0.878634006	0.015896064	0.163996757	0.050545393
2019-07-21T07:05:00	0.2671	13.679	201.1	0.691182518	0.877425851	0.015862230	0.163647698	0.050437810
2019-07-21T07:10:00	0.2665	13.685	201.1	0.689423095	0.874712789	0.015786336	0.162864716	0.050196487
2019-07-21T07:15:00	0.2687	13.696	201.0	0.696444610	0.885556090	0.016090360	0.166001281	0.051163207
2019-07-21T07:20:00	0.2708	13.708	201.1	0.703452716	0.896421313	0.016396863	0.169163408	0.052137805
2019-07-21T07:25:00	0.2683	13.722	200.8	0.695205481	0.883639403	0.016036485	0.165445456	0.050991896
2019-07-21T07:30:00	0.2690	13.745	200.8	0.697347446	0.886953435	0.016129675	0.166406879	0.051288216
2019-07-21T07:35:00	0.2692	13.751	200.7	0.698189560	0.888257438	0.016166390	0.166785669	0.051404963
2019-07-21T07:40:00	0.2712	13.766	200.7	0.704546107	0.898120331	0.016444959	0.169659606	0.052290738
2019-07-21T07:45:00	0.2700	13.766	200.7	0.700846759	0.892376109	0.016282533	0.167983887	0.051774265
2019-07-21T07:50:00	0.2713	13.766	200.8	0.704930628	0.898718085	0.016461891	0.169834290	0.052344578
2019-07-21T07:55:00	0.2709	13.769	200.9	0.703502037	0.896497930	0.016399030	0.169185774	0.052144699
2019-07-21T08:00:00	0.2691	13.780	201.1	0.697853731	0.887737337	0.016151743	0.166634556	0.051358388
2019-07-21T08:05:00	0.2697	13.784	201.3	0.699669589	0.890550734	0.016231026	0.167452503	0.051610488
2019-07-21T08:10:00	0.2709	13.789	201.5	0.703754765	0.896890562	0.016410142	0.169300405	0.052180029
2019-07-21T08:15:00	0.2697	13.799	201.8	0.699730063	0.890644478	0.016233670	0.167479780	0.051618895
2019-07-21T08:20:00	0.2690	13.815	202.0	0.697325227	0.886919038	0.016128706	0.166396891	0.051285138
2019-07-21T08:25:00	0.2697	13.836	202.2	0.699790536	0.890738224	0.016236314	0.167507058	0.051627302
2019-07-21T08:30:00	0.2685	13.855	202.4	0.695761487	0.884499269	0.016060647	0.165694737	0.051068727
2019-07-21T08:35:00	0.2689	13.875	202.6	0.697253604	0.886808160	0.016125586	0.166364696	0.051275215
2019-07-21T08:40:00	0.2694	13.895	202.6	0.698745114	0.889118043	0.016190636	0.167035812	0.051482059
2019-07-21T08:45:00	0.2690	13.914	202.9	0.697314117	0.886901839	0.016128222	0.166391897	0.051283599
2019-07-21T08:50:00	0.2706	13.937	203.0	0.702699377	0.895251305	0.016363768	0.168821979	0.052032574
2019-07-21T08:55:00	0.2696	13.966	203.2	0.699322791	0.890013202	0.016215868	0.167296125	0.051562291
2019-07-21T09:00:00	0.2719	13.985	203.3	0.706973341	0.901895724	0.016551994	0.170763874	0.052631084
2019-07-21T09:05:00	0.2689	14.014	203.4	0.697110353	0.886586411	0.016119345	0.166300315	0.051255372
2019-07-21T09:10:00	0.2698	14.051	203.6	0.699900377	0.890908510	0.016241117	0.167556612	0.051642575
2019-07-21T09:15:00	0.2691	14.081	203.8	0.697820407	0.887685734	0.016150290	0.166619565	0.051353768
2019-07-21T09:20:00	0.2691	14.106	204.1	0.697688287	0.887481149	0.016144530	0.166560137	0.051335452
2019-07-21T09:25:00	0.2702	14.134	204.2	0.701451259	0.893313944	0.016309016	0.168257110	0.051858475
2019-07-21T09:30:00	0.2706	14.168	204.5	0.702616765	0.895123031	0.016360141	0.168784560	0.052021041
2019-07-21T09:35:00	0.2692	14.190	204.7	0.698266130	0.888376036	0.016169731	0.166820134	0.051415585
2019-07-21T09:40:00	0.2711	14.241	205.0	0.704298390	0.897735314	0.016434055	0.169547121	0.052256069
2019-07-21T09:45:00	0.2688	14.273	205.3	0.696702791	0.885955611	0.016101598	0.166117215	0.051198939
2019-07-21T09:50:00	0.2688	14.318	205.6	0.696895467	0.886253806	0.016109987	0.166203763	0.051225614
2019-07-21T09:55:00	0.2689	14.359	205.9	0.697088133	0.886552017	0.016118378	0.166290330	0.051252295
2019-07-21T10:00:00	0.2682	14.409	206.2	0.695006569	0.883331850	0.016027845	0.165356324	0.050964425
2019-07-21T10:05:00	0.2679	14.472	206.1	0.693850280	0.881544701	0.015977672	0.164838693	0.050804886
2019-07-21T10:10:00	0.2664	14.510	206.5	0.689114740	0.874237575	0.015773054	0.162727695	0.050154256
2019-07-21T10:15:00	0.2669	14.558	206.8	0.690560586	0.876466515	0.015835380	0.163370698	0.050352436
2019-07-21T10:20:00	0.2659	14.614	207.0	0.687449451	0.871672580	0.015701430	0.161988758	0.049926509
2019-07-21T10:25:00	0.2665	14.641	207.2	0.689221472	0.874402055	0.015777651	0.162775116	0.050168872
2019-07-21T10:30:00	0.2674	14.650	207.3	0.692293787	0.879140829	0.015910264	0.164143259	0.050590547
2019-07-21T10:35:00	0.2664	14.681	207.4	0.688858605	0.873842903	0.015762027	0.162613925	0.050119191
2019-07-21T10:40:00	0.2661	14.707	207.6	0.688025997	0.872560346	0.015726208	0.162244388	0.050005296
2019-07-21T10:45:00	0.2655	14.738	207.8	0.686216018	0.869774306	0.015648490	0.161442592	0.049758175
2019-07-21T10:50:00	0.2651	14.763	207.9	0.684731060	0.867490673	0.015584880	0.160786339	0.049555911
2019-07-21T10:55:00	0.2642	14.799	208.1	0.681941123	0.863205336	0.015465739	0.159557179	0.049177072
2019-07-21T11:00:00	0.2644	14.829	208.3	0.682411610	0.863927532	0.015485797	0.159764113	0.049240851
2019-07-21T11:05:00	0.2651	14.860	208.5	0.684837921	0.867654945	0.015589453	0.160833517	0.049570452
2019-07-21T11:10:00	0.2634	14.881	208.6	0.679111601	0.858866054	0.015345399	0.158315650	0.048794421
2019-07-21T11:15:00	0.2640	14.912	208.8	0.681213904	0.862089432	0.015434763	0.159237605	0.049078576
2019-07-21T11:20:00	0.2626	14.935	208.9	0.676461946	0.854808866	0.015233157	0.157157668	0.048437520
2019-07-21T11:25:00	0.2617	14.961	209.1	0.673665670	0.850533725	0.015115173	0.155940454	0.048062363
2019-07-21T11:30:00	0.2611	14.983	209.3	0.671848547	0.847759187	0.015038761	0.155152129	0.047819393
2019-07-21T11:35:00	0.2598	14.996	209.4	0.667411804	0.840996707	0.014853046	0.153236138	0.047228866
2019-07-21T11:40:00	0.2608	15.035	209.6	0.670829708	0.846204777	0.014996007	0.154711041	0.047683446
2019-07-21T11:45:00	0.2599	15.069	209.8	0.667701679	0.841438018	0.014865143	0.153360937	0.047267330
2019-07-21T11:50:00	0.2597	15.103	210.0	0.667191713	0.840661684	0.014843865	0.153141417	0.047199672
2019-07-21T11:55:00	0.2602	15.151	210.3	0.668646280	0.842876597	0.014904598	0.153767987	0.047392787
2019-07-21T12:00:00	0.2611	15.181	210.5	0.671735970	0.847587388	0.015034034	0.155103358	0.047804361
2019-07-21T12:05:00	0.2596	15.219	210.8	0.666644096	0.839828282	0.014821034	0.152905873	0.047127075
2019-07-21T12:10:00	0.2597	15.255	211.0	0.667116565	0.840547304	0.014840731	0.153109083	0.047189706
2019-07-21T12:15:00	0.2574	15.264	211.1	0.659721858	0.829315690	0.014534021	0.149944812	0.046214447
2019-07-21T12:20:00	0.2581	15.284	211.2	0.661835409	0.832521122	0.014621342	0.150845690	0.046492107
2019-07-21T12:25:00	0.2578	15.295	211.3	0.660996594	0.831248509	0.014586654	0.150487816	0.046381806
2019-07-21T12:30:00	0.2582	15.299	211.3	0.662125729	0.832961724	0.014633358	0.150969656	0.046530314
2019-07-21T12:35:00	0.2574	15.304	211.4	0.659646556	0.829201556	0.014530915	0.149912767	0.046204571
2019-07-21T12:40:00	0.2579	15.304	211.4	0.661104155	0.831411662	0.014591099	0.150533681	0.046395942
2019-07-21T12:45:00	0.2592	15.307	211.5	0.665511025	0.838104710	0.014773853	0.152419113	0.046977051
2019-07-21T12:50:00	0.2587	15.326	211.6	0.663689814	0.835336683	0.014698182	0.151638437	0.046736439
2019-07-21T12:55:00	0.2567	15.345	211.7	0.657273358	0.825607047	0.014433203	0.148904694	0.045893873
2019-07-21T13:00:00	0.2590	15.360	211.9	0.664963154	0.837271712	0.014751067	0.152184043	0.046904600
2019-07-21T13:05:00	0.2588	15.377	211.9	0.664125064	0.835997953	0.014716248	0.151824819	0.046793884
2019-07-21T13:10:00	0.2587	15.382	212.1	0.663942380	0.835720383	0.014708664	0.151746576	0.046769768
2019-07-21T13:15:00	0.2572	15.383	212.1	0.658839541	0.827978689	0.014497649	0.149569569	0.046098794
2019-07-21T13:20:00	0.2570	15.373	212.1	0.658328325	0.827204334	0.014476597	0.149352378	0.046031853
2019-07-21T13:25:00	0.2584	15.356	212.0	0.662738573	0.833892036	0.014658740	0.151231515	0.046611022
2019-07-21T13:30:00	0.2558	15.344	212.0	0.654349120	0.821184539	0.014313277	0.147667444	0.045512540
2019-07-21T13:35:00	0.2567	15.333	212.0	0.657451023	0.825875977	0.014440506	0.148980039	0.045917095
2019-07-21T13:40:00	0.2564	15.322	212.0	0.656282741	0.824108057	0.014392518	0.148484958	0.045764506
2019-07-21T13:45:00	0.2559	15.317	211.9	0.654785495	0.821844032	0.014331140	0.147851733	0.045569340
2019-07-21T13:50:00	0.2547	15.314	212.0	0.650656768	0.815610793	0.014162597	0.146112906	0.045033417
2019-07-21T13:55:00	0.2527	15.317	212.0	0.644217084	0.805917652	0.013901792	0.143422230	0.044204124
2019-07-21T14:00:00	0.2515	15.322	212.1	0.640076215	0.799703374	0.013735423	0.141705824	0.043675111
2019-07-21T14:05:00	0.2519	15.327	212.1	0.641541745	0.801901056	0.013794185	0.142312062	0.043861960
2019-07-21T14:10:00	0.2524	15.327	212.1	0.643006679	0.804099667	0.013853054	0.142919400	0.044049147
2019-07-21T14:15:00	0.2521	15.336	212.2	0.642163474	0.802833940	0.013819153	0.142569656	0.043941353
2019-07-21T14:20:00	0.2531	15.340	212.3	0.645605331	0.808004285	0.013957802	0.144000074	0.044382221
2019-07-21T14:25:00	0.2528	15.338	212.3	0.644433204	0.806242389	0.013910504	0.143512109	0.044231826
2019-07-21T14:30:00	0.2534	15.333	212.4	0.646555725	0.809433738	0.013996214	0.144396363	0.044504361
2019-07-21T14:35:00	0.2529	15.336	212.4	0.644724928	0.806680788	0.013922268	0.143633475	0.044269232
2019-07-21T14:40:00	0.2527	15.340	212.5	0.644211708	0.805909576	0.013901576	0.143419995	0.044203435
2019-07-21T14:45:00	0.2530	15.348	212.6	0.645016629	0.807119223	0.013934036	0.143754885	0.044306652
2019-07-21T14:50:00	0.2508	15.357	212.7	0.637906599	0.796453207	0.013648669	0.140810803	0.043399257
2019-07-21T14:55:00	0.2519	15.369	212.8	0.641352535	0.801617217	0.013786591	0.142233717	0.043837813
2019-07-21T15:00:00	0.2530	15.379	213.0	0.645124667	0.807281627	0.013938396	0.143799865	0.044320515
2019-07-21T15:05:00	0.2537	15.388	213.0	0.647576053	0.810969233	0.014037514	0.144822446	0.044635684
2019-07-21T15:10:00	0.2539	15.392	213.0	0.648051021	0.811684317	0.014056761	0.145021013	0.044696884
2019-07-21T15:15:00	0.2543	15.397	213.1	0.649513307	0.813887054	0.014116103	0.145633232	0.044885576
2019-07-21T15:20:00	0.2549	15.401	213.2	0.651303934	0.816586873	0.014188947	0.146384752	0.045117202
2019-07-21T15:25:00	0.2536	15.414	213.2	0.647171216	0.810359887	0.014021120	0.144653310	0.044583555
2019-07-21T15:30:00	0.2528	15.433	213.3	0.644352207	0.806120680	0.013907239	0.143478421	0.044221443
2019-07-21T15:35:00	0.2510	15.443	213.4	0.638561446	0.797433772	0.013674823	0.141080633	0.043482421
2019-07-21T15:40:00	0.2506	15.447	213.5	0.637056810	0.795181280	0.013614768	0.140461047	0.043291459
2019-07-21T15:45:00	0.2505	15.460	213.6	0.636872749	0.794905866	0.013607430	0.140385351	0.043268129
2019-07-21T15:50:00	0.2494	15.473	213.7	0.633384578	0.789691884	0.013468771	0.138954829	0.042827228
2019-07-21T15:55:00	0.2490	15.484	213.8	0.631877767	0.787442750	0.013409102	0.138339229	0.042637494
2019-07-21T16:00:00	0.2511	15.494	213.8	0.638961871	0.798033545	0.013690829	0.141245760	0.043533315
2019-07-21T16:05:00	0.2490	15.502	214.0	0.631845742	0.787394968	0.013407835	0.138326161	0.042633466
2019-07-21T16:10:00	0.2513	15.502	214.0	0.639595857	0.798983434	0.013716191	0.141507410	0.043613958
2019-07-21T16:15:00	0.2495	15.505	214.2	0.633472787	0.789823608	0.013472268	0.138990910	0.042838348
2019-07-21T16:20:00	0.2501	15.507	214.1	0.635607706	0.793013737	0.013557058	0.139865668	0.043107957
2019-07-21T16:25:00	0.2504	15.498	214.1	0.636420468	0.794229231	0.013589410	0.140199437	0.043210828
2019-07-21T16:30:00	0.2475	15.487	214.1	0.626981953	0.780148304	0.013216177	0.136348859	0.042024043
2019-07-21T16:35:00	0.2484	15.472	214.1	0.629782598	0.784318602	0.013326362	0.137485616	0.042374402
2019-07-21T16:40:00	0.2469	15.455	214.1	0.624968316	0.777153996	0.013137248	0.135534564	0.041773069
2019-07-21T16:45:00	0.2467	15.437	214.0	0.624458189	0.776395973	0.013117291	0.135328675	0.041709612
2019-07-21T16:50:00	0.2461	15.419	213.9	0.622290424	0.773177236	0.013032661	0.134455565	0.041440511
2019-07-21T16:55:00	0.2463	15.398	213.9	0.623106217	0.774388075	0.013064477	0.134783799	0.041541676
2019-07-21T17:00:00	0.2440	15.376	213.8	0.615293993	0.762815836	0.012761453	0.131657558	0.040578138
2019-07-21T17:05:00	0.2465	15.357	213.8	0.623743017	0.775333635	0.013089339	0.135040302	0.041620733
2019-07-21T17:10:00	0.2447	15.341	213.7	0.617592715	0.766215592	0.012850235	0.132573506	0.040860442
2019-07-21T17:15:00	0.2442	15.328	213.7	0.616085167	0.763985461	0.012791974	0.131972438	0.040675187
2019-07-21T17:20:00	0.2469	15.316	213.7	0.624863684	0.776998501	0.013133153	0.135492321	0.041760049
2019-07-21T17:25:00	0.2454	15.300	213.7	0.620042760	0.769844050	0.012945212	0.133553364	0.041162444
2019-07-21T17:30:00	0.2455	15.283	213.6	0.620195560	0.770070510	0.012951147	0.133614597	0.041181316
2019-07-21T17:35:00	0.2432	15.265	213.5	0.612709440	0.758998651	0.012662011	0.130631635	0.040261939
2019-07-21T17:40:00	0.2447	15.248	213.5	0.617514079	0.766099218	0.012847193	0.132542118	0.040850768
2019-07-21T17:45:00	0.2439	15.227	213.4	0.615009832	0.762395877	0.012750500	0.131544559	0.040543311
2019-07-21T17:50:00	0.2454	15.207	213.3	0.620143174	0.769992869	0.012949112	0.133593602	0.041174846
2019-07-21T17:55:00	0.2436	15.187	213.3	0.613986649	0.760884288	0.012711102	0.131138098	0.040418035
2019-07-21T18:00:00	0.2436	15.166	213.2	0.614139708	0.761110353	0.012716992	0.131198860	0.040436763
2019-07-21T18:05:00	0.2448	15.147	213.1	0.617946575	0.766739336	0.012863930	0.132714796	0.040903989
2019-07-21T18:10:00	0.2463	15.126	213.0	0.623075690	0.774342755	0.013063286	0.134771509	0.041537888
2019-07-21T18:15:00	0.2439	15.106	213.0	0.614931139	0.762279589	0.012747468	0.131513275	0.040533669
2019-07-21T18:20:00	0.2454	15.086	212.9	0.620064595	0.769876409	0.012946060	0.133562113	0.041165140
2019-07-21T18:25:00	0.2462	15.068	212.8	0.622539117	0.773546299	0.013042356	0.134555583	0.041471337
2019-07-21T18:30:00	0.2448	15.050	212.8	0.618047048	0.766888065	0.012867820	0.132754927	0.040916358
2019-07-21T18:35:00	0.2490	15.031	212.7	0.631784837	0.787304101	0.013405426	0.138301309	0.042625807
2019-07-21T18:40:00	0.2469	15.013	212.7	0.624985767	0.777179931	0.013137931	0.135541610	0.041775241
2019-07-21T18:45:00	0.2457	14.993	212.6	0.620828522	0.771008815	0.012975749	0.133868407	0.041259543
2019-07-21T18:50:00	0.2477	14.976	212.5	0.627609363	0.781081971	0.013240819	0.136603094	0.042102400
2019-07-21T18:55:00	0.2469	14.958	212.4	0.625112198	0.777367837	0.013142879	0.135592665	0.041790976
2019-07-21T19:00:00	0.2469	14.938	212.4	0.624933452	0.777102182	0.013135883	0.135520488	0.041768730
2019-07-21T19:05:00	0.2445	14.919	212.3	0.617125236	0.765523841	0.012832154	0.132386968	0.040802949
2019-07-21T19:10:00	0.2472	14.899	212.2	0.625901196	0.778540777	0.013173784	0.135911497	0.041889243
2019-07-21T19:15:00	0.2479	14.880	212.2	0.628371677	0.782216842	0.013270793	0.136912324	0.042197708
2019-07-21T19:20:00	0.2469	14.860	212.1	0.624881136	0.777024435	0.013133836	0.135499366	0.041762221
2019-07-21T19:25:00	0.2482	14.840	211.9	0.629338491	0.783656862	0.013308858	0.137305031	0.042318744
2019-07-21T19:30:00	0.2486	14.819	212.0	0.630483522	0.785363350	0.013354012	0.137770881	0.042462324
2019-07-21T19:35:00	0.2519	14.801	210.6	0.641536217	0.801892762	0.013793963	0.142309773	0.043861254
2019-07-21T19:40:00	0.2552	14.778	210.5	0.652226196	0.817978482	0.014226542	0.146772610	0.045236744
2019-07-21T19:45:00	0.2557	14.758	210.4	0.654021358	0.820689299	0.014299868	0.147529103	0.045469902
2019-07-21T19:50:00	0.2535	14.736	210.3	0.646605674	0.809508885	0.013998235	0.144417206	0.044510786
2019-07-21T19:55:00	0.2577	14.715	210.2	0.660562901	0.830590765	0.014568736	0.150302959	0.046324832
2019-07-21T20:00:00	0.2560	14.692	210.2	0.655132614	0.822368750	0.014345358	0.147998413	0.045614548
2019-07-21T20:05:00	0.2557	14.670	196.6	0.653969464	0.820610897	0.014297746	0.147507206	0.045463154
2019-07-21T20:10:00	0.2574	14.648	210.0	0.659703758	0.829288255	0.014533274	0.149937109	0.046212073
2019-07-21T20:15:00	0.2566	14.626	209.8	0.656900406	0.825042603	0.014417879	0.148746598	0.045845146
2019-07-21T20:20:00	0.2551	14.603	196.4	0.652122356	0.817821761	0.014222306	0.146728913	0.045223276
2019-07-21T20:25:00	0.2553	14.580	209.7	0.652602609	0.818546664	0.014241901	0.146931065	0.045285581
2019-07-21T20:30:00	0.2550	14.556	209.5	0.651767534	0.817286313	0.014207839	0.146579652	0.045177272
2019-07-21T20:35:00	0.2535	14.533	196.1	0.646653347	0.809580611	0.014000163	0.144437101	0.044516917
2019-07-21T20:40:00	0.2543	14.510	209.4	0.649438686	0.813774603	0.014113072	0.145601958	0.044875937
2019-07-21T20:45:00	0.2528	14.487	209.4	0.644321189	0.806074073	0.013905989	0.143465521	0.044217467
2019-07-21T20:50:00	0.2535	14.464	209.2	0.646779016	0.809769694	0.014005247	0.144489552	0.044533083
2019-07-21T20:55:00	0.2545	14.442	209.0	0.650222353	0.814955792	0.014144924	0.145930575	0.044977220
2019-07-21T21:00:00	0.2543	14.419	209.0	0.649386727	0.813696305	0.014110961	0.145580183	0.044869226
2019-07-21T21:05:00	0.2536	14.396	208.8	0.647233987	0.810454357	0.014023661	0.144679528	0.044591636
2019-07-21T21:10:00	0.2547	14.373	208.8	0.650676889	0.815641135	0.014163416	0.146121354	0.045036020
2019-07-21T21:15:00	0.2540	14.350	208.6	0.648524920	0.812397982	0.014075978	0.145219274	0.044757991
2019-07-21T21:20:00	0.2546	14.327	208.6	0.650321925	0.815105910	0.014148974	0.145972356	0.044990098
2019-07-21T21:25:00	0.2550	14.304	195.1	0.651789176	0.817318969	0.014208721	0.146588754	0.045180078
2019-07-21T21:30:00	0.2551	14.281	194.9	0.651940628	0.817547510	0.014214896	0.146652457	0.045199711
2019-07-21T21:35:00	0.2543	14.259	208.2	0.649460342	0.813807237	0.014113951	0.145611034	0.044878735
2019-07-21T21:40:00	0.2557	14.236	208.2	0.653887303	0.820486772	0.014294386	0.147472542	0.045452470
2019-07-21T21:45:00	0.2551	14.213	208.1	0.652066114	0.817736881	0.014220013	0.146705249	0.045215982
2019-07-21T21:50:00	0.2533	14.192	194.6	0.645964267	0.808544057	0.013972303	0.144149674	0.044428330
2019-07-21T21:55:00	0.2543	14.169	207.9	0.649408383	0.813728938	0.014111841	0.145589258	0.044872023
2019-07-21T22:00:00	0.2548	14.145	207.8	0.651204948	0.816437556	0.014184915	0.146343155	0.045104382
2019-07-21T22:05:00	0.2535	14.123	194.3	0.646929299	0.809995828	0.014011328	0.144552290	0.044552420
2019-07-21T22:10:00	0.2546	14.101	207.6	0.650552920	0.815454199	0.014158371	0.146069308	0.045019979
2019-07-21T22:15:00	0.2564	14.078	194.2	0.656144306	0.823898646	0.014386838	0.148426351	0.045746443
2019-07-21T22:20:00	0.2555	14.056	207.3	0.653189739	0.819433155	0.014265875	0.147178401	0.045361813
2019-07-21T22:25:00	0.2562	14.034	193.9	0.655493171	0.822913888	0.014360134	0.148150851	0.045661531
2019-07-21T22:30:00	0.2580	14.011	193.8	0.661404936	0.831867953	0.014603535	0.150661976	0.046435484
2019-07-21T22:35:00	0.2588	13.989	193.7	0.664030920	0.835854907	0.014712340	0.151784495	0.046781456
2019-07-21T22:40:00	0.2579	13.966	193.6	0.661082791	0.831379257	0.014590216	0.150524571	0.046393135
2019-07-21T22:45:00	0.2574	13.943	193.5	0.659445209	0.828896404	0.014522611	0.149827102	0.046178168
2019-07-21T22:50:00	0.2583	13.921	206.6	0.662400539	0.833378853	0.014644737	0.151087049	0.046566496
2019-07-21T22:55:00	0.2576	13.899	193.3	0.660107377	0.829900087	0.014549928	0.150108924	0.046265028
2019-07-21T23:00:00	0.2599	13.878	193.2	0.667649165	0.841358064	0.014862951	0.153338325	0.047260361
2019-07-21T23:05:00	0.2585	13.855	193.1	0.663065101	0.834387845	0.014672273	0.151371133	0.046654053
2019-07-21T23:10:00	0.2591	13.832	193.0	0.665034598	0.837380322	0.014754038	0.152214686	0.046914045
2019-07-21T23:15:00	0.2586	13.811	192.9	0.663398802	0.834894641	0.014686110	0.151513887	0.046698052
2019-07-21T23:20:00	0.2599	13.790	192.8	0.667660884	0.841375907	0.014863440	0.153343371	0.047261916
2019-07-21T23:25:00	0.2583	13.770	205.9	0.662421078	0.833410030	0.014645587	0.151095825	0.046569201
2019-07-21T23:30:00	0.2592	13.749	205.7	0.665373981	0.837896322	0.014768151	0.152360295	0.046958923
2019-07-21T23:35:00	0.2590	13.728	192.5	0.664721572	0.836904486	0.014741026	0.152080450	0.046872672
2019-07-21T23:40:00	0.2577	13.706	192.4	0.660461901	0.830437611	0.014564564	0.150259926	0.046311568
2019-07-21T23:45:00	0.2574	13.686	192.3	0.659480447	0.828949806	0.014524064	0.149842092	0.046182788
2019-07-21T23:50:00	0.2584	13.666	192.3	0.662763640	0.833930096	0.014659778	0.151242231	0.046614325
2019-07-21T23:55:00	0.2580	13.648	205.3	0.661454829	0.831943648	0.014605598	0.150683263	0.046442045
2019-07-22T00:00:00	0.2580	13.628	205.1	0.661457764	0.831948101	0.014605719	0.150684515	0.046442431
2019-07-22T00:05:00	0.2585	13.608	192.0	0.663100303	0.834441303	0.014673732	0.151386189	0.046658694
2019-07-22T00:10:00	0.2594	13.588	204.9	0.666052653	0.838928471	0.014796396	0.152651691	0.047048734
2019-07-22T00:15:00	0.2586	13.568	204.9	0.663434001	0.834948104	0.014687570	0.151528949	0.046702694
2019-07-22T00:20:00	0.2580	13.550	204.8	0.661469503	0.831965912	0.014606205	0.150689524	0.046443975
2019-07-22T00:25:00	0.2591	13.529	204.7	0.665078576	0.837447182	0.014755866	0.152233551	0.046919859
2019-07-22T00:30:00	0.2586	13.508	204.6	0.663442801	0.834961470	0.014687935	0.151532715	0.046703854
2019-07-22T00:35:00	0.2585	13.487	191.4	0.663117904	0.834468032	0.014674462	0.151393717	0.046661014
2019-07-22T00:40:00	0.2574	13.468	204.4	0.659512747	0.828998758	0.014525396	0.149855834	0.046187023
2019-07-22T00:45:00	0.2556	13.449	204.2	0.653603766	0.820058462	0.014282793	0.147352946	0.045415609
2019-07-22T00:50:00	0.2558	13.428	204.1	0.654264065	0.821056014	0.014309797	0.147631538	0.045501474
2019-07-22T00:55:00	0.2547	13.409	204.0	0.650650061	0.815600679	0.014162324	0.146110090	0.045032549
2019-07-22T01:00:00	0.2572	13.390	203.9	0.658868092	0.828021943	0.014498825	0.149581704	0.046102534
2019-07-22T01:05:00	0.2562	13.369	203.8	0.655587239	0.823056132	0.014363990	0.148190636	0.045673793
2019-07-22T01:10:00	0.2587	13.351	203.7	0.663794065	0.835495055	0.014702508	0.151683069	0.046750195
2019-07-22T01:15:00	0.2580	13.334	203.6	0.661501786	0.832014892	0.014607540	0.150703299	0.046448220
2019-07-22T01:20:00	0.2583	13.315	203.5	0.662488560	0.833512472	0.014648382	0.151124660	0.046578088
2019-07-22T01:25:00	0.2555	13.296	203.4	0.653298574	0.819597516	0.014270321	0.147224273	0.045375951
2019-07-22T01:30:00	0.2552	13.278	190.7	0.652315172	0.818112778	0.014230172	0.146810057	0.045248285
2019-07-22T01:35:00	0.2565	13.261	203.6	0.656590322	0.824573395	0.014405144	0.148615218	0.045804653
2019-07-22T01:40:00	0.2575	13.244	203.3	0.659876138	0.829549542	0.014540385	0.150010476	0.046234686
2019-07-22T01:45:00	0.2564	13.226	190.3	0.656267748	0.824085376	0.014391903	0.148478610	0.045762550
2019-07-22T01:50:00	0.2578	13.209	203.3	0.660866291	0.831050873	0.014581269	0.150432263	0.046364684
2019-07-22T01:55:00	0.2568	13.191	203.1	0.657587251	0.826082201	0.014446107	0.149037824	0.045934905
2019-07-22T02:00:00	0.2577	13.173	203.0	0.660544098	0.830562253	0.014567959	0.150294947	0.046322362
2019-07-22T02:05:00	0.2581	13.156	202.9	0.661859108	0.832557086	0.014622323	0.150855807	0.046495225
2019-07-22T02:10:00	0.2589	13.138	202.8	0.664484762	0.836544562	0.014731187	0.151978940	0.046841385
2019-07-22T02:15:00	0.2586	13.121	202.7	0.663504398	0.835055031	0.014690490	0.151559075	0.046711979
2019-07-22T02:20:00	0.2575	13.103	202.6	0.659899627	0.829585148	0.014541355	0.150020475	0.046237767
2019-07-22T02:25:00	0.2596	13.086	202.4	0.666786878	0.840045554	0.014826985	0.152967269	0.047145998
2019-07-22T02:30:00	0.2598	13.071	202.4	0.667444776	0.841046901	0.014854422	0.153250330	0.047233240
2019-07-22T02:35:00	0.2594	13.057	202.3	0.666137654	0.839057772	0.014799936	0.152688208	0.047059989
2019-07-22T02:40:00	0.2592	13.042	202.2	0.665485383	0.838065718	0.014772786	0.152408107	0.046973659
2019-07-22T02:45:00	0.2605	13.027	202.1	0.669745015	0.844550878	0.014950560	0.154242169	0.047538934
2019-07-22T02:50:00	0.2610	13.011	201.9	0.671383807	0.847050037	0.015019251	0.154950846	0.047757356
2019-07-22T02:55:00	0.2605	12.996	201.9	0.669750871	0.844559804	0.014950805	0.154244698	0.047539714
2019-07-22T03:00:00	0.2617	12.981	201.8	0.673678629	0.850553522	0.015115719	0.155946084	0.048064098
2019-07-22T03:05:00	0.2610	12.964	201.7	0.671392587	0.847063433	0.015019620	0.154954648	0.047758527
2019-07-22T03:10:00	0.2599	12.950	188.7	0.667795653	0.841581101	0.014869065	0.153401408	0.047279804
2019-07-22T03:15:00	0.2608	12.935	188.6	0.670744186	0.846074340	0.014992421	0.154674047	0.047672043
2019-07-22T03:20:00	0.2606	12.920	188.5	0.670092742	0.845080969	0.014965121	0.154392397	0.047585236
2019-07-22T03:25:00	0.2590	12.906	188.5	0.664856450	0.837109507	0.014746632	0.152138283	0.046890496
2019-07-22T03:30:00	0.2610	12.891	188.4	0.671407221	0.847085760	0.015020234	0.154960984	0.047760480
2019-07-22T03:35:00	0.2591	12.878	188.3	0.665189987	0.837616564	0.014760499	0.152281345	0.046934590
2019-07-22T03:40:00	0.2579	12.864	188.2	0.661258895	0.831646397	0.014597496	0.150599677	0.046416283
2019-07-22T03:45:00	0.2601	12.850	188.1	0.668470943	0.842609510	0.014897270	0.153692388	0.047369487
2019-07-22T03:50:00	0.2605	12.838	188.1	0.669783081	0.844608902	0.014952153	0.154258610	0.047544002
2019-07-22T03:55:00	0.2602	12.826	188.0	0.668804147	0.843117095	0.014911197	0.153836071	0.047413771
2019-07-22T04:00:00	0.2594	12.815	187.9	0.666187482	0.839133571	0.014802011	0.152709617	0.047066587
2019-07-22T04:05:00	0.2597	12.804	187.9	0.667028026	0.840412547	0.014837039	0.153070991	0.047177966
2019-07-22T04:10:00	0.2610	12.795	187.8	0.671468165	0.847178745	0.015022792	0.154987372	0.047768613
2019-07-22T04:15:00	0.2588	12.786	187.7	0.664122874	0.835994625	0.014716157	0.151823881	0.046793595
2019-07-22T04:20:00	0.2601	12.777	187.6	0.668566566	0.842755167	0.014901266	0.153733615	0.047382193
2019-07-22T04:25:00	0.2616	12.769	200.4	0.673331763	0.850023675	0.015101117	0.155795438	0.048017667
2019-07-22T04:30:00	0.2608	12.761	200.4	0.670573545	0.845814099	0.014985268	0.154600244	0.047649297
2019-07-22T04:35:00	0.2595	12.752	200.3	0.666503312	0.839614068	0.014815167	0.152845349	0.047108421
2019-07-22T04:40:00	0.2605	12.746	200.2	0.669635301	0.844383646	0.014945967	0.154194785	0.047524330
2019-07-22T04:45:00	0.2612	12.740	200.1	0.672110584	0.848159111	0.015049768	0.155265679	0.047854390
2019-07-22T04:50:00	0.2603	12.734	200.0	0.669024141	0.843452275	0.014920396	0.153930974	0.047443021
2019-07-22T04:55:00	0.2615	12.729	200.0	0.673134915	0.849723029	0.015092833	0.155709979	0.047991328
2019-07-22T05:00:00	0.2617	12.726	199.9	0.673646973	0.850505162	0.015114386	0.155932332	0.048059859
2019-07-22T05:05:00	0.2618	12.723	199.9	0.674158958	0.851287409	0.015135951	0.156154820	0.048128432
2019-07-22T05:10:00	0.2640	12.720	199.9	0.681201083	0.862069762	0.015434217	0.159231973	0.049076841
2019-07-22T05:15:00	0.2624	12.720	199.8	0.675836169	0.853851550	0.015206711	0.156884837	0.048353430
2019-07-22T05:20:00	0.2636	12.720	199.8	0.679939258	0.860134613	0.015380548	0.158678279	0.048906187
2019-07-22T05:25:00	0.2642	12.720	187.0	0.681755268	0.862920102	0.015457819	0.159475473	0.049151890
2019-07-22T05:30:00	0.2638	12.721	187.0	0.680635136	0.861201650	0.015410134	0.158983508	0.049000261
2019-07-22T05:35:00	0.2646	12.723	199.8	0.683102954	0.864989090	0.015515295	0.160068442	0.049334648
2019-07-22T05:40:00	0.2658	12.728	199.8	0.687197884	0.871285308	0.015690625	0.161877285	0.049892151
2019-07-22T05:45:00	0.2663	12.732	186.7	0.688684753	0.873575051	0.015754544	0.162536728	0.050095398
2019-07-22T05:50:00	0.2629	12.737	199.8	0.677457610	0.856332730	0.015275283	0.157592280	0.048571471
2019-07-22T05:55:00	0.2652	12.742	199.8	0.685145161	0.868127304	0.015602605	0.160969202	0.049612271
2019-07-22T06:00:00	0.2635	12.747	199.7	0.679459691	0.859399503	0.015360176	0.158468109	0.048841410
2019-07-22T06:05:00	0.2656	12.754	187.1	0.686491597	0.870198313	0.015660310	0.161564534	0.049795759
2019-07-22T06:10:00	0.2646	12.762	199.8	0.683091285	0.864971168	0.015514797	0.160063302	0.049333064
2019-07-22T06:15:00	0.2656	12.772	199.9	0.686534801	0.870264793	0.015662164	0.161583656	0.049801652
2019-07-22T06:20:00	0.2642	12.782	199.9	0.681830114	0.863034965	0.015461008	0.159508374	0.049162030
2019-07-22T06:25:00	0.2648	12.791	199.9	0.683645183	0.865821970	0.015538452	0.160307344	0.049408280
2019-07-22T06:30:00	0.2652	12.802	200.0	0.685133498	0.868109372	0.015602106	0.160964050	0.049610684
2019-07-22T06:35:00	0.2654	12.814	200.1	0.685643873	0.868894211	0.015623966	0.161189575	0.049680192
2019-07-22T06:40:00	0.2669	12.829	200.1	0.690712200	0.876700350	0.015841923	0.163438202	0.050373241
2019-07-22T06:45:00	0.2660	12.846	200.1	0.687641471	0.871968221	0.015709680	0.162073873	0.049952742
2019-07-22T06:50:00	0.2653	12.860	200.2	0.685545782	0.868743352	0.015619763	0.161146217	0.049666829
2019-07-22T06:55:00	0.2642	12.875	187.4	0.681818440	0.863017049	0.015460511	0.159503242	0.049160448
2019-07-22T07:00:00	0.2660	12.890	200.3	0.687543433	0.871817275	0.015705468	0.162030414	0.049939347
2019-07-22T07:05:00	0.2660	12.904	200.4	0.687727851	0.872101224	0.015713392	0.162112169	0.049964545
2019-07-22T07:10:00	0.2682	12.923	200.5	0.694743888	0.882925751	0.016016440	0.165238655	0.050928158
2019-07-22T07:15:00	0.2670	12.948	200.5	0.691025912	0.877184253	0.015855466	0.163577925	0.050416305
2019-07-22T07:20:00	0.2665	12.987	200.7	0.689257676	0.874457848	0.015779210	0.162791203	0.050173830
2019-07-22T07:25:00	0.2642	13.020	200.8	0.681948216	0.863216222	0.015466041	0.159560297	0.049178033
2019-07-22T07:30:00	0.2656	13.052	200.9	0.686370211	0.870011539	0.015655103	0.161510815	0.049779202
2019-07-22T07:35:00	0.2667	13.099	201.0	0.690136077	0.875811898	0.015817068	0.163181770	0.050294206
2019-07-22T07:40:00	0.2659	13.147	201.3	0.687390544	0.871581892	0.015698900	0.161962652	0.049918462
2019-07-22T07:45:00	0.2636	13.165	188.5	0.679751010	0.859846030	0.015372550	0.158595762	0.048880754
2019-07-22T07:50:00	0.2628	13.186	201.5	0.677324234	0.856128549	0.015269636	0.157534024	0.048553516
2019-07-22T07:55:00	0.2653	13.194	188.6	0.685337930	0.868423714	0.015610860	0.161054364	0.049638519
2019-07-22T08:00:00	0.2652	13.213	201.6	0.685196612	0.868206413	0.015604808	0.160991930	0.049619276
2019-07-22T08:05:00	0.2664	13.242	201.7	0.688963686	0.874004813	0.015766551	0.162660595	0.050133575
2019-07-22T08:10:00	0.2671	13.275	201.9	0.691425889	0.877801345	0.015872743	0.163756160	0.050471239
2019-07-22T08:15:00	0.2660	13.309	202.0	0.687704541	0.872065332	0.015712390	0.162101834	0.049961360
2019-07-22T08:20:00	0.2648	13.332	202.1	0.683653417	0.865834620	0.015538804	0.160310973	0.049409399
2019-07-22T08:25:00	0.2668	13.363	202.3	0.690351876	0.876144652	0.015826375	0.163277797	0.050323803
2019-07-22T08:30:00	0.2670	13.394	202.4	0.690861523	0.876930672	0.015848369	0.163504701	0.050393737
2019-07-22T08:35:00	0.2651	13.425	202.5	0.684859072	0.867687460	0.015590359	0.160842856	0.049573330
2019-07-22T08:40:00	0.2675	13.459	202.7	0.692531081	0.879507174	0.015920531	0.164249180	0.050623193
2019-07-22T08:45:00	0.2662	13.500	202.9	0.688485302	0.873267790	0.015745962	0.162448187	0.050068109
2019-07-22T08:50:00	0.2661	13.552	190.2	0.688018510	0.872548816	0.015725886	0.162241067	0.050004273
2019-07-22T08:55:00	0.2653	13.614	190.4	0.685271387	0.868321390	0.015608010	0.161024964	0.049629458
2019-07-22T09:00:00	0.2636	13.649	190.5	0.679912461	0.860093532	0.015379409	0.158666531	0.048902566
2019-07-22T09:05:00	0.2658	13.692	190.7	0.686943496	0.870893749	0.015679703	0.161764603	0.049857422
2019-07-22T09:10:00	0.2650	13.753	204.0	0.684521500	0.867168556	0.015575915	0.160693840	0.049527402
2019-07-22T09:15:00	0.2650	13.811	191.2	0.684380151	0.866951307	0.015569869	0.160631465	0.049508178
2019-07-22T09:20:00	0.2623	13.850	191.4	0.675754318	0.853726359	0.015203254	0.156849169	0.048342437
2019-07-22T09:25:00	0.2638	13.872	191.5	0.680510118	0.861009920	0.015404816	0.158928649	0.048983353
2019-07-22T09:30:00	0.2634	13.911	191.7	0.679063208	0.858791899	0.015343345	0.158294461	0.048787890
2019-07-22T09:35:00	0.2637	13.969	192.0	0.680227102	0.860575932	0.015392782	0.158804497	0.048945088
2019-07-22T09:40:00	0.2625	14.006	205.3	0.676167663	0.854358629	0.015220717	0.157029333	0.048397966
2019-07-22T09:45:00	0.2632	14.044	205.5	0.678638507	0.858141201	0.015325326	0.158108565	0.048730595
2019-07-22T09:50:00	0.2651	14.074	192.4	0.684694406	0.867434329	0.015583312	0.160770157	0.049550924
2019-07-22T09:55:00	0.2633	14.121	206.0	0.679008233	0.858707661	0.015341012	0.158270391	0.048780472
2019-07-22T10:00:00	0.2650	14.173	206.1	0.684411714	0.866999817	0.015571219	0.160645393	0.049512470
2019-07-22T10:05:00	0.2632	14.220	193.2	0.678580604	0.858052499	0.015322870	0.158083230	0.048722787
2019-07-22T10:10:00	0.2650	14.242	193.3	0.684492338	0.867123733	0.015574667	0.160680970	0.049523436
2019-07-22T10:15:00	0.2656	14.267	193.5	0.686487650	0.870192239	0.015660141	0.161562787	0.049795220
2019-07-22T10:20:00	0.2661	14.297	206.7	0.688156290	0.872761011	0.015731810	0.162302187	0.050023110
2019-07-22T10:25:00	0.2655	14.322	207.0	0.685916691	0.869313834	0.015635657	0.161310195	0.049717369
2019-07-22T10:30:00	0.2647	14.345	207.3	0.683349707	0.865368078	0.015525831	0.160177136	0.049368149
2019-07-22T10:35:00	0.2651	14.371	207.1	0.684693889	0.867433534	0.015583290	0.160769929	0.049550854
2019-07-22T10:40:00	0.2646	14.395	207.3	0.683104321	0.864991188	0.015515354	0.160069044	0.049334834
2019-07-22T10:45:00	0.2638	14.423	194.1	0.680535358	0.861048628	0.015405890	0.158939724	0.048986766
2019-07-22T10:50:00	0.2630	14.444	194.2	0.677964585	0.857108984	0.015296757	0.157813820	0.048639752
2019-07-22T10:55:00	0.2635	14.466	194.3	0.679637124	0.859671460	0.015367712	0.158545852	0.048865371
2019-07-22T11:00:00	0.2639	14.491	194.4	0.680982674	0.861734709	0.015424921	0.159136062	0.049047280
2019-07-22T11:05:00	0.2647	14.519	194.6	0.683305949	0.865300866	0.015523962	0.160157858	0.049362207
2019-07-22T11:10:00	0.2633	14.539	208.0	0.678779044	0.858356506	0.015331288	0.158170067	0.048749551
2019-07-22T11:15:00	0.2618	14.556	194.8	0.673919653	0.850921754	0.015125869	0.156050807	0.048096374
2019-07-22T11:20:00	0.2628	14.575	194.9	0.677227288	0.855980146	0.015265533	0.157491687	0.048540468
2019-07-22T11:25:00	0.2631	14.595	195.0	0.678247259	0.857541896	0.015308737	0.157937414	0.048677845
2019-07-22T11:30:00	0.2612	14.617	195.1	0.672079247	0.848111281	0.015048451	0.155252097	0.047850204
2019-07-22T11:35:00	0.2626	14.632	195.2	0.676695276	0.855165901	0.015243023	0.157259461	0.048468893
2019-07-22T11:40:00	0.2627	14.654	195.3	0.677062277	0.855727571	0.015258549	0.157419640	0.048518262
2019-07-22T11:45:00	0.2628	14.680	208.8	0.677429241	0.856289300	0.015274082	0.157579888	0.048567652
2019-07-22T11:50:00	0.2618	14.704	195.5	0.673875781	0.850854724	0.015124022	0.156031742	0.048090498
2019-07-22T11:55:00	0.2622	14.724	209.0	0.675223460	0.852914552	0.015180842	0.156617944	0.048271171
2019-07-22T12:00:00	0.2609	14.743	209.2	0.671013639	0.846485328	0.015003721	0.154790622	0.047707973
2019-07-22T12:05:00	0.2618	14.753	209.2	0.673997066	0.851040035	0.015129131	0.156084451	0.048106744
2019-07-22T12:10:00	0.2614	14.770	209.3	0.672729817	0.849104430	0.015075794	0.155534189	0.047937148
2019-07-22T12:15:00	0.2595	14.789	209.4	0.666552429	0.839688802	0.014817214	0.152866463	0.047114929
2019-07-22T12:20:00	0.2602	14.808	209.5	0.668884932	0.843240173	0.014914575	0.153870917	0.047424511
2019-07-22T12:25:00	0.2596	14.826	209.6	0.666960962	0.840310480	0.014834242	0.153042142	0.047169074
2019-07-22T12:30:00	0.2608	14.845	209.8	0.670602116	0.845857669	0.014986465	0.154612600	0.047653105
2019-07-22T12:35:00	0.2590	14.866	209.9	0.664748815	0.836945895	0.014742158	0.152092131	0.046876272
2019-07-22T12:40:00	0.2595	14.886	210.0	0.666427445	0.839498639	0.014812006	0.152812738	0.047098370
2019-07-22T12:45:00	0.2583	14.901	210.1	0.662535318	0.833583455	0.014650319	0.151144641	0.046584246
2019-07-22T12:50:00	0.2570	14.916	210.2	0.658310738	0.827177699	0.014475873	0.149344909	0.046029551
2019-07-22T12:55:00	0.2571	14.930	210.3	0.658679603	0.827736402	0.014491061	0.149501601	0.046077845
2019-07-22T13:00:00	0.2587	14.942	210.4	0.663968292	0.835759753	0.014709740	0.151757673	0.046773189
2019-07-22T13:05:00	0.2583	14.953	210.5	0.662697537	0.833829732	0.014657039	0.151213974	0.046605615
2019-07-22T13:10:00	0.2573	14.968	210.6	0.659129619	0.828418179	0.014509601	0.149692882	0.046136800
2019-07-22T13:15:00	0.2575	14.980	210.6	0.659826558	0.829474388	0.014538340	0.149989372	0.046228181
2019-07-22T13:20:00	0.2585	14.990	210.8	0.663147053	0.834512298	0.014675670	0.151406185	0.046664857
2019-07-22T13:25:00	0.2575	15.000	210.9	0.659907729	0.829597430	0.014541689	0.150023924	0.046238830
2019-07-22T13:30:00	0.2564	15.007	210.9	0.656337057	0.824190225	0.014394748	0.148507956	0.045771594
2019-07-22T13:35:00	0.2570	15.020	211.0	0.658347883	0.827233955	0.014477402	0.149360684	0.046034413
2019-07-22T13:40:00	0.2561	15.042	211.1	0.655432814	0.822822625	0.014357660	0.148125328	0.045653665
2019-07-22T13:45:00	0.2552	15.065	211.3	0.652515390	0.818414999	0.014238341	0.146894341	0.045274262
2019-07-22T13:50:00	0.2570	15.087	211.4	0.658141407	0.826921259	0.014468903	0.149273006	0.046007390
2019-07-22T13:55:00	0.2549	15.103	211.6	0.651281283	0.816552705	0.014188024	0.146375233	0.045114268
2019-07-22T14:00:00	0.2548	15.107	211.6	0.650993033	0.816117916	0.014176285	0.146254123	0.045076941
2019-07-22T14:05:00	0.2555	15.107	211.7	0.653335585	0.819653410	0.014271833	0.147239874	0.045380759
2019-07-22T14:10:00	0.2553	15.103	211.7	0.652718724	0.818721960	0.014246640	0.146979963	0.045300652
2019-07-22T14:15:00	0.2571	15.106	211.7	0.658672688	0.827725927	0.014490776	0.149498663	0.046076940
2019-07-22T14:20:00	0.2555	15.117	211.7	0.653457559	0.819837628	0.014276818	0.147291296	0.045396608
2019-07-22T14:25:00	0.2546	15.126	211.8	0.650538537	0.815432511	0.014157786	0.146063270	0.045018118
2019-07-22T14:30:00	0.2558	15.135	212.0	0.654196242	0.820953533	0.014307022	0.147602910	0.045492650
2019-07-22T14:35:00	0.2556	15.146	212.0	0.653579529	0.820021852	0.014281803	0.147342725	0.045412459
2019-07-22T14:40:00	0.2538	15.156	212.2	0.647698596	0.811153707	0.014042479	0.144873663	0.044651470
2019-07-22T14:45:00	0.2548	15.170	212.2	0.651030253	0.816174054	0.014177801	0.146269758	0.045081760
2019-07-22T14:50:00	0.2527	15.186	212.3	0.644156575	0.805826740	0.013899354	0.143397072	0.044196370
2019-07-22T14:55:00	0.2544	15.196	212.4	0.649795638	0.814312557	0.014127575	0.145751591	0.044922056
2019-07-22T15:00:00	0.2542	15.201	212.5	0.649178172	0.813382056	0.014102491	0.145492801	0.044842294
2019-07-22T15:05:00	0.2529	15.218	212.6	0.644937921	0.807000916	0.013930861	0.143722120	0.044296553
2019-07-22T15:10:00	0.2526	15.231	212.7	0.643660447	0.805081449	0.013879368	0.143190876	0.044132819
2019-07-22T15:15:00	0.2530	15.235	212.8	0.645019428	0.807123431	0.013934149	0.143756050	0.044307011
2019-07-22T15:20:00	0.2527	15.235	212.9	0.644071577	0.805699041	0.013895929	0.143361735	0.044185479
2019-07-22T15:25:00	0.2529	15.235	212.8	0.644771432	0.806750679	0.013924144	0.143652827	0.044275196
2019-07-22T15:30:00	0.2535	15.229	212.9	0.646788715	0.809784287	0.014005639	0.144493601	0.044534331
2019-07-22T15:35:00	0.2556	15.225	199.3	0.653738688	0.820262265	0.014288309	0.147409850	0.045433147
2019-07-22T15:40:00	0.2537	15.221	213.0	0.647528766	0.810898050	0.014035599	0.144802684	0.044629594
2019-07-22T15:45:00	0.2542	15.217	213.0	0.649215411	0.813438165	0.014104003	0.145508402	0.044847103
2019-07-22T15:50:00	0.2524	15.217	213.0	0.642997680	0.804086156	0.013852692	0.142915665	0.044047996
2019-07-22T15:55:00	0.2539	15.213	199.3	0.647980174	0.811577640	0.014053889	0.144991385	0.044687753
2019-07-22T16:00:00	0.2534	15.205	213.0	0.646374426	0.809160992	0.013988883	0.144320722	0.044481048
2019-07-22T16:05:00	0.2521	15.207	213.0	0.642189357	0.802872784	0.013820193	0.142580385	0.043944659
2019-07-22T16:10:00	0.2517	15.200	213.0	0.640969414	0.801042581	0.013771221	0.142075149	0.043788941
2019-07-22T16:15:00	0.2519	15.198	213.2	0.641398559	0.801686256	0.013788438	0.142252772	0.043843686
2019-07-22T16:20:00	0.2515	15.198	213.0	0.640178348	0.799856471	0.013739514	0.141748029	0.043688119
2019-07-22T16:25:00	0.2503	15.196	213.1	0.636316357	0.794073501	0.013585264	0.140156660	0.043197644
2019-07-22T16:30:00	0.2516	15.195	213.1	0.640376999	0.800154276	0.013747472	0.141830138	0.043713426
2019-07-22T16:35:00	0.2496	15.195	213.1	0.633872058	0.790419930	0.013488105	0.139154290	0.042888704
2019-07-22T16:40:00	0.2508	15.192	199.5	0.637935467	0.796496426	0.013649821	0.140822692	0.043402921
2019-07-22T16:45:00	0.2487	15.186	213.2	0.630764543	0.785782337	0.013365106	0.137885338	0.042497600
2019-07-22T16:50:00	0.2489	15.179	213.2	0.631525661	0.786917457	0.013395178	0.138195582	0.042593221
2019-07-22T16:55:00	0.2477	15.166	213.2	0.627654326	0.781148896	0.013242586	0.136621323	0.042108019
2019-07-22T17:00:00	0.2471	15.158	213.2	0.625766951	0.778341168	0.013168523	0.135857222	0.041872515
2019-07-22T17:05:00	0.2464	15.153	213.2	0.623215631	0.774550516	0.013068747	0.134827853	0.041555254
2019-07-22T17:10:00	0.2461	15.150	213.2	0.622320807	0.773222322	0.013033846	0.134467783	0.041444277
2019-07-22T17:15:00	0.2462	15.145	213.2	0.622752194	0.773862548	0.013050665	0.134641307	0.041497758
2019-07-22T17:20:00	0.2450	15.136	213.2	0.618539407	0.767617020	0.012886891	0.132951678	0.040976998
2019-07-22T17:25:00	0.2449	15.128	213.2	0.618307392	0.767273488	0.012877902	0.132858944	0.040948417
2019-07-22T17:30:00	0.2442	15.118	213.2	0.616082910	0.763982123	0.012791887	0.131971540	0.040674910
2019-07-22T17:35:00	0.2438	15.109	213.2	0.614521726	0.761674669	0.012731698	0.131350577	0.040483524
2019-07-22T17:40:00	0.2445	15.098	213.1	0.616947142	0.765260355	0.012825269	0.132315939	0.040781058
2019-07-22T17:45:00	0.2442	15.088	213.1	0.616050742	0.763934559	0.012790645	0.131958730	0.040670962
2019-07-22T17:50:00	0.2432	15.075	213.1	0.612827571	0.759173000	0.012666548	0.130678437	0.040276363
2019-07-22T17:55:00	0.2418	15.066	213.1	0.607937212	0.751965193	0.012479452	0.128748211	0.039681449
2019-07-22T18:00:00	0.2426	15.056	213.1	0.610699811	0.756034467	0.012584967	0.129836788	0.040016959
2019-07-22T18:05:00	0.2431	15.043	199.4	0.612462883	0.758634800	0.012652546	0.130533983	0.040231841
2019-07-22T18:10:00	0.2427	15.026	213.0	0.610900109	0.756329753	0.012592635	0.129915898	0.040041341
2019-07-22T18:15:00	0.2428	15.011	212.9	0.611332882	0.756967875	0.012609211	0.130086910	0.040094049
2019-07-22T18:20:00	0.2435	14.998	213.0	0.613760473	0.760550268	0.012702402	0.131048337	0.040390370
2019-07-22T18:25:00	0.2439	14.985	212.9	0.614857525	0.762170812	0.012744632	0.131484014	0.040524650
2019-07-22T18:30:00	0.2427	14.971	199.2	0.610968041	0.756429907	0.012595237	0.129942734	0.040049612
2019-07-22T18:35:00	0.2421	14.956	212.7	0.609071800	0.753635652	0.012522732	0.129194713	0.039819065
2019-07-22T18:40:00	0.2453	14.942	212.8	0.619806145	0.769493408	0.012936024	0.133458570	0.041133227
2019-07-22T18:45:00	0.2432	14.928	212.7	0.612598685	0.758835201	0.012657759	0.130587765	0.040248417
2019-07-22T18:50:00	0.2443	14.915	212.6	0.616354232	0.764383352	0.012802362	0.132079613	0.040708219
2019-07-22T18:55:00	0.2449	14.903	212.7	0.618446468	0.767479404	0.012883290	0.132914527	0.040965548
2019-07-22T19:00:00	0.2456	14.891	212.6	0.620537475	0.770577324	0.012964433	0.133751670	0.041223564
2019-07-22T19:05:00	0.2444	14.878	212.6	0.616654198	0.764827009	0.012813949	0.132199148	0.040745061
2019-07-22T19:10:00	0.2465	14.865	212.6	0.623721581	0.775301800	0.013088502	0.135031664	0.041618070
2019-07-22T19:15:00	0.2468	14.853	212.6	0.624484200	0.776434619	0.013118308	0.135339169	0.041712846
2019-07-22T19:20:00	0.2459	14.841	212.5	0.621600324	0.772153395	0.013005779	0.134178228	0.041355033
2019-07-22T19:25:00	0.2471	14.830	212.5	0.625677689	0.778208453	0.013165025	0.135821139	0.041861394
2019-07-22T19:30:00	0.2457	14.817	212.5	0.621136677	0.771465747	0.012987735	0.133992064	0.041297655
2019-07-22T19:35:00	0.2466	14.807	212.4	0.623889051	0.775550523	0.013095045	0.135099160	0.041638873
2019-07-22T19:40:00	0.2464	14.795	212.4	0.623325906	0.774714243	0.013073051	0.134872261	0.041568941
2019-07-22T19:45:00	0.2463	14.783	212.3	0.623094202	0.774370237	0.013064008	0.134778961	0.041540185
2019-07-22T19:50:00	0.2460	14.773	212.3	0.621867733	0.772550079	0.013016193	0.134285659	0.041388144
2019-07-22T19:55:00	0.2458	14.763	212.3	0.621304268	0.771714286	0.012994256	0.134059340	0.041318391
2019-07-22T20:00:00	0.2470	14.751	212.3	0.625381971	0.777768828	0.013153442	0.135701636	0.041824562
2019-07-22T20:05:00	0.2450	14.742	212.2	0.618517752	0.767584954	0.012886052	0.132943021	0.040974330
2019-07-22T20:10:00	0.2462	14.731	212.2	0.622598640	0.773634639	0.013044677	0.134579527	0.041478717
2019-07-22T20:15:00	0.2457	14.721	212.1	0.621040311	0.771322847	0.012983986	0.133953388	0.041285735
2019-07-22T20:20:00	0.2457	14.710	212.1	0.621140171	0.771470929	0.012987871	0.133993466	0.041298088
2019-07-22T20:25:00	0.2463	14.699	212.1	0.622898081	0.774079096	0.013056356	0.134700016	0.041515853
2019-07-22T20:30:00	0.2455	14.689	212.1	0.620344708	0.770291577	0.012956942	0.133674381	0.041199742
2019-07-22T20:35:00	0.2450	14.679	212.0	0.618785392	0.767981286	0.012896424	0.133050032	0.041007312
2019-07-22T20:40:00	0.2449	14.666	212.0	0.618221440	0.767146235	0.012874573	0.132824598	0.040937831
2019-07-22T20:45:00	0.2458	14.656	212.0	0.621307762	0.771719467	0.012994392	0.134060743	0.041318823
2019-07-22T20:50:00	0.2471	14.645	211.9	0.625716748	0.778266526	0.013166556	0.135836928	0.041866260
2019-07-22T20:55:00	0.2465	14.635	211.9	0.623496886	0.774968124	0.013079727	0.134941130	0.041590167
2019-07-22T21:00:00	0.2472	14.625	211.8	0.625916204	0.778563092	0.013174372	0.135917566	0.041891114
2019-07-22T21:05:00	0.2463	14.616	211.8	0.623033485	0.774280100	0.013061639	0.134754518	0.041532651
2019-07-22T21:10:00	0.2458	14.605	211.8	0.621475346	0.771968018	0.013000914	0.134128033	0.041339563
2019-07-22T21:15:00	0.2452	14.596	211.7	0.619252841	0.768673646	0.012914551	0.133237040	0.041064950
2019-07-22T21:20:00	0.2439	14.586	211.7	0.615035912	0.762434418	0.012751505	0.131554928	0.040546506
2019-07-22T21:25:00	0.2453	14.577	211.7	0.619784497	0.769461330	0.012935183	0.133449899	0.041130555
2019-07-22T21:30:00	0.2446	14.567	211.7	0.617228892	0.765677209	0.012836162	0.132428318	0.040815694
2019-07-22T21:35:00	0.2449	14.558	211.6	0.618324875	0.767299373	0.012878580	0.132865931	0.040950570
2019-07-22T21:40:00	0.2450	14.547	211.6	0.618756746	0.767938862	0.012895314	0.133038576	0.041003781
2019-07-22T21:45:00	0.2454	14.536	211.6	0.619852259	0.769561741	0.012937814	0.133477042	0.041138921
2019-07-22T21:50:00	0.2425	14.526	211.6	0.610316704	0.755469772	0.012570308	0.129685546	0.039970345
2019-07-22T21:55:00	0.2436	14.517	211.5	0.614074661	0.761014277	0.012714489	0.131173035	0.040428803
2019-07-22T22:00:00	0.2450	14.507	211.5	0.618824527	0.768039244	0.012897941	0.133065684	0.041012136
2019-07-22T22:05:00	0.2442	14.496	211.3	0.615930122	0.763756210	0.012785990	0.131910701	0.040656159
2019-07-22T22:10:00	0.2445	14.487	211.4	0.617020562	0.765368975	0.012828107	0.132345219	0.040790082
2019-07-22T22:15:00	0.2432	14.477	211.3	0.612795036	0.759124980	0.012665298	0.130665546	0.040272390
2019-07-22T22:20:00	0.2453	14.467	211.3	0.619532304	0.769087659	0.012925394	0.133348907	0.041099428
2019-07-22T22:25:00	0.2448	14.459	211.3	0.617966692	0.766769115	0.012864709	0.132722831	0.040906465
2019-07-22T22:30:00	0.2448	14.449	211.2	0.618060697	0.766908271	0.012868349	0.132760379	0.040918038
2019-07-22T22:35:00	0.2453	14.439	211.2	0.619814188	0.769505326	0.012936336	0.133461792	0.041134220
2019-07-22T22:40:00	0.2446	14.427	211.1	0.617252662	0.765712380	0.012837081	0.132437801	0.040818617
2019-07-22T22:45:00	0.2443	14.416	197.5	0.616350395	0.764377677	0.012802214	0.132078084	0.040707748
2019-07-22T22:50:00	0.2456	14.404	211.0	0.620759576	0.770906593	0.012973068	0.133840749	0.041251019
2019-07-22T22:55:00	0.2453	14.392	197.4	0.619526366	0.769078861	0.012925163	0.133346529	0.041098695
2019-07-22T23:00:00	0.2438	14.381	210.9	0.614639271	0.761848330	0.012736224	0.131397278	0.040497917
2019-07-22T23:05:00	0.2442	14.371	197.3	0.616062293	0.763951638	0.012791091	0.131963329	0.040672380
2019-07-22T23:10:00	0.2460	14.359	197.3	0.622130240	0.772939549	0.013026419	0.134391164	0.041420662
2019-07-22T23:15:00	0.2464	14.348	197.2	0.623218785	0.774555198	0.013068870	0.134829123	0.041555645
2019-07-22T23:20:00	0.2454	14.335	197.1	0.619996160	0.769774989	0.012943402	0.133534692	0.041156689
2019-07-22T23:25:00	0.2478	14.324	197.1	0.628044311	0.781729426	0.013257917	0.136779484	0.042156765
2019-07-22T23:30:00	0.2463	14.313	197.0	0.622837361	0.773988964	0.013053987	0.134675579	0.041508321
2019-07-22T23:35:00	0.2452	14.302	197.0	0.619282537	0.768717635	0.012915703	0.133248924	0.041068613
2019-07-22T23:40:00	0.2474	14.291	196.9	0.626669989	0.779684185	0.013203933	0.136222538	0.041985109
2019-07-22T23:45:00	0.2459	14.281	196.9	0.621792685	0.772438744	0.013013270	0.134255504	0.041378850
2019-07-22T23:50:00	0.2483	14.271	196.8	0.629505886	0.783906268	0.013315454	0.137373083	0.042339718
2019-07-22T23:55:00	0.2485	14.260	196.8	0.630261351	0.785032152	0.013345245	0.137680428	0.042434445
2019-07-23T00:00:00	0.2488	14.250	196.7	0.631347422	0.786651590	0.013388133	0.138122897	0.042570818
2019-07-23T00:05:00	0.2480	14.239	196.7	0.628463159	0.782353066	0.013274392	0.136949458	0.042209153
2019-07-23T00:10:00	0.2483	14.230	196.6	0.629549776	0.783971665	0.013317184	0.137390929	0.042345219
2019-07-23T00:15:00	0.2473	14.220	196.6	0.626332863	0.779182723	0.013190707	0.136086097	0.041943057
2019-07-23T00:20:00	0.2494	14.209	209.8	0.633375218	0.789677907	0.013468400	0.138951000	0.042826048
2019-07-23T00:25:00	0.2493	14.200	209.8	0.632807648	0.788830505	0.013445908	0.138718959	0.042754530
2019-07-23T00:30:00	0.2487	14.192	209.7	0.630917072	0.786009777	0.013371130	0.137947483	0.042516754
2019-07-23T00:35:00	0.2476	14.181	209.7	0.627370286	0.780726154	0.013231426	0.136506188	0.042072533
2019-07-23T00:40:00	0.2477	14.170	209.6	0.627464044	0.780865688	0.013235110	0.136544187	0.042084244
2019-07-23T00:45:00	0.2452	14.161	196.1	0.619270659	0.768700040	0.012915242	0.133244171	0.041067147
2019-07-23T00:50:00	0.2462	14.152	209.5	0.622681708	0.773757928	0.013047916	0.134612946	0.041489017
2019-07-23T00:55:00	0.2451	14.142	209.5	0.619126728	0.768486836	0.012909659	0.133186574	0.041049396
2019-07-23T01:00:00	0.2452	14.132	209.4	0.619220703	0.768626038	0.012913304	0.133224178	0.041060986
2019-07-23T01:05:00	0.2451	14.123	209.4	0.618982792	0.768273642	0.012904077	0.133128988	0.041031647
2019-07-23T01:10:00	0.2460	14.114	195.9	0.622062521	0.772839072	0.013023781	0.134363943	0.041412272
2019-07-23T01:15:00	0.2459	14.106	209.3	0.621493152	0.771994429	0.013001607	0.134135184	0.041341766
2019-07-23T01:20:00	0.2457	14.097	209.3	0.620923691	0.771149924	0.012979450	0.133906591	0.041271312
2019-07-23T01:25:00	0.2447	14.088	209.2	0.617698990	0.766372877	0.012854347	0.132615931	0.040873518
2019-07-23T01:30:00	0.2457	14.080	209.5	0.621111543	0.771428476	0.012986757	0.133981976	0.041294546
2019-07-23T01:35:00	0.2446	14.070	209.2	0.617222949	0.765668417	0.012835932	0.132425947	0.040814963
2019-07-23T01:40:00	0.2449	14.060	209.1	0.618312994	0.767281783	0.012878119	0.132861183	0.040949107
2019-07-23T01:45:00	0.2465	14.051	208.9	0.623714260	0.775290928	0.013088216	0.135028713	0.041617161
2019-07-23T01:50:00	0.2458	14.041	195.5	0.621155536	0.771493715	0.012988468	0.133999634	0.041299989
2019-07-23T01:55:00	0.2444	14.029	208.8	0.616602813	0.764751005	0.012811964	0.132178668	0.040738749
2019-07-23T02:00:00	0.2441	14.019	195.4	0.615700382	0.763416552	0.012777126	0.131819249	0.040627973
2019-07-23T02:05:00	0.2448	14.007	208.8	0.618119054	0.766994660	0.012870608	0.132783692	0.040925223
2019-07-23T02:10:00	0.2446	13.994	195.3	0.617217007	0.765659624	0.012835703	0.132423577	0.040814232
2019-07-23T02:15:00	0.2451	13.982	195.2	0.618970913	0.768256048	0.012903617	0.133124236	0.041030182
2019-07-23T02:20:00	0.2442	13.969	195.1	0.616076627	0.763972833	0.012791644	0.131969037	0.040674139
2019-07-23T02:25:00	0.2463	13.956	195.1	0.623139222	0.774437074	0.013065765	0.134797087	0.041545771
2019-07-23T02:30:00	0.2452	13.942	195.0	0.619252841	0.768673646	0.012914551	0.133237040	0.041064950
2019-07-23T02:35:00	0.2474	13.928	194.9	0.626640356	0.779640102	0.013202770	0.136210542	0.041981412
2019-07-23T02:40:00	0.2476	13.914	194.8	0.627396426	0.780765056	0.013232453	0.136516781	0.042075798
2019-07-23T02:45:00	0.2472	13.900	194.8	0.625834262	0.778441250	0.013171160	0.135884434	0.041880902
2019-07-23T02:50:00	0.2468	13.886	194.7	0.624602805	0.776610843	0.013122947	0.135387026	0.041727596
2019-07-23T02:55:00	0.2482	13.871	194.6	0.629332756	0.783648318	0.013308632	0.137302700	0.042318025
2019-07-23T03:00:00	0.2490	13.856	207.9	0.632072909	0.787733919	0.013416821	0.138418873	0.042662041
2019-07-23T03:05:00	0.2498	13.841	194.4	0.634480520	0.791328943	0.013512257	0.139403461	0.042965501
2019-07-23T03:10:00	0.2499	13.825	207.6	0.634904529	0.791962578	0.013529100	0.139577235	0.043019059
2019-07-23T03:15:00	0.2507	13.810	207.5	0.637640424	0.796054741	0.013638046	0.140701202	0.043365477
2019-07-23T03:20:00	0.2509	13.795	194.2	0.638064059	0.796688954	0.013654956	0.140875660	0.043419246
2019-07-23T03:25:00	0.2502	13.780	194.1	0.635845934	0.793369951	0.013566537	0.139963456	0.043138097
2019-07-23T03:30:00	0.2507	13.765	194.0	0.637590724	0.795980347	0.013636062	0.140680742	0.043359171
2019-07-23T03:35:00	0.2522	13.750	193.9	0.642633294	0.803539108	0.013838037	0.142764473	0.044001397
2019-07-23T03:40:00	0.2517	13.736	193.8	0.640747891	0.800710380	0.013762338	0.141983505	0.043760695
2019-07-23T03:45:00	0.2519	13.721	193.7	0.641500990	0.801839916	0.013792549	0.142295185	0.043856758
2019-07-23T03:50:00	0.2525	13.707	193.6	0.643572675	0.804949618	0.013875833	0.143154413	0.044121581
2019-07-23T03:55:00	0.2517	13.693	193.6	0.640698234	0.800635920	0.013760347	0.141962967	0.043754365
2019-07-23T04:00:00	0.2523	13.679	206.7	0.642770382	0.803744903	0.013843549	0.142821344	0.044018925
2019-07-23T04:05:00	0.2506	13.666	193.4	0.637061710	0.795188611	0.013614963	0.140463062	0.043292080
2019-07-23T04:10:00	0.2510	13.652	206.5	0.638613077	0.797511098	0.013676887	0.141101919	0.043488982
2019-07-23T04:15:00	0.2525	13.640	193.2	0.643461641	0.804782858	0.013871363	0.143108294	0.044107366
2019-07-23T04:20:00	0.2545	13.627	193.1	0.649949261	0.814544112	0.014133820	0.145816015	0.044941912
2019-07-23T04:25:00	0.2534	13.615	193.1	0.646558187	0.809437442	0.013996314	0.144397391	0.044504678
2019-07-23T04:30:00	0.2552	13.604	206.2	0.652382657	0.818214641	0.014232925	0.146838463	0.045257040
2019-07-23T04:35:00	0.2562	13.594	206.1	0.655570457	0.823030755	0.014363302	0.148183538	0.045671606
2019-07-23T04:40:00	0.2556	13.585	192.8	0.653828483	0.820397913	0.014291980	0.147447727	0.045444822
2019-07-23T04:45:00	0.2555	13.574	205.9	0.653400817	0.819751929	0.014274499	0.147267374	0.045389235
2019-07-23T04:50:00	0.2542	13.566	192.7	0.649025746	0.813152405	0.014096302	0.145428954	0.044822616
2019-07-23T04:55:00	0.2557	13.558	192.6	0.653860313	0.820445998	0.014293282	0.147461155	0.045448960
2019-07-23T05:00:00	0.2555	13.550	205.7	0.653432651	0.819800008	0.014275800	0.147280794	0.045393371
2019-07-23T05:05:00	0.2573	13.542	205.7	0.659246045	0.828594593	0.014514400	0.149742391	0.046152059
2019-07-23T05:10:00	0.2586	13.535	205.6	0.663411389	0.834913759	0.014686632	0.151519273	0.046699712
2019-07-23T05:15:00	0.2569	13.529	205.6	0.658063655	0.826803517	0.014465704	0.149239997	0.045997216
2019-07-23T05:20:00	0.2579	13.524	205.5	0.661246450	0.831627516	0.014596982	0.150594368	0.046414647
2019-07-23T05:25:00	0.2584	13.519	205.5	0.662787444	0.833966238	0.014660765	0.151252408	0.046617461
2019-07-23T05:30:00	0.2578	13.515	205.3	0.661048944	0.831327915	0.014588817	0.150510138	0.046388686
2019-07-23T05:35:00	0.2556	13.512	205.3	0.653726067	0.820243200	0.014287793	0.147404526	0.045431507
2019-07-23T05:40:00	0.2604	13.509	205.3	0.669370714	0.843980391	0.014934894	0.154080545	0.047489120
2019-07-23T05:45:00	0.2586	13.508	205.0	0.663376190	0.834860297	0.014685172	0.151504212	0.046695069
2019-07-23T05:50:00	0.2574	13.508	205.2	0.659669563	0.829236427	0.014531864	0.149922557	0.046207588
2019-07-23T05:55:00	0.2574	13.508	205.2	0.659570769	0.829086693	0.014527789	0.149880520	0.046194632
2019-07-23T06:00:00	0.2590	13.509	205.1	0.664718974	0.836900536	0.014740918	0.152079336	0.046872328
2019-07-23T06:05:00	0.2595	13.512	205.1	0.666586039	0.839739943	0.014818614	0.152880912	0.047119382
2019-07-23T06:10:00	0.2592	13.515	205.1	0.665504679	0.838095061	0.014773589	0.152416389	0.046976211
2019-07-23T06:15:00	0.2599	13.520	205.1	0.667698786	0.841433613	0.014865022	0.153359692	0.047266946
2019-07-23T06:20:00	0.2599	13.525	205.1	0.667927636	0.841782069	0.014874576	0.153458256	0.047297325
2019-07-23T06:25:00	0.2610	13.532	205.2	0.671428894	0.847118828	0.015021143	0.154970368	0.047763372
2019-07-23T06:30:00	0.2607	13.540	205.2	0.670348976	0.845471650	0.014975856	0.154503146	0.047619370
2019-07-23T06:35:00	0.2610	13.551	205.2	0.671231943	0.846818347	0.015012879	0.154885103	0.047737093
2019-07-23T06:40:00	0.2617	13.564	205.2	0.673749494	0.850661783	0.015118703	0.155976870	0.048073586
2019-07-23T06:45:00	0.2616	13.576	205.3	0.673324173	0.850012081	0.015100797	0.155792142	0.048016651
2019-07-23T06:50:00	0.2627	13.591	205.4	0.676820240	0.855357137	0.015248309	0.157313993	0.048485700
2019-07-23T06:55:00	0.2607	13.607	205.4	0.670510845	0.845718482	0.014982640	0.154573131	0.047640940
2019-07-23T07:00:00	0.2611	13.624	205.5	0.671720856	0.847564323	0.015033399	0.155096811	0.047802343
2019-07-23T07:05:00	0.2632	13.645	192.4	0.678484542	0.857905345	0.015318797	0.158041202	0.048709833
2019-07-23T07:10:00	0.2619	13.675	205.6	0.674466507	0.851757413	0.015148914	0.156288549	0.048169649
2019-07-23T07:15:00	0.2645	13.702	205.8	0.682855816	0.864609561	0.015504747	0.159959616	0.049301107
2019-07-23T07:20:00	0.2650	13.766	206.0	0.684387681	0.866962882	0.015570191	0.160634788	0.049509202
2019-07-23T07:25:00	0.2628	13.775	192.9	0.677111770	0.855803325	0.015260644	0.157441248	0.048524922
2019-07-23T07:30:00	0.2644	13.852	193.2	0.682561310	0.864157361	0.015492182	0.159829984	0.049261153
2019-07-23T07:35:00	0.2632	13.894	193.3	0.678547770	0.858002201	0.015321478	0.158068864	0.048718359
2019-07-23T07:40:00	0.2637	13.943	193.5	0.680081446	0.860352605	0.015386591	0.158740621	0.048925401
2019-07-23T07:45:00	0.2634	13.969	193.7	0.679330492	0.859201493	0.015354691	0.158411513	0.048823967
2019-07-23T07:50:00	0.2639	13.983	193.7	0.680863839	0.861552426	0.015419864	0.159083890	0.049031200
2019-07-23T07:55:00	0.2630	13.990	193.8	0.677828121	0.856900016	0.015290975	0.157754171	0.048621368
2019-07-23T08:00:00	0.2638	14.019	193.9	0.680667397	0.861251127	0.015411506	0.158997666	0.049004625
2019-07-23T08:05:00	0.2629	14.046	194.0	0.677631516	0.856598981	0.015282647	0.157668256	0.048594888
2019-07-23T08:10:00	0.2657	14.079	194.1	0.686665074	0.870465258	0.015667753	0.161641322	0.049819425
2019-07-23T08:15:00	0.2630	14.118	194.3	0.677761441	0.856797914	0.015288150	0.157725030	0.048612386
2019-07-23T08:20:00	0.2632	14.137	194.3	0.678642611	0.858147489	0.015325500	0.158110361	0.048731149
2019-07-23T08:25:00	0.2637	14.164	194.5	0.680176246	0.860497956	0.015390620	0.158782193	0.048938214
2019-07-23T08:30:00	0.2629	14.185	194.6	0.677466523	0.856346376	0.015275661	0.157596174	0.048572671
2019-07-23T08:35:00	0.2610	14.224	194.8	0.671485354	0.847204973	0.015023513	0.154994816	0.047770907
2019-07-23T08:40:00	0.2604	14.252	194.9	0.669423759	0.844061232	0.014937113	0.154103445	0.047496178
2019-07-23T08:45:00	0.2614	14.287	195.1	0.672596601	0.848901035	0.015070193	0.155476404	0.047919338
2019-07-23T08:50:00	0.2592	14.336	208.7	0.665624685	0.838277556	0.014778582	0.152467904	0.046992089
2019-07-23T08:55:00	0.2609	14.383	195.4	0.671091447	0.846604019	0.015006985	0.154824294	0.047718351
2019-07-23T09:00:00	0.2607	14.436	209.1	0.670338636	0.845455884	0.014975423	0.154498677	0.047617993
2019-07-23T09:05:00	0.2608	14.492	195.9	0.670567320	0.845804605	0.014985007	0.154597552	0.047648467
2019-07-23T09:10:00	0.2623	14.572	209.8	0.675699959	0.853643220	0.015200958	0.156825484	0.048335137
2019-07-23T09:15:00	0.2588	14.720	196.8	0.664148377	0.836033376	0.014717216	0.151834806	0.046796962
2019-07-23T09:20:00	0.2592	14.771	197.0	0.665360510	0.837875839	0.014767591	0.152354514	0.046957141
2019-07-23T09:25:00	0.2619	14.751	197.0	0.674424530	0.851693257	0.015147144	0.156270293	0.048164022
2019-07-23T09:30:00	0.2613	14.737	210.6	0.672364601	0.848546853	0.015060441	0.155375796	0.047888329
2019-07-23T09:35:00	0.2617	14.782	210.8	0.673573995	0.850393680	0.015111313	0.155900633	0.048050089
2019-07-23T09:40:00	0.2604	14.831	197.5	0.669550530	0.844254441	0.014942419	0.154158179	0.047513048
2019-07-23T09:45:00	0.2607	14.894	211.4	0.670433691	0.845600828	0.014979406	0.154539771	0.047630658
2019-07-23T09:50:00	0.2610	14.955	212.8	0.671316638	0.846947558	0.015016433	0.154921766	0.047748393
2019-07-23T09:55:00	0.2593	15.034	213.1	0.665980562	0.838818814	0.014793395	0.152620724	0.047039189
2019-07-23T10:00:00	0.2584	15.102	213.5	0.662932384	0.834186313	0.014666771	0.151314377	0.046636561
2019-07-23T10:05:00	0.2588	15.162	213.8	0.664095588	0.835953166	0.014715024	0.151812194	0.046789992
2019-07-23T10:10:00	0.2579	15.208	214.1	0.661324468	0.831745873	0.014600207	0.150627648	0.046424904
2019-07-23T10:15:00	0.2564	15.257	214.3	0.656252681	0.824062583	0.014391285	0.148472231	0.045760584
2019-07-23T10:20:00	0.2560	15.299	214.6	0.655118770	0.822347821	0.014344791	0.147992561	0.045612745
2019-07-23T10:25:00	0.2560	15.341	214.8	0.654970391	0.822123515	0.014338713	0.147929854	0.045593418
2019-07-23T10:30:00	0.2575	15.358	215.0	0.660075751	0.829852141	0.014548623	0.150095458	0.046260878
2019-07-23T10:35:00	0.2559	15.390	215.1	0.654673615	0.821674932	0.014326559	0.147804472	0.045554774
2019-07-23T10:40:00	0.2577	15.422	215.3	0.660435629	0.830397774	0.014563479	0.150248733	0.046308119
2019-07-23T10:45:00	0.2558	15.447	215.4	0.654376814	0.821226388	0.014314411	0.147679136	0.045516144
2019-07-23T10:50:00	0.2559	15.469	215.6	0.654557041	0.821498750	0.014321787	0.147755238	0.045539599
2019-07-23T10:55:00	0.2556	15.493	215.7	0.653751308	0.820281330	0.014288825	0.147415173	0.045434788
2019-07-23T11:00:00	0.2568	15.522	215.8	0.657545227	0.826018582	0.014444379	0.149019997	0.045929410
2019-07-23T11:05:00	0.2546	15.549	216.0	0.650494716	0.815366436	0.014156003	0.146044876	0.045012449
2019-07-23T11:10:00	0.2536	15.583	216.2	0.647054587	0.810184365	0.014016399	0.144604603	0.044568543
2019-07-23T11:15:00	0.2546	15.609	216.3	0.650526576	0.815414475	0.014157300	0.146058249	0.045016571
2019-07-23T11:20:00	0.2529	15.635	216.4	0.644780613	0.806764478	0.013924514	0.143656648	0.044276374
2019-07-23T11:25:00	0.2544	15.664	216.6	0.649571341	0.813974511	0.014118461	0.145657557	0.044893074
2019-07-23T11:30:00	0.2526	15.674	216.7	0.643823852	0.805326896	0.013885949	0.143258772	0.044153745
2019-07-23T11:35:00	0.2538	15.705	216.8	0.647628226	0.811047771	0.014039628	0.144844250	0.044642405
2019-07-23T11:40:00	0.2521	15.728	215.6	0.642207396	0.802899856	0.013820918	0.142587863	0.043946964
2019-07-23T11:45:00	0.2528	15.749	215.8	0.644366093	0.806141544	0.013907799	0.143484196	0.044223223
2019-07-23T11:50:00	0.2539	15.776	215.9	0.648169893	0.811863313	0.014061580	0.145070731	0.044712208
2019-07-23T11:55:00	0.2526	15.818	216.2	0.643738847	0.805199208	0.013882525	0.143223450	0.044142858
2019-07-23T12:00:00	0.2524	15.856	216.3	0.643260359	0.804480583	0.013863261	0.143024709	0.044081604
2019-07-23T12:05:00	0.2524	15.890	216.6	0.643111491	0.804257043	0.013857270	0.142962905	0.044062556
2019-07-23T12:10:00	0.2518	15.929	216.8	0.641313832	0.801559162	0.013785038	0.142217694	0.043832875
2019-07-23T12:15:00	0.2525	15.961	217.0	0.643473066	0.804800016	0.013871823	0.143113039	0.044108828
2019-07-23T12:20:00	0.2493	15.998	217.2	0.632759941	0.788759289	0.013444019	0.138699464	0.042748522
2019-07-23T12:25:00	0.2512	16.031	217.4	0.639217220	0.798416090	0.013701041	0.141351114	0.043565786
2019-07-23T12:30:00	0.2517	16.058	217.6	0.640718000	0.800665558	0.013761140	0.141971142	0.043756885
2019-07-23T12:35:00	0.2510	16.085	217.8	0.638589075	0.797475151	0.013675928	0.141092023	0.043485932
2019-07-23T12:40:00	0.2507	16.116	217.9	0.637449586	0.795769094	0.013630432	0.140622649	0.043341266
2019-07-23T12:45:00	0.2515	16.145	218.1	0.640271061	0.799995456	0.013743228	0.141786347	0.043699929
2019-07-23T12:50:00	0.2503	16.171	204.3	0.636160579	0.793840504	0.013579061	0.140092667	0.043177920
2019-07-23T12:55:00	0.2489	16.187	218.4	0.631714679	0.787199432	0.013402652	0.138272685	0.042616984
2019-07-23T13:00:00	0.2499	16.211	204.5	0.634871108	0.791912630	0.013527772	0.139563534	0.043014837
2019-07-23T13:05:00	0.2483	16.240	218.7	0.629761873	0.784287716	0.013325544	0.137477186	0.042371804
2019-07-23T13:10:00	0.2478	16.276	218.9	0.627957505	0.781600196	0.013254504	0.136744272	0.042145913
2019-07-23T13:15:00	0.2474	16.293	219.1	0.626483443	0.779406693	0.013196614	0.136147031	0.041961837
2019-07-23T13:20:00	0.2494	16.314	219.2	0.633282626	0.789539645	0.013464729	0.138913132	0.042814376
2019-07-23T13:25:00	0.2462	16.338	219.4	0.622538929	0.773546020	0.013042349	0.134555507	0.041471314
2019-07-23T13:30:00	0.2474	16.362	219.6	0.626697147	0.779724585	0.013204998	0.136233533	0.041988498
2019-07-23T13:35:00	0.2487	16.385	219.8	0.630850531	0.785910553	0.013368502	0.137920370	0.042508398
2019-07-23T13:40:00	0.2469	16.412	219.9	0.625072945	0.777309496	0.013141343	0.135576813	0.041786090
2019-07-23T13:45:00	0.2459	16.432	220.0	0.621608325	0.772165263	0.013006091	0.134181442	0.041356023
2019-07-23T13:50:00	0.2470	16.457	220.2	0.625436344	0.777849655	0.013155571	0.135723604	0.041831333
2019-07-23T13:55:00	0.2464	16.477	220.4	0.623298309	0.774673269	0.013071974	0.134861147	0.041565515
2019-07-23T14:00:00	0.2477	16.500	220.5	0.627455643	0.780853185	0.013234780	0.136540782	0.042083195
2019-07-23T14:05:00	0.2466	16.523	220.6	0.623993336	0.775705417	0.013099119	0.135141200	0.041651830
2019-07-23T14:10:00	0.2476	16.544	220.8	0.627156585	0.780408145	0.013223033	0.136419597	0.042045845
2019-07-23T14:15:00	0.2470	16.562	220.9	0.625350901	0.777722642	0.013152225	0.135689083	0.041820693
2019-07-23T14:20:00	0.2445	16.579	221.0	0.616908663	0.765203430	0.012823782	0.132300596	0.040776328
2019-07-23T14:25:00	0.2457	16.595	221.1	0.621073447	0.771371984	0.012985275	0.133966686	0.041289834
2019-07-23T14:30:00	0.2469	16.615	221.3	0.624902040	0.777055500	0.013134654	0.135507806	0.041764822
2019-07-23T14:35:00	0.2456	16.632	221.4	0.620773854	0.770927761	0.012973623	0.133846476	0.041252784
2019-07-23T14:40:00	0.2451	16.644	221.5	0.618964936	0.768247195	0.012903385	0.133121845	0.041029445
2019-07-23T14:45:00	0.2436	16.655	221.6	0.614165230	0.761148050	0.012717974	0.131208993	0.040439886
2019-07-23T14:50:00	0.2439	16.665	221.7	0.615012090	0.762399214	0.012750587	0.131545457	0.040543587
2019-07-23T14:55:00	0.2433	16.668	221.8	0.612867788	0.759232359	0.012668092	0.130694372	0.040281275
2019-07-23T15:00:00	0.2445	16.673	221.9	0.617037300	0.765393738	0.012828754	0.132351894	0.040792139
2019-07-23T15:05:00	0.2445	16.677	221.9	0.616887336	0.765171880	0.012822958	0.132292092	0.040773707
2019-07-23T15:10:00	0.2458	16.681	222.0	0.621383835	0.771832292	0.012997352	0.134091286	0.041328237
2019-07-23T15:15:00	0.2427	16.685	222.1	0.610936844	0.756383912	0.012594042	0.129930409	0.040045814
2019-07-23T15:20:00	0.2448	16.687	222.1	0.618097697	0.766963043	0.012869781	0.132775160	0.040922594
2019-07-23T15:25:00	0.2442	16.687	222.1	0.615955255	0.763793370	0.012786960	0.131920708	0.040659243
2019-07-23T15:30:00	0.2449	16.684	222.1	0.618461807	0.767502117	0.012883884	0.132920659	0.040967438
2019-07-23T15:35:00	0.2425	16.679	222.2	0.610335922	0.755498097	0.012571043	0.129693131	0.039972683
2019-07-23T15:40:00	0.2419	16.674	222.2	0.608521687	0.752825584	0.012501738	0.128978124	0.039752310
2019-07-23T15:45:00	0.2421	16.669	222.2	0.609037081	0.753584519	0.012521406	0.129181038	0.039814851
2019-07-23T15:50:00	0.2420	16.666	222.2	0.608553922	0.752873045	0.012502967	0.128990810	0.039756221
2019-07-23T15:55:00	0.2429	16.665	222.3	0.611730909	0.757554904	0.012624467	0.130244295	0.040142557
2019-07-23T16:00:00	0.2415	16.662	222.3	0.606921418	0.750470553	0.012440770	0.128349135	0.039558450
2019-07-23T16:05:00	0.2439	16.657	222.3	0.614952101	0.762310566	0.012748276	0.131521608	0.040536237
2019-07-23T16:10:00	0.2418	16.651	222.3	0.608014627	0.752079138	0.012482403	0.128778651	0.039690831
2019-07-23T16:15:00	0.2421	16.646	222.4	0.609060378	0.753618830	0.012522295	0.129190214	0.039817679
2019-07-23T16:20:00	0.2431	16.645	222.4	0.612434148	0.758592398	0.012651443	0.130522604	0.040228334
2019-07-23T16:25:00	0.2407	16.640	222.4	0.604492126	0.746899597	0.012348512	0.127397323	0.039265092
2019-07-23T16:30:00	0.2394	16.635	222.4	0.599870733	0.740119995	0.012173979	0.125596701	0.038710123
2019-07-23T16:35:00	0.2402	16.628	222.4	0.602586451	0.744101798	0.012276387	0.126653222	0.039035753
2019-07-23T16:40:00	0.2402	16.620	222.5	0.602633658	0.744171067	0.012278171	0.126671627	0.039041426
2019-07-23T16:45:00	0.2389	16.614	222.5	0.598343686	0.737883738	0.012116589	0.125004619	0.038527638
2019-07-23T16:50:00	0.2375	16.607	222.5	0.593714245	0.731116148	0.011943456	0.123218429	0.037977117
2019-07-23T16:55:00	0.2378	16.597	222.5	0.594764230	0.732649508	0.011982611	0.123622390	0.038101621
2019-07-23T17:00:00	0.2380	16.584	222.4	0.595479813	0.733695048	0.012009334	0.123898086	0.038186593
2019-07-23T17:05:00	0.2373	16.567	222.4	0.592853303	0.729859544	0.011911399	0.122887705	0.037875184
2019-07-23T17:10:00	0.2383	16.550	222.4	0.596242544	0.734809946	0.012037851	0.124192293	0.038277271
2019-07-23T17:15:00	0.2367	16.529	222.3	0.590941340	0.727071117	0.011840366	0.122154870	0.037649317
2019-07-23T17:20:00	0.2375	16.508	222.2	0.593663928	0.731042690	0.011941581	0.123199088	0.037971155
2019-07-23T17:25:00	0.2380	16.485	222.1	0.595382218	0.733552427	0.012005688	0.123860466	0.038174999
2019-07-23T17:30:00	0.2378	16.461	222.0	0.594761239	0.732645140	0.011982500	0.123621239	0.038101266
2019-07-23T17:35:00	0.2395	16.438	221.9	0.600484844	0.741019868	0.012197098	0.125835216	0.038783636
2019-07-23T17:40:00	0.2390	16.410	221.8	0.598529749	0.738156111	0.012123575	0.125076684	0.038549849
2019-07-23T17:45:00	0.2389	16.384	221.6	0.598243182	0.737736627	0.012112817	0.124965701	0.038515643
2019-07-23T17:50:00	0.2381	16.357	221.6	0.595618727	0.733898066	0.012014525	0.123951642	0.038203100
2019-07-23T17:55:00	0.2392	16.331	221.4	0.599339072	0.739341193	0.012153982	0.125390397	0.038646538
2019-07-23T18:00:00	0.2396	16.303	221.3	0.600721012	0.741366016	0.012205995	0.125927003	0.038811925
2019-07-23T18:05:00	0.2403	16.276	221.2	0.603102709	0.744859436	0.012295905	0.126854581	0.039097814
2019-07-23T18:10:00	0.2390	16.247	221.0	0.598813305	0.738571257	0.012134224	0.125186551	0.038583711
2019-07-23T18:15:00	0.2390	16.219	220.9	0.598526762	0.738151738	0.012123462	0.125075527	0.038549492
2019-07-23T18:20:00	0.2399	16.192	220.8	0.601577056	0.742621095	0.012238272	0.126259996	0.038914557
2019-07-23T18:25:00	0.2380	16.164	220.7	0.595281630	0.733405441	0.012001930	0.123821699	0.038163050
2019-07-23T18:30:00	0.2405	16.137	206.4	0.603672049	0.745695236	0.012317448	0.127076836	0.039166315
2019-07-23T18:35:00	0.2403	16.111	220.5	0.603052525	0.744785779	0.012294007	0.126835000	0.039091779
2019-07-23T18:40:00	0.2398	16.084	206.2	0.601432406	0.742408976	0.012232815	0.126203697	0.038897205
2019-07-23T18:45:00	0.2395	16.059	220.3	0.600478873	0.741011118	0.012196874	0.125832896	0.038782921
2019-07-23T18:50:00	0.2393	16.032	220.1	0.599858790	0.740102498	0.012173530	0.125592065	0.038708694
2019-07-23T18:55:00	0.2380	16.007	205.9	0.595231336	0.733331949	0.012000051	0.123802318	0.038157077
2019-07-23T19:00:00	0.2392	15.980	205.8	0.599285849	0.739263242	0.012151982	0.125369754	0.038640176
2019-07-23T19:05:00	0.2382	15.955	219.7	0.595994120	0.734446767	0.012028559	0.124096429	0.038247725
2019-07-23T19:10:00	0.2397	15.929	205.6	0.601048636	0.741846286	0.012218343	0.126054392	0.038851188
2019-07-23T19:15:00	0.2399	15.903	205.5	0.601762949	0.742893722	0.012245287	0.126332366	0.038936862
2019-07-23T19:20:00	0.2408	15.876	219.4	0.604810456	0.747367248	0.012360581	0.127521839	0.039303469
2019-07-23T19:25:00	0.2398	15.852	219.3	0.601523866	0.742543094	0.012236265	0.126239292	0.038908176
2019-07-23T19:30:00	0.2403	15.825	219.2	0.602904953	0.744569192	0.012288426	0.126777430	0.039074035
2019-07-23T19:35:00	0.2401	15.799	219.0	0.602285294	0.743659936	0.012265009	0.126535835	0.038999573
2019-07-23T19:40:00	0.2411	15.773	204.9	0.605665512	0.748623807	0.012393030	0.127856607	0.039406648
2019-07-23T19:45:00	0.2422	15.747	218.8	0.609375321	0.754082710	0.012534323	0.129314295	0.039855922
2019-07-23T19:50:00	0.2414	15.722	218.7	0.606759107	0.750231809	0.012434595	0.128285426	0.039538814
2019-07-23T19:55:00	0.2413	15.695	218.5	0.606473206	0.749811329	0.012423722	0.128173248	0.039504240
2019-07-23T20:00:00	0.2418	15.669	218.4	0.608185289	0.752330346	0.012488909	0.128845770	0.039711518
2019-07-23T20:05:00	0.2412	15.643	218.3	0.605901335	0.748970472	0.012401987	0.127949015	0.039435129
2019-07-23T20:10:00	0.2414	15.617	218.2	0.606614670	0.750019373	0.012429101	0.128228747	0.039521345
2019-07-23T20:15:00	0.2416	15.591	218.1	0.607327861	0.751068490	0.012456241	0.128508738	0.039607641
2019-07-23T20:20:00	0.2394	15.565	218.0	0.600041788	0.740370615	0.012180417	0.125663114	0.038730592
2019-07-23T20:25:00	0.2419	15.539	217.8	0.608420944	0.752677263	0.012497895	0.128938480	0.039740092
2019-07-23T20:30:00	0.2418	15.513	217.7	0.608135177	0.752256581	0.012486998	0.128826060	0.039705443
2019-07-23T20:35:00	0.2405	15.488	217.6	0.603851868	0.745959269	0.012324256	0.127147074	0.039187963
2019-07-23T20:40:00	0.2416	15.462	217.5	0.607230592	0.750925381	0.012452537	0.128470532	0.039595866
2019-07-23T20:45:00	0.2406	15.435	217.3	0.603946247	0.746097859	0.012327830	0.127183947	0.039199328
2019-07-23T20:50:00	0.2433	15.410	217.2	0.612981170	0.759399712	0.012672447	0.130739302	0.040295123
2019-07-23T20:55:00	0.2426	15.385	217.1	0.610700301	0.756035189	0.012584986	0.129836982	0.040017019
2019-07-23T21:00:00	0.2416	15.359	217.0	0.607419169	0.751202836	0.012459717	0.128544607	0.039618696
2019-07-23T21:05:00	0.2426	15.333	216.9	0.610794498	0.756174053	0.012588592	0.129874183	0.040028484
2019-07-23T21:10:00	0.2421	15.307	216.7	0.609177914	0.753791940	0.012526783	0.129236514	0.039831949
2019-07-23T21:15:00	0.2447	15.283	216.6	0.617535553	0.766130996	0.012848023	0.132550689	0.040853410
2019-07-23T21:20:00	0.2421	15.256	216.5	0.608939331	0.753440562	0.012517675	0.129142541	0.039802985
2019-07-23T21:25:00	0.2450	15.232	216.4	0.618625502	0.767744508	0.012890227	0.132986098	0.040987607
2019-07-23T21:30:00	0.2452	15.206	216.2	0.619336288	0.768797262	0.012917788	0.133270438	0.041075243
2019-07-23T21:35:00	0.2438	15.181	216.1	0.614734192	0.761988576	0.012739880	0.131434997	0.040509542
2019-07-23T21:40:00	0.2436	15.156	202.2	0.614116595	0.761076214	0.012716102	0.131189683	0.040433935
2019-07-23T21:45:00	0.2435	15.131	215.9	0.613831286	0.760654841	0.012705125	0.131076436	0.040399031
2019-07-23T21:50:00	0.2452	15.107	201.9	0.619192360	0.768584055	0.012912205	0.133212836	0.041057490
2019-07-23T21:55:00	0.2439	15.083	215.6	0.614922370	0.762266631	0.012747130	0.131509789	0.040532594
2019-07-23T22:00:00	0.2453	15.058	215.5	0.619618187	0.769214905	0.012928727	0.133383295	0.041110027
2019-07-23T22:05:00	0.2451	15.033	215.4	0.619045457	0.768366457	0.012906507	0.133154057	0.041039374
2019-07-23T22:10:00	0.2457	15.009	215.3	0.621127209	0.771451708	0.012987366	0.133988264	0.041296484
2019-07-23T22:15:00	0.2461	14.984	215.1	0.622213093	0.773062487	0.013029648	0.134424473	0.041430928
2019-07-23T22:20:00	0.2476	14.960	215.1	0.627274388	0.780583444	0.013227660	0.136467327	0.042060556
2019-07-23T22:25:00	0.2464	14.936	214.8	0.623389545	0.774808736	0.013075536	0.134897892	0.041576841
2019-07-23T22:30:00	0.2466	14.912	214.8	0.623811906	0.775435945	0.013092031	0.135068066	0.041629290
2019-07-23T22:35:00	0.2474	14.888	214.6	0.626553329	0.779510646	0.013199355	0.136175316	0.041970555
2019-07-23T22:40:00	0.2470	14.864	214.5	0.625319155	0.777675452	0.013150982	0.135676258	0.041816740
2019-07-23T22:45:00	0.2469	14.840	214.4	0.625078686	0.777318030	0.013141568	0.135579131	0.041786805
2019-07-23T22:50:00	0.2467	14.817	214.3	0.624175433	0.775975908	0.013106236	0.135214624	0.041674460
2019-07-23T22:55:00	0.2467	14.795	214.2	0.624266309	0.776110907	0.013109789	0.135251274	0.041685756
2019-07-23T23:00:00	0.2474	14.772	214.2	0.626676216	0.779693448	0.013204177	0.136225059	0.041985886
2019-07-23T23:05:00	0.2476	14.749	214.0	0.627429316	0.780814004	0.013233745	0.136530111	0.042079906
2019-07-23T23:10:00	0.2469	14.727	213.9	0.624870290	0.777008317	0.013133412	0.135494988	0.041760871
2019-07-23T23:15:00	0.2470	14.704	213.8	0.625292475	0.777635793	0.013149937	0.135665480	0.041813418
2019-07-23T23:20:00	0.2456	14.682	213.6	0.620742067	0.770880634	0.012972387	0.133833725	0.041248854
2019-07-23T23:25:00	0.2465	14.658	213.6	0.623485848	0.774951733	0.013079296	0.134936684	0.041588796
2019-07-23T23:30:00	0.2470	14.636	213.5	0.625233709	0.777548444	0.013147636	0.135641742	0.041806102
2019-07-23T23:35:00	0.2471	14.613	213.3	0.625655851	0.778175986	0.013164170	0.135812312	0.041858674
2019-07-23T23:40:00	0.2452	14.592	213.2	0.619447021	0.768961308	0.012922084	0.133314763	0.041088905
2019-07-23T23:45:00	0.2458	14.570	213.2	0.621196862	0.771554999	0.012990076	0.134016222	0.041305101
2019-07-23T23:50:00	0.2462	14.548	199.3	0.622614300	0.773657881	0.013045288	0.134585827	0.041480659
2019-07-23T23:55:00	0.2470	14.526	212.9	0.625356642	0.777731176	0.013152450	0.135691403	0.041821408
2019-07-24T00:00:00	0.2457	14.506	199.1	0.621138029	0.771467753	0.012987787	0.133992607	0.041297823
2019-07-24T00:05:00	0.2442	14.485	199.0	0.615918007	0.763738297	0.012785522	0.131905878	0.040654673
2019-07-24T00:10:00	0.2453	14.464	212.5	0.619661147	0.769278556	0.012930395	0.133400498	0.041115329
2019-07-24T00:15:00	0.2458	14.444	198.8	0.621410883	0.771872408	0.012998405	0.134102147	0.041331584
2019-07-24T00:20:00	0.2428	14.422	212.3	0.611205395	0.756779880	0.012604327	0.130036521	0.040078519
2019-07-24T00:25:00	0.2440	14.403	212.2	0.615285752	0.762803655	0.012761135	0.131654280	0.040577128
2019-07-24T00:30:00	0.2443	14.384	212.1	0.616373418	0.764411726	0.012803103	0.132087256	0.040710575
2019-07-24T00:35:00	0.2452	14.363	212.0	0.619452433	0.768969327	0.012922294	0.133316930	0.041089573
2019-07-24T00:40:00	0.2441	14.344	211.9	0.615559054	0.763207628	0.012771674	0.131763007	0.040610638
2019-07-24T00:45:00	0.2434	14.325	211.9	0.613323929	0.759905696	0.012685618	0.130875178	0.040337001
2019-07-24T00:50:00	0.2441	14.306	211.8	0.615741244	0.763476961	0.012778702	0.131835512	0.040632985
2019-07-24T00:55:00	0.2431	14.289	211.7	0.612508867	0.758702656	0.012654311	0.130552192	0.040237454
2019-07-24T01:00:00	0.2437	14.270	211.6	0.614262121	0.761291167	0.012721703	0.131247466	0.040451744
2019-07-24T01:05:00	0.2463	14.251	211.5	0.622983357	0.774205684	0.013059683	0.134734339	0.041526432
2019-07-24T01:10:00	0.2458	14.234	211.4	0.621416292	0.771880431	0.012998615	0.134104319	0.041332254
2019-07-24T01:15:00	0.2455	14.214	211.3	0.620180340	0.770047953	0.012950556	0.133608497	0.041179436
2019-07-24T01:20:00	0.2463	14.196	211.2	0.622924554	0.774118393	0.013057389	0.134710671	0.041519137
2019-07-24T01:25:00	0.2454	14.178	211.2	0.620030509	0.769825894	0.012944736	0.133548455	0.041160931
2019-07-24T01:30:00	0.2471	14.161	197.5	0.625757496	0.778327110	0.013168152	0.135853399	0.041871337
2019-07-24T01:35:00	0.2454	14.143	210.9	0.619880672	0.769603844	0.012938917	0.133488423	0.041142429
2019-07-24T01:40:00	0.2463	14.127	197.3	0.622956659	0.774166052	0.013058641	0.134723593	0.041523120
2019-07-24T01:45:00	0.2444	14.110	197.2	0.616743122	0.764958545	0.012817385	0.132234595	0.040755986
2019-07-24T01:50:00	0.2451	14.094	210.7	0.619158116	0.768533329	0.012910877	0.133199133	0.041053266
2019-07-24T01:55:00	0.2444	14.078	197.0	0.616593146	0.764736705	0.012811590	0.132174815	0.040737562
2019-07-24T02:00:00	0.2450	14.062	197.0	0.618676331	0.767819777	0.012892197	0.133006421	0.040993871
2019-07-24T02:05:00	0.2430	14.047	210.5	0.612122791	0.758132999	0.012639496	0.130399346	0.040190345
2019-07-24T02:10:00	0.2465	14.031	210.3	0.623502067	0.774975817	0.013079929	0.134943218	0.041590810
2019-07-24T02:15:00	0.2450	14.015	210.2	0.618617457	0.767732594	0.012889915	0.132982881	0.040986616
2019-07-24T02:20:00	0.2450	13.999	210.2	0.618708475	0.767867377	0.012893443	0.133019274	0.040997832
2019-07-24T02:25:00	0.2447	13.984	196.6	0.617803606	0.766527717	0.012858396	0.132657701	0.040886392
2019-07-24T02:30:00	0.2445	13.968	196.5	0.616898508	0.765188406	0.012823390	0.132296546	0.040775080
2019-07-24T02:35:00	0.2453	13.952	196.4	0.619645248	0.769255000	0.012929778	0.133394131	0.041113367
2019-07-24T02:40:00	0.2464	13.937	209.9	0.623384477	0.774801210	0.013075338	0.134895851	0.041576211
2019-07-24T02:45:00	0.2467	13.924	196.3	0.624138271	0.775920704	0.013104784	0.135199638	0.041669841
2019-07-24T02:50:00	0.2463	13.909	209.7	0.622903263	0.774086788	0.013056558	0.134702101	0.041516496
2019-07-24T02:55:00	0.2460	13.893	209.6	0.621999459	0.772745507	0.013021324	0.134338596	0.041404460
2019-07-24T03:00:00	0.2471	13.880	196.0	0.625736222	0.778295479	0.013167319	0.135844799	0.041868686
2019-07-24T03:05:00	0.2457	13.865	196.0	0.620854672	0.771047588	0.012976766	0.133878898	0.041262777
2019-07-24T03:10:00	0.2460	13.853	195.9	0.621940639	0.772658241	0.013019032	0.134314957	0.041397174
2019-07-24T03:15:00	0.2461	13.839	195.8	0.622363171	0.773285188	0.013035497	0.134484818	0.041449527
2019-07-24T03:20:00	0.2486	13.827	195.8	0.630733856	0.785736582	0.013363895	0.137872838	0.042493748
2019-07-24T03:25:00	0.2483	13.814	209.0	0.629501126	0.783899176	0.013315266	0.137371148	0.042339122
2019-07-24T03:30:00	0.2484	13.801	209.1	0.629922764	0.784527490	0.013331889	0.137542637	0.042391977
2019-07-24T03:35:00	0.2478	13.789	195.6	0.628027700	0.781704696	0.013257264	0.136772746	0.042154689
2019-07-24T03:40:00	0.2503	13.778	209.3	0.636054852	0.793682380	0.013574852	0.140049243	0.043164537
2019-07-24T03:45:00	0.2520	13.766	209.2	0.641756272	0.802222909	0.013802797	0.142400917	0.043889346
2019-07-24T03:50:00	0.2493	13.753	195.5	0.632931482	0.789015370	0.013450814	0.138769569	0.042770129
2019-07-24T03:55:00	0.2500	13.742	195.3	0.635335560	0.792606864	0.013546234	0.139754001	0.043073540
2019-07-24T04:00:00	0.2504	13.731	195.2	0.636417138	0.794224251	0.013589277	0.140198069	0.043210407
2019-07-24T04:05:00	0.2491	13.720	195.1	0.632308151	0.788084964	0.013426131	0.138514915	0.042691642
2019-07-24T04:10:00	0.2500	13.711	195.1	0.635139585	0.792313910	0.013538443	0.139673617	0.043048765
2019-07-24T04:15:00	0.2505	13.702	195.0	0.636978227	0.795063691	0.013611635	0.140428727	0.043281497
2019-07-24T04:20:00	0.2492	13.692	195.0	0.632539259	0.788429885	0.013435280	0.138609303	0.042720733
2019-07-24T04:25:00	0.2513	13.683	194.9	0.639662871	0.799083860	0.013718873	0.141535082	0.043622487
2019-07-24T04:30:00	0.2507	13.675	208.2	0.637539228	0.795903267	0.013634008	0.140659545	0.043352638
2019-07-24T04:35:00	0.2517	13.667	194.8	0.640696441	0.800633230	0.013760275	0.141962225	0.043754137
2019-07-24T04:40:00	0.2508	13.660	194.8	0.637913180	0.796463060	0.013648932	0.140813513	0.043400092
2019-07-24T04:45:00	0.2472	13.654	208.1	0.625864540	0.778486271	0.013172347	0.135896676	0.041884675
2019-07-24T04:50:00	0.2473	13.648	194.7	0.626383357	0.779257825	0.013192688	0.136106529	0.041949354
2019-07-24T04:55:00	0.2489	13.642	194.7	0.631535363	0.786931930	0.013395562	0.138199539	0.042594440
2019-07-24T05:00:00	0.2473	13.637	194.6	0.626427286	0.779323163	0.013194411	0.136124305	0.041954833
2019-07-24T05:05:00	0.2479	13.632	194.5	0.628270407	0.782066051	0.013266809	0.136871223	0.042185040
2019-07-24T05:10:00	0.2470	13.627	207.9	0.625146160	0.777418315	0.013144209	0.135606381	0.041795204
2019-07-24T05:15:00	0.2465	13.624	194.5	0.623676868	0.775235397	0.013086756	0.135013646	0.041612517
2019-07-24T05:20:00	0.2468	13.621	194.4	0.624527401	0.776498806	0.013119998	0.135356600	0.041718219
2019-07-24T05:25:00	0.2469	13.617	207.8	0.625046412	0.777270063	0.013140304	0.135566098	0.041782788
2019-07-24T05:30:00	0.2454	13.616	207.7	0.619929040	0.769675520	0.012940795	0.133507800	0.041148401
2019-07-24T05:35:00	0.2478	13.614	194.4	0.628071083	0.781769284	0.013258970	0.136790346	0.042160113
2019-07-24T05:40:00	0.2458	13.613	194.3	0.621300023	0.771707990	0.012994090	0.134057636	0.041317865
2019-07-24T05:45:00	0.2456	13.614	207.3	0.620492722	0.770510982	0.012962694	0.133733725	0.041218033
2019-07-24T05:50:00	0.2459	13.615	194.3	0.621675677	0.772265170	0.013008713	0.134208496	0.041364362
2019-07-24T05:55:00	0.2472	13.616	194.3	0.625840828	0.778451013	0.013171418	0.135887089	0.041881721
2019-07-24T06:00:00	0.2473	13.619	207.5	0.626359648	0.779222562	0.013191758	0.136096935	0.041946397
2019-07-24T06:05:00	0.2468	13.623	194.3	0.624559492	0.776546487	0.013121253	0.135369548	0.041722210
2019-07-24T06:10:00	0.2475	13.629	194.3	0.627065932	0.780273256	0.013219474	0.136382874	0.042034526
2019-07-24T06:15:00	0.2491	13.633	207.5	0.632216955	0.787948869	0.013422521	0.138477679	0.042680165
2019-07-24T06:20:00	0.2480	13.641	207.6	0.628765182	0.782802852	0.013286279	0.137072090	0.042246949
2019-07-24T06:25:00	0.2476	13.648	194.3	0.627297378	0.780617656	0.013228563	0.136476643	0.042063427
2019-07-24T06:30:00	0.2492	13.657	194.3	0.632448068	0.788293781	0.013431669	0.138572056	0.042709253
2019-07-24T06:35:00	0.2500	13.667	207.7	0.635279392	0.792522897	0.013544001	0.139730960	0.043066439
2019-07-24T06:40:00	0.2488	13.677	207.6	0.631169099	0.786385625	0.013381086	0.138050197	0.042548411
2019-07-24T06:45:00	0.2500	13.689	194.4	0.635323211	0.792588403	0.013545743	0.139748935	0.043071979
2019-07-24T06:50:00	0.2502	13.703	207.7	0.635840659	0.793362063	0.013566327	0.139961291	0.043137429
2019-07-24T06:55:00	0.2520	13.718	194.5	0.641968544	0.802541419	0.013811322	0.142488867	0.043916453
2019-07-24T07:00:00	0.2511	13.736	194.5	0.638856227	0.797875294	0.013686605	0.141202185	0.043519885
2019-07-24T07:05:00	0.2504	13.753	194.6	0.636401838	0.794201364	0.013588668	0.140191782	0.043208469
2019-07-24T07:10:00	0.2511	13.774	194.7	0.638900003	0.797940867	0.013688356	0.141220241	0.043525450
2019-07-24T07:15:00	0.2516	13.795	207.9	0.640406818	0.800198982	0.013748667	0.141842465	0.043717225
2019-07-24T07:20:00	0.2501	13.850	208.2	0.635641756	0.793064647	0.013558413	0.139879643	0.043112264
2019-07-24T07:25:00	0.2514	13.876	195.0	0.639790691	0.799275420	0.013723989	0.141587870	0.043638757
2019-07-24T07:30:00	0.2514	13.920	195.2	0.639977555	0.799555490	0.013731471	0.141665060	0.043662547
2019-07-24T07:35:00	0.2508	13.949	195.2	0.637854099	0.796374609	0.013646573	0.140789181	0.043392593
2019-07-24T07:40:00	0.2514	14.023	195.4	0.639691350	0.799126541	0.013720013	0.141546842	0.043626112
2019-07-24T07:45:00	0.2505	14.028	195.6	0.636907310	0.794957578	0.013608808	0.140399563	0.043272509
2019-07-24T07:50:00	0.2516	14.056	195.7	0.640395010	0.800181278	0.013748194	0.141837584	0.043715721
2019-07-24T07:55:00	0.2516	14.068	209.2	0.640581843	0.800461398	0.013755682	0.141914832	0.043739530
2019-07-24T08:00:00	0.2514	14.115	195.9	0.639778881	0.799257720	0.013723517	0.141582992	0.043637253
2019-07-24T08:05:00	0.2514	14.108	209.3	0.639965745	0.799537789	0.013730999	0.141660181	0.043661044
2019-07-24T08:10:00	0.2527	14.156	209.6	0.644109690	0.805756301	0.013897465	0.143377579	0.044190362
2019-07-24T08:15:00	0.2526	14.201	209.7	0.643966755	0.805541566	0.013891705	0.143318163	0.044172050
2019-07-24T08:20:00	0.2510	14.210	209.8	0.638546305	0.797411095	0.013674218	0.141074391	0.043480497
2019-07-24T08:25:00	0.2517	14.250	209.9	0.640713105	0.800658219	0.013760944	0.141969118	0.043756261
2019-07-24T08:30:00	0.2534	14.271	210.1	0.646503350	0.809354943	0.013994096	0.144374510	0.044497626
2019-07-24T08:35:00	0.2521	14.294	210.2	0.642076151	0.802702895	0.013815645	0.142533462	0.043930197
2019-07-24T08:40:00	0.2536	14.326	210.4	0.647205679	0.810411753	0.014022515	0.144667704	0.044587991
2019-07-24T08:45:00	0.2545	14.366	210.4	0.650025400	0.814658883	0.014136915	0.145847949	0.044951754
2019-07-24T08:50:00	0.2523	14.414	210.6	0.642966052	0.804038669	0.013851419	0.142902539	0.044043950
2019-07-24T08:55:00	0.2544	14.462	210.8	0.649739994	0.814228689	0.014125314	0.145728260	0.044914865
2019-07-24T09:00:00	0.2543	14.513	211.0	0.649268193	0.813517695	0.014106147	0.145530515	0.044853918
2019-07-24T09:05:00	0.2532	14.579	211.4	0.645832786	0.808346321	0.013966990	0.144094865	0.044411437
2019-07-24T09:10:00	0.2520	14.666	198.2	0.641734569	0.802190347	0.013801926	0.142391927	0.043886575
2019-07-24T09:15:00	0.2532	14.806	198.6	0.645876477	0.808412027	0.013968756	0.144113077	0.044417050
2019-07-24T09:20:00	0.2528	14.870	212.5	0.644415661	0.806216028	0.013909797	0.143504812	0.044229577
2019-07-24T09:25:00	0.2536	14.844	212.5	0.647237567	0.810459746	0.014023806	0.144681024	0.044592097
2019-07-24T09:30:00	0.2544	14.832	212.4	0.649728216	0.814210938	0.014124835	0.145723322	0.044913343
2019-07-24T09:35:00	0.2529	14.875	212.7	0.644645991	0.806562154	0.013919085	0.143600629	0.044259109
2019-07-24T09:40:00	0.2522	14.932	212.9	0.642525293	0.803376990	0.013833695	0.142719677	0.043987590
2019-07-24T09:45:00	0.2529	14.999	213.2	0.644689696	0.806627837	0.013920847	0.143618814	0.044264713
2019-07-24T09:50:00	0.2537	15.080	213.6	0.647511387	0.810871890	0.014034895	0.144795422	0.044627355
2019-07-24T09:55:00	0.2522	15.143	214.0	0.642426028	0.803227993	0.013829704	0.142678510	0.043974903
2019-07-24T10:00:00	0.2526	15.209	214.3	0.643931366	0.805488402	0.013890280	0.143303454	0.044167516
2019-07-24T10:05:00	0.2531	15.276	214.6	0.645479770	0.807815490	0.013952732	0.143947760	0.044366098
2019-07-24T10:10:00	0.2512	15.335	214.9	0.639115397	0.798263539	0.013696968	0.141309098	0.043552836
2019-07-24T10:15:00	0.2505	15.380	215.1	0.637035229	0.795148986	0.013613907	0.140452170	0.043288723
2019-07-24T10:20:00	0.2508	15.421	215.3	0.637926380	0.796482822	0.013649459	0.140818950	0.043401768
2019-07-24T10:25:00	0.2515	15.466	215.5	0.640137315	0.799794963	0.013737870	0.141731072	0.043682893
2019-07-24T10:30:00	0.2512	15.482	215.7	0.639047999	0.798162569	0.013694273	0.141281291	0.043544266
2019-07-24T10:35:00	0.2515	15.513	215.8	0.640268594	0.799991758	0.013743129	0.141785328	0.043699615
2019-07-24T10:40:00	0.2510	15.544	215.9	0.638519199	0.797370500	0.013673135	0.141063217	0.043477053
2019-07-24T10:45:00	0.2517	15.567	216.0	0.640729769	0.800683207	0.013761612	0.141976010	0.043758385
2019-07-24T10:50:00	0.2515	15.587	216.1	0.640300544	0.800039656	0.013744409	0.141798534	0.043703685
2019-07-24T10:55:00	0.2512	15.618	216.3	0.639211277	0.798407185	0.013700803	0.141348662	0.043565030
2019-07-24T11:00:00	0.2513	15.649	216.5	0.639441940	0.798752793	0.013710031	0.141443864	0.043594373
2019-07-24T11:05:00	0.2518	15.685	216.6	0.641322126	0.801571603	0.013785371	0.142221128	0.043833933
2019-07-24T11:10:00	0.2510	15.713	216.7	0.638583130	0.797466248	0.013675690	0.141089572	0.043485176
2019-07-24T11:15:00	0.2516	15.737	216.8	0.640463766	0.800284361	0.013750949	0.141866009	0.043724482
2019-07-24T11:20:00	0.2520	15.764	216.9	0.641683880	0.802114296	0.013799891	0.142370930	0.043880103
2019-07-24T11:25:00	0.2519	15.796	203.2	0.641584592	0.801965336	0.013795905	0.142329807	0.043867429
2019-07-24T11:30:00	0.2516	15.801	203.2	0.640495714	0.800332261	0.013752230	0.141879218	0.043728553
2019-07-24T11:35:00	0.2503	15.823	203.3	0.636104910	0.793757245	0.013576844	0.140069801	0.043170873
2019-07-24T11:40:00	0.2495	15.855	203.5	0.633692476	0.790151702	0.013480981	0.139080793	0.042866051
2019-07-24T11:45:00	0.2491	15.882	217.6	0.632270549	0.788028849	0.013424642	0.138499561	0.042686910
2019-07-24T11:50:00	0.2481	15.913	217.7	0.628862727	0.782948137	0.013290119	0.137111709	0.042259160
2019-07-24T11:55:00	0.2488	15.945	217.9	0.631410020	0.786744960	0.013390607	0.138148422	0.042578685
2019-07-24T12:00:00	0.2496	15.979	218.1	0.633955501	0.790544571	0.013491416	0.139188447	0.042899231
2019-07-24T12:05:00	0.2484	16.015	204.3	0.629887573	0.784475044	0.013330501	0.137528320	0.042387564
2019-07-24T12:10:00	0.2491	16.055	218.5	0.632103471	0.787779524	0.013418031	0.138431349	0.042665886
2019-07-24T12:15:00	0.2484	16.087	218.7	0.630019228	0.784671259	0.013335693	0.137581887	0.042404074
2019-07-24T12:20:00	0.2473	16.120	204.8	0.626278054	0.779101206	0.013188558	0.136063922	0.041936222
2019-07-24T12:25:00	0.2468	16.151	219.0	0.624521809	0.776490497	0.013119779	0.135354343	0.041717523
2019-07-24T12:30:00	0.2459	16.180	219.2	0.621769922	0.772404976	0.013012383	0.134246359	0.041376032
2019-07-24T12:35:00	0.2450	16.204	219.4	0.618684000	0.767831134	0.012892494	0.133009487	0.040994816
2019-07-24T12:40:00	0.2428	16.230	219.6	0.611273999	0.756881043	0.012606955	0.130063635	0.040086876
2019-07-24T12:45:00	0.2433	16.256	219.7	0.613169065	0.759677071	0.012679666	0.130813778	0.040318077
2019-07-24T12:50:00	0.2447	16.288	219.9	0.617720237	0.766404323	0.012855169	0.132624414	0.040876132
2019-07-24T12:55:00	0.2436	16.303	220.0	0.613966132	0.760853987	0.012710313	0.131129954	0.040415525
2019-07-24T13:00:00	0.2428	16.324	220.1	0.611206073	0.756780880	0.012604353	0.130036789	0.040078601
2019-07-24T13:05:00	0.2416	16.350	220.2	0.607445078	0.751240959	0.012460704	0.128554786	0.039621833
2019-07-24T13:10:00	0.2414	16.394	220.5	0.606678798	0.750113689	0.012431540	0.128253910	0.039529101
2019-07-24T13:15:00	0.2418	16.403	220.6	0.607910514	0.751925899	0.012478435	0.128737714	0.039678214
2019-07-24T13:20:00	0.2412	16.418	220.7	0.606145178	0.749328975	0.012411252	0.128044602	0.039464590
2019-07-24T13:25:00	0.2414	16.438	220.9	0.606711050	0.750161125	0.012432767	0.128266567	0.039533002
2019-07-24T13:30:00	0.2400	16.461	221.0	0.601944942	0.743160656	0.012252156	0.126403239	0.038958706
2019-07-24T13:35:00	0.2384	16.487	221.1	0.596838447	0.735681328	0.012060155	0.124422400	0.038348192
2019-07-24T13:40:00	0.2394	16.512	221.3	0.600076179	0.740421006	0.012181711	0.125676468	0.038734708
2019-07-24T13:45:00	0.2402	16.538	221.5	0.602644156	0.744186473	0.012278568	0.126675721	0.039042687
2019-07-24T13:50:00	0.2388	16.565	221.7	0.597872566	0.737194210	0.012098912	0.124822242	0.038471427
2019-07-24T13:55:00	0.2399	16.588	221.8	0.601776434	0.742913500	0.012245796	0.126337617	0.038938480
2019-07-24T14:00:00	0.2389	16.612	221.9	0.598339262	0.737877263	0.012116423	0.125002905	0.038527109
2019-07-24T14:05:00	0.2366	16.631	222.1	0.590551995	0.726503665	0.011825927	0.122005914	0.037603408
2019-07-24T14:10:00	0.2382	16.654	222.2	0.596134565	0.734652083	0.012033812	0.124150621	0.038264427
2019-07-24T14:15:00	0.2393	16.670	222.4	0.599706662	0.739879631	0.012167807	0.125533017	0.038690495
2019-07-24T14:20:00	0.2389	16.686	222.5	0.598271088	0.737777472	0.012113864	0.124976506	0.038518973
2019-07-24T14:25:00	0.2387	16.705	222.6	0.597836716	0.737141748	0.012097567	0.124808369	0.038467152
2019-07-24T14:30:00	0.2392	16.726	222.8	0.599405260	0.739438136	0.012156471	0.125416071	0.038654451
2019-07-24T14:35:00	0.2388	16.746	222.9	0.597969563	0.737336159	0.012102550	0.124859780	0.038482997
2019-07-24T14:40:00	0.2368	16.764	223.1	0.591185157	0.727426532	0.011849412	0.122248197	0.037678082
2019-07-24T14:45:00	0.2379	16.779	223.2	0.595096418	0.733134816	0.011995013	0.123750334	0.038141055
2019-07-24T14:50:00	0.2373	16.790	223.3	0.592990351	0.730059534	0.011916499	0.122940320	0.037891401
2019-07-24T14:55:00	0.2377	16.796	223.3	0.594226841	0.731864610	0.011962563	0.123415555	0.038037873
2019-07-24T15:00:00	0.2373	16.802	223.4	0.593123380	0.730253674	0.011921450	0.122991404	0.037907145
2019-07-24T15:05:00	0.2354	16.804	223.5	0.586664593	0.720844891	0.011682265	0.120523774	0.037146598
2019-07-24T15:10:00	0.2355	16.806	223.5	0.586898691	0.721185304	0.011690891	0.120612765	0.037174026
2019-07-24T15:15:00	0.2366	16.808	223.6	0.590814708	0.726886543	0.011835669	0.122106413	0.037634382
2019-07-24T15:20:00	0.2366	16.810	223.6	0.590713991	0.726739751	0.011831934	0.122067879	0.037622506
2019-07-24T15:25:00	0.2360	16.809	223.6	0.588605304	0.723668352	0.011753873	0.121262544	0.037374294
2019-07-24T15:30:00	0.2362	16.809	223.7	0.589173991	0.724496307	0.011774899	0.121479464	0.037441151
2019-07-24T15:35:00	0.2361	16.809	223.6	0.589073227	0.724349583	0.011771172	0.121441014	0.037429300
2019-07-24T15:40:00	0.2342	16.809	223.8	0.582607000	0.714951787	0.011533272	0.118986640	0.036672838
2019-07-24T15:45:00	0.2328	16.808	223.8	0.577808187	0.707999817	0.011358324	0.117181733	0.036116548
2019-07-24T15:50:00	0.2335	16.810	223.8	0.580392434	0.711741203	0.011452367	0.118151956	0.036415580
2019-07-24T15:55:00	0.2328	16.811	223.8	0.577941792	0.708193109	0.011363176	0.117231793	0.036131977
2019-07-24T16:00:00	0.2347	16.807	223.9	0.584214792	0.717285248	0.011592192	0.119594510	0.036860189
2019-07-24T16:05:00	0.2318	16.803	223.9	0.574630034	0.703406188	0.011243211	0.115994139	0.035750520
2019-07-24T16:10:00	0.2336	16.794	223.9	0.580487444	0.711878859	0.011455832	0.118187704	0.036426598
2019-07-24T16:15:00	0.2326	16.787	223.9	0.577279196	0.707234644	0.011339122	0.116983634	0.036055492
2019-07-24T16:20:00	0.2312	16.781	224.0	0.572723175	0.700654075	0.011174432	0.115284557	0.035531820
2019-07-24T16:25:00	0.2318	16.775	224.0	0.574552910	0.703294819	0.011240425	0.115965396	0.035741661
2019-07-24T16:30:00	0.2305	16.769	224.0	0.570329859	0.697204132	0.011088411	0.114397097	0.035258296
2019-07-24T16:35:00	0.2315	16.761	224.0	0.573505897	0.701783391	0.011202638	0.115575556	0.035621509
2019-07-24T16:40:00	0.2325	16.755	224.0	0.577014936	0.706852487	0.011329536	0.116884737	0.036025011
2019-07-24T16:45:00	0.2315	16.746	224.0	0.573467323	0.701727724	0.011201248	0.115561206	0.035617086
2019-07-24T16:50:00	0.2299	16.737	224.0	0.568232991	0.694185410	0.011013324	0.113622435	0.035019538
2019-07-24T16:55:00	0.2307	16.727	224.0	0.570738068	0.697792227	0.011103059	0.114548217	0.035304873
2019-07-24T17:00:00	0.2303	16.717	224.0	0.569540936	0.696067946	0.011060130	0.114105324	0.035168369
2019-07-24T17:05:00	0.2297	16.708	224.0	0.567669940	0.693375441	0.010993206	0.113414878	0.034955567
2019-07-24T17:10:00	0.2289	16.698	224.0	0.564786975	0.689232296	0.010890489	0.112355166	0.034628953
2019-07-24T17:15:00	0.2308	16.682	223.9	0.571333737	0.698650637	0.011124452	0.114768917	0.035372895
2019-07-24T17:20:00	0.2302	16.665	223.8	0.569127097	0.695472150	0.011045310	0.113952423	0.035121244
2019-07-24T17:25:00	0.2291	16.652	223.9	0.565571476	0.690359032	0.010918391	0.112643029	0.034717676
2019-07-24T17:30:00	0.2286	16.636	223.8	0.563698352	0.687669607	0.010851830	0.111956330	0.034506028
2019-07-24T17:35:00	0.2284	16.619	223.8	0.563173257	0.686916197	0.010833208	0.111764210	0.034446815
2019-07-24T17:40:00	0.2311	16.602	223.7	0.572078181	0.699723856	0.011151216	0.115045044	0.035458000
2019-07-24T17:45:00	0.2299	16.582	223.6	0.568188867	0.694121927	0.011011747	0.113606162	0.035014523
2019-07-24T17:50:00	0.2293	16.562	223.5	0.566317147	0.691430471	0.010944946	0.112916992	0.034802114
2019-07-24T17:55:00	0.2282	16.541	223.5	0.562421413	0.685837841	0.010806573	0.111489419	0.034362122
2019-07-24T18:00:00	0.2273	16.519	223.4	0.559534107	0.681700963	0.010704595	0.110437338	0.034037860
2019-07-24T18:05:00	0.2284	16.495	223.3	0.563057191	0.686749695	0.010829094	0.111721766	0.034433733
2019-07-24T18:10:00	0.2298	16.472	223.2	0.567923921	0.693740769	0.011002278	0.113508479	0.034984416
2019-07-24T18:15:00	0.2297	16.448	223.1	0.567399461	0.692986441	0.010983548	0.113315241	0.034924858
2019-07-24T18:20:00	0.2295	16.422	223.0	0.566874923	0.692232227	0.010964831	0.113122143	0.034865343
2019-07-24T18:25:00	0.2279	16.399	222.9	0.561293343	0.684220746	0.010766672	0.111077768	0.034235247
2019-07-24T18:30:00	0.2292	16.375	222.8	0.565825609	0.690724140	0.010927438	0.112736361	0.034746441
2019-07-24T18:35:00	0.2287	16.350	222.7	0.564289724	0.688518385	0.010872822	0.112172900	0.034572777
2019-07-24T18:40:00	0.2289	16.326	222.6	0.564775981	0.689216510	0.010890098	0.112351135	0.034627711
2019-07-24T18:45:00	0.2295	16.303	222.5	0.566946722	0.692335451	0.010967392	0.113148564	0.034873486
2019-07-24T18:50:00	0.2310	16.280	222.5	0.571808044	0.699334362	0.011141500	0.114944806	0.035427106
2019-07-24T18:55:00	0.2297	16.256	222.3	0.567581677	0.693248495	0.010990054	0.113382360	0.034945545
2019-07-24T19:00:00	0.2297	16.233	222.2	0.567393968	0.692978542	0.010983352	0.113313219	0.034924234
2019-07-24T19:05:00	0.2307	16.209	222.1	0.570909135	0.698038719	0.011109201	0.114611577	0.035324401
2019-07-24T19:10:00	0.2313	16.186	222.0	0.572739819	0.700678084	0.011175032	0.115290741	0.035533726
2019-07-24T19:15:00	0.2309	16.162	221.9	0.571543371	0.698952807	0.011131985	0.114846640	0.035396850
2019-07-24T19:20:00	0.2311	16.137	221.8	0.572364944	0.700137387	0.011161535	0.115151500	0.035490811
2019-07-24T19:25:00	0.2331	16.112	221.7	0.578897564	0.709576304	0.011397919	0.117590227	0.036242450
2019-07-24T19:30:00	0.2333	16.088	221.5	0.579717415	0.710763398	0.011427764	0.117898134	0.036337350
2019-07-24T19:35:00	0.2341	16.062	221.4	0.582214301	0.714382170	0.011518904	0.118838410	0.036627152
2019-07-24T19:40:00	0.2339	16.038	221.3	0.581691975	0.713624728	0.011499808	0.118641397	0.036566431
2019-07-24T19:45:00	0.2339	16.011	221.2	0.581505021	0.713353674	0.011492977	0.118570921	0.036544709
2019-07-24T19:50:00	0.2329	15.986	221.1	0.578297703	0.708708096	0.011376107	0.117365202	0.036173095
2019-07-24T19:55:00	0.2335	15.960	220.9	0.580124533	0.711353086	0.011442599	0.118051186	0.036384522
2019-07-24T20:00:00	0.2348	15.935	220.9	0.584632510	0.717891854	0.011607525	0.119752699	0.036908945
2019-07-24T20:05:00	0.2323	15.910	220.9	0.576392838	0.705953071	0.011306986	0.116652091	0.035953307
2019-07-24T20:10:00	0.2337	15.882	220.7	0.580905605	0.712484814	0.011471089	0.118345106	0.036475111
2019-07-24T20:15:00	0.2357	15.857	206.4	0.587757221	0.722434125	0.011722553	0.120939420	0.037274704
2019-07-24T20:20:00	0.2366	15.831	206.3	0.590582992	0.726548838	0.011827077	0.122017770	0.037607062
2019-07-24T20:25:00	0.2372	15.806	220.3	0.592737836	0.729691059	0.011907103	0.122843384	0.037861524
2019-07-24T20:30:00	0.2369	15.779	206.0	0.591548179	0.727955807	0.011862887	0.122387221	0.037720930
2019-07-24T20:35:00	0.2354	15.753	220.0	0.586675709	0.720861053	0.011682674	0.120527999	0.037147900
2019-07-24T20:40:00	0.2362	15.727	205.8	0.589167661	0.724487088	0.011774665	0.121477048	0.037440406
2019-07-24T20:45:00	0.2345	15.703	219.8	0.583621496	0.716423921	0.011570432	0.119370013	0.036790997
2019-07-24T20:50:00	0.2360	15.676	219.7	0.588794536	0.723943825	0.011760867	0.121334702	0.037396534
2019-07-24T20:55:00	0.2358	15.650	219.6	0.587938383	0.722697721	0.011729240	0.121008406	0.037295966
2019-07-24T21:00:00	0.2345	15.623	219.4	0.583731415	0.716583476	0.011574462	0.119411589	0.036803812
2019-07-24T21:05:00	0.2359	15.597	219.2	0.588234774	0.723129041	0.011740184	0.121121315	0.037330766
2019-07-24T21:10:00	0.2367	15.572	205.1	0.591060163	0.727244320	0.011844774	0.122200348	0.037663334
2019-07-24T21:15:00	0.2345	15.546	219.0	0.583506105	0.716256434	0.011566202	0.119326376	0.036777548
2019-07-24T21:20:00	0.2339	15.520	204.8	0.581642550	0.713553066	0.011498002	0.118622763	0.036560688
2019-07-24T21:25:00	0.2335	15.494	218.8	0.580449136	0.711823356	0.011454435	0.118173290	0.036422156
2019-07-24T21:30:00	0.2357	15.468	218.6	0.587636505	0.722258493	0.011718098	0.120893462	0.037260539
2019-07-24T21:35:00	0.2347	15.442	218.6	0.584434779	0.717604694	0.011600266	0.119677806	0.036885862
2019-07-24T21:40:00	0.2353	15.417	218.4	0.586258422	0.720254366	0.011667306	0.120369450	0.037099033
2019-07-24T21:45:00	0.2347	15.391	218.3	0.584396325	0.717548851	0.011598854	0.119663243	0.036881374
2019-07-24T21:50:00	0.2357	15.365	218.2	0.587559666	0.722146706	0.011715263	0.120864213	0.037251524
2019-07-24T21:55:00	0.2330	15.340	218.0	0.578655518	0.709225943	0.011389115	0.117499402	0.036214457
2019-07-24T22:00:00	0.2343	15.316	218.0	0.582830089	0.715275437	0.011541438	0.119070890	0.036698805
2019-07-24T22:05:00	0.2334	15.292	217.8	0.579956575	0.711109792	0.011436478	0.117988032	0.036365057
2019-07-24T22:10:00	0.2352	15.267	217.7	0.586137123	0.720078038	0.011662841	0.120323382	0.037084835
2019-07-24T22:15:00	0.2328	15.243	217.6	0.577897980	0.708129723	0.011361585	0.117215376	0.036126917
2019-07-24T22:20:00	0.2334	15.220	217.5	0.580057602	0.711256130	0.011440159	0.118026017	0.036376765
2019-07-24T22:25:00	0.2350	15.196	217.3	0.585232884	0.718763964	0.011629581	0.119980248	0.036979078
2019-07-24T22:30:00	0.2352	15.171	217.2	0.586048262	0.719948871	0.011659570	0.120289639	0.037074435
2019-07-24T22:35:00	0.2348	15.146	217.1	0.584518216	0.717725863	0.011603329	0.119709406	0.036895601
2019-07-24T22:40:00	0.2351	15.123	217.0	0.585668811	0.719397383	0.011645610	0.120145607	0.037030043
2019-07-24T22:45:00	0.2351	15.099	216.9	0.585814107	0.719608541	0.011650954	0.120200748	0.037047038
2019-07-24T22:50:00	0.2361	15.075	216.8	0.588973180	0.724203913	0.011767472	0.121402843	0.037417535
2019-07-24T22:55:00	0.2361	15.051	216.7	0.589118340	0.724415271	0.011772841	0.121458227	0.037434605
2019-07-24T23:00:00	0.2354	15.028	216.5	0.586584926	0.720729053	0.011679330	0.120493496	0.037137266
2019-07-24T23:05:00	0.2360	15.005	216.5	0.588739219	0.723863296	0.011758823	0.121313606	0.037390032
2019-07-24T23:10:00	0.2354	14.982	216.3	0.586540501	0.720664460	0.011677694	0.120476614	0.037132063
2019-07-24T23:15:00	0.2366	14.958	216.2	0.590702736	0.726723349	0.011831516	0.122063574	0.037621179
2019-07-24T23:20:00	0.2370	14.935	216.1	0.591851313	0.728397851	0.011874146	0.122503372	0.037756729
2019-07-24T23:25:00	0.2359	14.912	216.0	0.588315656	0.723246755	0.011743172	0.121152136	0.037340265
2019-07-24T23:30:00	0.2371	14.889	215.8	0.592475796	0.729308742	0.011897356	0.122742832	0.037830533
2019-07-24T23:35:00	0.2373	14.866	201.9	0.592955171	0.730008196	0.011915189	0.122926813	0.037887238
2019-07-24T23:40:00	0.2366	14.844	215.6	0.590759083	0.726805470	0.011833606	0.122085130	0.037627823
2019-07-24T23:45:00	0.2347	14.822	215.5	0.584207047	0.717274003	0.011591908	0.119591578	0.036859286
2019-07-24T23:50:00	0.2349	14.799	215.4	0.585022663	0.718458559	0.011621856	0.119900546	0.036954513
2019-07-24T23:55:00	0.2341	14.778	215.3	0.582150942	0.714290280	0.011516587	0.118814503	0.036619784
2019-07-25T00:00:00	0.2354	14.757	215.2	0.586653326	0.720828508	0.011681850	0.120519492	0.037145278
2019-07-25T00:05:00	0.2364	14.736	215.2	0.590146272	0.725912478	0.011810892	0.121850791	0.037555597
2019-07-25T00:10:00	0.2351	14.717	215.0	0.585603920	0.719303085	0.011643223	0.120120985	0.037022454
2019-07-25T00:15:00	0.2352	14.695	214.9	0.586084232	0.720001155	0.011660894	0.120303297	0.037078645
2019-07-25T00:20:00	0.2328	14.676	214.8	0.577844964	0.708053022	0.011359659	0.117195512	0.036120795
2019-07-25T00:25:00	0.2361	14.657	214.5	0.589053513	0.724320879	0.011770443	0.121433492	0.037426982
2019-07-25T00:30:00	0.2339	14.634	214.4	0.581492141	0.713335002	0.011492506	0.118566067	0.036543213
2019-07-25T00:35:00	0.2332	14.615	214.3	0.579288886	0.710142844	0.011412159	0.117737142	0.036287731
2019-07-25T00:40:00	0.2339	14.597	200.4	0.581783074	0.713756818	0.011503137	0.118675746	0.036577017
2019-07-25T00:45:00	0.2344	14.578	214.4	0.583269845	0.715913543	0.011557544	0.119237055	0.036750018
2019-07-25T00:50:00	0.2356	14.557	214.0	0.587435947	0.721966726	0.011710699	0.120817128	0.037237012
2019-07-25T00:55:00	0.2351	14.539	200.2	0.585571475	0.719255936	0.011642030	0.120108675	0.037018660
2019-07-25T01:00:00	0.2362	14.519	213.8	0.589400190	0.724825704	0.011783268	0.121565800	0.037467760
2019-07-25T01:05:00	0.2359	14.498	213.8	0.588206410	0.723087761	0.011739137	0.121110508	0.037327435
2019-07-25T01:10:00	0.2340	14.479	213.6	0.581985019	0.714049653	0.011510519	0.118751908	0.036600491
2019-07-25T01:15:00	0.2363	14.461	213.5	0.589835600	0.725459885	0.011799385	0.121732078	0.037519009
2019-07-25T01:20:00	0.2353	14.444	213.5	0.586297919	0.720311782	0.011668761	0.120384452	0.037103657
2019-07-25T01:25:00	0.2346	14.426	213.5	0.584097674	0.717115198	0.011587895	0.119550177	0.036846526
2019-07-25T01:30:00	0.2343	14.410	213.6	0.582902094	0.715379909	0.011544075	0.119098090	0.036707188
2019-07-25T01:35:00	0.2323	14.392	213.3	0.576335386	0.705870024	0.011304905	0.116630617	0.035946689
2019-07-25T01:40:00	0.2332	14.376	213.4	0.579167346	0.709966870	0.011407735	0.117691502	0.036273664
2019-07-25T01:45:00	0.2325	14.359	213.3	0.576962630	0.706776851	0.011327639	0.116865167	0.036018980
2019-07-25T01:50:00	0.2319	14.343	213.2	0.574756527	0.703588859	0.011247781	0.116041288	0.035765052
2019-07-25T01:55:00	0.2326	14.327	212.9	0.577253938	0.707198116	0.011338206	0.116974180	0.036052578
2019-07-25T02:00:00	0.2325	14.310	213.0	0.577063742	0.706923063	0.011331306	0.116902999	0.036030640
2019-07-25T02:05:00	0.2312	14.294	212.8	0.572504432	0.700338562	0.011166556	0.115203300	0.035506776
2019-07-25T02:10:00	0.2323	14.277	212.8	0.576347409	0.705887403	0.011305340	0.116635111	0.035948074
2019-07-25T02:15:00	0.2335	14.260	212.7	0.580186180	0.711442390	0.011444846	0.118074370	0.036391668
2019-07-25T02:20:00	0.2326	14.243	198.9	0.577310501	0.707279920	0.011340258	0.116995353	0.036059104
2019-07-25T02:25:00	0.2327	14.229	212.5	0.577456144	0.707490569	0.011345543	0.117049880	0.036075910
2019-07-25T02:30:00	0.2320	14.214	212.5	0.575250351	0.704302123	0.011265632	0.116225450	0.035821813
2019-07-25T02:35:00	0.2325	14.199	198.6	0.577075763	0.706940446	0.011331742	0.116907498	0.036032026
2019-07-25T02:40:00	0.2336	14.185	198.6	0.580578232	0.712010407	0.011459143	0.118221869	0.036437128
2019-07-25T02:45:00	0.2332	14.171	198.5	0.579381454	0.710276879	0.011415529	0.117771909	0.036298446
2019-07-25T02:50:00	0.2322	14.156	198.4	0.575833229	0.705144273	0.011286721	0.116443015	0.035888868
2019-07-25T02:55:00	0.2321	14.142	212.0	0.575642956	0.704869333	0.011279834	0.116371971	0.035866972
2019-07-25T03:00:00	0.2319	14.129	198.3	0.574780584	0.703623601	0.011248651	0.116050256	0.035767816
2019-07-25T03:05:00	0.2334	14.116	211.7	0.579963645	0.711120032	0.011436735	0.117990689	0.036365876
2019-07-25T03:10:00	0.2321	14.103	198.2	0.575744106	0.705015489	0.011283495	0.116409736	0.035878611
2019-07-25T03:15:00	0.2326	14.092	211.8	0.577233436	0.707168464	0.011337462	0.116966506	0.036050213
2019-07-25T03:20:00	0.2310	14.078	211.8	0.572001725	0.699613613	0.011148466	0.115016670	0.035449255
2019-07-25T03:25:00	0.2327	14.066	198.0	0.577524722	0.707589763	0.011348032	0.117075559	0.036083824
2019-07-25T03:30:00	0.2325	14.055	197.9	0.576998693	0.706828998	0.011328947	0.116878660	0.036023138
2019-07-25T03:35:00	0.2315	14.043	197.9	0.573448055	0.701699918	0.011200553	0.115554038	0.035614877
2019-07-25T03:40:00	0.2331	14.032	211.4	0.578968775	0.709679391	0.011400510	0.117616956	0.036250688
2019-07-25T03:45:00	0.2335	14.021	197.8	0.580121188	0.711348241	0.011442477	0.118049928	0.036384134
2019-07-25T03:50:00	0.2349	14.011	211.4	0.584961290	0.718369406	0.011619601	0.119877283	0.036947343
2019-07-25T03:55:00	0.2348	14.000	211.1	0.584771511	0.718093741	0.011612630	0.119805363	0.036925176
2019-07-25T04:00:00	0.2341	13.992	211.1	0.582234964	0.714412140	0.011519660	0.118846207	0.036629555
2019-07-25T04:05:00	0.2332	13.984	197.5	0.579402476	0.710307319	0.011416294	0.117779806	0.036300880
2019-07-25T04:10:00	0.2336	13.977	197.5	0.580596245	0.712036508	0.011459800	0.118228648	0.036439217
2019-07-25T04:15:00	0.2321	13.971	197.4	0.575747112	0.705019833	0.011283604	0.116410859	0.035878957
2019-07-25T04:20:00	0.2356	13.965	210.9	0.587338660	0.721825207	0.011707111	0.120780108	0.037225602
2019-07-25T04:25:00	0.2366	13.960	197.4	0.590537746	0.726482901	0.011825399	0.122000464	0.037601728
2019-07-25T04:30:00	0.2339	13.955	197.3	0.581679628	0.713606826	0.011499357	0.118636742	0.036564996
2019-07-25T04:35:00	0.2366	13.949	197.3	0.590576134	0.726538843	0.011826822	0.122015146	0.037606253
2019-07-25T04:40:00	0.2363	13.944	210.8	0.589758810	0.725348027	0.011796542	0.121702744	0.037509968
2019-07-25T04:45:00	0.2361	13.940	210.7	0.588941296	0.724157491	0.011766293	0.121390680	0.037413787
2019-07-25T04:50:00	0.2363	13.937	197.2	0.589797205	0.725403955	0.011797963	0.121717411	0.037514488
2019-07-25T04:55:00	0.2383	13.933	197.2	0.596335878	0.734946408	0.012041343	0.124228319	0.038288375
2019-07-25T05:00:00	0.2363	13.930	197.2	0.589835600	0.725459885	0.011799385	0.121732078	0.037519009
2019-07-25T05:05:00	0.2375	13.927	197.2	0.593701032	0.731096857	0.011942963	0.123213350	0.037975551
2019-07-25T05:10:00	0.2381	13.925	210.6	0.595558220	0.733809635	0.012012264	0.123928313	0.038195910
2019-07-25T05:15:00	0.2381	13.923	197.1	0.595744430	0.734081789	0.012019224	0.124000115	0.038218040
2019-07-25T05:20:00	0.2391	13.922	197.1	0.598935908	0.738750777	0.012138830	0.125234070	0.038598357
2019-07-25T05:25:00	0.2370	13.921	197.1	0.592106013	0.728769326	0.011883610	0.122601009	0.037786822
2019-07-25T05:30:00	0.2369	13.921	197.1	0.591623529	0.728065679	0.011865685	0.122416088	0.037729827
2019-07-25T05:35:00	0.2379	13.922	197.1	0.595152883	0.733217318	0.011997121	0.123772089	0.038147760
2019-07-25T05:40:00	0.2374	13.924	197.1	0.593333839	0.730560843	0.011929286	0.123072243	0.037932060
2019-07-25T05:45:00	0.2382	13.926	210.3	0.595859421	0.734249867	0.012023523	0.124044466	0.038231709
2019-07-25T05:50:00	0.2380	13.930	197.1	0.595377450	0.733545459	0.012005509	0.123858628	0.038174432
2019-07-25T05:55:00	0.2377	13.934	210.6	0.594227030	0.731864886	0.011962570	0.123415628	0.038037895
2019-07-25T06:00:00	0.2367	13.939	197.2	0.591069673	0.727258183	0.011845127	0.122203988	0.037664456
2019-07-25T06:05:00	0.2378	13.944	197.2	0.594599581	0.732409000	0.011976467	0.123559000	0.038082084
2019-07-25T06:10:00	0.2387	13.951	197.2	0.597792093	0.737076448	0.012095893	0.124791103	0.038461830
2019-07-25T06:15:00	0.2401	13.959	197.2	0.602315811	0.743704707	0.012266162	0.126547728	0.039003239
2019-07-25T06:20:00	0.2394	13.968	210.8	0.600166804	0.740553797	0.012185123	0.125711663	0.038745556
2019-07-25T06:25:00	0.2403	13.977	197.3	0.603020919	0.744739390	0.012292811	0.126822669	0.039087978
2019-07-25T06:30:00	0.2403	13.988	197.4	0.602873346	0.744522805	0.012287231	0.126765101	0.039070235
2019-07-25T06:35:00	0.2418	14.000	210.9	0.608056482	0.752140745	0.012483998	0.128795111	0.039695904
2019-07-25T06:40:00	0.2426	14.013	197.4	0.610571586	0.755845451	0.012580060	0.129786158	0.040001354
2019-07-25T06:45:00	0.2428	14.026	197.5	0.611422278	0.757099709	0.012612637	0.130122250	0.040104941
2019-07-25T06:50:00	0.2432	14.041	197.6	0.612605276	0.758844927	0.012658012	0.130590375	0.040249222
2019-07-25T06:55:00	0.2431	14.057	197.6	0.612458100	0.758627743	0.012652362	0.130532089	0.040231258
2019-07-25T07:00:00	0.2443	14.074	197.7	0.616298931	0.764301568	0.012800227	0.132057581	0.040701429
2019-07-25T07:05:00	0.2456	14.092	197.7	0.620799140	0.770965252	0.012974606	0.133856620	0.041255910
2019-07-25T07:10:00	0.2462	14.113	211.6	0.622642202	0.773699293	0.013046376	0.134597052	0.041484119
2019-07-25T07:15:00	0.2460	14.136	211.6	0.621832238	0.772497420	0.013014810	0.134271396	0.041383748
2019-07-25T07:20:00	0.2456	14.197	198.1	0.620690366	0.770803983	0.012970377	0.133812987	0.041242462
2019-07-25T07:25:00	0.2448	14.223	211.9	0.617888515	0.766653396	0.012861683	0.132691608	0.040896842
2019-07-25T07:30:00	0.2451	14.252	212.0	0.619069365	0.768401869	0.012907434	0.133163622	0.041042322
2019-07-25T07:35:00	0.2457	14.276	212.1	0.620913321	0.771134548	0.012979046	0.133902430	0.041270029
2019-07-25T07:40:00	0.2473	14.356	212.3	0.626401476	0.779284775	0.013193399	0.136113861	0.041951614
2019-07-25T07:45:00	0.2476	14.388	212.5	0.627248398	0.780544767	0.013226639	0.136456796	0.042057310
2019-07-25T07:50:00	0.2481	14.404	212.6	0.629088134	0.783283893	0.013298995	0.137203283	0.042287384
2019-07-25T07:55:00	0.2481	14.419	212.7	0.628941638	0.783065674	0.013293226	0.137143764	0.042269040
2019-07-25T08:00:00	0.2479	14.458	212.8	0.628133101	0.781861617	0.013261409	0.136815507	0.042167868
2019-07-25T08:05:00	0.2472	14.457	212.7	0.625999645	0.778687169	0.013177642	0.135951307	0.041901513
2019-07-25T08:10:00	0.2482	14.504	212.9	0.629164079	0.783397026	0.013301987	0.137234144	0.042296896
2019-07-25T08:15:00	0.2480	14.545	213.2	0.628686605	0.782685824	0.013283186	0.137040179	0.042237114
2019-07-25T08:20:00	0.2481	14.562	213.2	0.628871087	0.782960588	0.013290448	0.137115105	0.042260207
2019-07-25T08:25:00	0.2481	14.611	213.4	0.629055559	0.783235368	0.013297712	0.137190047	0.042283305
2019-07-25T08:30:00	0.2475	14.627	213.4	0.626922653	0.780060075	0.013213849	0.136324843	0.042016640
2019-07-25T08:35:00	0.2469	14.657	199.9	0.625119816	0.777379160	0.013143178	0.135595741	0.041791924
2019-07-25T08:40:00	0.2467	14.695	213.7	0.624310414	0.776176428	0.013111513	0.135269063	0.041691239
2019-07-25T08:45:00	0.2459	14.744	214.0	0.621511408	0.772021508	0.013002318	0.134142516	0.041344026
2019-07-25T08:50:00	0.2478	14.789	214.2	0.627991965	0.781651497	0.013255859	0.136758250	0.042150221
2019-07-25T08:55:00	0.2469	14.833	214.4	0.624864510	0.776999728	0.013133186	0.135492655	0.041760152
2019-07-25T09:00:00	0.2479	14.885	214.5	0.628360992	0.782200931	0.013270373	0.136907987	0.042196371
2019-07-25T09:05:00	0.2464	14.955	214.9	0.623245406	0.774594722	0.013069909	0.134839842	0.041558949
2019-07-25T09:10:00	0.2471	15.036	215.3	0.625749804	0.778315673	0.013167851	0.135850290	0.041870379
2019-07-25T09:15:00	0.2466	15.168	215.7	0.623946375	0.775635664	0.013097284	0.135122268	0.041645995
2019-07-25T09:20:00	0.2484	15.222	216.0	0.630091668	0.784779228	0.013338550	0.137611365	0.042413159
2019-07-25T09:25:00	0.2472	15.232	216.1	0.625972444	0.778646721	0.013176576	0.135940308	0.041898123
2019-07-25T09:30:00	0.2459	15.253	216.2	0.621516818	0.772029531	0.013002528	0.134144689	0.041344696
2019-07-25T09:35:00	0.2449	15.293	216.4	0.618383679	0.767386438	0.012880857	0.132889432	0.040957813
2019-07-25T09:40:00	0.2461	15.325	202.7	0.622218126	0.773069955	0.013029844	0.134426496	0.041431552
2019-07-25T09:45:00	0.2456	15.385	203.0	0.620744659	0.770884478	0.012972488	0.133834765	0.041249174
2019-07-25T09:50:00	0.2429	15.450	217.2	0.611629354	0.757405112	0.012620573	0.130204129	0.040130177
2019-07-25T09:55:00	0.2447	15.508	217.5	0.617795897	0.766516307	0.012858098	0.132654623	0.040885443
2019-07-25T10:00:00	0.2467	15.576	217.7	0.624283201	0.776136000	0.013110449	0.135258086	0.041687856
2019-07-25T10:05:00	0.2450	15.643	218.1	0.618779904	0.767973158	0.012896212	0.133047837	0.041006636
2019-07-25T10:10:00	0.2456	15.700	218.4	0.620574073	0.770631579	0.012965856	0.133766346	0.041228087
2019-07-25T10:15:00	0.2453	15.762	218.6	0.619713690	0.769356410	0.012932434	0.133421540	0.041121814
2019-07-25T10:20:00	0.2447	15.809	218.9	0.617525211	0.766115691	0.012847623	0.132546561	0.040852137
2019-07-25T10:25:00	0.2448	15.864	205.0	0.617992299	0.766807021	0.012865700	0.132733058	0.040909618
2019-07-25T10:30:00	0.2451	15.893	219.3	0.619123157	0.768481547	0.012909521	0.133185145	0.041048955
2019-07-25T10:35:00	0.2445	15.930	219.4	0.616934316	0.765241380	0.012824774	0.132310825	0.040779481
2019-07-25T10:40:00	0.2440	15.964	205.5	0.615408652	0.762985308	0.012765874	0.131703167	0.040592195
2019-07-25T10:45:00	0.2429	15.990	205.6	0.611554956	0.757295383	0.012617722	0.130174709	0.040121109
2019-07-25T10:50:00	0.2444	16.016	205.7	0.616675451	0.764858446	0.012814770	0.132207620	0.040747672
2019-07-25T10:55:00	0.2452	16.045	205.8	0.619466378	0.768989986	0.012922836	0.133322512	0.041091293
2019-07-25T11:00:00	0.2433	16.078	220.1	0.612958389	0.759366085	0.012671572	0.130730274	0.040292340
2019-07-25T11:05:00	0.2435	16.117	206.2	0.613758478	0.760547321	0.012702325	0.131047545	0.040390126
2019-07-25T11:10:00	0.2436	16.149	206.3	0.613893703	0.760747019	0.012707526	0.131101207	0.040406665
2019-07-25T11:15:00	0.2453	16.181	220.6	0.619674564	0.769298437	0.012930915	0.133405871	0.041116985
2019-07-25T11:20:00	0.2418	16.224	220.8	0.608176843	0.752317913	0.012488587	0.128842448	0.039710494
2019-07-25T11:25:00	0.2423	16.257	220.9	0.609643613	0.754477944	0.012544573	0.129420045	0.039888515
2019-07-25T11:30:00	0.2418	16.254	220.9	0.608114815	0.752226609	0.012486222	0.128818052	0.039702975
2019-07-25T11:35:00	0.2413	16.273	221.1	0.606252286	0.749486463	0.012415323	0.128086600	0.039477534
2019-07-25T11:40:00	0.2408	16.303	221.2	0.604722026	0.747237328	0.012357228	0.127487243	0.039292806
2019-07-25T11:45:00	0.2412	16.340	221.4	0.606190225	0.749395210	0.012412964	0.128062265	0.039470034
2019-07-25T11:50:00	0.2420	16.372	221.5	0.608656546	0.753024147	0.012506883	0.129031203	0.039768670
2019-07-25T11:55:00	0.2414	16.398	221.7	0.606794301	0.750283574	0.012435934	0.128299239	0.039543071
2019-07-25T12:00:00	0.2409	16.431	221.8	0.604931078	0.747544471	0.012365156	0.127569037	0.039318016
2019-07-25T12:05:00	0.2409	16.465	222.0	0.605066640	0.747743662	0.012370299	0.127622092	0.039334368
2019-07-25T12:10:00	0.2401	16.505	222.3	0.602202239	0.743538089	0.012261872	0.126503472	0.038989599
2019-07-25T12:15:00	0.2399	16.536	222.4	0.601670929	0.742758764	0.012241814	0.126296539	0.038925820
2019-07-25T12:20:00	0.2390	16.568	222.6	0.598803778	0.738557308	0.012133866	0.125182859	0.038582573
2019-07-25T12:25:00	0.2376	16.605	222.8	0.593929363	0.731430223	0.011951472	0.123301136	0.038002608
2019-07-25T12:30:00	0.2383	16.639	223.0	0.596404241	0.735046364	0.012043901	0.124254710	0.038296508
2019-07-25T12:35:00	0.2385	16.669	223.2	0.596874118	0.735733498	0.012061491	0.124436181	0.038352439
2019-07-25T12:40:00	0.2366	16.700	223.4	0.590659045	0.726659674	0.011829896	0.122046860	0.037616028
2019-07-25T12:45:00	0.2366	16.728	223.6	0.590795156	0.726858046	0.011834944	0.122098932	0.037632077
2019-07-25T12:50:00	0.2376	16.752	223.7	0.593940796	0.731446917	0.011951898	0.123305533	0.038003963
2019-07-25T12:55:00	0.2376	16.774	223.9	0.594076780	0.731645477	0.011956968	0.123357831	0.038020081
2019-07-25T13:00:00	0.2373	16.792	224.0	0.592875608	0.729892093	0.011912229	0.122896267	0.037877823
2019-07-25T13:05:00	0.2351	16.812	224.1	0.585648509	0.719367880	0.011644863	0.120137904	0.037027669
2019-07-25T13:10:00	0.2353	16.863	224.3	0.586454799	0.720539856	0.011674537	0.120444050	0.037122026
2019-07-25T13:15:00	0.2334	16.857	224.4	0.579885726	0.711007171	0.011433896	0.117961396	0.036356848
2019-07-25T13:20:00	0.2367	16.869	224.5	0.591078804	0.727271494	0.011845465	0.122207484	0.037665533
2019-07-25T13:25:00	0.2349	16.887	224.6	0.584853497	0.718212827	0.011615641	0.119836430	0.036934752
2019-07-25T13:30:00	0.2343	16.905	224.7	0.582978655	0.715490996	0.011546878	0.119127013	0.036716102
2019-07-25T13:35:00	0.2336	16.926	224.9	0.580767326	0.712284418	0.011466042	0.118293043	0.036459065
2019-07-25T13:40:00	0.2332	16.950	225.0	0.579225968	0.710051746	0.011409869	0.117713515	0.036280449
2019-07-25T13:45:00	0.2306	16.974	225.2	0.570625073	0.697629425	0.011099004	0.114506376	0.035291977
2019-07-25T13:50:00	0.2320	16.995	225.4	0.575133239	0.704132951	0.011261398	0.116181762	0.035808347
2019-07-25T13:55:00	0.2342	17.011	225.5	0.582654817	0.715021154	0.011535022	0.119004695	0.036678403
2019-07-25T14:00:00	0.2322	17.028	225.6	0.576078628	0.705498914	0.011295605	0.116534675	0.035917119
2019-07-25T14:05:00	0.2319	17.044	225.7	0.574871292	0.703754604	0.011251929	0.116084074	0.035778239
2019-07-25T14:10:00	0.2292	17.066	225.9	0.565922770	0.690863742	0.010930897	0.112772054	0.034757442
2019-07-25T14:15:00	0.2314	17.082	226.1	0.573127906	0.701237960	0.011189013	0.115434980	0.035578182
2019-07-25T14:20:00	0.2305	17.098	226.2	0.570237395	0.697070941	0.011085095	0.114362881	0.035247751
2019-07-25T14:25:00	0.2318	17.114	226.3	0.574409964	0.703088413	0.011235263	0.115912133	0.035725245
2019-07-25T14:30:00	0.2293	17.124	226.4	0.566134140	0.691167470	0.010938426	0.112849723	0.034781381
2019-07-25T14:35:00	0.2276	17.134	226.5	0.560539297	0.683140401	0.010740042	0.110803036	0.034150572
2019-07-25T14:40:00	0.2291	17.143	226.6	0.565397475	0.690109082	0.010912199	0.112579150	0.034697987
2019-07-25T14:45:00	0.2291	17.154	212.1	0.565534569	0.690306015	0.010917078	0.112629479	0.034713499
2019-07-25T14:50:00	0.2298	17.168	226.8	0.567692787	0.693408302	0.010994022	0.113423297	0.034958162
2019-07-25T14:55:00	0.2282	17.183	226.8	0.562437724	0.685861231	0.010807150	0.111495377	0.034363958
2019-07-25T15:00:00	0.2262	17.198	227.0	0.555823374	0.676394373	0.010574256	0.109092653	0.033623415
2019-07-25T15:05:00	0.2286	17.210	227.1	0.563723707	0.687705993	0.010852730	0.111965611	0.034508889
2019-07-25T15:10:00	0.2270	17.219	227.2	0.558462659	0.680167559	0.010666878	0.110048211	0.033917927
2019-07-25T15:15:00	0.2272	17.225	227.2	0.558937645	0.680847220	0.010683590	0.110220630	0.033971069
2019-07-25T15:20:00	0.2276	17.230	227.3	0.560425092	0.682976817	0.010736012	0.110761456	0.034137756
2019-07-25T15:25:00	0.2275	17.240	227.4	0.560224920	0.682690121	0.010728950	0.110688596	0.034115300
2019-07-25T15:30:00	0.2270	17.243	227.5	0.558336836	0.679987550	0.010662453	0.110002560	0.033903857
2019-07-25T15:35:00	0.2289	17.249	227.6	0.564883630	0.689371089	0.010893925	0.112390612	0.034639878
2019-07-25T15:40:00	0.2279	17.251	227.6	0.561311608	0.684246921	0.010767317	0.111084427	0.034237299
2019-07-25T15:45:00	0.2272	17.252	227.7	0.559086541	0.681060313	0.010688832	0.110274707	0.033987736
2019-07-25T15:50:00	0.2270	17.253	227.7	0.558548667	0.680290614	0.010669903	0.110079421	0.033927547
2019-07-25T15:55:00	0.2268	17.251	227.7	0.557673000	0.679038042	0.010639123	0.109761870	0.033829674
2019-07-25T16:00:00	0.2262	17.251	227.7	0.555783532	0.676337458	0.010572861	0.109078260	0.033618979
2019-07-25T16:05:00	0.2266	17.248	227.8	0.557182729	0.678337024	0.010621909	0.109584282	0.033774940
2019-07-25T16:10:00	0.2275	17.240	227.7	0.559931654	0.682270153	0.010718607	0.110581896	0.034082414
2019-07-25T16:15:00	0.2266	17.231	227.7	0.556940590	0.677990873	0.010613413	0.109496627	0.033747924
2019-07-25T16:20:00	0.2246	17.221	227.8	0.550226000	0.668411177	0.010379181	0.107080097	0.033003126
2019-07-25T16:25:00	0.2260	17.212	227.5	0.555008922	0.675231170	0.010545757	0.108798633	0.033532795
2019-07-25T16:30:00	0.2261	17.199	227.7	0.555394737	0.675782124	0.010559253	0.108937863	0.033575707
2019-07-25T16:35:00	0.2254	17.187	227.7	0.553076181	0.672473003	0.010478283	0.108102516	0.033318245
2019-07-25T16:40:00	0.2252	17.175	227.7	0.552447658	0.671576714	0.010456388	0.107876629	0.033248625
2019-07-25T16:45:00	0.2238	17.159	227.7	0.547418403	0.664416556	0.010282026	0.106077763	0.032694197
2019-07-25T16:50:00	0.2256	17.146	227.6	0.553557955	0.673160242	0.010495082	0.108275825	0.033371661
2019-07-25T16:55:00	0.2243	17.131	227.6	0.549207472	0.666961279	0.010343882	0.106715923	0.032890884
2019-07-25T17:00:00	0.2234	17.115	227.5	0.546207165	0.662695214	0.010240254	0.105646815	0.032561374
2019-07-25T17:05:00	0.2257	17.100	227.5	0.554039661	0.673847577	0.010511892	0.108449250	0.033425112
2019-07-25T17:10:00	0.2242	17.084	227.5	0.549012712	0.666684130	0.010337139	0.106646358	0.032869443
2019-07-25T17:15:00	0.2237	17.065	227.4	0.547367416	0.664344071	0.010280266	0.106059604	0.032688600
2019-07-25T17:20:00	0.2241	17.047	227.3	0.548770004	0.666338793	0.010328739	0.106559699	0.032842734
2019-07-25T17:25:00	0.2246	17.029	227.3	0.550172025	0.668334322	0.010377309	0.107060782	0.032997173
2019-07-25T17:30:00	0.2231	17.009	227.2	0.545139470	0.661178863	0.010203504	0.105267674	0.032444519
2019-07-25T17:35:00	0.2250	16.993	227.2	0.551621380	0.670398915	0.010427639	0.107580033	0.033157211
2019-07-25T17:40:00	0.2246	16.976	227.1	0.550315777	0.668539017	0.010382295	0.107112226	0.033013028
2019-07-25T17:45:00	0.2251	16.955	227.1	0.552055463	0.671017599	0.010442737	0.107735797	0.033205219
2019-07-25T17:50:00	0.2234	16.936	226.9	0.546348049	0.662895368	0.010245108	0.105696895	0.032576809
2019-07-25T17:55:00	0.2246	16.914	226.9	0.550459522	0.668743722	0.010387283	0.107163681	0.033028887
2019-07-25T18:00:00	0.2256	16.891	226.8	0.553551904	0.673151610	0.010494871	0.108273647	0.033370990
2019-07-25T18:05:00	0.2255	16.868	226.8	0.553261637	0.672737529	0.010484748	0.108169214	0.033338802
2019-07-25T18:10:00	0.2259	16.847	226.7	0.554661848	0.674735642	0.010533624	0.108673460	0.033494216
2019-07-25T18:15:00	0.2266	16.825	226.5	0.557074995	0.678183006	0.010618129	0.109545277	0.033762918
2019-07-25T18:20:00	0.2279	16.801	226.5	0.561511183	0.684532940	0.010774371	0.111157201	0.034259729
2019-07-25T18:25:00	0.2257	16.778	226.4	0.554129339	0.673975558	0.010515023	0.108481552	0.033435068
2019-07-25T18:30:00	0.2264	16.753	226.3	0.556542856	0.677422393	0.010599465	0.109352723	0.033703571
2019-07-25T18:35:00	0.2261	16.729	226.2	0.555239100	0.675559854	0.010553808	0.108881687	0.033558393
2019-07-25T18:40:00	0.2272	16.706	226.1	0.559002496	0.680940030	0.010685873	0.110244181	0.033978327
2019-07-25T18:45:00	0.2274	16.681	226.0	0.559725412	0.681974849	0.010711337	0.110506889	0.034059296
2019-07-25T18:50:00	0.2269	16.657	225.9	0.558085178	0.679627551	0.010653605	0.109911284	0.033875725
2019-07-25T18:55:00	0.2292	16.630	225.8	0.565891019	0.690818122	0.010929767	0.112760390	0.034753847
2019-07-25T19:00:00	0.2284	16.606	225.7	0.563242268	0.687015203	0.010835654	0.111789450	0.034454594
2019-07-25T19:05:00	0.2295	16.579	225.5	0.566997042	0.692407797	0.010969187	0.113167084	0.034879194
2019-07-25T19:10:00	0.2285	16.553	225.4	0.563337744	0.687152180	0.010839040	0.111824374	0.034465358
2019-07-25T19:15:00	0.2295	16.527	225.3	0.566755584	0.692060666	0.010960575	0.113078234	0.034851810
2019-07-25T19:20:00	0.2304	16.497	225.2	0.569833549	0.696489299	0.011070615	0.114213499	0.035201710
2019-07-25T19:25:00	0.2318	16.472	225.1	0.574589683	0.703347920	0.011241754	0.115979100	0.035745885
2019-07-25T19:30:00	0.2321	16.444	224.9	0.575645391	0.704872852	0.011279922	0.116372880	0.035867252
2019-07-25T19:35:00	0.2338	16.417	224.8	0.581400123	0.713201602	0.011489145	0.118531387	0.036532525
2019-07-25T19:40:00	0.2318	16.390	224.6	0.574732432	0.703554061	0.011246911	0.116032306	0.035762284
2019-07-25T19:45:00	0.2309	16.363	224.6	0.571417638	0.698771568	0.011127467	0.114800021	0.035382481
2019-07-25T19:50:00	0.2320	16.336	224.4	0.575163650	0.704176879	0.011262497	0.116193106	0.035811844
2019-07-25T19:55:00	0.2311	16.310	224.3	0.572185606	0.699878762	0.011155081	0.115084918	0.035470289
2019-07-25T20:00:00	0.2333	16.283	224.2	0.579624476	0.710628799	0.011424379	0.117863209	0.036326586
2019-07-25T20:05:00	0.2316	16.257	224.0	0.573962014	0.702441713	0.011219092	0.115745302	0.035673826
2019-07-25T20:10:00	0.2331	16.229	223.9	0.579048235	0.709794425	0.011403401	0.117646783	0.036259881
2019-07-25T20:15:00	0.2328	16.202	223.8	0.578088625	0.708405557	0.011368510	0.117286823	0.036148938
2019-07-25T20:20:00	0.2327	16.175	223.6	0.577464588	0.707502782	0.011345850	0.117053041	0.036076884
2019-07-25T20:25:00	0.2347	16.148	223.5	0.584222004	0.717295721	0.011592457	0.119597241	0.036861031
2019-07-25T20:30:00	0.2324	16.121	223.4	0.576552102	0.706183300	0.011312757	0.116711628	0.035971657
2019-07-25T20:35:00	0.2325	16.093	223.2	0.576935544	0.706737685	0.011326657	0.116855034	0.036015856
2019-07-25T20:40:00	0.2332	16.065	223.1	0.579333364	0.710207246	0.011413778	0.117753847	0.036292879
2019-07-25T20:45:00	0.2337	16.039	223.0	0.581058661	0.712706641	0.011476675	0.118402745	0.036492876
2019-07-25T20:50:00	0.2309	16.012	222.8	0.571700379	0.699179144	0.011137629	0.114904869	0.035414796
2019-07-25T20:55:00	0.2329	15.985	222.7	0.578133157	0.708469993	0.011370128	0.117303515	0.036154082
2019-07-25T21:00:00	0.2319	15.957	222.6	0.574821580	0.703682808	0.011250132	0.116065540	0.035772527
2019-07-25T21:05:00	0.2318	15.931	222.4	0.574533077	0.703266180	0.011239709	0.115958005	0.035739383
2019-07-25T21:10:00	0.2325	15.905	222.4	0.576932539	0.706733340	0.011326548	0.116853910	0.036015510
2019-07-25T21:15:00	0.2333	15.875	222.2	0.579665985	0.710688914	0.011425891	0.117878807	0.036331393
2019-07-25T21:20:00	0.2291	15.848	207.8	0.565589719	0.690385240	0.010919040	0.112649728	0.034719740
2019-07-25T21:25:00	0.2307	15.819	221.9	0.571024560	0.698205049	0.011113346	0.114654338	0.035337580
2019-07-25T21:30:00	0.2306	15.794	221.8	0.570399263	0.697304111	0.011090901	0.114422783	0.035266213
2019-07-25T21:35:00	0.2328	15.766	207.4	0.577841921	0.708048621	0.011359549	0.117194372	0.036120444
2019-07-25T21:40:00	0.2312	15.738	207.3	0.572512888	0.700350758	0.011166860	0.115206441	0.035507744
2019-07-25T21:45:00	0.2297	15.713	221.5	0.567512522	0.693149037	0.010987585	0.113356885	0.034937693
2019-07-25T21:50:00	0.2311	15.687	207.1	0.572271810	0.700003074	0.011158183	0.115116920	0.035480153
2019-07-25T21:55:00	0.2325	15.660	207.0	0.577024637	0.706866514	0.011329888	0.116888367	0.036026130
2019-07-25T22:00:00	0.2302	15.634	221.0	0.569338960	0.695777147	0.011052896	0.114030687	0.035145365
2019-07-25T22:05:00	0.2306	15.607	220.9	0.570440882	0.697364066	0.011092394	0.114438188	0.035270961
2019-07-25T22:10:00	0.2293	15.583	220.8	0.566156120	0.691199056	0.010939209	0.112857801	0.034783870
2019-07-25T22:15:00	0.2298	15.557	220.6	0.567932579	0.693753223	0.011002588	0.113511670	0.034985399
2019-07-25T22:20:00	0.2296	15.532	206.4	0.567014591	0.692433028	0.010969813	0.113173543	0.034881185
2019-07-25T22:25:00	0.2306	15.507	220.4	0.570473468	0.697411009	0.011093564	0.114450250	0.035274678
2019-07-25T22:30:00	0.2296	15.481	220.3	0.567199307	0.692698619	0.010976404	0.113241539	0.034902142
2019-07-25T22:35:00	0.2308	15.456	220.1	0.571330880	0.698646518	0.011124349	0.114767858	0.035372568
2019-07-25T22:40:00	0.2308	15.431	219.9	0.571086710	0.698294614	0.011115578	0.114677365	0.035344678
2019-07-25T22:45:00	0.2317	15.407	219.9	0.574205451	0.702793139	0.011227878	0.115835950	0.035701765
2019-07-25T22:50:00	0.2310	15.382	219.8	0.571943972	0.699530341	0.011146389	0.114995239	0.035442649
2019-07-25T22:55:00	0.2292	15.357	205.5	0.565976844	0.690941441	0.010932823	0.112791922	0.034763566
2019-07-25T23:00:00	0.2303	15.332	219.5	0.569436747	0.695917934	0.011056398	0.114066820	0.035156502
2019-07-25T23:05:00	0.2280	15.307	219.4	0.561779100	0.684916954	0.010783844	0.111254934	0.034289851
2019-07-25T23:10:00	0.2314	15.282	219.3	0.573321667	0.701517536	0.011195996	0.115507029	0.035600388
2019-07-25T23:15:00	0.2314	15.258	219.2	0.573077636	0.701165430	0.011187201	0.115416291	0.035572422
2019-07-25T23:20:00	0.2301	15.234	219.0	0.568796105	0.694995730	0.011033463	0.113830207	0.035083575
2019-07-25T23:25:00	0.2304	15.211	218.9	0.569898198	0.696582401	0.011072933	0.114237406	0.035209078
2019-07-25T23:30:00	0.2305	15.189	218.8	0.570327001	0.697200015	0.011088309	0.114396039	0.035257970
2019-07-25T23:35:00	0.2309	15.166	218.7	0.571428611	0.698787385	0.011127861	0.114804089	0.035383735
2019-07-25T23:40:00	0.2288	15.143	218.6	0.564449539	0.688747812	0.010878498	0.112231463	0.034590827
2019-07-25T23:45:00	0.2288	15.121	218.4	0.564541966	0.688880507	0.010881782	0.112265340	0.034601268
2019-07-25T23:50:00	0.2311	15.099	218.3	0.572378010	0.700156230	0.011162005	0.115156351	0.035492306
2019-07-25T23:55:00	0.2287	15.075	218.3	0.564052660	0.688178100	0.010864404	0.112086058	0.034546012
2019-07-26T00:00:00	0.2279	15.052	218.1	0.561447258	0.684441322	0.010772111	0.111133889	0.034252544
2019-07-26T00:05:00	0.2284	15.028	218.0	0.563226114	0.686992026	0.010835082	0.111783541	0.034452773
2019-07-26T00:10:00	0.2282	15.005	217.9	0.562306888	0.685673621	0.010802519	0.111447592	0.034349230
2019-07-26T00:15:00	0.2303	14.982	217.8	0.569474832	0.695972767	0.011057762	0.114080894	0.035160839
2019-07-26T00:20:00	0.2277	14.960	217.6	0.560805148	0.683521241	0.010749427	0.110899858	0.034180413
2019-07-26T00:25:00	0.2267	14.935	217.5	0.557521902	0.678821972	0.010633816	0.109707123	0.033812801
2019-07-26T00:30:00	0.2293	14.912	217.4	0.566047594	0.691043103	0.010935343	0.112817918	0.034771578
2019-07-26T00:35:00	0.2278	14.887	203.3	0.561082711	0.683918920	0.010759230	0.111000991	0.034211583
2019-07-26T00:40:00	0.2279	14.861	203.2	0.561512597	0.684534966	0.010774421	0.111157717	0.034259888
2019-07-26T00:45:00	0.2280	14.837	217.0	0.561942431	0.685151089	0.010789622	0.111314536	0.034308221
2019-07-26T00:50:00	0.2267	14.814	202.9	0.557309473	0.678518231	0.010626358	0.109630177	0.033789085
2019-07-26T00:55:00	0.2269	14.794	216.9	0.558077528	0.679616609	0.010653337	0.109908510	0.033874870
2019-07-26T01:00:00	0.2264	14.774	202.8	0.556481326	0.677334461	0.010597308	0.109330470	0.033696713
2019-07-26T01:05:00	0.2256	14.753	216.6	0.553532142	0.673123417	0.010494181	0.108266536	0.033368798
2019-07-26T01:10:00	0.2256	14.732	202.6	0.553624859	0.673255695	0.010497416	0.108299904	0.033379082
2019-07-26T01:15:00	0.2265	14.714	216.4	0.556759234	0.677731645	0.010607052	0.109430998	0.033727697
2019-07-26T01:20:00	0.2241	14.692	216.4	0.548735067	0.666289087	0.010327530	0.106547228	0.032838890
2019-07-26T01:25:00	0.2265	14.670	216.2	0.556606680	0.677513608	0.010601702	0.109375809	0.033710686
2019-07-26T01:30:00	0.2252	14.652	216.1	0.552304876	0.671373149	0.010451417	0.107825347	0.033232819
2019-07-26T01:35:00	0.2263	14.630	216.0	0.556116259	0.676812805	0.010584514	0.109198484	0.033656033
2019-07-26T01:40:00	0.2247	14.610	215.9	0.550798814	0.669226966	0.010399060	0.107285182	0.033066335
2019-07-26T01:45:00	0.2246	14.592	201.9	0.550214768	0.668395184	0.010378791	0.107076077	0.033001887
2019-07-26T01:50:00	0.2262	14.573	215.7	0.555718430	0.676244461	0.010570582	0.109054745	0.033611731
2019-07-26T01:55:00	0.2256	14.551	215.6	0.553783058	0.673481413	0.010502936	0.108356850	0.033396633
2019-07-26T02:00:00	0.2260	14.531	215.5	0.554889904	0.675061233	0.010541596	0.108755700	0.033519563
2019-07-26T02:05:00	0.2265	14.514	215.4	0.556672110	0.677607121	0.010603997	0.109399478	0.033717982
2019-07-26T02:10:00	0.2255	14.493	215.2	0.553384962	0.672913450	0.010489048	0.108213578	0.033352476
2019-07-26T02:15:00	0.2266	14.478	215.3	0.557195163	0.678354800	0.010622346	0.109588784	0.033776327
2019-07-26T02:20:00	0.2262	14.460	215.2	0.555598556	0.676073232	0.010566386	0.109011452	0.033598388
2019-07-26T02:25:00	0.2263	14.442	215.1	0.556029119	0.676688305	0.010581462	0.109166991	0.033646327
2019-07-26T02:30:00	0.2247	14.425	214.9	0.550711541	0.669102656	0.010396030	0.107253923	0.033056701
2019-07-26T02:35:00	0.2246	14.407	214.8	0.550127480	0.668270895	0.010375764	0.107044844	0.032992260
2019-07-26T02:40:00	0.2256	14.392	214.7	0.553603145	0.673224715	0.010496658	0.108292088	0.033376673
2019-07-26T02:45:00	0.2259	14.374	214.6	0.554710048	0.674804453	0.010535309	0.108690839	0.033499572
2019-07-26T02:50:00	0.2247	14.356	214.6	0.550744312	0.669149334	0.010397167	0.107265660	0.033060318
2019-07-26T02:55:00	0.2249	14.339	200.7	0.551175477	0.669763547	0.010412142	0.107420147	0.033107933
2019-07-26T03:00:00	0.2223	14.323	200.6	0.542460033	0.657377609	0.010111573	0.104319233	0.032152201
2019-07-26T03:05:00	0.2238	14.304	200.5	0.547637306	0.664727777	0.010289584	0.106155742	0.032718231
2019-07-26T03:10:00	0.2240	14.287	214.1	0.548407501	0.665823097	0.010316200	0.106430334	0.032802863
2019-07-26T03:15:00	0.2239	14.270	214.0	0.547823052	0.664991888	0.010296000	0.106221932	0.032738631
2019-07-26T03:20:00	0.2257	14.253	200.2	0.554006730	0.673800582	0.010510742	0.108437390	0.033421457
2019-07-26T03:25:00	0.2256	14.237	200.2	0.553761345	0.673450431	0.010502178	0.108349033	0.033394224
2019-07-26T03:30:00	0.2240	14.222	200.1	0.548101653	0.665388082	0.010305627	0.106321249	0.032769242
2019-07-26T03:35:00	0.2247	14.205	200.0	0.550564242	0.668892861	0.010390917	0.107201174	0.033040443
2019-07-26T03:40:00	0.2239	14.190	213.7	0.547948719	0.665170589	0.010300342	0.106266724	0.032752437
2019-07-26T03:45:00	0.2245	14.176	213.7	0.550072968	0.668193278	0.010373873	0.107025340	0.032986249
2019-07-26T03:50:00	0.2249	14.162	199.8	0.551180996	0.669771410	0.010412333	0.107422125	0.033108542
2019-07-26T03:55:00	0.2250	14.149	213.4	0.551612107	0.670385700	0.010427317	0.107576707	0.033156186
2019-07-26T04:00:00	0.2256	14.136	213.4	0.553734117	0.673411582	0.010501228	0.108339231	0.033391203
2019-07-26T04:05:00	0.2250	14.123	213.2	0.551599998	0.670368445	0.010426896	0.107572364	0.033154847
2019-07-26T04:10:00	0.2257	14.111	213.1	0.553862595	0.673594904	0.010505711	0.108385486	0.033405459
2019-07-26T04:15:00	0.2241	14.100	213.2	0.548682488	0.666214284	0.010325711	0.106528461	0.032833106
2019-07-26T04:20:00	0.2260	14.086	213.1	0.555005171	0.675225813	0.010545626	0.108797279	0.033532378
2019-07-26T04:25:00	0.2256	14.079	213.1	0.553548151	0.673146255	0.010494740	0.108272297	0.033370573
2019-07-26T04:30:00	0.2266	14.069	199.3	0.557160846	0.678305739	0.010621141	0.109576358	0.033772498
2019-07-26T04:35:00	0.2270	14.063	212.9	0.558407014	0.680087949	0.010664921	0.110028021	0.033911705
2019-07-26T04:40:00	0.2274	14.054	212.8	0.559652737	0.681870799	0.010708776	0.110480465	0.034051152
2019-07-26T04:45:00	0.2261	14.044	212.9	0.555495213	0.675925625	0.010562769	0.108974137	0.033586887
2019-07-26T04:50:00	0.2264	14.039	212.8	0.556404145	0.677224165	0.010594602	0.109302559	0.033688110
2019-07-26T04:55:00	0.2276	14.033	212.8	0.560351362	0.682871214	0.010733410	0.110734616	0.034129484
2019-07-26T05:00:00	0.2281	14.029	212.8	0.562271017	0.685622187	0.010801249	0.111434493	0.034345193
2019-07-26T05:05:00	0.2280	14.024	212.8	0.561829151	0.684988699	0.010785615	0.111273197	0.034295480
2019-07-26T05:10:00	0.2256	14.019	212.8	0.553619153	0.673247554	0.010497217	0.108297850	0.033378449
2019-07-26T05:15:00	0.2278	14.016	212.7	0.560945251	0.683721965	0.010754375	0.110950900	0.034196145
2019-07-26T05:20:00	0.2290	14.014	212.7	0.565224344	0.689860404	0.010906040	0.112515608	0.034678403
2019-07-26T05:25:00	0.2273	14.012	212.7	0.559386072	0.681489046	0.010699380	0.110383533	0.034021277
2019-07-26T05:30:00	0.2276	14.011	212.6	0.560293989	0.682789042	0.010731386	0.110713734	0.034123048
2019-07-26T05:35:00	0.2289	14.012	212.6	0.564910923	0.689410283	0.010894895	0.112400623	0.034642964
2019-07-26T05:40:00	0.2275	14.013	212.6	0.560084750	0.682489384	0.010724006	0.110637591	0.034099580
2019-07-26T05:45:00	0.2281	14.016	198.8	0.562004552	0.685240146	0.010791819	0.111337210	0.034315209
2019-07-26T05:50:00	0.2272	14.019	212.7	0.559200407	0.681223287	0.010692841	0.110316070	0.034000484
2019-07-26T05:55:00	0.2271	14.023	212.7	0.558758152	0.680590359	0.010677273	0.110155458	0.033950982
2019-07-26T06:00:00	0.2264	14.028	212.7	0.556289269	0.677060011	0.010590576	0.109261023	0.033675309
2019-07-26T06:05:00	0.2297	14.034	212.7	0.567653233	0.693351412	0.010992609	0.113408723	0.034953670
2019-07-26T06:10:00	0.2282	14.043	199.1	0.562493610	0.685941372	0.010809129	0.111515792	0.034370250
2019-07-26T06:15:00	0.2283	14.052	212.8	0.562726310	0.686275094	0.010817370	0.111600814	0.034396455
2019-07-26T06:20:00	0.2282	14.062	212.8	0.562621765	0.686125157	0.010813667	0.111562612	0.034384681
2019-07-26T06:25:00	0.2291	14.074	199.3	0.565551210	0.690329919	0.010917670	0.112635588	0.034715382
2019-07-26T06:30:00	0.2300	14.085	199.3	0.568478199	0.694538232	0.011022091	0.113712885	0.035047416
2019-07-26T06:35:00	0.2294	14.098	213.0	0.566353091	0.691482130	0.010946227	0.112930207	0.034806186
2019-07-26T06:40:00	0.2293	14.112	213.1	0.566248654	0.691332036	0.010942506	0.112891814	0.034794353
2019-07-26T06:45:00	0.2290	14.128	199.5	0.565133348	0.689729711	0.010902804	0.112482218	0.034668112
2019-07-26T06:50:00	0.2298	14.144	213.3	0.567723949	0.693453123	0.010995135	0.113434779	0.034961701
2019-07-26T06:55:00	0.2310	14.161	213.3	0.571994754	0.699603561	0.011148215	0.115014083	0.035448457
2019-07-26T07:00:00	0.2321	14.179	213.4	0.575588421	0.704790538	0.011277861	0.116351613	0.035860697
2019-07-26T07:05:00	0.2303	14.202	213.6	0.569430876	0.695909481	0.011056188	0.114064650	0.035155833
2019-07-26T07:10:00	0.2300	14.225	199.9	0.568653266	0.694790161	0.011028353	0.113777485	0.035067326
2019-07-26T07:15:00	0.2297	14.249	213.7	0.567538727	0.693186724	0.010988520	0.113366538	0.034940668
2019-07-26T07:20:00	0.2313	14.316	214.0	0.572818696	0.700791867	0.011177872	0.115320050	0.035542759
2019-07-26T07:25:00	0.2298	14.359	214.3	0.568003441	0.693855163	0.011005120	0.113537793	0.034993450
2019-07-26T07:30:00	0.2306	14.398	200.7	0.570591917	0.697581656	0.011097814	0.114494100	0.035288194
2019-07-26T07:35:00	0.2298	14.417	200.8	0.567794663	0.693554837	0.010997661	0.113460838	0.034969732
2019-07-26T07:40:00	0.2317	14.504	215.0	0.574082821	0.702616104	0.011223452	0.115790282	0.035687690
2019-07-26T07:45:00	0.2313	14.557	215.3	0.572970010	0.701010156	0.011183323	0.115376285	0.035560091
2019-07-26T07:50:00	0.2308	14.570	215.4	0.571184068	0.698434922	0.011119075	0.114713443	0.035355797
2019-07-26T07:55:00	0.2300	14.588	215.5	0.568387287	0.694407416	0.011018840	0.113679346	0.035037078
2019-07-26T08:00:00	0.2315	14.629	215.7	0.573665977	0.702014417	0.011208412	0.115635116	0.035639866
2019-07-26T08:05:00	0.2297	14.644	215.8	0.567505046	0.693138285	0.010987318	0.113354131	0.034936844
2019-07-26T08:10:00	0.2299	14.687	202.1	0.568074150	0.693956885	0.011007647	0.113563862	0.035001485
2019-07-26T08:15:00	0.2294	14.738	216.3	0.566622582	0.691869476	0.010955833	0.113029308	0.034836730
2019-07-26T08:20:00	0.2312	14.766	216.4	0.572576573	0.700442614	0.011169153	0.115230096	0.035515035
2019-07-26T08:25:00	0.2295	14.819	216.6	0.566750586	0.692053481	0.010960397	0.113076395	0.034851243
2019-07-26T08:30:00	0.2289	14.847	216.8	0.564961464	0.689482861	0.010896692	0.112419160	0.034648677
2019-07-26T08:35:00	0.2305	14.865	202.9	0.570245322	0.697082360	0.011085379	0.114365814	0.035248655
2019-07-26T08:40:00	0.2320	14.894	217.1	0.575185192	0.704207998	0.011263276	0.116201142	0.035814321
2019-07-26T08:45:00	0.2309	14.930	217.2	0.571718933	0.699205892	0.011138296	0.114911751	0.035416918
2019-07-26T08:50:00	0.2314	14.986	217.5	0.573296152	0.701480720	0.011195076	0.115497540	0.035597464
2019-07-26T08:55:00	0.2307	15.037	217.7	0.570837531	0.697935541	0.011106630	0.114585054	0.035316226
2019-07-26T09:00:00	0.2318	15.078	218.0	0.574432386	0.703120789	0.011236072	0.115920487	0.035727820
2019-07-26T09:05:00	0.2323	15.172	218.4	0.576344327	0.705882948	0.011305229	0.116633959	0.035947719
2019-07-26T09:10:00	0.2331	15.233	218.7	0.578926649	0.709618408	0.011398977	0.117601144	0.036245815
2019-07-26T09:15:00	0.2309	15.360	219.2	0.571429640	0.698788868	0.011127898	0.114804470	0.035383853
2019-07-26T09:20:00	0.2329	15.354	219.3	0.578382806	0.708831252	0.011379200	0.117397113	0.036182930
2019-07-26T09:25:00	0.2322	15.368	219.3	0.575927753	0.705280869	0.011290142	0.116478317	0.035899749
2019-07-26T09:30:00	0.2323	15.395	219.4	0.576159561	0.705615886	0.011298536	0.116564913	0.035926438
2019-07-26T09:35:00	0.2317	15.438	219.7	0.574375244	0.703038284	0.011234009	0.115899198	0.035721258
2019-07-26T09:40:00	0.2342	15.452	219.8	0.582664122	0.715034653	0.011535363	0.119008209	0.036679486
2019-07-26T09:45:00	0.2334	15.499	220.1	0.579876490	0.710993792	0.011433559	0.117957924	0.036355778
2019-07-26T09:50:00	0.2342	15.554	220.3	0.582791541	0.715219511	0.011540027	0.119056330	0.036694317
2019-07-26T09:55:00	0.2344	15.606	220.5	0.583358169	0.716041725	0.011560781	0.119270443	0.036760309
2019-07-26T10:00:00	0.2341	15.658	206.6	0.582248296	0.714431477	0.011520148	0.118851238	0.036631106
2019-07-26T10:05:00	0.2346	15.712	221.1	0.584055078	0.717053353	0.011586332	0.119534055	0.036841557
2019-07-26T10:10:00	0.2327	15.762	221.3	0.577475504	0.707518572	0.011346246	0.117057129	0.036078144
2019-07-26T10:15:00	0.2337	15.810	221.5	0.580962565	0.712567364	0.011473168	0.118366554	0.036481722
2019-07-26T10:20:00	0.2324	15.863	221.8	0.576729200	0.706439336	0.011319176	0.116777851	0.035992068
2019-07-26T10:25:00	0.2351	15.909	222.1	0.585581797	0.719270936	0.011642409	0.120112591	0.037019867
2019-07-26T10:30:00	0.2342	15.960	222.3	0.582695531	0.715080220	0.011536512	0.119020070	0.036683142
2019-07-26T10:35:00	0.2334	16.017	222.6	0.579806893	0.710892990	0.011431024	0.117931764	0.036347715
2019-07-26T10:40:00	0.2355	16.072	222.9	0.586977593	0.721300049	0.011693799	0.120642767	0.037183272
2019-07-26T10:45:00	0.2340	16.115	223.2	0.582080783	0.714188530	0.011514021	0.118788033	0.036611625
2019-07-26T10:50:00	0.2368	16.156	223.4	0.591254453	0.727527555	0.011851984	0.122274729	0.037686259
2019-07-26T10:55:00	0.2372	16.199	223.6	0.592722271	0.729668348	0.011906524	0.122837410	0.037859683
2019-07-26T11:00:00	0.2374	16.235	223.7	0.593186656	0.730346022	0.011923806	0.123015706	0.037914635
2019-07-26T11:05:00	0.2359	16.270	223.9	0.588298478	0.723221755	0.011742537	0.121145590	0.037338247
2019-07-26T11:10:00	0.2363	16.303	224.0	0.589767527	0.725360725	0.011796864	0.121706074	0.037510994
2019-07-26T11:15:00	0.2365	16.340	224.2	0.590232301	0.726037822	0.011814079	0.121883675	0.037565732
2019-07-26T11:20:00	0.2373	16.383	224.3	0.593038141	0.730129276	0.011918277	0.122958670	0.037897056
2019-07-26T11:25:00	0.2379	16.402	224.5	0.595173547	0.733247510	0.011997893	0.123780051	0.038150214
2019-07-26T11:30:00	0.2383	16.415	224.6	0.596305725	0.734902322	0.012040215	0.124216680	0.038284787
2019-07-26T11:35:00	0.2377	16.423	224.6	0.594430988	0.732162754	0.011970177	0.123494108	0.038062084
2019-07-26T11:40:00	0.2360	16.441	224.6	0.588540392	0.723573864	0.011751474	0.121237796	0.037366666
2019-07-26T11:45:00	0.2359	16.463	224.7	0.588335828	0.723276115	0.011743917	0.121159824	0.037342634
2019-07-26T11:50:00	0.2363	16.479	224.9	0.589804862	0.725415108	0.011798247	0.121720335	0.037515390
2019-07-26T11:55:00	0.2360	16.496	224.9	0.588596242	0.723655161	0.011753538	0.121259089	0.037373229
2019-07-26T12:00:00	0.2345	16.515	225.0	0.583701686	0.716540321	0.011573372	0.119400344	0.036800346
2019-07-26T12:05:00	0.2349	16.529	225.0	0.584837555	0.718189671	0.011615056	0.119830389	0.036932890
2019-07-26T12:10:00	0.2331	16.556	225.2	0.578930869	0.709624517	0.011399130	0.117602728	0.036246303
2019-07-26T12:15:00	0.2326	16.583	225.4	0.577382695	0.707384335	0.011342878	0.117022380	0.036067434
2019-07-26T12:20:00	0.2327	16.611	225.5	0.577513311	0.707573258	0.011347618	0.117071286	0.036082507
2019-07-26T12:25:00	0.2336	16.634	225.6	0.580664838	0.712135902	0.011462303	0.118254464	0.036447174
2019-07-26T12:30:00	0.2357	16.649	225.6	0.587498945	0.722058370	0.011713023	0.120841103	0.037244401
2019-07-26T12:35:00	0.2337	16.674	225.8	0.580925821	0.712514111	0.011471826	0.118352718	0.036477457
2019-07-26T12:40:00	0.2341	16.690	225.9	0.582397951	0.714648542	0.011525622	0.118907719	0.036648514
2019-07-26T12:45:00	0.2326	16.712	226.0	0.577158918	0.707060697	0.011334759	0.116938616	0.036041617
2019-07-26T12:50:00	0.2329	16.729	226.1	0.578296904	0.708706940	0.011376078	0.117364903	0.036173003
2019-07-26T12:55:00	0.2309	16.745	226.2	0.571706513	0.699187987	0.011137850	0.114907144	0.035415498
2019-07-26T13:00:00	0.2322	16.752	226.2	0.575871320	0.705199318	0.011288099	0.116457241	0.035893253
2019-07-26T13:05:00	0.2318	16.761	226.3	0.574657899	0.703446427	0.011244218	0.116004524	0.035753721
2019-07-26T13:10:00	0.2313	16.794	226.4	0.572771583	0.700723904	0.011176176	0.115302543	0.035537364
2019-07-26T13:15:00	0.2316	16.790	226.4	0.573910995	0.702368067	0.011217251	0.115726309	0.035667972
2019-07-26T13:20:00	0.2318	16.795	226.5	0.574713970	0.703527400	0.011246244	0.116025424	0.035760163
2019-07-26T13:25:00	0.2322	16.805	226.6	0.575852750	0.705172483	0.011287427	0.116450306	0.035891115
2019-07-26T13:30:00	0.2325	16.807	226.6	0.576991161	0.706818106	0.011328674	0.116875842	0.036022270
2019-07-26T13:35:00	0.2312	16.816	226.7	0.572416710	0.700212044	0.011163398	0.115170722	0.035496735
2019-07-26T13:40:00	0.2316	16.833	226.7	0.573892415	0.702341247	0.011216580	0.115719392	0.035665840
2019-07-26T13:45:00	0.2300	16.844	226.8	0.568640645	0.694771997	0.011027902	0.113772827	0.035065890
2019-07-26T13:50:00	0.2301	16.861	226.9	0.568771587	0.694960444	0.011032586	0.113821156	0.035080786
2019-07-26T13:55:00	0.2306	16.877	227.0	0.570585324	0.697572157	0.011097577	0.114491659	0.035287441
2019-07-26T14:00:00	0.2299	16.886	227.0	0.568023426	0.693883912	0.011005834	0.113545161	0.034995721
2019-07-26T14:05:00	0.2288	16.897	227.1	0.564448585	0.688746442	0.010878465	0.112231114	0.034590719
2019-07-26T14:10:00	0.2280	16.906	227.1	0.561882181	0.685064718	0.010787490	0.111292548	0.034301444
2019-07-26T14:15:00	0.2285	16.915	227.3	0.563362338	0.687187467	0.010839912	0.111833371	0.034468131
2019-07-26T14:20:00	0.2280	16.929	227.3	0.561807259	0.684957317	0.010784840	0.111265208	0.034293018
2019-07-26T14:25:00	0.2291	16.928	227.4	0.565646928	0.690467427	0.010921077	0.112670735	0.034726215
2019-07-26T14:30:00	0.2270	16.933	227.5	0.558357374	0.680016931	0.010663175	0.110010011	0.033906154
2019-07-26T14:35:00	0.2270	16.936	227.5	0.558488702	0.680204820	0.010667794	0.110057661	0.033920840
2019-07-26T14:40:00	0.2273	16.941	227.5	0.559295229	0.681359010	0.010696180	0.110350522	0.034011103
2019-07-26T14:45:00	0.2273	16.954	227.6	0.559426522	0.681546950	0.010700805	0.110398234	0.034025808
2019-07-26T14:50:00	0.2279	16.959	227.7	0.561582482	0.684635129	0.010776892	0.111183206	0.034267744
2019-07-26T14:55:00	0.2293	16.958	227.7	0.566096286	0.691113073	0.010937077	0.112835812	0.034777093
2019-07-26T15:00:00	0.2281	16.967	227.9	0.562182197	0.685494837	0.010798105	0.111402061	0.034335197
2019-07-26T15:05:00	0.2277	16.968	227.8	0.560626591	0.683265446	0.010743123	0.110834823	0.034160369
2019-07-26T15:10:00	0.2290	16.950	227.8	0.565141631	0.689741607	0.010903098	0.112485257	0.034669049
2019-07-26T15:15:00	0.2296	16.957	227.8	0.567294064	0.692834876	0.010979786	0.113276428	0.034912895
2019-07-26T15:20:00	0.2270	16.953	227.8	0.558320047	0.679963531	0.010661862	0.109996470	0.033901980
2019-07-26T15:25:00	0.2255	16.947	227.8	0.553382932	0.672910554	0.010488978	0.108212848	0.033352251
2019-07-26T15:30:00	0.2257	16.946	227.9	0.553852562	0.673580588	0.010505361	0.108381873	0.033404346
2019-07-26T15:35:00	0.2274	16.952	227.9	0.559726750	0.681976765	0.010711384	0.110507376	0.034059446
2019-07-26T15:40:00	0.2243	16.950	227.9	0.549379331	0.667205865	0.010349834	0.106777327	0.032909809
2019-07-26T15:45:00	0.2253	16.946	228.0	0.552556340	0.671731674	0.010460172	0.107915671	0.033260658
2019-07-26T15:50:00	0.2263	16.940	227.9	0.556068346	0.676744349	0.010582836	0.109181167	0.033650696
2019-07-26T15:55:00	0.2241	16.939	227.9	0.548758690	0.666322698	0.010328348	0.106555661	0.032841490
2019-07-26T16:00:00	0.2261	16.939	227.9	0.555317455	0.675671753	0.010556549	0.108909967	0.033567109
2019-07-26T16:05:00	0.2255	16.935	227.9	0.553333986	0.672840732	0.010487271	0.108195239	0.033346823
2019-07-26T16:10:00	0.2227	16.928	227.9	0.543897903	0.659416751	0.010160854	0.104827657	0.032308902
2019-07-26T16:15:00	0.2246	16.920	227.9	0.550379102	0.668629195	0.010384492	0.107134893	0.033020014
2019-07-26T16:20:00	0.2229	16.919	227.9	0.544665895	0.660506586	0.010187225	0.105099727	0.032392756
2019-07-26T16:25:00	0.2239	16.908	227.9	0.547760409	0.664902813	0.010293836	0.106199607	0.032731750
2019-07-26T16:30:00	0.2228	16.898	227.8	0.544077782	0.659671969	0.010167028	0.104891349	0.032328532
2019-07-26T16:35:00	0.2220	16.889	227.9	0.541409322	0.655888594	0.010075638	0.103948496	0.032037936
2019-07-26T16:40:00	0.2220	16.886	227.9	0.541454325	0.655952352	0.010077175	0.103964361	0.032042826
2019-07-26T16:45:00	0.2210	16.877	227.8	0.538104636	0.651211241	0.009963036	0.102786803	0.031679891
2019-07-26T16:50:00	0.2214	16.874	227.8	0.539507940	0.653196346	0.010010773	0.103279300	0.031831683
2019-07-26T16:55:00	0.2208	16.861	227.8	0.537515407	0.650378200	0.009943026	0.102580363	0.031616264
2019-07-26T17:00:00	0.2223	16.846	227.8	0.542652050	0.657649824	0.010118147	0.104387057	0.032173105
2019-07-26T17:05:00	0.2205	16.832	227.7	0.536246507	0.648585218	0.009900003	0.102136509	0.031479464
2019-07-26T17:10:00	0.2215	16.823	227.7	0.539688048	0.653451241	0.010016908	0.103342596	0.031851192
2019-07-26T17:15:00	0.2220	16.814	227.7	0.541430036	0.655917941	0.010076345	0.103955799	0.032040187
2019-07-26T17:20:00	0.2240	16.800	227.6	0.548254504	0.665605476	0.010310910	0.106375759	0.032786042
2019-07-26T17:25:00	0.2222	16.786	227.6	0.542198576	0.657007002	0.010102625	0.104226917	0.032123748
2019-07-26T17:30:00	0.2207	16.776	227.6	0.537151378	0.649863686	0.009930674	0.102452929	0.031576988
2019-07-26T17:35:00	0.2216	16.758	227.5	0.540252610	0.654250404	0.010036152	0.103541129	0.031912381
2019-07-26T17:40:00	0.2217	16.742	227.5	0.540297628	0.654314140	0.010037687	0.103556968	0.031917263
2019-07-26T17:45:00	0.2204	16.727	227.5	0.535927420	0.648134547	0.009889199	0.102025047	0.031445110
2019-07-26T17:50:00	0.2211	16.712	227.4	0.538350593	0.651559054	0.009971394	0.102873037	0.031706469
2019-07-26T17:55:00	0.2189	16.691	227.3	0.530916189	0.641067706	0.009720304	0.100282586	0.030908067
2019-07-26T18:00:00	0.2206	16.671	227.2	0.536742247	0.649285553	0.009916800	0.102309801	0.031532874
2019-07-26T18:05:00	0.2181	16.653	227.2	0.528282717	0.637362179	0.009632134	0.099372955	0.030627710
2019-07-26T18:10:00	0.2199	16.636	227.1	0.534453230	0.646053519	0.009839362	0.101510885	0.031286640
2019-07-26T18:15:00	0.2217	16.614	227.1	0.540612738	0.654760317	0.010048437	0.103667871	0.031951445
2019-07-26T18:20:00	0.2228	16.590	227.0	0.544049941	0.659632465	0.010166072	0.104881489	0.032325494
2019-07-26T18:25:00	0.2204	16.569	226.8	0.535948167	0.648163848	0.009889902	0.102032292	0.031447343
2019-07-26T18:30:00	0.2233	16.549	226.8	0.545834684	0.662166106	0.010227426	0.105514467	0.032520584
2019-07-26T18:35:00	0.2223	16.527	226.7	0.542489232	0.657419002	0.010112572	0.104329545	0.032155379
2019-07-26T18:40:00	0.2213	16.501	226.5	0.539140545	0.652676475	0.009998264	0.103150246	0.031791908
2019-07-26T18:45:00	0.2231	16.479	226.4	0.545291722	0.661395035	0.010208741	0.105321696	0.032461170
2019-07-26T18:50:00	0.2225	16.453	226.3	0.543302515	0.658572186	0.010140433	0.104616979	0.032243969
2019-07-26T18:55:00	0.2234	16.429	226.2	0.546398245	0.662966686	0.010246838	0.105714741	0.032582310
2019-07-26T19:00:00	0.2243	16.403	226.1	0.549152677	0.666883301	0.010341985	0.106696349	0.032884851
2019-07-26T19:05:00	0.2265	16.377	226.0	0.556637712	0.677557958	0.010602790	0.109387034	0.033714146
2019-07-26T19:10:00	0.2249	16.353	225.9	0.551273162	0.669902725	0.010415536	0.107455164	0.033118725
2019-07-26T19:15:00	0.2251	16.321	225.7	0.551994658	0.670930927	0.010440622	0.107713972	0.033198492
2019-07-26T19:20:00	0.2253	16.293	225.6	0.552716005	0.671959343	0.010465733	0.107973042	0.033278340
2019-07-26T19:25:00	0.2262	16.265	225.4	0.555803358	0.676365779	0.010573555	0.109085422	0.033621186
2019-07-26T19:30:00	0.2274	16.232	225.3	0.559900651	0.682225760	0.010717514	0.110570619	0.034078939
2019-07-26T19:35:00	0.2262	16.200	225.1	0.555555075	0.676011127	0.010564864	0.108995751	0.033593549
2019-07-26T19:40:00	0.2273	16.166	225.0	0.559315111	0.681387469	0.010696881	0.110357746	0.034013329
2019-07-26T19:45:00	0.2278	16.134	224.9	0.561047286	0.683868161	0.010757978	0.110988081	0.034207604
2019-07-26T19:50:00	0.2279	16.100	224.7	0.561429414	0.684415749	0.010771481	0.111127381	0.034250538
2019-07-26T19:55:00	0.2280	16.069	224.5	0.561811499	0.684963396	0.010784990	0.111266756	0.034293495
2019-07-26T20:00:00	0.2277	16.035	224.5	0.560844130	0.683577088	0.010750804	0.110914058	0.034184790
2019-07-26T20:05:00	0.2289	15.998	224.2	0.564935506	0.689445585	0.010895769	0.112409639	0.034645743
2019-07-26T20:10:00	0.2282	15.963	223.9	0.562620275	0.686123021	0.010813615	0.111562068	0.034384513
2019-07-26T20:15:00	0.2282	15.929	223.8	0.562327746	0.685703529	0.010803257	0.111455209	0.034351578
2019-07-26T20:20:00	0.2285	15.895	223.7	0.563384145	0.687218753	0.010840685	0.111841348	0.034470590
2019-07-26T20:25:00	0.2281	15.855	223.3	0.562079928	0.685348210	0.010794486	0.111364724	0.034323690
2019-07-26T20:30:00	0.2287	15.825	223.3	0.564147847	0.688314726	0.010867784	0.112120923	0.034556757
2019-07-26T20:35:00	0.2297	15.791	223.1	0.567561881	0.693220024	0.010989347	0.113375067	0.034943297
2019-07-26T20:40:00	0.2284	15.755	223.0	0.563225846	0.686991643	0.010835072	0.111783443	0.034452743
2019-07-26T20:45:00	0.2268	15.711	222.8	0.557871445	0.679321847	0.010646094	0.109833793	0.033851842
2019-07-26T20:50:00	0.2282	15.676	222.6	0.562303603	0.685668911	0.010802402	0.111446392	0.034348860
2019-07-26T20:55:00	0.2278	15.642	222.4	0.560998982	0.683798950	0.010756272	0.110970478	0.034202179
2019-07-26T21:00:00	0.2279	15.606	222.3	0.561381115	0.684346530	0.010769774	0.111109770	0.034245110
2019-07-26T21:05:00	0.2251	15.570	222.1	0.551966880	0.670891333	0.010439656	0.107704002	0.033195419
2019-07-26T21:10:00	0.2243	15.538	221.9	0.549304484	0.667099341	0.010347241	0.106750583	0.032901566
2019-07-26T21:15:00	0.2264	15.502	221.7	0.556451364	0.677291644	0.010596257	0.109319634	0.033693373
2019-07-26T21:20:00	0.2284	15.465	221.6	0.563246431	0.687021175	0.010835802	0.111790972	0.034455063
2019-07-26T21:25:00	0.2294	15.431	221.4	0.566661346	0.691925198	0.010957215	0.113043567	0.034841125
2019-07-26T21:30:00	0.2263	15.398	206.9	0.555910059	0.676518209	0.010577292	0.109123970	0.033633067
2019-07-26T21:35:00	0.2288	15.359	221.2	0.564391967	0.688665160	0.010876453	0.112210365	0.034584324
2019-07-26T21:40:00	0.2278	15.325	220.8	0.561064330	0.683892582	0.010758581	0.110994292	0.034209519
2019-07-26T21:45:00	0.2277	15.290	220.6	0.560771669	0.683473278	0.010748245	0.110887662	0.034176654
2019-07-26T21:50:00	0.2267	15.258	206.3	0.557440574	0.678705681	0.010630961	0.109677661	0.033803720
2019-07-26T21:55:00	0.2275	15.223	220.3	0.560186275	0.682634777	0.010727587	0.110674533	0.034110966
2019-07-26T22:00:00	0.2268	15.181	220.0	0.557867888	0.679316759	0.010645969	0.109832504	0.033851444
2019-07-26T22:05:00	0.2249	15.144	205.7	0.551343674	0.670003193	0.010417986	0.107480443	0.033126516
2019-07-26T22:10:00	0.2275	15.111	219.7	0.560027832	0.682407876	0.010721999	0.110616883	0.034093198
2019-07-26T22:15:00	0.2272	15.077	219.5	0.559251145	0.681295909	0.010694628	0.110334504	0.034006166
2019-07-26T22:20:00	0.2269	15.044	219.4	0.558136620	0.679701135	0.010655414	0.109929939	0.033881475
2019-07-26T22:25:00	0.2279	15.009	219.2	0.561410232	0.684388258	0.010770803	0.111120387	0.034248382
2019-07-26T22:30:00	0.2278	14.985	219.1	0.560971276	0.683759253	0.010755294	0.110960382	0.034199067
2019-07-26T22:35:00	0.2282	14.956	218.9	0.562556370	0.686031374	0.010811351	0.111538719	0.034377317
2019-07-26T22:40:00	0.2285	14.922	218.7	0.563466480	0.687336887	0.010843605	0.111871472	0.034479874
2019-07-26T22:45:00	0.2279	14.886	218.6	0.561341337	0.684289524	0.010768368	0.111095266	0.034240640
2019-07-26T22:50:00	0.2281	14.852	218.4	0.562251763	0.685594581	0.010800567	0.111427462	0.034343026
2019-07-26T22:55:00	0.2300	14.826	218.2	0.568552902	0.694645729	0.011024763	0.113740448	0.035055911
2019-07-26T23:00:00	0.2276	14.793	218.1	0.560361758	0.682886104	0.010733777	0.110738401	0.034130651
2019-07-26T23:05:00	0.2284	14.766	217.9	0.563296117	0.687092458	0.010837564	0.111809146	0.034460665
2019-07-26T23:10:00	0.2291	14.734	217.8	0.565554148	0.690334141	0.010917775	0.112636667	0.034715715
2019-07-26T23:15:00	0.2280	14.704	217.6	0.561744026	0.684866677	0.010782604	0.111242137	0.034285907
2019-07-26T23:20:00	0.2283	14.671	217.5	0.562654348	0.686171885	0.010814821	0.111574518	0.034388350
2019-07-26T23:25:00	0.2270	14.645	217.3	0.558503426	0.680225885	0.010668312	0.110063004	0.033922487
2019-07-26T23:30:00	0.2279	14.614	217.2	0.561439348	0.684429987	0.010771832	0.111131004	0.034251655
2019-07-26T23:35:00	0.2250	14.585	217.0	0.551540258	0.670283313	0.010424819	0.107550937	0.033148243
2019-07-26T23:40:00	0.2237	14.555	216.7	0.547376048	0.664356343	0.010280564	0.106062679	0.032689548
2019-07-26T23:45:00	0.2251	14.519	216.7	0.552013164	0.670957305	0.010441266	0.107720614	0.033200539
2019-07-26T23:50:00	0.2262	14.491	216.5	0.555630477	0.676118827	0.010567503	0.109022980	0.033601941
2019-07-26T23:55:00	0.2248	14.465	216.4	0.551132823	0.669702778	0.010410660	0.107404859	0.033103221
2019-07-27T00:00:00	0.2235	14.441	216.3	0.546629339	0.663295047	0.010254804	0.105796920	0.032607638
2019-07-27T00:05:00	0.2244	14.413	216.2	0.549575298	0.667484789	0.010356623	0.106847366	0.032931396
2019-07-27T00:10:00	0.2264	14.387	216.1	0.556237263	0.676985700	0.010588754	0.109242223	0.033669514
2019-07-27T00:15:00	0.2227	14.362	202.0	0.543950708	0.659491670	0.010162666	0.104846352	0.032314664
2019-07-27T00:20:00	0.2236	14.328	215.7	0.546898942	0.663678180	0.010264101	0.105892834	0.032637200
2019-07-27T00:25:00	0.2236	14.305	215.5	0.546796951	0.663533234	0.010260583	0.105856545	0.032626015
2019-07-27T00:30:00	0.2242	14.288	215.4	0.549065708	0.666759541	0.010338974	0.106665285	0.032875277
2019-07-27T00:35:00	0.2223	14.257	215.2	0.542524923	0.657469599	0.010113794	0.104342151	0.032159264
2019-07-27T00:40:00	0.2226	14.233	201.3	0.543440291	0.658767597	0.010145157	0.104665712	0.032258989
2019-07-27T00:45:00	0.2225	14.202	201.2	0.543338198	0.658622795	0.010141656	0.104629599	0.032247859
2019-07-27T00:50:00	0.2229	14.185	200.9	0.544592368	0.660402224	0.010184699	0.105073663	0.032384723
2019-07-27T00:55:00	0.2231	14.164	200.9	0.545168262	0.661219742	0.010204495	0.105277889	0.032447668
2019-07-27T01:00:00	0.2228	14.135	200.8	0.544049211	0.659631430	0.010166047	0.104881231	0.032325414
2019-07-27T01:05:00	0.2251	14.112	214.4	0.552075118	0.671045616	0.010443421	0.107742853	0.033207394
2019-07-27T01:10:00	0.2251	14.080	214.0	0.551973279	0.670900453	0.010439878	0.107706298	0.033196127
2019-07-27T01:15:00	0.2244	14.063	214.3	0.549502602	0.667381316	0.010354104	0.106821382	0.032923387
2019-07-27T01:20:00	0.2269	14.042	214.2	0.558191351	0.679779426	0.010657338	0.109949788	0.033887593
2019-07-27T01:25:00	0.2266	14.018	214.0	0.557076487	0.678185139	0.010618181	0.109545817	0.033763085
2019-07-27T01:30:00	0.2263	13.999	213.9	0.555961266	0.676591365	0.010579085	0.109142472	0.033638770
2019-07-27T01:35:00	0.2252	13.983	200.1	0.552478880	0.671621229	0.010457475	0.107887844	0.033252081
2019-07-27T01:40:00	0.2264	13.959	213.7	0.556433571	0.677266216	0.010595634	0.109313200	0.033691390
2019-07-27T01:45:00	0.2249	13.943	213.6	0.551260324	0.669884433	0.010415090	0.107450561	0.033117307
2019-07-27T01:50:00	0.2241	13.920	213.5	0.548450534	0.665884310	0.010317688	0.106445687	0.032807595
2019-07-27T01:55:00	0.2241	13.908	213.3	0.548687205	0.666220995	0.010325875	0.106530144	0.032833625
2019-07-27T02:00:00	0.2219	13.883	213.4	0.541127838	0.655489843	0.010066022	0.103849290	0.032007360
2019-07-27T02:05:00	0.2234	13.864	213.2	0.546112177	0.662560273	0.010236982	0.105613057	0.032550970
2019-07-27T02:10:00	0.2229	13.839	213.1	0.544654454	0.660490346	0.010186832	0.105095671	0.032391506
2019-07-27T02:15:00	0.2210	13.818	212.9	0.538105328	0.651212220	0.009963059	0.102787045	0.031679966
2019-07-27T02:20:00	0.2232	13.799	199.2	0.545467229	0.661644250	0.010214779	0.105383988	0.032480369
2019-07-27T02:25:00	0.2215	13.784	212.3	0.539938160	0.653805254	0.010025431	0.103430526	0.031878293
2019-07-27T02:30:00	0.2216	13.765	185.9	0.540175413	0.654141113	0.010033519	0.103513970	0.031904011
2019-07-27T02:35:00	0.2234	13.754	199.1	0.546177806	0.662653504	0.010239243	0.105636380	0.032558158
2019-07-27T02:40:00	0.2227	13.730	211.0	0.543702998	0.659140244	0.010154167	0.104758666	0.032287638
2019-07-27T02:45:00	0.2218	13.714	198.8	0.540887076	0.655148829	0.010057800	0.103764473	0.031981218
2019-07-27T02:50:00	0.2230	13.697	198.7	0.544854987	0.660774995	0.010193724	0.105166769	0.032413420
2019-07-27T02:55:00	0.2230	13.683	198.7	0.544752937	0.660630135	0.010190216	0.105130584	0.032402267
2019-07-27T03:00:00	0.2231	13.662	198.6	0.545328805	0.661447690	0.010210016	0.105334857	0.032465226
2019-07-27T03:05:00	0.2227	13.639	212.1	0.543870751	0.659378230	0.010159922	0.104818044	0.032305939
2019-07-27T03:10:00	0.2212	13.632	198.5	0.538678726	0.652023151	0.009982551	0.102988139	0.031741945
2019-07-27T03:15:00	0.2214	13.622	198.4	0.539595111	0.653319711	0.010013742	0.103309932	0.031841124
2019-07-27T03:20:00	0.2216	13.600	198.4	0.540171838	0.654136051	0.010033398	0.103512712	0.031903623
2019-07-27T03:25:00	0.2200	13.588	211.8	0.534634294	0.646309021	0.009845476	0.101573965	0.031306082
2019-07-27T03:30:00	0.2202	13.574	198.1	0.535211848	0.647124195	0.009864992	0.101775309	0.031368139
2019-07-27T03:35:00	0.2222	13.555	198.0	0.542240687	0.657066689	0.010104066	0.104241783	0.032128330
2019-07-27T03:40:00	0.2213	13.528	211.5	0.539084052	0.652596546	0.009996341	0.103130409	0.031785794
2019-07-27T03:45:00	0.2213	13.525	211.4	0.538981831	0.652451926	0.009992862	0.103094520	0.031774732
2019-07-27T03:50:00	0.2211	13.511	211.3	0.538540030	0.651826974	0.009977835	0.102939479	0.031726947
2019-07-27T03:55:00	0.2216	13.491	197.7	0.540135391	0.654084455	0.010032155	0.103499892	0.031899672
2019-07-27T04:00:00	0.2203	13.484	211.1	0.535617580	0.647697018	0.009878714	0.101916873	0.031411770
2019-07-27T04:05:00	0.2224	13.471	211.1	0.542786624	0.657840622	0.010122756	0.104434604	0.032187759
2019-07-27T04:10:00	0.2225	13.457	197.5	0.543164696	0.658376729	0.010135709	0.104568242	0.032228948
2019-07-27T04:15:00	0.2224	13.450	211.0	0.542864454	0.657950976	0.010125422	0.104462108	0.032196236
2019-07-27T04:20:00	0.2224	13.441	197.4	0.542903369	0.658006154	0.010126755	0.104475861	0.032200475
2019-07-27T04:25:00	0.2236	13.426	210.8	0.547009831	0.663835782	0.010267926	0.105932297	0.032649363
2019-07-27T04:30:00	0.2230	13.414	210.8	0.545015544	0.661002923	0.010199243	0.105223712	0.032430970
2019-07-27T04:35:00	0.2225	13.402	197.2	0.543020110	0.658171692	0.010130754	0.104517125	0.032213193
2019-07-27T04:40:00	0.2240	13.399	197.2	0.548142542	0.665446235	0.010307040	0.106335830	0.032773735
2019-07-27T04:45:00	0.2244	13.396	197.1	0.549535730	0.667428468	0.010355252	0.106833223	0.032927037
2019-07-27T04:50:00	0.2235	13.384	197.1	0.546526611	0.663149076	0.010251262	0.105760385	0.032596378
2019-07-27T04:55:00	0.2221	13.384	197.0	0.541818939	0.656468976	0.010089639	0.104092947	0.032082457
2019-07-27T05:00:00	0.2240	13.374	197.0	0.548297960	0.665667286	0.010312412	0.106391259	0.032790819
2019-07-27T05:05:00	0.2250	13.368	210.4	0.551721504	0.670541606	0.010431121	0.107615952	0.033168281
2019-07-27T05:10:00	0.2249	13.361	196.9	0.551422003	0.670114802	0.010420708	0.107508529	0.033135173
2019-07-27T05:15:00	0.2257	13.361	196.9	0.554166405	0.674028456	0.010516317	0.108494904	0.033439183
2019-07-27T05:20:00	0.2254	13.361	196.9	0.552852679	0.672154247	0.010470495	0.108022164	0.033293480
2019-07-27T05:25:00	0.2265	13.359	210.3	0.556609588	0.677517764	0.010601804	0.109376861	0.033711011
2019-07-27T05:30:00	0.2250	13.361	210.3	0.551577275	0.670336063	0.010426106	0.107564214	0.033152335
2019-07-27T05:35:00	0.2272	13.365	210.3	0.559051058	0.681009529	0.010687582	0.110261818	0.033983763
2019-07-27T05:40:00	0.2264	13.369	210.3	0.556388035	0.677201144	0.010594038	0.109296734	0.033686315
2019-07-27T05:45:00	0.2271	13.370	210.1	0.558790923	0.680637254	0.010678426	0.110167355	0.033954649
2019-07-27T05:50:00	0.2276	13.379	210.3	0.560517320	0.683108921	0.010739267	0.110795034	0.034148105
2019-07-27T05:55:00	0.2281	13.387	210.4	0.562242862	0.685581818	0.010800252	0.111424212	0.034342024
2019-07-27T06:00:00	0.2282	13.395	210.4	0.562618824	0.686120939	0.010813563	0.111561538	0.034384349
2019-07-27T06:05:00	0.2286	13.410	210.5	0.563669101	0.687627632	0.010850792	0.111945623	0.034502728
2019-07-27T06:10:00	0.2276	13.418	197.0	0.560334735	0.682847400	0.010732824	0.110728564	0.034127619
2019-07-27T06:15:00	0.2281	13.432	210.6	0.562060368	0.685320167	0.010793794	0.111357584	0.034321489
2019-07-27T06:20:00	0.2263	13.450	197.1	0.556022422	0.676678737	0.010581227	0.109164571	0.033645581
2019-07-27T06:25:00	0.2289	13.466	197.2	0.564835074	0.689301364	0.010892199	0.112372805	0.034634390
2019-07-27T06:30:00	0.2274	13.485	210.8	0.559814638	0.682102602	0.010714482	0.110539336	0.034069297
2019-07-27T06:35:00	0.2270	13.504	197.3	0.558503043	0.680225338	0.010668298	0.110062865	0.033922444
2019-07-27T06:40:00	0.2280	13.526	211.0	0.561916566	0.685114010	0.010788707	0.111305097	0.034305312
2019-07-27T06:45:00	0.2271	13.547	197.5	0.558580522	0.680336193	0.010671023	0.110090982	0.033931110
2019-07-27T06:50:00	0.2282	13.573	197.6	0.562331260	0.685708568	0.010803381	0.111456493	0.034351974
2019-07-27T06:55:00	0.2273	13.597	197.7	0.559333195	0.681413356	0.010697518	0.110364318	0.034015355
2019-07-27T07:00:00	0.2278	13.624	197.9	0.561059323	0.683885409	0.010758404	0.110992467	0.034208956
2019-07-27T07:05:00	0.2289	13.658	211.6	0.564807398	0.689261622	0.010891215	0.112362655	0.034631262
2019-07-27T07:10:00	0.2282	13.694	198.1	0.562486046	0.685930526	0.010808861	0.111513029	0.034369398
2019-07-27T07:15:00	0.2273	13.732	198.3	0.559488115	0.681635121	0.010702975	0.110420620	0.034032707
2019-07-27T07:20:00	0.2275	13.843	198.6	0.560201870	0.682657112	0.010728137	0.110680208	0.034112715
2019-07-27T07:25:00	0.2263	13.943	199.0	0.556188510	0.676916039	0.010587046	0.109224599	0.033664082
2019-07-27T07:30:00	0.2262	14.063	199.3	0.555551478	0.676005988	0.010564738	0.108994452	0.033593149
2019-07-27T07:35:00	0.2268	13.977	199.4	0.557617228	0.678958286	0.010637164	0.109741661	0.033823446
2019-07-27T07:40:00	0.2253	14.183	213.7	0.552586373	0.671774497	0.010461218	0.107926462	0.033263984
2019-07-27T07:45:00	0.2246	14.201	200.2	0.550256858	0.668455119	0.010380251	0.107091140	0.033006529
2019-07-27T07:50:00	0.2237	14.179	200.3	0.547248366	0.664174836	0.010276156	0.106017212	0.032675534
2019-07-27T07:55:00	0.2243	14.194	200.4	0.549319055	0.667120078	0.010347746	0.106755789	0.032903171
2019-07-27T08:00:00	0.2234	14.230	214.4	0.546309749	0.662840953	0.010243789	0.105683279	0.032572613
2019-07-27T08:05:00	0.2264	14.244	200.7	0.556498622	0.677359178	0.010597914	0.109336725	0.033698640
2019-07-27T08:10:00	0.2256	14.320	214.8	0.553833645	0.673553594	0.010504701	0.108375062	0.033402247
2019-07-27T08:15:00	0.2255	14.392	201.2	0.553196181	0.672644162	0.010482466	0.108145671	0.033331546
2019-07-27T08:20:00	0.2233	14.431	215.3	0.545787550	0.662099160	0.010225803	0.105497726	0.032515424
2019-07-27T08:25:00	0.2247	14.454	215.4	0.550567500	0.668897501	0.010391030	0.107202340	0.033040802
2019-07-27T08:30:00	0.2225	14.470	215.6	0.543153249	0.658360495	0.010135317	0.104564195	0.032227700
2019-07-27T08:35:00	0.2248	14.493	215.7	0.550983548	0.669490117	0.010405475	0.107351365	0.033086733
2019-07-27T08:40:00	0.2238	14.530	215.9	0.547636999	0.664727341	0.010289573	0.106155632	0.032718197
2019-07-27T08:45:00	0.2242	14.570	216.2	0.549030390	0.666709285	0.010337751	0.106652672	0.032871389
2019-07-27T08:50:00	0.2247	14.625	216.4	0.550761636	0.669174010	0.010397769	0.107271865	0.033062231
2019-07-27T08:55:00	0.2241	14.674	216.6	0.548769505	0.666338084	0.010328722	0.106559521	0.032842679
2019-07-27T09:00:00	0.2230	14.742	217.0	0.544742916	0.660615910	0.010189872	0.105127032	0.032401172
2019-07-27T09:05:00	0.2230	14.869	217.5	0.544781809	0.660671118	0.010191209	0.105140821	0.032405422
2019-07-27T09:10:00	0.2239	14.951	218.0	0.547870159	0.665058873	0.010297627	0.106238721	0.032743806
2019-07-27T09:15:00	0.2217	15.123	204.5	0.540450131	0.654530066	0.010042889	0.103610634	0.031933804
2019-07-27T09:20:00	0.2209	15.280	219.2	0.537772793	0.650742054	0.009951764	0.102670514	0.031644050
2019-07-27T09:25:00	0.2235	15.095	218.8	0.546631795	0.663298537	0.010254888	0.105797794	0.032607907
2019-07-27T09:30:00	0.2228	15.111	218.9	0.544298279	0.659984852	0.010174598	0.104969450	0.032352604
2019-07-27T09:35:00	0.2225	15.154	219.1	0.543319953	0.658596918	0.010141031	0.104623146	0.032245870
2019-07-27T09:40:00	0.2241	15.109	219.0	0.548441943	0.665872090	0.010317391	0.106442622	0.032806650
2019-07-27T09:45:00	0.2240	15.172	219.3	0.548142158	0.665445689	0.010307027	0.106335693	0.032773693
2019-07-27T09:50:00	0.2208	15.192	219.5	0.537327260	0.650112262	0.009936641	0.102514489	0.031595961
2019-07-27T09:55:00	0.2226	15.253	219.7	0.543475588	0.658817663	0.010146367	0.104678199	0.032262837
2019-07-27T10:00:00	0.2232	15.317	220.0	0.545548531	0.661759705	0.010217576	0.105412851	0.032489264
2019-07-27T10:05:00	0.2227	15.322	220.0	0.543841449	0.659336658	0.010158917	0.104807671	0.032302742
2019-07-27T10:10:00	0.2249	15.357	220.3	0.551280941	0.669913809	0.010415806	0.107457952	0.033119585
2019-07-27T10:15:00	0.2243	15.389	220.4	0.549238148	0.667004935	0.010344944	0.106726882	0.032894262
2019-07-27T10:20:00	0.2260	15.437	220.6	0.554976575	0.675184982	0.010544626	0.108786963	0.033529199
2019-07-27T10:25:00	0.2249	15.485	220.9	0.551244612	0.669862047	0.010414544	0.107444929	0.033115571
2019-07-27T10:30:00	0.2237	15.515	221.2	0.547169905	0.664063306	0.010273449	0.105989277	0.032666925
2019-07-27T10:35:00	0.2230	15.544	221.4	0.544785725	0.660676677	0.010191343	0.105142210	0.032405850
2019-07-27T10:40:00	0.2226	15.586	207.4	0.543417399	0.658735127	0.010144372	0.104657614	0.032256493
2019-07-27T10:45:00	0.2237	15.633	207.7	0.547133532	0.664011605	0.010272194	0.105976329	0.032662934
2019-07-27T10:50:00	0.2225	15.669	222.3	0.543053990	0.658219736	0.010131915	0.104529102	0.032216884
2019-07-27T10:55:00	0.2227	15.705	222.4	0.543720089	0.659164489	0.010154753	0.104764715	0.032289502
2019-07-27T11:00:00	0.2212	15.751	222.8	0.538617918	0.651937139	0.009980483	0.102966804	0.031735369
2019-07-27T11:05:00	0.2200	15.796	223.0	0.534528322	0.646159478	0.009841898	0.101537043	0.031294703
2019-07-27T11:10:00	0.2202	15.814	223.2	0.535535968	0.647581785	0.009875953	0.101888390	0.031402991
2019-07-27T11:15:00	0.2220	15.856	223.5	0.541636406	0.656210330	0.010083399	0.104028565	0.032062614
2019-07-27T11:20:00	0.2187	15.912	223.7	0.530409511	0.640354327	0.009703309	0.100107249	0.030854027
2019-07-27T11:25:00	0.2197	15.948	223.9	0.533799596	0.645131388	0.009817306	0.101283331	0.031216506
2019-07-27T11:30:00	0.2205	15.995	224.1	0.536506836	0.648952962	0.009908822	0.102227492	0.031507506
2019-07-27T11:35:00	0.2182	15.977	224.1	0.528670556	0.637907549	0.009645094	0.099506657	0.030668918
2019-07-27T11:40:00	0.2190	16.002	224.3	0.531381822	0.641723479	0.009735936	0.100443855	0.030957771
2019-07-27T11:45:00	0.2192	16.028	224.4	0.532050172	0.642665059	0.009758395	0.100675561	0.031029186
2019-07-27T11:50:00	0.2186	16.038	224.5	0.529995994	0.639772270	0.009689450	0.099964266	0.030809958
2019-07-27T11:55:00	0.2190	16.064	224.6	0.531345283	0.641672013	0.009734709	0.100431195	0.030953870
2019-07-27T12:00:00	0.2180	16.090	224.7	0.527928400	0.636864055	0.009620303	0.099250888	0.030590088
2019-07-27T12:05:00	0.2170	16.100	224.7	0.524508125	0.632060833	0.009506464	0.098076435	0.030228110
2019-07-27T12:10:00	0.2173	16.094	224.7	0.525518704	0.633479038	0.009540029	0.098422716	0.030334837
2019-07-27T12:15:00	0.2163	16.117	224.8	0.522096032	0.628679152	0.009426590	0.097252394	0.029974132
2019-07-27T12:20:00	0.2182	16.133	224.8	0.528560851	0.637753273	0.009641427	0.099468829	0.030657259
2019-07-27T12:25:00	0.2186	16.150	224.9	0.529910701	0.639652231	0.009686592	0.099934787	0.030800872
2019-07-27T12:30:00	0.2169	16.139	224.9	0.524106105	0.631496884	0.009493128	0.097938851	0.030185705
2019-07-27T12:35:00	0.2169	16.166	225.0	0.524093899	0.631479765	0.009492723	0.097934675	0.030184418
2019-07-27T12:40:00	0.2184	16.174	225.1	0.529193187	0.638642653	0.009662572	0.099686970	0.030724492
2019-07-27T12:45:00	0.2172	16.195	225.2	0.525092398	0.632880676	0.009525862	0.098276565	0.030289792
2019-07-27T12:50:00	0.2178	16.207	225.2	0.527125111	0.635735111	0.009593505	0.098974423	0.030504879
2019-07-27T12:55:00	0.2175	16.236	225.3	0.526090607	0.634281991	0.009559050	0.098618954	0.030395319
2019-07-27T13:00:00	0.2170	16.259	225.5	0.524373879	0.631872499	0.009502010	0.098030481	0.030213946
2019-07-27T13:05:00	0.2183	16.280	225.6	0.528791713	0.638077942	0.009649144	0.099548443	0.030681797
2019-07-27T13:10:00	0.2173	16.347	225.9	0.525372296	0.633273524	0.009535162	0.098372511	0.030319363
2019-07-27T13:15:00	0.2179	16.323	225.8	0.527404844	0.636128189	0.009602833	0.099070654	0.030534538
2019-07-27T13:20:00	0.2179	16.332	225.9	0.527392650	0.636111053	0.009602426	0.099066458	0.030533245
2019-07-27T13:25:00	0.2174	16.343	225.9	0.525676571	0.633700658	0.009545277	0.098476866	0.030351526
2019-07-27T13:30:00	0.2176	16.346	226.0	0.526686807	0.635119340	0.009578899	0.098823738	0.030458436
2019-07-27T13:35:00	0.2187	16.347	226.1	0.530420961	0.640370446	0.009703693	0.100111210	0.030855247
2019-07-27T13:40:00	0.2189	16.339	226.0	0.531089498	0.641311765	0.009726121	0.100342595	0.030926562
2019-07-27T13:45:00	0.2186	16.357	226.1	0.530056184	0.639856982	0.009691466	0.099985072	0.030816370
2019-07-27T13:50:00	0.2179	16.368	226.2	0.527660169	0.636487025	0.009611350	0.099158529	0.030561622
2019-07-27T13:55:00	0.2183	16.381	226.2	0.529010372	0.638385490	0.009656456	0.099623878	0.030705047
2019-07-27T14:00:00	0.2169	16.405	226.3	0.524227422	0.631667053	0.009497151	0.097980359	0.030198498
2019-07-27T14:05:00	0.2173	16.412	226.4	0.525578971	0.633563641	0.009542032	0.098443387	0.030341208
2019-07-27T14:10:00	0.2176	16.413	226.4	0.526589236	0.634982284	0.009575649	0.098790209	0.030448102
2019-07-27T14:15:00	0.2165	16.412	226.5	0.522826503	0.629702751	0.009450743	0.097501575	0.030050932
2019-07-27T14:20:00	0.2146	16.422	226.5	0.516326417	0.620609468	0.009236908	0.095295474	0.029370990
2019-07-27T14:25:00	0.2161	16.428	226.6	0.521437227	0.627756348	0.009404833	0.097027933	0.029904951
2019-07-27T14:30:00	0.2168	16.431	226.6	0.523813163	0.631086033	0.009483416	0.097838658	0.030154824
2019-07-27T14:35:00	0.2152	16.437	226.7	0.518339867	0.623422520	0.009302883	0.095976124	0.029580774
2019-07-27T14:40:00	0.2158	16.439	226.7	0.520376574	0.626271406	0.009369859	0.096667107	0.029793741
2019-07-27T14:45:00	0.2158	16.452	226.8	0.520364355	0.626254305	0.009369456	0.096662954	0.029792461
2019-07-27T14:50:00	0.2157	16.464	226.9	0.520010730	0.625759427	0.009357810	0.096542806	0.029755430
2019-07-27T14:55:00	0.2153	16.469	226.9	0.518632540	0.623831696	0.009312492	0.096075265	0.029611330
2019-07-27T15:00:00	0.2141	16.478	226.9	0.514519127	0.618087243	0.009177888	0.094686582	0.029183324
2019-07-27T15:05:00	0.2160	16.480	227.0	0.520998199	0.627141586	0.009390349	0.096878497	0.029858894
2019-07-27T15:10:00	0.2151	16.477	227.0	0.517912670	0.622825395	0.009288865	0.095831506	0.029536201
2019-07-27T15:15:00	0.2141	16.496	227.1	0.514482409	0.618036026	0.009176691	0.094674232	0.029179518
2019-07-27T15:20:00	0.2142	16.503	227.2	0.514812127	0.618495969	0.009187444	0.094785164	0.029213708
2019-07-27T15:25:00	0.2143	16.501	227.1	0.515141813	0.618955955	0.009198202	0.094896150	0.029247915
2019-07-27T15:30:00	0.2119	16.511	227.3	0.506913913	0.607502456	0.008931605	0.092145718	0.028400205
2019-07-27T15:35:00	0.2153	16.512	227.3	0.518534740	0.623694957	0.009309280	0.096042130	0.029601117
2019-07-27T15:40:00	0.2103	16.519	227.4	0.501401249	0.599859203	0.008755177	0.090325543	0.027839209
2019-07-27T15:45:00	0.2127	16.517	227.4	0.509617887	0.611260443	0.009018785	0.093045144	0.028677417
2019-07-27T15:50:00	0.2114	16.515	227.4	0.505493630	0.605530906	0.008885982	0.091675035	0.028255136
2019-07-27T15:55:00	0.2120	16.522	227.4	0.507537984	0.608369266	0.008951688	0.092352916	0.028464066
2019-07-27T16:00:00	0.2127	16.522	227.5	0.509923562	0.611685642	0.009028667	0.093147096	0.028708840
2019-07-27T16:05:00	0.2131	16.519	227.6	0.511096091	0.613317348	0.009066624	0.093538687	0.028829532
2019-07-27T16:10:00	0.2111	16.513	227.5	0.504388677	0.603998204	0.008850569	0.091309685	0.028142532
2019-07-27T16:15:00	0.2113	16.514	227.6	0.504877304	0.604675867	0.008866220	0.091471159	0.028192299
2019-07-27T16:20:00	0.2112	16.518	227.6	0.504680020	0.604402237	0.008859899	0.091405946	0.028172200
2019-07-27T16:25:00	0.2113	16.507	227.6	0.504825683	0.604604266	0.008864566	0.091454093	0.028187040
2019-07-27T16:30:00	0.2106	16.507	227.6	0.502570018	0.601477646	0.008792435	0.090709935	0.027957683
2019-07-27T16:35:00	0.2126	16.500	227.6	0.509571923	0.611196513	0.009017300	0.093029819	0.028672694
2019-07-27T16:40:00	0.2110	16.499	227.6	0.503890773	0.603307872	0.008834634	0.091145292	0.028091864
2019-07-27T16:45:00	0.2100	16.497	227.6	0.500604554	0.598756617	0.008729824	0.090063987	0.027758595
2019-07-27T16:50:00	0.2113	16.505	227.6	0.504868098	0.604663098	0.008865925	0.091468115	0.028191361
2019-07-27T16:55:00	0.2112	16.500	227.6	0.504670814	0.604389469	0.008859604	0.091402904	0.028171263
2019-07-27T17:00:00	0.2117	16.497	227.7	0.506187965	0.606494536	0.008908271	0.091904988	0.028326010
2019-07-27T17:05:00	0.2116	16.497	227.6	0.505990757	0.606220803	0.008901937	0.091839646	0.028305871
2019-07-27T17:10:00	0.2102	16.488	227.7	0.501333672	0.599765661	0.008753025	0.090303343	0.027832367
2019-07-27T17:15:00	0.2108	16.473	227.6	0.503195426	0.602344125	0.008812405	0.090915957	0.028021181
2019-07-27T17:20:00	0.2111	16.472	227.6	0.504370264	0.603972670	0.008849979	0.091303603	0.028140657
2019-07-27T17:25:00	0.2120	16.463	227.5	0.507258606	0.607981183	0.008942695	0.092260131	0.028435468
2019-07-27T17:30:00	0.2093	16.447	227.5	0.498139212	0.595347940	0.008651604	0.089257007	0.027509876
2019-07-27T17:35:00	0.2107	16.436	227.4	0.503092132	0.602200994	0.008809105	0.090881914	0.028010688
2019-07-27T17:40:00	0.2112	16.424	227.4	0.504609984	0.604305104	0.008857656	0.091382801	0.028165067
2019-07-27T17:45:00	0.2126	16.404	227.3	0.509553537	0.611170941	0.009016706	0.093023689	0.028670804
2019-07-27T17:50:00	0.2110	16.392	227.2	0.503872356	0.603282342	0.008834045	0.091139214	0.028089991
2019-07-27T17:55:00	0.2112	16.380	227.2	0.504704026	0.604435530	0.008860668	0.091413880	0.028174646
2019-07-27T18:00:00	0.2113	16.365	227.2	0.504849687	0.604637561	0.008865335	0.091462028	0.028189485
2019-07-27T18:05:00	0.2122	16.354	227.1	0.508080255	0.609122717	0.008969157	0.092533144	0.028519614
2019-07-27T18:10:00	0.2113	16.347	227.1	0.505140991	0.605041647	0.008874672	0.091558357	0.028219175
2019-07-27T18:15:00	0.2140	16.331	226.9	0.514190272	0.617628582	0.009167170	0.094575998	0.029149241
2019-07-27T18:20:00	0.2150	16.320	227.0	0.517753710	0.622603243	0.009283652	0.095777722	0.029519624
2019-07-27T18:25:00	0.2142	16.305	226.9	0.514822739	0.618510773	0.009187790	0.094788735	0.029214809
2019-07-27T18:30:00	0.2148	16.287	226.8	0.517018909	0.621576598	0.009259572	0.095529298	0.029443057
2019-07-27T18:35:00	0.2137	16.275	226.8	0.513061116	0.616054391	0.009130413	0.094196790	0.029032366
2019-07-27T18:40:00	0.2165	16.252	226.7	0.522771905	0.629626230	0.009448937	0.097482940	0.030045189
2019-07-27T18:45:00	0.2162	16.226	226.6	0.521893244	0.628395065	0.009419891	0.097183274	0.029952829
2019-07-27T18:50:00	0.2155	16.215	226.5	0.519307316	0.624775340	0.009334667	0.096304035	0.029681839
2019-07-27T18:55:00	0.2166	16.191	226.5	0.523206574	0.630235511	0.009463322	0.097631353	0.030090931
2019-07-27T19:00:00	0.2193	16.170	226.4	0.532208435	0.642888074	0.009763717	0.100730468	0.031046108
2019-07-27T19:05:00	0.2185	16.143	226.3	0.529630246	0.639257566	0.009677200	0.099837886	0.030771006
2019-07-27T19:10:00	0.2204	16.121	226.1	0.535897627	0.648092472	0.009888191	0.102014642	0.031441904
2019-07-27T19:15:00	0.2196	16.101	226.0	0.533322193	0.644458101	0.009801212	0.101117294	0.031165332
2019-07-27T19:20:00	0.2210	16.086	226.0	0.538224655	0.651380956	0.009967114	0.102828877	0.031692859
2019-07-27T19:25:00	0.2226	16.067	225.8	0.543459303	0.658794563	0.010145809	0.104672437	0.032261062
2019-07-27T19:30:00	0.2222	16.049	226.0	0.542246681	0.657075185	0.010104271	0.104243899	0.032128982
2019-07-27T19:35:00	0.2222	16.032	225.5	0.542051529	0.656798591	0.010097594	0.104175016	0.032107752
2019-07-27T19:40:00	0.2222	16.014	225.5	0.542195617	0.657002808	0.010102523	0.104225873	0.032123426
2019-07-27T19:45:00	0.2211	15.999	225.4	0.538266660	0.651440357	0.009968542	0.102843605	0.031697398
2019-07-27T19:50:00	0.2208	15.977	225.3	0.537391939	0.650203680	0.009938835	0.102537132	0.031602940
2019-07-27T19:55:00	0.2217	15.961	225.3	0.540592095	0.654731086	0.010047732	0.103660604	0.031949205
2019-07-27T20:00:00	0.2197	15.938	225.2	0.533601964	0.644852642	0.009810641	0.101214579	0.031195316
2019-07-27T20:05:00	0.2210	15.920	225.1	0.538164415	0.651295771	0.009965067	0.102807758	0.031686350
2019-07-27T20:10:00	0.2216	15.900	210.7	0.540006327	0.653901748	0.010027755	0.103454498	0.031885681
2019-07-27T20:15:00	0.2204	15.882	225.0	0.536074881	0.648342808	0.009894191	0.102076550	0.031460984
2019-07-27T20:20:00	0.2179	15.866	224.9	0.527713222	0.636561593	0.009613121	0.099176793	0.030567251
2019-07-27T20:25:00	0.2186	15.851	224.9	0.529901177	0.639638827	0.009686273	0.099931495	0.030799857
2019-07-27T20:30:00	0.2189	15.828	224.7	0.531066910	0.641279954	0.009725363	0.100334773	0.030924151
2019-07-27T20:35:00	0.2193	15.808	224.6	0.532232249	0.642921633	0.009764518	0.100738731	0.031048655
2019-07-27T20:40:00	0.2192	15.787	224.5	0.532036531	0.642645836	0.009757936	0.100670829	0.031027727
2019-07-27T20:45:00	0.2183	15.774	224.5	0.528777172	0.638057490	0.009648658	0.099543427	0.030680251
2019-07-27T20:50:00	0.2193	15.757	224.4	0.532325537	0.643053102	0.009767656	0.100771104	0.031058633
2019-07-27T20:55:00	0.2161	15.736	224.3	0.521566718	0.627937701	0.009409108	0.097072031	0.029918543
2019-07-27T21:00:00	0.2173	15.719	224.2	0.525463415	0.633401427	0.009538191	0.098403755	0.030328993
2019-07-27T21:05:00	0.2184	15.700	224.1	0.529355707	0.638871290	0.009668010	0.099743074	0.030741784
2019-07-27T21:10:00	0.2184	15.683	224.1	0.529159826	0.638595722	0.009661455	0.099675455	0.030720943
2019-07-27T21:15:00	0.2195	15.668	224.0	0.533047948	0.644071413	0.009791972	0.101021975	0.031135954
2019-07-27T21:20:00	0.2191	15.651	223.9	0.531491398	0.641877827	0.009739616	0.100481825	0.030969474
2019-07-27T21:25:00	0.2190	15.632	223.9	0.531295638	0.641602089	0.009733042	0.100413996	0.030948569
2019-07-27T21:30:00	0.2196	15.617	223.6	0.533481322	0.644682501	0.009806575	0.101172622	0.031182385
2019-07-27T21:35:00	0.2171	15.599	223.7	0.524772431	0.632431669	0.009515237	0.098166942	0.030256005
2019-07-27T21:40:00	0.2152	15.582	223.5	0.518433340	0.623553193	0.009305951	0.096007781	0.029590531
2019-07-27T21:45:00	0.2144	15.567	223.5	0.515502949	0.619459921	0.009209993	0.095017798	0.029285408
2019-07-27T21:50:00	0.2149	15.551	223.4	0.517357013	0.622048935	0.009270648	0.095643565	0.029478276
2019-07-27T21:55:00	0.2147	15.533	223.2	0.516476966	0.620819690	0.009241833	0.095346283	0.029386650
2019-07-27T22:00:00	0.2140	15.514	223.1	0.514228969	0.617682549	0.009168431	0.094589008	0.029153251
2019-07-27T22:05:00	0.2166	15.498	223.0	0.523154687	0.630162772	0.009461605	0.097613631	0.030085469
2019-07-27T22:10:00	0.2166	15.480	223.0	0.523199929	0.630226195	0.009463102	0.097629084	0.030090232
2019-07-27T22:15:00	0.2155	15.464	222.8	0.519490996	0.625032272	0.009340707	0.096366356	0.029701047
2019-07-27T22:20:00	0.2147	15.448	222.7	0.516461675	0.620798338	0.009241332	0.095341122	0.029385060
2019-07-27T22:25:00	0.2142	15.433	222.7	0.514797719	0.618475870	0.009186974	0.094780315	0.029212214
2019-07-27T22:30:00	0.2156	15.418	208.3	0.519626864	0.625222342	0.009345177	0.096412467	0.029715259
2019-07-27T22:35:00	0.2165	15.398	222.5	0.522743892	0.629586967	0.009448010	0.097473379	0.030042242
2019-07-27T22:40:00	0.2157	15.382	222.4	0.520058875	0.625826797	0.009359396	0.096559159	0.029760471
2019-07-27T22:45:00	0.2151	15.367	222.3	0.518055062	0.623024410	0.009293536	0.095879698	0.029551054
2019-07-27T22:50:00	0.2152	15.351	222.2	0.518441967	0.623565254	0.009306234	0.096010704	0.029591431
2019-07-27T22:55:00	0.2144	15.335	222.1	0.515753584	0.619809745	0.009218181	0.095102270	0.029311443
2019-07-27T23:00:00	0.2170	15.318	222.0	0.524334369	0.631817074	0.009500699	0.098016958	0.030209778
2019-07-27T23:05:00	0.2174	15.301	221.9	0.525743284	0.633794317	0.009547496	0.098499753	0.030358580
2019-07-27T23:10:00	0.2183	15.284	221.8	0.528854778	0.638166640	0.009651253	0.099570197	0.030688502
2019-07-27T23:15:00	0.2168	15.272	221.7	0.523788016	0.631050767	0.009482583	0.097830059	0.030152174
2019-07-27T23:20:00	0.2183	15.255	221.6	0.528945111	0.638293695	0.009654274	0.099601361	0.030698107
2019-07-27T23:25:00	0.2187	15.239	221.5	0.530352142	0.640273567	0.009701386	0.100087407	0.030847911
2019-07-27T23:30:00	0.2189	15.224	221.9	0.531078011	0.641295588	0.009725735	0.100338617	0.030925336
2019-07-27T23:35:00	0.2192	15.208	221.7	0.531803728	0.642317823	0.009750110	0.100590091	0.031002843
2019-07-27T23:40:00	0.2194	15.187	221.2	0.532529292	0.643340271	0.009774511	0.100841830	0.031080431
2019-07-27T23:45:00	0.2186	15.172	221.2	0.529851898	0.639569475	0.009684623	0.099914465	0.030794609
2019-07-27T23:50:00	0.2200	15.157	221.1	0.534659978	0.646345266	0.009846344	0.101582914	0.031308841
2019-07-27T23:55:00	0.2210	15.143	221.0	0.538103097	0.651209065	0.009962983	0.102786263	0.031679725
2019-07-28T00:00:00	0.2205	15.129	220.9	0.536449569	0.648872060	0.009906882	0.102207474	0.031501336
2019-07-28T00:05:00	0.2190	15.115	220.8	0.531393963	0.641740580	0.009736344	0.100448061	0.030959068
2019-07-28T00:10:00	0.2206	15.099	220.7	0.536879476	0.649479452	0.009921453	0.102357797	0.031547667
2019-07-28T00:15:00	0.2190	15.082	220.6	0.531143925	0.641388416	0.009727948	0.100361444	0.030932372
2019-07-28T00:20:00	0.2205	15.068	220.5	0.536290038	0.648646706	0.009901478	0.102151720	0.031484152
2019-07-28T00:25:00	0.2197	15.054	220.5	0.533615561	0.644871819	0.009811100	0.101219309	0.031196774
2019-07-28T00:30:00	0.2198	15.037	220.4	0.534000721	0.645415094	0.009824090	0.101353323	0.031238078
2019-07-28T00:35:00	0.2202	15.021	220.3	0.535405693	0.647397852	0.009871547	0.101842931	0.031388980
2019-07-28T00:40:00	0.2198	15.007	220.1	0.534090920	0.645542337	0.009827133	0.101384720	0.031247755
2019-07-28T00:45:00	0.2194	14.992	220.1	0.532775646	0.643687525	0.009782803	0.100927376	0.031106797
2019-07-28T00:50:00	0.2176	14.982	220.0	0.526351742	0.634648713	0.009567741	0.098708623	0.030422956
2019-07-28T00:55:00	0.2176	14.968	220.3	0.526396941	0.634712194	0.009569246	0.098724148	0.030427741
2019-07-28T01:00:00	0.2157	14.952	219.9	0.519961115	0.625690002	0.009356177	0.096525955	0.029750237
2019-07-28T01:05:00	0.2162	14.938	219.8	0.521713094	0.628142719	0.009413941	0.097121892	0.029933910
2019-07-28T01:10:00	0.2175	14.925	219.7	0.526191743	0.634424014	0.009562415	0.098653677	0.030406021
2019-07-28T01:15:00	0.2186	14.911	219.7	0.529983771	0.639755067	0.009689040	0.099960041	0.030808656
2019-07-28T01:20:00	0.2181	14.895	219.6	0.528326348	0.637423526	0.009633592	0.099387991	0.030632344
2019-07-28T01:25:00	0.2176	14.884	219.6	0.526668127	0.635093100	0.009578277	0.098817318	0.030456457
2019-07-28T01:30:00	0.2172	14.874	205.4	0.525009107	0.632763787	0.009523096	0.098248023	0.030280995
2019-07-28T01:35:00	0.2164	14.863	205.3	0.522325859	0.629001159	0.009434186	0.097330759	0.029998285
2019-07-28T01:40:00	0.2191	14.851	219.4	0.531570909	0.641989831	0.009742287	0.100509381	0.030977967
2019-07-28T01:45:00	0.2193	14.839	219.4	0.532296522	0.643012211	0.009766680	0.100761035	0.031055529
2019-07-28T01:50:00	0.2169	14.828	205.1	0.524167092	0.631582429	0.009495150	0.097959716	0.030192136
2019-07-28T01:55:00	0.2179	14.814	219.3	0.527620696	0.636431546	0.009610033	0.099144941	0.030557434
2019-07-28T02:00:00	0.2176	14.804	219.1	0.526643734	0.635058836	0.009577465	0.098808936	0.030453874
2019-07-28T02:05:00	0.2163	14.789	219.0	0.522256182	0.628903531	0.009431883	0.097306997	0.029990962
2019-07-28T02:10:00	0.2191	14.771	218.9	0.531501419	0.641891943	0.009739953	0.100485297	0.030970545
2019-07-28T02:15:00	0.2193	14.758	218.8	0.532227047	0.642914302	0.009764343	0.100736926	0.031048099
2019-07-28T02:20:00	0.2181	14.748	204.7	0.528187235	0.637227935	0.009628945	0.099340053	0.030617569
2019-07-28T02:25:00	0.2193	14.733	218.8	0.532317291	0.643041481	0.009767378	0.100768242	0.031057751
2019-07-28T02:30:00	0.2196	14.717	218.7	0.533382864	0.644543655	0.009803256	0.101138387	0.031171833
2019-07-28T02:35:00	0.2193	14.704	218.5	0.532407534	0.643168663	0.009770414	0.100799563	0.031067404
2019-07-28T02:40:00	0.2184	14.693	218.5	0.529389568	0.638918928	0.009669143	0.099754766	0.030745388
2019-07-28T02:45:00	0.2198	14.679	218.4	0.533858255	0.645214129	0.009819284	0.101303742	0.031222797
2019-07-28T02:50:00	0.2202	14.663	218.3	0.535263285	0.647196807	0.009866732	0.101793250	0.031373668
2019-07-28T02:55:00	0.2211	14.652	218.2	0.538366210	0.651581140	0.009971925	0.102878513	0.031708157
2019-07-28T03:00:00	0.2208	14.637	218.1	0.537392286	0.650204170	0.009938847	0.102537254	0.031602977
2019-07-28T03:05:00	0.2198	14.624	218.1	0.534038657	0.645468609	0.009825370	0.101366527	0.031242148
2019-07-28T03:10:00	0.2210	14.615	217.7	0.538161722	0.651291963	0.009964975	0.102806814	0.031686059
2019-07-28T03:15:00	0.2203	14.604	217.9	0.535828570	0.647994951	0.009885854	0.101990529	0.031434472
2019-07-28T03:20:00	0.2209	14.594	217.8	0.537912174	0.650939111	0.009956498	0.102719350	0.031659101
2019-07-28T03:25:00	0.2204	14.583	217.8	0.535918721	0.648122262	0.009888905	0.102022009	0.031444174
2019-07-28T03:30:00	0.2218	14.573	217.8	0.540718370	0.654909904	0.010052042	0.103705062	0.031962907
2019-07-28T03:35:00	0.2213	14.565	217.7	0.539066092	0.652571137	0.009995730	0.103124103	0.031783850
2019-07-28T03:40:00	0.2214	14.558	217.6	0.539450646	0.653115266	0.010008822	0.103259169	0.031825479
2019-07-28T03:45:00	0.2215	14.550	217.6	0.539835157	0.653659455	0.010021921	0.103394309	0.031867130
2019-07-28T03:50:00	0.2220	14.542	217.6	0.541577071	0.656126260	0.010081370	0.104007641	0.032056165
2019-07-28T03:55:00	0.2233	14.534	217.6	0.546030045	0.662443601	0.010234153	0.105583871	0.032541975
2019-07-28T04:00:00	0.2236	14.525	217.5	0.546752631	0.663470250	0.010259055	0.105840777	0.032621155
2019-07-28T04:05:00	0.2215	14.519	217.5	0.539729920	0.653510504	0.010018335	0.103357314	0.031855728
2019-07-28T04:10:00	0.2219	14.511	217.5	0.541186681	0.655573195	0.010068031	0.103870024	0.032013750
2019-07-28T04:15:00	0.2199	14.502	217.4	0.534492663	0.646109161	0.009840694	0.101524621	0.031290874
2019-07-28T04:20:00	0.2181	14.495	217.4	0.528126280	0.637142237	0.009626910	0.099319051	0.030611096
2019-07-28T04:25:00	0.2202	14.488	217.4	0.535371159	0.647349098	0.009870379	0.101830882	0.031385267
2019-07-28T04:30:00	0.2214	14.483	217.3	0.539546777	0.653251307	0.010012096	0.103292947	0.031835889
2019-07-28T04:35:00	0.2187	14.476	217.2	0.530127284	0.639957055	0.009693849	0.100009652	0.030823946
2019-07-28T04:40:00	0.2197	14.473	203.2	0.533629158	0.644890995	0.009811558	0.101224038	0.031198232
2019-07-28T04:45:00	0.2190	14.468	217.2	0.531347210	0.641674728	0.009734773	0.100431862	0.030954075
2019-07-28T04:50:00	0.2205	14.467	217.2	0.536547208	0.649009996	0.009910190	0.102241605	0.031511856
2019-07-28T04:55:00	0.2203	14.467	217.0	0.535626973	0.647710281	0.009879032	0.101920152	0.031412781
2019-07-28T05:00:00	0.2164	14.465	203.1	0.522445810	0.629169238	0.009438152	0.097371672	0.030010895
2019-07-28T05:05:00	0.2168	14.464	217.1	0.523909886	0.631221679	0.009486622	0.097871733	0.030165019
2019-07-28T05:10:00	0.2168	14.465	217.1	0.523668460	0.630883112	0.009478621	0.097789185	0.030139576
2019-07-28T05:15:00	0.2163	14.466	217.1	0.522062409	0.628632047	0.009425479	0.097240932	0.029970600
2019-07-28T05:20:00	0.2174	14.467	217.1	0.525913340	0.634033079	0.009553152	0.098558107	0.030376566
2019-07-28T05:25:00	0.2144	14.470	217.1	0.515430965	0.619359459	0.009207642	0.094993544	0.029277933
2019-07-28T05:30:00	0.2146	14.473	217.0	0.516214499	0.620453199	0.009233247	0.095257710	0.029359352
2019-07-28T05:35:00	0.2149	14.481	217.1	0.517339559	0.622024549	0.009270076	0.095637665	0.029476457
2019-07-28T05:40:00	0.2127	14.488	217.2	0.509914177	0.611672585	0.009028364	0.093143965	0.028707874
2019-07-28T05:45:00	0.2160	14.496	216.7	0.520954165	0.627079936	0.009388897	0.096863515	0.029854276
2019-07-28T05:50:00	0.2147	14.505	217.2	0.516613843	0.621010839	0.009246311	0.095392490	0.029400892
2019-07-28T05:55:00	0.2145	14.517	217.2	0.516030101	0.620195753	0.009227218	0.095195508	0.029340180
2019-07-28T06:00:00	0.2136	14.526	217.3	0.512710148	0.615565306	0.009119004	0.094079079	0.028996086
2019-07-28T06:05:00	0.2141	14.537	217.2	0.514520367	0.618088972	0.009177929	0.094686999	0.029183453
2019-07-28T06:10:00	0.2116	14.545	217.3	0.506060571	0.606317705	0.008904179	0.091862776	0.028313000
2019-07-28T06:15:00	0.2135	14.556	217.4	0.512667829	0.615506340	0.009117628	0.094064890	0.028991713
2019-07-28T06:20:00	0.2158	14.565	217.4	0.520286712	0.626145638	0.009366899	0.096636567	0.029784329
2019-07-28T06:25:00	0.2132	14.589	217.6	0.511498901	0.613878160	0.009079682	0.093673403	0.028871053
2019-07-28T06:30:00	0.2142	14.610	217.6	0.515019787	0.618785691	0.009194219	0.094855063	0.029235252
2019-07-28T06:35:00	0.2147	14.630	217.8	0.516487030	0.620833745	0.009242162	0.095349680	0.029387697
2019-07-28T06:40:00	0.2155	14.649	217.8	0.519319887	0.624792923	0.009335080	0.096308300	0.029683153
2019-07-28T06:45:00	0.2126	14.677	218.0	0.509502336	0.611099729	0.009015051	0.093006619	0.028665543
2019-07-28T06:50:00	0.2149	14.699	204.0	0.517469940	0.622206715	0.009274349	0.095681746	0.029490043
2019-07-28T06:55:00	0.2146	14.711	218.1	0.516202807	0.620436875	0.009232865	0.095253766	0.029358136
2019-07-28T07:00:00	0.2149	14.722	218.1	0.517327872	0.622008220	0.009269693	0.095633714	0.029475239
2019-07-28T07:05:00	0.2138	14.762	218.2	0.513667137	0.616899135	0.009150131	0.094400217	0.029095064
2019-07-28T07:10:00	0.2144	14.794	218.5	0.515476851	0.619423497	0.009209140	0.095009004	0.029282698
2019-07-28T07:15:00	0.2136	14.845	218.7	0.512840704	0.615747229	0.009123247	0.094122857	0.029009579
2019-07-28T07:20:00	0.2127	14.916	219.0	0.509860110	0.611597373	0.009026615	0.093125928	0.028702315
2019-07-28T07:25:00	0.2113	14.998	219.2	0.504819895	0.604596238	0.008864381	0.091452180	0.028186450
2019-07-28T07:30:00	0.2126	14.946	205.1	0.509375260	0.610922998	0.009010945	0.092964260	0.028652488
2019-07-28T07:35:00	0.2118	14.954	205.2	0.506734411	0.607253192	0.008925832	0.092086164	0.028381850
2019-07-28T07:40:00	0.2130	14.973	205.2	0.510944918	0.613106912	0.009061726	0.093488153	0.028813957
2019-07-28T07:45:00	0.2151	14.988	219.4	0.517884423	0.622785917	0.009287938	0.095821948	0.029533255
2019-07-28T07:50:00	0.2139	15.022	219.5	0.513882266	0.617199079	0.009157136	0.094472484	0.029117337
2019-07-28T07:55:00	0.2138	15.065	205.6	0.513640133	0.616861488	0.009149252	0.094391148	0.029092269
2019-07-28T08:00:00	0.2135	15.136	220.1	0.512371584	0.615093601	0.009108004	0.093965597	0.028961110
2019-07-28T08:05:00	0.2125	15.171	220.3	0.509048082	0.610468037	0.009000379	0.092855246	0.028618889
2019-07-28T08:10:00	0.2103	15.214	220.5	0.501604670	0.600140810	0.008761656	0.090392387	0.027859811
2019-07-28T08:15:00	0.2109	15.310	220.9	0.503763837	0.603131911	0.008830574	0.091103406	0.028078954
2019-07-28T08:20:00	0.2124	15.275	220.8	0.508663181	0.609932917	0.008987956	0.092727080	0.028579387
2019-07-28T08:25:00	0.2136	15.259	220.9	0.512871318	0.615789889	0.009124242	0.094133124	0.029012743
2019-07-28T08:30:00	0.2120	15.251	220.8	0.507492884	0.608306614	0.008950236	0.092337934	0.028459448
2019-07-28T08:35:00	0.2118	15.266	220.9	0.506564837	0.607017740	0.008920381	0.092029922	0.028364516
2019-07-28T08:40:00	0.2099	15.286	220.9	0.500146393	0.598122777	0.008715261	0.089913744	0.027712289
2019-07-28T08:45:00	0.2097	15.290	221.0	0.499559834	0.597311551	0.008696635	0.089721577	0.027653062
2019-07-28T08:50:00	0.2089	15.338	221.3	0.496911381	0.593652117	0.008612779	0.088856451	0.027386421
2019-07-28T08:55:00	0.2104	15.346	221.3	0.501820559	0.600439713	0.008768535	0.090463354	0.027881684
2019-07-28T09:00:00	0.2136	15.356	221.4	0.512886625	0.615811220	0.009124740	0.094138258	0.029014325
2019-07-28T09:05:00	0.2126	15.364	221.4	0.509563623	0.611184968	0.009017031	0.093027051	0.028671841
2019-07-28T09:10:00	0.2124	15.394	221.6	0.508636138	0.609895324	0.008987083	0.092718079	0.028576612
2019-07-28T09:15:00	0.2114	15.385	221.6	0.505309004	0.605274739	0.008880060	0.091613938	0.028236306
2019-07-28T09:20:00	0.2132	15.420	221.7	0.511575465	0.613984770	0.009082165	0.093699020	0.028878948
2019-07-28T09:25:00	0.2137	15.432	221.8	0.513044183	0.616030792	0.009129863	0.094191109	0.029030615
2019-07-28T09:30:00	0.2153	15.471	222.0	0.518613468	0.623805030	0.009311866	0.096068803	0.029609338
2019-07-28T09:35:00	0.2133	15.491	222.1	0.511875383	0.614402435	0.009091895	0.093799402	0.028909887
2019-07-28T09:40:00	0.2126	15.523	222.3	0.509578944	0.611206278	0.009017527	0.093032159	0.028673415
2019-07-28T09:45:00	0.2134	15.539	222.4	0.512075314	0.614680898	0.009098384	0.093866348	0.028930520
2019-07-28T09:50:00	0.2144	15.562	222.5	0.515595608	0.619589244	0.009213019	0.095049023	0.029295032
2019-07-28T09:55:00	0.2157	15.594	208.3	0.520136678	0.625935672	0.009361957	0.096585590	0.029768617
2019-07-28T10:00:00	0.2142	15.614	222.7	0.514769641	0.618436698	0.009186058	0.094770866	0.029209301
2019-07-28T10:05:00	0.2149	15.672	223.0	0.517213857	0.621848932	0.009265957	0.095595175	0.029463361
2019-07-28T10:10:00	0.2127	15.749	223.3	0.509739719	0.611429903	0.009022723	0.093085772	0.028689939
2019-07-28T10:15:00	0.2163	15.767	223.6	0.522097076	0.628680614	0.009426625	0.097252749	0.029974242
2019-07-28T10:20:00	0.2151	15.790	223.7	0.518051463	0.623019381	0.009293418	0.095878480	0.029550679
2019-07-28T10:25:00	0.2143	15.826	223.8	0.515368893	0.619272833	0.009205615	0.094972632	0.029271488
2019-07-28T10:30:00	0.2143	15.850	224.0	0.515420355	0.619344652	0.009207295	0.094989969	0.029276831
2019-07-28T10:35:00	0.2120	15.868	224.2	0.507256976	0.607978918	0.008942642	0.092259589	0.028435301
2019-07-28T10:40:00	0.2117	15.893	224.0	0.506280333	0.606622758	0.008911238	0.091935600	0.028335445
2019-07-28T10:45:00	0.2125	15.923	224.0	0.509073144	0.610502883	0.009001188	0.092863594	0.028621462
2019-07-28T10:50:00	0.2111	15.941	224.1	0.504326210	0.603911584	0.008848569	0.091289052	0.028136172
2019-07-28T10:55:00	0.2108	15.993	224.4	0.503348730	0.602556569	0.008817303	0.090966494	0.028036757
2019-07-28T11:00:00	0.2107	16.018	224.6	0.503057273	0.602152692	0.008807992	0.090870426	0.028007148
2019-07-28T11:05:00	0.2126	16.035	224.8	0.509279367	0.610789645	0.009007848	0.092932303	0.028642638
2019-07-28T11:10:00	0.2120	16.057	224.9	0.507275374	0.608004473	0.008943234	0.092265698	0.028437184
2019-07-28T11:15:00	0.2135	16.047	225.1	0.512463437	0.615221566	0.009110987	0.093996378	0.028970597
2019-07-28T11:20:00	0.2127	16.029	225.1	0.509776488	0.611481050	0.009023912	0.093098035	0.028693719
2019-07-28T11:25:00	0.2125	16.036	225.2	0.509143089	0.610600141	0.009003446	0.092886895	0.028628643
2019-07-28T11:30:00	0.2108	16.058	225.2	0.503367149	0.602582095	0.008817892	0.090972567	0.028038629
2019-07-28T11:35:00	0.2115	16.055	225.2	0.505819516	0.605983138	0.008896440	0.091782928	0.028288390
2019-07-28T11:40:00	0.2130	16.039	225.2	0.510667447	0.612720713	0.009052739	0.093395437	0.028785381
2019-07-28T11:45:00	0.2131	16.043	225.2	0.511061313	0.613268934	0.009065497	0.093527060	0.028825948
2019-07-28T11:50:00	0.2129	16.051	225.3	0.510428151	0.612387698	0.009044992	0.093315513	0.028760747
2019-07-28T11:55:00	0.2117	16.080	225.5	0.506368739	0.606745486	0.008914078	0.091964904	0.028344477
2019-07-28T12:00:00	0.2106	16.126	225.6	0.502647676	0.601585220	0.008794914	0.090735504	0.027965564
2019-07-28T12:05:00	0.2103	16.142	225.7	0.501669715	0.600230861	0.008763728	0.090413765	0.027866401
2019-07-28T12:10:00	0.2098	16.169	225.9	0.500004693	0.597926777	0.008710760	0.089867302	0.027697975
2019-07-28T12:15:00	0.2107	16.190	226.0	0.502802636	0.601799892	0.008799860	0.090786536	0.027981292
2019-07-28T12:20:00	0.2100	16.193	226.1	0.500451477	0.598544825	0.008724957	0.090013775	0.027743120
2019-07-28T12:25:00	0.2095	16.237	226.2	0.498785861	0.596241550	0.008672087	0.089468325	0.027575007
2019-07-28T12:30:00	0.2085	16.268	226.4	0.495400421	0.591566909	0.008565120	0.088364759	0.027234877
2019-07-28T12:35:00	0.2081	16.281	226.5	0.494076374	0.589741157	0.008523464	0.087935008	0.027102423
2019-07-28T12:40:00	0.2116	16.287	226.6	0.506147546	0.606438430	0.008906973	0.091891594	0.028321882
2019-07-28T12:45:00	0.2118	16.272	226.5	0.506541932	0.606985938	0.008919644	0.092022327	0.028362175
2019-07-28T12:50:00	0.2115	16.287	226.7	0.505565085	0.605630057	0.008888274	0.091698687	0.028262426
2019-07-28T12:55:00	0.2112	16.300	226.6	0.504587959	0.604274559	0.008856950	0.091375523	0.028162824
2019-07-28T13:00:00	0.2100	16.342	226.8	0.500521599	0.598641841	0.008727187	0.090036775	0.027750208
2019-07-28T13:05:00	0.2093	16.365	226.9	0.498168868	0.595388915	0.008652543	0.089266693	0.027512862
2019-07-28T13:10:00	0.2067	16.491	227.4	0.489275143	0.583132449	0.008373261	0.086385388	0.026624816
2019-07-28T13:15:00	0.2098	16.394	227.2	0.499989873	0.597906279	0.008710289	0.089862445	0.027696478
2019-07-28T13:20:00	0.2086	16.422	227.3	0.495574172	0.591806602	0.008570593	0.088421232	0.027252282
2019-07-28T13:25:00	0.2089	16.424	227.3	0.496657375	0.593301446	0.008604758	0.088773698	0.027360916
2019-07-28T13:30:00	0.2067	16.441	227.4	0.489138063	0.582944034	0.008368992	0.086341346	0.026611241
2019-07-28T13:35:00	0.2072	16.455	227.5	0.490912071	0.585383541	0.008424322	0.086912177	0.026787177
2019-07-28T13:40:00	0.2059	16.478	227.5	0.486484568	0.579299813	0.008286569	0.085491003	0.026349157
2019-07-28T13:45:00	0.2054	16.465	227.6	0.484812099	0.577005793	0.008234826	0.084957186	0.026184630
2019-07-28T13:50:00	0.2064	16.462	227.6	0.488311835	0.581808716	0.008343284	0.086076124	0.026529497
2019-07-28T13:55:00	0.2054	16.493	227.7	0.484570980	0.576675251	0.008227380	0.084880363	0.026160952
2019-07-28T14:00:00	0.2053	16.504	227.8	0.484277911	0.576273553	0.008218334	0.084787034	0.026132187
2019-07-28T14:05:00	0.2049	16.465	227.6	0.482949522	0.574453645	0.008177392	0.084364641	0.026002002
2019-07-28T14:10:00	0.2039	16.485	227.9	0.479548261	0.569800302	0.008073023	0.083287892	0.025670137
2019-07-28T14:15:00	0.2040	16.509	228.2	0.479945742	0.570343629	0.008085186	0.083413370	0.025708811
2019-07-28T14:20:00	0.2051	16.505	213.1	0.483795582	0.575612593	0.008203456	0.084633545	0.026084880
2019-07-28T14:25:00	0.2052	16.517	227.9	0.483847523	0.575683762	0.008205058	0.084650067	0.026089973
2019-07-28T14:30:00	0.2056	16.535	228.0	0.485279400	0.577646535	0.008249267	0.085106172	0.026230549
2019-07-28T14:35:00	0.2022	16.547	228.0	0.473584086	0.561662842	0.007891612	0.081416308	0.025093297
2019-07-28T14:40:00	0.2016	16.533	228.0	0.471558935	0.558906185	0.007830477	0.080785586	0.024898902
2019-07-28T14:45:00	0.2006	16.559	228.1	0.468146193	0.554268099	0.007727984	0.079728182	0.024573000
2019-07-28T14:50:00	0.2009	16.596	228.4	0.469238194	0.555751176	0.007760707	0.080065780	0.024677051
2019-07-28T14:55:00	0.2007	16.620	228.5	0.468597193	0.554880500	0.007741490	0.079867526	0.024615947
2019-07-28T15:00:00	0.2019	16.630	228.6	0.472459962	0.560132270	0.007857648	0.081065907	0.024985300
2019-07-28T15:05:00	0.2021	16.622	228.6	0.473204440	0.561145816	0.007880134	0.081297885	0.025056798
2019-07-28T15:10:00	0.2024	16.635	228.6	0.474294807	0.562631056	0.007913123	0.081638232	0.025161696
2019-07-28T15:15:00	0.2038	16.614	228.7	0.479187835	0.569307736	0.008062002	0.083174191	0.025635094
2019-07-28T15:20:00	0.2020	16.627	228.7	0.473014602	0.560887325	0.007874397	0.081238701	0.025038557
2019-07-28T15:25:00	0.2009	16.621	228.7	0.469256799	0.555776452	0.007761265	0.080071538	0.024678826
2019-07-28T15:30:00	0.2011	16.619	228.8	0.469655492	0.556318170	0.007773229	0.080194976	0.024716870
2019-07-28T15:35:00	0.2008	16.635	228.8	0.468667976	0.554976629	0.007743611	0.079889406	0.024622691
2019-07-28T15:40:00	0.2010	16.617	228.8	0.469413291	0.555989068	0.007765960	0.080119978	0.024693755
2019-07-28T15:45:00	0.2010	16.634	228.8	0.469465453	0.556059942	0.007767525	0.080136127	0.024698733
2019-07-28T15:50:00	0.2022	16.655	228.9	0.473673346	0.561784419	0.007894312	0.081444163	0.025101882
2019-07-28T15:55:00	0.2020	16.662	229.0	0.473033186	0.560912629	0.007874958	0.081244494	0.025040342
2019-07-28T16:00:00	0.2010	16.687	229.1	0.469621935	0.556272571	0.007772222	0.080184583	0.024713667
2019-07-28T16:05:00	0.1998	16.710	229.3	0.465473627	0.550642403	0.007648184	0.078904908	0.024319259
2019-07-28T16:10:00	0.1991	16.719	229.3	0.463056599	0.547368256	0.007576366	0.078163975	0.024090896
2019-07-28T16:15:00	0.2004	16.697	229.4	0.467232702	0.553028188	0.007700662	0.079446311	0.024486125
2019-07-28T16:20:00	0.1994	16.682	229.3	0.463775752	0.548341949	0.007597700	0.078384070	0.024158732
2019-07-28T16:25:00	0.1996	16.666	229.2	0.464482331	0.549299017	0.007618689	0.078600613	0.024225472
2019-07-28T16:30:00	0.1993	16.670	229.3	0.463453469	0.547905546	0.007588136	0.078285399	0.024128320
2019-07-28T16:35:00	0.1986	16.678	229.3	0.461034990	0.544633304	0.007516554	0.077546898	0.023900707
2019-07-28T16:40:00	0.1982	16.670	229.3	0.459657552	0.542771677	0.007475933	0.077127826	0.023771545
2019-07-28T16:45:00	0.1987	16.660	229.3	0.461407234	0.545136655	0.007527550	0.077660342	0.023935672
2019-07-28T16:50:00	0.2010	16.655	229.3	0.469399436	0.555970243	0.007765544	0.080115688	0.024692433
2019-07-28T16:55:00	0.2006	16.632	229.3	0.468025414	0.554104123	0.007724368	0.079690885	0.024561505
2019-07-28T17:00:00	0.1990	16.607	229.2	0.462486435	0.546596578	0.007559474	0.077989695	0.024037181
2019-07-28T17:05:00	0.2008	16.614	229.3	0.468743508	0.555079212	0.007745874	0.079912758	0.024629888
2019-07-28T17:10:00	0.2011	16.603	229.3	0.469795560	0.556508516	0.007777435	0.080238364	0.024730243
2019-07-28T17:15:00	0.2003	16.579	229.2	0.467034868	0.552759749	0.007694751	0.079385331	0.024467330
2019-07-28T17:20:00	0.2009	16.565	229.2	0.469127306	0.555600533	0.007757381	0.080031466	0.024666475
2019-07-28T17:25:00	0.1998	16.548	228.9	0.465325362	0.550441428	0.007643769	0.078859359	0.024305220
2019-07-28T17:30:00	0.2001	16.520	229.0	0.466378481	0.551869325	0.007675156	0.079183173	0.024405023
2019-07-28T17:35:00	0.1992	16.517	228.9	0.463267839	0.547654221	0.007582630	0.078228593	0.024110812
2019-07-28T17:40:00	0.2007	16.503	228.8	0.468483732	0.554726419	0.007738091	0.079832459	0.024605139
2019-07-28T17:45:00	0.2014	16.485	228.8	0.470921670	0.558039407	0.007811288	0.080587614	0.024837885
2019-07-28T17:50:00	0.2004	16.480	228.6	0.467468501	0.553348182	0.007707710	0.079519023	0.024508535
2019-07-28T17:55:00	0.2008	16.459	228.5	0.468867559	0.555247701	0.007749593	0.079951117	0.024641711
2019-07-28T18:00:00	0.2001	16.454	228.5	0.466452964	0.551970348	0.007677379	0.079206100	0.024412089
2019-07-28T18:05:00	0.2009	16.434	228.4	0.469238940	0.555752189	0.007760729	0.080066011	0.024677122
2019-07-28T18:10:00	0.2022	16.429	228.3	0.473753509	0.561893611	0.007896737	0.081469184	0.025109594
2019-07-28T18:15:00	0.2023	16.408	228.2	0.474111967	0.562381935	0.007907586	0.081581112	0.025144091
2019-07-28T18:20:00	0.2017	16.397	228.2	0.472047403	0.559570795	0.007845201	0.080937495	0.024945722
2019-07-28T18:25:00	0.2005	16.383	228.1	0.467902078	0.553936689	0.007720678	0.079652808	0.024549769
2019-07-28T18:30:00	0.2030	16.357	228.0	0.476570601	0.565734072	0.007982198	0.082350861	0.025381335
2019-07-28T18:35:00	0.2028	16.340	227.9	0.475545418	0.564335738	0.007951045	0.082029463	0.025282277
2019-07-28T18:40:00	0.2044	16.326	227.8	0.481087760	0.571905383	0.008120181	0.083774408	0.025820086
2019-07-28T18:45:00	0.2036	16.314	227.8	0.478336279	0.568144392	0.008035994	0.082905864	0.025552392
2019-07-28T18:50:00	0.2043	16.301	227.7	0.480767125	0.571466797	0.008110348	0.083672964	0.025788820
2019-07-28T18:55:00	0.2084	16.291	227.5	0.494910280	0.590890880	0.008549688	0.088205551	0.027185807
2019-07-28T19:00:00	0.2072	16.277	227.6	0.490792842	0.585219506	0.008420598	0.086873753	0.026775334
2019-07-28T19:05:00	0.2060	16.260	227.5	0.486670412	0.579554862	0.008292328	0.085550423	0.026367471
2019-07-28T19:10:00	0.2067	16.245	227.4	0.489095295	0.582885253	0.008367660	0.086327607	0.026607007
2019-07-28T19:15:00	0.2081	16.232	227.4	0.493927563	0.589536047	0.008518789	0.087886773	0.027087557
2019-07-28T19:20:00	0.2093	16.202	227.3	0.498065811	0.595246528	0.008649281	0.089233036	0.027502488
2019-07-28T19:25:00	0.2072	16.191	227.3	0.490854465	0.585304286	0.008422522	0.086893611	0.026781455
2019-07-28T19:30:00	0.2071	16.188	227.2	0.490522425	0.584847509	0.008412154	0.086786639	0.026748485
2019-07-28T19:35:00	0.2088	16.168	227.1	0.496384193	0.592924359	0.008596135	0.088684741	0.027333498
2019-07-28T19:40:00	0.2080	16.156	227.1	0.493645081	0.589146744	0.008509917	0.087795247	0.027059348
2019-07-28T19:45:00	0.2084	16.132	227.1	0.495033377	0.591060644	0.008553562	0.088245522	0.027198127
2019-07-28T19:50:00	0.2071	16.111	227.2	0.490571728	0.584915328	0.008413693	0.086802518	0.026753379
2019-07-28T19:55:00	0.2094	16.093	227.0	0.498495493	0.595840247	0.008662887	0.089373405	0.027545751
2019-07-28T20:00:00	0.2086	16.083	226.7	0.495758080	0.592060331	0.008576389	0.088481025	0.027270711
2019-07-28T20:05:00	0.2076	16.064	226.7	0.492330136	0.587335390	0.008468681	0.087369818	0.026928226
2019-07-28T20:10:00	0.2060	16.047	226.7	0.486830826	0.579775032	0.008297301	0.085601728	0.026383284
2019-07-28T20:15:00	0.2081	16.029	226.6	0.494075322	0.589739707	0.008523431	0.087934667	0.027102318
2019-07-28T20:20:00	0.2088	16.023	226.6	0.496494932	0.593077211	0.008599630	0.088720796	0.027344611
2019-07-28T20:25:00	0.2080	15.998	211.9	0.493755910	0.589299476	0.008513397	0.087831150	0.027070414
2019-07-28T20:30:00	0.2106	15.977	226.4	0.502701895	0.601660330	0.008796644	0.090753358	0.027971066
2019-07-28T20:35:00	0.2088	15.962	226.3	0.496531845	0.593128163	0.008600795	0.088732816	0.027348316
2019-07-28T20:40:00	0.2114	15.943	226.2	0.505470562	0.605498898	0.008885242	0.091667400	0.028252783
2019-07-28T20:45:00	0.2094	15.937	226.1	0.498618461	0.596010186	0.008666782	0.089413596	0.027558139
2019-07-28T20:50:00	0.2095	15.920	226.1	0.498974303	0.596502022	0.008678061	0.089529952	0.027594001
2019-07-28T20:55:00	0.2098	15.905	226.1	0.499673583	0.597468847	0.008700245	0.089758827	0.027664542
2019-07-28T21:00:00	0.2097	15.896	226.1	0.499342402	0.597010907	0.008689735	0.089650395	0.027631122
2019-07-28T21:05:00	0.2088	15.878	225.7	0.496261884	0.592755550	0.008592276	0.088644927	0.027321228
2019-07-28T21:10:00	0.2089	15.865	225.7	0.496617972	0.593247053	0.008603514	0.088760864	0.027356960
2019-07-28T21:15:00	0.2104	15.847	225.6	0.501782849	0.600387499	0.008767333	0.090450956	0.027877863
2019-07-28T21:20:00	0.2098	15.831	225.4	0.499735046	0.597553844	0.008702197	0.089778958	0.027670747
2019-07-28T21:25:00	0.2112	15.813	225.4	0.504552260	0.604225051	0.008855807	0.091363727	0.028159188
2019-07-28T21:30:00	0.2109	15.800	225.3	0.503535482	0.602815392	0.008823273	0.091028076	0.028055737
2019-07-28T21:35:00	0.2091	15.786	225.2	0.497366940	0.594281173	0.008627174	0.089004964	0.027432194
2019-07-28T21:40:00	0.2115	15.763	225.2	0.505617821	0.605703236	0.008889966	0.091716144	0.028267806
2019-07-28T21:45:00	0.2097	15.746	225.0	0.499453046	0.597163889	0.008693246	0.089686614	0.027642285
2019-07-28T21:50:00	0.2068	15.726	224.8	0.489489864	0.583427609	0.008379950	0.086454398	0.026646085
2019-07-28T21:55:00	0.2077	15.711	224.7	0.492601149	0.587708601	0.008477171	0.087457415	0.026955225
2019-07-28T22:00:00	0.2109	15.696	224.5	0.503609154	0.602917503	0.008825628	0.091052376	0.028063226
2019-07-28T22:05:00	0.2092	15.681	224.5	0.497878642	0.594987952	0.008643358	0.089171926	0.027483654
2019-07-28T22:10:00	0.2081	15.664	224.3	0.493859137	0.589441740	0.008516639	0.087864598	0.027080722
2019-07-28T22:15:00	0.2097	15.648	224.2	0.499465884	0.597181641	0.008693653	0.089690817	0.027643581
2019-07-28T22:20:00	0.2075	15.631	224.1	0.492007675	0.586891408	0.008458584	0.087265648	0.026896120
2019-07-28T22:25:00	0.2100	15.615	224.1	0.500365680	0.598426127	0.008722230	0.089985638	0.027734448
2019-07-28T22:30:00	0.2099	15.602	224.0	0.500128734	0.598098350	0.008714700	0.089907955	0.027710505
2019-07-28T22:35:00	0.2100	15.588	223.9	0.500578575	0.598720672	0.008728998	0.090055464	0.027755969
2019-07-28T22:40:00	0.2102	15.572	223.8	0.501371660	0.599818245	0.008754234	0.090315822	0.027836213
2019-07-28T22:45:00	0.2107	15.556	223.8	0.502850906	0.601866767	0.008801401	0.090802436	0.027986193
2019-07-28T22:50:00	0.2115	15.543	223.6	0.505701196	0.605818935	0.008892642	0.091743747	0.028276314
2019-07-28T22:55:00	0.2108	15.527	209.2	0.503406746	0.602636972	0.008819158	0.090985623	0.028042653
2019-07-28T23:00:00	0.2131	15.511	209.0	0.511052357	0.613256467	0.009065207	0.093524066	0.028825025
2019-07-28T23:05:00	0.2097	15.497	223.3	0.499500235	0.597229140	0.008694743	0.089702063	0.027647047
2019-07-28T23:10:00	0.2104	15.482	223.3	0.502010116	0.600702189	0.008774577	0.090525689	0.027900897
2019-07-28T23:15:00	0.2133	15.463	208.7	0.511712964	0.614176242	0.009086625	0.093745034	0.028893130
2019-07-28T23:20:00	0.2125	15.451	208.6	0.509080049	0.610512485	0.009001411	0.092865895	0.028622171
2019-07-28T23:25:00	0.2131	15.437	222.9	0.511240627	0.613518563	0.009071308	0.093587014	0.028844427
2019-07-28T23:30:00	0.2133	15.424	222.8	0.511689008	0.614142881	0.009085848	0.093737016	0.028890659
2019-07-28T23:35:00	0.2141	15.407	222.6	0.514531948	0.618105126	0.009178306	0.094690895	0.029184653
2019-07-28T23:40:00	0.2133	15.393	222.6	0.511901199	0.614438389	0.009092732	0.093808045	0.028912551
2019-07-28T23:45:00	0.2143	15.377	222.6	0.515427790	0.619355027	0.009207538	0.094992474	0.029277603
2019-07-28T23:50:00	0.2138	15.364	222.5	0.513481944	0.616640960	0.009144103	0.094338029	0.029075897
2019-07-28T23:55:00	0.2117	15.348	222.5	0.506397119	0.606784887	0.008914990	0.091974313	0.028347376
2019-07-29T00:00:00	0.2124	15.334	222.4	0.508901940	0.610264845	0.008995661	0.092806573	0.028603887
2019-07-29T00:05:00	0.2137	15.320	222.4	0.513115907	0.616130753	0.009132195	0.094215173	0.029038031
2019-07-29T00:10:00	0.2112	15.306	222.2	0.504658773	0.604372768	0.008859219	0.091398924	0.028170036
2019-07-29T00:15:00	0.2118	15.291	222.2	0.506822145	0.607375019	0.008928653	0.092115269	0.028390821
2019-07-29T00:20:00	0.2121	15.278	222.2	0.507613782	0.608474569	0.008954129	0.092378097	0.028471827
2019-07-29T00:25:00	0.2112	15.263	222.1	0.504634767	0.604339475	0.008858450	0.091390991	0.028167591
2019-07-29T00:30:00	0.2145	15.249	222.1	0.516039703	0.620209158	0.009227532	0.095198747	0.029341178
2019-07-29T00:35:00	0.2144	15.236	222.1	0.515461981	0.619402745	0.009208655	0.095003994	0.029281154
2019-07-29T00:40:00	0.2136	15.224	207.7	0.512831946	0.615735025	0.009122962	0.094119920	0.029008674
2019-07-29T00:45:00	0.2126	15.210	222.0	0.509515020	0.611117370	0.009015461	0.093010847	0.028666846
2019-07-29T00:50:00	0.2121	15.198	221.8	0.507565811	0.608407925	0.008952584	0.092362160	0.028466915
2019-07-29T00:55:00	0.2107	15.185	221.9	0.502871505	0.601895305	0.008802059	0.090809221	0.027988284
2019-07-29T01:00:00	0.2102	15.171	221.7	0.501261817	0.599666200	0.008750737	0.090279740	0.027825093
2019-07-29T01:05:00	0.2129	15.158	221.6	0.510624444	0.612660865	0.009051346	0.093381071	0.028780953
2019-07-29T01:10:00	0.2118	15.146	221.5	0.506619926	0.607094228	0.008922151	0.092048192	0.028370147
2019-07-29T01:15:00	0.2123	15.133	207.2	0.508439498	0.609621990	0.008980740	0.092652638	0.028556443
2019-07-29T01:20:00	0.2123	15.120	221.4	0.508545696	0.609769604	0.008984165	0.092687977	0.028567335
2019-07-29T01:25:00	0.2115	15.110	207.1	0.505567493	0.605633398	0.008888351	0.091699484	0.028262671
2019-07-29T01:30:00	0.2119	15.097	221.3	0.507044924	0.607684399	0.008935819	0.092189195	0.028413605
2019-07-29T01:35:00	0.2121	15.085	221.3	0.507836510	0.608784019	0.008961303	0.092452112	0.028494639
2019-07-29T01:40:00	0.2135	15.075	206.9	0.512393986	0.615124809	0.009108732	0.093973104	0.028963423
2019-07-29T01:45:00	0.2127	15.064	206.9	0.509761594	0.611460332	0.009023430	0.093093068	0.028692188
2019-07-29T01:50:00	0.2129	15.052	206.8	0.510552552	0.612560814	0.009049019	0.093357058	0.028773552
2019-07-29T01:55:00	0.2143	15.044	221.0	0.515106418	0.618906567	0.009197046	0.094884231	0.029244242
2019-07-29T02:00:00	0.2103	15.035	220.9	0.501508988	0.600008347	0.008758608	0.090360942	0.027850120
2019-07-29T02:05:00	0.2114	15.025	206.7	0.505389201	0.605386009	0.008882632	0.091640475	0.028244484
2019-07-29T02:10:00	0.2120	15.016	220.8	0.507552111	0.608388892	0.008952143	0.092357609	0.028465512
2019-07-29T02:15:00	0.2110	15.008	206.6	0.503887043	0.603302701	0.008834515	0.091144061	0.028091485
2019-07-29T02:20:00	0.2107	14.999	206.5	0.502964157	0.602023673	0.008805018	0.090839745	0.027997692
2019-07-29T02:25:00	0.2114	14.991	206.5	0.505471494	0.605500191	0.008885272	0.091667709	0.028252878
2019-07-29T02:30:00	0.2106	14.984	220.6	0.502490610	0.601367651	0.008789901	0.090683793	0.027949626
2019-07-29T02:35:00	0.2115	14.978	220.6	0.505684070	0.605795170	0.008892092	0.091738077	0.028274566
2019-07-29T02:40:00	0.2095	14.972	220.5	0.498926600	0.596436083	0.008676548	0.089514350	0.027589192
2019-07-29T02:45:00	0.2115	14.965	206.3	0.505553784	0.605614376	0.008887912	0.091694946	0.028261273
2019-07-29T02:50:00	0.2107	14.959	206.3	0.502916121	0.601957119	0.008803484	0.090823919	0.027992814
2019-07-29T02:55:00	0.2096	14.952	220.4	0.499246072	0.596877723	0.008686679	0.089618868	0.027621405
2019-07-29T03:00:00	0.2103	14.950	220.4	0.501412875	0.599875296	0.008755547	0.090329362	0.027840387
2019-07-29T03:05:00	0.2104	14.943	220.4	0.501862546	0.600497848	0.008769873	0.090477160	0.027885939
2019-07-29T03:10:00	0.2115	14.937	220.4	0.505742358	0.605876058	0.008893963	0.091757377	0.028280515
2019-07-29T03:15:00	0.2113	14.935	206.2	0.504819973	0.604596346	0.008864383	0.091452205	0.028186458
2019-07-29T03:20:00	0.2118	14.929	220.3	0.506640502	0.607122797	0.008922813	0.092055016	0.028372250
2019-07-29T03:25:00	0.2108	14.924	206.1	0.503317564	0.602513380	0.008816307	0.090956219	0.028033590
2019-07-29T03:30:00	0.2095	14.921	206.1	0.498960957	0.596483574	0.008677638	0.089525587	0.027592655
2019-07-29T03:35:00	0.2100	14.915	220.2	0.500441249	0.598530674	0.008724632	0.090010420	0.027742086
2019-07-29T03:40:00	0.2107	14.914	206.0	0.502950438	0.602004666	0.008804580	0.090835225	0.027996299
2019-07-29T03:45:00	0.2103	14.911	206.0	0.501684061	0.600250723	0.008764185	0.090418481	0.027867854
2019-07-29T03:50:00	0.2122	14.906	220.2	0.507963294	0.608960186	0.008965388	0.092494256	0.028507628
2019-07-29T03:55:00	0.2121	14.901	220.1	0.507726875	0.608631691	0.008957771	0.092415675	0.028483409
2019-07-29T04:00:00	0.2125	14.900	220.1	0.509203373	0.610683968	0.009005393	0.092906981	0.028634834
2019-07-29T04:05:00	0.2107	14.896	220.1	0.502938701	0.601988404	0.008804205	0.090831358	0.027995107
2019-07-29T04:10:00	0.2120	14.898	220.1	0.507302505	0.608042159	0.008944107	0.092274707	0.028439961
2019-07-29T04:15:00	0.2118	14.898	220.1	0.506865816	0.607435665	0.008930058	0.092129759	0.028395286
2019-07-29T04:20:00	0.2116	14.897	220.1	0.506086276	0.606353383	0.008905005	0.091871292	0.028315624
2019-07-29T04:25:00	0.2120	14.893	220.1	0.507363288	0.608126589	0.008946064	0.092294892	0.028446182
2019-07-29T04:30:00	0.2104	14.893	220.0	0.501781799	0.600386046	0.008767299	0.090450611	0.027877757
2019-07-29T04:35:00	0.2142	14.892	220.1	0.515048483	0.618825730	0.009195156	0.094864725	0.029238229
2019-07-29T04:40:00	0.2127	14.893	203.5	0.509821984	0.611544337	0.009025383	0.093113210	0.028698396
2019-07-29T04:45:00	0.2130	14.898	220.0	0.510755274	0.612842948	0.009055583	0.093424779	0.028794424
2019-07-29T04:50:00	0.2115	14.896	220.0	0.505522212	0.605570566	0.008886899	0.091684495	0.028258052
2019-07-29T04:55:00	0.2129	14.899	220.0	0.510567520	0.612581644	0.009049503	0.093362057	0.028775093
2019-07-29T05:00:00	0.2121	14.900	220.1	0.507733550	0.608640965	0.008957986	0.092417894	0.028484092
2019-07-29T05:05:00	0.2135	14.902	205.9	0.512433440	0.615179775	0.009110013	0.093986325	0.028967498
2019-07-29T05:10:00	0.2126	14.900	220.0	0.509601015	0.611236975	0.009018240	0.093039518	0.028675683
2019-07-29T05:15:00	0.2148	14.907	220.1	0.517033190	0.621596548	0.009260040	0.095534123	0.029444545
2019-07-29T05:20:00	0.2145	14.918	220.2	0.515914146	0.620033877	0.009223428	0.095156404	0.029328128
2019-07-29T05:25:00	0.2151	14.926	206.0	0.517870841	0.622766936	0.009287493	0.095817352	0.029531838
2019-07-29T05:30:00	0.2133	14.930	220.2	0.511964264	0.614526224	0.009094779	0.093829161	0.028919059
2019-07-29T05:35:00	0.2114	14.944	206.0	0.505361783	0.605347967	0.008881752	0.091631402	0.028241688
2019-07-29T05:40:00	0.2131	14.955	220.3	0.511092020	0.613311680	0.009066492	0.093537326	0.028829112
2019-07-29T05:45:00	0.2146	14.966	219.9	0.516129134	0.620334015	0.009230456	0.095228912	0.029350476
2019-07-29T05:50:00	0.2154	14.976	220.4	0.519110398	0.624499920	0.009328193	0.096237246	0.029661254
2019-07-29T05:55:00	0.2162	14.992	220.4	0.521747842	0.628191390	0.009415088	0.097133730	0.029937559
2019-07-29T06:00:00	0.2177	15.011	220.3	0.526769363	0.635235310	0.009581649	0.098852111	0.030467181
2019-07-29T06:05:00	0.2170	15.013	220.5	0.524630742	0.632232864	0.009510533	0.098118418	0.030241049
2019-07-29T06:10:00	0.2160	15.031	220.6	0.521125811	0.627320264	0.009394558	0.096921922	0.029872278
2019-07-29T06:15:00	0.2170	15.040	206.4	0.524443745	0.631970512	0.009504328	0.098054395	0.030221317
2019-07-29T06:20:00	0.2171	15.056	206.4	0.524691218	0.632317717	0.009512541	0.098139127	0.030247432
2019-07-29T06:25:00	0.2184	15.078	220.0	0.529367971	0.638888544	0.009668420	0.099747309	0.030743089
2019-07-29T06:30:00	0.2190	15.090	220.5	0.531317030	0.641632219	0.009733760	0.100421407	0.030950853
2019-07-29T06:35:00	0.2186	15.107	220.9	0.529862193	0.639583964	0.009684967	0.099918023	0.030795705
2019-07-29T06:40:00	0.2182	15.124	206.8	0.528406742	0.637536567	0.009636278	0.099415701	0.030640885
2019-07-29T06:45:00	0.2187	15.148	206.8	0.530356344	0.640279483	0.009701526	0.100088860	0.030848359
2019-07-29T06:50:00	0.2175	15.186	207.0	0.526175685	0.634401464	0.009561881	0.098648164	0.030404322
2019-07-29T06:55:00	0.2188	15.192	221.3	0.530510058	0.640495876	0.009706680	0.100142032	0.030864747
2019-07-29T07:00:00	0.2183	15.209	207.1	0.529054881	0.638448097	0.009657945	0.099639237	0.030709780
2019-07-29T07:05:00	0.2202	15.252	207.3	0.535425635	0.647426007	0.009872221	0.101849889	0.031391125
2019-07-29T07:10:00	0.2208	15.253	221.5	0.537371277	0.650174476	0.009938134	0.102529899	0.031600711
2019-07-29T07:15:00	0.2187	15.300	207.5	0.530136692	0.639970297	0.009694164	0.100012904	0.030824948
2019-07-29T07:20:00	0.2198	15.355	222.1	0.534126082	0.645591943	0.009828320	0.101396961	0.031251528
2019-07-29T07:25:00	0.2195	15.367	222.0	0.533012582	0.644021551	0.009790781	0.101009686	0.031132166
2019-07-29T07:30:00	0.2204	15.373	222.2	0.535979269	0.648207772	0.009890954	0.102043154	0.031450691
2019-07-29T07:35:00	0.2190	15.388	207.9	0.531124845	0.641361544	0.009727307	0.100354836	0.030930335
2019-07-29T07:40:00	0.2200	15.420	222.4	0.534773147	0.646504976	0.009850167	0.101622353	0.031320996
2019-07-29T07:45:00	0.2207	15.435	222.4	0.537058912	0.649733012	0.009927537	0.102420572	0.031567015
2019-07-29T07:50:00	0.2225	15.454	222.5	0.543075809	0.658250677	0.010132663	0.104536815	0.032219262
2019-07-29T07:55:00	0.2209	15.483	222.6	0.537891708	0.650910175	0.009955802	0.102712178	0.031656891
2019-07-29T08:00:00	0.2200	15.495	222.7	0.534740225	0.646458514	0.009849054	0.101610879	0.031317460
2019-07-29T08:05:00	0.2205	15.526	222.8	0.536346462	0.648726408	0.009903389	0.102171437	0.031490229
2019-07-29T08:10:00	0.2203	15.549	222.9	0.535573579	0.647634889	0.009877226	0.101901516	0.031407037
2019-07-29T08:15:00	0.2201	15.555	222.9	0.535140468	0.647023432	0.009862579	0.101750414	0.031360466
2019-07-29T08:20:00	0.2229	15.567	223.0	0.544552397	0.660345494	0.010183326	0.105059496	0.032380357
2019-07-29T08:25:00	0.2218	15.589	223.1	0.540728288	0.654923949	0.010052380	0.103708554	0.031963983
2019-07-29T08:30:00	0.2224	15.596	223.2	0.542670951	0.657676621	0.010118794	0.104393734	0.032175163
2019-07-29T08:35:00	0.2211	15.613	223.3	0.538505182	0.651777687	0.009976650	0.102927255	0.031723180
2019-07-29T08:40:00	0.2204	15.653	223.4	0.536034004	0.648285074	0.009892807	0.102062271	0.031456583
2019-07-29T08:45:00	0.2211	15.676	223.5	0.538318936	0.651514284	0.009970318	0.102861935	0.031703047
2019-07-29T08:50:00	0.2219	15.707	223.7	0.541281074	0.655706909	0.010071256	0.103903290	0.032024003
2019-07-29T08:55:00	0.2195	15.706	223.7	0.533034426	0.644052348	0.009791517	0.101017276	0.031134505
2019-07-29T09:00:00	0.2210	15.730	223.9	0.538039547	0.651119206	0.009960824	0.102763988	0.031672859
2019-07-29T09:05:00	0.2207	15.746	224.0	0.536927309	0.649547042	0.009923074	0.102374529	0.031552824
2019-07-29T09:10:00	0.2199	15.787	224.1	0.534455001	0.646056018	0.009839422	0.101511502	0.031286831
2019-07-29T09:15:00	0.2211	15.796	224.3	0.538439409	0.651684662	0.009974413	0.102904185	0.031716069
2019-07-29T09:20:00	0.2214	15.844	224.4	0.539364971	0.652994028	0.010005904	0.103229070	0.031816202
2019-07-29T09:25:00	0.2205	15.849	224.5	0.536554636	0.649020489	0.009910442	0.102244201	0.031512656
2019-07-29T09:30:00	0.2221	15.868	224.6	0.541893947	0.656575269	0.010092204	0.104119410	0.032090613
2019-07-29T09:35:00	0.2208	15.894	224.7	0.537387553	0.650197481	0.009938687	0.102535597	0.031602467
2019-07-29T09:40:00	0.2185	15.933	224.9	0.529472097	0.639035043	0.009671905	0.099783264	0.030754171
2019-07-29T09:45:00	0.2178	15.943	225.0	0.527335154	0.636030256	0.009600508	0.099046676	0.030527147
2019-07-29T09:50:00	0.2172	15.959	225.1	0.525196884	0.633027320	0.009529333	0.098312376	0.030300829
2019-07-29T09:55:00	0.2180	15.978	225.2	0.527829668	0.636725268	0.009617007	0.099216887	0.030579608
2019-07-29T10:00:00	0.2179	16.013	225.4	0.527395583	0.636115175	0.009602524	0.099067467	0.030533556
2019-07-29T10:05:00	0.2165	16.038	225.5	0.522821905	0.629696307	0.009450591	0.097500006	0.030050449
2019-07-29T10:10:00	0.2172	16.047	225.6	0.525067337	0.632845506	0.009525030	0.098267977	0.030287145
2019-07-29T10:15:00	0.2152	16.077	225.7	0.518441696	0.623564876	0.009306225	0.096010612	0.029591403
2019-07-29T10:20:00	0.2156	16.085	225.8	0.519665771	0.625276773	0.009346457	0.096425674	0.029719329
2019-07-29T10:25:00	0.2154	16.120	225.9	0.519182305	0.624600489	0.009330557	0.096261632	0.029668770
2019-07-29T10:30:00	0.2132	16.167	226.1	0.511518633	0.613905635	0.009080322	0.093680005	0.028873087
2019-07-29T10:35:00	0.2117	16.209	226.4	0.506238207	0.606564279	0.008909885	0.091921638	0.028331142
2019-07-29T10:40:00	0.2126	16.253	226.5	0.509522080	0.611127189	0.009015689	0.093013201	0.028667572
2019-07-29T10:45:00	0.2116	16.261	226.7	0.505953131	0.606168580	0.008900729	0.091827183	0.028302029
2019-07-29T10:50:00	0.2118	16.297	226.8	0.506838953	0.607398361	0.008929194	0.092120846	0.028392539
2019-07-29T10:55:00	0.2123	16.336	227.1	0.508409776	0.609580679	0.008979781	0.092642749	0.028553395
2019-07-29T11:00:00	0.2110	16.370	227.2	0.503810696	0.603196865	0.008832073	0.091118867	0.028083720
2019-07-29T11:05:00	0.2108	16.421	227.5	0.503324986	0.602523665	0.008816545	0.090958666	0.028034344
2019-07-29T11:10:00	0.2093	16.438	227.6	0.498031873	0.595199640	0.008648207	0.089221954	0.027499073
2019-07-29T11:15:00	0.2101	16.466	227.8	0.500980332	0.599276611	0.008741778	0.090187308	0.027796604
2019-07-29T11:20:00	0.2081	16.536	228.0	0.493963841	0.589586049	0.008519928	0.087898531	0.027091181
2019-07-29T11:25:00	0.2101	16.601	228.3	0.501038155	0.599356636	0.008743618	0.090206292	0.027802455
2019-07-29T11:30:00	0.2086	16.617	228.5	0.495741489	0.592037440	0.008575866	0.088475630	0.027269048
2019-07-29T11:35:00	0.2083	16.619	228.6	0.494566753	0.590417185	0.008538880	0.088094051	0.027151442
2019-07-29T11:40:00	0.2068	16.667	228.7	0.489604496	0.583585200	0.008383522	0.086491251	0.026657444
2019-07-29T11:45:00	0.2069	16.686	214.3	0.489805736	0.583861881	0.008389795	0.086555967	0.026677390
2019-07-29T11:50:00	0.2065	16.708	229.0	0.488628948	0.582244396	0.008353146	0.086177870	0.026560857
2019-07-29T11:55:00	0.2093	16.714	229.1	0.498120492	0.595322076	0.008651012	0.089250893	0.027507992
2019-07-29T12:00:00	0.2068	16.775	229.4	0.489376047	0.583271150	0.008376404	0.086417815	0.026634810
2019-07-29T12:05:00	0.2059	16.808	229.6	0.486475586	0.579287487	0.008286291	0.085488132	0.026348272
2019-07-29T12:10:00	0.2052	16.841	229.8	0.483917714	0.575779940	0.008207222	0.084672397	0.026096855
2019-07-29T12:15:00	0.2058	16.864	230.0	0.486188852	0.578894036	0.008277408	0.085396496	0.026320029
2019-07-29T12:20:00	0.2048	16.902	230.1	0.482595361	0.573968679	0.008166493	0.084252204	0.025967347
2019-07-29T12:25:00	0.2048	16.943	230.4	0.482451833	0.573772169	0.008162078	0.084206658	0.025953310
2019-07-29T12:30:00	0.2048	16.952	230.4	0.482653498	0.574048281	0.008168282	0.084270655	0.025973034
2019-07-29T12:35:00	0.2043	16.937	230.5	0.480783554	0.571489268	0.008110852	0.083678161	0.025790422
2019-07-29T12:40:00	0.2028	16.968	230.5	0.475801087	0.564684388	0.007958808	0.082109558	0.025306963
2019-07-29T12:45:00	0.2010	17.012	230.8	0.469425419	0.556005547	0.007766324	0.080123732	0.024694912
2019-07-29T12:50:00	0.2022	17.042	231.0	0.473783457	0.561934405	0.007897644	0.081478532	0.025112475
2019-07-29T12:55:00	0.2012	17.054	231.0	0.470176767	0.557026635	0.007788887	0.080356507	0.024766656
2019-07-29T13:00:00	0.2016	17.050	231.1	0.471418311	0.558714888	0.007826240	0.080741879	0.024885431
2019-07-29T13:05:00	0.2000	17.087	231.3	0.466075148	0.551457953	0.007666109	0.079089837	0.024376256
2019-07-29T13:10:00	0.2012	17.076	231.3	0.470091064	0.556910141	0.007786311	0.080329939	0.024758467
2019-07-29T13:15:00	0.1985	17.085	231.3	0.460926468	0.544486581	0.007513349	0.077513841	0.023890519
2019-07-29T13:20:00	0.1992	17.105	231.4	0.463213103	0.547580119	0.007581007	0.078211847	0.024105651
2019-07-29T13:25:00	0.1981	17.158	231.7	0.459247518	0.542217800	0.007463862	0.077003292	0.023733163
2019-07-29T13:30:00	0.1978	17.154	231.7	0.458407728	0.541083821	0.007439170	0.076748544	0.023654647
2019-07-29T13:35:00	0.1994	17.174	231.8	0.463821515	0.548403923	0.007599059	0.078398086	0.024163051
2019-07-29T13:40:00	0.1958	17.206	232.0	0.451505820	0.531785188	0.007237753	0.074670567	0.023014194
2019-07-29T13:45:00	0.1975	17.187	232.0	0.457278530	0.539559929	0.007406031	0.076406659	0.023549274
2019-07-29T13:50:00	0.1950	17.219	232.1	0.448776311	0.528118209	0.007158847	0.073856502	0.022763291
2019-07-29T13:55:00	0.1947	17.250	232.3	0.447585123	0.526519738	0.007124544	0.073502605	0.022654217
2019-07-29T14:00:00	0.1942	17.325	232.4	0.445695606	0.523986461	0.007070296	0.072942943	0.022481723
2019-07-29T14:05:00	0.1944	17.351	232.6	0.446597346	0.525195074	0.007096160	0.073209771	0.022563962
2019-07-29T14:10:00	0.1939	17.366	232.8	0.444707271	0.522662517	0.007042002	0.072651038	0.022391755
2019-07-29T14:15:00	0.1934	17.393	232.8	0.443165400	0.520598606	0.006997972	0.072196788	0.022251751
2019-07-29T14:20:00	0.1944	17.352	232.9	0.446511039	0.525079369	0.007093682	0.073184212	0.022556085
2019-07-29T14:25:00	0.1944	17.404	233.0	0.446365966	0.524884892	0.007089519	0.073141259	0.022542846
2019-07-29T14:30:00	0.1932	17.453	233.2	0.442380408	0.519548553	0.006975608	0.071966057	0.022180638
2019-07-29T14:35:00	0.1920	17.479	233.4	0.438718685	0.513754906	0.006859704	0.070770302	0.021812094
2019-07-29T14:40:00	0.1928	17.486	233.5	0.441050919	0.517758847	0.006937644	0.071574391	0.022059922
2019-07-29T14:45:00	0.1908	17.492	233.5	0.435498849	0.508252134	0.006752986	0.069669313	0.021472759
2019-07-29T14:50:00	0.1919	17.510	233.6	0.438651430	0.513639670	0.006857464	0.070747197	0.021804973
2019-07-29T14:55:00	0.1918	17.530	233.9	0.438266450	0.512980276	0.006844653	0.070615027	0.021764237
2019-07-29T15:00:00	0.1918	17.521	233.8	0.438153372	0.512786676	0.006840893	0.070576234	0.021752281
2019-07-29T15:05:00	0.1919	17.493	233.8	0.438584173	0.513524442	0.006855225	0.070724095	0.021797853
2019-07-29T15:10:00	0.1934	17.508	233.9	0.442965035	0.520330540	0.006992260	0.072137861	0.022233589
2019-07-29T15:15:00	0.1942	17.506	233.9	0.445961932	0.524343355	0.007077930	0.073021700	0.022505997
2019-07-29T15:20:00	0.1957	17.502	234.0	0.451047392	0.531168900	0.007224471	0.074533538	0.022971960
2019-07-29T15:25:00	0.1937	17.479	234.0	0.443926320	0.521616921	0.007019684	0.072420788	0.022320790
2019-07-29T15:30:00	0.1926	17.514	234.0	0.440464949	0.516751432	0.006918011	0.071371842	0.021997495
2019-07-29T15:35:00	0.1920	17.515	234.0	0.438721549	0.513759813	0.006859799	0.070771286	0.021812398
2019-07-29T15:40:00	0.1929	17.535	234.1	0.441394774	0.518230794	0.006947576	0.071676862	0.022091505
2019-07-29T15:45:00	0.1922	17.540	234.2	0.439310990	0.514770323	0.006879447	0.070973985	0.021874872
2019-07-29T15:50:00	0.1929	17.586	234.3	0.441453626	0.518309456	0.006949248	0.071694114	0.022096822
2019-07-29T15:55:00	0.1932	17.601	234.5	0.442356510	0.519516593	0.006974927	0.071959038	0.022178474
2019-07-29T16:00:00	0.1931	17.636	234.6	0.441861885	0.518855211	0.006960854	0.071813846	0.022133725
2019-07-29T16:05:00	0.1936	17.627	234.6	0.443815503	0.521468591	0.007016520	0.072388145	0.022310729
2019-07-29T16:10:00	0.1933	17.653	234.8	0.442625673	0.519876583	0.006982591	0.072038109	0.022202845
2019-07-29T16:15:00	0.1926	17.681	234.9	0.440542282	0.516884330	0.006920600	0.071398553	0.022005727
2019-07-29T16:20:00	0.1948	17.659	234.9	0.447926194	0.526977312	0.007134357	0.073603851	0.022685422
2019-07-29T16:25:00	0.1950	17.650	234.8	0.448481772	0.527722860	0.007150357	0.073768919	0.022736297
2019-07-29T16:30:00	0.1931	17.709	235.0	0.442057172	0.519116313	0.006966409	0.071871154	0.022151388
2019-07-29T16:35:00	0.1930	17.707	235.1	0.441565629	0.518459167	0.006952431	0.071726952	0.022106943
2019-07-29T16:40:00	0.1936	17.673	235.0	0.443868618	0.521539685	0.007018037	0.072403790	0.022315551
2019-07-29T16:45:00	0.1948	17.643	235.0	0.447914264	0.526961306	0.007134014	0.073600308	0.022684330
2019-07-29T16:50:00	0.1949	17.600	234.8	0.448121127	0.527238871	0.007139969	0.073661747	0.022703266
2019-07-29T16:55:00	0.1938	17.623	234.9	0.444489917	0.522371459	0.007035787	0.072586919	0.022371993
2019-07-29T17:00:00	0.1946	17.631	234.9	0.447139750	0.525922374	0.007111739	0.073370500	0.022613501
2019-07-29T17:05:00	0.1963	17.623	234.9	0.453271307	0.534160171	0.007289017	0.075199445	0.023177199
2019-07-29T17:10:00	0.1986	17.624	234.9	0.461129068	0.544760507	0.007519332	0.077575561	0.023909541
2019-07-29T17:15:00	0.1978	17.612	234.8	0.458207366	0.540813353	0.007433285	0.076687826	0.023635933
2019-07-29T17:20:00	0.1987	17.618	235.0	0.461541155	0.545317770	0.007531508	0.077701175	0.023948257
2019-07-29T17:25:00	0.2004	17.608	235.0	0.467299783	0.553119217	0.007702667	0.079466993	0.024492499
2019-07-29T17:30:00	0.2024	17.582	234.9	0.474432959	0.562819307	0.007917308	0.081681405	0.025175002
2019-07-29T17:35:00	0.2021	17.567	234.9	0.473253918	0.561213191	0.007881629	0.081313314	0.025061553
2019-07-29T17:40:00	0.2015	17.570	234.8	0.471381870	0.558665317	0.007825143	0.080730555	0.024881941
2019-07-29T17:45:00	0.2012	17.540	234.7	0.470201763	0.557060613	0.007789638	0.080364257	0.024769044
2019-07-29T17:50:00	0.2011	17.545	234.8	0.469714322	0.556398116	0.007774996	0.080213198	0.024722487
2019-07-29T17:55:00	0.2024	17.515	234.8	0.474421123	0.562803179	0.007916949	0.081677706	0.025173862
2019-07-29T18:00:00	0.2033	17.478	234.8	0.477393234	0.566856736	0.008007239	0.082609209	0.025460961
2019-07-29T18:05:00	0.2034	17.459	234.6	0.477943972	0.567608641	0.008024025	0.082782392	0.025514337
2019-07-29T18:10:00	0.2018	17.454	234.5	0.472268003	0.559871005	0.007851856	0.081006146	0.024966881
2019-07-29T18:15:00	0.2019	17.429	234.5	0.472473373	0.560150525	0.007858053	0.081070083	0.024986587
2019-07-29T18:20:00	0.2034	17.420	234.4	0.477867745	0.567504556	0.008021701	0.082758411	0.025506946
2019-07-29T18:25:00	0.2015	17.426	234.4	0.471152739	0.558353659	0.007818243	0.080659370	0.024860001
2019-07-29T18:30:00	0.2020	17.423	234.4	0.473089409	0.560989182	0.007876657	0.081262020	0.025045744
2019-07-29T18:35:00	0.2028	17.414	234.4	0.475716819	0.564569468	0.007956249	0.082083154	0.025298825
2019-07-29T18:40:00	0.2042	17.374	234.3	0.480415279	0.570985613	0.008099565	0.083561716	0.025754532
2019-07-29T18:45:00	0.2020	17.342	234.2	0.473013073	0.560885243	0.007874351	0.081238224	0.025038410
2019-07-29T18:50:00	0.2045	17.302	234.0	0.481515683	0.572490852	0.008133313	0.083909891	0.025861843
2019-07-29T18:55:00	0.2044	17.287	233.9	0.481375199	0.572298631	0.008129001	0.083865401	0.025848131
2019-07-29T19:00:00	0.2054	17.264	233.8	0.484686208	0.576833207	0.008230938	0.084917071	0.026172266
2019-07-29T19:05:00	0.2043	17.230	233.6	0.480748857	0.571441811	0.008109788	0.083667187	0.025787039
2019-07-29T19:10:00	0.2058	17.187	233.4	0.486130073	0.578813388	0.008275588	0.085377717	0.026314242
2019-07-29T19:15:00	0.2065	17.189	233.4	0.488402815	0.581933705	0.008346113	0.086105309	0.026538492
2019-07-29T19:20:00	0.2075	17.189	233.4	0.492051225	0.586951366	0.008459947	0.087279713	0.026900455
2019-07-29T19:25:00	0.2097	17.181	233.4	0.499476076	0.597195734	0.008693977	0.089694154	0.027644609
2019-07-29T19:30:00	0.2103	17.171	233.4	0.501396661	0.599852852	0.008755030	0.090324035	0.027838745
2019-07-29T19:35:00	0.2099	17.129	233.2	0.500226945	0.598234204	0.008717821	0.089940150	0.027720428
2019-07-29T19:40:00	0.2100	17.098	233.1	0.500430631	0.598515984	0.008724295	0.090006938	0.027741013
2019-07-29T19:45:00	0.2089	17.060	233.0	0.496855240	0.593574606	0.008611006	0.088838157	0.027380783
2019-07-29T19:50:00	0.2083	17.042	232.9	0.494652228	0.590535040	0.008541568	0.088121787	0.027159991
2019-07-29T19:55:00	0.2098	17.013	223.1	0.499668059	0.597461208	0.008700070	0.089757018	0.027663985
2019-07-29T20:00:00	0.2067	17.014	232.6	0.489208535	0.583040895	0.008371186	0.086363986	0.026618219
2019-07-29T20:05:00	0.2080	16.979	232.4	0.493544303	0.589007873	0.008506753	0.087762605	0.027049287
2019-07-29T20:10:00	0.2087	16.955	232.3	0.496155927	0.592609319	0.008588934	0.088610444	0.027310599
2019-07-29T20:15:00	0.2079	16.944	232.3	0.493264323	0.588622103	0.008497966	0.087671953	0.027021347
2019-07-29T20:20:00	0.2087	16.913	232.1	0.496219984	0.592697724	0.008590954	0.088631290	0.027317024
2019-07-29T20:25:00	0.2073	16.899	232.1	0.491263221	0.585866720	0.008435296	0.087025389	0.026822070
2019-07-29T20:30:00	0.2068	16.881	232.0	0.489401098	0.583305584	0.008377184	0.086425866	0.026637291
2019-07-29T20:35:00	0.2074	16.875	232.0	0.491671653	0.586428844	0.008448068	0.087157162	0.026862684
2019-07-29T20:40:00	0.2089	16.848	231.9	0.496691872	0.593349068	0.008605847	0.088784935	0.027364379
2019-07-29T20:45:00	0.2084	16.843	231.8	0.495176647	0.591258244	0.008558072	0.088292055	0.027212469
2019-07-29T20:50:00	0.2094	16.813	231.7	0.498474246	0.595810884	0.008662214	0.089366461	0.027543611
2019-07-29T20:55:00	0.2104	16.795	231.6	0.501768658	0.600367852	0.008766881	0.090446291	0.027876425
2019-07-29T21:00:00	0.2109	16.770	231.5	0.503687954	0.603026725	0.008828147	0.091078370	0.028071238
2019-07-29T21:05:00	0.2100	16.771	231.4	0.500459373	0.598555748	0.008725208	0.090016365	0.027743918
2019-07-29T21:10:00	0.2079	16.777	231.5	0.493444887	0.588870884	0.008503633	0.087730411	0.027039365
2019-07-29T21:15:00	0.2057	16.759	231.4	0.485726246	0.578259394	0.008263088	0.085248757	0.026274495
2019-07-29T21:20:00	0.2084	16.730	231.3	0.494885036	0.590856069	0.008548893	0.088197355	0.027183281
2019-07-29T21:25:00	0.2063	16.716	231.2	0.487859043	0.581186768	0.008329212	0.085930948	0.026484753
2019-07-29T21:30:00	0.2059	16.691	231.0	0.486339877	0.579101261	0.008282086	0.085444755	0.026334903
2019-07-29T21:35:00	0.2061	16.660	230.9	0.487233896	0.580328345	0.008309803	0.085730711	0.026423038
2019-07-29T21:40:00	0.2065	16.638	230.8	0.488472288	0.582029152	0.008348273	0.086127598	0.026545362
2019-07-29T21:45:00	0.2062	16.616	230.6	0.487298122	0.580416522	0.008311796	0.085751272	0.026429375
2019-07-29T21:50:00	0.2071	16.598	230.5	0.490603362	0.584958842	0.008414681	0.086812708	0.026756520
2019-07-29T21:55:00	0.2075	16.557	230.3	0.491840526	0.586661301	0.008453352	0.087211675	0.026879485
2019-07-29T22:00:00	0.2064	16.528	230.3	0.488256098	0.581732148	0.008341551	0.086058247	0.026523987
2019-07-29T22:05:00	0.2063	16.508	230.2	0.487816961	0.581128974	0.008327905	0.085917462	0.026480596
2019-07-29T22:10:00	0.2078	16.487	230.0	0.492888512	0.588104391	0.008486179	0.087550346	0.026983867
2019-07-29T22:15:00	0.2075	16.464	229.9	0.491761530	0.586552558	0.008450880	0.087186173	0.026871625
2019-07-29T22:20:00	0.2079	16.444	229.8	0.493388025	0.588792538	0.008501848	0.087712000	0.027033690
2019-07-29T22:25:00	0.2069	16.421	229.7	0.489850914	0.583924000	0.008391203	0.086570499	0.026681868
2019-07-29T22:30:00	0.2098	16.397	229.5	0.499731156	0.597548465	0.008702073	0.089777684	0.027670354
2019-07-29T22:35:00	0.2068	16.375	229.4	0.489662005	0.583664265	0.008385314	0.086509743	0.026663143
2019-07-29T22:40:00	0.2076	16.365	229.3	0.492322261	0.587324547	0.008468434	0.087367273	0.026927442
2019-07-29T22:45:00	0.2087	16.350	229.1	0.496012075	0.592410803	0.008584397	0.088563638	0.027296173
2019-07-29T22:50:00	0.2066	16.329	229.1	0.488689557	0.582327676	0.008355032	0.086197324	0.026566852
2019-07-29T22:55:00	0.2060	16.310	229.0	0.486871748	0.579831202	0.008298570	0.085614819	0.026387319
2019-07-29T23:00:00	0.2077	16.292	228.8	0.492633114	0.587752624	0.008478173	0.087467750	0.026958410
2019-07-29T23:05:00	0.2082	16.268	228.8	0.494259193	0.589993166	0.008529210	0.087994284	0.027120693
2019-07-29T23:10:00	0.2056	16.255	228.7	0.485553632	0.578022631	0.008257748	0.085193663	0.026257514
2019-07-29T23:15:00	0.2090	16.239	228.6	0.497165329	0.594002759	0.008620802	0.088939223	0.027411932
2019-07-29T23:20:00	0.2085	16.217	228.4	0.495352045	0.591500178	0.008563596	0.088349039	0.027230032
2019-07-29T23:25:00	0.2085	16.201	228.3	0.495257745	0.591370102	0.008560626	0.088318400	0.027220589
2019-07-29T23:30:00	0.2074	16.184	228.2	0.491722577	0.586498939	0.008449661	0.087173599	0.026867750
2019-07-29T23:35:00	0.2087	16.171	228.1	0.496100746	0.592533168	0.008587193	0.088592488	0.027305065
2019-07-29T23:40:00	0.2111	16.149	228.0	0.504248358	0.603803634	0.008846077	0.091263341	0.028128248
2019-07-29T23:45:00	0.2091	16.133	227.9	0.497287255	0.594171128	0.008624655	0.088978977	0.027424185
2019-07-29T23:50:00	0.2093	16.112	227.8	0.498223976	0.595465057	0.008654288	0.089284693	0.027518409
2019-07-29T23:55:00	0.2096	16.098	227.7	0.499160439	0.596759335	0.008683963	0.089590846	0.027612769
2019-07-30T00:00:00	0.2074	16.079	227.5	0.491500433	0.586193177	0.008442713	0.087101909	0.026845654
2019-07-30T00:05:00	0.2085	16.062	227.5	0.495535030	0.591752601	0.008569360	0.088408508	0.027248361
2019-07-30T00:10:00	0.2074	16.046	227.3	0.491655900	0.586407160	0.008447575	0.087152078	0.026861117
2019-07-30T00:15:00	0.2101	16.033	227.3	0.500844305	0.599088367	0.008737450	0.090142658	0.027782843
2019-07-30T00:20:00	0.2102	16.014	227.1	0.501093489	0.599433218	0.008745379	0.090224460	0.027808055
2019-07-30T00:25:00	0.2104	15.999	227.0	0.502029165	0.600728567	0.008775184	0.090531954	0.027902828
2019-07-30T00:30:00	0.2107	15.982	227.0	0.502964584	0.602024266	0.008805031	0.090839886	0.027997735
2019-07-30T00:35:00	0.2106	15.966	226.9	0.502527341	0.601418529	0.008791073	0.090695884	0.027953352
2019-07-30T00:40:00	0.2098	15.948	226.8	0.499686693	0.597486976	0.008700662	0.089763121	0.027665866
2019-07-30T00:45:00	0.2100	15.935	226.7	0.500622754	0.598781800	0.008730403	0.090069958	0.027760436
2019-07-30T00:50:00	0.2110	15.920	226.6	0.503960591	0.603404661	0.008836868	0.091168335	0.028098966
2019-07-30T00:55:00	0.2119	15.904	226.5	0.506952460	0.607555987	0.008932844	0.092158509	0.028404148
2019-07-30T01:00:00	0.2123	15.890	226.4	0.508571730	0.609805793	0.008985005	0.092696642	0.028570005
2019-07-30T01:05:00	0.2116	15.874	226.3	0.506078937	0.606343197	0.008904769	0.091868860	0.028314875
2019-07-30T01:10:00	0.2108	15.859	226.2	0.503241243	0.602407615	0.008813869	0.090931059	0.028025836
2019-07-30T01:15:00	0.2107	15.844	226.2	0.502804035	0.601801830	0.008799905	0.090786997	0.027981434
2019-07-30T01:20:00	0.2101	15.830	226.1	0.500993748	0.599295178	0.008742205	0.090191712	0.027797962
2019-07-30T01:25:00	0.2124	15.816	226.0	0.508787179	0.610105296	0.008991957	0.092768360	0.028592110
2019-07-30T01:30:00	0.2130	15.799	225.9	0.510747946	0.612832748	0.009055346	0.093422330	0.028793670
2019-07-30T01:35:00	0.2138	15.783	225.8	0.513391823	0.616515334	0.009141171	0.094307774	0.029066572
2019-07-30T01:40:00	0.2129	15.770	225.8	0.510560191	0.612571445	0.009049266	0.093359609	0.028774338
2019-07-30T01:45:00	0.2134	15.756	225.7	0.512177756	0.614823591	0.009101710	0.093900660	0.028941095
2019-07-30T01:50:00	0.2143	15.744	225.6	0.515162454	0.618984757	0.009198875	0.094903101	0.029250057
2019-07-30T01:55:00	0.2163	15.734	225.5	0.522241420	0.628882847	0.009431395	0.097301963	0.029989410
2019-07-30T02:00:00	0.2172	15.725	225.5	0.525217388	0.633056096	0.009530015	0.098319404	0.030302995
2019-07-30T02:05:00	0.2158	15.720	225.5	0.520347767	0.626231089	0.009368910	0.096657316	0.029790724
2019-07-30T02:10:00	0.2150	15.712	225.4	0.517521874	0.622279281	0.009276051	0.095699307	0.029495456
2019-07-30T02:15:00	0.2147	15.704	225.4	0.516744754	0.621193669	0.009250596	0.095436694	0.029414516
2019-07-30T02:20:00	0.2161	15.698	225.3	0.521432318	0.627749473	0.009404671	0.097026262	0.029904436
2019-07-30T02:25:00	0.2148	15.691	225.3	0.516899078	0.621409215	0.009255648	0.095488816	0.029430580
2019-07-30T02:30:00	0.2158	15.685	225.2	0.520221092	0.626053804	0.009364737	0.096614270	0.029777456
2019-07-30T02:35:00	0.2151	15.682	225.2	0.518078393	0.623057022	0.009294301	0.095887595	0.029553488
2019-07-30T02:40:00	0.2154	15.675	225.2	0.519009439	0.624358727	0.009324875	0.096203012	0.029650703
2019-07-30T02:45:00	0.2165	15.670	225.2	0.522670591	0.629484237	0.009445585	0.097448363	0.030034532
2019-07-30T02:50:00	0.2142	15.668	225.1	0.515063122	0.618846155	0.009195633	0.094869653	0.029239749
2019-07-30T02:55:00	0.2139	15.667	225.1	0.513943435	0.617284371	0.009159128	0.094493037	0.029123672
2019-07-30T03:00:00	0.2121	15.665	225.1	0.507687444	0.608576908	0.008956501	0.092402573	0.028479370
2019-07-30T03:05:00	0.2144	15.663	225.1	0.515465660	0.619407879	0.009208775	0.095005233	0.029281536
2019-07-30T03:10:00	0.2129	15.659	225.1	0.510582178	0.612602043	0.009049978	0.093366953	0.028776602
2019-07-30T03:15:00	0.2129	15.660	225.1	0.510488297	0.612471395	0.009046939	0.093335598	0.028766938
2019-07-30T03:20:00	0.2133	15.657	225.1	0.511763668	0.614246852	0.009088270	0.093762005	0.028898361
2019-07-30T03:25:00	0.2137	15.658	225.0	0.513038564	0.616022962	0.009129680	0.094189224	0.029030034
2019-07-30T03:30:00	0.2144	15.654	225.0	0.515680676	0.619707978	0.009215798	0.095077694	0.029303869
2019-07-30T03:35:00	0.2171	15.655	225.1	0.524804869	0.632477185	0.009516314	0.098178053	0.030259429
2019-07-30T03:40:00	0.2136	15.663	225.1	0.512757116	0.615630752	0.009120530	0.094094827	0.029000940
2019-07-30T03:45:00	0.2136	15.654	225.1	0.513005433	0.615976789	0.009128603	0.094178110	0.029026608
2019-07-30T03:50:00	0.2131	15.651	225.1	0.511200539	0.613462753	0.009070009	0.093573609	0.028840295
2019-07-30T03:55:00	0.2132	15.655	225.1	0.511448969	0.613808635	0.009078063	0.093656698	0.028865904
2019-07-30T04:00:00	0.2151	15.650	225.0	0.517852384	0.622741141	0.009286888	0.095811107	0.029529914
2019-07-30T04:05:00	0.2145	15.652	225.1	0.515801943	0.619877248	0.009219761	0.095118573	0.029316468
2019-07-30T04:10:00	0.2153	15.656	225.0	0.518535592	0.623696147	0.009309308	0.096042418	0.029601206
2019-07-30T04:15:00	0.2153	15.652	225.1	0.518535592	0.623696147	0.009309308	0.096042418	0.029601206
2019-07-30T04:20:00	0.2153	15.659	225.1	0.518535592	0.623696147	0.009309308	0.096042418	0.029601206
2019-07-30T04:25:00	0.2147	15.658	225.0	0.516485559	0.620831691	0.009242114	0.095349184	0.029387544
2019-07-30T04:30:00	0.2162	15.659	225.0	0.521608347	0.627996006	0.009410482	0.097086210	0.029922913
2019-07-30T04:35:00	0.2158	15.666	225.0	0.520243017	0.626084488	0.009365460	0.096621719	0.029779752
2019-07-30T04:40:00	0.2151	15.663	225.1	0.517852384	0.622741141	0.009286888	0.095811107	0.029529914
2019-07-30T04:45:00	0.2139	15.664	225.0	0.513750277	0.617015048	0.009152838	0.094428143	0.029103671
2019-07-30T04:50:00	0.2153	15.667	225.0	0.518535592	0.623696147	0.009309308	0.096042418	0.029601206
2019-07-30T04:55:00	0.2136	15.662	225.0	0.512723983	0.615584583	0.009119453	0.094083717	0.028997515
2019-07-30T05:00:00	0.2151	15.675	225.1	0.517852384	0.622741141	0.009286888	0.095811107	0.029529914
2019-07-30T05:05:00	0.2160	15.663	225.0	0.520925750	0.627040153	0.009387960	0.096853848	0.029851297
2019-07-30T05:10:00	0.2176	15.676	225.0	0.526382737	0.634692245	0.009568773	0.098719269	0.030426237
2019-07-30T05:15:00	0.2162	15.664	225.0	0.521608347	0.627996006	0.009410482	0.097086210	0.029922913
2019-07-30T05:20:00	0.2171	15.673	225.0	0.524678358	0.632299673	0.009512114	0.098134724	0.030246075
2019-07-30T05:25:00	0.2159	15.683	225.0	0.520584400	0.626562297	0.009376707	0.096737755	0.029815516
2019-07-30T05:30:00	0.2179	15.683	225.1	0.527404960	0.636128352	0.009602836	0.099070694	0.030534550
2019-07-30T05:35:00	0.2179	15.699	225.1	0.527404960	0.636128352	0.009602836	0.099070694	0.030534550
2019-07-30T05:40:00	0.2168	15.693	225.1	0.523655326	0.630864694	0.009478186	0.097784695	0.030138193
2019-07-30T05:45:00	0.2191	15.706	224.8	0.531490820	0.641877012	0.009739597	0.100481624	0.030969412
2019-07-30T05:50:00	0.2193	15.707	225.1	0.532171326	0.642835781	0.009762469	0.100717592	0.031042140
2019-07-30T05:55:00	0.2185	15.719	225.2	0.529448495	0.639001836	0.009671115	0.099775113	0.030751659
2019-07-30T06:00:00	0.2187	15.718	225.2	0.530129405	0.639960040	0.009693920	0.100010385	0.030824172
2019-07-30T06:05:00	0.2186	15.741	225.2	0.529788967	0.639480914	0.009682515	0.099892720	0.030787906
2019-07-30T06:10:00	0.2196	15.745	225.3	0.533191834	0.644274286	0.009796819	0.101071979	0.031151366
2019-07-30T06:15:00	0.2185	15.743	225.3	0.529448495	0.639001836	0.009671115	0.099775113	0.030751659
2019-07-30T06:20:00	0.2187	15.742	225.3	0.530129405	0.639960040	0.009693920	0.100010385	0.030824172
2019-07-30T06:25:00	0.2204	15.756	225.3	0.535911715	0.648112368	0.009888668	0.102019562	0.031443420
2019-07-30T06:30:00	0.2194	15.754	225.3	0.532511529	0.643315235	0.009773913	0.100835663	0.031078531
2019-07-30T06:35:00	0.2195	15.766	225.3	0.532851699	0.643794737	0.009785364	0.100953792	0.031114939
2019-07-30T06:40:00	0.2194	15.784	225.4	0.532511529	0.643315235	0.009773913	0.100835663	0.031078531
2019-07-30T06:45:00	0.2206	15.790	225.4	0.536591351	0.649072359	0.009911686	0.102257037	0.031516612
2019-07-30T06:50:00	0.2197	15.800	225.5	0.533531937	0.644753882	0.009808281	0.101190224	0.031187810
2019-07-30T06:55:00	0.2175	15.828	225.7	0.526041929	0.634213636	0.009557430	0.098602243	0.030390169
2019-07-30T07:00:00	0.2202	15.854	225.8	0.535231946	0.647152566	0.009865672	0.101782319	0.031370299
2019-07-30T07:05:00	0.2194	15.867	225.8	0.532511529	0.643315235	0.009773913	0.100835663	0.031078531
2019-07-30T07:10:00	0.2197	15.881	225.9	0.533531937	0.644753882	0.009808281	0.101190224	0.031187810
2019-07-30T07:15:00	0.2198	15.902	225.9	0.533872005	0.645233524	0.009819748	0.101308527	0.031224272
2019-07-30T07:20:00	0.2187	15.929	226.1	0.530129405	0.639960040	0.009693920	0.100010385	0.030824172
2019-07-30T07:25:00	0.2197	15.963	226.2	0.533531937	0.644753882	0.009808281	0.101190224	0.031187810
2019-07-30T07:30:00	0.2196	15.992	226.3	0.533191834	0.644274286	0.009796819	0.101071979	0.031151366
2019-07-30T07:35:00	0.2189	16.049	226.5	0.530810179	0.640918432	0.009716747	0.100245888	0.030896756
2019-07-30T07:40:00	0.2168	16.067	226.8	0.523655326	0.630864694	0.009478186	0.097784695	0.030138193
2019-07-30T07:45:00	0.2171	16.074	226.9	0.524678358	0.632299673	0.009512114	0.098134724	0.030246075
2019-07-30T07:50:00	0.2175	16.114	227.2	0.526041929	0.634213636	0.009557430	0.098602243	0.030390169
2019-07-30T07:55:00	0.2171	16.139	227.2	0.524678358	0.632299673	0.009512114	0.098134724	0.030246075
2019-07-30T08:00:00	0.2159	16.190	227.5	0.520584400	0.626562297	0.009376707	0.096737755	0.029815516
2019-07-30T08:05:00	0.2170	16.191	227.5	0.524337381	0.631821300	0.009500799	0.098017989	0.030210096
2019-07-30T08:10:00	0.2148	16.218	227.6	0.516827316	0.621308983	0.009253299	0.095464577	0.029423110
2019-07-30T08:15:00	0.2154	16.225	227.7	0.518877145	0.624173721	0.009320527	0.096158162	0.029636879
2019-07-30T08:20:00	0.2148	16.264	227.9	0.516827316	0.621308983	0.009253299	0.095464577	0.029423110
2019-07-30T08:25:00	0.2144	16.279	227.9	0.515460084	0.619400097	0.009208593	0.095003355	0.029280957
2019-07-30T08:30:00	0.2141	16.326	228.2	0.514434302	0.617968927	0.009175123	0.094658052	0.029174531
2019-07-30T08:35:00	0.2162	16.349	228.3	0.521608347	0.627996006	0.009410482	0.097086210	0.029922913
2019-07-30T08:40:00	0.2153	16.350	228.4	0.518535592	0.623696147	0.009309308	0.096042418	0.029601206
2019-07-30T08:45:00	0.2144	16.367	228.5	0.515460084	0.619400097	0.009208593	0.095003355	0.029280957
2019-07-30T08:50:00	0.2152	16.380	228.6	0.518194005	0.623218620	0.009298095	0.095926733	0.029565551
2019-07-30T08:55:00	0.2138	16.424	228.8	0.513408213	0.616538180	0.009141704	0.094313276	0.029068268
2019-07-30T09:00:00	0.2121	16.469	229.0	0.507587895	0.608438605	0.008953295	0.092369497	0.028469176
2019-07-30T09:05:00	0.2114	16.492	229.2	0.505188413	0.605107435	0.008876193	0.091574043	0.028224009
2019-07-30T09:10:00	0.2118	16.567	229.5	0.506559752	0.607010679	0.008920217	0.092028236	0.028363996
2019-07-30T09:15:00	0.2122	16.581	229.7	0.507930541	0.608914674	0.008964333	0.092483368	0.028504272
2019-07-30T09:20:00	0.2117	16.622	229.9	0.506216969	0.606534797	0.008909202	0.091914600	0.028328972
2019-07-30T09:25:00	0.2125	16.681	230.0	0.508958272	0.610343165	0.008997479	0.092825333	0.028609669
2019-07-30T09:30:00	0.2094	16.767	230.5	0.498323448	0.595602503	0.008657438	0.089317188	0.027528425
2019-07-30T09:35:00	0.2097	16.847	230.9	0.499354073	0.597027044	0.008690105	0.089654215	0.027632300
2019-07-30T09:40:00	0.2091	16.883	231.0	0.497292510	0.594178385	0.008624821	0.088980691	0.027424713
2019-07-30T09:45:00	0.2093	16.899	231.1	0.497979837	0.595127750	0.008646560	0.089204963	0.027493836
2019-07-30T09:50:00	0.2094	16.923	231.2	0.498323448	0.595602503	0.008657438	0.089317188	0.027528425
2019-07-30T09:55:00	0.2094	16.931	231.2	0.498323448	0.595602503	0.008657438	0.089317188	0.027528425
2019-07-30T10:00:00	0.2082	16.985	231.3	0.494197826	0.589908571	0.008527281	0.087974385	0.027114560
2019-07-30T10:05:00	0.2075	17.060	231.5	0.491834561	0.586653089	0.008453165	0.087209749	0.026878892
2019-07-30T10:10:00	0.2101	17.040	231.6	0.500818834	0.599053119	0.008736639	0.090134298	0.027780266
2019-07-30T10:15:00	0.2070	17.074	231.6	0.490204240	0.584409874	0.008402223	0.086684191	0.026716909
2019-07-30T10:20:00	0.2098	17.106	231.8	0.499879753	0.597753972	0.008706791	0.089826362	0.027685357
2019-07-30T10:25:00	0.2069	17.155	232.2	0.489951177	0.584061866	0.008394330	0.086602754	0.026691810
2019-07-30T10:30:00	0.2067	17.221	232.6	0.489307920	0.583177502	0.008374282	0.086395921	0.026628062
2019-07-30T10:35:00	0.2085	17.250	232.8	0.495205082	0.591297464	0.008558968	0.088301292	0.027215316
2019-07-30T10:40:00	0.2072	17.283	232.9	0.490777007	0.585197721	0.008420103	0.086868651	0.026773762
2019-07-30T10:45:00	0.2048	17.356	233.3	0.482548171	0.573904067	0.008165041	0.084237227	0.025962732
2019-07-30T10:50:00	0.2045	17.422	233.7	0.481558234	0.572549077	0.008134619	0.083923368	0.025865997
2019-07-30T10:55:00	0.2048	17.436	214.7	0.482639736	0.574029438	0.008167858	0.084266287	0.025971688
2019-07-30T11:00:00	0.2056	17.405	201.2	0.485445817	0.577874761	0.008254413	0.085159260	0.026246911
2019-07-30T11:05:00	0.2048	17.469	201.0	0.482731299	0.574154812	0.008170675	0.084295352	0.025980646
2019-07-30T11:10:00	0.2048	17.559	200.6	0.482777079	0.574217500	0.008172084	0.084309885	0.025985125
2019-07-30T11:15:00	0.2035	17.561	202.7	0.477987116	0.567667554	0.008025341	0.082795966	0.025518521
2019-07-30T11:20:00	0.2062	17.534	201.9	0.487352743	0.580491515	0.008313492	0.085768760	0.026434765
2019-07-30T11:25:00	0.2054	17.552	200.7	0.484639750	0.576769521	0.008229503	0.084902270	0.026167704
2019-07-30T11:30:00	0.2052	17.577	199.0	0.483995486	0.575886509	0.008209621	0.084697142	0.026104482
2019-07-30T11:35:00	0.2057	17.603	197.1	0.485766010	0.578313939	0.008264319	0.085261451	0.026278407
2019-07-30T11:40:00	0.2052	17.592	195.0	0.484087012	0.576011932	0.008212444	0.084726268	0.026113459
2019-07-30T11:45:00	0.2039	17.651	190.4	0.479644407	0.569931716	0.008075964	0.083318235	0.025679489
2019-07-30T11:50:00	0.2033	17.621	187.0	0.477270984	0.566689864	0.008003515	0.082570791	0.025449120
2019-07-30T11:55:00	0.2043	17.568	188.8	0.480772327	0.571473913	0.008110507	0.083674610	0.025789327
2019-07-30T12:00:00	0.2050	17.574	197.9	0.483234849	0.574844428	0.008186177	0.084455279	0.026029937
2019-07-30T12:05:00	0.2033	17.614	190.4	0.477408545	0.566877636	0.008007705	0.082614021	0.025462444
2019-07-30T12:10:00	0.2027	17.645	185.5	0.475379493	0.564109497	0.007946008	0.081977503	0.025266263
2019-07-30T12:15:00	0.2002	17.720	262.8	0.466766319	0.552395406	0.007686731	0.079302591	0.024441829
2019-07-30T12:20:00	0.2018	17.751	266.0	0.472356592	0.559991575	0.007854529	0.081033723	0.024975380
2019-07-30T12:25:00	0.2006	17.744	265.9	0.468245217	0.554402546	0.007730948	0.079758766	0.024582426
2019-07-30T12:30:00	0.2008	17.694	262.6	0.468637826	0.554935682	0.007742707	0.079880086	0.024619818
2019-07-30T12:35:00	0.1988	17.713	260.9	0.461744465	0.545592756	0.007537518	0.077763185	0.023967369
2019-07-30T12:40:00	0.2009	17.674	258.7	0.469076355	0.555531319	0.007755853	0.080015702	0.024661617
2019-07-30T12:45:00	0.2000	17.702	256.4	0.466001796	0.551358486	0.007663922	0.079067275	0.024369302
2019-07-30T12:50:00	0.1994	17.766	253.8	0.463965876	0.548599434	0.007603345	0.078442308	0.024176681
2019-07-30T12:55:00	0.1976	17.841	251.0	0.457758478	0.540207513	0.007420107	0.076551880	0.023594033
2019-07-30T13:00:00	0.1972	17.790	247.2	0.456413386	0.538393069	0.007380691	0.076145227	0.023468699
2019-07-30T13:05:00	0.1971	17.775	243.7	0.455763711	0.537517212	0.007361690	0.075949196	0.023408280
2019-07-30T13:10:00	0.1985	17.818	239.7	0.460677461	0.544149955	0.007506000	0.077438016	0.023867149
2019-07-30T13:15:00	0.1980	17.870	238.2	0.458985945	0.541864535	0.007456167	0.076923900	0.023708693
2019-07-30T13:20:00	0.1966	17.855	235.8	0.454162061	0.535359372	0.007314949	0.075466978	0.023259655
2019-07-30T13:25:00	0.1965	17.853	233.5	0.453860109	0.534952791	0.007306153	0.075376236	0.023231688
2019-07-30T13:30:00	0.1962	17.915	231.8	0.452861715	0.533608958	0.007277108	0.075076582	0.023139332
2019-07-30T13:35:00	0.1962	17.894	227.8	0.452907902	0.533671108	0.007278450	0.075090432	0.023143600
2019-07-30T13:40:00	0.1946	17.878	223.8	0.447377714	0.526241527	0.007118579	0.073441069	0.022635251
2019-07-30T13:45:00	0.1949	17.845	220.9	0.448121522	0.527239401	0.007139981	0.073661864	0.022703302
2019-07-30T13:50:00	0.1962	17.776	217.5	0.452698219	0.533388968	0.007272357	0.075027567	0.023124225
2019-07-30T13:55:00	0.1948	17.794	212.4	0.447865282	0.526895588	0.007132604	0.073585764	0.022679847
2019-07-30T14:00:00	0.1957	17.790	209.0	0.451048892	0.531170916	0.007224515	0.074533986	0.022972098
2019-07-30T14:05:00	0.1955	17.774	206.0	0.450398178	0.530296411	0.007205682	0.074339691	0.022912215
2019-07-30T14:10:00	0.1949	17.756	203.4	0.448352780	0.527549740	0.007146641	0.073730578	0.022724480
2019-07-30T14:15:00	0.1952	17.812	202.7	0.449444988	0.529016006	0.007178138	0.074055529	0.022824633
2019-07-30T14:20:00	0.1941	17.824	201.6	0.445654497	0.523931377	0.007069118	0.072930790	0.022477978
2019-07-30T14:25:00	0.1939	17.837	199.3	0.444653655	0.522590717	0.007040469	0.072635219	0.022386880
2019-07-30T14:30:00	0.1942	17.874	196.0	0.445747071	0.524055422	0.007071771	0.072958158	0.022486413
2019-07-30T14:35:00	0.1930	17.853	193.3	0.441602989	0.518509107	0.006953493	0.071737907	0.022110320
2019-07-30T14:40:00	0.1935	17.859	191.8	0.443395933	0.520907073	0.007004547	0.072264617	0.022272657
2019-07-30T14:45:00	0.1928	17.866	188.8	0.441016077	0.517698920	0.006936475	0.071562338	0.022056207
2019-07-30T14:50:00	0.1918	17.884	185.9	0.438334890	0.513097471	0.006846930	0.070638513	0.021771476
2019-07-30T14:55:00	0.1924	17.850	183.5	0.440001768	0.515955798	0.006902516	0.071211985	0.021948225
2019-07-30T15:00:00	0.1927	17.861	180.3	0.440581039	0.516950942	0.006921898	0.071411942	0.022009854
2019-07-30T15:05:00	0.1925	17.942	177.3	0.440073830	0.516079544	0.006904925	0.071236841	0.021955886
2019-07-30T15:10:00	0.1930	17.950	175.4	0.441577977	0.518475673	0.006952782	0.071730573	0.022108059
2019-07-30T15:15:00	0.1925	17.927	173.0	0.440145889	0.516203299	0.006907335	0.071261702	0.021963549
2019-07-30T15:20:00	0.1944	17.930	169.3	0.446558816	0.525143419	0.007095054	0.073198360	0.022560445
2019-07-30T15:25:00	0.1933	17.877	167.9	0.442765054	0.520063019	0.006986562	0.072079070	0.022215469
2019-07-30T15:30:00	0.1930	17.835	165.7	0.441763347	0.518723475	0.006958052	0.071784939	0.022124815
2019-07-30T15:35:00	0.1935	17.862	165.5	0.443556204	0.521121551	0.007009119	0.072311791	0.022287196
2019-07-30T15:40:00	0.1923	17.863	164.9	0.439510974	0.515113387	0.006886121	0.071042837	0.021896092
2019-07-30T15:45:00	0.1924	17.831	164.4	0.439818737	0.515641561	0.006896399	0.071148876	0.021928775
2019-07-30T15:50:00	0.1939	17.776	164.3	0.444742579	0.522709802	0.007043012	0.072661456	0.022394966
2019-07-30T15:55:00	0.1947	17.781	165.2	0.447580382	0.526513379	0.007124407	0.073501198	0.022653783
2019-07-30T16:00:00	0.1934	17.789	165.8	0.443089330	0.520496829	0.006995803	0.072174413	0.022244855
2019-07-30T16:05:00	0.1931	17.759	166.3	0.441899242	0.518905155	0.006961916	0.071824807	0.022137103
2019-07-30T16:10:00	0.1943	17.783	167.0	0.446296213	0.524791391	0.007087518	0.073120612	0.022536483
2019-07-30T16:15:00	0.1934	17.746	166.0	0.443012309	0.520393784	0.006993608	0.072151762	0.022237874
2019-07-30T16:20:00	0.1932	17.741	165.2	0.442171568	0.519269278	0.006969664	0.071904734	0.022161737
2019-07-30T16:25:00	0.1941	17.749	164.9	0.445521325	0.523752943	0.007065303	0.072891427	0.022465846
2019-07-30T16:30:00	0.1946	17.726	163.7	0.447123986	0.525901232	0.007111286	0.073365826	0.022612060
2019-07-30T16:35:00	0.1952	17.696	161.8	0.449423154	0.528986685	0.007177508	0.074049026	0.022822629
2019-07-30T16:40:00	0.1925	17.671	160.6	0.440129305	0.516174817	0.006906780	0.071255980	0.021961785
2019-07-30T16:45:00	0.1939	17.674	160.0	0.444953315	0.522992038	0.007049041	0.072723653	0.022414136
2019-07-30T16:50:00	0.1944	17.675	160.1	0.446556248	0.525139976	0.007094980	0.073197599	0.022560211
2019-07-30T16:55:00	0.1929	17.701	160.0	0.441176492	0.517939061	0.006941376	0.071612893	0.022071789
2019-07-30T17:00:00	0.1916	17.712	157.4	0.437784052	0.512154612	0.006828621	0.070449626	0.021713259
2019-07-30T17:05:00	0.1912	17.682	156.8	0.436584832	0.510104867	0.006788865	0.070039474	0.021586846
2019-07-30T17:10:00	0.1923	17.631	155.5	0.439737801	0.515502635	0.006893695	0.071120980	0.021920177
2019-07-30T17:15:00	0.1914	17.638	154.1	0.437179895	0.511121466	0.006808575	0.070242812	0.021649517
2019-07-30T17:20:00	0.1929	17.613	153.3	0.441164538	0.517923086	0.006941036	0.071609391	0.022070710
2019-07-30T17:25:00	0.1936	17.572	153.1	0.443817006	0.521470602	0.007016563	0.072388587	0.022310866
2019-07-30T17:30:00	0.1944	17.546	153.8	0.446467372	0.525020829	0.007092429	0.073171282	0.022552100
2019-07-30T17:35:00	0.1940	17.532	153.6	0.445278485	0.523427605	0.007058348	0.072819676	0.022443731
2019-07-30T17:40:00	0.1940	17.523	153.5	0.445136482	0.523237380	0.007054283	0.072777735	0.022430805
2019-07-30T17:45:00	0.1935	17.485	153.3	0.443248707	0.520710071	0.007000348	0.072221295	0.022259305
2019-07-30T17:50:00	0.1935	17.455	154.0	0.443455857	0.520987263	0.007006256	0.072282253	0.022278092
2019-07-30T17:55:00	0.1958	17.432	154.7	0.451336615	0.531557698	0.007232850	0.074619975	0.022998601
2019-07-30T18:00:00	0.1953	17.403	155.0	0.449800912	0.529494029	0.007188417	0.074161573	0.022857317
2019-07-30T18:05:00	0.1952	17.394	158.3	0.449310505	0.528835415	0.007174256	0.074015480	0.022812290
2019-07-30T18:10:00	0.1937	17.374	160.9	0.443935178	0.521628780	0.007019937	0.072423398	0.022321595
2019-07-30T18:15:00	0.1945	17.349	162.2	0.446934329	0.525646901	0.007105837	0.073309608	0.022594733
2019-07-30T18:20:00	0.1947	17.329	162.9	0.447490072	0.526392236	0.007121810	0.073474401	0.022645524
2019-07-30T18:25:00	0.1946	17.281	163.3	0.447348162	0.526201890	0.007117730	0.073432304	0.022632549
2019-07-30T18:30:00	0.1961	17.247	164.7	0.452434637	0.533034353	0.007264701	0.074948580	0.023099880
2019-07-30T18:35:00	0.1963	17.217	165.9	0.452989469	0.533780870	0.007280821	0.075114893	0.023151140
2019-07-30T18:40:00	0.1963	17.173	167.0	0.453196018	0.534058841	0.007286827	0.075176853	0.023170236
2019-07-30T18:45:00	0.1975	17.140	168.9	0.457230433	0.539495043	0.007404621	0.076392113	0.023544791
2019-07-30T18:50:00	0.1979	17.112	161.0	0.458827511	0.541650590	0.007451508	0.076875833	0.023693878
2019-07-30T18:55:00	0.2004	17.068	167.9	0.467365881	0.553208915	0.007704642	0.079487374	0.024498781
2019-07-30T19:00:00	0.2005	17.032	171.2	0.467918256	0.553958650	0.007721162	0.079657802	0.024551308
2019-07-30T19:05:00	0.2008	16.989	174.5	0.468817154	0.555179238	0.007748082	0.079935530	0.024636907
2019-07-30T19:10:00	0.1982	16.963	175.3	0.459652199	0.542764445	0.007475776	0.077126199	0.023771044
2019-07-30T19:15:00	0.2013	16.927	176.0	0.470614233	0.557621362	0.007802038	0.080492192	0.024808475
2019-07-30T19:20:00	0.2024	16.901	175.6	0.474281834	0.562613380	0.007912730	0.081634179	0.025160447
2019-07-30T19:25:00	0.2018	16.866	177.3	0.472410356	0.560064751	0.007856151	0.081050461	0.024980539
2019-07-30T19:30:00	0.2023	16.838	178.7	0.474000259	0.562229745	0.007904205	0.081546223	0.025133338
2019-07-30T19:35:00	0.2010	16.815	181.3	0.469357438	0.555913183	0.007764284	0.080102688	0.024688426
2019-07-30T19:40:00	0.2015	16.794	183.7	0.471295138	0.558547343	0.007822531	0.080703606	0.024873635
2019-07-30T19:45:00	0.2036	16.762	184.6	0.478419894	0.568258596	0.008038546	0.082932192	0.025560507
2019-07-30T19:50:00	0.2025	16.734	185.1	0.474821244	0.563348480	0.007929075	0.081802806	0.025212419
2019-07-30T19:55:00	0.2046	16.698	186.1	0.481938586	0.573069597	0.008146301	0.084043890	0.025903143
2019-07-30T20:00:00	0.2047	16.672	185.6	0.482143370	0.573349896	0.008152595	0.084108815	0.025923154
2019-07-30T20:05:00	0.2056	16.644	186.8	0.485453630	0.577885476	0.008254655	0.085161753	0.026247679
2019-07-30T20:10:00	0.2062	16.620	189.7	0.487382141	0.580531880	0.008314404	0.085778173	0.026437666
2019-07-30T20:15:00	0.2065	16.600	191.6	0.488620479	0.582232759	0.008352883	0.086175152	0.026560019
2019-07-30T20:20:00	0.2057	16.573	194.0	0.485722458	0.578254197	0.008262971	0.085247548	0.026274122
2019-07-30T20:25:00	0.2069	16.555	194.7	0.489718226	0.583741562	0.008387067	0.086527822	0.026668715
2019-07-30T20:30:00	0.2075	16.537	195.8	0.491988571	0.586865107	0.008457986	0.087259478	0.026894219
2019-07-30T20:35:00	0.2067	16.521	195.9	0.489093422	0.582882679	0.008367602	0.086327005	0.026606821
2019-07-30T20:40:00	0.2083	16.497	197.9	0.494805410	0.590746263	0.008546388	0.088171505	0.027175314
2019-07-30T20:45:00	0.2084	16.478	199.0	0.495009420	0.591027604	0.008552808	0.088237742	0.027195729
2019-07-30T20:50:00	0.2079	16.460	200.2	0.493149347	0.588463701	0.008494359	0.087634739	0.027009878
2019-07-30T20:55:00	0.2084	16.444	201.3	0.495073499	0.591115980	0.008554825	0.088258552	0.027202143
2019-07-30T21:00:00	0.2094	16.425	202.0	0.498371198	0.595668485	0.008658950	0.089332789	0.027533233
2019-07-30T21:05:00	0.2086	16.405	202.0	0.495825338	0.592153132	0.008578509	0.088502897	0.027277452
2019-07-30T21:10:00	0.2092	16.391	203.1	0.497747980	0.594807457	0.008639224	0.089129278	0.027470509
2019-07-30T21:15:00	0.2073	16.370	204.9	0.491072245	0.585603928	0.008429327	0.086963809	0.026803090
2019-07-30T21:20:00	0.2076	16.358	205.9	0.492309240	0.587306617	0.008468026	0.087363065	0.026926145
2019-07-30T21:25:00	0.2085	16.344	221.4	0.495265730	0.591381117	0.008560877	0.088320994	0.027221388
2019-07-30T21:30:00	0.2070	16.338	208.4	0.490307575	0.584551992	0.008405448	0.086717455	0.026727162
2019-07-30T21:35:00	0.2083	16.320	208.5	0.494641943	0.590520859	0.008541245	0.088118450	0.027158962
2019-07-30T21:40:00	0.2083	16.301	209.6	0.494845963	0.590802186	0.008547664	0.088184670	0.027179372
2019-07-30T21:45:00	0.2100	16.289	209.7	0.500548318	0.598678808	0.008728036	0.090045539	0.027752910
2019-07-30T21:50:00	0.2092	16.273	210.1	0.497660441	0.594686539	0.008636455	0.089100710	0.027461704
2019-07-30T21:55:00	0.2114	16.257	210.8	0.505415998	0.605423189	0.008883491	0.091649342	0.028247217
2019-07-30T22:00:00	0.2114	16.241	225.8	0.505276497	0.605229639	0.008879017	0.091603183	0.028232991
2019-07-30T22:05:00	0.2093	16.239	211.6	0.497973882	0.595119523	0.008646371	0.089203019	0.027493237
2019-07-30T22:10:00	0.2074	16.234	211.9	0.491688537	0.586452083	0.008448596	0.087162612	0.026864363
2019-07-30T22:15:00	0.2097	16.225	212.2	0.499503231	0.597233282	0.008694838	0.089703044	0.027647349
2019-07-30T22:20:00	0.2079	16.207	212.5	0.493220711	0.588562017	0.008496598	0.087657836	0.027016996
2019-07-30T22:25:00	0.2098	16.192	212.8	0.500001776	0.597922741	0.008710667	0.089866346	0.027697680
2019-07-30T22:30:00	0.2102	16.180	213.6	0.501281064	0.599692841	0.008751350	0.090286062	0.027827041
2019-07-30T22:35:00	0.2106	16.168	214.1	0.502559874	0.601463593	0.008792112	0.090706595	0.027956653
2019-07-30T22:40:00	0.2108	16.162	214.4	0.503152057	0.602284029	0.008811019	0.090901663	0.028016775
2019-07-30T22:45:00	0.2095	16.159	214.6	0.498938078	0.596451949	0.008676912	0.089518104	0.027590349
2019-07-30T22:50:00	0.2100	16.142	229.7	0.500561152	0.598696565	0.008728444	0.090049749	0.027754207
2019-07-30T22:55:00	0.2095	16.126	215.6	0.498749674	0.596191533	0.008670940	0.089456492	0.027571360
2019-07-30T23:00:00	0.2094	16.115	230.7	0.498311890	0.595586532	0.008657072	0.089313412	0.027527261
2019-07-30T23:05:00	0.2084	16.099	215.7	0.495123827	0.591185392	0.008556409	0.088274898	0.027207181
2019-07-30T23:10:00	0.2084	16.091	215.9	0.495029520	0.591055325	0.008553441	0.088244269	0.027197741
2019-07-30T23:15:00	0.2080	16.092	216.1	0.493559190	0.589028386	0.008507221	0.087767427	0.027050773
2019-07-30T23:20:00	0.2083	16.085	231.2	0.494840899	0.590795203	0.008547504	0.088183026	0.027178865
2019-07-30T23:25:00	0.2092	16.068	231.5	0.497840771	0.594935636	0.008642159	0.089159564	0.027479844
2019-07-30T23:30:00	0.2089	16.049	231.3	0.496715428	0.593381586	0.008606590	0.088792608	0.027366744
2019-07-30T23:35:00	0.2087	16.042	231.4	0.495933565	0.592302467	0.008581921	0.088538098	0.027288302
2019-07-30T23:40:00	0.2064	16.030	231.4	0.488266285	0.581746142	0.008341868	0.086061514	0.026524994
2019-07-30T23:45:00	0.2081	16.024	231.4	0.494025290	0.589670745	0.008521859	0.087918449	0.027097320
2019-07-30T23:50:00	0.2081	16.011	231.5	0.493930953	0.589540720	0.008518895	0.087887872	0.027087896
2019-07-30T23:55:00	0.2078	15.997	231.5	0.492804317	0.587988421	0.008483539	0.087523113	0.026975473
2019-07-31T00:00:00	0.2085	15.986	231.5	0.495462117	0.591652017	0.008567063	0.088384810	0.027241057
2019-07-31T00:05:00	0.2088	15.977	231.5	0.496399340	0.592945266	0.008596613	0.088689672	0.027335018
2019-07-31T00:10:00	0.2076	15.955	232.5	0.492176999	0.587124533	0.008463885	0.087320339	0.026912977
2019-07-31T00:15:00	0.2071	15.945	217.8	0.490705436	0.585099260	0.008417868	0.086845591	0.026766654
2019-07-31T00:20:00	0.2075	15.931	217.9	0.491988220	0.586864624	0.008457975	0.087259364	0.026894184
2019-07-31T00:25:00	0.2086	15.916	233.0	0.495678395	0.591950391	0.008573878	0.088455115	0.027262725
2019-07-31T00:30:00	0.2086	15.904	232.8	0.495584104	0.591820304	0.008570906	0.088424460	0.027253277
2019-07-31T00:35:00	0.2083	15.885	217.0	0.494801981	0.590741536	0.008546280	0.088170392	0.027174971
2019-07-31T00:40:00	0.2078	15.871	216.4	0.492987438	0.588240659	0.008489281	0.087582349	0.026993730
2019-07-31T00:45:00	0.2078	15.857	230.6	0.492893072	0.588110673	0.008486322	0.087551821	0.026984321
2019-07-31T00:50:00	0.2065	15.838	215.2	0.488321787	0.581822389	0.008343594	0.086079316	0.026530481
2019-07-31T00:55:00	0.2050	15.823	229.4	0.483399256	0.575069628	0.008191241	0.084507527	0.026046041
2019-07-31T01:00:00	0.2042	15.806	214.2	0.480542580	0.571159698	0.008103465	0.083601958	0.025766936
2019-07-31T01:05:00	0.2063	15.789	228.7	0.487693642	0.580959616	0.008324075	0.085877947	0.026468417
2019-07-31T01:10:00	0.2064	15.771	228.3	0.488288416	0.581776544	0.008342556	0.086068612	0.026527182
2019-07-31T01:15:00	0.2064	15.755	228.1	0.488193919	0.581646733	0.008339618	0.086038306	0.026517841
2019-07-31T01:20:00	0.2053	15.739	228.1	0.484306399	0.576312597	0.008219213	0.084796103	0.026134983
2019-07-31T01:25:00	0.2053	15.721	227.8	0.484211791	0.576182935	0.008216293	0.084765985	0.026125700
2019-07-31T01:30:00	0.2047	15.702	227.7	0.482391582	0.573689682	0.008160226	0.084187542	0.025947418
2019-07-31T01:35:00	0.2057	15.683	227.7	0.485747339	0.578288328	0.008263741	0.085255491	0.026276570
2019-07-31T01:40:00	0.2086	15.665	227.6	0.495639487	0.591896711	0.008572651	0.088442465	0.027258827
2019-07-31T01:45:00	0.2090	15.651	227.8	0.496920414	0.593664587	0.008613064	0.088859394	0.027387328
2019-07-31T01:50:00	0.2070	15.636	227.7	0.490288734	0.584526079	0.008404860	0.086711390	0.026725292
2019-07-31T01:55:00	0.2084	15.617	227.6	0.495012692	0.591032117	0.008552911	0.088238805	0.027196057
2019-07-31T02:00:00	0.2069	15.599	227.4	0.489755407	0.583792683	0.008388226	0.086539780	0.026672401
2019-07-31T02:05:00	0.2070	15.583	227.3	0.490349821	0.584610096	0.008406766	0.086731057	0.026731354
2019-07-31T02:10:00	0.2071	15.566	227.1	0.490599773	0.584953906	0.008414568	0.086811552	0.026756163
2019-07-31T02:15:00	0.2073	15.546	226.9	0.491194039	0.585771518	0.008433133	0.087003079	0.026815194
2019-07-31T02:20:00	0.2081	15.528	226.7	0.493853097	0.589433415	0.008516450	0.087862641	0.027080119
2019-07-31T02:25:00	0.2056	15.509	226.5	0.485491404	0.577937284	0.008255823	0.085173806	0.026251394
2019-07-31T02:30:00	0.2069	15.494	226.5	0.489877599	0.583960693	0.008392035	0.086579083	0.026684514
2019-07-31T02:35:00	0.2070	15.475	226.3	0.490127586	0.584304455	0.008399832	0.086659519	0.026709305
2019-07-31T02:40:00	0.2070	15.455	226.2	0.490377555	0.584648243	0.008407632	0.086739986	0.026734106
2019-07-31T02:45:00	0.2057	15.439	211.5	0.485802883	0.578364519	0.008265460	0.085273223	0.026282036
2019-07-31T02:50:00	0.2067	15.422	211.4	0.489155271	0.582967686	0.008369528	0.086346874	0.026612945
2019-07-31T02:55:00	0.2086	15.407	225.9	0.495600579	0.591843032	0.008571425	0.088429816	0.027254928
2019-07-31T03:00:00	0.2076	15.390	211.2	0.492409976	0.587445332	0.008471182	0.087395619	0.026936179
2019-07-31T03:05:00	0.2067	15.371	224.4	0.489216378	0.583051676	0.008371431	0.086366506	0.026618996
2019-07-31T03:10:00	0.2076	15.356	225.2	0.492221210	0.587185406	0.008465269	0.087334622	0.026917379
2019-07-31T03:15:00	0.2083	15.339	210.7	0.494535507	0.590374105	0.008537897	0.088083913	0.027148317
2019-07-31T03:20:00	0.2092	15.324	225.0	0.497879304	0.594988866	0.008643378	0.089172142	0.027483720
2019-07-31T03:25:00	0.2088	15.311	225.0	0.496410204	0.592960261	0.008596956	0.088693209	0.027336108
2019-07-31T03:30:00	0.2092	15.294	224.9	0.497690840	0.594728529	0.008637416	0.089110630	0.027464762
2019-07-31T03:35:00	0.2082	15.274	224.8	0.494502196	0.590328178	0.008536850	0.088073105	0.027144986
2019-07-31T03:40:00	0.2088	15.257	224.7	0.496471181	0.593044426	0.008598880	0.088713062	0.027342227
2019-07-31T03:45:00	0.2100	15.245	210.2	0.500499898	0.598611816	0.008726497	0.090029656	0.027748014
2019-07-31T03:50:00	0.2103	15.228	224.5	0.501435737	0.599906944	0.008756275	0.090336873	0.027842702
2019-07-31T03:55:00	0.2091	15.217	224.4	0.497563324	0.594552399	0.008633383	0.089069023	0.027451938
2019-07-31T04:00:00	0.2094	15.206	224.4	0.498499968	0.595846431	0.008663028	0.089374868	0.027546202
2019-07-31T04:05:00	0.2098	15.190	224.4	0.499983533	0.597897509	0.008710088	0.089860367	0.027695838
2019-07-31T04:10:00	0.2098	15.180	224.2	0.499749634	0.597574018	0.008702660	0.089783736	0.027672220
2019-07-31T04:15:00	0.2117	15.171	224.1	0.506378289	0.606758745	0.008914385	0.091968070	0.028345453
2019-07-31T04:20:00	0.2095	15.161	224.0	0.498938273	0.596452218	0.008676918	0.089518167	0.027590369
2019-07-31T04:25:00	0.2111	15.151	223.9	0.504196766	0.603732100	0.008844425	0.091246304	0.028122997
2019-07-31T04:30:00	0.2100	15.146	223.9	0.500531167	0.598655078	0.008727491	0.090039913	0.027751176
2019-07-31T04:35:00	0.2093	15.144	223.9	0.498236313	0.595482103	0.008654678	0.089288723	0.027519651
2019-07-31T04:40:00	0.2094	15.140	223.8	0.498345902	0.595633531	0.008658149	0.089324524	0.027530686
2019-07-31T04:45:00	0.2089	15.131	223.7	0.496737153	0.593411579	0.008607276	0.088799685	0.027368925
2019-07-31T04:50:00	0.2089	15.128	223.7	0.496846791	0.593562942	0.008610739	0.088835404	0.027379934
2019-07-31T04:55:00	0.2064	15.124	223.7	0.488007651	0.581390876	0.008333829	0.085978582	0.026499434
2019-07-31T05:00:00	0.2091	15.120	223.6	0.497409760	0.594340309	0.008628528	0.089018929	0.027436499
2019-07-31T05:05:00	0.2092	15.119	223.6	0.497863034	0.594966391	0.008642864	0.089166831	0.027482083
2019-07-31T05:10:00	0.2083	15.120	223.6	0.494534611	0.590372869	0.008537869	0.088083622	0.027148228
2019-07-31T05:15:00	0.2077	15.118	223.6	0.492579904	0.587679342	0.008476506	0.087450547	0.026953108
2019-07-31T05:20:00	0.2075	15.122	223.5	0.492001281	0.586882605	0.008458383	0.087263583	0.026895484
2019-07-31T05:25:00	0.2068	15.127	223.5	0.489356187	0.583243849	0.008375785	0.086411432	0.026632843
2019-07-31T05:30:00	0.2087	15.130	209.1	0.496005065	0.592401130	0.008584176	0.088561357	0.027295470
2019-07-31T05:35:00	0.2088	15.137	223.5	0.496458526	0.593026959	0.008598481	0.088708942	0.027340957
2019-07-31T05:40:00	0.2065	15.144	223.5	0.488652247	0.582276410	0.008353871	0.086185348	0.026563161
2019-07-31T05:45:00	0.2072	15.153	223.3	0.490828880	0.585269086	0.008421723	0.086885366	0.026778914
2019-07-31T05:50:00	0.2072	15.163	223.6	0.490938709	0.585420191	0.008425154	0.086920762	0.026789823
2019-07-31T05:55:00	0.2055	15.175	223.6	0.485189898	0.577523801	0.008246501	0.085077627	0.026221751
2019-07-31T06:00:00	0.2053	15.186	223.6	0.484265016	0.576255879	0.008217936	0.084782928	0.026130922
2019-07-31T06:05:00	0.2050	15.200	223.7	0.483339881	0.574988295	0.008189412	0.084488656	0.026040224
2019-07-31T06:10:00	0.2038	15.213	223.7	0.479306220	0.569469513	0.008065621	0.083211529	0.025646601
2019-07-31T06:15:00	0.2027	15.223	223.7	0.475267749	0.563957145	0.007942617	0.081942519	0.025255480
2019-07-31T06:20:00	0.2014	15.243	223.8	0.470878083	0.557980134	0.007809976	0.080574082	0.024833715
2019-07-31T06:25:00	0.2022	15.262	223.8	0.473758409	0.561900285	0.007896886	0.081470713	0.025110065
2019-07-31T06:30:00	0.2031	15.282	224.0	0.476636283	0.565823690	0.007984196	0.082371474	0.025387688
2019-07-31T06:35:00	0.2027	15.314	224.0	0.475363155	0.564087221	0.007945512	0.081972388	0.025264686
2019-07-31T06:40:00	0.2023	15.355	224.2	0.474089547	0.562351390	0.007906908	0.081574109	0.025141933
2019-07-31T06:45:00	0.2033	15.400	224.3	0.477312883	0.566747056	0.008004791	0.082583957	0.025453178
2019-07-31T06:50:00	0.2033	15.416	224.4	0.477423150	0.566897573	0.008008150	0.082618612	0.025463858
2019-07-31T06:55:00	0.2024	15.458	224.5	0.474420653	0.562802538	0.007916935	0.081677559	0.025173817
2019-07-31T07:00:00	0.2032	15.482	224.6	0.476952219	0.566254807	0.007993809	0.082470659	0.025418258
2019-07-31T07:05:00	0.2041	15.579	225.0	0.480172830	0.570654098	0.008092138	0.083485101	0.025730919
2019-07-31T07:10:00	0.2015	15.648	225.3	0.471290078	0.558540460	0.007822378	0.080702034	0.024873151
2019-07-31T07:15:00	0.2015	15.746	225.6	0.471054193	0.558219633	0.007815276	0.080628764	0.024850568
2019-07-31T07:20:00	0.2019	15.825	225.9	0.472549801	0.560254555	0.007860360	0.081093883	0.024993922
2019-07-31T07:25:00	0.2034	15.793	226.0	0.477849266	0.567479324	0.008021138	0.082752598	0.025505154
2019-07-31T07:30:00	0.2015	15.860	226.1	0.471039246	0.558199305	0.007814826	0.080624122	0.024849137
2019-07-31T07:35:00	0.2025	16.036	226.8	0.474611510	0.563062630	0.007922718	0.081737220	0.025192205
2019-07-31T07:40:00	0.2025	16.263	227.7	0.474721865	0.563213030	0.007926062	0.081771726	0.025202840
2019-07-31T07:45:00	0.2036	16.132	227.5	0.478635851	0.568553583	0.008045139	0.083000211	0.025581471
2019-07-31T07:50:00	0.2049	16.108	227.4	0.482890491	0.574372805	0.008175574	0.084345895	0.025996224
2019-07-31T07:55:00	0.2021	16.200	227.7	0.473322682	0.561306833	0.007883708	0.081334759	0.025068163
2019-07-31T08:00:00	0.2024	16.257	227.9	0.474471288	0.562871538	0.007918469	0.081693385	0.025178695
2019-07-31T08:05:00	0.2017	16.368	228.4	0.471812473	0.559251126	0.007838118	0.080864417	0.024923199
2019-07-31T08:10:00	0.2027	16.264	228.3	0.475383921	0.564115534	0.007946143	0.081978889	0.025266690
2019-07-31T08:15:00	0.2041	16.311	228.4	0.480333552	0.570873857	0.008097061	0.083535886	0.025746571
2019-07-31T08:20:00	0.2020	16.359	228.6	0.472836241	0.560644488	0.007869009	0.081183114	0.025021424
2019-07-31T08:25:00	0.2011	16.512	229.3	0.469829664	0.556554864	0.007778459	0.080248930	0.024733500
2019-07-31T08:30:00	0.1972	16.486	229.5	0.456400265	0.538375377	0.007380307	0.076141266	0.023467478
2019-07-31T08:35:00	0.1985	16.439	229.3	0.460683010	0.544157455	0.007506164	0.077439705	0.023867669
2019-07-31T08:40:00	0.1973	16.429	229.3	0.456622167	0.538674608	0.007386802	0.076208277	0.023488131
2019-07-31T08:45:00	0.1960	16.521	229.6	0.452208118	0.532729645	0.007258124	0.074880732	0.023078969
2019-07-31T08:50:00	0.1958	16.591	230.0	0.451274147	0.531473718	0.007231040	0.074601302	0.022992846
2019-07-31T08:55:00	0.1966	16.610	230.2	0.454171287	0.535371796	0.007315218	0.075469751	0.023260510
2019-07-31T09:00:00	0.1952	16.703	230.6	0.449405426	0.528962878	0.007176996	0.074043746	0.022821002
2019-07-31T09:05:00	0.1963	16.814	231.3	0.453000709	0.533795997	0.007281148	0.075118265	0.023152179
2019-07-31T09:10:00	0.1968	16.705	231.1	0.454852411	0.536289205	0.007335077	0.075674641	0.023323659
2019-07-31T09:15:00	0.1960	16.653	230.9	0.452178056	0.532689210	0.007257252	0.074871730	0.023076194
2019-07-31T09:20:00	0.1962	16.623	230.8	0.452637433	0.533307184	0.007270591	0.075009348	0.023118610
2019-07-31T09:25:00	0.1987	16.680	231.2	0.461443626	0.545185871	0.007528625	0.077671437	0.023939091
2019-07-31T09:30:00	0.1985	16.701	231.3	0.460859654	0.544396251	0.007511377	0.077493492	0.023884247
2019-07-31T09:35:00	0.1971	16.704	231.4	0.456103282	0.537974962	0.007371618	0.076051627	0.023439850
2019-07-31T09:40:00	0.1982	16.715	231.6	0.459691404	0.542817411	0.007476930	0.077138112	0.023774715
2019-07-31T09:45:00	0.1983	16.681	231.5	0.460149756	0.543436725	0.007490436	0.077277446	0.023817659
2019-07-31T09:50:00	0.1980	16.696	231.6	0.459217991	0.542177921	0.007462994	0.076994329	0.023730400
2019-07-31T09:55:00	0.1974	16.712	231.8	0.456894955	0.539042511	0.007394791	0.076290695	0.023513533
2019-07-31T10:00:00	0.1979	16.710	232.0	0.458744511	0.541538517	0.007449068	0.076850657	0.023686119
2019-07-31T10:05:00	0.1989	16.660	232.0	0.462268224	0.546301310	0.007553013	0.077923045	0.024016639
2019-07-31T10:10:00	0.1982	16.635	231.9	0.459885655	0.543079858	0.007482653	0.077197147	0.023792910
2019-07-31T10:15:00	0.1968	16.612	204.0	0.455066177	0.536577203	0.007341316	0.075739000	0.023343495
2019-07-31T10:20:00	0.1992	16.610	202.5	0.463110157	0.547440757	0.007577954	0.078180356	0.024095945
2019-07-31T10:25:00	0.1997	16.577	201.5	0.464894755	0.549857832	0.007630954	0.078727143	0.024264470
2019-07-31T10:30:00	0.1982	16.567	200.7	0.459734940	0.542876228	0.007478213	0.077151341	0.023778792
2019-07-31T10:35:00	0.1986	16.562	199.1	0.461173962	0.544821210	0.007520658	0.077589241	0.023913758
2019-07-31T10:40:00	0.1996	16.570	201.7	0.464695133	0.549587336	0.007625016	0.078665887	0.024245590
2019-07-31T10:45:00	0.1986	16.592	198.8	0.461272325	0.544954217	0.007523564	0.077619218	0.023922997
2019-07-31T10:50:00	0.2001	16.608	196.5	0.466527996	0.552072120	0.007679618	0.079229199	0.024419209
2019-07-31T10:55:00	0.1977	16.625	194.7	0.457895262	0.540392106	0.007424122	0.076593293	0.023606797
2019-07-31T11:00:00	0.1968	16.632	193.3	0.454813582	0.536236897	0.007333944	0.075662953	0.023320057
2019-07-31T11:05:00	0.1965	16.635	191.9	0.453818587	0.534896888	0.007304944	0.075363762	0.023227843
2019-07-31T11:10:00	0.1982	16.655	190.4	0.459781033	0.542938502	0.007479570	0.077165348	0.023783110
2019-07-31T11:15:00	0.1962	16.662	188.7	0.452872601	0.533623606	0.007277424	0.075079847	0.023140338
2019-07-31T11:20:00	0.1979	16.634	187.6	0.458836724	0.541663031	0.007451779	0.076878628	0.023694740
2019-07-31T11:25:00	0.1971	16.630	185.4	0.456103834	0.537975705	0.007371634	0.076051793	0.023439901
2019-07-31T11:30:00	0.1984	16.653	183.3	0.460325326	0.543673995	0.007495612	0.077330850	0.023834119
2019-07-31T11:35:00	0.1967	16.641	180.4	0.454462409	0.535763865	0.007323703	0.075557290	0.023287491
2019-07-31T11:40:00	0.1969	16.584	176.7	0.455207761	0.536767973	0.007345449	0.075781642	0.023356638
2019-07-31T11:45:00	0.1980	16.560	173.5	0.459082797	0.541995331	0.007459016	0.076953292	0.023717752
2019-07-31T11:50:00	0.1984	16.524	169.6	0.460522098	0.543939948	0.007501416	0.077390725	0.023852573
2019-07-31T11:55:00	0.1989	16.511	166.0	0.462308068	0.546355221	0.007554193	0.077935213	0.024020389
2019-07-31T12:00:00	0.1994	16.514	163.6	0.464093090	0.548771738	0.007607123	0.078481287	0.024188695
2019-07-31T12:05:00	0.1990	16.516	160.3	0.462406397	0.546488272	0.007557104	0.077965245	0.024029646
2019-07-31T12:10:00	0.1973	16.511	158.5	0.456547111	0.538573392	0.007384605	0.076185608	0.023481144
2019-07-31T12:15:00	0.1971	16.515	159.0	0.455900576	0.537701698	0.007365691	0.075990473	0.023421002
2019-07-31T12:20:00	0.1960	16.525	159.1	0.452120496	0.532611789	0.007255581	0.074854495	0.023070882
2019-07-31T12:25:00	0.1961	16.533	159.7	0.452518108	0.533146646	0.007267125	0.074973589	0.023107588
2019-07-31T12:30:00	0.1958	16.523	160.0	0.451522432	0.531807524	0.007238235	0.074675535	0.023015725
2019-07-31T12:35:00	0.1956	16.530	160.4	0.450874928	0.530937090	0.007219477	0.074482018	0.022956081
2019-07-31T12:40:00	0.1951	16.532	162.1	0.448832941	0.528194230	0.007160480	0.073873348	0.022768483
2019-07-31T12:45:00	0.1952	16.537	160.8	0.449230942	0.528728580	0.007171960	0.073991791	0.022804989
2019-07-31T12:50:00	0.1947	16.542	158.1	0.447536768	0.526454874	0.007123153	0.073488256	0.022649794
2019-07-31T12:55:00	0.1955	16.507	157.6	0.450375324	0.530265703	0.007205021	0.074332871	0.022910113
2019-07-31T13:00:00	0.1982	16.487	156.7	0.459820906	0.542992374	0.007480745	0.077177467	0.023786845
2019-07-31T13:05:00	0.1989	16.472	155.7	0.462301853	0.546346813	0.007554009	0.077933315	0.024019804
2019-07-31T13:10:00	0.1996	16.450	154.6	0.464780973	0.549703649	0.007627569	0.078692225	0.024253708
2019-07-31T13:15:00	0.1983	16.437	152.7	0.459968509	0.543191809	0.007485094	0.077222334	0.023800673
2019-07-31T13:20:00	0.1981	16.418	152.0	0.459322631	0.542319254	0.007466073	0.077026098	0.023740192
2019-07-31T13:25:00	0.1986	16.404	152.5	0.461109238	0.544733693	0.007518746	0.077569519	0.023907679
2019-07-31T13:30:00	0.1983	16.367	152.8	0.460116105	0.543391251	0.007489444	0.077267212	0.023814505
2019-07-31T13:35:00	0.1999	16.336	151.1	0.465720512	0.550977098	0.007655539	0.078980783	0.024342644
2019-07-31T13:40:00	0.1982	16.326	150.8	0.459866998	0.543054650	0.007482103	0.077191476	0.023791163
2019-07-31T13:45:00	0.1972	16.307	150.2	0.456439272	0.538427975	0.007381448	0.076153043	0.023471108
2019-07-31T13:50:00	0.1967	16.290	151.1	0.454400670	0.535680712	0.007321903	0.075538721	0.023281768
2019-07-31T13:55:00	0.1983	16.280	150.9	0.460014599	0.543254087	0.007486452	0.077236347	0.023804992
2019-07-31T14:00:00	0.1952	16.287	151.8	0.449274061	0.528786478	0.007173204	0.074004628	0.022808945
2019-07-31T14:05:00	0.1955	16.295	152.9	0.450369087	0.530257323	0.007204840	0.074331010	0.022909539
2019-07-31T14:10:00	0.1937	16.326	152.2	0.444139598	0.521902426	0.007025776	0.072483634	0.022340160
2019-07-31T14:15:00	0.1960	16.310	153.4	0.452209775	0.532731874	0.007258173	0.074881228	0.023079122
2019-07-31T14:20:00	0.1974	16.317	152.9	0.457131833	0.539362031	0.007401731	0.076362299	0.023535602
2019-07-31T14:25:00	0.1971	16.318	152.4	0.455789603	0.537552111	0.007362447	0.075957004	0.023410686
2019-07-31T14:30:00	0.1952	16.320	153.0	0.449221584	0.528716015	0.007171690	0.073989005	0.022804130
2019-07-31T14:35:00	0.1969	16.333	153.4	0.455192192	0.536746994	0.007344994	0.075776953	0.023355193
2019-07-31T14:40:00	0.1971	16.323	152.2	0.455937383	0.537751313	0.007366767	0.076001575	0.023424424
2019-07-31T14:45:00	0.1963	16.309	151.8	0.453202131	0.534067068	0.007287005	0.075178688	0.023170802
2019-07-31T14:50:00	0.1949	16.292	152.4	0.448373042	0.527576932	0.007147225	0.073736599	0.022726336
2019-07-31T14:55:00	0.1939	16.289	152.7	0.444933546	0.522965561	0.007048475	0.072717818	0.022412338
2019-07-31T15:00:00	0.1945	16.292	152.2	0.446727828	0.525370014	0.007099906	0.073248421	0.022575875
2019-07-31T15:05:00	0.1940	16.276	152.0	0.445032386	0.523097947	0.007051303	0.072746997	0.022421331
2019-07-31T15:10:00	0.1935	16.254	152.1	0.443336086	0.520826990	0.007002840	0.072247005	0.022267229
2019-07-31T15:15:00	0.1944	16.258	152.6	0.446527123	0.525100931	0.007094144	0.073188975	0.022557553
2019-07-31T15:20:00	0.1929	16.262	152.7	0.441338968	0.518156206	0.006945991	0.071660505	0.022086464
2019-07-31T15:25:00	0.1933	16.318	153.8	0.442785903	0.520090908	0.006987156	0.072085198	0.022217358
2019-07-31T15:30:00	0.1943	16.349	155.3	0.446326407	0.524831864	0.007088384	0.073129549	0.022539237
2019-07-31T15:35:00	0.1916	16.333	156.1	0.437592674	0.511827235	0.006822267	0.070384074	0.021693055
2019-07-31T15:40:00	0.1934	16.335	157.2	0.442934257	0.520289366	0.006991383	0.072128811	0.022230800
2019-07-31T15:45:00	0.1908	16.338	157.5	0.435491907	0.508240302	0.006752757	0.069666951	0.021472031
2019-07-31T15:50:00	0.1914	16.339	157.2	0.437164053	0.511094388	0.006808050	0.070237394	0.021647847
2019-07-31T15:55:00	0.1918	16.342	158.2	0.438290721	0.513021837	0.006845461	0.070623355	0.021766804
2019-07-31T16:00:00	0.1893	16.347	157.5	0.431516811	0.501486756	0.006622418	0.068322266	0.021057586
2019-07-31T16:05:00	0.1915	16.367	157.4	0.437554156	0.511761356	0.006820989	0.070370884	0.021688990
2019-07-31T16:10:00	0.1913	16.349	157.7	0.436778729	0.510436010	0.006795284	0.070105691	0.021607255
2019-07-31T16:15:00	0.1918	16.323	158.2	0.438180079	0.512832397	0.006841781	0.070585395	0.021755104
2019-07-31T16:20:00	0.1898	16.336	159.7	0.432772968	0.503616162	0.006663438	0.068745465	0.021188020
2019-07-31T16:25:00	0.1928	16.325	159.8	0.440979267	0.517635611	0.006935241	0.071549605	0.022052283
2019-07-31T16:30:00	0.1898	16.314	158.7	0.432855108	0.503755557	0.006666126	0.068773194	0.021196566
2019-07-31T16:35:00	0.1912	16.319	159.3	0.436711397	0.510321006	0.006793055	0.070082692	0.021600166
2019-07-31T16:40:00	0.1921	16.320	161.1	0.439200353	0.514580578	0.006875756	0.070935912	0.021863137
2019-07-31T16:45:00	0.1907	16.319	160.5	0.435159400	0.507673695	0.006741795	0.069553857	0.021437174
2019-07-31T16:50:00	0.1892	16.311	160.6	0.431108614	0.500795736	0.006609121	0.068185087	0.021015306
2019-07-31T16:55:00	0.1902	16.303	161.0	0.433878644	0.505494115	0.006699673	0.069119290	0.021303236
2019-07-31T17:00:00	0.1891	16.287	160.7	0.430917704	0.500472712	0.006602908	0.068120988	0.020995550
2019-07-31T17:05:00	0.1896	16.283	160.7	0.432323999	0.502854577	0.006648759	0.068594024	0.021141344
2019-07-31T17:10:00	0.1902	16.271	160.0	0.434001771	0.505703452	0.006703715	0.069160995	0.021316090
2019-07-31T17:15:00	0.1907	16.259	160.1	0.435133015	0.507628747	0.006740926	0.069544888	0.021434410
2019-07-31T17:20:00	0.1888	16.217	160.8	0.429989290	0.498903258	0.006572744	0.067809792	0.020899636
2019-07-31T17:25:00	0.1904	16.180	160.5	0.434397493	0.506376536	0.006716718	0.069295137	0.021357434
2019-07-31T17:30:00	0.1898	16.155	159.9	0.432802264	0.503665878	0.006664397	0.068755354	0.021191068
2019-07-31T17:35:00	0.1907	16.133	159.1	0.435297058	0.507908233	0.006746332	0.069600664	0.021451601
2019-07-31T17:40:00	0.1935	16.127	158.9	0.443484969	0.521026220	0.007007087	0.072290822	0.022280733
2019-07-31T17:45:00	0.1921	16.114	159.8	0.439188623	0.514560464	0.006875365	0.070931876	0.021861893
2019-07-31T17:50:00	0.1936	16.122	159.5	0.443590101	0.521166915	0.007010086	0.072321770	0.022290272
2019-07-31T17:55:00	0.1945	16.121	159.2	0.446784018	0.525445353	0.007101520	0.073265068	0.022581005
2019-07-31T18:00:00	0.1981	16.099	159.6	0.459372391	0.542386466	0.007467538	0.077041208	0.023744848
2019-07-31T18:05:00	0.2079	15.884	205.8	0.493315301	0.588692338	0.008499566	0.087688455	0.027026434
2019-07-31T18:10:00	0.2199	15.831	213.9	0.534411101	0.645994074	0.009837940	0.101496210	0.031282118
2019-07-31T18:15:00	0.2245	15.820	203.0	0.550066757	0.668184436	0.010373658	0.107023118	0.032985564
2019-07-31T18:20:00	0.2236	15.820	198.0	0.547070224	0.663921621	0.010270009	0.105953793	0.032655988
2019-07-31T18:25:00	0.2242	15.800	198.3	0.548814566	0.666402195	0.010330281	0.106575608	0.032847637
2019-07-31T18:30:00	0.2241	15.772	200.3	0.548526933	0.665992990	0.010320330	0.106472947	0.032815996
2019-07-31T18:35:00	0.2231	15.745	203.8	0.545190145	0.661250810	0.010205247	0.105285653	0.032450061
2019-07-31T18:40:00	0.2232	15.723	206.9	0.545580084	0.661804513	0.010218662	0.105424053	0.032492717
2019-07-31T18:45:00	0.2214	15.699	209.0	0.539525552	0.653221269	0.010011373	0.103285488	0.031833591
2019-07-31T18:50:00	0.2190	15.674	210.4	0.531419247	0.641776195	0.009737193	0.100456822	0.030961768
2019-07-31T18:55:00	0.2194	15.647	211.3	0.532491185	0.643286561	0.009773229	0.100828601	0.031076354
2019-07-31T19:00:00	0.2199	15.621	212.0	0.534242888	0.645756736	0.009832261	0.101437629	0.031264062
2019-07-31T19:05:00	0.2196	15.602	212.7	0.533273887	0.644389984	0.009799584	0.101100501	0.031160156
2019-07-31T19:10:00	0.2210	15.575	213.1	0.538083286	0.651181052	0.009962310	0.102779319	0.031677584
2019-07-31T19:15:00	0.2225	15.547	213.5	0.543225156	0.658462472	0.010137781	0.104589621	0.032235537
2019-07-31T19:20:00	0.2212	15.525	213.8	0.538864723	0.652286255	0.009988878	0.103053412	0.031762062
2019-07-31T19:25:00	0.2220	15.503	213.8	0.541631218	0.656202980	0.010083221	0.104026735	0.032062050
2019-07-31T19:30:00	0.2225	15.481	213.8	0.543039163	0.658198710	0.010131407	0.104523860	0.032215269
2019-07-31T19:35:00	0.2231	15.461	213.9	0.545124498	0.661157606	0.010202989	0.105262362	0.032442882
2019-07-31T19:40:00	0.2246	15.434	213.9	0.550255938	0.668453808	0.010380219	0.107090811	0.033006428
2019-07-31T19:45:00	0.2264	15.415	214.2	0.556393507	0.677208963	0.010594229	0.109298712	0.033686925
2019-07-31T19:50:00	0.2249	15.395	214.6	0.551372990	0.670044964	0.010419005	0.107490954	0.033129756
2019-07-31T19:55:00	0.2269	15.380	215.1	0.558184008	0.679768921	0.010657080	0.109947125	0.033886772
2019-07-31T20:00:00	0.2265	15.360	215.5	0.556883889	0.677909822	0.010611424	0.109476106	0.033741599
2019-07-31T20:05:00	0.2252	15.344	215.6	0.552202354	0.671226993	0.010447849	0.107788533	0.033221473
2019-07-31T20:10:00	0.2256	15.325	216.0	0.553606017	0.673228813	0.010496758	0.108293122	0.033376992
2019-07-31T20:15:00	0.2271	15.304	216.2	0.558724959	0.680542863	0.010676105	0.110143408	0.033947268
2019-07-31T20:20:00	0.2265	15.279	216.4	0.556749477	0.677717699	0.010606710	0.109427468	0.033726608
2019-07-31T20:25:00	0.2283	15.255	216.5	0.562875617	0.686489242	0.010822660	0.111655385	0.034413274
2019-07-31T20:30:00	0.2256	15.228	216.6	0.553809596	0.673519279	0.010503862	0.108366404	0.033399578
2019-07-31T20:35:00	0.2271	15.204	216.6	0.558590618	0.680350638	0.010671379	0.110094646	0.033932239
2019-07-31T20:40:00	0.2264	15.176	216.5	0.556277215	0.677042786	0.010590154	0.109256665	0.033673965
2019-07-31T20:45:00	0.2252	15.152	216.5	0.552271430	0.671325467	0.010450253	0.107813337	0.033229117
2019-07-31T20:50:00	0.2237	15.119	216.4	0.547244951	0.664169982	0.010276039	0.106015996	0.032675160
2019-07-31T20:55:00	0.2225	15.104	216.5	0.543228728	0.658467538	0.010137904	0.104590884	0.032235926
2019-07-31T21:00:00	0.2231	15.087	216.4	0.545313949	0.661426595	0.010209505	0.105329584	0.032463601
2019-07-31T21:05:00	0.2202	15.060	216.3	0.535522186	0.647562326	0.009875487	0.101883580	0.031401509
2019-07-31T21:10:00	0.2201	15.040	216.3	0.534893512	0.646674854	0.009854233	0.101664307	0.031333927
2019-07-31T21:15:00	0.2209	15.017	216.4	0.537663185	0.650587100	0.009948042	0.102632118	0.031632216
2019-07-31T21:20:00	0.2209	14.990	216.3	0.537714316	0.650659382	0.009949778	0.102650029	0.031637736
2019-07-31T21:25:00	0.2231	14.963	216.3	0.545230108	0.661307551	0.010206621	0.105299832	0.032454431
2019-07-31T21:30:00	0.2209	14.943	216.3	0.537816574	0.650803949	0.009953251	0.102685853	0.031648777
2019-07-31T21:35:00	0.2209	14.915	216.3	0.537867702	0.650876235	0.009954987	0.102703767	0.031654298
2019-07-31T21:40:00	0.2219	14.902	216.3	0.540974365	0.655272460	0.010060781	0.103795220	0.031990695
2019-07-31T21:45:00	0.2217	14.879	216.4	0.540346682	0.654383593	0.010039360	0.103574228	0.031922583
2019-07-31T21:50:00	0.2229	14.862	216.3	0.544468307	0.660226149	0.010180437	0.105029695	0.032371172
2019-07-31T21:55:00	0.2217	14.840	216.4	0.540448863	0.654528270	0.010042846	0.103610187	0.031933666
2019-07-31T22:00:00	0.2216	14.830	216.4	0.540160535	0.654120050	0.010033012	0.103508736	0.031902398
2019-07-31T22:05:00	0.2200	14.819	216.4	0.534680232	0.646373849	0.009847028	0.101589972	0.031311016
2019-07-31T22:10:00	0.2208	14.800	216.2	0.537353886	0.650149895	0.009937544	0.102523810	0.031598834
2019-07-31T22:15:00	0.2216	14.782	216.2	0.540025474	0.653928851	0.010028407	0.103461231	0.031887756
2019-07-31T22:20:00	0.2220	14.760	216.1	0.541337992	0.655787543	0.010073200	0.103923352	0.032030186
2019-07-31T22:25:00	0.2208	14.745	216.0	0.537558421	0.650439004	0.009944486	0.102595427	0.031620907
2019-07-31T22:30:00	0.2220	14.727	216.0	0.541587293	0.656140743	0.010081720	0.104011245	0.032057276
2019-07-31T22:35:00	0.2248	14.704	215.9	0.551029653	0.669555798	0.010407076	0.107367886	0.033091825
2019-07-31T22:40:00	0.2252	14.686	215.9	0.552338015	0.671420393	0.010452571	0.107837248	0.033236487
2019-07-31T22:45:00	0.2231	14.665	215.8	0.545182659	0.661240181	0.010204990	0.105282997	0.032449242
2019-07-31T22:50:00	0.2230	14.647	215.7	0.544798741	0.660695152	0.010191791	0.105146825	0.032407273
2019-07-31T22:55:00	0.2215	14.622	215.6	0.539665285	0.653419025	0.010016133	0.103334595	0.031848726
2019-07-31T23:00:00	0.2223	14.605	215.5	0.542335089	0.657200498	0.010107296	0.104275112	0.032138602
2019-07-31T23:05:00	0.2225	14.589	215.5	0.543307624	0.658579431	0.010140608	0.104618786	0.032244526
2019-07-31T23:10:00	0.2230	14.563	215.3	0.544957880	0.660921060	0.010197261	0.105203259	0.032424666
2019-07-31T23:15:00	0.2223	14.539	215.4	0.542539330	0.657490023	0.010114287	0.104347239	0.032160833
2019-07-31T23:20:00	0.2204	14.513	215.2	0.536043434	0.648298393	0.009893127	0.102065565	0.031457598
2019-07-31T23:25:00	0.2196	14.499	215.1	0.533278548	0.644396557	0.009799741	0.101102121	0.031160656
2019-07-31T23:30:00	0.2196	14.477	215.0	0.533233439	0.644332949	0.009798221	0.101086440	0.031155823
2019-07-31T23:35:00	0.2201	14.463	214.8	0.534888507	0.646667789	0.009854064	0.101662562	0.031333389
2019-07-31T23:40:00	0.2193	14.449	214.9	0.532462903	0.643246700	0.009772277	0.100818783	0.031073328
2019-07-31T23:45:00	0.2196	14.435	214.7	0.533438218	0.644621715	0.009805122	0.101157634	0.031177765
2019-07-31T23:50:00	0.2180	14.432	214.7	0.527947228	0.636890522	0.009620931	0.099257372	0.030592086
2019-07-31T23:55:00	0.2165	14.417	214.7	0.522788636	0.629649679	0.009449490	0.097488650	0.030046949
2019-08-01T00:00:00	0.2179	14.405	214.6	0.527516206	0.636284692	0.009606547	0.099108976	0.030546349
2019-08-01T00:05:00	0.2169	14.390	214.6	0.524062497	0.631435720	0.009491682	0.097923933	0.030181107
2019-08-01T00:10:00	0.2183	14.373	214.6	0.528788319	0.638073168	0.009649031	0.099547272	0.030681436
2019-08-01T00:15:00	0.2165	14.364	214.4	0.522607644	0.629396022	0.009443503	0.097426884	0.030027912
2019-08-01T00:20:00	0.2188	14.348	214.3	0.530740751	0.640820674	0.009714418	0.100221858	0.030889350
2019-08-01T00:25:00	0.2173	14.339	214.3	0.525586346	0.633573993	0.009542277	0.098445916	0.030341987
2019-08-01T00:30:00	0.2193	14.322	214.3	0.532351894	0.643090246	0.009768542	0.100780251	0.031061452
2019-08-01T00:35:00	0.2183	14.323	214.3	0.528903031	0.638234507	0.009652866	0.099586843	0.030693632
2019-08-01T00:40:00	0.2165	14.311	214.2	0.522722562	0.629557074	0.009447305	0.097466099	0.030039998
2019-08-01T00:45:00	0.2161	14.304	214.2	0.521312409	0.627581552	0.009400714	0.096985436	0.029891853
2019-08-01T00:50:00	0.2145	14.293	214.2	0.515802021	0.619877356	0.009219763	0.095118599	0.029316476
2019-08-01T00:55:00	0.2162	14.284	214.1	0.521904414	0.628410711	0.009420260	0.097187081	0.029954002
2019-08-01T01:00:00	0.2171	14.273	214.0	0.524928943	0.632651290	0.009520433	0.098220556	0.030272529
2019-08-01T01:05:00	0.2163	14.261	213.9	0.522155123	0.628761939	0.009428543	0.097272539	0.029980341
2019-08-01T01:10:00	0.2172	14.248	214.0	0.525179432	0.633002825	0.009528754	0.098306394	0.030298985
2019-08-01T01:15:00	0.2154	14.238	214.0	0.518992265	0.624334708	0.009324310	0.096197189	0.029648908
2019-08-01T01:20:00	0.2159	14.224	214.0	0.520654189	0.626659986	0.009379007	0.096761484	0.029822829
2019-08-01T01:25:00	0.2175	14.214	214.1	0.526066403	0.634248003	0.009558244	0.098610645	0.030392758
2019-08-01T01:30:00	0.2176	14.202	214.0	0.526362009	0.634663133	0.009568083	0.098712149	0.030424043
2019-08-01T01:35:00	0.2175	14.190	213.9	0.526316809	0.634599653	0.009566578	0.098696625	0.030419258
2019-08-01T01:40:00	0.2203	14.183	213.9	0.535800893	0.647955867	0.009884917	0.101980866	0.031431493
2019-08-01T01:45:00	0.2176	14.189	214.0	0.526567197	0.634951328	0.009574915	0.098782637	0.030445768
2019-08-01T01:50:00	0.2188	14.177	213.9	0.530608906	0.640635042	0.009709995	0.100176232	0.030875288
2019-08-01T01:55:00	0.2189	14.174	213.8	0.530904123	0.641050716	0.009719899	0.100278409	0.030906779
2019-08-01T02:00:00	0.2217	14.171	214.1	0.540375630	0.654424579	0.010040348	0.103584415	0.031925723
2019-08-01T02:05:00	0.2221	14.163	214.1	0.541688016	0.656283458	0.010085163	0.104046766	0.032068224
2019-08-01T02:10:00	0.2215	14.157	214.1	0.539946157	0.653816574	0.010025704	0.103433338	0.031879159
2019-08-01T02:15:00	0.2217	14.148	214.1	0.540579987	0.654713939	0.010047319	0.103656341	0.031947891
2019-08-01T02:20:00	0.2203	14.135	214.0	0.535780145	0.647926568	0.009884215	0.101973622	0.031429261
2019-08-01T02:25:00	0.2209	14.131	213.0	0.537773678	0.650743304	0.009951794	0.102670824	0.031644145
2019-08-01T02:30:00	0.2192	14.124	212.8	0.531949361	0.642523012	0.009755006	0.100640594	0.031018409
2019-08-01T02:35:00	0.2205	14.120	209.8	0.536324601	0.648695527	0.009902648	0.102163798	0.031487875
2019-08-01T02:40:00	0.2212	14.096	212.5	0.538657418	0.651993011	0.009981826	0.102980663	0.031739640
2019-08-01T02:45:00	0.2228	14.092	212.0	0.544041492	0.659620478	0.010165782	0.104878498	0.032324572
2019-08-01T02:50:00	0.2224	14.076	212.0	0.542979199	0.658113680	0.010129353	0.104502663	0.032208736
2019-08-01T02:55:00	0.2209	14.064	198.4	0.537843042	0.650841370	0.009954150	0.102695126	0.031651635
2019-08-01T03:00:00	0.2193	14.060	198.4	0.532359061	0.643100347	0.009768784	0.100782739	0.031062219
2019-08-01T03:05:00	0.2181	14.042	212.0	0.528229054	0.637286731	0.009630342	0.099354462	0.030622010
2019-08-01T03:10:00	0.2189	14.032	212.0	0.530907708	0.641055764	0.009720020	0.100279650	0.030907162
2019-08-01T03:15:00	0.2188	14.011	198.4	0.530522202	0.640512973	0.009707088	0.100146233	0.030866042
2019-08-01T03:20:00	0.2185	14.005	211.9	0.529455745	0.639012037	0.009671358	0.099777617	0.030752431
2019-08-01T03:25:00	0.2152	13.997	211.8	0.518497562	0.623642978	0.009308060	0.096029535	0.029597235
2019-08-01T03:30:00	0.2183	13.975	211.7	0.529024912	0.638405943	0.009656942	0.099628896	0.030706593
2019-08-01T03:35:00	0.2171	13.961	211.5	0.524890906	0.632597915	0.009519170	0.098207525	0.030268513
2019-08-01T03:40:00	0.2170	13.940	211.7	0.524504726	0.632056065	0.009506351	0.098075271	0.030227751
2019-08-01T03:45:00	0.2168	13.914	198.0	0.523777470	0.631035979	0.009482233	0.097826454	0.030151063
2019-08-01T03:50:00	0.2175	13.898	211.5	0.526118786	0.634321562	0.009559987	0.098628628	0.030398301
2019-08-01T03:55:00	0.2161	13.885	211.6	0.521298764	0.627562444	0.009400264	0.096980791	0.029890422
2019-08-01T04:00:00	0.2166	13.867	211.4	0.522959573	0.629889267	0.009455146	0.097547003	0.030064934
2019-08-01T04:05:00	0.2163	13.854	211.3	0.522029597	0.628586079	0.009424395	0.097229747	0.029967152
2019-08-01T04:10:00	0.2171	13.847	211.3	0.524851788	0.632543023	0.009517871	0.098194125	0.030264383
2019-08-01T04:15:00	0.2172	13.817	211.2	0.525286194	0.633152669	0.009532301	0.098342991	0.030310265
2019-08-01T04:20:00	0.2165	13.807	211.2	0.522651464	0.629457432	0.009444953	0.097441836	0.030032520
2019-08-01T04:25:00	0.2163	13.797	211.2	0.522062641	0.628632371	0.009425487	0.097241011	0.029970624
2019-08-01T04:30:00	0.2173	13.782	211.1	0.525566617	0.633546298	0.009541621	0.098439149	0.030339902
2019-08-01T04:35:00	0.2174	13.779	210.9	0.526000932	0.634156070	0.009556066	0.098588171	0.030385832
2019-08-01T04:40:00	0.2164	13.768	210.9	0.522343327	0.629025634	0.009434764	0.097336716	0.030000121
2019-08-01T04:45:00	0.2173	13.745	197.4	0.525506156	0.633461423	0.009539611	0.098418413	0.030333511
2019-08-01T04:50:00	0.2174	13.740	211.1	0.525940479	0.634071185	0.009554055	0.098567421	0.030379436
2019-08-01T04:55:00	0.2184	13.724	210.8	0.529100006	0.638511574	0.009659454	0.099654810	0.030714580
2019-08-01T05:00:00	0.2188	13.727	210.8	0.530555165	0.640559379	0.009708193	0.100157637	0.030869557
2019-08-01T05:05:00	0.2168	13.709	210.7	0.523834369	0.631115773	0.009484119	0.097845909	0.030157059
2019-08-01T05:10:00	0.2171	13.704	197.3	0.524950837	0.632682015	0.009521160	0.098228058	0.030274841
2019-08-01T05:15:00	0.2169	13.699	197.2	0.524021400	0.631378078	0.009490319	0.097909874	0.030176774
2019-08-01T05:20:00	0.2167	13.693	197.2	0.523432811	0.630552692	0.009470814	0.097708645	0.030114753
2019-08-01T05:25:00	0.2191	13.691	210.7	0.531702409	0.642175080	0.009746705	0.100554963	0.030992016
2019-08-01T05:30:00	0.2188	13.689	210.7	0.530774791	0.640868603	0.009715560	0.100233639	0.030892981
2019-08-01T05:35:00	0.2185	13.696	197.2	0.529506458	0.639083388	0.009673055	0.099795130	0.030757828
2019-08-01T05:40:00	0.2187	13.696	197.2	0.530280699	0.640173000	0.009698991	0.100062699	0.030840296
2019-08-01T05:45:00	0.2189	13.701	210.5	0.531054768	0.641262854	0.009724955	0.100330568	0.030922855
2019-08-01T05:50:00	0.2177	13.711	210.7	0.526721080	0.635167484	0.009580041	0.098835516	0.030462066
2019-08-01T05:55:00	0.2165	13.716	210.9	0.522723103	0.629557832	0.009447322	0.097466284	0.030040055
2019-08-01T06:00:00	0.2208	13.720	197.3	0.537454732	0.650292435	0.009940966	0.102559117	0.031609716
2019-08-01T06:05:00	0.2194	13.727	210.9	0.532788938	0.643706263	0.009783251	0.100931992	0.031108220
2019-08-01T06:10:00	0.2185	13.741	211.0	0.529479038	0.639044809	0.009672138	0.099785661	0.030754910
2019-08-01T06:15:00	0.2179	13.752	197.5	0.527528939	0.636302587	0.009606972	0.099113359	0.030547700
2019-08-01T06:20:00	0.2196	13.765	211.1	0.533408866	0.644580322	0.009804132	0.101147428	0.031174619
2019-08-01T06:25:00	0.2194	13.780	211.1	0.532481706	0.643273202	0.009772910	0.100825310	0.031075340
2019-08-01T06:30:00	0.2180	13.801	211.3	0.527809180	0.636696470	0.009616323	0.099209832	0.030577434
2019-08-01T06:35:00	0.2187	13.819	211.5	0.530286251	0.640180815	0.009699177	0.100064619	0.030840887
2019-08-01T06:40:00	0.2171	13.839	211.5	0.524928943	0.632651290	0.009520433	0.098220556	0.030272529
2019-08-01T06:45:00	0.2172	13.861	198.0	0.525022429	0.632782483	0.009523538	0.098252588	0.030282402
2019-08-01T06:50:00	0.2174	13.886	211.7	0.525797679	0.633870687	0.009549305	0.098518417	0.030364333
2019-08-01T06:55:00	0.2172	13.911	211.8	0.525209395	0.633044878	0.009529749	0.098316664	0.030302151
2019-08-01T07:00:00	0.2164	13.940	211.9	0.522574606	0.629349722	0.009442411	0.097415611	0.030024437
2019-08-01T07:05:00	0.2172	13.967	212.1	0.525055444	0.632828815	0.009524635	0.098263901	0.030285889
2019-08-01T07:10:00	0.2186	13.997	198.6	0.529918413	0.639663084	0.009686851	0.099937452	0.030801693
2019-08-01T07:15:00	0.2162	14.037	212.3	0.521831675	0.628308818	0.009417857	0.097162294	0.029946363
2019-08-01T07:20:00	0.2165	14.099	212.7	0.522607644	0.629396022	0.009443503	0.097426884	0.030027912
2019-08-01T07:25:00	0.2171	14.165	213.0	0.524747523	0.632396719	0.009514410	0.098158411	0.030253375
2019-08-01T07:30:00	0.2165	14.181	213.2	0.522794741	0.629658235	0.009449692	0.097490734	0.030047591
2019-08-01T07:35:00	0.2176	14.236	213.3	0.526638755	0.635051842	0.009577299	0.098807225	0.030453346
2019-08-01T07:40:00	0.2151	14.423	214.2	0.517861090	0.622753308	0.009287173	0.095814053	0.029530822
2019-08-01T07:45:00	0.2171	14.374	214.2	0.524780540	0.632443048	0.009515506	0.098169719	0.030256861
2019-08-01T07:50:00	0.2168	14.402	214.2	0.523851057	0.631139175	0.009484672	0.097851615	0.030158818
2019-08-01T07:55:00	0.2173	14.435	214.5	0.525649315	0.633662392	0.009544371	0.098467515	0.030348645
2019-08-01T08:00:00	0.2165	14.452	214.3	0.522673721	0.629488624	0.009445689	0.097449431	0.030034861
2019-08-01T08:05:00	0.2170	14.483	200.9	0.524472594	0.632010985	0.009505285	0.098064271	0.030224361
2019-08-01T08:10:00	0.2180	14.514	214.8	0.527974119	0.636928325	0.009621829	0.099266634	0.030594941
2019-08-01T08:15:00	0.2177	14.542	214.9	0.526704754	0.635144551	0.009579497	0.098829906	0.030460337
2019-08-01T08:20:00	0.2178	14.609	201.4	0.527138926	0.635754523	0.009593966	0.098979175	0.030506343
2019-08-01T08:25:00	0.2169	14.753	216.0	0.524164620	0.631578961	0.009495068	0.097958871	0.030191875
2019-08-01T08:30:00	0.2179	14.661	215.8	0.527666458	0.636495864	0.009611560	0.099160694	0.030562289
2019-08-01T08:35:00	0.2169	14.680	201.8	0.524010623	0.631362964	0.009489962	0.097906188	0.030175638
2019-08-01T08:40:00	0.2164	14.722	215.9	0.522398626	0.629103121	0.009436592	0.097355577	0.030005934
2019-08-01T08:45:00	0.2163	14.775	216.2	0.522150988	0.628756146	0.009428406	0.097271129	0.029979907
2019-08-01T08:50:00	0.2157	14.826	216.4	0.520196731	0.626019712	0.009363935	0.096605992	0.029774905
2019-08-01T08:55:00	0.2166	14.864	216.5	0.523020426	0.629974567	0.009457160	0.097567781	0.030071338
2019-08-01T09:00:00	0.2167	14.926	216.8	0.523455063	0.630583892	0.009471551	0.097716249	0.030117097
2019-08-01T09:05:00	0.2142	15.343	218.3	0.515011190	0.618773695	0.009193939	0.094852169	0.029234360
2019-08-01T09:10:00	0.2166	15.166	218.2	0.522959921	0.629889755	0.009455158	0.097547122	0.030064970
2019-08-01T09:15:00	0.2149	14.983	217.4	0.517249501	0.621898729	0.009267125	0.095607223	0.029467075
2019-08-01T09:20:00	0.2162	14.926	217.2	0.521782280	0.628239628	0.009416226	0.097145463	0.029941175
2019-08-01T09:25:00	0.2143	15.033	217.4	0.515386202	0.619296988	0.009206180	0.094978463	0.029273285
2019-08-01T09:30:00	0.2168	15.027	217.7	0.523675142	0.630892483	0.009478842	0.097791469	0.030140281
2019-08-01T09:35:00	0.2157	15.039	217.5	0.520015061	0.625765487	0.009357953	0.096544277	0.029755884
2019-08-01T09:40:00	0.2178	15.047	217.7	0.527270904	0.635939970	0.009598366	0.099024571	0.030520335
2019-08-01T09:45:00	0.2174	15.042	217.6	0.526001280	0.634156558	0.009556077	0.098588290	0.030385868
2019-08-01T09:50:00	0.2182	15.039	217.7	0.528479651	0.637639088	0.009638714	0.099440834	0.030648631
2019-08-01T09:55:00	0.2182	15.030	217.6	0.528573041	0.637770414	0.009641835	0.099473032	0.030658554
2019-08-01T10:00:00	0.2163	15.041	217.7	0.522189596	0.628810237	0.009429682	0.097284293	0.029983964
2019-08-01T10:05:00	0.2169	15.050	217.7	0.524133567	0.631535403	0.009494039	0.097948246	0.030188601
2019-08-01T10:10:00	0.2162	15.057	217.8	0.521642902	0.628044405	0.009411623	0.097097981	0.029926541
2019-08-01T10:15:00	0.2162	15.050	217.8	0.521881417	0.628378497	0.009419500	0.097179244	0.029951587
2019-08-01T10:20:00	0.2167	15.053	217.8	0.523484501	0.630625166	0.009472526	0.097726309	0.030120197
2019-08-01T10:25:00	0.2200	15.075	217.9	0.534619392	0.646287991	0.009844973	0.101568772	0.031304482
2019-08-01T10:30:00	0.2180	15.091	218.1	0.528051203	0.637036690	0.009624403	0.099293187	0.030603124
2019-08-01T10:35:00	0.2172	15.183	218.4	0.525222484	0.633063250	0.009530184	0.098321151	0.030303534
2019-08-01T10:40:00	0.2151	15.210	218.6	0.517953144	0.622881962	0.009290192	0.095845203	0.029540422
2019-08-01T10:45:00	0.2166	15.252	218.9	0.522971048	0.629905352	0.009455526	0.097550921	0.030066141
2019-08-01T10:50:00	0.2163	15.252	218.9	0.522186002	0.628805202	0.009429563	0.097283067	0.029983586
2019-08-01T10:55:00	0.2162	15.276	219.0	0.521742044	0.628183269	0.009414897	0.097131755	0.029936950
2019-08-01T11:00:00	0.2172	15.274	219.0	0.525050231	0.632821500	0.009524462	0.098262115	0.030285338
2019-08-01T11:05:00	0.2153	15.292	219.1	0.518805309	0.624073270	0.009318167	0.096133813	0.029629375
2019-08-01T11:10:00	0.2154	15.360	219.4	0.519044021	0.624407089	0.009326011	0.096214737	0.029654317
2019-08-01T11:15:00	0.2161	15.360	219.6	0.521331080	0.627607698	0.009401330	0.096991792	0.029893812
2019-08-01T11:20:00	0.2154	15.382	219.7	0.519179906	0.624597135	0.009330478	0.096260819	0.029668519
2019-08-01T11:25:00	0.2140	15.384	219.7	0.514292534	0.617771200	0.009170502	0.094610379	0.029159838
2019-08-01T11:30:00	0.2135	15.403	219.8	0.512479133	0.615243434	0.009111497	0.094001639	0.028972218
2019-08-01T11:35:00	0.2140	15.408	219.9	0.514086612	0.617484023	0.009163792	0.094541154	0.029138502
2019-08-01T11:40:00	0.2133	15.410	219.9	0.511930891	0.614479742	0.009093696	0.093817986	0.028915614
2019-08-01T11:45:00	0.2147	15.444	220.1	0.516615856	0.621013650	0.009246377	0.095393170	0.029401101
2019-08-01T11:50:00	0.2136	15.488	220.2	0.512751420	0.615622814	0.009120345	0.094092917	0.029000351
2019-08-01T11:55:00	0.2141	15.507	220.4	0.514700740	0.618340579	0.009183811	0.094747681	0.029202155
2019-08-01T12:00:00	0.2158	15.503	220.4	0.520406231	0.626312914	0.009370836	0.096677187	0.029796848
2019-08-01T12:05:00	0.2149	15.488	220.4	0.517229531	0.621870830	0.009266471	0.095600473	0.029464994
2019-08-01T12:10:00	0.2157	15.468	220.2	0.520200675	0.626025231	0.009364065	0.096607333	0.029775318
2019-08-01T12:15:00	0.2164	15.466	220.2	0.522486965	0.629226907	0.009439513	0.097385711	0.030015222
2019-08-01T12:20:00	0.2139	15.497	220.4	0.513843952	0.617145657	0.009155888	0.094459611	0.029113370
2019-08-01T12:25:00	0.2154	15.522	220.5	0.518867861	0.624160739	0.009320222	0.096155015	0.029635909
2019-08-01T12:30:00	0.2135	15.557	220.7	0.512611675	0.615428099	0.009115804	0.094046065	0.028985911
2019-08-01T12:35:00	0.2155	15.539	220.7	0.519345260	0.624828413	0.009335914	0.096316908	0.029685806
2019-08-01T12:40:00	0.2145	15.512	220.6	0.515825755	0.619910487	0.009220539	0.095126600	0.029318942
2019-08-01T12:45:00	0.2158	15.516	220.6	0.520505409	0.626451729	0.009374104	0.096710899	0.029807238
2019-08-01T12:50:00	0.2152	15.570	220.9	0.518353718	0.623441882	0.009303337	0.095980815	0.029582219
2019-08-01T12:55:00	0.2160	15.575	220.8	0.520982580	0.627119719	0.009389834	0.096873183	0.029857256
2019-08-01T13:00:00	0.2145	15.565	221.0	0.516097775	0.620290233	0.009229431	0.095218334	0.029347215
2019-08-01T13:05:00	0.2164	15.568	220.9	0.522483371	0.629221871	0.009439394	0.097384485	0.030014844
2019-08-01T13:10:00	0.2128	15.572	220.9	0.510075866	0.611897527	0.009033593	0.093197914	0.028724502
2019-08-01T13:15:00	0.2121	15.575	220.9	0.507574971	0.608420650	0.008952879	0.092365203	0.028467853
2019-08-01T13:20:00	0.2139	15.591	221.0	0.513976441	0.617330394	0.009160203	0.094504128	0.029127090
2019-08-01T13:25:00	0.2131	15.624	221.2	0.511136103	0.613373048	0.009067920	0.093552064	0.028833655
2019-08-01T13:30:00	0.2133	15.608	221.1	0.511717616	0.614182720	0.009086776	0.093746591	0.028893610
2019-08-01T13:35:00	0.2148	15.616	221.2	0.517086370	0.621670835	0.009261781	0.095552092	0.029450083
2019-08-01T13:40:00	0.2142	15.609	221.3	0.514932534	0.618663954	0.009191372	0.094825690	0.029226199
2019-08-01T13:45:00	0.2140	15.617	221.2	0.514145647	0.617566350	0.009165716	0.094560998	0.029144618
2019-08-01T13:50:00	0.2155	15.609	221.1	0.519510605	0.625059703	0.009341352	0.096373010	0.029703098
2019-08-01T13:55:00	0.2126	15.614	221.2	0.509490466	0.611083221	0.009014667	0.093002662	0.028664324
2019-08-01T14:00:00	0.2135	15.618	221.3	0.512468320	0.615228369	0.009111146	0.093998015	0.028971101
2019-08-01T14:05:00	0.2142	15.599	221.2	0.514759764	0.618422920	0.009185736	0.094767542	0.029208277
2019-08-01T14:10:00	0.2144	15.593	206.9	0.515682534	0.619710572	0.009215859	0.095078320	0.029304062
2019-08-01T14:15:00	0.2146	15.589	221.2	0.516263277	0.620521306	0.009234843	0.095274168	0.029364424
2019-08-01T14:20:00	0.2123	15.620	221.3	0.508289799	0.609413926	0.008975913	0.092602835	0.028541093
2019-08-01T14:25:00	0.2134	15.636	207.2	0.512295426	0.614987507	0.009105531	0.093940080	0.028953245
2019-08-01T14:30:00	0.2118	15.633	221.5	0.506712788	0.607223167	0.008925137	0.092078992	0.028379639
2019-08-01T14:35:00	0.2126	15.647	221.5	0.509350589	0.610888688	0.009010148	0.092956038	0.028649954
2019-08-01T14:40:00	0.2106	15.671	221.6	0.502733843	0.601704589	0.008797664	0.090763880	0.027974309
2019-08-01T14:45:00	0.2112	15.663	221.5	0.504688877	0.604414520	0.008860183	0.091408873	0.028173103
2019-08-01T14:50:00	0.2122	15.677	221.6	0.508013548	0.609030019	0.008967008	0.092510964	0.028512778
2019-08-01T14:55:00	0.2131	15.660	221.6	0.510992686	0.613173404	0.009063273	0.093504119	0.028818878
2019-08-01T15:00:00	0.2115	15.663	221.6	0.505750784	0.605887752	0.008894233	0.091760167	0.028281375
2019-08-01T15:05:00	0.2119	15.676	221.7	0.507018722	0.607648010	0.008934976	0.092180499	0.028410925
2019-08-01T15:10:00	0.2119	15.697	221.7	0.506915544	0.607504720	0.008931657	0.092146259	0.028400372
2019-08-01T15:15:00	0.2120	15.696	221.8	0.507497774	0.608313408	0.008950393	0.092339559	0.028459949
2019-08-01T15:20:00	0.2106	15.710	207.6	0.502593689	0.601510435	0.008793191	0.090717728	0.027960085
2019-08-01T15:25:00	0.2126	15.706	221.8	0.509346981	0.610883671	0.009010032	0.092954835	0.028649583
2019-08-01T15:30:00	0.2107	15.708	221.9	0.503073362	0.602174985	0.008808506	0.090875728	0.028008782
2019-08-01T15:35:00	0.2124	15.701	221.9	0.508798237	0.610120668	0.008992314	0.092772042	0.028593244
2019-08-01T15:40:00	0.2113	15.721	222.0	0.504924963	0.604741973	0.008867747	0.091486916	0.028197156
2019-08-01T15:45:00	0.2094	15.727	222.0	0.498299631	0.595569593	0.008656683	0.089309407	0.027526027
2019-08-01T15:50:00	0.2104	15.711	222.0	0.501973769	0.600651857	0.008773418	0.090513735	0.027897212
2019-08-01T15:55:00	0.2087	15.711	222.0	0.496030417	0.592436114	0.008584975	0.088569605	0.027298013
2019-08-01T16:00:00	0.2082	15.702	221.9	0.494207294	0.589921622	0.008527578	0.087977455	0.027115506
2019-08-01T16:05:00	0.2081	15.711	221.9	0.493915055	0.589518808	0.008518396	0.087882719	0.027086308
2019-08-01T16:10:00	0.2078	15.709	221.9	0.492934584	0.588167854	0.008487624	0.087565249	0.026988460
2019-08-01T16:15:00	0.2076	15.703	222.0	0.492298051	0.587291210	0.008467676	0.087359450	0.026925031
2019-08-01T16:20:00	0.2076	15.688	221.9	0.492349862	0.587362553	0.008469299	0.087376192	0.026930191
2019-08-01T16:25:00	0.2061	15.678	222.0	0.487234872	0.580329685	0.008309834	0.085731023	0.026423134
2019-08-01T16:30:00	0.2069	15.666	221.9	0.489698875	0.583714956	0.008386464	0.086521599	0.026666797
2019-08-01T16:35:00	0.2079	15.663	221.9	0.493193584	0.588524645	0.008495747	0.087649056	0.027014290
2019-08-01T16:40:00	0.2060	15.662	221.9	0.486701066	0.579596933	0.008293279	0.085560226	0.026370493
2019-08-01T16:45:00	0.2053	15.658	221.9	0.484338754	0.576356943	0.008220211	0.084806405	0.026138158
2019-08-01T16:50:00	0.2044	15.650	221.8	0.481284226	0.572174162	0.008126209	0.083836597	0.025839253
2019-08-01T16:55:00	0.2060	15.644	221.7	0.486856754	0.579810621	0.008298105	0.085610022	0.026385840
2019-08-01T17:00:00	0.2065	15.641	207.5	0.488631953	0.582248525	0.008353240	0.086178835	0.026561154
2019-08-01T17:05:00	0.2080	15.639	207.5	0.493504358	0.588952830	0.008505499	0.087749669	0.027045300
2019-08-01T17:10:00	0.2066	15.641	221.8	0.488735686	0.582391062	0.008356467	0.086212131	0.026571416
2019-08-01T17:15:00	0.2065	15.620	221.8	0.488442977	0.581988882	0.008347362	0.086118194	0.026542464
2019-08-01T17:20:00	0.2064	15.603	221.6	0.488150242	0.581586735	0.008338261	0.086024299	0.026513525
2019-08-01T17:25:00	0.2065	15.590	221.7	0.488546716	0.582131410	0.008350588	0.086151480	0.026552723
2019-08-01T17:30:00	0.2061	15.572	221.6	0.487219997	0.580309262	0.008309372	0.085726261	0.026421666
2019-08-01T17:35:00	0.2068	15.563	221.5	0.489684010	0.583694519	0.008386000	0.086516819	0.026665324
2019-08-01T17:40:00	0.2077	15.555	221.5	0.492490438	0.587556135	0.008473702	0.087421626	0.026944194
2019-08-01T17:45:00	0.2054	15.542	221.4	0.484616931	0.576738240	0.008228799	0.084895000	0.026165464
2019-08-01T17:50:00	0.2073	15.523	207.2	0.491217086	0.585803234	0.008433853	0.087010511	0.026817485
2019-08-01T17:55:00	0.2049	15.504	221.3	0.482995495	0.574516605	0.008178807	0.084379242	0.026006502
2019-08-01T18:00:00	0.2066	15.487	221.2	0.488909778	0.582630294	0.008361885	0.086268025	0.026588643
2019-08-01T18:05:00	0.2063	15.466	221.1	0.487927863	0.581281288	0.008331350	0.085953006	0.026491551
2019-08-01T18:10:00	0.2082	15.445	206.8	0.494177603	0.589880695	0.008526645	0.087967828	0.027112539
2019-08-01T18:15:00	0.2071	15.420	206.8	0.490443204	0.584738539	0.008409681	0.086761126	0.026740622
2019-08-01T18:20:00	0.2068	15.399	220.9	0.489461732	0.583388936	0.008379073	0.086445355	0.026643298
2019-08-01T18:25:00	0.2093	15.379	220.8	0.498114810	0.595314226	0.008650832	0.089249038	0.027507420
2019-08-01T18:30:00	0.2085	15.354	220.7	0.495416547	0.591589153	0.008565627	0.088370000	0.027236492
2019-08-01T18:35:00	0.2097	15.331	220.6	0.499592395	0.597356577	0.008697668	0.089732240	0.027656348
2019-08-01T18:40:00	0.2074	15.308	220.5	0.491735328	0.586516490	0.008450060	0.087177715	0.026869018
2019-08-01T18:45:00	0.2074	15.286	220.4	0.491442876	0.586113962	0.008440913	0.087083340	0.026839931
2019-08-01T18:50:00	0.2094	15.262	220.2	0.498373416	0.595671550	0.008659020	0.089333514	0.027533457
2019-08-01T18:55:00	0.2099	15.241	220.1	0.500142620	0.598117558	0.008715141	0.089912507	0.027711908
2019-08-01T19:00:00	0.2096	15.217	220.0	0.499163941	0.596764176	0.008684074	0.089591992	0.027613122
2019-08-01T19:05:00	0.2072	15.197	219.9	0.490961563	0.585451636	0.008425868	0.086928129	0.026792094
2019-08-01T19:10:00	0.2096	15.178	219.9	0.499267354	0.596907146	0.008687354	0.089625833	0.027623552
2019-08-01T19:15:00	0.2090	15.158	219.9	0.497257475	0.594130003	0.008623714	0.088969266	0.027421192
2019-08-01T19:20:00	0.2107	15.139	219.7	0.502803918	0.601801669	0.008799901	0.090786959	0.027981422
2019-08-01T19:25:00	0.2109	15.118	219.7	0.503541777	0.602824116	0.008823474	0.091030152	0.028056377
2019-08-01T19:30:00	0.2122	15.100	219.5	0.508050336	0.609081140	0.008968193	0.092523196	0.028516548
2019-08-01T19:35:00	0.2091	15.084	219.5	0.497464413	0.594415789	0.008630256	0.089036756	0.027441993
2019-08-01T19:40:00	0.2105	15.059	219.4	0.502324208	0.601137170	0.008784593	0.090629023	0.027932745
2019-08-01T19:45:00	0.2110	15.045	219.3	0.504091365	0.603585964	0.008841052	0.091211504	0.028112271
2019-08-01T19:50:00	0.2109	15.028	219.3	0.503456912	0.602706497	0.008820761	0.091002165	0.028047751
2019-08-01T19:55:00	0.2123	15.008	219.2	0.508308191	0.609439489	0.008976506	0.092608953	0.028542979
2019-08-01T20:00:00	0.2117	14.984	219.1	0.506303629	0.606655097	0.008911986	0.091943322	0.028337825
2019-08-01T20:05:00	0.2111	14.968	219.0	0.504297890	0.603872314	0.008847662	0.091279699	0.028133290
2019-08-01T20:10:00	0.2110	14.951	218.9	0.504006514	0.603468326	0.008838337	0.091183493	0.028103638
2019-08-01T20:15:00	0.2121	14.933	218.8	0.507829252	0.608773935	0.008961069	0.092449700	0.028493895
2019-08-01T20:20:00	0.2129	14.902	218.7	0.510620799	0.612655792	0.009051228	0.093379854	0.028780578
2019-08-01T20:25:00	0.2124	14.878	218.6	0.508617592	0.609869543	0.008986485	0.092711906	0.028574710
2019-08-01T20:30:00	0.2137	14.850	218.5	0.513119472	0.616135722	0.009132311	0.094216369	0.029038400
2019-08-01T20:35:00	0.2126	14.823	204.2	0.509405749	0.610965400	0.009011930	0.092974422	0.028655620
2019-08-01T20:40:00	0.2116	14.791	218.2	0.506030829	0.606276421	0.008903224	0.091852922	0.028309962
2019-08-01T20:45:00	0.2112	14.762	218.0	0.504710901	0.604445066	0.008860888	0.091416153	0.028175346
2019-08-01T20:50:00	0.2118	14.735	217.9	0.506819582	0.607371461	0.008928571	0.092114419	0.028390559
2019-08-01T20:55:00	0.2120	14.705	217.8	0.507213891	0.607919075	0.008941255	0.092245285	0.028430893
2019-08-01T21:00:00	0.2139	14.688	217.7	0.513770499	0.617043244	0.009153496	0.094434936	0.029105764
2019-08-01T21:05:00	0.2149	14.657	217.6	0.517240677	0.621886402	0.009266836	0.095604240	0.029466155
2019-08-01T21:10:00	0.2134	14.626	217.4	0.512162872	0.614802859	0.009101226	0.093895674	0.028939559
2019-08-01T21:15:00	0.2142	14.595	217.2	0.514950891	0.618689565	0.009191971	0.094831870	0.029228103
2019-08-01T21:20:00	0.2166	14.573	217.1	0.523198692	0.630224462	0.009463062	0.097628661	0.030090102
2019-08-01T21:25:00	0.2157	14.541	217.1	0.520178750	0.625994548	0.009363343	0.096599883	0.029773022
2019-08-01T21:30:00	0.2168	14.499	216.9	0.523642462	0.630846656	0.009477759	0.097780298	0.030136837
2019-08-01T21:35:00	0.2143	14.481	216.8	0.515156761	0.618976813	0.009198689	0.094901184	0.029249466
2019-08-01T21:40:00	0.2150	14.455	216.6	0.517600702	0.622389429	0.009278635	0.095725966	0.029503672
2019-08-01T21:45:00	0.2127	14.428	216.5	0.509784982	0.611492866	0.009024186	0.093100868	0.028694592
2019-08-01T21:50:00	0.2140	14.392	216.3	0.514285329	0.617761151	0.009170267	0.094607957	0.029159091
2019-08-01T21:55:00	0.2139	14.378	216.2	0.513994803	0.617355999	0.009160801	0.094510299	0.029128992
2019-08-01T22:00:00	0.2151	14.339	216.0	0.518148039	0.623154370	0.009296587	0.095911172	0.029560755
2019-08-01T22:05:00	0.2155	14.306	215.8	0.519266355	0.624718048	0.009333320	0.096290141	0.029677556
2019-08-01T22:10:00	0.2167	14.275	215.7	0.523455411	0.630584379	0.009471563	0.097716368	0.030117134
2019-08-01T22:15:00	0.2171	14.256	215.5	0.524912956	0.632628856	0.009519902	0.098215079	0.030270841
2019-08-01T22:20:00	0.2171	14.228	215.4	0.524665498	0.632281629	0.009511687	0.098130320	0.030244718
2019-08-01T22:25:00	0.2150	14.265	202.6	0.517591531	0.622376613	0.009278334	0.095722864	0.029502716
2019-08-01T22:30:00	0.2148	14.143	202.4	0.517001840	0.621552755	0.009259013	0.095523531	0.029441280
2019-08-01T22:35:00	0.2134	14.089	216.0	0.512308216	0.615005324	0.009105946	0.093944365	0.028954566
2019-08-01T22:40:00	0.2148	14.069	201.8	0.516847521	0.621337203	0.009253960	0.095471401	0.029425213
2019-08-01T22:45:00	0.2151	14.045	201.7	0.517966261	0.622900295	0.009290623	0.095849642	0.029541791
2019-08-01T22:50:00	0.2164	14.024	201.6	0.522498094	0.629242503	0.009439881	0.097389507	0.030016392
2019-08-01T22:55:00	0.2166	14.013	201.8	0.523273913	0.630329916	0.009465552	0.097654356	0.030098021
2019-08-01T23:00:00	0.2172	13.988	201.6	0.525072473	0.632852714	0.009525200	0.098269737	0.030287687
2019-08-01T23:05:00	0.2178	13.955	201.5	0.527210820	0.635855542	0.009596363	0.099003903	0.030513964
2019-08-01T23:10:00	0.2169	13.948	201.2	0.524236576	0.631679894	0.009497455	0.097983492	0.030199464
2019-08-01T23:15:00	0.2183	13.924	201.0	0.528760161	0.638033567	0.009648089	0.099537560	0.030678443
2019-08-01T23:20:00	0.2172	13.905	214.7	0.525105488	0.632899047	0.009526297	0.098281051	0.030291174
2019-08-01T23:25:00	0.2173	13.870	200.8	0.525539861	0.633508738	0.009540732	0.098429972	0.030337073
2019-08-01T23:30:00	0.2188	13.837	200.7	0.530742524	0.640823171	0.009714477	0.100222472	0.030889539
2019-08-01T23:35:00	0.2181	13.830	200.6	0.528111967	0.637122114	0.009626432	0.099314120	0.030609576
2019-08-01T23:40:00	0.2198	13.789	200.4	0.533990900	0.645401239	0.009823758	0.101349905	0.031237025
2019-08-01T23:45:00	0.2192	13.769	200.3	0.532043351	0.642655448	0.009758166	0.100673195	0.031028456
2019-08-01T23:50:00	0.2203	13.747	200.2	0.535877071	0.648063444	0.009887495	0.102007465	0.031439691
2019-08-01T23:55:00	0.2214	13.725	200.0	0.539367047	0.652996967	0.010005975	0.103229799	0.031816427
2019-08-02T00:00:00	0.2203	13.723	200.0	0.535723596	0.647846716	0.009882301	0.101953880	0.031423176
2019-08-02T00:05:00	0.2197	13.716	213.7	0.533777025	0.645099552	0.009816544	0.101275478	0.031214086
2019-08-02T00:10:00	0.2183	13.671	199.8	0.528765716	0.638041379	0.009648275	0.099539476	0.030679033
2019-08-02T00:15:00	0.2205	13.659	213.5	0.536342998	0.648721515	0.009903272	0.102170227	0.031489856
2019-08-02T00:20:00	0.2187	13.649	199.6	0.530314358	0.640220380	0.009700119	0.100074339	0.030843883
2019-08-02T00:25:00	0.2188	13.629	213.2	0.530748076	0.640830987	0.009714664	0.100224393	0.030890131
2019-08-02T00:30:00	0.2195	13.607	213.2	0.532882905	0.643838730	0.009786414	0.100964633	0.031118280
2019-08-02T00:35:00	0.2205	13.590	213.0	0.536375905	0.648767999	0.009904386	0.102181727	0.031493401
2019-08-02T00:40:00	0.2201	13.557	212.8	0.535109628	0.646979899	0.009861537	0.101739659	0.031357151
2019-08-02T00:45:00	0.2201	13.539	212.7	0.534862902	0.646631650	0.009853199	0.101653637	0.031330638
2019-08-02T00:50:00	0.2218	13.520	212.7	0.540730363	0.654926888	0.010052451	0.103709284	0.031964209
2019-08-02T00:55:00	0.2202	13.504	212.6	0.535389254	0.647374644	0.009870991	0.101837195	0.031387213
2019-08-02T01:00:00	0.2192	13.487	198.8	0.532081849	0.642709693	0.009759460	0.100686549	0.031032572
2019-08-02T01:05:00	0.2199	13.473	214.1	0.534215853	0.645718593	0.009831349	0.101428216	0.031261161
2019-08-02T01:10:00	0.2175	13.427	213.8	0.526139207	0.634350237	0.009560667	0.098635639	0.030400462
2019-08-02T01:15:00	0.2184	13.420	213.7	0.529298552	0.638790880	0.009666097	0.099723342	0.030735702
2019-08-02T01:20:00	0.2185	13.392	213.6	0.529732397	0.639401309	0.009680620	0.099873175	0.030781882
2019-08-02T01:25:00	0.2178	13.378	213.6	0.527101069	0.635701331	0.009592704	0.098966155	0.030502330
2019-08-02T01:30:00	0.2192	13.362	213.6	0.531961154	0.642539627	0.009755402	0.100644684	0.031019669
2019-08-02T01:35:00	0.2182	13.352	213.3	0.528650459	0.637879287	0.009644422	0.099499727	0.030666782
2019-08-02T01:40:00	0.2194	13.321	213.2	0.532487948	0.643282000	0.009773120	0.100827477	0.031076008
2019-08-02T01:45:00	0.2188	13.316	213.1	0.530539551	0.640537397	0.009707669	0.100152235	0.030867892
2019-08-02T01:50:00	0.2208	13.296	213.0	0.537433609	0.650262578	0.009940249	0.102551721	0.031607437
2019-08-02T01:55:00	0.2205	13.270	212.9	0.536507529	0.648953940	0.009908846	0.102227734	0.031507580
2019-08-02T02:00:00	0.2185	13.259	199.0	0.529457866	0.639015021	0.009671429	0.099778350	0.030752656
2019-08-02T02:05:00	0.2195	13.236	212.6	0.532954332	0.643939428	0.009788820	0.100989447	0.031125928
2019-08-02T02:10:00	0.2202	13.226	212.6	0.535427713	0.647428942	0.009872292	0.101850614	0.031391348
2019-08-02T02:15:00	0.2188	13.212	212.8	0.530759178	0.640846619	0.009715036	0.100228236	0.030891316
2019-08-02T02:20:00	0.2181	13.180	212.5	0.528128633	0.637145545	0.009626988	0.099319862	0.030611346
2019-08-02T02:25:00	0.2166	13.173	212.5	0.523109097	0.630098863	0.009460095	0.097598061	0.030080670
2019-08-02T02:30:00	0.2171	13.156	212.4	0.524907743	0.632621541	0.009519729	0.098213293	0.030270291
2019-08-02T02:35:00	0.2178	13.145	212.3	0.527046192	0.635624227	0.009590874	0.098947283	0.030496514
2019-08-02T02:40:00	0.2182	13.114	212.1	0.528502217	0.637670821	0.009639468	0.099448613	0.030651028
2019-08-02T02:45:00	0.2179	13.112	212.2	0.527573738	0.636365548	0.009608466	0.099128778	0.030552452
2019-08-02T02:50:00	0.2179	13.093	211.9	0.527667153	0.636496840	0.009611583	0.099160933	0.030562363
2019-08-02T02:55:00	0.2154	13.085	211.9	0.518892115	0.624194656	0.009321019	0.096163237	0.029638443
2019-08-02T03:00:00	0.2167	13.082	211.8	0.523422728	0.630538555	0.009470480	0.097705200	0.030113691
2019-08-02T03:05:00	0.2150	13.075	198.1	0.517713079	0.622546463	0.009282319	0.095763977	0.029515388
2019-08-02T03:10:00	0.2168	13.041	197.9	0.523950830	0.631279103	0.009487980	0.097885737	0.030169335
2019-08-02T03:15:00	0.2182	13.023	197.9	0.528474790	0.637632253	0.009638551	0.099439158	0.030648114
2019-08-02T03:20:00	0.2169	13.022	211.5	0.524137854	0.631541417	0.009494181	0.097949713	0.030189053
2019-08-02T03:25:00	0.2158	13.017	211.5	0.520478266	0.626413737	0.009373209	0.096701672	0.029804395
2019-08-02T03:30:00	0.2170	12.983	211.4	0.524324867	0.631803746	0.009500384	0.098013706	0.030208776
2019-08-02T03:35:00	0.2169	12.973	197.6	0.524077368	0.631456578	0.009492175	0.097929020	0.030182675
2019-08-02T03:40:00	0.2175	12.955	197.5	0.526216332	0.634458545	0.009563234	0.098662121	0.030408624
2019-08-02T03:45:00	0.2172	12.944	197.4	0.525287236	0.633154132	0.009532336	0.098343348	0.030310375
2019-08-02T03:50:00	0.2190	12.931	197.3	0.531170984	0.641426525	0.009728856	0.100370816	0.030935260
2019-08-02T03:55:00	0.2177	12.935	197.3	0.526837443	0.635330950	0.009583918	0.098875512	0.030474393
2019-08-02T04:00:00	0.2184	12.924	197.2	0.529315213	0.638814319	0.009666655	0.099729094	0.030737475
2019-08-02T04:05:00	0.2170	12.914	211.0	0.524590114	0.632175862	0.009509185	0.098104506	0.030236762
2019-08-02T04:10:00	0.2176	12.916	197.3	0.526680516	0.635110503	0.009578690	0.098821576	0.030457769
2019-08-02T04:15:00	0.2184	12.910	197.2	0.529110188	0.638525897	0.009659795	0.099658324	0.030715663
2019-08-02T04:20:00	0.2175	12.892	197.2	0.526089333	0.634280202	0.009559007	0.098618516	0.030395185
2019-08-02T04:25:00	0.2173	12.879	197.1	0.525452836	0.633386577	0.009537839	0.098400128	0.030327875
2019-08-02T04:30:00	0.2185	12.887	210.7	0.529586169	0.639195545	0.009675724	0.099822661	0.030766313
2019-08-02T04:35:00	0.2192	12.876	197.0	0.532013794	0.642613800	0.009757172	0.100662943	0.031025297
2019-08-02T04:40:00	0.2184	12.884	197.0	0.529336000	0.638843564	0.009667350	0.099736270	0.030739687
2019-08-02T04:45:00	0.2188	12.891	197.0	0.530742871	0.640823659	0.009714489	0.100222592	0.030889576
2019-08-02T04:50:00	0.2203	12.898	210.7	0.535549711	0.647601189	0.009876418	0.101893186	0.031404470
2019-08-02T04:55:00	0.2209	12.911	197.1	0.537633484	0.650545113	0.009947034	0.102621715	0.031629009
2019-08-02T05:00:00	0.2191	12.928	197.1	0.531558923	0.641972946	0.009741885	0.100505227	0.030976687
2019-08-02T05:05:00	0.2209	12.935	210.7	0.537723588	0.650672490	0.009950093	0.102653276	0.031638737
2019-08-02T05:10:00	0.2188	12.947	197.1	0.530628221	0.640662235	0.009710643	0.100182915	0.030877347
2019-08-02T05:15:00	0.2190	12.967	197.2	0.531354032	0.641684337	0.009735002	0.100434226	0.030954804
2019-08-02T05:20:00	0.2207	12.976	197.3	0.537179352	0.649903220	0.009931623	0.102462719	0.031580005
2019-08-02T05:25:00	0.2188	12.990	210.9	0.530763650	0.640852916	0.009715186	0.100229783	0.030891793
2019-08-02T05:30:00	0.2185	13.007	197.4	0.529447107	0.638999883	0.009671069	0.099774634	0.030751511
2019-08-02T05:35:00	0.2185	13.025	197.4	0.529492266	0.639063420	0.009672580	0.099790229	0.030756318
2019-08-02T05:40:00	0.2182	13.045	211.1	0.528515834	0.637689969	0.009639923	0.099453308	0.030652475
2019-08-02T05:45:00	0.2183	13.055	210.9	0.528901565	0.638232446	0.009652817	0.099586337	0.030693476
2019-08-02T05:50:00	0.2175	13.081	211.3	0.526221350	0.634465592	0.009563401	0.098663844	0.030409155
2019-08-02T05:55:00	0.2182	13.099	197.9	0.528651346	0.637880534	0.009644452	0.099500033	0.030666876
2019-08-02T06:00:00	0.2166	13.120	211.5	0.523243199	0.630286856	0.009464535	0.097643864	0.030094787
2019-08-02T06:05:00	0.2162	13.141	197.9	0.521582527	0.627959843	0.009409630	0.097077416	0.029920202
2019-08-02T06:10:00	0.2173	13.163	211.6	0.525379632	0.633283821	0.009535406	0.098375026	0.030320138
2019-08-02T06:15:00	0.2169	13.185	211.7	0.524061029	0.631433662	0.009491633	0.097923430	0.030180952
2019-08-02T06:20:00	0.2169	13.214	211.8	0.524106259	0.631497101	0.009493133	0.097938903	0.030185721
2019-08-02T06:25:00	0.2179	13.234	211.9	0.527559924	0.636346134	0.009608006	0.099124023	0.030550987
2019-08-02T06:30:00	0.2176	13.260	212.0	0.526582945	0.634973447	0.009575440	0.098788048	0.030447436
2019-08-02T06:35:00	0.2172	13.285	212.2	0.525264803	0.633122646	0.009531590	0.098335658	0.030308005
2019-08-02T06:40:00	0.2178	13.310	212.3	0.527354795	0.636057857	0.009601163	0.099053433	0.030529230
2019-08-02T06:45:00	0.2182	13.336	212.4	0.528421903	0.637557885	0.009636784	0.099420927	0.030642495
2019-08-02T06:50:00	0.2176	13.372	198.9	0.526422957	0.634748733	0.009570112	0.098733084	0.030430495
2019-08-02T06:55:00	0.2187	13.412	212.7	0.530214730	0.640080141	0.009696780	0.100039887	0.030833265
2019-08-02T07:00:00	0.2186	13.454	212.9	0.529919454	0.639664549	0.009686886	0.099937812	0.030801804
2019-08-02T07:05:00	0.2181	13.492	213.1	0.528262000	0.637333052	0.009631442	0.099365816	0.030625509
2019-08-02T07:10:00	0.2174	13.532	213.3	0.525922142	0.634045438	0.009553445	0.098561128	0.030377497
2019-08-02T07:15:00	0.2170	13.567	213.4	0.524603747	0.632194989	0.009509637	0.098109174	0.030238200
2019-08-02T07:20:00	0.2172	13.596	213.5	0.524989916	0.632736855	0.009522458	0.098241447	0.030278968
2019-08-02T07:25:00	0.2171	13.625	213.8	0.524694192	0.632321889	0.009512639	0.098140146	0.030247746
2019-08-02T07:30:00	0.2188	13.654	213.9	0.530530761	0.640525022	0.009707375	0.100149194	0.030866954
2019-08-02T07:35:00	0.2198	13.675	214.1	0.533977998	0.645383039	0.009823323	0.101345414	0.031235641
2019-08-02T07:40:00	0.2206	13.704	214.1	0.536742324	0.649285662	0.009916803	0.102309828	0.031532882
2019-08-02T07:45:00	0.2201	13.732	214.3	0.535088144	0.646949573	0.009860811	0.101732167	0.031354842
2019-08-02T07:50:00	0.2190	13.758	214.5	0.531391997	0.641737812	0.009736278	0.100447380	0.030958858
2019-08-02T07:55:00	0.2194	13.784	214.6	0.532798030	0.643719080	0.009783557	0.100935150	0.031109194
2019-08-02T08:00:00	0.2192	13.821	214.7	0.531822535	0.642344319	0.009750742	0.100596613	0.031004853
2019-08-02T08:05:00	0.2201	13.849	214.9	0.534928551	0.646724308	0.009855417	0.101676522	0.031337692
2019-08-02T08:10:00	0.2169	13.884	215.1	0.524078256	0.631457824	0.009492204	0.097929324	0.030182769
2019-08-02T08:15:00	0.2187	13.915	215.3	0.530256294	0.640138646	0.009698173	0.100054259	0.030837694
2019-08-02T08:20:00	0.2180	13.949	215.4	0.527917790	0.636849140	0.009619948	0.099247234	0.030588961
2019-08-02T08:25:00	0.2189	13.987	215.6	0.531027322	0.641224204	0.009724034	0.100321064	0.030919926
2019-08-02T08:30:00	0.2185	14.033	215.9	0.529710880	0.639371030	0.009679900	0.099865741	0.030779591
2019-08-02T08:35:00	0.2160	14.093	216.2	0.521234052	0.627471828	0.009398129	0.096958763	0.029883632
2019-08-02T08:40:00	0.2163	14.168	216.5	0.521961846	0.628491166	0.009422157	0.097206654	0.029960035
2019-08-02T08:45:00	0.2168	14.243	217.5	0.523712806	0.630945298	0.009480090	0.097804345	0.030144249
2019-08-02T08:50:00	0.2161	14.318	217.2	0.521369852	0.627661994	0.009402610	0.097004993	0.029897881
2019-08-02T08:55:00	0.2155	14.388	218.0	0.519366803	0.624858548	0.009336623	0.096324217	0.029688059
2019-08-02T09:00:00	0.2162	14.445	217.9	0.521801644	0.628266752	0.009416865	0.097152061	0.029943209
2019-08-02T09:05:00	0.2143	14.608	218.4	0.515357198	0.619256513	0.009205233	0.094968693	0.029270273
2019-08-02T09:10:00	0.2119	14.813	219.2	0.507187535	0.607882468	0.008940407	0.092236535	0.028428196
2019-08-02T09:15:00	0.2122	14.937	220.1	0.507918316	0.608897688	0.008963939	0.092479304	0.028503020
2019-08-02T09:20:00	0.2132	14.724	205.1	0.511388298	0.613724159	0.009076095	0.093636403	0.028859649
2019-08-02T09:25:00	0.2123	14.760	205.3	0.508351805	0.609500106	0.008977912	0.092623462	0.028547451
2019-08-02T09:30:00	0.2116	14.775	219.5	0.505998329	0.606231312	0.008902180	0.091842155	0.028306644
2019-08-02T09:35:00	0.2117	14.847	219.5	0.506386598	0.606770280	0.008914652	0.091970825	0.028346301
2019-08-02T09:40:00	0.2111	14.852	219.8	0.504374770	0.603978919	0.008850123	0.091305091	0.028141116
2019-08-02T09:45:00	0.2106	14.837	219.8	0.502704927	0.601664530	0.008796741	0.090754357	0.027971374
2019-08-02T09:50:00	0.2097	14.831	205.7	0.499660707	0.597451040	0.008699837	0.089754610	0.027663243
2019-08-02T09:55:00	0.2088	14.868	220.0	0.496269984	0.592766729	0.008592532	0.088647564	0.027322040
2019-08-02T10:00:00	0.2084	14.904	220.3	0.494940119	0.590932031	0.008550627	0.088215239	0.027188793
2019-08-02T10:05:00		14.879	220.2					
2019-08-02T10:10:00		14.848	220.1					
2019-08-02T10:15:00		14.857	220.3					
2019-08-02T10:20:00		14.880	220.4					
2019-08-02T10:25:00		14.905	220.4					
2019-08-02T10:30:00		14.950	220.7					
2019-08-02T10:35:00		15.000	221.0					
2019-08-02T10:40:00		15.073	221.2					
2019-08-02T10:45:00		15.114	221.5					
2019-08-02T10:50:00		15.814	5.3					
2019-08-02T10:55:00		20.797	4.7					
2019-08-02T11:00:00		26.593	2.8					
2019-08-02T11:05:00	0.1840	26.946	0.0	0.416906651	0.477041693	0.006156599	0.063516496	0.019576401
2019-08-02T11:10:00	0.1888	25.659	0.0	0.429956755	0.498848302	0.006571689	0.067798902	0.020896280
2019-08-02T11:15:00	0.2309	16.131	225.9	0.571588291	0.699017560	0.011133600	0.114863298	0.035401984
2019-08-02T11:20:00	0.2216	14.965	221.9	0.540013286	0.653911598	0.010027992	0.103456945	0.031886435
2019-08-02T11:25:00	0.2222	14.956	221.0	0.542238458	0.657063530	0.010103989	0.104240996	0.032128087
2019-08-02T11:30:00	0.2214	14.968	206.8	0.539373277	0.653005782	0.010006187	0.103231988	0.031817101
2019-08-02T11:35:00	0.2215	14.982	220.9	0.539901980	0.653754041	0.010024198	0.103417804	0.031874372
2019-08-02T11:40:00	0.2194	15.000	221.0	0.532615406	0.643461650	0.009777409	0.100871729	0.031089646
2019-08-02T11:45:00	0.2202	15.015	221.1	0.535525189	0.647566565	0.009875589	0.101884628	0.031401832
2019-08-02T11:50:00	0.2192	15.028	221.2	0.531974025	0.642557763	0.009755835	0.100649149	0.031021045
2019-08-02T11:55:00	0.2180	15.050	221.4	0.527737955	0.636596356	0.009613946	0.099185308	0.030569875
2019-08-02T12:00:00	0.2172	15.066	221.5	0.525201634	0.633033985	0.009529491	0.098314004	0.030301331
2019-08-02T12:05:00	0.2191	15.093	221.6	0.531522193	0.641921206	0.009740651	0.100492497	0.030972763
2019-08-02T12:10:00	0.2170	15.114	221.8	0.524558871	0.632132028	0.009508148	0.098093809	0.030233465
2019-08-02T12:15:00	0.2160	15.136	221.9	0.520996382	0.627139042	0.009390289	0.096877879	0.029858703
2019-08-02T12:20:00	0.2151	15.168	222.1	0.518113487	0.623106074	0.009295453	0.095899475	0.029557149
2019-08-02T12:25:00	0.2156	15.181	222.2	0.519669986	0.625282671	0.009346596	0.096427105	0.029719770
2019-08-02T12:30:00	0.2136	15.193	222.2	0.513024731	0.616003682	0.009129230	0.094184583	0.029028603
2019-08-02T12:35:00	0.2152	15.206	222.3	0.518343078	0.623427009	0.009302988	0.095977211	0.029581109
2019-08-02T12:40:00	0.2139	15.212	222.4	0.513748146	0.617012078	0.009152769	0.094427427	0.029103450
2019-08-02T12:45:00	0.2131	15.232	222.5	0.511201470	0.613464048	0.009070039	0.093573920	0.028840391
2019-08-02T12:50:00	0.2128	15.245	222.6	0.510022850	0.611823768	0.009031878	0.093180223	0.028719050
2019-08-02T12:55:00	0.2155	15.257	222.7	0.519446053	0.624969404	0.009339229	0.096351106	0.029696347
2019-08-02T13:00:00	0.2138	15.262	222.7	0.513484579	0.616644633	0.009144189	0.094338914	0.029076169
2019-08-02T13:05:00	0.2145	15.281	222.9	0.516068778	0.620249749	0.009228483	0.095208553	0.029344201
2019-08-02T13:10:00	0.2115	15.293	222.9	0.505647179	0.605743976	0.008890908	0.091725863	0.028270802
2019-08-02T13:15:00	0.2109	15.303	223.0	0.503780623	0.603155178	0.008831111	0.091108944	0.028080661
2019-08-02T13:20:00	0.2102	15.323	223.1	0.501226511	0.599617331	0.008749613	0.090268144	0.027821519
2019-08-02T13:25:00	0.2103	15.334	223.2	0.501417851	0.599882185	0.008755705	0.090330997	0.027840891
2019-08-02T13:30:00	0.2101	15.335	223.2	0.500922585	0.599196695	0.008739940	0.090168352	0.027790762
2019-08-02T13:35:00	0.2090	15.342	223.3	0.496991698	0.593763010	0.008615316	0.088882625	0.027394488
2019-08-02T13:40:00	0.2091	15.349	223.4	0.497526967	0.594502185	0.008632234	0.089057162	0.027448282
2019-08-02T13:45:00	0.2076	15.357	223.4	0.492215596	0.587177676	0.008465093	0.087332809	0.026916820
2019-08-02T13:50:00	0.2089	15.358	223.5	0.496878989	0.593607394	0.008611756	0.088845896	0.027383168
2019-08-02T13:55:00	0.2083	15.365	223.6	0.494663682	0.590550833	0.008541929	0.088125504	0.027161136
2019-08-02T14:00:00	0.2068	15.360	223.5	0.489347837	0.583232371	0.008375525	0.086408748	0.026632015
2019-08-02T14:05:00	0.2087	15.365	223.7	0.496078705	0.592502751	0.008586498	0.088585316	0.027302855
2019-08-02T14:10:00	0.2073	15.369	223.6	0.491109412	0.585655068	0.008430488	0.086975791	0.026806784
2019-08-02T14:15:00	0.2075	15.373	223.7	0.491989857	0.586866878	0.008458026	0.087259893	0.026894347
2019-08-02T14:20:00	0.2054	15.384	223.8	0.484600559	0.576715797	0.008228293	0.084889785	0.026163856
2019-08-02T14:25:00	0.2057	15.379	223.8	0.485827569	0.578398382	0.008266224	0.085281105	0.026284465
2019-08-02T14:30:00	0.2048	15.381	223.8	0.482569635	0.573933456	0.008165702	0.084244039	0.025964831
2019-08-02T14:35:00	0.2063	15.382	223.8	0.487935631	0.581291957	0.008331592	0.085955496	0.026492319
2019-08-02T14:40:00	0.2043	15.387	223.9	0.480882873	0.571625115	0.008113897	0.083709578	0.025800105
2019-08-02T14:45:00	0.2052	15.390	223.9	0.483836970	0.575669303	0.008204732	0.084646710	0.026088938
2019-08-02T14:50:00	0.2057	15.394	224.0	0.485754058	0.578297543	0.008263949	0.085257636	0.026277231
2019-08-02T14:55:00	0.2065	15.392	224.1	0.488359335	0.581873972	0.008344761	0.086091361	0.026534193
2019-08-02T15:00:00	0.2053	15.397	224.1	0.484413898	0.576459936	0.008222531	0.084830333	0.026145532
2019-08-02T15:05:00	0.2055	15.399	224.0	0.484951151	0.577196437	0.008239122	0.085001505	0.026198289
2019-08-02T15:10:00	0.2053	15.396	223.9	0.484453482	0.576514193	0.008223753	0.084842939	0.026149418
2019-08-02T15:15:00	0.2053	15.388	223.9	0.484300772	0.576304884	0.008219039	0.084794312	0.026134430
2019-08-02T15:20:00	0.2072	15.383	224.0	0.491041631	0.585561803	0.008428370	0.086953939	0.026800048
2019-08-02T15:25:00	0.2049	15.373	223.9	0.482960038	0.574468047	0.008177715	0.084367981	0.026003031
2019-08-02T15:30:00	0.2045	15.355	223.9	0.481426317	0.572368573	0.008130570	0.083881588	0.025853120
2019-08-02T15:35:00	0.2050	15.344	224.2	0.483344767	0.574994988	0.008189563	0.084490209	0.026040703
2019-08-02T15:40:00	0.2031	15.338	223.8	0.476628254	0.565812735	0.007983951	0.082368954	0.025386912
2019-08-02T15:45:00	0.2018	15.333	223.8	0.472322906	0.559945727	0.007853512	0.081023236	0.024972148
2019-08-02T15:50:00	0.2055	15.337	223.9	0.484956777	0.577204151	0.008239296	0.085003299	0.026198842
2019-08-02T15:55:00	0.2044	15.347	223.9	0.481352710	0.572267861	0.008128310	0.083858280	0.025845936
2019-08-02T16:00:00	0.2044	15.361	224.0	0.481199860	0.572058740	0.008123620	0.083809889	0.025831022
2019-08-02T16:05:00	0.2035	15.389	224.1	0.478240369	0.568013402	0.008033067	0.082875670	0.025543086
2019-08-02T16:10:00	0.2049	15.393	224.1	0.482880288	0.574358833	0.008175260	0.084342655	0.025995225
2019-08-02T16:15:00	0.2027	15.404	224.2	0.475428312	0.564176060	0.007947490	0.081992789	0.025270974
2019-08-02T16:20:00	0.2017	15.411	224.3	0.471771251	0.559195039	0.007836875	0.080851597	0.024919247
2019-08-02T16:25:00	0.2043	15.417	224.4	0.480912680	0.571665886	0.008114811	0.083719008	0.025803011
2019-08-02T16:30:00	0.2063	15.413	224.3	0.487962293	0.581328576	0.008332420	0.085964042	0.026494952
2019-08-02T16:35:00	0.2057	15.402	224.4	0.485698513	0.578221353	0.008262230	0.085239904	0.026271766
2019-08-02T16:40:00	0.2049	15.396	224.4	0.483088103	0.574643438	0.008181658	0.084408657	0.026015568
2019-08-02T16:45:00	0.2047	15.387	224.4	0.482202258	0.573430505	0.008154405	0.084127490	0.025928909
2019-08-02T16:50:00	0.2047	15.383	224.4	0.482351974	0.573635458	0.008159008	0.084174977	0.025943545
2019-08-02T16:55:00	0.2055	15.387	224.4	0.484917199	0.577149887	0.008238073	0.084990683	0.026194954
2019-08-02T17:00:00	0.2045	15.371	224.4	0.481615685	0.572627692	0.008136383	0.083941567	0.025871606
2019-08-02T17:05:00	0.2043	15.357	224.3	0.480729454	0.571415273	0.008109193	0.083661050	0.025785148
2019-08-02T17:10:00	0.2040	15.351	224.3	0.479842991	0.570203165	0.008082041	0.083380924	0.025698811
2019-08-02T17:15:00	0.2024	15.338	224.2	0.474461059	0.562857599	0.007918159	0.081690188	0.025177709
2019-08-02T17:20:00	0.2036	15.331	224.3	0.478415001	0.568251913	0.008038396	0.082930651	0.025560032
2019-08-02T17:25:00	0.2055	15.324	224.2	0.485124890	0.577434659	0.008244491	0.085056896	0.026215361
2019-08-02T17:30:00	0.2043	15.310	224.2	0.480787623	0.571494832	0.008110976	0.083679448	0.025790818
2019-08-02T17:35:00	0.2043	15.315	224.3	0.480937401	0.571699702	0.008115569	0.083726830	0.025805422
2019-08-02T17:40:00	0.2072	15.290	224.1	0.490742957	0.585150878	0.008419040	0.086857680	0.026770380
2019-08-02T17:45:00	0.2056	15.275	224.0	0.485378313	0.577782183	0.008252326	0.085137724	0.026240273
2019-08-02T17:50:00	0.2055	15.257	223.9	0.485182983	0.577514319	0.008246287	0.085075421	0.026221071
2019-08-02T17:55:00	0.2060	15.243	223.9	0.486711922	0.579611833	0.008293615	0.085563698	0.026371563
2019-08-02T18:00:00	0.2057	15.223	223.8	0.485827022	0.578397632	0.008266207	0.085280930	0.026284411
2019-08-02T18:05:00	0.2063	15.205	223.7	0.487700356	0.580968837	0.008324283	0.085880098	0.026469080
2019-08-02T18:10:00	0.2048	15.182	223.6	0.482676095	0.574079223	0.008168977	0.084277828	0.025975245
2019-08-02T18:15:00	0.2060	15.163	223.5	0.486620467	0.579486315	0.008290780	0.085534452	0.026362549
2019-08-02T18:20:00	0.2051	15.140	223.4	0.483665706	0.575434650	0.008199452	0.084592239	0.026072150
2019-08-02T18:25:00	0.2061	15.124	223.3	0.487264233	0.580369994	0.008310745	0.085740422	0.026426031
2019-08-02T18:30:00	0.2079	15.103	223.2	0.493268532	0.588627902	0.008498098	0.087673316	0.027021767
2019-08-02T18:35:00	0.2090	15.082	223.1	0.497200638	0.594051516	0.008621918	0.088950735	0.027415480
2019-08-02T18:40:00	0.2075	15.061	223.1	0.491846180	0.586669084	0.008453529	0.087213500	0.026880048
2019-08-02T18:45:00	0.2067	15.038	222.9	0.489240493	0.583084821	0.008372182	0.086374254	0.026621384
2019-08-02T18:50:00	0.2065	15.015	222.8	0.488356252	0.581869736	0.008344665	0.086090372	0.026533889
2019-08-02T18:55:00	0.2087	14.991	222.7	0.496078160	0.592501999	0.008586481	0.088585139	0.027302800
2019-08-02T19:00:00	0.2066	14.969	222.6	0.488999689	0.582753857	0.008364684	0.086296899	0.026597542
2019-08-02T19:05:00	0.2082	14.945	222.5	0.494313000	0.590067342	0.008530901	0.088011734	0.027126071
2019-08-02T19:10:00	0.2111	14.917	222.3	0.504423135	0.604045986	0.008851672	0.091321067	0.028146040
2019-08-02T19:15:00	0.2105	14.895	222.1	0.502170275	0.600923982	0.008779683	0.090578373	0.027917134
2019-08-02T19:20:00	0.2129	14.876	222.2	0.510545804	0.612551424	0.009048800	0.093354804	0.028772857
2019-08-02T19:25:00	0.2155	14.859	222.0	0.519242413	0.624684560	0.009332533	0.096282019	0.029675053
2019-08-02T19:30:00	0.2172	14.838	222.0	0.525190861	0.633018866	0.009529133	0.098310311	0.030300193
2019-08-02T19:35:00	0.2180	14.823	221.9	0.527724142	0.636576941	0.009613485	0.099180552	0.030568410
2019-08-02T19:40:00	0.2197	14.808	221.8	0.533657969	0.644931630	0.009812530	0.101234060	0.031201321
2019-08-02T19:45:00	0.2211	14.797	221.8	0.538562993	0.651859452	0.009978615	0.102947535	0.031729430
2019-08-02T19:50:00	0.2220	14.783	221.7	0.541425809	0.655911952	0.010076201	0.103954308	0.032039727
2019-08-02T19:55:00	0.2220	14.772	221.7	0.541572959	0.656120434	0.010081230	0.104006191	0.032055718
2019-08-02T20:00:00	0.2021	14.758	6.7	0.473184563	0.561118749	0.007879533	0.081291687	0.025054888
2019-08-02T20:05:00	0.2027	14.707	10.3	0.475410837	0.564152234	0.007946960	0.081987317	0.025269287
2019-08-02T20:10:00	0.2038	14.681	11.5	0.479018136	0.569075857	0.008056816	0.083120684	0.025618602
2019-08-02T20:15:00	0.2027	14.628	12.8	0.475364957	0.564089679	0.007945567	0.081972952	0.025264860
2019-08-02T20:20:00	0.2022	14.637	14.4	0.473784986	0.561936487	0.007897690	0.081479009	0.025112622
2019-08-02T20:25:00	0.2016	14.595	15.5	0.471511708	0.558841938	0.007829054	0.080770906	0.024894378
2019-08-02T20:30:00	0.2014	14.614	14.9	0.470969219	0.558104070	0.007812719	0.080602377	0.024842435
2019-08-02T20:35:00	0.2002	14.632	15.2	0.466613750	0.552188441	0.007682177	0.079255604	0.024427347
2019-08-02T20:40:00	0.1996	14.618	15.4	0.464682673	0.549570454	0.007624646	0.078662065	0.024244412
2019-08-02T20:45:00	0.2011	14.603	16.3	0.469687752	0.556362009	0.007774198	0.080204968	0.024719950
2019-08-02T20:50:00	0.2004	14.592	19.0	0.467411713	0.553271113	0.007706012	0.079501508	0.024503137
2019-08-02T20:55:00	0.2005	14.566	20.6	0.467908793	0.553945804	0.007720879	0.079654881	0.024550408
2019-08-02T21:00:00	0.2006	14.517	22.9	0.468059143	0.554149915	0.007725378	0.079701300	0.024564715
2019-08-02T21:05:00	0.2004	14.489	30.8	0.467516099	0.553412780	0.007709133	0.079533704	0.024513060
2019-08-02T21:10:00	0.1990	14.446	27.3	0.462461736	0.546563154	0.007558742	0.077982149	0.024034856
2019-08-02T21:15:00	0.1993	14.422	28.1	0.463653873	0.548176902	0.007594082	0.078346748	0.024147228
2019-08-02T21:20:00	0.1980	14.385	21.9	0.458941337	0.541804296	0.007454855	0.076910365	0.023704522
2019-08-02T21:25:00	0.1949	14.373	23.8	0.448299223	0.527477865	0.007145098	0.073714661	0.022719575
2019-08-02T21:30:00	0.1967	14.364	26.0	0.454373151	0.535643650	0.007321101	0.075530446	0.023279217
2019-08-02T21:35:00	0.1958	14.340	26.9	0.451390005	0.531629477	0.007234397	0.074635937	0.023003521
2019-08-02T21:40:00	0.1953	14.307	29.1	0.449798740	0.529491112	0.007188354	0.074160926	0.022857118
2019-08-02T21:45:00	0.1948	14.285	25.0	0.447857975	0.526885783	0.007132394	0.073583595	0.022679179
2019-08-02T21:50:00	0.1957	14.248	22.7	0.451146486	0.531302103	0.007227341	0.074563148	0.022981086
2019-08-02T21:55:00	0.1924	14.239	22.6	0.439799319	0.515608228	0.006895750	0.071142183	0.021926712
2019-08-02T22:00:00	0.1941	14.236	25.8	0.445520811	0.523752254	0.007065288	0.072891275	0.022465799
2019-08-02T22:05:00	0.1940	14.203	27.3	0.445171785	0.523284671	0.007055293	0.072788161	0.022434018
2019-08-02T22:10:00	0.1946	14.190	33.4	0.447265391	0.526090877	0.007115350	0.073407756	0.022624983
2019-08-02T22:15:00	0.1954	14.162	38.1	0.450054832	0.529835117	0.007195754	0.074237272	0.022880648
2019-08-02T22:20:00	0.1951	14.135	41.8	0.449009064	0.528430674	0.007165559	0.073925750	0.022784634
2019-08-02T22:25:00	0.1951	14.124	41.2	0.449009064	0.528430674	0.007165559	0.073925750	0.022784634
2019-08-02T22:30:00	0.1959	14.129	56.1	0.451797054	0.532176796	0.007246198	0.074757685	0.023041044
2019-08-02T22:35:00	0.1953	14.115	56.0	0.449706279	0.529366923	0.007185683	0.074133371	0.022848625
2019-08-02T22:40:00	0.1932	14.084	56.8	0.442378272	0.519545696	0.006975547	0.071965430	0.022180444
2019-08-02T22:45:00	0.1938	14.090	60.9	0.444473626	0.522349645	0.007035321	0.072582114	0.022370512
2019-08-02T22:50:00	0.1937	14.066	61.3	0.444124491	0.521882203	0.007025344	0.072479182	0.022338788
2019-08-02T22:55:00	0.1938	14.049	65.6	0.444473626	0.522349645	0.007035321	0.072582114	0.022370512
2019-08-02T23:00:00	0.1942	14.059	67.7	0.445869800	0.524219885	0.007075289	0.072994450	0.022497598
2019-08-02T23:05:00	0.1951	14.031	71.6	0.449009064	0.528430674	0.007165559	0.073925750	0.022784634
2019-08-02T23:10:00	0.1947	14.035	96.6	0.447614199	0.526558742	0.007125380	0.073511233	0.022656876
2019-08-02T23:15:00	0.1939	14.022	96.8	0.444822724	0.522817134	0.007045304	0.072685107	0.022402256
2019-08-02T23:20:00	0.1952	14.011	97.3	0.449357690	0.528898775	0.007175618	0.074029530	0.022816620
2019-08-02T23:25:00	0.1940	13.994	98.3	0.445171785	0.523284671	0.007055293	0.072788161	0.022434018
2019-08-02T23:30:00	0.1930	13.983	99.6	0.441679528	0.518611423	0.006955669	0.071760354	0.022117238
2019-08-02T23:35:00	0.1952	13.987	101.0	0.449357690	0.528898775	0.007175618	0.074029530	0.022816620
2019-08-02T23:40:00	0.1948	13.952	102.3	0.447962969	0.527026655	0.007135416	0.073614772	0.022688788
2019-08-02T23:45:00	0.1972	13.960	104.2	0.456322603	0.538270661	0.007378034	0.076117820	0.023460251
2019-08-02T23:50:00	0.1970	13.963	106.1	0.455626762	0.537332626	0.007357687	0.075907905	0.023395554
2019-08-02T23:55:00	0.1989	13.934	112.0	0.462231447	0.546251551	0.007551925	0.077911815	0.024013178
2019-08-03T00:00:00	0.1981	13.917	113.7	0.459452108	0.542494146	0.007469884	0.077065417	0.023752310
2019-08-03T00:05:00	0.1972	13.903	115.2	0.456322603	0.538270661	0.007378034	0.076117820	0.023460251
2019-08-03T00:10:00	0.1985	13.881	117.6	0.460842065	0.544372472	0.007510858	0.077488135	0.023882596
2019-08-03T00:15:00	0.1969	13.868	118.9	0.455278787	0.536863679	0.007347523	0.075803038	0.023363233
2019-08-03T00:20:00	0.1977	13.840	122.4	0.458061577	0.540616571	0.007429004	0.076643661	0.023622321
2019-08-03T00:25:00	0.1976	13.828	124.1	0.457713854	0.540147295	0.007418798	0.076538372	0.023589870
2019-08-03T00:30:00	0.1986	13.823	126.5	0.461189464	0.544842171	0.007521116	0.077593965	0.023915214
2019-08-03T00:35:00	0.1985	13.819	127.1	0.460842065	0.544372472	0.007510858	0.077488135	0.023882596
2019-08-03T00:40:00	0.1992	13.798	128.4	0.463273108	0.547661354	0.007582786	0.078230205	0.024111309
2019-08-03T00:45:00	0.1966	13.792	129.1	0.454234647	0.535457121	0.007317064	0.075488799	0.023266381
2019-08-03T00:50:00	0.1971	13.764	130.3	0.455974701	0.537801620	0.007367858	0.076012833	0.023427893
2019-08-03T00:55:00	0.1979	13.731	132.0	0.458756914	0.541555264	0.007449432	0.076854419	0.023687278
2019-08-03T01:00:00	0.1976	13.726	133.4	0.457713854	0.540147295	0.007418798	0.076538372	0.023589870
2019-08-03T01:05:00	0.1985	13.708	139.4	0.460842065	0.544372472	0.007510858	0.077488135	0.023882596
2019-08-03T01:10:00	0.1972	13.685	141.0	0.456322603	0.538270661	0.007378034	0.076117820	0.023460251
2019-08-03T01:15:00	0.1960	13.671	143.0	0.452145390	0.532645273	0.007256304	0.074861949	0.023073180
2019-08-03T01:20:00	0.1970	13.638	144.8	0.455626762	0.537332626	0.007357687	0.075907905	0.023395554
2019-08-03T01:25:00	0.1971	13.617	145.0	0.455974701	0.537801620	0.007367858	0.076012833	0.023427893
2019-08-03T01:30:00	0.1974	13.595	145.2	0.457018301	0.539208884	0.007398405	0.076327976	0.023525023
2019-08-03T01:35:00	0.1961	13.572	146.5	0.452493690	0.533113796	0.007266416	0.074966273	0.023105333
2019-08-03T01:40:00	0.1959	13.578	147.9	0.451797054	0.532176796	0.007246198	0.074757685	0.023041044
2019-08-03T01:45:00	0.1950	13.560	148.5	0.448660402	0.527962621	0.007155505	0.073822030	0.022752667
2019-08-03T01:50:00	0.1957	13.558	149.0	0.451100274	0.531239983	0.007226003	0.074549338	0.022976830
2019-08-03T01:55:00	0.1964	13.533	150.0	0.453538372	0.534519650	0.007296787	0.075279607	0.023201906
2019-08-03T02:00:00	0.1955	13.541	150.7	0.450403349	0.530303359	0.007205831	0.074341234	0.022912690
2019-08-03T02:05:00	0.1957	13.526	150.7	0.451100274	0.531239983	0.007226003	0.074549338	0.022976830
2019-08-03T02:10:00	0.1958	13.517	150.7	0.451448682	0.531708366	0.007236097	0.074653481	0.023008928
2019-08-03T02:15:00	0.1954	13.515	151.4	0.450054832	0.529835117	0.007195754	0.074237272	0.022880648
2019-08-03T02:20:00	0.1969	13.510	151.0	0.455278787	0.536863679	0.007347523	0.075803038	0.023363233
2019-08-03T02:25:00	0.1953	13.467	150.4	0.449706279	0.529366923	0.007185683	0.074133371	0.022848625
2019-08-03T02:30:00	0.1975	13.470	151.4	0.457366095	0.539678066	0.007408598	0.076433144	0.023557437
2019-08-03T02:35:00	0.1967	13.465	148.8	0.454582730	0.535925926	0.007327211	0.075593485	0.023298646
2019-08-03T02:40:00	0.1968	13.447	150.5	0.454930776	0.536394779	0.007337364	0.075698231	0.023330930
2019-08-03T02:45:00	0.1970	13.440	151.0	0.455626762	0.537332626	0.007357687	0.075907905	0.023395554
2019-08-03T02:50:00	0.1951	13.439	152.0	0.449009064	0.528430674	0.007165559	0.073925750	0.022784634
2019-08-03T02:55:00	0.1964	13.451	153.4	0.453538372	0.534519650	0.007296787	0.075279607	0.023201906
2019-08-03T03:00:00	0.1974	13.413	154.6	0.457018301	0.539208884	0.007398405	0.076327976	0.023525023
2019-08-03T03:05:00	0.1976	13.412	154.5	0.457713854	0.540147295	0.007418798	0.076538372	0.023589870
2019-08-03T03:10:00	0.1957	13.391	154.9	0.451100274	0.531239983	0.007226003	0.074549338	0.022976830
2019-08-03T03:15:00	0.1983	13.374	155.8	0.460147158	0.543433215	0.007490359	0.077276656	0.023817416
2019-08-03T03:20:00	0.1979	13.364	157.0	0.458756914	0.541555264	0.007449432	0.076854419	0.023687278
2019-08-03T03:25:00	0.1990	13.336	157.7	0.462578703	0.546721438	0.007562206	0.078017885	0.024045870
2019-08-03T03:30:00	0.1994	13.330	158.1	0.463967369	0.548601458	0.007603389	0.078442765	0.024176822
2019-08-03T03:35:00	0.1993	13.316	157.9	0.463620257	0.548131382	0.007593085	0.078336455	0.024144056
2019-08-03T03:40:00	0.1998	13.298	157.9	0.465355464	0.550482229	0.007644666	0.078868605	0.024308070
2019-08-03T03:45:00	0.1999	13.281	158.2	0.465702398	0.550952540	0.007654999	0.078975215	0.024340928
2019-08-03T03:50:00	0.2009	13.259	157.9	0.469169778	0.555658230	0.007758654	0.080044608	0.024670526
2019-08-03T03:55:00	0.1984	13.257	157.4	0.460494629	0.543902820	0.007500606	0.077382366	0.023849997
2019-08-03T04:00:00	0.1982	13.240	156.2	0.459799651	0.542963657	0.007480119	0.077171007	0.023784854
2019-08-03T04:05:00	0.1992	13.224	154.6	0.463325365	0.547732103	0.007584336	0.078246195	0.024116237
2019-08-03T04:10:00	0.1992	13.237	153.6	0.463377622	0.547802853	0.007585886	0.078262186	0.024121166
2019-08-03T04:15:00	0.2008	13.225	152.1	0.468633115	0.554929284	0.007742566	0.079878629	0.024619369
2019-08-03T04:20:00	0.1994	13.221	151.3	0.463829260	0.548414412	0.007599288	0.078400458	0.024163783
2019-08-03T04:25:00	0.2002	13.223	152.3	0.466657196	0.552247375	0.007683474	0.079268982	0.024431470
2019-08-03T04:30:00	0.1994	13.216	152.0	0.463933757	0.548555934	0.007602391	0.078432468	0.024173648
2019-08-03T04:35:00	0.1989	13.227	153.4	0.462250091	0.546276777	0.007552477	0.077917508	0.024014933
2019-08-03T04:40:00	0.2002	13.232	155.0	0.466813808	0.552459831	0.007688149	0.079317219	0.024446337
2019-08-03T04:45:00	0.1993	13.237	156.4	0.463743396	0.548298132	0.007596739	0.078374161	0.024155677
2019-08-03T04:50:00	0.1987	13.239	157.6	0.461364980	0.545079513	0.007526301	0.077647460	0.023931701
2019-08-03T04:55:00	0.1984	13.250	159.0	0.460375031	0.543741173	0.007497078	0.077345973	0.023838780
2019-08-03T05:00:00	0.1987	13.266	160.0	0.461469553	0.545220934	0.007529391	0.077679342	0.023941527
2019-08-03T05:05:00	0.1973	13.265	171.3	0.456655459	0.538719505	0.007387777	0.076218333	0.023491231
2019-08-03T05:10:00	0.1986	13.278	161.7	0.461226763	0.544892607	0.007522218	0.077605332	0.023918717
2019-08-03T05:15:00	0.1988	13.293	163.0	0.461973725	0.545902878	0.007544299	0.077833139	0.023988929
2019-08-03T05:20:00	0.1985	13.295	163.7	0.460636535	0.544094633	0.007504792	0.077425558	0.023863309
2019-08-03T05:25:00	0.2000	13.301	163.7	0.465896302	0.551215442	0.007660778	0.079034831	0.024359303
2019-08-03T05:30:00	0.1991	13.307	155.1	0.462825053	0.547054843	0.007569504	0.078093176	0.024069075
2019-08-03T05:35:00	0.1971	13.314	153.8	0.455925994	0.537735961	0.007366434	0.075998140	0.023423365
2019-08-03T05:40:00	0.1970	13.315	152.0	0.455630427	0.537337566	0.007357795	0.075909010	0.023395894
2019-08-03T05:45:00	0.1965	13.329	151.8	0.453942598	0.535063857	0.007308556	0.075401020	0.023239327
2019-08-03T05:50:00	0.1965	13.341	151.6	0.453995001	0.535134416	0.007310082	0.075416767	0.023244180
2019-08-03T05:55:00	0.1971	13.356	151.8	0.455787554	0.537549349	0.007362387	0.075956386	0.023410496
2019-08-03T06:00:00	0.1973	13.370	152.3	0.456535725	0.538558038	0.007384272	0.076182169	0.023480084
2019-08-03T06:05:00	0.1966	13.384	152.3	0.454152204	0.535346099	0.007314662	0.075464014	0.023258742
2019-08-03T06:10:00	0.1976	13.395	152.3	0.457683842	0.540106796	0.007417918	0.076529288	0.023587070
2019-08-03T06:15:00	0.1966	13.412	152.1	0.454257002	0.535487226	0.007317715	0.075495520	0.023268452
2019-08-03T06:20:00	0.1971	13.425	151.1	0.456049415	0.537902341	0.007370043	0.076035373	0.023434840
2019-08-03T06:25:00	0.1976	13.446	151.8	0.457840872	0.540318704	0.007422525	0.076576825	0.023601721
2019-08-03T06:30:00	0.1974	13.460	152.5	0.456849886	0.538981723	0.007393471	0.076277075	0.023509335
2019-08-03T06:35:00	0.1990	13.479	152.0	0.462462837	0.546564644	0.007558775	0.077982486	0.024034959
2019-08-03T06:40:00	0.1984	13.491	151.5	0.460430994	0.543816810	0.007498729	0.077363001	0.023844028
2019-08-03T06:45:00	0.1995	13.510	150.7	0.464303126	0.549056244	0.007613363	0.078545665	0.024208537
2019-08-03T06:50:00	0.1991	13.539	150.7	0.462966861	0.547246784	0.007573706	0.078136532	0.024082438
2019-08-03T06:55:00	0.2000	13.590	150.9	0.466142409	0.551549165	0.007668115	0.079110529	0.024382633
2019-08-03T07:00:00	0.2013	13.626	150.4	0.470354444	0.557268165	0.007794227	0.080411602	0.024783637
2019-08-03T07:05:00	0.2008	13.634	150.1	0.468673983	0.554984787	0.007743791	0.079891263	0.024623263
2019-08-03T07:10:00	0.2035	13.634	150.4	0.478071562	0.567782870	0.008027917	0.082822539	0.025526711
2019-08-03T07:15:00	0.2028	13.637	150.3	0.475703225	0.564550930	0.007955836	0.082078895	0.025297513
2019-08-03T07:20:00	0.2023	13.642	150.6	0.474025423	0.562264028	0.007904966	0.081554082	0.025135760
2019-08-03T07:25:00	0.2035	13.648	150.4	0.478227646	0.567996027	0.008032679	0.082871665	0.025541852
2019-08-03T07:30:00	0.2033	13.653	150.9	0.477588348	0.567123091	0.008013184	0.082670543	0.025479864
2019-08-03T07:35:00	0.2033	13.657	151.2	0.477294675	0.566722201	0.008004237	0.082578235	0.025451414
2019-08-03T07:40:00	0.2029	13.670	149.6	0.475963544	0.564905954	0.007963743	0.082160472	0.025322655
2019-08-03T07:45:00	0.2033	13.681	148.2	0.477398755	0.566864273	0.008007407	0.082610944	0.025461495
2019-08-03T07:50:00	0.2031	13.687	163.5	0.476759301	0.565991546	0.007987938	0.082410087	0.025399589
2019-08-03T07:55:00	0.2053	13.693	163.9	0.484409913	0.576454473	0.008222408	0.084829064	0.026145141
2019-08-03T08:00:00	0.2072	13.689	161.2	0.491010470	0.585518927	0.008427396	0.086943894	0.026796952
2019-08-03T08:05:00	0.2080	13.692	177.0	0.493815804	0.589382020	0.008515278	0.087850557	0.027076395
2019-08-03T08:10:00	0.2074	13.691	175.1	0.491458435	0.586135376	0.008441399	0.087088359	0.026841478
2019-08-03T08:15:00	0.2091	13.690	187.1	0.497358026	0.594268862	0.008626892	0.089002056	0.027431298
2019-08-03T08:20:00	0.2109	13.698	195.0	0.503590503	0.602891652	0.008825032	0.091046224	0.028061330
2019-08-03T08:25:00	0.2117	13.704	196.5	0.506385511	0.606768771	0.008914617	0.091970464	0.028346190
2019-08-03T08:30:00	0.2134	13.714	197.9	0.512259382	0.614937295	0.009104360	0.093928004	0.028949523
2019-08-03T08:35:00	0.2133	13.729	198.8	0.511968683	0.614532379	0.009094923	0.093830640	0.028919515
2019-08-03T08:40:00	0.2149	13.744	198.6	0.517149649	0.621759234	0.009263854	0.095573475	0.029456673
2019-08-03T08:45:00	0.2139	13.765	199.7	0.513782354	0.617059772	0.009153882	0.094438918	0.029106992
2019-08-03T08:50:00	0.2126	13.789	199.9	0.509384453	0.610935783	0.009011242	0.092967324	0.028653432
2019-08-03T08:55:00	0.2122	13.806	200.1	0.508065820	0.609102656	0.008968692	0.092528344	0.028518134
2019-08-03T09:00:00	0.2115	13.836	200.6	0.505718282	0.605842646	0.008893190	0.091749405	0.028278058
2019-08-03T09:05:00	0.2100	13.883	200.9	0.500623338	0.598782607	0.008730422	0.090070149	0.027760495
2019-08-03T09:10:00	0.2107	14.006	201.9	0.503077676	0.602180962	0.008808643	0.090877150	0.028009220
2019-08-03T09:15:00	0.2090	13.961	201.6	0.496947744	0.593702322	0.008613927	0.088868301	0.027390073
2019-08-03T09:20:00	0.2073	13.940	201.7	0.491151101	0.585712434	0.008431791	0.086989234	0.026810927
2019-08-03T09:25:00	0.2087	13.927	201.9	0.496019902	0.592421605	0.008584644	0.088566184	0.027296958
2019-08-03T09:30:00	0.2094	13.926	201.9	0.498477554	0.595815455	0.008662318	0.089367542	0.027543944
2019-08-03T09:35:00	0.2102	13.928	202.1	0.501276748	0.599686867	0.008751212	0.090284644	0.027826604
2019-08-03T09:40:00	0.2108	13.927	202.1	0.503387550	0.602610368	0.008818544	0.090979293	0.028040702
2019-08-03T09:45:00	0.2109	13.930	202.3	0.503782254	0.603157440	0.008831163	0.091109482	0.028080827
2019-08-03T09:50:00	0.2123	13.937	202.4	0.508290497	0.609414897	0.008975935	0.092603067	0.028541165
2019-08-03T09:55:00	0.2147	13.936	202.9	0.516554308	0.620927697	0.009244363	0.095372391	0.029394697
2019-08-03T10:00:00	0.2131	13.948	203.0	0.511133195	0.613369000	0.009067826	0.093551092	0.028833355
2019-08-03T10:05:00	0.2136	13.957	203.2	0.512844308	0.615752251	0.009123364	0.094124066	0.029009951
2019-08-03T10:10:00	0.2119	13.966	203.4	0.507023031	0.607653994	0.008935115	0.092181929	0.028411366
2019-08-03T10:15:00	0.2114	13.985	203.4	0.505309004	0.605274739	0.008880060	0.091613938	0.028236306
2019-08-03T10:20:00	0.2114	14.012	203.6	0.505309004	0.605274739	0.008880060	0.091613938	0.028236306
2019-08-03T10:25:00	0.2109	14.037	203.7	0.503594117	0.602896660	0.008825147	0.091047415	0.028061698
2019-08-03T10:30:00	0.2126	14.060	203.8	0.509421226	0.610986925	0.009012430	0.092979581	0.028657210
2019-08-03T10:35:00	0.2124	14.099	204.0	0.508736199	0.610034424	0.008990312	0.092751388	0.028586878
2019-08-03T10:40:00	0.2111	14.111	203.9	0.504280175	0.603847751	0.008847095	0.091273848	0.028131486
2019-08-03T10:45:00	0.2111	14.176	204.2	0.504280175	0.603847751	0.008847095	0.091273848	0.028131486
2019-08-03T10:50:00	0.2106	14.196	204.4	0.502564771	0.601470377	0.008792268	0.090708207	0.027957150
2019-08-03T10:55:00	0.2093	14.232	204.6	0.498100682	0.595294707	0.008650385	0.089244424	0.027505998
2019-08-03T11:00:00	0.2095	14.267	204.8	0.498787846	0.596244293	0.008672150	0.089468974	0.027575207
2019-08-03T11:05:00	0.2078	14.320	205.0	0.492942536	0.588178807	0.008487873	0.087567822	0.026989253
2019-08-03T11:10:00	0.2075	14.337	205.2	0.491909968	0.586756896	0.008455525	0.087234096	0.026886395
2019-08-03T11:15:00	0.2057	14.365	205.3	0.485707966	0.578234319	0.008262523	0.085242922	0.026272696
2019-08-03T11:20:00	0.2055	14.421	205.7	0.485018155	0.577288306	0.008241193	0.085022865	0.026204873
2019-08-03T11:25:00	0.2040	14.432	205.6	0.479840096	0.570199206	0.008081952	0.083380010	0.025698529
2019-08-03T11:30:00	0.2031	14.489	206.0	0.476729457	0.565950824	0.007987030	0.082400719	0.025396702
2019-08-03T11:35:00	0.2027	14.505	206.0	0.475346033	0.564063877	0.007944993	0.081967027	0.025263034
2019-08-03T11:40:00	0.2023	14.552	206.1	0.473962043	0.562177682	0.007903048	0.081534289	0.025129660
2019-08-03T11:45:00	0.2021	14.575	206.4	0.473269835	0.561234866	0.007882110	0.081318278	0.025063083
2019-08-03T11:50:00	0.2033	14.593	206.2	0.477420957	0.566894580	0.008008084	0.082617922	0.025463646
2019-08-03T11:55:00	0.2025	14.613	206.4	0.474654109	0.563120685	0.007924009	0.081750539	0.025196310
2019-08-03T12:00:00	0.2021	14.621	206.4	0.473269835	0.561234866	0.007882110	0.081318278	0.025063083
2019-08-03T12:05:00	0.2024	14.661	206.6	0.474308093	0.562649160	0.007913526	0.081642384	0.025162976
2019-08-03T12:10:00	0.2018	14.704	206.9	0.472231257	0.559820996	0.007850747	0.080994709	0.024963356
2019-08-03T12:15:00	0.2014	14.761	207.1	0.470845990	0.557936493	0.007809010	0.080564119	0.024830644
2019-08-03T12:20:00	0.2023	14.784	207.2	0.473962043	0.562177682	0.007903048	0.081534289	0.025129660
2019-08-03T12:25:00	0.2015	14.759	206.9	0.471192360	0.558407548	0.007819436	0.080671677	0.024863794
2019-08-03T12:30:00	0.2003	14.755	207.1	0.467033572	0.552757990	0.007694713	0.079384932	0.024467207
2019-08-03T12:35:00	0.1995	14.755	207.0	0.464258195	0.548995380	0.007612028	0.078531891	0.024204291
2019-08-03T12:40:00	0.2017	14.759	206.8	0.471884994	0.559349800	0.007840304	0.080886972	0.024930150
2019-08-03T12:45:00	0.2011	14.738	206.6	0.469806667	0.556523610	0.007777769	0.080241805	0.024731304
2019-08-03T12:50:00	0.2021	14.716	206.3	0.473269835	0.561234866	0.007882110	0.081318278	0.025063083
2019-08-03T12:55:00	0.2029	14.719	206.5	0.476037816	0.565007256	0.007966000	0.082183754	0.025329831
2019-08-03T13:00:00	0.2021	14.744	206.1	0.473269835	0.561234866	0.007882110	0.081318278	0.025063083
2019-08-03T13:05:00	0.2019	14.804	206.4	0.472577485	0.560292239	0.007861196	0.081102505	0.024996580
2019-08-03T13:10:00	0.2000	14.800	206.3	0.465993073	0.551346659	0.007663662	0.079064592	0.024368475
2019-08-03T13:15:00	0.1989	14.830	206.5	0.462175161	0.546175396	0.007550259	0.077894629	0.024007881
2019-08-03T13:20:00	0.2014	14.846	206.4	0.470845990	0.557936493	0.007809010	0.080564119	0.024830644
2019-08-03T13:25:00	0.2016	14.836	205.8	0.471538695	0.558878650	0.007829867	0.080779295	0.024896963
2019-08-03T13:30:00	0.2040	14.795	205.1	0.479840096	0.570199206	0.008081952	0.083380010	0.025698529
2019-08-03T13:35:00	0.2016	14.791	205.0	0.471538695	0.558878650	0.007829867	0.080779295	0.024896963
2019-08-03T13:40:00	0.2011	14.800	204.7	0.469806667	0.556523610	0.007777769	0.080241805	0.024731304
2019-08-03T13:45:00	0.2020	14.792	203.5	0.472923678	0.560763529	0.007871650	0.081210362	0.025029822
2019-08-03T13:50:00	0.2022	14.794	203.5	0.473615956	0.561706250	0.007892576	0.081426253	0.025096362
2019-08-03T13:55:00	0.2028	14.819	203.2	0.475691942	0.564535543	0.007955494	0.082075360	0.025296423
2019-08-03T14:00:00	0.2007	14.831	200.3	0.468420404	0.554640424	0.007736194	0.079812890	0.024599108
2019-08-03T14:05:00	0.1995	14.837	191.7	0.464258195	0.548995380	0.007612028	0.078531891	0.024204291
2019-08-03T14:10:00	0.1977	14.843	187.2	0.458005220	0.540540508	0.007427349	0.076626592	0.023617060
2019-08-03T14:15:00	0.1975	14.895	187.2	0.457309727	0.539602018	0.007406946	0.076416094	0.023552182
2019-08-03T14:20:00	0.1966	14.913	183.2	0.454178226	0.535381141	0.007315420	0.075471837	0.023261153
2019-08-03T14:25:00	0.1971	14.927	168.2	0.455918309	0.537725603	0.007366209	0.075995822	0.023422650
2019-08-03T14:30:00	0.1983	14.954	165.6	0.460090837	0.543357106	0.007488699	0.077259528	0.023812137
2019-08-03T14:35:00	0.1970	14.948	160.5	0.455570365	0.537256616	0.007356040	0.075890904	0.023390314
2019-08-03T14:40:00	0.1975	14.946	157.3	0.457309727	0.539602018	0.007406946	0.076416094	0.023552182
2019-08-03T14:45:00	0.1950	14.960	152.7	0.448603888	0.527886763	0.007153876	0.073805225	0.022747487
2019-08-03T14:50:00	0.1949	14.981	149.7	0.448255184	0.527418764	0.007143830	0.073701575	0.022715541
2019-08-03T14:55:00	0.1976	14.979	148.9	0.457657492	0.540071239	0.007417145	0.076521313	0.023584612
2019-08-03T15:00:00	0.1966	14.994	147.6	0.454178226	0.535381141	0.007315420	0.075471837	0.023261153
2019-08-03T15:05:00	0.1978	14.991	153.1	0.458352913	0.541009823	0.007437560	0.076731931	0.023649526
2019-08-03T15:10:00	0.1976	15.005	152.4	0.457657492	0.540071239	0.007417145	0.076521313	0.023584612
2019-08-03T15:15:00	0.1973	15.002	146.5	0.456614090	0.538663716	0.007386566	0.076205838	0.023487379
2019-08-03T15:20:00	0.1979	15.004	146.3	0.458700570	0.541479186	0.007447776	0.076837330	0.023682011
2019-08-03T15:25:00	0.1987	15.003	144.5	0.461480529	0.545235778	0.007529716	0.077682688	0.023942559
2019-08-03T15:30:00	0.1968	15.009	141.7	0.454874368	0.536318785	0.007335718	0.075681250	0.023325696
2019-08-03T15:35:00	0.1956	14.997	138.6	0.450695351	0.530695745	0.007214280	0.074428392	0.022939553
2019-08-03T15:40:00	0.1974	15.002	137.6	0.456961927	0.539132844	0.007396753	0.076310936	0.023519772
2019-08-03T15:45:00	0.1935	15.016	135.0	0.443369510	0.520871716	0.007003793	0.072256841	0.022270260
2019-08-03T15:50:00	0.1928	15.021	117.6	0.440959524	0.517601656	0.006934579	0.071542776	0.022050178
2019-08-03T15:55:00	0.1932	15.024	105.9	0.442321651	0.519469976	0.006973935	0.071948801	0.022175319
2019-08-03T16:00:00	0.1947	15.019	102.8	0.447557667	0.526482908	0.007123754	0.073494458	0.022651706
2019-08-03T16:05:00	0.1939	15.023	100.1	0.444673544	0.522617351	0.007041038	0.072641086	0.022388688
2019-08-03T16:10:00	0.1934	15.032	101.1	0.443184229	0.520623799	0.006998509	0.072202327	0.022253458
2019-08-03T16:15:00	0.1933	15.038	101.4	0.442742306	0.520032590	0.006985914	0.072072384	0.022213409
2019-08-03T16:20:00	0.1931	15.031	101.4	0.441950963	0.518974306	0.006963387	0.071839984	0.022141781
2019-08-03T16:25:00	0.1920	15.048	102.3	0.438697283	0.513718234	0.006858991	0.070762949	0.021809828
2019-08-03T16:30:00	0.1911	15.058	103.4	0.436448606	0.509872279	0.006784358	0.069992975	0.021572515
2019-08-03T16:35:00	0.1930	15.058	107.6	0.441672919	0.518602588	0.006955481	0.071758415	0.022116641
2019-08-03T16:40:00	0.1928	15.060	108.2	0.440926372	0.517544644	0.006933468	0.071531310	0.022046645
2019-08-03T16:45:00	0.1910	15.067	109.4	0.435959638	0.509037857	0.006768196	0.069826228	0.021521122
2019-08-03T16:50:00	0.1918	15.045	110.2	0.438336646	0.513100477	0.006846988	0.070639115	0.021771661
2019-08-03T16:55:00	0.1911	15.055	111.6	0.436359767	0.509720626	0.006781420	0.069962661	0.021563172
2019-08-03T17:00:00	0.1898	15.038	115.0	0.432744227	0.503567393	0.006662498	0.068735765	0.021185030
2019-08-03T17:05:00	0.1905	15.047	122.1	0.434853339	0.507152428	0.006731715	0.069449858	0.021405121
2019-08-03T17:10:00	0.1907	15.030	122.8	0.435326001	0.507957552	0.006747286	0.069610508	0.021454635
2019-08-03T17:15:00	0.1906	15.018	122.1	0.434981270	0.507370281	0.006735927	0.069493317	0.021418515
2019-08-03T17:20:00	0.1908	15.041	122.1	0.435453895	0.508175513	0.006751503	0.069654017	0.021468044
2019-08-03T17:25:00	0.1933	15.009	122.9	0.442842318	0.520166374	0.006988763	0.072101782	0.022222469
2019-08-03T17:30:00	0.1932	14.992	123.9	0.442400350	0.519575223	0.006976175	0.071971914	0.022182443
2019-08-03T17:35:00	0.1927	14.977	124.7	0.440677130	0.517116108	0.006925116	0.071445145	0.022020087
2019-08-03T17:40:00	0.1917	14.959	126.5	0.437887172	0.512331058	0.006832046	0.070484963	0.021724150
2019-08-03T17:45:00	0.1930	14.930	128.7	0.441772964	0.518736331	0.006958325	0.071787760	0.022125685
2019-08-03T17:50:00	0.1928	14.921	130.5	0.441004115	0.517678346	0.006936074	0.071558200	0.022054932
2019-08-03T17:55:00	0.1936	14.897	132.4	0.443683444	0.521291839	0.007012750	0.072349253	0.022298743
2019-08-03T18:00:00	0.1933	14.873	133.5	0.442543024	0.519766038	0.006980238	0.072013825	0.022195360
2019-08-03T18:05:00	0.1947	14.853	136.0	0.447686176	0.526655299	0.007127451	0.073532595	0.022663460
2019-08-03T18:10:00	0.1938	14.832	138.3	0.444453064	0.522322113	0.007034734	0.072576050	0.022368643
2019-08-03T18:15:00	0.1959	14.812	139.6	0.451684130	0.532024945	0.007242923	0.074723900	0.023030632
2019-08-03T18:20:00	0.1952	14.792	140.5	0.449152207	0.528622861	0.007169688	0.073968352	0.022797765
2019-08-03T18:25:00	0.1941	14.770	143.5	0.445571527	0.523820206	0.007066741	0.072906264	0.022470419
2019-08-03T18:30:00	0.1949	14.745	146.2	0.448269877	0.527438482	0.007144253	0.073705941	0.022716887
2019-08-03T18:35:00	0.1941	14.724	147.4	0.445386368	0.523572132	0.007061437	0.072851547	0.022453554
2019-08-03T18:40:00	0.1958	14.699	149.2	0.451570453	0.531872091	0.007239627	0.074689897	0.023020152
2019-08-03T18:45:00	0.1962	14.678	149.3	0.452871299	0.533621855	0.007277387	0.075079456	0.023140218
2019-08-03T18:50:00	0.1983	14.657	150.9	0.460084264	0.543348224	0.007488505	0.077257530	0.023811521
2019-08-03T18:55:00	0.1975	14.628	152.9	0.457210894	0.539468685	0.007404049	0.076386205	0.023542970
2019-08-03T19:00:00	0.1978	14.618	154.3	0.458509558	0.541221294	0.007442162	0.076779412	0.023664160
2019-08-03T19:05:00	0.1971	14.602	154.2	0.455982779	0.537812510	0.007368094	0.076015270	0.023428644
2019-08-03T19:10:00	0.1987	14.575	156.6	0.461452754	0.545198214	0.007528895	0.077674220	0.023939949
2019-08-03T19:15:00	0.2007	14.570	168.5	0.468300734	0.554477928	0.007732610	0.079775916	0.024587712
2019-08-03T19:20:00	0.1997	14.546	158.5	0.465087409	0.550118915	0.007636686	0.078786283	0.024282698
2019-08-03T19:25:00	0.2017	14.535	157.7	0.471928019	0.559408343	0.007841601	0.080900355	0.024934275
2019-08-03T19:30:00	0.2010	14.517	160.2	0.469411289	0.555986349	0.007765900	0.080119358	0.024693564
2019-08-03T19:35:00	0.2006	14.492	159.8	0.467932903	0.553978533	0.007721600	0.079662324	0.024552702
2019-08-03T19:40:00	0.2004	14.479	160.4	0.467494224	0.553383093	0.007708479	0.079526957	0.024510980
2019-08-03T19:45:00	0.2003	14.450	160.5	0.467055489	0.552787727	0.007695367	0.079391686	0.024469289
2019-08-03T19:50:00	0.2021	14.438	160.4	0.473199893	0.561139623	0.007879996	0.081296467	0.025056361
2019-08-03T19:55:00	0.2003	14.415	162.8	0.467218288	0.553008629	0.007700231	0.079441867	0.024484755
2019-08-03T20:00:00	0.2001	14.401	163.4	0.466432694	0.551942854	0.007676774	0.079199860	0.024410166
2019-08-03T20:05:00	0.1991	14.369	164.9	0.462870396	0.547116214	0.007570847	0.078107038	0.024073348
2019-08-03T20:10:00	0.1991	14.353	165.2	0.462778293	0.546991556	0.007568118	0.078078882	0.024064670
2019-08-03T20:15:00	0.2002	14.336	176.0	0.466850338	0.552509390	0.007689240	0.079328473	0.024449806
2019-08-03T20:20:00	0.1988	14.305	175.7	0.461899536	0.545802517	0.007542104	0.077810498	0.023981951
2019-08-03T20:25:00	0.1997	14.288	165.0	0.464931817	0.549908055	0.007632056	0.078738518	0.024267976
2019-08-03T20:30:00	0.2013	14.250	167.9	0.470387286	0.557312814	0.007795214	0.080421788	0.024786776
2019-08-03T20:35:00	0.2030	14.220	180.2	0.476525638	0.565672725	0.007980830	0.082336752	0.025376987
2019-08-03T20:40:00	0.2029	14.225	178.5	0.476088074	0.565075808	0.007967527	0.082199510	0.025334687
2019-08-03T20:45:00	0.2035	14.205	180.4	0.478070857	0.567781908	0.008027895	0.082822317	0.025526642
2019-08-03T20:50:00	0.2044	14.179	181.0	0.481088660	0.571906614	0.008120208	0.083774693	0.025820174
2019-08-03T20:55:00	0.2047	14.173	180.4	0.482378171	0.573671321	0.008159813	0.084183288	0.025946107
2019-08-03T21:00:00	0.2046	14.152	182.5	0.481941362	0.573073397	0.008146387	0.084044770	0.025903414
2019-08-03T21:05:00	0.2053	14.138	183.2	0.484265758	0.576256897	0.008217959	0.084783165	0.026130995
2019-08-03T21:10:00	0.2052	14.111	186.0	0.484174237	0.576131467	0.008215135	0.084754030	0.026122015
2019-08-03T21:15:00	0.2058	14.090	185.7	0.486152296	0.578843878	0.008276276	0.085384817	0.026316430
2019-08-03T21:20:00	0.2043	14.081	187.2	0.480884359	0.571627149	0.008113942	0.083710049	0.025800250
2019-08-03T21:25:00	0.2065	14.076	189.5	0.488382402	0.581905661	0.008345478	0.086098760	0.026536474
2019-08-03T21:30:00	0.2059	14.062	190.1	0.486567514	0.579413643	0.008289139	0.085517521	0.026357330
2019-08-03T21:35:00	0.2063	14.047	191.1	0.487854944	0.581181138	0.008329085	0.085929634	0.026484348
2019-08-03T21:40:00	0.2071	14.036	192.8	0.490519695	0.584843753	0.008412068	0.086785759	0.026748214
2019-08-03T21:45:00	0.2074	14.033	194.0	0.491461360	0.586139401	0.008441491	0.087089303	0.026841769
2019-08-03T21:50:00	0.2057	14.035	194.7	0.485856824	0.578438515	0.008267129	0.085290446	0.026287344
2019-08-03T21:55:00	0.2054	14.011	195.1	0.484730595	0.576894056	0.008232309	0.084931214	0.026176625
2019-08-03T22:00:00	0.2051	14.017	189.9	0.483603991	0.575350099	0.008197550	0.084572614	0.026066101
2019-08-03T22:05:00	0.2050	13.985	200.3	0.483213115	0.574814659	0.008185508	0.084448373	0.026027809
2019-08-03T22:10:00	0.2043	13.989	196.8	0.480750578	0.571444165	0.008109841	0.083667731	0.025787207
2019-08-03T22:15:00	0.2040	13.960	200.7	0.480013940	0.570436864	0.008087273	0.083434909	0.025715449
2019-08-03T22:20:00	0.2045	13.959	200.7	0.481694956	0.572736171	0.008138818	0.083966681	0.025879347
2019-08-03T22:25:00	0.2064	13.941	201.5	0.488203209	0.581659495	0.008339907	0.086041285	0.026518760
2019-08-03T22:30:00	0.2045	13.926	201.4	0.481603365	0.572610834	0.008136005	0.083937665	0.025870403
2019-08-03T22:35:00	0.2049	13.887	201.8	0.482938459	0.574438495	0.008177051	0.084361127	0.026000919
2019-08-03T22:40:00	0.2033	13.869	201.8	0.477365668	0.566819107	0.008006399	0.082600545	0.025458290
2019-08-03T22:45:00	0.2030	13.866	201.8	0.476282480	0.565340994	0.007973436	0.082260472	0.025353476
2019-08-03T22:50:00	0.2034	13.830	195.3	0.477619672	0.567165855	0.008014139	0.082680392	0.025482900
2019-08-03T22:55:00	0.2037	13.825	195.4	0.478956336	0.568991419	0.008054928	0.083101203	0.025612598
2019-08-03T23:00:00	0.2038	13.812	195.4	0.479256049	0.569400951	0.008064087	0.083195704	0.025641724
2019-08-03T23:05:00	0.2032	13.802	195.3	0.477136393	0.566506163	0.007999416	0.082528505	0.025436087
2019-08-03T23:10:00	0.2032	13.789	195.0	0.477090537	0.566443576	0.007998020	0.082514100	0.025431647
2019-08-03T23:15:00	0.2029	13.782	209.2	0.476007261	0.564965581	0.007965072	0.082174175	0.025326879
2019-08-03T23:20:00	0.2033	13.745	209.1	0.477344562	0.566790297	0.008005756	0.082593912	0.025456246
2019-08-03T23:25:00	0.2018	13.747	209.6	0.472108820	0.559654372	0.007847054	0.080956605	0.024951612
2019-08-03T23:30:00	0.2030	13.733	209.8	0.476561319	0.565721407	0.007981915	0.082347949	0.025380438
2019-08-03T23:35:00	0.2021	13.711	196.2	0.473401756	0.561414520	0.007886098	0.081359423	0.025075764
2019-08-03T23:40:00	0.2024	13.693	209.5	0.474394081	0.562766329	0.007916130	0.081669255	0.025171257
2019-08-03T23:45:00	0.2017	13.676	209.7	0.471925116	0.559404394	0.007841514	0.080899452	0.024933997
2019-08-03T23:50:00	0.2014	13.657	195.7	0.470840184	0.557928597	0.007808836	0.080562317	0.024830089
2019-08-03T23:55:00	0.2006	13.639	196.2	0.468021959	0.554099432	0.007724265	0.079689818	0.024561176
2019-08-04T00:00:00	0.1995	13.624	196.1	0.464160312	0.548862791	0.007609120	0.078501888	0.024195044
2019-08-04T00:05:00	0.1994	13.597	196.0	0.463767181	0.548330343	0.007597446	0.078381445	0.024157923
2019-08-04T00:10:00	0.1993	13.587	195.9	0.463721143	0.548267997	0.007596079	0.078367346	0.024153577
2019-08-04T00:15:00	0.2007	13.565	209.1	0.468531355	0.554791090	0.007739518	0.079847176	0.024609675
2019-08-04T00:20:00	0.2020	13.545	195.6	0.472988568	0.560851878	0.007873610	0.081230586	0.025036056
2019-08-04T00:25:00	0.2004	13.533	209.2	0.467399342	0.553254324	0.007705642	0.079497693	0.024501961
2019-08-04T00:30:00	0.2002	13.502	195.6	0.466659789	0.552250892	0.007683551	0.079269781	0.024431716
2019-08-04T00:35:00	0.2002	13.483	195.4	0.466613789	0.552188494	0.007682178	0.079255616	0.024427350
2019-08-04T00:40:00	0.1984	13.462	195.7	0.460319107	0.543665591	0.007495429	0.077328959	0.023833536
2019-08-04T00:45:00	0.1981	13.459	195.5	0.459577998	0.542664204	0.007473591	0.077103656	0.023764096
2019-08-04T00:50:00	0.1999	13.451	208.8	0.465782043	0.551060522	0.007657372	0.078999700	0.024348475
2019-08-04T00:55:00	0.1980	13.439	195.8	0.459138230	0.542070195	0.007460647	0.076970117	0.023722937
2019-08-04T01:00:00	0.1989	13.418	195.4	0.462219057	0.546234787	0.007551558	0.077908032	0.024012012
2019-08-04T01:05:00	0.1997	13.387	195.5	0.464950092	0.549932821	0.007632600	0.078744128	0.024269705
2019-08-04T01:10:00	0.2002	13.373	208.3	0.466638616	0.552222170	0.007682919	0.079263261	0.024429707
2019-08-04T01:15:00	0.2010	13.338	194.8	0.469366073	0.555924915	0.007764543	0.080105361	0.024689250
2019-08-04T01:20:00	0.2016	13.299	194.7	0.471398737	0.558688262	0.007825651	0.080735797	0.024883557
2019-08-04T01:25:00	0.2017	13.311	194.5	0.472045403	0.559568073	0.007845141	0.080936873	0.024945530
2019-08-04T01:30:00	0.2023	13.291	194.7	0.474076456	0.562333554	0.007906511	0.081570020	0.025140672
2019-08-04T01:35:00	0.2039	13.268	207.7	0.479563014	0.569820466	0.008073474	0.083292547	0.025671572
2019-08-04T01:40:00	0.2028	13.267	207.9	0.475714547	0.564566369	0.007956180	0.082082442	0.025298606
2019-08-04T01:45:00	0.2028	13.249	194.4	0.475668671	0.564503809	0.007954787	0.082068070	0.025294176
2019-08-04T01:50:00	0.2022	13.216	194.2	0.473546766	0.561612013	0.007890483	0.081404663	0.025089708
2019-08-04T01:55:00	0.2010	13.187	194.2	0.469344917	0.555896171	0.007763908	0.080098812	0.024687232
2019-08-04T02:00:00	0.2025	13.166	193.9	0.474839153	0.563372890	0.007929618	0.081808407	0.025214146
2019-08-04T02:05:00	0.2007	13.154	207.6	0.468559818	0.554829743	0.007740370	0.079855973	0.024612387
2019-08-04T02:10:00	0.2020	13.127	207.6	0.473016993	0.560890581	0.007874469	0.081239446	0.025038786
2019-08-04T02:15:00	0.2023	13.121	207.2	0.474009431	0.562242241	0.007904482	0.081549087	0.025134221
2019-08-04T02:20:00	0.2002	13.105	194.0	0.466688268	0.552289524	0.007684401	0.079278551	0.024434420
2019-08-04T02:25:00	0.2017	13.086	194.1	0.471840556	0.559289336	0.007838964	0.080873151	0.024925890
2019-08-04T02:30:00	0.1999	13.069	194.1	0.465555636	0.550753575	0.007650627	0.078930108	0.024327026
2019-08-04T02:35:00	0.2006	13.051	207.3	0.467937300	0.553984504	0.007721732	0.079663681	0.024553120
2019-08-04T02:40:00	0.2005	13.052	207.3	0.467891319	0.553922083	0.007720356	0.079649487	0.024548745
2019-08-04T02:45:00	0.2001	13.028	207.2	0.466458268	0.551977541	0.007677537	0.079207733	0.024412593
2019-08-04T02:50:00	0.2013	13.018	207.4	0.470571819	0.557563695	0.007800763	0.080479032	0.024804419
2019-08-04T02:55:00	0.2015	13.009	193.7	0.471218643	0.558443297	0.007820227	0.080679842	0.024866311
2019-08-04T03:00:00	0.2008	12.996	206.9	0.468747356	0.555084437	0.007745990	0.079913947	0.024630255
2019-08-04T03:05:00	0.2009	12.961	193.8	0.469047975	0.555492766	0.007755002	0.080006922	0.024658910
2019-08-04T03:10:00	0.2008	12.942	207.2	0.468655414	0.554959568	0.007743234	0.079885523	0.024621494
2019-08-04T03:15:00	0.2017	12.937	193.7	0.472073837	0.559606766	0.007845998	0.080945720	0.024948257
2019-08-04T03:20:00	0.2003	12.923	193.6	0.467176696	0.552952190	0.007698989	0.079429045	0.024480803
2019-08-04T03:25:00	0.2011	12.910	193.8	0.469903718	0.556655508	0.007780683	0.080271876	0.024740572
2019-08-04T03:30:00	0.2006	12.882	193.5	0.468124873	0.554239152	0.007727345	0.079721597	0.024570971
2019-08-04T03:35:00	0.1992	12.869	206.6	0.463221990	0.547592150	0.007581270	0.078214566	0.024106489
2019-08-04T03:40:00	0.1991	12.842	193.6	0.462828749	0.547059846	0.007569613	0.078094306	0.024069424
2019-08-04T03:45:00	0.1994	12.834	206.8	0.463824188	0.548407544	0.007599138	0.078398905	0.024163304
2019-08-04T03:50:00	0.2014	12.831	193.2	0.470713302	0.557756065	0.007805018	0.080522935	0.024817950
2019-08-04T03:55:00	0.2007	12.826	193.4	0.468588281	0.554868397	0.007741223	0.079864771	0.024615098
2019-08-04T04:00:00	0.2013	12.811	206.5	0.470621413	0.557631125	0.007802254	0.080494420	0.024809162
2019-08-04T04:05:00	0.2007	12.817	206.7	0.468539207	0.554801753	0.007739753	0.079849603	0.024610423
2019-08-04T04:10:00	0.2012	12.797	206.5	0.470268785	0.557151719	0.007791652	0.080385038	0.024775449
2019-08-04T04:15:00	0.2015	12.778	206.8	0.471304867	0.558560575	0.007822824	0.080706629	0.024874567
2019-08-04T04:20:00	0.2011	12.776	193.2	0.469916119	0.556672362	0.007781056	0.080275718	0.024741756
2019-08-04T04:25:00	0.2017	12.768	206.9	0.471991281	0.559494425	0.007843509	0.080920034	0.024940341
2019-08-04T04:30:00	0.2030	12.782	206.6	0.476486706	0.565619608	0.007979646	0.082324536	0.025373222
2019-08-04T04:35:00	0.2021	12.766	206.8	0.473369884	0.561371114	0.007885135	0.081349482	0.025072700
2019-08-04T04:40:00	0.2030	12.770	206.8	0.476480517	0.565611165	0.007979458	0.082322595	0.025372623
2019-08-04T04:45:00	0.2033	12.777	206.8	0.477514697	0.567022545	0.008010940	0.082647388	0.025472728
2019-08-04T04:50:00	0.2033	12.771	206.8	0.477511604	0.567018322	0.008010845	0.082646416	0.025472428
2019-08-04T04:55:00	0.2022	12.780	206.6	0.473703608	0.561825639	0.007895228	0.081453608	0.025104793
2019-08-04T05:00:00	0.2041	12.753	206.9	0.480269937	0.570786872	0.008095112	0.083515783	0.025740375
2019-08-04T05:05:00	0.2047	12.778	206.8	0.482338758	0.573617365	0.008158601	0.084170785	0.025942253
2019-08-04T05:10:00	0.2052	12.764	193.8	0.484061297	0.575976694	0.008211651	0.084718085	0.026110937
2019-08-04T05:15:00	0.2034	12.768	207.1	0.477841827	0.567469167	0.008020911	0.082750258	0.025504433
2019-08-04T05:20:00	0.2057	12.778	207.1	0.485779877	0.578332960	0.008264748	0.085265878	0.026279772
2019-08-04T05:25:00	0.2057	12.753	207.0	0.485776791	0.578328727	0.008264652	0.085264893	0.026279468
2019-08-04T05:30:00	0.2074	12.775	206.9	0.491631335	0.586373347	0.008446807	0.087144150	0.026858673
2019-08-04T05:35:00	0.2066	12.793	207.1	0.488872978	0.582579723	0.008360740	0.086256209	0.026585001
2019-08-04T05:40:00	0.2067	12.800	207.3	0.489214427	0.583048994	0.008371370	0.086365879	0.026618803
2019-08-04T05:45:00	0.2064	12.811	207.0	0.488177643	0.581624375	0.008339112	0.086033086	0.026516233
2019-08-04T05:50:00	0.2090	12.824	207.2	0.497122896	0.593944164	0.008619461	0.088925389	0.027407669
2019-08-04T05:55:00	0.2076	12.823	194.0	0.492304405	0.587299960	0.008467875	0.087361503	0.026925664
2019-08-04T06:00:00	0.2084	12.842	207.4	0.495053828	0.591088849	0.008554206	0.088252163	0.027200174
2019-08-04T06:05:00	0.2087	12.845	207.6	0.496082366	0.592507803	0.008586613	0.088586507	0.027303222
2019-08-04T06:10:00	0.2079	12.864	207.7	0.493327617	0.588709306	0.008499952	0.087692442	0.027027662
2019-08-04T06:15:00	0.2081	12.886	207.6	0.494012665	0.589653344	0.008521462	0.087914356	0.027096058
2019-08-04T06:20:00	0.2081	12.911	194.3	0.494009587	0.589649101	0.008521366	0.087913358	0.027095751
2019-08-04T06:25:00	0.2086	12.932	194.5	0.495726222	0.592016376	0.008575385	0.088470665	0.027267518
2019-08-04T06:30:00	0.2091	12.957	194.5	0.497441992	0.594384823	0.008629547	0.089029442	0.027439739
2019-08-04T06:35:00	0.2089	12.993	194.7	0.496751481	0.593431359	0.008607729	0.088804352	0.027370364
2019-08-04T06:40:00	0.2083	13.022	195.0	0.494685265	0.590580593	0.008542608	0.088132509	0.027163295
2019-08-04T06:45:00	0.2093	13.044	195.1	0.498120064	0.595321485	0.008650998	0.089250754	0.027507949
2019-08-04T06:50:00	0.2091	13.068	208.5	0.497429691	0.594367834	0.008629158	0.089025430	0.027438502
2019-08-04T06:55:00	0.2100	13.097	208.7	0.500518371	0.598637375	0.008727084	0.090035716	0.027749882
2019-08-04T07:00:00	0.2105	13.130	195.4	0.502231733	0.601009095	0.008781643	0.090598593	0.027923366
2019-08-04T07:05:00	0.2100	13.169	195.7	0.500512227	0.598628874	0.008726889	0.090033700	0.027749261
2019-08-04T07:10:00	0.2080	13.206	195.8	0.493634754	0.589132513	0.008509593	0.087791902	0.027058317
2019-08-04T07:15:00	0.2077	13.244	196.1	0.492599317	0.587706078	0.008477114	0.087456823	0.026955042
2019-08-04T07:20:00	0.2097	13.271	196.2	0.499472731	0.597191108	0.008693870	0.089693058	0.027644272
2019-08-04T07:25:00	0.2104	13.316	196.4	0.501873159	0.600512544	0.008770211	0.090480649	0.027887015
2019-08-04T07:30:00	0.2117	13.346	196.5	0.506329253	0.606690670	0.008912810	0.091951815	0.028340443
2019-08-04T07:35:00	0.2098	13.391	196.6	0.499806972	0.597653315	0.008704480	0.089802519	0.027678008
2019-08-04T07:40:00	0.2107	13.422	210.2	0.502893502	0.601925781	0.008802762	0.090816468	0.027990517
2019-08-04T07:45:00	0.2113	13.487	197.0	0.504948617	0.604774785	0.008868506	0.091494737	0.028199566
2019-08-04T07:50:00	0.2111	13.550	210.9	0.504259624	0.603819255	0.008846437	0.091267061	0.028129395
2019-08-04T07:55:00	0.2108	13.599	211.4	0.503227409	0.602388444	0.008813427	0.090926499	0.028024430
2019-08-04T08:00:00	0.2101	13.652	211.3	0.500821789	0.599057209	0.008736733	0.090135268	0.027780565
2019-08-04T08:05:00	0.2120	13.690	211.5	0.507336002	0.608088687	0.008945186	0.092285830	0.028443389
2019-08-04T08:10:00	0.2121	13.743	211.6	0.507675607	0.608560462	0.008956120	0.092398639	0.028478158
2019-08-04T08:15:00	0.2142	13.815	212.2	0.514860732	0.618563778	0.009189029	0.094801522	0.029218750
2019-08-04T08:20:00	0.2148	13.928	212.7	0.516908677	0.621422623	0.009255962	0.095492058	0.029431580
2019-08-04T08:25:00	0.2136	14.002	212.5	0.512802379	0.615693823	0.009122001	0.094110005	0.029005617
2019-08-04T08:30:00	0.2134	13.997	198.7	0.512114966	0.614736128	0.009099671	0.093879628	0.028934613
2019-08-04T08:35:00	0.2111	13.995	198.4	0.504232002	0.603780956	0.008845553	0.091257940	0.028126583
2019-08-04T08:40:00	0.2134	14.062	212.2	0.512108842	0.614727598	0.009099472	0.093877577	0.028933981
2019-08-04T08:45:00	0.2108	14.130	198.9	0.503196709	0.602345902	0.008812446	0.090916380	0.028021311
2019-08-04T08:50:00	0.2112	14.186	212.5	0.504565778	0.604243798	0.008856240	0.091368194	0.028160565
2019-08-04T08:55:00	0.2112	14.219	212.6	0.504562709	0.604239542	0.008856142	0.091367180	0.028160252
2019-08-04T09:00:00	0.2136	14.134	198.7	0.512780949	0.615663961	0.009121305	0.094102819	0.029003403
2019-08-04T09:05:00	0.2119	14.134	198.8	0.506956497	0.607561593	0.008932974	0.092159849	0.028404560
2019-08-04T09:10:00	0.2125	14.338	199.3	0.509009171	0.610413934	0.008999122	0.092842285	0.028614894
2019-08-04T09:15:00	0.2101	14.369	199.1	0.500775707	0.598993441	0.008735268	0.090120145	0.027775904
2019-08-04T09:20:00	0.2094	14.264	198.8	0.498368357	0.595664559	0.008658860	0.089331861	0.027532947
2019-08-04T09:25:00	0.2102	14.234	212.1	0.501112892	0.599460073	0.008745996	0.090230831	0.027810019
2019-08-04T09:30:00	0.2119	14.247	198.6	0.506941164	0.607540300	0.008932481	0.092154761	0.028402992
2019-08-04T09:35:00	0.2117	14.286	199.0	0.506252572	0.606584221	0.008910346	0.091926399	0.028332609
2019-08-04T09:40:00	0.2096	14.691	200.6	0.499043171	0.596597222	0.008680244	0.089552480	0.027600944
2019-08-04T09:45:00	0.2132	14.994	201.6	0.511384537	0.613718923	0.009075973	0.093635145	0.028859261
2019-08-04T09:50:00	0.2127	14.899	200.7	0.509669630	0.611332413	0.009020458	0.093062398	0.028682735
2019-08-04T09:55:00	0.2102	14.835	213.8	0.501094461	0.599434563	0.008745410	0.090224779	0.027808153
2019-08-04T10:00:00	0.2094	14.769	212.9	0.498343762	0.595630573	0.008658081	0.089323825	0.027530470
2019-08-04T10:05:00	0.2084	14.579	198.4	0.494899956	0.590876644	0.008549363	0.088202199	0.027184774
2019-08-04T10:10:00	0.2094	14.587	212.6	0.498331465	0.595613581	0.008657691	0.089319807	0.027529232
2019-08-04T10:15:00	0.2092	14.616	212.9	0.497638059	0.594655625	0.008635747	0.089093407	0.027459453
2019-08-04T10:20:00	0.2095	14.603	212.4	0.498662744	0.596071387	0.008668186	0.089428072	0.027562600
2019-08-04T10:25:00	0.2102	14.623	198.8	0.501060670	0.599387796	0.008744334	0.090213684	0.027804734
2019-08-04T10:30:00	0.2083	14.659	198.6	0.494525222	0.590359924	0.008537574	0.088080576	0.027147289
2019-08-04T10:35:00	0.2087	14.659	198.1	0.495894699	0.592248837	0.008580696	0.088525456	0.027284405
2019-08-04T10:40:00	0.2085	14.708	198.4	0.495200797	0.591291554	0.008558833	0.088299900	0.027214887
2019-08-04T10:45:00	0.2069	14.767	198.0	0.490032088	0.584173127	0.008396853	0.086628787	0.026699833
2019-08-04T10:50:00	0.2044	14.803	211.8	0.481404181	0.572338284	0.008129890	0.083874578	0.025850959
2019-08-04T10:55:00	0.2055	14.822	197.8	0.485194274	0.577529801	0.008246636	0.085079022	0.026222181
2019-08-04T11:00:00	0.2038	14.873	197.2	0.479319330	0.569487429	0.008066022	0.083215664	0.025647876
2019-08-04T11:05:00	0.2064	14.887	197.5	0.488284825	0.581771611	0.008342444	0.086067460	0.026526827
2019-08-04T11:10:00	0.2061	14.929	197.1	0.487244672	0.580343139	0.008310138	0.085734160	0.026424101
2019-08-04T11:15:00	0.2067	14.960	196.7	0.489306164	0.583175088	0.008374227	0.086395356	0.026627888
2019-08-04T11:20:00	0.2069	14.982	208.7	0.489988941	0.584113795	0.008395508	0.086614904	0.026695555
2019-08-04T11:25:00	0.2060	15.005	195.5	0.486881432	0.579844494	0.008298870	0.085617917	0.026388274
2019-08-04T11:30:00	0.2063	15.054	194.3	0.487909360	0.581255875	0.008330775	0.085947075	0.026489723
2019-08-04T11:35:00	0.2062	15.084	206.8	0.487558528	0.580774075	0.008319879	0.085834663	0.026455077
2019-08-04T11:40:00	0.2055	15.077	192.3	0.485138720	0.577453623	0.008244919	0.085061306	0.026216721
2019-08-04T11:45:00	0.2042	15.091	190.3	0.480645505	0.571300458	0.008106620	0.083634502	0.025776966
2019-08-04T11:50:00	0.2043	15.100	186.6	0.480984692	0.571764391	0.008117019	0.083741793	0.025810034
2019-08-04T11:55:00	0.2035	15.137	186.3	0.478214571	0.567978170	0.008032280	0.082867549	0.025540583
2019-08-04T12:00:00	0.2035	15.167	184.1	0.478208386	0.567969722	0.008032091	0.082865602	0.025539983
2019-08-04T12:05:00	0.2039	15.191	184.3	0.479584458	0.569849776	0.008074130	0.083299314	0.025673658
2019-08-04T12:10:00	0.2013	15.200	179.5	0.470583472	0.557579538	0.007801113	0.080482647	0.024805534
2019-08-04T12:15:00	0.2036	15.185	176.2	0.478535448	0.568416433	0.008042073	0.082968584	0.025571723
2019-08-04T12:20:00	0.2020	15.219	173.9	0.472995115	0.560860793	0.007873808	0.081232627	0.025036685
2019-08-04T12:25:00	0.2022	15.248	171.3	0.473681186	0.561795097	0.007894549	0.081446610	0.025102636
2019-08-04T12:30:00	0.2042	15.252	168.4	0.480589876	0.571224380	0.008104915	0.083616912	0.025771544
2019-08-04T12:35:00	0.2017	15.258	164.2	0.471937863	0.559421738	0.007841898	0.080903417	0.024935219
2019-08-04T12:40:00	0.2013	15.271	160.4	0.470546276	0.557528966	0.007799995	0.080471107	0.024801977
2019-08-04T12:45:00	0.2006	15.326	156.3	0.468114271	0.554224759	0.007727028	0.079718323	0.024569961
2019-08-04T12:50:00	0.2002	15.339	152.4	0.466721107	0.552334072	0.007685382	0.079288665	0.024437537
2019-08-04T12:55:00	0.1990	15.365	150.1	0.462550583	0.546683384	0.007561373	0.078009293	0.024043222
2019-08-04T13:00:00	0.1996	15.352	144.7	0.464627175	0.549495258	0.007622995	0.078645039	0.024239165
2019-08-04T13:05:00	0.1984	15.376	140.4	0.460454055	0.543847980	0.007499409	0.077370018	0.023846191
2019-08-04T13:10:00	0.2002	15.354	142.2	0.466696281	0.552300395	0.007684640	0.079281019	0.024435180
2019-08-04T13:15:00	0.1997	15.363	140.4	0.464955555	0.549940224	0.007632763	0.078745805	0.024270222
2019-08-04T13:20:00	0.1970	15.403	136.3	0.455567448	0.537252686	0.007355954	0.075890025	0.023390043
2019-08-04T13:25:00	0.1987	15.403	132.3	0.461471402	0.545223434	0.007529446	0.077679905	0.023941701
2019-08-04T13:30:00	0.1987	15.422	127.9	0.461465186	0.545215028	0.007529262	0.077678010	0.023941117
2019-08-04T13:35:00	0.1985	15.417	125.0	0.460764191	0.544267197	0.007508559	0.077464422	0.023875287
2019-08-04T13:40:00	0.1972	15.440	121.8	0.456238399	0.538157129	0.007375571	0.076092403	0.023452418
2019-08-04T13:45:00	0.1985	15.419	115.7	0.460751756	0.544250387	0.007508192	0.077460636	0.023874120
2019-08-04T13:50:00	0.1987	15.434	110.9	0.461440322	0.545181401	0.007528527	0.077670429	0.023938781
2019-08-04T13:55:00	0.1985	15.454	108.3	0.460739321	0.544233577	0.007507825	0.077456850	0.023872953
2019-08-04T14:00:00	0.1963	15.471	106.2	0.453080972	0.533904009	0.007283482	0.075142339	0.023159599
2019-08-04T14:05:00	0.1977	15.491	104.1	0.457946303	0.540460991	0.007425620	0.076608749	0.023611560
2019-08-04T14:10:00	0.1978	15.505	102.1	0.458287780	0.540921900	0.007435646	0.076712192	0.023643443
2019-08-04T14:15:00	0.1978	15.498	100.2	0.458281558	0.540913501	0.007435464	0.076710307	0.023642862
2019-08-04T14:20:00	0.1951	15.518	99.4	0.448874761	0.528250371	0.007161685	0.073885789	0.022772318
2019-08-04T14:25:00	0.1955	15.529	98.1	0.450262865	0.530114604	0.007201769	0.074299319	0.022899772
2019-08-04T14:30:00	0.1979	15.531	56.1	0.458610558	0.541357654	0.007445130	0.076810034	0.023673599
2019-08-04T14:35:00	0.1969	15.504	50.0	0.455126052	0.536657876	0.007343063	0.075757032	0.023349053
2019-08-04T14:40:00	0.1953	15.505	46.2	0.449547051	0.529153072	0.007181085	0.074085930	0.022834003
2019-08-04T14:45:00	0.1948	15.525	43.5	0.447797417	0.526804537	0.007130651	0.073565616	0.022673637
2019-08-04T14:50:00	0.1947	15.528	39.4	0.447442387	0.526328274	0.007120439	0.073460255	0.022641164
2019-08-04T14:55:00	0.1921	15.524	35.6	0.438963139	0.514173865	0.006867848	0.070854322	0.021837990
2019-08-04T15:00:00	0.1938	15.511	31.7	0.444289157	0.522102656	0.007030049	0.072527720	0.022353748
2019-08-04T15:05:00	0.1928	15.534	29.7	0.440855208	0.517422269	0.006931083	0.071506702	0.022039060
2019-08-04T15:10:00	0.1922	15.516	25.9	0.439220363	0.514614893	0.006876424	0.070942797	0.021865259
2019-08-04T15:15:00	0.1916	15.527	23.3	0.437583923	0.511812267	0.006821977	0.070381077	0.021692131
2019-08-04T15:20:00	0.1919	15.524	21.2	0.438395043	0.513200485	0.006848931	0.070659158	0.021777839
2019-08-04T15:25:00	0.1910	15.524	18.8	0.436213315	0.509470672	0.006776578	0.069912706	0.021547775
2019-08-04T15:30:00	0.1921	15.549	17.0	0.439200907	0.514581528	0.006875775	0.070936102	0.021863196
2019-08-04T15:35:00	0.1938	15.530	15.4	0.444594543	0.522511559	0.007038778	0.072617780	0.022381505
2019-08-04T15:40:00	0.1932	15.522	14.4	0.442493013	0.519699151	0.006978814	0.071999133	0.022190832
2019-08-04T15:45:00	0.1925	15.501	13.2	0.440273170	0.516421928	0.006911593	0.071305627	0.021977087
2019-08-04T15:50:00	0.1903	15.525	12.7	0.434281836	0.506179771	0.006712916	0.069255915	0.021345346
2019-08-04T15:55:00	0.1913	15.516	11.9	0.437000748	0.510815309	0.006802638	0.070181558	0.021630638
2019-08-04T16:00:00	0.1930	15.506	11.3	0.441769283	0.518731410	0.006958221	0.071786680	0.022125352
2019-08-04T16:05:00	0.1929	15.516	10.6	0.441422993	0.518268511	0.006948378	0.071685134	0.022094055
2019-08-04T16:10:00	0.1937	15.520	10.4	0.444220429	0.522010640	0.007028085	0.072507459	0.022347503
2019-08-04T16:15:00	0.1933	15.515	10.0	0.442826691	0.520145470	0.006988318	0.072097188	0.022221054
2019-08-04T16:20:00	0.1941	15.509	9.6	0.445622954	0.523889112	0.007068214	0.072921465	0.022475104
2019-08-04T16:25:00	0.1931	15.485	9.5	0.442134294	0.519219436	0.006968603	0.071893791	0.022158365
2019-08-04T16:30:00	0.1913	15.480	9.2	0.437010489	0.510831954	0.006802960	0.070184887	0.021631664
2019-08-04T16:35:00	0.1931	15.461	8.9	0.442140546	0.519227796	0.006968781	0.071895627	0.022158930
2019-08-04T16:40:00	0.1923	15.469	8.8	0.439734692	0.515497300	0.006893591	0.071119909	0.021919847
2019-08-04T16:45:00	0.1910	15.470	8.4	0.436201133	0.509449884	0.006776175	0.069908552	0.021546495
2019-08-04T16:50:00	0.1912	15.468	8.2	0.436748054	0.510383615	0.006794268	0.070095212	0.021604025
2019-08-04T16:55:00	0.1911	15.488	8.0	0.436478270	0.509922921	0.006785340	0.070003099	0.021575635
2019-08-04T17:00:00	0.1903	15.461	7.9	0.434301350	0.506212966	0.006713557	0.069262532	0.021347385
2019-08-04T17:05:00	0.1904	15.446	7.8	0.434576364	0.506680922	0.006722600	0.069355823	0.021376138
2019-08-04T17:10:00	0.1906	15.424	7.6	0.435123818	0.507613081	0.006740623	0.069541762	0.021433446
2019-08-04T17:15:00	0.1922	15.411	7.4	0.439479979	0.515060209	0.006885086	0.071032163	0.021892803
2019-08-04T17:20:00	0.1886	15.388	7.3	0.429397091	0.497903417	0.006553548	0.067611746	0.020838597
2019-08-04T17:25:00	0.1890	15.374	7.2	0.430492803	0.499754133	0.006589093	0.067978457	0.020951621
2019-08-04T17:30:00	0.1887	15.355	7.2	0.429675368	0.498373125	0.006562564	0.067704765	0.020867266
2019-08-04T17:35:00	0.1898	15.336	7.1	0.432682047	0.503461887	0.006660464	0.068714780	0.021178563
2019-08-04T17:40:00	0.1883	15.322	7.1	0.428586454	0.496536357	0.006527326	0.067341222	0.020755219
2019-08-04T17:45:00	0.1888	15.293	6.9	0.429956043	0.498847100	0.006571666	0.067798664	0.020896207
2019-08-04T17:50:00	0.1895	15.256	6.9	0.431870580	0.502086012	0.006633955	0.068441289	0.021094270
2019-08-04T17:55:00	0.1890	15.217	7.4	0.430507471	0.499778931	0.006589570	0.067983374	0.020953136
2019-08-04T18:00:00	0.1889	15.186	7.9	0.430236670	0.499321213	0.006580773	0.067892627	0.020925167
2019-08-04T18:05:00	0.1895	15.158	8.1	0.431877908	0.502098429	0.006634194	0.068443756	0.021095030
2019-08-04T18:10:00	0.1894	15.133	8.2	0.431607332	0.501640058	0.006625369	0.068352709	0.021066969
2019-08-04T18:15:00	0.1894	15.101	8.4	0.431609775	0.501644196	0.006625448	0.068353531	0.021067222
2019-08-04T18:20:00	0.1890	15.076	8.7	0.430519695	0.499799597	0.006589967	0.067987472	0.020954399
2019-08-04T18:25:00	0.1906	15.050	8.9	0.434887908	0.507211290	0.006732853	0.069461599	0.021408740
2019-08-04T18:30:00	0.1918	15.012	9.1	0.438157161	0.512793162	0.006841019	0.070577534	0.021752681
2019-08-04T18:35:00	0.1925	14.979	9.2	0.440062292	0.516059729	0.006904539	0.071232861	0.021954660
2019-08-04T18:40:00	0.1949	14.949	9.3	0.448152410	0.527280849	0.007140870	0.073671040	0.022706130
2019-08-04T18:45:00	0.1926	14.922	9.5	0.440338790	0.516534662	0.006913788	0.071328279	0.021984068
2019-08-04T18:50:00	0.1935	14.892	9.7	0.443272836	0.520742357	0.007001036	0.072228395	0.022261493
2019-08-04T18:55:00	0.1935	14.855	9.9	0.443275961	0.520746539	0.007001125	0.072229314	0.022261776
2019-08-04T19:00:00	0.1931	14.824	10.0	0.441881830	0.518881876	0.006961421	0.071819698	0.022135529
2019-08-04T19:05:00	0.1946	14.799	10.4	0.447121654	0.525898106	0.007111219	0.073365135	0.022611847
2019-08-04T19:10:00	0.1943	14.761	10.4	0.446078092	0.524499034	0.007081261	0.073056064	0.022516588
2019-08-04T19:15:00	0.1938	14.716	10.3	0.444336017	0.522165394	0.007031388	0.072541535	0.022358006
2019-08-04T19:20:00	0.1942	14.663	10.9	0.445735371	0.524039744	0.007071436	0.072954699	0.022485347
2019-08-04T19:25:00	0.1948	14.638	11.6	0.447831745	0.526850592	0.007131639	0.073575807	0.022676778
2019-08-04T19:30:00	0.1951	14.608	12.2	0.448881000	0.528258747	0.007161865	0.073887645	0.022772890
2019-08-04T19:35:00	0.1972	14.576	13.4	0.456197932	0.538102568	0.007374387	0.076080189	0.023448653
2019-08-04T19:40:00	0.1964	14.518	13.9	0.453416713	0.534355885	0.007293247	0.075243085	0.023190649
2019-08-04T19:45:00	0.1963	14.472	15.1	0.453071624	0.533891430	0.007283210	0.075139535	0.023158734
2019-08-04T19:50:00	0.1969	14.444	15.4	0.455163418	0.536708224	0.007344154	0.075768286	0.023352522
2019-08-04T19:55:00	0.1959	14.404	15.8	0.451684683	0.532025688	0.007242939	0.074724065	0.023030683
2019-08-04T20:00:00	0.1961	14.368	17.3	0.452384458	0.532966850	0.007263244	0.074933548	0.023095247
2019-08-04T20:05:00	0.1950	14.328	18.2	0.448554165	0.527820025	0.007152443	0.073790441	0.022742930
2019-08-04T20:10:00	0.1945	14.286	18.7	0.446813378	0.525484719	0.007102363	0.073273766	0.022583686
2019-08-04T20:15:00	0.1966	14.251	19.5	0.454134816	0.535322684	0.007314155	0.075458788	0.023257131
2019-08-04T20:20:00	0.1961	14.215	20.7	0.452396924	0.532983620	0.007263606	0.074937282	0.023096398
2019-08-04T20:25:00	0.1968	14.182	21.6	0.454837195	0.536268706	0.007334633	0.075670061	0.023322248
2019-08-04T20:30:00	0.1977	14.174	23.5	0.457971194	0.540494584	0.007426350	0.076616287	0.023613884
2019-08-04T20:35:00	0.1988	14.153	25.6	0.461796982	0.545663793	0.007539071	0.077779207	0.023972307
2019-08-04T20:40:00	0.1965	14.106	30.9	0.453802262	0.534874909	0.007304469	0.075358858	0.023226332
2019-08-04T20:45:00	0.1970	14.056	34.4	0.455545654	0.537223313	0.007355318	0.075883456	0.023388018
2019-08-04T20:50:00	0.1976	14.036	35.4	0.457635908	0.540042114	0.007416511	0.076514781	0.023582598
2019-08-04T20:55:00	0.1980	14.004	36.9	0.459029725	0.541923659	0.007457455	0.076937186	0.023712788
2019-08-04T21:00:00	0.2002	13.980	39.1	0.466671455	0.552266718	0.007683899	0.079273374	0.024432824
2019-08-04T21:05:00	0.1993	13.941	40.5	0.463551766	0.548038640	0.007591052	0.078315487	0.024137594
2019-08-04T21:10:00	0.1992	13.908	41.9	0.463207716	0.547572826	0.007580847	0.078210199	0.024105143
2019-08-04T21:15:00	0.1982	13.875	45.4	0.459737301	0.542879419	0.007478282	0.077152058	0.023779014
2019-08-04T21:20:00	0.1978	13.841	46.4	0.458349999	0.541005890	0.007437474	0.076731048	0.023649254
2019-08-04T21:25:00	0.1986	13.811	50.8	0.461133357	0.544766306	0.007519459	0.077576868	0.023909944
2019-08-04T21:30:00	0.1995	13.786	53.0	0.464261497	0.548999853	0.007612126	0.078532903	0.024204603
2019-08-04T21:35:00	0.1979	13.737	56.5	0.458706988	0.541487852	0.007447964	0.076839276	0.023682611
2019-08-04T21:40:00	0.2011	13.718	59.8	0.469816164	0.556536517	0.007778054	0.080244747	0.024732210
2019-08-04T21:45:00	0.1993	13.692	62.0	0.463576614	0.548072287	0.007591790	0.078323094	0.024139938
2019-08-04T21:50:00	0.1995	13.672	65.2	0.464273919	0.549016679	0.007612495	0.078536711	0.024205777
2019-08-04T21:55:00	0.2008	13.655	79.6	0.468785828	0.555136690	0.007747143	0.079925843	0.024633921
2019-08-04T22:00:00	0.1993	13.621	91.8	0.463585933	0.548084904	0.007592066	0.078325947	0.024140817
2019-08-04T22:05:00	0.2001	13.595	102.9	0.466306549	0.551771767	0.007673011	0.079161035	0.024398200
2019-08-04T22:10:00	0.2013	13.578	103.9	0.470410986	0.557345033	0.007795927	0.080429139	0.024789042
2019-08-04T22:15:00	0.2018	13.540	105.9	0.472087485	0.559625339	0.007846410	0.080949967	0.024949566
2019-08-04T22:20:00	0.2005	13.519	107.8	0.467874512	0.553899269	0.007719853	0.079644299	0.024547147
2019-08-04T22:25:00	0.2011	13.489	109.7	0.469898774	0.556648788	0.007780535	0.080270343	0.024740099
2019-08-04T22:30:00	0.2003	13.449	112.0	0.467070453	0.552808032	0.007695814	0.079396298	0.024470710
2019-08-04T22:35:00	0.2020	13.433	116.1	0.472905289	0.560738493	0.007871094	0.081204631	0.025028056
2019-08-04T22:40:00	0.2012	13.393	123.0	0.470079487	0.556894406	0.007785964	0.080326350	0.024757361
2019-08-04T22:45:00	0.2018	13.390	125.7	0.472102427	0.559645673	0.007846861	0.080954616	0.024950999
2019-08-04T22:50:00	0.2024	13.370	127.9	0.474470191	0.562870043	0.007918436	0.081693042	0.025178589
2019-08-04T22:55:00	0.2023	13.352	128.9	0.474068970	0.562323355	0.007906285	0.081567682	0.025139952
2019-08-04T23:00:00	0.2027	13.310	129.9	0.475397751	0.564134391	0.007946562	0.081983220	0.025268025
2019-08-04T23:05:00	0.2189	13.451	213.6	0.530926481	0.641082199	0.009720650	0.100286149	0.030909165
2019-08-04T23:10:00	0.2215	13.535	213.6	0.539709926	0.653482206	0.010017654	0.103350286	0.031853562
2019-08-04T23:15:00	0.2201	13.517	213.3	0.534899750	0.646683658	0.009854444	0.101666482	0.031334597
2019-08-04T23:20:00	0.2211	13.497	213.1	0.538583032	0.651887796	0.009979297	0.102954565	0.031731597
2019-08-04T23:25:00	0.2205	13.470	212.9	0.536490711	0.648930181	0.009908276	0.102221855	0.031505768
2019-08-04T23:30:00	0.2207	13.450	212.7	0.537116054	0.649813765	0.009929475	0.102440567	0.031573178
2019-08-04T23:35:00	0.2207	13.426	212.6	0.537061875	0.649737200	0.009927638	0.102421609	0.031567335
2019-08-04T23:40:00	0.2214	13.408	212.5	0.539385082	0.653022487	0.010006589	0.103236135	0.031818379
2019-08-04T23:45:00	0.2225	13.390	212.4	0.543063594	0.658233354	0.010132244	0.104532497	0.032217931
2019-08-04T23:50:00	0.2211	13.371	212.4	0.538597686	0.651908523	0.009979795	0.102959706	0.031733181
2019-08-04T23:55:00	0.2206	13.350	212.1	0.536845150	0.649430950	0.009920289	0.102345790	0.031543966
2019-08-05T00:00:00	0.2221	13.326	212.0	0.541883687	0.656560730	0.010091853	0.104115790	0.032089498
2019-08-05T00:05:00	0.2214	13.312	211.8	0.539453876	0.653119837	0.010008932	0.103260304	0.031825828
2019-08-05T00:10:00	0.2212	13.291	211.8	0.538720649	0.652082451	0.009983977	0.103002850	0.031746479
2019-08-05T00:15:00	0.2233	13.269	211.6	0.545790352	0.662103140	0.010225900	0.105498721	0.032515730
2019-08-05T00:20:00	0.2215	13.249	211.7	0.539630948	0.653370429	0.010014963	0.103322527	0.031845006
2019-08-05T00:25:00	0.2224	13.238	211.6	0.542970057	0.658100715	0.010129039	0.104499432	0.032207740
2019-08-05T00:30:00	0.2233	13.219	211.5	0.545967100	0.662354190	0.010231985	0.105561507	0.032535082
2019-08-05T00:35:00	0.2242	13.204	197.8	0.548961556	0.666611340	0.010335368	0.106628090	0.032863813
2019-08-05T00:40:00	0.2212	13.184	211.3	0.538735303	0.652103179	0.009984475	0.103007992	0.031748063
2019-08-05T00:45:00	0.2233	13.166	211.1	0.545804976	0.662123911	0.010226403	0.105503915	0.032517331
2019-08-05T00:50:00	0.2214	13.153	211.0	0.539306097	0.652910720	0.010003900	0.103208389	0.031809828
2019-08-05T00:55:00	0.2227	13.131	210.9	0.544002014	0.659564464	0.010164427	0.104864518	0.032320263
2019-08-05T01:00:00	0.2206	13.118	210.8	0.536820291	0.649395823	0.009919446	0.102337095	0.031541287
2019-08-05T01:05:00	0.2222	13.097	210.7	0.542198115	0.657006348	0.010102609	0.104226754	0.032123698
2019-08-05T01:10:00	0.2210	13.085	210.6	0.538070745	0.651163319	0.009961884	0.102774923	0.031676229
2019-08-05T01:15:00	0.2218	13.073	210.6	0.540732670	0.654930155	0.010052530	0.103710097	0.031964459
2019-08-05T01:20:00	0.2211	13.055	210.5	0.538302049	0.651490403	0.009969744	0.102856014	0.031701222
2019-08-05T01:25:00	0.2212	13.041	210.4	0.538927065	0.652374449	0.009990999	0.103075295	0.031768807
2019-08-05T01:30:00	0.2215	13.027	210.2	0.539891445	0.653739129	0.010023839	0.103414100	0.031873230
2019-08-05T01:35:00	0.2214	13.014	210.2	0.539497827	0.653182034	0.010010429	0.103275747	0.031830588
2019-08-05T01:40:00	0.2219	12.997	210.1	0.541140791	0.655508190	0.010066464	0.103853854	0.032008766
2019-08-05T01:45:00	0.2213	12.982	210.0	0.539050017	0.652548393	0.009995183	0.103118459	0.031782110
2019-08-05T01:50:00	0.2215	12.976	210.0	0.539674898	0.653432630	0.010016460	0.103337974	0.031849767
2019-08-05T01:55:00	0.2202	12.960	209.9	0.535204610	0.647113977	0.009864748	0.101772784	0.031367361
2019-08-05T02:00:00	0.2205	12.950	209.8	0.536509838	0.648957202	0.009908924	0.102228541	0.031507829
2019-08-05T02:05:00	0.2200	12.937	209.8	0.534756243	0.646481120	0.009849596	0.101616461	0.031319180
2019-08-05T02:10:00	0.2189	12.928	209.7	0.530960327	0.641129860	0.009721785	0.100297867	0.030912777
2019-08-05T02:15:00	0.2196	12.915	209.6	0.533287640	0.644409376	0.009800047	0.101105281	0.031161630
2019-08-05T02:20:00	0.2195	12.905	209.6	0.532893269	0.643853341	0.009786763	0.100968233	0.031119390
2019-08-05T02:25:00	0.2194	12.893	209.5	0.532498853	0.643297368	0.009773487	0.100831262	0.031077174
2019-08-05T02:30:00	0.2189	12.884	209.5	0.531083562	0.641303405	0.009725922	0.100340539	0.030925929
2019-08-05T02:35:00	0.2195	12.873	209.4	0.533070678	0.644103459	0.009792738	0.101029873	0.031138388
2019-08-05T02:40:00	0.2189	12.863	209.4	0.530975013	0.641150541	0.009722278	0.100302952	0.030914344
2019-08-05T02:45:00	0.2180	12.850	209.2	0.527856290	0.636762690	0.009617895	0.099226054	0.030582434
2019-08-05T02:50:00	0.2192	12.839	209.2	0.531887355	0.642435647	0.009752921	0.100619090	0.031011781
2019-08-05T02:55:00	0.2207	12.831	209.1	0.536933119	0.649555253	0.009923271	0.102376562	0.031553451
2019-08-05T03:00:00	0.2199	12.819	209.0	0.534499825	0.646119268	0.009840935	0.101527116	0.031291643
2019-08-05T03:05:00	0.2197	12.810	209.1	0.533765547	0.645083363	0.009816157	0.101271485	0.031212855
2019-08-05T03:10:00	0.2207	12.791	208.9	0.537110321	0.649805663	0.009929281	0.102438561	0.031572559
2019-08-05T03:15:00	0.2208	12.785	208.8	0.537395864	0.650209227	0.009938969	0.102538506	0.031603363
2019-08-05T03:20:00	0.2201	12.776	208.8	0.534962896	0.646772784	0.009856578	0.101688496	0.031341382
2019-08-05T03:25:00	0.2203	12.764	208.7	0.535588516	0.647655979	0.009877731	0.101906729	0.031408644
2019-08-05T03:30:00	0.2199	12.752	208.7	0.534514497	0.646139971	0.009841431	0.101532227	0.031293218
2019-08-05T03:35:00	0.2217	12.744	208.7	0.540574759	0.654706536	0.010047141	0.103654501	0.031947324
2019-08-05T03:40:00	0.2203	12.731	195.1	0.535765786	0.647906292	0.009883729	0.101968609	0.031427716
2019-08-05T03:45:00	0.2208	12.718	208.5	0.537410523	0.650229948	0.009939466	0.102543639	0.031604945
2019-08-05T03:50:00	0.2213	12.708	208.4	0.539054478	0.652554705	0.009995335	0.103120025	0.031782593
2019-08-05T03:55:00	0.2228	12.693	194.9	0.544089802	0.659689024	0.010167440	0.104895606	0.032329844
2019-08-05T04:00:00	0.2239	12.685	208.2	0.547763325	0.664906959	0.010293937	0.106200646	0.032732070
2019-08-05T04:05:00	0.2229	12.675	194.8	0.544416701	0.660152908	0.010178665	0.105011407	0.032365536
2019-08-05T04:10:00	0.2224	12.665	194.8	0.542763152	0.657807342	0.010121952	0.104426310	0.032185203
2019-08-05T04:15:00	0.2234	12.653	194.7	0.546195191	0.662678203	0.010239842	0.105642559	0.032560063
2019-08-05T04:20:00	0.2215	12.647	194.7	0.539793170	0.653600027	0.010020490	0.103379548	0.031862581
2019-08-05T04:25:00	0.2223	12.640	194.6	0.542549819	0.657504891	0.010114647	0.104350944	0.032161974
2019-08-05T04:30:00	0.2225	12.635	194.6	0.543270097	0.658526208	0.010139322	0.104605514	0.032240435
2019-08-05T04:35:00	0.2224	12.634	194.6	0.542972899	0.658104746	0.010129137	0.104500436	0.032208049
2019-08-05T04:40:00	0.2222	12.629	194.6	0.541997235	0.656721645	0.010095737	0.104155855	0.032101846
2019-08-05T04:45:00	0.2218	12.628	194.5	0.540681930	0.654858299	0.010050798	0.103692231	0.031958953
2019-08-05T04:50:00	0.2203	12.629	194.5	0.535629476	0.647713814	0.009879117	0.101921025	0.031413050
2019-08-05T04:55:00	0.2201	12.621	194.5	0.534991696	0.646813435	0.009857551	0.101698537	0.031344477
2019-08-05T05:00:00	0.2216	12.621	194.5	0.540129048	0.654075474	0.010031939	0.103497660	0.031898984
2019-08-05T05:05:00	0.2197	12.625	194.5	0.533715784	0.645013173	0.009814479	0.101254172	0.031207519
2019-08-05T05:10:00	0.2219	12.624	194.5	0.541231149	0.655636186	0.010069550	0.103885695	0.032018580
2019-08-05T05:15:00	0.2215	12.628	194.5	0.539915552	0.653773253	0.010024661	0.103422576	0.031875842
2019-08-05T05:20:00	0.2217	12.635	207.9	0.540296975	0.654313215	0.010037665	0.103556738	0.031917192
2019-08-05T05:25:00	0.2225	12.639	194.5	0.543053222	0.658218647	0.010131889	0.104528830	0.032216801
2019-08-05T05:30:00	0.2227	12.652	194.6	0.543773396	0.659240112	0.010156582	0.104783582	0.032295318
2019-08-05T05:35:00	0.2216	12.663	194.7	0.540083489	0.654010979	0.010030385	0.103481636	0.031894045
2019-08-05T05:40:00	0.2218	12.678	194.7	0.540804281	0.655031570	0.010054974	0.103735314	0.031972231
2019-08-05T05:45:00	0.2211	12.695	207.9	0.538469872	0.651727747	0.009975449	0.102914870	0.031719362
2019-08-05T05:50:00	0.2220	12.707	208.2	0.541566887	0.656111831	0.010081022	0.104004050	0.032055058
2019-08-05T05:55:00	0.2217	12.723	194.9	0.540590827	0.654729290	0.010047689	0.103660157	0.031949067
2019-08-05T06:00:00	0.2219	12.735	194.9	0.541311512	0.655750030	0.010072296	0.103914019	0.032027310
2019-08-05T06:05:00	0.2197	12.749	208.4	0.533540372	0.644765778	0.009808565	0.101193158	0.031188714
2019-08-05T06:10:00	0.2196	12.766	208.4	0.533242338	0.644345497	0.009798521	0.101089533	0.031156776
2019-08-05T06:15:00	0.2215	12.783	208.6	0.539740455	0.653525416	0.010018694	0.103361017	0.031856869
2019-08-05T06:20:00	0.2192	12.796	208.6	0.531965778	0.642546143	0.009755557	0.100646288	0.031020163
2019-08-05T06:25:00	0.2203	12.813	208.7	0.535748425	0.647881777	0.009883141	0.101962548	0.031425847
2019-08-05T06:30:00	0.2195	12.837	208.8	0.533070485	0.644103188	0.009792732	0.101029806	0.031138367
2019-08-05T06:35:00	0.2196	12.865	208.9	0.533452663	0.644642086	0.009805609	0.101162657	0.031179313
2019-08-05T06:40:00	0.2198	12.898	209.1	0.534174838	0.645660728	0.009829965	0.101413935	0.031256760
2019-08-05T06:45:00	0.2209	12.922	209.3	0.537615401	0.650519551	0.009946420	0.102615382	0.031627057
2019-08-05T06:50:00	0.2185	12.943	209.4	0.529495467	0.639067924	0.009672688	0.099791334	0.030756658
2019-08-05T06:55:00	0.2176	12.960	209.4	0.526471900	0.634817474	0.009571742	0.098749896	0.030435677
2019-08-05T07:00:00	0.2176	12.986	209.6	0.526514049	0.634876675	0.009573145	0.098764376	0.030440140
2019-08-05T07:05:00	0.2183	13.019	209.8	0.528940791	0.638287619	0.009654129	0.099599870	0.030697647
2019-08-05T07:10:00	0.2177	13.062	209.9	0.526939098	0.635473764	0.009587305	0.098910460	0.030485164
2019-08-05T07:15:00	0.2155	13.098	210.1	0.519476956	0.625012632	0.009340246	0.096361592	0.029699578
2019-08-05T07:20:00	0.2159	13.135	210.3	0.520884808	0.626982834	0.009386610	0.096839920	0.029847004
2019-08-05T07:25:00	0.2163	13.166	210.5	0.521950870	0.628475790	0.009421794	0.097202913	0.029958882
2019-08-05T07:30:00	0.2164	13.200	210.6	0.522334284	0.629012964	0.009434465	0.097333632	0.029999171
2019-08-05T07:35:00	0.2159	13.272	211.2	0.520670118	0.626682284	0.009379532	0.096766901	0.029824499
2019-08-05T07:40:00	0.2156	13.312	211.3	0.519688124	0.625308047	0.009347193	0.096433262	0.029721668
2019-08-05T07:45:00	0.2156	13.360	211.5	0.519730356	0.625367132	0.009348582	0.096447599	0.029726087
2019-08-05T07:50:00	0.2164	13.413	211.9	0.522503079	0.629249488	0.009440045	0.097391208	0.030016916
2019-08-05T07:55:00	0.2157	13.436	211.8	0.520156245	0.625963054	0.009362602	0.096592237	0.029770666
2019-08-05T08:00:00	0.2165	13.461	212.0	0.522928624	0.629845887	0.009454122	0.097536437	0.030061677
2019-08-05T08:05:00	0.2143	13.506	212.2	0.515115867	0.618919751	0.009197355	0.094887413	0.029245222
2019-08-05T08:10:00	0.2152	13.554	212.5	0.518233934	0.623274435	0.009299406	0.095940252	0.029569718
2019-08-05T08:15:00	0.2150	13.602	199.0	0.517592924	0.622378560	0.009278380	0.095723335	0.029502862
2019-08-05T08:20:00	0.2146	13.664	213.0	0.516268271	0.620528279	0.009235006	0.095275853	0.029364943
2019-08-05T08:25:00	0.2150	13.689	213.1	0.517677439	0.622496659	0.009281151	0.095751921	0.029511672
2019-08-05T08:30:00	0.2141	13.726	213.4	0.514643457	0.618260670	0.009181942	0.094728407	0.029196215
2019-08-05T08:35:00	0.2136	13.743	213.4	0.512975557	0.615935153	0.009127631	0.094168088	0.029023519
2019-08-05T08:40:00	0.2158	13.776	199.8	0.520536263	0.626494917	0.009375120	0.096721389	0.029810471
2019-08-05T08:45:00	0.2163	13.824	200.1	0.521943681	0.628465719	0.009421557	0.097200463	0.029958127
2019-08-05T08:50:00	0.2151	13.875	214.0	0.517888718	0.622791920	0.009288079	0.095823401	0.029533703
2019-08-05T08:55:00	0.2160	13.931	214.3	0.521004268	0.627150084	0.009390549	0.096880562	0.029859530
2019-08-05T09:00:00	0.2169	13.969	214.6	0.524116997	0.631512162	0.009493489	0.097942577	0.030186853
2019-08-05T09:05:00	0.2175	14.007	214.8	0.526204636	0.634442120	0.009562845	0.098658104	0.030407386
2019-08-05T09:10:00	0.2154	14.046	214.9	0.519082431	0.624460808	0.009327274	0.096227762	0.029658331
2019-08-05T09:15:00	0.2156	14.108	215.2	0.519807626	0.625475240	0.009351125	0.096473833	0.029734172
2019-08-05T09:20:00	0.2137	14.165	215.6	0.513356371	0.616465916	0.009140017	0.094295873	0.029062904
2019-08-05T09:25:00	0.2136	14.207	216.1	0.512714449	0.615571300	0.009119143	0.094080521	0.028996530
2019-08-05T09:30:00	0.2140	14.250	216.0	0.514125078	0.617537665	0.009165045	0.094554083	0.029142487
2019-08-05T09:35:00	0.2124	14.339	216.6	0.508690922	0.609971480	0.008988851	0.092736315	0.028582233
2019-08-05T09:40:00	0.2130	14.416	216.9	0.510787962	0.612888443	0.009056641	0.093435701	0.028797790
2019-08-05T09:45:00	0.2135	14.639	219.0	0.512541568	0.615330420	0.009113526	0.094022565	0.028978668
2019-08-05T09:50:00	0.2115	14.620	218.0	0.505733776	0.605864148	0.008893688	0.091754535	0.028279639
2019-08-05T09:55:00	0.2107	14.503	217.5	0.503032323	0.602118121	0.008807195	0.090862205	0.028004614
2019-08-05T10:00:00	0.2087	14.522	217.5	0.496205538	0.592677785	0.008590498	0.088626589	0.027315575
2019-08-05T10:05:00	0.2086	14.551	217.6	0.495855560	0.592194832	0.008579462	0.088512726	0.027280482
2019-08-05T10:10:00	0.2070	14.607	217.9	0.490343462	0.584601351	0.008406568	0.086729009	0.026730723
2019-08-05T10:15:00	0.2070	14.671	218.3	0.490337299	0.584592874	0.008406375	0.086727025	0.026730111
2019-08-05T10:20:00	0.2077	14.741	218.5	0.492741091	0.587901338	0.008481558	0.087502665	0.026969171
2019-08-05T10:25:00	0.2082	14.791	218.7	0.494455288	0.590263505	0.008535375	0.088057887	0.027140296
2019-08-05T10:30:00	0.2059	14.818	218.9	0.486528267	0.579359782	0.008287923	0.085504973	0.026353463
2019-08-05T10:35:00	0.2053	14.854	219.2	0.484452740	0.576513175	0.008223730	0.084842702	0.026149345
2019-08-05T10:40:00	0.2059	14.852	219.3	0.486515927	0.579342847	0.008287541	0.085501028	0.026352247
2019-08-05T10:45:00	0.2054	14.886	219.5	0.484785374	0.576969154	0.008234001	0.084948669	0.026182005
2019-08-05T10:50:00	0.2077	14.893	219.6	0.492704138	0.587850442	0.008480399	0.087490715	0.026965488
2019-08-05T10:55:00	0.2057	14.903	219.8	0.485807766	0.578371217	0.008265611	0.085274782	0.026282516
2019-08-05T11:00:00	0.2052	14.890	219.7	0.484076851	0.575998008	0.008212130	0.084723035	0.026112462
2019-08-05T11:05:00	0.2056	14.920	219.8	0.485450543	0.577881243	0.008254559	0.085160768	0.026247376
2019-08-05T11:10:00	0.2038	14.913	219.8	0.479230532	0.569366082	0.008063307	0.083187657	0.025639244
2019-08-05T11:15:00	0.2066	14.911	219.7	0.488885427	0.582596830	0.008361127	0.086260206	0.026586233
2019-08-05T11:20:00	0.2081	14.909	219.8	0.494043565	0.589695935	0.008522433	0.087924372	0.027099145
2019-08-05T11:25:00	0.2107	14.911	219.8	0.502970375	0.602032289	0.008805216	0.090841794	0.027998323
2019-08-05T11:30:00	0.2115	14.880	219.5	0.505708147	0.605828581	0.008892865	0.091746049	0.028277023
2019-08-05T11:35:00	0.2111	14.872	219.1	0.504330328	0.603917294	0.008848701	0.091290412	0.028136592
2019-08-05T11:40:00	0.2120	14.853	218.9	0.507409709	0.608191072	0.008947558	0.092310308	0.028450933
2019-08-05T11:45:00	0.2133	14.830	218.6	0.511855537	0.614374794	0.009091251	0.093792758	0.028907839
2019-08-05T11:50:00	0.2129	14.819	218.5	0.510480192	0.612460117	0.009046676	0.093332892	0.028766104
2019-08-05T11:55:00	0.2123	14.818	218.8	0.508419205	0.609593784	0.008980085	0.092645886	0.028554362
2019-08-05T12:00:00	0.2138	14.832	219.0	0.513547925	0.616732940	0.009146251	0.094360183	0.029082725
2019-08-05T12:05:00	0.2130	14.846	219.2	0.510804169	0.612911002	0.009057166	0.093441116	0.028799460
2019-08-05T12:10:00	0.2166	14.864	219.3	0.523100249	0.630086460	0.009459803	0.097595039	0.030079739
2019-08-05T12:15:00	0.2158	14.874	219.4	0.520364123	0.626253980	0.009369449	0.096662875	0.029792437
2019-08-05T12:20:00	0.2161	14.869	219.4	0.521382028	0.627679045	0.009403012	0.097009138	0.029899159
2019-08-05T12:25:00	0.2159	14.879	219.5	0.520693277	0.626714703	0.009380295	0.096774776	0.029826926
2019-08-05T12:30:00	0.2163	14.884	219.6	0.522052322	0.628617915	0.009425146	0.097237493	0.029969540
2019-08-05T12:35:00	0.2159	14.900	219.8	0.520681060	0.626697601	0.009379892	0.096770622	0.029825645
2019-08-05T12:40:00	0.2156	14.901	219.8	0.519650726	0.625255726	0.009345962	0.096420567	0.029717755
2019-08-05T12:45:00	0.2152	14.910	219.8	0.518278505	0.623336740	0.009300868	0.095955345	0.029574369
2019-08-05T12:50:00	0.2142	14.888	219.8	0.514854729	0.618555403	0.009188834	0.094799502	0.029218127
2019-08-05T12:55:00	0.2154	14.867	219.7	0.518949404	0.624274770	0.009322902	0.096182658	0.029644429
2019-08-05T13:00:00	0.2155	14.858	219.8	0.519284805	0.624743853	0.009333927	0.096296399	0.029679485
2019-08-05T13:05:00	0.2162	14.872	219.8	0.521668335	0.628080027	0.009412463	0.097106644	0.029929211
2019-08-05T13:10:00	0.2155	14.878	219.8	0.519272583	0.624726758	0.009333525	0.096292253	0.029678208
2019-08-05T13:15:00	0.2160	14.888	219.8	0.520973534	0.627107053	0.009389535	0.096870105	0.029856307
2019-08-05T13:20:00	0.2160	14.899	219.9	0.520967425	0.627098501	0.009389334	0.096868027	0.029855667
2019-08-05T13:25:00	0.2163	14.913	219.9	0.521985151	0.628523814	0.009422927	0.097214597	0.029962483
2019-08-05T13:30:00	0.2170	14.911	220.0	0.524366811	0.631862585	0.009501775	0.098028062	0.030213201
2019-08-05T13:35:00	0.2156	14.914	220.0	0.519583509	0.625161690	0.009343751	0.096397752	0.029710723
2019-08-05T13:40:00	0.2187	14.919	220.1	0.530146601	0.639984244	0.009694496	0.100016330	0.030826004
2019-08-05T13:45:00	0.2189	14.916	220.1	0.530821282	0.640934065	0.009717120	0.100249731	0.030897941
2019-08-05T13:50:00	0.2162	14.903	220.0	0.521613372	0.628003044	0.009410648	0.097087922	0.029923440
2019-08-05T13:55:00	0.2157	14.907	220.1	0.519900517	0.625605210	0.009354182	0.096505375	0.029743894
2019-08-05T14:00:00	0.2155	14.915	220.1	0.519211469	0.624641280	0.009331515	0.096271524	0.029671819
2019-08-05T14:05:00	0.2143	14.914	220.1	0.515104869	0.618904405	0.009196996	0.094883710	0.029244081
2019-08-05T14:10:00	0.2149	14.916	220.1	0.517149611	0.621759180	0.009263853	0.095573462	0.029456669
2019-08-05T14:15:00	0.2142	14.918	220.1	0.514750702	0.618410277	0.009185440	0.094764493	0.029207337
2019-08-05T14:20:00	0.2162	14.950	220.4	0.521576729	0.627951722	0.009409438	0.097075441	0.029919594
2019-08-05T14:25:00	0.2155	14.951	220.3	0.519522401	0.625076204	0.009341740	0.096377013	0.029704332
2019-08-05T14:30:00	0.2159	14.967	220.3	0.520881909	0.626978774	0.009386514	0.096838934	0.029846700
2019-08-05T14:35:00	0.2145	14.956	220.4	0.516093749	0.620284612	0.009229299	0.095216976	0.029346797
2019-08-05T14:40:00	0.2149	14.948	220.4	0.517454615	0.622185303	0.009273846	0.095676564	0.029488446
2019-08-05T14:45:00	0.2144	14.943	220.4	0.515739684	0.619790343	0.009217726	0.095097584	0.029309999
2019-08-05T14:50:00	0.2145	14.937	220.5	0.516075398	0.620258992	0.009228699	0.095210786	0.029344889
2019-08-05T14:55:00	0.2152	14.934	220.3	0.518461156	0.623592082	0.009306864	0.096017204	0.029593435
2019-08-05T15:00:00	0.2130	14.940	220.4	0.510932084	0.613089047	0.009061310	0.093483864	0.028812635
2019-08-05T15:05:00	0.2131	14.943	220.4	0.511268270	0.613557048	0.009072204	0.093596259	0.028847276
2019-08-05T15:10:00	0.2128	14.944	220.4	0.510235105	0.612119080	0.009038745	0.093251062	0.028740883
2019-08-05T15:15:00	0.2132	14.951	220.5	0.511598298	0.614016564	0.009082905	0.093706660	0.028881303
2019-08-05T15:20:00	0.2121	14.956	220.5	0.507825216	0.608768328	0.008960939	0.092448358	0.028493482
2019-08-05T15:25:00	0.2135	14.959	220.6	0.512612682	0.615429503	0.009115836	0.094046403	0.028986015
2019-08-05T15:30:00	0.2134	14.961	220.5	0.512264381	0.614944260	0.009104522	0.093929679	0.028950039
2019-08-05T15:35:00	0.2136	14.967	220.6	0.512942581	0.615889197	0.009126559	0.094157026	0.029020110
2019-08-05T15:40:00	0.2132	14.967	220.5	0.511567673	0.613973920	0.009081912	0.093696413	0.028878144
2019-08-05T15:45:00	0.2128	14.967	220.6	0.510192213	0.612059401	0.009037357	0.093236745	0.028736470
2019-08-05T15:50:00	0.2134	14.970	220.6	0.512239886	0.614910137	0.009103727	0.093921473	0.028947510
2019-08-05T15:55:00	0.2137	14.985	220.7	0.513260203	0.616331870	0.009136889	0.094263595	0.029052955
2019-08-05T16:00:00	0.2138	14.996	220.7	0.513596160	0.616800184	0.009147821	0.094376381	0.029087717
2019-08-05T16:05:00	0.2135	14.984	220.6	0.512521377	0.615302288	0.009112870	0.094015797	0.028976582
2019-08-05T16:10:00	0.2133	14.989	221.2	0.511788515	0.614281455	0.009089076	0.093770322	0.028900924
2019-08-05T16:15:00	0.2115	14.978	220.6	0.505574056	0.605642505	0.008888562	0.091701656	0.028263341
2019-08-05T16:20:00	0.2112	14.981	220.6	0.504496749	0.604148069	0.008854029	0.091345387	0.028153535
2019-08-05T16:25:00	0.2092	14.995	220.7	0.497925387	0.595052527	0.008644837	0.089187186	0.027488357
2019-08-05T16:30:00	0.2093	14.985	220.7	0.498220356	0.595460056	0.008654173	0.089283511	0.027518045
2019-08-05T16:35:00	0.2100	14.986	206.5	0.500576125	0.598717282	0.008728920	0.090054661	0.027755721
2019-08-05T16:40:00	0.2107	14.994	220.7	0.502930268	0.601976719	0.008803936	0.090828580	0.027994250
2019-08-05T16:45:00	0.2086	14.997	220.8	0.495668230	0.591936367	0.008573557	0.088451810	0.027261707
2019-08-05T16:50:00	0.2077	14.985	220.6	0.492523340	0.587601445	0.008474733	0.087432261	0.026947472
2019-08-05T16:55:00	0.2086	14.982	220.6	0.495570862	0.591802035	0.008570489	0.088420156	0.027251951
2019-08-05T17:00:00	0.2091	14.988	220.7	0.497584810	0.594582076	0.008634063	0.089076033	0.027454098
2019-08-05T17:05:00	0.2059	14.980	220.7	0.486520808	0.579349546	0.008287692	0.085502589	0.026352728
2019-08-05T17:10:00	0.2086	14.966	220.6	0.495768673	0.592074947	0.008576723	0.088484469	0.027271773
2019-08-05T17:15:00	0.2077	14.962	220.6	0.492623875	0.587739900	0.008477884	0.087464763	0.026957489
2019-08-05T17:20:00	0.2065	14.959	220.5	0.488442547	0.581988292	0.008347349	0.086118056	0.026542421
2019-08-05T17:25:00	0.2058	14.950	220.6	0.485980719	0.578608479	0.008270964	0.085330010	0.026299538
2019-08-05T17:30:00	0.2079	14.947	220.5	0.493165989	0.588486629	0.008494881	0.087640125	0.027011538
2019-08-05T17:35:00	0.2060	14.947	220.6	0.486917473	0.579893965	0.008299988	0.085629447	0.026391827
2019-08-05T17:40:00	0.2060	14.948	220.5	0.486868663	0.579826968	0.008298475	0.085613832	0.026387015
2019-08-05T17:45:00	0.2069	14.942	220.5	0.489921254	0.584020720	0.008393397	0.086593127	0.026688843
2019-08-05T17:50:00	0.2065	14.921	220.5	0.488494417	0.582059556	0.008348962	0.086134699	0.026547551
2019-08-05T17:55:00	0.2084	14.912	220.4	0.494986592	0.590996122	0.008552089	0.088230329	0.027193444
2019-08-05T18:00:00	0.2087	14.912	220.4	0.495969549	0.592352121	0.008583056	0.088549803	0.027291909
2019-08-05T18:05:00	0.2095	14.894	220.3	0.498670449	0.596082036	0.008668430	0.089430591	0.027563377
2019-08-05T18:10:00	0.2081	14.881	220.2	0.494152550	0.589846159	0.008525858	0.087959704	0.027110035
2019-08-05T18:15:00	0.2087	14.878	220.2	0.496167336	0.592625065	0.008589293	0.088614157	0.027311744
2019-08-05T18:20:00	0.2096	14.863	220.1	0.499211601	0.596830067	0.008685586	0.089607588	0.027617929
2019-08-05T18:25:00	0.2100	14.847	220.0	0.500536728	0.598662773	0.008727668	0.090041737	0.027751738
2019-08-05T18:30:00	0.2101	14.837	219.9	0.500831472	0.599070609	0.008737041	0.090138446	0.027781544
2019-08-05T18:35:00	0.2092	14.827	219.9	0.497691346	0.594729228	0.008637432	0.089110796	0.027464813
2019-08-05T18:40:00	0.2119	14.818	219.8	0.506908983	0.607495610	0.008931446	0.092144082	0.028399701
2019-08-05T18:45:00	0.2121	14.810	219.9	0.507888512	0.608856275	0.008962978	0.092469397	0.028499966
2019-08-05T18:50:00	0.2133	14.805	219.8	0.511949186	0.614505223	0.009094290	0.093824112	0.028917502
2019-08-05T18:55:00	0.2121	14.802	219.9	0.507791492	0.608721469	0.008959853	0.092437150	0.028490027
2019-08-05T19:00:00	0.2113	14.790	219.9	0.505000702	0.604847035	0.008870175	0.091511960	0.028204875
2019-08-05T19:05:00	0.2128	14.787	219.7	0.510092194	0.611920243	0.009034121	0.093203363	0.028726182
2019-08-05T19:10:00	0.2108	14.779	219.8	0.503188509	0.602334540	0.008812184	0.090913677	0.028020478
2019-08-05T19:15:00	0.2109	14.775	219.7	0.503483024	0.602742687	0.008821596	0.091010776	0.028050405
2019-08-05T19:20:00	0.2110	14.767	219.8	0.504120542	0.603626416	0.008841986	0.091221137	0.028115240
2019-08-05T19:25:00	0.2103	14.761	219.8	0.501670026	0.600231292	0.008763738	0.090413867	0.027866432
2019-08-05T19:30:00	0.2101	14.749	219.6	0.500934835	0.599213647	0.008740330	0.090172373	0.027792001
2019-08-05T19:35:00	0.2108	14.742	219.7	0.503288730	0.602473421	0.008815386	0.090946713	0.028030660
2019-08-05T19:40:00	0.2105	14.732	219.5	0.502210703	0.600979970	0.008780972	0.090591674	0.027921234
2019-08-05T19:45:00	0.2108	14.725	219.6	0.503191579	0.602338794	0.008812282	0.090914689	0.028020790
2019-08-05T19:50:00	0.2109	14.715	219.6	0.503486094	0.602746942	0.008821694	0.091011788	0.028050717
2019-08-05T19:55:00	0.2095	14.704	219.5	0.498974575	0.596502399	0.008678069	0.089530041	0.027594028
2019-08-05T20:00:00	0.2101	14.688	219.3	0.500986515	0.599285168	0.008741974	0.090189338	0.027797230
2019-08-05T20:05:00	0.2102	14.677	219.3	0.501281220	0.599693056	0.008751355	0.090286113	0.027827057
2019-08-05T20:10:00	0.2114	14.668	219.1	0.505349744	0.605331263	0.008881366	0.091627418	0.028240460
2019-08-05T20:15:00	0.2121	14.656	219.2	0.507700600	0.608595187	0.008956925	0.092406944	0.028480718
2019-08-05T20:20:00	0.2112	14.644	219.2	0.504566788	0.604245199	0.008856272	0.091368528	0.028160668
2019-08-05T20:25:00	0.2098	14.634	219.1	0.499713262	0.597523718	0.008701505	0.089771823	0.027668548
2019-08-05T20:30:00	0.2117	14.622	219.0	0.506526908	0.606965077	0.008919161	0.092017345	0.028360639
2019-08-05T20:35:00	0.2143	14.609	219.0	0.515378922	0.619286829	0.009205942	0.094976011	0.029272529
2019-08-05T20:40:00	0.2132	14.597	218.9	0.511567673	0.613973920	0.009081912	0.093696413	0.028878144
2019-08-05T20:45:00	0.2148	14.585	218.9	0.516991157	0.621537834	0.009258663	0.095519922	0.029440168
2019-08-05T20:50:00	0.2140	14.571	218.8	0.514207858	0.617653107	0.009167743	0.094581910	0.029151063
2019-08-05T20:55:00	0.2132	14.557	218.8	0.511422297	0.613771498	0.009077198	0.093647776	0.028863154
2019-08-05T21:00:00	0.2137	14.543	218.7	0.513084830	0.616087442	0.009131184	0.094204746	0.029034818
2019-08-05T21:05:00	0.2126	14.531	218.6	0.509271027	0.610778047	0.009007578	0.092929524	0.028641782
2019-08-05T21:10:00	0.2126	14.518	218.6	0.509565019	0.611186910	0.009017077	0.093027517	0.028671984
2019-08-05T21:15:00	0.2134	14.507	218.5	0.512255196	0.614931464	0.009104224	0.093926601	0.028949091
2019-08-05T21:20:00	0.2116	14.494	218.4	0.506041584	0.606291350	0.008903569	0.091856485	0.028311061
2019-08-05T21:25:00	0.2146	14.483	218.4	0.516262309	0.620519955	0.009234811	0.095273842	0.029364323
2019-08-05T21:30:00	0.2124	14.469	218.3	0.508686033	0.609964684	0.008988693	0.092734687	0.028581731
2019-08-05T21:35:00	0.2135	14.456	218.2	0.512403598	0.615138200	0.009109044	0.093976325	0.028964416
2019-08-05T21:40:00	0.2129	14.443	218.2	0.510301420	0.612211352	0.009040890	0.093273200	0.028747706
2019-08-05T21:45:00	0.2129	14.431	218.1	0.510595323	0.612620337	0.009050403	0.093371344	0.028777955
2019-08-05T21:50:00	0.2121	14.420	218.1	0.507806821	0.608742768	0.008960347	0.092442244	0.028491597
2019-08-05T21:55:00	0.2124	14.406	218.0	0.508786093	0.610103786	0.008991922	0.092767999	0.028591998
2019-08-05T22:00:00	0.2150	14.394	218.0	0.517632279	0.622433553	0.009279670	0.095736646	0.029506964
2019-08-05T22:05:00	0.2131	14.382	217.8	0.511040725	0.613240275	0.009064830	0.093520177	0.028823827
2019-08-05T22:10:00	0.2134	14.370	217.8	0.512315890	0.615016014	0.009106195	0.093946936	0.028955358
2019-08-05T22:15:00	0.2136	14.357	217.6	0.512906388	0.615838760	0.009125382	0.094144887	0.029016368
2019-08-05T22:20:00	0.2152	14.344	217.6	0.518282451	0.623342257	0.009300998	0.095956681	0.029574781
2019-08-05T22:25:00	0.2150	14.332	217.6	0.517505504	0.622256408	0.009275514	0.095693772	0.029493750
2019-08-05T22:30:00	0.2147	14.320	217.5	0.516728381	0.621170802	0.009250060	0.095431164	0.029412812
2019-08-05T22:35:00	0.2148	14.309	217.3	0.516976411	0.621517235	0.009258180	0.095514940	0.029438632
2019-08-05T22:40:00	0.2136	14.298	217.3	0.512779438	0.615661855	0.009121256	0.094102312	0.029003246
2019-08-05T22:45:00	0.2148	14.288	217.2	0.517130724	0.621732795	0.009263234	0.095567080	0.029454702
2019-08-05T22:50:00	0.2156	14.276	217.3	0.519769688	0.625422159	0.009349876	0.096460952	0.029730202
2019-08-05T22:55:00	0.2142	14.265	217.2	0.514892334	0.618607868	0.009190060	0.094812159	0.029222028
2019-08-05T23:00:00	0.2133	14.253	217.0	0.511719709	0.614185635	0.009086844	0.093747292	0.028893826
2019-08-05T23:05:00	0.2152	14.242	217.0	0.518464213	0.623596355	0.009306965	0.096018239	0.029593754
2019-08-05T23:10:00	0.2166	14.227	217.0	0.523149432	0.630155406	0.009461431	0.097611837	0.030084916
2019-08-05T23:15:00	0.2127	14.216	216.9	0.509726337	0.611411290	0.009022291	0.093081309	0.028688563
2019-08-05T23:20:00	0.2141	14.204	216.7	0.514423495	0.617953854	0.009174771	0.094654418	0.029173411
2019-08-05T23:25:00	0.2128	14.194	216.8	0.510223393	0.612102784	0.009038366	0.093247152	0.028739678
2019-08-05T23:30:00	0.2132	14.183	216.6	0.511498862	0.613878106	0.009079681	0.093673390	0.028871049
2019-08-05T23:35:00	0.2130	14.172	216.8	0.510720377	0.612794378	0.009054453	0.093413119	0.028790831
2019-08-05T23:40:00	0.2118	14.161	216.5	0.506858480	0.607425476	0.008929822	0.092127325	0.028394536
2019-08-05T23:45:00	0.2097	14.150	216.5	0.499559251	0.597310744	0.008696616	0.089721386	0.027653003
2019-08-05T23:50:00	0.2135	14.140	216.4	0.512492388	0.615261900	0.009111928	0.094006081	0.028973587
2019-08-05T23:55:00	0.2128	14.129	216.3	0.510002449	0.611795387	0.009031218	0.093173416	0.028716952
2019-08-06T00:00:00	0.2121	14.119	216.3	0.507853352	0.608807421	0.008961846	0.092457710	0.028496364
2019-08-06T00:05:00	0.2127	14.106	216.2	0.509814654	0.611534139	0.009025146	0.093110765	0.028697642
2019-08-06T00:10:00	0.2124	14.097	216.1	0.508693250	0.609974716	0.008988926	0.092737090	0.028582472
2019-08-06T00:15:00	0.2125	14.086	216.1	0.508941861	0.610320348	0.008996949	0.092819868	0.028607985
2019-08-06T00:20:00	0.2115	14.075	216.1	0.505763715	0.605905697	0.008894648	0.091764449	0.028282694
2019-08-06T00:25:00	0.2094	14.065	216.0	0.498462143	0.595794160	0.008661830	0.089362506	0.027542392
2019-08-06T00:30:00	0.2105	14.054	216.0	0.502145319	0.600889420	0.008778887	0.090570163	0.027914604
2019-08-06T00:35:00	0.2115	14.042	215.8	0.505824525	0.605990090	0.008896600	0.091784587	0.028288901
2019-08-06T00:40:00	0.2109	14.033	215.8	0.503672800	0.603005721	0.008827663	0.091073371	0.028069697
2019-08-06T00:45:00	0.2113	14.021	215.7	0.504950714	0.604777694	0.008868573	0.091495430	0.028199780
2019-08-06T00:50:00	0.2112	14.011	215.7	0.504513725	0.604171611	0.008854573	0.091350995	0.028155264
2019-08-06T00:55:00	0.2105	14.001	215.6	0.502361174	0.601188369	0.008785772	0.090641189	0.027936495
2019-08-06T01:00:00	0.2111	13.991	215.6	0.504325627	0.603910776	0.008848550	0.091288860	0.028136113
2019-08-06T01:05:00	0.2104	13.981	215.5	0.501829734	0.600452416	0.008768827	0.090466371	0.027882614
2019-08-06T01:10:00	0.2106	13.971	215.4	0.502422044	0.601272679	0.008787714	0.090661223	0.027942669
2019-08-06T01:15:00	0.2092	13.962	215.6	0.497863540	0.594967090	0.008642880	0.089166996	0.027482134
2019-08-06T01:20:00	0.2094	13.951	215.5	0.498456540	0.595786416	0.008661653	0.089360675	0.027541828
2019-08-06T01:25:00	0.2088	13.941	215.4	0.496300162	0.592808380	0.008593484	0.088657386	0.027325068
2019-08-06T01:30:00	0.2099	13.932	215.4	0.500329081	0.598375496	0.008721067	0.089973637	0.027730749
2019-08-06T01:35:00	0.2091	13.921	215.3	0.497486601	0.594446433	0.008630957	0.089043994	0.027444224
2019-08-06T01:40:00	0.2073	13.913	215.3	0.491200356	0.585780212	0.008433330	0.087005116	0.026815822
2019-08-06T01:45:00	0.2086	13.904	215.2	0.495579197	0.591813533	0.008570752	0.088422865	0.027252786
2019-08-06T01:50:00	0.2083	13.893	215.1	0.494797073	0.590734767	0.008546125	0.088168799	0.027174480
2019-08-06T01:55:00	0.2075	13.884	215.1	0.491949971	0.586811967	0.008456777	0.087247013	0.026890377
2019-08-06T02:00:00	0.2084	13.875	214.9	0.494952390	0.590948954	0.008551013	0.088219223	0.027190021
2019-08-06T02:05:00	0.2078	13.865	214.9	0.492793792	0.587973925	0.008483210	0.087519709	0.026974424
2019-08-06T02:10:00	0.2089	13.857	215.1	0.496826858	0.593535421	0.008610109	0.088828909	0.027377933
2019-08-06T02:15:00	0.2086	13.849	215.0	0.495701179	0.591981825	0.008574596	0.088462523	0.027265009
2019-08-06T02:20:00	0.2072	13.838	214.9	0.490789332	0.585214677	0.008420488	0.086872622	0.026774986
2019-08-06T02:25:00	0.2073	13.829	214.8	0.491383564	0.586032334	0.008439058	0.087064205	0.026834034
2019-08-06T02:30:00	0.2084	13.821	214.8	0.495074395	0.591117215	0.008554853	0.088258843	0.027202233
2019-08-06T02:35:00	0.2079	13.814	214.7	0.493259997	0.588616142	0.008497831	0.087670553	0.027020916
2019-08-06T02:40:00	0.2079	13.804	214.7	0.493165639	0.588486146	0.008494870	0.087640012	0.027011503
2019-08-06T02:45:00	0.2084	13.797	214.6	0.495135396	0.591201348	0.008556774	0.088278656	0.027208339
2019-08-06T02:50:00	0.2093	13.789	214.6	0.498135009	0.595342133	0.008651471	0.089255634	0.027509453
2019-08-06T02:55:00	0.2083	13.781	200.7	0.494602829	0.590466927	0.008540015	0.088105757	0.027155050
2019-08-06T03:00:00	0.2102	13.773	200.6	0.501381147	0.599831377	0.008754536	0.090318939	0.027837174
2019-08-06T03:05:00	0.2078	13.763	200.6	0.493037953	0.588310245	0.008490865	0.087598693	0.026998768
2019-08-06T03:10:00	0.2083	13.754	200.5	0.494663838	0.590551048	0.008541934	0.088125555	0.027161152
2019-08-06T03:15:00	0.2097	13.742	214.3	0.499381735	0.597065289	0.008690983	0.089663270	0.027635090
2019-08-06T03:20:00	0.2094	13.735	200.4	0.498600483	0.595985340	0.008666213	0.089407720	0.027556328
2019-08-06T03:25:00	0.2093	13.727	200.3	0.498162680	0.595380365	0.008652347	0.089264672	0.027512239
2019-08-06T03:30:00	0.2115	13.720	200.4	0.505619724	0.605705877	0.008890027	0.091716774	0.028268001
2019-08-06T03:35:00	0.2103	13.715	214.2	0.501408792	0.599869645	0.008755417	0.090328021	0.027839973
2019-08-06T03:40:00	0.2117	13.712	200.4	0.506460170	0.606872421	0.008917017	0.091995216	0.028353819
2019-08-06T03:45:00	0.2109	13.709	200.4	0.503622793	0.602936407	0.008826064	0.091056874	0.028064613
2019-08-06T03:50:00	0.2116	13.704	214.1	0.505929368	0.606135598	0.008899966	0.091819311	0.028299603
2019-08-06T03:55:00	0.2091	13.697	200.3	0.497597305	0.594599334	0.008634458	0.089080110	0.027455355
2019-08-06T04:00:00	0.2113	13.694	200.2	0.505055583	0.604923165	0.008871934	0.091530109	0.028210468
2019-08-06T04:05:00	0.2105	13.691	200.1	0.502159236	0.600908693	0.008779331	0.090574741	0.027916015
2019-08-06T04:10:00	0.2117	13.688	213.8	0.506466304	0.606880937	0.008917214	0.091997250	0.028354446
2019-08-06T04:15:00	0.2108	13.687	200.1	0.503228069	0.602389360	0.008813448	0.090926717	0.028024497
2019-08-06T04:20:00	0.2131	13.684	200.0	0.511301069	0.613602711	0.009073267	0.093607228	0.028850657
2019-08-06T04:25:00	0.2138	13.682	200.1	0.513544864	0.616728673	0.009146151	0.094359156	0.029082408
2019-08-06T04:30:00	0.2143	13.680	200.0	0.515103436	0.618902406	0.009196949	0.094883227	0.029243932
2019-08-06T04:35:00	0.2152	13.680	200.0	0.518369658	0.623464166	0.009303860	0.095986213	0.029583883
2019-08-06T04:40:00	0.2134	13.679	200.0	0.512064112	0.614665295	0.009098020	0.093862597	0.028929364
2019-08-06T04:45:00	0.2128	13.678	200.0	0.510201055	0.612071704	0.009037643	0.093239696	0.028737380
2019-08-06T04:50:00	0.2152	13.677	200.0	0.518257651	0.623307589	0.009300184	0.095948283	0.029572193
2019-08-06T04:55:00	0.2151	13.679	213.8	0.518106445	0.623096231	0.009295222	0.095897091	0.029556415
2019-08-06T05:00:00	0.2120	13.681	199.9	0.507348383	0.608105886	0.008945584	0.092289942	0.028444656
2019-08-06T05:05:00	0.2130	13.683	213.8	0.510964344	0.613133951	0.009062355	0.093494646	0.028815958
2019-08-06T05:10:00	0.2137	13.687	200.0	0.513208359	0.616259609	0.009135202	0.094246196	0.029047593
2019-08-06T05:15:00	0.2151	13.692	200.0	0.517843213	0.622728324	0.009286587	0.095808004	0.029528957
2019-08-06T05:20:00	0.2154	13.697	200.0	0.519058333	0.624427105	0.009326482	0.096219590	0.029655812
2019-08-06T05:25:00	0.2146	13.704	200.1	0.516173810	0.620396390	0.009231917	0.095243984	0.029355121
2019-08-06T05:30:00	0.2157	13.710	200.1	0.520121907	0.625915001	0.009361471	0.096580571	0.029767070
2019-08-06T05:35:00	0.2157	13.720	200.1	0.519970783	0.625703530	0.009356495	0.096529238	0.029751249
2019-08-06T05:40:00	0.2139	13.727	200.2	0.514010221	0.617377498	0.009161304	0.094515480	0.029130589
2019-08-06T05:45:00	0.2162	13.736	213.8	0.521716650	0.628147700	0.009414058	0.097123103	0.029934284
2019-08-06T05:50:00	0.2148	13.747	200.2	0.517126234	0.621726523	0.009263087	0.095565563	0.029454235
2019-08-06T05:55:00	0.2162	13.758	200.3	0.521755804	0.628202542	0.009415351	0.097136443	0.029938395
2019-08-06T06:00:00	0.2167	13.769	214.1	0.523310654	0.630381425	0.009466769	0.097666908	0.030101889
2019-08-06T06:05:00	0.2166	13.779	214.3	0.523159671	0.630169759	0.009461770	0.097615333	0.030085994
2019-08-06T06:10:00	0.2157	13.794	200.5	0.519937178	0.625656507	0.009355389	0.096517825	0.029747731
2019-08-06T06:15:00	0.2171	13.808	214.4	0.524903920	0.632616176	0.009519602	0.098211983	0.030269887
2019-08-06T06:20:00	0.2176	13.827	214.4	0.526457348	0.634797036	0.009571257	0.098744898	0.030434136
2019-08-06T06:25:00	0.2169	13.840	200.7	0.524261102	0.631714297	0.009498268	0.097991884	0.030202050
2019-08-06T06:30:00	0.2169	13.858	200.8	0.524110160	0.631502573	0.009493262	0.097940238	0.030186133
2019-08-06T06:35:00	0.2180	13.870	200.8	0.528049159	0.637033815	0.009624334	0.099292482	0.030602907
2019-08-06T06:40:00	0.2178	13.885	214.6	0.527217033	0.635864272	0.009596570	0.099006040	0.030514623
2019-08-06T06:45:00	0.2195	13.906	214.9	0.532853663	0.643797507	0.009785430	0.100954475	0.031115150
2019-08-06T06:50:00	0.2175	13.937	214.9	0.526233857	0.634483156	0.009563817	0.098668138	0.030410478
2019-08-06T06:55:00	0.2184	13.959	215.0	0.529149027	0.638580531	0.009661094	0.099671728	0.030719795
2019-08-06T07:00:00	0.2173	13.977	215.1	0.525591287	0.633580931	0.009542442	0.098447611	0.030342510
2019-08-06T07:05:00	0.2195	14.000	215.3	0.532931718	0.643907546	0.009788058	0.100981590	0.031123507
2019-08-06T07:10:00	0.2183	14.033	215.5	0.529037370	0.638423466	0.009657359	0.099633194	0.030707918
2019-08-06T07:15:00	0.2183	14.061	215.5	0.528886638	0.638211451	0.009652318	0.099581187	0.030691889
2019-08-06T07:20:00	0.2184	14.084	215.7	0.529076441	0.638478425	0.009658666	0.099646677	0.030712074
2019-08-06T07:25:00	0.2172	14.121	215.9	0.525177733	0.633000440	0.009528697	0.098305812	0.030298806
2019-08-06T07:30:00	0.2179	14.165	202.3	0.527412484	0.636138926	0.009603087	0.099073283	0.030535348
2019-08-06T07:35:00	0.2188	14.318	217.5	0.530667042	0.640716893	0.009711945	0.100196349	0.030881488
2019-08-06T07:40:00	0.2177	14.326	217.2	0.526770134	0.635236394	0.009581675	0.098852376	0.030467262
2019-08-06T07:45:00	0.2161	14.302	216.8	0.521503983	0.627849839	0.009407037	0.097050666	0.029911958
2019-08-06T07:50:00	0.2156	14.314	216.9	0.519646046	0.625249179	0.009345808	0.096418979	0.029717266
2019-08-06T07:55:00	0.2162	14.330	216.8	0.521884393	0.628382666	0.009419598	0.097180258	0.029951899
2019-08-06T08:00:00	0.2165	14.369	217.1	0.522756952	0.629605272	0.009448442	0.097477836	0.030043616
2019-08-06T08:05:00	0.2155	14.412	217.3	0.519192593	0.624614880	0.009330895	0.096265122	0.029669845
2019-08-06T08:10:00	0.2159	14.477	217.6	0.520748603	0.626792153	0.009382119	0.096793592	0.029832725
2019-08-06T08:15:00	0.2163	14.550	217.9	0.521962697	0.628492357	0.009422185	0.097206944	0.029960124
2019-08-06T08:20:00	0.2171	14.621	218.3	0.524881484	0.632584693	0.009518857	0.098204297	0.030267518
2019-08-06T08:25:00	0.2175	14.643	218.3	0.526094120	0.634286923	0.009559167	0.098620160	0.030395691
2019-08-06T08:30:00	0.2164	14.671	218.6	0.522533220	0.629291726	0.009441042	0.097401491	0.030020085
2019-08-06T08:35:00	0.2170	14.684	218.7	0.524428721	0.631949436	0.009503829	0.098049253	0.030219732
2019-08-06T08:40:00	0.2170	14.743	219.0	0.524618770	0.632216067	0.009510136	0.098114318	0.030239786
2019-08-06T08:45:00	0.2163	14.800	219.4	0.522080148	0.628656899	0.009426065	0.097246979	0.029972463
2019-08-06T08:50:00	0.2144	14.880	195.7	0.515439561	0.619371456	0.009207923	0.094996440	0.029278825
2019-08-06T08:55:00	0.2145	14.838	215.4	0.515971950	0.620114571	0.009225317	0.095175897	0.029334136
2019-08-06T09:00:00	0.2149	14.877	212.8	0.517187733	0.621812436	0.009265102	0.095586346	0.029460640
2019-08-06T09:05:00	0.2164	14.965	195.8	0.522499640	0.629244669	0.009439932	0.097390035	0.030016555
2019-08-06T09:10:00	0.2154	14.977	198.9	0.518935014	0.624254647	0.009322429	0.096177780	0.029642926
2019-08-06T09:15:00	0.2134	15.018	198.2	0.512288334	0.614977626	0.009105300	0.093937703	0.028952513
2019-08-06T09:20:00	0.2134	15.067	191.6	0.512136865	0.614766632	0.009100382	0.093886963	0.028936874
2019-08-06T09:25:00	0.2130	15.126	192.7	0.510958566	0.613125909	0.009062168	0.093492715	0.028815363
2019-08-06T09:30:00	0.2142	15.091	197.0	0.514912667	0.618636235	0.009190724	0.094819003	0.029224138
2019-08-06T09:35:00	0.2129	15.082	197.4	0.510313131	0.612227648	0.009041269	0.093277109	0.028748911
2019-08-06T09:40:00	0.2131	15.057	199.0	0.511188637	0.613446183	0.009069623	0.093569629	0.028839068
2019-08-06T09:45:00	0.2114	15.048	198.6	0.505212765	0.605141219	0.008876973	0.091582099	0.028226492
2019-08-06T09:50:00	0.2127	15.099	199.0	0.509858442	0.611595053	0.009026562	0.093125372	0.028702144
2019-08-06T09:55:00	0.2140	15.066	201.6	0.514155835	0.617580557	0.009166047	0.094564422	0.029145673
2019-08-06T10:00:00	0.2130	15.165	217.2	0.510924873	0.613079009	0.009061076	0.093481453	0.028811892
2019-08-06T10:05:00	0.2129	15.207	214.9	0.510624871	0.612661458	0.009051360	0.093381214	0.028780997
2019-08-06T10:10:00	0.2128	15.283	221.7	0.509982437	0.611767546	0.009030571	0.093166739	0.028714894
2019-08-06T10:15:00	0.2113	15.309	221.9	0.504884645	0.604686049	0.008866455	0.091473586	0.028193047
2019-08-06T10:20:00	0.2100	15.321	204.2	0.500466062	0.598565003	0.008725421	0.090018559	0.027744594
2019-08-06T10:25:00	0.2103	15.349	192.8	0.501538498	0.600049200	0.008759548	0.090370640	0.027853109
2019-08-06T10:30:00	0.2100	15.384	222.9	0.500551001	0.598682521	0.008728121	0.090046419	0.027753181
2019-08-06T10:35:00	0.2084	15.389	221.4	0.495095196	0.591145904	0.008555508	0.088265599	0.027204315
2019-08-06T10:40:00	0.2090	15.425	221.0	0.497200600	0.594051463	0.008621916	0.088950722	0.027415476
2019-08-06T10:45:00	0.2081	15.486	221.5	0.494148380	0.589840412	0.008525727	0.087958353	0.027109619
2019-08-06T10:50:00	0.2077	15.519	221.1	0.492470440	0.587528595	0.008473076	0.087415162	0.026942202
2019-08-06T10:55:00	0.2078	15.514	191.6	0.492857173	0.588061224	0.008485197	0.087540208	0.026980742
2019-08-06T11:00:00	0.2074	15.548	220.5	0.491522893	0.586224091	0.008443415	0.087109156	0.026847888
2019-08-06T11:05:00	0.2086	15.599	220.5	0.495694286	0.591972314	0.008574378	0.088460281	0.027264318
2019-08-06T11:10:00	0.2067	15.600	191.8	0.489197297	0.583025449	0.008370836	0.086360376	0.026617107
2019-08-06T11:15:00	0.2069	15.630	192.4	0.489928862	0.584031181	0.008393634	0.086595574	0.026689597
2019-08-06T11:20:00	0.2061	15.668	208.6	0.487214843	0.580302186	0.008309212	0.085724612	0.026421158
2019-08-06T11:25:00	0.2068	15.730	206.3	0.489669613	0.583674725	0.008385552	0.086512189	0.026663897
2019-08-06T11:30:00	0.2064	15.754	201.0	0.487989461	0.581365891	0.008333264	0.085972751	0.026497637
2019-08-06T11:35:00	0.2066	15.862	187.1	0.488721286	0.582371274	0.008356019	0.086207508	0.026569991
2019-08-06T11:40:00	0.2084	15.889	192.9	0.494960337	0.590959913	0.008551263	0.088221804	0.027190817
2019-08-06T11:45:00	0.2046	15.882	192.4	0.481908397	0.573028278	0.008145374	0.084034321	0.025900194
2019-08-06T11:50:00	0.2067	15.942	195.2	0.489193668	0.583020461	0.008370723	0.086359210	0.026616747
2019-08-06T11:55:00	0.2048	16.007	184.8	0.482684227	0.574090358	0.008169227	0.084280409	0.025976041
2019-08-06T12:00:00	0.2060	16.032	178.7	0.486866477	0.579823967	0.008298407	0.085613133	0.026386799
2019-08-06T12:05:00	0.2062	16.008	178.9	0.487598543	0.580829024	0.008321122	0.085847481	0.026459027
2019-08-06T12:10:00	0.2049	16.003	178.4	0.482812303	0.574265735	0.008173168	0.084321069	0.025988572
2019-08-06T12:15:00	0.2043	16.053	177.3	0.480783398	0.571489054	0.008110847	0.083678112	0.025790407
2019-08-06T12:20:00	0.2021	16.100	171.0	0.473219495	0.561166317	0.007880589	0.081302580	0.025058245
2019-08-06T12:25:00	0.2027	16.092	170.0	0.475338510	0.564053620	0.007944765	0.081964672	0.025262308
2019-08-06T12:30:00	0.2023	16.094	169.2	0.473997319	0.562225741	0.007904116	0.081545305	0.025133055
2019-08-06T12:35:00	0.2019	16.157	168.2	0.472655596	0.560398567	0.007863554	0.081126835	0.025004078
2019-08-06T12:40:00	0.1995	16.159	166.4	0.464379424	0.549159603	0.007615631	0.078569057	0.024215746
2019-08-06T12:45:00	0.2011	16.179	158.9	0.469970550	0.556746340	0.007782691	0.080292586	0.024746955
2019-08-06T12:50:00	0.1989	16.164	158.0	0.462035089	0.545985893	0.007546114	0.077851868	0.023994702
2019-08-06T12:55:00	0.2006	16.181	166.7	0.467976803	0.554038130	0.007722914	0.079675877	0.024556879
2019-08-06T13:00:00	0.2007	16.197	164.6	0.468366341	0.554567012	0.007734575	0.079796185	0.024593959
2019-08-06T13:05:00	0.2014	16.170	160.8	0.470834809	0.557921288	0.007808674	0.080560648	0.024829574
2019-08-06T13:10:00	0.2013	16.201	157.6	0.470531249	0.557508535	0.007799543	0.080466445	0.024800540
2019-08-06T13:15:00	0.1994	16.229	155.3	0.463985768	0.548626376	0.007603936	0.078448402	0.024178559
2019-08-06T13:20:00	0.1987	16.253	152.0	0.461598200	0.545394922	0.007533194	0.077718571	0.023953618
2019-08-06T13:25:00	0.2000	16.241	152.9	0.466153488	0.551564189	0.007668445	0.079113937	0.024383684
2019-08-06T13:30:00	0.1987	16.271	148.4	0.461336770	0.545041365	0.007525468	0.077638861	0.023929051
2019-08-06T13:35:00	0.1989	16.320	152.1	0.462074386	0.546039056	0.007547277	0.077863863	0.023998399
2019-08-06T13:40:00	0.2011	16.290	157.8	0.469748976	0.556445209	0.007776036	0.080223933	0.024725795
2019-08-06T13:45:00	0.1994	16.300	153.5	0.463896251	0.548505139	0.007601277	0.078420978	0.024170107
2019-08-06T13:50:00	0.1998	16.273	142.2	0.465327288	0.550444038	0.007643827	0.078859950	0.024305402
2019-08-06T13:55:00	0.2005	16.300	140.1	0.467797979	0.553795379	0.007717563	0.079620677	0.024539866
2019-08-06T14:00:00	0.1999	16.317	137.5	0.465760040	0.551030690	0.007656717	0.078992935	0.024346390
2019-08-06T14:05:00	0.2010	16.331	136.2	0.469616755	0.556265531	0.007772067	0.080182978	0.024713173
2019-08-06T14:10:00	0.1999	16.350	132.5	0.465498933	0.550676708	0.007648938	0.078912684	0.024321655
2019-08-06T14:15:00	0.1989	16.329	129.3	0.462070727	0.546034106	0.007547169	0.077862747	0.023998055
2019-08-06T14:20:00	0.2008	16.286	127.3	0.468705664	0.555027814	0.007744740	0.079901057	0.024626282
2019-08-06T14:25:00	0.2004	16.288	124.8	0.467361836	0.553203425	0.007704521	0.079486127	0.024498396
2019-08-06T14:30:00	0.2014	16.328	123.8	0.470870354	0.557969624	0.007809743	0.080571683	0.024832975
2019-08-06T14:35:00	0.2003	16.326	121.5	0.467100853	0.552849280	0.007696723	0.079405668	0.024473598
2019-08-06T14:40:00	0.1991	16.285	120.5	0.462979956	0.547264510	0.007574094	0.078140537	0.024083672
2019-08-06T14:45:00	0.1998	16.296	119.0	0.465452368	0.550613585	0.007647551	0.078898376	0.024317246
2019-08-06T14:50:00	0.1997	16.330	118.0	0.464801332	0.549731236	0.007628175	0.078698472	0.024255634
2019-08-06T14:55:00	0.1967	16.317	117.1	0.454417977	0.535704022	0.007322407	0.075543927	0.023283372
2019-08-06T15:00:00	0.1974	16.294	116.1	0.456896688	0.539044849	0.007394842	0.076291219	0.023513695
2019-08-06T15:05:00	0.1985	16.314	116.5	0.460763561	0.544266346	0.007508541	0.077464230	0.023875228
2019-08-06T15:10:00	0.1989	16.322	71.4	0.462195929	0.546203495	0.007550873	0.077900970	0.024009835
2019-08-06T15:15:00	0.1967	16.370	70.8	0.454590180	0.535935963	0.007327428	0.075595727	0.023299337
2019-08-06T15:20:00	0.1966	16.369	70.0	0.454285152	0.535525137	0.007318536	0.075503984	0.023271061
2019-08-06T15:25:00	0.1972	16.345	66.7	0.456416104	0.538396735	0.007380770	0.076146048	0.023468952
2019-08-06T15:30:00	0.1970	16.339	63.0	0.455763317	0.537516680	0.007361678	0.075949077	0.023408243
2019-08-06T15:35:00	0.1957	16.322	58.1	0.450931680	0.531013369	0.007221121	0.074498970	0.022961306
2019-08-06T15:40:00	0.1976	16.304	53.0	0.457588604	0.539978284	0.007415124	0.076500465	0.023578186
2019-08-06T15:45:00	0.1984	16.293	49.2	0.460412458	0.543791757	0.007498182	0.077357361	0.023842290
2019-08-06T15:50:00	0.1982	16.324	46.3	0.459760446	0.542910689	0.007478964	0.077159092	0.023781182
2019-08-06T15:55:00	0.1981	16.322	44.7	0.459455887	0.542499250	0.007469995	0.077066565	0.023752664
2019-08-06T16:00:00	0.1977	16.314	44.9	0.458108362	0.540679719	0.007430377	0.076657833	0.023626689
2019-08-06T16:05:00	0.1987	16.309	46.8	0.461534388	0.545308619	0.007531308	0.077699111	0.023947621
2019-08-06T16:10:00	0.1998	16.283	49.8	0.465303906	0.550412345	0.007643130	0.078852768	0.024303189
2019-08-06T16:15:00	0.2004	16.287	52.2	0.467335915	0.553168249	0.007703747	0.079478134	0.024495933
2019-08-06T16:20:00	0.2007	16.222	55.5	0.468326922	0.554513487	0.007733395	0.079784007	0.024590206
2019-08-06T16:25:00	0.2019	16.191	55.9	0.472435100	0.560098430	0.007856898	0.081058166	0.024982914
2019-08-06T16:30:00	0.2010	16.209	57.6	0.469615106	0.556263291	0.007772017	0.080182468	0.024713015
2019-08-06T16:35:00	0.1993	16.176	58.0	0.463670071	0.548198837	0.007594563	0.078351707	0.024148757
2019-08-06T16:40:00	0.2010	16.168	57.8	0.469516987	0.556129964	0.007769072	0.080152083	0.024703650
2019-08-06T16:45:00	0.2002	16.175	56.5	0.466694553	0.552298050	0.007684589	0.079280487	0.024435016
2019-08-06T16:50:00	0.2014	16.173	55.1	0.470804717	0.557880369	0.007807768	0.080551308	0.024826695
2019-08-06T16:55:00	0.2002	16.162	54.5	0.466596348	0.552164835	0.007681658	0.079250245	0.024425695
2019-08-06T17:00:00	0.2008	16.154	54.3	0.468627579	0.554921766	0.007742400	0.079876918	0.024618842
2019-08-06T17:05:00	0.2005	16.117	54.6	0.467885193	0.553913767	0.007720172	0.079647596	0.024548163
2019-08-06T17:10:00	0.2010	16.108	52.8	0.469569148	0.556200840	0.007770638	0.080168235	0.024708629
2019-08-06T17:15:00	0.1992	16.114	53.5	0.463276883	0.547666465	0.007582898	0.078231360	0.024111665
2019-08-06T17:20:00	0.1997	16.074	55.5	0.464963140	0.549950503	0.007632988	0.078748133	0.024270939
2019-08-06T17:25:00	0.1993	16.057	55.0	0.463525737	0.548003396	0.007590280	0.078307519	0.024135138
2019-08-06T17:30:00	0.1986	16.049	55.2	0.461045692	0.544647774	0.007516870	0.077550159	0.023901712
2019-08-06T17:35:00	0.1983	16.026	55.3	0.459954142	0.543172397	0.007484671	0.077217966	0.023799327
2019-08-06T17:40:00	0.1982	16.002	56.8	0.459904942	0.543105918	0.007483221	0.077203010	0.023794717
2019-08-06T17:45:00	0.1990	15.988	58.5	0.462634747	0.546797283	0.007563866	0.078035010	0.024051148
2019-08-06T17:50:00	0.1967	15.991	61.0	0.454589629	0.535935219	0.007327412	0.075595561	0.023299286
2019-08-06T17:55:00	0.1998	15.961	62.2	0.465313219	0.550424968	0.007643408	0.078855629	0.024304071
2019-08-06T18:00:00	0.1995	15.905	63.1	0.464223052	0.548947775	0.007610984	0.078521118	0.024200971
2019-08-06T18:05:00	0.2001	15.894	65.9	0.466255713	0.551702822	0.007671494	0.079145391	0.024393378
2019-08-06T18:10:00	0.2010	15.899	66.5	0.469326941	0.555871747	0.007763369	0.080093247	0.024685517
2019-08-06T18:15:00	0.1994	15.900	71.4	0.464075636	0.548748096	0.007606605	0.078475938	0.024187046
2019-08-06T18:20:00	0.1987	15.879	75.8	0.461595997	0.545391943	0.007533129	0.077717899	0.023953411
2019-08-06T18:25:00	0.1997	15.831	77.6	0.465018476	0.550025494	0.007634635	0.078765120	0.024276175
2019-08-06T18:30:00	0.2004	15.805	81.6	0.467397417	0.553251713	0.007705585	0.079497100	0.024501778
2019-08-06T18:35:00	0.2000	15.794	83.6	0.465961052	0.551303239	0.007662708	0.079054744	0.024365440
2019-08-06T18:40:00	0.1993	15.756	89.1	0.463482801	0.547945261	0.007589006	0.078294376	0.024131087
2019-08-06T18:45:00	0.1994	15.750	98.0	0.463780785	0.548348764	0.007597849	0.078385611	0.024159207
2019-08-06T18:50:00	0.2002	15.714	121.5	0.466854266	0.552514719	0.007689357	0.079329683	0.024450179
2019-08-06T18:55:00	0.1996	15.682	123.2	0.464723707	0.549626054	0.007625866	0.078674654	0.024248292
2019-08-06T19:00:00	0.2012	15.682	126.3	0.470222364	0.557088616	0.007790257	0.080370644	0.024771013
2019-08-06T19:05:00	0.2016	15.652	134.1	0.471558856	0.558906078	0.007830474	0.080785562	0.024898895
2019-08-06T19:10:00	0.2029	15.627	134.6	0.476008985	0.564967932	0.007965124	0.082174716	0.025327045
2019-08-06T19:15:00	0.2041	15.595	134.4	0.480107843	0.570565245	0.008090148	0.083464570	0.025724591
2019-08-06T19:20:00	0.2024	15.562	135.4	0.474181263	0.562476349	0.007909685	0.081602758	0.025150763
2019-08-06T19:25:00	0.2026	15.542	135.0	0.475170264	0.563824242	0.007939660	0.081912006	0.025246076
2019-08-06T19:30:00	0.2027	15.514	139.4	0.475467217	0.564229107	0.007948671	0.082004972	0.025274729
2019-08-06T19:35:00	0.2031	15.494	141.3	0.476801637	0.566049317	0.007989227	0.082423378	0.025403686
2019-08-06T19:40:00	0.2026	15.467	141.4	0.475023325	0.563623932	0.007935203	0.081866023	0.025231903
2019-08-06T19:45:00	0.2015	15.444	143.3	0.471166587	0.558372494	0.007818660	0.080663671	0.024861327
2019-08-06T19:50:00	0.2004	15.422	145.4	0.467305439	0.553126891	0.007702836	0.079468737	0.024493036
2019-08-06T19:55:00	0.2022	15.396	147.6	0.473492197	0.561537691	0.007888833	0.081387637	0.025084460
2019-08-06T20:00:00	0.2028	15.377	151.4	0.475865177	0.564771795	0.007960755	0.082129642	0.025313153
2019-08-06T20:05:00	0.2032	15.354	154.6	0.477199440	0.566592213	0.008001336	0.082548312	0.025442192
2019-08-06T20:10:00	0.2025	15.330	157.2	0.474729429	0.563223339	0.007926292	0.081774091	0.025203569
2019-08-06T20:15:00	0.2031	15.303	158.6	0.476755776	0.565986737	0.007987831	0.082408981	0.025399248
2019-08-06T20:20:00	0.2013	15.273	159.2	0.470476906	0.557434652	0.007797909	0.080449586	0.024795344
2019-08-06T20:25:00	0.2027	15.236	162.6	0.475274410	0.563966227	0.007942819	0.081944604	0.025256123
2019-08-06T20:30:00	0.2023	15.237	163.6	0.473841393	0.562013324	0.007899397	0.081496618	0.025118049
2019-08-06T20:35:00	0.2003	15.213	167.3	0.467210355	0.552997863	0.007699994	0.079439421	0.024484001
2019-08-06T20:40:00	0.2029	15.190	167.8	0.476165164	0.565180962	0.007969870	0.082223681	0.025342137
2019-08-06T20:45:00	0.2023	15.154	173.2	0.474040474	0.562284533	0.007905422	0.081558782	0.025137209
2019-08-06T20:50:00	0.2031	15.143	180.2	0.476758870	0.565990959	0.007987925	0.082409952	0.025399547
2019-08-06T20:55:00	0.2066	15.124	184.1	0.488790908	0.582466943	0.008358185	0.086229859	0.026576880
2019-08-06T21:00:00	0.2064	15.106	188.0	0.488052931	0.581453070	0.008335236	0.085993098	0.026503908
2019-08-06T21:05:00	0.2057	15.083	191.2	0.485590820	0.578073637	0.008258898	0.085205531	0.026261172
2019-08-06T21:10:00	0.2060	15.064	194.3	0.486921260	0.579899164	0.008300106	0.085630659	0.026392201
2019-08-06T21:15:00	0.2067	15.049	208.0	0.489284859	0.583145804	0.008373563	0.086388510	0.026625778
2019-08-06T21:20:00	0.2071	15.032	193.8	0.490613854	0.584973275	0.008415008	0.086816087	0.026757561
2019-08-06T21:25:00	0.2079	15.018	193.1	0.493319004	0.588697439	0.008499682	0.087689654	0.027026803
2019-08-06T21:30:00	0.2062	15.004	191.1	0.487415483	0.580577659	0.008315439	0.085788850	0.026440957
2019-08-06T21:35:00	0.2053	14.989	192.0	0.484262944	0.576253041	0.008217872	0.084782269	0.026130719
2019-08-06T21:40:00	0.2058	14.975	191.4	0.485938770	0.578550931	0.008269665	0.085316614	0.026295409
2019-08-06T21:45:00	0.2054	14.954	189.9	0.484855233	0.577064930	0.008236159	0.084970933	0.026188867
2019-08-06T21:50:00	0.2049	14.936	189.7	0.483081145	0.574633908	0.008181444	0.084406447	0.026014887
2019-08-06T21:55:00	0.2052	14.909	190.4	0.484067550	0.575985262	0.008211843	0.084720075	0.026111550
2019-08-06T22:00:00	0.2056	14.890	194.2	0.485398588	0.577809988	0.008252953	0.085144192	0.026242267
2019-08-06T22:05:00	0.2059	14.864	189.9	0.486280514	0.579019806	0.008280247	0.085425785	0.026329056
2019-08-06T22:10:00	0.2079	14.855	189.9	0.493361563	0.588756077	0.008501018	0.087703432	0.027031050
2019-08-06T22:15:00	0.2069	14.842	193.4	0.489766409	0.583807810	0.008388569	0.086543318	0.026673491
2019-08-06T22:20:00	0.2038	14.834	193.1	0.479263954	0.569411754	0.008064329	0.083198197	0.025642492
2019-08-06T22:25:00	0.2056	14.818	193.4	0.485325067	0.577709162	0.008250679	0.085120738	0.026235038
2019-08-06T22:30:00	0.2051	14.795	194.6	0.483792416	0.575608256	0.008203359	0.084632538	0.026084570
2019-08-06T22:35:00	0.2067	14.782	194.4	0.489156481	0.582969349	0.008369565	0.086347263	0.026613065
2019-08-06T22:40:00	0.2036	14.753	193.9	0.478306527	0.568103758	0.008035086	0.082896497	0.025549505
2019-08-06T22:45:00	0.2061	14.745	194.9	0.487128282	0.580183351	0.008306527	0.085696905	0.026412618
2019-08-06T22:50:00	0.2037	14.735	193.9	0.478691785	0.568629993	0.008046847	0.083017833	0.025586902
2019-08-06T22:55:00	0.2045	14.717	193.8	0.481647792	0.572671629	0.008137369	0.083951739	0.025874741
2019-08-06T23:00:00	0.2075	14.704	191.6	0.491838148	0.586658027	0.008453278	0.087210907	0.026879249
2019-08-06T23:05:00	0.2041	14.686	192.7	0.480306009	0.570836196	0.008096217	0.083527182	0.025743889
2019-08-06T23:10:00	0.2045	14.668	208.1	0.481534573	0.572516700	0.008133893	0.083915874	0.025863687
2019-08-06T23:15:00	0.2054	14.656	193.9	0.484833080	0.577034558	0.008235475	0.084963872	0.026186691
2019-08-06T23:20:00	0.2035	14.639	191.9	0.478119519	0.567848361	0.008029380	0.082837631	0.025531362
2019-08-06T23:25:00	0.2049	14.624	191.7	0.482802295	0.574252030	0.008172860	0.084317891	0.025987593
2019-08-06T23:30:00	0.2080	14.613	191.1	0.493677387	0.589191264	0.008510932	0.087805712	0.027062573
2019-08-06T23:35:00	0.2076	14.604	191.6	0.492148500	0.587085293	0.008462992	0.087311133	0.026910139
2019-08-06T23:40:00	0.2065	14.595	196.2	0.488552063	0.582138757	0.008350755	0.086153196	0.026553252
2019-08-06T23:45:00	0.2063	14.583	209.7	0.487710272	0.580982454	0.008324591	0.085883275	0.026470059
2019-08-06T23:50:00	0.2086	14.572	209.9	0.495820042	0.592145824	0.008578342	0.088501175	0.027276922
2019-08-06T23:55:00	0.2062	14.562	212.3	0.487405137	0.580563453	0.008315118	0.085785537	0.026439936
2019-08-07T00:00:00	0.2074	14.553	194.7	0.491730883	0.586510372	0.008449921	0.087176280	0.026868576
2019-08-07T00:05:00	0.2058	14.544	196.4	0.486065629	0.578724972	0.008273593	0.085357131	0.026307897
2019-08-07T00:10:00	0.2074	14.539	212.9	0.491426108	0.586090885	0.008440388	0.087077930	0.026838264
2019-08-07T00:15:00	0.2079	14.532	211.5	0.493338919	0.588724879	0.008500307	0.087696101	0.027028790
2019-08-07T00:20:00	0.2070	14.525	197.9	0.490088185	0.584250271	0.008398603	0.086646839	0.026705397
2019-08-07T00:25:00	0.2067	14.520	197.1	0.489246775	0.583093457	0.008372377	0.086376273	0.026622006
2019-08-07T00:30:00	0.2075	14.514	212.1	0.491849377	0.586673485	0.008453629	0.087214532	0.026880366
2019-08-07T00:35:00	0.2083	14.508	211.1	0.494793956	0.590730470	0.008546027	0.088167787	0.027174168
2019-08-07T00:40:00	0.2089	14.505	199.9	0.496704876	0.593367020	0.008606257	0.088789171	0.027365685
2019-08-07T00:45:00	0.2068	14.499	200.3	0.489670316	0.583675691	0.008385573	0.086512415	0.026663967
2019-08-07T00:50:00	0.2071	14.493	197.8	0.490551134	0.584886998	0.008413050	0.086795885	0.026751335
2019-08-07T00:55:00	0.2072	14.488	198.5	0.490743074	0.585151039	0.008419043	0.086857717	0.026770392
2019-08-07T01:00:00	0.2061	14.480	212.5	0.487145149	0.580206506	0.008307050	0.085702303	0.026414282
2019-08-07T01:05:00	0.2047	14.476	212.4	0.482162765	0.573376444	0.008153191	0.084114966	0.025925049
2019-08-07T01:10:00	0.2029	14.471	198.5	0.476135668	0.565140727	0.007968974	0.082214432	0.025339287
2019-08-07T01:15:00	0.2021	14.466	213.4	0.473214555	0.561159590	0.007880439	0.081301039	0.025057770
2019-08-07T01:20:00	0.2026	14.461	199.8	0.475137663	0.563779799	0.007938671	0.081901803	0.025242931
2019-08-07T01:25:00	0.2035	14.456	214.8	0.478096774	0.567817299	0.008028686	0.082830473	0.025529156
2019-08-07T01:30:00	0.2037	14.452	214.2	0.478980602	0.569024574	0.008055669	0.083108852	0.025614955
2019-08-07T01:35:00	0.2022	14.447	213.8	0.473640104	0.561739141	0.007893307	0.081433789	0.025098685
2019-08-07T01:40:00	0.2012	14.440	214.0	0.470023960	0.556818933	0.007784295	0.080309139	0.024752057
2019-08-07T01:45:00	0.2014	14.433	199.4	0.470909900	0.558023402	0.007810933	0.080583960	0.024836759
2019-08-07T01:50:00	0.2008	14.424	199.4	0.468677555	0.554989639	0.007743898	0.079892367	0.024623604
2019-08-07T01:55:00	0.2026	14.418	198.3	0.475103613	0.563733380	0.007937638	0.081891147	0.025239647
2019-08-07T02:00:00	0.2018	14.416	198.5	0.472181608	0.559753427	0.007849249	0.080979256	0.024958593
2019-08-07T02:05:00	0.2035	14.410	214.0	0.478255402	0.568033933	0.008033526	0.082880402	0.025544545
2019-08-07T02:10:00	0.2042	14.406	214.4	0.480521063	0.571130273	0.008102806	0.083595156	0.025764839
2019-08-07T02:15:00	0.2015	14.402	214.4	0.471375476	0.558656620	0.007824950	0.080728568	0.024881329
2019-08-07T02:20:00	0.2017	14.399	215.2	0.471914801	0.559390358	0.007841203	0.080896243	0.024933008
2019-08-07T02:25:00	0.2047	14.396	215.7	0.482134416	0.573337639	0.008152319	0.084105976	0.025922279
2019-08-07T02:30:00	0.2026	14.391	215.4	0.475069562	0.563686962	0.007936605	0.081880491	0.025236363
2019-08-07T02:35:00	0.2032	14.388	214.6	0.476991616	0.566308572	0.007995009	0.082483031	0.025422071
2019-08-07T02:40:00	0.2047	14.383	201.0	0.482366441	0.573655263	0.008159452	0.084179566	0.025944960
2019-08-07T02:45:00	0.2062	14.380	215.9	0.487388076	0.580540028	0.008314588	0.085780074	0.026438252
2019-08-07T02:50:00	0.2042	14.376	216.7	0.480679577	0.571347058	0.008107664	0.083645277	0.025780287
2019-08-07T02:55:00	0.2056	14.372	200.8	0.485358820	0.577755450	0.008251723	0.085131505	0.026238357
2019-08-07T03:00:00	0.2046	14.367	214.8	0.482100436	0.573291127	0.008151275	0.084095201	0.025918958
2019-08-07T03:05:00	0.2048	14.361	215.2	0.482638055	0.574027136	0.008167806	0.084265754	0.025971524
2019-08-07T03:10:00	0.2060	14.352	215.3	0.486625114	0.579492693	0.008290924	0.085535938	0.026363007
2019-08-07T03:15:00	0.2039	14.345	215.4	0.479569627	0.569829505	0.008073677	0.083294634	0.025672215
2019-08-07T03:20:00	0.2048	14.336	215.6	0.482524869	0.573872163	0.008164325	0.084229833	0.025960452
2019-08-07T03:25:00	0.2069	14.324	215.5	0.489958199	0.584071522	0.008394549	0.086605013	0.026692506
2019-08-07T03:30:00	0.2052	14.313	215.5	0.483944954	0.575817266	0.008208062	0.084681064	0.026099526
2019-08-07T03:35:00	0.2063	14.303	215.4	0.487930479	0.581284880	0.008331432	0.085953844	0.026491809
2019-08-07T03:40:00	0.2057	14.293	215.6	0.485709333	0.578236194	0.008262565	0.085243358	0.026272831
2019-08-07T03:45:00	0.2028	14.291	215.5	0.475540207	0.564328632	0.007950887	0.082027831	0.025281774
2019-08-07T03:50:00	0.2037	14.286	215.4	0.478844553	0.568838696	0.008051513	0.083065971	0.025601739
2019-08-07T03:55:00	0.2047	14.280	215.2	0.482145677	0.573353054	0.008152665	0.084109547	0.025923379
2019-08-07T04:00:00	0.2023	14.271	215.4	0.474042826	0.562287737	0.007905493	0.081559517	0.025137435
2019-08-07T04:05:00	0.2033	14.262	215.1	0.477302780	0.566733266	0.008004484	0.082580782	0.025452199
2019-08-07T04:10:00	0.2042	14.254	215.1	0.480559597	0.571182970	0.008103987	0.083607339	0.025768594
2019-08-07T04:15:00	0.2051	14.249	215.1	0.483813286	0.575636852	0.008204002	0.084639176	0.026086616
2019-08-07T04:20:00	0.2036	14.244	214.8	0.478434573	0.568278646	0.008038994	0.082936815	0.025561932
2019-08-07T04:25:00	0.2039	14.238	214.9	0.479617994	0.569895613	0.008075156	0.083309898	0.025676920
2019-08-07T04:30:00	0.2034	14.239	215.0	0.477691245	0.567263571	0.008016320	0.082702898	0.025489836
2019-08-07T04:35:00	0.2043	14.236	215.0	0.480947689	0.571713774	0.008115885	0.083730084	0.025806425
2019-08-07T04:40:00	0.2025	14.232	215.2	0.474526547	0.562946842	0.007920143	0.081710658	0.025184018
2019-08-07T04:45:00	0.2047	14.236	215.4	0.482276862	0.573532632	0.008156698	0.084151151	0.025936202
2019-08-07T04:50:00	0.2040	14.238	215.6	0.480006193	0.570426272	0.008087036	0.083432462	0.025714695
2019-08-07T04:55:00	0.2040	14.240	215.7	0.479807462	0.570154597	0.008080953	0.083369707	0.025695353
2019-08-07T05:00:00	0.2041	14.242	215.6	0.480299632	0.570827476	0.008096022	0.083525167	0.025743268
2019-08-07T05:05:00	0.2040	14.246	215.4	0.479755459	0.570083511	0.008079362	0.083353289	0.025690293
2019-08-07T05:10:00	0.2031	14.246	215.6	0.476791611	0.566035636	0.007988921	0.082420230	0.025402715
2019-08-07T05:15:00	0.2023	14.248	215.6	0.473825165	0.561991218	0.007898906	0.081491552	0.025116488
2019-08-07T05:20:00	0.2015	14.254	215.7	0.471202481	0.558421314	0.007819740	0.080674821	0.024864763
2019-08-07T05:25:00	0.2032	14.259	215.6	0.477232177	0.566636896	0.008002333	0.082558598	0.025445362
2019-08-07T05:30:00	0.2039	14.266	215.7	0.479452699	0.569669695	0.008070100	0.083257738	0.025660843
2019-08-07T05:35:00	0.2050	14.270	215.8	0.483397731	0.575067539	0.008191194	0.084507043	0.026045891
2019-08-07T05:40:00	0.2049	14.274	215.7	0.482854056	0.574322910	0.008174453	0.084334325	0.025992658
2019-08-07T05:45:00	0.2032	14.279	215.7	0.477128092	0.566494832	0.007999164	0.082525897	0.025435283
2019-08-07T05:50:00	0.2052	14.286	215.9	0.483837439	0.575669946	0.008204747	0.084646859	0.026088984
2019-08-07T05:55:00	0.2049	14.290	216.0	0.482948701	0.574452521	0.008177366	0.084364380	0.026001921
2019-08-07T06:00:00	0.2044	14.299	216.1	0.481369176	0.572290390	0.008128816	0.083863494	0.025847543
2019-08-07T06:05:00	0.2046	14.310	216.1	0.481861119	0.572963572	0.008143921	0.084019336	0.025895575
2019-08-07T06:10:00	0.2049	14.322	202.0	0.483043344	0.574582136	0.008180280	0.084394439	0.026011186
2019-08-07T06:15:00	0.2057	14.339	215.8	0.485604960	0.578093032	0.008259336	0.085210044	0.026262563
2019-08-07T06:20:00	0.2039	14.362	215.9	0.479538165	0.569786503	0.008072714	0.083284706	0.025669155
2019-08-07T06:25:00	0.2035	14.387	215.8	0.478302691	0.568098518	0.008034969	0.082895289	0.025549133
2019-08-07T06:30:00	0.2050	14.410	215.8	0.483284570	0.574912533	0.008187708	0.084471079	0.026034807
2019-08-07T06:35:00	0.2064	14.426	215.9	0.488259142	0.581736330	0.008341646	0.086059223	0.026524288
2019-08-07T06:40:00	0.2053	14.448	202.3	0.484267829	0.576259735	0.008218023	0.084783824	0.026131198
2019-08-07T06:45:00	0.2038	14.457	216.4	0.479235385	0.569372713	0.008063456	0.083189187	0.025639715
2019-08-07T06:50:00	0.2055	14.475	216.2	0.484905869	0.577134352	0.008237723	0.084987071	0.026193841
2019-08-07T06:55:00	0.2045	14.503	216.3	0.481601254	0.572607944	0.008135940	0.083936996	0.025870197
2019-08-07T07:00:00	0.2037	14.532	215.7	0.478984594	0.569030028	0.008055791	0.083110111	0.025615343
2019-08-07T07:05:00	0.2050	14.546	215.5	0.483275306	0.574899843	0.008187423	0.084468135	0.026033900
2019-08-07T07:10:00	0.2034	14.560	215.3	0.477895738	0.567542779	0.008022555	0.082767217	0.025509660
2019-08-07T07:15:00	0.2047	14.582	215.6	0.482187829	0.573410754	0.008153961	0.084122914	0.025927499
2019-08-07T07:20:00	0.2047	14.628	215.8	0.482334457	0.573611477	0.008158469	0.084169420	0.025941833
2019-08-07T07:25:00	0.2054	14.650	201.9	0.484551639	0.576648737	0.008226783	0.084874202	0.026159053
2019-08-07T07:30:00	0.2060	14.675	215.9	0.486767372	0.579687938	0.008295334	0.085581432	0.026377029
2019-08-07T07:35:00	0.2061	14.742	215.8	0.487258533	0.580362168	0.008310568	0.085738598	0.026425468
2019-08-07T07:40:00	0.2072	14.786	202.1	0.490850175	0.585298384	0.008422388	0.086892229	0.026781029
2019-08-07T07:45:00	0.2070	14.805	215.5	0.490307692	0.584552153	0.008405451	0.086717493	0.026727174
2019-08-07T07:50:00	0.2067	14.818	214.8	0.489076135	0.582858920	0.008367064	0.086321453	0.026605110
2019-08-07T07:55:00	0.2068	14.814	215.0	0.489566962	0.583533599	0.008382352	0.086479183	0.026653724
2019-08-07T08:00:00	0.2081	14.840	200.7	0.493844329	0.589421332	0.008516174	0.087859800	0.027079244
2019-08-07T08:05:00	0.2051	14.873	200.7	0.483653824	0.575418372	0.008199086	0.084588460	0.026070985
2019-08-07T08:10:00	0.2050	14.926	199.7	0.483455307	0.575146410	0.008192968	0.084525344	0.026051532
2019-08-07T08:15:00	0.2049	14.977	213.9	0.482911641	0.574401769	0.008176225	0.084352611	0.025998294
2019-08-07T08:20:00	0.2068	14.997	199.6	0.489609568	0.583592173	0.008383680	0.086492882	0.026657946
2019-08-07T08:25:00	0.2063	15.035	199.3	0.487688489	0.580952540	0.008323915	0.085876296	0.026467908
2019-08-07T08:30:00	0.2072	15.022	212.3	0.490935355	0.585415576	0.008425049	0.086919681	0.026789490
2019-08-07T08:35:00	0.2061	15.035	197.6	0.486947187	0.579934754	0.008300910	0.085638954	0.026394757
2019-08-07T08:40:00	0.2062	15.042	212.3	0.487438322	0.580609019	0.008316148	0.085796164	0.026443211
2019-08-07T08:45:00	0.2067	15.062	197.2	0.489307686	0.583177180	0.008374274	0.086395845	0.026628039
2019-08-07T08:50:00	0.2080	15.105	210.6	0.493585379	0.589064473	0.008508043	0.087775909	0.027053388
2019-08-07T08:55:00	0.2073	15.135	195.1	0.491322262	0.585947970	0.008437141	0.087044432	0.026827939
2019-08-07T09:00:00	0.2076	15.169	194.3	0.492156999	0.587096995	0.008463259	0.087313878	0.026910985
2019-08-07T09:05:00	0.2057	15.233	192.5	0.485757065	0.578301669	0.008264042	0.085258596	0.026277527
2019-08-07T09:10:00	0.2065	15.300	189.8	0.488316635	0.581815311	0.008343433	0.086077664	0.026529972
2019-08-07T09:15:00	0.2038	15.330	188.8	0.479146272	0.569250942	0.008060732	0.083161085	0.025631054
2019-08-07T09:20:00	0.2045	15.305	190.3	0.481710834	0.572757899	0.008139305	0.083971712	0.025880897
2019-08-07T09:25:00	0.2046	15.302	189.4	0.481857482	0.572958595	0.008143810	0.084018184	0.025895220
2019-08-07T09:30:00	0.2037	15.320	183.9	0.478895474	0.568908266	0.008053068	0.083082019	0.025606685
2019-08-07T09:35:00	0.2037	15.352	181.1	0.478696678	0.568636677	0.008046996	0.083019374	0.025587377
2019-08-07T09:40:00	0.2041	15.350	179.4	0.480225453	0.570726048	0.008093750	0.083501727	0.025736043
2019-08-07T09:45:00	0.2048	15.365	177.0	0.482789198	0.574234096	0.008172457	0.084313733	0.025986311
2019-08-07T09:50:00	0.2042	15.347	176.1	0.480518872	0.571127277	0.008102739	0.083594463	0.025764625
2019-08-07T09:55:00	0.2047	15.329	175.7	0.482392051	0.573690324	0.008160240	0.084187691	0.025947464
2019-08-07T10:00:00	0.2052	15.358	173.0	0.483919160	0.575781921	0.008207267	0.084672857	0.026096997
2019-08-07T10:05:00	0.2017	15.356	170.7	0.471967827	0.559462511	0.007842802	0.080912738	0.024938092
2019-08-07T10:10:00	0.2015	15.369	168.3	0.471075966	0.558249244	0.007815932	0.080635526	0.024852652
2019-08-07T10:15:00	0.2015	15.376	166.6	0.471223076	0.558449326	0.007820361	0.080681219	0.024866735
2019-08-07T10:20:00	0.2029	15.408	165.3	0.476215381	0.565249463	0.007971397	0.082239428	0.025346990
2019-08-07T10:25:00	0.2021	15.413	163.4	0.473248429	0.561205717	0.007881463	0.081311602	0.025061025
2019-08-07T10:30:00	0.2013	15.423	154.3	0.470625298	0.557636406	0.007802371	0.080495625	0.024809533
2019-08-07T10:35:00	0.2013	15.433	155.8	0.470426014	0.557365464	0.007796379	0.080433800	0.024790478
2019-08-07T10:40:00	0.2012	15.453	155.9	0.470226720	0.557094537	0.007790388	0.080371995	0.024771429
2019-08-07T10:45:00	0.1997	15.496	154.1	0.464826329	0.549765108	0.007628918	0.078706143	0.024257998
2019-08-07T10:50:00	0.2006	15.493	152.0	0.468095189	0.554198851	0.007726457	0.079712431	0.024568145
2019-08-07T10:55:00	0.2009	15.495	152.5	0.469282234	0.555811008	0.007762028	0.080079410	0.024681252
2019-08-07T11:00:00	0.2003	15.503	149.5	0.467002818	0.552716263	0.007693794	0.079375454	0.024464286
2019-08-07T11:05:00	0.2004	15.496	141.2	0.467496855	0.553386664	0.007708558	0.079527769	0.024511231
2019-08-07T11:10:00	0.2010	15.467	137.6	0.469377260	0.555940113	0.007764879	0.080108823	0.024690317
2019-08-07T11:15:00	0.2031	15.459	133.6	0.476793608	0.566038361	0.007988982	0.082420857	0.025402909
2019-08-07T11:20:00	0.2039	15.426	88.6	0.479359952	0.569542942	0.008067264	0.083228478	0.025651825
2019-08-07T11:25:00	0.2048	15.433	109.2	0.482614792	0.573995285	0.008167091	0.084258371	0.025969248
2019-08-07T11:30:00	0.2042	15.458	117.2	0.480689748	0.571360968	0.008107976	0.083648493	0.025781278
2019-08-07T11:35:00	0.2062	15.499	117.1	0.487392058	0.580545496	0.008314712	0.085781349	0.026438645
2019-08-07T11:40:00	0.2058	15.558	122.0	0.486159443	0.578853685	0.008276498	0.085387100	0.026317134
2019-08-07T11:45:00	0.2039	15.585	123.0	0.479402686	0.569601344	0.008068571	0.083241959	0.025655980
2019-08-07T11:50:00	0.2041	15.569	123.0	0.480240359	0.570746430	0.008094207	0.083506437	0.025737495
2019-08-07T11:55:00	0.2031	15.588	123.7	0.476585406	0.565754272	0.007982648	0.082355507	0.025382767
2019-08-07T12:00:00	0.2029	15.619	124.9	0.476040636	0.565011103	0.007966086	0.082184638	0.025330104
2019-08-07T12:05:00	0.2023	15.689	124.9	0.474111849	0.562381775	0.007907583	0.081581075	0.025144080
2019-08-07T12:10:00	0.2024	15.719	124.3	0.474258828	0.562582032	0.007912033	0.081626991	0.025158231
2019-08-07T12:15:00	0.2000	15.683	123.4	0.466091021	0.551479477	0.007666583	0.079094720	0.024377761
2019-08-07T12:20:00	0.1973	15.657	122.4	0.456512203	0.538526319	0.007383583	0.076175066	0.023477895
2019-08-07T12:25:00	0.1975	15.612	119.4	0.457355578	0.539663877	0.007408290	0.076429963	0.023556457
2019-08-07T12:30:00	0.1958	15.620	116.0	0.451237724	0.531424753	0.007229984	0.074590415	0.022989490
2019-08-07T12:35:00	0.1978	15.647	112.5	0.458346416	0.541001052	0.007437369	0.076729962	0.023648919
2019-08-07T12:40:00	0.1970	15.698	101.7	0.455711652	0.537447042	0.007360168	0.075933499	0.023403442
2019-08-07T12:45:00	0.1964	15.734	101.3	0.453423022	0.534364378	0.007293431	0.075244979	0.023191233
2019-08-07T12:50:00	0.1932	15.727	101.7	0.442410914	0.519589351	0.006976476	0.071975017	0.022183399
2019-08-07T12:55:00	0.1964	15.709	101.2	0.453370611	0.534293831	0.007291906	0.075229247	0.023186385
2019-08-07T13:00:00	0.1946	15.708	102.8	0.447245479	0.526064170	0.007114778	0.073401850	0.022623163
2019-08-07T13:05:00	0.1939	15.737	104.6	0.444951061	0.522989020	0.007048976	0.072722988	0.022413931
2019-08-07T13:10:00	0.1951	15.745	105.7	0.448936681	0.528333497	0.007163471	0.073904211	0.022777996
2019-08-07T13:15:00	0.1940	15.753	106.4	0.445247571	0.523386191	0.007057463	0.072810544	0.022440917
2019-08-07T13:20:00	0.1934	15.746	107.5	0.442951782	0.520312811	0.006991883	0.072133964	0.022232388
2019-08-07T13:25:00	0.1921	15.726	108.8	0.439120002	0.514442796	0.006873077	0.070908269	0.021854617
2019-08-07T13:30:00	0.1949	15.714	111.3	0.448134319	0.527256574	0.007140349	0.073665666	0.022704474
2019-08-07T13:35:00	0.1965	15.760	117.3	0.453857309	0.534949022	0.007306072	0.075375395	0.023231429
2019-08-07T13:40:00	0.1955	15.706	122.2	0.450522118	0.530462951	0.007209267	0.074376679	0.022923615
2019-08-07T13:45:00	0.1988	15.711	125.0	0.461802726	0.545671561	0.007539241	0.077780959	0.023972847
2019-08-07T13:50:00	0.1979	15.724	128.0	0.458823062	0.541644582	0.007451377	0.076874483	0.023693462
2019-08-07T13:55:00	0.2027	15.715	129.7	0.475268924	0.563958748	0.007942653	0.081942887	0.025255594
2019-08-07T14:00:00	0.2045	15.744	130.5	0.481636686	0.572656430	0.008137028	0.083948220	0.025873657
2019-08-07T14:05:00	0.2065	15.714	129.9	0.488337127	0.581843462	0.008344070	0.086084237	0.026531998
2019-08-07T14:10:00	0.2059	15.700	128.5	0.486415328	0.579204796	0.008284424	0.085468870	0.026342336
2019-08-07T14:15:00	0.2055	15.682	127.8	0.485182358	0.577513462	0.008246268	0.085075222	0.026221010
2019-08-07T14:20:00	0.2055	15.683	127.7	0.484983930	0.577241380	0.008240135	0.085011954	0.026201510
2019-08-07T14:25:00	0.2052	15.683	127.6	0.484095492	0.576023554	0.008212705	0.084728967	0.026114291
2019-08-07T14:30:00	0.2048	15.673	127.5	0.482516502	0.573860708	0.008164067	0.084227178	0.025959634
2019-08-07T14:35:00	0.2037	15.683	127.7	0.478864006	0.568865272	0.008052107	0.083072101	0.025603628
2019-08-07T14:40:00	0.2052	15.670	127.6	0.483845061	0.575680388	0.008204982	0.084649284	0.026089731
2019-08-07T14:45:00	0.2056	15.653	127.4	0.485371516	0.577772861	0.008252116	0.085135556	0.026239605
2019-08-07T14:50:00	0.2049	15.642	126.7	0.483102919	0.574663729	0.008182114	0.084413364	0.026017019
2019-08-07T14:55:00	0.2036	15.625	126.6	0.478414374	0.568251057	0.008038377	0.082930454	0.025559971
2019-08-07T15:00:00	0.2015	15.606	126.0	0.471295805	0.558548250	0.007822551	0.080703813	0.024873699
2019-08-07T15:05:00	0.2028	15.594	125.5	0.475596271	0.564405081	0.007952589	0.082045391	0.025287186
2019-08-07T15:10:00	0.2037	15.564	126.1	0.478854729	0.568852599	0.008051823	0.083069178	0.025602727
2019-08-07T15:15:00	0.2021	15.547	125.4	0.473121990	0.561033545	0.007877642	0.081272178	0.025048874
2019-08-07T15:20:00	0.2028	15.533	124.6	0.475691119	0.564534421	0.007955469	0.082075103	0.025296344
2019-08-07T15:25:00	0.2013	15.527	124.3	0.470645896	0.557664413	0.007802991	0.080502017	0.024811503
2019-08-07T15:30:00	0.2021	15.535	124.4	0.473216908	0.561162793	0.007880510	0.081301773	0.025057996
2019-08-07T15:35:00	0.2043	15.525	123.6	0.480970220	0.571744594	0.008116575	0.083737213	0.025808622
2019-08-07T15:40:00	0.2034	15.507	125.3	0.477661763	0.567223319	0.008015422	0.082693627	0.025486979
2019-08-07T15:45:00	0.2035	15.505	134.7	0.478154244	0.567895782	0.008030439	0.082848560	0.025534731
2019-08-07T15:50:00	0.2026	15.497	132.7	0.475188993	0.563849775	0.007940228	0.081917868	0.025247882
2019-08-07T15:55:00	0.2045	15.496	139.7	0.481556904	0.572547257	0.008134579	0.083922947	0.025865867
2019-08-07T16:00:00	0.2037	15.482	137.6	0.478940210	0.568969387	0.008054435	0.083096120	0.025611031
2019-08-07T16:05:00	0.2030	15.478	138.1	0.476480752	0.565611486	0.007979465	0.082322669	0.025372646
2019-08-07T16:10:00	0.2024	15.464	138.1	0.474365549	0.562727450	0.007915266	0.081660338	0.025168509
2019-08-07T16:15:00	0.2024	15.445	137.6	0.474325848	0.562673352	0.007914063	0.081647932	0.025164685
2019-08-07T16:20:00	0.2016	15.437	137.4	0.471516729	0.558848768	0.007829205	0.080772467	0.024894859
2019-08-07T16:25:00	0.2019	15.426	151.9	0.472515803	0.560208277	0.007859334	0.081083296	0.024990659
2019-08-07T16:30:00	0.2016	15.413	139.3	0.471437258	0.558740660	0.007826811	0.080747767	0.024887246
2019-08-07T16:35:00	0.2023	15.406	155.4	0.473820970	0.561985505	0.007898779	0.081490243	0.025116084
2019-08-07T16:40:00	0.2013	15.390	155.4	0.470665043	0.557690447	0.007803567	0.080507958	0.024813335
2019-08-07T16:45:00	0.2008	15.393	154.4	0.468892801	0.555281986	0.007750349	0.079958924	0.024644117
2019-08-07T16:50:00	0.2018	15.392	168.1	0.472317180	0.559937935	0.007853339	0.081021454	0.024971599
2019-08-07T16:55:00	0.2024	15.373	166.4	0.474354262	0.562712070	0.007914924	0.081656811	0.025167422
2019-08-07T17:00:00	0.2033	15.368	152.9	0.477427418	0.566903400	0.008008280	0.082619953	0.025464272
2019-08-07T17:05:00	0.2038	15.350	168.0	0.479115902	0.569209443	0.008059804	0.083151508	0.025628102
2019-08-07T17:10:00	0.2029	15.335	170.1	0.475964915	0.564907824	0.007963785	0.082160901	0.025322788
2019-08-07T17:15:00	0.2032	15.329	185.8	0.476962675	0.566269076	0.007994128	0.082473942	0.025419270
2019-08-07T17:20:00	0.2014	15.310	185.0	0.470693488	0.557729124	0.007804422	0.080516786	0.024816055
2019-08-07T17:25:00	0.2034	15.296	186.6	0.477920482	0.567576566	0.008023309	0.082775001	0.025512059
2019-08-07T17:30:00	0.2022	15.280	186.1	0.473730264	0.561861947	0.007896034	0.081461928	0.025107357
2019-08-07T17:35:00	0.2021	15.285	185.8	0.473344441	0.561336464	0.007884366	0.081341546	0.025070254
2019-08-07T17:40:00	0.2039	15.264	186.3	0.479529438	0.569774577	0.008072447	0.083281952	0.025668306
2019-08-07T17:45:00	0.2041	15.243	186.0	0.480180734	0.570664904	0.008092380	0.083487597	0.025731688
2019-08-07T17:50:00	0.2049	15.236	176.3	0.482903470	0.574390579	0.008175974	0.084350016	0.025997494
2019-08-07T17:55:00	0.2056	15.219	176.6	0.485279126	0.577646160	0.008249259	0.085106084	0.026230522
2019-08-07T18:00:00	0.2062	15.208	177.3	0.487308429	0.580430674	0.008312116	0.085754572	0.026430392
2019-08-07T18:05:00	0.2061	15.193	175.6	0.487268879	0.580376373	0.008310889	0.085741910	0.026426489
2019-08-07T18:10:00	0.2064	15.181	180.7	0.488263318	0.581742067	0.008341776	0.086060563	0.026524701
2019-08-07T18:15:00	0.2070	15.172	183.8	0.490290840	0.584528976	0.008404926	0.086712068	0.026725501
2019-08-07T18:20:00	0.2064	15.163	188.9	0.488184239	0.581633436	0.008339318	0.086035201	0.026516885
2019-08-07T18:25:00	0.2079	15.149	192.4	0.493310118	0.588685196	0.008499403	0.087686777	0.027025916
2019-08-07T18:30:00	0.2082	15.140	192.9	0.494302792	0.590053270	0.008530580	0.088008424	0.027125051
2019-08-07T18:35:00	0.2074	15.132	193.5	0.491510181	0.586206594	0.008443017	0.087105055	0.026846624
2019-08-07T18:40:00	0.2046	15.121	193.9	0.481816969	0.572903148	0.008142565	0.084005344	0.025891263
2019-08-07T18:45:00	0.2113	15.114	207.0	0.504832092	0.604613155	0.008864771	0.091456212	0.028187693
2019-08-07T18:50:00	0.2110	15.094	207.2	0.504106789	0.603607348	0.008841546	0.091216596	0.028113841
2019-08-07T18:55:00	0.2116	15.086	207.5	0.506124909	0.606407009	0.008906245	0.091884093	0.028319570
2019-08-07T19:00:00	0.2105	15.076	207.7	0.502312546	0.601121019	0.008784221	0.090625186	0.027931562
2019-08-07T19:05:00	0.2107	15.066	207.8	0.502959493	0.602017212	0.008804869	0.090838208	0.027997218
2019-08-07T19:10:00	0.2114	15.054	207.9	0.505321199	0.605291659	0.008880451	0.091617973	0.028237549
2019-08-07T19:15:00	0.2108	15.041	208.0	0.503223873	0.602383544	0.008813314	0.090925333	0.028024071
2019-08-07T19:20:00	0.2106	15.028	208.3	0.502498228	0.601378203	0.008790145	0.090686300	0.027950399
2019-08-07T19:25:00	0.2094	15.017	208.4	0.498338236	0.595622937	0.008657906	0.089322019	0.027529914
2019-08-07T19:30:00	0.2118	15.005	208.6	0.506535177	0.606976559	0.008919427	0.092020087	0.028361484
2019-08-07T19:35:00	0.2128	14.993	208.6	0.510264268	0.612159658	0.009039688	0.093260797	0.028743883
2019-08-07T19:40:00	0.2121	14.982	208.7	0.507827351	0.608771293	0.008961008	0.092449068	0.028493700
2019-08-07T19:45:00	0.2141	14.970	208.9	0.514634045	0.618247542	0.009181636	0.094725241	0.029195239
2019-08-07T19:50:00	0.2137	14.959	209.1	0.513226687	0.616285154	0.009135798	0.094252347	0.029049489
2019-08-07T19:55:00	0.2151	14.948	209.2	0.517973535	0.622910462	0.009290861	0.095852104	0.029542549
2019-08-07T20:00:00	0.2160	14.939	209.3	0.521007632	0.627154793	0.009390660	0.096881707	0.029859883
2019-08-07T20:05:00	0.2144	14.929	209.5	0.515502871	0.619459813	0.009209990	0.095017772	0.029285400
2019-08-07T20:10:00	0.2154	14.920	209.6	0.518880703	0.624178698	0.009320644	0.096159368	0.029637251
2019-08-07T20:15:00	0.2142	14.912	209.7	0.515082524	0.618873227	0.009196266	0.094876186	0.029241762
2019-08-07T20:20:00	0.2139	14.901	209.7	0.514017387	0.617387491	0.009161537	0.094517889	0.029131331
2019-08-07T20:25:00	0.2137	14.894	209.8	0.513294029	0.616379018	0.009137989	0.094274948	0.029056454
2019-08-07T20:30:00	0.2133	14.884	209.8	0.511886120	0.614417388	0.009092243	0.093802997	0.028910995
2019-08-07T20:35:00	0.2152	14.875	209.9	0.518343194	0.623427171	0.009302992	0.095977251	0.029581121
2019-08-07T20:40:00	0.2142	14.866	209.9	0.514886370	0.618599547	0.009189866	0.094810151	0.029221409
2019-08-07T20:45:00	0.2152	14.858	210.0	0.518264809	0.623317594	0.009300419	0.095950707	0.029572940
2019-08-07T20:50:00	0.2164	14.850	210.0	0.522322381	0.628996286	0.009434071	0.097329573	0.029997920
2019-08-07T20:55:00	0.2157	14.841	210.1	0.519894020	0.625596120	0.009353968	0.096503169	0.029743214
2019-08-07T21:00:00	0.2131	14.832	210.1	0.511308241	0.613612697	0.009073500	0.093609626	0.028851396
2019-08-07T21:05:00	0.2140	14.822	210.1	0.514348235	0.617848885	0.009172317	0.094629108	0.029165610
2019-08-07T21:10:00	0.2142	14.812	210.2	0.514992910	0.618748191	0.009193342	0.094846015	0.029232463
2019-08-07T21:15:00	0.2143	14.801	210.2	0.515295589	0.619170537	0.009203221	0.094947940	0.029263877
2019-08-07T21:20:00	0.2155	14.790	210.3	0.519356670	0.624844373	0.009336290	0.096320779	0.029686999
2019-08-07T21:25:00	0.2161	14.775	210.3	0.521365831	0.627656364	0.009402477	0.097003624	0.029897459
2019-08-07T21:30:00	0.2158	14.764	210.3	0.520302643	0.626167934	0.009367423	0.096641981	0.029785997
2019-08-07T21:35:00	0.2157	14.752	210.4	0.519922057	0.625635350	0.009354891	0.096512690	0.029746148
2019-08-07T21:40:00	0.2164	14.740	210.4	0.522272104	0.628925840	0.009432409	0.097312427	0.029992635
2019-08-07T21:45:00	0.2145	14.729	210.5	0.516085813	0.620273531	0.009229039	0.095214299	0.029345972
2019-08-07T21:50:00	0.2156	14.718	210.5	0.519804532	0.625470911	0.009351023	0.096472782	0.029733848
2019-08-07T21:55:00	0.2149	14.706	210.5	0.517374390	0.622073213	0.009271217	0.095649440	0.029480086
2019-08-07T22:00:00	0.2156	14.695	210.6	0.519726180	0.625361288	0.009348445	0.096446181	0.029725650
2019-08-07T22:05:00	0.2147	14.683	210.6	0.516464307	0.620802014	0.009241418	0.095342010	0.029385333
2019-08-07T22:10:00	0.2142	14.671	210.6	0.514909413	0.618631696	0.009190618	0.094817908	0.029223800
2019-08-07T22:15:00	0.2167	14.658	210.6	0.523601089	0.630788642	0.009476389	0.097766155	0.030132479
2019-08-07T22:20:00	0.2187	14.647	210.6	0.530228996	0.640100221	0.009697258	0.100044820	0.030834785
2019-08-07T22:25:00	0.2177	14.635	210.6	0.526977073	0.635527117	0.009588571	0.098923516	0.030489188
2019-08-07T22:30:00	0.2199	14.625	210.6	0.534278588	0.645807104	0.009833466	0.101450060	0.031267894
2019-08-07T22:35:00	0.2190	14.614	210.6	0.531370798	0.641707952	0.009735566	0.100440035	0.030956594
2019-08-07T22:40:00	0.2197	14.602	210.5	0.533565564	0.644801306	0.009809414	0.101201919	0.031191414
2019-08-07T22:45:00	0.2195	14.590	210.5	0.533038933	0.644058703	0.009791669	0.101018842	0.031134988
2019-08-07T22:50:00	0.2172	14.576	210.5	0.525019997	0.632779069	0.009523457	0.098251754	0.030282145
2019-08-07T22:55:00	0.2195	14.564	210.4	0.533005995	0.644012264	0.009790559	0.101007397	0.031131461
2019-08-07T23:00:00	0.2200	14.551	210.4	0.534859783	0.646627249	0.009853094	0.101652550	0.031330303
2019-08-07T23:05:00	0.2200	14.538	210.3	0.534673340	0.646364122	0.009846795	0.101587570	0.031310276
2019-08-07T23:10:00	0.2195	14.525	210.3	0.533126653	0.644182381	0.009794624	0.101049325	0.031144383
2019-08-07T23:15:00	0.2207	14.511	210.3	0.537019432	0.649677220	0.009926198	0.102406758	0.031562757
2019-08-07T23:20:00	0.2179	14.499	210.3	0.527647359	0.636469020	0.009610923	0.099154119	0.030560262
2019-08-07T23:25:00	0.2172	14.486	210.2	0.525074906	0.632856128	0.009525281	0.098270570	0.030287944
2019-08-07T23:30:00	0.2193	14.473	210.2	0.532380446	0.643130486	0.009769503	0.100790161	0.031064506
2019-08-07T23:35:00	0.2195	14.459	210.1	0.532874237	0.643826510	0.009786122	0.100961621	0.031117352
2019-08-07T23:40:00	0.2195	14.446	210.1	0.533027838	0.644043060	0.009791295	0.101014987	0.031133800
2019-08-07T23:45:00	0.2202	14.432	210.0	0.535221551	0.647137891	0.009865320	0.101778693	0.031369182
2019-08-07T23:50:00	0.2197	14.421	210.0	0.533675109	0.644955805	0.009813108	0.101240023	0.031203158
2019-08-07T23:55:00	0.2217	14.410	209.9	0.540623117	0.654775014	0.010048791	0.103671525	0.031952571
2019-08-08T00:00:00	0.2190	14.399	209.9	0.531260833	0.641553067	0.009731873	0.100401938	0.030944852
2019-08-08T00:05:00	0.2179	14.389	209.9	0.527669236	0.636499769	0.009611653	0.099161650	0.030562584
2019-08-08T00:10:00	0.2191	14.379	209.8	0.531568173	0.641985976	0.009742195	0.100508433	0.030977675
2019-08-08T00:15:00	0.2175	14.370	209.7	0.526273307	0.634538558	0.009565130	0.098681685	0.030414654
2019-08-08T00:20:00	0.2198	14.359	209.7	0.533916375	0.645296111	0.009821244	0.101323968	0.031229031
2019-08-08T00:25:00	0.2185	14.349	209.7	0.529646674	0.639280682	0.009677750	0.099843560	0.030772755
2019-08-08T00:30:00	0.2180	14.337	209.7	0.527757092	0.636623255	0.009614585	0.099191897	0.030571906
2019-08-08T00:35:00	0.2183	14.328	209.6	0.528932691	0.638276226	0.009653858	0.099597076	0.030696786
2019-08-08T00:40:00	0.2176	14.316	209.6	0.526361199	0.634661995	0.009568056	0.098711871	0.030423957
2019-08-08T00:45:00	0.2186	14.306	209.6	0.529921190	0.639666991	0.009686944	0.099938412	0.030801989
2019-08-08T00:50:00	0.2199	14.293	209.5	0.534497630	0.646116170	0.009840861	0.101526351	0.031291407
2019-08-08T00:55:00	0.2197	14.281	209.3	0.533631083	0.644893711	0.009811623	0.101224708	0.031198438
2019-08-08T01:00:00	0.2170	14.268	209.3	0.524590771	0.632176784	0.009509207	0.098104731	0.030236831
2019-08-08T01:05:00	0.2162	14.256	209.3	0.521674790	0.628089068	0.009412676	0.097108843	0.029929889
2019-08-08T01:10:00	0.2183	14.242	209.2	0.528987538	0.638353372	0.009655692	0.099615999	0.030702618
2019-08-08T01:15:00	0.2163	14.228	209.2	0.521982987	0.628520782	0.009422855	0.097213860	0.029962256
2019-08-08T01:20:00	0.2156	14.213	209.1	0.519747760	0.625391480	0.009349155	0.096453507	0.029727908
2019-08-08T01:25:00	0.2156	14.200	209.1	0.519560497	0.625129497	0.009342994	0.096389942	0.029708316
2019-08-08T01:30:00	0.2160	14.185	209.0	0.521080233	0.627256446	0.009393054	0.096906411	0.029867497
2019-08-08T01:35:00	0.2180	14.172	209.0	0.528053634	0.637040107	0.009624484	0.099294024	0.030603383
2019-08-08T01:40:00	0.2168	14.155	208.9	0.523776659	0.631034841	0.009482206	0.097826176	0.030150978
2019-08-08T01:45:00	0.2166	14.139	208.8	0.523248531	0.630294331	0.009464712	0.097645685	0.030095349
2019-08-08T01:50:00	0.2158	14.126	208.7	0.520331411	0.626208197	0.009368371	0.096651758	0.029789010
2019-08-08T01:55:00	0.2160	14.112	208.7	0.521168258	0.627379698	0.009395958	0.096936368	0.029876730
2019-08-08T02:00:00	0.2171	14.099	208.7	0.524733620	0.632377212	0.009513948	0.098153649	0.030251908
2019-08-08T02:05:00	0.2158	14.085	208.7	0.520452514	0.626377694	0.009372361	0.096692919	0.029801697
2019-08-08T02:10:00	0.2168	14.068	208.6	0.523677576	0.630895895	0.009478923	0.097792301	0.030140537
2019-08-08T02:15:00	0.2174	14.056	208.6	0.525877245	0.633982399	0.009551951	0.098545720	0.030372748
2019-08-08T02:20:00	0.2171	14.039	208.5	0.524667584	0.632284555	0.009511756	0.098131034	0.030244938
2019-08-08T02:25:00	0.2160	14.030	208.5	0.521069100	0.627240857	0.009392687	0.096902623	0.029866329
2019-08-08T02:30:00	0.2163	14.022	208.5	0.522246985	0.628890645	0.009431579	0.097303861	0.029989995
2019-08-08T02:35:00	0.2155	14.011	208.3	0.519329015	0.624805691	0.009335380	0.096311396	0.029684108
2019-08-08T02:40:00	0.2158	14.002	208.4	0.520507496	0.626454652	0.009374172	0.096711609	0.029807457
2019-08-08T02:45:00	0.2156	13.993	208.4	0.519637422	0.625237113	0.009345524	0.096416051	0.029716363
2019-08-08T02:50:00	0.2150	13.982	208.3	0.517742333	0.622587345	0.009283279	0.095773873	0.029518438
2019-08-08T02:55:00	0.2150	13.971	208.3	0.517554961	0.622325513	0.009277135	0.095710496	0.029498905
2019-08-08T03:00:00	0.2132	13.960	208.4	0.511553988	0.613954865	0.009081468	0.093691834	0.028876733
2019-08-08T03:05:00	0.2154	13.952	208.3	0.518888285	0.624189301	0.009320893	0.096161938	0.029638043
2019-08-08T03:10:00	0.2165	13.939	208.2	0.522797176	0.629661647	0.009449773	0.097491565	0.030047847
2019-08-08T03:15:00	0.2160	13.929	208.3	0.520903829	0.627009463	0.009387237	0.096846391	0.029848998
2019-08-08T03:20:00	0.2141	13.919	208.2	0.514566768	0.618153696	0.009179442	0.094702608	0.029188264
2019-08-08T03:25:00	0.2143	13.903	208.1	0.515405021	0.619323252	0.009206795	0.094984803	0.029275239
2019-08-08T03:30:00	0.2155	13.893	208.2	0.519317875	0.624790110	0.009335014	0.096307618	0.029682943
2019-08-08T03:35:00	0.2144	13.881	208.3	0.515713781	0.619754186	0.009216880	0.095088852	0.029307308
2019-08-08T03:40:00	0.2170	13.871	208.1	0.524403424	0.631913947	0.009502990	0.098040594	0.030217063
2019-08-08T03:45:00	0.2150	13.861	208.1	0.517731189	0.622571771	0.009282913	0.095770103	0.029517276
2019-08-08T03:50:00	0.2152	13.851	208.0	0.518227085	0.623264862	0.009299181	0.095937934	0.029569003
2019-08-08T03:55:00	0.2159	13.842	208.1	0.520771607	0.626824357	0.009382877	0.096801416	0.029835136
2019-08-08T04:00:00	0.2167	13.832	208.1	0.523314247	0.630386462	0.009466888	0.097668135	0.030102268
2019-08-08T04:05:00	0.2140	13.823	208.0	0.514289048	0.617766338	0.009170388	0.094609207	0.029159476
2019-08-08T04:10:00	0.2150	13.813	208.0	0.517562159	0.622335571	0.009277371	0.095712931	0.029499655
2019-08-08T04:15:00	0.2162	13.803	208.1	0.521856025	0.628342927	0.009418661	0.097170591	0.029948920
2019-08-08T04:20:00	0.2160	13.793	207.9	0.521028508	0.627184022	0.009391348	0.096888810	0.029862072
2019-08-08T04:25:00	0.2164	13.784	208.0	0.522589792	0.629371004	0.009442913	0.097420792	0.030026034
2019-08-08T04:30:00	0.2176	13.775	207.9	0.526536628	0.634908390	0.009573897	0.098772134	0.030442531
2019-08-08T04:35:00	0.2172	13.764	207.9	0.525028453	0.632790936	0.009523738	0.098254652	0.030283038
2019-08-08T04:40:00	0.2182	13.756	207.9	0.528631944	0.637853248	0.009643803	0.099493342	0.030664814
2019-08-08T04:45:00	0.2173	13.750	207.8	0.525420675	0.633341431	0.009536770	0.098389099	0.030324476
2019-08-08T04:50:00	0.2171	13.744	207.8	0.524934967	0.632659744	0.009520633	0.098222620	0.030273165
2019-08-08T04:55:00	0.2175	13.736	207.8	0.526153682	0.634370565	0.009561149	0.098640609	0.030401994
2019-08-08T05:00:00	0.2175	13.728	207.7	0.526349735	0.634645894	0.009567674	0.098707933	0.030422744
2019-08-08T05:05:00	0.2174	13.721	207.9	0.525864158	0.633964024	0.009551516	0.098541229	0.030371364
2019-08-08T05:10:00	0.2179	13.716	207.8	0.527423250	0.636154056	0.009603447	0.099076987	0.030536490
2019-08-08T05:15:00	0.2166	13.709	207.7	0.523187681	0.630209026	0.009462697	0.097624900	0.030088942
2019-08-08T05:20:00	0.2174	13.704	207.8	0.525770694	0.633832800	0.009548407	0.098509158	0.030361479
2019-08-08T05:25:00	0.2190	13.697	207.8	0.531415778	0.641771309	0.009737076	0.100455620	0.030961398
2019-08-08T05:30:00	0.2187	13.695	207.7	0.530250163	0.640130016	0.009697967	0.100052139	0.030837041
2019-08-08T05:35:00	0.2174	13.695	207.7	0.525677228	0.633701579	0.009545299	0.098477091	0.030351596
2019-08-08T05:40:00	0.2197	13.695	207.8	0.533703766	0.644996223	0.009814074	0.101249991	0.031206231
2019-08-08T05:45:00	0.2188	13.694	207.6	0.530497220	0.640477802	0.009706250	0.100137590	0.030863378
2019-08-08T05:50:00	0.2187	13.697	207.8	0.530352643	0.640274273	0.009701402	0.100087580	0.030847964
2019-08-08T05:55:00	0.2208	13.698	207.8	0.537349346	0.650143478	0.009937390	0.102522221	0.031598344
2019-08-08T06:00:00	0.2192	13.704	207.9	0.532105432	0.642742925	0.009760253	0.100694731	0.031035094
2019-08-08T06:05:00	0.2193	13.710	207.9	0.532301146	0.643018727	0.009766835	0.100762639	0.031056024
2019-08-08T06:10:00	0.2200	13.716	208.0	0.534537371	0.646172248	0.009842203	0.101540196	0.031295674
2019-08-08T06:15:00	0.2209	13.727	208.0	0.537791298	0.650768215	0.009952392	0.102676997	0.031646048
2019-08-08T06:20:00	0.2223	13.737	208.1	0.542399290	0.657291504	0.010109494	0.104297782	0.032145589
2019-08-08T06:25:00	0.2206	13.751	208.2	0.536823292	0.649400065	0.009919548	0.102338145	0.031541610
2019-08-08T06:30:00	0.2218	13.766	208.2	0.540753888	0.654960203	0.010053254	0.103717568	0.031966762
2019-08-08T06:35:00	0.2219	13.780	208.3	0.541288453	0.655717363	0.010071508	0.103905891	0.032024805
2019-08-08T06:40:00	0.2224	13.796	208.5	0.542840598	0.657917151	0.010124604	0.104453677	0.032193638
2019-08-08T06:45:00	0.2225	13.815	208.6	0.543035706	0.658193807	0.010131289	0.104522638	0.032214892
2019-08-08T06:50:00	0.2200	13.831	208.6	0.534742073	0.646461122	0.009849117	0.101611523	0.031317658
2019-08-08T06:55:00	0.2200	13.851	208.8	0.534597674	0.646257343	0.009844240	0.101561205	0.031302150
2019-08-08T07:00:00	0.2217	13.871	208.8	0.540567762	0.654696629	0.010046902	0.103652038	0.031946565
2019-08-08T07:05:00	0.2229	13.888	209.0	0.544494110	0.660262769	0.010181324	0.105038839	0.032373990
2019-08-08T07:10:00	0.2211	13.907	209.1	0.538581917	0.651886218	0.009979259	0.102954174	0.031731476
2019-08-08T07:15:00	0.2209	13.930	209.2	0.537758405	0.650721712	0.009951275	0.102665473	0.031642496
2019-08-08T07:20:00	0.2212	13.955	209.3	0.538633033	0.651958519	0.009980997	0.102972107	0.031737003
2019-08-08T07:25:00	0.2206	13.975	209.4	0.536790390	0.649353574	0.009918432	0.102326637	0.031538063
2019-08-08T07:30:00	0.2213	14.004	209.6	0.539023712	0.652511177	0.009994288	0.103109223	0.031779264
2019-08-08T07:35:00	0.2224	14.096	210.1	0.542951810	0.658074842	0.010128414	0.104492982	0.032205752
2019-08-08T07:40:00	0.2224	14.097	210.0	0.542807753	0.657870580	0.010123479	0.104442070	0.032190060
2019-08-08T07:45:00	0.2225	14.097	210.3	0.543342001	0.658628188	0.010141787	0.104630944	0.032248273
2019-08-08T07:50:00	0.2199	14.126	210.3	0.534369164	0.645934901	0.009836524	0.101481604	0.031277616
2019-08-08T07:55:00	0.2217	14.160	210.4	0.540339647	0.654373632	0.010039120	0.103571753	0.031921820
2019-08-08T08:00:00	0.2203	14.203	210.6	0.535780068	0.647926459	0.009884212	0.101973595	0.031429252
2019-08-08T08:05:00	0.2204	14.258	210.9	0.535975574	0.648202553	0.009890829	0.102041864	0.031450293
2019-08-08T08:10:00	0.2197	14.296	211.2	0.533791469	0.645119925	0.009817031	0.101280504	0.031215635
2019-08-08T08:15:00	0.2208	14.333	211.2	0.537385822	0.650195033	0.009938628	0.102534991	0.031602280
2019-08-08T08:20:00	0.2195	14.357	211.4	0.532822341	0.643753351	0.009784375	0.100943595	0.031111796
2019-08-08T08:25:00	0.2194	14.393	211.6	0.532677862	0.643549685	0.009779511	0.100893416	0.031096331
2019-08-08T08:30:00	0.2209	14.425	211.8	0.537632368	0.650543535	0.009946996	0.102621325	0.031628889
2019-08-08T08:35:00	0.2198	14.462	211.9	0.534089456	0.645540273	0.009827084	0.101384210	0.031247598
2019-08-08T08:40:00	0.2210	14.513	212.2	0.538023159	0.651096034	0.009960268	0.102758244	0.031671089
2019-08-08T08:45:00	0.2220	14.574	212.5	0.541613118	0.656177334	0.010082603	0.104020352	0.032060083
2019-08-08T08:50:00	0.2221	14.666	213.0	0.541808294	0.656453892	0.010089275	0.104089192	0.032081300
2019-08-08T08:55:00	0.2219	14.626	212.8	0.540985550	0.655288302	0.010061163	0.103799160	0.031991909
2019-08-08T09:00:00	0.2212	14.641	212.9	0.538804609	0.652201218	0.009986833	0.103032314	0.031755560
2019-08-08T09:05:00	0.2217	14.688	213.1	0.540357869	0.654399432	0.010039742	0.103578165	0.031923796
2019-08-08T09:10:00	0.2220	14.736	213.4	0.541571153	0.656117875	0.010081168	0.104005554	0.032055522
2019-08-08T09:15:00	0.2195	14.737	213.4	0.532933875	0.643910587	0.009788131	0.100982340	0.031123738
2019-08-08T09:20:00	0.2200	14.734	213.3	0.534829749	0.646584861	0.009852079	0.101642081	0.031327076
2019-08-08T09:25:00	0.2201	14.737	213.4	0.535025309	0.646860879	0.009858687	0.101710257	0.031348089
2019-08-08T09:30:00	0.2199	14.809	213.8	0.534200949	0.645697566	0.009830846	0.101423026	0.031259562
2019-08-08T09:35:00	0.2193	14.861	214.1	0.532355939	0.643095948	0.009768679	0.100781655	0.031061885
2019-08-08T09:40:00	0.2172	14.914	214.4	0.525059499	0.632834505	0.009524769	0.098265291	0.030286317
2019-08-08T09:45:00	0.2192	14.958	214.7	0.532066935	0.642688679	0.009758959	0.100681376	0.031030978
2019-08-08T09:50:00	0.2185	14.918	214.4	0.529539892	0.639130432	0.009674175	0.099806677	0.030761387
2019-08-08T09:55:00	0.2159	14.907	214.3	0.520872398	0.626965459	0.009386200	0.096835699	0.029845703
2019-08-08T10:00:00	0.2142	14.885	214.2	0.514919521	0.618645799	0.009190947	0.094821310	0.029224849
2019-08-08T10:05:00	0.2178	14.917	214.3	0.527059236	0.635642554	0.009591309	0.098951769	0.030497896
2019-08-08T10:10:00	0.2160	14.932	214.4	0.521114021	0.627303754	0.009394169	0.096917909	0.029871041
2019-08-08T10:15:00	0.2163	14.940	214.3	0.521989828	0.628530365	0.009423081	0.097216191	0.029962974
2019-08-08T10:20:00	0.2167	14.955	214.5	0.523547624	0.630713674	0.009474617	0.097747882	0.030126846
2019-08-08T10:25:00	0.2154	14.960	214.5	0.518962711	0.624293379	0.009323339	0.096187169	0.029645820
2019-08-08T10:30:00	0.2161	14.964	214.6	0.521545845	0.627908468	0.009408419	0.097064922	0.029916352
2019-08-08T10:35:00	0.2157	14.990	214.7	0.520032424	0.625789784	0.009358525	0.096550174	0.029757701
2019-08-08T10:40:00	0.2146	15.005	214.8	0.516126502	0.620330339	0.009230370	0.095228024	0.029350202
2019-08-08T10:45:00	0.2148	15.013	214.9	0.517003582	0.621555188	0.009259070	0.095524119	0.029441461
2019-08-08T10:50:00	0.2157	15.039	215.0	0.519929637	0.625645956	0.009355141	0.096515264	0.029746942
2019-08-08T10:55:00	0.2132	15.068	215.1	0.511577054	0.613986983	0.009082216	0.093699552	0.028879112
2019-08-08T11:00:00	0.2136	15.093	215.2	0.512797457	0.615686965	0.009121841	0.094108355	0.029005109
2019-08-08T11:05:00	0.2139	15.126	215.5	0.514017426	0.617387545	0.009161538	0.094517902	0.029131335
2019-08-08T11:10:00	0.2120	15.155	215.7	0.507364258	0.608127937	0.008946095	0.092295214	0.028446281
2019-08-08T11:15:00	0.2128	15.194	215.8	0.509956141	0.611730964	0.009029721	0.093157965	0.028712190
2019-08-08T11:20:00	0.2136	15.210	216.0	0.512888213	0.615813434	0.009124791	0.094138791	0.029014490
2019-08-08T11:25:00	0.2127	15.250	216.2	0.509659119	0.611317793	0.009020118	0.093058893	0.028681655
2019-08-08T11:30:00	0.2123	15.284	216.3	0.508483033	0.609682502	0.008982144	0.092667124	0.028560908
2019-08-08T11:35:00	0.2135	15.314	216.5	0.512443051	0.615193165	0.009110325	0.093989546	0.028968491
2019-08-08T11:40:00	0.2104	15.347	216.7	0.502013460	0.600706819	0.008774683	0.090526789	0.027901235
2019-08-08T11:45:00	0.2121	15.374	216.9	0.507694662	0.608586937	0.008956734	0.092404971	0.028480110
2019-08-08T11:50:00	0.2111	15.406	217.1	0.504460661	0.604098024	0.008852874	0.091333464	0.028149861
2019-08-08T11:55:00	0.2089	15.432	217.2	0.496757750	0.593440013	0.008607927	0.088806394	0.027370993
2019-08-08T12:00:00	0.2092	15.458	217.4	0.497639811	0.594658044	0.008635802	0.089093979	0.027459630
2019-08-08T12:05:00	0.2075	15.480	217.6	0.491987479	0.586863604	0.008457951	0.087259125	0.026894110
2019-08-08T12:10:00	0.2095	15.507	217.7	0.498716209	0.596145281	0.008669880	0.089445551	0.027567988
2019-08-08T12:15:00	0.2093	15.520	217.8	0.498223625	0.595464573	0.008654277	0.089284578	0.027518374
2019-08-08T12:20:00	0.2097	15.518	217.8	0.499448805	0.597158026	0.008693111	0.089685226	0.027641858
2019-08-08T12:25:00	0.2099	15.530	217.9	0.500330170	0.598377002	0.008721101	0.089973994	0.027730859
2019-08-08T12:30:00	0.2085	15.539	217.9	0.495370157	0.591525162	0.008564166	0.088354925	0.027231846
2019-08-08T12:35:00	0.2083	15.571	218.1	0.494533130	0.590370828	0.008537823	0.088083142	0.027148080
2019-08-08T12:40:00	0.2078	15.604	218.2	0.493007706	0.588268579	0.008489917	0.087588906	0.026995752
2019-08-08T12:45:00	0.2073	15.626	218.3	0.491137296	0.585693437	0.008431360	0.086984782	0.026809555
2019-08-08T12:50:00	0.2068	15.642	218.4	0.489610348	0.583593246	0.008383704	0.086493133	0.026658024
2019-08-08T12:55:00	0.2067	15.658	218.6	0.489116445	0.582914322	0.008368319	0.086334401	0.026609101
2019-08-08T13:00:00	0.2055	15.662	218.7	0.485174974	0.577503337	0.008246039	0.085072867	0.026220284
2019-08-08T13:05:00	0.2058	15.670	218.8	0.486060044	0.578717309	0.008273420	0.085355347	0.026307347
2019-08-08T13:10:00	0.2043	15.652	218.8	0.480733796	0.571421212	0.008109326	0.083662423	0.025785571
2019-08-08T13:15:00	0.2040	15.649	218.9	0.479893154	0.570271738	0.008083576	0.083396764	0.025703692
2019-08-08T13:20:00	0.2030	15.658	218.9	0.476286789	0.565346872	0.007973567	0.082261823	0.025353893
2019-08-08T13:25:00	0.2051	15.653	219.0	0.483736878	0.575532162	0.008201646	0.084614873	0.026079126
2019-08-08T13:30:00	0.2046	15.659	219.1	0.481861354	0.572963893	0.008143929	0.084019411	0.025895598
2019-08-08T13:35:00	0.2031	15.663	219.1	0.476874285	0.566148453	0.007991437	0.082446187	0.025410715
2019-08-08T13:40:00	0.2012	15.667	219.1	0.470148003	0.556987537	0.007788022	0.080347590	0.024763907
2019-08-08T13:45:00	0.2023	15.694	219.3	0.474152886	0.562437686	0.007908825	0.081593893	0.025148030
2019-08-08T13:50:00	0.2028	15.671	219.2	0.475732686	0.564591106	0.007956731	0.082088125	0.025300357
2019-08-08T13:55:00	0.2044	15.659	219.1	0.481112598	0.571939361	0.008120943	0.083782269	0.025822509
2019-08-08T14:00:00	0.2039	15.683	219.5	0.479581132	0.569845230	0.008074029	0.083298265	0.025673334
2019-08-08T14:05:00	0.2045	15.677	219.6	0.481503716	0.572474477	0.008132946	0.083906100	0.025860675
2019-08-08T14:10:00	0.2040	15.679	219.7	0.479972427	0.570380109	0.008086003	0.083421798	0.025711408
2019-08-08T14:15:00	0.2038	15.701	219.9	0.479131595	0.569230888	0.008060283	0.083156457	0.025629628
2019-08-08T14:20:00	0.2019	15.715	220.1	0.472756017	0.560535271	0.007866586	0.081158118	0.025013720
2019-08-08T14:25:00	0.2037	15.732	220.2	0.478831872	0.568821370	0.008051125	0.083061974	0.025600507
2019-08-08T14:30:00	0.2028	15.717	220.1	0.475570296	0.564369661	0.007951800	0.082037255	0.025284679
2019-08-08T14:35:00	0.2030	15.728	220.2	0.476457878	0.565580279	0.007978769	0.082315492	0.025370434
2019-08-08T14:40:00	0.2030	15.732	220.2	0.476307901	0.565375673	0.007974209	0.082268445	0.025355934
2019-08-08T14:45:00	0.2040	15.721	220.3	0.479960062	0.570363206	0.008085624	0.083417893	0.025710205
2019-08-08T14:50:00	0.2051	15.721	220.2	0.483608290	0.575355989	0.008197683	0.084573981	0.026066522
2019-08-08T14:55:00	0.2042	15.738	220.0	0.480696712	0.571370492	0.008108189	0.083650695	0.025781957
2019-08-08T15:00:00	0.2050	15.743	219.7	0.483308962	0.574945943	0.008188460	0.084478830	0.026037196
2019-08-08T15:05:00	0.2033	15.739	219.4	0.477287000	0.566711725	0.008004003	0.082575824	0.025450671
2019-08-08T15:10:00	0.2046	15.738	219.1	0.481974015	0.573118087	0.008147390	0.084055121	0.025906605
2019-08-08T15:15:00	0.2038	15.730	218.5	0.479061031	0.569134468	0.008058127	0.083134208	0.025622770
2019-08-08T15:20:00	0.2043	15.729	217.3	0.480983910	0.571763321	0.008116995	0.083741545	0.025809957
2019-08-08T15:25:00	0.2036	15.748	218.4	0.478415705	0.568252875	0.008038418	0.082930873	0.025560101
2019-08-08T15:30:00	0.2053	15.745	218.0	0.484481421	0.576552488	0.008224615	0.084851837	0.026152160
2019-08-08T15:35:00	0.2053	15.736	217.5	0.484331799	0.576347409	0.008219997	0.084804191	0.026137475
2019-08-08T15:40:00	0.2042	15.731	217.5	0.480384763	0.570943885	0.008098630	0.083552071	0.025751560
2019-08-08T15:45:00	0.2054	15.725	217.2	0.484722546	0.576883022	0.008232060	0.084928649	0.026175834
2019-08-08T15:50:00	0.2050	15.730	216.9	0.483192710	0.574786710	0.008184879	0.084441890	0.026025811
2019-08-08T15:55:00	0.2043	15.726	216.7	0.480971549	0.571746413	0.008116616	0.083737634	0.025808752
2019-08-08T16:00:00	0.2051	15.713	215.9	0.483583588	0.575322147	0.008196921	0.084566127	0.026064102
2019-08-08T16:05:00	0.2051	15.719	215.2	0.483641708	0.575401772	0.008198713	0.084584607	0.026069797
2019-08-08T16:10:00	0.2022	15.723	213.2	0.473677854	0.561790559	0.007894449	0.081445570	0.025102316
2019-08-08T16:15:00	0.2030	15.719	214.3	0.476503743	0.565642854	0.007980164	0.082329882	0.025374869
2019-08-08T16:20:00	0.2026	15.712	214.8	0.475178492	0.563835460	0.007939909	0.081914581	0.025246869
2019-08-08T16:25:00	0.2030	15.705	214.5	0.476274411	0.565329987	0.007973191	0.082257941	0.025352696
2019-08-08T16:30:00	0.2023	15.689	214.8	0.473911008	0.562108157	0.007901503	0.081518353	0.025124748
2019-08-08T16:35:00	0.2009	15.703	215.5	0.469120869	0.555591788	0.007757188	0.080029474	0.024665861
2019-08-08T16:40:00	0.1997	15.686	215.2	0.465017965	0.550024802	0.007634620	0.078764963	0.024276127
2019-08-08T16:45:00	0.1997	15.664	215.0	0.465076405	0.550104001	0.007636359	0.078782904	0.024281656
2019-08-08T16:50:00	0.1986	15.648	214.4	0.461315957	0.545013220	0.007524853	0.077632517	0.023927096
2019-08-08T16:55:00	0.1988	15.651	213.7	0.461721806	0.545562106	0.007536848	0.077756273	0.023965238
2019-08-08T17:00:00	0.1991	15.635	213.7	0.462822103	0.547050851	0.007569416	0.078092274	0.024068797
2019-08-08T17:05:00	0.1993	15.620	212.5	0.463574924	0.548069998	0.007591739	0.078322576	0.024139779
2019-08-08T17:10:00	0.1981	15.608	211.7	0.459465256	0.542511906	0.007470271	0.077069410	0.023753541
2019-08-08T17:15:00	0.1976	15.602	212.2	0.457785576	0.540244080	0.007420903	0.076560084	0.023596561
2019-08-08T17:20:00	0.1965	15.581	212.6	0.454016963	0.535163988	0.007310722	0.075423366	0.023246214
2019-08-08T17:25:00	0.1969	15.563	212.6	0.455119784	0.536649431	0.007342880	0.075755144	0.023348471
2019-08-08T17:30:00	0.1966	15.545	198.2	0.454134224	0.535321888	0.007314138	0.075458610	0.023257076
2019-08-08T17:35:00	0.1981	15.531	211.6	0.459410380	0.542437780	0.007468656	0.077052744	0.023748404
2019-08-08T17:40:00	0.1982	15.520	211.4	0.459816458	0.542986365	0.007480614	0.077176115	0.023786428
2019-08-08T17:45:00	0.1976	15.500	212.0	0.457789238	0.540249023	0.007421010	0.076561192	0.023596903
2019-08-08T17:50:00	0.1982	15.480	198.1	0.459933518	0.543144529	0.007484063	0.077211696	0.023797395
2019-08-08T17:55:00	0.1996	15.457	211.1	0.464506584	0.549331874	0.007619410	0.078608051	0.024227765
2019-08-08T18:00:00	0.1990	15.444	211.7	0.462482188	0.546590830	0.007559348	0.077988397	0.024036781
2019-08-08T18:05:00	0.2008	15.421	212.3	0.468785239	0.555135890	0.007747125	0.079925661	0.024633865
2019-08-08T18:10:00	0.2017	15.397	212.5	0.471961513	0.559453919	0.007842611	0.080910774	0.024937486
2019-08-08T18:15:00	0.2012	15.382	212.7	0.470288051	0.557177910	0.007792231	0.080391013	0.024777291
2019-08-08T18:20:00	0.2001	15.364	199.3	0.466186568	0.551609050	0.007669432	0.079124115	0.024386821
2019-08-08T18:25:00	0.1995	15.344	213.5	0.464163182	0.548866678	0.007609205	0.078502768	0.024195315
2019-08-08T18:30:00	0.2014	15.322	213.9	0.470809503	0.557886877	0.007807912	0.080552793	0.024827153
2019-08-08T18:35:00	0.2008	15.300	213.8	0.468788890	0.555140848	0.007747234	0.079926790	0.024634213
2019-08-08T18:40:00	0.1995	15.277	214.1	0.464338543	0.549104223	0.007614416	0.078556523	0.024211883
2019-08-08T18:45:00	0.2015	15.251	214.4	0.471330875	0.558595951	0.007823607	0.080714710	0.024877057
2019-08-08T18:50:00	0.2004	15.230	214.6	0.467230660	0.553025417	0.007700601	0.079445681	0.024485930
2019-08-08T18:55:00	0.2024	15.204	214.5	0.474217008	0.562525051	0.007910767	0.081613925	0.025154204
2019-08-08T19:00:00	0.2020	15.181	214.6	0.472890860	0.560718848	0.007870659	0.081200134	0.025026670
2019-08-08T19:05:00	0.2031	15.156	214.8	0.476754914	0.565985561	0.007987805	0.082408710	0.025399165
2019-08-08T19:10:00	0.2026	15.137	214.9	0.475083825	0.563706405	0.007937038	0.081884954	0.025237738
2019-08-08T19:15:00	0.2029	15.117	215.0	0.476179775	0.565200892	0.007970314	0.082228263	0.025343549
2019-08-08T19:20:00	0.2032	15.093	215.1	0.476929622	0.566223969	0.007993122	0.082463563	0.025416071
2019-08-08T19:25:00	0.2027	15.064	215.2	0.475258620	0.563944699	0.007942340	0.081939662	0.025254599
2019-08-08T19:30:00	0.2041	15.043	215.4	0.480156437	0.570631684	0.008091636	0.083479921	0.025729323
2019-08-08T19:35:00	0.2042	15.024	215.6	0.480560027	0.571183559	0.008104000	0.083607475	0.025768636
2019-08-08T19:40:00	0.2054	15.000	215.6	0.484760329	0.576934819	0.008233227	0.084940688	0.026179545
2019-08-08T19:45:00	0.2042	14.976	215.7	0.480676370	0.571342671	0.008107566	0.083644262	0.025779974
2019-08-08T19:50:00	0.2040	14.955	215.7	0.479698251	0.570005313	0.008077612	0.083335230	0.025684727
2019-08-08T19:55:00	0.2063	14.932	215.8	0.487693095	0.580958866	0.008324058	0.085877772	0.026468363
2019-08-08T20:00:00	0.2058	14.911	215.9	0.486027392	0.578672512	0.008272409	0.085344918	0.026304132
2019-08-08T20:05:00	0.2060	14.887	216.1	0.486775064	0.579698497	0.008295573	0.085583892	0.026377787
2019-08-08T20:10:00	0.2057	14.868	216.4	0.485798704	0.578358786	0.008265330	0.085271889	0.026281624
2019-08-08T20:15:00	0.2054	14.854	216.3	0.484822062	0.577019452	0.008235134	0.084960361	0.026185608
2019-08-08T20:20:00	0.2063	14.833	216.4	0.487638676	0.580884134	0.008322368	0.085860337	0.026462990
2019-08-08T20:25:00	0.2056	14.808	216.4	0.485283189	0.577651731	0.008249385	0.085107380	0.026230921
2019-08-08T20:30:00	0.2055	14.776	216.3	0.484996354	0.577258415	0.008240519	0.085015915	0.026202731
2019-08-08T20:35:00	0.2071	14.754	216.2	0.490568959	0.584911518	0.008413606	0.086801626	0.026753104
2019-08-08T20:40:00	0.2084	14.722	216.1	0.495100845	0.591153694	0.008555686	0.088267433	0.027204880
2019-08-08T20:45:00	0.2077	14.677	216.0	0.492750525	0.587914330	0.008481853	0.087505716	0.026970111
2019-08-08T20:50:00	0.2089	14.653	215.9	0.496592041	0.593211257	0.008602695	0.088752419	0.027354357
2019-08-08T20:55:00	0.2107	14.623	215.8	0.502832057	0.601840652	0.008800800	0.090796227	0.027984279
2019-08-08T21:00:00	0.2090	14.606	215.8	0.497051575	0.593845684	0.008617207	0.088902141	0.027400503
2019-08-08T21:05:00	0.2080	14.589	215.8	0.493670568	0.589181866	0.008510717	0.087803503	0.027061892
2019-08-08T21:10:00	0.2092	14.572	215.8	0.497854705	0.594954885	0.008642600	0.089164112	0.027481245
2019-08-08T21:15:00	0.2112	14.544	215.8	0.504778372	0.604538646	0.008863050	0.091438454	0.028182219
2019-08-08T21:20:00	0.2100	14.487	215.5	0.500375014	0.598439041	0.008722527	0.089988699	0.027735391
2019-08-08T21:25:00	0.2095	14.471	215.5	0.498715509	0.596144313	0.008669858	0.089445322	0.027567917
2019-08-08T21:30:00	0.2084	14.445	215.3	0.494992241	0.591003912	0.008552267	0.088232164	0.027194010
2019-08-08T21:35:00	0.2087	14.418	215.1	0.496081782	0.592506997	0.008586595	0.088586317	0.027303163
2019-08-08T21:40:00	0.2091	14.400	215.0	0.497514667	0.594485196	0.008631845	0.089053149	0.027447045
2019-08-08T21:45:00	0.2096	14.364	215.0	0.499290464	0.596939097	0.008688087	0.089633396	0.027625883
2019-08-08T21:50:00	0.2088	14.339	214.8	0.496255498	0.592746737	0.008592075	0.088642849	0.027320587
2019-08-08T21:55:00	0.2095	14.326	214.6	0.498719128	0.596149315	0.008669972	0.089446505	0.027568282
2019-08-08T22:00:00	0.2069	14.316	214.6	0.489833007	0.583899378	0.008390645	0.086564739	0.026680093
2019-08-08T22:05:00	0.2064	14.296	214.6	0.488012726	0.581397846	0.008333987	0.085980209	0.026499935
2019-08-08T22:10:00	0.2067	14.279	214.5	0.489293443	0.583157603	0.008373831	0.086391269	0.026626628
2019-08-08T22:15:00	0.2077	14.243	216.1	0.492639312	0.587761160	0.008478367	0.087469754	0.026959028
2019-08-08T22:20:00	0.2075	14.231	213.7	0.491853432	0.586679067	0.008453756	0.087215842	0.026880769
2019-08-08T22:25:00	0.2066	14.190	213.5	0.489000782	0.582755359	0.008364718	0.086297250	0.026597651
2019-08-08T22:30:00	0.2079	14.149	213.2	0.493379373	0.588780617	0.008501577	0.087709199	0.027032827
2019-08-08T22:35:00	0.2082	14.134	213.1	0.494314091	0.590068846	0.008530935	0.088012088	0.027126180
2019-08-08T22:40:00	0.2087	14.131	213.1	0.495936291	0.592306229	0.008582007	0.088538985	0.027288575
2019-08-08T22:45:00	0.2091	14.115	213.1	0.497557718	0.594544657	0.008633206	0.089067194	0.027451374
2019-08-08T22:50:00	0.2091	14.099	213.1	0.497460404	0.594410252	0.008630129	0.089035448	0.027441590
2019-08-08T22:55:00	0.2095	14.077	213.0	0.498737572	0.596174807	0.008670557	0.089452536	0.027570140
2019-08-08T23:00:00	0.2109	14.061	213.1	0.503446770	0.602692441	0.008820437	0.090998820	0.028046720
2019-08-08T23:05:00	0.2110	14.043	213.0	0.504035730	0.603508831	0.008839272	0.091193137	0.028106611
2019-08-08T23:10:00	0.2110	14.022	212.9	0.503938601	0.603374175	0.008836164	0.091161077	0.028096729
2019-08-08T23:15:00	0.2104	14.004	212.9	0.501782615	0.600387176	0.008767325	0.090450879	0.027877839
2019-08-08T23:20:00	0.2108	13.964	212.7	0.503401267	0.602629378	0.008818982	0.090983816	0.028042096
2019-08-08T23:25:00	0.2103	13.940	212.5	0.501588225	0.600118042	0.008761132	0.090386982	0.027858146
2019-08-08T23:30:00	0.2126	13.919	212.4	0.509377238	0.610925749	0.009011009	0.092964920	0.028652691
2019-08-08T23:35:00	0.2134	13.891	212.3	0.512019111	0.614602616	0.009096559	0.093847526	0.028924719
2019-08-08T23:40:00	0.2115	13.884	212.3	0.505756531	0.605895728	0.008894418	0.091762070	0.028281961
2019-08-08T23:45:00	0.2103	13.878	212.2	0.501542697	0.600055013	0.008759682	0.090372020	0.027853534
2019-08-08T23:50:00	0.2117	13.867	212.1	0.506248030	0.606577915	0.008910200	0.091924894	0.028332145
2019-08-08T23:55:00	0.2116	13.853	211.9	0.506150963	0.606443173	0.008907082	0.091892726	0.028322231
2019-08-09T00:00:00	0.2140	13.820	211.8	0.514271617	0.617742027	0.009169820	0.094603346	0.029157670
2019-08-09T00:05:00	0.2130	13.793	211.7	0.510753025	0.612839818	0.009055510	0.093424027	0.028794193
2019-08-09T00:10:00	0.2126	13.776	211.7	0.509286389	0.610799409	0.009008074	0.092934643	0.028643359
2019-08-09T00:15:00	0.2135	13.757	211.5	0.512612721	0.615429557	0.009115838	0.094046416	0.028986019
2019-08-09T00:20:00	0.2133	13.746	211.4	0.511831426	0.614341216	0.009090468	0.093784686	0.028905351
2019-08-09T00:25:00	0.2123	13.729	211.4	0.508310325	0.609442455	0.008976574	0.092609663	0.028543198
2019-08-09T00:30:00	0.2141	13.716	211.2	0.514716542	0.618362623	0.009184326	0.094752998	0.029203794
2019-08-09T00:35:00	0.2144	13.701	211.1	0.515645441	0.619658798	0.009214647	0.095065818	0.029300208
2019-08-09T00:40:00	0.2138	13.690	211.0	0.513496822	0.616661700	0.009144588	0.094343024	0.029077436
2019-08-09T00:45:00	0.2113	13.682	210.9	0.504837219	0.604620267	0.008864936	0.091457907	0.028188215
2019-08-09T00:50:00	0.2121	13.666	211.0	0.507825255	0.608768381	0.008960940	0.092448371	0.028493486
2019-08-09T00:55:00	0.2119	13.651	210.8	0.507042867	0.607681542	0.008935753	0.092188513	0.028413395
2019-08-09T01:00:00	0.2119	13.637	210.8	0.506945822	0.607546769	0.008932631	0.092156306	0.028403469
2019-08-09T01:05:00	0.2111	13.627	210.8	0.504448774	0.604081540	0.008852493	0.091329537	0.028148650
2019-08-09T01:10:00	0.2122	13.612	210.6	0.508122437	0.609181335	0.008970517	0.092547171	0.028523937
2019-08-09T01:15:00	0.2127	13.594	210.5	0.509738090	0.611427637	0.009022671	0.093085228	0.028689771
2019-08-09T01:20:00	0.2138	13.572	210.4	0.513406082	0.616535209	0.009141635	0.094312560	0.029068047
2019-08-09T01:25:00	0.2152	13.559	210.3	0.518436744	0.623557952	0.009306063	0.096008935	0.029590886
2019-08-09T01:30:00	0.2143	13.538	210.3	0.515264339	0.619126928	0.009202201	0.094937414	0.029260633
2019-08-09T01:35:00	0.2141	13.521	210.1	0.514483648	0.618037755	0.009176732	0.094674649	0.029179646
2019-08-09T01:40:00	0.2144	13.511	210.1	0.515754474	0.619810988	0.009218210	0.095102570	0.029311536
2019-08-09T01:45:00	0.2150	13.484	209.9	0.517708203	0.622539649	0.009282159	0.095762327	0.029514879
2019-08-09T01:50:00	0.2153	13.477	209.9	0.518636293	0.623836943	0.009312615	0.096076536	0.029611722
2019-08-09T01:55:00	0.2140	13.469	209.8	0.514096296	0.617497528	0.009164108	0.094544409	0.029139505
2019-08-09T02:00:00	0.2149	13.446	209.7	0.517417966	0.622134097	0.009272645	0.095664172	0.029484627
2019-08-09T02:05:00	0.2158	13.439	209.6	0.520395057	0.626297274	0.009370468	0.096673389	0.029795677
2019-08-09T02:10:00	0.2133	13.422	209.6	0.511752891	0.614231845	0.009087920	0.093758398	0.028897249
2019-08-09T02:15:00	0.2146	13.415	209.5	0.516444216	0.620773958	0.009240761	0.095335229	0.029383243
2019-08-09T02:20:00	0.2146	13.398	209.4	0.516347438	0.620638820	0.009237595	0.095302567	0.029373177
2019-08-09T02:25:00	0.2174	13.386	209.4	0.525807678	0.633884725	0.009549637	0.098521848	0.030365390
2019-08-09T02:30:00	0.2165	13.365	209.3	0.522642074	0.629444272	0.009444642	0.097438632	0.030031533
2019-08-09T02:35:00	0.2147	13.358	209.2	0.516740651	0.621187939	0.009250462	0.095435308	0.029414089
2019-08-09T02:40:00	0.2152	13.338	209.1	0.518352248	0.623439827	0.009303289	0.095980317	0.029582066
2019-08-09T02:45:00	0.2156	13.336	209.2	0.519621643	0.625215038	0.009345005	0.096410695	0.029714713
2019-08-09T02:50:00	0.2155	13.321	209.0	0.519524954	0.625079775	0.009341824	0.096377880	0.029704599
2019-08-09T02:55:00	0.2159	13.308	208.9	0.520793915	0.626855586	0.009383613	0.096809003	0.029837475
2019-08-09T03:00:00	0.2166	13.294	208.9	0.523085915	0.630066367	0.009459328	0.097590144	0.030078230
2019-08-09T03:05:00	0.2156	13.273	208.7	0.519576354	0.625151680	0.009343515	0.096395324	0.029709975
2019-08-09T03:10:00	0.2156	13.261	208.7	0.519821123	0.625494124	0.009351569	0.096478415	0.029735585
2019-08-09T03:15:00	0.2158	13.251	208.6	0.520407275	0.626314376	0.009370870	0.096677542	0.029796957
2019-08-09T03:20:00	0.2152	13.233	208.5	0.518261636	0.623313159	0.009300315	0.095949632	0.029572609
2019-08-09T03:25:00	0.2179	13.222	208.4	0.527375942	0.636087573	0.009601869	0.099060709	0.030531473
2019-08-09T03:30:00	0.2178	13.204	208.4	0.527279470	0.635952008	0.009598652	0.099027519	0.030521243
2019-08-09T03:35:00	0.2193	13.191	208.3	0.532289894	0.643002870	0.009766457	0.100758735	0.031054821
2019-08-09T03:40:00	0.2190	13.174	208.2	0.531172757	0.641429022	0.009728916	0.100371430	0.030935450
2019-08-09T03:45:00	0.2181	13.162	208.1	0.528352696	0.637460574	0.009634472	0.099397072	0.030635143
2019-08-09T03:50:00	0.2185	13.156	208.1	0.529618407	0.639240908	0.009676803	0.099833796	0.030769746
2019-08-09T03:55:00	0.2183	13.143	208.0	0.528840969	0.638147219	0.009650791	0.099565433	0.030687034
2019-08-09T04:00:00	0.2208	13.133	207.9	0.537247997	0.650000235	0.009933951	0.102486744	0.031587410
2019-08-09T04:05:00	0.2192	13.116	207.8	0.532046010	0.642659194	0.009758255	0.100674117	0.031028741
2019-08-09T04:10:00	0.2174	13.098	207.8	0.525813778	0.633893289	0.009549840	0.098523941	0.030366035
2019-08-09T04:15:00	0.2189	13.090	207.7	0.530820241	0.640932599	0.009717085	0.100249371	0.030897830
2019-08-09T04:20:00	0.2177	13.083	207.7	0.526971747	0.635519634	0.009588393	0.098921685	0.030488624
2019-08-09T04:25:00	0.2189	13.073	207.6	0.530955662	0.641123291	0.009721629	0.100296252	0.030912279
2019-08-09T04:30:00	0.2184	13.072	194.2	0.529151032	0.638583352	0.009661161	0.099672420	0.030720008
2019-08-09T04:35:00	0.2207	13.069	207.5	0.537211520	0.649948682	0.009932714	0.102473977	0.031583475
2019-08-09T04:40:00	0.2173	13.068	194.2	0.525538935	0.633507437	0.009540701	0.098429655	0.030336975
2019-08-09T04:45:00	0.2195	13.071	207.6	0.532927634	0.643901788	0.009787920	0.100980171	0.031123070
2019-08-09T04:50:00	0.2171	13.077	207.6	0.524651827	0.632262448	0.009511233	0.098125638	0.030243275
2019-08-09T04:55:00	0.2174	13.084	207.6	0.525912800	0.634032321	0.009553134	0.098557922	0.030376509
2019-08-09T05:00:00	0.2169	13.085	207.6	0.524105525	0.631496072	0.009493109	0.097938652	0.030185644
2019-08-09T05:05:00	0.2173	13.091	207.6	0.525366698	0.633265665	0.009534976	0.098370591	0.030318772
2019-08-09T05:10:00	0.2171	13.095	207.6	0.524923150	0.632643162	0.009520241	0.098218572	0.030271918
2019-08-09T05:15:00	0.2165	13.095	207.7	0.522774224	0.629629479	0.009449014	0.097483731	0.030045433
2019-08-09T05:20:00	0.2175	13.100	207.8	0.526081419	0.634269089	0.009558744	0.098615800	0.030394347
2019-08-09T05:25:00	0.2168	13.112	207.7	0.523933216	0.631254400	0.009487396	0.097879713	0.030167478
2019-08-09T05:30:00	0.2158	13.121	207.8	0.520418411	0.626329962	0.009371237	0.096681327	0.029798124
2019-08-09T05:35:00	0.2155	13.127	207.8	0.519291303	0.624752942	0.009334140	0.096298603	0.029680165
2019-08-09T05:40:00	0.2157	13.136	207.8	0.519871436	0.625564520	0.009353225	0.096495499	0.029740850
2019-08-09T05:45:00	0.2170	13.143	207.7	0.524545586	0.632113389	0.009507707	0.098089260	0.030232063
2019-08-09T05:50:00	0.2177	13.154	207.9	0.526828991	0.635319076	0.009583636	0.098872607	0.030473498
2019-08-09T05:55:00	0.2183	13.166	207.9	0.528770344	0.638047888	0.009648430	0.099541072	0.030679525
2019-08-09T06:00:00	0.2177	13.177	208.0	0.526964569	0.635509549	0.009588154	0.098919217	0.030487863
2019-08-09T06:05:00	0.2168	13.194	208.1	0.523793926	0.631059055	0.009482779	0.097832080	0.030152797
2019-08-09T06:10:00	0.2167	13.219	208.2	0.523350176	0.630436834	0.009468077	0.097680410	0.030106051
2019-08-09T06:15:00	0.2165	13.246	208.3	0.522906369	0.629814692	0.009453386	0.097528839	0.030059335
2019-08-09T06:20:00	0.2161	13.272	208.4	0.521438812	0.627758568	0.009404886	0.097028473	0.029905118
2019-08-09T06:25:00	0.2152	13.298	208.5	0.518263067	0.623315161	0.009300362	0.095950117	0.029572758
2019-08-09T06:30:00	0.2167	13.323	208.7	0.523621602	0.630817405	0.009477068	0.097773167	0.030134640
2019-08-09T06:35:00	0.2168	13.347	208.8	0.523859980	0.631151689	0.009484968	0.097854667	0.030159759
2019-08-09T06:40:00	0.2158	13.371	209.0	0.520345099	0.626227355	0.009368822	0.096656410	0.029790444
2019-08-09T06:45:00	0.2146	13.396	209.0	0.516143071	0.620353473	0.009230912	0.095233614	0.029351925
2019-08-09T06:50:00	0.2172	13.421	209.1	0.525256888	0.633111536	0.009531327	0.098332944	0.030307168
2019-08-09T06:55:00	0.2161	13.445	209.3	0.521402167	0.627707249	0.009403676	0.097015995	0.029901272
2019-08-09T07:00:00	0.2140	13.470	209.4	0.514124729	0.617537179	0.009165034	0.094553966	0.029142451
2019-08-09T07:05:00	0.2144	13.497	209.6	0.515731437	0.619778831	0.009217457	0.095094804	0.029309142
2019-08-09T07:10:00	0.2149	13.524	209.7	0.517337392	0.622021521	0.009270005	0.095636932	0.029476231
2019-08-09T07:15:00	0.2154	13.557	209.9	0.518942596	0.624265250	0.009322678	0.096180350	0.029643718
2019-08-09T07:20:00	0.2169	13.578	210.0	0.524300072	0.631768963	0.009499561	0.098005220	0.030206161
2019-08-09T07:25:00	0.2157	13.614	196.7	0.520102881	0.625888377	0.009360845	0.096574108	0.029765078
2019-08-09T07:30:00	0.2147	13.660	196.9	0.516584153	0.620969376	0.009245340	0.095382466	0.029397802
2019-08-09T07:35:00	0.2145	13.802	211.3	0.515797645	0.619871249	0.009219620	0.095117124	0.029316021
2019-08-09T07:40:00	0.2150	13.790	211.2	0.517745235	0.622591400	0.009283374	0.095774855	0.029518740
2019-08-09T07:45:00	0.2142	13.799	211.2	0.514908019	0.618629751	0.009190572	0.094817438	0.029223655
2019-08-09T07:50:00	0.2146	13.885	211.6	0.516172572	0.620394661	0.009231876	0.095243566	0.029354992
2019-08-09T07:55:00	0.2137	13.918	211.7	0.513334054	0.616434808	0.009139291	0.094288382	0.029060595
2019-08-09T08:00:00	0.2126	13.979	212.1	0.509465913	0.611049072	0.009013874	0.092994477	0.028661801
2019-08-09T08:05:00	0.2147	14.028	212.2	0.516547457	0.620918129	0.009244139	0.095370078	0.029393984
2019-08-09T08:10:00	0.2133	14.117	212.8	0.511998568	0.614574002	0.009095893	0.093840647	0.028922599
2019-08-09T08:15:00	0.2131	14.164	213.0	0.511211007	0.613477326	0.009070348	0.093577109	0.028841374
2019-08-09T08:20:00	0.2143	14.218	213.3	0.515213223	0.619055599	0.009200533	0.094920198	0.029255327
2019-08-09T08:25:00	0.2135	14.282	213.6	0.512373910	0.615096841	0.009108079	0.093966377	0.028961350
2019-08-09T08:30:00	0.2122	14.335	213.8	0.508162095	0.609236448	0.008971795	0.092560360	0.028528002
2019-08-09T08:35:00	0.2125	14.357	214.1	0.509086644	0.610521655	0.009001624	0.092868091	0.028622848
2019-08-09T08:40:00	0.2138	14.387	214.1	0.513433436	0.616573340	0.009142525	0.094321743	0.029070877
2019-08-09T08:45:00	0.2151	14.539	215.0	0.518116351	0.623110076	0.009295547	0.095900444	0.029557448
2019-08-09T08:50:00	0.2151	14.610	215.3	0.518013506	0.622966327	0.009292173	0.095865632	0.029546719
2019-08-09T08:55:00	0.2132	14.621	215.5	0.511413497	0.613759245	0.009076912	0.093644832	0.028862247
2019-08-09T09:00:00	0.2135	14.634	215.4	0.512679339	0.615522378	0.009118002	0.094068749	0.028992902
2019-08-09T09:05:00	0.2133	14.717	215.9	0.511891935	0.614425486	0.009092432	0.093804943	0.028911595
2019-08-09T09:10:00	0.2134	14.679	215.8	0.512131128	0.614758642	0.009100196	0.093885042	0.028936282
2019-08-09T09:15:00	0.2142	14.729	216.0	0.514764761	0.618429890	0.009185899	0.094769224	0.029208795
2019-08-09T09:20:00	0.2146	14.762	216.2	0.516371168	0.620671955	0.009238371	0.095310575	0.029375645
2019-08-09T09:25:00	0.2143	14.874	216.8	0.515242731	0.619096775	0.009201496	0.094930136	0.029258390
2019-08-09T09:30:00	0.2140	14.992	217.3	0.514113922	0.617522107	0.009164682	0.094550333	0.029141331
2019-08-09T09:35:00	0.2123	14.978	217.4	0.508534249	0.609753693	0.008983796	0.092684168	0.028566161
2019-08-09T09:40:00	0.2127	15.081	218.1	0.509801156	0.611515364	0.009024709	0.093106263	0.028696254
2019-08-09T09:45:00	0.2136	15.215	219.1	0.512778740	0.615660884	0.009121233	0.094102078	0.029003174
2019-08-09T09:50:00	0.2119	15.283	219.3	0.507196890	0.607895461	0.008940708	0.092239640	0.028429153
2019-08-09T09:55:00	0.2112	15.055	218.0	0.504693888	0.604421469	0.008860343	0.091410529	0.028173613
2019-08-09T10:00:00	0.2117	15.041	218.0	0.506305026	0.606657038	0.008912031	0.091943785	0.028337967
2019-08-09T10:05:00	0.2096	15.142	218.5	0.499138223	0.596728623	0.008683259	0.089583577	0.027610529
2019-08-09T10:10:00	0.2085	15.177	218.8	0.495396955	0.591562127	0.008565010	0.088363633	0.027234530
2019-08-09T10:15:00	0.2103	15.186	218.8	0.501620727	0.600163040	0.008762167	0.090397664	0.027861438
2019-08-09T10:20:00	0.2088	15.215	218.9	0.496507353	0.593094356	0.008600022	0.088724840	0.027345858
2019-08-09T10:25:00	0.2072	15.239	219.0	0.491041982	0.585562286	0.008428381	0.086954052	0.026800083
2019-08-09T10:30:00	0.2070	15.280	219.2	0.490048355	0.584195498	0.008397361	0.086634022	0.026701447
2019-08-09T10:35:00	0.2065	15.322	219.4	0.488365307	0.581882175	0.008344947	0.086093276	0.026534784
2019-08-09T10:40:00	0.2063	15.348	219.5	0.487715581	0.580989745	0.008324756	0.085884976	0.026470584
2019-08-09T10:45:00	0.2080	15.386	219.6	0.493609346	0.589097500	0.008508795	0.087783671	0.027055780
2019-08-09T10:50:00	0.2076	15.408	219.7	0.492272281	0.587255727	0.008466869	0.087351123	0.026922465
2019-08-09T10:55:00	0.2073	15.438	219.9	0.491279014	0.585888454	0.008435789	0.087030483	0.026823640
2019-08-09T11:00:00	0.2073	15.455	219.8	0.491318518	0.585942818	0.008437024	0.087043224	0.026827567
2019-08-09T11:05:00	0.2063	15.495	219.9	0.487913303	0.581261290	0.008330898	0.085948339	0.026490113
2019-08-09T11:10:00	0.2065	15.485	219.9	0.488642061	0.582262414	0.008353554	0.086182079	0.026562154
2019-08-09T11:15:00	0.2077	15.506	219.8	0.492469738	0.587527629	0.008473054	0.087414935	0.026942132
2019-08-09T11:20:00	0.2070	15.504	219.8	0.490099108	0.584265292	0.008398944	0.086650354	0.026706481
2019-08-09T11:25:00	0.2089	15.513	219.6	0.496676337	0.593327622	0.008605356	0.088779874	0.027362819
2019-08-09T11:30:00	0.2094	15.550	219.5	0.498434124	0.595755440	0.008660943	0.089353350	0.027539570
2019-08-09T11:35:00	0.2065	15.619	219.4	0.488495159	0.582060574	0.008348985	0.086134937	0.026547624
2019-08-09T11:40:00	0.2070	15.678	219.3	0.490257176	0.584482676	0.008403875	0.086701231	0.026722161
2019-08-09T11:45:00	0.2056	15.709	219.0	0.485471599	0.577910121	0.008255211	0.085167487	0.026249447
2019-08-09T11:50:00	0.2072	15.745	218.8	0.491024939	0.585538836	0.008427848	0.086948558	0.026798390
2019-08-09T11:55:00	0.2067	15.791	218.5	0.489342374	0.583224862	0.008375355	0.086406993	0.026631474
2019-08-09T12:00:00	0.2073	15.894	217.9	0.491103952	0.585647555	0.008430317	0.086974031	0.026806241
2019-08-09T12:05:00	0.2062	15.901	217.4	0.487353836	0.580493016	0.008313525	0.085769110	0.026434873
2019-08-09T12:10:00	0.2052	15.911	208.5	0.483944641	0.575816837	0.008208052	0.084680964	0.026099496
2019-08-09T12:15:00	0.2062	15.894	211.6	0.487432934	0.580601621	0.008315981	0.085794438	0.026442679
2019-08-09T12:20:00	0.2071	15.929	199.6	0.490573289	0.584917474	0.008413742	0.086803021	0.026753534
2019-08-09T12:25:00	0.2056	15.898	199.5	0.485443278	0.577871278	0.008254335	0.085158450	0.026246661
2019-08-09T12:30:00	0.2060	15.917	199.4	0.486862142	0.579818017	0.008298272	0.085611746	0.026386372
2019-08-09T12:35:00	0.2064	15.907	194.8	0.488280414	0.581765552	0.008342307	0.086066046	0.026526391
2019-08-09T12:40:00	0.2052	15.905	196.2	0.483837127	0.575669517	0.008204737	0.084646760	0.026088953
2019-08-09T12:45:00	0.2081	15.906	191.1	0.493868645	0.589454844	0.008516938	0.087867679	0.027081672
2019-08-09T12:50:00	0.2049	15.923	191.6	0.482880992	0.574359796	0.008175282	0.084342878	0.025995294
2019-08-09T12:55:00	0.2041	15.945	190.2	0.480158237	0.570634145	0.008091692	0.083480490	0.025729498
2019-08-09T13:00:00	0.2051	15.939	188.2	0.483650424	0.575413713	0.008198981	0.084587379	0.026070652
2019-08-09T13:05:00	0.2042	15.947	186.2	0.480582913	0.571214856	0.008104701	0.083614710	0.025770866
2019-08-09T13:10:00	0.2056	15.958	184.6	0.485454528	0.577886708	0.008254683	0.085162040	0.026247768
2019-08-09T13:15:00	0.2063	15.999	182.7	0.487907487	0.581253302	0.008330717	0.085946474	0.026489538
2019-08-09T13:20:00	0.2041	16.022	178.6	0.480356399	0.570905099	0.008097761	0.083543107	0.025748797
2019-08-09T13:25:00	0.2047	16.047	177.8	0.482122646	0.573321528	0.008151958	0.084102244	0.025921128
2019-08-09T13:30:00	0.2042	16.077	171.6	0.480435661	0.571013485	0.008100189	0.083568159	0.025756518
2019-08-09T13:35:00	0.2025	16.090	166.1	0.474598342	0.563044685	0.007922319	0.081733103	0.025190936
2019-08-09T13:40:00	0.2028	16.105	159.5	0.475675880	0.564513639	0.007955006	0.082070328	0.025294872
2019-08-09T13:45:00	0.2015	16.088	156.2	0.471216015	0.558439722	0.007820148	0.080679025	0.024866059
2019-08-09T13:50:00	0.2014	16.112	153.3	0.470909390	0.558022708	0.007810918	0.080583802	0.024836710
2019-08-09T13:55:00	0.2019	16.105	151.2	0.472680574	0.560432569	0.007864308	0.081134615	0.025006476
2019-08-09T14:00:00	0.2011	16.105	148.7	0.469949594	0.556717858	0.007782061	0.080286092	0.024744953
2019-08-09T14:05:00	0.2032	16.154	144.9	0.477257513	0.566671478	0.008003105	0.082566558	0.025447815
2019-08-09T14:10:00	0.2009	16.165	145.1	0.468989525	0.555413369	0.007753249	0.079988841	0.024653338
2019-08-09T14:15:00	0.2017	16.203	144.0	0.471800746	0.559235170	0.007837764	0.080860770	0.024922074
2019-08-09T14:20:00	0.2009	16.150	141.5	0.469069054	0.555521401	0.007755634	0.080013443	0.024660920
2019-08-09T14:25:00	0.2021	16.186	141.6	0.473265052	0.561228353	0.007881966	0.081316786	0.025062623
2019-08-09T14:30:00	0.2021	16.195	141.1	0.473304766	0.561282435	0.007883166	0.081329172	0.025066441
2019-08-09T14:35:00	0.1992	16.190	139.3	0.463291707	0.547686534	0.007583338	0.078235896	0.024113063
2019-08-09T14:40:00	0.2003	16.211	137.6	0.467148142	0.552913445	0.007698135	0.079420243	0.024478090
2019-08-09T14:45:00	0.1987	16.203	134.6	0.461635140	0.545444885	0.007534286	0.077729837	0.023957091
2019-08-09T14:50:00	0.1989	16.225	133.1	0.462022305	0.545968598	0.007545736	0.077847966	0.023993499
2019-08-09T14:55:00	0.2005	16.233	129.4	0.467614237	0.553545977	0.007712068	0.079563979	0.024522391
2019-08-09T15:00:00	0.2015	16.308	128.8	0.471119394	0.558308307	0.007817239	0.080649013	0.024856809
2019-08-09T15:05:00	0.2016	16.334	125.1	0.471505471	0.558833454	0.007828866	0.080768968	0.024893780
2019-08-09T15:10:00	0.2001	16.339	124.0	0.466346463	0.551825900	0.007674201	0.079173319	0.024401986
2019-08-09T15:15:00	0.2017	16.385	119.9	0.471931235	0.559412719	0.007841698	0.080901355	0.024934583
2019-08-09T15:20:00	0.2015	16.386	117.4	0.471278349	0.558524506	0.007822025	0.080698390	0.024872028
2019-08-09T15:25:00	0.1992	16.390	115.7	0.463342863	0.547755792	0.007584855	0.078251549	0.024117887
2019-08-09T15:30:00	0.1982	16.375	114.7	0.459909350	0.543111874	0.007483351	0.077204350	0.023795130
2019-08-09T15:35:00	0.1983	16.401	113.3	0.459949222	0.543165749	0.007484526	0.077216471	0.023798866
2019-08-09T15:40:00	0.1976	16.397	112.6	0.457555675	0.539933854	0.007414158	0.076490500	0.023575115
2019-08-09T15:45:00	0.1964	16.396	112.3	0.453419946	0.534360238	0.007293341	0.075244055	0.023190949
2019-08-09T15:50:00	0.1962	16.429	89.5	0.452763460	0.533476750	0.007274253	0.075047124	0.023130253
2019-08-09T15:55:00	0.1950	16.399	80.8	0.448621818	0.527910830	0.007154393	0.073810556	0.022749130
2019-08-09T16:00:00	0.1953	16.398	76.7	0.449707700	0.529368832	0.007185724	0.074133794	0.022848755
2019-08-09T16:05:00	0.1937	16.370	74.4	0.444033296	0.521760122	0.007022739	0.072452307	0.022330505
2019-08-09T16:10:00	0.1924	16.358	73.0	0.439774115	0.515564965	0.006894908	0.071133496	0.021924034
2019-08-09T16:15:00	0.1926	16.346	72.0	0.440516997	0.516840875	0.006919753	0.071389819	0.022003035
2019-08-09T16:20:00	0.1942	16.315	72.7	0.445849918	0.524193242	0.007074719	0.072988570	0.022495786
2019-08-09T16:25:00	0.1919	16.343	71.2	0.438470562	0.513329828	0.006851444	0.070685083	0.021785829
2019-08-09T16:30:00	0.1903	16.337	71.7	0.434041884	0.505771662	0.006705033	0.069174585	0.021320279
2019-08-09T16:35:00	0.1926	16.344	71.5	0.440500417	0.516812382	0.006919198	0.071384092	0.022001270
2019-08-09T16:40:00	0.1907	16.340	71.4	0.435259998	0.507845087	0.006745110	0.069588061	0.021447716
2019-08-09T16:45:00	0.1921	16.323	72.4	0.438997714	0.514233137	0.006869000	0.070866211	0.021841654
2019-08-09T16:50:00	0.1909	16.302	72.3	0.435932648	0.508991819	0.006767304	0.069817031	0.021518287
2019-08-09T16:55:00	0.1920	16.293	73.3	0.438853495	0.513985930	0.006864194	0.070816629	0.021826373
2019-08-09T17:00:00	0.1919	16.280	73.1	0.438509491	0.513396508	0.006852739	0.070698449	0.021789949
2019-08-09T17:05:00	0.1892	16.278	72.7	0.431079225	0.500746004	0.006608165	0.068175218	0.021012264
2019-08-09T17:10:00	0.1898	16.250	71.5	0.432917653	0.503861711	0.006668173	0.068794312	0.021203075
2019-08-09T17:15:00	0.1889	16.288	71.8	0.430387922	0.499576839	0.006585686	0.067943303	0.020940786
2019-08-09T17:20:00	0.1896	16.255	71.1	0.432227118	0.502690311	0.006645594	0.068561372	0.021131281
2019-08-09T17:25:00	0.1906	16.254	69.5	0.434881982	0.507201199	0.006732658	0.069459586	0.021408119
2019-08-09T17:30:00	0.1931	16.247	69.8	0.442109048	0.519185679	0.006967885	0.071886381	0.022156081
2019-08-09T17:35:00	0.1922	16.191	71.0	0.439363935	0.514861138	0.006881213	0.070992210	0.021880489
2019-08-09T17:40:00	0.1915	16.181	72.4	0.437388270	0.511477685	0.006815485	0.070314100	0.021671489
2019-08-09T17:45:00	0.1900	16.196	40.4	0.433229508	0.504391167	0.006678385	0.068899669	0.021235547
2019-08-09T17:50:00	0.1898	16.186	29.0	0.432884341	0.503805172	0.006667083	0.068783064	0.021199608
2019-08-09T17:55:00	0.1876	16.144	30.6	0.426798487	0.493527577	0.006469717	0.066746882	0.020572037
2019-08-09T18:00:00	0.1864	16.132	32.2	0.423436304	0.487893736	0.006362229	0.065637941	0.020230251
2019-08-09T18:05:00	0.1865	16.114	32.1	0.423912255	0.488689361	0.006377378	0.065794235	0.020278422
2019-08-09T18:10:00	0.1879	16.094	33.1	0.427675696	0.495002629	0.006497942	0.067038074	0.020661786
2019-08-09T18:15:00	0.1857	16.090	35.1	0.421570433	0.484780702	0.006303050	0.065027401	0.020042077
2019-08-09T18:20:00	0.1864	16.063	37.9	0.423419552	0.487865744	0.006361696	0.065632444	0.020228557
2019-08-09T18:25:00	0.1885	16.022	42.2	0.429372875	0.497862552	0.006552764	0.067603655	0.020836103
2019-08-09T18:30:00	0.1873	16.012	47.3	0.426015982	0.492213575	0.006444603	0.066487779	0.020492179
2019-08-09T18:35:00	0.1872	15.982	46.7	0.425669300	0.491631960	0.006433495	0.066373182	0.020456859
2019-08-09T18:40:00	0.1903	15.937	47.2	0.434070016	0.505819500	0.006705957	0.069184117	0.021323217
2019-08-09T18:45:00	0.1891	15.922	47.2	0.430995852	0.500604929	0.006605451	0.068147223	0.021003636
2019-08-09T18:50:00	0.1875	15.906	49.3	0.426547114	0.493105279	0.006461643	0.066663581	0.020546363
2019-08-09T18:55:00	0.1876	15.885	51.8	0.426748333	0.493443307	0.006468106	0.066730257	0.020566913
2019-08-09T19:00:00	0.1883	15.854	57.6	0.428591597	0.496545025	0.006527492	0.067342936	0.020755747
2019-08-09T19:05:00	0.1892	15.833	61.9	0.431252300	0.501038924	0.006613800	0.068233355	0.021030183
2019-08-09T19:10:00	0.1884	15.825	63.5	0.428993511	0.497222590	0.006540485	0.067476981	0.020797061
2019-08-09T19:15:00	0.1878	15.810	63.0	0.427279227	0.494335691	0.006485176	0.066906370	0.020621193
2019-08-09T19:20:00	0.1872	15.789	64.5	0.425563148	0.491453940	0.006430096	0.066338117	0.020446052
2019-08-09T19:25:00	0.1891	15.759	68.5	0.430962502	0.500548502	0.006604366	0.068136026	0.021000185
2019-08-09T19:30:00	0.1885	15.786	73.7	0.429250270	0.497655683	0.006548794	0.067562700	0.020823480
2019-08-09T19:35:00	0.1893	15.758	77.2	0.431363838	0.501227739	0.006617433	0.068270838	0.021041735
2019-08-09T19:40:00	0.1891	15.746	81.5	0.431018282	0.500642879	0.006606181	0.068154753	0.021005957
2019-08-09T19:45:00	0.1889	15.742	90.6	0.430399435	0.499596299	0.006586059	0.067947162	0.020941975
2019-08-09T19:50:00	0.1866	15.717	96.6	0.424030072	0.488886406	0.006381132	0.065832959	0.020290357
2019-08-09T19:55:00	0.1870	15.703	103.5	0.425054208	0.490600865	0.006413816	0.066170158	0.020394285
2019-08-09T20:00:00	0.1874	15.689	115.0	0.426351640	0.492777012	0.006455369	0.066598847	0.020526411
2019-08-09T20:05:00	0.1859	15.680	120.7	0.422164884	0.485771443	0.006321867	0.065221537	0.020101911
2019-08-09T20:10:00	0.1855	15.663	135.5	0.420993134	0.483819482	0.006284808	0.064839204	0.019984072
2019-08-09T20:15:00	0.1862	15.636	139.0	0.422842910	0.486902668	0.006343372	0.065443397	0.020170291
2019-08-09T20:20:00	0.1855	15.604	146.6	0.421122149	0.484034217	0.006288882	0.064881234	0.019997026
2019-08-09T20:25:00	0.1862	15.603	144.6	0.422971778	0.487117817	0.006347464	0.065485617	0.020183303
2019-08-09T20:30:00	0.1873	15.575	149.1	0.425915625	0.492045176	0.006441386	0.066454594	0.020481951
2019-08-09T20:35:00	0.1868	15.551	151.5	0.424472367	0.489626476	0.006395235	0.065978457	0.020335201
2019-08-09T20:40:00	0.1873	15.543	155.3	0.426044251	0.492261016	0.006445509	0.066497129	0.020495061
2019-08-09T20:45:00	0.1872	15.527	156.6	0.425697575	0.491679383	0.006434401	0.066382524	0.020459739
2019-08-09T20:50:00	0.1861	15.518	158.8	0.422607687	0.486510075	0.006335906	0.065366377	0.020146552
2019-08-09T20:55:00	0.1867	15.503	167.3	0.424455626	0.489598453	0.006394700	0.065972946	0.020333503
2019-08-09T21:00:00	0.1863	15.485	167.1	0.423285528	0.487641823	0.006357434	0.065588476	0.020215005
2019-08-09T21:05:00	0.1851	15.471	163.1	0.419916068	0.482028599	0.006250860	0.064488971	0.019876127
2019-08-09T21:10:00	0.1847	15.459	169.9	0.418742687	0.480081216	0.006214004	0.064108731	0.019758934
2019-08-09T21:15:00	0.1831	15.454	170.4	0.414536161	0.473131139	0.006082962	0.062756800	0.019342255
2019-08-09T21:20:00	0.1830	15.447	176.6	0.414187007	0.472556453	0.006072162	0.062645372	0.019307912
2019-08-09T21:25:00	0.1803	15.435	173.5	0.406644364	0.460223507	0.005841673	0.060267468	0.018575019
2019-08-09T21:30:00	0.1800	15.436	176.4	0.405738646	0.458753063	0.005814359	0.059985674	0.018488167
2019-08-09T21:35:00	0.1787	15.429	174.8	0.402331835	0.453242147	0.005712311	0.058932862	0.018163680
2019-08-09T21:40:00	0.1769	15.423	173.3	0.397244623	0.445071938	0.005561956	0.057381673	0.017685589
2019-08-09T21:45:00	0.1766	15.402	173.3	0.396333425	0.443615969	0.005535280	0.057106466	0.017600767
2019-08-09T21:50:00	0.1779	15.392	181.6	0.399884125	0.449302254	0.005639666	0.058183390	0.017932686
2019-08-09T21:55:00	0.1789	15.383	176.8	0.402870893	0.454112026	0.005728386	0.059098698	0.018214793
2019-08-09T22:00:00	0.1796	15.382	180.6	0.404741814	0.457137287	0.005784387	0.059676454	0.018392863
2019-08-09T22:05:00	0.1798	15.374	179.4	0.405252726	0.457965091	0.005799737	0.059834819	0.018441672
2019-08-09T22:10:00	0.1802	15.366	186.4	0.406318285	0.459693856	0.005831831	0.060165924	0.018543722
2019-08-09T22:15:00	0.1815	15.370	178.3	0.409875683	0.465487906	0.005939754	0.061279350	0.018886891
2019-08-09T22:20:00	0.1840	15.357	175.1	0.417010594	0.477213521	0.006159840	0.063549935	0.019586707
2019-08-09T22:25:00	0.1822	15.356	174.1	0.411999861	0.468964177	0.006004770	0.061950102	0.019093623
2019-08-09T22:30:00	0.1856	15.348	174.5	0.421324912	0.484371789	0.006295288	0.064947322	0.020017395
2019-08-09T22:35:00	0.1893	15.352	175.3	0.431416016	0.501316081	0.006619133	0.068288377	0.021047141
2019-08-09T22:40:00	0.1917	15.340	176.7	0.437913483	0.512376081	0.006832920	0.070493981	0.021726930
2019-08-09T22:45:00	0.1902	15.332	179.1	0.433784880	0.505334728	0.006696595	0.069087540	0.021293451
2019-08-09T22:50:00	0.1911	15.301	181.5	0.436466059	0.509902075	0.006784936	0.069998931	0.021574350
2019-08-09T22:55:00	0.1926	15.285	183.7	0.440501432	0.516814126	0.006919232	0.071384442	0.022001378
2019-08-09T23:00:00	0.1934	15.279	198.4	0.443073902	0.520476188	0.006995364	0.072169876	0.022243457
2019-08-09T23:05:00	0.1940	15.257	186.4	0.445113156	0.523206136	0.007053615	0.072770847	0.022428682
2019-08-09T23:10:00	0.1941	15.236	186.0	0.445406529	0.523599142	0.007062015	0.072857504	0.022455390
2019-08-09T23:15:00	0.1958	15.236	187.0	0.451279041	0.531480296	0.007231181	0.074602765	0.022993297
2019-08-09T23:20:00	0.2013	15.234	187.8	0.470678226	0.557708372	0.007803963	0.080512049	0.024814596
2019-08-09T23:25:00	0.2037	15.219	191.1	0.478926629	0.568950831	0.008054020	0.083091839	0.025609712
2019-08-09T23:30:00	0.2118	15.233	200.1	0.506747726	0.607271682	0.008926260	0.092090581	0.028383212
2019-08-09T23:35:00	0.2176	15.221	215.1	0.526515284	0.634878410	0.009573187	0.098764801	0.030440271
2019-08-09T23:40:00	0.2208	15.215	210.1	0.537348807	0.650142717	0.009937372	0.102522032	0.031598286
2019-08-09T23:45:00	0.2219	15.232	205.1	0.541029483	0.655350528	0.010062663	0.103814636	0.031996679
2019-08-09T23:50:00	0.2230	15.243	201.7	0.544706249	0.660563864	0.010188612	0.105114032	0.032397166
2019-08-09T23:55:00	0.2237	15.247	201.4	0.547363080	0.664337908	0.010280116	0.106058060	0.032688124
2019-08-10T00:00:00	0.2212	15.249	188.0	0.538830339	0.652237615	0.009987708	0.103041344	0.031758343
2019-08-10T00:05:00	0.2219	15.244	189.0	0.541152359	0.655524578	0.010066859	0.103857930	0.032010023
2019-08-10T00:10:00	0.2222	15.237	204.1	0.542116120	0.656890134	0.010099804	0.104197812	0.032114778
2019-08-10T00:15:00	0.2179	15.231	206.0	0.527443508	0.636182525	0.009604122	0.099083959	0.030538638
2019-08-10T00:20:00	0.2165	15.218	194.5	0.522616184	0.629407990	0.009443786	0.097429798	0.030028810
2019-08-10T00:25:00	0.2157	15.207	209.2	0.520172757	0.625986161	0.009363146	0.096597847	0.029772395
2019-08-10T00:30:00	0.2122	15.194	196.8	0.508148009	0.609216873	0.008971341	0.092555675	0.028526558
2019-08-10T00:35:00	0.2104	15.182	211.0	0.501920782	0.600578486	0.008771729	0.090496309	0.027891841
2019-08-10T00:40:00	0.2084	15.174	211.4	0.494994383	0.591006867	0.008552335	0.088232859	0.027194224
2019-08-10T00:45:00	0.2072	15.164	211.7	0.490809808	0.585242847	0.008421128	0.086879220	0.026777019
2019-08-10T00:50:00	0.2106	15.155	211.9	0.502442995	0.601301698	0.008788382	0.090668119	0.027944795
2019-08-10T00:55:00	0.2101	15.146	212.1	0.501015251	0.599324938	0.008742889	0.090198772	0.027800138
2019-08-10T01:00:00	0.2120	15.137	212.3	0.507477514	0.608285263	0.008949741	0.092332829	0.028457875
2019-08-10T01:05:00	0.2119	15.126	198.8	0.507080170	0.607733349	0.008936953	0.092200894	0.028417211
2019-08-10T01:10:00	0.2138	15.119	212.9	0.513530994	0.616709337	0.009145700	0.094354498	0.029080973
2019-08-10T01:15:00	0.2146	15.112	213.3	0.516211943	0.620449632	0.009233164	0.095256848	0.029359086
2019-08-10T01:20:00	0.2152	15.107	213.7	0.518207662	0.623237712	0.009298543	0.095931358	0.029566976
2019-08-10T01:25:00	0.2177	15.101	214.1	0.527023538	0.635592399	0.009590119	0.098939493	0.030494113
2019-08-10T01:30:00	0.2159	15.094	214.5	0.520830528	0.626906842	0.009384820	0.096821456	0.029841313
2019-08-10T01:35:00	0.2145	15.091	215.0	0.515993902	0.620145217	0.009226035	0.095183300	0.029336417
2019-08-10T01:40:00	0.2137	15.086	215.5	0.513203671	0.616253075	0.009135050	0.094244623	0.029047108
2019-08-10T01:45:00	0.2142	15.079	215.9	0.514859221	0.618561671	0.009188980	0.094801014	0.029218593
2019-08-10T01:50:00	0.2130	15.072	216.2	0.510698934	0.612764534	0.009053758	0.093405955	0.028788623
2019-08-10T01:55:00	0.2124	15.065	216.5	0.508589578	0.609830603	0.008985581	0.092702582	0.028571836
2019-08-10T02:00:00	0.2109	15.058	216.6	0.503735629	0.603092809	0.008829672	0.091094098	0.028076086
2019-08-10T02:05:00	0.2099	15.052	216.7	0.500248648	0.598264227	0.008718510	0.089947265	0.027722621
2019-08-10T02:10:00	0.2074	15.043	216.8	0.491597918	0.586327352	0.008445762	0.087133366	0.026855349
2019-08-10T02:15:00	0.2061	15.033	216.8	0.487064443	0.580095713	0.008304546	0.085676474	0.026406321
2019-08-10T02:20:00	0.2051	15.025	216.9	0.483560332	0.575290287	0.008196205	0.084558733	0.026061823
2019-08-10T02:25:00	0.2040	15.021	217.0	0.479707134	0.570017454	0.008077883	0.083338034	0.025685591
2019-08-10T02:30:00	0.2015	15.011	217.0	0.471350175	0.558622204	0.007824188	0.080720706	0.024878906
2019-08-10T02:35:00	0.2006	15.004	217.1	0.468176427	0.554309147	0.007728889	0.079737519	0.024575878
2019-08-10T02:40:00	0.1991	14.995	217.1	0.462917115	0.547179449	0.007572232	0.078121322	0.024077750
2019-08-10T02:45:00	0.1995	14.988	217.3	0.464250294	0.548984677	0.007611793	0.078529469	0.024203545
2019-08-10T02:50:00	0.1982	14.980	217.3	0.459679989	0.542801989	0.007476594	0.077134643	0.023773646
2019-08-10T02:55:00	0.1963	14.974	217.4	0.453014751	0.533814892	0.007281556	0.075122476	0.023153477
2019-08-10T03:00:00	0.1984	14.965	217.4	0.460611626	0.544060961	0.007504057	0.077417975	0.023860972
2019-08-10T03:05:00	0.1975	14.964	217.5	0.457427741	0.539761237	0.007410406	0.076451792	0.023563185
2019-08-10T03:10:00	0.1978	14.958	217.6	0.458415446	0.541094240	0.007439397	0.076750884	0.023655368
2019-08-10T03:15:00	0.1985	14.952	217.5	0.460792838	0.544305923	0.007509405	0.077473145	0.023877976
2019-08-10T03:20:00	0.1985	14.945	217.6	0.460737432	0.544231024	0.007507770	0.077456275	0.023872776
2019-08-10T03:25:00	0.1983	14.940	217.7	0.459987086	0.543216911	0.007485641	0.077227982	0.023802414
2019-08-10T03:30:00	0.1977	14.933	217.7	0.458193662	0.540794854	0.007432882	0.076683674	0.023634653
2019-08-10T03:35:00	0.1973	14.932	217.7	0.456747139	0.538843147	0.007390462	0.076246030	0.023499767
2019-08-10T03:40:00	0.1971	14.929	217.7	0.455995901	0.537830200	0.007368478	0.076019228	0.023429864
2019-08-10T03:45:00	0.1982	14.926	217.8	0.459765406	0.542917389	0.007479110	0.077160599	0.023781646
2019-08-10T03:50:00	0.1991	14.923	217.9	0.462836339	0.547070119	0.007569838	0.078096626	0.024070139
2019-08-10T03:55:00	0.1999	14.919	217.9	0.465557561	0.550756185	0.007650684	0.078930699	0.024327208
2019-08-10T04:00:00	0.2017	14.920	218.0	0.471741325	0.559154322	0.007835973	0.080842291	0.024916379
2019-08-10T04:05:00	0.2018	14.920	218.0	0.472296082	0.559909220	0.007852703	0.081014886	0.024969575
2019-08-10T04:10:00	0.1988	14.921	218.1	0.461754693	0.545606590	0.007537821	0.077766305	0.023968331
2019-08-10T04:15:00	0.1996	14.921	218.2	0.464741080	0.549649593	0.007626383	0.078679984	0.024249935
2019-08-10T04:20:00	0.1989	14.919	218.3	0.462172919	0.546172363	0.007550193	0.077893944	0.024007670
2019-08-10T04:25:00	0.2003	14.923	218.4	0.466893349	0.552567742	0.007690525	0.079341724	0.024453890
2019-08-10T04:30:00	0.2007	14.925	204.4	0.468488954	0.554733510	0.007738247	0.079834072	0.024605636
2019-08-10T04:35:00	0.2018	14.931	218.6	0.472161960	0.559726689	0.007848656	0.080973142	0.024956709
2019-08-10T04:40:00	0.2011	14.938	218.7	0.469945945	0.556712898	0.007781952	0.080284961	0.024744605
2019-08-10T04:45:00	0.1987	14.948	218.8	0.461481946	0.545237694	0.007529758	0.077683120	0.023942692
2019-08-10T04:50:00	0.1988	14.948	218.9	0.461691082	0.545520549	0.007535940	0.077746900	0.023962350
2019-08-10T04:55:00	0.2004	14.954	218.9	0.467452556	0.553326543	0.007707233	0.079514105	0.024507019
2019-08-10T05:00:00	0.2002	14.963	219.1	0.466621017	0.552198298	0.007682394	0.079257841	0.024428036
2019-08-10T05:05:00	0.1994	14.965	219.2	0.464054290	0.548719184	0.007605971	0.078469397	0.024185030
2019-08-10T05:10:00	0.2000	14.973	219.3	0.465998142	0.551353531	0.007663813	0.079066151	0.024368956
2019-08-10T05:15:00	0.1981	14.972	219.2	0.459262556	0.542238112	0.007464305	0.077007858	0.023734570
2019-08-10T05:20:00	0.2005	14.971	219.4	0.467802927	0.553802095	0.007717711	0.079622204	0.024540337
2019-08-10T05:25:00	0.2001	14.968	219.4	0.466277831	0.551732819	0.007672154	0.079152197	0.024395476
2019-08-10T05:30:00	0.2005	14.966	219.5	0.467873727	0.553898202	0.007719829	0.079644057	0.024547072
2019-08-10T05:35:00	0.2011	14.970	219.6	0.469815379	0.556535450	0.007778030	0.080244504	0.024732136
2019-08-10T05:40:00	0.2011	14.967	219.6	0.469677509	0.556348089	0.007773890	0.080201795	0.024718972
2019-08-10T05:45:00	0.2013	14.970	219.5	0.470579039	0.557573510	0.007800980	0.080481272	0.024805110
2019-08-10T05:50:00	0.2009	14.985	219.8	0.469055198	0.555502578	0.007755218	0.080009157	0.024659599
2019-08-10T05:55:00	0.2032	14.984	219.8	0.477225129	0.566627276	0.008002119	0.082556383	0.025444679
2019-08-10T06:00:00	0.2013	15.003	220.0	0.470511944	0.557482289	0.007798962	0.080460456	0.024798694
2019-08-10T06:05:00	0.2032	14.998	220.1	0.476949987	0.566251760	0.007993742	0.082469958	0.025418042
2019-08-10T06:10:00	0.2048	15.017	220.2	0.482685518	0.574092124	0.008169267	0.084280819	0.025976167
2019-08-10T06:15:00	0.2049	15.023	220.2	0.482893345	0.574376714	0.008175662	0.084346801	0.025996503
2019-08-10T06:20:00	0.2031	15.027	220.3	0.476883019	0.566160371	0.007991703	0.082448929	0.025411561
2019-08-10T06:25:00	0.2046	15.039	220.4	0.481928223	0.573055414	0.008145983	0.084040605	0.025902131
2019-08-10T06:30:00	0.2029	15.056	220.5	0.475916182	0.564841358	0.007962304	0.082145627	0.025318080
2019-08-10T06:35:00	0.2040	15.078	220.7	0.479926608	0.570317472	0.008084600	0.083407328	0.025706948
2019-08-10T06:40:00	0.2034	15.113	220.9	0.477715677	0.567296928	0.008017065	0.082710581	0.025492204
2019-08-10T06:45:00	0.2044	15.147	221.0	0.481378680	0.572303394	0.008129107	0.083866503	0.025848471
2019-08-10T06:50:00	0.2053	15.136	221.0	0.484347781	0.576369315	0.008220490	0.084809279	0.026139044
2019-08-10T06:55:00	0.2077	15.138	221.1	0.492480966	0.587543090	0.008473406	0.087418564	0.026943250
2019-08-10T07:00:00	0.2051	15.159	221.2	0.483728163	0.575520221	0.008201378	0.084612101	0.026078271
2019-08-10T07:05:00	0.2058	15.165	221.3	0.486005598	0.578642612	0.008271734	0.085337957	0.026301987
2019-08-10T07:10:00	0.2075	15.166	221.3	0.492070096	0.586977346	0.008460538	0.087285807	0.026902334
2019-08-10T07:15:00	0.2081	15.186	221.4	0.493997936	0.589633043	0.008521000	0.087909582	0.027094587
2019-08-10T07:20:00	0.2104	15.200	221.4	0.501764887	0.600362630	0.008766760	0.090445051	0.027876043
2019-08-10T07:25:00	0.2083	15.222	221.6	0.494756168	0.590678361	0.008544838	0.088155521	0.027170388
2019-08-10T07:30:00	0.2077	15.243	221.6	0.492554877	0.587644876	0.008475721	0.087442456	0.026950614
2019-08-10T07:35:00	0.2119	15.259	221.8	0.507186060	0.607880420	0.008940360	0.092236045	0.028428045
2019-08-10T07:40:00	0.2128	15.255	221.8	0.510132760	0.611976683	0.009035433	0.093216902	0.028730354
2019-08-10T07:45:00	0.2126	15.291	221.9	0.509311603	0.610834473	0.009008889	0.092943045	0.028645949
2019-08-10T07:50:00	0.2085	15.303	222.1	0.495447628	0.591632030	0.008566607	0.088380101	0.027239605
2019-08-10T07:55:00	0.2075	15.310	222.1	0.491870081	0.586701986	0.008454277	0.087221217	0.026882426
2019-08-10T08:00:00	0.2093	15.333	222.1	0.498267758	0.595525552	0.008655674	0.089298995	0.027522817
2019-08-10T08:05:00	0.2107	15.352	222.2	0.502938235	0.601987758	0.008804190	0.090831205	0.027995059
2019-08-10T08:10:00	0.2136	15.342	222.2	0.512738399	0.615604671	0.009119922	0.094088551	0.028999005
2019-08-10T08:15:00	0.2114	15.370	222.3	0.505409318	0.605413921	0.008883277	0.091647132	0.028246536
2019-08-10T08:20:00	0.2077	15.365	222.4	0.492562128	0.587654862	0.008475949	0.087444800	0.026951337
2019-08-10T08:25:00	0.2054	15.377	222.4	0.484844567	0.577050306	0.008235829	0.084967533	0.026187819
2019-08-10T08:30:00	0.2032	15.386	222.5	0.477109412	0.566469337	0.007998595	0.082520030	0.025433475
2019-08-10T08:35:00	0.1998	15.400	222.5	0.465195482	0.550265388	0.007639903	0.078819468	0.024292926
2019-08-10T08:40:00	0.2047	15.425	222.7	0.482362140	0.573649375	0.008159320	0.084178202	0.025944539
2019-08-10T08:45:00	0.2089	15.433	222.8	0.496693352	0.593351110	0.008605893	0.088785416	0.027364528
2019-08-10T08:50:00	0.2172	15.435	222.8	0.525312140	0.633189088	0.009533163	0.098351886	0.030313006
2019-08-10T08:55:00	0.2143	15.450	222.8	0.515275840	0.619142977	0.009202577	0.094941287	0.029261827
2019-08-10T09:00:00	0.2067	15.445	222.8	0.489055531	0.582830603	0.008366422	0.086314835	0.026603070
2019-08-10T09:05:00	0.2121	15.443	222.8	0.507815864	0.608755332	0.008960638	0.092445250	0.028492524
2019-08-10T09:10:00	0.2145	15.448	222.9	0.515893355	0.620004853	0.009222748	0.095149393	0.029325967
2019-08-10T09:15:00	0.2164	15.468	223.0	0.522587474	0.629367755	0.009442836	0.097420001	0.030025791
2019-08-10T09:20:00	0.2150	15.493	223.0	0.517671867	0.622488872	0.009280968	0.095750036	0.029511091
2019-08-10T09:25:00	0.2111	15.502	223.0	0.504184839	0.603715563	0.008844043	0.091242366	0.028121783
2019-08-10T09:30:00	0.2104	15.533	223.2	0.501989629	0.600673820	0.008773923	0.090518951	0.027898820
2019-08-10T09:35:00	0.2104	15.533	223.2	0.501853060	0.600484714	0.008769570	0.090474041	0.027884978
2019-08-10T09:40:00	0.2073	15.520	223.2	0.491403335	0.586059543	0.008439676	0.087070583	0.026835999
2019-08-10T09:45:00	0.2084	15.516	223.2	0.495051607	0.591085787	0.008554136	0.088251442	0.027199952
2019-08-10T09:50:00	0.2100	15.546	223.4	0.500413324	0.598492040	0.008723744	0.090001262	0.027739263
2019-08-10T09:55:00	0.2098	15.543	223.4	0.499933277	0.597827999	0.008708491	0.089843900	0.027690762
2019-08-10T10:00:00	0.2058	15.531	223.3	0.486031025	0.578677496	0.008272521	0.085346078	0.026304490
2019-08-10T10:05:00	0.2076	15.535	223.4	0.492287330	0.587276448	0.008467340	0.087355986	0.026923963
2019-08-10T10:10:00	0.2093	15.535	223.4	0.498188560	0.595416124	0.008653167	0.089273125	0.027514844
2019-08-10T10:15:00	0.2114	15.549	223.5	0.505451377	0.605472279	0.008884626	0.091661051	0.028250826
2019-08-10T10:20:00	0.2119	15.574	223.6	0.506877268	0.607451567	0.008930426	0.092133559	0.028396458
2019-08-10T10:25:00	0.2090	15.580	223.6	0.496978306	0.593744518	0.008614893	0.088878260	0.027393143
2019-08-10T10:30:00	0.2105	15.599	223.8	0.502185086	0.600944493	0.008780156	0.090583246	0.027918636
2019-08-10T10:35:00	0.2086	15.616	223.9	0.495712785	0.591997838	0.008574961	0.088466296	0.027266172
2019-08-10T10:40:00	0.2096	15.601	223.8	0.499204404	0.596820116	0.008685357	0.089605232	0.027617203
2019-08-10T10:45:00	0.2109	15.597	223.8	0.503721758	0.603073582	0.008829228	0.091089522	0.028074675
2019-08-10T10:50:00	0.2081	15.588	223.8	0.494157654	0.589853195	0.008526018	0.087961359	0.027110545
2019-08-10T10:55:00	0.2096	15.584	223.8	0.499025235	0.596572427	0.008679676	0.089546612	0.027599136
2019-08-10T11:00:00	0.2098	15.578	223.8	0.499766983	0.597598012	0.008703211	0.089789419	0.027673971
2019-08-10T11:05:00	0.2089	15.580	223.9	0.496729366	0.593400829	0.008607031	0.088797148	0.027368143
2019-08-10T11:10:00	0.2109	15.610	224.1	0.503652245	0.602977230	0.008827006	0.091066590	0.028067607
2019-08-10T11:15:00	0.2098	15.610	224.0	0.499931293	0.597825256	0.008708428	0.089843250	0.027690562
2019-08-10T11:20:00	0.2097	15.614	224.0	0.499642618	0.597426026	0.008699262	0.089748686	0.027661417
2019-08-10T11:25:00	0.2110	15.618	224.1	0.503816368	0.603204729	0.008832254	0.091120739	0.028084297
2019-08-10T11:30:00	0.2107	15.610	224.1	0.502841812	0.601854167	0.008801111	0.090799441	0.027985269
2019-08-10T11:35:00	0.2099	15.605	224.0	0.500150360	0.598128264	0.008715387	0.089915044	0.027712690
2019-08-10T11:40:00	0.2108	15.602	224.1	0.503294365	0.602481230	0.008815566	0.090948571	0.028031233
2019-08-10T11:45:00	0.2087	15.602	224.2	0.496136612	0.592582663	0.008588324	0.088604158	0.027308662
2019-08-10T11:50:00	0.2084	15.604	224.2	0.495159858	0.591235088	0.008557544	0.088286601	0.027210788
2019-08-10T11:55:00	0.2093	15.616	224.2	0.497964852	0.595107049	0.008646086	0.089200071	0.027492328
2019-08-10T12:00:00	0.2048	15.615	224.2	0.482521311	0.573867292	0.008164215	0.084228704	0.025960105
2019-08-10T12:05:00	0.2076	15.595	224.1	0.492227915	0.587194639	0.008465479	0.087336789	0.026918047
2019-08-10T12:10:00	0.2035	15.599	224.3	0.478141051	0.567877765	0.008030037	0.082844408	0.025533451
2019-08-10T12:15:00	0.2071	15.589	224.2	0.490616272	0.584976602	0.008415084	0.086816866	0.026757801
2019-08-10T12:20:00	0.2057	15.611	224.2	0.485846630	0.578424530	0.008266814	0.085287191	0.026286341
2019-08-10T12:25:00	0.2056	15.621	224.2	0.485211854	0.577553908	0.008247179	0.085084629	0.026223909
2019-08-10T12:30:00	0.2050	15.633	224.1	0.483196736	0.574792225	0.008185003	0.084443169	0.026026205
2019-08-10T12:35:00	0.2092	15.650	224.3	0.497715985	0.594763262	0.008638212	0.089118836	0.027467291
2019-08-10T12:40:00	0.2092	15.674	224.5	0.497770789	0.594838964	0.008639945	0.089136722	0.027472803
2019-08-10T12:45:00	0.2062	15.716	224.8	0.487500631	0.580694575	0.008318082	0.085816119	0.026449361
2019-08-10T12:50:00	0.2062	15.713	224.8	0.487555600	0.580770054	0.008319789	0.085833725	0.026454788
2019-08-10T12:55:00	0.2085	15.722	224.8	0.495528915	0.591744166	0.008569167	0.088406520	0.027247748
2019-08-10T13:00:00	0.2057	15.738	224.8	0.485596874	0.578081941	0.008259086	0.085207463	0.026261768
2019-08-10T13:05:00	0.2051	15.723	224.8	0.483581986	0.575319952	0.008196872	0.084565617	0.026063945
2019-08-10T13:10:00	0.2068	15.738	224.9	0.489498331	0.583439249	0.008380214	0.086457120	0.026646924
2019-08-10T13:15:00	0.2057	15.753	225.0	0.485761870	0.578308259	0.008264190	0.085260130	0.026278000
2019-08-10T13:20:00	0.2053	15.737	224.9	0.484437149	0.576491804	0.008223248	0.084837737	0.026147815
2019-08-10T13:25:00	0.2020	15.783	225.0	0.473088194	0.560987527	0.007876620	0.081261642	0.025045627
2019-08-10T13:30:00	0.2010	15.756	225.0	0.469333574	0.555880759	0.007763568	0.080095301	0.024686150
2019-08-10T13:35:00	0.2018	15.761	225.0	0.472159999	0.559724020	0.007848597	0.080972532	0.024956521
2019-08-10T13:40:00	0.2036	15.767	225.0	0.478441932	0.568288698	0.008039218	0.082939132	0.025562646
2019-08-10T13:45:00	0.2015	15.779	225.1	0.471231550	0.558460851	0.007820616	0.080683851	0.024867546
2019-08-10T13:50:00	0.2026	15.781	225.2	0.475094405	0.563720828	0.007937359	0.081888265	0.025238759
2019-08-10T13:55:00	0.2038	15.813	225.4	0.479298393	0.569458816	0.008065382	0.083209060	0.025645840
2019-08-10T14:00:00	0.2058	15.815	225.4	0.485911976	0.578514173	0.008268836	0.085308057	0.026292772
2019-08-10T14:05:00	0.2058	15.852	225.4	0.485966970	0.578589618	0.008270538	0.085325620	0.026298185
2019-08-10T14:10:00	0.2036	15.848	225.4	0.478427018	0.568268327	0.008038763	0.082934436	0.025561199
2019-08-10T14:15:00	0.2011	15.847	225.4	0.469830920	0.556556571	0.007778497	0.080249319	0.024733620
2019-08-10T14:20:00	0.2048	15.836	225.3	0.482681921	0.574087199	0.008169156	0.084279677	0.025975815
2019-08-10T14:25:00	0.2066	15.841	225.4	0.488944393	0.582677863	0.008362962	0.086279141	0.026592069
2019-08-10T14:30:00	0.2042	15.844	225.3	0.480720378	0.571402861	0.008108915	0.083658180	0.025784263
2019-08-10T14:35:00	0.2034	15.848	225.3	0.477665678	0.567228665	0.008015541	0.082694858	0.025487358
2019-08-10T14:40:00	0.2037	15.858	225.4	0.478757700	0.568720039	0.008048860	0.083038601	0.025593303
2019-08-10T14:45:00	0.2012	15.874	225.4	0.470162444	0.557007166	0.007788456	0.080352067	0.024765287
2019-08-10T14:50:00	0.2032	15.895	225.4	0.477139644	0.566510599	0.007999515	0.082529526	0.025436402
2019-08-10T14:55:00	0.2040	15.904	225.5	0.479959554	0.570362511	0.008085608	0.083417732	0.025710155
2019-08-10T15:00:00	0.2014	15.921	225.5	0.471021004	0.558174496	0.007814277	0.080618457	0.024847391
2019-08-10T15:05:00	0.2029	15.923	225.3	0.475921863	0.564849105	0.007962477	0.082147407	0.025318629
2019-08-10T15:10:00	0.2003	15.939	225.1	0.466972613	0.552675282	0.007692892	0.079366146	0.024461417
2019-08-10T15:15:00	0.1983	15.963	225.1	0.460085169	0.543349447	0.007488532	0.077257805	0.023811606
2019-08-10T15:20:00	0.1981	15.989	225.0	0.459445534	0.542485265	0.007469691	0.077063420	0.023751695
2019-08-10T15:25:00	0.1999	15.984	224.8	0.465751160	0.551018650	0.007656452	0.078990205	0.024345548
2019-08-10T15:30:00	0.1995	15.987	224.7	0.464418575	0.549212642	0.007616794	0.078581062	0.024219446
2019-08-10T15:35:00	0.1988	15.981	224.2	0.461696432	0.545527786	0.007536098	0.077748532	0.023962853
2019-08-10T15:40:00	0.1990	15.997	224.1	0.462446397	0.546542398	0.007558288	0.077977463	0.024033412
2019-08-10T15:45:00	0.1997	16.008	223.9	0.464931620	0.549907789	0.007632050	0.078738458	0.024267957
2019-08-10T15:50:00	0.1991	15.993	223.1	0.462904373	0.547162203	0.007571854	0.078117426	0.024076549
2019-08-10T15:55:00	0.1986	16.008	208.3	0.461223301	0.544887926	0.007522115	0.077604277	0.023918392
2019-08-10T16:00:00	0.1964	15.999	222.2	0.453627810	0.534640048	0.007299390	0.075306462	0.023210183
2019-08-10T16:05:00	0.1982	16.015	222.0	0.459750645	0.542897447	0.007478675	0.077156113	0.023780263
2019-08-10T16:10:00	0.1976	15.995	221.7	0.457526449	0.539894419	0.007413301	0.076481657	0.023572389
2019-08-10T16:15:00	0.1945	16.018	221.6	0.446938596	0.525652623	0.007105959	0.073310873	0.022595123
2019-08-10T16:20:00	0.1959	15.962	221.3	0.451680461	0.532020011	0.007242816	0.074722802	0.023030293
2019-08-10T16:25:00	0.1948	15.987	206.5	0.448056229	0.527151789	0.007138101	0.073642469	0.022697324
2019-08-10T16:30:00	0.1955	15.989	206.3	0.450357877	0.530242261	0.007204516	0.074327665	0.022908508
2019-08-10T16:35:00	0.1945	15.984	220.0	0.446732214	0.525375895	0.007100032	0.073249720	0.022576275
2019-08-10T16:40:00	0.1944	15.933	204.8	0.446593394	0.525189776	0.007096046	0.073208600	0.022563602
2019-08-10T16:45:00	0.1939	15.934	204.2	0.444709564	0.522665588	0.007042068	0.072651714	0.022391964
2019-08-10T16:50:00	0.1916	15.908	203.9	0.437817882	0.512212494	0.006829745	0.070461218	0.021716832
2019-08-10T16:55:00	0.1934	15.896	203.1	0.443034976	0.520424110	0.006994254	0.072158428	0.022239928
2019-08-10T17:00:00	0.1947	15.896	202.5	0.447433577	0.526316457	0.007120185	0.073457641	0.022640358
2019-08-10T17:05:00	0.1926	15.894	201.8	0.440483314	0.516782990	0.006918626	0.071378184	0.021999450
2019-08-10T17:10:00	0.1937	15.881	201.4	0.444014986	0.521735610	0.007022216	0.072446912	0.022328842
2019-08-10T17:15:00	0.1943	15.873	200.9	0.446319412	0.524822487	0.007088183	0.073127478	0.022538599
2019-08-10T17:20:00	0.1939	15.842	197.8	0.444784530	0.522765983	0.007044212	0.072673835	0.022398782
2019-08-10T17:25:00	0.1947	15.832	213.4	0.447437251	0.526321386	0.007120291	0.073458731	0.022640694
2019-08-10T17:30:00	0.1960	15.810	199.9	0.452178411	0.532689687	0.007257262	0.074871836	0.023076227
2019-08-10T17:35:00	0.1955	15.801	197.7	0.450297720	0.530161434	0.007202776	0.074309717	0.022902977
2019-08-10T17:40:00	0.1955	15.794	197.3	0.450507554	0.530443379	0.007208846	0.074372332	0.022922275
2019-08-10T17:45:00	0.1963	15.782	197.5	0.453155750	0.534004647	0.007285656	0.075164772	0.023166513
2019-08-10T17:50:00	0.1958	15.774	197.7	0.451275607	0.531475681	0.007231082	0.074601739	0.022992980
2019-08-10T17:55:00	0.1952	15.758	197.7	0.449394410	0.528948085	0.007176678	0.074040465	0.022819990
2019-08-10T18:00:00	0.1971	15.739	198.1	0.455872912	0.537664407	0.007364882	0.075982129	0.023418430
2019-08-10T18:05:00	0.1964	15.752	198.4	0.453646147	0.534664734	0.007299924	0.075311969	0.023211880
2019-08-10T18:10:00	0.2001	15.725	197.8	0.466365517	0.551851742	0.007674770	0.079179183	0.024403793
2019-08-10T18:15:00	0.2001	15.707	198.7	0.466227505	0.551664567	0.007670653	0.079136711	0.024390703
2019-08-10T18:20:00	0.1996	15.712	199.6	0.464701697	0.549596230	0.007625211	0.078667901	0.024246211
2019-08-10T18:25:00	0.2003	15.708	200.5	0.466991977	0.552701554	0.007693470	0.079372113	0.024463256
2019-08-10T18:30:00	0.2010	15.678	200.7	0.469627234	0.556279771	0.007772381	0.080186224	0.024714173
2019-08-10T18:35:00	0.2004	15.666	200.6	0.467409553	0.553268181	0.007705948	0.079500842	0.024502932
2019-08-10T18:40:00	0.1998	15.636	200.7	0.465190413	0.550258517	0.007639752	0.078817911	0.024292446
2019-08-10T18:45:00	0.1992	15.613	200.7	0.463316990	0.547720764	0.007584087	0.078243632	0.024115447
2019-08-10T18:50:00	0.2008	15.587	201.8	0.468729101	0.555059645	0.007745443	0.079908303	0.024628515
2019-08-10T18:55:00	0.2017	15.563	201.9	0.472055600	0.559581949	0.007845448	0.080940046	0.024946508
2019-08-10T19:00:00	0.2023	15.544	202.8	0.473994850	0.562222376	0.007904041	0.081544534	0.025132817
2019-08-10T19:05:00	0.2029	15.522	203.3	0.475932988	0.564864279	0.007962815	0.082150894	0.025319703
2019-08-10T19:10:00	0.2041	15.497	203.8	0.480288834	0.570812711	0.008095691	0.083521754	0.025742216
2019-08-10T19:15:00	0.2049	15.474	203.6	0.482913752	0.574404659	0.008176290	0.084353281	0.025998501
2019-08-10T19:20:00	0.2045	15.452	217.8	0.481740750	0.572798840	0.008140224	0.083981191	0.025883819
2019-08-10T19:25:00	0.2062	15.428	218.1	0.487468188	0.580650027	0.008317075	0.085805728	0.026446159
2019-08-10T19:30:00	0.2038	15.405	204.6	0.479047998	0.569116660	0.008057728	0.083130099	0.025621504
2019-08-10T19:35:00	0.2032	15.384	204.9	0.477182250	0.566568750	0.008000813	0.082542911	0.025440527
2019-08-10T19:40:00	0.2030	15.361	205.0	0.476353102	0.565437337	0.007975583	0.082282623	0.025360303
2019-08-10T19:45:00	0.2043	15.338	204.9	0.481053770	0.571858885	0.008119138	0.083763651	0.025816771
2019-08-10T19:50:00	0.2059	15.316	219.3	0.486437588	0.579235343	0.008285113	0.085475985	0.026344529
2019-08-10T19:55:00	0.2046	15.291	219.4	0.481814896	0.572900312	0.008142502	0.084004687	0.025891060
2019-08-10T20:00:00	0.2038	15.268	219.4	0.479259688	0.569405924	0.008064199	0.083196852	0.025642078
2019-08-10T20:05:00	0.2039	15.245	219.5	0.479467726	0.569690233	0.008070560	0.083262479	0.025662305
2019-08-10T20:10:00	0.2045	15.221	206.0	0.481748024	0.572808794	0.008140448	0.083983496	0.025884529
2019-08-10T20:15:00	0.2045	15.198	207.5	0.481610640	0.572620788	0.008136228	0.083939969	0.025871114
2019-08-10T20:20:00	0.2055	15.183	222.4	0.484924505	0.577159904	0.008238299	0.084993012	0.026195672
2019-08-10T20:25:00	0.2055	15.157	222.6	0.485132196	0.577444676	0.008244717	0.085059226	0.026216079
2019-08-10T20:30:00	0.2051	15.134	222.7	0.483614896	0.575365038	0.008197886	0.084576082	0.026067170
2019-08-10T20:35:00	0.2058	15.112	222.5	0.486237242	0.578960430	0.008278907	0.085411957	0.026324795
2019-08-10T20:40:00	0.2047	15.089	222.4	0.482304780	0.573570850	0.008157557	0.084160007	0.025938931
2019-08-10T20:45:00	0.2057	15.064	222.0	0.485617968	0.578110874	0.008259738	0.085214196	0.026263843
2019-08-10T20:50:00	0.2023	15.041	221.7	0.474080101	0.562338520	0.007906622	0.081571159	0.025141023
2019-08-10T20:55:00	0.2042	15.019	221.6	0.480511361	0.571117005	0.008102509	0.083592089	0.025763894
2019-08-10T21:00:00	0.2060	14.995	221.6	0.486930436	0.579911760	0.008300390	0.085633595	0.026393106
2019-08-10T21:05:00	0.2046	14.971	222.2	0.481963183	0.573103262	0.008147057	0.084051687	0.025905546
2019-08-10T21:10:00	0.2034	14.951	222.2	0.477680087	0.567248336	0.008015980	0.082699389	0.025488755
2019-08-10T21:15:00	0.2055	14.929	222.1	0.485139462	0.577454641	0.008244942	0.085061543	0.026216794
2019-08-10T21:20:00	0.2041	14.907	222.1	0.480169583	0.570649658	0.008092039	0.083484075	0.025730603
2019-08-10T21:25:00	0.2043	14.885	222.0	0.480722960	0.571406392	0.008108994	0.083658996	0.025784515
2019-08-10T21:30:00	0.2056	14.861	221.9	0.485417573	0.577836026	0.008253540	0.085150249	0.026244134
2019-08-10T21:35:00	0.2047	14.840	221.9	0.482174691	0.573392769	0.008153557	0.084118748	0.025926215
2019-08-10T21:40:00	0.2035	14.821	221.7	0.478237511	0.568009500	0.008032980	0.082874770	0.025542809
2019-08-10T21:45:00	0.2032	14.799	221.6	0.477062889	0.566405843	0.007997178	0.082505416	0.025428971
2019-08-10T21:50:00	0.2054	14.779	221.4	0.484523622	0.576610334	0.008225918	0.084865278	0.026156303
2019-08-10T21:55:00	0.2070	14.762	221.3	0.490246370	0.584467815	0.008403538	0.086697752	0.026721089
2019-08-10T22:00:00	0.2050	14.740	221.2	0.483213858	0.574815676	0.008185531	0.084448609	0.026027882
2019-08-10T22:05:00	0.2041	14.719	221.1	0.480063592	0.570504745	0.008088794	0.083450592	0.025720283
2019-08-10T22:10:00	0.2047	14.698	221.0	0.482438149	0.573753434	0.008161658	0.084202316	0.025951972
2019-08-10T22:15:00	0.2044	14.676	220.8	0.481359672	0.572277387	0.008128524	0.083860484	0.025846616
2019-08-10T22:20:00	0.2043	14.654	220.7	0.480971628	0.571746520	0.008116619	0.083737659	0.025808760
2019-08-10T22:25:00	0.2044	14.631	206.2	0.481274252	0.572160517	0.008125903	0.083833439	0.025838280
2019-08-10T22:30:00	0.2041	14.611	220.3	0.480195405	0.570684964	0.008092830	0.083492233	0.025733117
2019-08-10T22:35:00	0.2055	14.593	220.2	0.484985337	0.577243309	0.008240179	0.085012403	0.026201648
2019-08-10T22:40:00	0.2046	14.572	205.9	0.481836717	0.572930176	0.008143172	0.084011603	0.025893192
2019-08-10T22:45:00	0.2037	14.552	220.1	0.478685170	0.568620956	0.008046645	0.083015749	0.025586260
2019-08-10T22:50:00	0.2033	14.538	220.1	0.477605498	0.567146504	0.008013707	0.082675935	0.025481526
2019-08-10T22:55:00	0.2048	14.523	220.0	0.482744278	0.574172585	0.008171075	0.084299472	0.025981916
2019-08-10T23:00:00	0.2050	14.506	220.0	0.483391868	0.575059508	0.008191014	0.084505179	0.026045317
2019-08-10T23:05:00	0.2051	14.494	220.0	0.483694277	0.575473794	0.008200333	0.084601325	0.026074950
2019-08-10T23:10:00	0.2055	14.480	219.9	0.485031634	0.577306788	0.008241609	0.085027162	0.026206197
2019-08-10T23:15:00	0.1926	14.462	3.3	0.440393426	0.516628534	0.006915617	0.071347143	0.021989882
2019-08-10T23:20:00	0.1932	14.243	2.4	0.442248886	0.519372668	0.006971864	0.071927434	0.022168734
2019-08-10T23:25:00	0.1916	14.110	1.1	0.437607866	0.511853218	0.006822771	0.070389276	0.021694658
2019-08-10T23:30:00	0.1942	14.029	1.2	0.446003195	0.524398655	0.007079113	0.073033906	0.022509759
2019-08-10T23:35:00	0.1926	13.980	1.3	0.440530655	0.516864347	0.006920211	0.071394536	0.022004489
2019-08-10T23:40:00	0.1936	13.967	1.5	0.443822424	0.521477855	0.007016718	0.072390183	0.022311358
2019-08-10T23:45:00	0.1929	13.940	1.7	0.441334020	0.518149593	0.006945850	0.071659055	0.022086017
2019-08-10T23:50:00	0.1927	13.929	1.8	0.440701459	0.517157931	0.006925931	0.071453553	0.022022679
2019-08-10T23:55:00	0.1945	13.915	1.9	0.446834162	0.525512588	0.007102960	0.073279925	0.022585585
2019-08-11T00:00:00	0.1926	13.891	1.9	0.440362694	0.516575731	0.006914588	0.071336532	0.021986612
2019-08-11T00:05:00	0.1932	13.865	1.7	0.442209357	0.519319809	0.006970739	0.071915828	0.022165157
2019-08-11T00:10:00	0.1909	13.836	1.9	0.435943907	0.509011024	0.006767676	0.069820868	0.021519469
2019-08-11T00:15:00	0.1913	13.784	1.7	0.436999207	0.510812676	0.006802587	0.070181031	0.021630475
2019-08-11T00:20:00	0.1890	13.748	1.5	0.430694004	0.500094335	0.006595633	0.068045926	0.020972415
2019-08-11T00:25:00	0.1900	13.728	1.4	0.433389939	0.504663646	0.006683643	0.068953908	0.021252264
2019-08-11T00:30:00	0.1899	13.698	1.3	0.433083429	0.504143125	0.006673600	0.068850306	0.021220333
2019-08-11T00:35:00	0.1869	13.698	1.2	0.424845203	0.490250743	0.006407138	0.066101257	0.020373049
2019-08-11T00:40:00	0.1872	13.726	1.2	0.425633606	0.491572097	0.006432352	0.066361390	0.020453225
2019-08-11T00:45:00	0.1866	13.760	1.1	0.423954635	0.488760236	0.006378728	0.065808163	0.020282715
2019-08-11T00:50:00	0.1854	13.796	1.0	0.420625484	0.483207815	0.006273207	0.064719524	0.019947186
2019-08-11T00:55:00	0.1879	13.792	0.4	0.427722876	0.495082025	0.006499463	0.067053758	0.020666619
2019-08-11T01:00:00	0.1873	13.782	0.1	0.426046051	0.492264036	0.006445567	0.066497724	0.020495244
2019-08-11T01:05:00	0.1873	13.768	0.1	0.426012166	0.492207170	0.006444480	0.066486517	0.020491790
2019-08-11T01:10:00	0.1880	13.752	0.0	0.427895002	0.495371733	0.006505011	0.067110995	0.020684260
2019-08-11T01:15:00	0.1869	13.748	0.0	0.424848091	0.490255580	0.006407230	0.066102209	0.020373343
2019-08-11T01:20:00	0.1868	13.735	0.0	0.424539984	0.489739663	0.006397392	0.066000717	0.020342062
2019-08-11T01:25:00	0.1882	13.718	0.0	0.428340716	0.496122304	0.006519390	0.067259345	0.020729983
2019-08-11T01:30:00	0.1879	13.699	0.0	0.427485906	0.494683311	0.006491829	0.066975008	0.020642348
2019-08-11T01:35:00	0.1886	13.686	0.0	0.429640442	0.498314163	0.006561432	0.067693086	0.020863667
2019-08-11T01:40:00	0.1870	13.658	0.0	0.425226832	0.490890134	0.006419335	0.066227098	0.020411835
2019-08-11T01:45:00	0.1865	13.640	0.0	0.423821805	0.488538112	0.006374498	0.065764516	0.020269262
2019-08-11T01:50:00	0.1850	13.613	0.0	0.419667460	0.481615683	0.006243040	0.064408294	0.019851262
2019-08-11T01:55:00	0.1853	13.593	0.0	0.420458380	0.482929924	0.006267939	0.064665172	0.019930434
2019-08-11T02:00:00	0.1853	13.574	0.0	0.420424378	0.482873388	0.006266867	0.064654116	0.019927026
2019-08-11T02:05:00	0.1834	13.558	0.1	0.415158392	0.474156124	0.006102239	0.062955676	0.019403551
2019-08-11T02:10:00	0.1969	13.549	0.1	0.455078476	0.536593773	0.007341675	0.075742704	0.023344637
2019-08-11T02:15:00	0.1966	13.531	0.1	0.454339324	0.535598092	0.007320115	0.075520273	0.023276082
2019-08-11T02:20:00	0.1990	13.521	0.2	0.462640174	0.546804628	0.007564027	0.078036669	0.024051659
2019-08-11T02:25:00	0.1979	13.503	0.2	0.458775459	0.541580305	0.007449977	0.076860044	0.023689012
2019-08-11T02:30:00	0.1983	13.470	0.3	0.460122717	0.543400186	0.007489639	0.077269223	0.023815125
2019-08-11T02:35:00	0.1995	13.440	0.8	0.464247110	0.548980363	0.007611699	0.078528493	0.024203244
2019-08-11T02:40:00	0.1983	13.409	1.3	0.460036758	0.543284030	0.007487105	0.077243084	0.023807069
2019-08-11T02:45:00	0.2008	13.374	1.5	0.468670214	0.554979668	0.007743678	0.079890098	0.024622904
2019-08-11T02:50:00	0.2014	13.368	1.6	0.470706396	0.557746676	0.007804811	0.080520792	0.024817290
2019-08-11T02:55:00	0.2002	13.342	1.7	0.466850928	0.552510189	0.007689258	0.079328654	0.024449862
2019-08-11T03:00:00	0.2005	13.329	1.7	0.467848281	0.553863661	0.007719068	0.079636203	0.024544651
2019-08-11T03:05:00	0.1992	13.323	1.7	0.463295285	0.547691378	0.007583444	0.078236991	0.024113400
2019-08-11T03:10:00	0.1977	13.313	1.6	0.458040783	0.540588506	0.007428393	0.076637363	0.023620380
2019-08-11T03:15:00	0.1986	13.308	1.7	0.461125724	0.544755985	0.007519233	0.077574542	0.023909227
2019-08-11T03:20:00	0.1989	13.306	1.7	0.462124773	0.546107225	0.007548768	0.077879245	0.024003140
2019-08-11T03:25:00	0.1980	13.293	1.6	0.458954763	0.541822426	0.007455250	0.076914439	0.023705777
2019-08-11T03:30:00	0.1984	13.294	1.7	0.460301948	0.543642401	0.007494923	0.077323738	0.023831927
2019-08-11T03:35:00	0.1977	13.306	1.8	0.458173459	0.540767585	0.007432289	0.076677554	0.023632767
2019-08-11T03:40:00	0.1966	13.310	1.8	0.454303604	0.535549986	0.007319073	0.075509532	0.023272771
2019-08-11T03:45:00	0.1995	13.295	1.8	0.464340273	0.549106566	0.007614467	0.078557053	0.024212047
2019-08-11T03:50:00	0.1993	13.229	1.8	0.463603154	0.548108223	0.007592577	0.078331219	0.024142442
2019-08-11T03:55:00	0.1982	13.238	1.9	0.459739545	0.542882450	0.007478348	0.077152740	0.023779224
2019-08-11T04:00:00	0.1992	13.240	1.9	0.463170124	0.547521936	0.007579732	0.078198699	0.024101598
2019-08-11T04:05:00	0.1991	13.223	1.8	0.462911924	0.547172423	0.007572078	0.078119734	0.024077261
2019-08-11T04:10:00	0.2003	13.219	1.8	0.467164677	0.552935882	0.007698629	0.079425340	0.024479661
2019-08-11T04:15:00	0.2003	13.210	1.8	0.466906783	0.552585967	0.007690926	0.079345863	0.024455165
2019-08-11T04:20:00	0.1999	13.192	1.8	0.465608251	0.550824903	0.007652194	0.078946278	0.024332009
2019-08-11T04:25:00	0.2010	13.157	1.4	0.469511100	0.556121965	0.007768895	0.080150260	0.024703089
2019-08-11T04:30:00	0.2023	13.158	0.9	0.474101619	0.562367837	0.007907273	0.081577880	0.025143095
2019-08-11T04:35:00	0.2030	13.166	0.7	0.476265950	0.565318445	0.007972934	0.082255287	0.025351878
2019-08-11T04:40:00	0.2030	13.190	0.6	0.476354591	0.565439368	0.007975629	0.082283090	0.025360447
2019-08-11T04:45:00	0.2043	13.195	0.6	0.480935837	0.571697562	0.008115521	0.083726335	0.025805269
2019-08-11T04:50:00	0.2067	13.187	0.6	0.489302574	0.583170154	0.008374115	0.086394203	0.026627532
2019-08-11T04:55:00	0.2052	13.179	0.6	0.483874450	0.575720658	0.008205888	0.084658633	0.026092613
2019-08-11T05:00:00	0.2056	13.169	0.7	0.485342803	0.577733484	0.008251228	0.085126396	0.026236782
2019-08-11T05:05:00	0.2060	13.147	0.7	0.486810521	0.579747162	0.008296672	0.085595233	0.026381282
2019-08-11T05:10:00	0.2054	13.140	0.8	0.484829759	0.577030005	0.008235372	0.084962814	0.026186364
2019-08-11T05:15:00	0.2069	13.173	0.8	0.489744054	0.583777073	0.008387872	0.086536128	0.026671275
2019-08-11T05:20:00	0.2058	13.205	0.8	0.486041258	0.578691535	0.008272838	0.085349346	0.026305497
2019-08-11T05:25:00	0.2064	13.199	0.9	0.488197979	0.581652310	0.008339745	0.086039607	0.026518243
2019-08-11T05:30:00	0.2078	13.192	0.9	0.493107409	0.588405926	0.008493044	0.087621167	0.027005695
2019-08-11T05:35:00	0.2075	13.206	0.9	0.491818886	0.586631512	0.008452675	0.087204688	0.026877332
2019-08-11T05:40:00	0.2093	13.202	0.9	0.498097841	0.595290781	0.008650295	0.089243496	0.027505712
2019-08-11T05:45:00	0.2074	13.223	0.9	0.491651104	0.586400559	0.008447425	0.087150530	0.026860640
2019-08-11T05:50:00	0.2086	13.233	1.1	0.495867944	0.592211920	0.008579852	0.088516754	0.027281723
2019-08-11T05:55:00	0.2091	13.241	1.2	0.497331127	0.594231714	0.008626042	0.088993284	0.027428594
2019-08-11T06:00:00	0.2100	13.277	1.2	0.500510982	0.598627152	0.008726849	0.090033292	0.027749135
2019-08-11T06:05:00	0.2105	13.310	1.3	0.502315384	0.601124949	0.008784311	0.090626120	0.027931850
2019-08-11T06:10:00	0.2089	13.353	1.4	0.496907994	0.593647440	0.008612672	0.088855347	0.027386081
2019-08-11T06:15:00	0.2096	13.410	1.4	0.499057840	0.596617499	0.008680709	0.089557279	0.027602423
2019-08-11T06:20:00	0.2087	13.449	1.4	0.496052887	0.592467122	0.008585684	0.088576916	0.027300266
2019-08-11T06:25:00	0.2100	13.494	1.5	0.500607665	0.598760922	0.008729923	0.090065008	0.027758910
2019-08-11T06:30:00	0.2085	13.547	1.5	0.495541456	0.591761467	0.008569563	0.088410597	0.027249005
2019-08-11T06:35:00	0.2082	13.606	1.6	0.494253855	0.589985807	0.008529042	0.087992553	0.027120160
2019-08-11T06:40:00	0.2088	13.670	1.7	0.496405375	0.592953596	0.008596803	0.088691637	0.027335624
2019-08-11T06:45:00	0.2089	13.707	1.7	0.496837253	0.593549772	0.008610438	0.088832296	0.027378976
2019-08-11T06:50:00	0.2083	13.773	1.8	0.494518365	0.590350470	0.008537358	0.088078351	0.027146603
2019-08-11T06:55:00	0.2105	13.870	0.7	0.502165455	0.600917306	0.008779529	0.090576787	0.027916646
2019-08-11T07:00:00	0.2101	13.948	0.8	0.500880354	0.599138253	0.008738597	0.090154490	0.027786489
2019-08-11T07:05:00	0.2098	14.055	0.8	0.499938217	0.597834832	0.008708648	0.089845518	0.027691261
2019-08-11T07:10:00	0.2112	14.149	0.8	0.504487815	0.604135679	0.008853743	0.091342435	0.028152626
2019-08-11T07:15:00	0.2109	14.246	0.8	0.503546673	0.602830902	0.008823630	0.091031767	0.028056875
2019-08-11T07:20:00	0.2099	14.317	1.9	0.500202286	0.598200092	0.008717037	0.089932066	0.027717936
2019-08-11T07:25:00	0.2086	14.429	0.9	0.495823235	0.592150231	0.008578443	0.088502213	0.027277242
2019-08-11T07:30:00	0.2105	14.526	1.0	0.502094823	0.600819490	0.008777277	0.090553551	0.027909484
2019-08-11T07:35:00	0.2094	14.590	1.1	0.498405444	0.595715807	0.008660034	0.089343979	0.027536682
2019-08-11T07:40:00	0.2084	14.591	1.1	0.495056009	0.591091858	0.008554274	0.088252872	0.027200392
2019-08-11T07:45:00	0.2095	14.748	1.1	0.498925122	0.596434039	0.008676501	0.089513866	0.027589043
2019-08-11T07:50:00	0.2088	15.344	1.1	0.496263870	0.592758291	0.008592339	0.088645574	0.027321427
2019-08-11T07:55:00	0.2069	15.581	1.0	0.489813656	0.583872771	0.008390042	0.086558514	0.026678175
2019-08-11T08:00:00	0.2081	15.572	0.9	0.494032772	0.589681057	0.008522094	0.087920874	0.027098067
2019-08-11T08:05:00	0.2088	15.569	0.9	0.496528224	0.593123165	0.008600681	0.088731636	0.027347952
2019-08-11T08:10:00	0.2073	15.559	1.0	0.491111635	0.585658127	0.008430558	0.086976508	0.026807005
2019-08-11T08:15:00	0.2071	15.579	1.0	0.490511192	0.584832057	0.008411803	0.086783021	0.026747370
2019-08-11T08:20:00	0.2099	15.608	0.9	0.500228307	0.598236087	0.008717864	0.089940596	0.027720565
2019-08-11T08:25:00	0.2093	15.601	2.0	0.498255343	0.595508398	0.008655281	0.089294939	0.027521567
2019-08-11T08:30:00	0.2089	15.550	1.8	0.496625020	0.593256781	0.008603736	0.088763160	0.027357668
2019-08-11T08:35:00	0.2082	15.481	1.5	0.494305987	0.590057674	0.008530681	0.088009460	0.027125370
2019-08-11T08:40:00	0.2084	15.609	1.4	0.495082069	0.591127799	0.008555095	0.088261335	0.027203001
2019-08-11T08:45:00	0.2096	15.847	1.3	0.499294665	0.596944906	0.008688221	0.089634771	0.027626307
2019-08-11T08:50:00	0.2077	16.180	1.3	0.492506032	0.587577609	0.008474191	0.087426666	0.026945748
2019-08-11T08:55:00	0.2094	16.386	1.5	0.498440156	0.595763776	0.008661134	0.089355321	0.027540178
2019-08-11T09:00:00	0.2103	16.440	1.5	0.501618978	0.600160618	0.008762111	0.090397089	0.027861261
2019-08-11T09:05:00	0.2076	16.632	1.5	0.492426505	0.587468094	0.008471699	0.087400962	0.026937825
2019-08-11T09:10:00	0.2089	16.720	1.3	0.496642385	0.593280753	0.008604284	0.088768816	0.027359411
2019-08-11T09:15:00	0.2109	16.866	1.0	0.503598663	0.602902962	0.008825292	0.091048915	0.028062160
2019-08-11T09:20:00	0.2098	16.673	0.7	0.499910910	0.597797065	0.008707781	0.089836571	0.027688504
2019-08-11T09:25:00	0.2110	16.546	0.5	0.504117551	0.603622269	0.008841890	0.091220149	0.028114936
2019-08-11T09:30:00	0.2122	16.395	0.4	0.507976410	0.608978413	0.008965811	0.092498617	0.028508972
2019-08-11T09:35:00	0.2103	16.312	0.5	0.501548334	0.600062818	0.008759861	0.090373872	0.027854105
2019-08-11T09:40:00	0.2095	16.324	0.4	0.498889130	0.596384289	0.008675360	0.089502095	0.027585415
2019-08-11T09:45:00	0.2084	16.374	0.3	0.495196279	0.591285322	0.008558690	0.088298432	0.027214434
2019-08-11T09:50:00	0.2089	16.714	0.3	0.496659750	0.593304725	0.008604833	0.088774472	0.027361154
2019-08-11T09:55:00	0.2079	16.822	0.2	0.493308598	0.588683102	0.008499356	0.087686285	0.027025765
2019-08-11T10:00:00	0.2070	16.681	0.1	0.490298564	0.584539599	0.008405167	0.086714554	0.026726268
2019-08-11T10:05:00	0.2101	16.611	0.1	0.500894431	0.599157733	0.008739044	0.090159110	0.027787913
2019-08-11T10:10:00	0.2113	16.539	0.0	0.504948073	0.604774030	0.008868488	0.091494557	0.028199511
2019-08-11T10:15:00	0.2102	16.442	0.0	0.501109820	0.599455821	0.008745898	0.090229823	0.027809708
2019-08-11T10:20:00	0.2121	16.368	0.0	0.507562706	0.608403612	0.008952484	0.092361129	0.028466597
2019-08-11T10:25:00	0.2116	16.241	0.0	0.506127899	0.606411159	0.008906342	0.091885084	0.028319875
2019-08-11T10:30:00	0.2101	16.159	0.0	0.500917919	0.599190238	0.008739792	0.090166820	0.027790290
2019-08-11T10:35:00	0.2126	16.099	0.0	0.509426657	0.610994477	0.009012606	0.092981392	0.028657768
2019-08-11T10:40:00	0.2105	16.066	0.0	0.502163084	0.600914022	0.008779454	0.090576007	0.027916405
2019-08-11T10:45:00	0.2111	16.052	0.0	0.504157799	0.603678073	0.008843178	0.091233438	0.028119032
2019-08-11T10:50:00	0.2096	16.044	0.0	0.499288324	0.596936139	0.008688019	0.089632696	0.027625667
2019-08-11T10:55:00	0.2110	16.041	0.0	0.504029980	0.603500860	0.008839088	0.091191239	0.028106026
2019-08-11T11:00:00	0.2110	16.056	0.0	0.503966069	0.603412255	0.008837043	0.091170143	0.028099524
2019-08-11T11:05:00	0.2120	16.029	0.0	0.507330762	0.608081409	0.008945017	0.092284090	0.028442853
2019-08-11T11:10:00	0.2130	15.971	0.0	0.510692148	0.612755090	0.009053539	0.093403688	0.028787924
2019-08-11T11:15:00	0.2113	15.982	0.0	0.505146234	0.605048921	0.008874840	0.091560091	0.028219709
2019-08-11T11:20:00	0.2107	16.006	0.0	0.503024240	0.602106921	0.008806937	0.090859541	0.028003793
2019-08-11T11:25:00	0.2081	15.993	0.0	0.494027316	0.589673538	0.008521923	0.087919105	0.027097522
2019-08-11T11:30:00	0.2089	16.007	0.0	0.496714377	0.593380135	0.008606557	0.088792265	0.027366638
2019-08-11T11:35:00	0.2099	16.083	0.0	0.500086221	0.598039544	0.008713350	0.089894021	0.027706210
2019-08-11T11:40:00	0.2102	16.099	0.0	0.501052348	0.599376279	0.008744069	0.090210952	0.027803891
2019-08-11T11:45:00	0.2086	16.109	0.0	0.495834607	0.592165922	0.008578801	0.088505912	0.027278382
2019-08-11T11:50:00	0.2086	16.169	0.0	0.495770542	0.592077527	0.008576782	0.088485077	0.027271960
2019-08-11T11:55:00	0.2089	16.319	0.0	0.496737893	0.593412600	0.008607300	0.088799926	0.027369000
2019-08-11T12:00:00	0.2088	16.492	0.0	0.496330068	0.592849655	0.008594427	0.088667121	0.027328068
2019-08-11T12:05:00	0.2087	16.525	0.0	0.495922193	0.592286776	0.008581563	0.088534399	0.027287162
2019-08-11T12:10:00	0.2073	16.603	0.0	0.491385241	0.586034641	0.008439110	0.087064746	0.026834200
2019-08-11T12:15:00	0.2074	16.652	0.0	0.491665376	0.586420202	0.008447872	0.087155136	0.026862059
2019-08-11T12:20:00	0.2070	16.712	0.0	0.490223862	0.584436860	0.008402836	0.086690507	0.026718856
2019-08-11T12:25:00	0.2078	16.847	0.0	0.492913926	0.588139397	0.008486976	0.087558567	0.026986401
2019-08-11T12:30:00	0.2084	16.949	0.0	0.494914058	0.590896091	0.008549806	0.088206777	0.027186185
2019-08-11T12:35:00	0.2057	17.002	0.0	0.485895649	0.578491776	0.008268331	0.085302843	0.026291165
2019-08-11T12:40:00	0.2071	16.967	0.0	0.490655979	0.585031223	0.008416323	0.086829657	0.026761744
2019-08-11T12:45:00	0.2053	16.961	0.0	0.484387405	0.576423623	0.008221713	0.084821896	0.026142932
2019-08-11T12:50:00	0.2048	17.035	0.0	0.482597629	0.573971784	0.008166563	0.084252923	0.025967569
2019-08-11T12:55:00	0.2086	17.129	0.0	0.495625389	0.591877260	0.008572207	0.088437881	0.027257414
2019-08-11T13:00:00	0.2076	17.168	0.0	0.492120858	0.587047235	0.008462127	0.087302204	0.026907387
2019-08-11T13:05:00	0.2071	17.187	0.0	0.490679537	0.585063632	0.008417059	0.086837247	0.026764083
2019-08-11T13:10:00	0.2074	17.223	0.0	0.491648336	0.586396748	0.008447339	0.087149637	0.026860364
2019-08-11T13:15:00	0.2074	17.334	0.0	0.491584192	0.586308460	0.008445332	0.087128936	0.026853984
2019-08-11T13:20:00	0.2042	17.382	0.0	0.480485150	0.571081161	0.008101706	0.083583803	0.025761340
2019-08-11T13:25:00	0.2042	17.432	0.0	0.480420795	0.570993156	0.008099734	0.083563460	0.025755070
2019-08-11T13:30:00	0.2042	17.469	0.0	0.480701836	0.571377501	0.008108346	0.083652316	0.025782456
2019-08-11T13:35:00	0.2042	17.523	0.0	0.480637485	0.571289490	0.008106374	0.083631966	0.025776184
2019-08-11T13:40:00	0.2052	17.578	0.0	0.484025304	0.575927370	0.008210540	0.084706631	0.026107406
2019-08-11T13:45:00	0.2052	17.529	0.0	0.483961016	0.575839276	0.008208558	0.084686175	0.026101101
2019-08-11T13:50:00	0.2057	17.442	0.0	0.485621562	0.578115803	0.008259849	0.085215342	0.026264196
2019-08-11T13:55:00	0.2055	17.470	0.0	0.484867462	0.577081696	0.008236537	0.084974830	0.026190068
2019-08-11T14:00:00	0.2030	17.492	0.0	0.476513966	0.565656801	0.007980475	0.082333090	0.025375858
2019-08-11T14:05:00	0.2019	17.438	0.0	0.472643441	0.560382020	0.007863187	0.081123048	0.025002911
2019-08-11T14:10:00	0.2014	17.440	0.0	0.470847442	0.557938467	0.007809054	0.080564570	0.024830783
2019-08-11T14:15:00	0.2012	17.568	0.0	0.470090043	0.556908754	0.007786281	0.080329622	0.024758370
2019-08-11T14:20:00	0.2026	17.613	0.0	0.474872618	0.563418504	0.007930633	0.081818875	0.025217372
2019-08-11T14:25:00	0.2004	17.553	0.0	0.467534713	0.553438044	0.007709690	0.079539446	0.024514830
2019-08-11T14:30:00	0.2022	17.561	0.0	0.473705568	0.561828309	0.007895287	0.081454220	0.025104982
2019-08-11T14:35:00	0.2030	17.617	0.0	0.476408761	0.565513269	0.007977276	0.082300083	0.025365685
2019-08-11T14:40:00	0.2043	17.653	0.0	0.480837067	0.571562461	0.008112492	0.083695088	0.025795639
2019-08-11T14:45:00	0.2017	17.638	0.0	0.471781096	0.559208434	0.007837172	0.080854659	0.024920191
2019-08-11T14:50:00	0.2033	17.580	0.0	0.477598528	0.567136990	0.008013494	0.082673744	0.025480851
2019-08-11T14:55:00	0.2011	17.548	0.0	0.469920083	0.556677749	0.007781175	0.080276947	0.024742135
2019-08-11T15:00:00	0.2011	17.506	0.0	0.469855527	0.556590012	0.007779236	0.080256943	0.024735969
2019-08-11T15:05:00	0.2030	17.528	0.0	0.476367987	0.565457643	0.007976036	0.082287292	0.025361742
2019-08-11T15:10:00	0.2021	17.509	0.0	0.473189660	0.561125689	0.007879687	0.081293277	0.025055377
2019-08-11T15:15:00	0.2031	17.498	0.0	0.476584936	0.565753631	0.007982634	0.082355360	0.025382722
2019-08-11T15:20:00	0.2024	17.453	0.0	0.474445030	0.562835756	0.007917674	0.081685178	0.025176165
2019-08-11T15:25:00	0.2024	17.479	0.0	0.474380560	0.562747905	0.007915720	0.081665029	0.025169955
2019-08-11T15:30:00	0.2041	17.433	0.0	0.480193527	0.570682397	0.008092772	0.083491640	0.025732934
2019-08-11T15:35:00	0.2043	17.454	0.0	0.480819973	0.571539080	0.008111968	0.083689681	0.025793972
2019-08-11T15:40:00	0.2032	17.437	0.0	0.476954373	0.566257746	0.007993875	0.082471335	0.025418466
2019-08-11T15:45:00	0.2011	17.421	0.0	0.469967489	0.556742180	0.007782599	0.080291637	0.024746662
2019-08-11T15:50:00	0.2030	17.392	0.0	0.476479734	0.565610096	0.007979434	0.082322349	0.025372547
2019-08-11T15:55:00	0.2016	17.357	0.0	0.471570388	0.558921766	0.007830822	0.080789146	0.024900000
2019-08-11T16:00:00	0.2024	17.328	0.0	0.474275289	0.562604461	0.007912532	0.081632134	0.025159816
2019-08-11T16:05:00	0.2030	17.291	0.0	0.476451885	0.565572103	0.007978587	0.082313612	0.025369855
2019-08-11T16:10:00	0.2014	17.262	0.0	0.471015512	0.558167026	0.007814112	0.080616752	0.024846866
2019-08-11T16:15:00	0.2025	17.213	0.0	0.474578513	0.563017660	0.007921718	0.081726903	0.025189025
2019-08-11T16:20:00	0.2019	17.188	0.0	0.472602973	0.560326934	0.007861965	0.081110444	0.024999027
2019-08-11T16:25:00	0.2023	17.182	0.0	0.474088607	0.562350108	0.007906879	0.081573815	0.025141842
2019-08-11T16:30:00	0.2016	17.193	0.0	0.471420194	0.558717449	0.007826297	0.080742465	0.024885612
2019-08-11T16:35:00	0.1992	17.146	0.0	0.463199459	0.547561647	0.007580602	0.078207673	0.024104364
2019-08-11T16:40:00	0.1989	17.110	0.0	0.462259216	0.546289123	0.007552747	0.077920294	0.024015792
2019-08-11T16:45:00	0.1982	17.084	0.0	0.459928952	0.543138359	0.007483928	0.077210308	0.023796967
2019-08-11T16:50:00	0.1976	17.082	0.0	0.457597072	0.539989711	0.007415372	0.076503027	0.023578976
2019-08-11T16:55:00	0.1966	17.098	0.0	0.454219428	0.535436626	0.007316620	0.075484223	0.023264971
2019-08-11T17:00:00	0.1956	17.065	0.0	0.450838382	0.530887971	0.007218419	0.074471103	0.022952717
2019-08-11T17:05:00	0.1968	17.054	0.0	0.454770850	0.536179332	0.007332698	0.075650092	0.023316093
2019-08-11T17:10:00	0.1970	16.989	0.0	0.455568513	0.537254120	0.007355985	0.075890346	0.023390142
2019-08-11T17:15:00	0.1965	16.982	0.0	0.453929941	0.535046815	0.007308187	0.075397217	0.023238154
2019-08-11T17:20:00	0.1980	16.942	0.0	0.458901807	0.541750915	0.007453693	0.076898372	0.023700825
2019-08-11T17:25:00	0.1977	16.881	0.0	0.457960363	0.540479966	0.007426032	0.076613007	0.023612873
2019-08-11T17:30:00	0.1959	16.822	0.0	0.451797409	0.532177273	0.007246208	0.074757791	0.023041077
2019-08-11T17:35:00	0.1967	16.766	0.0	0.454684754	0.536063354	0.007330186	0.075624183	0.023308108
2019-08-11T17:40:00	0.1978	16.708	0.0	0.458265058	0.540891228	0.007434979	0.076705307	0.023641321
2019-08-11T17:45:00	0.1965	16.654	0.0	0.453843823	0.534930865	0.007305679	0.075371343	0.023230180
2019-08-11T17:50:00	0.1952	16.614	0.0	0.449416758	0.528978095	0.007177323	0.074047121	0.022822042
2019-08-11T17:55:00	0.1957	16.570	0.0	0.450912658	0.530987801	0.007220570	0.074493287	0.022959555
2019-08-11T18:00:00	0.1961	16.521	0.0	0.452407891	0.532998372	0.007263924	0.074940567	0.023097411
2019-08-11T18:05:00	0.1955	16.477	0.0	0.450419296	0.530324786	0.007206293	0.074345992	0.022914157
2019-08-11T18:10:00	0.1955	16.416	0.0	0.450521092	0.530461572	0.007209237	0.074376372	0.022923520
2019-08-11T18:15:00	0.1958	16.371	0.0	0.451319765	0.531535045	0.007232361	0.074614938	0.022997049
2019-08-11T18:20:00	0.1928	16.324	0.0	0.440982373	0.517640952	0.006935345	0.071550679	0.022052614
2019-08-11T18:25:00	0.1949	16.273	0.0	0.448386391	0.527594848	0.007147609	0.073740567	0.022727559
2019-08-11T18:30:00	0.1958	16.229	0.0	0.451276673	0.531477113	0.007231113	0.074602057	0.022993079
2019-08-11T18:35:00	0.1957	16.171	0.0	0.451030028	0.531145559	0.007223968	0.074528350	0.022970361
2019-08-11T18:40:00	0.1942	16.135	0.0	0.445901380	0.524262206	0.007076194	0.073003790	0.022500477
2019-08-11T18:45:00	0.1956	16.086	0.0	0.450885150	0.530950829	0.007219773	0.074485071	0.022957022
2019-08-11T18:50:00	0.1963	16.042	0.0	0.453076909	0.533898542	0.007283364	0.075141120	0.023159223
2019-08-11T18:55:00	0.1953	16.003	0.0	0.449694711	0.529351386	0.007185349	0.074129924	0.022847562
2019-08-11T19:00:00	0.1967	15.968	0.0	0.454672849	0.536047317	0.007329839	0.075620600	0.023307003
2019-08-11T19:05:00	0.1959	15.925	0.0	0.451640649	0.531966477	0.007241662	0.074710893	0.023026623
2019-08-11T19:10:00	0.1950	15.884	0.0	0.448605704	0.527889202	0.007153929	0.073805765	0.022747654
2019-08-11T19:15:00	0.1961	15.850	0.0	0.452540790	0.533177161	0.007267784	0.074980386	0.023109683
2019-08-11T19:20:00	0.1992	15.808	0.0	0.463074294	0.547392210	0.007576891	0.078169387	0.024092564
2019-08-11T19:25:00	0.1998	15.761	0.0	0.465258124	0.550350291	0.007641767	0.078838706	0.024298855
2019-08-11T19:30:00	0.1982	15.722	0.0	0.459803666	0.542969081	0.007480237	0.077172227	0.023785230
2019-08-11T19:35:00	0.2005	15.686	0.0	0.467888531	0.553918298	0.007720272	0.079648626	0.024548480
2019-08-11T19:40:00	0.1992	15.647	0.0	0.463132768	0.547471365	0.007578625	0.078187272	0.024098077
2019-08-11T19:45:00	0.1988	15.618	0.0	0.461845211	0.545729030	0.007540497	0.077793922	0.023976842
2019-08-11T19:50:00	0.2016	15.590	0.0	0.471657152	0.559039804	0.007833436	0.080816119	0.024908313
2019-08-11T19:55:00	0.2013	15.564	0.0	0.470372847	0.557293183	0.007794780	0.080417309	0.024785396
2019-08-11T20:00:00	0.2015	15.544	0.0	0.471166822	0.558372814	0.007818667	0.080663744	0.024861349
2019-08-11T20:05:00	0.2034	15.518	0.0	0.477842140	0.567469595	0.008020920	0.082750356	0.025504464
2019-08-11T20:10:00	0.2010	15.497	0.0	0.469637046	0.556293104	0.007772676	0.080189263	0.024715110
2019-08-11T20:15:00	0.2000	15.484	0.0	0.465924591	0.551253800	0.007661621	0.079043531	0.024361984
2019-08-11T20:20:00	0.1993	15.465	0.0	0.463596863	0.548099705	0.007592390	0.078329293	0.024141849
2019-08-11T20:25:00	0.1998	15.455	0.0	0.465433428	0.550587911	0.007646987	0.078892557	0.024315452
2019-08-11T20:30:00	0.2002	15.451	0.0	0.466575410	0.552136434	0.007681033	0.079243798	0.024423708
2019-08-11T20:35:00	0.2017	15.444	0.0	0.471874953	0.559336138	0.007840001	0.080883849	0.024929188
2019-08-11T20:40:00	0.2007	15.438	0.0	0.468511607	0.554764272	0.007738926	0.079841073	0.024607794
2019-08-11T20:45:00	0.2011	15.432	0.0	0.469999041	0.556785063	0.007783547	0.080301416	0.024749676
2019-08-11T20:50:00	0.2028	15.431	0.0	0.475639131	0.564463527	0.007953890	0.082058816	0.025291324
2019-08-11T20:55:00	0.2035	15.426	0.0	0.478160508	0.567904336	0.008030630	0.082850532	0.025535338
2019-08-11T21:00:00	0.2006	15.419	0.0	0.468223347	0.554372853	0.007730293	0.079752011	0.024580344
2019-08-11T21:05:00	0.2014	15.418	0.0	0.470750260	0.557806320	0.007806130	0.080534405	0.024821486
2019-08-11T21:10:00	0.2018	15.412	0.1	0.472236708	0.559828414	0.007850911	0.080996405	0.024963879
2019-08-11T21:15:00	0.2033	15.410	0.1	0.477527384	0.567039864	0.008011326	0.082651377	0.025473957
2019-08-11T21:20:00	0.2035	15.403	0.1	0.477974040	0.567649699	0.008024942	0.082791852	0.025517253
2019-08-11T21:25:00	0.2042	15.400	0.1	0.480493679	0.571092824	0.008101967	0.083586499	0.025762171
2019-08-11T21:30:00	0.2072	15.384	0.1	0.490940503	0.585422660	0.008425210	0.086921341	0.026790001
2019-08-11T21:35:00	0.2106	15.383	0.1	0.502728208	0.601696782	0.008797484	0.090762024	0.027973737
2019-08-11T21:40:00	0.2112	15.363	0.1	0.504543714	0.604213199	0.008855533	0.091360904	0.028158318
2019-08-11T21:45:00	0.2155	15.334	0.1	0.519359416	0.624848215	0.009336380	0.096321710	0.029687287
2019-08-11T21:50:00	0.2169	15.319	0.2	0.524236537	0.631679839	0.009497454	0.097983478	0.030199460
2019-08-11T21:55:00	0.2172	15.308	0.3	0.525018066	0.632776359	0.009523393	0.098251093	0.030281941
2019-08-11T22:00:00	0.2161	15.271	0.5	0.521365522	0.627655931	0.009402467	0.097003519	0.029897427
2019-08-11T22:05:00	0.2155	15.280	2.4	0.519329401	0.624806232	0.009335393	0.096311528	0.029684148
2019-08-11T22:10:00	0.2151	15.233	3.6	0.517975393	0.622913058	0.009290922	0.095852733	0.029542743
2019-08-11T22:15:00	0.2160	15.181	3.1	0.521060865	0.627229327	0.009392416	0.096899821	0.029865466
2019-08-11T22:20:00	0.2144	15.090	3.6	0.515607650	0.619606052	0.009213413	0.095053081	0.029296283
2019-08-11T22:25:00	0.2153	15.055	5.0	0.518695250	0.623919377	0.009314552	0.096096514	0.029617879
2019-08-11T22:30:00	0.2116	15.039	8.2	0.506046671	0.606298410	0.008903733	0.091858170	0.028311580
2019-08-11T22:35:00	0.2077	15.026	22.0	0.492662857	0.587793587	0.008479105	0.087477367	0.026961374
2019-08-11T22:40:00	0.2074	15.018	44.0	0.491642526	0.586388751	0.008447157	0.087147762	0.026859786
2019-08-11T22:45:00	0.2035	15.019	86.9	0.478201809	0.567960740	0.008031890	0.082863532	0.025539345
2019-08-11T22:50:00	0.1990	15.024	142.1	0.462624757	0.546783764	0.007563570	0.078031958	0.024050207
2019-08-11T22:55:00	0.1921	15.022	154.4	0.439147679	0.514490253	0.006874000	0.070917790	0.021857552
2019-08-11T23:00:00	0.1869	15.018	152.2	0.424963045	0.490448136	0.006410903	0.066140099	0.020385021
2019-08-11T23:05:00	0.1861	15.018	138.9	0.422778207	0.486794663	0.006341318	0.065422206	0.020163759
2019-08-11T23:10:00	0.1865	15.019	162.0	0.423885721	0.488644987	0.006376533	0.065785516	0.020275735
2019-08-11T23:15:00	0.1824	15.017	169.5	0.412608782	0.469962978	0.006023486	0.062143199	0.019153137
2019-08-11T23:20:00	0.1812	15.014	177.6	0.409300140	0.464548149	0.005922212	0.061098372	0.018831112
2019-08-11T23:25:00	0.1813	15.010	177.4	0.409586856	0.465016191	0.005930947	0.061188489	0.018858886
2019-08-11T23:30:00	0.1853	15.013	190.0	0.420354877	0.482757839	0.006264677	0.064631521	0.019920062
2019-08-11T23:35:00	0.1887	15.018	192.7	0.429685430	0.498390114	0.006562890	0.067708130	0.020868303
2019-08-11T23:40:00	0.1884	15.014	194.0	0.428874936	0.497022644	0.006536650	0.067437418	0.020784867
2019-08-11T23:45:00	0.1928	14.997	193.7	0.440874921	0.517456167	0.006931743	0.071513518	0.022041161
2019-08-11T23:50:00	0.1935	14.989	193.8	0.443273192	0.520742834	0.007001046	0.072228499	0.022261525
2019-08-11T23:55:00	0.1975	14.973	192.7	0.457226257	0.539489410	0.007404499	0.076390850	0.023544402
2019-08-12T00:00:00	0.1980	14.961	193.2	0.458977204	0.541852732	0.007455910	0.076921248	0.023707876
2019-08-12T00:05:00	0.1992	14.958	193.2	0.463158367	0.547506019	0.007579384	0.078195102	0.024100490
2019-08-12T00:10:00	0.1987	14.953	191.5	0.461434460	0.545173474	0.007528354	0.077668642	0.023938230
2019-08-12T00:15:00	0.2002	14.948	191.8	0.466653189	0.552241940	0.007683354	0.079267749	0.024431090
2019-08-12T00:20:00	0.1995	14.945	192.5	0.464237007	0.548966678	0.007611399	0.078525396	0.024202290
2019-08-12T00:25:00	0.2006	14.936	196.8	0.468064994	0.554157857	0.007725553	0.079703106	0.024565271
2019-08-12T00:30:00	0.2007	14.933	197.4	0.468424056	0.554645382	0.007736304	0.079814018	0.024599455
2019-08-12T00:35:00	0.2029	14.929	211.4	0.476053837	0.565029110	0.007966487	0.082188776	0.025331379
2019-08-12T00:40:00	0.2008	14.926	211.8	0.468795485	0.555149806	0.007747432	0.079928829	0.024634841
2019-08-12T00:45:00	0.1997	14.916	212.2	0.464993166	0.549991194	0.007633882	0.078757350	0.024273780
2019-08-12T00:50:00	0.1998	14.908	212.4	0.465352556	0.550478288	0.007644579	0.078867712	0.024307795
2019-08-12T00:55:00	0.2002	14.909	212.7	0.466752492	0.552376649	0.007686319	0.079298332	0.024440516
2019-08-12T01:00:00	0.1992	14.900	212.2	0.463295049	0.547691059	0.007583437	0.078236918	0.024113378
2019-08-12T01:05:00	0.1990	14.906	213.1	0.462613077	0.546767956	0.007563224	0.078028388	0.024049107
2019-08-12T01:10:00	0.1982	14.900	213.2	0.459846491	0.543026942	0.007481499	0.077185243	0.023789241
2019-08-12T01:15:00	0.1947	14.901	213.3	0.447673692	0.526638553	0.007127092	0.073528890	0.022662318
2019-08-12T01:20:00	0.1939	14.897	213.2	0.444894761	0.522913614	0.007047365	0.072706369	0.022408809
2019-08-12T01:25:00	0.1919	14.896	198.7	0.438624023	0.513592712	0.006856552	0.070737782	0.021802072
2019-08-12T01:30:00	0.1934	14.910	211.8	0.443173944	0.520610038	0.006998216	0.072199301	0.022252526
2019-08-12T01:35:00	0.1913	14.915	211.2	0.437011352	0.510833428	0.006802989	0.070185183	0.021631755
2019-08-12T01:40:00	0.1927	14.901	210.2	0.440826913	0.517373618	0.006930134	0.071496919	0.022036045
2019-08-12T01:45:00	0.1922	14.890	207.8	0.439478409	0.515057516	0.006885034	0.071031623	0.021892636
2019-08-12T01:50:00	0.1887	14.876	190.4	0.429676235	0.498374589	0.006562592	0.067705054	0.020867355
2019-08-12T01:55:00	0.1877	14.875	184.8	0.426950148	0.493782447	0.006474592	0.066797171	0.020587537
2019-08-12T02:00:00	0.1876	14.870	171.2	0.426686112	0.493338770	0.006466107	0.066709635	0.020560557
2019-08-12T02:05:00	0.1885	14.872	158.7	0.429158783	0.497501344	0.006545833	0.067532150	0.020814064
2019-08-12T02:10:00	0.1872	14.863	138.9	0.425609924	0.491532381	0.006431594	0.066353567	0.020450814
2019-08-12T02:15:00	0.1894	14.858	124.6	0.431637515	0.501691180	0.006626353	0.068362862	0.021070098
2019-08-12T02:20:00	0.1878	14.867	111.6	0.427272932	0.494325106	0.006484974	0.066904280	0.020620549
2019-08-12T02:25:00	0.1875	14.857	91.0	0.426461246	0.492961065	0.006458886	0.066635140	0.020537597
2019-08-12T02:30:00	0.1875	14.848	80.8	0.426471049	0.492977528	0.006459201	0.066638386	0.020538598
2019-08-12T02:35:00	0.1904	14.840	67.3	0.434404655	0.506388723	0.006716953	0.069297567	0.021358183
2019-08-12T02:40:00	0.1882	14.809	55.4	0.428406778	0.496233599	0.006521523	0.067281351	0.020736766
2019-08-12T02:45:00	0.1895	14.768	51.8	0.431969152	0.502253047	0.006637172	0.068474476	0.021104498
2019-08-12T02:50:00	0.1877	14.741	48.1	0.427057946	0.493963643	0.006478058	0.066832930	0.020598558
2019-08-12T02:55:00	0.1872	14.718	55.7	0.425698195	0.491680424	0.006434420	0.066382729	0.020459802
2019-08-12T03:00:00	0.1870	14.703	71.9	0.425159865	0.490777906	0.006417194	0.066205005	0.020405025
2019-08-12T03:05:00	0.1849	14.686	101.1	0.419403080	0.481176758	0.006234731	0.064322566	0.019824840
2019-08-12T03:10:00	0.1857	14.661	128.6	0.421612128	0.484850161	0.006304368	0.065041006	0.020046270
2019-08-12T03:15:00	0.1897	14.642	159.9	0.432573627	0.503277951	0.006656918	0.068678201	0.021167288
2019-08-12T03:20:00	0.1921	14.621	175.4	0.439119664	0.514442216	0.006873066	0.070908152	0.021854581
2019-08-12T03:25:00	0.1912	14.613	187.5	0.436681306	0.510269614	0.006792058	0.070072415	0.021596999
2019-08-12T03:30:00	0.1899	14.603	191.9	0.433148591	0.504253763	0.006675735	0.068872323	0.021227119
2019-08-12T03:35:00	0.1895	14.588	193.2	0.432066852	0.502418632	0.006640361	0.068507378	0.021114639
2019-08-12T03:40:00	0.1902	14.574	193.7	0.433986268	0.505677093	0.006703206	0.069155743	0.021314472
2019-08-12T03:45:00	0.1892	14.553	193.5	0.431267302	0.501064318	0.006614289	0.068238396	0.021031736
2019-08-12T03:50:00	0.1906	14.534	192.4	0.435096013	0.507565717	0.006739707	0.069532311	0.021430533
2019-08-12T03:55:00	0.1913	14.526	191.9	0.437011938	0.510834429	0.006803008	0.070185383	0.021631817
2019-08-12T04:00:00	0.1921	14.511	190.3	0.439197490	0.514575668	0.006875661	0.070934927	0.021862833
2019-08-12T04:05:00	0.1921	14.498	186.7	0.439005073	0.514245752	0.006869246	0.070868741	0.021842434
2019-08-12T04:10:00	0.1943	14.484	181.3	0.446196383	0.524657579	0.007084654	0.073091066	0.022527376
2019-08-12T04:15:00	0.1954	14.473	177.8	0.450134297	0.529941872	0.007198051	0.074260970	0.022887952
2019-08-12T04:20:00	0.1935	14.465	174.2	0.443258517	0.520723197	0.007000627	0.072224182	0.022260194
2019-08-12T04:25:00	0.1925	14.454	170.0	0.440137797	0.516189402	0.006907064	0.071258910	0.021962688
2019-08-12T04:30:00	0.1910	14.451	162.4	0.436137663	0.509341579	0.006774078	0.069886910	0.021539824
2019-08-12T04:35:00	0.1895	14.447	152.2	0.431854934	0.502059502	0.006633444	0.068436022	0.021092647
2019-08-12T04:40:00	0.1895	14.436	146.8	0.431934677	0.502194625	0.006636046	0.068462868	0.021100921
2019-08-12T04:45:00	0.1894	14.424	138.6	0.431741420	0.501867185	0.006629741	0.068397819	0.021080872
2019-08-12T04:50:00	0.1901	14.407	131.9	0.433731109	0.505243334	0.006694831	0.069069337	0.021287840
2019-08-12T04:55:00	0.1940	14.403	123.3	0.445019893	0.523081213	0.007050946	0.072743309	0.022420194
2019-08-12T05:00:00	0.1934	14.395	118.3	0.443026906	0.520413313	0.006994024	0.072156055	0.022239197
2019-08-12T05:05:00	0.1948	14.388	116.0	0.448014952	0.527096403	0.007136912	0.073630210	0.022693546
2019-08-12T05:10:00	0.1954	14.398	110.0	0.449860051	0.529573466	0.007190126	0.074179200	0.022862750
2019-08-12T05:15:00	0.1931	14.374	103.4	0.441935727	0.518953936	0.006962954	0.071835513	0.022140403
2019-08-12T05:20:00	0.1919	14.349	98.3	0.438565079	0.513491732	0.006854590	0.070717538	0.021795832
2019-08-12T05:25:00	0.1947	14.316	92.9	0.447724929	0.526707288	0.007128566	0.073544098	0.022667005
2019-08-12T05:30:00	0.1956	14.318	88.5	0.450615781	0.530588814	0.007211977	0.074404637	0.022932232
2019-08-12T05:35:00	0.1946	14.322	83.0	0.447231097	0.526044882	0.007114364	0.073397586	0.022621849
2019-08-12T05:40:00	0.1935	14.315	80.1	0.443493790	0.521038024	0.007007338	0.072293418	0.022281534
2019-08-12T05:45:00	0.1972	14.305	77.6	0.456143751	0.538029521	0.007372802	0.076063838	0.023443614
2019-08-12T05:50:00	0.1969	14.310	71.9	0.455201533	0.536759581	0.007345267	0.075779766	0.023356060
2019-08-12T05:55:00	0.1975	14.313	70.0	0.457390478	0.539710962	0.007409313	0.076440520	0.023559711
2019-08-12T06:00:00	0.1972	14.310	66.3	0.456448610	0.538440567	0.007381722	0.076155863	0.023471977
2019-08-12T06:05:00	0.1961	14.299	59.9	0.452373294	0.532951832	0.007262920	0.074930203	0.023094216
2019-08-12T06:10:00	0.1984	14.302	53.7	0.460476015	0.543877660	0.007500057	0.077376701	0.023848251
2019-08-12T06:15:00	0.1962	14.279	50.1	0.452925020	0.533694143	0.007278948	0.075095565	0.023145183
2019-08-12T06:20:00	0.1956	14.271	47.0	0.450588270	0.530551845	0.007211181	0.074396424	0.022929700
2019-08-12T06:25:00	0.1955	14.262	48.9	0.450341575	0.530220357	0.007204045	0.074322801	0.022907009
2019-08-12T06:30:00	0.1941	14.260	46.2	0.445560893	0.523805959	0.007066436	0.072903122	0.022469450
2019-08-12T06:35:00	0.1928	14.273	39.6	0.440842506	0.517400429	0.006930657	0.071502310	0.022037706
2019-08-12T06:40:00	0.1903	14.275	37.8	0.434120009	0.505904519	0.006707599	0.069201059	0.021328438
2019-08-12T06:45:00	0.1912	14.297	34.4	0.436651368	0.510218487	0.006791068	0.070062192	0.021593848
2019-08-12T06:50:00	0.1924	14.309	34.6	0.439994106	0.515942642	0.006902260	0.071209342	0.021947411
2019-08-12T06:55:00	0.1894	14.282	29.5	0.431630773	0.501679761	0.006626133	0.068360594	0.021069399
2019-08-12T07:00:00	0.1886	14.272	25.2	0.429524887	0.498119099	0.006557688	0.067654454	0.020851760
2019-08-12T07:05:00	0.1918	14.274	24.5	0.438329654	0.513088504	0.006846756	0.070636716	0.021770922
2019-08-12T07:10:00	0.1935	14.269	24.4	0.443234624	0.520691229	0.006999946	0.072217152	0.022258028
2019-08-12T07:15:00	0.1921	14.286	23.1	0.439032259	0.514292358	0.006870152	0.070878090	0.021845316
2019-08-12T07:20:00	0.1925	14.314	22.9	0.440198562	0.516293770	0.006909097	0.071279877	0.021969150
2019-08-12T07:25:00	0.1922	14.341	21.6	0.439462834	0.515030796	0.006884514	0.071026260	0.021890983
2019-08-12T07:30:00	0.1917	14.352	20.8	0.437910957	0.512371758	0.006832837	0.070493115	0.021726663
2019-08-12T07:35:00	0.1958	14.377	20.6	0.451418101	0.531667250	0.007235211	0.074644337	0.023006110
2019-08-12T07:40:00	0.1933	14.384	21.1	0.442798959	0.520108372	0.006987528	0.072089036	0.022218541
2019-08-12T07:45:00	0.1928	14.380	20.6	0.440866802	0.517442206	0.006931471	0.071510711	0.022040295
2019-08-12T07:50:00	0.1922	14.372	20.2	0.439316223	0.514779298	0.006879621	0.070975786	0.021875427
2019-08-12T07:55:00	0.1931	14.376	20.2	0.442057093	0.519116207	0.006966406	0.071871130	0.022151380
2019-08-12T08:00:00	0.1933	14.383	19.7	0.442857787	0.520187066	0.006989204	0.072106329	0.022223871
2019-08-12T08:05:00	0.1936	14.398	19.0	0.443658289	0.521258172	0.007012032	0.072341846	0.022296460
2019-08-12T08:10:00	0.1955	14.430	18.6	0.450388350	0.530283205	0.007205398	0.074336758	0.022911311
2019-08-12T08:15:00	0.1962	14.453	17.3	0.452928688	0.533699079	0.007279055	0.075096665	0.023145522
2019-08-12T08:20:00	0.1948	14.404	17.8	0.447802948	0.526811957	0.007130811	0.073567258	0.022674143
2019-08-12T08:25:00	0.1958	14.408	17.8	0.451390597	0.531630273	0.007234414	0.074636114	0.023003575
2019-08-12T08:30:00	0.1959	14.434	16.9	0.451840732	0.532235532	0.007247464	0.074770754	0.023045073
2019-08-12T08:35:00	0.1951	14.441	17.5	0.448805969	0.528158022	0.007159702	0.073865324	0.022766010
2019-08-12T08:40:00	0.1955	14.428	17.7	0.450302141	0.530167374	0.007202904	0.074311036	0.022903383
2019-08-12T08:45:00	0.1962	14.409	17.1	0.452842545	0.533583163	0.007276551	0.075070835	0.023137560
2019-08-12T08:50:00	0.1947	14.418	16.5	0.447716673	0.526696212	0.007128328	0.073541647	0.022666250
2019-08-12T08:55:00	0.1944	14.448	16.1	0.446423190	0.524961601	0.007091161	0.073158200	0.022548068
2019-08-12T09:00:00	0.1957	14.479	15.8	0.451057771	0.531182851	0.007224772	0.074536639	0.022972916
2019-08-12T09:05:00	0.1933	14.519	32.1	0.442787011	0.520092390	0.006987187	0.072085524	0.022217459
2019-08-12T09:10:00	0.1943	14.553	15.4	0.446031099	0.524436052	0.007079913	0.073042161	0.022512303
2019-08-12T09:15:00	0.1925	14.631	15.6	0.440122075	0.516162399	0.006906539	0.071253485	0.021961016
2019-08-12T09:20:00	0.1926	14.674	15.2	0.440473039	0.516765334	0.006918282	0.071374636	0.021998356
2019-08-12T09:25:00	0.1913	14.779	15.1	0.437018103	0.510844964	0.006803213	0.070187490	0.021632466
2019-08-12T09:30:00	0.1941	14.791	14.3	0.445391902	0.523579546	0.007061596	0.072853183	0.022454058
2019-08-12T09:35:00	0.1956	14.737	14.3	0.450724912	0.530735473	0.007215135	0.074437218	0.022942274
2019-08-12T09:40:00	0.1949	14.689	14.2	0.448386628	0.527595166	0.007147616	0.073740638	0.022727581
2019-08-12T09:45:00	0.1944	14.669	13.5	0.446395645	0.524924677	0.007090371	0.073150046	0.022545554
2019-08-12T09:50:00	0.1948	14.652	13.3	0.447892894	0.526932634	0.007133399	0.073593963	0.022682374
2019-08-12T09:55:00	0.1942	14.650	12.7	0.445901617	0.524262524	0.007076201	0.073003860	0.022500499
2019-08-12T10:00:00	0.1914	14.683	12.3	0.437302408	0.511330889	0.006812637	0.070284720	0.021662433
2019-08-12T10:05:00	0.1923	14.740	11.9	0.439588412	0.515246260	0.006888706	0.071069509	0.021904313
2019-08-12T10:10:00	0.1935	14.760	11.3	0.443494897	0.521039506	0.007007370	0.072293744	0.022281634
2019-08-12T10:15:00	0.1958	14.759	10.9	0.451310649	0.531522790	0.007232097	0.074612213	0.022996209
2019-08-12T10:20:00	0.1974	14.741	10.5	0.457022004	0.539213879	0.007398513	0.076329095	0.023525368
2019-08-12T10:25:00	0.1988	14.734	10.3	0.461681837	0.545508045	0.007535666	0.077744080	0.023961481
2019-08-12T10:30:00	0.1994	14.749	10.3	0.463906394	0.548518876	0.007601579	0.078424085	0.024171065
2019-08-12T10:35:00	0.2012	14.744	9.8	0.470289386	0.557179724	0.007792271	0.080391426	0.024777418
2019-08-12T10:40:00	0.1998	14.719	9.5	0.465229868	0.550311994	0.007640926	0.078830028	0.024296180
2019-08-12T10:45:00	0.1966	14.723	9.5	0.454250260	0.535478146	0.007317519	0.075493493	0.023267828
2019-08-12T10:50:00	0.1972	14.734	9.3	0.456131851	0.538013477	0.007372454	0.076060247	0.023442507
2019-08-12T10:55:00	0.2004	14.735	9.4	0.467387481	0.553238228	0.007705288	0.079494036	0.024500834
2019-08-12T11:00:00	0.1977	14.722	9.4	0.458153848	0.540741113	0.007431713	0.076671612	0.023630935
2019-08-12T11:05:00	0.1976	14.723	9.4	0.457599869	0.539993484	0.007415454	0.076503874	0.023579237
2019-08-12T11:10:00	0.1992	14.713	9.7	0.463300554	0.547698512	0.007583600	0.078238603	0.024113897
2019-08-12T11:15:00	0.1968	14.723	9.5	0.454751850	0.536153736	0.007332144	0.075644374	0.023314331
2019-08-12T11:20:00	0.1991	14.717	9.3	0.462888682	0.547140965	0.007571389	0.078112629	0.024075071
2019-08-12T11:25:00	0.1999	14.714	9.4	0.465806326	0.551093445	0.007658096	0.079007165	0.024350776
2019-08-12T11:30:00	0.2002	14.720	9.6	0.466641169	0.552225634	0.007682995	0.079264047	0.024429949
2019-08-12T11:35:00	0.1988	14.720	9.6	0.461923492	0.545834924	0.007542813	0.077817809	0.023984204
2019-08-12T11:40:00	0.2007	14.733	9.6	0.468310236	0.554490829	0.007732895	0.079778852	0.024588617
2019-08-12T11:45:00	0.1998	14.726	9.8	0.465330117	0.550447873	0.007643911	0.078860819	0.024305670
2019-08-12T11:50:00	0.1974	14.734	10.1	0.457134394	0.539365485	0.007401806	0.076363073	0.023535841
2019-08-12T11:55:00	0.1974	14.742	10.3	0.456928087	0.539087199	0.007395761	0.076300708	0.023516619
2019-08-12T12:00:00	0.1989	14.743	10.6	0.462282659	0.546320842	0.007553440	0.077927453	0.024017998
2019-08-12T12:05:00	0.1992	14.746	10.8	0.463118376	0.547451882	0.007578198	0.078182870	0.024096720
2019-08-12T12:10:00	0.1980	14.739	11.0	0.459091025	0.542006444	0.007459258	0.076955789	0.023718522
2019-08-12T12:15:00	0.1979	14.730	11.4	0.458884838	0.541728000	0.007453194	0.076893224	0.023699238
2019-08-12T12:20:00	0.1985	14.730	11.9	0.460763837	0.544266718	0.007508549	0.077464314	0.023875254
2019-08-12T12:25:00	0.1987	14.735	12.3	0.461599931	0.545397263	0.007533245	0.077719099	0.023953781
2019-08-12T12:30:00	0.1985	14.737	11.8	0.460699105	0.544179212	0.007506638	0.077444605	0.023869180
2019-08-12T12:35:00	0.1987	14.744	13.3	0.461535215	0.545309736	0.007531332	0.077699363	0.023947698
2019-08-12T12:40:00	0.1971	14.749	13.9	0.455766706	0.537521249	0.007361777	0.075950099	0.023408558
2019-08-12T12:45:00	0.1954	14.778	14.8	0.449988275	0.529745707	0.007193831	0.074217426	0.022874532
2019-08-12T12:50:00	0.1926	14.809	14.7	0.440519058	0.516844417	0.006919822	0.071390531	0.022003255
2019-08-12T12:55:00	0.1915	14.823	14.7	0.437367560	0.511442276	0.006814798	0.070307013	0.021669304
2019-08-12T13:00:00	0.1959	14.836	14.9	0.451807352	0.532190644	0.007246496	0.074760766	0.023041994
2019-08-12T13:05:00	0.1976	14.857	15.5	0.457517863	0.539882833	0.007413049	0.076479059	0.023571589
2019-08-12T13:10:00	0.1981	14.885	15.0	0.459397625	0.542420551	0.007468280	0.077048871	0.023747210
2019-08-12T13:15:00	0.2004	14.905	15.8	0.467523246	0.553422481	0.007709347	0.079535909	0.024513740
2019-08-12T13:20:00	0.1969	14.930	15.7	0.455159398	0.536702807	0.007344037	0.075767075	0.023352148
2019-08-12T13:25:00	0.1974	14.952	16.8	0.457040480	0.539238801	0.007399054	0.076334680	0.023527090
2019-08-12T13:30:00	0.1997	14.966	17.1	0.464824796	0.549763031	0.007628873	0.078705673	0.024257853
2019-08-12T13:35:00	0.2018	14.969	17.4	0.472244944	0.559839622	0.007851160	0.080998969	0.024964669
2019-08-12T13:40:00	0.2024	14.960	17.9	0.474462548	0.562859629	0.007918204	0.081690653	0.025177853
2019-08-12T13:45:00	0.2010	14.982	19.6	0.469409287	0.555983629	0.007765840	0.080118738	0.024693373
2019-08-12T13:50:00	0.2022	14.987	20.3	0.473705960	0.561828843	0.007895299	0.081454342	0.025105019
2019-08-12T13:55:00	0.2022	14.978	21.0	0.473500665	0.561549224	0.007889089	0.081390279	0.025085275
2019-08-12T14:00:00	0.2026	14.963	22.6	0.475025598	0.563627030	0.007935272	0.081866734	0.025232123
2019-08-12T14:05:00	0.2023	14.944	24.9	0.474128350	0.562404257	0.007908082	0.081586229	0.025145668
2019-08-12T14:10:00	0.2014	14.927	27.4	0.470806992	0.557883463	0.007807837	0.080552014	0.024826913
2019-08-12T14:15:00	0.2017	14.914	29.2	0.471986888	0.559488448	0.007843376	0.080918668	0.024939919
2019-08-12T14:20:00	0.2003	14.907	37.5	0.466929918	0.552617355	0.007691617	0.079352991	0.024457362
2019-08-12T14:25:00	0.1983	14.896	47.9	0.460128345	0.543407792	0.007489805	0.077270935	0.023815652
2019-08-12T14:30:00	0.1992	14.875	51.2	0.463395552	0.547827128	0.007586418	0.078267673	0.024122857
2019-08-12T14:35:00	0.2006	14.865	58.6	0.468046578	0.554132856	0.007725002	0.079697420	0.024563519
2019-08-12T14:40:00	0.1996	14.860	66.1	0.464719226	0.549619982	0.007625733	0.078673279	0.024247869
2019-08-12T14:45:00	0.1997	14.854	72.3	0.464860405	0.549811283	0.007629932	0.078716601	0.024261221
2019-08-12T14:50:00	0.1963	14.852	73.3	0.453183240	0.534041643	0.007286456	0.075173020	0.023169055
2019-08-12T14:55:00	0.1929	14.842	79.5	0.441465302	0.518325062	0.006949580	0.071697537	0.022097877
2019-08-12T15:00:00	0.1883	14.833	81.9	0.428684355	0.496701361	0.006530490	0.067373858	0.020765277
2019-08-12T15:05:00	0.1923	14.820	88.0	0.439699947	0.515437666	0.006892431	0.071107936	0.021916156
2019-08-12T15:10:00	0.1945	14.805	89.5	0.446779593	0.525439419	0.007101392	0.073263756	0.022580601
2019-08-12T15:15:00	0.1931	14.802	94.4	0.442033904	0.519085202	0.006965747	0.071864325	0.022149283
2019-08-12T15:20:00	0.1963	14.802	97.2	0.452988601	0.533779702	0.007280796	0.075114633	0.023151059
2019-08-12T15:25:00	0.1977	14.797	99.8	0.458001755	0.540535830	0.007427247	0.076625542	0.023616736
2019-08-12T15:30:00	0.1926	14.800	104.2	0.440524195	0.516853245	0.006919994	0.071392305	0.022003802
2019-08-12T15:35:00	0.1932	14.806	108.3	0.442253080	0.519378277	0.006971983	0.071928666	0.022169113
2019-08-12T15:40:00	0.1909	14.819	113.9	0.435850136	0.508851084	0.006764579	0.069788919	0.021509623
2019-08-12T15:45:00	0.1928	14.817	118.2	0.440855638	0.517423009	0.006931097	0.071506850	0.022039106
2019-08-12T15:50:00	0.1966	14.813	123.2	0.454186664	0.535392503	0.007315666	0.075474373	0.023261935
2019-08-12T15:55:00	0.1966	14.811	128.5	0.454328284	0.535583225	0.007319793	0.075516953	0.023275058
2019-08-12T16:00:00	0.1958	14.813	130.6	0.451335747	0.531556530	0.007232824	0.074619716	0.022998521
2019-08-12T16:05:00	0.1966	14.803	133.1	0.454322055	0.535574835	0.007319611	0.075515080	0.023274481
2019-08-12T16:10:00	0.1981	14.797	135.2	0.459391760	0.542412628	0.007468108	0.077047090	0.023746661
2019-08-12T16:15:00	0.1967	14.798	138.5	0.454374452	0.535645402	0.007321139	0.075530837	0.023279337
2019-08-12T16:20:00	0.1946	14.802	140.9	0.447257332	0.526080067	0.007115118	0.073405365	0.022624246
2019-08-12T16:25:00	0.1937	14.799	142.7	0.443968122	0.521672877	0.007020878	0.072433104	0.022324586
2019-08-12T16:30:00	0.1906	14.797	143.6	0.435054413	0.507494857	0.006738336	0.069518172	0.021426176
2019-08-12T16:35:00	0.1920	14.801	143.8	0.438749232	0.513807250	0.006860721	0.070780798	0.021815329
2019-08-12T16:40:00	0.1909	14.812	144.5	0.435912630	0.508957674	0.006766643	0.069810210	0.021516185
2019-08-12T16:45:00	0.1918	14.813	148.0	0.438246336	0.512945837	0.006843984	0.070608126	0.021762110
2019-08-12T16:50:00	0.1934	14.816	148.9	0.442877251	0.520213104	0.006989759	0.072112051	0.022225634
2019-08-12T16:55:00	0.1929	14.817	147.7	0.441331408	0.518146102	0.006945776	0.071658290	0.022085781
2019-08-12T17:00:00	0.1920	14.812	149.6	0.438715606	0.513749629	0.006859601	0.070769244	0.021811768
2019-08-12T17:05:00	0.1956	14.805	148.8	0.450805585	0.530843892	0.007217470	0.074461308	0.022949698
2019-08-12T17:10:00	0.1931	14.791	144.9	0.441934422	0.518952190	0.006962917	0.071835130	0.022140285
2019-08-12T17:15:00	0.1936	14.782	149.5	0.443881748	0.521557260	0.007018412	0.072407658	0.022316743
2019-08-12T17:20:00	0.1958	14.774	149.6	0.451406894	0.531652183	0.007234886	0.074640987	0.023005077
2019-08-12T17:25:00	0.1984	14.768	150.3	0.460305372	0.543647029	0.007495024	0.077324780	0.023832248
2019-08-12T17:30:00	0.1948	14.762	151.1	0.447973635	0.527040965	0.007135723	0.073617939	0.022689764
2019-08-12T17:35:00	0.1952	14.752	152.0	0.449220281	0.528714265	0.007171653	0.073988617	0.022804010
2019-08-12T17:40:00	0.1958	14.746	151.9	0.451511778	0.531793199	0.007237926	0.074672349	0.023014743
2019-08-12T17:45:00	0.1973	14.742	148.2	0.456585723	0.538625461	0.007385735	0.076197270	0.023484739
2019-08-12T17:50:00	0.1971	14.736	144.0	0.456090081	0.537957165	0.007371232	0.076047643	0.023438622
2019-08-12T17:55:00	0.1978	14.731	148.0	0.458376895	0.541042197	0.007438264	0.076739199	0.023651766
2019-08-12T18:00:00	0.1975	14.721	148.3	0.457185998	0.539435099	0.007403319	0.076378676	0.023540650
2019-08-12T18:05:00	0.1943	14.708	146.2	0.446238789	0.524714420	0.007085870	0.073103616	0.022531244
2019-08-12T18:10:00	0.1963	14.695	149.5	0.453062277	0.533878850	0.007282938	0.075136731	0.023157870
2019-08-12T18:15:00	0.1953	14.668	149.2	0.449778764	0.529464280	0.007187777	0.074154972	0.022855283
2019-08-12T18:20:00	0.1906	14.654	156.7	0.434960623	0.507335118	0.006735247	0.069486302	0.021416353
2019-08-12T18:25:00	0.1910	14.637	156.6	0.436206869	0.509459673	0.006776365	0.069910508	0.021547098
2019-08-12T18:30:00	0.1925	14.620	157.9	0.440170811	0.516246103	0.006908168	0.071270301	0.021966199
2019-08-12T18:35:00	0.1964	14.593	156.4	0.453367416	0.534289532	0.007291813	0.075228288	0.023186089
2019-08-12T18:40:00	0.1972	14.574	155.7	0.456351919	0.538310188	0.007378892	0.076126670	0.023462979
2019-08-12T18:45:00	0.1984	14.552	152.9	0.460376330	0.543742929	0.007497116	0.077346368	0.023838902
2019-08-12T18:50:00	0.1991	14.517	155.0	0.463007444	0.547301717	0.007574909	0.078148942	0.024086263
2019-08-12T18:55:00	0.1963	14.490	156.4	0.453124041	0.533961971	0.007284734	0.075155259	0.023163581
2019-08-12T19:00:00	0.1962	14.460	155.0	0.452976137	0.533762930	0.007280434	0.075110895	0.023149907
2019-08-12T19:05:00	0.1976	14.431	156.4	0.457700148	0.540128799	0.007418396	0.076534224	0.023588591
2019-08-12T19:10:00	0.1973	14.397	158.2	0.456509012	0.538522015	0.007383490	0.076174102	0.023477598
2019-08-12T19:15:00	0.1982	14.364	160.9	0.459838265	0.543015827	0.007481256	0.077182742	0.023788471
2019-08-12T19:20:00	0.2017	14.340	159.6	0.471832516	0.559278396	0.007838722	0.080870650	0.024925120
2019-08-12T19:25:00	0.2019	14.318	158.9	0.472724177	0.560491927	0.007865625	0.081148199	0.025010663
2019-08-12T19:30:00	0.2007	14.305	160.9	0.468420051	0.554639944	0.007736184	0.079812780	0.024599074
2019-08-12T19:35:00	0.1999	14.276	157.2	0.465498462	0.550676069	0.007648924	0.078912539	0.024321611
2019-08-12T19:40:00	0.2003	14.228	157.0	0.467085418	0.552828336	0.007696261	0.079400910	0.024472132
2019-08-12T19:45:00	0.2031	14.201	155.6	0.476634286	0.565820964	0.007984135	0.082370847	0.025387495
2019-08-12T19:50:00	0.2001	14.169	153.5	0.466444007	0.551958200	0.007677111	0.079203343	0.024411240
2019-08-12T19:55:00	0.1981	14.161	157.5	0.459352432	0.542359507	0.007466950	0.077035147	0.023742980
2019-08-12T20:00:00	0.2025	14.160	154.7	0.474809998	0.563333151	0.007928734	0.081799288	0.025211335
2019-08-12T20:05:00	0.2043	14.139	158.7	0.480885259	0.571628379	0.008113970	0.083710333	0.025800338
2019-08-12T20:10:00	0.2035	14.092	157.7	0.477974432	0.567650233	0.008024954	0.082791975	0.025517291
2019-08-12T20:15:00	0.2010	14.078	160.3	0.469521265	0.556135777	0.007769200	0.080153408	0.024704059
2019-08-12T20:20:00	0.2001	14.064	161.7	0.466253788	0.551700211	0.007671437	0.079144799	0.024393196
2019-08-12T20:25:00	0.2000	14.074	164.1	0.466106461	0.551500416	0.007667043	0.079099470	0.024379225
2019-08-12T20:30:00	0.2014	14.054	162.8	0.470812093	0.557890399	0.007807990	0.080553597	0.024827401
2019-08-12T20:35:00	0.2010	14.052	161.4	0.469625585	0.556277531	0.007772332	0.080185713	0.024714016
2019-08-12T20:40:00	0.1999	14.028	166.6	0.465664441	0.550901080	0.007653868	0.078963548	0.024337332
2019-08-12T20:45:00	0.1990	14.025	157.8	0.462393221	0.546470443	0.007556714	0.077961220	0.024028405
2019-08-12T20:50:00	0.1981	14.007	156.0	0.459466398	0.542513448	0.007470305	0.077069757	0.023753648
2019-08-12T20:55:00	0.1983	13.998	158.3	0.460013851	0.543253076	0.007486430	0.077236119	0.023804922
2019-08-12T21:00:00	0.1982	13.977	157.5	0.459866250	0.543053640	0.007482081	0.077191249	0.023791093
2019-08-12T21:05:00	0.2005	13.976	165.6	0.467702438	0.553665693	0.007714705	0.079591193	0.024530779
2019-08-12T21:10:00	0.1985	13.967	166.5	0.460960938	0.544533183	0.007514367	0.077524340	0.023893755
2019-08-12T21:15:00	0.1958	13.964	167.6	0.451419916	0.531669691	0.007235264	0.074644880	0.023006277
2019-08-12T21:20:00	0.1955	13.954	166.2	0.450226549	0.530065812	0.007200719	0.074288486	0.022896433
2019-08-12T21:25:00	0.1960	13.944	174.2	0.452169061	0.532677111	0.007256991	0.074869036	0.023075364
2019-08-12T21:30:00	0.1953	13.951	177.4	0.449581914	0.529199892	0.007182092	0.074096316	0.022837204
2019-08-12T21:35:00	0.1933	13.942	175.2	0.442803904	0.520114987	0.006987669	0.072090489	0.022218989
2019-08-12T21:40:00	0.1940	13.937	176.2	0.445099794	0.523188237	0.007053233	0.072766901	0.022427466
2019-08-12T21:45:00	0.1927	13.932	174.9	0.440832203	0.517382713	0.006930312	0.071498748	0.022036608
2019-08-12T21:50:00	0.1914	13.927	173.3	0.437182947	0.511126682	0.006808676	0.070243855	0.021649838
2019-08-12T21:55:00	0.1930	13.918	173.6	0.441511647	0.518387009	0.006950897	0.071711124	0.022102065
2019-08-12T22:00:00	0.1956	13.911	175.4	0.450784864	0.530816044	0.007216870	0.074455120	0.022947791
2019-08-12T22:05:00	0.1959	13.920	178.6	0.451885631	0.532295914	0.007248767	0.074784191	0.023049214
2019-08-12T22:10:00	0.1938	13.913	177.7	0.444268950	0.522075601	0.007029472	0.072521763	0.022351912
2019-08-12T22:15:00	0.1934	13.910	178.9	0.442927809	0.520280739	0.006991199	0.072126915	0.022230216
2019-08-12T22:20:00	0.1935	13.902	180.4	0.443332763	0.520822544	0.007002745	0.072246027	0.022266927
2019-08-12T22:25:00	0.1932	13.897	180.0	0.442340604	0.519495322	0.006974474	0.071954367	0.022177035
2019-08-12T22:30:00	0.1980	13.885	184.1	0.459122482	0.542048927	0.007460183	0.076965337	0.023721464
2019-08-12T22:35:00	0.1963	13.880	186.6	0.453263695	0.534149927	0.007288796	0.075197161	0.023176495
2019-08-12T22:40:00	0.1967	13.878	186.9	0.454711719	0.536099676	0.007330973	0.075632297	0.023310608
2019-08-12T22:45:00	0.1973	13.873	188.1	0.456507002	0.538519305	0.007383431	0.076173495	0.023477411
2019-08-12T22:50:00	0.1969	13.866	189.2	0.455170750	0.536718102	0.007344368	0.075770494	0.023353202
2019-08-12T22:55:00	0.1967	13.861	189.1	0.454530178	0.535855143	0.007325679	0.075577676	0.023293774
2019-08-12T23:00:00	0.1958	13.858	203.6	0.451451642	0.531712345	0.007236183	0.074654366	0.023009201
2019-08-12T23:05:00	0.1979	13.852	192.4	0.458815305	0.541634109	0.007451149	0.076872130	0.023692737
2019-08-12T23:10:00	0.1967	13.839	191.9	0.454696699	0.536079444	0.007330535	0.075627777	0.023309215
2019-08-12T23:15:00	0.1977	13.832	192.2	0.457883171	0.540375788	0.007423767	0.076589632	0.023605668
2019-08-12T23:20:00	0.1979	13.825	193.1	0.458633986	0.541389286	0.007445819	0.076817139	0.023675788
2019-08-12T23:25:00	0.1956	13.826	193.9	0.450684181	0.530680734	0.007213956	0.074425057	0.022938525
2019-08-12T23:30:00	0.1967	13.823	194.0	0.454570666	0.535909677	0.007326859	0.075589856	0.023297528
2019-08-12T23:35:00	0.1946	13.816	190.3	0.447308930	0.526149271	0.007116602	0.073420668	0.022628963
2019-08-12T23:40:00	0.1919	13.792	188.2	0.438635479	0.513612339	0.006856933	0.070741717	0.021803284
2019-08-12T23:45:00	0.1930	13.797	187.3	0.441485170	0.518351618	0.006950145	0.071703362	0.022099672
2019-08-12T23:50:00	0.1915	13.794	188.1	0.437362259	0.511433213	0.006814622	0.070305199	0.021668745
2019-08-12T23:55:00	0.1900	13.784	187.7	0.433319287	0.504543640	0.006681327	0.068930019	0.021244901
2019-08-13T00:00:00	0.1896	13.780	188.3	0.432271417	0.502765419	0.006647041	0.068576301	0.021135882
2019-08-13T00:05:00	0.1878	13.773	189.1	0.427394972	0.494530351	0.006488902	0.066944803	0.020633038
2019-08-13T00:10:00	0.1885	13.772	189.3	0.429353644	0.497830101	0.006552141	0.067597230	0.020834123
2019-08-13T00:15:00	0.1873	13.770	190.8	0.425839097	0.491916780	0.006438934	0.066429294	0.020474154
2019-08-13T00:20:00	0.1847	13.770	191.2	0.418743310	0.480082250	0.006214023	0.064108933	0.019758996
2019-08-13T00:25:00	0.1845	13.766	193.1	0.418236715	0.479242661	0.006198152	0.063945191	0.019708529
2019-08-13T00:30:00	0.1867	13.756	191.9	0.424325477	0.489380632	0.006390549	0.065930114	0.020320302
2019-08-13T00:35:00	0.1881	13.753	195.0	0.428204182	0.495892326	0.006514983	0.067213880	0.020715971
2019-08-13T00:40:00	0.1894	13.748	192.9	0.431800760	0.501967715	0.006631677	0.068417789	0.021087027
2019-08-13T00:45:00	0.1883	13.746	193.7	0.428838538	0.496961276	0.006535474	0.067425276	0.020781125
2019-08-13T00:50:00	0.1884	13.730	194.0	0.428882153	0.497034813	0.006536884	0.067439825	0.020785609
2019-08-13T00:55:00	0.1904	13.721	194.3	0.434386440	0.506357731	0.006716354	0.069291388	0.021356279
2019-08-13T01:00:00	0.1892	13.712	194.2	0.431155758	0.500875521	0.006610656	0.068200922	0.021020187
2019-08-13T01:05:00	0.1880	13.698	194.5	0.427918744	0.495411700	0.006505776	0.067118892	0.020686694
2019-08-13T01:10:00	0.1897	13.695	207.8	0.432607810	0.503335940	0.006658036	0.068689732	0.021170843
2019-08-13T01:15:00	0.1890	13.685	194.6	0.430740139	0.500172358	0.006597133	0.068061403	0.020977185
2019-08-13T01:20:00	0.1890	13.668	208.0	0.430510504	0.499784058	0.006589668	0.067984391	0.020953450
2019-08-13T01:25:00	0.1885	13.666	194.6	0.429187431	0.497549671	0.006546760	0.067541715	0.020817013
2019-08-13T01:30:00	0.1907	13.671	193.8	0.435235682	0.507803657	0.006744309	0.069579793	0.021445168
2019-08-13T01:35:00	0.1916	13.666	194.1	0.437729269	0.512060888	0.006826802	0.070430857	0.021707474
2019-08-13T01:40:00	0.1912	13.663	207.4	0.436684173	0.510274511	0.006792153	0.070073394	0.021597301
2019-08-13T01:45:00	0.1878	13.653	194.5	0.427446842	0.494617599	0.006490572	0.066962031	0.020638348
2019-08-13T01:50:00	0.1864	13.646	194.1	0.423379457	0.487798751	0.006360421	0.065619289	0.020224502
2019-08-13T01:55:00	0.1882	13.634	194.2	0.428355094	0.496146525	0.006519854	0.067264134	0.020731459
2019-08-13T02:00:00	0.1855	13.637	207.5	0.420995500	0.483823419	0.006284883	0.064839974	0.019984310
2019-08-13T02:05:00	0.1851	13.638	194.8	0.419939709	0.482067873	0.006251604	0.064496646	0.019878493
2019-08-13T02:10:00	0.1872	13.634	194.6	0.425748102	0.491764134	0.006436019	0.066399220	0.020464884
2019-08-13T02:15:00	0.1856	13.619	194.7	0.421401746	0.484499738	0.006297716	0.064972376	0.020025117
2019-08-13T02:20:00	0.1861	13.610	194.7	0.422818689	0.486862236	0.006342603	0.065435464	0.020167845
2019-08-13T02:25:00	0.1863	13.615	194.9	0.423136945	0.487393635	0.006352711	0.065539752	0.020199988
2019-08-13T02:30:00	0.1887	13.597	195.7	0.429754225	0.498506270	0.006565121	0.067731138	0.020875395
2019-08-13T02:35:00	0.1860	13.592	195.6	0.422400948	0.486165151	0.006329349	0.065298729	0.020125702
2019-08-13T02:40:00	0.1866	13.575	195.3	0.424091338	0.488988887	0.006383084	0.065853102	0.020296566
2019-08-13T02:45:00	0.1847	13.558	208.8	0.418915236	0.480367346	0.006219415	0.064164561	0.019776141
2019-08-13T02:50:00	0.1849	13.542	195.9	0.419509354	0.481353172	0.006238070	0.064357019	0.019835458
2019-08-13T02:55:00	0.1858	13.533	196.0	0.421752232	0.485083594	0.006308801	0.065086736	0.020060364
2019-08-13T03:00:00	0.1838	13.543	208.9	0.416293027	0.476027925	0.006137486	0.063319309	0.019515626
2019-08-13T03:05:00	0.1841	13.535	195.1	0.417163610	0.477466525	0.006164613	0.063599180	0.019601885
2019-08-13T03:10:00	0.1825	13.522	194.9	0.412794038	0.470267051	0.006029188	0.062202018	0.019171266
2019-08-13T03:15:00	0.1858	13.513	208.3	0.421927447	0.485375602	0.006314347	0.065143953	0.020077999
2019-08-13T03:20:00	0.1847	13.504	195.3	0.418947244	0.480420432	0.006220419	0.064174921	0.019779334
2019-08-13T03:25:00	0.1850	13.499	208.8	0.419541350	0.481406292	0.006239076	0.064367393	0.019838656
2019-08-13T03:30:00	0.1840	13.489	208.9	0.416832285	0.476918779	0.006154281	0.063492579	0.019569030
2019-08-13T03:35:00	0.1857	13.482	209.3	0.421553289	0.484752142	0.006302507	0.065021807	0.020040353
2019-08-13T03:40:00	0.1851	13.480	208.9	0.419947963	0.482081585	0.006251864	0.064499326	0.019879319
2019-08-13T03:45:00	0.1849	13.471	195.5	0.419441746	0.481240940	0.006235945	0.064335100	0.019828703
2019-08-13T03:50:00	0.1838	13.465	209.0	0.416456943	0.476298629	0.006142588	0.063371947	0.019531849
2019-08-13T03:55:00	0.1844	13.455	195.6	0.417878230	0.478648966	0.006186936	0.063829474	0.019672864
2019-08-13T04:00:00	0.1859	13.435	181.8	0.422046994	0.485574884	0.006318133	0.065183009	0.020090036
2019-08-13T04:05:00	0.1854	13.441	180.2	0.420712128	0.483351932	0.006275940	0.064747717	0.019955875
2019-08-13T04:10:00	0.1850	13.433	178.5	0.419651230	0.481588732	0.006242530	0.064403029	0.019849639
2019-08-13T04:15:00	0.1861	13.422	179.1	0.422712787	0.486685471	0.006339241	0.065400783	0.020157157
2019-08-13T04:20:00	0.1881	13.399	179.7	0.428232847	0.495940605	0.006515908	0.067223424	0.020718912
2019-08-13T04:25:00	0.1874	13.370	180.0	0.426355301	0.492783159	0.006455486	0.066600059	0.020526785
2019-08-13T04:30:00	0.1869	13.362	183.5	0.424749805	0.490090974	0.006404091	0.066069823	0.020363361
2019-08-13T04:35:00	0.1867	13.358	183.7	0.424240176	0.489237894	0.006387829	0.065902051	0.020311652
2019-08-13T04:40:00	0.1861	13.343	183.5	0.422632594	0.486551639	0.006336696	0.065374530	0.020149065
2019-08-13T04:45:00	0.1876	13.339	182.6	0.426784281	0.493503708	0.006469261	0.066742173	0.020570586
2019-08-13T04:50:00	0.1870	13.321	182.6	0.425179207	0.490810319	0.006417812	0.066211386	0.020406992
2019-08-13T04:55:00	0.1881	13.313	175.9	0.428230399	0.495936481	0.006515829	0.067222609	0.020718661
2019-08-13T05:00:00	0.1892	13.308	175.3	0.431275932	0.501078926	0.006614570	0.068241296	0.021032630
2019-08-13T05:05:00	0.1896	13.300	183.0	0.432133662	0.502531878	0.006642542	0.068529884	0.021121576
2019-08-13T05:10:00	0.1917	13.270	181.7	0.437894351	0.512343341	0.006832285	0.070487424	0.021724909
2019-08-13T05:15:00	0.1905	13.273	181.2	0.434665607	0.506832821	0.006725536	0.069386113	0.021385474
2019-08-13T05:20:00	0.1911	13.275	179.5	0.436338582	0.509684465	0.006780720	0.069955433	0.021560944
2019-08-13T05:25:00	0.1925	13.272	183.4	0.440184410	0.516269461	0.006908623	0.071274993	0.021967645
2019-08-13T05:30:00	0.1920	13.271	167.3	0.438864148	0.514004190	0.006864549	0.070820291	0.021827501
2019-08-13T05:35:00	0.1935	13.267	177.6	0.443519341	0.521072218	0.007008067	0.072300939	0.022283852
2019-08-13T05:40:00	0.1940	13.269	176.9	0.444965334	0.523008136	0.007049385	0.072727201	0.022415230
2019-08-13T05:45:00	0.1946	13.259	174.7	0.447108458	0.525880408	0.007110840	0.073361223	0.022610641
2019-08-13T05:50:00	0.1959	13.273	174.4	0.451689654	0.532032373	0.007243083	0.074725552	0.023031141
2019-08-13T05:55:00	0.1951	13.290	173.8	0.448950936	0.528352636	0.007163882	0.073908453	0.022779303
2019-08-13T06:00:00	0.1950	13.298	174.1	0.448651635	0.527950853	0.007155253	0.073819423	0.022751863
2019-08-13T06:05:00	0.1954	13.301	172.4	0.450095413	0.529889634	0.007196927	0.074249374	0.022884378
2019-08-13T06:10:00	0.1970	13.352	172.5	0.455716538	0.537453628	0.007360311	0.075934972	0.023403896
2019-08-13T06:15:00	0.1959	13.372	172.1	0.451587893	0.531895541	0.007240133	0.074695113	0.023021759
2019-08-13T06:20:00	0.1972	13.389	171.7	0.456162980	0.538055446	0.007373364	0.076069641	0.023445402
2019-08-13T06:25:00	0.1977	13.427	170.5	0.457951266	0.540467688	0.007425765	0.076610252	0.023612024
2019-08-13T06:30:00	0.1968	13.431	170.6	0.454869637	0.536312412	0.007335580	0.075679826	0.023325257
2019-08-13T06:35:00	0.1977	13.472	170.4	0.458049723	0.540600572	0.007428656	0.076640071	0.023621214
2019-08-13T06:40:00	0.1969	13.491	170.3	0.455316192	0.536914082	0.007348615	0.075814307	0.023366706
2019-08-13T06:45:00	0.1986	13.515	170.7	0.461275984	0.544959165	0.007523672	0.077620333	0.023923340
2019-08-13T06:50:00	0.1980	13.512	170.8	0.459240313	0.542208069	0.007463650	0.077001105	0.023732488
2019-08-13T06:55:00	0.1987	13.550	176.9	0.461374343	0.545092175	0.007526578	0.077650315	0.023932581
2019-08-13T07:00:00	0.1996	13.583	168.8	0.464548288	0.549388376	0.007620650	0.078620841	0.024231707
2019-08-13T07:05:00	0.1978	13.609	170.0	0.458345077	0.540999245	0.007437329	0.076729556	0.023648794
2019-08-13T07:10:00	0.1991	13.631	169.1	0.462910980	0.547171146	0.007572050	0.078119446	0.024077172
2019-08-13T07:15:00	0.1978	13.655	172.3	0.458443522	0.541132143	0.007440222	0.076759394	0.023657991
2019-08-13T07:20:00	0.1978	13.673	171.2	0.458492744	0.541198594	0.007441668	0.076774315	0.023662589
2019-08-13T07:25:00	0.1965	13.697	177.7	0.454019408	0.535167280	0.007310793	0.075424101	0.023246440
2019-08-13T07:30:00	0.1978	13.750	177.1	0.458243517	0.540862151	0.007434346	0.076698780	0.023639309
2019-08-13T07:35:00	0.1953	13.819	175.0	0.449589455	0.529210020	0.007182309	0.074098562	0.022837897
2019-08-13T07:40:00	0.1969	13.928	175.0	0.455211427	0.536772912	0.007345556	0.075782746	0.023356978
2019-08-13T07:45:00	0.1964	13.956	173.4	0.453520272	0.534495284	0.007296260	0.075274173	0.023200231
2019-08-13T07:50:00	0.1979	14.016	171.3	0.458788059	0.541597318	0.007450348	0.076863865	0.023690190
2019-08-13T07:55:00	0.1982	14.010	167.7	0.459879987	0.543072200	0.007482486	0.077195424	0.023792379
2019-08-13T08:00:00	0.1970	14.261	167.4	0.455756460	0.537507438	0.007361478	0.075947010	0.023407606
2019-08-13T08:05:00	0.1955	14.194	172.8	0.450234089	0.530075941	0.007200937	0.074290735	0.022897126
2019-08-13T08:10:00	0.1970	14.095	171.8	0.455507030	0.537171259	0.007354189	0.075871814	0.023384430
2019-08-13T08:15:00	0.1972	14.121	170.5	0.456252151	0.538175670	0.007375973	0.076096554	0.023453697
2019-08-13T08:20:00	0.1987	14.082	166.3	0.461515662	0.545283292	0.007530754	0.077693401	0.023945861
2019-08-13T08:25:00	0.1989	14.058	166.2	0.462259452	0.546289443	0.007552754	0.077920367	0.024015814
2019-08-13T08:30:00	0.1995	14.103	166.4	0.464391570	0.549176058	0.007615992	0.078572781	0.024216894
2019-08-13T08:35:00	0.1987	14.123	162.0	0.461663190	0.545482823	0.007535115	0.077738393	0.023959728
2019-08-13T08:40:00	0.1967	14.143	158.4	0.454410565	0.535694040	0.007322191	0.075541698	0.023282685
2019-08-13T08:45:00	0.1949	14.209	158.2	0.448188590	0.527329400	0.007141912	0.073681789	0.022709443
2019-08-13T08:50:00	0.1961	14.406	157.6	0.452420041	0.533014717	0.007264277	0.074944207	0.023098532
2019-08-13T08:55:00	0.1979	14.440	180.2	0.458732620	0.541522462	0.007448718	0.076847050	0.023685007
2019-08-13T09:00:00	0.1960	14.565	172.4	0.452170363	0.532678862	0.007257029	0.074869426	0.023075484
2019-08-13T09:05:00	0.1951	14.535	171.4	0.449083420	0.528530504	0.007167704	0.073947878	0.022791454
2019-08-13T09:10:00	0.1960	14.549	167.6	0.452268990	0.532811524	0.007259891	0.074898961	0.023084587
2019-08-13T09:15:00	0.1971	14.554	170.0	0.455799495	0.537565444	0.007362736	0.075959987	0.023411606
2019-08-13T09:20:00	0.1946	14.649	167.9	0.447139118	0.525921526	0.007111721	0.073370313	0.022613443
2019-08-13T09:25:00	0.1943	14.712	165.1	0.446141843	0.524584477	0.007083089	0.073074926	0.022522402
2019-08-13T09:30:00	0.1951	14.525	165.2	0.448981580	0.528393776	0.007164766	0.073917571	0.022782113
2019-08-13T09:35:00	0.1951	14.616	161.1	0.449030940	0.528460045	0.007166190	0.073932260	0.022786641
2019-08-13T09:40:00	0.1939	14.608	182.7	0.444894049	0.522912661	0.007047345	0.072706159	0.022408744
2019-08-13T09:45:00	0.1934	14.558	193.2	0.443197678	0.520641794	0.006998892	0.072206283	0.022254678
2019-08-13T09:50:00	0.1935	14.582	182.2	0.443247124	0.520707954	0.007000302	0.072220830	0.022259161
2019-08-13T09:55:00	0.1930	14.570	170.3	0.441549918	0.518438165	0.006951985	0.071722345	0.022105523
2019-08-13T10:00:00	0.1937	14.526	160.9	0.444044409	0.521774998	0.007023057	0.072455582	0.022331514
2019-08-13T10:05:00	0.1946	14.538	151.6	0.447135997	0.525917340	0.007111631	0.073369387	0.022613158
2019-08-13T10:10:00	0.1931	14.518	140.9	0.441849855	0.518839127	0.006960512	0.071810317	0.022132637
2019-08-13T10:15:00	0.1920	14.544	130.6	0.438924097	0.514106943	0.006866547	0.070840899	0.021833853
2019-08-13T10:20:00	0.1937	14.544	119.6	0.444195831	0.521977710	0.007027382	0.072500208	0.022345268
2019-08-13T10:25:00	0.1915	14.555	110.7	0.437487286	0.511646996	0.006818770	0.070347991	0.021681934
2019-08-13T10:30:00	0.1912	14.518	104.4	0.436632314	0.510185948	0.006790437	0.070055686	0.021591843
2019-08-13T10:35:00	0.1895	14.570	95.4	0.431959536	0.502236752	0.006636858	0.068471238	0.021103500
2019-08-13T10:40:00	0.1913	14.624	91.3	0.436827439	0.510519215	0.006796897	0.070122331	0.021612383
2019-08-13T10:45:00	0.1913	14.670	87.9	0.436788903	0.510453388	0.006795621	0.070109166	0.021608326
2019-08-13T10:50:00	0.1915	14.705	76.6	0.437566759	0.511782911	0.006821407	0.070375200	0.021690320
2019-08-13T10:55:00	0.1888	14.709	70.9	0.430166069	0.499201913	0.006578481	0.067868980	0.020917879
2019-08-13T11:00:00	0.1895	14.698	61.8	0.432039274	0.502371889	0.006639460	0.068498090	0.021111777
2019-08-13T11:05:00	0.1881	14.720	63.4	0.428174525	0.495842378	0.006514026	0.067204007	0.020712928
2019-08-13T11:10:00	0.1899	14.734	59.1	0.433053550	0.504092399	0.006672622	0.068840212	0.021217222
2019-08-13T11:15:00	0.1894	14.709	47.4	0.431650318	0.501712865	0.006626770	0.068367168	0.021071425
2019-08-13T11:20:00	0.1914	14.696	43.4	0.437063507	0.510922552	0.006804717	0.070203013	0.021637250
2019-08-13T11:25:00	0.1908	14.704	43.6	0.435663658	0.508533093	0.006758424	0.069725412	0.021490049
2019-08-13T11:30:00	0.1905	14.762	39.0	0.434807751	0.507074806	0.006730214	0.069434375	0.021400349
2019-08-13T11:35:00	0.1892	14.842	34.5	0.431222605	0.500988660	0.006612833	0.068223378	0.021027108
2019-08-13T11:40:00	0.1895	14.896	27.0	0.432003069	0.502310528	0.006638279	0.068485897	0.021108019
2019-08-13T11:45:00	0.1872	14.920	22.9	0.425673831	0.491639560	0.006433640	0.066374679	0.020457321
2019-08-13T11:50:00	0.1859	14.913	20.4	0.422068675	0.485611030	0.006318819	0.065190093	0.020092220
2019-08-13T11:55:00	0.1865	14.863	18.5	0.423676814	0.488295707	0.006369881	0.065716892	0.020254584
2019-08-13T12:00:00	0.1849	14.886	15.7	0.419517174	0.481366155	0.006238316	0.064359554	0.019836240
2019-08-13T12:05:00	0.1842	14.945	14.0	0.417551545	0.478108244	0.006176725	0.063724134	0.019640397
2019-08-13T12:10:00	0.1849	14.946	13.3	0.419439284	0.481236854	0.006235868	0.064334302	0.019828457
2019-08-13T12:15:00	0.1845	14.943	12.4	0.418299604	0.479346849	0.006200121	0.063965504	0.019714790
2019-08-13T12:20:00	0.1853	14.941	14.0	0.420461401	0.482934946	0.006268034	0.064666154	0.019930737
2019-08-13T12:25:00	0.1831	14.961	13.0	0.414362953	0.472846008	0.006077603	0.062701508	0.019325214
2019-08-13T12:30:00	0.1862	14.970	9.9	0.422855968	0.486924467	0.006343786	0.065447674	0.020171609
2019-08-13T12:35:00	0.1864	14.966	9.1	0.423640424	0.488234878	0.006368723	0.065704943	0.020250902
2019-08-13T12:40:00	0.1874	14.959	8.7	0.426343046	0.492762582	0.006455093	0.066596002	0.020525535
2019-08-13T12:45:00	0.1869	14.967	8.4	0.424934074	0.490399605	0.006409977	0.066130549	0.020382077
2019-08-13T12:50:00	0.1860	14.957	7.8	0.422425952	0.486206862	0.006330142	0.065306908	0.020128223
2019-08-13T12:55:00	0.1853	15.004	7.5	0.420463860	0.482939036	0.006268112	0.064666954	0.019930983
2019-08-13T13:00:00	0.1853	15.052	6.9	0.420424939	0.482874320	0.006266885	0.064654298	0.019927083
2019-08-13T13:05:00	0.1837	15.074	6.1	0.415981257	0.475513246	0.006127789	0.063219265	0.019484791
2019-08-13T13:10:00	0.1835	15.047	7.3	0.415666521	0.474993943	0.006118009	0.063118366	0.019453693
2019-08-13T13:15:00	0.1847	15.050	6.8	0.418932908	0.480396654	0.006219970	0.064170280	0.019777904
2019-08-13T13:20:00	0.1833	15.034	6.2	0.415036865	0.473955851	0.006098471	0.062916804	0.019391570
2019-08-13T13:25:00	0.1829	15.024	5.9	0.413894054	0.472074529	0.006063108	0.062551972	0.019279125
2019-08-13T13:30:00	0.1815	15.056	4.9	0.409985695	0.465667640	0.005943111	0.061313980	0.018897564
2019-08-13T13:35:00	0.1833	15.068	4.6	0.414919702	0.473762810	0.006094840	0.062879341	0.019380024
2019-08-13T13:40:00	0.1807	15.074	1.7	0.407691969	0.461927110	0.005873363	0.060594406	0.018675785
2019-08-13T13:45:00	0.1800	15.075	0.5	0.405711683	0.458709322	0.005813547	0.059977297	0.018485585
2019-08-13T13:50:00	0.1787	15.096	5.0	0.402339204	0.453254034	0.005712531	0.058935127	0.018164379
2019-08-13T13:55:00	0.1776	15.122	4.7	0.399238067	0.448265066	0.005620585	0.057986537	0.017872014
2019-08-13T14:00:00	0.1788	15.086	4.3	0.402538518	0.453575579	0.005718471	0.058996413	0.018183267
2019-08-13T14:05:00	0.1790	15.061	3.9	0.403055124	0.454409501	0.005733885	0.059155439	0.018232281
2019-08-13T14:10:00	0.1803	15.064	3.7	0.406624859	0.460191818	0.005841084	0.060261391	0.018573146
2019-08-13T14:15:00	0.1795	15.114	3.4	0.404365550	0.456528104	0.005773098	0.059559987	0.018356967
2019-08-13T14:20:00	0.1884	15.106	3.3	0.428852508	0.496984830	0.006535925	0.067429936	0.020782561
2019-08-13T14:25:00	0.1897	15.065	3.2	0.432638408	0.503387849	0.006659037	0.068700055	0.021174024
2019-08-13T14:30:00	0.1898	15.076	3.0	0.432872629	0.503785294	0.006666699	0.068779110	0.021198390
2019-08-13T14:35:00	0.1910	15.093	2.8	0.436104847	0.509285587	0.006772993	0.069875722	0.021536376
2019-08-13T14:40:00	0.1895	15.119	2.6	0.431976634	0.502265727	0.006637416	0.068476995	0.021105275
2019-08-13T14:45:00	0.1890	15.149	2.5	0.430572488	0.499888855	0.006591682	0.068005173	0.020959855
2019-08-13T14:50:00	0.1906	15.147	2.5	0.434899543	0.507231104	0.006733236	0.069465552	0.021409958
2019-08-13T14:55:00	0.1890	15.200	2.4	0.430495124	0.499758056	0.006589168	0.067979235	0.020951860
2019-08-13T15:00:00	0.1896	15.257	2.3	0.432367956	0.502929116	0.006650196	0.068608842	0.021145911
2019-08-13T15:05:00	0.1890	15.195	2.1	0.430690971	0.500089207	0.006595534	0.068044909	0.020972102
2019-08-13T15:10:00	0.1885	15.135	2.1	0.429285730	0.497715510	0.006549942	0.067574544	0.020827131
2019-08-13T15:15:00	0.1903	15.127	2.0	0.434161479	0.505975047	0.006708961	0.069215114	0.021332770
2019-08-13T15:20:00	0.1901	15.087	2.0	0.433577537	0.504982357	0.006689793	0.069017364	0.021271822
2019-08-13T15:25:00	0.1895	15.082	1.9	0.431901779	0.502138877	0.006634973	0.068451792	0.021097507
2019-08-13T15:30:00	0.1899	15.072	1.8	0.432954765	0.503924704	0.006669388	0.068806845	0.021206938
2019-08-13T15:35:00	0.1890	15.059	1.8	0.430732094	0.500158752	0.006596871	0.068058704	0.020976353
2019-08-13T15:40:00	0.1921	15.049	1.7	0.439140844	0.514478534	0.006873772	0.070915439	0.021856827
2019-08-13T15:45:00	0.1920	15.037	1.7	0.438830524	0.513946562	0.006863429	0.070808734	0.021823939
2019-08-13T15:50:00	0.1907	15.023	1.5	0.435254043	0.507834939	0.006744914	0.069586036	0.021447092
2019-08-13T15:55:00	0.1910	15.013	1.5	0.436032614	0.509162349	0.006770606	0.069851099	0.021528787
2019-08-13T16:00:00	0.1909	14.988	1.5	0.435721717	0.508632087	0.006760340	0.069745181	0.021496142
2019-08-13T16:05:00	0.1899	14.974	1.4	0.433077960	0.504133840	0.006673421	0.068848458	0.021219763
2019-08-13T16:10:00	0.1911	14.971	1.4	0.436430290	0.509841011	0.006783753	0.069986724	0.021570588
2019-08-13T16:15:00	0.1880	14.947	1.4	0.427777743	0.495174363	0.006501231	0.067071999	0.020672242
2019-08-13T16:20:00	0.1872	14.943	1.4	0.425669362	0.491632064	0.006433497	0.066373203	0.020456866
2019-08-13T16:25:00	0.1884	14.911	1.5	0.429036751	0.497295513	0.006541884	0.067491412	0.020801509
2019-08-13T16:30:00	0.1891	14.899	1.7	0.431032141	0.500666330	0.006606632	0.068159407	0.021007391
2019-08-13T16:35:00	0.1905	14.901	1.7	0.434661162	0.506825255	0.006725390	0.069384605	0.021385009
2019-08-13T16:40:00	0.1870	14.885	1.7	0.425177189	0.490806938	0.006417748	0.066210720	0.020406787
2019-08-13T16:45:00	0.1883	14.862	1.6	0.428819115	0.496928529	0.006534846	0.067418797	0.020779128
2019-08-13T16:50:00	0.1884	14.862	1.5	0.428901452	0.497067353	0.006537508	0.067446264	0.020787593
2019-08-13T16:55:00	0.1886	14.854	1.6	0.429530646	0.498128820	0.006557874	0.067656379	0.020852353
2019-08-13T17:00:00	0.1900	14.828	1.4	0.433435721	0.504741416	0.006685143	0.068969390	0.021257036
2019-08-13T17:05:00	0.1918	14.807	1.4	0.438147735	0.512777025	0.006840706	0.070574301	0.021751685
2019-08-13T17:10:00	0.1894	14.791	1.4	0.431689839	0.501779809	0.006628059	0.068380464	0.021075523
2019-08-13T17:15:00	0.1893	14.771	1.4	0.431498996	0.501456589	0.006621837	0.068316275	0.021055740
2019-08-13T17:20:00	0.1907	14.762	1.5	0.435126997	0.507618496	0.006740727	0.069542842	0.021433779
2019-08-13T17:25:00	0.1903	14.749	1.8	0.434118867	0.505902576	0.006707561	0.069200672	0.021328319
2019-08-13T17:30:00	0.1912	14.736	1.9	0.436652663	0.510220699	0.006791110	0.070062634	0.021593984
2019-08-13T17:35:00	0.1911	14.709	1.8	0.436462390	0.509895810	0.006784814	0.069997679	0.021573964
2019-08-13T17:40:00	0.1911	14.695	1.7	0.436272095	0.509570986	0.006778521	0.069932753	0.021553954
2019-08-13T17:45:00	0.1900	14.687	1.7	0.433356482	0.504606817	0.006682546	0.068942595	0.021248777
2019-08-13T17:50:00	0.1908	14.669	1.6	0.435619079	0.508457090	0.006756953	0.069710235	0.021485371
2019-08-13T17:55:00	0.1924	14.633	1.9	0.439781624	0.515577854	0.006895159	0.071136084	0.021924832
2019-08-13T18:00:00	0.1915	14.603	1.8	0.437416407	0.511525794	0.006816418	0.070323730	0.021674456
2019-08-13T18:05:00	0.1912	14.594	1.7	0.436681891	0.510270615	0.006792078	0.070072615	0.021597061
2019-08-13T18:10:00	0.1908	14.576	1.7	0.435402307	0.508087589	0.006749802	0.069636465	0.021462635
2019-08-13T18:15:00	0.1914	14.542	1.7	0.437117942	0.511015580	0.006806521	0.070221625	0.021642987
2019-08-13T18:20:00	0.1894	14.516	1.6	0.431748470	0.501879129	0.006629971	0.068400192	0.021081603
2019-08-13T18:25:00	0.1898	14.484	1.6	0.432922319	0.503869631	0.006668326	0.068795888	0.021203561
2019-08-13T18:30:00	0.1899	14.442	1.6	0.433004452	0.504009048	0.006671014	0.068823626	0.021212110
2019-08-13T18:35:00	0.1919	14.395	1.7	0.438533605	0.513437815	0.006853542	0.070706729	0.021792501
2019-08-13T18:40:00	0.1912	14.342	1.7	0.436711119	0.510320532	0.006793045	0.070082597	0.021600137
2019-08-13T18:45:00	0.1929	14.291	1.7	0.441159472	0.517916316	0.006940892	0.071607906	0.022070252
2019-08-13T18:50:00	0.1928	14.250	1.8	0.440952697	0.517589915	0.006934350	0.071540415	0.022049451
2019-08-13T18:55:00	0.1949	14.202	1.6	0.448351398	0.527547885	0.007146601	0.073730167	0.022724353
2019-08-13T19:00:00	0.1948	14.179	1.7	0.447758902	0.526752865	0.007129543	0.073554182	0.022670113
2019-08-13T19:05:00	0.1960	14.119	1.7	0.452046444	0.532512191	0.007253432	0.074832325	0.023064049
2019-08-13T19:10:00	0.1956	14.096	1.7	0.450757750	0.530779604	0.007216085	0.074447024	0.022945296
2019-08-13T19:15:00	0.1947	14.070	1.6	0.447725127	0.526707553	0.007128571	0.073544156	0.022667023
2019-08-13T19:20:00	0.1964	13.992	1.7	0.453405749	0.534341128	0.007292928	0.075239794	0.023189635
2019-08-13T19:25:00	0.1968	13.966	1.7	0.454902986	0.536357339	0.007336553	0.075689865	0.023328352
2019-08-13T19:30:00	0.1973	13.906	1.8	0.456747414	0.538843519	0.007390470	0.076246113	0.023499792
2019-08-13T19:35:00	0.1968	13.882	1.8	0.454764504	0.536170782	0.007332513	0.075648182	0.023315504
2019-08-13T19:40:00	0.1991	13.839	1.8	0.462864576	0.547108336	0.007570675	0.078105258	0.024072799
2019-08-13T19:45:00	0.2000	13.819	1.9	0.466092435	0.551481395	0.007666625	0.079095155	0.024377895
2019-08-13T19:50:00	0.2008	13.783	1.9	0.468624046	0.554916968	0.007742295	0.079875826	0.024618505
2019-08-13T19:55:00	0.2011	13.753	1.9	0.469768050	0.556471129	0.007776609	0.080229841	0.024727616
2019-08-13T20:00:00	0.2012	13.720	2.0	0.470218832	0.557083816	0.007790151	0.080369549	0.024770676
2019-08-13T20:05:00	0.2003	13.686	2.1	0.467203717	0.552988857	0.007699796	0.079437375	0.024483370
2019-08-13T20:10:00	0.1998	13.686	2.2	0.465226960	0.550308052	0.007640840	0.078829135	0.024295905
2019-08-13T20:15:00	0.2017	13.638	2.3	0.471917115	0.559393507	0.007841273	0.080896963	0.024933230
2019-08-13T20:20:00	0.2026	13.622	2.5	0.475136331	0.563777983	0.007938630	0.081901386	0.025242803
2019-08-13T20:25:00	0.2028	13.592	2.8	0.475586398	0.564391618	0.007952289	0.082042298	0.025286233
2019-08-13T20:30:00	0.2006	13.571	2.9	0.468072336	0.554167826	0.007725773	0.079705374	0.024565970
2019-08-13T20:35:00	0.1983	13.544	3.1	0.460194033	0.543496560	0.007491741	0.077290912	0.023821810
2019-08-13T20:40:00	0.2014	13.502	3.1	0.470706750	0.557747156	0.007804821	0.080520901	0.024817324
2019-08-13T20:45:00	0.1991	13.475	3.0	0.462834609	0.547067777	0.007569787	0.078096097	0.024069976
2019-08-13T20:50:00	0.2007	13.465	3.0	0.468489778	0.554734629	0.007738272	0.079834327	0.024605715
2019-08-13T20:55:00	0.2010	13.451	3.0	0.469633827	0.556288731	0.007772579	0.080188266	0.024714802
2019-08-13T21:00:00	0.1993	13.420	3.2	0.463495344	0.547962243	0.007589378	0.078298216	0.024132270
2019-08-13T21:05:00	0.2006	13.390	3.4	0.468109559	0.554218362	0.007726887	0.079716868	0.024569513
2019-08-13T21:10:00	0.1996	13.375	3.7	0.464745560	0.549655664	0.007626516	0.078681359	0.024250359
2019-08-13T21:15:00	0.2013	13.341	4.0	0.470397528	0.557326736	0.007795522	0.080424964	0.024787755
2019-08-13T21:20:00	0.2000	13.324	4.3	0.465995313	0.551349695	0.007663729	0.079065281	0.024368687
2019-08-13T21:25:00	0.1993	13.309	4.6	0.463670739	0.548199742	0.007594583	0.078351912	0.024148820
2019-08-13T21:30:00	0.1988	13.298	5.4	0.461691908	0.545521667	0.007535964	0.077747152	0.023962427
2019-08-13T21:35:00	0.1983	13.283	5.0	0.460059429	0.543314664	0.007487773	0.077249978	0.023809193
2019-08-13T21:40:00	0.1974	13.255	5.2	0.457035201	0.539231680	0.007398900	0.076333085	0.023526598
2019-08-13T21:45:00	0.1965	13.235	5.7	0.454008249	0.535152255	0.007310468	0.075420748	0.023245407
2019-08-13T21:50:00	0.1963	13.218	5.9	0.453068548	0.533887290	0.007283121	0.075138612	0.023158450
2019-08-13T21:55:00	0.1982	13.225	6.4	0.459782883	0.542941002	0.007479625	0.077165910	0.023783283
2019-08-13T22:00:00	0.1946	13.191	6.5	0.447353574	0.526209150	0.007117885	0.073433909	0.022633044
2019-08-13T22:05:00	0.1943	13.160	6.9	0.446211282	0.524677550	0.007085081	0.073095475	0.022528735
2019-08-13T22:10:00	0.1946	13.142	7.3	0.447162271	0.525952577	0.007112386	0.073377177	0.022615559
2019-08-13T22:15:00	0.1953	13.133	7.7	0.449507648	0.529100154	0.007179947	0.074074192	0.022830385
2019-08-13T22:20:00	0.1959	13.131	8.3	0.451851384	0.532249858	0.007247773	0.074773942	0.023046055
2019-08-13T22:25:00	0.1962	13.105	8.7	0.452800774	0.533526958	0.007275337	0.075058311	0.023133700
2019-08-13T22:30:00	0.1951	13.075	9.2	0.448872234	0.528246978	0.007161613	0.073885037	0.022772086
2019-08-13T22:35:00	0.1967	13.046	9.6	0.454698749	0.536082205	0.007330595	0.075628394	0.023309405
2019-08-13T22:40:00	0.1954	13.029	10.0	0.450075439	0.529862800	0.007196350	0.074243417	0.022882542
2019-08-13T22:45:00	0.1954	13.053	10.7	0.449979866	0.529734411	0.007193588	0.074214919	0.022873759
2019-08-13T22:50:00	0.1959	13.017	11.2	0.451626602	0.531947589	0.007241255	0.074706691	0.023025328
2019-08-13T22:55:00	0.1958	12.981	11.6	0.451531073	0.531819142	0.007238485	0.074678119	0.023016522
2019-08-13T23:00:00	0.1951	12.945	12.1	0.448995914	0.528413020	0.007165180	0.073921837	0.022783428
2019-08-13T23:05:00	0.1969	12.956	13.8	0.455170237	0.536717412	0.007344353	0.075770340	0.023353155
2019-08-13T23:10:00	0.1958	12.924	14.4	0.451244472	0.531433824	0.007230180	0.074592432	0.022990112
2019-08-13T23:15:00	0.1947	12.910	15.4	0.447662908	0.526624085	0.007126781	0.073525689	0.022661331
2019-08-13T23:20:00	0.1947	12.859	15.5	0.447567266	0.526495785	0.007124030	0.073497306	0.022652584
2019-08-13T23:25:00	0.1945	12.876	15.8	0.446773942	0.525431843	0.007101230	0.073262082	0.022580085
2019-08-13T23:30:00	0.1956	12.833	16.2	0.450862299	0.530920116	0.007219112	0.074478246	0.022954919
2019-08-13T23:35:00	0.1969	12.828	16.6	0.455293686	0.536883755	0.007347958	0.075807527	0.023364616
2019-08-13T23:40:00	0.1955	12.782	18.6	0.450322707	0.530195005	0.007203499	0.074317172	0.022905274
2019-08-13T23:45:00	0.1960	12.770	17.9	0.451969274	0.532408402	0.007251193	0.074809225	0.023056930
2019-08-13T23:50:00	0.1949	12.753	20.3	0.448388485	0.527597658	0.007147670	0.073741189	0.022727751
2019-08-13T23:55:00	0.1964	12.778	20.0	0.453519562	0.534494328	0.007296240	0.075273960	0.023200165
2019-08-14T00:00:00	0.1960	12.743	20.5	0.452031058	0.532491496	0.007252986	0.074827719	0.023062630
2019-08-14T00:05:00	0.1947	12.726	21.5	0.447404065	0.526276873	0.007119337	0.073448886	0.022637660
2019-08-14T00:10:00	0.1944	12.721	22.0	0.446610702	0.525212981	0.007096543	0.073213727	0.022565182
2019-08-14T00:15:00	0.1946	12.692	22.7	0.447212765	0.526020295	0.007113837	0.073392149	0.022620173
2019-08-14T00:20:00	0.1945	12.665	23.2	0.446768252	0.525424214	0.007101067	0.073260396	0.022579566
2019-08-14T00:25:00	0.1936	12.621	23.8	0.443880324	0.521555354	0.007018371	0.072407238	0.022316614
2019-08-14T00:30:00	0.1948	12.605	24.1	0.447972213	0.527039057	0.007135682	0.073617517	0.022689634
2019-08-14T00:35:00	0.1917	12.588	25.9	0.437946910	0.512433285	0.006834031	0.070505439	0.021730461
2019-08-14T00:40:00	0.1942	12.571	26.8	0.445687661	0.523975815	0.007070069	0.072940594	0.022480999
2019-08-14T00:45:00	0.1936	12.494	27.8	0.443846510	0.521510093	0.007017405	0.072397278	0.022313544
2019-08-14T00:50:00	0.1942	12.449	27.9	0.445845254	0.524186992	0.007074585	0.072987191	0.022495361
2019-08-14T00:55:00	0.1934	12.461	30.8	0.442956530	0.520319162	0.006992018	0.072135360	0.022232819
2019-08-14T01:00:00	0.1946	12.460	30.7	0.447398376	0.526269242	0.007119173	0.073447199	0.022637140
2019-08-14T01:05:00	0.1926	12.411	31.5	0.440489497	0.516793615	0.006918833	0.071380320	0.022000108
2019-08-14T01:10:00	0.1943	12.363	33.7	0.446160418	0.524609374	0.007083622	0.073080423	0.022524096
2019-08-14T01:15:00	0.1922	12.308	37.1	0.439253733	0.514672121	0.006877537	0.070954280	0.021868798
2019-08-14T01:20:00	0.1928	12.308	36.8	0.441080747	0.517810154	0.006938644	0.071584711	0.022063103
2019-08-14T01:25:00	0.1930	12.291	37.6	0.441683090	0.518616184	0.006955770	0.071761398	0.022117560
2019-08-14T01:30:00	0.1924	12.230	37.8	0.439845417	0.515687361	0.006897290	0.071158073	0.021931609
2019-08-14T01:35:00	0.1911	12.202	37.3	0.436234995	0.509507671	0.006777295	0.069920100	0.021550054
2019-08-14T01:40:00	0.1925	12.197	38.3	0.440239758	0.516364533	0.006910475	0.071294095	0.021973532
2019-08-14T01:45:00	0.1915	12.200	38.5	0.437446638	0.511577488	0.006817421	0.070334077	0.021677646
2019-08-14T01:50:00	0.1914	12.122	40.5	0.437099910	0.510984763	0.006805924	0.070215459	0.021641086
2019-08-14T01:55:00	0.1915	12.121	36.9	0.437569502	0.511787601	0.006821498	0.070376139	0.021690609
2019-08-14T02:00:00	0.1902	12.061	46.2	0.433954152	0.505622486	0.006702152	0.069144864	0.021311118
2019-08-14T02:05:00	0.1898	12.078	48.8	0.432788358	0.503642278	0.006663942	0.068750660	0.021189621
2019-08-14T02:10:00	0.1911	11.992	43.9	0.436256922	0.509545091	0.006778020	0.069927578	0.021552359
2019-08-14T02:15:00	0.1914	11.965	44.3	0.437271064	0.511277306	0.006811598	0.070273997	0.021659128
2019-08-14T02:20:00	0.1921	11.982	44.6	0.439100237	0.514408907	0.006872418	0.070901470	0.021852522
2019-08-14T02:25:00	0.1920	12.028	44.3	0.438753851	0.513815165	0.006860875	0.070782385	0.021815818
2019-08-14T02:30:00	0.1909	11.952	51.0	0.435685901	0.508571018	0.006759158	0.069732985	0.021492383
2019-08-14T02:35:00	0.1913	11.885	51.6	0.436972574	0.510767168	0.006801704	0.070171927	0.021627669
2019-08-14T02:40:00	0.1908	11.920	55.0	0.435536520	0.508316348	0.006754229	0.069682134	0.021476710
2019-08-14T02:45:00	0.1903	11.873	53.4	0.434099228	0.505869177	0.006706916	0.069194016	0.021326268
2019-08-14T02:50:00	0.1888	11.842	53.9	0.430203057	0.499264412	0.006579682	0.067881368	0.020921697
2019-08-14T02:55:00	0.1891	11.815	59.9	0.430947776	0.500523587	0.006603887	0.068131083	0.020998661
2019-08-14T03:00:00	0.1884	11.807	64.8	0.428959624	0.497165445	0.006539389	0.067465673	0.020793576
2019-08-14T03:05:00	0.1886	11.731	71.6	0.429431526	0.497961529	0.006554663	0.067623252	0.020842143
2019-08-14T03:10:00	0.1900	11.727	80.2	0.433452680	0.504770226	0.006685699	0.068975126	0.021258804
2019-08-14T03:15:00	0.1906	11.726	74.0	0.435013583	0.507425314	0.006736991	0.069504297	0.021421899
2019-08-14T03:20:00	0.1905	11.711	74.0	0.434666348	0.506834082	0.006725560	0.069386365	0.021385552
2019-08-14T03:25:00	0.1907	11.636	74.5	0.435136625	0.507634898	0.006741045	0.069546115	0.021434788
2019-08-14T03:30:00	0.1915	11.620	73.2	0.437512370	0.511689893	0.006819602	0.070356578	0.021684581
2019-08-14T03:35:00	0.1894	11.627	73.1	0.431714145	0.501820982	0.006628852	0.068388642	0.021078044
2019-08-14T03:40:00	0.1920	11.524	71.7	0.438723089	0.513762451	0.006859851	0.070771815	0.021812561
2019-08-14T03:45:00	0.1934	11.496	70.0	0.443192931	0.520635443	0.006998757	0.072204887	0.022254247
2019-08-14T03:50:00	0.1937	11.510	67.7	0.444144778	0.521909362	0.007025924	0.072485161	0.022340630
2019-08-14T03:55:00	0.1936	11.409	67.7	0.443699857	0.521313807	0.007013219	0.072354087	0.022300232
2019-08-14T04:00:00	0.1954	11.393	66.7	0.449883935	0.529605548	0.007190816	0.074186320	0.022864944
2019-08-14T04:05:00	0.1927	11.379	66.3	0.440673316	0.517109551	0.006924988	0.071443827	0.022019681
2019-08-14T04:10:00	0.1951	11.376	64.6	0.449029321	0.528457872	0.007166143	0.073931778	0.022786492
2019-08-14T04:15:00	0.1930	11.356	66.7	0.441795640	0.518766646	0.006958970	0.071794412	0.022127735
2019-08-14T04:20:00	0.1936	11.322	63.5	0.443637920	0.521230911	0.007011451	0.072335849	0.022294611
2019-08-14T04:25:00	0.1949	11.293	61.4	0.448270114	0.527438800	0.007144260	0.073706011	0.022716909
2019-08-14T04:30:00	0.1941	11.373	62.4	0.445574887	0.523824708	0.007066837	0.072907257	0.022470725
2019-08-14T04:35:00	0.1964	11.284	60.8	0.453339613	0.534252109	0.007291004	0.075219944	0.023183517
2019-08-14T04:40:00	0.1964	11.270	59.5	0.453435090	0.534380622	0.007293782	0.075248601	0.023192350
2019-08-14T04:45:00	0.1973	11.233	61.1	0.456662669	0.538729229	0.007387988	0.076220511	0.023491902
2019-08-14T04:50:00	0.1962	11.248	58.8	0.452929635	0.533700353	0.007279082	0.075096949	0.023145609
2019-08-14T04:55:00	0.1969	11.250	68.2	0.455113833	0.536641412	0.007342707	0.075753352	0.023347919
2019-08-14T05:00:00	0.1971	11.268	66.2	0.455905187	0.537707913	0.007365825	0.075991864	0.023421430
2019-08-14T05:05:00	0.1970	11.278	63.9	0.455652655	0.537367524	0.007358444	0.075915711	0.023397959
2019-08-14T05:10:00	0.1981	11.315	59.7	0.459573274	0.542657823	0.007473451	0.077102221	0.023763653
2019-08-14T05:15:00	0.2000	11.312	57.0	0.465918462	0.551245489	0.007661438	0.079041646	0.024361403
2019-08-14T05:20:00	0.1975	11.313	55.1	0.457330289	0.539629759	0.007407549	0.076422314	0.023554099
2019-08-14T05:25:00	0.1982	11.324	53.2	0.459859165	0.543044067	0.007481872	0.077189095	0.023790429
2019-08-14T05:30:00	0.1975	11.313	53.5	0.457173235	0.539417882	0.007402945	0.076374817	0.023539460
2019-08-14T05:35:00	0.1975	11.355	54.3	0.457268603	0.539546537	0.007405740	0.076403657	0.023548349
2019-08-14T05:40:00	0.1977	11.459	54.2	0.458059450	0.540613701	0.007428941	0.076643017	0.023622122
2019-08-14T05:45:00	0.1973	11.506	55.9	0.456763725	0.538865517	0.007390947	0.076251041	0.023501311
2019-08-14T05:50:00	0.1977	11.502	55.0	0.457902430	0.540401779	0.007424332	0.076595463	0.023607466
2019-08-14T05:55:00	0.2000	11.523	57.6	0.465985648	0.551336590	0.007663441	0.079062308	0.024367771
2019-08-14T06:00:00	0.1994	11.581	57.3	0.463998859	0.548644107	0.007604324	0.078452413	0.024179796
2019-08-14T06:05:00	0.1996	11.598	58.7	0.464788126	0.549713342	0.007627782	0.078694420	0.024254385
2019-08-14T06:10:00	0.1996	11.654	58.9	0.464536260	0.549372080	0.007620292	0.078617152	0.024230570
2019-08-14T06:15:00	0.2005	11.682	61.8	0.467753213	0.553734613	0.007716224	0.079606862	0.024535608
2019-08-14T06:20:00	0.2006	11.711	60.8	0.468194959	0.554334309	0.007729443	0.079743243	0.024577642
2019-08-14T06:25:00	0.2027	11.756	62.9	0.475215911	0.563886473	0.007941045	0.081926293	0.025250479
2019-08-14T06:30:00	0.2011	11.822	62.4	0.469771346	0.556475609	0.007776708	0.080230863	0.024727931
2019-08-14T06:35:00	0.2002	11.870	63.2	0.466746521	0.552368549	0.007686140	0.079296493	0.024439949
2019-08-14T06:40:00	0.1996	11.927	60.9	0.464760181	0.549675476	0.007626951	0.078685845	0.024251742
2019-08-14T06:45:00	0.2003	11.968	60.9	0.466936713	0.552626574	0.007691820	0.079355084	0.024458008
2019-08-14T06:50:00	0.2004	12.028	63.4	0.467378566	0.553226130	0.007705021	0.079491286	0.024499986
2019-08-14T06:55:00	0.2018	12.042	63.3	0.472324435	0.559947809	0.007853558	0.081023712	0.024972295
2019-08-14T07:00:00	0.2000	12.079	64.4	0.466181540	0.551602230	0.007669282	0.079122568	0.024386344
2019-08-14T07:05:00	0.2018	12.132	57.2	0.472168078	0.559735014	0.007848841	0.080975046	0.024957296
2019-08-14T07:10:00	0.2005	12.198	55.1	0.467758867	0.553742288	0.007716393	0.079608607	0.024536146
2019-08-14T07:15:00	0.1996	12.290	46.7	0.464732236	0.549637610	0.007626120	0.078677271	0.024249099
2019-08-14T07:20:00	0.2000	12.399	45.7	0.465868249	0.551177404	0.007659942	0.079026205	0.024356644
2019-08-14T07:25:00	0.2013	12.473	41.7	0.470469921	0.557425156	0.007797699	0.080447420	0.024794676
2019-08-14T07:30:00	0.2021	12.522	38.0	0.473335110	0.561323758	0.007884083	0.081338635	0.025069357
2019-08-14T07:35:00	0.2002	12.557	34.6	0.466847275	0.552505233	0.007689149	0.079327529	0.024449515
2019-08-14T07:40:00	0.1986	12.673	31.6	0.461041797	0.544642508	0.007516755	0.077548972	0.023901346
2019-08-14T07:45:00	0.1980	12.803	30.5	0.459052088	0.541953859	0.007458113	0.076943972	0.023714880
2019-08-14T07:50:00	0.1984	12.882	26.2	0.460537485	0.543960746	0.007501870	0.077395408	0.023854017
2019-08-14T07:55:00	0.2008	12.874	23.6	0.468614388	0.554903852	0.007742005	0.079872841	0.024617585
2019-08-14T08:00:00	0.1997	12.809	20.7	0.464894598	0.549857618	0.007630949	0.078727095	0.024264455
2019-08-14T08:05:00	0.2002	12.807	18.5	0.466724249	0.552338335	0.007685475	0.079289633	0.024437835
2019-08-14T08:10:00	0.2008	12.799	17.0	0.468899514	0.555291104	0.007750550	0.079961000	0.024644757
2019-08-14T08:15:00	0.2006	12.801	16.4	0.467954656	0.554008065	0.007722251	0.079669039	0.024554772
2019-08-14T08:20:00	0.2008	12.833	14.8	0.468742998	0.555078519	0.007745859	0.079912600	0.024629839
2019-08-14T08:25:00	0.1993	12.848	13.7	0.463635118	0.548151507	0.007593526	0.078341005	0.024145459
2019-08-14T08:30:00	0.1971	12.854	12.9	0.456084998	0.537950312	0.007371083	0.076046110	0.023438150
2019-08-14T08:35:00	0.1972	12.948	12.4	0.456180397	0.538078927	0.007373874	0.076074897	0.023447022
2019-08-14T08:40:00	0.1981	13.037	11.8	0.459405341	0.542430973	0.007468507	0.077051214	0.023747932
2019-08-14T08:45:00	0.1971	13.167	11.6	0.456023289	0.537867120	0.007369279	0.076027491	0.023432411
2019-08-14T08:50:00	0.1981	13.310	10.5	0.459248384	0.542218970	0.007463888	0.077003555	0.023733244
2019-08-14T08:55:00	0.1977	13.397	9.5	0.457953117	0.540470186	0.007425820	0.076610812	0.023612196
2019-08-14T09:00:00	0.1978	13.439	8.7	0.458396151	0.541068192	0.007438830	0.076745035	0.023653565
2019-08-14T09:05:00	0.2003	13.284	8.2	0.467171786	0.552945528	0.007698842	0.079427532	0.024480337
2019-08-14T09:10:00	0.1998	13.351	7.7	0.465185697	0.550252125	0.007639611	0.078816463	0.024291999
2019-08-14T09:15:00	0.1983	13.471	7.0	0.460072417	0.543332215	0.007488156	0.077253927	0.023810411
2019-08-14T09:20:00	0.1988	13.686	6.6	0.461904689	0.545809488	0.007542257	0.077812071	0.023982436
2019-08-14T09:25:00	0.1984	13.713	6.1	0.460610445	0.544059365	0.007504022	0.077417616	0.023860861
2019-08-14T09:30:00	0.1973	13.596	5.8	0.456533952	0.538555647	0.007384220	0.076181634	0.023479919
2019-08-14T09:35:00	0.2002	13.677	5.5	0.466701977	0.552308121	0.007684811	0.079282774	0.024435721
2019-08-14T09:40:00	0.1990	13.757	5.0	0.462632859	0.546794728	0.007563810	0.078034433	0.024050970
2019-08-14T09:45:00	0.1966	13.684	4.6	0.454036283	0.535190003	0.007311284	0.075429173	0.023248004
2019-08-14T09:50:00	0.1951	13.627	4.5	0.448905997	0.528292305	0.007162586	0.073895082	0.022775182
2019-08-14T09:55:00	0.1959	13.546	4.2	0.451789597	0.532166768	0.007245981	0.074755454	0.023040357
2019-08-14T10:00:00	0.1965	13.564	4.0	0.453974537	0.535106861	0.007309486	0.075410617	0.023242285
2019-08-14T10:05:00	0.1968	13.641	3.9	0.455015644	0.536509119	0.007339841	0.075723784	0.023338806
2019-08-14T10:10:00	0.1976	13.639	3.6	0.457795540	0.540257527	0.007421195	0.076563100	0.023597491
2019-08-14T10:15:00	0.1988	13.606	3.4	0.461962632	0.545887872	0.007543971	0.077829754	0.023987886
2019-08-14T10:20:00	0.1981	13.593	3.2	0.459527532	0.542596031	0.007472105	0.077088326	0.023759371
2019-08-14T10:25:00	0.1983	13.644	3.1	0.460219457	0.543530919	0.007492491	0.077298645	0.023824193
2019-08-14T10:30:00	0.1979	13.671	2.9	0.458826133	0.541648729	0.007451467	0.076875415	0.023693749
2019-08-14T10:35:00	0.2002	13.678	2.8	0.466808938	0.552453224	0.007688004	0.079315719	0.024445875
2019-08-14T10:40:00	0.1989	13.717	2.7	0.462294380	0.546336701	0.007553787	0.077931033	0.024019101
2019-08-14T10:45:00	0.1977	13.766	2.7	0.458121476	0.540697420	0.007430762	0.076661806	0.023627913
2019-08-14T10:50:00	0.1993	13.760	3.2	0.463676951	0.548208154	0.007594767	0.078353814	0.024149406
2019-08-14T10:55:00	0.1973	13.811	3.0	0.456724170	0.538812170	0.007389789	0.076239090	0.023497628
2019-08-14T11:00:00	0.1981	13.855	2.8	0.459502653	0.542562424	0.007471372	0.077080769	0.023757042
2019-08-14T11:05:00	0.1972	13.847	2.6	0.456370083	0.538334680	0.007379424	0.076132154	0.023464669
2019-08-14T11:10:00	0.1964	13.913	2.6	0.453582776	0.534579424	0.007298079	0.075292940	0.023206015
2019-08-14T11:15:00	0.1960	13.852	2.4	0.452186696	0.532700831	0.007257503	0.074874317	0.023076992
2019-08-14T11:20:00	0.1969	13.867	2.2	0.455316941	0.536915092	0.007348637	0.075814533	0.023366775
2019-08-14T11:25:00	0.1979	13.831	2.0	0.458791918	0.541602528	0.007450461	0.076865036	0.023690551
2019-08-14T11:30:00	0.1958	13.930	1.9	0.451480645	0.531751339	0.007237024	0.074663039	0.023011874
2019-08-14T11:35:00	0.1957	14.027	1.7	0.451129122	0.531278762	0.007226838	0.074557959	0.022979487
2019-08-14T11:40:00	0.1965	14.155	1.2	0.453912236	0.535022977	0.007307671	0.075391897	0.023236515
2019-08-14T11:45:00	0.1957	14.157	1.3	0.451122887	0.531270380	0.007226658	0.074556095	0.022978913
2019-08-14T11:50:00	0.1952	14.112	1.4	0.449377195	0.528924968	0.007176181	0.074035338	0.022818410
2019-08-14T11:55:00	0.1932	14.154	1.2	0.442394692	0.519567656	0.006976014	0.071970252	0.022181931
2019-08-14T12:00:00	0.1937	14.251	1.2	0.444137779	0.521899991	0.007025724	0.072483098	0.022339995
2019-08-14T12:05:00	0.1951	14.312	1.1	0.449019212	0.528444300	0.007165852	0.073928770	0.022785565
2019-08-14T12:10:00	0.1949	14.274	1.0	0.448318734	0.527504049	0.007145660	0.073720460	0.022721362
2019-08-14T12:15:00	0.1938	14.234	0.8	0.444477540	0.522354887	0.007035433	0.072583269	0.022370868
2019-08-14T12:20:00	0.1943	14.212	0.6	0.446219542	0.524688622	0.007085318	0.073097919	0.022529489
2019-08-14T12:25:00	0.1944	14.244	0.5	0.446565337	0.525152161	0.007095241	0.073200291	0.022561041
2019-08-14T12:30:00	0.1949	14.321	0.5	0.448306253	0.527487300	0.007145301	0.073716751	0.022720218
2019-08-14T12:35:00	0.1942	14.334	0.4	0.445861222	0.524208391	0.007075043	0.072991913	0.022496817
2019-08-14T12:40:00	0.1937	14.328	0.3	0.444112785	0.521866532	0.007025010	0.072475732	0.022337724
2019-08-14T12:45:00	0.1964	14.317	0.3	0.453523584	0.534499743	0.007296357	0.075275167	0.023200538
2019-08-14T12:50:00	0.1958	14.298	0.2	0.451430768	0.531684280	0.007235578	0.074648125	0.023007277
2019-08-14T12:55:00	0.1941	14.269	0.1	0.445499741	0.523724025	0.007064685	0.072885048	0.022463880
2019-08-14T13:00:00	0.1946	14.288	0.0	0.447241212	0.526058447	0.007114655	0.073400585	0.022622773
2019-08-14T13:05:00	0.1949	14.339	0.0	0.448284411	0.527457988	0.007144672	0.073710260	0.022718218
2019-08-14T13:10:00	0.1968	14.353	0.0	0.454900424	0.536353888	0.007336478	0.075689094	0.023328114
2019-08-14T13:15:00	0.1967	14.380	0.0	0.454549259	0.535880844	0.007326235	0.075583416	0.023295543
2019-08-14T13:20:00	0.1981	14.374	0.0	0.459415576	0.542444799	0.007468809	0.077054322	0.023748890
2019-08-14T13:25:00	0.2002	14.331	0.4	0.466703430	0.552310093	0.007684854	0.079283221	0.024435859
2019-08-14T13:30:00	0.2024	14.285	0.3	0.474321615	0.562667584	0.007913935	0.081646609	0.025164278
2019-08-14T13:35:00	0.1996	14.222	0.2	0.464615697	0.549479707	0.007622654	0.078641518	0.024238080
2019-08-14T13:40:00	0.2002	14.158	0.2	0.466694120	0.552297464	0.007684576	0.079280354	0.024434975
2019-08-14T13:45:00	0.2008	14.108	0.5	0.468771263	0.555116908	0.007746706	0.079921340	0.024632533
2019-08-14T13:50:00	0.1988	14.050	0.6	0.461829004	0.545707107	0.007540018	0.077788977	0.023975318
2019-08-14T13:55:00	0.1989	14.026	0.4	0.462173194	0.546172736	0.007550201	0.077894028	0.024007696
2019-08-14T14:00:00	0.1985	14.053	0.3	0.460780679	0.544289486	0.007509046	0.077469442	0.023876835
2019-08-14T14:05:00	0.1995	14.092	0.1	0.464250019	0.548984304	0.007611785	0.078529384	0.024203519
2019-08-14T14:10:00	0.1993	14.105	0.0	0.463552709	0.548039918	0.007591080	0.078315776	0.024137683
2019-08-14T14:15:00	0.1985	14.100	0.0	0.460771353	0.544276878	0.007508771	0.077466603	0.023875959
2019-08-14T14:20:00	0.1971	14.105	0.0	0.455900773	0.537701964	0.007365696	0.075990532	0.023421020
2019-08-14T14:25:00	0.1972	14.118	0.0	0.456245571	0.538166798	0.007375780	0.076094568	0.023453085
2019-08-14T14:30:00	0.1969	14.156	0.0	0.455198617	0.536755651	0.007345182	0.075778888	0.023355789
2019-08-14T14:35:00	0.1968	14.172	0.0	0.454847483	0.536282567	0.007334934	0.075673158	0.023323202
2019-08-14T14:40:00	0.1987	14.187	0.0	0.461450590	0.545195288	0.007528831	0.077673560	0.023939745
2019-08-14T14:45:00	0.1963	14.201	0.8	0.453100613	0.533930442	0.007284053	0.075148231	0.023161415
2019-08-14T14:50:00	0.1960	14.228	0.6	0.452052678	0.532520574	0.007253613	0.074834191	0.023064624
2019-08-14T14:55:00	0.1967	14.259	0.6	0.454486970	0.535796946	0.007324419	0.075564678	0.023289768
2019-08-14T15:00:00	0.1955	14.485	0.4	0.450304352	0.530170344	0.007202968	0.074311696	0.022903586
2019-08-14T15:05:00	0.1945	14.564	0.4	0.446814326	0.525485991	0.007102390	0.073274047	0.022583773
2019-08-14T15:10:00	0.1945	14.476	0.2	0.446811204	0.525481805	0.007102300	0.073273122	0.022583488
2019-08-14T15:15:00	0.1972	14.376	0.1	0.456214442	0.538124828	0.007374870	0.076085172	0.023450189
2019-08-14T15:20:00	0.1951	14.297	0.0	0.448897547	0.528280960	0.007162343	0.073892568	0.022774407
2019-08-14T15:25:00	0.1952	14.283	0.0	0.449243064	0.528744857	0.007172310	0.073995400	0.022806101
2019-08-14T15:30:00	0.1956	14.242	0.0	0.450634134	0.530613478	0.007212508	0.074410116	0.022933920
2019-08-14T15:35:00	0.1966	14.215	0.0	0.454113958	0.535294597	0.007313547	0.075452518	0.023255199
2019-08-14T15:40:00	0.1953	14.201	0.0	0.449582309	0.529200422	0.007182103	0.074096433	0.022837240
2019-08-14T15:45:00	0.1941	14.198	0.0	0.445393562	0.523581771	0.007061643	0.072853673	0.022454210
2019-08-14T15:50:00	0.1962	14.195	0.0	0.452711867	0.533407331	0.007272754	0.075031658	0.023125486
2019-08-14T15:55:00	0.1946	14.227	0.0	0.447131967	0.525911935	0.007111515	0.073368192	0.022612789
2019-08-14T16:00:00	0.1958	14.259	0.0	0.451312307	0.531525018	0.007232145	0.074612709	0.022996361
2019-08-14T16:05:00	0.1942	14.286	0.0	0.445683787	0.523970624	0.007069958	0.072939449	0.022480646
2019-08-14T16:10:00	0.1959	14.278	0.0	0.451910409	0.532329235	0.007249486	0.074791606	0.023051499
2019-08-14T16:15:00	0.1949	14.270	0.0	0.448375806	0.527580643	0.007147304	0.073737421	0.022726589
2019-08-14T16:20:00	0.1947	14.262	0.0	0.447628934	0.526578509	0.007125804	0.073515606	0.022658224
2019-08-14T16:25:00	0.1936	14.228	0.0	0.443740634	0.521368383	0.007014383	0.072366095	0.022303933
2019-08-14T16:30:00	0.1962	14.184	0.0	0.452758056	0.533469479	0.007274096	0.075045504	0.023129753
2019-08-14T16:35:00	0.1952	14.139	0.0	0.449224348	0.528719726	0.007171770	0.073989828	0.022804384
2019-08-14T16:40:00	0.1942	14.092	0.0	0.445686910	0.523974808	0.007070047	0.072940372	0.022480931
2019-08-14T16:45:00	0.1964	14.064	0.0	0.453654783	0.534676360	0.007300175	0.075314562	0.023212680
2019-08-14T16:50:00	0.1963	14.024	0.0	0.453257306	0.534141328	0.007288610	0.075195243	0.023175904
2019-08-14T16:55:00	0.1960	13.988	0.0	0.452163222	0.532669258	0.007256821	0.074867288	0.023074825
2019-08-14T17:00:00	0.1959	13.969	0.0	0.451765569	0.532134455	0.007245284	0.074748264	0.023038141
2019-08-14T17:05:00	0.1952	13.940	0.0	0.449276825	0.528790189	0.007173284	0.074005451	0.022809199
2019-08-14T17:10:00	0.1955	13.893	0.0	0.450273168	0.530128446	0.007202067	0.074302393	0.022900719
2019-08-14T17:15:00	0.1964	13.846	0.0	0.453359016	0.534278225	0.007291568	0.075225767	0.023185312
2019-08-14T17:20:00	0.1964	13.813	0.0	0.453657898	0.534680554	0.007300266	0.075315498	0.023212968
2019-08-14T17:25:00	0.1964	13.774	0.0	0.453608606	0.534614195	0.007298831	0.075300696	0.023208406
2019-08-14T17:30:00	0.1962	13.729	0.0	0.452862898	0.533610550	0.007277142	0.075076937	0.023139441
2019-08-14T17:35:00	0.1958	13.677	0.0	0.451420311	0.531670221	0.007235275	0.074644998	0.023006313
2019-08-14T17:40:00	0.1958	13.614	0.0	0.451370985	0.531603906	0.007233846	0.074630251	0.023001768
2019-08-14T17:45:00	0.1969	13.541	0.0	0.455151909	0.536692716	0.007343818	0.075764819	0.023351453
2019-08-14T17:50:00	0.1969	13.456	0.0	0.455102638	0.536626329	0.007342380	0.075749980	0.023346880
2019-08-14T17:55:00	0.1962	13.392	0.0	0.452964620	0.533747432	0.007280099	0.075107441	0.023148843
2019-08-14T18:00:00	0.1971	13.342	0.0	0.456047996	0.537900429	0.007370001	0.076034945	0.023434709
2019-08-14T18:05:00	0.1965	13.299	0.0	0.453910580	0.535020747	0.007307623	0.075391400	0.023236362
2019-08-14T18:10:00	0.1966	13.216	0.0	0.454209413	0.535423139	0.007316329	0.075481213	0.023264043
2019-08-14T18:15:00	0.1992	13.116	0.0	0.463198790	0.547560742	0.007580582	0.078207468	0.024104301
2019-08-14T18:20:00	0.1997	13.052	0.0	0.464885086	0.549844730	0.007630666	0.078724176	0.024263555
2019-08-14T18:25:00	0.1988	12.947	0.0	0.461711460	0.545548112	0.007536542	0.077753116	0.023964266
2019-08-14T18:30:00	0.1990	12.864	0.0	0.462704122	0.546891171	0.007565921	0.078056212	0.024057683
2019-08-14T18:35:00	0.2002	12.786	0.0	0.466819150	0.552467079	0.007688309	0.079318865	0.024446845
2019-08-14T18:40:00	0.2016	12.672	0.0	0.471621850	0.558991777	0.007832373	0.080805144	0.024904930
2019-08-14T18:45:00	0.2005	12.621	0.0	0.467761224	0.553745487	0.007716464	0.079609334	0.024536370
2019-08-14T18:50:00	0.2021	12.569	0.0	0.473254937	0.561214579	0.007881660	0.081313632	0.025061651
2019-08-14T18:55:00	0.2010	12.460	0.0	0.469396178	0.555965817	0.007765446	0.080114680	0.024692122
2019-08-14T19:00:00	0.2025	12.366	0.0	0.474541243	0.562966870	0.007920589	0.081715252	0.025185434
2019-08-14T19:05:00	0.2033	12.309	0.0	0.477604950	0.567145756	0.008013690	0.082675763	0.025481473
2019-08-14T19:10:00	0.2038	12.227	0.0	0.479284070	0.569439243	0.008064944	0.083204542	0.025644448
2019-08-14T19:15:00	0.2019	12.136	0.0	0.472663713	0.560409617	0.007863799	0.081129363	0.025004858
2019-08-14T19:20:00	0.2029	12.033	0.0	0.476074991	0.565057962	0.007967130	0.082195408	0.025333423
2019-08-14T19:25:00	0.2031	11.941	0.0	0.476717669	0.565934738	0.007986672	0.082397019	0.025395561
2019-08-14T19:30:00	0.2027	11.864	0.0	0.475285263	0.563981024	0.007943149	0.081948002	0.025257170
2019-08-14T19:35:00	0.2036	11.810	0.0	0.478348296	0.568160806	0.008036360	0.082909648	0.025553559
2019-08-14T19:40:00	0.2038	11.727	0.0	0.479336080	0.569510319	0.008066534	0.083220947	0.025649504
2019-08-14T19:45:00	0.2048	11.619	0.0	0.482740642	0.574167606	0.008170963	0.084298318	0.025981560
2019-08-14T19:50:00	0.2035	11.537	0.0	0.478201496	0.567960313	0.008031881	0.082863433	0.025539315
2019-08-14T19:55:00	0.2056	11.479	0.0	0.485403237	0.577816364	0.008253097	0.085145675	0.026242724
2019-08-14T20:00:00	0.2056	11.444	0.0	0.485354405	0.577749396	0.008251587	0.085130097	0.026237923
2019-08-14T20:05:00	0.2057	11.394	0.0	0.485650467	0.578155451	0.008260744	0.085224568	0.026267040
2019-08-14T20:10:00	0.2051	11.326	0.0	0.483531721	0.575251091	0.008195323	0.084549636	0.026059019
2019-08-14T20:15:00	0.2061	11.269	0.0	0.487276805	0.580387255	0.008311135	0.085744447	0.026427271
2019-08-14T20:20:00	0.2061	11.191	0.0	0.487228001	0.580320251	0.008309621	0.085728824	0.026422456
2019-08-14T20:25:00	0.2064	11.206	0.0	0.488213201	0.581673221	0.008340218	0.086044489	0.026519747
2019-08-14T20:30:00	0.2066	11.118	0.0	0.488853583	0.582553069	0.008360136	0.086249981	0.026583082
2019-08-14T20:35:00	0.2050	11.075	0.0	0.483287424	0.574916441	0.008187796	0.084471986	0.026035086
2019-08-14T20:40:00	0.2046	11.042	0.0	0.481857795	0.572959023	0.008143819	0.084018283	0.025895251
2019-08-14T20:45:00	0.2077	11.008	0.0	0.492495350	0.587562899	0.008473856	0.087423214	0.026944683
2019-08-14T20:50:00	0.2066	10.927	0.0	0.488658453	0.582284936	0.008354064	0.086187340	0.026563775
2019-08-14T20:55:00	0.2069	10.849	0.0	0.489987692	0.584112078	0.008395469	0.086614502	0.026695431
2019-08-14T21:00:00	0.2078	10.775	0.0	0.493037485	0.588309600	0.008490851	0.087598541	0.026998721
2019-08-14T21:05:00	0.2092	10.741	0.0	0.497803211	0.594883751	0.008640971	0.089147304	0.027476065
2019-08-14T21:10:00	0.2060	10.775	0.0	0.486739920	0.579650261	0.008294483	0.085572652	0.026374322
2019-08-14T21:15:00	0.2068	10.735	0.0	0.489448154	0.583370270	0.008378650	0.086440991	0.026641953
2019-08-14T21:20:00	0.2081	10.721	0.0	0.493874879	0.589463437	0.008517134	0.087869700	0.027082295
2019-08-14T21:25:00	0.2065	10.675	0.0	0.488316948	0.581815740	0.008343443	0.086077764	0.026530003
2019-08-14T21:30:00	0.2063	10.696	0.0	0.487923530	0.581275337	0.008331216	0.085951617	0.026491123
2019-08-14T21:35:00	0.2047	10.804	0.0	0.482355845	0.573640757	0.008159127	0.084176205	0.025943924
2019-08-14T21:40:00	0.2049	10.864	0.0	0.482997332	0.574519122	0.008178863	0.084379825	0.026006682
2019-08-14T21:45:00	0.2034	10.860	0.0	0.477767242	0.567367330	0.008018637	0.082726798	0.025497203
2019-08-14T21:50:00	0.2043	10.851	0.0	0.480828031	0.571550102	0.008112215	0.083692229	0.025794758
2019-08-14T21:55:00	0.2036	10.757	0.0	0.478360667	0.568177701	0.008036738	0.082913543	0.025554759
2019-08-14T22:00:00	0.2029	10.714	0.0	0.475891502	0.564807698	0.007961555	0.082137892	0.025315696
2019-08-14T22:05:00	0.2050	10.653	0.0	0.483434004	0.575117228	0.008192312	0.084518572	0.026049445
2019-08-14T22:10:00	0.2045	10.656	0.0	0.481649904	0.572674519	0.008137434	0.083952408	0.025874947
2019-08-14T22:15:00	0.2058	10.576	0.0	0.486077542	0.578741315	0.008273962	0.085360936	0.026309070
2019-08-14T22:20:00	0.2061	10.559	0.0	0.487053823	0.580081134	0.008304217	0.085673075	0.026405274
2019-08-14T22:25:00	0.2060	10.572	0.0	0.486651004	0.579528225	0.008291727	0.085544217	0.026365558
2019-08-14T22:30:00	0.2062	10.483	0.0	0.487282427	0.580394974	0.008311309	0.085746247	0.026427826
2019-08-14T22:35:00	0.2073	10.438	0.0	0.491358451	0.585997772	0.008438273	0.087056105	0.026831537
2019-08-14T22:40:00	0.2068	10.352	0.0	0.489578511	0.583549476	0.008382712	0.086482897	0.026654869
2019-08-14T22:45:00	0.2063	10.363	0.0	0.487797638	0.581102436	0.008327305	0.085911270	0.026478688
2019-08-14T22:50:00	0.2079	10.334	0.0	0.493249747	0.588602020	0.008497509	0.087667235	0.027019893
2019-08-14T22:55:00	0.2094	10.319	0.0	0.498349561	0.595638586	0.008658265	0.089325719	0.027531054
2019-08-14T23:00:00	0.2102	10.287	0.0	0.501039361	0.599358304	0.008743656	0.090206688	0.027802577
2019-08-14T23:05:00	0.2070	10.287	0.0	0.490321774	0.584571521	0.008405891	0.086722027	0.026728571
2019-08-14T23:10:00	0.2095	10.270	0.0	0.498863099	0.596348308	0.008674535	0.089493582	0.027582791
2019-08-14T23:15:00	0.2088	10.227	0.0	0.496399573	0.592945588	0.008596620	0.088689748	0.027335042
2019-08-14T23:20:00	0.2078	10.242	0.0	0.492901998	0.588122968	0.008486602	0.087554708	0.026985211
2019-08-14T23:25:00	0.2083	10.264	0.0	0.494564337	0.590413854	0.008538804	0.088093267	0.027151200
2019-08-14T23:30:00	0.2048	10.344	0.0	0.482790958	0.574236505	0.008172511	0.084314291	0.025986483
2019-08-14T23:35:00	0.2081	10.305	0.0	0.494104467	0.589779882	0.008524347	0.087944116	0.027105231
2019-08-14T23:40:00	0.2066	10.233	0.0	0.488882227	0.582592432	0.008361027	0.086259178	0.026585917
2019-08-14T23:45:00	0.2084	10.164	0.0	0.495020522	0.591042915	0.008553157	0.088241347	0.027196840
2019-08-14T23:50:00	0.2074	10.191	0.0	0.491521529	0.586222212	0.008443372	0.087108716	0.026847752
2019-08-14T23:55:00	0.2085	10.266	0.0	0.495248591	0.591357477	0.008560338	0.088315426	0.027219672
2019-08-15T00:00:00	0.2084	10.202	0.0	0.495190670	0.591277585	0.008558514	0.088296610	0.027213873
2019-08-15T00:05:00	0.2079	10.125	0.0	0.493412734	0.588826583	0.008502624	0.087720000	0.027036156
2019-08-15T00:10:00	0.2090	10.218	0.0	0.497137728	0.593964645	0.008619930	0.088930225	0.027409159
2019-08-15T00:15:00	0.2101	10.212	0.0	0.500858655	0.599108224	0.008737906	0.090147367	0.027784294
2019-08-15T00:20:00	0.2079	10.224	0.0	0.493238873	0.588587039	0.008497168	0.087663715	0.027018808
2019-08-15T00:25:00	0.2108	10.111	0.0	0.503145606	0.602275090	0.008810813	0.090899537	0.028016120
2019-08-15T00:30:00	0.2099	9.953	0.0	0.500341800	0.598393090	0.008721471	0.089977807	0.027732034
2019-08-15T00:35:00	0.2101	9.962	0.0	0.500970688	0.599263265	0.008741471	0.090184142	0.027795628
2019-08-15T00:40:00	0.2083	10.089	0.0	0.494727262	0.590638502	0.008543929	0.088146139	0.027167496
2019-08-15T00:45:00	0.2088	10.153	0.0	0.496388710	0.592930594	0.008596278	0.088686211	0.027333952
2019-08-15T00:50:00	0.2097	10.189	0.0	0.499423557	0.597123115	0.008692310	0.089676960	0.027639310
2019-08-15T00:55:00	0.2085	10.158	0.0	0.495241346	0.591347483	0.008560110	0.088313073	0.027218947
2019-08-15T01:00:00	0.2086	10.088	0.0	0.495871176	0.592216380	0.008579954	0.088517805	0.027282047
2019-08-15T01:05:00	0.2077	9.895	0.0	0.492717235	0.587868481	0.008480810	0.087494951	0.026966794
2019-08-15T01:10:00	0.2091	9.899	0.0	0.497474184	0.594429283	0.008630565	0.089039943	0.027442975
2019-08-15T01:15:00	0.2083	9.946	0.0	0.494665708	0.590553627	0.008541992	0.088126162	0.027161339
2019-08-15T01:20:00	0.2087	9.896	0.0	0.495983374	0.592371198	0.008583492	0.088554301	0.027293296
2019-08-15T01:25:00	0.2086	9.915	0.0	0.495581612	0.591816865	0.008570828	0.088423650	0.027253028
2019-08-15T01:30:00	0.2067	9.889	0.0	0.489328288	0.583205500	0.008374916	0.086402466	0.026630079
2019-08-15T01:35:00	0.2084	9.892	0.0	0.495121879	0.591182706	0.008556348	0.088274265	0.027206986
2019-08-15T01:40:00	0.2078	9.925	0.0	0.492999794	0.588257680	0.008489669	0.087586346	0.026994963
2019-08-15T01:45:00	0.2083	9.940	0.0	0.494662085	0.590548631	0.008541879	0.088124986	0.027160977
2019-08-15T01:50:00	0.2061	9.872	0.0	0.487028404	0.580046240	0.008303429	0.085664941	0.026402767
2019-08-15T01:55:00	0.2074	9.816	0.0	0.491449037	0.586122442	0.008441105	0.087085327	0.026840544
2019-08-15T02:00:00	0.2070	9.853	0.0	0.490358012	0.584621363	0.008407022	0.086733694	0.026732167
2019-08-15T02:05:00	0.2061	9.867	0.0	0.487198952	0.580280370	0.008308719	0.085719525	0.026419590
2019-08-15T02:10:00	0.2081	9.825	0.0	0.494028407	0.589675042	0.008521957	0.087919459	0.027097631
2019-08-15T02:15:00	0.2070	9.820	0.0	0.490183995	0.584382030	0.008401592	0.086677674	0.026714901
2019-08-15T02:20:00	0.2052	9.881	0.0	0.483920724	0.575784063	0.008207315	0.084673355	0.026097150
2019-08-15T02:25:00	0.2043	9.896	0.0	0.480755663	0.571451120	0.008109997	0.083669339	0.025787703
2019-08-15T02:30:00	0.2055	9.844	0.0	0.485184468	0.577516354	0.008246333	0.085075895	0.026221217
2019-08-15T02:35:00	0.2055	9.852	0.0	0.485126374	0.577436694	0.008244537	0.085057370	0.026215507
2019-08-15T02:40:00	0.2054	9.851	0.0	0.484723327	0.576884093	0.008232084	0.084928898	0.026175911
2019-08-15T02:45:00	0.2045	9.892	0.1	0.481559016	0.572550147	0.008134643	0.083923616	0.025866074
2019-08-15T02:50:00	0.2040	9.857	0.3	0.479773928	0.570108757	0.008079927	0.083359120	0.025692090
2019-08-15T02:55:00	0.2037	9.887	0.3	0.478679142	0.568612722	0.008046460	0.083013850	0.025585675
2019-08-15T03:00:00	0.2044	9.869	0.2	0.481384547	0.572311421	0.008129288	0.083868361	0.025849043
2019-08-15T03:05:00	0.2045	9.898	0.3	0.481671687	0.572704328	0.008138103	0.083959309	0.025877074
2019-08-15T03:10:00	0.2024	9.971	0.4	0.474354732	0.562712711	0.007914938	0.081656958	0.025167467
2019-08-15T03:15:00	0.2044	9.974	0.4	0.481210069	0.572072706	0.008123933	0.083813120	0.025832018
2019-08-15T03:20:00	0.2036	9.969	0.5	0.478388108	0.568215181	0.008037575	0.082922183	0.025557422
2019-08-15T03:25:00	0.2051	9.943	0.6	0.483510263	0.575221695	0.008194662	0.084542814	0.026056916
2019-08-15T03:30:00	0.2038	9.956	0.6	0.479308412	0.569472508	0.008065688	0.083212220	0.025646814
2019-08-15T03:35:00	0.2042	9.962	0.6	0.480632047	0.571282053	0.008106207	0.083630246	0.025775654
2019-08-15T03:40:00	0.2028	9.959	0.6	0.475734919	0.564594151	0.007956799	0.082088825	0.025300573
2019-08-15T03:45:00	0.2034	9.923	0.7	0.477751385	0.567345680	0.008018153	0.082721811	0.025495666
2019-08-15T03:50:00	0.2040	9.920	0.8	0.479766650	0.570098809	0.008079705	0.083356822	0.025691382
2019-08-15T03:55:00	0.2047	9.858	0.8	0.482125970	0.573326078	0.008152060	0.084103298	0.025921453
2019-08-15T04:00:00	0.2033	9.904	0.9	0.477576719	0.567107216	0.008012830	0.082666887	0.025478737
2019-08-15T04:05:00	0.2053	9.971	1.0	0.484181310	0.576141161	0.008215353	0.084756282	0.026122709
2019-08-15T04:10:00	0.2057	9.962	1.1	0.485603788	0.578091425	0.008259299	0.085209670	0.026262448
2019-08-15T04:15:00	0.2065	9.972	1.2	0.488404337	0.581935796	0.008346160	0.086105797	0.026538643
2019-08-15T04:20:00	0.2071	10.008	1.2	0.490513883	0.584835759	0.008411887	0.086783887	0.026747637
2019-08-15T04:25:00	0.2048	10.061	1.3	0.482626521	0.574011344	0.008167452	0.084262093	0.025970395
2019-08-15T04:30:00	0.2056	10.104	1.4	0.485429527	0.577852420	0.008253910	0.085154063	0.026245309
2019-08-15T04:35:00	0.2048	10.104	1.4	0.482711907	0.574128259	0.008170079	0.084289196	0.025978749
2019-08-15T04:40:00	0.2036	10.146	1.5	0.478610016	0.568518293	0.008044350	0.082992073	0.025578963
2019-08-15T04:45:00	0.2052	10.094	1.6	0.483832632	0.575663359	0.008204598	0.084645330	0.026088513
2019-08-15T04:50:00	0.2044	10.084	1.7	0.481113732	0.571940913	0.008120978	0.083782628	0.025822620
2019-08-15T04:55:00	0.2034	10.130	0.8	0.477701347	0.567277363	0.008016628	0.082706075	0.025490815
2019-08-15T05:00:00	0.2030	10.127	1.3	0.476361093	0.565448238	0.007975826	0.082285129	0.025361076
2019-08-15T05:05:00	0.2030	10.144	1.7	0.476403865	0.565506590	0.007977127	0.082298547	0.025365211
2019-08-15T05:10:00	0.2041	10.145	2.1	0.480248458	0.570757504	0.008094455	0.083508996	0.025738284
2019-08-15T05:15:00	0.2035	10.169	2.4	0.478218016	0.567982874	0.008032385	0.082868633	0.025540918
2019-08-15T05:20:00	0.2035	10.203	2.5	0.478260765	0.568041257	0.008033689	0.082882090	0.025545065
2019-08-15T05:25:00	0.2028	10.262	2.5	0.475883276	0.564796478	0.007961305	0.082135314	0.025314901
2019-08-15T05:30:00	0.2024	10.240	2.5	0.474196274	0.562496801	0.007910139	0.081607448	0.025152208
2019-08-15T05:35:00	0.2014	10.280	2.5	0.470776900	0.557842544	0.007806932	0.080542674	0.024824034
2019-08-15T05:40:00	0.2007	10.321	2.4	0.468394139	0.554604758	0.007735408	0.079804774	0.024596606
2019-08-15T05:45:00	0.2007	10.364	2.3	0.468437012	0.554662976	0.007736692	0.079818021	0.024600689
2019-08-15T05:50:00	0.2000	10.418	2.3	0.466052596	0.551427372	0.007665437	0.079082900	0.024374118
2019-08-15T05:55:00	0.2014	10.427	2.4	0.470948269	0.558075580	0.007812088	0.080595873	0.024840431
2019-08-15T06:00:00	0.2027	10.449	2.3	0.475490959	0.564261481	0.007949392	0.082012407	0.025277020
2019-08-15T06:05:00	0.2005	10.526	2.3	0.467915193	0.553954493	0.007721070	0.079656857	0.024551017
2019-08-15T06:10:00	0.2010	10.604	2.4	0.469344525	0.555895638	0.007763897	0.080098690	0.024687194
2019-08-15T06:15:00	0.2000	10.668	2.3	0.465920230	0.551247886	0.007661491	0.079042189	0.024361570
2019-08-15T06:20:00	0.2009	10.745	2.4	0.469083696	0.555541290	0.007756073	0.080017973	0.024662317
2019-08-15T06:25:00	0.1996	10.814	2.3	0.464618213	0.549483115	0.007622729	0.078642290	0.024238318
2019-08-15T06:30:00	0.2005	10.887	2.4	0.467782900	0.553774910	0.007717112	0.079616023	0.024538432
2019-08-15T06:35:00	0.1998	10.953	2.4	0.465398022	0.550539917	0.007645933	0.078881679	0.024312100
2019-08-15T06:40:00	0.2010	11.030	2.3	0.469601684	0.556245052	0.007771614	0.080178311	0.024711734
2019-08-15T06:45:00	0.1985	11.113	2.3	0.460970617	0.544546270	0.007514653	0.077527289	0.023894663
2019-08-15T06:50:00	0.1974	11.204	2.4	0.456842203	0.538971362	0.007393246	0.076274754	0.023508620
2019-08-15T06:55:00	0.1981	11.307	2.4	0.459319128	0.542314522	0.007465970	0.077025034	0.023739864
2019-08-15T07:00:00	0.1990	11.410	2.4	0.462488795	0.546599771	0.007559543	0.077990416	0.024037404
2019-08-15T07:05:00	0.1991	11.520	2.4	0.462878969	0.547127818	0.007571102	0.078109659	0.024074155
2019-08-15T07:10:00	0.1990	11.648	2.3	0.462574692	0.546716010	0.007562087	0.078016659	0.024045492
2019-08-15T07:15:00	0.1993	11.753	2.2	0.463659180	0.548184090	0.007594240	0.078348373	0.024147729
2019-08-15T07:20:00	0.1983	11.871	2.3	0.460229100	0.543543950	0.007492775	0.077301578	0.023825097
2019-08-15T07:25:00	0.1986	11.986	2.3	0.461314344	0.545011038	0.007524805	0.077632025	0.023926944
2019-08-15T07:30:00	0.1976	12.140	2.4	0.457534130	0.539904782	0.007413526	0.076483981	0.023573106
2019-08-15T07:35:00	0.1963	12.311	2.4	0.453053284	0.533866749	0.007282677	0.075134034	0.023157039
2019-08-15T07:40:00	0.1967	12.452	2.4	0.454488941	0.535799601	0.007324476	0.075565271	0.023289950
2019-08-15T07:45:00	0.1979	12.601	2.4	0.458706240	0.541486841	0.007447942	0.076839050	0.023682541
2019-08-15T07:50:00	0.1949	12.826	2.4	0.448304002	0.527484278	0.007145236	0.073716082	0.022720012
2019-08-15T07:55:00	0.1950	13.070	2.5	0.448695827	0.528010172	0.007156527	0.073832565	0.022755913
2019-08-15T08:00:00	0.1965	13.216	2.4	0.453964955	0.535093960	0.007309207	0.075407738	0.023241397
2019-08-15T08:05:00	0.1962	13.274	2.4	0.452963476	0.533745892	0.007280066	0.075107098	0.023148737
2019-08-15T08:10:00	0.1950	13.474	2.4	0.448476519	0.527715810	0.007150206	0.073767357	0.022735816
2019-08-15T08:15:00	0.1953	13.627	2.4	0.449565568	0.529177940	0.007181620	0.074091446	0.022835703
2019-08-15T08:20:00	0.1956	13.730	2.3	0.450654263	0.530640528	0.007213090	0.074416125	0.022935772
2019-08-15T08:25:00	0.1960	13.771	2.3	0.452090947	0.532572045	0.007254724	0.074845648	0.023068156
2019-08-15T08:30:00	0.1979	13.752	2.3	0.458745575	0.541539953	0.007449099	0.076850979	0.023686218
2019-08-15T08:35:00	0.1949	13.799	2.2	0.448343459	0.527537231	0.007146372	0.073727808	0.022723626
2019-08-15T08:40:00	0.1963	13.941	2.3	0.453264957	0.534151625	0.007288832	0.075197539	0.023176612
2019-08-15T08:45:00	0.1963	14.026	2.2	0.453308023	0.534209590	0.007290085	0.075210463	0.023180595
2019-08-15T08:50:00	0.1955	14.360	2.1	0.450215891	0.530051492	0.007200410	0.074285307	0.022895453
2019-08-15T08:55:00	0.1956	14.378	2.0	0.450607492	0.530577675	0.007211737	0.074402162	0.022931469
2019-08-15T09:00:00	0.1950	14.266	2.0	0.448559102	0.527826651	0.007152586	0.073791908	0.022743383
2019-08-15T09:05:00	0.1980	14.140	1.9	0.459046537	0.541946362	0.007457949	0.076942288	0.023714360
2019-08-15T09:10:00	0.1962	13.991	2.0	0.452826926	0.533562146	0.007276097	0.075066152	0.023136117
2019-08-15T09:15:00	0.1958	13.903	2.1	0.451476738	0.531746087	0.007236910	0.074661871	0.023011514
2019-08-15T09:20:00	0.1978	13.826	2.2	0.458480261	0.541181742	0.007441301	0.076770531	0.023661423
2019-08-15T09:25:00	0.1977	13.814	2.2	0.458175586	0.540770455	0.007432351	0.076678198	0.023632965
2019-08-15T09:30:00	0.1969	13.883	2.2	0.455087936	0.536606519	0.007341951	0.075745553	0.023345515
2019-08-15T09:35:00	0.1961	13.974	2.2	0.452345759	0.532914791	0.007262120	0.074921955	0.023091674
2019-08-15T09:40:00	0.1956	14.059	2.0	0.450646922	0.530630663	0.007212878	0.074413933	0.022935097
2019-08-15T09:45:00	0.1962	14.233	2.1	0.452780185	0.533499253	0.007274739	0.075052138	0.023131798
2019-08-15T09:50:00	0.1964	14.404	1.9	0.453519680	0.534494488	0.007296243	0.075273995	0.023200176
2019-08-15T09:55:00	0.1948	14.443	1.8	0.447987381	0.527059409	0.007136119	0.073622021	0.022691022
2019-08-15T10:00:00	0.1959	14.472	1.6	0.451864523	0.532267527	0.007248155	0.074777874	0.023047267
2019-08-15T10:05:00	0.1958	14.522	1.4	0.451460599	0.531724388	0.007236443	0.074657045	0.023010026
2019-08-15T10:10:00	0.1959	14.466	1.1	0.451753416	0.532118114	0.007244932	0.074744628	0.023037020
2019-08-15T10:15:00	0.1990	14.355	1.0	0.462479828	0.546587636	0.007559278	0.077987676	0.024036559
2019-08-15T10:20:00	0.1995	14.208	0.9	0.464160273	0.548862737	0.007609119	0.078501876	0.024195041
2019-08-15T10:25:00	0.2013	14.046	0.9	0.470346596	0.557257497	0.007793991	0.080409168	0.024782887
2019-08-15T10:30:00	0.2019	13.903	0.9	0.472715590	0.560480237	0.007865365	0.081145523	0.025009838
2019-08-15T10:35:00	0.2024	13.772	1.0	0.474390946	0.562762057	0.007916035	0.081668275	0.025170955
2019-08-15T10:40:00	0.2013	13.687	1.0	0.470527286	0.557503147	0.007799424	0.080465215	0.024800161
2019-08-15T10:45:00	0.2019	13.636	1.1	0.472549958	0.560254768	0.007860365	0.081093932	0.024993937
2019-08-15T10:50:00	0.2011	13.616	1.1	0.469723859	0.556411075	0.007775282	0.080216152	0.024723397
2019-08-15T10:55:00	0.2004	13.625	1.2	0.467242167	0.553041032	0.007700945	0.079449229	0.024487024
2019-08-15T11:00:00	0.2008	13.663	1.2	0.468920241	0.555319257	0.007751172	0.079967410	0.024646732
2019-08-15T11:05:00	0.2025	13.716	1.2	0.474751883	0.563253943	0.007926972	0.081781113	0.025205733
2019-08-15T11:10:00	0.2029	13.818	1.2	0.476080396	0.565065336	0.007967294	0.082197103	0.025333945
2019-08-15T11:15:00	0.2009	13.862	1.3	0.469101007	0.555564806	0.007756592	0.080023329	0.024663967
2019-08-15T11:20:00	0.2005	13.888	1.3	0.467659162	0.553606954	0.007713411	0.079577840	0.024526663
2019-08-15T11:25:00	0.2030	13.887	1.3	0.476260780	0.565311392	0.007972777	0.082253666	0.025351379
2019-08-15T11:30:00	0.2013	13.877	1.3	0.470667672	0.557694021	0.007803646	0.080508774	0.024813586
2019-08-15T11:35:00	0.2042	13.918	1.3	0.480643470	0.571297676	0.008106557	0.083633859	0.025776767
2019-08-15T11:40:00	0.2023	13.984	1.3	0.474019583	0.562256071	0.007904790	0.081552258	0.025135198
2019-08-15T11:45:00	0.2020	14.008	1.3	0.472926030	0.560766732	0.007871721	0.081211095	0.025030048
2019-08-15T11:50:00	0.2027	14.016	1.3	0.475293217	0.563991868	0.007943390	0.081950492	0.025257937
2019-08-15T11:55:00	0.2029	14.055	1.3	0.475929854	0.564860005	0.007962720	0.082149912	0.025319401
2019-08-15T12:00:00	0.2036	14.072	1.3	0.478640548	0.568560000	0.008045282	0.083001691	0.025581927
2019-08-15T12:05:00	0.2023	14.093	1.3	0.474089704	0.562351604	0.007906912	0.081574158	0.025141948
2019-08-15T12:10:00	0.2027	14.125	1.3	0.475418477	0.564162651	0.007947191	0.081989710	0.025270025
2019-08-15T12:15:00	0.2009	14.115	1.2	0.469130917	0.555605439	0.007757489	0.080032584	0.024666820
2019-08-15T12:20:00	0.2007	14.126	2.3	0.468382439	0.554588870	0.007735057	0.079801159	0.024595492
2019-08-15T12:25:00	0.2016	14.108	2.3	0.471445534	0.558751919	0.007827060	0.080750340	0.024888039
2019-08-15T12:30:00	0.1995	14.102	2.3	0.464109483	0.548793942	0.007607610	0.078486311	0.024190243
2019-08-15T12:35:00	0.2012	14.117	2.3	0.470295899	0.557188578	0.007792467	0.080393446	0.024778041
2019-08-15T12:40:00	0.1993	14.091	2.2	0.463651671	0.548173921	0.007594017	0.078346073	0.024147021
2019-08-15T12:45:00	0.1997	14.068	2.2	0.464984559	0.549979530	0.007633626	0.078754708	0.024272966
2019-08-15T12:50:00	0.2004	14.078	2.2	0.467357319	0.553197296	0.007704386	0.079484734	0.024497967
2019-08-15T12:55:00	0.2006	14.142	2.3	0.467995454	0.554063450	0.007723472	0.079681635	0.024558654
2019-08-15T13:00:00	0.1985	14.214	2.3	0.460651883	0.544115378	0.007505245	0.077430229	0.023864749
2019-08-15T13:05:00	0.1972	14.323	2.2	0.456424576	0.538408158	0.007381018	0.076148606	0.023469740
2019-08-15T13:10:00	0.1978	14.355	2.2	0.458455729	0.541148623	0.007440580	0.076763094	0.023659131
2019-08-15T13:15:00	0.1980	14.389	2.2	0.459095553	0.542012559	0.007459391	0.076957163	0.023718945
2019-08-15T13:20:00	0.1975	14.385	2.3	0.457301652	0.539591124	0.007406709	0.076413652	0.023551430
2019-08-15T13:25:00	0.1975	14.395	2.4	0.457246189	0.539516299	0.007405083	0.076396878	0.023546260
2019-08-15T13:30:00	0.1964	14.430	2.3	0.453362802	0.534283321	0.007291679	0.075226903	0.023185662
2019-08-15T13:35:00	0.1973	14.476	2.2	0.456787442	0.538897504	0.007391642	0.076258207	0.023503520
2019-08-15T13:40:00	0.1969	14.469	2.2	0.455340313	0.536946587	0.007349320	0.075821575	0.023368946
2019-08-15T13:45:00	0.1969	14.575	2.3	0.455284818	0.536871805	0.007347699	0.075804855	0.023363793
2019-08-15T13:50:00	0.1974	14.587	2.1	0.456968860	0.539142196	0.007396956	0.076313032	0.023520417
2019-08-15T13:55:00	0.1985	14.634	2.0	0.460737275	0.544230811	0.007507765	0.077456227	0.023872761
2019-08-15T14:00:00	0.1984	14.682	2.0	0.460334417	0.543686282	0.007495880	0.077333616	0.023834972
2019-08-15T14:05:00	0.1978	14.706	1.9	0.458541177	0.541263982	0.007443091	0.076788998	0.023667115
2019-08-15T14:10:00	0.1982	14.733	1.9	0.459876091	0.543066935	0.007482371	0.077194240	0.023792014
2019-08-15T14:15:00	0.1982	14.724	1.8	0.459820670	0.542992055	0.007480738	0.077177395	0.023786823
2019-08-15T14:20:00	0.1991	14.689	1.7	0.462891553	0.547144851	0.007571474	0.078113506	0.024075341
2019-08-15T14:25:00	0.1998	14.694	1.6	0.465265787	0.550360677	0.007641996	0.078841060	0.024299580
2019-08-15T14:30:00	0.1974	14.701	1.6	0.456872932	0.539012808	0.007394146	0.076284040	0.023511482
2019-08-15T14:35:00	0.1986	14.679	1.5	0.460988875	0.544570954	0.007515192	0.077532850	0.023896377
2019-08-15T14:40:00	0.1993	14.730	1.4	0.463711589	0.548255059	0.007595795	0.078364421	0.024152675
2019-08-15T14:45:00	0.1979	14.787	1.3	0.458792941	0.541603910	0.007450491	0.076865346	0.023690646
2019-08-15T14:50:00	0.1970	14.781	1.3	0.455607333	0.537306439	0.007357120	0.075902048	0.023393748
2019-08-15T14:55:00	0.1971	14.794	1.2	0.455899788	0.537700636	0.007365668	0.075990235	0.023420928
2019-08-15T15:00:00	0.1991	14.791	1.2	0.462795794	0.547015242	0.007568637	0.078084232	0.024066319
2019-08-15T15:05:00	0.1976	14.807	1.1	0.457528064	0.539896598	0.007413348	0.076482145	0.023572540
2019-08-15T15:10:00	0.1968	14.762	1.0	0.455037363	0.536538381	0.007340475	0.075730324	0.023340821
2019-08-15T15:15:00	0.1970	14.711	1.0	0.455677838	0.537401466	0.007359180	0.075923304	0.023400300
2019-08-15T15:20:00	0.1983	14.667	1.1	0.460142750	0.543427258	0.007490229	0.077275315	0.023817003
2019-08-15T15:25:00	0.1988	14.623	1.0	0.461824362	0.545700828	0.007539881	0.077787560	0.023974882
2019-08-15T15:30:00	0.1967	14.597	1.0	0.454467297	0.535770449	0.007323845	0.075558761	0.023287944
2019-08-15T15:35:00	0.1966	14.626	1.0	0.454063687	0.535226903	0.007312083	0.075437409	0.023250542
2019-08-15T15:40:00	0.1959	14.633	1.0	0.451918773	0.532340484	0.007249728	0.074794109	0.023052271
2019-08-15T15:45:00	0.1961	14.706	0.9	0.452559843	0.533202794	0.007268337	0.074986095	0.023111443
2019-08-15T15:50:00	0.1968	14.735	0.9	0.454941380	0.536409065	0.007337673	0.075701424	0.023331914
2019-08-15T15:55:00	0.1953	14.762	0.8	0.449661311	0.529306526	0.007184385	0.074119971	0.022844495
2019-08-15T16:00:00	0.1953	14.756	0.9	0.449605721	0.529231866	0.007182779	0.074103408	0.022839390
2019-08-15T16:05:00	0.1961	14.704	0.9	0.452353254	0.532924874	0.007262338	0.074924200	0.023092366
2019-08-15T16:10:00	0.1958	14.673	0.9	0.451268228	0.531465760	0.007230868	0.074599533	0.022992301
2019-08-15T16:15:00	0.1936	14.685	0.9	0.443903579	0.521586482	0.007019035	0.072414089	0.022318725
2019-08-15T16:20:00	0.1931	14.675	0.9	0.442117160	0.519196525	0.006968115	0.071888762	0.022156815
2019-08-15T16:25:00	0.1938	14.679	1.0	0.444521748	0.522414082	0.007036697	0.072596307	0.022374887
2019-08-15T16:30:00	0.1937	14.648	0.9	0.444132558	0.521893003	0.007025575	0.072481559	0.022339520
2019-08-15T16:35:00	0.1935	14.615	0.9	0.443394113	0.520904638	0.007004495	0.072264081	0.022272492
2019-08-15T16:40:00	0.1911	14.580	0.9	0.436325352	0.509661884	0.006780282	0.069950920	0.021559553
2019-08-15T16:45:00	0.1917	14.607	1.0	0.437926946	0.512399121	0.006833368	0.070498596	0.021728352
2019-08-15T16:50:00	0.1905	14.571	1.0	0.434628410	0.506769506	0.006724312	0.069373487	0.021381583
2019-08-15T16:55:00	0.1906	14.559	1.0	0.434869667	0.507180229	0.006732252	0.069455403	0.021406830
2019-08-15T17:00:00	0.1914	14.537	1.0	0.437289187	0.511308286	0.006812199	0.070280197	0.021661039
2019-08-15T17:05:00	0.1930	14.493	1.0	0.441756382	0.518714163	0.006957854	0.071782896	0.022124186
2019-08-15T17:10:00	0.1920	14.458	1.0	0.438858668	0.513994796	0.006864367	0.070818407	0.021826921
2019-08-15T17:15:00	0.1927	14.451	1.0	0.440729417	0.517205994	0.006926868	0.071463216	0.022025657
2019-08-15T17:20:00	0.1931	14.411	1.0	0.441985509	0.519020495	0.006964370	0.071850121	0.022144905
2019-08-15T17:25:00	0.1918	14.377	1.0	0.438221263	0.512902907	0.006843151	0.070599524	0.021759459
2019-08-15T17:30:00	0.1943	14.364	1.0	0.446095324	0.524522130	0.007081755	0.073061162	0.022518160
2019-08-15T17:35:00	0.1938	14.326	0.9	0.444310076	0.522130663	0.007030647	0.072533887	0.022355648
2019-08-15T17:40:00	0.1918	14.316	1.1	0.438127650	0.512742643	0.006840038	0.070567412	0.021749562
2019-08-15T17:45:00	0.1901	14.277	1.1	0.433739108	0.505256930	0.006695093	0.069072045	0.021288675
2019-08-15T17:50:00	0.1929	14.248	1.0	0.441395565	0.518231852	0.006947599	0.071677094	0.022091577
2019-08-15T17:55:00	0.1930	14.201	1.0	0.441704896	0.518645334	0.006956390	0.071767794	0.022119531
2019-08-15T18:00:00	0.1919	14.169	1.0	0.438546724	0.513460289	0.006853979	0.070711235	0.021793889
2019-08-15T18:05:00	0.1913	14.140	1.0	0.436883269	0.510614589	0.006798746	0.070141407	0.021618263
2019-08-15T18:10:00	0.1937	14.105	1.0	0.444029658	0.521755251	0.007022635	0.072451235	0.022330174
2019-08-15T18:15:00	0.1946	14.074	1.1	0.447130623	0.525910134	0.007111477	0.073367794	0.022612667
2019-08-15T18:20:00	0.1940	14.033	1.2	0.444996883	0.523050394	0.007050287	0.072736515	0.022418100
2019-08-15T18:25:00	0.1924	14.000	1.2	0.440021522	0.515989719	0.006903176	0.071218798	0.021950325
2019-08-15T18:30:00	0.1946	13.981	1.1	0.447359382	0.526216940	0.007118052	0.073435632	0.022633575
2019-08-15T18:35:00	0.1937	13.958	1.2	0.444178511	0.521954521	0.007026888	0.072495103	0.022343695
2019-08-15T18:40:00	0.1957	13.934	1.1	0.451114205	0.531258709	0.007226406	0.074553501	0.022978113
2019-08-15T18:45:00	0.1940	13.910	1.1	0.445145693	0.523249719	0.007054546	0.072780455	0.022431643
2019-08-15T18:50:00	0.1963	13.888	1.1	0.453124198	0.533962183	0.007284739	0.075155306	0.023163595
2019-08-15T18:55:00	0.1972	13.866	1.1	0.456216767	0.538127962	0.007374938	0.076085874	0.023450405
2019-08-15T19:00:00	0.1965	13.845	1.2	0.453740669	0.534791984	0.007302675	0.075340357	0.023220630
2019-08-15T19:05:00	0.1953	13.826	1.2	0.449520243	0.529117068	0.007180311	0.074077944	0.022831542
2019-08-15T19:10:00	0.1964	13.818	1.2	0.453660777	0.534684429	0.007300350	0.075316362	0.023213234
2019-08-15T19:15:00	0.1961	13.809	1.1	0.452576174	0.533224765	0.007268812	0.074990989	0.023112951
2019-08-15T19:20:00	0.1984	13.802	1.2	0.460537052	0.543960161	0.007501857	0.077395277	0.023853976
2019-08-15T19:25:00	0.1973	13.794	1.1	0.456673031	0.538743203	0.007388291	0.076223641	0.023492867
2019-08-15T19:30:00	0.1981	13.789	1.0	0.459414789	0.542443735	0.007468786	0.077054083	0.023748817
2019-08-15T19:35:00	0.1962	13.782	1.0	0.452764604	0.533478289	0.007274286	0.075047467	0.023130358
2019-08-15T19:40:00	0.1956	13.769	1.0	0.450634450	0.530613902	0.007212517	0.074410210	0.022933949
2019-08-15T19:45:00	0.1972	13.757	1.0	0.456165502	0.538058846	0.007373438	0.076070402	0.023445637
2019-08-15T19:50:00	0.1963	13.749	1.0	0.452992979	0.533785594	0.007280924	0.075115946	0.023151464
2019-08-15T19:55:00	0.1958	13.739	1.1	0.451559799	0.531857766	0.007239318	0.074686710	0.023019170
2019-08-15T20:00:00	0.1933	13.728	1.0	0.442798919	0.520108319	0.006987527	0.072089024	0.022218537
2019-08-15T20:05:00	0.1934	13.705	1.1	0.443108120	0.520521969	0.006996339	0.072179940	0.022246558
2019-08-15T20:10:00	0.1936	13.681	1.0	0.443766500	0.521403003	0.007015121	0.072373712	0.022306281
2019-08-15T20:15:00	0.1936	13.650	1.0	0.443726436	0.521349379	0.007013978	0.072361913	0.022302644
2019-08-15T20:20:00	0.1946	13.614	1.0	0.447176534	0.525971705	0.007112796	0.073381406	0.022616862
2019-08-15T20:25:00	0.1955	13.576	1.0	0.450274589	0.530130355	0.007202108	0.074302817	0.022900850
2019-08-15T20:30:00	0.1958	13.537	1.0	0.451279988	0.531481569	0.007231209	0.074603048	0.022993384
2019-08-15T20:35:00	0.1943	13.489	0.9	0.446009756	0.524407448	0.007079301	0.073035847	0.022510357
2019-08-15T20:40:00	0.1945	13.451	1.0	0.447016436	0.525757003	0.007108196	0.073333943	0.022602234
2019-08-15T20:45:00	0.1942	13.404	0.9	0.445929680	0.524300132	0.007077005	0.073012160	0.022503057
2019-08-15T20:50:00	0.1955	13.367	0.9	0.450423164	0.530329984	0.007206404	0.074347147	0.022914513
2019-08-15T20:55:00	0.1940	13.323	0.9	0.445151584	0.523257610	0.007054715	0.072782195	0.022432179
2019-08-15T21:00:00	0.1944	13.288	0.9	0.446507443	0.525074548	0.007093579	0.073183147	0.022555757
2019-08-15T21:05:00	0.1923	13.252	0.9	0.439567360	0.515210136	0.006888003	0.071062258	0.021902078
2019-08-15T21:10:00	0.1947	13.213	0.9	0.447473953	0.526370615	0.007121347	0.073469619	0.022644050
2019-08-15T21:15:00	0.1941	13.177	0.9	0.445340432	0.523510592	0.007060122	0.072837976	0.022449372
2019-08-15T21:20:00	0.1935	13.144	0.8	0.443554781	0.521119646	0.007009079	0.072311372	0.022287067
2019-08-15T21:25:00	0.1926	13.104	0.8	0.440529332	0.516862074	0.006920166	0.071394079	0.022004349
2019-08-15T21:30:00	0.1929	13.057	0.7	0.441378665	0.518209264	0.006947118	0.071672141	0.022090050
2019-08-15T21:35:00	0.1933	13.012	0.7	0.442736055	0.520024228	0.006985736	0.072070547	0.022212842
2019-08-15T21:40:00	0.1931	12.970	0.7	0.441997301	0.519036261	0.006964705	0.071853582	0.022145972
2019-08-15T21:45:00	0.1926	12.934	0.7	0.440404686	0.516647880	0.006915994	0.071351031	0.021991081
2019-08-15T21:50:00	0.1923	12.903	0.7	0.439558496	0.515194926	0.006887707	0.071059205	0.021901137
2019-08-15T21:55:00	0.1926	12.870	0.6	0.440342359	0.516540793	0.006913908	0.071329511	0.021984448
2019-08-15T22:00:00	0.1912	12.847	0.7	0.436504202	0.509967195	0.006786198	0.070011950	0.021578363
2019-08-15T22:05:00	0.1911	12.822	0.7	0.436434422	0.509848064	0.006783889	0.069988135	0.021571023
2019-08-15T22:10:00	0.1898	12.805	0.6	0.432821486	0.503698497	0.006665026	0.068761843	0.021193068
2019-08-15T22:15:00	0.1901	12.782	0.6	0.433569907	0.504969394	0.006689543	0.069014782	0.021271026
2019-08-15T22:20:00	0.1903	12.770	0.6	0.434045374	0.505777596	0.006705147	0.069175768	0.021320643
2019-08-15T22:25:00	0.1900	12.750	0.6	0.433430098	0.504731865	0.006684959	0.068967489	0.021256450
2019-08-15T22:30:00	0.1912	12.728	0.6	0.436630002	0.510182000	0.006790360	0.070054896	0.021591599
2019-08-15T22:35:00	0.1889	12.709	0.6	0.430287151	0.499406522	0.006582413	0.067909538	0.020930379
2019-08-15T22:40:00	0.1873	12.686	0.6	0.425838942	0.491916520	0.006438929	0.066429243	0.020474138
2019-08-15T22:45:00	0.1867	12.670	0.6	0.424398070	0.489502120	0.006392864	0.065954002	0.020327664
2019-08-15T22:50:00	0.1871	12.654	0.6	0.425424427	0.491221347	0.006425656	0.066292311	0.020431934
2019-08-15T22:55:00	0.1889	12.647	0.6	0.430280249	0.499394857	0.006582188	0.067907225	0.020929666
2019-08-15T23:00:00	0.1870	12.650	0.7	0.425283924	0.490985822	0.006421161	0.066245936	0.020417641
2019-08-15T23:05:00	0.1877	12.646	0.7	0.427131286	0.494086937	0.006480417	0.066857265	0.020606058
2019-08-15T23:10:00	0.1893	12.644	0.7	0.431436027	0.501349963	0.006619785	0.068295104	0.021049214
2019-08-15T23:15:00	0.1889	12.642	0.7	0.430273347	0.499383193	0.006581964	0.067904913	0.020928954
2019-08-15T23:20:00	0.1883	12.642	0.7	0.428836369	0.496957620	0.006535403	0.067424553	0.020780902
2019-08-15T23:25:00	0.1861	12.650	0.7	0.422737911	0.486727403	0.006340039	0.065409010	0.020159692
2019-08-15T23:30:00	0.1858	12.668	0.8	0.421843731	0.485236072	0.006311697	0.065116611	0.020069572
2019-08-15T23:35:00	0.1874	12.697	0.8	0.426162380	0.492459280	0.006449297	0.066536208	0.020507105
2019-08-15T23:40:00	0.1874	12.717	0.9	0.426366097	0.492801287	0.006455832	0.066603633	0.020527887
2019-08-15T23:45:00	0.1859	12.738	0.9	0.422181835	0.485799710	0.006322404	0.065227078	0.020103619
2019-08-15T23:50:00	0.1881	12.758	1.0	0.428142109	0.495787787	0.006512980	0.067193217	0.020709602
2019-08-15T23:55:00	0.1864	12.772	1.0	0.423413677	0.487855929	0.006361509	0.065630516	0.020227963
2019-08-16T00:00:00	0.1887	12.790	1.0	0.429916201	0.498779806	0.006570373	0.067785330	0.020892097
2019-08-16T00:05:00	0.1868	12.808	1.0	0.424644587	0.489914789	0.006400731	0.066035163	0.020352679
2019-08-16T00:10:00	0.1873	12.835	1.0	0.425944796	0.492094122	0.006442321	0.066464239	0.020484924
2019-08-16T00:15:00	0.1856	12.855	1.0	0.421209980	0.484180429	0.006291656	0.064909856	0.020005848
2019-08-16T00:20:00	0.1878	12.878	1.1	0.427447555	0.494618798	0.006490595	0.066962268	0.020638421
2019-08-16T00:25:00	0.1873	12.909	1.1	0.426008101	0.492200348	0.006444350	0.066485173	0.020491376
2019-08-16T00:30:00	0.1872	12.930	1.1	0.425663868	0.491622850	0.006433321	0.066371388	0.020456306
2019-08-16T00:35:00	0.1884	12.945	1.1	0.428878839	0.497029225	0.006536777	0.067438720	0.020785268
2019-08-16T00:40:00	0.1866	12.962	1.2	0.424152540	0.489091271	0.006385035	0.065873227	0.020302768
2019-08-16T00:45:00	0.1862	12.984	1.2	0.422984680	0.487139359	0.006347874	0.065489844	0.020184606
2019-08-16T00:50:00	0.1854	13.000	1.2	0.420716891	0.483359855	0.006276090	0.064749267	0.019956353
2019-08-16T00:55:00	0.1865	13.008	1.2	0.423667274	0.488279759	0.006369578	0.065713759	0.020253619
2019-08-16T01:00:00	0.1859	13.019	1.3	0.422224478	0.485870820	0.006323755	0.065241019	0.020107916
2019-08-16T01:05:00	0.1886	13.028	1.3	0.429552073	0.498164988	0.006558568	0.067663542	0.020854561
2019-08-16T01:10:00	0.1860	13.030	1.3	0.422358310	0.486094027	0.006327997	0.065284782	0.020121404
2019-08-16T01:15:00	0.1898	13.038	1.3	0.432689526	0.503474577	0.006660709	0.068717304	0.021179340
2019-08-16T01:20:00	0.1895	13.038	1.3	0.432073747	0.502430318	0.006640586	0.068509701	0.021115355
2019-08-16T01:25:00	0.1902	13.035	1.3	0.433913511	0.505553390	0.006700817	0.069131098	0.021306876
2019-08-16T01:30:00	0.1902	13.028	1.3	0.433843622	0.505434579	0.006698523	0.069107430	0.021299581
2019-08-16T01:35:00	0.1900	13.012	1.3	0.433228272	0.504389068	0.006678345	0.068899252	0.021235418
2019-08-16T01:40:00	0.1896	13.000	1.3	0.432339795	0.502881362	0.006649275	0.068599349	0.021142986
2019-08-16T01:45:00	0.1888	12.986	1.3	0.430084941	0.499064842	0.006575848	0.067841813	0.020909506
2019-08-16T01:50:00	0.1894	12.974	1.3	0.431653905	0.501718941	0.006626887	0.068368375	0.021071797
2019-08-16T01:55:00	0.1889	12.963	1.3	0.430218131	0.499289883	0.006580172	0.067886416	0.020923253
2019-08-16T02:00:00	0.1889	12.956	1.3	0.430421346	0.499633337	0.006586771	0.067954505	0.020944238
2019-08-16T02:05:00	0.1878	12.960	1.3	0.427342821	0.494442639	0.006487223	0.066927485	0.020627701
2019-08-16T02:10:00	0.1878	12.962	1.3	0.427272653	0.494324637	0.006484965	0.066904187	0.020620520
2019-08-16T02:15:00	0.1877	12.967	1.3	0.427202483	0.494206643	0.006482707	0.066880894	0.020613341
2019-08-16T02:20:00	0.1870	12.975	1.3	0.425214693	0.490869789	0.006418947	0.066223093	0.020410600
2019-08-16T02:25:00	0.1870	12.981	1.3	0.425144434	0.490752048	0.006416700	0.066199915	0.020403457
2019-08-16T02:30:00	0.1885	12.985	1.3	0.429180958	0.497538752	0.006546550	0.067539554	0.020816346
2019-08-16T02:35:00	0.1880	12.993	1.3	0.428016685	0.495576589	0.006508934	0.067151476	0.020696737
2019-08-16T02:40:00	0.1889	13.011	1.3	0.430407543	0.499610005	0.006586323	0.067949879	0.020942813
2019-08-16T02:45:00	0.1877	13.024	1.3	0.427055217	0.493959056	0.006477970	0.066832025	0.020598279
2019-08-16T02:50:00	0.1884	13.035	1.4	0.428900584	0.497065890	0.006537480	0.067445974	0.020787504
2019-08-16T02:55:00	0.1881	13.042	1.4	0.428283389	0.496025736	0.006517540	0.067240254	0.020724099
2019-08-16T03:00:00	0.1872	13.056	1.4	0.425748971	0.491765591	0.006436047	0.066399507	0.020464973
2019-08-16T03:05:00	0.1877	13.064	1.4	0.427048302	0.493947431	0.006477748	0.066829730	0.020597572
2019-08-16T03:10:00	0.1886	13.073	1.4	0.429440568	0.497976789	0.006554956	0.067626274	0.020843074
2019-08-16T03:15:00	0.1878	13.074	1.4	0.427455492	0.494632149	0.006490850	0.066964904	0.020639234
2019-08-16T03:20:00	0.1873	13.082	1.4	0.426016044	0.492213679	0.006444605	0.066487800	0.020492186
2019-08-16T03:25:00	0.1881	13.080	1.4	0.428136221	0.495777871	0.006512790	0.067191257	0.020708998
2019-08-16T03:30:00	0.1881	13.078	1.4	0.428066087	0.495659771	0.006510528	0.067167915	0.020701804
2019-08-16T03:35:00	0.1886	13.086	1.4	0.429636975	0.498308308	0.006561320	0.067691926	0.020863309
2019-08-16T03:40:00	0.1906	13.092	1.4	0.435025465	0.507445551	0.006737383	0.069508334	0.021423144
2019-08-16T03:45:00	0.1888	13.110	1.4	0.430043524	0.498994873	0.006574504	0.067827947	0.020905232
2019-08-16T03:50:00	0.1876	13.127	1.4	0.426690454	0.493346065	0.006466247	0.066711074	0.020561001
2019-08-16T03:55:00	0.1874	13.130	1.4	0.426346366	0.492768156	0.006455199	0.066597101	0.020525873
2019-08-16T04:00:00	0.1883	13.114	1.4	0.428739654	0.496794575	0.006532277	0.067392297	0.020770960
2019-08-16T04:05:00	0.1897	13.123	1.4	0.432564447	0.503262379	0.006656618	0.068675104	0.021166334
2019-08-16T04:10:00	0.1909	13.142	1.4	0.435835823	0.508826674	0.006764107	0.069784044	0.021508120
2019-08-16T04:15:00	0.1898	13.156	1.4	0.432837308	0.503725349	0.006665544	0.068767184	0.021194714
2019-08-16T04:20:00	0.1889	13.183	1.4	0.430379937	0.499563343	0.006585426	0.067940627	0.020939961
2019-08-16T04:25:00	0.1886	13.180	1.4	0.429560000	0.498178368	0.006558825	0.067666192	0.020855377
2019-08-16T04:30:00	0.1893	13.193	1.4	0.431472553	0.501411812	0.006620976	0.068307384	0.021052999
2019-08-16T04:35:00	0.1892	13.202	1.4	0.431199467	0.500949498	0.006612079	0.068215605	0.021024712
2019-08-16T04:40:00	0.1885	13.197	1.4	0.429286597	0.497716973	0.006549970	0.067574833	0.020827220
2019-08-16T04:45:00	0.1885	13.186	1.4	0.429286597	0.497716973	0.006549970	0.067574833	0.020827220
2019-08-16T04:50:00	0.1903	13.183	1.4	0.434200940	0.506042165	0.006710258	0.069228490	0.021336893
2019-08-16T04:55:00	0.1891	13.183	1.4	0.430926336	0.500487315	0.006603189	0.068123886	0.020996443
2019-08-16T05:00:00	0.1915	13.192	1.4	0.437469104	0.511615904	0.006818167	0.070341767	0.021680016
2019-08-16T05:05:00	0.1919	13.194	1.4	0.438557072	0.513478015	0.006854323	0.070714788	0.021794984
2019-08-16T05:10:00	0.1923	13.201	1.4	0.439644334	0.515342224	0.006890573	0.071088774	0.021910251
2019-08-16T05:15:00	0.1939	13.190	1.4	0.444821300	0.522815228	0.007045264	0.072684687	0.022402126
2019-08-16T05:20:00	0.1947	13.182	1.4	0.447612776	0.526556834	0.007125339	0.073510811	0.022656746
2019-08-16T05:25:00	0.1947	13.199	1.4	0.447612776	0.526556834	0.007125339	0.073510811	0.022656746
2019-08-16T05:30:00	0.1953	13.236	1.4	0.449704858	0.529365014	0.007185642	0.074132947	0.022848494
2019-08-16T05:35:00	0.1943	13.249	1.4	0.446217329	0.524685655	0.007085254	0.073097264	0.022529287
2019-08-16T05:40:00	0.1939	13.280	1.4	0.444821300	0.522815228	0.007045264	0.072684687	0.022402126
2019-08-16T05:45:00	0.1966	13.287	1.3	0.454233227	0.535455209	0.007317022	0.075488372	0.023266249
2019-08-16T05:50:00	0.1953	13.292	1.4	0.449704858	0.529365014	0.007185642	0.074132947	0.022848494
2019-08-16T05:55:00	0.1963	13.328	1.4	0.453188761	0.534049074	0.007286616	0.075174676	0.023169565
2019-08-16T06:00:00	0.1958	13.394	1.4	0.451447262	0.531706456	0.007236056	0.074653057	0.023008797
2019-08-16T06:05:00	0.1955	13.433	1.4	0.450401928	0.530301450	0.007205790	0.074340810	0.022912560
2019-08-16T06:10:00	0.1952	13.476	1.4	0.449356268	0.528896866	0.007175577	0.074029107	0.022816490
2019-08-16T06:15:00	0.1981	13.510	1.4	0.459450691	0.542492231	0.007469842	0.077064987	0.023752177
2019-08-16T06:20:00	0.1967	13.539	1.4	0.454581310	0.535924015	0.007327170	0.075593058	0.023298515
2019-08-16T06:25:00	0.1960	13.604	1.4	0.452143970	0.532643362	0.007256263	0.074861523	0.023073049
2019-08-16T06:30:00	0.1951	13.683	1.3	0.449007642	0.528428766	0.007165518	0.073925327	0.022784504
2019-08-16T06:35:00	0.1959	13.693	1.3	0.451795634	0.532174886	0.007246156	0.074757260	0.023040914
2019-08-16T06:40:00	0.1966	13.717	1.3	0.454233227	0.535455209	0.007317022	0.075488372	0.023266249
2019-08-16T06:45:00	0.1986	13.732	1.3	0.461188048	0.544840256	0.007521074	0.077593533	0.023915081
2019-08-16T06:50:00	0.1970	13.809	1.2	0.455625343	0.537330714	0.007357646	0.075907478	0.023395422
2019-08-16T06:55:00	0.1979	13.836	1.2	0.458755497	0.541553350	0.007449391	0.076853989	0.023687146
2019-08-16T07:00:00	0.1971	13.845	1.2	0.455973282	0.537799708	0.007367816	0.076012405	0.023427761
2019-08-16T07:05:00	0.1978	13.892	1.2	0.458407846	0.541083980	0.007439173	0.076748580	0.023654658
2019-08-16T07:10:00	0.1982	13.956	1.2	0.459798234	0.542961742	0.007480077	0.077170576	0.023784721
2019-08-16T07:15:00	0.1974	14.008	1.2	0.457016883	0.539206971	0.007398363	0.076327547	0.023524891
2019-08-16T07:20:00	0.1972	14.143	1.1	0.456321185	0.538268748	0.007377993	0.076117392	0.023460119
2019-08-16T07:25:00	0.1987	14.283	1.0	0.461535411	0.545310002	0.007531338	0.077699423	0.023947717
2019-08-16T07:30:00	0.1977	14.291	0.9	0.458060159	0.540614658	0.007428962	0.076643232	0.023622188
2019-08-16T07:35:00	0.1965	14.335	0.9	0.453885108	0.534986450	0.007306881	0.075383746	0.023234003
2019-08-16T07:40:00	0.1974	14.441	0.9	0.457016883	0.539206971	0.007398363	0.076327547	0.023524891
2019-08-16T07:45:00	0.1973	14.524	1.0	0.456669052	0.538737836	0.007388175	0.076222439	0.023492496
2019-08-16T07:50:00	0.1955	14.575	0.9	0.450401928	0.530301450	0.007205790	0.074340810	0.022912560
2019-08-16T07:55:00	0.1982	14.572	0.8	0.459798234	0.542961742	0.007480077	0.077170576	0.023784721
2019-08-16T08:00:00	0.1968	14.663	0.8	0.454929357	0.536392867	0.007337323	0.075697804	0.023330798
2019-08-16T08:05:00	0.1977	14.630	0.7	0.458060159	0.540614658	0.007428962	0.076643232	0.023622188
2019-08-16T08:10:00	0.1996	14.642	0.7	0.464660073	0.549539832	0.007623974	0.078655131	0.024242275
2019-08-16T08:15:00	0.1986	14.671	0.6	0.461188048	0.544840256	0.007521074	0.077593533	0.023915081
2019-08-16T08:20:00	0.1977	14.810	0.6	0.458060159	0.540614658	0.007428962	0.076643232	0.023622188
2019-08-16T08:25:00	0.1994	14.939	0.6	0.463965954	0.548599541	0.007603347	0.078442332	0.024176688
2019-08-16T08:30:00	0.1974	15.014	0.5	0.457016883	0.539206971	0.007398363	0.076327547	0.023524891
2019-08-16T08:35:00	0.1977	15.194	0.6	0.458060159	0.540614658	0.007428962	0.076643232	0.023622188
2019-08-16T08:40:00	0.1981	15.401	0.3	0.459450691	0.542492231	0.007469842	0.077064987	0.023752177
2019-08-16T08:45:00	0.1979	15.543	0.2	0.458755497	0.541553350	0.007449391	0.076853989	0.023687146
2019-08-16T08:50:00	0.1968	15.776	0.0	0.454929357	0.536392867	0.007337323	0.075697804	0.023330798
2019-08-16T08:55:00	0.1972	15.694	0.0	0.456321185	0.538268748	0.007377993	0.076117392	0.023460119
2019-08-16T09:00:00	0.1982	15.525	0.1	0.459798234	0.542961742	0.007480077	0.077170576	0.023784721
2019-08-16T09:05:00	0.1969	15.610	0.0	0.455277368	0.536861767	0.007347481	0.075802611	0.023363101
2019-08-16T09:10:00	0.1961	15.816	0.0	0.452492270	0.533111886	0.007266375	0.074965847	0.023105202
2019-08-16T09:15:00	0.1965	16.127	0.0	0.453885108	0.534986450	0.007306881	0.075383746	0.023234003
2019-08-16T09:20:00	0.1949	16.076	0.0	0.448310282	0.527492706	0.007145417	0.073717948	0.022720587
2019-08-16T09:25:00	0.1964	16.041	0.0	0.453536953	0.534517739	0.007296746	0.075279181	0.023201775
2019-08-16T09:30:00	0.1924	16.246	0.0	0.439916040	0.515808604	0.006899650	0.071182422	0.021939114
2019-08-16T09:35:00	0.1934	16.234	0.0	0.443075445	0.520478252	0.006995407	0.072170329	0.022243596
2019-08-16T09:40:00	0.1939	16.055	0.0	0.444821300	0.522815228	0.007045264	0.072684687	0.022402126
2019-08-16T09:45:00	0.1961	15.833	0.0	0.452492270	0.533111886	0.007266375	0.074965847	0.023105202
2019-08-16T09:50:00	0.1975	15.673	0.0	0.457364677	0.539676153	0.007408557	0.076432715	0.023557305
2019-08-16T09:55:00	0.1969	15.564	0.0	0.455277368	0.536861767	0.007347481	0.075802611	0.023363101
2019-08-16T10:00:00	0.1945	15.454	0.0	0.446915126	0.525621151	0.007105285	0.073303917	0.022592979
2019-08-16T10:05:00	0.1940	15.523	0.0	0.445216656	0.523344778	0.007056578	0.072801413	0.022438103
2019-08-16T10:10:00	0.1944	15.663	0.0	0.446658794	0.525277457	0.007097924	0.073227971	0.022569572
2019-08-16T10:15:00	0.1943	15.889	0.0	0.446007227	0.524404058	0.007079229	0.073035099	0.022510127
2019-08-16T10:20:00	0.1928	16.139	0.0	0.440874952	0.517456220	0.006931744	0.071513529	0.022041164
2019-08-16T10:25:00	0.1933	16.141	0.0	0.442608503	0.519853617	0.006982102	0.072033063	0.022201290
2019-08-16T10:30:00	0.1936	16.175	0.0	0.443702586	0.521317459	0.007013297	0.072354890	0.022300480
2019-08-16T10:35:00	0.1913	16.189	0.0	0.436905372	0.510652351	0.006799478	0.070148960	0.021620591
2019-08-16T10:40:00	0.1906	16.322	0.0	0.435035217	0.507462161	0.006737704	0.069511648	0.021424165
2019-08-16T10:45:00	0.1902	16.377	0.0	0.433981111	0.505668325	0.006703037	0.069153996	0.021313933
2019-08-16T10:50:00	0.1925	16.294	0.0	0.440276338	0.516427372	0.006911699	0.071306720	0.021977424
2019-08-16T10:55:00	0.1934	16.114	0.0	0.442886468	0.520225435	0.006990021	0.072114761	0.022226470
2019-08-16T11:00:00	0.1937	15.974	0.0	0.443980461	0.521689394	0.007021230	0.072436739	0.022325707
2019-08-16T11:05:00	0.1929	15.852	0.0	0.441232300	0.518013645	0.006942961	0.071629246	0.022076829
2019-08-16T11:10:00	0.1945	15.937	0.0	0.446865180	0.525554180	0.007103850	0.073289116	0.022588417
2019-08-16T11:15:00	0.1966	15.949	0.0	0.454229560	0.535450271	0.007316916	0.075487270	0.023265910
2019-08-16T11:20:00	0.1974	15.945	0.0	0.457059349	0.539264255	0.007399607	0.076340385	0.023528848
2019-08-16T11:25:00	0.1959	15.924	0.0	0.451884369	0.532294216	0.007248730	0.074783813	0.023049097
2019-08-16T11:30:00	0.1944	15.922	0.0	0.446701392	0.525334570	0.007099147	0.073240589	0.022573461
2019-08-16T11:35:00	0.1945	15.898	0.0	0.446747665	0.525396610	0.007100476	0.073254297	0.022577686
2019-08-16T11:40:00	0.1944	15.904	0.0	0.446445044	0.524990897	0.007091788	0.073164671	0.022550062
2019-08-16T11:45:00	0.1942	15.898	0.0	0.445793435	0.524117552	0.007073100	0.072971868	0.022490638
2019-08-16T11:50:00	0.1950	15.902	0.0	0.448630348	0.527922280	0.007154639	0.073813093	0.022749912
2019-08-16T11:55:00	0.1942	15.909	0.0	0.445886005	0.524241602	0.007075753	0.072999243	0.022499076
2019-08-16T12:00:00	0.1945	15.902	0.0	0.446979018	0.525706826	0.007107121	0.073322853	0.022598815
2019-08-16T12:05:00	0.1927	16.020	0.0	0.440816641	0.517355956	0.006929790	0.071493367	0.022034950
2019-08-16T12:10:00	0.1940	16.142	0.0	0.444977827	0.523024870	0.007049742	0.072730890	0.022416367
2019-08-16T12:15:00	0.1945	16.157	0.0	0.446768963	0.525425167	0.007101087	0.073260607	0.022579631
2019-08-16T12:20:00	0.1950	16.055	0.0	0.448559141	0.527826704	0.007152587	0.073791920	0.022743386
2019-08-16T12:25:00	0.1935	16.015	0.0	0.443371013	0.520873727	0.007003836	0.072257283	0.022270396
2019-08-16T12:30:00	0.1949	16.005	0.0	0.448302936	0.527482847	0.007145205	0.073715765	0.022719915
2019-08-16T12:35:00	0.1949	15.961	0.0	0.448349186	0.527544916	0.007146537	0.073729510	0.022724151
2019-08-16T12:40:00	0.1964	15.932	0.0	0.453621974	0.534632192	0.007299220	0.075304710	0.023209643
2019-08-16T12:45:00	0.1949	16.097	0.0	0.448441685	0.527669058	0.007149202	0.073757002	0.022732624
2019-08-16T12:50:00	0.1946	16.271	0.0	0.447092851	0.525859478	0.007110391	0.073356596	0.022609215
2019-08-16T12:55:00	0.1947	16.291	0.0	0.447487938	0.526389375	0.007121749	0.073473769	0.022645329
2019-08-16T13:00:00	0.1969	16.193	0.0	0.455198971	0.536756129	0.007345192	0.075778995	0.023355822
2019-08-16T13:05:00	0.1959	16.134	0.0	0.451763359	0.532131484	0.007245220	0.074747603	0.023037937
2019-08-16T13:10:00	0.1971	16.071	0.0	0.455987193	0.537818460	0.007368223	0.076016601	0.023429055
2019-08-16T13:15:00	0.1961	16.082	0.0	0.452552387	0.533192764	0.007268121	0.074983861	0.023110754
2019-08-16T13:20:00	0.1954	16.138	0.0	0.450159798	0.529976131	0.007198789	0.074268575	0.022890296
2019-08-16T13:25:00	0.1951	16.179	0.0	0.448811655	0.528165656	0.007159866	0.073867016	0.022766532
2019-08-16T13:30:00	0.1956	16.188	0.0	0.450600743	0.530568605	0.007211542	0.074400147	0.022930848
2019-08-16T13:35:00	0.1956	16.264	0.0	0.450646962	0.530630716	0.007212879	0.074413945	0.022935101
2019-08-16T13:40:00	0.1941	16.355	0.0	0.445462069	0.523673552	0.007063605	0.072873916	0.022460449
2019-08-16T13:45:00	0.1949	16.499	0.0	0.448299262	0.527477918	0.007145099	0.073714673	0.022719578
2019-08-16T13:50:00	0.1932	16.451	0.0	0.442412141	0.519590991	0.006976511	0.071975377	0.022183510
2019-08-16T13:55:00	0.1936	16.377	0.0	0.443855487	0.521522110	0.007017662	0.072399922	0.022314359
2019-08-16T14:00:00	0.1935	16.430	0.0	0.443552605	0.521116734	0.007009017	0.072310731	0.022286870
2019-08-16T14:05:00	0.1939	16.439	0.0	0.444646380	0.522580975	0.007040261	0.072633072	0.022386218
2019-08-16T14:10:00	0.1937	16.459	0.0	0.443994421	0.521708082	0.007021629	0.072440852	0.022326974
2019-08-16T14:15:00	0.1931	16.618	0.0	0.441945106	0.518966475	0.006963221	0.071838265	0.022141251
2019-08-16T14:20:00	0.1921	16.599	0.0	0.439072744	0.514361769	0.006871501	0.070892014	0.021849607
2019-08-16T14:25:00	0.1926	16.552	0.0	0.440467318	0.516755502	0.006918090	0.071372660	0.021997747
2019-08-16T14:30:00	0.1914	16.505	0.0	0.437241107	0.511226095	0.006810604	0.070263749	0.021655970
2019-08-16T14:35:00	0.1927	16.546	0.0	0.440810921	0.517346120	0.006929598	0.071491390	0.022034341
2019-08-16T14:40:00	0.1945	16.429	0.0	0.446715341	0.525353272	0.007099547	0.073244721	0.022574734
2019-08-16T14:45:00	0.1946	16.425	0.0	0.447110473	0.525883110	0.007110898	0.073361820	0.022610825
2019-08-16T14:50:00	0.1937	16.325	0.0	0.444015737	0.521736616	0.007022238	0.072447133	0.022328910
2019-08-16T14:55:00	0.1941	16.319	0.0	0.445458393	0.523668627	0.007063500	0.072872829	0.022460114
2019-08-16T15:00:00	0.1934	16.474	0.0	0.443060729	0.520458564	0.006994988	0.072166002	0.022242263
2019-08-16T15:05:00	0.1920	16.463	0.0	0.438853556	0.513986035	0.006864197	0.070816650	0.021826379
2019-08-16T15:10:00	0.1931	16.454	0.0	0.442105448	0.519180864	0.006967782	0.071885324	0.022155755
2019-08-16T15:15:00	0.1933	16.390	0.0	0.442850428	0.520177223	0.006988994	0.072104166	0.022223204
2019-08-16T15:20:00	0.1918	16.331	0.0	0.438146010	0.512774072	0.006840648	0.070573709	0.021751503
2019-08-16T15:25:00	0.1942	16.297	0.0	0.445736122	0.524040751	0.007071457	0.072954921	0.022485415
2019-08-16T15:30:00	0.1950	16.247	0.0	0.448573083	0.527845416	0.007152989	0.073796065	0.022744664
2019-08-16T15:35:00	0.1948	16.257	0.0	0.447921888	0.526971535	0.007134234	0.073602572	0.022685028
2019-08-16T15:40:00	0.1939	16.294	0.0	0.444827903	0.522824071	0.007045453	0.072686636	0.022402727
2019-08-16T15:45:00	0.1949	16.255	0.0	0.448363128	0.527563628	0.007146939	0.073733653	0.022725428
2019-08-16T15:50:00	0.1942	16.251	0.0	0.445967545	0.524350876	0.007078091	0.073023360	0.022506509
2019-08-16T15:55:00	0.1951	16.203	0.0	0.448804310	0.528155795	0.007159654	0.073864831	0.022765858
2019-08-16T16:00:00	0.1924	16.094	0.0	0.439793626	0.515598455	0.006895560	0.071140220	0.021926107
2019-08-16T16:05:00	0.1938	16.002	0.0	0.444562040	0.522468035	0.007037849	0.072608192	0.022378550
2019-08-16T16:10:00	0.1936	15.986	0.0	0.443761754	0.521396650	0.007014986	0.072372315	0.022305850
2019-08-16T16:15:00	0.1950	15.969	0.0	0.448545003	0.527807727	0.007152179	0.073787717	0.022742091
2019-08-16T16:20:00	0.1945	15.989	0.0	0.447048045	0.525799392	0.007109104	0.073343313	0.022605121
2019-08-16T16:25:00	0.1938	15.975	0.0	0.444503242	0.522389302	0.007036168	0.072590849	0.022373205
2019-08-16T16:30:00	0.1940	15.892	0.0	0.445099438	0.523187760	0.007053222	0.072766796	0.022427433
2019-08-16T16:35:00	0.1965	15.784	0.0	0.453712671	0.534754292	0.007301860	0.075331948	0.023218038
2019-08-16T16:40:00	0.1951	15.710	0.0	0.449081761	0.528528278	0.007167656	0.073947385	0.022791302
2019-08-16T16:45:00	0.1943	15.672	0.0	0.446189585	0.524648468	0.007084459	0.073089054	0.022526756
2019-08-16T16:50:00	0.1952	15.630	0.0	0.449226717	0.528722907	0.007171838	0.073990533	0.022804601
2019-08-16T16:55:00	0.1956	15.536	0.0	0.450867587	0.530927224	0.007219265	0.074479825	0.022955406
2019-08-16T17:00:00	0.1959	15.477	0.0	0.451811022	0.532195579	0.007246603	0.074761864	0.023042333
2019-08-16T17:05:00	0.1969	15.388	0.0	0.455191088	0.536745507	0.007344962	0.075776620	0.023355090
2019-08-16T17:10:00	0.1956	15.311	0.0	0.450562220	0.530516839	0.007210427	0.074388648	0.022927304
2019-08-16T17:15:00	0.1957	15.236	0.0	0.451157338	0.531316691	0.007227656	0.074566391	0.022982086
2019-08-16T17:20:00	0.1981	15.153	0.0	0.459407506	0.542433898	0.007468571	0.077051872	0.023748135
2019-08-16T17:25:00	0.1965	15.071	0.0	0.453740156	0.534791294	0.007302661	0.075340203	0.023220582
2019-08-16T17:30:00	0.1963	14.992	0.0	0.453290276	0.534185703	0.007289569	0.075205137	0.023178954
2019-08-16T17:35:00	0.1952	14.927	0.0	0.449356071	0.528896601	0.007175571	0.074029048	0.022816472
2019-08-16T17:40:00	0.1967	14.856	0.0	0.454479440	0.535786804	0.007324199	0.075562413	0.023289070
2019-08-16T17:45:00	0.1962	14.783	0.0	0.452636881	0.533306441	0.007270575	0.075009183	0.023118559
2019-08-16T17:50:00	0.1976	14.712	0.0	0.457755249	0.540203155	0.007420013	0.076550903	0.023593732
2019-08-16T17:55:00	0.1977	14.643	0.0	0.458001400	0.540535352	0.007427237	0.076625435	0.023616703
2019-08-16T18:00:00	0.1981	14.574	0.0	0.459290429	0.542275758	0.007465125	0.077016320	0.023737178
2019-08-16T18:05:00	0.1974	14.500	0.0	0.457102722	0.539322761	0.007400878	0.076353497	0.023532889
2019-08-16T18:10:00	0.1980	14.426	0.0	0.459087364	0.542001499	0.007459150	0.076954678	0.023718179
2019-08-16T18:15:00	0.1987	14.352	0.0	0.461418211	0.545151500	0.007527874	0.077663688	0.023936703
2019-08-16T18:20:00	0.1994	14.274	0.0	0.464094545	0.548773708	0.007607166	0.078481733	0.024188832
2019-08-16T18:25:00	0.2003	14.198	0.0	0.467115543	0.552869212	0.007697161	0.079410195	0.024474993
2019-08-16T18:30:00	0.1998	14.128	0.0	0.465279895	0.550379800	0.007642416	0.078845393	0.024300916
2019-08-16T18:35:00	0.2008	14.053	0.0	0.468646463	0.554947412	0.007742966	0.079882756	0.024620641
2019-08-16T18:40:00	0.2024	13.976	0.0	0.474432685	0.562818934	0.007917300	0.081681320	0.025174976
2019-08-16T18:45:00	0.2030	13.897	0.0	0.476407155	0.565511078	0.007977227	0.082299579	0.025365530
2019-08-16T18:50:00	0.2029	13.827	0.0	0.475960292	0.564901519	0.007963645	0.082159452	0.025322341
2019-08-16T18:55:00	0.2032	13.752	0.0	0.477242476	0.566650953	0.008002647	0.082561834	0.025446359
2019-08-16T19:00:00	0.2051	13.673	0.0	0.483704243	0.575487449	0.008200640	0.084604494	0.026075927
2019-08-16T19:05:00	0.2058	13.591	0.0	0.486018175	0.578659866	0.008272124	0.085341973	0.026303225
2019-08-16T19:10:00	0.2054	13.523	0.0	0.484537767	0.576629723	0.008226355	0.084869783	0.026157691
2019-08-16T19:15:00	0.2049	13.461	0.0	0.483056713	0.574600446	0.008180691	0.084398686	0.026012495
2019-08-16T19:20:00	0.2044	13.399	0.0	0.481229703	0.572099568	0.008124536	0.083819336	0.025833933
2019-08-16T19:25:00	0.2052	13.343	0.0	0.483890396	0.575742507	0.008206380	0.084663706	0.026094176
2019-08-16T19:30:00	0.2047	13.305	0.0	0.482409059	0.573713609	0.008160763	0.084193087	0.025949127
2019-08-16T19:35:00	0.2035	13.258	0.0	0.478163092	0.567907865	0.008030709	0.082851345	0.025535589
2019-08-16T19:40:00	0.2040	13.211	0.0	0.479789932	0.570130634	0.008080417	0.083364172	0.025693648
2019-08-16T19:45:00	0.2039	13.169	0.0	0.479343515	0.569520480	0.008066762	0.083223293	0.025650227
2019-08-16T19:50:00	0.2047	13.128	0.0	0.482350918	0.573634012	0.008158975	0.084174642	0.025943442
2019-08-16T19:55:00	0.2042	13.092	0.0	0.480523528	0.571133644	0.008102882	0.083595935	0.025765079
2019-08-16T20:00:00	0.2066	13.059	0.0	0.488702319	0.582345211	0.008355429	0.086201420	0.026568115
2019-08-16T20:05:00	0.2057	13.013	0.0	0.485843935	0.578420833	0.008266730	0.085286330	0.026286075
2019-08-16T20:10:00	0.2059	12.966	0.0	0.486432862	0.579228858	0.008284967	0.085474475	0.026344063
2019-08-16T20:15:00	0.2045	12.922	0.0	0.481501408	0.572471319	0.008132875	0.083905369	0.025860450
2019-08-16T20:20:00	0.2044	12.887	0.0	0.481400543	0.572333307	0.008129778	0.083873426	0.025850604
2019-08-16T20:25:00	0.2035	12.839	0.0	0.478190378	0.567945129	0.008031542	0.082859933	0.025538236
2019-08-16T20:30:00	0.2039	12.773	0.0	0.479471718	0.569695688	0.008070682	0.083263739	0.025662693
2019-08-16T20:35:00	0.2047	12.727	0.0	0.482133790	0.573336783	0.008152300	0.084105778	0.025922217
2019-08-16T20:40:00	0.2046	12.656	0.0	0.482032944	0.573198745	0.008149201	0.084073803	0.025912362
2019-08-16T20:45:00	0.2033	12.585	0.0	0.477440810	0.566921680	0.008008688	0.082624162	0.025465569
2019-08-16T20:50:00	0.2041	12.521	0.0	0.480104478	0.570560645	0.008090045	0.083463507	0.025724263
2019-08-16T20:55:00	0.2051	12.450	0.0	0.483801405	0.575620572	0.008203636	0.084635397	0.026085451
2019-08-16T21:00:00	0.2050	12.392	0.0	0.483355516	0.575009712	0.008189894	0.084493625	0.026041756
2019-08-16T21:05:00	0.2062	12.322	0.0	0.487393620	0.580547640	0.008314760	0.085781849	0.026438799
2019-08-16T21:10:00	0.2065	12.242	0.0	0.488326901	0.581829413	0.008343752	0.086080956	0.026530987
2019-08-16T21:15:00	0.2066	12.183	0.0	0.488915398	0.582638017	0.008362060	0.086269830	0.026589199
2019-08-16T21:20:00	0.2073	12.109	0.0	0.491225783	0.585815201	0.008434125	0.087013316	0.026818349
2019-08-16T21:25:00	0.2068	12.032	0.0	0.489403166	0.583308427	0.008377249	0.086426530	0.026637496
2019-08-16T21:30:00	0.2068	11.979	0.0	0.489647023	0.583643668	0.008384847	0.086504925	0.026661658
2019-08-16T21:35:00	0.2055	11.934	0.0	0.485065194	0.577352804	0.008242646	0.085037862	0.026209495
2019-08-16T21:40:00	0.2055	11.889	0.0	0.484964435	0.577214650	0.008239533	0.085005740	0.026199595
2019-08-16T21:45:00	0.2068	11.829	0.0	0.489689628	0.583702243	0.008386175	0.086518626	0.026665881
2019-08-16T21:50:00	0.2049	11.778	0.0	0.483037636	0.574574319	0.008180104	0.084392627	0.026010627
2019-08-16T21:55:00	0.2059	11.725	0.0	0.486386585	0.579165354	0.008283533	0.085459683	0.026339504
2019-08-16T22:00:00	0.2059	11.682	0.0	0.486285865	0.579027147	0.008280413	0.085427494	0.026329583
2019-08-16T22:05:00	0.2069	11.658	0.0	0.489726068	0.583752344	0.008387311	0.086530344	0.026669492
2019-08-16T22:10:00	0.2057	11.640	0.0	0.485583827	0.578064047	0.008258682	0.085203300	0.026260484
2019-08-16T22:15:00	0.2062	11.634	0.0	0.487301636	0.580421347	0.008311906	0.085752397	0.026429722
2019-08-16T22:20:00	0.2069	11.599	0.0	0.489707575	0.583726918	0.008386735	0.086524397	0.026667659
2019-08-16T22:25:00	0.2078	11.563	0.0	0.492800185	0.587982730	0.008483410	0.087521776	0.026975061
2019-08-16T22:30:00	0.2077	11.524	0.0	0.492449857	0.587500250	0.008472431	0.087408509	0.026940151
2019-08-16T22:35:00	0.2069	11.503	0.0	0.490033531	0.584175112	0.008396898	0.086629251	0.026699977
2019-08-16T22:40:00	0.2086	11.469	0.0	0.495877680	0.592225354	0.008580159	0.088519921	0.027282699
2019-08-16T22:45:00	0.2066	11.451	0.0	0.488987748	0.582737446	0.008364312	0.086293064	0.026596360
2019-08-16T22:50:00	0.2078	11.425	0.0	0.493113528	0.588414356	0.008493236	0.087623148	0.027006305
2019-08-16T22:55:00	0.2076	11.415	0.0	0.492419059	0.587457840	0.008471466	0.087398555	0.026937083
2019-08-16T23:00:00	0.2069	11.403	0.0	0.490002712	0.584132732	0.008395937	0.086619335	0.026696920
2019-08-16T23:05:00	0.2070	11.407	0.0	0.490340966	0.584597918	0.008406490	0.086728206	0.026730475
2019-08-16T23:10:00	0.2074	11.384	0.0	0.491712128	0.586484555	0.008449334	0.087170226	0.026866710
2019-08-16T23:15:00	0.2072	11.375	0.0	0.491017373	0.585528425	0.008427612	0.086946119	0.026797638
2019-08-16T23:20:00	0.2067	11.357	0.0	0.489289112	0.583151650	0.008373696	0.086389877	0.026626199
2019-08-16T23:25:00	0.2068	11.354	0.0	0.489627437	0.583616740	0.008384237	0.086498628	0.026659717
2019-08-16T23:30:00	0.2073	11.329	0.0	0.491343203	0.585976789	0.008437796	0.087051186	0.026830021
2019-08-16T23:35:00	0.2061	11.324	0.0	0.487202935	0.580285838	0.008308843	0.085720800	0.026419983
2019-08-16T23:40:00	0.2054	11.322	0.0	0.484782873	0.576965726	0.008233924	0.084947872	0.026181759
2019-08-16T23:45:00	0.2049	11.292	0.0	0.483051436	0.574593218	0.008180529	0.084397010	0.026011978
2019-08-16T23:50:00	0.2055	11.269	0.0	0.485115474	0.577421748	0.008244200	0.085053894	0.026214436
2019-08-16T23:55:00	0.2040	11.263	0.0	0.479931382	0.570323998	0.008084746	0.083408835	0.025707413
2019-08-17T00:00:00	0.2043	11.285	0.0	0.480961419	0.571732555	0.008116306	0.083734428	0.025807764
2019-08-17T00:05:00	0.2032	11.287	0.0	0.477154211	0.566530481	0.007999959	0.082534103	0.025437812
2019-08-17T00:10:00	0.2044	11.306	0.0	0.481294395	0.572188075	0.008126521	0.083839816	0.025840246
2019-08-17T00:15:00	0.2052	11.291	0.0	0.484049652	0.575960734	0.008211291	0.084714379	0.026109794
2019-08-17T00:20:00	0.2043	11.307	0.0	0.480936697	0.571698739	0.008115547	0.083726607	0.025805353
2019-08-17T00:25:00	0.2034	11.301	0.0	0.477820880	0.567440567	0.008020272	0.082743669	0.025502402
2019-08-17T00:30:00	0.2029	11.320	0.0	0.476085880	0.565072816	0.007967461	0.082198822	0.025334475
2019-08-17T00:35:00	0.2027	11.308	0.0	0.475387917	0.564120983	0.007946264	0.081980141	0.025267076
2019-08-17T00:40:00	0.2040	11.289	0.0	0.479875742	0.570247935	0.008083043	0.083391265	0.025701998
2019-08-17T00:45:00	0.2032	11.296	0.0	0.477104713	0.566462924	0.007998452	0.082518553	0.025433020
2019-08-17T00:50:00	0.2044	11.300	0.0	0.481244957	0.572120437	0.008125004	0.083824165	0.025835422
2019-08-17T00:55:00	0.2048	11.307	0.0	0.482619797	0.574002137	0.008167245	0.084259959	0.025969738
2019-08-17T01:00:00	0.2047	11.290	0.0	0.482268417	0.573521070	0.008156439	0.084148473	0.025935377
2019-08-17T01:05:00	0.2053	11.264	0.0	0.484332932	0.576348962	0.008220032	0.084804551	0.026137586
2019-08-17T01:10:00	0.2051	11.242	0.0	0.483636666	0.575394864	0.008198557	0.084583004	0.026069303
2019-08-17T01:15:00	0.2063	11.244	0.0	0.487768946	0.581063031	0.008326414	0.085902075	0.026475854
2019-08-17T01:20:00	0.2062	11.249	0.0	0.487418099	0.580581251	0.008315520	0.085789688	0.026441215
2019-08-17T01:25:00	0.2054	11.231	0.0	0.484653230	0.576788000	0.008229920	0.084906565	0.026169028
2019-08-17T01:30:00	0.2041	11.178	0.0	0.480159371	0.570635696	0.008091726	0.083480848	0.025729608
2019-08-17T01:35:00	0.2047	11.141	0.0	0.482225171	0.573461871	0.008155109	0.084134757	0.025931149
2019-08-17T01:40:00	0.2038	11.125	0.0	0.479110540	0.569202116	0.008059640	0.083149818	0.025627581
2019-08-17T01:45:00	0.2047	11.116	0.0	0.482212815	0.573444956	0.008154729	0.084130838	0.025929941
2019-08-17T01:50:00	0.2037	11.119	0.0	0.478752611	0.568713088	0.008048704	0.083036998	0.025592809
2019-08-17T01:55:00	0.2027	11.137	0.0	0.475288868	0.563985938	0.007943258	0.081949130	0.025257518
2019-08-17T02:00:00	0.2020	11.121	0.0	0.472860276	0.560677210	0.007869735	0.081190604	0.025023733
2019-08-17T02:05:00	0.2029	11.113	0.0	0.475968284	0.564912418	0.007963887	0.082161957	0.025323113
2019-08-17T02:10:00	0.2028	11.080	0.0	0.475616213	0.564432274	0.007953194	0.082051637	0.025289111
2019-08-17T02:15:00	0.2020	11.067	0.0	0.472841691	0.560651908	0.007869173	0.081184812	0.025021948
2019-08-17T02:20:00	0.2004	11.072	0.0	0.467292007	0.553108664	0.007702434	0.079464595	0.024491760
2019-08-17T02:25:00	0.2005	11.069	0.0	0.467632537	0.553570816	0.007712615	0.079569625	0.024524131
2019-08-17T02:30:00	0.2007	11.077	0.0	0.468319698	0.554503678	0.007733178	0.079781775	0.024589518
2019-08-17T02:35:00	0.2002	11.080	0.0	0.466579810	0.552142402	0.007681164	0.079245153	0.024424126
2019-08-17T02:40:00	0.2008	11.085	0.0	0.468653922	0.554957542	0.007743190	0.079885061	0.024621352
2019-08-17T02:45:00	0.2024	11.076	0.0	0.474188984	0.562486869	0.007909918	0.081605170	0.025151506
2019-08-17T02:50:00	0.2007	11.064	0.0	0.468294884	0.554469985	0.007732435	0.079774109	0.024587155
2019-08-17T02:55:00	0.2009	11.062	0.0	0.468981910	0.555403025	0.007753021	0.079986485	0.024652612
2019-08-17T03:00:00	0.2026	11.032	0.0	0.474862430	0.563404616	0.007930324	0.081815688	0.025216390
2019-08-17T03:05:00	0.2021	11.024	0.0	0.473125911	0.561038884	0.007877760	0.081273400	0.025049251
2019-08-17T03:10:00	0.2010	11.008	0.0	0.469309867	0.555848550	0.007762857	0.080087963	0.024683888
2019-08-17T03:15:00	0.2004	11.028	0.0	0.467570489	0.553486601	0.007710759	0.079550483	0.024518231
2019-08-17T03:20:00	0.2021	11.043	0.0	0.473453465	0.561484941	0.007887662	0.081375554	0.025080736
2019-08-17T03:25:00	0.2009	11.044	0.0	0.469291262	0.555823273	0.007762299	0.080082204	0.024682113
2019-08-17T03:30:00	0.1997	11.043	0.0	0.465123918	0.550168396	0.007637773	0.078797493	0.024286153
2019-08-17T03:35:00	0.1995	11.044	0.0	0.464423685	0.549219565	0.007616946	0.078582629	0.024219929
2019-08-17T03:40:00	0.2009	11.077	0.0	0.469272657	0.555797996	0.007761740	0.080076446	0.024680338
2019-08-17T03:45:00	0.2002	11.108	0.0	0.466839733	0.552495002	0.007688923	0.079325206	0.024448799
2019-08-17T03:50:00	0.2000	11.121	0.0	0.466139856	0.551545702	0.007668039	0.079109743	0.024382391
2019-08-17T03:55:00	0.2006	11.157	0.0	0.468214238	0.554360485	0.007730021	0.079749198	0.024579477
2019-08-17T04:00:00	0.2014	11.209	0.0	0.470980164	0.558118955	0.007813048	0.080605776	0.024843483
2019-08-17T04:05:00	0.2013	11.230	0.0	0.470676617	0.557706185	0.007803915	0.080511550	0.024814442
2019-08-17T04:10:00	0.2002	11.248	0.0	0.466560090	0.552115653	0.007680575	0.079239081	0.024422254
2019-08-17T04:15:00	0.2004	11.276	0.0	0.467296563	0.553114847	0.007702570	0.079466000	0.024492193
2019-08-17T04:20:00	0.1989	11.306	0.0	0.462134214	0.546119997	0.007549047	0.077882127	0.024004028
2019-08-17T04:25:00	0.1995	11.341	0.0	0.464260200	0.548998095	0.007612088	0.078532505	0.024204481
2019-08-17T04:30:00	0.1996	11.365	0.0	0.464650168	0.549526412	0.007623679	0.078652093	0.024241339
2019-08-17T04:35:00	0.2007	11.407	0.0	0.468508152	0.554759581	0.007738823	0.079840005	0.024607465
2019-08-17T04:40:00	0.2003	11.439	0.0	0.467164245	0.552935296	0.007698616	0.079425207	0.024479620
2019-08-17T04:45:00	0.2007	11.483	0.0	0.468593895	0.554876021	0.007741391	0.079866506	0.024615633
2019-08-17T04:50:00	0.1999	11.533	0.0	0.465515791	0.550699560	0.007649440	0.078917864	0.024323252
2019-08-17T04:55:00	0.1993	11.578	0.0	0.463476471	0.547936689	0.007588818	0.078292439	0.024130490
2019-08-17T05:00:00	0.1998	11.628	0.0	0.465254666	0.550345604	0.007641665	0.078837644	0.024298528
2019-08-17T05:05:00	0.1998	11.667	0.0	0.465297579	0.550403769	0.007642942	0.078850825	0.024302590
2019-08-17T05:10:00	0.1992	11.707	0.0	0.463258127	0.547641072	0.007582342	0.078225621	0.024109896
2019-08-17T05:15:00	0.1988	11.752	0.0	0.461912124	0.545819545	0.007542477	0.077814340	0.023983135
2019-08-17T05:20:00	0.2005	11.812	0.0	0.467854054	0.553871497	0.007719241	0.079637984	0.024545200
2019-08-17T05:25:00	0.2006	11.886	0.0	0.468243607	0.554400361	0.007730900	0.079758269	0.024582273
2019-08-17T05:30:00	0.2014	11.964	0.0	0.470712164	0.557754518	0.007804984	0.080522582	0.024817842
2019-08-17T05:35:00	0.2026	12.029	0.0	0.474909218	0.563468391	0.007931742	0.081830324	0.025220901
2019-08-17T05:40:00	0.2021	12.088	0.0	0.473221730	0.561169360	0.007880656	0.081303277	0.025058459
2019-08-17T05:45:00	0.2034	12.143	0.0	0.477761369	0.567359312	0.008018458	0.082724951	0.025496633
2019-08-17T05:50:00	0.2050	12.194	0.0	0.483330422	0.574975338	0.008189121	0.084485650	0.026039298
2019-08-17T05:55:00	0.2029	12.240	0.0	0.476118080	0.565116737	0.007968439	0.082208918	0.025337587
2019-08-17T06:00:00	0.2017	12.295	0.0	0.472008184	0.559517427	0.007844019	0.080925293	0.024941961
2019-08-17T06:05:00	0.2002	12.348	0.0	0.466853049	0.552513067	0.007689321	0.079329308	0.024450063
2019-08-17T06:10:00	0.1988	12.404	0.0	0.461690020	0.545519113	0.007535908	0.077746576	0.023962250
2019-08-17T06:15:00	0.1996	12.465	0.0	0.464510436	0.549337093	0.007619525	0.078609232	0.024228129
2019-08-17T06:20:00	0.2006	12.520	0.0	0.468021919	0.554099379	0.007724264	0.079689806	0.024561172
2019-08-17T06:25:00	0.2018	12.561	0.0	0.472222316	0.559808827	0.007850477	0.080991926	0.024962498
2019-08-17T06:30:00	0.2008	12.617	0.0	0.468800941	0.555157217	0.007747596	0.079930516	0.024635361
2019-08-17T06:35:00	0.1998	12.678	0.0	0.465376094	0.550510194	0.007645280	0.078874943	0.024310023
2019-08-17T06:40:00	0.2012	12.737	0.0	0.470272748	0.557157107	0.007791771	0.080386267	0.024775828
2019-08-17T06:45:00	0.2021	12.790	0.0	0.473432139	0.561455897	0.007887017	0.081368901	0.025078686
2019-08-17T06:50:00	0.2021	12.828	0.0	0.473128812	0.561042834	0.007877848	0.081274305	0.025049530
2019-08-17T06:55:00	0.2027	12.872	0.0	0.475247884	0.563930062	0.007942015	0.081936301	0.025253564
2019-08-17T07:00:00	0.2016	12.919	0.0	0.471483269	0.558803252	0.007828197	0.080762067	0.024891654
2019-08-17T07:05:00	0.2003	13.004	0.0	0.467020964	0.552740884	0.007694336	0.079381046	0.024466009
2019-08-17T07:10:00	0.2017	13.097	0.0	0.471915233	0.559390945	0.007841216	0.080896378	0.024933049
2019-08-17T07:15:00	0.2012	13.179	0.0	0.470226249	0.557093897	0.007790374	0.080371849	0.024771384
2019-08-17T07:20:00	0.2004	13.278	0.0	0.467496384	0.553386024	0.007708544	0.079527623	0.024511186
2019-08-17T07:25:00	0.2000	13.361	0.0	0.466152074	0.551562271	0.007668403	0.079113502	0.024383550
2019-08-17T07:30:00	0.1999	13.431	0.0	0.465501173	0.550679744	0.007649005	0.078913372	0.024321868
2019-08-17T07:35:00	0.1991	13.497	0.0	0.462767478	0.546976918	0.007567798	0.078075576	0.024063651
2019-08-17T07:40:00	0.1998	13.551	0.0	0.465240047	0.550325789	0.007641229	0.078833154	0.024297144
2019-08-17T07:45:00	0.2004	13.585	0.0	0.467364074	0.553206463	0.007704588	0.079486817	0.024498609
2019-08-17T07:50:00	0.2013	13.654	0.0	0.470526187	0.557501653	0.007799391	0.080464874	0.024800056
2019-08-17T07:55:00	0.2007	13.706	0.0	0.468489896	0.554734789	0.007738276	0.079834364	0.024605726
2019-08-17T08:00:00	0.2006	13.738	0.0	0.468186125	0.554322315	0.007729179	0.079740514	0.024576801
2019-08-17T08:05:00	0.2023	13.761	0.0	0.474117023	0.562388824	0.007907740	0.081582691	0.025144578
2019-08-17T08:10:00	0.2025	13.814	0.0	0.474505854	0.562918643	0.007919516	0.081704190	0.025182025
2019-08-17T08:15:00	0.2039	13.875	0.0	0.479389302	0.569583054	0.008068162	0.083237737	0.025654679
2019-08-17T08:20:00	0.2032	13.989	0.0	0.477012606	0.566337219	0.007995648	0.082489623	0.025424103
2019-08-17T08:25:00	0.2006	14.071	0.0	0.468053842	0.554142718	0.007725219	0.079699663	0.024564210
2019-08-17T08:30:00	0.2009	14.179	0.0	0.469136570	0.555613118	0.007757658	0.080034333	0.024667359
2019-08-17T08:35:00	0.2000	14.309	0.0	0.466058961	0.551436003	0.007665627	0.079084858	0.024374721
2019-08-17T08:40:00	0.2015	14.458	0.0	0.471300983	0.558555293	0.007822707	0.080705422	0.024874195
2019-08-17T08:45:00	0.2017	14.574	0.0	0.472036422	0.559555852	0.007844870	0.080934079	0.024944669
2019-08-17T08:50:00	0.2034	14.670	0.0	0.477614895	0.567159334	0.008013993	0.082678890	0.025482437
2019-08-17T08:55:00	0.2020	14.653	0.0	0.472814519	0.560614915	0.007868353	0.081176345	0.025019338
2019-08-17T09:00:00	0.2032	14.633	0.0	0.477008964	0.566332248	0.007995537	0.082488479	0.025423750
2019-08-17T09:05:00	0.2046	14.709	0.0	0.481888806	0.573001464	0.008144772	0.084028111	0.025898280
2019-08-17T09:10:00	0.2039	14.747	0.0	0.479513864	0.569753290	0.008071971	0.083277037	0.025666792
2019-08-17T09:15:00	0.2047	14.783	0.0	0.482319443	0.573590923	0.008158007	0.084164658	0.025940365
2019-08-17T09:20:00	0.2075	14.798	0.0	0.492014303	0.586900533	0.008458791	0.087267788	0.026896780
2019-08-17T09:25:00	0.2064	14.865	0.0	0.488268275	0.581748877	0.008341930	0.086062152	0.026525191
2019-08-17T09:30:00	0.2070	14.974	0.0	0.490377906	0.584648725	0.008407643	0.086740099	0.026734141
2019-08-17T09:35:00	0.2060	15.036	0.0	0.486630073	0.579499499	0.008291078	0.085537524	0.026363496
2019-08-17T09:40:00	0.2058	15.107	0.0	0.485983101	0.578611748	0.008271038	0.085330771	0.026299772
2019-08-17T09:45:00	0.2044	15.209	0.0	0.481194580	0.572051516	0.008123458	0.083808218	0.025830507
2019-08-17T09:50:00	0.2044	15.322	0.0	0.481237291	0.572109949	0.008124768	0.083821738	0.025834674
2019-08-17T09:55:00	0.2035	15.561	0.0	0.478170686	0.567918237	0.008030941	0.082853735	0.025536326
2019-08-17T10:00:00	0.2044	15.775	0.0	0.481322712	0.572226818	0.008127390	0.083848782	0.025843009
2019-08-17T10:05:00	0.2035	15.905	0.0	0.478158316	0.567901343	0.008030563	0.082849842	0.025535126
2019-08-17T10:10:00	0.2030	15.952	0.0	0.476374528	0.565466566	0.007976235	0.082289344	0.025362375
2019-08-17T10:15:00	0.2008	16.134	0.0	0.468702602	0.555023655	0.007744648	0.079900111	0.024625990
2019-08-17T10:20:00	0.1979	16.280	0.0	0.458580514	0.541317091	0.007444247	0.076800925	0.023670791
2019-08-17T10:25:00	0.2002	16.225	0.0	0.466858509	0.552520474	0.007689484	0.079330990	0.024450582
2019-08-17T10:30:00	0.2001	16.234	0.0	0.466456382	0.551974984	0.007677481	0.079207152	0.024412414
2019-08-17T10:35:00	0.2006	16.074	0.0	0.468134846	0.554252693	0.007727644	0.079724677	0.024571920
2019-08-17T10:40:00	0.2016	15.920	0.0	0.471544500	0.558886548	0.007830042	0.080781099	0.024897519
2019-08-17T10:45:00	0.1992	15.828	0.0	0.463167293	0.547518103	0.007579648	0.078197833	0.024101332
2019-08-17T10:50:00	0.1993	15.770	0.0	0.463459092	0.547913159	0.007588303	0.078287119	0.024128851
2019-08-17T10:55:00	0.1985	15.696	0.0	0.460972781	0.544549196	0.007514717	0.077527948	0.023894866
2019-08-17T11:00:00	0.1992	15.626	0.0	0.463348368	0.547763245	0.007585018	0.078253233	0.024118407
2019-08-17T11:05:00	0.1996	15.650	0.0	0.464681376	0.549568697	0.007624607	0.078661667	0.024244290
2019-08-17T11:10:00	0.2004	15.641	0.0	0.467401109	0.553256723	0.007705695	0.079498238	0.024502129
2019-08-17T11:15:00	0.2016	15.666	0.0	0.471504216	0.558831746	0.007828828	0.080768578	0.024893660
2019-08-17T11:20:00	0.2013	15.671	0.0	0.470409848	0.557343486	0.007795892	0.080428786	0.024788933
2019-08-17T11:25:00	0.1991	15.728	0.0	0.462724336	0.546918529	0.007566520	0.078062390	0.024059587
2019-08-17T11:30:00	0.2017	15.844	0.0	0.472031128	0.559548647	0.007844710	0.080932431	0.024944161
2019-08-17T11:35:00	0.2002	15.882	0.0	0.466777828	0.552411019	0.007687075	0.079306136	0.024442921
2019-08-17T11:40:00	0.1994	15.856	0.0	0.463946887	0.548573717	0.007602781	0.078436490	0.024174888
2019-08-17T11:45:00	0.1988	15.824	0.0	0.461808273	0.545679064	0.007539405	0.077782651	0.023973369
2019-08-17T11:50:00	0.2028	15.741	0.0	0.475617270	0.564433716	0.007953226	0.082051968	0.025289214
2019-08-17T11:55:00	0.1996	15.720	0.0	0.464474981	0.549289059	0.007618471	0.078598359	0.024224778
2019-08-17T12:00:00	0.2008	15.726	0.0	0.468928249	0.555330134	0.007751412	0.079969887	0.024647496
2019-08-17T12:05:00	0.1999	15.712	0.0	0.465752221	0.551020088	0.007656484	0.078990531	0.024345649
2019-08-17T12:10:00	0.1971	15.732	0.0	0.455969184	0.537794183	0.007367697	0.076011168	0.023427380
2019-08-17T12:15:00	0.1996	15.754	0.0	0.464600643	0.549459311	0.007622207	0.078636900	0.024236656
2019-08-17T12:20:00	0.1976	15.832	0.0	0.457597426	0.539990189	0.007415383	0.076503135	0.023579009
2019-08-17T12:25:00	0.1978	15.900	0.0	0.458237413	0.540853911	0.007434167	0.076696930	0.023638739
2019-08-17T12:30:00	0.1984	15.979	0.0	0.460614931	0.544065430	0.007504155	0.077418981	0.023861282
2019-08-17T12:35:00	0.1976	16.040	0.0	0.457778801	0.540234939	0.007420704	0.076558033	0.023595929
2019-08-17T12:40:00	0.1966	16.158	0.0	0.454244148	0.535469917	0.007317341	0.075491656	0.023267261
2019-08-17T12:45:00	0.1986	16.210	0.0	0.461143547	0.544780085	0.007519760	0.077579973	0.023910901
2019-08-17T12:50:00	0.1977	16.279	0.0	0.457960166	0.540479701	0.007426027	0.076612947	0.023612854
2019-08-17T12:55:00	0.1983	16.365	0.0	0.459990393	0.543221379	0.007485739	0.077228987	0.023802724
2019-08-17T13:00:00	0.1989	16.364	0.0	0.462366672	0.546434519	0.007555928	0.077953111	0.024025906
2019-08-17T13:05:00	0.1985	16.391	0.0	0.460921943	0.544480463	0.007513216	0.077512463	0.023890094
2019-08-17T13:10:00	0.1994	16.383	0.0	0.463991822	0.548634576	0.007604115	0.078450257	0.024179131
2019-08-17T13:15:00	0.1993	16.295	0.0	0.463589353	0.548089536	0.007592168	0.078326994	0.024141140
2019-08-17T13:20:00	0.2011	16.242	0.0	0.469776723	0.556482916	0.007776869	0.080232528	0.024728444
2019-08-17T13:25:00	0.2007	16.153	0.0	0.468335167	0.554524682	0.007733642	0.079786554	0.024590991
2019-08-17T13:30:00	0.2012	16.084	0.0	0.470012697	0.556803625	0.007783957	0.080305648	0.024750981
2019-08-17T13:35:00	0.2008	16.030	0.0	0.468917846	0.555316004	0.007751100	0.079966670	0.024646504
2019-08-17T13:40:00	0.2037	15.971	0.0	0.478898801	0.568912811	0.008053170	0.083083068	0.025607008
2019-08-17T13:45:00	0.2023	15.898	0.0	0.474002258	0.562232469	0.007904265	0.081546847	0.025133530
2019-08-17T13:50:00	0.2007	15.851	0.0	0.468405407	0.554620058	0.007735745	0.079808255	0.024597679
2019-08-17T13:55:00	0.2012	15.864	0.0	0.470082901	0.556899047	0.007786066	0.080327409	0.024757687
2019-08-17T14:00:00	0.2035	15.833	0.0	0.477987116	0.567667554	0.008025341	0.082795966	0.025518521
2019-08-17T14:05:00	0.2007	15.781	0.0	0.468586200	0.554865571	0.007741161	0.079864128	0.024614900
2019-08-17T14:10:00	0.2009	15.770	0.0	0.469224102	0.555732032	0.007760284	0.080061419	0.024675707
2019-08-17T14:15:00	0.1974	15.767	0.0	0.457017355	0.539207609	0.007398377	0.076327690	0.023524935
2019-08-17T14:20:00	0.1974	15.737	0.0	0.456961888	0.539132791	0.007396752	0.076310924	0.023519768
2019-08-17T14:25:00	0.1963	15.783	0.0	0.453078172	0.533900241	0.007283400	0.075141499	0.023159340
2019-08-17T14:30:00	0.1979	15.783	0.0	0.458589649	0.541329425	0.007444516	0.076803695	0.023671645
2019-08-17T14:35:00	0.1968	15.794	0.0	0.455055850	0.536563289	0.007341014	0.075735890	0.023342537
2019-08-17T14:40:00	0.1970	15.800	0.0	0.455696321	0.537426379	0.007359720	0.075928876	0.023402017
2019-08-17T14:45:00	0.1981	15.797	0.0	0.459466162	0.542513129	0.007470298	0.077069685	0.023753626
2019-08-17T14:50:00	0.1996	15.809	0.0	0.464620178	0.549485778	0.007622787	0.078642893	0.024238503
2019-08-17T14:55:00	0.1976	15.790	0.0	0.457617002	0.540016604	0.007415957	0.076509059	0.023580835
2019-08-17T15:00:00	0.1988	15.742	0.0	0.461732034	0.545575941	0.007537151	0.077759393	0.023966200
2019-08-17T15:05:00	0.1996	15.710	0.0	0.464454148	0.549260835	0.007617852	0.078591970	0.024222808
2019-08-17T15:10:00	0.2005	15.722	0.0	0.467867523	0.553889780	0.007719644	0.079642142	0.024546482
2019-08-17T15:15:00	0.2020	15.763	0.0	0.473008721	0.560879317	0.007874219	0.081236868	0.025037992
2019-08-17T15:20:00	0.2020	15.762	0.0	0.472953515	0.560804153	0.007872551	0.081219661	0.025032688
2019-08-17T15:25:00	0.2012	15.814	0.0	0.470127754	0.556960013	0.007787414	0.080341313	0.024761973
2019-08-17T15:30:00	0.1968	15.848	0.0	0.454793360	0.536209654	0.007333355	0.075656867	0.023318181
2019-08-17T15:35:00	0.1961	15.818	0.0	0.452300629	0.532854083	0.007260810	0.074908437	0.023087508
2019-08-17T15:40:00	0.1978	15.788	0.0	0.458508770	0.541220231	0.007442139	0.076779173	0.023664087
2019-08-17T15:45:00	0.1986	15.762	0.0	0.461233491	0.544901705	0.007522416	0.077607382	0.023919349
2019-08-17T15:50:00	0.1992	15.799	0.0	0.463261744	0.547645969	0.007582449	0.078226728	0.024110237
2019-08-17T15:55:00	0.2011	15.750	0.0	0.469796228	0.556509423	0.007777455	0.080238571	0.024730307
2019-08-17T16:00:00	0.2005	15.727	0.0	0.467661322	0.553609885	0.007713476	0.079578506	0.024526869
2019-08-17T16:05:00	0.2019	15.712	0.0	0.472560859	0.560269607	0.007860694	0.081097327	0.024994984
2019-08-17T16:10:00	0.2009	15.678	0.0	0.469146030	0.555625969	0.007757942	0.080037260	0.024668261
2019-08-17T16:15:00	0.2014	15.617	0.0	0.470927437	0.558047250	0.007811461	0.080589405	0.024838437
2019-08-17T16:20:00	0.2007	15.627	0.0	0.468550985	0.554817747	0.007740106	0.079853243	0.024611545
2019-08-17T16:25:00	0.2017	15.609	0.0	0.472064464	0.559594011	0.007845716	0.080942803	0.024947358
2019-08-17T16:30:00	0.2007	15.598	0.0	0.468302501	0.554480327	0.007732663	0.079776462	0.024587880
2019-08-17T16:35:00	0.2004	15.556	0.0	0.467311487	0.553135099	0.007703017	0.079470602	0.024493611
2019-08-17T16:40:00	0.2015	15.518	0.0	0.471172628	0.558380710	0.007818842	0.080665548	0.024861905
2019-08-17T16:45:00	0.1999	15.516	0.0	0.465675521	0.550916102	0.007654198	0.078966954	0.024338382
2019-08-17T16:50:00	0.2006	15.535	0.0	0.468152161	0.554276202	0.007728162	0.079730025	0.024573568
2019-08-17T16:55:00	0.2003	15.544	0.0	0.467161103	0.552931032	0.007698523	0.079424239	0.024479322
2019-08-17T17:00:00	0.1988	15.523	0.0	0.462004762	0.545944864	0.007545217	0.077842612	0.023991849
2019-08-17T17:05:00	0.1976	15.486	0.0	0.457536100	0.539907440	0.007413584	0.076484577	0.023573289
2019-08-17T17:10:00	0.1988	15.466	0.0	0.461755795	0.545608080	0.007537853	0.077766641	0.023968434
2019-08-17T17:15:00	0.1967	15.470	0.0	0.454503370	0.535819035	0.007324897	0.075569611	0.023291288
2019-08-17T17:20:00	0.1976	15.458	0.0	0.457683802	0.540106743	0.007417916	0.076529276	0.023587066
2019-08-17T17:25:00	0.1963	15.433	0.0	0.453209388	0.534076835	0.007287216	0.075180865	0.023171473
2019-08-17T17:30:00	0.1966	15.409	0.0	0.454303131	0.535549349	0.007319060	0.075509390	0.023272727
2019-08-17T17:35:00	0.1965	15.369	0.0	0.454004306	0.535146945	0.007310353	0.075419563	0.023245042
2019-08-17T17:40:00	0.1972	15.341	0.0	0.456141662	0.538026705	0.007372741	0.076063208	0.023443419
2019-08-17T17:45:00	0.1978	15.289	0.0	0.458277659	0.540908238	0.007435349	0.076709126	0.023642497
2019-08-17T17:50:00	0.1960	15.252	0.0	0.452062857	0.532534264	0.007253909	0.074837238	0.023065564
2019-08-17T17:55:00	0.1960	15.266	0.0	0.452112172	0.532600593	0.007255340	0.074852003	0.023070114
2019-08-17T18:00:00	0.1971	15.232	0.0	0.455990779	0.537823294	0.007368328	0.076017683	0.023429388
2019-08-17T18:05:00	0.1973	15.183	0.0	0.456735792	0.538827844	0.007390129	0.076242601	0.023498710
2019-08-17T18:10:00	0.1965	15.136	0.0	0.454001191	0.535142751	0.007310262	0.075418627	0.023244753
2019-08-17T18:15:00	0.1970	15.107	0.0	0.455442670	0.537084523	0.007352309	0.075852418	0.023378452
2019-08-17T18:20:00	0.1960	15.084	0.0	0.452010424	0.532463745	0.007252387	0.074821542	0.023060726
2019-08-17T18:25:00	0.1981	15.043	0.0	0.459366644	0.542378703	0.007467368	0.077039463	0.023744311
2019-08-17T18:30:00	0.1983	15.005	0.0	0.460110909	0.543384231	0.007489291	0.077265632	0.023814018
2019-08-17T18:35:00	0.2002	14.966	0.0	0.466755909	0.552381285	0.007686421	0.079299385	0.024440841
2019-08-17T18:40:00	0.2008	14.923	0.0	0.468885185	0.555271642	0.007750121	0.079956568	0.024643391
2019-08-17T18:45:00	0.1991	14.890	0.0	0.463037173	0.547341960	0.007575790	0.078158034	0.024089065
2019-08-17T18:50:00	0.1992	14.865	0.0	0.463086327	0.547408498	0.007577248	0.078173067	0.024093699
2019-08-17T18:55:00	0.1978	14.857	0.0	0.458271438	0.540899839	0.007435166	0.076707240	0.023641916
2019-08-17T19:00:00	0.1991	14.853	0.0	0.462837441	0.547071609	0.007569871	0.078096963	0.024070242
2019-08-17T19:05:00	0.1998	14.812	0.0	0.465316166	0.550428963	0.007643495	0.078856534	0.024304350
2019-08-17T19:10:00	0.1999	14.742	0.0	0.465712221	0.550965858	0.007655292	0.078978235	0.024341859
2019-08-17T19:15:00	0.2021	14.663	0.0	0.473384742	0.561391348	0.007885584	0.081354116	0.025074129
2019-08-17T19:20:00	0.2019	14.597	0.0	0.472741430	0.560515414	0.007866146	0.081153574	0.025012320
2019-08-17T19:25:00	0.2020	14.567	0.0	0.472790443	0.560582139	0.007867626	0.081168844	0.025017026
2019-08-17T19:30:00	0.2007	14.542	0.0	0.468336070	0.554525909	0.007733669	0.079786833	0.024591077
2019-08-17T19:35:00	0.2014	14.521	0.0	0.470810759	0.557888585	0.007807950	0.080553183	0.024827273
2019-08-17T19:40:00	0.1995	14.494	0.0	0.464272032	0.549014123	0.007612439	0.078536132	0.024205599
2019-08-17T19:45:00	0.2014	14.475	0.0	0.470908841	0.558021961	0.007810902	0.080583631	0.024836658
2019-08-17T19:50:00	0.2035	14.460	0.0	0.478223966	0.567991001	0.008032566	0.082870506	0.025541495
2019-08-17T19:55:00	0.2012	14.451	0.0	0.470314106	0.557213329	0.007793014	0.080399092	0.024779781
2019-08-17T20:00:00	0.2011	14.444	0.0	0.469670209	0.556338169	0.007773671	0.080199534	0.024718275
2019-08-17T20:05:00	0.1988	14.444	0.0	0.461740256	0.545587062	0.007537394	0.077761901	0.023966973
2019-08-17T20:10:00	0.1973	14.434	0.0	0.456575597	0.538611806	0.007385439	0.076194211	0.023483796
2019-08-17T20:15:00	0.1997	14.423	0.0	0.464962983	0.549950290	0.007632984	0.078748085	0.024270925
2019-08-17T20:20:00	0.1984	14.405	0.0	0.460498250	0.543907714	0.007500712	0.077383467	0.023850336
2019-08-17T20:25:00	0.1985	14.393	0.0	0.460894871	0.544443863	0.007512417	0.077504217	0.023887553
2019-08-17T20:30:00	0.1981	14.380	0.0	0.459554143	0.542631979	0.007472888	0.077096410	0.023761862
2019-08-17T20:35:00	0.1985	14.368	0.0	0.460645823	0.544107187	0.007505066	0.077428385	0.023864180
2019-08-17T20:40:00	0.1982	14.348	0.0	0.459652553	0.542764924	0.007475786	0.077126307	0.023771077
2019-08-17T20:45:00	0.1990	14.335	0.0	0.462480890	0.546589073	0.007559309	0.077988000	0.024036659
2019-08-17T20:50:00	0.1984	14.311	0.0	0.460445948	0.543837022	0.007499170	0.077367551	0.023845431
2019-08-17T20:55:00	0.1986	14.286	0.0	0.461189975	0.544842863	0.007521131	0.077594121	0.023915262
2019-08-17T21:00:00	0.1994	14.258	0.0	0.464017022	0.548668706	0.007604864	0.078457978	0.024181511
2019-08-17T21:05:00	0.1980	14.229	0.0	0.459203464	0.542158300	0.007462566	0.076989919	0.023729041
2019-08-17T21:10:00	0.1996	14.203	0.0	0.464462363	0.549271965	0.007618096	0.078594489	0.024223585
2019-08-17T21:15:00	0.1997	14.178	0.0	0.464858518	0.549808727	0.007629876	0.078716022	0.024261042
2019-08-17T21:20:00	0.2009	14.156	0.0	0.469069054	0.555521401	0.007755634	0.080013443	0.024660920
2019-08-17T21:25:00	0.1979	14.134	0.0	0.458705098	0.541485300	0.007447909	0.076838703	0.023682435
2019-08-17T21:30:00	0.1970	14.125	0.0	0.455624161	0.537329120	0.007357611	0.075907121	0.023395312
2019-08-17T21:35:00	0.1988	14.108	0.0	0.461930730	0.545844715	0.007543027	0.077820018	0.023984885
2019-08-17T21:40:00	0.1988	14.089	0.0	0.461979901	0.545911233	0.007544481	0.077835024	0.023989510
2019-08-17T21:45:00	0.1969	14.068	0.0	0.455075992	0.536590427	0.007341602	0.075741956	0.023344406
2019-08-17T21:50:00	0.1970	14.044	0.0	0.455473254	0.537125740	0.007353203	0.075861635	0.023381293
2019-08-17T21:55:00	0.1966	14.022	0.0	0.454130361	0.535316684	0.007314025	0.075457449	0.023256718
2019-08-17T22:00:00	0.1976	14.003	0.0	0.457658910	0.540073153	0.007417186	0.076521742	0.023584744
2019-08-17T22:05:00	0.1987	13.988	0.0	0.461574084	0.545362305	0.007532481	0.077711216	0.023951352
2019-08-17T22:10:00	0.1957	13.971	0.0	0.451230068	0.531414461	0.007229763	0.074588127	0.022988785
2019-08-17T22:15:00	0.1965	13.950	0.0	0.453760424	0.534818582	0.007303251	0.075346291	0.023222459
2019-08-17T22:20:00	0.1974	13.928	0.0	0.456984579	0.539163398	0.007397417	0.076317783	0.023521882
2019-08-17T22:25:00	0.1981	13.906	0.0	0.459510605	0.542573165	0.007471606	0.077083185	0.023757786
2019-08-17T22:30:00	0.2002	13.884	0.0	0.466546538	0.552097270	0.007680171	0.079234908	0.024420968
2019-08-17T22:35:00	0.2001	13.865	0.0	0.466291699	0.551751627	0.007672568	0.079156465	0.024396791
2019-08-17T22:40:00	0.2004	13.850	0.0	0.467424084	0.553287902	0.007706382	0.079505324	0.024504313
2019-08-17T22:45:00	0.1990	13.839	0.0	0.462658344	0.546829217	0.007564565	0.078042221	0.024053371
2019-08-17T22:50:00	0.1979	13.832	0.0	0.458581223	0.541318048	0.007444268	0.076801140	0.023670857
2019-08-17T22:55:00	0.1986	13.830	0.0	0.461106050	0.544729384	0.007518652	0.077568548	0.023907380
2019-08-17T23:00:00	0.1983	13.833	0.0	0.460155895	0.543445022	0.007490617	0.077279313	0.023818235
2019-08-17T23:05:00	0.1961	13.838	0.0	0.452594832	0.533249868	0.007269354	0.074996580	0.023114674
2019-08-17T23:10:00	0.1974	13.838	0.0	0.456863753	0.539000427	0.007393877	0.076281266	0.023510627
2019-08-17T23:15:00	0.1989	13.841	0.0	0.462169261	0.546167414	0.007550084	0.077892827	0.024007326
2019-08-17T23:20:00	0.1993	13.841	0.0	0.463650177	0.548171898	0.007593973	0.078345616	0.024146880
2019-08-17T23:25:00	0.1980	13.839	0.0	0.459226692	0.542189672	0.007463250	0.076996970	0.023731214
2019-08-17T23:30:00	0.1999	13.838	0.0	0.465569428	0.550772272	0.007651038	0.078934346	0.024328332
2019-08-17T23:35:00	0.2010	13.835	0.0	0.469475422	0.556073488	0.007767825	0.080139214	0.024699684
2019-08-17T23:40:00	0.1993	13.837	0.0	0.463671368	0.548200594	0.007594602	0.078352105	0.024148880
2019-08-17T23:45:00	0.1989	13.841	0.0	0.462027419	0.545975516	0.007545887	0.077849527	0.023993980
2019-08-17T23:50:00	0.1974	13.846	0.0	0.456906222	0.539057708	0.007395121	0.076294100	0.023514583
2019-08-17T23:55:00	0.1991	13.848	0.0	0.462906143	0.547164599	0.007571907	0.078117967	0.024076716
2019-08-18T00:00:00	0.1978	13.855	0.0	0.458481679	0.541183656	0.007441343	0.076770961	0.023661556
2019-08-18T00:05:00	0.1988	13.848	0.0	0.461701310	0.545534384	0.007536242	0.077750020	0.023963311
2019-08-18T00:10:00	0.2014	13.851	0.0	0.470811661	0.557889812	0.007807977	0.080553463	0.024827360
2019-08-18T00:15:00	0.2017	13.849	0.0	0.471942530	0.559428089	0.007842039	0.080904869	0.024935666
2019-08-18T00:20:00	0.2002	13.853	0.0	0.466836394	0.552490472	0.007688824	0.079324177	0.024448482
2019-08-18T00:25:00	0.2011	13.855	0.0	0.469701567	0.556380782	0.007774613	0.080209247	0.024721269
2019-08-18T00:30:00	0.1993	13.853	0.0	0.463550783	0.548037309	0.007591023	0.078315186	0.024137501
2019-08-18T00:35:00	0.1997	13.855	0.0	0.465031092	0.550042591	0.007635010	0.078768993	0.024277369
2019-08-18T00:40:00	0.2002	13.853	0.0	0.466857566	0.552519195	0.007689456	0.079330699	0.024450492
2019-08-18T00:45:00	0.1981	13.858	0.0	0.459311569	0.542304312	0.007465747	0.077022739	0.023739156
2019-08-18T00:50:00	0.1992	13.856	0.0	0.463224821	0.547595983	0.007581354	0.078215432	0.024106756
2019-08-18T00:55:00	0.1986	13.852	0.0	0.461233295	0.544901439	0.007522411	0.077607322	0.023919330
2019-08-18T01:00:00	0.2008	13.848	0.0	0.468958868	0.555371725	0.007752330	0.079979358	0.024650415
2019-08-18T01:05:00	0.1999	13.840	0.0	0.465583299	0.550791077	0.007651451	0.078938609	0.024329646
2019-08-18T01:10:00	0.1999	13.836	0.0	0.465675325	0.550915836	0.007654193	0.078966893	0.024338363
2019-08-18T01:15:00	0.2008	13.837	0.0	0.468888090	0.555275587	0.007750208	0.079957467	0.024643668
2019-08-18T01:20:00	0.2016	13.841	0.0	0.471405210	0.558697066	0.007825846	0.080737808	0.024884177
2019-08-18T01:25:00	0.2020	13.842	0.0	0.472882077	0.560706891	0.007870393	0.081197397	0.025025826
2019-08-18T01:30:00	0.2000	13.842	0.0	0.466043403	0.551414906	0.007665163	0.079080072	0.024373246
2019-08-18T01:35:00	0.2008	13.843	0.0	0.468909249	0.555304327	0.007750842	0.079964011	0.024645685
2019-08-18T01:40:00	0.1993	13.845	0.0	0.463451385	0.547902724	0.007588074	0.078284761	0.024128124
2019-08-18T01:45:00	0.1962	13.842	0.0	0.452764920	0.533478714	0.007274295	0.075047562	0.023130387
2019-08-18T01:50:00	0.1962	13.841	0.0	0.452857297	0.533603013	0.007276980	0.075075258	0.023138924
2019-08-18T01:55:00	0.1958	13.839	0.0	0.451556445	0.531853257	0.007239221	0.074685707	0.023018860
2019-08-18T02:00:00	0.1966	13.836	0.0	0.454086555	0.535257697	0.007312749	0.075444282	0.023252660
2019-08-18T02:05:00	0.1977	13.831	0.0	0.458005890	0.540541412	0.007427369	0.076626795	0.023617122
2019-08-18T02:10:00	0.1959	13.830	0.0	0.451833669	0.532226034	0.007247260	0.074768641	0.023044421
2019-08-18T02:15:00	0.1987	13.834	0.0	0.461665472	0.545485910	0.007535182	0.077739089	0.023959942
2019-08-18T02:20:00	0.1996	13.833	0.0	0.464535042	0.549370430	0.007620256	0.078616779	0.024230455
2019-08-18T02:25:00	0.1997	13.835	0.0	0.464974105	0.549965363	0.007633315	0.078751499	0.024271977
2019-08-18T02:30:00	0.1984	13.836	0.0	0.460552361	0.543980853	0.007502309	0.077399936	0.023855412
2019-08-18T02:35:00	0.1978	13.835	0.0	0.458211580	0.540819040	0.007433408	0.076689103	0.023636326
2019-08-18T02:40:00	0.1978	13.835	0.0	0.458303807	0.540943535	0.007436117	0.076717049	0.023644940
2019-08-18T02:45:00	0.1968	13.837	0.0	0.454917532	0.536376936	0.007336977	0.075694244	0.023329701
2019-08-18T02:50:00	0.1973	13.841	0.0	0.456749502	0.538846335	0.007390531	0.076246744	0.023499987
2019-08-18T02:55:00	0.1972	13.843	0.0	0.456146036	0.538032602	0.007372869	0.076064528	0.023443826
2019-08-18T03:00:00	0.1978	13.838	0.0	0.458325033	0.540972187	0.007436741	0.076723481	0.023646922
2019-08-18T03:05:00	0.2000	13.838	0.0	0.466057272	0.551433712	0.007665576	0.079084338	0.024374561
2019-08-18T03:10:00	0.1985	13.837	0.0	0.460942208	0.544507860	0.007513814	0.077518635	0.023891996
2019-08-18T03:15:00	0.1977	13.839	0.0	0.457906329	0.540407041	0.007424446	0.076596644	0.023607830
2019-08-18T03:20:00	0.1977	13.834	0.0	0.457998565	0.540531525	0.007427154	0.076624576	0.023616439
2019-08-18T03:25:00	0.1980	13.834	0.0	0.459133741	0.542064134	0.007460515	0.076968754	0.023722518
2019-08-18T03:30:00	0.1986	13.837	0.0	0.461310803	0.545006250	0.007524700	0.077630946	0.023926611
2019-08-18T03:35:00	0.1968	13.840	0.0	0.454796631	0.536214062	0.007333450	0.075657851	0.023318485
2019-08-18T03:40:00	0.1964	13.843	0.0	0.453496531	0.534463327	0.007295569	0.075267046	0.023198034
2019-08-18T03:45:00	0.1984	13.841	0.0	0.460545041	0.543970959	0.007502093	0.077397708	0.023854725
2019-08-18T03:50:00	0.1964	13.846	0.0	0.453333066	0.534243297	0.007290813	0.075217979	0.023182912
2019-08-18T03:55:00	0.1953	13.850	0.0	0.449593206	0.529215057	0.007182418	0.074099680	0.022838241
2019-08-18T04:00:00	0.1963	13.854	0.0	0.453169594	0.534023277	0.007286059	0.075168925	0.023167793
2019-08-18T04:05:00	0.1968	13.855	0.0	0.454805422	0.536225904	0.007333706	0.075660497	0.023319300
2019-08-18T04:10:00	0.1958	13.861	0.0	0.451566704	0.531867051	0.007239518	0.074688776	0.023019806
2019-08-18T04:15:00	0.1970	13.870	0.0	0.455639886	0.537350314	0.007358071	0.075911862	0.023396773
2019-08-18T04:20:00	0.1963	13.888	0.0	0.453098483	0.533927576	0.007283991	0.075147592	0.023161218
2019-08-18T04:25:00	0.1989	13.900	0.0	0.462035443	0.545986372	0.007546125	0.077851977	0.023994735
2019-08-18T04:30:00	0.1980	13.909	0.0	0.459151300	0.542087848	0.007461031	0.076974084	0.023724160
2019-08-18T04:35:00	0.1975	13.916	0.0	0.457308191	0.539599945	0.007406901	0.076415630	0.023552039
2019-08-18T04:40:00	0.1973	13.915	0.0	0.456507829	0.538520421	0.007383455	0.076173745	0.023477488
2019-08-18T04:45:00	0.1968	13.908	0.0	0.455011308	0.536503277	0.007339714	0.075722478	0.023338403
2019-08-18T04:50:00	0.1967	13.912	0.0	0.454558484	0.535893269	0.007326504	0.075586191	0.023296398
2019-08-18T04:55:00	0.1950	13.925	0.0	0.448531140	0.527789121	0.007151780	0.073783595	0.022740821
2019-08-18T05:00:00	0.1971	13.925	0.0	0.456088899	0.537955571	0.007371198	0.076047287	0.023438512
2019-08-18T05:05:00	0.1983	13.928	0.0	0.460156604	0.543445980	0.007490638	0.077279529	0.023818301
2019-08-18T05:10:00	0.1985	13.932	0.0	0.460746916	0.544243844	0.007508049	0.077459162	0.023873666
2019-08-18T05:15:00	0.1991	13.938	0.0	0.462726303	0.546921191	0.007566578	0.078062991	0.024059772
2019-08-18T05:20:00	0.1991	13.970	0.0	0.462968984	0.547249659	0.007573769	0.078137182	0.024082638
2019-08-18T05:25:00	0.1978	13.986	0.0	0.458347715	0.541002806	0.007437407	0.076730356	0.023649041
2019-08-18T05:30:00	0.1969	14.015	0.0	0.455112413	0.536639500	0.007342665	0.075752924	0.023347787
2019-08-18T05:35:00	0.1970	14.033	0.0	0.455703612	0.537436206	0.007359933	0.075931075	0.023402695
2019-08-18T05:40:00	0.1964	14.043	0.0	0.453510452	0.534482066	0.007295975	0.075271225	0.023199323
2019-08-18T05:45:00	0.1957	14.073	0.0	0.450967436	0.531061428	0.007222156	0.074509651	0.022964598
2019-08-18T05:50:00	0.1957	14.080	0.0	0.451210968	0.531388785	0.007229209	0.074582418	0.022987026
2019-08-18T05:55:00	0.1941	14.103	0.0	0.445526621	0.523760040	0.007065455	0.072892992	0.022466328
2019-08-18T06:00:00	0.1965	14.134	0.0	0.453787515	0.534855054	0.007304039	0.075354428	0.023224967
2019-08-18T06:05:00	0.1966	14.205	0.0	0.454030842	0.535182677	0.007311126	0.075427538	0.023247500
2019-08-18T06:10:00	0.1958	14.239	0.0	0.451488221	0.531761526	0.007237243	0.074665304	0.023012572
2019-08-18T06:15:00	0.1981	14.249	0.0	0.459386918	0.542406088	0.007467965	0.077045619	0.023746208
2019-08-18T06:20:00	0.1961	14.249	0.0	0.452323509	0.532884862	0.007261474	0.074915291	0.023089620
2019-08-18T06:25:00	0.1945	14.272	0.0	0.446989923	0.525721450	0.007107434	0.073326085	0.022599812
2019-08-18T06:30:00	0.1958	14.310	0.0	0.451417075	0.531665871	0.007235181	0.074644031	0.023006015
2019-08-18T06:35:00	0.1973	14.348	0.0	0.456534188	0.538555965	0.007384227	0.076181705	0.023479941
2019-08-18T06:40:00	0.1948	14.374	0.0	0.448070094	0.527170393	0.007138500	0.073646588	0.022698594
2019-08-18T06:45:00	0.1944	14.493	0.0	0.446569802	0.525158147	0.007095369	0.073201614	0.022561448
2019-08-18T06:50:00	0.1941	14.530	0.0	0.445417874	0.523614342	0.007062340	0.072860857	0.022456424
2019-08-18T06:55:00	0.1953	14.537	0.0	0.449498527	0.529087905	0.007179684	0.074071475	0.022829548
2019-08-18T07:00:00	0.1950	14.515	0.0	0.448696301	0.528010808	0.007156540	0.073832706	0.022755957
2019-08-18T07:05:00	0.1932	14.572	0.0	0.442309069	0.519453149	0.006973577	0.071945106	0.022174180
2019-08-18T07:10:00	0.1958	14.550	0.0	0.451274779	0.531474567	0.007231058	0.074601491	0.022992904
2019-08-18T07:15:00	0.1952	14.611	0.0	0.449427339	0.528992305	0.007177629	0.074050272	0.022823013
2019-08-18T07:20:00	0.1963	14.690	0.0	0.453154922	0.534003532	0.007285632	0.075164524	0.023166436
2019-08-18T07:25:00	0.1936	14.768	0.0	0.443634835	0.521226782	0.007011363	0.072334941	0.022294331
2019-08-18T07:30:00	0.1941	14.853	0.0	0.445624337	0.523890965	0.007068254	0.072921874	0.022475230
2019-08-18T07:35:00	0.1913	14.934	0.0	0.436924762	0.510685478	0.006800120	0.070155586	0.021622633
2019-08-18T07:40:00	0.1905	15.108	0.0	0.434663940	0.506829984	0.006725481	0.069385548	0.021385300
2019-08-18T07:45:00	0.1903	15.268	0.0	0.434309315	0.506226518	0.006713819	0.069265233	0.021348218
2019-08-18T07:50:00	0.1901	15.475	0.0	0.433681938	0.505159767	0.006693218	0.069052693	0.021282711
2019-08-18T07:55:00	0.1885	15.647	0.0	0.429230666	0.497622609	0.006548159	0.067556153	0.020821462
2019-08-18T08:00:00	0.1878	15.835	0.0	0.427233088	0.494258104	0.006483692	0.066891053	0.020616472
2019-08-18T08:05:00	0.1860	15.913	0.0	0.422489736	0.486313270	0.006332165	0.065327776	0.020134655
2019-08-18T08:10:00	0.1882	16.137	0.0	0.428436648	0.496283924	0.006522488	0.067291302	0.020739833
2019-08-18T08:15:00	0.1890	16.359	0.0	0.430541481	0.499836430	0.006590675	0.067994777	0.020956651
2019-08-18T08:20:00	0.1871	16.495	0.0	0.425533692	0.491404546	0.006429153	0.066328389	0.020443054
2019-08-18T08:25:00	0.1858	16.681	0.0	0.421884423	0.485303891	0.006312985	0.065129900	0.020073668
2019-08-18T08:30:00	0.1862	16.820	0.0	0.422900086	0.486998119	0.006345187	0.065462127	0.020176063
2019-08-18T08:35:00	0.1850	16.961	0.0	0.419795024	0.481827534	0.006247052	0.064449683	0.019864018
2019-08-18T08:40:00	0.1845	17.154	0.0	0.418336457	0.479407909	0.006201275	0.063977409	0.019718459
2019-08-18T08:45:00	0.1845	17.552	0.0	0.418253583	0.479270606	0.006198680	0.063950639	0.019710208
2019-08-18T08:50:00	0.1834	17.725	0.0	0.415139555	0.474125078	0.006101655	0.062949649	0.019401693
2019-08-18T08:55:00	0.1847	17.852	0.0	0.418913553	0.480364555	0.006219362	0.064164016	0.019775973
2019-08-18T09:00:00	0.1857	18.035	0.0	0.421580235	0.484797030	0.006303360	0.065030599	0.020043062
2019-08-18T09:05:00	0.1851	18.256	0.0	0.419848289	0.481916008	0.006248727	0.064466970	0.019869346
2019-08-18T09:10:00	0.1863	18.667	0.0	0.423336907	0.487727659	0.006359068	0.065605329	0.020220200
2019-08-18T09:15:00	0.1873	19.038	0.0	0.425996340	0.492180613	0.006443973	0.066481283	0.020490177
2019-08-18T09:20:00	0.1873	19.093	0.0	0.425913857	0.492042208	0.006441329	0.066454009	0.020481771
2019-08-18T09:25:00	0.1875	19.206	0.0	0.426653170	0.493283429	0.006465049	0.066698719	0.020557193
2019-08-18T09:30:00	0.1871	19.303	0.0	0.425474839	0.491305866	0.006427270	0.066308955	0.020437064
2019-08-18T09:35:00	0.1892	19.206	0.0	0.431137847	0.500845208	0.006610073	0.068194906	0.021018332
2019-08-18T09:40:00	0.1867	19.066	0.0	0.424213087	0.489192570	0.006386965	0.065893140	0.020308906
2019-08-18T09:45:00	0.1884	18.850	0.0	0.429060260	0.497335162	0.006542645	0.067499259	0.020803927
2019-08-18T09:50:00	0.1886	18.692	0.0	0.429524794	0.498118942	0.006557685	0.067654423	0.020851750
2019-08-18T09:55:00	0.1883	18.574	0.0	0.428622084	0.496596404	0.006528477	0.067353098	0.020758879
2019-08-18T10:00:00	0.1879	18.538	0.0	0.427718877	0.495075295	0.006499334	0.067052429	0.020666210
2019-08-18T10:05:00	0.1890	18.453	0.0	0.430685556	0.500080049	0.006595358	0.068043093	0.020971542
2019-08-18T10:10:00	0.1917	18.349	0.0	0.438004489	0.512531828	0.006835944	0.070525178	0.021736545
2019-08-18T10:15:00	0.1909	18.374	0.0	0.435786128	0.508741924	0.006762466	0.069767117	0.021502903
2019-08-18T10:20:00	0.1904	18.443	0.0	0.434382766	0.506351480	0.006716233	0.069290142	0.021355895
2019-08-18T10:25:00	0.1904	18.391	0.0	0.434341734	0.506281670	0.006714885	0.069276226	0.021351606
2019-08-18T10:30:00	0.1902	18.285	0.0	0.434028081	0.505748190	0.006704579	0.069169909	0.021318838
2019-08-18T10:35:00	0.1895	18.359	0.0	0.432077395	0.502436501	0.006640705	0.068510929	0.021115734
2019-08-18T10:40:00	0.1898	18.219	0.0	0.432855015	0.503755400	0.006666123	0.068773163	0.021196557
2019-08-18T10:45:00	0.1898	18.246	0.0	0.432813946	0.503685701	0.006664779	0.068759298	0.021192283
2019-08-18T10:50:00	0.1908	18.221	0.0	0.435499127	0.508252608	0.006752995	0.069669408	0.021472788
2019-08-18T10:55:00	0.1893	18.599	0.0	0.431366961	0.501233028	0.006617535	0.068271888	0.021042059
2019-08-18T11:00:00	0.1890	19.013	0.0	0.430506388	0.499777100	0.006589534	0.067983011	0.020953024
2019-08-18T11:05:00	0.1899	19.281	0.0	0.433195306	0.504333088	0.006677265	0.068888110	0.021231984
2019-08-18T11:10:00	0.1908	19.290	0.0	0.435607510	0.508437366	0.006756571	0.069706297	0.021484158
2019-08-18T11:15:00	0.1910	19.136	0.0	0.436111201	0.509296427	0.006773203	0.069877888	0.021537044
2019-08-18T11:20:00	0.1888	19.176	0.0	0.430068597	0.499037230	0.006575318	0.067836341	0.020907819
2019-08-18T11:25:00	0.1895	19.125	0.0	0.431939470	0.502202746	0.006636203	0.068464481	0.021101418
2019-08-18T11:30:00	0.1918	19.415	0.0	0.438165385	0.512807242	0.006841293	0.070580355	0.021753551
2019-08-18T11:35:00	0.1893	19.891	0.0	0.431311194	0.501138617	0.006615718	0.068253145	0.021036282
2019-08-18T11:40:00	0.1933	20.017	0.0	0.442816484	0.520131816	0.006988027	0.072094188	0.022220129
2019-08-18T11:45:00	0.1918	19.958	0.0	0.438314531	0.513062607	0.006846253	0.070631526	0.021769322
2019-08-18T11:50:00	0.1908	19.884	0.0	0.435551885	0.508342539	0.006754736	0.069687363	0.021478322
2019-08-18T11:55:00	0.1915	19.931	0.0	0.437416592	0.511526111	0.006816424	0.070323793	0.021674476
2019-08-18T12:00:00	0.1896	20.093	0.0	0.432197780	0.502640573	0.006644636	0.068551486	0.021128234
2019-08-18T12:05:00	0.1906	20.333	0.0	0.434883957	0.507204563	0.006732723	0.069460257	0.021408326
2019-08-18T12:10:00	0.1891	20.723	0.0	0.431023417	0.500651569	0.006606348	0.068156478	0.021006488
2019-08-18T12:15:00	0.1876	20.703	0.0	0.426880026	0.493664597	0.006472338	0.066773917	0.020580370
2019-08-18T12:20:00	0.1904	20.575	0.0	0.434488351	0.506531139	0.006719705	0.069325959	0.021366934
2019-08-18T12:25:00	0.1897	20.609	0.0	0.432538206	0.503217867	0.006655760	0.068666253	0.021163606
2019-08-18T12:30:00	0.1906	20.734	0.0	0.434951364	0.507319350	0.006734942	0.069483156	0.021415384
2019-08-18T12:35:00	0.1886	20.667	0.0	0.429451406	0.497995080	0.006555307	0.067629896	0.020844191
2019-08-18T12:40:00	0.1877	20.770	0.0	0.426947760	0.493778434	0.006474515	0.066796379	0.020587293
2019-08-18T12:45:00	0.1893	20.811	0.0	0.431554943	0.501551333	0.006623661	0.068335089	0.021061538
2019-08-18T12:50:00	0.1890	21.053	0.0	0.430694468	0.500095120	0.006595648	0.068046082	0.020972463
2019-08-18T12:55:00	0.1884	21.232	0.0	0.429013334	0.497256021	0.006541127	0.067483597	0.020799100
2019-08-18T13:00:00	0.1886	21.309	0.0	0.429519034	0.498109221	0.006557498	0.067652498	0.020851157
2019-08-18T13:05:00	0.1876	21.215	0.0	0.426741665	0.493432102	0.006467892	0.066728047	0.020566232
2019-08-18T13:10:00	0.1881	21.048	0.0	0.428069155	0.495664937	0.006510627	0.067168936	0.020702118
2019-08-18T13:15:00	0.1887	21.079	0.0	0.429668959	0.498362305	0.006562356	0.067702621	0.020866605
2019-08-18T13:20:00	0.1867	21.445	0.0	0.424425559	0.489548128	0.006393741	0.065963050	0.020330453
2019-08-18T13:25:00	0.1879	21.656	0.0	0.427671914	0.494996265	0.006497821	0.067036817	0.020661398
2019-08-18T13:30:00	0.1862	21.657	0.0	0.422971156	0.487116779	0.006347444	0.065485413	0.020183240
2019-08-18T13:35:00	0.1867	21.329	0.0	0.424301714	0.489340866	0.006389791	0.065922296	0.020317892
2019-08-18T13:40:00	0.1909	21.311	0.0	0.435739393	0.508662229	0.006760923	0.069751200	0.021497997
2019-08-18T13:45:00	0.1919	21.393	0.0	0.438419867	0.513243000	0.006849757	0.070667680	0.021780465
2019-08-18T13:50:00	0.1910	21.590	0.0	0.436202058	0.509451463	0.006776206	0.069908867	0.021546592
2019-08-18T13:55:00	0.1901	21.536	0.0	0.433708624	0.505205120	0.006694093	0.069061726	0.021285495
2019-08-18T14:00:00	0.1882	21.523	0.0	0.428478106	0.496353777	0.006523826	0.067305114	0.020744090
2019-08-18T14:05:00	0.1903	21.563	0.0	0.434171854	0.505992693	0.006709302	0.069218630	0.021333854
2019-08-18T14:10:00	0.1887	21.676	0.0	0.429763049	0.498521169	0.006565407	0.067734090	0.020876304
2019-08-18T14:15:00	0.1899	21.508	0.0	0.432998890	0.503999606	0.006670832	0.068821748	0.021211531
2019-08-18T14:20:00	0.1899	21.484	0.0	0.432957824	0.503929897	0.006669488	0.068807878	0.021207256
2019-08-18T14:25:00	0.1875	21.672	0.0	0.426629813	0.493244192	0.006464299	0.066690979	0.020554807
2019-08-18T14:30:00	0.1878	21.629	0.0	0.427410009	0.494555644	0.006489386	0.066949797	0.020634578
2019-08-18T14:35:00	0.1875	21.319	0.0	0.426547362	0.493105696	0.006461651	0.066663663	0.020546388
2019-08-18T14:40:00	0.1872	21.135	0.0	0.425684260	0.491657051	0.006433974	0.066378125	0.020458383
2019-08-18T14:45:00	0.1900	20.976	0.0	0.433298094	0.504507646	0.006680632	0.068922854	0.021242693
2019-08-18T14:50:00	0.1910	20.748	0.0	0.435982493	0.509076845	0.006768951	0.069834017	0.021523522
2019-08-18T14:55:00	0.1921	20.727	0.0	0.439206263	0.514590714	0.006875954	0.070937946	0.021863764
2019-08-18T15:00:00	0.1896	20.760	0.0	0.432356364	0.502909459	0.006649817	0.068604934	0.021144707
2019-08-18T15:05:00	0.1899	20.746	0.0	0.433133853	0.504228739	0.006675252	0.068867343	0.021225584
2019-08-18T15:10:00	0.1906	20.920	0.0	0.435001269	0.507404341	0.006736586	0.069500112	0.021420610
2019-08-18T15:15:00	0.1913	21.020	0.0	0.436866591	0.510586097	0.006798193	0.070135708	0.021616506
2019-08-18T15:20:00	0.1896	21.275	0.0	0.432192030	0.502630825	0.006644448	0.068549549	0.021127637
2019-08-18T15:25:00	0.1900	21.410	0.0	0.433242391	0.504413045	0.006678807	0.068904024	0.021236889
2019-08-18T15:30:00	0.1897	21.217	0.0	0.432655684	0.503417160	0.006659602	0.068705885	0.021175821
2019-08-18T15:35:00	0.1930	21.030	0.0	0.441742333	0.518695382	0.006957454	0.071778775	0.022122915
2019-08-18T15:40:00	0.1913	20.878	0.0	0.436933918	0.510701121	0.006800423	0.070158715	0.021623597
2019-08-18T15:45:00	0.1919	20.616	0.0	0.438525197	0.513423412	0.006853262	0.070703842	0.021791611
2019-08-18T15:50:00	0.1932	20.356	0.0	0.442283310	0.519418703	0.006972844	0.071937542	0.022171849
2019-08-18T15:55:00	0.1948	20.149	0.0	0.447815668	0.526829022	0.007131177	0.073571034	0.022675307
2019-08-18T16:00:00	0.1951	20.150	0.0	0.448809325	0.528162528	0.007159799	0.073866323	0.022766318
2019-08-18T16:05:00	0.1923	20.261	0.0	0.439542830	0.515168045	0.006887184	0.071053809	0.021899474
2019-08-18T16:10:00	0.1922	20.284	0.0	0.439324134	0.514792868	0.006879885	0.070978509	0.021876266
2019-08-18T16:15:00	0.1900	20.173	0.0	0.433387529	0.504659553	0.006683564	0.068953093	0.021252013
2019-08-18T16:20:00	0.1891	20.071	0.0	0.430984313	0.500585404	0.006605076	0.068143348	0.021002442
2019-08-18T16:25:00	0.1873	19.976	0.0	0.425839873	0.491918082	0.006438959	0.066429551	0.020474233
2019-08-18T16:30:00	0.1886	19.835	0.0	0.429451406	0.497995080	0.006555307	0.067629896	0.020844191
2019-08-18T16:35:00	0.1886	19.948	0.0	0.429504791	0.498085180	0.006557037	0.067647737	0.020849690
2019-08-18T16:40:00	0.1893	19.834	0.0	0.431470728	0.501408722	0.006620916	0.068306771	0.021052810
2019-08-18T16:45:00	0.1874	19.619	0.0	0.426327813	0.492737006	0.006454604	0.066590959	0.020523980
2019-08-18T16:50:00	0.1866	19.496	0.0	0.424188545	0.489151509	0.006386183	0.065885068	0.020306418
2019-08-18T16:55:00	0.1857	19.537	0.0	0.421497092	0.484658536	0.006300730	0.065003474	0.020034702
2019-08-18T17:00:00	0.1869	19.523	0.0	0.424844085	0.490248871	0.006407102	0.066100889	0.020372936
2019-08-18T17:05:00	0.1864	19.442	0.0	0.423526247	0.488044042	0.006365090	0.065667459	0.020239349
2019-08-18T17:10:00	0.1859	19.252	0.0	0.422207341	0.485842241	0.006323212	0.065235416	0.020106189
2019-08-18T17:15:00	0.1857	19.087	0.0	0.421711662	0.485015992	0.006307517	0.065073492	0.020056282
2019-08-18T17:20:00	0.1827	18.936	0.0	0.413227417	0.470978755	0.006042538	0.062339749	0.019213716
2019-08-18T17:25:00	0.1834	18.802	0.0	0.415213155	0.474246384	0.006103937	0.062973197	0.019408951
2019-08-18T17:30:00	0.1810	18.734	0.0	0.408634082	0.463461729	0.005901951	0.060889337	0.018766685
2019-08-18T17:35:00	0.1813	18.626	0.0	0.409518764	0.464905015	0.005928872	0.061167080	0.018852288
2019-08-18T17:40:00	0.1803	18.496	0.0	0.406802526	0.460480516	0.005846451	0.060316759	0.018590211
2019-08-18T17:45:00	0.1814	18.422	0.0	0.409626857	0.465081508	0.005932166	0.061201068	0.018862763
2019-08-18T17:50:00	0.1791	18.372	0.0	0.403302378	0.454808884	0.005741272	0.059231642	0.018255767
2019-08-18T17:55:00	0.1773	18.297	0.0	0.398346735	0.446835982	0.005594324	0.057715610	0.017788512
2019-08-18T18:00:00	0.1802	18.237	0.0	0.406464512	0.459931337	0.005836243	0.060211448	0.018557753
2019-08-18T18:05:00	0.1772	18.166	0.0	0.398176820	0.446563800	0.005589326	0.057664050	0.017772620
2019-08-18T18:10:00	0.1784	18.097	0.0	0.401295011	0.451571255	0.005681471	0.058614686	0.018065615
2019-08-18T18:15:00	0.1796	17.993	0.0	0.404684644	0.457044703	0.005782671	0.059658749	0.018387406
2019-08-18T18:20:00	0.1804	17.892	0.0	0.406958379	0.460733840	0.005851161	0.060365354	0.018605188
2019-08-18T18:25:00	0.1806	17.821	0.0	0.407566887	0.461723545	0.005869574	0.060555314	0.018663736
2019-08-18T18:30:00	0.1824	17.765	0.0	0.412601460	0.469950962	0.006023261	0.062140875	0.019152421
2019-08-18T18:35:00	0.1831	17.683	0.0	0.414312037	0.472762207	0.006076028	0.062685260	0.019320206
2019-08-18T18:40:00	0.1805	17.597	0.0	0.407174910	0.461085899	0.005857709	0.060432908	0.018626009
2019-08-18T18:45:00	0.1813	17.523	0.0	0.409445057	0.464784686	0.005926626	0.061143910	0.018845147
2019-08-18T18:50:00	0.1787	17.478	0.0	0.402285852	0.453167982	0.005710941	0.058918729	0.018159324
2019-08-18T18:55:00	0.1791	17.422	0.0	0.403452002	0.455050649	0.005745744	0.059277785	0.018269989
2019-08-18T19:00:00	0.1781	17.400	0.0	0.400446861	0.450206601	0.005656317	0.058355183	0.017985634
2019-08-18T19:05:00	0.1740	17.379	0.0	0.389044822	0.432050873	0.005324677	0.054933714	0.016931104
2019-08-18T19:10:00	0.1742	17.358	0.0	0.389660406	0.433022079	0.005342275	0.055115261	0.016987059
2019-08-18T19:15:00	0.1732	17.294	0.0	0.386909085	0.428689265	0.005263895	0.054306632	0.016737831
2019-08-18T19:20:00	0.1768	17.285	0.0	0.397041373	0.444746978	0.005555999	0.057320217	0.017666648
2019-08-18T19:25:00	0.1750	17.280	0.0	0.391785662	0.436382974	0.005403296	0.055744814	0.017181093
2019-08-18T19:30:00	0.1744	17.244	0.0	0.390159659	0.433810503	0.005356572	0.055262766	0.017032521
2019-08-18T19:35:00	0.1738	17.210	0.0	0.388531920	0.431242451	0.005310042	0.054782724	0.016884567
2019-08-18T19:40:00	0.1755	17.137	0.0	0.393348707	0.438862592	0.005448442	0.056210575	0.017324645
2019-08-18T19:45:00	0.1787	17.115	0.0	0.402326984	0.453234324	0.005712167	0.058931371	0.018163221
2019-08-18T19:50:00	0.1741	17.116	0.0	0.389257233	0.432385878	0.005330745	0.054996317	0.016950399
2019-08-18T19:55:00	0.1768	17.063	0.0	0.396864709	0.444464614	0.005550824	0.057266832	0.017650194
2019-08-18T20:00:00	0.1763	16.910	0.0	0.395523393	0.442323543	0.005511631	0.056862483	0.017525569
2019-08-18T20:05:00	0.1747	16.812	0.0	0.391102983	0.435302048	0.005383649	0.055542119	0.017118620
2019-08-18T20:10:00	0.1774	16.691	0.0	0.398701347	0.447404276	0.005604763	0.057823305	0.017821704
2019-08-18T20:15:00	0.1820	16.615	0.0	0.411523847	0.468184090	0.005990163	0.061799406	0.019047177
2019-08-18T20:20:00	0.2025	16.655	0.0	0.474565188	0.562999502	0.007921314	0.081722738	0.025187741
2019-08-18T20:25:00	0.2050	16.992	0.0	0.483271710	0.574894917	0.008187312	0.084466992	0.026033547
2019-08-18T20:30:00	0.2130	16.565	0.0	0.510836585	0.612956120	0.009058216	0.093451948	0.028802798
2019-08-18T20:35:00	0.2287	15.510	164.5	0.564234631	0.688439299	0.010870865	0.112152715	0.034566556
2019-08-18T20:40:00	0.2450	15.523	132.2	0.618820167	0.768032786	0.012897772	0.133063940	0.041011598
2019-08-18T20:45:00	0.2432	15.618	124.0	0.612573152	0.758797521	0.012656779	0.130577652	0.040245300
2019-08-18T20:50:00	0.2450	15.650	126.3	0.618617870	0.767733206	0.012889931	0.132983047	0.040986666
2019-08-18T20:55:00	0.2447	15.679	133.8	0.617686768	0.766354788	0.012853874	0.132611052	0.040872014
2019-08-18T21:00:00	0.2426	15.700	139.7	0.610772494	0.756141614	0.012587750	0.129865492	0.040025806
2019-08-18T21:05:00	0.2366	15.712	140.9	0.590821491	0.726896429	0.011835920	0.122109008	0.037635182
2019-08-18T21:10:00	0.2347	15.707	142.0	0.584189660	0.717248757	0.011591270	0.119584996	0.036857257
2019-08-18T21:15:00	0.2396	15.689	143.8	0.600640301	0.741247714	0.012202954	0.125895631	0.038802256
2019-08-18T21:20:00	0.2466	15.658	145.9	0.623981699	0.775688132	0.013098665	0.135136509	0.041650384
2019-08-18T21:25:00	0.2493	15.612	151.4	0.632983755	0.789093409	0.013452885	0.138790936	0.042776714
2019-08-18T21:30:00	0.2474	15.544	157.1	0.626761515	0.779820341	0.013207524	0.136259592	0.041996530
2019-08-18T21:35:00	0.2430	15.455	161.5	0.611892353	0.757793046	0.012630657	0.130308160	0.040162240
2019-08-18T21:40:00	0.2456	15.366	163.8	0.620593199	0.770659932	0.012966599	0.133774016	0.041230451
2019-08-18T21:45:00	0.2418	15.306	163.5	0.608029408	0.752100894	0.012482966	0.128784464	0.039692622
2019-08-18T21:50:00	0.2387	15.276	163.1	0.597758965	0.737027971	0.012094651	0.124778286	0.038457879
2019-08-18T21:55:00	0.2359	15.264	162.3	0.588463042	0.723461275	0.011748616	0.121208310	0.037357578
2019-08-18T22:00:00	0.2351	15.264	162.2	0.585514248	0.719172780	0.011639925	0.120086964	0.037011969
2019-08-18T22:05:00	0.2314	15.268	162.6	0.573253311	0.701418903	0.011193532	0.115481609	0.035592553
2019-08-18T22:10:00	0.2282	15.272	164.1	0.562298675	0.685661845	0.010802228	0.111444593	0.034348306
2019-08-18T22:15:00	0.2289	15.272	165.1	0.564817056	0.689275491	0.010891558	0.112366197	0.034632353
2019-08-18T22:20:00	0.2248	15.269	166.4	0.551130025	0.669698792	0.010410563	0.107403856	0.033102912
2019-08-18T22:25:00	0.2230	15.263	167.5	0.544854335	0.660774069	0.010193701	0.105166538	0.032413348
2019-08-18T22:30:00	0.2222	15.256	168.6	0.542300740	0.657151810	0.010106121	0.104262985	0.032134864
2019-08-18T22:35:00	0.2199	15.247	169.5	0.534309396	0.645850572	0.009834506	0.101460789	0.031271201
2019-08-18T22:40:00	0.2191	15.237	170.2	0.531748001	0.642239311	0.009748238	0.100570770	0.030996888
2019-08-18T22:45:00	0.2183	15.227	171.3	0.528844171	0.638151721	0.009650898	0.099566538	0.030687374
2019-08-18T22:50:00	0.2162	15.215	171.8	0.521845434	0.628328092	0.009418311	0.097166982	0.029947808
2019-08-18T22:55:00	0.2131	15.201	172.5	0.511069029	0.613279675	0.009065747	0.093529639	0.028826743
2019-08-18T23:00:00	0.2144	15.189	172.8	0.515676727	0.619702466	0.009215669	0.095076362	0.029303458
2019-08-18T23:05:00	0.2184	15.176	173.3	0.529143126	0.638572230	0.009660897	0.099669691	0.030719167
2019-08-18T23:10:00	0.2203	15.164	173.9	0.535766479	0.647907271	0.009883752	0.101968851	0.031427790
2019-08-18T23:15:00	0.2228	15.152	174.3	0.544072828	0.659664940	0.010166857	0.104889594	0.032327992
2019-08-18T23:20:00	0.2204	15.144	174.6	0.536085582	0.648357921	0.009894554	0.102080287	0.031462136
2019-08-18T23:25:00	0.2201	15.135	175.0	0.534885581	0.646663659	0.009853965	0.101661542	0.031333075
2019-08-18T23:30:00	0.2203	15.124	175.4	0.535724982	0.647848673	0.009882348	0.101954364	0.031423325
2019-08-18T23:35:00	0.2164	15.112	175.7	0.522263525	0.628913819	0.009432126	0.097309501	0.029991733
2019-08-18T23:40:00	0.2171	15.099	176.0	0.524811164	0.632486018	0.009516523	0.098180209	0.030260094
2019-08-18T23:45:00	0.2162	15.083	176.4	0.521901477	0.628406597	0.009420162	0.097186080	0.029953694
2019-08-18T23:50:00	0.2156	15.068	176.8	0.519672307	0.625285917	0.009346672	0.096427893	0.029720013
2019-08-18T23:55:00	0.2143	15.051	176.9	0.515391003	0.619303689	0.009206337	0.094980081	0.029273783
2019-08-19T00:00:00	0.2146	15.036	176.5	0.516235171	0.620482063	0.009233923	0.095264685	0.029361501
2019-08-19T00:05:00	0.2140	15.020	176.2	0.514344323	0.617843429	0.009172190	0.094627793	0.029165205
2019-08-19T00:10:00	0.2130	15.004	175.7	0.510741121	0.612823250	0.009055124	0.093420050	0.028792967
2019-08-19T00:15:00	0.2111	14.988	175.3	0.504391358	0.604001921	0.008850654	0.091310571	0.028142805
2019-08-19T00:20:00	0.2125	14.973	175.3	0.509008046	0.610412370	0.008999086	0.092841911	0.028614779
2019-08-19T00:25:00	0.2115	14.959	175.2	0.505742086	0.605875680	0.008893954	0.091757287	0.028280487
2019-08-19T00:30:00	0.2107	14.944	175.3	0.502816161	0.601818630	0.008800292	0.090790991	0.027982665
2019-08-19T00:35:00	0.2128	14.928	175.2	0.510175304	0.612035875	0.009036810	0.093231101	0.028734731
2019-08-19T00:40:00	0.2102	14.912	175.1	0.501079062	0.599413252	0.008744920	0.090219723	0.027806595
2019-08-19T00:45:00	0.2110	14.897	175.4	0.503985534	0.603439240	0.008837666	0.091176568	0.028101504
2019-08-19T00:50:00	0.2084	14.883	175.7	0.494872765	0.590839146	0.008548507	0.088193371	0.027182053
2019-08-19T00:55:00	0.2060	14.868	176.1	0.486769988	0.579691529	0.008295415	0.085582269	0.026377286
2019-08-19T01:00:00	0.2047	14.854	176.5	0.482447181	0.573765799	0.008161935	0.084205182	0.025952855
2019-08-19T01:05:00	0.2033	14.840	176.9	0.477427496	0.566903506	0.008008283	0.082619978	0.025464280
2019-08-19T01:10:00	0.2023	14.826	177.1	0.474131055	0.562407941	0.007908164	0.081587074	0.025145929
2019-08-19T01:15:00	0.2039	14.814	177.2	0.479480053	0.569707080	0.008070937	0.083266369	0.025663504
2019-08-19T01:20:00	0.2052	14.802	177.8	0.484130625	0.576071699	0.008213789	0.084740149	0.026117737
2019-08-19T01:25:00	0.2127	14.791	178.2	0.509728354	0.611414095	0.009022356	0.093081982	0.028688771
2019-08-19T01:30:00	0.2210	14.781	178.7	0.538194073	0.651337710	0.009966075	0.102818156	0.031689554
2019-08-19T01:35:00	0.2225	14.774	178.9	0.543104811	0.658291804	0.010133657	0.104547069	0.032222422
2019-08-19T01:40:00	0.2242	14.773	179.5	0.549024446	0.666700828	0.010337545	0.106650549	0.032870735
2019-08-19T01:45:00	0.2225	14.767	180.2	0.543084106	0.658262443	0.010132947	0.104539749	0.032220166
2019-08-19T01:50:00	0.2228	14.755	180.9	0.544260570	0.659931341	0.010173303	0.104956091	0.032348487
2019-08-19T01:55:00	0.2219	14.742	181.4	0.541027907	0.655348296	0.010062609	0.103814081	0.031996508
2019-08-19T02:00:00	0.2235	14.729	181.5	0.546612301	0.663270836	0.010254216	0.105790860	0.032605770
2019-08-19T02:05:00	0.2240	14.719	181.1	0.548126240	0.665423050	0.010306476	0.106330017	0.032771944
2019-08-19T02:10:00	0.2260	14.709	180.6	0.555051414	0.675291843	0.010547243	0.108813962	0.033537520
2019-08-19T02:15:00	0.2301	14.700	180.2	0.568702532	0.694861061	0.011030115	0.113795668	0.035072930
2019-08-19T02:20:00	0.2299	14.691	179.9	0.568187228	0.694119567	0.011011688	0.113605558	0.035014336
2019-08-19T02:25:00	0.2329	14.684	180.1	0.578431593	0.708901856	0.011380974	0.117415409	0.036188569
2019-08-19T02:30:00	0.2315	14.673	180.4	0.573549916	0.701846917	0.011204226	0.115591932	0.035626556
2019-08-19T02:35:00	0.2309	14.664	180.9	0.571690092	0.699164314	0.011137260	0.114901053	0.035413621
2019-08-19T02:40:00	0.2316	14.653	181.5	0.573865572	0.702302501	0.011215612	0.115709400	0.035662761
2019-08-19T02:45:00	0.2295	14.642	181.5	0.566957137	0.692350425	0.010967764	0.113152397	0.034874668
2019-08-19T02:50:00	0.2288	14.630	181.9	0.564419722	0.688705006	0.010877439	0.112220536	0.034587459
2019-08-19T02:55:00	0.2295	14.618	181.6	0.566936574	0.692320861	0.010967030	0.113144830	0.034872335
2019-08-19T03:00:00	0.2298	14.604	182.0	0.567768270	0.693516873	0.010996718	0.113451112	0.034966734
2019-08-19T03:05:00	0.2313	14.591	181.3	0.572973743	0.701015540	0.011183458	0.115377672	0.035560519
2019-08-19T03:10:00	0.2336	14.577	181.5	0.580520962	0.711927425	0.011457054	0.118200317	0.036430486
2019-08-19T03:15:00	0.2337	14.565	181.3	0.581013976	0.712641876	0.011475044	0.118385915	0.036487689
2019-08-19T03:20:00	0.2317	14.554	180.9	0.574119637	0.702669252	0.011224781	0.115803992	0.035691915
2019-08-19T03:25:00	0.2295	14.543	180.6	0.566874885	0.692232172	0.010964830	0.113122129	0.034865339
2019-08-19T03:30:00	0.2289	14.535	180.6	0.564674474	0.689070760	0.010886491	0.112313916	0.034616240
2019-08-19T03:35:00	0.2287	14.526	180.3	0.564158575	0.688330127	0.010868165	0.112124853	0.034557969
2019-08-19T03:40:00	0.2308	14.516	180.2	0.571051996	0.698244587	0.011114331	0.114664503	0.035340713
2019-08-19T03:45:00	0.2308	14.507	180.3	0.571209940	0.698472210	0.011120004	0.114723032	0.035358753
2019-08-19T03:50:00	0.2301	14.498	180.3	0.569012258	0.695306844	0.011041199	0.113910012	0.035108172
2019-08-19T03:55:00	0.2295	14.490	180.3	0.566813194	0.692143484	0.010962630	0.113099429	0.034858343
2019-08-19T04:00:00	0.2265	14.484	180.3	0.556851864	0.677864046	0.010610301	0.109464517	0.033738027
2019-08-19T04:05:00	0.2258	14.479	180.2	0.554304056	0.674224917	0.010521124	0.108544498	0.033454469
2019-08-19T04:10:00	0.2236	14.474	180.2	0.547014934	0.663843036	0.010268102	0.105934114	0.032649923
2019-08-19T04:15:00	0.2246	14.470	180.3	0.550218333	0.668400260	0.010378915	0.107077353	0.033002280
2019-08-19T04:20:00	0.2242	14.465	180.3	0.549020190	0.666694771	0.010337398	0.106649029	0.032870266
2019-08-19T04:25:00	0.2247	14.460	180.0	0.550530051	0.668844166	0.010389730	0.107188932	0.033036670
2019-08-19T04:30:00	0.2251	14.455	180.2	0.552039256	0.670994497	0.010442174	0.107729980	0.033203426
2019-08-19T04:35:00	0.2231	14.450	180.3	0.545084341	0.661100594	0.010201609	0.105248116	0.032438491
2019-08-19T04:40:00	0.2234	14.445	180.2	0.546257095	0.662766147	0.010241974	0.105664562	0.032566844
2019-08-19T04:45:00	0.2251	14.441	180.3	0.551830056	0.670696315	0.010434896	0.107654899	0.033180286
2019-08-19T04:50:00	0.2275	14.439	180.3	0.560095071	0.682504164	0.010724370	0.110641346	0.034100737
2019-08-19T04:55:00	0.2274	14.437	180.4	0.559912999	0.682243440	0.010717950	0.110575110	0.034080323
2019-08-19T05:00:00	0.2270	14.435	180.4	0.558380550	0.680050087	0.010663990	0.110018419	0.033908745
2019-08-19T05:05:00	0.2266	14.434	180.2	0.557185216	0.678340579	0.010621997	0.109585182	0.033775217
2019-08-19T05:10:00	0.2280	14.433	180.1	0.561728858	0.684844935	0.010782068	0.111236603	0.034284201
2019-08-19T05:15:00	0.2307	14.433	180.0	0.570979938	0.698140746	0.011111743	0.114637806	0.035332485
2019-08-19T05:20:00	0.2297	14.432	180.0	0.567432228	0.693033562	0.010984718	0.113327310	0.034928577
2019-08-19T05:25:00	0.2307	14.432	179.8	0.570953378	0.698102472	0.011110789	0.114627966	0.035329452
2019-08-19T05:30:00	0.2300	14.432	179.8	0.568415850	0.694448515	0.011019862	0.113689883	0.035040326
2019-08-19T05:35:00	0.2301	14.434	179.8	0.568907557	0.695156142	0.011037451	0.113871352	0.035096257
2019-08-19T05:40:00	0.2308	14.436	179.7	0.571081757	0.698287475	0.011115400	0.114675530	0.035344112
2019-08-19T05:45:00	0.2299	14.436	179.8	0.568207631	0.694148922	0.011012418	0.113613082	0.035016655
2019-08-19T05:50:00	0.2297	14.436	180.1	0.567352466	0.692918859	0.010981871	0.113297934	0.034919524
2019-08-19T05:55:00	0.2284	14.438	180.3	0.563126739	0.686849464	0.010831559	0.111747198	0.034441572
2019-08-19T06:00:00	0.2272	14.438	180.4	0.559233480	0.681270625	0.010694006	0.110328086	0.034004188
2019-08-19T06:05:00	0.2245	14.438	180.6	0.549924414	0.667981774	0.010368723	0.106972199	0.032969871
2019-08-19T06:10:00	0.2246	14.437	180.7	0.550418737	0.668685639	0.010385868	0.107149080	0.033024387
2019-08-19T06:15:00	0.2246	14.436	180.9	0.550236158	0.668425642	0.010379533	0.107083732	0.033004246
2019-08-19T06:20:00	0.2210	14.438	181.1	0.538186957	0.651327647	0.009965833	0.102815661	0.031688785
2019-08-19T06:25:00	0.2228	14.439	181.2	0.544111960	0.659720464	0.010168201	0.104903453	0.032332263
2019-08-19T06:30:00	0.2219	14.440	181.3	0.541215468	0.655613973	0.010069015	0.103880169	0.032016877
2019-08-19T06:35:00	0.2214	14.441	181.4	0.539335246	0.652951966	0.010004892	0.103218628	0.031812984
2019-08-19T06:40:00	0.2206	14.443	181.6	0.536774535	0.649331172	0.009917895	0.102321092	0.031536354
2019-08-19T06:45:00	0.2182	14.447	181.7	0.528426763	0.637564720	0.009636947	0.099422602	0.030643012
2019-08-19T06:50:00	0.2179	14.454	181.9	0.527561738	0.636348682	0.009608066	0.099124647	0.030551179
2019-08-19T06:55:00	0.2193	14.460	182.0	0.532144352	0.642797770	0.009761562	0.100708233	0.031039256
2019-08-19T07:00:00	0.2200	14.467	182.2	0.534681657	0.646375860	0.009847076	0.101590469	0.031311169
2019-08-19T07:05:00	0.2181	14.476	182.4	0.528372987	0.637489105	0.009635150	0.099404066	0.030637299
2019-08-19T07:10:00	0.2209	14.482	182.5	0.537713238	0.650657859	0.009949742	0.102649651	0.031637619
2019-08-19T07:15:00	0.2191	14.486	182.7	0.531750390	0.642242677	0.009748318	0.100571598	0.030997143
2019-08-19T07:20:00	0.2188	14.492	182.8	0.530545835	0.640546244	0.009707880	0.100154409	0.030868562
2019-08-19T07:25:00	0.2203	14.498	183.0	0.535804280	0.647960651	0.009885032	0.101982048	0.031431858
2019-08-19T07:30:00	0.2195	14.503	183.1	0.532900820	0.643863986	0.009787018	0.100970856	0.031120198
2019-08-19T07:35:00	0.2193	14.508	183.3	0.532377132	0.643125816	0.009769391	0.100789011	0.031064152
2019-08-19T07:40:00	0.2189	14.514	183.5	0.530832461	0.640949806	0.009717495	0.100253601	0.030899133
2019-08-19T07:45:00	0.2208	14.519	183.6	0.537449538	0.650285093	0.009940790	0.102557299	0.031609155
2019-08-19T07:50:00	0.2203	14.530	183.8	0.535567266	0.647625975	0.009877012	0.101899313	0.031406358
2019-08-19T07:55:00	0.2190	14.548	183.9	0.531302653	0.641611970	0.009733277	0.100416426	0.030949318
2019-08-19T08:00:00	0.2188	14.575	184.1	0.530438349	0.640394924	0.009704276	0.100117225	0.030857101
2019-08-19T08:05:00	0.2172	14.589	184.2	0.525144796	0.632954214	0.009527603	0.098294523	0.030295327
2019-08-19T08:10:00	0.2192	14.594	184.4	0.532113023	0.642753623	0.009760508	0.100697364	0.031035906
2019-08-19T08:15:00	0.2193	14.595	184.6	0.532269703	0.642974415	0.009765778	0.100751728	0.031052661
2019-08-19T08:20:00	0.2195	14.597	184.7	0.533106698	0.644154245	0.009793951	0.101042390	0.031142246
2019-08-19T08:25:00	0.2196	14.601	184.8	0.533263332	0.644375101	0.009799228	0.101096831	0.031159025
2019-08-19T08:30:00	0.2184	14.609	185.0	0.529336386	0.638844107	0.009667363	0.099736403	0.030739728
2019-08-19T08:35:00	0.2197	14.620	185.1	0.533576580	0.644816843	0.009809786	0.101205751	0.031192595
2019-08-19T08:40:00	0.2201	14.622	185.4	0.535093188	0.646956693	0.009860981	0.101733926	0.031355384
2019-08-19T08:45:00	0.2235	14.621	185.4	0.546448825	0.663038551	0.010248581	0.105732724	0.032587853
2019-08-19T08:50:00	0.2261	14.626	185.6	0.555402584	0.675793330	0.010559527	0.108940696	0.033576580
2019-08-19T08:55:00	0.2248	14.630	185.7	0.550823957	0.669262780	0.010399933	0.107294188	0.033069111
2019-08-19T09:00:00	0.2234	14.636	185.9	0.546239288	0.662740849	0.010241361	0.105658232	0.032564893
2019-08-19T09:05:00	0.2235	14.642	186.0	0.546734136	0.663443967	0.010258417	0.105834198	0.032619128
2019-08-19T09:10:00	0.2247	14.647	186.2	0.550614684	0.668964702	0.010392668	0.107219236	0.033046010
2019-08-19T09:15:00	0.2232	14.648	186.3	0.545690862	0.661961838	0.010222475	0.105463388	0.032504840
2019-08-19T09:20:00	0.2255	14.644	186.4	0.553294230	0.672784022	0.010485885	0.108180938	0.033342416
2019-08-19T09:25:00	0.2244	14.638	186.5	0.549728467	0.667702821	0.010361930	0.106902126	0.032948273
2019-08-19T09:30:00	0.2242	14.629	186.6	0.548868753	0.666479293	0.010332156	0.106594954	0.032853600
2019-08-19T09:35:00	0.2251	14.626	186.7	0.552070443	0.671038953	0.010443259	0.107741175	0.033206876
2019-08-19T09:40:00	0.2244	14.625	186.8	0.549519128	0.667404838	0.010354676	0.106827288	0.032925208
2019-08-19T09:45:00	0.2227	14.630	186.9	0.543915684	0.659441978	0.010161464	0.104833952	0.032310842
2019-08-19T09:50:00	0.2232	14.634	187.0	0.545427768	0.661588214	0.010213421	0.105369981	0.032476051
2019-08-19T09:55:00	0.2234	14.631	187.2	0.546261585	0.662772526	0.010242129	0.105666158	0.032567336
2019-08-19T10:00:00	0.2223	14.628	187.3	0.542349382	0.657220758	0.010107785	0.104280159	0.032140158
2019-08-19T10:05:00	0.2226	14.628	187.5	0.543513958	0.658872088	0.010147683	0.104691773	0.032267021
2019-08-19T10:10:00	0.2226	14.633	187.5	0.543661020	0.659080695	0.010152727	0.104743810	0.032283059
2019-08-19T10:15:00	0.2206	14.647	187.6	0.536680135	0.649197795	0.009914695	0.102288080	0.031526180
2019-08-19T10:20:00	0.2216	14.659	187.8	0.540223431	0.654209093	0.010035157	0.103530863	0.031909217
2019-08-19T10:25:00	0.2223	14.661	188.0	0.542406513	0.657301743	0.010109741	0.104300333	0.032146375
2019-08-19T10:30:00	0.2214	14.661	188.0	0.539499481	0.653184374	0.010010485	0.103276328	0.031830767
2019-08-19T10:35:00	0.2214	14.657	188.1	0.539307212	0.652912298	0.010003938	0.103208781	0.031809949
2019-08-19T10:40:00	0.2230	14.654	188.2	0.544882247	0.660813691	0.010194661	0.105176436	0.032416399
2019-08-19T10:45:00	0.2225	14.648	188.2	0.543334050	0.658616911	0.010141514	0.104628132	0.032247406
2019-08-19T10:50:00	0.2233	14.641	188.3	0.545854067	0.662193637	0.010228093	0.105521352	0.032522706
2019-08-19T10:55:00	0.2237	14.632	188.4	0.547356213	0.664328146	0.010279879	0.106055615	0.032687370
2019-08-19T11:00:00	0.2257	14.625	188.5	0.553932749	0.673695010	0.010508160	0.108410747	0.033413245
2019-08-19T11:05:00	0.2244	14.622	188.6	0.549681616	0.667636128	0.010360307	0.106885375	0.032943110
2019-08-19T11:10:00	0.2261	14.623	188.7	0.555240018	0.675561166	0.010553840	0.108882018	0.033558495
2019-08-19T11:15:00	0.2282	14.621	188.8	0.562476267	0.685916502	0.010808515	0.111509456	0.034368297
2019-08-19T11:20:00	0.2246	14.617	188.9	0.550460442	0.668745032	0.010387315	0.107164010	0.033028989
2019-08-19T11:25:00	0.2243	14.621	189.0	0.549253295	0.667026490	0.010345469	0.106732293	0.032895929
2019-08-19T11:30:00	0.2240	14.642	189.1	0.548384373	0.665790200	0.010315400	0.106422084	0.032800320
2019-08-19T11:35:00	0.2260	14.663	189.3	0.554958965	0.675159838	0.010544010	0.108780611	0.033527241
2019-08-19T11:40:00	0.2250	14.666	189.4	0.551724148	0.670545374	0.010431213	0.107616900	0.033168574
2019-08-19T11:45:00	0.2268	14.670	189.6	0.557617037	0.678958013	0.010637157	0.109741591	0.033823424
2019-08-19T11:50:00	0.2264	14.676	189.7	0.556412372	0.677235922	0.010594891	0.109305534	0.033689027
2019-08-19T11:55:00	0.2256	14.676	189.7	0.553517053	0.673101890	0.010493655	0.108261106	0.033367124
2019-08-19T12:00:00	0.2252	14.674	189.8	0.552310967	0.671381833	0.010451629	0.107827535	0.033233493
2019-08-19T12:05:00	0.2245	14.672	189.9	0.550089222	0.668216421	0.010374437	0.107031155	0.032988042
2019-08-19T12:10:00	0.2250	14.680	189.9	0.551589537	0.670353537	0.010426532	0.107568612	0.033153691
2019-08-19T12:15:00	0.2237	14.683	190.1	0.547335534	0.664298749	0.010279165	0.106048251	0.032685101
2019-08-19T12:20:00	0.2237	14.683	190.1	0.547143699	0.664026057	0.010272545	0.105979948	0.032664049
2019-08-19T12:25:00	0.2256	14.684	190.2	0.553720637	0.673392349	0.010500757	0.108334378	0.033389708
2019-08-19T12:30:00	0.2257	14.693	190.3	0.553867267	0.673601570	0.010505874	0.108387168	0.033405978
2019-08-19T12:35:00	0.2249	14.713	190.4	0.551308188	0.669952631	0.010416753	0.107467721	0.033122595
2019-08-19T12:40:00	0.2223	14.736	190.6	0.542647170	0.657642907	0.010117980	0.104385333	0.032172573
2019-08-19T12:45:00	0.2242	14.751	190.8	0.548894064	0.666515306	0.010333032	0.106603990	0.032856385
2019-08-19T12:50:00	0.2236	14.755	190.9	0.547008910	0.663834474	0.010267894	0.105931970	0.032649262
2019-08-19T12:55:00	0.2234	14.756	191.0	0.546139427	0.662598983	0.010237921	0.105622740	0.032553954
2019-08-19T13:00:00	0.2244	14.758	191.0	0.549673066	0.667623958	0.010360010	0.106882318	0.032942168
2019-08-19T13:05:00	0.2241	14.763	191.1	0.548465645	0.665905806	0.010318211	0.106451079	0.032809256
2019-08-19T13:10:00	0.2235	14.781	191.2	0.546580259	0.663225305	0.010253112	0.105779464	0.032602258
2019-08-19T13:15:00	0.2239	14.803	191.4	0.548082091	0.665360261	0.010304950	0.106314274	0.032767092
2019-08-19T13:20:00	0.2223	14.815	191.5	0.542467217	0.657387794	0.010111819	0.104321770	0.032152983
2019-08-19T13:25:00	0.2218	14.823	191.5	0.540917941	0.655192543	0.010058854	0.103775344	0.031984569
2019-08-19T13:30:00	0.2215	14.826	191.7	0.539707465	0.653478723	0.010017570	0.103349421	0.031853295
2019-08-19T13:35:00	0.2215	14.827	191.8	0.539854689	0.653687102	0.010022586	0.103401176	0.031869247
2019-08-19T13:40:00	0.2237	14.830	191.8	0.547123019	0.663996662	0.010271831	0.105972586	0.032661780
2019-08-19T13:45:00	0.2253	14.829	191.9	0.552685513	0.671915862	0.010464671	0.107962084	0.033274963
2019-08-19T13:50:00	0.2230	14.834	191.9	0.544705980	0.660563482	0.010188603	0.105113937	0.032397136
2019-08-19T13:55:00	0.2222	14.842	192.0	0.542140134	0.656924170	0.010100625	0.104206288	0.032117390
2019-08-19T14:00:00	0.2227	14.854	192.2	0.543982967	0.659537439	0.010163773	0.104857774	0.032318184
2019-08-19T14:05:00	0.2229	14.866	192.7	0.544469037	0.660227184	0.010180462	0.105029953	0.032371252
2019-08-19T14:10:00	0.2253	14.880	192.8	0.552742474	0.671997089	0.010466655	0.107982554	0.033281272
2019-08-19T14:15:00	0.2215	14.893	193.0	0.539674590	0.653432194	0.010016450	0.103337866	0.031849734
2019-08-19T14:20:00	0.2219	14.910	193.1	0.541179417	0.655562905	0.010067783	0.103867465	0.032012961
2019-08-19T14:25:00	0.2212	14.923	193.2	0.538610956	0.651927292	0.009980246	0.102964361	0.031734616
2019-08-19T14:30:00	0.2229	14.937	193.3	0.544526134	0.660308218	0.010182424	0.105050188	0.032377488
2019-08-19T14:35:00	0.2213	14.953	193.5	0.539245030	0.652824312	0.010001821	0.103186940	0.031803217
2019-08-19T14:40:00	0.2215	14.963	193.6	0.539731766	0.653513117	0.010018398	0.103357963	0.031855928
2019-08-19T14:45:00	0.2200	14.973	193.8	0.534783312	0.646519323	0.009850510	0.101625896	0.031322088
2019-08-19T14:50:00	0.2198	14.980	193.9	0.533910752	0.645288179	0.009821055	0.101322011	0.031228428
2019-08-19T14:55:00	0.2189	14.984	193.9	0.530996561	0.641180886	0.009723001	0.100310413	0.030916643
2019-08-19T15:00:00	0.2184	14.984	194.0	0.529101626	0.638513852	0.009659509	0.099655369	0.030714752
2019-08-19T15:05:00	0.2182	14.985	194.1	0.528568219	0.637763634	0.009641674	0.099471369	0.030658042
2019-08-19T15:10:00	0.2181	14.984	194.2	0.528375341	0.637492414	0.009635229	0.099404877	0.030637549
2019-08-19T15:15:00	0.2192	14.982	194.2	0.531927164	0.642491736	0.009754259	0.100632896	0.031016036
2019-08-19T15:20:00	0.2196	14.979	194.3	0.533435368	0.644617695	0.009805026	0.101156643	0.031177460
2019-08-19T15:25:00	0.2194	14.976	194.3	0.532562466	0.643387030	0.009775628	0.100853347	0.031083981
2019-08-19T15:30:00	0.2183	14.973	194.4	0.528966132	0.638323262	0.009654977	0.099608613	0.030700342
2019-08-19T15:35:00	0.2177	14.970	194.5	0.526729339	0.635179087	0.009580316	0.098838355	0.030462941
2019-08-19T15:40:00	0.2182	14.965	194.6	0.528580409	0.637780775	0.009642081	0.099475572	0.030659337
2019-08-19T15:45:00	0.2160	14.963	194.6	0.521227635	0.627462842	0.009397917	0.096956578	0.029882959
2019-08-19T15:50:00	0.2175	14.960	194.7	0.526150363	0.634365903	0.009561038	0.098639469	0.030401642
2019-08-19T15:55:00	0.2154	14.956	194.7	0.519133916	0.624532812	0.009328966	0.096245221	0.029663712
2019-08-19T16:00:00	0.2150	14.954	194.8	0.517574117	0.622352280	0.009277763	0.095716975	0.029500901
2019-08-19T16:05:00	0.2169	14.954	194.8	0.524117074	0.631512270	0.009493492	0.097942603	0.030186862
2019-08-19T16:10:00	0.2172	14.954	194.9	0.525197386	0.633028024	0.009529350	0.098312548	0.030300882
2019-08-19T16:15:00	0.2176	14.953	195.0	0.526618145	0.635022891	0.009576612	0.098800143	0.030451164
2019-08-19T16:20:00	0.2149	14.951	195.1	0.517462626	0.622196495	0.009274109	0.095679273	0.029489281
2019-08-19T16:25:00	0.2161	14.951	195.1	0.521276498	0.627531264	0.009399529	0.096973211	0.029888085
2019-08-19T16:30:00	0.2166	14.950	195.2	0.523040015	0.630002025	0.009457809	0.097574470	0.030073399
2019-08-19T16:35:00	0.2187	14.947	195.3	0.530253479	0.640134684	0.009698078	0.100053286	0.030837394
2019-08-19T16:40:00	0.2157	14.947	195.4	0.520083546	0.625861320	0.009360208	0.096567540	0.029763054
2019-08-19T16:45:00	0.2166	14.948	195.5	0.523212369	0.630243635	0.009463514	0.097633333	0.030091541
2019-08-19T16:50:00	0.2148	14.949	195.5	0.517124531	0.621724144	0.009263031	0.095564987	0.029454057
2019-08-19T16:55:00	0.2160	14.950	195.6	0.520938778	0.627058393	0.009388389	0.096858281	0.029852663
2019-08-19T17:00:00	0.2150	14.949	195.7	0.517581314	0.622362338	0.009277999	0.095719409	0.029501651
2019-08-19T17:05:00	0.2142	14.947	195.7	0.514904495	0.618624834	0.009190457	0.094816252	0.029223290
2019-08-19T17:10:00	0.2148	14.943	195.8	0.517013025	0.621568380	0.009259379	0.095527310	0.029442445
2019-08-19T17:15:00	0.2154	14.936	195.8	0.519120261	0.624513715	0.009328517	0.096240591	0.029662285
2019-08-19T17:20:00	0.2143	14.930	195.9	0.515419155	0.619342976	0.009207256	0.094989565	0.029276706
2019-08-19T17:25:00	0.2138	14.926	196.0	0.513424873	0.616561404	0.009142246	0.094318869	0.029069991
2019-08-19T17:30:00	0.2137	14.918	195.9	0.513140396	0.616164884	0.009132992	0.094223390	0.029040564
2019-08-19T17:35:00	0.2141	14.912	196.1	0.514566148	0.618152831	0.009179422	0.094702399	0.029188199
2019-08-19T17:40:00	0.2161	14.905	196.1	0.521456129	0.627782820	0.009405457	0.097034370	0.029906935
2019-08-19T17:45:00	0.2145	14.900	196.2	0.516048878	0.620221967	0.009227832	0.095201841	0.029342132
2019-08-19T17:50:00	0.2150	14.892	196.3	0.517815081	0.622689009	0.009285664	0.095798485	0.029526024
2019-08-19T17:55:00	0.2142	14.884	196.2	0.514796519	0.618474195	0.009186935	0.094779911	0.029212089
2019-08-19T18:00:00	0.2153	14.875	196.3	0.518613352	0.623804867	0.009311862	0.096068763	0.029609326
2019-08-19T18:05:00	0.2151	14.864	196.2	0.517987697	0.622930256	0.009291326	0.095856897	0.029544027
2019-08-19T18:10:00	0.2142	14.853	196.2	0.514969287	0.618715231	0.009192571	0.094838062	0.029230012
2019-08-19T18:15:00	0.2151	14.843	196.3	0.518102770	0.623091093	0.009295101	0.095895847	0.029556031
2019-08-19T18:20:00	0.2154	14.835	196.4	0.519184974	0.624604222	0.009330644	0.096262537	0.029669049
2019-08-19T18:25:00	0.2141	14.826	196.3	0.514458162	0.618002206	0.009175901	0.094666077	0.029177004
2019-08-19T18:30:00	0.2136	14.816	196.4	0.512805479	0.615698143	0.009122102	0.094111045	0.029005938
2019-08-19T18:35:00	0.2157	14.804	196.4	0.520040429	0.625800985	0.009358788	0.096552893	0.029758539
2019-08-19T18:40:00	0.2156	14.793	196.4	0.519756500	0.625403708	0.009349442	0.096456474	0.029728822
2019-08-19T18:45:00	0.2147	14.780	196.4	0.516739645	0.621186533	0.009250429	0.095434968	0.029413984
2019-08-19T18:50:00	0.2151	14.767	196.4	0.517822279	0.622699068	0.009285900	0.095800921	0.029526774
2019-08-19T18:55:00	0.2169	14.754	196.5	0.524023756	0.631381383	0.009490397	0.097910680	0.030177023
2019-08-19T19:00:00	0.2152	14.739	196.4	0.518278969	0.623337389	0.009300884	0.095955502	0.029574418
2019-08-19T19:05:00	0.2144	14.724	196.4	0.515602694	0.619599134	0.009213251	0.095051411	0.029295768
2019-08-19T19:10:00	0.2139	14.709	196.5	0.513950563	0.617294310	0.009159360	0.094495432	0.029124410
2019-08-19T19:15:00	0.2153	14.694	196.4	0.518793123	0.624056230	0.009317767	0.096129683	0.029628102
2019-08-19T19:20:00	0.2157	14.677	196.4	0.519875110	0.625569660	0.009353346	0.096496747	0.029741235
2019-08-19T19:25:00	0.2162	14.660	196.5	0.521639346	0.628039424	0.009411506	0.097096769	0.029926167
2019-08-19T19:30:00	0.2158	14.643	196.3	0.520331527	0.626208359	0.009368375	0.096651797	0.029789023
2019-08-19T19:35:00	0.2171	14.625	196.2	0.524824177	0.632504279	0.009516955	0.098184666	0.030261468
2019-08-19T19:40:00	0.2163	14.607	196.2	0.522152998	0.628758961	0.009428473	0.097271814	0.029980118
2019-08-19T19:45:00	0.2159	14.589	196.3	0.520845374	0.626927626	0.009385309	0.096826506	0.029842870
2019-08-19T19:50:00	0.2163	14.570	196.2	0.521926714	0.628441951	0.009420996	0.097194681	0.029956345
2019-08-19T19:55:00	0.2165	14.553	196.2	0.522666572	0.629478605	0.009445452	0.097446992	0.030034109
2019-08-19T20:00:00	0.2170	14.535	196.2	0.524429378	0.631950357	0.009503851	0.098049477	0.030219801
2019-08-19T20:05:00	0.2169	14.517	196.2	0.524145810	0.631552577	0.009494445	0.097952435	0.030189892
2019-08-19T20:10:00	0.2170	14.498	196.2	0.524544234	0.632111493	0.009507662	0.098088798	0.030231920
2019-08-19T20:15:00	0.2169	14.481	196.1	0.524260677	0.631713701	0.009498254	0.097991739	0.030202006
2019-08-19T20:20:00	0.2177	14.466	196.1	0.526704253	0.635143846	0.009579480	0.098829733	0.030460284
2019-08-19T20:25:00	0.2162	14.450	196.1	0.521646536	0.628049493	0.009411743	0.097099218	0.029926922
2019-08-19T20:30:00	0.2175	14.433	196.1	0.526137470	0.634347798	0.009560609	0.098635043	0.030400278
2019-08-19T20:35:00	0.2164	14.418	196.0	0.522443917	0.629166584	0.009438089	0.097371026	0.030010696
2019-08-19T20:40:00	0.2172	14.403	196.0	0.525229705	0.633073384	0.009530424	0.098323626	0.030304296
2019-08-19T20:45:00	0.2154	14.389	196.1	0.519145442	0.624548933	0.009329345	0.096249130	0.029664917
2019-08-19T20:50:00	0.2168	14.373	196.0	0.523639642	0.630842702	0.009477666	0.097779334	0.030136540
2019-08-19T20:55:00	0.2149	14.359	196.0	0.517210877	0.621844769	0.009265860	0.095594168	0.029463051
2019-08-19T21:00:00	0.2136	14.344	196.1	0.512823499	0.615723253	0.009122688	0.094117087	0.029007800
2019-08-19T21:05:00	0.2152	14.329	196.0	0.518350893	0.623437934	0.009303244	0.095979858	0.029581924
2019-08-19T21:10:00	0.2181	14.314	195.9	0.528300077	0.637386588	0.009632714	0.099378937	0.030629554
2019-08-19T21:15:00	0.2150	14.299	195.9	0.517782732	0.622643801	0.009284603	0.095787541	0.029522650
2019-08-19T21:20:00	0.2151	14.285	195.9	0.517840272	0.622724214	0.009286490	0.095807009	0.029528650
2019-08-19T21:25:00	0.2154	14.269	195.8	0.518922559	0.624237228	0.009322020	0.096173557	0.029641624
2019-08-19T21:30:00	0.2146	14.252	195.8	0.516246785	0.620498279	0.009234303	0.095268604	0.029362709
2019-08-19T21:35:00	0.2155	14.236	195.8	0.519379103	0.624875752	0.009337027	0.096328389	0.029689345
2019-08-19T21:40:00	0.2156	14.220	195.8	0.519778080	0.625433901	0.009350153	0.096463801	0.029731080
2019-08-19T21:45:00	0.2157	14.205	195.8	0.520177010	0.625992113	0.009363286	0.096599292	0.029772840
2019-08-19T21:50:00	0.2154	14.191	195.7	0.518868634	0.624161821	0.009320248	0.096155277	0.029635990
2019-08-19T21:55:00	0.2135	14.177	195.7	0.512430921	0.615176265	0.009109931	0.093985481	0.028967238
2019-08-19T22:00:00	0.2142	14.162	195.7	0.514882923	0.618594738	0.009189753	0.094808991	0.029221052
2019-08-19T22:05:00	0.2136	14.148	195.6	0.512736887	0.615602565	0.009119873	0.094088044	0.028998849
2019-08-19T22:10:00	0.2140	14.133	195.5	0.514353425	0.617856124	0.009172487	0.094630854	0.029166148
2019-08-19T22:15:00	0.2146	14.119	195.5	0.516311010	0.620587954	0.009236404	0.095290274	0.029369388
2019-08-19T22:20:00	0.2155	14.103	195.5	0.519292115	0.624754078	0.009334167	0.096298879	0.029680250
2019-08-19T22:25:00	0.2161	14.087	195.5	0.521246887	0.627489799	0.009398552	0.096963131	0.029884979
2019-08-19T22:30:00	0.2162	14.071	195.6	0.521835849	0.628314666	0.009417995	0.097163716	0.029946801
2019-08-19T22:35:00	0.2150	14.057	195.5	0.517644817	0.622451074	0.009280081	0.095740887	0.029508271
2019-08-19T22:40:00	0.2134	14.042	195.4	0.512080082	0.614687538	0.009098539	0.093867945	0.028931012
2019-08-19T22:45:00	0.2147	14.028	195.3	0.516774017	0.621234540	0.009251554	0.095446576	0.029417562
2019-08-19T22:50:00	0.2145	14.015	195.2	0.515996728	0.620149162	0.009226127	0.095184253	0.029336711
2019-08-19T22:55:00	0.2148	14.002	195.3	0.516928339	0.621450087	0.009256606	0.095498700	0.029433627
2019-08-19T23:00:00	0.2144	13.989	195.3	0.515467402	0.619410311	0.009208832	0.095005821	0.029281717
2019-08-19T23:05:00	0.2144	13.974	195.3	0.515715523	0.619756618	0.009216937	0.095089440	0.029307489
2019-08-19T23:10:00	0.2157	13.961	195.3	0.520063090	0.625832695	0.009359534	0.096560591	0.029760912
2019-08-19T23:15:00	0.2158	13.947	195.1	0.520310879	0.626179461	0.009367695	0.096644780	0.029786860
2019-08-19T23:20:00	0.2162	13.934	195.2	0.521582604	0.627959951	0.009409632	0.097077442	0.029920210
2019-08-19T23:25:00	0.2140	13.919	195.2	0.514314729	0.617802155	0.009171225	0.094617842	0.029162138
2019-08-19T23:30:00	0.2147	13.908	195.1	0.516614114	0.621011217	0.009246320	0.095392581	0.029400920
2019-08-19T23:35:00	0.2140	13.895	195.0	0.514127170	0.617540582	0.009165114	0.094554787	0.029142704
2019-08-19T23:40:00	0.2152	13.883	195.0	0.518476748	0.623613879	0.009307376	0.096022485	0.029595062
2019-08-19T23:45:00	0.2167	13.872	195.0	0.523503044	0.630651166	0.009473141	0.097732646	0.030122151
2019-08-19T23:50:00	0.2158	13.860	195.0	0.520338371	0.626217938	0.009368600	0.096654123	0.029789739
2019-08-19T23:55:00	0.2167	13.848	194.9	0.523315986	0.630388899	0.009466945	0.097668729	0.030102451
2019-08-20T00:00:00	0.2147	13.835	194.9	0.516735349	0.621180533	0.009250288	0.095433517	0.029413537
2019-08-20T00:05:00	0.2162	13.825	194.9	0.521764191	0.628214290	0.009415628	0.097139300	0.029939276
2019-08-20T00:10:00	0.2130	13.817	194.9	0.510732940	0.612811863	0.009054860	0.093417317	0.028792124
2019-08-20T00:15:00	0.2140	13.809	194.9	0.514060929	0.617448208	0.009162955	0.094532522	0.029135841
2019-08-20T00:20:00	0.2142	13.799	194.8	0.514993065	0.618748408	0.009193347	0.094846067	0.029232479
2019-08-20T00:25:00	0.2136	13.789	194.9	0.512847098	0.615756139	0.009123455	0.094125002	0.029010240
2019-08-20T00:30:00	0.2119	13.781	194.9	0.506931847	0.607527362	0.008932181	0.092151669	0.028402039
2019-08-20T00:35:00	0.2133	13.772	194.9	0.511975079	0.614541286	0.009095130	0.093832782	0.028920175
2019-08-20T00:40:00	0.2117	13.763	194.8	0.506401118	0.606790438	0.008915119	0.091975639	0.028347785
2019-08-20T00:45:00	0.2117	13.754	194.8	0.506307123	0.606659948	0.008912099	0.091944480	0.028338182
2019-08-20T00:50:00	0.2128	13.745	194.9	0.509981855	0.611766737	0.009030552	0.093166544	0.028714834
2019-08-20T00:55:00	0.2108	13.738	194.8	0.503375542	0.602593728	0.008818160	0.090975334	0.028039482
2019-08-20T01:00:00	0.2119	13.729	194.8	0.507053425	0.607696205	0.008936092	0.092192017	0.028414475
2019-08-20T01:05:00	0.2101	13.722	194.8	0.500784806	0.599006033	0.008735557	0.090123131	0.027776824
2019-08-20T01:10:00	0.2103	13.715	194.8	0.501720567	0.600301267	0.008765348	0.090430481	0.027871553
2019-08-20T01:15:00	0.2116	13.709	194.8	0.506085926	0.606352898	0.008904993	0.091871176	0.028315589
2019-08-20T01:20:00	0.2118	13.701	194.9	0.506677499	0.607174168	0.008924002	0.092067287	0.028376032
2019-08-20T01:25:00	0.2129	13.694	194.8	0.510351834	0.612281501	0.009042522	0.093290031	0.028752894
2019-08-20T01:30:00	0.2127	13.688	194.8	0.509915534	0.611674473	0.009028408	0.093144417	0.028708014
2019-08-20T01:35:00	0.2123	13.680	194.8	0.508451604	0.609638817	0.008981130	0.092656666	0.028557684
2019-08-20T01:40:00	0.2142	13.674	194.7	0.514860616	0.618563616	0.009189026	0.094801483	0.029218738
2019-08-20T01:45:00	0.2126	13.667	194.8	0.509291354	0.610806314	0.009008235	0.092936297	0.028643869
2019-08-20T01:50:00	0.2119	13.661	194.8	0.507141810	0.607818960	0.008938936	0.092221355	0.028423517
2019-08-20T01:55:00	0.2128	13.653	194.8	0.510130899	0.611974093	0.009035373	0.093216280	0.028730163
2019-08-20T02:00:00	0.2117	13.647	194.8	0.506268336	0.606606104	0.008910853	0.091931624	0.028334219
2019-08-20T02:05:00	0.2125	13.640	194.7	0.509258187	0.610760191	0.009007163	0.092925245	0.028640463
2019-08-20T02:10:00	0.2139	13.635	194.8	0.513955987	0.617301873	0.009159537	0.094497255	0.029124972
2019-08-20T02:15:00	0.2141	13.629	194.8	0.514546201	0.618125008	0.009178771	0.094695689	0.029186131
2019-08-20T02:20:00	0.2120	13.623	194.8	0.507263380	0.607987814	0.008942848	0.092261716	0.028435957
2019-08-20T02:25:00	0.2113	13.617	194.9	0.505112561	0.605002207	0.008873761	0.091548953	0.028216277
2019-08-20T02:30:00	0.2107	13.612	194.9	0.502960387	0.602018450	0.008804897	0.090838503	0.027997309
2019-08-20T02:35:00	0.2099	13.607	194.9	0.500120100	0.598086406	0.008714426	0.089905125	0.027709633
2019-08-20T02:40:00	0.2108	13.602	195.0	0.503115333	0.602233141	0.008809846	0.090889560	0.028013045
2019-08-20T02:45:00	0.2111	13.595	194.9	0.504393456	0.604004830	0.008850722	0.091311263	0.028143018
2019-08-20T02:50:00	0.2103	13.591	194.9	0.501554361	0.600071160	0.008760053	0.090375853	0.027854715
2019-08-20T02:55:00	0.2105	13.587	195.0	0.502146719	0.600891358	0.008778932	0.090570623	0.027914746
2019-08-20T03:00:00	0.2104	13.583	194.9	0.502052606	0.600761028	0.008775931	0.090539665	0.027905204
2019-08-20T03:05:00	0.2100	13.579	194.9	0.500585303	0.598729981	0.008729212	0.090057672	0.027756649
2019-08-20T03:10:00	0.2113	13.575	194.9	0.504952113	0.604779634	0.008868618	0.091495893	0.028199923
2019-08-20T03:15:00	0.2096	13.570	194.9	0.499023172	0.596569576	0.008679610	0.089545938	0.027598928
2019-08-20T03:20:00	0.2109	13.566	194.9	0.503735046	0.603092002	0.008829653	0.091093906	0.028076027
2019-08-20T03:25:00	0.2098	13.561	194.9	0.499865243	0.597733905	0.008706331	0.089821609	0.027683892
2019-08-20T03:30:00	0.2122	13.556	194.8	0.508003885	0.609016591	0.008966696	0.092507752	0.028511787
2019-08-20T03:35:00	0.2121	13.551	194.9	0.507567286	0.608409974	0.008952632	0.092362650	0.028467066
2019-08-20T03:40:00	0.2108	13.546	194.9	0.503358755	0.602570463	0.008817624	0.090969799	0.028037776
2019-08-20T03:45:00	0.2103	13.542	194.9	0.501548762	0.600063410	0.008759875	0.090374013	0.027854148
2019-08-20T03:50:00	0.2089	13.537	194.9	0.496645344	0.593284838	0.008604378	0.088769779	0.027359708
2019-08-20T03:55:00	0.2109	13.533	194.9	0.503762672	0.603130295	0.008830537	0.091103021	0.028078836
2019-08-20T04:00:00	0.2090	13.529	194.9	0.497144307	0.593973730	0.008620137	0.088932369	0.027409820
2019-08-20T04:05:00	0.2108	13.525	194.9	0.503228380	0.602389791	0.008813458	0.090926819	0.028024529
2019-08-20T04:10:00	0.2112	13.521	194.9	0.504503392	0.604157281	0.008854242	0.091347581	0.028154212
2019-08-20T04:15:00	0.2102	13.517	194.9	0.501318042	0.599744025	0.008752527	0.090298208	0.027830785
2019-08-20T04:20:00	0.2105	13.514	194.9	0.502250585	0.601035205	0.008782244	0.090604797	0.027925278
2019-08-20T04:25:00	0.2149	13.510	194.9	0.517221326	0.621859367	0.009266202	0.095597700	0.029464139
2019-08-20T04:30:00	0.2139	13.508	194.9	0.514047797	0.617429896	0.009162528	0.094528108	0.029134481
2019-08-20T04:35:00	0.2132	13.507	195.0	0.511555927	0.613957564	0.009081531	0.093692483	0.028876933
2019-08-20T04:40:00	0.2144	13.505	195.0	0.515563857	0.619544929	0.009211982	0.095038322	0.029291734
2019-08-20T04:45:00	0.2141	13.503	195.0	0.514441274	0.617978651	0.009175350	0.094660397	0.029175254
2019-08-20T04:50:00	0.2156	13.503	195.1	0.519811880	0.625481192	0.009351265	0.096475277	0.029734617
2019-08-20T04:55:00	0.2137	13.503	195.1	0.513221456	0.616277863	0.009135628	0.094250591	0.029048948
2019-08-20T05:00:00	0.2126	13.502	195.1	0.509359317	0.610900826	0.009010430	0.092958947	0.028650850
2019-08-20T05:05:00	0.2144	13.501	195.1	0.515763573	0.619823689	0.009218507	0.095105637	0.029312481
2019-08-20T05:10:00	0.2142	13.502	195.1	0.514982996	0.618734359	0.009193019	0.094842677	0.029231434
2019-08-20T05:15:00	0.2144	13.503	195.2	0.515569975	0.619553468	0.009212182	0.095040384	0.029292369
2019-08-20T05:20:00	0.2169	13.504	195.2	0.524009426	0.631361284	0.009489922	0.097905778	0.030175512
2019-08-20T05:25:00	0.2163	13.506	195.2	0.522207257	0.628834982	0.009430266	0.097290315	0.029985820
2019-08-20T05:30:00	0.2134	13.508	195.2	0.512201128	0.614856147	0.009102468	0.093908489	0.028943508
2019-08-20T05:35:00	0.2171	13.510	195.2	0.524742734	0.632390000	0.009514251	0.098156771	0.030252870
2019-08-20T05:40:00	0.2152	13.514	195.3	0.518503365	0.623651092	0.009308250	0.096031501	0.029597841
2019-08-20T05:45:00	0.2147	13.519	195.2	0.516698305	0.621128797	0.009249076	0.095421008	0.029409681
2019-08-20T05:50:00	0.2144	13.525	195.4	0.515576093	0.619562007	0.009212382	0.095042446	0.029293005
2019-08-20T05:55:00	0.2129	13.530	195.4	0.510347335	0.612275242	0.009042376	0.093288529	0.028752431
2019-08-20T06:00:00	0.2124	13.537	195.5	0.508880525	0.610235071	0.008994969	0.092799441	0.028601689
2019-08-20T06:05:00	0.2136	13.546	195.6	0.512891585	0.615818132	0.009124901	0.094139922	0.029014838
2019-08-20T06:10:00	0.2139	13.555	195.6	0.513820979	0.617113626	0.009155140	0.094451894	0.029110991
2019-08-20T06:15:00	0.2138	13.564	195.7	0.513382060	0.616501724	0.009140853	0.094304496	0.029065562
2019-08-20T06:20:00	0.2143	13.577	195.7	0.515337140	0.619228520	0.009204578	0.094961936	0.029268191
2019-08-20T06:25:00	0.2149	13.588	196.0	0.517291106	0.621956854	0.009268488	0.095621285	0.029471409
2019-08-20T06:30:00	0.2135	13.601	195.9	0.512407163	0.615143167	0.009109160	0.093977520	0.028964784
2019-08-20T06:35:00	0.2127	13.618	195.9	0.509914099	0.611672477	0.009028361	0.093143939	0.028707866
2019-08-20T06:40:00	0.2131	13.630	196.0	0.511186621	0.613443376	0.009069558	0.093568955	0.028838861
2019-08-20T06:45:00	0.2133	13.637	196.1	0.511774250	0.614261589	0.009088613	0.093765547	0.028899452
2019-08-20T06:50:00	0.2122	13.650	196.2	0.507910477	0.608886796	0.008963686	0.092476698	0.028502217
2019-08-20T06:55:00	0.2128	13.668	196.2	0.510211099	0.612085679	0.009037968	0.093243049	0.028738413
2019-08-20T07:00:00	0.2144	13.682	196.4	0.515588329	0.619579084	0.009212782	0.095046569	0.029294276
2019-08-20T07:05:00	0.2164	13.694	196.4	0.522322188	0.628996015	0.009434065	0.097329507	0.029997899
2019-08-20T07:10:00	0.2155	13.714	196.5	0.519494863	0.625037682	0.009340835	0.096367668	0.029701451
2019-08-20T07:15:00	0.2139	13.735	196.6	0.513930070	0.617265735	0.009158693	0.094488546	0.029122288
2019-08-20T07:20:00	0.2151	13.754	196.7	0.517935228	0.622856923	0.009289605	0.095839140	0.029538554
2019-08-20T07:25:00	0.2140	13.774	196.9	0.514078399	0.617472571	0.009163525	0.094538394	0.029137651
2019-08-20T07:30:00	0.2117	13.796	197.0	0.506448756	0.606856574	0.008916650	0.091991432	0.028352653
2019-08-20T07:35:00	0.2106	13.822	197.1	0.502578958	0.601490029	0.008792721	0.090712878	0.027958590
2019-08-20T07:40:00	0.2099	13.843	197.2	0.500078714	0.598029160	0.008713111	0.089891560	0.027705452
2019-08-20T07:45:00	0.2124	13.866	197.4	0.508898914	0.610260638	0.008995563	0.092805565	0.028603577
2019-08-20T07:50:00	0.2119	13.893	197.6	0.507088787	0.607745318	0.008937230	0.092203754	0.028418093
2019-08-20T07:55:00	0.2114	13.923	197.7	0.505277701	0.605231310	0.008879056	0.091603581	0.028233113
2019-08-20T08:00:00	0.2111	13.950	197.8	0.504151739	0.603669670	0.008842984	0.091231437	0.028118415
2019-08-20T08:05:00	0.2117	13.988	198.0	0.506454890	0.606865090	0.008916847	0.091993466	0.028353280
2019-08-20T08:10:00	0.2114	14.020	198.2	0.505329315	0.605302920	0.008880711	0.091620659	0.028238377
2019-08-20T08:15:00	0.2120	14.025	198.2	0.507288998	0.608023397	0.008943673	0.092270222	0.028438579
2019-08-20T08:20:00	0.2127	14.028	198.3	0.509932483	0.611698052	0.009028956	0.093150072	0.028709757
2019-08-20T08:25:00	0.2137	14.038	198.4	0.513258188	0.616329061	0.009136823	0.094262919	0.029052747
2019-08-20T08:30:00	0.2132	14.045	198.4	0.511450365	0.613810578	0.009078108	0.093657165	0.028866048
2019-08-20T08:35:00	0.2140	14.055	198.5	0.514090641	0.617489641	0.009163923	0.094542508	0.029138919
2019-08-20T08:40:00	0.2144	14.077	198.6	0.515703482	0.619739810	0.009216544	0.095085381	0.029306238
2019-08-20T08:45:00	0.2136	14.092	198.7	0.512870698	0.615789025	0.009124222	0.094132917	0.029012679
2019-08-20T08:50:00	0.2134	14.108	198.8	0.512089462	0.614700604	0.009098843	0.093871086	0.028931980
2019-08-20T08:55:00	0.2134	14.134	199.0	0.512334765	0.615042309	0.009106808	0.093953260	0.028957307
2019-08-20T09:00:00	0.2134	14.165	199.1	0.512237871	0.614907330	0.009103661	0.093920797	0.028947302
2019-08-20T09:05:00	0.2125	14.191	199.2	0.509059721	0.610484219	0.009000754	0.092859123	0.028620084
2019-08-20T09:10:00	0.2117	14.216	199.4	0.506221434	0.606540996	0.008909346	0.091916079	0.028329428
2019-08-20T09:15:00	0.2123	14.235	199.4	0.508523191	0.609738322	0.008983439	0.092680488	0.028565027
2019-08-20T09:20:00	0.2111	14.256	199.6	0.504312769	0.603892946	0.008848138	0.091284613	0.028134804
2019-08-20T09:25:00	0.2122	14.284	199.3	0.507986578	0.608992541	0.008966138	0.092501997	0.028510014
2019-08-20T09:30:00	0.2136	14.293	199.7	0.513025196	0.616004330	0.009129245	0.094184739	0.029028651
2019-08-20T09:35:00	0.2110	14.314	199.8	0.504021394	0.603488956	0.008838813	0.091188405	0.028105152
2019-08-20T09:40:00	0.2124	14.318	199.8	0.508723318	0.610016517	0.008989896	0.092747099	0.028585557
2019-08-20T09:45:00	0.2120	14.316	199.9	0.507255811	0.607977301	0.008942605	0.092259203	0.028435182
2019-08-20T09:50:00	0.2121	14.320	200.0	0.507844116	0.608794588	0.008961548	0.092454640	0.028495418
2019-08-20T09:55:00	0.2124	14.333	200.0	0.508774881	0.610088198	0.008991560	0.092764265	0.028590848
2019-08-20T10:00:00	0.2125	14.344	200.1	0.509020422	0.610429577	0.008999485	0.092846033	0.028616049
2019-08-20T10:05:00	0.2152	14.362	200.7	0.518355768	0.623444749	0.009303404	0.095981509	0.029582433
2019-08-20T10:10:00	0.2128	14.384	200.3	0.510247864	0.612136833	0.009039157	0.093255321	0.028742196
2019-08-20T10:15:00	0.2116	14.408	200.3	0.505893955	0.606086448	0.008898829	0.091807581	0.028295988
2019-08-20T10:20:00	0.2136	14.436	200.5	0.512843688	0.615751387	0.009123344	0.094123858	0.029009887
2019-08-20T10:25:00	0.2128	14.453	200.7	0.510205515	0.612077909	0.009037787	0.093241185	0.028737839
2019-08-20T10:30:00	0.2112	14.482	200.8	0.504479929	0.604124743	0.008853491	0.091339830	0.028151823
2019-08-20T10:35:00	0.2102	14.521	201.1	0.501148744	0.599509693	0.008747137	0.090242604	0.027813647
2019-08-20T10:40:00	0.2085	14.548	201.2	0.495407939	0.591577279	0.008565356	0.088367202	0.027235630
2019-08-20T10:45:00	0.2103	14.562	201.2	0.501692575	0.600262511	0.008764456	0.090421280	0.027868717
2019-08-20T10:50:00	0.2092	14.580	201.4	0.497671417	0.594701701	0.008636802	0.089104292	0.027462808
2019-08-20T10:55:00	0.2080	14.608	201.5	0.493645510	0.589147335	0.008509931	0.087795386	0.027059390
2019-08-20T11:00:00	0.2085	14.631	201.5	0.495465857	0.591657175	0.008567181	0.088386025	0.027241431
2019-08-20T11:05:00	0.2080	14.651	201.7	0.493502448	0.588950198	0.008505439	0.087749050	0.027045110
2019-08-20T11:10:00	0.2081	14.661	201.7	0.493947007	0.589562847	0.008519400	0.087893075	0.027089499
2019-08-20T11:15:00	0.2074	14.664	201.8	0.491638471	0.586383169	0.008447030	0.087146453	0.026859383
2019-08-20T11:20:00	0.2096	14.672	201.9	0.499304314	0.596958246	0.008688527	0.089637929	0.027627280
2019-08-20T11:25:00	0.2089	14.685	202.0	0.496655662	0.593299081	0.008604704	0.088773140	0.027360744
2019-08-20T11:30:00	0.2078	14.693	202.0	0.492972705	0.588220364	0.008488819	0.087577582	0.026992261
2019-08-20T11:35:00	0.2066	14.699	202.1	0.488941232	0.582673519	0.008362864	0.086278126	0.026591756
2019-08-20T11:40:00	0.2057	14.710	202.2	0.485594804	0.578079102	0.008259022	0.085206803	0.026261564
2019-08-20T11:45:00	0.2070	14.732	202.3	0.490175920	0.584370925	0.008401340	0.086675075	0.026714100
2019-08-20T11:50:00	0.2065	14.764	202.5	0.488554053	0.582141491	0.008350817	0.086153835	0.026553449
2019-08-20T11:55:00	0.2031	14.788	202.6	0.476919009	0.566209486	0.007992799	0.082460230	0.025415044
2019-08-20T12:00:00	0.2039	14.808	202.7	0.479439433	0.569651565	0.008069695	0.083253552	0.025659553
2019-08-20T12:05:00	0.2041	14.822	202.8	0.480231282	0.570734019	0.008093929	0.083503569	0.025736611
2019-08-20T12:10:00	0.2045	14.839	203.0	0.481713571	0.572761645	0.008139389	0.083972580	0.025881165
2019-08-20T12:15:00	0.2031	14.853	203.1	0.476631466	0.565817117	0.007984049	0.082369962	0.025387222
2019-08-20T12:20:00	0.2028	14.877	203.2	0.475694959	0.564539657	0.007955585	0.082076306	0.025296714
2019-08-20T12:25:00	0.2005	14.892	203.4	0.467831357	0.553840687	0.007718562	0.079630979	0.024543041
2019-08-20T12:30:00	0.2043	14.912	203.4	0.480735752	0.571423887	0.008109386	0.083663042	0.025785762
2019-08-20T12:35:00	0.2020	14.927	203.4	0.472883880	0.560709346	0.007870448	0.081197959	0.025026000
2019-08-20T12:40:00	0.2019	14.949	203.5	0.472638814	0.560375721	0.007863047	0.081121607	0.025002467
2019-08-20T12:45:00	0.2003	14.951	203.6	0.467196294	0.552978784	0.007699574	0.079435087	0.024482665
2019-08-20T12:50:00	0.2033	14.961	203.6	0.477338453	0.566781959	0.008005570	0.082591993	0.025455654
2019-08-20T12:55:00	0.2018	14.968	203.8	0.472249767	0.559846187	0.007851305	0.081000470	0.024965132
2019-08-20T13:00:00	0.2031	14.971	203.9	0.476848947	0.566113876	0.007990666	0.082438231	0.025408263
2019-08-20T13:05:00	0.2032	14.972	204.0	0.476949947	0.566251707	0.007993740	0.082469945	0.025418038
2019-08-20T13:10:00	0.2012	14.969	204.2	0.470128814	0.556961453	0.007787446	0.080341641	0.024762074
2019-08-20T13:15:00	0.2033	14.970	204.5	0.477497664	0.566999293	0.008010421	0.082642034	0.025471077
2019-08-20T13:20:00	0.2013	14.969	204.9	0.470677637	0.557707572	0.007803945	0.080511867	0.024814539
2019-08-20T13:25:00	0.2000	14.964	205.7	0.465925809	0.551255451	0.007661657	0.079043905	0.024362099
2019-08-20T13:30:00	0.2027	14.963	206.2	0.475380002	0.564110192	0.007946024	0.081977663	0.025266312
2019-08-20T13:35:00	0.2012	14.966	206.7	0.470288365	0.557178337	0.007792241	0.080391110	0.024777321
2019-08-20T13:40:00	0.2011	14.974	207.3	0.469696622	0.556374062	0.007774464	0.080207715	0.024720797
2019-08-20T13:45:00	0.2008	14.973	207.4	0.468758191	0.555099153	0.007746314	0.079917298	0.024631287
2019-08-20T13:50:00	0.1993	14.974	207.6	0.463656546	0.548180523	0.007594162	0.078347566	0.024147481
2019-08-20T13:55:00	0.1987	14.975	207.6	0.461327249	0.545028489	0.007525186	0.077635959	0.023928157
2019-08-20T14:00:00	0.2003	14.977	207.5	0.466981843	0.552687805	0.007693167	0.079368991	0.024462294
2019-08-20T14:05:00	0.1985	14.978	207.4	0.460835414	0.544363482	0.007510662	0.077486110	0.023881972
2019-08-20T14:10:00	0.1992	14.984	207.2	0.463367871	0.547789650	0.007585597	0.078259202	0.024120246
2019-08-20T14:15:00	0.1985	14.987	207.1	0.460690959	0.544168200	0.007506398	0.077442125	0.023868415
2019-08-20T14:20:00	0.1985	14.991	207.0	0.460792444	0.544305391	0.007509393	0.077473025	0.023877939
2019-08-20T14:25:00	0.1989	14.995	206.8	0.462283288	0.546321693	0.007553459	0.077927645	0.024018057
2019-08-20T14:30:00	0.1988	14.997	206.7	0.461690138	0.545519272	0.007535912	0.077746612	0.023962261
2019-08-20T14:35:00	0.1995	14.998	206.5	0.464221951	0.548946284	0.007610951	0.078520781	0.024200867
2019-08-20T14:40:00	0.2003	14.993	206.5	0.467098654	0.552846296	0.007696657	0.079404990	0.024473389
2019-08-20T14:45:00	0.2012	14.990	206.4	0.470319364	0.557220477	0.007793172	0.080400723	0.024780284
2019-08-20T14:50:00	0.2013	14.983	206.3	0.470420560	0.557358049	0.007796215	0.080432108	0.024789957
2019-08-20T14:55:00	0.2017	14.978	206.2	0.471907153	0.559379952	0.007840972	0.080893864	0.024932275
2019-08-20T15:00:00	0.2000	14.975	206.2	0.466116597	0.551514161	0.007667345	0.079102588	0.024380186
2019-08-20T15:05:00	0.2005	14.971	206.1	0.467605087	0.553533558	0.007711794	0.079561156	0.024521521
2019-08-20T15:10:00	0.2014	14.968	206.0	0.470825314	0.557908378	0.007808388	0.080557701	0.024828666
2019-08-20T15:15:00	0.1980	14.959	205.9	0.459128978	0.542057700	0.007460375	0.076967308	0.023722072
2019-08-20T15:20:00	0.2002	14.955	205.9	0.466868682	0.552534276	0.007689788	0.079334124	0.024451548
2019-08-20T15:25:00	0.1992	14.950	205.9	0.463153176	0.547498992	0.007579230	0.078193515	0.024100001
2019-08-20T15:30:00	0.1995	14.945	205.8	0.464295932	0.549046499	0.007613149	0.078543459	0.024207857
2019-08-20T15:35:00	0.2009	14.940	205.8	0.469252521	0.555770640	0.007761136	0.080070214	0.024678418
2019-08-20T15:40:00	0.2017	14.932	205.7	0.471778664	0.559205125	0.007837099	0.080853902	0.024919958
2019-08-20T15:45:00	0.2020	14.919	205.7	0.472918502	0.560756483	0.007871494	0.081208749	0.025029325
2019-08-20T15:50:00	0.2011	14.907	205.7	0.469902698	0.556654121	0.007780653	0.080271559	0.024740474
2019-08-20T15:55:00	0.2030	14.895	205.6	0.476234692	0.565275805	0.007971984	0.082245484	0.025348857
2019-08-20T16:00:00	0.2032	14.883	205.6	0.477027292	0.566357261	0.007996095	0.082494236	0.025425525
2019-08-20T16:05:00	0.2024	14.872	205.5	0.474373584	0.562738398	0.007915509	0.081662849	0.025169283
2019-08-20T16:10:00	0.2024	14.860	205.5	0.474487043	0.562893008	0.007918946	0.081698310	0.025180212
2019-08-20T16:15:00	0.2028	14.853	205.4	0.475638348	0.564462458	0.007953866	0.082058571	0.025291249
2019-08-20T16:20:00	0.2016	14.842	205.3	0.471598591	0.558960134	0.007831672	0.080797913	0.024902702
2019-08-20T16:25:00	0.2030	14.833	205.3	0.476556854	0.565715315	0.007981779	0.082346547	0.025380006
2019-08-20T16:30:00	0.2009	14.823	205.3	0.469054256	0.555501298	0.007755190	0.080008865	0.024659509
2019-08-20T16:35:00	0.2013	14.814	205.3	0.470553849	0.557539262	0.007800222	0.080473456	0.024802701
2019-08-20T16:40:00	0.2009	14.803	205.2	0.469281527	0.555810048	0.007762007	0.080079191	0.024681184
2019-08-20T16:45:00	0.2007	14.793	205.1	0.468355387	0.554552138	0.007734247	0.079792801	0.024592916
2019-08-20T16:50:00	0.2005	14.781	204.9	0.467775714	0.553765155	0.007716897	0.079613806	0.024537748
2019-08-20T16:55:00	0.1995	14.770	205.0	0.464420697	0.549215518	0.007616857	0.078581712	0.024219647
2019-08-20T17:00:00	0.1982	14.758	205.3	0.459672471	0.542791832	0.007476373	0.077132359	0.023772942
2019-08-20T17:05:00	0.1993	14.746	204.9	0.463607046	0.548113494	0.007592693	0.078332411	0.024142810
2019-08-20T17:10:00	0.1989	14.733	204.8	0.462332100	0.546387739	0.007554904	0.077942552	0.024022652
2019-08-20T17:15:00	0.1976	14.721	204.8	0.457580923	0.539967921	0.007414898	0.076498140	0.023577470
2019-08-20T17:20:00	0.1957	14.710	204.8	0.451081331	0.531214521	0.007225454	0.074543678	0.022975086
2019-08-20T17:25:00	0.1972	14.696	204.7	0.456417759	0.538398966	0.007380819	0.076146548	0.023469106
2019-08-20T17:30:00	0.1957	14.683	204.6	0.450961398	0.531053312	0.007221981	0.074507847	0.022964042
2019-08-20T17:35:00	0.1978	14.670	204.7	0.458384692	0.541052723	0.007438493	0.076741562	0.023652495
2019-08-20T17:40:00	0.1989	14.659	204.5	0.462320772	0.546372411	0.007554569	0.077939093	0.024021585
2019-08-20T17:45:00	0.1981	14.647	204.4	0.459307908	0.542299367	0.007465640	0.077021628	0.023738814
2019-08-20T17:50:00	0.1969	14.634	204.2	0.455248517	0.536822890	0.007346639	0.075793919	0.023360422
2019-08-20T17:55:00	0.1976	14.621	204.1	0.457797627	0.540260344	0.007421256	0.076563732	0.023597686
2019-08-20T18:00:00	0.1965	14.607	204.1	0.453736410	0.534786251	0.007302551	0.075339078	0.023220235
2019-08-20T18:05:00	0.1963	14.592	204.1	0.453154212	0.534002576	0.007285611	0.075164311	0.023166371
2019-08-20T18:10:00	0.1986	14.578	203.9	0.461267485	0.544947673	0.007523421	0.077617743	0.023922542
2019-08-20T18:15:00	0.1992	14.564	203.9	0.463117746	0.547451030	0.007578179	0.078182677	0.024096660
2019-08-20T18:20:00	0.1991	14.551	203.8	0.462884396	0.547135163	0.007571262	0.078111318	0.024074667
2019-08-20T18:25:00	0.1986	14.539	203.6	0.461261820	0.544940011	0.007523253	0.077616016	0.023922010
2019-08-20T18:30:00	0.2010	14.527	203.4	0.469355593	0.555910676	0.007764229	0.080102117	0.024688250
2019-08-20T18:35:00	0.2001	14.516	203.4	0.466349017	0.551829364	0.007674277	0.079174105	0.024402228
2019-08-20T18:40:00	0.2000	14.505	203.6	0.466115890	0.551513202	0.007667324	0.079102370	0.024380119
2019-08-20T18:45:00	0.2009	14.494	203.5	0.469003382	0.555432192	0.007753664	0.079993127	0.024654659
2019-08-20T18:50:00	0.1994	14.485	203.6	0.463914532	0.548529897	0.007601820	0.078426578	0.024171833
2019-08-20T18:55:00	0.1988	14.474	203.5	0.461945167	0.545864245	0.007543454	0.077824423	0.023986243
2019-08-20T19:00:00	0.1993	14.464	203.4	0.463447925	0.547898039	0.007587971	0.078283702	0.024127797
2019-08-20T19:05:00	0.1987	14.454	203.5	0.461478287	0.545232745	0.007529649	0.077682005	0.023942348
2019-08-20T19:10:00	0.2006	14.444	203.4	0.468185183	0.554321035	0.007729151	0.079740223	0.024576711
2019-08-20T19:15:00	0.1991	14.433	203.3	0.462747894	0.546950412	0.007567218	0.078069590	0.024061806
2019-08-20T19:20:00	0.1992	14.423	203.3	0.463208935	0.547574477	0.007580883	0.078210572	0.024105258
2019-08-20T19:25:00	0.2000	14.410	203.3	0.466098918	0.551490186	0.007666818	0.079097149	0.024378510
2019-08-20T19:30:00	0.2016	14.396	203.2	0.471411604	0.558705763	0.007826038	0.080739795	0.024884789
2019-08-20T19:35:00	0.2034	14.382	203.2	0.477753147	0.567348086	0.008018207	0.082722365	0.025495836
2019-08-20T19:40:00	0.2031	14.367	203.2	0.476829326	0.566087101	0.007990069	0.082432071	0.025406365
2019-08-20T19:45:00	0.2051	14.352	203.2	0.483505846	0.575215644	0.008194526	0.084541410	0.026056484
2019-08-20T19:50:00	0.2031	14.338	203.0	0.476710306	0.565924692	0.007986448	0.082394707	0.025394849
2019-08-20T19:55:00	0.2042	14.325	202.8	0.480625084	0.571272530	0.008105994	0.083628045	0.025774976
2019-08-20T20:00:00	0.2044	14.311	202.3	0.481083692	0.571899818	0.008120056	0.083773121	0.025819689
2019-08-20T20:05:00	0.2046	14.293	201.8	0.481887515	0.572999698	0.008144732	0.084027702	0.025898154
2019-08-20T20:10:00	0.2044	14.275	201.5	0.481310157	0.572209640	0.008127004	0.083844807	0.025841784
2019-08-20T20:15:00	0.2066	14.257	201.2	0.488667078	0.582296788	0.008354333	0.086190108	0.026564628
2019-08-20T20:20:00	0.2043	14.241	201.2	0.480845947	0.571574607	0.008112765	0.083697897	0.025796505
2019-08-20T20:25:00	0.2035	14.225	201.1	0.478195232	0.567951758	0.008031690	0.082861461	0.025538707
2019-08-20T20:30:00	0.2013	14.210	201.1	0.470349853	0.557261924	0.007794089	0.080410178	0.024783198
2019-08-20T20:35:00	0.2024	14.196	201.1	0.474271996	0.562599975	0.007912432	0.081631105	0.025159499
2019-08-20T20:40:00	0.2025	14.184	201.2	0.474731466	0.563226116	0.007926354	0.081774728	0.025203765
2019-08-20T20:45:00	0.2008	14.170	201.2	0.468958161	0.555370765	0.007752309	0.079979139	0.024650347
2019-08-20T20:50:00	0.1997	14.159	201.1	0.464910397	0.549879029	0.007631419	0.078731944	0.024265950
2019-08-20T20:55:00	0.2016	14.146	201.0	0.471610476	0.558976302	0.007832030	0.080801608	0.024903840
2019-08-20T21:00:00	0.2036	14.133	200.9	0.478642896	0.568563208	0.008045354	0.083002431	0.025582155
2019-08-20T21:05:00	0.2024	14.122	201.0	0.474260709	0.562584595	0.007912090	0.081627578	0.025158412
2019-08-20T21:10:00	0.2041	14.111	201.0	0.480251510	0.570761676	0.008094548	0.083509960	0.025738581
2019-08-20T21:15:00	0.2055	14.099	188.1	0.485197125	0.577533712	0.008246724	0.085079931	0.026222461
2019-08-20T21:20:00	0.2056	14.088	188.1	0.485310222	0.577688804	0.008250220	0.085116003	0.026233579
2019-08-20T21:25:00	0.2064	14.075	200.6	0.488181390	0.581629522	0.008339229	0.086034288	0.026516603
2019-08-20T21:30:00	0.2056	14.063	201.0	0.485536405	0.577999004	0.008257215	0.085188166	0.026255820
2019-08-20T21:35:00	0.2054	14.050	200.9	0.484614704	0.576735187	0.008228730	0.084894291	0.026165245
2019-08-20T21:40:00	0.2041	14.037	187.8	0.480240242	0.570746270	0.008094203	0.083506400	0.025737483
2019-08-20T21:45:00	0.2051	14.025	200.8	0.483805900	0.575626731	0.008203774	0.084636827	0.026085892
2019-08-20T21:50:00	0.2041	14.014	201.9	0.480121342	0.570583701	0.008090562	0.083468834	0.025725905
2019-08-20T21:55:00	0.2032	14.002	200.7	0.477124332	0.566489701	0.007999049	0.082524716	0.025434919
2019-08-20T22:00:00	0.2040	13.991	200.3	0.480002437	0.570421137	0.008086921	0.083431276	0.025714329
2019-08-20T22:05:00	0.2071	13.981	200.2	0.490557531	0.584895798	0.008413250	0.086797945	0.026751970
2019-08-20T22:10:00	0.2073	13.971	200.2	0.491109217	0.585654800	0.008430482	0.086975729	0.026806764
2019-08-20T22:15:00	0.2075	13.959	200.0	0.492005063	0.586887812	0.008458502	0.087264804	0.026895860
2019-08-20T22:20:00	0.2087	13.948	199.9	0.495996536	0.592389362	0.008583907	0.088558583	0.027294615
2019-08-20T22:25:00	0.2104	13.939	200.0	0.502043276	0.600748108	0.008775634	0.090536596	0.027904258
2019-08-20T22:30:00	0.2087	13.928	199.8	0.496066750	0.592486253	0.008586121	0.088581426	0.027301656
2019-08-20T22:35:00	0.2088	13.919	199.7	0.496273761	0.592771942	0.008592651	0.088648793	0.027322419
2019-08-20T22:40:00	0.2086	13.907	199.5	0.495793131	0.592108693	0.008577494	0.088492423	0.027274224
2019-08-20T22:45:00	0.2057	13.898	186.7	0.485669647	0.578181758	0.008261337	0.085230690	0.026268926
2019-08-20T22:50:00	0.2074	13.888	199.3	0.491734743	0.586515685	0.008450042	0.087177526	0.026868960
2019-08-20T22:55:00	0.2075	13.879	186.5	0.491942017	0.586801017	0.008456528	0.087244445	0.026889585
2019-08-20T23:00:00	0.2080	13.872	186.4	0.493525870	0.588982472	0.008506175	0.087756636	0.027047447
2019-08-20T23:05:00	0.2074	13.861	186.3	0.491668066	0.586423906	0.008447956	0.087156005	0.026862327
2019-08-20T23:10:00	0.2062	13.850	186.2	0.487397211	0.580552572	0.008314872	0.085782999	0.026439153
2019-08-20T23:15:00	0.2069	13.841	186.1	0.490016639	0.584151883	0.008396371	0.086623816	0.026698301
2019-08-20T23:20:00	0.2076	13.833	186.0	0.492289864	0.587279937	0.008467419	0.087356805	0.026924216
2019-08-20T23:25:00	0.2069	13.824	185.8	0.489742533	0.583774981	0.008387824	0.086535639	0.026671124
2019-08-20T23:30:00	0.2076	13.816	185.7	0.492360154	0.587376726	0.008469621	0.087379518	0.026931216
2019-08-20T23:35:00	0.2062	13.806	185.5	0.487400842	0.580557557	0.008314984	0.085784162	0.026439512
2019-08-20T23:40:00	0.2070	13.799	185.3	0.490364682	0.584630538	0.008407230	0.086735842	0.026732829
2019-08-20T23:45:00	0.2055	13.791	185.2	0.485057536	0.577342304	0.008242410	0.085035421	0.026208742
2019-08-20T23:50:00	0.2026	13.783	197.8	0.474901929	0.563458456	0.007931521	0.081828044	0.025220198
2019-08-20T23:55:00	0.2057	13.775	197.8	0.485817765	0.578384933	0.008265920	0.085277975	0.026283500
2019-08-21T00:00:00	0.2051	13.767	185.1	0.483610674	0.575359255	0.008197756	0.084574739	0.026066756
2019-08-21T00:05:00	0.2047	13.759	197.7	0.482437914	0.573753113	0.008161650	0.084202242	0.025951949
2019-08-21T00:10:00	0.2048	13.751	197.6	0.482645757	0.574037682	0.008168043	0.084268198	0.025972277
2019-08-21T00:15:00	0.2044	13.743	197.5	0.481127344	0.571959534	0.008121395	0.083786936	0.025823947
2019-08-21T00:20:00	0.2042	13.734	197.5	0.480644566	0.571299174	0.008106591	0.083634205	0.025776874
2019-08-21T00:25:00	0.2064	13.726	197.3	0.488097430	0.581514192	0.008336619	0.086007365	0.026508305
2019-08-21T00:30:00	0.2056	13.717	184.6	0.485546952	0.578013470	0.008257541	0.085191532	0.026256857
2019-08-21T00:35:00	0.2046	13.709	184.6	0.481958959	0.573097481	0.008146927	0.084050348	0.025905134
2019-08-21T00:40:00	0.2045	13.702	184.5	0.481476300	0.572436963	0.008132104	0.083897417	0.025857999
2019-08-21T00:45:00	0.2057	13.695	197.1	0.485825030	0.578394900	0.008266145	0.085280294	0.026284215
2019-08-21T00:50:00	0.2058	13.686	197.1	0.486032665	0.578679746	0.008272572	0.085346602	0.026304652
2019-08-21T00:55:00	0.2040	13.677	184.3	0.480027909	0.570455960	0.008087701	0.083439321	0.025716809
2019-08-21T01:00:00	0.2078	13.668	184.2	0.492992700	0.588247908	0.008489446	0.087584051	0.026994255
2019-08-21T01:05:00	0.2089	13.661	184.0	0.496639270	0.593276453	0.008604186	0.088767801	0.027359098
2019-08-21T01:10:00	0.2095	13.653	183.8	0.498908079	0.596410481	0.008675961	0.089508292	0.027587325
2019-08-21T01:15:00	0.2103	13.644	183.7	0.501518669	0.600021750	0.008758916	0.090364124	0.027851101
2019-08-21T01:20:00	0.2085	13.637	183.6	0.495541222	0.591761145	0.008569555	0.088410521	0.027248981
2019-08-21T01:25:00	0.2096	13.629	183.4	0.499185067	0.596793383	0.008684744	0.089598905	0.027615253
2019-08-21T01:30:00	0.2104	13.621	195.7	0.501795445	0.600404939	0.008767734	0.090455097	0.027879139
2019-08-21T01:35:00	0.2109	13.614	183.1	0.503717795	0.603068088	0.008829102	0.091088214	0.028074272
2019-08-21T01:40:00	0.2109	13.606	183.1	0.503581294	0.602878888	0.008824737	0.091043186	0.028060394
2019-08-21T01:45:00	0.2113	13.599	183.0	0.504816827	0.604591982	0.008864282	0.091451165	0.028186137
2019-08-21T01:50:00	0.2078	13.591	182.9	0.492999950	0.588257895	0.008489674	0.087586397	0.026994978
2019-08-21T01:55:00	0.2111	13.584	182.9	0.504200923	0.603737863	0.008844558	0.091247677	0.028123420
2019-08-21T02:00:00	0.2096	13.577	195.2	0.499258833	0.596895366	0.008687084	0.089623044	0.027622693
2019-08-21T02:05:00	0.2086	13.569	182.6	0.495685289	0.591959902	0.008574095	0.088457356	0.027263416
2019-08-21T02:10:00	0.2121	13.560	194.9	0.507562862	0.608403828	0.008952489	0.092361180	0.028466613
2019-08-21T02:15:00	0.2117	13.551	194.9	0.506398323	0.606786558	0.008915029	0.091974712	0.028347499
2019-08-21T02:20:00	0.2102	13.544	195.0	0.501116120	0.599464540	0.008746099	0.090231891	0.027810345
2019-08-21T02:25:00	0.2089	13.537	195.1	0.496857109	0.593577186	0.008611065	0.088838766	0.027380970
2019-08-21T02:30:00	0.2094	13.531	195.2	0.498438678	0.595761732	0.008661087	0.089354838	0.027540029
2019-08-21T02:35:00	0.2092	13.522	195.2	0.497614705	0.594623366	0.008635008	0.089085787	0.027457105
2019-08-21T02:40:00	0.2093	13.514	195.3	0.498165248	0.595383914	0.008652429	0.089265511	0.027512497
2019-08-21T02:45:00	0.2087	13.506	195.3	0.495966161	0.592347446	0.008582949	0.088548701	0.027291570
2019-08-21T02:50:00	0.2090	13.499	195.4	0.497204454	0.594056785	0.008622038	0.088951979	0.027415864
2019-08-21T02:55:00	0.2074	13.491	195.4	0.491563720	0.586280283	0.008444692	0.087122330	0.026851948
2019-08-21T03:00:00	0.2076	13.482	195.4	0.492115243	0.587039505	0.008461951	0.087300390	0.026906828
2019-08-21T03:05:00	0.2059	13.474	195.5	0.486466057	0.579274411	0.008285995	0.085485086	0.026347334
2019-08-21T03:10:00	0.2063	13.466	195.5	0.487707813	0.580979077	0.008324515	0.085882487	0.026469817
2019-08-21T03:15:00	0.2070	13.459	183.0	0.490327001	0.584578711	0.008406054	0.086723710	0.026729090
2019-08-21T03:20:00	0.2058	13.451	183.0	0.486054459	0.578709647	0.008273247	0.085353563	0.026306797
2019-08-21T03:25:00	0.2072	13.443	183.0	0.490741709	0.585149161	0.008419001	0.086857277	0.026770256
2019-08-21T03:30:00	0.2060	13.435	183.0	0.486814465	0.579752575	0.008296794	0.085596495	0.026381671
2019-08-21T03:35:00	0.2072	13.426	183.1	0.490812031	0.585245906	0.008421197	0.086879937	0.026777240
2019-08-21T03:40:00	0.2065	13.418	183.1	0.488608185	0.582215868	0.008352500	0.086171207	0.026558803
2019-08-21T03:45:00	0.2068	13.409	195.7	0.489504690	0.583447992	0.008380412	0.086459164	0.026647554
2019-08-21T03:50:00	0.2070	13.400	183.2	0.490056548	0.584206764	0.008397616	0.086636658	0.026702259
2019-08-21T03:55:00	0.2093	13.390	183.2	0.498176107	0.595398916	0.008652772	0.089269057	0.027513590
2019-08-21T04:00:00	0.2095	13.380	183.3	0.498726560	0.596159587	0.008670208	0.089448935	0.027569031
2019-08-21T04:05:00	0.2099	13.369	183.4	0.500054948	0.597996288	0.008712356	0.089883771	0.027703051
2019-08-21T04:10:00	0.2107	13.360	183.5	0.502755686	0.601734849	0.008798361	0.090771073	0.027976526
2019-08-21T04:15:00	0.2100	13.349	183.5	0.500650639	0.598820382	0.008731290	0.090079106	0.027763255
2019-08-21T04:20:00	0.2140	13.339	183.5	0.514312134	0.617798535	0.009171141	0.094616969	0.029161869
2019-08-21T04:25:00	0.2116	13.327	183.5	0.506049039	0.606301698	0.008903809	0.091858955	0.028311822
2019-08-21T04:30:00	0.2112	13.318	183.4	0.504632009	0.604335650	0.008858361	0.091390080	0.028167310
2019-08-21T04:35:00	0.2112	13.308	183.4	0.504586521	0.604272565	0.008856904	0.091375048	0.028162677
2019-08-21T04:40:00	0.2119	13.298	183.3	0.506940970	0.607540030	0.008932475	0.092154696	0.028402972
2019-08-21T04:45:00	0.2121	13.290	183.3	0.507580909	0.608428900	0.008953070	0.092367176	0.028468461
2019-08-21T04:50:00	0.2128	13.282	183.3	0.510275708	0.612175576	0.009040058	0.093264616	0.028745060
2019-08-21T04:55:00	0.2136	13.274	195.8	0.512968388	0.615925163	0.009127398	0.094165683	0.029022778
2019-08-21T05:00:00	0.2154	13.265	195.8	0.519075817	0.624451557	0.009327056	0.096225519	0.029657640
2019-08-21T05:05:00	0.2152	13.257	195.8	0.518347411	0.623433066	0.009303130	0.095978679	0.029581561
2019-08-21T05:10:00	0.2175	13.249	195.7	0.526149784	0.634365090	0.009561019	0.098639270	0.030401581
2019-08-21T05:15:00	0.2182	13.243	195.7	0.528489487	0.637652920	0.009639043	0.099444225	0.030649676
2019-08-21T05:20:00	0.2194	13.238	195.7	0.532528945	0.643339782	0.009774499	0.100841709	0.031080394
2019-08-21T05:25:00	0.2192	13.231	195.6	0.531803381	0.642317334	0.009750099	0.100589971	0.031002806
2019-08-21T05:30:00	0.2187	13.223	195.6	0.530396942	0.640336633	0.009702888	0.100102902	0.030852687
2019-08-21T05:35:00	0.2199	13.218	195.6	0.534434168	0.646026622	0.009838718	0.101504245	0.031284594
2019-08-21T05:40:00	0.2195	13.213	195.6	0.533028801	0.644044418	0.009791328	0.101015321	0.031133903
2019-08-21T05:45:00	0.2191	13.209	183.0	0.531622862	0.642063018	0.009744033	0.100527388	0.030983517
2019-08-21T05:50:00	0.2189	13.205	195.7	0.530897108	0.641040836	0.009719664	0.100275980	0.030906031
2019-08-21T05:55:00	0.2198	13.199	195.7	0.533913756	0.645292417	0.009821156	0.101323056	0.031228750
2019-08-21T06:00:00	0.2223	13.192	195.7	0.542359525	0.657235136	0.010108133	0.104283740	0.032141262
2019-08-21T06:05:00	0.2218	13.187	195.6	0.540957377	0.655248398	0.010060201	0.103789235	0.031988850
2019-08-21T06:10:00	0.2206	13.184	195.6	0.536837646	0.649420346	0.009920034	0.102343165	0.031543158
2019-08-21T06:15:00	0.2184	13.181	195.7	0.529309659	0.638806506	0.009666469	0.099727176	0.030736884
2019-08-21T06:20:00	0.2200	13.179	195.7	0.534708303	0.646413464	0.009847976	0.101599754	0.031314031
2019-08-21T06:25:00	0.2199	13.176	195.7	0.534323222	0.645870078	0.009834973	0.101465604	0.031272684
2019-08-21T06:30:00	0.2221	13.173	195.7	0.541750307	0.656371723	0.010087293	0.104068738	0.032074996
2019-08-21T06:35:00	0.2203	13.173	195.7	0.535592827	0.647662067	0.009877877	0.101908234	0.031409107
2019-08-21T06:40:00	0.2212	13.174	195.8	0.538605379	0.651919404	0.009980057	0.102962405	0.031734013
2019-08-21T06:45:00	0.2195	13.175	195.8	0.533122608	0.644176678	0.009794487	0.101047919	0.031143950
2019-08-21T06:50:00	0.2220	13.179	195.9	0.541570308	0.656116677	0.010081139	0.104005256	0.032055430
2019-08-21T06:55:00	0.2242	13.185	195.9	0.548981881	0.666640259	0.010336072	0.106635348	0.032866050
2019-08-21T07:00:00	0.2233	13.192	183.4	0.545888457	0.662242484	0.010229277	0.105533569	0.032526471
2019-08-21T07:05:00	0.2216	13.200	196.1	0.540077799	0.654002924	0.010030191	0.103479634	0.031893428
2019-08-21T07:10:00	0.2226	13.209	183.6	0.543425580	0.658746731	0.010144652	0.104660508	0.032257385
2019-08-21T07:15:00	0.2215	13.219	196.2	0.539648290	0.653394971	0.010015554	0.103328622	0.031846885
2019-08-21T07:20:00	0.2219	13.230	196.2	0.541300290	0.655734132	0.010071912	0.103910063	0.032026091
2019-08-21T07:25:00	0.2186	13.241	196.3	0.530039334	0.639833267	0.009690902	0.099979247	0.030814575
2019-08-21T07:30:00	0.2202	13.253	196.4	0.535436837	0.647441824	0.009872600	0.101853798	0.031392330
2019-08-21T07:35:00	0.2201	13.265	196.5	0.535051837	0.646898324	0.009859584	0.101719506	0.031350940
2019-08-21T07:40:00	0.2199	13.278	184.0	0.534326803	0.645875132	0.009835094	0.101466851	0.031273069
2019-08-21T07:45:00	0.2205	13.293	196.7	0.536321175	0.648690689	0.009902532	0.102162600	0.031487506
2019-08-21T07:50:00	0.2199	13.313	196.8	0.534236611	0.645747879	0.009832050	0.101435443	0.031263389
2019-08-21T07:55:00	0.2221	13.334	196.9	0.541663883	0.656249262	0.010084338	0.104038255	0.032065601
2019-08-21T08:00:00	0.2197	13.355	184.4	0.533806375	0.645140949	0.009817534	0.101285690	0.031217233
2019-08-21T08:05:00	0.2189	13.371	197.1	0.531039696	0.641241629	0.009724449	0.100325349	0.030921247
2019-08-21T08:10:00	0.2204	13.389	184.6	0.536095820	0.648372381	0.009894900	0.102083864	0.031463238
2019-08-21T08:15:00	0.2198	13.408	197.3	0.534011120	0.645429763	0.009824441	0.101356942	0.031239194
2019-08-21T08:20:00	0.2197	13.419	197.4	0.533625961	0.644886486	0.009811451	0.101222926	0.031197889
2019-08-21T08:25:00	0.2204	13.430	184.8	0.535960600	0.648181407	0.009890323	0.102036634	0.031448682
2019-08-21T08:30:00	0.2205	13.447	184.9	0.536255360	0.648597722	0.009900303	0.102139602	0.031480417
2019-08-21T08:35:00	0.2203	13.459	197.6	0.535870451	0.648054094	0.009887271	0.102005153	0.031438979
2019-08-21T08:40:00	0.2208	13.491	185.1	0.537524256	0.650390709	0.009943326	0.102583462	0.031617219
2019-08-21T08:45:00	0.2206	13.487	197.7	0.536799741	0.649366787	0.009918749	0.102329908	0.031539071
2019-08-21T08:50:00	0.2195	13.504	197.8	0.533015202	0.644025245	0.009790870	0.101010596	0.031132447
2019-08-21T08:55:00	0.2214	13.536	185.3	0.539426728	0.653081419	0.010008007	0.103250766	0.031822889
2019-08-21T09:00:00	0.2207	13.575	198.1	0.537004309	0.649655850	0.009925685	0.102401467	0.031561127
2019-08-21T09:05:00	0.2203	13.602	198.3	0.535599988	0.647672177	0.009878119	0.101910733	0.031409878
2019-08-21T09:10:00	0.2214	13.618	198.4	0.539291638	0.652890261	0.010003407	0.103203310	0.031808262
2019-08-21T09:15:00	0.2203	13.644	198.5	0.535849703	0.648024794	0.009886569	0.101997908	0.031436746
2019-08-21T09:20:00	0.2209	13.680	185.9	0.537843196	0.650841588	0.009954155	0.102695180	0.031651652
2019-08-21T09:25:00	0.2203	13.727	186.1	0.535759550	0.647897486	0.009883518	0.101966432	0.031427045
2019-08-21T09:30:00	0.2201	13.756	199.0	0.535034665	0.646874085	0.009859003	0.101713519	0.031349094
2019-08-21T09:35:00	0.2204	13.773	199.2	0.536009254	0.648250120	0.009891970	0.102053627	0.031453919
2019-08-21T09:40:00	0.2180	13.790	186.5	0.527798222	0.636681068	0.009615957	0.099206059	0.030576271
2019-08-21T09:45:00	0.2190	13.830	199.4	0.531157917	0.641408122	0.009728418	0.100366291	0.030933865
2019-08-21T09:50:00	0.2184	13.867	199.7	0.529410740	0.638948716	0.009669852	0.099762076	0.030747641
2019-08-21T09:55:00	0.2191	13.894	199.8	0.531748232	0.642239637	0.009748245	0.100570850	0.030996913
2019-08-21T10:00:00	0.2181	13.930	187.2	0.528298765	0.637384744	0.009632670	0.099378485	0.030629414
2019-08-21T10:05:00	0.2173	13.976	187.4	0.525473299	0.633415301	0.009538519	0.098407145	0.030330038
2019-08-21T10:10:00	0.2187	14.006	200.3	0.530142900	0.639979034	0.009694372	0.100015050	0.030825610
2019-08-21T10:15:00	0.2176	14.038	187.7	0.526637482	0.635050053	0.009577256	0.098806787	0.030453211
2019-08-21T10:20:00	0.2192	14.072	200.7	0.531986048	0.642574704	0.009756239	0.100653319	0.031022330
2019-08-21T10:25:00	0.2179	14.076	200.7	0.527460603	0.636206548	0.009604692	0.099089841	0.030540451
2019-08-21T10:30:00	0.2206	14.067	200.7	0.536887365	0.649490599	0.009921720	0.102360556	0.031548518
2019-08-21T10:35:00	0.2199	14.063	200.8	0.534408945	0.645991031	0.009837867	0.101495459	0.031281886
2019-08-21T10:40:00	0.2182	14.074	200.8	0.528524630	0.637702337	0.009640217	0.099456340	0.030653410
2019-08-21T10:45:00	0.2193	14.091	200.9	0.532169592	0.642833337	0.009762411	0.100716991	0.031041955
2019-08-21T10:50:00	0.2202	14.109	201.0	0.535470831	0.647489818	0.009873750	0.101865659	0.031395986
2019-08-21T10:55:00	0.2191	14.118	201.1	0.531630570	0.642073876	0.009744292	0.100530060	0.030984341
2019-08-21T11:00:00	0.2169	14.124	201.2	0.524036811	0.631399694	0.009490830	0.097915146	0.030178399
2019-08-21T11:05:00	0.2171	14.132	201.2	0.524960144	0.632695075	0.009521470	0.098231246	0.030275824
2019-08-21T11:10:00	0.2177	14.139	201.3	0.526905599	0.635426701	0.009586189	0.098898943	0.030481615
2019-08-21T11:15:00	0.2156	14.144	201.3	0.519642875	0.625244742	0.009345704	0.096417902	0.029716934
2019-08-21T11:20:00	0.2163	14.148	201.3	0.521932589	0.628450181	0.009421190	0.097196683	0.029956962
2019-08-21T11:25:00	0.2172	14.143	201.3	0.525243644	0.633092948	0.009530887	0.098328404	0.030305769
2019-08-21T11:30:00	0.2161	14.145	201.4	0.521391962	0.627692958	0.009403340	0.097012521	0.029900201
2019-08-21T11:35:00	0.2152	14.163	201.5	0.518219231	0.623253883	0.009298923	0.095935274	0.029568183
2019-08-21T11:40:00	0.2156	14.193	201.7	0.519827078	0.625502456	0.009351765	0.096480437	0.029736208
2019-08-21T11:45:00	0.2145	14.226	201.8	0.515969317	0.620110896	0.009225231	0.095175009	0.029333862
2019-08-21T11:50:00	0.2173	14.257	202.0	0.525427547	0.633351078	0.009536999	0.098391456	0.030325202
2019-08-21T11:55:00	0.2156	14.278	202.2	0.519869309	0.625561544	0.009353155	0.096494777	0.029740627
2019-08-21T12:00:00	0.2159	14.297	202.2	0.520793761	0.626855370	0.009383608	0.096808950	0.029837459
2019-08-21T12:05:00	0.2132	14.311	202.4	0.511465058	0.613831036	0.009078584	0.093662081	0.028867563
2019-08-21T12:10:00	0.2150	14.323	202.4	0.517520674	0.622277604	0.009276012	0.095698901	0.029495331
2019-08-21T12:15:00	0.2148	14.338	202.5	0.517079171	0.621660778	0.009261546	0.095549659	0.029449333
2019-08-21T12:20:00	0.2157	14.362	202.7	0.520053500	0.625819275	0.009359219	0.096557333	0.029759908
2019-08-21T12:25:00	0.2140	14.383	202.8	0.514144563	0.617564837	0.009165680	0.094560633	0.029144505
2019-08-21T12:30:00	0.2126	14.389	202.9	0.509595545	0.611229368	0.009018063	0.093037695	0.028675121
2019-08-21T12:35:00	0.2112	14.384	203.1	0.504697539	0.604426533	0.008860460	0.091411736	0.028173985
2019-08-21T12:40:00	0.2116	14.385	203.1	0.505968935	0.606190515	0.008901237	0.091832418	0.028303643
2019-08-21T12:45:00	0.2132	14.387	203.1	0.511349762	0.613670506	0.009074846	0.093623513	0.028855676
2019-08-21T12:50:00	0.2123	14.394	203.2	0.508510310	0.609720417	0.008983024	0.092676201	0.028563705
2019-08-21T12:55:00	0.2107	14.400	203.1	0.502924555	0.601968804	0.008803753	0.090826698	0.027993670
2019-08-21T13:00:00	0.2120	14.416	203.3	0.507282244	0.608014016	0.008943455	0.092267979	0.028437887
2019-08-21T13:05:00	0.2113	14.436	190.4	0.505125300	0.605019879	0.008874169	0.091553167	0.028217575
2019-08-21T13:10:00	0.2117	14.453	203.6	0.506396537	0.606784078	0.008914972	0.091974120	0.028347317
2019-08-21T13:15:00	0.2130	14.463	203.6	0.510749807	0.612835339	0.009055406	0.093422952	0.028793861
2019-08-21T13:20:00	0.2119	14.474	203.7	0.506881810	0.607457874	0.008930572	0.092135066	0.028396922
2019-08-21T13:25:00	0.2121	14.488	190.7	0.507809771	0.608746867	0.008960442	0.092443225	0.028491900
2019-08-21T13:30:00	0.2110	14.509	203.8	0.503938445	0.603373960	0.008836159	0.091161026	0.028096713
2019-08-21T13:35:00	0.2117	14.530	204.1	0.506238673	0.606564926	0.008909900	0.091921793	0.028331189
2019-08-21T13:40:00	0.2124	14.553	204.2	0.508879904	0.610234208	0.008994949	0.092799235	0.028601625
2019-08-21T13:45:00	0.2105	14.573	204.3	0.502265318	0.601055608	0.008782714	0.090609644	0.027926772
2019-08-21T13:50:00	0.2108	14.581	204.4	0.503194533	0.602342887	0.008812376	0.090915662	0.028021090
2019-08-21T13:55:00	0.2097	14.579	191.3	0.499661446	0.597452062	0.008699860	0.089754852	0.027663317
2019-08-21T14:00:00	0.2120	14.575	204.5	0.507451782	0.608249517	0.008948913	0.092324282	0.028455240
2019-08-21T14:05:00	0.2083	14.575	204.6	0.494648683	0.590530152	0.008541457	0.088120637	0.027159636
2019-08-21T14:10:00	0.2094	14.578	204.6	0.498329830	0.595611322	0.008657640	0.089319273	0.027529067
2019-08-21T14:15:00	0.2090	14.582	191.5	0.497198497	0.594048560	0.008621850	0.088950037	0.027415265
2019-08-21T14:20:00	0.2100	14.595	204.8	0.500533539	0.598658361	0.008727566	0.090040691	0.027751415
2019-08-21T14:25:00	0.2091	14.600	204.8	0.497341404	0.594245907	0.008626367	0.088996635	0.027429627
2019-08-21T14:30:00	0.2103	14.611	204.9	0.501706221	0.600281404	0.008764891	0.090425765	0.027870099
2019-08-21T14:35:00	0.2084	14.618	204.9	0.495077706	0.591121782	0.008554957	0.088259918	0.027202564
2019-08-21T14:40:00	0.2090	14.624	205.1	0.497040207	0.593829988	0.008616848	0.088898436	0.027399361
2019-08-21T14:45:00	0.2087	14.613	205.0	0.495908446	0.592267806	0.008581129	0.088529928	0.027285783
2019-08-21T14:50:00	0.2078	14.595	191.8	0.493056116	0.588335266	0.008491435	0.087604570	0.027000579
2019-08-21T14:55:00	0.2104	14.577	191.8	0.501891392	0.600537790	0.008770792	0.090486645	0.027888863
2019-08-21T15:00:00	0.2092	14.567	191.8	0.497669705	0.594699335	0.008636748	0.089103733	0.027462636
2019-08-21T15:05:00	0.2088	14.562	191.8	0.496538153	0.593136870	0.008600994	0.088734870	0.027348949
2019-08-21T15:10:00	0.2092	14.554	204.9	0.497812591	0.594896709	0.008641268	0.089150366	0.027477009
2019-08-21T15:15:00	0.2088	14.546	205.0	0.496337310	0.592859651	0.008594656	0.088669479	0.027328794
2019-08-21T15:20:00	0.2096	14.536	204.9	0.498986209	0.596518480	0.008678438	0.089533847	0.027595201
2019-08-21T15:25:00	0.2066	14.527	204.9	0.488908686	0.582628793	0.008361851	0.086267674	0.026588535
2019-08-21T15:30:00	0.2077	14.518	204.9	0.492596042	0.587701568	0.008477011	0.087455764	0.026954716
2019-08-21T15:35:00	0.2083	14.508	191.7	0.494559974	0.590407838	0.008538667	0.088091851	0.027150764
2019-08-21T15:40:00	0.2094	14.500	191.7	0.498584801	0.595963667	0.008665716	0.089402594	0.027554748
2019-08-21T15:45:00	0.2077	14.491	191.7	0.492638610	0.587760194	0.008478345	0.087469527	0.026958958
2019-08-21T15:50:00	0.2090	14.484	204.9	0.497009451	0.593787522	0.008615877	0.088888411	0.027396272
2019-08-21T15:55:00	0.2079	14.476	204.9	0.493469946	0.588905413	0.008504419	0.087738525	0.027041866
2019-08-21T16:00:00	0.2065	14.469	204.8	0.488548706	0.582134145	0.008350650	0.086152119	0.026552920
2019-08-21T16:05:00	0.2065	14.462	204.8	0.488600575	0.582205411	0.008352264	0.086168764	0.026558050
2019-08-21T16:10:00	0.2066	14.453	204.9	0.488996996	0.582750157	0.008364600	0.086296034	0.026597276
2019-08-21T16:15:00	0.2074	14.444	204.9	0.491459722	0.586137147	0.008441439	0.087088774	0.026841606
2019-08-21T16:20:00	0.2059	14.435	204.9	0.486343391	0.579106084	0.008282195	0.085445878	0.026335250
2019-08-21T16:25:00	0.2041	14.425	204.9	0.480183198	0.570668274	0.008092456	0.083488376	0.025731928
2019-08-21T16:30:00	0.2054	14.415	204.9	0.484722780	0.576883343	0.008232068	0.084928724	0.026175858
2019-08-21T16:35:00	0.2048	14.404	204.8	0.482704284	0.574117820	0.008169844	0.084286776	0.025978003
2019-08-21T16:40:00	0.2042	14.393	191.7	0.480684585	0.571353906	0.008107818	0.083646860	0.025780775
2019-08-21T16:45:00	0.2024	14.381	204.8	0.474168055	0.562458352	0.007909285	0.081598632	0.025149491
2019-08-21T16:50:00	0.2034	14.367	204.8	0.477678795	0.567246572	0.008015941	0.082698983	0.025488630
2019-08-21T16:55:00	0.2034	14.353	204.7	0.477730829	0.567317616	0.008017527	0.082715346	0.025493673
2019-08-21T17:00:00	0.2034	14.340	204.8	0.477782864	0.567388660	0.008019113	0.082731712	0.025498717
2019-08-21T17:05:00	0.2024	14.326	204.8	0.474376406	0.562742244	0.007915595	0.081663731	0.025169555
2019-08-21T17:10:00	0.2027	14.312	191.6	0.475466394	0.564227985	0.007948646	0.082004714	0.025274649
2019-08-21T17:15:00	0.2036	14.296	204.7	0.478630214	0.568545883	0.008044966	0.082998435	0.025580924
2019-08-21T17:20:00	0.2039	14.280	204.7	0.479373336	0.569561233	0.008067673	0.083232700	0.025653126
2019-08-21T17:25:00	0.2031	14.263	204.6	0.476660135	0.565856235	0.007984921	0.082378960	0.025389996
2019-08-21T17:30:00	0.2046	14.245	204.6	0.481895023	0.573009974	0.008144963	0.084030082	0.025898887
2019-08-21T17:35:00	0.2038	14.227	191.4	0.479183843	0.569302281	0.008061880	0.083172932	0.025634706
2019-08-21T17:40:00	0.2052	14.205	204.4	0.484069817	0.575988368	0.008211913	0.084720796	0.026111772
2019-08-21T17:45:00	0.2056	14.183	204.3	0.485501600	0.577951267	0.008256139	0.085177059	0.026252397
2019-08-21T17:50:00	0.2044	14.161	191.1	0.481412355	0.572349468	0.008130141	0.083877166	0.025851757
2019-08-21T17:55:00	0.2044	14.140	204.3	0.481119012	0.571948136	0.008121139	0.083784299	0.025823135
2019-08-21T18:00:00	0.2056	14.117	204.2	0.485312449	0.577691858	0.008250289	0.085116714	0.026233798
2019-08-21T18:05:00	0.2063	14.092	204.1	0.487777846	0.581075255	0.008326690	0.085904927	0.026476733
2019-08-21T18:10:00	0.2052	14.069	190.9	0.484036403	0.575942580	0.008210883	0.084710163	0.026108495
2019-08-21T18:15:00	0.2050	14.044	190.7	0.483398200	0.575068182	0.008191209	0.084507192	0.026045937
2019-08-21T18:20:00	0.2056	14.019	203.8	0.485520116	0.577976662	0.008256711	0.085182968	0.026254218
2019-08-21T18:25:00	0.2058	13.995	203.7	0.485916897	0.578520924	0.008268988	0.085309629	0.026293256
2019-08-21T18:30:00	0.2092	13.971	203.6	0.497673324	0.594704335	0.008636862	0.089104915	0.027463000
2019-08-21T18:35:00	0.2076	13.947	190.5	0.492222145	0.587186694	0.008465299	0.087334925	0.026917472
2019-08-21T18:40:00	0.2083	13.920	190.4	0.494682538	0.590576833	0.008542522	0.088131624	0.027163022
2019-08-21T18:45:00	0.2094	13.894	203.3	0.498515729	0.595868211	0.008663528	0.089380018	0.027547790
2019-08-21T18:50:00	0.2081	13.869	190.2	0.494098116	0.589771127	0.008524147	0.087942057	0.027104596
2019-08-21T18:55:00	0.2092	13.844	203.1	0.497931964	0.595061614	0.008645045	0.089189334	0.027489019
2019-08-21T19:00:00	0.2097	13.817	203.0	0.499357925	0.597032369	0.008690228	0.089655476	0.027632688
2019-08-21T19:05:00	0.2103	13.788	189.9	0.501469913	0.599954254	0.008757363	0.090348103	0.027846163
2019-08-21T19:10:00	0.2104	13.767	202.9	0.501864839	0.600501024	0.008769946	0.090477914	0.027886172
2019-08-21T19:15:00	0.2115	13.739	202.8	0.505689973	0.605803361	0.008892282	0.091740032	0.028275169
2019-08-21T19:20:00	0.2120	13.713	202.6	0.507455391	0.608254531	0.008949029	0.092325481	0.028455610
2019-08-21T19:25:00	0.2105	13.687	202.6	0.502363039	0.601190953	0.008785831	0.090641803	0.027936684
2019-08-21T19:30:00	0.2104	13.662	202.4	0.501728265	0.600311925	0.008765593	0.090433012	0.027872332
2019-08-21T19:35:00	0.2100	13.636	202.3	0.500406673	0.598482839	0.008723533	0.089999081	0.027738591
2019-08-21T19:40:00	0.2113	13.612	202.2	0.504919369	0.604734215	0.008867568	0.091485066	0.028196586
2019-08-21T19:45:00	0.2117	13.585	202.2	0.506342415	0.606708942	0.008913233	0.091956178	0.028341787
2019-08-21T19:50:00	0.2123	13.557	202.0	0.508450090	0.609636714	0.008981082	0.092656163	0.028557529
2019-08-21T19:55:00	0.2113	13.531	201.9	0.505074226	0.604949027	0.008872532	0.091536275	0.028212369
2019-08-21T20:00:00	0.2109	13.499	201.7	0.503753930	0.603118177	0.008830257	0.091100136	0.028077947
2019-08-21T20:05:00	0.2125	13.470	201.6	0.508947332	0.610327954	0.008997126	0.092821689	0.028608546
2019-08-21T20:10:00	0.2115	13.447	201.5	0.505571959	0.605639595	0.008888495	0.091700962	0.028263127
2019-08-21T20:15:00	0.2122	13.417	201.5	0.508022745	0.609042799	0.008967304	0.092514022	0.028513720
2019-08-21T20:20:00	0.2099	13.390	201.3	0.500185094	0.598176311	0.008716491	0.089926430	0.027716199
2019-08-21T20:25:00	0.2098	13.365	201.2	0.499893367	0.597772801	0.008707224	0.089830823	0.027686732
2019-08-21T20:30:00	0.2116	13.338	201.1	0.506121221	0.606401889	0.008906127	0.091882871	0.028319193
2019-08-21T20:35:00	0.2107	13.309	201.0	0.503086186	0.602192755	0.008808915	0.090879954	0.028010085
2019-08-21T20:40:00	0.2114	13.286	188.0	0.505195870	0.605117781	0.008876432	0.091576510	0.028224770
2019-08-21T20:45:00	0.2096	13.254	200.8	0.499069746	0.596633958	0.008681087	0.089561174	0.027603623
2019-08-21T20:50:00	0.2107	13.224	200.7	0.502898010	0.601932027	0.008802905	0.090817953	0.027990975
2019-08-21T20:55:00	0.2090	13.201	187.7	0.497111489	0.593928414	0.008619100	0.088921671	0.027406523
2019-08-21T21:00:00	0.2082	13.176	200.4	0.494412431	0.590204419	0.008534027	0.088043985	0.027136011
2019-08-21T21:05:00	0.2111	13.148	200.3	0.504425155	0.604048787	0.008851737	0.091321735	0.028146246
2019-08-21T21:10:00	0.2102	13.121	200.2	0.501045310	0.599366538	0.008743845	0.090208641	0.027803179
2019-08-21T21:15:00	0.2103	13.095	187.2	0.501440286	0.599913241	0.008756420	0.090338368	0.027843162
2019-08-21T21:20:00	0.2108	13.072	187.2	0.503207901	0.602361411	0.008812803	0.090920069	0.028022448
2019-08-21T21:25:00	0.2120	13.051	187.1	0.507374233	0.608141793	0.008946416	0.092298526	0.028447302
2019-08-21T21:30:00	0.2099	13.024	187.0	0.500221967	0.598227317	0.008717663	0.089938518	0.027719925
2019-08-21T21:35:00	0.2134	12.995	186.9	0.512271474	0.614954140	0.009104753	0.093932055	0.028950772
2019-08-21T21:40:00	0.2112	12.971	186.8	0.504786529	0.604549959	0.008863311	0.091441150	0.028183051
2019-08-21T21:45:00	0.2093	12.948	199.5	0.497972481	0.595117588	0.008646327	0.089202562	0.027493096
2019-08-21T21:50:00	0.2123	12.921	199.4	0.508317388	0.609452270	0.008976802	0.092612012	0.028543922
2019-08-21T21:55:00	0.2120	12.897	186.5	0.507341048	0.608095696	0.008945348	0.092287506	0.028443906
2019-08-21T22:00:00	0.2095	12.873	199.2	0.498814811	0.596281564	0.008673005	0.089477791	0.027577924
2019-08-21T22:05:00	0.2109	12.848	199.1	0.503669614	0.603001305	0.008827561	0.091072320	0.028069373
2019-08-21T22:10:00	0.2105	12.827	186.2	0.502345703	0.601166942	0.008785278	0.090636097	0.027934925
2019-08-21T22:15:00	0.2101	12.804	198.9	0.501021279	0.599333280	0.008743081	0.090200751	0.027800747
2019-08-21T22:20:00	0.2115	12.780	186.0	0.505530095	0.605581505	0.008887152	0.091687105	0.028258856
2019-08-21T22:25:00	0.2107	12.757	185.9	0.502834622	0.601844206	0.008800882	0.090797072	0.027984539
2019-08-21T22:30:00	0.2104	12.729	198.5	0.501853643	0.600485521	0.008769589	0.090474232	0.027885037
2019-08-21T22:35:00	0.2109	12.709	198.5	0.503617975	0.602929728	0.008825910	0.091055285	0.028064123
2019-08-21T22:40:00	0.2119	12.683	198.4	0.507095386	0.607754482	0.008937442	0.092205945	0.028418768
2019-08-21T22:45:00	0.2125	12.664	198.3	0.509199533	0.610678628	0.009005269	0.092905701	0.028634439
2019-08-21T22:50:00	0.2110	12.641	198.2	0.504106711	0.603607241	0.008841543	0.091216570	0.028113833
2019-08-21T22:55:00	0.2119	12.620	198.1	0.506898230	0.607480677	0.008931100	0.092140514	0.028398601
2019-08-21T23:00:00	0.2110	12.602	185.6	0.503860817	0.603266345	0.008833676	0.091135406	0.028088817
2019-08-21T23:05:00	0.2111	12.578	197.9	0.504252398	0.603809236	0.008846206	0.091264675	0.028128659
2019-08-21T23:10:00	0.2115	12.562	197.9	0.505672654	0.605779327	0.008891726	0.091734297	0.028273401
2019-08-21T23:15:00	0.2117	12.540	197.7	0.506406826	0.606798362	0.008915302	0.091977531	0.028348368
2019-08-21T23:20:00	0.2135	12.521	197.7	0.512619774	0.615439384	0.009116067	0.094048780	0.028986747
2019-08-21T23:25:00	0.2112	12.504	197.6	0.504789598	0.604554215	0.008863410	0.091442164	0.028183363
2019-08-21T23:30:00	0.2118	12.480	197.5	0.506552414	0.607000491	0.008919981	0.092025803	0.028363246
2019-08-21T23:35:00	0.2105	12.458	197.4	0.502142131	0.600885006	0.008778786	0.090569114	0.027914281
2019-08-21T23:40:00	0.2104	12.443	197.4	0.501847501	0.600477016	0.008769393	0.090472213	0.027884415
2019-08-21T23:45:00	0.2096	12.426	197.2	0.499149117	0.596743683	0.008683604	0.089587142	0.027611627
2019-08-21T23:50:00	0.2097	12.401	197.2	0.499541239	0.597285838	0.008696045	0.089715489	0.027651185
2019-08-21T23:55:00	0.2079	12.388	197.2	0.493401861	0.588811601	0.008502282	0.087716479	0.027035071
2019-08-22T00:00:00	0.2095	12.371	184.4	0.498951502	0.596470504	0.008677338	0.089522494	0.027591702
2019-08-22T00:05:00	0.2092	12.356	197.0	0.497625759	0.594638635	0.008635358	0.089089394	0.027458216
2019-08-22T00:10:00	0.2078	12.337	197.0	0.492859784	0.588064821	0.008485278	0.087541053	0.026981003
2019-08-22T00:15:00	0.2078	12.323	196.8	0.492908508	0.588131934	0.008486806	0.087556814	0.026985860
2019-08-22T00:20:00	0.2073	12.304	196.7	0.491236117	0.585829422	0.008434448	0.087016648	0.026819376
2019-08-22T00:25:00	0.2083	12.285	184.1	0.494726171	0.590636998	0.008543895	0.088145785	0.027167387
2019-08-22T00:30:00	0.2059	12.271	196.6	0.486509991	0.579334701	0.008287357	0.085499130	0.026351662
2019-08-22T00:35:00	0.2057	12.265	196.6	0.485869167	0.578455447	0.008267511	0.085294387	0.026288559
2019-08-22T00:40:00	0.2072	12.248	183.9	0.490742450	0.585150180	0.008419024	0.086857516	0.026770330
2019-08-22T00:45:00	0.2062	12.238	196.5	0.487345910	0.580482134	0.008313280	0.085766572	0.026434091
2019-08-22T00:50:00	0.2068	12.218	196.4	0.489462278	0.583389687	0.008379090	0.086445531	0.026643352
2019-08-22T00:55:00	0.2069	12.206	183.7	0.489855517	0.583930330	0.008391347	0.086571980	0.026682325
2019-08-22T01:00:00	0.2069	12.195	196.3	0.489904284	0.583997385	0.008392868	0.086587667	0.026687160
2019-08-22T01:05:00	0.2062	12.183	196.3	0.487541116	0.580750166	0.008319339	0.085829086	0.026453358
2019-08-22T01:10:00	0.2063	12.174	196.2	0.487934577	0.581290510	0.008331559	0.085955158	0.026492214
2019-08-22T01:15:00	0.2060	12.163	196.2	0.486604534	0.579464449	0.008290286	0.085529357	0.026360979
2019-08-22T01:20:00	0.2047	12.153	196.1	0.482168317	0.573384045	0.008153361	0.084116726	0.025925592
2019-08-22T01:25:00	0.2058	12.136	183.5	0.486012551	0.578652150	0.008271949	0.085340177	0.026302671
2019-08-22T01:30:00	0.2057	12.127	196.1	0.485716520	0.578246053	0.008262787	0.085245652	0.026273538
2019-08-22T01:35:00	0.2046	12.113	183.4	0.481969713	0.573112200	0.008147258	0.084053757	0.025906184
2019-08-22T01:40:00	0.2041	12.109	196.0	0.480291924	0.570816937	0.008095786	0.083522731	0.025742517
2019-08-22T01:45:00	0.2051	12.089	195.9	0.483793237	0.575609380	0.008203384	0.084632799	0.026084651
2019-08-22T01:50:00	0.2054	12.076	195.8	0.484532140	0.576622010	0.008226181	0.084867991	0.026157139
2019-08-22T01:55:00	0.2050	12.062	195.8	0.483200763	0.574797740	0.008185127	0.084444449	0.026026599
2019-08-22T02:00:00	0.2041	12.056	195.7	0.480142117	0.570612106	0.008091198	0.083475397	0.025727928
2019-08-22T02:05:00	0.2037	12.044	195.7	0.478809013	0.568790142	0.008050427	0.083054771	0.025598287
2019-08-22T02:10:00	0.2049	12.038	195.6	0.483002219	0.574525814	0.008179014	0.084381377	0.026007160
2019-08-22T02:15:00	0.2049	12.025	195.6	0.483051084	0.574592736	0.008180518	0.084396898	0.026011944
2019-08-22T02:20:00	0.2051	12.015	195.6	0.483790149	0.575605150	0.008203289	0.084631817	0.026084348
2019-08-22T02:25:00	0.2040	12.000	195.5	0.479695747	0.570001890	0.008077535	0.083334440	0.025684484
2019-08-22T02:30:00	0.2051	11.991	182.8	0.483542783	0.575266245	0.008195664	0.084553153	0.026060103
2019-08-22T02:35:00	0.2036	11.972	195.4	0.478411399	0.568246994	0.008038286	0.082929517	0.025559683
2019-08-22T02:40:00	0.2024	11.964	195.4	0.474310484	0.562652418	0.007913598	0.081643131	0.025163206
2019-08-22T02:45:00	0.2047	11.953	195.3	0.482308768	0.573576310	0.008157679	0.084161272	0.025939321
2019-08-22T02:50:00	0.2029	11.942	195.3	0.476138136	0.565144094	0.007969049	0.082215206	0.025339525
2019-08-22T02:55:00	0.2025	11.921	195.2	0.474803454	0.563324232	0.007928536	0.081797241	0.025210704
2019-08-22T03:00:00	0.2052	11.914	195.2	0.483835915	0.575667857	0.008204700	0.084646375	0.026088835
2019-08-22T03:05:00	0.2040	11.900	195.1	0.479741568	0.570064523	0.008078937	0.083348904	0.025688942
2019-08-22T03:10:00	0.2057	11.890	195.1	0.485658436	0.578166381	0.008260990	0.085227112	0.026267824
2019-08-22T03:15:00	0.2052	11.877	195.0	0.483982472	0.575868676	0.008209219	0.084693001	0.026103206
2019-08-22T03:20:00	0.2045	11.866	194.9	0.481615176	0.572626996	0.008136368	0.083941406	0.025871557
2019-08-22T03:25:00	0.2055	11.858	194.9	0.485115123	0.577421266	0.008244189	0.085053782	0.026214402
2019-08-22T03:30:00	0.2058	11.847	194.9	0.486198577	0.578907379	0.008277710	0.085399603	0.026320987
2019-08-22T03:35:00	0.2071	11.838	194.8	0.490382665	0.584655271	0.008407791	0.086741632	0.026734613
2019-08-22T03:40:00	0.2078	11.827	194.7	0.492841308	0.588039372	0.008484699	0.087535077	0.026979161
2019-08-22T03:45:00	0.2078	11.813	194.7	0.492890032	0.588106485	0.008486227	0.087550837	0.026984018
2019-08-22T03:50:00	0.2070	11.800	182.1	0.490184541	0.584382782	0.008401609	0.086677850	0.026714955
2019-08-22T03:55:00	0.2071	11.791	194.6	0.490577696	0.584923537	0.008413879	0.086804441	0.026753972
2019-08-22T04:00:00	0.2060	11.783	194.6	0.486836253	0.579782482	0.008297470	0.085603465	0.026383819
2019-08-22T04:05:00	0.2084	11.766	194.5	0.495191566	0.591278821	0.008558542	0.088296901	0.027213962
2019-08-22T04:10:00	0.2067	11.761	194.5	0.489086944	0.582873776	0.008367400	0.086324925	0.026606180
2019-08-22T04:15:00	0.2076	11.745	194.4	0.492277583	0.587263028	0.008467035	0.087352837	0.026922993
2019-08-22T04:20:00	0.2082	11.737	194.4	0.494433431	0.590233371	0.008534687	0.088050797	0.027138111
2019-08-22T04:25:00	0.2086	11.729	194.3	0.495556451	0.591782154	0.008570035	0.088415471	0.027250507
2019-08-22T04:30:00	0.2089	11.720	194.3	0.496679101	0.593331438	0.008605444	0.088780775	0.027363097
2019-08-22T04:35:00	0.2084	11.715	194.3	0.495051101	0.591085088	0.008554120	0.088251278	0.027199901
2019-08-22T04:40:00	0.2094	11.701	194.2	0.498579742	0.595956676	0.008665556	0.089400940	0.027554238
2019-08-22T04:45:00	0.2114	11.694	194.2	0.505192258	0.605112770	0.008876316	0.091575315	0.028224401
2019-08-22T04:50:00	0.2094	11.688	194.1	0.498418442	0.595733769	0.008660446	0.089348226	0.027537991
2019-08-22T04:55:00	0.2107	11.679	194.1	0.502973134	0.602036112	0.008805304	0.090842703	0.027998603
2019-08-22T05:00:00	0.2109	11.667	194.1	0.503750316	0.603113168	0.008830142	0.091098944	0.028077579
2019-08-22T05:05:00	0.2113	11.661	194.0	0.504870274	0.604666115	0.008865995	0.091468834	0.028191583
2019-08-22T05:10:00	0.2128	11.661	194.0	0.510101269	0.611932869	0.009034415	0.093206392	0.028727115
2019-08-22T05:15:00	0.2144	11.657	181.5	0.515666156	0.619687712	0.009215324	0.095072800	0.029302360
2019-08-22T05:20:00	0.2127	11.648	194.0	0.509940511	0.611709220	0.009029215	0.093152750	0.028710582
2019-08-22T05:25:00	0.2140	11.651	194.0	0.514137900	0.617555546	0.009165463	0.094558393	0.029143815
2019-08-22T05:30:00	0.2157	11.645	193.9	0.520037684	0.625797143	0.009358698	0.096551961	0.029758252
2019-08-22T05:35:00	0.2142	11.643	193.9	0.515003250	0.618762618	0.009193679	0.094849496	0.029233536
2019-08-22T05:40:00	0.2130	11.639	193.9	0.510646198	0.612691140	0.009052051	0.093388338	0.028783193
2019-08-22T05:45:00	0.2125	11.641	181.3	0.509024844	0.610435726	0.008999628	0.092847506	0.028616503
2019-08-22T05:50:00	0.2137	11.644	193.8	0.513223355	0.616280510	0.009135690	0.094251228	0.029049144
2019-08-22T05:55:00	0.2132	11.642	193.9	0.511603221	0.614023420	0.009083065	0.093708308	0.028881811
2019-08-22T06:00:00	0.2131	11.645	194.0	0.511009436	0.613196720	0.009063816	0.093509718	0.028820603
2019-08-22T06:05:00	0.2154	11.650	193.9	0.518964375	0.624295705	0.009323394	0.096187733	0.029645994
2019-08-22T06:10:00	0.2134	11.652	194.0	0.512217794	0.614879363	0.009103010	0.093914072	0.028945229
2019-08-22T06:15:00	0.2129	11.662	194.0	0.510597184	0.612622927	0.009050464	0.093371966	0.028778147
2019-08-22T06:20:00	0.2130	11.669	194.0	0.510687999	0.612749315	0.009053404	0.093402302	0.028787497
2019-08-22T06:25:00	0.2119	11.678	194.0	0.507010959	0.607637228	0.008934726	0.092177923	0.028410131
2019-08-22T06:30:00	0.2112	11.688	194.1	0.504702045	0.604432783	0.008860605	0.091413225	0.028174444
2019-08-22T06:35:00	0.2112	11.702	194.2	0.504793016	0.604558956	0.008863519	0.091443294	0.028183711
2019-08-22T06:40:00	0.2115	11.712	194.2	0.505569784	0.605636578	0.008888425	0.091700242	0.028262905
2019-08-22T06:45:00	0.2127	11.726	194.3	0.509772532	0.611475547	0.009023784	0.093096716	0.028693312
2019-08-22T06:50:00	0.2132	11.743	194.4	0.511575116	0.613984284	0.009082153	0.093698903	0.028878912
2019-08-22T06:55:00	0.2117	11.759	194.5	0.506185441	0.606491033	0.008908190	0.091904151	0.028325752
2019-08-22T07:00:00	0.2145	11.777	194.6	0.515861181	0.619959940	0.009221697	0.095138545	0.029322624
2019-08-22T07:05:00	0.2128	11.797	194.7	0.510135863	0.611980999	0.009035534	0.093217937	0.028730674
2019-08-22T07:10:00	0.2150	11.819	194.8	0.517751195	0.622599728	0.009283569	0.095776871	0.029519362
2019-08-22T07:15:00	0.2143	11.842	194.9	0.515107618	0.618908242	0.009197085	0.094884636	0.029244366
2019-08-22T07:20:00	0.2154	11.869	195.0	0.518957180	0.624285644	0.009323157	0.096185294	0.029645242
2019-08-22T07:25:00	0.2143	11.896	195.1	0.515289006	0.619161350	0.009203007	0.094945722	0.029263194
2019-08-22T07:30:00	0.2151	11.925	195.3	0.518113681	0.623106344	0.009295459	0.095899540	0.029557170
2019-08-22T07:35:00	0.2150	11.957	195.4	0.517521022	0.622278091	0.009276023	0.095699019	0.029495367
2019-08-22T07:40:00	0.2141	11.989	195.6	0.514535317	0.618109826	0.009178416	0.094692028	0.029185003
2019-08-22T07:45:00	0.2152	12.025	195.8	0.518385520	0.623486341	0.009304381	0.095991585	0.029585539
2019-08-22T07:50:00	0.2150	12.072	183.4	0.517792909	0.622658023	0.009284937	0.095790984	0.029523711
2019-08-22T07:55:00	0.2149	12.115	196.2	0.517200195	0.621829846	0.009265510	0.095590558	0.029461938
2019-08-22T08:00:00	0.2161	12.162	183.8	0.521388715	0.627688411	0.009403232	0.097011415	0.029899860
2019-08-22T08:05:00	0.2140	12.191	196.5	0.514304929	0.617788487	0.009170906	0.094614547	0.029161122
2019-08-22T08:10:00	0.2149	12.235	184.1	0.517472107	0.622209743	0.009274420	0.095682478	0.029490269
2019-08-22T08:15:00	0.2142	12.280	184.3	0.514828316	0.618518554	0.009187972	0.094790612	0.029215387
2019-08-22T08:20:00	0.2149	12.323	184.5	0.517311695	0.621985619	0.009269163	0.095628245	0.029473554
2019-08-22T08:25:00	0.2148	12.357	184.7	0.517060632	0.621634881	0.009260938	0.095543395	0.029447402
2019-08-22T08:30:00	0.2153	12.404	197.5	0.518517834	0.623671321	0.009308725	0.096036403	0.029599352
2019-08-22T08:35:00	0.2158	12.437	185.0	0.520315828	0.626186388	0.009367858	0.096646462	0.029787378
2019-08-22T08:40:00	0.2146	12.503	185.3	0.516307332	0.620582819	0.009236283	0.095289033	0.029369006
2019-08-22T08:45:00	0.2142	12.526	185.4	0.515030592	0.618800767	0.009194572	0.094858701	0.029236373
2019-08-22T08:50:00	0.2164	12.557	185.6	0.522293900	0.628956379	0.009433130	0.097319860	0.029994926
2019-08-22T08:55:00	0.2156	12.608	185.8	0.519653820	0.625260054	0.009346064	0.096421617	0.029718079
2019-08-22T09:00:00	0.2153	12.653	186.0	0.518719893	0.623953834	0.009315361	0.096104865	0.029620453
2019-08-22T09:05:00	0.2158	12.696	186.2	0.520517781	0.626469047	0.009374511	0.096715106	0.029808535
2019-08-22T09:10:00	0.2155	12.794	186.6	0.519242606	0.624684830	0.009332539	0.096282085	0.029675074
2019-08-22T09:15:00	0.2150	12.790	186.6	0.517625314	0.622423820	0.009279442	0.095734290	0.029506238
2019-08-22T09:20:00	0.2148	12.822	186.8	0.517032571	0.621595683	0.009260019	0.095533914	0.029444480
2019-08-22T09:25:00	0.2139	12.915	187.1	0.514046441	0.617428005	0.009162483	0.094527653	0.029134341
2019-08-22T09:30:00	0.2143	12.918	187.2	0.515163035	0.618985567	0.009198894	0.094903296	0.029250118
2019-08-22T09:35:00	0.2145	12.946	187.3	0.515937454	0.620066414	0.009224190	0.095164264	0.029330550
2019-08-22T09:40:00	0.2133	12.991	200.5	0.511923836	0.614469916	0.009093467	0.093815624	0.028914886
2019-08-22T09:45:00	0.2147	13.025	200.6	0.516460591	0.620796824	0.009241297	0.095340756	0.029384947
2019-08-22T09:50:00	0.2121	13.085	200.8	0.507653757	0.608530105	0.008955416	0.092391379	0.028475920
2019-08-22T09:55:00	0.2126	13.130	201.1	0.509457456	0.611037311	0.009013601	0.092991658	0.028660932
2019-08-22T10:00:00	0.2138	13.179	201.3	0.513655437	0.616882823	0.009149750	0.094396288	0.029093853
2019-08-22T10:05:00	0.2130	13.243	201.6	0.510766364	0.612858383	0.009055942	0.093428484	0.028795566
2019-08-22T10:10:00	0.2095	13.295	201.9	0.498954732	0.596474969	0.008677440	0.089523551	0.027592028
2019-08-22T10:15:00	0.2121	13.354	202.2	0.507723188	0.608626568	0.008957653	0.092414450	0.028483031
2019-08-22T10:20:00	0.2101	13.412	202.6	0.500711345	0.598904381	0.008733220	0.090099025	0.027769394
2019-08-22T10:25:00	0.2096	13.467	202.8	0.499185612	0.596794136	0.008684761	0.089599083	0.027615308
2019-08-22T10:30:00	0.2094	13.523	203.1	0.498346447	0.595634284	0.008658166	0.089324702	0.027530741
2019-08-22T10:35:00	0.2100	13.576	203.4	0.500598759	0.598748599	0.008729640	0.090062086	0.027758010
2019-08-22T10:40:00	0.2092	13.615	190.6	0.497698625	0.594739282	0.008637662	0.089113171	0.027465545
2019-08-22T10:45:00	0.2102	13.662	203.8	0.501324807	0.599753390	0.008752742	0.090300430	0.027831470
2019-08-22T10:50:00	0.2085	13.708	191.0	0.495331635	0.591472024	0.008562953	0.088342407	0.027227988
2019-08-22T10:55:00	0.2071	13.734	204.3	0.490705631	0.585099528	0.008417874	0.086845653	0.026766674
2019-08-22T11:00:00	0.2081	13.766	191.3	0.493995248	0.589629337	0.008520915	0.087908710	0.027094318
2019-08-22T11:05:00	0.2074	13.800	204.6	0.491433790	0.586101458	0.008440629	0.087080408	0.026839028
2019-08-22T11:10:00	0.2061	13.814	191.6	0.487147218	0.580209347	0.008307114	0.085702966	0.026414486
2019-08-22T11:15:00	0.2047	13.831	204.8	0.482164837	0.573379281	0.008153254	0.084115623	0.025925252
2019-08-22T11:20:00	0.2069	13.842	191.7	0.489943413	0.584051191	0.008394088	0.086600256	0.026691040
2019-08-22T11:25:00	0.2064	13.865	205.0	0.488068232	0.581474087	0.008335712	0.085998004	0.026505420
2019-08-22T11:30:00	0.2065	13.889	192.0	0.488604907	0.582211363	0.008352398	0.086170155	0.026558479
2019-08-22T11:35:00	0.2068	13.927	192.1	0.489486001	0.583422299	0.008379830	0.086453156	0.026645702
2019-08-22T11:40:00	0.2039	13.931	192.1	0.479673716	0.569971777	0.008076861	0.083327486	0.025682340
2019-08-22T11:45:00	0.2052	13.962	192.3	0.484009321	0.575905467	0.008210047	0.084701545	0.026105839
2019-08-22T11:50:00	0.2039	13.979	205.6	0.479367857	0.569553745	0.008067506	0.083230972	0.025652594
2019-08-22T11:55:00	0.2029	14.035	192.7	0.476103704	0.565097127	0.007968002	0.082204410	0.025336198
2019-08-22T12:00:00	0.2022	14.067	192.8	0.473528694	0.561587399	0.007889937	0.081399025	0.025087970
2019-08-22T12:05:00	0.2026	14.082	192.9	0.475105690	0.563736212	0.007937701	0.081891797	0.025239847
2019-08-22T12:10:00	0.2029	14.099	193.0	0.475990299	0.564942446	0.007964556	0.082168858	0.025325240
2019-08-22T12:15:00	0.2020	14.118	193.2	0.473069061	0.560961475	0.007876042	0.081255677	0.025043789
2019-08-22T12:20:00	0.2034	14.133	206.6	0.477758824	0.567355837	0.008018380	0.082724151	0.025496387
2019-08-22T12:25:00	0.2036	14.155	206.6	0.478642740	0.568562994	0.008045349	0.083002381	0.025582140
2019-08-22T12:30:00	0.2030	14.169	206.8	0.476415498	0.565522460	0.007977481	0.082302196	0.025366336
2019-08-22T12:35:00	0.2034	14.186	206.9	0.477645475	0.567201082	0.008014925	0.082688505	0.025485400
2019-08-22T12:40:00	0.2025	14.190	193.6	0.474725666	0.563218211	0.007926178	0.081772914	0.025203206
2019-08-22T12:45:00	0.2030	14.209	193.7	0.476302104	0.565367765	0.007974033	0.082266626	0.025355373
2019-08-22T12:50:00	0.2017	14.218	193.8	0.471996340	0.559501309	0.007843661	0.080921608	0.024940826
2019-08-22T12:55:00	0.2040	14.242	207.3	0.479798267	0.570142027	0.008080672	0.083366804	0.025694459
2019-08-22T13:00:00	0.2029	14.238	207.3	0.476188706	0.565213075	0.007970586	0.082231063	0.025344412
2019-08-22T13:05:00	0.2007	14.251	207.4	0.468418206	0.554637438	0.007736128	0.079812210	0.024598898
2019-08-22T13:10:00	0.1999	14.263	207.4	0.465837327	0.551135478	0.007659020	0.079016697	0.024353713
2019-08-22T13:15:00	0.1979	14.279	207.6	0.458738251	0.541530064	0.007448884	0.076848758	0.023685534
2019-08-22T13:20:00	0.1988	14.309	194.3	0.461711774	0.545548538	0.007536551	0.077753212	0.023964295
2019-08-22T13:25:00	0.1995	14.322	207.7	0.464335634	0.549100282	0.007614329	0.078555631	0.024211608
2019-08-22T13:30:00	0.1990	14.329	194.5	0.462446200	0.546542132	0.007558282	0.077977403	0.024033393
2019-08-22T13:35:00	0.1981	14.331	207.9	0.459513203	0.542576675	0.007471683	0.077083974	0.023758029
2019-08-22T13:40:00	0.1974	14.351	208.1	0.456925486	0.539083692	0.007395685	0.076299922	0.023516377
2019-08-22T13:45:00	0.1976	14.353	208.0	0.457814878	0.540283624	0.007421762	0.076568955	0.023599295
2019-08-22T13:50:00	0.1978	14.384	208.3	0.458356378	0.541014501	0.007437661	0.076732981	0.023649850
2019-08-22T13:55:00	0.1965	14.426	208.5	0.453679468	0.534709592	0.007300894	0.075321976	0.023214964
2019-08-22T14:00:00	0.1966	14.455	208.6	0.454221636	0.535439599	0.007316685	0.075484887	0.023265175
2019-08-22T14:05:00	0.1952	14.462	208.7	0.449190351	0.528674077	0.007170789	0.073979707	0.022801264
2019-08-22T14:10:00	0.1962	14.470	208.8	0.452868893	0.533618617	0.007277317	0.075078735	0.023139995
2019-08-22T14:15:00	0.1957	14.489	208.9	0.450973001	0.531068907	0.007222317	0.074511313	0.022965110
2019-08-22T14:20:00	0.1956	14.513	209.1	0.450818767	0.530861609	0.007217852	0.074465245	0.022950912
2019-08-22T14:25:00	0.1959	14.528	209.1	0.451709777	0.532059432	0.007243667	0.074731572	0.023032996
2019-08-22T14:30:00	0.1945	14.539	209.2	0.447023587	0.525766594	0.007108401	0.073336063	0.022602887
2019-08-22T14:35:00	0.1955	14.551	209.3	0.450356022	0.530239768	0.007204463	0.074327112	0.022908338
2019-08-22T14:40:00	0.1943	14.557	209.4	0.446016910	0.524417036	0.007079506	0.073037963	0.022511010
2019-08-22T14:45:00	0.1947	14.557	209.4	0.447606851	0.526548885	0.007125169	0.073509053	0.022656204
2019-08-22T14:50:00	0.1956	14.555	209.5	0.450590244	0.530554497	0.007211238	0.074397013	0.022929882
2019-08-22T14:55:00	0.1935	14.551	209.5	0.443458824	0.520991233	0.007006341	0.072283126	0.022278362
2019-08-22T15:00:00	0.1946	14.567	209.5	0.447143662	0.525927620	0.007111851	0.073371660	0.022613858
2019-08-22T15:05:00	0.1939	14.574	209.6	0.444895473	0.522914567	0.007047386	0.072706579	0.022408874
2019-08-22T15:10:00	0.1946	14.573	209.8	0.447183686	0.525981296	0.007113002	0.073383527	0.022617516
2019-08-22T15:15:00	0.1933	14.574	196.2	0.442840459	0.520163887	0.006988710	0.072101235	0.022222301
2019-08-22T15:20:00	0.1926	14.577	209.8	0.440427973	0.516687894	0.006916773	0.071359072	0.021993559
2019-08-22T15:25:00	0.1942	14.577	209.9	0.445673629	0.523957012	0.007069666	0.072936445	0.022479721
2019-08-22T15:30:00	0.1953	14.576	209.9	0.449704621	0.529364696	0.007185635	0.074132877	0.022848473
2019-08-22T15:35:00	0.1950	14.579	209.9	0.448504403	0.527753234	0.007151009	0.073775646	0.022738371
2019-08-22T15:40:00	0.1968	14.576	210.0	0.454969052	0.536446346	0.007338481	0.075709755	0.023334482
2019-08-22T15:45:00	0.1951	14.580	196.5	0.448893084	0.528274969	0.007162214	0.073891240	0.022773998
2019-08-22T15:50:00	0.1965	14.575	210.0	0.453964758	0.535093694	0.007309201	0.075407679	0.023241379
2019-08-22T15:55:00	0.1952	14.578	210.0	0.449281721	0.528796763	0.007173426	0.074006909	0.022809648
2019-08-22T16:00:00	0.1946	14.587	210.1	0.447383798	0.526249688	0.007118754	0.073442874	0.022635807
2019-08-22T16:05:00	0.1948	14.581	210.1	0.447985722	0.527057183	0.007136071	0.073621529	0.022690870
2019-08-22T16:10:00	0.1931	14.568	210.1	0.441955909	0.518980919	0.006963528	0.071841435	0.022142228
2019-08-22T16:15:00	0.1945	14.557	210.0	0.446747981	0.525397034	0.007100485	0.073254391	0.022577715
2019-08-22T16:20:00	0.1956	14.557	210.0	0.450836369	0.530885266	0.007218361	0.074470502	0.022952532
2019-08-22T16:25:00	0.1938	14.558	210.0	0.444462593	0.522334873	0.007035006	0.072578860	0.022369510
2019-08-22T16:30:00	0.1934	14.553	210.0	0.442970059	0.520337261	0.006992404	0.072139338	0.022234045
2019-08-22T16:35:00	0.1937	14.548	210.0	0.443921969	0.521611098	0.007019560	0.072419506	0.022320395
2019-08-22T16:40:00	0.1939	14.529	210.0	0.444873609	0.522885284	0.007046760	0.072700125	0.022406885
2019-08-22T16:45:00	0.1945	14.515	210.0	0.446871740	0.525562975	0.007104039	0.073291060	0.022589016
2019-08-22T16:50:00	0.1936	14.510	210.0	0.443634716	0.521226624	0.007011360	0.072334906	0.022294320
2019-08-22T16:55:00	0.1938	14.503	210.0	0.444586437	0.522500704	0.007038547	0.072615389	0.022380768
2019-08-22T17:00:00	0.1929	14.486	209.9	0.441347200	0.518167209	0.006946225	0.071662918	0.022087207
2019-08-22T17:05:00	0.1926	14.478	209.8	0.440399241	0.516638524	0.006915811	0.071349151	0.021990501
2019-08-22T17:10:00	0.1919	14.467	209.8	0.438422362	0.513247273	0.006849840	0.070668536	0.021780729
2019-08-22T17:15:00	0.1927	14.454	209.8	0.440793452	0.517316084	0.006929013	0.071485350	0.022032479
2019-08-22T17:20:00	0.1937	14.435	209.8	0.444107763	0.521859809	0.007024866	0.072474252	0.022337268
2019-08-22T17:25:00	0.1924	14.421	209.7	0.439829631	0.515660261	0.006896763	0.071152631	0.021929932
2019-08-22T17:30:00	0.1928	14.404	209.7	0.440841614	0.517398895	0.006930627	0.071502001	0.022037611
2019-08-22T17:35:00	0.1944	14.388	209.6	0.446612836	0.525215842	0.007096604	0.073214359	0.022565376
2019-08-22T17:40:00	0.1938	14.373	209.6	0.444423091	0.522281980	0.007033877	0.072567211	0.022365919
2019-08-22T17:45:00	0.1937	14.357	209.4	0.443978207	0.521686377	0.007021166	0.072436075	0.022325502
2019-08-22T17:50:00	0.1928	14.340	209.3	0.441087869	0.517820628	0.006938859	0.071586929	0.022063787
2019-08-22T17:55:00	0.1934	14.321	209.2	0.443088262	0.520495400	0.006995773	0.072174099	0.022244758
2019-08-22T18:00:00	0.1942	14.305	209.3	0.445785491	0.524106905	0.007072872	0.072969518	0.022489914
2019-08-22T18:05:00	0.1962	14.288	209.1	0.452662324	0.533340672	0.007271314	0.075016808	0.023120909
2019-08-22T18:10:00	0.1961	14.268	209.0	0.452566825	0.533212188	0.007268540	0.074988187	0.023112088
2019-08-22T18:15:00	0.1966	14.250	209.0	0.454212291	0.535427015	0.007316412	0.075482078	0.023264309
2019-08-22T18:20:00	0.1978	14.230	208.8	0.458291600	0.540927056	0.007435759	0.076713350	0.023643799
2019-08-22T18:25:00	0.1993	14.214	208.8	0.463754718	0.548313465	0.007597076	0.078377628	0.024156746
2019-08-22T18:30:00	0.1993	14.195	208.7	0.463659534	0.548184569	0.007594250	0.078348481	0.024147763
2019-08-22T18:35:00	0.1990	14.176	208.6	0.462522777	0.546645755	0.007560550	0.078000797	0.024040603
2019-08-22T18:40:00	0.2003	14.157	208.6	0.466938834	0.552629452	0.007691883	0.079355738	0.024458209
2019-08-22T18:45:00	0.2010	14.138	208.6	0.469616990	0.556265851	0.007772074	0.080183051	0.024713195
2019-08-22T18:50:00	0.2018	14.120	208.4	0.472293023	0.559905057	0.007852610	0.081013934	0.024969281
2019-08-22T18:55:00	0.2011	14.101	208.2	0.469773465	0.556478489	0.007776772	0.080231519	0.024728133
2019-08-22T19:00:00	0.2036	14.081	208.3	0.478330054	0.568135891	0.008035804	0.082903904	0.025551788
2019-08-22T19:05:00	0.2016	14.059	208.1	0.471661898	0.559046261	0.007833579	0.080817595	0.024908768
2019-08-22T19:10:00	0.2035	14.039	208.0	0.478140503	0.567877017	0.008030020	0.082844235	0.025533398
2019-08-22T19:15:00	0.2028	14.016	208.1	0.475625302	0.564444668	0.007953470	0.082054484	0.025289989
2019-08-22T19:20:00	0.2046	13.989	208.0	0.482096330	0.573285507	0.008151149	0.084093899	0.025918557
2019-08-22T19:25:00	0.2035	13.969	207.9	0.478201809	0.567960740	0.008031890	0.082863532	0.025539345
2019-08-22T19:30:00	0.2043	13.943	207.8	0.480871060	0.571608957	0.008113535	0.083705841	0.025798953
2019-08-22T19:35:00	0.2064	13.924	207.7	0.488021430	0.581409802	0.008334258	0.085982999	0.026500795
2019-08-22T19:40:00	0.2046	13.902	207.6	0.482062897	0.573239744	0.008150121	0.084083299	0.025915289
2019-08-22T19:45:00	0.2052	13.879	207.5	0.484039100	0.575946275	0.008210966	0.084711021	0.026108759
2019-08-22T19:50:00	0.2056	13.854	207.5	0.485324403	0.577708251	0.008250659	0.085120527	0.026234973
2019-08-22T19:55:00	0.2052	13.829	207.4	0.483849868	0.575686975	0.008205130	0.084650813	0.026090203
2019-08-22T20:00:00	0.2047	13.806	207.3	0.482374691	0.573666557	0.008159706	0.084182184	0.025945767
2019-08-22T20:05:00	0.2047	13.781	207.2	0.482280030	0.573536968	0.008156796	0.084152156	0.025936512
2019-08-22T20:10:00	0.2052	13.751	193.7	0.483911070	0.575770836	0.008207017	0.084670283	0.026096204
2019-08-22T20:15:00	0.2036	13.733	206.9	0.478636555	0.568554546	0.008045160	0.083000433	0.025581540
2019-08-22T20:20:00	0.2046	13.715	193.5	0.481996030	0.573148220	0.008148066	0.084062100	0.025908756
2019-08-22T20:25:00	0.2055	13.680	206.7	0.485007255	0.577273361	0.008240856	0.085019390	0.026203802
2019-08-22T20:30:00	0.2050	13.658	206.7	0.483187472	0.574779536	0.008184718	0.084440226	0.026025298
2019-08-22T20:35:00	0.2045	13.631	193.1	0.481712007	0.572759504	0.008139341	0.083972084	0.025881012
2019-08-22T20:40:00	0.2028	13.606	206.3	0.475742362	0.564604302	0.007957025	0.082091157	0.025301292
2019-08-22T20:45:00	0.2045	13.579	206.2	0.481522645	0.572500378	0.008133527	0.083912096	0.025862523
2019-08-22T20:50:00	0.2046	13.551	206.1	0.481773248	0.572843314	0.008141222	0.083991489	0.025886993
2019-08-22T20:55:00	0.2057	13.523	205.9	0.485819405	0.578387184	0.008265971	0.085278499	0.026283661
2019-08-22T21:00:00	0.2071	13.508	205.8	0.490549573	0.584884852	0.008413001	0.086795382	0.026751180
2019-08-22T21:05:00	0.2045	13.485	192.5	0.481489206	0.572454623	0.008132500	0.083901505	0.025859259
2019-08-22T21:10:00	0.2043	13.449	192.3	0.481049193	0.571852624	0.008118998	0.083762203	0.025816324
2019-08-22T21:15:00	0.2057	13.431	192.3	0.485786009	0.578341372	0.008264937	0.085267836	0.026280375
2019-08-22T21:20:00	0.2058	13.416	192.1	0.486036298	0.578684730	0.008272685	0.085347762	0.026305009
2019-08-22T21:25:00	0.2039	13.390	192.0	0.479383315	0.569574871	0.008067979	0.083235848	0.025654097
2019-08-22T21:30:00	0.2038	13.363	191.9	0.479288570	0.569445393	0.008065082	0.083205962	0.025644885
2019-08-22T21:35:00	0.2046	13.336	204.9	0.481956965	0.573094752	0.008146866	0.084049716	0.025904939
2019-08-22T21:40:00	0.2054	13.315	191.7	0.484623261	0.576746917	0.008228994	0.084897017	0.026166085
2019-08-22T21:45:00	0.2052	13.290	191.5	0.483838612	0.575671552	0.008204783	0.084647232	0.026089099
2019-08-22T21:50:00	0.2064	13.265	204.6	0.488226941	0.581692094	0.008340645	0.086048896	0.026521105
2019-08-22T21:55:00	0.2036	13.246	191.4	0.478469216	0.568325965	0.008040051	0.082947725	0.025565294
2019-08-22T22:00:00	0.2054	13.220	191.2	0.484589853	0.576701121	0.008227963	0.084886374	0.026162805
2019-08-22T22:05:00	0.2060	13.202	191.1	0.486759835	0.579677594	0.008295100	0.085579022	0.026376286
2019-08-22T22:10:00	0.2048	13.180	191.0	0.482720977	0.574140679	0.008170358	0.084292075	0.025979636
2019-08-22T22:15:00	0.2050	13.167	190.9	0.483166950	0.574751427	0.008184086	0.084433706	0.026023288
2019-08-22T22:20:00	0.2063	13.141	190.8	0.487751340	0.581038853	0.008325867	0.085896434	0.026474115
2019-08-22T22:25:00	0.2047	13.117	203.8	0.482333089	0.573609604	0.008158427	0.084168986	0.025941699
2019-08-22T22:30:00	0.2042	13.100	190.6	0.480707469	0.571385205	0.008108519	0.083654097	0.025783005
2019-08-22T22:35:00	0.2057	13.085	203.7	0.485640077	0.578141199	0.008260422	0.085221252	0.026266018
2019-08-22T22:40:00	0.2040	13.068	190.4	0.479873003	0.570244191	0.008082959	0.083390401	0.025701731
2019-08-22T22:45:00	0.2057	13.044	190.3	0.485841552	0.578417564	0.008266656	0.085285570	0.026285841
2019-08-22T22:50:00	0.2054	13.032	190.3	0.484562618	0.576663788	0.008227122	0.084877699	0.026160131
2019-08-22T22:55:00	0.2041	13.012	203.3	0.480175726	0.570658057	0.008092227	0.083486015	0.025731201
2019-08-22T23:00:00	0.2050	12.995	203.2	0.483384011	0.575048746	0.008190772	0.084502682	0.026044547
2019-08-22T23:05:00	0.2058	12.980	203.0	0.485899633	0.578497241	0.008268454	0.085304116	0.026291557
2019-08-22T23:10:00	0.2042	12.964	203.0	0.480478421	0.571071959	0.008101499	0.083581676	0.025760684
2019-08-22T23:15:00	0.2055	12.945	189.8	0.485066444	0.577354518	0.008242685	0.085038261	0.026209618
2019-08-22T23:20:00	0.2034	12.924	189.8	0.477916019	0.567570471	0.008023173	0.082773597	0.025511627
2019-08-22T23:25:00	0.2047	12.913	202.7	0.482162296	0.573375802	0.008153176	0.084114817	0.025925003
2019-08-22T23:30:00	0.2050	12.897	189.6	0.483298642	0.574931808	0.008188142	0.084475551	0.026036185
2019-08-22T23:35:00	0.2029	12.887	202.6	0.476144481	0.565152750	0.007969242	0.082217196	0.025340138
2019-08-22T23:40:00	0.2019	12.872	202.6	0.472439179	0.560103981	0.007857021	0.081059436	0.024983305
2019-08-22T23:45:00	0.2001	12.862	189.4	0.466302699	0.551766545	0.007672896	0.079159850	0.024397835
2019-08-22T23:50:00	0.2025	12.844	189.4	0.474718025	0.563207796	0.007925946	0.081770525	0.025202470
2019-08-22T23:55:00	0.2014	12.827	189.3	0.471011157	0.558161104	0.007813981	0.080615400	0.024846449
2019-08-23T00:00:00	0.2044	12.818	202.2	0.481141894	0.571979439	0.008121841	0.083791541	0.025825367
2019-08-23T00:05:00	0.2022	12.803	202.2	0.473637086	0.561735029	0.007893215	0.081432847	0.025098394
2019-08-23T00:10:00	0.2015	12.793	202.1	0.471314674	0.558573915	0.007823119	0.080709676	0.024875506
2019-08-23T00:15:00	0.2016	12.775	202.0	0.471415840	0.558711526	0.007826166	0.080741112	0.024885195
2019-08-23T00:20:00	0.2004	12.760	201.8	0.467358615	0.553199055	0.007704425	0.079485134	0.024498090
2019-08-23T00:25:00	0.2004	12.743	188.9	0.467459900	0.553336510	0.007707453	0.079516370	0.024507718
2019-08-23T00:30:00	0.2015	12.729	201.8	0.471373005	0.558653258	0.007824876	0.080727800	0.024881092
2019-08-23T00:35:00	0.2007	12.718	201.7	0.468355819	0.554552725	0.007734260	0.079792934	0.024592957
2019-08-23T00:40:00	0.2018	12.699	188.6	0.472267886	0.559870845	0.007851852	0.081006109	0.024966870
2019-08-23T00:45:00	0.2018	12.696	201.4	0.472369023	0.560008495	0.007854904	0.081037593	0.024976573
2019-08-23T00:50:00	0.2014	12.682	201.2	0.470738608	0.557790475	0.007805780	0.080530789	0.024820371
2019-08-23T00:55:00	0.1991	12.670	201.4	0.462863435	0.547106793	0.007570641	0.078104910	0.024072692
2019-08-23T01:00:00	0.1997	12.662	201.3	0.465047401	0.550064694	0.007635496	0.078774000	0.024278912
2019-08-23T01:05:00	0.1993	12.652	201.4	0.463413442	0.547851351	0.007586948	0.078273148	0.024124544
2019-08-23T01:10:00	0.1988	12.636	201.2	0.461778690	0.545639049	0.007538530	0.077773626	0.023970587
2019-08-23T01:15:00	0.1994	12.619	201.2	0.463963360	0.548596027	0.007603270	0.078441537	0.024176443
2019-08-23T01:20:00	0.2000	12.611	201.2	0.466146613	0.551554866	0.007668240	0.079111822	0.024383032
2019-08-23T01:25:00	0.1995	12.594	201.1	0.464166130	0.548870671	0.007609293	0.078503672	0.024195594
2019-08-23T01:30:00	0.1992	12.590	201.0	0.463226158	0.547597793	0.007581394	0.078215841	0.024106882
2019-08-23T01:35:00	0.1992	12.580	201.0	0.463327567	0.547735084	0.007584401	0.078246868	0.024116445
2019-08-23T01:40:00	0.1998	12.559	200.9	0.465164279	0.550223097	0.007638974	0.078809886	0.024289972
2019-08-23T01:45:00	0.2019	12.550	200.8	0.472543958	0.560246602	0.007860183	0.081092064	0.024993362
2019-08-23T01:50:00	0.2018	12.544	200.7	0.472298866	0.559913010	0.007852787	0.081015753	0.024969842
2019-08-23T01:55:00	0.2007	12.529	200.7	0.468589341	0.554869836	0.007741255	0.079865099	0.024615199
2019-08-23T02:00:00	0.2011	12.518	200.5	0.469730256	0.556419769	0.007775474	0.080218134	0.024724008
2019-08-23T02:05:00	0.2006	12.502	187.5	0.468098565	0.554203436	0.007726558	0.079713473	0.024568467
2019-08-23T02:10:00	0.2020	12.482	201.3	0.473049575	0.560934943	0.007875454	0.081249602	0.025041917
2019-08-23T02:15:00	0.2000	12.474	200.6	0.465873671	0.551184756	0.007660103	0.079027872	0.024357158
2019-08-23T02:20:00	0.2006	12.451	201.2	0.468055688	0.554145223	0.007725275	0.079700233	0.024564386
2019-08-23T02:25:00	0.2005	12.442	200.7	0.467810270	0.553812063	0.007717931	0.079624471	0.024541035
2019-08-23T02:30:00	0.2004	12.430	187.7	0.467564834	0.553478925	0.007710590	0.079548738	0.024517694
2019-08-23T02:35:00	0.2009	12.419	200.5	0.469052685	0.555499165	0.007755143	0.080008379	0.024659360
2019-08-23T02:40:00	0.1985	12.411	200.3	0.460826167	0.544350981	0.007510389	0.077483294	0.023881104
2019-08-23T02:45:00	0.1992	12.402	200.2	0.463358630	0.547777140	0.007585322	0.078256374	0.024119374
2019-08-23T02:50:00	0.1991	12.392	187.6	0.462765669	0.546974470	0.007567744	0.078075023	0.024063480
2019-08-23T02:55:00	0.1995	12.377	200.4	0.464255640	0.548991918	0.007611952	0.078531108	0.024204050
2019-08-23T03:00:00	0.2011	12.359	200.0	0.469905327	0.556657695	0.007780732	0.080272374	0.024740725
2019-08-23T03:05:00	0.2013	12.347	200.0	0.470352992	0.557266192	0.007794183	0.080411152	0.024783498
2019-08-23T03:10:00	0.2022	12.324	200.0	0.473570601	0.561644475	0.007891204	0.081412100	0.025092000
2019-08-23T03:15:00	0.2023	12.312	199.8	0.474017780	0.562253615	0.007904735	0.081551695	0.025135024
2019-08-23T03:20:00	0.2009	12.290	199.7	0.469270655	0.555795277	0.007761680	0.080075826	0.024680147
2019-08-23T03:25:00	0.1998	12.277	199.7	0.465210848	0.550286214	0.007640360	0.078824187	0.024294380
2019-08-23T03:30:00	0.2005	12.271	199.6	0.467740018	0.553716703	0.007715829	0.079602790	0.024534353
2019-08-23T03:35:00	0.2016	12.259	199.6	0.471652798	0.559033881	0.007833305	0.080814766	0.024907896
2019-08-23T03:40:00	0.2013	12.243	199.6	0.470368491	0.557287262	0.007794649	0.080415959	0.024784979
2019-08-23T03:45:00	0.2018	12.227	199.7	0.472201374	0.559780327	0.007849845	0.080985408	0.024960489
2019-08-23T03:50:00	0.2014	12.227	199.2	0.470917276	0.558033432	0.007811155	0.080586250	0.024837465
2019-08-23T03:55:00	0.2016	12.204	199.4	0.471711123	0.559113232	0.007835063	0.080832900	0.024913485
2019-08-23T04:00:00	0.2025	12.187	199.2	0.474581452	0.563021666	0.007921807	0.081727822	0.025189309
2019-08-23T04:05:00	0.2021	12.176	199.3	0.473292064	0.561265137	0.007882782	0.081325210	0.025065220
2019-08-23T04:10:00	0.2028	12.162	199.0	0.475809000	0.564695180	0.007959049	0.082112037	0.025307727
2019-08-23T04:15:00	0.2028	12.155	199.3	0.475557955	0.564352833	0.007951425	0.082033389	0.025283487
2019-08-23T04:20:00	0.2024	12.142	199.1	0.474268939	0.562595810	0.007912340	0.081630150	0.025159205
2019-08-23T04:25:00	0.2033	12.130	199.0	0.477476638	0.566970589	0.008009780	0.082635424	0.025469040
2019-08-23T04:30:00	0.2040	12.123	199.0	0.479990464	0.570404769	0.008086555	0.083427494	0.025713164
2019-08-23T04:35:00	0.2047	12.100	198.9	0.482157212	0.573368844	0.008153020	0.084113205	0.025924507
2019-08-23T04:40:00	0.2049	12.087	186.2	0.482942251	0.574443688	0.008177168	0.084362332	0.026001290
2019-08-23T04:45:00	0.2044	12.090	198.9	0.481310744	0.572210443	0.008127022	0.083844992	0.025841841
2019-08-23T04:50:00	0.2048	12.071	198.6	0.482786384	0.574230241	0.008172370	0.084312839	0.025986036
2019-08-23T04:55:00	0.2043	12.062	167.8	0.480809450	0.571524688	0.008111646	0.083686352	0.025792946
2019-08-23T05:00:00	0.2047	12.067	185.9	0.482285308	0.573544194	0.008156958	0.084153830	0.025937028
2019-08-23T05:05:00	0.2039	12.059	198.9	0.479617172	0.569894490	0.008075131	0.083309639	0.025676840
2019-08-23T05:10:00	0.2045	12.056	198.5	0.481438872	0.572385750	0.008130955	0.083885564	0.025854345
2019-08-23T05:15:00	0.2029	12.055	198.4	0.476004323	0.564961574	0.007964982	0.082173254	0.025326595
2019-08-23T05:20:00	0.2039	12.041	198.5	0.479555892	0.569810732	0.008073257	0.083290300	0.025670879
2019-08-23T05:25:00	0.2045	12.035	198.5	0.481722918	0.572774436	0.008139676	0.083975541	0.025882077
2019-08-23T05:30:00	0.2057	12.036	182.2	0.485613398	0.578104605	0.008259597	0.085212737	0.026263393
2019-08-23T05:35:00	0.2056	12.045	198.5	0.485363078	0.577761289	0.008251855	0.085132864	0.026238775
2019-08-23T05:40:00	0.2056	12.031	198.2	0.485457653	0.577890994	0.008254779	0.085163037	0.026248075
2019-08-23T05:45:00	0.2030	12.037	185.4	0.476573304	0.565737760	0.007982280	0.082351710	0.025381597
2019-08-23T05:50:00	0.2042	12.043	198.2	0.480469697	0.571060029	0.008101232	0.083578918	0.025759834
2019-08-23T05:55:00	0.2051	12.047	160.4	0.483671530	0.575442629	0.008199632	0.084594091	0.026072720
2019-08-23T06:00:00	0.2050	12.050	198.8	0.483421067	0.575099505	0.008191913	0.084514460	0.026048177
2019-08-23T06:05:00	0.2056	12.051	198.7	0.485240724	0.577593498	0.008248072	0.085093836	0.026226747
2019-08-23T06:10:00	0.2054	12.063	198.5	0.484645416	0.576777287	0.008229678	0.084904075	0.026168260
2019-08-23T06:15:00	0.2070	12.074	198.8	0.490255030	0.584479726	0.008403808	0.086700540	0.026721948
2019-08-23T06:20:00	0.2052	12.084	198.7	0.484144615	0.576090872	0.008214221	0.084744602	0.026119109
2019-08-23T06:25:00	0.2070	12.099	185.8	0.490099499	0.584265829	0.008398956	0.086650480	0.026706519
2019-08-23T06:30:00	0.2066	12.115	198.6	0.488816002	0.582501426	0.008358966	0.086237915	0.026579363
2019-08-23T06:35:00	0.2069	12.136	198.8	0.489943960	0.584051942	0.008394105	0.086600432	0.026691094
2019-08-23T06:40:00	0.2064	12.153	198.8	0.487971193	0.581340800	0.008332697	0.085966895	0.026495832
2019-08-23T06:45:00	0.2082	12.172	186.4	0.494263401	0.589998967	0.008529342	0.087995649	0.027121114
2019-08-23T06:50:00	0.2069	12.189	199.0	0.489882866	0.583967934	0.008392200	0.086580777	0.026685036
2019-08-23T06:55:00	0.2066	12.211	186.3	0.488943846	0.582677113	0.008362945	0.086278965	0.026592015
2019-08-23T07:00:00	0.2073	12.231	199.1	0.491104888	0.585648843	0.008430347	0.086974333	0.026806334
2019-08-23T07:05:00	0.2076	12.253	199.4	0.492232087	0.587200382	0.008465610	0.087338137	0.026918462
2019-08-23T07:10:00	0.2070	12.280	199.4	0.490260648	0.584487451	0.008403983	0.086702348	0.026722506
2019-08-23T07:15:00	0.2065	12.307	199.5	0.488632655	0.582249490	0.008353262	0.086179060	0.026561223
2019-08-23T07:20:00	0.2080	12.334	199.6	0.493547616	0.589012437	0.008506857	0.087763678	0.027049618
2019-08-23T07:25:00	0.2078	12.365	200.0	0.492953761	0.588194270	0.008488225	0.087571453	0.026990372
2019-08-23T07:30:00	0.2093	12.399	199.9	0.498206112	0.595440375	0.008653722	0.089278858	0.027516611
2019-08-23T07:35:00	0.2085	12.432	200.1	0.495206562	0.591299505	0.008559014	0.088301773	0.027215464
2019-08-23T07:40:00	0.2067	12.473	187.4	0.489105050	0.582898661	0.008367964	0.086330741	0.026607973
2019-08-23T07:45:00	0.2074	12.518	200.5	0.491610279	0.586344365	0.008446148	0.087137355	0.026856579
2019-08-23T07:50:00	0.2086	12.568	200.6	0.495833322	0.592164148	0.008578761	0.088505494	0.027278253
2019-08-23T07:55:00	0.2092	12.618	188.1	0.497646350	0.594667076	0.008636009	0.089096113	0.027460287
2019-08-23T08:00:00	0.2080	12.674	201.2	0.493614256	0.589104266	0.008508949	0.087785262	0.027056270
2019-08-23T08:05:00	0.2071	12.698	201.2	0.490610655	0.584968876	0.008414908	0.086815057	0.026757244
2019-08-23T08:10:00	0.2079	12.751	201.5	0.493458878	0.588890162	0.008504072	0.087734941	0.027040761
2019-08-23T08:15:00	0.2083	12.795	188.8	0.494585297	0.590442754	0.008539463	0.088100068	0.027153297
2019-08-23T08:20:00	0.2084	12.838	188.9	0.495023560	0.591047106	0.008553253	0.088242334	0.027197144
2019-08-23T08:25:00	0.2096	12.879	202.0	0.499242376	0.596872613	0.008686562	0.089617658	0.027621033
2019-08-23T08:30:00	0.2077	12.926	202.3	0.492459798	0.587513939	0.008472742	0.087411722	0.026941142
2019-08-23T08:35:00	0.2075	12.959	202.5	0.491865753	0.586696029	0.008454142	0.087219820	0.026881995
2019-08-23T08:40:00	0.2073	13.043	202.9	0.491271605	0.585878258	0.008435558	0.087028093	0.026822904
2019-08-23T08:45:00	0.2095	13.090	203.2	0.498932125	0.596443720	0.008676723	0.089516157	0.027589749
2019-08-23T08:50:00	0.2078	13.090	203.2	0.492837293	0.588033842	0.008484573	0.087533779	0.026978761
2019-08-23T08:55:00	0.2095	13.140	203.4	0.498776989	0.596229288	0.008671806	0.089465424	0.027574113
2019-08-23T09:00:00	0.2089	13.250	203.9	0.496809337	0.593511233	0.008609556	0.088823201	0.027376173
2019-08-23T09:05:00	0.2097	13.293	204.1	0.499652382	0.597439528	0.008699572	0.089751884	0.027662402
2019-08-23T09:10:00	0.2089	13.495	204.9	0.496654105	0.593296931	0.008604654	0.088772633	0.027360588
2019-08-23T09:15:00	0.2086	13.488	204.8	0.495716953	0.592003588	0.008575093	0.088467651	0.027266589
2019-08-23T09:20:00	0.2089	13.414	191.5	0.496842626	0.593557190	0.008610607	0.088834047	0.027379516
2019-08-23T09:25:00	0.2089	13.503	205.0	0.496593131	0.593212762	0.008602729	0.088752774	0.027354467
2019-08-23T09:30:00	0.2076	13.446	205.0	0.492215596	0.587177676	0.008465093	0.087332809	0.026916820
2019-08-23T09:35:00	0.2078	13.486	205.0	0.492998313	0.588255639	0.008489622	0.087585867	0.026994815
2019-08-23T09:40:00	0.2069	13.501	191.9	0.489994168	0.584120983	0.008395671	0.086616586	0.026696073
2019-08-23T09:45:00	0.2067	13.522	205.3	0.489055180	0.582830120	0.008366411	0.086314722	0.026603036
2019-08-23T09:50:00	0.2070	13.561	205.4	0.490183058	0.584380743	0.008401563	0.086677373	0.026714808
2019-08-23T09:55:00	0.2062	13.593	205.8	0.487521127	0.580722719	0.008318718	0.085822683	0.026451385
2019-08-23T10:00:00	0.2064	13.625	206.0	0.488304926	0.581799225	0.008343069	0.086073908	0.026528814
2019-08-23T10:05:00	0.2068	13.696	206.3	0.489381198	0.583278230	0.008376564	0.086419470	0.026635320
2019-08-23T10:10:00	0.2065	13.765	207.0	0.488390169	0.581916332	0.008345720	0.086101252	0.026537242
2019-08-23T10:15:00	0.2061	13.797	207.1	0.487054135	0.580081563	0.008304227	0.085673175	0.026405305
2019-08-23T10:20:00	0.2059	13.835	206.9	0.486407244	0.579193703	0.008284173	0.085466286	0.026341539
2019-08-23T10:25:00	0.2036	13.880	207.3	0.478510318	0.568382107	0.008041306	0.082960669	0.025569284
2019-08-23T10:30:00	0.2054	13.947	207.6	0.484768143	0.576945532	0.008233469	0.084943178	0.026180313
2019-08-23T10:35:00	0.2034	13.993	207.8	0.477904547	0.567554808	0.008022823	0.082769988	0.025510514
2019-08-23T10:40:00	0.2039	14.057	208.3	0.479675164	0.569973756	0.008076905	0.083327943	0.025682481
2019-08-23T10:45:00	0.2042	14.114	208.6	0.480408784	0.570976732	0.008099366	0.083559664	0.025753900
2019-08-23T10:50:00	0.2043	14.153	208.8	0.480796893	0.571507513	0.008111261	0.083682380	0.025791722
2019-08-23T10:55:00	0.2045	14.207	209.1	0.481530271	0.572510813	0.008133761	0.083914511	0.025863267
2019-08-23T11:00:00	0.2030	14.244	209.7	0.476389647	0.565487192	0.007976694	0.082294086	0.025363837
2019-08-23T11:05:00	0.2034	14.288	209.5	0.477815399	0.567433083	0.008020105	0.082741945	0.025501871
2019-08-23T11:10:00	0.2040	14.332	209.8	0.479931538	0.570324212	0.008084751	0.083408885	0.025707428
2019-08-23T11:15:00	0.2023	14.339	209.8	0.474096446	0.562360788	0.007907117	0.081576264	0.025142597
2019-08-23T11:20:00	0.2014	14.374	210.0	0.471023358	0.558177697	0.007814348	0.080619188	0.024847617
2019-08-23T11:25:00	0.2013	14.384	210.1	0.470373396	0.557293930	0.007794797	0.080417480	0.024785448
2019-08-23T11:30:00	0.2002	14.405	210.7	0.466603340	0.552174320	0.007681866	0.079252398	0.024426359
2019-08-23T11:35:00	0.1996	14.449	210.4	0.464564678	0.549410583	0.007621137	0.078625869	0.024233256
2019-08-23T11:40:00	0.1999	14.457	210.4	0.465648527	0.550879505	0.007653394	0.078958656	0.024335825
2019-08-23T11:45:00	0.1984	14.504	210.6	0.460483650	0.543887980	0.007500282	0.077379024	0.023848967
2019-08-23T11:50:00	0.1981	14.529	210.8	0.459484112	0.542537378	0.007470826	0.077075138	0.023755306
2019-08-23T11:55:00	0.1974	14.583	211.1	0.457093346	0.539310114	0.007400604	0.076350662	0.023532016
2019-08-23T12:00:00	0.1981	14.607	211.7	0.459570085	0.542653516	0.007473358	0.077101253	0.023763355
2019-08-23T12:05:00	0.1968	14.610	211.4	0.454743926	0.536143062	0.007331912	0.075641989	0.023313596
2019-08-23T12:10:00	0.1950	14.624	211.4	0.448516330	0.527769242	0.007151353	0.073779192	0.022739464
2019-08-23T12:15:00	0.1969	14.654	211.9	0.455178042	0.536727928	0.007344581	0.075772690	0.023353879
2019-08-23T12:20:00	0.1959	14.663	212.0	0.451739291	0.532099119	0.007244522	0.074740402	0.023035718
2019-08-23T12:25:00	0.1970	14.676	211.7	0.455612101	0.537312867	0.007357259	0.075903486	0.023394191
2019-08-23T12:30:00	0.1957	14.687	211.7	0.451128688	0.531278178	0.007226826	0.074557829	0.022979447
2019-08-23T12:35:00	0.1971	14.709	212.0	0.456046105	0.537897879	0.007369946	0.076034374	0.023434533
2019-08-23T12:40:00	0.1966	14.723	211.6	0.454349141	0.535611313	0.007320401	0.075523225	0.023276991
2019-08-23T12:45:00	0.1969	14.723	211.8	0.455088290	0.536606997	0.007341961	0.075745659	0.023345548
2019-08-23T12:50:00	0.1963	14.745	211.5	0.453042635	0.533852418	0.007282367	0.075130840	0.023156054
2019-08-23T12:55:00	0.1949	14.761	211.2	0.448207075	0.527354206	0.007142444	0.073687281	0.022711136
2019-08-23T13:00:00	0.1939	14.782	211.1	0.444761163	0.522734689	0.007043543	0.072666940	0.022396657
2019-08-23T13:05:00	0.1945	14.806	197.1	0.446898174	0.525598421	0.007104798	0.073298893	0.022591431
2019-08-23T13:10:00	0.1938	14.805	209.6	0.444498418	0.522382843	0.007036030	0.072589426	0.022372766
2019-08-23T13:15:00	0.1912	14.819	209.6	0.436706772	0.510313107	0.006792901	0.070081112	0.021599679
2019-08-23T13:20:00	0.1920	14.837	195.8	0.438916615	0.514094118	0.006866298	0.070838327	0.021833060
2019-08-23T13:25:00	0.1930	14.856	209.2	0.441484576	0.518350825	0.006950128	0.071703188	0.022099619
2019-08-23T13:30:00	0.1919	14.846	208.5	0.438440102	0.513277657	0.006850430	0.070674626	0.021782606
2019-08-23T13:35:00	0.1926	14.865	208.3	0.440376076	0.516598723	0.006915036	0.071341152	0.021988036
2019-08-23T13:40:00	0.1934	14.861	207.1	0.443011597	0.520392832	0.006993587	0.072151553	0.022237809
2019-08-23T13:45:00	0.1937	14.870	192.8	0.444102424	0.521852662	0.007024714	0.072472678	0.022336783
2019-08-23T13:50:00	0.1922	14.869	205.2	0.439390130	0.514906072	0.006882087	0.071001227	0.021883268
2019-08-23T13:55:00	0.1923	14.867	191.7	0.439695485	0.515430007	0.006892282	0.071106398	0.021915683
2019-08-23T14:00:00	0.1915	14.888	189.1	0.437553971	0.511761039	0.006820983	0.070370821	0.021688970
2019-08-23T14:05:00	0.1935	14.907	184.6	0.443227583	0.520681808	0.006999745	0.072215081	0.022257389
2019-08-23T14:10:00	0.1914	14.922	171.3	0.437077070	0.510945730	0.006805167	0.070207650	0.021638679
2019-08-23T14:15:00	0.1927	15.012	171.1	0.440644803	0.517060539	0.006924033	0.071433974	0.022016644
2019-08-23T14:20:00	0.1916	15.024	185.2	0.437688566	0.511991258	0.006825451	0.070416915	0.021703177
2019-08-23T14:25:00	0.1920	14.986	179.4	0.438810017	0.513911416	0.006862746	0.070801686	0.021821767
2019-08-23T14:30:00	0.1904	14.984	179.6	0.434488258	0.506530981	0.006719702	0.069325927	0.021366924
2019-08-23T14:35:00	0.1905	14.971	177.2	0.434794509	0.507052261	0.006729778	0.069429878	0.021398963
2019-08-23T14:40:00	0.1911	14.995	142.1	0.436462482	0.509895968	0.006784817	0.069997711	0.021573974
2019-08-23T14:45:00	0.1904	14.992	142.0	0.434316818	0.506239282	0.006714066	0.069267777	0.021349002
2019-08-23T14:50:00	0.1888	14.992	141.4	0.429983346	0.498893218	0.006572552	0.067807802	0.020899023
2019-08-23T14:55:00	0.1888	14.984	139.7	0.430017150	0.498950320	0.006573648	0.067819118	0.020902511
2019-08-23T15:00:00	0.1896	14.987	141.3	0.432235897	0.502705196	0.006645881	0.068564331	0.021132193
2019-08-23T15:05:00	0.1893	14.987	134.4	0.431450656	0.501374734	0.006620262	0.068300022	0.021050730
2019-08-23T15:10:00	0.1907	15.008	132.5	0.435302890	0.507918170	0.006746524	0.069602648	0.021452212
2019-08-23T15:15:00	0.1901	15.009	130.5	0.433701211	0.505192521	0.006693850	0.069059217	0.021284721
2019-08-23T15:20:00	0.1898	15.004	127.5	0.432916664	0.503860033	0.006668141	0.068793978	0.021202972
2019-08-23T15:25:00	0.1895	15.005	125.4	0.431858768	0.502065999	0.006633569	0.068437313	0.021093045
2019-08-23T15:30:00	0.1911	15.001	121.1	0.436254701	0.509541302	0.006777946	0.069926821	0.021552125
2019-08-23T15:35:00	0.1903	14.995	119.5	0.434108769	0.505885403	0.006707229	0.069197250	0.021327264
2019-08-23T15:40:00	0.1902	14.987	117.5	0.433869842	0.505479152	0.006699384	0.069116309	0.021302318
2019-08-23T15:45:00	0.1913	14.977	101.5	0.436900162	0.510643450	0.006799305	0.070147180	0.021620042
2019-08-23T15:50:00	0.1912	14.971	98.7	0.436661635	0.510236021	0.006791407	0.070065698	0.021594929
2019-08-23T15:55:00	0.1901	14.961	96.2	0.433698338	0.505187640	0.006693756	0.069058244	0.021284422
2019-08-23T16:00:00	0.1911	14.952	97.4	0.436456747	0.509886177	0.006784628	0.069995753	0.021573371
2019-08-23T16:05:00	0.1897	14.954	109.2	0.432445325	0.503060326	0.006652724	0.068634928	0.021153951
2019-08-23T16:10:00	0.1887	14.951	119.3	0.429791439	0.498569108	0.006566327	0.067743586	0.020879231
2019-08-23T16:15:00	0.1893	14.937	113.0	0.431507996	0.501471829	0.006622131	0.068319302	0.021056672
2019-08-23T16:20:00	0.1895	14.925	105.0	0.431858335	0.502065265	0.006633555	0.068437167	0.021093000
2019-08-23T16:25:00	0.1905	14.922	106.3	0.434663261	0.506828828	0.006725459	0.069385317	0.021385229
2019-08-23T16:30:00	0.1893	14.906	101.7	0.431466893	0.501402228	0.006620791	0.068305481	0.021052413
2019-08-23T16:35:00	0.1896	14.889	103.9	0.432363164	0.502920991	0.006650039	0.068607227	0.021145414
2019-08-23T16:40:00	0.1882	14.875	99.1	0.428341800	0.496124131	0.006519425	0.067259707	0.020730095
2019-08-23T16:45:00	0.1893	14.866	96.0	0.431425789	0.501332629	0.006619452	0.068291662	0.021048154
2019-08-23T16:50:00	0.1878	14.846	92.4	0.427402134	0.494542398	0.006489132	0.066947182	0.020633772
2019-08-23T16:55:00	0.1868	14.818	91.6	0.424740085	0.490074697	0.006403780	0.066066620	0.020362374
2019-08-23T17:00:00	0.1881	14.797	88.1	0.428104486	0.495724430	0.006511766	0.067180694	0.020705742
2019-08-23T17:05:00	0.1885	14.783	89.8	0.429276037	0.497699155	0.006549628	0.067571306	0.020826133
2019-08-23T17:10:00	0.1867	14.764	91.8	0.424424596	0.489546517	0.006393711	0.065962733	0.020330355
2019-08-23T17:15:00	0.1873	14.741	91.9	0.425872800	0.491973323	0.006440014	0.066440435	0.020477587
2019-08-23T17:20:00	0.1871	14.720	91.5	0.425402325	0.491184294	0.006424949	0.066285015	0.020429685
2019-08-23T17:25:00	0.1894	14.701	91.3	0.431771260	0.501917737	0.006630715	0.068407861	0.021083967
2019-08-23T17:30:00	0.1891	14.678	94.9	0.431029357	0.500661619	0.006606542	0.068158472	0.021007103
2019-08-23T17:35:00	0.1871	14.658	96.6	0.425361069	0.491115133	0.006423629	0.066271396	0.020425488
2019-08-23T17:40:00	0.1886	14.636	100.6	0.429544549	0.498152288	0.006558325	0.067661027	0.020853785
2019-08-23T17:45:00	0.1903	14.615	106.2	0.434262724	0.506147260	0.006712288	0.069249435	0.021343349
2019-08-23T17:50:00	0.1874	14.592	104.8	0.426141870	0.492424854	0.006448639	0.066529422	0.020505014
2019-08-23T17:55:00	0.1898	14.568	109.0	0.432780817	0.503629483	0.006663695	0.068748115	0.021188837
2019-08-23T18:00:00	0.1896	14.547	106.6	0.432312314	0.502834764	0.006648378	0.068590086	0.021140131
2019-08-23T18:05:00	0.1901	14.526	106.7	0.433753593	0.505281550	0.006695569	0.069076948	0.021290186
2019-08-23T18:10:00	0.1896	14.501	110.8	0.432193947	0.502634074	0.006644511	0.068550195	0.021127836
2019-08-23T18:15:00	0.1901	14.479	115.0	0.433635329	0.505080560	0.006691689	0.069036919	0.021277849
2019-08-23T18:20:00	0.1911	14.456	118.8	0.436437259	0.509852907	0.006783983	0.069989103	0.021571321
2019-08-23T18:25:00	0.1916	14.435	120.4	0.437602935	0.511844785	0.006822608	0.070387587	0.021694138
2019-08-23T18:30:00	0.1920	14.410	121.5	0.438767800	0.513839069	0.006861340	0.070787178	0.021817296
2019-08-23T18:35:00	0.1937	14.388	117.6	0.444143394	0.521907509	0.007025884	0.072484753	0.022340505
2019-08-23T18:40:00	0.1944	14.364	121.9	0.446685349	0.525313060	0.007098686	0.073235837	0.022571996
2019-08-23T18:45:00	0.1952	14.341	124.0	0.449225375	0.528721104	0.007171800	0.073990134	0.022804478
2019-08-23T18:50:00	0.1952	14.320	128.2	0.449324088	0.528853654	0.007174648	0.074019524	0.022813536
2019-08-23T18:55:00	0.1948	14.297	132.5	0.448028106	0.527114052	0.007137291	0.073634116	0.022694750
2019-08-23T19:00:00	0.1953	14.275	132.5	0.449521506	0.529118765	0.007180347	0.074078320	0.022831658
2019-08-23T19:05:00	0.1962	14.253	138.8	0.452755966	0.533466666	0.007274035	0.075044878	0.023129560
2019-08-23T19:10:00	0.1954	14.231	142.5	0.450067464	0.529852088	0.007196120	0.074241039	0.022881809
2019-08-23T19:15:00	0.1947	14.204	148.3	0.447725601	0.526708189	0.007128585	0.073544297	0.022667067
2019-08-23T19:20:00	0.1958	14.183	149.4	0.451310215	0.531522206	0.007232085	0.074612084	0.022996169
2019-08-23T19:25:00	0.1981	14.155	149.2	0.459412388	0.542440492	0.007468715	0.077053354	0.023748592
2019-08-23T19:30:00	0.1974	14.120	153.4	0.457077037	0.539288114	0.007400126	0.076345732	0.023530496
2019-08-23T19:35:00	0.1986	14.099	157.7	0.460999105	0.544584786	0.007515494	0.077535966	0.023897338
2019-08-23T19:40:00	0.1994	14.062	163.0	0.463875454	0.548476973	0.007600660	0.078414607	0.024168144
2019-08-23T19:45:00	0.1987	14.043	164.5	0.461543201	0.545320537	0.007531568	0.077701798	0.023948449
2019-08-23T19:50:00	0.1995	14.025	165.6	0.464419086	0.549213334	0.007616809	0.078581218	0.024219495
2019-08-23T19:55:00	0.2004	13.996	171.2	0.467292517	0.553109357	0.007702450	0.079464753	0.024491809
2019-08-23T20:00:00	0.2014	13.959	172.2	0.470856348	0.557950578	0.007809322	0.080567335	0.024831635
2019-08-23T20:05:00	0.1999	13.940	170.0	0.465754775	0.551023551	0.007656560	0.078991316	0.024345891
2019-08-23T20:10:00	0.1981	13.914	183.2	0.459255431	0.542228488	0.007464095	0.077005695	0.023733903
2019-08-23T20:15:00	0.1983	13.888	183.7	0.460048920	0.543300464	0.007487464	0.077246782	0.023808209
2019-08-23T20:20:00	0.1997	13.850	184.4	0.465008651	0.550012179	0.007634342	0.078762104	0.024275245
2019-08-23T20:25:00	0.2001	13.827	185.2	0.466494526	0.552026722	0.007678619	0.079218895	0.024416033
2019-08-23T20:30:00	0.1991	13.812	198.8	0.462775501	0.546987777	0.007568036	0.078078029	0.024064407
2019-08-23T20:35:00	0.1986	13.780	186.2	0.461137331	0.544771679	0.007519576	0.077578079	0.023910317
2019-08-23T20:40:00	0.1988	13.739	185.8	0.461930376	0.545844236	0.007543016	0.077819910	0.023984852
2019-08-23T20:45:00	0.1990	13.722	186.6	0.462375994	0.546447132	0.007556203	0.077955958	0.024026783
2019-08-23T20:50:00	0.2008	13.705	186.9	0.468719012	0.555045942	0.007745140	0.079905184	0.024627554
2019-08-23T20:55:00	0.1992	13.672	187.7	0.463267052	0.547653156	0.007582606	0.078228352	0.024110738
2019-08-23T21:00:00	0.1993	13.660	188.1	0.463712493	0.548256284	0.007595822	0.078364697	0.024152761
2019-08-23T21:05:00	0.2006	13.625	188.5	0.467973544	0.554033705	0.007722816	0.079674870	0.024556569
2019-08-23T21:10:00	0.1995	13.576	189.4	0.464256151	0.548992611	0.007611967	0.078531264	0.024204098
2019-08-23T21:15:00	0.1979	13.564	189.3	0.458796957	0.541609333	0.007450609	0.076866565	0.023691022
2019-08-23T21:20:00	0.1998	13.533	188.8	0.465146712	0.550199288	0.007638451	0.078804492	0.024288310
2019-08-23T21:25:00	0.1995	13.507	189.5	0.464203908	0.548921843	0.007610415	0.078515250	0.024199163
2019-08-23T21:30:00	0.2010	13.501	203.3	0.469504074	0.556112419	0.007768684	0.080148085	0.024702418
2019-08-23T21:35:00	0.2011	13.464	189.4	0.469948692	0.556716632	0.007782034	0.080285812	0.024744867
2019-08-23T21:40:00	0.1996	13.454	190.1	0.464498722	0.549321224	0.007619177	0.078605640	0.024227022
2019-08-23T21:45:00	0.2005	13.402	202.7	0.467718813	0.553687920	0.007715195	0.079596246	0.024532336
2019-08-23T21:50:00	0.2005	13.374	190.0	0.467816985	0.553821178	0.007718132	0.079626543	0.024541674
2019-08-23T21:55:00	0.1994	13.372	190.5	0.464099419	0.548780311	0.007607311	0.078483227	0.024189293
2019-08-23T22:00:00	0.2010	13.345	204.0	0.469399750	0.555970670	0.007765554	0.080115786	0.024692463
2019-08-23T22:05:00	0.2005	13.313	204.3	0.467862968	0.553883597	0.007719507	0.079640736	0.024546048
2019-08-23T22:10:00	0.2004	13.297	204.1	0.467365881	0.553208915	0.007704642	0.079487374	0.024498781
2019-08-23T22:15:00	0.2005	13.292	204.3	0.467908950	0.553946017	0.007720883	0.079654929	0.024550423
2019-08-23T22:20:00	0.2012	13.274	204.4	0.470184654	0.557037356	0.007789124	0.080358952	0.024767410
2019-08-23T22:25:00	0.2011	13.266	204.5	0.469687909	0.556362222	0.007774203	0.080205017	0.024719965
2019-08-23T22:30:00	0.2001	13.236	204.6	0.466417490	0.551922234	0.007676320	0.079195181	0.024408724
2019-08-23T22:35:00	0.2028	13.229	204.3	0.475619268	0.564436441	0.007953287	0.082052594	0.025289406
2019-08-23T22:40:00	0.2010	13.205	204.3	0.469583591	0.556220466	0.007771071	0.080172708	0.024710007
2019-08-23T22:45:00	0.2003	13.174	204.4	0.467006706	0.552721539	0.007693910	0.079376652	0.024464655
2019-08-23T22:50:00	0.1997	13.148	204.3	0.465121875	0.550165626	0.007637712	0.078796865	0.024285959
2019-08-23T22:55:00	0.1998	13.126	191.1	0.465318367	0.550431946	0.007643561	0.078857210	0.024304558
2019-08-23T23:00:00	0.2013	13.108	204.8	0.470368452	0.557287209	0.007794648	0.080415946	0.024784976
2019-08-23T23:05:00	0.2017	13.094	204.6	0.471950021	0.559438282	0.007842265	0.080907199	0.024936385
2019-08-23T23:10:00	0.1993	13.082	204.8	0.463478633	0.547939617	0.007588882	0.078293101	0.024130694
2019-08-23T23:15:00	0.2004	13.068	204.6	0.467491436	0.553379309	0.007708396	0.079526097	0.024510715
2019-08-23T23:20:00	0.2016	13.045	204.6	0.471499470	0.558825290	0.007828685	0.080767102	0.024893205
2019-08-23T23:25:00	0.2006	13.019	204.8	0.468230807	0.554382981	0.007730517	0.079754315	0.024581055
2019-08-23T23:30:00	0.2002	13.002	205.1	0.466693492	0.552296611	0.007684557	0.079280160	0.024434915
2019-08-23T23:35:00	0.1988	12.986	204.7	0.461683961	0.545510918	0.007535729	0.077744728	0.023961680
2019-08-23T23:40:00	0.1970	12.957	204.9	0.455623254	0.537327899	0.007357585	0.075906848	0.023395228
2019-08-23T23:45:00	0.1978	12.929	204.5	0.458254977	0.540877619	0.007434683	0.076702252	0.023640379
2019-08-23T23:50:00	0.1976	12.910	204.5	0.457756470	0.540204803	0.007420048	0.076551272	0.023593846
2019-08-23T23:55:00	0.1963	12.914	204.5	0.453081840	0.533905177	0.007283507	0.075142599	0.023159679
2019-08-24T00:00:00	0.1970	12.911	204.4	0.455715553	0.537452300	0.007360282	0.075934675	0.023403804
2019-08-24T00:05:00	0.1966	12.875	204.3	0.454172509	0.535373442	0.007315253	0.075470118	0.023260623
2019-08-24T00:10:00	0.1970	12.858	204.1	0.455761701	0.537514502	0.007361631	0.075948590	0.023408093
2019-08-24T00:15:00	0.1973	12.857	204.2	0.456654514	0.538718230	0.007387749	0.076218048	0.023491143
2019-08-24T00:20:00	0.1985	12.848	204.1	0.460675454	0.544147242	0.007505941	0.077437405	0.023866960
2019-08-24T00:25:00	0.1999	12.832	204.1	0.465732496	0.550993346	0.007655896	0.078984467	0.024343780
2019-08-24T00:30:00	0.1973	12.814	204.1	0.456549791	0.538577005	0.007384683	0.076186417	0.023481394
2019-08-24T00:35:00	0.1981	12.791	204.1	0.459528359	0.542597148	0.007472129	0.077088577	0.023759448
2019-08-24T00:40:00	0.1973	12.801	190.8	0.456595927	0.538639222	0.007386034	0.076200352	0.023485688
2019-08-24T00:45:00	0.1985	12.792	204.0	0.460964361	0.544537811	0.007514468	0.077525383	0.023894076
2019-08-24T00:50:00	0.1982	12.769	203.8	0.459771271	0.542925313	0.007479283	0.077162382	0.023782195
2019-08-24T00:55:00	0.1979	12.735	203.8	0.458577758	0.541313370	0.007444166	0.076800089	0.023670533
2019-08-24T01:00:00	0.1986	12.732	203.8	0.461207169	0.544866112	0.007521639	0.077599361	0.023916877
2019-08-24T01:05:00	0.1991	12.718	203.7	0.462793041	0.547011516	0.007568555	0.078083390	0.024066059
2019-08-24T01:10:00	0.1981	12.699	203.7	0.459515919	0.542580344	0.007471763	0.077084799	0.023758284
2019-08-24T01:15:00	0.1995	12.685	203.6	0.464227651	0.548954005	0.007611121	0.078522528	0.024201406
2019-08-24T01:20:00	0.1992	12.687	203.5	0.463382891	0.547809986	0.007586042	0.078263798	0.024121663
2019-08-24T01:25:00	0.1984	12.679	203.4	0.460453819	0.543847661	0.007499402	0.077369947	0.023846169
2019-08-24T01:30:00	0.1974	12.655	203.3	0.456826602	0.538950320	0.007392789	0.076270039	0.023507167
2019-08-24T01:35:00	0.1986	12.634	190.1	0.461194736	0.544849300	0.007521272	0.077595572	0.023915709
2019-08-24T01:40:00	0.1983	12.623	203.0	0.460001728	0.543236696	0.007486073	0.077232434	0.023803786
2019-08-24T01:45:00	0.1931	12.648	159.2	0.442080558	0.519147583	0.006967074	0.071878018	0.022153503
2019-08-24T01:50:00	0.1967	12.590	189.5	0.454483225	0.535791901	0.007324310	0.075563552	0.023289420
2019-08-24T01:55:00	0.1962	12.562	202.2	0.452939614	0.533713781	0.007279372	0.075099942	0.023146531
2019-08-24T02:00:00	0.1964	12.542	202.1	0.453485016	0.534447826	0.007295234	0.075263589	0.023196969
2019-08-24T02:05:00	0.1971	12.521	201.9	0.455770490	0.537526348	0.007361888	0.075951240	0.023408910
2019-08-24T02:10:00	0.1960	12.552	202.0	0.452138210	0.532635615	0.007256095	0.074859799	0.023072517
2019-08-24T02:15:00	0.1957	12.522	201.7	0.450941981	0.531027213	0.007221419	0.074502046	0.022962254
2019-08-24T02:20:00	0.1970	12.495	201.8	0.455665739	0.537385159	0.007358826	0.075919656	0.023399175
2019-08-24T02:25:00	0.1958	12.506	201.4	0.451336615	0.531557698	0.007232850	0.074619975	0.022998601
2019-08-24T02:30:00	0.1968	12.464	201.5	0.455015920	0.536509491	0.007339849	0.075723867	0.023338831
2019-08-24T02:35:00	0.1968	12.444	201.5	0.454864986	0.536306146	0.007335444	0.075678426	0.023324826
2019-08-24T02:40:00	0.1964	12.455	201.4	0.453669728	0.534696480	0.007300610	0.075319051	0.023214063
2019-08-24T02:45:00	0.1960	12.464	201.4	0.452125743	0.532618847	0.007255734	0.074856066	0.023071367
2019-08-24T02:50:00	0.1955	12.460	201.1	0.450232549	0.530073873	0.007200892	0.074290276	0.022896984
2019-08-24T02:55:00	0.1969	12.443	188.1	0.455305313	0.536899424	0.007348297	0.075811030	0.023365696
2019-08-24T03:00:00	0.1953	12.420	188.0	0.449581677	0.529199574	0.007182085	0.074096245	0.022837182
2019-08-24T03:05:00	0.1947	12.403	187.8	0.447687045	0.526656465	0.007127476	0.073532853	0.022663539
2019-08-24T03:10:00	0.1946	12.408	187.7	0.447186965	0.525985694	0.007113096	0.073384499	0.022617815
2019-08-24T03:15:00	0.1953	12.403	187.6	0.449825310	0.529526800	0.007189122	0.074168845	0.022859558
2019-08-24T03:20:00	0.1964	12.414	187.5	0.453506272	0.534476439	0.007295853	0.075269970	0.023198936
2019-08-24T03:25:00	0.1961	12.396	201.0	0.452310530	0.532867403	0.007261097	0.074911403	0.023088422
2019-08-24T03:30:00	0.1961	12.381	199.9	0.452507773	0.533132742	0.007266825	0.074970492	0.023106634
2019-08-24T03:35:00	0.1973	12.387	167.9	0.456533676	0.538555275	0.007384212	0.076181551	0.023479894
2019-08-24T03:40:00	0.1944	12.346	170.0	0.446628050	0.525236239	0.007097041	0.073218865	0.022566765
2019-08-24T03:45:00	0.1958	12.348	167.7	0.451357884	0.531586292	0.007233466	0.074626334	0.023000561
2019-08-24T03:50:00	0.1953	12.341	162.1	0.449812834	0.529510043	0.007188761	0.074165127	0.022858412
2019-08-24T03:55:00	0.1958	12.307	162.8	0.451404093	0.531648416	0.007234805	0.074640149	0.023004819
2019-08-24T04:00:00	0.1951	12.307	172.0	0.448813235	0.528167776	0.007159911	0.073867486	0.022766676
2019-08-24T04:05:00	0.1954	12.302	164.7	0.450053332	0.529833102	0.007195711	0.074236825	0.022880510
2019-08-24T04:10:00	0.1958	12.285	162.1	0.451292971	0.531499023	0.007231585	0.074606929	0.022994580
2019-08-24T04:15:00	0.1959	12.281	163.8	0.451835523	0.532228528	0.007247313	0.074769196	0.023044592
2019-08-24T04:20:00	0.1957	12.260	166.4	0.450984525	0.531084397	0.007222651	0.074514755	0.022966171
2019-08-24T04:25:00	0.1952	12.268	168.0	0.449436184	0.529004182	0.007177884	0.074052906	0.022823825
2019-08-24T04:30:00	0.1963	12.259	175.4	0.453114457	0.533949073	0.007284455	0.075152384	0.023162695
2019-08-24T04:35:00	0.1962	12.252	175.5	0.452960321	0.533741646	0.007279974	0.075106152	0.023148445
2019-08-24T04:40:00	0.1938	12.240	162.1	0.444437761	0.522301623	0.007034296	0.072571537	0.022367253
2019-08-24T04:45:00	0.1953	12.236	162.8	0.449516176	0.529111607	0.007180193	0.074076732	0.022831168
2019-08-24T04:50:00	0.1956	12.236	164.1	0.450756013	0.530777270	0.007216035	0.074446505	0.022945136
2019-08-24T04:55:00	0.1955	12.241	163.8	0.450253273	0.530101716	0.007201491	0.074296458	0.022898890
2019-08-24T05:00:00	0.1953	12.234	161.7	0.449750457	0.529426260	0.007186959	0.074146536	0.022852682
2019-08-24T05:05:00	0.1958	12.229	161.9	0.451338627	0.531560403	0.007232908	0.074620577	0.022998787
2019-08-24T05:10:00	0.1961	12.246	161.9	0.452577791	0.533226941	0.007268859	0.074991474	0.023113100
2019-08-24T05:15:00	0.1978	12.243	164.1	0.458339327	0.540991484	0.007437160	0.076727814	0.023648257
2019-08-24T05:20:00	0.1951	12.234	165.7	0.449133253	0.528597412	0.007169141	0.073962711	0.022796026
2019-08-24T05:25:00	0.1975	12.249	160.9	0.457336041	0.539637518	0.007407717	0.076424053	0.023554635
2019-08-24T05:30:00	0.1977	12.252	160.8	0.457877618	0.540368294	0.007423604	0.076587950	0.023605150
2019-08-24T05:35:00	0.1968	12.267	160.2	0.454940631	0.536408056	0.007337652	0.075701198	0.023331845
2019-08-24T05:40:00	0.1970	12.278	160.8	0.455482595	0.537138328	0.007353475	0.075864450	0.023382160
2019-08-24T05:45:00	0.1974	12.288	161.2	0.457068055	0.539275998	0.007399862	0.076343017	0.023529659
2019-08-24T05:50:00	0.1961	12.296	163.2	0.452389350	0.532973431	0.007263386	0.074935013	0.023095699
2019-08-24T05:55:00	0.1971	12.298	164.1	0.456064389	0.537922528	0.007370481	0.076039891	0.023436233
2019-08-24T06:00:00	0.1971	12.308	166.3	0.455910389	0.537714925	0.007365978	0.075993433	0.023421914
2019-08-24T06:05:00	0.1966	12.338	168.3	0.454364319	0.535631756	0.007320843	0.075527790	0.023278398
2019-08-24T06:10:00	0.1955	12.362	166.9	0.450378916	0.530270529	0.007205125	0.074333943	0.022910443
2019-08-24T06:15:00	0.1953	12.381	166.4	0.449527547	0.529126878	0.007180522	0.074080120	0.022832212
2019-08-24T06:20:00	0.1955	12.404	163.9	0.450418901	0.530324256	0.007206281	0.074345874	0.022914121
2019-08-24T06:25:00	0.1975	12.432	160.7	0.457227675	0.539491323	0.007404540	0.076391279	0.023544534
2019-08-24T06:30:00	0.1964	12.459	159.5	0.453593857	0.534594341	0.007298402	0.075296267	0.023207041
2019-08-24T06:35:00	0.1938	12.493	158.2	0.444374730	0.522217227	0.007032495	0.072552950	0.022361524
2019-08-24T06:40:00	0.1935	12.515	158.1	0.443521833	0.521075553	0.007008138	0.072301673	0.022284078
2019-08-24T06:45:00	0.1947	12.551	157.7	0.447555415	0.526479887	0.007123689	0.073493789	0.022651500
2019-08-24T06:50:00	0.1939	12.585	155.4	0.444958454	0.522998922	0.007049188	0.072725170	0.022414604
2019-08-24T06:55:00	0.1942	12.616	155.0	0.445851025	0.524194725	0.007074751	0.072988898	0.022495887
2019-08-24T07:00:00	0.1938	12.643	153.9	0.444300308	0.522117586	0.007030368	0.072531007	0.022354761
2019-08-24T07:05:00	0.1935	12.678	153.7	0.443447393	0.520975936	0.007006015	0.072279762	0.022277325
2019-08-24T07:10:00	0.1948	12.709	153.8	0.447829849	0.526848048	0.007131585	0.073575244	0.022676605
2019-08-24T07:15:00	0.1931	12.753	158.1	0.442090292	0.519160599	0.006967351	0.071880875	0.022154384
2019-08-24T07:20:00	0.1937	12.789	159.4	0.444031280	0.521757422	0.007022682	0.072451713	0.022330322
2019-08-24T07:25:00	0.1942	12.822	159.9	0.445971141	0.524355696	0.007078194	0.073024424	0.022506837
2019-08-24T07:30:00	0.1934	12.874	161.2	0.443023702	0.520409027	0.006993933	0.072155112	0.022238906
2019-08-24T07:35:00	0.1947	12.918	161.7	0.447406712	0.526280423	0.007119413	0.073449671	0.022637902
2019-08-24T07:40:00	0.1950	12.975	160.7	0.448647330	0.527945074	0.007155129	0.073818142	0.022751468
2019-08-24T07:45:00	0.1949	13.037	159.3	0.448144273	0.527269931	0.007140636	0.073668623	0.022705385
2019-08-24T07:50:00	0.1952	13.091	159.7	0.449384618	0.528934936	0.007176395	0.074037549	0.022819092
2019-08-24T07:55:00	0.1960	13.171	159.6	0.452018117	0.532474092	0.007252610	0.074823845	0.023061436
2019-08-24T08:00:00	0.1966	13.249	159.3	0.454301475	0.535547119	0.007319011	0.075508892	0.023272574
2019-08-24T08:05:00	0.1960	13.313	160.1	0.452058083	0.532527844	0.007253770	0.074835809	0.023065123
2019-08-24T08:10:00	0.1944	13.400	158.4	0.446674679	0.525298755	0.007098380	0.073232676	0.022571022
2019-08-24T08:15:00	0.1940	13.469	162.2	0.445124345	0.523221123	0.007053935	0.072774151	0.022429700
2019-08-24T08:20:00	0.1952	13.471	152.2	0.449155997	0.528627951	0.007169798	0.073969481	0.022798112
2019-08-24T08:25:00	0.1950	13.474	153.0	0.448653017	0.527952708	0.007155292	0.073819834	0.022751990
2019-08-24T08:30:00	0.1961	13.533	156.0	0.452332149	0.532896483	0.007261725	0.074917878	0.023090418
2019-08-24T08:35:00	0.1948	13.623	153.8	0.447995597	0.527070433	0.007136355	0.073624461	0.022691774
2019-08-24T08:40:00	0.1942	13.724	152.6	0.445747980	0.524056640	0.007071797	0.072958427	0.022486496
2019-08-24T08:45:00	0.1940	13.767	140.5	0.445244487	0.523382060	0.007057375	0.072809634	0.022440636
2019-08-24T08:50:00	0.1950	13.819	139.1	0.448578691	0.527852943	0.007153150	0.073797733	0.022745178
2019-08-24T08:55:00	0.1937	13.846	133.9	0.444237275	0.522033194	0.007028566	0.072512425	0.022349034
2019-08-24T09:00:00	0.1935	13.952	132.8	0.443384343	0.520891565	0.007004216	0.072261206	0.022271605
2019-08-24T09:05:00	0.1922	13.993	132.7	0.439220886	0.514615790	0.006876441	0.070942977	0.021865314
2019-08-24T09:10:00	0.1926	14.058	126.1	0.440459104	0.516741388	0.006917815	0.071369823	0.021996873
2019-08-24T09:15:00	0.1937	14.100	120.6	0.443968241	0.521673036	0.007020881	0.072433139	0.022324597
2019-08-24T09:20:00	0.1929	14.182	116.4	0.441368494	0.518195668	0.006946829	0.071669159	0.022089131
2019-08-24T09:25:00	0.1918	14.201	114.3	0.438195758	0.512859240	0.006842303	0.070590774	0.021756762
2019-08-24T09:30:00	0.1938	14.232	112.6	0.444552036	0.522454639	0.007037563	0.072605241	0.022377640
2019-08-24T09:35:00	0.1921	14.312	105.0	0.439042634	0.514310146	0.006870498	0.070881658	0.021846415
2019-08-24T09:40:00	0.1943	14.279	105.3	0.446337156	0.524846273	0.007088692	0.073132731	0.022540218
2019-08-24T09:45:00	0.1931	14.347	98.2	0.441992829	0.519030283	0.006964578	0.071852270	0.022145567
2019-08-24T09:50:00	0.1932	14.340	91.9	0.442187554	0.519290654	0.006970118	0.071909427	0.022163184
2019-08-24T09:55:00	0.1925	14.397	86.4	0.440191917	0.516282355	0.006908874	0.071277584	0.021968444
2019-08-24T10:00:00	0.1922	14.421	83.8	0.439256503	0.514676873	0.006877629	0.070955233	0.021869092
2019-08-24T10:05:00	0.1924	14.512	81.0	0.439833601	0.515667076	0.006896896	0.071154000	0.021930354
2019-08-24T10:10:00	0.1917	14.563	81.1	0.437964286	0.512463022	0.006834608	0.070511395	0.021732297
2019-08-24T10:15:00	0.1921	14.548	77.6	0.439085552	0.514383728	0.006871928	0.070896419	0.021850965
2019-08-24T10:20:00	0.1922	14.663	78.5	0.439390962	0.514907498	0.006882115	0.071001514	0.021883356
2019-08-24T10:25:00	0.1917	14.720	75.7	0.438065208	0.512635756	0.006837962	0.070545998	0.021742962
2019-08-24T10:30:00	0.1915	14.689	75.5	0.437554803	0.511762462	0.006821010	0.070371106	0.021689058
2019-08-24T10:35:00	0.1907	14.707	75.3	0.435138107	0.507637421	0.006741093	0.069546619	0.021434943
2019-08-24T10:40:00	0.1908	14.765	66.6	0.435444238	0.508159053	0.006751185	0.069650731	0.021467032
2019-08-24T10:45:00	0.1909	14.859	68.4	0.435750313	0.508680850	0.006761284	0.069754919	0.021499144
2019-08-24T10:50:00	0.1901	14.865	110.2	0.433603730	0.505026865	0.006690652	0.069026227	0.021274553
2019-08-24T10:55:00	0.1891	14.891	97.1	0.430908144	0.500456539	0.006602597	0.068117779	0.020994561
2019-08-24T11:00:00	0.1898	14.984	89.5	0.432852883	0.503751781	0.006666053	0.068772443	0.021196335
2019-08-24T11:05:00	0.1887	15.004	82.6	0.429882767	0.498723339	0.006569289	0.067774142	0.020888649
2019-08-24T11:10:00	0.1878	15.102	74.0	0.427454841	0.494631054	0.006490829	0.066964688	0.020639167
2019-08-24T11:15:00	0.1882	15.176	70.2	0.428309667	0.496070000	0.006518388	0.067249005	0.020726796
2019-08-24T11:20:00	0.1883	15.163	66.9	0.428617065	0.496587945	0.006528315	0.067351425	0.020758363
2019-08-24T11:25:00	0.1882	15.227	65.7	0.428377342	0.496184006	0.006520573	0.067271545	0.020733743
2019-08-24T11:30:00	0.1887	15.240	64.8	0.429778467	0.498547203	0.006565906	0.067739247	0.020877894
2019-08-24T11:35:00	0.1881	15.273	63.1	0.428171426	0.495837159	0.006513926	0.067202976	0.020712610
2019-08-24T11:40:00	0.1883	15.272	59.2	0.428752387	0.496816038	0.006532688	0.067396543	0.020772269
2019-08-24T11:45:00	0.1890	15.307	57.7	0.430699666	0.500103911	0.006595817	0.068047826	0.020973001
2019-08-24T11:50:00	0.1888	15.353	54.5	0.430186993	0.499237268	0.006579161	0.067875987	0.020920038
2019-08-24T11:55:00	0.1867	15.463	52.2	0.424197803	0.489166998	0.006386478	0.065888113	0.020307356
2019-08-24T12:00:00	0.1891	15.528	49.8	0.430801031	0.500275348	0.006599113	0.068081833	0.020983482
2019-08-24T12:05:00	0.1889	15.476	48.5	0.430288389	0.499408614	0.006582453	0.067909952	0.020930507
2019-08-24T12:10:00	0.1878	15.511	13.9	0.427313644	0.494393570	0.006486284	0.066917797	0.020624715
2019-08-24T12:15:00	0.1889	15.531	13.0	0.430355983	0.499522854	0.006584648	0.067932600	0.020937487
2019-08-24T12:20:00	0.1890	15.539	60.1	0.430662999	0.500041903	0.006594625	0.068035527	0.020969210
2019-08-24T12:25:00	0.1883	15.623	10.0	0.428783335	0.496868209	0.006533689	0.067406864	0.020775450
2019-08-24T12:30:00	0.1872	15.695	9.0	0.425805859	0.491861020	0.006437869	0.066418308	0.020470768
2019-08-24T12:35:00	0.1881	15.672	8.0	0.428030291	0.495599498	0.006509373	0.067156003	0.020698132
2019-08-24T12:40:00	0.1875	15.669	7.3	0.426421537	0.492894380	0.006457612	0.066621990	0.020533544
2019-08-24T12:45:00	0.1863	15.669	6.9	0.423165326	0.487441036	0.006353613	0.065549057	0.020202856
2019-08-24T12:50:00	0.1873	15.705	6.3	0.425941414	0.492088446	0.006442213	0.066463120	0.020484579
2019-08-24T12:55:00	0.1865	15.814	5.9	0.423782001	0.488471559	0.006373230	0.065751440	0.020265232
2019-08-24T13:00:00	0.1885	15.818	5.4	0.429293565	0.497728729	0.006550196	0.067577161	0.020827937
2019-08-24T13:05:00	0.1866	15.824	5.1	0.424124176	0.489043820	0.006384131	0.065863900	0.020299894
2019-08-24T13:10:00	0.1857	15.832	4.6	0.421687673	0.484976023	0.006306758	0.065065662	0.020053869
2019-08-24T13:15:00	0.1877	15.762	4.2	0.427206297	0.494213056	0.006482830	0.066882160	0.020613731
2019-08-24T13:20:00	0.1880	15.748	4.1	0.427787600	0.495190953	0.006501548	0.067075277	0.020673252
2019-08-24T13:25:00	0.1879	15.804	4.0	0.427547756	0.494787362	0.006493821	0.066995556	0.020648681
2019-08-24T13:30:00	0.1879	15.760	3.8	0.427581610	0.494844318	0.006494912	0.067006805	0.020652148
2019-08-24T13:35:00	0.1864	15.773	3.9	0.423504740	0.488008100	0.006364406	0.065660400	0.020237173
2019-08-24T13:40:00	0.1866	15.804	4.2	0.424087362	0.488982235	0.006382957	0.065851794	0.020296163
2019-08-24T13:45:00	0.1873	15.806	3.6	0.426040186	0.492254194	0.006445379	0.066495784	0.020494647
2019-08-24T13:50:00	0.1883	15.849	3.4	0.428811401	0.496915525	0.006534596	0.067416224	0.020778335
2019-08-24T13:55:00	0.1877	15.813	3.2	0.427203413	0.494208207	0.006482737	0.066881203	0.020613436
2019-08-24T14:00:00	0.1875	15.766	3.2	0.426415766	0.492884691	0.006457427	0.066620079	0.020532955
2019-08-24T14:05:00	0.1874	15.819	3.0	0.426175722	0.492481675	0.006449725	0.066540622	0.020508466
2019-08-24T14:10:00	0.1877	15.797	2.9	0.427031215	0.493918707	0.006477198	0.066824062	0.020595825
2019-08-24T14:15:00	0.1863	15.802	2.8	0.423227433	0.487544775	0.006355587	0.065569423	0.020209133
2019-08-24T14:20:00	0.1852	15.856	2.7	0.420239783	0.482566517	0.006261051	0.064594113	0.019908533
2019-08-24T14:25:00	0.1865	15.857	2.6	0.423844084	0.488575364	0.006375207	0.065771835	0.020271518
2019-08-24T14:30:00	0.1863	15.931	2.5	0.423329261	0.487714884	0.006358825	0.065602821	0.020219427
2019-08-24T14:35:00	0.1843	15.919	2.4	0.417865537	0.478627951	0.006186539	0.063825379	0.019671602
2019-08-24T14:40:00	0.1853	15.915	2.4	0.420375803	0.482792627	0.006265337	0.064638323	0.019922159
2019-08-24T14:45:00	0.1862	15.894	2.1	0.422882177	0.486968222	0.006344619	0.065456260	0.020174255
2019-08-24T14:50:00	0.1861	16.000	2.0	0.422641612	0.486566688	0.006336983	0.065377482	0.020149975
2019-08-24T14:55:00	0.1850	16.067	1.9	0.419652881	0.481591474	0.006242582	0.064403565	0.019849804
2019-08-24T15:00:00	0.1850	16.088	2.7	0.419686899	0.481647964	0.006243651	0.064414600	0.019853205
2019-08-24T15:05:00	0.1852	16.112	2.5	0.420270893	0.482618227	0.006262031	0.064604223	0.019911649
2019-08-24T15:10:00	0.1839	16.230	2.1	0.416726770	0.476744405	0.006150992	0.063458653	0.019558573
2019-08-24T15:15:00	0.1830	16.301	2.2	0.414279062	0.472707936	0.006075008	0.062674738	0.019316963
2019-08-24T15:20:00	0.1866	16.209	2.2	0.423942984	0.488740750	0.006378357	0.065804334	0.020281535
2019-08-24T15:25:00	0.1843	16.230	2.2	0.417655384	0.478280084	0.006179969	0.063757606	0.019650713
2019-08-24T15:30:00	0.1869	16.353	2.1	0.424833558	0.490231239	0.006406766	0.066097419	0.020371867
2019-08-24T15:35:00	0.1861	16.241	2.0	0.422672676	0.486618528	0.006337968	0.065387651	0.020153109
2019-08-24T15:40:00	0.1860	16.165	2.0	0.422432079	0.486217082	0.006330336	0.065308912	0.020128841
2019-08-24T15:45:00	0.1865	16.072	2.0	0.423838305	0.488565700	0.006375023	0.065769936	0.020270933
2019-08-24T15:50:00	0.1855	16.242	2.0	0.421126600	0.484041625	0.006289022	0.064882684	0.019997473
2019-08-24T15:55:00	0.1859	16.193	1.9	0.422259376	0.485929018	0.006324861	0.065252429	0.020111432
2019-08-24T16:00:00	0.1865	16.068	1.8	0.423665751	0.488277214	0.006369529	0.065713259	0.020253465
2019-08-24T16:05:00	0.1870	16.213	2.1	0.425269861	0.490962251	0.006420711	0.066241295	0.020416211
2019-08-24T16:10:00	0.1855	16.136	2.1	0.421111847	0.484017068	0.006288556	0.064877877	0.019995992
2019-08-24T16:15:00	0.1856	16.099	2.1	0.421345264	0.484405680	0.006295931	0.064953958	0.020019441
2019-08-24T16:20:00	0.1850	16.165	2.2	0.419654470	0.481594112	0.006242632	0.064404080	0.019849963
2019-08-24T16:25:00	0.1853	16.059	2.1	0.420438016	0.482896064	0.006267297	0.064658550	0.019928393
2019-08-24T16:30:00	0.1838	16.077	2.1	0.416267553	0.475985862	0.006136693	0.063311131	0.019513105
2019-08-24T16:35:00	0.1841	16.021	2.2	0.417052749	0.477283217	0.006161155	0.063563500	0.019590888
2019-08-24T16:40:00	0.1863	15.933	2.3	0.423335322	0.487725011	0.006359017	0.065604809	0.020220039
2019-08-24T16:45:00	0.1855	15.919	2.4	0.421097094	0.483992511	0.006288090	0.064873070	0.019994510
2019-08-24T16:50:00	0.1859	15.945	2.3	0.422154588	0.485754275	0.006321541	0.065218172	0.020100874
2019-08-24T16:55:00	0.1856	16.119	2.3	0.421289154	0.484312249	0.006294158	0.064935664	0.020013802
2019-08-24T17:00:00	0.1872	16.062	2.3	0.425638262	0.491579905	0.006432501	0.066362928	0.020453699
2019-08-24T17:05:00	0.1874	15.962	2.2	0.426145004	0.492430114	0.006448740	0.066530459	0.020505333
2019-08-24T17:10:00	0.1879	15.994	2.2	0.427746683	0.495122090	0.006500230	0.067061673	0.020669059
2019-08-24T17:15:00	0.1872	15.897	2.3	0.425788541	0.491831969	0.006437314	0.066412584	0.020469003
2019-08-24T17:20:00	0.1887	15.838	2.3	0.429852397	0.498672049	0.006568304	0.067763980	0.020885517
2019-08-24T17:25:00	0.1886	15.789	2.4	0.429537892	0.498141050	0.006558109	0.067658801	0.020853100
2019-08-24T17:30:00	0.1889	15.715	2.4	0.430316708	0.499456475	0.006583372	0.067919440	0.020933431
2019-08-24T17:35:00	0.1868	15.727	2.4	0.424527032	0.489717982	0.006396979	0.065996453	0.020340748
2019-08-24T17:40:00	0.1868	15.745	2.5	0.424485754	0.489648884	0.006395662	0.065982864	0.020336559
2019-08-24T17:45:00	0.1860	15.702	2.5	0.422523695	0.486369928	0.006333242	0.065338888	0.020138080
2019-08-24T17:50:00	0.1882	15.649	2.5	0.428511662	0.496410319	0.006524910	0.067316296	0.020747536
2019-08-24T17:55:00	0.1877	15.602	2.6	0.427102106	0.494037879	0.006479478	0.066847582	0.020603074
2019-08-24T18:00:00	0.1883	15.584	2.7	0.428702851	0.496732536	0.006531087	0.067380025	0.020767178
2019-08-24T18:05:00	0.1875	15.546	2.6	0.426471980	0.492979091	0.006459231	0.066638694	0.020538693
2019-08-24T18:10:00	0.1881	15.518	2.7	0.428073339	0.495671982	0.006510762	0.067170328	0.020702547
2019-08-24T18:15:00	0.1876	15.512	2.7	0.426663406	0.493300625	0.006465378	0.066702111	0.020558238
2019-08-24T18:20:00	0.1884	15.472	2.6	0.429085162	0.497377163	0.006543450	0.067507571	0.020806489
2019-08-24T18:25:00	0.1891	15.416	2.6	0.430957150	0.500539447	0.006604192	0.068134229	0.020999631
2019-08-24T18:30:00	0.1900	15.386	2.7	0.433372608	0.504634208	0.006683074	0.068948047	0.021250458
2019-08-24T18:35:00	0.1904	15.366	2.8	0.434422222	0.506418613	0.006717531	0.069303525	0.021360020
2019-08-24T18:40:00	0.1927	15.347	2.8	0.440638897	0.517050388	0.006923835	0.071431933	0.022016015
2019-08-24T18:45:00	0.1922	15.329	2.9	0.439239603	0.514647889	0.006877066	0.070949418	0.021867300
2019-08-24T18:50:00	0.1902	15.289	2.9	0.434026506	0.505745512	0.006704528	0.069169375	0.021318673
2019-08-24T18:55:00	0.1916	15.269	3.0	0.437798194	0.512178809	0.006829091	0.070454471	0.021714752
2019-08-24T19:00:00	0.1908	15.237	3.0	0.435579559	0.508389715	0.006755649	0.069696782	0.021481225
2019-08-24T19:05:00	0.1924	15.208	3.1	0.439891207	0.515765970	0.006898821	0.071173860	0.021936475
2019-08-24T19:10:00	0.1919	15.201	3.0	0.438491289	0.513365330	0.006852134	0.070692200	0.021788022
2019-08-24T19:15:00	0.1922	15.205	0.0	0.439265923	0.514693028	0.006877943	0.070958475	0.021870091
2019-08-24T19:20:00	0.1919	15.186	0.0	0.438409426	0.513225118	0.006849410	0.070664096	0.021779361
2019-08-24T19:25:00	0.1913	15.152	0.0	0.437008269	0.510828161	0.006802887	0.070184129	0.021631430
2019-08-24T19:30:00	0.1915	15.126	0.0	0.437511538	0.511688470	0.006819575	0.070356293	0.021684493
2019-08-24T19:35:00	0.1915	15.109	0.0	0.437470583	0.511618434	0.006818216	0.070342273	0.021680172
2019-08-24T19:40:00	0.1915	15.119	0.0	0.437429627	0.511548400	0.006816857	0.070328255	0.021675851
2019-08-24T19:45:00	0.1930	15.107	0.0	0.441574811	0.518471441	0.006952692	0.071729645	0.022107773
2019-08-24T19:50:00	0.1921	15.088	0.0	0.438979518	0.514201944	0.006868394	0.070859954	0.021839726
2019-08-24T19:55:00	0.1933	15.082	0.0	0.442517742	0.519732224	0.006979518	0.072006397	0.022193071
2019-08-24T20:00:00	0.1915	15.061	0.0	0.437537885	0.511733529	0.006820449	0.070365314	0.021687273
2019-08-24T20:05:00	0.1906	15.056	0.0	0.435046451	0.507481295	0.006738074	0.069515466	0.021425342
2019-08-24T20:10:00	0.1908	15.035	0.0	0.435550311	0.508339857	0.006754684	0.069686827	0.021478157
2019-08-24T20:15:00	0.1913	15.015	0.0	0.436870753	0.510593207	0.006798331	0.070137130	0.021616945
2019-08-24T20:20:00	0.1926	15.007	0.0	0.440364447	0.516578743	0.006914647	0.071337137	0.021986798
2019-08-24T20:25:00	0.1902	14.995	0.0	0.433792015	0.505346855	0.006696830	0.069089956	0.021294195
2019-08-24T20:30:00	0.1913	15.005	0.0	0.437020014	0.510848229	0.006803276	0.070188144	0.021632667
2019-08-24T20:35:00	0.1917	14.988	0.0	0.438067334	0.512639394	0.006838033	0.070546727	0.021743186
2019-08-24T20:40:00	0.1921	14.961	0.0	0.439113999	0.514432503	0.006872877	0.070906204	0.021853981
2019-08-24T20:45:00	0.1906	14.951	0.0	0.434990806	0.507386523	0.006736241	0.069496557	0.021419514
2019-08-24T20:50:00	0.1914	14.935	0.0	0.437128298	0.511033280	0.006806865	0.070225166	0.021644078
2019-08-24T20:55:00	0.1926	14.897	0.0	0.440349865	0.516553690	0.006914159	0.071332103	0.021985247
2019-08-24T21:00:00	0.1919	14.880	0.0	0.438406562	0.513220212	0.006849314	0.070663112	0.021779057
2019-08-24T21:05:00	0.1928	14.872	0.0	0.441082776	0.517813645	0.006938712	0.071585413	0.022063320
2019-08-24T21:10:00	0.1920	14.854	0.0	0.438868490	0.514011631	0.006864694	0.070821783	0.021827961
2019-08-24T21:15:00	0.1922	14.842	0.0	0.439371200	0.514873599	0.006881456	0.070994711	0.021881259
2019-08-24T21:20:00	0.1912	14.844	0.0	0.436610300	0.510148356	0.006789708	0.070048169	0.021589526
2019-08-24T21:25:00	0.1925	14.831	0.0	0.440104537	0.516132279	0.006905952	0.071247434	0.021959151
2019-08-24T21:30:00	0.1937	14.807	0.0	0.443963614	0.521666842	0.007020749	0.072431775	0.022324177
2019-08-24T21:35:00	0.1927	14.797	0.0	0.440837555	0.517391915	0.006930491	0.071500598	0.022037179
2019-08-24T21:40:00	0.1935	14.786	0.0	0.443509294	0.521058773	0.007007781	0.072297982	0.022282940
2019-08-24T21:45:00	0.1922	14.789	0.0	0.439397518	0.514918745	0.006882334	0.071003771	0.021884052
2019-08-24T21:50:00	0.1937	14.783	0.0	0.444102543	0.521852820	0.007024717	0.072472713	0.022336794
2019-08-24T21:55:00	0.1932	14.763	0.0	0.442303727	0.519446006	0.006973425	0.071943538	0.022173697
2019-08-24T22:00:00	0.1924	14.741	0.0	0.439818275	0.515640768	0.006896383	0.071148717	0.021928726
2019-08-24T22:05:00	0.1917	14.731	0.1	0.437915301	0.512379192	0.006832981	0.070494604	0.021727122
2019-08-24T22:10:00	0.1922	14.719	0.2	0.439274789	0.514708233	0.006878239	0.070961526	0.021871031
2019-08-24T22:15:00	0.1934	14.714	0.3	0.442949765	0.520310112	0.006991825	0.072133371	0.022232205
2019-08-24T22:20:00	0.1943	14.692	0.5	0.446091767	0.524517362	0.007081653	0.073060110	0.022517835
2019-08-24T22:25:00	0.1935	14.670	0.6	0.443299022	0.520777396	0.007001782	0.072236099	0.022263867
2019-08-24T22:30:00	0.1935	14.665	0.8	0.443299022	0.520777396	0.007001782	0.072236099	0.022263867
2019-08-24T22:35:00	0.1938	14.653	0.7	0.444346575	0.522179531	0.007031690	0.072544648	0.022358965
2019-08-24T22:40:00	0.1925	14.641	0.7	0.440089953	0.516107232	0.006905464	0.071242403	0.021957601
2019-08-24T22:45:00	0.1927	14.633	0.7	0.440633176	0.517040554	0.006923644	0.071429956	0.022015406
2019-08-24T22:50:00	0.1914	14.611	0.8	0.437099078	0.510983341	0.006805896	0.070215175	0.021640999
2019-08-24T22:55:00	0.1932	14.600	0.9	0.442251141	0.519375684	0.006971928	0.071928096	0.022168938
2019-08-24T23:00:00	0.1935	14.587	1.0	0.443299022	0.520777396	0.007001782	0.072236099	0.022263867
2019-08-24T23:05:00	0.1942	14.576	1.1	0.445742802	0.524049702	0.007071649	0.072956896	0.022486024
2019-08-24T23:10:00	0.1917	14.558	1.1	0.437915301	0.512379192	0.006832981	0.070494604	0.021727122
2019-08-24T23:15:00	0.1926	14.541	1.2	0.440361586	0.516573828	0.006914551	0.071336149	0.021986494
2019-08-24T23:20:00	0.1902	14.531	1.4	0.433830188	0.505411742	0.006698082	0.069102881	0.021298179
2019-08-24T23:25:00	0.1901	14.520	1.6	0.433557490	0.504948295	0.006689136	0.069010581	0.021269731
2019-08-24T23:30:00	0.1905	14.504	1.8	0.434648012	0.506802871	0.006724957	0.069380141	0.021383633
2019-08-24T23:35:00	0.1925	14.490	1.9	0.440089953	0.516107232	0.006905464	0.071242403	0.021957601
2019-08-24T23:40:00	0.1913	14.477	2.0	0.436826915	0.510518320	0.006796879	0.070122152	0.021612328
2019-08-24T23:45:00	0.1902	14.457	2.1	0.433830188	0.505411742	0.006698082	0.069102881	0.021298179
2019-08-24T23:50:00	0.1915	14.445	2.1	0.437371197	0.511448493	0.006814918	0.070308258	0.021669688
2019-08-24T23:55:00	0.1917	14.435	2.1	0.437915301	0.512379192	0.006832981	0.070494604	0.021727122
2019-08-25T00:00:00	0.1896	14.421	2.3	0.432193329	0.502633026	0.006644491	0.068549986	0.021127772
2019-08-25T00:05:00	0.1911	14.411	2.5	0.436282456	0.509588670	0.006778864	0.069936288	0.021555043
2019-08-25T00:10:00	0.1908	14.396	2.4	0.435465435	0.508195181	0.006751884	0.069657943	0.021469255
2019-08-25T00:15:00	0.1903	14.388	2.6	0.434102841	0.505875321	0.006707035	0.069195241	0.021326645
2019-08-25T00:20:00	0.1908	14.377	2.7	0.435465435	0.508195181	0.006751884	0.069657943	0.021469255
2019-08-25T00:25:00	0.1920	14.363	2.8	0.438731126	0.513776223	0.006860118	0.070774576	0.021813412
2019-08-25T00:30:00	0.1908	14.350	2.9	0.435465435	0.508195181	0.006751884	0.069657943	0.021469255
2019-08-25T00:35:00	0.1917	14.336	3.2	0.437915301	0.512379192	0.006832981	0.070494604	0.021727122
2019-08-25T00:40:00	0.1901	14.325	3.5	0.433557490	0.504948295	0.006689136	0.069010581	0.021269731
2019-08-25T00:45:00	0.1891	14.314	3.8	0.430828042	0.500321036	0.006599992	0.068090896	0.020986276
2019-08-25T00:50:00	0.1893	14.294	3.7	0.431374292	0.501245439	0.006617774	0.068274352	0.021042818
2019-08-25T00:55:00	0.1895	14.285	4.1	0.431920361	0.502170366	0.006635579	0.068458048	0.021099435
2019-08-25T01:00:00	0.1890	14.275	4.3	0.430554849	0.499859032	0.006591109	0.067999259	0.020958032
2019-08-25T01:05:00	0.1893	14.263	4.4	0.431374292	0.501245439	0.006617774	0.068274352	0.021042818
2019-08-25T01:10:00	0.1886	14.252	4.5	0.429461625	0.498012326	0.006555638	0.067633311	0.020845243
2019-08-25T01:15:00	0.1895	14.238	4.7	0.431920361	0.502170366	0.006635579	0.068458048	0.021099435
2019-08-25T01:20:00	0.1880	14.222	4.8	0.427820426	0.495246202	0.006502606	0.067086192	0.020676616
2019-08-25T01:25:00	0.1880	14.211	5.0	0.427820426	0.495246202	0.006502606	0.067086192	0.020676616
2019-08-25T01:30:00	0.1879	14.203	5.1	0.427546733	0.494785641	0.006493788	0.066995216	0.020648576
2019-08-25T01:35:00	0.1875	14.198	5.3	0.426451505	0.492944706	0.006458574	0.066631914	0.020536603
2019-08-25T01:40:00	0.1890	14.191	5.5	0.430554849	0.499859032	0.006591109	0.067999259	0.020958032
2019-08-25T01:45:00	0.1877	14.179	5.7	0.426999210	0.493864911	0.006476169	0.066813445	0.020592553
2019-08-25T01:50:00	0.1876	14.167	5.9	0.426725380	0.493404743	0.006467369	0.066722649	0.020564568
2019-08-25T01:55:00	0.1895	14.161	6.2	0.431920361	0.502170366	0.006635579	0.068458048	0.021099435
2019-08-25T02:00:00	0.1881	14.150	6.1	0.428094073	0.495706895	0.006511431	0.067177228	0.020704674
2019-08-25T02:05:00	0.1877	14.140	6.3	0.426999210	0.493864911	0.006476169	0.066813445	0.020592553
2019-08-25T02:10:00	0.1895	14.125	6.6	0.431920361	0.502170366	0.006635579	0.068458048	0.021099435
2019-08-25T02:15:00	0.1858	14.113	6.7	0.421788571	0.485144148	0.006309951	0.065098600	0.020064021
2019-08-25T02:20:00	0.1879	14.105	6.6	0.427546733	0.494785641	0.006493788	0.066995216	0.020648576
2019-08-25T02:25:00	0.1871	14.096	6.9	0.425355543	0.491105870	0.006423452	0.066269572	0.020424926
2019-08-25T02:30:00	0.1891	14.092	6.8	0.430828042	0.500321036	0.006599992	0.068090896	0.020986276
2019-08-25T02:35:00	0.1860	14.087	6.9	0.422337846	0.486059893	0.006327349	0.065278089	0.020119341
2019-08-25T02:40:00	0.1867	14.079	7.0	0.424258845	0.489269133	0.006388424	0.065908192	0.020313545
2019-08-25T02:45:00	0.1861	14.071	7.5	0.422612413	0.486517962	0.006336056	0.065367924	0.020147029
2019-08-25T02:50:00	0.1857	14.064	7.4	0.421513864	0.484686472	0.006301261	0.065008945	0.020036388
2019-08-25T02:55:00	0.1863	14.055	7.7	0.423161409	0.487434495	0.006353489	0.065547773	0.020202460
2019-08-25T03:00:00	0.1846	14.047	7.7	0.418489004	0.479660695	0.006206053	0.064026704	0.019733652
2019-08-25T03:05:00	0.1860	14.039	8.0	0.422337846	0.486059893	0.006327349	0.065278089	0.020119341
2019-08-25T03:10:00	0.1875	14.033	8.3	0.426451505	0.492944706	0.006458574	0.066631914	0.020536603
2019-08-25T03:15:00	0.1882	14.026	8.4	0.428367674	0.496167719	0.006520260	0.067268325	0.020732751
2019-08-25T03:20:00	0.1874	14.019	8.4	0.426177583	0.492484800	0.006449785	0.066541238	0.020508656
2019-08-25T03:25:00	0.1867	14.012	10.1	0.424258845	0.489269133	0.006388424	0.065908192	0.020313545
2019-08-25T03:30:00	0.1872	14.006	7.3	0.425629602	0.491565382	0.006432224	0.066360068	0.020452817
2019-08-25T03:35:00	0.1892	13.999	8.6	0.431101189	0.500783172	0.006608880	0.068182594	0.021014538
2019-08-25T03:40:00	0.1889	13.993	9.7	0.430281611	0.499397159	0.006582233	0.067907682	0.020929807
2019-08-25T03:45:00	0.1890	13.986	9.6	0.430554849	0.499859032	0.006591109	0.067999259	0.020958032
2019-08-25T03:50:00	0.1884	13.982	9.8	0.428914740	0.497089760	0.006537938	0.067450697	0.020788960
2019-08-25T03:55:00	0.1876	13.976	10.4	0.426725380	0.493404743	0.006467369	0.066722649	0.020564568
2019-08-25T04:00:00	0.1876	13.971	10.9	0.426725380	0.493404743	0.006467369	0.066722649	0.020564568
2019-08-25T04:05:00	0.1898	13.968	10.9	0.432932269	0.503886520	0.006668651	0.068799248	0.021204596
2019-08-25T04:10:00	0.1891	13.963	10.6	0.430941619	0.500513171	0.006603686	0.068129016	0.020998024
2019-08-25T04:15:00	0.1878	13.956	11.3	0.427306854	0.494382151	0.006486065	0.066915542	0.020624020
2019-08-25T04:20:00	0.1888	13.950	10.7	0.429962296	0.498857662	0.006571869	0.067800757	0.020896852
2019-08-25T04:25:00	0.1879	13.946	10.9	0.427694388	0.495034084	0.006498545	0.067044288	0.020663701
2019-08-25T04:30:00	0.1886	13.943	10.4	0.429529253	0.498126469	0.006557829	0.067655913	0.020852210
2019-08-25T04:35:00	0.1880	13.942	11.6	0.427808182	0.495225594	0.006502212	0.067082121	0.020675361
2019-08-25T04:40:00	0.1870	13.937	10.4	0.425263217	0.490951116	0.006420499	0.066239103	0.020415535
2019-08-25T04:45:00	0.1885	13.937	9.5	0.429289663	0.497722146	0.006550069	0.067575857	0.020827536
2019-08-25T04:50:00	0.1886	13.935	9.9	0.429483208	0.498048753	0.006556337	0.067640524	0.020847466
2019-08-25T04:55:00	0.1905	13.935	9.6	0.434589916	0.506703987	0.006723046	0.069360423	0.021377556
2019-08-25T05:00:00	0.1895	13.934	10.8	0.432055413	0.502399243	0.006639987	0.068503525	0.021113452
2019-08-25T05:05:00	0.1908	13.936	10.0	0.435520631	0.508289263	0.006753705	0.069676726	0.021475044
2019-08-25T05:10:00	0.1881	13.933	10.0	0.428069589	0.495665668	0.006510641	0.067169080	0.020702163
2019-08-25T05:15:00	0.1892	13.933	10.3	0.431270086	0.501069030	0.006614379	0.068239331	0.021032025
2019-08-25T05:20:00	0.1903	13.934	11.2	0.434191801	0.506026620	0.006709957	0.069225392	0.021335938
2019-08-25T05:25:00	0.1928	13.936	11.8	0.440914010	0.517523383	0.006933053	0.071527035	0.022045327
2019-08-25T05:30:00	0.1909	13.938	11.1	0.435939928	0.509004236	0.006767545	0.069819512	0.021519052
2019-08-25T05:35:00	0.1906	13.941	10.7	0.435043148	0.507475671	0.006737965	0.069514344	0.021424996
2019-08-25T05:40:00	0.1910	13.945	8.6	0.436053156	0.509197393	0.006771285	0.069858101	0.021530945
2019-08-25T05:45:00	0.1929	13.949	8.4	0.441156028	0.517911714	0.006940795	0.071606898	0.022069941
2019-08-25T05:50:00	0.1920	13.954	7.8	0.438887087	0.514043506	0.006865314	0.070828176	0.021829932
2019-08-25T05:55:00	0.1927	13.960	7.1	0.440709640	0.517171995	0.006926205	0.071456380	0.022023550
2019-08-25T06:00:00	0.1918	13.968	7.4	0.438184422	0.512839833	0.006841926	0.070586885	0.021755564
2019-08-25T06:05:00	0.1912	13.977	7.1	0.436744539	0.510377612	0.006794152	0.070094012	0.021603655
2019-08-25T06:10:00	0.1902	13.980	7.3	0.433940687	0.505599594	0.006701710	0.069140303	0.021309713
2019-08-25T06:15:00	0.1916	13.989	7.6	0.437674053	0.511966432	0.006824969	0.070411944	0.021701645
2019-08-25T06:20:00	0.1898	14.006	7.9	0.432690298	0.503475888	0.006660734	0.068717565	0.021179421
2019-08-25T06:25:00	0.1902	14.017	7.2	0.433974410	0.505656931	0.006702817	0.069151726	0.021313234
2019-08-25T06:30:00	0.1912	14.037	8.0	0.436619180	0.510163519	0.006790002	0.070051201	0.021590460
2019-08-25T06:35:00	0.1915	14.049	7.8	0.437356157	0.511422780	0.006814420	0.070303111	0.021668102
2019-08-25T06:40:00	0.1909	14.077	8.4	0.435915560	0.508962672	0.006766740	0.069811209	0.021516493
2019-08-25T06:45:00	0.1916	14.088	9.3	0.437741347	0.512081552	0.006827203	0.070434995	0.021708750
2019-08-25T06:50:00	0.1920	14.101	10.2	0.438749725	0.513808094	0.006860738	0.070780967	0.021815381
2019-08-25T06:55:00	0.1907	14.134	9.8	0.435132058	0.507627117	0.006740894	0.069544563	0.021434310
2019-08-25T07:00:00	0.1905	14.157	9.8	0.434779971	0.507027510	0.006729299	0.069424941	0.021397441
2019-08-25T07:05:00	0.1919	14.171	10.2	0.438511462	0.513399884	0.006852805	0.070699126	0.021790157
2019-08-25T07:10:00	0.1927	14.213	10.1	0.440606016	0.516993870	0.006922734	0.071420572	0.022012514
2019-08-25T07:15:00	0.1923	14.260	9.8	0.439711734	0.515457896	0.006892824	0.071111998	0.021917408
2019-08-25T07:20:00	0.1943	14.296	10.7	0.446201955	0.524665049	0.007084813	0.073092715	0.022527885
2019-08-25T07:25:00	0.1944	14.325	10.6	0.446448956	0.524996142	0.007091900	0.073165829	0.022550419
2019-08-25T07:30:00	0.1939	14.360	11.0	0.444951061	0.522989020	0.007048976	0.072722988	0.022413931
2019-08-25T07:35:00	0.1926	14.445	10.1	0.440480945	0.516778920	0.006918546	0.071377366	0.021999197
2019-08-25T07:40:00	0.1937	14.472	9.4	0.444048878	0.521780980	0.007023184	0.072456899	0.022331920
2019-08-25T07:45:00	0.1932	14.493	8.1	0.442200572	0.519308062	0.006970489	0.071913249	0.022164362
2019-08-25T07:50:00	0.1939	14.556	8.9	0.444892270	0.522910278	0.007047294	0.072705634	0.022408582
2019-08-25T07:55:00	0.1920	14.585	7.4	0.438804813	0.513902498	0.006862573	0.070799898	0.021821216
2019-08-25T08:00:00	0.1922	14.669	9.8	0.439269063	0.514698413	0.006878048	0.070959556	0.021870424
2019-08-25T08:05:00	0.1925	14.763	10.5	0.440276523	0.516427689	0.006911705	0.071306784	0.021977443
2019-08-25T08:10:00	0.1908	14.816	9.4	0.435572956	0.508378460	0.006755431	0.069694535	0.021480533
2019-08-25T08:15:00	0.1901	14.874	8.2	0.433585475	0.504995846	0.006690054	0.069020050	0.021272650
2019-08-25T08:20:00	0.1914	14.932	7.6	0.437047509	0.510895214	0.006804187	0.070197543	0.021635565
2019-08-25T08:25:00	0.1921	14.943	7.1	0.439143892	0.514483760	0.006873874	0.070916487	0.021857150
2019-08-25T08:30:00	0.1930	15.071	6.2	0.441631444	0.518547145	0.006954302	0.071746252	0.022112892
2019-08-25T08:35:00	0.1918	15.184	5.0	0.438169390	0.512814098	0.006841426	0.070581729	0.021753974
2019-08-25T08:40:00	0.1907	15.233	4.6	0.435367934	0.508029011	0.006748669	0.069624772	0.021459031
2019-08-25T08:45:00	0.1907	15.271	4.1	0.435288356	0.507893405	0.006746045	0.069597705	0.021450689
2019-08-25T08:50:00	0.1908	15.293	3.4	0.435481201	0.508222053	0.006752404	0.069663308	0.021470908
2019-08-25T08:55:00	0.1905	15.265	3.0	0.434584174	0.506694215	0.006722857	0.069358474	0.021376955
2019-08-25T09:00:00	0.1885	15.523	2.8	0.429317721	0.497769486	0.006550978	0.067585229	0.020830424
2019-08-25T09:05:00	0.1886	15.556	2.0	0.429511262	0.498096103	0.006557246	0.067649900	0.020850356
2019-08-25T09:10:00	0.1899	15.588	1.6	0.432981802	0.503970599	0.006670273	0.068815976	0.021209752
2019-08-25T09:15:00	0.1892	15.764	1.1	0.431264333	0.501059291	0.006614192	0.068237398	0.021031429
2019-08-25T09:20:00	0.1875	15.722	1.0	0.426535109	0.493085116	0.006461258	0.066659604	0.020545137
2019-08-25T09:25:00	0.1879	15.810	0.6	0.427550329	0.494791691	0.006493904	0.066996411	0.020648945
2019-08-25T09:30:00	0.1889	15.748	0.3	0.430478629	0.499730171	0.006588632	0.067973706	0.020950156
2019-08-25T09:35:00	0.1888	15.860	0.0	0.430125552	0.499133454	0.006577166	0.067855411	0.020913697
2019-08-25T09:40:00	0.1909	15.895	0.0	0.435775084	0.508723092	0.006762102	0.069763355	0.021501744
2019-08-25T09:45:00	0.1898	15.903	0.0	0.432696757	0.503486847	0.006660945	0.068719744	0.021180093
2019-08-25T09:50:00	0.1886	15.955	0.0	0.429612700	0.498267328	0.006560533	0.067683810	0.020860808
2019-08-25T09:55:00	0.1880	16.073	0.0	0.427891716	0.495366202	0.006504905	0.067109902	0.020683924
2019-08-25T10:00:00	0.1886	16.067	0.0	0.429452985	0.497997745	0.006555358	0.067630423	0.020844353
2019-08-25T10:05:00	0.1885	16.100	0.0	0.429140850	0.497471095	0.006545252	0.067526162	0.020812219
2019-08-25T10:10:00	0.1888	16.207	0.0	0.430195598	0.499251808	0.006579440	0.067878869	0.020920927
2019-08-25T10:15:00	0.1889	16.208	3.0	0.430430166	0.499648246	0.006587058	0.067957461	0.020945150
2019-08-25T10:20:00	0.1883	16.153	2.7	0.428751210	0.496814053	0.006532650	0.067396150	0.020772148
2019-08-25T10:25:00	0.1865	16.246	2.5	0.423781690	0.488471039	0.006373220	0.065751337	0.020265201
2019-08-25T10:30:00	0.1891	16.416	2.2	0.430860529	0.500375990	0.006601048	0.068101798	0.020989636
2019-08-25T10:35:00	0.1863	16.514	2.0	0.423155192	0.487424111	0.006353291	0.065545735	0.020201832
2019-08-25T10:40:00	0.1872	16.556	1.7	0.425584596	0.491489907	0.006430783	0.066345201	0.020448235
2019-08-25T10:45:00	0.1849	16.578	1.4	0.419505491	0.481346759	0.006237949	0.064355766	0.019835072
2019-08-25T10:50:00	0.1845	16.641	1.3	0.418365858	0.479456624	0.006202196	0.063986908	0.019721386
2019-08-25T10:55:00	0.1856	16.699	1.1	0.421352049	0.484416977	0.006296145	0.064956170	0.020020122
2019-08-25T11:00:00	0.1858	16.713	0.6	0.421862584	0.485267492	0.006312293	0.065122768	0.020071469
2019-08-25T11:05:00	0.1855	16.821	0.5	0.420999453	0.483829998	0.006285007	0.064841262	0.019984707
2019-08-25T11:10:00	0.1836	16.925	0.3	0.415730416	0.475099346	0.006119993	0.063138842	0.019460004
2019-08-25T11:15:00	0.1850	16.931	0.2	0.419546896	0.481415499	0.006239250	0.064369192	0.019839210
2019-08-25T11:20:00	0.1839	16.971	0.0	0.416754890	0.476790872	0.006151868	0.063467693	0.019561359
2019-08-25T11:25:00	0.1826	17.156	0.0	0.413129734	0.470818293	0.006039527	0.062308688	0.019204143
2019-08-25T11:30:00	0.1831	17.173	0.0	0.414470906	0.473023707	0.006080943	0.062735965	0.019335834
2019-08-25T11:35:00	0.1836	17.273	0.0	0.415810953	0.475232217	0.006122495	0.063164656	0.019467960
2019-08-25T11:40:00	0.1823	17.304	0.0	0.412183654	0.469265541	0.006010415	0.062008347	0.019111575
2019-08-25T11:45:00	0.1816	17.306	0.0	0.410208987	0.466032548	0.005949927	0.061384305	0.018919239
2019-08-25T11:50:00	0.1815	17.361	0.0	0.409893110	0.465516375	0.005940286	0.061284835	0.018888581
2019-08-25T11:55:00	0.1817	17.457	0.0	0.410683923	0.466809152	0.005964442	0.061534047	0.018965391
2019-08-25T12:00:00	0.1816	17.508	0.0	0.410368140	0.466292722	0.005954789	0.061434459	0.018934697
2019-08-25T12:05:00	0.1826	17.611	0.0	0.413093105	0.470758131	0.006038398	0.062297044	0.019200554
2019-08-25T12:10:00	0.1816	17.688	0.0	0.410289804	0.466164653	0.005952396	0.061409770	0.018927087
2019-08-25T12:15:00	0.1789	17.751	0.0	0.402762870	0.453937645	0.005725162	0.059065443	0.018204543
2019-08-25T12:20:00	0.1799	17.673	0.0	0.405500986	0.458367590	0.005807205	0.059911863	0.018465418
2019-08-25T12:25:00	0.1807	17.642	0.0	0.407680199	0.461907953	0.005873007	0.060590727	0.018674651
2019-08-25T12:30:00	0.1816	17.610	0.0	0.410409783	0.466360808	0.005956061	0.061447586	0.018938743
2019-08-25T12:35:00	0.1798	17.531	0.0	0.405383116	0.458176469	0.005803659	0.059875276	0.018454142
2019-08-25T12:40:00	0.1822	17.571	0.0	0.411990501	0.468948833	0.006004482	0.061947137	0.019092709
2019-08-25T12:45:00	0.1796	17.758	0.0	0.404749361	0.457149510	0.005784614	0.059678791	0.018393583
2019-08-25T12:50:00	0.1796	17.859	0.0	0.404710053	0.457085851	0.005783434	0.059666617	0.018389831
2019-08-25T12:55:00	0.1784	17.973	0.0	0.401335413	0.451636310	0.005682671	0.058627065	0.018069431
2019-08-25T13:00:00	0.1793	17.900	0.0	0.403798248	0.455610354	0.005756102	0.059384648	0.018302925
2019-08-25T13:05:00	0.1779	17.929	0.0	0.400143205	0.449718502	0.005647328	0.058262444	0.017957051
2019-08-25T13:10:00	0.1796	17.843	0.3	0.404830457	0.457280860	0.005787048	0.059703912	0.018401326
2019-08-25T13:15:00	0.1781	17.842	0.0	0.400621194	0.450486939	0.005661482	0.058408466	0.018002056
2019-08-25T13:20:00	0.1779	17.981	0.1	0.400024931	0.449528455	0.005643829	0.058226346	0.017945925
2019-08-25T13:25:00	0.1774	18.040	0.2	0.398592465	0.447229748	0.005601556	0.057790225	0.017811509
2019-08-25T13:30:00	0.1765	18.073	0.0	0.396042307	0.443151277	0.005526774	0.057018708	0.017573720
2019-08-25T13:35:00	0.1758	18.181	0.0	0.394047136	0.439972723	0.005468688	0.056419450	0.017389022
2019-08-25T13:40:00	0.1763	18.147	0.0	0.395684016	0.442579680	0.005516316	0.056910813	0.017540465
2019-08-25T13:45:00	0.1775	18.019	0.0	0.398992029	0.447870374	0.005613328	0.057911675	0.017848941
2019-08-25T13:50:00	0.1767	17.953	0.0	0.396721625	0.444235983	0.005546635	0.057223616	0.017636874
2019-08-25T13:55:00	0.1763	17.967	0.0	0.395565401	0.442390524	0.005512856	0.056875120	0.017529464
2019-08-25T14:00:00	0.1741	18.031	0.0	0.389369224	0.432562554	0.005333946	0.055029341	0.016960577
2019-08-25T14:05:00	0.1749	18.088	0.0	0.391571224	0.436043305	0.005397120	0.055681097	0.017161455
2019-08-25T14:10:00	0.1741	18.091	0.0	0.389289821	0.432437285	0.005331677	0.055005926	0.016953360
2019-08-25T14:15:00	0.1725	18.110	0.0	0.385037780	0.425753988	0.005210982	0.053760744	0.016569583
2019-08-25T14:20:00	0.1727	18.219	0.0	0.385560303	0.426572652	0.005225725	0.053912838	0.016616460
2019-08-25T14:25:00	0.1734	18.282	0.0	0.387487090	0.429597817	0.005280303	0.054475915	0.016790006
2019-08-25T14:30:00	0.1733	18.263	0.0	0.387166547	0.429093852	0.005271200	0.054381997	0.016761060
2019-08-25T14:35:00	0.1740	18.412	0.0	0.389091296	0.432124160	0.005326005	0.054947407	0.016935325
2019-08-25T14:40:00	0.1733	18.288	0.0	0.387087030	0.428968875	0.005268943	0.054358714	0.016753884
2019-08-25T14:45:00	0.1746	18.302	0.0	0.390693813	0.434654790	0.005371894	0.055420844	0.017081242
2019-08-25T14:50:00	0.1750	18.270	0.0	0.392054381	0.436808799	0.005411042	0.055824721	0.017205721
2019-08-25T14:55:00	0.1747	18.279	0.0	0.391174742	0.435415608	0.005385713	0.055563404	0.017125181
2019-08-25T15:00:00	0.1737	18.273	0.0	0.388331643	0.430926973	0.005304334	0.054723833	0.016866417
2019-08-25T15:05:00	0.1749	18.208	0.0	0.391655519	0.436176813	0.005399548	0.055706138	0.017169173
2019-08-25T15:10:00	0.1750	18.252	0.0	0.391895851	0.436557560	0.005406472	0.055777572	0.017191189
2019-08-25T15:15:00	0.1755	18.430	0.0	0.393255350	0.438714305	0.005445740	0.056182691	0.017316051
2019-08-25T15:20:00	0.1776	18.395	0.0	0.399078412	0.448008930	0.005615875	0.057937952	0.017857039
2019-08-25T15:25:00	0.1753	18.422	0.0	0.392616620	0.437700382	0.005427269	0.055992135	0.017257320
2019-08-25T15:30:00	0.1768	18.331	0.0	0.397047662	0.444757031	0.005556183	0.057322118	0.017667234
2019-08-25T15:35:00	0.1760	18.234	0.0	0.394774396	0.441130087	0.005489818	0.056637444	0.017456210
2019-08-25T15:40:00	0.1743	18.183	0.0	0.389977153	0.433522210	0.005351343	0.055208817	0.017015894
2019-08-25T15:45:00	0.1740	18.204	0.0	0.389096315	0.432132075	0.005326148	0.054948886	0.016935780
2019-08-25T15:50:00	0.1725	18.208	0.0	0.384843730	0.425450148	0.005205514	0.053704326	0.016552195
2019-08-25T15:55:00	0.1722	18.272	0.0	0.383959903	0.424067547	0.005180650	0.053447812	0.016473135
2019-08-25T16:00:00	0.1734	18.169	0.0	0.387293354	0.429293188	0.005274800	0.054419140	0.016772507
2019-08-25T16:05:00	0.1745	18.166	0.0	0.390500486	0.434349126	0.005366346	0.055363599	0.017063599
2019-08-25T16:10:00	0.1738	18.301	0.0	0.388659471	0.431443426	0.005313679	0.054820249	0.016896133
2019-08-25T16:15:00	0.1744	18.189	0.0	0.390183086	0.433847515	0.005357243	0.055269693	0.017034656
2019-08-25T16:20:00	0.1726	18.025	0.0	0.385251932	0.426089422	0.005217021	0.053823047	0.016588786
2019-08-25T16:25:00	0.1721	17.975	0.0	0.383686018	0.423639526	0.005172960	0.053368472	0.016448681
2019-08-25T16:30:00	0.1737	18.109	0.0	0.388304470	0.430884177	0.005303560	0.054715846	0.016863955
2019-08-25T16:35:00	0.1750	17.954	0.0	0.391789467	0.436389003	0.005403406	0.055745945	0.017181442
2019-08-25T16:40:00	0.1744	17.897	0.0	0.390230287	0.433922094	0.005358596	0.055283652	0.017038958
2019-08-25T16:45:00	0.1731	17.910	0.0	0.386704458	0.428367832	0.005258093	0.054246778	0.016719384
2019-08-25T16:50:00	0.1749	17.923	0.0	0.391593773	0.436079017	0.005397770	0.055687795	0.017163519
2019-08-25T16:55:00	0.1763	17.794	0.0	0.395629929	0.442493422	0.005514738	0.056894535	0.017535448
2019-08-25T17:00:00	0.1765	17.749	0.0	0.396030258	0.443132051	0.005526422	0.057015078	0.017572601
2019-08-25T17:05:00	0.1764	17.600	0.0	0.395872138	0.442879755	0.005521805	0.056967448	0.017557921
2019-08-25T17:10:00	0.1782	17.555	0.0	0.400732393	0.450665796	0.005664778	0.058442467	0.018012536
2019-08-25T17:15:00	0.1794	17.499	0.0	0.404189464	0.456243147	0.005767819	0.059505530	0.018340182
2019-08-25T17:20:00	0.1803	17.423	0.0	0.406807331	0.460488325	0.005846596	0.060318257	0.018590673
2019-08-25T17:25:00	0.1812	17.362	0.0	0.409144016	0.464293382	0.005917459	0.061049336	0.018815998
2019-08-25T17:30:00	0.1820	17.295	0.0	0.411477255	0.468107770	0.005988734	0.061784668	0.019042635
2019-08-25T17:35:00	0.1814	17.188	0.0	0.409660933	0.465137152	0.005933205	0.061211785	0.018866066
2019-08-25T17:40:00	0.1822	17.160	0.0	0.411993412	0.468953605	0.006004572	0.061948059	0.019092994
2019-08-25T17:45:00	0.1843	17.079	0.0	0.417630587	0.478239045	0.006179195	0.063749611	0.019648249
2019-08-25T17:50:00	0.1841	16.993	0.0	0.417199178	0.477525345	0.006165723	0.063610631	0.019605414
2019-08-25T17:55:00	0.1870	16.946	0.0	0.425286874	0.490990765	0.006421256	0.066246909	0.020417941
2019-08-25T18:00:00	0.1869	16.874	0.0	0.424857500	0.490271339	0.006407530	0.066105310	0.020374298
2019-08-25T18:05:00	0.1878	16.802	0.0	0.427441850	0.494609202	0.006490411	0.066960373	0.020637837
2019-08-25T18:10:00	0.1872	16.757	0.0	0.425643445	0.491588598	0.006432667	0.066364641	0.020454227
2019-08-25T18:15:00	0.1861	16.707	0.0	0.422745342	0.486739807	0.006340274	0.065411443	0.020160442
2019-08-25T18:20:00	0.1888	16.676	0.0	0.429985885	0.498897506	0.006572634	0.067808652	0.020899285
2019-08-25T18:25:00	0.1877	16.638	0.0	0.427095469	0.494026723	0.006479265	0.066845380	0.020602395
2019-08-25T18:30:00	0.1891	16.596	0.0	0.430769378	0.500221811	0.006598084	0.068071212	0.020980209
2019-08-25T18:35:00	0.1884	16.555	0.0	0.428974616	0.497190727	0.006539874	0.067470676	0.020795118
2019-08-25T18:40:00	0.1910	16.544	0.0	0.436187872	0.509427254	0.006775737	0.069904030	0.021545101
2019-08-25T18:45:00	0.1910	16.538	0.0	0.436033663	0.509164138	0.006770641	0.069851456	0.021528897
2019-08-25T18:50:00	0.1924	16.505	0.0	0.439959551	0.515883309	0.006901105	0.071197425	0.021943738
2019-08-25T18:55:00	0.1924	16.486	0.0	0.439805689	0.515619163	0.006895963	0.071144379	0.021927388
2019-08-25T19:00:00	0.1912	16.455	0.0	0.436660155	0.510233494	0.006791358	0.070065192	0.021594773
2019-08-25T19:05:00	0.1938	16.397	0.0	0.444284095	0.522095879	0.007029904	0.072526228	0.022353288
2019-08-25T19:10:00	0.1947	16.343	0.0	0.447576116	0.526507656	0.007124285	0.073499932	0.022653393
2019-08-25T19:15:00	0.1947	16.297	0.0	0.447727378	0.526710574	0.007128636	0.073544825	0.022667229
2019-08-25T19:20:00	0.1946	16.265	0.0	0.447181039	0.525977746	0.007112926	0.073382742	0.022617274
2019-08-25T19:25:00	0.1950	16.220	0.0	0.448727302	0.528052422	0.007157434	0.073841926	0.022758799
2019-08-25T19:30:00	0.1940	16.190	0.0	0.445041084	0.523109597	0.007051552	0.072749565	0.022422123
2019-08-25T19:35:00	0.1929	16.176	0.0	0.441350802	0.518172022	0.006946327	0.071663974	0.022087533
2019-08-25T19:40:00	0.1953	16.144	0.0	0.449529521	0.529129529	0.007180579	0.074080708	0.022832394
2019-08-25T19:45:00	0.1947	16.113	0.0	0.447588599	0.526524402	0.007124644	0.073503637	0.022654535
2019-08-25T19:50:00	0.1948	16.104	0.0	0.448088619	0.527195250	0.007139033	0.073652090	0.022700290
2019-08-25T19:55:00	0.1940	16.075	0.0	0.445099873	0.523188343	0.007053235	0.072766924	0.022427473
2019-08-25T20:00:00	0.1939	16.064	0.0	0.444902194	0.522923569	0.007047578	0.072708563	0.022409485
2019-08-25T20:05:00	0.1940	16.031	0.0	0.445053577	0.523126331	0.007051910	0.072753254	0.022423259
2019-08-25T20:10:00	0.1923	16.025	0.0	0.439671264	0.515388439	0.006891473	0.071098053	0.021913110
2019-08-25T20:15:00	0.1925	16.004	0.0	0.440060784	0.516057140	0.006904489	0.071232341	0.021954499
2019-08-25T20:20:00	0.1923	15.981	0.0	0.439635225	0.515326590	0.006890269	0.071085636	0.021909283
2019-08-25T20:25:00	0.1929	15.944	0.0	0.441119059	0.517862309	0.006939745	0.071596067	0.022066603
2019-08-25T20:30:00	0.1935	15.924	0.0	0.443366662	0.520867905	0.007003712	0.072256003	0.022270002
2019-08-25T20:35:00	0.1931	15.911	0.0	0.442120959	0.519201605	0.006968223	0.071889877	0.022157158
2019-08-25T20:40:00	0.1940	15.882	0.0	0.445066070	0.523143065	0.007052267	0.072756943	0.022424396
2019-08-25T20:45:00	0.1925	15.851	0.0	0.440224345	0.516338056	0.006909959	0.071288775	0.021971893
2019-08-25T20:50:00	0.1915	15.816	0.0	0.437351719	0.511415192	0.006814272	0.070301592	0.021667634
2019-08-25T20:55:00	0.1920	15.794	0.0	0.438829570	0.513944926	0.006863397	0.070808406	0.021823838
2019-08-25T21:00:00	0.1924	15.770	0.0	0.439762790	0.515545526	0.006894530	0.071129592	0.021922831
2019-08-25T21:05:00	0.1912	15.755	0.0	0.436617176	0.510160097	0.006789936	0.070050517	0.021590250
2019-08-25T21:10:00	0.1934	15.732	0.0	0.443181381	0.520619989	0.006998428	0.072201489	0.022253200
2019-08-25T21:15:00	0.1936	15.715	0.0	0.443682059	0.521289986	0.007012711	0.072348846	0.022298617
2019-08-25T21:20:00	0.1927	15.709	0.0	0.440777243	0.517288217	0.006928470	0.071479747	0.022030752
2019-08-25T21:25:00	0.1951	15.707	0.0	0.448869706	0.528243585	0.007161540	0.073884285	0.022771854
2019-08-25T21:30:00	0.1920	15.699	0.0	0.438839300	0.513961602	0.006863722	0.070811750	0.021824869
2019-08-25T21:35:00	0.1941	15.688	0.0	0.445335016	0.523503337	0.007059967	0.072836376	0.022448878
2019-08-25T21:40:00	0.1935	15.651	0.0	0.443391661	0.520901357	0.007004425	0.072263359	0.022272269
2019-08-25T21:45:00	0.1931	15.645	0.0	0.442145967	0.519235044	0.006968935	0.071897218	0.022159421
2019-08-25T21:50:00	0.1932	15.638	0.0	0.442297475	0.519437646	0.006973247	0.071941702	0.022173131
2019-08-25T21:55:00	0.1949	15.623	0.0	0.448382284	0.527589336	0.007147491	0.073739346	0.022727183
2019-08-25T22:00:00	0.1932	15.600	0.0	0.442251141	0.519375684	0.006971928	0.071928096	0.022168938
2019-08-25T22:05:00	0.1924	15.580	0.0	0.439779808	0.515574737	0.006895098	0.071135458	0.021924639
2019-08-25T22:10:00	0.1916	15.565	0.0	0.437838278	0.512247393	0.006830422	0.070468207	0.021718986
2019-08-25T22:15:00	0.1942	15.529	0.0	0.445943553	0.524318724	0.007077403	0.073016264	0.022504322
2019-08-25T22:20:00	0.1920	15.513	0.0	0.438849030	0.513978278	0.006864046	0.070815094	0.021825900
2019-08-25T22:25:00	0.1926	15.499	0.0	0.440440924	0.516710148	0.006917207	0.071363545	0.021994937
2019-08-25T22:30:00	0.1949	15.482	0.0	0.448237291	0.527394754	0.007143314	0.073696259	0.022713903
2019-08-25T22:35:00	0.1908	15.467	0.0	0.435467872	0.508199335	0.006751964	0.069658773	0.021469510
2019-08-25T22:40:00	0.1926	15.447	0.0	0.440325562	0.516511935	0.006913346	0.071323712	0.021982661
2019-08-25T22:45:00	0.1916	15.435	0.0	0.437840712	0.512251557	0.006830503	0.070469041	0.021719243
2019-08-25T22:50:00	0.1883	15.419	0.0	0.428801023	0.496898030	0.006534261	0.067412763	0.020777268
2019-08-25T22:55:00	0.1892	15.410	0.0	0.431222079	0.500987770	0.006612816	0.068223201	0.021027053
2019-08-25T23:00:00	0.1899	15.393	0.0	0.433094088	0.504161223	0.006673950	0.068853907	0.021221443
2019-08-25T23:05:00	0.1906	15.380	0.0	0.434963987	0.507340847	0.006735358	0.069487445	0.021416705
2019-08-25T23:10:00	0.1899	15.365	0.0	0.433016842	0.504030082	0.006671420	0.068827812	0.021213400
2019-08-25T23:15:00	0.1883	15.356	0.0	0.428607398	0.496571654	0.006528003	0.067348203	0.020757370
2019-08-25T23:20:00	0.1895	15.349	0.0	0.432120925	0.502510287	0.006642126	0.068525593	0.021120253
2019-08-25T23:25:00	0.1894	15.340	0.0	0.431809294	0.501982174	0.006631955	0.068420661	0.021087912
2019-08-25T23:30:00	0.1882	15.327	0.0	0.428491212	0.496375861	0.006524250	0.067309481	0.020745436
2019-08-25T23:35:00	0.1896	15.314	0.0	0.432277940	0.502776478	0.006647255	0.068578500	0.021136560
2019-08-25T23:40:00	0.1880	15.301	0.0	0.427866517	0.495323784	0.006504092	0.067101521	0.020681340
2019-08-25T23:45:00	0.1852	15.292	0.0	0.420147010	0.482412327	0.006258130	0.064563970	0.019899243
2019-08-25T23:50:00	0.1856	15.280	0.0	0.421207583	0.484176439	0.006291580	0.064909075	0.020005607
2019-08-25T23:55:00	0.1870	15.271	0.0	0.425285290	0.490988112	0.006421205	0.066246387	0.020417780
2019-08-26T00:00:00	0.1845	15.256	0.0	0.418379482	0.479479199	0.006202622	0.063991310	0.019722743
2019-08-26T00:05:00	0.1861	15.241	0.0	0.422738844	0.486728960	0.006340068	0.065409315	0.020159786
2019-08-26T00:10:00	0.1858	15.223	0.0	0.421876179	0.485290151	0.006312724	0.065127208	0.020072838
2019-08-26T00:15:00	0.1849	15.201	0.0	0.419363322	0.481110770	0.006233482	0.064309681	0.019820868
2019-08-26T00:20:00	0.1841	15.180	0.0	0.417122050	0.477397801	0.006163317	0.063585803	0.019597762
2019-08-26T00:25:00	0.1839	15.156	0.0	0.416531981	0.476422578	0.006144924	0.063396052	0.019539279
2019-08-26T00:30:00	0.1831	15.134	0.0	0.414562694	0.473174824	0.006083783	0.062765273	0.019344867
2019-08-26T00:35:00	0.1847	15.107	0.0	0.418932378	0.480395776	0.006219953	0.064170109	0.019777851
2019-08-26T00:40:00	0.1829	15.076	0.0	0.413932603	0.472137930	0.006064299	0.062564257	0.019282912
2019-08-26T00:45:00	0.1842	15.048	0.0	0.417477958	0.477986486	0.006174427	0.063700420	0.019633088
2019-08-26T00:50:00	0.1842	15.025	0.0	0.417438964	0.477921971	0.006173209	0.063687856	0.019629216
2019-08-26T00:55:00	0.1837	15.009	0.0	0.416022222	0.475580857	0.006129062	0.063232404	0.019488841
2019-08-26T01:00:00	0.1825	14.992	0.0	0.412671673	0.470066195	0.006025422	0.062163163	0.019159291
2019-08-26T01:05:00	0.1841	14.975	0.0	0.417046509	0.477272899	0.006160960	0.063561492	0.019590269
2019-08-26T01:10:00	0.1845	14.953	0.0	0.418384408	0.479487362	0.006202777	0.063992902	0.019723234
2019-08-26T01:15:00	0.1849	14.927	0.0	0.419446139	0.481248232	0.006236084	0.064336524	0.019829142
2019-08-26T01:20:00	0.1833	14.904	0.0	0.414999749	0.473894693	0.006097321	0.062904934	0.019387912
2019-08-26T01:25:00	0.1851	14.885	0.0	0.419918342	0.482032376	0.006250932	0.064489709	0.019876355
2019-08-26T01:30:00	0.1855	14.863	0.0	0.420979065	0.483796068	0.006284364	0.064834621	0.019982660
2019-08-26T01:35:00	0.1838	14.846	0.0	0.416261310	0.475975552	0.006136499	0.063309127	0.019512488
2019-08-26T01:40:00	0.1843	14.836	0.0	0.417599862	0.478188200	0.006178235	0.063739707	0.019645197
2019-08-26T01:45:00	0.1846	14.829	0.0	0.418662110	0.479947627	0.006211478	0.064082670	0.019750901
2019-08-26T01:50:00	0.1836	14.819	0.0	0.415868566	0.475327279	0.006124286	0.063183127	0.019473653
2019-08-26T01:55:00	0.1833	14.805	0.0	0.415002217	0.473898760	0.006097397	0.062905724	0.019388155
2019-08-26T02:00:00	0.1839	14.775	0.0	0.416617409	0.476563708	0.006147585	0.063423502	0.019547739
2019-08-26T02:05:00	0.1827	14.754	0.0	0.413268109	0.471045607	0.006043792	0.062352691	0.019217705
2019-08-26T02:10:00	0.1809	14.747	0.0	0.408250527	0.462836658	0.005890302	0.060769160	0.018729645
2019-08-26T02:15:00	0.1824	14.738	0.0	0.412361229	0.469556799	0.006015873	0.062064653	0.019128929
2019-08-26T02:20:00	0.1848	14.718	0.0	0.419214909	0.480864474	0.006228820	0.064261593	0.019806047
2019-08-26T02:25:00	0.1841	14.715	0.0	0.417248910	0.477607593	0.006167275	0.063626643	0.019610349
2019-08-26T02:30:00	0.1848	14.694	0.0	0.419137004	0.480735214	0.006226375	0.064236359	0.019798270
2019-08-26T02:35:00	0.1849	14.670	0.0	0.419373168	0.481127111	0.006233791	0.064312872	0.019821852
2019-08-26T02:40:00	0.1845	14.662	0.0	0.418233441	0.479237238	0.006198049	0.063944133	0.019708203
2019-08-26T02:45:00	0.1849	14.640	0.0	0.419295271	0.480997830	0.006231344	0.064287629	0.019814071
2019-08-26T02:50:00	0.1863	14.616	0.0	0.423103341	0.487337512	0.006351644	0.065528736	0.020196593
2019-08-26T02:55:00	0.1846	14.608	0.0	0.418667035	0.479955792	0.006211632	0.064084263	0.019751392
2019-08-26T03:00:00	0.1852	14.598	0.0	0.420278553	0.482630961	0.006262273	0.064606713	0.019912416
2019-08-26T03:05:00	0.1845	14.575	0.0	0.418313853	0.479370457	0.006200567	0.063970107	0.019716208
2019-08-26T03:10:00	0.1864	14.558	0.0	0.423496784	0.487994804	0.006364153	0.065657789	0.020236368
2019-08-26T03:15:00	0.1845	14.534	0.0	0.418235904	0.479241318	0.006198127	0.063944929	0.019708448
2019-08-26T03:20:00	0.1861	14.515	0.0	0.422595652	0.486489994	0.006335524	0.065362438	0.020145338
2019-08-26T03:25:00	0.1844	14.503	0.0	0.417882627	0.478656246	0.006187073	0.063830893	0.019673301
2019-08-26T03:30:00	0.1856	14.490	0.0	0.421419297	0.484528967	0.006298271	0.064978099	0.020026881
2019-08-26T03:35:00	0.1846	14.471	0.0	0.418630533	0.479895280	0.006210488	0.064072459	0.019747754
2019-08-26T03:40:00	0.1845	14.461	0.0	0.418316316	0.479374538	0.006200644	0.063970902	0.019716453
2019-08-26T03:45:00	0.1837	14.442	0.0	0.416073583	0.475665632	0.006130659	0.063248881	0.019493919
2019-08-26T03:50:00	0.1848	14.425	0.0	0.419064020	0.480614133	0.006224084	0.064212725	0.019790985
2019-08-26T03:55:00	0.1855	14.410	0.0	0.420949992	0.483747686	0.006283446	0.064825153	0.019979742
2019-08-26T04:00:00	0.1848	14.401	0.0	0.418986108	0.480484893	0.006221639	0.064187501	0.019783211
2019-08-26T04:05:00	0.1841	14.397	0.0	0.417173375	0.477482674	0.006164918	0.063602324	0.019602854
2019-08-26T04:10:00	0.1847	14.380	0.0	0.418939764	0.480408027	0.006220185	0.064172500	0.019778588
2019-08-26T04:15:00	0.1848	14.362	0.0	0.419054172	0.480597797	0.006223775	0.064209536	0.019790003
2019-08-26T04:20:00	0.1865	14.358	0.0	0.423839020	0.488566895	0.006375046	0.065770171	0.020271006
2019-08-26T04:25:00	0.1873	14.357	0.0	0.425872179	0.491972282	0.006439994	0.066440230	0.020477524
2019-08-26T04:30:00	0.1885	14.365	0.0	0.429270524	0.497689854	0.006549450	0.067569465	0.020825565
2019-08-26T04:35:00	0.1874	14.366	0.0	0.426373946	0.492814467	0.006456084	0.066606232	0.020528688
2019-08-26T04:40:00	0.1893	14.357	0.0	0.431410510	0.501306760	0.006618954	0.068286526	0.021046571
2019-08-26T04:45:00	0.1878	14.353	0.0	0.427423124	0.494577703	0.006489808	0.066954153	0.020635920
2019-08-26T04:50:00	0.1890	14.354	0.0	0.430545070	0.499842499	0.006590791	0.067995980	0.020957021
2019-08-26T04:55:00	0.1927	14.351	0.0	0.440736368	0.517217944	0.006927100	0.071465618	0.022026398
2019-08-26T05:00:00	0.1911	14.349	0.0	0.436226853	0.509493777	0.006777026	0.069917323	0.021549198
2019-08-26T05:05:00	0.1903	14.340	0.0	0.434160522	0.505973419	0.006708930	0.069214789	0.021332670
2019-08-26T05:10:00	0.1909	14.345	0.0	0.435908682	0.508950939	0.006766513	0.069808865	0.021515770
2019-08-26T05:15:00	0.1922	14.357	0.0	0.439286517	0.514728349	0.006878630	0.070965562	0.021872276
2019-08-26T05:20:00	0.1909	14.370	0.0	0.435862814	0.508872707	0.006764998	0.069793238	0.021510954
2019-08-26T05:25:00	0.1903	14.376	0.0	0.434068688	0.505817242	0.006705913	0.069183667	0.021323078
2019-08-26T05:30:00	0.1913	14.382	0.0	0.436905988	0.510653404	0.006799498	0.070149171	0.021620656
2019-08-26T05:35:00	0.1922	14.381	0.0	0.439466743	0.515037502	0.006884644	0.071027606	0.021891398
2019-08-26T05:40:00	0.1929	14.379	0.0	0.441245599	0.518031419	0.006943338	0.071633143	0.022078030
2019-08-26T05:45:00	0.1937	14.375	0.0	0.444185233	0.521963521	0.007027080	0.072497085	0.022344306
2019-08-26T05:50:00	0.1945	14.373	0.0	0.446773428	0.525431154	0.007101215	0.073261930	0.022580038
2019-08-26T05:55:00	0.1932	14.379	0.0	0.442380210	0.519548289	0.006975602	0.071965999	0.022180620
2019-08-26T06:00:00	0.1943	14.390	0.0	0.446016831	0.524416930	0.007079504	0.073037940	0.022511002
2019-08-26T06:05:00	0.1951	14.399	0.0	0.448952279	0.528354438	0.007163921	0.073908852	0.022779426
2019-08-26T06:10:00	0.1940	14.405	0.0	0.445260063	0.523402926	0.007057821	0.072814234	0.022442054
2019-08-26T06:15:00	0.1946	14.412	0.0	0.447149825	0.525935886	0.007112029	0.073373487	0.022614421
2019-08-26T06:20:00	0.1943	14.422	0.0	0.446248235	0.524727080	0.007086141	0.073106411	0.022532106
2019-08-26T06:25:00	0.1932	14.436	0.0	0.442203698	0.519312242	0.006970578	0.071914167	0.022164645
2019-08-26T06:30:00	0.1940	14.459	0.0	0.445142491	0.523245430	0.007054455	0.072779509	0.022431352
2019-08-26T06:35:00	0.1946	14.484	0.0	0.447381151	0.526246138	0.007118678	0.073442089	0.022635565
2019-08-26T06:40:00	0.1934	14.513	0.0	0.442988731	0.520362242	0.006992936	0.072144829	0.022235737
2019-08-26T06:45:00	0.1919	14.541	0.0	0.438602620	0.513556044	0.006855839	0.070730431	0.021799806
2019-08-26T06:50:00	0.1913	14.572	0.0	0.436811439	0.510491883	0.006796367	0.070116865	0.021610699
2019-08-26T06:55:00	0.1927	14.605	0.0	0.440730647	0.517208109	0.006926909	0.071463641	0.022025788
2019-08-26T07:00:00	0.1919	14.640	0.0	0.438397969	0.513205496	0.006849028	0.070660163	0.021778148
2019-08-26T07:05:00	0.1931	14.667	0.0	0.441968335	0.518997532	0.006963881	0.071845081	0.022143352
2019-08-26T07:10:00	0.1941	14.673	0.0	0.445605403	0.523865596	0.007067712	0.072916277	0.022473505
2019-08-26T07:15:00	0.1917	14.698	0.0	0.437921308	0.512389473	0.006833180	0.070496663	0.021727756
2019-08-26T07:20:00	0.1927	14.741	0.0	0.440752085	0.517244964	0.006927627	0.071471051	0.022028072
2019-08-26T07:25:00	0.1921	14.806	0.0	0.438963200	0.514173971	0.006867850	0.070854343	0.021837997
2019-08-26T07:30:00	0.1912	14.866	0.0	0.436628059	0.510178682	0.006790296	0.070054233	0.021591395
2019-08-26T07:35:00	0.1927	14.923	0.1	0.440819255	0.517360451	0.006929878	0.071494271	0.022035229
2019-08-26T07:40:00	0.1925	14.992	0.1	0.440117398	0.516154367	0.006906382	0.071251872	0.021960519
2019-08-26T07:45:00	0.1898	15.093	0.1	0.432880139	0.503798039	0.006666945	0.068781645	0.021199171
2019-08-26T07:50:00	0.1907	15.179	0.1	0.435174644	0.507699665	0.006742297	0.069559040	0.021438772
2019-08-26T07:55:00	0.1892	15.300	0.2	0.431196343	0.500944210	0.006611978	0.068214555	0.021024388
2019-08-26T08:00:00	0.1893	15.393	0.2	0.431309895	0.501136418	0.006615676	0.068252709	0.021036148
2019-08-26T08:05:00	0.1901	15.523	0.2	0.433606572	0.505031694	0.006690746	0.069027188	0.021274850
2019-08-26T08:10:00	0.1910	15.611	0.2	0.436172390	0.509400835	0.006775225	0.069898750	0.021543474
2019-08-26T08:15:00	0.1908	15.685	0.2	0.435468582	0.508200544	0.006751988	0.069659014	0.021469585
2019-08-26T08:20:00	0.1907	15.784	0.2	0.435309431	0.507929317	0.006746740	0.069604873	0.021452898
2019-08-26T08:25:00	0.1898	15.894	0.1	0.432696325	0.503486113	0.006660931	0.068719598	0.021180048
2019-08-26T08:30:00	0.1899	15.882	0.1	0.433082594	0.504141709	0.006673573	0.068850024	0.021220246
2019-08-26T08:35:00	0.1895	15.924	0.1	0.432104540	0.502482512	0.006641591	0.068520073	0.021118552
2019-08-26T08:40:00	0.1877	15.995	0.1	0.427023989	0.493906561	0.006476966	0.066821665	0.020595086
2019-08-26T08:45:00	0.1903	16.107	0.1	0.434240864	0.506110074	0.006711569	0.069242024	0.021341064
2019-08-26T08:50:00	0.1863	16.123	0.0	0.423140022	0.487398774	0.006352809	0.065540761	0.020200299
2019-08-26T08:55:00	0.1861	16.322	0.0	0.422705169	0.486672757	0.006338999	0.065398289	0.020156388
2019-08-26T09:00:00	0.1876	16.556	0.0	0.426931757	0.493751538	0.006474001	0.066791072	0.020585657
2019-08-26T09:05:00	0.1885	16.626	0.0	0.429234537	0.497629140	0.006548285	0.067557446	0.020821861
2019-08-26T09:10:00	0.1883	16.696	0.0	0.428801302	0.496898500	0.006534270	0.067412856	0.020777297
2019-08-26T09:15:00	0.1885	16.905	0.0	0.429188484	0.497551448	0.006546794	0.067542067	0.020817121
2019-08-26T09:20:00	0.1870	17.033	0.0	0.425195693	0.490837947	0.006418339	0.066216824	0.020408668
2019-08-26T09:25:00	0.1908	16.988	0.0	0.435419832	0.508117457	0.006750380	0.069642427	0.021464472
2019-08-26T09:30:00	0.1891	17.002	0.0	0.430895892	0.500435812	0.006602199	0.068113667	0.020993294
2019-08-26T09:35:00	0.1895	17.048	0.0	0.432101664	0.502477639	0.006641497	0.068519104	0.021118253
2019-08-26T09:40:00	0.1896	17.100	0.0	0.432215154	0.502670028	0.006645204	0.068557341	0.021130038
2019-08-26T09:45:00	0.1883	17.127	0.0	0.428776829	0.496857242	0.006533479	0.067404694	0.020774781
2019-08-26T09:50:00	0.1867	17.272	0.0	0.424234584	0.489228538	0.006387650	0.065900211	0.020311085
2019-08-26T09:55:00	0.1865	17.367	0.0	0.423800023	0.488501692	0.006373804	0.065757360	0.020267057
2019-08-26T10:00:00	0.1900	17.253	0.0	0.433487432	0.504829265	0.006686839	0.068986881	0.021262427
2019-08-26T10:05:00	0.1900	17.326	0.0	0.433328092	0.504558595	0.006681615	0.068932995	0.021245819
2019-08-26T10:10:00	0.1875	17.346	0.0	0.426608906	0.493209072	0.006463627	0.066684052	0.020552672
2019-08-26T10:15:00	0.1883	17.430	0.0	0.428638628	0.496624288	0.006529012	0.067358613	0.020760579
2019-08-26T10:20:00	0.1870	17.641	0.0	0.425192805	0.490833108	0.006418247	0.066215872	0.020408375
2019-08-26T10:25:00	0.1844	17.743	0.0	0.417889426	0.478667503	0.006187286	0.063833086	0.019673977
2019-08-26T10:30:00	0.1853	17.820	0.0	0.420479958	0.482965803	0.006268619	0.064672189	0.019932597
2019-08-26T10:35:00	0.1868	17.829	0.0	0.424712321	0.490028205	0.006402894	0.066057474	0.020359555
2019-08-26T10:40:00	0.1852	18.048	0.0	0.420158720	0.482431787	0.006258498	0.064567774	0.019900415
2019-08-26T10:45:00	0.1849	17.967	0.0	0.419448008	0.481251335	0.006236142	0.064337130	0.019829328
2019-08-26T10:50:00	0.1866	17.964	0.0	0.423957401	0.488764861	0.006378816	0.065809072	0.020282995
2019-08-26T10:55:00	0.1856	18.026	0.0	0.421326157	0.484373862	0.006295327	0.064947727	0.020017520
2019-08-26T11:00:00	0.1852	18.000	0.0	0.420341051	0.482734854	0.006264242	0.064627026	0.019918677
2019-08-26T11:05:00	0.1866	18.152	0.0	0.424025256	0.488878351	0.006380978	0.065831376	0.020289870
2019-08-26T11:10:00	0.1861	18.135	0.0	0.422767294	0.486776446	0.006340971	0.065418632	0.020162658
2019-08-26T11:15:00	0.1868	18.459	0.0	0.424527592	0.489718918	0.006396997	0.065996637	0.020340805
2019-08-26T11:20:00	0.1849	18.505	0.0	0.419423394	0.481210478	0.006235369	0.064329151	0.019826869
2019-08-26T11:25:00	0.1873	18.462	0.0	0.425851976	0.491938387	0.006439347	0.066433551	0.020475466
2019-08-26T11:30:00	0.1851	18.685	0.0	0.419927156	0.482047020	0.006251209	0.064492571	0.019877237
2019-08-26T11:35:00	0.1851	18.620	0.0	0.420041494	0.482236985	0.006254808	0.064529697	0.019888679
2019-08-26T11:40:00	0.1865	18.535	0.0	0.423726379	0.488378565	0.006371459	0.065733170	0.020259601
2019-08-26T11:45:00	0.1831	18.747	0.0	0.414486001	0.473048558	0.006081410	0.062740785	0.019337319
2019-08-26T11:50:00	0.1863	18.754	0.0	0.423131349	0.487384289	0.006352534	0.065537918	0.020199423
2019-08-26T11:55:00	0.1827	18.835	0.0	0.413335384	0.471156141	0.006045867	0.062374090	0.019224300
2019-08-26T12:00:00	0.1851	18.884	0.0	0.420063202	0.482273056	0.006255491	0.064536747	0.019890852
2019-08-26T12:05:00	0.1828	18.741	0.0	0.413564992	0.471533486	0.006052949	0.062447161	0.019246821
2019-08-26T12:10:00	0.1837	18.687	0.0	0.416162501	0.475812415	0.006133425	0.063277412	0.019502713
2019-08-26T12:15:00	0.1826	18.629	0.0	0.412966196	0.470549711	0.006034489	0.062256709	0.019188122
2019-08-26T12:20:00	0.1813	18.549	0.0	0.409486692	0.464852654	0.005927895	0.061156997	0.018849181
2019-08-26T12:25:00	0.1794	18.608	0.0	0.404056427	0.456027912	0.005763833	0.059464406	0.018327507
2019-08-26T12:30:00	0.1801	18.660	0.0	0.406114864	0.459363585	0.005825696	0.060102629	0.018524214
2019-08-26T12:35:00	0.1796	18.653	0.0	0.404842721	0.457300724	0.005787417	0.059707711	0.018402497
2019-08-26T12:40:00	0.1808	18.633	0.0	0.408008758	0.462442859	0.005882967	0.060693481	0.018706320
2019-08-26T12:45:00	0.1797	18.515	0.0	0.405073564	0.457674723	0.005794351	0.059779256	0.018424547
2019-08-26T12:50:00	0.1802	18.457	0.0	0.406298808	0.459662228	0.005831243	0.060159862	0.018541854
2019-08-26T12:55:00	0.1803	18.454	0.0	0.406691443	0.460300003	0.005843095	0.060282138	0.018579540
2019-08-26T13:00:00	0.1801	18.426	0.0	0.406252094	0.459586376	0.005829834	0.060145324	0.018537373
2019-08-26T13:05:00	0.1816	18.512	0.0	0.410245526	0.466092273	0.005951043	0.061395817	0.018922787
2019-08-26T13:10:00	0.1808	18.604	0.0	0.408145822	0.462666094	0.005887124	0.060736378	0.018719542
2019-08-26T13:15:00	0.1818	18.529	0.0	0.410752185	0.466920822	0.005966530	0.061555587	0.018972030
2019-08-26T13:20:00	0.1802	18.448	0.0	0.406436022	0.459885063	0.005835384	0.060202576	0.018555019
2019-08-26T13:25:00	0.1835	18.353	0.0	0.415400670	0.474555511	0.006109755	0.063033215	0.019427449
2019-08-26T13:30:00	0.1825	18.351	0.0	0.412755399	0.470203623	0.006027998	0.062189747	0.019167484
2019-08-26T13:35:00	0.1810	18.322	0.0	0.408721659	0.463604509	0.005904612	0.060916798	0.018775149
2019-08-26T13:40:00	0.1803	18.232	0.0	0.406619928	0.460183807	0.005840936	0.060259855	0.018572673
2019-08-26T13:45:00	0.1812	18.154	0.0	0.409228806	0.464431736	0.005920040	0.061075964	0.018824205
2019-08-26T13:50:00	0.1807	18.095	0.0	0.407682082	0.461911018	0.005873064	0.060591316	0.018674832
2019-08-26T13:55:00	0.1801	18.079	0.0	0.406133841	0.459394390	0.005826268	0.060108532	0.018526033
2019-08-26T14:00:00	0.1798	18.000	0.0	0.405416843	0.458231152	0.005804673	0.059885744	0.018457368
2019-08-26T14:05:00	0.1778	17.979	0.0	0.399693935	0.448996803	0.005634044	0.058125397	0.017914812
2019-08-26T14:10:00	0.1791	17.981	0.0	0.403426226	0.455008996	0.005744974	0.059269834	0.018267539
2019-08-26T14:15:00	0.1791	17.983	0.0	0.403263884	0.454746694	0.005740121	0.059219774	0.018252110
2019-08-26T14:20:00	0.1764	18.102	0.0	0.395858602	0.442858161	0.005521410	0.056963372	0.017556664
2019-08-26T14:25:00	0.1751	18.214	0.0	0.392060849	0.436819050	0.005411228	0.055826646	0.017206314
2019-08-26T14:30:00	0.1751	18.342	0.0	0.392177231	0.437003538	0.005414585	0.055861276	0.017216988
2019-08-26T14:35:00	0.1749	18.425	0.0	0.391733752	0.436300737	0.005401801	0.055729385	0.017176338
2019-08-26T14:40:00	0.1750	18.476	0.0	0.391850159	0.436485161	0.005405155	0.055763987	0.017187002
2019-08-26T14:45:00	0.1755	18.433	0.0	0.393365591	0.438889413	0.005448931	0.056215619	0.017326200
2019-08-26T14:50:00	0.1768	18.540	0.0	0.396834115	0.444415723	0.005549929	0.057257590	0.017647345
2019-08-26T14:55:00	0.1778	18.695	0.0	0.399737912	0.449067423	0.005635344	0.058138803	0.017918944
2019-08-26T15:00:00	0.1762	18.870	0.0	0.395391193	0.442112784	0.005507777	0.056822724	0.017513315
2019-08-26T15:05:00	0.1765	19.014	0.0	0.396065802	0.443188772	0.005527460	0.057025788	0.017575902
2019-08-26T15:10:00	0.1758	18.962	0.0	0.394226467	0.440257977	0.005473894	0.056473157	0.017405575
2019-08-26T15:15:00	0.1777	19.038	0.0	0.399365520	0.448469591	0.005624346	0.058025340	0.017883973
2019-08-26T15:20:00	0.1770	18.989	0.0	0.397530113	0.445528577	0.005570330	0.057468064	0.017712215
2019-08-26T15:25:00	0.1793	18.927	0.0	0.403769866	0.455564463	0.005755253	0.059375884	0.018300224
2019-08-26T15:30:00	0.1788	18.811	0.0	0.402495817	0.453506682	0.005717198	0.058983280	0.018179220
2019-08-26T15:35:00	0.1796	18.676	0.0	0.404833948	0.457286514	0.005787153	0.059704993	0.018401659
2019-08-26T15:40:00	0.1796	18.498	0.0	0.404671751	0.457023824	0.005782284	0.059654756	0.018386175
2019-08-26T15:45:00	0.1795	18.341	0.0	0.404509537	0.456761178	0.005777416	0.059604540	0.018370698
2019-08-26T15:50:00	0.1811	18.176	0.0	0.408784329	0.463706693	0.005906518	0.060936453	0.018781207
2019-08-26T15:55:00	0.1792	18.118	0.0	0.403629493	0.455337521	0.005751053	0.059332550	0.018286868
2019-08-26T16:00:00	0.1809	18.002	0.0	0.408460731	0.463179174	0.005896684	0.060835004	0.018749939
2019-08-26T16:05:00	0.1805	17.962	0.0	0.407313177	0.461310776	0.005861893	0.060476069	0.018639312
2019-08-26T16:10:00	0.1792	17.906	0.0	0.403666342	0.455397090	0.005752155	0.059343923	0.018290374
2019-08-26T16:15:00	0.1789	17.842	0.0	0.402793285	0.453986740	0.005726070	0.059074805	0.018207429
2019-08-26T16:20:00	0.1797	17.936	0.0	0.404976257	0.457517054	0.005791428	0.059749092	0.018415250
2019-08-26T16:25:00	0.1800	17.886	0.0	0.405769538	0.458803179	0.005815290	0.059995272	0.018491125
2019-08-26T16:30:00	0.1795	17.811	0.0	0.404342337	0.456490534	0.005772402	0.059552807	0.018354753
2019-08-26T16:35:00	0.1796	17.779	0.0	0.404858348	0.457326038	0.005787886	0.059712553	0.018403989
2019-08-26T16:40:00	0.1788	17.719	0.0	0.402596491	0.453669123	0.005720200	0.059014245	0.018188764
2019-08-26T16:45:00	0.1787	17.631	0.0	0.402279081	0.453157061	0.005710740	0.058916648	0.018158683
2019-08-26T16:50:00	0.1798	17.583	0.0	0.405295604	0.458034596	0.005801027	0.059848121	0.018445772
2019-08-26T16:55:00	0.1796	17.535	0.0	0.404701122	0.457071388	0.005783165	0.059663852	0.018388979
2019-08-26T17:00:00	0.1808	17.477	0.0	0.407990086	0.462412453	0.005882400	0.060687639	0.018704520
2019-08-26T17:05:00	0.1815	17.555	0.0	0.409889161	0.465509924	0.005940165	0.061283592	0.018888198
2019-08-26T17:10:00	0.1798	17.549	0.0	0.405415963	0.458229725	0.005804647	0.059885471	0.018457284
2019-08-26T17:15:00	0.1803	17.531	0.0	0.406763678	0.460417382	0.005845277	0.060304650	0.018586479
2019-08-26T17:20:00	0.1806	17.481	0.0	0.407556058	0.461705923	0.005869246	0.060551930	0.018662693
2019-08-26T17:25:00	0.1816	17.419	0.0	0.410285855	0.466158199	0.005952275	0.061408525	0.018926704
2019-08-26T17:30:00	0.1824	17.348	0.0	0.412458490	0.469716362	0.006018864	0.062095505	0.019138438
2019-08-26T17:35:00	0.1810	17.301	0.0	0.408546593	0.463319116	0.005899292	0.060861912	0.018758232
2019-08-26T17:40:00	0.1812	17.245	0.0	0.409061228	0.464158315	0.005914940	0.061023343	0.018807987
2019-08-26T17:45:00	0.1832	17.186	0.0	0.414825935	0.473608343	0.006091935	0.062849369	0.019370786
2019-08-26T17:50:00	0.1823	17.157	0.0	0.412302019	0.469459673	0.006014053	0.062045875	0.019123141
2019-08-26T17:55:00	0.1832	17.072	0.0	0.414747817	0.473479674	0.006089515	0.062824406	0.019363092
2019-08-26T18:00:00	0.1851	17.066	0.0	0.419942200	0.482072012	0.006251682	0.064497455	0.019878742
2019-08-26T18:05:00	0.1858	17.081	0.0	0.421827149	0.485208437	0.006311172	0.065111196	0.020067903
2019-08-26T18:10:00	0.1843	17.007	0.0	0.417662745	0.478292267	0.006180199	0.063759979	0.019651445
2019-08-26T18:15:00	0.1853	16.959	0.0	0.420375335	0.482791850	0.006265322	0.064638171	0.019922112
2019-08-26T18:20:00	0.1859	16.884	0.0	0.422259780	0.485929692	0.006324874	0.065252561	0.020111473
2019-08-26T18:25:00	0.1854	16.842	0.0	0.420847267	0.483576755	0.006280204	0.064791704	0.019969432
2019-08-26T18:30:00	0.1867	16.792	0.0	0.424377476	0.489467653	0.006392207	0.065947225	0.020325575
2019-08-26T18:35:00	0.1883	16.748	0.0	0.428720819	0.496762824	0.006531668	0.067386016	0.020769025
2019-08-26T18:40:00	0.1885	16.699	0.0	0.429229055	0.497619892	0.006548107	0.067555615	0.020821297
2019-08-26T18:45:00	0.1870	16.663	0.0	0.425083580	0.490650079	0.006414755	0.066179844	0.020397271
2019-08-26T18:50:00	0.1906	16.608	0.0	0.434884080	0.507204773	0.006732727	0.069460299	0.021408339
2019-08-26T18:55:00	0.1889	16.562	0.0	0.430479619	0.499731846	0.006588665	0.067974038	0.020950259
2019-08-26T19:00:00	0.1900	16.513	0.0	0.433443783	0.504755113	0.006685408	0.068972117	0.021257876
2019-08-26T19:05:00	0.1896	16.506	0.0	0.432313829	0.502837332	0.006648427	0.068590596	0.021140288
2019-08-26T19:10:00	0.1887	16.493	0.0	0.429816981	0.498612239	0.006567155	0.067752131	0.020881865
2019-08-26T19:15:00	0.1895	16.451	0.0	0.431963587	0.502243616	0.006636990	0.068472602	0.021103921
2019-08-26T19:20:00	0.1882	16.418	0.0	0.428372260	0.496175445	0.006520408	0.067269852	0.020733222
2019-08-26T19:25:00	0.1896	16.389	0.0	0.432159260	0.502575272	0.006643378	0.068538508	0.021124234
2019-08-26T19:30:00	0.1899	16.368	0.0	0.433212083	0.504361576	0.006677814	0.068893780	0.021233732
2019-08-26T19:35:00	0.1874	16.334	0.0	0.426339757	0.492757061	0.006454987	0.066594913	0.020525199
2019-08-26T19:40:00	0.1887	16.304	0.0	0.429858125	0.498681721	0.006568490	0.067765896	0.020886107
2019-08-26T19:45:00	0.1879	16.312	0.0	0.427631273	0.494927880	0.006496511	0.067023310	0.020657235
2019-08-26T19:50:00	0.1888	16.317	0.0	0.430054048	0.499012652	0.006574846	0.067831470	0.020906318
2019-08-26T19:55:00	0.1890	16.327	0.0	0.430561874	0.499870909	0.006591338	0.068001614	0.020958758
2019-08-26T20:00:00	0.1886	16.318	0.0	0.429429947	0.497958864	0.006554612	0.067622724	0.020841980
2019-08-26T20:05:00	0.1898	16.305	0.0	0.432941725	0.503902570	0.006668961	0.068802441	0.021205581
2019-08-26T20:10:00	0.1891	16.296	0.0	0.430992202	0.500598752	0.006605332	0.068145997	0.021003258
2019-08-26T20:15:00	0.1888	16.271	0.0	0.430133878	0.499147523	0.006577436	0.067858199	0.020914556
2019-08-26T20:20:00	0.1880	16.250	0.0	0.427907400	0.495392604	0.006505410	0.067115119	0.020685531
2019-08-26T20:25:00	0.1872	16.229	0.0	0.425677897	0.491646379	0.006433770	0.066376022	0.020457735
2019-08-26T20:30:00	0.1884	16.188	0.0	0.428924219	0.497105743	0.006538244	0.067453860	0.020789935
2019-08-26T20:35:00	0.1908	16.141	0.0	0.435436309	0.508145538	0.006750923	0.069648033	0.021466200
2019-08-26T20:40:00	0.1913	16.118	0.0	0.437031450	0.510867771	0.006803655	0.070192053	0.021633872
2019-08-26T20:45:00	0.1922	16.093	0.0	0.439440550	0.514992565	0.006883770	0.071018586	0.021888618
2019-08-26T20:50:00	0.1905	16.058	0.0	0.434775650	0.507020153	0.006729157	0.069423474	0.021396989
2019-08-26T20:55:00	0.1908	16.039	0.0	0.435554445	0.508346904	0.006754820	0.069688234	0.021478591
2019-08-26T21:00:00	0.1892	16.016	0.0	0.431151767	0.500868767	0.006610526	0.068199582	0.021019773
2019-08-26T21:05:00	0.1896	15.992	0.0	0.432205231	0.502653204	0.006644879	0.068553997	0.021129008
2019-08-26T21:10:00	0.1887	15.964	0.0	0.429708218	0.498428588	0.006563629	0.067715750	0.020870652
2019-08-26T21:15:00	0.1904	15.931	0.0	0.434310149	0.506227936	0.006713846	0.069265516	0.021348305
2019-08-26T21:20:00	0.1907	15.890	0.0	0.435361609	0.508018231	0.006748460	0.069622620	0.021458368
2019-08-26T21:25:00	0.1914	15.859	0.0	0.437228963	0.511205337	0.006810202	0.070259595	0.021654689
2019-08-26T21:30:00	0.1903	15.839	0.0	0.434194363	0.506030979	0.006710041	0.069226260	0.021336206
2019-08-26T21:35:00	0.1902	15.819	0.0	0.433883122	0.505501728	0.006699820	0.069120806	0.021303704
2019-08-26T21:40:00	0.1900	15.796	0.0	0.433299082	0.504509325	0.006680665	0.068923188	0.021242796
2019-08-26T21:45:00	0.1901	15.775	0.0	0.433533211	0.504907043	0.006688340	0.069002367	0.021267200
2019-08-26T21:50:00	0.1892	15.748	0.0	0.431038205	0.500676590	0.006606830	0.068161443	0.021008019
2019-08-26T21:55:00	0.1910	15.725	0.0	0.436181118	0.509415729	0.006775514	0.069901727	0.021544391
2019-08-26T22:00:00	0.1888	15.707	0.0	0.430141214	0.499159917	0.006577675	0.067860656	0.020915313
2019-08-26T22:05:00	0.1917	15.685	0.0	0.437932030	0.512407820	0.006833537	0.070500338	0.021728889
2019-08-26T22:10:00	0.1911	15.675	0.0	0.436455822	0.509884598	0.006784597	0.069995438	0.021573274
2019-08-26T22:15:00	0.1907	15.647	0.0	0.435250772	0.507829366	0.006744806	0.069584924	0.021446749
2019-08-26T22:20:00	0.1915	15.615	0.0	0.437313318	0.511349541	0.006812999	0.070288453	0.021663584
2019-08-26T22:25:00	0.1902	15.595	0.0	0.433929045	0.505579800	0.006701327	0.069136359	0.021308497
2019-08-26T22:30:00	0.1894	15.569	0.0	0.431630371	0.501679080	0.006626120	0.068360459	0.021069357
2019-08-26T22:35:00	0.1919	15.544	0.0	0.438598740	0.513549396	0.006855710	0.070729098	0.021799395
2019-08-26T22:40:00	0.1920	15.522	0.0	0.438755145	0.513817382	0.006860918	0.070782829	0.021815955
2019-08-26T22:45:00	0.1908	15.503	0.0	0.435646197	0.508503323	0.006757848	0.069719467	0.021488217
2019-08-26T22:50:00	0.1917	15.483	0.0	0.437980275	0.512490386	0.006835140	0.070516877	0.021733986
2019-08-26T22:55:00	0.1910	15.466	0.0	0.435959545	0.509037699	0.006768193	0.069826197	0.021521112
2019-08-26T23:00:00	0.1883	15.454	0.0	0.428747740	0.496808205	0.006532538	0.067394993	0.020771791
2019-08-26T23:05:00	0.1886	15.439	0.0	0.429451963	0.497996021	0.006555325	0.067630082	0.020844248
2019-08-26T23:10:00	0.1883	15.426	0.0	0.428788911	0.496877610	0.006533869	0.067408723	0.020776023
2019-08-26T23:15:00	0.1881	15.408	0.0	0.428125591	0.495759970	0.006512447	0.067187719	0.020707907
2019-08-26T23:20:00	0.1897	15.394	0.0	0.432654664	0.503415429	0.006659568	0.068705541	0.021175715
2019-08-26T23:25:00	0.1876	15.380	0.0	0.426798146	0.493527004	0.006469706	0.066746769	0.020572002
2019-08-26T23:30:00	0.1875	15.374	0.0	0.426407948	0.492871562	0.006457176	0.066617490	0.020532157
2019-08-26T23:35:00	0.1887	15.367	0.0	0.429848775	0.498665932	0.006568186	0.067762768	0.020885143
2019-08-26T23:40:00	0.1894	15.339	0.0	0.431645030	0.501703908	0.006626598	0.068365390	0.021070877
2019-08-26T23:45:00	0.1892	15.308	0.0	0.431255981	0.501045154	0.006613920	0.068234592	0.021030564
2019-08-26T23:50:00	0.1901	15.280	0.0	0.433596225	0.505014111	0.006690406	0.069023687	0.021273771
2019-08-26T23:55:00	0.1892	15.262	0.0	0.431297089	0.501114741	0.006615259	0.068248405	0.021034821
2019-08-27T00:00:00	0.1879	15.249	0.0	0.427626809	0.494920368	0.006496368	0.067021826	0.020656778
2019-08-27T00:05:00	0.1860	15.242	0.0	0.422301550	0.485999356	0.006326198	0.065266219	0.020115683
2019-08-27T00:10:00	0.1843	15.238	0.0	0.417785072	0.478494743	0.006184023	0.063799424	0.019663602
2019-08-27T00:15:00	0.1867	15.231	0.0	0.424263878	0.489277554	0.006388584	0.065909848	0.020314055
2019-08-27T00:20:00	0.1852	15.227	0.0	0.420302843	0.482671337	0.006263038	0.064614607	0.019914849
2019-08-27T00:25:00	0.1845	15.220	0.0	0.418260225	0.479281608	0.006198888	0.063952784	0.019710869
2019-08-27T00:30:00	0.1846	15.217	0.0	0.418693811	0.480000183	0.006212471	0.064092923	0.019754061
2019-08-27T00:35:00	0.1859	15.207	0.0	0.422150949	0.485748207	0.006321426	0.065216982	0.020100507
2019-08-27T00:40:00	0.1860	15.182	0.0	0.422308921	0.486011650	0.006326432	0.065268630	0.020116426
2019-08-27T00:45:00	0.1862	15.168	0.0	0.423015924	0.487191530	0.006348866	0.065500083	0.020187762
2019-08-27T00:50:00	0.1856	15.157	0.0	0.421251528	0.484249602	0.006292969	0.064923398	0.020010022
2019-08-27T00:55:00	0.1841	15.149	0.0	0.417283104	0.477664147	0.006168343	0.063637654	0.019613743
2019-08-27T01:00:00	0.1872	15.139	0.0	0.425683236	0.491655333	0.006433941	0.066377786	0.020458278
2019-08-27T01:05:00	0.1866	15.128	0.0	0.423921732	0.488705209	0.006377680	0.065797350	0.020279382
2019-08-27T01:10:00	0.1877	15.117	0.0	0.427094012	0.494024273	0.006479218	0.066844896	0.020602246
2019-08-27T01:15:00	0.1864	15.110	0.0	0.423414299	0.487856967	0.006361529	0.065630720	0.020228025
2019-08-27T01:20:00	0.1852	15.103	0.0	0.420276218	0.482627079	0.006262199	0.064605954	0.019912182
2019-08-27T01:25:00	0.1868	15.083	0.0	0.424552842	0.489761189	0.006397803	0.066004951	0.020343367
2019-08-27T01:30:00	0.1847	15.062	0.0	0.418942351	0.480412317	0.006220266	0.064173337	0.019778846
2019-08-27T01:35:00	0.1856	15.051	0.0	0.421300264	0.484330748	0.006294509	0.064939286	0.020014919
2019-08-27T01:40:00	0.1856	15.045	0.0	0.421183557	0.484136439	0.006290821	0.064901244	0.020003194
2019-08-27T01:45:00	0.1858	15.039	0.0	0.421891049	0.485314935	0.006313195	0.065132064	0.020074335
2019-08-27T01:50:00	0.1875	15.033	0.0	0.426437358	0.492920950	0.006458120	0.066627229	0.020535159
2019-08-27T01:55:00	0.1852	15.023	0.0	0.420283598	0.482639347	0.006262432	0.064608352	0.019912922
2019-08-27T02:00:00	0.1870	14.994	0.0	0.425108543	0.490691906	0.006415553	0.066188077	0.020399808
2019-08-27T02:05:00	0.1849	14.977	0.0	0.419499976	0.481337604	0.006237775	0.064353978	0.019834521
2019-08-27T02:10:00	0.1865	14.965	0.0	0.423778645	0.488465948	0.006373123	0.065750337	0.020264892
2019-08-27T02:15:00	0.1864	14.943	0.0	0.423387725	0.487812565	0.006360684	0.065622001	0.020225338
2019-08-27T02:20:00	0.1887	14.934	0.0	0.429844317	0.498658403	0.006568042	0.067761277	0.020884684
2019-08-27T02:25:00	0.1878	14.918	0.0	0.427266204	0.494313791	0.006484757	0.066902046	0.020619860
2019-08-27T02:30:00	0.1879	14.902	0.0	0.427697395	0.495039144	0.006498642	0.067045287	0.020664009
2019-08-27T02:35:00	0.1883	14.895	0.0	0.428675619	0.496686635	0.006530207	0.067370945	0.020764380
2019-08-27T02:40:00	0.1884	14.889	0.0	0.429106440	0.497413053	0.006544139	0.067514675	0.020808678
2019-08-27T02:45:00	0.1874	14.863	0.0	0.426253258	0.492611836	0.006452212	0.066566281	0.020516374
2019-08-27T02:50:00	0.1862	14.856	0.0	0.422846174	0.486908117	0.006343475	0.065444466	0.020170620
2019-08-27T02:55:00	0.1879	14.853	0.0	0.427663544	0.494982181	0.006497551	0.067034035	0.020660541
2019-08-27T03:00:00	0.1888	14.850	0.0	0.430008885	0.498936358	0.006573380	0.067816351	0.020901658
2019-08-27T03:05:00	0.1873	14.844	0.0	0.426061783	0.492290439	0.006446071	0.066502928	0.020496848
2019-08-27T03:10:00	0.1877	14.836	0.0	0.427040983	0.493935128	0.006477512	0.066827302	0.020596824
2019-08-27T03:15:00	0.1879	14.834	0.0	0.427745939	0.495120838	0.006500206	0.067061425	0.020668983
2019-08-27T03:20:00	0.1866	14.827	0.0	0.424067696	0.488949339	0.006382331	0.065845328	0.020294170
2019-08-27T03:25:00	0.1864	14.821	0.0	0.423402457	0.487837181	0.006361152	0.065626835	0.020226828
2019-08-27T03:30:00	0.1861	14.827	0.0	0.422736947	0.486725795	0.006340008	0.065408694	0.020159595
2019-08-27T03:35:00	0.1883	14.838	0.0	0.428649130	0.496641989	0.006529351	0.067362115	0.020761658
2019-08-27T03:40:00	0.1879	14.845	0.0	0.427712089	0.495063871	0.006499115	0.067050172	0.020665514
2019-08-27T03:45:00	0.1869	14.855	0.0	0.424856475	0.490269623	0.006407498	0.066104972	0.020374194
2019-08-27T03:50:00	0.1877	14.862	0.0	0.427205832	0.494212274	0.006482815	0.066882006	0.020613684
2019-08-27T03:55:00	0.1868	14.851	0.0	0.424623562	0.489879586	0.006400060	0.066028239	0.020350544
2019-08-27T04:00:00	0.1884	14.848	0.0	0.428888813	0.497046043	0.006537099	0.067442047	0.020786294
2019-08-27T04:05:00	0.1886	14.847	0.0	0.429629234	0.498295241	0.006561069	0.067689338	0.020862511
2019-08-27T04:10:00	0.1894	14.860	0.0	0.431734988	0.501856289	0.006629532	0.068395655	0.021080205
2019-08-27T04:15:00	0.1888	14.870	0.0	0.430016221	0.498948751	0.006573618	0.067818807	0.020902415
2019-08-27T04:20:00	0.1878	14.888	0.0	0.427474683	0.494664432	0.006491468	0.066971279	0.020641199
2019-08-27T04:25:00	0.1887	14.903	0.0	0.429856546	0.498679055	0.006568438	0.067765368	0.020885945
2019-08-27T04:30:00	0.1888	14.912	0.0	0.430050024	0.499005854	0.006574715	0.067830123	0.020905903
2019-08-27T04:35:00	0.1900	14.924	0.0	0.433246685	0.504420338	0.006678948	0.068905475	0.021237337
2019-08-27T04:40:00	0.1888	14.934	0.0	0.430163655	0.499197834	0.006578403	0.067868171	0.020917629
2019-08-27T04:45:00	0.1895	14.946	0.0	0.431995773	0.502298162	0.006638040	0.068483440	0.021107261
2019-08-27T04:50:00	0.1888	14.955	0.0	0.430003994	0.498928096	0.006573221	0.067814714	0.020901153
2019-08-27T04:55:00	0.1888	14.964	0.0	0.430197455	0.499254946	0.006579500	0.067879491	0.020921118
2019-08-27T05:00:00	0.1898	14.984	0.0	0.432848248	0.503743914	0.006665902	0.068770878	0.021195852
2019-08-27T05:05:00	0.1880	15.007	0.0	0.427849934	0.495295871	0.006503558	0.067096006	0.020679641
2019-08-27T05:10:00	0.1880	15.027	0.0	0.427769993	0.495161320	0.006500981	0.067069423	0.020671447
2019-08-27T05:15:00	0.1877	15.040	0.0	0.427142574	0.494105914	0.006480780	0.066861011	0.020607213
2019-08-27T05:20:00	0.1894	15.048	0.0	0.431710558	0.501814905	0.006628735	0.068387435	0.021077672
2019-08-27T05:25:00	0.1905	15.056	0.0	0.434631497	0.506774761	0.006724414	0.069374535	0.021381906
2019-08-27T05:30:00	0.1894	15.073	0.0	0.431824075	0.502007216	0.006632438	0.068425636	0.021089445
2019-08-27T05:35:00	0.1900	15.086	0.0	0.433381629	0.504649531	0.006683370	0.068951098	0.021251398
2019-08-27T05:40:00	0.1916	15.091	0.0	0.437660434	0.511943135	0.006824517	0.070407279	0.021700207
2019-08-27T05:45:00	0.1914	15.102	0.0	0.437036752	0.510876831	0.006803831	0.070193865	0.021634431
2019-08-27T05:50:00	0.1915	15.105	0.0	0.437501492	0.511671290	0.006819241	0.070352854	0.021683433
2019-08-27T05:55:00	0.1913	15.122	0.0	0.436877751	0.510605162	0.006798563	0.070139521	0.021617682
2019-08-27T06:00:00	0.1902	15.131	0.0	0.433801465	0.505362919	0.006697140	0.069093156	0.021295182
2019-08-27T06:05:00	0.1904	15.151	0.0	0.434539690	0.506618506	0.006721394	0.069343378	0.021372303
2019-08-27T06:10:00	0.1890	15.241	0.0	0.430639668	0.500002449	0.006593866	0.068027702	0.020966798
2019-08-27T06:15:00	0.1892	15.276	0.0	0.431106201	0.500791653	0.006609043	0.068184277	0.021015056
2019-08-27T06:20:00	0.1893	15.329	0.0	0.431572602	0.501581239	0.006624237	0.068341028	0.021063369
2019-08-27T06:25:00	0.1900	15.386	0.0	0.433403161	0.504686106	0.006684076	0.068958379	0.021253642
2019-08-27T06:30:00	0.1895	15.400	0.0	0.431959134	0.502236070	0.006636845	0.068471102	0.021103459
2019-08-27T06:35:00	0.1888	15.407	0.0	0.429967311	0.498866133	0.006572031	0.067802435	0.020897369
2019-08-27T06:40:00	0.1891	15.432	0.0	0.430980415	0.500578809	0.006604949	0.068142040	0.021002038
2019-08-27T06:45:00	0.1878	15.448	0.0	0.427345735	0.494447541	0.006487317	0.066928452	0.020627999
2019-08-27T06:50:00	0.1901	15.481	0.0	0.433550293	0.504936066	0.006688900	0.069008146	0.021268981
2019-08-27T06:55:00	0.1895	15.517	0.0	0.432106395	0.502485656	0.006641652	0.068520698	0.021118745
2019-08-27T07:00:00	0.1885	15.497	0.0	0.429294680	0.497730610	0.006550232	0.067577533	0.020828052
2019-08-27T07:05:00	0.1892	15.499	0.0	0.431127762	0.500828142	0.006609745	0.068191519	0.021017288
2019-08-27T07:10:00	0.1897	15.512	0.0	0.432413086	0.503005650	0.006651670	0.068624058	0.021150601
2019-08-27T07:15:00	0.1896	15.559	0.0	0.432333366	0.502870460	0.006649065	0.068597182	0.021142318
2019-08-27T07:20:00	0.1890	15.629	0.0	0.430615222	0.499961113	0.006593072	0.068019503	0.020964272
2019-08-27T07:25:00	0.1885	15.700	0.0	0.429168756	0.497518167	0.006546155	0.067535479	0.020815091
2019-08-27T07:30:00	0.1864	15.926	0.0	0.423610560	0.488184959	0.006367773	0.065695137	0.020247879
2019-08-27T07:35:00	0.1863	15.925	0.0	0.423255999	0.487592493	0.006356495	0.065578791	0.020212020
2019-08-27T07:40:00	0.1883	16.082	0.0	0.428655605	0.496652903	0.006529561	0.067364273	0.020762323
2019-08-27T07:45:00	0.1872	16.089	0.0	0.425563955	0.491455294	0.006430122	0.066338384	0.020446134
2019-08-27T07:50:00	0.1868	16.257	0.0	0.424661513	0.489943129	0.006401272	0.066040738	0.020354397
2019-08-27T07:55:00	0.1862	16.343	0.0	0.422935310	0.487056929	0.006346306	0.065473667	0.020179620
2019-08-27T08:00:00	0.1849	16.485	0.0	0.419282652	0.480976887	0.006230948	0.064283540	0.019812811
2019-08-27T08:05:00	0.1847	16.662	0.0	0.418927142	0.480387092	0.006219789	0.064168414	0.019777328
2019-08-27T08:10:00	0.1872	16.746	0.0	0.425711790	0.491703225	0.006434856	0.066387221	0.020461186
2019-08-27T08:15:00	0.1869	16.775	0.0	0.424809429	0.490190828	0.006405995	0.066089468	0.020369416
2019-08-27T08:20:00	0.1853	16.796	0.0	0.420611318	0.483184255	0.006272761	0.064714916	0.019945765
2019-08-27T08:25:00	0.1879	16.755	0.0	0.427662676	0.494980720	0.006497523	0.067033747	0.020660452
2019-08-27T08:30:00	0.1855	16.780	0.0	0.421000449	0.483831656	0.006285039	0.064841586	0.019984807
2019-08-27T08:35:00	0.1863	16.910	0.0	0.423117330	0.487360874	0.006352088	0.065533322	0.020198006
2019-08-27T08:40:00	0.1884	17.048	0.0	0.429064410	0.497342162	0.006542779	0.067500644	0.020804354
2019-08-27T08:45:00	0.1868	17.173	0.0	0.424603064	0.489845267	0.006399406	0.066021488	0.020348464
2019-08-27T08:50:00	0.1870	17.281	0.0	0.425071316	0.490629530	0.006414363	0.066175799	0.020396024
2019-08-27T08:55:00	0.1866	17.470	0.0	0.424168601	0.489118141	0.006385547	0.065878509	0.020304396
2019-08-27T09:00:00	0.1864	17.631	0.0	0.423539797	0.488066687	0.006365521	0.065671907	0.020240720
2019-08-27T09:05:00	0.1885	17.739	0.0	0.429211929	0.497590999	0.006547553	0.067549896	0.020819534
2019-08-27T09:10:00	0.1877	17.764	0.0	0.426942984	0.493770407	0.006474362	0.066794795	0.020586805
2019-08-27T09:15:00	0.1865	17.980	0.0	0.423848093	0.488582067	0.006375335	0.065773152	0.020271924
2019-08-27T09:20:00	0.1861	18.142	0.0	0.422670188	0.486614377	0.006337889	0.065386836	0.020152858
2019-08-27T09:25:00	0.1878	18.340	0.0	0.427250638	0.494287616	0.006484256	0.066896879	0.020618268
2019-08-27T09:30:00	0.1864	18.389	0.0	0.423607670	0.488180128	0.006367681	0.065694189	0.020247587
2019-08-27T09:35:00	0.1873	18.271	0.0	0.425995161	0.492178634	0.006443935	0.066480893	0.020490057
2019-08-27T09:40:00	0.1884	18.082	0.0	0.428926233	0.497109138	0.006538309	0.067454532	0.020790142
2019-08-27T09:45:00	0.1894	17.968	0.0	0.431852089	0.502054682	0.006633352	0.068435065	0.021092352
2019-08-27T09:50:00	0.1894	17.994	0.0	0.431772342	0.501919571	0.006630750	0.068408225	0.021084079
2019-08-27T09:55:00	0.1891	18.249	0.0	0.430873307	0.500397605	0.006601464	0.068106087	0.020990957
2019-08-27T10:00:00	0.1887	18.392	0.0	0.429700446	0.498415467	0.006563377	0.067713151	0.020869851
2019-08-27T10:05:00	0.1876	18.614	0.0	0.426724636	0.493403492	0.006467345	0.066722402	0.020564492
2019-08-27T10:10:00	0.1883	18.630	0.0	0.428674318	0.496684442	0.006530165	0.067370512	0.020764246
2019-08-27T10:15:00	0.1875	18.676	0.0	0.426518512	0.493057241	0.006460725	0.066654106	0.020543443
2019-08-27T10:20:00	0.1885	18.740	0.0	0.429288920	0.497720891	0.006550045	0.067575609	0.020827459
2019-08-27T10:25:00	0.1892	18.853	0.0	0.431235566	0.501010598	0.006613255	0.068227733	0.021028450
2019-08-27T10:30:00	0.1884	18.782	0.0	0.429083118	0.497373715	0.006543384	0.067506889	0.020806279
2019-08-27T10:35:00	0.1864	18.919	0.0	0.423638715	0.488232021	0.006368669	0.065704382	0.020250729
2019-08-27T10:40:00	0.1870	18.838	0.0	0.425043900	0.490583594	0.006413487	0.066166758	0.020393237
2019-08-27T10:45:00	0.1871	18.768	0.0	0.425351911	0.491099782	0.006423336	0.066268374	0.020424556
2019-08-27T10:50:00	0.1872	18.721	0.0	0.425659864	0.491616135	0.006433193	0.066370065	0.020455899
2019-08-27T10:55:00	0.1873	18.690	0.0	0.425967760	0.492132654	0.006443057	0.066471832	0.020487264
2019-08-27T11:00:00	0.1890	18.680	0.0	0.430652602	0.500024321	0.006594287	0.068032040	0.020968135
2019-08-27T11:05:00	0.1869	18.822	0.0	0.424939291	0.490408343	0.006410143	0.066132269	0.020382607
2019-08-27T11:10:00	0.1871	18.914	0.0	0.425521400	0.491383935	0.006428760	0.066324330	0.020441803
2019-08-27T11:15:00	0.1870	18.962	0.0	0.425281223	0.490981295	0.006421075	0.066245045	0.020417366
2019-08-27T11:20:00	0.1889	19.000	0.0	0.430241313	0.499329058	0.006580924	0.067894182	0.020925646
2019-08-27T11:25:00	0.1880	19.152	0.0	0.427813916	0.495235246	0.006502397	0.067084028	0.020675949
2019-08-27T11:30:00	0.1874	19.262	0.0	0.426204949	0.492530738	0.006450662	0.066550294	0.020511447
2019-08-27T11:35:00	0.1858	19.244	0.0	0.421849984	0.485246494	0.006311895	0.065118653	0.020070201
2019-08-27T11:40:00	0.1872	19.274	0.0	0.425724763	0.491724985	0.006435271	0.066391507	0.020462507
2019-08-27T11:45:00	0.1867	19.275	0.0	0.424388006	0.489485276	0.006392543	0.065950690	0.020326643
2019-08-27T11:50:00	0.1876	19.193	0.0	0.426888214	0.493678357	0.006472601	0.066776632	0.020581206
2019-08-27T11:55:00	0.1852	19.242	0.0	0.420337128	0.482728331	0.006264118	0.064625751	0.019918284
2019-08-27T12:00:00	0.1857	19.194	0.0	0.421470455	0.484614170	0.006299888	0.064994785	0.020032024
2019-08-27T12:05:00	0.1859	19.094	0.0	0.422053806	0.485586241	0.006318348	0.065185235	0.020090722
2019-08-27T12:10:00	0.1868	19.034	0.0	0.424557594	0.489769144	0.006397954	0.066006516	0.020343849
2019-08-27T12:15:00	0.1858	19.056	0.0	0.421847091	0.485241672	0.006311803	0.065117708	0.020069910
2019-08-27T12:20:00	0.1845	19.005	0.0	0.418306432	0.479358162	0.006200335	0.063967710	0.019715469
2019-08-27T12:25:00	0.1834	18.994	0.0	0.415309648	0.474405446	0.006106931	0.063004078	0.019418469
2019-08-27T12:30:00	0.1828	18.978	0.0	0.413688195	0.471736021	0.006056752	0.062486390	0.019258912
2019-08-27T12:35:00	0.1818	19.004	0.0	0.410959301	0.467259726	0.005972867	0.061620971	0.018992182
2019-08-27T12:40:00	0.1827	19.098	0.0	0.413204271	0.470940732	0.006041824	0.062332388	0.019211447
2019-08-27T12:45:00	0.1828	19.296	0.0	0.413514551	0.471450577	0.006051393	0.062431104	0.019241873
2019-08-27T12:50:00	0.1824	19.558	0.0	0.412443939	0.469692488	0.006018416	0.062090889	0.019137015
2019-08-27T12:55:00	0.1803	19.590	0.0	0.406665595	0.460258004	0.005842315	0.060274084	0.018577058
2019-08-27T13:00:00	0.1834	19.669	0.0	0.415272632	0.474344425	0.006105782	0.062992230	0.019414817
2019-08-27T13:05:00	0.1835	19.649	0.0	0.415582511	0.474855375	0.006115400	0.063091450	0.019445398
2019-08-27T13:10:00	0.1814	19.656	0.0	0.409815596	0.465389753	0.005937921	0.061260441	0.018881063
2019-08-27T13:15:00	0.1830	19.716	0.0	0.414271466	0.472695437	0.006074773	0.062672315	0.019316216
2019-08-27T13:20:00	0.1825	19.576	0.0	0.412648957	0.470028913	0.006024723	0.062155952	0.019157068
2019-08-27T13:25:00	0.1835	19.421	0.0	0.415443181	0.474625604	0.006111074	0.063046827	0.019431644
2019-08-27T13:30:00	0.1832	19.431	0.0	0.414649789	0.473318236	0.006086480	0.062793089	0.019353440
2019-08-27T13:35:00	0.1814	19.522	0.0	0.409709992	0.465217269	0.005934701	0.061227216	0.018870822
2019-08-27T13:40:00	0.1806	19.380	0.0	0.407528623	0.461661281	0.005868415	0.060543359	0.018660051
2019-08-27T13:45:00	0.1826	19.312	0.0	0.413095983	0.470762857	0.006038487	0.062297959	0.019200836
2019-08-27T13:50:00	0.1810	19.280	0.0	0.408705317	0.463577865	0.005904116	0.060911673	0.018773569
2019-08-27T13:55:00	0.1810	19.277	0.0	0.408739570	0.463633711	0.005905157	0.060922415	0.018776880
2019-08-27T14:00:00	0.1800	19.270	0.0	0.405724693	0.458730428	0.005813939	0.059981339	0.018486831
2019-08-27T14:05:00	0.1810	19.214	0.0	0.408531128	0.463293908	0.005898823	0.060857065	0.018756738
2019-08-27T14:10:00	0.1818	19.270	0.0	0.410779532	0.466965565	0.005967366	0.061564218	0.018974690
2019-08-27T14:15:00	0.1809	19.293	0.0	0.408322659	0.462954179	0.005892492	0.060791749	0.018736608
2019-08-27T14:20:00	0.1793	19.283	0.0	0.403918690	0.455805126	0.005759708	0.059421847	0.018314390
2019-08-27T14:25:00	0.1780	19.336	0.0	0.400337786	0.450031244	0.005653087	0.058321860	0.017975364
2019-08-27T14:30:00	0.1784	19.329	0.0	0.401485478	0.451877982	0.005687129	0.058673057	0.018083606
2019-08-27T14:35:00	0.1814	19.361	0.0	0.409843994	0.465436140	0.005938788	0.061269377	0.018883817
2019-08-27T14:40:00	0.1805	19.412	0.0	0.407108472	0.460977863	0.005855700	0.060412176	0.018619619
2019-08-27T14:45:00	0.1802	19.350	0.0	0.406310903	0.459681868	0.005831608	0.060163626	0.018543014
2019-08-27T14:50:00	0.1794	19.285	0.0	0.404124819	0.456138554	0.005765882	0.059485545	0.018334023
2019-08-27T14:55:00	0.1787	19.357	0.0	0.402213789	0.453051763	0.005708795	0.058896584	0.018152499
2019-08-27T15:00:00	0.1780	19.329	0.0	0.400300417	0.449971175	0.005651981	0.058310447	0.017971846
2019-08-27T15:05:00	0.1762	19.287	0.0	0.395315171	0.441991608	0.005505562	0.056799868	0.017506271
2019-08-27T15:10:00	0.1787	19.267	0.0	0.402316969	0.453218170	0.005711868	0.058928293	0.018162272
2019-08-27T15:15:00	0.1779	19.355	0.0	0.400125291	0.449689715	0.005646798	0.058256976	0.017955366
2019-08-27T15:20:00	0.1772	19.349	0.0	0.397930519	0.446169396	0.005582087	0.057589360	0.017749600
2019-08-27T15:25:00	0.1773	19.252	0.0	0.398243828	0.446671129	0.005591297	0.057684380	0.017778886
2019-08-27T15:30:00	0.1767	19.257	0.0	0.396604669	0.444049144	0.005543213	0.057188306	0.017625991
2019-08-27T15:35:00	0.1767	19.154	0.0	0.396639188	0.444104285	0.005544223	0.057198726	0.017629203
2019-08-27T15:40:00	0.1762	19.085	0.0	0.395277680	0.441931855	0.005504470	0.056788598	0.017502797
2019-08-27T15:45:00	0.1778	18.977	0.0	0.399774980	0.449126950	0.005636439	0.058150105	0.017922427
2019-08-27T15:50:00	0.1782	18.933	0.0	0.400923086	0.450972595	0.005670432	0.058500805	0.018030516
2019-08-27T15:55:00	0.1788	18.965	0.0	0.402626468	0.453717499	0.005721094	0.059023468	0.018191606
2019-08-27T16:00:00	0.1789	18.980	0.0	0.402660853	0.453772990	0.005722119	0.059034047	0.018194867
2019-08-27T16:05:00	0.1809	18.936	0.0	0.408211118	0.462772458	0.005889106	0.060756820	0.018725842
2019-08-27T16:10:00	0.1803	18.906	0.0	0.406548096	0.460067108	0.005838767	0.060237479	0.018565776
2019-08-27T16:15:00	0.1780	18.874	0.0	0.400156798	0.449740346	0.005647730	0.058266594	0.017958330
2019-08-27T16:20:00	0.1794	18.877	0.0	0.404050261	0.456017938	0.005763649	0.059462500	0.018326920
2019-08-27T16:25:00	0.1789	18.801	0.0	0.402660853	0.453772990	0.005722119	0.059034047	0.018194867
2019-08-27T16:30:00	0.1793	18.745	0.0	0.403772478	0.455568686	0.005755331	0.059376690	0.018300473
2019-08-27T16:35:00	0.1784	18.734	0.0	0.401270208	0.451531320	0.005680734	0.058607087	0.018063273
2019-08-27T16:40:00	0.1799	18.646	0.0	0.405438437	0.458266165	0.005805323	0.059892446	0.018459434
2019-08-27T16:45:00	0.1801	18.625	0.0	0.405993364	0.459166374	0.005822033	0.060064843	0.018512568
2019-08-27T16:50:00	0.1792	18.554	0.0	0.403494646	0.455119565	0.005747019	0.059290940	0.018274044
2019-08-27T16:55:00	0.1808	18.479	0.0	0.407934070	0.462321238	0.005880702	0.060670114	0.018699118
2019-08-27T17:00:00	0.1788	18.410	0.0	0.402382823	0.453324393	0.005713830	0.058948536	0.018168511
2019-08-27T17:05:00	0.1829	18.335	0.0	0.413741944	0.471824394	0.006058411	0.062503510	0.019264189
2019-08-27T17:10:00	0.1831	18.245	0.0	0.414293971	0.472732474	0.006075469	0.062679495	0.019318429
2019-08-27T17:15:00	0.1840	18.203	0.0	0.416775737	0.476825323	0.006152518	0.063474396	0.019563425
2019-08-27T17:20:00	0.1837	18.153	0.0	0.415948909	0.475459860	0.006126783	0.063208890	0.019481594
2019-08-27T17:25:00	0.1833	18.069	0.0	0.414845807	0.473641078	0.006092551	0.062855721	0.019372744
2019-08-27T17:30:00	0.1842	17.982	0.0	0.417326719	0.477736289	0.006169704	0.063651700	0.019618072
2019-08-27T17:35:00	0.1854	17.920	0.0	0.420628660	0.483213097	0.006273308	0.064720557	0.019947504
2019-08-27T17:40:00	0.1852	17.852	0.0	0.420078806	0.482298984	0.006255982	0.064541815	0.019892414
2019-08-27T17:45:00	0.1836	17.778	0.0	0.415673205	0.475004967	0.006118216	0.063120508	0.019454353
2019-08-27T17:50:00	0.1829	17.699	0.0	0.413741944	0.471824394	0.006058411	0.062503510	0.019264189
2019-08-27T17:55:00	0.1851	17.638	0.0	0.419803808	0.481842124	0.006247328	0.064452533	0.019864897
2019-08-27T18:00:00	0.1858	17.562	0.0	0.421727809	0.485042897	0.006308028	0.065078763	0.020057907
2019-08-27T18:05:00	0.1848	17.480	0.0	0.418978535	0.480472332	0.006221401	0.064185049	0.019782456
2019-08-27T18:10:00	0.1855	17.401	0.0	0.420903517	0.483670350	0.006281979	0.064810019	0.019975077
2019-08-27T18:15:00	0.1862	17.370	0.0	0.422826213	0.486874796	0.006342842	0.065437928	0.020168605
2019-08-27T18:20:00	0.1853	17.382	0.0	0.420353756	0.482755975	0.006264642	0.064631156	0.019919950
2019-08-27T18:25:00	0.1857	17.387	0.0	0.421453092	0.484585251	0.006299339	0.064989121	0.020030278
2019-08-27T18:30:00	0.1850	17.376	0.0	0.419528764	0.481385396	0.006238680	0.064363312	0.019837398
2019-08-27T18:35:00	0.1873	17.341	0.0	0.425843007	0.491923340	0.006439059	0.066430587	0.020474552
2019-08-27T18:40:00	0.1874	17.296	0.0	0.426116985	0.492383086	0.006447841	0.066521189	0.020502476
2019-08-27T18:45:00	0.1880	17.243	0.0	0.427759888	0.495144313	0.006500655	0.067066063	0.020670412
2019-08-27T18:50:00	0.1883	17.182	0.0	0.428580723	0.496526698	0.006527141	0.067339312	0.020754630
2019-08-27T18:55:00	0.1878	17.119	0.0	0.427212437	0.494223379	0.006483027	0.066884198	0.020614359
2019-08-27T19:00:00	0.1886	17.052	0.0	0.429401148	0.497910263	0.006553679	0.067613101	0.020839015
2019-08-27T19:05:00	0.1896	16.998	0.0	0.432132951	0.502530673	0.006642519	0.068529644	0.021121502
2019-08-27T19:10:00	0.1894	16.959	0.0	0.431586952	0.501605542	0.006624704	0.068345854	0.021064856
2019-08-27T19:15:00	0.1883	16.915	0.0	0.428580723	0.496526698	0.006527141	0.067339312	0.020754630
2019-08-27T19:20:00	0.1886	16.887	0.0	0.429401148	0.497910263	0.006553679	0.067613101	0.020839015
2019-08-27T19:25:00	0.1899	16.886	0.0	0.432951613	0.503919354	0.006669285	0.068805780	0.021206610
2019-08-27T19:30:00	0.1882	16.884	0.0	0.428307157	0.496065772	0.006518307	0.067248169	0.020726539
2019-08-27T19:35:00	0.1876	16.870	0.0	0.426664802	0.493302970	0.006465423	0.066702573	0.020558381
2019-08-27T19:40:00	0.1889	16.858	0.0	0.430221164	0.499295009	0.006580270	0.067887432	0.020923566
2019-08-27T19:45:00	0.1891	16.843	0.0	0.430767615	0.500218828	0.006598026	0.068070621	0.020980026
2019-08-27T19:50:00	0.1900	16.834	0.0	0.433224410	0.504382510	0.006678218	0.068897946	0.021235016
2019-08-27T19:55:00	0.1906	16.809	0.0	0.434860253	0.507164200	0.006731942	0.069452206	0.021405844
2019-08-27T20:00:00	0.1885	16.769	0.0	0.429127718	0.497448944	0.006544827	0.067521778	0.020810868
2019-08-27T20:05:00	0.1881	16.725	0.0	0.428033545	0.495604977	0.006509478	0.067157086	0.020698466
2019-08-27T20:10:00	0.1876	16.684	0.0	0.426664802	0.493302970	0.006465423	0.066702573	0.020558381
2019-08-27T20:15:00	0.1881	16.640	0.0	0.428033545	0.495604977	0.006509478	0.067157086	0.020698466
2019-08-27T20:20:00	0.1884	16.614	0.0	0.428854243	0.496987755	0.006535981	0.067430515	0.020782740
2019-08-27T20:25:00	0.1886	16.600	0.0	0.429401148	0.497910263	0.006553679	0.067613101	0.020839015
2019-08-27T20:30:00	0.1890	16.579	0.0	0.430494412	0.499756853	0.006589145	0.067978996	0.020951787
2019-08-27T20:35:00	0.1902	16.553	0.0	0.433769870	0.505309215	0.006696103	0.069082459	0.021291885
2019-08-27T20:40:00	0.1887	16.529	0.0	0.429674532	0.498371714	0.006562537	0.067704485	0.020867180
2019-08-27T20:45:00	0.1906	16.492	0.0	0.434860253	0.507164200	0.006731942	0.069452206	0.021405844
2019-08-27T20:50:00	0.1907	16.462	0.0	0.435132737	0.507628274	0.006740917	0.069544793	0.021434381
2019-08-27T20:55:00	0.1904	16.433	0.0	0.434315151	0.506236445	0.006714011	0.069267212	0.021348827
2019-08-27T21:00:00	0.1900	16.401	0.0	0.433224410	0.504382510	0.006678218	0.068897946	0.021235016
2019-08-27T21:05:00	0.1889	16.373	0.0	0.430221164	0.499295009	0.006580270	0.067887432	0.020923566
2019-08-27T21:10:00	0.1902	16.339	0.0	0.433769870	0.505309215	0.006696103	0.069082459	0.021291885
2019-08-27T21:15:00	0.1904	16.310	0.0	0.434315151	0.506236445	0.006714011	0.069267212	0.021348827
2019-08-27T21:20:00	0.1922	16.279	0.0	0.439214667	0.514605126	0.006876234	0.070940837	0.021864655
2019-08-27T21:25:00	0.1919	16.244	0.0	0.438399078	0.513207395	0.006849065	0.070660543	0.021778266
2019-08-27T21:30:00	0.1905	16.211	0.0	0.434587724	0.506700257	0.006722974	0.069359679	0.021377327
2019-08-27T21:35:00	0.1912	16.182	0.0	0.436494489	0.509950612	0.006785876	0.070008634	0.021577341
2019-08-27T21:40:00	0.1910	16.151	0.0	0.435949922	0.509021283	0.006767875	0.069822917	0.021520101
2019-08-27T21:45:00	0.1898	16.130	0.0	0.432678771	0.503456329	0.006660357	0.068713675	0.021178222
2019-08-27T21:50:00	0.1904	16.109	0.0	0.434315151	0.506236445	0.006714011	0.069267212	0.021348827
2019-08-27T21:55:00	0.1892	16.077	0.0	0.431040772	0.500680935	0.006606913	0.068162305	0.021008284
2019-08-27T22:00:00	0.1906	16.049	0.0	0.434860253	0.507164200	0.006731942	0.069452206	0.021405844
2019-08-27T22:05:00	0.1899	16.025	0.0	0.433067485	0.504116057	0.006673078	0.068844919	0.021218673
2019-08-27T22:10:00	0.1899	16.004	0.0	0.433183350	0.504312784	0.006676873	0.068884069	0.021230739
2019-08-27T22:15:00	0.1895	15.980	0.0	0.431934832	0.502194887	0.006636051	0.068462920	0.021100937
2019-08-27T22:20:00	0.1885	15.955	0.0	0.429318835	0.497771368	0.006551014	0.067585602	0.020830539
2019-08-27T22:25:00	0.1910	15.934	0.0	0.435983604	0.509078739	0.006768987	0.069834395	0.021523639
2019-08-27T22:30:00	0.1914	15.915	0.0	0.437188125	0.511135532	0.006808848	0.070245626	0.021650384
2019-08-27T22:35:00	0.1933	15.893	0.0	0.442863127	0.520194211	0.006989356	0.072107899	0.022224355
2019-08-27T22:40:00	0.1921	15.872	0.0	0.439051009	0.514324503	0.006870777	0.070884538	0.021847303
2019-08-27T22:45:00	0.1902	15.854	0.0	0.433994174	0.505690535	0.006703466	0.069158421	0.021315297
2019-08-27T22:50:00	0.1919	15.832	0.0	0.438466343	0.513322601	0.006851303	0.070683635	0.021785383
2019-08-27T22:55:00	0.1910	15.810	0.0	0.436132944	0.509333527	0.006773922	0.069885301	0.021539328
2019-08-27T23:00:00	0.1895	15.793	0.0	0.431886411	0.502112837	0.006634471	0.068446618	0.021095913
2019-08-27T23:05:00	0.1917	15.780	0.0	0.437997003	0.512519016	0.006835696	0.070522612	0.021735754
2019-08-27T23:10:00	0.1903	15.768	0.0	0.434300516	0.506211548	0.006713530	0.069262249	0.021347298
2019-08-27T23:15:00	0.1915	15.753	0.0	0.437411969	0.511518206	0.006816271	0.070322211	0.021673988
2019-08-27T23:20:00	0.1910	15.737	0.0	0.436166623	0.509390994	0.006775035	0.069896784	0.021542868
2019-08-27T23:25:00	0.1934	15.724	0.0	0.442949527	0.520309794	0.006991818	0.072133301	0.022232184
2019-08-27T23:30:00	0.1915	15.711	0.0	0.437486577	0.511645784	0.006818746	0.070347748	0.021681859
2019-08-27T23:35:00	0.1904	15.696	0.0	0.434334232	0.506268906	0.006714638	0.069273682	0.021350822
2019-08-27T23:40:00	0.1902	15.684	0.0	0.433904771	0.505538532	0.006700530	0.069128138	0.021305963
2019-08-27T23:45:00	0.1896	15.673	0.0	0.432383906	0.502956164	0.006650717	0.068614220	0.021147569
2019-08-27T23:50:00	0.1883	15.663	0.0	0.428674875	0.496685382	0.006530183	0.067370698	0.020764303
2019-08-27T23:55:00	0.1879	15.653	0.0	0.427696651	0.495037893	0.006498618	0.067045040	0.020663932
2019-08-28T00:00:00	0.1892	15.642	0.0	0.431093672	0.500770451	0.006608635	0.068180069	0.021013760
2019-08-28T00:05:00	0.1868	15.630	0.0	0.424642010	0.489910473	0.006400649	0.066034314	0.020352417
2019-08-28T00:10:00	0.1867	15.619	0.0	0.424210012	0.489187424	0.006386867	0.065892129	0.020308594
2019-08-28T00:15:00	0.1873	15.610	0.0	0.425971204	0.492138434	0.006443167	0.066472971	0.020487615
2019-08-28T00:20:00	0.1877	15.605	0.0	0.427183041	0.494173952	0.006482082	0.066874441	0.020611352
2019-08-28T00:25:00	0.1879	15.598	0.0	0.427573053	0.494829923	0.006494636	0.067003962	0.020651272
2019-08-28T00:30:00	0.1883	15.589	0.0	0.428783707	0.496868836	0.006533701	0.067406988	0.020775488
2019-08-28T00:35:00	0.1872	15.579	0.0	0.425614704	0.491540397	0.006431747	0.066355146	0.020451300
2019-08-28T00:40:00	0.1855	15.568	0.0	0.421066093	0.483940911	0.006287111	0.064862970	0.019991397
2019-08-28T00:45:00	0.1881	15.555	0.0	0.428038008	0.495612491	0.006509622	0.067158571	0.020698924
2019-08-28T00:50:00	0.1869	15.545	0.0	0.424867561	0.490288191	0.006407852	0.066108625	0.020375320
2019-08-28T00:55:00	0.1879	15.539	0.0	0.427723155	0.495082494	0.006499472	0.067053851	0.020666648
2019-08-28T01:00:00	0.1884	15.523	0.0	0.428933698	0.497121726	0.006538551	0.067457022	0.020790909
2019-08-28T01:05:00	0.1897	15.509	0.0	0.432601072	0.503324510	0.006657816	0.068687459	0.021170142
2019-08-28T01:10:00	0.1906	15.497	0.0	0.434898401	0.507229159	0.006733198	0.069465164	0.021409838
2019-08-28T01:15:00	0.1905	15.490	0.0	0.434741635	0.506962243	0.006728038	0.069411924	0.021393429
2019-08-28T01:20:00	0.1909	15.475	0.0	0.435674702	0.508551924	0.006758788	0.069729172	0.021491208
2019-08-28T01:25:00	0.1894	15.465	0.0	0.431700044	0.501797095	0.006628392	0.068383898	0.021076581
2019-08-28T01:30:00	0.1886	15.458	0.0	0.429630503	0.498297384	0.006561110	0.067689763	0.020862642
2019-08-28T01:35:00	0.1914	15.448	0.0	0.437110637	0.511003095	0.006806279	0.070219127	0.021642217
2019-08-28T01:40:00	0.1897	15.435	0.0	0.432593747	0.503312083	0.006657576	0.068684988	0.021169380
2019-08-28T01:45:00	0.1893	15.425	0.0	0.431344785	0.501195483	0.006616812	0.068264434	0.021039762
2019-08-28T01:50:00	0.1881	15.407	0.0	0.428180723	0.495852816	0.006514226	0.067206071	0.020713564
2019-08-28T01:55:00	0.1888	15.392	0.0	0.430210950	0.499277749	0.006579938	0.067884011	0.020922512
2019-08-28T02:00:00	0.1879	15.382	0.0	0.427592212	0.494862157	0.006495253	0.067010328	0.020653234
2019-08-28T02:05:00	0.1897	15.375	0.0	0.432627498	0.503369340	0.006658680	0.068696375	0.021172890
2019-08-28T02:10:00	0.1878	15.361	0.0	0.427277273	0.494332406	0.006485114	0.066905721	0.020620993
2019-08-28T02:15:00	0.1891	15.352	0.0	0.430948333	0.500524530	0.006603905	0.068131270	0.020998719
2019-08-28T02:20:00	0.1888	15.341	0.0	0.429971459	0.498873139	0.006572166	0.067803824	0.020897797
2019-08-28T02:25:00	0.1882	15.335	0.0	0.428446966	0.496301309	0.006522821	0.067294739	0.020740892
2019-08-28T02:30:00	0.1870	15.326	0.0	0.425277312	0.490974739	0.006420950	0.066243754	0.020416968
2019-08-28T02:35:00	0.1873	15.317	0.0	0.425941786	0.492089071	0.006442225	0.066463243	0.020484617
2019-08-28T02:40:00	0.1865	15.307	0.0	0.423864965	0.488610279	0.006375872	0.065778696	0.020273633
2019-08-28T02:45:00	0.1880	15.300	0.0	0.427817357	0.495241037	0.006502508	0.067085172	0.020676301
2019-08-28T02:50:00	0.1881	15.295	0.0	0.428207219	0.495897441	0.006515081	0.067214891	0.020716282
2019-08-28T02:55:00	0.1882	15.287	0.0	0.428323425	0.496093176	0.006518832	0.067253587	0.020728209
2019-08-28T03:00:00	0.1874	15.272	0.0	0.426249628	0.492605741	0.006452095	0.066565080	0.020516004
2019-08-28T03:05:00	0.1877	15.260	0.0	0.427187506	0.494181460	0.006482225	0.066875923	0.020611809
2019-08-28T03:10:00	0.1882	15.253	0.0	0.428398443	0.496219556	0.006521254	0.067278574	0.020735910
2019-08-28T03:15:00	0.1862	15.242	0.0	0.423034390	0.487222366	0.006349453	0.065506135	0.020189627
2019-08-28T03:20:00	0.1863	15.234	0.0	0.423150964	0.487417050	0.006353157	0.065544349	0.020201405
2019-08-28T03:25:00	0.1864	15.222	0.0	0.423541941	0.488070271	0.006365589	0.065672611	0.020240936
2019-08-28T03:30:00	0.1850	15.213	0.0	0.419537737	0.481400292	0.006238962	0.064366221	0.019838295
2019-08-28T03:35:00	0.1860	15.199	0.0	0.422402690	0.486168056	0.006329404	0.065299298	0.020125878
2019-08-28T03:40:00	0.1852	15.189	0.0	0.420321340	0.482702086	0.006263621	0.064620619	0.019916702
2019-08-28T03:45:00	0.1852	15.173	0.0	0.420163174	0.482439188	0.006258639	0.064569221	0.019900861
2019-08-28T03:50:00	0.1863	15.167	0.0	0.423301473	0.487668461	0.006357941	0.065593706	0.020216617
2019-08-28T03:55:00	0.1847	15.152	0.0	0.418746365	0.480087315	0.006214119	0.064109921	0.019759300
2019-08-28T04:00:00	0.1869	15.140	0.0	0.424905942	0.490352479	0.006409078	0.066121276	0.020379219
2019-08-28T04:05:00	0.1861	15.127	0.0	0.422589682	0.486480031	0.006335335	0.065360484	0.020144736
2019-08-28T04:10:00	0.1865	15.116	0.0	0.423840418	0.488569233	0.006375090	0.065770631	0.020271147
2019-08-28T04:15:00	0.1868	15.103	0.0	0.424541848	0.489742783	0.006397452	0.066001331	0.020342251
2019-08-28T04:20:00	0.1872	15.095	0.0	0.425791086	0.491836238	0.006437396	0.066413425	0.020469263
2019-08-28T04:25:00	0.1870	15.091	0.0	0.425121645	0.490713861	0.006415972	0.066192398	0.020401140
2019-08-28T04:30:00	0.1882	15.085	0.0	0.428560274	0.496492238	0.006526481	0.067332496	0.020752529
2019-08-28T04:35:00	0.1899	15.082	0.0	0.433083274	0.504142863	0.006673595	0.068850253	0.021220317
2019-08-28T04:40:00	0.1890	15.083	0.0	0.430505336	0.499775321	0.006589500	0.067982659	0.020952916
2019-08-28T04:45:00	0.1894	15.097	0.0	0.431750047	0.501881800	0.006630023	0.068400722	0.021081767
2019-08-28T04:50:00	0.1913	15.102	0.0	0.436808819	0.510487407	0.006796280	0.070115970	0.021610423
2019-08-28T04:55:00	0.1880	15.112	0.0	0.427954760	0.495472332	0.006506937	0.067130873	0.020690387
2019-08-28T05:00:00	0.1910	15.121	0.0	0.436023300	0.509146458	0.006770299	0.069847924	0.021527809
2019-08-28T05:05:00	0.1888	15.134	0.0	0.430173838	0.499215040	0.006578734	0.067871582	0.020918681
2019-08-28T05:10:00	0.1917	15.142	0.0	0.437959634	0.512455060	0.006834454	0.070509801	0.021731805
2019-08-28T05:15:00	0.1907	15.149	0.0	0.435389255	0.508065346	0.006749372	0.069632025	0.021461266
2019-08-28T05:20:00	0.1918	15.164	0.0	0.438262815	0.512974053	0.006844532	0.070613780	0.021763853
2019-08-28T05:25:00	0.1928	15.182	0.0	0.440859944	0.517430413	0.006931241	0.071508339	0.022039565
2019-08-28T05:30:00	0.1911	15.202	0.0	0.436389309	0.509771053	0.006782397	0.069972741	0.021566278
2019-08-28T05:35:00	0.1914	15.220	0.0	0.437085423	0.510960005	0.006805443	0.070210506	0.021639560
2019-08-28T05:40:00	0.1914	15.250	0.0	0.437237100	0.511219246	0.006810471	0.070262378	0.021655547
2019-08-28T05:45:00	0.1903	15.278	0.0	0.434120442	0.505905254	0.006707613	0.069201205	0.021328484
2019-08-28T05:50:00	0.1910	15.306	0.0	0.436179514	0.509412992	0.006775461	0.069901180	0.021544222
2019-08-28T05:55:00	0.1904	15.340	0.0	0.434424321	0.506422185	0.006717600	0.069304237	0.021360239
2019-08-28T06:00:00	0.1897	15.386	0.0	0.432667274	0.503436823	0.006659981	0.068709795	0.021177026
2019-08-28T06:05:00	0.1903	15.428	0.0	0.434183000	0.506011652	0.006709668	0.069222409	0.021335019
2019-08-28T06:10:00	0.1905	15.494	0.0	0.434607512	0.506733936	0.006723624	0.069366394	0.021379396
2019-08-28T06:15:00	0.1918	15.535	0.0	0.438298453	0.513035075	0.006845718	0.070626008	0.021767622
2019-08-28T06:20:00	0.1901	15.616	0.0	0.433548254	0.504932602	0.006688833	0.069007456	0.021268768
2019-08-28T06:25:00	0.1910	15.672	0.0	0.436152713	0.509367260	0.006774575	0.069892041	0.021541406
2019-08-28T06:30:00	0.1916	15.741	0.0	0.437665271	0.511951410	0.006824677	0.070408936	0.021700718
2019-08-28T06:35:00	0.1904	15.795	0.0	0.434549414	0.506635056	0.006721713	0.069346678	0.021373320
2019-08-28T06:40:00	0.1894	15.845	0.0	0.431700755	0.501798300	0.006628415	0.068384137	0.021076655
2019-08-28T06:45:00	0.1883	15.895	0.0	0.428847180	0.496975847	0.006535753	0.067428159	0.020782013
2019-08-28T06:50:00	0.1863	15.969	0.0	0.423246580	0.487576760	0.006356196	0.065575702	0.020211068
2019-08-28T06:55:00	0.1873	16.034	0.0	0.425867369	0.491964211	0.006439840	0.066438640	0.020477034
2019-08-28T07:00:00	0.1879	16.088	0.0	0.427663079	0.494981398	0.006497536	0.067033881	0.020660493
2019-08-28T07:05:00	0.1866	16.153	0.0	0.423979740	0.488802222	0.006379528	0.065816415	0.020285258
2019-08-28T07:10:00	0.1866	16.217	0.0	0.424132626	0.489057957	0.006384400	0.065866678	0.020300750
2019-08-28T07:15:00	0.1866	16.283	0.0	0.424011213	0.488854862	0.006380531	0.065826760	0.020288447
2019-08-28T07:20:00	0.1879	16.383	0.0	0.427725883	0.495087085	0.006499560	0.067054758	0.020666928
2019-08-28T07:25:00	0.1881	16.448	0.0	0.428152057	0.495804540	0.006513301	0.067196528	0.020710623
2019-08-28T07:30:00	0.1882	16.544	0.0	0.428304554	0.496061387	0.006518223	0.067247302	0.020726272
2019-08-28T07:35:00	0.1859	16.623	0.0	0.422152940	0.485751526	0.006321489	0.065217633	0.020100708
2019-08-28T07:40:00	0.1856	16.710	0.0	0.421207241	0.484175869	0.006291570	0.064908963	0.020005573
2019-08-28T07:45:00	0.1858	16.834	0.0	0.421909808	0.485346201	0.006313788	0.065138191	0.020076223
2019-08-28T07:50:00	0.1866	16.970	0.0	0.423984214	0.488809705	0.006379671	0.065817885	0.020285711
2019-08-28T07:55:00	0.1838	17.108	0.0	0.416438808	0.476268675	0.006142023	0.063366122	0.019530054
2019-08-28T08:00:00	0.1848	17.221	0.0	0.419070627	0.480625093	0.006224291	0.064214864	0.019791645
2019-08-28T08:05:00	0.1842	17.358	0.0	0.417572413	0.478142776	0.006177377	0.063730860	0.019642470
2019-08-28T08:10:00	0.1850	17.508	0.0	0.419652382	0.481590646	0.006242566	0.064403403	0.019849754
2019-08-28T08:15:00	0.1868	17.577	0.0	0.424474293	0.489629699	0.006395296	0.065979091	0.020335397
2019-08-28T08:20:00	0.1862	17.584	0.0	0.422981074	0.487133338	0.006347759	0.065488663	0.020184242
2019-08-28T08:25:00	0.1876	17.508	0.0	0.426698085	0.493358884	0.006466492	0.066713603	0.020561780
2019-08-28T08:30:00	0.1870	17.434	0.0	0.425206900	0.490856730	0.006418698	0.066220522	0.020409808
2019-08-28T08:35:00	0.1884	17.345	0.0	0.428918860	0.497096707	0.006538071	0.067452072	0.020789384
2019-08-28T08:40:00	0.1882	17.282	0.0	0.428524272	0.496431568	0.006525318	0.067320498	0.020748831
2019-08-28T08:45:00	0.1905	17.210	0.0	0.434683388	0.506863087	0.006726121	0.069392149	0.021387334
2019-08-28T08:50:00	0.1897	17.154	0.0	0.432653768	0.503413909	0.006659539	0.068705238	0.021175622
2019-08-28T08:55:00	0.1883	17.183	0.0	0.428708117	0.496741413	0.006531258	0.067381781	0.020767719
2019-08-28T09:00:00	0.1895	17.253	0.0	0.431866282	0.502078730	0.006633815	0.068439842	0.021093824
2019-08-28T09:05:00	0.1880	17.406	0.0	0.427918744	0.495411700	0.006505776	0.067118892	0.020686694
2019-08-28T09:10:00	0.1872	17.561	0.0	0.425606758	0.491527072	0.006431492	0.066352521	0.020450492
2019-08-28T09:15:00	0.1863	17.755	0.0	0.423291496	0.487651792	0.006357624	0.065590433	0.020215609
2019-08-28T09:20:00	0.1860	17.858	0.0	0.422346461	0.486074263	0.006327622	0.065280907	0.020120209
2019-08-28T09:25:00	0.1852	17.953	0.0	0.420301504	0.482669111	0.006262996	0.064614172	0.019914715
2019-08-28T09:30:00	0.1851	17.927	0.0	0.419904824	0.482009919	0.006250506	0.064485321	0.019875002
2019-08-28T09:35:00	0.1860	17.906	0.0	0.422531002	0.486382121	0.006333474	0.065341279	0.020138817
2019-08-28T09:40:00	0.1860	17.846	0.0	0.422409470	0.486179366	0.006329619	0.065301516	0.020126561
2019-08-28T09:45:00	0.1865	17.873	0.0	0.423660344	0.488268175	0.006369357	0.065711484	0.020252917
2019-08-28T09:50:00	0.1856	17.849	0.0	0.421342308	0.484400757	0.006295837	0.064952994	0.020019143
2019-08-28T09:55:00	0.1846	17.930	0.0	0.418470548	0.479630108	0.006205475	0.064020739	0.019731813
2019-08-28T10:00:00	0.1854	17.875	0.0	0.420824231	0.483538428	0.006279477	0.064784205	0.019967121
2019-08-28T10:05:00	0.1848	17.873	0.0	0.419054982	0.480599141	0.006223800	0.064209799	0.019790084
2019-08-28T10:10:00	0.1845	17.888	0.0	0.418385219	0.479488705	0.006202802	0.063993164	0.019723315
2019-08-28T10:15:00	0.1860	17.884	0.0	0.422389815	0.486146578	0.006328996	0.065295087	0.020124580
2019-08-28T10:20:00	0.1857	17.871	0.0	0.421721431	0.485032270	0.006307826	0.065076681	0.020057265
2019-08-28T10:25:00	0.1852	17.894	0.0	0.420228136	0.482547158	0.006260685	0.064590328	0.019907366
2019-08-28T10:30:00	0.1868	17.866	0.0	0.424502433	0.489676804	0.006396194	0.065988355	0.020338252
2019-08-28T10:35:00	0.1852	17.870	0.0	0.420264602	0.482607771	0.006261833	0.064602179	0.019911019
2019-08-28T10:40:00	0.1834	17.978	0.0	0.415188413	0.474205604	0.006103170	0.062965281	0.019406511
2019-08-28T10:45:00	0.1838	18.238	0.0	0.416447360	0.476282801	0.006142290	0.063368869	0.019530901
2019-08-28T10:50:00	0.1847	18.469	0.0	0.418806460	0.480186958	0.006216003	0.064129362	0.019765292
2019-08-28T10:55:00	0.1840	18.718	0.0	0.417034995	0.477253863	0.006160601	0.063557786	0.019589127
2019-08-28T11:00:00	0.1834	18.901	0.0	0.415261574	0.474326196	0.006105439	0.062988692	0.019413726
2019-08-28T11:05:00	0.1830	19.039	0.0	0.414038302	0.472311796	0.006067565	0.062597951	0.019293296
2019-08-28T11:10:00	0.1834	19.157	0.0	0.415298153	0.474386496	0.006106574	0.063000398	0.019417335
2019-08-28T11:15:00	0.1819	19.223	0.0	0.411035976	0.467385220	0.005975215	0.061645187	0.018999645
2019-08-28T11:20:00	0.1825	19.297	0.0	0.412850727	0.470360118	0.006030933	0.062220024	0.019176816
2019-08-28T11:25:00	0.1815	19.328	0.0	0.409966169	0.465635737	0.005942515	0.061307833	0.018895669
2019-08-28T11:30:00	0.1807	19.430	0.0	0.407907803	0.462278469	0.005879905	0.060661897	0.018696586
2019-08-28T11:35:00	0.1827	19.700	0.0	0.413319933	0.471130755	0.006045390	0.062369175	0.019222786
2019-08-28T11:40:00	0.1817	19.712	0.0	0.410436227	0.466404048	0.005956869	0.061455923	0.018941312
2019-08-28T11:45:00	0.1807	19.748	0.0	0.407824385	0.462142657	0.005877376	0.060635807	0.018688545
2019-08-28T11:50:00	0.1806	19.775	0.0	0.407427072	0.461496054	0.005865340	0.060511636	0.018650274
2019-08-28T11:55:00	0.1817	19.771	0.0	0.410629569	0.466720241	0.005962780	0.061516898	0.018960105
2019-08-28T12:00:00	0.1822	19.694	0.0	0.411892116	0.468787552	0.006001462	0.061915973	0.019083104
2019-08-28T12:05:00	0.1815	19.781	0.0	0.410112968	0.465875614	0.005946996	0.061354058	0.018909917
2019-08-28T12:10:00	0.1822	19.874	0.0	0.411928773	0.468847639	0.006002587	0.061927583	0.019086683
2019-08-28T12:15:00	0.1830	19.826	0.0	0.414018544	0.472279294	0.006066955	0.062591652	0.019291355
2019-08-28T12:20:00	0.1821	19.715	0.0	0.411689035	0.468454729	0.005995229	0.061851676	0.019063287
2019-08-28T12:25:00	0.1841	19.674	0.0	0.417088352	0.477342081	0.006162265	0.063574957	0.019594419
2019-08-28T12:30:00	0.1844	19.662	0.0	0.418070517	0.478967373	0.006192950	0.063891527	0.019691989
2019-08-28T12:35:00	0.1834	19.723	0.0	0.415195380	0.474217087	0.006103386	0.062967510	0.019407198
2019-08-28T12:40:00	0.1841	19.674	0.0	0.417280889	0.477660484	0.006168273	0.063636940	0.019613523
2019-08-28T12:45:00	0.1829	19.747	0.0	0.413852346	0.472005937	0.006061820	0.062538682	0.019275029
2019-08-28T12:50:00	0.1821	19.783	0.0	0.411799016	0.468634959	0.005998604	0.061886492	0.019074018
2019-08-28T12:55:00	0.1839	19.700	0.0	0.416646935	0.476612490	0.006148505	0.063432991	0.019550664
2019-08-28T13:00:00	0.1845	19.667	0.0	0.418180060	0.479148810	0.006196378	0.063926894	0.019702890
2019-08-28T13:05:00	0.1817	19.727	0.0	0.410609769	0.466687856	0.005962174	0.061510652	0.018958180
2019-08-28T13:10:00	0.1794	19.694	0.0	0.404114563	0.456121963	0.005765575	0.059482375	0.018333046
2019-08-28T13:15:00	0.1826	19.653	0.0	0.413133894	0.470825126	0.006039655	0.062310011	0.019204551
2019-08-28T13:20:00	0.1810	19.702	0.0	0.408588974	0.463388197	0.005900580	0.060875196	0.018762327
2019-08-28T13:25:00	0.1816	19.776	0.0	0.410406524	0.466355480	0.005955962	0.061446559	0.018938426
2019-08-28T13:30:00	0.1811	19.787	0.0	0.408902634	0.463899623	0.005910115	0.060973567	0.018792646
2019-08-28T13:35:00	0.1799	19.735	0.0	0.405455945	0.458294553	0.005805850	0.059897881	0.018461109
2019-08-28T13:40:00	0.1810	19.779	0.0	0.408662438	0.463507958	0.005902812	0.060898228	0.018769425
2019-08-28T13:45:00	0.1820	19.849	0.0	0.411309570	0.467833140	0.005983595	0.061731643	0.019026292
2019-08-28T13:50:00	0.1812	19.845	0.0	0.409252950	0.464471136	0.005920775	0.061083548	0.018826543
2019-08-28T13:55:00	0.1797	19.760	0.0	0.404974465	0.457514150	0.005791374	0.059748536	0.018415079
2019-08-28T14:00:00	0.1819	19.730	0.0	0.411226332	0.467696843	0.005981044	0.061705332	0.019018183
2019-08-28T14:05:00	0.1814	19.722	0.0	0.409723220	0.465238873	0.005935104	0.061231377	0.018872105
2019-08-28T14:10:00	0.1789	19.796	0.0	0.402668441	0.453785236	0.005722345	0.059036382	0.018195586
2019-08-28T14:15:00	0.1799	19.761	0.0	0.405603163	0.458533298	0.005810280	0.059943590	0.018475197
2019-08-28T14:20:00	0.1792	19.771	0.0	0.403539082	0.455191383	0.005748348	0.059304650	0.018278269
2019-08-28T14:25:00	0.1798	19.720	0.0	0.405362464	0.458142987	0.005803037	0.059868867	0.018452166
2019-08-28T14:30:00	0.1822	19.680	0.0	0.411889205	0.468782780	0.006001372	0.061915051	0.019082820
2019-08-28T14:35:00	0.1820	19.734	0.0	0.411492911	0.468133415	0.005989214	0.061789620	0.019044161
2019-08-28T14:40:00	0.1825	19.757	0.0	0.412754773	0.470202596	0.006027979	0.062189548	0.019167423
2019-08-28T14:45:00	0.1820	19.783	0.0	0.411253108	0.467740684	0.005981865	0.061713795	0.019020791
2019-08-28T14:50:00	0.1810	19.769	0.0	0.408642614	0.463475639	0.005902210	0.060892012	0.018767510
2019-08-28T14:55:00	0.1830	19.767	0.0	0.414052245	0.472334732	0.006067996	0.062602396	0.019294666
2019-08-28T15:00:00	0.1807	19.674	0.0	0.407848300	0.462181591	0.005878101	0.060643286	0.018690850
2019-08-28T15:05:00	0.1806	19.640	0.0	0.407450993	0.461534972	0.005866065	0.060519107	0.018652577
2019-08-28T15:10:00	0.1794	19.578	0.0	0.404278862	0.456387808	0.005770499	0.059533174	0.018348702
2019-08-28T15:15:00	0.1784	19.484	0.0	0.401378556	0.451705783	0.005683952	0.058640285	0.018073505
2019-08-28T15:20:00	0.1789	19.424	0.0	0.402926524	0.454201842	0.005730046	0.059115828	0.018220072
2019-08-28T15:25:00	0.1797	19.397	0.0	0.405028228	0.457601261	0.005792989	0.059765201	0.018420215
2019-08-28T15:30:00	0.1787	19.319	0.0	0.402129313	0.452915543	0.005706279	0.058870631	0.018144500
2019-08-28T15:35:00	0.1786	19.303	0.0	0.402008700	0.452721086	0.005702689	0.058833588	0.018133083
2019-08-28T15:40:00	0.1769	19.277	0.0	0.397152450	0.444924556	0.005559254	0.057353798	0.017676998
2019-08-28T15:45:00	0.1781	19.248	0.0	0.400654394	0.450540335	0.005662466	0.058418616	0.018005185
2019-08-28T15:50:00	0.1783	19.197	0.0	0.401090337	0.451241760	0.005675395	0.058551999	0.018046295
2019-08-28T15:55:00	0.1775	19.183	0.0	0.399020276	0.447915680	0.005614161	0.057920267	0.017851589
2019-08-28T16:00:00	0.1794	19.201	0.0	0.404185312	0.456236429	0.005767695	0.059504246	0.018339786
2019-08-28T16:05:00	0.1789	19.238	0.0	0.402837867	0.454058708	0.005727400	0.059088529	0.018211659
2019-08-28T16:10:00	0.1780	19.295	0.0	0.400376006	0.450092685	0.005654219	0.058333535	0.017978962
2019-08-28T16:15:00	0.1799	19.419	0.0	0.405698672	0.458688216	0.005813156	0.059973255	0.018484340
2019-08-28T16:20:00	0.1811	19.364	0.0	0.408789535	0.463715183	0.005906676	0.060938086	0.018781710
2019-08-28T16:25:00	0.1807	19.262	0.0	0.407723168	0.461977891	0.005874309	0.060604159	0.018678790
2019-08-28T16:30:00	0.1803	19.182	0.0	0.406656079	0.460242542	0.005842027	0.060271118	0.018576144
2019-08-28T16:35:00	0.1811	19.138	0.0	0.408914583	0.463919112	0.005910478	0.060977317	0.018793801
2019-08-28T16:40:00	0.1810	19.099	0.0	0.408679346	0.463535521	0.005903326	0.060903529	0.018771059
2019-08-28T16:45:00	0.1794	19.044	0.0	0.404283832	0.456395851	0.005770648	0.059534711	0.018349176
2019-08-28T16:50:00	0.1794	18.976	0.0	0.404047901	0.456014121	0.005763578	0.059461771	0.018326695
2019-08-28T16:55:00	0.1797	18.953	0.0	0.404922743	0.457430355	0.005789820	0.059732507	0.018410139
2019-08-28T17:00:00	0.1788	18.901	0.0	0.402464168	0.453455620	0.005716255	0.058973547	0.018176220
2019-08-28T17:05:00	0.1808	18.851	0.0	0.408056832	0.462521151	0.005884425	0.060708525	0.018710957
2019-08-28T17:10:00	0.1803	18.761	0.0	0.406712706	0.460334553	0.005843738	0.060288764	0.018581583
2019-08-28T17:15:00	0.1783	18.673	0.0	0.401199012	0.451416697	0.005678620	0.058585279	0.018056552
2019-08-28T17:20:00	0.1792	18.616	0.0	0.403743215	0.455521372	0.005754455	0.059367655	0.018297688
2019-08-28T17:25:00	0.1795	18.534	0.0	0.404340545	0.456487633	0.005772348	0.059552252	0.018354582
2019-08-28T17:30:00	0.1822	18.442	0.0	0.411862440	0.468738910	0.006000551	0.061906575	0.019080208
2019-08-28T17:35:00	0.1794	18.356	0.0	0.404146430	0.456173520	0.005766530	0.059492225	0.018336082
2019-08-28T17:40:00	0.1806	18.261	0.0	0.407517511	0.461643199	0.005868079	0.060539887	0.018658981
2019-08-28T17:45:00	0.1814	18.186	0.0	0.409774784	0.465323091	0.005936677	0.061247599	0.018877105
2019-08-28T17:50:00	0.1815	18.123	0.0	0.410093161	0.465843246	0.005946391	0.061347820	0.018907994
2019-08-28T17:55:00	0.1822	18.053	0.0	0.412070444	0.469079902	0.006006937	0.061972467	0.019100516
2019-08-28T18:00:00	0.1829	17.992	0.0	0.413769241	0.471869277	0.006059254	0.062512205	0.019266869
2019-08-28T18:05:00	0.1822	17.951	0.0	0.411877278	0.468763231	0.006001006	0.061911274	0.019081656
2019-08-28T18:10:00	0.1823	17.961	0.0	0.412195234	0.469284533	0.006010771	0.062012018	0.019112706
2019-08-28T18:15:00	0.1819	17.962	0.0	0.411131157	0.467541023	0.005978129	0.061675256	0.019008913
2019-08-28T18:20:00	0.1836	17.955	0.0	0.415866474	0.475323826	0.006124221	0.063182456	0.019473447
2019-08-28T18:25:00	0.1825	17.927	0.0	0.412872533	0.470395919	0.006031604	0.062226950	0.019178950
2019-08-28T18:30:00	0.1833	17.905	0.0	0.414846370	0.473642004	0.006092568	0.062855900	0.019372799
2019-08-28T18:35:00	0.1843	17.889	0.0	0.417644155	0.478261500	0.006179619	0.063753985	0.019649597
2019-08-28T18:40:00	0.1833	17.870	0.0	0.414929419	0.473778819	0.006095141	0.062882448	0.019380981
2019-08-28T18:45:00	0.1840	17.836	0.0	0.416900721	0.477031893	0.006156414	0.063514589	0.019575813
2019-08-28T18:50:00	0.1823	17.794	0.0	0.412251663	0.469377079	0.006012505	0.062029908	0.019118220
2019-08-28T18:55:00	0.1851	17.760	0.0	0.420011345	0.482186891	0.006253859	0.064519906	0.019885662
2019-08-28T19:00:00	0.1853	17.722	0.0	0.420602601	0.483169756	0.006272486	0.064712080	0.019944891
2019-08-28T19:05:00	0.1848	17.681	0.0	0.418993868	0.480497765	0.006221882	0.064190013	0.019783985
2019-08-28T19:10:00	0.1839	17.641	0.0	0.416557014	0.476463931	0.006145704	0.063404095	0.019541758
2019-08-28T19:15:00	0.1824	17.597	0.0	0.412459617	0.469718211	0.006018898	0.062095863	0.019138548
2019-08-28T19:20:00	0.1845	17.556	0.0	0.418292495	0.479335072	0.006199898	0.063963207	0.019714082
2019-08-28T19:25:00	0.1854	17.514	0.0	0.420809475	0.483513878	0.006279011	0.064779401	0.019965641
2019-08-28T19:30:00	0.1858	17.457	0.0	0.421949845	0.485412936	0.006315056	0.065151269	0.020080254
2019-08-28T19:35:00	0.1861	17.432	0.0	0.422814927	0.486855956	0.006342483	0.065434232	0.020167466
2019-08-28T19:40:00	0.1872	17.391	0.0	0.425598967	0.491514007	0.006431243	0.066349948	0.020449698
2019-08-28T19:45:00	0.1862	17.353	0.0	0.422897567	0.486993914	0.006345107	0.065461302	0.020175809
2019-08-28T19:50:00	0.1872	17.336	0.0	0.425681466	0.491652366	0.006433885	0.066377202	0.020458098
2019-08-28T19:55:00	0.1855	17.325	0.0	0.421057690	0.483926923	0.006286846	0.064860232	0.019990553
2019-08-28T20:00:00	0.1876	17.322	0.0	0.426859649	0.493630354	0.006471683	0.066767160	0.020578287
2019-08-28T20:05:00	0.1875	17.296	0.0	0.426627021	0.493239502	0.006464209	0.066690054	0.020554522
2019-08-28T20:10:00	0.1869	17.241	0.0	0.424750084	0.490091442	0.006404100	0.066069915	0.020363389
2019-08-28T20:15:00	0.1859	17.173	0.0	0.422047274	0.485575351	0.006318141	0.065183100	0.020090064
2019-08-28T20:20:00	0.1857	17.118	0.0	0.421539255	0.484728766	0.006302064	0.065017229	0.020038941
2019-08-28T20:25:00	0.1869	17.074	0.0	0.424873896	0.490298802	0.006408054	0.066110713	0.020375964
2019-08-28T20:30:00	0.1872	16.992	0.0	0.425737426	0.491746225	0.006435677	0.066395692	0.020463797
2019-08-28T20:35:00	0.1865	16.953	0.0	0.423859465	0.488601083	0.006375697	0.065776889	0.020273076
2019-08-28T20:40:00	0.1861	16.919	0.0	0.422803081	0.486836182	0.006342107	0.065430352	0.020166270
2019-08-28T20:45:00	0.1865	16.884	0.0	0.423667709	0.488280487	0.006369592	0.065713902	0.020253663
2019-08-28T20:50:00	0.1856	16.853	0.0	0.421237897	0.484226907	0.006292538	0.064918955	0.020008652
2019-08-28T20:55:00	0.1881	16.820	0.0	0.428134051	0.495774217	0.006512720	0.067190535	0.020708775
2019-08-28T21:00:00	0.1873	16.785	0.0	0.425984889	0.492161398	0.006443606	0.066477496	0.020489010
2019-08-28T21:05:00	0.1867	16.716	0.0	0.424381483	0.489474359	0.006392335	0.065948544	0.020325982
2019-08-28T21:10:00	0.1871	16.661	0.0	0.425519351	0.491380500	0.006428694	0.066323653	0.020441594
2019-08-28T21:15:00	0.1860	16.614	0.0	0.422543286	0.486402616	0.006333863	0.065345299	0.020140056
2019-08-28T21:20:00	0.1850	16.590	0.0	0.419561757	0.481440171	0.006239717	0.064374011	0.019840695
2019-08-28T21:25:00	0.1860	16.575	0.0	0.422351374	0.486082459	0.006327777	0.065282514	0.020120705
2019-08-28T21:30:00	0.1877	16.566	0.0	0.427053915	0.493956866	0.006477928	0.066831593	0.020598146
2019-08-28T21:35:00	0.1883	16.550	0.0	0.428737052	0.496790188	0.006532193	0.067391429	0.020770693
2019-08-28T21:40:00	0.1874	16.531	0.0	0.426314782	0.492715127	0.006454186	0.066586645	0.020522651
2019-08-28T21:45:00	0.1866	16.508	0.0	0.424163227	0.489109150	0.006385375	0.065876741	0.020303852
2019-08-28T21:50:00	0.1876	16.487	0.0	0.426671130	0.493313600	0.006465626	0.066704670	0.020559027
2019-08-28T21:55:00	0.1861	16.462	0.0	0.422599353	0.486496169	0.006335642	0.065363649	0.020145711
2019-08-28T22:00:00	0.1875	16.438	0.0	0.426479704	0.492992064	0.006459479	0.066641253	0.020539481
2019-08-28T22:05:00	0.1877	16.418	0.0	0.427187351	0.494181199	0.006482220	0.066875871	0.020611793
2019-08-28T22:10:00	0.1885	16.397	0.0	0.429262410	0.497676165	0.006549187	0.067566755	0.020824730
2019-08-28T22:15:00	0.1888	16.366	0.0	0.429968859	0.498868747	0.006572081	0.067802953	0.020897529
2019-08-28T22:20:00	0.1879	16.342	0.0	0.427667109	0.494988180	0.006497666	0.067035220	0.020660906
2019-08-28T22:25:00	0.1895	16.317	0.0	0.431926916	0.502181474	0.006635793	0.068460255	0.021100115
2019-08-28T22:30:00	0.1892	16.285	0.0	0.431267302	0.501064318	0.006614289	0.068238396	0.021031736
2019-08-28T22:35:00	0.1881	16.256	0.0	0.428146726	0.495795563	0.006513129	0.067194754	0.020710076
2019-08-28T22:40:00	0.1878	16.227	0.0	0.427211847	0.494222389	0.006483008	0.066884002	0.020614299
2019-08-28T22:45:00	0.1879	16.200	0.0	0.427645502	0.494951822	0.006496970	0.067028039	0.020658692
2019-08-28T22:50:00	0.1882	16.171	0.0	0.428352646	0.496142401	0.006519775	0.067263319	0.020731208
2019-08-28T22:55:00	0.1899	16.148	0.0	0.433156346	0.504266931	0.006675989	0.068874944	0.021227926
2019-08-28T23:00:00	0.1885	16.122	0.0	0.429219238	0.497603329	0.006547789	0.067552337	0.020820286
2019-08-28T23:05:00	0.1893	16.099	0.0	0.431564809	0.501568040	0.006623983	0.068338407	0.021062561
2019-08-28T23:10:00	0.1888	16.077	0.0	0.430085374	0.499065574	0.006575862	0.067841958	0.020909550
2019-08-28T23:15:00	0.1900	16.057	0.0	0.433248230	0.504422961	0.006678999	0.068905998	0.021237498
2019-08-28T23:20:00	0.1912	16.038	0.0	0.436677298	0.510262769	0.006791926	0.070071046	0.021596577
2019-08-28T23:25:00	0.1893	16.021	0.0	0.431383725	0.501261410	0.006618081	0.068277523	0.021043796
2019-08-28T23:30:00	0.1891	16.001	0.0	0.430997059	0.500606970	0.006605490	0.068147628	0.021003761
2019-08-28T23:35:00	0.1879	15.980	0.0	0.427602287	0.494879109	0.006495578	0.067013677	0.020654266
2019-08-28T23:40:00	0.1881	15.955	0.0	0.428035839	0.495608839	0.006509552	0.067157849	0.020698701
2019-08-28T23:45:00	0.1901	15.932	0.0	0.433658772	0.505120399	0.006692458	0.069044853	0.021280294
2019-08-28T23:50:00	0.1886	15.909	0.0	0.429449486	0.497991840	0.006555245	0.067629254	0.020843993
2019-08-28T23:55:00	0.1866	15.884	0.0	0.424132626	0.489057957	0.006384400	0.065866678	0.020300750
2019-08-29T00:00:00	0.1871	15.864	0.0	0.425389535	0.491162853	0.006424540	0.066280793	0.020428384
2019-08-29T00:05:00	0.1867	15.845	0.0	0.424453079	0.489594190	0.006394619	0.065972108	0.020333244
2019-08-29T00:10:00	0.1857	15.826	0.0	0.421594206	0.484820304	0.006303802	0.065035158	0.020044467
2019-08-29T00:15:00	0.1847	15.809	0.0	0.418730281	0.480060648	0.006213615	0.064104719	0.019757697
2019-08-29T00:20:00	0.1849	15.788	0.0	0.419441309	0.481240216	0.006235932	0.064334958	0.019828659
2019-08-29T00:25:00	0.1834	15.767	0.0	0.415195099	0.474216623	0.006103377	0.062967420	0.019407170
2019-08-29T00:30:00	0.1862	15.746	0.0	0.423059664	0.487264571	0.006350256	0.065514419	0.020192180
2019-08-29T00:35:00	0.1856	15.729	0.0	0.421297774	0.484326603	0.006294430	0.064938474	0.020014668
2019-08-29T00:40:00	0.1850	15.714	0.0	0.419533967	0.481394033	0.006238844	0.064364999	0.019837918
2019-08-29T00:45:00	0.1834	15.700	0.0	0.415288001	0.474369760	0.006106259	0.062997149	0.019416333
2019-08-29T00:50:00	0.1854	15.674	0.0	0.420680155	0.483298748	0.006274932	0.064737312	0.019952668
2019-08-29T00:55:00	0.1844	15.658	0.0	0.418089944	0.478999548	0.006193558	0.063897799	0.019693922
2019-08-29T01:00:00	0.1828	15.641	0.0	0.413564085	0.471531995	0.006052921	0.062446872	0.019246732
2019-08-29T01:05:00	0.1813	15.623	0.0	0.409579019	0.465003394	0.005930708	0.061186024	0.018858127
2019-08-29T01:10:00	0.1832	15.609	0.0	0.414714538	0.473424865	0.006088485	0.062813773	0.019359815
2019-08-29T01:15:00	0.1825	15.594	0.0	0.412667261	0.470058954	0.006025286	0.062161762	0.019158859
2019-08-29T01:20:00	0.1815	15.579	0.0	0.410064047	0.465795668	0.005945502	0.061338651	0.018905168
2019-08-29T01:25:00	0.1806	15.565	0.0	0.407456549	0.461544012	0.005866233	0.060520843	0.018653112
2019-08-29T01:30:00	0.1819	15.556	0.0	0.411217031	0.467681614	0.005980759	0.061702393	0.019017277
2019-08-29T01:35:00	0.1812	15.545	0.0	0.409165245	0.464328021	0.005918105	0.061056002	0.018818053
2019-08-29T01:40:00	0.1828	15.530	0.0	0.413473991	0.471383914	0.006050141	0.062418194	0.019237894
2019-08-29T01:45:00	0.1807	15.515	0.0	0.407827022	0.462146949	0.005877456	0.060636632	0.018688799
2019-08-29T01:50:00	0.1820	15.499	0.0	0.411310165	0.467834114	0.005983613	0.061731831	0.019026350
2019-08-29T01:55:00	0.1818	15.482	0.0	0.410918675	0.467193242	0.005971624	0.061608143	0.018988228
2019-08-29T02:00:00	0.1833	15.461	0.0	0.414946853	0.473807542	0.006095681	0.062888022	0.019382699
2019-08-29T02:05:00	0.1810	15.445	0.0	0.408751363	0.463652941	0.005905515	0.060926113	0.018778020
2019-08-29T02:10:00	0.1811	15.435	0.0	0.408913140	0.463916759	0.005910435	0.060976864	0.018793662
2019-08-29T02:15:00	0.1809	15.409	0.0	0.408244064	0.462826129	0.005890106	0.060767136	0.018729021
2019-08-29T02:20:00	0.1800	15.378	0.0	0.405911008	0.459032722	0.005819551	0.060039239	0.018504676
2019-08-29T02:25:00	0.1802	15.354	0.0	0.406350453	0.459746094	0.005832801	0.060175937	0.018546808
2019-08-29T02:30:00	0.1798	15.340	0.0	0.405402793	0.458208372	0.005804251	0.059881383	0.018456024
2019-08-29T02:35:00	0.1796	15.329	0.0	0.404732223	0.457121754	0.005784099	0.059673483	0.018391947
2019-08-29T02:40:00	0.1790	15.311	0.0	0.402949946	0.454239661	0.005730745	0.059123041	0.018222295
2019-08-29T02:45:00	0.1777	15.286	0.0	0.399495109	0.448677587	0.005628172	0.058064809	0.017896138
2019-08-29T02:50:00	0.1787	15.268	0.0	0.402162701	0.452969380	0.005707273	0.058880888	0.018147661
2019-08-29T02:55:00	0.1780	15.252	0.0	0.400377488	0.450095068	0.005654263	0.058333988	0.017979102
2019-08-29T03:00:00	0.1782	15.250	0.0	0.400818490	0.450804302	0.005667330	0.058468802	0.018020653
2019-08-29T03:05:00	0.1782	15.241	0.0	0.400981087	0.451065930	0.005672153	0.058518555	0.018035987
2019-08-29T03:10:00	0.1790	15.232	0.0	0.403090381	0.454466440	0.005734938	0.059166301	0.018235629
2019-08-29T03:15:00	0.1799	15.219	0.0	0.405474364	0.458324420	0.005806404	0.059903598	0.018462871
2019-08-29T03:20:00	0.1790	15.214	0.0	0.403137189	0.454542041	0.005736336	0.059180725	0.018240074
2019-08-29T03:25:00	0.1795	15.214	0.0	0.404410717	0.456601209	0.005774452	0.059573961	0.018361273
2019-08-29T03:30:00	0.1824	15.201	0.0	0.412604746	0.469956353	0.006023362	0.062141917	0.019152742
2019-08-29T03:35:00	0.1808	15.181	0.0	0.408063265	0.462531628	0.005884620	0.060710538	0.018711577
2019-08-29T03:40:00	0.1812	15.160	0.0	0.409055960	0.464149721	0.005914779	0.061021689	0.018807477
2019-08-29T03:45:00	0.1809	15.148	0.0	0.408386943	0.463058927	0.005894443	0.060811886	0.018742814
2019-08-29T03:50:00	0.1810	15.136	0.0	0.408548758	0.463322644	0.005899358	0.060862591	0.018758442
2019-08-29T03:55:00	0.1795	15.114	0.0	0.404551020	0.456828337	0.005778661	0.059617379	0.018374655
2019-08-29T04:00:00	0.1805	15.093	0.0	0.407210011	0.461142983	0.005858771	0.060443863	0.018629386
2019-08-29T04:05:00	0.1791	15.076	0.0	0.403329383	0.454852515	0.005742079	0.059239969	0.018258334
2019-08-29T04:10:00	0.1817	15.059	0.0	0.410542817	0.466578354	0.005960127	0.061489534	0.018951672
2019-08-29T04:15:00	0.1817	15.049	0.0	0.410547767	0.466586450	0.005960279	0.061491096	0.018952153
2019-08-29T04:20:00	0.1809	15.048	0.0	0.408338252	0.462979586	0.005892965	0.060796633	0.018738113
2019-08-29T04:25:00	0.1818	15.024	0.0	0.410834258	0.467055104	0.005969041	0.061581491	0.018980014
2019-08-29T04:30:00	0.1819	15.018	0.0	0.411115748	0.467515798	0.005977657	0.061670388	0.019007412
2019-08-29T04:35:00	0.1828	15.001	0.0	0.413607395	0.471603188	0.006054258	0.062460661	0.019250982
2019-08-29T04:40:00	0.1836	14.996	0.0	0.415819478	0.475246282	0.006122760	0.063167389	0.019468803
2019-08-29T04:45:00	0.1845	15.001	0.0	0.418303813	0.479353823	0.006200253	0.063966864	0.019715209
2019-08-29T04:50:00	0.1825	15.004	0.0	0.412793756	0.470266589	0.006029179	0.062201928	0.019171238
2019-08-29T04:55:00	0.1830	15.007	0.0	0.414179224	0.472543646	0.006071921	0.062642889	0.019307147
2019-08-29T05:00:00	0.1833	15.015	0.0	0.415011902	0.473914719	0.006097697	0.062908821	0.019389109
2019-08-29T05:05:00	0.1828	15.031	0.0	0.413637038	0.471651919	0.006055173	0.062470100	0.019253891
2019-08-29T05:10:00	0.1826	15.053	0.0	0.413089727	0.470752582	0.006038294	0.062295970	0.019200223
2019-08-29T05:15:00	0.1843	15.071	0.0	0.417782733	0.478490871	0.006183950	0.063798670	0.019663370
2019-08-29T05:20:00	0.1828	15.085	0.0	0.413651860	0.471676286	0.006055630	0.062474819	0.019255346
2019-08-29T05:25:00	0.1836	15.101	0.0	0.415863882	0.475319550	0.006124140	0.063181625	0.019473190
2019-08-29T05:30:00	0.1851	15.114	0.0	0.419998918	0.482166244	0.006253467	0.064515871	0.019884418
2019-08-29T05:35:00	0.1847	15.126	0.0	0.418903517	0.480347911	0.006219048	0.064160768	0.019774972
2019-08-29T05:40:00	0.1847	15.137	0.0	0.418908442	0.480356078	0.006219202	0.064162362	0.019775463
2019-08-29T05:45:00	0.1853	15.147	0.0	0.420563558	0.483104824	0.006271255	0.064699379	0.019940977
2019-08-29T05:50:00	0.1869	15.159	0.0	0.424960778	0.490444339	0.006410830	0.066139352	0.020384791
2019-08-29T05:55:00	0.1854	15.173	0.0	0.420848263	0.483578413	0.006280235	0.064792029	0.019969532
2019-08-29T06:00:00	0.1838	15.188	0.0	0.416449701	0.476286668	0.006142362	0.063369621	0.019531133
2019-08-29T06:05:00	0.1844	15.201	0.0	0.418107344	0.479028366	0.006194103	0.063903416	0.019695653
2019-08-29T06:10:00	0.1858	15.219	0.0	0.421962009	0.485433211	0.006315441	0.065155242	0.020081478
2019-08-29T06:15:00	0.1853	15.237	0.0	0.420593074	0.483153911	0.006272185	0.064708980	0.019943936
2019-08-29T06:20:00	0.1835	15.266	0.0	0.415642443	0.474954226	0.006117261	0.063110651	0.019451316
2019-08-29T06:25:00	0.1851	15.292	0.0	0.420053049	0.482256185	0.006255171	0.064533449	0.019889836
2019-08-29T06:30:00	0.1852	15.327	0.0	0.420332924	0.482721343	0.006263986	0.064624384	0.019917863
2019-08-29T06:35:00	0.1865	15.372	0.0	0.423907999	0.488682242	0.006377243	0.065792837	0.020277991
2019-08-29T06:40:00	0.1848	15.435	0.0	0.419242673	0.480910545	0.006229692	0.064270587	0.019808819
2019-08-29T06:45:00	0.1832	15.502	0.0	0.414839714	0.473631041	0.006092362	0.062853773	0.019372143
2019-08-29T06:50:00	0.1849	15.588	0.0	0.419252520	0.480926885	0.006230002	0.064273777	0.019809802
2019-08-29T06:55:00	0.1829	15.667	0.0	0.413745728	0.471830615	0.006058528	0.062504715	0.019264560
2019-08-29T07:00:00	0.1837	15.760	0.0	0.415957620	0.475474237	0.006127054	0.063211684	0.019482455
2019-08-29T07:05:00	0.1815	15.853	0.0	0.409886089	0.465504906	0.005940072	0.061282625	0.018887900
2019-08-29T07:10:00	0.1824	15.941	0.0	0.412379662	0.469587037	0.006016440	0.062070499	0.019130731
2019-08-29T07:15:00	0.1827	15.997	0.0	0.413213279	0.470955530	0.006042102	0.062335253	0.019212330
2019-08-29T07:20:00	0.1827	16.028	0.0	0.413218221	0.470963649	0.006042254	0.062336825	0.019212815
2019-08-29T07:25:00	0.1816	16.075	0.0	0.410182601	0.465989420	0.005949122	0.061375992	0.018916677
2019-08-29T07:30:00	0.1802	16.083	0.0	0.406309301	0.459679266	0.005831560	0.060163127	0.018542860
2019-08-29T07:35:00	0.1810	16.131	0.0	0.408531567	0.463294624	0.005898836	0.060857203	0.018756781
2019-08-29T07:40:00	0.1804	16.161	0.0	0.406873844	0.460596428	0.005848606	0.060338993	0.018597064
2019-08-29T07:45:00	0.1814	16.186	0.0	0.409648958	0.465117597	0.005932840	0.061208018	0.018864906
2019-08-29T07:50:00	0.1795	16.256	0.0	0.404386467	0.456561958	0.005773725	0.059566458	0.018358961
2019-08-29T07:55:00	0.1789	16.289	0.0	0.402724362	0.453875490	0.005724013	0.059053591	0.018200890
2019-08-29T08:00:00	0.1799	16.321	0.0	0.405506800	0.458377019	0.005807380	0.059913668	0.018465974
2019-08-29T08:05:00	0.1803	16.378	0.0	0.406621373	0.460186154	0.005840979	0.060260305	0.018572811
2019-08-29T08:10:00	0.1805	16.410	0.0	0.407180844	0.461095549	0.005857889	0.060434760	0.018626580
2019-08-29T08:15:00	0.1817	16.471	0.0	0.410508761	0.466522658	0.005959086	0.061478794	0.018948361
2019-08-29T08:20:00	0.1787	16.557	0.0	0.402193159	0.453018494	0.005708180	0.058890245	0.018150546
2019-08-29T08:25:00	0.1800	16.660	0.0	0.405809102	0.458867368	0.005816481	0.060007566	0.018494915
2019-08-29T08:30:00	0.1779	16.750	0.0	0.399976830	0.449451176	0.005642407	0.058211670	0.017941402
2019-08-29T08:35:00	0.1813	16.838	0.0	0.409421699	0.464746557	0.005925915	0.061136569	0.018842884
2019-08-29T08:40:00	0.1774	16.950	0.0	0.398593760	0.447231823	0.005601595	0.057790618	0.017811630
2019-08-29T08:45:00	0.1763	17.078	0.0	0.395529656	0.442333529	0.005511814	0.056864367	0.017526150
2019-08-29T08:50:00	0.1765	17.243	0.0	0.396093123	0.443232375	0.005528258	0.057034021	0.017578439
2019-08-29T08:55:00	0.1754	17.416	0.0	0.393024040	0.438346994	0.005439046	0.056113637	0.017294768
2019-08-29T09:00:00	0.1724	17.552	0.0	0.384613654	0.425090030	0.005199034	0.053637480	0.016531592
2019-08-29T09:05:00	0.1749	17.709	0.0	0.391634715	0.436143862	0.005398949	0.055699958	0.017167268
2019-08-29T09:10:00	0.1737	17.797	0.0	0.388276088	0.430839480	0.005302751	0.054707504	0.016861384
2019-08-29T09:15:00	0.1725	17.875	0.0	0.384910020	0.425553931	0.005207381	0.053723595	0.016558134
2019-08-29T09:20:00	0.1715	17.984	0.0	0.382100061	0.421165002	0.005128563	0.052910434	0.016307510
2019-08-29T09:25:00	0.1727	18.066	0.0	0.385482452	0.426450632	0.005223527	0.053890161	0.016609471
2019-08-29T09:30:00	0.1708	18.169	0.0	0.380136521	0.418110721	0.005073913	0.052346624	0.016133738
2019-08-29T09:35:00	0.1712	18.198	0.0	0.381269670	0.419872066	0.005105408	0.052671554	0.016233885
2019-08-29T09:40:00	0.1711	18.252	0.0	0.380992770	0.419441340	0.005097701	0.052592042	0.016209378
2019-08-29T09:45:00	0.1692	18.426	0.0	0.375630755	0.411141133	0.004949831	0.051066489	0.015739188
2019-08-29T09:50:00	0.1682	18.585	0.0	0.372803252	0.406795271	0.004872902	0.050272830	0.015494575
2019-08-29T09:55:00	0.1707	18.503	0.0	0.379879612	0.417711865	0.005066788	0.052273123	0.016111084
2019-08-29T10:00:00	0.1697	18.394	0.0	0.377060194	0.413346316	0.004988996	0.051470554	0.015863725
2019-08-29T10:05:00	0.1707	18.325	0.0	0.379889711	0.417727541	0.005067068	0.052276011	0.016111974
2019-08-29T10:10:00	0.1684	18.328	0.0	0.373390487	0.407696092	0.004888820	0.050437052	0.015545189
2019-08-29T10:15:00	0.1686	18.409	0.0	0.373962280	0.408574108	0.004904349	0.050597262	0.015594568
2019-08-29T10:20:00	0.1680	18.544	0.0	0.372266541	0.405972762	0.004858381	0.050123018	0.015448401
2019-08-29T10:25:00	0.1691	18.710	0.0	0.375388262	0.410767584	0.004943205	0.050998132	0.015718120
2019-08-29T10:30:00	0.1689	18.873	0.0	0.374827155	0.409903827	0.004927893	0.050840169	0.015669434
2019-08-29T10:35:00	0.1681	18.851	0.0	0.372565369	0.406430622	0.004866463	0.050206397	0.015474099
2019-08-29T10:40:00	0.1696	18.842	0.0	0.376817934	0.412972199	0.004982345	0.051401939	0.015842577
2019-08-29T10:45:00	0.1698	18.873	0.0	0.377388406	0.413853420	0.004998015	0.051563600	0.015892402
2019-08-29T10:50:00	0.1708	18.874	0.0	0.380217302	0.418236170	0.005076154	0.052369748	0.016140865
2019-08-29T10:55:00	0.1707	18.859	0.0	0.379940208	0.417805925	0.005068468	0.052290454	0.016116426
2019-08-29T11:00:00	0.1710	18.845	0.0	0.380791523	0.419128422	0.005092104	0.052534299	0.016191581
2019-08-29T11:05:00	0.1690	18.814	0.0	0.375145729	0.410394131	0.004936583	0.050929818	0.015697065
2019-08-29T11:10:00	0.1688	19.014	0.0	0.374584530	0.409530597	0.004921282	0.050771956	0.015648410
2019-08-29T11:15:00	0.1705	19.413	0.0	0.379395969	0.416961483	0.005053393	0.052134922	0.016068489
2019-08-29T11:20:00	0.1699	19.928	0.0	0.377706432	0.414345060	0.005006763	0.051653854	0.015920219
2019-08-29T11:25:00	0.1686	19.979	0.0	0.373749938	0.408247943	0.004898578	0.050537731	0.015576219
2019-08-29T11:30:00	0.1676	20.228	0.0	0.370918826	0.403910779	0.004822031	0.049748005	0.015332818
2019-08-29T11:35:00	0.1683	20.852	0.0	0.372909800	0.406958648	0.004875788	0.050302603	0.015503751
2019-08-29T11:40:00	0.1702	21.150	0.0	0.378291730	0.415250587	0.005022888	0.051820206	0.015971491
2019-08-29T11:45:00	0.1714	21.234	0.0	0.381682704	0.420514937	0.005116917	0.052790291	0.016270481
2019-08-29T11:50:00	0.1715	21.180	0.0	0.381969561	0.420961689	0.005124920	0.052872850	0.016295926
2019-08-29T11:55:00	0.1723	21.119	0.0	0.384227206	0.424485476	0.005188162	0.053525314	0.016497022
2019-08-29T12:00:00	0.1739	20.843	0.0	0.388727372	0.431550434	0.005315616	0.054840232	0.016902292
2019-08-29T12:05:00	0.1745	20.499	0.0	0.390414636	0.434213423	0.005363883	0.055338190	0.017055768
2019-08-29T12:10:00	0.1770	20.258	0.0	0.397409143	0.445335060	0.005566781	0.057431448	0.017700930
2019-08-29T12:15:00	0.1783	20.190	0.0	0.401036186	0.451154603	0.005673788	0.058535421	0.018041185
2019-08-29T12:20:00	0.1800	19.981	0.0	0.405765013	0.458795838	0.005815153	0.059993866	0.018490692
2019-08-29T12:25:00	0.1805	19.808	0.0	0.407156636	0.461056183	0.005857157	0.060427205	0.018624251
2019-08-29T12:30:00	0.1820	19.694	0.0	0.411314267	0.467840832	0.005983739	0.061733128	0.019026750
2019-08-29T12:35:00	0.1848	19.572	0.0	0.419041987	0.480577583	0.006223392	0.064205591	0.019788787
2019-08-29T12:40:00	0.1861	19.307	0.0	0.422619907	0.486530468	0.006336294	0.065370377	0.020147785
2019-08-29T12:45:00	0.1881	19.060	0.0	0.428106438	0.495727718	0.006511829	0.067181344	0.020705943
2019-08-29T12:50:00	0.1898	18.740	0.0	0.432756342	0.503587949	0.006662894	0.068739853	0.021186290
2019-08-29T12:55:00	0.1921	18.369	0.0	0.439024993	0.514279902	0.006869910	0.070875591	0.021844546
2019-08-29T13:00:00	0.1899	18.043	0.0	0.433038935	0.504067587	0.006672143	0.068835274	0.021215700
2019-08-29T13:05:00	0.1879	17.808	0.0	0.427578695	0.494839416	0.006494818	0.067005837	0.020651850
2019-08-29T13:10:00	0.1888	17.656	0.0	0.430045133	0.498997592	0.006574556	0.067828485	0.020905398
2019-08-29T13:15:00	0.1877	17.559	0.0	0.427040983	0.493935128	0.006477512	0.066827302	0.020596824
2019-08-29T13:20:00	0.1868	17.413	0.0	0.424579832	0.489806373	0.006398664	0.066013838	0.020346106
2019-08-29T13:25:00	0.1867	17.374	0.0	0.424310505	0.489355576	0.006390071	0.065925188	0.020318783
2019-08-29T13:30:00	0.1849	17.392	0.0	0.419371268	0.481123957	0.006233731	0.064312256	0.019821662
2019-08-29T13:35:00	0.1838	17.292	0.0	0.416347314	0.476117570	0.006139175	0.063336739	0.019520998
2019-08-29T13:40:00	0.1830	17.161	0.0	0.414145839	0.472488714	0.006070889	0.062632241	0.019303865
2019-08-29T13:45:00	0.1838	17.192	0.0	0.416357178	0.476133861	0.006139482	0.063339906	0.019521974
2019-08-29T13:50:00	0.1844	17.177	0.0	0.418014917	0.478875294	0.006191211	0.063873581	0.019686458
2019-08-29T13:55:00	0.1818	17.116	0.0	0.410845347	0.467073248	0.005969380	0.061584992	0.018981093
2019-08-29T14:00:00	0.1833	17.054	0.0	0.414993344	0.473884140	0.006097122	0.062902886	0.019387280
2019-08-29T14:05:00	0.1824	16.967	0.0	0.412513752	0.469807035	0.006020563	0.062113040	0.019143842
2019-08-29T14:10:00	0.1825	16.969	0.0	0.412794945	0.470268541	0.006029216	0.062202306	0.019171355
2019-08-29T14:15:00	0.1828	17.000	0.0	0.413628346	0.471637629	0.006054904	0.062467332	0.019253038
2019-08-29T14:20:00	0.1824	17.001	0.0	0.412528584	0.469831373	0.006021019	0.062117746	0.019145293
2019-08-29T14:25:00	0.1815	16.985	0.0	0.410045149	0.465764787	0.005944925	0.061332700	0.018903334
2019-08-29T14:30:00	0.1822	16.975	0.0	0.411985837	0.468941187	0.006004339	0.061945660	0.019092254
2019-08-29T14:35:00	0.1810	16.963	0.0	0.408670939	0.463521816	0.005903071	0.060900893	0.018770247
2019-08-29T14:40:00	0.1798	17.007	0.0	0.405349074	0.458121278	0.005802635	0.059864712	0.018450886
2019-08-29T14:45:00	0.1800	17.012	0.0	0.405908997	0.459029459	0.005819491	0.060038614	0.018504484
2019-08-29T14:50:00	0.1794	16.969	0.0	0.404248508	0.456338687	0.005769589	0.059523787	0.018345809
2019-08-29T14:55:00	0.1786	17.028	0.0	0.402030121	0.452755618	0.005703326	0.058840166	0.018135111
2019-08-29T15:00:00	0.1768	17.100	0.0	0.397020927	0.444714294	0.005555400	0.057314037	0.017664743
2019-08-29T15:05:00	0.1793	17.238	0.0	0.403985672	0.455913462	0.005761714	0.059442542	0.018320769
2019-08-29T15:10:00	0.1784	17.240	0.0	0.401488723	0.451883210	0.005687225	0.058674052	0.018083913
2019-08-29T15:15:00	0.1774	17.175	0.0	0.398709081	0.447416675	0.005604991	0.057825655	0.017822429
2019-08-29T15:20:00	0.1763	17.151	0.0	0.395645206	0.442517785	0.005515184	0.056899133	0.017536865
2019-08-29T15:25:00	0.1767	17.123	0.0	0.396766855	0.444308250	0.005547959	0.057237275	0.017641084
2019-08-29T15:30:00	0.1758	17.150	0.0	0.394258252	0.440308546	0.005474817	0.056482679	0.017408510
2019-08-29T15:35:00	0.1780	17.100	0.0	0.400400381	0.450131873	0.005654941	0.058340982	0.017981257
2019-08-29T15:40:00	0.1784	17.125	0.0	0.401518596	0.451931325	0.005688113	0.058683211	0.018086735
2019-08-29T15:45:00	0.1771	17.195	0.0	0.397902662	0.446124799	0.005581268	0.057580917	0.017746998
2019-08-29T15:50:00	0.1762	17.195	0.0	0.395395907	0.442120298	0.005507915	0.056824141	0.017513752
2019-08-29T15:55:00	0.1780	17.150	0.0	0.400420310	0.450163913	0.005655531	0.058347070	0.017983134
2019-08-29T16:00:00	0.1765	17.093	0.0	0.396243601	0.443472564	0.005532655	0.057079380	0.017592419
2019-08-29T16:05:00	0.1764	17.025	0.0	0.395769256	0.442715635	0.005518803	0.056936470	0.017548373
2019-08-29T16:10:00	0.1747	17.018	0.0	0.391099113	0.435295923	0.005383538	0.055540971	0.017118267
2019-08-29T16:15:00	0.1756	17.044	0.0	0.393702063	0.439424074	0.005458680	0.056316193	0.017357197
2019-08-29T16:20:00	0.1770	17.046	0.0	0.397416789	0.445347290	0.005567005	0.057433762	0.017701643
2019-08-29T16:25:00	0.1755	17.027	0.0	0.393311137	0.438802913	0.005447355	0.056199352	0.017321186
2019-08-29T16:30:00	0.1750	17.025	0.0	0.391996329	0.436716790	0.005409368	0.055807453	0.017200399
2019-08-29T16:35:00	0.1736	16.994	0.0	0.387876108	0.430209814	0.005291364	0.054590027	0.016825177
2019-08-29T16:40:00	0.1759	16.915	0.0	0.394402420	0.440537944	0.005479005	0.056525882	0.017421826
2019-08-29T16:45:00	0.1720	16.822	0.0	0.383547941	0.423423819	0.005169085	0.053328500	0.016436362
2019-08-29T16:50:00	0.1742	16.734	0.0	0.389812501	0.433262197	0.005346628	0.055160173	0.017000901
2019-08-29T16:55:00	0.1733	16.758	0.0	0.387091165	0.428975374	0.005269060	0.054359925	0.016754257
2019-08-29T17:00:00	0.1726	16.798	0.0	0.385208715	0.426021720	0.005215802	0.053810471	0.016584910
2019-08-29T17:05:00	0.1739	16.786	0.0	0.388944117	0.431892088	0.005321802	0.054904048	0.016921961
2019-08-29T17:10:00	0.1781	16.725	0.0	0.400485078	0.450268049	0.005657449	0.058366861	0.017989233
2019-08-29T17:15:00	0.1797	16.740	0.0	0.405016595	0.457582412	0.005792640	0.059761595	0.018419104
2019-08-29T17:20:00	0.1767	16.730	0.0	0.396750704	0.444282444	0.005547487	0.057232397	0.017639581
2019-08-29T17:25:00	0.1768	16.706	0.0	0.396834715	0.444416683	0.005549946	0.057257771	0.017647401
2019-08-29T17:30:00	0.1783	16.700	0.0	0.401098595	0.451255052	0.005675640	0.058554528	0.018047074
2019-08-29T17:35:00	0.1806	16.668	0.0	0.407569493	0.461727785	0.005869653	0.060556128	0.018663987
2019-08-29T17:40:00	0.1799	16.630	0.0	0.405434383	0.458259591	0.005805201	0.059891188	0.018459046
2019-08-29T17:45:00	0.1823	16.599	0.0	0.412163873	0.469233103	0.006009808	0.062002077	0.019109642
2019-08-29T17:50:00	0.1799	16.575	0.0	0.405601466	0.458530545	0.005810229	0.059943063	0.018475034
2019-08-29T17:55:00	0.1831	16.558	0.0	0.414539161	0.473136078	0.006083055	0.062757758	0.019342551
2019-08-29T18:00:00	0.1818	16.530	0.0	0.410754816	0.466925127	0.005966610	0.061556417	0.018972286
2019-08-29T18:05:00	0.1845	16.490	0.0	0.418287912	0.479327478	0.006199755	0.063961727	0.019713625
2019-08-29T18:10:00	0.1826	16.464	0.0	0.413132205	0.470822352	0.006039603	0.062309474	0.019204385
2019-08-29T18:15:00	0.1845	16.424	0.0	0.418178376	0.479146021	0.006196326	0.063926351	0.019702722
2019-08-29T18:20:00	0.1845	16.401	0.0	0.418261254	0.479283313	0.006198920	0.063953116	0.019710972
2019-08-29T18:25:00	0.1851	16.381	0.0	0.419994900	0.482159568	0.006253341	0.064514566	0.019884016
2019-08-29T18:30:00	0.1827	16.380	0.0	0.413188601	0.470914990	0.006041341	0.062327405	0.019209912
2019-08-29T18:35:00	0.1835	16.344	0.0	0.415479349	0.474685246	0.006112197	0.063058409	0.019435214
2019-08-29T18:40:00	0.1858	16.316	0.0	0.421892076	0.485316646	0.006313227	0.065132400	0.020074438
2019-08-29T18:45:00	0.1844	16.287	0.0	0.418125056	0.479057701	0.006194657	0.063909134	0.019697416
2019-08-29T18:50:00	0.1857	16.253	0.0	0.421508076	0.484676832	0.006301078	0.065007057	0.020035806
2019-08-29T18:55:00	0.1847	16.213	0.0	0.418841275	0.480244691	0.006217095	0.064140627	0.019768764
2019-08-29T19:00:00	0.1849	16.184	0.0	0.419474366	0.481295090	0.006236971	0.064345675	0.019831962
2019-08-29T19:05:00	0.1854	16.162	0.0	0.420657054	0.483260323	0.006274203	0.064729796	0.019950352
2019-08-29T19:10:00	0.1855	16.129	0.0	0.421014642	0.483855278	0.006285487	0.064846209	0.019986232
2019-08-29T19:15:00	0.1839	16.099	0.0	0.416694562	0.476691184	0.006149989	0.063448300	0.019555382
2019-08-29T19:20:00	0.1870	16.078	0.0	0.425022569	0.490547856	0.006412805	0.066159724	0.020391070
2019-08-29T19:25:00	0.1869	16.039	0.0	0.424830949	0.490226870	0.006406682	0.066096560	0.020371602
2019-08-29T19:30:00	0.1845	16.014	0.0	0.418320369	0.479381253	0.006200771	0.063972212	0.019716857
2019-08-29T19:35:00	0.1866	15.985	0.0	0.424173385	0.489126145	0.006385699	0.065880082	0.020304881
2019-08-29T19:40:00	0.1843	15.948	0.0	0.417660156	0.478287982	0.006180119	0.063759144	0.019651187
2019-08-29T19:45:00	0.1848	15.922	0.0	0.419119335	0.480705900	0.006225820	0.064230637	0.019796506
2019-08-29T19:50:00	0.1872	15.886	0.0	0.425791707	0.491837279	0.006437416	0.066413630	0.020469326
2019-08-29T19:55:00	0.1848	15.852	0.0	0.419009856	0.480524284	0.006222384	0.064195189	0.019785581
2019-08-29T20:00:00	0.1849	15.819	0.0	0.419367809	0.481118217	0.006233623	0.064311135	0.019821316
2019-08-29T20:05:00	0.1840	15.782	0.0	0.416972993	0.477151360	0.006158668	0.063537837	0.019582979
2019-08-29T20:10:00	0.1866	15.746	0.0	0.423928536	0.488716588	0.006377897	0.065799586	0.020280071
2019-08-29T20:15:00	0.1857	15.713	0.0	0.421540469	0.484730788	0.006302102	0.065017625	0.020039063
2019-08-29T20:20:00	0.1854	15.670	0.0	0.420798829	0.483496165	0.006278675	0.064775936	0.019964572
2019-08-29T20:25:00	0.1883	15.626	0.0	0.428832404	0.496950935	0.006535275	0.067423230	0.020780494
2019-08-29T20:30:00	0.1867	15.584	0.0	0.424258845	0.489269133	0.006388424	0.065908192	0.020313545
2019-08-29T20:35:00	0.1877	15.544	0.0	0.427081639	0.494003472	0.006478820	0.066840791	0.020600981
2019-08-29T20:40:00	0.1877	15.496	0.0	0.427164063	0.494142044	0.006481471	0.066868142	0.020609411
2019-08-29T20:45:00	0.1872	15.452	0.0	0.425603065	0.491520878	0.006431374	0.066351301	0.020450116
2019-08-29T20:50:00	0.1875	15.412	0.0	0.426507438	0.493038641	0.006460369	0.066650438	0.020542312
2019-08-29T20:55:00	0.1877	15.382	0.0	0.427137550	0.494097468	0.006480618	0.066859344	0.020606699
2019-08-29T21:00:00	0.1873	15.322	0.0	0.425850548	0.491935992	0.006439301	0.066433079	0.020475320
2019-08-29T21:05:00	0.1875	15.274	0.0	0.426480914	0.492994095	0.006459518	0.066641653	0.020539605
2019-08-29T21:10:00	0.1900	15.238	0.0	0.433396148	0.504674194	0.006683846	0.068956007	0.021252911
2019-08-29T21:15:00	0.1879	15.194	0.0	0.427740917	0.495112386	0.006500044	0.067059756	0.020668468
2019-08-29T21:20:00	0.1880	15.161	0.0	0.427823308	0.495251054	0.006502699	0.067087151	0.020676911
2019-08-29T21:25:00	0.1881	15.124	0.0	0.428179328	0.495850467	0.006514181	0.067205606	0.020713421
2019-08-29T21:30:00	0.1874	15.078	0.0	0.426345404	0.492766541	0.006455168	0.066596783	0.020525775
2019-08-29T21:35:00	0.1861	15.052	0.0	0.422588718	0.486478423	0.006335304	0.065360168	0.020144639
2019-08-29T21:40:00	0.1866	15.031	0.0	0.424043462	0.488908804	0.006381558	0.065837361	0.020291714
2019-08-29T21:45:00	0.1877	14.996	0.0	0.427140434	0.494102317	0.006480711	0.066860301	0.020606994
2019-08-29T21:50:00	0.1874	14.971	0.0	0.426127410	0.492400584	0.006448175	0.066524638	0.020503539
2019-08-29T21:55:00	0.1885	14.938	0.0	0.429220446	0.497605367	0.006547829	0.067552740	0.020820411
2019-08-29T22:00:00	0.1868	14.901	0.0	0.424647972	0.489920457	0.006400839	0.066036278	0.020353022
2019-08-29T22:05:00	0.1879	14.875	0.0	0.427550050	0.494791221	0.006493895	0.066996319	0.020648916
2019-08-29T22:10:00	0.1873	14.841	0.0	0.426069448	0.492303302	0.006446317	0.066505463	0.020497630
2019-08-29T22:15:00	0.1883	14.789	0.0	0.428695508	0.496720160	0.006530850	0.067377577	0.020766424
2019-08-29T22:20:00	0.1884	14.775	0.0	0.428857744	0.496993657	0.006536095	0.067431682	0.020783099
2019-08-29T22:25:00	0.1886	14.744	0.0	0.429566812	0.498189867	0.006559046	0.067668469	0.020856079
2019-08-29T22:30:00	0.1903	14.720	0.0	0.434096819	0.505865081	0.006706837	0.069193200	0.021326016
2019-08-29T22:35:00	0.1899	14.689	0.0	0.433167747	0.504286290	0.006676362	0.068878796	0.021229114
2019-08-29T22:40:00	0.1889	14.653	0.0	0.430326488	0.499473004	0.006583690	0.067922717	0.020934441
2019-08-29T22:45:00	0.1884	14.634	0.0	0.429121864	0.497439070	0.006544638	0.067519824	0.020810265
2019-08-29T22:50:00	0.1881	14.615	0.0	0.428189989	0.495868421	0.006514525	0.067209155	0.020714514
2019-08-29T22:55:00	0.1889	14.608	0.0	0.430266229	0.499371163	0.006581733	0.067902528	0.020928219
2019-08-29T23:00:00	0.1871	14.597	0.0	0.425502682	0.491352551	0.006428161	0.066318149	0.020439898
2019-08-29T23:05:00	0.1855	14.581	0.0	0.421000044	0.483830982	0.006285026	0.064841454	0.019984766
2019-08-29T23:10:00	0.1864	14.564	0.0	0.423634271	0.488224593	0.006368527	0.065702923	0.020250279
2019-08-29T23:15:00	0.1859	14.543	0.0	0.422150109	0.485746807	0.006321399	0.065216708	0.020100423
2019-08-29T23:20:00	0.1841	14.541	0.0	0.417087259	0.477340276	0.006162231	0.063574606	0.019594311
2019-08-29T23:25:00	0.1837	14.524	0.0	0.416148452	0.475789222	0.006132988	0.063272904	0.019501323
2019-08-29T23:30:00	0.1830	14.503	0.0	0.414105482	0.472422316	0.006069641	0.062619371	0.019299898
2019-08-29T23:35:00	0.1835	14.485	0.0	0.415648439	0.474964116	0.006117447	0.063112572	0.019451908
2019-08-29T23:40:00	0.1822	14.456	0.0	0.411947461	0.468878274	0.006003161	0.061933503	0.019088507
2019-08-29T23:45:00	0.1825	14.443	0.0	0.412663976	0.470053562	0.006025185	0.062160719	0.019158537
2019-08-29T23:50:00	0.1826	14.416	0.0	0.413104022	0.470776061	0.006038735	0.062300514	0.019201624
2019-08-29T23:55:00	0.1831	14.408	0.0	0.414372017	0.472860926	0.006077883	0.062704401	0.019326105
2019-08-30T00:00:00	0.1813	14.387	0.0	0.409561306	0.464974473	0.005930168	0.061180455	0.018856410
2019-08-30T00:05:00	0.1823	14.369	0.0	0.412214357	0.469315894	0.006011359	0.062018080	0.019114575
2019-08-30T00:10:00	0.1826	14.351	0.0	0.412930752	0.470491511	0.006033397	0.062245447	0.019184651
2019-08-30T00:15:00	0.1812	14.328	0.0	0.409223444	0.464422986	0.005919877	0.061074280	0.018823686
2019-08-30T00:20:00	0.1807	14.309	0.0	0.407725867	0.461982284	0.005874390	0.060605003	0.018679051
2019-08-30T00:25:00	0.1820	14.306	0.0	0.411488183	0.468125670	0.005989069	0.061788125	0.019043700
2019-08-30T00:30:00	0.1818	14.283	0.0	0.410822667	0.467036140	0.005968686	0.061577833	0.018978886
2019-08-30T00:35:00	0.1841	14.256	0.0	0.417058990	0.477293535	0.006161350	0.063565508	0.019591507
2019-08-30T00:40:00	0.1813	14.221	0.0	0.409490799	0.464859359	0.005928020	0.061158288	0.018849578
2019-08-30T00:45:00	0.1820	14.203	0.0	0.411314737	0.467841601	0.005983753	0.061733277	0.019026795
2019-08-30T00:50:00	0.1825	14.186	0.0	0.412860394	0.470375990	0.006031231	0.062223095	0.019177762
2019-08-30T00:55:00	0.1812	14.173	0.0	0.409152922	0.464307913	0.005917730	0.061052132	0.018816860
2019-08-30T01:00:00	0.1809	14.157	0.0	0.408209424	0.462769698	0.005889054	0.060756290	0.018725679
2019-08-30T01:05:00	0.1821	14.156	0.0	0.411694201	0.468463194	0.005995388	0.061853311	0.019063791
2019-08-30T01:10:00	0.1832	14.129	0.0	0.414619633	0.473268578	0.006085546	0.062783457	0.019350471
2019-08-30T01:15:00	0.1825	14.112	0.0	0.412850946	0.470360478	0.006030940	0.062220093	0.019176837
2019-08-30T01:20:00	0.1821	14.096	0.0	0.411633244	0.468363314	0.005993518	0.061834019	0.019057845
2019-08-30T01:25:00	0.1824	14.069	0.0	0.412626179	0.469991528	0.006024022	0.062148721	0.019154839
2019-08-30T01:30:00	0.1820	14.036	0.0	0.411408304	0.467994835	0.005986621	0.061762861	0.019035914
2019-08-30T01:35:00	0.1824	14.052	0.0	0.412401380	0.469622666	0.006017107	0.062077388	0.019132854
2019-08-30T01:40:00	0.1811	14.035	0.0	0.408969749	0.464009090	0.005912156	0.060994629	0.018799137
2019-08-30T01:45:00	0.1800	14.005	0.0	0.405808128	0.458865788	0.005816452	0.060007263	0.018494821
2019-08-30T01:50:00	0.1816	13.998	0.0	0.410405145	0.466353226	0.005955920	0.061446124	0.018938292
2019-08-30T01:55:00	0.1814	13.983	0.0	0.409739175	0.465264932	0.005935591	0.061236396	0.018873652
2019-08-30T02:00:00	0.1813	13.954	0.0	0.409349775	0.464629157	0.005923724	0.061113967	0.018835918
2019-08-30T02:05:00	0.1807	13.951	0.0	0.407852317	0.462188131	0.005878223	0.060644542	0.018691237
2019-08-30T02:10:00	0.1812	13.927	0.0	0.409124511	0.464261559	0.005916866	0.061043211	0.018814110
2019-08-30T02:15:00	0.1793	13.916	0.0	0.404020059	0.455969083	0.005762744	0.059453167	0.018324043
2019-08-30T02:20:00	0.1795	13.906	0.0	0.404462518	0.456685061	0.005776006	0.059589989	0.018366213
2019-08-30T02:25:00	0.1795	13.869	0.0	0.404349540	0.456502192	0.005772618	0.059555035	0.018355440
2019-08-30T02:30:00	0.1793	13.858	0.0	0.403958805	0.455870004	0.005760909	0.059434240	0.018318210
2019-08-30T02:35:00	0.1803	13.863	0.0	0.406621279	0.460186001	0.005840976	0.060260276	0.018572802
2019-08-30T02:40:00	0.1797	13.862	0.0	0.405121226	0.457751959	0.005795784	0.059794034	0.018429102
2019-08-30T02:45:00	0.1798	13.831	0.0	0.405285859	0.458018799	0.005800733	0.059845098	0.018444840
2019-08-30T02:50:00	0.1776	13.803	0.0	0.399054678	0.447970860	0.005615176	0.057930732	0.017854814
2019-08-30T02:55:00	0.1767	13.799	0.0	0.396710340	0.444217955	0.005546305	0.057220208	0.017635824
2019-08-30T03:00:00	0.1785	13.796	0.0	0.401612338	0.452082331	0.005690899	0.058711955	0.018095595
2019-08-30T03:05:00	0.1804	13.775	0.0	0.407053523	0.460888520	0.005854038	0.060395032	0.018614335
2019-08-30T03:10:00	0.1786	13.750	0.0	0.401942327	0.452614092	0.005700713	0.058813209	0.018126802
2019-08-30T03:15:00	0.1804	13.715	0.0	0.406827932	0.460521806	0.005847219	0.060324679	0.018592652
2019-08-30T03:20:00	0.1799	13.715	0.0	0.405605583	0.458537223	0.005810353	0.059944341	0.018475428
2019-08-30T03:25:00	0.1800	13.690	0.0	0.405770166	0.458804199	0.005815309	0.059995467	0.018491186
2019-08-30T03:30:00	0.1801	13.695	0.0	0.406212132	0.459521494	0.005828629	0.060132889	0.018533540
2019-08-30T03:35:00	0.1814	13.681	0.0	0.409701309	0.465203088	0.005934436	0.061224484	0.018869981
2019-08-30T03:40:00	0.1808	13.671	0.0	0.408204184	0.462761162	0.005888895	0.060754649	0.018725173
2019-08-30T03:45:00	0.1822	13.643	0.0	0.411965366	0.468907626	0.006003710	0.061939174	0.019090255
2019-08-30T03:50:00	0.1812	13.618	0.0	0.409086629	0.464199755	0.005915713	0.061031317	0.018810445
2019-08-30T03:55:00	0.1808	13.612	0.0	0.408143092	0.462661647	0.005887042	0.060735523	0.018719278
2019-08-30T04:00:00	0.1794	13.608	0.0	0.404146808	0.456174131	0.005766541	0.059492342	0.018336118
2019-08-30T04:05:00	0.1821	13.615	0.0	0.411664678	0.468414818	0.005994482	0.061843967	0.019060911
2019-08-30T04:10:00	0.1812	13.598	0.0	0.409211654	0.464403747	0.005919518	0.061070577	0.018822545
2019-08-30T04:15:00	0.1808	13.593	0.0	0.408140614	0.462657609	0.005886966	0.060734747	0.018719039
2019-08-30T04:20:00	0.1809	13.597	0.0	0.408454363	0.463168795	0.005896491	0.060833009	0.018749324
2019-08-30T04:25:00	0.1826	13.580	0.0	0.412916518	0.470468139	0.006032959	0.062240924	0.019183257
2019-08-30T04:30:00	0.1843	13.580	0.0	0.417641628	0.478257319	0.006179540	0.063753171	0.019649346
2019-08-30T04:35:00	0.1829	13.620	0.0	0.413818142	0.471949688	0.006060764	0.062527783	0.019271670
2019-08-30T04:40:00	0.1822	13.634	0.0	0.411921291	0.468835375	0.006002357	0.061925213	0.019085952
2019-08-30T04:45:00	0.1848	13.669	0.0	0.419127468	0.480719394	0.006226075	0.064233271	0.019797318
2019-08-30T04:50:00	0.1855	13.694	0.0	0.421088722	0.483978575	0.006287826	0.064870342	0.019993669
2019-08-30T04:55:00	0.1858	13.733	0.0	0.421949348	0.485412106	0.006315040	0.065151106	0.020080204
2019-08-30T05:00:00	0.1859	13.791	0.0	0.422260402	0.485930730	0.006324894	0.065252764	0.020111536
2019-08-30T05:05:00	0.1861	13.853	0.0	0.422571397	0.486449521	0.006334755	0.065354499	0.020142891
2019-08-30T05:10:00	0.1877	13.896	0.0	0.426994621	0.493857196	0.006476022	0.066811922	0.020592083
2019-08-30T05:15:00	0.1849	13.942	0.0	0.419346403	0.481082689	0.006232950	0.064304198	0.019819178
2019-08-30T05:20:00	0.1842	14.011	0.0	0.417456091	0.477950306	0.006173744	0.063693374	0.019630917
2019-08-30T05:25:00	0.1837	14.071	0.0	0.416114952	0.475733920	0.006131946	0.063262154	0.019498010
2019-08-30T05:30:00	0.1862	14.135	0.0	0.423027955	0.487211620	0.006349248	0.065504026	0.020188977
2019-08-30T05:35:00	0.1874	14.182	0.0	0.426354649	0.492782065	0.006455465	0.066599843	0.020526719
2019-08-30T05:40:00	0.1846	14.239	0.0	0.418428180	0.479559896	0.006204148	0.064007046	0.019727593
2019-08-30T05:45:00	0.1853	14.289	0.0	0.420390282	0.482816700	0.006265793	0.064643030	0.019923610
2019-08-30T05:50:00	0.1868	14.322	0.0	0.424545233	0.489748450	0.006397560	0.066002446	0.020342595
2019-08-30T05:55:00	0.1859	14.365	0.0	0.422111819	0.485682962	0.006320186	0.065204193	0.020096565
2019-08-30T06:00:00	0.1862	14.403	0.0	0.422971902	0.487118025	0.006347468	0.065485657	0.020183316
2019-08-30T06:05:00	0.1863	14.447	0.0	0.423282761	0.487637201	0.006357346	0.065587568	0.020214726
2019-08-30T06:10:00	0.1862	14.490	0.0	0.423044711	0.487239601	0.006349781	0.065509518	0.020190670
2019-08-30T06:15:00	0.1872	14.543	0.0	0.425823456	0.491890540	0.006438433	0.066424124	0.020472560
2019-08-30T06:20:00	0.1866	14.602	0.0	0.423940685	0.488736905	0.006378284	0.065803578	0.020281302
2019-08-30T06:25:00	0.1873	14.666	0.0	0.425896137	0.492012477	0.006440762	0.066448150	0.020479965
2019-08-30T06:30:00	0.1877	14.716	0.0	0.427028051	0.493913390	0.006477097	0.066823012	0.020595501
2019-08-30T06:35:00	0.1874	14.755	0.0	0.426242771	0.492594230	0.006451876	0.066562810	0.020515305
2019-08-30T06:40:00	0.1882	14.799	0.0	0.428469058	0.496338532	0.006523534	0.067302100	0.020743161
2019-08-30T06:45:00	0.1883	14.849	0.0	0.428778874	0.496860689	0.006533545	0.067405376	0.020774992
2019-08-30T06:50:00	0.1887	14.916	0.0	0.429908803	0.498767310	0.006570133	0.067782854	0.020891334
2019-08-30T06:55:00	0.1867	14.973	0.0	0.424195349	0.489162892	0.006386399	0.065887306	0.020307108
2019-08-30T07:00:00	0.1882	15.018	0.0	0.428340623	0.496122147	0.006519387	0.067259314	0.020729974
2019-08-30T07:05:00	0.1886	15.056	0.0	0.429470853	0.498027900	0.006555937	0.067636394	0.020846194
2019-08-30T07:10:00	0.1870	15.144	0.0	0.425127048	0.490722913	0.006416145	0.066194180	0.020401689
2019-08-30T07:15:00	0.1879	15.220	0.0	0.427628576	0.494923341	0.006496424	0.067022413	0.020656959
2019-08-30T07:20:00	0.1865	15.275	0.0	0.423828641	0.488549542	0.006374715	0.065766762	0.020269955
2019-08-30T07:25:00	0.1859	15.296	0.0	0.422218196	0.485860343	0.006323556	0.065238965	0.020107283
2019-08-30T07:30:00	0.1853	15.374	0.0	0.420606150	0.483175659	0.006272598	0.064713234	0.019945247
2019-08-30T07:35:00	0.1864	15.490	0.0	0.423389062	0.487814798	0.006360726	0.065622440	0.020225473
2019-08-30T07:40:00	0.1877	15.589	0.0	0.426988852	0.493847500	0.006475836	0.066810009	0.020591494
2019-08-30T07:45:00	0.1868	15.687	0.0	0.424559085	0.489771640	0.006398002	0.066007007	0.020344001
2019-08-30T07:50:00	0.1875	15.784	0.0	0.426513797	0.493049322	0.006460573	0.066652545	0.020542962
2019-08-30T07:55:00	0.1863	15.864	0.0	0.423260226	0.487599555	0.006356630	0.065580177	0.020212448
2019-08-30T08:00:00	0.1877	15.967	0.0	0.427134108	0.494091681	0.006480508	0.066858201	0.020606347
2019-08-30T08:05:00	0.1877	16.083	0.0	0.427170420	0.494152733	0.006481676	0.066870252	0.020610061
2019-08-30T08:10:00	0.1870	16.152	0.0	0.425015086	0.490535319	0.006412566	0.066157257	0.020390309
2019-08-30T08:15:00	0.1860	16.201	0.0	0.422307802	0.486009783	0.006326396	0.065268264	0.020116313
2019-08-30T08:20:00	0.1864	16.289	0.0	0.423442209	0.487903604	0.006362417	0.065639879	0.020230848
2019-08-30T08:25:00	0.1871	16.366	0.0	0.425398258	0.491177477	0.006424819	0.066283672	0.020429271
2019-08-30T08:30:00	0.1870	16.455	0.0	0.425160517	0.490778998	0.006417215	0.066205220	0.020405092
2019-08-30T08:35:00	0.1865	16.528	0.0	0.423825752	0.488544710	0.006374623	0.065765812	0.020269662
2019-08-30T08:40:00	0.1866	16.671	0.0	0.424136448	0.489064349	0.006384522	0.065867935	0.020301137
2019-08-30T08:45:00	0.1882	16.635	0.0	0.428555441	0.496484092	0.006526324	0.067330885	0.020752033
2019-08-30T08:50:00	0.1859	16.709	0.0	0.422013523	0.485519085	0.006317072	0.065172072	0.020086666
2019-08-30T08:55:00	0.1853	16.871	0.0	0.420401274	0.482834974	0.006266139	0.064646604	0.019924711
2019-08-30T09:00:00	0.1867	16.961	0.0	0.424281957	0.489307806	0.006389161	0.065915796	0.020315888
2019-08-30T09:05:00	0.1843	17.042	0.0	0.417722787	0.478391643	0.006182076	0.063779338	0.019657411
2019-08-30T09:10:00	0.1840	17.099	0.0	0.416932988	0.477085229	0.006157420	0.063524968	0.019579012
2019-08-30T09:15:00	0.1841	17.245	0.0	0.417245011	0.477601143	0.006167154	0.063625387	0.019609962
2019-08-30T09:20:00	0.1826	17.234	0.0	0.413144435	0.470842441	0.006039980	0.062313362	0.019205583
2019-08-30T09:25:00	0.1841	17.241	0.0	0.417318077	0.477721994	0.006169434	0.063648916	0.019617214
2019-08-30T09:30:00	0.1836	17.499	0.0	0.415701124	0.475051023	0.006119083	0.063129454	0.019457111
2019-08-30T09:35:00	0.1821	17.689	0.0	0.411596581	0.468303246	0.005992393	0.061822418	0.019054270
2019-08-30T09:40:00	0.1816	17.882	0.0	0.410250508	0.466100418	0.005951196	0.061397387	0.018923271
2019-08-30T09:45:00	0.1814	17.988	0.0	0.409733784	0.465256126	0.005935426	0.061234700	0.018873129
2019-08-30T09:50:00	0.1819	18.198	0.0	0.411153644	0.467577836	0.005978818	0.061682361	0.019011103
2019-08-30T09:55:00	0.1828	18.106	0.0	0.413676907	0.471717463	0.006056403	0.062482795	0.019257804
2019-08-30T10:00:00	0.1802	18.044	0.0	0.406519544	0.460020728	0.005837905	0.060228586	0.018563035
2019-08-30T10:05:00	0.1799	18.343	0.0	0.405485962	0.458343227	0.005806753	0.059907199	0.018463980
2019-08-30T10:10:00	0.1798	18.502	0.0	0.405284539	0.458016659	0.005800694	0.059844688	0.018444714
2019-08-30T10:15:00	0.1798	18.526	0.0	0.405360641	0.458140031	0.005802983	0.059868302	0.018451992
2019-08-30T10:20:00	0.1792	18.474	0.0	0.403492946	0.455116818	0.005746969	0.059290416	0.018273882
2019-08-30T10:25:00	0.1803	18.355	0.0	0.406622441	0.460187889	0.005841011	0.060260638	0.018572914
2019-08-30T10:30:00	0.1804	18.441	0.0	0.406975744	0.460762069	0.005851686	0.060370770	0.018606858
2019-08-30T10:35:00	0.1772	18.488	0.0	0.398155252	0.446529255	0.005588692	0.057657507	0.017770604
2019-08-30T10:40:00	0.1785	18.516	0.0	0.401573676	0.452020049	0.005689750	0.058700099	0.018091941
2019-08-30T10:45:00	0.1801	18.531	0.0	0.406094599	0.459330689	0.005825085	0.060096325	0.018522271
2019-08-30T10:50:00	0.1802	18.396	0.0	0.406448021	0.459904552	0.005835746	0.060206313	0.018556170
2019-08-30T10:55:00	0.1788	18.222	0.0	0.402636765	0.453734115	0.005721401	0.059026636	0.018192582
2019-08-30T11:00:00	0.1798	18.151	0.0	0.405212960	0.457900634	0.005798542	0.059822484	0.018437871
2019-08-30T11:05:00	0.1792	18.201	0.0	0.403622947	0.455326941	0.005750857	0.059330530	0.018286245
2019-08-30T11:10:00	0.1795	18.166	0.0	0.404532370	0.456798143	0.005778101	0.059611607	0.018372876
2019-08-30T11:15:00	0.1781	18.185	0.0	0.400438063	0.450192456	0.005656057	0.058352495	0.017984806
2019-08-30T11:20:00	0.1778	18.073	0.0	0.399679013	0.448972842	0.005633603	0.058120849	0.017913410
2019-08-30T11:25:00	0.1794	17.979	0.0	0.404205413	0.456268953	0.005768297	0.059510461	0.018341702
2019-08-30T11:30:00	0.1798	17.930	0.0	0.405392043	0.458190942	0.005803927	0.059878047	0.018454996
2019-08-30T11:35:00	0.1814	17.838	0.0	0.409625259	0.465078897	0.005932118	0.061200565	0.018862609
2019-08-30T11:40:00	0.1803	17.790	0.0	0.406653817	0.460238867	0.005841959	0.060270414	0.018575927
2019-08-30T11:45:00	0.1813	17.746	0.0	0.409500267	0.464874816	0.005928308	0.061161265	0.018850496
2019-08-30T11:50:00	0.1818	17.804	0.0	0.410959489	0.467260034	0.005972873	0.061621030	0.018992200
2019-08-30T11:55:00	0.1815	17.793	0.0	0.409928809	0.465574698	0.005941375	0.061296072	0.018892045
2019-08-30T12:00:00	0.1818	17.724	0.0	0.410834602	0.467055668	0.005969051	0.061581600	0.018980047
2019-08-30T12:05:00	0.1827	17.678	0.0	0.413397464	0.471258152	0.006047781	0.062393842	0.019230388
2019-08-30T12:10:00	0.1817	17.652	0.0	0.410433094	0.466398925	0.005956774	0.061454935	0.018941008
2019-08-30T12:15:00	0.1823	17.620	0.0	0.412167817	0.469239570	0.006009929	0.062003327	0.019110027
2019-08-30T12:20:00	0.1843	17.654	0.0	0.417760464	0.478454008	0.006183254	0.063791488	0.019661156
2019-08-30T12:25:00	0.1834	17.650	0.0	0.415355847	0.474481609	0.006108364	0.063018866	0.019423026
2019-08-30T12:30:00	0.1840	17.549	0.0	0.416809722	0.476881489	0.006153577	0.063485324	0.019566793
2019-08-30T12:35:00	0.1832	17.542	0.0	0.414679601	0.473367330	0.006087403	0.062802612	0.019356375
2019-08-30T12:40:00	0.1827	17.674	0.0	0.413375228	0.471221612	0.006047095	0.062386767	0.019228207
2019-08-30T12:45:00	0.1822	17.683	0.0	0.412069787	0.469078824	0.006006917	0.061972258	0.019100452
2019-08-30T12:50:00	0.1842	17.622	0.0	0.417387366	0.477836610	0.006171598	0.063671234	0.019624093
2019-08-30T12:55:00	0.1842	17.680	0.0	0.417462891	0.477961557	0.006173956	0.063695565	0.019631592
2019-08-30T13:00:00	0.1823	17.677	0.0	0.412297105	0.469451614	0.006013902	0.062044317	0.019122661
2019-08-30T13:05:00	0.1831	17.751	0.0	0.414305786	0.472751918	0.006075835	0.062683265	0.019319591
2019-08-30T13:10:00	0.1804	18.006	0.0	0.406913286	0.460660539	0.005849798	0.060351292	0.018600854
2019-08-30T13:15:00	0.1796	18.336	0.0	0.404769832	0.457182665	0.005785228	0.059685132	0.018395537
2019-08-30T13:20:00	0.1838	18.397	0.0	0.416463093	0.476308786	0.006142779	0.063373922	0.019532458
2019-08-30T13:25:00	0.1806	18.294	0.0	0.407418534	0.461482163	0.005865082	0.060508969	0.018649452
2019-08-30T13:30:00	0.1813	17.986	0.0	0.409433394	0.464765647	0.005926271	0.061140245	0.018844017
2019-08-30T13:35:00	0.1832	17.756	0.0	0.414759754	0.473499334	0.006089885	0.062828220	0.019364268
2019-08-30T13:40:00	0.1832	17.650	0.0	0.414835402	0.473623938	0.006092228	0.062852395	0.019371719
2019-08-30T13:45:00	0.1845	17.513	0.0	0.418217945	0.479211566	0.006197564	0.063939129	0.019706660
2019-08-30T13:50:00	0.1841	17.474	0.0	0.417191940	0.477513374	0.006165497	0.063608300	0.019604696
2019-08-30T13:55:00	0.1851	17.396	0.0	0.420019661	0.482200708	0.006254120	0.064522606	0.019886494
2019-08-30T14:00:00	0.1826	17.317	0.0	0.412929876	0.470490073	0.006033370	0.062245169	0.019184565
2019-08-30T14:05:00	0.1823	17.185	0.0	0.412176831	0.469254352	0.006010206	0.062006184	0.019110908
2019-08-30T14:10:00	0.1829	17.083	0.0	0.413909655	0.472100188	0.006063590	0.062556944	0.019280658
2019-08-30T14:15:00	0.1843	17.000	0.0	0.417844953	0.478593873	0.006185895	0.063818739	0.019669555
2019-08-30T14:20:00	0.1846	17.052	0.0	0.418471047	0.479630935	0.006205490	0.064020900	0.019731863
2019-08-30T14:25:00	0.1815	16.971	0.0	0.409991431	0.465677011	0.005943286	0.061315786	0.018898121
2019-08-30T14:30:00	0.1824	16.944	0.0	0.412555651	0.469875787	0.006021852	0.062126336	0.019147940
2019-08-30T14:35:00	0.1815	16.913	0.0	0.410143178	0.465924987	0.005947918	0.061363573	0.018912849
2019-08-30T14:40:00	0.1842	16.911	0.0	0.417396351	0.477851473	0.006171878	0.063674128	0.019624985
2019-08-30T14:45:00	0.1837	16.997	0.0	0.416094189	0.475699647	0.006131300	0.063255493	0.019495957
2019-08-30T14:50:00	0.1827	17.026	0.0	0.413410975	0.471280354	0.006048198	0.062398141	0.019231713
2019-08-30T14:55:00	0.1834	17.103	0.0	0.415142460	0.474129866	0.006101745	0.062950579	0.019401980
2019-08-30T15:00:00	0.1809	17.166	0.0	0.408307975	0.462930255	0.005892046	0.060787151	0.018735190
2019-08-30T15:05:00	0.1789	17.214	0.0	0.402834278	0.454052914	0.005727293	0.059087424	0.018211318
2019-08-30T15:10:00	0.1801	17.264	0.0	0.406242480	0.459570768	0.005829544	0.060142332	0.018536451
2019-08-30T15:15:00	0.1795	17.357	0.0	0.404375835	0.456544751	0.005773406	0.059563169	0.018357947
2019-08-30T15:20:00	0.1811	17.434	0.0	0.408888709	0.463876912	0.005909692	0.060969198	0.018791299
2019-08-30T15:25:00	0.1793	17.368	0.0	0.403972679	0.455892445	0.005761325	0.059438527	0.018319531
2019-08-30T15:30:00	0.1822	17.259	0.0	0.411806936	0.468647940	0.005998847	0.061889000	0.019074791
2019-08-30T15:35:00	0.1808	17.375	0.0	0.408008632	0.462442655	0.005882963	0.060693442	0.018706308
2019-08-30T15:40:00	0.1802	17.314	0.0	0.406421446	0.459861390	0.005834944	0.060198038	0.018553620
2019-08-30T15:45:00	0.1797	17.243	0.0	0.405110254	0.457734178	0.005795454	0.059790632	0.018428053
2019-08-30T15:50:00	0.1793	17.224	0.0	0.403797965	0.455609896	0.005756094	0.059384560	0.018302898
2019-08-30T15:55:00	0.1813	17.278	0.0	0.409420131	0.464743998	0.005925867	0.061136077	0.018842733
2019-08-30T16:00:00	0.1797	17.275	0.0	0.405061020	0.457654396	0.005793975	0.059775367	0.018423349
2019-08-30T16:05:00	0.1789	17.227	0.0	0.402836324	0.454056218	0.005727354	0.059088054	0.018211512
2019-08-30T16:10:00	0.1792	17.165	0.0	0.403667537	0.455399023	0.005752191	0.059344293	0.018290487
2019-08-30T16:15:00	0.1790	17.171	0.0	0.403109300	0.454496995	0.005735503	0.059172131	0.018237425
2019-08-30T16:20:00	0.1794	17.141	0.0	0.404218121	0.456289517	0.005768678	0.059514390	0.018342913
2019-08-30T16:25:00	0.1798	17.111	0.0	0.405326158	0.458084128	0.005801945	0.059857602	0.018448694
2019-08-30T16:30:00	0.1813	17.079	0.0	0.409481174	0.464843646	0.005927727	0.061155263	0.018848646
2019-08-30T16:35:00	0.1823	17.032	0.0	0.412244308	0.469365017	0.006012279	0.062027576	0.019117501
2019-08-30T16:40:00	0.1824	16.972	0.0	0.412518133	0.469814223	0.006020698	0.062114430	0.019144270
2019-08-30T16:45:00	0.1807	16.938	0.0	0.407812051	0.462122578	0.005877002	0.060631950	0.018687356
2019-08-30T16:50:00	0.1812	16.903	0.0	0.409194439	0.464375656	0.005918994	0.061065170	0.018820879
2019-08-30T16:55:00	0.1832	16.865	0.0	0.414719381	0.473432842	0.006088635	0.062815321	0.019360292
2019-08-30T17:00:00	0.1844	16.887	0.0	0.418024209	0.478890683	0.006191502	0.063876580	0.019687382
2019-08-30T17:05:00	0.1858	16.823	0.0	0.421871699	0.485282684	0.006312582	0.065125745	0.020072387
2019-08-30T17:10:00	0.1835	16.841	0.0	0.415539442	0.474784344	0.006114062	0.063077655	0.019441146
2019-08-30T17:15:00	0.1837	16.832	0.0	0.416088382	0.475690061	0.006131119	0.063253629	0.019495383
2019-08-30T17:20:00	0.1832	16.783	0.0	0.414707038	0.473412514	0.006088252	0.062811377	0.019359076
2019-08-30T17:25:00	0.1846	16.750	0.0	0.418562451	0.479782427	0.006208354	0.064050446	0.019740970
2019-08-30T17:30:00	0.1836	16.723	0.0	0.415805301	0.475222891	0.006122320	0.063162844	0.019467402
2019-08-30T17:35:00	0.1855	16.680	0.0	0.421032727	0.483885376	0.006286058	0.064852100	0.019988047
2019-08-30T17:40:00	0.1864	16.644	0.0	0.423501695	0.488003010	0.006364309	0.065659401	0.020236865
2019-08-30T17:45:00	0.1862	16.633	0.0	0.422950358	0.487082052	0.006346784	0.065478598	0.020181140
2019-08-30T17:50:00	0.1864	16.591	0.0	0.423496784	0.487994804	0.006364153	0.065657789	0.020236368
2019-08-30T17:55:00	0.1887	16.576	0.0	0.429793266	0.498572192	0.006566386	0.067744197	0.020879420
2019-08-30T18:00:00	0.1879	16.574	0.0	0.427602628	0.494879683	0.006495589	0.067013790	0.020654301
2019-08-30T18:05:00	0.1880	16.552	0.0	0.427873863	0.495336149	0.006504329	0.067103964	0.020682093
2019-08-30T18:10:00	0.1882	16.535	0.0	0.428418646	0.496253593	0.006521906	0.067285304	0.020737984
2019-08-30T18:15:00	0.1898	16.487	0.0	0.432787523	0.503640862	0.006663915	0.068750378	0.021189534
2019-08-30T18:20:00	0.1889	16.523	0.0	0.430327633	0.499474939	0.006583727	0.067923101	0.020934559
2019-08-30T18:25:00	0.1894	16.540	0.0	0.431690891	0.501781590	0.006628093	0.068380818	0.021075632
2019-08-30T18:30:00	0.1903	16.488	0.0	0.434143878	0.505945113	0.006708383	0.069209148	0.021330932
2019-08-30T18:35:00	0.1920	16.424	0.0	0.438769617	0.513842182	0.006861400	0.070787802	0.021817488
2019-08-30T18:40:00	0.1915	16.389	0.0	0.437407285	0.511510197	0.006816116	0.070320608	0.021673494
2019-08-30T18:45:00	0.1924	16.368	0.0	0.439851880	0.515698455	0.006897506	0.071160301	0.021932296
2019-08-30T18:50:00	0.1924	16.352	0.0	0.439849449	0.515694282	0.006897425	0.071159463	0.021932038
2019-08-30T18:55:00	0.1919	16.360	0.0	0.438487994	0.513359686	0.006852024	0.070691068	0.021787674
2019-08-30T19:00:00	0.1930	16.334	0.0	0.441586209	0.518486677	0.006953016	0.071732987	0.022108803
2019-08-30T19:05:00	0.1917	16.303	0.0	0.437939208	0.512420104	0.006833775	0.070502799	0.021729647
2019-08-30T19:10:00	0.1923	16.318	0.0	0.439568007	0.515211245	0.006888025	0.071062480	0.021902147
2019-08-30T19:15:00	0.1917	16.289	0.0	0.437934340	0.512411774	0.006833613	0.070501130	0.021729133
2019-08-30T19:20:00	0.1911	16.244	0.0	0.436299078	0.509617040	0.006779413	0.069941958	0.021556791
2019-08-30T19:25:00	0.1904	16.219	0.0	0.434389651	0.506363194	0.006716460	0.069292477	0.021356614
2019-08-30T19:30:00	0.1914	16.201	0.0	0.437110822	0.511003411	0.006806285	0.070219190	0.021642236
2019-08-30T19:35:00	0.1927	16.216	0.0	0.440642465	0.517056521	0.006923955	0.071433166	0.022016395
2019-08-30T19:40:00	0.1914	16.214	0.0	0.437105952	0.510995088	0.006806124	0.070217525	0.021641723
2019-08-30T19:45:00	0.1939	16.159	0.0	0.444701380	0.522654628	0.007041834	0.072649299	0.022391220
2019-08-30T19:50:00	0.1944	16.130	0.0	0.446443266	0.524988513	0.007091737	0.073164144	0.022549900
2019-08-30T19:55:00	0.1929	16.164	0.0	0.441202378	0.517973655	0.006942111	0.071620478	0.022074127
2019-08-30T20:00:00	0.1940	16.177	0.0	0.445041084	0.523109597	0.007051552	0.072749565	0.022422123
2019-08-30T20:05:00	0.1945	16.162	0.0	0.446782793	0.525443711	0.007101484	0.073264705	0.022580894
2019-08-30T20:10:00	0.1923	16.151	0.0	0.439538829	0.515161180	0.006887051	0.071052431	0.021899049
2019-08-30T20:15:00	0.1937	16.134	0.0	0.443984376	0.521694635	0.007021342	0.072437893	0.022326062
2019-08-30T20:20:00	0.1918	16.115	0.0	0.438174688	0.512823169	0.006841602	0.070583546	0.021754534
2019-08-30T20:25:00	0.1944	16.095	0.0	0.446421412	0.524959217	0.007091110	0.073157674	0.022547906
2019-08-30T20:30:00	0.1943	16.068	0.0	0.446069358	0.524487328	0.007081010	0.073053479	0.022515792
2019-08-30T20:35:00	0.1928	16.040	0.0	0.440884855	0.517473248	0.006932076	0.071516953	0.022042219
2019-08-30T20:40:00	0.1934	16.017	0.0	0.442921084	0.520271742	0.006991008	0.072124938	0.022229606
2019-08-30T20:45:00	0.1944	15.997	0.0	0.446408924	0.524942476	0.007090752	0.073153977	0.022546766
2019-08-30T20:50:00	0.1946	15.974	0.0	0.447103559	0.525873838	0.007110699	0.073359770	0.022610194
2019-08-30T20:55:00	0.1954	15.954	0.0	0.449890015	0.529613715	0.007190991	0.074188132	0.022865503
2019-08-30T21:00:00	0.1946	15.936	0.0	0.447097316	0.525865466	0.007110520	0.073357919	0.022609623
2019-08-30T21:05:00	0.1945	15.915	0.0	0.446745333	0.525393484	0.007100409	0.073253606	0.022577473
2019-08-30T21:10:00	0.1937	15.892	0.0	0.443950009	0.521648631	0.007020361	0.072427767	0.022322941
2019-08-30T21:15:00	0.1946	15.877	0.0	0.447087952	0.525852908	0.007110250	0.073355143	0.022608768
2019-08-30T21:20:00	0.1947	15.855	0.0	0.447433656	0.526316563	0.007120188	0.073457664	0.022640366
2019-08-30T21:25:00	0.1940	15.830	0.0	0.444987988	0.523038479	0.007050033	0.072733889	0.022417291
2019-08-30T21:30:00	0.1945	15.813	0.0	0.446729725	0.525372557	0.007099960	0.073248982	0.022576048
2019-08-30T21:35:00	0.1946	15.790	0.0	0.447075466	0.525836164	0.007109892	0.073351442	0.022607627
2019-08-30T21:40:00	0.1946	15.775	0.0	0.447072345	0.525831978	0.007109802	0.073350517	0.022607342
2019-08-30T21:45:00	0.1945	15.753	0.0	0.446720359	0.525360000	0.007099691	0.073246208	0.022575193
2019-08-30T21:50:00	0.1947	15.732	0.0	0.447414930	0.526291445	0.007119649	0.073452109	0.022638653
2019-08-30T21:55:00	0.1942	15.711	0.0	0.445667304	0.523948538	0.007069485	0.072934576	0.022479145
2019-08-30T22:00:00	0.1938	15.703	0.0	0.444267922	0.522074225	0.007029442	0.072521459	0.022351818
2019-08-30T22:05:00	0.1939	15.689	0.0	0.444712767	0.522669877	0.007042159	0.072652659	0.022392255
2019-08-30T22:10:00	0.1944	15.670	0.0	0.446553442	0.525136214	0.007094899	0.073196769	0.022559955
2019-08-30T22:15:00	0.1932	15.648	0.0	0.442459818	0.519654755	0.006977868	0.071989381	0.022187826
2019-08-30T22:20:00	0.1940	15.626	0.0	0.444999928	0.523054471	0.007050375	0.072737414	0.022418377
2019-08-30T22:25:00	0.1930	15.609	0.0	0.441603306	0.518509531	0.006953502	0.071738000	0.022110348
2019-08-30T22:30:00	0.1939	15.586	0.0	0.444842295	0.522843346	0.007045864	0.072690883	0.022404036
2019-08-30T22:35:00	0.1942	15.565	0.0	0.445985054	0.524374342	0.007078593	0.073028539	0.022508105
2019-08-30T22:40:00	0.1936	15.546	0.0	0.443637208	0.521229959	0.007011431	0.072335639	0.022294547
2019-08-30T22:45:00	0.1932	15.526	0.0	0.442335895	0.519489025	0.006974340	0.071952984	0.022176609
2019-08-30T22:50:00	0.1932	15.501	0.0	0.442431686	0.519617131	0.006977067	0.071981118	0.022185280
2019-08-30T22:55:00	0.1929	15.481	0.0	0.441129904	0.517876802	0.006940053	0.071599244	0.022067582
2019-08-30T23:00:00	0.1918	15.454	0.0	0.438205029	0.512875114	0.006842611	0.070593955	0.021757742
2019-08-30T23:05:00	0.1920	15.432	0.0	0.438823411	0.513934372	0.006863192	0.070806289	0.021823186
2019-08-30T23:10:00	0.1924	15.415	0.0	0.439984998	0.515927003	0.006901955	0.071206201	0.021946443
2019-08-30T23:15:00	0.1913	15.396	0.0	0.436796395	0.510466185	0.006795869	0.070111725	0.021609115
2019-08-30T23:20:00	0.1905	15.373	0.0	0.434692185	0.506878063	0.006726410	0.069395136	0.021388255
2019-08-30T23:25:00	0.1907	15.347	0.0	0.435311869	0.507933471	0.006746820	0.069605702	0.021453153
2019-08-30T23:30:00	0.1908	15.323	0.0	0.435658969	0.508525098	0.006758269	0.069723815	0.021489557
2019-08-30T23:35:00	0.1925	15.301	0.0	0.440085799	0.516100099	0.006905325	0.071240970	0.021957159
2019-08-30T23:40:00	0.1914	15.280	0.0	0.437169539	0.511103765	0.006808232	0.070239270	0.021648425
2019-08-30T23:45:00	0.1904	15.260	0.0	0.434520766	0.506586301	0.006720771	0.069336957	0.021370324
2019-08-30T23:50:00	0.1919	15.242	0.0	0.438406839	0.513220687	0.006849323	0.070663207	0.021779087
2019-08-30T23:55:00	0.1930	15.223	0.0	0.441580866	0.518479535	0.006952864	0.071731420	0.022108320
2019-08-31T00:00:00	0.1917	15.202	0.0	0.438012067	0.512544799	0.006836196	0.070527777	0.021737346
2019-08-31T00:05:00	0.1908	15.184	0.0	0.435637034	0.508487701	0.006757545	0.069716348	0.021487255
2019-08-31T00:10:00	0.1910	15.166	0.0	0.435984066	0.509079529	0.006769003	0.069834553	0.021523687
2019-08-31T00:15:00	0.1914	15.147	0.0	0.437147624	0.511066309	0.006807505	0.070231775	0.021646115
2019-08-31T00:20:00	0.1914	15.124	0.0	0.437222244	0.511193852	0.006809979	0.070257296	0.021653981
2019-08-31T00:25:00	0.1911	15.100	0.0	0.436480336	0.509926449	0.006785408	0.070003804	0.021575852
2019-08-31T00:30:00	0.1934	15.082	0.0	0.442950121	0.520310588	0.006991835	0.072133476	0.022232238
2019-08-31T00:35:00	0.1923	15.060	0.0	0.439621344	0.515302771	0.006889806	0.071080854	0.021907809
2019-08-31T00:40:00	0.1925	15.032	0.0	0.440239204	0.516363582	0.006910456	0.071293903	0.021973473
2019-08-31T00:45:00	0.1916	14.992	0.0	0.437595294	0.511831714	0.006822354	0.070384970	0.021693331
2019-08-31T00:50:00	0.1910	14.957	0.0	0.436036809	0.509169505	0.006770745	0.069852529	0.021529228
2019-08-31T00:55:00	0.1924	14.907	0.0	0.439919363	0.515814310	0.006899762	0.071183568	0.021939467
2019-08-31T01:00:00	0.1904	14.876	0.0	0.434551606	0.506638786	0.006721785	0.069347422	0.021373549
2019-08-31T01:05:00	0.1914	14.837	0.0	0.437077440	0.510946362	0.006805179	0.070207776	0.021638718
2019-08-31T01:10:00	0.1929	14.799	0.0	0.441270970	0.518065326	0.006944059	0.071640577	0.022080322
2019-08-31T01:15:00	0.1921	14.768	0.0	0.439130439	0.514460691	0.006873425	0.070911859	0.021855724
2019-08-31T01:20:00	0.1908	14.737	0.0	0.435667854	0.508540247	0.006758562	0.069726840	0.021490489
2019-08-31T01:25:00	0.1909	14.696	0.0	0.435742540	0.508667594	0.006761027	0.069752272	0.021498328
2019-08-31T01:30:00	0.1911	14.704	0.0	0.436361833	0.509724152	0.006781488	0.069963366	0.021563389
2019-08-31T01:35:00	0.1920	14.675	0.0	0.438884932	0.514039812	0.006865242	0.070827435	0.021829703
2019-08-31T01:40:00	0.1917	14.643	0.0	0.437871768	0.512304698	0.006831535	0.070479684	0.021722523
2019-08-31T01:45:00	0.1922	14.619	0.0	0.439305818	0.514761453	0.006879274	0.070972205	0.021874323
2019-08-31T01:50:00	0.1905	14.615	0.0	0.434753858	0.506983053	0.006728440	0.069416075	0.021394708
2019-08-31T01:55:00	0.1913	14.588	0.0	0.437007252	0.510826423	0.006802853	0.070183781	0.021631323
2019-08-31T02:00:00	0.1899	14.573	0.0	0.432994718	0.503992525	0.006670696	0.068820339	0.021211097
2019-08-31T02:05:00	0.1903	14.559	0.0	0.434160367	0.505973157	0.006708924	0.069214737	0.021332654
2019-08-31T02:10:00	0.1905	14.569	0.0	0.434780249	0.507027983	0.006729309	0.069425036	0.021397470
2019-08-31T02:15:00	0.1919	14.584	0.0	0.438393811	0.513198375	0.006848890	0.070658735	0.021777708
2019-08-31T02:20:00	0.1921	14.551	0.0	0.439012123	0.514257839	0.006869481	0.070871165	0.021843181
2019-08-31T02:25:00	0.1911	14.533	0.0	0.436366273	0.509731732	0.006781635	0.069964881	0.021563856
2019-08-31T02:30:00	0.1905	14.523	0.0	0.434806640	0.507072914	0.006730177	0.069433998	0.021400232
2019-08-31T02:35:00	0.1891	14.500	0.0	0.430788778	0.500254624	0.006598715	0.068077721	0.020982215
2019-08-31T02:40:00	0.1899	14.481	0.0	0.433047556	0.504082222	0.006672426	0.068838187	0.021216598
2019-08-31T02:45:00	0.1887	14.458	0.0	0.429845617	0.498660599	0.006568084	0.067761712	0.020884818
2019-08-31T02:50:00	0.1890	14.442	0.0	0.430740324	0.500172672	0.006597139	0.068061465	0.020977204
2019-08-31T02:55:00	0.1879	14.419	0.0	0.427533898	0.494764048	0.006493375	0.066990952	0.020647262
2019-08-31T03:00:00	0.1888	14.414	0.0	0.430070454	0.499040368	0.006575378	0.067836963	0.020908011
2019-08-31T03:05:00	0.1875	14.389	0.0	0.426588867	0.493175411	0.006462984	0.066677413	0.020550626
2019-08-31T03:10:00	0.1881	14.380	0.0	0.428032708	0.495603568	0.006509451	0.067156807	0.020698380
2019-08-31T03:15:00	0.1896	14.367	0.0	0.432206962	0.502656139	0.006644936	0.068554580	0.021129187
2019-08-31T03:20:00	0.1882	14.354	0.0	0.428456355	0.496317127	0.006523124	0.067297867	0.020741856
2019-08-31T03:25:00	0.1882	14.331	0.0	0.428531367	0.496443524	0.006525547	0.067322862	0.020749560
2019-08-31T03:30:00	0.1892	14.312	0.0	0.431066387	0.500724279	0.006607747	0.068170906	0.021010935
2019-08-31T03:35:00	0.1888	14.283	0.0	0.430048445	0.499003187	0.006574664	0.067829594	0.020905740
2019-08-31T03:40:00	0.1901	14.271	0.0	0.433672301	0.505143390	0.006692902	0.069049432	0.021281705
2019-08-31T03:45:00	0.1890	14.270	0.0	0.430744780	0.500180208	0.006597284	0.068062960	0.020977665
2019-08-31T03:50:00	0.1869	14.272	0.0	0.424798902	0.490173197	0.006405659	0.066085999	0.020368347
2019-08-31T03:55:00	0.1882	14.280	0.0	0.428434324	0.496280009	0.006522412	0.067290527	0.020739594
2019-08-31T04:00:00	0.1871	14.290	0.0	0.425497467	0.491343807	0.006427994	0.066316427	0.020439367
2019-08-31T04:05:00	0.1895	14.297	0.0	0.432013303	0.502327873	0.006638613	0.068489343	0.021109081
2019-08-31T04:10:00	0.1876	14.297	0.0	0.426770045	0.493479787	0.006468804	0.066737454	0.020569131
2019-08-31T04:15:00	0.1895	14.302	0.0	0.431916466	0.502163764	0.006635452	0.068456736	0.021099031
2019-08-31T04:20:00	0.1908	14.312	0.0	0.435413229	0.508106204	0.006750162	0.069640181	0.021463780
2019-08-31T04:25:00	0.1908	14.310	0.0	0.435637312	0.508488175	0.006757554	0.069716442	0.021487285
2019-08-31T04:30:00	0.1917	14.300	0.0	0.438038684	0.512590356	0.006837081	0.070536903	0.021740159
2019-08-31T04:35:00	0.1925	14.303	0.0	0.440164996	0.516236116	0.006907974	0.071268294	0.021965580
2019-08-31T04:40:00	0.1913	14.312	0.0	0.436853828	0.510564294	0.006797771	0.070131347	0.021615162
2019-08-31T04:45:00	0.1901	14.320	0.0	0.433536084	0.504911924	0.006688434	0.069003339	0.021267499
2019-08-31T04:50:00	0.1920	14.327	0.0	0.438933427	0.514122934	0.006866858	0.070844106	0.021834842
2019-08-31T04:55:00	0.1922	14.336	0.0	0.439428822	0.514972446	0.006883379	0.071014549	0.021887374
2019-08-31T05:00:00	0.1925	14.343	0.0	0.440195732	0.516288908	0.006909002	0.071278901	0.021968849
2019-08-31T05:05:00	0.1934	14.347	0.0	0.443023820	0.520409185	0.006993936	0.072155147	0.022238917
2019-08-31T05:10:00	0.1935	14.356	0.0	0.443311126	0.520793592	0.007002128	0.072239661	0.022264965
2019-08-31T05:15:00	0.1937	14.365	0.0	0.443947597	0.521645402	0.007020292	0.072427056	0.022322722
2019-08-31T05:20:00	0.1923	14.370	0.0	0.439731307	0.515491489	0.006893478	0.071118743	0.021919487
2019-08-31T05:25:00	0.1944	14.380	0.0	0.446616037	0.525220133	0.007096696	0.073215307	0.022565669
2019-08-31T05:30:00	0.1925	14.394	0.0	0.440178287	0.516258945	0.006908419	0.071272881	0.021966994
2019-08-31T05:35:00	0.1930	14.408	0.0	0.441604018	0.518510483	0.006953522	0.071738209	0.022110413
2019-08-31T05:40:00	0.1940	14.428	0.0	0.445034442	0.523100701	0.007051362	0.072747604	0.022421518
2019-08-31T05:45:00	0.1957	14.440	0.0	0.450901370	0.530972630	0.007220243	0.074489916	0.022958516
2019-08-31T05:50:00	0.1946	14.457	0.0	0.447353219	0.526208673	0.007117875	0.073433804	0.022633012
2019-08-31T05:55:00	0.1958	14.477	0.0	0.451474607	0.531743222	0.007236849	0.074661234	0.023011317
2019-08-31T06:00:00	0.1952	14.498	0.0	0.449321798	0.528850579	0.007174582	0.074018842	0.022813326
2019-08-31T06:05:00	0.1957	14.518	0.0	0.451002600	0.531108692	0.007223174	0.074520155	0.022967836
2019-08-31T06:10:00	0.1945	14.543	0.0	0.446756872	0.525408955	0.007100740	0.073257025	0.022578527
2019-08-31T06:15:00	0.1955	14.573	0.0	0.450530526	0.530474248	0.007209510	0.074379188	0.022924388
2019-08-31T06:20:00	0.1927	14.609	0.0	0.440782933	0.517298000	0.006928661	0.071481714	0.022031359
2019-08-31T06:25:00	0.1938	14.646	0.0	0.444477184	0.522354410	0.007035423	0.072583164	0.022370836
2019-08-31T06:30:00	0.1940	14.687	0.0	0.445113433	0.523206507	0.007053623	0.072770928	0.022428707
2019-08-31T06:35:00	0.1940	14.728	0.0	0.445051522	0.523123578	0.007051851	0.072752647	0.022423072
2019-08-31T06:40:00	0.1947	14.775	0.0	0.447432155	0.526314550	0.007120145	0.073457219	0.022640228
2019-08-31T06:45:00	0.1945	14.825	0.0	0.447021454	0.525763733	0.007108340	0.073335431	0.022602692
2019-08-31T06:50:00	0.1946	14.884	0.0	0.447308416	0.526148582	0.007116587	0.073420516	0.022628916
2019-08-31T06:55:00	0.1940	14.925	0.0	0.445152928	0.523259410	0.007054754	0.072782592	0.022432302
2019-08-31T07:00:00	0.1934	14.992	0.0	0.442996050	0.520372032	0.006993144	0.072146981	0.022236400
2019-08-31T07:05:00	0.1944	15.037	0.0	0.446425047	0.524964091	0.007091214	0.073158750	0.022548237
2019-08-31T07:10:00	0.1944	15.109	0.0	0.446363160	0.524881130	0.007089438	0.073140429	0.022542590
2019-08-31T07:15:00	0.1926	15.157	0.0	0.440524656	0.516854038	0.006920010	0.071392464	0.022003851
2019-08-31T07:20:00	0.1943	15.251	0.0	0.446239382	0.524715214	0.007085887	0.073103791	0.022531298
2019-08-31T07:25:00	0.1943	15.367	0.0	0.446177491	0.524632258	0.007084112	0.073085475	0.022525653
2019-08-31T07:30:00	0.1934	15.466	0.0	0.442973619	0.520342025	0.006992505	0.072140385	0.022234367
2019-08-31T07:35:00	0.1946	15.568	0.0	0.447100398	0.525869599	0.007110608	0.073358833	0.022609905
2019-08-31T07:40:00	0.1929	15.738	0.0	0.441452281	0.518307658	0.006949210	0.071693720	0.022096701
2019-08-31T07:45:00	0.1933	15.825	0.0	0.442787763	0.520093395	0.006987209	0.072085745	0.022217527
2019-08-31T07:50:00	0.1943	15.905	0.0	0.446216974	0.524685178	0.007085244	0.073097159	0.022529254
2019-08-31T07:55:00	0.1933	15.983	0.0	0.442663852	0.519927650	0.006983679	0.072049328	0.022206303
2019-08-31T08:00:00	0.1931	16.150	0.0	0.441903199	0.518910446	0.006962029	0.071825968	0.022137461
2019-08-31T08:05:00	0.1925	16.359	0.0	0.440042876	0.516026388	0.006903890	0.071226164	0.021952595
2019-08-31T08:10:00	0.1918	16.493	0.0	0.438363874	0.513147104	0.006847894	0.070648460	0.021774541
2019-08-31T08:15:00	0.1928	16.539	0.0	0.441032868	0.517727799	0.006937038	0.071568146	0.022057998
2019-08-31T08:20:00	0.1916	16.637	0.0	0.437723415	0.512050873	0.006826608	0.070428852	0.021706856
2019-08-31T08:25:00	0.1934	16.650	0.0	0.442990709	0.520364888	0.006992992	0.072145410	0.022235916
2019-08-31T08:30:00	0.1953	16.730	0.0	0.449558462	0.529168396	0.007181414	0.074089329	0.022835051
2019-08-31T08:35:00	0.1946	16.826	0.0	0.447055592	0.525809512	0.007109321	0.073345550	0.022605811
2019-08-31T08:40:00	0.1937	16.845	0.0	0.444201724	0.521985598	0.007027551	0.072501945	0.022345804
2019-08-31T08:45:00	0.1917	17.096	0.0	0.438026208	0.512569001	0.006836666	0.070532625	0.021738840
2019-08-31T08:50:00	0.1920	17.352	0.0	0.438793759	0.513883553	0.006862204	0.070796099	0.021820045
2019-08-31T08:55:00	0.1915	17.718	0.0	0.437385620	0.511473153	0.006815397	0.070313193	0.021671209
2019-08-31T09:00:00	0.1922	17.863	0.0	0.439240988	0.514650264	0.006877112	0.070949894	0.021867446
2019-08-31T09:05:00	0.1914	17.817	0.0	0.437289094	0.511308128	0.006812195	0.070280165	0.021661029
2019-08-31T09:10:00	0.1902	17.855	0.0	0.433972217	0.505653203	0.006702745	0.069150983	0.021313005
2019-08-31T09:15:00	0.1906	17.794	0.0	0.435014138	0.507426260	0.006737010	0.069504485	0.021421957
2019-08-31T09:20:00	0.1912	17.879	0.0	0.436599940	0.510130665	0.006789365	0.070044632	0.021588436
2019-08-31T09:25:00	0.1898	18.044	0.0	0.432736068	0.503553549	0.006662231	0.068733011	0.021184182
2019-08-31T09:30:00	0.1917	18.087	0.0	0.437864004	0.512291412	0.006831277	0.070477023	0.021721703
2019-08-31T09:35:00	0.1923	18.092	0.0	0.439718843	0.515470097	0.006893062	0.071114447	0.021918163
2019-08-31T09:40:00	0.1912	18.150	0.0	0.436679024	0.510265718	0.006791983	0.070071636	0.021596759
2019-08-31T09:45:00	0.1916	18.137	0.0	0.437719255	0.512043757	0.006826469	0.070427427	0.021706417
2019-08-31T09:50:00	0.1913	18.197	0.0	0.436854661	0.510565716	0.006797798	0.070131632	0.021615250
2019-08-31T09:55:00	0.1916	18.299	0.0	0.437622749	0.511878675	0.006823266	0.070394373	0.021696229
2019-08-31T10:00:00	0.1907	18.356	0.0	0.435396568	0.508077808	0.006749613	0.069634512	0.021462033
2019-08-31T10:05:00	0.1907	18.405	0.0	0.435150512	0.507658555	0.006741502	0.069550836	0.021436243
2019-08-31T10:10:00	0.1898	18.675	0.0	0.432722996	0.503531367	0.006661804	0.068728599	0.021182822
2019-08-31T10:15:00	0.1892	18.632	0.0	0.431111491	0.500800605	0.006609215	0.068186054	0.021015604
2019-08-31T10:20:00	0.1914	18.582	0.0	0.437135696	0.511045923	0.006807110	0.070227696	0.021644858
2019-08-31T10:25:00	0.1905	18.703	0.0	0.434711076	0.506910221	0.006727032	0.069401549	0.021390231
2019-08-31T10:30:00	0.1897	18.698	0.0	0.432555824	0.503247751	0.006656336	0.068672195	0.021165438
2019-08-31T10:35:00	0.1886	18.803	0.0	0.429577835	0.498208474	0.006559403	0.067672154	0.020857215
2019-08-31T10:40:00	0.1887	18.780	0.0	0.429877659	0.498714712	0.006569123	0.067772433	0.020888122
2019-08-31T10:45:00	0.1902	18.813	0.0	0.433998899	0.505698569	0.006703621	0.069160022	0.021315790
2019-08-31T10:50:00	0.1898	18.754	0.0	0.432934370	0.503890086	0.006668720	0.068799957	0.021204815
2019-08-31T10:55:00	0.1894	18.928	0.0	0.431596137	0.501621098	0.006625004	0.068348943	0.021065808
2019-08-31T11:00:00	0.1889	19.083	0.0	0.430256820	0.499355262	0.006581428	0.067899376	0.020927247
2019-08-31T11:05:00	0.1902	19.069	0.0	0.433831855	0.505414577	0.006698137	0.069103445	0.021298353
2019-08-31T11:10:00	0.1903	19.078	0.0	0.434130909	0.505923056	0.006707957	0.069204753	0.021329577
2019-08-31T11:15:00	0.1891	19.153	0.0	0.430882619	0.500413359	0.006601767	0.068109212	0.020991921
2019-08-31T11:20:00	0.1891	19.265	0.0	0.430909072	0.500458109	0.006602628	0.068118091	0.020994657
2019-08-31T11:25:00	0.1882	19.368	0.0	0.428475317	0.496349078	0.006523736	0.067304185	0.020743804
2019-08-31T11:30:00	0.1891	19.364	0.0	0.430961976	0.500547613	0.006604349	0.068135850	0.021000131
2019-08-31T11:35:00	0.1877	19.443	0.0	0.427159970	0.494135162	0.006481339	0.066866784	0.020608992
2019-08-31T11:40:00	0.1873	19.483	0.0	0.426091013	0.492339496	0.006447008	0.066512597	0.020499828
2019-08-31T11:45:00	0.1880	19.547	0.0	0.427760446	0.495145252	0.006500673	0.067066249	0.020670469
2019-08-31T11:50:00	0.1890	19.520	0.0	0.430521428	0.499802527	0.006590023	0.067988053	0.020954578
2019-08-31T11:55:00	0.1887	19.486	0.0	0.429728033	0.498462044	0.006564271	0.067722377	0.020872694
2019-08-31T12:00:00	0.1879	19.439	0.0	0.427566264	0.494818500	0.006494417	0.067001706	0.020650577
2019-08-31T12:05:00	0.1871	19.439	0.0	0.425401642	0.491183149	0.006424927	0.066284789	0.020429616
2019-08-31T12:10:00	0.1891	19.485	0.0	0.430900440	0.500443506	0.006602347	0.068115194	0.020993764
2019-08-31T12:15:00	0.1871	19.554	0.0	0.425454724	0.491272141	0.006426626	0.066302314	0.020435017
2019-08-31T12:20:00	0.1882	19.619	0.0	0.428493164	0.496379150	0.006524313	0.067310132	0.020745636
2019-08-31T12:25:00	0.1889	19.648	0.0	0.430433415	0.499653739	0.006587163	0.067958550	0.020945485
2019-08-31T12:30:00	0.1889	19.756	0.0	0.430459875	0.499698468	0.006588023	0.067967419	0.020948219
2019-08-31T12:35:00	0.1877	19.839	0.0	0.427204343	0.494209771	0.006482767	0.066881512	0.020613531
2019-08-31T12:40:00	0.1867	19.832	0.0	0.424216629	0.489198495	0.006387078	0.065894305	0.020309265
2019-08-31T12:45:00	0.1849	19.828	0.0	0.419298823	0.481003725	0.006231456	0.064288780	0.019814426
2019-08-31T12:50:00	0.1854	19.736	0.0	0.420700391	0.483332408	0.006275570	0.064743897	0.019954698
2019-08-31T12:55:00	0.1843	19.741	0.0	0.417700673	0.478355041	0.006181385	0.063772207	0.019655214
2019-08-31T13:00:00	0.1840	19.734	0.0	0.416901002	0.477032357	0.006156423	0.063514679	0.019575841
2019-08-31T13:05:00	0.1841	19.794	0.0	0.417203172	0.477531949	0.006165848	0.063611916	0.019605810
2019-08-31T13:10:00	0.1842	19.860	0.0	0.417505285	0.478031699	0.006175280	0.063709226	0.019635802
2019-08-31T13:15:00	0.1839	19.783	0.0	0.416705517	0.476709285	0.006150330	0.063451821	0.019556467
2019-08-31T13:20:00	0.1839	19.721	0.0	0.416732201	0.476753379	0.006151161	0.063460399	0.019559111
2019-08-31T13:25:00	0.1827	19.831	0.0	0.413448972	0.471342798	0.006049370	0.062410232	0.019235440
2019-08-31T13:30:00	0.1836	19.970	0.0	0.415683042	0.475021195	0.006118522	0.063123660	0.019455325
2019-08-31T13:35:00	0.1846	19.997	0.0	0.418464594	0.479620240	0.006205288	0.064018814	0.019731220
2019-08-31T13:40:00	0.1825	20.093	0.0	0.412700677	0.470113800	0.006026314	0.062172371	0.019162129
2019-08-31T13:45:00	0.1848	20.110	0.0	0.419068289	0.480621216	0.006224218	0.064214107	0.019791411
2019-08-31T13:50:00	0.1814	20.268	0.0	0.409712719	0.465221723	0.005934784	0.061228074	0.018871087
2019-08-31T13:55:00	0.1819	20.205	0.0	0.411122701	0.467527180	0.005977870	0.061672584	0.019008089
2019-08-31T14:00:00	0.1825	20.109	0.0	0.412807679	0.470289444	0.006029608	0.062206350	0.019172601
2019-08-31T14:05:00	0.1836	20.105	0.0	0.415869940	0.475329546	0.006124328	0.063183567	0.019473789
2019-08-31T14:10:00	0.1814	20.222	0.0	0.409819921	0.465396818	0.005938053	0.061261802	0.018881482
2019-08-31T14:15:00	0.1806	20.157	0.0	0.407631266	0.461828313	0.005871524	0.060575433	0.018669937
2019-08-31T14:20:00	0.1802	20.191	0.0	0.406271885	0.459618512	0.005830431	0.060151483	0.018539271
2019-08-31T14:25:00	0.1811	20.375	0.0	0.408793017	0.463720860	0.005906782	0.060939178	0.018782046
2019-08-31T14:30:00	0.1791	20.528	0.0	0.403271721	0.454759356	0.005740356	0.059222191	0.018252854
2019-08-31T14:35:00	0.1782	20.649	0.0	0.400795602	0.450767481	0.005666652	0.058461801	0.018018495
2019-08-31T14:40:00	0.1793	20.629	0.0	0.403881218	0.455744524	0.005758586	0.059410272	0.018310823
2019-08-31T14:45:00	0.1762	20.459	0.0	0.395272935	0.441924292	0.005504331	0.056787172	0.017502358
2019-08-31T14:50:00	0.1791	20.359	0.0	0.403379363	0.454933271	0.005743573	0.059255381	0.018263084
2019-08-31T14:55:00	0.1796	20.301	0.0	0.404795019	0.457223460	0.005785984	0.059692934	0.018397942
2019-08-31T15:00:00	0.1780	20.380	0.0	0.400373641	0.450088883	0.005654149	0.058332813	0.017978739
2019-08-31T15:05:00	0.1788	20.280	0.0	0.402626279	0.453717194	0.005721088	0.059023410	0.018191588
2019-08-31T15:10:00	0.1786	20.221	0.0	0.402097089	0.452863587	0.005705320	0.058860733	0.018141450
2019-08-31T15:15:00	0.1783	20.190	0.0	0.401011221	0.451114426	0.005673047	0.058527779	0.018038830
2019-08-31T15:20:00	0.1764	20.211	0.0	0.395741549	0.442671442	0.005517994	0.056928130	0.017545803
2019-08-31T15:25:00	0.1767	20.340	0.0	0.396606092	0.444051417	0.005543255	0.057188735	0.017626124
2019-08-31T15:30:00	0.1793	20.199	0.0	0.403872440	0.455730328	0.005758323	0.059407561	0.018309987
2019-08-31T15:35:00	0.1796	20.079	0.0	0.404732474	0.457122162	0.005784107	0.059673561	0.018391971
2019-08-31T15:40:00	0.1787	20.081	0.0	0.402258671	0.453124145	0.005710132	0.058910376	0.018156750
2019-08-31T15:45:00	0.1812	19.994	0.0	0.409222033	0.464420684	0.005919834	0.061073837	0.018823550
2019-08-31T15:50:00	0.1789	19.849	0.0	0.402868564	0.454108265	0.005728316	0.059097980	0.018214571
2019-08-31T15:55:00	0.1793	19.773	0.0	0.404006940	0.455947862	0.005762351	0.059449113	0.018322794
2019-08-31T16:00:00	0.1792	19.676	0.0	0.403756053	0.455542129	0.005754840	0.059371619	0.018298909
2019-08-31T16:05:00	0.1801	19.549	0.0	0.406048067	0.459255160	0.005823682	0.060081853	0.018517811
2019-08-31T16:10:00	0.1800	19.427	0.0	0.405841752	0.458920343	0.005817465	0.060017712	0.018498042
2019-08-31T16:15:00	0.1814	19.323	0.0	0.409792087	0.465351353	0.005937204	0.061253043	0.018878783
2019-08-31T16:20:00	0.1807	19.223	0.0	0.407924686	0.462305960	0.005880417	0.060667178	0.018698214
2019-08-31T16:25:00	0.1818	19.137	0.0	0.410763901	0.466939990	0.005966888	0.061559284	0.018973169
2019-08-31T16:30:00	0.1817	19.121	0.0	0.410558200	0.466603512	0.005960598	0.061494386	0.018953167
2019-08-31T16:35:00	0.1827	19.099	0.0	0.413392710	0.471250340	0.006047634	0.062392329	0.019229922
2019-08-31T16:40:00	0.1834	19.031	0.0	0.415119280	0.474091663	0.006101026	0.062943164	0.019399694
2019-08-31T16:45:00	0.1836	19.002	0.0	0.415741503	0.475117635	0.006120338	0.063142395	0.019461099
2019-08-31T16:50:00	0.1822	18.939	0.0	0.411947648	0.468878582	0.006003166	0.061933562	0.019088525
2019-08-31T16:55:00	0.1826	18.935	0.0	0.413123540	0.470808120	0.006039336	0.062306719	0.019203536
2019-08-31T17:00:00	0.1832	18.877	0.0	0.414574507	0.473194274	0.006084149	0.062769045	0.019346029
2019-08-31T17:05:00	0.1828	18.759	0.0	0.413541226	0.471494421	0.006052216	0.062439595	0.019244490
2019-08-31T17:10:00	0.1840	18.677	0.0	0.416921567	0.477066350	0.006157064	0.063521294	0.019577880
2019-08-31T17:15:00	0.1858	18.580	0.0	0.421943592	0.485402514	0.006314858	0.065149226	0.020079624
2019-08-31T17:20:00	0.1841	18.477	0.0	0.417062797	0.477299829	0.006161468	0.063566733	0.019591884
2019-08-31T17:25:00	0.1860	18.368	0.0	0.422358994	0.486095168	0.006328019	0.065285006	0.020121473
2019-08-31T17:30:00	0.1842	18.251	0.0	0.417479456	0.477988963	0.006174473	0.063700903	0.019633237
2019-08-31T17:35:00	0.1866	18.155	0.0	0.424146296	0.489080824	0.006384836	0.065871173	0.020302135
2019-08-31T17:40:00	0.1867	18.070	0.0	0.424216597	0.489198443	0.006387077	0.065894295	0.020309262
2019-08-31T17:45:00	0.1876	17.988	0.0	0.426753389	0.493451801	0.006468268	0.066731933	0.020567430
2019-08-31T17:50:00	0.1889	17.946	0.0	0.430379597	0.499562767	0.006585415	0.067940513	0.020939926
2019-08-31T17:55:00	0.1869	17.927	0.0	0.424975869	0.490469619	0.006411312	0.066144327	0.020386324
2019-08-31T18:00:00	0.1863	17.913	0.0	0.423126065	0.487375463	0.006352366	0.065536185	0.020198889
2019-08-31T18:05:00	0.1874	17.894	0.0	0.426212520	0.492543447	0.006450905	0.066552799	0.020512219
2019-08-31T18:10:00	0.1892	17.873	0.0	0.431206025	0.500960597	0.006612293	0.068217808	0.021025391
2019-08-31T18:15:00	0.1887	17.831	0.0	0.429909979	0.498769297	0.006570171	0.067783248	0.020891455
2019-08-31T18:20:00	0.1890	17.790	0.0	0.430526565	0.499811212	0.006590190	0.067989776	0.020955109
2019-08-31T18:25:00	0.1881	17.743	0.0	0.428135880	0.495777297	0.006512779	0.067191143	0.020708963
2019-08-31T18:30:00	0.1903	17.698	0.0	0.434214372	0.506065011	0.006710699	0.069233043	0.021338296
2019-08-31T18:35:00	0.1903	17.657	0.0	0.434284245	0.506183868	0.006712995	0.069256732	0.021345597
2019-08-31T18:40:00	0.1907	17.614	0.0	0.435171682	0.507694619	0.006742200	0.069558033	0.021438461
2019-08-31T18:45:00	0.1931	17.560	0.0	0.441963982	0.518991712	0.006963758	0.071843804	0.022142958
2019-08-31T18:50:00	0.1935	17.505	0.0	0.443450715	0.520980382	0.007006109	0.072280740	0.022277626
2019-08-31T18:55:00	0.1943	17.460	0.0	0.446332769	0.524840393	0.007088566	0.073131432	0.022539818
2019-08-31T19:00:00	0.1942	17.410	0.0	0.445724303	0.524024914	0.007071119	0.072951427	0.022484338
2019-08-31T19:05:00	0.1943	17.370	0.0	0.446162710	0.524612447	0.007083688	0.073081101	0.022524305
2019-08-31T19:10:00	0.1950	17.330	0.0	0.448693773	0.528007415	0.007156467	0.073831954	0.022755725
2019-08-31T19:15:00	0.1944	17.274	0.0	0.446690486	0.525319947	0.007098834	0.073237359	0.022572465
2019-08-31T19:20:00	0.1942	17.217	0.0	0.445733118	0.524036725	0.007071371	0.072954033	0.022485141
2019-08-31T19:25:00	0.1954	17.172	0.0	0.450007658	0.529771745	0.007194391	0.074223206	0.022876313
2019-08-31T19:30:00	0.1947	17.118	0.0	0.447656390	0.526615341	0.007126594	0.073523755	0.022660735
2019-08-31T19:35:00	0.1943	17.061	0.0	0.446350395	0.524864019	0.007089072	0.073136650	0.022541426
2019-08-31T19:40:00	0.1960	17.028	0.0	0.452017762	0.532473614	0.007252600	0.074823739	0.023061403
2019-08-31T19:45:00	0.1956	16.981	0.0	0.450713467	0.530720091	0.007214804	0.074433801	0.022941220
2019-08-31T19:50:00	0.1955	16.934	0.0	0.450454307	0.530371831	0.007207305	0.074356440	0.022917377
2019-08-31T19:55:00	0.1946	16.892	0.0	0.447056975	0.525811367	0.007109360	0.073345960	0.022605937
2019-08-31T20:00:00	0.1946	16.845	0.0	0.447146388	0.525931276	0.007111930	0.073372468	0.022614107
2019-08-31T20:05:00	0.1956	16.796	0.0	0.450722268	0.530731919	0.007215059	0.074436429	0.022942030
2019-08-31T20:10:00	0.1945	16.759	0.0	0.446976370	0.525703276	0.007107045	0.073322068	0.022598573
2019-08-31T20:15:00	0.1949	16.721	0.0	0.448112161	0.527226840	0.007139711	0.073659083	0.022702445
2019-08-31T20:20:00	0.1962	16.682	0.0	0.452731944	0.533434345	0.007273337	0.075037677	0.023127341
2019-08-31T20:25:00	0.1943	16.665	0.0	0.446197964	0.524659698	0.007084699	0.073091533	0.022527520
2019-08-31T20:30:00	0.1946	16.660	0.0	0.447334018	0.526182920	0.007117323	0.073428109	0.022631256
2019-08-31T20:35:00	0.1948	16.626	0.0	0.447772214	0.526770725	0.007129926	0.073558134	0.022671331
2019-08-31T20:40:00	0.1941	16.593	0.0	0.445419376	0.523616354	0.007062383	0.072861300	0.022456560
2019-08-31T20:45:00	0.1943	16.584	0.0	0.446206777	0.524671511	0.007084952	0.073094142	0.022528324
2019-08-31T20:50:00	0.1943	16.551	0.0	0.446296213	0.524791391	0.007087518	0.073120612	0.022536483
2019-08-31T20:55:00	0.1953	16.503	0.0	0.449524428	0.529122689	0.007180432	0.074079191	0.022831926
2019-08-31T21:00:00	0.1951	16.462	0.0	0.448916541	0.528306460	0.007162890	0.073898219	0.022776149
2019-08-31T21:05:00	0.1960	16.419	0.0	0.452142234	0.532641028	0.007256212	0.074861004	0.023072888
2019-08-31T21:10:00	0.1954	16.366	0.0	0.450141007	0.529950887	0.007198245	0.074262971	0.022888569
2019-08-31T21:15:00	0.1951	16.325	0.0	0.448835981	0.528198312	0.007160567	0.073874252	0.022768762
2019-08-31T21:20:00	0.1966	16.290	0.0	0.454151060	0.535344559	0.007314628	0.075463671	0.023258636
2019-08-31T21:25:00	0.1961	16.247	0.0	0.452499331	0.533121385	0.007266580	0.074967963	0.023105854
2019-08-31T21:30:00	0.1960	16.204	0.0	0.452240309	0.532772946	0.007259059	0.074890372	0.023081940
2019-08-31T21:35:00	0.1976	16.163	0.0	0.457550004	0.539926200	0.007413992	0.076488784	0.023574586
2019-08-31T21:40:00	0.1965	16.122	0.0	0.453811726	0.534887650	0.007304744	0.075361701	0.023227208
2019-08-31T21:45:00	0.1978	16.089	0.0	0.458423676	0.541105351	0.007439638	0.076753378	0.023656137
2019-08-31T21:50:00	0.1963	16.058	0.0	0.453293865	0.534190534	0.007289673	0.075206214	0.023179286
2019-08-31T21:55:00	0.1971	16.024	0.0	0.455819553	0.537592482	0.007363322	0.075966036	0.023413470
2019-08-31T22:00:00	0.1968	15.987	0.0	0.454864789	0.536305880	0.007335438	0.075678367	0.023324808
2019-08-31T22:05:00	0.1987	15.967	0.0	0.461467861	0.545218646	0.007529341	0.077678826	0.023941369
2019-08-31T22:10:00	0.1968	15.941	0.0	0.454858560	0.536297489	0.007335257	0.075676492	0.023324230
2019-08-31T22:15:00	0.1957	15.918	0.0	0.451024858	0.531138610	0.007223819	0.074526805	0.022969885
2019-08-31T22:20:00	0.1951	15.895	0.0	0.448930481	0.528325174	0.007163292	0.073902367	0.022777427
2019-08-31T22:25:00	0.1952	15.871	0.0	0.449275995	0.528789076	0.007173260	0.074005205	0.022809123
2019-08-31T22:30:00	0.1946	15.847	0.0	0.447180525	0.525977057	0.007112911	0.073382590	0.022617227
2019-08-31T22:35:00	0.1943	15.817	0.0	0.446130737	0.524569592	0.007082771	0.073071640	0.022521389
2019-08-31T22:40:00	0.1932	15.782	0.0	0.442287029	0.519423676	0.006972949	0.071938634	0.022172186
2019-08-31T22:45:00	0.1930	15.753	0.0	0.441585141	0.518485248	0.006952986	0.071732673	0.022108707
2019-08-31T22:50:00	0.1930	15.724	0.0	0.441582014	0.518481069	0.006952897	0.071731757	0.022108424
2019-08-31T22:55:00	0.1931	15.694	0.0	0.441928288	0.518943989	0.006962742	0.071833330	0.022139730
2019-08-31T23:00:00	0.1905	15.664	0.0	0.434666256	0.506833925	0.006725557	0.069386333	0.021385542
2019-08-31T23:05:00	0.1906	15.636	0.0	0.434936333	0.507293753	0.006734447	0.069478050	0.021413810
2019-08-31T23:10:00	0.1907	15.611	0.0	0.435206367	0.507753711	0.006743343	0.069569825	0.021442096
2019-08-31T23:15:00	0.1898	15.602	0.0	0.432750068	0.503577304	0.006662689	0.068737736	0.021185638
2019-08-31T23:20:00	0.1926	15.590	0.0	0.440370046	0.516588363	0.006914834	0.071339070	0.021987394
2019-08-31T23:25:00	0.1903	15.566	0.0	0.434108893	0.505885613	0.006707233	0.069197292	0.021327277
2019-08-31T23:30:00	0.1912	15.542	0.0	0.436558315	0.510059589	0.006787988	0.070030421	0.021584056
2019-08-31T23:35:00	0.1930	15.516	0.0	0.441553875	0.518443455	0.006952097	0.071723506	0.022105881
2019-08-31T23:40:00	0.1913	15.479	0.0	0.436825651	0.510516160	0.006796838	0.070121720	0.021612195
2019-08-31T23:45:00	0.1911	15.449	0.0	0.436278756	0.509582355	0.006778741	0.069935025	0.021554654
2019-08-31T23:50:00	0.1913	15.429	0.0	0.436820780	0.510507840	0.006796676	0.070120056	0.021611682
2019-08-31T23:55:00	0.1895	15.407	0.0	0.431911766	0.502155800	0.006635299	0.068455154	0.021098543
2019-09-01T00:00:00	0.1888	15.393	0.0	0.429997276	0.498916749	0.006573003	0.067812465	0.020900460
2019-09-01T00:05:00	0.1895	15.381	0.0	0.431906880	0.502147522	0.006635139	0.068453509	0.021098036
2019-09-01T00:10:00	0.1911	15.377	0.0	0.436266574	0.509561565	0.006778339	0.069930871	0.021553373
2019-09-01T00:15:00	0.1908	15.373	0.0	0.435447108	0.508163943	0.006751280	0.069651707	0.021467333
2019-09-01T00:20:00	0.1903	15.370	0.0	0.434082059	0.505839979	0.006706352	0.069188198	0.021324475
2019-09-01T00:25:00	0.1907	15.366	0.0	0.435169799	0.507691412	0.006742138	0.069557393	0.021438264
2019-09-01T00:30:00	0.1880	15.363	0.0	0.427794667	0.495202848	0.006501776	0.067077627	0.020673976
2019-09-01T00:35:00	0.1890	15.353	0.0	0.430526689	0.499811421	0.006590194	0.067989817	0.020955122
2019-09-01T00:40:00	0.1892	15.326	0.0	0.431070594	0.500731398	0.006607884	0.068172319	0.021011371
2019-09-01T00:45:00	0.1902	15.304	0.0	0.433797203	0.505355674	0.006697000	0.069091712	0.021294737
2019-09-01T00:50:00	0.1903	15.277	0.0	0.434067422	0.505815089	0.006705871	0.069183238	0.021322946
2019-09-01T00:55:00	0.1902	15.258	0.0	0.433792323	0.505347380	0.006696840	0.069090060	0.021294228
2019-09-01T01:00:00	0.1900	15.250	0.0	0.433244430	0.504416508	0.006678874	0.068904713	0.021237102
2019-09-01T01:05:00	0.1901	15.239	0.0	0.433514739	0.504875659	0.006687734	0.068996118	0.021265274
2019-09-01T01:10:00	0.1883	15.226	0.0	0.428595904	0.496552283	0.006527632	0.067344372	0.020756189
2019-09-01T01:15:00	0.1887	15.210	0.0	0.429687257	0.498393198	0.006562950	0.067708740	0.020868491
2019-09-01T01:20:00	0.1896	15.188	0.0	0.432143215	0.502548072	0.006642854	0.068533102	0.021122568
2019-09-01T01:25:00	0.1891	15.161	0.0	0.430775443	0.500232069	0.006598281	0.068073247	0.020980836
2019-09-01T01:30:00	0.1891	15.144	0.0	0.430772998	0.500227934	0.006598201	0.068072427	0.020980583
2019-09-01T01:35:00	0.1895	15.137	0.0	0.431862912	0.502073019	0.006633705	0.068438708	0.021093474
2019-09-01T01:40:00	0.1887	15.135	0.0	0.429675027	0.498372550	0.006562553	0.067704651	0.020867231
2019-09-01T01:45:00	0.1899	15.136	0.0	0.432949666	0.503916049	0.006669221	0.068805123	0.021206407
2019-09-01T01:50:00	0.1902	15.136	0.0	0.433765484	0.505301761	0.006695959	0.069080974	0.021291427
2019-09-01T01:55:00	0.1901	15.139	0.0	0.433763044	0.505297614	0.006695879	0.069080148	0.021291172
2019-09-01T02:00:00	0.1892	15.140	0.0	0.431304605	0.501127464	0.006615504	0.068250931	0.021035600
2019-09-01T02:05:00	0.1888	15.143	0.0	0.430209433	0.499275186	0.006579889	0.067883503	0.020922355
2019-09-01T02:10:00	0.1907	15.145	0.0	0.435391045	0.508068396	0.006749431	0.069632634	0.021461454
2019-09-01T02:15:00	0.1901	15.149	0.0	0.433753285	0.505281025	0.006695559	0.069076844	0.021290154
2019-09-01T02:20:00	0.1882	15.151	0.0	0.428561637	0.496494535	0.006526525	0.067332951	0.020752669
2019-09-01T02:25:00	0.1888	15.153	0.0	0.430199652	0.499258659	0.006579572	0.067880227	0.020921345
2019-09-01T02:30:00	0.1888	15.153	0.0	0.430197207	0.499254527	0.006579492	0.067879408	0.020921093
2019-09-01T02:35:00	0.1896	15.151	0.0	0.432379517	0.502948721	0.006650573	0.068612740	0.021147113
2019-09-01T02:40:00	0.1878	15.150	0.0	0.427457290	0.494635174	0.006490908	0.066965502	0.020639418
2019-09-01T02:45:00	0.1884	15.148	0.0	0.429096405	0.497396127	0.006543814	0.067511324	0.020807646
2019-09-01T02:50:00	0.1882	15.144	0.0	0.428546952	0.496469786	0.006526050	0.067328056	0.020751161
2019-09-01T02:55:00	0.1879	15.137	0.0	0.427723651	0.495083329	0.006499488	0.067054016	0.020666699
2019-09-01T03:00:00	0.1868	15.132	0.0	0.424707880	0.490020768	0.006402752	0.066056011	0.020359104
2019-09-01T03:05:00	0.1867	15.125	0.0	0.424431212	0.489557590	0.006393922	0.065964910	0.020331026
2019-09-01T03:10:00	0.1876	15.120	0.0	0.426895037	0.493689824	0.006472820	0.066778894	0.020581904
2019-09-01T03:15:00	0.1880	15.113	0.0	0.427987520	0.495527486	0.006507994	0.067141772	0.020693746
2019-09-01T03:20:00	0.1870	15.108	0.0	0.425246360	0.490922862	0.006419960	0.066233541	0.020413821
2019-09-01T03:25:00	0.1890	15.101	0.0	0.430716777	0.500132849	0.006596373	0.068053566	0.020974770
2019-09-01T03:30:00	0.1872	15.092	0.0	0.425789566	0.491833687	0.006437347	0.066412923	0.020469108
2019-09-01T03:35:00	0.1882	15.083	0.0	0.428524922	0.496432664	0.006525339	0.067320715	0.020748898
2019-09-01T03:40:00	0.1874	15.078	0.0	0.426332591	0.492745028	0.006454757	0.066592541	0.020524468
2019-09-01T03:45:00	0.1878	15.073	0.0	0.427425449	0.494581614	0.006489883	0.066954925	0.020636158
2019-09-01T03:50:00	0.1872	15.069	0.0	0.425779758	0.491817236	0.006437033	0.066409681	0.020468109
2019-09-01T03:55:00	0.1882	15.065	0.0	0.428515132	0.496416166	0.006525022	0.067317452	0.020747893
2019-09-01T04:00:00	0.1868	15.060	0.0	0.424678439	0.489971470	0.006401812	0.066046313	0.020356115
2019-09-01T04:05:00	0.1869	15.056	0.0	0.424996331	0.490503899	0.006411966	0.066151074	0.020388403
2019-09-01T04:10:00	0.1874	15.051	0.0	0.426136223	0.492415375	0.006448458	0.066527553	0.020504438
2019-09-01T04:15:00	0.1869	15.045	0.0	0.424809615	0.490191140	0.006406001	0.066089530	0.020369435
2019-09-01T04:20:00	0.1872	15.040	0.0	0.425675631	0.491642579	0.006433698	0.066375274	0.020457504
2019-09-01T04:25:00	0.1863	15.037	0.0	0.423251274	0.487584601	0.006356345	0.065577241	0.020211543
2019-09-01T04:30:00	0.1862	15.033	0.0	0.423020587	0.487199317	0.006349014	0.065501611	0.020188233
2019-09-01T04:35:00	0.1852	15.029	0.0	0.420317354	0.482695460	0.006263495	0.064619323	0.019916303
2019-09-01T04:40:00	0.1853	15.025	0.0	0.420361198	0.482768347	0.006264876	0.064633575	0.019920696
2019-09-01T04:45:00	0.1856	15.020	0.0	0.421229587	0.484213072	0.006292276	0.064916246	0.020007818
2019-09-01T04:50:00	0.1867	15.019	0.0	0.424293078	0.489326415	0.006389516	0.065919454	0.020317016
2019-09-01T04:55:00	0.1840	15.014	0.0	0.416915014	0.477055517	0.006156860	0.063519186	0.019577230
2019-09-01T05:00:00	0.1845	15.011	0.0	0.418335896	0.479406979	0.006201257	0.063977228	0.019718403
2019-09-01T05:05:00	0.1822	15.008	0.0	0.412036202	0.469023757	0.006005886	0.061961616	0.019097172
2019-09-01T05:10:00	0.1836	15.007	0.0	0.415668770	0.474997652	0.006118078	0.063119087	0.019453916
2019-09-01T05:15:00	0.1819	15.006	0.0	0.411018593	0.467356767	0.005974682	0.061639697	0.018997953
2019-09-01T05:20:00	0.1818	15.006	0.0	0.410786142	0.466976379	0.005967568	0.061566304	0.018975333
2019-09-01T05:25:00	0.1825	15.008	0.0	0.412765035	0.470219441	0.006028295	0.062192807	0.019168427
2019-09-01T05:30:00	0.1809	15.010	0.0	0.408383367	0.463053099	0.005894335	0.060810766	0.018742469
2019-09-01T05:35:00	0.1824	15.013	0.0	0.412576897	0.469910653	0.006022505	0.062133079	0.019150018
2019-09-01T05:40:00	0.1831	15.017	0.0	0.414553568	0.473159799	0.006083501	0.062762359	0.019343968
2019-09-01T05:45:00	0.1838	15.022	0.0	0.416252194	0.475960501	0.006136215	0.063306200	0.019511586
2019-09-01T05:50:00	0.1829	15.027	0.0	0.413813639	0.471942284	0.006060625	0.062526349	0.019271228
2019-09-01T05:55:00	0.1845	15.034	0.0	0.418268238	0.479294884	0.006199139	0.063955372	0.019711667
2019-09-01T06:00:00	0.1840	15.044	0.0	0.416935172	0.477088840	0.006157488	0.063525671	0.019579229
2019-09-01T06:05:00	0.1846	15.054	0.0	0.418631281	0.479896520	0.006210511	0.064072701	0.019747829
2019-09-01T06:10:00	0.1818	15.064	0.0	0.410950625	0.467245527	0.005972602	0.061618231	0.018991337
2019-09-01T06:15:00	0.1810	15.079	0.0	0.408503930	0.463249578	0.005897996	0.060848541	0.018754111
2019-09-01T06:20:00	0.1807	15.096	0.0	0.407716984	0.461967826	0.005874121	0.060602226	0.018678195
2019-09-01T06:25:00	0.1790	15.117	0.0	0.403043350	0.454390487	0.005733534	0.059151812	0.018231163
2019-09-01T06:30:00	0.1796	15.145	0.0	0.404754361	0.457157608	0.005784764	0.059680340	0.018394060
2019-09-01T06:35:00	0.1794	15.179	0.0	0.404243286	0.456330237	0.005769433	0.059522172	0.018345311
2019-09-01T06:40:00	0.1784	15.217	0.0	0.401507945	0.451914170	0.005687796	0.058679945	0.018085729
2019-09-01T06:45:00	0.1783	15.255	0.0	0.400995807	0.451089620	0.005672590	0.058523061	0.018037376
2019-09-01T06:50:00	0.1758	15.310	0.0	0.394067179	0.440004600	0.005469270	0.056425451	0.017390872
2019-09-01T06:55:00	0.1781	15.383	0.0	0.400527897	0.450336902	0.005658718	0.058379947	0.017993267
2019-09-01T07:00:00	0.1777	15.421	0.0	0.399458382	0.448618635	0.005627087	0.058053621	0.017892690
2019-09-01T07:05:00	0.1761	15.486	0.0	0.395039270	0.441551964	0.005497526	0.056716965	0.017480719
2019-09-01T07:10:00	0.1759	15.588	0.0	0.394524987	0.440733015	0.005482566	0.056562627	0.017433151
2019-09-01T07:15:00	0.1763	15.658	0.0	0.395686989	0.442584422	0.005516402	0.056911707	0.017540741
2019-09-01T07:20:00	0.1766	15.732	0.0	0.396289921	0.443546511	0.005534009	0.057093346	0.017596724
2019-09-01T07:25:00	0.1749	15.797	0.0	0.391581721	0.436059930	0.005397423	0.055684215	0.017162416
2019-09-01T07:30:00	0.1767	15.890	0.0	0.396658059	0.444134431	0.005544775	0.057204423	0.017630959
2019-09-01T07:35:00	0.1751	15.998	0.0	0.392230901	0.437088628	0.005416133	0.055877250	0.017221911
2019-09-01T07:40:00	0.1751	16.094	0.0	0.392275535	0.437159397	0.005417421	0.055890537	0.017226006
2019-09-01T07:45:00	0.1740	16.181	0.0	0.389238493	0.432356317	0.005330210	0.054990792	0.016948696
2019-09-01T07:50:00	0.1728	16.297	0.0	0.385633278	0.426687046	0.005227786	0.053934100	0.016623014
2019-09-01T07:55:00	0.1741	16.379	0.0	0.389327935	0.432497413	0.005332766	0.055017164	0.016956824
2019-09-01T08:00:00	0.1734	16.524	0.0	0.387408511	0.429474247	0.005278071	0.054452883	0.016782907
2019-09-01T08:05:00	0.1717	16.614	0.0	0.382672732	0.422057744	0.005144567	0.053075553	0.016358401
2019-09-01T08:10:00	0.1709	16.770	0.0	0.380462780	0.418617497	0.005082969	0.052440055	0.016162534
2019-09-01T08:15:00	0.1711	16.947	0.0	0.381071780	0.419564222	0.005099899	0.052614723	0.016216368
2019-09-01T08:20:00	0.1715	17.060	0.0	0.381962348	0.420950453	0.005124718	0.052870773	0.016295286
2019-09-01T08:25:00	0.1690	17.181	0.0	0.374946127	0.410086901	0.004931138	0.050873637	0.015679749
2019-09-01T08:30:00	0.1685	17.241	0.0	0.373575054	0.407979407	0.004893829	0.050488732	0.015561118
2019-09-01T08:35:00	0.1689	17.285	0.0	0.374753297	0.409790195	0.004925880	0.050819398	0.015663032
2019-09-01T08:40:00	0.1684	17.396	0.0	0.373382045	0.407683134	0.004888591	0.050434689	0.015544461
2019-09-01T08:45:00	0.1679	17.696	0.0	0.372009518	0.405579147	0.004851436	0.050051369	0.015426318
2019-09-01T08:50:00	0.1677	17.788	0.0	0.371203494	0.404345912	0.004829695	0.049827076	0.015357189
2019-09-01T08:55:00	0.1681	17.913	0.0	0.372383632	0.406152138	0.004861546	0.050155679	0.015458467
2019-09-01T09:00:00	0.1664	17.997	0.0	0.367599727	0.398853252	0.004733204	0.048831594	0.015050372
2019-09-01T09:05:00	0.1660	18.111	0.0	0.366506552	0.397193931	0.004704164	0.048531988	0.014958030
2019-09-01T09:10:00	0.1660	18.286	0.0	0.366551962	0.397262795	0.004705368	0.048544411	0.014961859
2019-09-01T09:15:00	0.1648	18.547	0.0	0.363176581	0.392158958	0.004616356	0.047626099	0.014678826
2019-09-01T09:20:00	0.1624	18.885	0.0	0.356356347	0.381938334	0.004439577	0.045802294	0.014116712
2019-09-01T09:25:00	0.1636	18.936	0.0	0.359552845	0.386713209	0.004521919	0.046651807	0.014378540
2019-09-01T09:30:00	0.1651	18.892	0.0	0.363883755	0.393225756	0.004634921	0.047817630	0.014737858
2019-09-01T09:35:00	0.1644	18.797	0.0	0.361931093	0.390283318	0.004583767	0.047289882	0.014575201
2019-09-01T09:40:00	0.1633	18.769	0.0	0.358831192	0.385632858	0.004503251	0.046459208	0.014319179
2019-09-01T09:45:00	0.1621	18.992	0.0	0.355437674	0.380571022	0.004416077	0.045559855	0.014041990
2019-09-01T09:50:00	0.1592	19.152	0.0	0.347137902	0.368318619	0.004207108	0.043403959	0.013377522
2019-09-01T09:55:00	0.1615	19.295	0.0	0.353519308	0.377722982	0.004367244	0.045056053	0.013886713
2019-09-01T10:00:00	0.1607	19.248	0.0	0.351264711	0.374388142	0.004310263	0.044468186	0.013705527
2019-09-01T10:05:00	0.1585	19.344	0.0	0.345008791	0.365204661	0.004154465	0.042860845	0.013210129
2019-09-01T10:10:00	0.1597	19.425	0.0	0.348562703	0.370409106	0.004242556	0.043769667	0.013490236
2019-09-01T10:15:00	0.1602	19.272	0.0	0.349804886	0.372235994	0.004273604	0.044089982	0.013588961
2019-09-01T10:20:00	0.1618	19.086	0.0	0.354495741	0.379171402	0.004392060	0.045312070	0.013965620
2019-09-01T10:25:00	0.1593	18.930	0.0	0.347388684	0.368686186	0.004213335	0.043468197	0.013397320
2019-09-01T10:30:00	0.1589	18.869	0.0	0.346034605	0.366703499	0.004179780	0.043122016	0.013290624
2019-09-01T10:35:00	0.1639	18.844	0.0	0.360492820	0.388122465	0.004546304	0.046903383	0.014456078
2019-09-01T10:40:00	0.1697	18.709	0.0	0.377070825	0.413362737	0.004989288	0.051473566	0.015864653
2019-09-01T10:45:00	0.1766	18.730	0.0	0.396260105	0.443498912	0.005533137	0.057084356	0.017593953
2019-09-01T10:50:00	0.1848	18.191	0.0	0.419070284	0.480624524	0.006224280	0.064214753	0.019791611
2019-09-01T10:55:00	0.2178	14.792	158.7	0.527259172	0.635923485	0.009597975	0.099020536	0.030519091
2019-09-01T11:00:00	0.2443	12.843	102.1	0.616498124	0.764596162	0.012807920	0.132136946	0.040725890
2019-09-01T11:05:00	0.2429	13.273	94.7	0.611615793	0.757385111	0.012620054	0.130198766	0.040128524
2019-09-01T11:10:00	0.2403	13.420	99.8	0.603061361	0.744798748	0.012294341	0.126838448	0.039092841
2019-09-01T11:15:00	0.2353	13.635	108.0	0.586456316	0.720542063	0.011674593	0.120444627	0.037122204
2019-09-01T11:20:00	0.2322	13.797	113.2	0.575825352	0.705132890	0.011286435	0.116440074	0.035887962
2019-09-01T11:25:00	0.2366	13.953	115.5	0.590680986	0.726691649	0.011830710	0.122055253	0.037618614
2019-09-01T11:30:00	0.2411	14.108	122.3	0.605807423	0.748832413	0.012398420	0.127912211	0.039423786
2019-09-01T11:35:00	0.2424	14.260	133.7	0.609905892	0.754864378	0.012554597	0.129523468	0.039920391
2019-09-01T11:40:00	0.2493	14.372	144.5	0.632894149	0.788959636	0.013449335	0.138754311	0.042765426
2019-09-01T11:45:00	0.2510	14.424	151.4	0.638612404	0.797510091	0.013676860	0.141101641	0.043488896
2019-09-01T11:50:00	0.2511	14.432	147.4	0.638714728	0.797663347	0.013680949	0.141143831	0.043501900
2019-09-01T11:55:00	0.2524	14.398	141.8	0.643105293	0.804247736	0.013857021	0.142960332	0.044061763
2019-09-01T12:00:00	0.2514	14.376	140.2	0.639909388	0.799453319	0.013728742	0.141636899	0.043653868
2019-09-01T12:05:00	0.2438	14.376	141.7	0.614514763	0.761664382	0.012731429	0.131347811	0.040482671
2019-09-01T12:10:00	0.2407	14.395	144.5	0.604301355	0.746619382	0.012341282	0.127322733	0.039242103
2019-09-01T12:15:00	0.2380	14.426	147.3	0.595395122	0.733571284	0.012006170	0.123865440	0.038176532
2019-09-01T12:20:00	0.2352	14.463	149.6	0.586131394	0.720069710	0.011662630	0.120321206	0.037084164
2019-09-01T12:25:00	0.2329	14.504	151.4	0.578186473	0.708547140	0.011372065	0.117323501	0.036160242
2019-09-01T12:30:00	0.2315	14.544	152.8	0.573587042	0.701900496	0.011205565	0.115605745	0.035630813
2019-09-01T12:35:00	0.2301	14.582	154.0	0.568981565	0.695262665	0.011040100	0.113898678	0.035104679
2019-09-01T12:40:00	0.2292	14.617	154.9	0.565718066	0.690569628	0.010923609	0.112696860	0.034734267
2019-09-01T12:45:00	0.2306	14.649	155.8	0.570536466	0.697501767	0.011095824	0.114473571	0.035281866
2019-09-01T12:50:00	0.2341	14.682	156.6	0.582397609	0.714648046	0.011525610	0.118907590	0.036648474
2019-09-01T12:55:00	0.2342	14.703	156.9	0.582501565	0.714798840	0.011529413	0.118946833	0.036660569
2019-09-01T13:00:00	0.2329	14.724	157.1	0.578243552	0.708629736	0.011374139	0.117344899	0.036166838
2019-09-01T13:05:00	0.2312	14.743	157.2	0.572635496	0.700527604	0.011171275	0.115251984	0.035521781
2019-09-01T13:10:00	0.2285	14.763	157.8	0.563311431	0.687114429	0.010838107	0.111814748	0.034462391
2019-09-01T13:15:00	0.2294	14.786	157.3	0.566449168	0.691620217	0.010949651	0.112965533	0.034817074
2019-09-01T13:20:00	0.2272	14.804	156.5	0.559134642	0.681129158	0.010690525	0.110292179	0.033993121
2019-09-01T13:25:00	0.2258	14.814	155.7	0.554510045	0.674518940	0.010528320	0.108618735	0.033477349
2019-09-01T13:30:00	0.2262	14.829	155.1	0.555628754	0.676116366	0.010567443	0.109022358	0.033601749
2019-09-01T13:35:00	0.2255	14.842	154.8	0.553367306	0.672888264	0.010488433	0.108207226	0.033350518
2019-09-01T13:40:00	0.2269	14.856	154.7	0.558202786	0.679795784	0.010657740	0.109953936	0.033888871
2019-09-01T13:45:00	0.2255	14.868	154.9	0.553238810	0.672704968	0.010483952	0.108161003	0.033336272
2019-09-01T13:50:00	0.2211	14.875	155.2	0.538433216	0.651675903	0.009974203	0.102902013	0.031715400
2019-09-01T13:55:00	0.2209	14.886	155.5	0.537859239	0.650864269	0.009954700	0.102700801	0.031653384
2019-09-01T14:00:00	0.2200	14.899	155.9	0.534566367	0.646213165	0.009843182	0.101550298	0.031298788
2019-09-01T14:05:00	0.2187	14.912	156.3	0.530249277	0.640128768	0.009697937	0.100051832	0.030836946
2019-09-01T14:10:00	0.2184	14.923	156.9	0.529333455	0.638839983	0.009667265	0.099735392	0.030739416
2019-09-01T14:15:00	0.2197	14.931	157.4	0.533522461	0.644740518	0.009807961	0.101186929	0.031186794
2019-09-01T14:20:00	0.2217	14.937	157.8	0.540422722	0.654491256	0.010041954	0.103600987	0.031930830
2019-09-01T14:25:00	0.2239	14.943	158.2	0.547986656	0.665224539	0.010301652	0.106280249	0.032756605
2019-09-01T14:30:00	0.2219	14.954	158.7	0.541311858	0.655750520	0.010072308	0.103914140	0.032027347
2019-09-01T14:35:00	0.2240	14.972	159.4	0.548196624	0.665523154	0.010308909	0.106355116	0.032779680
2019-09-01T14:40:00	0.2236	14.984	160.2	0.546946790	0.663746183	0.010265751	0.105909862	0.032642448
2019-09-01T14:45:00	0.2228	14.992	160.9	0.544340671	0.660045012	0.010176054	0.104984469	0.032357233
2019-09-01T14:50:00	0.2224	14.995	161.6	0.542750282	0.657789096	0.010121511	0.104421763	0.032183801
2019-09-01T14:55:00	0.2203	15.001	162.2	0.535725521	0.647849434	0.009882366	0.101954552	0.031423383
2019-09-01T15:00:00	0.2218	15.004	162.8	0.540925013	0.655202560	0.010059096	0.103777835	0.031985337
2019-09-01T15:05:00	0.2229	15.007	163.4	0.544422038	0.660160483	0.010178848	0.105013299	0.032366119
2019-09-01T15:10:00	0.2247	15.013	164.0	0.550623883	0.668977804	0.010392987	0.107222530	0.033047025
2019-09-01T15:15:00	0.2214	15.018	164.8	0.539543547	0.653246736	0.010011986	0.103291812	0.031835540
2019-09-01T15:20:00	0.2230	15.022	165.5	0.544737310	0.660607953	0.010189679	0.105125044	0.032400560
2019-09-01T15:25:00	0.2238	15.027	166.3	0.547553138	0.664608108	0.010286678	0.106125756	0.032708989
2019-09-01T15:30:00	0.2245	15.034	167.2	0.550028230	0.668129580	0.010372322	0.107009335	0.032981316
2019-09-01T15:35:00	0.2279	15.041	168.1	0.561284401	0.684207932	0.010766356	0.111074508	0.034234242
2019-09-01T15:40:00	0.2300	15.044	169.0	0.568466492	0.694521386	0.011021673	0.113708566	0.035046084
2019-09-01T15:45:00	0.2315	15.046	169.8	0.573617314	0.701944185	0.011206656	0.115617008	0.035634285
2019-09-01T15:50:00	0.2332	15.049	170.5	0.579431899	0.710349925	0.011417366	0.117790858	0.036304286
2019-09-01T15:55:00	0.2326	15.054	171.2	0.577185811	0.707099590	0.011335734	0.116948681	0.036044719
2019-09-01T16:00:00	0.2335	15.059	171.7	0.580311143	0.711623426	0.011449402	0.118121374	0.036406154
2019-09-01T16:05:00	0.2326	15.061	172.3	0.577209852	0.707134357	0.011336606	0.116957679	0.036047493
2019-09-01T16:10:00	0.2314	15.065	172.8	0.573097249	0.701193728	0.011187908	0.115423583	0.035574669
2019-09-01T16:15:00	0.2280	15.068	173.2	0.561903347	0.685095060	0.010788239	0.111300272	0.034303825
2019-09-01T16:20:00	0.2275	15.072	173.6	0.560135895	0.682562627	0.010725810	0.110656200	0.034105316
2019-09-01T16:25:00	0.2280	15.078	173.9	0.561742498	0.684864487	0.010782550	0.111241579	0.034285735
2019-09-01T16:30:00	0.2272	15.083	174.1	0.558962309	0.680882516	0.010684458	0.110229586	0.033973829
2019-09-01T16:35:00	0.2255	15.083	186.2	0.553475883	0.673043155	0.010492219	0.108246291	0.033362558
2019-09-01T16:40:00	0.2269	15.081	186.3	0.558126026	0.679685981	0.010655041	0.109926097	0.033880291
2019-09-01T16:45:00	0.2283	15.079	174.6	0.562769969	0.686337711	0.010818917	0.111616770	0.034401372
2019-09-01T16:50:00	0.2288	15.079	174.7	0.564375359	0.688641318	0.010875863	0.112204279	0.034582448
2019-09-01T16:55:00	0.2313	15.080	174.9	0.573048235	0.701123012	0.011186142	0.115405362	0.035569053
2019-09-01T17:00:00	0.2308	15.080	174.9	0.571286414	0.698582429	0.011122751	0.114751376	0.035367488
2019-09-01T17:05:00	0.2317	15.080	175.1	0.574232672	0.702832438	0.011228861	0.115846089	0.035704890
2019-09-01T17:10:00	0.2335	15.079	175.2	0.580197772	0.711459183	0.011445269	0.118078730	0.036393011
2019-09-01T17:15:00	0.2333	15.078	175.4	0.579782186	0.710857206	0.011430124	0.117922477	0.036344853
2019-09-01T17:20:00	0.2340	15.078	175.6	0.582050622	0.714144789	0.011512918	0.118776655	0.036608118
2019-09-01T17:25:00	0.2341	15.078	175.8	0.582306032	0.714515216	0.011522259	0.118873027	0.036637821
2019-09-01T17:30:00	0.2320	15.078	175.9	0.575176362	0.704195242	0.011262957	0.116197848	0.035813305
2019-09-01T17:35:00	0.2312	15.077	176.2	0.572406844	0.700197816	0.011163043	0.115167059	0.035495606
2019-09-01T17:40:00	0.2318	15.075	176.3	0.574680053	0.703478420	0.011245018	0.116012782	0.035756266
2019-09-01T17:45:00	0.2311	15.074	176.5	0.572246478	0.699966544	0.011157272	0.115107516	0.035477254
2019-09-01T17:50:00	0.2319	15.072	176.7	0.574855876	0.703732339	0.011251372	0.116078326	0.035776468
2019-09-01T17:55:00	0.2277	15.068	176.8	0.560631980	0.683273166	0.010743314	0.110836786	0.034160974
2019-09-01T18:00:00	0.2314	15.064	177.0	0.573351027	0.701559903	0.011197055	0.115517949	0.035603754
2019-09-01T18:05:00	0.2326	15.062	177.1	0.577303197	0.707269357	0.011339993	0.116992619	0.036058261
2019-09-01T18:10:00	0.2322	15.058	177.2	0.575879502	0.705211141	0.011288396	0.116460296	0.035894194
2019-09-01T18:15:00	0.2338	15.053	177.2	0.581170940	0.712869383	0.011480775	0.118445037	0.036505911
2019-09-01T18:20:00	0.2340	15.050	189.4	0.582097230	0.714212383	0.011514623	0.118794238	0.036613538
2019-09-01T18:25:00	0.2342	15.050	177.4	0.582687973	0.715069255	0.011536236	0.119017216	0.036682262
2019-09-01T18:30:00	0.2344	15.048	177.4	0.583278616	0.715926273	0.011557866	0.119240370	0.036751040
2019-09-01T18:35:00	0.2335	15.046	177.5	0.580179947	0.711433361	0.011444619	0.118072026	0.036390945
2019-09-01T18:40:00	0.2327	15.042	177.6	0.577750187	0.707915911	0.011356218	0.117160005	0.036109851
2019-09-01T18:45:00	0.2311	15.038	189.7	0.572293218	0.700033946	0.011158954	0.115124868	0.035482602
2019-09-01T18:50:00	0.2322	15.036	177.7	0.575910629	0.705256123	0.011289522	0.116471921	0.035897777
2019-09-01T18:55:00	0.2304	15.035	177.4	0.569777742	0.696408934	0.011068615	0.114192864	0.035195350
2019-09-01T19:00:00	0.2303	15.033	177.4	0.569697500	0.696293384	0.011065740	0.114163197	0.035186206
2019-09-01T19:05:00	0.2306	15.031	196.0	0.570626826	0.697631951	0.011099067	0.114507025	0.035292177
2019-09-01T19:10:00	0.2302	15.027	177.8	0.569200414	0.695577692	0.011047935	0.113979504	0.035129590
2019-09-01T19:15:00	0.2309	15.026	178.5	0.571475705	0.698855267	0.011129553	0.114821549	0.035389117
2019-09-01T19:20:00	0.2293	15.025	179.0	0.566008938	0.690987556	0.010933966	0.112803714	0.034767200
2019-09-01T19:25:00	0.2292	15.022	179.1	0.565928609	0.690872132	0.010931105	0.112774199	0.034758103
2019-09-01T19:30:00	0.2297	15.018	178.9	0.567532548	0.693177837	0.010988300	0.113364261	0.034939966
2019-09-01T19:35:00	0.2266	15.014	191.6	0.556996411	0.678070668	0.010615371	0.109516831	0.033754151
2019-09-01T19:40:00	0.2263	15.010	179.4	0.555902329	0.676507165	0.010577021	0.109121177	0.033632207
2019-09-01T19:45:00	0.2272	15.008	179.6	0.559199184	0.681221535	0.010692798	0.110315626	0.034000347
2019-09-01T19:50:00	0.2261	15.004	179.3	0.555403273	0.675794314	0.010559551	0.108940944	0.033576657
2019-09-01T19:55:00	0.2251	15.001	179.8	0.551941516	0.670855179	0.010438773	0.107694898	0.033192614
2019-09-01T20:00:00	0.2259	15.000	180.0	0.554566134	0.674599006	0.010530280	0.108638953	0.033483580
2019-09-01T20:05:00	0.2262	14.999	180.3	0.555837420	0.676414438	0.010574748	0.109097727	0.033624979
2019-09-01T20:10:00	0.2248	14.997	180.0	0.551022870	0.669546134	0.010406840	0.107365455	0.033091076
2019-09-01T20:15:00	0.2242	14.994	180.7	0.548911320	0.666539860	0.010333630	0.106610152	0.032858284
2019-09-01T20:20:00	0.2243	14.992	180.6	0.549169165	0.666906765	0.010342556	0.106702239	0.032886666
2019-09-01T20:25:00	0.2229	14.989	193.1	0.544684364	0.660532800	0.010187860	0.105106274	0.032394774
2019-09-01T20:30:00	0.2244	14.985	180.4	0.549684798	0.667640658	0.010360417	0.106886512	0.032943461
2019-09-01T20:35:00	0.2242	14.983	180.5	0.548927005	0.666562177	0.010334172	0.106615752	0.032860010
2019-09-01T20:40:00	0.2226	14.980	180.5	0.543424697	0.658745478	0.010144622	0.104660195	0.032257289
2019-09-01T20:45:00	0.2229	14.979	180.6	0.544700067	0.660555090	0.010188400	0.105111841	0.032396490
2019-09-01T20:50:00	0.2224	14.976	180.7	0.542923844	0.658035187	0.010127456	0.104483098	0.032202705
2019-09-01T20:55:00	0.2225	14.974	180.8	0.543182135	0.658401460	0.010136307	0.104574408	0.032230848
2019-09-01T21:00:00	0.2221	14.971	181.0	0.541744428	0.656363392	0.010087092	0.104066664	0.032074356
2019-09-01T21:05:00	0.2232	14.969	181.1	0.545393680	0.661539810	0.010212248	0.105357882	0.032472322
2019-09-01T21:10:00	0.2247	14.969	193.7	0.550731510	0.669131099	0.010396723	0.107261075	0.033058905
2019-09-01T21:15:00	0.2230	14.970	181.6	0.544893112	0.660829115	0.010195034	0.105180289	0.032417587
2019-09-01T21:20:00	0.2229	14.973	181.7	0.544473299	0.660233233	0.010180609	0.105031464	0.032371717
2019-09-01T21:25:00	0.2245	14.967	181.8	0.549812544	0.667822511	0.010364845	0.106932190	0.032957540
2019-09-01T21:30:00	0.2236	14.954	181.9	0.547022800	0.663854215	0.010268373	0.105936913	0.032650786
2019-09-01T21:35:00	0.2260	14.940	182.1	0.555063013	0.675308405	0.010547649	0.108818147	0.033538810
2019-09-01T21:40:00	0.2240	14.925	182.0	0.548216109	0.665550867	0.010309583	0.106362065	0.032781821
2019-09-01T21:45:00	0.2239	14.911	182.0	0.547796699	0.664954415	0.010295089	0.106212539	0.032735736
2019-09-01T21:50:00	0.2243	14.899	182.1	0.549409009	0.667248103	0.010350862	0.106787932	0.032913078
2019-09-01T21:55:00	0.2226	14.884	182.0	0.543568382	0.658949286	0.010149549	0.104711029	0.032272956
2019-09-01T22:00:00	0.2228	14.871	182.0	0.544165683	0.659796695	0.010170045	0.104922480	0.032338127
2019-09-01T22:05:00	0.2241	14.858	182.8	0.548726361	0.666276702	0.010327229	0.106544121	0.032837933
2019-09-01T22:10:00	0.2232	14.845	182.8	0.545494829	0.661683443	0.010215728	0.105393786	0.032483388
2019-09-01T22:15:00	0.2219	14.832	182.9	0.541242448	0.655652193	0.010069936	0.103889677	0.032019807
2019-09-01T22:20:00	0.2212	14.819	182.8	0.538683149	0.652029407	0.009982701	0.102989691	0.031742423
2019-09-01T22:25:00	0.2228	14.807	182.9	0.544268289	0.659942294	0.010173568	0.104958825	0.032349329
2019-09-01T22:30:00	0.2239	14.796	183.0	0.547812925	0.664977488	0.010295650	0.106218322	0.032737519
2019-09-01T22:35:00	0.2216	14.784	183.0	0.540170723	0.654134473	0.010033359	0.103512320	0.031903502
2019-09-01T22:40:00	0.2220	14.771	183.1	0.541345141	0.655797669	0.010073445	0.103925872	0.032030963
2019-09-01T22:45:00	0.2222	14.760	183.0	0.542179941	0.656980589	0.010101987	0.104220339	0.032121721
2019-09-01T22:50:00	0.2217	14.746	183.0	0.540300242	0.654317842	0.010037776	0.103557888	0.031917547
2019-09-01T22:55:00	0.2211	14.731	182.9	0.538419522	0.651656537	0.009973737	0.102897210	0.031713920
2019-09-01T23:00:00	0.2215	14.719	183.6	0.539934007	0.653799376	0.010025290	0.103429066	0.031877843
2019-09-01T23:05:00	0.2206	14.704	183.7	0.536694258	0.649217750	0.009915174	0.102293019	0.031527702
2019-09-01T23:10:00	0.2219	14.690	183.7	0.541264778	0.655683825	0.010070699	0.103897547	0.032022233
2019-09-01T23:15:00	0.2210	14.677	183.8	0.538026275	0.651100440	0.009960373	0.102759336	0.031671425
2019-09-01T23:20:00	0.2213	14.665	195.7	0.539201421	0.652762609	0.010000336	0.103171624	0.031798497
2019-09-01T23:25:00	0.2223	14.654	183.2	0.542412046	0.657309585	0.010109930	0.104302286	0.032146978
2019-09-01T23:30:00	0.2205	14.641	183.5	0.536457305	0.648882988	0.009907144	0.102210178	0.031502169
2019-09-01T23:35:00	0.2193	14.627	183.4	0.532193792	0.642867439	0.009763224	0.100725387	0.031044542
2019-09-01T23:40:00	0.2201	14.613	182.9	0.535071011	0.646925389	0.009860232	0.101726192	0.031353000
2019-09-01T23:45:00	0.2187	14.597	184.0	0.530125009	0.639953853	0.009693773	0.100008865	0.030823704
2019-09-01T23:50:00	0.2180	14.583	184.1	0.527898113	0.636821480	0.009619291	0.099240457	0.030586873
2019-09-01T23:55:00	0.2230	14.572	200.2	0.544705442	0.660562720	0.010188584	0.105113746	0.032397077
2019-09-02T00:00:00	0.2218	14.558	187.3	0.540791481	0.655013442	0.010054537	0.103730806	0.031970842
2019-09-02T00:05:00	0.2216	14.549	200.2	0.540268987	0.654273591	0.010036710	0.103546891	0.031914157
2019-09-02T00:10:00	0.2222	14.536	200.2	0.542121922	0.656898357	0.010100002	0.104199860	0.032115409
2019-09-02T00:15:00	0.2204	14.526	200.2	0.536166681	0.648472465	0.009897300	0.102108618	0.031470868
2019-09-02T00:20:00	0.2203	14.515	200.6	0.535643488	0.647733599	0.009879591	0.101925916	0.031414557
2019-09-02T00:25:00	0.2196	14.502	200.9	0.533420152	0.644596238	0.009804513	0.101151352	0.031175829
2019-09-02T00:30:00	0.2189	14.489	187.4	0.530855051	0.640981615	0.009718253	0.100261421	0.030901544
2019-09-02T00:35:00	0.2185	14.478	201.2	0.529650183	0.639285620	0.009677867	0.099844773	0.030773129
2019-09-02T00:40:00	0.2185	14.468	200.3	0.529466505	0.639027175	0.009671718	0.099781333	0.030753576
2019-09-02T00:45:00	0.2196	14.454	200.2	0.533366454	0.644520515	0.009802703	0.101132681	0.031170075
2019-09-02T00:50:00	0.2199	14.442	200.3	0.534203183	0.645700717	0.009830921	0.101423804	0.031259801
2019-09-02T00:55:00	0.2184	14.431	200.3	0.529255936	0.638730927	0.009664671	0.099708630	0.030731168
2019-09-02T01:00:00	0.2192	14.421	187.4	0.532135605	0.642785443	0.009761268	0.100705199	0.031038320
2019-09-02T01:05:00	0.2198	14.409	200.3	0.533992903	0.645404064	0.009823826	0.101350602	0.031237240
2019-09-02T01:10:00	0.2176	14.399	200.3	0.526660832	0.635082853	0.009578034	0.098814812	0.030455685
2019-09-02T01:15:00	0.2185	14.389	200.4	0.529542669	0.639134339	0.009674268	0.099807636	0.030761683
2019-09-02T01:20:00	0.2202	14.378	187.5	0.535482496	0.647506287	0.009874145	0.101869730	0.031397240
2019-09-02T01:25:00	0.2181	14.365	187.5	0.528153594	0.637180638	0.009627822	0.099328462	0.030613997
2019-09-02T01:30:00	0.2173	14.355	200.4	0.525584570	0.633571500	0.009542218	0.098445307	0.030341800
2019-09-02T01:35:00	0.2187	14.343	200.4	0.530169812	0.640016915	0.009695274	0.100024355	0.030828478
2019-09-02T01:40:00	0.2189	14.331	187.5	0.531007316	0.641196031	0.009723362	0.100314137	0.030917791
2019-09-02T01:45:00	0.2170	14.320	200.4	0.524350937	0.631840317	0.009501248	0.098022629	0.030211526
2019-09-02T01:50:00	0.2159	14.309	200.4	0.520755176	0.626801354	0.009382336	0.096795827	0.029833414
2019-09-02T01:55:00	0.2163	14.297	200.4	0.521936222	0.628455270	0.009421310	0.097197921	0.029957343
2019-09-02T02:00:00	0.2169	14.286	187.5	0.524140055	0.631544505	0.009494254	0.097950466	0.030189285
2019-09-02T02:05:00	0.2160	14.274	200.4	0.521226746	0.627461597	0.009397888	0.096956276	0.029882866
2019-09-02T02:10:00	0.2145	14.262	187.5	0.515918986	0.620040633	0.009223586	0.095158036	0.029328631
2019-09-02T02:15:00	0.2141	14.248	200.5	0.514708873	0.618351925	0.009184076	0.094750418	0.029202999
2019-09-02T02:20:00	0.2145	14.235	187.5	0.515892000	0.620002961	0.009222704	0.095148936	0.029325826
2019-09-02T02:25:00	0.2152	14.225	187.5	0.518441309	0.623564335	0.009306213	0.096010481	0.029591363
2019-09-02T02:30:00	0.2148	14.215	200.4	0.516890369	0.621397051	0.009255363	0.095485874	0.029429674
2019-09-02T02:35:00	0.2155	14.204	200.4	0.519438937	0.624959449	0.009338995	0.096348691	0.029695602
2019-09-02T02:40:00	0.2165	14.192	200.4	0.522668002	0.629480609	0.009445500	0.097447480	0.030034260
2019-09-02T02:45:00	0.2170	14.182	200.4	0.524530409	0.632092096	0.009507203	0.098084064	0.030230461
2019-09-02T02:50:00	0.2141	14.176	200.4	0.514443404	0.617981623	0.009175420	0.094661113	0.029175474
2019-09-02T02:55:00	0.2157	14.167	200.4	0.520067924	0.625839459	0.009359694	0.096562233	0.029761418
2019-09-02T03:00:00	0.2159	14.158	200.4	0.520566538	0.626537293	0.009376118	0.096731681	0.029813644
2019-09-02T03:05:00	0.2172	14.151	187.5	0.525158465	0.632973398	0.009528057	0.098299208	0.030296770
2019-09-02T03:10:00	0.2155	14.141	200.4	0.519515323	0.625066303	0.009341508	0.096374612	0.029703591
2019-09-02T03:15:00	0.2143	14.133	200.3	0.515230765	0.619080078	0.009201105	0.094926106	0.029257148
2019-09-02T03:20:00	0.2140	14.125	200.4	0.514362412	0.617868658	0.009172780	0.094633876	0.029167080
2019-09-02T03:25:00	0.2153	14.117	187.5	0.518621089	0.623815685	0.009312116	0.096071385	0.029610134
2019-09-02T03:30:00	0.2139	14.108	200.4	0.513993408	0.617354054	0.009160756	0.094509830	0.029128848
2019-09-02T03:35:00	0.2145	14.098	200.3	0.515860523	0.619959021	0.009221675	0.095138323	0.029322555
2019-09-02T03:40:00	0.2151	14.088	200.3	0.518068256	0.623042852	0.009293969	0.095884164	0.029552430
2019-09-02T03:45:00	0.2153	14.079	200.3	0.518567160	0.623740284	0.009310345	0.096053113	0.029604502
2019-09-02T03:50:00	0.2175	14.071	200.3	0.526230383	0.634478277	0.009563701	0.098666945	0.030410111
2019-09-02T03:55:00	0.2144	14.063	200.3	0.515464692	0.619406528	0.009208743	0.095004907	0.029281435
2019-09-02T04:00:00	0.2138	14.054	187.4	0.513570357	0.616764213	0.009146981	0.094367716	0.029085047
2019-09-02T04:05:00	0.2131	14.044	200.3	0.511281180	0.613575022	0.009072623	0.093600576	0.028848607
2019-09-02T04:10:00	0.2145	14.034	200.3	0.515834079	0.619922107	0.009220811	0.095129407	0.029319807
2019-09-02T04:15:00	0.2153	14.026	200.3	0.518673586	0.623889086	0.009313840	0.096089173	0.029615616
2019-09-02T04:20:00	0.2160	14.018	187.3	0.521169456	0.627381376	0.009395998	0.096936776	0.029876856
2019-09-02T04:25:00	0.2136	14.008	200.3	0.512732198	0.615596031	0.009119720	0.094086472	0.028998364
2019-09-02T04:30:00	0.2131	13.997	200.2	0.511127147	0.613360580	0.009067630	0.093549069	0.028832732
2019-09-02T04:35:00	0.2151	13.988	200.2	0.518072396	0.623048639	0.009294105	0.095885565	0.029552862
2019-09-02T04:40:00	0.2159	13.978	200.2	0.520568703	0.626540324	0.009376189	0.096732418	0.029813871
2019-09-02T04:45:00	0.2148	13.967	200.2	0.516917540	0.621435003	0.009256253	0.095495052	0.029432503
2019-09-02T04:50:00	0.2128	13.957	200.1	0.510182246	0.612045534	0.009037034	0.093233418	0.028735445
2019-09-02T04:55:00	0.2130	13.945	200.1	0.510973106	0.613146148	0.009062639	0.093497575	0.028816861
2019-09-02T05:00:00	0.2146	13.934	200.1	0.516210085	0.620447037	0.009233103	0.095256222	0.029358893
2019-09-02T05:05:00	0.2147	13.923	200.1	0.516657816	0.621072250	0.009247750	0.095407337	0.029405468
2019-09-02T05:10:00	0.2126	13.914	200.0	0.509579565	0.611207141	0.009017547	0.093032366	0.028673479
2019-09-02T05:15:00	0.2153	13.906	200.0	0.518577954	0.623755375	0.009310699	0.096056770	0.029605629
2019-09-02T05:20:00	0.2148	13.898	200.0	0.516975637	0.621516154	0.009258155	0.095514678	0.029438551
2019-09-02T05:25:00	0.2154	13.889	200.0	0.519131247	0.624529079	0.009328878	0.096244316	0.029663433
2019-09-02T05:30:00	0.2154	13.881	200.0	0.518895597	0.624199524	0.009321134	0.096164417	0.029638807
2019-09-02T05:35:00	0.2140	13.874	199.9	0.514216806	0.617665586	0.009168034	0.094584919	0.029151991
2019-09-02T05:40:00	0.2148	13.867	199.9	0.517057651	0.621630718	0.009260841	0.095542388	0.029447092
2019-09-02T05:45:00	0.2155	13.862	199.8	0.519213210	0.624643714	0.009331573	0.096272114	0.029672001
2019-09-02T05:50:00	0.2143	13.858	187.1	0.515218721	0.619063272	0.009200712	0.094922050	0.029255898
2019-09-02T05:55:00	0.2142	13.856	199.9	0.514982802	0.618734089	0.009193012	0.094842612	0.029231414
2019-09-02T06:00:00	0.2150	13.853	199.9	0.517481356	0.622222666	0.009274723	0.095685606	0.029491233
2019-09-02T06:05:00	0.2164	13.850	200.0	0.522367248	0.629059152	0.009435554	0.097344875	0.030002636
2019-09-02T06:10:00	0.2170	13.850	200.1	0.524519479	0.632076762	0.009506841	0.098080322	0.030229308
2019-09-02T06:15:00	0.2161	13.851	200.0	0.521555122	0.627921460	0.009408725	0.097068082	0.029917326
2019-09-02T06:20:00	0.2146	13.850	200.0	0.516196419	0.620427957	0.009232656	0.095251611	0.029357472
2019-09-02T06:25:00	0.2176	13.849	187.2	0.526540874	0.634914354	0.009574039	0.098773593	0.030442981
2019-09-02T06:30:00	0.2165	13.849	200.0	0.522896052	0.629800233	0.009453044	0.097525317	0.030058250
2019-09-02T06:35:00	0.2158	13.850	187.2	0.520271709	0.626124641	0.009366405	0.096631469	0.029782757
2019-09-02T06:40:00	0.2179	13.854	200.1	0.527539203	0.636317012	0.009607314	0.099116891	0.030548789
2019-09-02T06:45:00	0.2172	13.858	200.2	0.525259320	0.633114950	0.009531408	0.098333778	0.030307425
2019-09-02T06:50:00	0.2168	13.863	187.4	0.523660116	0.630871411	0.009478344	0.097786332	0.030138697
2019-09-02T06:55:00	0.2183	13.866	200.2	0.528877805	0.638199028	0.009652023	0.099578140	0.030690950
2019-09-02T07:00:00	0.2182	13.869	200.3	0.528642822	0.637868546	0.009644167	0.099497093	0.030665970
2019-09-02T07:05:00	0.2173	13.871	200.3	0.525341137	0.633229788	0.009534127	0.098361827	0.030316070
2019-09-02T07:10:00	0.2172	13.876	200.3	0.525105912	0.632899643	0.009526311	0.098281196	0.030291219
2019-09-02T07:15:00	0.2186	13.880	200.4	0.529980995	0.639751160	0.009688947	0.099959082	0.030808360
2019-09-02T07:20:00	0.2188	13.886	200.4	0.530767312	0.640858073	0.009715309	0.100231051	0.030892183
2019-09-02T07:25:00	0.2179	13.891	200.5	0.527467664	0.636216472	0.009604928	0.099092271	0.030541200
2019-09-02T07:30:00	0.2180	13.895	200.5	0.527913932	0.636843717	0.009619820	0.099245905	0.030588552
2019-09-02T07:35:00	0.2189	13.901	200.6	0.531083832	0.641303785	0.009725931	0.100340633	0.030925958
2019-09-02T07:40:00	0.2187	13.911	187.7	0.530168231	0.640014690	0.009695221	0.100023809	0.030828309
2019-09-02T07:45:00	0.2174	13.924	200.7	0.525845627	0.633938007	0.009550900	0.098534870	0.030369404
2019-09-02T07:50:00	0.2172	13.936	200.8	0.525269552	0.633129312	0.009531748	0.098337286	0.030308507
2019-09-02T07:55:00	0.2170	13.946	200.9	0.524352405	0.631842376	0.009501297	0.098023131	0.030211681
2019-09-02T08:00:00	0.2170	13.957	200.9	0.524458111	0.631990667	0.009504804	0.098059313	0.030222833
2019-09-02T08:05:00	0.2178	13.962	200.9	0.527290507	0.635967516	0.009599020	0.099031315	0.030522413
2019-09-02T08:10:00	0.2195	13.963	200.9	0.532842876	0.643782300	0.009785067	0.100950727	0.031113995
2019-09-02T08:15:00	0.2178	13.969	188.1	0.527161038	0.635785593	0.009594703	0.098986780	0.030508687
2019-09-02T08:20:00	0.2187	13.973	201.1	0.530331631	0.640244694	0.009700698	0.100080313	0.030845724
2019-09-02T08:25:00	0.2178	13.982	188.2	0.527372276	0.636082422	0.009601746	0.099059448	0.030531084
2019-09-02T08:30:00	0.2187	13.999	188.2	0.530202277	0.640062611	0.009696362	0.100035580	0.030831937
2019-09-02T08:35:00	0.2183	14.001	201.2	0.528945921	0.638294835	0.009654301	0.099601640	0.030698193
2019-09-02T08:40:00	0.2190	14.003	201.3	0.531434356	0.641797476	0.009737700	0.100462057	0.030963382
2019-09-02T08:45:00	0.2188	14.013	188.4	0.530518848	0.640508251	0.009706975	0.100145073	0.030865684
2019-09-02T08:50:00	0.2186	14.016	201.4	0.529943554	0.639698466	0.009687693	0.099946141	0.030804371
2019-09-02T08:55:00	0.2193	14.015	188.4	0.532431269	0.643202115	0.009771213	0.100807802	0.031069944
2019-09-02T09:00:00	0.2198	14.013	201.4	0.533897194	0.645269055	0.009820597	0.101317293	0.031226974
2019-09-02T09:05:00	0.2210	14.015	188.4	0.538080670	0.651177353	0.009962221	0.102778402	0.031677302
2019-09-02T09:10:00	0.2214	14.017	201.3	0.539544201	0.653247661	0.010012008	0.103292042	0.031835610
2019-09-02T09:15:00	0.2213	14.022	201.4	0.538970408	0.652435767	0.009992474	0.103090510	0.031773496
2019-09-02T09:20:00	0.2192	14.030	201.5	0.531937955	0.642506940	0.009754622	0.100636638	0.031017189
2019-09-02T09:25:00	0.2200	14.038	201.5	0.534764214	0.646492369	0.009849865	0.101619239	0.031320036
2019-09-02T09:30:00	0.2204	14.045	188.7	0.535889312	0.648080731	0.009887909	0.102011739	0.031441009
2019-09-02T09:35:00	0.2191	14.051	201.6	0.531573877	0.641994011	0.009742387	0.100510410	0.030978284
2019-09-02T09:40:00	0.2188	14.052	188.7	0.530658407	0.640704734	0.009711656	0.100193361	0.030880567
2019-09-02T09:45:00	0.2189	14.053	188.8	0.531104261	0.641332556	0.009726616	0.100347708	0.030928138
2019-09-02T09:50:00	0.2199	14.051	201.7	0.534271232	0.645796726	0.009833218	0.101447499	0.031267104
2019-09-02T09:55:00	0.2188	14.048	188.8	0.530634582	0.640671190	0.009710857	0.100185116	0.030878026
2019-09-02T10:00:00	0.2188	14.051	201.7	0.530740096	0.640819751	0.009714396	0.100221631	0.030889280
2019-09-02T10:05:00	0.2185	14.064	201.8	0.529429637	0.638975303	0.009670484	0.099768601	0.030749652
2019-09-02T10:10:00	0.2178	14.084	189.0	0.527096669	0.635695149	0.009592557	0.098964642	0.030501864
2019-09-02T10:15:00	0.2179	14.096	189.1	0.527488655	0.636245972	0.009605628	0.099099495	0.030543427
2019-09-02T10:20:00	0.2164	14.105	189.1	0.522425986	0.629141459	0.009437496	0.097364909	0.030008811
2019-09-02T10:25:00	0.2173	14.111	189.2	0.525546579	0.633518169	0.009540955	0.098432276	0.030337784
2019-09-02T10:30:00	0.2170	14.121	189.2	0.524575130	0.632154839	0.009508687	0.098099376	0.030235180
2019-09-02T10:35:00	0.2166	14.129	189.3	0.523262323	0.630313667	0.009465168	0.097650397	0.030096801
2019-09-02T10:40:00	0.2150	14.137	189.3	0.517510148	0.622262896	0.009275667	0.095695342	0.029494234
2019-09-02T10:45:00	0.2178	14.145	189.4	0.527114961	0.635720851	0.009593167	0.098970933	0.030503803
2019-09-02T10:50:00	0.2159	14.144	189.4	0.520686588	0.626705340	0.009380075	0.096772502	0.029826225
2019-09-02T10:55:00	0.2158	14.147	202.4	0.520396603	0.626299439	0.009370519	0.096673914	0.029795839
2019-09-02T11:00:00	0.2160	14.152	202.4	0.521130682	0.627327084	0.009394719	0.096923580	0.029872789
2019-09-02T11:05:00	0.2148	14.164	202.5	0.517083931	0.621667429	0.009261702	0.095551268	0.029449829
2019-09-02T11:10:00	0.2145	14.177	189.6	0.516110087	0.620307421	0.009229833	0.095222487	0.029348495
2019-09-02T11:15:00	0.2132	14.189	189.7	0.511372907	0.613702730	0.009075596	0.093631255	0.028858062
2019-09-02T11:20:00	0.2135	14.210	189.8	0.512451113	0.615204396	0.009110587	0.093992248	0.028969324
2019-09-02T11:25:00	0.2142	14.222	189.9	0.514896982	0.618614352	0.009190212	0.094813723	0.029222510
2019-09-02T11:30:00	0.2150	14.232	189.9	0.517682779	0.622504122	0.009281326	0.095753727	0.029512229
2019-09-02T11:35:00	0.2143	14.254	190.1	0.515341825	0.619235059	0.009204731	0.094963514	0.029268677
2019-09-02T11:40:00	0.2118	14.265	190.1	0.506835537	0.607393617	0.008929084	0.092119713	0.028392190
2019-09-02T11:45:00	0.2131	14.271	203.4	0.510997455	0.613180042	0.009063428	0.093505713	0.028819369
2019-09-02T11:50:00	0.2114	14.295	203.5	0.505224649	0.605157707	0.008877355	0.091586030	0.028227704
2019-09-02T11:55:00	0.2119	14.323	190.4	0.506990308	0.607608548	0.008934062	0.092171069	0.028408019
2019-09-02T12:00:00	0.2116	14.331	190.5	0.506013589	0.606252492	0.008902670	0.091847210	0.028308202
2019-09-02T12:05:00	0.2127	14.316	190.5	0.509834085	0.611561170	0.009025774	0.093117247	0.028699640
2019-09-02T12:10:00	0.2131	14.301	203.6	0.511255088	0.613538696	0.009071777	0.093591850	0.028845917
2019-09-02T12:15:00	0.2122	14.287	203.5	0.508224609	0.609323326	0.008973811	0.092581151	0.028534410
2019-09-02T12:20:00	0.2122	14.281	203.5	0.507933568	0.608918880	0.008964430	0.092484374	0.028504582
2019-09-02T12:25:00	0.2151	14.286	203.5	0.517906827	0.622817229	0.009288673	0.095829529	0.029535592
2019-09-02T12:30:00	0.2126	14.297	190.5	0.509406913	0.610967018	0.009011968	0.092974810	0.028655740
2019-09-02T12:35:00	0.2123	14.302	190.6	0.508430884	0.609610018	0.008980462	0.092649772	0.028555560
2019-09-02T12:40:00	0.2121	14.315	190.6	0.507797235	0.608729450	0.008960038	0.092439058	0.028490616
2019-09-02T12:45:00	0.2121	14.334	190.8	0.507848812	0.608801112	0.008961699	0.092456201	0.028495899
2019-09-02T12:50:00	0.2111	14.351	204.1	0.504129361	0.603638644	0.008842268	0.091224048	0.028116138
2019-09-02T12:55:00	0.2111	14.368	191.0	0.504180993	0.603710230	0.008843920	0.091241096	0.028121392
2019-09-02T13:00:00	0.2115	14.380	191.1	0.505604346	0.605684537	0.008889534	0.091711683	0.028266431
2019-09-02T13:05:00	0.2093	14.381	191.1	0.498104769	0.595300353	0.008650514	0.089245759	0.027506410
2019-09-02T13:10:00	0.2099	14.373	204.3	0.500217533	0.598221183	0.008717522	0.089937064	0.027719477
2019-09-02T13:15:00	0.2071	14.372	204.3	0.490640494	0.585009922	0.008415840	0.086824669	0.026760206
2019-09-02T13:20:00	0.2084	14.372	204.3	0.495166130	0.591243738	0.008557741	0.088288639	0.027211416
2019-09-02T13:25:00	0.2061	14.377	204.4	0.486954099	0.579944241	0.008301124	0.085641165	0.026395439
2019-09-02T13:30:00	0.2070	14.386	191.3	0.490107223	0.584276451	0.008399197	0.086652965	0.026707286
2019-09-02T13:35:00	0.2062	14.393	204.5	0.487402599	0.580559969	0.008315039	0.085784724	0.026439685
2019-09-02T13:40:00	0.2077	14.397	204.6	0.492620952	0.587735874	0.008477792	0.087463818	0.026957198
2019-09-02T13:45:00	0.2076	14.393	204.6	0.492328576	0.587333243	0.008468632	0.087369314	0.026928071
2019-09-02T13:50:00	0.2082	14.391	204.6	0.494444924	0.590249216	0.008535049	0.088054525	0.027139260
2019-09-02T13:55:00	0.2062	14.389	204.6	0.487610138	0.580844945	0.008321482	0.085851195	0.026460172
2019-09-02T14:00:00	0.2058	14.385	204.7	0.485938223	0.578550181	0.008269648	0.085316439	0.026295355
2019-09-02T14:05:00	0.2045	14.386	204.7	0.481504224	0.572475173	0.008132961	0.083906261	0.025860725
2019-09-02T14:10:00	0.2037	14.376	204.7	0.478792731	0.568767897	0.008049930	0.083049640	0.025596706
2019-09-02T14:15:00	0.2036	14.357	204.7	0.478499162	0.568366868	0.008040965	0.082957156	0.025568201
2019-09-02T14:20:00	0.2042	14.351	204.6	0.480624145	0.571271246	0.008105965	0.083627748	0.025774884
2019-09-02T14:25:00	0.2027	14.343	204.6	0.475491430	0.564262122	0.007949406	0.082012554	0.025277066
2019-09-02T14:30:00	0.2038	14.338	204.6	0.479000797	0.569052167	0.008056286	0.083115219	0.025616918
2019-09-02T14:35:00	0.2051	14.338	204.5	0.483541962	0.575265120	0.008195639	0.084552892	0.026060022
2019-09-02T14:40:00	0.2030	14.334	204.5	0.476339354	0.565418581	0.007975165	0.082278310	0.025358974
2019-09-02T14:45:00	0.2027	14.326	204.5	0.475353791	0.564074454	0.007945228	0.081969456	0.025263782
2019-09-02T14:50:00	0.2028	14.315	204.5	0.475751764	0.564617124	0.007957310	0.082094103	0.025302200
2019-09-02T14:55:00	0.2033	14.299	204.4	0.477532787	0.567047240	0.008011491	0.082653075	0.025474481
2019-09-02T15:00:00	0.2022	14.285	191.2	0.473780008	0.561929706	0.007897539	0.081477455	0.025112143
2019-09-02T15:05:00	0.2018	14.276	191.2	0.472101251	0.559644071	0.007846825	0.080954250	0.024950886
2019-09-02T15:10:00	0.2016	14.275	191.2	0.471460793	0.558772676	0.007827520	0.080755082	0.024889501
2019-09-02T15:15:00	0.2033	14.275	204.4	0.477395231	0.566859462	0.008007300	0.082609837	0.025461154
2019-09-02T15:20:00	0.2015	14.277	191.3	0.471218722	0.558443404	0.007820229	0.080679866	0.024866318
2019-09-02T15:25:00	0.2033	14.278	204.5	0.477499309	0.567001538	0.008010471	0.082642551	0.025471237
2019-09-02T15:30:00	0.2006	14.275	191.3	0.468204500	0.554347264	0.007729729	0.079746190	0.024578550
2019-09-02T15:35:00	0.2025	14.269	191.3	0.474836684	0.563369525	0.007929543	0.081807635	0.025213908
2019-09-02T15:40:00	0.2022	14.265	204.6	0.473504585	0.561554563	0.007889208	0.081391502	0.025085652
2019-09-02T15:45:00	0.2028	14.261	191.3	0.475632706	0.564454765	0.007953695	0.082056804	0.025290704
2019-09-02T15:50:00	0.2035	14.258	204.6	0.478105152	0.567828740	0.008028942	0.082833109	0.025529969
2019-09-02T15:55:00	0.2046	14.255	204.4	0.481957082	0.573094912	0.008146870	0.084049753	0.025904950
2019-09-02T16:00:00	0.2035	14.254	191.4	0.478209208	0.567970845	0.008032116	0.082865861	0.025540063
2019-09-02T16:05:00	0.2034	14.252	204.7	0.477921774	0.567578330	0.008023349	0.082775408	0.025512185
2019-09-02T16:10:00	0.2025	14.247	204.6	0.474521648	0.562940166	0.007919995	0.081709127	0.025183546
2019-09-02T16:15:00	0.2053	14.238	191.4	0.484254230	0.576241097	0.008217603	0.084779495	0.026129864
2019-09-02T16:20:00	0.2020	14.226	191.4	0.472907759	0.560741856	0.007871169	0.081205401	0.025028293
2019-09-02T16:25:00	0.2025	14.210	204.5	0.474696471	0.563178421	0.007925293	0.081763785	0.025200393
2019-09-02T16:30:00	0.2017	14.195	204.5	0.471985711	0.559486847	0.007843341	0.080918302	0.024939807
2019-09-02T16:35:00	0.2011	14.178	191.3	0.469965802	0.556739886	0.007782548	0.080291115	0.024746501
2019-09-02T16:40:00	0.2036	14.160	191.2	0.478329271	0.568134821	0.008035780	0.082903658	0.025551712
2019-09-02T16:45:00	0.2036	14.147	191.2	0.478387481	0.568214326	0.008037556	0.082921986	0.025557361
2019-09-02T16:50:00	0.2032	14.134	191.2	0.477062968	0.566405950	0.007997181	0.082505441	0.025428978
2019-09-02T16:55:00	0.2032	14.122	204.4	0.477121199	0.566485425	0.007998954	0.082523732	0.025434616
2019-09-02T17:00:00	0.2023	14.108	191.1	0.474066344	0.562319777	0.007906205	0.081566862	0.025139699
2019-09-02T17:05:00	0.2040	14.091	191.0	0.480002398	0.570421084	0.008086920	0.083431263	0.025714326
2019-09-02T17:10:00	0.2035	14.076	191.0	0.477987273	0.567667768	0.008025346	0.082796015	0.025518536
2019-09-02T17:15:00	0.2033	14.063	191.0	0.477354116	0.566803339	0.008006047	0.082596915	0.025457171
2019-09-02T17:20:00	0.2026	14.051	191.0	0.474991468	0.563580506	0.007934237	0.081856056	0.025228831
2019-09-02T17:25:00	0.2029	14.041	190.9	0.476087447	0.565074953	0.007967508	0.082199313	0.025334627
2019-09-02T17:30:00	0.2033	14.031	204.1	0.477528793	0.567041788	0.008011369	0.082651820	0.025474094
2019-09-02T17:35:00	0.2044	14.015	190.9	0.481387558	0.572315541	0.008129380	0.083869314	0.025849337
2019-09-02T17:40:00	0.2047	13.999	190.8	0.482136254	0.573340155	0.008152376	0.084106559	0.025922458
2019-09-02T17:45:00	0.2032	13.982	190.7	0.477012019	0.566336417	0.007995630	0.082489439	0.025424046
2019-09-02T17:50:00	0.2054	13.961	190.7	0.484668235	0.576808568	0.008230383	0.084911345	0.026170501
2019-09-02T17:55:00	0.2053	13.937	190.6	0.484381348	0.576415322	0.008221526	0.084819968	0.026142338
2019-09-02T18:00:00	0.2060	13.914	190.5	0.486853591	0.579806279	0.008298007	0.085609011	0.026385529
2019-09-02T18:05:00	0.2051	13.891	190.5	0.483807502	0.575628926	0.008203824	0.084637336	0.026086049
2019-09-02T18:10:00	0.2062	13.865	203.5	0.487314442	0.580438929	0.008312303	0.085756497	0.026430985
2019-09-02T18:15:00	0.2064	13.838	190.3	0.488061831	0.581465294	0.008335513	0.085995952	0.026504787
2019-09-02T18:20:00	0.2067	13.811	203.2	0.489153593	0.582965380	0.008369475	0.086346335	0.026612779
2019-09-02T18:25:00	0.2077	13.786	203.1	0.492655022	0.587782796	0.008478860	0.087474834	0.026960593
2019-09-02T18:30:00	0.2085	13.761	203.0	0.495465156	0.591656208	0.008567159	0.088385797	0.027241361
2019-09-02T18:35:00	0.2083	13.733	189.9	0.494835250	0.590787413	0.008547327	0.088181192	0.027178300
2019-09-02T18:40:00	0.2075	13.705	189.7	0.491796311	0.586600435	0.008451968	0.087197400	0.026875086
2019-09-02T18:45:00	0.2079	13.680	202.7	0.493231000	0.588576193	0.008496921	0.087661167	0.027018023
2019-09-02T18:50:00	0.2092	13.652	189.5	0.497759345	0.594823156	0.008639583	0.089132987	0.027471652
2019-09-02T18:55:00	0.2106	13.624	202.4	0.502624861	0.601553615	0.008794186	0.090727992	0.027963248
2019-09-02T19:00:00	0.2103	13.599	189.2	0.501653036	0.600207770	0.008763197	0.090408283	0.027864711
2019-09-02T19:05:00	0.2111	13.569	202.1	0.504455766	0.604091236	0.008852717	0.091331847	0.028149362
2019-09-02T19:10:00	0.2100	13.543	202.0	0.500395394	0.598467235	0.008723174	0.089995382	0.027737451
2019-09-02T19:15:00	0.2117	13.513	201.9	0.506285691	0.606630196	0.008911410	0.091937376	0.028335992
2019-09-02T19:20:00	0.2115	13.482	201.7	0.505657781	0.605758687	0.008891249	0.091729373	0.028271884
2019-09-02T19:25:00	0.2121	13.450	201.5	0.507772010	0.608694401	0.008959225	0.092430675	0.028488032
2019-09-02T19:30:00	0.2125	13.418	201.5	0.509199998	0.610679275	0.009005284	0.092905856	0.028634487
2019-09-02T19:35:00	0.2124	13.388	201.3	0.508915170	0.610283238	0.008996088	0.092810979	0.028605245
2019-09-02T19:40:00	0.2107	13.357	201.3	0.502801859	0.601798815	0.008799835	0.090786280	0.027981213
2019-09-02T19:45:00	0.2123	13.329	201.1	0.508345442	0.609491262	0.008977707	0.092621345	0.028546798
2019-09-02T19:50:00	0.2123	13.305	201.0	0.508403141	0.609571457	0.008979567	0.092640541	0.028552715
2019-09-02T19:55:00	0.2121	13.277	200.9	0.507775619	0.608699416	0.008959341	0.092431874	0.028488401
2019-09-02T20:00:00	0.2128	13.249	200.8	0.510230955	0.612113306	0.009038610	0.093249677	0.028740456
2019-09-02T20:05:00	0.2123	13.222	200.7	0.508576231	0.609812049	0.008985150	0.092698140	0.028570467
2019-09-02T20:10:00	0.2121	13.194	200.6	0.507606097	0.608463893	0.008953881	0.092375544	0.028471040
2019-09-02T20:15:00	0.2133	13.166	200.4	0.511773204	0.614260132	0.009088579	0.093765197	0.028899344
2019-09-02T20:20:00	0.2118	13.132	200.3	0.506693416	0.607196269	0.008924514	0.092072566	0.028377659
2019-09-02T20:25:00	0.2142	13.105	200.1	0.514967195	0.618712313	0.009192503	0.094837358	0.029229795
2019-09-02T20:30:00	0.2138	13.078	187.1	0.513656831	0.616884768	0.009149796	0.094396756	0.029093997
2019-09-02T20:35:00	0.2144	13.052	199.9	0.515766129	0.619827256	0.009218590	0.095106499	0.029312747
2019-09-02T20:40:00	0.2144	13.023	199.8	0.515481846	0.619430468	0.009209304	0.095010687	0.029283216
2019-09-02T20:45:00	0.2133	12.994	199.6	0.511776809	0.614265152	0.009088696	0.093766403	0.028899716
2019-09-02T20:50:00	0.2144	12.960	199.5	0.515597002	0.619591190	0.009213065	0.095049492	0.029295177
2019-09-02T20:55:00	0.2144	12.931	199.3	0.515654579	0.619671552	0.009214946	0.095068897	0.029301157
2019-09-02T21:00:00	0.2134	12.905	199.2	0.512291938	0.614982647	0.009105417	0.093938911	0.028952885
2019-09-02T21:05:00	0.2132	12.877	199.1	0.511665129	0.614109628	0.009085073	0.093729025	0.028888196
2019-09-02T21:10:00	0.2122	12.845	198.9	0.507955959	0.608949995	0.008965152	0.092491818	0.028506877
2019-09-02T21:15:00	0.2109	12.817	186.0	0.503556698	0.602844797	0.008823951	0.091035073	0.028057894
2019-09-02T21:20:00	0.2112	12.788	185.9	0.504643507	0.604351596	0.008858730	0.091393879	0.028168481
2019-09-02T21:25:00	0.2120	12.756	185.8	0.507443786	0.608238410	0.008948655	0.092321626	0.028454422
2019-09-02T21:30:00	0.2114	12.731	185.7	0.505444853	0.605463226	0.008884417	0.091658892	0.028250161
2019-09-02T21:35:00	0.2109	12.702	185.5	0.503444749	0.602689641	0.008820372	0.090998154	0.028046515
2019-09-02T21:40:00	0.2106	12.679	185.4	0.502473158	0.601343477	0.008789345	0.090678048	0.027947855
2019-09-02T21:45:00	0.2095	12.647	185.2	0.498753993	0.596197503	0.008671077	0.089457905	0.027571795
2019-09-02T21:50:00	0.2106	12.629	185.2	0.502588753	0.601503597	0.008793033	0.090716103	0.027959584
2019-09-02T21:55:00	0.2112	12.600	185.0	0.504704881	0.604436716	0.008860696	0.091414163	0.028174733
2019-09-02T22:00:00	0.2099	12.571	184.9	0.500301428	0.598337240	0.008720188	0.089964570	0.027727954
2019-09-02T22:05:00	0.2103	12.547	184.8	0.501674730	0.600237805	0.008763888	0.090415414	0.027866909
2019-09-02T22:10:00	0.2101	12.518	184.6	0.500988148	0.599287428	0.008742026	0.090189874	0.027797395
2019-09-02T22:15:00	0.2122	12.489	184.5	0.508190384	0.609275761	0.008972707	0.092569768	0.028530902
2019-09-02T22:20:00	0.2094	12.464	184.4	0.498584023	0.595962592	0.008665691	0.089402339	0.027554669
2019-09-02T22:25:00	0.2120	12.434	196.8	0.507505110	0.608323598	0.008950630	0.092341996	0.028460700
2019-09-02T22:30:00	0.2124	12.409	184.1	0.508875520	0.610228113	0.008994808	0.092797775	0.028601175
2019-09-02T22:35:00	0.2108	12.386	184.2	0.503390581	0.602614569	0.008818641	0.090980293	0.028041010
2019-09-02T22:40:00	0.2122	12.356	196.9	0.508190384	0.609275761	0.008972707	0.092569768	0.028530902
2019-09-02T22:45:00	0.2129	12.331	196.6	0.510587762	0.612609814	0.009050159	0.093368818	0.028777177
2019-09-02T22:50:00	0.2127	12.313	183.7	0.509902968	0.611656992	0.009028001	0.093140225	0.028706722
2019-09-02T22:55:00	0.2134	12.282	183.5	0.512299147	0.614992690	0.009105651	0.093941326	0.028953629
2019-09-02T23:00:00	0.2132	12.258	183.6	0.511614695	0.614039398	0.009083437	0.093712147	0.028882994
2019-09-02T23:05:00	0.2137	12.234	183.5	0.513325568	0.616422980	0.009139015	0.094285534	0.029059717
2019-09-02T23:10:00	0.2140	12.212	183.4	0.514351682	0.617853693	0.009172430	0.094630268	0.029165968
2019-09-02T23:15:00	0.2143	12.187	183.2	0.515377489	0.619284829	0.009205896	0.094975528	0.029272380
2019-09-02T23:20:00	0.2138	12.164	195.7	0.513667640	0.616899837	0.009150148	0.094400387	0.029095116
2019-09-02T23:25:00	0.2145	12.137	182.9	0.516061190	0.620239155	0.009228234	0.095205994	0.029343412
2019-09-02T23:30:00	0.2127	12.121	195.5	0.509902968	0.611656992	0.009028001	0.093140225	0.028706722
2019-09-02T23:35:00	0.2127	12.094	195.4	0.509902968	0.611656992	0.009028001	0.093140225	0.028706722
2019-09-02T23:40:00	0.2139	12.068	195.2	0.514009678	0.617376742	0.009161286	0.094515298	0.029130533
2019-09-02T23:45:00	0.2122	12.047	195.1	0.508190384	0.609275761	0.008972707	0.092569768	0.028530902
2019-09-02T23:50:00	0.2117	12.024	195.0	0.506476942	0.606895706	0.008917556	0.092000777	0.028355533
2019-09-02T23:55:00	0.2120	12.001	194.9	0.507505110	0.608323598	0.008950630	0.092341996	0.028460700
2019-09-03T00:00:00	0.2118	11.981	194.7	0.506819699	0.607371623	0.008928575	0.092114458	0.028390571
2019-09-03T00:05:00	0.2118	11.959	182.1	0.506819699	0.607371623	0.008928575	0.092114458	0.028390571
2019-09-03T00:10:00	0.2147	11.937	194.5	0.516744754	0.621193669	0.009250596	0.095436694	0.029414516
2019-09-03T00:15:00	0.2138	11.917	194.5	0.513667640	0.616899837	0.009150148	0.094400387	0.029095116
2019-09-03T00:20:00	0.2137	11.902	194.4	0.513325568	0.616422980	0.009139015	0.094285534	0.029059717
2019-09-03T00:25:00	0.2135	11.880	194.3	0.512641322	0.615469406	0.009116767	0.094056004	0.028988974
2019-09-03T00:30:00	0.2128	11.861	181.7	0.510245382	0.612133379	0.009039077	0.093254492	0.028741940
2019-09-03T00:35:00	0.2124	11.837	181.6	0.508875520	0.610228113	0.008994808	0.092797775	0.028601175
2019-09-03T00:40:00	0.2125	11.815	181.5	0.509218037	0.610704359	0.009005867	0.092911866	0.028636340
2019-09-03T00:45:00	0.2126	11.795	193.9	0.509560519	0.611180652	0.009016931	0.093026016	0.028671522
2019-09-03T00:50:00	0.2129	11.779	181.4	0.510587762	0.612609814	0.009050159	0.093368818	0.028777177
2019-09-03T00:55:00	0.2124	11.762	181.3	0.508875520	0.610228113	0.008994808	0.092797775	0.028601175
2019-09-03T01:00:00	0.2138	11.740	181.1	0.513667640	0.616899837	0.009150148	0.094400387	0.029095116
2019-09-03T01:05:00	0.2118	11.713	181.2	0.506819699	0.607371623	0.008928575	0.092114458	0.028390571
2019-09-03T01:10:00	0.2117	11.692	193.7	0.506476942	0.606895706	0.008917556	0.092000777	0.028355533
2019-09-03T01:15:00	0.2119	11.673	181.0	0.507162422	0.607847587	0.008939599	0.092228197	0.028425626
2019-09-03T01:20:00	0.2116	11.652	180.9	0.506134150	0.606419836	0.008906542	0.091887155	0.028320514
2019-09-03T01:25:00	0.2137	11.638	193.1	0.513325568	0.616422980	0.009139015	0.094285534	0.029059717
2019-09-03T01:30:00	0.2115	11.619	193.2	0.505791325	0.605944013	0.008895535	0.091773592	0.028285512
2019-09-03T01:35:00	0.2113	11.601	180.5	0.505105570	0.604992508	0.008873537	0.091546641	0.028215564
2019-09-03T01:40:00	0.2116	11.584	180.4	0.506134150	0.606419836	0.008906542	0.091887155	0.028320514
2019-09-03T01:45:00	0.2120	11.561	180.3	0.507505110	0.608323598	0.008950630	0.092341996	0.028460700
2019-09-03T01:50:00	0.2108	11.540	180.3	0.503390581	0.602614569	0.008818641	0.090980293	0.028041010
2019-09-03T01:55:00	0.2114	11.525	180.2	0.505448464	0.605468237	0.008884533	0.091660087	0.028250529
2019-09-03T02:00:00	0.2108	11.502	180.1	0.503390581	0.602614569	0.008818641	0.090980293	0.028041010
2019-09-03T02:05:00	0.2107	11.482	180.0	0.503047479	0.602139122	0.008807679	0.090867199	0.028006153
2019-09-03T02:10:00	0.2104	11.467	180.2	0.502017969	0.600713064	0.008774827	0.090528272	0.027901693
2019-09-03T02:15:00	0.2119	11.446	192.5	0.507162422	0.607847587	0.008939599	0.092228197	0.028425626
2019-09-03T02:20:00	0.2100	11.428	179.9	0.500644805	0.598812311	0.008731104	0.090077192	0.027762666
2019-09-03T02:25:00	0.2100	11.414	179.8	0.500644805	0.598812311	0.008731104	0.090077192	0.027762666
2019-09-03T02:30:00	0.2091	11.402	179.6	0.497553164	0.594538367	0.008633062	0.089065708	0.027450916
2019-09-03T02:35:00	0.2106	11.383	179.6	0.502704344	0.601663722	0.008796723	0.090754165	0.027971315
2019-09-03T02:40:00	0.2089	11.369	179.5	0.496865752	0.593589119	0.008611338	0.088841582	0.027381838
2019-09-03T02:45:00	0.2080	11.350	179.4	0.493770679	0.589319830	0.008513861	0.087835936	0.027071888
2019-09-03T02:50:00	0.2072	11.336	179.4	0.491017139	0.585528103	0.008427605	0.086946044	0.026797615
2019-09-03T02:55:00	0.2096	11.316	179.3	0.499271089	0.596912310	0.008687473	0.089627055	0.027623929
2019-09-03T03:00:00	0.2097	11.301	179.2	0.499614570	0.597387239	0.008698372	0.089739501	0.027658586
2019-09-03T03:05:00	0.2089	11.283	179.1	0.496865752	0.593589119	0.008611338	0.088841582	0.027381838
2019-09-03T03:10:00	0.2088	11.269	179.1	0.496521994	0.593114565	0.008600484	0.088729608	0.027347327
2019-09-03T03:15:00	0.2099	11.252	179.2	0.500301428	0.598337240	0.008720188	0.089964570	0.027727954
2019-09-03T03:20:00	0.2088	11.233	191.4	0.496521994	0.593114565	0.008600484	0.088729608	0.027347327
2019-09-03T03:25:00	0.2103	11.217	191.3	0.501674730	0.600237805	0.008763888	0.090415414	0.027866909
2019-09-03T03:30:00	0.2090	11.199	178.8	0.497209475	0.594063719	0.008622197	0.088953616	0.027416368
2019-09-03T03:35:00	0.2101	11.181	178.7	0.500988148	0.599287428	0.008742026	0.090189874	0.027797395
2019-09-03T03:40:00	0.2120	11.158	190.9	0.507505110	0.608323598	0.008950630	0.092341996	0.028460700
2019-09-03T03:45:00	0.2129	11.140	178.6	0.510587762	0.612609814	0.009050159	0.093368818	0.028777177
2019-09-03T03:50:00	0.2115	11.127	190.7	0.505791325	0.605944013	0.008895535	0.091773592	0.028285512
2019-09-03T03:55:00	0.2105	11.108	178.4	0.502361174	0.601188369	0.008785772	0.090641189	0.027936495
2019-09-03T04:00:00	0.2129	11.090	190.4	0.510587762	0.612609814	0.009050159	0.093368818	0.028777177
2019-09-03T04:05:00	0.2118	11.078	178.3	0.506667988	0.607160961	0.008923697	0.092064132	0.028375060
2019-09-03T04:10:00	0.2140	11.069	178.3	0.514390920	0.617908419	0.009173709	0.094643463	0.029170034
2019-09-03T04:15:00	0.2127	11.050	178.1	0.509790684	0.611500797	0.009024371	0.093102770	0.028695178
2019-09-03T04:20:00	0.2145	11.035	190.3	0.515797800	0.619871465	0.009219625	0.095117176	0.029316037
2019-09-03T04:25:00	0.2154	11.020	178.1	0.519063362	0.624434138	0.009326647	0.096221296	0.029656338
2019-09-03T04:30:00	0.2153	11.009	190.2	0.518570642	0.623745152	0.009310459	0.096054293	0.029604866
2019-09-03T04:35:00	0.2144	10.992	190.0	0.515685709	0.619715004	0.009215963	0.095079390	0.029304391
2019-09-03T04:40:00	0.2133	10.972	189.9	0.511771769	0.614258135	0.009088533	0.093764717	0.028899196
2019-09-03T04:45:00	0.2140	10.958	189.9	0.514357260	0.617861472	0.009172612	0.094632143	0.029166546
2019-09-03T04:50:00	0.2127	10.943	189.8	0.509756979	0.611453912	0.009023281	0.093091528	0.028691713
2019-09-03T04:55:00	0.2129	10.924	189.7	0.510632626	0.612672252	0.009051611	0.093383805	0.028781795
2019-09-03T05:00:00	0.2136	10.911	189.6	0.512876859	0.615797611	0.009124422	0.094134983	0.029013316
2019-09-03T05:05:00	0.2153	10.893	189.6	0.518537023	0.623698149	0.009309355	0.096042903	0.029601356
2019-09-03T05:10:00	0.2130	10.885	189.7	0.510862719	0.612992495	0.009059063	0.093460681	0.028805490
2019-09-03T05:15:00	0.2141	10.870	189.6	0.514474972	0.618025653	0.009176449	0.094671731	0.029178747
2019-09-03T05:20:00	0.2129	10.859	189.5	0.510559648	0.612570689	0.009049248	0.093359428	0.028774282
2019-09-03T05:25:00	0.2139	10.851	189.4	0.513830199	0.617126481	0.009155440	0.094454991	0.029111946
2019-09-03T05:30:00	0.2148	10.843	189.4	0.517097632	0.621686568	0.009262150	0.095555897	0.029451256
2019-09-03T05:35:00	0.2151	10.834	177.1	0.517971407	0.622907488	0.009290792	0.095851384	0.029542327
2019-09-03T05:40:00	0.2149	10.831	189.4	0.517478531	0.622218719	0.009274630	0.095684651	0.029490939
2019-09-03T05:45:00	0.2156	10.820	177.0	0.519718290	0.625350250	0.009348185	0.096443502	0.029724824
2019-09-03T05:50:00	0.2142	10.818	177.1	0.514783273	0.618455716	0.009186503	0.094775454	0.029210715
2019-09-03T05:55:00	0.2147	10.815	189.3	0.516683054	0.621107497	0.009248576	0.095415859	0.029408094
2019-09-03T06:00:00	0.2154	10.817	177.1	0.518923332	0.624238310	0.009322045	0.096173819	0.029641705
2019-09-03T06:05:00	0.2144	10.814	189.3	0.515696861	0.619730569	0.009216327	0.095083149	0.029305550
2019-09-03T06:10:00	0.2154	10.817	177.1	0.518962518	0.624293109	0.009323333	0.096187104	0.029645800
2019-09-03T06:15:00	0.2156	10.822	177.1	0.519835818	0.625514685	0.009352053	0.096483405	0.029737122
2019-09-03T06:20:00	0.2161	10.827	189.3	0.521391537	0.627692362	0.009403326	0.097012376	0.029900156
2019-09-03T06:25:00	0.2179	10.831	189.4	0.527378411	0.636091044	0.009601951	0.099061559	0.030531735
2019-09-03T06:30:00	0.2166	10.837	189.5	0.523136683	0.630137533	0.009461009	0.097607482	0.030083574
2019-09-03T06:35:00	0.2171	10.847	177.1	0.524690909	0.632317283	0.009512530	0.098139022	0.030247400
2019-09-03T06:40:00	0.2166	10.859	177.3	0.523175820	0.630192398	0.009462304	0.097620849	0.030087694
2019-09-03T06:45:00	0.2176	10.867	177.1	0.526434382	0.634764780	0.009570493	0.098737008	0.030431705
2019-09-03T06:50:00	0.2163	10.883	189.5	0.522191489	0.628812890	0.009429745	0.097284938	0.029984163
2019-09-03T06:55:00	0.2185	10.900	177.3	0.529539160	0.639129401	0.009674150	0.099806424	0.030761309
2019-09-03T07:00:00	0.2178	10.918	189.9	0.527344878	0.636043921	0.009600833	0.099050021	0.030528179
2019-09-03T07:05:00	0.2184	10.935	189.9	0.529237732	0.638705318	0.009664062	0.099702346	0.030729231
2019-09-03T07:10:00	0.2201	10.953	177.7	0.534871064	0.646643171	0.009853475	0.101656482	0.031331515
2019-09-03T07:15:00	0.2180	10.974	177.7	0.527914510	0.636844530	0.009619839	0.099246104	0.030588613
2019-09-03T07:20:00	0.2182	10.994	190.1	0.528444971	0.637590322	0.009637555	0.099428879	0.030644946
2019-09-03T07:25:00	0.2178	11.016	178.0	0.527272254	0.635941868	0.009598411	0.099025036	0.030520478
2019-09-03T07:30:00	0.2170	11.041	190.2	0.524394618	0.631901594	0.009502698	0.098037580	0.030216134
2019-09-03T07:35:00	0.2189	11.071	178.2	0.531057003	0.641266003	0.009725030	0.100331342	0.030923094
2019-09-03T07:40:00	0.2190	11.105	178.3	0.531246687	0.641533144	0.009731398	0.100397038	0.030943342
2019-09-03T07:45:00	0.2188	11.140	190.9	0.530755709	0.640841734	0.009714920	0.100227035	0.030890946
2019-09-03T07:50:00	0.2194	11.176	178.6	0.532646692	0.643505749	0.009778462	0.100882592	0.031092995
2019-09-03T07:55:00	0.2183	11.214	191.2	0.528752022	0.638022120	0.009647817	0.099534753	0.030677578
2019-09-03T08:00:00	0.2184	11.260	179.1	0.529282354	0.638768093	0.009665555	0.099717750	0.030733979
2019-09-03T08:05:00	0.2178	11.299	191.6	0.527087909	0.635682841	0.009592265	0.098961629	0.030500935
2019-09-03T08:10:00	0.2179	11.342	179.5	0.527618497	0.636428455	0.009609960	0.099144184	0.030557200
2019-09-03T08:15:00	0.2185	11.390	179.6	0.529511201	0.639090062	0.009673214	0.099796768	0.030758333
2019-09-03T08:20:00	0.2182	11.435	179.8	0.528679428	0.637920026	0.009645391	0.099509717	0.030669861
2019-09-03T08:25:00	0.2186	11.480	180.1	0.529890728	0.639624121	0.009685923	0.099927884	0.030798744
2019-09-03T08:30:00	0.2175	11.527	192.7	0.526333754	0.634623451	0.009567142	0.098702445	0.030421052
2019-09-03T08:35:00	0.2171	11.575	193.0	0.524819389	0.632497560	0.009516796	0.098183026	0.030260962
2019-09-03T08:40:00	0.2185	11.625	180.6	0.529438623	0.638987945	0.009670785	0.099771704	0.030750608
2019-09-03T08:45:00	0.2175	11.672	180.8	0.526222007	0.634466514	0.009563423	0.098664069	0.030409224
2019-09-03T08:50:00	0.2177	11.721	181.1	0.526752728	0.635211942	0.009581095	0.098846394	0.030465419
2019-09-03T08:55:00	0.2168	11.791	181.4	0.523874658	0.631172274	0.009485455	0.097859686	0.030161306
2019-09-03T09:00:00	0.2167	11.840	194.1	0.523382628	0.630482332	0.009469152	0.097691498	0.030109468
2019-09-03T09:05:00	0.2156	11.890	194.3	0.519818918	0.625491039	0.009351497	0.096477667	0.029735354
2019-09-03T09:10:00	0.2155	11.933	194.5	0.519326307	0.624801904	0.009335291	0.096310478	0.029683825
2019-09-03T09:15:00	0.2155	11.977	194.8	0.519516638	0.625068143	0.009341551	0.096375058	0.029703729
2019-09-03T09:20:00	0.2161	12.022	182.4	0.521413802	0.627723543	0.009404060	0.097019957	0.029902493
2019-09-03T09:25:00	0.2153	12.070	195.2	0.518531259	0.623690089	0.009309166	0.096040951	0.029600754
2019-09-03T09:30:00	0.2167	12.109	195.4	0.523500031	0.630646941	0.009473041	0.097731616	0.030121833
2019-09-03T09:35:00	0.2146	12.153	183.0	0.516178650	0.620403147	0.009232075	0.095245616	0.029355624
2019-09-03T09:40:00	0.2144	12.204	195.9	0.515685516	0.619714734	0.009215957	0.095079325	0.029304371
2019-09-03T09:45:00	0.2136	12.257	183.4	0.512798155	0.615687937	0.009121864	0.094108588	0.029005181
2019-09-03T09:50:00	0.2131	12.309	183.7	0.511277807	0.613570326	0.009072513	0.093599448	0.028848259
2019-09-03T09:55:00	0.2142	12.368	183.9	0.514889623	0.618604086	0.009189972	0.094811246	0.029221747
2019-09-03T10:00:00	0.2126	12.410	184.2	0.509605204	0.611242802	0.009018375	0.093040915	0.028676114
2019-09-03T10:05:00	0.2120	12.450	184.4	0.507446659	0.608242400	0.008948748	0.092322580	0.028454716
2019-09-03T10:10:00	0.2108	12.487	184.6	0.503228769	0.602390329	0.008813470	0.090926947	0.028024568
2019-09-03T10:15:00	0.2100	12.526	197.4	0.500379487	0.598445228	0.008722669	0.089990166	0.027735843
2019-09-03T10:20:00	0.2110	12.567	185.0	0.504051388	0.603530538	0.008839773	0.091198306	0.028108204
2019-09-03T10:25:00	0.2114	12.604	185.1	0.505319956	0.605289934	0.008880411	0.091617562	0.028237422
2019-09-03T10:30:00	0.2105	12.643	198.0	0.502129226	0.600867133	0.008778374	0.090564869	0.027912972
2019-09-03T10:35:00	0.2095	12.685	198.3	0.498935510	0.596448399	0.008676831	0.089517264	0.027590090
2019-09-03T10:40:00	0.2103	12.724	198.5	0.501579321	0.600105716	0.008760848	0.090384056	0.027857244
2019-09-03T10:45:00	0.2109	12.763	198.7	0.503535016	0.602814745	0.008823258	0.091027922	0.028055690
2019-09-03T10:50:00	0.2103	12.805	199.0	0.501715902	0.600294807	0.008765200	0.090428948	0.027871080
2019-09-03T10:55:00	0.2099	12.839	199.1	0.500239236	0.598251206	0.008718211	0.089944179	0.027721670
2019-09-03T11:00:00	0.2093	12.864	199.3	0.498074762	0.595258895	0.008649564	0.089235959	0.027503389
2019-09-03T11:05:00	0.2096	12.885	199.4	0.499002045	0.596540371	0.008678940	0.089539027	0.027596798
2019-09-03T11:10:00	0.2103	12.911	199.6	0.501645804	0.600197758	0.008762966	0.090405906	0.027863978
2019-09-03T11:15:00	0.2099	12.935	199.7	0.500169108	0.598154198	0.008715983	0.089921190	0.027714584
2019-09-03T11:20:00	0.2102	12.960	199.8	0.501095822	0.599436447	0.008745453	0.090225226	0.027808291
2019-09-03T11:25:00	0.2094	12.980	187.0	0.498588342	0.595968561	0.008665828	0.089403751	0.027555104
2019-09-03T11:30:00	0.2094	13.007	200.0	0.498484908	0.595825619	0.008662551	0.089369946	0.027544685
2019-09-03T11:35:00	0.2089	13.032	200.2	0.496663099	0.593309347	0.008604938	0.088775562	0.027361490
2019-09-03T11:40:00	0.2077	13.055	187.4	0.492776017	0.587949443	0.008482652	0.087513960	0.026972652
2019-09-03T11:45:00	0.2072	13.079	200.4	0.490951150	0.585437309	0.008425543	0.086924772	0.026791059
2019-09-03T11:50:00	0.2077	13.103	200.6	0.492568794	0.587664042	0.008476158	0.087446955	0.026952001
2019-09-03T11:55:00	0.2071	13.119	200.7	0.490399438	0.584678341	0.008408315	0.086747033	0.026736278
2019-09-03T12:00:00	0.2085	13.145	200.8	0.495457911	0.591646214	0.008566930	0.088383443	0.027240635
2019-09-03T12:05:00	0.2070	13.163	200.9	0.490192070	0.584393136	0.008401844	0.086680273	0.026715702
2019-09-03T12:10:00	0.2094	13.184	188.1	0.498344579	0.595631703	0.008658107	0.089324092	0.027530553
2019-09-03T12:15:00	0.2082	13.211	201.2	0.494459418	0.590269198	0.008535505	0.088059227	0.027140709
2019-09-03T12:20:00	0.2051	13.239	201.3	0.483675282	0.575447769	0.008199748	0.084595284	0.026073088
2019-09-03T12:25:00	0.2041	13.273	201.5	0.480118759	0.570580170	0.008090483	0.083468018	0.025725654
2019-09-03T12:30:00	0.2062	13.304	201.7	0.487606156	0.580839477	0.008321358	0.085849919	0.026459779
2019-09-03T12:35:00	0.2053	13.343	188.8	0.484398776	0.576439209	0.008222064	0.084825517	0.026144048
2019-09-03T12:40:00	0.2055	13.369	202.0	0.484984868	0.577242666	0.008240164	0.085012253	0.026201602
2019-09-03T12:45:00	0.2047	13.395	202.2	0.482120261	0.573318263	0.008151884	0.084101487	0.025920895
2019-09-03T12:50:00	0.2027	13.424	189.3	0.475450291	0.564206029	0.007948157	0.081999672	0.025273095
2019-09-03T12:55:00	0.2023	13.461	202.5	0.473962160	0.562177842	0.007903052	0.081534325	0.025129671
2019-09-03T13:00:00	0.2016	13.491	202.5	0.471434551	0.558736979	0.007826730	0.080746926	0.024886987
2019-09-03T13:05:00	0.2012	13.515	189.7	0.470291112	0.557182071	0.007792323	0.080391962	0.024777583
2019-09-03T13:10:00	0.2030	13.537	189.8	0.476417261	0.565524865	0.007977534	0.082302749	0.025366507
2019-09-03T13:15:00	0.2038	13.554	202.9	0.479078643	0.569158532	0.008058665	0.083139761	0.025624482
2019-09-03T13:20:00	0.2025	13.568	190.0	0.474825398	0.563354142	0.007929201	0.081804105	0.025212820
2019-09-03T13:25:00	0.2017	13.577	190.1	0.471952178	0.559441217	0.007842330	0.080907870	0.024936591
2019-09-03T13:30:00	0.2026	13.586	190.1	0.474963059	0.563541781	0.007933375	0.081847167	0.025226092
2019-09-03T13:35:00	0.2009	13.589	203.2	0.468972175	0.555389801	0.007752729	0.079983474	0.024651683
2019-09-03T13:40:00	0.2021	13.595	190.2	0.473370511	0.561371968	0.007885154	0.081349677	0.025072761
2019-09-03T13:45:00	0.1996	13.607	203.3	0.464601705	0.549460749	0.007622238	0.078637226	0.024236757
2019-09-03T13:50:00	0.1996	13.620	190.4	0.464497229	0.549319200	0.007619132	0.078605182	0.024226880
2019-09-03T13:55:00	0.2006	13.624	203.5	0.468208152	0.554352222	0.007729838	0.079747318	0.024578898
2019-09-03T14:00:00	0.1989	13.631	203.6	0.462205251	0.546216108	0.007551149	0.077903816	0.024010713
2019-09-03T14:05:00	0.2018	13.641	190.6	0.472157019	0.559719964	0.007848507	0.080971604	0.024956235
2019-09-03T14:10:00	0.2002	13.659	203.7	0.466854816	0.552515465	0.007689374	0.079329852	0.024450231
2019-09-03T14:15:00	0.2007	13.670	203.9	0.468484007	0.554726792	0.007738099	0.079832544	0.024605165
2019-09-03T14:20:00	0.2002	13.680	204.1	0.466646001	0.552232188	0.007683140	0.079265535	0.024430408
2019-09-03T14:25:00	0.2016	13.687	204.0	0.471393716	0.558681432	0.007825500	0.080734236	0.024883076
2019-09-03T14:30:00	0.2015	13.692	191.0	0.471289450	0.558539606	0.007822359	0.080701839	0.024873091
2019-09-03T14:35:00	0.2011	13.699	204.2	0.469799485	0.556513850	0.007777553	0.080239580	0.024730618
2019-09-03T14:40:00	0.2009	13.702	204.2	0.469002087	0.555430432	0.007753626	0.079992727	0.024654535
2019-09-03T14:45:00	0.1992	13.707	204.2	0.463347778	0.547762447	0.007585001	0.078253053	0.024118351
2019-09-03T14:50:00	0.1988	13.716	191.1	0.461854298	0.545741322	0.007540766	0.077796694	0.023977697
2019-09-03T14:55:00	0.1981	13.726	204.3	0.459317592	0.542312448	0.007465925	0.077024568	0.023739720
2019-09-03T15:00:00	0.1990	13.738	191.3	0.462687014	0.546868018	0.007565414	0.078050983	0.024056071
2019-09-03T15:05:00	0.2006	13.751	204.5	0.468133707	0.554251147	0.007727610	0.079724326	0.024571811
2019-09-03T15:10:00	0.1984	13.757	191.4	0.460393804	0.543766545	0.007497632	0.077351685	0.023840540
2019-09-03T15:15:00	0.1983	13.768	191.5	0.459941705	0.543155591	0.007484304	0.077214185	0.023798162
2019-09-03T15:20:00	0.1995	13.775	191.5	0.464351829	0.549122221	0.007614811	0.078560596	0.024213139
2019-09-03T15:25:00	0.1999	13.771	191.5	0.465635324	0.550861606	0.007653001	0.078954598	0.024334574
2019-09-03T15:30:00	0.2003	13.765	191.5	0.466918331	0.552601634	0.007691271	0.079349421	0.024456262
2019-09-03T15:35:00	0.1943	13.767	191.6	0.446290127	0.524783233	0.007087343	0.073118810	0.022535927
2019-09-03T15:40:00	0.1950	13.773	204.8	0.448626754	0.527917456	0.007154536	0.073812024	0.022749583
2019-09-03T15:45:00	0.1951	13.778	191.6	0.448870456	0.528244592	0.007161561	0.073884508	0.022771923
2019-09-03T15:50:00	0.1961	13.772	204.8	0.452598658	0.533255015	0.007269465	0.074997727	0.023115028
2019-09-03T15:55:00	0.1950	13.769	191.6	0.448660520	0.527962780	0.007155509	0.073822065	0.022752677
2019-09-03T16:00:00	0.1946	13.769	191.6	0.447160493	0.525950192	0.007112335	0.073376650	0.022615396
2019-09-03T16:05:00	0.1945	13.770	204.8	0.446913545	0.525619031	0.007105240	0.073303448	0.022592835
2019-09-03T16:10:00	0.1941	13.773	191.6	0.445619752	0.523884822	0.007068123	0.072920519	0.022474812
2019-09-03T16:15:00	0.1939	13.773	191.7	0.444674572	0.522618728	0.007041067	0.072641390	0.022388782
2019-09-03T16:20:00	0.1946	13.768	191.7	0.447219245	0.526028986	0.007114024	0.073394071	0.022620765
2019-09-03T16:25:00	0.1955	13.769	191.7	0.450459044	0.530378195	0.007207442	0.074357854	0.022917813
2019-09-03T16:30:00	0.1945	13.768	191.7	0.446725338	0.525366676	0.007099834	0.073247683	0.022575647
2019-09-03T16:35:00	0.1933	13.767	191.7	0.442638176	0.519893306	0.006982948	0.072041782	0.022203977
2019-09-03T16:40:00	0.1915	13.765	191.7	0.437480044	0.511634612	0.006818529	0.070345512	0.021681170
2019-09-03T16:45:00	0.1927	13.759	191.7	0.440821132	0.517363676	0.006929941	0.071494920	0.022035429
2019-09-03T16:50:00	0.1929	13.750	191.7	0.441197430	0.517967043	0.006941970	0.071619028	0.022073680
2019-09-03T16:55:00	0.1927	13.741	191.7	0.440708225	0.517169563	0.006926158	0.071455891	0.022023400
2019-09-03T17:00:00	0.1932	13.732	191.7	0.442449728	0.519641261	0.006977581	0.071986418	0.022186913
2019-09-03T17:05:00	0.1911	13.723	205.0	0.436244494	0.509523881	0.006777609	0.069923339	0.021551052
2019-09-03T17:10:00	0.1938	13.714	204.8	0.444399879	0.522250901	0.007033213	0.072560366	0.022363809
2019-09-03T17:15:00	0.1949	13.705	204.8	0.448339904	0.527532460	0.007146270	0.073726751	0.022723301
2019-09-03T17:20:00	0.1939	13.695	191.6	0.444952919	0.522991509	0.007049029	0.072723536	0.022414100
2019-09-03T17:25:00	0.1951	13.684	204.8	0.448892294	0.528273909	0.007162191	0.073891005	0.022773925
2019-09-03T17:30:00	0.1934	13.673	191.5	0.443061916	0.520460152	0.006995022	0.072166351	0.022242370
2019-09-03T17:35:00	0.1932	13.658	191.5	0.442465357	0.519662163	0.006978026	0.071991008	0.022188328
2019-09-03T17:40:00	0.1946	13.642	191.4	0.447105416	0.525876328	0.007110752	0.073360321	0.022610363
2019-09-03T17:45:00	0.1936	13.625	191.4	0.443717181	0.521336992	0.007013713	0.072359188	0.022301804
2019-09-03T17:50:00	0.1942	13.606	191.3	0.445913633	0.524278627	0.007076545	0.073007414	0.022501594
2019-09-03T17:55:00	0.1957	13.584	191.2	0.450897384	0.530967273	0.007220128	0.074488725	0.022958149
2019-09-03T18:00:00	0.1933	13.561	204.2	0.442626227	0.519877324	0.006982607	0.072038271	0.022202895
2019-09-03T18:05:00	0.1956	13.539	191.0	0.450752501	0.530772549	0.007215934	0.074445456	0.022944813
2019-09-03T18:10:00	0.1951	13.516	190.9	0.449111574	0.528568306	0.007168516	0.073956258	0.022794037
2019-09-03T18:15:00	0.1969	13.490	190.8	0.455134763	0.536669613	0.007343318	0.075759655	0.023349862
2019-09-03T18:20:00	0.1960	13.467	203.8	0.452102980	0.532588229	0.007255073	0.074849250	0.023069266
2019-09-03T18:25:00	0.1987	13.441	190.6	0.461595997	0.545391943	0.007533129	0.077717899	0.023953411
2019-09-03T18:30:00	0.1982	13.414	203.6	0.459612835	0.542711267	0.007474616	0.077114240	0.023767358
2019-09-03T18:35:00	0.1969	13.390	203.6	0.455193374	0.536748588	0.007345029	0.075777309	0.023355302
2019-09-03T18:40:00	0.1990	13.365	190.3	0.462594907	0.546743367	0.007562686	0.078022836	0.024047396
2019-09-03T18:45:00	0.1977	13.338	190.2	0.458179367	0.540775558	0.007432462	0.076679343	0.023633318
2019-09-03T18:50:00	0.1997	13.313	190.1	0.464880410	0.549838392	0.007630527	0.078722740	0.024263113
2019-09-03T18:55:00	0.2001	13.282	190.0	0.466369445	0.551857070	0.007674887	0.079180392	0.024404166
2019-09-03T19:00:00	0.1970	13.253	189.9	0.455701602	0.537433496	0.007359875	0.075930469	0.023402508
2019-09-03T19:05:00	0.1978	13.223	202.8	0.458237925	0.540854602	0.007434182	0.076697086	0.023638787
2019-09-03T19:10:00	0.1983	13.195	202.7	0.460077415	0.543338970	0.007488304	0.077255447	0.023810879
2019-09-03T19:15:00	0.1978	13.169	202.5	0.458441041	0.541128794	0.007440149	0.076758642	0.023657759
2019-09-03T19:20:00	0.1989	13.143	189.4	0.462364627	0.546431752	0.007555867	0.077952487	0.024025713
2019-09-03T19:25:00	0.1991	13.117	202.3	0.462813294	0.547038928	0.007569155	0.078089581	0.024067967
2019-09-03T19:30:00	0.2000	13.087	202.2	0.466038099	0.551407713	0.007665005	0.079078441	0.024372743
2019-09-03T19:35:00	0.1994	13.059	202.1	0.464057552	0.548723603	0.007606068	0.078470397	0.024185338
2019-09-03T19:40:00	0.1986	13.030	202.0	0.461033810	0.544631708	0.007516519	0.077546539	0.023900596
2019-09-03T19:45:00	0.1984	13.003	201.8	0.460440439	0.543829576	0.007499007	0.077365875	0.023844914
2019-09-03T19:50:00	0.1963	12.975	201.7	0.453237587	0.534114787	0.007288036	0.075189326	0.023174081
2019-09-03T19:55:00	0.1986	12.948	201.6	0.460990842	0.544573614	0.007515250	0.077533449	0.023896562
2019-09-03T20:00:00	0.1997	12.925	201.5	0.464911458	0.549880467	0.007631451	0.078732270	0.024266050
2019-09-03T20:05:00	0.1989	12.895	201.3	0.462235774	0.546257405	0.007552053	0.077913136	0.024013585
2019-09-03T20:10:00	0.1980	12.865	201.2	0.459210393	0.542167659	0.007462770	0.076992022	0.023729689
2019-09-03T20:15:00	0.1980	12.839	201.1	0.458964330	0.541835346	0.007455531	0.076917342	0.023706672
2019-09-03T20:20:00	0.1996	12.823	201.0	0.464622890	0.549489453	0.007622868	0.078643725	0.024238760
2019-09-03T20:25:00	0.1989	12.793	200.8	0.462294262	0.546336541	0.007553784	0.077930997	0.024019090
2019-09-03T20:30:00	0.1981	12.770	200.7	0.459268934	0.542246726	0.007464493	0.077009794	0.023735167
2019-09-03T20:35:00	0.2006	12.738	200.6	0.468048502	0.554135468	0.007725059	0.079698014	0.024563702
2019-09-03T20:40:00	0.2001	12.714	200.5	0.466415998	0.551920209	0.007676276	0.079194721	0.024408582
2019-09-03T20:45:00	0.1981	12.688	200.3	0.459573510	0.542658142	0.007473458	0.077102293	0.023763676
2019-09-03T20:50:00	0.1996	12.661	200.2	0.464537046	0.549373146	0.007620316	0.078617394	0.024230644
2019-09-03T20:55:00	0.2017	12.643	200.1	0.471918096	0.559394841	0.007841302	0.080897268	0.024933324
2019-09-03T21:00:00	0.1996	12.609	200.0	0.464739783	0.549647836	0.007626344	0.078679586	0.024249813
2019-09-03T21:05:00	0.2000	12.596	199.9	0.465882000	0.551196050	0.007660351	0.079030433	0.024357947
2019-09-03T21:10:00	0.1994	12.572	199.8	0.463901362	0.548512060	0.007601429	0.078422544	0.024170590
2019-09-03T21:15:00	0.1986	12.544	199.5	0.461224875	0.544890054	0.007522162	0.077604756	0.023918540
2019-09-03T21:20:00	0.2001	12.509	186.6	0.466185979	0.551608251	0.007669414	0.079123934	0.024386765
2019-09-03T21:25:00	0.2001	12.491	186.5	0.466287299	0.551745659	0.007672436	0.079155111	0.024396374
2019-09-03T21:30:00	0.2010	12.469	186.4	0.469508784	0.556118818	0.007768826	0.080149543	0.024702868
2019-09-03T21:35:00	0.1997	12.447	186.3	0.465102304	0.550139101	0.007637129	0.078790856	0.024284107
2019-09-03T21:40:00	0.1995	12.420	186.2	0.464162592	0.548865879	0.007609188	0.078502587	0.024195260
2019-09-03T21:45:00	0.2018	12.395	186.0	0.472237022	0.559828841	0.007850921	0.080996503	0.024963909
2019-09-03T21:50:00	0.2014	12.373	185.9	0.470952938	0.558081929	0.007812229	0.080597322	0.024840877
2019-09-03T21:55:00	0.2003	12.356	185.8	0.466895156	0.552570193	0.007690578	0.079342280	0.024454061
2019-09-03T22:00:00	0.2015	12.334	185.7	0.471155289	0.558357127	0.007818320	0.080660162	0.024860245
2019-09-03T22:05:00	0.1990	12.313	185.7	0.462675688	0.546852690	0.007565079	0.078047522	0.024055004
2019-09-03T22:10:00	0.2020	12.300	185.6	0.472920149	0.560758725	0.007871543	0.081209262	0.025029483
2019-09-03T22:15:00	0.2006	12.276	185.5	0.468260333	0.554423071	0.007731401	0.079763436	0.024583866
2019-09-03T22:20:00	0.2029	12.262	185.4	0.476067783	0.565048131	0.007966911	0.082193148	0.025332727
2019-09-03T22:25:00	0.2014	12.245	185.3	0.470719579	0.557764601	0.007805207	0.080524883	0.024818551
2019-09-03T22:30:00	0.2017	12.218	185.2	0.471948531	0.559436254	0.007842220	0.080906736	0.024936242
2019-09-03T22:35:00	0.2033	12.198	185.1	0.477328272	0.566768062	0.008005260	0.082588793	0.025454668
2019-09-03T22:40:00	0.2022	12.176	185.0	0.473712977	0.561838400	0.007895511	0.081456533	0.025105694
2019-09-03T22:45:00	0.2030	12.157	184.9	0.476324431	0.565398223	0.007974712	0.082273629	0.025357532
2019-09-03T22:50:00	0.2024	12.142	184.8	0.474438603	0.562826998	0.007917479	0.081683169	0.025175546
2019-09-03T22:55:00	0.2015	12.119	184.7	0.471166587	0.558372494	0.007818660	0.080663671	0.024861327
2019-09-03T23:00:00	0.2037	12.106	184.6	0.478967334	0.569006446	0.008055264	0.083104670	0.025613666
2019-09-03T23:05:00	0.2041	12.083	184.5	0.480193293	0.570682076	0.008092765	0.083491565	0.025732911
2019-09-03T23:10:00	0.2020	12.059	184.4	0.472775112	0.560561267	0.007867163	0.081164067	0.025015554
2019-09-03T23:15:00	0.2040	12.042	184.3	0.479881298	0.570255531	0.008083213	0.083393020	0.025702539
2019-09-03T23:20:00	0.2027	12.023	184.2	0.475231075	0.563907146	0.007941505	0.081931039	0.025251942
2019-09-03T23:25:00	0.2031	12.006	184.1	0.476804183	0.566052791	0.007989304	0.082424177	0.025403932
2019-09-03T23:30:00	0.2049	11.983	184.0	0.482866605	0.574340095	0.008174839	0.084338310	0.025993886
2019-09-03T23:35:00	0.2045	11.960	196.7	0.481675050	0.572708930	0.008138206	0.083960375	0.025877403
2019-09-03T23:40:00	0.2061	11.942	196.5	0.487039376	0.580061302	0.008303769	0.085668452	0.026403849
2019-09-03T23:45:00	0.2067	11.922	196.4	0.489296097	0.583161251	0.008373913	0.086392121	0.026626891
2019-09-03T23:50:00	0.2051	11.904	196.4	0.483623690	0.575377086	0.008198157	0.084578878	0.026068032
2019-09-03T23:55:00	0.2060	11.884	183.6	0.486917082	0.579893429	0.008299976	0.085629322	0.026391789
2019-09-04T00:00:00	0.2053	11.865	183.5	0.484347195	0.576368511	0.008220472	0.084809093	0.026138986
2019-09-04T00:05:00	0.2078	11.847	196.1	0.492806071	0.587990837	0.008483594	0.087523680	0.026975648
2019-09-04T00:10:00	0.2066	11.832	183.3	0.488862715	0.582565618	0.008360420	0.086252913	0.026583986
2019-09-04T00:15:00	0.2068	11.815	195.9	0.489396181	0.583298826	0.008377031	0.086424286	0.026636804
2019-09-04T00:20:00	0.2078	11.794	195.8	0.493028130	0.588296714	0.008490557	0.087595514	0.026997788
2019-09-04T00:25:00	0.2054	11.777	195.7	0.484603216	0.576719439	0.008228375	0.084890631	0.026164117
2019-09-04T00:30:00	0.2066	11.757	195.6	0.488929446	0.582657323	0.008362497	0.086274341	0.026590590
2019-09-04T00:35:00	0.2077	11.742	195.5	0.492561894	0.587654540	0.008475941	0.087444725	0.026951313
2019-09-04T00:40:00	0.2061	11.721	195.4	0.487239675	0.580336278	0.008309983	0.085732561	0.026423608
2019-09-04T00:45:00	0.2058	11.708	195.3	0.486049655	0.578703056	0.008273098	0.085352028	0.026306324
2019-09-04T00:50:00	0.2055	11.688	195.3	0.485204157	0.577543355	0.008246941	0.085082174	0.026223152
2019-09-04T00:55:00	0.2060	11.672	195.2	0.486772643	0.579695174	0.008295497	0.085583118	0.026377548
2019-09-04T01:00:00	0.2066	11.652	195.1	0.488684991	0.582321402	0.008354890	0.086195858	0.026566401
2019-09-04T01:05:00	0.2046	11.634	194.9	0.481975970	0.573120763	0.008147450	0.084055741	0.025906796
2019-09-04T01:10:00	0.2061	11.616	194.9	0.486995097	0.580000520	0.008302395	0.085654284	0.026399482
2019-09-04T01:15:00	0.2043	11.595	194.8	0.480973505	0.571749088	0.008116676	0.083738253	0.025808943
2019-09-04T01:20:00	0.2032	11.579	194.7	0.477016366	0.566342349	0.007995762	0.082490804	0.025424467
2019-09-04T01:25:00	0.2034	11.566	194.6	0.477897383	0.567545025	0.008022605	0.082767734	0.025509820
2019-09-04T01:30:00	0.2045	11.548	194.5	0.481541652	0.572526386	0.008134110	0.083918116	0.025864378
2019-09-04T01:35:00	0.2033	11.531	181.9	0.477585177	0.567118762	0.008013087	0.082669546	0.025479557
2019-09-04T01:40:00	0.2042	11.515	181.8	0.480539059	0.571154883	0.008103357	0.083600845	0.025766592
2019-09-04T01:45:00	0.2049	11.499	181.7	0.482800106	0.574249032	0.008172793	0.084317196	0.025987379
2019-09-04T01:50:00	0.2049	11.491	181.7	0.482989397	0.574508253	0.008178619	0.084377305	0.026005905
2019-09-04T01:55:00	0.2051	11.474	181.6	0.483523787	0.575240221	0.008195078	0.084547114	0.026058242
2019-09-04T02:00:00	0.2059	11.457	181.5	0.486472501	0.579283253	0.008286195	0.085487146	0.026347968
2019-09-04T02:05:00	0.2046	11.438	181.4	0.481831321	0.572922790	0.008143006	0.084009892	0.025892665
2019-09-04T02:10:00	0.2046	11.432	181.4	0.482020665	0.573181939	0.008148823	0.084069910	0.025911163
2019-09-04T02:15:00	0.2052	11.409	181.3	0.483935692	0.575804574	0.008207776	0.084678117	0.026098618
2019-09-04T02:20:00	0.2055	11.396	181.2	0.485159855	0.577482605	0.008245572	0.085068046	0.026218798
2019-09-04T02:25:00	0.2039	11.385	181.2	0.479480522	0.569707722	0.008070951	0.083266517	0.025663549
2019-09-04T02:30:00	0.2043	11.367	181.1	0.481051657	0.571855995	0.008119073	0.083762983	0.025816565
2019-09-04T02:35:00	0.2038	11.352	181.0	0.479168462	0.569281264	0.008061410	0.083168082	0.025633211
2019-09-04T02:40:00	0.2040	11.341	181.0	0.479703455	0.570012427	0.008077771	0.083336873	0.025685234
2019-09-04T02:45:00	0.2037	11.326	180.9	0.478856373	0.568854845	0.008051874	0.083069696	0.025602887
2019-09-04T02:50:00	0.2022	11.315	180.8	0.473512582	0.561565455	0.007889450	0.081393998	0.025086421
2019-09-04T02:55:00	0.2027	11.302	180.8	0.475432425	0.564181669	0.007947615	0.081994077	0.025271371
2019-09-04T03:00:00	0.2032	11.282	180.7	0.477005440	0.566327438	0.007995430	0.082487372	0.025423409
2019-09-04T03:05:00	0.2024	11.265	180.6	0.474428021	0.562812578	0.007917158	0.081679862	0.025174527
2019-09-04T03:10:00	0.2035	11.248	180.5	0.478076025	0.567788965	0.008028053	0.082823943	0.025527144
2019-09-04T03:15:00	0.2013	11.245	180.5	0.470653194	0.557674336	0.007803210	0.080504281	0.024812201
2019-09-04T03:20:00	0.2018	11.235	180.4	0.472228434	0.559817153	0.007850662	0.080993830	0.024963085
2019-09-04T03:25:00	0.2021	11.214	180.3	0.473456837	0.561489533	0.007887764	0.081376606	0.025081060
2019-09-04T03:30:00	0.2032	11.200	180.3	0.477105888	0.566464527	0.007998488	0.082518922	0.025433133
2019-09-04T03:35:00	0.2017	11.188	180.2	0.471759328	0.559178816	0.007836516	0.080847889	0.024918105
2019-09-04T03:40:00	0.2009	11.177	180.2	0.469177903	0.555669268	0.007758898	0.080047122	0.024671301
2019-09-04T03:45:00	0.2019	11.154	180.1	0.472485373	0.560166858	0.007858415	0.081073820	0.024987739
2019-09-04T03:50:00	0.2025	11.147	180.0	0.474751805	0.563253836	0.007926970	0.081781088	0.025205726
2019-09-04T03:55:00	0.2011	11.139	180.0	0.469748034	0.556443929	0.007776008	0.080223641	0.024725705
2019-09-04T04:00:00	0.2020	11.121	179.9	0.473054946	0.560942257	0.007875616	0.081251277	0.025042433
2019-09-04T04:05:00	0.2022	11.111	179.8	0.473777617	0.561926449	0.007897467	0.081476709	0.025111913
2019-09-04T04:10:00	0.2051	11.104	179.8	0.483829623	0.575659236	0.008204506	0.084644373	0.026088218
2019-09-04T04:15:00	0.2044	11.085	179.7	0.481098360	0.571919884	0.008120506	0.083777763	0.025821120
2019-09-04T04:20:00	0.2042	11.075	179.6	0.480437969	0.571016642	0.008100260	0.083568889	0.025756743
2019-09-04T04:25:00	0.2044	11.060	192.0	0.481159065	0.572002930	0.008122368	0.083796976	0.025827042
2019-09-04T04:30:00	0.2051	11.044	179.5	0.483605867	0.575352669	0.008197608	0.084573211	0.026066285
2019-09-04T04:35:00	0.2049	11.035	179.4	0.482945965	0.574448774	0.008177282	0.084363511	0.026001653
2019-09-04T04:40:00	0.2051	11.029	191.8	0.483666527	0.575435775	0.008199478	0.084592500	0.026072230
2019-09-04T04:45:00	0.2051	11.010	191.7	0.483696856	0.575477328	0.008200413	0.084602145	0.026075203
2019-09-04T04:50:00	0.2059	11.008	179.3	0.486486638	0.579302653	0.008286633	0.085491665	0.026349361
2019-09-04T04:55:00	0.2058	11.000	191.6	0.486172136	0.578871100	0.008276891	0.085391155	0.026318383
2019-09-04T05:00:00	0.2061	10.995	191.6	0.487236746	0.580332258	0.008309892	0.085731623	0.026423319
2019-09-04T05:05:00	0.2047	10.983	191.6	0.482437640	0.573752738	0.008161642	0.084202155	0.025951922
2019-09-04T05:10:00	0.2078	10.977	191.5	0.492808215	0.587993790	0.008483662	0.087524373	0.026975862
2019-09-04T05:15:00	0.2059	10.975	191.5	0.486293363	0.579037436	0.008280645	0.085429891	0.026330322
2019-09-04T05:20:00	0.2083	10.975	179.1	0.494588998	0.590447857	0.008539580	0.088101269	0.027153667
2019-09-04T05:25:00	0.2089	10.966	191.4	0.496682411	0.593336007	0.008605548	0.088781853	0.027363429
2019-09-04T05:30:00	0.2080	10.967	179.1	0.493617412	0.589108616	0.008509048	0.087786284	0.027056585
2019-09-04T05:35:00	0.2080	10.961	179.1	0.493647653	0.589150289	0.008509998	0.087796080	0.027059604
2019-09-04T05:40:00	0.2083	10.956	191.4	0.494709925	0.590614597	0.008543383	0.088140512	0.027165762
2019-09-04T05:45:00	0.2084	10.949	178.9	0.495084095	0.591130593	0.008555159	0.088261993	0.027203203
2019-09-04T05:50:00	0.2080	10.954	179.0	0.493738374	0.589275309	0.008512847	0.087825469	0.027068663
2019-09-04T05:55:00	0.2097	10.953	191.4	0.499612508	0.597384388	0.008698307	0.089738826	0.027658378
2019-09-04T06:00:00	0.2092	10.952	179.0	0.497924958	0.595051936	0.008644823	0.089187046	0.027488314
2019-09-04T06:05:00	0.2094	10.953	179.0	0.498298775	0.595568410	0.008656656	0.089309127	0.027525940
2019-09-04T06:10:00	0.2107	10.949	179.0	0.502792764	0.601786216	0.008799545	0.090783285	0.027980290
2019-09-04T06:15:00	0.2105	10.951	191.4	0.502136573	0.600877308	0.008778608	0.090567285	0.027913717
2019-09-04T06:20:00	0.2113	10.963	191.4	0.504911290	0.604723009	0.008867309	0.091482395	0.028195763
2019-09-04T06:25:00	0.2113	10.966	191.5	0.504941431	0.604764817	0.008868275	0.091492361	0.028198834
2019-09-04T06:30:00	0.2113	10.976	191.5	0.504971572	0.604806626	0.008869241	0.091502327	0.028201906
2019-09-04T06:35:00	0.2115	10.986	191.5	0.505687488	0.605799912	0.008892202	0.091739209	0.028274915
2019-09-04T06:40:00	0.2122	10.993	179.2	0.508116732	0.609173408	0.008970333	0.092545274	0.028523352
2019-09-04T06:45:00	0.2110	11.012	179.3	0.504033089	0.603505169	0.008839187	0.091192265	0.028106342
2019-09-04T06:50:00	0.2129	11.024	179.3	0.510574345	0.612591142	0.009049724	0.093364337	0.028775795
2019-09-04T06:55:00	0.2103	11.039	191.7	0.501691447	0.600260950	0.008764420	0.090420909	0.027868602
2019-09-04T07:00:00	0.2124	11.055	179.4	0.508922308	0.610293163	0.008996318	0.092813356	0.028605978
2019-09-04T07:05:00	0.2122	11.070	179.5	0.507924681	0.608906532	0.008964144	0.092481420	0.028503672
2019-09-04T07:10:00	0.2114	11.091	179.6	0.505212687	0.605141111	0.008876971	0.091582073	0.028226484
2019-09-04T07:15:00	0.2130	11.111	179.7	0.510724797	0.612800530	0.009054596	0.093414596	0.028791286
2019-09-04T07:20:00	0.2124	11.134	192.2	0.508700194	0.609984371	0.008989150	0.092739401	0.028583184
2019-09-04T07:25:00	0.2122	11.160	179.9	0.508045136	0.609073914	0.008968026	0.092521467	0.028516015
2019-09-04T07:30:00	0.2133	11.186	180.0	0.511841931	0.614355846	0.009090809	0.093788203	0.028906435
2019-09-04T07:35:00	0.2129	11.215	180.1	0.510502800	0.612491578	0.009047408	0.093340442	0.028768431
2019-09-04T07:40:00	0.2141	11.249	180.3	0.514638848	0.618254241	0.009181792	0.094726857	0.029195737
2019-09-04T07:45:00	0.2130	11.284	180.4	0.510905331	0.613051808	0.009060443	0.093474922	0.028809879
2019-09-04T07:50:00	0.2142	11.314	180.6	0.515040893	0.618815140	0.009194908	0.094862169	0.029237442
2019-09-04T07:55:00	0.2128	11.348	180.7	0.510280789	0.612182645	0.009040223	0.093266312	0.028745583
2019-09-04T08:00:00	0.2120	11.390	180.9	0.507227981	0.607938645	0.008941709	0.092249963	0.028432334
2019-09-04T08:05:00	0.2131	11.430	181.1	0.511025682	0.613219334	0.009064342	0.093515149	0.028822277
2019-09-04T08:10:00	0.2126	11.468	181.3	0.509343761	0.610879194	0.009009928	0.092953762	0.028649252
2019-09-04T08:15:00	0.2133	11.511	181.5	0.511770413	0.614256245	0.009088489	0.093764263	0.028899056
2019-09-04T08:20:00	0.2124	11.554	181.7	0.508718934	0.610010422	0.008989754	0.092745640	0.028585107
2019-09-04T08:25:00	0.2129	11.597	194.5	0.510461346	0.612433891	0.009046066	0.093326598	0.028764164
2019-09-04T08:30:00	0.2104	11.638	194.6	0.501921404	0.600579347	0.008771749	0.090496514	0.027891904
2019-09-04T08:35:00	0.2110	11.684	194.9	0.504010322	0.603473605	0.008838459	0.091184750	0.028104026
2019-09-04T08:40:00	0.2125	11.733	195.2	0.509181882	0.610654083	0.009004699	0.092899820	0.028632627
2019-09-04T08:45:00	0.2119	11.782	195.4	0.507156366	0.607839177	0.008939404	0.092226187	0.028425007
2019-09-04T08:50:00	0.2142	11.830	195.6	0.515059598	0.618841238	0.009195518	0.094868467	0.029239383
2019-09-04T08:55:00	0.2115	11.908	196.0	0.505502678	0.605543462	0.008886272	0.091678030	0.028256059
2019-09-04T09:00:00	0.2122	11.966	196.3	0.507932054	0.608916777	0.008964381	0.092483871	0.028504427
2019-09-04T09:05:00	0.2121	12.010	183.8	0.507619526	0.608482549	0.008954314	0.092380006	0.028472415
2019-09-04T09:10:00	0.2117	12.066	196.8	0.506278741	0.606620549	0.008911187	0.091935073	0.028335282
2019-09-04T09:15:00	0.2140	12.121	184.3	0.514183996	0.617619830	0.009166965	0.094573889	0.029148591
2019-09-04T09:20:00	0.2123	12.163	184.5	0.508395109	0.609560293	0.008979308	0.092637869	0.028551891
2019-09-04T09:25:00	0.2140	12.218	184.8	0.514244115	0.617703672	0.009168924	0.094594100	0.029154820
2019-09-04T09:30:00	0.2122	12.266	185.0	0.508112735	0.609167853	0.008970204	0.092543945	0.028522943
2019-09-04T09:35:00	0.2130	12.315	185.2	0.510882610	0.613020182	0.009059707	0.093467329	0.028807538
2019-09-04T09:40:00	0.2140	12.362	185.4	0.514334290	0.617829437	0.009171863	0.094624419	0.029164165
2019-09-04T09:45:00	0.2129	12.410	185.7	0.510600442	0.612627460	0.009050569	0.093373054	0.028778482
2019-09-04T09:50:00	0.2121	12.461	185.9	0.507890569	0.608859133	0.008963045	0.092470081	0.028500177
2019-09-04T09:55:00	0.2128	12.524	186.2	0.509975844	0.611758374	0.009030358	0.093164539	0.028714216
2019-09-04T10:00:00	0.2121	12.580	186.4	0.507608154	0.608466750	0.008953948	0.092376228	0.028471251
2019-09-04T10:05:00	0.2129	12.628	199.5	0.510626926	0.612664319	0.009051427	0.093381900	0.028781209
2019-09-04T10:10:00	0.2123	12.687	199.8	0.508508331	0.609717666	0.008982960	0.092675543	0.028563502
2019-09-04T10:15:00	0.2098	12.746	200.1	0.499869328	0.597739554	0.008706460	0.089822947	0.027684305
2019-09-04T10:20:00	0.2110	12.804	200.4	0.503924186	0.603354192	0.008835703	0.091156320	0.028095263
2019-09-04T10:25:00	0.2110	12.861	200.7	0.503860273	0.603265591	0.008833659	0.091135227	0.028088762
2019-09-04T10:30:00	0.2116	12.919	201.1	0.505853998	0.606030993	0.008897547	0.091794347	0.028291909
2019-09-04T10:35:00	0.2105	12.981	201.4	0.502359969	0.601186700	0.008785733	0.090640792	0.027936372
2019-09-04T10:40:00	0.2112	13.034	201.7	0.504697539	0.604426533	0.008860460	0.091411736	0.028173985
2019-09-04T10:45:00	0.2101	13.091	202.0	0.500859005	0.599108709	0.008737917	0.090147482	0.027784330
2019-09-04T10:50:00	0.2083	13.144	189.2	0.494609218	0.590475736	0.008540216	0.088107830	0.027155689
2019-09-04T10:55:00	0.2103	13.193	202.5	0.501417696	0.599881970	0.008755700	0.090330946	0.027840875
2019-09-04T11:00:00	0.2094	13.236	189.7	0.498606320	0.595993407	0.008666398	0.089409628	0.027556916
2019-09-04T11:05:00	0.2087	13.269	202.9	0.496136456	0.592582448	0.008588319	0.088604108	0.027308646
2019-09-04T11:10:00	0.2090	13.307	203.1	0.497103703	0.593917663	0.008618854	0.088919133	0.027405740
2019-09-04T11:15:00	0.2093	13.356	190.3	0.498070676	0.595253249	0.008649435	0.089234625	0.027502978
2019-09-04T11:20:00	0.2093	13.377	203.4	0.498006653	0.595164797	0.008647408	0.089213719	0.027496535
2019-09-04T11:25:00	0.2099	13.402	203.7	0.500347206	0.598400569	0.008721643	0.089979580	0.027732580
2019-09-04T11:30:00	0.2093	13.439	190.7	0.498222224	0.595462637	0.008654232	0.089284121	0.027518233
2019-09-04T11:35:00	0.2094	13.475	204.0	0.498501797	0.595848958	0.008663086	0.089375465	0.027546386
2019-09-04T11:40:00	0.2087	13.511	191.1	0.496031858	0.592438103	0.008585021	0.088570074	0.027298157
2019-09-04T11:45:00	0.2076	13.553	191.3	0.492183549	0.587133551	0.008464090	0.087322455	0.026913629
2019-09-04T11:50:00	0.2063	13.581	204.6	0.487641603	0.580888154	0.008322459	0.085861275	0.026463279
2019-09-04T11:55:00	0.2044	13.606	191.5	0.481367455	0.572288036	0.008128763	0.083862949	0.025847375
2019-09-04T12:00:00	0.2052	13.625	204.9	0.484064541	0.575981139	0.008211751	0.084719117	0.026111255
2019-09-04T12:05:00	0.2056	13.650	205.0	0.485380149	0.577784701	0.008252383	0.085138310	0.026240454
2019-09-04T12:10:00	0.2046	13.663	191.9	0.481865030	0.572968924	0.008144042	0.084020576	0.025895957
2019-09-04T12:15:00	0.2037	13.676	192.0	0.478691863	0.568630100	0.008046849	0.083017857	0.025586910
2019-09-04T12:20:00	0.2028	13.694	192.1	0.475861612	0.564766933	0.007960647	0.082128525	0.025312809
2019-09-04T12:25:00	0.2004	13.714	192.2	0.467485820	0.553371687	0.007708228	0.079524365	0.024510182
2019-09-04T12:30:00	0.2017	13.720	192.3	0.471925822	0.559405354	0.007841535	0.080899672	0.024934064
2019-09-04T12:35:00	0.2016	13.745	205.7	0.471515003	0.558846420	0.007829153	0.080771930	0.024894693
2019-09-04T12:40:00	0.2026	13.756	192.5	0.474911961	0.563472130	0.007931826	0.081831182	0.025221165
2019-09-04T12:45:00	0.2020	13.769	192.6	0.472770995	0.560555662	0.007867038	0.081162785	0.025015158
2019-09-04T12:50:00	0.2012	13.780	192.7	0.470282244	0.557170015	0.007792057	0.080389212	0.024776736
2019-09-04T12:55:00	0.2023	13.793	206.2	0.474026521	0.562265523	0.007905000	0.081554424	0.025135866
2019-09-04T13:00:00	0.2010	13.807	192.9	0.469460155	0.556052743	0.007767366	0.080134486	0.024698227
2019-09-04T13:05:00	0.2010	13.820	193.0	0.469395589	0.555965017	0.007765429	0.080114498	0.024692066
2019-09-04T13:10:00	0.2014	13.839	193.1	0.470716911	0.557760973	0.007805127	0.080524055	0.024818296
2019-09-04T13:15:00	0.2012	13.847	193.2	0.470305945	0.557202234	0.007792769	0.080396561	0.024779001
2019-09-04T13:20:00	0.2015	13.873	206.7	0.471280585	0.558527547	0.007822092	0.080699085	0.024872242
2019-09-04T13:25:00	0.2015	13.891	193.4	0.471216054	0.558439775	0.007820149	0.080679037	0.024866063
2019-09-04T13:30:00	0.2004	13.900	206.8	0.467339450	0.553173046	0.007703852	0.079479224	0.024496269
2019-09-04T13:35:00	0.2007	13.918	207.0	0.468314947	0.554497227	0.007733036	0.079780307	0.024589065
2019-09-04T13:40:00	0.2008	13.937	193.7	0.468943597	0.555350983	0.007751872	0.079974635	0.024648959
2019-09-04T13:45:00	0.1990	13.934	207.2	0.462634629	0.546797123	0.007563862	0.078034974	0.024051137
2019-09-04T13:50:00	0.1984	13.966	207.3	0.460485853	0.543890958	0.007500347	0.077379695	0.023849173
2019-09-04T13:55:00	0.1970	13.974	207.3	0.455553142	0.537233405	0.007355536	0.075885713	0.023388714
2019-09-04T14:00:00	0.1968	13.977	207.3	0.454792295	0.536208220	0.007333323	0.075656546	0.023318082
2019-09-04T14:05:00	0.1983	13.987	207.4	0.459944145	0.543158888	0.007484376	0.077214927	0.023798390
2019-09-04T14:10:00	0.1953	13.993	207.5	0.449786265	0.529474356	0.007187994	0.074157208	0.022855972
2019-09-04T14:15:00	0.1961	14.006	207.6	0.452508719	0.533134016	0.007266852	0.074970776	0.023106721
2019-09-04T14:20:00	0.1955	14.024	207.7	0.450353456	0.530236321	0.007204388	0.074326346	0.022908102
2019-09-04T14:25:00	0.1944	14.028	207.8	0.446452710	0.525001174	0.007092008	0.073166941	0.022550762
2019-09-04T14:30:00	0.1954	14.029	207.8	0.449875053	0.529593617	0.007190559	0.074183672	0.022864128
2019-09-04T14:35:00	0.1953	14.032	207.9	0.449810110	0.529506385	0.007188683	0.074164315	0.022858162
2019-09-04T14:40:00	0.1947	14.034	207.8	0.447653111	0.526610942	0.007126499	0.073522781	0.022660435
2019-09-04T14:45:00	0.1960	14.032	207.9	0.452119352	0.532610251	0.007255548	0.074854152	0.023070777
2019-09-04T14:50:00	0.1959	14.037	208.0	0.451706108	0.532054498	0.007243560	0.074730474	0.023032658
2019-09-04T14:55:00	0.1937	14.036	207.9	0.443968280	0.521673089	0.007020882	0.072433150	0.022324600
2019-09-04T15:00:00	0.1940	14.041	208.1	0.445299635	0.523455938	0.007058954	0.072825924	0.022445657
2019-09-04T15:05:00	0.1932	14.044	208.0	0.442441143	0.519629778	0.006977337	0.071983896	0.022186136
2019-09-04T15:10:00	0.1953	14.047	208.1	0.449704068	0.529363953	0.007185620	0.074132712	0.022848422
2019-09-04T15:15:00	0.1945	14.041	208.1	0.446849335	0.525532933	0.007103395	0.073284421	0.022586970
2019-09-04T15:20:00	0.1927	14.041	208.1	0.440629085	0.517033523	0.006923507	0.071428542	0.022014970
2019-09-04T15:25:00	0.1938	14.039	208.1	0.444276266	0.522085396	0.007029681	0.072523919	0.022352576
2019-09-04T15:30:00	0.1946	14.047	208.1	0.447352034	0.526207083	0.007117841	0.073433452	0.022632903
2019-09-04T15:35:00	0.1942	14.055	208.2	0.445891459	0.524248911	0.007075910	0.073000856	0.022499573
2019-09-04T15:40:00	0.1957	14.038	208.0	0.451056982	0.531181790	0.007224749	0.074536403	0.022972843
2019-09-04T15:45:00	0.1948	14.043	208.0	0.447854656	0.526881331	0.007132299	0.073582610	0.022678875
2019-09-04T15:50:00	0.1937	14.042	208.1	0.443950998	0.521649955	0.007020389	0.072428059	0.022323031
2019-09-04T15:55:00	0.1937	14.040	208.1	0.444235100	0.522030282	0.007028504	0.072511784	0.022348836
2019-09-04T16:00:00	0.1938	14.039	208.0	0.444519178	0.522410640	0.007036624	0.072595549	0.022374653
2019-09-04T16:05:00	0.1934	14.030	208.1	0.442872068	0.520206171	0.006989611	0.072110527	0.022225165
2019-09-04T16:10:00	0.1926	14.024	208.0	0.440378076	0.516602159	0.006915103	0.071341843	0.021988249
2019-09-04T16:15:00	0.1915	14.018	208.0	0.437464759	0.511608474	0.006818022	0.070340280	0.021679557
2019-09-04T16:20:00	0.1916	14.009	208.1	0.437813845	0.512205588	0.006829611	0.070459835	0.021716405
2019-09-04T16:25:00	0.1919	14.003	208.1	0.438434805	0.513268584	0.006850254	0.070672807	0.021782046
2019-09-04T16:30:00	0.1909	13.998	208.0	0.435790478	0.508749342	0.006762610	0.069768598	0.021503360
2019-09-04T16:35:00	0.1898	13.985	208.0	0.432869138	0.503779368	0.006666585	0.068777931	0.021198026
2019-09-04T16:40:00	0.1897	13.970	207.9	0.432400660	0.502984576	0.006651264	0.068619868	0.021149310
2019-09-04T16:45:00	0.1893	13.964	194.5	0.431385983	0.501265233	0.006618155	0.068278282	0.021044029
2019-09-04T16:50:00	0.1878	13.956	208.0	0.427362230	0.494475283	0.006487848	0.066933930	0.020629687
2019-09-04T16:55:00	0.1898	13.945	207.9	0.432905323	0.503840784	0.006667769	0.068790149	0.021201792
2019-09-04T17:00:00	0.1891	13.930	207.8	0.430798618	0.500271266	0.006599035	0.068081023	0.020983232
2019-09-04T17:05:00	0.1899	13.916	207.7	0.433059822	0.504103048	0.006672827	0.068842331	0.021217875
2019-09-04T17:10:00	0.1893	13.905	207.8	0.431499522	0.501457479	0.006621855	0.068316452	0.021055794
2019-09-04T17:15:00	0.1903	13.892	207.7	0.434305055	0.506219269	0.006713679	0.069263788	0.021347772
2019-09-04T17:20:00	0.1903	13.877	207.7	0.434109634	0.505886874	0.006707258	0.069197543	0.021327355
2019-09-04T17:25:00	0.1900	13.861	194.2	0.433368778	0.504627701	0.006682949	0.068946752	0.021250059
2019-09-04T17:30:00	0.1888	13.846	207.6	0.430169907	0.499208398	0.006578606	0.067870265	0.020918275
2019-09-04T17:35:00	0.1879	13.831	207.5	0.427512351	0.494727799	0.006492681	0.066983793	0.020645056
2019-09-04T17:40:00	0.1887	13.813	207.4	0.429778065	0.498546523	0.006565893	0.067739112	0.020877852
2019-09-04T17:45:00	0.1878	13.795	207.3	0.427393638	0.494528109	0.006488859	0.066944360	0.020632902
2019-09-04T17:50:00	0.1878	13.778	207.2	0.427471149	0.494658486	0.006491354	0.066970105	0.020640837
2019-09-04T17:55:00	0.1885	13.758	193.7	0.429190126	0.497554217	0.006546847	0.067542615	0.020817290
2019-09-04T18:00:00	0.1875	13.741	193.7	0.426530983	0.493078186	0.006461125	0.066658237	0.020544716
2019-09-04T18:05:00	0.1888	13.723	207.0	0.430165017	0.499200135	0.006578447	0.067868627	0.020917770
2019-09-04T18:10:00	0.1902	13.702	206.9	0.433791057	0.505345227	0.006696798	0.069089632	0.021294095
2019-09-04T18:15:00	0.1886	13.684	193.4	0.429499805	0.498076765	0.006556875	0.067646071	0.020849176
2019-09-04T18:20:00	0.1892	13.665	193.4	0.431216666	0.500978608	0.006612640	0.068221383	0.021026493
2019-09-04T18:25:00	0.1898	13.644	193.3	0.432931744	0.503885628	0.006668634	0.068799070	0.021204542
2019-09-04T18:30:00	0.1905	13.626	206.6	0.434645049	0.506797827	0.006724859	0.069379135	0.021383323
2019-09-04T18:35:00	0.1919	13.606	206.5	0.438533266	0.513437234	0.006853531	0.070706613	0.021792465
2019-09-04T18:40:00	0.1899	13.586	206.3	0.433163483	0.504279050	0.006676222	0.068877355	0.021228670
2019-09-04T18:45:00	0.1903	13.566	192.9	0.434058837	0.505800490	0.006705589	0.069180330	0.021322049
2019-09-04T18:50:00	0.1906	13.544	192.9	0.434953709	0.507323344	0.006735019	0.069483953	0.021415629
2019-09-04T18:55:00	0.1919	13.525	192.8	0.438569329	0.513499012	0.006854731	0.070718998	0.021796282
2019-09-04T19:00:00	0.1932	13.505	192.7	0.442491510	0.519697140	0.006978771	0.071998691	0.022190696
2019-09-04T19:05:00	0.1929	13.490	205.9	0.441192878	0.517960960	0.006941841	0.071617694	0.022073269
2019-09-04T19:10:00	0.1945	13.477	205.8	0.446878339	0.525571823	0.007104228	0.073293015	0.022589619
2019-09-04T19:15:00	0.1939	13.461	192.5	0.444883335	0.522898310	0.007047038	0.072702996	0.022407770
2019-09-04T19:20:00	0.1919	13.444	192.5	0.438410474	0.513226911	0.006849444	0.070664455	0.021779471
2019-09-04T19:25:00	0.1922	13.428	192.4	0.439303017	0.514756648	0.006879181	0.070971241	0.021874026
2019-09-04T19:30:00	0.1935	13.412	192.3	0.443434182	0.520958257	0.007005638	0.072275874	0.022276126
2019-09-04T19:35:00	0.1964	13.396	192.3	0.453645003	0.534663194	0.007299891	0.075311626	0.023211774
2019-09-04T19:40:00	0.1943	13.376	192.2	0.446075484	0.524495538	0.007081186	0.073055292	0.022516350
2019-09-04T19:45:00	0.1947	13.357	192.2	0.447569755	0.526499124	0.007124102	0.073498045	0.022652811
2019-09-04T19:50:00	0.1934	13.341	205.3	0.443131261	0.520552931	0.006996999	0.072186746	0.022248656
2019-09-04T19:55:00	0.1922	13.323	205.3	0.439221194	0.514616318	0.006876452	0.070943083	0.021865347
2019-09-04T20:00:00	0.1952	13.315	192.0	0.449260794	0.528768663	0.007172822	0.074000678	0.022807728
2019-09-04T20:05:00	0.1938	13.295	205.1	0.444475444	0.522352081	0.007035373	0.072582650	0.022370678
2019-09-04T20:10:00	0.1946	13.279	191.8	0.447365980	0.526225789	0.007118242	0.073437589	0.022634178
2019-09-04T20:15:00	0.1936	13.264	191.8	0.443625698	0.521214555	0.007011102	0.072332250	0.022293502
2019-09-04T20:20:00	0.1941	13.246	191.7	0.445470094	0.523684304	0.007063835	0.072876287	0.022461179
2019-09-04T20:25:00	0.1925	13.227	204.8	0.440226252	0.516341333	0.006910023	0.071289433	0.021972096
2019-09-04T20:30:00	0.1939	13.214	191.6	0.444620600	0.522546452	0.007039524	0.072625467	0.022383874
2019-09-04T20:35:00	0.1928	13.199	191.4	0.440923205	0.517539196	0.006933362	0.071530215	0.022046307
2019-09-04T20:40:00	0.1939	13.179	204.5	0.444818295	0.522811204	0.007045178	0.072683800	0.022401853
2019-09-04T20:45:00	0.1941	13.163	191.3	0.445615206	0.523878731	0.007067992	0.072919175	0.022474398
2019-09-04T20:50:00	0.1953	13.143	191.2	0.449550684	0.529157950	0.007181190	0.074087012	0.022834337
2019-09-04T20:55:00	0.1945	13.123	204.3	0.446859609	0.525546709	0.007103690	0.073287465	0.022587909
2019-09-04T21:00:00	0.1931	13.105	191.0	0.442070824	0.519134567	0.006966797	0.071875161	0.022152623
2019-09-04T21:05:00	0.1933	13.079	204.0	0.442519087	0.519734023	0.006979556	0.072006792	0.022193193
2019-09-04T21:10:00	0.1930	13.059	190.8	0.441569904	0.518464881	0.006952553	0.071728206	0.022107330
2019-09-04T21:15:00	0.1936	13.039	203.8	0.443764641	0.521400515	0.007015068	0.072373165	0.022306112
2019-09-04T21:20:00	0.1939	13.022	203.7	0.444910892	0.522935219	0.007047827	0.072711130	0.022410277
2019-09-04T21:25:00	0.1921	12.999	190.5	0.438975700	0.514195399	0.006868267	0.070858641	0.021839321
2019-09-04T21:30:00	0.1932	12.978	190.3	0.442315004	0.519461086	0.006973746	0.071946849	0.022174718
2019-09-04T21:35:00	0.1931	12.959	203.3	0.442064571	0.519126207	0.006966619	0.071873326	0.022152057
2019-09-04T21:40:00	0.1943	12.945	190.2	0.446353162	0.524867728	0.007089151	0.073137469	0.022541678
2019-09-04T21:45:00	0.1921	12.930	203.3	0.439011754	0.514257205	0.006869468	0.070871038	0.021843142
2019-09-04T21:50:00	0.1938	12.912	203.2	0.444456702	0.522326984	0.007034838	0.072577123	0.022368974
2019-09-04T21:55:00	0.1932	12.895	203.2	0.442460253	0.519655337	0.006977881	0.071989509	0.022187866
2019-09-04T22:00:00	0.1927	12.878	190.0	0.440601064	0.516985359	0.006922568	0.071418861	0.022011986
2019-09-04T22:05:00	0.1910	12.865	203.1	0.436180470	0.509414624	0.006775492	0.069901506	0.021544323
2019-09-04T22:10:00	0.1917	12.848	189.9	0.438015703	0.512551021	0.006836317	0.070529023	0.021737730
2019-09-04T22:15:00	0.1919	12.841	202.9	0.438489903	0.513362956	0.006852088	0.070691724	0.021787876
2019-09-04T22:20:00	0.1897	12.822	202.8	0.432427088	0.503029397	0.006652128	0.068628779	0.021152056
2019-09-04T22:25:00	0.1901	12.806	202.6	0.433721163	0.505226432	0.006694505	0.069065970	0.021286803
2019-09-04T22:30:00	0.1899	12.791	202.5	0.433105768	0.504181053	0.006674332	0.068857853	0.021222659
2019-09-04T22:35:00	0.1906	12.769	202.4	0.434944389	0.507307471	0.006734712	0.069480786	0.021414653
2019-09-04T22:40:00	0.1897	12.749	202.2	0.432420195	0.503017707	0.006651903	0.068626455	0.021151340
2019-09-04T22:45:00	0.1895	12.737	202.2	0.432077302	0.502436344	0.006640702	0.068510898	0.021115724
2019-09-04T22:50:00	0.1889	12.717	202.0	0.430368672	0.499544302	0.006585060	0.067936852	0.020938798
2019-09-04T22:55:00	0.1892	12.708	202.0	0.431118204	0.500811965	0.006609434	0.068188308	0.021016299
2019-09-04T23:00:00	0.1899	12.698	202.0	0.432959029	0.503931942	0.006669527	0.068808285	0.021207382
2019-09-04T23:05:00	0.1885	12.684	201.8	0.429338500	0.497804549	0.006551651	0.067592171	0.020832564
2019-09-04T23:10:00	0.1880	12.672	201.8	0.427900705	0.495381333	0.006505194	0.067112892	0.020684845
2019-09-04T23:15:00	0.1880	12.667	201.8	0.427830561	0.495263262	0.006502933	0.067089563	0.020677655
2019-09-04T23:20:00	0.1886	12.654	201.7	0.429401674	0.497911152	0.006553696	0.067613277	0.020839069
2019-09-04T23:25:00	0.1867	12.644	201.7	0.424402667	0.489509814	0.006393011	0.065955515	0.020328130
2019-09-04T23:30:00	0.1869	12.633	201.6	0.424880789	0.490310348	0.006408274	0.066112985	0.020376664
2019-09-04T23:35:00	0.1847	12.630	201.6	0.418767467	0.480122303	0.006214781	0.064116747	0.019761404
2019-09-04T23:40:00	0.1868	12.614	201.5	0.424740240	0.490074957	0.006403785	0.066066672	0.020362390
2019-09-04T23:45:00	0.1863	12.606	201.5	0.423298396	0.487663320	0.006357843	0.065592697	0.020216306
2019-09-04T23:50:00	0.1841	12.592	201.4	0.417179085	0.477492116	0.006165096	0.063604162	0.019603420
2019-09-04T23:55:00	0.1859	12.585	201.4	0.422059530	0.485595784	0.006318530	0.065187105	0.020091299
2019-09-05T00:00:00	0.1864	12.569	201.3	0.423636198	0.488227813	0.006368589	0.065703555	0.020250474
2019-09-05T00:05:00	0.1835	12.560	201.2	0.415589132	0.474866295	0.006115605	0.063093571	0.019446051
2019-09-05T00:10:00	0.1846	12.543	201.1	0.418548890	0.479759950	0.006207929	0.064046062	0.019739618
2019-09-05T00:15:00	0.1845	12.526	201.0	0.418203072	0.479186928	0.006197099	0.063934325	0.019705180
2019-09-05T00:20:00	0.1829	12.516	201.0	0.413997599	0.472244839	0.006066307	0.062584975	0.019289297
2019-09-05T00:25:00	0.1848	12.506	201.0	0.419162838	0.480778076	0.006227186	0.064244726	0.019800849
2019-09-05T00:30:00	0.1830	12.487	200.9	0.414132116	0.472466136	0.006070465	0.062627865	0.019302516
2019-09-05T00:35:00	0.1837	12.473	200.8	0.415992248	0.475531385	0.006128130	0.063222790	0.019485878
2019-09-05T00:40:00	0.1831	12.454	200.7	0.414542568	0.473141687	0.006083161	0.062758846	0.019342886
2019-09-05T00:45:00	0.1831	12.438	200.6	0.414471843	0.473025250	0.006080972	0.062736265	0.019335926
2019-09-05T00:50:00	0.1826	12.424	200.6	0.413020784	0.470639353	0.006036170	0.062274056	0.019193469
2019-09-05T00:55:00	0.1820	12.406	200.5	0.411291940	0.467804269	0.005983054	0.061726070	0.019024574
2019-09-05T01:00:00	0.1813	12.392	200.4	0.409561212	0.464974320	0.005930166	0.061180425	0.018856401
2019-09-05T01:05:00	0.1817	12.381	200.3	0.410597081	0.466667103	0.005961786	0.061506650	0.018956947
2019-09-05T01:10:00	0.1810	12.363	187.3	0.408588660	0.463387685	0.005900570	0.060875098	0.018762296
2019-09-05T01:15:00	0.1801	12.345	187.2	0.406022963	0.459214413	0.005822925	0.060074046	0.018515405
2019-09-05T01:20:00	0.1802	12.331	187.1	0.406506603	0.459999706	0.005837514	0.060224555	0.018561793
2019-09-05T01:25:00	0.1795	12.315	187.0	0.404492963	0.456734346	0.005776919	0.059599410	0.018369117
2019-09-05T01:30:00	0.1839	12.269	186.9	0.416593251	0.476523796	0.006146833	0.063415739	0.019545347
2019-09-05T01:35:00	0.1826	12.259	186.8	0.412936039	0.470500192	0.006033560	0.062247127	0.019185169
2019-09-05T01:40:00	0.1827	12.272	186.8	0.413417573	0.471291198	0.006048401	0.062400240	0.019232360
2019-09-05T01:45:00	0.1840	12.264	186.7	0.416932457	0.477084352	0.006157404	0.063524797	0.019578959
2019-09-05T01:50:00	0.1837	12.259	186.7	0.416035055	0.475602037	0.006129461	0.063236521	0.019490110
2019-09-05T01:55:00	0.1845	12.248	186.6	0.418168305	0.479129338	0.006196011	0.063923098	0.019701720
2019-09-05T02:00:00	0.1849	12.241	186.6	0.419473712	0.481294003	0.006236950	0.064345463	0.019831897
2019-09-05T02:05:00	0.1864	12.234	186.6	0.423524289	0.488040769	0.006365028	0.065666817	0.020239151
2019-09-05T02:10:00	0.1861	12.221	186.5	0.422630542	0.486548214	0.006336631	0.065373858	0.020148858
2019-09-05T02:15:00	0.1869	12.213	186.4	0.424755115	0.490099867	0.006404260	0.066071572	0.020363900
2019-09-05T02:20:00	0.1891	12.205	186.4	0.430979208	0.500576768	0.006604910	0.068141635	0.021001914
2019-09-05T02:25:00	0.1874	12.186	186.3	0.426258967	0.492621420	0.006452395	0.066568171	0.020516957
2019-09-05T02:30:00	0.1868	12.171	186.2	0.424544270	0.489746838	0.006397529	0.066002129	0.020342497
2019-09-05T02:35:00	0.1878	12.166	186.2	0.427213987	0.494225986	0.006483077	0.066884712	0.020614518
2019-09-05T02:40:00	0.1870	12.153	186.2	0.425226211	0.490889093	0.006419315	0.066226893	0.020411772
2019-09-05T02:45:00	0.1878	12.128	186.0	0.427347410	0.494450357	0.006487371	0.066929008	0.020628170
2019-09-05T02:50:00	0.1878	12.124	186.0	0.427277242	0.494332354	0.006485113	0.066905711	0.020620990
2019-09-05T02:55:00	0.1896	12.112	186.0	0.432127603	0.502521607	0.006642344	0.068527842	0.021120947
2019-09-05T03:00:00	0.1898	12.113	185.9	0.432876338	0.503791588	0.006666821	0.068780362	0.021198775
2019-09-05T03:05:00	0.1874	12.096	185.9	0.426245129	0.492598189	0.006451951	0.066563591	0.020515545
2019-09-05T03:10:00	0.1860	12.090	185.8	0.422335171	0.486055432	0.006327264	0.065277214	0.020119071
2019-09-05T03:15:00	0.1855	12.075	185.7	0.421166003	0.484107217	0.006290267	0.064895524	0.020001431
2019-09-05T03:20:00	0.1862	12.063	185.7	0.423018038	0.487195060	0.006348933	0.065500776	0.020187975
2019-09-05T03:25:00	0.1827	12.054	185.6	0.413311927	0.471117599	0.006045143	0.062366628	0.019222001
2019-09-05T03:30:00	0.1839	12.050	185.6	0.416551489	0.476454804	0.006145532	0.063402320	0.019541211
2019-09-05T03:35:00	0.1849	12.034	185.5	0.419509479	0.481353379	0.006238074	0.064357059	0.019835471
2019-09-05T03:40:00	0.1846	12.028	185.5	0.418613513	0.479867066	0.006209954	0.064066955	0.019746058
2019-09-05T03:45:00	0.1852	12.005	185.4	0.420193538	0.482489653	0.006259595	0.064579086	0.019903902
2019-09-05T03:50:00	0.1851	11.996	185.4	0.419848071	0.481915645	0.006248721	0.064466899	0.019869324
2019-09-05T03:55:00	0.1846	11.985	185.3	0.418677104	0.479972484	0.006211948	0.064087519	0.019752396
2019-09-05T04:00:00	0.1838	11.972	185.2	0.416403253	0.476209953	0.006140916	0.063354703	0.019526535
2019-09-05T04:05:00	0.1837	11.965	185.2	0.415973982	0.475501239	0.006127562	0.063216931	0.019484072
2019-09-05T04:10:00	0.1847	11.958	185.2	0.418850190	0.480259473	0.006217375	0.064143511	0.019769653
2019-09-05T04:15:00	0.1832	11.948	185.1	0.414839246	0.473630269	0.006092347	0.062853623	0.019372097
2019-09-05T04:20:00	0.1832	11.930	185.0	0.414685476	0.473377005	0.006087585	0.062804489	0.019356953
2019-09-05T04:25:00	0.1842	11.918	184.9	0.417563991	0.478128839	0.006177114	0.063728145	0.019641633
2019-09-05T04:30:00	0.1869	11.902	184.8	0.424830018	0.490225310	0.006406653	0.066096253	0.020371507
2019-09-05T04:35:00	0.1871	11.890	184.8	0.425499578	0.491347346	0.006428061	0.066317124	0.020439582
2019-09-05T04:40:00	0.1843	11.875	184.7	0.417654292	0.478278277	0.006179935	0.063757254	0.019650605
2019-09-05T04:45:00	0.1862	11.875	184.7	0.422999696	0.487164432	0.006348351	0.065494765	0.020186123
2019-09-05T04:50:00	0.1875	11.869	184.6	0.426411361	0.492877293	0.006457285	0.066618620	0.020532506
2019-09-05T04:55:00	0.1865	11.861	184.6	0.423791447	0.488487352	0.006373531	0.065754543	0.020266189
2019-09-05T05:00:00	0.1856	11.860	184.5	0.421442076	0.484566904	0.006298991	0.064985529	0.020029171
2019-09-05T05:05:00	0.1846	11.849	184.5	0.418538915	0.479743416	0.006207617	0.064042837	0.019738624
2019-09-05T05:10:00	0.1838	11.838	184.5	0.416457505	0.476299557	0.006142605	0.063372127	0.019531905
2019-09-05T05:15:00	0.1852	11.841	184.4	0.420157942	0.482430493	0.006258474	0.064567521	0.019900337
2019-09-05T05:20:00	0.1868	11.840	196.9	0.424672725	0.489961902	0.006401629	0.066044431	0.020355535
2019-09-05T05:25:00	0.1859	11.834	184.1	0.422050011	0.485579915	0.006318228	0.065183994	0.020090340
2019-09-05T05:30:00	0.1870	11.831	183.9	0.425189577	0.490827697	0.006418144	0.066214806	0.020408046
2019-09-05T05:35:00	0.1872	11.831	197.0	0.425584969	0.491490532	0.006430795	0.066345324	0.020448273
2019-09-05T05:40:00	0.1865	11.841	184.3	0.423786973	0.488479871	0.006373388	0.065753073	0.020265736
2019-09-05T05:45:00	0.1868	11.850	196.9	0.424731172	0.490059771	0.006403496	0.066063684	0.020361469
2019-09-05T05:50:00	0.1878	11.858	197.1	0.427318171	0.494401183	0.006486430	0.066919300	0.020625178
2019-09-05T05:55:00	0.1866	11.872	184.3	0.424151235	0.489089088	0.006384993	0.065872798	0.020302636
2019-09-05T06:00:00	0.1881	11.887	197.0	0.428107833	0.495730066	0.006511874	0.067181808	0.020706086
2019-09-05T06:05:00	0.1872	11.906	184.7	0.425764675	0.491791934	0.006436550	0.066404697	0.020466572
2019-09-05T06:10:00	0.1865	11.921	184.8	0.423692538	0.488321993	0.006370382	0.065722056	0.020256176
2019-09-05T06:15:00	0.1863	11.939	184.8	0.423265199	0.487607863	0.006356788	0.065581808	0.020212950
2019-09-05T06:20:00	0.1869	11.961	185.0	0.424758159	0.490104964	0.006404357	0.066072575	0.020364209
2019-09-05T06:25:00	0.1855	11.978	185.1	0.421036711	0.483892007	0.006286184	0.064853398	0.019988447
2019-09-05T06:30:00	0.1872	12.001	185.2	0.425823083	0.491889915	0.006438421	0.066424001	0.020472522
2019-09-05T06:35:00	0.1870	12.012	185.2	0.425122204	0.490714797	0.006415990	0.066192583	0.020401197
2019-09-05T06:40:00	0.1850	12.035	185.3	0.419752255	0.481756500	0.006245707	0.064435804	0.019859741
2019-09-05T06:45:00	0.1867	12.053	185.4	0.424268165	0.489284727	0.006388721	0.065911258	0.020314490
2019-09-05T06:50:00	0.1860	12.071	185.5	0.422468713	0.486278198	0.006331498	0.065320898	0.020132535
2019-09-05T06:55:00	0.1850	12.088	185.5	0.419567396	0.481449533	0.006239894	0.064375839	0.019841259
2019-09-05T07:00:00	0.1871	12.104	185.6	0.425454724	0.491272141	0.006426626	0.066302314	0.020435017
2019-09-05T07:05:00	0.1868	12.123	185.7	0.424479480	0.489638382	0.006395462	0.065980798	0.020335923
2019-09-05T07:10:00	0.1879	12.141	185.8	0.427614378	0.494899452	0.006495967	0.067017695	0.020655504
2019-09-05T07:15:00	0.1856	12.155	185.6	0.421428633	0.484544515	0.006298566	0.064981144	0.020027820
2019-09-05T07:20:00	0.1881	12.172	185.6	0.428130301	0.495767903	0.006512599	0.067189286	0.020708391
2019-09-05T07:25:00	0.1887	12.191	186.0	0.429892178	0.498739233	0.006569594	0.067777291	0.020889619
2019-09-05T07:30:00	0.1885	12.208	198.7	0.429193037	0.497559128	0.006546941	0.067543587	0.020817590
2019-09-05T07:35:00	0.1895	12.225	199.0	0.432046014	0.502383313	0.006639681	0.068500360	0.021112476
2019-09-05T07:40:00	0.1890	12.242	198.9	0.430528329	0.499814194	0.006590247	0.067990367	0.020955291
2019-09-05T07:45:00	0.1873	12.261	198.7	0.425998295	0.492183893	0.006444036	0.066481930	0.020490376
2019-09-05T07:50:00	0.1876	12.279	199.0	0.426667377	0.493307295	0.006465505	0.066703426	0.020558644
2019-09-05T07:55:00	0.1866	12.296	198.9	0.424047874	0.488916183	0.006381699	0.065838812	0.020292161
2019-09-05T08:00:00	0.1872	12.316	198.6	0.425814145	0.491874921	0.006438134	0.066421047	0.020471612
2019-09-05T08:05:00	0.1864	12.332	186.7	0.423467694	0.487946191	0.006363227	0.065648242	0.020233426
2019-09-05T08:10:00	0.1868	12.349	199.6	0.424686296	0.489984626	0.006402063	0.066048901	0.020356913
2019-09-05T08:15:00	0.1870	12.365	186.7	0.425081810	0.490647113	0.006414698	0.066179260	0.020397091
2019-09-05T08:20:00	0.1877	12.380	199.6	0.427120774	0.494069264	0.006480079	0.066853777	0.020604983
2019-09-05T08:25:00	0.1867	12.398	186.8	0.424227750	0.489217103	0.006387432	0.065897963	0.020310392
2019-09-05T08:30:00	0.1873	12.413	199.7	0.425993826	0.492176395	0.006443893	0.066480452	0.020489921
2019-09-05T08:35:00	0.1867	12.427	187.1	0.424196281	0.489164451	0.006386429	0.065887613	0.020307202
2019-09-05T08:40:00	0.1870	12.450	199.8	0.425140243	0.490745025	0.006416566	0.066198532	0.020403031
2019-09-05T08:45:00	0.1867	12.478	200.4	0.424439070	0.489570743	0.006394172	0.065967497	0.020331823
2019-09-05T08:50:00	0.1880	12.515	200.4	0.427847733	0.495292166	0.006503487	0.067095274	0.020679415
2019-09-05T08:55:00	0.1860	12.542	200.8	0.422486781	0.486308341	0.006332071	0.065326809	0.020134357
2019-09-05T09:00:00	0.1878	12.575	200.8	0.427268902	0.494318327	0.006484844	0.066902942	0.020620136
2019-09-05T09:05:00	0.1882	12.602	200.6	0.428484675	0.496364845	0.006524039	0.067307303	0.020744764
2019-09-05T09:10:00	0.1873	12.625	201.2	0.425868083	0.491965409	0.006439863	0.066438876	0.020477107
2019-09-05T09:15:00	0.1878	12.643	201.2	0.427358665	0.494469286	0.006487733	0.066932746	0.020629322
2019-09-05T09:20:00	0.1895	12.653	201.3	0.432126614	0.502519930	0.006642312	0.068527509	0.021120844
2019-09-05T09:25:00	0.1889	12.670	201.3	0.430335773	0.499488696	0.006583992	0.067925828	0.020935400
2019-09-05T09:30:00	0.1894	12.688	201.4	0.431822312	0.502004230	0.006632380	0.068425042	0.021089263
2019-09-05T09:35:00	0.1900	12.706	201.6	0.433307516	0.504523649	0.006680941	0.068926039	0.021243675
2019-09-05T09:40:00	0.1904	12.730	201.7	0.434518852	0.506583044	0.006720708	0.069336308	0.021370123
2019-09-05T09:45:00	0.1897	12.742	201.5	0.432457720	0.503081348	0.006653129	0.068639108	0.021155240
2019-09-05T09:50:00	0.1905	12.762	201.9	0.434760124	0.506993720	0.006728646	0.069418202	0.021395364
2019-09-05T09:55:00	0.1900	12.777	202.0	0.433244924	0.504417347	0.006678890	0.068904880	0.021237153
2019-09-05T10:00:00	0.1871	12.809	201.8	0.425436844	0.491242164	0.006426054	0.066296410	0.020433198
2019-09-05T10:05:00	0.1878	12.864	202.1	0.427325241	0.494413072	0.006486657	0.066921647	0.020625902
2019-09-05T10:10:00	0.1866	12.924	202.4	0.424007889	0.488849302	0.006380425	0.065825667	0.020288110
2019-09-05T10:15:00	0.1858	12.990	202.8	0.421782878	0.485134660	0.006309771	0.065096741	0.020063448
2019-09-05T10:20:00	0.1867	13.006	202.9	0.424224146	0.489211074	0.006387318	0.065896778	0.020310027
2019-09-05T10:25:00	0.1852	13.025	202.8	0.420075753	0.482293912	0.006255886	0.064540823	0.019892109
2019-09-05T10:30:00	0.1850	13.054	190.1	0.419771661	0.481788732	0.006246317	0.064442101	0.019861682
2019-09-05T10:35:00	0.1831	13.075	203.4	0.414508472	0.473085551	0.006082105	0.062747959	0.019339530
2019-09-05T10:40:00	0.1816	13.103	203.5	0.410334895	0.466238368	0.005953773	0.061423980	0.018931467
2019-09-05T10:45:00	0.1805	13.128	203.7	0.407259460	0.461223405	0.005860267	0.060459299	0.018634143
2019-09-05T10:50:00	0.1803	13.150	203.6	0.406675646	0.460274334	0.005842618	0.060277215	0.018578023
2019-09-05T10:55:00	0.1786	13.191	203.8	0.401925126	0.452586368	0.005700202	0.058807929	0.018125175
2019-09-05T11:00:00	0.1778	13.219	191.0	0.399668981	0.448956733	0.005633307	0.058117791	0.017912468
2019-09-05T11:05:00	0.1789	13.214	191.0	0.402700495	0.453836969	0.005723301	0.059046246	0.018198626
2019-09-05T11:10:00	0.1790	13.230	190.8	0.402949065	0.454238237	0.005730719	0.059122770	0.018222212
2019-09-05T11:15:00	0.1774	13.262	203.9	0.398744689	0.447473759	0.005606040	0.057836476	0.017825764
2019-09-05T11:20:00	0.1770	13.287	191.2	0.397599961	0.445640332	0.005572379	0.057489212	0.017718733
2019-09-05T11:25:00	0.1766	13.303	204.4	0.396454384	0.443809116	0.005538817	0.057142953	0.017612013
2019-09-05T11:30:00	0.1765	13.310	191.3	0.396145708	0.443316303	0.005529794	0.057049869	0.017583324
2019-09-05T11:35:00	0.1753	13.330	191.3	0.392762368	0.437931646	0.005431480	0.056035582	0.017270711
2019-09-05T11:40:00	0.1744	13.363	191.4	0.390212543	0.433894057	0.005358088	0.055278404	0.017037341
2019-09-05T11:45:00	0.1722	13.426	204.9	0.384004590	0.424137401	0.005181906	0.053460764	0.016477127
2019-09-05T11:50:00	0.1713	13.443	205.0	0.381439980	0.420137091	0.005110152	0.052720495	0.016248968
2019-09-05T11:55:00	0.1719	13.466	192.0	0.383100561	0.422725266	0.005156544	0.053199111	0.016396483
2019-09-05T12:00:00	0.1748	13.484	205.2	0.391214648	0.435478767	0.005386860	0.055575243	0.017128830
2019-09-05T12:05:00	0.1731	13.510	205.4	0.386697172	0.428356390	0.005257887	0.054244648	0.016718727
2019-09-05T12:10:00	0.1732	13.527	205.5	0.386948340	0.428750940	0.005265008	0.054318119	0.016741372
2019-09-05T12:15:00	0.1721	13.535	192.2	0.383825963	0.423858204	0.005176888	0.053409003	0.016461173
2019-09-05T12:20:00	0.1734	13.539	192.3	0.387450552	0.429540356	0.005279265	0.054465205	0.016786705
2019-09-05T12:25:00	0.1723	13.542	205.4	0.384329213	0.424645014	0.005191031	0.053554907	0.016506143
2019-09-05T12:30:00	0.1734	13.546	192.2	0.387391147	0.429446944	0.005277578	0.054447794	0.016781339
2019-09-05T12:35:00	0.1730	13.543	205.5	0.386237899	0.427635375	0.005244880	0.054110456	0.016677368
2019-09-05T12:40:00	0.1731	13.554	192.5	0.386489144	0.428029734	0.005251993	0.054183841	0.016699986
2019-09-05T12:45:00	0.1711	13.533	192.6	0.380829947	0.419188160	0.005093172	0.052545321	0.016194978
2019-09-05T12:50:00	0.1720	13.539	192.5	0.383617539	0.423532540	0.005171038	0.053348646	0.016442571
2019-09-05T12:55:00	0.1713	13.577	209.3	0.381616081	0.420411210	0.005115060	0.052771128	0.016264574
2019-09-05T13:00:00	0.1711	13.565	192.7	0.381022440	0.419487482	0.005098527	0.052600558	0.016212003
2019-09-05T13:05:00	0.1716	13.574	205.9	0.382401803	0.421635280	0.005136992	0.052997397	0.016334313
2019-09-05T13:10:00	0.1711	13.575	192.8	0.380962781	0.419394704	0.005096867	0.052583435	0.016206725
2019-09-05T13:15:00	0.1713	13.573	192.7	0.381496810	0.420225543	0.005111735	0.052736831	0.016254004
2019-09-05T13:20:00	0.1704	13.570	206.0	0.378927904	0.416235869	0.005040449	0.052001380	0.016027330
2019-09-05T13:25:00	0.1708	13.581	192.8	0.380027071	0.417940775	0.005070877	0.052315303	0.016124084
2019-09-05T13:30:00	0.1712	13.597	206.1	0.381125430	0.419647671	0.005101393	0.052630127	0.016221116
2019-09-05T13:35:00	0.1686	13.597	205.9	0.374030113	0.408678326	0.004906193	0.050616288	0.015600432
2019-09-05T13:40:00	0.1694	13.585	192.6	0.376264800	0.412118593	0.004967180	0.051245482	0.015794355
2019-09-05T13:45:00	0.1694	13.587	190.5	0.376234876	0.412072438	0.004966361	0.051237026	0.015791749
2019-09-05T13:50:00	0.1691	13.565	177.1	0.375356076	0.410718015	0.004942326	0.050989063	0.015715324
2019-09-05T13:55:00	0.1709	13.581	205.9	0.380412237	0.418538970	0.005081566	0.052425575	0.016158071
2019-09-05T14:00:00	0.1700	13.520	204.6	0.377841465	0.414553890	0.005010481	0.051692204	0.015932039
2019-09-05T14:05:00	0.1710	13.508	204.7	0.380634619	0.418884530	0.005087743	0.052489305	0.016177714
2019-09-05T14:10:00	0.1705	13.484	204.7	0.379193898	0.416648153	0.005047802	0.052077245	0.016050713
2019-09-05T14:15:00	0.1699	13.468	184.1	0.377469176	0.413978256	0.005000236	0.051586513	0.015899464
2019-09-05T14:20:00	0.1709	13.428	183.9	0.380263026	0.418307187	0.005077423	0.052382840	0.016144900
2019-09-05T14:25:00	0.1692	13.422	183.1	0.375712518	0.411267120	0.004952066	0.051089550	0.015746296
2019-09-05T14:30:00	0.1686	13.523	183.8	0.373983747	0.408607088	0.004904932	0.050603283	0.015596423
2019-09-05T14:35:00	0.1695	13.536	183.0	0.376501352	0.412483544	0.004973662	0.051312357	0.015814967
2019-09-05T14:40:00	0.1702	13.529	183.3	0.378449903	0.415495458	0.005027250	0.051865216	0.015985363
2019-09-05T14:45:00	0.1700	13.509	183.6	0.377855002	0.414574829	0.005010853	0.051696050	0.015933225
2019-09-05T14:50:00	0.1703	13.529	183.2	0.378672577	0.415840299	0.005033396	0.051928621	0.016004905
2019-09-05T14:55:00	0.1695	13.487	180.6	0.376381671	0.412298882	0.004970382	0.051278516	0.015804537
2019-09-05T15:00:00	0.1697	13.502	179.1	0.376917341	0.413125692	0.004985074	0.051430087	0.015851252
2019-09-05T15:05:00	0.1696	13.501	178.8	0.376604655	0.412642967	0.004976495	0.051341578	0.015823973
2019-09-05T15:10:00	0.1702	13.467	178.3	0.378553071	0.415655211	0.005030097	0.051894587	0.015994416
2019-09-05T15:15:00	0.1711	13.438	169.7	0.381062966	0.419550512	0.005099654	0.052612192	0.016215589
2019-09-05T15:20:00	0.1688	13.472	169.5	0.374533851	0.409452658	0.004919901	0.050757714	0.015644021
2019-09-05T15:25:00	0.1704	13.508	169.3	0.379028225	0.416391341	0.005043221	0.052029985	0.016036147
2019-09-05T15:30:00	0.1697	13.480	171.0	0.377020615	0.413285185	0.004987909	0.051459340	0.015860268
2019-09-05T15:35:00	0.1692	13.499	170.5	0.375576394	0.411057378	0.004948345	0.051051160	0.015734463
2019-09-05T15:40:00	0.1705	13.518	170.3	0.379220949	0.416690091	0.005048550	0.052084964	0.016053092
2019-09-05T15:45:00	0.1663	13.474	169.4	0.367286347	0.398377250	0.004724868	0.048745594	0.015023865
2019-09-05T15:50:00	0.1683	13.463	169.7	0.372937255	0.407000751	0.004876531	0.050310276	0.015506116
2019-09-05T15:55:00	0.1702	13.456	169.4	0.378284147	0.415238849	0.005022679	0.051818048	0.015970826
2019-09-05T16:00:00	0.1713	13.451	162.4	0.381640279	0.420448883	0.005115734	0.052778088	0.016266719
2019-09-05T16:05:00	0.1686	13.477	163.0	0.373905772	0.408487297	0.004902813	0.050581416	0.015589684
2019-09-05T16:10:00	0.1686	13.460	160.4	0.373800643	0.408325818	0.004899956	0.050551943	0.015580600
2019-09-05T16:15:00	0.1678	13.418	160.6	0.371710673	0.405121705	0.004843368	0.049968139	0.015400666
2019-09-05T16:20:00	0.1669	13.430	160.6	0.369049335	0.401058505	0.004771878	0.049230585	0.015173344
2019-09-05T16:25:00	0.1666	13.430	216.1	0.368090789	0.399599666	0.004746284	0.048966538	0.015091962
2019-09-05T16:30:00	0.1657	13.381	190.3	0.365707786	0.395983499	0.004683011	0.048313764	0.014890771
2019-09-05T16:35:00	0.1663	13.397	188.0	0.367310619	0.398414108	0.004725513	0.048752251	0.015025917
2019-09-05T16:40:00	0.1651	13.388	185.2	0.364070913	0.393508313	0.004639842	0.047868396	0.014753505
2019-09-05T16:45:00	0.1658	13.380	196.6	0.365960432	0.396366169	0.004689695	0.048382724	0.014912025
2019-09-05T16:50:00	0.1649	13.351	183.2	0.363288584	0.392327831	0.004619294	0.047656403	0.014688166
2019-09-05T16:55:00	0.1642	13.349	183.4	0.361469272	0.389588884	0.004571718	0.047165574	0.014536888
2019-09-05T17:00:00	0.1660	13.361	183.2	0.366497812	0.397180677	0.004703932	0.048529597	0.014957293
2019-09-05T17:05:00	0.1671	13.339	182.6	0.369521277	0.401777665	0.004784509	0.049360900	0.015213509
2019-09-05T17:10:00	0.1680	13.317	182.5	0.372254911	0.405954948	0.004858066	0.050119775	0.015447401
2019-09-05T17:15:00	0.1654	13.268	182.0	0.364756050	0.394543472	0.004657882	0.048054513	0.014810867
2019-09-05T17:20:00	0.1662	13.281	182.3	0.367214011	0.398267414	0.004722945	0.048725756	0.015017751
2019-09-05T17:25:00	0.1654	13.269	182.8	0.364829573	0.394654631	0.004659821	0.048074511	0.014817031
2019-09-05T17:30:00	0.1680	13.269	182.4	0.372117570	0.405744600	0.004854355	0.050081483	0.015435599
2019-09-05T17:35:00	0.1676	13.224	182.3	0.371161026	0.404280983	0.004828551	0.049815275	0.015353552
2019-09-05T17:40:00	0.1657	13.210	182.3	0.365652314	0.395899501	0.004681544	0.048298631	0.014886107
2019-09-05T17:45:00	0.1662	13.196	182.9	0.366970578	0.397897884	0.004716478	0.048659029	0.014997185
2019-09-05T17:50:00	0.1666	13.162	183.9	0.368287651	0.399899076	0.004751534	0.049020697	0.015108655
2019-09-05T17:55:00	0.1676	13.128	184.0	0.371023582	0.404070879	0.004824851	0.049777094	0.015341784
2019-09-05T18:00:00	0.1671	13.049	184.3	0.369498103	0.401742338	0.004783889	0.049354496	0.015211535
2019-09-05T18:05:00	0.1662	13.034	183.5	0.367117397	0.398120736	0.004720378	0.048699267	0.015009587
2019-09-05T18:10:00	0.1671	12.998	183.5	0.369571388	0.401854061	0.004785852	0.049374749	0.015217777
2019-09-05T18:15:00	0.1654	12.948	183.5	0.364912100	0.394779420	0.004661997	0.048096964	0.014823951
2019-09-05T18:20:00	0.1675	12.907	183.2	0.370780781	0.403699845	0.004818317	0.049709688	0.015321009
2019-09-05T18:25:00	0.1661	12.870	182.2	0.366694889	0.397479579	0.004709159	0.048583527	0.014973915
2019-09-05T18:30:00	0.1664	12.813	181.9	0.367727728	0.399047752	0.004736611	0.048866747	0.015061206
2019-09-05T18:35:00	0.1647	12.753	182.7	0.362777079	0.391556882	0.004605888	0.047518100	0.014645540
2019-09-05T18:40:00	0.1654	12.694	183.0	0.364668282	0.394410796	0.004655569	0.048030647	0.014803512
2019-09-05T18:45:00	0.1665	12.682	195.7	0.367980025	0.399431248	0.004743332	0.048936080	0.015082575
2019-09-05T18:50:00	0.1677	12.659	183.6	0.371284280	0.404469439	0.004831872	0.049849530	0.015364109
2019-09-05T18:55:00	0.1644	12.623	183.2	0.362067714	0.390488862	0.004587335	0.047326694	0.014586547
2019-09-05T19:00:00	0.1665	12.551	183.8	0.367947837	0.399382314	0.004742474	0.048927232	0.015079848
2019-09-05T19:05:00	0.1658	12.491	184.0	0.365849505	0.396198134	0.004686760	0.048352439	0.014902691
2019-09-05T19:10:00	0.1662	12.469	184.2	0.367167591	0.398196936	0.004721712	0.048713027	0.015013828
2019-09-05T19:15:00	0.1678	12.418	184.4	0.371609149	0.404966356	0.004840630	0.049939883	0.015391957
2019-09-05T19:20:00	0.1667	12.378	196.6	0.368378970	0.400037999	0.004753970	0.049045833	0.015116402
2019-09-05T19:25:00	0.1674	12.348	183.2	0.370546913	0.403342610	0.004812029	0.049644813	0.015301014
2019-09-05T19:30:00	0.1648	12.301	183.3	0.363039255	0.391951952	0.004612757	0.047588959	0.014667379
2019-09-05T19:35:00	0.1677	12.274	183.6	0.371471747	0.404756152	0.004836924	0.049901656	0.015380175
2019-09-05T19:40:00	0.1679	12.208	196.3	0.371933945	0.405463445	0.004849395	0.050030314	0.015419829
2019-09-05T19:45:00	0.1673	12.202	196.2	0.370125395	0.402699106	0.004800707	0.049528012	0.015265014
2019-09-05T19:50:00	0.1661	12.109	196.1	0.366891939	0.397778544	0.004714389	0.048637485	0.014990545
2019-09-05T19:55:00	0.1662	12.102	195.9	0.367070974	0.398050265	0.004719144	0.048686541	0.015005665
2019-09-05T20:00:00	0.1691	12.094	183.3	0.375197317	0.410473553	0.004937991	0.050944344	0.015701542
2019-09-05T20:05:00	0.1684	12.083	183.6	0.373392767	0.407699590	0.004888882	0.050437690	0.015545386
2019-09-05T20:10:00	0.1692	12.076	184.2	0.375553348	0.411021873	0.004947715	0.051044663	0.015732461
2019-09-05T20:15:00	0.1686	12.061	184.2	0.374032551	0.408682073	0.004906259	0.050616973	0.015600643
2019-09-05T20:20:00	0.1695	12.049	184.0	0.376475052	0.412442962	0.004972941	0.051304920	0.015812674
2019-09-05T20:25:00	0.1699	12.028	183.8	0.377501060	0.414027541	0.005001113	0.051595559	0.015902253
2019-09-05T20:30:00	0.1695	11.981	183.9	0.376547992	0.412555517	0.004974941	0.051325549	0.015819033
2019-09-05T20:35:00	0.1704	11.948	183.9	0.378986364	0.416326464	0.005042064	0.052018048	0.016032468
2019-09-05T20:40:00	0.1711	11.904	184.0	0.380856873	0.419230023	0.005093921	0.052553045	0.016197359
2019-09-05T20:45:00	0.1711	11.890	183.7	0.381034224	0.419505809	0.005098854	0.052603941	0.016213045
2019-09-05T20:50:00	0.1727	11.894	183.7	0.385434561	0.426375579	0.005222175	0.053876214	0.016605172
2019-09-05T20:55:00	0.1711	11.885	183.6	0.380824965	0.419180413	0.005093034	0.052543891	0.016194538
2019-09-05T21:00:00	0.1718	11.901	183.7	0.382974806	0.422529004	0.005153022	0.053162775	0.016385284
2019-09-05T21:05:00	0.1702	11.884	183.8	0.378357637	0.415352611	0.005024705	0.051838958	0.015977270
2019-09-05T21:10:00	0.1706	11.858	182.5	0.379664597	0.417378187	0.005060830	0.052211655	0.016092139
2019-09-05T21:15:00	0.1715	11.854	195.3	0.382097891	0.421161621	0.005128502	0.052909809	0.016307317
2019-09-05T21:20:00	0.1709	11.837	182.2	0.380301688	0.418367239	0.005078496	0.052393911	0.016148312
2019-09-05T21:25:00	0.1729	11.829	182.2	0.386109890	0.427434515	0.005241258	0.054073090	0.016665851
2019-09-05T21:30:00	0.1727	11.833	194.9	0.385443445	0.426389501	0.005222426	0.053878801	0.016605970
2019-09-05T21:35:00	0.1740	11.809	182.8	0.388989769	0.431964065	0.005323105	0.054917495	0.016926105
2019-09-05T21:40:00	0.1732	11.796	182.8	0.386920919	0.428707857	0.005264230	0.054310095	0.016738899
2019-09-05T21:45:00	0.1745	11.770	182.4	0.390463798	0.434291131	0.005365293	0.055352740	0.017060252
2019-09-05T21:50:00	0.1751	11.757	194.6	0.392320168	0.437230170	0.005418709	0.055903825	0.017230102
2019-09-05T21:55:00	0.1739	11.732	194.3	0.388853953	0.431749948	0.005319228	0.054877496	0.016913777
2019-09-05T22:00:00	0.1732	11.700	181.6	0.386784919	0.428494208	0.005260374	0.054270308	0.016726636
2019-09-05T22:05:00	0.1746	11.674	181.9	0.390719802	0.434695888	0.005372641	0.055428542	0.017083615
2019-09-05T22:10:00	0.1745	11.653	181.9	0.390447135	0.434264793	0.005364815	0.055347808	0.017058732
2019-09-05T22:15:00	0.1734	11.609	181.3	0.387369204	0.429412441	0.005276954	0.054441364	0.016779357
2019-09-05T22:20:00	0.1759	11.618	181.4	0.394380103	0.440502429	0.005478356	0.056519193	0.017419764
2019-09-05T22:25:00	0.1762	11.608	181.3	0.395225856	0.441849264	0.005502960	0.056773022	0.017497997
2019-09-05T22:30:00	0.1761	11.608	181.6	0.394953990	0.441416114	0.005495044	0.056691354	0.017472826
2019-09-05T22:35:00	0.1769	11.614	194.3	0.397194982	0.444992561	0.005560501	0.057366660	0.017680962
2019-09-05T22:40:00	0.1748	11.591	181.7	0.391332649	0.435665551	0.005390254	0.055610259	0.017139622
2019-09-05T22:45:00	0.1765	11.554	181.9	0.396093629	0.443233182	0.005528273	0.057034173	0.017578486
2019-09-05T22:50:00	0.1764	11.524	194.3	0.395821915	0.442799635	0.005520339	0.056952325	0.017553260
2019-09-05T22:55:00	0.1762	11.524	181.9	0.395270846	0.441920964	0.005504270	0.056786544	0.017502164
2019-09-05T23:00:00	0.1767	11.549	182.3	0.396674369	0.444160487	0.005545252	0.057209347	0.017632476
2019-09-05T23:05:00	0.1784	11.515	181.8	0.401418924	0.451770793	0.005685151	0.058652657	0.018077319
2019-09-05T23:10:00	0.1763	11.506	182.3	0.395572644	0.442402074	0.005513067	0.056877299	0.017530136
2019-09-05T23:15:00	0.1778	11.491	184.4	0.399763623	0.449108712	0.005636104	0.058146642	0.017921360
2019-09-05T23:20:00	0.1780	11.492	184.5	0.400328042	0.450015580	0.005652799	0.058318884	0.017974446
2019-09-05T23:25:00	0.1784	11.462	197.4	0.401448798	0.451818905	0.005686039	0.058661814	0.018080141
2019-09-05T23:30:00	0.1793	11.476	197.3	0.403958238	0.455869089	0.005760892	0.059434065	0.018318156
2019-09-05T23:35:00	0.1783	11.452	197.3	0.401185491	0.451394931	0.005678219	0.058581138	0.018055276
2019-09-05T23:40:00	0.1793	11.464	184.5	0.403973151	0.455893209	0.005761339	0.059438673	0.018319576
2019-09-05T23:45:00	0.1773	11.447	184.4	0.398415283	0.446945809	0.005596341	0.057736419	0.017794925
2019-09-05T23:50:00	0.1771	11.458	184.2	0.397865139	0.446064732	0.005580166	0.057569544	0.017743493
2019-09-05T23:55:00	0.1764	11.459	184.1	0.395919354	0.442955086	0.005523184	0.056981668	0.017562304
2019-09-06T00:00:00	0.1770	11.467	184.1	0.397601224	0.445642354	0.005572417	0.057489595	0.017718851
2019-09-06T00:05:00	0.1792	11.472	184.0	0.403732642	0.455504278	0.005754139	0.059364391	0.018296682
2019-09-06T00:10:00	0.1766	11.456	183.9	0.396500161	0.443882221	0.005540156	0.057156765	0.017616270
2019-09-06T00:15:00	0.1787	11.472	184.0	0.402357880	0.453284159	0.005713087	0.058940868	0.018166148
2019-09-06T00:20:00	0.1776	11.478	184.0	0.399303704	0.448370389	0.005622521	0.058006518	0.017878172
2019-09-06T00:25:00	0.1770	11.474	184.2	0.397638658	0.445702253	0.005573515	0.057500931	0.017722345
2019-09-06T00:30:00	0.1785	11.483	184.1	0.401545884	0.451975281	0.005688924	0.058691577	0.018089314
2019-09-06T00:35:00	0.1773	11.484	184.2	0.398211335	0.446619082	0.005590341	0.057674521	0.017775848
2019-09-06T00:40:00	0.1784	11.473	184.1	0.401282594	0.451551262	0.005681102	0.058610882	0.018064443
2019-09-06T00:45:00	0.1780	11.459	184.1	0.400176667	0.449772277	0.005648318	0.058272659	0.017960200
2019-09-06T00:50:00	0.1776	11.438	196.8	0.399069953	0.447995362	0.005615626	0.057935379	0.017856246
2019-09-06T00:55:00	0.1789	11.448	184.1	0.402695615	0.453829092	0.005723156	0.059044744	0.018198164
2019-09-06T01:00:00	0.1778	11.451	196.8	0.399642102	0.448913574	0.005632513	0.058109598	0.017909943
2019-09-06T01:05:00	0.1781	11.429	184.0	0.400484983	0.450267897	0.005657446	0.058366832	0.017989224
2019-09-06T01:10:00	0.1776	11.419	183.8	0.399099872	0.448043356	0.005616508	0.057944481	0.017859052
2019-09-06T01:15:00	0.1798	11.402	183.7	0.405225409	0.457920812	0.005798916	0.059826345	0.018439061
2019-09-06T01:20:00	0.1788	11.387	183.6	0.402454910	0.453440683	0.005715979	0.058970700	0.018175342
2019-09-06T01:25:00	0.1772	11.367	183.6	0.398007360	0.446292425	0.005584345	0.057612656	0.017756780
2019-09-06T01:30:00	0.1788	11.357	183.5	0.402469837	0.453464766	0.005716424	0.058975290	0.018176757
2019-09-06T01:35:00	0.1765	11.324	183.4	0.396069248	0.443194273	0.005527561	0.057026826	0.017576222
2019-09-06T01:40:00	0.1771	11.299	183.2	0.397750955	0.445881965	0.005576812	0.057534945	0.017732829
2019-09-06T01:45:00	0.1786	11.271	183.2	0.401936058	0.452603988	0.005700527	0.058811285	0.018126209
2019-09-06T01:50:00	0.1788	11.271	183.1	0.402499690	0.453512931	0.005717314	0.058984471	0.018179587
2019-09-06T01:55:00	0.1780	11.252	182.9	0.400281307	0.449940456	0.005651415	0.058304610	0.017970047
2019-09-06T02:00:00	0.1780	11.229	195.4	0.400288781	0.449952470	0.005651637	0.058306893	0.017970751
2019-09-06T02:05:00	0.1789	11.197	182.7	0.402800085	0.453997718	0.005726273	0.059076898	0.018208074
2019-09-06T02:10:00	0.1795	11.206	182.5	0.404474533	0.456704510	0.005776366	0.059593707	0.018367359
2019-09-06T02:15:00	0.1789	11.177	182.5	0.402815009	0.454021809	0.005726718	0.059081492	0.018209490
2019-09-06T02:20:00	0.1790	11.171	182.5	0.403100423	0.454482658	0.005735238	0.059169395	0.018236582
2019-09-06T02:25:00	0.1792	11.140	182.4	0.403663635	0.455392715	0.005752074	0.059343088	0.018290116
2019-09-06T02:30:00	0.1787	11.076	182.3	0.402281348	0.453160718	0.005710807	0.058917345	0.018158898
2019-09-06T02:35:00	0.1776	11.058	182.1	0.399227022	0.448247344	0.005620259	0.057983175	0.017870978
2019-09-06T02:40:00	0.1787	11.047	182.2	0.402296277	0.453184796	0.005711252	0.058921933	0.018160312
2019-09-06T02:45:00	0.1785	11.035	182.0	0.401747505	0.452300111	0.005694918	0.058753417	0.018108374
2019-09-06T02:50:00	0.1785	11.055	182.2	0.401754972	0.452312143	0.005695140	0.058755708	0.018109080
2019-09-06T02:55:00	0.1782	11.015	182.0	0.400927720	0.450980051	0.005670570	0.058502223	0.018030953
2019-09-06T03:00:00	0.1762	11.005	181.9	0.395358924	0.442061347	0.005506837	0.056813021	0.017510325
2019-09-06T03:05:00	0.1765	10.980	181.8	0.396204141	0.443409573	0.005531502	0.057067483	0.017588752
2019-09-06T03:10:00	0.1761	10.924	181.5	0.395094581	0.441640084	0.005499137	0.056733578	0.017485840
2019-09-06T03:15:00	0.1777	10.881	181.4	0.399565436	0.448790486	0.005630248	0.058086235	0.017902742
2019-09-06T03:20:00	0.1777	10.868	181.3	0.399572914	0.448802490	0.005630469	0.058088514	0.017903444
2019-09-06T03:25:00	0.1763	10.872	181.3	0.395675698	0.442566413	0.005516073	0.056908309	0.017539694
2019-09-06T03:30:00	0.1769	10.851	181.2	0.397357833	0.445252991	0.005565276	0.057415922	0.017696145
2019-09-06T03:35:00	0.1769	10.807	180.9	0.397086342	0.444818865	0.005557317	0.057333811	0.017670837
2019-09-06T03:40:00	0.1779	10.804	180.9	0.399881349	0.449297795	0.005639583	0.058182543	0.017932425
2019-09-06T03:45:00	0.1782	10.772	180.8	0.400724101	0.450652458	0.005664532	0.058439932	0.018011754
2019-09-06T03:50:00	0.1796	10.766	180.7	0.404623604	0.456945860	0.005780839	0.059639849	0.018381581
2019-09-06T03:55:00	0.1790	10.736	180.5	0.402964239	0.454262739	0.005731172	0.059127443	0.018223652
2019-09-06T04:00:00	0.1814	10.717	180.4	0.409628362	0.465083965	0.005932212	0.061201541	0.018862909
2019-09-06T04:05:00	0.1817	10.686	180.3	0.410492688	0.466496374	0.005958595	0.061473726	0.018946799
2019-09-06T04:10:00	0.1822	10.650	180.2	0.411909396	0.468815876	0.006001992	0.061921446	0.019084791
2019-09-06T04:15:00	0.1820	10.666	180.2	0.411390737	0.467966064	0.005986082	0.061757306	0.019034202
2019-09-06T04:20:00	0.1812	10.643	180.1	0.409211685	0.464403798	0.005919519	0.061070587	0.018822548
2019-09-06T04:25:00	0.1822	10.647	180.0	0.412011943	0.468983985	0.006005141	0.061953930	0.019094803
2019-09-06T04:30:00	0.1819	10.601	192.2	0.411216843	0.467681306	0.005980754	0.061702333	0.019017258
2019-09-06T04:35:00	0.1823	10.589	179.6	0.412080304	0.469096068	0.006007240	0.061975591	0.019101479
2019-09-06T04:40:00	0.1820	10.554	191.9	0.411285238	0.467793296	0.005982849	0.061723951	0.019023921
2019-09-06T04:45:00	0.1839	10.561	191.9	0.416563943	0.476475378	0.006145920	0.063406322	0.019542444
2019-09-06T04:50:00	0.1834	10.549	191.8	0.415219590	0.474256991	0.006104137	0.062975256	0.019409586
2019-09-06T04:55:00	0.1847	10.520	191.7	0.418835104	0.480234457	0.006216902	0.064138630	0.019768149
2019-09-06T05:00:00	0.1846	10.528	179.4	0.418593936	0.479834615	0.006209341	0.064060626	0.019744107
2019-09-06T05:05:00	0.1851	10.496	191.7	0.420003497	0.482173851	0.006253612	0.064517357	0.019884876
2019-09-06T05:10:00	0.1849	10.464	191.5	0.419487452	0.481316812	0.006237382	0.064349917	0.019833269
2019-09-06T05:15:00	0.1859	10.455	179.1	0.422269826	0.485946447	0.006325193	0.065255846	0.020112485
2019-09-06T05:20:00	0.1868	10.454	191.4	0.424499079	0.489671188	0.006396087	0.065987250	0.020337911
2019-09-06T05:25:00	0.1870	10.417	191.3	0.425081345	0.490646333	0.006414683	0.066179107	0.020397043
2019-09-06T05:30:00	0.1880	10.447	191.3	0.427854181	0.495303019	0.006503695	0.067097418	0.020680076
2019-09-06T05:35:00	0.1896	10.440	191.3	0.432260752	0.502747336	0.006646693	0.068572707	0.021134774
2019-09-06T05:40:00	0.1887	10.425	191.2	0.429836330	0.498644914	0.006567783	0.067758604	0.020883860
2019-09-06T05:45:00	0.1882	10.399	190.9	0.428502924	0.496395596	0.006524628	0.067313384	0.020746639
2019-09-06T05:50:00	0.1884	10.397	191.0	0.429083768	0.497374812	0.006543405	0.067507106	0.020806346
2019-09-06T05:55:00	0.1892	10.361	190.9	0.431303770	0.501126051	0.006615476	0.068250650	0.021035513
2019-09-06T06:00:00	0.1905	10.378	190.9	0.434611340	0.506740451	0.006723750	0.069367694	0.021379797
2019-09-06T06:05:00	0.1893	10.408	191.0	0.431371323	0.501240412	0.006617677	0.068273354	0.021042511
2019-09-06T06:10:00	0.1890	10.409	191.0	0.430585670	0.499911144	0.006592111	0.068009593	0.020961217
2019-09-06T06:15:00	0.1917	10.406	191.0	0.437979628	0.512489278	0.006835118	0.070516655	0.021733918
2019-09-06T06:20:00	0.1915	10.407	191.1	0.437469196	0.511616063	0.006818170	0.070341799	0.021680025
2019-09-06T06:25:00	0.1913	10.433	191.1	0.436958609	0.510743308	0.006801241	0.070167154	0.021626198
2019-09-06T06:30:00	0.1908	10.465	191.3	0.435630926	0.508477287	0.006757344	0.069714268	0.021486614
2019-09-06T06:35:00	0.1896	10.495	191.4	0.432392901	0.502971419	0.006651011	0.068617252	0.021148504
2019-09-06T06:40:00	0.1900	10.517	191.5	0.433245172	0.504417767	0.006678898	0.068904964	0.021237179
2019-09-06T06:45:00	0.1908	10.549	179.3	0.435459603	0.508185241	0.006751692	0.069655959	0.021468643
2019-09-06T06:50:00	0.1909	10.560	191.7	0.435765676	0.508707047	0.006761791	0.069760151	0.021500756
2019-09-06T06:55:00	0.1900	10.600	179.5	0.433346380	0.504589658	0.006682215	0.068939179	0.021247724
2019-09-06T07:00:00	0.1917	10.621	191.9	0.438010404	0.512541952	0.006836141	0.070527206	0.021737170
2019-09-06T07:05:00	0.1923	10.654	179.8	0.439675172	0.515395147	0.006891603	0.071099399	0.021913525
2019-09-06T07:10:00	0.1923	10.672	192.2	0.439708780	0.515452825	0.006892726	0.071110980	0.021917095
2019-09-06T07:15:00	0.1915	10.731	180.0	0.437567283	0.511783807	0.006821425	0.070375379	0.021690375
2019-09-06T07:20:00	0.1922	10.763	180.2	0.439232492	0.514635693	0.006876828	0.070946970	0.021866545
2019-09-06T07:25:00	0.1931	10.801	173.5	0.441890615	0.518893621	0.006961671	0.071822276	0.022136323
2019-09-06T07:30:00	0.1945	10.819	178.0	0.446821597	0.525495740	0.007102599	0.073276202	0.022584437
2019-09-06T07:35:00	0.1951	10.869	193.0	0.448957294	0.528361171	0.007164066	0.073910345	0.022779886
2019-09-06T07:40:00	0.1956	10.924	180.8	0.450743186	0.530760031	0.007215664	0.074442675	0.022943955
2019-09-06T07:45:00	0.1960	10.982	181.1	0.452179831	0.532691598	0.007257303	0.074872261	0.023076358
2019-09-06T07:50:00	0.1944	11.030	181.5	0.446645319	0.525259391	0.007097537	0.073223980	0.022568342
2019-09-06T07:55:00	0.1952	11.056	181.8	0.449478391	0.529060864	0.007179103	0.074065478	0.022827699
2019-09-06T08:00:00	0.1961	11.116	182.1	0.452309071	0.532865440	0.007261055	0.074910966	0.023088287
2019-09-06T08:05:00	0.1943	11.171	182.4	0.446076946	0.524497498	0.007081228	0.073055725	0.022516484
2019-09-06T08:10:00	0.1939	11.191	182.4	0.444724036	0.522684968	0.007042482	0.072655984	0.022393280
2019-09-06T08:15:00	0.1961	11.230	182.4	0.452438305	0.533039288	0.007264807	0.074949679	0.023100219
2019-09-06T08:20:00	0.1962	11.241	182.4	0.452829647	0.533565808	0.007276176	0.075066968	0.023136368
2019-09-06T08:25:00	0.1951	11.238	182.3	0.449039865	0.528472027	0.007166447	0.073934916	0.022787459
2019-09-06T08:30:00	0.1970	11.294	195.2	0.455700538	0.537432062	0.007359843	0.075930148	0.023402409
2019-09-06T08:35:00	0.1976	11.345	195.5	0.457830593	0.540304831	0.007422224	0.076573712	0.023600762
2019-09-06T08:40:00	0.1963	11.371	195.7	0.453001932	0.533797642	0.007281184	0.075118631	0.023152292
2019-09-06T08:45:00	0.1968	11.418	195.8	0.454785673	0.536199299	0.007333130	0.075654553	0.023317468
2019-09-06T08:50:00	0.1968	11.473	196.0	0.454828720	0.536257289	0.007334386	0.075667510	0.023321461
2019-09-06T08:55:00	0.1969	11.565	196.6	0.455219783	0.536784172	0.007345800	0.075785263	0.023357754
2019-09-06T09:00:00	0.1952	11.579	196.5	0.449341698	0.528877302	0.007175157	0.074024768	0.022815152
2019-09-06T09:05:00	0.1936	11.612	196.6	0.443802491	0.521451174	0.007016149	0.072384312	0.022309548
2019-09-06T09:10:00	0.1944	11.586	196.5	0.446637969	0.525249536	0.007097326	0.073221803	0.022567671
2019-09-06T09:15:00	0.1930	11.594	196.6	0.441793146	0.518763313	0.006958899	0.071793680	0.022127510
2019-09-06T09:20:00	0.1945	11.639	184.1	0.446724271	0.525365246	0.007099804	0.073247367	0.022575550
2019-09-06T09:25:00	0.1939	11.660	197.0	0.444673504	0.522617298	0.007041036	0.072641075	0.022388685
2019-09-06T09:30:00	0.1949	11.649	196.8	0.448205772	0.527352456	0.007142407	0.073686894	0.022711016
2019-09-06T09:35:00	0.1944	11.695	197.0	0.446504835	0.525071051	0.007093504	0.073182375	0.022555519
2019-09-06T09:40:00	0.1927	11.700	184.2	0.440716684	0.517184103	0.006926441	0.071458815	0.022024301
2019-09-06T09:45:00	0.1938	11.731	184.2	0.444497113	0.522381095	0.007035993	0.072589041	0.022372648
2019-09-06T09:50:00	0.1913	11.724	183.9	0.436977937	0.510776332	0.006801882	0.070173761	0.021628235
2019-09-06T09:55:00	0.1915	11.723	196.4	0.437555820	0.511764202	0.006821044	0.070371454	0.021689166
2019-09-06T10:00:00	0.1911	11.759	183.6	0.436228611	0.509496776	0.006777084	0.069917923	0.021549383
2019-09-06T10:05:00	0.1903	11.824	196.5	0.434154963	0.505963966	0.006708747	0.069212905	0.021332090
2019-09-06T10:10:00	0.1913	11.824	183.7	0.436984811	0.510788078	0.006802110	0.070176110	0.021628959
2019-09-06T10:15:00	0.1910	11.833	183.5	0.436001740	0.509109678	0.006769587	0.069840576	0.021525544
2019-09-06T10:20:00	0.1891	11.881	196.3	0.430925841	0.500486477	0.006603173	0.068123719	0.020996392
2019-09-06T10:25:00	0.1893	11.924	183.6	0.431578262	0.501590824	0.006624421	0.068342931	0.021063955
2019-09-06T10:30:00	0.1887	11.943	183.6	0.429772151	0.498536538	0.006565702	0.067737134	0.020877243
2019-09-06T10:35:00	0.1874	11.963	183.7	0.426321360	0.492726171	0.006454397	0.066588823	0.020523322
2019-09-06T10:40:00	0.1877	11.945	183.6	0.426975610	0.493825242	0.006475411	0.066805616	0.020590140
2019-09-06T10:45:00	0.1859	11.931	183.2	0.422146376	0.485740583	0.006321281	0.065215488	0.020100047
2019-09-06T10:50:00	0.1892	11.955	183.2	0.431290099	0.501102907	0.006615031	0.068246056	0.021034097
2019-09-06T10:55:00	0.1873	12.050	195.8	0.425925711	0.492062099	0.006441709	0.066457928	0.020482979
2019-09-06T11:00:00	0.1876	12.090	183.1	0.426853974	0.493620816	0.006471501	0.066765278	0.020577707
2019-09-06T11:05:00	0.1867	12.110	182.6	0.424220046	0.489204213	0.006387187	0.065895429	0.020309611
2019-09-06T11:10:00	0.1865	12.155	181.6	0.423778117	0.488465065	0.006373106	0.065750164	0.020264839
2019-09-06T11:15:00	0.1869	12.183	180.8	0.424981769	0.490479502	0.006411501	0.066146272	0.020386924
2019-09-06T11:20:00	0.1869	12.206	179.8	0.424814242	0.490198889	0.006406149	0.066091054	0.020369905
2019-09-06T11:25:00	0.1884	12.191	179.2	0.429028047	0.497280834	0.006541603	0.067488507	0.020800613
2019-09-06T11:30:00	0.1870	12.208	178.8	0.425027505	0.490556127	0.006412963	0.066161352	0.020391571
2019-09-06T11:35:00	0.1880	12.208	178.5	0.427873026	0.495334741	0.006504302	0.067103685	0.020682008
2019-09-06T11:40:00	0.1871	12.222	177.0	0.425514819	0.491372901	0.006428549	0.066322157	0.020441133
2019-09-06T11:45:00	0.1876	12.209	175.3	0.426717192	0.493390985	0.006467105	0.066719935	0.020563732
2019-09-06T11:50:00	0.1876	12.283	173.5	0.426823703	0.493569948	0.006470528	0.066755242	0.020574614
2019-09-06T11:55:00	0.1840	12.325	172.1	0.417042764	0.477266708	0.006160843	0.063560287	0.019589898
2019-09-06T12:00:00	0.1850	12.351	170.7	0.419627273	0.481548952	0.006241777	0.064395259	0.019847244
2019-09-06T12:05:00	0.1860	12.309	169.4	0.422482241	0.486300767	0.006331927	0.065325324	0.020133899
2019-09-06T12:10:00	0.1867	12.296	167.5	0.424235485	0.489230045	0.006387679	0.065900508	0.020311177
2019-09-06T12:15:00	0.1849	12.369	166.1	0.419398094	0.481168484	0.006234574	0.064320951	0.019824342
2019-09-06T12:20:00	0.1830	12.394	164.3	0.414270216	0.472693379	0.006074734	0.062671916	0.019316093
2019-09-06T12:25:00	0.1837	12.396	162.4	0.416032401	0.475597657	0.006129379	0.063235670	0.019489847
2019-09-06T12:30:00	0.1846	12.440	160.6	0.418618531	0.479875386	0.006210112	0.064068578	0.019746558
2019-09-06T12:35:00	0.1825	12.456	158.9	0.412659627	0.470046424	0.006025051	0.062159339	0.019158112
2019-09-06T12:40:00	0.1824	12.471	157.3	0.412490815	0.469769400	0.006019858	0.062105761	0.019141599
2019-09-06T12:45:00	0.1812	12.491	156.2	0.409279697	0.464514785	0.005921590	0.061091950	0.018829132
2019-09-06T12:50:00	0.1823	12.492	154.5	0.412153138	0.469215498	0.006009478	0.061998674	0.019108593
2019-09-06T12:55:00	0.1822	12.524	152.5	0.411984272	0.468938621	0.006004291	0.061945164	0.019092101
2019-09-06T13:00:00	0.1823	12.524	150.6	0.412091760	0.469114852	0.006007592	0.061979221	0.019102598
2019-09-06T13:05:00	0.1822	12.500	148.6	0.411922888	0.468837992	0.006002406	0.061925719	0.019086108
2019-09-06T13:10:00	0.1811	12.572	146.7	0.408987531	0.464038095	0.005912697	0.061000209	0.018800857
2019-09-06T13:15:00	0.1799	12.591	143.6	0.405491808	0.458352707	0.005806929	0.059909014	0.018464540
2019-09-06T13:20:00	0.1803	12.618	139.7	0.406709282	0.460328990	0.005843634	0.060287697	0.018581254
2019-09-06T13:25:00	0.1802	12.603	134.7	0.406539835	0.460053689	0.005838517	0.060234906	0.018564983
2019-09-06T13:30:00	0.1792	12.594	130.8	0.403594437	0.455280855	0.005750004	0.059321731	0.018283534
2019-09-06T13:35:00	0.1795	12.622	121.1	0.404535736	0.456803592	0.005778202	0.059612648	0.018373197
2019-09-06T13:40:00	0.1779	12.564	108.6	0.399916489	0.449354240	0.005640622	0.058193261	0.017935728
2019-09-06T13:45:00	0.1790	12.597	104.1	0.403085029	0.454457797	0.005734778	0.059164652	0.018235120
2019-09-06T13:50:00	0.1799	12.608	100.1	0.405692324	0.458677919	0.005812964	0.059971283	0.018483732
2019-09-06T13:55:00	0.1786	12.613	97.3	0.401911139	0.452563823	0.005699785	0.058803635	0.018123851
2019-09-06T14:00:00	0.1771	12.618	94.7	0.397841924	0.446027570	0.005579484	0.057562509	0.017741324
2019-09-06T14:05:00	0.1785	12.667	90.9	0.401571186	0.452016039	0.005689676	0.058699336	0.018091705
2019-09-06T14:10:00	0.1817	12.676	89.1	0.410555976	0.466599874	0.005960530	0.061493684	0.018952951
2019-09-06T14:15:00	0.1828	12.672	86.1	0.413703204	0.471760697	0.006057215	0.062491170	0.019260386
2019-09-06T14:20:00	0.1809	12.646	83.8	0.408279989	0.462884657	0.005891196	0.060778386	0.018732489
2019-09-06T14:25:00	0.1783	12.687	82.4	0.401169354	0.451368953	0.005677740	0.058576196	0.018053752
2019-09-06T14:30:00	0.1800	12.686	82.1	0.405723279	0.458728134	0.005813897	0.059980899	0.018486696
2019-09-06T14:35:00	0.1804	12.703	80.0	0.406940575	0.460704897	0.005850623	0.060359802	0.018603477
2019-09-06T14:40:00	0.1796	12.707	79.1	0.404829011	0.457278517	0.005787005	0.059703464	0.018401187
2019-09-06T14:45:00	0.1821	12.731	75.7	0.411585372	0.468284882	0.005992050	0.061818871	0.019053176
2019-09-06T14:50:00	0.1800	12.728	74.5	0.405877480	0.458978316	0.005818541	0.060028817	0.018501464
2019-09-06T14:55:00	0.1816	12.709	73.5	0.410417804	0.466373923	0.005956306	0.061450115	0.018939522
2019-09-06T15:00:00	0.1825	12.733	72.7	0.412736814	0.470173116	0.006027426	0.062183846	0.019165665
2019-09-06T15:05:00	0.1808	12.766	70.0	0.408141618	0.462659245	0.005886997	0.060735062	0.018719136
2019-09-06T15:10:00	0.1803	12.767	68.1	0.406586384	0.460129309	0.005839923	0.060249405	0.018569452
2019-09-06T15:15:00	0.1815	12.742	68.7	0.410018227	0.465720796	0.005944104	0.061324223	0.018900721
2019-09-06T15:20:00	0.1812	12.757	63.2	0.409295562	0.464540678	0.005922073	0.061096934	0.018830669
2019-09-06T15:25:00	0.1820	12.743	58.9	0.411339758	0.467882575	0.005984520	0.061741187	0.019029233
2019-09-06T15:30:00	0.1830	12.741	56.5	0.414209482	0.472593435	0.006072856	0.062652541	0.019310122
2019-09-06T15:35:00	0.1824	12.727	54.5	0.412383918	0.469594019	0.006016571	0.062071849	0.019131147
2019-09-06T15:40:00	0.1839	12.680	53.5	0.416630175	0.476584798	0.006147983	0.063427605	0.019549004
2019-09-06T15:45:00	0.1817	12.733	51.3	0.410663842	0.466776303	0.005963828	0.061527711	0.018963438
2019-09-06T15:50:00	0.1818	12.748	48.3	0.410771419	0.466952290	0.005967118	0.061561657	0.018973901
2019-09-06T15:55:00	0.1833	12.731	46.0	0.415021962	0.473931295	0.006098009	0.062912038	0.019390101
2019-09-06T16:00:00	0.1815	12.741	44.9	0.409880008	0.465494972	0.005939886	0.061280711	0.018887310
2019-09-06T16:05:00	0.1826	12.747	43.1	0.412994413	0.470596047	0.006035358	0.062265676	0.019190886
2019-09-06T16:10:00	0.1833	12.755	45.9	0.414999749	0.473894693	0.006097321	0.062904934	0.019387912
2019-09-06T16:15:00	0.1807	12.751	44.6	0.407885113	0.462241526	0.005879217	0.060654800	0.018694398
2019-09-06T16:20:00	0.1813	12.765	43.9	0.409343347	0.464618666	0.005923528	0.061111947	0.018835296
2019-09-06T16:25:00	0.1802	12.762	42.6	0.406368893	0.459776039	0.005833358	0.060181677	0.018548577
2019-09-06T16:30:00	0.1809	12.722	42.0	0.408382614	0.463051872	0.005894312	0.060810530	0.018742396
2019-09-06T16:35:00	0.1818	12.730	41.3	0.410946960	0.467239530	0.005972490	0.061617074	0.018990981
2019-09-06T16:40:00	0.1807	12.732	41.1	0.407698435	0.461937634	0.005873559	0.060596427	0.018676407
2019-09-06T16:45:00	0.1821	12.699	39.6	0.411646613	0.468385218	0.005993928	0.061838250	0.019059149
2019-09-06T16:50:00	0.1826	12.692	37.9	0.413101394	0.470771745	0.006038654	0.062299679	0.019201366
2019-09-06T16:55:00	0.1809	12.702	38.3	0.408472998	0.463199165	0.005897057	0.060838848	0.018751124
2019-09-06T17:00:00	0.1822	12.688	43.4	0.411866572	0.468745682	0.006000677	0.061907883	0.019080611
2019-09-06T17:05:00	0.1804	12.668	44.0	0.406957343	0.460732156	0.005851130	0.060365031	0.018605089
2019-09-06T17:10:00	0.1812	12.653	41.0	0.409247181	0.464461721	0.005920600	0.061081736	0.018825984
2019-09-06T17:15:00	0.1804	12.635	44.3	0.406827178	0.460520581	0.005847196	0.060324444	0.018592580
2019-09-06T17:20:00	0.1802	12.613	45.7	0.406346118	0.459739054	0.005832671	0.060174587	0.018546392
2019-09-06T17:25:00	0.1818	12.604	45.8	0.410850891	0.467082321	0.005969550	0.061586742	0.018981632
2019-09-06T17:30:00	0.1798	12.583	49.9	0.405383556	0.458177182	0.005803672	0.059875413	0.018454184
2019-09-06T17:35:00	0.1810	12.570	49.5	0.408506816	0.463254282	0.005898084	0.060849446	0.018754390
2019-09-06T17:40:00	0.1831	12.552	49.7	0.414385801	0.472883614	0.006078310	0.062708800	0.019327461
2019-09-06T17:45:00	0.1834	12.514	47.7	0.415286595	0.474367443	0.006106215	0.062996699	0.019416195
2019-09-06T17:50:00	0.1838	12.510	47.4	0.416462499	0.476307806	0.006142761	0.063373731	0.019532400
2019-09-06T17:55:00	0.1840	12.484	55.6	0.416811158	0.476883862	0.006153622	0.063485785	0.019566936
2019-09-06T18:00:00	0.1841	12.468	54.5	0.417159741	0.477460127	0.006164493	0.063597935	0.019601501
2019-09-06T18:05:00	0.1834	12.445	54.9	0.415303432	0.474395198	0.006106738	0.063002088	0.019417855
2019-09-06T18:10:00	0.1838	12.413	55.2	0.416479324	0.476335596	0.006143285	0.063379136	0.019534065
2019-09-06T18:15:00	0.1857	12.388	54.9	0.421505182	0.484672011	0.006300986	0.065006113	0.020035515
2019-09-06T18:20:00	0.1869	12.377	59.2	0.424871349	0.490294537	0.006407973	0.066109874	0.020375705
2019-09-06T18:25:00	0.1860	12.333	59.2	0.422474840	0.486288418	0.006331692	0.065322902	0.020133153
2019-09-06T18:30:00	0.1865	12.344	58.6	0.423645521	0.488243397	0.006368885	0.065706616	0.020251417
2019-09-06T18:35:00	0.1875	12.317	57.6	0.426459571	0.492958252	0.006458833	0.066634585	0.020537426
2019-09-06T18:40:00	0.1882	12.313	58.0	0.428448299	0.496303553	0.006522864	0.067295183	0.020741029
2019-09-06T18:45:00	0.1882	12.307	61.0	0.428520864	0.496425825	0.006525207	0.067319362	0.020748481
2019-09-06T18:50:00	0.1885	12.281	62.1	0.429140417	0.497470363	0.006545238	0.067526018	0.020812174
2019-09-06T18:55:00	0.1886	12.275	62.6	0.429486366	0.498054083	0.006556440	0.067641579	0.020847792
2019-09-06T19:00:00	0.1884	12.259	65.0	0.429012033	0.497253827	0.006541084	0.067483163	0.020798966
2019-09-06T19:05:00	0.1890	12.254	67.8	0.430724513	0.500145931	0.006596625	0.068056161	0.020975570
2019-09-06T19:10:00	0.1899	12.230	70.8	0.432980937	0.503969131	0.006670245	0.068815684	0.021209662
2019-09-06T19:15:00	0.1880	12.230	74.6	0.427861899	0.495316010	0.006503943	0.067099985	0.020680867
2019-09-06T19:20:00	0.1887	12.204	74.8	0.429848930	0.498666193	0.006568191	0.067762820	0.020885159
2019-09-06T19:25:00	0.1897	12.198	77.1	0.432652377	0.503411549	0.006659494	0.068704769	0.021175477
2019-09-06T19:30:00	0.1894	12.185	72.8	0.431632969	0.501683480	0.006626205	0.068361332	0.021069627
2019-09-06T19:35:00	0.1900	12.174	72.7	0.433342735	0.504583467	0.006682095	0.068937946	0.021247345
2019-09-06T19:40:00	0.1885	12.177	71.0	0.429318866	0.497771420	0.006551015	0.067585612	0.020830542
2019-09-06T19:45:00	0.1909	12.125	73.7	0.435940205	0.509004710	0.006767554	0.069819606	0.021519081
2019-09-06T19:50:00	0.1908	12.139	75.6	0.435467718	0.508199072	0.006751959	0.069658720	0.021469494
2019-09-06T19:55:00	0.1908	12.149	80.4	0.435539976	0.508322238	0.006754343	0.069683310	0.021477073
2019-09-06T20:00:00	0.1922	12.139	77.4	0.439421250	0.514959456	0.006883126	0.071011941	0.021886570
2019-09-06T20:05:00	0.1914	12.137	81.2	0.437045783	0.510892264	0.006804130	0.070196953	0.021635383
2019-09-06T20:10:00	0.1913	12.117	84.1	0.436845813	0.510550602	0.006797505	0.070128609	0.021614318
2019-09-06T20:15:00	0.1911	12.105	81.8	0.436373582	0.509744207	0.006781877	0.069967375	0.021564624
2019-09-06T20:20:00	0.1914	12.097	81.8	0.437262342	0.511262396	0.006811308	0.070271013	0.021658209
2019-09-06T20:25:00	0.1924	12.090	81.5	0.439781655	0.515577907	0.006895160	0.071136094	0.021924835
2019-09-06T20:30:00	0.1925	12.084	81.2	0.440125398	0.516168106	0.006906650	0.071254632	0.021961369
2019-09-06T20:35:00	0.1928	12.065	83.4	0.441012172	0.517692203	0.006936344	0.071560987	0.022055791
2019-09-06T20:40:00	0.1925	12.055	80.6	0.440269509	0.516415639	0.006911470	0.071304363	0.021976697
2019-09-06T20:45:00	0.1926	12.052	81.3	0.440341559	0.516539419	0.006913881	0.071329235	0.021984363
2019-09-06T20:50:00	0.1909	12.041	85.8	0.435789984	0.508748500	0.006762593	0.069768430	0.021503308
2019-09-06T20:55:00	0.1920	12.041	84.5	0.438855311	0.513989044	0.006864255	0.070817253	0.021826565
2019-09-06T21:00:00	0.1903	12.036	84.9	0.434299682	0.506210130	0.006713502	0.069261967	0.021347211
2019-09-06T21:05:00	0.1918	12.018	89.5	0.438183837	0.512838831	0.006841906	0.070586684	0.021755502
2019-09-06T21:10:00	0.1920	12.003	92.0	0.438799794	0.513893896	0.006862406	0.070798173	0.021820684
2019-09-06T21:15:00	0.1931	11.995	95.6	0.442082695	0.519150440	0.006967135	0.071878645	0.022153696
2019-09-06T21:20:00	0.1902	11.995	96.9	0.433771044	0.505311210	0.006696141	0.069082856	0.021292007
2019-09-06T21:25:00	0.1906	11.985	97.0	0.434933710	0.507289286	0.006734361	0.069477158	0.021413535
2019-09-06T21:30:00	0.1902	11.980	93.4	0.433915703	0.505557118	0.006700889	0.069131841	0.021307105
2019-09-06T21:35:00	0.1902	11.973	93.4	0.433988029	0.505680086	0.006703264	0.069156339	0.021314655
2019-09-06T21:40:00	0.1897	11.964	94.9	0.432423719	0.503023683	0.006652018	0.068627643	0.021151706
2019-09-06T21:45:00	0.1916	11.958	96.3	0.437673036	0.511964693	0.006824935	0.070411595	0.021701538
2019-09-06T21:50:00	0.1908	11.958	95.7	0.435567496	0.508369151	0.006755251	0.069692676	0.021479960
2019-09-06T21:55:00	0.1905	11.949	95.8	0.434822412	0.507099769	0.006730696	0.069439354	0.021401883
2019-09-06T22:00:00	0.1911	11.941	97.6	0.436256644	0.509544617	0.006778010	0.069927484	0.021552330
2019-09-06T22:05:00	0.1893	11.944	96.7	0.431423284	0.501328387	0.006619370	0.068290820	0.021047894
2019-09-06T22:10:00	0.1894	11.940	98.9	0.431771198	0.501917632	0.006630713	0.068407840	0.021083961
2019-09-06T22:15:00	0.1878	11.923	100.3	0.427472234	0.494660312	0.006491389	0.066970466	0.020640948
2019-09-06T22:20:00	0.1882	11.925	101.4	0.428368232	0.496168658	0.006520278	0.067268510	0.020732808
2019-09-06T22:25:00	0.1874	11.925	103.0	0.426253258	0.492611836	0.006452212	0.066566281	0.020516374
2019-09-06T22:30:00	0.1885	11.923	106.4	0.429338717	0.497804915	0.006551658	0.067592243	0.020832586
2019-09-06T22:35:00	0.1865	11.915	107.7	0.423662115	0.488271136	0.006369414	0.065712065	0.020253097
2019-09-06T22:40:00	0.1863	11.908	107.5	0.423188546	0.487479821	0.006354351	0.065556671	0.020205203
2019-09-06T22:45:00	0.1861	11.907	107.2	0.422714839	0.486688897	0.006339306	0.065401455	0.020157364
2019-09-06T22:50:00	0.1859	11.903	107.0	0.422240994	0.485898363	0.006324279	0.065246419	0.020109580
2019-09-06T22:55:00	0.1854	11.907	106.6	0.420667888	0.483278344	0.006274545	0.064733321	0.019951438
2019-09-06T23:00:00	0.1840	11.894	105.0	0.416890611	0.477015181	0.006156099	0.063511337	0.019574811
2019-09-06T23:05:00	0.1836	11.870	106.4	0.415863757	0.475319344	0.006124136	0.063181585	0.019473178
2019-09-06T23:10:00	0.1849	11.866	107.9	0.419519230	0.481369568	0.006238380	0.064360221	0.019836445
2019-09-06T23:15:00	0.1842	11.880	108.8	0.417392701	0.477845435	0.006171764	0.063672952	0.019624622
2019-09-06T23:20:00	0.1840	11.867	106.6	0.416917292	0.477059283	0.006156931	0.063519919	0.019577456
2019-09-06T23:25:00	0.1846	11.874	105.2	0.418644997	0.479919257	0.006210941	0.064077136	0.019749196
2019-09-06T23:30:00	0.1833	11.878	106.0	0.414862961	0.473669335	0.006093082	0.062861203	0.019374433
2019-09-06T23:35:00	0.1838	11.874	102.3	0.416317283	0.476067979	0.006138241	0.063327097	0.019518026
2019-09-06T23:40:00	0.1833	11.870	104.8	0.415014245	0.473918580	0.006097770	0.062909570	0.019389340
2019-09-06T23:45:00	0.1838	11.868	103.8	0.416468430	0.476317602	0.006142946	0.063375636	0.019532987
2019-09-06T23:50:00	0.1833	11.860	106.0	0.414889676	0.473713344	0.006093910	0.062869743	0.019377065
2019-09-06T23:55:00	0.1834	11.864	104.8	0.415241144	0.474292520	0.006104806	0.062982154	0.019411711
2019-09-07T00:00:00	0.1832	11.856	107.2	0.414765097	0.473508135	0.006090050	0.062829927	0.019364794
2019-09-07T00:05:00	0.1824	11.853	108.2	0.412355972	0.469548175	0.006015711	0.062062985	0.019128415
2019-09-07T00:10:00	0.1832	11.844	110.1	0.414640508	0.473302953	0.006086192	0.062790125	0.019352526
2019-09-07T00:15:00	0.1839	11.836	109.9	0.416646248	0.476611355	0.006148483	0.063432771	0.019550596
2019-09-07T00:20:00	0.1812	11.834	110.8	0.409264646	0.464490223	0.005921131	0.061087222	0.018827675
2019-09-07T00:25:00	0.1821	11.832	107.3	0.411553623	0.468232870	0.005991076	0.061808826	0.019050081
2019-09-07T00:30:00	0.1824	11.832	106.8	0.412458490	0.469716362	0.006018864	0.062095505	0.019138438
2019-09-07T00:35:00	0.1831	11.825	104.3	0.414466968	0.473017224	0.006080821	0.062734708	0.019335446
2019-09-07T00:40:00	0.1814	11.825	102.8	0.409845028	0.465437830	0.005938819	0.061269703	0.018883917
2019-09-07T00:45:00	0.1816	11.820	104.4	0.410197612	0.466013955	0.005949580	0.061380721	0.018918134
2019-09-07T00:50:00	0.1810	11.834	105.4	0.408612626	0.463426752	0.005901299	0.060882611	0.018764612
2019-09-07T00:55:00	0.1808	11.839	108.4	0.408134589	0.462647796	0.005886784	0.060732862	0.018718458
2019-09-07T01:00:00	0.1828	11.821	110.3	0.413465297	0.471369626	0.006049873	0.062415427	0.019237041
2019-09-07T01:05:00	0.1821	11.831	112.7	0.411607163	0.468320584	0.005992718	0.061825766	0.019055302
2019-09-07T01:10:00	0.1817	11.832	114.7	0.410576904	0.466634103	0.005961169	0.061500285	0.018954985
2019-09-07T01:15:00	0.1819	11.835	118.2	0.411205850	0.467663309	0.005980417	0.061698859	0.019016188
2019-09-07T01:20:00	0.1826	11.835	118.7	0.412939731	0.470506253	0.006033674	0.062248300	0.019185530
2019-09-07T01:25:00	0.1844	11.848	122.1	0.417979117	0.478816011	0.006190091	0.063862027	0.019682897
2019-09-07T01:30:00	0.1821	11.840	122.3	0.411709730	0.468488639	0.005995864	0.061858226	0.019065306
2019-09-07T01:35:00	0.1825	11.845	123.6	0.412890740	0.470425813	0.006032165	0.062232735	0.019180733
2019-09-07T01:40:00	0.1844	11.857	122.3	0.417930280	0.478735145	0.006188563	0.063846268	0.019678040
2019-09-07T01:45:00	0.1838	11.856	121.8	0.416352964	0.476126901	0.006139351	0.063338553	0.019521557
2019-09-07T01:50:00	0.1828	11.861	123.4	0.413670184	0.471706410	0.006056196	0.062480654	0.019257145
2019-09-07T01:55:00	0.1851	11.857	126.1	0.419807733	0.481848643	0.006247452	0.064453807	0.019865289
2019-09-07T02:00:00	0.1841	11.860	126.4	0.417130724	0.477412144	0.006163587	0.063588595	0.019598622
2019-09-07T02:05:00	0.1843	11.864	129.0	0.417757095	0.478448432	0.006183148	0.063790402	0.019660821
2019-09-07T02:10:00	0.1838	11.864	130.1	0.416455226	0.476295794	0.006142534	0.063371395	0.019531679
2019-09-07T02:15:00	0.1844	11.837	129.1	0.417908107	0.478698432	0.006187870	0.063839114	0.019675835
2019-09-07T02:20:00	0.1850	11.847	128.2	0.419634750	0.481561367	0.006242012	0.064397684	0.019847992
2019-09-07T02:25:00	0.1831	11.849	129.7	0.414475969	0.473032042	0.006081099	0.062737582	0.019336332
2019-09-07T02:30:00	0.1824	11.853	128.1	0.412619014	0.469979769	0.006023801	0.062146446	0.019154138
2019-09-07T02:35:00	0.1829	11.852	129.5	0.413799351	0.471918788	0.006060184	0.062521797	0.019269825
2019-09-07T02:40:00	0.1825	11.852	131.7	0.412770510	0.470228429	0.006028463	0.062194546	0.019168963
2019-09-07T02:45:00	0.1837	11.855	130.6	0.416157412	0.475804014	0.006133266	0.063275779	0.019502210
2019-09-07T02:50:00	0.1818	11.853	129.1	0.410710834	0.466853173	0.005965265	0.061542538	0.018968008
2019-09-07T02:55:00	0.1821	11.843	128.7	0.411616180	0.468335357	0.005992995	0.061828620	0.019056181
2019-09-07T03:00:00	0.1811	11.836	130.2	0.408925403	0.463936759	0.005910808	0.060980712	0.018794848
2019-09-07T03:05:00	0.1809	11.819	131.0	0.408447461	0.463157547	0.005896281	0.060830846	0.018748658
2019-09-07T03:10:00	0.1825	11.806	133.8	0.412672518	0.470067581	0.006025448	0.062163431	0.019159373
2019-09-07T03:15:00	0.1825	11.796	135.2	0.412748266	0.470191913	0.006027779	0.062187482	0.019166786
2019-09-07T03:20:00	0.1839	11.790	136.0	0.416686416	0.476677724	0.006149735	0.063445681	0.019554575
2019-09-07T03:25:00	0.1826	11.772	136.4	0.413175933	0.470894181	0.006040951	0.062323377	0.019208670
2019-09-07T03:30:00	0.1839	11.776	138.0	0.416561977	0.476472129	0.006145859	0.063405690	0.019542249
2019-09-07T03:35:00	0.1818	11.766	138.8	0.410840241	0.467064894	0.005969224	0.061583380	0.018980596
2019-09-07T03:40:00	0.1846	11.758	140.3	0.418640788	0.479912281	0.006210809	0.064075775	0.019748776
2019-09-07T03:45:00	0.1831	11.757	142.1	0.414306911	0.472753770	0.006075869	0.062683624	0.019319702
2019-09-07T03:50:00	0.1814	11.756	142.9	0.409684506	0.465175649	0.005933924	0.061219199	0.018868352
2019-09-07T03:55:00	0.1816	11.744	143.1	0.410313806	0.466203892	0.005953129	0.061417334	0.018929419
2019-09-07T04:00:00	0.1815	11.747	143.9	0.410112999	0.465875666	0.005946997	0.061354068	0.018909920
2019-09-07T04:05:00	0.1827	11.748	145.9	0.413429833	0.471311344	0.006048779	0.062404141	0.019233562
2019-09-07T04:10:00	0.1810	11.747	146.4	0.408728937	0.463616374	0.005904834	0.060919080	0.018775852
2019-09-07T04:15:00	0.1826	11.746	146.8	0.413153694	0.470857649	0.006040266	0.062316306	0.019206491
2019-09-07T04:20:00	0.1818	11.746	145.9	0.410942857	0.467232814	0.005972364	0.061615778	0.018990581
2019-09-07T04:25:00	0.1816	11.742	145.6	0.410389667	0.466327917	0.005955447	0.061441245	0.018936788
2019-09-07T04:30:00	0.1821	11.731	146.1	0.411772281	0.468591144	0.005997784	0.061878027	0.019071409
2019-09-07T04:35:00	0.1799	11.723	146.9	0.405679722	0.458657476	0.005812585	0.059967368	0.018482525
2019-09-07T04:40:00	0.1802	11.730	148.9	0.406511911	0.460008329	0.005837674	0.060226209	0.018562302
2019-09-07T04:45:00	0.1812	11.724	151.1	0.409282707	0.464519697	0.005921681	0.061092896	0.018829424
2019-09-07T04:50:00	0.1812	11.724	152.1	0.409282707	0.464519697	0.005921681	0.061092896	0.018829424
2019-09-07T04:55:00	0.1803	11.735	152.8	0.406789210	0.460458875	0.005846049	0.060312608	0.018588932
2019-09-07T05:00:00	0.1801	11.726	153.9	0.406234564	0.459557913	0.005829305	0.060139869	0.018535692
2019-09-07T05:05:00	0.1810	11.739	153.7	0.408728937	0.463616374	0.005904834	0.060919080	0.018775852
2019-09-07T05:10:00	0.1801	11.728	153.6	0.406234564	0.459557913	0.005829305	0.060139869	0.018535692
2019-09-07T05:15:00	0.1808	11.739	168.3	0.408174972	0.462713576	0.005888009	0.060745503	0.018722354
2019-09-07T05:20:00	0.1815	11.735	168.5	0.410112999	0.465875666	0.005946997	0.061354068	0.018909920
2019-09-07T05:25:00	0.1802	11.716	168.4	0.406511911	0.460008329	0.005837674	0.060226209	0.018562302
2019-09-07T05:30:00	0.1807	11.723	170.2	0.407897917	0.462262373	0.005879605	0.060658805	0.018695633
2019-09-07T05:35:00	0.1806	11.729	170.4	0.407620813	0.461811302	0.005871208	0.060572166	0.018668930
2019-09-07T05:40:00	0.1815	11.732	174.0	0.410112999	0.465875666	0.005946997	0.061354068	0.018909920
2019-09-07T05:45:00	0.1802	11.732	174.3	0.406511911	0.460008329	0.005837674	0.060226209	0.018562302
2019-09-07T05:50:00	0.1810	11.736	174.0	0.408728937	0.463616374	0.005904834	0.060919080	0.018775852
2019-09-07T05:55:00	0.1803	11.737	175.2	0.406789210	0.460458875	0.005846049	0.060312608	0.018588932
2019-09-07T06:00:00	0.1809	11.735	176.1	0.408451979	0.463164909	0.005896418	0.060832262	0.018749094
2019-09-07T06:05:00	0.1815	11.739	176.3	0.410112999	0.465875666	0.005946997	0.061354068	0.018909920
2019-09-07T06:10:00	0.1814	11.746	176.7	0.409836283	0.465423545	0.005938552	0.061266951	0.018883069
2019-09-07T06:15:00	0.1823	11.747	178.3	0.412324990	0.469497352	0.006014759	0.062053159	0.019125386
2019-09-07T06:20:00	0.1812	11.749	181.0	0.409282707	0.464519697	0.005921681	0.061092896	0.018829424
2019-09-07T06:25:00	0.1834	11.749	184.3	0.415361470	0.474490879	0.006108538	0.063020666	0.019423581
2019-09-07T06:30:00	0.1833	11.756	199.4	0.415085664	0.474036266	0.006099984	0.062932411	0.019396380
2019-09-07T06:35:00	0.1840	11.765	186.4	0.417015305	0.477221311	0.006159987	0.063551451	0.019587174
2019-09-07T06:40:00	0.1831	11.773	195.5	0.414533911	0.473127434	0.006082893	0.062756082	0.019342034
2019-09-07T06:45:00	0.1847	11.772	191.8	0.418942632	0.480412782	0.006220275	0.064173428	0.019778874
2019-09-07T06:50:00	0.1844	11.783	190.8	0.418116917	0.479044222	0.006194402	0.063906507	0.019696606
2019-09-07T06:55:00	0.1852	11.794	190.7	0.420317884	0.482696340	0.006263512	0.064619496	0.019916356
2019-09-07T07:00:00	0.1870	11.802	178.7	0.425259150	0.490944299	0.006420369	0.066237761	0.020415121
2019-09-07T07:05:00	0.1880	11.809	191.9	0.427997841	0.495544863	0.006508327	0.067145206	0.020694805
2019-09-07T07:10:00	0.1877	11.818	191.7	0.427176715	0.494163316	0.006481878	0.066872341	0.020610705
2019-09-07T07:15:00	0.1868	11.832	191.4	0.424710861	0.490025761	0.006402847	0.066056993	0.020359407
2019-09-07T07:20:00	0.1876	11.846	191.1	0.426902915	0.493703063	0.006473074	0.066781507	0.020582709
2019-09-07T07:25:00	0.1881	11.853	178.9	0.428271459	0.496005640	0.006517154	0.067236281	0.020722875
2019-09-07T07:30:00	0.1864	11.859	191.1	0.423613730	0.488190257	0.006367874	0.065696178	0.020248200
2019-09-07T07:35:00	0.1879	11.874	191.2	0.427724178	0.495084216	0.006499505	0.067054191	0.020666753
2019-09-07T07:40:00	0.1897	11.889	191.1	0.432643167	0.503395924	0.006659192	0.068701661	0.021174519
2019-09-07T07:45:00	0.1886	11.904	191.5	0.429638863	0.498311497	0.006561381	0.067692558	0.020863504
2019-09-07T07:50:00	0.1888	11.919	191.6	0.430185507	0.499234757	0.006579112	0.067875490	0.020919885
2019-09-07T07:55:00	0.1880	11.938	191.7	0.427997841	0.495544863	0.006508327	0.067145206	0.020694805
2019-09-07T08:00:00	0.1887	11.952	191.7	0.429912208	0.498773062	0.006570244	0.067783994	0.020891685
2019-09-07T08:05:00	0.1892	11.970	191.4	0.431278252	0.501082853	0.006614645	0.068242075	0.021032870
2019-09-07T08:10:00	0.1909	11.989	190.6	0.435914388	0.508960673	0.006766701	0.069810809	0.021516369
2019-09-07T08:15:00	0.1922	12.003	189.2	0.439450984	0.515010466	0.006884118	0.071022179	0.021889725
2019-09-07T08:20:00	0.1918	12.017	189.1	0.438363596	0.513146630	0.006847885	0.070648365	0.021774512
2019-09-07T08:25:00	0.1923	12.032	189.6	0.439722721	0.515476752	0.006893191	0.071115784	0.021918575
2019-09-07T08:30:00	0.1916	12.044	190.4	0.437819638	0.512215499	0.006829803	0.070461819	0.021717017
2019-09-07T08:35:00	0.1916	12.064	189.2	0.437819638	0.512215499	0.006829803	0.070461819	0.021717017
2019-09-07T08:40:00	0.1914	12.089	189.6	0.437275502	0.511284893	0.006811745	0.070275515	0.021659596
2019-09-07T08:45:00	0.1921	12.118	190.2	0.439179203	0.514544310	0.006875051	0.070928635	0.021860894
2019-09-07T08:50:00	0.1930	12.147	190.4	0.441778900	0.518744266	0.006958494	0.071789501	0.022126221
2019-09-07T08:55:00	0.1944	12.165	190.7	0.446666895	0.525288318	0.007098156	0.073230370	0.022570311
2019-09-07T09:00:00	0.1929	12.178	191.1	0.441429484	0.518277187	0.006948562	0.071687037	0.022094641
2019-09-07T09:05:00	0.1929	12.190	191.7	0.441429484	0.518277187	0.006948562	0.071687037	0.022094641
2019-09-07T09:10:00	0.1928	12.203	191.7	0.441080747	0.517810154	0.006938644	0.071584711	0.022063103
2019-09-07T09:15:00	0.1901	12.210	191.8	0.433734290	0.505248741	0.006694935	0.069070414	0.021288172
2019-09-07T09:20:00	0.1923	12.214	192.0	0.439722721	0.515476752	0.006893191	0.071115784	0.021918575
2019-09-07T09:25:00	0.1913	12.214	192.2	0.437003368	0.510819786	0.006802724	0.070182453	0.021630914
2019-09-07T09:30:00	0.1928	12.220	192.2	0.441080747	0.517810154	0.006938644	0.071584711	0.022063103
2019-09-07T09:35:00	0.1902	12.231	192.5	0.434006959	0.505712274	0.006703886	0.069162752	0.021316632
2019-09-07T09:40:00	0.1920	12.239	192.6	0.438907378	0.514078285	0.006865990	0.070835151	0.021832082
2019-09-07T09:45:00	0.1920	12.238	192.7	0.438907378	0.514078285	0.006865990	0.070835151	0.021832082
2019-09-07T09:50:00	0.1910	12.233	192.7	0.436186700	0.509425254	0.006775698	0.069903630	0.021544978
2019-09-07T09:55:00	0.1909	12.233	192.7	0.435914388	0.508960673	0.006766701	0.069810809	0.021516369
2019-09-07T10:00:00	0.1889	12.231	192.9	0.430458761	0.499696585	0.006587987	0.067967046	0.020948104
2019-09-07T10:05:00	0.1900	12.230	192.9	0.433227438	0.504387651	0.006678317	0.068898970	0.021235332
2019-09-07T10:10:00	0.1894	12.224	192.9	0.431628640	0.501676147	0.006626064	0.068359876	0.021069178
2019-09-07T10:15:00	0.1896	12.216	192.9	0.432213268	0.502666831	0.006645142	0.068556705	0.021129842
2019-09-07T10:20:00	0.1905	12.213	192.9	0.434706508	0.506902444	0.006726882	0.069399998	0.021389753
2019-09-07T10:25:00	0.1904	12.212	193.0	0.434472544	0.506504241	0.006719185	0.069320596	0.021365281
2019-09-07T10:30:00	0.1909	12.216	193.1	0.435873394	0.508890752	0.006765347	0.069796843	0.021512065
2019-09-07T10:35:00	0.1895	12.225	193.3	0.432094894	0.502466162	0.006641276	0.068516824	0.021117550
2019-09-07T10:40:00	0.1898	12.221	193.4	0.432679358	0.503457325	0.006660376	0.068713873	0.021178283
2019-09-07T10:45:00	0.1893	12.214	193.3	0.431353136	0.501209621	0.006617084	0.068267241	0.021040627
2019-09-07T10:50:00	0.1910	12.217	193.3	0.436027618	0.509153825	0.006770441	0.069849396	0.021528262
2019-09-07T10:55:00	0.1888	12.217	193.3	0.430064542	0.499030380	0.006575186	0.067834983	0.020907401
2019-09-07T11:00:00	0.1886	12.222	193.5	0.429556563	0.498172567	0.006558714	0.067665043	0.020855023
2019-09-07T11:05:00	0.1893	12.223	193.5	0.431507780	0.501471463	0.006622124	0.068319229	0.021056650
2019-09-07T11:10:00	0.1887	12.233	193.7	0.429907317	0.498764800	0.006570085	0.067782357	0.020891181
2019-09-07T11:15:00	0.1887	12.246	193.8	0.429672674	0.498368577	0.006562477	0.067703864	0.020866988
2019-09-07T11:20:00	0.1865	12.260	193.9	0.423686510	0.488311915	0.006370190	0.065720076	0.020255566
2019-09-07T11:25:00	0.1876	12.273	194.0	0.426740486	0.493430122	0.006467854	0.066727656	0.020566112
2019-09-07T11:30:00	0.1878	12.286	194.1	0.427326853	0.494415784	0.006486709	0.066922182	0.020626067
2019-09-07T11:35:00	0.1877	12.298	194.1	0.427091841	0.494020623	0.006479148	0.066844176	0.020602024
2019-09-07T11:40:00	0.1871	12.308	194.0	0.425487069	0.491326372	0.006427661	0.066312993	0.020438309
2019-09-07T11:45:00	0.1851	12.312	194.0	0.420035545	0.482227101	0.006254620	0.064527765	0.019888084
2019-09-07T11:50:00	0.1865	12.323	194.1	0.423645210	0.488242877	0.006368875	0.065706514	0.020251386
2019-09-07T11:55:00	0.1839	12.331	194.2	0.416534853	0.476427322	0.006145014	0.063396975	0.019539563
2019-09-07T12:00:00	0.1852	12.346	194.3	0.420152336	0.482421177	0.006258297	0.064565700	0.019899776
2019-09-07T12:05:00	0.1871	12.352	194.3	0.425407012	0.491192152	0.006425099	0.066286562	0.020430162
2019-09-07T12:10:00	0.1850	12.354	194.2	0.419680201	0.481636841	0.006243441	0.064412427	0.019852536
2019-09-07T12:15:00	0.1865	12.363	194.2	0.423839423	0.488567571	0.006375059	0.065770304	0.020271046
2019-09-07T12:20:00	0.1856	12.376	194.4	0.421407410	0.484509170	0.006297895	0.064974223	0.020025686
2019-09-07T12:25:00	0.1862	12.381	194.4	0.423093922	0.487321781	0.006351344	0.065525648	0.020195641
2019-09-07T12:30:00	0.1848	12.393	194.5	0.419010697	0.480525680	0.006222410	0.064195461	0.019785665
2019-09-07T12:35:00	0.1842	12.402	194.6	0.417397911	0.477854054	0.006171927	0.063674631	0.019625140
2019-09-07T12:40:00	0.1853	12.411	194.7	0.420463736	0.482938829	0.006268108	0.064666914	0.019930971
2019-09-07T12:45:00	0.1851	12.426	194.7	0.419952759	0.482089554	0.006252015	0.064500883	0.019879799
2019-09-07T12:50:00	0.1852	12.447	194.8	0.420266658	0.482611187	0.006261898	0.064602847	0.019911225
2019-09-07T12:55:00	0.1850	12.449	194.8	0.419755619	0.481762088	0.006245812	0.064436896	0.019860077
2019-09-07T13:00:00	0.1845	12.436	194.8	0.418418858	0.479544449	0.006203856	0.064004034	0.019726665
2019-09-07T13:05:00	0.1843	12.428	194.8	0.417631866	0.478241162	0.006179235	0.063750024	0.019648376
2019-09-07T13:10:00	0.1847	12.424	194.8	0.418772018	0.480129848	0.006214923	0.064118220	0.019761858
2019-09-07T13:15:00	0.1848	12.425	194.8	0.419086146	0.480650839	0.006224778	0.064219889	0.019793194
2019-09-07T13:20:00	0.1829	12.417	194.8	0.413888989	0.472066199	0.006062952	0.062550358	0.019278628
2019-09-07T13:25:00	0.1834	12.415	194.8	0.415307618	0.474402099	0.006106868	0.063003428	0.019418268
2019-09-07T13:30:00	0.1836	12.412	194.8	0.415898137	0.475376074	0.006125205	0.063192608	0.019476576
2019-09-07T13:35:00	0.1830	12.410	194.9	0.414282219	0.472713132	0.006075106	0.062675745	0.019317273
2019-09-07T13:40:00	0.1847	12.411	194.9	0.418730593	0.480061164	0.006213625	0.064104819	0.019757728
2019-09-07T13:45:00	0.1845	12.412	195.0	0.418219067	0.479213426	0.006197599	0.063939491	0.019706772
2019-09-07T13:50:00	0.1841	12.413	194.9	0.417156527	0.477454813	0.006164392	0.063596900	0.019601182
2019-09-07T13:55:00	0.1847	12.421	194.9	0.418847478	0.480254976	0.006217290	0.064142634	0.019769383
2019-09-07T14:00:00	0.1851	12.428	195.0	0.419986771	0.482146062	0.006253085	0.064511926	0.019883202
2019-09-07T14:05:00	0.1851	12.436	195.0	0.420025703	0.482210748	0.006254311	0.064524569	0.019887099
2019-09-07T14:10:00	0.1850	12.444	195.0	0.419789635	0.481818584	0.006246882	0.064447934	0.019863479
2019-09-07T14:15:00	0.1857	12.454	195.0	0.421477830	0.484626454	0.006300121	0.064997191	0.020032765
2019-09-07T14:20:00	0.1848	12.464	195.1	0.419042267	0.480578048	0.006223401	0.064205682	0.019788815
2019-09-07T14:25:00	0.1867	12.472	195.1	0.424300533	0.489338890	0.006389753	0.065921907	0.020317772
2019-09-07T14:30:00	0.1847	12.482	195.2	0.418845016	0.480250893	0.006217213	0.064141837	0.019769137
2019-09-07T14:35:00	0.1840	12.489	195.2	0.416956579	0.477124226	0.006158156	0.063532557	0.019581351
2019-09-07T14:40:00	0.1858	12.489	195.2	0.421946983	0.485408166	0.006314965	0.065150334	0.020079966
2019-09-07T14:45:00	0.1857	12.480	195.2	0.421711195	0.485015214	0.006307502	0.065073339	0.020056235
2019-09-07T14:50:00	0.1847	12.470	195.1	0.418725668	0.480052999	0.006213470	0.064103226	0.019757237
2019-09-07T14:55:00	0.1854	12.460	195.1	0.420689868	0.483314905	0.006275238	0.064740473	0.019953643
2019-09-07T15:00:00	0.1850	12.451	195.1	0.419628955	0.481551746	0.006241830	0.064395804	0.019847412
2019-09-07T15:05:00	0.1850	12.455	195.2	0.419667896	0.481616408	0.006243054	0.064408436	0.019851305
2019-09-07T15:10:00	0.1848	12.466	195.3	0.419156668	0.480767839	0.006226992	0.064242728	0.019800233
2019-09-07T15:15:00	0.1864	12.479	195.3	0.423591634	0.488153326	0.006367170	0.065688924	0.020245964
2019-09-07T15:20:00	0.1866	12.484	195.4	0.424179133	0.489135761	0.006385882	0.065881973	0.020305464
2019-09-07T15:25:00	0.1863	12.492	195.4	0.423120500	0.487366170	0.006352189	0.065534361	0.020198327
2019-09-07T15:30:00	0.1861	12.502	195.4	0.422610361	0.486514538	0.006335991	0.065367252	0.020146822
2019-09-07T15:35:00	0.1847	12.503	195.4	0.418801130	0.480178120	0.006215836	0.064127638	0.019764761
2019-09-07T15:40:00	0.1857	12.496	195.4	0.421589601	0.484812632	0.006303656	0.065033655	0.020044004
2019-09-07T15:45:00	0.1855	12.474	195.3	0.421078979	0.483962359	0.006287518	0.064867168	0.019992691
2019-09-07T15:50:00	0.1843	12.444	195.2	0.417816947	0.478547508	0.006185019	0.063809705	0.019666771
2019-09-07T15:55:00	0.1842	12.420	195.1	0.417580554	0.478156248	0.006177631	0.063733484	0.019643279
2019-09-07T16:00:00	0.1844	12.392	195.0	0.417894915	0.478676590	0.006187457	0.063834857	0.019674523
2019-09-07T16:05:00	0.1837	12.373	194.9	0.416005361	0.475553029	0.006128538	0.063226996	0.019487174
2019-09-07T16:10:00	0.1834	12.363	194.9	0.415217185	0.474253026	0.006104062	0.062974487	0.019409348
2019-09-07T16:15:00	0.1842	12.356	194.9	0.417461113	0.477958615	0.006173900	0.063694992	0.019631415
2019-09-07T16:20:00	0.1830	12.355	194.4	0.414191727	0.472564220	0.006072308	0.062646877	0.019308376
2019-09-07T16:25:00	0.1843	12.353	194.6	0.417814483	0.478543430	0.006184942	0.063808911	0.019666526
2019-09-07T16:30:00	0.1842	12.350	194.7	0.417578090	0.478152170	0.006177554	0.063732689	0.019643034
2019-09-07T16:35:00	0.1835	12.348	194.8	0.415412414	0.474574875	0.006110119	0.063036976	0.019428608
2019-09-07T16:40:00	0.1828	12.338	194.8	0.413519930	0.471459418	0.006051559	0.062432816	0.019242400
2019-09-07T16:45:00	0.1843	12.333	194.7	0.417695059	0.478345749	0.006181209	0.063770397	0.019654656
2019-09-07T16:50:00	0.1850	12.323	194.4	0.419660513	0.481604147	0.006242822	0.064406041	0.019850567
2019-09-07T16:55:00	0.1857	12.316	194.4	0.421623578	0.484869236	0.006304731	0.065044743	0.020047421
2019-09-07T17:00:00	0.1856	12.309	194.3	0.421387743	0.484476417	0.006297273	0.064967809	0.020023710
2019-09-07T17:05:00	0.1839	12.295	194.4	0.416749210	0.476781486	0.006151691	0.063465867	0.019560797
2019-09-07T17:10:00	0.1850	12.283	194.4	0.419541226	0.481406085	0.006239072	0.064367353	0.019838643
2019-09-07T17:15:00	0.1861	12.273	194.4	0.422602991	0.486502240	0.006335757	0.065364840	0.020146078
2019-09-07T17:20:00	0.1838	12.258	194.3	0.416315098	0.476064370	0.006138173	0.063326395	0.019517810
2019-09-07T17:25:00	0.1857	12.245	194.3	0.421582226	0.484800347	0.006303423	0.065031249	0.020043263
2019-09-07T17:30:00	0.1867	12.226	194.2	0.424365921	0.489448314	0.006391839	0.065943422	0.020324403
2019-09-07T17:35:00	0.1849	12.210	194.3	0.419460876	0.481272695	0.006236547	0.064341301	0.019830614
2019-09-07T17:40:00	0.1860	12.190	193.8	0.422522793	0.486368423	0.006333213	0.065338593	0.020137989
2019-09-07T17:45:00	0.1874	12.179	193.6	0.426126945	0.492399803	0.006448161	0.066524484	0.020503492
2019-09-07T17:50:00	0.1863	12.167	194.0	0.423149535	0.487414661	0.006353111	0.065543880	0.020201260
2019-09-07T17:55:00	0.1872	12.148	193.6	0.425656543	0.491610565	0.006433087	0.066368968	0.020455560
2019-09-07T18:00:00	0.1864	12.122	192.3	0.423501664	0.488002958	0.006364308	0.065659391	0.020236862
2019-09-07T18:05:00	0.1875	12.105	192.2	0.426555986	0.493120181	0.006461928	0.066666519	0.020547269
2019-09-07T18:10:00	0.1878	12.094	192.5	0.427416179	0.494566022	0.006489584	0.066951846	0.020635209
2019-09-07T18:15:00	0.1878	12.065	192.8	0.427454934	0.494631210	0.006490832	0.066964719	0.020639177
2019-09-07T18:20:00	0.1900	12.051	192.3	0.433231887	0.504395207	0.006678463	0.068900473	0.021235795
2019-09-07T18:25:00	0.1898	12.034	193.9	0.432724881	0.503534566	0.006661865	0.068729235	0.021183018
2019-09-07T18:30:00	0.1909	12.014	193.8	0.435762159	0.508701050	0.006761675	0.069758953	0.021500387
2019-09-07T18:35:00	0.1903	12.000	193.5	0.434165802	0.505982400	0.006709103	0.069216579	0.021333222
2019-09-07T18:40:00	0.1902	11.968	193.5	0.433931762	0.505584420	0.006701417	0.069137280	0.021308781
2019-09-07T18:45:00	0.1894	11.949	180.8	0.431787711	0.501945607	0.006631251	0.068413397	0.021085673
2019-09-07T18:50:00	0.1899	11.938	181.0	0.433190826	0.504325480	0.006677118	0.068886596	0.021231518
2019-09-07T18:55:00	0.1914	11.920	193.1	0.437043903	0.510889051	0.006804068	0.070196310	0.021635185
2019-09-07T19:00:00	0.1894	11.908	193.1	0.431630650	0.501679552	0.006626129	0.068360552	0.021069386
2019-09-07T19:05:00	0.1897	11.894	180.6	0.432488196	0.503133039	0.006654125	0.068649386	0.021158407
2019-09-07T19:10:00	0.1885	11.852	193.2	0.429248907	0.497653384	0.006548750	0.067562245	0.020823340
2019-09-07T19:15:00	0.1906	11.852	180.5	0.435019601	0.507435564	0.006737189	0.069506342	0.021422530
2019-09-07T19:20:00	0.1905	11.826	180.2	0.434785682	0.507037232	0.006729487	0.069426880	0.021398039
2019-09-07T19:25:00	0.1888	11.798	180.2	0.430185074	0.499234025	0.006579098	0.067875345	0.020919840
2019-09-07T19:30:00	0.1899	11.763	180.2	0.432954208	0.503923760	0.006669370	0.068806657	0.021206880
2019-09-07T19:35:00	0.1895	11.743	192.4	0.431901222	0.502137934	0.006634955	0.068451604	0.021097449
2019-09-07T19:40:00	0.1893	11.714	192.2	0.431393809	0.501278482	0.006618410	0.068280912	0.021044840
2019-09-07T19:45:00	0.1887	11.680	192.3	0.429793235	0.498572140	0.006566385	0.067744187	0.020879416
2019-09-07T19:50:00	0.1901	11.674	192.1	0.433654201	0.505112631	0.006692308	0.069043306	0.021279817
2019-09-07T19:55:00	0.1901	11.639	191.7	0.433692810	0.505178244	0.006693574	0.069056373	0.021283845
2019-09-07T20:00:00	0.1905	11.633	192.0	0.434821826	0.507098770	0.006730677	0.069439155	0.021401822
2019-09-07T20:05:00	0.1914	11.606	191.7	0.437039033	0.510880729	0.006803906	0.070194645	0.021634671
2019-09-07T20:10:00	0.1925	11.583	191.6	0.440068476	0.516070350	0.006904746	0.071234994	0.021955317
2019-09-07T20:15:00	0.1915	11.559	179.0	0.437388208	0.511477580	0.006815483	0.070314079	0.021671482
2019-09-07T20:20:00	0.1909	11.553	191.5	0.435793408	0.508754339	0.006762706	0.069769596	0.021503667
2019-09-07T20:25:00	0.1915	11.536	191.4	0.437465252	0.511609317	0.006818039	0.070340448	0.021679609
2019-09-07T20:30:00	0.1915	11.505	191.0	0.437503772	0.511675190	0.006819317	0.070353635	0.021683673
2019-09-07T20:35:00	0.1925	11.493	178.9	0.440260771	0.516400629	0.006911178	0.071301347	0.021975768
2019-09-07T20:40:00	0.1916	11.473	190.8	0.437580811	0.511806944	0.006821873	0.070380011	0.021691803
2019-09-07T20:45:00	0.1912	11.448	191.0	0.436530750	0.510012523	0.006787076	0.070021011	0.021581156
2019-09-07T20:50:00	0.1931	11.423	190.9	0.441920492	0.518933566	0.006962521	0.071831042	0.022139025
2019-09-07T20:55:00	0.1928	11.412	190.7	0.440957710	0.517598536	0.006934518	0.071542148	0.022049985
2019-09-07T21:00:00	0.1941	11.384	190.4	0.445511324	0.523739543	0.007065016	0.072888471	0.022464935
2019-09-07T21:05:00	0.1926	11.363	190.4	0.440491496	0.516797051	0.006918899	0.071381010	0.022000321
2019-09-07T21:10:00	0.1918	11.333	190.5	0.438355865	0.513133390	0.006847628	0.070645711	0.021773694
2019-09-07T21:15:00	0.1926	11.319	190.4	0.440296797	0.516462518	0.006912383	0.071313782	0.021979600
2019-09-07T21:20:00	0.1929	11.300	178.0	0.441169050	0.517929116	0.006941164	0.071610713	0.022071117
2019-09-07T21:25:00	0.1913	11.307	178.2	0.436839062	0.510539069	0.006797282	0.070126302	0.021613607
2019-09-07T21:30:00	0.1923	11.297	178.1	0.439597153	0.515261259	0.006888998	0.071072520	0.021905241
2019-09-07T21:35:00	0.1907	11.282	178.1	0.435282308	0.507883100	0.006745846	0.069595648	0.021450055
2019-09-07T21:40:00	0.1929	11.259	178.0	0.441366950	0.518193605	0.006946786	0.071668707	0.022088991
2019-09-07T21:45:00	0.1910	11.260	178.1	0.436176522	0.509407887	0.006775362	0.069900160	0.021543908
2019-09-07T21:50:00	0.1918	11.251	178.0	0.438391932	0.513195157	0.006848827	0.070658091	0.021777510
2019-09-07T21:55:00	0.1925	11.250	178.1	0.440061184	0.516057827	0.006904502	0.071232479	0.021954542
2019-09-07T22:00:00	0.1926	11.249	178.1	0.440371277	0.516590477	0.006914875	0.071339495	0.021987525
2019-09-07T22:05:00	0.1927	11.242	178.0	0.440796650	0.517321584	0.006929120	0.071486456	0.022032820
2019-09-07T22:10:00	0.1905	11.232	190.1	0.434693883	0.506880953	0.006726466	0.069395712	0.021388432
2019-09-07T22:15:00	0.1908	11.245	178.1	0.435665540	0.508536302	0.006758486	0.069726053	0.021490247
2019-09-07T22:20:00	0.1902	11.223	178.0	0.433912245	0.505551238	0.006700776	0.069130669	0.021306744
2019-09-07T22:25:00	0.1918	11.214	190.1	0.438151185	0.512782932	0.006840821	0.070575484	0.021752050
2019-09-07T22:30:00	0.1925	11.214	189.9	0.440207731	0.516309519	0.006909403	0.071283041	0.021970126
2019-09-07T22:35:00	0.1904	11.218	178.0	0.434375418	0.506338978	0.006715992	0.069287650	0.021355127
2019-09-07T22:40:00	0.1922	11.225	178.1	0.439428668	0.514972182	0.006883374	0.071014496	0.021887357
2019-09-07T22:45:00	0.1890	11.221	177.9	0.430591055	0.499920248	0.006592286	0.068011399	0.020961774
2019-09-07T22:50:00	0.1903	11.219	178.0	0.434293353	0.506199363	0.006713294	0.069259820	0.021346549
2019-09-07T22:55:00	0.1900	11.205	177.9	0.433357069	0.504607814	0.006682565	0.068942793	0.021248838
2019-09-07T23:00:00	0.1888	11.213	177.9	0.429962265	0.498857610	0.006571868	0.067800746	0.020896849
2019-09-07T23:05:00	0.1926	11.208	177.8	0.440469625	0.516759467	0.006918167	0.071373457	0.021997992
2019-09-07T23:10:00	0.1905	11.209	190.1	0.434638227	0.506786215	0.006724635	0.069376819	0.021382610
2019-09-07T23:15:00	0.1928	11.208	190.0	0.441048735	0.517755092	0.006937570	0.071573636	0.022059690
2019-09-07T23:20:00	0.1903	11.207	190.1	0.434129211	0.505920168	0.006707901	0.069204177	0.021329400
2019-09-07T23:25:00	0.1920	11.204	190.1	0.438911381	0.514085146	0.006866123	0.070836527	0.021832506
2019-09-07T23:30:00	0.1922	11.205	190.1	0.439337124	0.514815149	0.006880319	0.070982981	0.021877644
2019-09-07T23:35:00	0.1944	11.204	177.8	0.446369404	0.524889501	0.007089618	0.073142277	0.022543160
2019-09-07T23:40:00	0.1930	11.195	190.0	0.441678856	0.518610523	0.006955650	0.071760156	0.022117177
2019-09-07T23:45:00	0.1952	11.197	190.0	0.449205829	0.528694860	0.007171236	0.073984315	0.022802684
2019-09-07T23:50:00	0.1932	11.202	190.0	0.442423931	0.519606760	0.006976847	0.071978840	0.022184578
2019-09-07T23:55:00	0.1931	11.191	190.0	0.441923064	0.518937005	0.006962594	0.071831797	0.022139258
2019-09-08T00:00:00	0.1931	11.191	189.9	0.442120919	0.519201552	0.006968222	0.071889865	0.022157155
2019-09-08T00:05:00	0.1927	11.187	190.0	0.440685742	0.517130912	0.006925404	0.071448121	0.022021005
2019-09-08T00:10:00	0.1925	11.190	190.0	0.440024722	0.515995214	0.006903283	0.071219902	0.021950665
2019-09-08T00:15:00	0.1909	11.188	190.0	0.435826661	0.508811049	0.006763804	0.069780923	0.021507158
2019-09-08T00:20:00	0.1921	11.184	189.8	0.438973761	0.514192074	0.006868202	0.070857974	0.021839116
2019-09-08T00:25:00	0.1924	11.172	177.5	0.439942934	0.515854779	0.006900549	0.071191695	0.021941972
2019-09-08T00:30:00	0.1924	11.166	177.4	0.439825107	0.515652496	0.006896612	0.071151072	0.021929451
2019-09-08T00:35:00	0.1935	11.169	189.6	0.443505576	0.521053798	0.007007675	0.072296888	0.022282603
2019-09-08T00:40:00	0.1947	11.161	189.7	0.447542299	0.526462293	0.007123312	0.073489898	0.022650300
2019-09-08T00:45:00	0.1957	11.135	177.4	0.451225767	0.531408679	0.007229638	0.074586841	0.022988389
2019-09-08T00:50:00	0.1941	11.160	177.5	0.445495156	0.523717882	0.007064553	0.072883693	0.022463462
2019-09-08T00:55:00	0.1941	11.150	177.4	0.445343792	0.523515094	0.007060218	0.072838969	0.022449678
2019-09-08T01:00:00	0.1959	11.157	177.4	0.451817650	0.532204492	0.007246795	0.074763848	0.023042944
2019-09-08T01:05:00	0.1947	11.146	177.3	0.447483553	0.526383492	0.007121623	0.073472467	0.022644928
2019-09-08T01:10:00	0.1938	11.147	177.3	0.444540570	0.522439285	0.007037235	0.072601859	0.022376598
2019-09-08T01:15:00	0.1930	11.148	189.0	0.441594995	0.518498421	0.006953266	0.071735563	0.022109597
2019-09-08T01:20:00	0.1950	11.144	190.1	0.448773507	0.528114446	0.007158766	0.073855668	0.022763034
2019-09-08T01:25:00	0.1931	11.141	177.3	0.441990732	0.519027479	0.006964519	0.071851654	0.022145378
2019-09-08T01:30:00	0.1934	11.136	177.3	0.442887220	0.520226441	0.006990043	0.072114982	0.022226538
2019-09-08T01:35:00	0.1951	11.127	177.3	0.449017199	0.528441596	0.007165793	0.073928170	0.022785380
2019-09-08T01:40:00	0.1925	11.125	177.2	0.440077338	0.516085568	0.006905043	0.071238051	0.021956259
2019-09-08T01:45:00	0.1929	11.117	189.3	0.441384602	0.518217198	0.006947287	0.071673881	0.022090586
2019-09-08T01:50:00	0.1927	11.115	177.2	0.440656583	0.517080789	0.006924428	0.071438044	0.022017899
2019-09-08T01:55:00	0.1933	11.107	193.5	0.442828393	0.520147746	0.006988366	0.072097688	0.022221208
2019-09-08T02:00:00	0.1936	11.100	177.0	0.443724656	0.521346997	0.007013927	0.072361389	0.022302483
2019-09-08T02:05:00	0.1929	11.097	177.1	0.441127846	0.517874052	0.006939994	0.071598641	0.022067397
2019-09-08T02:10:00	0.1937	11.090	177.1	0.444120141	0.521876379	0.007025220	0.072477900	0.022338393
2019-09-08T02:15:00	0.1931	11.082	177.1	0.441873045	0.518870131	0.006961171	0.071817121	0.022134734
2019-09-08T02:20:00	0.1934	11.072	177.0	0.443118840	0.520536312	0.006996645	0.072183093	0.022247530
2019-09-08T02:25:00	0.1957	11.066	177.0	0.450991036	0.531093149	0.007222839	0.074516701	0.022966771
2019-09-08T02:30:00	0.1952	11.057	177.0	0.449445818	0.529017120	0.007178162	0.074055776	0.022824709
2019-09-08T02:35:00	0.1940	11.049	176.8	0.445108649	0.523200099	0.007053486	0.072769516	0.022428271
2019-09-08T02:40:00	0.1953	11.021	176.6	0.449840628	0.529547375	0.007189564	0.074173411	0.022860966
2019-09-08T02:45:00	0.1959	11.013	190.1	0.451780246	0.532154193	0.007245710	0.074752656	0.023039494
2019-09-08T02:50:00	0.1964	11.004	191.0	0.453370571	0.534293778	0.007291905	0.075229235	0.023186381
2019-09-08T02:55:00	0.1981	10.996	187.2	0.459481435	0.542533762	0.007470747	0.077074325	0.023755055
2019-09-08T03:00:00	0.1973	10.992	188.6	0.456548963	0.538575890	0.007384659	0.076186167	0.023481317
2019-09-08T03:05:00	0.1965	10.966	188.5	0.453962077	0.535090084	0.007309123	0.075406873	0.023241131
2019-09-08T03:10:00	0.1940	10.986	192.5	0.445096156	0.523183365	0.007053129	0.072765827	0.022427134
2019-09-08T03:15:00	0.1957	10.930	192.3	0.451222097	0.531403745	0.007229532	0.074585744	0.022988051
2019-09-08T03:20:00	0.1975	10.929	179.8	0.457336868	0.539638634	0.007407741	0.076424303	0.023554712
2019-09-08T03:25:00	0.1963	10.908	192.1	0.453009899	0.533808364	0.007281415	0.075121021	0.023153028
2019-09-08T03:30:00	0.1957	10.899	192.0	0.451117204	0.531262741	0.007226493	0.074554397	0.022978389
2019-09-08T03:35:00	0.1958	10.878	191.9	0.451314516	0.531527989	0.007232209	0.074613369	0.022996565
2019-09-08T03:40:00	0.1955	10.865	191.5	0.450466504	0.530388219	0.007207658	0.074360080	0.022918499
2019-09-08T03:45:00	0.1958	10.853	179.3	0.451360725	0.531590112	0.007233548	0.074627183	0.023000823
2019-09-08T03:50:00	0.1956	10.834	191.0	0.450861194	0.530918631	0.007219080	0.074477916	0.022954817
2019-09-08T03:55:00	0.1978	10.813	178.5	0.458367601	0.541029652	0.007437991	0.076736382	0.023650898
2019-09-08T04:00:00	0.1962	10.793	190.9	0.452649188	0.533323000	0.007270933	0.075012871	0.023119695
2019-09-08T04:05:00	0.1950	10.772	190.8	0.448714230	0.528034875	0.007157057	0.073838038	0.022757600
2019-09-08T04:10:00	0.1966	10.752	190.2	0.454186703	0.535392557	0.007315667	0.075474385	0.023261939
2019-09-08T04:15:00	0.1951	10.732	190.2	0.448859202	0.528229484	0.007161237	0.073881160	0.022770891
2019-09-08T04:20:00	0.1962	10.713	190.2	0.452938786	0.533712667	0.007279348	0.075099693	0.023146455
2019-09-08T04:25:00	0.1951	10.693	190.5	0.449004167	0.528424100	0.007165418	0.073924293	0.022784185
2019-09-08T04:30:00	0.1968	10.674	177.8	0.454824226	0.536251235	0.007334255	0.075666157	0.023321044
2019-09-08T04:35:00	0.1952	10.665	177.7	0.449149127	0.528618726	0.007169599	0.073967436	0.022797482
2019-09-08T04:40:00	0.1963	10.641	190.2	0.453228358	0.534102366	0.007287768	0.075186557	0.023173227
2019-09-08T04:45:00	0.1951	10.625	178.1	0.448945447	0.528345267	0.007163724	0.073906820	0.022778800
2019-09-08T04:50:00	0.1967	10.612	177.8	0.454417543	0.535703438	0.007322395	0.075543796	0.023283332
2019-09-08T04:55:00	0.1957	10.604	178.1	0.451181569	0.531349263	0.007228358	0.074573632	0.022984318
2019-09-08T05:00:00	0.1960	10.588	178.0	0.452124915	0.532617733	0.007255710	0.074855818	0.023071290
2019-09-08T05:05:00	0.1957	10.575	177.9	0.450978013	0.531075644	0.007222462	0.074512810	0.022965572
2019-09-08T05:10:00	0.1966	10.567	177.8	0.454358918	0.535624481	0.007320686	0.075526165	0.023277898
2019-09-08T05:15:00	0.1954	10.558	177.7	0.450077452	0.529865505	0.007196408	0.074244017	0.022882727
2019-09-08T05:20:00	0.1971	10.538	177.6	0.455895650	0.537695058	0.007365547	0.075988987	0.023420544
2019-09-08T05:25:00	0.1967	10.527	177.6	0.454401971	0.535682464	0.007321941	0.075539113	0.023281888
2019-09-08T05:30:00	0.1982	10.515	177.5	0.459865188	0.543052204	0.007482050	0.077190926	0.023790993
2019-09-08T05:35:00	0.1970	10.507	177.4	0.455590740	0.537284077	0.007356635	0.075897046	0.023392207
2019-09-08T05:40:00	0.1992	10.499	177.4	0.463135756	0.547475411	0.007578713	0.078188186	0.024098358
2019-09-08T05:45:00	0.1995	10.486	177.2	0.464422820	0.549218393	0.007616920	0.078582363	0.024219848
2019-09-08T05:50:00	0.2001	10.480	177.3	0.466403152	0.551902786	0.007675892	0.079190767	0.024407363
2019-09-08T05:55:00	0.2010	10.480	177.3	0.469422083	0.556001014	0.007766224	0.080122699	0.024694594
2019-09-08T06:00:00	0.1997	10.490	177.3	0.464812769	0.549746734	0.007628515	0.078701982	0.024256715
2019-09-08T06:05:00	0.2006	10.492	177.3	0.468179803	0.554313732	0.007728990	0.079738562	0.024576199
2019-09-08T06:10:00	0.2011	10.505	177.3	0.469811455	0.556530117	0.007777912	0.080243288	0.024731761
2019-09-08T06:15:00	0.2011	10.512	177.3	0.469710240	0.556392569	0.007774873	0.080211934	0.024722097
2019-09-08T06:20:00	0.1987	10.520	177.3	0.461629751	0.545437596	0.007534126	0.077728194	0.023956584
2019-09-08T06:25:00	0.1986	10.530	177.4	0.461180926	0.544830627	0.007520864	0.077591363	0.023914412
2019-09-08T06:30:00	0.2001	10.540	177.4	0.466286317	0.551744327	0.007672407	0.079154809	0.024396281
2019-09-08T06:35:00	0.1994	10.550	177.4	0.464103154	0.548785369	0.007607422	0.078484371	0.024189645
2019-09-08T06:40:00	0.2001	10.559	177.4	0.466430533	0.551939924	0.007676709	0.079199195	0.024409961
2019-09-08T06:45:00	0.2021	10.572	177.5	0.473259132	0.561220291	0.007881787	0.081314940	0.025062054
2019-09-08T06:50:00	0.2007	10.592	177.5	0.468308430	0.554488377	0.007732841	0.079778294	0.024588445
2019-09-08T06:55:00	0.2010	10.611	177.6	0.469593520	0.556233959	0.007771369	0.080175783	0.024710955
2019-09-08T07:00:00	0.2003	10.636	177.7	0.467065740	0.552801637	0.007695674	0.079394845	0.024470262
2019-09-08T07:05:00	0.1997	10.661	177.8	0.464883082	0.549842014	0.007630606	0.078723560	0.024263366
2019-09-08T07:10:00	0.1997	10.682	177.9	0.465128713	0.550174894	0.007637915	0.078798965	0.024286606
2019-09-08T07:15:00	0.2006	10.702	178.0	0.468148785	0.554271618	0.007728061	0.079728982	0.024573247
2019-09-08T07:20:00	0.1998	10.725	178.0	0.465272978	0.550370425	0.007642210	0.078843269	0.024300261
2019-09-08T07:25:00	0.1986	10.753	178.1	0.461005401	0.544593298	0.007515680	0.077537884	0.023897929
2019-09-08T07:30:00	0.1994	10.784	178.3	0.464029169	0.548685159	0.007605225	0.078461700	0.024182658
2019-09-08T07:35:00	0.2004	10.806	178.3	0.467396985	0.553251126	0.007705572	0.079496966	0.024501737
2019-09-08T07:40:00	0.2010	10.825	178.4	0.469375572	0.555937820	0.007764828	0.080108301	0.024690156
2019-09-08T07:45:00	0.2027	10.850	178.5	0.475506474	0.564282636	0.007949863	0.082017266	0.025278518
2019-09-08T07:50:00	0.2031	10.880	178.6	0.476788830	0.566031841	0.007988837	0.082419357	0.025402446
2019-09-08T07:55:00	0.2028	10.912	178.8	0.475650297	0.564478753	0.007954229	0.082062314	0.025292402
2019-09-08T08:00:00	0.2046	10.943	178.9	0.481769846	0.572838658	0.008141118	0.083990411	0.025886660
2019-09-08T08:05:00	0.2033	10.976	179.0	0.477523077	0.567033984	0.008011195	0.082650023	0.025473540
2019-09-08T08:10:00	0.2012	11.021	191.7	0.470154281	0.556996071	0.007788211	0.080349536	0.024764507
2019-09-08T08:15:00	0.2016	11.058	179.4	0.471438670	0.558742581	0.007826854	0.080748206	0.024887381
2019-09-08T08:20:00	0.2021	11.077	191.9	0.473414889	0.561432405	0.007886495	0.081363520	0.025077027
2019-09-08T08:25:00	0.2019	11.107	192.0	0.472621442	0.560352075	0.007862523	0.081116196	0.025000799
2019-09-08T08:30:00	0.1998	11.133	192.1	0.465241933	0.550328346	0.007641285	0.078833734	0.024297322
2019-09-08T08:35:00	0.1978	11.161	192.3	0.458541610	0.541264567	0.007443104	0.076789130	0.023667155
2019-09-08T08:40:00	0.1998	11.193	192.4	0.465386194	0.550523884	0.007645581	0.078878045	0.024310980
2019-09-08T08:45:00	0.1974	11.229	192.6	0.456947508	0.539113395	0.007396330	0.076306578	0.023518428
2019-09-08T08:50:00	0.1973	11.253	192.6	0.456498058	0.538507245	0.007383169	0.076170794	0.023476579
2019-09-08T08:55:00	0.1998	11.290	192.9	0.465429105	0.550582051	0.007646858	0.078891229	0.024315043
2019-09-08T09:00:00	0.2021	11.323	193.0	0.473298297	0.561273626	0.007882971	0.081327154	0.025065819
2019-09-08T09:05:00	0.1994	11.351	193.1	0.463838263	0.548426605	0.007599556	0.078403216	0.024164632
2019-09-08T09:10:00	0.2008	11.383	193.3	0.468939633	0.555345597	0.007751753	0.079973408	0.024648581
2019-09-08T09:15:00	0.2002	11.417	193.4	0.466758188	0.552384375	0.007686489	0.079300087	0.024441057
2019-09-08T09:20:00	0.2007	11.448	193.6	0.468390527	0.554599853	0.007735299	0.079803658	0.024596262
2019-09-08T09:25:00	0.2005	11.477	193.7	0.467595898	0.553521086	0.007711519	0.079558321	0.024520647
2019-09-08T09:30:00	0.1999	11.509	193.9	0.465760511	0.551031329	0.007656731	0.078993080	0.024346434
2019-09-08T09:35:00	0.1972	11.544	194.0	0.456279260	0.538212221	0.007376766	0.076104736	0.023456219
2019-09-08T09:40:00	0.1980	11.577	194.1	0.458959684	0.541829072	0.007455395	0.076915932	0.023706237
2019-09-08T09:45:00	0.1965	11.614	194.4	0.453987903	0.535124859	0.007309875	0.075414634	0.023243523
2019-09-08T09:50:00	0.1980	11.657	194.5	0.459104214	0.542024256	0.007459646	0.076959792	0.023719755
2019-09-08T09:55:00	0.1975	11.695	194.7	0.457264191	0.539540585	0.007405611	0.076402322	0.023547938
2019-09-08T10:00:00	0.1968	11.741	182.3	0.454727133	0.536120440	0.007331423	0.075636935	0.023312038
2019-09-08T10:05:00	0.1982	11.785	182.6	0.459888411	0.543083581	0.007482734	0.077197985	0.023793169
2019-09-08T10:10:00	0.1986	11.835	182.8	0.461222789	0.544887234	0.007522100	0.077604121	0.023918344
2019-09-08T10:15:00	0.2002	11.879	183.0	0.466720949	0.552333859	0.007685377	0.079288617	0.024437522
2019-09-08T10:20:00	0.1980	11.924	183.2	0.459027009	0.541919990	0.007457375	0.076936361	0.023712534
2019-09-08T10:25:00	0.1982	11.974	183.4	0.459666724	0.542784068	0.007476203	0.077130613	0.023772404
2019-09-08T10:30:00	0.1986	12.024	183.6	0.461001190	0.544587605	0.007515556	0.077536602	0.023897534
2019-09-08T10:35:00	0.1967	12.066	183.8	0.454686647	0.536065903	0.007330242	0.075624752	0.023308283
2019-09-08T10:40:00	0.1945	12.095	183.9	0.446965070	0.525688123	0.007106720	0.073318719	0.022597541
2019-09-08T10:45:00	0.1943	12.117	184.1	0.446211638	0.524678027	0.007085091	0.073095580	0.022528768
2019-09-08T10:50:00	0.1941	12.137	184.2	0.445458037	0.523668150	0.007063490	0.072872724	0.022460081
2019-09-08T10:55:00	0.1949	12.165	184.3	0.448193370	0.527335813	0.007142050	0.073683209	0.022709881
2019-09-08T11:00:00	0.1954	12.195	184.4	0.449880975	0.529601571	0.007190730	0.074185437	0.022864672
2019-09-08T11:05:00	0.1928	12.222	184.5	0.441100060	0.517836919	0.006939205	0.071590501	0.022064888
2019-09-08T11:10:00	0.1927	12.251	184.6	0.440781488	0.517295515	0.006928612	0.071481214	0.022031205
2019-09-08T11:15:00	0.1947	12.264	184.7	0.447622139	0.526569394	0.007125609	0.073513590	0.022657602
2019-09-08T11:20:00	0.1950	12.273	184.8	0.448612734	0.527898638	0.007154131	0.073807855	0.022748298
2019-09-08T11:25:00	0.1931	12.289	184.8	0.441925439	0.518940180	0.006962661	0.071832494	0.022139472
2019-09-08T11:30:00	0.1964	12.307	197.7	0.453379721	0.534306093	0.007292171	0.075231981	0.023187227
2019-09-08T11:35:00	0.1946	12.331	197.8	0.447399640	0.526270938	0.007119210	0.073447574	0.022637256
2019-09-08T11:40:00	0.1951	12.357	197.9	0.449087645	0.528536177	0.007167826	0.073949136	0.022791842
2019-09-08T11:45:00	0.1950	12.383	198.0	0.448683387	0.527993473	0.007156168	0.073828865	0.022754773
2019-09-08T11:50:00	0.1952	12.399	198.1	0.449325075	0.528854980	0.007174677	0.074019818	0.022813627
2019-09-08T11:55:00	0.1949	12.419	198.2	0.448223467	0.527376202	0.007142916	0.073692151	0.022712637
2019-09-08T12:00:00	0.1964	12.418	198.2	0.453394746	0.534326318	0.007292608	0.075236491	0.023188617
2019-09-08T12:05:00	0.1963	12.423	198.2	0.452991007	0.533782940	0.007280866	0.075115355	0.023151282
2019-09-08T12:10:00	0.1956	12.425	198.2	0.450845407	0.530897413	0.007218623	0.074473201	0.022953364
2019-09-08T12:15:00	0.1948	12.426	198.2	0.448001008	0.527077694	0.007136511	0.073626068	0.022692269
2019-09-08T12:20:00	0.1960	12.430	198.2	0.452127834	0.532621659	0.007255794	0.074856692	0.023071559
2019-09-08T12:25:00	0.1949	12.438	198.2	0.448238516	0.527396397	0.007143350	0.073696622	0.022714015
2019-09-08T12:30:00	0.1943	12.446	198.3	0.446089870	0.524514820	0.007081599	0.073059548	0.022517662
2019-09-08T12:35:00	0.1929	12.456	198.4	0.441145302	0.517897379	0.006940490	0.071603755	0.022068973
2019-09-08T12:40:00	0.1929	12.466	198.4	0.441439022	0.518289936	0.006948833	0.071689833	0.022095503
2019-09-08T12:45:00	0.1926	12.484	198.5	0.440501770	0.516814708	0.006919243	0.071384559	0.022001414
2019-09-08T12:50:00	0.1920	12.501	198.6	0.438828092	0.513942393	0.006863348	0.070807898	0.021823682
2019-09-08T12:55:00	0.1924	12.528	198.7	0.439871851	0.515732740	0.006898174	0.071167186	0.021934418
2019-09-08T13:00:00	0.1937	12.549	198.8	0.444010596	0.521729734	0.007022091	0.072445618	0.022328443
2019-09-08T13:05:00	0.1922	12.556	198.8	0.439241696	0.514651479	0.006877135	0.070950138	0.021867522
2019-09-08T13:10:00	0.1895	12.566	198.9	0.432116566	0.502502898	0.006641984	0.068524124	0.021119801
2019-09-08T13:15:00	0.1908	12.575	199.0	0.435617783	0.508454881	0.006756910	0.069709794	0.021485236
2019-09-08T13:20:00	0.1916	12.582	199.0	0.437752039	0.512099843	0.006827558	0.070438658	0.021709878
2019-09-08T13:25:00	0.1913	12.595	199.1	0.436892332	0.510630073	0.006799046	0.070144504	0.021619217
2019-09-08T13:30:00	0.1910	12.607	199.2	0.436032182	0.509161612	0.006770592	0.069850952	0.021528742
2019-09-08T13:35:00	0.1869	12.618	199.3	0.424785735	0.490151146	0.006405238	0.066081661	0.020367010
2019-09-08T13:40:00	0.1898	12.633	199.3	0.432674166	0.503448516	0.006660206	0.068712121	0.021177743
2019-09-08T13:45:00	0.1923	12.647	186.5	0.439710257	0.515455360	0.006892775	0.071111489	0.021917251
2019-09-08T13:50:00	0.1891	12.666	199.4	0.430949044	0.500525733	0.006603928	0.068131508	0.020998793
2019-09-08T13:55:00	0.1923	12.675	186.6	0.439623591	0.515306626	0.006889881	0.071081628	0.021908048
2019-09-08T14:00:00	0.1911	12.687	199.6	0.436316224	0.509646304	0.006779980	0.069947806	0.021558593
2019-09-08T14:05:00	0.1911	12.695	186.7	0.436272804	0.509572196	0.006778545	0.069932995	0.021554028
2019-09-08T14:10:00	0.1908	12.705	186.8	0.435412335	0.508104679	0.006750133	0.069639876	0.021463686
2019-09-08T14:15:00	0.1919	12.708	186.8	0.438634770	0.513611126	0.006856910	0.070741474	0.021803209
2019-09-08T14:20:00	0.1904	12.709	199.7	0.434507954	0.506564499	0.006720350	0.069332610	0.021368984
2019-09-08T14:25:00	0.1912	12.712	186.9	0.436643630	0.510205272	0.006790811	0.070059549	0.021593034
2019-09-08T14:30:00	0.1918	12.713	186.9	0.438232752	0.512922579	0.006843533	0.070603465	0.021760674
2019-09-08T14:35:00	0.1909	12.708	186.9	0.435739917	0.508663123	0.006760941	0.069751379	0.021498052
2019-09-08T14:40:00	0.1919	12.708	199.8	0.438417958	0.513239729	0.006849693	0.070667024	0.021780263
2019-09-08T14:45:00	0.1919	12.707	199.7	0.438646503	0.513631228	0.006857300	0.070745504	0.021804451
2019-09-08T14:50:00	0.1919	12.709	199.7	0.438603143	0.513556941	0.006855857	0.070730611	0.021799861
2019-09-08T14:55:00	0.1909	12.714	199.8	0.435838538	0.508831303	0.006764196	0.069784968	0.021508405
2019-09-08T15:00:00	0.1914	12.719	199.8	0.437156316	0.511081165	0.006807793	0.070234748	0.021647031
2019-09-08T15:05:00	0.1929	12.724	186.9	0.441220703	0.517998147	0.006942631	0.071625847	0.022075782
2019-09-08T15:10:00	0.1920	12.725	186.9	0.438701595	0.513725621	0.006859135	0.070764430	0.021810285
2019-09-08T15:15:00	0.1906	12.724	186.9	0.435119961	0.507606510	0.006740496	0.069540451	0.021433042
2019-09-08T15:20:00	0.1909	12.728	187.0	0.435893722	0.508925423	0.006766019	0.069803768	0.021514199
2019-09-08T15:25:00	0.1927	12.730	187.0	0.440745318	0.517233331	0.006927400	0.071468712	0.022027351
2019-09-08T15:30:00	0.1904	12.732	187.0	0.434444543	0.506456594	0.006718265	0.069311097	0.021362353
2019-09-08T15:35:00	0.1923	12.730	200.0	0.439572100	0.515218269	0.006888161	0.071063890	0.021902581
2019-09-08T15:40:00	0.1916	12.731	187.1	0.437625461	0.511883313	0.006823356	0.070395301	0.021696515
2019-09-08T15:45:00	0.1902	12.731	187.1	0.433768851	0.505307483	0.006696069	0.069082114	0.021291778
2019-09-08T15:50:00	0.1905	12.731	187.1	0.434815776	0.507088470	0.006730478	0.069437100	0.021401189
2019-09-08T15:55:00	0.1915	12.725	200.0	0.437495298	0.511660698	0.006819036	0.070350734	0.021682779
2019-09-08T16:00:00	0.1924	12.717	187.1	0.439898869	0.515779125	0.006899077	0.071176501	0.021937289
2019-09-08T16:05:00	0.1937	12.713	187.1	0.444091628	0.521838209	0.007024405	0.072469497	0.022335803
2019-09-08T16:10:00	0.1920	12.709	187.1	0.438797177	0.513889411	0.006862318	0.070797273	0.021820407
2019-09-08T16:15:00	0.1923	12.703	187.1	0.439605278	0.515275202	0.006889269	0.071075319	0.021906104
2019-09-08T16:20:00	0.1925	12.699	199.9	0.440141366	0.516195531	0.006907184	0.071260141	0.021963068
2019-09-08T16:25:00	0.1913	12.696	199.9	0.436871123	0.510593839	0.006798343	0.070137257	0.021616984
2019-09-08T16:30:00	0.1916	12.692	199.9	0.437680154	0.511976868	0.006825171	0.070414033	0.021702289
2019-09-08T16:35:00	0.1932	12.686	187.1	0.442289126	0.519426481	0.006973009	0.071939250	0.022172376
2019-09-08T16:40:00	0.1927	12.680	187.0	0.440655414	0.517078780	0.006924389	0.071437640	0.022017775
2019-09-08T16:45:00	0.1936	12.673	187.0	0.443667465	0.521270453	0.007012294	0.072344548	0.022297292
2019-09-08T16:50:00	0.1945	12.664	187.0	0.446799429	0.525466016	0.007101962	0.073269633	0.022582413
2019-09-08T16:55:00	0.1927	12.658	199.9	0.440633545	0.517041189	0.006923656	0.071430084	0.022015445
2019-09-08T17:00:00	0.1917	12.650	187.0	0.437908369	0.512367329	0.006832751	0.070492228	0.021726389
2019-09-08T17:05:00	0.1934	12.644	199.8	0.442931488	0.520285661	0.006991304	0.072127997	0.022230549
2019-09-08T17:10:00	0.1924	12.636	199.8	0.439796765	0.515603843	0.006895665	0.071141302	0.021926440
2019-09-08T17:15:00	0.1924	12.630	199.8	0.439789471	0.515591324	0.006895421	0.071138788	0.021925666
2019-09-08T17:20:00	0.1926	12.623	199.9	0.440325500	0.516511829	0.006913344	0.071323691	0.021982654
2019-09-08T17:25:00	0.1929	12.613	199.8	0.441147122	0.517899812	0.006940542	0.071604288	0.022069137
2019-09-08T17:30:00	0.1944	12.602	199.7	0.446375609	0.524897818	0.007089796	0.073144114	0.022543726
2019-09-08T17:35:00	0.1954	12.596	199.7	0.449853616	0.529564822	0.007189940	0.074177282	0.022862159
2019-09-08T17:40:00	0.1944	12.587	199.7	0.446356876	0.524872707	0.007089258	0.073138569	0.022542017
2019-09-08T17:45:00	0.1937	12.578	199.7	0.444253330	0.522054689	0.007029025	0.072517158	0.022350492
2019-09-08T17:50:00	0.1930	12.568	199.6	0.441799082	0.518771248	0.006959068	0.071795422	0.022128046
2019-09-08T17:55:00	0.1945	12.560	199.6	0.447026551	0.525770568	0.007108486	0.073336942	0.022603158
2019-09-08T18:00:00	0.1947	12.550	199.6	0.447714816	0.526693721	0.007128275	0.073541096	0.022666080
2019-09-08T18:05:00	0.1945	12.540	199.6	0.447007822	0.525745453	0.007107948	0.073331390	0.022601447
2019-09-08T18:10:00	0.1962	12.524	199.5	0.452923719	0.533692392	0.007278910	0.075095175	0.023145062
2019-09-08T18:15:00	0.1956	12.516	199.5	0.450824292	0.530869035	0.007218012	0.074466895	0.022951420
2019-09-08T18:20:00	0.1975	12.506	199.4	0.457429080	0.539763044	0.007410445	0.076452197	0.023563310
2019-09-08T18:25:00	0.1985	12.492	199.3	0.460895658	0.544444927	0.007512440	0.077504457	0.023887626
2019-09-08T18:30:00	0.1978	12.474	199.2	0.458453563	0.541145699	0.007440517	0.076762438	0.023658929
2019-09-08T18:35:00	0.1974	12.457	199.2	0.457053283	0.539256071	0.007399430	0.076338551	0.023528283
2019-09-08T18:40:00	0.1984	12.442	199.1	0.460520248	0.543937448	0.007501361	0.077390162	0.023852400
2019-09-08T18:45:00	0.1993	12.430	199.0	0.463636534	0.548153424	0.007593568	0.078341439	0.024145592
2019-09-08T18:50:00	0.2008	12.419	186.1	0.468830148	0.555196887	0.007748471	0.079939548	0.024638145
2019-09-08T18:55:00	0.2007	12.409	186.1	0.468474231	0.554713517	0.007737806	0.079829523	0.024604234
2019-09-08T19:00:00	0.2021	12.395	186.0	0.473314293	0.561295408	0.007883454	0.081332143	0.025067356
2019-09-08T19:05:00	0.2010	12.385	186.0	0.469495361	0.556100580	0.007768423	0.080145387	0.024701587
2019-09-08T19:10:00	0.2000	12.374	185.9	0.466019004	0.551381821	0.007664435	0.079072567	0.024370933
2019-09-08T19:15:00	0.2002	12.368	185.9	0.466703391	0.552310040	0.007684853	0.079283209	0.024435855
2019-09-08T19:20:00	0.2016	12.354	185.9	0.471545991	0.558888576	0.007830087	0.080781562	0.024897662
2019-09-08T19:25:00	0.2026	12.346	185.8	0.474998090	0.563589533	0.007934437	0.081858128	0.025229470
2019-09-08T19:30:00	0.2026	12.340	185.8	0.474988803	0.563576874	0.007934156	0.081855222	0.025228574
2019-09-08T19:35:00	0.2010	12.329	185.7	0.469439549	0.556024745	0.007766748	0.080128107	0.024696261
2019-09-08T19:40:00	0.2015	12.322	185.7	0.471162468	0.558366891	0.007818536	0.080662392	0.024860933
2019-09-08T19:45:00	0.2027	12.316	185.7	0.475306891	0.564010511	0.007943805	0.081954773	0.025259257
2019-09-08T19:50:00	0.2029	12.307	185.6	0.475989398	0.564941217	0.007964529	0.082168576	0.025325153
2019-09-08T19:55:00	0.2036	12.302	185.5	0.478400282	0.568231809	0.008037947	0.082926017	0.025558604
2019-09-08T20:00:00	0.2057	12.293	185.5	0.485641171	0.578142699	0.008260456	0.085221601	0.026266125
2019-09-08T20:05:00	0.2048	12.285	185.5	0.482526589	0.573874518	0.008164378	0.084230379	0.025960621
2019-09-08T20:10:00	0.2063	12.280	185.4	0.487691300	0.580956399	0.008324002	0.085877196	0.026468186
2019-09-08T20:15:00	0.2084	12.276	185.2	0.494912422	0.590893835	0.008549755	0.088206246	0.027186022
2019-09-08T20:20:00	0.2084	12.265	185.0	0.494903190	0.590881103	0.008549464	0.088203249	0.027185098
2019-09-08T20:25:00	0.2081	12.259	184.4	0.493861981	0.589445660	0.008516729	0.087865520	0.027081007
2019-09-08T20:30:00	0.2075	12.249	184.1	0.491787849	0.586588788	0.008451704	0.087194669	0.026874244
2019-09-08T20:35:00	0.2074	12.244	196.3	0.491434336	0.586102209	0.008440646	0.087080584	0.026839082
2019-09-08T20:40:00	0.2086	12.238	183.4	0.495554075	0.591778876	0.008569960	0.088414699	0.027250269
2019-09-08T20:45:00	0.2108	12.236	183.2	0.503101692	0.602214240	0.008809411	0.090885064	0.028011659
2019-09-08T20:50:00	0.2085	12.233	183.1	0.495535614	0.591753407	0.008569378	0.088408698	0.027248419
2019-09-08T20:55:00	0.2081	12.227	183.1	0.494150601	0.589843474	0.008525797	0.087959073	0.027109840
2019-09-08T21:00:00	0.2069	12.224	183.2	0.490010670	0.584143675	0.008396185	0.086621895	0.026697709
2019-09-08T21:05:00	0.2106	12.215	183.3	0.502721717	0.601687790	0.008797277	0.090759886	0.027973078
2019-09-08T21:10:00	0.2078	12.210	183.4	0.493090688	0.588382892	0.008492519	0.087615757	0.027004027
2019-09-08T21:15:00	0.2085	12.204	183.4	0.495489460	0.591689736	0.008567924	0.088393696	0.027243796
2019-09-08T21:20:00	0.2064	12.201	183.3	0.488251062	0.581725231	0.008341395	0.086056632	0.026523490
2019-09-08T21:25:00	0.2071	12.194	183.2	0.490653248	0.585027467	0.008416238	0.086828778	0.026761473
2019-09-08T21:30:00	0.2071	12.189	183.0	0.490644004	0.585014751	0.008415950	0.086825800	0.026760555
2019-09-08T21:35:00	0.2065	12.187	182.7	0.488567908	0.582160528	0.008351248	0.086158281	0.026554819
2019-09-08T21:40:00	0.2078	12.181	182.7	0.493035263	0.588306540	0.008490781	0.087597822	0.026998500
2019-09-08T21:45:00	0.2086	12.172	182.7	0.495777942	0.592087736	0.008577015	0.088487484	0.027272702
2019-09-08T21:50:00	0.2062	12.172	182.7	0.487506253	0.580702294	0.008318257	0.085817919	0.026449916
2019-09-08T21:55:00	0.2063	12.168	195.3	0.487841672	0.581162910	0.008328673	0.085925381	0.026483037
2019-09-08T22:00:00	0.2080	12.160	182.7	0.493686506	0.589203830	0.008511218	0.087808666	0.027063484
2019-09-08T22:05:00	0.2083	12.157	182.7	0.494800540	0.590739548	0.008546234	0.088169924	0.027174827
2019-09-08T22:10:00	0.2084	12.153	182.7	0.494882543	0.590852630	0.008548815	0.088196546	0.027183032
2019-09-08T22:15:00	0.2077	12.150	195.2	0.492556164	0.587646648	0.008475762	0.087442872	0.026950742
2019-09-08T22:20:00	0.2072	12.147	182.5	0.490916946	0.585390249	0.008424474	0.086913748	0.026787661
2019-09-08T22:25:00	0.2079	12.145	195.1	0.493408525	0.588820783	0.008502491	0.087718637	0.027035736
2019-09-08T22:30:00	0.2091	12.137	182.4	0.497273358	0.594151936	0.008624216	0.088974445	0.027422788
2019-09-08T22:35:00	0.2082	12.136	182.4	0.494260673	0.589995207	0.008529256	0.087994764	0.027120841
2019-09-08T22:40:00	0.2089	12.129	194.8	0.496749807	0.593429048	0.008607676	0.088803807	0.027370196
2019-09-08T22:45:00	0.2084	12.123	194.7	0.495112608	0.591169919	0.008556056	0.088271254	0.027206058
2019-09-08T22:50:00	0.2088	12.119	194.0	0.496569964	0.593180782	0.008601998	0.088745229	0.027352142
2019-09-08T22:55:00	0.2104	12.113	193.7	0.501804464	0.600417428	0.008768022	0.090458063	0.027880053
2019-09-08T23:00:00	0.2078	12.108	193.5	0.492950487	0.588189760	0.008488122	0.087570394	0.026990046
2019-09-08T23:05:00	0.2072	12.105	193.4	0.490967140	0.585459310	0.008426042	0.086929927	0.026792648
2019-09-08T23:10:00	0.2088	12.100	193.3	0.496554039	0.593158799	0.008601495	0.088740043	0.027350543
2019-09-08T23:15:00	0.2065	12.095	193.2	0.488375650	0.581896385	0.008345268	0.086096594	0.026535807
2019-09-08T23:20:00	0.2077	12.092	193.4	0.492590390	0.587693784	0.008476834	0.087453937	0.026954153
2019-09-08T23:25:00	0.2055	12.089	193.4	0.485092385	0.577390088	0.008243487	0.085046532	0.026212167
2019-09-08T23:30:00	0.2060	12.086	193.5	0.486898808	0.579868345	0.008299409	0.085623476	0.026389987
2019-09-08T23:35:00	0.2044	12.080	193.5	0.481115336	0.571943106	0.008121027	0.083783135	0.025822776
2019-09-08T23:40:00	0.2040	12.073	193.6	0.479816071	0.570166364	0.008081217	0.083372425	0.025696191
2019-09-08T23:45:00	0.2071	12.068	193.7	0.490590880	0.584941672	0.008414291	0.086808687	0.026755280
2019-09-08T23:50:00	0.2061	12.062	193.7	0.487227571	0.580319661	0.008309607	0.085728686	0.026422414
2019-09-08T23:55:00	0.2057	12.056	193.8	0.485585781	0.578066725	0.008258742	0.085203923	0.026260677
2019-09-09T00:00:00	0.2089	12.052	193.9	0.496686110	0.593341113	0.008605665	0.088783058	0.027363801
2019-09-09T00:05:00	0.2062	12.047	194.0	0.487474123	0.580658176	0.008317259	0.085807629	0.026446745
2019-09-09T00:10:00	0.2051	12.042	194.0	0.483762674	0.575567504	0.008202442	0.084623078	0.026081654
2019-09-09T00:15:00	0.2032	12.037	194.1	0.476936711	0.566233643	0.007993337	0.082465789	0.025416757
2019-09-09T00:20:00	0.2058	12.034	194.1	0.485996889	0.578630663	0.008271465	0.085335175	0.026301130
2019-09-09T00:25:00	0.2040	12.028	194.2	0.479866429	0.570235205	0.008082758	0.083388325	0.025701092
2019-09-09T00:30:00	0.2032	12.025	194.2	0.477184012	0.566571155	0.008000867	0.082543465	0.025440698
2019-09-09T00:35:00	0.2028	12.021	194.3	0.475883237	0.564796425	0.007961304	0.082135301	0.025314898
2019-09-09T00:40:00	0.2057	12.018	194.3	0.485636054	0.578135680	0.008260298	0.085219968	0.026265622
2019-09-09T00:45:00	0.2079	12.014	194.3	0.493296945	0.588667047	0.008498990	0.087682513	0.027024602
2019-09-09T00:50:00	0.2074	12.010	194.4	0.491658084	0.586410166	0.008447644	0.087152783	0.026861334
2019-09-09T00:55:00	0.2087	12.006	194.4	0.496212586	0.592687513	0.008590721	0.088628882	0.027316282
2019-09-09T01:00:00	0.2091	12.001	194.4	0.497325794	0.594224349	0.008625873	0.088991545	0.027428058
2019-09-09T01:05:00	0.2092	11.997	194.4	0.497751405	0.594812188	0.008639332	0.089130396	0.027470854
2019-09-09T01:10:00	0.2087	11.994	194.4	0.496114688	0.592552407	0.008587633	0.088597024	0.027306463
2019-09-09T01:15:00	0.2099	11.990	194.4	0.500319864	0.598362744	0.008720774	0.089970615	0.027729817
2019-09-09T01:20:00	0.2073	11.988	194.4	0.491117719	0.585666498	0.008430748	0.086978470	0.026807609
2019-09-09T01:25:00	0.2061	11.983	194.4	0.487065536	0.580097214	0.008304580	0.085676824	0.026406429
2019-09-09T01:30:00	0.2073	11.980	194.4	0.491281900	0.585892425	0.008435880	0.087031414	0.026823927
2019-09-09T01:35:00	0.2061	11.978	181.8	0.487229914	0.580322877	0.008309680	0.085729436	0.026422645
2019-09-09T01:40:00	0.2084	11.976	194.4	0.494887218	0.590859077	0.008548962	0.088198063	0.027183500
2019-09-09T01:45:00	0.2046	11.974	194.4	0.481874610	0.572982037	0.008144336	0.084023612	0.025896893
2019-09-09T01:50:00	0.2052	11.971	194.4	0.484027806	0.575930798	0.008210617	0.084707427	0.026107652
2019-09-09T01:55:00	0.2048	11.970	194.3	0.482729657	0.574152563	0.008170625	0.084294830	0.025980485
2019-09-09T02:00:00	0.2065	11.968	181.8	0.488330101	0.581833810	0.008343852	0.086081983	0.026531303
2019-09-09T02:05:00	0.2074	11.965	194.4	0.491512209	0.586209385	0.008443081	0.087105709	0.026846825
2019-09-09T02:10:00	0.2073	11.964	194.4	0.491250000	0.585848527	0.008434882	0.087021126	0.026820756
2019-09-09T02:15:00	0.2076	11.964	194.4	0.492364832	0.587383167	0.008469767	0.087381030	0.026931682
2019-09-09T02:20:00	0.2065	11.961	194.4	0.488314137	0.581811879	0.008343356	0.086076862	0.026529725
2019-09-09T02:25:00	0.2083	11.961	194.4	0.494593401	0.590453927	0.008539718	0.088102698	0.027154107
2019-09-09T02:30:00	0.2059	11.959	194.4	0.486410290	0.579197883	0.008284267	0.085467260	0.026341840
2019-09-09T02:35:00	0.2063	11.958	194.3	0.487871378	0.581203709	0.008329596	0.085934901	0.026485971
2019-09-09T02:40:00	0.2069	11.954	194.1	0.490020774	0.584157570	0.008396500	0.086625147	0.026698711
2019-09-09T02:45:00	0.2079	11.951	193.7	0.493201301	0.588535277	0.008495989	0.087651554	0.027015060
2019-09-09T02:50:00	0.2072	11.949	193.4	0.490873771	0.585330848	0.008423126	0.086899833	0.026783373
2019-09-09T02:55:00	0.2049	11.946	192.9	0.483026847	0.574559543	0.008179772	0.084389200	0.026009571
2019-09-09T03:00:00	0.2080	11.943	192.2	0.493791488	0.589348508	0.008514515	0.087842678	0.027073966
2019-09-09T03:05:00	0.2097	11.938	191.0	0.499373759	0.597054262	0.008690730	0.089660659	0.027634286
2019-09-09T03:10:00	0.2098	11.932	177.3	0.499799115	0.597642448	0.008704231	0.089799945	0.027677215
2019-09-09T03:15:00	0.2105	11.928	176.4	0.502284209	0.601081773	0.008783317	0.090615861	0.027928688
2019-09-09T03:20:00	0.2109	11.924	175.4	0.503738504	0.603096795	0.008829764	0.091095047	0.028076378
2019-09-09T03:25:00	0.2125	11.920	174.6	0.508962035	0.610348397	0.008997601	0.092826586	0.028610055
2019-09-09T03:30:00	0.2124	11.917	173.9	0.508701164	0.609985719	0.008989181	0.092739724	0.028583284
2019-09-09T03:35:00	0.2129	11.914	185.3	0.510495122	0.612480893	0.009047160	0.093337878	0.028767640
2019-09-09T03:40:00	0.2116	11.911	173.0	0.506123123	0.606404530	0.008906188	0.091883501	0.028319387
2019-09-09T03:45:00	0.2134	11.908	172.7	0.512027522	0.614614331	0.009096832	0.093850343	0.028925587
2019-09-09T03:50:00	0.2136	11.907	172.5	0.512793466	0.615681403	0.009121712	0.094107016	0.029004696
2019-09-09T03:55:00	0.2122	11.907	184.2	0.508081808	0.609124874	0.008969208	0.092533661	0.028519773
2019-09-09T04:00:00	0.2144	11.906	184.3	0.515692524	0.619724516	0.009216186	0.095081687	0.029305099
2019-09-09T04:05:00	0.2152	11.904	184.2	0.518272005	0.623327654	0.009300655	0.095953144	0.029573691
2019-09-09T04:10:00	0.2152	11.901	184.0	0.518459338	0.623589539	0.009306805	0.096016588	0.029593245
2019-09-09T04:15:00	0.2175	11.898	183.6	0.526152756	0.634369264	0.009561118	0.098640291	0.030401896
2019-09-09T04:20:00	0.2194	11.896	171.5	0.532808702	0.643734125	0.009783916	0.100938857	0.031110336
2019-09-09T04:25:00	0.2202	11.894	171.0	0.535375394	0.647355077	0.009870522	0.101832360	0.031385722
2019-09-09T04:30:00	0.2207	11.892	170.9	0.536921075	0.649538233	0.009922863	0.102372348	0.031552152
2019-09-09T04:35:00	0.2205	11.890	170.5	0.536427862	0.648841396	0.009906146	0.102199887	0.031498998
2019-09-09T04:40:00	0.2227	11.880	168.6	0.543742287	0.659195980	0.010155515	0.104772571	0.032291924
2019-09-09T04:45:00	0.2231	11.871	166.5	0.545284236	0.661384406	0.010208483	0.105319040	0.032460351
2019-09-09T04:50:00	0.2249	11.868	176.7	0.551226868	0.669836766	0.010413927	0.107438568	0.033113610
2019-09-09T04:55:00	0.2260	11.866	176.2	0.555132109	0.675407070	0.010550065	0.108843078	0.033546494
2019-09-09T05:00:00	0.2265	11.866	176.0	0.556669011	0.677602692	0.010603888	0.109398357	0.033717636
2019-09-09T05:05:00	0.2286	11.864	175.6	0.563940976	0.688017803	0.010860440	0.112045157	0.034533406
2019-09-09T05:10:00	0.2267	11.860	163.5	0.557377300	0.678615210	0.010628739	0.109654743	0.033796657
2019-09-09T05:15:00	0.2290	11.857	162.4	0.565321827	0.690000421	0.010909508	0.112551383	0.034689429
2019-09-09T05:20:00	0.2291	11.854	161.6	0.565506632	0.690265882	0.010916084	0.112619222	0.034710338
2019-09-09T05:25:00	0.2311	11.854	161.8	0.572087629	0.699737479	0.011151556	0.115048551	0.035459081
2019-09-09T05:30:00	0.2296	11.855	162.0	0.567223683	0.692733670	0.010977274	0.113250513	0.034904908
2019-09-09T05:35:00	0.2291	11.857	162.5	0.565387094	0.690094169	0.010911830	0.112575339	0.034696813
2019-09-09T05:40:00	0.2282	11.858	163.0	0.562537920	0.686004915	0.010810698	0.111531979	0.034375239
2019-09-09T05:45:00	0.2296	11.861	163.2	0.567104204	0.692561873	0.010973011	0.113206527	0.034891351
2019-09-09T05:50:00	0.2286	11.864	163.5	0.563919326	0.687986731	0.010859672	0.112037229	0.034530962
2019-09-09T05:55:00	0.2291	11.866	163.7	0.565452359	0.690187920	0.010914152	0.112599297	0.034704197
2019-09-09T06:00:00	0.2285	11.869	163.9	0.563614838	0.687549766	0.010848867	0.111925763	0.034496607
2019-09-09T06:05:00	0.2295	11.871	164.2	0.566832613	0.692171401	0.010963322	0.113106574	0.034860545
2019-09-09T06:10:00	0.2304	11.873	175.5	0.569710880	0.696312651	0.011066219	0.114168144	0.035187731
2019-09-09T06:15:00	0.2308	11.874	175.5	0.571241376	0.698517517	0.011121133	0.114734682	0.035362343
2019-09-09T06:20:00	0.2304	11.873	175.2	0.569743473	0.696359584	0.011067387	0.114180194	0.035191445
2019-09-09T06:25:00	0.2317	11.874	163.8	0.574300361	0.702930166	0.011231305	0.115871302	0.035712661
2019-09-09T06:30:00	0.2324	11.871	163.0	0.576500740	0.706109049	0.011310896	0.116692426	0.035965739
2019-09-09T06:35:00	0.2346	11.862	160.6	0.584066847	0.717070440	0.011586764	0.119538509	0.036842929
2019-09-09T06:40:00	0.2358	11.855	159.0	0.587935614	0.722693693	0.011729138	0.121007352	0.037295641
2019-09-09T06:45:00	0.2362	11.852	158.4	0.589458187	0.724910169	0.011785414	0.121587942	0.037474584
2019-09-09T06:50:00	0.2384	11.849	157.7	0.596662547	0.735424080	0.012053569	0.124354453	0.038327250
2019-09-09T06:55:00	0.2397	11.844	156.3	0.601184725	0.742045808	0.012223474	0.126107327	0.038867503
2019-09-09T07:00:00	0.2420	11.843	155.7	0.608698130	0.753085378	0.012508469	0.129047572	0.039773715
2019-09-09T07:05:00	0.2443	11.844	166.5	0.616195662	0.764148853	0.012796240	0.132016446	0.040688751
2019-09-09T07:10:00	0.2428	11.845	166.6	0.611392216	0.757055375	0.012611485	0.130110365	0.040101278
2019-09-09T07:15:00	0.2441	11.846	166.7	0.615563457	0.763214136	0.012771844	0.131764759	0.040611178
2019-09-09T07:20:00	0.2452	11.849	166.6	0.619397969	0.768888639	0.012920181	0.133295127	0.041082853
2019-09-09T07:25:00	0.2448	11.850	166.5	0.617920365	0.766700541	0.012862916	0.132704328	0.040900763
2019-09-09T07:30:00	0.2464	11.851	156.0	0.623410158	0.774839342	0.013076341	0.134906195	0.041579399
2019-09-09T07:35:00	0.2474	11.853	166.5	0.626573923	0.779541280	0.013200163	0.136183651	0.041973124
2019-09-09T07:40:00	0.2458	11.855	166.3	0.621452806	0.771934588	0.013000037	0.134118982	0.041336773
2019-09-09T07:45:00	0.2463	11.857	155.7	0.622961052	0.774172574	0.013058813	0.134725361	0.041523665
2019-09-09T07:50:00	0.2481	11.859	155.8	0.629105078	0.783309132	0.013299663	0.137210168	0.042289506
2019-09-09T07:55:00	0.2457	11.861	166.6	0.621003454	0.771268195	0.012982552	0.133938597	0.041281176
2019-09-09T08:00:00	0.2490	11.866	156.4	0.631783788	0.787302536	0.013405385	0.138300881	0.042625675
2019-09-09T08:05:00	0.2488	11.872	156.6	0.631303703	0.786586383	0.013386405	0.138105071	0.042565324
2019-09-09T08:10:00	0.2488	11.876	167.5	0.631154338	0.786363611	0.013380503	0.138044180	0.042546557
2019-09-09T08:15:00	0.2523	11.880	157.1	0.642893386	0.803929570	0.013848496	0.142872383	0.044034656
2019-09-09T08:20:00	0.2482	11.885	157.1	0.629201226	0.783452365	0.013303450	0.137249240	0.042301549
2019-09-09T08:25:00	0.2498	11.890	157.1	0.634673723	0.791617646	0.013519930	0.139482629	0.042989901
2019-09-09T08:30:00	0.2474	11.894	157.1	0.626584726	0.779557350	0.013200587	0.136188024	0.041974472
2019-09-09T08:35:00	0.2479	11.898	157.1	0.628421842	0.782291541	0.013272767	0.136932686	0.042203984
2019-09-09T08:40:00	0.2498	11.902	157.2	0.634556500	0.791442476	0.013515274	0.139434592	0.042975096
2019-09-09T08:45:00	0.2493	11.903	157.4	0.632754549	0.788751239	0.013443805	0.138697261	0.042747843
2019-09-09T08:50:00	0.2484	11.907	157.6	0.629959191	0.784581780	0.013333325	0.137557458	0.042396545
2019-09-09T08:55:00	0.2490	11.912	157.8	0.631794576	0.787318631	0.013405811	0.138305283	0.042627031
2019-09-09T09:00:00	0.2498	11.916	157.9	0.634620502	0.791538114	0.013517816	0.139460818	0.042983179
2019-09-09T09:05:00	0.2521	11.919	157.9	0.642063863	0.802684455	0.013815151	0.142528369	0.043928628
2019-09-09T09:10:00	0.2502	11.923	157.8	0.635974040	0.793561524	0.013571635	0.140016056	0.043154308
2019-09-09T09:15:00	0.2493	11.928	157.8	0.632850599	0.788894623	0.013447610	0.138736512	0.042759940
2019-09-09T09:20:00	0.2492	11.931	157.9	0.632701298	0.788671751	0.013441696	0.138675502	0.042741137
2019-09-09T09:25:00	0.2510	11.934	157.9	0.638498562	0.797339593	0.013672311	0.141054710	0.043474431
2019-09-09T09:30:00	0.2482	11.937	158.1	0.629425563	0.783786590	0.013312289	0.137340427	0.042329653
2019-09-09T09:35:00	0.2487	11.941	158.4	0.630930447	0.786029722	0.013371658	0.137952933	0.042518434
2019-09-09T09:40:00	0.2490	11.946	158.7	0.631773337	0.787286945	0.013404971	0.138296617	0.042624361
2019-09-09T09:45:00	0.2496	11.949	159.0	0.633938318	0.790518904	0.013490734	0.139181413	0.042897063
2019-09-09T09:50:00	0.2499	11.952	159.3	0.634780501	0.791777217	0.013524172	0.139526392	0.043003389
2019-09-09T09:55:00	0.2510	11.955	159.6	0.638594458	0.797483214	0.013676143	0.141094243	0.043486616
2019-09-09T10:00:00	0.2483	11.957	160.0	0.629521703	0.783929836	0.013316077	0.137379514	0.042341701
2019-09-09T10:05:00	0.2511	11.956	159.0	0.638690876	0.797627622	0.013679996	0.141133996	0.043498868
2019-09-09T10:10:00	0.2513	11.951	157.5	0.639596380	0.798984219	0.013716212	0.141507626	0.043614025
2019-09-09T10:15:00	0.2485	11.954	157.6	0.630259927	0.785030029	0.013345188	0.137679848	0.042434266
2019-09-09T10:20:00	0.2476	11.957	157.9	0.627196153	0.780467024	0.013224587	0.136435628	0.042050786
2019-09-09T10:25:00	0.2480	11.958	157.1	0.628766607	0.782804974	0.013286335	0.137072669	0.042247128
2019-09-09T10:30:00	0.2485	11.960	156.7	0.630336371	0.785143982	0.013348205	0.137710968	0.042443858
2019-09-09T10:35:00	0.2489	11.960	156.1	0.631574733	0.786990660	0.013397118	0.138215597	0.042599389
2019-09-09T10:40:00	0.2505	11.959	165.1	0.636777854	0.794763883	0.013603648	0.140346333	0.043256103
2019-09-09T10:45:00	0.2515	11.961	154.1	0.640324198	0.800075117	0.013745357	0.141808311	0.043706699
2019-09-09T10:50:00	0.2519	11.966	164.5	0.641559116	0.801927115	0.013794882	0.142319256	0.043864177
2019-09-09T10:55:00	0.2503	11.969	164.8	0.636193613	0.793889911	0.013580376	0.140106236	0.043182103
2019-09-09T11:00:00	0.2526	11.973	165.2	0.643698079	0.805137973	0.013880883	0.143206511	0.044137638
2019-09-09T11:05:00	0.2514	11.977	165.5	0.639985926	0.799568038	0.013731807	0.141668519	0.043663613
2019-09-09T11:10:00	0.2530	11.983	165.6	0.645176875	0.807360109	0.013940503	0.143821604	0.044327215
2019-09-09T11:15:00	0.2525	11.987	155.1	0.643444616	0.804757289	0.013870678	0.143101223	0.044105187
2019-09-09T11:20:00	0.2544	11.988	155.2	0.649617931	0.814044724	0.014120354	0.145677087	0.044899093
2019-09-09T11:25:00	0.2539	11.990	164.9	0.648217024	0.811934285	0.014063491	0.145090445	0.044718284
2019-09-09T11:30:00	0.2519	11.991	153.6	0.641542455	0.801902121	0.013794213	0.142312356	0.043862050
2019-09-09T11:35:00	0.2545	11.992	153.2	0.650023015	0.814655287	0.014136818	0.145846949	0.044951446
2019-09-09T11:40:00	0.2544	11.992	153.1	0.649609619	0.814032198	0.014120016	0.145673602	0.044898019
2019-09-09T11:45:00	0.2561	11.994	153.0	0.655443866	0.822839336	0.014358113	0.148130001	0.045655105
2019-09-09T11:50:00	0.2562	11.997	152.7	0.655688189	0.823208790	0.014368129	0.148233337	0.045686954
2019-09-09T11:55:00	0.2552	12.000	152.4	0.652317221	0.818115870	0.014230255	0.146810919	0.045248551
2019-09-09T12:00:00	0.2540	12.006	152.2	0.648284772	0.812036308	0.014066238	0.145118787	0.044727020
2019-09-09T12:05:00	0.2571	12.011	152.1	0.658719495	0.827796832	0.014492704	0.149518552	0.046083070
2019-09-09T12:10:00	0.2551	12.026	152.2	0.652064363	0.817734239	0.014219941	0.146704512	0.045215755
2019-09-09T12:15:00	0.2563	12.047	152.2	0.655924198	0.823565721	0.014377808	0.148333192	0.045717730
2019-09-09T12:20:00	0.2570	12.061	152.3	0.658138804	0.826917317	0.014468796	0.149271901	0.046007050
2019-09-09T12:25:00	0.2560	12.072	152.3	0.655098711	0.822317497	0.014343969	0.147984083	0.045610132
2019-09-09T12:30:00	0.2577	12.085	152.4	0.660596046	0.830641029	0.014570105	0.150317082	0.046329185
2019-09-09T12:35:00	0.2569	12.093	152.6	0.657886354	0.826535046	0.014458409	0.149164738	0.045974021
2019-09-09T12:40:00	0.2564	12.103	152.6	0.656160192	0.823922676	0.014387489	0.148433076	0.045748516
2019-09-09T12:45:00	0.2571	12.108	152.8	0.658702914	0.827771714	0.014492021	0.149511506	0.046080898
2019-09-09T12:50:00	0.2562	12.114	152.9	0.655663296	0.823171145	0.014367108	0.148222807	0.045683709
2019-09-09T12:55:00	0.2538	12.120	153.2	0.647685767	0.811134395	0.014041959	0.144868300	0.044649817
2019-09-09T13:00:00	0.2520	12.127	153.4	0.641669872	0.802093280	0.013799328	0.142365128	0.043878315
2019-09-09T13:05:00	0.2527	12.134	153.6	0.644222832	0.805926289	0.013902024	0.143424621	0.044204861
2019-09-09T13:10:00	0.2517	12.139	153.7	0.640841112	0.800850172	0.013766076	0.142022067	0.043772580
2019-09-09T13:15:00	0.2524	12.145	153.7	0.643065004	0.804187241	0.013855400	0.142943608	0.044056608
2019-09-09T13:20:00	0.2524	12.153	153.7	0.642980503	0.804060366	0.013852001	0.142908536	0.044045799
2019-09-09T13:25:00	0.2506	12.163	153.8	0.637286938	0.795525665	0.013623944	0.140555718	0.043320637
2019-09-09T13:30:00	0.2510	12.170	153.9	0.638522901	0.797376044	0.013673283	0.141064743	0.043477524
2019-09-09T13:35:00	0.2507	12.178	154.1	0.637447866	0.795766519	0.013630363	0.140621941	0.043341048
2019-09-09T13:40:00	0.2506	12.183	154.4	0.637363233	0.795639850	0.013626987	0.140587112	0.043330313
2019-09-09T13:45:00	0.2519	12.186	154.8	0.641568679	0.801941462	0.013795266	0.142323216	0.043865397
2019-09-09T13:50:00	0.2506	12.186	165.6	0.637193961	0.795386520	0.013620236	0.140517465	0.043308847
2019-09-09T13:55:00	0.2520	12.183	155.4	0.641729415	0.802182613	0.013801719	0.142389792	0.043885917
2019-09-09T14:00:00	0.2512	12.179	155.7	0.639335525	0.798593343	0.013705774	0.141399939	0.043580835
2019-09-09T14:05:00	0.2511	12.177	155.9	0.638920900	0.797972170	0.013689191	0.141228860	0.043528106
2019-09-09T14:10:00	0.2517	12.175	156.0	0.640816116	0.800812689	0.013765074	0.142011727	0.043769393
2019-09-09T14:15:00	0.2517	12.176	156.1	0.640731563	0.800685896	0.013761684	0.141976752	0.043758614
2019-09-09T14:20:00	0.2511	12.175	156.0	0.638997160	0.798086408	0.013692240	0.141260318	0.043537802
2019-09-09T14:25:00	0.2506	12.173	156.0	0.637261918	0.795488220	0.013622946	0.140545424	0.043317465
2019-09-09T14:30:00	0.2502	12.170	156.1	0.635856186	0.793385282	0.013566944	0.139967665	0.043139394
2019-09-09T14:35:00	0.2498	12.170	156.2	0.634449902	0.791283195	0.013511041	0.139390918	0.042961635
2019-09-09T14:40:00	0.2491	12.168	156.4	0.632381818	0.788194905	0.013429047	0.138544998	0.042700914
2019-09-09T14:45:00	0.2491	12.168	156.6	0.632297065	0.788068420	0.013425692	0.138510389	0.042690247
2019-09-09T14:50:00	0.2482	12.166	156.8	0.629235037	0.783502735	0.013304782	0.137262981	0.042305784
2019-09-09T14:55:00	0.2494	12.163	157.0	0.633119452	0.789296005	0.013458262	0.138846410	0.042793812
2019-09-09T15:00:00	0.2500	12.159	157.2	0.635348133	0.792625660	0.013546734	0.139759159	0.043075130
2019-09-09T15:05:00	0.2490	12.155	157.3	0.631958035	0.787562513	0.013412277	0.138371986	0.042647590
2019-09-09T15:10:00	0.2498	12.150	157.5	0.634517911	0.791384814	0.013513742	0.139418781	0.042970222
2019-09-09T15:15:00	0.2507	12.146	157.6	0.637406167	0.795704107	0.013628699	0.140604780	0.043335759
2019-09-09T15:20:00	0.2528	12.143	157.7	0.644578584	0.806460854	0.013916366	0.143572585	0.044250465
2019-09-09T15:25:00	0.2507	12.139	157.8	0.637567089	0.795944970	0.013635119	0.140671013	0.043356172
2019-09-09T15:30:00	0.2510	12.133	157.8	0.638472877	0.797301127	0.013671284	0.141044122	0.043471168
2019-09-09T15:35:00	0.2515	12.129	157.9	0.640038395	0.799646685	0.013733908	0.141690197	0.043670295
2019-09-09T15:40:00	0.2508	12.125	158.0	0.637973533	0.796553416	0.013651341	0.140838370	0.043407754
2019-09-09T15:45:00	0.2525	12.121	158.0	0.643497035	0.804836014	0.013872788	0.143122994	0.044111897
2019-09-09T15:50:00	0.2542	12.117	158.1	0.649012065	0.813131794	0.014095747	0.145423224	0.044820850
2019-09-09T15:55:00	0.2533	12.113	158.1	0.645964267	0.808544057	0.013972303	0.144149674	0.044428330
2019-09-09T16:00:00	0.2521	12.106	158.0	0.642254455	0.802970482	0.013822809	0.142607372	0.043952977
2019-09-09T16:05:00	0.2517	12.101	157.9	0.640757269	0.800724443	0.013762714	0.141987385	0.043761891
2019-09-09T16:10:00	0.2528	12.094	157.9	0.644535923	0.806396744	0.013914646	0.143554837	0.044244995
2019-09-09T16:15:00	0.2526	12.086	158.1	0.643698975	0.805139319	0.013880919	0.143206883	0.044137752
2019-09-09T16:20:00	0.2520	12.081	158.2	0.641872625	0.802397490	0.013807470	0.142449122	0.043904203
2019-09-09T16:25:00	0.2539	12.075	158.4	0.647955414	0.811540360	0.014052886	0.144981031	0.044684562
2019-09-09T16:30:00	0.2530	12.069	158.5	0.645142915	0.807309059	0.013939133	0.143807463	0.044322857
2019-09-09T16:35:00	0.2530	12.060	158.3	0.644965165	0.807041866	0.013931960	0.143733461	0.044300049
2019-09-09T16:40:00	0.2546	12.049	158.3	0.650384790	0.815200691	0.014151531	0.145998738	0.044998229
2019-09-09T16:45:00	0.2545	12.039	158.1	0.650207298	0.814933095	0.014144312	0.145924258	0.044975273
2019-09-09T16:50:00	0.2527	12.027	158.0	0.644102299	0.805745196	0.013897167	0.143374507	0.044189415
2019-09-09T16:55:00	0.2557	12.016	157.9	0.654127414	0.820849536	0.014304206	0.147573860	0.045483697
2019-09-09T17:00:00	0.2546	12.003	157.8	0.650332844	0.815122372	0.014149418	0.145976938	0.044991510
2019-09-09T17:05:00	0.2570	11.991	157.7	0.658371568	0.827269826	0.014478377	0.149370743	0.046037514
2019-09-09T17:10:00	0.2556	11.975	157.7	0.653595464	0.820045921	0.014282454	0.147349445	0.045414530
2019-09-09T17:15:00	0.2581	11.959	157.6	0.661954905	0.832702465	0.014626287	0.150896708	0.046507831
2019-09-09T17:20:00	0.2574	11.943	157.4	0.659481488	0.828951383	0.014524107	0.149842535	0.046182925
2019-09-09T17:25:00	0.2595	11.930	157.3	0.666517446	0.839635574	0.014815756	0.152851424	0.047110293
2019-09-09T17:30:00	0.2640	11.919	157.3	0.681050847	0.861839287	0.015427822	0.159165996	0.049056506
2019-09-09T17:35:00	0.2632	11.908	157.3	0.678590403	0.858067509	0.015323286	0.158087517	0.048724108
2019-09-09T17:40:00	0.2639	11.895	157.2	0.680698845	0.861299359	0.015412844	0.159011467	0.049008879
2019-09-09T17:45:00	0.2643	11.882	157.2	0.682153860	0.863531863	0.015474807	0.159650729	0.049205905
2019-09-09T17:50:00	0.2647	11.869	157.2	0.683608296	0.865765302	0.015536876	0.160291086	0.049403269
2019-09-09T17:55:00	0.2639	11.856	157.2	0.680823339	0.861490306	0.015418140	0.159066111	0.049025720
2019-09-09T18:00:00	0.2644	11.849	157.3	0.682604413	0.864223538	0.015494021	0.159848953	0.049267000
2019-09-09T18:05:00	0.2663	11.840	157.3	0.688619303	0.873474219	0.015751728	0.162507671	0.050086442
2019-09-09T18:10:00	0.2662	11.830	157.3	0.688443670	0.873203659	0.015744171	0.162429709	0.050062414
2019-09-09T18:15:00	0.2664	11.819	157.3	0.688919147	0.873936185	0.015764633	0.162640813	0.050127478
2019-09-09T18:20:00	0.2656	11.812	157.3	0.686464000	0.870155848	0.015659126	0.161552320	0.049791994
2019-09-09T18:25:00	0.2682	11.803	157.3	0.694748343	0.882932637	0.016016633	0.165240650	0.050928773
2019-09-09T18:30:00	0.2692	11.794	157.2	0.698146567	0.888190849	0.016164515	0.166766320	0.051398999
2019-09-09T18:35:00	0.2680	11.787	157.1	0.694072598	0.881888223	0.015987312	0.164938151	0.050835540
2019-09-09T18:40:00	0.2663	11.773	156.8	0.688692128	0.873586412	0.015754862	0.162540002	0.050096407
2019-09-09T18:45:00	0.2687	11.759	156.4	0.696321750	0.885365990	0.016085014	0.165946127	0.051146208
2019-09-09T18:50:00	0.2719	11.746	156.2	0.706852190	0.901707160	0.016546643	0.170708666	0.052614069
2019-09-09T18:55:00	0.2711	11.734	156.0	0.704409015	0.897907247	0.016438924	0.169597349	0.052271550
2019-09-09T19:00:00	0.2712	11.725	156.0	0.704558296	0.898139278	0.016445495	0.169665141	0.052292444
2019-09-09T19:05:00	0.2726	11.717	166.5	0.709242632	0.905430086	0.016652398	0.171799721	0.052950343
2019-09-09T19:10:00	0.2725	11.711	156.0	0.708744220	0.904653437	0.016630318	0.171571930	0.052880135
2019-09-09T19:15:00	0.2715	11.708	156.2	0.705654258	0.899843347	0.016493780	0.170163287	0.052445978
2019-09-09T19:20:00	0.2721	11.707	156.3	0.707423313	0.902596186	0.016571877	0.170969005	0.052694308
2019-09-09T19:25:00	0.2717	11.705	156.4	0.706276722	0.900811657	0.016521237	0.170446559	0.052533285
2019-09-09T19:30:00	0.2717	11.701	156.5	0.706101932	0.900539718	0.016513525	0.170366990	0.052508761
2019-09-09T19:35:00	0.2701	11.696	156.6	0.701063545	0.892712400	0.016292027	0.168081843	0.051804457
2019-09-09T19:40:00	0.2694	11.693	156.7	0.698616521	0.888918816	0.016185023	0.166977894	0.051464209
2019-09-09T19:45:00	0.2702	11.690	156.8	0.701362373	0.893176024	0.016305120	0.168216920	0.051846088
2019-09-09T19:50:00	0.2709	11.685	156.9	0.703781976	0.896932839	0.016411338	0.169312750	0.052183834
2019-09-09T19:55:00	0.2720	11.680	157.0	0.707171864	0.902204739	0.016560765	0.170854359	0.052658973
2019-09-09T20:00:00	0.2706	11.675	157.0	0.702783603	0.895382092	0.016367466	0.168860134	0.052044333
2019-09-09T20:05:00	0.2694	11.664	156.9	0.698714778	0.889071041	0.016189312	0.167022147	0.051477848
2019-09-09T20:10:00	0.2688	11.659	157.0	0.696915886	0.886285408	0.016110876	0.166212936	0.051228441
2019-09-09T20:15:00	0.2694	11.654	158.0	0.698689147	0.889031333	0.016188193	0.167010603	0.051474290
2019-09-09T20:20:00	0.2668	11.651	168.4	0.690388032	0.876200407	0.015827935	0.163293889	0.050328762
2019-09-09T20:25:00	0.2671	11.650	157.4	0.691188598	0.877435231	0.015862492	0.163650407	0.050438645
2019-09-09T20:30:00	0.2669	11.649	157.2	0.690687730	0.876662609	0.015840867	0.163427306	0.050369883
2019-09-09T20:35:00	0.2658	11.649	157.8	0.686931175	0.870874785	0.015679174	0.161759146	0.049855740
2019-09-09T20:40:00	0.2659	11.649	157.6	0.687406848	0.871606992	0.015699600	0.161969877	0.049920689
2019-09-09T20:45:00	0.2638	11.646	157.7	0.680385465	0.860818764	0.015399515	0.158873960	0.048966498
2019-09-09T20:50:00	0.2635	11.645	157.9	0.679556763	0.859548285	0.015364299	0.158510639	0.048854518
2019-09-09T20:55:00	0.2640	11.643	158.0	0.681338455	0.862280521	0.015440066	0.159292314	0.049095438
2019-09-09T21:00:00	0.2635	11.641	158.2	0.679530998	0.859508794	0.015363205	0.158499350	0.048851039
2019-09-09T21:05:00	0.2646	11.639	158.4	0.683269428	0.865244771	0.015522403	0.160141769	0.049357248
2019-09-09T21:10:00	0.2638	11.637	158.6	0.680484212	0.860970192	0.015403714	0.158917283	0.048979850
2019-09-09T21:15:00	0.2632	11.634	158.7	0.678676331	0.858199147	0.015326931	0.158125117	0.048735697
2019-09-09T21:20:00	0.2638	11.631	158.9	0.680458454	0.860930691	0.015402619	0.158905981	0.048976367
2019-09-09T21:25:00	0.2631	11.629	159.0	0.678324099	0.857659588	0.015311994	0.157971021	0.048688203
2019-09-09T21:30:00	0.2642	11.628	159.2	0.681737610	0.862893002	0.015457067	0.159467711	0.049149497
2019-09-09T21:35:00	0.2639	11.626	159.4	0.680909215	0.861622028	0.015421794	0.159103810	0.049037340
2019-09-09T21:40:00	0.2631	11.624	159.5	0.678122196	0.857350355	0.015303436	0.157882726	0.048660990
2019-09-09T21:45:00	0.2633	11.623	159.6	0.678925454	0.858580825	0.015337499	0.158234152	0.048769303
2019-09-09T21:50:00	0.2625	11.621	159.7	0.676136917	0.854311593	0.015219418	0.157015928	0.048393834
2019-09-09T21:55:00	0.2623	11.618	159.9	0.675633980	0.853542312	0.015198172	0.156796738	0.048326277
2019-09-09T22:00:00	0.2613	11.616	160.0	0.672515936	0.848777883	0.015066802	0.155441419	0.047908555
2019-09-09T22:05:00	0.2635	11.614	160.2	0.679572917	0.859573044	0.015364985	0.158517717	0.048856700
2019-09-09T22:10:00	0.2616	11.611	160.3	0.673236636	0.849878383	0.015097113	0.155754137	0.048004938
2019-09-09T22:15:00	0.2615	11.608	160.4	0.673106550	0.849679710	0.015091640	0.155697667	0.047987533
2019-09-09T22:20:00	0.2625	11.605	160.6	0.676244548	0.854476251	0.015223967	0.157062857	0.048408298
2019-09-09T22:25:00	0.2617	11.602	160.7	0.673827133	0.850780397	0.015121973	0.156010603	0.048083983
2019-09-09T22:30:00	0.2611	11.599	160.8	0.671735192	0.847586201	0.015034001	0.155103021	0.047804257
2019-09-09T22:35:00	0.2610	11.597	161.0	0.671277958	0.846888548	0.015014810	0.154905022	0.047743232
2019-09-09T22:40:00	0.2599	11.594	161.1	0.667875125	0.841702110	0.014872383	0.153435637	0.047290353
2019-09-09T22:45:00	0.2599	11.593	161.2	0.667744846	0.841503743	0.014866945	0.153379527	0.047273060
2019-09-09T22:50:00	0.2597	11.591	161.3	0.667287109	0.840806892	0.014847844	0.153182469	0.047212325
2019-09-09T22:55:00	0.2608	11.589	161.4	0.670757304	0.846094347	0.014992971	0.154679721	0.047673792
2019-09-09T23:00:00	0.2606	11.589	161.4	0.669972735	0.844898013	0.014960095	0.154340542	0.047569254
2019-09-09T23:05:00	0.2599	11.588	161.5	0.667878574	0.841707362	0.014872527	0.153437122	0.047290811
2019-09-09T23:10:00	0.2577	11.587	161.6	0.660537744	0.830552617	0.014567697	0.150292239	0.046321528
2019-09-09T23:15:00	0.2551	11.586	161.7	0.652195617	0.817932331	0.014225295	0.146759741	0.045232778
2019-09-09T23:20:00	0.2567	11.586	161.7	0.657322526	0.825681470	0.014435224	0.148925544	0.045900299
2019-09-09T23:25:00	0.2547	11.586	161.8	0.650618240	0.815552695	0.014161029	0.146096730	0.045028431
2019-09-09T23:30:00	0.2548	11.586	161.9	0.651145264	0.816347529	0.014182484	0.146318077	0.045096652
2019-09-09T23:35:00	0.2547	11.587	162.0	0.650685422	0.815654002	0.014163763	0.146124936	0.045037124
2019-09-09T23:40:00	0.2587	11.588	162.1	0.663690074	0.835337077	0.014698193	0.151638549	0.046736473
2019-09-09T23:45:00	0.2553	11.588	162.2	0.652725874	0.818732755	0.014246932	0.146982974	0.045301580
2019-09-09T23:50:00	0.2552	11.589	162.3	0.652266233	0.818038912	0.014228175	0.146789460	0.045241937
2019-09-09T23:55:00	0.2567	11.590	162.4	0.657393042	0.825788208	0.014438122	0.148955448	0.045909516
2019-09-10T00:00:00	0.2528	11.592	162.5	0.644432943	0.806241996	0.013910494	0.143512000	0.044231792
2019-09-10T00:05:00	0.2531	11.593	162.6	0.645290356	0.807530711	0.013945084	0.143868862	0.044341781
2019-09-10T00:10:00	0.2541	11.595	162.7	0.648781717	0.812784783	0.014086398	0.145326767	0.044791121
2019-09-10T00:15:00	0.2529	11.595	162.8	0.644698653	0.806641299	0.013921208	0.143622541	0.044265862
2019-09-10T00:20:00	0.2520	11.596	162.9	0.641930296	0.802484026	0.013809786	0.142473018	0.043911568
2019-09-10T00:25:00	0.2503	11.595	163.0	0.636188301	0.793881966	0.013580164	0.140104054	0.043181430
2019-09-10T00:30:00	0.2503	11.594	163.0	0.636056873	0.793685401	0.013574932	0.140050072	0.043164792
2019-09-10T00:35:00	0.2509	11.595	163.1	0.638236992	0.796947889	0.013661862	0.140946907	0.043441206
2019-09-10T00:40:00	0.2513	11.593	163.2	0.639425905	0.798728766	0.013709390	0.141437245	0.043592333
2019-09-10T00:45:00	0.2505	11.593	163.3	0.636983725	0.795071918	0.013611854	0.140430988	0.043282194
2019-09-10T00:50:00	0.2482	11.594	163.4	0.629248681	0.783523061	0.013305319	0.137268526	0.042307493
2019-09-10T00:55:00	0.2499	11.592	163.5	0.634738846	0.791714965	0.013522517	0.139509319	0.042998127
2019-09-10T01:00:00	0.2497	11.592	163.6	0.634276900	0.791024709	0.013504172	0.139320051	0.042939793
2019-09-10T01:05:00	0.2499	11.591	163.7	0.634806325	0.791815810	0.013525198	0.139536977	0.043006652
2019-09-10T01:10:00	0.2530	11.591	163.7	0.645233485	0.807445213	0.013942788	0.143845178	0.044334481
2019-09-10T01:15:00	0.2588	11.591	163.8	0.664162075	0.836054191	0.014717785	0.151840674	0.046798770
2019-09-10T01:20:00	0.2618	11.592	163.8	0.673851235	0.850817221	0.015122988	0.156021076	0.048087211
2019-09-10T01:25:00	0.2637	11.594	163.7	0.680253083	0.860615770	0.015393887	0.158815892	0.048948600
2019-09-10T01:30:00	0.2643	11.595	163.6	0.682080610	0.863419427	0.015471684	0.159618514	0.049195976
2019-09-10T01:35:00	0.2649	11.594	163.6	0.684233184	0.866725443	0.015563584	0.160566625	0.049488193
2019-09-10T01:40:00	0.2659	11.595	163.6	0.687361626	0.871537372	0.015697657	0.161949837	0.049914513
2019-09-10T01:45:00	0.2662	11.595	163.6	0.688208952	0.872842119	0.015734075	0.162325551	0.050030311
2019-09-10T01:50:00	0.2656	11.595	163.5	0.686451013	0.870135865	0.015658569	0.161546573	0.049790223
2019-09-10T01:55:00	0.2669	11.597	163.5	0.690553842	0.876456114	0.015835089	0.163367696	0.050351510
2019-09-10T02:00:00	0.2666	11.598	163.4	0.689773521	0.875252939	0.015801436	0.163020506	0.050244503
2019-09-10T02:05:00	0.2677	11.598	163.4	0.693222393	0.880574730	0.015950461	0.164557969	0.050718364
2019-09-10T02:10:00	0.2665	11.596	163.4	0.689189029	0.874352057	0.015776254	0.162760701	0.050164429
2019-09-10T02:15:00	0.2654	11.592	163.4	0.685802887	0.869138784	0.015630780	0.161259874	0.049701859
2019-09-10T02:20:00	0.2665	11.588	163.4	0.689255501	0.874454496	0.015779117	0.162790237	0.050173532
2019-09-10T02:25:00	0.2681	11.580	163.5	0.694655502	0.882789121	0.016012603	0.165199072	0.050915959
2019-09-10T02:30:00	0.2674	11.573	163.5	0.692250246	0.879073614	0.015908380	0.164123827	0.050584558
2019-09-10T02:35:00	0.2694	11.566	163.6	0.698619978	0.888924171	0.016185173	0.166979451	0.051464688
2019-09-10T02:40:00	0.2674	11.558	163.6	0.692316663	0.879176143	0.015911253	0.164153468	0.050593693
2019-09-10T02:45:00	0.2682	11.550	163.7	0.694788246	0.882994324	0.016018365	0.165258523	0.050934282
2019-09-10T02:50:00	0.2682	11.540	163.8	0.694983931	0.883296850	0.016026862	0.165346181	0.050961299
2019-09-10T02:55:00	0.2669	11.530	163.9	0.690627144	0.876569165	0.015838252	0.163400330	0.050361569
2019-09-10T03:00:00	0.2683	11.522	163.9	0.695050298	0.883399460	0.016029744	0.165375917	0.050970464
2019-09-10T03:05:00	0.2665	11.515	164.0	0.689391870	0.874664664	0.015784991	0.162850838	0.050192210
2019-09-10T03:10:00	0.2675	11.505	164.0	0.692515905	0.879483743	0.015919874	0.164242405	0.050621104
2019-09-10T03:15:00	0.2691	11.495	164.1	0.697911108	0.887826191	0.016154245	0.166660369	0.051366344
2019-09-10T03:20:00	0.2704	11.484	164.2	0.702001140	0.894167317	0.016333126	0.168505850	0.051935139
2019-09-10T03:25:00	0.2686	11.475	164.3	0.696028547	0.884912374	0.016072260	0.165814542	0.051105652
2019-09-10T03:30:00	0.2687	11.466	164.4	0.696549033	0.885717671	0.016094905	0.166048166	0.051177657
2019-09-10T03:35:00	0.2687	11.456	164.5	0.696419774	0.885517659	0.016089280	0.165990131	0.051159770
2019-09-10T03:40:00	0.2675	11.446	164.6	0.692715137	0.879791360	0.015928497	0.164331363	0.050648522
2019-09-10T03:45:00	0.2687	11.436	164.7	0.696486115	0.885620312	0.016092167	0.166019916	0.051168950
2019-09-10T03:50:00	0.2674	11.424	164.8	0.692131114	0.878889715	0.015903228	0.164070667	0.050568173
2019-09-10T03:55:00	0.2667	11.412	164.8	0.690049643	0.875678631	0.015813340	0.163143317	0.050282355
2019-09-10T04:00:00	0.2686	11.401	165.0	0.696098318	0.885020310	0.016075294	0.165845849	0.051115301
2019-09-10T04:05:00	0.2689	11.390	176.3	0.697081585	0.886541881	0.016118092	0.166287387	0.051251388
2019-09-10T04:10:00	0.2680	11.379	176.4	0.694165895	0.882032398	0.015991359	0.164979898	0.050848407
2019-09-10T04:15:00	0.2711	11.370	176.6	0.704237771	0.897641103	0.016431388	0.169519600	0.052247587
2019-09-10T04:20:00	0.2707	11.359	176.7	0.702949552	0.895639797	0.016374754	0.168935323	0.052067507
2019-09-10T04:25:00	0.2698	11.348	176.8	0.700038520	0.891122686	0.016247159	0.167618945	0.051661787
2019-09-10T04:30:00	0.2705	11.337	165.5	0.702318333	0.894659696	0.016347042	0.168649421	0.051979390
2019-09-10T04:35:00	0.2713	11.328	177.0	0.704920863	0.898702904	0.016461460	0.169829853	0.052343210
2019-09-10T04:40:00	0.2745	11.321	177.1	0.715286615	0.914865327	0.016921384	0.174574797	0.053805648
2019-09-10T04:45:00	0.2723	11.312	165.9	0.708177960	0.903771327	0.016605252	0.171313324	0.052800430
2019-09-10T04:50:00	0.2723	11.303	177.3	0.708186652	0.903784867	0.016605637	0.171317292	0.052801653
2019-09-10T04:55:00	0.2728	11.295	177.5	0.709814118	0.906320867	0.016677734	0.172061107	0.053030904
2019-09-10T05:00:00	0.2732	11.290	177.6	0.711117311	0.908353233	0.016735585	0.172657950	0.053214857
2019-09-10T05:05:00	0.2724	11.285	177.8	0.708536540	0.904329885	0.016621123	0.171477060	0.052850895
2019-09-10T05:10:00	0.2736	11.281	178.0	0.712428727	0.910399917	0.016793909	0.173259665	0.053400311
2019-09-10T05:15:00	0.2730	11.279	178.1	0.710496177	0.907384373	0.016707999	0.172373343	0.053127138
2019-09-10T05:20:00	0.2729	11.277	178.3	0.710181227	0.906893234	0.016694020	0.172229127	0.053082690
2019-09-10T05:25:00	0.2731	11.276	178.5	0.710837160	0.907916204	0.016723140	0.172529552	0.053175284
2019-09-10T05:30:00	0.2711	11.273	178.8	0.704368298	0.897843963	0.016437132	0.169578861	0.052265852
2019-09-10T05:35:00	0.2732	11.271	178.9	0.711178110	0.908448087	0.016738287	0.172685821	0.053223447
2019-09-10T05:40:00	0.2745	11.267	179.1	0.715390724	0.915028131	0.016926037	0.174622805	0.053820445
2019-09-10T05:45:00	0.2712	11.264	167.7	0.704718548	0.898388382	0.016452551	0.169737932	0.052314879
2019-09-10T05:50:00	0.2713	11.262	179.5	0.705051365	0.898905803	0.016467209	0.169889160	0.052361489
2019-09-10T05:55:00	0.2710	11.261	179.7	0.704087633	0.897407782	0.016424782	0.169451449	0.052226582
2019-09-10T06:00:00	0.2726	11.261	179.9	0.709279666	0.905487802	0.016654039	0.171816653	0.052955561
2019-09-10T06:05:00	0.2719	11.262	168.5	0.707021551	0.901970763	0.016554124	0.170785845	0.052637856
2019-09-10T06:10:00	0.2718	11.262	180.3	0.706382333	0.900975980	0.016525898	0.170494646	0.052548106
2019-09-10T06:15:00	0.2730	11.264	180.5	0.710276793	0.907042252	0.016698261	0.172272880	0.053096175
2019-09-10T06:20:00	0.2736	11.266	169.1	0.712226823	0.910084715	0.016784923	0.173166953	0.053371737
2019-09-10T06:25:00	0.2723	11.269	169.3	0.708027982	0.903537741	0.016598616	0.171244865	0.052779331
2019-09-10T06:30:00	0.2736	11.272	169.5	0.712244189	0.910111825	0.016785696	0.173174927	0.053374194
2019-09-10T06:35:00	0.2716	11.275	169.6	0.705777798	0.900035499	0.016499227	0.170219488	0.052463299
2019-09-10T06:40:00	0.2727	11.279	169.8	0.709349186	0.905596150	0.016657120	0.171848441	0.052965358
2019-09-10T06:45:00	0.2741	11.284	170.0	0.713887226	0.912677911	0.016858901	0.173930172	0.053606968
2019-09-10T06:50:00	0.2750	11.291	170.2	0.716804693	0.917240204	0.016989305	0.175275529	0.054021620
2019-09-10T06:55:00	0.2732	11.298	170.4	0.710993511	0.908160099	0.016730085	0.172601204	0.053197367
2019-09-10T07:00:00	0.2727	11.304	170.6	0.709383945	0.905650324	0.016658661	0.171864335	0.052970257
2019-09-10T07:05:00	0.2742	11.311	170.7	0.714245252	0.913237387	0.016874875	0.174094975	0.053657762
2019-09-10T07:10:00	0.2739	11.317	170.9	0.713283919	0.911735396	0.016832001	0.173652650	0.053521433
2019-09-10T07:15:00	0.2742	11.324	171.1	0.714262608	0.913264512	0.016875650	0.174102966	0.053660225
2019-09-10T07:20:00	0.2739	11.332	171.3	0.713301280	0.911762514	0.016832775	0.173660633	0.053523894
2019-09-10T07:25:00	0.2741	11.341	171.4	0.713956658	0.912786402	0.016861998	0.173962126	0.053616817
2019-09-10T07:30:00	0.2737	11.349	171.6	0.712671832	0.910779487	0.016804733	0.173371330	0.053434728
2019-09-10T07:35:00	0.2731	11.358	171.8	0.710739409	0.907763732	0.016718799	0.172484764	0.053161479
2019-09-10T07:40:00	0.2737	11.368	171.9	0.712689196	0.910806601	0.016805506	0.173379308	0.053437186
2019-09-10T07:45:00	0.2731	11.380	172.1	0.710756783	0.907790830	0.016719570	0.172492723	0.053163933
2019-09-10T07:50:00	0.2729	11.392	172.2	0.710118212	0.906794978	0.016691224	0.172200280	0.053073799
2019-09-10T07:55:00	0.2743	11.405	172.4	0.714655307	0.913878305	0.016893181	0.174283830	0.053715969
2019-09-10T08:00:00	0.2744	11.417	172.5	0.714987229	0.914397208	0.016908006	0.174436779	0.053763110
2019-09-10T08:05:00	0.2736	11.431	172.6	0.712409163	0.910369374	0.016793038	0.173250680	0.053397542
2019-09-10T08:10:00	0.2741	11.449	172.8	0.714034769	0.912908458	0.016865483	0.173998077	0.053627897
2019-09-10T08:15:00	0.2736	11.466	173.0	0.712426529	0.910396485	0.016793811	0.173258655	0.053400000
2019-09-10T08:20:00	0.2740	11.486	185.0	0.713728800	0.912430380	0.016851835	0.173857273	0.053584500
2019-09-10T08:25:00	0.2741	11.507	185.2	0.714060805	0.912949144	0.016866644	0.174010062	0.053631591
2019-09-10T08:30:00	0.2742	11.528	185.4	0.714392780	0.913467958	0.016881460	0.174162908	0.053678700
2019-09-10T08:35:00	0.2724	11.553	185.6	0.708577798	0.904394159	0.016622949	0.171495905	0.052856704
2019-09-10T08:40:00	0.2720	11.576	185.7	0.707291097	0.902390350	0.016566034	0.170908718	0.052675727
2019-09-10T08:45:00	0.2739	11.596	185.9	0.713448846	0.911993022	0.016839352	0.173728494	0.053544809
2019-09-10T08:50:00	0.2704	11.616	174.1	0.702122378	0.894355504	0.016338444	0.168560718	0.051952050
2019-09-10T08:55:00	0.2713	11.640	174.3	0.705049163	0.898902378	0.016467112	0.169888159	0.052361180
2019-09-10T09:00:00	0.2710	11.659	186.4	0.704085429	0.897404358	0.016424685	0.169450449	0.052226274
2019-09-10T09:05:00	0.2712	11.675	174.5	0.704742448	0.898425535	0.016453603	0.169748789	0.052318225
2019-09-10T09:10:00	0.2717	11.693	174.7	0.706371435	0.900959023	0.016525417	0.170489683	0.052546576
2019-09-10T09:15:00	0.2723	11.713	174.8	0.707999702	0.903493699	0.016597365	0.171231958	0.052775352
2019-09-10T09:20:00	0.2696	11.731	175.0	0.699254259	0.889906990	0.016212874	0.167265232	0.051552769
2019-09-10T09:25:00	0.2690	11.759	175.2	0.697314780	0.886902864	0.016128251	0.166392195	0.051283690
2019-09-10T09:30:00	0.2692	11.791	175.3	0.697973009	0.887922052	0.016156945	0.166688219	0.051374928
2019-09-10T09:35:00	0.2687	11.821	175.5	0.696357737	0.885421670	0.016086580	0.165962281	0.051151187
2019-09-10T09:40:00	0.2683	11.852	175.7	0.695066752	0.883424899	0.016030459	0.165383289	0.050972736
2019-09-10T09:45:00	0.2682	11.882	175.9	0.694750478	0.882935938	0.016016726	0.165241607	0.050929068
2019-09-10T09:50:00	0.2673	11.900	176.1	0.691832933	0.878429482	0.015890334	0.163937649	0.050527176
2019-09-10T09:55:00	0.2666	11.929	176.2	0.689564066	0.874930070	0.015792410	0.162927378	0.050215800
2019-09-10T10:00:00	0.2674	11.943	176.3	0.692175651	0.878958463	0.015905154	0.164090539	0.050574298
2019-09-10T10:05:00	0.2641	11.959	176.5	0.681620424	0.862713173	0.015452075	0.159416207	0.049133623
2019-09-10T10:10:00	0.2649	11.972	176.6	0.684096327	0.866515134	0.015557732	0.160506258	0.049469588
2019-09-10T10:15:00	0.2625	11.999	176.8	0.676131996	0.854304065	0.015219210	0.157013783	0.048393173
2019-09-10T10:20:00	0.2629	12.029	176.9	0.677632145	0.856599944	0.015282674	0.157668530	0.048594972
2019-09-10T10:25:00	0.2620	12.046	177.1	0.674559159	0.851899022	0.015152820	0.156328848	0.048182069
2019-09-10T10:30:00	0.2634	12.059	177.2	0.679325280	0.859193505	0.015354469	0.158409229	0.048823263
2019-09-10T10:35:00	0.2623	12.079	177.3	0.675600342	0.853490868	0.015196751	0.156782083	0.048321761
2019-09-10T10:40:00	0.2629	12.107	177.5	0.677753822	0.856786248	0.015287828	0.157721700	0.048611360
2019-09-10T10:45:00	0.2624	12.140	177.7	0.675987915	0.854083661	0.015213122	0.156950973	0.048373814
2019-09-10T10:50:00	0.2623	12.174	177.9	0.675528292	0.853380682	0.015193709	0.156750697	0.048312087
2019-09-10T10:55:00	0.2623	12.185	177.9	0.675722087	0.853677064	0.015201893	0.156835125	0.048338109
2019-09-10T11:00:00	0.2620	12.187	178.0	0.674608871	0.851975004	0.015154916	0.156350472	0.048188734
2019-09-10T11:05:00	0.2625	12.192	178.0	0.676436307	0.854769637	0.015232073	0.157146485	0.048434073
2019-09-10T11:10:00	0.2613	12.189	178.0	0.672381416	0.848572522	0.015061148	0.155383087	0.047890576
2019-09-10T11:15:00	0.2621	12.185	178.1	0.674863602	0.852364383	0.015165659	0.156461303	0.048222893
2019-09-10T11:20:00	0.2619	12.199	178.2	0.674403837	0.851661632	0.015146272	0.156261294	0.048161248
2019-09-10T11:25:00	0.2615	12.226	190.6	0.672963275	0.849460912	0.015085613	0.155635484	0.047968368
2019-09-10T11:30:00	0.2620	12.241	190.7	0.674791538	0.852254220	0.015162619	0.156429944	0.048213228
2019-09-10T11:35:00	0.2618	12.245	190.7	0.674004915	0.851052027	0.015129461	0.156087862	0.048107795
2019-09-10T11:40:00	0.2607	12.247	178.5	0.670274524	0.845358127	0.014972737	0.154470963	0.047609451
2019-09-10T11:45:00	0.1446	13.859	3.8	0.308203876	0.307983047	0.003249707	0.033526626	0.010333232
2019-09-10T11:50:00	0.1625	16.193	1.8	0.356447286	0.382073804	0.004441907	0.045826334	0.014124121
2019-09-10T11:55:00	0.1613	15.930	0.2	0.353172740	0.377209494	0.004358456	0.044965391	0.013858770
2019-09-10T12:00:00	0.1587	16.674	1.4	0.345563013	0.366014105	0.004168130	0.043001833	0.013253583
2019-09-10T12:05:00								
2019-09-10T12:10:00								
2019-09-10T12:15:00	0.1458	17.778	0.0	0.310568743	0.312607510	0.003315354	0.034203894	0.010541972
2019-09-10T12:20:00	0.2418	12.539	179.2	0.608145320	0.752271511	0.012487385	0.128830049	0.039706672
2019-09-10T12:25:00	0.2394	12.375	191.7	0.600010684	0.740325041	0.012179246	0.125651036	0.038726870
2019-09-10T12:30:00	0.2372	12.390	179.5	0.592526130	0.729382175	0.011899228	0.122762143	0.037836485
2019-09-10T12:35:00	0.2391	12.405	179.6	0.599071700	0.738949623	0.012143932	0.125286712	0.038614582
2019-09-10T12:40:00	0.2379	12.410	191.9	0.594928303	0.732889198	0.011988736	0.123685575	0.038121095
2019-09-10T12:45:00	0.2380	12.422	192.0	0.595460627	0.733667010	0.012008617	0.123890690	0.038184314
2019-09-10T12:50:00	0.2360	12.444	179.8	0.588635978	0.723713003	0.011755007	0.121274239	0.037377898
2019-09-10T12:55:00	0.2341	12.460	179.9	0.582133469	0.714264938	0.011515948	0.118807910	0.036617752
2019-09-10T13:00:00	0.2341	12.476	179.9	0.582332392	0.714553451	0.011523224	0.118882975	0.036640888
2019-09-10T13:05:00	0.2329	12.492	192.4	0.578169246	0.708522213	0.011371439	0.117317043	0.036158252
2019-09-10T13:10:00	0.2341	12.500	192.5	0.582394874	0.714644079	0.011525510	0.118906558	0.036648156
2019-09-10T13:15:00	0.2355	12.508	180.2	0.586950357	0.721260440	0.011692795	0.120632410	0.037180080
2019-09-10T13:20:00	0.2341	12.521	180.3	0.582457355	0.714734709	0.011527796	0.118930143	0.036655425
2019-09-10T13:25:00	0.2347	12.540	180.3	0.584332474	0.717456131	0.011596511	0.119639065	0.036873922
2019-09-10T13:30:00	0.2338	12.558	180.4	0.581178235	0.712879957	0.011481041	0.118447785	0.036506758
2019-09-10T13:35:00	0.2354	12.571	192.9	0.586740238	0.720954884	0.011685052	0.120552526	0.037155459
2019-09-10T13:40:00	0.2342	12.579	180.6	0.582582313	0.714915974	0.011532368	0.118977318	0.036669965
2019-09-10T13:45:00	0.2336	12.584	180.6	0.580768770	0.712286510	0.011466095	0.118293587	0.036459232
2019-09-10T13:50:00	0.2333	12.586	180.7	0.579625578	0.710630396	0.011424419	0.117863623	0.036326713
2019-09-10T13:55:00	0.2351	12.587	180.7	0.585525102	0.719188551	0.011640324	0.120091081	0.037013238
2019-09-10T14:00:00	0.2347	12.587	180.7	0.584383457	0.717530164	0.011598382	0.119658370	0.036879872
2019-09-10T14:05:00	0.2330	12.582	180.7	0.578544565	0.709065355	0.011385081	0.117457781	0.036201629
2019-09-10T14:10:00	0.2345	12.576	193.1	0.583775534	0.716647520	0.011576080	0.119428279	0.036808955
2019-09-10T14:15:00	0.2348	12.571	180.7	0.584644695	0.717909550	0.011607973	0.119757315	0.036910368
2019-09-10T14:20:00	0.2344	12.567	180.7	0.583167506	0.715765030	0.011553795	0.119198375	0.036738097
2019-09-10T14:25:00	0.2330	12.561	193.1	0.578669662	0.709246416	0.011389630	0.117504709	0.036216092
2019-09-10T14:30:00	0.2327	12.559	180.7	0.577525787	0.707591303	0.011348071	0.117075958	0.036083947
2019-09-10T14:35:00	0.2324	12.557	180.7	0.576717445	0.706422340	0.011318750	0.116773455	0.035990713
2019-09-10T14:40:00	0.2313	12.555	180.1	0.572883900	0.700885928	0.011180221	0.115344280	0.035550227
2019-09-10T14:45:00	0.2314	12.555	180.1	0.573083348	0.701173672	0.011187407	0.115418415	0.035573076
2019-09-10T14:50:00	0.2312	12.554	180.1	0.572610282	0.700491234	0.011170367	0.115242617	0.035518894
2019-09-10T14:55:00	0.2285	12.552	180.1	0.563381624	0.687215137	0.010840596	0.111840426	0.034470306
2019-09-10T15:00:00	0.2321	12.551	180.1	0.575698136	0.704949064	0.011281831	0.116392572	0.035873321
2019-09-10T15:05:00	0.2313	12.551	180.1	0.572872398	0.700869335	0.011179807	0.115340006	0.035548910
2019-09-10T15:10:00	0.2325	12.550	180.1	0.576768538	0.706496210	0.011320602	0.116792563	0.035996602
2019-09-10T15:15:00	0.2310	12.547	180.1	0.571926143	0.699504635	0.011145748	0.114988623	0.035440610
2019-09-10T15:20:00	0.2313	12.543	180.1	0.572798244	0.700762363	0.011177136	0.115312450	0.035540417
2019-09-10T15:25:00	0.2323	12.539	180.1	0.576358557	0.705903517	0.011305744	0.116639278	0.035949358
2019-09-10T15:30:00	0.2298	12.534	180.0	0.567813353	0.693581720	0.010998328	0.113467726	0.034971855
2019-09-10T15:35:00	0.2297	12.528	180.0	0.567676348	0.693384657	0.010993435	0.113417240	0.034956295
2019-09-10T15:40:00	0.2302	12.522	180.0	0.569222793	0.695609910	0.011048736	0.113987771	0.035132138
2019-09-10T15:45:00	0.2303	12.515	180.0	0.569422451	0.695897350	0.011055886	0.114061537	0.035154873
2019-09-10T15:50:00	0.2310	12.508	192.3	0.571977306	0.699578403	0.011147588	0.115007608	0.035446462
2019-09-10T15:55:00	0.2307	12.501	179.9	0.570831244	0.697926481	0.011106404	0.114582725	0.035315509
2019-09-10T16:00:00	0.2309	12.493	179.9	0.571703617	0.699183812	0.011137746	0.114906070	0.035415167
2019-09-10T16:05:00	0.2311	12.485	179.9	0.572144236	0.699819106	0.011153593	0.115069562	0.035465556
2019-09-10T16:10:00	0.2320	12.477	192.2	0.575274063	0.704336376	0.011266490	0.116234297	0.035824539
2019-09-10T16:15:00	0.2330	12.469	179.8	0.578736810	0.709343608	0.011392072	0.117529902	0.036223857
2019-09-10T16:20:00	0.2318	12.462	179.8	0.574474224	0.703181199	0.011237583	0.115936075	0.035732624
2019-09-10T16:25:00	0.2322	12.452	179.8	0.575922539	0.705273336	0.011289954	0.116476370	0.035899148
2019-09-10T16:30:00	0.2317	12.443	179.7	0.574346502	0.702996784	0.011232971	0.115888490	0.035717958
2019-09-10T16:35:00	0.2305	12.435	179.7	0.570078568	0.696842174	0.011079399	0.114304119	0.035229640
2019-09-10T16:40:00	0.2305	12.427	191.9	0.570182891	0.696992433	0.011083140	0.114342714	0.035241535
2019-09-10T16:45:00	0.2310	12.418	179.6	0.571969344	0.699566923	0.011147301	0.115004654	0.035445551
2019-09-10T16:50:00	0.2302	12.406	179.6	0.569045276	0.695354372	0.011042381	0.113922205	0.035111930
2019-09-10T16:55:00	0.2311	12.396	179.5	0.572177873	0.699867611	0.011154803	0.115082047	0.035469405
2019-09-10T17:00:00	0.2298	12.382	179.4	0.567907292	0.693716848	0.011001684	0.113502349	0.034982526
2019-09-10T17:05:00	0.2294	12.368	179.4	0.566664513	0.691929750	0.010957328	0.113044732	0.034841484
2019-09-10T17:10:00	0.2306	12.353	179.3	0.570472286	0.697409307	0.011093521	0.114449812	0.035274544
2019-09-10T17:15:00	0.2294	12.336	179.3	0.566536506	0.691745750	0.010952764	0.112997650	0.034826973
2019-09-10T17:20:00	0.2308	12.321	179.2	0.571353779	0.698679524	0.011125172	0.114776347	0.035375185
2019-09-10T17:25:00	0.2309	12.304	179.1	0.571458064	0.698829839	0.011128919	0.114815009	0.035387101
2019-09-10T17:30:00	0.2309	12.287	179.1	0.571562345	0.698980158	0.011132667	0.114853676	0.035399018
2019-09-10T17:35:00	0.2319	12.270	191.3	0.575028759	0.703982038	0.011257620	0.116142793	0.035796337
2019-09-10T17:40:00	0.2313	12.252	191.2	0.572779848	0.700735826	0.011176473	0.115305614	0.035538310
2019-09-10T17:45:00	0.2307	12.233	191.1	0.570865960	0.697976505	0.011107651	0.114595584	0.035319472
2019-09-10T17:50:00	0.2316	12.215	178.7	0.573996928	0.702492111	0.011220352	0.115758301	0.035677832
2019-09-10T17:55:00	0.2314	12.195	190.9	0.573092565	0.701186969	0.011187739	0.115421841	0.035574132
2019-09-10T18:00:00	0.2317	12.176	190.8	0.574205336	0.702792974	0.011227874	0.115835908	0.035701752
2019-09-10T18:05:00	0.2326	12.156	190.7	0.577333323	0.707312928	0.011341086	0.117003896	0.036061737
2019-09-10T18:10:00	0.2298	12.134	190.6	0.567685044	0.693397165	0.010993745	0.113420444	0.034957282
2019-09-10T18:15:00	0.2322	12.113	190.5	0.575862073	0.705185956	0.011287765	0.116453787	0.035892188
2019-09-10T18:20:00	0.2324	12.091	190.4	0.576638084	0.706307604	0.011315873	0.116743777	0.035981566
2019-09-10T18:25:00	0.2336	12.070	190.3	0.580770556	0.712289099	0.011466160	0.118294259	0.036459440
2019-09-10T18:30:00	0.2320	12.051	190.3	0.575166542	0.704181058	0.011262602	0.116194185	0.035812176
2019-09-10T18:35:00	0.2343	12.028	190.1	0.582990883	0.715508739	0.011547326	0.119131634	0.036717526
2019-09-10T18:40:00	0.2344	12.007	190.0	0.583430087	0.716146103	0.011563416	0.119297633	0.036768689
2019-09-10T18:45:00	0.2352	11.986	177.7	0.585879904	0.719704168	0.011653375	0.120225723	0.037054735
2019-09-10T18:50:00	0.2327	11.964	177.6	0.577598623	0.707696661	0.011350715	0.117103235	0.036092354
2019-09-10T18:55:00	0.2349	11.943	177.5	0.585082478	0.718545454	0.011624054	0.119923221	0.036961502
2019-09-10T19:00:00	0.2334	11.921	177.3	0.579820957	0.710913360	0.011431536	0.117937050	0.036349344
2019-09-10T19:05:00	0.2347	11.902	177.2	0.584284870	0.717387006	0.011594764	0.119621041	0.036868367
2019-09-10T19:10:00	0.2354	11.880	177.1	0.586734092	0.720945948	0.011684825	0.120550190	0.037154739
2019-09-10T19:15:00	0.2360	11.860	188.9	0.588512145	0.723532746	0.011750431	0.121227028	0.037363347
2019-09-10T19:20:00	0.2349	11.839	176.6	0.584931685	0.718326402	0.011618514	0.119866062	0.036943885
2019-09-10T19:25:00	0.2346	11.818	188.6	0.584030135	0.717017139	0.011585417	0.119524615	0.036838647
2019-09-10T19:30:00	0.2355	11.797	176.4	0.587149388	0.721549905	0.011700132	0.120708104	0.037203410
2019-09-10T19:35:00	0.2373	11.775	176.4	0.592941652	0.729988468	0.011914686	0.122921622	0.037885638
2019-09-10T19:40:00	0.2373	11.753	176.2	0.593045298	0.730139721	0.011918544	0.122961419	0.037897903
2019-09-10T19:45:00	0.2357	11.731	176.1	0.587795676	0.722490076	0.011723972	0.120954062	0.037279216
2019-09-10T19:50:00	0.2368	11.712	176.1	0.591246118	0.727515404	0.011851674	0.122271537	0.037685275
2019-09-10T19:55:00	0.2349	11.693	176.0	0.584988655	0.718409158	0.011620607	0.119887656	0.036950540
2019-09-10T20:00:00	0.2344	11.672	175.8	0.583416683	0.716126649	0.011562925	0.119292565	0.036767127
2019-09-10T20:05:00	0.2346	11.652	175.8	0.583855834	0.716764091	0.011579024	0.119458659	0.036818319
2019-09-10T20:10:00	0.2347	11.632	175.7	0.584294930	0.717401613	0.011595133	0.119624850	0.036869541
2019-09-10T20:15:00	0.2343	11.611	175.6	0.583057949	0.715606052	0.011549782	0.119156973	0.036725336
2019-09-10T20:20:00	0.2355	11.591	175.5	0.586847973	0.721111549	0.011689022	0.120593482	0.037168082
2019-09-10T20:25:00	0.2366	11.572	175.4	0.590633922	0.726623059	0.011828965	0.122037250	0.037613066
2019-09-10T20:30:00	0.2345	11.551	187.3	0.583704989	0.716545116	0.011573493	0.119401593	0.036800731
2019-09-10T20:35:00	0.2345	11.532	175.2	0.583473678	0.716209369	0.011565014	0.119314115	0.036773769
2019-09-10T20:40:00	0.2331	11.512	175.2	0.578881177	0.709552582	0.011397323	0.117584077	0.036240555
2019-09-10T20:45:00	0.2350	11.491	175.0	0.585357250	0.718944657	0.011634153	0.120027412	0.036993614
2019-09-10T20:50:00	0.2344	11.473	174.9	0.583450212	0.716175311	0.011564154	0.119305242	0.036771034
2019-09-10T20:55:00	0.2352	11.453	186.9	0.585900015	0.719733397	0.011654115	0.120233357	0.037057088
2019-09-10T21:00:00	0.2351	11.434	174.8	0.585668848	0.719397438	0.011645611	0.120145622	0.037030047
2019-09-10T21:05:00	0.2353	11.415	186.7	0.586442696	0.720522261	0.011674092	0.120439452	0.037120609
2019-09-10T21:10:00	0.2356	11.398	186.6	0.587216374	0.721647334	0.011702602	0.120733585	0.037211263
2019-09-10T21:15:00	0.2324	11.379	174.5	0.576587712	0.706234781	0.011314048	0.116724943	0.035975761
2019-09-10T21:20:00	0.2338	11.361	186.4	0.581391194	0.713188658	0.011488819	0.118528023	0.036531488
2019-09-10T21:25:00	0.2332	11.343	186.3	0.579146360	0.709936487	0.011406972	0.117683623	0.036271236
2019-09-10T21:30:00	0.2315	11.326	186.3	0.573539749	0.701832244	0.011203859	0.115588149	0.035625390
2019-09-10T21:35:00	0.2312	11.307	174.2	0.572635268	0.700527274	0.011171267	0.115251899	0.035521754
2019-09-10T21:40:00	0.2324	11.291	174.1	0.576436555	0.706016264	0.011308570	0.116668432	0.035958344
2019-09-10T21:45:00	0.2327	11.273	174.0	0.577548266	0.707623818	0.011348887	0.117084375	0.036086542
2019-09-10T21:50:00	0.2304	11.257	174.0	0.569920421	0.696614405	0.011073729	0.114245624	0.035211611
2019-09-10T21:55:00	0.2306	11.240	173.9	0.570697749	0.697734134	0.011101612	0.114533286	0.035300271
2019-09-10T22:00:00	0.2303	11.223	173.8	0.569455961	0.695945597	0.011057086	0.114073920	0.035158690
2019-09-10T22:05:00	0.2298	11.206	173.7	0.567972358	0.693810447	0.011004009	0.113526334	0.034989919
2019-09-10T22:10:00	0.2293	11.188	173.7	0.566151236	0.691192037	0.010939035	0.112856006	0.034783317
2019-09-10T22:15:00	0.2311	11.172	173.6	0.572073458	0.699717045	0.011151047	0.115043291	0.035457460
2019-09-10T22:20:00	0.2300	11.156	173.5	0.568571511	0.694672508	0.011025429	0.113747315	0.035058027
2019-09-10T22:25:00	0.2309	11.139	173.4	0.571463398	0.698837527	0.011129111	0.114816986	0.035387710
2019-09-10T22:30:00	0.2303	11.121	173.3	0.569644093	0.696216480	0.011063826	0.114143454	0.035180121
2019-09-10T22:35:00	0.2316	11.104	173.3	0.573880002	0.702323330	0.011216133	0.115714771	0.035664416
2019-09-10T22:40:00	0.2310	11.089	173.2	0.571725600	0.699215504	0.011138536	0.114914224	0.035417680
2019-09-10T22:45:00	0.2293	11.074	173.1	0.566202483	0.691265683	0.010940861	0.112874842	0.034789123
2019-09-10T22:50:00	0.2293	11.058	173.0	0.566065415	0.691068711	0.010935978	0.112824467	0.034773596
2019-09-10T22:55:00	0.2297	11.041	173.0	0.567612573	0.693292931	0.010991157	0.113393742	0.034949053
2019-09-10T23:00:00	0.2289	11.025	172.9	0.564780294	0.689222704	0.010890251	0.112352717	0.034628198
2019-09-10T23:05:00	0.2305	11.010	172.8	0.570368353	0.697259584	0.011089792	0.114411343	0.035262687
2019-09-10T23:10:00	0.2289	10.994	172.7	0.564843090	0.689312875	0.010892484	0.112375745	0.034635296
2019-09-10T23:15:00	0.2291	10.977	172.7	0.565379995	0.690083972	0.010911577	0.112572733	0.034696010
2019-09-10T23:20:00	0.2293	10.959	172.6	0.566253729	0.691339329	0.010942686	0.112893679	0.034794928
2019-09-10T23:25:00	0.2283	10.944	172.5	0.562745943	0.686303252	0.010818066	0.111607989	0.034398666
2019-09-10T23:30:00	0.2266	10.927	172.4	0.557208591	0.678373998	0.010622817	0.109593646	0.033777826
2019-09-10T23:35:00	0.2295	10.912	172.4	0.566853177	0.692200963	0.010964056	0.113114141	0.034862877
2019-09-10T23:40:00	0.2289	10.895	172.3	0.564694440	0.689099427	0.010887200	0.112321236	0.034618496
2019-09-10T23:45:00	0.2283	10.880	172.5	0.562871607	0.686483490	0.010822518	0.111653919	0.034412822
2019-09-10T23:50:00	0.2294	10.865	172.4	0.566442033	0.691609962	0.010949397	0.112962909	0.034816266
2019-09-10T23:55:00	0.2300	10.850	172.4	0.568662418	0.694803331	0.011028680	0.113780863	0.035068367
2019-09-11T00:00:00	0.2291	10.835	172.3	0.565494037	0.690247789	0.010915635	0.112614598	0.034708913
2019-09-11T00:05:00	0.2286	10.819	172.2	0.563671622	0.687631249	0.010850882	0.111946546	0.034503013
2019-09-11T00:10:00	0.2302	10.804	172.2	0.569261452	0.695665563	0.011050120	0.114002052	0.035136540
2019-09-11T00:15:00	0.2294	10.788	172.1	0.566430510	0.691593400	0.010948986	0.112958672	0.034814960
2019-09-11T00:20:00	0.2283	10.772	172.0	0.562922902	0.686557066	0.010824335	0.111672670	0.034418601
2019-09-11T00:25:00	0.2285	10.759	171.9	0.563460102	0.687327737	0.010843379	0.111869139	0.034479155
2019-09-11T00:30:00	0.2279	10.741	171.9	0.561299266	0.684229233	0.010766881	0.111079927	0.034235912
2019-09-11T00:35:00	0.2300	10.726	171.8	0.568576659	0.694679916	0.011025613	0.113749215	0.035058613
2019-09-11T00:40:00	0.2300	10.713	171.7	0.568439684	0.694482810	0.011020714	0.113698676	0.035043036
2019-09-11T00:45:00	0.2300	10.699	171.7	0.568639386	0.694770186	0.011027857	0.113772363	0.035065747
2019-09-11T00:50:00	0.2300	10.686	171.6	0.568502414	0.694573076	0.011022957	0.113721819	0.035050169
2019-09-11T00:55:00	0.2287	10.671	171.5	0.563985688	0.688081976	0.010862027	0.112061531	0.034538452
2019-09-11T01:00:00	0.2302	10.656	171.5	0.569238425	0.695632413	0.011049296	0.113993545	0.035133918
2019-09-11T01:05:00	0.2300	10.640	171.4	0.568428168	0.694466239	0.011020302	0.113694427	0.035041727
2019-09-11T01:10:00	0.2295	10.625	171.3	0.566944128	0.692331721	0.010967300	0.113147610	0.034873192
2019-09-11T01:15:00	0.2309	10.610	171.3	0.571519711	0.698918700	0.011131135	0.114837866	0.035394146
2019-09-11T01:20:00	0.2303	10.597	171.2	0.569363855	0.695812988	0.011053787	0.114039885	0.035148200
2019-09-11T01:25:00	0.2281	10.582	171.1	0.562150948	0.685450032	0.010796999	0.111390652	0.034331681
2019-09-11T01:30:00	0.2287	10.568	171.1	0.564036967	0.688155576	0.010863847	0.112080310	0.034544240
2019-09-11T01:35:00	0.2266	10.556	171.0	0.557150822	0.678291409	0.010620790	0.109572729	0.033771379
2019-09-11T01:40:00	0.2279	10.544	171.0	0.561401902	0.684376320	0.010770508	0.111117349	0.034247446
2019-09-11T01:45:00	0.2299	10.532	170.9	0.568342403	0.694342832	0.011017236	0.113662789	0.035031975
2019-09-11T01:50:00	0.2270	10.521	170.9	0.558427207	0.680116838	0.010665631	0.110035347	0.033913963
2019-09-11T01:55:00	0.2271	10.509	170.8	0.558627483	0.680403386	0.010672676	0.110108026	0.033936363
2019-09-11T02:00:00	0.2271	10.497	170.7	0.558827748	0.680689950	0.010679722	0.110180725	0.033958769
2019-09-11T02:05:00	0.2281	10.485	170.7	0.562065029	0.685326849	0.010793959	0.111359285	0.034322013
2019-09-11T02:10:00	0.2262	10.472	170.6	0.555850853	0.676433628	0.010575219	0.109102580	0.033626475
2019-09-11T02:15:00	0.2262	10.460	170.6	0.555713378	0.676237244	0.010570405	0.109052920	0.033611169
2019-09-11T02:20:00	0.2233	10.447	170.5	0.545762102	0.662063017	0.010224927	0.105488688	0.032512638
2019-09-11T02:25:00	0.2256	10.433	170.4	0.553748286	0.673431799	0.010501722	0.108344332	0.033392775
2019-09-11T02:30:00	0.2253	10.419	170.4	0.552596219	0.671788535	0.010461561	0.107929999	0.033265074
2019-09-11T02:35:00	0.2262	10.406	170.3	0.555839295	0.676417117	0.010574814	0.109098404	0.033625188
2019-09-11T02:40:00	0.2236	10.392	170.2	0.546904851	0.663686578	0.010264304	0.105894937	0.032637848
2019-09-11T02:45:00	0.2250	10.381	170.2	0.551506805	0.670235643	0.010423656	0.107538939	0.033144546
2019-09-11T02:50:00	0.2254	10.368	170.1	0.553060439	0.672450550	0.010477735	0.108096856	0.033316501
2019-09-11T02:55:00	0.2234	10.358	170.1	0.546152514	0.662617575	0.010238371	0.105627391	0.032555388
2019-09-11T03:00:00	0.2247	10.347	170.0	0.550755465	0.669165220	0.010397555	0.107269655	0.033061549
2019-09-11T03:05:00	0.2224	10.332	170.0	0.542825578	0.657895854	0.010124090	0.104448369	0.032192002
2019-09-11T03:10:00	0.2207	10.318	169.9	0.536916611	0.649531925	0.009922712	0.102370787	0.031551671
2019-09-11T03:15:00	0.2219	10.308	169.8	0.541192523	0.655581470	0.010068231	0.103872083	0.032014385
2019-09-11T03:20:00	0.2214	10.294	169.8	0.539357318	0.652983200	0.010005644	0.103226382	0.031815373
2019-09-11T03:25:00	0.2215	10.283	169.7	0.539898174	0.653748653	0.010024068	0.103416466	0.031873959
2019-09-11T03:30:00	0.2206	10.271	169.7	0.536703456	0.649230745	0.009915485	0.102296235	0.031528693
2019-09-11T03:35:00	0.2204	10.260	169.6	0.535885578	0.648075458	0.009887783	0.102010435	0.031440607
2019-09-11T03:40:00	0.2217	10.248	169.6	0.540502182	0.654603767	0.010044665	0.103628954	0.031939450
2019-09-11T03:45:00	0.2230	10.237	169.5	0.544773670	0.660659564	0.010190929	0.105137935	0.032404533
2019-09-11T03:50:00	0.2231	10.226	169.4	0.545313680	0.661426214	0.010209496	0.105329489	0.032463571
2019-09-11T03:55:00	0.2215	10.214	169.4	0.539748453	0.653536735	0.010018966	0.103363829	0.031857736
2019-09-11T04:00:00	0.2224	10.202	169.4	0.543003554	0.658148214	0.010130187	0.104511272	0.032211389
2019-09-11T04:05:00	0.2239	10.189	169.3	0.548087154	0.665367462	0.010305125	0.106316079	0.032767648
2019-09-11T04:10:00	0.2253	10.179	169.3	0.552825138	0.672114970	0.010469535	0.108012264	0.033290429
2019-09-11T04:15:00	0.2235	10.170	169.2	0.546732256	0.663441295	0.010258352	0.105833529	0.032618921
2019-09-11T04:20:00	0.2247	10.157	169.2	0.550795365	0.669222053	0.010398940	0.107283946	0.033065954
2019-09-11T04:25:00	0.2246	10.147	169.1	0.550456954	0.668740064	0.010387194	0.107162761	0.033028604
2019-09-11T04:30:00	0.2250	10.137	169.0	0.551810400	0.670668300	0.010434212	0.107647846	0.033178112
2019-09-11T04:35:00	0.2259	10.127	169.0	0.554853727	0.675009581	0.010540331	0.108742652	0.033515541
2019-09-11T04:40:00	0.2270	10.118	168.5	0.558569738	0.680320763	0.010670644	0.110087068	0.033929904
2019-09-11T04:45:00	0.2262	10.110	168.6	0.555867578	0.676457521	0.010575804	0.109108622	0.033628337
2019-09-11T04:50:00	0.2284	10.100	168.5	0.563293482	0.687088677	0.010837470	0.111808182	0.034460368
2019-09-11T04:55:00	0.2285	10.093	168.4	0.563630648	0.687572452	0.010849428	0.111931549	0.034498390
2019-09-11T05:00:00	0.2286	10.083	168.4	0.563967781	0.688056274	0.010861391	0.112054973	0.034536431
2019-09-11T05:05:00	0.2297	10.075	168.3	0.567674097	0.693381420	0.010993354	0.113416410	0.034956039
2019-09-11T05:10:00	0.2292	10.065	168.3	0.565989895	0.690960194	0.010933288	0.112796717	0.034765044
2019-09-11T05:15:00	0.2284	10.057	168.3	0.563293482	0.687088677	0.010837470	0.111808182	0.034460368
2019-09-11T05:20:00	0.2288	10.049	168.2	0.564641949	0.689024059	0.010885335	0.112301992	0.034612565
2019-09-11T05:25:00	0.2295	10.040	168.2	0.567000514	0.692412789	0.010969311	0.113168361	0.034879588
2019-09-11T05:30:00	0.2278	10.033	168.2	0.561269804	0.684187014	0.010765840	0.111069186	0.034232602
2019-09-11T05:35:00	0.2274	10.027	168.1	0.559920032	0.682253512	0.010718198	0.110577669	0.034081111
2019-09-11T05:40:00	0.2292	10.024	168.1	0.565989895	0.690960194	0.010933288	0.112796717	0.034765044
2019-09-11T05:45:00	0.2296	10.022	167.9	0.567337322	0.692897081	0.010981330	0.113292357	0.034917805
2019-09-11T05:50:00	0.2307	10.019	168.1	0.571040069	0.698227399	0.011113903	0.114660084	0.035339351
2019-09-11T05:55:00	0.2302	10.017	168.1	0.569357488	0.695803822	0.011053559	0.114037533	0.035147475
2019-09-11T06:00:00	0.2298	10.017	168.1	0.568010840	0.693865807	0.011005384	0.113540521	0.034994291
2019-09-11T06:05:00	0.2321	10.018	168.1	0.575746998	0.705019668	0.011283599	0.116410816	0.035878944
2019-09-11T06:10:00	0.2308	10.018	168.1	0.571376488	0.698712256	0.011125988	0.114784765	0.035377779
2019-09-11T06:15:00	0.2310	10.018	168.1	0.572049230	0.699682110	0.011150175	0.115034299	0.035454688
2019-09-11T06:20:00	0.2293	10.020	168.1	0.566326801	0.691444345	0.010945290	0.112920541	0.034803207
2019-09-11T06:25:00	0.2299	10.024	168.1	0.568347551	0.694350240	0.011017420	0.113664688	0.035032561
2019-09-11T06:30:00	0.2283	10.027	168.1	0.562956284	0.686604949	0.010825518	0.111684873	0.034422363
2019-09-11T06:35:00	0.2297	10.031	168.1	0.567674097	0.693381420	0.010993354	0.113416410	0.034956039
2019-09-11T06:40:00	0.2297	10.037	168.1	0.567674097	0.693381420	0.010993354	0.113416410	0.034956039
2019-09-11T06:45:00	0.2299	10.043	168.1	0.568347551	0.694350240	0.011017420	0.113664688	0.035032561
2019-09-11T06:50:00	0.2287	10.051	168.2	0.564304881	0.688540143	0.010873360	0.112178454	0.034574489
2019-09-11T06:55:00	0.2281	10.061	168.2	0.562281790	0.685637634	0.010801630	0.111438427	0.034346405
2019-09-11T07:00:00	0.2302	10.070	168.3	0.569357488	0.695803822	0.011053559	0.114037533	0.035147475
2019-09-11T07:05:00	0.2288	10.083	168.3	0.564641949	0.689024059	0.010885335	0.112301992	0.034612565
2019-09-11T07:10:00	0.2303	10.096	168.4	0.569694069	0.696288443	0.011065617	0.114161929	0.035185815
2019-09-11T07:15:00	0.2296	10.113	168.5	0.567337322	0.692897081	0.010981330	0.113292357	0.034917805
2019-09-11T07:20:00	0.2307	10.128	168.6	0.571040069	0.698227399	0.011113903	0.114660084	0.035339351
2019-09-11T07:25:00	0.2308	10.146	168.6	0.571376488	0.698712256	0.011125988	0.114784765	0.035377779
2019-09-11T07:30:00	0.2299	10.165	168.7	0.568347551	0.694350240	0.011017420	0.113664688	0.035032561
2019-09-11T07:35:00	0.2297	10.185	168.8	0.567674097	0.693381420	0.010993354	0.113416410	0.034956039
2019-09-11T07:40:00	0.2319	10.209	168.9	0.575074967	0.704048780	0.011259291	0.116160027	0.035801648
2019-09-11T07:45:00	0.2295	10.236	169.0	0.567000514	0.692412789	0.010969311	0.113168361	0.034879588
2019-09-11T07:50:00	0.2310	10.262	169.1	0.572049230	0.699682110	0.011150175	0.115034299	0.035454688
2019-09-11T07:55:00	0.2303	10.291	169.2	0.569694069	0.696288443	0.011065617	0.114161929	0.035185815
2019-09-11T08:00:00	0.2313	10.316	169.3	0.573058099	0.701137243	0.011186497	0.115409029	0.035570183
2019-09-11T08:05:00	0.2299	10.344	169.5	0.568347551	0.694350240	0.011017420	0.113664688	0.035032561
2019-09-11T08:10:00	0.2303	10.375	169.6	0.569694069	0.696288443	0.011065617	0.114161929	0.035185815
2019-09-11T08:15:00	0.2318	10.407	169.8	0.574738903	0.703563406	0.011247145	0.116034718	0.035763027
2019-09-11T08:20:00	0.2302	10.441	169.9	0.569357488	0.695803822	0.011053559	0.114037533	0.035147475
2019-09-11T08:25:00	0.2295	10.474	170.0	0.567000514	0.692412789	0.010969311	0.113168361	0.034879588
2019-09-11T08:30:00	0.2314	10.504	170.2	0.573394324	0.701622382	0.011198616	0.115534052	0.035608717
2019-09-11T08:35:00	0.2325	10.531	170.3	0.577090675	0.706962009	0.011332283	0.116913078	0.036033746
2019-09-11T08:40:00	0.2316	10.560	182.1	0.574066678	0.702592800	0.011222869	0.115784271	0.035685837
2019-09-11T08:45:00	0.2299	10.599	182.3	0.568347551	0.694350240	0.011017420	0.113664688	0.035032561
2019-09-11T08:50:00	0.2292	10.641	170.8	0.565989895	0.690960194	0.010933288	0.112796717	0.034765044
2019-09-11T08:55:00	0.2291	10.678	171.0	0.565652958	0.690476090	0.010921291	0.112672950	0.034726897
2019-09-11T09:00:00	0.2283	10.704	171.1	0.562956284	0.686604949	0.010825518	0.111684873	0.034422363
2019-09-11T09:05:00	0.2293	10.737	171.2	0.566326801	0.691444345	0.010945290	0.112920541	0.034803207
2019-09-11T09:10:00	0.2291	10.779	171.4	0.565652958	0.690476090	0.010921291	0.112672950	0.034726897
2019-09-11T09:15:00	0.2288	10.823	171.6	0.564641949	0.689024059	0.010885335	0.112301992	0.034612565
2019-09-11T09:20:00	0.2278	10.870	171.9	0.561269804	0.684187014	0.010765840	0.111069186	0.034232602
2019-09-11T09:25:00	0.2270	10.914	172.1	0.558569738	0.680320763	0.010670644	0.110087068	0.033929904
2019-09-11T09:30:00	0.2288	10.954	172.2	0.564641949	0.689024059	0.010885335	0.112301992	0.034612565
2019-09-11T09:35:00	0.2276	10.999	172.4	0.560594984	0.683220169	0.010742008	0.110823313	0.034156821
2019-09-11T09:40:00	0.2258	11.038	172.6	0.554515711	0.674527028	0.010528518	0.108620777	0.033477978
2019-09-11T09:45:00	0.2285	11.078	172.8	0.563630648	0.687572452	0.010849428	0.111931549	0.034498390
2019-09-11T09:50:00	0.2245	11.116	173.0	0.550118510	0.668258123	0.010375453	0.107041634	0.032991271
2019-09-11T09:55:00	0.2264	11.145	173.1	0.556543315	0.677423049	0.010599481	0.109352889	0.033703622
2019-09-11T10:00:00	0.2259	11.175	173.2	0.554853727	0.675009581	0.010540331	0.108742652	0.033515541
2019-09-11T10:05:00	0.2250	11.198	173.3	0.551810400	0.670668300	0.010434212	0.107647846	0.033178112
2019-09-11T10:10:00	0.2240	11.225	173.5	0.548425796	0.665849121	0.010316833	0.106436861	0.032804874
2019-09-11T10:15:00	0.2239	11.257	173.7	0.548087154	0.665367462	0.010305125	0.106316079	0.032767648
2019-09-11T10:20:00	0.2253	11.298	173.8	0.552825138	0.672114970	0.010469535	0.108012264	0.033290429
2019-09-11T10:25:00	0.2249	11.332	173.9	0.551472088	0.670186170	0.010422449	0.107526489	0.033140708
2019-09-11T10:30:00	0.2237	11.357	174.0	0.547409771	0.664404284	0.010281728	0.106074689	0.032693249
2019-09-11T10:35:00	0.2254	11.378	174.1	0.553163318	0.672597288	0.010481321	0.108133852	0.033327903
2019-09-11T10:40:00	0.2253	11.406	174.3	0.552825138	0.672114970	0.010469535	0.108012264	0.033290429
2019-09-11T10:45:00	0.2225	11.438	174.4	0.543342692	0.658629169	0.010141810	0.104631189	0.032248349
2019-09-11T10:50:00	0.2225	11.477	174.6	0.543342692	0.658629169	0.010141810	0.104631189	0.032248349
2019-09-11T10:55:00	0.2193	11.519	174.8	0.532473731	0.643261960	0.009772642	0.100822541	0.031074486
2019-09-11T11:00:00	0.2205	11.556	174.9	0.536553597	0.649019021	0.009910407	0.102243838	0.031512544
2019-09-11T11:05:00	0.2204	11.591	175.1	0.536213792	0.648539008	0.009898895	0.102125078	0.031475941
2019-09-11T11:10:00	0.2209	11.619	175.2	0.537912482	0.650939546	0.009956508	0.102719457	0.031659134
2019-09-11T11:15:00	0.2213	11.659	175.4	0.539270834	0.652860823	0.010002699	0.103196003	0.031806010
2019-09-11T11:20:00	0.2192	11.697	175.6	0.532133524	0.642782511	0.009761198	0.100704477	0.031038098
2019-09-11T11:25:00	0.2191	11.723	187.8	0.531793284	0.642303108	0.009749759	0.100586470	0.031001727
2019-09-11T11:30:00	0.2188	11.751	175.9	0.530772362	0.640865183	0.009715478	0.100232799	0.030892722
2019-09-11T11:35:00	0.2189	11.784	176.0	0.531112703	0.641344445	0.009726900	0.100350631	0.030929039
2019-09-11T11:40:00	0.2178	11.820	188.3	0.527367105	0.636075155	0.009601574	0.099057669	0.030530536
2019-09-11T11:45:00	0.2180	11.857	188.5	0.528048426	0.637032785	0.009624310	0.099292230	0.030602830
2019-09-11T11:50:00	0.2174	11.887	188.6	0.526004059	0.634160460	0.009556170	0.098589244	0.030386162
2019-09-11T11:55:00	0.2170	11.916	188.8	0.524640473	0.632246518	0.009510856	0.098121750	0.030242076
2019-09-11T12:00:00	0.2174	11.948	188.9	0.526004059	0.634160460	0.009556170	0.098589244	0.030386162
2019-09-11T12:05:00	0.2161	11.976	189.0	0.521570428	0.627942898	0.009409230	0.097073295	0.029918932
2019-09-11T12:10:00	0.2173	12.005	189.2	0.525663213	0.633681904	0.009544833	0.098472283	0.030350114
2019-09-11T12:15:00	0.2171	12.032	189.3	0.524981421	0.632724933	0.009522176	0.098238536	0.030278071
2019-09-11T12:20:00	0.2158	12.058	177.3	0.520546471	0.626509204	0.009375457	0.096724859	0.029811541
2019-09-11T12:25:00	0.2150	12.084	189.5	0.517814424	0.622688090	0.009285643	0.095798263	0.029525955
2019-09-11T12:30:00	0.2157	12.108	189.7	0.520205084	0.626031401	0.009364210	0.096608830	0.029775780
2019-09-11T12:35:00	0.2148	12.131	177.6	0.517131072	0.621733282	0.009263246	0.095567197	0.029454738
2019-09-11T12:40:00	0.2138	12.151	177.7	0.513712271	0.616962061	0.009151601	0.094415377	0.029099736
2019-09-11T12:45:00	0.2151	12.169	177.8	0.518156048	0.623165565	0.009296850	0.095913883	0.029561590
2019-09-11T12:50:00	0.2128	12.187	177.9	0.510290057	0.612195541	0.009040523	0.093269406	0.028746537
2019-09-11T12:55:00	0.2134	12.206	178.0	0.512343796	0.615054889	0.009107101	0.093956286	0.028958240
2019-09-11T13:00:00	0.2118	12.227	178.1	0.506864419	0.607433724	0.008930013	0.092129295	0.028395144
2019-09-11T13:05:00	0.2106	12.251	178.2	0.502749118	0.601725749	0.008798152	0.090768910	0.027975860
2019-09-11T13:10:00	0.2128	12.276	178.4	0.510290057	0.612195541	0.009040523	0.093269406	0.028746537
2019-09-11T13:15:00	0.2116	12.304	178.5	0.506178879	0.606481925	0.008907979	0.091901977	0.028325082
2019-09-11T13:20:00	0.2110	12.335	178.7	0.504121436	0.603627655	0.008842014	0.091221432	0.028115331
2019-09-11T13:25:00	0.2116	12.367	178.8	0.506178879	0.606481925	0.008907979	0.091901977	0.028325082
2019-09-11T13:30:00	0.2109	12.401	179.0	0.503778408	0.603152108	0.008831040	0.091108213	0.028080436
2019-09-11T13:35:00	0.2095	12.431	179.1	0.498972396	0.596499387	0.008678000	0.089529329	0.027593809
2019-09-11T13:40:00	0.2097	12.461	179.3	0.499659384	0.597449211	0.008699795	0.089754177	0.027663109
2019-09-11T13:45:00	0.2101	12.495	179.4	0.501032944	0.599349425	0.008743452	0.090204581	0.027801928
2019-09-11T13:50:00	0.2109	12.525	179.6	0.503778408	0.603152108	0.008831040	0.091108213	0.028080436
2019-09-11T13:55:00	0.2098	12.548	179.7	0.500002826	0.597924194	0.008710700	0.089866690	0.027697787
2019-09-11T14:00:00	0.2107	12.568	179.8	0.503092249	0.602201155	0.008809109	0.090881952	0.028010700
2019-09-11T14:05:00	0.2080	12.583	179.9	0.493815571	0.589381697	0.008515271	0.087850481	0.027076371
2019-09-11T14:10:00	0.2082	12.596	180.0	0.494503599	0.590330111	0.008536894	0.088073560	0.027145127
2019-09-11T14:15:00	0.2073	12.606	180.0	0.491406377	0.586063729	0.008439771	0.087071565	0.026836302
2019-09-11T14:20:00	0.2084	12.612	180.1	0.495191488	0.591278713	0.008558540	0.088296876	0.027213955
2019-09-11T14:25:00	0.2090	12.615	180.1	0.497254322	0.594125648	0.008623614	0.088968238	0.027420875
2019-09-11T14:30:00	0.2085	12.614	180.1	0.495535380	0.591753085	0.008569371	0.088408622	0.027248396
2019-09-11T14:35:00	0.2071	12.610	180.1	0.490717722	0.585116162	0.008418252	0.086849549	0.026767874
2019-09-11T14:40:00	0.2065	12.606	180.1	0.488650920	0.582274587	0.008353830	0.086184922	0.026563030
2019-09-11T14:45:00	0.2072	12.602	180.1	0.491062067	0.585589922	0.008429009	0.086960527	0.026802079
2019-09-11T14:50:00	0.2068	12.596	180.1	0.489684478	0.583695163	0.008386015	0.086516969	0.026665370
2019-09-11T14:55:00	0.2071	12.588	180.1	0.490717722	0.585116162	0.008418252	0.086849549	0.026767874
2019-09-11T15:00:00	0.2085	12.580	180.0	0.495535380	0.591753085	0.008569371	0.088408622	0.027248396
2019-09-11T15:05:00	0.2064	12.573	180.0	0.488306331	0.581801156	0.008343113	0.086074359	0.026528953
2019-09-11T15:10:00	0.2079	12.565	180.0	0.493471504	0.588907561	0.008504468	0.087739030	0.027042021
2019-09-11T15:15:00	0.2069	12.558	180.0	0.490028928	0.584168782	0.008396755	0.086627770	0.026699520
2019-09-11T15:20:00	0.2089	12.553	179.9	0.496910603	0.593651041	0.008612754	0.088856197	0.027386343
2019-09-11T15:25:00	0.2070	12.547	179.9	0.490373342	0.584642448	0.008407500	0.086738630	0.026733688
2019-09-11T15:30:00	0.2092	12.541	179.9	0.497941655	0.595075003	0.008645351	0.089192498	0.027489994
2019-09-11T15:35:00	0.2079	12.536	179.8	0.493471504	0.588907561	0.008504468	0.087739030	0.027042021
2019-09-11T15:40:00	0.2072	12.530	179.9	0.491062067	0.585589922	0.008429009	0.086960527	0.026802079
2019-09-11T15:45:00	0.2075	12.525	179.9	0.492094892	0.587011485	0.008461314	0.087293817	0.026904802
2019-09-11T15:50:00	0.2085	12.519	179.8	0.495535380	0.591753085	0.008569371	0.088408622	0.027248396
2019-09-11T15:55:00	0.2080	12.511	179.8	0.493815571	0.589381697	0.008515271	0.087850481	0.027076371
2019-09-11T16:00:00	0.2081	12.503	179.8	0.494159602	0.589855881	0.008526080	0.087961991	0.027110740
2019-09-11T16:05:00	0.2090	12.495	179.8	0.497163149	0.593999748	0.008620733	0.088938512	0.027411713
2019-09-11T16:10:00	0.2088	12.487	179.8	0.496384465	0.592924735	0.008596144	0.088684829	0.027333526
2019-09-11T16:15:00	0.2091	12.479	179.7	0.497324509	0.594222575	0.008625833	0.088991126	0.027427929
2019-09-11T16:20:00	0.2085	12.470	179.7	0.495514387	0.591724124	0.008568710	0.088401798	0.027246293
2019-09-11T16:25:00	0.2096	12.461	179.6	0.499203820	0.596819309	0.008685339	0.089605041	0.027617144
2019-09-11T16:30:00	0.2107	12.451	179.6	0.502889266	0.601919912	0.008802626	0.090815072	0.027990087
2019-09-11T16:35:00	0.2091	12.442	179.5	0.497303527	0.594193599	0.008625169	0.088984283	0.027425820
2019-09-11T16:40:00	0.2082	12.431	179.5	0.494461599	0.590272206	0.008535573	0.088059935	0.027140927
2019-09-11T16:45:00	0.2086	12.422	179.5	0.495746045	0.592043727	0.008576010	0.088477111	0.027269505
2019-09-11T16:50:00	0.2079	12.411	179.5	0.493246941	0.588598154	0.008497421	0.087666326	0.027019613
2019-09-11T16:55:00	0.2077	12.400	179.4	0.492467360	0.587524354	0.008472979	0.087414166	0.026941895
2019-09-11T17:00:00	0.2084	12.390	179.4	0.495128501	0.591191839	0.008556557	0.088276416	0.027207649
2019-09-11T17:05:00	0.2077	12.379	179.3	0.492628943	0.587746879	0.008478043	0.087466402	0.026957994
2019-09-11T17:10:00	0.2088	12.367	179.3	0.496321501	0.592837831	0.008594157	0.088664332	0.027327208
2019-09-11T17:15:00	0.2099	12.356	179.3	0.500010061	0.597934201	0.008710930	0.089869061	0.027698517
2019-09-11T17:20:00	0.2085	12.344	179.2	0.495451406	0.591637241	0.008566726	0.088381329	0.027239984
2019-09-11T17:25:00	0.2100	12.331	179.2	0.500514677	0.598632263	0.008726966	0.090034504	0.027749509
2019-09-11T17:30:00	0.2107	12.319	179.1	0.502826421	0.601832845	0.008800620	0.090794371	0.027983707
2019-09-11T17:35:00	0.2097	12.306	179.1	0.499645652	0.597430222	0.008699359	0.089749680	0.027661723
2019-09-11T17:40:00	0.2108	12.295	179.0	0.503330621	0.602531474	0.008816725	0.090960524	0.028034917
2019-09-11T17:45:00	0.2121	12.281	179.0	0.507696991	0.608590172	0.008956809	0.092405745	0.028480348
2019-09-11T17:50:00	0.2111	12.268	178.9	0.504177768	0.603705759	0.008843817	0.091240031	0.028121064
2019-09-11T17:55:00	0.2135	12.254	178.9	0.512651398	0.615483445	0.009117094	0.094059382	0.028990015
2019-09-11T18:00:00	0.2138	12.241	178.8	0.513586978	0.616787383	0.009147522	0.094373297	0.029086767
2019-09-11T18:05:00	0.2144	12.228	178.8	0.515548059	0.619522880	0.009211466	0.095032999	0.029290093
2019-09-11T18:10:00	0.2149	12.213	178.7	0.517166330	0.621782537	0.009264401	0.095579113	0.029458411
2019-09-11T18:15:00	0.2150	12.197	178.6	0.517759050	0.622610706	0.009283827	0.095779529	0.029520181
2019-09-11T18:20:00	0.2137	12.182	178.6	0.513224013	0.616281428	0.009135711	0.094251449	0.029049212
2019-09-11T18:25:00	0.2155	12.166	178.5	0.519285695	0.624745098	0.009333956	0.096296701	0.029679578
2019-09-11T18:30:00	0.2154	12.152	178.4	0.518853586	0.624140778	0.009319753	0.096150176	0.029634418
2019-09-11T18:35:00	0.2165	12.136	178.4	0.522859114	0.629748459	0.009451822	0.097512707	0.030054363
2019-09-11T18:40:00	0.2189	12.121	178.3	0.530946488	0.641110372	0.009721321	0.100293076	0.030911300
2019-09-11T18:45:00	0.2173	12.105	178.2	0.525406312	0.633321270	0.009536293	0.098384174	0.030322958
2019-09-11T18:50:00	0.2180	12.090	178.2	0.528041983	0.637023727	0.009624095	0.099290010	0.030602145
2019-09-11T18:55:00	0.2171	12.074	178.1	0.524884535	0.632588974	0.009518959	0.098205342	0.030267840
2019-09-11T19:00:00	0.2182	12.059	190.2	0.528542490	0.637727452	0.009640814	0.099462498	0.030655308
2019-09-11T19:05:00	0.2167	12.042	177.9	0.523339552	0.630421939	0.009467726	0.097676780	0.030104932
2019-09-11T19:10:00	0.2175	12.026	177.9	0.526317620	0.634600791	0.009566605	0.098696904	0.030419344
2019-09-11T19:15:00	0.2187	12.009	177.8	0.530314474	0.640220542	0.009700123	0.100074379	0.030843896
2019-09-11T19:20:00	0.2162	11.993	177.7	0.521703354	0.628129076	0.009413619	0.097118574	0.029932888
2019-09-11T19:25:00	0.2156	11.978	177.7	0.519564635	0.625135287	0.009343130	0.096391347	0.029708749
2019-09-11T19:30:00	0.2156	11.963	177.6	0.519815515	0.625486278	0.009351385	0.096476511	0.029734998
2019-09-11T19:35:00	0.2154	11.949	189.8	0.519041971	0.624404222	0.009325944	0.096214042	0.029654102
2019-09-11T19:40:00	0.2175	11.933	177.5	0.526116007	0.634317659	0.009559895	0.098627674	0.030398007
2019-09-11T19:45:00	0.2165	11.920	189.6	0.522615643	0.629407232	0.009443768	0.097429613	0.030028753
2019-09-11T19:50:00	0.2165	11.906	189.5	0.522866301	0.629758532	0.009452060	0.097515161	0.030055120
2019-09-11T19:55:00	0.2161	11.890	189.5	0.521410942	0.627719537	0.009403966	0.097018983	0.029902193
2019-09-11T20:00:00	0.2150	11.874	189.4	0.517564132	0.622338329	0.009277436	0.095713598	0.029499860
2019-09-11T20:05:00	0.2153	11.856	189.3	0.518839931	0.624121683	0.009319305	0.096145548	0.029632992
2019-09-11T20:10:00	0.2162	11.840	189.2	0.521821896	0.628295121	0.009417534	0.097158962	0.029945336
2019-09-11T20:15:00	0.2149	11.824	189.1	0.517292228	0.621958422	0.009268525	0.095621665	0.029471526
2019-09-11T20:20:00	0.2163	11.809	189.0	0.521982098	0.628519537	0.009422826	0.097213557	0.029962162
2019-09-11T20:25:00	0.2157	11.793	189.0	0.520184976	0.626003261	0.009363548	0.096601998	0.029773674
2019-09-11T20:30:00	0.2150	11.775	188.9	0.517703675	0.622533322	0.009282011	0.095760796	0.029514407
2019-09-11T20:35:00	0.2158	11.755	188.8	0.520345254	0.626227571	0.009368827	0.096656462	0.029790460
2019-09-11T20:40:00	0.2144	11.737	188.7	0.515471778	0.619416418	0.009208975	0.095007295	0.029282171
2019-09-11T20:45:00	0.2164	11.719	188.6	0.522553160	0.629319668	0.009441701	0.097408294	0.030022182
2019-09-11T20:50:00	0.2148	11.701	188.5	0.516999440	0.621549403	0.009258934	0.095522720	0.029441030
2019-09-11T20:55:00	0.2153	11.684	188.5	0.518617027	0.623810006	0.009311983	0.096070009	0.029609710
2019-09-11T21:00:00	0.2150	11.665	188.3	0.517501557	0.622250892	0.009275385	0.095692437	0.029493338
2019-09-11T21:05:00	0.2140	11.646	188.2	0.514334407	0.617829599	0.009171867	0.094624459	0.029164177
2019-09-11T21:10:00	0.2154	11.627	188.2	0.519028316	0.624385126	0.009325495	0.096209412	0.029652675
2019-09-11T21:15:00	0.2153	11.609	188.0	0.518596175	0.623780851	0.009311298	0.096062944	0.029607532
2019-09-11T21:20:00	0.2149	11.591	188.0	0.517139006	0.621744365	0.009263506	0.095569879	0.029455565
2019-09-11T21:25:00	0.2144	11.570	187.9	0.515681218	0.619708735	0.009215816	0.095077876	0.029303925
2019-09-11T21:30:00	0.2140	11.551	175.7	0.514222810	0.617673960	0.009168230	0.094586937	0.029152613
2019-09-11T21:35:00	0.2135	11.531	175.6	0.512421619	0.615163307	0.009109629	0.093982364	0.028966277
2019-09-11T21:40:00	0.2149	11.510	175.5	0.517459839	0.622192602	0.009274018	0.095678330	0.029488991
2019-09-11T21:45:00	0.2145	11.490	175.4	0.516002187	0.620156783	0.009226306	0.095186094	0.029337279
2019-09-11T21:50:00	0.2142	11.470	175.3	0.514885867	0.618598845	0.009189849	0.094809982	0.029221357
2019-09-11T21:55:00	0.2117	11.452	175.2	0.506235916	0.606561099	0.008909811	0.091920879	0.028330908
2019-09-11T22:00:00	0.2123	11.435	175.2	0.508543794	0.609766961	0.008984104	0.092687345	0.028567140
2019-09-11T22:05:00	0.2123	11.417	175.0	0.508455988	0.609644911	0.008981272	0.092658125	0.028558134
2019-09-11T22:10:00	0.2129	11.399	175.0	0.510423071	0.612380629	0.009044827	0.093313817	0.028760225
2019-09-11T22:15:00	0.2126	11.379	174.8	0.509307996	0.610829456	0.009008772	0.092941843	0.028645579
2019-09-11T22:20:00	0.2127	11.361	174.8	0.509905140	0.611660014	0.009028072	0.093140950	0.028706945
2019-09-11T22:25:00	0.2106	11.342	174.7	0.502618564	0.601544893	0.008793985	0.090725918	0.027962609
2019-09-11T22:30:00	0.2109	11.325	174.6	0.503559962	0.602849321	0.008824055	0.091036150	0.028058226
2019-09-11T22:35:00	0.2106	11.309	174.5	0.502442645	0.601301214	0.008788371	0.090668004	0.027944759
2019-09-11T22:40:00	0.2106	11.293	174.5	0.502697853	0.601654730	0.008796515	0.090752027	0.027970656
2019-09-11T22:45:00	0.2114	11.276	174.3	0.505354093	0.605337298	0.008881506	0.091628857	0.028240904
2019-09-11T22:50:00	0.2111	11.262	174.3	0.504237363	0.603788390	0.008845725	0.091259710	0.028127129
2019-09-11T22:55:00	0.2115	11.248	174.2	0.505521202	0.605569165	0.008886866	0.091684161	0.028257949
2019-09-11T23:00:00	0.2102	11.235	174.1	0.501316292	0.599741603	0.008752471	0.090297633	0.027830608
2019-09-11T23:05:00	0.2117	11.225	174.1	0.506373941	0.606752708	0.008914246	0.091966629	0.028345008
2019-09-11T23:10:00	0.2109	11.212	174.0	0.503542632	0.602825301	0.008823501	0.091030434	0.028056464
2019-09-11T23:15:00	0.2105	11.199	174.0	0.502082111	0.600801887	0.008776872	0.090549370	0.027908195
2019-09-11T23:20:00	0.2108	11.188	173.9	0.503366760	0.602581557	0.008817880	0.090972439	0.028038589
2019-09-11T23:25:00	0.2100	11.178	173.9	0.500532956	0.598657554	0.008727548	0.090040500	0.027751356
2019-09-11T23:30:00	0.2111	11.168	173.8	0.504220037	0.603764365	0.008845170	0.091253989	0.028125366
2019-09-11T23:35:00	0.2122	11.156	173.8	0.507903143	0.608876604	0.008963450	0.092474260	0.028501465
2019-09-11T23:40:00	0.2099	11.146	173.7	0.500268912	0.598292259	0.008719154	0.089953909	0.027724668
2019-09-11T23:45:00	0.2110	11.137	173.7	0.503956278	0.603398682	0.008836730	0.091166912	0.028098528
2019-09-11T23:50:00	0.2110	11.126	173.6	0.503868354	0.603276794	0.008833917	0.091137894	0.028089584
2019-09-11T23:55:00	0.2140	11.116	173.6	0.514398318	0.617918738	0.009173950	0.094645951	0.029170801
2019-09-12T00:00:00	0.2133	11.107	173.5	0.511915890	0.614458849	0.009093209	0.093812964	0.028914066
2019-09-12T00:05:00	0.2146	11.096	173.5	0.516274388	0.620536819	0.009235206	0.095277917	0.029365579
2019-09-12T00:10:00	0.2133	11.086	173.4	0.511740448	0.614214516	0.009087517	0.093754233	0.028895965
2019-09-12T00:15:00	0.2129	11.075	173.4	0.510625802	0.612662754	0.009051390	0.093381525	0.028781093
2019-09-12T00:20:00	0.2114	11.064	173.3	0.505398677	0.605399157	0.008882936	0.091643611	0.028245451
2019-09-12T00:25:00	0.2111	11.053	173.3	0.504281962	0.603850229	0.008847152	0.091274438	0.028131668
2019-09-12T00:30:00	0.2114	11.043	173.2	0.505222901	0.605155282	0.008877298	0.091585452	0.028227526
2019-09-12T00:35:00	0.2109	11.031	173.2	0.503763099	0.603130888	0.008830551	0.091103162	0.028078879
2019-09-12T00:40:00	0.2094	11.023	173.1	0.498525457	0.595881655	0.008663836	0.089383198	0.027548770
2019-09-12T00:45:00	0.2099	11.015	173.1	0.500154872	0.598134506	0.008715531	0.089916523	0.027713146
2019-09-12T00:50:00	0.2081	11.004	173.0	0.493879711	0.589470096	0.008517286	0.087871265	0.027082777
2019-09-12T00:55:00	0.2082	10.993	173.0	0.494479560	0.590296969	0.008536138	0.088065762	0.027142723
2019-09-12T01:00:00	0.2100	10.984	172.9	0.500577603	0.598719327	0.008728967	0.090055145	0.027755870
2019-09-12T01:05:00	0.2096	10.973	172.9	0.499115812	0.596697641	0.008682548	0.089576245	0.027608269
2019-09-12T01:10:00	0.2094	10.963	172.8	0.498340649	0.595626271	0.008657982	0.089322808	0.027530157
2019-09-12T01:15:00	0.2086	10.954	172.8	0.495846524	0.592182365	0.008579177	0.088509787	0.027279576
2019-09-12T01:20:00	0.2102	10.945	172.7	0.501255596	0.599657589	0.008750539	0.090277696	0.027824463
2019-09-12T01:25:00	0.2093	10.936	172.7	0.498076436	0.595261207	0.008649617	0.089236506	0.027503558
2019-09-12T01:30:00	0.2083	10.927	172.7	0.494550351	0.590394570	0.008538364	0.088088729	0.027149802
2019-09-12T01:35:00	0.2086	10.918	172.6	0.495837840	0.592170382	0.008578903	0.088506963	0.027278706
2019-09-12T01:40:00	0.2102	10.909	172.6	0.501246925	0.599645587	0.008750263	0.090274849	0.027823585
2019-09-12T01:45:00	0.2112	10.904	172.6	0.504590289	0.604277791	0.008857025	0.091376293	0.028163061
2019-09-12T01:50:00	0.2113	10.899	172.5	0.504845337	0.604631527	0.008865196	0.091460590	0.028189042
2019-09-12T01:55:00	0.2110	10.892	172.4	0.504071474	0.603558386	0.008840415	0.091204937	0.028110247
2019-09-12T02:00:00	0.2091	10.885	172.4	0.497459859	0.594409499	0.008630112	0.089035270	0.027441535
2019-09-12T02:05:00	0.2084	10.879	172.4	0.494965089	0.590966467	0.008551413	0.088223347	0.027191292
2019-09-12T02:10:00	0.2095	10.871	172.4	0.498658191	0.596065095	0.008668041	0.089426584	0.027562142
2019-09-12T02:15:00	0.2084	10.864	172.3	0.495132708	0.591197641	0.008556689	0.088277783	0.027208070
2019-09-12T02:20:00	0.2077	10.855	172.3	0.492636233	0.587756919	0.008478271	0.087468759	0.026958721
2019-09-12T02:25:00	0.2088	10.845	172.2	0.496331859	0.592852127	0.008594484	0.088667704	0.027328248
2019-09-12T02:30:00	0.2062	10.835	172.2	0.487293086	0.580409608	0.008311640	0.085749660	0.026428878
2019-09-12T02:35:00	0.2090	10.824	172.1	0.497186896	0.594032540	0.008621483	0.088946254	0.027414099
2019-09-12T02:40:00	0.2082	10.817	172.1	0.494347949	0.590115523	0.008532000	0.088023069	0.027129565
2019-09-12T02:45:00	0.2101	10.808	172.1	0.500789590	0.599012652	0.008735709	0.090124701	0.027777308
2019-09-12T02:50:00	0.2096	10.800	172.0	0.498984380	0.596515952	0.008678380	0.089533248	0.027595017
2019-09-12T02:55:00	0.2089	10.793	172.0	0.496834489	0.593545956	0.008610350	0.088831396	0.027378699
2019-09-12T03:00:00	0.2089	10.784	172.0	0.496746381	0.593424318	0.008607568	0.088802691	0.027369852
2019-09-12T03:05:00	0.2093	10.774	171.9	0.498033040	0.595201253	0.008648244	0.089222335	0.027499190
2019-09-12T03:10:00	0.2088	10.766	171.8	0.496570159	0.593181050	0.008602004	0.088745293	0.027352161
2019-09-12T03:15:00	0.2083	10.757	171.8	0.494762713	0.590687386	0.008545044	0.088157646	0.027171043
2019-09-12T03:20:00	0.2099	10.750	171.8	0.500173503	0.598160277	0.008716123	0.089922630	0.027715028
2019-09-12T03:25:00	0.2120	10.745	171.8	0.507289619	0.608024260	0.008943693	0.092270428	0.028438642
2019-09-12T03:30:00	0.2103	10.740	171.7	0.501714152	0.600292385	0.008765144	0.090428372	0.027870903
2019-09-12T03:35:00	0.2083	10.735	171.7	0.494754025	0.590675407	0.008544771	0.088154826	0.027170173
2019-09-12T03:40:00	0.2078	10.732	171.7	0.492945615	0.588183048	0.008487970	0.087568818	0.026989560
2019-09-12T03:45:00	0.2084	10.729	171.7	0.494921655	0.590906567	0.008550046	0.088209244	0.027186946
2019-09-12T03:50:00	0.2078	10.724	171.7	0.493113333	0.588414088	0.008493230	0.087623085	0.027006286
2019-09-12T03:55:00	0.2075	10.723	171.6	0.491992586	0.586870635	0.008458111	0.087260775	0.026894618
2019-09-12T04:00:00	0.2069	10.724	171.7	0.489838273	0.583906620	0.008390809	0.086566433	0.026680615
2019-09-12T04:05:00	0.2075	10.726	171.6	0.491913594	0.586761888	0.008455639	0.087235267	0.026886756
2019-09-12T04:10:00	0.2068	10.727	171.7	0.489512299	0.583458451	0.008380649	0.086461610	0.026648308
2019-09-12T04:15:00	0.2061	10.728	171.6	0.487109306	0.580157300	0.008305938	0.085690832	0.026410747
2019-09-12T04:20:00	0.2082	10.729	171.7	0.494350131	0.590118531	0.008532068	0.088023777	0.027129783
2019-09-12T04:25:00	0.2069	10.730	171.7	0.489884504	0.583970188	0.008392251	0.086581304	0.026685199
2019-09-12T04:30:00	0.2074	10.731	171.7	0.491615543	0.586351611	0.008446313	0.087139053	0.026857103
2019-09-12T04:35:00	0.2085	10.732	171.7	0.495409652	0.591579643	0.008565410	0.088367759	0.027235802
2019-09-12T04:40:00	0.2088	10.733	171.7	0.496450388	0.593015726	0.008598224	0.088706292	0.027340141
2019-09-12T04:45:00	0.2088	10.735	171.7	0.496459616	0.593028464	0.008598515	0.088709297	0.027341067
2019-09-12T04:50:00	0.2089	10.739	171.7	0.496812608	0.593515748	0.008609659	0.088824267	0.027376502
2019-09-12T04:55:00	0.2100	10.743	171.7	0.500600937	0.598751612	0.008729709	0.090062800	0.027758230
2019-09-12T05:00:00	0.2105	10.749	171.7	0.502326540	0.601140401	0.008784667	0.090629791	0.027932982
2019-09-12T05:05:00	0.2098	10.754	171.8	0.499932577	0.597827031	0.008708469	0.089843670	0.027690692
2019-09-12T05:10:00	0.2094	10.759	171.8	0.498567796	0.595940166	0.008665177	0.089397036	0.027553035
2019-09-12T05:15:00	0.2089	10.763	171.8	0.496858744	0.593579443	0.008611116	0.088839299	0.027381135
2019-09-12T05:20:00	0.2091	10.768	171.8	0.497555383	0.594541431	0.008633132	0.089066432	0.027451139
2019-09-12T05:25:00	0.2103	10.774	171.8	0.501686160	0.600253630	0.008764252	0.090419171	0.027868067
2019-09-12T05:30:00	0.2094	10.781	171.9	0.498604686	0.595991148	0.008666346	0.089409094	0.027556751
2019-09-12T05:35:00	0.2102	10.790	172.0	0.501361318	0.599803928	0.008753905	0.090312424	0.027835166
2019-09-12T05:40:00	0.2117	10.796	171.9	0.506515959	0.606949877	0.008918810	0.092013714	0.028359520
2019-09-12T05:45:00	0.2123	10.805	171.7	0.508581159	0.609818899	0.008985309	0.092699780	0.028570972
2019-09-12T05:50:00	0.2115	10.814	172.0	0.505505901	0.605547934	0.008886375	0.091679097	0.028256388
2019-09-12T05:55:00	0.2105	10.823	172.1	0.502084677	0.600805440	0.008776954	0.090550214	0.027908455
2019-09-12T06:00:00	0.2105	10.832	172.1	0.502093890	0.600818198	0.008777247	0.090553244	0.027909389
2019-09-12T06:05:00	0.2105	10.842	172.1	0.502103103	0.600830957	0.008777541	0.090556275	0.027910323
2019-09-12T06:10:00	0.2121	10.853	172.2	0.507599305	0.608454457	0.008953663	0.092373288	0.028470344
2019-09-12T06:15:00	0.2113	10.865	172.2	0.504866117	0.604660350	0.008865862	0.091467460	0.028191160
2019-09-12T06:20:00	0.2131	10.877	172.3	0.511042586	0.613242866	0.009064890	0.093520800	0.028824019
2019-09-12T06:25:00	0.2105	10.888	172.3	0.502139955	0.600881991	0.008778716	0.090568398	0.027914060
2019-09-12T06:30:00	0.2132	10.902	172.4	0.511403262	0.613744995	0.009076581	0.093641409	0.028861192
2019-09-12T06:35:00	0.2131	10.914	172.4	0.511070153	0.613281240	0.009065783	0.093530015	0.028826859
2019-09-12T06:40:00	0.2136	10.928	172.5	0.512790482	0.615677245	0.009121615	0.094106015	0.029004388
2019-09-12T06:45:00	0.2128	10.942	172.6	0.510061439	0.611877455	0.009033126	0.093193100	0.028723018
2019-09-12T06:50:00	0.2128	10.957	172.6	0.510070630	0.611890243	0.009033424	0.093196167	0.028723964
2019-09-12T06:55:00	0.2124	10.972	172.7	0.508709894	0.609997855	0.008989463	0.092742630	0.028584179
2019-09-12T07:00:00	0.2121	10.988	172.7	0.507691286	0.608582246	0.008956625	0.092403849	0.028479764
2019-09-12T07:05:00	0.2139	11.004	172.8	0.513862663	0.617171746	0.009156498	0.094465898	0.029115307
2019-09-12T07:10:00	0.2128	11.023	172.9	0.510107396	0.611941394	0.009034613	0.093208437	0.028727745
2019-09-12T07:15:00	0.2135	11.041	173.0	0.512512618	0.615290085	0.009112585	0.094012861	0.028975677
2019-09-12T07:20:00	0.2129	11.059	173.1	0.510468171	0.612443388	0.009046287	0.093328877	0.028764866
2019-09-12T07:25:00	0.2123	11.078	173.2	0.508422503	0.609598368	0.008980192	0.092646984	0.028554700
2019-09-12T07:30:00	0.2134	11.102	173.3	0.512197988	0.614851774	0.009102366	0.093907437	0.028943184
2019-09-12T07:35:00	0.2111	11.126	173.4	0.504327492	0.603913361	0.008848610	0.091289476	0.028136303
2019-09-12T07:40:00	0.2150	11.146	173.5	0.517687191	0.622510286	0.009281470	0.095755220	0.029512689
2019-09-12T07:45:00	0.2149	11.167	173.5	0.517354691	0.622045691	0.009270572	0.095642780	0.029478034
2019-09-12T07:50:00	0.2125	11.186	173.6	0.509153563	0.610614705	0.009003785	0.092890385	0.028629719
2019-09-12T07:55:00	0.2128	11.207	173.7	0.510190118	0.612056487	0.009037289	0.093236046	0.028736255
2019-09-12T08:00:00	0.2138	11.229	173.8	0.513621614	0.616835670	0.009148649	0.094384929	0.029090352
2019-09-12T08:05:00	0.2157	11.252	173.9	0.520123763	0.625917598	0.009361532	0.096581202	0.029767264
2019-09-12T08:10:00	0.2152	11.275	174.0	0.518425447	0.623542159	0.009305692	0.096005108	0.029589707
2019-09-12T08:15:00	0.2158	11.296	174.2	0.520483485	0.626421043	0.009373381	0.096703447	0.029804941
2019-09-12T08:20:00	0.2144	11.316	174.2	0.515710064	0.619748998	0.009216759	0.095087599	0.029306922
2019-09-12T08:25:00	0.2150	11.336	174.3	0.517769730	0.622625631	0.009284177	0.095783142	0.029521295
2019-09-12T08:30:00	0.2153	11.357	174.4	0.518803684	0.624070998	0.009318114	0.096133262	0.029629205
2019-09-12T08:35:00	0.2155	11.377	174.5	0.519495869	0.625039089	0.009340868	0.096368010	0.029701556
2019-09-12T08:40:00	0.2141	11.399	174.6	0.514721073	0.618368944	0.009184474	0.094754523	0.029204264
2019-09-12T08:45:00	0.2146	11.424	174.7	0.516439571	0.620767472	0.009240609	0.095333661	0.029382760
2019-09-12T08:50:00	0.2133	11.454	174.8	0.512002754	0.614579833	0.009096028	0.093842049	0.028923031
2019-09-12T08:55:00	0.2130	11.481	175.0	0.510642786	0.612686391	0.009051940	0.093387198	0.028782841
2019-09-12T09:00:00	0.2124	11.513	175.1	0.508597222	0.609841228	0.008985828	0.092705126	0.028572620
2019-09-12T09:05:00	0.2142	11.541	175.2	0.514766968	0.618432969	0.009185971	0.094769967	0.029209024
2019-09-12T09:10:00	0.2131	11.574	175.4	0.511012693	0.613201253	0.009063921	0.093510807	0.028820939
2019-09-12T09:15:00	0.2135	11.606	187.6	0.512390885	0.615120490	0.009108631	0.093972065	0.028963103
2019-09-12T09:20:00	0.2144	11.631	175.6	0.515478322	0.619425551	0.009209188	0.095009500	0.029282851
2019-09-12T09:25:00	0.2119	11.656	187.8	0.506929984	0.607524774	0.008932121	0.092151051	0.028401849
2019-09-12T09:30:00	0.2137	11.681	187.9	0.513102732	0.616112392	0.009131767	0.094210753	0.029036669
2019-09-12T09:35:00	0.2153	11.706	175.9	0.518581320	0.623760081	0.009310810	0.096057910	0.029605981
2019-09-12T09:40:00	0.2155	11.730	188.3	0.519273550	0.624728110	0.009333556	0.096292581	0.029678309
2019-09-12T09:45:00	0.2134	11.761	188.4	0.512103803	0.614720579	0.009099309	0.093875890	0.028933461
2019-09-12T09:50:00	0.2120	11.791	188.5	0.507318691	0.608064641	0.008944628	0.092280082	0.028441617
2019-09-12T09:55:00	0.2140	11.809	188.6	0.514174816	0.617607027	0.009166666	0.094570803	0.029147640
2019-09-12T10:00:00	0.2134	11.820	188.6	0.512131361	0.614758965	0.009100203	0.093885120	0.028936306
2019-09-12T10:05:00	0.2140	11.843	188.7	0.514132515	0.617548037	0.009165288	0.094556583	0.029143257
2019-09-12T10:10:00	0.2124	11.860	188.8	0.508604439	0.609851259	0.008986060	0.092707528	0.028573360
2019-09-12T10:15:00	0.2119	11.874	188.8	0.507182334	0.607875244	0.008940240	0.092234808	0.028427664
2019-09-12T10:20:00	0.2137	11.886	189.0	0.513293951	0.616378910	0.009137986	0.094274922	0.029056446
2019-09-12T10:25:00	0.2118	11.903	176.9	0.506736429	0.607255995	0.008925897	0.092086834	0.028382057
2019-09-12T10:30:00	0.2125	11.920	189.1	0.509083269	0.610516962	0.009001515	0.092866967	0.028622501
2019-09-12T10:35:00	0.2128	11.940	177.0	0.510059112	0.611874218	0.009033051	0.093192323	0.028722779
2019-09-12T10:40:00	0.2117	11.960	189.3	0.506238867	0.606565195	0.008909906	0.091921857	0.028331209
2019-09-12T10:45:00	0.2126	11.982	189.4	0.509271105	0.610778154	0.009007581	0.092929549	0.028641790
2019-09-12T10:50:00	0.2133	11.999	189.5	0.511958450	0.614518126	0.009094591	0.093827214	0.028918459
2019-09-12T10:55:00	0.2135	12.020	189.6	0.512591329	0.615399751	0.009115142	0.094039245	0.028983808
2019-09-12T11:00:00	0.2122	12.048	177.6	0.508088754	0.609134527	0.008969431	0.092535970	0.028520485
2019-09-12T11:05:00	0.2113	12.084	177.7	0.504952229	0.604779795	0.008868621	0.091495931	0.028199935
2019-09-12T11:10:00	0.2124	12.110	177.8	0.508670785	0.609943488	0.008988201	0.092729612	0.028580167
2019-09-12T11:15:00	0.2130	12.119	177.9	0.510673962	0.612729779	0.009052950	0.093397613	0.028786051
2019-09-12T11:20:00	0.2116	12.128	177.9	0.506168862	0.606468019	0.008907657	0.091898657	0.028324059
2019-09-12T11:25:00	0.2119	12.151	178.0	0.507145537	0.607824136	0.008939056	0.092222592	0.028423899
2019-09-12T11:30:00	0.2108	12.182	178.2	0.503322033	0.602519573	0.008816450	0.090957692	0.028034044
2019-09-12T11:35:00	0.2137	12.211	178.3	0.513205725	0.616255937	0.009135116	0.094245312	0.029047320
2019-09-12T11:40:00	0.2126	12.230	178.4	0.509388992	0.610942095	0.009011389	0.092968837	0.028653898
2019-09-12T11:45:00	0.2117	12.253	178.5	0.506253660	0.606585730	0.008910381	0.091926760	0.028332720
2019-09-12T11:50:00	0.2133	12.272	178.6	0.511682496	0.614133812	0.009085636	0.093734837	0.028889987
2019-09-12T11:55:00	0.2131	12.292	178.7	0.511288701	0.613585493	0.009072867	0.093603091	0.028849382
2019-09-12T12:00:00	0.2141	12.305	178.8	0.514658446	0.618281579	0.009182431	0.094733450	0.029197769
2019-09-12T12:05:00	0.2127	12.319	178.8	0.509816166	0.611536244	0.009025195	0.093111270	0.028697798
2019-09-12T12:10:00	0.2109	12.338	178.9	0.503595049	0.602897953	0.008825177	0.091047723	0.028061792
2019-09-12T12:15:00	0.2097	12.363	179.0	0.499424101	0.597123868	0.008692327	0.089677138	0.027639365
2019-09-12T12:20:00	0.2097	12.384	179.2	0.499372397	0.597052379	0.008690687	0.089660213	0.027634149
2019-09-12T12:25:00	0.2097	12.401	179.2	0.499664169	0.597455828	0.008699946	0.089755744	0.027663592
2019-09-12T12:30:00	0.2100	12.414	179.3	0.500642705	0.598809405	0.008731037	0.090076503	0.027762453
2019-09-12T12:35:00	0.2078	12.426	179.4	0.493028598	0.588297359	0.008490572	0.087595666	0.026997835
2019-09-12T12:40:00	0.2078	12.439	179.4	0.492976797	0.588226001	0.008488947	0.087578906	0.026992669
2019-09-12T12:45:00	0.2084	12.456	179.6	0.494989202	0.590999722	0.008552172	0.088231177	0.027193706
2019-09-12T12:50:00	0.2071	12.483	179.6	0.490463331	0.584766224	0.008410309	0.086767607	0.026742619
2019-09-12T12:55:00	0.2067	12.505	179.7	0.489033639	0.582800516	0.008365741	0.086307803	0.026600903
2019-09-12T13:00:00	0.2061	12.536	179.9	0.487258650	0.580362329	0.008310572	0.085738635	0.026425480
2019-09-12T13:05:00	0.2059	12.560	180.1	0.486517254	0.579344669	0.008287582	0.085501452	0.026352378
2019-09-12T13:10:00	0.2079	12.578	180.1	0.493354236	0.588745982	0.008500788	0.087701060	0.027030318
2019-09-12T13:15:00	0.2070	12.603	180.2	0.490204123	0.584409713	0.008402220	0.086684153	0.026716898
2019-09-12T13:20:00	0.2056	12.630	180.4	0.485326982	0.577711787	0.008250739	0.085121349	0.026235226
2019-09-12T13:25:00	0.2071	12.645	180.4	0.490444842	0.584740793	0.008409732	0.086761653	0.026740784
2019-09-12T13:30:00	0.2065	12.665	180.5	0.488326003	0.581828180	0.008343725	0.086080668	0.026530898
2019-09-12T13:35:00	0.2059	12.700	180.7	0.486550643	0.579390491	0.008288616	0.085512127	0.026355668
2019-09-12T13:40:00	0.2072	12.733	180.8	0.490978060	0.585474335	0.008426384	0.086933447	0.026793733
2019-09-12T13:45:00	0.2063	12.764	181.0	0.487825745	0.581141036	0.008328178	0.085920277	0.026481464
2019-09-12T13:50:00	0.2078	12.800	181.2	0.492939846	0.588175102	0.008487789	0.087566952	0.026988985
2019-09-12T13:55:00	0.2056	12.833	181.3	0.485308465	0.577686393	0.008250166	0.085115442	0.026233406
2019-09-12T14:00:00	0.2037	12.863	181.5	0.478696795	0.568636837	0.008047000	0.083019411	0.025587389
2019-09-12T14:05:00	0.2050	12.892	181.6	0.483479580	0.575179662	0.008193716	0.084533060	0.026053910
2019-09-12T14:10:00	0.2049	12.917	194.3	0.483082513	0.574635782	0.008181486	0.084406882	0.026015021
2019-09-12T14:15:00	0.2045	12.935	181.9	0.481649709	0.572674251	0.008137428	0.083952346	0.025874928
2019-09-12T14:20:00	0.2040	12.953	182.0	0.479870851	0.570241249	0.008082893	0.083389721	0.025701522
2019-09-12T14:25:00	0.2032	12.967	182.0	0.477053961	0.566393657	0.007996907	0.082502612	0.025428106
2019-09-12T14:30:00	0.2041	12.970	194.5	0.480112304	0.570571344	0.008090285	0.083465979	0.025725025
2019-09-12T14:35:00	0.2051	12.974	194.6	0.483512999	0.575225443	0.008194746	0.084543684	0.026057185
2019-09-12T14:40:00	0.2041	12.981	194.6	0.480353739	0.570901461	0.008097679	0.083542266	0.025748538
2019-09-12T14:45:00	0.2032	12.984	194.7	0.477191530	0.566581417	0.008001095	0.082545827	0.025441426
2019-09-12T14:50:00	0.2027	12.986	194.7	0.475410328	0.564151539	0.007946944	0.081987158	0.025269238
2019-09-12T14:55:00	0.2022	12.989	194.7	0.473628187	0.561722909	0.007892946	0.081430070	0.025097538
2019-09-12T15:00:00	0.2035	12.992	194.7	0.478072502	0.567784153	0.008027946	0.082822834	0.025526802
2019-09-12T15:05:00	0.2029	12.994	194.8	0.475945915	0.564881910	0.007963208	0.082154946	0.025320952
2019-09-12T15:10:00	0.2029	13.000	194.9	0.475893853	0.564810904	0.007961626	0.082138629	0.025315923
2019-09-12T15:15:00	0.2037	13.012	194.9	0.478953244	0.568987194	0.008054833	0.083100228	0.025612297
2019-09-12T15:20:00	0.2035	13.017	194.9	0.478210030	0.567971968	0.008032141	0.082866119	0.025540143
2019-09-12T15:25:00	0.2033	13.017	195.0	0.477466653	0.566956959	0.008009476	0.082632286	0.025468073
2019-09-12T15:30:00	0.2024	13.019	182.5	0.474301744	0.562640509	0.007913333	0.081640400	0.025162364
2019-09-12T15:35:00	0.2033	13.018	195.0	0.477362574	0.566814884	0.008006305	0.082599573	0.025457991
2019-09-12T15:40:00	0.2049	13.009	195.0	0.482837636	0.574300425	0.008173948	0.084329112	0.025991051
2019-09-12T15:45:00	0.2028	13.003	195.1	0.475875284	0.564785579	0.007961062	0.082132809	0.025314129
2019-09-12T15:50:00	0.2044	13.006	195.1	0.481352750	0.572267915	0.008128312	0.083858292	0.025845940
2019-09-12T15:55:00	0.2039	13.001	195.0	0.479573736	0.569835121	0.008073802	0.083295931	0.025672615
2019-09-12T16:00:00	0.2047	12.994	195.0	0.482284604	0.573543230	0.008156936	0.084153607	0.025936959
2019-09-12T16:05:00	0.2039	12.986	182.5	0.479423897	0.569630332	0.008069220	0.083248651	0.025658043
2019-09-12T16:10:00	0.2048	12.978	182.5	0.482779503	0.574220819	0.008172159	0.084310655	0.025985363
2019-09-12T16:15:00	0.2025	12.968	182.5	0.474733347	0.563228680	0.007926411	0.081775316	0.025203947
2019-09-12T16:20:00	0.2051	12.962	182.4	0.483619429	0.575371250	0.008198026	0.084577523	0.026067614
2019-09-12T16:25:00	0.2034	12.954	182.4	0.477650056	0.567207336	0.008015065	0.082689946	0.025485844
2019-09-12T16:30:00	0.2031	12.948	194.9	0.476860696	0.566129908	0.007991024	0.082441920	0.025409400
2019-09-12T16:35:00	0.2026	12.939	194.8	0.475033435	0.563637713	0.007935509	0.081869186	0.025232878
2019-09-12T16:40:00	0.2051	12.931	182.3	0.483573660	0.575308546	0.008196615	0.084562970	0.026063129
2019-09-12T16:45:00	0.2048	12.924	194.8	0.482785680	0.574229278	0.008172349	0.084312616	0.025985967
2019-09-12T16:50:00	0.2044	12.917	182.3	0.481306950	0.572205252	0.008126906	0.083843791	0.025841471
2019-09-12T16:55:00	0.2048	12.910	182.3	0.482590200	0.573961613	0.008166334	0.084250566	0.025966843
2019-09-12T17:00:00	0.2050	12.905	182.3	0.483182781	0.574773111	0.008184573	0.084438736	0.026024838
2019-09-12T17:05:00	0.2046	12.899	194.8	0.482049485	0.573221386	0.008149709	0.084079047	0.025913979
2019-09-12T17:10:00	0.2052	12.893	194.7	0.484022608	0.575923675	0.008210457	0.084705773	0.026107142
2019-09-12T17:15:00	0.2052	12.888	182.2	0.483924905	0.575789793	0.008207444	0.084674685	0.026097560
2019-09-12T17:20:00	0.2058	12.883	194.7	0.486241772	0.578966646	0.008279047	0.085413405	0.026325241
2019-09-12T17:25:00	0.2050	12.879	182.2	0.483384402	0.575049281	0.008190784	0.084502806	0.026044586
2019-09-12T17:30:00	0.2063	12.874	194.7	0.487770234	0.581064800	0.008326454	0.085902488	0.026475981
2019-09-12T17:35:00	0.2052	12.867	194.7	0.483879140	0.575727085	0.008206033	0.084660125	0.026093073
2019-09-12T17:40:00	0.2057	12.860	194.7	0.485851200	0.578430799	0.008266955	0.085288650	0.026286790
2019-09-12T17:45:00	0.2081	12.851	182.1	0.494020264	0.589663817	0.008521701	0.087916819	0.027096818
2019-09-12T17:50:00	0.2062	12.842	182.1	0.487379838	0.580528717	0.008314333	0.085777436	0.026437439
2019-09-12T17:55:00	0.2058	12.834	182.1	0.485903109	0.578502010	0.008268562	0.085305226	0.026291899
2019-09-12T18:00:00	0.2063	12.826	182.1	0.487873994	0.581207302	0.008329677	0.085935740	0.026486230
2019-09-12T18:05:00	0.2057	12.817	194.6	0.485707810	0.578234105	0.008262518	0.085242872	0.026272681
2019-09-12T18:10:00	0.2068	12.807	194.5	0.489401722	0.583306443	0.008377204	0.086426066	0.026637353
2019-09-12T18:15:00	0.2076	12.796	194.5	0.492403310	0.587436152	0.008470973	0.087393465	0.026935515
2019-09-12T18:20:00	0.2091	12.785	181.9	0.497464958	0.594416542	0.008630273	0.089036934	0.027442048
2019-09-12T18:25:00	0.2093	12.775	181.9	0.498054952	0.595231526	0.008648937	0.089229490	0.027501396
2019-09-12T18:30:00	0.2098	12.763	181.8	0.499675373	0.597471321	0.008700302	0.089759413	0.027664723
2019-09-12T18:35:00	0.2104	12.752	194.3	0.501981543	0.600662623	0.008773666	0.090516292	0.027898000
2019-09-12T18:40:00	0.2118	12.739	194.3	0.506686273	0.607186350	0.008924284	0.092070197	0.028376929
2019-09-12T18:45:00	0.2115	12.727	181.7	0.505560774	0.605624076	0.008888136	0.091697260	0.028261986
2019-09-12T18:50:00	0.2100	12.714	181.6	0.500660050	0.598833404	0.008731589	0.090082194	0.027764207
2019-09-12T18:55:00	0.2102	12.702	194.0	0.501249491	0.599649139	0.008750345	0.090275691	0.027823845
2019-09-12T19:00:00	0.2101	12.689	181.5	0.500808956	0.599039451	0.008736325	0.090131056	0.027779267
2019-09-12T19:05:00	0.2101	12.677	181.5	0.500711734	0.598904920	0.008733233	0.090099152	0.027769434
2019-09-12T19:10:00	0.2097	12.664	181.4	0.499584265	0.597345334	0.008697410	0.089729577	0.027655527
2019-09-12T19:15:00	0.2100	12.651	181.4	0.500517282	0.598635869	0.008727049	0.090035359	0.027749772
2019-09-12T19:20:00	0.2077	12.638	181.3	0.492513088	0.587587326	0.008474412	0.087428947	0.026946451
2019-09-12T19:25:00	0.2096	12.624	181.2	0.499292487	0.596941894	0.008688152	0.089634058	0.027626087
2019-09-12T19:30:00	0.2082	12.610	181.2	0.494382742	0.590163489	0.008533094	0.088034355	0.027133043
2019-09-12T19:35:00	0.2090	12.596	181.1	0.497036236	0.593824505	0.008616723	0.088897141	0.027398962
2019-09-12T19:40:00	0.2097	12.583	181.1	0.499344192	0.597013381	0.008689792	0.089650981	0.027631303
2019-09-12T19:45:00	0.2091	12.569	181.0	0.497528992	0.594504980	0.008632298	0.089057822	0.027448486
2019-09-12T19:50:00	0.2096	12.556	181.0	0.499149662	0.596744436	0.008683621	0.089587320	0.027611682
2019-09-12T19:55:00	0.2091	12.543	180.9	0.497334358	0.594236176	0.008626144	0.088994338	0.027428919
2019-09-12T20:00:00	0.2109	12.529	180.8	0.503761156	0.603128195	0.008830488	0.091102521	0.028078682
2019-09-12T20:05:00	0.2097	12.515	180.8	0.499544857	0.597290840	0.008696159	0.089716673	0.027651550
2019-09-12T20:10:00	0.2095	12.501	180.7	0.498760569	0.596206592	0.008671286	0.089460055	0.027572458
2019-09-12T20:15:00	0.2108	12.489	180.6	0.503126642	0.602248811	0.008810207	0.090893287	0.028014194
2019-09-12T20:20:00	0.2082	12.476	180.6	0.494440677	0.590243362	0.008534915	0.088053148	0.027138835
2019-09-12T20:25:00	0.2092	12.464	180.5	0.497781492	0.594853749	0.008640284	0.089140215	0.027473880
2019-09-12T20:30:00	0.2089	12.453	180.5	0.496653054	0.593295480	0.008604621	0.088772290	0.027360482
2019-09-12T20:35:00	0.2107	12.443	180.5	0.503081134	0.602185754	0.008808754	0.090878289	0.028009571
2019-09-12T20:40:00	0.2084	12.434	180.4	0.495082965	0.591129035	0.008555123	0.088261626	0.027203090
2019-09-12T20:45:00	0.2080	12.423	180.3	0.493609579	0.589097822	0.008508803	0.087783747	0.027055803
2019-09-12T20:50:00	0.2093	12.412	180.3	0.497982250	0.595131084	0.008646636	0.089205751	0.027494079
2019-09-12T20:55:00	0.2095	12.401	180.2	0.498915705	0.596421023	0.008676203	0.089510786	0.027588094
2019-09-12T21:00:00	0.2094	12.390	180.1	0.498474868	0.595811745	0.008662233	0.089366665	0.027543674
2019-09-12T21:05:00	0.2098	12.380	180.1	0.499751657	0.597576816	0.008702724	0.089784399	0.027672424
2019-09-12T21:10:00	0.2077	12.373	180.1	0.492778278	0.587952557	0.008482723	0.087514691	0.026972878
2019-09-12T21:15:00	0.2097	12.363	180.1	0.499557150	0.597307839	0.008696550	0.089720699	0.027652791
2019-09-12T21:20:00	0.2079	12.354	180.0	0.493271650	0.588632198	0.008498196	0.087674325	0.027022078
2019-09-12T21:25:00	0.2086	12.345	180.0	0.495582157	0.591817617	0.008570845	0.088423827	0.027253082
2019-09-12T21:30:00	0.2108	12.338	180.0	0.503384868	0.602606652	0.008818458	0.090978409	0.028040429
2019-09-12T21:35:00	0.2089	12.330	179.9	0.496762694	0.593446839	0.008608083	0.088808005	0.027371490
2019-09-12T21:40:00	0.2101	12.324	179.9	0.500787995	0.599010445	0.008735658	0.090124177	0.027777147
2019-09-12T21:45:00	0.2086	12.318	179.8	0.495880406	0.592229116	0.008580245	0.088520807	0.027282972
2019-09-12T21:50:00	0.2085	12.313	179.8	0.495439176	0.591620370	0.008566340	0.088377354	0.027238759
2019-09-12T21:55:00	0.2080	12.308	179.8	0.493621894	0.589114792	0.008509189	0.087787736	0.027057033
2019-09-12T22:00:00	0.2070	12.301	179.8	0.490081944	0.584241688	0.008398408	0.086644830	0.026704778
2019-09-12T22:05:00	0.2079	12.297	179.8	0.493229090	0.588573562	0.008496861	0.087660549	0.027017832
2019-09-12T22:10:00	0.2077	12.288	179.7	0.492589532	0.587692603	0.008476807	0.087453660	0.026954067
2019-09-12T22:15:00	0.2074	12.283	179.7	0.491605599	0.586337925	0.008446002	0.087135845	0.026856114
2019-09-12T22:20:00	0.2093	12.276	179.7	0.498189144	0.595416930	0.008653185	0.089273316	0.027514903
2019-09-12T22:25:00	0.2082	12.269	179.6	0.494456067	0.590264579	0.008535399	0.088058140	0.027140374
2019-09-12T22:30:00	0.2076	12.261	179.6	0.492440267	0.587487044	0.008472131	0.087405409	0.026939196
2019-09-12T22:35:00	0.2059	12.253	179.5	0.486288052	0.579030148	0.008280481	0.085428193	0.026329799
2019-09-12T22:40:00	0.2077	12.245	179.6	0.492537725	0.587621255	0.008475184	0.087436911	0.026948905
2019-09-12T22:45:00	0.2086	12.237	179.5	0.495682602	0.591956194	0.008574010	0.088456482	0.027263147
2019-09-12T22:50:00	0.2095	12.230	179.5	0.498824578	0.596295063	0.008673314	0.089480985	0.027578909
2019-09-12T22:55:00	0.2081	12.221	179.4	0.494060281	0.589718976	0.008522958	0.087929791	0.027100816
2019-09-12T23:00:00	0.2071	12.214	179.4	0.490667056	0.585046462	0.008416669	0.086833226	0.026762844
2019-09-12T23:05:00	0.2076	12.205	179.3	0.492437187	0.587482803	0.008472034	0.087404414	0.026938889
2019-09-12T23:10:00	0.2096	12.198	179.3	0.499019126	0.596563983	0.008679482	0.089544614	0.027598520
2019-09-12T23:15:00	0.2082	12.191	179.3	0.494255102	0.589987526	0.008529081	0.087992958	0.027120284
2019-09-12T23:20:00	0.2088	12.185	179.2	0.496367177	0.592900873	0.008595598	0.088679201	0.027331791
2019-09-12T23:25:00	0.2100	12.179	179.2	0.500538789	0.598665625	0.008727733	0.090042413	0.027751946
2019-09-12T23:30:00	0.2078	12.174	179.2	0.493024973	0.588292365	0.008490458	0.087594493	0.026997473
2019-09-12T23:35:00	0.2078	12.170	179.2	0.493073694	0.588359481	0.008491986	0.087610258	0.027002332
2019-09-12T23:40:00	0.2090	12.167	179.1	0.497249339	0.594118767	0.008623457	0.088966613	0.027420374
2019-09-12T23:45:00	0.2070	12.165	179.1	0.490072698	0.584228973	0.008398120	0.086641855	0.026703861
2019-09-12T23:50:00	0.2078	12.163	179.1	0.492875727	0.588086781	0.008485778	0.087546210	0.026982592
2019-09-12T23:55:00	0.2091	12.161	179.1	0.497395318	0.594320364	0.008628071	0.089014219	0.027435047
2019-09-13T00:00:00	0.2096	12.160	179.1	0.499161956	0.596761433	0.008684011	0.089591343	0.027612922
2019-09-13T00:05:00	0.2098	12.159	179.1	0.499897529	0.597778558	0.008707356	0.089832187	0.027687152
2019-09-13T00:10:00	0.2070	12.157	179.1	0.490316508	0.584564278	0.008405727	0.086720331	0.026728048
2019-09-13T00:15:00	0.2064	12.157	179.1	0.488298252	0.581790056	0.008342862	0.086071767	0.026528155
2019-09-13T00:20:00	0.2073	12.157	179.1	0.491102743	0.585645892	0.008430280	0.086973641	0.026806121
2019-09-13T00:25:00	0.2070	12.157	179.1	0.490118380	0.584291794	0.008399545	0.086656556	0.026708392
2019-09-13T00:30:00	0.2067	12.157	179.1	0.489133731	0.582938081	0.008368857	0.086339954	0.026610812
2019-09-13T00:35:00	0.2064	12.157	179.0	0.488148797	0.581584752	0.008338216	0.086023836	0.026513382
2019-09-13T00:40:00	0.2061	12.156	179.1	0.487163578	0.580231807	0.008307622	0.085708202	0.026416100
2019-09-13T00:45:00	0.2043	12.156	179.0	0.481001786	0.571787774	0.008117544	0.083747201	0.025811701
2019-09-13T00:50:00	0.2064	12.157	179.0	0.488295168	0.581785820	0.008342766	0.086070778	0.026527850
2019-09-13T00:55:00	0.2062	12.155	179.1	0.487309991	0.580432818	0.008312165	0.085755072	0.026430546
2019-09-13T01:00:00	0.2068	12.155	179.0	0.489426382	0.583340341	0.008377972	0.086433992	0.026639796
2019-09-13T01:05:00	0.2053	12.152	179.0	0.484303898	0.576309169	0.008219136	0.084795307	0.026134737
2019-09-13T01:10:00	0.2042	12.152	179.0	0.480555529	0.571177406	0.008103862	0.083606052	0.025768197
2019-09-13T01:15:00	0.2043	12.151	179.0	0.480949801	0.571716663	0.008115949	0.083730753	0.025806631
2019-09-13T01:20:00	0.2058	12.149	179.0	0.486174987	0.578875012	0.008276979	0.085392066	0.026318664
2019-09-13T01:25:00	0.2058	12.148	179.0	0.486223807	0.578941996	0.008278491	0.085407664	0.026323472
2019-09-13T01:30:00	0.2071	12.148	179.0	0.490407864	0.584689930	0.008408578	0.086749746	0.026737114
2019-09-13T01:35:00	0.2064	12.147	179.0	0.488045046	0.581442239	0.008334991	0.085990570	0.026503129
2019-09-13T01:40:00	0.2079	12.146	178.9	0.493259334	0.588615230	0.008497810	0.087670338	0.027020850
2019-09-13T01:45:00	0.2075	12.145	179.0	0.491931373	0.586786364	0.008456195	0.087241007	0.026888526
2019-09-13T01:50:00	0.2087	12.144	178.9	0.496108418	0.592543755	0.008587435	0.088594984	0.027305835
2019-09-13T01:55:00	0.2074	12.144	178.9	0.491684599	0.586446663	0.008448473	0.087161341	0.026863972
2019-09-13T02:00:00	0.2061	12.144	178.9	0.487255019	0.580357344	0.008310459	0.085737473	0.026425122
2019-09-13T02:05:00	0.2091	12.144	178.9	0.497285698	0.594168977	0.008624606	0.088978469	0.027424028
2019-09-13T02:10:00	0.2087	12.144	178.9	0.495959307	0.592337988	0.008582733	0.088546472	0.027290883
2019-09-13T02:15:00	0.2079	12.145	179.0	0.493256255	0.588610988	0.008497713	0.087669342	0.027020542
2019-09-13T02:20:00	0.2084	12.146	178.9	0.495025041	0.591049147	0.008553300	0.088242815	0.027197292
2019-09-13T02:25:00	0.2075	12.147	178.9	0.491977030	0.586849219	0.008457624	0.087255751	0.026893070
2019-09-13T02:30:00	0.2059	12.145	178.9	0.486513623	0.579339685	0.008287469	0.085500291	0.026352020
2019-09-13T02:35:00	0.2078	12.144	178.9	0.493107019	0.588405389	0.008493032	0.087621041	0.027005656
2019-09-13T02:40:00	0.2080	12.144	178.9	0.493499837	0.588946601	0.008505357	0.087748205	0.027044849
2019-09-13T02:45:00	0.2065	12.143	178.9	0.488383495	0.581907163	0.008345512	0.086099111	0.026536582
2019-09-13T02:50:00	0.2095	12.141	178.9	0.498754421	0.596198094	0.008671091	0.089458045	0.027571838
2019-09-13T02:55:00	0.2086	12.140	178.9	0.495709747	0.591993647	0.008574866	0.088465309	0.027265867
2019-09-13T03:00:00	0.2082	12.137	178.9	0.494382742	0.590163489	0.008533094	0.088034355	0.027133043
2019-09-13T03:05:00	0.2077	12.135	178.8	0.492711076	0.587859998	0.008480617	0.087492959	0.026966180
2019-09-13T03:10:00	0.2077	12.132	178.8	0.492759802	0.587927108	0.008482144	0.087508716	0.026971036
2019-09-13T03:15:00	0.2079	12.128	178.8	0.493152660	0.588468265	0.008494463	0.087635812	0.027010208
2019-09-13T03:20:00	0.2067	12.124	178.8	0.489069540	0.582849856	0.008366858	0.086319334	0.026604457
2019-09-13T03:25:00	0.2076	12.121	178.8	0.492217623	0.587180467	0.008465157	0.087333464	0.026917022
2019-09-13T03:30:00	0.2077	12.117	178.7	0.492610544	0.587721539	0.008477466	0.087460453	0.026956161
2019-09-13T03:35:00	0.2075	12.114	178.7	0.491970870	0.586840738	0.008457431	0.087253762	0.026892457
2019-09-13T03:40:00	0.2112	12.109	178.7	0.504732382	0.604474858	0.008861577	0.091423252	0.028177534
2019-09-13T03:45:00	0.2082	12.104	178.7	0.494477067	0.590293531	0.008536060	0.088064953	0.027142474
2019-09-13T03:50:00	0.2095	12.099	178.6	0.498650992	0.596055146	0.008667813	0.089424231	0.027561416
2019-09-13T03:55:00	0.2087	12.094	178.6	0.495950077	0.592325252	0.008582442	0.088543469	0.027289957
2019-09-13T04:00:00	0.2086	12.089	178.6	0.495654911	0.591917990	0.008573138	0.088447479	0.027260372
2019-09-13T04:05:00	0.2088	12.083	178.6	0.496394317	0.592938333	0.008596455	0.088688037	0.027334514
2019-09-13T04:10:00	0.2073	12.078	178.5	0.491285410	0.585897255	0.008435989	0.087032546	0.026824276
2019-09-13T04:15:00	0.2100	12.072	178.5	0.500620654	0.598778894	0.008730336	0.090069269	0.027760223
2019-09-13T04:20:00	0.2097	12.067	178.5	0.499642112	0.597425326	0.008699246	0.089748521	0.027661366
2019-09-13T04:25:00	0.2086	12.062	178.5	0.495569849	0.591800638	0.008570457	0.088419826	0.027251849
2019-09-13T04:30:00	0.2095	12.057	178.4	0.498715003	0.596143614	0.008669842	0.089445157	0.027567866
2019-09-13T04:35:00	0.2074	12.051	178.5	0.491544535	0.586253877	0.008444092	0.087116139	0.026850040
2019-09-13T04:40:00	0.2081	12.045	178.4	0.494005418	0.589643354	0.008521235	0.087912007	0.027095334
2019-09-13T04:45:00	0.2096	12.040	178.3	0.499213663	0.596832917	0.008685651	0.089608262	0.027618137
2019-09-13T04:50:00	0.2076	12.034	178.3	0.492388457	0.587415699	0.008470508	0.087388665	0.026934035
2019-09-13T04:55:00	0.2092	12.029	178.3	0.497942823	0.595076616	0.008645388	0.089192879	0.027490111
2019-09-13T05:00:00	0.2083	12.023	178.3	0.494556545	0.590403111	0.008538559	0.088090739	0.027150421
2019-09-13T05:05:00	0.2096	12.018	178.2	0.499076983	0.596643962	0.008681316	0.089563541	0.027604353
2019-09-13T05:10:00	0.2096	12.013	178.2	0.499128691	0.596715445	0.008682956	0.089580458	0.027609567
2019-09-13T05:15:00	0.2089	12.009	178.2	0.496774998	0.593463824	0.008608471	0.088812013	0.027372725
2019-09-13T05:20:00	0.2070	12.004	178.1	0.490289319	0.584526884	0.008404878	0.086711578	0.026725351
2019-09-13T05:25:00	0.2093	12.001	178.1	0.498253164	0.595505387	0.008655212	0.089294227	0.027521348
2019-09-13T05:30:00	0.2086	11.996	178.1	0.495555010	0.591780166	0.008569990	0.088415003	0.027250363
2019-09-13T05:35:00	0.2107	11.995	178.0	0.502820359	0.601824445	0.008800426	0.090792374	0.027983091
2019-09-13T05:40:00	0.2095	11.995	178.1	0.498751892	0.596194598	0.008671011	0.089457218	0.027571583
2019-09-13T05:45:00	0.2085	11.995	177.8	0.495366418	0.591520004	0.008564049	0.088353710	0.027231471
2019-09-13T05:50:00	0.2088	11.995	190.2	0.496449687	0.593014759	0.008598202	0.088706064	0.027340070
2019-09-13T05:55:00	0.2087	11.996	178.1	0.496157640	0.592611683	0.008588988	0.088611001	0.027310771
2019-09-13T06:00:00	0.2113	11.998	178.0	0.505136680	0.605035666	0.008874534	0.091556931	0.028218735
2019-09-13T06:05:00	0.2106	12.004	178.0	0.502443967	0.601303044	0.008788413	0.090668439	0.027944893
2019-09-13T06:10:00	0.2099	12.009	178.1	0.500092561	0.598048314	0.008713551	0.089896099	0.027706851
2019-09-13T06:15:00	0.2101	12.013	178.1	0.500831006	0.599069963	0.008737027	0.090138293	0.027781497
2019-09-13T06:20:00	0.2110	12.020	178.1	0.503971314	0.603419527	0.008837211	0.091171874	0.028100057
2019-09-13T06:25:00	0.2095	12.024	190.4	0.498873761	0.596363044	0.008674873	0.089497068	0.027583866
2019-09-13T06:30:00	0.2095	12.028	190.4	0.498925472	0.596434523	0.008676513	0.089513981	0.027589078
2019-09-13T06:35:00	0.2093	12.032	178.1	0.498290057	0.595556364	0.008656380	0.089306279	0.027525063
2019-09-13T06:40:00	0.2101	12.036	190.4	0.500746073	0.598952435	0.008734325	0.090110420	0.027772907
2019-09-13T06:45:00	0.2108	12.042	178.2	0.503200323	0.602350910	0.008812561	0.090917571	0.028021678
2019-09-13T06:50:00	0.2090	12.048	178.2	0.497070612	0.593871970	0.008617809	0.088908346	0.027402416
2019-09-13T06:55:00	0.2082	12.054	190.5	0.494371521	0.590148019	0.008532741	0.088030715	0.027131921
2019-09-13T07:00:00	0.2096	12.061	178.3	0.499235723	0.596863416	0.008686351	0.089615481	0.027620362
2019-09-13T07:05:00	0.2087	12.068	178.3	0.496194556	0.592662630	0.008590152	0.088623015	0.027314474
2019-09-13T07:10:00	0.2091	12.078	178.3	0.497277562	0.594157742	0.008624349	0.088975816	0.027423211
2019-09-13T07:15:00	0.2089	12.089	178.4	0.496641840	0.593280001	0.008604267	0.088768638	0.027359356
2019-09-13T07:20:00	0.2086	12.102	178.4	0.495662155	0.591927984	0.008573366	0.088449835	0.027261098
2019-09-13T07:25:00	0.2096	12.116	178.5	0.499150751	0.596745942	0.008683656	0.089587676	0.027611792
2019-09-13T07:30:00	0.2101	12.133	178.6	0.500919552	0.599192498	0.008739844	0.090167356	0.027790455
2019-09-13T07:35:00	0.2090	12.151	178.7	0.497192541	0.594040335	0.008621662	0.088948095	0.027414667
2019-09-13T07:40:00	0.2075	12.173	178.8	0.492084833	0.586997636	0.008460999	0.087290568	0.026903801
2019-09-13T07:45:00	0.2084	12.197	178.9	0.494889282	0.590861924	0.008549027	0.088198734	0.027183706
2019-09-13T07:50:00	0.2075	12.218	179.0	0.491844230	0.586666400	0.008453468	0.087212871	0.026879854
2019-09-13T07:55:00	0.2086	12.243	179.1	0.495680615	0.591953454	0.008573948	0.088455837	0.027262948
2019-09-13T08:00:00	0.2101	12.274	179.2	0.500886304	0.599146486	0.008738786	0.090156442	0.027787091
2019-09-13T08:05:00	0.2077	12.307	179.4	0.492688078	0.587828322	0.008479896	0.087485522	0.026963888
2019-09-13T08:10:00	0.2067	12.336	179.4	0.489296565	0.583161894	0.008373928	0.086392272	0.026626937
2019-09-13T08:15:00	0.2078	12.357	179.5	0.492791687	0.587971026	0.008483144	0.087519028	0.026974214
2019-09-13T08:20:00	0.2076	12.373	179.6	0.492155127	0.587094419	0.008463200	0.087313274	0.026910799
2019-09-13T08:25:00	0.2060	12.393	179.7	0.486695092	0.579588733	0.008293093	0.085558315	0.026369904
2019-09-13T08:30:00	0.2088	12.411	179.8	0.496386724	0.592927853	0.008596215	0.088685565	0.027333752
2019-09-13T08:35:00	0.2088	12.433	179.8	0.496438473	0.592999280	0.008597848	0.088702413	0.027338945
2019-09-13T08:40:00	0.2063	12.458	179.9	0.487884885	0.581222260	0.008330015	0.085939230	0.026487305
2019-09-13T08:45:00	0.2074	12.479	180.0	0.491725736	0.586503287	0.008449760	0.087174618	0.026868064
2019-09-13T08:50:00	0.2063	12.502	180.1	0.487643985	0.580891424	0.008322533	0.085862038	0.026463514
2019-09-13T08:55:00	0.2061	12.528	180.3	0.487006460	0.580016117	0.008302748	0.085657919	0.026400603
2019-09-13T09:00:00	0.2053	12.557	180.4	0.484299365	0.576302956	0.008218996	0.084793864	0.026134292
2019-09-13T09:05:00	0.2068	12.588	180.5	0.489522482	0.583472451	0.008380966	0.086464884	0.026649317
2019-09-13T09:10:00	0.2062	12.615	180.6	0.487506839	0.580703098	0.008318275	0.085818107	0.026449974
2019-09-13T09:15:00	0.2067	12.637	180.8	0.489281698	0.583141459	0.008373465	0.086387495	0.026625465
2019-09-13T09:20:00	0.2052	12.658	180.8	0.484162083	0.576114811	0.008214760	0.084750162	0.026120823
2019-09-13T09:25:00	0.2056	12.680	180.9	0.485248928	0.577604748	0.008248325	0.085096453	0.026227553
2019-09-13T09:30:00	0.2054	12.702	181.0	0.484610953	0.576730045	0.008228614	0.084893096	0.026164877
2019-09-13T09:35:00	0.2064	12.733	181.2	0.488110896	0.581532690	0.008337038	0.086011683	0.026509636
2019-09-13T09:40:00	0.2064	12.757	181.3	0.488162771	0.581603947	0.008338650	0.086028317	0.026514763
2019-09-13T09:45:00	0.2064	12.781	181.4	0.488214646	0.581675205	0.008340263	0.086044952	0.026519890
2019-09-13T09:50:00	0.2067	12.798	181.5	0.489300194	0.583166882	0.008374041	0.086393438	0.026627297
2019-09-13T09:55:00	0.2067	12.815	181.5	0.489007533	0.582764637	0.008364928	0.086299418	0.026598319
2019-09-13T10:00:00	0.2058	12.840	181.7	0.485957206	0.578576222	0.008270236	0.085322501	0.026297223
2019-09-13T10:05:00	0.2038	12.866	181.8	0.479010543	0.569065483	0.008056584	0.083118291	0.025617864
2019-09-13T10:10:00	0.2052	12.893	181.9	0.484147194	0.576094407	0.008214300	0.084745423	0.026119362
2019-09-13T10:15:00	0.2054	12.918	182.1	0.484794516	0.576981688	0.008234283	0.084951583	0.026182903
2019-09-13T10:20:00	0.2027	12.937	194.6	0.475424903	0.564171412	0.007947387	0.081991722	0.025270645
2019-09-13T10:25:00	0.2040	12.956	194.8	0.479876133	0.570248470	0.008083055	0.083391389	0.025702036
2019-09-13T10:30:00	0.2052	12.968	194.9	0.483976493	0.575860483	0.008209035	0.084691099	0.026102619
2019-09-13T10:35:00	0.2054	12.987	195.0	0.484623847	0.576747720	0.008229012	0.084897204	0.026166143
2019-09-13T10:40:00	0.2029	13.001	182.4	0.475945563	0.564881430	0.007963197	0.082154836	0.025320918
2019-09-13T10:45:00	0.2021	13.021	182.5	0.473134693	0.561050842	0.007878026	0.081276138	0.025050095
2019-09-13T10:50:00	0.2035	13.041	182.6	0.478280260	0.568067883	0.008034284	0.082888227	0.025546957
2019-09-13T10:55:00	0.2041	13.055	195.2	0.480310665	0.570842562	0.008096360	0.083528653	0.025744342
2019-09-13T11:00:00	0.2026	13.068	195.3	0.475082611	0.563704750	0.007937001	0.081884574	0.025237621
2019-09-13T11:05:00	0.2034	13.085	182.9	0.477806355	0.567420734	0.008019829	0.082739100	0.025500994
2019-09-13T11:10:00	0.2014	13.098	182.9	0.470842930	0.557932332	0.007808918	0.080563169	0.024830351
2019-09-13T11:15:00	0.2002	13.115	183.0	0.466640815	0.552225154	0.007682985	0.079263938	0.024429916
2019-09-13T11:20:00	0.2014	13.131	183.1	0.470757244	0.557815816	0.007806340	0.080536573	0.024822154
2019-09-13T11:25:00	0.2008	13.148	183.2	0.468635352	0.554932323	0.007742633	0.079879321	0.024619583
2019-09-13T11:30:00	0.2004	13.168	183.3	0.467552464	0.553462136	0.007710220	0.079544922	0.024516517
2019-09-13T11:35:00	0.2001	13.190	195.9	0.466469228	0.551992407	0.007677864	0.079211107	0.024413632
2019-09-13T11:40:00	0.1988	13.204	196.1	0.461914366	0.545822579	0.007542543	0.077815024	0.023983346
2019-09-13T11:45:00	0.1990	13.213	183.5	0.462565961	0.546704194	0.007561829	0.078013991	0.024044670
2019-09-13T11:50:00	0.2010	13.229	183.6	0.469460743	0.556053543	0.007767384	0.080134669	0.024698283
2019-09-13T11:55:00	0.1999	13.244	196.3	0.465603850	0.550818937	0.007652063	0.078944925	0.024331593
2019-09-13T12:00:00	0.1992	13.254	196.3	0.463131549	0.547469715	0.007578588	0.078186899	0.024097962
2019-09-13T12:05:00	0.1988	13.263	183.8	0.461699579	0.545532043	0.007536191	0.077749492	0.023963149
2019-09-13T12:10:00	0.1990	13.265	196.4	0.462698459	0.546883507	0.007565753	0.078054481	0.024057149
2019-09-13T12:15:00	0.1976	13.279	196.4	0.457790774	0.540251096	0.007421055	0.076561657	0.023597046
2019-09-13T12:20:00	0.1985	13.295	183.9	0.460875944	0.544418275	0.007511858	0.077498453	0.023885776
2019-09-13T12:25:00	0.1974	13.298	184.0	0.457009201	0.539196609	0.007398138	0.076325225	0.023524176
2019-09-13T12:30:00	0.1983	13.300	184.0	0.460095087	0.543362850	0.007488824	0.077260821	0.023812535
2019-09-13T12:35:00	0.1984	13.309	184.1	0.460399589	0.543774364	0.007497802	0.077353445	0.023841083
2019-09-13T12:40:00	0.1994	13.319	184.1	0.463829496	0.548414732	0.007599295	0.078400530	0.024163805
2019-09-13T12:45:00	0.1978	13.333	184.2	0.458228159	0.540841419	0.007433895	0.076694126	0.023637875
2019-09-13T12:50:00	0.1986	13.336	196.8	0.461312928	0.545009123	0.007524763	0.077631594	0.023926811
2019-09-13T12:55:00	0.1968	13.337	184.3	0.455011426	0.536503436	0.007339718	0.075722514	0.023338414
2019-09-13T13:00:00	0.1978	13.344	184.3	0.458446830	0.541136609	0.007440319	0.076760397	0.023658300
2019-09-13T13:05:00	0.1991	13.348	197.0	0.462920497	0.547184027	0.007572332	0.078122356	0.024078069
2019-09-13T13:10:00	0.1978	13.356	197.1	0.458360828	0.541020508	0.007437792	0.076734330	0.023650266
2019-09-13T13:15:00	0.1989	13.370	184.5	0.462140114	0.546127980	0.007549222	0.077883929	0.024004583
2019-09-13T13:20:00	0.1958	13.377	184.5	0.451313964	0.531527246	0.007232193	0.074613204	0.022996514
2019-09-13T13:25:00	0.1988	13.384	184.6	0.461706896	0.545541940	0.007536407	0.077751724	0.023963837
2019-09-13T13:30:00	0.1985	13.388	184.7	0.460969201	0.544544355	0.007514611	0.077526857	0.023894530
2019-09-13T13:35:00	0.1997	13.387	197.3	0.465092557	0.550125892	0.007636839	0.078787864	0.024283185
2019-09-13T13:40:00	0.1971	13.396	197.4	0.456015959	0.537857240	0.007369064	0.076025279	0.023431729
2019-09-13T13:45:00	0.1967	13.406	184.7	0.454580956	0.535923537	0.007327159	0.075592951	0.023298482
2019-09-13T13:50:00	0.1960	13.414	184.7	0.452100534	0.532584939	0.007255002	0.074848518	0.023069040
2019-09-13T13:55:00	0.1963	13.424	197.4	0.453102270	0.533932672	0.007284101	0.075148728	0.023161568
2019-09-13T14:00:00	0.1933	13.434	197.5	0.442596198	0.519837159	0.006981752	0.072029448	0.022200175
2019-09-13T14:05:00	0.1929	13.440	197.6	0.441155434	0.517910920	0.006940778	0.071606724	0.022069888
2019-09-13T14:10:00	0.1941	13.449	197.7	0.445652205	0.523928305	0.007069053	0.072930112	0.022477769
2019-09-13T14:15:00	0.1926	13.457	197.8	0.440529086	0.516861651	0.006920158	0.071393994	0.022004322
2019-09-13T14:20:00	0.1927	13.462	197.7	0.440767063	0.517270715	0.006928129	0.071476228	0.022029668
2019-09-13T14:25:00	0.1940	13.466	185.1	0.445173683	0.523287213	0.007055348	0.072788721	0.022434191
2019-09-13T14:30:00	0.1945	13.474	197.9	0.446875296	0.525567743	0.007104141	0.073292114	0.022589341
2019-09-13T14:35:00	0.1920	13.478	197.9	0.438764290	0.513833054	0.006861223	0.070785972	0.021816924
2019-09-13T14:40:00	0.1917	13.483	185.2	0.437914839	0.512378401	0.006832966	0.070494446	0.021727073
2019-09-13T14:45:00	0.1911	13.490	197.9	0.436248318	0.509530407	0.006777735	0.069924644	0.021551454
2019-09-13T14:50:00	0.1902	13.503	185.3	0.434034936	0.505759847	0.006704804	0.069172231	0.021319553
2019-09-13T14:55:00	0.1913	13.512	198.0	0.436997635	0.510809989	0.006802534	0.070180494	0.021630310
2019-09-13T15:00:00	0.1894	13.521	198.1	0.431784835	0.501940735	0.006631157	0.068412429	0.021085375
2019-09-13T15:05:00	0.1889	13.533	185.5	0.430385415	0.499572602	0.006585604	0.067942463	0.020940527
2019-09-13T15:10:00	0.1887	13.539	198.2	0.429805030	0.498592059	0.006566768	0.067748133	0.020880633
2019-09-13T15:15:00	0.1869	13.536	198.2	0.424843619	0.490248091	0.006407087	0.066100735	0.020372889
2019-09-13T15:20:00	0.1879	13.536	198.3	0.427549151	0.494789709	0.006493866	0.066996020	0.020648824
2019-09-13T15:25:00	0.1880	13.544	198.3	0.427788995	0.495193301	0.006501593	0.067075741	0.020673395
2019-09-13T15:30:00	0.1873	13.544	198.3	0.425838259	0.491915374	0.006438907	0.066429017	0.020474068
2019-09-13T15:35:00	0.1853	13.538	198.3	0.420589898	0.483148629	0.006272085	0.064707947	0.019943618
2019-09-13T15:40:00	0.1871	13.533	185.6	0.425496443	0.491342090	0.006427961	0.066316089	0.020439263
2019-09-13T15:45:00	0.1879	13.524	198.2	0.427653593	0.494965436	0.006497230	0.067030728	0.020659521
2019-09-13T15:50:00	0.1870	13.515	198.2	0.425154556	0.490769009	0.006417024	0.066203254	0.020404486
2019-09-13T15:55:00	0.1868	13.504	198.2	0.424572316	0.489793790	0.006398424	0.066011363	0.020345343
2019-09-13T16:00:00	0.1877	13.496	198.2	0.427004513	0.493873825	0.006476340	0.066815204	0.020593095
2019-09-13T16:05:00	0.1871	13.490	198.2	0.425487069	0.491326372	0.006427661	0.066312993	0.020438309
2019-09-13T16:10:00	0.1879	13.484	198.1	0.427530426	0.494758206	0.006493263	0.066989798	0.020646906
2019-09-13T16:15:00	0.1852	13.477	198.2	0.420249873	0.482583287	0.006261369	0.064597392	0.019909544
2019-09-13T16:20:00	0.1849	13.470	198.1	0.419276420	0.480966546	0.006230752	0.064281520	0.019812189
2019-09-13T16:25:00	0.1852	13.462	185.3	0.420228167	0.482547210	0.006260686	0.064590338	0.019907370
2019-09-13T16:30:00	0.1861	13.454	198.0	0.422552708	0.486418337	0.006334162	0.065348383	0.020141006
2019-09-13T16:35:00	0.1853	13.445	185.3	0.420481390	0.482968185	0.006268664	0.064672655	0.019932740
2019-09-13T16:40:00	0.1852	13.437	198.0	0.420333080	0.482721602	0.006263990	0.064624435	0.019917878
2019-09-13T16:45:00	0.1828	13.429	198.1	0.413572247	0.471545411	0.006053173	0.062449470	0.019247533
2019-09-13T16:50:00	0.1851	13.420	198.0	0.420036417	0.482228550	0.006254648	0.064528048	0.019888171
2019-09-13T16:55:00	0.1851	13.413	198.0	0.419888066	0.481982081	0.006249979	0.064479881	0.019873325
2019-09-13T17:00:00	0.1843	13.407	197.9	0.417813329	0.478541519	0.006184906	0.063808538	0.019666411
2019-09-13T17:05:00	0.1842	13.400	198.0	0.417389363	0.477839913	0.006171660	0.063671877	0.019624291
2019-09-13T17:10:00	0.1853	13.392	185.2	0.420542884	0.483070443	0.006270603	0.064692654	0.019938904
2019-09-13T17:15:00	0.1849	13.384	197.8	0.419294523	0.480996589	0.006231321	0.064287386	0.019813997
2019-09-13T17:20:00	0.1845	13.376	197.9	0.418320494	0.479381460	0.006200775	0.063972252	0.019716869
2019-09-13T17:25:00	0.1849	13.369	197.8	0.419272805	0.480960547	0.006230639	0.064280349	0.019811828
2019-09-13T17:30:00	0.1867	13.363	197.9	0.424343556	0.489410886	0.006391125	0.065936063	0.020322135
2019-09-13T17:35:00	0.1874	13.360	197.9	0.426114409	0.492378763	0.006447759	0.066520337	0.020502214
2019-09-13T17:40:00	0.1885	13.359	185.2	0.429251075	0.497657041	0.006548820	0.067562969	0.020823563
2019-09-13T17:45:00	0.1872	13.360	197.9	0.425818800	0.491882730	0.006438284	0.066422585	0.020472086
2019-09-13T17:50:00	0.1867	13.359	185.2	0.424300254	0.489338422	0.006389744	0.065921815	0.020317744
2019-09-13T17:55:00	0.1889	13.356	197.8	0.430448703	0.499679582	0.006587660	0.067963675	0.020947065
2019-09-13T18:00:00	0.1873	13.354	185.1	0.425923353	0.492058141	0.006441634	0.066457148	0.020482739
2019-09-13T18:05:00	0.1892	13.350	185.1	0.431246639	0.501029342	0.006613616	0.068231453	0.021029597
2019-09-13T18:10:00	0.1883	13.346	185.1	0.428639340	0.496625489	0.006529035	0.067358851	0.020760652
2019-09-13T18:15:00	0.1893	13.341	185.1	0.431498161	0.501455175	0.006621810	0.068315995	0.021055653
2019-09-13T18:20:00	0.1890	13.333	185.1	0.430531392	0.499819373	0.006590347	0.067991394	0.020955608
2019-09-13T18:25:00	0.1890	13.323	185.1	0.430657213	0.500032118	0.006594437	0.068033586	0.020968612
2019-09-13T18:30:00	0.1898	13.313	185.1	0.432694161	0.503482442	0.006660860	0.068718868	0.021179823
2019-09-13T18:35:00	0.1906	13.302	185.0	0.435001114	0.507404079	0.006736581	0.069500060	0.021420593
2019-09-13T18:40:00	0.1912	13.292	185.0	0.436760571	0.510404994	0.006794683	0.070099488	0.021605343
2019-09-13T18:45:00	0.1909	13.281	185.0	0.435796863	0.508760231	0.006762821	0.069770773	0.021504030
2019-09-13T18:50:00	0.1899	13.271	184.9	0.433196728	0.504335501	0.006677311	0.068888590	0.021232133
2019-09-13T18:55:00	0.1883	13.262	184.9	0.428678934	0.496692223	0.006530314	0.067372051	0.020764720
2019-09-13T19:00:00	0.1884	13.253	184.9	0.429078379	0.497365723	0.006543231	0.067505307	0.020805791
2019-09-13T19:05:00	0.1916	13.246	184.8	0.437659294	0.511941185	0.006824479	0.070406888	0.021700087
2019-09-13T19:10:00	0.1895	13.240	184.8	0.432062153	0.502410667	0.006640207	0.068505795	0.021114151
2019-09-13T19:15:00	0.1867	13.231	197.4	0.424253347	0.489259933	0.006388249	0.065906384	0.020312987
2019-09-13T19:20:00	0.1887	13.224	184.7	0.429855400	0.498677120	0.006568401	0.067764985	0.020885826
2019-09-13T19:25:00	0.1873	13.218	184.7	0.425876493	0.491979519	0.006440132	0.066441656	0.020477964
2019-09-13T19:30:00	0.1899	13.212	184.7	0.433110588	0.504189237	0.006674490	0.068859482	0.021223161
2019-09-13T19:35:00	0.1892	13.207	184.7	0.431052590	0.500700932	0.006607298	0.068166273	0.021009507
2019-09-13T19:40:00	0.1891	13.201	184.6	0.430905236	0.500451619	0.006602503	0.068116803	0.020994260
2019-09-13T19:45:00	0.1888	13.194	184.6	0.430211414	0.499278534	0.006579953	0.067884167	0.020922559
2019-09-13T19:50:00	0.1877	13.187	184.6	0.427054969	0.493958639	0.006477962	0.066831942	0.020598254
2019-09-13T19:55:00	0.1865	13.182	184.5	0.423892432	0.488656211	0.006376747	0.065787721	0.020276415
2019-09-13T20:00:00	0.1887	13.177	184.5	0.429769086	0.498531363	0.006565602	0.067736109	0.020876927
2019-09-13T20:05:00	0.1889	13.170	184.5	0.430441524	0.499667445	0.006587427	0.067961268	0.020946323
2019-09-13T20:10:00	0.1890	13.164	197.3	0.430567351	0.499880170	0.006591516	0.068003451	0.020959324
2019-09-13T20:15:00	0.1883	13.159	197.2	0.428779710	0.496862099	0.006533572	0.067405655	0.020775077
2019-09-13T20:20:00	0.1875	13.153	184.5	0.426442415	0.492929441	0.006458282	0.066628904	0.020535675
2019-09-13T20:25:00	0.1886	13.147	184.4	0.429578455	0.498209520	0.006559423	0.067672361	0.020857279
2019-09-13T20:30:00	0.1894	13.141	184.4	0.431616733	0.501655981	0.006625675	0.068355871	0.021067943
2019-09-13T20:35:00	0.1889	13.135	184.3	0.430376811	0.499558059	0.006585325	0.067939580	0.020939638
2019-09-13T20:40:00	0.1882	13.130	184.3	0.428315399	0.496079657	0.006518573	0.067250914	0.020727385
2019-09-13T20:45:00	0.1891	13.125	184.3	0.430901647	0.500445547	0.006602386	0.068115599	0.020993889
2019-09-13T20:50:00	0.1894	13.120	184.3	0.431846647	0.502045461	0.006633174	0.068433233	0.021091787
2019-09-13T20:55:00	0.1900	13.115	184.3	0.433336711	0.504573234	0.006681898	0.068935909	0.021246717
2019-09-13T21:00:00	0.1916	13.110	184.3	0.437820377	0.512216764	0.006829828	0.070462073	0.021717095
2019-09-13T21:05:00	0.1921	13.103	184.2	0.439033306	0.514294153	0.006870187	0.070878450	0.021845427
2019-09-13T21:10:00	0.1915	13.096	184.2	0.437526853	0.511714662	0.006820083	0.070361537	0.021686109
2019-09-13T21:15:00	0.1926	13.091	184.2	0.440370446	0.516589050	0.006914848	0.071339208	0.021987437
2019-09-13T21:20:00	0.1933	13.085	184.2	0.442772729	0.520073285	0.006986780	0.072081326	0.022216165
2019-09-13T21:25:00	0.1910	13.078	184.1	0.435997545	0.509102522	0.006769448	0.069839147	0.021525103
2019-09-13T21:30:00	0.1906	13.072	184.1	0.435033396	0.507459060	0.006737644	0.069511030	0.021423974
2019-09-13T21:35:00	0.1918	13.064	184.1	0.438153218	0.512786412	0.006840888	0.070576182	0.021752265
2019-09-13T21:40:00	0.1909	13.058	184.0	0.435829129	0.508815258	0.006763886	0.069781763	0.021507417
2019-09-13T21:45:00	0.1927	13.050	196.5	0.440577717	0.516945232	0.006921786	0.071410795	0.022009500
2019-09-13T21:50:00	0.1931	13.042	183.9	0.441991326	0.519028272	0.006964535	0.071851829	0.022145431
2019-09-13T21:55:00	0.1904	13.034	183.9	0.434570838	0.506671518	0.006722418	0.069353948	0.021375560
2019-09-13T22:00:00	0.1904	13.025	183.8	0.434423797	0.506421292	0.006717582	0.069304059	0.021360184
2019-09-13T22:05:00	0.1913	13.014	196.3	0.436762020	0.510407469	0.006794731	0.070099983	0.021605495
2019-09-13T22:10:00	0.1916	13.001	183.7	0.437737342	0.512074699	0.006827070	0.070433623	0.021708327
2019-09-13T22:15:00	0.1920	12.989	183.6	0.438712095	0.513743614	0.006859485	0.070768038	0.021811397
2019-09-13T22:20:00	0.1922	12.976	196.1	0.439414540	0.514947945	0.006882902	0.071009631	0.021885858
2019-09-13T22:25:00	0.1891	12.962	183.4	0.430854929	0.500366517	0.006600866	0.068099919	0.020989056
2019-09-13T22:30:00	0.1906	12.948	196.4	0.435106537	0.507583643	0.006740053	0.069535888	0.021431636
2019-09-13T22:35:00	0.1920	12.932	183.2	0.438803674	0.513900545	0.006862535	0.070799506	0.021821095
2019-09-13T22:40:00	0.1911	12.914	183.2	0.436241903	0.509519460	0.006777523	0.069922456	0.021550780
2019-09-13T22:45:00	0.1916	12.898	183.1	0.437761683	0.512116342	0.006827878	0.070441962	0.021710897
2019-09-13T22:50:00	0.1930	12.883	195.6	0.441559178	0.518450544	0.006952248	0.071725061	0.022106360
2019-09-13T22:55:00	0.1924	12.866	183.0	0.439982290	0.515922353	0.006901865	0.071205267	0.021946155
2019-09-13T23:00:00	0.1930	12.852	182.9	0.441618028	0.518529210	0.006953921	0.071742317	0.022111679
2019-09-13T23:05:00	0.1926	12.836	182.9	0.440299689	0.516467486	0.006912480	0.071314781	0.021979908
2019-09-13T23:10:00	0.1923	12.820	182.8	0.439643380	0.515340587	0.006890541	0.071088446	0.021910149
2019-09-13T23:15:00	0.1937	12.804	182.7	0.443976664	0.521684312	0.007021122	0.072435621	0.022325362
2019-09-13T23:20:00	0.1942	12.788	182.7	0.445925925	0.524295100	0.007076898	0.073011050	0.022502715
2019-09-13T23:25:00	0.1945	12.774	195.2	0.446827603	0.525503793	0.007102771	0.073277981	0.022584985
2019-09-13T23:30:00	0.1931	12.762	182.6	0.442143949	0.519232346	0.006968878	0.071896626	0.022159238
2019-09-13T23:35:00	0.1934	12.751	182.5	0.443046646	0.520439723	0.006994587	0.072161860	0.022240986
2019-09-13T23:40:00	0.1930	12.740	182.5	0.441504008	0.518376799	0.006950680	0.071708885	0.022101375
2019-09-13T23:45:00	0.1927	12.730	182.5	0.440754238	0.517248665	0.006927699	0.071471795	0.022028301
2019-09-13T23:50:00	0.1938	12.719	182.4	0.444357054	0.522193561	0.007031989	0.072547738	0.022359917
2019-09-13T23:55:00	0.1923	12.710	182.4	0.439713458	0.515460854	0.006892882	0.071112592	0.021917591
2019-09-14T00:00:00	0.1930	12.699	182.3	0.441621709	0.518534130	0.006954025	0.071743397	0.022112012
2019-09-14T00:05:00	0.1908	12.690	182.3	0.435406225	0.508094267	0.006749931	0.069637798	0.021463046
2019-09-14T00:10:00	0.1928	12.678	194.7	0.441004330	0.517678716	0.006936081	0.071558274	0.022054955
2019-09-14T00:15:00	0.1913	12.665	182.2	0.436813597	0.510495570	0.006796438	0.070117602	0.021610926
2019-09-14T00:20:00	0.1915	12.654	182.1	0.437516838	0.511697535	0.006819750	0.070358108	0.021685052
2019-09-14T00:25:00	0.1926	12.641	182.0	0.440394042	0.516629591	0.006915637	0.071347355	0.021989948
2019-09-14T00:30:00	0.1933	12.631	182.0	0.442846274	0.520171666	0.006988876	0.072102945	0.022222828
2019-09-14T00:35:00	0.1939	12.619	181.9	0.444796194	0.522781604	0.007044546	0.072677278	0.022399843
2019-09-14T00:40:00	0.1938	12.607	181.9	0.444301930	0.522119756	0.007030414	0.072531485	0.022354908
2019-09-14T00:45:00	0.1934	12.594	181.8	0.443109148	0.520523345	0.006996368	0.072180242	0.022246652
2019-09-14T00:50:00	0.1939	12.581	194.2	0.444709841	0.522665959	0.007042076	0.072651796	0.022391989
2019-09-14T00:55:00	0.1925	12.567	181.6	0.440259664	0.516398727	0.006911141	0.071300965	0.021975650
2019-09-14T01:00:00	0.1929	12.552	181.6	0.441275957	0.518071991	0.006944201	0.071642039	0.022080772
2019-09-14T01:05:00	0.1928	12.536	181.5	0.440848565	0.517410846	0.006930860	0.071504405	0.022038352
2019-09-14T01:10:00	0.1913	12.522	181.4	0.436929633	0.510693800	0.006800282	0.070157251	0.021623146
2019-09-14T01:15:00	0.1900	12.505	181.4	0.433274274	0.504467192	0.006679852	0.068914801	0.021240211
2019-09-14T01:20:00	0.1889	12.487	181.3	0.430430754	0.499649240	0.006587077	0.067957658	0.020945210
2019-09-14T01:25:00	0.1935	12.468	193.6	0.443344432	0.520838158	0.007003078	0.072249461	0.022267986
2019-09-14T01:30:00	0.1907	12.449	181.1	0.435387589	0.508062506	0.006749317	0.069631458	0.021461092
2019-09-14T01:35:00	0.1925	12.428	181.0	0.440171026	0.516246473	0.006908176	0.071270375	0.021966222
2019-09-14T01:40:00	0.1924	12.407	180.9	0.439786394	0.515586042	0.006895318	0.071137728	0.021925339
2019-09-14T01:45:00	0.1910	12.385	180.8	0.436137293	0.509340947	0.006774065	0.069886784	0.021539785
2019-09-14T01:50:00	0.1910	12.360	180.6	0.436024071	0.509147773	0.006770324	0.069848187	0.021527890
2019-09-14T01:55:00	0.1894	12.334	180.5	0.431820797	0.502001663	0.006632331	0.068424532	0.021089105
2019-09-14T02:00:00	0.1909	12.308	192.8	0.435797603	0.508761494	0.006762845	0.069771025	0.021504108
2019-09-14T02:05:00	0.1918	12.282	180.2	0.438133903	0.512753348	0.006840246	0.070569557	0.021750223
2019-09-14T02:10:00	0.1913	12.257	180.1	0.436932499	0.510698698	0.006800377	0.070158231	0.021623448
2019-09-14T02:15:00	0.1936	12.231	180.0	0.443638513	0.521231705	0.007011468	0.072336024	0.022294665
2019-09-14T02:20:00	0.1947	12.207	192.3	0.447681317	0.526648781	0.007127311	0.073531153	0.022663015
2019-09-14T02:25:00	0.1946	12.185	179.8	0.447187479	0.525986383	0.007113111	0.073384652	0.022617862
2019-09-14T02:30:00	0.1921	12.164	179.7	0.439199983	0.514579944	0.006875744	0.070935785	0.021863098
2019-09-14T02:35:00	0.1917	12.142	191.9	0.437999344	0.512523023	0.006835773	0.070523415	0.021736001
2019-09-14T02:40:00	0.1890	12.120	179.4	0.430525667	0.499809694	0.006590161	0.067989475	0.020955016
2019-09-14T02:45:00	0.1918	12.097	191.7	0.438317118	0.513067038	0.006846339	0.070632414	0.021769596
2019-09-14T02:50:00	0.1924	12.075	179.3	0.439835016	0.515669506	0.006896943	0.071154488	0.021930504
2019-09-14T02:55:00	0.1936	12.057	191.5	0.443873759	0.521546567	0.007018183	0.072405304	0.022316018
2019-09-14T03:00:00	0.1932	12.038	191.4	0.442331503	0.519483151	0.006974215	0.071951694	0.022176211
2019-09-14T03:05:00	0.1925	12.019	191.4	0.440039492	0.516020576	0.006903777	0.071224996	0.021952236
2019-09-14T03:10:00	0.1925	12.002	178.9	0.440198193	0.516293136	0.006909084	0.071279750	0.021969111
2019-09-14T03:15:00	0.1926	11.988	178.9	0.440356880	0.516565741	0.006914394	0.071334524	0.021985993
2019-09-14T03:20:00	0.1941	11.974	178.8	0.445591647	0.523847164	0.007067317	0.072912211	0.022472252
2019-09-14T03:25:00	0.1921	11.960	178.7	0.439044051	0.514312574	0.006870545	0.070882145	0.021846566
2019-09-14T03:30:00	0.1913	11.947	178.6	0.437027042	0.510860239	0.006803509	0.070190546	0.021633408
2019-09-14T03:35:00	0.1901	11.931	178.6	0.433644626	0.505096359	0.006691994	0.069040066	0.021278819
2019-09-14T03:40:00	0.1888	11.913	178.5	0.429982015	0.498890970	0.006572508	0.067807357	0.020898886
2019-09-14T03:45:00	0.1908	11.897	178.4	0.435598347	0.508421745	0.006756269	0.069703178	0.021483196
2019-09-14T03:50:00	0.1896	11.880	178.3	0.432213021	0.502666411	0.006645134	0.068556622	0.021129817
2019-09-14T03:55:00	0.1895	11.863	178.2	0.432099531	0.502474023	0.006641428	0.068518386	0.021118032
2019-09-14T04:00:00	0.1909	11.844	178.1	0.435803341	0.508771278	0.006763034	0.069772979	0.021504710
2019-09-14T04:05:00	0.1923	11.823	178.0	0.439686436	0.515414478	0.006891979	0.071103281	0.021914722
2019-09-14T04:10:00	0.1920	11.801	177.9	0.438673757	0.513677923	0.006858208	0.070754866	0.021807337
2019-09-14T04:15:00	0.1914	11.780	177.8	0.437116277	0.511012735	0.006806466	0.070221056	0.021642811
2019-09-14T04:20:00	0.1942	11.763	177.8	0.445860551	0.524207490	0.007075024	0.072991715	0.022496755
2019-09-14T04:25:00	0.1942	11.740	177.6	0.445956241	0.524335727	0.007077767	0.073020016	0.022505478
2019-09-14T04:30:00	0.1976	11.716	177.5	0.457547601	0.539922959	0.007413921	0.076488057	0.023574362
2019-09-14T04:35:00	0.1959	11.694	177.4	0.451726033	0.532081292	0.007244138	0.074736436	0.023034495
2019-09-14T04:40:00	0.1969	11.670	177.3	0.455303264	0.536896662	0.007348238	0.075810412	0.023365505
2019-09-14T04:45:00	0.1958	11.645	177.1	0.451568717	0.531869757	0.007239577	0.074689378	0.023019992
2019-09-14T04:50:00	0.1973	11.622	177.1	0.456537852	0.538560907	0.007384334	0.076182812	0.023480283
2019-09-14T04:55:00	0.1978	11.601	177.0	0.458372051	0.541035659	0.007438122	0.076737731	0.023651314
2019-09-14T05:00:00	0.1981	11.577	176.8	0.459510211	0.542572633	0.007471595	0.077083065	0.023757749
2019-09-14T05:05:00	0.2002	11.552	176.7	0.466549248	0.552100947	0.007680252	0.079235743	0.024421225
2019-09-14T05:10:00	0.2021	11.532	176.6	0.473227493	0.561177208	0.007880830	0.081305074	0.025059013
2019-09-14T05:15:00	0.2029	11.511	176.5	0.476090346	0.565078907	0.007967596	0.082200222	0.025334907
2019-09-14T05:20:00	0.2020	11.489	176.4	0.473071178	0.560964358	0.007876106	0.081256337	0.025043992
2019-09-14T05:25:00	0.2021	11.469	188.4	0.473166097	0.561093604	0.007878975	0.081285930	0.025053113
2019-09-14T05:30:00	0.2023	11.449	188.3	0.473953223	0.562165667	0.007902781	0.081531535	0.025128811
2019-09-14T05:35:00	0.2055	11.430	188.2	0.485103949	0.577405945	0.008243844	0.085050219	0.026213304
2019-09-14T05:40:00	0.2057	11.412	176.1	0.485888306	0.578481702	0.008268103	0.085300499	0.026290442
2019-09-14T05:45:00	0.2057	11.393	175.8	0.485638007	0.578138359	0.008260358	0.085220591	0.026265814
2019-09-14T05:50:00	0.2067	11.376	188.0	0.489179503	0.583000992	0.008370282	0.086354659	0.026615345
2019-09-14T05:55:00	0.2055	11.361	187.9	0.485137352	0.577451748	0.008244876	0.085060870	0.026216586
2019-09-14T06:00:00	0.2067	11.345	187.8	0.489023922	0.582787162	0.008365438	0.086304682	0.026599941
2019-09-14T06:05:00	0.2071	11.332	187.7	0.490496214	0.584811454	0.008411335	0.086778197	0.026745883
2019-09-14T06:10:00	0.2058	11.320	187.7	0.486110818	0.578786970	0.008274992	0.085371566	0.026312346
2019-09-14T06:15:00	0.2066	11.311	187.7	0.488962812	0.582703177	0.008363536	0.086285056	0.026593892
2019-09-14T06:20:00	0.2084	11.298	175.5	0.494909267	0.590889483	0.008549656	0.088205222	0.027185706
2019-09-14T06:25:00	0.2072	11.288	187.5	0.490873927	0.585331062	0.008423130	0.086899883	0.026783388
2019-09-14T06:30:00	0.2087	11.278	187.4	0.496129485	0.592572829	0.008588100	0.088601839	0.027307947
2019-09-14T06:35:00	0.2078	11.271	175.3	0.493128105	0.588434438	0.008493693	0.087627865	0.027007759
2019-09-14T06:40:00	0.2078	11.267	187.4	0.492878338	0.588090378	0.008485860	0.087547055	0.026982853
2019-09-14T06:45:00	0.2107	11.261	187.4	0.502938002	0.601987435	0.008804182	0.090831128	0.027995036
2019-09-14T06:50:00	0.2098	11.258	187.4	0.499942612	0.597840911	0.008708788	0.089846959	0.027691705
2019-09-14T06:55:00	0.2071	11.256	187.3	0.490407396	0.584689286	0.008408563	0.086749595	0.026737068
2019-09-14T07:00:00	0.2078	11.255	187.3	0.492911665	0.588136283	0.008486905	0.087557835	0.026986175
2019-09-14T07:05:00	0.2065	11.255	187.3	0.488529387	0.582107602	0.008350049	0.086145920	0.026551009
2019-09-14T07:10:00	0.2079	11.256	187.3	0.493444497	0.588870347	0.008503620	0.087730285	0.027039326
2019-09-14T07:15:00	0.2056	11.260	187.3	0.485270961	0.577634963	0.008249007	0.085103480	0.026229719
2019-09-14T07:20:00	0.2062	11.264	187.3	0.487434340	0.580603551	0.008316024	0.085794889	0.026442818
2019-09-14T07:25:00	0.2047	11.269	175.3	0.482354633	0.573639098	0.008159089	0.084175821	0.025943805
2019-09-14T07:30:00	0.2070	11.276	187.3	0.490379661	0.584651140	0.008407697	0.086740665	0.026734315
2019-09-14T07:35:00	0.2036	11.284	187.4	0.478399108	0.568230205	0.008037911	0.082925647	0.025558490
2019-09-14T07:40:00	0.2045	11.292	187.4	0.481602896	0.572610192	0.008135991	0.083937516	0.025870358
2019-09-14T07:45:00	0.2041	11.302	187.5	0.480316181	0.570850105	0.008096529	0.083530396	0.025744879
2019-09-14T07:50:00	0.2038	11.315	187.6	0.479028977	0.569090670	0.008057147	0.083124102	0.025619656
2019-09-14T07:55:00	0.2047	11.328	187.6	0.482232170	0.573471452	0.008155324	0.084136976	0.025931833
2019-09-14T08:00:00	0.2045	11.342	187.7	0.481636334	0.572655948	0.008137017	0.083948109	0.025873622
2019-09-14T08:05:00	0.2036	11.358	187.7	0.478622112	0.568534815	0.008044719	0.082995883	0.025580137
2019-09-14T08:10:00	0.2057	11.376	187.8	0.485621483	0.578115696	0.008259847	0.085215318	0.026264188
2019-09-14T08:15:00	0.2039	11.391	187.9	0.479502711	0.569738047	0.008071630	0.083273518	0.025665707
2019-09-14T08:20:00	0.2038	11.405	188.0	0.479251939	0.569395335	0.008063962	0.083194408	0.025641325
2019-09-14T08:25:00	0.2045	11.421	188.0	0.481419160	0.572358780	0.008130350	0.083879321	0.025852421
2019-09-14T08:30:00	0.2048	11.440	188.1	0.482549578	0.573905994	0.008165085	0.084237674	0.025962869
2019-09-14T08:35:00	0.2044	11.462	188.1	0.481263223	0.572145427	0.008125564	0.083829947	0.025837204
2019-09-14T08:40:00	0.2039	11.482	188.3	0.479630907	0.569913263	0.008075551	0.083313974	0.025678176
2019-09-14T08:45:00	0.2053	11.506	176.2	0.484213902	0.576185827	0.008216359	0.084766656	0.026125907
2019-09-14T08:50:00	0.2050	11.534	176.4	0.483273313	0.574897112	0.008187362	0.084467502	0.026033704
2019-09-14T08:55:00	0.2056	11.575	176.5	0.485437965	0.577863992	0.008254170	0.085156755	0.026246139
2019-09-14T09:00:00	0.2050	11.620	188.9	0.483462577	0.575156369	0.008193192	0.084527655	0.026052244
2019-09-14T09:05:00	0.2051	11.663	177.0	0.483557205	0.575286003	0.008196108	0.084557738	0.026061516
2019-09-14T09:10:00	0.2035	11.698	177.2	0.478126057	0.567857289	0.008029579	0.082839689	0.025531997
2019-09-14T09:15:00	0.2029	11.732	177.3	0.476146401	0.565155368	0.007969300	0.082217798	0.025340324
2019-09-14T09:20:00	0.2044	11.766	177.4	0.481079468	0.571894039	0.008119926	0.083771784	0.025819277
2019-09-14T09:25:00	0.2053	11.797	177.6	0.484280725	0.576277409	0.008218421	0.084787929	0.026132463
2019-09-14T09:30:00	0.2048	11.818	177.7	0.482649862	0.574043303	0.008168170	0.084269501	0.025972679
2019-09-14T09:35:00	0.2058	11.830	177.7	0.486194476	0.578901752	0.008277583	0.085398293	0.026320583
2019-09-14T09:40:00	0.2054	11.840	177.8	0.484564533	0.576666413	0.008227181	0.084878309	0.026160319
2019-09-14T09:45:00	0.2047	11.856	177.8	0.482243431	0.573486867	0.008155670	0.084140548	0.025932934
2019-09-14T09:50:00	0.2065	11.872	177.9	0.488546248	0.582130767	0.008350574	0.086151330	0.026552677
2019-09-14T09:55:00	0.2060	11.893	178.0	0.486917434	0.579893912	0.008299987	0.085629435	0.026391823
2019-09-14T10:00:00	0.2063	11.913	178.1	0.487701371	0.580970231	0.008324315	0.085880423	0.026469181
2019-09-14T10:05:00	0.2044	11.933	178.2	0.481280667	0.572169293	0.008126099	0.083835470	0.025838906
2019-09-14T10:10:00	0.2037	11.957	178.3	0.478651390	0.568574811	0.008045613	0.083005106	0.025582980
2019-09-14T10:15:00	0.2066	11.990	178.5	0.488792703	0.582469410	0.008358241	0.086230435	0.026577058
2019-09-14T10:20:00	0.2050	12.026	191.0	0.483409536	0.575083710	0.008191558	0.084510795	0.026047048
2019-09-14T10:25:00	0.2051	12.050	178.8	0.483543760	0.575267583	0.008195694	0.084553464	0.026060199
2019-09-14T10:30:00	0.2066	12.049	178.8	0.488850188	0.582548404	0.008360030	0.086248891	0.026582746
2019-09-14T10:35:00	0.2064	12.041	178.8	0.488295051	0.581785659	0.008342762	0.086070740	0.026527838
2019-09-14T10:40:00	0.2067	12.040	178.8	0.489118201	0.582916735	0.008368373	0.086334965	0.026609275
2019-09-14T10:45:00	0.2055	12.057	178.9	0.485115553	0.577421855	0.008244203	0.085053919	0.026214444
2019-09-14T10:50:00	0.2052	12.085	179.0	0.483869761	0.575714232	0.008205743	0.084657141	0.026092153
2019-09-14T10:55:00	0.2055	12.116	179.1	0.485038940	0.577316805	0.008241835	0.085029492	0.026206915
2019-09-14T11:00:00	0.2040	12.154	179.3	0.479995277	0.570411348	0.008086702	0.083429014	0.025713632
2019-09-14T11:05:00	0.2041	12.188	179.5	0.480129636	0.570595041	0.008090816	0.083471454	0.025726713
2019-09-14T11:10:00	0.2021	12.229	179.7	0.473348439	0.561341910	0.007884486	0.081342793	0.025070639
2019-09-14T11:15:00	0.2032	12.263	179.8	0.476942467	0.566241499	0.007993513	0.082467596	0.025417314
2019-09-14T11:20:00	0.2031	12.285	179.9	0.476731180	0.565953176	0.007987083	0.082401260	0.025396869
2019-09-14T11:25:00	0.2043	12.298	180.0	0.481012386	0.571802274	0.008117869	0.083750556	0.025812735
2019-09-14T11:30:00	0.2044	12.306	180.0	0.481146705	0.571986021	0.008121989	0.083793064	0.025825836
2019-09-14T11:35:00	0.2033	12.317	180.1	0.477480358	0.566975667	0.008009893	0.082636594	0.025469401
2019-09-14T11:40:00	0.2055	12.333	180.1	0.484866642	0.577080571	0.008236511	0.084974569	0.026189987
2019-09-14T11:45:00	0.2046	12.353	180.2	0.481894906	0.573009814	0.008144959	0.084030045	0.025898876
2019-09-14T11:50:00	0.2014	12.384	180.4	0.470963295	0.558096014	0.007812540	0.080600538	0.024841869
2019-09-14T11:55:00	0.2024	12.416	180.5	0.474213833	0.562520726	0.007910671	0.081612933	0.025153899
2019-09-14T12:00:00	0.2029	12.436	180.7	0.476078124	0.565062237	0.007967225	0.082196391	0.025333726
2019-09-14T12:05:00	0.2031	12.446	180.7	0.476904245	0.566189338	0.007992349	0.082455594	0.025413615
2019-09-14T12:10:00	0.2023	12.449	180.8	0.473925511	0.562127915	0.007901942	0.081522882	0.025126144
2019-09-14T12:15:00	0.2023	12.455	180.8	0.474060111	0.562311286	0.007906017	0.081564915	0.025139099
2019-09-14T12:20:00	0.2041	12.463	180.8	0.480072356	0.570516727	0.008089062	0.083453360	0.025721136
2019-09-14T12:25:00	0.2035	12.467	180.9	0.478133496	0.567867447	0.008029806	0.082842030	0.025532718
2019-09-14T12:30:00	0.2033	12.473	180.9	0.477576602	0.567107055	0.008012826	0.082666850	0.025478726
2019-09-14T12:35:00	0.2041	12.477	180.9	0.480129988	0.570595523	0.008090827	0.083471566	0.025726747
2019-09-14T12:40:00	0.2035	12.485	181.0	0.478191161	0.567946198	0.008031565	0.082860180	0.025538312
2019-09-14T12:45:00	0.2029	12.493	181.0	0.475905370	0.564826612	0.007961976	0.082142238	0.025317036
2019-09-14T12:50:00	0.2024	12.499	181.0	0.474310170	0.562651990	0.007913588	0.081643033	0.025163176
2019-09-14T12:55:00	0.2010	12.505	181.1	0.469597013	0.556238706	0.007771474	0.080176865	0.024711288
2019-09-14T13:00:00	0.2021	12.509	181.1	0.473195031	0.561133003	0.007879849	0.081294951	0.025055894
2019-09-14T13:05:00	0.2007	12.516	181.1	0.468480316	0.554721781	0.007737989	0.079831403	0.024604814
2019-09-14T13:10:00	0.1997	12.520	181.2	0.464800192	0.549729692	0.007628141	0.078698123	0.024255526
2019-09-14T13:15:00	0.1998	12.535	181.2	0.465282135	0.550382836	0.007642482	0.078846081	0.024301128
2019-09-14T13:20:00	0.2002	12.546	181.3	0.466804578	0.552447309	0.007687874	0.079314376	0.024445461
2019-09-14T13:25:00	0.1984	12.555	181.4	0.460344020	0.543699260	0.007496164	0.077336538	0.023835872
2019-09-14T13:30:00	0.1997	12.564	181.4	0.464993048	0.549991034	0.007633878	0.078757314	0.024273769
2019-09-14T13:35:00	0.1983	12.576	181.5	0.460266843	0.543594957	0.007493888	0.077313059	0.023828636
2019-09-14T13:40:00	0.2005	12.593	181.5	0.467690814	0.553649915	0.007714358	0.079587606	0.024529673
2019-09-14T13:45:00	0.1971	12.606	181.6	0.456017260	0.537858993	0.007369102	0.076025672	0.023431850
2019-09-14T13:50:00	0.1985	12.623	181.7	0.460672267	0.544142933	0.007505847	0.077436435	0.023866661
2019-09-14T13:55:00	0.1981	12.641	181.8	0.459417427	0.542447298	0.007468863	0.077054884	0.023749064
2019-09-14T14:00:00	0.1980	12.652	181.9	0.459205039	0.542160427	0.007462612	0.076990397	0.023729188
2019-09-14T14:05:00	0.1979	12.666	181.9	0.458645012	0.541404172	0.007446143	0.076820482	0.023676819
2019-09-14T14:10:00	0.1982	12.677	194.6	0.459822953	0.542995140	0.007480805	0.077178089	0.023787036
2019-09-14T14:15:00	0.1972	12.687	182.1	0.456133348	0.538015496	0.007372498	0.076060699	0.023442646
2019-09-14T14:20:00	0.1938	12.697	182.2	0.444419492	0.522277162	0.007033774	0.072566150	0.022365592
2019-09-14T14:25:00	0.1968	12.704	194.8	0.455012175	0.536504445	0.007339739	0.075722739	0.023338484
2019-09-14T14:30:00	0.1954	12.704	194.8	0.449923374	0.529658525	0.007191955	0.074198077	0.022868568
2019-09-14T14:35:00	0.1936	12.707	194.9	0.443779433	0.521420313	0.007015490	0.072377521	0.022307455
2019-09-14T14:40:00	0.1934	12.708	182.3	0.442867558	0.520200138	0.006989482	0.072109202	0.022224756
2019-09-14T14:45:00	0.1949	12.708	195.0	0.448238358	0.527396185	0.007143345	0.073696576	0.022714000
2019-09-14T14:50:00	0.1950	12.706	195.0	0.448722681	0.528046219	0.007157301	0.073840551	0.022758375
2019-09-14T14:55:00	0.1932	12.702	195.0	0.442227202	0.519343672	0.006971247	0.071921068	0.022166772
2019-09-14T15:00:00	0.1951	12.697	195.0	0.448993900	0.528410316	0.007165121	0.073921237	0.022783243
2019-09-14T15:05:00	0.1935	12.691	194.9	0.443546751	0.521108900	0.007008849	0.072309008	0.022286339
2019-09-14T15:10:00	0.1936	12.683	182.4	0.443682573	0.521290674	0.007012726	0.072348997	0.022298664
2019-09-14T15:15:00	0.1924	12.675	194.9	0.439950658	0.515868040	0.006900807	0.071194359	0.021942793
2019-09-14T15:20:00	0.1937	12.667	194.9	0.443954201	0.521654243	0.007020480	0.072429002	0.022323322
2019-09-14T15:25:00	0.1922	12.657	182.3	0.439346851	0.514831834	0.006880643	0.070986329	0.021878676
2019-09-14T15:30:00	0.1927	12.648	182.3	0.440810798	0.517345908	0.006929594	0.071491347	0.022034327
2019-09-14T15:35:00	0.1933	12.637	182.2	0.442615506	0.519862983	0.006982302	0.072035121	0.022201924
2019-09-14T15:40:00	0.1937	12.627	182.2	0.444148258	0.521914021	0.007026023	0.072486186	0.022340947
2019-09-14T15:45:00	0.1935	12.615	182.1	0.443236484	0.520693716	0.006999999	0.072217699	0.022258196
2019-09-14T15:50:00	0.1946	12.603	182.1	0.447211659	0.526018812	0.007113806	0.073391821	0.022620072
2019-09-14T15:55:00	0.1953	12.590	182.1	0.449788160	0.529476901	0.007188049	0.074157773	0.022856146
2019-09-14T16:00:00	0.1946	12.577	182.0	0.447134179	0.525914903	0.007111579	0.073368848	0.022612992
2019-09-14T16:05:00	0.1956	12.562	181.9	0.450858076	0.530914440	0.007218990	0.074476985	0.022954530
2019-09-14T16:10:00	0.1969	12.546	181.9	0.455273900	0.536857093	0.007347380	0.075801566	0.023362779
2019-09-14T16:15:00	0.1982	12.532	181.8	0.459683925	0.542807307	0.007476710	0.077135839	0.023774015
2019-09-14T16:20:00	0.1989	12.516	181.8	0.462352316	0.546415094	0.007555503	0.077948727	0.024024555
2019-09-14T16:25:00	0.1994	12.498	181.7	0.463977473	0.548615142	0.007603689	0.078445861	0.024177776
2019-09-14T16:30:00	0.1990	12.482	181.6	0.462478058	0.546585241	0.007559225	0.077987135	0.024036393
2019-09-14T16:35:00	0.1996	12.465	181.6	0.464797245	0.549725698	0.007628053	0.078697218	0.024255247
2019-09-14T16:40:00	0.2000	12.447	181.5	0.466074362	0.551456888	0.007666086	0.079089595	0.024376181
2019-09-14T16:45:00	0.1983	12.430	181.4	0.460061436	0.543317377	0.007487833	0.077250588	0.023809381
2019-09-14T16:50:00	0.1979	12.410	181.4	0.458560275	0.541289766	0.007443652	0.076794788	0.023668900
2019-09-14T16:55:00	0.1965	12.392	181.3	0.453926708	0.535042461	0.007308093	0.075396245	0.023237855
2019-09-14T17:00:00	0.1964	12.371	181.2	0.453467507	0.534424257	0.007294725	0.075258332	0.023195349
2019-09-14T17:05:00	0.1975	12.352	181.1	0.457184383	0.539432921	0.007403272	0.076378188	0.023540499
2019-09-14T17:10:00	0.1988	12.334	181.0	0.461939227	0.545856210	0.007543278	0.077822611	0.023985684
2019-09-14T17:15:00	0.1990	12.316	181.0	0.462523013	0.546646074	0.007560557	0.078000869	0.024040625
2019-09-14T17:20:00	0.1992	12.298	180.9	0.463106697	0.547436072	0.007577852	0.078179298	0.024095619
2019-09-14T17:25:00	0.1999	12.278	180.8	0.465772377	0.551047417	0.007657084	0.078996728	0.024347559
2019-09-14T17:30:00	0.1994	12.259	180.7	0.463926680	0.548546350	0.007602181	0.078430300	0.024172980
2019-09-14T17:35:00	0.1976	12.236	180.6	0.457562174	0.539942623	0.007414349	0.076492467	0.023575721
2019-09-14T17:40:00	0.2039	12.217	180.6	0.479635211	0.569919146	0.008075683	0.083315332	0.025678595
2019-09-14T17:45:00	0.2033	12.194	180.5	0.477451382	0.566936112	0.008009011	0.082627485	0.025466593
2019-09-14T17:50:00	0.2032	12.171	180.4	0.476995375	0.566313703	0.007995123	0.082484212	0.025422435
2019-09-14T17:55:00	0.2030	12.146	180.2	0.476539307	0.565691375	0.007981246	0.082341041	0.025378309
2019-09-14T18:00:00	0.2055	12.123	180.2	0.485063397	0.577350340	0.008242591	0.085037289	0.026209318
2019-09-14T18:05:00	0.2055	12.101	180.1	0.484953378	0.577199490	0.008239191	0.085002215	0.026198508
2019-09-14T18:10:00	0.2050	12.076	180.0	0.483463242	0.575157280	0.008193213	0.084527866	0.026052309
2019-09-14T18:15:00	0.2057	12.050	179.8	0.485768080	0.578316779	0.008264383	0.085262112	0.026278611
2019-09-14T18:20:00	0.2075	12.027	179.8	0.491860177	0.586688353	0.008453967	0.087218019	0.026881441
2019-09-14T18:25:00	0.2052	11.999	192.0	0.484168258	0.576123273	0.008214950	0.084752127	0.026121429
2019-09-14T18:30:00	0.2082	11.974	179.5	0.494393612	0.590178475	0.008533435	0.088037881	0.027134130
2019-09-14T18:35:00	0.2065	11.952	179.4	0.488430838	0.581972205	0.008346984	0.086114300	0.026541263
2019-09-14T18:40:00	0.2081	11.930	179.3	0.493830145	0.589401783	0.008515729	0.087855203	0.027077827
2019-09-14T18:45:00	0.2075	11.907	179.2	0.491999682	0.586880405	0.008458333	0.087263066	0.026895325
2019-09-14T18:50:00	0.2093	11.882	179.1	0.498080639	0.595267015	0.008649750	0.089237878	0.027503981
2019-09-14T18:55:00	0.2099	11.858	179.0	0.500032193	0.597964814	0.008711633	0.089876314	0.027700753
2019-09-14T19:00:00	0.2106	11.836	178.9	0.502669014	0.601614779	0.008795595	0.090742530	0.027967729
2019-09-14T19:05:00	0.2111	11.810	191.2	0.504274969	0.603840533	0.008846928	0.091272129	0.028130957
2019-09-14T19:10:00	0.2128	11.786	191.0	0.509991706	0.611780441	0.009030871	0.093169831	0.028715847
2019-09-14T19:15:00	0.2118	11.762	178.6	0.506799202	0.607343161	0.008927915	0.092107658	0.028388475
2019-09-14T19:20:00	0.2092	11.739	178.5	0.497766663	0.594833264	0.008639815	0.089135375	0.027472388
2019-09-14T19:25:00	0.2102	11.716	190.7	0.501091933	0.599431065	0.008745329	0.090223949	0.027807897
2019-09-14T19:30:00	0.2099	11.693	190.6	0.500295710	0.598329330	0.008720006	0.089962695	0.027727376
2019-09-14T19:35:00	0.2125	11.669	190.5	0.509103093	0.610544526	0.009002155	0.092873571	0.028624537
2019-09-14T19:40:00	0.2112	11.646	190.4	0.504538159	0.604205495	0.008855355	0.091359068	0.028157752
2019-09-14T19:45:00	0.2113	11.623	178.0	0.505114658	0.605005116	0.008873828	0.091549647	0.028216490
2019-09-14T19:50:00	0.2110	11.601	177.9	0.503976365	0.603426529	0.008837372	0.091173542	0.028100571
2019-09-14T19:55:00	0.2126	11.578	177.8	0.509351132	0.610889443	0.009010166	0.092956219	0.028650009
2019-09-14T20:00:00	0.2136	11.554	177.7	0.513007293	0.615979381	0.009128663	0.094178734	0.029026800
2019-09-14T20:05:00	0.2119	11.533	177.6	0.507076987	0.607728929	0.008936850	0.092199838	0.028416885
2019-09-14T20:10:00	0.2143	11.513	177.5	0.515183211	0.619013720	0.009199553	0.094910091	0.029252212
2019-09-14T20:15:00	0.2123	11.493	177.4	0.508571614	0.609805631	0.008985001	0.092696603	0.028569993
2019-09-14T20:20:00	0.2128	11.471	177.3	0.510174800	0.612035174	0.009036794	0.093230933	0.028734679
2019-09-14T20:25:00	0.2129	11.448	177.2	0.510407986	0.612359638	0.009044339	0.093308780	0.028758672
2019-09-14T20:30:00	0.2125	11.424	177.1	0.508928942	0.610302387	0.008996532	0.092815565	0.028606659
2019-09-14T20:35:00	0.2127	11.404	177.0	0.509847156	0.611579352	0.009026197	0.093121607	0.028700984
2019-09-14T20:40:00	0.2141	11.383	176.9	0.514528849	0.618100804	0.009178205	0.094689853	0.029184332
2019-09-14T20:45:00	0.2124	11.361	176.8	0.508601179	0.609846729	0.008985955	0.092706443	0.028573026
2019-09-14T20:50:00	0.2109	11.340	176.7	0.503692539	0.603033081	0.008828294	0.091079882	0.028071704
2019-09-14T20:55:00	0.2101	11.316	176.6	0.500837500	0.599078950	0.008737233	0.090140424	0.027782154
2019-09-14T21:00:00	0.2112	11.293	176.5	0.504502770	0.604156419	0.008854222	0.091347376	0.028154148
2019-09-14T21:05:00	0.2117	11.270	176.4	0.506450658	0.606859215	0.008916711	0.091992063	0.028352847
2019-09-14T21:10:00	0.2102	11.246	176.3	0.501195638	0.599574599	0.008748630	0.090258004	0.027818393
2019-09-14T21:15:00	0.2099	11.226	176.2	0.500056037	0.597997794	0.008712391	0.089884128	0.027703161
2019-09-14T21:20:00	0.2109	11.206	176.1	0.503722146	0.603074121	0.008829241	0.091089650	0.028074715
2019-09-14T21:25:00	0.2107	11.184	188.1	0.502926537	0.601971550	0.008803816	0.090827351	0.027993872
2019-09-14T21:30:00	0.2120	11.164	175.9	0.507275025	0.608003988	0.008943223	0.092265582	0.028437149
2019-09-14T21:35:00	0.2113	11.140	175.8	0.505108871	0.604997088	0.008873642	0.091547733	0.028215900
2019-09-14T21:40:00	0.2127	11.120	187.8	0.509797045	0.611509645	0.009024576	0.093104892	0.028695832
2019-09-14T21:45:00	0.2127	11.100	175.6	0.509687822	0.611357716	0.009021046	0.093068464	0.028684605
2019-09-14T21:50:00	0.2092	11.078	187.6	0.497914956	0.595038117	0.008644507	0.089183781	0.027487307
2019-09-14T21:55:00	0.2107	11.058	187.5	0.502956151	0.602012581	0.008804762	0.090837107	0.027996879
2019-09-14T22:00:00	0.2116	11.033	187.3	0.505933561	0.606141418	0.008900101	0.091820700	0.028300031
2019-09-14T22:05:00	0.2116	11.014	187.3	0.505966761	0.606187497	0.008901167	0.091831697	0.028303421
2019-09-14T22:10:00	0.2089	10.994	187.1	0.496731196	0.593403355	0.008607088	0.088797744	0.027368327
2019-09-14T22:15:00	0.2109	10.974	187.0	0.503632584	0.602949979	0.008826377	0.091060104	0.028065608
2019-09-14T22:20:00	0.2098	10.955	187.0	0.499890100	0.597768282	0.008707120	0.089829753	0.027686402
2019-09-14T22:25:00	0.2073	10.935	186.9	0.491326707	0.585954088	0.008437280	0.087045866	0.026828381
2019-09-14T22:30:00	0.2096	10.916	186.7	0.499269688	0.596910373	0.008687428	0.089626597	0.027623787
2019-09-14T22:35:00	0.2076	10.896	186.7	0.492426116	0.587467557	0.008471687	0.087400836	0.026937786
2019-09-14T22:40:00	0.2092	10.878	174.6	0.497618325	0.594628366	0.008635123	0.089086968	0.027457469
2019-09-14T22:45:00	0.2092	10.859	174.5	0.497651605	0.594674335	0.008636175	0.089097827	0.027460816
2019-09-14T22:50:00	0.2103	10.842	174.4	0.501463031	0.599944728	0.008757144	0.090345842	0.027845466
2019-09-14T22:55:00	0.2084	10.826	174.3	0.494967816	0.590970228	0.008551498	0.088224232	0.027191565
2019-09-14T23:00:00	0.2096	10.809	174.2	0.499125773	0.596711411	0.008682864	0.089579504	0.027609273
2019-09-14T23:05:00	0.2082	10.790	174.2	0.494346508	0.590113535	0.008531955	0.088022602	0.027129421
2019-09-14T23:10:00	0.2071	10.771	174.1	0.490593805	0.584945697	0.008414382	0.086809629	0.026755571
2019-09-14T23:15:00	0.2072	10.754	174.0	0.490971508	0.585465320	0.008426179	0.086931335	0.026793082
2019-09-14T23:20:00	0.2079	10.738	173.9	0.493414332	0.588828784	0.008502674	0.087720517	0.027036315
2019-09-14T23:25:00	0.2068	10.721	173.8	0.489660601	0.583662334	0.008385271	0.086509291	0.026663004
2019-09-14T23:30:00	0.2062	10.703	173.8	0.487281841	0.580394170	0.008311291	0.085746060	0.026427768
2019-09-14T23:35:00	0.2084	10.688	173.7	0.494890334	0.590863375	0.008549060	0.088199075	0.027183811
2019-09-14T23:40:00	0.2085	10.672	173.6	0.495267561	0.591383642	0.008560935	0.088321589	0.027221572
2019-09-14T23:45:00	0.2076	10.656	173.5	0.492204368	0.587162216	0.008464742	0.087329181	0.026915702
2019-09-14T23:50:00	0.2077	10.641	173.4	0.492581892	0.587682080	0.008476568	0.087451190	0.026953306
2019-09-14T23:55:00	0.2068	10.625	173.4	0.489516279	0.583463922	0.008380773	0.086462889	0.026648702
2019-09-15T00:00:00	0.2083	10.609	185.2	0.494712925	0.590618733	0.008543478	0.088141486	0.027166062
2019-09-15T00:05:00	0.2069	10.594	185.1	0.489927457	0.584029250	0.008393590	0.086595122	0.026689458
2019-09-15T00:10:00	0.2072	10.578	185.0	0.490993973	0.585496229	0.008426881	0.086938576	0.026795313
2019-09-15T00:15:00	0.2088	10.561	184.9	0.496532156	0.593128593	0.008600805	0.088732917	0.027348347
2019-09-15T00:20:00	0.2075	10.548	184.8	0.492093488	0.587009553	0.008461270	0.087293363	0.026904662
2019-09-15T00:25:00	0.2085	10.532	184.8	0.495223389	0.591322715	0.008559544	0.088307239	0.027217149
2019-09-15T00:30:00	0.2091	10.516	184.7	0.497319488	0.594215640	0.008625674	0.088989488	0.027427425
2019-09-15T00:35:00	0.2071	10.500	172.8	0.490471991	0.584778135	0.008410579	0.086770396	0.026743479
2019-09-15T00:40:00	0.2093	10.484	172.7	0.498073361	0.595256959	0.008649520	0.089235502	0.027503248
2019-09-15T00:45:00	0.2082	10.470	184.5	0.494324767	0.590083564	0.008531271	0.088015551	0.027127247
2019-09-15T00:50:00	0.2094	10.458	172.5	0.498483508	0.595823683	0.008662507	0.089369488	0.027544544
2019-09-15T00:55:00	0.2079	10.445	172.4	0.493359263	0.588752909	0.008500946	0.087702688	0.027030820
2019-09-15T01:00:00	0.2068	10.432	172.4	0.489605471	0.583586541	0.008383552	0.086491565	0.026657540
2019-09-15T01:05:00	0.2079	10.420	172.3	0.493425907	0.588844733	0.008503037	0.087724265	0.027037470
2019-09-15T01:10:00	0.2097	10.409	172.3	0.499647130	0.597432266	0.008699406	0.089750164	0.027661872
2019-09-15T01:15:00	0.2095	10.399	172.2	0.498649864	0.596053586	0.008667777	0.089423862	0.027561303
2019-09-15T01:20:00	0.2088	10.389	172.2	0.496277382	0.592776940	0.008592765	0.088649972	0.027322782
2019-09-15T01:25:00	0.2079	10.379	172.2	0.493215098	0.588554285	0.008496422	0.087656020	0.027016437
2019-09-15T01:30:00	0.2064	10.372	172.1	0.488082909	0.581494247	0.008336168	0.086002710	0.026506870
2019-09-15T01:35:00	0.2070	10.364	172.1	0.490183409	0.584381226	0.008401574	0.086677486	0.026714843
2019-09-15T01:40:00	0.2061	10.357	172.0	0.487115631	0.580165984	0.008306134	0.085692856	0.026411370
2019-09-15T01:45:00	0.2092	10.353	183.8	0.497818702	0.594905150	0.008641461	0.089152360	0.027477623
2019-09-15T01:50:00	0.2064	10.349	172.0	0.488216402	0.581677618	0.008340317	0.086045516	0.026520064
2019-09-15T01:55:00	0.2071	10.343	171.9	0.490661205	0.585038413	0.008416487	0.086831341	0.026762263
2019-09-15T02:00:00	0.2071	10.335	171.9	0.490694554	0.585084289	0.008417528	0.086842085	0.026765574
2019-09-15T02:05:00	0.2081	10.330	171.9	0.493825741	0.589395714	0.008515590	0.087853777	0.027077387
2019-09-15T02:10:00	0.2078	10.323	171.8	0.492826769	0.588019346	0.008484243	0.087530374	0.026977711
2019-09-15T02:15:00	0.2090	10.316	171.7	0.496987338	0.593756989	0.008615178	0.088881204	0.027394050
2019-09-15T02:20:00	0.2099	10.309	171.7	0.500112748	0.598076237	0.008714192	0.089902715	0.027708890
2019-09-15T02:25:00	0.2095	10.305	171.6	0.498772087	0.596222511	0.008671651	0.089463821	0.027573618
2019-09-15T02:30:00	0.2095	10.300	171.6	0.498805356	0.596268495	0.008672705	0.089474699	0.027576971
2019-09-15T02:35:00	0.2114	10.296	171.6	0.505359686	0.605345057	0.008881685	0.091630708	0.028241474
2019-09-15T02:40:00	0.2109	10.293	171.6	0.503678046	0.603012992	0.008827831	0.091075101	0.028070231
2019-09-15T02:45:00	0.2102	10.289	171.6	0.501309060	0.599731592	0.008752241	0.090295258	0.027829875
2019-09-15T02:50:00	0.2099	10.283	171.5	0.500312279	0.598352252	0.008720533	0.089968128	0.027729051
2019-09-15T02:55:00	0.2106	10.278	171.5	0.502748418	0.601724780	0.008798129	0.090768680	0.027975789
2019-09-15T03:00:00	0.2105	10.275	171.5	0.502095289	0.600820136	0.008777292	0.090553705	0.027909531
2019-09-15T03:05:00	0.2089	10.272	171.5	0.496632729	0.593267423	0.008603980	0.088765671	0.027358442
2019-09-15T03:10:00	0.2095	10.268	171.4	0.498727961	0.596161523	0.008670252	0.089449393	0.027569172
2019-09-15T03:15:00	0.2104	10.265	171.4	0.501851777	0.600482937	0.008769529	0.090473619	0.027884848
2019-09-15T03:20:00	0.2097	10.261	171.4	0.499481523	0.597203265	0.008694149	0.089695937	0.027645159
2019-09-15T03:25:00	0.2092	10.261	171.3	0.497796984	0.594875148	0.008640774	0.089145271	0.027475438
2019-09-15T03:30:00	0.2085	10.261	171.4	0.495423908	0.591599308	0.008565859	0.088372392	0.027237229
2019-09-15T03:35:00	0.2073	10.259	171.4	0.491328111	0.585956020	0.008437324	0.087046318	0.026828521
2019-09-15T03:40:00	0.2087	10.258	171.3	0.496178201	0.592640059	0.008589636	0.088617692	0.027312833
2019-09-15T03:45:00	0.2111	10.258	171.3	0.504452892	0.604087250	0.008852625	0.091330897	0.028149070
2019-09-15T03:50:00	0.2102	10.257	171.3	0.501054643	0.599379454	0.008744142	0.090211705	0.027804124
2019-09-15T03:55:00	0.2111	10.257	171.3	0.504176331	0.603703766	0.008843771	0.091239557	0.028120917
2019-09-15T04:00:00	0.2114	10.255	171.3	0.505238398	0.605176781	0.008877795	0.091590578	0.028229106
2019-09-15T04:05:00	0.2110	10.256	171.3	0.504003017	0.603463479	0.008838225	0.091182339	0.028103282
2019-09-15T04:10:00	0.2114	10.258	171.3	0.505168372	0.605079633	0.008875550	0.091567414	0.028221966
2019-09-15T04:15:00	0.2125	10.259	171.3	0.509074540	0.610504825	0.009001233	0.092864059	0.028621605
2019-09-15T04:20:00	0.2109	10.258	171.2	0.503726420	0.603080045	0.008829378	0.091091060	0.028075149
2019-09-15T04:25:00	0.2121	10.259	171.2	0.507634235	0.608502984	0.008954788	0.092384893	0.028473921
2019-09-15T04:30:00	0.2107	10.259	171.3	0.502970181	0.602032020	0.008805210	0.090841730	0.027998303
2019-09-15T04:35:00	0.2101	10.261	171.2	0.500704073	0.598894319	0.008732989	0.090096639	0.027768659
2019-09-15T04:40:00	0.2114	10.263	171.2	0.505301198	0.605263909	0.008879809	0.091611355	0.028235509
2019-09-15T04:45:00	0.2113	10.266	171.3	0.505094734	0.604977476	0.008873189	0.091543057	0.028214459
2019-09-15T04:50:00	0.2118	10.271	171.3	0.506602495	0.607070026	0.008921591	0.092042411	0.028368365
2019-09-15T04:55:00	0.2122	10.275	171.2	0.508109592	0.609163485	0.008970103	0.092542900	0.028522620
2019-09-15T05:00:00	0.2136	10.281	171.3	0.512696778	0.615546677	0.009118569	0.094074596	0.028994704
2019-09-15T05:05:00	0.2124	10.286	171.3	0.508724793	0.610018566	0.008989944	0.092747590	0.028585708
2019-09-15T05:10:00	0.2121	10.289	171.3	0.507833327	0.608779597	0.008961201	0.092451054	0.028494313
2019-09-15T05:15:00	0.2114	10.295	171.3	0.505227562	0.605161748	0.008877448	0.091586994	0.028228001
2019-09-15T05:20:00	0.2134	10.302	171.3	0.512214848	0.614875259	0.009102914	0.093913085	0.028944925
2019-09-15T05:25:00	0.2123	10.309	171.4	0.508242303	0.609347917	0.008974381	0.092587037	0.028536224
2019-09-15T05:30:00	0.2126	10.314	183.2	0.509406215	0.610966047	0.009011945	0.092974578	0.028655668
2019-09-15T05:35:00	0.2111	10.321	171.5	0.504401614	0.604016142	0.008850983	0.091313958	0.028143849
2019-09-15T05:40:00	0.2128	10.327	171.4	0.510021182	0.611821448	0.009031824	0.093179667	0.028718878
2019-09-15T05:45:00	0.2134	10.334	171.2	0.512211244	0.614870238	0.009102797	0.093911877	0.028944553
2019-09-15T05:50:00	0.2139	10.340	171.5	0.514057907	0.617443995	0.009162857	0.094531507	0.029135528
2019-09-15T05:55:00	0.2119	10.347	171.5	0.507004398	0.607628117	0.008934515	0.092175746	0.028409460
2019-09-15T06:00:00	0.2127	10.355	171.5	0.509881326	0.611626886	0.009027301	0.093133005	0.028704497
2019-09-15T06:05:00	0.2125	10.362	171.5	0.508990162	0.610387503	0.008998509	0.092835954	0.028612943
2019-09-15T06:10:00	0.2137	10.369	171.5	0.513234088	0.616295469	0.009136039	0.094254830	0.029050254
2019-09-15T06:15:00	0.2114	10.376	171.6	0.505493202	0.605530313	0.008885968	0.091674894	0.028255093
2019-09-15T06:20:00	0.2122	10.384	171.6	0.508028799	0.609051211	0.008967499	0.092516035	0.028514340
2019-09-15T06:25:00	0.2128	10.392	171.7	0.510220135	0.612098252	0.009038260	0.093246065	0.028739343
2019-09-15T06:30:00	0.2125	10.402	171.7	0.508986554	0.610382487	0.008998392	0.092834752	0.028612572
2019-09-15T06:35:00	0.2136	10.412	171.7	0.512888368	0.615813650	0.009124796	0.094138843	0.029014506
2019-09-15T06:40:00	0.2138	10.424	171.7	0.513708668	0.616957037	0.009151483	0.094414167	0.029099363
2019-09-15T06:45:00	0.2131	10.435	171.8	0.511107373	0.613333054	0.009066989	0.093542459	0.028830694
2019-09-15T06:50:00	0.2141	10.448	171.9	0.514664836	0.618290494	0.009182640	0.094735601	0.029198432
2019-09-15T06:55:00	0.2139	10.462	171.9	0.513774916	0.617049402	0.009153640	0.094436419	0.029106222
2019-09-15T07:00:00	0.2117	10.477	171.9	0.506378056	0.606758422	0.008914378	0.091967993	0.028345429
2019-09-15T07:05:00	0.2129	10.494	172.1	0.510625220	0.612661944	0.009051371	0.093381330	0.028781033
2019-09-15T07:10:00	0.2133	10.512	172.2	0.511788321	0.614281186	0.009089070	0.093770257	0.028900904
2019-09-15T07:15:00	0.2120	10.530	172.2	0.507472624	0.608278470	0.008949584	0.092331205	0.028457374
2019-09-15T07:20:00	0.2137	10.551	172.3	0.513087155	0.616090682	0.009131260	0.094205526	0.029035058
2019-09-15T07:25:00	0.2123	10.573	172.4	0.508430535	0.609609532	0.008980451	0.092649656	0.028555524
2019-09-15T07:30:00	0.2121	10.596	172.5	0.507881643	0.608846731	0.008962757	0.092467114	0.028499262
2019-09-15T07:35:00	0.2116	10.622	184.5	0.505961635	0.606180383	0.008901002	0.091829999	0.028302898
2019-09-15T07:40:00	0.2123	10.654	184.6	0.508496885	0.609701756	0.008982591	0.092671734	0.028562328
2019-09-15T07:45:00	0.2116	10.691	172.9	0.505891625	0.606083214	0.008898754	0.091806809	0.028295750
2019-09-15T07:50:00	0.2132	10.731	173.1	0.511508748	0.613891870	0.009080001	0.093676697	0.028872068
2019-09-15T07:55:00	0.2127	10.773	173.3	0.509933220	0.611699077	0.009028980	0.093150318	0.028709833
2019-09-15T08:00:00	0.2125	10.815	185.4	0.509042069	0.610459676	0.009000184	0.092853243	0.028618271
2019-09-15T08:05:00	0.2109	10.858	185.7	0.503693899	0.603034966	0.008828338	0.091080331	0.028071843
2019-09-15T08:10:00	0.2117	10.903	173.9	0.506230830	0.606554039	0.008909648	0.091919193	0.028330388
2019-09-15T08:15:00	0.2106	10.952	174.1	0.502594505	0.601511565	0.008793217	0.090717997	0.027960168
2019-09-15T08:20:00	0.2123	11.001	186.3	0.508559625	0.609788966	0.008984615	0.092692613	0.028568764
2019-09-15T08:25:00	0.2106	11.045	186.5	0.502524426	0.601414491	0.008790980	0.090694925	0.027953057
2019-09-15T08:30:00	0.2126	11.089	186.7	0.509517231	0.611120445	0.009015532	0.093011584	0.028667074
2019-09-15T08:35:00	0.2120	11.134	186.9	0.507255462	0.607976816	0.008942593	0.092259087	0.028435147
2019-09-15T08:40:00	0.2108	11.181	187.2	0.503277150	0.602457374	0.008815016	0.090942896	0.028029484
2019-09-15T08:45:00	0.2111	11.236	187.4	0.504442753	0.604073190	0.008852300	0.091327548	0.028148037
2019-09-15T08:50:00	0.2123	11.283	187.6	0.508349749	0.609497248	0.008977846	0.092622778	0.028547240
2019-09-15T08:55:00	0.2125	11.345	187.8	0.509171136	0.610639141	0.009004352	0.092896240	0.028631523
2019-09-15T09:00:00	0.2141	11.416	176.2	0.514440925	0.617978165	0.009175339	0.094660280	0.029175218
2019-09-15T09:05:00	0.2134	11.496	176.5	0.512182407	0.614830070	0.009101861	0.093902218	0.028941575
2019-09-15T09:10:00	0.2121	11.565	176.8	0.507867207	0.608826672	0.008962292	0.092462315	0.028497783
2019-09-15T09:15:00	0.2112	11.630	177.1	0.504575606	0.604257427	0.008856555	0.091371441	0.028161566
2019-09-15T09:20:00	0.2122	11.678	177.3	0.508139860	0.609205548	0.008971079	0.092552965	0.028525723
2019-09-15T09:25:00	0.2117	11.728	177.6	0.506219997	0.606539001	0.008909300	0.091915603	0.028329282
2019-09-15T09:30:00	0.2117	11.787	177.8	0.506356392	0.606728346	0.008913682	0.091960812	0.028343215
2019-09-15T09:35:00	0.2106	11.839	178.0	0.502720201	0.601685690	0.008797229	0.090759387	0.027972924
2019-09-15T09:40:00	0.2099	11.886	178.2	0.500110531	0.598073171	0.008714122	0.089901989	0.027708666
2019-09-15T09:45:00	0.2103	11.923	178.4	0.501620494	0.600162717	0.008762160	0.090397587	0.027861414
2019-09-15T09:50:00	0.2092	11.963	191.0	0.497635607	0.594652238	0.008635669	0.089092607	0.027459207
2019-09-15T09:55:00	0.2099	11.999	191.1	0.500177043	0.598165173	0.008716235	0.089923791	0.027715386
2019-09-15T10:00:00	0.2090	12.040	191.3	0.497221738	0.594080653	0.008622584	0.088957614	0.027417601
2019-09-15T10:05:00	0.2082	12.073	179.1	0.494312572	0.590066752	0.008530888	0.088011595	0.027126028
2019-09-15T10:10:00	0.2091	12.109	191.7	0.497592556	0.594592775	0.008634308	0.089078560	0.027454877
2019-09-15T10:15:00	0.2086	12.142	191.8	0.495715434	0.592001492	0.008575045	0.088467158	0.027266437
2019-09-15T10:20:00	0.2082	12.178	179.7	0.494181305	0.589885797	0.008526762	0.087969028	0.027112909
2019-09-15T10:25:00	0.2062	12.219	179.9	0.487480057	0.580666324	0.008317443	0.085809529	0.026447330
2019-09-15T10:30:00	0.2058	12.257	180.0	0.485942207	0.578555646	0.008269772	0.085317711	0.026295747
2019-09-15T10:35:00	0.2064	12.289	180.2	0.488196574	0.581650380	0.008339701	0.086039157	0.026518104
2019-09-15T10:40:00	0.2050	12.324	180.4	0.483209558	0.574809786	0.008185398	0.084447243	0.026027460
2019-09-15T10:45:00	0.2036	12.362	180.5	0.478560813	0.568451081	0.008042847	0.082976574	0.025574186
2019-09-15T10:50:00	0.2050	12.400	180.7	0.483236803	0.574847105	0.008186237	0.084455900	0.026030129
2019-09-15T10:55:00	0.2065	12.440	193.3	0.488595579	0.582198547	0.008352108	0.086167161	0.026557556
2019-09-15T11:00:00	0.2064	12.479	181.1	0.488092277	0.581507115	0.008336459	0.086005713	0.026507796
2019-09-15T11:05:00	0.2047	12.525	181.3	0.482414768	0.573721424	0.008160939	0.084194898	0.025949685
2019-09-15T11:10:00	0.2042	12.567	181.5	0.480529240	0.571141454	0.008103057	0.083597741	0.025765636
2019-09-15T11:15:00	0.2052	12.611	181.7	0.484167593	0.576122363	0.008214930	0.084751916	0.026121364
2019-09-15T11:20:00	0.2037	12.652	181.9	0.478829093	0.568817574	0.008051040	0.083061099	0.025600237
2019-09-15T11:25:00	0.2038	12.693	182.1	0.479015513	0.569072274	0.008056736	0.083119858	0.025618347
2019-09-15T11:30:00	0.2034	12.734	182.2	0.477819510	0.567438696	0.008020230	0.082743238	0.025502270
2019-09-15T11:35:00	0.2052	12.766	182.4	0.483877030	0.575724193	0.008205967	0.084659454	0.026092866
2019-09-15T11:40:00	0.2027	12.800	182.6	0.475426235	0.564173228	0.007947427	0.081992139	0.025270773
2019-09-15T11:45:00	0.2036	12.827	182.7	0.478378908	0.568202616	0.008037295	0.082919287	0.025556529
2019-09-15T11:50:00	0.2029	12.855	182.8	0.476145304	0.565153872	0.007969267	0.082217454	0.025340218
2019-09-15T11:55:00	0.2025	12.884	183.0	0.474602301	0.563050079	0.007922439	0.081734340	0.025191317
2019-09-15T12:00:00	0.2010	12.916	183.2	0.469595208	0.556236252	0.007771420	0.080176305	0.024711116
2019-09-15T12:05:00	0.2015	12.947	183.3	0.471167842	0.558374201	0.007818698	0.080664061	0.024861447
2019-09-15T12:10:00	0.2037	12.975	183.5	0.478965494	0.569003932	0.008055207	0.083104090	0.025613488
2019-09-15T12:15:00	0.2006	13.000	196.2	0.468076577	0.554173583	0.007725900	0.079706683	0.024566374
2019-09-15T12:20:00	0.2009	13.023	196.4	0.469303390	0.555839751	0.007762663	0.080085958	0.024683270
2019-09-15T12:25:00	0.2002	13.046	196.5	0.466716982	0.552328477	0.007685258	0.079287395	0.024437145
2019-09-15T12:30:00	0.2011	13.067	196.6	0.469677273	0.556347769	0.007773883	0.080201722	0.024718950
2019-09-15T12:35:00	0.1998	13.085	196.7	0.465356839	0.550484094	0.007644707	0.078869028	0.024308200
2019-09-15T12:40:00	0.1971	13.102	196.7	0.455815849	0.537587489	0.007363214	0.075964919	0.023413126
2019-09-15T12:45:00	0.1962	13.118	196.9	0.452870826	0.533621218	0.007277373	0.075079314	0.023140174
2019-09-15T12:50:00	0.1974	13.129	196.9	0.456886957	0.539031724	0.007394557	0.076288278	0.023512788
2019-09-15T12:55:00	0.1973	13.138	197.0	0.456726770	0.538815677	0.007389865	0.076239876	0.023497870
2019-09-15T13:00:00	0.1969	13.147	197.0	0.455174849	0.536723626	0.007344488	0.075771729	0.023353583
2019-09-15T13:05:00	0.1986	13.155	197.1	0.461273111	0.544955281	0.007523587	0.077619458	0.023923071
2019-09-15T13:10:00	0.1969	13.164	197.1	0.455202322	0.536760644	0.007345290	0.075780004	0.023356133
2019-09-15T13:15:00	0.1968	13.175	197.2	0.455042054	0.536544701	0.007340612	0.075731736	0.023341257
2019-09-15T13:20:00	0.1944	13.189	197.3	0.446518548	0.525089435	0.007093898	0.073186435	0.022556770
2019-09-15T13:25:00	0.1952	13.196	197.3	0.449148060	0.528617294	0.007169569	0.073967118	0.022797384
2019-09-15T13:30:00	0.1939	13.202	197.4	0.444801136	0.522788223	0.007044687	0.072678736	0.022400292
2019-09-15T13:35:00	0.1954	13.212	197.4	0.449872763	0.529590541	0.007190493	0.074182990	0.022863918
2019-09-15T13:40:00	0.1934	13.227	197.5	0.443082842	0.520488149	0.006995618	0.072172505	0.022244267
2019-09-15T13:45:00	0.1911	13.242	197.5	0.436260807	0.509551723	0.006778148	0.069928904	0.021552767
2019-09-15T13:50:00	0.1922	13.254	197.7	0.439399796	0.514922652	0.006882410	0.071004555	0.021884293
2019-09-15T13:55:00	0.1928	13.266	197.7	0.440904568	0.517507148	0.006932737	0.071523770	0.022044320
2019-09-15T14:00:00	0.1925	13.280	197.9	0.440236343	0.516358667	0.006910361	0.071292916	0.021973169
2019-09-15T14:05:00	0.1935	13.299	198.0	0.443326395	0.520814023	0.007002563	0.072244154	0.022266350
2019-09-15T14:10:00	0.1914	13.319	198.1	0.437267212	0.511270720	0.006811470	0.070272679	0.021658722
2019-09-15T14:15:00	0.1941	13.340	185.5	0.445448708	0.523655651	0.007063223	0.072869968	0.022459232
2019-09-15T14:20:00	0.1926	13.358	198.3	0.440550833	0.516899026	0.006920886	0.071401507	0.022006638
2019-09-15T14:25:00	0.1912	13.373	198.5	0.436619025	0.510163256	0.006789997	0.070051148	0.021590444
2019-09-15T14:30:00	0.1908	13.385	198.5	0.435404343	0.508091059	0.006749869	0.069637158	0.021462848
2019-09-15T14:35:00	0.1920	13.397	198.7	0.438816822	0.513923078	0.006862973	0.070804025	0.021822488
2019-09-15T14:40:00	0.1908	13.409	198.7	0.435425849	0.508127711	0.006750579	0.069644474	0.021465103
2019-09-15T14:45:00	0.1920	13.418	186.0	0.438838284	0.513959860	0.006863688	0.070811401	0.021824761
2019-09-15T14:50:00	0.1914	13.428	198.9	0.437081015	0.510952472	0.006805297	0.070208999	0.021639095
2019-09-15T14:55:00	0.1919	13.435	199.0	0.438587869	0.513530773	0.006855348	0.070725365	0.021798244
2019-09-15T15:00:00	0.1922	13.440	186.2	0.439278206	0.514714094	0.006878353	0.070962702	0.021871394
2019-09-15T15:05:00	0.1924	13.443	186.2	0.439968259	0.515898261	0.006901396	0.071200428	0.021944664
2019-09-15T15:10:00	0.1899	13.442	199.0	0.433036927	0.504064178	0.006672078	0.068834596	0.021215491
2019-09-15T15:15:00	0.1899	13.438	199.1	0.433184091	0.504314043	0.006676897	0.068884320	0.021230816
2019-09-15T15:20:00	0.1888	13.433	186.3	0.430054915	0.499014116	0.006574874	0.067831760	0.020906407
2019-09-15T15:25:00	0.1905	13.427	186.3	0.434841487	0.507132247	0.006731324	0.069445832	0.021403880
2019-09-15T15:30:00	0.1906	13.420	199.1	0.434988492	0.507382581	0.006736165	0.069495771	0.021419272
2019-09-15T15:35:00	0.1896	13.413	199.0	0.432135703	0.502535337	0.006642609	0.068530571	0.021121788
2019-09-15T15:40:00	0.1915	13.408	199.1	0.437460537	0.511601255	0.006817882	0.070338834	0.021679112
2019-09-15T15:45:00	0.1921	13.402	199.1	0.438967049	0.514180568	0.006867978	0.070855666	0.021838404
2019-09-15T15:50:00	0.1903	13.395	199.1	0.434213878	0.506064171	0.006710683	0.069232875	0.021338245
2019-09-15T15:55:00	0.1895	13.389	186.2	0.431905829	0.502145740	0.006635105	0.068453155	0.021097927
2019-09-15T16:00:00	0.1896	13.381	199.1	0.432326039	0.502858037	0.006648826	0.068594712	0.021141556
2019-09-15T16:05:00	0.1907	13.373	186.2	0.435209761	0.507759494	0.006743455	0.069570979	0.021442451
2019-09-15T16:10:00	0.1883	13.365	199.0	0.428815397	0.496922262	0.006534725	0.067417557	0.020778746
2019-09-15T16:15:00	0.1896	13.356	199.0	0.432251200	0.502731140	0.006646381	0.068569488	0.021133782
2019-09-15T16:20:00	0.1893	13.347	199.0	0.431316205	0.501147100	0.006615881	0.068254829	0.021036801
2019-09-15T16:25:00	0.1875	13.337	198.9	0.426550805	0.493111480	0.006461762	0.066664803	0.020546740
2019-09-15T16:30:00	0.1876	13.328	186.1	0.426708352	0.493376133	0.006466822	0.066717005	0.020562829
2019-09-15T16:35:00	0.1880	13.317	186.1	0.427960835	0.495482559	0.006507133	0.067132894	0.020691010
2019-09-15T16:40:00	0.1877	13.306	198.9	0.427023400	0.493905571	0.006476947	0.066821469	0.020595026
2019-09-15T16:45:00	0.1870	13.295	186.0	0.425263342	0.490951324	0.006420503	0.066239144	0.020415548
2019-09-15T16:50:00	0.1853	13.286	198.8	0.420480238	0.482966269	0.006268628	0.064672280	0.019932625
2019-09-15T16:55:00	0.1854	13.275	186.0	0.420638374	0.483229253	0.006273614	0.064723718	0.019948478
2019-09-15T17:00:00	0.1874	13.264	185.9	0.426284253	0.492663871	0.006453206	0.066576540	0.020519536
2019-09-15T17:05:00	0.1859	13.251	185.9	0.422053526	0.485585775	0.006318339	0.065185143	0.020090694
2019-09-15T17:10:00	0.1861	13.237	198.7	0.422760640	0.486765340	0.006340760	0.065416453	0.020161986
2019-09-15T17:15:00	0.1867	13.225	185.8	0.424290438	0.489321996	0.006389431	0.065918586	0.020316748
2019-09-15T17:20:00	0.1871	13.212	198.6	0.425544773	0.491423127	0.006429508	0.066332049	0.020444182
2019-09-15T17:25:00	0.1869	13.200	198.6	0.424880137	0.490309256	0.006408254	0.066112770	0.020376598
2019-09-15T17:30:00	0.1863	13.188	198.5	0.423117765	0.487361601	0.006352102	0.065533464	0.020198050
2019-09-15T17:35:00	0.1866	13.175	198.4	0.424098732	0.489001256	0.006383320	0.065855533	0.020297315
2019-09-15T17:40:00	0.1874	13.161	198.4	0.426175256	0.492480894	0.006449710	0.066540468	0.020508419
2019-09-15T17:45:00	0.1878	13.147	198.4	0.427428146	0.494586152	0.006489970	0.066955821	0.020636434
2019-09-15T17:50:00	0.1863	13.134	198.3	0.423200390	0.487499603	0.006354728	0.065560554	0.020206400
2019-09-15T17:55:00	0.1882	13.119	198.2	0.428563899	0.496498346	0.006526598	0.067333704	0.020752902
2019-09-15T18:00:00	0.1903	13.106	198.2	0.434182599	0.506010969	0.006709655	0.069222273	0.021334977
2019-09-15T18:05:00	0.1896	13.091	198.1	0.432157251	0.502571865	0.006643313	0.068537831	0.021124025
2019-09-15T18:10:00	0.1920	13.076	198.1	0.438851586	0.513982658	0.006864131	0.070815973	0.021826171
2019-09-15T18:15:00	0.1931	13.061	198.0	0.441908185	0.518917112	0.006962171	0.071827431	0.022137912
2019-09-15T18:20:00	0.1905	13.046	197.9	0.434809788	0.507078275	0.006730281	0.069435067	0.021400562
2019-09-15T18:25:00	0.1901	13.030	197.9	0.433603545	0.505026551	0.006690646	0.069026164	0.021274534
2019-09-15T18:30:00	0.1911	13.015	197.9	0.436485053	0.509934503	0.006785564	0.070005414	0.021576348
2019-09-15T18:35:00	0.1911	12.999	197.8	0.436369419	0.509737101	0.006781739	0.069965954	0.021564187
2019-09-15T18:40:00	0.1903	12.982	197.7	0.434074123	0.505826484	0.006706091	0.069185509	0.021323646
2019-09-15T18:45:00	0.1903	12.965	197.6	0.434230953	0.506093215	0.006711244	0.069238664	0.021340029
2019-09-15T18:50:00	0.1920	12.949	197.6	0.438743412	0.513797277	0.006860528	0.070778798	0.021814713
2019-09-15T18:55:00	0.1908	12.932	197.6	0.435634443	0.508483283	0.006757460	0.069715465	0.021486984
2019-09-15T19:00:00	0.1908	12.915	197.5	0.435518749	0.508286055	0.006753643	0.069676086	0.021474846
2019-09-15T19:05:00	0.1900	12.898	197.4	0.433222278	0.504378890	0.006678148	0.068897226	0.021234794
2019-09-15T19:10:00	0.1929	12.877	197.3	0.441323928	0.518136104	0.006945563	0.071656097	0.022085105
2019-09-15T19:15:00	0.1920	12.859	197.2	0.438709786	0.513739657	0.006859408	0.070767244	0.021811152
2019-09-15T19:20:00	0.1937	12.839	197.1	0.444170878	0.521944303	0.007026669	0.072492853	0.022343001
2019-09-15T19:25:00	0.1925	12.820	197.0	0.440109522	0.516140839	0.006906119	0.071249154	0.021959681
2019-09-15T19:30:00	0.1936	12.801	196.9	0.443874273	0.521547255	0.007018198	0.072405456	0.022316065
2019-09-15T19:35:00	0.1950	12.781	196.8	0.448611115	0.527896464	0.007154085	0.073807374	0.022748149
2019-09-15T19:40:00	0.1950	12.763	196.8	0.448463012	0.527697682	0.007149817	0.073763342	0.022734578
2019-09-15T19:45:00	0.1926	12.743	184.0	0.440462919	0.516747943	0.006917943	0.071371140	0.021997279
2019-09-15T19:50:00	0.1936	12.722	183.9	0.443630207	0.521220589	0.007011231	0.072333578	0.022293911
2019-09-15T19:55:00	0.1926	12.703	196.5	0.440503800	0.516818197	0.006919311	0.071385260	0.022001631
2019-09-15T20:00:00	0.1945	12.684	183.7	0.446824086	0.525499077	0.007102670	0.073276939	0.022584664
2019-09-15T20:05:00	0.1923	12.666	183.6	0.439729738	0.515488796	0.006893426	0.071118202	0.021919320
2019-09-15T20:10:00	0.1913	12.646	183.5	0.436894798	0.510634286	0.006799128	0.070145347	0.021619477
2019-09-15T20:15:00	0.1928	12.627	183.5	0.440857115	0.517425548	0.006931147	0.071507361	0.022039263
2019-09-15T20:20:00	0.1924	12.607	183.4	0.439926933	0.515827306	0.006900015	0.071186178	0.021940271
2019-09-15T20:25:00	0.1911	12.587	183.3	0.436275703	0.509577144	0.006778640	0.069933984	0.021554333
2019-09-15T20:30:00	0.1914	12.566	183.2	0.437248874	0.511239372	0.006810862	0.070266405	0.021656789
2019-09-15T20:35:00	0.1925	12.546	183.1	0.440124106	0.516165887	0.006906606	0.071254186	0.021961232
2019-09-15T20:40:00	0.1939	12.526	183.0	0.444940386	0.522974722	0.007048671	0.072719837	0.022412960
2019-09-15T20:45:00	0.1929	12.505	182.9	0.441299468	0.518103413	0.006944869	0.071648929	0.022082896
2019-09-15T20:50:00	0.1924	12.484	182.8	0.439777931	0.515571515	0.006895036	0.071134811	0.021924440
2019-09-15T20:55:00	0.1919	12.461	182.7	0.438575273	0.513509194	0.006854929	0.070721039	0.021796911
2019-09-15T21:00:00	0.1927	12.438	182.6	0.440633730	0.517041506	0.006923662	0.071430147	0.022015465
2019-09-15T21:05:00	0.1932	12.416	182.5	0.442452815	0.519645388	0.006977669	0.071987324	0.022187192
2019-09-15T21:10:00	0.1940	12.395	182.4	0.445098015	0.523185854	0.007053182	0.072766375	0.022427304
2019-09-15T21:15:00	0.1916	12.373	182.3	0.437841266	0.512252506	0.006830521	0.070469231	0.021719301
2019-09-15T21:20:00	0.1912	12.350	182.2	0.436637216	0.510194320	0.006790599	0.070057360	0.021592359
2019-09-15T21:25:00	0.1914	12.327	182.1	0.437065973	0.510926767	0.006804799	0.070203856	0.021637510
2019-09-15T21:30:00	0.1908	12.304	182.0	0.435588999	0.508405809	0.006755960	0.069699996	0.021482216
2019-09-15T21:35:00	0.1935	12.281	181.9	0.443309109	0.520790893	0.007002070	0.072239067	0.022264782
2019-09-15T21:40:00	0.1909	12.261	181.8	0.435902358	0.508940154	0.006766304	0.069806711	0.021515106
2019-09-15T21:45:00	0.1919	12.242	181.7	0.438508012	0.513393975	0.006852690	0.070697942	0.021789792
2019-09-15T21:50:00	0.1934	12.221	181.6	0.443213343	0.520662754	0.006999339	0.072210892	0.022256098
2019-09-15T21:55:00	0.1940	12.200	181.5	0.445159925	0.523268784	0.007054954	0.072784658	0.022432939
2019-09-15T22:00:00	0.1934	12.176	193.9	0.442916653	0.520265815	0.006990881	0.072123635	0.022229205
2019-09-15T22:05:00	0.1945	12.156	181.3	0.446858424	0.525545119	0.007103656	0.073287114	0.022587800
2019-09-15T22:10:00	0.1941	12.133	181.2	0.445564609	0.523810937	0.007066543	0.072904220	0.022469789
2019-09-15T22:15:00	0.1938	12.112	181.1	0.444270294	0.522077401	0.007029510	0.072522159	0.022352034
2019-09-15T22:20:00	0.1932	12.091	181.0	0.442276860	0.519410078	0.006972660	0.071935648	0.022171265
2019-09-15T22:25:00	0.1938	12.069	180.9	0.444474258	0.522350492	0.007035339	0.072582301	0.022370570
2019-09-15T22:30:00	0.1935	12.049	193.3	0.443528755	0.521084816	0.007008336	0.072303710	0.022284706
2019-09-15T22:35:00	0.1946	12.028	180.7	0.447120983	0.525897205	0.007111200	0.073364936	0.022611786
2019-09-15T22:40:00	0.1944	12.009	180.6	0.446525147	0.525098282	0.007094087	0.073188390	0.022557372
2019-09-15T22:45:00	0.1944	11.989	180.5	0.446627062	0.525234914	0.007097013	0.073218572	0.022566675
2019-09-15T22:50:00	0.1937	11.968	192.9	0.443936760	0.521630897	0.007019982	0.072423864	0.022321738
2019-09-15T22:55:00	0.1944	11.945	192.7	0.446481994	0.525040430	0.007092849	0.073175611	0.022553434
2019-09-15T23:00:00	0.1950	11.926	180.2	0.448676633	0.527984408	0.007155973	0.073826857	0.022754154
2019-09-15T23:05:00	0.1931	11.907	192.6	0.442147233	0.519236737	0.006968971	0.071897590	0.022159535
2019-09-15T23:10:00	0.1929	11.886	192.5	0.441201071	0.517971910	0.006942074	0.071620095	0.022074009
2019-09-15T23:15:00	0.1909	11.866	192.4	0.435815927	0.508792742	0.006763450	0.069777266	0.021506031
2019-09-15T23:20:00	0.1912	11.844	192.3	0.436712291	0.510322533	0.006793084	0.070082997	0.021600260
2019-09-15T23:25:00	0.1919	11.825	192.1	0.438424148	0.513250332	0.006849899	0.070669149	0.021780918
2019-09-15T23:30:00	0.1903	11.804	192.1	0.434147306	0.505950942	0.006708495	0.069210310	0.021331290
2019-09-15T23:35:00	0.1916	11.785	191.9	0.437767106	0.512125620	0.006828058	0.070443820	0.021711469
2019-09-15T23:40:00	0.1915	11.763	191.8	0.437574525	0.511796192	0.006821665	0.070377859	0.021691140
2019-09-15T23:45:00	0.1905	11.748	179.4	0.434658755	0.506821156	0.006725310	0.069383787	0.021384757
2019-09-15T23:50:00	0.1923	11.733	179.3	0.439636640	0.515329020	0.006890316	0.071086124	0.021909434
2019-09-15T23:55:00	0.1905	11.716	179.2	0.434817967	0.507092201	0.006730550	0.069437845	0.021401418
2019-09-16T00:00:00	0.1924	11.700	179.2	0.439795380	0.515601466	0.006895619	0.071140825	0.021926293
2019-09-16T00:05:00	0.1910	11.684	179.1	0.436066757	0.509220599	0.006771735	0.069862737	0.021532374
2019-09-16T00:10:00	0.1909	11.667	179.0	0.435873980	0.508891752	0.006765367	0.069797042	0.021512126
2019-09-16T00:15:00	0.1904	11.653	178.9	0.434318763	0.506242591	0.006714130	0.069268437	0.021349205
2019-09-16T00:20:00	0.1919	11.641	178.9	0.438482111	0.513349610	0.006851828	0.070689048	0.021787051
2019-09-16T00:25:00	0.1917	11.626	178.8	0.438017643	0.512554343	0.006836382	0.070529689	0.021737935
2019-09-16T00:30:00	0.1904	11.613	178.7	0.434557626	0.506649031	0.006721983	0.069349465	0.021374178
2019-09-16T00:35:00	0.1908	11.601	178.7	0.435454667	0.508176827	0.006751529	0.069654279	0.021468125
2019-09-16T00:40:00	0.1913	11.589	178.6	0.436895661	0.510635761	0.006799156	0.070145642	0.021619568
2019-09-16T00:45:00	0.1907	11.577	178.6	0.435341398	0.507983790	0.006747794	0.069615745	0.021456249
2019-09-16T00:50:00	0.1903	11.563	178.5	0.434058343	0.505799650	0.006705573	0.069180162	0.021321998
2019-09-16T00:55:00	0.1912	11.551	178.4	0.436589796	0.510113343	0.006789030	0.070041169	0.021587368
2019-09-16T01:00:00	0.1921	11.538	178.3	0.439117416	0.514438362	0.006872991	0.070907379	0.021854343
2019-09-16T01:05:00	0.1928	11.527	178.3	0.441102672	0.517840410	0.006939279	0.071591266	0.022065123
2019-09-16T01:10:00	0.1934	11.515	178.2	0.442951585	0.520312546	0.006991877	0.072133906	0.022232370
2019-09-16T01:15:00	0.1950	11.503	178.2	0.448637180	0.527931451	0.007154836	0.073815124	0.022750538
2019-09-16T01:20:00	0.1959	11.491	178.1	0.451875610	0.532282436	0.007248476	0.074781192	0.023048290
2019-09-16T01:25:00	0.1974	11.481	178.1	0.456850516	0.538982573	0.007393489	0.076277266	0.023509394
2019-09-16T01:30:00	0.1963	11.471	178.0	0.453123922	0.533961812	0.007284731	0.075155224	0.023163570
2019-09-16T01:35:00	0.1965	11.462	178.0	0.453921976	0.535036090	0.007307955	0.075394824	0.023237417
2019-09-16T01:40:00	0.1972	11.454	177.9	0.456111754	0.537986383	0.007371866	0.076054183	0.023440638
2019-09-16T01:45:00	0.1955	11.446	177.9	0.450293931	0.530156342	0.007202667	0.074308587	0.022902628
2019-09-16T01:50:00	0.1949	11.437	177.8	0.448304081	0.527484384	0.007145238	0.073716105	0.022720020
2019-09-16T01:55:00	0.1936	11.431	177.8	0.443869686	0.521541114	0.007018067	0.072404104	0.022315648
2019-09-16T02:00:00	0.1945	11.425	177.8	0.446763866	0.525418333	0.007100941	0.073259097	0.022579165
2019-09-16T02:05:00	0.1942	11.421	177.8	0.445819009	0.524151821	0.007073833	0.072979430	0.022492969
2019-09-16T02:10:00	0.1932	11.418	177.7	0.442429471	0.519614168	0.006977004	0.071980467	0.022185079
2019-09-16T02:15:00	0.1940	11.414	177.7	0.444975850	0.523022222	0.007049686	0.072730306	0.022416187
2019-09-16T02:20:00	0.1939	11.412	177.7	0.444728741	0.522691269	0.007042616	0.072657373	0.022393708
2019-09-16T02:25:00	0.1924	11.409	177.7	0.439923364	0.515821178	0.006899895	0.071184947	0.021939892
2019-09-16T02:30:00	0.1917	11.406	177.6	0.438099957	0.512695236	0.006839117	0.070557914	0.021746634
2019-09-16T02:35:00	0.1935	11.406	177.6	0.443288896	0.520763846	0.007001494	0.072233120	0.022262949
2019-09-16T02:40:00	0.1937	11.405	177.6	0.444089295	0.521835085	0.007024339	0.072468809	0.022335591
2019-09-16T02:45:00	0.1938	11.404	177.6	0.444540411	0.522439073	0.007037231	0.072601812	0.022376584
2019-09-16T02:50:00	0.1945	11.404	177.6	0.446736324	0.525381405	0.007100150	0.073250937	0.022576650
2019-09-16T02:55:00	0.1920	11.404	177.6	0.438769032	0.513841180	0.006861381	0.070787601	0.021817426
2019-09-16T03:00:00	0.1922	11.403	177.6	0.439392070	0.514909399	0.006882152	0.071001895	0.021883474
2019-09-16T03:05:00	0.1936	11.405	177.6	0.443900929	0.521582935	0.007018959	0.072413308	0.022318485
2019-09-16T03:10:00	0.1919	11.406	177.6	0.438463509	0.513317747	0.006851209	0.070682662	0.021785083
2019-09-16T03:15:00	0.1898	11.407	177.6	0.432823124	0.503701277	0.006665079	0.068762396	0.021193238
2019-09-16T03:20:00	0.1909	11.409	177.6	0.435901217	0.508938207	0.006766266	0.069806322	0.021514986
2019-09-16T03:25:00	0.1901	11.411	177.6	0.433528052	0.504898278	0.006688170	0.069000622	0.021266662
2019-09-16T03:30:00	0.1904	11.413	177.6	0.434425649	0.506424444	0.006717643	0.069304688	0.021360378
2019-09-16T03:35:00	0.1893	11.415	177.6	0.431504347	0.501465649	0.006622012	0.068318075	0.021056294
2019-09-16T03:40:00	0.1903	11.417	177.6	0.434039692	0.505767934	0.006704961	0.069173842	0.021320050
2019-09-16T03:45:00	0.1919	11.420	177.6	0.438475675	0.513338584	0.006851614	0.070686838	0.021786370
2019-09-16T03:50:00	0.1916	11.423	177.6	0.437739190	0.512077862	0.006827131	0.070434256	0.021708522
2019-09-16T03:55:00	0.1916	11.427	177.6	0.437818652	0.512213812	0.006829770	0.070461481	0.021716913
2019-09-16T04:00:00	0.1920	11.432	177.6	0.438713943	0.513746780	0.006859546	0.070768673	0.021811592
2019-09-16T04:05:00	0.1933	11.435	177.6	0.442822537	0.520139913	0.006988200	0.072095967	0.022220677
2019-09-16T04:10:00	0.1937	11.439	177.6	0.444114288	0.521868544	0.007025053	0.072476175	0.022337861
2019-09-16T04:15:00	0.1931	11.443	177.6	0.441913527	0.518924255	0.006962323	0.071828999	0.022138395
2019-09-16T04:20:00	0.1921	11.446	177.6	0.439202107	0.514583587	0.006875815	0.070936516	0.021863323
2019-09-16T04:25:00	0.1915	11.448	177.6	0.437488611	0.511649262	0.006818814	0.070348444	0.021682074
2019-09-16T04:30:00	0.1928	11.451	177.6	0.440940150	0.517568337	0.006933930	0.071536075	0.022048113
2019-09-16T04:35:00	0.1913	11.454	177.6	0.436780487	0.510439012	0.006795342	0.070106291	0.021607440
2019-09-16T04:40:00	0.1932	11.458	177.6	0.442435722	0.519622529	0.006977182	0.071982304	0.022185645
2019-09-16T04:45:00	0.1951	11.462	177.6	0.448961440	0.528366738	0.007164185	0.073911578	0.022780266
2019-09-16T04:50:00	0.1939	11.466	177.6	0.444669946	0.522612533	0.007040935	0.072640025	0.022388361
2019-09-16T04:55:00	0.1960	11.471	177.7	0.452236404	0.532767692	0.007258945	0.074889202	0.023081580
2019-09-16T05:00:00	0.1971	11.476	177.7	0.455960869	0.537782974	0.007367454	0.076008660	0.023426607
2019-09-16T05:05:00	0.1963	11.482	177.7	0.453071506	0.533891271	0.007283207	0.075139500	0.023158724
2019-09-16T05:10:00	0.1986	11.488	177.7	0.461313872	0.545010400	0.007524791	0.077631881	0.023926900
2019-09-16T05:15:00	0.1990	11.494	177.7	0.462598525	0.546748263	0.007562793	0.078023942	0.024047737
2019-09-16T05:20:00	0.1993	11.500	177.7	0.463535566	0.548016706	0.007590572	0.078310528	0.024136065
2019-09-16T05:25:00	0.1981	11.505	177.7	0.459262674	0.542238271	0.007464308	0.077007894	0.023734581
2019-09-16T05:30:00	0.1976	11.511	177.8	0.457767379	0.540219525	0.007420369	0.076554575	0.023594864
2019-09-16T05:35:00	0.1970	11.518	177.8	0.455575567	0.537263628	0.007356192	0.075892472	0.023390797
2019-09-16T05:40:00	0.1967	11.525	177.8	0.454426729	0.535715810	0.007322662	0.075546559	0.023284183
2019-09-16T05:45:00	0.2008	11.531	189.8	0.468910113	0.555305500	0.007750868	0.079964278	0.024645767
2019-09-16T05:50:00	0.2002	11.539	177.8	0.466725545	0.552340094	0.007685514	0.079290032	0.024437958
2019-09-16T05:55:00	0.1990	11.545	177.9	0.462456702	0.546556342	0.007558593	0.077980611	0.024034382
2019-09-16T06:00:00	0.1983	11.551	177.9	0.460267945	0.543596446	0.007493920	0.077313394	0.023828739
2019-09-16T06:05:00	0.1980	11.558	177.9	0.459120710	0.542046534	0.007460131	0.076964799	0.023721299
2019-09-16T06:10:00	0.1997	11.565	177.9	0.464920183	0.549892290	0.007631710	0.078734948	0.024266876
2019-09-16T06:15:00	0.1988	11.572	177.9	0.461691200	0.545520709	0.007535943	0.077746936	0.023962361
2019-09-16T06:20:00	0.1996	11.579	178.0	0.464711248	0.549609171	0.007625495	0.078670831	0.024247114
2019-09-16T06:25:00	0.1997	11.587	178.0	0.464953786	0.549937827	0.007632710	0.078745262	0.024270054
2019-09-16T06:30:00	0.2006	11.594	178.0	0.467970913	0.554030134	0.007722737	0.079674058	0.024556319
2019-09-16T06:35:00	0.2021	11.603	178.0	0.473409087	0.561424503	0.007886320	0.081361710	0.025076469
2019-09-16T06:40:00	0.2016	11.611	178.1	0.471573762	0.558926355	0.007830924	0.080790195	0.024900323
2019-09-16T06:45:00	0.2026	11.621	178.1	0.474930966	0.563498035	0.007932402	0.081837127	0.025222997
2019-09-16T06:50:00	0.2041	11.629	178.1	0.480357964	0.570907239	0.008097809	0.083543601	0.025748949
2019-09-16T06:55:00	0.2049	11.638	178.2	0.483016253	0.574545034	0.008179446	0.084385835	0.026008534
2019-09-16T07:00:00	0.2036	11.647	178.2	0.478422360	0.568261964	0.008038621	0.082932969	0.025560746
2019-09-16T07:05:00	0.2053	11.654	178.2	0.484188813	0.576151444	0.008215584	0.084758670	0.026123445
2019-09-16T07:10:00	0.2039	11.661	178.2	0.479596510	0.569866249	0.008074499	0.083303118	0.025674830
2019-09-16T07:15:00	0.2045	11.670	178.3	0.481564883	0.572558174	0.008134823	0.083925474	0.025866646
2019-09-16T07:20:00	0.2059	11.678	178.3	0.486291723	0.579035186	0.008280594	0.085429366	0.026330160
2019-09-16T07:25:00	0.2058	11.687	178.3	0.486187915	0.578892749	0.008277379	0.085396197	0.026319937
2019-09-16T07:30:00	0.2043	11.695	178.4	0.480907673	0.571659038	0.008114657	0.083717424	0.025802523
2019-09-16T07:35:00	0.2059	11.705	178.4	0.486325114	0.579081004	0.008281629	0.085440037	0.026333449
2019-09-16T07:40:00	0.2048	11.715	178.4	0.482771371	0.574209684	0.008171908	0.084308073	0.025984567
2019-09-16T07:45:00	0.2036	11.727	178.5	0.478522766	0.568399110	0.008041686	0.082964590	0.025570492
2019-09-16T07:50:00	0.2043	11.737	178.5	0.480837145	0.571562568	0.008112495	0.083695113	0.025795647
2019-09-16T07:55:00	0.2062	11.747	178.6	0.487288986	0.580403979	0.008311513	0.085748347	0.026428473
2019-09-16T08:00:00	0.2080	11.759	178.6	0.493728593	0.589261830	0.008512539	0.087822300	0.027067686
2019-09-16T08:05:00	0.2069	11.773	178.7	0.489838156	0.583906459	0.008390806	0.086566395	0.026680604
2019-09-16T08:10:00	0.2094	11.784	178.7	0.498335123	0.595618635	0.008657807	0.089321002	0.027529600
2019-09-16T08:15:00	0.2071	11.794	178.8	0.490664014	0.585042277	0.008416574	0.086832246	0.026762541
2019-09-16T08:20:00	0.2058	11.805	178.8	0.486080471	0.578745334	0.008274052	0.085361872	0.026309358
2019-09-16T08:25:00	0.2042	11.818	178.9	0.480454674	0.571039485	0.008100772	0.083574169	0.025758371
2019-09-16T08:30:00	0.2072	11.832	178.9	0.491041709	0.585561910	0.008428372	0.086953964	0.026800056
2019-09-16T08:35:00	0.2064	11.840	178.9	0.488182210	0.581630648	0.008339254	0.086034551	0.026516684
2019-09-16T08:40:00	0.2055	11.849	179.0	0.484975374	0.577229649	0.008239871	0.085009227	0.026200669
2019-09-16T08:45:00	0.2058	11.858	179.0	0.485906234	0.578506296	0.008268658	0.085306224	0.026292207
2019-09-16T08:50:00	0.2079	11.868	179.0	0.493380893	0.588782711	0.008501624	0.087709691	0.027032978
2019-09-16T08:55:00	0.2075	11.874	179.0	0.491900610	0.586744014	0.008455232	0.087231074	0.026885464
2019-09-16T09:00:00	0.2051	11.879	179.0	0.483524842	0.575241667	0.008195111	0.084547449	0.026058345
2019-09-16T09:05:00	0.2047	11.888	179.1	0.482385482	0.573681331	0.008160038	0.084185607	0.025946822
2019-09-16T09:10:00	0.2076	11.893	179.1	0.492278168	0.587263833	0.008467053	0.087353025	0.026923051
2019-09-16T09:15:00	0.2076	11.900	179.1	0.492174543	0.587121151	0.008463808	0.087319546	0.026912732
2019-09-16T09:20:00	0.2041	11.910	179.2	0.480347049	0.570892313	0.008097474	0.083540152	0.025747886
2019-09-16T09:25:00	0.2025	11.928	179.3	0.474711716	0.563199197	0.007925755	0.081768552	0.025201862
2019-09-16T09:30:00	0.2020	11.948	179.3	0.472877097	0.560700111	0.007870243	0.081195845	0.025025348
2019-09-16T09:35:00	0.2034	11.958	179.4	0.477616070	0.567160937	0.008014029	0.082679259	0.025482551
2019-09-16T09:40:00	0.2028	11.970	179.4	0.475783027	0.564659758	0.007958260	0.082103899	0.025305219
2019-09-16T09:45:00	0.2023	11.978	179.5	0.473948990	0.562159900	0.007902653	0.081530213	0.025128403
2019-09-16T09:50:00	0.2042	11.992	179.5	0.480413949	0.570983794	0.008099524	0.083561296	0.025754403
2019-09-16T09:55:00	0.2029	12.015	179.6	0.476162383	0.565177168	0.007969786	0.082222809	0.025341868
2019-09-16T10:00:00	0.2005	12.039	179.7	0.467747558	0.553726937	0.007716055	0.079605117	0.024535070
2019-09-16T10:05:00	0.2012	12.061	179.8	0.470268628	0.557151506	0.007791647	0.080384989	0.024775434
2019-09-16T10:10:00	0.2022	12.079	179.8	0.473480123	0.561521247	0.007888468	0.081383870	0.025083299
2019-09-16T10:15:00	0.2024	12.096	179.9	0.474267176	0.562593407	0.007912286	0.081629599	0.025159035
2019-09-16T10:20:00	0.2025	12.107	179.9	0.474708071	0.563194230	0.007925644	0.081767412	0.025201511
2019-09-16T10:25:00	0.2032	12.112	179.9	0.477223954	0.566625672	0.008002083	0.082556014	0.025444565
2019-09-16T10:30:00	0.2026	12.119	192.4	0.474897815	0.563452848	0.007931397	0.081826757	0.025219801
2019-09-16T10:35:00	0.2008	12.132	180.0	0.468759604	0.555101073	0.007746357	0.079917735	0.024631422
2019-09-16T10:40:00	0.2002	12.147	180.0	0.466774450	0.552406437	0.007686974	0.079305096	0.024442601
2019-09-16T10:45:00	0.1997	12.170	192.5	0.465135119	0.550183575	0.007638106	0.078800932	0.024287213
2019-09-16T10:50:00	0.2002	12.187	192.6	0.466617835	0.552193982	0.007682299	0.079256862	0.024427734
2019-09-16T10:55:00	0.1993	12.205	192.7	0.463590179	0.548090654	0.007592192	0.078327247	0.024141218
2019-09-16T11:00:00	0.1994	12.220	192.7	0.464032471	0.548689632	0.007605323	0.078462712	0.024182970
2019-09-16T11:05:00	0.1997	12.226	192.8	0.464821731	0.549758877	0.007628781	0.078704732	0.024257563
2019-09-16T11:10:00	0.1981	12.238	192.8	0.459360345	0.542370195	0.007467183	0.077037550	0.023743721
2019-09-16T11:15:00	0.1986	12.255	192.9	0.461193005	0.544846960	0.007521220	0.077595044	0.023915546
2019-09-16T11:20:00	0.2013	12.272	193.0	0.470654253	0.557675776	0.007803242	0.080504610	0.024812303
2019-09-16T11:25:00	0.1976	12.282	193.1	0.457560363	0.539940178	0.007414295	0.076491919	0.023575552
2019-09-16T11:30:00	0.1969	12.293	193.1	0.455220611	0.536785287	0.007345824	0.075785513	0.023357831
2019-09-16T11:35:00	0.1927	12.311	193.2	0.440761066	0.517260404	0.006927928	0.071474155	0.022029029
2019-09-16T11:40:00	0.1928	12.329	193.3	0.441113874	0.517855380	0.006939597	0.071594548	0.022066135
2019-09-16T11:45:00	0.1925	12.340	193.3	0.440095214	0.516116268	0.006905640	0.071244218	0.021958160
2019-09-16T11:50:00	0.1922	12.351	193.4	0.439354578	0.514845086	0.006880901	0.070988988	0.021879496
2019-09-16T11:55:00	0.1932	12.362	193.4	0.442449491	0.519640943	0.006977574	0.071986348	0.022186892
2019-09-16T12:00:00	0.1923	12.377	181.0	0.439503617	0.515100766	0.006885875	0.071040304	0.021895312
2019-09-16T12:05:00	0.1910	12.393	193.6	0.436041806	0.509178029	0.006770910	0.069854232	0.021529753
2019-09-16T12:10:00	0.1906	12.406	193.6	0.435026915	0.507448022	0.006737430	0.069508827	0.021423296
2019-09-16T12:15:00	0.1902	12.418	181.2	0.434011405	0.505719835	0.006704032	0.069164259	0.021317096
2019-09-16T12:20:00	0.1912	12.428	193.7	0.436538058	0.510025000	0.006787318	0.070023506	0.021581925
2019-09-16T12:25:00	0.1906	12.434	193.8	0.434978585	0.507365708	0.006735839	0.069492405	0.021418234
2019-09-16T12:30:00	0.1912	12.440	193.8	0.436687349	0.510279934	0.006792258	0.070074479	0.021597635
2019-09-16T12:35:00	0.1897	12.444	193.9	0.432401154	0.502985415	0.006651280	0.068620035	0.021149361
2019-09-16T12:40:00	0.1891	12.453	181.4	0.430837788	0.500337522	0.006600309	0.068094167	0.020987284
2019-09-16T12:45:00	0.1893	12.462	181.4	0.431458914	0.501388716	0.006620531	0.068302799	0.021051586
2019-09-16T12:50:00	0.1890	12.469	194.0	0.430714426	0.500128872	0.006596297	0.068052777	0.020974527
2019-09-16T12:55:00	0.1895	12.475	194.1	0.431881680	0.502104821	0.006634317	0.068445026	0.021095422
2019-09-16T13:00:00	0.1879	12.477	194.1	0.427583005	0.494846666	0.006494956	0.067007269	0.020652291
2019-09-16T13:05:00	0.1890	12.479	181.6	0.430665970	0.500046926	0.006594721	0.068036523	0.020969517
2019-09-16T13:10:00	0.1893	12.480	194.1	0.431560232	0.501560289	0.006623833	0.068336868	0.021062086
2019-09-16T13:15:00	0.1891	12.479	181.6	0.430815789	0.500300312	0.006599593	0.068086785	0.020985008
2019-09-16T13:20:00	0.1891	12.479	181.6	0.430890694	0.500427019	0.006602030	0.068111923	0.020992756
2019-09-16T13:25:00	0.1906	12.477	181.6	0.435057746	0.507500534	0.006738446	0.069519305	0.021426525
2019-09-16T13:30:00	0.1895	12.477	181.6	0.431859696	0.502067570	0.006633600	0.068437625	0.021093141
2019-09-16T13:35:00	0.1876	12.476	181.6	0.426739617	0.493428663	0.006467826	0.066727368	0.020566023
2019-09-16T13:40:00	0.1866	12.473	194.0	0.424074033	0.488959940	0.006382533	0.065847412	0.020294812
2019-09-16T13:45:00	0.1871	12.471	194.0	0.425520096	0.491381749	0.006428718	0.066323899	0.020441670
2019-09-16T13:50:00	0.1871	12.469	194.0	0.425321178	0.491048265	0.006422353	0.066258230	0.020421430
2019-09-16T13:55:00	0.1879	12.465	194.0	0.427587469	0.494854177	0.006495100	0.067008752	0.020652748
2019-09-16T14:00:00	0.1866	12.463	181.5	0.424100596	0.489004374	0.006383379	0.065856146	0.020297504
2019-09-16T14:05:00	0.1878	12.461	181.4	0.427463863	0.494646230	0.006491120	0.066967685	0.020640091
2019-09-16T14:10:00	0.1883	12.459	181.5	0.428633423	0.496615515	0.006528844	0.067356878	0.020760044
2019-09-16T14:15:00	0.1887	12.458	181.3	0.429802151	0.498587197	0.006566674	0.067747170	0.020880336
2019-09-16T14:20:00	0.1860	12.456	181.3	0.422480593	0.486298017	0.006331875	0.065324785	0.020133733
2019-09-16T14:25:00	0.1861	12.453	193.7	0.422555880	0.486423630	0.006334263	0.065349421	0.020141326
2019-09-16T14:30:00	0.1891	12.450	193.7	0.430846699	0.500352595	0.006600598	0.068097157	0.020988205
2019-09-16T14:35:00	0.1866	12.447	193.7	0.424078507	0.488967424	0.006382675	0.065848883	0.020295265
2019-09-16T14:40:00	0.1856	12.443	193.7	0.421408561	0.484511088	0.006297931	0.064974598	0.020025802
2019-09-16T14:45:00	0.1886	12.440	193.5	0.429431805	0.497961999	0.006554672	0.067623345	0.020842172
2019-09-16T14:50:00	0.1890	12.438	193.3	0.430599967	0.499935317	0.006592576	0.068014387	0.020962695
2019-09-16T14:55:00	0.1896	12.436	193.1	0.432313242	0.502836336	0.006648408	0.068590398	0.021140227
2019-09-16T15:00:00	0.1913	12.435	192.9	0.437021124	0.510850126	0.006803313	0.070188523	0.021632784
2019-09-16T15:05:00	0.1902	12.434	192.7	0.433826852	0.505406072	0.006697973	0.069101751	0.021297831
2019-09-16T15:10:00	0.1908	12.433	180.1	0.435536798	0.508316821	0.006754238	0.069682228	0.021476739
2019-09-16T15:15:00	0.1921	12.432	192.3	0.439148726	0.514492048	0.006874035	0.070918150	0.021857663
2019-09-16T15:20:00	0.1916	12.430	179.7	0.437591688	0.511825548	0.006822235	0.070383736	0.021692951
2019-09-16T15:25:00	0.1909	12.430	179.6	0.435760864	0.508698841	0.006761632	0.069758512	0.021500251
2019-09-16T15:30:00	0.1912	12.429	179.3	0.436652386	0.510220225	0.006791101	0.070062539	0.021593955
2019-09-16T15:35:00	0.1901	12.428	179.0	0.433730120	0.505241655	0.006694799	0.069069002	0.021287737
2019-09-16T15:40:00	0.1925	12.427	178.9	0.440064753	0.516063957	0.006904622	0.071233710	0.021954921
2019-09-16T15:45:00	0.1916	12.426	178.6	0.437692633	0.511998216	0.006825586	0.070418308	0.021703606
2019-09-16T15:50:00	0.1940	12.425	178.5	0.445203808	0.523327566	0.007056210	0.072797618	0.022436933
2019-09-16T15:55:00	0.1918	12.423	178.4	0.438385772	0.513184607	0.006848623	0.070655976	0.021776858
2019-09-16T16:00:00	0.1929	12.421	178.3	0.441204357	0.517976300	0.006942167	0.071621058	0.022074306
2019-09-16T16:05:00	0.1923	12.419	178.4	0.439509189	0.515110324	0.006886061	0.071042222	0.021895903
2019-09-16T16:10:00	0.1922	12.417	178.5	0.439470714	0.515044314	0.006884777	0.071028973	0.021891819
2019-09-16T16:15:00	0.1901	12.415	178.5	0.433715480	0.505216773	0.006694318	0.069064047	0.021286210
2019-09-16T16:20:00	0.1939	12.413	178.6	0.444848502	0.522851659	0.007046042	0.072692715	0.022404601
2019-09-16T16:25:00	0.1937	12.412	178.4	0.444100842	0.521850544	0.007024669	0.072472212	0.022336640
2019-09-16T16:30:00	0.1937	12.410	178.4	0.444051409	0.521784368	0.007023257	0.072457644	0.022332150
2019-09-16T16:35:00	0.1911	12.408	178.4	0.436286003	0.509594723	0.006778981	0.069937497	0.021555416
2019-09-16T16:40:00	0.1926	12.407	178.3	0.440326669	0.516513838	0.006913383	0.071324095	0.021982779
2019-09-16T16:45:00	0.1931	12.404	178.1	0.442156769	0.519249489	0.006969242	0.071900389	0.022160398
2019-09-16T16:50:00	0.1944	12.394	177.9	0.446645951	0.525260238	0.007097555	0.073224167	0.022568399
2019-09-16T16:55:00	0.1945	12.379	177.7	0.446945432	0.525661790	0.007106156	0.073312898	0.022595747
2019-09-16T17:00:00	0.1937	12.360	177.5	0.444103967	0.521854726	0.007024758	0.072473133	0.022336923
2019-09-16T17:05:00	0.1959	12.339	177.2	0.451727257	0.532082936	0.007244173	0.074736802	0.023034608
2019-09-16T17:10:00	0.1981	12.320	177.0	0.459333260	0.542333611	0.007466386	0.077029326	0.023741186
2019-09-16T17:15:00	0.1979	12.304	176.8	0.458588823	0.541328308	0.007444491	0.076803444	0.023671567
2019-09-16T17:20:00	0.1976	12.287	188.8	0.457844220	0.540323222	0.007422623	0.076577838	0.023602033
2019-09-16T17:25:00	0.1976	12.272	176.6	0.457794989	0.540256783	0.007421179	0.076562933	0.023597440
2019-09-16T17:30:00	0.1958	12.257	176.5	0.451480645	0.531751339	0.007237024	0.074663039	0.023011874
2019-09-16T17:35:00	0.1970	12.244	176.5	0.455609421	0.537309255	0.007357181	0.075902678	0.023393942
2019-09-16T17:40:00	0.1995	12.231	176.4	0.464248014	0.548981588	0.007611726	0.078528770	0.024203330
2019-09-16T17:45:00	0.2023	12.217	176.4	0.473902894	0.562097104	0.007901258	0.081515820	0.025123967
2019-09-16T17:50:00	0.2034	12.201	176.3	0.477658630	0.567219043	0.008015326	0.082692642	0.025486675
2019-09-16T17:55:00	0.2018	12.186	176.2	0.472420277	0.560078255	0.007856450	0.081053550	0.024981491
2019-09-16T18:00:00	0.2010	12.168	187.7	0.469600271	0.556243132	0.007771572	0.080177873	0.024711599
2019-09-16T18:05:00	0.2034	12.153	187.2	0.477857487	0.567490550	0.008021388	0.082755184	0.025505951
2019-09-16T18:10:00	0.2022	12.140	186.9	0.473657901	0.561763381	0.007893845	0.081439343	0.025100396
2019-09-16T18:15:00	0.2029	12.128	186.9	0.476030765	0.564997639	0.007965786	0.082181543	0.025329150
2019-09-16T18:20:00	0.2032	12.117	186.9	0.477019225	0.566346251	0.007995849	0.082491702	0.025424744
2019-09-16T18:25:00	0.2034	12.107	186.9	0.477661723	0.567223266	0.008015420	0.082693615	0.025486975
2019-09-16T18:30:00	0.2015	12.098	186.9	0.471384537	0.558668946	0.007825223	0.080731384	0.024882197
2019-09-16T18:35:00	0.2041	12.090	187.0	0.480328309	0.570866689	0.008096900	0.083534229	0.025746061
2019-09-16T18:40:00	0.2042	12.082	186.9	0.480624810	0.571272156	0.008105985	0.083627958	0.025774949
2019-09-16T18:45:00	0.2046	12.070	186.6	0.481957200	0.573095073	0.008146873	0.084049790	0.025904962
2019-09-16T18:50:00	0.2053	12.061	186.3	0.484324257	0.576337073	0.008219764	0.084801789	0.026136735
2019-09-16T18:55:00	0.2048	12.053	186.1	0.482549891	0.573906423	0.008165094	0.084237773	0.025962900
2019-09-16T19:00:00	0.2069	12.044	186.0	0.489742416	0.583774820	0.008387821	0.086535601	0.026671113
2019-09-16T19:05:00	0.2073	12.038	185.8	0.491071231	0.585602532	0.008429295	0.086963482	0.026802990
2019-09-16T19:10:00	0.2072	12.029	185.7	0.491022482	0.585535455	0.008427772	0.086947766	0.026798146
2019-09-16T19:15:00	0.2071	12.023	185.6	0.490629378	0.584994630	0.008415493	0.086821088	0.026759103
2019-09-16T19:20:00	0.2080	12.015	185.4	0.493678595	0.589192929	0.008510969	0.087806103	0.027062694
2019-09-16T19:25:00	0.2074	12.006	185.2	0.491564851	0.586281839	0.008444727	0.087122695	0.026852061
2019-09-16T19:30:00	0.2082	11.999	185.2	0.494269245	0.590007024	0.008529526	0.087997544	0.027121698
2019-09-16T19:35:00	0.2095	11.993	185.3	0.498689710	0.596108657	0.008669040	0.089436888	0.027565317
2019-09-16T19:40:00	0.2102	11.986	185.3	0.501045155	0.599366323	0.008743840	0.090208590	0.027803163
2019-09-16T19:45:00	0.2097	11.980	185.1	0.499622972	0.597398859	0.008698639	0.089742253	0.027659434
2019-09-16T19:50:00	0.2073	11.974	185.1	0.491321131	0.585946413	0.008437106	0.087044067	0.026827827
2019-09-16T19:55:00	0.2081	11.967	185.0	0.494025719	0.589671336	0.008521872	0.087918587	0.027097363
2019-09-16T20:00:00	0.2092	11.961	184.9	0.497759267	0.594823049	0.008639581	0.089132962	0.027471644
2019-09-16T20:05:00	0.2100	11.955	184.8	0.500458750	0.598554887	0.008725188	0.090016160	0.027743855
2019-09-16T20:10:00	0.2099	11.947	184.8	0.500066734	0.598012589	0.008712730	0.089887634	0.027704242
2019-09-16T20:15:00	0.2100	11.938	184.7	0.500361518	0.598420370	0.008722098	0.089984274	0.027734027
2019-09-16T20:20:00	0.2106	11.928	172.7	0.502715809	0.601679606	0.008797089	0.090757940	0.027972479
2019-09-16T20:25:00	0.2095	11.919	184.6	0.498890414	0.596386064	0.008675401	0.089502515	0.027585544
2019-09-16T20:30:00	0.2095	11.911	184.5	0.498841776	0.596318835	0.008673859	0.089486609	0.027580642
2019-09-16T20:35:00	0.2102	11.903	184.6	0.501197116	0.599576644	0.008748677	0.090258489	0.027818543
2019-09-16T20:40:00	0.2095	11.897	184.6	0.498744498	0.596184380	0.008670776	0.089454800	0.027570838
2019-09-16T20:45:00	0.2103	11.891	184.6	0.501443202	0.599917278	0.008756513	0.090339326	0.027843458
2019-09-16T20:50:00	0.2096	11.884	184.5	0.498990762	0.596524773	0.008678582	0.089535336	0.027595660
2019-09-16T20:55:00	0.2090	11.878	172.7	0.497224035	0.594083825	0.008622657	0.088958363	0.027417831
2019-09-16T21:00:00	0.2102	11.871	172.6	0.501297395	0.599715446	0.008751870	0.090291426	0.027828694
2019-09-16T21:05:00	0.2090	11.864	172.6	0.497126711	0.593949432	0.008619581	0.088926633	0.027408052
2019-09-16T21:10:00	0.2104	11.860	172.7	0.501886727	0.600531330	0.008770643	0.090485111	0.027888390
2019-09-16T21:15:00	0.2106	11.854	184.6	0.502524542	0.601414653	0.008790984	0.090694963	0.027953068
2019-09-16T21:20:00	0.2120	11.848	184.6	0.507277043	0.608006792	0.008943288	0.092266252	0.028437355
2019-09-16T21:25:00	0.2119	11.843	184.6	0.506885808	0.607463427	0.008930701	0.092136392	0.028397331
2019-09-16T21:30:00	0.2119	11.837	184.7	0.507180005	0.607872009	0.008940165	0.092234035	0.028427425
2019-09-16T21:35:00	0.2126	11.832	184.8	0.509529605	0.611137655	0.009015932	0.093015710	0.028668345
2019-09-16T21:40:00	0.2108	11.827	184.8	0.503311036	0.602504332	0.008816099	0.090954067	0.028032927
2019-09-16T21:45:00	0.2126	11.821	173.0	0.509432631	0.611002785	0.009012799	0.092983383	0.028658382
2019-09-16T21:50:00	0.2120	11.814	173.0	0.507328627	0.608078443	0.008944948	0.092283381	0.028442634
2019-09-16T21:55:00	0.2119	11.806	184.9	0.506937398	0.607535070	0.008932360	0.092153511	0.028402607
2019-09-16T22:00:00	0.2137	11.798	184.9	0.513052514	0.616042403	0.009130133	0.094193904	0.029031476
2019-09-16T22:05:00	0.2137	11.791	184.9	0.513049453	0.616038136	0.009130034	0.094192877	0.029031160
2019-09-16T22:10:00	0.2131	11.785	185.0	0.510993074	0.613173944	0.009063286	0.093504249	0.028818918
2019-09-16T22:15:00	0.2125	11.778	173.1	0.508935460	0.610311448	0.008996743	0.092817736	0.028607328
2019-09-16T22:20:00	0.2138	11.771	185.1	0.513382370	0.616502156	0.009140863	0.094304600	0.029065594
2019-09-16T22:25:00	0.2118	11.764	185.1	0.506530790	0.606970468	0.008919286	0.092018632	0.028361036
2019-09-16T22:30:00	0.2129	11.758	173.2	0.510638482	0.612680400	0.009051801	0.093385760	0.028782398
2019-09-16T22:35:00	0.2114	11.751	185.2	0.505496193	0.605534463	0.008886064	0.091675883	0.028255398
2019-09-16T22:40:00	0.2108	11.745	173.3	0.503435268	0.602676500	0.008820069	0.090995028	0.028045551
2019-09-16T22:45:00	0.2100	11.738	185.2	0.500686456	0.598869942	0.008732429	0.090090858	0.027766877
2019-09-16T22:50:00	0.2121	11.730	173.4	0.507886261	0.608853148	0.008962906	0.092468649	0.028499736
2019-09-16T22:55:00	0.2116	11.723	185.3	0.506169600	0.606469043	0.008907681	0.091898902	0.028324134
2019-09-16T23:00:00	0.2125	11.715	185.4	0.509250390	0.610749348	0.009006912	0.092922647	0.028639662
2019-09-16T23:05:00	0.2128	11.707	173.4	0.510274661	0.612174119	0.009040025	0.093264267	0.028744953
2019-09-16T23:10:00	0.2136	11.699	185.4	0.513009657	0.615982675	0.009128740	0.094179527	0.029027045
2019-09-16T23:15:00	0.2159	11.692	173.5	0.520866367	0.626957016	0.009386001	0.096833647	0.029845070
2019-09-16T23:20:00	0.2153	11.685	185.5	0.518814670	0.624086360	0.009318475	0.096136986	0.029630353
2019-09-16T23:25:00	0.2170	11.678	185.4	0.524612938	0.632207885	0.009509942	0.098112321	0.030239170
2019-09-16T23:30:00	0.2156	11.671	185.5	0.519833034	0.625510789	0.009351961	0.096482460	0.029736831
2019-09-16T23:35:00	0.2160	11.666	185.5	0.521195473	0.627417805	0.009396856	0.096945631	0.029879585
2019-09-16T23:40:00	0.2146	11.659	185.5	0.516410809	0.620727308	0.009239668	0.095323954	0.029379768
2019-09-16T23:45:00	0.2170	11.652	173.6	0.524600735	0.632190763	0.009509537	0.098108143	0.030237882
2019-09-16T23:50:00	0.2161	11.645	185.6	0.521527601	0.627882916	0.009407817	0.097058709	0.029914437
2019-09-16T23:55:00	0.2178	11.640	185.6	0.527321301	0.636010789	0.009600046	0.099041909	0.030525678
2019-09-17T00:00:00	0.2177	11.634	185.7	0.526977536	0.635527767	0.009588586	0.098923676	0.030489238
2019-09-17T00:05:00	0.2161	11.628	185.7	0.521518440	0.627870085	0.009407514	0.097055589	0.029913475
2019-09-17T00:10:00	0.2168	11.622	173.8	0.523903474	0.631212687	0.009486410	0.097869541	0.030164343
2019-09-17T00:15:00	0.2170	11.616	173.8	0.524582429	0.632165080	0.009508930	0.098101875	0.030235951
2019-09-17T00:20:00	0.2174	11.610	173.7	0.525942988	0.634074708	0.009554138	0.098568282	0.030379702
2019-09-17T00:25:00	0.2171	11.604	173.8	0.524917281	0.632634925	0.009520046	0.098216561	0.030271298
2019-09-17T00:30:00	0.2160	11.598	185.7	0.521161879	0.627370766	0.009395748	0.096934197	0.029876061
2019-09-17T00:35:00	0.2164	11.593	173.7	0.522523791	0.629278513	0.009440730	0.097398274	0.030019094
2019-09-17T00:40:00	0.2162	11.587	185.7	0.521838323	0.628318131	0.009418076	0.097164559	0.029947061
2019-09-17T00:45:00	0.2164	11.581	173.7	0.522517686	0.629269957	0.009440528	0.097396191	0.030018452
2019-09-17T00:50:00	0.2151	11.576	173.7	0.518076498	0.623054372	0.009294239	0.095886953	0.029553290
2019-09-17T00:55:00	0.2143	11.571	173.7	0.515339424	0.619231709	0.009204653	0.094962705	0.029268428
2019-09-17T01:00:00	0.2130	11.566	173.7	0.510888930	0.613028979	0.009059912	0.093469441	0.028808189
2019-09-17T01:05:00	0.2129	11.562	173.7	0.510543517	0.612548240	0.009048726	0.093354040	0.028772622
2019-09-17T01:10:00	0.2143	11.555	173.7	0.515330247	0.619218901	0.009204353	0.094959614	0.029267475
2019-09-17T01:15:00	0.2115	11.550	173.7	0.505740882	0.605874010	0.008893916	0.091756888	0.028280364
2019-09-17T01:20:00	0.2124	11.543	173.7	0.508822058	0.610153786	0.008993082	0.092779973	0.028595689
2019-09-17T01:25:00	0.2146	11.538	173.7	0.516346586	0.620637630	0.009237567	0.095302280	0.029373088
2019-09-17T01:30:00	0.2150	11.533	173.7	0.517710409	0.622542732	0.009282232	0.095763074	0.029515109
2019-09-17T01:35:00	0.2136	11.527	173.7	0.512920880	0.615858957	0.009125853	0.094149748	0.029017867
2019-09-17T01:40:00	0.2151	11.521	173.7	0.518045930	0.623011647	0.009293236	0.095876607	0.029550101
2019-09-17T01:45:00	0.2128	11.515	173.7	0.510176622	0.612037710	0.009036852	0.093231541	0.028734866
2019-09-17T01:50:00	0.2162	11.509	173.7	0.521795576	0.628258252	0.009416665	0.097149993	0.029942571
2019-09-17T01:55:00	0.2170	11.504	173.7	0.524521410	0.632079471	0.009506905	0.098080983	0.030229512
2019-09-17T02:00:00	0.2174	11.499	173.7	0.525881993	0.633989066	0.009552109	0.098547349	0.030373250
2019-09-17T02:05:00	0.2175	11.492	185.6	0.526219768	0.634463370	0.009563348	0.098663300	0.030408987
2019-09-17T02:10:00	0.2150	11.489	185.6	0.517685952	0.622508556	0.009281430	0.095754801	0.029512560
2019-09-17T02:15:00	0.2153	11.484	173.7	0.518707707	0.623936795	0.009314961	0.096100735	0.029619180
2019-09-17T02:20:00	0.2157	11.480	173.7	0.520070592	0.625843193	0.009359781	0.096563139	0.029761697
2019-09-17T02:25:00	0.2157	11.476	185.7	0.520067537	0.625838918	0.009359681	0.096562101	0.029761377
2019-09-17T02:30:00	0.2151	11.471	173.6	0.518015363	0.622968923	0.009292234	0.095866261	0.029546913
2019-09-17T02:35:00	0.2145	11.465	173.7	0.515961961	0.620100626	0.009224991	0.095172528	0.029333097
2019-09-17T02:40:00	0.2146	11.461	173.6	0.516300712	0.620573576	0.009236067	0.095286800	0.029368317
2019-09-17T02:45:00	0.2149	11.457	173.6	0.517322879	0.622001245	0.009269529	0.095632026	0.029474719
2019-09-17T02:50:00	0.2137	11.452	173.6	0.513217078	0.616271761	0.009135486	0.094249122	0.029048495
2019-09-17T02:55:00	0.2159	11.447	173.6	0.520731979	0.626768880	0.009381571	0.096787938	0.029830982
2019-09-17T03:00:00	0.2152	11.443	173.6	0.518338629	0.623420789	0.009302842	0.095975705	0.029580644
2019-09-17T03:05:00	0.2154	11.438	173.6	0.519018684	0.624371656	0.009325178	0.096206147	0.029651669
2019-09-17T03:10:00	0.2146	11.432	173.6	0.516282363	0.620547955	0.009235467	0.095280608	0.029366409
2019-09-17T03:15:00	0.2141	11.427	173.6	0.514569905	0.618158072	0.009179544	0.094703663	0.029188589
2019-09-17T03:20:00	0.2142	11.422	173.6	0.514908794	0.618630832	0.009190597	0.094817699	0.029223736
2019-09-17T03:25:00	0.2146	11.414	173.6	0.516273188	0.620535144	0.009235167	0.095277512	0.029365455
2019-09-17T03:30:00	0.2124	11.405	173.6	0.508742368	0.610042999	0.008990511	0.092753441	0.028587511
2019-09-17T03:35:00	0.2137	11.396	173.6	0.513189528	0.616233363	0.009134590	0.094239877	0.029045645
2019-09-17T03:40:00	0.2129	11.385	173.6	0.510448549	0.612416083	0.009045652	0.093322325	0.028762847
2019-09-17T03:45:00	0.2112	11.374	173.5	0.504620122	0.604319165	0.008857980	0.091386152	0.028166099
2019-09-17T03:50:00	0.2131	11.365	173.5	0.511127108	0.613360526	0.009067629	0.093549056	0.028832728
2019-09-17T03:55:00	0.2137	11.353	173.5	0.513177284	0.616216297	0.009134191	0.094235768	0.029044379
2019-09-17T04:00:00	0.2137	11.344	173.4	0.513174223	0.616212030	0.009134092	0.094234741	0.029044062
2019-09-17T04:05:00	0.2136	11.334	173.4	0.512922857	0.615861711	0.009125918	0.094150410	0.029018071
2019-09-17T04:10:00	0.2132	11.327	173.4	0.511644855	0.614081396	0.009084415	0.093722240	0.028886105
2019-09-17T04:15:00	0.2141	11.316	173.3	0.514472532	0.618022250	0.009176369	0.094670910	0.029178494
2019-09-17T04:20:00	0.2119	11.306	173.3	0.507031726	0.607666070	0.008935394	0.092184815	0.028412255
2019-09-17T04:25:00	0.2134	11.298	173.3	0.512259420	0.614937349	0.009104361	0.093928017	0.028949527
2019-09-17T04:30:00	0.2127	11.289	173.3	0.509611604	0.611251703	0.009018582	0.093043049	0.028676771
2019-09-17T04:35:00	0.2144	11.280	173.2	0.515519173	0.619482564	0.009210523	0.095023265	0.029287093
2019-09-17T04:40:00	0.2151	11.273	173.2	0.518002052	0.622950320	0.009291797	0.095861756	0.029545524
2019-09-17T04:45:00	0.2177	11.267	173.2	0.526963180	0.635507597	0.009588108	0.098918739	0.030487716
2019-09-17T04:50:00	0.2148	11.260	173.2	0.516816595	0.621294008	0.009252948	0.095460955	0.029421994
2019-09-17T04:55:00	0.2150	11.253	173.2	0.517590641	0.622375369	0.009278305	0.095722563	0.029502624
2019-09-17T05:00:00	0.2166	11.245	173.2	0.523143405	0.630146957	0.009461231	0.097609778	0.030084282
2019-09-17T05:05:00	0.2174	11.240	173.2	0.525961634	0.634100889	0.009554758	0.098574682	0.030381674
2019-09-17T05:10:00	0.2160	11.234	173.1	0.520935879	0.627054334	0.009388294	0.096857294	0.029852359
2019-09-17T05:15:00	0.2157	11.228	173.1	0.520002300	0.625747630	0.009357533	0.096539942	0.029754548
2019-09-17T05:20:00	0.2174	11.220	173.1	0.525892030	0.634003159	0.009552443	0.098550794	0.030374312
2019-09-17T05:25:00	0.2171	11.214	173.1	0.524959796	0.632694587	0.009521458	0.098231127	0.030275787
2019-09-17T05:30:00	0.2184	11.209	173.1	0.529138883	0.638566262	0.009660755	0.099668227	0.030718716
2019-09-17T05:35:00	0.2173	11.205	173.1	0.525481562	0.633426900	0.009538794	0.098409978	0.030330911
2019-09-17T05:40:00	0.2193	11.202	173.1	0.532382681	0.643133636	0.009769578	0.100790937	0.031064746
2019-09-17T05:45:00	0.2188	11.197	172.9	0.530771553	0.640864043	0.009715451	0.100232519	0.030892636
2019-09-17T05:50:00	0.2172	11.195	173.1	0.525071044	0.632850708	0.009525153	0.098269247	0.030287536
2019-09-17T05:55:00	0.2190	11.192	173.1	0.531292439	0.641597584	0.009732934	0.100412887	0.030948227
2019-09-17T06:00:00	0.2199	11.191	173.1	0.534444026	0.646040532	0.009839051	0.101507679	0.031285652
2019-09-17T06:05:00	0.2187	11.190	173.1	0.530111553	0.639934913	0.009693322	0.100004213	0.030822270
2019-09-17T06:10:00	0.2178	11.191	173.1	0.527136765	0.635751487	0.009593894	0.098978432	0.030506114
2019-09-17T06:15:00	0.2168	11.192	173.1	0.523818378	0.631093346	0.009483589	0.097840441	0.030155374
2019-09-17T06:20:00	0.2180	11.194	173.2	0.527998849	0.636963090	0.009622654	0.099275153	0.030597566
2019-09-17T06:25:00	0.2182	11.197	173.2	0.528429811	0.637569005	0.009637048	0.099423653	0.030643335
2019-09-17T06:30:00	0.2191	11.205	173.2	0.531584013	0.642008290	0.009742727	0.100513923	0.030979367
2019-09-17T06:35:00	0.2205	11.213	173.3	0.536434751	0.648851128	0.009906380	0.102202294	0.031499740
2019-09-17T06:40:00	0.2185	11.220	173.3	0.529722371	0.639387200	0.009680285	0.099869711	0.030780815
2019-09-17T06:45:00	0.2184	11.227	173.4	0.529131710	0.638556171	0.009660515	0.099665751	0.030717952
2019-09-17T06:50:00	0.2192	11.229	173.4	0.531945045	0.642516931	0.009754860	0.100639098	0.031017947
2019-09-17T06:55:00	0.2196	11.235	173.4	0.533395961	0.644562125	0.009803698	0.101142941	0.031173237
2019-09-17T07:00:00	0.2188	11.241	173.5	0.530764382	0.640853947	0.009715211	0.100230037	0.030891871
2019-09-17T07:05:00	0.2182	11.250	173.5	0.528471396	0.637627479	0.009638438	0.099437988	0.030647754
2019-09-17T07:10:00	0.2176	11.260	173.6	0.526517677	0.634881771	0.009573266	0.098765623	0.030440524
2019-09-17T07:15:00	0.2182	11.270	173.6	0.528652079	0.637881565	0.009644476	0.099500285	0.030666954
2019-09-17T07:20:00	0.2184	11.281	173.7	0.529082959	0.638487594	0.009658884	0.099648926	0.030712767
2019-09-17T07:25:00	0.2184	11.292	173.7	0.529173286	0.638614657	0.009661906	0.099680101	0.030722375
2019-09-17T07:30:00	0.2205	11.296	173.8	0.536406848	0.648811711	0.009905435	0.102192542	0.031496734
2019-09-17T07:35:00	0.2217	11.297	173.7	0.540572106	0.654702780	0.010047050	0.103653567	0.031947036
2019-09-17T07:40:00	0.2211	11.296	173.8	0.538285624	0.651467175	0.009969186	0.102850255	0.031699447
2019-09-17T07:45:00	0.2192	11.300	173.8	0.531917106	0.642477564	0.009753921	0.100629408	0.031014961
2019-09-17T07:50:00	0.2187	11.312	173.9	0.530305760	0.640208277	0.009699831	0.100071366	0.030842967
2019-09-17T07:55:00	0.2188	11.316	173.9	0.530736433	0.640814595	0.009714273	0.100220364	0.030888889
2019-09-17T08:00:00	0.2186	11.318	173.9	0.529805509	0.639504194	0.009683069	0.099898436	0.030789668
2019-09-17T08:05:00	0.2191	11.330	174.0	0.531597618	0.642027456	0.009743184	0.100518638	0.030980821
2019-09-17T08:10:00	0.2179	11.339	174.0	0.527602253	0.636405624	0.009609418	0.099138592	0.030555477
2019-09-17T08:15:00	0.2174	11.349	174.1	0.525988888	0.634139158	0.009555665	0.098584037	0.030384558
2019-09-17T08:20:00	0.2177	11.361	174.2	0.526760872	0.635223382	0.009581367	0.098849193	0.030466281
2019-09-17T08:25:00	0.2188	11.369	174.2	0.530597418	0.640618867	0.009709610	0.100172257	0.030874062
2019-09-17T08:30:00	0.2191	11.367	174.2	0.531708652	0.642183876	0.009746915	0.100557128	0.030992683
2019-09-17T08:35:00	0.2195	11.364	174.2	0.533159667	0.644228931	0.009795736	0.101060799	0.031147920
2019-09-17T08:40:00	0.2197	11.374	174.3	0.533589984	0.644835747	0.009810238	0.101210413	0.031194032
2019-09-17T08:45:00	0.2187	11.385	174.3	0.530277808	0.640168929	0.009698894	0.100061699	0.030839987
2019-09-17T08:50:00	0.2164	11.403	174.4	0.522530052	0.629287286	0.009440937	0.097400410	0.030019752
2019-09-17T08:55:00	0.2178	11.422	174.5	0.527052829	0.635633553	0.009591096	0.098949566	0.030497217
2019-09-17T09:00:00	0.2198	11.432	174.6	0.533950807	0.645344682	0.009822406	0.101335951	0.031232724
2019-09-17T09:05:00	0.2209	11.434	174.5	0.537779372	0.650751354	0.009951987	0.102672819	0.031644760
2019-09-17T09:10:00	0.2218	11.428	174.5	0.540925051	0.655202614	0.010059097	0.103777849	0.031985341
2019-09-17T09:15:00	0.2197	11.427	174.5	0.533541297	0.644767082	0.009808596	0.101193479	0.031188813
2019-09-17T09:20:00	0.2201	11.431	174.6	0.534991542	0.646813217	0.009857546	0.101698483	0.031344460
2019-09-17T09:25:00	0.2197	11.435	174.6	0.533721715	0.645021539	0.009814679	0.101256236	0.031208155
2019-09-17T09:30:00	0.2192	11.439	174.6	0.532111212	0.642751071	0.009760447	0.100696736	0.031035712
2019-09-17T09:35:00	0.2189	11.447	174.7	0.530840325	0.640960880	0.009717759	0.100256323	0.030899972
2019-09-17T09:40:00	0.2183	11.464	174.8	0.528887949	0.638213295	0.009652362	0.099581640	0.030692029
2019-09-17T09:45:00	0.2176	11.473	174.8	0.526593713	0.634988573	0.009575798	0.098791748	0.030448576
2019-09-17T09:50:00	0.2175	11.485	174.9	0.526343327	0.634636895	0.009567461	0.098705733	0.030422065
2019-09-17T09:55:00	0.2186	11.488	187.0	0.529839905	0.639552598	0.009684221	0.099910321	0.030793331
2019-09-17T10:00:00	0.2170	11.497	175.0	0.524478851	0.632019763	0.009505492	0.098066413	0.030225021
2019-09-17T10:05:00	0.2137	11.516	175.1	0.513256483	0.616326685	0.009136768	0.094262346	0.029052571
2019-09-17T10:10:00	0.2138	11.531	175.2	0.513646991	0.616871048	0.009149475	0.094393451	0.029092978
2019-09-17T10:15:00	0.2139	11.545	187.3	0.514037454	0.617415473	0.009162191	0.094524632	0.029133410
2019-09-17T10:20:00	0.2164	11.565	187.4	0.522284393	0.628943059	0.009432815	0.097316618	0.029993927
2019-09-17T10:25:00	0.2128	11.588	175.4	0.510027736	0.611830567	0.009032036	0.093181854	0.028719552
2019-09-17T10:30:00	0.2139	11.584	175.4	0.513840697	0.617141119	0.009155782	0.094458518	0.029113033
2019-09-17T10:35:00	0.2127	11.580	175.4	0.509782267	0.611489089	0.009024099	0.093099963	0.028694313
2019-09-17T10:40:00	0.2132	11.581	187.5	0.511542514	0.613938887	0.009081096	0.093687995	0.028875550
2019-09-17T10:45:00	0.2123	11.587	187.5	0.508509223	0.609718907	0.008982989	0.092675840	0.028563594
2019-09-17T10:50:00	0.2139	11.585	187.6	0.514034393	0.617411205	0.009162091	0.094523604	0.029133093
2019-09-17T10:55:00	0.2130	11.592	175.6	0.510660972	0.612711701	0.009052529	0.093393273	0.028784714
2019-09-17T11:00:00	0.2113	11.612	175.7	0.504884529	0.604685888	0.008866452	0.091473547	0.028193036
2019-09-17T11:05:00	0.2114	11.642	175.8	0.505275992	0.605228939	0.008879001	0.091603016	0.028232939
2019-09-17T11:10:00	0.2113	11.660	175.9	0.504981632	0.604820581	0.008869564	0.091505654	0.028202931
2019-09-17T11:15:00	0.2107	11.664	175.9	0.502972046	0.602034604	0.008805270	0.090842344	0.027998493
2019-09-17T11:20:00	0.2099	11.665	188.0	0.500274552	0.598300060	0.008719334	0.089955758	0.027725238
2019-09-17T11:25:00	0.2098	11.673	176.0	0.499979760	0.597892290	0.008709968	0.089859131	0.027695457
2019-09-17T11:30:00	0.2091	11.685	176.1	0.497279898	0.594160967	0.008624423	0.088976578	0.027423445
2019-09-17T11:35:00	0.2089	11.686	176.1	0.496641100	0.593278979	0.008604244	0.088768397	0.027359282
2019-09-17T11:40:00	0.2080	11.695	176.1	0.493594537	0.589077093	0.008508330	0.087778875	0.027054302
2019-09-17T11:45:00	0.2120	11.698	176.2	0.507378192	0.608147292	0.008946544	0.092299841	0.028447707
2019-09-17T11:50:00	0.2105	11.699	176.2	0.502282654	0.601079619	0.008783267	0.090615349	0.027928531
2019-09-17T11:55:00	0.2101	11.707	176.2	0.500958206	0.599245990	0.008741074	0.090180044	0.027794366
2019-09-17T12:00:00	0.2070	11.720	176.3	0.490347129	0.584606394	0.008406682	0.086730190	0.026731087
2019-09-17T12:05:00	0.2062	11.731	176.4	0.487294921	0.580412127	0.008311697	0.085750247	0.026429059
2019-09-17T12:10:00	0.2048	11.740	176.4	0.482514430	0.573857871	0.008164004	0.084226520	0.025959432
2019-09-17T12:15:00	0.2045	11.730	188.5	0.481527573	0.572507121	0.008133678	0.083913656	0.025863004
2019-09-17T12:20:00	0.2062	11.715	188.5	0.487441328	0.580613146	0.008316241	0.085797126	0.026443508
2019-09-17T12:25:00	0.2055	11.706	188.5	0.485076445	0.577368232	0.008242994	0.085041450	0.026210601
2019-09-17T12:30:00	0.2053	11.697	176.3	0.484435351	0.576489341	0.008223193	0.084837165	0.026147638
2019-09-17T12:35:00	0.2035	11.702	188.4	0.478268594	0.568051950	0.008033928	0.082884555	0.025545825
2019-09-17T12:40:00	0.2027	11.704	188.5	0.475205489	0.563872264	0.007940728	0.081923031	0.025249474
2019-09-17T12:45:00	0.2032	11.705	176.4	0.476983705	0.566297776	0.007994768	0.082480547	0.025421305
2019-09-17T12:50:00	0.2015	11.720	176.4	0.471149718	0.558349551	0.007818152	0.080658432	0.024859712
2019-09-17T12:55:00	0.2030	11.718	188.6	0.476390039	0.565487727	0.007976706	0.082294209	0.025363875
2019-09-17T13:00:00	0.2031	11.719	176.5	0.476784797	0.566026337	0.007988714	0.082418091	0.025402056
2019-09-17T13:05:00	0.2018	11.711	176.4	0.472335690	0.559963127	0.007853898	0.081027216	0.024973375
2019-09-17T13:10:00	0.2013	11.711	176.5	0.470653115	0.557674229	0.007803208	0.080504257	0.024812194
2019-09-17T13:15:00	0.1993	11.710	188.6	0.463419851	0.547860028	0.007587139	0.078275109	0.024125149
2019-09-17T13:20:00	0.1969	11.707	188.6	0.455127155	0.536659363	0.007343096	0.075757364	0.023349155
2019-09-17T13:25:00	0.1961	11.706	188.7	0.452391243	0.532975978	0.007263441	0.074935580	0.023095874
2019-09-17T13:30:00	0.1969	11.703	188.7	0.455225695	0.536792138	0.007345973	0.075787044	0.023358303
2019-09-17T13:35:00	0.1976	11.699	188.7	0.457710034	0.540142140	0.007418686	0.076537216	0.023589513
2019-09-17T13:40:00	0.1945	11.694	188.7	0.446962106	0.525684149	0.007106635	0.073317840	0.022597270
2019-09-17T13:45:00	0.1938	11.691	188.7	0.444568644	0.522476878	0.007038038	0.072610140	0.022379150
2019-09-17T13:50:00	0.1912	11.694	188.8	0.436494181	0.509950086	0.006785866	0.070008529	0.021577309
2019-09-17T13:55:00	0.1942	11.701	188.8	0.445714619	0.524011937	0.007070841	0.072948564	0.022483456
2019-09-17T14:00:00	0.1925	11.700	188.8	0.440106476	0.516135608	0.006906017	0.071248103	0.021959357
2019-09-17T14:05:00	0.1910	11.701	188.8	0.436065277	0.509218073	0.006771686	0.069862232	0.021532218
2019-09-17T14:10:00	0.1927	11.708	188.9	0.440726587	0.517201129	0.006926773	0.071462238	0.022025356
2019-09-17T14:15:00	0.1922	11.715	189.0	0.439406752	0.514934586	0.006882642	0.071006950	0.021885032
2019-09-17T14:20:00	0.1934	11.723	189.0	0.443168801	0.520603158	0.006998069	0.072197789	0.022252060
2019-09-17T14:25:00	0.1921	11.728	189.1	0.438940108	0.514134387	0.006867080	0.070846403	0.021835550
2019-09-17T14:30:00	0.1901	11.735	189.1	0.433533026	0.504906728	0.006688334	0.069002304	0.021267180
2019-09-17T14:35:00	0.1902	11.741	189.2	0.433844333	0.505435787	0.006698547	0.069107670	0.021299655
2019-09-17T14:40:00	0.1905	11.745	189.2	0.434700735	0.506892618	0.006726692	0.069398038	0.021389149
2019-09-17T14:45:00	0.1924	11.751	189.2	0.439909301	0.515797034	0.006899425	0.071180098	0.021938398
2019-09-17T14:50:00	0.1923	11.751	189.2	0.439676065	0.515396678	0.006891633	0.071099707	0.021913620
2019-09-17T14:55:00	0.1931	11.748	189.2	0.442117754	0.519197319	0.006968132	0.071888936	0.022156868
2019-09-17T15:00:00	0.1909	11.752	189.3	0.435672388	0.508547979	0.006758712	0.069728384	0.021490965
2019-09-17T15:05:00	0.1891	11.755	189.3	0.430801093	0.500275453	0.006599115	0.068081853	0.020983488
2019-09-17T15:10:00	0.1905	11.754	189.3	0.434659711	0.506822785	0.006725342	0.069384112	0.021384857
2019-09-17T15:15:00	0.1898	11.752	189.3	0.432789470	0.503644166	0.006663978	0.068751036	0.021189737
2019-09-17T15:20:00	0.1871	11.750	189.4	0.425444915	0.491255696	0.006426312	0.066299075	0.020434019
2019-09-17T15:25:00	0.1885	11.749	189.3	0.429316079	0.497766717	0.006550925	0.067584681	0.020830255
2019-09-17T15:30:00	0.1889	11.747	189.3	0.430448084	0.499678536	0.006587640	0.067963467	0.020947001
2019-09-17T15:35:00	0.1896	11.743	189.4	0.432398249	0.502980487	0.006651186	0.068619055	0.021149059
2019-09-17T15:40:00	0.1913	11.741	189.4	0.436797628	0.510468291	0.006795910	0.070112146	0.021609244
2019-09-17T15:45:00	0.1937	11.741	189.4	0.444009291	0.521727987	0.007022054	0.072445234	0.022328325
2019-09-17T15:50:00	0.1940	11.736	189.4	0.445106040	0.523196604	0.007053411	0.072768745	0.022428034
2019-09-17T15:55:00	0.1946	11.730	189.4	0.447249074	0.526068992	0.007114881	0.073402917	0.022623492
2019-09-17T16:00:00	0.1959	11.724	189.4	0.451830079	0.532221206	0.007247155	0.074767567	0.023044090
2019-09-17T16:05:00	0.1953	11.714	189.4	0.449656218	0.529299686	0.007184237	0.074118454	0.022844027
2019-09-17T16:10:00	0.1984	11.698	189.4	0.460361887	0.543723408	0.007496690	0.077341974	0.023837547
2019-09-17T16:15:00	0.1996	11.686	189.3	0.464793196	0.549720212	0.007627933	0.078695976	0.024254864
2019-09-17T16:20:00	0.1966	11.673	189.2	0.454283772	0.535523278	0.007318496	0.075503569	0.023270933
2019-09-17T16:25:00	0.1958	11.657	189.2	0.451414786	0.531662794	0.007235115	0.074643346	0.023005804
2019-09-17T16:30:00	0.1971	11.646	189.1	0.455857898	0.537644168	0.007364443	0.075977600	0.023417034
2019-09-17T16:35:00	0.2000	11.630	176.9	0.465850135	0.551152845	0.007659402	0.079020635	0.024354927
2019-09-17T16:40:00	0.1988	11.611	176.6	0.461949258	0.545869779	0.007543575	0.077825672	0.023986628
2019-09-17T16:45:00	0.1997	11.588	176.3	0.464990808	0.549987999	0.007633812	0.078756626	0.024273557
2019-09-17T16:50:00	0.1962	11.568	176.3	0.452741174	0.533446764	0.007273605	0.075040444	0.023128193
2019-09-17T16:55:00	0.1966	11.552	176.3	0.454050912	0.535209701	0.007311710	0.075433569	0.023249359
2019-09-17T17:00:00	0.1946	11.536	176.3	0.447346937	0.526200248	0.007117694	0.073431941	0.022632437
2019-09-17T17:05:00	0.1943	11.521	188.4	0.446217132	0.524685390	0.007085249	0.073097206	0.022529269
2019-09-17T17:10:00	0.1929	11.504	176.2	0.441245164	0.518030837	0.006943326	0.071633015	0.022077991
2019-09-17T17:15:00	0.1942	11.486	176.1	0.445701772	0.523994723	0.007070473	0.072944766	0.022482285
2019-09-17T17:20:00	0.1935	11.470	188.1	0.443523929	0.521078358	0.007008198	0.072302290	0.022284268
2019-09-17T17:25:00	0.1935	11.456	188.1	0.443440669	0.520966938	0.007005823	0.072277783	0.022276715
2019-09-17T17:30:00	0.1944	11.441	176.0	0.446499026	0.525063264	0.007093337	0.073180655	0.022554988
2019-09-17T17:35:00	0.1929	11.428	188.0	0.441178035	0.517941124	0.006941419	0.071613345	0.022071929
2019-09-17T17:40:00	0.1932	11.410	175.9	0.442492301	0.519698199	0.006978793	0.071998923	0.022190767
2019-09-17T17:45:00	0.1921	11.390	187.9	0.439125821	0.514452773	0.006873271	0.070910270	0.021855234
2019-09-17T17:50:00	0.1908	11.368	187.8	0.435523593	0.508294312	0.006753802	0.069677734	0.021475354
2019-09-17T17:55:00	0.1893	11.352	175.7	0.431367487	0.501233919	0.006617552	0.068272065	0.021042113
2019-09-17T18:00:00	0.1891	11.340	187.7	0.431029264	0.500661462	0.006606539	0.068158441	0.021007093
2019-09-17T18:05:00	0.1896	11.332	175.6	0.432329316	0.502863593	0.006648933	0.068595817	0.021141897
2019-09-17T18:10:00	0.1901	11.322	175.6	0.433628348	0.505068698	0.006691460	0.069034557	0.021277121
2019-09-17T18:15:00	0.1893	11.312	187.6	0.431380138	0.501255336	0.006617964	0.068276317	0.021043424
2019-09-17T18:20:00	0.1905	11.303	175.5	0.434588866	0.506702201	0.006723011	0.069360066	0.021377446
2019-09-17T18:25:00	0.1904	11.295	175.5	0.434523884	0.506591607	0.006720874	0.069338015	0.021370650
2019-09-17T18:30:00	0.1896	11.285	175.4	0.432276889	0.502774696	0.006647220	0.068578145	0.021136450
2019-09-17T18:35:00	0.1909	11.273	175.4	0.435756267	0.508691003	0.006761480	0.069756947	0.021499768
2019-09-17T18:40:00	0.1911	11.257	175.3	0.436235982	0.509509355	0.006777327	0.069920436	0.021550158
2019-09-17T18:45:00	0.1909	11.245	175.3	0.435898749	0.508933998	0.006766185	0.069805481	0.021514727
2019-09-17T18:50:00	0.1896	11.233	175.2	0.432289532	0.502796133	0.006647633	0.068582407	0.021137764
2019-09-17T18:55:00	0.1893	11.222	175.2	0.431405438	0.501298171	0.006618789	0.068284821	0.021046045
2019-09-17T19:00:00	0.1900	11.213	175.1	0.433250825	0.504427369	0.006679084	0.068906875	0.021237768
2019-09-17T19:05:00	0.1905	11.204	175.1	0.434821671	0.507098507	0.006730672	0.069439102	0.021401806
2019-09-17T19:10:00	0.1891	11.197	175.0	0.430936978	0.500505320	0.006603535	0.068127458	0.020997544
2019-09-17T19:15:00	0.1903	11.190	175.0	0.434146565	0.505949682	0.006708471	0.069210059	0.021331212
2019-09-17T19:20:00	0.1889	11.183	175.0	0.430260286	0.499361121	0.006581540	0.067900538	0.020927605
2019-09-17T19:25:00	0.1911	11.173	174.9	0.436468557	0.509906339	0.006785018	0.069999784	0.021574613
2019-09-17T19:30:00	0.1901	11.158	174.9	0.433678880	0.505154570	0.006693117	0.069051658	0.021282392
2019-09-17T19:35:00	0.1890	11.144	174.8	0.430611323	0.499954520	0.006592945	0.068018196	0.020963869
2019-09-17T19:40:00	0.1932	11.127	174.8	0.442240062	0.519360869	0.006971613	0.071924843	0.022167935
2019-09-17T19:45:00	0.1935	11.110	174.7	0.443553910	0.521118481	0.007009054	0.072311116	0.022286988
2019-09-17T19:50:00	0.1937	11.090	174.6	0.444169020	0.521941815	0.007026616	0.072492306	0.022342833
2019-09-17T19:55:00	0.1932	11.066	174.5	0.442339535	0.519493893	0.006974444	0.071954053	0.022176938
2019-09-17T20:00:00	0.1938	11.048	174.4	0.444351676	0.522186360	0.007031836	0.072546152	0.022359429
2019-09-17T20:05:00	0.1947	11.029	174.4	0.447409201	0.526283761	0.007119485	0.073450410	0.022638130
2019-09-17T20:10:00	0.1936	11.013	174.3	0.443836029	0.521496065	0.007017106	0.072394191	0.022312593
2019-09-17T20:15:00	0.1945	10.998	174.3	0.446894025	0.525592857	0.007104679	0.073297664	0.022591052
2019-09-17T20:20:00	0.1925	10.980	174.2	0.440106506	0.516135661	0.006906018	0.071248114	0.021959361
2019-09-17T20:25:00	0.1912	10.962	174.1	0.436506391	0.509970933	0.006786270	0.070012697	0.021578593
2019-09-17T20:30:00	0.1936	10.943	174.0	0.443852205	0.521517716	0.007017568	0.072398955	0.022314061
2019-09-17T20:35:00	0.1925	10.926	174.0	0.440183856	0.516268510	0.006908605	0.071274802	0.021967586
2019-09-17T20:40:00	0.1905	10.910	173.9	0.434677245	0.506852631	0.006725919	0.069390064	0.021386692
2019-09-17T20:45:00	0.1919	10.896	173.8	0.438423563	0.513249330	0.006849880	0.070668948	0.021780856
2019-09-17T20:50:00	0.1951	10.880	173.7	0.449101979	0.528555422	0.007168239	0.073953402	0.022793157
2019-09-17T20:55:00	0.1914	10.864	173.7	0.437205755	0.511165667	0.006809432	0.070251656	0.021652243
2019-09-17T21:00:00	0.1934	10.846	173.6	0.443003408	0.520381876	0.006993354	0.072149145	0.022237067
2019-09-17T21:05:00	0.1936	10.831	173.6	0.443618618	0.521205080	0.007010900	0.072330166	0.022292860
2019-09-17T21:10:00	0.1919	10.817	173.5	0.438643239	0.513625635	0.006857192	0.070744383	0.021804106
2019-09-17T21:15:00	0.1934	10.803	173.4	0.443102859	0.520514930	0.006996189	0.072178392	0.022246081
2019-09-17T21:20:00	0.1920	10.791	173.4	0.438785475	0.513869358	0.006861929	0.070793252	0.021819168
2019-09-17T21:25:00	0.1913	10.778	173.3	0.436816433	0.510500414	0.006796532	0.070118571	0.021611225
2019-09-17T21:30:00	0.1890	10.761	173.3	0.430752392	0.500193081	0.006597531	0.068065513	0.020978452
2019-09-17T21:35:00	0.1900	10.746	173.2	0.433416939	0.504709510	0.006684528	0.068963038	0.021255078
2019-09-17T21:40:00	0.1897	10.731	173.2	0.432533447	0.503209793	0.006655605	0.068664647	0.021163111
2019-09-17T21:45:00	0.1900	10.716	173.1	0.433286879	0.504488599	0.006680265	0.068919062	0.021241524
2019-09-17T21:50:00	0.1880	10.702	173.1	0.427757315	0.495139983	0.006500572	0.067065208	0.020670148
2019-09-17T21:55:00	0.1913	10.685	184.8	0.436971433	0.510765219	0.006801666	0.070171537	0.021627549
2019-09-17T22:00:00	0.1905	10.667	184.8	0.434727745	0.506938597	0.006727581	0.069407208	0.021391976
2019-09-17T22:05:00	0.1893	10.649	184.7	0.431345527	0.501196740	0.006616837	0.068264684	0.021039838
2019-09-17T22:10:00	0.1904	10.636	184.6	0.434510856	0.506569437	0.006720445	0.069333595	0.021369287
2019-09-17T22:15:00	0.1907	10.624	172.7	0.435219945	0.507776843	0.006743790	0.069574442	0.021443519
2019-09-17T22:20:00	0.1919	10.610	184.5	0.438649829	0.513636926	0.006857411	0.070746647	0.021804804
2019-09-17T22:25:00	0.1912	10.596	184.4	0.436637216	0.510194320	0.006790599	0.070057360	0.021592359
2019-09-17T22:30:00	0.1907	10.580	184.4	0.435167176	0.507686943	0.006742051	0.069556501	0.021437989
2019-09-17T22:35:00	0.1908	10.566	184.4	0.435603623	0.508430739	0.006756443	0.069704974	0.021483750
2019-09-17T22:40:00	0.1912	10.550	172.4	0.436584493	0.510104288	0.006788854	0.070039358	0.021586810
2019-09-17T22:45:00	0.1908	10.536	172.3	0.435659246	0.508525572	0.006758278	0.069723910	0.021489586
2019-09-17T22:50:00	0.1920	10.521	172.3	0.438816391	0.513922340	0.006862958	0.070803877	0.021822442
2019-09-17T22:55:00	0.1914	10.511	172.3	0.437076145	0.510944149	0.006805136	0.070207334	0.021638582
2019-09-17T23:00:00	0.1899	10.501	172.2	0.433153226	0.504261633	0.006675886	0.068873889	0.021227601
2019-09-17T23:05:00	0.1915	10.490	172.1	0.437403833	0.511504295	0.006816001	0.070319426	0.021673130
2019-09-17T23:10:00	0.1912	10.478	172.1	0.436751260	0.510389091	0.006794374	0.070096307	0.021604363
2019-09-17T23:15:00	0.1917	10.467	172.1	0.438003472	0.512530088	0.006835911	0.070524830	0.021736437
2019-09-17T23:20:00	0.1916	10.457	172.0	0.437623211	0.511879465	0.006823281	0.070394531	0.021696278
2019-09-17T23:25:00	0.1914	10.447	172.0	0.437242863	0.511229098	0.006810663	0.070264350	0.021656155
2019-09-17T23:30:00	0.1925	10.435	171.9	0.440125398	0.516168106	0.006906650	0.071254632	0.021961369
2019-09-17T23:35:00	0.1901	10.423	171.9	0.433757269	0.505287797	0.006695689	0.069078193	0.021290570
2019-09-17T23:40:00	0.1909	10.411	171.8	0.435828975	0.508814995	0.006763881	0.069781711	0.021507401
2019-09-17T23:45:00	0.1920	10.396	171.7	0.438713943	0.513746780	0.006859546	0.070768673	0.021811592
2019-09-17T23:50:00	0.1928	10.386	171.7	0.441051042	0.517759059	0.006937648	0.071574434	0.022059936
2019-09-17T23:55:00	0.1903	10.377	171.7	0.434141284	0.505940702	0.006708298	0.069208269	0.021330661
2019-09-18T00:00:00	0.1928	10.373	171.7	0.441113161	0.517854428	0.006939577	0.071594339	0.022066071
2019-09-18T00:05:00	0.1912	10.366	171.6	0.436648686	0.510213907	0.006790979	0.070061276	0.021593566
2019-09-18T00:10:00	0.1910	10.356	171.6	0.435995818	0.509099576	0.006769391	0.069838558	0.021524922
2019-09-18T00:15:00	0.1904	10.347	171.6	0.434525211	0.506593866	0.006720917	0.069338465	0.021370788
2019-09-18T00:20:00	0.1908	10.339	171.5	0.435506716	0.508265545	0.006753246	0.069671991	0.021473584
2019-09-18T00:25:00	0.1913	10.325	171.5	0.437032036	0.510868772	0.006803674	0.070192253	0.021633934
2019-09-18T00:30:00	0.1909	10.319	171.4	0.435834713	0.508824780	0.006764070	0.069783665	0.021508003
2019-09-18T00:35:00	0.1918	10.306	171.4	0.438175828	0.512825120	0.006841640	0.070583937	0.021754655
2019-09-18T00:40:00	0.1922	10.299	171.4	0.439426975	0.514969278	0.006883317	0.071013913	0.021887178
2019-09-18T00:45:00	0.1920	10.288	171.3	0.438775191	0.513851734	0.006861586	0.070789718	0.021818079
2019-09-18T00:50:00	0.1923	10.277	171.2	0.439482472	0.515064487	0.006885169	0.071033022	0.021893067
2019-09-18T00:55:00	0.1932	10.269	171.2	0.442379102	0.519546807	0.006975570	0.071965674	0.022180520
2019-09-18T01:00:00	0.1918	10.259	171.1	0.438178692	0.512830024	0.006841735	0.070584920	0.021754958
2019-09-18T01:05:00	0.1932	10.252	171.1	0.442450441	0.519642213	0.006977601	0.071986627	0.022186978
2019-09-18T01:10:00	0.1929	10.241	171.1	0.441263252	0.518055011	0.006943840	0.071638316	0.022079625
2019-09-18T01:15:00	0.1925	10.231	171.0	0.440028753	0.516002136	0.006903418	0.071221292	0.021951094
2019-09-18T01:20:00	0.1932	10.221	171.0	0.442382782	0.519551728	0.006975675	0.071966754	0.022180853
2019-09-18T01:25:00	0.1932	10.210	170.9	0.442243781	0.519365843	0.006971719	0.071925935	0.022168272
2019-09-18T01:30:00	0.1927	10.197	170.9	0.440790960	0.517311801	0.006928930	0.071484489	0.022032214
2019-09-18T01:35:00	0.1941	10.187	170.8	0.445457721	0.523667727	0.007063481	0.072872631	0.022460053
2019-09-18T01:40:00	0.1941	10.179	170.8	0.445318848	0.523481676	0.007059504	0.072831599	0.022447406
2019-09-18T01:45:00	0.1932	10.169	170.8	0.442386462	0.519556649	0.006975780	0.071967835	0.022181186
2019-09-18T01:50:00	0.1953	10.158	170.7	0.449575755	0.529191620	0.007181914	0.074094481	0.022836639
2019-09-18T01:55:00	0.1932	10.149	170.7	0.442457800	0.519652056	0.006977811	0.071988789	0.022187644
2019-09-18T02:00:00	0.1937	10.140	170.6	0.444065053	0.521802633	0.007023646	0.072461665	0.022333389
2019-09-18T02:05:00	0.1953	10.129	170.5	0.449508240	0.529100949	0.007179964	0.074074368	0.022830440
2019-09-18T02:10:00	0.1953	10.119	170.5	0.449718123	0.529382831	0.007186025	0.074136900	0.022849713
2019-09-18T02:15:00	0.1947	10.111	170.4	0.447487267	0.526388474	0.007121729	0.073473569	0.022645268
2019-09-18T02:20:00	0.1949	10.103	170.4	0.448394764	0.527606086	0.007147850	0.073743056	0.022728326
2019-09-18T02:25:00	0.1958	10.097	170.4	0.451393044	0.531633562	0.007234485	0.074636846	0.023003801
2019-09-18T02:30:00	0.1958	10.092	170.4	0.451254416	0.531447193	0.007230468	0.074595404	0.022991028
2019-09-18T02:35:00	0.1941	10.083	170.3	0.445536346	0.523773069	0.007065733	0.072895866	0.022467214
2019-09-18T02:40:00	0.1940	10.078	170.3	0.445048438	0.523119447	0.007051763	0.072751737	0.022422792
2019-09-18T02:45:00	0.1953	10.070	170.3	0.449792976	0.529483370	0.007188188	0.074159208	0.022856588
2019-09-18T02:50:00	0.1950	10.063	170.3	0.448608390	0.527892806	0.007154006	0.073806563	0.022747900
2019-09-18T02:55:00	0.1964	10.056	170.2	0.453347895	0.534263256	0.007291245	0.075222429	0.023184283
2019-09-18T03:00:00	0.1934	10.046	170.2	0.443096094	0.520505879	0.006995996	0.072176403	0.022245468
2019-09-18T03:05:00	0.1947	10.039	170.1	0.447494615	0.526398330	0.007121941	0.073475749	0.022645940
2019-09-18T03:10:00	0.1944	10.031	170.1	0.446658122	0.525276556	0.007097904	0.073227772	0.022569511
2019-09-18T03:15:00	0.1944	10.023	170.0	0.446519299	0.525090441	0.007093919	0.073186658	0.022556839
2019-09-18T03:20:00	0.1960	10.015	170.0	0.451958503	0.532393916	0.007250881	0.074806001	0.023055936
2019-09-18T03:25:00	0.1953	10.007	170.1	0.449729138	0.529397625	0.007186344	0.074140183	0.022850724
2019-09-18T03:30:00	0.1956	10.000	170.3	0.450636029	0.530616024	0.007212563	0.074410681	0.022934095
2019-09-18T03:35:00	0.1958	9.990	170.1	0.451542674	0.531834740	0.007238822	0.074681589	0.023017591
2019-09-18T03:40:00	0.1945	9.980	170.0	0.446871858	0.525563134	0.007104042	0.073291095	0.022589027
2019-09-18T03:45:00	0.1951	9.970	169.8	0.448825674	0.528184475	0.007160270	0.073871186	0.022767817
2019-09-18T03:50:00	0.1951	9.963	169.8	0.449035600	0.528466301	0.007166324	0.073933647	0.022787068
2019-09-18T03:55:00	0.1958	9.956	169.8	0.451336575	0.531557645	0.007232848	0.074619964	0.022998598
2019-09-18T04:00:00	0.1953	9.947	169.7	0.449803991	0.529498165	0.007188506	0.074162491	0.022857600
2019-09-18T04:05:00	0.1953	9.940	169.7	0.449711530	0.529373975	0.007185835	0.074134935	0.022849107
2019-09-18T04:10:00	0.1951	9.933	169.6	0.448921833	0.528313564	0.007163043	0.073899793	0.022776634
2019-09-18T04:15:00	0.1968	9.923	169.6	0.454751377	0.536153098	0.007332130	0.075644231	0.023314287
2019-09-18T04:20:00	0.1967	9.916	169.5	0.454659051	0.536028731	0.007329437	0.075616448	0.023305724
2019-09-18T04:25:00	0.1976	9.908	169.5	0.457697863	0.540125717	0.007418329	0.076533532	0.023588378
2019-09-18T04:30:00	0.1987	9.901	169.5	0.461428716	0.545165705	0.007528184	0.077666891	0.023937690
2019-09-18T04:35:00	0.1995	9.896	169.4	0.464114358	0.548800544	0.007607755	0.078487805	0.024190704
2019-09-18T04:40:00	0.1983	9.888	169.4	0.460202140	0.543507517	0.007491980	0.077293378	0.023822570
2019-09-18T04:45:00	0.2002	9.879	169.3	0.466705866	0.552313397	0.007684927	0.079283971	0.024436090
2019-09-18T04:50:00	0.1992	9.873	169.3	0.463143857	0.547486376	0.007578953	0.078190664	0.024099122
2019-09-18T04:55:00	0.2004	9.869	169.3	0.467562203	0.553475354	0.007710512	0.079547926	0.024517443
2019-09-18T05:00:00	0.2011	9.865	169.2	0.469896498	0.556645694	0.007780466	0.080269638	0.024739882
2019-09-18T05:05:00	0.2020	9.862	169.2	0.472921600	0.560760700	0.007871587	0.081209714	0.025029623
2019-09-18T05:10:00	0.2009	9.859	169.2	0.469019594	0.555454214	0.007754151	0.079998142	0.024656204
2019-09-18T05:15:00	0.2017	9.853	169.2	0.472045482	0.559568180	0.007845143	0.080936897	0.024945538
2019-09-18T05:20:00	0.2010	9.848	169.1	0.469528840	0.556146070	0.007769428	0.080155753	0.024704782
2019-09-18T05:25:00	0.2020	9.843	169.1	0.472900466	0.560731927	0.007870949	0.081203128	0.025027593
2019-09-18T05:30:00	0.2033	9.838	169.1	0.477306070	0.566737755	0.008004584	0.082581816	0.025452518
2019-09-18T05:35:00	0.2014	9.832	169.1	0.470985382	0.558126051	0.007813205	0.080607396	0.024843982
2019-09-18T05:40:00	0.2017	9.829	169.0	0.471932490	0.559414427	0.007841736	0.080901746	0.024934704
2019-09-18T05:45:00	0.2002	9.824	168.8	0.466642347	0.552227233	0.007683031	0.079264410	0.024430061
2019-09-18T05:50:00	0.1997	9.819	168.9	0.464815756	0.549750782	0.007628604	0.078702899	0.024256998
2019-09-18T05:55:00	0.1991	9.812	168.9	0.462988175	0.547275635	0.007574338	0.078143050	0.024084447
2019-09-18T06:00:00	0.2013	9.808	168.9	0.470525952	0.557501333	0.007799383	0.080464801	0.024800033
2019-09-18T06:05:00	0.2005	9.807	168.9	0.467661479	0.553610099	0.007713480	0.079578555	0.024526883
2019-09-18T06:10:00	0.2015	9.809	168.9	0.471381321	0.558664570	0.007825126	0.080730385	0.024881889
2019-09-18T06:15:00	0.2026	9.809	168.9	0.475097069	0.563724460	0.007937439	0.081889099	0.025239016
2019-09-18T06:20:00	0.2030	9.812	168.9	0.476388864	0.565486124	0.007976671	0.082293841	0.025363761
2019-09-18T06:25:00	0.2018	9.819	168.9	0.472144626	0.559703099	0.007848134	0.080967747	0.024955046
2019-09-18T06:30:00	0.2030	9.828	168.9	0.476551214	0.565707620	0.007981608	0.082344778	0.025379460
2019-09-18T06:35:00	0.2025	9.839	169.0	0.474729977	0.563224086	0.007926308	0.081774262	0.025203622
2019-09-18T06:40:00	0.2008	9.846	169.0	0.468751085	0.555089503	0.007746101	0.079915101	0.024630610
2019-09-18T06:45:00	0.2021	9.856	169.1	0.473162098	0.561088159	0.007878854	0.081284683	0.025052729
2019-09-18T06:50:00	0.2023	9.863	169.1	0.474108596	0.562377343	0.007907484	0.081580059	0.025143766
2019-09-18T06:55:00	0.2026	9.868	169.1	0.475054829	0.563666878	0.007936158	0.081875881	0.025234942
2019-09-18T07:00:00	0.2053	9.876	169.1	0.484291276	0.576291870	0.008218746	0.084791289	0.026133499
2019-09-18T07:05:00	0.2045	9.886	169.2	0.481438441	0.572385162	0.008130942	0.083885427	0.025854303
2019-09-18T07:10:00	0.2038	9.894	169.2	0.479274325	0.569425926	0.008064646	0.083201468	0.025643501
2019-09-18T07:15:00	0.2024	9.902	169.2	0.474341720	0.562694981	0.007914544	0.081652892	0.025166214
2019-09-18T07:20:00	0.2047	9.909	169.2	0.482199481	0.573426704	0.008154319	0.084126609	0.025928638
2019-09-18T07:25:00	0.2040	9.921	169.3	0.479690386	0.569994562	0.008077371	0.083332747	0.025683962
2019-09-18T07:30:00	0.2070	9.938	169.3	0.490292128	0.584530747	0.008404966	0.086712482	0.026725629
2019-09-18T07:35:00	0.2068	9.948	169.4	0.489511870	0.583457861	0.008380636	0.086461472	0.026648265
2019-09-18T07:40:00	0.2045	9.957	169.4	0.481487876	0.572452803	0.008132459	0.083901084	0.025859129
2019-09-18T07:45:00	0.2063	9.965	169.4	0.487950816	0.581312813	0.008332063	0.085960363	0.026493819
2019-09-18T07:50:00	0.2053	9.977	169.5	0.484411124	0.576456134	0.008222445	0.084829449	0.026145260
2019-09-18T07:55:00	0.2076	9.996	169.6	0.492245615	0.587219009	0.008466034	0.087342507	0.026919809
2019-09-18T08:00:00	0.2071	10.012	169.6	0.490432789	0.584724214	0.008409356	0.086757772	0.026739588
2019-09-18T08:05:00	0.2100	10.023	169.7	0.500657794	0.598830283	0.008731517	0.090081454	0.027763979
2019-09-18T08:10:00	0.2088	10.035	169.7	0.496443807	0.593006643	0.008598016	0.088704149	0.027339480
2019-09-18T08:15:00	0.2077	10.054	169.8	0.492568794	0.587664042	0.008476158	0.087446955	0.026952001
2019-09-18T08:20:00	0.2092	10.074	169.9	0.497636347	0.594653259	0.008635693	0.089092848	0.027459281
2019-09-18T08:25:00	0.2090	10.100	170.0	0.497201495	0.594052699	0.008621945	0.088951014	0.027415566
2019-09-18T08:30:00	0.2076	10.116	170.0	0.492294893	0.587286862	0.008467577	0.087358430	0.026924716
2019-09-18T08:35:00	0.2083	10.130	170.1	0.494612218	0.590479872	0.008540310	0.088108804	0.027155989
2019-09-18T08:40:00	0.2087	10.143	170.1	0.495896607	0.592251470	0.008580756	0.088526077	0.027284597
2019-09-18T08:45:00	0.2094	10.159	170.2	0.498555071	0.595922580	0.008664774	0.089392877	0.027551753
2019-09-18T08:50:00	0.2077	10.173	170.3	0.492618067	0.587731901	0.008477702	0.087462885	0.026956911
2019-09-18T08:55:00	0.2068	10.184	170.3	0.489427747	0.583342218	0.008378015	0.086434431	0.026639931
2019-09-18T09:00:00	0.2086	10.201	170.4	0.495875616	0.592222506	0.008580094	0.088519249	0.027282492
2019-09-18T09:05:00	0.2065	10.212	170.4	0.488555888	0.582144012	0.008350874	0.086154424	0.026553630
2019-09-18T09:10:00	0.2088	10.220	170.5	0.496380844	0.592919737	0.008596029	0.088683650	0.027333162
2019-09-18T09:15:00	0.2072	10.229	170.5	0.490784417	0.585207916	0.008420334	0.086871039	0.026774498
2019-09-18T09:20:00	0.2068	10.242	170.6	0.489659820	0.583661262	0.008385246	0.086509040	0.026662926
2019-09-18T09:25:00	0.2065	10.259	170.6	0.488534851	0.582115109	0.008350219	0.086147673	0.026551549
2019-09-18T09:30:00	0.2068	10.280	170.7	0.489477066	0.583410016	0.008379551	0.086450284	0.026644817
2019-09-18T09:35:00	0.2073	10.299	170.8	0.491107735	0.585652761	0.008430436	0.086975251	0.026806617
2019-09-18T09:40:00	0.2058	10.315	170.9	0.486192328	0.578898805	0.008277516	0.085397607	0.026320372
2019-09-18T09:45:00	0.2061	10.321	170.9	0.487135193	0.580192838	0.008306741	0.085699117	0.026413300
2019-09-18T09:50:00	0.2075	10.335	171.0	0.491866611	0.586697209	0.008454168	0.087220097	0.026882081
2019-09-18T09:55:00	0.2071	10.358	171.1	0.490397995	0.584676356	0.008408270	0.086746568	0.026736135
2019-09-18T10:00:00	0.2057	10.376	171.2	0.485826436	0.578396828	0.008266189	0.085280743	0.026284353
2019-09-18T10:05:00	0.2056	10.388	171.2	0.485283150	0.577651678	0.008249383	0.085107368	0.026230917
2019-09-18T10:10:00	0.2051	10.401	171.3	0.483704712	0.575488091	0.008200655	0.084604643	0.026075973
2019-09-18T10:15:00	0.2063	10.416	171.3	0.487644805	0.580892550	0.008322558	0.085862300	0.026463595
2019-09-18T10:20:00	0.2080	10.417	171.3	0.493645354	0.589147120	0.008509926	0.087795335	0.027059375
2019-09-18T10:25:00	0.2078	10.422	171.4	0.493103316	0.588400288	0.008492915	0.087619843	0.027005287
2019-09-18T10:30:00	0.2049	10.428	171.4	0.482910585	0.574400323	0.008176193	0.084352276	0.025998191
2019-09-18T10:35:00	0.2064	10.436	171.4	0.488230336	0.581696759	0.008340750	0.086049985	0.026521441
2019-09-18T10:40:00	0.2064	10.454	171.5	0.488032087	0.581424439	0.008334589	0.085986416	0.026501848
2019-09-18T10:45:00	0.2049	10.480	171.6	0.483005229	0.574529936	0.008179106	0.084382333	0.026007455
2019-09-18T10:50:00	0.2040	10.495	171.7	0.479698760	0.570006008	0.008077627	0.083335391	0.025684777
2019-09-18T10:55:00	0.2045	10.501	171.8	0.481572391	0.572568449	0.008135054	0.083927853	0.025867379
2019-09-18T11:00:00	0.2048	10.538	171.9	0.482754717	0.574186879	0.008171396	0.084302786	0.025982937
2019-09-18T11:05:00	0.2044	10.583	172.1	0.481175101	0.572024868	0.008122860	0.083802052	0.025828606
2019-09-18T11:10:00	0.2040	10.612	172.3	0.479940225	0.570336087	0.008085017	0.083411628	0.025708274
2019-09-18T11:15:00	0.2017	10.622	172.3	0.471786156	0.559215318	0.007837325	0.080856232	0.024920676
2019-09-18T11:20:00	0.2034	10.638	172.4	0.477814812	0.567432281	0.008020087	0.082741760	0.025501814
2019-09-18T11:25:00	0.2022	10.651	172.4	0.473465069	0.561500745	0.007888013	0.081379174	0.025081852
2019-09-18T11:30:00	0.2028	10.655	172.5	0.475688064	0.564530254	0.007955376	0.082074145	0.025296049
2019-09-18T11:35:00	0.2026	10.664	172.5	0.475143149	0.563787278	0.007938837	0.081903520	0.025243460
2019-09-18T11:40:00	0.2027	10.673	172.6	0.475290082	0.563987594	0.007943295	0.081949511	0.025257635
2019-09-18T11:45:00	0.2026	10.686	172.6	0.475091074	0.563716287	0.007937258	0.081887223	0.025238437
2019-09-18T11:50:00	0.2006	10.696	172.7	0.467965494	0.554022777	0.007722575	0.079672385	0.024555803
2019-09-18T11:55:00	0.2014	10.712	172.7	0.470884948	0.557989471	0.007810183	0.080576213	0.024834372
2019-09-18T12:00:00	0.2028	10.733	172.9	0.475877752	0.564788945	0.007961137	0.082133583	0.025314368
2019-09-18T12:05:00	0.2031	10.771	173.0	0.476716298	0.565932868	0.007986630	0.082396588	0.025395429
2019-09-18T12:10:00	0.2016	10.809	173.2	0.471672606	0.559060829	0.007833902	0.080820924	0.024909794
2019-09-18T12:15:00	0.2026	10.831	173.3	0.474934845	0.563503323	0.007932519	0.081838341	0.025223371
2019-09-18T12:20:00	0.2025	10.834	173.3	0.474735816	0.563232044	0.007926485	0.081776088	0.025204185
2019-09-18T12:25:00	0.2020	10.824	173.3	0.472806284	0.560603705	0.007868104	0.081173780	0.025018547
2019-09-18T12:30:00	0.2002	10.818	173.3	0.466716471	0.552327784	0.007685243	0.079287238	0.024437097
2019-09-18T12:35:00	0.2030	10.827	173.3	0.476560144	0.565719804	0.007981880	0.082347580	0.025380324
2019-09-18T12:40:00	0.2024	10.829	173.3	0.474285636	0.562618560	0.007912845	0.081635367	0.025160813
2019-09-18T12:45:00	0.2018	10.835	173.4	0.472355847	0.559990561	0.007854506	0.081033491	0.024975309
2019-09-18T12:50:00	0.2003	10.849	173.4	0.466958866	0.552656630	0.007692481	0.079361910	0.024460112
2019-09-18T12:55:00	0.2000	10.872	173.5	0.466065680	0.551445114	0.007665827	0.079086924	0.024375358
2019-09-18T13:00:00	0.1987	10.887	173.6	0.461353413	0.545063870	0.007525959	0.077643934	0.023930615
2019-09-18T13:05:00	0.1978	10.904	173.7	0.458373351	0.541037413	0.007438160	0.076738125	0.023651435
2019-09-18T13:10:00	0.1983	10.903	185.6	0.460258853	0.543584160	0.007493652	0.077310629	0.023827887
2019-09-18T13:15:00	0.1977	10.892	173.7	0.457973320	0.540497454	0.007426413	0.076616931	0.023614082
2019-09-18T13:20:00	0.1987	10.884	173.7	0.461596193	0.545392209	0.007533134	0.077717959	0.023953430
2019-09-18T13:25:00	0.2000	10.883	173.7	0.465909032	0.551232703	0.007661157	0.079038746	0.024360509
2019-09-18T13:30:00	0.1980	10.894	173.7	0.459111616	0.542034252	0.007459864	0.076962039	0.023720448
2019-09-18T13:35:00	0.1987	10.900	173.7	0.461344088	0.545051261	0.007525684	0.077641092	0.023929739
2019-09-18T13:40:00	0.1984	10.894	173.7	0.460449412	0.543841703	0.007499272	0.077368605	0.023845756
2019-09-18T13:45:00	0.2010	10.891	173.8	0.469618403	0.556267771	0.007772116	0.080183489	0.024713330
2019-09-18T13:50:00	0.2045	10.884	173.7	0.481526047	0.572505034	0.008133631	0.083913173	0.025862855
2019-09-18T13:55:00	0.2025	10.863	173.1	0.474760034	0.563265052	0.007927219	0.081783662	0.025206519
2019-09-18T14:00:00	0.2014	10.858	173.1	0.470752771	0.557809734	0.007806206	0.080535184	0.024821726
2019-09-18T14:05:00	0.2004	10.866	173.3	0.467434295	0.553301759	0.007706687	0.079508473	0.024505283
2019-09-18T14:10:00	0.2038	10.877	173.5	0.479004085	0.569056659	0.008056387	0.083116255	0.025617237
2019-09-18T14:15:00	0.2014	10.886	173.6	0.470847756	0.557938894	0.007809063	0.080564667	0.024830813
2019-09-18T14:20:00	0.2022	10.896	173.6	0.473764720	0.561908882	0.007897077	0.081472683	0.025110672
2019-09-18T14:25:00	0.2033	10.909	173.6	0.477370680	0.566825949	0.008006552	0.082602120	0.025458776
2019-09-18T14:30:00	0.2025	10.921	173.6	0.474750747	0.563252394	0.007926938	0.081780758	0.025205624
2019-09-18T14:35:00	0.2025	10.930	173.7	0.474551707	0.562981129	0.007920906	0.081718523	0.025186443
2019-09-18T14:40:00	0.2013	10.931	173.7	0.470544197	0.557526139	0.007799932	0.080470462	0.024801778
2019-09-18T14:45:00	0.1999	10.930	173.7	0.465838191	0.551136650	0.007659046	0.079016962	0.024353795
2019-09-18T14:50:00	0.1993	10.931	173.8	0.463556444	0.548044975	0.007591191	0.078316919	0.024138035
2019-09-18T14:55:00	0.2021	10.932	173.8	0.473409323	0.561424824	0.007886327	0.081361784	0.025076492
2019-09-18T15:00:00	0.2001	10.931	173.9	0.466280188	0.551736015	0.007672224	0.079152923	0.024395699
2019-09-18T15:05:00	0.2018	10.935	173.9	0.472318670	0.559939963	0.007853384	0.081021918	0.024971742
2019-09-18T15:10:00	0.2056	10.933	173.9	0.485251741	0.577608605	0.008248412	0.085097350	0.026227830
2019-09-18T15:15:00	0.2086	10.920	173.8	0.495729571	0.592020998	0.008575490	0.088471754	0.027267854
2019-09-18T15:20:00	0.2028	10.888	173.5	0.475874109	0.564783976	0.007961026	0.082132441	0.025314016
2019-09-18T15:25:00	0.2007	10.861	173.4	0.468403561	0.554617553	0.007735690	0.079807685	0.024597504
2019-09-18T15:30:00	0.2027	10.847	173.4	0.475476150	0.564241287	0.007948942	0.082007769	0.025275591
2019-09-18T15:35:00	0.2020	10.838	173.4	0.472854748	0.560669684	0.007869568	0.081188881	0.025023202
2019-09-18T15:40:00	0.2014	10.823	173.4	0.470924141	0.558042769	0.007811362	0.080588381	0.024838122
2019-09-18T15:45:00	0.2018	10.809	173.3	0.472110193	0.559656240	0.007847095	0.080957032	0.024951744
2019-09-18T15:50:00	0.2026	10.790	173.2	0.475026068	0.563627671	0.007935286	0.081866881	0.025232168
2019-09-18T15:55:00	0.2015	10.772	173.1	0.471365473	0.558643013	0.007824649	0.080725460	0.024880371
2019-09-18T16:00:00	0.2013	10.758	173.0	0.470473453	0.557429957	0.007797805	0.080448515	0.024795014
2019-09-18T16:05:00	0.2034	10.744	173.0	0.477896678	0.567544062	0.008022583	0.082767513	0.025509751
2019-09-18T16:10:00	0.2017	10.729	172.9	0.471825338	0.559268630	0.007838506	0.080868418	0.024924432
2019-09-18T16:15:00	0.2012	10.716	172.9	0.470249910	0.557126062	0.007791085	0.080379186	0.024773646
2019-09-18T16:20:00	0.1997	10.706	172.9	0.464858872	0.549809206	0.007629886	0.078716130	0.024261076
2019-09-18T16:25:00	0.1996	10.699	172.9	0.464668563	0.549551335	0.007624226	0.078657736	0.024243078
2019-09-18T16:30:00	0.1988	10.690	172.8	0.461700759	0.545533639	0.007536226	0.077749852	0.023963260
2019-09-18T16:35:00	0.1977	10.676	172.8	0.458034994	0.540580692	0.007428223	0.076635609	0.023619839
2019-09-18T16:40:00	0.1975	10.665	172.8	0.457496553	0.539854081	0.007412424	0.076472611	0.023569601
2019-09-18T16:45:00	0.1974	10.652	172.7	0.456958027	0.539127583	0.007396639	0.076309757	0.023519408
2019-09-18T16:50:00	0.1984	10.639	172.7	0.460591320	0.544033514	0.007503458	0.077411794	0.023859067
2019-09-18T16:55:00	0.1969	10.626	172.6	0.455184782	0.536737009	0.007344778	0.075774721	0.023354505
2019-09-18T17:00:00	0.1975	10.614	172.5	0.457429198	0.539763203	0.007410449	0.076452233	0.023563321
2019-09-18T17:05:00	0.1969	10.603	172.5	0.455151081	0.536691600	0.007343794	0.075764570	0.023351376
2019-09-18T17:10:00	0.1968	10.590	172.4	0.454960222	0.536434450	0.007338223	0.075707097	0.023333662
2019-09-18T17:15:00	0.1974	10.579	172.4	0.456856977	0.538991288	0.007393678	0.076279218	0.023509996
2019-09-18T17:20:00	0.1963	10.567	172.4	0.453185922	0.534045252	0.007286534	0.075173824	0.023169303
2019-09-18T17:25:00	0.1969	10.556	172.3	0.455083679	0.536600784	0.007341827	0.075744271	0.023345120
2019-09-18T17:30:00	0.1980	10.544	172.3	0.459066616	0.541973479	0.007458540	0.076948381	0.023716238
2019-09-18T17:35:00	0.1970	10.532	172.3	0.455745938	0.537493255	0.007361170	0.075943837	0.023406628
2019-09-18T17:40:00	0.1983	10.517	172.2	0.460075605	0.543336523	0.007488250	0.077254897	0.023810709
2019-09-18T17:45:00	0.1991	10.502	172.2	0.463011219	0.547306828	0.007575021	0.078150097	0.024086619
2019-09-18T17:50:00	0.2009	10.487	172.1	0.469064854	0.555515695	0.007755508	0.080012144	0.024660520
2019-09-18T17:55:00	0.1992	10.470	172.0	0.463324776	0.547731304	0.007584318	0.078246014	0.024116181
2019-09-18T18:00:00	0.1991	10.456	172.0	0.462787181	0.547003585	0.007568382	0.078081599	0.024065507
2019-09-18T18:05:00	0.2002	10.438	171.9	0.466761016	0.552388212	0.007686573	0.079300958	0.024441325
2019-09-18T18:10:00	0.1979	10.420	171.8	0.458584334	0.541322248	0.007444359	0.076802083	0.023671148
2019-09-18T18:15:00	0.1989	10.402	171.7	0.462215871	0.546230477	0.007551464	0.077907059	0.024011712
2019-09-18T18:20:00	0.1990	10.384	171.6	0.462372690	0.546442662	0.007556106	0.077954949	0.024026472
2019-09-18T18:25:00	0.2010	10.362	171.5	0.469467219	0.556062342	0.007767578	0.080136674	0.024698901
2019-09-18T18:30:00	0.2000	10.342	171.5	0.466156789	0.551568665	0.007668544	0.079114953	0.024383997
2019-09-18T18:35:00	0.2019	10.323	171.4	0.472551016	0.560256209	0.007860397	0.081094262	0.024994039
2019-09-18T18:40:00	0.2015	10.303	171.3	0.471322284	0.558584266	0.007823348	0.080712040	0.024876235
2019-09-18T18:45:00	0.2005	10.282	171.2	0.467666977	0.553617561	0.007713645	0.079580251	0.024527406
2019-09-18T18:50:00	0.1997	10.260	171.1	0.465048816	0.550066612	0.007635538	0.078774434	0.024279046
2019-09-18T18:55:00	0.1997	10.236	171.0	0.464858518	0.549808727	0.007629876	0.078716022	0.024261042
2019-09-18T19:00:00	0.2012	10.214	170.9	0.470216007	0.557079975	0.007790066	0.080368673	0.024770406
2019-09-18T19:05:00	0.1985	10.194	170.8	0.460658258	0.544123996	0.007505433	0.077432170	0.023865347
2019-09-18T19:10:00	0.2001	10.173	170.7	0.466369288	0.551856857	0.007674882	0.079180344	0.024404151
2019-09-18T19:15:00	0.2001	10.156	170.7	0.466525914	0.552069296	0.007679556	0.079228558	0.024419011
2019-09-18T19:20:00	0.1998	10.136	170.6	0.465294985	0.550400253	0.007642865	0.078850028	0.024302344
2019-09-18T19:25:00	0.2022	10.115	170.5	0.473768013	0.561913367	0.007897176	0.081473711	0.025110989
2019-09-18T19:30:00	0.2010	10.094	170.4	0.469422358	0.556001387	0.007766232	0.080122785	0.024694620
2019-09-18T19:35:00	0.2008	10.074	170.3	0.468885735	0.555272388	0.007750137	0.079956738	0.024643443
2019-09-18T19:40:00	0.2010	10.056	170.2	0.469388799	0.555955791	0.007765225	0.080112396	0.024691418
2019-09-18T19:45:00	0.1997	10.037	170.1	0.465037498	0.550051273	0.007635201	0.078770959	0.024277975
2019-09-18T19:50:00	0.1981	10.019	170.1	0.459290547	0.542275918	0.007465129	0.077016356	0.023737189
2019-09-18T19:55:00	0.1981	10.002	170.0	0.459447502	0.542487924	0.007469749	0.077064018	0.023751879
2019-09-18T20:00:00	0.2004	9.982	169.9	0.467241775	0.553040499	0.007700933	0.079449108	0.024486987
2019-09-18T20:05:00	0.1984	9.962	169.8	0.460456377	0.543851118	0.007499477	0.077370725	0.023846409
2019-09-18T20:10:00	0.2004	9.946	181.4	0.467554938	0.553465494	0.007710294	0.079545685	0.024516753
2019-09-18T20:15:00	0.2006	9.927	181.3	0.468058201	0.554148635	0.007725350	0.079701009	0.024564625
2019-09-18T20:20:00	0.1979	9.908	181.2	0.458841961	0.541670102	0.007451933	0.076880216	0.023695229
2019-09-18T20:25:00	0.2012	9.890	181.1	0.470104053	0.556927796	0.007786702	0.080333965	0.024759708
2019-09-18T20:30:00	0.2005	9.873	181.0	0.467834498	0.553844951	0.007718656	0.079631948	0.024543340
2019-09-18T20:35:00	0.2010	9.856	181.0	0.469377495	0.555940433	0.007764886	0.080108896	0.024690340
2019-09-18T20:40:00	0.2007	9.842	180.8	0.468494254	0.554740707	0.007738406	0.079835710	0.024606141
2019-09-18T20:45:00	0.2014	9.829	169.2	0.470729819	0.557778525	0.007805515	0.080528061	0.024819530
2019-09-18T20:50:00	0.2017	9.816	169.2	0.471925234	0.559404554	0.007841517	0.080899489	0.024934008
2019-09-18T20:55:00	0.2015	9.802	180.7	0.471042659	0.558203947	0.007814929	0.080625182	0.024849464
2019-09-18T21:00:00	0.2015	9.791	169.1	0.471199068	0.558416672	0.007819638	0.080673761	0.024864437
2019-09-18T21:05:00	0.2006	9.780	180.6	0.468237011	0.554391404	0.007730702	0.079756232	0.024581645
2019-09-18T21:10:00	0.2016	9.771	180.6	0.471511865	0.558842151	0.007829059	0.080770955	0.024894393
2019-09-18T21:15:00	0.2018	9.761	180.5	0.472360788	0.559997286	0.007854655	0.081035029	0.024975783
2019-09-18T21:20:00	0.2027	9.753	168.9	0.475285733	0.563981665	0.007943163	0.081948149	0.025257215
2019-09-18T21:25:00	0.2022	9.745	168.8	0.473711919	0.561836959	0.007895479	0.081456202	0.025105593
2019-09-18T21:30:00	0.2010	9.738	180.4	0.469366191	0.555925075	0.007764547	0.080105397	0.024689261
2019-09-18T21:35:00	0.2011	9.732	168.8	0.469869184	0.556608573	0.007779646	0.080261175	0.024737274
2019-09-18T21:40:00	0.2000	9.727	168.7	0.465865420	0.551173568	0.007659857	0.079025335	0.024356376
2019-09-18T21:45:00	0.1991	9.722	168.7	0.462898671	0.547154485	0.007571685	0.078115683	0.024076012
2019-09-18T21:50:00	0.2001	9.718	168.7	0.466525560	0.552068816	0.007679545	0.079228450	0.024418978
2019-09-18T21:55:00	0.2006	9.714	168.7	0.468069156	0.554163508	0.007725678	0.079704392	0.024565668
2019-09-18T22:00:00	0.1991	9.709	168.7	0.463021836	0.547321200	0.007575336	0.078153344	0.024087620
2019-09-18T22:05:00	0.1980	9.704	168.6	0.459157560	0.542096302	0.007461215	0.076975984	0.023724746
2019-09-18T22:10:00	0.1988	9.699	168.6	0.461894186	0.545795280	0.007541946	0.077808866	0.023981448
2019-09-18T22:15:00	0.2000	9.693	168.6	0.466016411	0.551378305	0.007664358	0.079071770	0.024370687
2019-09-18T22:20:00	0.1986	9.687	168.5	0.461113566	0.544739545	0.007518874	0.077570838	0.023908086
2019-09-18T22:25:00	0.1990	9.680	168.5	0.462459887	0.546560653	0.007558687	0.077981584	0.024034682
2019-09-18T22:30:00	0.1992	9.670	168.5	0.463111376	0.547442407	0.007577990	0.078180729	0.024096060
2019-09-18T22:35:00	0.1996	9.662	168.4	0.464456899	0.549264563	0.007617933	0.078592814	0.024223069
2019-09-18T22:40:00	0.1989	9.652	168.4	0.462331038	0.546386302	0.007554873	0.077942228	0.024022552
2019-09-18T22:45:00	0.2001	9.642	168.3	0.466452728	0.551970029	0.007677372	0.079206028	0.024412067
2019-09-18T22:50:00	0.2002	9.629	168.3	0.466756656	0.552382297	0.007686443	0.079299615	0.024440911
2019-09-18T22:55:00	0.1998	9.616	168.2	0.465326227	0.550442599	0.007643795	0.078859624	0.024305302
2019-09-18T23:00:00	0.2005	9.604	168.1	0.467711155	0.553677526	0.007714966	0.079593883	0.024531608
2019-09-18T23:05:00	0.2007	9.590	168.1	0.468361630	0.554560615	0.007734434	0.079794730	0.024593511
2019-09-18T23:10:00	0.1999	9.576	168.0	0.465544437	0.550738393	0.007650293	0.078926666	0.024325965
2019-09-18T23:15:00	0.1993	9.561	168.0	0.463419262	0.547859230	0.007587121	0.078274929	0.024125093
2019-09-18T23:20:00	0.2033	9.547	167.9	0.477579773	0.567111385	0.008012923	0.082667847	0.025479033
2019-09-18T23:25:00	0.2025	9.531	167.8	0.474770262	0.563278992	0.007927530	0.081786861	0.025207505
2019-09-18T23:30:00	0.1997	9.515	167.7	0.465025825	0.550035454	0.007634853	0.078767376	0.024276870
2019-09-18T23:35:00	0.2019	9.499	167.6	0.472608071	0.560333873	0.007862119	0.081112031	0.024999516
2019-09-18T23:40:00	0.2002	9.483	167.6	0.466674519	0.552270874	0.007683991	0.079274317	0.024433115
2019-09-18T23:45:00	0.2008	9.468	167.5	0.468711906	0.555036291	0.007744927	0.079902987	0.024626877
2019-09-18T23:50:00	0.1998	9.451	167.4	0.465201141	0.550273058	0.007640071	0.078821206	0.024293461
2019-09-18T23:55:00	0.2001	9.437	167.3	0.466198983	0.551625886	0.007669802	0.079127935	0.024387998
2019-09-19T00:00:00	0.2002	9.422	167.3	0.466849749	0.552508591	0.007689223	0.079328291	0.024449750
2019-09-19T00:05:00	0.2004	9.407	167.2	0.467500390	0.553391461	0.007708663	0.079528859	0.024511567
2019-09-19T00:10:00	0.2006	9.393	167.1	0.468150905	0.554274496	0.007728125	0.079729637	0.024573448
2019-09-19T00:15:00	0.1998	9.379	167.1	0.465333536	0.550452507	0.007644013	0.078861869	0.024305994
2019-09-19T00:20:00	0.2009	9.365	167.0	0.469105010	0.555570245	0.007756712	0.080024568	0.024664349
2019-09-19T00:25:00	0.2008	9.349	167.0	0.468715557	0.555041250	0.007745037	0.079904116	0.024627225
2019-09-19T00:30:00	0.2012	9.335	166.8	0.470058846	0.556866350	0.007785343	0.080319952	0.024755389
2019-09-19T00:35:00	0.1991	9.322	166.8	0.462732202	0.546929175	0.007566753	0.078064794	0.024060328
2019-09-19T00:40:00	0.2006	9.310	166.8	0.468240309	0.554395883	0.007730801	0.079757250	0.024581959
2019-09-19T00:45:00	0.2020	9.300	166.7	0.473047183	0.560931687	0.007875381	0.081248857	0.025041687
2019-09-19T00:50:00	0.1989	9.290	166.7	0.462256109	0.546284919	0.007552655	0.077919346	0.024015499
2019-09-19T00:55:00	0.1990	9.277	166.6	0.462560415	0.546696690	0.007561664	0.078012297	0.024044148
2019-09-19T01:00:00	0.1988	9.263	166.5	0.461822906	0.545698859	0.007539838	0.077787116	0.023974745
2019-09-19T01:05:00	0.1993	9.251	166.5	0.463516104	0.547990353	0.007589994	0.078304570	0.024134229
2019-09-19T01:10:00	0.2000	9.238	166.4	0.465902314	0.551223593	0.007660957	0.079036680	0.024359872
2019-09-19T01:15:00	0.1987	9.225	166.3	0.461346685	0.545054772	0.007525760	0.077641883	0.023929983
2019-09-19T01:20:00	0.1986	9.214	166.3	0.461303721	0.544996673	0.007524491	0.077628787	0.023925946
2019-09-19T01:25:00	0.1979	9.204	166.2	0.458828259	0.541651600	0.007451530	0.076876060	0.023693948
2019-09-19T01:30:00	0.1980	9.194	166.2	0.459132875	0.542062964	0.007460489	0.076968491	0.023722437
2019-09-19T01:35:00	0.1980	9.180	166.1	0.459089883	0.542004902	0.007459224	0.076955443	0.023718415
2019-09-19T01:40:00	0.1976	9.167	166.1	0.457656192	0.540069486	0.007417106	0.076520920	0.023584491
2019-09-19T01:45:00	0.1974	9.153	166.0	0.456917607	0.539073064	0.007395455	0.076297541	0.023515643
2019-09-19T01:50:00	0.1997	9.141	165.9	0.464865121	0.549817674	0.007630072	0.078718048	0.024261667
2019-09-19T01:55:00	0.1990	9.128	165.9	0.462392277	0.546469166	0.007556686	0.077960932	0.024028316
2019-09-19T02:00:00	0.2002	9.115	165.8	0.466860708	0.552523458	0.007689550	0.079331668	0.024450790
2019-09-19T02:05:00	0.2017	9.103	165.8	0.472015832	0.559527833	0.007844249	0.080927673	0.024942695
2019-09-19T02:10:00	0.2009	9.092	165.7	0.469201690	0.555701583	0.007759612	0.080054483	0.024673569
2019-09-19T02:15:00	0.2006	9.080	165.6	0.468118983	0.554231156	0.007727169	0.079719778	0.024570410
2019-09-19T02:20:00	0.1998	9.067	165.6	0.465301587	0.550409202	0.007643061	0.078852056	0.024302969
2019-09-19T02:25:00	0.2007	9.057	165.5	0.468379887	0.554585405	0.007734981	0.079800370	0.024595249
2019-09-19T02:30:00	0.2012	9.045	165.4	0.470069795	0.556881232	0.007785672	0.080323346	0.024756435
2019-09-19T02:35:00	0.2000	9.034	165.4	0.465866716	0.551175326	0.007659896	0.079025734	0.024356499
2019-09-19T02:40:00	0.1998	9.025	165.3	0.465476889	0.550646825	0.007648281	0.078905910	0.024319568
2019-09-19T02:45:00	0.1998	9.016	165.3	0.465433978	0.550588656	0.007647004	0.078892726	0.024315504
2019-09-19T02:50:00	0.1998	9.011	165.3	0.465391066	0.550530489	0.007645726	0.078879542	0.024311441
2019-09-19T02:55:00	0.1988	9.005	165.2	0.461876839	0.545771813	0.007541433	0.077803572	0.023979817
2019-09-19T03:00:00	0.1980	8.998	165.2	0.459054214	0.541956730	0.007458175	0.076944617	0.023715078
2019-09-19T03:05:00	0.1985	8.993	165.2	0.460748805	0.544246397	0.007508105	0.077459737	0.023873843
2019-09-19T03:10:00	0.1980	8.991	165.1	0.458968228	0.541840609	0.007455646	0.076918524	0.023707036
2019-09-19T03:15:00	0.1980	8.986	165.1	0.458925234	0.541782550	0.007454381	0.076905479	0.023703016
2019-09-19T03:20:00	0.1977	8.986	165.1	0.458186928	0.540785764	0.007432684	0.076681634	0.023634024
2019-09-19T03:25:00	0.1977	8.984	165.1	0.458143924	0.540727718	0.007431422	0.076668606	0.023630009
2019-09-19T03:30:00	0.1968	8.985	165.1	0.454970156	0.536447833	0.007338513	0.075710087	0.023334584
2019-09-19T03:35:00	0.1969	8.983	165.0	0.455275122	0.536858740	0.007347416	0.075801934	0.023362892
2019-09-19T03:40:00	0.1982	8.985	165.0	0.459753007	0.542900638	0.007478745	0.077156831	0.023780485
2019-09-19T03:45:00	0.1975	8.986	165.1	0.457276403	0.539557059	0.007405969	0.076406015	0.023549076
2019-09-19T03:50:00	0.1973	8.986	165.1	0.456537734	0.538560747	0.007384330	0.076182776	0.023480272
2019-09-19T03:55:00	0.1973	8.986	165.0	0.456494709	0.538502729	0.007383071	0.076169783	0.023476267
2019-09-19T04:00:00	0.1984	8.986	165.0	0.460623549	0.544077079	0.007504409	0.077421604	0.023862090
2019-09-19T04:05:00	0.1991	8.987	165.0	0.463011809	0.547307626	0.007575039	0.078150277	0.024086674
2019-09-19T04:10:00	0.2006	8.989	165.0	0.468172814	0.554304243	0.007728780	0.079736403	0.024575534
2019-09-19T04:15:00	0.1988	8.990	165.0	0.461884155	0.545781711	0.007541649	0.077805805	0.023980505
2019-09-19T04:20:00	0.2006	8.994	165.0	0.468087061	0.554187816	0.007726214	0.079709921	0.024567372
2019-09-19T04:25:00	0.2021	8.999	165.0	0.473240313	0.561194665	0.007881218	0.081309071	0.025060245
2019-09-19T04:30:00	0.2014	9.001	165.1	0.470773605	0.557838063	0.007806832	0.080541651	0.024823719
2019-09-19T04:35:00	0.2017	9.005	165.1	0.471769800	0.559193065	0.007836831	0.080851146	0.024919108
2019-09-19T04:40:00	0.2014	9.008	165.1	0.471034303	0.558192583	0.007814677	0.080622587	0.024848664
2019-09-19T04:45:00	0.2023	9.012	165.1	0.474107381	0.562375687	0.007907448	0.081579679	0.025143649
2019-09-19T04:50:00	0.2010	9.015	165.1	0.469562829	0.556192254	0.007770448	0.080166278	0.024708026
2019-09-19T04:55:00	0.2005	9.017	165.1	0.467786905	0.553780347	0.007717232	0.079617260	0.024538813
2019-09-19T05:00:00	0.1987	9.023	165.1	0.461497525	0.545258764	0.007530218	0.077687871	0.023944156
2019-09-19T05:05:00	0.2006	9.028	165.1	0.468047835	0.554134562	0.007725039	0.079697808	0.024563638
2019-09-19T05:10:00	0.2022	9.032	165.1	0.473547276	0.561612707	0.007890499	0.081404822	0.025089757
2019-09-19T05:15:00	0.1997	9.036	165.1	0.464840478	0.549784281	0.007629339	0.078710485	0.024259336
2019-09-19T05:20:00	0.2012	9.040	165.1	0.470345144	0.557255523	0.007793947	0.080408718	0.024782748
2019-09-19T05:25:00	0.2009	9.046	165.2	0.469262805	0.555784611	0.007761445	0.080073397	0.024679398
2019-09-19T05:30:00	0.2014	9.051	165.1	0.470952271	0.558081022	0.007812209	0.080597115	0.024840814
2019-09-19T05:35:00	0.2015	9.054	165.2	0.471255793	0.558493825	0.007821346	0.080691382	0.024869868
2019-09-19T05:40:00	0.2010	9.058	165.2	0.469480760	0.556080741	0.007767985	0.080140866	0.024700193
2019-09-19T05:45:00	0.2021	9.062	165.0	0.473247606	0.561204595	0.007881438	0.081311345	0.025060946
2019-09-19T05:50:00	0.2026	9.067	165.2	0.474935080	0.563503644	0.007932527	0.081838414	0.025223394
2019-09-19T05:55:00	0.2023	9.074	165.2	0.473854210	0.562030785	0.007899784	0.081500620	0.025119283
2019-09-19T06:00:00	0.2027	9.079	165.2	0.475195458	0.563858589	0.007940424	0.081919891	0.025248506
2019-09-19T06:05:00	0.2038	9.086	165.2	0.479301485	0.569463041	0.008065477	0.083210035	0.025646141
2019-09-19T06:10:00	0.2050	9.095	165.3	0.483402539	0.575074125	0.008191343	0.084508571	0.026046362
2019-09-19T06:15:00	0.2039	9.105	165.3	0.479561527	0.569818434	0.008073429	0.083292078	0.025671427
2019-09-19T06:20:00	0.2036	9.114	165.3	0.478482134	0.568343609	0.008040445	0.082951793	0.025566548
2019-09-19T06:25:00	0.2033	9.124	165.4	0.477402397	0.566869244	0.008007518	0.082612089	0.025461848
2019-09-19T06:30:00	0.2029	9.133	165.4	0.475976471	0.564923585	0.007964136	0.082164524	0.025323904
2019-09-19T06:35:00	0.2033	9.147	165.4	0.477316877	0.566752508	0.008004913	0.082585212	0.025453564
2019-09-19T06:40:00	0.2044	9.160	165.5	0.481075009	0.571887939	0.008119790	0.083770373	0.025818842
2019-09-19T06:45:00	0.2036	9.175	165.5	0.478614009	0.568523747	0.008044472	0.082993330	0.025579350
2019-09-19T06:50:00	0.2028	9.188	165.6	0.475805357	0.564690211	0.007958938	0.082110896	0.025307376
2019-09-19T06:55:00	0.2060	9.204	165.7	0.486812824	0.579750324	0.008296743	0.085595970	0.026381509
2019-09-19T07:00:00	0.2046	9.219	165.7	0.481940072	0.573071630	0.008146347	0.084044361	0.025903288
2019-09-19T07:05:00	0.2044	9.232	165.7	0.481206783	0.572068211	0.008123832	0.083812080	0.025831697
2019-09-19T07:10:00	0.2039	9.246	165.8	0.479436967	0.569648195	0.008069619	0.083252775	0.025659314
2019-09-19T07:15:00	0.2037	9.262	165.9	0.478703136	0.568645500	0.008047193	0.083021409	0.025588005
2019-09-19T07:20:00	0.2044	9.279	166.0	0.481078647	0.571892916	0.008119901	0.083771524	0.025819197
2019-09-19T07:25:00	0.2043	9.293	166.0	0.481035933	0.571834485	0.008118591	0.083758007	0.025815031
2019-09-19T07:30:00	0.2054	9.309	166.1	0.484789945	0.576975421	0.008234142	0.084950126	0.026182454
2019-09-19T07:35:00	0.2063	9.320	166.1	0.487850572	0.581175134	0.008328949	0.085928233	0.026483916
2019-09-19T07:40:00	0.2070	9.336	166.2	0.490219688	0.584431119	0.008402705	0.086689163	0.026718442
2019-09-19T07:45:00	0.2064	9.347	166.2	0.488109959	0.581531403	0.008337009	0.086011383	0.026509544
2019-09-19T07:50:00	0.2066	9.361	166.3	0.488756526	0.582419698	0.008357116	0.086218821	0.026573478
2019-09-19T07:55:00	0.2053	9.379	166.3	0.484231604	0.576210088	0.008216905	0.084772292	0.026127644
2019-09-19T08:00:00	0.2073	9.397	166.4	0.491082424	0.585617934	0.008429645	0.086967090	0.026804102
2019-09-19T08:05:00	0.2052	9.426	166.5	0.484146256	0.576093121	0.008214271	0.084745124	0.026119270
2019-09-19T08:10:00	0.2062	9.442	166.6	0.487552164	0.580765337	0.008319682	0.085832624	0.026454448
2019-09-19T08:15:00	0.2054	9.459	166.7	0.484750912	0.576921910	0.008232936	0.084937688	0.026178620
2019-09-19T08:20:00	0.2046	9.478	166.7	0.481947345	0.573081585	0.008146571	0.084046667	0.025903999
2019-09-19T08:25:00	0.2057	9.499	166.8	0.485700349	0.578223871	0.008262287	0.085240490	0.026271947
2019-09-19T08:30:00	0.2052	9.510	166.9	0.483932878	0.575800718	0.008207690	0.084677222	0.026098342
2019-09-19T08:35:00	0.2058	9.534	167.0	0.485959901	0.578579919	0.008270320	0.085323362	0.026297489
2019-09-19T08:40:00	0.2077	9.552	167.1	0.492463072	0.587518449	0.008472845	0.087412780	0.026941468
2019-09-19T08:45:00	0.2068	9.564	167.1	0.489665868	0.583669576	0.008385435	0.086510985	0.026663526
2019-09-19T08:50:00	0.2056	9.579	167.2	0.485487068	0.577931337	0.008255689	0.085172422	0.026250968
2019-09-19T08:55:00	0.2081	9.593	167.3	0.494055917	0.589712960	0.008522821	0.087928377	0.027100380
2019-09-19T09:00:00	0.2073	9.625	167.4	0.491260023	0.585862319	0.008435196	0.087024358	0.026821752
2019-09-19T09:05:00	0.2056	9.656	167.5	0.485359093	0.577755825	0.008251731	0.085131593	0.026238384
2019-09-19T09:10:00	0.2054	9.679	167.6	0.484626543	0.576751416	0.008229096	0.084898063	0.026166407
2019-09-19T09:15:00	0.2043	9.704	167.7	0.480786918	0.571493869	0.008110955	0.083679225	0.025790750
2019-09-19T09:20:00	0.2050	9.724	167.8	0.483160969	0.574743235	0.008183902	0.084431805	0.026022702
2019-09-19T09:25:00	0.2051	9.734	167.9	0.483808479	0.575630265	0.008203854	0.084637647	0.026086145
2019-09-19T09:30:00	0.2046	9.748	168.0	0.482040022	0.573208433	0.008149418	0.084076046	0.025913054
2019-09-19T09:35:00	0.2029	9.771	168.1	0.476123015	0.565123469	0.007968589	0.082210465	0.025338064
2019-09-19T09:40:00	0.2050	9.798	168.2	0.483335347	0.574982084	0.008189273	0.084487215	0.026039780
2019-09-19T09:45:00	0.2052	9.817	168.2	0.483982824	0.575869158	0.008209230	0.084693113	0.026103240
2019-09-19T09:50:00	0.2049	9.844	168.4	0.482904839	0.574392453	0.008176016	0.084350451	0.025997628
2019-09-19T09:55:00	0.2041	9.878	168.5	0.480099744	0.570554172	0.008089900	0.083462012	0.025723803
2019-09-19T10:00:00	0.2031	9.891	168.6	0.476600799	0.565775274	0.007983116	0.082360338	0.025384256
2019-09-19T10:05:00	0.2039	9.890	168.6	0.479466982	0.569689217	0.008070537	0.083262245	0.025662232
2019-09-19T10:10:00	0.2044	9.901	168.7	0.481294943	0.572188824	0.008126538	0.083839990	0.025840299
2019-09-19T10:15:00	0.2040	9.919	168.7	0.480014292	0.570437345	0.008087284	0.083435020	0.025715483
2019-09-19T10:20:00	0.2030	9.942	168.8	0.476313228	0.565382940	0.007974371	0.082270116	0.025356449
2019-09-19T10:25:00	0.2032	9.963	168.9	0.477105809	0.566464420	0.007998485	0.082518898	0.025433126
2019-09-19T10:30:00	0.2029	9.970	168.9	0.476169434	0.565186786	0.007970000	0.082225020	0.025342550
2019-09-19T10:35:00	0.2036	9.982	169.0	0.478344812	0.568156047	0.008036254	0.082908551	0.025553221
2019-09-19T10:40:00	0.2032	10.010	169.2	0.477063046	0.566406057	0.007997183	0.082505465	0.025428986
2019-09-19T10:45:00	0.2033	10.035	169.3	0.477509764	0.567015810	0.008010789	0.082645837	0.025472250
2019-09-19T10:50:00	0.2046	10.055	169.4	0.482101804	0.573293000	0.008151317	0.084095635	0.025919092
2019-09-19T10:55:00	0.2042	10.074	169.5	0.480476074	0.571068749	0.008101427	0.083580934	0.025760455
2019-09-19T11:00:00	0.2032	10.101	169.6	0.477121278	0.566485532	0.007998956	0.082523757	0.025434623
2019-09-19T11:05:00	0.2039	10.111	169.6	0.479641551	0.569927811	0.008075877	0.083317333	0.025679211
2019-09-19T11:10:00	0.2024	10.119	169.7	0.474210306	0.562515919	0.007910564	0.081611831	0.025153559
2019-09-19T11:15:00	0.2026	10.146	169.8	0.475003380	0.563596744	0.007934598	0.081859783	0.025229980
2019-09-19T11:20:00	0.2039	10.178	169.9	0.479598819	0.569869405	0.008074570	0.083303847	0.025675055
2019-09-19T11:25:00	0.2031	10.202	170.1	0.476588970	0.565759135	0.007982756	0.082356626	0.025383112
2019-09-19T11:30:00	0.2018	10.229	170.2	0.472191726	0.559767197	0.007849554	0.080982405	0.024959564
2019-09-19T11:35:00	0.2023	10.261	170.3	0.474023620	0.562261571	0.007904912	0.081553518	0.025135586
2019-09-19T11:40:00	0.2005	10.271	170.4	0.467890023	0.553920324	0.007720317	0.079649087	0.024548622
2019-09-19T11:45:00	0.2012	10.274	170.4	0.470070736	0.556882512	0.007785701	0.080323638	0.024756525
2019-09-19T11:50:00	0.2002	10.283	170.5	0.466705591	0.552313024	0.007684918	0.079283887	0.024436064
2019-09-19T11:55:00	0.2018	10.297	170.5	0.472351180	0.559984209	0.007854365	0.081032038	0.024974861
2019-09-19T12:00:00	0.2025	10.306	170.6	0.474529016	0.562950206	0.007920218	0.081711430	0.025184256
2019-09-19T12:05:00	0.1996	10.317	170.6	0.464581148	0.549432896	0.007621627	0.078630920	0.024234813
2019-09-19T12:10:00	0.2023	10.319	170.7	0.474039103	0.562282664	0.007905381	0.081558354	0.025137077
2019-09-19T12:15:00	0.2014	10.318	170.6	0.471024299	0.558178977	0.007814376	0.080619481	0.024847707
2019-09-19T12:20:00	0.1994	10.323	170.7	0.463844081	0.548434485	0.007599728	0.078404998	0.024165182
2019-09-19T12:25:00	0.1973	10.341	170.8	0.456648525	0.538710154	0.007387574	0.076216239	0.023490585
2019-09-19T12:30:00	0.1975	10.362	170.8	0.457445742	0.539785524	0.007410934	0.076457238	0.023564863
2019-09-19T12:35:00	0.1982	10.386	170.9	0.459633225	0.542738813	0.007475217	0.077120435	0.023769267
2019-09-19T12:40:00	0.1999	10.408	171.0	0.465637603	0.550864696	0.007653069	0.078955299	0.024334790
2019-09-19T12:45:00	0.2006	10.409	171.1	0.468166454	0.554295607	0.007728590	0.079734439	0.024574928
2019-09-19T12:50:00	0.2003	10.412	171.1	0.466880819	0.552550743	0.007690150	0.079337863	0.024452700
2019-09-19T12:55:00	0.1986	10.407	171.1	0.461081616	0.544696346	0.007517931	0.077561103	0.023905085
2019-09-19T13:00:00	0.1985	10.402	171.1	0.460835690	0.544363854	0.007510670	0.077486194	0.023881998
2019-09-19T13:05:00	0.1970	10.401	171.1	0.455722016	0.537461012	0.007360471	0.075936624	0.023404405
2019-09-19T13:10:00	0.1964	10.409	182.9	0.453387214	0.534316179	0.007292389	0.075234230	0.023187920
2019-09-19T13:15:00	0.1966	10.418	171.2	0.454185205	0.535390539	0.007315623	0.075473935	0.023261800
2019-09-19T13:20:00	0.1980	10.425	171.2	0.459156694	0.542095133	0.007461190	0.076975721	0.023724665
2019-09-19T13:25:00	0.1972	10.430	183.0	0.456128541	0.538009014	0.007372357	0.076059248	0.023442199
2019-09-19T13:30:00	0.1967	10.425	171.2	0.454490242	0.535801353	0.007324514	0.075565662	0.023290071
2019-09-19T13:35:00	0.1962	10.419	171.2	0.452851144	0.533594734	0.007276801	0.075073413	0.023138355
2019-09-19T13:40:00	0.1962	10.423	171.2	0.452952866	0.533731615	0.007279757	0.075103916	0.023147756
2019-09-19T13:45:00	0.1982	10.434	171.3	0.459664323	0.542780824	0.007476133	0.077129883	0.023772179
2019-09-19T13:50:00	0.1950	10.443	183.1	0.448626478	0.527917085	0.007154528	0.073811942	0.022749557
2019-09-19T13:55:00	0.1957	10.447	171.4	0.451168151	0.531331227	0.007227969	0.074569622	0.022983082
2019-09-19T14:00:00	0.1965	10.462	171.5	0.453707900	0.534747868	0.007301722	0.075330515	0.023217596
2019-09-19T14:05:00	0.1967	10.477	183.3	0.454505815	0.535822327	0.007324968	0.075570347	0.023291515
2019-09-19T14:10:00	0.1958	10.491	183.4	0.451473463	0.531741684	0.007236815	0.074660891	0.023011212
2019-09-19T14:15:00	0.1948	10.502	183.4	0.448089646	0.527196628	0.007139063	0.073652395	0.022700384
2019-09-19T14:20:00	0.1923	10.512	171.7	0.439551786	0.515183413	0.006887483	0.071056894	0.021900425
2019-09-19T14:25:00	0.1944	10.520	183.5	0.446549332	0.525130705	0.007094781	0.073195551	0.022559580
2019-09-19T14:30:00	0.1947	10.522	183.6	0.447697750	0.526670827	0.007127784	0.073536031	0.022664519
2019-09-19T14:35:00	0.1936	10.518	183.6	0.443611776	0.521195922	0.007010705	0.072328151	0.022292239
2019-09-19T14:40:00	0.1929	10.510	183.5	0.441268516	0.518062047	0.006943989	0.071639858	0.022080100
2019-09-19T14:45:00	0.1903	10.501	183.5	0.434233639	0.506097784	0.006711332	0.069239575	0.021340309
2019-09-19T14:50:00	0.1901	10.496	183.5	0.433495278	0.504842596	0.006687096	0.068989535	0.021263245
2019-09-19T14:55:00	0.1910	10.493	183.5	0.436027587	0.509153772	0.006770440	0.069849385	0.021528259
2019-09-19T15:00:00	0.1936	10.491	183.5	0.443772591	0.521411155	0.007015295	0.072375506	0.022306834
2019-09-19T15:05:00	0.1920	10.488	171.7	0.438907348	0.514078233	0.006865989	0.070835141	0.021832078
2019-09-19T15:10:00	0.1918	10.485	183.5	0.438171053	0.512816946	0.006841481	0.070582299	0.021754150
2019-09-19T15:15:00	0.1919	10.484	183.5	0.438522426	0.513418664	0.006853170	0.070702891	0.021791318
2019-09-19T15:20:00	0.1923	10.484	171.8	0.439689083	0.515419021	0.006892068	0.071104193	0.021915003
2019-09-19T15:25:00	0.1914	10.483	183.6	0.437049174	0.510898059	0.006804242	0.070198112	0.021635740
2019-09-19T15:30:00	0.1907	10.477	183.5	0.435222629	0.507781417	0.006743879	0.069575354	0.021443800
2019-09-19T15:35:00	0.1900	10.471	171.7	0.433394078	0.504670678	0.006683778	0.068955308	0.021252695
2019-09-19T15:40:00	0.1892	10.464	171.7	0.431290439	0.501103483	0.006615042	0.068246171	0.021034133
2019-09-19T15:45:00	0.1907	10.453	171.7	0.435188932	0.507724007	0.006742768	0.069563897	0.021440269
2019-09-19T15:50:00	0.1913	10.441	171.6	0.436902351	0.510647189	0.006799378	0.070147928	0.021620273
2019-09-19T15:55:00	0.1902	10.428	171.6	0.433985404	0.505675623	0.006703178	0.069155450	0.021314381
2019-09-19T16:00:00	0.1908	10.418	171.5	0.435427669	0.508130814	0.006750639	0.069645094	0.021465294
2019-09-19T16:05:00	0.1915	10.404	171.5	0.437412955	0.511519893	0.006816304	0.070322548	0.021674092
2019-09-19T16:10:00	0.1896	10.390	171.4	0.432314942	0.502839219	0.006648463	0.068590971	0.021140404
2019-09-19T16:15:00	0.1917	10.376	171.4	0.438115944	0.512722604	0.006839649	0.070563397	0.021748324
2019-09-19T16:20:00	0.1924	10.362	171.3	0.439826369	0.515654661	0.006896654	0.071151507	0.021929585
2019-09-19T16:25:00	0.1925	10.349	171.3	0.440177395	0.516257412	0.006908389	0.071272573	0.021966899
2019-09-19T16:30:00	0.1926	10.336	171.3	0.440528348	0.516860382	0.006920133	0.071393739	0.022004244
2019-09-19T16:35:00	0.1949	10.322	171.2	0.448152054	0.527280372	0.007140860	0.073670934	0.022706097
2019-09-19T16:40:00	0.1944	10.303	171.1	0.446509854	0.525077780	0.007093648	0.073183861	0.022555977
2019-09-19T16:45:00	0.1935	10.285	171.0	0.443470255	0.521006530	0.007006667	0.072286491	0.022279399
2019-09-19T16:50:00	0.1949	10.270	171.0	0.448108922	0.527222493	0.007139618	0.073658121	0.022702148
2019-09-19T16:55:00	0.1949	10.251	170.9	0.448210788	0.527359188	0.007142551	0.073688384	0.022711476
2019-09-19T17:00:00	0.1959	10.234	170.9	0.451798001	0.532178069	0.007246225	0.074757968	0.023041132
2019-09-19T17:05:00	0.1955	10.216	170.8	0.450506093	0.530441417	0.007208803	0.074371896	0.022922141
2019-09-19T17:10:00	0.1982	10.195	170.7	0.459656096	0.542769710	0.007475890	0.077127383	0.023771409
2019-09-19T17:15:00	0.1976	10.179	170.6	0.457671789	0.540090532	0.007417564	0.076525640	0.023585946
2019-09-19T17:20:00	0.1970	10.161	170.5	0.455686311	0.537412887	0.007359428	0.075925858	0.023401087
2019-09-19T17:25:00	0.1964	10.141	170.5	0.453351484	0.534268086	0.007291349	0.075223506	0.023184615
2019-09-19T17:30:00	0.1973	10.122	170.4	0.456585368	0.538624983	0.007385725	0.076197162	0.023484706
2019-09-19T17:35:00	0.1954	10.103	170.3	0.450071373	0.529857338	0.007196233	0.074242204	0.022882168
2019-09-19T17:40:00	0.1967	10.082	170.2	0.454700917	0.536085126	0.007330658	0.075629046	0.023309607
2019-09-19T17:45:00	0.1969	10.062	170.1	0.455150608	0.536690963	0.007343780	0.075764428	0.023351332
2019-09-19T17:50:00	0.1985	10.041	170.0	0.460815582	0.544336671	0.007510076	0.077480071	0.023880110
2019-09-19T17:55:00	0.1984	10.019	170.0	0.460569636	0.544004204	0.007502818	0.077405194	0.023857033
2019-09-19T18:00:00	0.1996	9.995	169.9	0.464490743	0.549310413	0.007618939	0.078603193	0.024226267
2019-09-19T18:05:00	0.2003	9.972	169.8	0.467020453	0.552740191	0.007694321	0.079380889	0.024465961
2019-09-19T18:10:00	0.2034	9.952	169.7	0.477854551	0.567486541	0.008021299	0.082754261	0.025505667
2019-09-19T18:15:00	0.2025	9.930	169.6	0.474843150	0.563378338	0.007929739	0.081809657	0.025214531
2019-09-19T18:20:00	0.2019	9.909	169.5	0.472521567	0.560216124	0.007859508	0.081085091	0.024991212
2019-09-19T18:25:00	0.1996	9.885	169.4	0.464650561	0.549526944	0.007623691	0.078652213	0.024241376
2019-09-19T18:30:00	0.2002	9.862	169.3	0.466833370	0.552486369	0.007688733	0.079323245	0.024448195
2019-09-19T18:35:00	0.2009	9.838	169.2	0.469014766	0.555447655	0.007754006	0.079996649	0.024655744
2019-09-19T18:40:00	0.2000	9.816	169.1	0.465995470	0.551349908	0.007663734	0.079065329	0.024368702
2019-09-19T18:45:00	0.1998	9.794	169.0	0.465402973	0.550546629	0.007646080	0.078883200	0.024312568
2019-09-19T18:50:00	0.2004	9.769	168.9	0.467238554	0.553036129	0.007700837	0.079448115	0.024486681
2019-09-19T18:55:00	0.2014	9.742	168.8	0.470805541	0.557881489	0.007807793	0.080551563	0.024826774
2019-09-19T19:00:00	0.2017	9.719	168.7	0.471945707	0.559432412	0.007842135	0.080905857	0.024935971
2019-09-19T19:05:00	0.2028	9.694	168.6	0.475853621	0.564756033	0.007960404	0.082126020	0.025312037
2019-09-19T19:10:00	0.2033	9.668	168.5	0.477337827	0.566781103	0.008005551	0.082591796	0.025455594
2019-09-19T19:15:00	0.2025	9.640	168.3	0.474671979	0.563145040	0.007924550	0.081756126	0.025198032
2019-09-19T19:20:00	0.2033	9.614	168.2	0.477539796	0.567056809	0.008011705	0.082655279	0.025475160
2019-09-19T19:25:00	0.2022	9.589	168.1	0.473489923	0.561534595	0.007888764	0.081386928	0.025084242
2019-09-19T19:30:00	0.2035	9.569	168.0	0.478087417	0.567804522	0.008028401	0.082827528	0.025528249
2019-09-19T19:35:00	0.2036	9.545	167.9	0.478534000	0.568414455	0.008042029	0.082968128	0.025571583
2019-09-19T19:40:00	0.2027	9.521	167.8	0.475523204	0.564305447	0.007950370	0.082022505	0.025280133
2019-09-19T19:45:00	0.2046	9.498	167.7	0.481844695	0.572941094	0.008143417	0.084014131	0.025893971
2019-09-19T19:50:00	0.2039	9.476	167.6	0.479527912	0.569772491	0.008072401	0.083281470	0.025668158
2019-09-19T19:55:00	0.2053	9.449	167.5	0.484462235	0.576526190	0.008224023	0.084845726	0.026150277
2019-09-19T20:00:00	0.2071	9.427	167.4	0.490422725	0.584710372	0.008409042	0.086754531	0.026738589
2019-09-19T20:05:00	0.2057	9.398	167.2	0.485698552	0.578221406	0.008262231	0.085239917	0.026271770
2019-09-19T20:10:00	0.2054	9.374	167.1	0.484764548	0.576940604	0.008233358	0.084942033	0.026179960
2019-09-19T20:15:00	0.2067	9.344	167.0	0.489002265	0.582757397	0.008364764	0.086297726	0.026597797
2019-09-19T20:20:00	0.2066	9.319	166.9	0.488758361	0.582422219	0.008357173	0.086219410	0.026573659
2019-09-19T20:25:00	0.2067	9.297	166.8	0.489203540	0.583034030	0.008371031	0.086362382	0.026617725
2019-09-19T20:30:00	0.2061	9.270	166.6	0.487236512	0.580331936	0.008309885	0.085731548	0.026423296
2019-09-19T20:35:00	0.2066	9.241	166.6	0.488715744	0.582363659	0.008355847	0.086205729	0.026569443
2019-09-19T20:40:00	0.2059	9.219	177.8	0.486403651	0.579188773	0.008284062	0.085465138	0.026341186
2019-09-19T20:45:00	0.2059	9.195	177.6	0.486504367	0.579326984	0.008287182	0.085497333	0.026351108
2019-09-19T20:50:00	0.2067	9.172	177.5	0.489017679	0.582778581	0.008365244	0.086302677	0.026599323
2019-09-19T20:55:00	0.2078	9.149	177.5	0.492905974	0.588128444	0.008486727	0.087555994	0.026985608
2019-09-19T21:00:00	0.2056	9.123	166.0	0.485427183	0.577849205	0.008253837	0.085153315	0.026245079
2019-09-19T21:05:00	0.2054	9.103	165.9	0.484838081	0.577041414	0.008235629	0.084965466	0.026187182
2019-09-19T21:10:00	0.2063	9.084	165.8	0.487697311	0.580964655	0.008324189	0.085879122	0.026468780
2019-09-19T21:15:00	0.2067	9.061	165.7	0.489176343	0.582996648	0.008370184	0.086353644	0.026615032
2019-09-19T21:20:00	0.2068	9.039	165.6	0.489621468	0.583608533	0.008384051	0.086496708	0.026659126
2019-09-19T21:25:00	0.2081	9.019	165.5	0.493853136	0.589433469	0.008516451	0.087862653	0.027080123
2019-09-19T21:30:00	0.2070	9.001	165.5	0.490167142	0.584358854	0.008401066	0.086672250	0.026713229
2019-09-19T21:35:00	0.2056	8.979	165.4	0.485442613	0.577870368	0.008254314	0.085158238	0.026246596
2019-09-19T21:40:00	0.2093	8.959	165.2	0.498280289	0.595542867	0.008656071	0.089303088	0.027524079
2019-09-19T21:45:00	0.2084	8.938	165.2	0.494943041	0.590936060	0.008550719	0.088216188	0.027189086
2019-09-19T21:50:00	0.2086	8.919	165.1	0.495731285	0.592023362	0.008575544	0.088472312	0.027268026
2019-09-19T21:55:00	0.2073	8.899	165.0	0.491358801	0.585998255	0.008438284	0.087056218	0.026831572
2019-09-19T22:00:00	0.2067	8.878	164.9	0.489048507	0.582820949	0.008366203	0.086312578	0.026602375
2019-09-19T22:05:00	0.2086	8.858	164.8	0.495685679	0.591960439	0.008574107	0.088457483	0.027263455
2019-09-19T22:10:00	0.2075	8.839	164.7	0.491998591	0.586878902	0.008458299	0.087262714	0.026895216
2019-09-19T22:15:00	0.2091	8.817	164.6	0.497599174	0.594601915	0.008634517	0.089080719	0.027455543
2019-09-19T22:20:00	0.2074	8.798	164.5	0.491505034	0.586199510	0.008442856	0.087103394	0.026846112
2019-09-19T22:25:00	0.2081	8.779	164.4	0.494011574	0.589651840	0.008521428	0.087914003	0.027095949
2019-09-19T22:30:00	0.2086	8.760	164.3	0.495828649	0.592157700	0.008578613	0.088503974	0.027277784
2019-09-19T22:35:00	0.2071	8.741	164.3	0.490420190	0.584706884	0.008408962	0.086753715	0.026738337
2019-09-19T22:40:00	0.2088	8.718	164.2	0.496367177	0.592900873	0.008595598	0.088679201	0.027331791
2019-09-19T22:45:00	0.2080	8.701	164.1	0.493713161	0.589240563	0.008512055	0.087817301	0.027066145
2019-09-19T22:50:00	0.2063	8.680	164.0	0.487956711	0.581320909	0.008332247	0.085962252	0.026494401
2019-09-19T22:55:00	0.2062	8.666	163.9	0.487364963	0.580508294	0.008313871	0.085772673	0.026435971
2019-09-19T23:00:00	0.2063	8.647	163.8	0.487807241	0.581115624	0.008327603	0.085914347	0.026479636
2019-09-19T23:05:00	0.2062	8.630	163.7	0.487560167	0.580776326	0.008319930	0.085835188	0.026455239
2019-09-19T23:10:00	0.2074	8.612	163.6	0.491447049	0.586119705	0.008441043	0.087084686	0.026840346
2019-09-19T23:15:00	0.2059	8.593	163.5	0.486376431	0.579151420	0.008283218	0.085456438	0.026338504
2019-09-19T23:20:00	0.2062	8.575	163.5	0.487508283	0.580705082	0.008318320	0.085818570	0.026450117
2019-09-19T23:25:00	0.2065	8.554	163.4	0.488639758	0.582259250	0.008353483	0.086181340	0.026561926
2019-09-19T23:30:00	0.2052	8.539	163.3	0.483910015	0.575769390	0.008206985	0.084669948	0.026096100
2019-09-19T23:35:00	0.2061	8.521	163.3	0.487111688	0.580160570	0.008306012	0.085691594	0.026410981
2019-09-19T23:40:00	0.2064	8.506	163.1	0.488243295	0.581714561	0.008341153	0.086054141	0.026522722
2019-09-19T23:45:00	0.2071	8.492	163.1	0.490407864	0.584689930	0.008408578	0.086749746	0.026737114
2019-09-19T23:50:00	0.2059	8.477	163.0	0.486370260	0.579142953	0.008283027	0.085454466	0.026337896
2019-09-19T23:55:00	0.2062	8.459	163.0	0.487502115	0.580696612	0.008318128	0.085816594	0.026449508
2019-09-20T00:00:00	0.2065	8.444	162.9	0.488633592	0.582250777	0.008353291	0.086179361	0.026561316
2019-09-20T00:05:00	0.2053	8.430	162.8	0.484248876	0.576233760	0.008217438	0.084777790	0.026129338
2019-09-20T00:10:00	0.2042	8.418	162.7	0.480549348	0.571168953	0.008103673	0.083604098	0.025767595
2019-09-20T00:15:00	0.2051	8.406	162.7	0.483754192	0.575555884	0.008202180	0.084620380	0.026080823
2019-09-20T00:20:00	0.2054	8.395	162.6	0.484541948	0.576635454	0.008226484	0.084871115	0.026158102
2019-09-20T00:25:00	0.2046	8.381	162.5	0.481878677	0.572987603	0.008144461	0.084024901	0.025897291
2019-09-20T00:30:00	0.2060	8.369	162.5	0.486806499	0.579741642	0.008296547	0.085593947	0.026380886
2019-09-20T00:35:00	0.2047	8.358	162.4	0.482419420	0.573727794	0.008161082	0.084196374	0.025950140
2019-09-20T00:40:00	0.2055	8.344	162.4	0.484932671	0.577171099	0.008238551	0.084995615	0.026196474
2019-09-20T00:45:00	0.2051	8.334	162.3	0.483650307	0.575413552	0.008198978	0.084587342	0.026070640
2019-09-20T00:50:00	0.2058	8.322	162.3	0.486162646	0.578858079	0.008276597	0.085388123	0.026317449
2019-09-20T00:55:00	0.2062	8.310	162.2	0.487294569	0.580411645	0.008311686	0.085750135	0.026429024
2019-09-20T01:00:00	0.2055	8.298	162.2	0.484978421	0.577233827	0.008239965	0.085010198	0.026200969
2019-09-20T01:05:00	0.2054	8.283	162.1	0.484731142	0.576894806	0.008232326	0.084931388	0.026176679
2019-09-20T01:10:00	0.2035	8.269	162.0	0.478268242	0.568051469	0.008033917	0.082884444	0.025545791
2019-09-20T01:15:00	0.2057	8.257	162.0	0.485616327	0.578108623	0.008259687	0.085213672	0.026263681
2019-09-20T01:20:00	0.2041	8.245	161.9	0.480191571	0.570679722	0.008092712	0.083491022	0.025732744
2019-09-20T01:25:00	0.2047	8.229	161.8	0.482361280	0.573648197	0.008159294	0.084177929	0.025944455
2019-09-20T01:30:00	0.2043	8.220	161.8	0.480732583	0.571419553	0.008109289	0.083662040	0.025785453
2019-09-20T01:35:00	0.2028	8.210	161.8	0.475645909	0.564472769	0.007954096	0.082060940	0.025291979
2019-09-20T01:40:00	0.2033	8.199	161.7	0.477472840	0.566965404	0.008009664	0.082634230	0.025468672
2019-09-20T01:45:00	0.2025	8.184	161.6	0.474804002	0.563324979	0.007928552	0.081797413	0.025210757
2019-09-20T01:50:00	0.2035	8.172	161.6	0.478014286	0.567704656	0.008026170	0.082804515	0.025521156
2019-09-20T01:55:00	0.2044	8.158	161.5	0.481221529	0.572088385	0.008124285	0.083816748	0.025833136
2019-09-20T02:00:00	0.2048	8.144	161.4	0.482700296	0.574112360	0.008169721	0.084285510	0.025977613
2019-09-20T02:05:00	0.2059	8.134	161.3	0.486247943	0.578975113	0.008279238	0.085415377	0.026325849
2019-09-20T02:10:00	0.2034	8.119	161.3	0.477714463	0.567295271	0.008017028	0.082710200	0.025492087
2019-09-20T02:15:00	0.2026	8.107	161.3	0.475045817	0.563654593	0.007935885	0.081873061	0.025234073
2019-09-20T02:20:00	0.2033	8.097	161.2	0.477564542	0.567090591	0.008012459	0.082663059	0.025477557
2019-09-20T02:25:00	0.2036	8.085	161.1	0.478353738	0.568168238	0.008036526	0.082911361	0.025554087
2019-09-20T02:30:00	0.2049	8.075	161.0	0.482941547	0.574442724	0.008177146	0.084362108	0.026001221
2019-09-20T02:35:00	0.2039	8.062	161.0	0.479586101	0.569852022	0.008074181	0.083299833	0.025673818
2019-09-20T02:40:00	0.2038	8.047	160.9	0.479338428	0.569513527	0.008066606	0.083221688	0.025649733
2019-09-20T02:45:00	0.2065	8.037	160.9	0.488407616	0.581940301	0.008346262	0.086106849	0.026538967
2019-09-20T02:50:00	0.2061	8.024	160.8	0.487126564	0.580180992	0.008306473	0.085696355	0.026412449
2019-09-20T02:55:00	0.2050	8.013	160.8	0.483430174	0.575111981	0.008192194	0.084517355	0.026049070
2019-09-20T03:00:00	0.2043	8.001	160.7	0.480766029	0.571465299	0.008110314	0.083672618	0.025788713
2019-09-20T03:05:00	0.2054	7.988	160.6	0.484660693	0.576798230	0.008230150	0.084908942	0.026169761
2019-09-20T03:10:00	0.2029	7.977	160.6	0.476123211	0.565123736	0.007968595	0.082210527	0.025338083
2019-09-20T03:15:00	0.2037	7.963	160.5	0.478986707	0.569032916	0.008055856	0.083110777	0.025615549
2019-09-20T03:20:00	0.2058	7.951	160.4	0.485988413	0.578619035	0.008271202	0.085332468	0.026300295
2019-09-20T03:25:00	0.2036	7.936	160.4	0.478491255	0.568356068	0.008040724	0.082954665	0.025567434
2019-09-20T03:30:00	0.2039	7.927	171.1	0.479625742	0.569906203	0.008075393	0.083312344	0.025677673
2019-09-20T03:35:00	0.2058	7.913	171.0	0.485936505	0.578547823	0.008269595	0.085315890	0.026295186
2019-09-20T03:40:00	0.2048	7.901	171.0	0.482584023	0.573953155	0.008166144	0.084248605	0.025966238
2019-09-20T03:45:00	0.2039	7.891	170.9	0.479573736	0.569835121	0.008073802	0.083295931	0.025672615
2019-09-20T03:50:00	0.2055	7.882	170.8	0.485194820	0.577530551	0.008246653	0.085079196	0.026222235
2019-09-20T03:55:00	0.2043	7.869	170.8	0.480805656	0.571519498	0.008111529	0.083685152	0.025792577
2019-09-20T04:00:00	0.2056	7.857	170.8	0.485390150	0.577798416	0.008252692	0.085141500	0.026241437
2019-09-20T04:05:00	0.2035	7.846	159.9	0.478041574	0.567741918	0.008027002	0.082813102	0.025523802
2019-09-20T04:10:00	0.2024	7.833	159.9	0.474485318	0.562890658	0.007918894	0.081697771	0.025180046
2019-09-20T04:15:00	0.2031	7.819	159.8	0.476808647	0.566058883	0.007989440	0.082425579	0.025404364
2019-09-20T04:20:00	0.2032	7.809	159.7	0.477056506	0.566397131	0.007996984	0.082503411	0.025428353
2019-09-20T04:25:00	0.2029	7.799	159.7	0.475921157	0.564848143	0.007962456	0.082147186	0.025318561
2019-09-20T04:30:00	0.2029	7.787	159.6	0.476169081	0.565186305	0.007969989	0.082224909	0.025342516
2019-09-20T04:35:00	0.2037	7.778	159.6	0.478836842	0.568828162	0.008051277	0.083063541	0.025600990
2019-09-20T04:40:00	0.2036	7.768	159.5	0.478393392	0.568222399	0.008037737	0.082923847	0.025557935
2019-09-20T04:45:00	0.2028	7.758	159.5	0.475875284	0.564785579	0.007961062	0.082132809	0.025314129
2019-09-20T04:50:00	0.2043	7.746	159.4	0.480961614	0.571732822	0.008116312	0.083734490	0.025807783
2019-09-20T04:55:00	0.2045	7.738	159.4	0.481554480	0.572543939	0.008134504	0.083922179	0.025865631
2019-09-20T05:00:00	0.2063	7.732	159.3	0.487666471	0.580922304	0.008323231	0.085869242	0.026465734
2019-09-20T05:05:00	0.2054	7.723	159.3	0.484810301	0.577003329	0.008234771	0.084956613	0.026184453
2019-09-20T05:10:00	0.2050	7.717	159.2	0.483332454	0.574978122	0.008189183	0.084486296	0.026039497
2019-09-20T05:15:00	0.2062	7.710	159.2	0.487373669	0.580520247	0.008314141	0.085775461	0.026436830
2019-09-20T05:20:00	0.2044	7.706	159.2	0.481410908	0.572347488	0.008130097	0.083876708	0.025851616
2019-09-20T05:25:00	0.2048	7.702	159.1	0.482694119	0.574103902	0.008169531	0.084283549	0.025977008
2019-09-20T05:30:00	0.2040	7.697	159.1	0.479833757	0.570190541	0.008081758	0.083378009	0.025697912
2019-09-20T05:35:00	0.2055	7.690	159.1	0.484914152	0.577145708	0.008237979	0.084989712	0.026194654
2019-09-20T05:40:00	0.2077	7.686	159.0	0.492741325	0.587901660	0.008481565	0.087502741	0.026969195
2019-09-20T05:45:00	0.2066	7.681	158.8	0.488855924	0.582556287	0.008360209	0.086250733	0.026583314
2019-09-20T05:50:00	0.2069	7.678	159.0	0.489791886	0.583842838	0.008389363	0.086551512	0.026676017
2019-09-20T05:55:00	0.2063	7.676	159.0	0.487626925	0.580867997	0.008322003	0.085856573	0.026461829
2019-09-20T06:00:00	0.2065	7.675	159.0	0.488563225	0.582154093	0.008351102	0.086156778	0.026554356
2019-09-20T06:05:00	0.2070	7.676	158.9	0.490188169	0.584387771	0.008401722	0.086679018	0.026715315
2019-09-20T06:10:00	0.2073	7.676	158.9	0.491123763	0.585674816	0.008430937	0.086980419	0.026808210
2019-09-20T06:15:00	0.2088	7.677	158.9	0.496531105	0.593127142	0.008600772	0.088732575	0.027348241
2019-09-20T06:20:00	0.2098	7.676	158.9	0.499869872	0.597740307	0.008706478	0.089823125	0.027684360
2019-09-20T06:25:00	0.2100	7.682	158.9	0.500459450	0.598555856	0.008725211	0.090016390	0.027743926
2019-09-20T06:30:00	0.2097	7.688	158.9	0.499331898	0.596996383	0.008689402	0.089646957	0.027630063
2019-09-20T06:35:00	0.2097	7.697	159.0	0.499578118	0.597336834	0.008697215	0.089727565	0.027654907
2019-09-20T06:40:00	0.2079	7.711	159.0	0.493292657	0.588661140	0.008498855	0.087681125	0.027024174
2019-09-20T06:45:00	0.2111	7.725	159.1	0.504189035	0.603721380	0.008844178	0.091243751	0.028122210
2019-09-20T06:50:00	0.2111	7.742	159.2	0.504434905	0.604062308	0.008852049	0.091324956	0.028147238
2019-09-20T06:55:00	0.2119	7.761	159.2	0.507080597	0.607733942	0.008936966	0.092201036	0.028417255
2019-09-20T07:00:00	0.2118	7.779	159.3	0.506640813	0.607123228	0.008922823	0.092055119	0.028372282
2019-09-20T07:05:00	0.2112	7.797	159.4	0.504486533	0.604133901	0.008853702	0.091342011	0.028152495
2019-09-20T07:10:00	0.2109	7.820	159.4	0.503703379	0.603048107	0.008828641	0.091083459	0.028072807
2019-09-20T07:15:00	0.2125	7.844	159.5	0.509090834	0.610527480	0.009001759	0.092869487	0.028623278
2019-09-20T07:20:00	0.2116	7.868	159.6	0.505909759	0.606108382	0.008899337	0.091812816	0.028297601
2019-09-20T07:25:00	0.2110	7.891	159.7	0.504098048	0.603595229	0.008841266	0.091213710	0.028112951
2019-09-20T07:30:00	0.2124	7.914	159.8	0.508799866	0.610122934	0.008992366	0.092772584	0.028593411
2019-09-20T07:35:00	0.2113	7.938	159.9	0.504932731	0.604752749	0.008867996	0.091489484	0.028197948
2019-09-20T07:40:00	0.2121	7.963	160.0	0.507578037	0.608424910	0.008952978	0.092366222	0.028468167
2019-09-20T07:45:00	0.2118	7.992	160.2	0.506795592	0.607338147	0.008927799	0.092106460	0.028388106
2019-09-20T07:50:00	0.2120	8.023	160.3	0.507383975	0.608155326	0.008946730	0.092301762	0.028448299
2019-09-20T07:55:00	0.2109	8.052	171.2	0.503515237	0.602787333	0.008822625	0.091021399	0.028053679
2019-09-20T08:00:00	0.2097	8.075	171.3	0.499642112	0.597425326	0.008699246	0.089748521	0.027661366
2019-09-20T08:05:00	0.2101	8.110	171.5	0.500918463	0.599190991	0.008739809	0.090166999	0.027790345
2019-09-20T08:10:00	0.2122	8.147	160.8	0.508023832	0.609044309	0.008967339	0.092514383	0.028513831
2019-09-20T08:15:00	0.2112	8.184	160.9	0.504498808	0.604150924	0.008854095	0.091346067	0.028153745
2019-09-20T08:20:00	0.2116	8.218	161.1	0.506116173	0.606394882	0.008905965	0.091881198	0.028318678
2019-09-20T08:25:00	0.2122	8.253	161.2	0.508075405	0.609115976	0.008969001	0.092531532	0.028519117
2019-09-20T08:30:00	0.2121	8.287	161.4	0.507635749	0.608505087	0.008954836	0.092385396	0.028474076
2019-09-20T08:35:00	0.2107	8.321	161.5	0.503081134	0.602185754	0.008808754	0.090878289	0.028009571
2019-09-20T08:40:00	0.2121	8.355	161.7	0.507784351	0.608711548	0.008959623	0.092434776	0.028489296
2019-09-20T08:45:00	0.2123	8.395	161.8	0.508372565	0.609528959	0.008978581	0.092630369	0.028549579
2019-09-20T08:50:00	0.2115	8.440	162.0	0.505533707	0.605586517	0.008887267	0.091688300	0.028259225
2019-09-20T08:55:00	0.2110	8.483	162.2	0.504064830	0.603549175	0.008840203	0.091202744	0.028109571
2019-09-20T09:00:00	0.2118	8.528	162.4	0.506710808	0.607220418	0.008925073	0.092078335	0.028379437
2019-09-20T09:05:00	0.2113	8.562	162.6	0.504899521	0.604706684	0.008866932	0.091478504	0.028194563
2019-09-20T09:10:00	0.2115	8.601	162.7	0.505831088	0.605999197	0.008896811	0.091786760	0.028289571
2019-09-20T09:15:00	0.2111	8.641	162.9	0.504362339	0.603961681	0.008849725	0.091300985	0.028139850
2019-09-20T09:20:00	0.2104	8.676	163.0	0.501863401	0.600499032	0.008769900	0.090477441	0.027886026
2019-09-20T09:25:00	0.2100	8.718	163.2	0.500392944	0.598463845	0.008723097	0.089994579	0.027737203
2019-09-20T09:30:00	0.2104	8.752	163.4	0.502012254	0.600705150	0.008774645	0.090526392	0.027901113
2019-09-20T09:35:00	0.2115	8.791	163.5	0.505688536	0.605801367	0.008892236	0.091739556	0.028275022
2019-09-20T09:40:00	0.2086	8.828	163.7	0.495633918	0.591889028	0.008572476	0.088440654	0.027258269
2019-09-20T09:45:00	0.2092	8.872	163.9	0.497942823	0.595076616	0.008645388	0.089192879	0.027490111
2019-09-20T09:50:00	0.2087	8.910	164.0	0.496126876	0.592569228	0.008588017	0.088600990	0.027307686
2019-09-20T09:55:00	0.2077	8.938	164.2	0.492589532	0.587692603	0.008476807	0.087453660	0.026954067
2019-09-20T10:00:00	0.2062	8.967	164.3	0.487325413	0.580453992	0.008312643	0.085760010	0.026432068
2019-09-20T10:05:00	0.2058	9.003	164.5	0.486037782	0.578686766	0.008272731	0.085348236	0.026305155
2019-09-20T10:10:00	0.2046	9.039	164.6	0.481988796	0.573138319	0.008147844	0.084059806	0.025908049
2019-09-20T10:15:00	0.2062	9.079	164.8	0.487599715	0.580830632	0.008321158	0.085847856	0.026459143
2019-09-20T10:20:00	0.2057	9.122	165.0	0.485622499	0.578117089	0.008259878	0.085215642	0.026264288
2019-09-20T10:25:00	0.2042	9.151	165.1	0.480536985	0.571152047	0.008103294	0.083600190	0.025766390
2019-09-20T10:30:00	0.2029	9.169	165.2	0.476135590	0.565140621	0.007968971	0.082214408	0.025339279
2019-09-20T10:35:00	0.2071	9.187	165.2	0.490721427	0.585121259	0.008418367	0.086850743	0.026768242
2019-09-20T10:40:00	0.2069	9.196	165.4	0.489779557	0.583825887	0.008388979	0.086547547	0.026674795
2019-09-20T10:45:00	0.2071	9.208	165.4	0.490559754	0.584898856	0.008413319	0.086798661	0.026752190
2019-09-20T10:50:00	0.2059	9.234	165.5	0.486516161	0.579343169	0.008287548	0.085501103	0.026352270
2019-09-20T10:55:00	0.2061	9.263	165.6	0.486952381	0.579941882	0.008301071	0.085640616	0.026395270
2019-09-20T11:00:00	0.2052	9.300	165.8	0.483939795	0.575810197	0.008207903	0.084679423	0.026099020
2019-09-20T11:05:00	0.2029	9.341	166.0	0.476086076	0.565073083	0.007967467	0.082198884	0.025334494
2019-09-20T11:10:00	0.2047	9.385	166.2	0.482397251	0.573697443	0.008160400	0.084189341	0.025947972
2019-09-20T11:15:00	0.2045	9.424	166.3	0.481453069	0.572405176	0.008131391	0.083890060	0.025855731
2019-09-20T11:20:00	0.2029	9.447	166.4	0.476015448	0.564976748	0.007965320	0.082176742	0.025327670
2019-09-20T11:25:00	0.2044	9.470	166.6	0.481290953	0.572183366	0.008126415	0.083838726	0.025839910
2019-09-20T11:30:00	0.2037	9.493	166.7	0.478964516	0.569002595	0.008055178	0.083103781	0.025613393
2019-09-20T11:35:00	0.2051	9.512	166.8	0.483545323	0.575269725	0.008195742	0.084553961	0.026060352
2019-09-20T11:40:00	0.2048	9.529	166.8	0.482601460	0.573977030	0.008166681	0.084254139	0.025967944
2019-09-20T11:45:00	0.2042	9.546	166.9	0.480621329	0.571267394	0.008105879	0.083626857	0.025774610
2019-09-20T11:50:00	0.2028	9.562	167.0	0.475874187	0.564784083	0.007961029	0.082132465	0.025314024
2019-09-20T11:55:00	0.2045	9.579	167.1	0.481495229	0.572462864	0.008132685	0.083903412	0.025859847
2019-09-20T12:00:00	0.2069	9.605	167.2	0.489863671	0.583941542	0.008391601	0.086574602	0.026683133
2019-09-20T12:05:00	0.2057	9.632	167.3	0.485819249	0.578386970	0.008265966	0.085278449	0.026283646
2019-09-20T12:10:00	0.2068	9.649	178.8	0.489357474	0.583245619	0.008375825	0.086411846	0.026632970
2019-09-20T12:15:00	0.2040	9.669	179.0	0.479789384	0.570129885	0.008080400	0.083363999	0.025693594
2019-09-20T12:20:00	0.2051	9.690	179.0	0.483678995	0.575452856	0.008199862	0.084596465	0.026073452
2019-09-20T12:25:00	0.2040	9.711	167.7	0.479972661	0.570380430	0.008086010	0.083421872	0.025711431
2019-09-20T12:30:00	0.2031	9.732	179.3	0.476608084	0.565785213	0.007983338	0.082362624	0.025384961
2019-09-20T12:35:00	0.2027	9.753	167.9	0.475316373	0.564023438	0.007944093	0.081957741	0.025260172
2019-09-20T12:40:00	0.2031	9.777	168.1	0.476791533	0.566035529	0.007988919	0.082420206	0.025402708
2019-09-20T12:45:00	0.2032	9.798	168.1	0.477229006	0.566632567	0.008002237	0.082557601	0.025445054
2019-09-20T12:50:00	0.2024	9.815	168.2	0.474207758	0.562512448	0.007910487	0.081611035	0.025153314
2019-09-20T12:55:00	0.2053	9.832	168.3	0.484319685	0.576330806	0.008219623	0.084800334	0.026136286
2019-09-20T13:00:00	0.2034	9.842	168.3	0.477849814	0.567480072	0.008021154	0.082752770	0.025505208
2019-09-20T13:05:00	0.2043	9.852	168.4	0.481051032	0.571855139	0.008119054	0.083762785	0.025816504
2019-09-20T13:10:00	0.2031	9.864	168.4	0.476650304	0.565842821	0.007984622	0.082375875	0.025389045
2019-09-20T13:15:00	0.2040	9.875	168.5	0.479852656	0.570216376	0.008082337	0.083383976	0.025699751
2019-09-20T13:20:00	0.2045	9.887	168.6	0.481671140	0.572703578	0.008138086	0.083959136	0.025877021
2019-09-20T13:25:00	0.2036	9.899	168.6	0.478308250	0.568106110	0.008035138	0.082897039	0.025549673
2019-09-20T13:30:00	0.2023	9.912	168.7	0.473903952	0.562098546	0.007901290	0.081516150	0.025124069
2019-09-20T13:35:00	0.2020	9.927	168.7	0.472957397	0.560809438	0.007872669	0.081220871	0.025033061
2019-09-20T13:40:00	0.2017	9.942	168.8	0.472010577	0.559520682	0.007844091	0.080926038	0.024942191
2019-09-20T13:45:00	0.2019	9.955	168.9	0.472448668	0.560116898	0.007857307	0.081062391	0.024984216
2019-09-20T13:50:00	0.2007	9.970	169.0	0.468383381	0.554590150	0.007735085	0.079801450	0.024595582
2019-09-20T13:55:00	0.2011	9.987	169.1	0.469861570	0.556598226	0.007779417	0.080258816	0.024736546
2019-09-20T14:00:00	0.1994	10.005	169.1	0.464058181	0.548724455	0.007606086	0.078470590	0.024185398
2019-09-20T14:05:00	0.1992	10.022	169.2	0.463108859	0.547439000	0.007577916	0.078179959	0.024095823
2019-09-20T14:10:00	0.2009	10.038	169.3	0.469097749	0.555560380	0.007756494	0.080022321	0.024663657
2019-09-20T14:15:00	0.1997	10.053	169.4	0.465028419	0.550038969	0.007634931	0.078768172	0.024277116
2019-09-20T14:20:00	0.2003	10.070	169.4	0.467201675	0.552986085	0.007699735	0.079436745	0.024483176
2019-09-20T14:25:00	0.1988	10.086	169.6	0.461741043	0.545588126	0.007537417	0.077762141	0.023967047
2019-09-20T14:30:00	0.1993	10.100	169.6	0.463569301	0.548062384	0.007591573	0.078320855	0.024139248
2019-09-20T14:35:00	0.1985	10.114	169.7	0.460883224	0.544428116	0.007512073	0.077500670	0.023886459
2019-09-20T14:40:00	0.1992	10.126	169.8	0.463406325	0.547841715	0.007586737	0.078270970	0.024123873
2019-09-20T14:45:00	0.1994	10.137	169.9	0.463845536	0.548436455	0.007599772	0.078405443	0.024165319
2019-09-20T14:50:00	0.1985	10.145	169.9	0.460812277	0.544332202	0.007509979	0.077479064	0.023879800
2019-09-20T14:55:00	0.1993	10.152	170.0	0.463682574	0.548215768	0.007594934	0.078355536	0.024149937
2019-09-20T15:00:00	0.1969	10.157	170.0	0.455085571	0.536603333	0.007341882	0.075744840	0.023345295
2019-09-20T15:05:00	0.1979	10.163	170.0	0.458656115	0.541419164	0.007446469	0.076823849	0.023677856
2019-09-20T15:10:00	0.1973	10.166	170.1	0.456661881	0.538728166	0.007387965	0.076220273	0.023491828
2019-09-20T15:15:00	0.1977	10.172	170.1	0.458145223	0.540729472	0.007431460	0.076668999	0.023630130
2019-09-20T15:20:00	0.1984	10.174	170.1	0.460322925	0.543670751	0.007495542	0.077330120	0.023833894
2019-09-20T15:25:00	0.1982	10.173	170.1	0.459720100	0.542856179	0.007477775	0.077146831	0.023777403
2019-09-20T15:30:00	0.1978	10.172	170.1	0.458421904	0.541102958	0.007439586	0.076752841	0.023655971
2019-09-20T15:35:00	0.1994	10.171	170.1	0.464072059	0.548743251	0.007606498	0.078474842	0.024186708
2019-09-20T15:40:00	0.1996	10.170	170.1	0.464511182	0.549338105	0.007619547	0.078609461	0.024228199
2019-09-20T15:45:00	0.1983	10.166	170.2	0.460088829	0.543354393	0.007488640	0.077258918	0.023811949
2019-09-20T15:50:00	0.1996	10.164	170.1	0.464695290	0.549587549	0.007625021	0.078665935	0.024245605
2019-09-20T15:55:00	0.1991	10.159	170.2	0.463051840	0.547361815	0.007576225	0.078162520	0.024090448
2019-09-20T16:00:00	0.1981	10.153	170.1	0.459322789	0.542319467	0.007466078	0.077026146	0.023740206
2019-09-20T16:05:00	0.1991	10.145	170.1	0.462891946	0.547145383	0.007571486	0.078113627	0.024075378
2019-09-20T16:10:00	0.1996	10.139	170.1	0.464722685	0.549624669	0.007625836	0.078674341	0.024248196
2019-09-20T16:15:00	0.1981	10.132	170.0	0.459261139	0.542236198	0.007464263	0.077007428	0.023734437
2019-09-20T16:20:00	0.1978	10.123	170.0	0.458313573	0.540956718	0.007436404	0.076720009	0.023645852
2019-09-20T16:25:00	0.1979	10.113	170.0	0.458756560	0.541554786	0.007449422	0.076854311	0.023687245
2019-09-20T16:30:00	0.1979	10.102	169.9	0.458851883	0.541683500	0.007452224	0.076883226	0.023696157
2019-09-20T16:35:00	0.1971	10.090	169.9	0.455817228	0.537589348	0.007363254	0.075965335	0.023413254
2019-09-20T16:40:00	0.1971	10.078	169.9	0.455912635	0.537717953	0.007366043	0.075994110	0.023422123
2019-09-20T16:45:00	0.1981	10.064	169.8	0.459485411	0.542539132	0.007470865	0.077075532	0.023755428
2019-09-20T16:50:00	0.1981	10.050	169.7	0.459580714	0.542667874	0.007473671	0.077104481	0.023764350
2019-09-20T16:55:00	0.1995	10.035	169.7	0.464190975	0.548904324	0.007610031	0.078511286	0.024197941
2019-09-20T17:00:00	0.1988	10.022	169.6	0.461855832	0.545743398	0.007540812	0.077797163	0.023977841
2019-09-20T17:05:00	0.1988	10.008	169.6	0.461951068	0.545872227	0.007543628	0.077826224	0.023986798
2019-09-20T17:10:00	0.2011	9.991	169.5	0.469678098	0.556348889	0.007773908	0.080201977	0.024719028
2019-09-20T17:15:00	0.2025	9.973	169.4	0.474620602	0.563075021	0.007922993	0.081740062	0.025193081
2019-09-20T17:20:00	0.1998	9.957	169.4	0.465360769	0.550489420	0.007644824	0.078870235	0.024308572
2019-09-20T17:25:00	0.2005	9.939	169.3	0.467883622	0.553911635	0.007720125	0.079647111	0.024548013
2019-09-20T17:30:00	0.2014	9.920	169.2	0.470751006	0.557807333	0.007806153	0.080534636	0.024821557
2019-09-20T17:35:00	0.2008	9.902	169.2	0.468767023	0.555111150	0.007746579	0.079920029	0.024632129
2019-09-20T17:40:00	0.2038	9.884	169.1	0.479243838	0.569384265	0.008063714	0.083191853	0.025640537
2019-09-20T17:45:00	0.2035	9.867	169.0	0.478301869	0.568097396	0.008034943	0.082895030	0.025549053
2019-09-20T17:50:00	0.2061	9.848	180.5	0.487026022	0.580042970	0.008303355	0.085664179	0.026402532
2019-09-20T17:55:00	0.2065	9.829	168.9	0.488499179	0.582066097	0.008349110	0.086136226	0.026548022
2019-09-20T18:00:00	0.2071	9.810	180.4	0.490660503	0.585037447	0.008416465	0.086831115	0.026762193
2019-09-20T18:05:00	0.2076	9.788	168.7	0.492132086	0.587062694	0.008462479	0.087305831	0.026908505
2019-09-20T18:10:00	0.2086	9.768	168.6	0.495666828	0.591934432	0.008573513	0.088451354	0.027261566
2019-09-20T18:15:00	0.2093	9.747	168.5	0.498167233	0.595386656	0.008652491	0.089266159	0.027512697
2019-09-20T18:20:00	0.2092	9.727	168.4	0.497917836	0.595042096	0.008644598	0.089184721	0.027487597
2019-09-20T18:25:00	0.2091	9.706	168.4	0.497324743	0.594222898	0.008625840	0.088991202	0.027427953
2019-09-20T18:30:00	0.2107	9.687	168.3	0.502913517	0.601953512	0.008803401	0.090823061	0.027992550
2019-09-20T18:35:00	0.2093	9.664	168.2	0.498200508	0.595432632	0.008653545	0.089277027	0.027516047
2019-09-20T18:40:00	0.2110	9.642	168.1	0.503787849	0.603165196	0.008831342	0.091111328	0.028081396
2019-09-20T18:45:00	0.2112	9.622	168.0	0.504567915	0.604246761	0.008856308	0.091368900	0.028160782
2019-09-20T18:50:00	0.2099	9.603	167.9	0.500200613	0.598197778	0.008716984	0.089931517	0.027717767
2019-09-20T18:55:00	0.2121	9.583	167.8	0.507841128	0.608790436	0.008961452	0.092453647	0.028495112
2019-09-20T19:00:00	0.2118	9.562	167.8	0.506564294	0.607016985	0.008920363	0.092029742	0.028364460
2019-09-20T19:05:00	0.2120	9.543	167.6	0.507343726	0.608099416	0.008945434	0.092288395	0.028444180
2019-09-20T19:10:00	0.2122	9.524	167.6	0.508122980	0.609182090	0.008970535	0.092547352	0.028523993
2019-09-20T19:15:00	0.2121	9.508	167.5	0.507874309	0.608836539	0.008962521	0.092464676	0.028498511
2019-09-20T19:20:00	0.2111	9.485	167.4	0.504197310	0.603732854	0.008844443	0.091246484	0.028123052
2019-09-20T19:25:00	0.2127	9.463	167.3	0.509774859	0.611478784	0.009023859	0.093097492	0.028693551
2019-09-20T19:30:00	0.2109	9.440	167.2	0.503699377	0.603042560	0.008828513	0.091082138	0.028072400
2019-09-20T19:35:00	0.2110	9.421	167.1	0.503793444	0.603172952	0.008831521	0.091113174	0.028081965
2019-09-20T19:40:00	0.2093	9.403	167.0	0.498050943	0.595225988	0.008648810	0.089228181	0.027500992
2019-09-20T19:45:00	0.2114	9.385	167.0	0.505353394	0.605336328	0.008881483	0.091628626	0.028240832
2019-09-20T19:50:00	0.2114	9.364	166.9	0.505447416	0.605466782	0.008884499	0.091659740	0.028250422
2019-09-20T19:55:00	0.2117	9.343	166.8	0.506227102	0.606548865	0.008909528	0.091917958	0.028330007
2019-09-20T20:00:00	0.2106	9.326	166.7	0.502548330	0.601447603	0.008791743	0.090702794	0.027955482
2019-09-20T20:05:00	0.2111	9.305	166.6	0.504357794	0.603955379	0.008849580	0.091299484	0.028139388
2019-09-20T20:10:00	0.2122	9.283	166.6	0.508222513	0.609320414	0.008973743	0.092580454	0.028534195
2019-09-20T20:15:00	0.2143	9.268	166.5	0.515161408	0.618983298	0.009198841	0.094902749	0.029249949
2019-09-20T20:20:00	0.2119	9.250	166.4	0.507039800	0.607677283	0.008935654	0.092187495	0.028413081
2019-09-20T20:25:00	0.2116	9.233	166.3	0.506105496	0.606380061	0.008905622	0.091877660	0.028317587
2019-09-20T20:30:00	0.2136	9.214	166.3	0.512706544	0.615560284	0.009118886	0.094077870	0.028995713
2019-09-20T20:35:00	0.2124	9.195	166.2	0.508692202	0.609973260	0.008988892	0.092736741	0.028582364
2019-09-20T20:40:00	0.2105	9.178	166.1	0.502271615	0.601064330	0.008782915	0.090611717	0.027927411
2019-09-20T20:45:00	0.2104	9.161	166.0	0.502022517	0.600719362	0.008774972	0.090529768	0.027902154
2019-09-20T20:50:00	0.2106	9.139	165.9	0.502459825	0.601325010	0.008788919	0.090673659	0.027946502
2019-09-20T20:55:00	0.2118	9.117	165.8	0.506669463	0.607163010	0.008923744	0.092064621	0.028375210
2019-09-20T21:00:00	0.2120	9.100	165.8	0.507448871	0.608245473	0.008948819	0.092323315	0.028454942
2019-09-20T21:05:00	0.2099	9.082	165.7	0.500339233	0.598389539	0.008721389	0.089976966	0.027731775
2019-09-20T21:10:00	0.2099	9.062	165.6	0.500089994	0.598044763	0.008713469	0.089895257	0.027706591
2019-09-20T21:15:00	0.2106	9.044	165.5	0.502587159	0.601501389	0.008792982	0.090715578	0.027959422
2019-09-20T21:20:00	0.2094	9.026	165.4	0.498560908	0.595930647	0.008664959	0.089394784	0.027552341
2019-09-20T21:25:00	0.2097	9.010	165.4	0.499342169	0.597010584	0.008689728	0.089650319	0.027631099
2019-09-20T21:30:00	0.2097	8.989	165.3	0.499436356	0.597140812	0.008692716	0.089681150	0.027640601
2019-09-20T21:35:00	0.2099	8.973	165.2	0.500217416	0.598221022	0.008717518	0.089937026	0.027719465
2019-09-20T21:40:00	0.2095	8.956	165.1	0.498937728	0.596451465	0.008676901	0.089517989	0.027590314
2019-09-20T21:45:00	0.2087	8.936	165.0	0.495938822	0.592309722	0.008582087	0.088539808	0.027288829
2019-09-20T21:50:00	0.2098	8.921	165.0	0.499813080	0.597661762	0.008704674	0.089804520	0.027678625
2019-09-20T21:55:00	0.2092	8.902	164.9	0.497846026	0.594942895	0.008642326	0.089161279	0.027480372
2019-09-20T22:00:00	0.2088	8.886	164.8	0.496565447	0.593174547	0.008601856	0.088743758	0.027351688
2019-09-20T22:05:00	0.2093	8.870	164.7	0.497982756	0.595131783	0.008646652	0.089205916	0.027494130
2019-09-20T22:10:00	0.2086	8.850	164.6	0.495619040	0.591868502	0.008572007	0.088435818	0.027256778
2019-09-20T22:15:00	0.2101	8.834	164.6	0.500815606	0.599048653	0.008736537	0.090133239	0.027779940
2019-09-20T22:20:00	0.2080	8.819	164.5	0.493640327	0.589140193	0.008509768	0.087793707	0.027058873
2019-09-20T22:25:00	0.2086	8.807	164.4	0.495746629	0.592044533	0.008576028	0.088477301	0.027269564
2019-09-20T22:30:00	0.2098	8.792	164.4	0.499912855	0.597799755	0.008707843	0.089837208	0.027688700
2019-09-20T22:35:00	0.2095	8.775	164.3	0.498924888	0.596433716	0.008676494	0.089513790	0.027589019
2019-09-20T22:40:00	0.2111	8.756	164.2	0.504459418	0.604096300	0.008852834	0.091333053	0.028149734
2019-09-20T22:45:00	0.2096	8.739	164.1	0.499009866	0.596551182	0.008679188	0.089541585	0.027597586
2019-09-20T22:50:00	0.2103	8.725	164.1	0.501456149	0.599935201	0.008756925	0.090343580	0.027844769
2019-09-20T22:55:00	0.2105	8.709	164.0	0.502185086	0.600944493	0.008780156	0.090583246	0.027918636
2019-09-20T23:00:00	0.2111	8.694	163.9	0.504286119	0.603855993	0.008847285	0.091275811	0.028132091
2019-09-20T23:05:00	0.2111	8.678	163.9	0.504328541	0.603914816	0.008848643	0.091289822	0.028136410
2019-09-20T23:10:00	0.2100	8.664	163.8	0.500596037	0.598744832	0.008729553	0.090061193	0.027757734
2019-09-20T23:15:00	0.2086	8.647	163.7	0.495828064	0.592156894	0.008578595	0.088503784	0.027277726
2019-09-20T23:20:00	0.2100	8.634	163.6	0.500680973	0.598862355	0.008732254	0.090089059	0.027766323
2019-09-20T23:25:00	0.2098	8.619	163.6	0.499693228	0.597496014	0.008700869	0.089765261	0.027666525
2019-09-20T23:30:00	0.2091	8.604	163.5	0.497330699	0.594231123	0.008626028	0.088993144	0.027428551
2019-09-20T23:35:00	0.2111	8.589	163.4	0.504240083	0.603792160	0.008845812	0.091260608	0.028127406
2019-09-20T23:40:00	0.2102	8.575	163.4	0.501194160	0.599572554	0.008748583	0.090257519	0.027818244
2019-09-20T23:45:00	0.2103	8.563	163.3	0.501579904	0.600106523	0.008760867	0.090384247	0.027857303
2019-09-20T23:50:00	0.2102	8.549	163.2	0.501279081	0.599690096	0.008751287	0.090285410	0.027826840
2019-09-20T23:55:00	0.2111	8.535	163.2	0.504409771	0.604027455	0.008851244	0.091316653	0.028144679
2019-09-21T00:00:00	0.2095	8.519	163.2	0.498960140	0.596482445	0.008677612	0.089525320	0.027592573
2019-09-21T00:05:00	0.2092	8.507	163.1	0.497628250	0.594642076	0.008635437	0.089090207	0.027458467
2019-09-21T00:10:00	0.2108	8.494	163.0	0.503164882	0.602301799	0.008811429	0.090905889	0.028018078
2019-09-21T00:15:00	0.2086	8.482	163.0	0.495650704	0.591912187	0.008573005	0.088446112	0.027259951
2019-09-21T00:20:00	0.2086	8.465	162.9	0.495693234	0.591970864	0.008574345	0.088459939	0.027264212
2019-09-21T00:25:00	0.2103	8.451	173.9	0.501576289	0.600101518	0.008760752	0.090383059	0.027856937
2019-09-21T00:30:00	0.2105	8.437	173.8	0.502305200	0.601110844	0.008783986	0.090622768	0.027930817
2019-09-21T00:35:00	0.2106	8.424	162.7	0.502690818	0.601644985	0.008796291	0.090749710	0.027969942
2019-09-21T00:40:00	0.2088	8.411	162.7	0.496550963	0.593154553	0.008601398	0.088739041	0.027350234
2019-09-21T00:45:00	0.2075	8.399	162.6	0.491777322	0.586574296	0.008451374	0.087191270	0.026873196
2019-09-21T00:50:00	0.2089	8.389	162.5	0.496636000	0.593271938	0.008604083	0.088766736	0.027358770
2019-09-21T00:55:00	0.2078	8.378	162.5	0.492895060	0.588113411	0.008486384	0.087552464	0.026984520
2019-09-21T01:00:00	0.2080	8.363	162.4	0.493625830	0.589120216	0.008509313	0.087789011	0.027057426
2019-09-21T01:05:00	0.2093	8.352	162.4	0.498138278	0.595346650	0.008651575	0.089256702	0.027509782
2019-09-21T01:10:00	0.2083	8.340	162.3	0.494742961	0.590660151	0.008544423	0.088151235	0.027169067
2019-09-21T01:15:00	0.2080	8.332	162.3	0.493753494	0.589296146	0.008513321	0.087830368	0.027070172
2019-09-21T01:20:00	0.2073	8.320	162.2	0.491386840	0.586036842	0.008439160	0.087065262	0.026834359
2019-09-21T01:25:00	0.2088	8.308	162.1	0.496246075	0.592733731	0.008591777	0.088639782	0.027319642
2019-09-21T01:30:00	0.2074	8.296	162.1	0.491472006	0.586154053	0.008441824	0.087092737	0.026842827
2019-09-21T01:35:00	0.2072	8.280	162.0	0.490825955	0.585265062	0.008421632	0.086884424	0.026778623
2019-09-21T01:40:00	0.2071	8.271	162.0	0.490524181	0.584849923	0.008412208	0.086787204	0.026748659
2019-09-21T01:45:00	0.2078	8.264	162.0	0.492976563	0.588225679	0.008488940	0.087578830	0.026992646
2019-09-21T01:50:00	0.2075	8.256	161.9	0.491986582	0.586862369	0.008457923	0.087258836	0.026894021
2019-09-21T01:55:00	0.2079	8.243	161.9	0.493405797	0.588817024	0.008502406	0.087717754	0.027035464
2019-09-21T02:00:00	0.2081	8.234	161.9	0.494136457	0.589823977	0.008525352	0.087954487	0.027108427
2019-09-21T02:05:00	0.2070	8.224	161.8	0.490048355	0.584195498	0.008397361	0.086634022	0.026701447
2019-09-21T02:10:00	0.2083	8.212	161.7	0.494565545	0.590415520	0.008538842	0.088093659	0.027151321
2019-09-21T02:15:00	0.2083	8.201	161.7	0.494608088	0.590474178	0.008540180	0.088107464	0.027155576
2019-09-21T02:20:00	0.2070	8.190	161.6	0.490176154	0.584371247	0.008401347	0.086675150	0.026714123
2019-09-21T02:25:00	0.2083	8.181	161.5	0.494693174	0.590591498	0.008542856	0.088135076	0.027164086
2019-09-21T02:30:00	0.2085	8.172	161.5	0.495423558	0.591598824	0.008565848	0.088372278	0.027237194
2019-09-21T02:35:00	0.2059	8.165	161.5	0.486513388	0.579339364	0.008287462	0.085500216	0.026351997
2019-09-21T02:40:00	0.2076	8.155	161.4	0.492412315	0.587448553	0.008471255	0.087396375	0.026936412
2019-09-21T02:45:00	0.2076	8.147	161.4	0.492110682	0.587033225	0.008461808	0.087298917	0.026906374
2019-09-21T02:50:00	0.2075	8.139	161.3	0.491809022	0.586617933	0.008452366	0.087201504	0.026876350
2019-09-21T02:55:00	0.2087	8.133	161.3	0.495980063	0.592366630	0.008583387	0.088553224	0.027292964
2019-09-21T03:00:00	0.2071	8.127	161.3	0.490516926	0.584839944	0.008411982	0.086784867	0.026747939
2019-09-21T03:05:00	0.2081	8.117	161.2	0.494001560	0.589638037	0.008521113	0.087910757	0.027094949
2019-09-21T03:10:00	0.2064	8.109	161.2	0.488190641	0.581642230	0.008339516	0.086037254	0.026517517
2019-09-21T03:15:00	0.2077	8.098	161.1	0.492710297	0.587858924	0.008480592	0.087492707	0.026966102
2019-09-21T03:20:00	0.2070	8.087	161.1	0.490342916	0.584600600	0.008406551	0.086728834	0.026730669
2019-09-21T03:25:00	0.2067	8.076	161.0	0.489007650	0.582764798	0.008364931	0.086299456	0.026598330
2019-09-21T03:30:00	0.2063	8.069	161.0	0.487671858	0.580929702	0.008323398	0.085870968	0.026466266
2019-09-21T03:35:00	0.2058	8.059	160.9	0.485990717	0.578622197	0.008271273	0.085333204	0.026300522
2019-09-21T03:40:00	0.2068	8.050	160.9	0.489479992	0.583414039	0.008379642	0.086451225	0.026645107
2019-09-21T03:45:00	0.2070	8.039	160.8	0.490211496	0.584419853	0.008402450	0.086686526	0.026717629
2019-09-21T03:50:00	0.2055	8.028	160.8	0.485084025	0.577378624	0.008243228	0.085043866	0.026211345
2019-09-21T03:55:00	0.2044	8.019	160.7	0.481330339	0.572237253	0.008127624	0.083851196	0.025843753
2019-09-21T04:00:00	0.2071	8.008	160.6	0.490683672	0.585069319	0.008417188	0.086838579	0.026764493
2019-09-21T04:05:00	0.2067	8.002	160.6	0.489199131	0.583027970	0.008370893	0.086360965	0.026617288
2019-09-21T04:10:00	0.2073	7.992	160.6	0.491158862	0.585723113	0.008432034	0.086991736	0.026811698
2019-09-21T04:15:00	0.2073	7.985	160.5	0.491396433	0.586050044	0.008439460	0.087068357	0.026835313
2019-09-21T04:20:00	0.2073	7.975	160.5	0.491289700	0.585903159	0.008436123	0.087033929	0.026824702
2019-09-21T04:25:00	0.2068	7.965	160.5	0.489460952	0.583387864	0.008379049	0.086445104	0.026643221
2019-09-21T04:30:00	0.2070	7.956	160.4	0.490043089	0.584188255	0.008397196	0.086632327	0.026700925
2019-09-21T04:35:00	0.2064	7.947	160.3	0.488213670	0.581673864	0.008340232	0.086044640	0.026519794
2019-09-21T04:40:00	0.2076	7.940	160.3	0.492239845	0.587211065	0.008465853	0.087340643	0.026919234
2019-09-21T04:45:00	0.2076	7.930	160.3	0.492133139	0.587064144	0.008462511	0.087306171	0.026908610
2019-09-21T04:50:00	0.2089	7.926	160.3	0.496842236	0.593556653	0.008610595	0.088833920	0.027379477
2019-09-21T04:55:00	0.2081	7.922	160.2	0.493984532	0.589614567	0.008520578	0.087905237	0.027093248
2019-09-21T05:00:00	0.2085	7.913	160.2	0.495253772	0.591364622	0.008560501	0.088317109	0.027220191
2019-09-21T05:05:00	0.2100	7.909	160.1	0.500645350	0.598813064	0.008731122	0.090077371	0.027762721
2019-09-21T05:10:00	0.2096	7.901	160.1	0.499165147	0.596765844	0.008684112	0.089592387	0.027613244
2019-09-21T05:15:00	0.2089	7.894	160.1	0.496653170	0.593295641	0.008604625	0.088772328	0.027360494
2019-09-21T05:20:00	0.2093	7.892	160.1	0.498265034	0.595521788	0.008655588	0.089298105	0.027522543
2019-09-21T05:25:00	0.2105	7.887	160.0	0.502279350	0.601075043	0.008783162	0.090614262	0.027928196
2019-09-21T05:30:00	0.2110	7.882	160.0	0.503888558	0.603304802	0.008834563	0.091144561	0.028091639
2019-09-21T05:35:00	0.2121	7.875	159.9	0.507896274	0.608867060	0.008963229	0.092471977	0.028500761
2019-09-21T05:40:00	0.2113	7.873	159.9	0.505047815	0.604912390	0.008871685	0.091527540	0.028209677
2019-09-21T05:45:00	0.2116	7.869	159.7	0.505970139	0.606192185	0.008901275	0.091832816	0.028303766
2019-09-21T05:50:00	0.2101	7.863	159.9	0.500717451	0.598912830	0.008733415	0.090101028	0.027770012
2019-09-21T05:55:00	0.2130	7.861	159.8	0.510896413	0.613039395	0.009060154	0.093471942	0.028808960
2019-09-21T06:00:00	0.2136	7.860	159.8	0.512843727	0.615751441	0.009123345	0.094123871	0.029009891
2019-09-21T06:05:00	0.2139	7.859	159.8	0.513763952	0.617034115	0.009153283	0.094432736	0.029105086
2019-09-21T06:10:00	0.2141	7.860	159.8	0.514683930	0.618317130	0.009183262	0.094742025	0.029200412
2019-09-21T06:15:00	0.2146	7.862	159.8	0.516287318	0.620554873	0.009235629	0.095282280	0.029366924
2019-09-21T06:20:00	0.2131	7.863	159.8	0.511050457	0.613253822	0.009065145	0.093523431	0.028824830
2019-09-21T06:25:00	0.2142	7.866	159.8	0.515049800	0.618827568	0.009195199	0.094865168	0.029238366
2019-09-21T06:30:00	0.2141	7.872	159.8	0.514601859	0.618202644	0.009180586	0.094714413	0.029191902
2019-09-21T06:35:00	0.2161	7.875	159.9	0.521328490	0.627604072	0.009401245	0.096990911	0.029893541
2019-09-21T06:40:00	0.2178	7.882	159.8	0.527360661	0.636066099	0.009601359	0.099055451	0.030529852
2019-09-21T06:45:00	0.2155	7.890	159.9	0.519409890	0.624918818	0.009338040	0.096338835	0.029692565
2019-09-21T06:50:00	0.2167	7.899	159.9	0.523399510	0.630506002	0.009469711	0.097697266	0.030111246
2019-09-21T06:55:00	0.2163	7.908	159.9	0.521929111	0.628445308	0.009421075	0.097195498	0.029956596
2019-09-21T07:00:00	0.2158	7.919	160.0	0.520458082	0.626385487	0.009372544	0.096694811	0.029802280
2019-09-21T07:05:00	0.2156	7.929	160.0	0.519669406	0.625281859	0.009346577	0.096426908	0.029719710
2019-09-21T07:10:00	0.2158	7.941	160.1	0.520246420	0.626089250	0.009365572	0.096622876	0.029780109
2019-09-21T07:15:00	0.2169	7.954	160.1	0.524235070	0.631677781	0.009497405	0.097982976	0.030199305
2019-09-21T07:20:00	0.2178	7.968	160.2	0.527197120	0.635836292	0.009595906	0.098999191	0.030512512
2019-09-21T07:25:00	0.2153	7.982	160.2	0.518562905	0.623734334	0.009310205	0.096051672	0.029604058
2019-09-21T07:30:00	0.2174	7.999	160.3	0.525963525	0.634103545	0.009554821	0.098575331	0.030381874
2019-09-21T07:35:00	0.2178	8.016	160.3	0.527220969	0.635869803	0.009596701	0.099007394	0.030515040
2019-09-21T07:40:00	0.2196	8.035	160.4	0.533242838	0.644346203	0.009798538	0.101089708	0.031156830
2019-09-21T07:45:00	0.2192	8.056	160.5	0.532116877	0.642759053	0.009760638	0.100698701	0.031036318
2019-09-21T07:50:00	0.2168	8.077	160.6	0.523836069	0.631118156	0.009484175	0.097846490	0.030157239
2019-09-21T07:55:00	0.2174	8.100	160.7	0.525776060	0.633840334	0.009548586	0.098510999	0.030362047
2019-09-21T08:00:00	0.2180	8.125	160.8	0.527714959	0.636564034	0.009613179	0.099177391	0.030567435
2019-09-21T08:05:00	0.2163	8.151	160.9	0.522154312	0.628760802	0.009428516	0.097272262	0.029980256
2019-09-21T08:10:00	0.2187	8.179	161.0	0.530228109	0.640098973	0.009697228	0.100044513	0.030834691
2019-09-21T08:15:00	0.2179	8.208	161.1	0.527398130	0.636118754	0.009602609	0.099068344	0.030533826
2019-09-21T08:20:00	0.2170	8.239	161.3	0.524565823	0.632141781	0.009508379	0.098096189	0.030234198
2019-09-21T08:25:00	0.2176	8.273	161.4	0.526505403	0.634864531	0.009572858	0.098761406	0.030439225
2019-09-21T08:30:00	0.2176	8.306	161.6	0.526399759	0.634716152	0.009569340	0.098725115	0.030428039
2019-09-21T08:35:00	0.2172	8.341	161.7	0.525271560	0.633132130	0.009531815	0.098337974	0.030308719
2019-09-21T08:40:00	0.2175	8.379	161.8	0.526188462	0.634419407	0.009562306	0.098652551	0.030405674
2019-09-21T08:45:00	0.2149	8.417	162.0	0.517210025	0.621843580	0.009265832	0.095593880	0.029462962
2019-09-21T08:50:00	0.2145	8.461	162.2	0.516078805	0.620263748	0.009228810	0.095211935	0.029345243
2019-09-21T08:55:00	0.2151	8.509	162.5	0.518023179	0.622979848	0.009292490	0.095868906	0.029547728
2019-09-21T09:00:00	0.2142	8.562	162.7	0.514841212	0.618536546	0.009188393	0.094794953	0.029216725
2019-09-21T09:05:00	0.2131	8.621	162.9	0.511314018	0.613620739	0.009073687	0.093611558	0.028851991
2019-09-21T09:10:00	0.2145	8.680	174.3	0.515996767	0.620149217	0.009226128	0.095184266	0.029336715
2019-09-21T09:15:00	0.2159	8.738	174.6	0.520673134	0.626686505	0.009379631	0.096767926	0.029824815
2019-09-21T09:20:00	0.2151	8.792	163.7	0.517835280	0.622717238	0.009286327	0.095805320	0.029528130
2019-09-21T09:25:00	0.2153	8.847	163.9	0.518754168	0.624001759	0.009316487	0.096116480	0.029624033
2019-09-21T09:30:00	0.2149	8.898	164.1	0.517281779	0.621943823	0.009268183	0.095618133	0.029470437
2019-09-21T09:35:00	0.2153	8.951	164.4	0.518542400	0.623705667	0.009309532	0.096044725	0.029601917
2019-09-21T09:40:00	0.2146	9.001	164.6	0.516386421	0.620693253	0.009238870	0.095315723	0.029377231
2019-09-21T09:45:00	0.2141	9.055	164.8	0.514571067	0.618159693	0.009179582	0.094704054	0.029188709
2019-09-21T09:50:00	0.2150	9.103	165.0	0.517541455	0.622306642	0.009276693	0.095705929	0.029497497
2019-09-21T09:55:00	0.2155	9.148	165.2	0.519485001	0.625023886	0.009340510	0.096364322	0.029700420
2019-09-21T10:00:00	0.2152	9.188	165.4	0.518354530	0.623443018	0.009303364	0.095981090	0.029582304
2019-09-21T10:05:00	0.2163	9.228	165.6	0.522245709	0.628888858	0.009431537	0.097303426	0.029989861
2019-09-21T10:10:00	0.2154	9.270	165.8	0.518967895	0.624300628	0.009323509	0.096188927	0.029646361
2019-09-21T10:15:00	0.2154	9.312	166.0	0.519103783	0.624490670	0.009327975	0.096235003	0.029660562
2019-09-21T10:20:00	0.2134	9.354	166.2	0.512060663	0.614660490	0.009097908	0.093861441	0.028929008
2019-09-21T10:25:00	0.2139	9.391	166.3	0.513907408	0.617234135	0.009157955	0.094480932	0.029119941
2019-09-21T10:30:00	0.2138	9.426	166.5	0.513701462	0.616946991	0.009151249	0.094411746	0.029098617
2019-09-21T10:35:00	0.2147	9.459	166.7	0.516572773	0.620953483	0.009244967	0.095378624	0.029396618
2019-09-21T10:40:00	0.2135	9.496	166.8	0.512605280	0.615419189	0.009115596	0.094043921	0.028985250
2019-09-21T10:45:00	0.2140	9.536	167.0	0.514109738	0.617516273	0.009164546	0.094548927	0.029140898
2019-09-21T10:50:00	0.2152	9.579	167.2	0.518347334	0.623432958	0.009303128	0.095978653	0.029581553
2019-09-21T10:55:00	0.2123	9.621	167.4	0.508563233	0.609793982	0.008984731	0.092693814	0.028569134
2019-09-21T11:00:00	0.2127	9.668	167.6	0.509727035	0.611412261	0.009022313	0.093081542	0.028688635
2019-09-21T11:05:00	0.2130	9.714	167.8	0.510890442	0.613031083	0.009059961	0.093469946	0.028808345
2019-09-21T11:10:00	0.2133	9.759	168.0	0.511711220	0.614173813	0.009086568	0.093744450	0.028892950
2019-09-21T11:15:00	0.2106	9.804	168.2	0.502594505	0.601511565	0.008793217	0.090717997	0.027960168
2019-09-21T11:20:00	0.2095	9.848	168.4	0.498954304	0.596474377	0.008677427	0.089523411	0.027591985
2019-09-21T11:25:00	0.2087	9.892	168.6	0.495997938	0.592391296	0.008583951	0.088559039	0.027294756
2019-09-21T11:30:00	0.2104	9.933	168.8	0.501974585	0.600652987	0.008773444	0.090514003	0.027897295
2019-09-21T11:35:00	0.2108	9.973	169.0	0.503140632	0.602268197	0.008810654	0.090897897	0.028015615
2019-09-21T11:40:00	0.2097	10.014	169.2	0.499501013	0.597230215	0.008694768	0.089702318	0.027647126
2019-09-21T11:45:00	0.2095	10.054	169.3	0.498950685	0.596469375	0.008677312	0.089522227	0.027591620
2019-09-21T11:50:00	0.2093	10.091	169.5	0.498056665	0.595233892	0.008648991	0.089230050	0.027501568
2019-09-21T11:55:00	0.2106	10.126	169.7	0.502657354	0.601598627	0.008795223	0.090738691	0.027966546
2019-09-21T12:00:00	0.2086	10.159	181.5	0.495580248	0.591814984	0.008570785	0.088423207	0.027252891
2019-09-21T12:05:00	0.2107	10.189	181.7	0.502930423	0.601976935	0.008803940	0.090828631	0.027994266
2019-09-21T12:10:00	0.2073	10.217	181.8	0.491380990	0.586028792	0.008438978	0.087063375	0.026833778
2019-09-21T12:15:00	0.2084	10.244	170.2	0.494959051	0.590958140	0.008551223	0.088221386	0.027190688
2019-09-21T12:20:00	0.2092	10.268	170.4	0.497846142	0.594943056	0.008642329	0.089161317	0.027480384
2019-09-21T12:25:00	0.2081	10.288	170.5	0.493856838	0.589438571	0.008516567	0.087863853	0.027080493
2019-09-21T12:30:00	0.2067	10.307	170.6	0.489173884	0.582993269	0.008370107	0.086352854	0.026614788
2019-09-21T12:35:00	0.2079	10.325	170.6	0.493442509	0.588867609	0.008503558	0.087729641	0.027039127
2019-09-21T12:40:00	0.2087	10.343	170.7	0.495987073	0.592376303	0.008583608	0.088555504	0.027293666
2019-09-21T12:45:00	0.2092	10.359	170.8	0.497842523	0.594938056	0.008642215	0.089160136	0.027480020
2019-09-21T12:50:00	0.2067	10.374	170.9	0.489033171	0.582799872	0.008365726	0.086307653	0.026600857
2019-09-21T12:55:00	0.2073	10.387	171.0	0.491236741	0.585830281	0.008434468	0.087016850	0.026819438
2019-09-21T13:00:00	0.2069	10.401	171.0	0.489996275	0.584123880	0.008395736	0.086617264	0.026696282
2019-09-21T13:05:00	0.2075	10.414	171.1	0.491854992	0.586681214	0.008453805	0.087216345	0.026880925
2019-09-21T13:10:00	0.2077	10.429	171.2	0.492680359	0.587817692	0.008479654	0.087483026	0.026963118
2019-09-21T13:15:00	0.2072	10.443	171.2	0.490751772	0.585163004	0.008419315	0.086860520	0.026771256
2019-09-21T13:20:00	0.2063	10.458	171.3	0.487788269	0.581089569	0.008327014	0.085908267	0.026477762
2019-09-21T13:25:00	0.2057	10.474	171.4	0.485856903	0.578438622	0.008267131	0.085290471	0.026287352
2019-09-21T13:30:00	0.2064	10.490	171.4	0.488062533	0.581466259	0.008335535	0.085996177	0.026504857
2019-09-21T13:35:00	0.2057	10.506	171.5	0.485786478	0.578342015	0.008264952	0.085267986	0.026280421
2019-09-21T13:40:00	0.2052	10.523	171.6	0.483853971	0.575692598	0.008205256	0.084652118	0.026090605
2019-09-21T13:45:00	0.2049	10.540	171.7	0.482955972	0.574462479	0.008177590	0.084366689	0.026002633
2019-09-21T13:50:00	0.2051	10.559	171.8	0.483783505	0.575596046	0.008203084	0.084629703	0.026083696
2019-09-21T13:55:00	0.2061	10.578	171.9	0.487024851	0.580041363	0.008303318	0.085663804	0.026402416
2019-09-21T14:00:00	0.2052	10.597	172.0	0.484058093	0.575972302	0.008211552	0.084717065	0.026110622
2019-09-21T14:05:00	0.2034	10.615	172.1	0.477633572	0.567184832	0.008014562	0.082684762	0.025484247
2019-09-21T14:10:00	0.2055	10.635	172.2	0.485022609	0.577294413	0.008241330	0.085024285	0.026205310
2019-09-21T14:15:00	0.2052	10.654	172.3	0.484124919	0.576063880	0.008213613	0.084738333	0.026117177
2019-09-21T14:20:00	0.2024	10.672	172.4	0.474241896	0.562558962	0.007911521	0.081621700	0.025156601
2019-09-21T14:25:00	0.2019	10.690	172.5	0.472649009	0.560389600	0.007863355	0.081124783	0.025003446
2019-09-21T14:30:00	0.2029	10.706	172.6	0.475901022	0.564820681	0.007961844	0.082140875	0.025316616
2019-09-21T14:35:00	0.2028	10.722	172.7	0.475692765	0.564536665	0.007955519	0.082075618	0.025296503
2019-09-21T14:40:00	0.2024	10.738	172.7	0.474446598	0.562837893	0.007917721	0.081685668	0.025176316
2019-09-21T14:45:00	0.2024	10.752	172.8	0.474238251	0.562553995	0.007911410	0.081620562	0.025156250
2019-09-21T14:50:00	0.2019	10.764	172.9	0.472645362	0.560384636	0.007863245	0.081123647	0.025003096
2019-09-21T14:55:00	0.2033	10.774	173.0	0.477280578	0.566702960	0.008003807	0.082573806	0.025450049
2019-09-21T15:00:00	0.2032	10.784	173.0	0.477072405	0.566418830	0.007997468	0.082508405	0.025429892
2019-09-21T15:05:00	0.2029	10.793	173.1	0.476172607	0.565191114	0.007970096	0.082226015	0.025342856
2019-09-21T15:10:00	0.2016	10.799	173.1	0.471465147	0.558778599	0.007827651	0.080756435	0.024889918
2019-09-21T15:15:00	0.2004	10.804	173.2	0.467444663	0.553315830	0.007706997	0.079511670	0.024506269
2019-09-21T15:20:00	0.2010	10.808	173.2	0.469315793	0.555856602	0.007763035	0.080089797	0.024684453
2019-09-21T15:25:00	0.2023	10.811	173.3	0.473955575	0.562168871	0.007902852	0.081532269	0.025129037
2019-09-21T15:30:00	0.1995	10.813	173.3	0.464389801	0.549173662	0.007615939	0.078572239	0.024216727
2019-09-21T15:35:00	0.2001	10.813	173.3	0.466262627	0.551712199	0.007671700	0.079147519	0.024394034
2019-09-21T15:40:00	0.2013	10.812	173.3	0.470560205	0.557547904	0.007800414	0.080475428	0.024803309
2019-09-21T15:45:00	0.2020	10.810	173.3	0.472775818	0.560562228	0.007867184	0.081164287	0.025015622
2019-09-21T15:50:00	0.2032	10.807	173.3	0.477065121	0.566408889	0.007997246	0.082506117	0.025429187
2019-09-21T15:55:00	0.2030	10.802	173.3	0.476511146	0.565652953	0.007980389	0.082332205	0.025375585
2019-09-21T16:00:00	0.2023	10.797	173.3	0.473881257	0.562067629	0.007900603	0.081509064	0.025121885
2019-09-21T16:05:00	0.2030	10.790	173.3	0.476391566	0.565489811	0.007976753	0.082294689	0.025364022
2019-09-21T16:10:00	0.2027	10.783	173.3	0.475442612	0.564195558	0.007947924	0.081997267	0.025272354
2019-09-21T16:15:00	0.2020	10.776	173.3	0.473109052	0.561015928	0.007877251	0.081268144	0.025047631
2019-09-21T16:20:00	0.2013	10.767	173.2	0.470427466	0.557367438	0.007796422	0.080434250	0.024790617
2019-09-21T16:25:00	0.2016	10.758	173.2	0.471555365	0.558901329	0.007830369	0.080784476	0.024898560
2019-09-21T16:30:00	0.2036	10.748	173.2	0.478563162	0.568454290	0.008042919	0.082977314	0.025574414
2019-09-21T16:35:00	0.2017	10.737	173.1	0.471732892	0.559142849	0.007835719	0.080839669	0.024915571
2019-09-21T16:40:00	0.2031	10.726	173.1	0.476666206	0.565864518	0.007985106	0.082380865	0.025390583
2019-09-21T16:45:00	0.2041	10.715	173.1	0.480210899	0.570706148	0.008093304	0.083497128	0.025734626
2019-09-21T16:50:00	0.2032	10.703	173.0	0.477189220	0.566578263	0.008001025	0.082545101	0.025441202
2019-09-21T16:55:00	0.2029	10.691	173.0	0.475894636	0.564811972	0.007961650	0.082138874	0.025315999
2019-09-21T17:00:00	0.2028	10.678	172.9	0.475637408	0.564461176	0.007953838	0.082058276	0.025291158
2019-09-21T17:05:00	0.2033	10.664	172.9	0.477455063	0.566941137	0.008009123	0.082628642	0.025466950
2019-09-21T17:10:00	0.2051	10.650	172.8	0.483760602	0.575564666	0.008202378	0.084622419	0.026081451
2019-09-21T17:15:00	0.2026	10.634	172.7	0.474865604	0.563408943	0.007930420	0.081816681	0.025216696
2019-09-21T17:20:00	0.2033	10.618	172.7	0.477375183	0.566832095	0.008006689	0.082603536	0.025459212
2019-09-21T17:25:00	0.2038	10.601	172.6	0.479191905	0.569313298	0.008062127	0.083175475	0.025635489
2019-09-21T17:30:00	0.2037	10.584	172.6	0.478934927	0.568962168	0.008054273	0.083094455	0.025610518
2019-09-21T17:35:00	0.2040	10.566	172.5	0.479714529	0.570027563	0.008078110	0.083340369	0.025686311
2019-09-21T17:40:00	0.2030	10.548	172.4	0.476346600	0.565428467	0.007975386	0.082280583	0.025359675
2019-09-21T17:45:00	0.2045	10.528	172.3	0.481618500	0.572631545	0.008136470	0.083942459	0.025871881
2019-09-21T17:50:00	0.2034	10.510	172.2	0.477906818	0.567557908	0.008022892	0.082770703	0.025510734
2019-09-21T17:55:00	0.2039	10.492	172.2	0.479377758	0.569567276	0.008067809	0.083234095	0.025653556
2019-09-21T18:00:00	0.2052	10.473	172.1	0.483954920	0.575830922	0.008208369	0.084684235	0.026100504
2019-09-21T18:05:00	0.2034	10.453	172.0	0.477826949	0.567448853	0.008020457	0.082745578	0.025502991
2019-09-21T18:10:00	0.2031	10.433	172.0	0.476878397	0.566154065	0.007991563	0.082447478	0.025411113
2019-09-21T18:15:00	0.2054	10.415	171.9	0.484565236	0.576667377	0.008227203	0.084878533	0.026160388
2019-09-21T18:20:00	0.2040	10.396	171.8	0.479820531	0.570172462	0.008081353	0.083373833	0.025696625
2019-09-21T18:25:00	0.2032	10.377	171.7	0.477144265	0.566516905	0.007999656	0.082530978	0.025436849
2019-09-21T18:30:00	0.2044	10.358	171.6	0.481379150	0.572304036	0.008129122	0.083866652	0.025848517
2019-09-21T18:35:00	0.2039	10.337	171.6	0.479395212	0.569591129	0.008068342	0.083239601	0.025655253
2019-09-21T18:40:00	0.2066	10.318	171.5	0.488799572	0.582478849	0.008358455	0.086232640	0.026577737
2019-09-21T18:45:00	0.2057	10.299	171.4	0.485785540	0.578340729	0.008264923	0.085267686	0.026280329
2019-09-21T18:50:00	0.2057	10.281	171.3	0.485873932	0.578461984	0.008267659	0.085295909	0.026289027
2019-09-21T18:55:00	0.2048	10.261	171.2	0.482512123	0.573854712	0.008163933	0.084225788	0.025959206
2019-09-21T19:00:00	0.2033	10.244	171.2	0.477418843	0.566891694	0.008008019	0.082617258	0.025463441
2019-09-21T19:05:00	0.2032	10.226	171.1	0.477161730	0.566540743	0.008000188	0.082536465	0.025438540
2019-09-21T19:10:00	0.2025	10.209	171.0	0.474829356	0.563359537	0.007929321	0.081805343	0.025213201
2019-09-21T19:15:00	0.2038	10.192	171.0	0.479067136	0.569142810	0.008058313	0.083136133	0.025623364
2019-09-21T19:20:00	0.2034	10.176	170.9	0.477773271	0.567375563	0.008018821	0.082728695	0.025497787
2019-09-21T19:25:00	0.2039	10.157	170.8	0.479589780	0.569857050	0.008074293	0.083300994	0.025674175
2019-09-21T19:30:00	0.2062	10.142	170.7	0.487615174	0.580851861	0.008321638	0.085852808	0.026460669
2019-09-21T19:35:00	0.2045	10.130	182.4	0.481493821	0.572460938	0.008132642	0.083902966	0.025859709
2019-09-21T19:40:00	0.2017	10.119	182.4	0.471900368	0.559370719	0.007840768	0.080891754	0.024931624
2019-09-21T19:45:00	0.2051	10.104	182.3	0.483741881	0.575539016	0.008201801	0.084616464	0.026079616
2019-09-21T19:50:00	0.2051	10.090	182.2	0.483485248	0.575187426	0.008193891	0.084534862	0.026054465
2019-09-21T19:55:00	0.2047	10.077	182.2	0.482193069	0.573417926	0.008154122	0.084124576	0.025928011
2019-09-21T20:00:00	0.2056	10.060	182.1	0.485387103	0.577794238	0.008252598	0.085140528	0.026241138
2019-09-21T20:05:00	0.2054	10.046	182.0	0.484785647	0.576969529	0.008234009	0.084948756	0.026182032
2019-09-21T20:10:00	0.2048	10.033	182.0	0.482458519	0.573781323	0.008162284	0.084208779	0.025953964
2019-09-21T20:15:00	0.2036	10.019	181.9	0.478402161	0.568234376	0.008038004	0.082926608	0.025558786
2019-09-21T20:20:00	0.2041	10.005	170.2	0.480218332	0.570716312	0.008093532	0.083499477	0.025735350
2019-09-21T20:25:00	0.2046	9.992	170.1	0.482033531	0.573199548	0.008149219	0.084073988	0.025912420
2019-09-21T20:30:00	0.2054	9.977	170.1	0.484537806	0.576629777	0.008226356	0.084869796	0.026157695
2019-09-21T20:35:00	0.2059	9.964	170.0	0.486350694	0.579116105	0.008282421	0.085448212	0.026335969
2019-09-21T20:40:00	0.2058	9.949	169.9	0.486094258	0.578764250	0.008274479	0.085366276	0.026310715
2019-09-21T20:45:00	0.2049	9.934	169.9	0.483077822	0.574629357	0.008181341	0.084405391	0.026014561
2019-09-21T20:50:00	0.2048	9.921	169.8	0.482475957	0.573805197	0.008162820	0.084214312	0.025955669
2019-09-21T20:55:00	0.2041	9.909	169.8	0.480147243	0.570619113	0.008091355	0.083477017	0.025728427
2019-09-21T21:00:00	0.2039	9.895	169.7	0.479544856	0.569795649	0.008072919	0.083286817	0.025669806
2019-09-21T21:05:00	0.2046	9.882	169.7	0.482050971	0.573223419	0.008149755	0.084079518	0.025914124
2019-09-21T21:10:00	0.2030	9.869	169.6	0.476265402	0.565317697	0.007972917	0.082255115	0.025351825
2019-09-21T21:15:00	0.2018	9.852	169.5	0.472201609	0.559780647	0.007849852	0.080985481	0.024960512
2019-09-21T21:20:00	0.2032	9.837	169.5	0.477134240	0.566503223	0.007999351	0.082527829	0.025435878
2019-09-21T21:25:00	0.2035	9.824	169.4	0.478259904	0.568040081	0.008033663	0.082881819	0.025544982
2019-09-21T21:30:00	0.2035	9.808	169.3	0.478002855	0.567689046	0.008025821	0.082800918	0.025520047
2019-09-21T21:35:00	0.2040	9.791	169.2	0.479819240	0.570170697	0.008081314	0.083373425	0.025696499
2019-09-21T21:40:00	0.2041	9.776	169.2	0.480253231	0.570764030	0.008094601	0.083510504	0.025738748
2019-09-21T21:45:00	0.2022	9.763	169.1	0.473772482	0.561919454	0.007897311	0.081475106	0.025111419
2019-09-21T21:50:00	0.2026	9.750	169.1	0.474899265	0.563454824	0.007931441	0.081827210	0.025219941
2019-09-21T21:55:00	0.2023	9.735	169.0	0.473949891	0.562161128	0.007902680	0.081530494	0.025128490
2019-09-21T22:00:00	0.2007	9.721	169.0	0.468497081	0.554744546	0.007738491	0.079836584	0.024606411
2019-09-21T22:05:00	0.1989	9.706	168.9	0.462291823	0.546333242	0.007553712	0.077930252	0.024018860
2019-09-21T22:10:00	0.1996	9.693	168.8	0.464761636	0.549677446	0.007626994	0.078686292	0.024251879
2019-09-21T22:15:00	0.1993	9.679	168.8	0.463413128	0.547850925	0.007586939	0.078273052	0.024124515
2019-09-21T22:20:00	0.2003	9.667	168.7	0.466922651	0.552607496	0.007691400	0.079350752	0.024456672
2019-09-21T22:25:00	0.1984	9.657	168.7	0.460367042	0.543730376	0.007496843	0.077343542	0.023838031
2019-09-21T22:30:00	0.2005	9.644	168.6	0.467695723	0.553656578	0.007714505	0.079589121	0.024530140
2019-09-21T22:35:00	0.2011	9.632	168.6	0.469815105	0.556535077	0.007778022	0.080244419	0.024732109
2019-09-21T22:40:00	0.2016	9.622	168.5	0.471586863	0.558944178	0.007831318	0.080794268	0.024901578
2019-09-21T22:45:00	0.2013	9.611	168.5	0.470587514	0.557585033	0.007801235	0.080483901	0.024805920
2019-09-21T22:50:00	0.1999	9.600	168.4	0.465774028	0.551049655	0.007657134	0.078997235	0.024347715
2019-09-21T22:55:00	0.2006	9.589	168.4	0.468241290	0.554397215	0.007730831	0.079757554	0.024582053
2019-09-21T23:00:00	0.2003	9.578	168.4	0.466894174	0.552568861	0.007690549	0.079341978	0.024453968
2019-09-21T23:05:00	0.2005	9.563	168.3	0.467627471	0.553563940	0.007712463	0.079568062	0.024523650
2019-09-21T23:10:00	0.2002	9.553	168.2	0.466626949	0.552206345	0.007682571	0.079259668	0.024428599
2019-09-21T23:15:00	0.2012	9.541	168.2	0.470133131	0.556967321	0.007787575	0.080342979	0.024762486
2019-09-21T23:20:00	0.2013	9.531	168.2	0.470519321	0.557492318	0.007799184	0.080462744	0.024799399
2019-09-21T23:25:00	0.2021	9.522	168.1	0.473329269	0.561315803	0.007883907	0.081336814	0.025068796
2019-09-21T23:30:00	0.2008	9.515	168.1	0.468866303	0.555245995	0.007749555	0.079950729	0.024641591
2019-09-21T23:35:00	0.2029	9.507	168.0	0.476176563	0.565196511	0.007970217	0.082227255	0.025343239
2019-09-21T23:40:00	0.2015	9.499	168.0	0.471371043	0.558650590	0.007824817	0.080727191	0.024880904
2019-09-21T23:45:00	0.2013	9.491	168.0	0.470371630	0.557291530	0.007794744	0.080416932	0.024785279
2019-09-21T23:50:00	0.2016	9.486	168.0	0.471450516	0.558758696	0.007827210	0.080751888	0.024888516
2019-09-21T23:55:00	0.2021	9.482	168.0	0.473221416	0.561168933	0.007880647	0.081303179	0.025058429
2019-09-22T00:00:00	0.2013	9.481	167.9	0.470490874	0.557453642	0.007798329	0.080453919	0.024796679
2019-09-22T00:05:00	0.2018	9.479	167.9	0.472262278	0.559863213	0.007851683	0.081004364	0.024966332
2019-09-22T00:10:00	0.2022	9.479	167.9	0.473686674	0.561802573	0.007894715	0.081448323	0.025103164
2019-09-22T00:15:00	0.2032	9.479	167.9	0.477185539	0.566573239	0.008000913	0.082543945	0.025440845
2019-09-22T00:20:00	0.2033	9.475	167.9	0.477570924	0.567099304	0.008012653	0.082665065	0.025478176
2019-09-22T00:25:00	0.2005	9.472	167.9	0.467917235	0.553957265	0.007721131	0.079657487	0.024551211
2019-09-22T00:30:00	0.2013	9.468	167.9	0.470382931	0.557306893	0.007795083	0.080420437	0.024786360
2019-09-22T00:35:00	0.1992	9.465	167.8	0.463139767	0.547480840	0.007578832	0.078189413	0.024098736
2019-09-22T00:40:00	0.2000	9.462	167.8	0.465955866	0.551296207	0.007662553	0.079053149	0.024364948
2019-09-22T00:45:00	0.1986	9.460	167.8	0.461135757	0.544769551	0.007519529	0.077577599	0.023910170
2019-09-22T00:50:00	0.1985	9.458	167.8	0.460828213	0.544353747	0.007510449	0.077483917	0.023881296
2019-09-22T00:55:00	0.1998	9.457	167.8	0.465381439	0.550517438	0.007645439	0.078876585	0.024310529
2019-09-22T01:00:00	0.1976	9.456	167.8	0.457779786	0.540236267	0.007420733	0.076558331	0.023596021
2019-09-22T01:05:00	0.1983	9.456	167.8	0.460252911	0.543576129	0.007493477	0.077308821	0.023827329
2019-09-22T01:10:00	0.1981	9.454	167.8	0.459250195	0.542221416	0.007463941	0.077004105	0.023733413
2019-09-22T01:15:00	0.1958	9.452	167.8	0.451286262	0.531490004	0.007231391	0.074604923	0.022993962
2019-09-22T01:20:00	0.1959	9.450	167.8	0.451674621	0.532012158	0.007242647	0.074721055	0.023029755
2019-09-22T01:25:00	0.1957	9.447	167.8	0.451017794	0.531129115	0.007223614	0.074524695	0.022969235
2019-09-22T01:30:00	0.1973	9.444	167.8	0.456628038	0.538682525	0.007386974	0.076210050	0.023488678
2019-09-22T01:35:00	0.1953	9.442	167.8	0.449703752	0.529363529	0.007185610	0.074132618	0.022848393
2019-09-22T01:40:00	0.1956	9.442	167.8	0.450789284	0.530821985	0.007216998	0.074456440	0.022948198
2019-09-22T01:45:00	0.1948	9.440	167.7	0.448040469	0.527130642	0.007137647	0.073637788	0.022695882
2019-09-22T01:50:00	0.1955	9.438	167.8	0.450520776	0.530461147	0.007209228	0.074376278	0.022923491
2019-09-22T01:55:00	0.1971	9.437	167.7	0.455783928	0.537544462	0.007362281	0.075955293	0.023410159
2019-09-22T02:00:00	0.1955	9.435	167.7	0.450252247	0.530100337	0.007201462	0.074296151	0.022898795
2019-09-22T02:05:00	0.1968	9.435	167.7	0.454819811	0.536245287	0.007334126	0.075664828	0.023320635
2019-09-22T02:10:00	0.1971	9.433	167.7	0.455903689	0.537705895	0.007365782	0.075991412	0.023421291
2019-09-22T02:15:00	0.1974	9.433	167.7	0.456987218	0.539166958	0.007397494	0.076318580	0.023522128
2019-09-22T02:20:00	0.1965	9.435	167.7	0.453895360	0.535000254	0.007307180	0.075386827	0.023234952
2019-09-22T02:25:00	0.1984	9.437	167.7	0.460543309	0.543968618	0.007502042	0.077397181	0.023854563
2019-09-22T02:30:00	0.1979	9.441	167.7	0.458845505	0.541674887	0.007452037	0.076881291	0.023695561
2019-09-22T02:35:00	0.1982	9.444	167.8	0.459928086	0.543137189	0.007483903	0.077210045	0.023796886
2019-09-22T02:40:00	0.1979	9.444	167.8	0.458577640	0.541313210	0.007444163	0.076800053	0.023670522
2019-09-22T02:45:00	0.1978	9.445	167.8	0.458269862	0.540897713	0.007435120	0.076706763	0.023641769
2019-09-22T02:50:00	0.1975	9.448	167.8	0.457266555	0.539543774	0.007405680	0.076403037	0.023548158
2019-09-22T02:55:00	0.1981	9.451	167.8	0.459392508	0.542413638	0.007468130	0.077047317	0.023746731
2019-09-22T03:00:00	0.1981	9.454	167.8	0.459432386	0.542467505	0.007469303	0.077059427	0.023750464
2019-09-22T03:05:00	0.1983	9.458	167.8	0.460167309	0.543460446	0.007490953	0.077282785	0.023819305
2019-09-22T03:10:00	0.1992	9.461	167.8	0.463333072	0.547742537	0.007584564	0.078248553	0.024116964
2019-09-22T03:15:00	0.1987	9.465	167.8	0.461636675	0.545446960	0.007534331	0.077730305	0.023957235
2019-09-22T03:20:00	0.2010	9.468	167.9	0.469309160	0.555847590	0.007762836	0.080087744	0.024683820
2019-09-22T03:25:00	0.1998	9.470	167.9	0.465187858	0.550255055	0.007639676	0.078817127	0.024292204
2019-09-22T03:30:00	0.2005	9.472	167.9	0.467655549	0.553602050	0.007713303	0.079576725	0.024526320
2019-09-22T03:35:00	0.2013	9.474	167.9	0.470467881	0.557422382	0.007797637	0.080446787	0.024794481
2019-09-22T03:40:00	0.2010	9.479	167.9	0.469468201	0.556063675	0.007767608	0.080136978	0.024698995
2019-09-22T03:45:00	0.2004	9.482	167.9	0.467428168	0.553293445	0.007706504	0.079506583	0.024504701
2019-09-22T03:50:00	0.1993	9.485	167.9	0.463651710	0.548173974	0.007594018	0.078346085	0.024147024
2019-09-22T03:55:00	0.2009	9.487	167.9	0.469240941	0.555754909	0.007760789	0.080066630	0.024677313
2019-09-22T04:00:00	0.1998	9.489	167.9	0.465466515	0.550632762	0.007647973	0.078902723	0.024318585
2019-09-22T04:05:00	0.2014	9.489	168.0	0.470706357	0.557746623	0.007804809	0.080520779	0.024817286
2019-09-22T04:10:00	0.2022	9.490	168.0	0.473516150	0.561570314	0.007889558	0.081395111	0.025086764
2019-09-22T04:15:00	0.2012	9.491	168.0	0.470092987	0.556912755	0.007786369	0.080330535	0.024758651
2019-09-22T04:20:00	0.2017	9.490	167.9	0.471864599	0.559322049	0.007839689	0.080880628	0.024928195
2019-09-22T04:25:00	0.1999	9.491	168.0	0.465665541	0.550902571	0.007653901	0.078963886	0.024337437
2019-09-22T04:30:00	0.2003	9.490	167.9	0.467092723	0.552838249	0.007696480	0.079403162	0.024472826
2019-09-22T04:35:00	0.2023	9.491	167.9	0.474060778	0.562312194	0.007906037	0.081565123	0.025139163
2019-09-22T04:40:00	0.2010	9.492	167.9	0.469598779	0.556241105	0.007771527	0.080177412	0.024711457
2019-09-22T04:45:00	0.2008	9.491	168.0	0.468945442	0.555353489	0.007751927	0.079975205	0.024649135
2019-09-22T04:50:00	0.2005	9.492	167.9	0.467598607	0.553524764	0.007711600	0.079559157	0.024520905
2019-09-22T04:55:00	0.2018	9.493	167.9	0.472142704	0.559700484	0.007848076	0.080967149	0.024954862
2019-09-22T05:00:00	0.2010	9.497	168.0	0.469411289	0.555986349	0.007765900	0.080119358	0.024693564
2019-09-22T05:05:00	0.2004	9.499	168.0	0.467371222	0.553216163	0.007704802	0.079489022	0.024499288
2019-09-22T05:10:00	0.2046	9.502	168.0	0.481942809	0.573075377	0.008146431	0.084045229	0.025903556
2019-09-22T05:15:00	0.2022	9.504	168.0	0.473686282	0.561802039	0.007894704	0.081448201	0.025103126
2019-09-22T05:20:00	0.2022	9.508	168.0	0.473725991	0.561856127	0.007895905	0.081460595	0.025106946
2019-09-22T05:25:00	0.2028	9.508	168.0	0.475841594	0.564739631	0.007960039	0.082122251	0.025310875
2019-09-22T05:30:00	0.2033	9.513	168.0	0.477610196	0.567152919	0.008013850	0.082677413	0.025481982
2019-09-22T05:35:00	0.2045	9.518	168.0	0.481450331	0.572401430	0.008131307	0.083889193	0.025855464
2019-09-22T05:40:00	0.2041	9.522	168.0	0.480108469	0.570566101	0.008090168	0.083464768	0.025724652
2019-09-22T05:45:00	0.2026	9.525	167.8	0.474962588	0.563541140	0.007933361	0.081847020	0.025226047
2019-09-22T05:50:00	0.2038	9.530	168.0	0.479151281	0.569257787	0.008060885	0.083162664	0.025631541
2019-09-22T05:55:00	0.2041	9.536	168.1	0.480227370	0.570728670	0.008093809	0.083502333	0.025736230
2019-09-22T06:00:00	0.2048	9.541	168.1	0.482684110	0.574090197	0.008169223	0.084280372	0.025976029
2019-09-22T06:05:00	0.2056	9.543	168.1	0.485483982	0.577927104	0.008255594	0.085171438	0.026250664
2019-09-22T06:10:00	0.2050	9.549	168.1	0.483453587	0.575144054	0.008192915	0.084524797	0.026051363
2019-09-22T06:15:00	0.2064	9.556	168.2	0.487976462	0.581348038	0.008332860	0.085968584	0.026496352
2019-09-22T06:20:00	0.2060	9.563	168.2	0.486637180	0.579509253	0.008291298	0.085539796	0.026364196
2019-09-22T06:25:00	0.2063	9.572	168.2	0.487710897	0.580983312	0.008324611	0.085883475	0.026470121
2019-09-22T06:30:00	0.2090	9.581	168.3	0.497043633	0.593834718	0.008616957	0.088899552	0.027399705
2019-09-22T06:35:00	0.2074	9.591	168.3	0.491579123	0.586301482	0.008445174	0.087127300	0.026853480
2019-09-22T06:40:00	0.2087	9.603	168.3	0.496091206	0.592520002	0.008586892	0.088589384	0.027304108
2019-09-22T06:45:00	0.2089	9.614	168.4	0.496818214	0.593523488	0.008609836	0.088826093	0.027377065
2019-09-22T06:50:00	0.2088	9.626	168.4	0.496513895	0.593103386	0.008600228	0.088726971	0.027346514
2019-09-22T06:55:00	0.2085	9.638	168.5	0.495521865	0.591734440	0.008568945	0.088404229	0.027247042
2019-09-22T07:00:00	0.2105	9.652	168.5	0.502088642	0.600810931	0.008777080	0.090551518	0.027908857
2019-09-22T07:05:00	0.2102	9.665	168.6	0.501098233	0.599439784	0.008745530	0.090226018	0.027808535
2019-09-22T07:10:00	0.2103	9.679	168.6	0.501480916	0.599969487	0.008757714	0.090351718	0.027847277
2019-09-22T07:15:00	0.2087	9.693	168.7	0.496023524	0.592426603	0.008584758	0.088567363	0.027297321
2019-09-22T07:20:00	0.2108	9.709	168.8	0.503275596	0.602455220	0.008814966	0.090942383	0.028029326
2019-09-22T07:25:00	0.2119	9.725	168.9	0.507086885	0.607742676	0.008937169	0.092203123	0.028417898
2019-09-22T07:30:00	0.2114	9.741	169.0	0.505412231	0.605417963	0.008883370	0.091648096	0.028246833
2019-09-22T07:35:00	0.2138	9.757	169.0	0.513670740	0.616904158	0.009150249	0.094401427	0.029095437
2019-09-22T07:40:00	0.2128	9.774	169.1	0.510287769	0.612192358	0.009040449	0.093268642	0.028746301
2019-09-22T07:45:00	0.2135	9.791	169.1	0.512380770	0.615106398	0.009108302	0.093968675	0.028962058
2019-09-22T07:50:00	0.2145	9.807	169.2	0.515840119	0.619930538	0.009221008	0.095131443	0.029320435
2019-09-22T07:55:00	0.2130	9.824	169.3	0.510747985	0.612832802	0.009055347	0.093422343	0.028793674
2019-09-22T08:00:00	0.2130	9.843	169.4	0.510787264	0.612887472	0.009056619	0.093435467	0.028797718
2019-09-22T08:05:00	0.2120	9.862	169.5	0.507401441	0.608179588	0.008947292	0.092307563	0.028450087
2019-09-22T08:10:00	0.2142	9.880	169.6	0.514971378	0.618718149	0.009192639	0.094838766	0.029230229
2019-09-22T08:15:00	0.2143	9.900	169.7	0.515352513	0.619249974	0.009205080	0.094967114	0.029269787
2019-09-22T08:20:00	0.2145	9.922	169.8	0.516075437	0.620259046	0.009228700	0.095210799	0.029344893
2019-09-22T08:25:00	0.2141	9.944	169.9	0.514405174	0.617928300	0.009174173	0.094648256	0.029171512
2019-09-22T08:30:00	0.2154	9.966	170.0	0.518887241	0.624187840	0.009320859	0.096161584	0.029637934
2019-09-22T08:35:00	0.2160	9.987	170.1	0.520975003	0.627109110	0.009389584	0.096870605	0.029856461
2019-09-22T08:40:00	0.2159	10.013	170.2	0.520672824	0.626686073	0.009379621	0.096767821	0.029824782
2019-09-22T08:45:00	0.2159	10.036	170.3	0.520711990	0.626740899	0.009380912	0.096781140	0.029828887
2019-09-22T08:50:00	0.2146	10.061	170.4	0.516310739	0.620587576	0.009236395	0.095290183	0.029369360
2019-09-22T08:55:00	0.2163	10.087	170.5	0.522155432	0.628762373	0.009428553	0.097272645	0.029980374
2019-09-22T09:00:00	0.2162	10.117	170.6	0.521853358	0.628339191	0.009418573	0.097169682	0.029948640
2019-09-22T09:05:00	0.2152	10.156	170.8	0.518478450	0.623616259	0.009307432	0.096023061	0.029595240
2019-09-22T09:10:00	0.2146	10.199	171.0	0.516125805	0.620329366	0.009230347	0.095227789	0.029350129
2019-09-22T09:15:00	0.2153	10.242	171.2	0.518556831	0.623725842	0.009310006	0.096049614	0.029603424
2019-09-22T09:20:00	0.2164	10.289	171.4	0.522351172	0.629036626	0.009435023	0.097339392	0.030000946
2019-09-22T09:25:00	0.2170	10.335	171.6	0.524436831	0.631960814	0.009504098	0.098052029	0.030220588
2019-09-22T09:30:00	0.2160	10.377	171.8	0.521064460	0.627234361	0.009392534	0.096901044	0.029865843
2019-09-22T09:35:00	0.2161	10.419	172.0	0.521444919	0.627767121	0.009405087	0.097030553	0.029905759
2019-09-22T09:40:00	0.2176	10.460	172.2	0.526599426	0.634996597	0.009575989	0.098793711	0.030449181
2019-09-22T09:45:00	0.2163	10.505	172.4	0.522205711	0.628832816	0.009430215	0.097289787	0.029985657
2019-09-22T09:50:00	0.2157	10.546	172.6	0.520197041	0.626020145	0.009363945	0.096606098	0.029774937
2019-09-22T09:55:00	0.2151	10.586	172.8	0.517845573	0.622731623	0.009286664	0.095808802	0.029529203
2019-09-22T10:00:00	0.2163	10.622	173.0	0.521981944	0.628519320	0.009422821	0.097213504	0.029962146
2019-09-22T10:05:00	0.2145	10.656	173.1	0.515779835	0.619846388	0.009219038	0.095111119	0.029314171
2019-09-22T10:10:00	0.2139	10.691	173.2	0.514015644	0.617385060	0.009161480	0.094517303	0.029131151
2019-09-22T10:15:00	0.2132	10.732	173.5	0.511566083	0.613971707	0.009081861	0.093695881	0.028877980
2019-09-22T10:20:00	0.2132	10.766	173.6	0.511511500	0.613895703	0.009080090	0.093677618	0.028872352
2019-09-22T10:25:00	0.2115	10.793	173.8	0.505633277	0.605724684	0.008890462	0.091721261	0.028269383
2019-09-22T10:30:00	0.2121	10.812	173.9	0.507635166	0.608504278	0.008954818	0.092385202	0.028474017
2019-09-22T10:35:00	0.2112	10.831	174.0	0.504495156	0.604145860	0.008853978	0.091344860	0.028153373
2019-09-22T10:40:00	0.2097	10.849	174.1	0.499635382	0.597416020	0.008699033	0.089746317	0.027660686
2019-09-22T10:45:00	0.2104	10.868	174.2	0.501984031	0.600666068	0.008773745	0.090517110	0.027898252
2019-09-22T10:50:00	0.2091	10.893	174.3	0.497464374	0.594415736	0.008630254	0.089036743	0.027441989
2019-09-22T10:55:00	0.2098	10.920	174.4	0.499814519	0.597663752	0.008704720	0.089804991	0.027678770
2019-09-22T11:00:00	0.2078	10.947	174.6	0.492883834	0.588097948	0.008486032	0.087548833	0.026983400
2019-09-22T11:05:00	0.2070	10.975	174.7	0.490074649	0.584231656	0.008398181	0.086642483	0.026704055
2019-09-22T11:10:00	0.2049	11.000	174.8	0.483124067	0.574692694	0.008182765	0.084420082	0.026019089
2019-09-22T11:15:00	0.2054	11.029	175.0	0.484794282	0.576981367	0.008234276	0.084951508	0.026182880
2019-09-22T11:20:00	0.2044	11.055	175.1	0.481287824	0.572179085	0.008126319	0.083837736	0.025839604
2019-09-22T11:25:00	0.2034	11.081	175.3	0.477777735	0.567381657	0.008018957	0.082730098	0.025498220
2019-09-22T11:30:00	0.2038	11.106	175.4	0.479105061	0.569194630	0.008059472	0.083148090	0.025627049
2019-09-22T11:35:00	0.2033	11.131	175.5	0.477321772	0.566759189	0.008005062	0.082586750	0.025454039
2019-09-22T11:40:00	0.2038	11.156	175.6	0.479340385	0.569516202	0.008066666	0.083222305	0.025649923
2019-09-22T11:45:00	0.2036	11.179	175.7	0.478594164	0.568496637	0.008043866	0.082987079	0.025577424
2019-09-22T11:50:00	0.2046	11.203	175.9	0.481993293	0.573144474	0.008147982	0.084061232	0.025908488
2019-09-22T11:55:00	0.2032	11.225	176.0	0.477101228	0.566458167	0.007998346	0.082517459	0.025432682
2019-09-22T12:00:00	0.2031	11.249	176.1	0.476700319	0.565911064	0.007986144	0.082391573	0.025393883
2019-09-22T12:05:00	0.2024	11.271	176.2	0.474223749	0.562534236	0.007910971	0.081616031	0.025154853
2019-09-22T12:10:00	0.2019	11.290	176.3	0.472437885	0.560102220	0.007856982	0.081059033	0.024983181
2019-09-22T12:15:00	0.2009	11.308	176.4	0.469265160	0.555787811	0.007761516	0.080074125	0.024679623
2019-09-22T12:20:00	0.2019	11.322	176.5	0.472673673	0.560423175	0.007864100	0.081132466	0.025005814
2019-09-22T12:25:00	0.2018	11.334	176.6	0.472272239	0.559876770	0.007851983	0.081007464	0.024967287
2019-09-22T12:30:00	0.2007	11.345	188.8	0.468406153	0.554621071	0.007735767	0.079808486	0.024597750
2019-09-22T12:35:00	0.2007	11.353	176.7	0.468350872	0.554546007	0.007734112	0.079791406	0.024592486
2019-09-22T12:40:00	0.1998	11.362	176.7	0.465174300	0.550236679	0.007639272	0.078812963	0.024290921
2019-09-22T12:45:00	0.2007	11.371	189.0	0.468586946	0.554866584	0.007741183	0.079864358	0.024614971
2019-09-22T12:50:00	0.1981	11.378	176.8	0.459507338	0.542568752	0.007471510	0.077082192	0.023757480
2019-09-22T12:55:00	0.2004	11.383	189.1	0.467436337	0.553304531	0.007706748	0.079509103	0.024505478
2019-09-22T13:00:00	0.1980	11.387	189.1	0.459048899	0.541949552	0.007458019	0.076943004	0.023714581
2019-09-22T13:05:00	0.1976	11.392	189.2	0.457602744	0.539997364	0.007415539	0.076504744	0.023579505
2019-09-22T13:10:00	0.1971	11.396	189.2	0.455808046	0.537576971	0.007362986	0.075962566	0.023412401
2019-09-22T13:15:00	0.1962	11.399	189.2	0.452967854	0.533751784	0.007280193	0.075108411	0.023149142
2019-09-22T13:20:00	0.1959	11.403	189.2	0.451867443	0.532271453	0.007248239	0.074778748	0.023047536
2019-09-22T13:25:00	0.1976	11.406	189.3	0.457728663	0.540167279	0.007419233	0.076542855	0.023591251
2019-09-22T13:30:00	0.1976	11.409	189.2	0.457673207	0.540092446	0.007417606	0.076526069	0.023586078
2019-09-22T13:35:00	0.1967	11.412	189.3	0.454486536	0.535796362	0.007324406	0.075564548	0.023289727
2019-09-22T13:40:00	0.1960	11.415	189.3	0.451993577	0.532441088	0.007251898	0.074816499	0.023059172
2019-09-22T13:45:00	0.1955	11.419	189.4	0.450195877	0.530024604	0.007199832	0.074279337	0.022893613
2019-09-22T13:50:00	0.1956	11.421	189.4	0.450837277	0.530886486	0.007218387	0.074470773	0.022952615
2019-09-22T13:55:00	0.1938	11.426	189.5	0.444503559	0.522389726	0.007036177	0.072590942	0.022373233
2019-09-22T14:00:00	0.1949	11.432	189.5	0.448285991	0.527460108	0.007144717	0.073710730	0.022718363
2019-09-22T14:05:00	0.1932	11.436	189.5	0.442296803	0.519436746	0.006973228	0.071941504	0.022173070
2019-09-22T14:10:00	0.1938	11.443	189.5	0.444336531	0.522166083	0.007031403	0.072541687	0.022358052
2019-09-22T14:15:00	0.1943	11.449	177.4	0.446026080	0.524429325	0.007079769	0.073040676	0.022511846
2019-09-22T14:20:00	0.1928	11.458	189.6	0.441081823	0.517812006	0.006938680	0.071585083	0.022063218
2019-09-22T14:25:00	0.1931	11.467	189.7	0.442073950	0.519138747	0.006966886	0.071876078	0.022152905
2019-09-22T14:30:00	0.1930	11.476	189.7	0.441668843	0.518597138	0.006955365	0.071757220	0.022116272
2019-09-22T14:35:00	0.1936	11.484	189.8	0.443708954	0.521325982	0.007013479	0.072356765	0.022301058
2019-09-22T14:40:00	0.1942	11.492	189.8	0.445747822	0.524056429	0.007071793	0.072958380	0.022486481
2019-09-22T14:45:00	0.1907	11.499	189.9	0.435153475	0.507663601	0.006741600	0.069551843	0.021436553
2019-09-22T14:50:00	0.1931	11.505	189.9	0.442144740	0.519233404	0.006968900	0.071896858	0.022159310
2019-09-22T14:55:00	0.1926	11.512	189.9	0.440507153	0.516823959	0.006919424	0.071386419	0.022001987
2019-09-22T15:00:00	0.1946	11.516	190.0	0.447269777	0.526096758	0.007115476	0.073409056	0.022625384
2019-09-22T15:05:00	0.1935	11.520	190.1	0.443374810	0.520878808	0.007003944	0.072258401	0.022270741
2019-09-22T15:10:00	0.1924	11.524	190.1	0.439833908	0.515667604	0.006896906	0.071154106	0.021930386
2019-09-22T15:15:00	0.1933	11.526	190.2	0.442564863	0.519795248	0.006980860	0.072020241	0.022197338
2019-09-22T15:20:00	0.1951	11.527	190.2	0.449139689	0.528606054	0.007169327	0.073964626	0.022796616
2019-09-22T15:25:00	0.1936	11.528	190.2	0.443850465	0.521515387	0.007017518	0.072398443	0.022313903
2019-09-22T15:30:00	0.1941	11.528	190.2	0.445540259	0.523778312	0.007065845	0.072897023	0.022467570
2019-09-22T15:35:00	0.1954	11.527	190.2	0.450018672	0.529786540	0.007194709	0.074226490	0.022877325
2019-09-22T15:40:00	0.1946	11.526	190.2	0.447173571	0.525967731	0.007112711	0.073380528	0.022616591
2019-09-22T15:45:00	0.1957	11.524	190.3	0.450952992	0.531042013	0.007221738	0.074505336	0.022963268
2019-09-22T15:50:00	0.1949	11.522	190.3	0.448108685	0.527222175	0.007139611	0.073658051	0.022702127
2019-09-22T15:55:00	0.1956	11.517	178.0	0.450841855	0.530892639	0.007218520	0.074472140	0.022953037
2019-09-22T16:00:00	0.1950	11.512	190.3	0.448694879	0.528008899	0.007156499	0.073832283	0.022755827
2019-09-22T16:05:00	0.1955	11.506	190.2	0.450286668	0.530146584	0.007202457	0.074306420	0.022901960
2019-09-22T16:10:00	0.1946	11.500	190.2	0.447346147	0.526199188	0.007117672	0.073431706	0.022632365
2019-09-22T16:15:00	0.1943	11.493	190.2	0.446148206	0.524593006	0.007083272	0.073076809	0.022522982
2019-09-22T16:20:00	0.1952	11.485	190.2	0.449484629	0.529069241	0.007179283	0.074067336	0.022828272
2019-09-22T16:25:00	0.1950	11.476	190.2	0.448636153	0.527930072	0.007154806	0.073814819	0.022750444
2019-09-22T16:30:00	0.1945	11.467	177.9	0.446740986	0.525387657	0.007100284	0.073252319	0.022577076
2019-09-22T16:35:00	0.1949	11.456	190.1	0.448333703	0.527524138	0.007146091	0.073724908	0.022722733
2019-09-22T16:40:00	0.1939	11.446	190.0	0.444693353	0.522643879	0.007041604	0.072646931	0.022390490
2019-09-22T16:45:00	0.1933	11.434	190.0	0.442795952	0.520104350	0.006987442	0.072088152	0.022218269
2019-09-22T16:50:00	0.1941	11.421	189.9	0.445437758	0.523640981	0.007062909	0.072866732	0.022458234
2019-09-22T16:55:00	0.1926	11.408	189.8	0.440549603	0.516896912	0.006920845	0.071401082	0.022006507
2019-09-22T17:00:00	0.1924	11.393	189.8	0.439888530	0.515761374	0.006898731	0.071172937	0.021936190
2019-09-22T17:05:00	0.1939	11.377	177.5	0.444634558	0.522565143	0.007039923	0.072629584	0.022385143
2019-09-22T17:10:00	0.1946	11.360	177.4	0.447274913	0.526103647	0.007115624	0.073410579	0.022625853
2019-09-22T17:15:00	0.1932	11.343	177.3	0.442236303	0.519355842	0.006971506	0.071923740	0.022167595
2019-09-22T17:20:00	0.1928	11.324	177.2	0.441046952	0.517752024	0.006937511	0.071573019	0.022059499
2019-09-22T17:25:00	0.1937	11.303	177.2	0.444028907	0.521754245	0.007022614	0.072451014	0.022330106
2019-09-22T17:30:00	0.1937	11.283	177.1	0.444226637	0.522018952	0.007028263	0.072509289	0.022348067
2019-09-22T17:35:00	0.1925	11.259	177.0	0.440150474	0.516211173	0.006907488	0.071263283	0.021964036
2019-09-22T17:40:00	0.1931	11.238	176.9	0.441828090	0.518810029	0.006959893	0.071803931	0.022130669
2019-09-22T17:45:00	0.1931	11.215	176.8	0.442025950	0.519074568	0.006965520	0.071861990	0.022148563
2019-09-22T17:50:00	0.1947	11.192	176.7	0.447459968	0.526351856	0.007120944	0.073465470	0.022642771
2019-09-22T17:55:00	0.1936	11.168	176.6	0.443818667	0.521472826	0.007016610	0.072389077	0.022311016
2019-09-22T18:00:00	0.1957	11.145	176.5	0.450992418	0.531095006	0.007222879	0.074517113	0.022966898
2019-09-22T18:05:00	0.1943	11.122	176.4	0.446308346	0.524807654	0.007087866	0.073124203	0.022537589
2019-09-22T18:10:00	0.1926	11.099	176.3	0.440412376	0.516661094	0.006916251	0.071353686	0.021991899
2019-09-22T18:15:00	0.1914	11.077	176.2	0.437304073	0.511333734	0.006812692	0.070285290	0.021662609
2019-09-22T18:20:00	0.1929	11.054	176.1	0.441314627	0.518123673	0.006945299	0.071653371	0.022084265
2019-09-22T18:25:00	0.1929	11.032	176.0	0.441163074	0.517921129	0.006940995	0.071608962	0.022070577
2019-09-22T18:30:00	0.1937	11.011	175.9	0.444155337	0.521923497	0.007026225	0.072488273	0.022341590
2019-09-22T18:35:00	0.1926	10.989	175.8	0.440366632	0.516582496	0.006914720	0.071337891	0.021987031
2019-09-22T18:40:00	0.1938	10.966	175.7	0.444550771	0.522452945	0.007037527	0.072604868	0.022377525
2019-09-22T18:45:00	0.1930	10.942	175.6	0.441605206	0.518512070	0.006953556	0.071738557	0.022110520
2019-09-22T18:50:00	0.1924	10.918	175.5	0.440013214	0.515975453	0.006902899	0.071215933	0.021949442
2019-09-22T18:55:00	0.1917	10.895	175.4	0.437992505	0.512511318	0.006835546	0.070521070	0.021735279
2019-09-22T19:00:00	0.1927	10.873	175.3	0.440592482	0.516970608	0.006922281	0.071415895	0.022011073
2019-09-22T19:05:00	0.1928	10.851	175.2	0.441017799	0.517701882	0.006936533	0.071562933	0.022056391
2019-09-22T19:10:00	0.1933	10.830	175.2	0.442594457	0.519834831	0.006981702	0.072028936	0.022200018
2019-09-22T19:15:00	0.1926	10.807	175.0	0.440510722	0.516830091	0.006919543	0.071387651	0.022002367
2019-09-22T19:20:00	0.1932	10.784	174.9	0.442291461	0.519429603	0.006973076	0.071939936	0.022172587
2019-09-22T19:25:00	0.1942	10.763	174.8	0.445980706	0.524368515	0.007078468	0.073027253	0.022507709
2019-09-22T19:30:00	0.1935	10.740	174.7	0.443385648	0.520893311	0.007004253	0.072261590	0.022271724
2019-09-22T19:35:00	0.1941	10.715	174.6	0.445329007	0.523495287	0.007059795	0.072834601	0.022448331
2019-09-22T19:40:00	0.1938	10.694	174.5	0.444479478	0.522357481	0.007035489	0.072583840	0.022371044
2019-09-22T19:45:00	0.1932	10.672	174.4	0.442232623	0.519350921	0.006971401	0.071922659	0.022167262
2019-09-22T19:50:00	0.1938	10.652	174.3	0.444525781	0.522419482	0.007036812	0.072597497	0.022375254
2019-09-22T19:55:00	0.1931	10.632	174.3	0.441929594	0.518945735	0.006962780	0.071833713	0.022139848
2019-09-22T20:00:00	0.1934	10.612	174.1	0.443175368	0.520611944	0.006998256	0.072199720	0.022252655
2019-09-22T20:05:00	0.1914	10.592	174.1	0.437156840	0.511082061	0.006807811	0.070234927	0.021647087
2019-09-22T20:10:00	0.1919	10.573	174.0	0.438399016	0.513207289	0.006849063	0.070660522	0.021778259
2019-09-22T20:15:00	0.1914	10.552	173.9	0.437192933	0.511143751	0.006809007	0.070247271	0.021650891
2019-09-22T20:20:00	0.1926	10.532	173.8	0.440337468	0.516532390	0.006913744	0.071327822	0.021983928
2019-09-22T20:25:00	0.1927	10.515	173.7	0.440762849	0.517263471	0.006927988	0.071474772	0.022029219
2019-09-22T20:30:00	0.1925	10.498	173.7	0.440101860	0.516127682	0.006905863	0.071246511	0.021958867
2019-09-22T20:35:00	0.1924	10.483	173.6	0.439984044	0.515925365	0.006901923	0.071205872	0.021946341
2019-09-22T20:40:00	0.1933	10.465	173.5	0.442662112	0.519925322	0.006983629	0.072048816	0.022206145
2019-09-22T20:45:00	0.1934	10.448	173.4	0.443209189	0.520657196	0.006999221	0.072209670	0.022255721
2019-09-22T20:50:00	0.1918	10.430	173.3	0.438271347	0.512988662	0.006844816	0.070616707	0.021764755
2019-09-22T20:55:00	0.1916	10.413	173.3	0.437609376	0.511855800	0.006822822	0.070389793	0.021694818
2019-09-22T21:00:00	0.1937	10.397	173.2	0.444151659	0.521918573	0.007026120	0.072487189	0.022341256
2019-09-22T21:05:00	0.1942	10.382	173.2	0.445745608	0.524053462	0.007071729	0.072957726	0.022486280
2019-09-22T21:10:00	0.1946	10.366	173.1	0.447338798	0.526189332	0.007117460	0.073429527	0.022631693
2019-09-22T21:15:00	0.1919	10.352	173.0	0.438497480	0.513375934	0.006852340	0.070694325	0.021788678
2019-09-22T21:20:00	0.1959	10.340	173.0	0.451916563	0.532337513	0.007249664	0.074793448	0.023052067
2019-09-22T21:25:00	0.1927	10.329	172.9	0.440707395	0.517168135	0.006926130	0.071455604	0.022023311
2019-09-22T21:30:00	0.1959	10.319	172.9	0.451614409	0.531931195	0.007240901	0.074703044	0.023024204
2019-09-22T21:35:00	0.1948	10.308	172.8	0.447977624	0.527046318	0.007135838	0.073619124	0.022690129
2019-09-22T21:40:00	0.1959	10.297	172.8	0.451660614	0.531993323	0.007242241	0.074716865	0.023028463
2019-09-22T21:45:00	0.1963	10.285	172.7	0.453250996	0.534132835	0.007288426	0.075193350	0.023175321
2019-09-22T21:50:00	0.1962	10.275	172.7	0.452751745	0.533460987	0.007273912	0.075043612	0.023129170
2019-09-22T21:55:00	0.1961	10.263	172.6	0.452600709	0.533257775	0.007269524	0.074998342	0.023115217
2019-09-22T22:00:00	0.1960	10.252	172.5	0.452101362	0.532586054	0.007255026	0.074848766	0.023069117
2019-09-22T22:05:00	0.1954	10.240	172.5	0.449915202	0.529647547	0.007191719	0.074195641	0.022867817
2019-09-22T22:10:00	0.1969	10.228	172.5	0.455391945	0.537016165	0.007350827	0.075837132	0.023373741
2019-09-22T22:15:00	0.1958	10.217	172.4	0.451466439	0.531732240	0.007236612	0.074658791	0.023010564
2019-09-22T22:20:00	0.1952	10.202	172.3	0.449279865	0.528794271	0.007173372	0.074006357	0.022809478
2019-09-22T22:25:00	0.1961	10.189	172.3	0.452320432	0.532880723	0.007261385	0.074914369	0.023089336
2019-09-22T22:30:00	0.1957	10.177	184.0	0.451179832	0.531346929	0.007228307	0.074573113	0.022984158
2019-09-22T22:35:00	0.1967	10.163	172.2	0.454566763	0.535904421	0.007326745	0.075588682	0.023297166
2019-09-22T22:40:00	0.1944	10.151	172.1	0.446455991	0.525005572	0.007092102	0.073167912	0.022551061
2019-09-22T22:45:00	0.1940	10.136	172.0	0.444964345	0.523006812	0.007049356	0.072726910	0.022415140
2019-09-22T22:50:00	0.1953	10.121	171.9	0.449752115	0.529428487	0.007187007	0.074147030	0.022852835
2019-09-22T22:55:00	0.1918	10.107	171.9	0.438247445	0.512947736	0.006844021	0.070608506	0.021762227
2019-09-22T23:00:00	0.1928	10.094	183.7	0.440890329	0.517482662	0.006932260	0.071518846	0.022042803
2019-09-22T23:05:00	0.1908	10.080	183.6	0.435648696	0.508507583	0.006757930	0.069720318	0.021488479
2019-09-22T23:10:00	0.1952	10.067	171.7	0.449369772	0.528915000	0.007175967	0.074033128	0.022817729
2019-09-22T23:15:00	0.1928	10.050	171.6	0.440938489	0.517565481	0.006933874	0.071535501	0.022047936
2019-09-22T23:20:00	0.1931	10.034	171.6	0.441849420	0.518838545	0.006960499	0.071810189	0.022132598
2019-09-22T23:25:00	0.1934	10.018	183.3	0.443150921	0.520579235	0.006997559	0.072192529	0.022250439
2019-09-22T23:30:00	0.1930	10.001	171.4	0.441657802	0.518582378	0.006955051	0.071753982	0.022115274
2019-09-22T23:35:00	0.1909	9.985	171.3	0.435745316	0.508672329	0.006761119	0.069753217	0.021498619
2019-09-22T23:40:00	0.1905	9.972	183.0	0.434853308	0.507152375	0.006731713	0.069449847	0.021405117
2019-09-22T23:45:00	0.1910	9.954	182.9	0.436140624	0.509346631	0.006774175	0.069887919	0.021540135
2019-09-22T23:50:00	0.1940	9.937	171.1	0.445116280	0.523210319	0.007053704	0.072771769	0.022428966
2019-09-22T23:55:00	0.1930	9.923	171.0	0.441528150	0.518409069	0.006951366	0.071715963	0.022103556
2019-09-23T00:00:00	0.1928	9.907	171.0	0.441082961	0.517813963	0.006938718	0.071585477	0.022063339
2019-09-23T00:05:00	0.1913	9.894	170.9	0.436930958	0.510696064	0.006800325	0.070157704	0.021623286
2019-09-23T00:10:00	0.1904	9.880	170.8	0.434404902	0.506389143	0.006716961	0.069297650	0.021358209
2019-09-23T00:15:00	0.1907	9.866	170.8	0.435147735	0.507653823	0.006741411	0.069549892	0.021435952
2019-09-23T00:20:00	0.1903	9.851	170.7	0.434255407	0.506134812	0.006712047	0.069246954	0.021342584
2019-09-23T00:25:00	0.1902	9.836	170.6	0.433908014	0.505544045	0.006700637	0.069129236	0.021306302
2019-09-23T00:30:00	0.1910	9.821	170.6	0.436013214	0.509129252	0.006769966	0.069844487	0.021526749
2019-09-23T00:35:00	0.1909	9.806	170.5	0.435938540	0.509001869	0.006767499	0.069819039	0.021518906
2019-09-23T00:40:00	0.1910	9.791	170.4	0.436136183	0.509339053	0.006774029	0.069886405	0.021539669
2019-09-23T00:45:00	0.1905	9.779	170.4	0.434699408	0.506890358	0.006726648	0.069397588	0.021389011
2019-09-23T00:50:00	0.1904	9.763	170.3	0.434352108	0.506299319	0.006715226	0.069279745	0.021352690
2019-09-23T00:55:00	0.1917	9.753	170.2	0.438089421	0.512677202	0.006838767	0.070554301	0.021745521
2019-09-23T01:00:00	0.1918	9.740	170.1	0.438286810	0.513015139	0.006845331	0.070622013	0.021766390
2019-09-23T01:05:00	0.1907	9.725	170.1	0.435218001	0.507773531	0.006743726	0.069573781	0.021443315
2019-09-23T01:10:00	0.1930	9.713	170.0	0.441488613	0.518356221	0.006950243	0.071704371	0.022099984
2019-09-23T01:15:00	0.1928	9.699	170.0	0.441052241	0.517761122	0.006937688	0.071574848	0.022060063
2019-09-23T01:20:00	0.1922	9.689	170.0	0.439347929	0.514833682	0.006880679	0.070986700	0.021878790
2019-09-23T01:25:00	0.1922	9.675	169.9	0.439273403	0.514705858	0.006878193	0.070961049	0.021870885
2019-09-23T01:30:00	0.1922	9.664	169.9	0.439470653	0.515044209	0.006884775	0.071028952	0.021891813
2019-09-23T01:35:00	0.1935	9.654	169.8	0.443454948	0.520986046	0.007006230	0.072281985	0.022278010
2019-09-23T01:40:00	0.1926	9.643	169.7	0.440408377	0.516654223	0.006916117	0.071352305	0.021991473
2019-09-23T01:45:00	0.1909	9.629	169.7	0.435710056	0.508612204	0.006759955	0.069741210	0.021494918
2019-09-23T01:50:00	0.1917	9.616	169.6	0.438084985	0.512669609	0.006838620	0.070552780	0.021745052
2019-09-23T01:55:00	0.1913	9.602	169.6	0.436922080	0.510680896	0.006800031	0.070154670	0.021622351
2019-09-23T02:00:00	0.1930	9.590	169.4	0.441578729	0.518476678	0.006952804	0.071730793	0.022108127
2019-09-23T02:05:00	0.1930	9.579	169.4	0.441482914	0.518348603	0.006950081	0.071702700	0.022099469
2019-09-23T02:10:00	0.1932	9.567	169.4	0.442435247	0.519621894	0.006977169	0.071982164	0.022185602
2019-09-23T02:15:00	0.1934	9.553	169.3	0.443038062	0.520428238	0.006994342	0.072159335	0.022240208
2019-09-23T02:20:00	0.1930	9.539	169.2	0.441544891	0.518431447	0.006951842	0.071720872	0.022105069
2019-09-23T02:25:00	0.1939	9.527	169.2	0.444941572	0.522976311	0.007048705	0.072720187	0.022413068
2019-09-23T02:30:00	0.1938	9.514	169.1	0.444496758	0.522380619	0.007035983	0.072588936	0.022372615
2019-09-23T02:35:00	0.1930	9.504	169.0	0.441606868	0.518514292	0.006953603	0.071739045	0.022110670
2019-09-23T02:40:00	0.1939	9.491	169.0	0.444654407	0.522591723	0.007040490	0.072635440	0.022386948
2019-09-23T02:45:00	0.1926	9.480	168.9	0.440526594	0.516857369	0.006920075	0.071393134	0.022004057
2019-09-23T02:50:00	0.1935	9.465	168.9	0.443415433	0.520933168	0.007005103	0.072270356	0.022274425
2019-09-23T02:55:00	0.1925	9.453	168.8	0.440106014	0.516134815	0.006906001	0.071247944	0.021959308
2019-09-23T03:00:00	0.1951	9.442	168.7	0.448807193	0.528159665	0.007159737	0.073865688	0.022766123
2019-09-23T03:05:00	0.1937	9.432	168.7	0.444175742	0.521950815	0.007026808	0.072494287	0.022343443
2019-09-23T03:10:00	0.1935	9.419	168.6	0.443381614	0.520887912	0.007004138	0.072260403	0.022271358
2019-09-23T03:15:00	0.1925	9.409	168.6	0.440079707	0.516089637	0.006905122	0.071238868	0.021956511
2019-09-23T03:20:00	0.1930	9.400	168.6	0.441792790	0.518762836	0.006958889	0.071793576	0.022127477
2019-09-23T03:25:00	0.1925	9.390	168.5	0.440202377	0.516300323	0.006909224	0.071281194	0.021969556
2019-09-23T03:30:00	0.1918	9.377	168.5	0.438225267	0.512909763	0.006843284	0.070600897	0.021759882
2019-09-23T03:35:00	0.1931	9.365	168.4	0.441854762	0.518845688	0.006960651	0.071811757	0.022133081
2019-09-23T03:40:00	0.1916	9.354	168.4	0.437804109	0.512188930	0.006829287	0.070456498	0.021715377
2019-09-23T03:45:00	0.1919	9.343	168.3	0.438545431	0.513458073	0.006853936	0.070710790	0.021793752
2019-09-23T03:50:00	0.1921	9.330	168.2	0.439014617	0.514262114	0.006869564	0.070872023	0.021843446
2019-09-23T03:55:00	0.1916	9.321	168.2	0.437580318	0.511806100	0.006821857	0.070379842	0.021691751
2019-09-23T04:00:00	0.1908	9.312	168.2	0.435600106	0.508424743	0.006756327	0.069703776	0.021483381
2019-09-23T04:05:00	0.1936	9.305	168.1	0.443623127	0.521211114	0.007011029	0.072331494	0.022293269
2019-09-23T04:10:00	0.1930	9.295	168.0	0.441678776	0.518610417	0.006955648	0.071760133	0.022117170
2019-09-23T04:15:00	0.1925	9.285	168.0	0.440034384	0.516011805	0.006903606	0.071223234	0.021951693
2019-09-23T04:20:00	0.1929	9.277	168.0	0.441283002	0.518081407	0.006944401	0.071644103	0.022081408
2019-09-23T04:25:00	0.1942	9.269	167.9	0.445974106	0.524359669	0.007078279	0.073025301	0.022507107
2019-09-23T04:30:00	0.1932	9.260	167.9	0.442284853	0.519420766	0.006972888	0.071937995	0.022171989
2019-09-23T04:35:00	0.1939	9.253	167.8	0.444880765	0.522894869	0.007046965	0.072702238	0.022407536
2019-09-23T04:40:00	0.1939	9.243	167.8	0.444683073	0.522630112	0.007041310	0.072643898	0.022389555
2019-09-23T04:45:00	0.1947	9.237	167.8	0.447625931	0.526574482	0.007125718	0.073514715	0.022657949
2019-09-23T04:50:00	0.1948	9.227	167.7	0.447777192	0.526777403	0.007130069	0.073559612	0.022671787
2019-09-23T04:55:00	0.1941	9.216	167.6	0.445486262	0.523705965	0.007064298	0.072881065	0.022462652
2019-09-23T05:00:00	0.1959	9.210	167.6	0.451913644	0.532333586	0.007249579	0.074792574	0.023051798
2019-09-23T05:05:00	0.1964	9.202	167.6	0.453457726	0.534411092	0.007294440	0.075255396	0.023194444
2019-09-23T05:10:00	0.1950	9.194	167.5	0.448730856	0.528057193	0.007157536	0.073842983	0.022759124
2019-09-23T05:15:00	0.1974	9.184	167.5	0.456891606	0.539037994	0.007394693	0.076289683	0.023513221
2019-09-23T05:20:00	0.1978	9.174	167.4	0.458433402	0.541118481	0.007439924	0.076756326	0.023657045
2019-09-23T05:25:00	0.1980	9.170	167.4	0.458931809	0.541791429	0.007454575	0.076907474	0.023703631
2019-09-23T05:30:00	0.1977	9.164	167.3	0.458039601	0.540586911	0.007428358	0.076637005	0.023620269
2019-09-23T05:35:00	0.1988	9.160	167.3	0.462012825	0.545955774	0.007545455	0.077845073	0.023992607
2019-09-23T05:40:00	0.1993	9.152	167.2	0.463552277	0.548039332	0.007591067	0.078315643	0.024137642
2019-09-23T05:45:00	0.1994	9.148	167.0	0.464049926	0.548713273	0.007605841	0.078468060	0.024184618
2019-09-23T05:50:00	0.1980	9.144	167.2	0.458990354	0.541870490	0.007456297	0.076925239	0.023709106
2019-09-23T05:55:00	0.1982	9.145	167.2	0.459836218	0.543013062	0.007481196	0.077182120	0.023788279
2019-09-23T06:00:00	0.1992	9.147	167.2	0.463113028	0.547444643	0.007578039	0.078181234	0.024096216
2019-09-23T06:05:00	0.1993	9.149	167.2	0.463610742	0.548118498	0.007592802	0.078333542	0.024143158
2019-09-23T06:10:00	0.2003	9.153	167.2	0.466883883	0.552554899	0.007690242	0.079338807	0.024452991
2019-09-23T06:15:00	0.2002	9.160	167.2	0.466687482	0.552288459	0.007684378	0.079278310	0.024434345
2019-09-23T06:20:00	0.2003	9.168	167.2	0.467184669	0.552963009	0.007699227	0.079431503	0.024481561
2019-09-23T06:25:00	0.2005	9.175	167.2	0.467681782	0.553637656	0.007714088	0.079584819	0.024528814
2019-09-23T06:30:00	0.2012	9.184	167.3	0.470258151	0.557137264	0.007791332	0.080381741	0.024774433
2019-09-23T06:35:00	0.2008	9.191	167.3	0.468675789	0.554987239	0.007743845	0.079891821	0.024623435
2019-09-23T06:40:00	0.2005	9.199	167.3	0.467786159	0.553779334	0.007717210	0.079617029	0.024538742
2019-09-23T06:45:00	0.1997	9.207	167.3	0.464814892	0.549749610	0.007628578	0.078702633	0.024256916
2019-09-23T06:50:00	0.1989	9.216	167.3	0.462188298	0.546193171	0.007550648	0.077898640	0.024009117
2019-09-23T06:55:00	0.2018	9.223	167.4	0.472394513	0.560043188	0.007855673	0.081045529	0.024979019
2019-09-23T07:00:00	0.2008	9.233	167.4	0.468734165	0.555066523	0.007745594	0.079909869	0.024628998
2019-09-23T07:05:00	0.1995	9.242	167.4	0.464375807	0.549154704	0.007615523	0.078567948	0.024215405
2019-09-23T07:10:00	0.2005	9.251	167.5	0.467648206	0.553592083	0.007713083	0.079574460	0.024525621
2019-09-23T07:15:00	0.2017	9.261	167.5	0.471956414	0.559446981	0.007842457	0.080909188	0.024936997
2019-09-23T07:20:00	0.2010	9.272	167.5	0.469335380	0.555883212	0.007763622	0.080095860	0.024686322
2019-09-23T07:25:00	0.2003	9.287	167.6	0.467059102	0.552792630	0.007695475	0.079392800	0.024469632
2019-09-23T07:30:00	0.2007	9.301	167.6	0.468596251	0.554879220	0.007741462	0.079867234	0.024615857
2019-09-23T07:35:00	0.1995	9.321	167.6	0.464237715	0.548967637	0.007611420	0.078525613	0.024202356
2019-09-23T07:40:00	0.1997	9.341	167.8	0.465082261	0.550111938	0.007636533	0.078784702	0.024282210
2019-09-23T07:45:00	0.2016	9.364	167.9	0.471472325	0.558788364	0.007827868	0.080758666	0.024890605
2019-09-23T07:50:00	0.2010	9.385	167.9	0.469544029	0.556166709	0.007769884	0.080160457	0.024706231
2019-09-23T07:55:00	0.2018	9.408	168.1	0.472118977	0.559668195	0.007847360	0.080959766	0.024952586
2019-09-23T08:00:00	0.2016	9.431	168.2	0.471576586	0.558930198	0.007831009	0.080791073	0.024900593
2019-09-23T08:05:00	0.2026	9.453	168.2	0.475187974	0.563848387	0.007940197	0.081917549	0.025247784
2019-09-23T08:10:00	0.2019	9.477	168.3	0.472569447	0.560281297	0.007860953	0.081100002	0.024995808
2019-09-23T08:15:00	0.2006	9.502	168.4	0.468216044	0.554362937	0.007730075	0.079749755	0.024579649
2019-09-23T08:20:00	0.1994	9.531	168.5	0.463857016	0.548452002	0.007600112	0.078408960	0.024166403
2019-09-23T08:25:00	0.2002	9.562	168.7	0.466783131	0.552418213	0.007687233	0.079307770	0.024443425
2019-09-23T08:30:00	0.2008	9.594	168.8	0.468667034	0.554975350	0.007743583	0.079889115	0.024622601
2019-09-23T08:35:00	0.1995	9.629	168.9	0.464308590	0.549063646	0.007613526	0.078547340	0.024209053
2019-09-23T08:40:00	0.2022	9.663	169.0	0.473470205	0.561507739	0.007888168	0.081380776	0.025082346
2019-09-23T08:45:00	0.1998	9.694	169.2	0.465303591	0.550411918	0.007643121	0.078852671	0.024303159
2019-09-23T08:50:00	0.2013	9.728	169.3	0.470654175	0.557675670	0.007803240	0.080504586	0.024812295
2019-09-23T08:55:00	0.2000	9.757	169.4	0.465951426	0.551290186	0.007662421	0.079051783	0.024364527
2019-09-23T09:00:00	0.2018	9.789	169.6	0.472339847	0.559968785	0.007854023	0.081028510	0.024973774
2019-09-23T09:05:00	0.1999	9.825	169.7	0.465558504	0.550757464	0.007650712	0.078930989	0.024327297
2019-09-23T09:10:00	0.2017	9.862	169.9	0.471947668	0.559435080	0.007842194	0.080906467	0.024936159
2019-09-23T09:15:00	0.2014	9.903	170.1	0.470712517	0.557754998	0.007804995	0.080522691	0.024817875
2019-09-23T09:20:00	0.2012	9.945	170.2	0.470169899	0.557017300	0.007788680	0.080354378	0.024766000
2019-09-23T09:25:00	0.2010	9.991	170.4	0.469627195	0.556279718	0.007772380	0.080186212	0.024714169
2019-09-23T09:30:00	0.2002	10.037	170.6	0.466657549	0.552247854	0.007683484	0.079269091	0.024431504
2019-09-23T09:35:00	0.2010	10.085	170.8	0.469581236	0.556217266	0.007771000	0.080171979	0.024709782
2019-09-23T09:40:00	0.1999	10.133	171.0	0.465570921	0.550774297	0.007651082	0.078934805	0.024328474
2019-09-23T09:45:00	0.1995	10.182	171.2	0.464333433	0.549097300	0.007614264	0.078554956	0.024211400
2019-09-23T09:50:00	0.1995	10.227	171.4	0.464136883	0.548831055	0.007608424	0.078494708	0.024192831
2019-09-23T09:55:00	0.2020	10.274	171.6	0.472952810	0.560803192	0.007872530	0.081219441	0.025032620
2019-09-23T10:00:00	0.2010	10.317	183.7	0.469639597	0.556296570	0.007772752	0.080190053	0.024715353
2019-09-23T10:05:00	0.2005	10.362	172.0	0.467615180	0.553547257	0.007712096	0.079564270	0.024522481
2019-09-23T10:10:00	0.1991	10.403	184.1	0.462812980	0.547038502	0.007569146	0.078089485	0.024067938
2019-09-23T10:15:00	0.1968	10.443	184.5	0.454873067	0.536317032	0.007335680	0.075680859	0.023325576
2019-09-23T10:20:00	0.1989	10.480	173.4	0.462229244	0.546248571	0.007551859	0.077911142	0.024012971
2019-09-23T10:25:00	0.1966	10.512	174.3	0.454287951	0.535528907	0.007318617	0.075504826	0.023271321
2019-09-23T10:30:00	0.1954	10.541	175.3	0.450163784	0.529981488	0.007198904	0.074269765	0.022890663
2019-09-23T10:35:00	0.1962	10.567	176.1	0.452658103	0.533334994	0.007271192	0.075015543	0.023120519
2019-09-23T10:40:00	0.1945	10.595	176.7	0.446788009	0.525450705	0.007101634	0.073266250	0.022581370
2019-09-23T10:45:00	0.1948	10.623	177.0	0.447890090	0.526928871	0.007133318	0.073593130	0.022682117
2019-09-23T10:50:00	0.1956	10.652	177.0	0.450734582	0.530748468	0.007215415	0.074440106	0.022943164
2019-09-23T10:55:00	0.1933	10.680	176.9	0.442766004	0.520064289	0.006986589	0.072079349	0.022215555
2019-09-23T11:00:00	0.1945	10.706	176.7	0.447010548	0.525749109	0.007108026	0.073332198	0.022601696
2019-09-23T11:05:00	0.1931	10.732	176.5	0.441829396	0.518811774	0.006959930	0.071804315	0.022130787
2019-09-23T11:10:00	0.1924	10.759	176.4	0.439805320	0.515618529	0.006895951	0.071144251	0.021927349
2019-09-23T11:15:00	0.1919	10.790	176.2	0.438489626	0.513362481	0.006852078	0.070691628	0.021787846
2019-09-23T11:20:00	0.1913	10.825	176.1	0.436900748	0.510644451	0.006799325	0.070147380	0.021620104
2019-09-23T11:25:00	0.1925	10.858	176.1	0.440206962	0.516308197	0.006909378	0.071282776	0.021970044
2019-09-23T11:30:00	0.1922	10.889	176.0	0.439435194	0.514983376	0.006883591	0.071016742	0.021888050
2019-09-23T11:35:00	0.1912	10.918	176.0	0.436758783	0.510401940	0.006794623	0.070098877	0.021605155
2019-09-23T11:40:00	0.1927	10.945	176.0	0.440608508	0.516998153	0.006922818	0.071421432	0.022012779
2019-09-23T11:45:00	0.1922	10.973	176.0	0.439293443	0.514740228	0.006878862	0.070967946	0.021873010
2019-09-23T11:50:00	0.1922	10.997	176.0	0.439336785	0.514814568	0.006880307	0.070982864	0.021877608
2019-09-23T11:55:00	0.1928	11.020	176.0	0.441009958	0.517688395	0.006936270	0.071560221	0.022055555
2019-09-23T12:00:00	0.1958	11.041	176.1	0.451512488	0.531794154	0.007237947	0.074672561	0.023014809
2019-09-23T12:05:00	0.1921	11.061	176.1	0.439195027	0.514571445	0.006875579	0.070934079	0.021862572
2019-09-23T12:10:00	0.1932	11.080	176.1	0.442204331	0.519313089	0.006970596	0.071914353	0.022164702
2019-09-23T12:15:00	0.1918	11.097	176.2	0.438194217	0.512856604	0.006842251	0.070590245	0.021756599
2019-09-23T12:20:00	0.1932	11.111	176.2	0.442315755	0.519462092	0.006973767	0.071947070	0.022174786
2019-09-23T12:25:00	0.1926	11.122	176.3	0.440455136	0.516734569	0.006917682	0.071368453	0.021996450
2019-09-23T12:30:00	0.1923	11.133	176.3	0.439683482	0.515409408	0.006891881	0.071102262	0.021914408
2019-09-23T12:35:00	0.1928	11.143	176.3	0.441085296	0.517817189	0.006938786	0.071586176	0.022063555
2019-09-23T12:40:00	0.1922	11.155	176.3	0.439226643	0.514625662	0.006876633	0.070944958	0.021865925
2019-09-23T12:45:00	0.1914	11.167	176.4	0.437094270	0.510975123	0.006805737	0.070213531	0.021640492
2019-09-23T12:50:00	0.1922	11.179	176.5	0.439313329	0.514774335	0.006879525	0.070974790	0.021875120
2019-09-23T12:55:00	0.1909	11.191	176.5	0.435819875	0.508799476	0.006763580	0.069778611	0.021506446
2019-09-23T13:00:00	0.1908	11.199	176.5	0.435590943	0.508409123	0.006756024	0.069700657	0.021482420
2019-09-23T13:05:00	0.1916	11.203	176.5	0.437811997	0.512202425	0.006829549	0.070459201	0.021716210
2019-09-23T13:10:00	0.1924	11.207	176.5	0.439758420	0.515538025	0.006894384	0.071128086	0.021922367
2019-09-23T13:15:00	0.1912	11.210	176.5	0.436538150	0.510025158	0.006787321	0.070023537	0.021581934
2019-09-23T13:20:00	0.1900	11.212	176.6	0.433311656	0.504530680	0.006681077	0.068927439	0.021244106
2019-09-23T13:25:00	0.1908	11.214	176.6	0.435535749	0.508315033	0.006754203	0.069681871	0.021476629
2019-09-23T13:30:00	0.1894	11.217	176.6	0.431761365	0.501900973	0.006630392	0.068404531	0.021082941
2019-09-23T13:35:00	0.1904	11.224	176.6	0.434532744	0.506606686	0.006721165	0.069341021	0.021371576
2019-09-23T13:40:00	0.1900	11.230	176.6	0.433485640	0.504826222	0.006686780	0.068986275	0.021262240
2019-09-23T13:45:00	0.1885	11.236	176.6	0.429159774	0.497503016	0.006545865	0.067532480	0.020814166
2019-09-23T13:50:00	0.1887	11.240	176.6	0.429750170	0.498499421	0.006564989	0.067729782	0.020874976
2019-09-23T13:55:00	0.1878	11.243	176.7	0.427331845	0.494424179	0.006486870	0.066923840	0.020626577
2019-09-23T14:00:00	0.1881	11.248	176.7	0.428196528	0.495879434	0.006514736	0.067211332	0.020715185
2019-09-23T14:05:00	0.1877	11.253	176.7	0.427145395	0.494110659	0.006480871	0.066861947	0.020607501
2019-09-23T14:10:00	0.1869	11.260	176.7	0.424997387	0.490505668	0.006412000	0.066151422	0.020388511
2019-09-23T14:15:00	0.1868	11.269	176.8	0.424492743	0.489660582	0.006395885	0.065985164	0.020337269
2019-09-23T14:20:00	0.1885	11.277	176.8	0.429191581	0.497556672	0.006546894	0.067543101	0.020817440
2019-09-23T14:25:00	0.1885	11.282	176.9	0.429235188	0.497630237	0.006548306	0.067557663	0.020821928
2019-09-23T14:30:00	0.1875	11.287	176.9	0.426542243	0.493097099	0.006461487	0.066661967	0.020545866
2019-09-23T14:35:00	0.1851	11.290	176.9	0.419999603	0.482167382	0.006253489	0.064516093	0.019884486
2019-09-23T14:40:00	0.1889	11.293	176.9	0.430459287	0.499697474	0.006588004	0.067967222	0.020948158
2019-09-23T14:45:00	0.1879	11.297	176.9	0.427494649	0.494698019	0.006492111	0.066977912	0.020643243
2019-09-23T14:50:00	0.1861	11.299	176.9	0.422603955	0.486503848	0.006335788	0.065365155	0.020146176
2019-09-23T14:55:00	0.1876	11.302	177.0	0.426760616	0.493463944	0.006468501	0.066734328	0.020568168
2019-09-23T15:00:00	0.1873	11.306	177.0	0.425982562	0.492157492	0.006443532	0.066476727	0.020488773
2019-09-23T15:05:00	0.1859	11.309	177.0	0.422186159	0.485806919	0.006322541	0.065228492	0.020104055
2019-09-23T15:10:00	0.1866	11.312	177.0	0.424151080	0.489088828	0.006384988	0.065872747	0.020302620
2019-09-23T15:15:00	0.1892	11.315	177.0	0.431037431	0.500675282	0.006606804	0.068161183	0.021007939
2019-09-23T15:20:00	0.1881	11.318	177.1	0.428073835	0.495672817	0.006510778	0.067170493	0.020702598
2019-09-23T15:25:00	0.1872	11.319	177.1	0.425653036	0.491604683	0.006432974	0.066367809	0.020455203
2019-09-23T15:30:00	0.1867	11.320	177.1	0.424326036	0.489381567	0.006390567	0.065930298	0.020320358
2019-09-23T15:35:00	0.1899	11.322	177.1	0.433122298	0.504209119	0.006674873	0.068863438	0.021224380
2019-09-23T15:40:00	0.1881	11.323	177.2	0.428248372	0.495966754	0.006516409	0.067228593	0.020720505
2019-09-23T15:45:00	0.1884	11.324	177.1	0.429112573	0.497423397	0.006544337	0.067516722	0.020809309
2019-09-23T15:50:00	0.1886	11.325	177.2	0.429429606	0.497958289	0.006554601	0.067622611	0.020841945
2019-09-23T15:55:00	0.1880	11.325	177.2	0.427832018	0.495265715	0.006502980	0.067090047	0.020677804
2019-09-23T16:00:00	0.1898	11.326	177.2	0.432794199	0.503652190	0.006664133	0.068752632	0.021190229
2019-09-23T16:05:00	0.1886	11.326	177.2	0.429560403	0.498179048	0.006558838	0.067666326	0.020855419
2019-09-23T16:10:00	0.1903	11.326	177.2	0.434244816	0.506116797	0.006711699	0.069243364	0.021341477
2019-09-23T16:15:00	0.1892	11.326	177.2	0.431286975	0.501097619	0.006614929	0.068245006	0.021033774
2019-09-23T16:20:00	0.1879	11.325	177.2	0.427502865	0.494711840	0.006492376	0.066980641	0.020644084
2019-09-23T16:25:00	0.1882	11.323	177.2	0.428367457	0.496167353	0.006520253	0.067268252	0.020732729
2019-09-23T16:30:00	0.1897	11.321	177.2	0.432509554	0.503169266	0.006654824	0.068656589	0.021160627
2019-09-23T16:35:00	0.1918	11.318	177.2	0.438273811	0.512992882	0.006844898	0.070617553	0.021765016
2019-09-23T16:40:00	0.1899	11.314	177.2	0.433142257	0.504243009	0.006675527	0.068870183	0.021226459
2019-09-23T16:45:00	0.1896	11.310	177.2	0.432367214	0.502927858	0.006650171	0.068608592	0.021145834
2019-09-23T16:50:00	0.1905	11.305	177.2	0.434592571	0.506708506	0.006723133	0.069361324	0.021377834
2019-09-23T16:55:00	0.1901	11.301	177.2	0.433545505	0.504927931	0.006688743	0.069006526	0.021268482
2019-09-23T17:00:00	0.1901	11.296	177.2	0.433588997	0.505001830	0.006690169	0.069021241	0.021273017
2019-09-23T17:05:00	0.1904	11.290	177.2	0.434450409	0.506466575	0.006718457	0.069313087	0.021362967
2019-09-23T17:10:00	0.1913	11.284	177.2	0.436945169	0.510720345	0.006800796	0.070162561	0.021624783
2019-09-23T17:15:00	0.1886	11.278	177.2	0.429624001	0.498286407	0.006560899	0.067687589	0.020861972
2019-09-23T17:20:00	0.1905	11.270	177.1	0.434853339	0.507152428	0.006731715	0.069449858	0.021405121
2019-09-23T17:25:00	0.1930	11.262	177.1	0.441521937	0.518400763	0.006951190	0.071714141	0.022102995
2019-09-23T17:30:00	0.1942	11.256	177.1	0.445768059	0.524083547	0.007072373	0.072964364	0.022488326
2019-09-23T17:35:00	0.1915	11.247	177.1	0.437434281	0.511556357	0.006817011	0.070329847	0.021676342
2019-09-23T17:40:00	0.1939	11.239	177.1	0.444832292	0.522829949	0.007045578	0.072687931	0.022403126
2019-09-23T17:45:00	0.1947	11.229	177.0	0.447679381	0.526646184	0.007127255	0.073530578	0.022662838
2019-09-23T17:50:00	0.1928	11.220	177.0	0.441101683	0.517839088	0.006939251	0.071590976	0.022065034
2019-09-23T17:55:00	0.1928	11.210	177.0	0.440869355	0.517446595	0.006931557	0.071511593	0.022040568
2019-09-23T18:00:00	0.1937	11.201	176.9	0.444007630	0.521725764	0.007022006	0.072444744	0.022328174
2019-09-23T18:05:00	0.1934	11.191	176.8	0.443015671	0.520398283	0.006993704	0.072152751	0.022238179
2019-09-23T18:10:00	0.1945	11.181	176.8	0.446911056	0.525615693	0.007105168	0.073302711	0.022592607
2019-09-23T18:15:00	0.1941	11.170	176.8	0.445570973	0.523819464	0.007066725	0.072906101	0.022470368
2019-09-23T18:20:00	0.1939	11.160	176.7	0.444928565	0.522958889	0.007048332	0.072716347	0.022411884
2019-09-23T18:25:00	0.1952	11.149	176.7	0.449170370	0.528647249	0.007170212	0.073973759	0.022799431
2019-09-23T18:30:00	0.1954	11.137	176.6	0.449923137	0.529658206	0.007191948	0.074198006	0.022868546
2019-09-23T18:35:00	0.1951	11.125	176.6	0.448932929	0.528328461	0.007163363	0.073903095	0.022777652
2019-09-23T18:40:00	0.1959	11.113	176.6	0.451776537	0.532149206	0.007245603	0.074751546	0.023039152
2019-09-23T18:45:00	0.1953	11.101	176.5	0.449741337	0.529414010	0.007186696	0.074143818	0.022851845
2019-09-23T18:50:00	0.1965	11.089	176.4	0.453977060	0.535110259	0.007309559	0.075411375	0.023242518
2019-09-23T18:55:00	0.1972	11.078	176.4	0.456120660	0.537998389	0.007372127	0.076056870	0.023441466
2019-09-23T19:00:00	0.1961	11.065	176.4	0.452347061	0.532916543	0.007262158	0.074922345	0.023091794
2019-09-23T19:05:00	0.1964	11.054	176.3	0.453447315	0.534397078	0.007294137	0.075252271	0.023193481
2019-09-23T19:10:00	0.1969	11.042	176.2	0.455243274	0.536815826	0.007346486	0.075792340	0.023359935
2019-09-23T19:15:00	0.1960	11.030	176.2	0.452165392	0.532672176	0.007256884	0.074867938	0.023075026
2019-09-23T19:20:00	0.1976	11.020	176.2	0.457789278	0.540249077	0.007421011	0.076561204	0.023596907
2019-09-23T19:25:00	0.1960	11.010	176.1	0.452276485	0.532821607	0.007260109	0.074901206	0.023085279
2019-09-23T19:30:00	0.1954	11.001	176.1	0.449893055	0.529617798	0.007191079	0.074189038	0.022865782
2019-09-23T19:35:00	0.1935	10.993	176.1	0.443319710	0.520805078	0.007002373	0.072242187	0.022265743
2019-09-23T19:40:00	0.1920	10.985	176.0	0.438790587	0.513878118	0.006862099	0.070795009	0.021819709
2019-09-23T19:45:00	0.1948	10.978	176.0	0.447967946	0.527033333	0.007135559	0.073616250	0.022689243
2019-09-23T19:50:00	0.1930	10.971	176.0	0.441740236	0.518692578	0.006957395	0.071778160	0.022122726
2019-09-23T19:55:00	0.1950	10.965	176.0	0.448776587	0.528118580	0.007158855	0.073856585	0.022763317
2019-09-23T20:00:00	0.1960	10.960	176.0	0.451968682	0.532407606	0.007251176	0.074809047	0.023056875
2019-09-23T20:05:00	0.1955	10.955	175.9	0.450282128	0.530140485	0.007202326	0.074305066	0.022901543
2019-09-23T20:10:00	0.1955	10.950	175.9	0.450337706	0.530215159	0.007203933	0.074321647	0.022906653
2019-09-23T20:15:00	0.1957	10.945	175.9	0.451090211	0.531226456	0.007225711	0.074546331	0.022975903
2019-09-23T20:20:00	0.1968	10.940	175.9	0.454976226	0.536456011	0.007338690	0.075711915	0.023335148
2019-09-23T20:25:00	0.1964	10.935	175.8	0.453639364	0.534655603	0.007299726	0.075309932	0.023211252
2019-09-23T20:30:00	0.1949	10.932	175.9	0.448119744	0.527237016	0.007139929	0.073661336	0.022703139
2019-09-23T20:35:00	0.1942	10.928	175.9	0.445733355	0.524037043	0.007071378	0.072954103	0.022485163
2019-09-23T20:40:00	0.1933	10.923	175.9	0.442646721	0.519904736	0.006983191	0.072044294	0.022204751
2019-09-23T20:45:00	0.1959	10.919	175.8	0.451771961	0.532143051	0.007245470	0.074750176	0.023038730
2019-09-23T20:50:00	0.1930	10.915	175.8	0.441710080	0.518652265	0.006956537	0.071769314	0.022120000
2019-09-23T20:55:00	0.1953	10.910	175.8	0.449792345	0.529482522	0.007188170	0.074159020	0.022856530
2019-09-23T21:00:00	0.1966	10.905	175.8	0.454028003	0.535178854	0.007311043	0.075426684	0.023247237
2019-09-23T21:05:00	0.1938	10.900	175.8	0.444322058	0.522146705	0.007030989	0.072537420	0.022356737
2019-09-23T21:10:00	0.1950	10.896	175.7	0.448564631	0.527834072	0.007152745	0.073793552	0.022743890
2019-09-23T21:15:00	0.1949	10.891	175.7	0.448271535	0.527440708	0.007144301	0.073706434	0.022717039
2019-09-23T21:20:00	0.1959	10.887	175.7	0.451812482	0.532197542	0.007246645	0.074762301	0.023042467
2019-09-23T21:25:00	0.1957	10.883	175.7	0.451171269	0.531335417	0.007228059	0.074570554	0.022983369
2019-09-23T21:30:00	0.1952	10.877	175.6	0.449484314	0.529068817	0.007179274	0.074067242	0.022828243
2019-09-23T21:35:00	0.1939	10.872	175.6	0.444656107	0.522594000	0.007040539	0.072635942	0.022387103
2019-09-23T21:40:00	0.1941	10.867	175.6	0.445409889	0.523603644	0.007062111	0.072858497	0.022455696
2019-09-23T21:45:00	0.1942	10.862	175.6	0.445814542	0.524145836	0.007073705	0.072978109	0.022492562
2019-09-23T21:50:00	0.1932	10.860	175.6	0.442378667	0.519546225	0.006975558	0.071965546	0.022180480
2019-09-23T21:55:00	0.1947	10.858	175.6	0.447670216	0.526633889	0.007126992	0.073527858	0.022662000
2019-09-23T22:00:00	0.1946	10.855	175.6	0.447377042	0.526240627	0.007118560	0.073440870	0.022635189
2019-09-23T22:05:00	0.1944	10.853	175.6	0.446475513	0.525031742	0.007092663	0.073173692	0.022552843
2019-09-23T22:10:00	0.1935	10.849	175.6	0.443479076	0.521018334	0.007006919	0.072289087	0.022280199
2019-09-23T22:15:00	0.1934	10.845	175.5	0.442925791	0.520278040	0.006991142	0.072126322	0.022230033
2019-09-23T22:20:00	0.1948	10.842	175.5	0.447957123	0.527018811	0.007135248	0.073613036	0.022688252
2019-09-23T22:25:00	0.1964	10.839	175.5	0.453329123	0.534237989	0.007290699	0.075216795	0.023182547
2019-09-23T22:30:00	0.1947	10.839	175.5	0.447549607	0.526472097	0.007123522	0.073492066	0.022650969
2019-09-23T22:35:00	0.1963	10.837	175.5	0.453270478	0.534159057	0.007288993	0.075199196	0.023177123
2019-09-23T22:40:00	0.1957	10.834	175.5	0.450977066	0.531074371	0.007222435	0.074512527	0.022965485
2019-09-23T22:45:00	0.1946	10.831	175.5	0.447287082	0.526119968	0.007115974	0.073414188	0.022626966
2019-09-23T22:50:00	0.1962	10.828	175.5	0.452660154	0.533337753	0.007271251	0.075016158	0.023120708
2019-09-23T22:55:00	0.1934	10.826	175.5	0.443039763	0.520430514	0.006994390	0.072159836	0.022240362
2019-09-23T23:00:00	0.1948	10.823	175.5	0.448070923	0.527171506	0.007138524	0.073646834	0.022698669
2019-09-23T23:05:00	0.1958	10.821	175.5	0.451352991	0.531579714	0.007233324	0.074624871	0.023000110
2019-09-23T23:10:00	0.1971	10.820	175.5	0.456023801	0.537867811	0.007369294	0.076027645	0.023432459
2019-09-23T23:15:00	0.1959	10.819	175.4	0.451642700	0.531969236	0.007241722	0.074711506	0.023026812
2019-09-23T23:20:00	0.1971	10.819	175.5	0.455965204	0.537788818	0.007367580	0.076009968	0.023427010
2019-09-23T23:25:00	0.1980	10.819	175.4	0.459239565	0.542207059	0.007463628	0.077000878	0.023732418
2019-09-23T23:30:00	0.1974	10.818	175.4	0.456950227	0.539117062	0.007396410	0.076307399	0.023518682
2019-09-23T23:35:00	0.1983	10.816	175.4	0.460223629	0.543536557	0.007492614	0.077299914	0.023824584
2019-09-23T23:40:00	0.1971	10.816	175.4	0.455848006	0.537630835	0.007364154	0.075974617	0.023416115
2019-09-23T23:45:00	0.1960	10.816	175.4	0.452163380	0.532669470	0.007256826	0.074867335	0.023074840
2019-09-23T23:50:00	0.1983	10.816	175.4	0.459962093	0.543183140	0.007484905	0.077220383	0.023800072
2019-09-23T23:55:00	0.1985	10.817	175.4	0.460801495	0.544317626	0.007509660	0.077475781	0.023878788
2019-09-24T00:00:00	0.1967	10.816	175.4	0.454686804	0.536066115	0.007330246	0.075624799	0.023308298
2019-09-24T00:05:00	0.1967	10.816	175.4	0.454483461	0.535792220	0.007324316	0.075563623	0.023289442
2019-09-24T00:10:00	0.1959	10.816	175.4	0.451842546	0.532237973	0.007247517	0.074771297	0.023045240
2019-09-24T00:15:00	0.1959	10.816	175.4	0.451639031	0.531964302	0.007241615	0.074710409	0.023026474
2019-09-24T00:20:00	0.1956	10.817	175.4	0.450738647	0.530753932	0.007215533	0.074441320	0.022943538
2019-09-24T00:25:00	0.1955	10.818	175.5	0.450535065	0.530480347	0.007209642	0.074380543	0.022924806
2019-09-24T00:30:00	0.1965	10.818	175.5	0.453814723	0.534891685	0.007304832	0.075362601	0.023227486
2019-09-24T00:35:00	0.1974	10.820	175.5	0.457091180	0.539307191	0.007400540	0.076350007	0.023531814
2019-09-24T00:40:00	0.1979	10.820	175.5	0.458626663	0.541379398	0.007445603	0.076814918	0.023675104
2019-09-24T00:45:00	0.1991	10.821	175.5	0.462940199	0.547210695	0.007572916	0.078128380	0.024079925
2019-09-24T00:50:00	0.1979	10.823	175.5	0.458568111	0.541300345	0.007443883	0.076797164	0.023669632
2019-09-24T00:55:00	0.1972	10.823	175.5	0.456278315	0.538210946	0.007376738	0.076104451	0.023456131
2019-09-24T01:00:00	0.1967	10.824	175.5	0.454683138	0.536061177	0.007330139	0.075623696	0.023307958
2019-09-24T01:05:00	0.1971	10.824	175.5	0.455871809	0.537662920	0.007364850	0.075981796	0.023418327
2019-09-24T01:10:00	0.1964	10.825	175.5	0.453580173	0.534575920	0.007298004	0.075292158	0.023205774
2019-09-24T01:15:00	0.1992	10.826	175.5	0.463111966	0.547443205	0.007578008	0.078180909	0.024096116
2019-09-24T01:20:00	0.1993	10.827	175.5	0.463603468	0.548108649	0.007592586	0.078331315	0.024142472
2019-09-24T01:25:00	0.1982	10.827	175.5	0.459927338	0.543136179	0.007483881	0.077209818	0.023796816
2019-09-24T01:30:00	0.1977	10.829	175.5	0.457986199	0.540514835	0.007426791	0.076620831	0.023615284
2019-09-24T01:35:00	0.1980	10.829	175.5	0.459173701	0.542118103	0.007461690	0.076980884	0.023726256
2019-09-24T01:40:00	0.1975	10.830	175.5	0.457232126	0.539497328	0.007404671	0.076392625	0.023544949
2019-09-24T01:45:00	0.1985	10.831	175.5	0.460852689	0.544386835	0.007511171	0.077491371	0.023883593
2019-09-24T01:50:00	0.2003	10.832	175.5	0.466897788	0.552573764	0.007690657	0.079343091	0.024454311
2019-09-24T01:55:00	0.1986	10.832	175.5	0.461141580	0.544777425	0.007519701	0.077579374	0.023910716
2019-09-24T02:00:00	0.1986	10.833	175.5	0.461286016	0.544972732	0.007523968	0.077623391	0.023924283
2019-09-24T02:05:00	0.1991	10.835	175.5	0.462819586	0.547047444	0.007569342	0.078091505	0.024068560
2019-09-24T02:10:00	0.1999	10.836	175.5	0.465740394	0.551004054	0.007656131	0.078986895	0.024344528
2019-09-24T02:15:00	0.1998	10.837	175.5	0.465190766	0.550258996	0.007639762	0.078818020	0.024292479
2019-09-24T02:20:00	0.2011	10.839	175.5	0.469842419	0.556572198	0.007778842	0.080252882	0.024734718
2019-09-24T02:25:00	0.2010	10.839	175.5	0.469639989	0.556297104	0.007772764	0.080190174	0.024715390
2019-09-24T02:30:00	0.2003	10.841	175.5	0.467010948	0.552727294	0.007694037	0.079377960	0.024465058
2019-09-24T02:35:00	0.2009	10.842	175.6	0.469235093	0.555746963	0.007760614	0.080064820	0.024676755
2019-09-24T02:40:00	0.2011	10.844	175.6	0.469725703	0.556413582	0.007775337	0.080216723	0.024723573
2019-09-24T02:45:00	0.2007	10.844	175.6	0.468483536	0.554726152	0.007738085	0.079832398	0.024605120
2019-09-24T02:50:00	0.1999	10.845	175.6	0.465506674	0.550687202	0.007649169	0.078915062	0.024322389
2019-09-24T02:55:00	0.1993	10.847	175.6	0.463568751	0.548061639	0.007591556	0.078320687	0.024139196
2019-09-24T03:00:00	0.1995	10.847	175.6	0.464407254	0.549197305	0.007616458	0.078577590	0.024218376
2019-09-24T03:05:00	0.2010	10.848	175.6	0.469406540	0.555979896	0.007765757	0.080117888	0.024693111
2019-09-24T03:10:00	0.1993	10.849	175.6	0.463654620	0.548177914	0.007594105	0.078346976	0.024147299
2019-09-24T03:15:00	0.1996	10.850	175.6	0.464493101	0.549313608	0.007619009	0.078603916	0.024226490
2019-09-24T03:20:00	0.1987	10.849	175.6	0.461512711	0.545279301	0.007530667	0.077692501	0.023945583
2019-09-24T03:25:00	0.1976	10.849	175.6	0.457834295	0.540309828	0.007422332	0.076574833	0.023601107
2019-09-24T03:30:00	0.1997	10.849	175.6	0.464925961	0.549900119	0.007631882	0.078736721	0.024267422
2019-09-24T03:35:00	0.1976	10.850	175.6	0.457775729	0.540230793	0.007420614	0.076557103	0.023595643
2019-09-24T03:40:00	0.2005	10.849	175.6	0.467642394	0.553584194	0.007712910	0.079572666	0.024525069
2019-09-24T03:45:00	0.2004	10.849	175.6	0.467439832	0.553309274	0.007706853	0.079510181	0.024505810
2019-09-24T03:50:00	0.1988	10.849	175.6	0.461684551	0.545511716	0.007535747	0.077744908	0.023961736
2019-09-24T03:55:00	0.1997	10.849	175.6	0.464953354	0.549937241	0.007632697	0.078745129	0.024270014
2019-09-24T04:00:00	0.1997	10.849	175.6	0.465097627	0.550132763	0.007636990	0.078789420	0.024283664
2019-09-24T04:05:00	0.1999	10.849	175.6	0.465785305	0.551064944	0.007657470	0.079000702	0.024348784
2019-09-24T04:10:00	0.1998	10.849	175.6	0.465432170	0.550586206	0.007646950	0.078892170	0.024315333
2019-09-24T04:15:00	0.1997	10.849	175.6	0.465078999	0.550107517	0.007636436	0.078783701	0.024281902
2019-09-24T04:20:00	0.2010	10.850	175.6	0.469580529	0.556216306	0.007770979	0.080171760	0.024709715
2019-09-24T04:25:00	0.2020	10.850	175.6	0.473037734	0.560918821	0.007875096	0.081245911	0.025040779
2019-09-24T04:30:00	0.2007	10.851	175.6	0.468528410	0.554787091	0.007739429	0.079846266	0.024609395
2019-09-24T04:35:00	0.2022	10.851	175.6	0.473717602	0.561844701	0.007895651	0.081457976	0.025106139
2019-09-24T04:40:00	0.2003	10.851	175.6	0.467129211	0.552887758	0.007697570	0.079414408	0.024476292
2019-09-24T04:45:00	0.1994	10.852	175.6	0.464000628	0.548646503	0.007604377	0.078452955	0.024179963
2019-09-24T04:50:00	0.2014	10.852	175.6	0.470929124	0.558049544	0.007811512	0.080589928	0.024838599
2019-09-24T04:55:00	0.2008	10.853	175.6	0.468844006	0.555215709	0.007748886	0.079943833	0.024639466
2019-09-24T05:00:00	0.1999	10.855	175.6	0.465717015	0.550972357	0.007655435	0.078979708	0.024342313
2019-09-24T05:05:00	0.1997	10.856	175.6	0.465016904	0.550023364	0.007634588	0.078764637	0.024276026
2019-09-24T05:10:00	0.2007	10.857	175.6	0.468478785	0.554719701	0.007737943	0.079830930	0.024604668
2019-09-24T05:15:00	0.2005	10.859	175.6	0.467779248	0.553769953	0.007717003	0.079614896	0.024538084
2019-09-24T05:20:00	0.1992	10.861	175.6	0.463262884	0.547647513	0.007582483	0.078227077	0.024110345
2019-09-24T05:25:00	0.2004	10.863	175.6	0.467420117	0.553282519	0.007706264	0.079504100	0.024503936
2019-09-24T05:30:00	0.2004	10.866	175.6	0.467413912	0.553274098	0.007706078	0.079502187	0.024503346
2019-09-24T05:35:00	0.2001	10.869	175.6	0.466367324	0.551854193	0.007674824	0.079179739	0.024403965
2019-09-24T05:40:00	0.1984	10.872	175.6	0.460459526	0.543855373	0.007499570	0.077371683	0.023846704
2019-09-24T05:45:00	0.1990	10.876	175.4	0.462537407	0.546665554	0.007560983	0.078005267	0.024041981
2019-09-24T05:50:00	0.1993	10.880	175.6	0.463572761	0.548067069	0.007591675	0.078321914	0.024139575
2019-09-24T05:55:00	0.1986	10.884	175.7	0.461135718	0.544769498	0.007519528	0.077577587	0.023910166
2019-09-24T06:00:00	0.1990	10.890	175.7	0.462518765	0.546640326	0.007560431	0.077999572	0.024040225
2019-09-24T06:05:00	0.1998	10.896	175.7	0.465289366	0.550392636	0.007642698	0.078848302	0.024301812
2019-09-24T06:10:00	0.1986	10.903	175.7	0.461117067	0.544744280	0.007518978	0.077571905	0.023908414
2019-09-24T06:15:00	0.1998	10.909	175.7	0.465276947	0.550375805	0.007642328	0.078844488	0.024300637
2019-09-24T06:20:00	0.2002	10.914	175.7	0.466658296	0.552248867	0.007683507	0.079269321	0.024431575
2019-09-24T06:25:00	0.2011	10.920	175.8	0.469772013	0.556476516	0.007776728	0.080231069	0.024727995
2019-09-24T06:30:00	0.2016	10.927	175.8	0.471497861	0.558823102	0.007828637	0.080766603	0.024893051
2019-09-24T06:35:00	0.2023	10.937	175.8	0.473915045	0.562113657	0.007901626	0.081519614	0.025125137
2019-09-24T06:40:00	0.2033	10.948	175.9	0.477367821	0.566822047	0.008006465	0.082601222	0.025458499
2019-09-24T06:45:00	0.2041	10.956	175.9	0.480126271	0.570590441	0.008090713	0.083470391	0.025726385
2019-09-24T06:50:00	0.2036	10.963	175.9	0.478392453	0.568221116	0.008037708	0.082923551	0.025557844
2019-09-24T06:55:00	0.2023	10.971	176.0	0.473890272	0.562079910	0.007900876	0.081511879	0.025122753
2019-09-24T07:00:00	0.2031	10.983	176.0	0.476651558	0.565844531	0.007984660	0.082376268	0.025389166
2019-09-24T07:05:00	0.2032	11.003	176.1	0.476991146	0.566307931	0.007994994	0.082482883	0.025422026
2019-09-24T07:10:00	0.2025	11.022	176.1	0.474563777	0.562997579	0.007921271	0.081722297	0.025187606
2019-09-24T07:15:00	0.2037	11.034	176.2	0.478707129	0.568650954	0.008047315	0.083022667	0.025588392
2019-09-24T07:20:00	0.2059	11.044	176.2	0.486295277	0.579040062	0.008280705	0.085430502	0.026330510
2019-09-24T07:25:00	0.2045	11.056	176.3	0.481458309	0.572412347	0.008131552	0.083891719	0.025856243
2019-09-24T07:30:00	0.2058	11.070	176.3	0.485938106	0.578550020	0.008269645	0.085316402	0.026295344
2019-09-24T07:35:00	0.2061	11.084	176.4	0.486966320	0.579961017	0.008301503	0.085645076	0.026396644
2019-09-24T07:40:00	0.2063	11.096	176.4	0.487649567	0.580899091	0.008322706	0.085863826	0.026464065
2019-09-24T07:45:00	0.2080	11.109	176.5	0.493497810	0.588943808	0.008505294	0.087747549	0.027044647
2019-09-24T07:50:00	0.2085	11.121	176.5	0.495211626	0.591306490	0.008559174	0.088303418	0.027215971
2019-09-24T07:55:00	0.2093	11.134	176.6	0.497955628	0.595094306	0.008645794	0.089197059	0.027491400
2019-09-24T08:00:00	0.2109	11.149	176.6	0.503443156	0.602687433	0.008820321	0.090997629	0.028046353
2019-09-24T08:05:00	0.2117	11.161	176.6	0.506523336	0.606960119	0.008919047	0.092016160	0.028360274
2019-09-24T08:10:00	0.2128	11.173	176.7	0.510285597	0.612189336	0.009040378	0.093267917	0.028746078
2019-09-24T08:15:00	0.2125	11.182	176.7	0.509252135	0.610751776	0.009006968	0.092923228	0.028639841
2019-09-24T08:20:00	0.2148	11.188	176.7	0.517114391	0.621709979	0.009262699	0.095561560	0.029453001
2019-09-24T08:25:00	0.2160	11.193	176.8	0.521206374	0.627433070	0.009397216	0.096949341	0.029880729
2019-09-24T08:30:00	0.2128	11.201	176.8	0.510261088	0.612155233	0.009039585	0.093259735	0.028743556
2019-09-24T08:35:00	0.2140	11.212	176.8	0.514361250	0.617867037	0.009172742	0.094633485	0.029166959
2019-09-24T08:40:00	0.2145	11.221	176.8	0.516064635	0.620243966	0.009228347	0.095207156	0.029343770
2019-09-24T08:45:00	0.2160	11.229	176.9	0.521181943	0.627398860	0.009396410	0.096941026	0.029878166
2019-09-24T08:50:00	0.2167	11.236	176.9	0.523564158	0.630736858	0.009475165	0.097753533	0.030128588
2019-09-24T08:55:00	0.2172	11.242	176.9	0.525262988	0.633120099	0.009531530	0.098335036	0.030307813
2019-09-24T09:00:00	0.2171	11.248	177.0	0.524915968	0.632633083	0.009520003	0.098216111	0.030271159
2019-09-24T09:05:00	0.2171	11.257	177.0	0.524909867	0.632624521	0.009519800	0.098214021	0.030270515
2019-09-24T09:10:00	0.2172	11.261	177.0	0.525244686	0.633094411	0.009530922	0.098328762	0.030305879
2019-09-24T09:15:00	0.2158	11.262	177.0	0.520462606	0.626391819	0.009372693	0.096696349	0.029802754
2019-09-24T09:20:00	0.2159	11.263	177.0	0.520797859	0.626861107	0.009383743	0.096810344	0.029837888
2019-09-24T09:25:00	0.2158	11.268	177.0	0.520450388	0.626374718	0.009372291	0.096692196	0.029801474
2019-09-24T09:30:00	0.2132	11.277	177.0	0.511556896	0.613958913	0.009081563	0.093692807	0.028877033
2019-09-24T09:35:00	0.2138	11.287	177.0	0.513603754	0.616810771	0.009148068	0.094378931	0.029088503
2019-09-24T09:40:00	0.2134	11.302	177.0	0.512229111	0.614895128	0.009103377	0.093917863	0.028946397
2019-09-24T09:45:00	0.2148	11.321	177.1	0.517010432	0.621564758	0.009259294	0.095526434	0.029442175
2019-09-24T09:50:00	0.2136	11.339	177.2	0.512901195	0.615831524	0.009125213	0.094143145	0.029015832
2019-09-24T09:55:00	0.2129	11.355	177.3	0.510499310	0.612486721	0.009047295	0.093339276	0.028768071
2019-09-24T10:00:00	0.2146	11.370	177.4	0.516308571	0.620584549	0.009236324	0.095289451	0.029369134
2019-09-24T10:05:00	0.2123	11.379	189.7	0.508377570	0.609535916	0.008978743	0.092632034	0.028550093
2019-09-24T10:10:00	0.2103	11.385	189.7	0.501458132	0.599937946	0.008756988	0.090344232	0.027844970
2019-09-24T10:15:00	0.2126	11.394	189.8	0.509283673	0.610795633	0.009007987	0.092933738	0.028643081
2019-09-24T10:20:00	0.2101	11.403	189.8	0.500993048	0.599294209	0.008742182	0.090191483	0.027797891
2019-09-24T10:25:00	0.2087	11.419	189.8	0.496122126	0.592562672	0.008587867	0.088599444	0.027307209
2019-09-24T10:30:00	0.2099	11.438	189.9	0.500184511	0.598175504	0.008716472	0.089926239	0.027716140
2019-09-24T10:35:00	0.2119	11.459	190.0	0.506984951	0.607601109	0.008933890	0.092169291	0.028407471
2019-09-24T10:40:00	0.2117	11.472	190.0	0.506238634	0.606564872	0.008909898	0.091921780	0.028331185
2019-09-24T10:45:00	0.2111	11.483	177.8	0.504463380	0.604101795	0.008852961	0.091334362	0.028150138
2019-09-24T10:50:00	0.2126	11.490	177.8	0.509543414	0.611156860	0.009016378	0.093020313	0.028669764
2019-09-24T10:55:00	0.2113	11.496	177.8	0.505027619	0.604884373	0.008871038	0.091520861	0.028207618
2019-09-24T11:00:00	0.2101	11.498	177.9	0.500849205	0.599095148	0.008737606	0.090144266	0.027783338
2019-09-24T11:05:00	0.2086	11.505	177.9	0.495634230	0.591889457	0.008572486	0.088440756	0.027258300
2019-09-24T11:10:00	0.2104	11.524	178.0	0.501757306	0.600352134	0.008766519	0.090442559	0.027875275
2019-09-24T11:15:00	0.2083	11.549	178.0	0.494824420	0.590772479	0.008546986	0.088177676	0.027177216
2019-09-24T11:20:00	0.2071	11.579	178.1	0.490633473	0.585000264	0.008415621	0.086822407	0.026759509
2019-09-24T11:25:00	0.2079	11.597	190.5	0.493326292	0.588707481	0.008499911	0.087692013	0.027027530
2019-09-24T11:30:00	0.2069	11.609	190.6	0.489822473	0.583884894	0.008390317	0.086561350	0.026679049
2019-09-24T11:35:00	0.2070	11.618	178.3	0.490105818	0.584274520	0.008399153	0.086652514	0.026707146
2019-09-24T11:40:00	0.2072	11.627	190.7	0.490733518	0.585137893	0.008418745	0.086854638	0.026769443
2019-09-24T11:45:00	0.2086	11.631	190.7	0.495834023	0.592165116	0.008578783	0.088505722	0.027278323
2019-09-24T11:50:00	0.2084	11.637	190.7	0.495085263	0.591132204	0.008555195	0.088262373	0.027203320
2019-09-24T11:55:00	0.2089	11.647	190.7	0.496743461	0.593420286	0.008607476	0.088801740	0.027369559
2019-09-24T12:00:00	0.2087	11.657	190.8	0.495994901	0.592387105	0.008583855	0.088558051	0.027294451
2019-09-24T12:05:00	0.2064	11.666	190.8	0.488016512	0.581403046	0.008334105	0.085981423	0.026500309
2019-09-24T12:10:00	0.2050	11.668	190.8	0.483472075	0.575169381	0.008193485	0.084530674	0.026053175
2019-09-24T12:15:00	0.2056	11.674	190.9	0.485480857	0.577922818	0.008255497	0.085170441	0.026250357
2019-09-24T12:20:00	0.2067	11.686	190.9	0.489211462	0.583044918	0.008371277	0.086364927	0.026618509
2019-09-24T12:25:00	0.2070	11.698	191.0	0.490183760	0.584381709	0.008401585	0.086677599	0.026714878
2019-09-24T12:30:00	0.2071	11.710	191.1	0.490467076	0.584771375	0.008410426	0.086768813	0.026742991
2019-09-24T12:35:00	0.2045	11.723	191.1	0.481439928	0.572387195	0.008130987	0.083885898	0.025854448
2019-09-24T12:40:00	0.2060	11.734	178.8	0.486899159	0.579868828	0.008299420	0.085623588	0.026390022
2019-09-24T12:45:00	0.2060	11.745	191.2	0.486838011	0.579784894	0.008297524	0.085604027	0.026383992
2019-09-24T12:50:00	0.2062	11.758	191.2	0.487466314	0.580647454	0.008317017	0.085805128	0.026445974
2019-09-24T12:55:00	0.2057	11.767	178.9	0.485681248	0.578197671	0.008261696	0.085234393	0.026270068
2019-09-24T13:00:00	0.2049	11.780	191.3	0.482859920	0.574330940	0.008174634	0.084336187	0.025993232
2019-09-24T13:05:00	0.2057	11.792	179.0	0.485558905	0.578029864	0.008257911	0.085195346	0.026258033
2019-09-24T13:10:00	0.2066	11.804	191.4	0.488944900	0.582678561	0.008362978	0.086279304	0.026592119
2019-09-24T13:15:00	0.2060	11.818	191.4	0.486815870	0.579754505	0.008296838	0.085596945	0.026381810
2019-09-24T13:20:00	0.2051	11.831	179.1	0.483650424	0.575413713	0.008198981	0.084587379	0.026070652
2019-09-24T13:25:00	0.2040	11.836	179.2	0.479791145	0.570132292	0.008080454	0.083364555	0.025693766
2019-09-24T13:30:00	0.2027	11.842	179.2	0.475235659	0.563913396	0.007941644	0.081932474	0.025252384
2019-09-24T13:35:00	0.2021	11.848	191.6	0.473444135	0.561472234	0.007887380	0.081372643	0.025079839
2019-09-24T13:40:00	0.2015	11.856	179.3	0.471305338	0.558561216	0.007822838	0.080706775	0.024874612
2019-09-24T13:45:00	0.2008	11.868	191.7	0.468818607	0.555181211	0.007748125	0.079935979	0.024637045
2019-09-24T13:50:00	0.2008	11.884	179.4	0.468757131	0.555097714	0.007746283	0.079916970	0.024631186
2019-09-24T13:55:00	0.2011	11.895	191.8	0.469735319	0.556426649	0.007775626	0.080219702	0.024724491
2019-09-24T14:00:00	0.2006	11.901	179.5	0.467940874	0.553989355	0.007721839	0.079664785	0.024553460
2019-09-24T14:05:00	0.1989	11.908	179.5	0.462327734	0.546381831	0.007554775	0.077941219	0.024022241
2019-09-24T14:10:00	0.2010	11.911	179.5	0.469550936	0.556176095	0.007770091	0.080162596	0.024706891
2019-09-24T14:15:00	0.2015	11.916	191.9	0.471221664	0.558447405	0.007820318	0.080680780	0.024866600
2019-09-24T14:20:00	0.2005	11.920	179.5	0.467694898	0.553655458	0.007714480	0.079588866	0.024530062
2019-09-24T14:25:00	0.1999	11.921	179.5	0.465552453	0.550749260	0.007650532	0.078929130	0.024326724
2019-09-24T14:30:00	0.2005	11.924	192.0	0.467918609	0.553959130	0.007721172	0.079657911	0.024551342
2019-09-24T14:35:00	0.2018	11.927	179.6	0.472361141	0.559997766	0.007854666	0.081035139	0.024975817
2019-09-24T14:40:00	0.2001	11.927	179.6	0.466408534	0.551910086	0.007676053	0.079192424	0.024407874
2019-09-24T14:45:00	0.2004	11.928	179.6	0.467387403	0.553238122	0.007705286	0.079494011	0.024500826
2019-09-24T14:50:00	0.1989	11.926	179.7	0.462120643	0.546101638	0.007548646	0.077877985	0.024002751
2019-09-24T14:55:00	0.2012	11.924	179.7	0.470037302	0.556837067	0.007784696	0.080313274	0.024753331
2019-09-24T15:00:00	0.1997	11.923	179.7	0.465121678	0.550165360	0.007637706	0.078796805	0.024285941
2019-09-24T15:05:00	0.2002	11.920	179.7	0.466794600	0.552433773	0.007687576	0.079311303	0.024444514
2019-09-24T15:10:00	0.2011	11.920	192.0	0.469852936	0.556586492	0.007779158	0.080256141	0.024735722
2019-09-24T15:15:00	0.2018	11.921	179.7	0.472216080	0.559800341	0.007850289	0.080989985	0.024961900
2019-09-24T15:20:00	0.2033	11.921	179.7	0.477344483	0.566790190	0.008005754	0.082593888	0.025456238
2019-09-24T15:25:00	0.2016	11.922	179.7	0.471400659	0.558690876	0.007825709	0.080736394	0.024883741
2019-09-24T15:30:00	0.2037	11.924	179.7	0.478950073	0.568982863	0.008054736	0.083099229	0.025611989
2019-09-24T15:35:00	0.2039	11.923	179.7	0.479579840	0.569843465	0.008073989	0.083297857	0.025673209
2019-09-24T15:40:00	0.2025	11.923	179.7	0.474678092	0.563153372	0.007924736	0.081758038	0.025198621
2019-09-24T15:45:00	0.2024	11.922	179.7	0.474270703	0.562598213	0.007912393	0.081630701	0.025159375
2019-09-24T15:50:00	0.2032	11.921	179.7	0.476976538	0.566287996	0.007994550	0.082478296	0.025420612
2019-09-24T15:55:00	0.2022	11.920	179.8	0.473801881	0.561959501	0.007898201	0.081484283	0.025114247
2019-09-24T16:00:00	0.2019	11.918	179.8	0.472702062	0.560461821	0.007864957	0.081141309	0.025008540
2019-09-24T16:05:00	0.2020	11.916	179.8	0.472793894	0.560586836	0.007867730	0.081169919	0.025017357
2019-09-24T16:10:00	0.2010	11.913	192.2	0.469422161	0.556001121	0.007766226	0.080122724	0.024694602
2019-09-24T16:15:00	0.2003	11.909	179.8	0.467087539	0.552831214	0.007696325	0.079401564	0.024472333
2019-09-24T16:20:00	0.2030	11.905	179.7	0.476529202	0.565677588	0.007980938	0.082337871	0.025377331
2019-09-24T16:25:00	0.2016	11.903	192.1	0.471430001	0.558730789	0.007826593	0.080745512	0.024886551
2019-09-24T16:30:00	0.2028	11.900	179.7	0.475675135	0.564512624	0.007954983	0.082070095	0.025294800
2019-09-24T16:35:00	0.2022	11.898	179.7	0.473690947	0.561808393	0.007894845	0.081449657	0.025103575
2019-09-24T16:40:00	0.2033	11.895	179.7	0.477587565	0.567122022	0.008013160	0.082670297	0.025479788
2019-09-24T16:45:00	0.2065	11.892	179.7	0.488378694	0.581900567	0.008345363	0.086097571	0.026536108
2019-09-24T16:50:00	0.2029	11.888	179.7	0.476042125	0.565013134	0.007966131	0.082185105	0.025330247
2019-09-24T16:55:00	0.2048	11.884	179.6	0.482698576	0.574110004	0.008169669	0.084284964	0.025977444
2019-09-24T17:00:00	0.2048	11.881	179.7	0.482790137	0.574235381	0.008172486	0.084314031	0.025986403
2019-09-24T17:05:00	0.2061	11.877	179.6	0.487021063	0.580036163	0.008303201	0.085662592	0.026402043
2019-09-24T17:10:00	0.2061	11.874	179.6	0.487112508	0.580161696	0.008306037	0.085691856	0.026411062
2019-09-24T17:15:00	0.2049	11.871	179.6	0.483064805	0.574611528	0.008180941	0.084401256	0.026013287
2019-09-24T17:20:00	0.2063	11.866	179.6	0.487640081	0.580886064	0.008322412	0.085860787	0.026463128
2019-09-24T17:25:00	0.2064	11.860	179.6	0.488076156	0.581484971	0.008335958	0.086000545	0.026506203
2019-09-24T17:30:00	0.2064	11.854	179.6	0.488167572	0.581610542	0.008338799	0.086029857	0.026515237
2019-09-24T17:35:00	0.2079	11.848	179.6	0.493424231	0.588842424	0.008502984	0.087723723	0.027037303
2019-09-24T17:40:00	0.2078	11.840	192.0	0.492827276	0.588020044	0.008484259	0.087530538	0.026977762
2019-09-24T17:45:00	0.2052	11.833	191.9	0.483959141	0.575836705	0.008208500	0.084685578	0.026100917
2019-09-24T17:50:00	0.2065	11.825	179.4	0.488533212	0.582112857	0.008350168	0.086147147	0.026551387
2019-09-24T17:55:00	0.2076	11.817	179.4	0.492412822	0.587449251	0.008471271	0.087396539	0.026936462
2019-09-24T18:00:00	0.2056	11.809	179.3	0.485268617	0.577631749	0.008248934	0.085102733	0.026229489
2019-09-24T18:05:00	0.2055	11.801	179.3	0.485015186	0.577284235	0.008241101	0.085021919	0.026204581
2019-09-24T18:10:00	0.2065	11.792	191.5	0.488554248	0.582141760	0.008350823	0.086153897	0.026553468
2019-09-24T18:15:00	0.2074	11.784	191.5	0.491745388	0.586530338	0.008450375	0.087180962	0.026870019
2019-09-24T18:20:00	0.2063	11.774	191.5	0.487703206	0.580972751	0.008324372	0.085881011	0.026469362
2019-09-24T18:25:00	0.2065	11.764	191.5	0.488483880	0.582045077	0.008348634	0.086131317	0.026546509
2019-09-24T18:30:00	0.2049	11.755	191.4	0.483057534	0.574601570	0.008180717	0.084398947	0.026012575
2019-09-24T18:35:00	0.2045	11.745	191.4	0.481422993	0.572364024	0.008130468	0.083880535	0.025852796
2019-09-24T18:40:00	0.2084	11.734	191.3	0.494954533	0.590951908	0.008551080	0.088219919	0.027190236
2019-09-24T18:45:00	0.2074	11.725	191.3	0.491604781	0.586336798	0.008445976	0.087135580	0.026856032
2019-09-24T18:50:00	0.2072	11.714	191.2	0.491007506	0.585514849	0.008427304	0.086942938	0.026796658
2019-09-24T18:55:00	0.2071	11.705	191.2	0.490410126	0.584693042	0.008408648	0.086750474	0.026737339
2019-09-24T19:00:00	0.2077	11.696	191.2	0.492567157	0.587661787	0.008476106	0.087446426	0.026951838
2019-09-24T19:05:00	0.2084	11.687	191.1	0.495066760	0.591106685	0.008554613	0.088256363	0.027201468
2019-09-24T19:10:00	0.2087	11.679	191.1	0.496189572	0.592655751	0.008589995	0.088621393	0.027313974
2019-09-24T19:15:00	0.2107	11.669	191.0	0.502806717	0.601805546	0.008799991	0.090787881	0.027981707
2019-09-24T19:20:00	0.2087	11.661	191.0	0.496028158	0.592432997	0.008584904	0.088568870	0.027297786
2019-09-24T19:25:00	0.2074	11.654	191.0	0.491646815	0.586394655	0.008447291	0.087149146	0.026860213
2019-09-24T19:30:00	0.2078	11.647	190.9	0.493114892	0.588416236	0.008493279	0.087623589	0.027006441
2019-09-24T19:35:00	0.2057	11.640	190.9	0.485627304	0.578123679	0.008260027	0.085217175	0.026264761
2019-09-24T19:40:00	0.2077	11.633	190.9	0.492609179	0.587719660	0.008477423	0.087460012	0.026956025
2019-09-24T19:45:00	0.2057	11.627	190.8	0.485810265	0.578374646	0.008265688	0.085275580	0.026282762
2019-09-24T19:50:00	0.2060	11.620	190.8	0.486591374	0.579446388	0.008289879	0.085525150	0.026359682
2019-09-24T19:55:00	0.2066	11.614	178.4	0.488750829	0.582411869	0.008356938	0.086216992	0.026572914
2019-09-24T20:00:00	0.2069	11.608	178.4	0.489875726	0.583958118	0.008391977	0.086578480	0.026684328
2019-09-24T20:05:00	0.2068	11.603	178.4	0.489622638	0.583610142	0.008384087	0.086497085	0.026659241
2019-09-24T20:10:00	0.2062	11.597	178.4	0.487301909	0.580421722	0.008311914	0.085752484	0.026429749
2019-09-24T20:15:00	0.2065	11.591	190.7	0.488427287	0.581967326	0.008346874	0.086113160	0.026540912
2019-09-24T20:20:00	0.2078	11.585	178.3	0.492995351	0.588251559	0.008489529	0.087584909	0.026994519
2019-09-24T20:25:00	0.2082	11.581	178.3	0.494462846	0.590273925	0.008535612	0.088060339	0.027141052
2019-09-24T20:30:00	0.2071	11.576	178.3	0.490423895	0.584711981	0.008409078	0.086754908	0.026738705
2019-09-24T20:35:00	0.2059	11.571	178.3	0.486380141	0.579156511	0.008283333	0.085457624	0.026338870
2019-09-24T20:40:00	0.2074	11.566	178.2	0.491639562	0.586384672	0.008447064	0.087146805	0.026859492
2019-09-24T20:45:00	0.2076	11.561	178.2	0.492419332	0.587458216	0.008471475	0.087398643	0.026937111
2019-09-24T20:50:00	0.2078	11.556	178.2	0.492854795	0.588057949	0.008485122	0.087539439	0.026980505
2019-09-24T20:55:00	0.2085	11.552	190.4	0.495354188	0.591503133	0.008563663	0.088349736	0.027230247
2019-09-24T21:00:00	0.2081	11.547	178.1	0.494069594	0.589731812	0.008523251	0.087932810	0.027101746
2019-09-24T21:05:00	0.2061	11.541	178.1	0.487273603	0.580382859	0.008311036	0.085743422	0.026426955
2019-09-24T21:10:00	0.2069	11.537	178.1	0.489777099	0.583822508	0.008388902	0.086546756	0.026674551
2019-09-24T21:15:00	0.2057	11.531	178.1	0.485732574	0.578268074	0.008263284	0.085250777	0.026275118
2019-09-24T21:20:00	0.2047	11.526	178.0	0.482373713	0.573665219	0.008159676	0.084181874	0.025945671
2019-09-24T21:25:00	0.2055	11.522	178.0	0.484880824	0.577100016	0.008236949	0.084979089	0.026191381
2019-09-24T21:30:00	0.2051	11.517	178.0	0.483592265	0.575334035	0.008197189	0.084568886	0.026064952
2019-09-24T21:35:00	0.2064	11.512	178.0	0.488166831	0.581609523	0.008338776	0.086029619	0.026515164
2019-09-24T21:40:00	0.2054	11.507	190.2	0.484810379	0.577003436	0.008234773	0.084956638	0.026184461
2019-09-24T21:45:00	0.2054	11.500	190.2	0.484556914	0.576655968	0.008226946	0.084875882	0.026159571
2019-09-24T21:50:00	0.2063	11.494	190.1	0.487751808	0.581039496	0.008325881	0.085896584	0.026474161
2019-09-24T21:55:00	0.2071	11.490	190.1	0.490599344	0.584953316	0.008414555	0.086811414	0.026756121
2019-09-24T22:00:00	0.2069	11.484	190.1	0.490001893	0.584131605	0.008395911	0.086619071	0.026696839
2019-09-24T22:05:00	0.2068	11.479	190.1	0.489599424	0.583578227	0.008383364	0.086489620	0.026656941
2019-09-24T22:10:00	0.2068	11.473	190.0	0.489541406	0.583498465	0.008381556	0.086470967	0.026651192
2019-09-24T22:15:00	0.2062	11.467	177.7	0.487415834	0.580578141	0.008315450	0.085788962	0.026440991
2019-09-24T22:20:00	0.2064	11.460	190.0	0.488047115	0.581445081	0.008335056	0.085991234	0.026503333
2019-09-24T22:25:00	0.2067	11.455	189.9	0.489022830	0.582785660	0.008365404	0.086304331	0.026599833
2019-09-24T22:30:00	0.2058	11.451	189.9	0.486207364	0.578919436	0.008277982	0.085402411	0.026321852
2019-09-24T22:35:00	0.2063	11.446	177.6	0.487872979	0.581205908	0.008329645	0.085935414	0.026486129
2019-09-24T22:40:00	0.2057	11.441	189.8	0.485746363	0.578286988	0.008263711	0.085255179	0.026276474
2019-09-24T22:45:00	0.2044	11.435	189.8	0.481201972	0.572061630	0.008123685	0.083810558	0.025831228
2019-09-24T22:50:00	0.2069	11.432	177.6	0.489766214	0.583807542	0.008388563	0.086543256	0.026673472
2019-09-24T22:55:00	0.2054	11.427	189.8	0.484537298	0.576629080	0.008226340	0.084869634	0.026157645
2019-09-24T23:00:00	0.2062	11.423	189.7	0.487582732	0.580807312	0.008320631	0.085842416	0.026457466
2019-09-24T23:05:00	0.2065	11.419	189.8	0.488558581	0.582147712	0.008350957	0.086155288	0.026553896
2019-09-24T23:10:00	0.2060	11.414	177.5	0.486777173	0.579701391	0.008295638	0.085584567	0.026377995
2019-09-24T23:15:00	0.2055	11.411	177.5	0.484994831	0.577256326	0.008240472	0.085015429	0.026202581
2019-09-24T23:20:00	0.2049	11.408	189.7	0.482866410	0.574339827	0.008174833	0.084338248	0.025993867
2019-09-24T23:25:00	0.2046	11.405	177.4	0.481772622	0.572842458	0.008141203	0.083991291	0.025886932
2019-09-24T23:30:00	0.2050	11.401	177.4	0.483440415	0.575126010	0.008192509	0.084520610	0.026050073
2019-09-24T23:35:00	0.2051	11.398	177.4	0.483727381	0.575519150	0.008201354	0.084611853	0.026078195
2019-09-24T23:40:00	0.2045	11.395	177.4	0.481598164	0.572603716	0.008135845	0.083936017	0.025869896
2019-09-24T23:45:00	0.2050	11.392	177.3	0.483266042	0.574887154	0.008187138	0.084465191	0.026032992
2019-09-24T23:50:00	0.2035	11.387	177.3	0.478027088	0.567722138	0.008026560	0.082808544	0.025522397
2019-09-24T23:55:00	0.2050	11.382	177.3	0.483149789	0.574727923	0.008183557	0.084428254	0.026021608
2019-09-25T00:00:00	0.2059	11.377	177.3	0.486541271	0.579377628	0.008288326	0.085509131	0.026354745
2019-09-25T00:05:00	0.2066	11.372	177.3	0.488895886	0.582611202	0.008361453	0.086263564	0.026587268
2019-09-25T00:10:00	0.2066	11.369	177.3	0.488837856	0.582531457	0.008359646	0.086244932	0.026581525
2019-09-25T00:15:00	0.2053	11.365	177.2	0.484297606	0.576300546	0.008218941	0.084793304	0.026134120
2019-09-25T00:20:00	0.2047	11.360	177.2	0.482168747	0.573384634	0.008153375	0.084116863	0.025925634
2019-09-25T00:25:00	0.2039	11.355	177.2	0.479347585	0.569526042	0.008066886	0.083224577	0.025650623
2019-09-25T00:30:00	0.2041	11.349	177.2	0.480325805	0.570863265	0.008096824	0.083533438	0.025745817
2019-09-25T00:35:00	0.2053	11.343	177.1	0.484410186	0.576454848	0.008222416	0.084829151	0.026145168
2019-09-25T00:40:00	0.2058	11.337	177.1	0.486076683	0.578740136	0.008273935	0.085360662	0.026308985
2019-09-25T00:45:00	0.2054	11.331	177.1	0.484638969	0.576768449	0.008229479	0.084902021	0.026167627
2019-09-25T00:50:00	0.2041	11.324	177.0	0.480093093	0.570545079	0.008089697	0.083459910	0.025723155
2019-09-25T00:55:00	0.2040	11.317	177.0	0.479689447	0.569993278	0.008077342	0.083332451	0.025683871
2019-09-25T01:00:00	0.2041	11.310	177.0	0.480322167	0.570858290	0.008096712	0.083532288	0.025745462
2019-09-25T01:05:00	0.2040	11.304	176.9	0.479918548	0.570306453	0.008084353	0.083404783	0.025706164
2019-09-25T01:10:00	0.2018	11.297	176.9	0.472251571	0.559848642	0.007851360	0.081001031	0.024965305
2019-09-25T01:15:00	0.2036	11.291	176.9	0.478420011	0.568258756	0.008038549	0.082932229	0.025560519
2019-09-25T01:20:00	0.2047	11.285	176.8	0.482161475	0.573374678	0.008153151	0.084114556	0.025924923
2019-09-25T01:25:00	0.2050	11.280	176.8	0.483483997	0.575185712	0.008193852	0.084534464	0.026054343
2019-09-25T01:30:00	0.2045	11.273	176.8	0.481699923	0.572742967	0.008138970	0.083968255	0.025879832
2019-09-25T01:35:00	0.2054	11.268	176.8	0.484747904	0.576917785	0.008232844	0.084936729	0.026178325
2019-09-25T01:40:00	0.2028	11.261	176.7	0.475708592	0.564558249	0.007955999	0.082080577	0.025298031
2019-09-25T01:45:00	0.2044	11.255	176.7	0.481180147	0.572031771	0.008123015	0.083803649	0.025829099
2019-09-25T01:50:00	0.2056	11.250	176.7	0.485263500	0.577624731	0.008248776	0.085101100	0.026228986
2019-09-25T01:55:00	0.2056	11.244	176.6	0.485550312	0.578018077	0.008257645	0.085192604	0.026257188
2019-09-25T02:00:00	0.2031	11.237	176.6	0.476858933	0.566127504	0.007990970	0.082441366	0.025409230
2019-09-25T02:05:00	0.2046	11.233	176.6	0.481983400	0.573130932	0.008147678	0.084058096	0.025907521
2019-09-25T02:10:00	0.2041	11.228	176.6	0.480198535	0.570689244	0.008092926	0.083493222	0.025733422
2019-09-25T02:15:00	0.2055	11.223	176.6	0.484973030	0.577226435	0.008239798	0.085008480	0.026200439
2019-09-25T02:20:00	0.2052	11.219	176.5	0.483879922	0.575728156	0.008206057	0.084660374	0.026093149
2019-09-25T02:25:00	0.2053	11.214	176.5	0.484511861	0.576594212	0.008225555	0.084861532	0.026155148
2019-09-25T02:30:00	0.2044	11.209	176.5	0.481347352	0.572260530	0.008128146	0.083856583	0.025845413
2019-09-25T02:35:00	0.2031	11.205	176.5	0.476797055	0.566043064	0.007989087	0.082421939	0.025403242
2019-09-25T02:40:00	0.2042	11.201	176.4	0.480540311	0.571156595	0.008103396	0.083601241	0.025766714
2019-09-25T02:45:00	0.2052	11.197	176.4	0.483934402	0.575802807	0.008207737	0.084677707	0.026098492
2019-09-25T02:50:00	0.2049	11.194	176.4	0.482840959	0.574304976	0.008174050	0.084330167	0.025991376
2019-09-25T02:55:00	0.2030	11.190	176.4	0.476564100	0.565725202	0.007982000	0.082348821	0.025380706
2019-09-25T03:00:00	0.2054	11.186	176.4	0.484795102	0.576982492	0.008234301	0.084951770	0.026182960
2019-09-25T03:05:00	0.2054	11.182	176.3	0.484737002	0.576902841	0.008232507	0.084933256	0.026177254
2019-09-25T03:10:00	0.2048	11.179	176.3	0.482608420	0.573986559	0.008166895	0.084256348	0.025968625
2019-09-25T03:15:00	0.2046	11.176	176.3	0.481859829	0.572961806	0.008143882	0.084018927	0.025895449
2019-09-25T03:20:00	0.2053	11.173	176.3	0.484217692	0.576191022	0.008216475	0.084767863	0.026126279
2019-09-25T03:25:00	0.2042	11.171	176.3	0.480707547	0.571385312	0.008108522	0.083654122	0.025783013
2019-09-25T03:30:00	0.2030	11.167	176.3	0.476502216	0.565640769	0.007980118	0.082329403	0.025374722
2019-09-25T03:35:00	0.2037	11.165	176.3	0.478863810	0.568865005	0.008052101	0.083072040	0.025603609
2019-09-25T03:40:00	0.2027	11.163	176.3	0.475348110	0.564066708	0.007945056	0.081967677	0.025263234
2019-09-25T03:45:00	0.2037	11.160	176.3	0.478747405	0.568705976	0.008048545	0.083035357	0.025592304
2019-09-25T03:50:00	0.2058	11.157	176.2	0.485938731	0.578550877	0.008269664	0.085316601	0.026295405
2019-09-25T03:55:00	0.2030	11.155	176.2	0.476556815	0.565715262	0.007981778	0.082346535	0.025380002
2019-09-25T04:00:00	0.2051	11.153	176.1	0.483752785	0.575553956	0.008202137	0.084619933	0.026080685
2019-09-25T04:05:00	0.2024	11.152	176.2	0.474419987	0.562801630	0.007916915	0.081677351	0.025173753
2019-09-25T04:10:00	0.2034	11.149	176.3	0.477875341	0.567514927	0.008021933	0.082760800	0.025507682
2019-09-25T04:15:00	0.2033	11.147	176.8	0.477526561	0.567038741	0.008011301	0.082651118	0.025473877
2019-09-25T04:20:00	0.2024	11.146	176.8	0.474410698	0.562788973	0.007916633	0.081674448	0.025172858
2019-09-25T04:25:00	0.2024	11.144	176.5	0.474407602	0.562784754	0.007916540	0.081673480	0.025172560
2019-09-25T04:30:00	0.2044	11.142	176.1	0.481317901	0.572220236	0.008127242	0.083847258	0.025842539
2019-09-25T04:35:00	0.2020	11.139	176.2	0.473017033	0.560890634	0.007874470	0.081239458	0.025038790
2019-09-25T04:40:00	0.2028	11.137	190.5	0.475782126	0.564658529	0.007958232	0.082103616	0.025305132
2019-09-25T04:45:00	0.2039	11.136	176.2	0.479581601	0.569845871	0.008074043	0.083298413	0.025673380
2019-09-25T04:50:00	0.2024	11.133	190.6	0.474392121	0.562763659	0.007916071	0.081668642	0.025171069
2019-09-25T04:55:00	0.2020	11.132	190.2	0.473004643	0.560873765	0.007874096	0.081235597	0.025037600
2019-09-25T05:00:00	0.2029	11.130	176.0	0.476115612	0.565113370	0.007968364	0.082208144	0.025337348
2019-09-25T05:05:00	0.2021	11.128	176.0	0.473344597	0.561336678	0.007884370	0.081341595	0.025070269
2019-09-25T05:10:00	0.2003	11.127	176.0	0.467105370	0.552855409	0.007696857	0.079407060	0.024474027
2019-09-25T05:15:00	0.2013	11.127	176.0	0.470568209	0.557558787	0.007800654	0.080477912	0.024804074
2019-09-25T05:20:00	0.2002	11.125	176.0	0.466752374	0.552376489	0.007686315	0.079298296	0.024440505
2019-09-25T05:25:00	0.2019	11.126	176.0	0.472639872	0.560377163	0.007863079	0.081121937	0.025002569
2019-09-25T05:30:00	0.2015	11.127	176.0	0.471251674	0.558488223	0.007821222	0.080690103	0.024869473
2019-09-25T05:35:00	0.2010	11.128	176.0	0.469516398	0.556129164	0.007769054	0.080151901	0.024703594
2019-09-25T05:40:00	0.2012	11.128	175.9	0.470206275	0.557066747	0.007789773	0.080365656	0.024769476
2019-09-25T05:45:00	0.2030	11.129	175.7	0.476433594	0.565547148	0.007978031	0.082307873	0.025368086
2019-09-25T05:50:00	0.2015	11.130	175.8	0.471239278	0.558471362	0.007820848	0.080686252	0.024868286
2019-09-25T05:55:00	0.2019	11.131	175.9	0.472621286	0.560351861	0.007862518	0.081116147	0.025000784
2019-09-25T06:00:00	0.2019	11.133	175.9	0.472618188	0.560347645	0.007862424	0.081115183	0.025000487
2019-09-25T06:05:00	0.2024	11.135	175.9	0.474345679	0.562700374	0.007914664	0.081654129	0.025166595
2019-09-25T06:10:00	0.2015	11.137	176.0	0.471226881	0.558454502	0.007820475	0.080682401	0.024867100
2019-09-25T06:15:00	0.2019	11.139	175.9	0.472608895	0.560334994	0.007862144	0.081112288	0.024999595
2019-09-25T06:20:00	0.2018	11.143	176.0	0.472259572	0.559859530	0.007851601	0.081003522	0.024966072
2019-09-25T06:25:00	0.2001	11.147	176.0	0.466365202	0.551851315	0.007674760	0.079179086	0.024403763
2019-09-25T06:30:00	0.2007	11.150	176.0	0.468442548	0.554670493	0.007736857	0.079819732	0.024601217
2019-09-25T06:35:00	0.2003	11.155	176.0	0.467052622	0.552783837	0.007695282	0.079390802	0.024469016
2019-09-25T06:40:00	0.2001	11.161	176.0	0.466355892	0.551838688	0.007674482	0.079176221	0.024402880
2019-09-25T06:45:00	0.2014	11.167	176.0	0.470858819	0.557953939	0.007809396	0.080568102	0.024831872
2019-09-25T06:50:00	0.2008	11.173	176.1	0.468776759	0.555124373	0.007746871	0.079923039	0.024633057
2019-09-25T06:55:00	0.2027	11.177	176.1	0.475352654	0.564072905	0.007945194	0.081969100	0.025263673
2019-09-25T07:00:00	0.2024	11.183	176.1	0.474311621	0.562653966	0.007913632	0.081643486	0.025163315
2019-09-25T07:05:00	0.2018	11.187	176.1	0.472231689	0.559821583	0.007850760	0.080994843	0.024963397
2019-09-25T07:10:00	0.2027	11.189	176.1	0.475343369	0.564060244	0.007944912	0.081966193	0.025262777
2019-09-25T07:15:00	0.2012	11.194	176.2	0.470147375	0.556986683	0.007788003	0.080347395	0.024763847
2019-09-25T07:20:00	0.2012	11.200	176.2	0.470144275	0.556982469	0.007787910	0.080346434	0.024763551
2019-09-25T07:25:00	0.2011	11.206	176.2	0.469794697	0.556507343	0.007777409	0.080238097	0.024730161
2019-09-25T07:30:00	0.2023	11.212	176.2	0.473946991	0.562157177	0.007902592	0.081529589	0.025128211
2019-09-25T07:35:00	0.2035	11.219	176.3	0.478094190	0.567813771	0.008028607	0.082829660	0.025528906
2019-09-25T07:40:00	0.2027	11.226	176.3	0.475324797	0.564034923	0.007944348	0.081960378	0.025260985
2019-09-25T07:45:00	0.2029	11.234	176.3	0.476013489	0.564974076	0.007965261	0.082176128	0.025327481
2019-09-25T07:50:00	0.2022	11.240	176.3	0.473588516	0.561668875	0.007891746	0.081417690	0.025093723
2019-09-25T07:55:00	0.2031	11.248	176.3	0.476698948	0.565909194	0.007986102	0.082391142	0.025393750
2019-09-25T08:00:00	0.2039	11.255	176.4	0.479461034	0.569681087	0.008070355	0.083260368	0.025661654
2019-09-25T08:05:00	0.2053	11.264	176.4	0.484291588	0.576292298	0.008218756	0.084791388	0.026133529
2019-09-25T08:10:00	0.2035	11.274	176.4	0.478072541	0.567784206	0.008027947	0.082822847	0.025526806
2019-09-25T08:15:00	0.2038	11.284	176.5	0.479106235	0.569196234	0.008059508	0.083148460	0.025627163
2019-09-25T08:20:00	0.2035	11.300	176.5	0.478066355	0.567775760	0.008027758	0.082820900	0.025526206
2019-09-25T08:25:00	0.2039	11.319	176.6	0.479445577	0.569659961	0.008069883	0.083255491	0.025660151
2019-09-25T08:30:00	0.2029	11.337	176.6	0.475985637	0.564936088	0.007964415	0.082167397	0.025324790
2019-09-25T08:35:00	0.2023	11.358	176.7	0.473906735	0.562102337	0.007901374	0.081517019	0.025124337
2019-09-25T08:40:00	0.2014	11.377	176.8	0.470787533	0.557857002	0.007807251	0.080545974	0.024825051
2019-09-25T08:45:00	0.2018	11.396	176.9	0.472169725	0.559737256	0.007848891	0.080975558	0.024957454
2019-09-25T08:50:00	0.2018	11.415	176.9	0.472166627	0.559733040	0.007848797	0.080974594	0.024957156
2019-09-25T08:55:00	0.2020	11.435	177.0	0.472855963	0.560671338	0.007869605	0.081189260	0.025023318
2019-09-25T09:00:00	0.2001	11.452	177.2	0.466268992	0.551720831	0.007671890	0.079149477	0.024394638
2019-09-25T09:05:00	0.2021	11.468	177.4	0.473195933	0.561134231	0.007879876	0.081295232	0.025055980
2019-09-25T09:10:00	0.2023	11.486	177.7	0.473885059	0.562072808	0.007900718	0.081510251	0.025122251
2019-09-25T09:15:00	0.2029	11.506	177.9	0.475957785	0.564898099	0.007963568	0.082158667	0.025322099
2019-09-25T09:20:00	0.2022	11.522	178.0	0.473532771	0.561592952	0.007890060	0.081400297	0.025088362
2019-09-25T09:25:00	0.2023	11.549	190.5	0.473875769	0.562060153	0.007900437	0.081507351	0.025121357
2019-09-25T09:30:00	0.2033	11.582	190.5	0.477331679	0.566772712	0.008005364	0.082589864	0.025454998
2019-09-25T09:35:00	0.1998	11.608	190.6	0.465206525	0.550280355	0.007640231	0.078822859	0.024293971
2019-09-25T09:40:00	0.2018	11.631	190.6	0.472135645	0.559690877	0.007847863	0.080964953	0.024954185
2019-09-25T09:45:00	0.2014	11.651	190.7	0.470747239	0.557802212	0.007806039	0.080533467	0.024821197
2019-09-25T09:50:00	0.2015	11.673	178.3	0.471090520	0.558269039	0.007816370	0.080640046	0.024854045
2019-09-25T09:55:00	0.2031	11.695	190.7	0.476624690	0.565807872	0.007983843	0.082367836	0.025386567
2019-09-25T10:00:00	0.2034	11.723	178.4	0.477658826	0.567219310	0.008015332	0.082692703	0.025486694
2019-09-25T10:05:00	0.2024	11.750	178.5	0.474405407	0.562781763	0.007916473	0.081672794	0.025172348
2019-09-25T10:10:00	0.2029	11.773	190.8	0.475994373	0.564948003	0.007964680	0.082170135	0.025325634
2019-09-25T10:15:00	0.2002	11.788	190.8	0.466848924	0.552507472	0.007689198	0.079328037	0.024449672
2019-09-25T10:20:00	0.1993	11.801	190.9	0.463585068	0.548083733	0.007592040	0.078325682	0.024140736
2019-09-25T10:25:00	0.1990	11.813	191.0	0.462402228	0.546482630	0.007556980	0.077963971	0.024029253
2019-09-25T10:30:00	0.1979	11.833	191.0	0.458786445	0.541595138	0.007450300	0.076863376	0.023690039
2019-09-25T10:35:00	0.1992	11.850	191.1	0.463161355	0.547510065	0.007579472	0.078196017	0.024100772
2019-09-25T10:40:00	0.1991	11.866	191.2	0.463020106	0.547318858	0.007575285	0.078152815	0.024087457
2019-09-25T10:45:00	0.1986	11.876	191.2	0.461142367	0.544778489	0.007519725	0.077579614	0.023910790
2019-09-25T10:50:00	0.1987	11.884	191.2	0.461348416	0.545057113	0.007525812	0.077642411	0.023930145
2019-09-25T10:55:00	0.1973	11.903	191.3	0.456688121	0.538763553	0.007388733	0.076228200	0.023494271
2019-09-25T11:00:00	0.1981	11.932	191.4	0.459328340	0.542326964	0.007466241	0.077027831	0.023740726
2019-09-25T11:05:00	0.1963	11.949	191.5	0.453272726	0.534162082	0.007289058	0.075199871	0.023177330
2019-09-25T11:10:00	0.1979	11.958	191.6	0.458697892	0.541475571	0.007447697	0.076836518	0.023681761
2019-09-25T11:15:00	0.1983	11.966	179.2	0.459946782	0.543162451	0.007484454	0.077215729	0.023798638
2019-09-25T11:20:00	0.1973	11.972	179.3	0.456676222	0.538747506	0.007388385	0.076224605	0.023493164
2019-09-25T11:25:00	0.1986	11.978	191.7	0.461053877	0.544658840	0.007517111	0.077552652	0.023902481
2019-09-25T11:30:00	0.1972	11.989	191.3	0.456393173	0.538365814	0.007380099	0.076139125	0.023466818
2019-09-25T11:35:00	0.1949	11.994	191.5	0.448240570	0.527399153	0.007143409	0.073697233	0.022714203
2019-09-25T11:40:00	0.1943	12.003	191.6	0.446354545	0.524869582	0.007089191	0.073137878	0.022541804
2019-09-25T11:45:00	0.1966	12.012	191.7	0.454228496	0.535448838	0.007316885	0.075486950	0.023265811
2019-09-25T11:50:00	0.1956	12.011	179.4	0.450603900	0.530572849	0.007211633	0.074401090	0.022931139
2019-09-25T11:55:00	0.1941	12.011	179.4	0.445579670	0.523831116	0.007066974	0.072908671	0.022471161
2019-09-25T12:00:00	0.1958	12.020	179.4	0.451365697	0.531596797	0.007233692	0.074628670	0.023001281
2019-09-25T12:05:00	0.1965	12.033	179.4	0.454010102	0.535154750	0.007310522	0.075421305	0.023245579
2019-09-25T12:10:00	0.1963	12.041	179.4	0.453172118	0.534026675	0.007286132	0.075169683	0.023168026
2019-09-25T12:15:00	0.1982	12.036	191.8	0.459640232	0.542748279	0.007475423	0.077122564	0.023769923
2019-09-25T12:20:00	0.1976	12.033	191.3	0.457760605	0.540210383	0.007420170	0.076552524	0.023594231
2019-09-25T12:25:00	0.1995	12.031	191.1	0.464219907	0.548943515	0.007610891	0.078520154	0.024200674
2019-09-25T12:30:00	0.2026	12.026	190.9	0.475167129	0.563819969	0.007939565	0.081911025	0.025245773
2019-09-25T12:35:00	0.2033	12.027	190.7	0.477447231	0.566930446	0.008008884	0.082626181	0.025466191
2019-09-25T12:40:00	0.2027	12.025	190.7	0.475231584	0.563907840	0.007941520	0.081931199	0.025251991
2019-09-25T12:45:00	0.2036	12.025	190.8	0.478548601	0.568434399	0.008042475	0.082972727	0.025573000
2019-09-25T12:50:00	0.2012	12.030	191.0	0.470103072	0.556926463	0.007786672	0.080333661	0.024759614
2019-09-25T12:55:00	0.1997	12.034	191.1	0.465107923	0.550146718	0.007637297	0.078792582	0.024284639
2019-09-25T13:00:00	0.2002	12.039	191.2	0.466701270	0.552307162	0.007684789	0.079282556	0.024435654
2019-09-25T13:05:00	0.2025	12.039	191.2	0.474527801	0.562948551	0.007920181	0.081711050	0.025184139
2019-09-25T13:10:00	0.2033	12.036	191.1	0.477499818	0.567002233	0.008010486	0.082642711	0.025471286
2019-09-25T13:15:00	0.2013	12.036	190.9	0.470437668	0.557381307	0.007796729	0.080437415	0.024791592
2019-09-25T13:20:00	0.2027	12.042	191.0	0.475489392	0.564259344	0.007949344	0.082011916	0.025276869
2019-09-25T13:25:00	0.2015	12.050	190.9	0.471194989	0.558411123	0.007819515	0.080672494	0.024864046
2019-09-25T13:30:00	0.2010	12.058	191.2	0.469321799	0.555864761	0.007763215	0.080091656	0.024685026
2019-09-25T13:35:00	0.2011	12.063	191.2	0.469873854	0.556614920	0.007779786	0.080262622	0.024737720
2019-09-25T13:40:00	0.2021	12.069	191.3	0.473196129	0.561134498	0.007879882	0.081295294	0.025055999
2019-09-25T13:45:00	0.1994	12.080	179.0	0.464043086	0.548704008	0.007605638	0.078465964	0.024183972
2019-09-25T13:50:00	0.1988	12.088	191.4	0.461818619	0.545693059	0.007539711	0.077785808	0.023974341
2019-09-25T13:55:00	0.1991	12.087	191.5	0.462719145	0.546911504	0.007566366	0.078060803	0.024059098
2019-09-25T14:00:00	0.1999	12.080	179.1	0.465701573	0.550951421	0.007654975	0.078974961	0.024340850
2019-09-25T14:05:00	0.1999	12.073	191.5	0.465560430	0.550760074	0.007650770	0.078931581	0.024327480
2019-09-25T14:10:00	0.2000	12.068	179.1	0.466113101	0.551509419	0.007667241	0.079101512	0.024379854
2019-09-25T14:15:00	0.2009	12.063	191.5	0.469092528	0.555553288	0.007756338	0.080020706	0.024663159
2019-09-25T14:20:00	0.2000	12.060	191.5	0.466177729	0.551597062	0.007669168	0.079121395	0.024385982
2019-09-25T14:25:00	0.1991	12.058	179.1	0.462913221	0.547174180	0.007572117	0.078120131	0.024077383
2019-09-25T14:30:00	0.1990	12.057	179.1	0.462424726	0.546513073	0.007557646	0.077970843	0.024031371
2019-09-25T14:35:00	0.1985	12.059	191.5	0.460894084	0.544442799	0.007512393	0.077503978	0.023887479
2019-09-25T14:40:00	0.1977	12.062	179.1	0.457972178	0.540495912	0.007426379	0.076616585	0.023613976
2019-09-25T14:45:00	0.2006	12.064	191.5	0.468246434	0.554404199	0.007730985	0.079759142	0.024582542
2019-09-25T14:50:00	0.2008	12.067	191.5	0.468798665	0.555154125	0.007747527	0.079929812	0.024635144
2019-09-25T14:55:00	0.2005	12.068	179.2	0.467617654	0.553550614	0.007712170	0.079565033	0.024522716
2019-09-25T15:00:00	0.2015	12.067	191.5	0.471288509	0.558538325	0.007822331	0.080701547	0.024873000
2019-09-25T15:05:00	0.2003	12.063	191.5	0.466988756	0.552697185	0.007693374	0.079371121	0.024462950
2019-09-25T15:10:00	0.1991	12.062	191.5	0.463030724	0.547333230	0.007575599	0.078156062	0.024088457
2019-09-25T15:15:00	0.2016	12.061	179.1	0.471558464	0.558905544	0.007830463	0.080785440	0.024898857
2019-09-25T15:20:00	0.2012	12.062	191.5	0.470031965	0.556829813	0.007784536	0.080311620	0.024752821
2019-09-25T15:25:00	0.2005	12.061	179.1	0.467811448	0.553813662	0.007717966	0.079624834	0.024541147
2019-09-25T15:30:00	0.1988	12.059	179.1	0.461771098	0.545628779	0.007538306	0.077771310	0.023969873
2019-09-25T15:35:00	0.1995	12.059	179.1	0.464407333	0.549197412	0.007616460	0.078577614	0.024218384
2019-09-25T15:40:00	0.1972	12.059	179.1	0.456274177	0.538205368	0.007376617	0.076103202	0.023455746
2019-09-25T15:45:00	0.1998	12.052	191.4	0.465166008	0.550225440	0.007639025	0.078810417	0.024290136
2019-09-25T15:50:00	0.1976	12.044	191.4	0.457730239	0.540169405	0.007419279	0.076543332	0.023591398
2019-09-25T15:55:00	0.1981	12.036	179.0	0.459327080	0.542325263	0.007466204	0.077027449	0.023740608
2019-09-25T16:00:00	0.1977	12.027	191.3	0.458142742	0.540726123	0.007431387	0.076668248	0.023629899
2019-09-25T16:05:00	0.2001	12.017	191.3	0.466483331	0.552011536	0.007678285	0.079215449	0.024414971
2019-09-25T16:10:00	0.1985	12.007	191.2	0.460935597	0.544498923	0.007513619	0.077516622	0.023891376
2019-09-25T16:15:00	0.1975	11.997	191.1	0.457465948	0.539812787	0.007411526	0.076463351	0.023566747
2019-09-25T16:20:00	0.1975	11.985	191.1	0.457472172	0.539821184	0.007411709	0.076465234	0.023567328
2019-09-25T16:25:00	0.1969	11.972	191.1	0.455391157	0.537015103	0.007350804	0.075836895	0.023373667
2019-09-25T16:30:00	0.1998	11.959	191.0	0.465473706	0.550642510	0.007648187	0.078904932	0.024319266
2019-09-25T16:35:00	0.1997	11.946	190.9	0.465132957	0.550180646	0.007638042	0.078800268	0.024287008
2019-09-25T16:40:00	0.2000	11.931	190.8	0.466179929	0.551600046	0.007669234	0.079122072	0.024386191
2019-09-25T16:45:00	0.1984	11.916	190.8	0.460284238	0.543618466	0.007494401	0.077318351	0.023830267
2019-09-25T16:50:00	0.2000	11.901	190.7	0.465845460	0.551146505	0.007659262	0.079019197	0.024354484
2019-09-25T16:55:00	0.2004	11.885	190.7	0.467238986	0.553036715	0.007700850	0.079448248	0.024486722
2019-09-25T17:00:00	0.2022	11.869	190.5	0.473481064	0.561522528	0.007888496	0.081384164	0.025083390
2019-09-25T17:05:00	0.1998	11.852	190.5	0.465170213	0.550231139	0.007639151	0.078811708	0.024290534
2019-09-25T17:10:00	0.2007	11.835	190.4	0.468297711	0.554473823	0.007732520	0.079774982	0.024587424
2019-09-25T17:15:00	0.2009	11.818	190.4	0.468997141	0.555423714	0.007753477	0.079991197	0.024654064
2019-09-25T17:20:00	0.2004	11.801	190.3	0.467270013	0.553078819	0.007701777	0.079457814	0.024489670
2019-09-25T17:25:00	0.2026	11.784	178.0	0.474896208	0.563450658	0.007931348	0.081826254	0.025219646
2019-09-25T17:30:00	0.2024	11.766	190.2	0.474210384	0.562516026	0.007910566	0.081611856	0.025153566
2019-09-25T17:35:00	0.2019	11.750	177.8	0.472485922	0.560167605	0.007858432	0.081073991	0.024987791
2019-09-25T17:40:00	0.2020	11.734	177.8	0.472838319	0.560647317	0.007869072	0.081183762	0.025021624
2019-09-25T17:45:00	0.2012	11.719	177.7	0.470073915	0.556886832	0.007785796	0.080324623	0.024756829
2019-09-25T17:50:00	0.2022	11.702	189.9	0.473543003	0.561606887	0.007890370	0.081403489	0.025089346
2019-09-25T17:55:00	0.2019	11.685	177.6	0.472510705	0.560201338	0.007859180	0.081081708	0.024990170
2019-09-25T18:00:00	0.2034	11.670	177.6	0.477706163	0.567283938	0.008016775	0.082707589	0.025491282
2019-09-25T18:05:00	0.2041	11.653	189.7	0.480131279	0.570597288	0.008090866	0.083471974	0.025726873
2019-09-25T18:10:00	0.2033	11.635	189.6	0.477372833	0.566828888	0.008006618	0.082602797	0.025458984
2019-09-25T18:15:00	0.2024	11.619	177.4	0.474266118	0.562591965	0.007912254	0.081629268	0.025158933
2019-09-25T18:20:00	0.2024	11.605	177.3	0.474272310	0.562600403	0.007912442	0.081631203	0.025159530
2019-09-25T18:25:00	0.2035	11.590	189.5	0.478082759	0.567798160	0.008028258	0.082826062	0.025527797
2019-09-25T18:30:00	0.2038	11.574	189.4	0.479125725	0.569222866	0.008060104	0.083154606	0.025629057
2019-09-25T18:35:00	0.2043	11.561	177.2	0.480859168	0.571592691	0.008113170	0.083702079	0.025797794
2019-09-25T18:40:00	0.2024	11.549	177.1	0.474297080	0.562634153	0.007913192	0.081638943	0.025161915
2019-09-25T18:45:00	0.2046	11.537	177.1	0.481907459	0.573026994	0.008145345	0.084034024	0.025900102
2019-09-25T18:50:00	0.2048	11.526	177.0	0.482604080	0.573980617	0.008166761	0.084254971	0.025968200
2019-09-25T18:55:00	0.2025	11.514	177.0	0.474661672	0.563130993	0.007924238	0.081752903	0.025197039
2019-09-25T19:00:00	0.2030	11.502	176.9	0.476397402	0.565497773	0.007976930	0.082296519	0.025364587
2019-09-25T19:05:00	0.2012	11.489	176.9	0.470173117	0.557021674	0.007788777	0.080355376	0.024766307
2019-09-25T19:10:00	0.2041	11.478	176.9	0.480211642	0.570707165	0.008093327	0.083497363	0.025734698
2019-09-25T19:15:00	0.2023	11.467	176.8	0.473994380	0.562221736	0.007904027	0.081544387	0.025132772
2019-09-25T19:20:00	0.2032	11.457	176.8	0.477113720	0.566475217	0.007998726	0.082521383	0.025433892
2019-09-25T19:25:00	0.2033	11.446	176.7	0.477465635	0.566955569	0.008009445	0.082631966	0.025467974
2019-09-25T19:30:00	0.2048	11.436	176.7	0.482653498	0.574048281	0.008168282	0.084270655	0.025973034
2019-09-25T19:35:00	0.2030	11.426	176.7	0.476440723	0.565556873	0.007978248	0.082310110	0.025368775
2019-09-25T19:40:00	0.2016	11.416	176.6	0.471602042	0.558964829	0.007831776	0.080798986	0.024903032
2019-09-25T19:45:00	0.2017	11.407	176.6	0.471954532	0.559444419	0.007842401	0.080908602	0.024936817
2019-09-25T19:50:00	0.2035	11.396	176.6	0.478187911	0.567941761	0.008031466	0.082859157	0.025537997
2019-09-25T19:55:00	0.2032	11.387	176.5	0.477157031	0.566534329	0.008000045	0.082534988	0.025438085
2019-09-25T20:00:00	0.2032	11.376	176.5	0.477163218	0.566542774	0.008000233	0.082536932	0.025438684
2019-09-25T20:05:00	0.2027	11.366	176.5	0.475440261	0.564192353	0.007947853	0.081996531	0.025272127
2019-09-25T20:10:00	0.2008	11.355	176.4	0.468867638	0.555247807	0.007749595	0.079951142	0.024641718
2019-09-25T20:15:00	0.2020	11.345	176.4	0.473030363	0.560908785	0.007874873	0.081243614	0.025040071
2019-09-25T20:20:00	0.2023	11.333	176.3	0.474074888	0.562331418	0.007906464	0.081569530	0.025140521
2019-09-25T20:25:00	0.2025	11.322	176.3	0.474773123	0.563282891	0.007927616	0.081787755	0.025207781
2019-09-25T20:30:00	0.2018	11.310	176.2	0.472356553	0.559991522	0.007854527	0.081033711	0.024975377
2019-09-25T20:35:00	0.2027	11.299	176.2	0.475477403	0.564242997	0.007948980	0.082008162	0.025275712
2019-09-25T20:40:00	0.2021	11.286	176.1	0.473407480	0.561422314	0.007886271	0.081361209	0.025076315
2019-09-25T20:45:00	0.2021	11.276	176.1	0.473413674	0.561430750	0.007886459	0.081363141	0.025076910
2019-09-25T20:50:00	0.2013	11.264	176.0	0.470649741	0.557669642	0.007803106	0.080503210	0.024811871
2019-09-25T20:55:00	0.2012	11.250	176.0	0.470309515	0.557207088	0.007792876	0.080397669	0.024779342
2019-09-25T21:00:00	0.2024	11.236	175.9	0.474470465	0.562870417	0.007918444	0.081693128	0.025178615
2019-09-25T21:05:00	0.2018	11.223	175.8	0.472399925	0.560050553	0.007855836	0.081047214	0.024979538
2019-09-25T21:10:00	0.1988	11.210	175.8	0.462003267	0.545942842	0.007545173	0.077842155	0.023991708
2019-09-25T21:15:00	0.2007	11.197	175.7	0.468601668	0.554886578	0.007741624	0.079868909	0.024616373
2019-09-25T21:20:00	0.2010	11.184	175.7	0.469647564	0.556307397	0.007772991	0.080192520	0.024716114
2019-09-25T21:25:00	0.2020	11.171	175.6	0.472770917	0.560555556	0.007867036	0.081162760	0.025015151
2019-09-25T21:30:00	0.1997	11.158	175.5	0.464805341	0.549736669	0.007628294	0.078699703	0.024256013
2019-09-25T21:35:00	0.2029	11.145	175.5	0.475897575	0.564815980	0.007961739	0.082139795	0.025316283
2019-09-25T21:40:00	0.2023	11.133	175.5	0.473827908	0.561994956	0.007898989	0.081492409	0.025116752
2019-09-25T21:45:00	0.2011	11.119	175.4	0.469678569	0.556349529	0.007773922	0.080202123	0.024719073
2019-09-25T21:50:00	0.2015	11.104	175.3	0.471070513	0.558241828	0.007815767	0.080633832	0.024852130
2019-09-25T21:55:00	0.1997	11.090	175.2	0.464836391	0.549778742	0.007629218	0.078709231	0.024258949
2019-09-25T22:00:00	0.1996	11.076	175.2	0.464495578	0.549316963	0.007619083	0.078604675	0.024226724
2019-09-25T22:05:00	0.1996	11.064	175.1	0.464603159	0.549462719	0.007622281	0.078637672	0.024236894
2019-09-25T22:10:00	0.2001	11.052	175.1	0.466445382	0.551960065	0.007677152	0.079203766	0.024411370
2019-09-25T22:15:00	0.1997	11.040	175.0	0.464818311	0.549754244	0.007628680	0.078703683	0.024257239
2019-09-25T22:20:00	0.1998	11.030	175.0	0.465272860	0.550370265	0.007642206	0.078843232	0.024300250
2019-09-25T22:25:00	0.1993	11.020	174.9	0.463645223	0.548165190	0.007593826	0.078344099	0.024146412
2019-09-25T22:30:00	0.2017	11.008	174.9	0.472073366	0.559606126	0.007845984	0.080945574	0.024948212
2019-09-25T22:35:00	0.1987	10.994	174.8	0.461429817	0.545167195	0.007528217	0.077667226	0.023937794
2019-09-25T22:40:00	0.1992	10.983	174.8	0.463273776	0.547662259	0.007582806	0.078230410	0.024111372
2019-09-25T22:45:00	0.2010	10.969	174.7	0.469624408	0.556275931	0.007772296	0.080185349	0.024713903
2019-09-25T22:50:00	0.2003	10.958	174.7	0.466958669	0.552656364	0.007692475	0.079361850	0.024460093
2019-09-25T22:55:00	0.1997	10.945	174.6	0.464984874	0.549979956	0.007633635	0.078754804	0.024272996
2019-09-25T23:00:00	0.1998	10.932	174.6	0.465439401	0.550596007	0.007647165	0.078894392	0.024316018
2019-09-25T23:05:00	0.2015	10.919	174.5	0.471093306	0.558272827	0.007816454	0.080640911	0.024854312
2019-09-25T23:10:00	0.1981	10.906	174.4	0.459404121	0.542429325	0.007468471	0.077050843	0.023747818
2019-09-25T23:15:00	0.2012	10.892	174.4	0.470268863	0.557151826	0.007791654	0.080385062	0.024775457
2019-09-25T23:20:00	0.1998	10.879	174.3	0.465175715	0.550238596	0.007639314	0.078813398	0.024291055
2019-09-25T23:25:00	0.1995	10.866	174.3	0.464242235	0.548973760	0.007611554	0.078526999	0.024202784
2019-09-25T23:30:00	0.1990	10.854	174.2	0.462614099	0.546769340	0.007563254	0.078028701	0.024049203
2019-09-25T23:35:00	0.1995	10.841	174.1	0.464110348	0.548795113	0.007607636	0.078486576	0.024190325
2019-09-25T23:40:00	0.2001	10.827	174.1	0.466299714	0.551762496	0.007672807	0.079158931	0.024397551
2019-09-25T23:45:00	0.2007	10.814	174.0	0.468487658	0.554731750	0.007738209	0.079833672	0.024605513
2019-09-25T23:50:00	0.2006	10.801	174.0	0.468248475	0.554406971	0.007731046	0.079759773	0.024582737
2019-09-25T23:55:00	0.1994	10.789	173.9	0.463846558	0.548437839	0.007599802	0.078405756	0.024165416
2019-09-26T00:00:00	0.1999	10.776	173.9	0.465689195	0.550934641	0.007654606	0.078971157	0.024339677
2019-09-26T00:05:00	0.1992	10.763	173.8	0.463367517	0.547789171	0.007585586	0.078259093	0.024120213
2019-09-26T00:10:00	0.1998	10.752	173.7	0.465210416	0.550285628	0.007640347	0.078824054	0.024294339
2019-09-26T00:15:00	0.1993	10.743	173.7	0.463582748	0.548080592	0.007591972	0.078324972	0.024140517
2019-09-26T00:20:00	0.1987	10.732	173.6	0.461606973	0.545406788	0.007533453	0.077721247	0.023954443
2019-09-26T00:25:00	0.1987	10.722	173.6	0.461367301	0.545082652	0.007526370	0.077648168	0.023931919
2019-09-26T00:30:00	0.1996	10.716	173.6	0.464599700	0.549458033	0.007622179	0.078636611	0.024236567
2019-09-26T00:35:00	0.1985	10.707	173.5	0.460887906	0.544434447	0.007512211	0.077502096	0.023886899
2019-09-26T00:40:00	0.1989	10.700	173.5	0.462037646	0.545989352	0.007546190	0.077852649	0.023994942
2019-09-26T00:45:00	0.2001	10.694	173.5	0.466310124	0.551776615	0.007673117	0.079162135	0.024398539
2019-09-26T00:50:00	0.1983	10.685	173.4	0.460168687	0.543462308	0.007490994	0.077283203	0.023819434
2019-09-26T00:55:00	0.1987	10.678	173.4	0.461666022	0.545486655	0.007535199	0.077739257	0.023959994
2019-09-26T01:00:00	0.1991	10.670	173.3	0.462815496	0.547041908	0.007569221	0.078090255	0.024068175
2019-09-26T01:05:00	0.1993	10.660	173.3	0.463617465	0.548127602	0.007593002	0.078335600	0.024143793
2019-09-26T01:10:00	0.2001	10.651	173.3	0.466500890	0.552035354	0.007678809	0.079220854	0.024416637
2019-09-26T01:15:00	0.1992	10.642	173.2	0.463138391	0.547478977	0.007578791	0.078188992	0.024098607
2019-09-26T01:20:00	0.1991	10.633	173.2	0.462898828	0.547154698	0.007571690	0.078115731	0.024076027
2019-09-26T01:25:00	0.1995	10.626	173.1	0.464394951	0.549180638	0.007616092	0.078573818	0.024217214
2019-09-26T01:30:00	0.1969	10.618	173.1	0.455119390	0.536648900	0.007342869	0.075755025	0.023348435
2019-09-26T01:35:00	0.1996	10.612	173.1	0.464610116	0.549472145	0.007622488	0.078639806	0.024237552
2019-09-26T01:40:00	0.1978	10.604	173.0	0.458465574	0.541161913	0.007440869	0.076766078	0.023660051
2019-09-26T01:45:00	0.1984	10.597	173.0	0.460311158	0.543654847	0.007495195	0.077326540	0.023832791
2019-09-26T01:50:00	0.1978	10.589	173.0	0.458333460	0.540983563	0.007436988	0.076726035	0.023647709
2019-09-26T01:55:00	0.1963	10.582	172.9	0.453222206	0.534094086	0.007287589	0.075184711	0.023172658
2019-09-26T02:00:00	0.1970	10.574	172.9	0.455418667	0.537052177	0.007351608	0.075845184	0.023376222
2019-09-26T02:05:00	0.1989	10.566	172.9	0.462131421	0.546116219	0.007548964	0.077881275	0.024003765
2019-09-26T02:10:00	0.1978	10.557	172.8	0.458416903	0.541096207	0.007439439	0.076751325	0.023655504
2019-09-26T02:15:00	0.1967	10.549	172.8	0.454698276	0.536081568	0.007330581	0.075628251	0.023309362
2019-09-26T02:20:00	0.1980	10.542	172.8	0.458980079	0.541856613	0.007455994	0.076922120	0.023708145
2019-09-26T02:25:00	0.1973	10.533	172.7	0.456653765	0.538717221	0.007387727	0.076217822	0.023491073
2019-09-26T02:30:00	0.1982	10.525	172.7	0.459890694	0.543086666	0.007482801	0.077198678	0.023793382
2019-09-26T02:35:00	0.1968	10.519	172.7	0.454781809	0.536194095	0.007333018	0.075653390	0.023317110
2019-09-26T02:40:00	0.1980	10.512	172.6	0.459063505	0.541969278	0.007458448	0.076947437	0.023715947
2019-09-26T02:45:00	0.1984	10.504	172.6	0.460561333	0.543992981	0.007502573	0.077402667	0.023856254
2019-09-26T02:50:00	0.1986	10.495	172.6	0.461016457	0.544608247	0.007516006	0.077541252	0.023898967
2019-09-26T02:55:00	0.1972	10.486	172.5	0.456257195	0.538182470	0.007376121	0.076098076	0.023454166
2019-09-26T03:00:00	0.1986	10.479	172.5	0.461231839	0.544899471	0.007522368	0.077606879	0.023919194
2019-09-26T03:05:00	0.1976	10.471	172.4	0.457516327	0.539880760	0.007413004	0.076478594	0.023571445
2019-09-26T03:10:00	0.1987	10.462	172.4	0.461447207	0.545190712	0.007528731	0.077672528	0.023939428
2019-09-26T03:15:00	0.1987	10.454	172.4	0.461554885	0.545336340	0.007531913	0.077705362	0.023949547
2019-09-26T03:20:00	0.1976	10.446	172.3	0.457839730	0.540317162	0.007422492	0.076576479	0.023601614
2019-09-26T03:25:00	0.1985	10.436	172.3	0.460728106	0.544218416	0.007507494	0.077453435	0.023871901
2019-09-26T03:30:00	0.1995	10.428	172.2	0.464308196	0.549063113	0.007613514	0.078547219	0.024209016
2019-09-26T03:35:00	0.1990	10.419	172.2	0.462680093	0.546858651	0.007565209	0.078048868	0.024055419
2019-09-26T03:40:00	0.1991	10.411	172.2	0.462787732	0.547004330	0.007568398	0.078081767	0.024065559
2019-09-26T03:45:00	0.2010	10.399	184.0	0.469485823	0.556087620	0.007768137	0.080142434	0.024700676
2019-09-26T03:50:00	0.2005	10.390	183.9	0.467860219	0.553879866	0.007719425	0.079639887	0.024545787
2019-09-26T03:55:00	0.1986	10.378	183.9	0.461026884	0.544622345	0.007516314	0.077544429	0.023899946
2019-09-26T04:00:00	0.2006	10.370	183.8	0.468075163	0.554171664	0.007725857	0.079706247	0.024566239
2019-09-26T04:05:00	0.1985	10.362	183.8	0.460744201	0.544240173	0.007507969	0.077458335	0.023873411
2019-09-26T04:10:00	0.1987	10.354	183.7	0.461396022	0.545121492	0.007527218	0.077656923	0.023934618
2019-09-26T04:15:00	0.1998	10.346	183.7	0.465171903	0.550233430	0.007639201	0.078812227	0.024290694
2019-09-26T04:20:00	0.1982	10.337	183.7	0.459920332	0.543126712	0.007483674	0.077207688	0.023796159
2019-09-26T04:25:00	0.1970	10.329	183.6	0.455704558	0.537437480	0.007359961	0.075931360	0.023402783
2019-09-26T04:30:00	0.1973	10.321	171.8	0.456705219	0.538786613	0.007389234	0.076233365	0.023495864
2019-09-26T04:35:00	0.1986	10.313	183.5	0.461181201	0.544830999	0.007520872	0.077591447	0.023914438
2019-09-26T04:40:00	0.1977	10.304	183.5	0.458010301	0.540547365	0.007427498	0.076628131	0.023617534
2019-09-26T04:45:00	0.1989	10.294	171.6	0.462137282	0.546124148	0.007549138	0.077883064	0.024004317
2019-09-26T04:50:00	0.1995	10.287	171.6	0.464177413	0.548885954	0.007609628	0.078507129	0.024196660
2019-09-26T04:55:00	0.1970	10.280	171.6	0.455446335	0.537089463	0.007352416	0.075853522	0.023378792
2019-09-26T05:00:00	0.1978	10.271	171.5	0.458533656	0.541253829	0.007442870	0.076786718	0.023666412
2019-09-26T05:05:00	0.1980	10.263	171.5	0.459185906	0.542134586	0.007462049	0.076984588	0.023727398
2019-09-26T05:10:00	0.2004	10.255	171.5	0.467474824	0.553356763	0.007707899	0.079520973	0.024509136
2019-09-26T05:15:00	0.1981	10.247	171.4	0.459447502	0.542487924	0.007469749	0.077064018	0.023751879
2019-09-26T05:20:00	0.1989	10.244	171.4	0.462183893	0.546187211	0.007550517	0.077897295	0.024008703
2019-09-26T05:25:00	0.2003	10.241	171.4	0.466999401	0.552711627	0.007693692	0.079374401	0.024463961
2019-09-26T05:30:00	0.2003	10.238	171.4	0.466956509	0.552653433	0.007692411	0.079361184	0.024459888
2019-09-26T05:35:00	0.2019	10.237	171.4	0.472457727	0.560129228	0.007857581	0.081065211	0.024985085
2019-09-26T05:40:00	0.2013	10.236	183.1	0.470683326	0.557715307	0.007804117	0.080513632	0.024815083
2019-09-26T05:45:00	0.2024	10.238	171.1	0.474448832	0.562840937	0.007917789	0.081686366	0.025176531
2019-09-26T05:50:00	0.2004	10.237	183.1	0.467478476	0.553361720	0.007708008	0.079522100	0.024509483
2019-09-26T05:55:00	0.2003	10.237	171.3	0.467088835	0.552832973	0.007696363	0.079401963	0.024472456
2019-09-26T06:00:00	0.2020	10.237	171.3	0.472936028	0.560780345	0.007872023	0.081214211	0.025031009
2019-09-26T06:05:00	0.2032	10.236	171.3	0.477044797	0.566381151	0.007996628	0.082499734	0.025427219
2019-09-26T06:10:00	0.1992	10.235	171.3	0.463143346	0.547485684	0.007578938	0.078190508	0.024099074
2019-09-26T06:15:00	0.2000	10.235	171.3	0.465876735	0.551188911	0.007660194	0.079028814	0.024357448
2019-09-26T06:20:00	0.2018	10.236	171.3	0.472418552	0.560075906	0.007856398	0.081053013	0.024981326
2019-09-26T06:25:00	0.2012	10.237	171.3	0.470297704	0.557191032	0.007792521	0.080394006	0.024778213
2019-09-26T06:30:00	0.2037	10.238	183.1	0.478904985	0.568921260	0.008053359	0.083085017	0.025607609
2019-09-26T06:35:00	0.2026	10.241	171.3	0.475058865	0.563672380	0.007936281	0.081877144	0.025235331
2019-09-26T06:40:00	0.2037	10.243	171.3	0.478819503	0.568804473	0.008050747	0.083058077	0.025599306
2019-09-26T06:45:00	0.2045	10.248	171.3	0.481540244	0.572524460	0.008134067	0.083917670	0.025864241
2019-09-26T06:50:00	0.2037	10.253	171.4	0.478734019	0.568687689	0.008048136	0.083031140	0.025591004
2019-09-26T06:55:00	0.2040	10.260	171.4	0.479727873	0.570045803	0.008078518	0.083344581	0.025687609
2019-09-26T07:00:00	0.2017	10.266	183.1	0.472075955	0.559609648	0.007846062	0.080946379	0.024948460
2019-09-26T07:05:00	0.2030	10.273	183.2	0.476531591	0.565680848	0.007981011	0.082338620	0.025377562
2019-09-26T07:10:00	0.2025	10.281	171.5	0.474759329	0.563264091	0.007927198	0.081783441	0.025206451
2019-09-26T07:15:00	0.2018	10.292	171.5	0.472293729	0.559906018	0.007852632	0.081014154	0.024969349
2019-09-26T07:20:00	0.2031	10.303	171.6	0.476749079	0.565977598	0.007987627	0.082406878	0.025398600
2019-09-26T07:25:00	0.2037	10.316	183.4	0.478780402	0.568751053	0.008049553	0.083045755	0.025595508
2019-09-26T07:30:00	0.2037	10.330	183.5	0.478737659	0.568692662	0.008048248	0.083032287	0.025591357
2019-09-26T07:35:00	0.2040	10.346	183.5	0.479731512	0.570050777	0.008078629	0.083345729	0.025687963
2019-09-26T07:40:00	0.2019	10.363	171.8	0.472425846	0.560085834	0.007856618	0.081055284	0.024982026
2019-09-26T07:45:00	0.2028	10.385	183.8	0.475843553	0.564742303	0.007960098	0.082122865	0.025311065
2019-09-26T07:50:00	0.2053	10.411	183.9	0.484436758	0.576491269	0.008223236	0.084837613	0.026147776
2019-09-26T07:55:00	0.2035	10.432	172.2	0.478178320	0.567928662	0.008031174	0.082856138	0.025537066
2019-09-26T08:00:00	0.2052	10.452	172.2	0.484006389	0.575901451	0.008209957	0.084700612	0.026105551
2019-09-26T08:05:00	0.2041	10.477	172.3	0.480166062	0.570644844	0.008091931	0.083482962	0.025730260
2019-09-26T08:10:00	0.2063	10.499	172.4	0.487714488	0.580988244	0.008324722	0.085884626	0.026470476
2019-09-26T08:15:00	0.2059	10.519	172.5	0.486292894	0.579036793	0.008280631	0.085429741	0.026330276
2019-09-26T08:20:00	0.2062	10.543	172.6	0.487284535	0.580397868	0.008311375	0.085746922	0.026428034
2019-09-26T08:25:00	0.2080	10.569	172.7	0.493785175	0.589339808	0.008514316	0.087840632	0.027073336
2019-09-26T08:30:00	0.2060	10.600	172.8	0.486854528	0.579807566	0.008298036	0.085609310	0.026385621
2019-09-26T08:35:00	0.2040	10.635	173.0	0.479909705	0.570294364	0.008084083	0.083401990	0.025705303
2019-09-26T08:40:00	0.2040	10.675	173.2	0.479866977	0.570235953	0.008082775	0.083388498	0.025701145
2019-09-26T08:45:00	0.2048	10.707	173.3	0.482586877	0.573957063	0.008166232	0.084249511	0.025966518
2019-09-26T08:50:00	0.2060	10.742	173.4	0.486683962	0.579573459	0.008292748	0.085554756	0.026368807
2019-09-26T08:55:00	0.2056	10.774	173.6	0.485261937	0.577622588	0.008248728	0.085100602	0.026228832
2019-09-26T09:00:00	0.2065	10.795	173.7	0.488322139	0.581822872	0.008343604	0.086079429	0.026530516
2019-09-26T09:05:00	0.2054	10.811	173.7	0.484831673	0.577032629	0.008235431	0.084963424	0.026186552
2019-09-26T09:10:00	0.2061	10.832	173.8	0.487202895	0.580285784	0.008308842	0.085720787	0.026419979
2019-09-26T09:15:00	0.2042	10.853	173.9	0.480604194	0.571243961	0.008105354	0.083621439	0.025772940
2019-09-26T09:20:00	0.2058	10.875	174.0	0.486083283	0.578749192	0.008274139	0.085362770	0.026309635
2019-09-26T09:25:00	0.2069	10.900	174.1	0.489831719	0.583897608	0.008390605	0.086564324	0.026679966
2019-09-26T09:30:00	0.2070	10.924	174.2	0.490133555	0.584312663	0.008400018	0.086661440	0.026709897
2019-09-26T09:35:00	0.2053	10.944	174.3	0.484230666	0.576208803	0.008216876	0.084771993	0.026127552
2019-09-26T09:40:00	0.2057	10.961	174.4	0.485567812	0.578042080	0.008258187	0.085198188	0.026258909
2019-09-26T09:45:00	0.2044	10.972	174.4	0.481383960	0.572310618	0.008129270	0.083868175	0.025848986
2019-09-26T09:50:00	0.2054	10.988	174.5	0.484792641	0.576979117	0.008234225	0.084950985	0.026182719
2019-09-26T09:55:00	0.2044	11.012	174.6	0.481298541	0.572193748	0.008126648	0.083841129	0.025840650
2019-09-26T10:00:00	0.2040	11.027	174.6	0.479874255	0.570245902	0.008082998	0.083390796	0.025701853
2019-09-26T10:05:00	0.2047	11.039	174.7	0.482392481	0.573690913	0.008160253	0.084187828	0.025947506
2019-09-26T10:10:00	0.2046	11.046	174.8	0.481802852	0.572883828	0.008142132	0.084000870	0.025889884
2019-09-26T10:15:00	0.2035	11.058	174.8	0.478103743	0.567826816	0.008028899	0.082832666	0.025529832
2019-09-26T10:20:00	0.2040	11.072	174.9	0.479932438	0.570325442	0.008084778	0.083409169	0.025707516
2019-09-26T10:25:00	0.2051	11.101	175.0	0.483486068	0.575188550	0.008193916	0.084535123	0.026054546
2019-09-26T10:30:00	0.2062	11.126	175.1	0.487380697	0.580529896	0.008314359	0.085777711	0.026437524
2019-09-26T10:35:00	0.2056	11.146	175.2	0.485412612	0.577829222	0.008253386	0.085148666	0.026243646
2019-09-26T10:40:00	0.2061	11.164	175.3	0.487237371	0.580333115	0.008309911	0.085731823	0.026423381
2019-09-26T10:45:00	0.2055	11.177	175.3	0.484924271	0.577159582	0.008238292	0.084992937	0.026195649
2019-09-26T10:50:00	0.2058	11.193	175.4	0.486059693	0.578716827	0.008273409	0.085355235	0.026307312
2019-09-26T10:55:00	0.2052	11.207	175.5	0.484090842	0.576017181	0.008212562	0.084727487	0.026113834
2019-09-26T11:00:00	0.2074	11.229	175.6	0.491429423	0.586095447	0.008440492	0.087078999	0.026838593
2019-09-26T11:05:00	0.2045	11.258	175.7	0.481531171	0.572512044	0.008133788	0.083914796	0.025863355
2019-09-26T11:10:00	0.2027	11.289	175.8	0.475411190	0.564152715	0.007946970	0.081987428	0.025269321
2019-09-26T11:15:00	0.2039	11.327	175.9	0.479660607	0.569953859	0.008076460	0.083323348	0.025681065
2019-09-26T11:20:00	0.2046	11.344	176.1	0.481833745	0.572926108	0.008143081	0.084010661	0.025892902
2019-09-26T11:25:00	0.2054	11.357	176.1	0.484695507	0.576845956	0.008231225	0.084920034	0.026173179
2019-09-26T11:30:00	0.2034	11.369	176.2	0.477889983	0.567534921	0.008022379	0.082765407	0.025509102
2019-09-26T11:35:00	0.2006	11.382	176.2	0.467952025	0.554004493	0.007722172	0.079668227	0.024554521
2019-09-26T11:40:00	0.1994	11.397	176.3	0.463890630	0.548497525	0.007601111	0.078419256	0.024169576
2019-09-26T11:45:00	0.2019	11.419	176.4	0.472658184	0.560402090	0.007863632	0.081127641	0.025004327
2019-09-26T11:50:00	0.2018	11.446	176.5	0.472413101	0.560068487	0.007856234	0.081051316	0.024980803
2019-09-26T11:55:00	0.2016	11.472	176.6	0.471475424	0.558792580	0.007827961	0.080759629	0.024890902
2019-09-26T12:00:00	0.2007	11.489	176.7	0.468458330	0.554691925	0.007737330	0.079824609	0.024602720
2019-09-26T12:05:00	0.2033	11.500	176.8	0.477559765	0.567084070	0.008012313	0.082661557	0.025477095
2019-09-26T12:10:00	0.2020	11.514	176.9	0.472817616	0.560619132	0.007868446	0.081177311	0.025019636
2019-09-26T12:15:00	0.2007	11.529	189.2	0.468415457	0.554633707	0.007736046	0.079811361	0.024598637
2019-09-26T12:20:00	0.2010	11.544	189.3	0.469556431	0.556183561	0.007770256	0.080164297	0.024707415
2019-09-26T12:25:00	0.2002	11.564	189.4	0.466537620	0.552085175	0.007679905	0.079232163	0.024420122
2019-09-26T12:30:00	0.2013	11.581	189.5	0.470451794	0.557400511	0.007797154	0.080441796	0.024792943
2019-09-26T12:35:00	0.2007	11.600	189.5	0.468473838	0.554712984	0.007737795	0.079829401	0.024604197
2019-09-26T12:40:00	0.2005	11.622	189.7	0.467881777	0.553909130	0.007720070	0.079646542	0.024547838
2019-09-26T12:45:00	0.2019	11.645	189.8	0.472486902	0.560168939	0.007858461	0.081074296	0.024987885
2019-09-26T12:50:00	0.2006	11.664	189.9	0.468084312	0.554184085	0.007726131	0.079709072	0.024567110
2019-09-26T12:55:00	0.2021	11.683	177.7	0.473381488	0.561386917	0.007885486	0.081353101	0.025073816
2019-09-26T13:00:00	0.2004	11.700	190.0	0.467246723	0.553047214	0.007701081	0.079450633	0.024487457
2019-09-26T13:05:00	0.2002	11.713	177.8	0.466654446	0.552243645	0.007683392	0.079268136	0.024431209
2019-09-26T13:10:00	0.2009	11.718	177.9	0.469182535	0.555675561	0.007759037	0.080048556	0.024671742
2019-09-26T13:15:00	0.1987	11.717	177.9	0.461651073	0.545466435	0.007534757	0.077734697	0.023958589
2019-09-26T13:20:00	0.1967	11.720	177.9	0.454450818	0.535748254	0.007323365	0.075553804	0.023286416
2019-09-26T13:25:00	0.1964	11.725	177.9	0.453508125	0.534478934	0.007295907	0.075270526	0.023199107
2019-09-26T13:30:00	0.1967	11.733	178.0	0.454654163	0.536022147	0.007329294	0.075614977	0.023305270
2019-09-26T13:35:00	0.1965	11.743	178.0	0.453711528	0.534752752	0.007301827	0.075331604	0.023217932
2019-09-26T13:40:00	0.1968	11.760	178.1	0.454857496	0.536296056	0.007335226	0.075676171	0.023324131
2019-09-26T13:45:00	0.1961	11.775	178.2	0.452522092	0.533152006	0.007267241	0.074974783	0.023107956
2019-09-26T13:50:00	0.1968	11.792	178.3	0.455060817	0.536569981	0.007341159	0.075737386	0.023342998
2019-09-26T13:55:00	0.1965	11.810	190.6	0.453770164	0.534831694	0.007303534	0.075349216	0.023223360
2019-09-26T14:00:00	0.1957	11.827	190.7	0.451085593	0.531220250	0.007225578	0.074544952	0.022975478
2019-09-26T14:05:00	0.1945	11.852	178.5	0.447003752	0.525739995	0.007107831	0.073330184	0.022601075
2019-09-26T14:10:00	0.1949	11.877	191.0	0.448152015	0.527280319	0.007140859	0.073670923	0.022706094
2019-09-26T14:15:00	0.1967	11.896	191.1	0.454525014	0.535848187	0.007325528	0.075576122	0.023293295
2019-09-26T14:20:00	0.1963	11.910	191.2	0.453234156	0.534110169	0.007287936	0.075188297	0.023173763
2019-09-26T14:25:00	0.1963	11.923	191.3	0.452987654	0.533778428	0.007280769	0.075114349	0.023150972
2019-09-26T14:30:00	0.1977	11.935	191.4	0.457960915	0.540480711	0.007426049	0.076613174	0.023612924
2019-09-26T14:35:00	0.1965	11.947	191.4	0.453887434	0.534989583	0.007306949	0.075384445	0.023234218
2019-09-26T14:40:00	0.1963	11.957	179.1	0.453292800	0.534189101	0.007289642	0.075205895	0.023179187
2019-09-26T14:45:00	0.1964	11.967	191.5	0.453394510	0.534325999	0.007292601	0.075236420	0.023188595
2019-09-26T14:50:00	0.1956	11.977	179.2	0.450709638	0.530714946	0.007214693	0.074432658	0.022940868
2019-09-26T14:55:00	0.1960	11.983	179.3	0.452204962	0.532725400	0.007258033	0.074879787	0.023078677
2019-09-26T15:00:00	0.1952	11.983	179.3	0.449170528	0.528647461	0.007170217	0.073973806	0.022799445
2019-09-26T15:05:00	0.1940	11.986	191.7	0.445086352	0.523170232	0.007052848	0.072762932	0.022426242
2019-09-26T15:10:00	0.1963	11.992	179.3	0.453206667	0.534073172	0.007287137	0.075180048	0.023171221
2019-09-26T15:15:00	0.1967	11.996	191.7	0.454700878	0.536085073	0.007330657	0.075629034	0.023309603
2019-09-26T15:20:00	0.1952	11.998	191.7	0.449229244	0.528726300	0.007171911	0.073991286	0.022804833
2019-09-26T15:25:00	0.1950	12.000	179.4	0.448633784	0.527926892	0.007154738	0.073814114	0.022750227
2019-09-26T15:30:00	0.1979	12.002	191.8	0.458831921	0.541656545	0.007451637	0.076877170	0.023694291
2019-09-26T15:35:00	0.1969	12.002	191.8	0.455107526	0.536632914	0.007342523	0.075751452	0.023347333
2019-09-26T15:40:00	0.1949	12.003	191.9	0.448241952	0.527401008	0.007143449	0.073697643	0.022714329
2019-09-26T15:45:00	0.1969	12.002	179.5	0.455310831	0.536906859	0.007348459	0.075812692	0.023366208
2019-09-26T15:50:00	0.1952	12.001	179.5	0.449491618	0.529078626	0.007179484	0.074069417	0.022828914
2019-09-26T15:55:00	0.1964	11.999	191.9	0.453425665	0.534367935	0.007293507	0.075245772	0.023191478
2019-09-26T16:00:00	0.1954	11.997	179.5	0.450043818	0.529820321	0.007195436	0.074233988	0.022879636
2019-09-26T16:05:00	0.1963	11.994	179.5	0.453327072	0.534235229	0.007290639	0.075216180	0.023182357
2019-09-26T16:10:00	0.1954	11.991	191.8	0.449991354	0.529749843	0.007193920	0.074218344	0.022874815
2019-09-26T16:15:00	0.1951	11.989	179.5	0.449093647	0.528544236	0.007167999	0.073950922	0.022792392
2019-09-26T16:20:00	0.1958	11.987	179.5	0.451332787	0.531552552	0.007232739	0.074618831	0.022998248
2019-09-26T16:25:00	0.1939	11.983	179.5	0.444854868	0.522860185	0.007046224	0.072694594	0.022405180
2019-09-26T16:30:00	0.1967	11.979	179.5	0.454414547	0.535699403	0.007322307	0.075542895	0.023283054
2019-09-26T16:35:00	0.1951	11.975	179.5	0.448988688	0.528403318	0.007164971	0.073919686	0.022782765
2019-09-26T16:40:00	0.1951	11.971	179.5	0.449136767	0.528602131	0.007169243	0.073963757	0.022796348
2019-09-26T16:45:00	0.1968	11.965	191.9	0.454858048	0.536296799	0.007335242	0.075676338	0.023324182
2019-09-26T16:50:00	0.1966	11.958	179.5	0.454309754	0.535558269	0.007319253	0.075511381	0.023273341
2019-09-26T16:55:00	0.1966	11.952	191.8	0.454109503	0.535288598	0.007313417	0.075451179	0.023254786
2019-09-26T17:00:00	0.1974	11.945	179.5	0.457040992	0.539239492	0.007399069	0.076334835	0.023527138
2019-09-26T17:05:00	0.1964	11.936	179.4	0.453360791	0.534280614	0.007291620	0.075226300	0.023185476
2019-09-26T17:10:00	0.1966	11.927	191.8	0.454204958	0.535417140	0.007316199	0.075479873	0.023263630
2019-09-26T17:15:00	0.1960	11.918	179.3	0.452263625	0.532804308	0.007259736	0.074897355	0.023084092
2019-09-26T17:20:00	0.1989	11.906	191.7	0.462149554	0.546140752	0.007549501	0.077886811	0.024005472
2019-09-26T17:25:00	0.1970	11.894	191.6	0.455692498	0.537421226	0.007359608	0.075927724	0.023401662
2019-09-26T17:30:00	0.1998	11.881	191.6	0.465221419	0.550300542	0.007640675	0.078827434	0.024295381
2019-09-26T17:35:00	0.1998	11.866	191.5	0.465368785	0.550500287	0.007645062	0.078872698	0.024309331
2019-09-26T17:40:00	0.1995	11.852	191.4	0.464128117	0.548819181	0.007608164	0.078492021	0.024192003
2019-09-26T17:45:00	0.1989	11.836	191.4	0.462192507	0.546198865	0.007550772	0.077899925	0.024009513
2019-09-26T17:50:00	0.2000	11.820	191.4	0.466157731	0.551569943	0.007668572	0.079115243	0.024384086
2019-09-26T17:55:00	0.2006	11.806	191.3	0.468038882	0.554122408	0.007724772	0.079695044	0.024562786
2019-09-26T18:00:00	0.2007	11.791	191.2	0.468532768	0.554793009	0.007739560	0.079847613	0.024609810
2019-09-26T18:05:00	0.2004	11.777	191.1	0.467293264	0.553110370	0.007702472	0.079464983	0.024491879
2019-09-26T18:10:00	0.1999	11.764	191.1	0.465706406	0.550957973	0.007655119	0.078976447	0.024341308
2019-09-26T18:15:00	0.2017	11.753	191.0	0.471745914	0.559160566	0.007836112	0.080843718	0.024916819
2019-09-26T18:20:00	0.2021	11.743	191.0	0.473277833	0.561245757	0.007882352	0.081320772	0.025063852
2019-09-26T18:25:00	0.2028	11.733	191.0	0.475846843	0.564746791	0.007960198	0.082123896	0.025311382
2019-09-26T18:30:00	0.2032	11.723	178.6	0.477031169	0.566362552	0.007996213	0.082495453	0.025425900
2019-09-26T18:35:00	0.2031	11.714	190.9	0.476832263	0.566091109	0.007990159	0.082432993	0.025406649
2019-09-26T18:40:00	0.2023	11.705	178.5	0.473865852	0.562046644	0.007900137	0.081504255	0.025120403
2019-09-26T18:45:00	0.2037	11.697	178.5	0.478854260	0.568851957	0.008051809	0.083069030	0.025602682
2019-09-26T18:50:00	0.2021	11.690	178.5	0.473121520	0.561032905	0.007877628	0.081272031	0.025048829
2019-09-26T18:55:00	0.2024	11.683	178.5	0.474306800	0.562647398	0.007913486	0.081641980	0.025162851
2019-09-26T19:00:00	0.2027	11.677	178.4	0.475491665	0.564262442	0.007949413	0.082012628	0.025277088
2019-09-26T19:05:00	0.2027	11.671	178.4	0.475292668	0.563991120	0.007943374	0.081950320	0.025257885
2019-09-26T19:10:00	0.2031	11.665	178.4	0.476822981	0.566078443	0.007989876	0.082430079	0.025405751
2019-09-26T19:15:00	0.2037	11.659	178.4	0.478698204	0.568638762	0.008047043	0.083019855	0.025587526
2019-09-26T19:20:00	0.2056	11.654	178.4	0.485404448	0.577818025	0.008253134	0.085146062	0.026242843
2019-09-26T19:25:00	0.2044	11.649	178.3	0.481409773	0.572345937	0.008130062	0.083876349	0.025851505
2019-09-26T19:30:00	0.2046	11.644	178.3	0.481901710	0.573019126	0.008145168	0.084032202	0.025899541
2019-09-26T19:35:00	0.2032	11.640	178.4	0.477211502	0.566608676	0.008001704	0.082552102	0.025443359
2019-09-26T19:40:00	0.2045	11.636	178.3	0.481504459	0.572475494	0.008132968	0.083906336	0.025860748
2019-09-26T19:45:00	0.2062	11.633	178.3	0.487515857	0.580715482	0.008318555	0.085820995	0.026450864
2019-09-26T19:50:00	0.2050	11.628	178.3	0.483178559	0.574767329	0.008184443	0.084437394	0.026024425
2019-09-26T19:55:00	0.2043	11.625	178.3	0.480908494	0.571660161	0.008114683	0.083717684	0.025802603
2019-09-26T20:00:00	0.2050	11.622	178.3	0.483471723	0.575168899	0.008193474	0.084530563	0.026053140
2019-09-26T20:05:00	0.2051	11.619	178.3	0.483618296	0.575369697	0.008197991	0.084577163	0.026067503
2019-09-26T20:10:00	0.2056	11.616	178.3	0.485489764	0.577935033	0.008255772	0.085173283	0.026251233
2019-09-26T20:15:00	0.2049	11.613	178.3	0.482876105	0.574353104	0.008175132	0.084341327	0.025994816
2019-09-26T20:20:00	0.2062	11.610	190.5	0.487506604	0.580702777	0.008318267	0.085818032	0.026449951
2019-09-26T20:25:00	0.2043	11.608	178.3	0.480752534	0.571446840	0.008109901	0.083668350	0.025787398
2019-09-26T20:30:00	0.2045	11.606	178.3	0.481589873	0.572592371	0.008135591	0.083933390	0.025869086
2019-09-26T20:35:00	0.2037	11.604	178.3	0.478973205	0.569014467	0.008055443	0.083106520	0.025614237
2019-09-26T20:40:00	0.2060	11.602	178.3	0.486713367	0.579613816	0.008293660	0.085564160	0.026371705
2019-09-26T20:45:00	0.2040	11.599	178.3	0.479957715	0.570359997	0.008085552	0.083417151	0.025709976
2019-09-26T20:50:00	0.2044	11.597	178.2	0.481140603	0.571977673	0.008121802	0.083791133	0.025825241
2019-09-26T20:55:00	0.2046	11.594	178.2	0.481977847	0.573123332	0.008147508	0.084056336	0.025906979
2019-09-26T21:00:00	0.2036	11.592	178.1	0.478324770	0.568128673	0.008035642	0.082902240	0.025551276
2019-09-26T21:05:00	0.2055	11.590	178.0	0.485031751	0.577306948	0.008241613	0.085027200	0.026206209
2019-09-26T21:10:00	0.2044	11.587	177.9	0.481381966	0.572307889	0.008129208	0.083867543	0.025848791
2019-09-26T21:15:00	0.2040	11.585	177.9	0.479801710	0.570146734	0.008080777	0.083367891	0.025694794
2019-09-26T21:20:00	0.2027	11.582	190.2	0.475454523	0.564211798	0.007948286	0.082000997	0.025273504
2019-09-26T21:25:00	0.2049	11.580	177.9	0.482857574	0.574327728	0.008174561	0.084335443	0.025993002
2019-09-26T21:30:00	0.2044	11.578	177.9	0.481278007	0.572165654	0.008126018	0.083834628	0.025838646
2019-09-26T21:35:00	0.2047	11.577	177.9	0.482115217	0.573311359	0.008151729	0.084099888	0.025920402
2019-09-26T21:40:00	0.2036	11.575	177.9	0.478462288	0.568316501	0.008039840	0.082945543	0.025564622
2019-09-26T21:45:00	0.2033	11.573	177.9	0.477572138	0.567100961	0.008012690	0.082665447	0.025478294
2019-09-26T21:50:00	0.2040	11.570	177.9	0.479792437	0.570134057	0.008080494	0.083364963	0.025693891
2019-09-26T21:55:00	0.2030	11.568	177.9	0.476482828	0.565614318	0.007979528	0.082323320	0.025372847
2019-09-26T22:00:00	0.2027	11.566	177.9	0.475246238	0.563927819	0.007941965	0.081935786	0.025253405
2019-09-26T22:05:00	0.2009	11.564	177.9	0.469255857	0.555775173	0.007761237	0.080071246	0.024678736
2019-09-26T22:10:00	0.1978	11.562	177.9	0.458390953	0.541061175	0.007438677	0.076743460	0.023653080
2019-09-26T22:15:00	0.2017	11.558	177.9	0.471818631	0.559259504	0.007838303	0.080866332	0.024923789
2019-09-26T22:20:00	0.2037	11.556	177.9	0.478978841	0.569022167	0.008055615	0.083108297	0.025614784
2019-09-26T22:25:00	0.2031	11.554	177.9	0.476800775	0.566048141	0.007989200	0.082423107	0.025403602
2019-09-26T22:30:00	0.2037	11.552	177.9	0.478770773	0.568737899	0.008049259	0.083042721	0.025594573
2019-09-26T22:35:00	0.2021	11.550	177.9	0.473132811	0.561048280	0.007877969	0.081275551	0.025049914
2019-09-26T22:40:00	0.2022	11.549	177.9	0.473720856	0.561849133	0.007895749	0.081458992	0.025106452
2019-09-26T22:45:00	0.2025	11.546	177.9	0.474654814	0.563121647	0.007924030	0.081750759	0.025196378
2019-09-26T22:50:00	0.2031	11.544	177.9	0.476626061	0.565809742	0.007983885	0.082368266	0.025386699
2019-09-26T22:55:00	0.2035	11.542	177.9	0.478250547	0.568027303	0.008033377	0.082878874	0.025544074
2019-09-26T23:00:00	0.2040	11.540	178.0	0.479874255	0.570245902	0.008082998	0.083390796	0.025701853
2019-09-26T23:05:00	0.2018	11.539	177.9	0.472161254	0.559725728	0.007848635	0.080972922	0.024956641
2019-09-26T23:10:00	0.2026	11.537	178.0	0.475171948	0.563826539	0.007939711	0.081912533	0.025246238
2019-09-26T23:15:00	0.2012	11.536	177.9	0.470220951	0.557086696	0.007790214	0.080370206	0.024770878
2019-09-26T23:20:00	0.2008	11.535	178.0	0.468730514	0.555061564	0.007745485	0.079908740	0.024628650
2019-09-26T23:25:00	0.2003	11.535	177.9	0.466892642	0.552566783	0.007690503	0.079341506	0.024453823
2019-09-26T23:30:00	0.2023	11.534	177.9	0.474063286	0.562315612	0.007906113	0.081565907	0.025139405
2019-09-26T23:35:00	0.2002	11.532	177.9	0.466683829	0.552283503	0.007684269	0.079277184	0.024433998
2019-09-26T23:40:00	0.2002	11.531	177.9	0.466579417	0.552141869	0.007681152	0.079245032	0.024424088
2019-09-26T23:45:00	0.2009	11.530	177.9	0.469248556	0.555765254	0.007761018	0.080068987	0.024678039
2019-09-26T23:50:00	0.2002	11.529	177.9	0.466717414	0.552329063	0.007685271	0.079287528	0.024437186
2019-09-26T23:55:00	0.1998	11.528	190.1	0.465225428	0.550305975	0.007640794	0.078828665	0.024295760
2019-09-27T00:00:00	0.1998	11.527	177.8	0.465467929	0.550634679	0.007648015	0.078903157	0.024318719
2019-09-27T00:05:00	0.1999	11.526	177.8	0.465710413	0.550963407	0.007655238	0.078977679	0.024341688
2019-09-27T00:10:00	0.1994	11.525	177.8	0.463870894	0.548470797	0.007600525	0.078413211	0.024167713
2019-09-27T00:15:00	0.1999	11.524	177.8	0.465501527	0.550680224	0.007649015	0.078913481	0.024321901
2019-09-27T00:20:00	0.1993	11.523	177.8	0.463661893	0.548187763	0.007594320	0.078349203	0.024147985
2019-09-27T00:25:00	0.1988	11.522	177.9	0.461821254	0.545696624	0.007539789	0.077786612	0.023974589
2019-09-27T00:30:00	0.1987	11.522	177.9	0.461369347	0.545085418	0.007526430	0.077648792	0.023932112
2019-09-27T00:35:00	0.1991	11.521	177.9	0.463001191	0.547293254	0.007574724	0.078147030	0.024085674
2019-09-27T00:40:00	0.1987	11.521	177.8	0.461507557	0.545272331	0.007530514	0.077690930	0.023945099
2019-09-27T00:45:00	0.2003	11.521	177.8	0.466956156	0.552652953	0.007692400	0.079361075	0.024459854
2019-09-27T00:50:00	0.1995	11.520	177.8	0.464423292	0.549219032	0.007616934	0.078582508	0.024219892
2019-09-27T00:55:00	0.1993	11.520	177.7	0.463624621	0.548137292	0.007593214	0.078337791	0.024144468
2019-09-27T01:00:00	0.2009	11.520	177.7	0.469069800	0.555522414	0.007755656	0.080013674	0.024660991
2019-09-27T01:05:00	0.1991	11.520	177.8	0.462721230	0.546914325	0.007566428	0.078061440	0.024059294
2019-09-27T01:10:00	0.2001	11.521	177.8	0.466434108	0.551944772	0.007676816	0.079200296	0.024410300
2019-09-27T01:15:00	0.2013	11.522	177.8	0.470489344	0.557451562	0.007798283	0.080453445	0.024796533
2019-09-27T01:20:00	0.1987	11.523	177.8	0.461365688	0.545080470	0.007526322	0.077647676	0.023931768
2019-09-27T01:25:00	0.1985	11.523	177.8	0.460913719	0.544469345	0.007512973	0.077509958	0.023889322
2019-09-27T01:30:00	0.1979	11.524	177.8	0.458723958	0.541510765	0.007448463	0.076844423	0.023684198
2019-09-27T01:35:00	0.1995	11.524	177.8	0.464177059	0.548885474	0.007609618	0.078507021	0.024196626
2019-09-27T01:40:00	0.1970	11.524	177.8	0.455732223	0.537474770	0.007360769	0.075939701	0.023405354
2019-09-27T01:45:00	0.1987	11.525	190.1	0.461537536	0.545312875	0.007531401	0.077700071	0.023947916
2019-09-27T01:50:00	0.1972	11.526	190.0	0.456218579	0.538130406	0.007374991	0.076086421	0.023450574
2019-09-27T01:55:00	0.1973	11.527	177.9	0.456461731	0.538458259	0.007382106	0.076159825	0.023473198
2019-09-27T02:00:00	0.1953	11.529	177.9	0.449740745	0.529413215	0.007186679	0.074143642	0.022851790
2019-09-27T02:05:00	0.1977	11.530	177.9	0.457991279	0.540521692	0.007426940	0.076622370	0.023615758
2019-09-27T02:10:00	0.1993	11.533	177.9	0.463445566	0.547894845	0.007587901	0.078282980	0.024127575
2019-09-27T02:15:00	0.1975	11.534	177.9	0.457434161	0.539769899	0.007410594	0.076453734	0.023563783
2019-09-27T02:20:00	0.1973	11.535	177.9	0.456633829	0.538690336	0.007387144	0.076211800	0.023489217
2019-09-27T02:25:00	0.1984	11.536	178.0	0.460353425	0.543711972	0.007496441	0.077339399	0.023836754
2019-09-27T02:30:00	0.2000	11.538	178.0	0.466150778	0.551560513	0.007668365	0.079113103	0.024383427
2019-09-27T02:35:00	0.1986	11.540	178.0	0.461186513	0.544838181	0.007521029	0.077593066	0.023914936
2019-09-27T02:40:00	0.1981	11.543	178.0	0.459344519	0.542348819	0.007466717	0.077032744	0.023742240
2019-09-27T02:45:00	0.2001	11.546	178.0	0.466531217	0.552076489	0.007679714	0.079230191	0.024419514
2019-09-27T02:50:00	0.1984	11.549	178.0	0.460525325	0.543944310	0.007501511	0.077391707	0.023852876
2019-09-27T02:55:00	0.1976	11.551	178.1	0.457639886	0.540047482	0.007416628	0.076515984	0.023582970
2019-09-27T03:00:00	0.1972	11.552	178.1	0.456143869	0.538029680	0.007372805	0.076063874	0.023443625
2019-09-27T03:05:00	0.1982	11.554	178.1	0.459864007	0.543050608	0.007482015	0.077190567	0.023790882
2019-09-27T03:10:00	0.1968	11.554	178.1	0.454890451	0.536340452	0.007336187	0.075686092	0.023327188
2019-09-27T03:15:00	0.1983	11.556	178.1	0.460002279	0.543237440	0.007486089	0.077232601	0.023803838
2019-09-27T03:20:00	0.1988	11.557	178.1	0.461982104	0.545914213	0.007544547	0.077835696	0.023989718
2019-09-27T03:25:00	0.2014	11.558	178.1	0.470895541	0.558003875	0.007810501	0.080579502	0.024835385
2019-09-27T03:30:00	0.2002	11.559	178.1	0.466631977	0.552213165	0.007682721	0.079261216	0.024429077
2019-09-27T03:35:00	0.1990	11.559	178.1	0.462710257	0.546899475	0.007566103	0.078058087	0.024058260
2019-09-27T03:40:00	0.2033	11.559	178.1	0.477503890	0.567007792	0.008010610	0.082643991	0.025471681
2019-09-27T03:45:00	0.2016	11.560	178.1	0.471517513	0.558849835	0.007829229	0.080772711	0.024894934
2019-09-27T03:50:00	0.2013	11.558	178.1	0.470374102	0.557294890	0.007794818	0.080417699	0.024785516
2019-09-27T03:55:00	0.2016	11.556	178.1	0.471655308	0.559037296	0.007833381	0.080815546	0.024908136
2019-09-27T04:00:00	0.2036	11.555	178.1	0.478470273	0.568327409	0.008040083	0.082948058	0.025565397
2019-09-27T04:05:00	0.2018	11.554	178.1	0.472387572	0.560033740	0.007855463	0.081043368	0.024978353
2019-09-27T04:10:00	0.2046	11.554	178.1	0.481866437	0.572970851	0.008144085	0.084021022	0.025896095
2019-09-27T04:15:00	0.2036	11.555	178.1	0.478555764	0.568444184	0.008042693	0.082974983	0.025573696
2019-09-27T04:20:00	0.2028	11.555	178.1	0.475587770	0.564393488	0.007952330	0.082042728	0.025286365
2019-09-27T04:25:00	0.2019	11.556	178.1	0.472617168	0.560346257	0.007862394	0.081114865	0.025000389
2019-09-27T04:30:00	0.2044	11.556	178.1	0.481404845	0.572339194	0.008129911	0.083874788	0.025851024
2019-09-27T04:35:00	0.2034	11.555	178.1	0.477748057	0.567341136	0.008018052	0.082720764	0.025495343
2019-09-27T04:40:00	0.2026	11.554	178.1	0.475125321	0.563762973	0.007938296	0.081897940	0.025241740
2019-09-27T04:45:00	0.2033	11.554	178.1	0.477344131	0.566789709	0.008005743	0.082593777	0.025456204
2019-09-27T04:50:00	0.2031	11.555	178.1	0.476796389	0.566042156	0.007989067	0.082421730	0.025403178
2019-09-27T04:55:00	0.2037	11.555	178.0	0.478668535	0.568598231	0.008046137	0.083010508	0.025584645
2019-09-27T05:00:00	0.2029	11.555	178.0	0.476046512	0.565019118	0.007966264	0.082186480	0.025330671
2019-09-27T05:05:00	0.2029	11.556	178.0	0.476190312	0.565215266	0.007970635	0.082231567	0.025344568
2019-09-27T05:10:00	0.2022	11.557	178.0	0.473566367	0.561638709	0.007891076	0.081410779	0.025091593
2019-09-27T05:15:00	0.2036	11.558	178.1	0.478552123	0.568439211	0.008042582	0.082973837	0.025573342
2019-09-27T05:20:00	0.2021	11.560	178.1	0.473161941	0.561087945	0.007878849	0.081284634	0.025052714
2019-09-27T05:25:00	0.2021	11.561	178.1	0.473305864	0.561283930	0.007883199	0.081329514	0.025066546
2019-09-27T05:30:00	0.2027	11.562	178.1	0.475525868	0.564309080	0.007950451	0.082023340	0.025280390
2019-09-27T05:35:00	0.2018	11.564	178.1	0.472208982	0.559790681	0.007850075	0.080987776	0.024961219
2019-09-27T05:40:00	0.2012	11.566	178.1	0.470274906	0.557160041	0.007791836	0.080386936	0.024776034
2019-09-27T05:45:00	0.2032	11.567	177.9	0.476994749	0.566312848	0.007995104	0.082484015	0.025422374
2019-09-27T05:50:00	0.2022	11.569	178.1	0.473679304	0.561792534	0.007894492	0.081446023	0.025102455
2019-09-27T05:55:00	0.2040	11.571	178.1	0.479701499	0.570009752	0.008077711	0.083336255	0.025685043
2019-09-27T06:00:00	0.2037	11.573	178.2	0.478808583	0.568789554	0.008050414	0.083054635	0.025598245
2019-09-27T06:05:00	0.2035	11.576	178.2	0.478261078	0.568041685	0.008033699	0.082882189	0.025545096
2019-09-27T06:10:00	0.2045	11.580	178.2	0.481513884	0.572488391	0.008133258	0.083909321	0.025861668
2019-09-27T06:15:00	0.2067	11.584	178.2	0.489245175	0.583091258	0.008372327	0.086375759	0.026621848
2019-09-27T06:20:00	0.2049	11.589	178.2	0.482836659	0.574299087	0.008173918	0.084328802	0.025990956
2019-09-27T06:25:00	0.2050	11.595	178.2	0.483325301	0.574968324	0.008188963	0.084484023	0.026038796
2019-09-27T06:30:00	0.2065	11.600	178.3	0.488641320	0.582261395	0.008353531	0.086181841	0.026562080
2019-09-27T06:35:00	0.2055	11.609	178.3	0.484992330	0.577252898	0.008240395	0.085014632	0.026202335
2019-09-27T06:40:00	0.2039	11.618	178.3	0.479612398	0.569887964	0.008074985	0.083308132	0.025676375
2019-09-27T06:45:00	0.2042	11.628	178.3	0.480446928	0.571028893	0.008100534	0.083571720	0.025757616
2019-09-27T06:50:00	0.2033	11.637	178.4	0.477480592	0.566975988	0.008009901	0.082636667	0.025469423
2019-09-27T06:55:00	0.2030	11.645	178.4	0.476241273	0.565284782	0.007972184	0.082247548	0.025349493
2019-09-27T07:00:00	0.2030	11.655	178.4	0.476385064	0.565480941	0.007976555	0.082292649	0.025363394
2019-09-27T07:05:00	0.2034	11.662	178.5	0.477911790	0.567564698	0.008023044	0.082772267	0.025511217
2019-09-27T07:10:00	0.2040	11.668	178.5	0.479783319	0.570121595	0.008080215	0.083362085	0.025693004
2019-09-27T07:15:00	0.2045	11.673	178.5	0.481653815	0.572679870	0.008137554	0.083953647	0.025875329
2019-09-27T07:20:00	0.2034	11.681	178.5	0.477651622	0.567209474	0.008015112	0.082690438	0.025485996
2019-09-27T07:25:00	0.2018	11.694	178.6	0.472260003	0.559860117	0.007851614	0.081003656	0.024966113
2019-09-27T07:30:00	0.2017	11.706	191.0	0.472057718	0.559584831	0.007845512	0.080940705	0.024946711
2019-09-27T07:35:00	0.2030	11.718	191.1	0.476354121	0.565438726	0.007975614	0.082282942	0.025360402
2019-09-27T07:40:00	0.2007	11.729	178.8	0.468534927	0.554795941	0.007739625	0.079848280	0.024610016
2019-09-27T07:45:00	0.2003	11.740	191.2	0.466945550	0.552638565	0.007692084	0.079357808	0.024458847
2019-09-27T07:50:00	0.2012	11.752	191.2	0.470209258	0.557070801	0.007789863	0.080366581	0.024769761
2019-09-27T07:55:00	0.2007	11.766	191.3	0.468274036	0.554441676	0.007731811	0.079767669	0.024585170
2019-09-27T08:00:00	0.2016	11.777	191.4	0.471536459	0.558875609	0.007829800	0.080778600	0.024896749
2019-09-27T08:05:00	0.2016	11.788	191.4	0.471680451	0.559071502	0.007834139	0.080823363	0.024910545
2019-09-27T08:10:00	0.2027	11.797	191.4	0.475285537	0.563981397	0.007943157	0.081948088	0.025257197
2019-09-27T08:15:00	0.2026	11.809	191.5	0.475083433	0.563705871	0.007937026	0.081884832	0.025237700
2019-09-27T08:20:00	0.2018	11.823	191.5	0.472112389	0.559659228	0.007847161	0.080957716	0.024951954
2019-09-27T08:25:00	0.2020	11.841	191.6	0.472948771	0.560797694	0.007872408	0.081218182	0.025032233
2019-09-27T08:30:00	0.2021	11.862	179.3	0.473438842	0.561465027	0.007887220	0.081370992	0.025079330
2019-09-27T08:35:00	0.2009	11.880	191.7	0.469080359	0.555536758	0.007755973	0.080016941	0.024661998
2019-09-27T08:40:00	0.2027	11.898	191.9	0.475456678	0.564214737	0.007948351	0.082001671	0.025273712
2019-09-27T08:45:00	0.2008	11.917	179.5	0.468675396	0.554986706	0.007743833	0.079891700	0.024623398
2019-09-27T08:50:00	0.2019	11.932	179.6	0.472629912	0.560363605	0.007862778	0.081118834	0.025001613
2019-09-27T08:55:00	0.2007	11.947	179.6	0.468270384	0.554436719	0.007731702	0.079766541	0.024584823
2019-09-27T09:00:00	0.2022	11.962	192.1	0.473610076	0.561698241	0.007892398	0.081424418	0.025095797
2019-09-27T09:05:00	0.2006	11.982	179.7	0.468212000	0.554357446	0.007729954	0.079748506	0.024579264
2019-09-27T09:10:00	0.2027	11.999	179.8	0.475281893	0.563976429	0.007943047	0.081946947	0.025256845
2019-09-27T09:15:00	0.2008	12.010	179.9	0.468846871	0.555219601	0.007748972	0.079944720	0.024639739
2019-09-27T09:20:00	0.1988	12.018	179.9	0.461704969	0.545539332	0.007536350	0.077751136	0.023963655
2019-09-27T09:25:00	0.2004	12.025	179.9	0.467401816	0.553257682	0.007705716	0.079498456	0.024502196
2019-09-27T09:30:00	0.2011	12.037	192.4	0.469972198	0.556748580	0.007782740	0.080293097	0.024747112
2019-09-27T09:35:00	0.2021	12.053	180.0	0.473232982	0.561184682	0.007880996	0.081306785	0.025059541
2019-09-27T09:40:00	0.2014	12.069	180.1	0.470953134	0.558082196	0.007812234	0.080597383	0.024840896
2019-09-27T09:45:00	0.2005	12.086	180.2	0.467631752	0.553569750	0.007712591	0.079569383	0.024524057
2019-09-27T09:50:00	0.1998	12.101	180.2	0.465348115	0.550472269	0.007644447	0.078866348	0.024307374
2019-09-27T09:55:00	0.1993	12.117	180.3	0.463410100	0.547846826	0.007586849	0.078272125	0.024124229
2019-09-27T10:00:00	0.2013	12.131	180.4	0.470490050	0.557452522	0.007798304	0.080453664	0.024796601
2019-09-27T10:05:00	0.1991	12.149	180.5	0.462761776	0.546969201	0.007567629	0.078073833	0.024063114
2019-09-27T10:10:00	0.2003	12.163	180.5	0.467174418	0.552949099	0.007698920	0.079428343	0.024480587
2019-09-27T10:15:00	0.2001	12.177	180.6	0.466382606	0.551874919	0.007675279	0.079184443	0.024405414
2019-09-27T10:20:00	0.2013	12.186	180.6	0.470444103	0.557390056	0.007796922	0.080439411	0.024792208
2019-09-27T10:25:00	0.2030	12.193	180.6	0.476230344	0.565269874	0.007971851	0.082244121	0.025348437
2019-09-27T10:30:00	0.2011	12.200	180.7	0.469901442	0.556652415	0.007780615	0.080271170	0.024740354
2019-09-27T10:35:00	0.2015	12.211	180.7	0.471189026	0.558403013	0.007819335	0.080670641	0.024863475
2019-09-27T10:40:00	0.2012	12.230	180.8	0.470051704	0.556856643	0.007785129	0.080317738	0.024754707
2019-09-27T10:45:00	0.1992	12.244	180.9	0.463364057	0.547784486	0.007585483	0.078258034	0.024119886
2019-09-27T10:50:00	0.1982	12.258	180.9	0.459792290	0.542953712	0.007479902	0.077168769	0.023784164
2019-09-27T10:55:00	0.1980	12.267	181.0	0.458998741	0.541881815	0.007456543	0.076927783	0.023709890
2019-09-27T11:00:00	0.1997	12.280	181.0	0.464804634	0.549735710	0.007628273	0.078699486	0.024255946
2019-09-27T11:05:00	0.1964	12.297	181.1	0.453583407	0.534580273	0.007298098	0.075293129	0.023206074
2019-09-27T11:10:00	0.1955	12.313	181.1	0.450349745	0.530231335	0.007204281	0.074325239	0.022907761
2019-09-27T11:15:00	0.1961	12.322	181.2	0.452341498	0.532909060	0.007261996	0.074920679	0.023091281
2019-09-27T11:20:00	0.1976	12.330	181.3	0.457811176	0.540278628	0.007421654	0.076567834	0.023598950
2019-09-27T11:25:00	0.1979	12.334	181.3	0.458755772	0.541553723	0.007449399	0.076854072	0.023687172
2019-09-27T11:30:00	0.1965	12.342	181.3	0.453786805	0.534854098	0.007304019	0.075354215	0.023224901
2019-09-27T11:35:00	0.1981	12.355	181.4	0.459254131	0.542226733	0.007464057	0.077005300	0.023733781
2019-09-27T11:40:00	0.1955	12.365	181.5	0.450454662	0.530372308	0.007207316	0.074356546	0.022917410
2019-09-27T11:45:00	0.1946	12.381	181.5	0.447217980	0.526027290	0.007113987	0.073393696	0.022620650
2019-09-27T11:50:00	0.1953	12.390	181.6	0.449560199	0.529170729	0.007181465	0.074089846	0.022835210
2019-09-27T11:55:00	0.1952	12.399	181.6	0.449461492	0.529038170	0.007178615	0.074060444	0.022826148
2019-09-27T12:00:00	0.1944	12.402	181.7	0.446572766	0.525162121	0.007095454	0.073202491	0.022561719
2019-09-27T12:05:00	0.1938	12.401	181.7	0.444379870	0.522224110	0.007032641	0.072554466	0.022361991
2019-09-27T12:10:00	0.1944	12.407	181.8	0.446375174	0.524897235	0.007089783	0.073143985	0.022543687
2019-09-27T12:15:00	0.1925	12.414	181.7	0.440233667	0.516354069	0.006910271	0.071291992	0.021972884
2019-09-27T12:20:00	0.1939	12.425	181.8	0.444781525	0.522761959	0.007044126	0.072672949	0.022398509
2019-09-27T12:25:00	0.1919	12.433	181.8	0.438449096	0.513293060	0.006850729	0.070677713	0.021783558
2019-09-27T12:30:00	0.1924	12.445	181.9	0.440002906	0.515957753	0.006902554	0.071212377	0.021948346
2019-09-27T12:35:00	0.1933	12.452	181.9	0.442738943	0.520028091	0.006985818	0.072071396	0.022213104
2019-09-27T12:40:00	0.1924	12.454	194.5	0.439849049	0.515693595	0.006897412	0.071159325	0.021931995
2019-09-27T12:45:00	0.1919	12.456	182.0	0.438413030	0.513231290	0.006849529	0.070665332	0.021779742
2019-09-27T12:50:00	0.1923	12.457	182.0	0.439695177	0.515429479	0.006892271	0.071106292	0.021915650
2019-09-27T12:55:00	0.1917	12.456	182.0	0.437987052	0.512501985	0.006835365	0.070519200	0.021734702
2019-09-27T13:00:00	0.1932	12.457	182.0	0.442244375	0.519366636	0.006971735	0.071926110	0.022168326
2019-09-27T13:05:00	0.1922	12.457	181.9	0.439464343	0.515033383	0.006884564	0.071026779	0.021891143
2019-09-27T13:10:00	0.1919	12.456	181.9	0.438571885	0.513503391	0.006854816	0.070719875	0.021796552
2019-09-27T13:15:00	0.1921	12.453	194.5	0.439038632	0.514303284	0.006870364	0.070880282	0.021845991
2019-09-27T13:20:00	0.1952	12.452	181.9	0.449177833	0.528657270	0.007170428	0.073975981	0.022800116
2019-09-27T13:25:00	0.1959	12.452	181.9	0.451867048	0.532270923	0.007248228	0.074778630	0.023047500
2019-09-27T13:30:00	0.1997	12.448	181.9	0.464979961	0.549973299	0.007633489	0.078753296	0.024272531
2019-09-27T13:35:00	0.1986	12.442	181.9	0.461062533	0.544670544	0.007517367	0.077555289	0.023903293
2019-09-27T13:40:00	0.1988	12.437	181.8	0.462006217	0.545946833	0.007545260	0.077843056	0.023991986
2019-09-27T13:45:00	0.1994	12.442	193.8	0.463991075	0.548633564	0.007604093	0.078450028	0.024179061
2019-09-27T13:50:00	0.1985	12.446	181.1	0.460767418	0.544271559	0.007508655	0.077465405	0.023875590
2019-09-27T13:55:00	0.1991	12.452	180.8	0.462753006	0.546957331	0.007567369	0.078071153	0.024062288
2019-09-27T14:00:00	0.1995	12.452	180.7	0.464390391	0.549174461	0.007615957	0.078572420	0.024216783
2019-09-27T14:05:00	0.1981	12.452	180.8	0.459429748	0.542463942	0.007469226	0.077058626	0.023750217
2019-09-27T14:10:00	0.1972	12.451	180.9	0.456201714	0.538107668	0.007374497	0.076081331	0.023449005
2019-09-27T14:15:00	0.1951	12.450	181.0	0.449137833	0.528603562	0.007169274	0.073964074	0.022796446
2019-09-27T14:20:00	0.1968	12.453	181.1	0.454960774	0.536435193	0.007338239	0.075707263	0.023333714
2019-09-27T14:25:00	0.1961	12.453	181.2	0.452425090	0.533021510	0.007264424	0.074945720	0.023098999
2019-09-27T14:30:00	0.1965	12.454	181.2	0.453719375	0.534763317	0.007302056	0.075333961	0.023218658
2019-09-27T14:35:00	0.1953	12.453	181.2	0.449788792	0.529477749	0.007188067	0.074157961	0.022856204
2019-09-27T14:40:00	0.1961	12.451	181.3	0.452477517	0.533092038	0.007265946	0.074961427	0.023103840
2019-09-27T14:45:00	0.1945	12.444	181.2	0.446801563	0.525468877	0.007102023	0.073270266	0.022582607
2019-09-27T14:50:00	0.1957	12.438	181.1	0.451235198	0.531421357	0.007229911	0.074589660	0.022989258
2019-09-27T14:55:00	0.1970	12.433	181.0	0.455662980	0.537381441	0.007358746	0.075918824	0.023398919
2019-09-27T15:00:00	0.1960	12.430	180.9	0.452083017	0.532561380	0.007254494	0.074843274	0.023067424
2019-09-27T15:05:00	0.1954	12.425	180.9	0.449893726	0.529618699	0.007191099	0.074189239	0.022865844
2019-09-27T15:10:00	0.1948	12.420	180.8	0.448051766	0.527145800	0.007137972	0.073641144	0.022696916
2019-09-27T15:15:00	0.1963	12.414	180.8	0.453180242	0.534037609	0.007286368	0.075172120	0.023168778
2019-09-27T15:20:00	0.1968	12.408	180.8	0.454822294	0.536248633	0.007334199	0.075665575	0.023320865
2019-09-27T15:25:00	0.1978	12.402	180.7	0.458202444	0.540806708	0.007433140	0.076686335	0.023635473
2019-09-27T15:30:00	0.1999	12.396	180.6	0.465744716	0.551009913	0.007656260	0.078988224	0.024344938
2019-09-27T15:35:00	0.2024	12.394	180.5	0.474308407	0.562649587	0.007913535	0.081642482	0.025163006
2019-09-27T15:40:00	0.2005	12.392	180.3	0.467629199	0.553566285	0.007712515	0.079568595	0.024523814
2019-09-27T15:45:00	0.2021	12.393	180.1	0.473420260	0.561439720	0.007886658	0.081365196	0.025077543
2019-09-27T15:50:00	0.2009	12.388	180.1	0.469166088	0.555653218	0.007758544	0.080043466	0.024670174
2019-09-27T15:55:00	0.2013	12.385	180.1	0.470453952	0.557403445	0.007797218	0.080442466	0.024793149
2019-09-27T16:00:00	0.2021	12.381	180.0	0.473126224	0.561039311	0.007877770	0.081273498	0.025049281
2019-09-27T16:05:00	0.2010	12.376	179.9	0.469420709	0.555999147	0.007766183	0.080122274	0.024694463
2019-09-27T16:10:00	0.2028	12.372	179.7	0.475756701	0.564623856	0.007957460	0.082095650	0.025302677
2019-09-27T16:15:00	0.2036	12.368	179.6	0.478626691	0.568541071	0.008044859	0.082997326	0.025580582
2019-09-27T16:20:00	0.2003	12.362	179.5	0.466960516	0.552658868	0.007692530	0.079362419	0.024460268
2019-09-27T16:25:00	0.2013	12.356	179.3	0.470530896	0.557508055	0.007799532	0.080466335	0.024800506
2019-09-27T16:30:00	0.1989	12.347	179.0	0.462311096	0.546359319	0.007554282	0.077936138	0.024020675
2019-09-27T16:35:00	0.1982	12.337	191.2	0.459636453	0.542743174	0.007475312	0.077121415	0.023769569
2019-09-27T16:40:00	0.1998	12.326	191.1	0.465296989	0.550402970	0.007642925	0.078850644	0.024302534
2019-09-27T16:45:00	0.2017	12.316	178.7	0.471987006	0.559488608	0.007843380	0.080918705	0.024939931
2019-09-27T16:50:00	0.2027	12.305	191.0	0.475206155	0.563873172	0.007940749	0.081923239	0.025249538
2019-09-27T16:55:00	0.2004	12.292	178.7	0.467344516	0.553179921	0.007704004	0.079480786	0.024496750
2019-09-27T17:00:00	0.2003	12.280	191.1	0.467102150	0.552851039	0.007696761	0.079406067	0.024473721
2019-09-27T17:05:00	0.1996	12.268	178.8	0.464778340	0.549700081	0.007627491	0.078691417	0.024253459
2019-09-27T17:10:00	0.2011	12.258	178.8	0.469737320	0.556429369	0.007775686	0.080220322	0.024724682
2019-09-27T17:15:00	0.1988	12.248	178.9	0.461862913	0.545752976	0.007541021	0.077799323	0.023978507
2019-09-27T17:20:00	0.1990	12.239	178.9	0.462662002	0.546834167	0.007564673	0.078043339	0.024053715
2019-09-27T17:25:00	0.1997	12.228	178.9	0.464849203	0.549796105	0.007629599	0.078713163	0.024260161
2019-09-27T17:30:00	0.2012	12.218	191.2	0.470154556	0.556996444	0.007788219	0.080349621	0.024764534
2019-09-27T17:35:00	0.1985	12.207	178.9	0.460891763	0.544439660	0.007512325	0.077503271	0.023887261
2019-09-27T17:40:00	0.1996	12.198	191.2	0.464468574	0.549280379	0.007618280	0.078596394	0.024224172
2019-09-27T17:45:00	0.2012	12.189	178.9	0.470121005	0.556950839	0.007787211	0.080339220	0.024761328
2019-09-27T17:50:00	0.2017	12.178	178.8	0.471957120	0.559447941	0.007842479	0.080909407	0.024937065
2019-09-27T17:55:00	0.1989	12.167	178.8	0.462352041	0.546414721	0.007555494	0.077948642	0.024024529
2019-09-27T18:00:00	0.1999	12.157	178.8	0.465580391	0.550787135	0.007651364	0.078937715	0.024329371
2019-09-27T18:05:00	0.1975	12.147	178.8	0.457348488	0.539654311	0.007408082	0.076427818	0.023555796
2019-09-27T18:10:00	0.1973	12.137	178.8	0.456757579	0.538857228	0.007390767	0.076249184	0.023500739
2019-09-27T18:15:00	0.1986	12.127	178.8	0.461033652	0.544631495	0.007516514	0.077546491	0.023900582
2019-09-27T18:20:00	0.2016	12.117	178.8	0.471543755	0.558885534	0.007830019	0.080780867	0.024897448
2019-09-27T18:25:00	0.2020	12.106	178.8	0.473032951	0.560912308	0.007874951	0.081244420	0.025040319
2019-09-27T18:30:00	0.2031	12.094	178.8	0.476596921	0.565769983	0.007982998	0.082359121	0.025383881
2019-09-27T18:35:00	0.2040	12.084	178.7	0.479811688	0.570160374	0.008081083	0.083371041	0.025695765
2019-09-27T18:40:00	0.2044	12.074	178.7	0.481297250	0.572191982	0.008126608	0.083840720	0.025840524
2019-09-27T18:45:00	0.2037	12.063	178.7	0.478983185	0.569028103	0.008055748	0.083109667	0.025615206
2019-09-27T18:50:00	0.2015	12.053	178.6	0.471130339	0.558323193	0.007817568	0.080652412	0.024857857
2019-09-27T18:55:00	0.2039	12.043	190.9	0.479536756	0.569784578	0.008072671	0.083284261	0.025669018
2019-09-27T19:00:00	0.2030	12.034	178.5	0.476529946	0.565678603	0.007980961	0.082338104	0.025377403
2019-09-27T19:05:00	0.2032	12.024	190.8	0.476979828	0.566292485	0.007994650	0.082479329	0.025420930
2019-09-27T19:10:00	0.2058	12.015	190.8	0.486061489	0.578719292	0.008273465	0.085355809	0.026307489
2019-09-27T19:15:00	0.2053	12.006	190.7	0.484440744	0.576496732	0.008223359	0.084838882	0.026148167
2019-09-27T19:20:00	0.2051	11.996	178.4	0.483509481	0.575220624	0.008194638	0.084542566	0.026056840
2019-09-27T19:25:00	0.2047	11.987	190.6	0.482232757	0.573472255	0.008155342	0.084137162	0.025931891
2019-09-27T19:30:00	0.2043	11.979	178.3	0.480955551	0.571724529	0.008116126	0.083732572	0.025807192
2019-09-27T19:35:00	0.2021	11.971	190.5	0.473453426	0.561484888	0.007887661	0.081375542	0.025080732
2019-09-27T19:40:00	0.2030	11.962	178.2	0.476325371	0.565399505	0.007974740	0.082273924	0.025357622
2019-09-27T19:45:00	0.2031	11.952	190.4	0.476775280	0.566013351	0.007988425	0.082415103	0.025401135
2019-09-27T19:50:00	0.2036	11.943	178.1	0.478607785	0.568515245	0.008044282	0.082991370	0.025578746
2019-09-27T19:55:00	0.2043	11.935	178.0	0.480784689	0.571490820	0.008110886	0.083678520	0.025790532
2019-09-27T20:00:00	0.2028	11.927	178.1	0.475704283	0.564552372	0.007955868	0.082079227	0.025297615
2019-09-27T20:05:00	0.2030	11.919	178.1	0.476500101	0.565637884	0.007980053	0.082328739	0.025374517
2019-09-27T20:10:00	0.2037	11.910	190.3	0.478678359	0.568611652	0.008046437	0.083013603	0.025585599
2019-09-27T20:15:00	0.2014	11.902	177.9	0.470824804	0.557907684	0.007808373	0.080557543	0.024828617
2019-09-27T20:20:00	0.2043	11.895	178.0	0.480959189	0.571729505	0.008116237	0.083733723	0.025807547
2019-09-27T20:25:00	0.2031	11.888	177.9	0.476916503	0.566206065	0.007992722	0.082459443	0.025414801
2019-09-27T20:30:00	0.2040	11.882	190.1	0.479785511	0.570124590	0.008080282	0.083362776	0.025693217
2019-09-27T20:35:00	0.2024	11.875	190.2	0.474357593	0.562716609	0.007915025	0.081657852	0.025167743
2019-09-27T20:40:00	0.2037	11.868	177.9	0.478957001	0.568992328	0.008054948	0.083101413	0.025612662
2019-09-27T20:45:00	0.2033	11.862	190.2	0.477332854	0.566774315	0.008005400	0.082590233	0.025455112
2019-09-27T20:50:00	0.2042	11.856	177.9	0.480546922	0.571165636	0.008103598	0.083603331	0.025767359
2019-09-27T20:55:00	0.2010	11.851	177.9	0.469580490	0.556216253	0.007770978	0.080171748	0.024709711
2019-09-27T21:00:00	0.1993	11.845	177.8	0.463441909	0.547889894	0.007587793	0.078281860	0.024127230
2019-09-27T21:05:00	0.2013	11.840	190.1	0.470482046	0.557441640	0.007798063	0.080451181	0.024795835
2019-09-27T21:10:00	0.2001	11.834	190.1	0.466426801	0.551934862	0.007676598	0.079198047	0.024409607
2019-09-27T21:15:00	0.2008	11.829	190.1	0.468958161	0.555370765	0.007752309	0.079979139	0.024650347
2019-09-27T21:20:00	0.2015	11.824	177.9	0.471141284	0.558338079	0.007817898	0.080655812	0.024858905
2019-09-27T21:25:00	0.2014	11.820	177.9	0.470899190	0.558008837	0.007810611	0.080580635	0.024835734
2019-09-27T21:30:00	0.2019	11.815	190.1	0.472734882	0.560506499	0.007865948	0.081151533	0.025011691
2019-09-27T21:35:00	0.2022	11.810	177.9	0.473531399	0.561591083	0.007890019	0.081399868	0.025088230
2019-09-27T21:40:00	0.2017	11.806	177.9	0.471904643	0.559376536	0.007840896	0.080893084	0.024932034
2019-09-27T21:45:00	0.2005	11.802	177.9	0.467851109	0.553867499	0.007719153	0.079637075	0.024544920
2019-09-27T21:50:00	0.2019	11.798	177.9	0.472459374	0.560131470	0.007857630	0.081065724	0.024985243
2019-09-27T21:55:00	0.2006	11.794	177.9	0.468059850	0.554150874	0.007725399	0.079701518	0.024564782
2019-09-27T22:00:00	0.2002	11.791	177.9	0.466777278	0.552410273	0.007687059	0.079305967	0.024442869
2019-09-27T22:05:00	0.1998	11.787	190.1	0.465392874	0.550532939	0.007645780	0.078880098	0.024311612
2019-09-27T22:10:00	0.1992	11.783	177.9	0.463313648	0.547716239	0.007583988	0.078242609	0.024115132
2019-09-27T22:15:00	0.1999	11.780	177.9	0.465746012	0.551011671	0.007656299	0.078988623	0.024345061
2019-09-27T22:20:00	0.2001	11.776	177.9	0.466442868	0.551956655	0.007677077	0.079202992	0.024411131
2019-09-27T22:25:00	0.2004	11.771	177.9	0.467486331	0.553372380	0.007708243	0.079524522	0.024510230
2019-09-27T22:30:00	0.2004	11.766	177.9	0.467489433	0.553376590	0.007708336	0.079525479	0.024510525
2019-09-27T22:35:00	0.1995	11.759	177.9	0.464370501	0.549147515	0.007615365	0.078566321	0.024214903
2019-09-27T22:40:00	0.1992	11.752	177.8	0.463332286	0.547741472	0.007584541	0.078248312	0.024116890
2019-09-27T22:45:00	0.1993	11.744	177.8	0.463682534	0.548215715	0.007594933	0.078355524	0.024149933
2019-09-27T22:50:00	0.2001	11.736	177.8	0.466461489	0.551981911	0.007677633	0.079208725	0.024412898
2019-09-27T22:55:00	0.1996	11.729	177.8	0.464729957	0.549634521	0.007626052	0.078676571	0.024248883
2019-09-27T23:00:00	0.1991	11.720	177.7	0.462997534	0.547288303	0.007574616	0.078145912	0.024085329
2019-09-27T23:05:00	0.2006	11.710	177.7	0.468204540	0.554347317	0.007729730	0.079746202	0.024578554
2019-09-27T23:10:00	0.2004	11.699	177.7	0.467514253	0.553410275	0.007709078	0.079533135	0.024512885
2019-09-27T23:15:00	0.2017	11.690	177.6	0.472021833	0.559535999	0.007844430	0.080929540	0.024943270
2019-09-27T23:20:00	0.2016	11.678	177.6	0.471678646	0.559069047	0.007834084	0.080822802	0.024910373
2019-09-27T23:25:00	0.2019	11.665	177.5	0.472720491	0.560486909	0.007865513	0.081147050	0.025010309
2019-09-27T23:30:00	0.2039	11.652	177.5	0.479640416	0.569926260	0.008075842	0.083316975	0.025679101
2019-09-27T23:35:00	0.2032	11.639	177.5	0.477224228	0.566626046	0.008002091	0.082556100	0.025444592
2019-09-27T23:40:00	0.2045	11.625	177.4	0.481718890	0.572768923	0.008139553	0.083974265	0.025881684
2019-09-27T23:45:00	0.2041	11.610	177.3	0.480340594	0.570883487	0.008097277	0.083538112	0.025747257
2019-09-27T23:50:00	0.2040	11.595	177.3	0.479998250	0.570415414	0.008086793	0.083429953	0.025713922
2019-09-27T23:55:00	0.2033	11.581	177.2	0.477582318	0.567114860	0.008013000	0.082668647	0.025479280
2019-09-28T00:00:00	0.2057	11.564	177.1	0.485872019	0.578459358	0.008267599	0.085295298	0.026288839
2019-09-28T00:05:00	0.2039	11.547	189.2	0.479662055	0.569955838	0.008076504	0.083323805	0.025681206
2019-09-28T00:10:00	0.2053	11.531	177.0	0.484498497	0.576575894	0.008225142	0.084857275	0.026153836
2019-09-28T00:15:00	0.2054	11.517	176.9	0.484846559	0.577053038	0.008235891	0.084968168	0.026188015
2019-09-28T00:20:00	0.2073	11.502	176.9	0.491397524	0.586051547	0.008439494	0.087068709	0.026835422
2019-09-28T00:25:00	0.2054	11.486	176.8	0.484852733	0.577061501	0.008236082	0.084970136	0.026188621
2019-09-28T00:30:00	0.2052	11.470	176.7	0.484165835	0.576119953	0.008214875	0.084751356	0.026121191
2019-09-28T00:35:00	0.2064	11.456	176.7	0.488306721	0.581801692	0.008343125	0.086074484	0.026528992
2019-09-28T00:40:00	0.2059	11.441	176.6	0.486586336	0.579439474	0.008289723	0.085523539	0.026359185
2019-09-28T00:45:00	0.2064	11.425	176.6	0.487968265	0.581336779	0.008332606	0.085965956	0.026495543
2019-09-28T00:50:00	0.2061	11.410	176.5	0.486937269	0.579921140	0.008300602	0.085635781	0.026393779
2019-09-28T00:55:00	0.2041	11.395	176.4	0.480038434	0.570470350	0.008088023	0.083442645	0.025717834
2019-09-28T01:00:00	0.2057	11.378	176.3	0.485564179	0.578037097	0.008258074	0.085197029	0.026258552
2019-09-28T01:05:00	0.2058	11.363	188.4	0.485912132	0.578514387	0.008268841	0.085308107	0.026292787
2019-09-28T01:10:00	0.2053	11.347	176.2	0.484190533	0.576153800	0.008215637	0.084759217	0.026123614
2019-09-28T01:15:00	0.2050	11.332	188.3	0.483158389	0.574739702	0.008183822	0.084430986	0.026022450
2019-09-28T01:20:00	0.2047	11.317	188.2	0.482125931	0.573326024	0.008152059	0.084103285	0.025921449
2019-09-28T01:25:00	0.2040	11.304	188.1	0.479711516	0.570023445	0.008078017	0.083339417	0.025686018
2019-09-28T01:30:00	0.2045	11.292	188.1	0.481441570	0.572389443	0.008131038	0.083886418	0.025854609
2019-09-28T01:35:00	0.2043	11.279	188.1	0.480753981	0.571448820	0.008109945	0.083668807	0.025787539
2019-09-28T01:40:00	0.2051	11.265	175.9	0.483518940	0.575233582	0.008194929	0.084545573	0.026057767
2019-09-28T01:45:00	0.2048	11.249	175.8	0.482486592	0.573819757	0.008163147	0.084217687	0.025956709
2019-09-28T01:50:00	0.2044	11.233	175.7	0.481108608	0.571933903	0.008120820	0.083781006	0.025822120
2019-09-28T01:55:00	0.2054	11.215	175.6	0.484563322	0.576664752	0.008227144	0.084877923	0.026160200
2019-09-28T02:00:00	0.2056	11.199	175.6	0.485256311	0.577614873	0.008248554	0.085098808	0.026228279
2019-09-28T02:05:00	0.2054	11.183	175.5	0.484569495	0.576673215	0.008227334	0.084879890	0.026160806
2019-09-28T02:10:00	0.2074	11.168	175.4	0.491465298	0.586144822	0.008441614	0.087090573	0.026842161
2019-09-28T02:15:00	0.2084	11.152	175.3	0.494909500	0.590889806	0.008549663	0.088205298	0.027185729
2019-09-28T02:20:00	0.2082	11.137	175.3	0.494224633	0.589945524	0.008528123	0.087983077	0.027117239
2019-09-28T02:25:00	0.2078	11.125	175.3	0.492851404	0.588053278	0.008485016	0.087538343	0.026980167
2019-09-28T02:30:00	0.2088	11.109	175.2	0.496294204	0.592800157	0.008593296	0.088655447	0.027324470
2019-09-28T02:35:00	0.2069	11.093	175.1	0.489758841	0.583797403	0.008388333	0.086540884	0.026672741
2019-09-28T02:40:00	0.2085	11.077	175.0	0.495268807	0.591385361	0.008560974	0.088321994	0.027221696
2019-09-28T02:45:00	0.2064	11.062	175.0	0.488042275	0.581438433	0.008334905	0.085989682	0.026502855
2019-09-28T02:50:00	0.2068	11.046	174.9	0.489423611	0.583336533	0.008377886	0.086433102	0.026639521
2019-09-28T02:55:00	0.2061	11.031	174.8	0.487014386	0.580026998	0.008302994	0.085660456	0.026401384
2019-09-28T03:00:00	0.2057	11.014	174.7	0.485638241	0.578138681	0.008260365	0.085220666	0.026265837
2019-09-28T03:05:00	0.2063	10.998	174.7	0.487709960	0.580982025	0.008324582	0.085883175	0.026470029
2019-09-28T03:10:00	0.2062	10.985	174.6	0.487368359	0.580512957	0.008313976	0.085773760	0.026436306
2019-09-28T03:15:00	0.2073	10.969	174.5	0.491161046	0.585726119	0.008432102	0.086992440	0.026811915
2019-09-28T03:20:00	0.2059	10.956	174.5	0.486340267	0.579101797	0.008282098	0.085444880	0.026334942
2019-09-28T03:25:00	0.2091	10.941	174.4	0.497359272	0.594270582	0.008626932	0.089002463	0.027431423
2019-09-28T03:30:00	0.2076	10.927	174.3	0.492203081	0.587160444	0.008464702	0.087328766	0.026915574
2019-09-28T03:35:00	0.2061	10.914	174.3	0.487039063	0.580060873	0.008303759	0.085668352	0.026403818
2019-09-28T03:40:00	0.2072	10.902	174.2	0.490832117	0.585273540	0.008421824	0.086886409	0.026779235
2019-09-28T03:45:00	0.2071	10.892	174.2	0.490490831	0.584804049	0.008411167	0.086776463	0.026745349
2019-09-28T03:50:00	0.2059	10.882	174.2	0.486358779	0.579127198	0.008282672	0.085450796	0.026336765
2019-09-28T03:55:00	0.2059	10.872	174.1	0.486361864	0.579131432	0.008282767	0.085451782	0.026337069
2019-09-28T04:00:00	0.2072	10.862	174.0	0.490844442	0.585290496	0.008422209	0.086890381	0.026780459
2019-09-28T04:05:00	0.2081	10.851	174.0	0.494140081	0.589828972	0.008525466	0.087955662	0.027108789
2019-09-28T04:10:00	0.2045	10.842	173.9	0.481586236	0.572587394	0.008135479	0.083932238	0.025868731
2019-09-28T04:15:00	0.2052	10.833	173.9	0.483855847	0.575695168	0.008205314	0.084652715	0.026090789
2019-09-28T04:20:00	0.2048	10.823	173.9	0.482673906	0.574076225	0.008168909	0.084277133	0.025975031
2019-09-28T04:25:00	0.2054	10.812	173.8	0.484597824	0.576712048	0.008228209	0.084888914	0.026163588
2019-09-28T04:30:00	0.2052	10.803	173.8	0.484106278	0.576038335	0.008213038	0.084732400	0.026115349
2019-09-28T04:35:00	0.2057	10.795	173.7	0.485684529	0.578202172	0.008261797	0.085235441	0.026270391
2019-09-28T04:40:00	0.2063	10.787	173.7	0.487951402	0.581313617	0.008332082	0.085960551	0.026493877
2019-09-28T04:45:00	0.2078	10.784	173.7	0.492970951	0.588217948	0.008488764	0.087577014	0.026992086
2019-09-28T04:50:00	0.2091	10.777	173.6	0.497295780	0.594182901	0.008624925	0.088981757	0.027425042
2019-09-28T04:55:00	0.2084	10.771	173.6	0.495086899	0.591134461	0.008555247	0.088262904	0.027203484
2019-09-28T05:00:00	0.2101	10.764	173.6	0.500782706	0.599003127	0.008735490	0.090122442	0.027776612
2019-09-28T05:05:00	0.2090	10.757	173.6	0.497201534	0.594052753	0.008621946	0.088951027	0.027415570
2019-09-28T05:10:00	0.2090	10.751	173.5	0.497055546	0.593851167	0.008617333	0.088903435	0.027400902
2019-09-28T05:15:00	0.2087	10.744	173.5	0.496222009	0.592700518	0.008591018	0.088631949	0.027317228
2019-09-28T05:20:00	0.2094	10.737	173.5	0.498481873	0.595821425	0.008662455	0.089368954	0.027544380
2019-09-28T05:25:00	0.2085	10.729	173.4	0.495242203	0.591348665	0.008560137	0.088313351	0.027219032
2019-09-28T05:30:00	0.2071	10.723	173.4	0.490622240	0.584984811	0.008415270	0.086818789	0.026758394
2019-09-28T05:35:00	0.2077	10.717	173.4	0.492541662	0.587626677	0.008475307	0.087438184	0.026949298
2019-09-28T05:40:00	0.2077	10.713	173.3	0.492739649	0.587899351	0.008481512	0.087502199	0.026969027
2019-09-28T05:45:00	0.2086	10.707	173.1	0.495689612	0.591965866	0.008574231	0.088458762	0.027263849
2019-09-28T05:50:00	0.2102	10.701	173.3	0.501041110	0.599360726	0.008743712	0.090207262	0.027802754
2019-09-28T05:55:00	0.2101	10.696	173.2	0.500895287	0.599158917	0.008739072	0.090159391	0.027788000
2019-09-28T06:00:00	0.2098	10.694	173.2	0.499719253	0.597532003	0.008701695	0.089773785	0.027669152
2019-09-28T06:05:00	0.2105	10.697	173.2	0.502320010	0.601131356	0.008784459	0.090627642	0.027932319
2019-09-28T06:10:00	0.2105	10.702	173.3	0.502174240	0.600929473	0.008779810	0.090579678	0.027917536
2019-09-28T06:15:00	0.2095	10.707	173.3	0.498938078	0.596451949	0.008676912	0.089518104	0.027590349
2019-09-28T06:20:00	0.2092	10.712	173.3	0.497761369	0.594825952	0.008639647	0.089133648	0.027471856
2019-09-28T06:25:00	0.2087	10.713	173.3	0.495896646	0.592251524	0.008580757	0.088526089	0.027284600
2019-09-28T06:30:00	0.2078	10.713	173.3	0.492998664	0.588256123	0.008489633	0.087585981	0.026994850
2019-09-28T06:35:00	0.2104	10.715	173.3	0.501788564	0.600395412	0.008767515	0.090452835	0.027878442
2019-09-28T06:40:00	0.2093	10.718	173.3	0.498208448	0.595443601	0.008653796	0.089279621	0.027516846
2019-09-28T06:45:00	0.2108	10.723	173.3	0.503212914	0.602368358	0.008812964	0.090921721	0.028022957
2019-09-28T06:50:00	0.2098	10.730	173.4	0.499977737	0.597889493	0.008709903	0.089858468	0.027695253
2019-09-28T06:55:00	0.2111	10.739	173.4	0.504293694	0.603866497	0.008847528	0.091278313	0.028132863
2019-09-28T07:00:00	0.2100	10.750	173.4	0.500372836	0.598436027	0.008722457	0.089987985	0.027735171
2019-09-28T07:05:00	0.2100	10.758	173.5	0.500570369	0.598709318	0.008728737	0.090052772	0.027755139
2019-09-28T07:10:00	0.2109	10.768	173.5	0.503513566	0.602785017	0.008822572	0.091020848	0.028053509
2019-09-28T07:15:00	0.2110	10.774	173.5	0.504053952	0.603534093	0.008839855	0.091199153	0.028108465
2019-09-28T07:20:00	0.2098	10.784	173.6	0.499789390	0.597628999	0.008703922	0.089796759	0.027676233
2019-09-28T07:25:00	0.2114	10.796	173.6	0.505477358	0.605508328	0.008885460	0.091669649	0.028253476
2019-09-28T07:30:00	0.2119	10.807	173.8	0.507045739	0.607685531	0.008935845	0.092189466	0.028413689
2019-09-28T07:35:00	0.2119	10.819	173.8	0.506900171	0.607483373	0.008931163	0.092141158	0.028398800
2019-09-28T07:40:00	0.2116	10.833	173.8	0.506069036	0.606329454	0.008904451	0.091865580	0.028313864
2019-09-28T07:45:00	0.2120	10.849	173.9	0.507294471	0.608030999	0.008943849	0.092272039	0.028439139
2019-09-28T07:50:00	0.2101	10.867	174.0	0.500974616	0.599268700	0.008741596	0.090185432	0.027796026
2019-09-28T07:55:00	0.2126	10.885	174.1	0.509401560	0.610959574	0.009011795	0.092973026	0.028655190
2019-09-28T08:00:00	0.2108	10.905	174.2	0.503428701	0.602667399	0.008819859	0.090992862	0.028044884
2019-09-28T08:05:00	0.2100	10.925	174.3	0.500537117	0.598663311	0.008727680	0.090041865	0.027751777
2019-09-28T08:10:00	0.2137	10.946	174.3	0.513072973	0.616070917	0.009130799	0.094200768	0.029033592
2019-09-28T08:15:00	0.2117	10.967	174.4	0.506421035	0.606818089	0.008915759	0.091982241	0.028349820
2019-09-28T08:20:00	0.2124	10.986	174.5	0.508674161	0.609948180	0.008988310	0.092730735	0.028580513
2019-09-28T08:25:00	0.2108	11.010	174.6	0.503386267	0.602608591	0.008818503	0.090978870	0.028040571
2019-09-28T08:30:00	0.2113	11.032	174.7	0.504955608	0.604784483	0.008868730	0.091497049	0.028200279
2019-09-28T08:35:00	0.2115	11.056	174.8	0.505838621	0.606009652	0.008897053	0.091789255	0.028290340
2019-09-28T08:40:00	0.2138	11.082	175.0	0.513569544	0.616763078	0.009146954	0.094367443	0.029084962
2019-09-28T08:45:00	0.2115	11.107	175.1	0.505547377	0.605605485	0.008887706	0.091692825	0.028260619
2019-09-28T08:50:00	0.2132	11.135	175.2	0.511568060	0.613974460	0.009081925	0.093696543	0.028878184
2019-09-28T08:55:00	0.2140	11.164	175.3	0.514159825	0.617586121	0.009166177	0.094565763	0.029146087
2019-09-28T09:00:00	0.2132	11.192	175.4	0.511619580	0.614046200	0.009083596	0.093713782	0.028883498
2019-09-28T09:05:00	0.2141	11.230	187.7	0.514553289	0.618134894	0.009179002	0.094698074	0.029186866
2019-09-28T09:10:00	0.2126	11.270	187.9	0.509274480	0.610782848	0.009007690	0.092930674	0.028642136
2019-09-28T09:15:00	0.2121	11.308	188.1	0.507758698	0.608675906	0.008958796	0.092426251	0.028486668
2019-09-28T09:20:00	0.2119	11.365	176.2	0.506927771	0.607521701	0.008932050	0.092150316	0.028401622
2019-09-28T09:25:00	0.2130	11.424	176.5	0.510892652	0.613034160	0.009060032	0.093470685	0.028808573
2019-09-28T09:30:00	0.2127	11.465	176.7	0.509720054	0.611402550	0.009022087	0.093079213	0.028687918
2019-09-28T09:35:00	0.2118	11.506	176.9	0.506833790	0.607391191	0.008929028	0.092119133	0.028392011
2019-09-28T09:40:00	0.2107	11.551	177.1	0.502915849	0.601956742	0.008803475	0.090823830	0.027992786
2019-09-28T09:45:00	0.2124	11.599	177.2	0.508598619	0.609843169	0.008985873	0.092705591	0.028572763
2019-09-28T09:50:00	0.2105	11.637	177.4	0.502281177	0.601077573	0.008783220	0.090614863	0.027928381
2019-09-28T09:55:00	0.2106	11.659	177.5	0.502478599	0.601351014	0.008789518	0.090679839	0.027948407
2019-09-28T10:00:00	0.2111	11.673	177.6	0.504391358	0.604001921	0.008850654	0.091310571	0.028142805
2019-09-28T10:05:00	0.2128	11.689	177.7	0.510265587	0.612161492	0.009039731	0.093261237	0.028744019
2019-09-28T10:10:00	0.2118	11.706	177.7	0.506545698	0.606991166	0.008919765	0.092023576	0.028362560
2019-09-28T10:15:00	0.2119	11.727	177.8	0.506936971	0.607534478	0.008932346	0.092153369	0.028402563
2019-09-28T10:20:00	0.2131	11.752	177.9	0.511095703	0.613316808	0.009066611	0.093538557	0.028829492
2019-09-28T10:25:00	0.2122	11.775	178.0	0.508062017	0.609097372	0.008968570	0.092527080	0.028517745
2019-09-28T10:30:00	0.2126	11.792	178.1	0.509480691	0.611069626	0.009014352	0.092999403	0.028663319
2019-09-28T10:35:00	0.2122	11.804	178.2	0.508159030	0.609232188	0.008971697	0.092559340	0.028527688
2019-09-28T10:40:00	0.2118	11.816	178.3	0.506836857	0.607395450	0.008929126	0.092120151	0.028392325
2019-09-28T10:45:00	0.2123	11.825	190.7	0.508256040	0.609367008	0.008974824	0.092591606	0.028537632
2019-09-28T10:50:00	0.2117	11.832	190.7	0.506248379	0.606578400	0.008910212	0.091925010	0.028332181
2019-09-28T10:55:00	0.2135	11.852	190.8	0.512461616	0.615219028	0.009110928	0.093995768	0.028970408
2019-09-28T11:00:00	0.2115	11.870	190.9	0.505659800	0.605761489	0.008891313	0.091730042	0.028272090
2019-09-28T11:05:00	0.2120	11.886	178.7	0.507422168	0.608208379	0.008947959	0.092314446	0.028452209
2019-09-28T11:10:00	0.2129	11.901	191.1	0.510553366	0.612561947	0.009049045	0.093357330	0.028773636
2019-09-28T11:15:00	0.2118	11.913	191.2	0.506833790	0.607391191	0.008929028	0.092119133	0.028392011
2019-09-28T11:20:00	0.2109	11.920	191.2	0.503453259	0.602701435	0.008820644	0.091000960	0.028047380
2019-09-28T11:25:00	0.2102	11.926	178.9	0.501099477	0.599441506	0.008745569	0.090226426	0.027808661
2019-09-28T11:30:00	0.2112	11.926	191.2	0.504579452	0.604262761	0.008856678	0.091372712	0.028161957
2019-09-28T11:35:00	0.2101	11.932	179.0	0.500853366	0.599100906	0.008737738	0.090145632	0.027783759
2019-09-28T11:40:00	0.2089	11.942	179.0	0.496779475	0.593470006	0.008608613	0.088813472	0.027373175
2019-09-28T11:45:00	0.2097	11.950	191.4	0.499576990	0.597335274	0.008697179	0.089727195	0.027654793
2019-09-28T11:50:00	0.2094	11.965	191.5	0.498595074	0.595977865	0.008666041	0.089405952	0.027555783
2019-09-28T11:55:00	0.2097	11.990	179.3	0.499330769	0.596994823	0.008689366	0.089646588	0.027629949
2019-09-28T12:00:00	0.2089	12.011	179.4	0.496630393	0.593264198	0.008603906	0.088764910	0.027358207
2019-09-28T12:05:00	0.2078	12.021	179.4	0.492895606	0.588114163	0.008486402	0.087552640	0.026984574
2019-09-28T12:10:00	0.2072	12.029	179.5	0.490878881	0.585337877	0.008423285	0.086901480	0.026783880
2019-09-28T12:15:00	0.2075	12.044	179.6	0.491960498	0.586826460	0.008457107	0.087250412	0.026891424
2019-09-28T12:20:00	0.2083	12.056	179.6	0.494761973	0.590686366	0.008545021	0.088157405	0.027170969
2019-09-28T12:25:00	0.2074	12.064	179.6	0.491713726	0.586486756	0.008449384	0.087170742	0.026866869
2019-09-28T12:30:00	0.2053	12.065	179.6	0.484180372	0.576139876	0.008215324	0.084755983	0.026122617
2019-09-28T12:35:00	0.2063	12.061	179.7	0.487677675	0.580937690	0.008323579	0.085872831	0.026466841
2019-09-28T12:40:00	0.2044	12.061	179.7	0.481171503	0.572019946	0.008122750	0.083800913	0.025828255
2019-09-28T12:45:00	0.2039	12.063	179.7	0.479493319	0.569725211	0.008071343	0.083270555	0.025664794
2019-09-28T12:50:00	0.2040	12.068	179.8	0.479887715	0.570264303	0.008083410	0.083395046	0.025703163
2019-09-28T12:55:00	0.2058	12.077	179.8	0.486149171	0.578839592	0.008276180	0.085383819	0.026316122
2019-09-28T13:00:00	0.2059	12.087	179.8	0.486542794	0.579379719	0.008288373	0.085509618	0.026354895
2019-09-28T13:05:00	0.2046	12.090	179.8	0.481761242	0.572826884	0.008140853	0.083987685	0.025885820
2019-09-28T13:10:00	0.2061	12.090	179.8	0.486985180	0.579986905	0.008302088	0.085651110	0.026398504
2019-09-28T13:15:00	0.2052	12.090	179.9	0.483929947	0.575796702	0.008207599	0.084676289	0.026098055
2019-09-28T13:20:00	0.2027	12.091	179.9	0.475341645	0.564057894	0.007944860	0.081965653	0.025262610
2019-09-28T13:25:00	0.2038	12.093	192.4	0.479193627	0.569315651	0.008062179	0.083176018	0.025635657
2019-09-28T13:30:00	0.2036	12.095	180.0	0.478551419	0.568438249	0.008042561	0.082973615	0.025573274
2019-09-28T13:35:00	0.2034	12.097	180.0	0.477909089	0.567561009	0.008022962	0.082771417	0.025510955
2019-09-28T13:40:00	0.2049	12.100	180.0	0.483138961	0.574713092	0.008183224	0.084424814	0.026020547
2019-09-28T13:45:00	0.2039	12.104	180.1	0.479389302	0.569583054	0.008068162	0.083237737	0.025654679
2019-09-28T13:50:00	0.2042	12.107	180.1	0.480474587	0.571066716	0.008101382	0.083580464	0.025760311
2019-09-28T13:55:00	0.2033	12.109	180.1	0.477413478	0.566884371	0.008007856	0.082615572	0.025462922
2019-09-28T14:00:00	0.2025	12.110	192.6	0.474695609	0.563177246	0.007925267	0.081763515	0.025200309
2019-09-28T14:05:00	0.2034	12.112	180.2	0.477857057	0.567489962	0.008021375	0.082755049	0.025505910
2019-09-28T14:10:00	0.2030	12.114	180.2	0.476523053	0.565669198	0.007980751	0.082335941	0.025376737
2019-09-28T14:15:00	0.2037	12.114	180.3	0.478991756	0.569039814	0.008056010	0.083112368	0.025616039
2019-09-28T14:20:00	0.2040	12.118	180.3	0.479731707	0.570051044	0.008078635	0.083345791	0.025687982
2019-09-28T14:25:00	0.2049	12.127	180.3	0.482888458	0.574370022	0.008175512	0.084345249	0.025996025
2019-09-28T14:30:00	0.2047	12.134	180.3	0.482246950	0.573491685	0.008155779	0.084141664	0.025933278
2019-09-28T14:35:00	0.2053	12.135	192.8	0.484366499	0.576394969	0.008221068	0.084815239	0.026140880
2019-09-28T14:40:00	0.2048	12.137	180.4	0.482689896	0.574098120	0.008169401	0.084282209	0.025976595
2019-09-28T14:45:00	0.2026	12.143	180.4	0.475136449	0.563778143	0.007938634	0.081901423	0.025242814
2019-09-28T14:50:00	0.2064	12.151	180.5	0.488305824	0.581800458	0.008343097	0.086074196	0.026528903
2019-09-28T14:55:00	0.2033	12.154	180.5	0.477309398	0.566742299	0.008004685	0.082582862	0.025452840
2019-09-28T15:00:00	0.2039	12.150	180.5	0.479432036	0.569641456	0.008069468	0.083251219	0.025658834
2019-09-28T15:05:00	0.2045	12.146	180.5	0.481553345	0.572542387	0.008134469	0.083921820	0.025865520
2019-09-28T15:10:00	0.2026	12.144	180.5	0.475035394	0.563640384	0.007935569	0.081869800	0.025233067
2019-09-28T15:15:00	0.2038	12.143	180.5	0.479233272	0.569369826	0.008063391	0.083188521	0.025639510
2019-09-28T15:20:00	0.2037	12.141	180.5	0.478936649	0.568964521	0.008054326	0.083094997	0.025610685
2019-09-28T15:25:00	0.2053	12.139	180.5	0.484509946	0.576591588	0.008225496	0.084860922	0.026154960
2019-09-28T15:30:00	0.2034	12.137	180.5	0.477652013	0.567210009	0.008015124	0.082690561	0.025486034
2019-09-28T15:35:00	0.2048	12.135	180.6	0.482537106	0.573888918	0.008164701	0.084233716	0.025961649
2019-09-28T15:40:00	0.2034	12.134	180.6	0.477749897	0.567343649	0.008018108	0.082721343	0.025495521
2019-09-28T15:45:00	0.2024	12.131	180.5	0.474340310	0.562693058	0.007914501	0.081652451	0.025166078
2019-09-28T15:50:00	0.2023	12.127	180.6	0.474043257	0.562288325	0.007905506	0.081559651	0.025137477
2019-09-28T15:55:00	0.2026	12.123	180.5	0.475130258	0.563769703	0.007938446	0.081899485	0.025242217
2019-09-28T16:00:00	0.2020	12.120	180.5	0.473102936	0.561007600	0.007877066	0.081266237	0.025047044
2019-09-28T16:05:00	0.2001	12.114	180.5	0.466221809	0.551656841	0.007670483	0.079134958	0.024390163
2019-09-28T16:10:00	0.2034	12.105	180.5	0.477697862	0.567272605	0.008016522	0.082704979	0.025490478
2019-09-28T16:15:00	0.2010	12.097	180.4	0.469440255	0.556025705	0.007766769	0.080128326	0.024696328
2019-09-28T16:20:00	0.2031	12.088	180.5	0.476758557	0.565990531	0.007987916	0.082409853	0.025399517
2019-09-28T16:25:00	0.2008	12.079	180.5	0.468845262	0.555217415	0.007748924	0.079944222	0.024639586
2019-09-28T16:30:00	0.1994	12.069	180.4	0.464038604	0.548697938	0.007605505	0.078464591	0.024183549
2019-09-28T16:35:00	0.1999	12.057	180.4	0.465822710	0.551115660	0.007658584	0.079012203	0.024352328
2019-09-28T16:40:00	0.2023	12.045	180.4	0.473841079	0.562012897	0.007899387	0.081496520	0.025118019
2019-09-28T16:45:00	0.2016	12.031	180.3	0.471466677	0.558780680	0.007827697	0.080756910	0.024890064
2019-09-28T16:50:00	0.2045	12.017	180.3	0.481544077	0.572529704	0.008134185	0.083918884	0.025864615
2019-09-28T16:55:00	0.2028	12.003	180.3	0.475717955	0.564571017	0.007956284	0.082083510	0.025298935
2019-09-28T17:00:00	0.2011	11.986	180.2	0.469881781	0.556625693	0.007780024	0.080265078	0.024738477
2019-09-28T17:05:00	0.2037	11.969	180.1	0.478927373	0.568951847	0.008054043	0.083092074	0.025609784
2019-09-28T17:10:00	0.2029	11.952	180.1	0.476210720	0.565243104	0.007971255	0.082237967	0.025346540
2019-09-28T17:15:00	0.2042	11.935	180.0	0.480407141	0.570974485	0.008099315	0.083559144	0.025753740
2019-09-28T17:20:00	0.2045	11.917	179.9	0.481492100	0.572458583	0.008132589	0.083902421	0.025859541
2019-09-28T17:25:00	0.2051	11.900	192.3	0.483612121	0.575361236	0.008197801	0.084575199	0.026066898
2019-09-28T17:30:00	0.2048	11.883	179.8	0.482625583	0.574010059	0.008167423	0.084261795	0.025970304
2019-09-28T17:35:00	0.2043	11.867	192.1	0.480948119	0.571714363	0.008115898	0.083730221	0.025806467
2019-09-28T17:40:00	0.2035	11.851	179.7	0.478233088	0.568003458	0.008032845	0.082873378	0.025542380
2019-09-28T17:45:00	0.2051	11.834	192.0	0.483807541	0.575628980	0.008203825	0.084637349	0.026086053
2019-09-28T17:50:00	0.2047	11.819	191.9	0.482130662	0.573332501	0.008152204	0.084104786	0.025921912
2019-09-28T17:55:00	0.2048	11.802	191.9	0.482524751	0.573872003	0.008164321	0.084229796	0.025960441
2019-09-28T18:00:00	0.2070	11.786	191.8	0.490159301	0.584348071	0.008400821	0.086669726	0.026712451
2019-09-28T18:05:00	0.2062	11.768	191.7	0.487451635	0.580627298	0.008316561	0.085800427	0.026444525
2019-09-28T18:10:00	0.2074	11.752	179.3	0.491634181	0.586377265	0.008446896	0.087145069	0.026858956
2019-09-28T18:15:00	0.2083	11.735	191.5	0.494779893	0.590711077	0.008545585	0.088163222	0.027172761
2019-09-28T18:20:00	0.2069	11.719	179.1	0.490009929	0.584142656	0.008396162	0.086621657	0.026697636
2019-09-28T18:25:00	0.2057	11.702	179.1	0.485578163	0.578056278	0.008258507	0.085201492	0.026259927
2019-09-28T18:30:00	0.2057	11.686	179.0	0.485626991	0.578123250	0.008260017	0.085217075	0.026264730
2019-09-28T18:35:00	0.2058	11.669	178.9	0.486020675	0.578663296	0.008272201	0.085342772	0.026303471
2019-09-28T18:40:00	0.2080	11.652	178.9	0.493647380	0.589149913	0.008509989	0.087795991	0.027059577
2019-09-28T18:45:00	0.2056	11.637	178.8	0.485428589	0.577851134	0.008253881	0.085153764	0.026245217
2019-09-28T18:50:00	0.2074	11.622	178.7	0.491679842	0.586440115	0.008448324	0.087159805	0.026863498
2019-09-28T18:55:00	0.2058	11.605	178.7	0.486215956	0.578931225	0.008278248	0.085405156	0.026322699
2019-09-28T19:00:00	0.2065	11.590	178.6	0.488333028	0.581837832	0.008343943	0.086082922	0.026531593
2019-09-28T19:05:00	0.2076	11.578	178.5	0.492170293	0.587115300	0.008463675	0.087318173	0.026912309
2019-09-28T19:10:00	0.2092	11.564	178.5	0.497721940	0.594771488	0.008638400	0.089120780	0.027467890
2019-09-28T19:15:00	0.2095	11.552	178.4	0.498801387	0.596263009	0.008672579	0.089473401	0.027576571
2019-09-28T19:20:00	0.2089	11.540	178.4	0.496788157	0.593481992	0.008608887	0.088816301	0.027374046
2019-09-28T19:25:00	0.2085	11.527	178.3	0.495461572	0.591651265	0.008567046	0.088384632	0.027241002
2019-09-28T19:30:00	0.2079	11.515	178.3	0.493446367	0.588872925	0.008503679	0.087730890	0.027039512
2019-09-28T19:35:00	0.2057	11.506	178.3	0.485571991	0.578047813	0.008258316	0.085199522	0.026259320
2019-09-28T19:40:00	0.2076	11.498	178.2	0.492167213	0.587111059	0.008463578	0.087317178	0.026912002
2019-09-28T19:45:00	0.2082	11.492	178.2	0.494280583	0.590022654	0.008529882	0.088001221	0.027122831
2019-09-28T19:50:00	0.2084	11.487	178.2	0.495017211	0.591038349	0.008553053	0.088240272	0.027196509
2019-09-28T19:55:00	0.2077	11.482	178.2	0.492657594	0.587786339	0.008478940	0.087475665	0.026960850
2019-09-28T20:00:00	0.2063	11.476	178.2	0.487884651	0.581221938	0.008330008	0.085939155	0.026487282
2019-09-28T20:05:00	0.2074	11.469	178.2	0.491722421	0.586498725	0.008449657	0.087173549	0.026867734
2019-09-28T20:10:00	0.2072	11.462	178.1	0.490738238	0.585144385	0.008418892	0.086856159	0.026769912
2019-09-28T20:15:00	0.2081	11.454	178.1	0.493884777	0.589477078	0.008517445	0.087872907	0.027083283
2019-09-28T20:20:00	0.2098	11.448	178.1	0.499777097	0.597611999	0.008703532	0.089792732	0.027674992
2019-09-28T20:25:00	0.2099	11.441	178.0	0.500169147	0.598154251	0.008715984	0.089921202	0.027714588
2019-09-28T20:30:00	0.2081	11.434	178.0	0.494030901	0.589678479	0.008522035	0.087920267	0.027097880
2019-09-28T20:35:00	0.2076	11.426	178.0	0.492359063	0.587375222	0.008469587	0.087379165	0.026931107
2019-09-28T20:40:00	0.2075	11.418	177.9	0.492063584	0.586968382	0.008460334	0.087283705	0.026901685
2019-09-28T20:45:00	0.2077	11.412	177.9	0.492456523	0.587509430	0.008472640	0.087410663	0.026940815
2019-09-28T20:50:00	0.2060	11.405	177.9	0.486649130	0.579525653	0.008291669	0.085543617	0.026365374
2019-09-28T20:55:00	0.2061	11.397	177.8	0.487042695	0.580065858	0.008303872	0.085669514	0.026404176
2019-09-28T21:00:00	0.2086	11.390	177.8	0.495698842	0.591978601	0.008574522	0.088461763	0.027264774
2019-09-28T21:05:00	0.2090	11.382	177.8	0.497122662	0.593943842	0.008619454	0.088925313	0.027407645
2019-09-28T21:10:00	0.2098	11.373	177.7	0.499919896	0.597809492	0.008708066	0.089839515	0.027689411
2019-09-28T21:15:00	0.2055	11.369	177.7	0.485168997	0.577495140	0.008245855	0.085070961	0.026219696
2019-09-28T21:20:00	0.2080	11.364	177.7	0.493485846	0.588927322	0.008504918	0.087743674	0.027043453
2019-09-28T21:25:00	0.2066	11.362	177.7	0.488714066	0.582361353	0.008355794	0.086205191	0.026569277
2019-09-28T21:30:00	0.2081	11.361	177.7	0.493927329	0.589535725	0.008518781	0.087886697	0.027087534
2019-09-28T21:35:00	0.2081	11.360	177.7	0.493976037	0.589602859	0.008520312	0.087902484	0.027092399
2019-09-28T21:40:00	0.2079	11.356	177.7	0.493336620	0.588721710	0.008500235	0.087695357	0.027028561
2019-09-28T21:45:00	0.2070	11.354	177.7	0.490287095	0.584523826	0.008404809	0.086710862	0.026725130
2019-09-28T21:50:00	0.2063	11.351	177.7	0.487924194	0.581276248	0.008331236	0.085951829	0.026491189
2019-09-28T21:55:00	0.2072	11.348	177.6	0.490728994	0.585131668	0.008418604	0.086853181	0.026768994
2019-09-28T22:00:00	0.2050	11.344	177.6	0.483193453	0.574787728	0.008184902	0.084442126	0.026025883
2019-09-28T22:05:00	0.2068	11.341	177.6	0.489439570	0.583358470	0.008378383	0.086438231	0.026641102
2019-09-28T22:10:00	0.2077	11.337	177.6	0.492578072	0.587676819	0.008476448	0.087449955	0.026952925
2019-09-28T22:15:00	0.2080	11.332	177.5	0.493649914	0.589153403	0.008510069	0.087796812	0.027059830
2019-09-28T22:20:00	0.2085	11.327	177.5	0.495409263	0.591579106	0.008565398	0.088367633	0.027235763
2019-09-28T22:25:00	0.2093	11.321	177.5	0.498198679	0.595430104	0.008653487	0.089276430	0.027515863
2019-09-28T22:30:00	0.2079	11.316	177.5	0.493424270	0.588842477	0.008502986	0.087723735	0.027037307
2019-09-28T22:35:00	0.2072	11.311	177.5	0.491054306	0.585579243	0.008428766	0.086958025	0.026801308
2019-09-28T22:40:00	0.2083	11.306	177.5	0.494535312	0.590373836	0.008537891	0.088083849	0.027148298
2019-09-28T22:45:00	0.2081	11.300	177.4	0.493886765	0.589479817	0.008517507	0.087873551	0.027083482
2019-09-28T22:50:00	0.2088	11.293	177.4	0.496333650	0.592854599	0.008594540	0.088668287	0.027328427
2019-09-28T22:55:00	0.2100	11.285	177.4	0.500496086	0.598606543	0.008726375	0.090028406	0.027747629
2019-09-28T23:00:00	0.2107	11.276	177.3	0.502938235	0.601987758	0.008804190	0.090831205	0.027995059
2019-09-28T23:05:00	0.2100	11.269	177.3	0.500574880	0.598715560	0.008728881	0.090054252	0.027755595
2019-09-28T23:10:00	0.2098	11.262	177.2	0.499927481	0.597819983	0.008708307	0.089842001	0.027690177
2019-09-28T23:15:00	0.2088	11.256	177.2	0.496530871	0.593126819	0.008600764	0.088732499	0.027348218
2019-09-28T23:20:00	0.2095	11.248	177.2	0.498975859	0.596504174	0.008678110	0.089530461	0.027594158
2019-09-28T23:25:00	0.2116	11.242	177.2	0.505878850	0.606065484	0.008898344	0.091802578	0.028294446
2019-09-28T23:30:00	0.2103	11.235	177.1	0.501458482	0.599938430	0.008756999	0.090344347	0.027845005
2019-09-28T23:35:00	0.2094	11.229	177.1	0.498407000	0.595717958	0.008660084	0.089344487	0.027536839
2019-09-28T23:40:00	0.2068	11.224	177.1	0.489501569	0.583443700	0.008380315	0.086458161	0.026647245
2019-09-28T23:45:00	0.2090	11.216	177.1	0.497111256	0.593928091	0.008619093	0.088921595	0.027406499
2019-09-28T23:50:00	0.2092	11.211	177.0	0.497838047	0.594931872	0.008642073	0.089158675	0.027479569
2019-09-28T23:55:00	0.2096	11.205	177.0	0.499251752	0.596885577	0.008686859	0.089620727	0.027621978
2019-09-29T00:00:00	0.2094	11.199	177.0	0.498604102	0.595990341	0.008666327	0.089408903	0.027556692
2019-09-29T00:05:00	0.2094	11.194	177.0	0.498299942	0.595570023	0.008656693	0.089309509	0.027526058
2019-09-29T00:10:00	0.2089	11.188	177.0	0.496620970	0.593251191	0.008603608	0.088761841	0.027357261
2019-09-29T00:15:00	0.2093	11.183	176.9	0.498035181	0.595204211	0.008648311	0.089223034	0.027499406
2019-09-29T00:20:00	0.2093	11.178	176.9	0.498074607	0.595258680	0.008649559	0.089235908	0.027503374
2019-09-29T00:25:00	0.2081	11.174	176.9	0.493988156	0.589619562	0.008520692	0.087906412	0.027093610
2019-09-29T00:30:00	0.2081	11.171	176.9	0.494027628	0.589673968	0.008521932	0.087919206	0.027097553
2019-09-29T00:35:00	0.2084	11.167	176.9	0.495099014	0.591151169	0.008555628	0.088266839	0.027204697
2019-09-29T00:40:00	0.2086	11.165	176.9	0.495826234	0.592154368	0.008578537	0.088503188	0.027277542
2019-09-29T00:45:00	0.2085	11.162	176.9	0.495521826	0.591734386	0.008568944	0.088404216	0.027247038
2019-09-29T00:50:00	0.2078	11.162	176.8	0.492809189	0.587995132	0.008483692	0.087524689	0.026975959
2019-09-29T00:55:00	0.2076	11.160	176.9	0.492160313	0.587101558	0.008463362	0.087314949	0.026911315
2019-09-29T01:00:00	0.2080	11.155	176.8	0.493576376	0.589052068	0.008507760	0.087772993	0.027052489
2019-09-29T01:05:00	0.2101	11.150	176.8	0.500833650	0.599073622	0.008737111	0.090139161	0.027781765
2019-09-29T01:10:00	0.2068	11.147	176.8	0.489524043	0.583474596	0.008381015	0.086465386	0.026649472
2019-09-29T01:15:00	0.2068	11.144	176.8	0.489563567	0.583528932	0.008382247	0.086478092	0.026653388
2019-09-29T01:20:00	0.2076	11.141	176.8	0.492357776	0.587373451	0.008469546	0.087378750	0.026930979
2019-09-29T01:25:00	0.2084	11.138	176.7	0.495149692	0.591221066	0.008557224	0.088283299	0.027209770
2019-09-29T01:30:00	0.2075	11.131	176.7	0.492092553	0.587008264	0.008461241	0.087293061	0.026904569
2019-09-29T01:35:00	0.2068	11.127	176.7	0.489377179	0.583272705	0.008376439	0.086418178	0.026634922
2019-09-29T01:40:00	0.2057	11.121	176.7	0.485625155	0.578120732	0.008259960	0.085216489	0.026264550
2019-09-29T01:45:00	0.2063	11.115	176.6	0.487733344	0.581014138	0.008325308	0.085890667	0.026472338
2019-09-29T01:50:00	0.2058	11.110	176.6	0.486049147	0.578702359	0.008273082	0.085351866	0.026306274
2019-09-29T01:55:00	0.2068	11.105	176.6	0.489535280	0.583490044	0.008381365	0.086468998	0.026650585
2019-09-29T02:00:00	0.2053	11.100	176.6	0.484403700	0.576445957	0.008222216	0.084827085	0.026144531
2019-09-29T02:05:00	0.2042	11.097	176.6	0.480646170	0.571301367	0.008106640	0.083634712	0.025777031
2019-09-29T02:10:00	0.2039	11.093	176.6	0.479649494	0.569938669	0.008076120	0.083319840	0.025679984
2019-09-29T02:15:00	0.2052	11.091	176.6	0.483832398	0.575663038	0.008204591	0.084645256	0.026088490
2019-09-29T02:20:00	0.2054	11.089	176.6	0.484562032	0.576662985	0.008227104	0.084877512	0.026160074
2019-09-29T02:25:00	0.2072	11.087	176.5	0.490805635	0.585237106	0.008420997	0.086877876	0.026776605
2019-09-29T02:30:00	0.2092	11.086	176.6	0.497725171	0.594775950	0.008638502	0.089121834	0.027468215
2019-09-29T02:35:00	0.2078	11.087	176.6	0.492950097	0.588189223	0.008488110	0.087570268	0.026990007
2019-09-29T02:40:00	0.2082	11.088	176.6	0.494365833	0.590140177	0.008532562	0.088028870	0.027131353
2019-09-29T02:45:00	0.2096	11.091	176.6	0.499217748	0.596838565	0.008685781	0.089609599	0.027618549
2019-09-29T02:50:00	0.2093	11.094	176.6	0.498226505	0.595468552	0.008654368	0.089285519	0.027518664
2019-09-29T02:55:00	0.2090	11.098	188.8	0.497234974	0.594098930	0.008623003	0.088961930	0.027418931
2019-09-29T03:00:00	0.2078	11.100	176.6	0.492803381	0.587987132	0.008483510	0.087522810	0.026975380
2019-09-29T03:05:00	0.2083	11.102	176.6	0.494563168	0.590412243	0.008538767	0.088092888	0.027151084
2019-09-29T03:10:00	0.2093	11.104	176.7	0.498040591	0.595211685	0.008648483	0.089224801	0.027499950
2019-09-29T03:15:00	0.2095	11.107	176.7	0.498767184	0.596215735	0.008671495	0.089462218	0.027573124
2019-09-29T03:20:00	0.2086	11.107	176.7	0.495713292	0.591998537	0.008574977	0.088466461	0.027266222
2019-09-29T03:25:00	0.2091	11.108	188.8	0.497471576	0.594425681	0.008630482	0.089039092	0.027442713
2019-09-29T03:30:00	0.2088	11.108	176.7	0.496479825	0.593056358	0.008599153	0.088715877	0.027343095
2019-09-29T03:35:00	0.2063	11.108	176.7	0.487914006	0.581262255	0.008330920	0.085948564	0.026490182
2019-09-29T03:40:00	0.2081	11.110	176.7	0.494151459	0.589844655	0.008525824	0.087959351	0.027109926
2019-09-29T03:45:00	0.2085	11.110	176.7	0.495222805	0.591321909	0.008559526	0.088307049	0.027217090
2019-09-29T03:50:00	0.2093	11.109	176.7	0.498012374	0.595172701	0.008647590	0.089215587	0.027497110
2019-09-29T03:55:00	0.2095	11.109	176.7	0.498738973	0.596176743	0.008670601	0.089452994	0.027570281
2019-09-29T04:00:00	0.2086	11.107	176.7	0.495685055	0.591959579	0.008574088	0.088457280	0.027263393
2019-09-29T04:05:00	0.2103	11.105	176.7	0.501604437	0.600140487	0.008761648	0.090392310	0.027859788
2019-09-29T04:10:00	0.2100	11.104	176.7	0.500653283	0.598824041	0.008731374	0.090079974	0.027763523
2019-09-29T04:15:00	0.2101	11.103	176.7	0.500732073	0.598933063	0.008733880	0.090105826	0.027771491
2019-09-29T04:20:00	0.2097	11.102	176.7	0.499437212	0.597141996	0.008692743	0.089681430	0.027640688
2019-09-29T04:25:00	0.2095	11.098	176.7	0.498829013	0.596301194	0.008673455	0.089482435	0.027579356
2019-09-29T04:30:00	0.2099	11.092	176.6	0.500281709	0.598309961	0.008719561	0.089958104	0.027725961
2019-09-29T04:35:00	0.2120	11.090	176.6	0.507221382	0.607929480	0.008941497	0.092247772	0.028431659
2019-09-29T04:40:00	0.2101	11.087	176.6	0.500782668	0.599003073	0.008735489	0.090122429	0.027776608
2019-09-29T04:45:00	0.2119	11.084	176.6	0.507035957	0.607671946	0.008935530	0.092186219	0.028412688
2019-09-29T04:50:00	0.2099	11.081	176.6	0.500253510	0.598270952	0.008718665	0.089948859	0.027723112
2019-09-29T04:55:00	0.2133	11.079	176.6	0.511987715	0.614558886	0.009095540	0.093837013	0.028921479
2019-09-29T05:00:00	0.2121	11.078	176.6	0.507614558	0.608475647	0.008954154	0.092378355	0.028471906
2019-09-29T05:05:00	0.2125	11.077	176.6	0.509063523	0.610489506	0.009000877	0.092860389	0.028620474
2019-09-29T05:10:00	0.2128	11.076	188.8	0.510169487	0.612027781	0.009036622	0.093229159	0.028734132
2019-09-29T05:15:00	0.2127	11.075	176.6	0.509905644	0.611660715	0.009028088	0.093141118	0.028706997
2019-09-29T05:20:00	0.2112	11.075	176.6	0.504501061	0.604154049	0.008854167	0.091346811	0.028153974
2019-09-29T05:25:00	0.2115	11.075	176.6	0.505608501	0.605690303	0.008889667	0.091713059	0.028266855
2019-09-29T05:30:00	0.2126	11.075	176.6	0.509456487	0.611035963	0.009013569	0.092991335	0.028660832
2019-09-29T05:35:00	0.2143	11.076	176.6	0.515352087	0.619249380	0.009205066	0.094966971	0.029269743
2019-09-29T05:40:00	0.2122	11.076	188.7	0.507900931	0.608873531	0.008963379	0.092473525	0.028501238
2019-09-29T05:45:00	0.2120	11.076	176.4	0.507294238	0.608030675	0.008943841	0.092271962	0.028439115
2019-09-29T05:50:00	0.2130	11.074	176.5	0.510798004	0.612902421	0.009056967	0.093439056	0.028798825
2019-09-29T05:55:00	0.2119	11.073	188.7	0.507108816	0.607773136	0.008937874	0.092210403	0.028420142
2019-09-29T06:00:00	0.2162	11.072	188.7	0.521892085	0.628393440	0.009419852	0.097182879	0.029952707
2019-09-29T06:05:00	0.2137	11.073	176.5	0.513086962	0.616090412	0.009131254	0.094205461	0.029035038
2019-09-29T06:10:00	0.2134	11.074	188.7	0.512138997	0.614769601	0.009100451	0.093887677	0.028937094
2019-09-29T06:15:00	0.2152	11.077	176.6	0.518371592	0.623466870	0.009303924	0.095986868	0.029584085
2019-09-29T06:20:00	0.2170	11.079	176.6	0.524592895	0.632179764	0.009509277	0.098105458	0.030237055
2019-09-29T06:25:00	0.2177	11.086	176.6	0.526716294	0.635160762	0.009579882	0.098833872	0.030461559
2019-09-29T06:30:00	0.2172	11.091	176.6	0.525090313	0.632877750	0.009525793	0.098275850	0.030289572
2019-09-29T06:35:00	0.2160	11.097	176.6	0.521075169	0.627249355	0.009392887	0.096904688	0.029866966
2019-09-29T06:40:00	0.2151	11.106	176.7	0.518080328	0.623059726	0.009294365	0.095888250	0.029553690
2019-09-29T06:45:00	0.2169	11.116	176.7	0.524302158	0.631771888	0.009499630	0.098005934	0.030206381
2019-09-29T06:50:00	0.2195	11.124	188.9	0.532894617	0.643855242	0.009786809	0.100968701	0.031119534
2019-09-29T06:55:00	0.2182	11.135	176.8	0.528548006	0.637735209	0.009640998	0.099464400	0.030655894
2019-09-29T07:00:00	0.2181	11.149	176.8	0.528285571	0.637366193	0.009632230	0.099373938	0.030628013
2019-09-29T07:05:00	0.2179	11.162	176.9	0.527682471	0.636518370	0.009612094	0.099166206	0.030563988
2019-09-29T07:10:00	0.2177	11.175	177.0	0.526738525	0.635191990	0.009580622	0.098841512	0.030463914
2019-09-29T07:15:00	0.2180	11.190	177.0	0.527838812	0.636738122	0.009617312	0.099220035	0.030580579
2019-09-29T07:20:00	0.2194	11.210	177.1	0.532682639	0.643556420	0.009779672	0.100895075	0.031096842
2019-09-29T07:25:00	0.2198	11.228	177.2	0.534121075	0.645584879	0.009828151	0.101395218	0.031250991
2019-09-29T07:30:00	0.2196	11.240	177.2	0.533178891	0.644256035	0.009796383	0.101067480	0.031149979
2019-09-29T07:35:00	0.2198	11.250	177.3	0.533937096	0.645325340	0.009821943	0.101331179	0.031231253
2019-09-29T07:40:00	0.2208	11.260	177.4	0.537413832	0.650234625	0.009939578	0.102544797	0.031605302
2019-09-29T07:45:00	0.2242	11.271	177.4	0.549022222	0.666697663	0.010337468	0.106649755	0.032870490
2019-09-29T07:50:00	0.2234	11.281	177.4	0.546390378	0.662955509	0.010246567	0.105711944	0.032581448
2019-09-29T07:55:00	0.2261	11.292	177.5	0.555266201	0.675598557	0.010554756	0.108891468	0.033561408
2019-09-29T08:00:00	0.2241	11.304	177.6	0.548578134	0.666065826	0.010322101	0.106491217	0.032821627
2019-09-29T08:05:00	0.2262	11.319	177.6	0.555759229	0.676302741	0.010572010	0.109069482	0.033616273
2019-09-29T08:10:00	0.2239	11.339	177.7	0.548056276	0.665323548	0.010304058	0.106305070	0.032764255
2019-09-29T08:15:00	0.2271	11.364	177.8	0.558616431	0.680387572	0.010672287	0.110104015	0.033935127
2019-09-29T08:20:00	0.2244	11.388	177.9	0.549566019	0.667471582	0.010356301	0.106844050	0.032930374
2019-09-29T08:25:00	0.2266	11.411	178.0	0.557082876	0.678194273	0.010618405	0.109548130	0.033763798
2019-09-29T08:30:00	0.2254	11.430	178.1	0.553104717	0.672513702	0.010479278	0.108112777	0.033321408
2019-09-29T08:35:00	0.2239	11.442	178.1	0.547767506	0.664912904	0.010294081	0.106202136	0.032732530
2019-09-29T08:40:00	0.2261	11.450	178.2	0.555288249	0.675630043	0.010555527	0.108899425	0.033563860
2019-09-29T08:45:00	0.2268	11.456	178.2	0.557730645	0.679120479	0.010641148	0.109782760	0.033836113
2019-09-29T08:50:00	0.2270	11.462	178.2	0.558483501	0.680197378	0.010667611	0.110055774	0.033920258
2019-09-29T08:55:00	0.2274	11.467	178.2	0.559911278	0.682240977	0.010717889	0.110574484	0.034080130
2019-09-29T09:00:00	0.2289	11.474	178.3	0.564710550	0.689122558	0.010887773	0.112327143	0.034620316
2019-09-29T09:05:00	0.2275	11.481	178.3	0.560066172	0.682462780	0.010723351	0.110630832	0.034097497
2019-09-29T09:10:00	0.2276	11.488	178.3	0.560481087	0.683057021	0.010737988	0.110781841	0.034144039
2019-09-29T09:15:00	0.2281	11.494	178.3	0.562245345	0.685585379	0.010800340	0.111425119	0.034342304
2019-09-29T09:20:00	0.2275	11.499	178.4	0.559961012	0.682312192	0.010719642	0.110592575	0.034085706
2019-09-29T09:25:00	0.2272	11.503	178.4	0.559025821	0.680973411	0.010686694	0.110252652	0.033980938
2019-09-29T09:30:00	0.2299	11.509	178.4	0.568206258	0.694146947	0.011012368	0.113612575	0.035016499
2019-09-29T09:35:00	0.2267	11.518	178.5	0.557492446	0.678779853	0.010632782	0.109696452	0.033809512
2019-09-29T09:40:00	0.2266	11.526	178.5	0.556894410	0.677924861	0.010611793	0.109479913	0.033742773
2019-09-29T09:45:00	0.2248	11.532	178.6	0.550886315	0.669351606	0.010402098	0.107316527	0.033075996
2019-09-29T09:50:00	0.2281	11.537	178.6	0.562112554	0.685394986	0.010795641	0.111376635	0.034327360
2019-09-29T09:55:00	0.2255	11.543	178.6	0.553409397	0.672948307	0.010489900	0.108222369	0.033355185
2019-09-29T10:00:00	0.2269	11.549	178.6	0.558217626	0.679817012	0.010658261	0.109959318	0.033890530
2019-09-29T10:05:00	0.2265	11.553	178.6	0.556603351	0.677508850	0.010601586	0.109374605	0.033710315
2019-09-29T10:10:00	0.2240	11.562	178.7	0.548222016	0.665559269	0.010309787	0.106364172	0.032782471
2019-09-29T10:15:00	0.2240	11.573	178.7	0.548296695	0.665665486	0.010312369	0.106390807	0.032790680
2019-09-29T10:20:00	0.2249	11.587	178.8	0.551417711	0.670108687	0.010420559	0.107506990	0.033134698
2019-09-29T10:25:00	0.2268	11.605	178.8	0.557576871	0.678900576	0.010635747	0.109727038	0.033818939
2019-09-29T10:30:00	0.2229	11.617	178.9	0.544454945	0.660207185	0.010179978	0.105024959	0.032369713
2019-09-29T10:35:00	0.2215	11.622	178.9	0.539780366	0.653581904	0.010020054	0.103375047	0.031861194
2019-09-29T10:40:00	0.2211	11.633	179.0	0.538497105	0.651766263	0.009976375	0.102924422	0.031722306
2019-09-29T10:45:00	0.2202	11.652	179.1	0.535514333	0.647551238	0.009875221	0.101880840	0.031400664
2019-09-29T10:50:00	0.2204	11.675	179.2	0.535929152	0.648136994	0.009889258	0.102025651	0.031445297
2019-09-29T10:55:00	0.2211	11.698	179.3	0.538382173	0.651603715	0.009972468	0.102884111	0.031709882
2019-09-29T11:00:00	0.2185	11.721	191.8	0.529616132	0.639237707	0.009676727	0.099833010	0.030769503
2019-09-29T11:05:00	0.2196	11.738	191.8	0.533434289	0.644616174	0.009804989	0.101156268	0.031177344
2019-09-29T11:10:00	0.2189	11.753	191.9	0.530787512	0.640886515	0.009715987	0.100238043	0.030894338
2019-09-29T11:15:00	0.2183	11.764	192.0	0.528819871	0.638117544	0.009650086	0.099558155	0.030684790
2019-09-29T11:20:00	0.2173	11.778	192.0	0.525487855	0.633435734	0.009539003	0.098412136	0.030331576
2019-09-29T11:25:00	0.2182	11.794	192.1	0.528629514	0.637849831	0.009643722	0.099492504	0.030664556
2019-09-29T11:30:00	0.2161	11.808	192.2	0.521545381	0.627907818	0.009408403	0.097064764	0.029916303
2019-09-29T11:35:00	0.2148	11.822	179.9	0.516839625	0.621326175	0.009253702	0.095468734	0.029424391
2019-09-29T11:40:00	0.2152	11.828	179.9	0.518281639	0.623341121	0.009300971	0.095956406	0.029574696
2019-09-29T11:45:00	0.2145	11.832	179.9	0.515965020	0.620104896	0.009225091	0.095173559	0.029333415
2019-09-29T11:50:00	0.2138	11.847	180.0	0.513646836	0.616870832	0.009149470	0.094393399	0.029092962
2019-09-29T11:55:00	0.2118	11.859	180.1	0.506531683	0.606971707	0.008919315	0.092018928	0.028361127
2019-09-29T12:00:00	0.2123	11.869	180.1	0.508320647	0.609456800	0.008976907	0.092613097	0.028544256
2019-09-29T12:05:00	0.2121	11.877	192.6	0.507710963	0.608609583	0.008957259	0.092410388	0.028481779
2019-09-29T12:10:00	0.2133	11.891	180.2	0.511895772	0.614430831	0.009092556	0.093806228	0.028911991
2019-09-29T12:15:00	0.2145	11.909	180.3	0.516075476	0.620259100	0.009228702	0.095210812	0.029344897
2019-09-29T12:20:00	0.2150	11.937	180.5	0.517517810	0.622273603	0.009275918	0.095697933	0.029495032
2019-09-29T12:25:00	0.2130	11.966	180.6	0.510753064	0.612839872	0.009055511	0.093424040	0.028794197
2019-09-29T12:30:00	0.2134	11.992	180.7	0.512197639	0.614851288	0.009102355	0.093907320	0.028943148
2019-09-29T12:35:00	0.2129	12.012	180.8	0.510561703	0.612573549	0.009049315	0.093360115	0.028774494
2019-09-29T12:40:00	0.2101	12.032	180.9	0.501037727	0.599356044	0.008743604	0.090206151	0.027802412
2019-09-29T12:45:00	0.2081	12.048	181.0	0.493896234	0.589492868	0.008517805	0.087876620	0.027084428
2019-09-29T12:50:00	0.2088	12.061	181.1	0.496379481	0.592917856	0.008595986	0.088683207	0.027333026
2019-09-29T12:55:00	0.2080	12.075	193.7	0.493703925	0.589227835	0.008511765	0.087814309	0.027065223
2019-09-29T13:00:00	0.2091	12.091	193.8	0.497562273	0.594550947	0.008633350	0.089068680	0.027451832
2019-09-29T13:05:00	0.2077	12.096	193.8	0.492479211	0.587540674	0.008473351	0.087417997	0.026943076
2019-09-29T13:10:00	0.2087	12.106	193.9	0.495995134	0.592387427	0.008583862	0.088558127	0.027294475
2019-09-29T13:15:00	0.2099	12.116	181.4	0.500194312	0.598189062	0.008716784	0.089929452	0.027717130
2019-09-29T13:20:00	0.2090	12.130	194.0	0.497178059	0.594020337	0.008621204	0.088943373	0.027413211
2019-09-29T13:25:00	0.2086	12.149	194.1	0.495878770	0.592226859	0.008580194	0.088520275	0.027282809
2019-09-29T13:30:00	0.2090	12.165	181.7	0.496985936	0.593755054	0.008615134	0.088880747	0.027393910
2019-09-29T13:35:00	0.2101	12.180	181.7	0.500840572	0.599083201	0.008737331	0.090141433	0.027782465
2019-09-29T13:40:00	0.2086	12.200	181.9	0.495762403	0.592066296	0.008576525	0.088482430	0.027271144
2019-09-29T13:45:00	0.2107	12.223	181.9	0.503051327	0.602144453	0.008807802	0.090868467	0.028006544
2019-09-29T13:50:00	0.2125	12.238	182.0	0.508954897	0.610338472	0.008997370	0.092824209	0.028609323
2019-09-29T13:55:00	0.2127	12.252	194.6	0.509715399	0.611396076	0.009021937	0.093077661	0.028687439
2019-09-29T14:00:00	0.2128	12.261	182.2	0.510133342	0.611977492	0.009035452	0.093217096	0.028730414
2019-09-29T14:05:00	0.2118	12.267	182.1	0.506783130	0.607320844	0.008927399	0.092102326	0.028386831
2019-09-29T14:10:00	0.2139	12.269	194.8	0.514048610	0.617431030	0.009162554	0.094528382	0.029134565
2019-09-29T14:15:00	0.2111	12.272	194.8	0.504191366	0.603724612	0.008844252	0.091244521	0.028122448
2019-09-29T14:20:00	0.2113	12.276	182.2	0.504952928	0.604780765	0.008868644	0.091496162	0.028200006
2019-09-29T14:25:00	0.2118	12.279	182.3	0.506742718	0.607264728	0.008926099	0.092088920	0.028382700
2019-09-29T14:30:00	0.2125	12.279	194.9	0.509216640	0.610702417	0.009005822	0.092911401	0.028636196
2019-09-29T14:35:00	0.2128	12.278	194.9	0.509977085	0.611760100	0.009030398	0.093164953	0.028714343
2019-09-29T14:40:00	0.2136	12.276	182.4	0.512790831	0.615677731	0.009121626	0.094106132	0.029004424
2019-09-29T14:45:00	0.2140	12.275	182.4	0.514234547	0.617690328	0.009168612	0.094590883	0.029153829
2019-09-29T14:50:00	0.2139	12.275	182.4	0.513967957	0.617318564	0.009159927	0.094501277	0.029126211
2019-09-29T14:55:00	0.2131	12.275	182.5	0.511306148	0.613609782	0.009073432	0.093608926	0.028851180
2019-09-29T15:00:00	0.2135	12.275	182.5	0.512408326	0.615144787	0.009109197	0.093977909	0.028964904
2019-09-29T15:05:00	0.2136	12.277	182.4	0.512825940	0.615726655	0.009122767	0.094117906	0.029008053
2019-09-29T15:10:00	0.2144	12.277	195.0	0.515637349	0.619647503	0.009214383	0.095063090	0.029299368
2019-09-29T15:15:00	0.2157	12.275	182.4	0.520153925	0.625959807	0.009362525	0.096591449	0.029770423
2019-09-29T15:20:00	0.2161	12.274	195.1	0.521253265	0.627498731	0.009398763	0.096965302	0.029885648
2019-09-29T15:25:00	0.2175	12.270	182.5	0.526103307	0.634299825	0.009559472	0.098623314	0.030396663
2019-09-29T15:30:00	0.2170	12.267	182.5	0.524473984	0.632012936	0.009505331	0.098064747	0.030224507
2019-09-29T15:35:00	0.2192	12.262	182.5	0.532042427	0.642654144	0.009758134	0.100672874	0.031028358
2019-09-29T15:40:00	0.2183	12.256	182.4	0.529054071	0.638446958	0.009657918	0.099638957	0.030709694
2019-09-29T15:45:00	0.2126	12.249	195.0	0.509322077	0.610849038	0.009009227	0.092946536	0.028647025
2019-09-29T15:50:00	0.2119	12.243	195.0	0.506999391	0.607621163	0.008934354	0.092174084	0.028408948
2019-09-29T15:55:00	0.2120	12.235	182.4	0.507417665	0.608202124	0.008947814	0.092312951	0.028451748
2019-09-29T16:00:00	0.2099	12.228	182.4	0.500289526	0.598320775	0.008719810	0.089960667	0.027726751
2019-09-29T16:05:00	0.2099	12.221	182.4	0.500125234	0.598093508	0.008714589	0.089906808	0.027710151
2019-09-29T16:10:00	0.2074	12.213	182.3	0.491708657	0.586479778	0.008449226	0.087169106	0.026866365
2019-09-29T16:15:00	0.2067	12.205	182.3	0.489133146	0.582937276	0.008368839	0.086339766	0.026610754
2019-09-29T16:20:00	0.2066	12.197	182.3	0.488968314	0.582710738	0.008363707	0.086286823	0.026594437
2019-09-29T16:25:00	0.2076	12.189	182.2	0.492247291	0.587221318	0.008466086	0.087343049	0.026919976
2019-09-29T16:30:00	0.2078	12.181	182.2	0.493115126	0.588416558	0.008493286	0.087623665	0.027006464
2019-09-29T16:35:00	0.2083	12.172	194.8	0.494670734	0.590560556	0.008542151	0.088127793	0.027161842
2019-09-29T16:40:00	0.2056	12.165	182.2	0.485550937	0.578018934	0.008257665	0.085192803	0.026257249
2019-09-29T16:45:00	0.2049	12.157	182.1	0.482970749	0.574482716	0.008178045	0.084371382	0.026004079
2019-09-29T16:50:00	0.2077	12.151	194.7	0.492456523	0.587509430	0.008472640	0.087410663	0.026940815
2019-09-29T16:55:00	0.2072	12.144	182.1	0.490914762	0.585387244	0.008424406	0.086913044	0.026787444
2019-09-29T17:00:00	0.2082	12.138	182.1	0.494191864	0.589900353	0.008527094	0.087972452	0.027113964
2019-09-29T17:05:00	0.2093	12.132	182.0	0.498153106	0.595367137	0.008652044	0.089261545	0.027511275
2019-09-29T17:10:00	0.2080	12.125	194.7	0.493518621	0.588972484	0.008505947	0.087754288	0.027046724
2019-09-29T17:15:00	0.2076	12.120	182.0	0.492321559	0.587323580	0.008468412	0.087367046	0.026927372
2019-09-29T17:20:00	0.2081	12.113	182.0	0.493877529	0.589467089	0.008517217	0.087870558	0.027082559
2019-09-29T17:25:00	0.2075	12.108	194.6	0.491992197	0.586870099	0.008458099	0.087260649	0.026894579
2019-09-29T17:30:00	0.2083	12.101	182.0	0.494580388	0.590435986	0.008539309	0.088098475	0.027152806
2019-09-29T17:35:00	0.2103	12.095	194.5	0.501631925	0.600178542	0.008762524	0.090401344	0.027862572
2019-09-29T17:40:00	0.2110	12.089	194.5	0.503869792	0.603278787	0.008833963	0.091138368	0.028089730
2019-09-29T17:45:00	0.2105	12.080	194.4	0.502333187	0.601149607	0.008784879	0.090631978	0.027933656
2019-09-29T17:50:00	0.2097	12.071	194.4	0.499422234	0.597121286	0.008692268	0.089676527	0.027639177
2019-09-29T17:55:00	0.2090	12.060	194.3	0.497196278	0.594045496	0.008621780	0.088949313	0.027415042
2019-09-29T18:00:00	0.2104	12.050	194.3	0.501840581	0.600467435	0.008769173	0.090469937	0.027883713
2019-09-29T18:05:00	0.2101	12.041	194.3	0.500989781	0.599289689	0.008742078	0.090190410	0.027797560
2019-09-29T18:10:00	0.2105	12.032	194.2	0.502198613	0.600963227	0.008780587	0.090587697	0.027920008
2019-09-29T18:15:00	0.2104	12.023	194.2	0.502034413	0.600735834	0.008775351	0.090533680	0.027903360
2019-09-29T18:20:00	0.2135	12.014	194.2	0.512494015	0.615264168	0.009111981	0.094006626	0.028973755
2019-09-29T18:25:00	0.2115	12.003	194.1	0.505822545	0.605987341	0.008896537	0.091783931	0.028288699
2019-09-29T18:30:00	0.2131	11.993	194.1	0.511139825	0.613378230	0.009068041	0.093553308	0.028834038
2019-09-29T18:35:00	0.2140	11.985	194.0	0.514397582	0.617917712	0.009173926	0.094645703	0.029170725
2019-09-29T18:40:00	0.2136	11.978	194.0	0.512865699	0.615782059	0.009124060	0.094131240	0.029012162
2019-09-29T18:45:00	0.2160	11.972	194.0	0.520903829	0.627009463	0.009387237	0.096846391	0.029848998
2019-09-29T18:50:00	0.2140	11.965	193.9	0.514248724	0.617710100	0.009169074	0.094595649	0.029155298
2019-09-29T18:55:00	0.2143	11.960	193.9	0.515110988	0.618912943	0.009197195	0.094885770	0.029244716
2019-09-29T19:00:00	0.2141	11.955	193.9	0.514605461	0.618207669	0.009180703	0.094715625	0.029192275
2019-09-29T19:05:00	0.2159	11.950	193.9	0.520591940	0.626572850	0.009376955	0.096740318	0.029816306
2019-09-29T19:10:00	0.2170	11.947	193.8	0.524522762	0.632081368	0.009506950	0.098081446	0.030229654
2019-09-29T19:15:00	0.2163	11.946	193.9	0.521971856	0.628505189	0.009422487	0.097210066	0.029961086
2019-09-29T19:20:00	0.2179	11.945	193.9	0.527604876	0.636409312	0.009609505	0.099139496	0.030555755
2019-09-29T19:25:00	0.2147	11.944	181.3	0.516522605	0.620883424	0.009243326	0.095361689	0.029391399
2019-09-29T19:30:00	0.2155	11.941	181.3	0.519433793	0.624952253	0.009338826	0.096346945	0.029695064
2019-09-29T19:35:00	0.2157	11.939	193.8	0.519953343	0.625679125	0.009355921	0.096523315	0.029749423
2019-09-29T19:40:00	0.2127	11.939	181.3	0.509873763	0.611616365	0.009027057	0.093130482	0.028703719
2019-09-29T19:45:00	0.2125	11.939	193.8	0.509024961	0.610435888	0.008999632	0.092847545	0.028616515
2019-09-29T19:50:00	0.2137	11.939	193.9	0.513311155	0.616402889	0.009138546	0.094280696	0.029058226
2019-09-29T19:55:00	0.2130	11.938	193.9	0.510751901	0.612838253	0.009055474	0.093423652	0.028794077
2019-09-29T20:00:00	0.2137	11.938	193.9	0.513325917	0.616423466	0.009139026	0.094285651	0.029059753
2019-09-29T20:05:00	0.2132	11.937	193.9	0.511451295	0.613811874	0.009078138	0.093657477	0.028866144
2019-09-29T20:10:00	0.2126	11.936	193.9	0.509575647	0.611201692	0.009017420	0.093031060	0.028673076
2019-09-29T20:15:00	0.2128	11.935	193.9	0.510096692	0.611926502	0.009034267	0.093204865	0.028726644
2019-09-29T20:20:00	0.2137	11.934	193.9	0.513355441	0.616464620	0.009139987	0.094295561	0.029062808
2019-09-29T20:25:00	0.2135	11.933	193.9	0.512507502	0.615282958	0.009112419	0.094011147	0.028975148
2019-09-29T20:30:00	0.2134	11.932	193.9	0.512343796	0.615054889	0.009107101	0.093956286	0.028958240
2019-09-29T20:35:00	0.2134	11.931	193.9	0.512180081	0.614826830	0.009101785	0.093901439	0.028941335
2019-09-29T20:40:00	0.2129	11.930	193.9	0.510304832	0.612216100	0.009041001	0.093274339	0.028748057
2019-09-29T20:45:00	0.2127	11.926	193.9	0.509798596	0.611511803	0.009024627	0.093105409	0.028695991
2019-09-29T20:50:00	0.2130	11.921	193.9	0.510661980	0.612713104	0.009052562	0.093393610	0.028784818
2019-09-29T20:55:00	0.2128	11.914	193.8	0.510155797	0.612008734	0.009036179	0.093224590	0.028732724
2019-09-29T21:00:00	0.2151	11.908	193.8	0.517858652	0.622749901	0.009287093	0.095813228	0.029530567
2019-09-29T21:05:00	0.2155	11.902	193.7	0.519403044	0.624909242	0.009337815	0.096336512	0.029691849
2019-09-29T21:10:00	0.2150	11.895	193.7	0.517531742	0.622293069	0.009276374	0.095702644	0.029496484
2019-09-29T21:15:00	0.2152	11.889	193.6	0.518393181	0.623497050	0.009304633	0.095994180	0.029586338
2019-09-29T21:20:00	0.2133	11.884	193.7	0.511733199	0.614204421	0.009087281	0.093751807	0.028895217
2019-09-29T21:25:00	0.2134	11.879	181.1	0.512253917	0.614929682	0.009104183	0.093926173	0.028948959
2019-09-29T21:30:00	0.2138	11.875	181.1	0.513458775	0.616608662	0.009143349	0.094330250	0.029073499
2019-09-29T21:35:00	0.2130	11.871	181.0	0.510899631	0.613043874	0.009060259	0.093473017	0.028809292
2019-09-29T21:40:00	0.2119	11.867	181.0	0.506967948	0.607577497	0.008933343	0.092163649	0.028405732
2019-09-29T21:45:00	0.2124	11.864	181.0	0.508859808	0.610206268	0.008994301	0.092792543	0.028599563
2019-09-29T21:50:00	0.2109	11.863	193.5	0.503553784	0.602840758	0.008823858	0.091034112	0.028057598
2019-09-29T21:55:00	0.2119	11.861	193.5	0.507161490	0.607846293	0.008939569	0.092227888	0.028425531
2019-09-29T22:00:00	0.2106	11.862	193.5	0.502539235	0.601435004	0.008791453	0.090699800	0.027954559
2019-09-29T22:05:00	0.2086	11.864	193.5	0.495866737	0.592210254	0.008579814	0.088516361	0.027281602
2019-09-29T22:10:00	0.2094	11.865	193.6	0.498470432	0.595805614	0.008662093	0.089365215	0.027543227
2019-09-29T22:15:00	0.2114	11.868	193.5	0.505189462	0.605108890	0.008876226	0.091574390	0.028224116
2019-09-29T22:20:00	0.2111	11.873	193.6	0.504357910	0.603955540	0.008849584	0.091299522	0.028139400
2019-09-29T22:25:00	0.2099	11.879	193.6	0.500093728	0.598049928	0.008713588	0.089896481	0.027706969
2019-09-29T22:30:00	0.2083	11.887	193.7	0.494792515	0.590728482	0.008545982	0.088167319	0.027174024
2019-09-29T22:35:00	0.2075	11.894	193.7	0.491893592	0.586734352	0.008455013	0.087228808	0.026884766
2019-09-29T22:40:00	0.2054	11.900	181.2	0.484855233	0.577064930	0.008236159	0.084970933	0.026188867
2019-09-29T22:45:00	0.2039	11.906	193.8	0.479530182	0.569775593	0.008072470	0.083282186	0.025668379
2019-09-29T22:50:00	0.2037	11.910	193.8	0.478692333	0.568630741	0.008046863	0.083018005	0.025586956
2019-09-29T22:55:00	0.2038	11.913	193.8	0.479236677	0.569374478	0.008063495	0.083189594	0.025639841
2019-09-29T23:00:00	0.2052	11.918	181.3	0.483924085	0.575788669	0.008207419	0.084674424	0.026097480
2019-09-29T23:05:00	0.2069	11.923	193.9	0.489983050	0.584105694	0.008395324	0.086613008	0.026694970
2019-09-29T23:10:00	0.2064	11.928	193.9	0.488114058	0.581537033	0.008337136	0.086012697	0.026509949
2019-09-29T23:15:00	0.2035	11.933	193.9	0.478303983	0.568100283	0.008035008	0.082895696	0.025549259
2019-09-29T23:20:00	0.2036	11.940	194.0	0.478502802	0.568371841	0.008041076	0.082958302	0.025568554
2019-09-29T23:25:00	0.2031	11.947	181.4	0.476627471	0.565811666	0.007983928	0.082368708	0.025386836
2019-09-29T23:30:00	0.2023	11.955	194.1	0.474059053	0.562309845	0.007905984	0.081564585	0.025138997
2019-09-29T23:35:00	0.1992	11.960	194.1	0.463166703	0.547517304	0.007579631	0.078197652	0.024101276
2019-09-29T23:40:00	0.1987	11.965	194.1	0.461630184	0.545438181	0.007534139	0.077728326	0.023956625
2019-09-29T23:45:00	0.1995	11.970	194.2	0.464260318	0.548998255	0.007612091	0.078532541	0.024204492
2019-09-29T23:50:00	0.1995	11.977	194.2	0.464112903	0.548798574	0.007607712	0.078487359	0.024190566
2019-09-29T23:55:00	0.1993	11.982	194.2	0.463618369	0.548128827	0.007593029	0.078335877	0.024143878
2019-09-30T00:00:00	0.1991	11.988	181.7	0.462776563	0.546989214	0.007568067	0.078078353	0.024064507
2019-09-30T00:05:00	0.1978	11.995	194.3	0.458459706	0.541153992	0.007440697	0.076764300	0.023659503
2019-09-30T00:10:00	0.1954	12.001	181.7	0.449957364	0.529704184	0.007192938	0.074208210	0.022871691
2019-09-30T00:15:00	0.1958	12.007	194.3	0.451551671	0.531846837	0.007239082	0.074684279	0.023018420
2019-09-30T00:20:00	0.1958	12.011	181.8	0.451403698	0.531647886	0.007234794	0.074640031	0.023004782
2019-09-30T00:25:00	0.1944	12.016	181.8	0.446374423	0.524896229	0.007089762	0.073143763	0.022543618
2019-09-30T00:30:00	0.1944	12.020	181.9	0.446575137	0.525165300	0.007095522	0.073203194	0.022561935
2019-09-30T00:35:00	0.1928	12.025	181.9	0.440894020	0.517489008	0.006932383	0.071520122	0.022043196
2019-09-30T00:40:00	0.1916	12.029	194.5	0.437789043	0.512163152	0.006828787	0.070451336	0.021713786
2019-09-30T00:45:00	0.1971	12.035	194.5	0.455886744	0.537683052	0.007365286	0.075986301	0.023419716
2019-09-30T00:50:00	0.1944	12.039	181.6	0.446680172	0.525306119	0.007098538	0.073234303	0.022571524
2019-09-30T00:55:00	0.1946	12.040	193.7	0.447229715	0.526043028	0.007114325	0.073397176	0.022621722
2019-09-30T01:00:00	0.1931	12.041	193.4	0.441844790	0.518832355	0.006960368	0.071808831	0.022132179
2019-09-30T01:05:00	0.1944	12.041	193.3	0.446584503	0.525177856	0.007095791	0.073205967	0.022562790
2019-09-30T01:10:00	0.1953	12.038	193.2	0.449575044	0.529190666	0.007181893	0.074094269	0.022836573
2019-09-30T01:15:00	0.1930	12.036	193.3	0.441748982	0.518704270	0.006957643	0.071780725	0.022123517
2019-09-30T01:20:00	0.1929	12.033	193.4	0.441251141	0.518038825	0.006943496	0.071634766	0.022078531
2019-09-30T01:25:00	0.1928	12.030	193.5	0.441102712	0.517840463	0.006939280	0.071591278	0.022065127
2019-09-30T01:30:00	0.1901	12.025	193.6	0.433636163	0.505081977	0.006691716	0.069037202	0.021277936
2019-09-30T01:35:00	0.1905	12.021	193.7	0.434610877	0.506739663	0.006723735	0.069367536	0.021379748
2019-09-30T01:40:00	0.1902	12.017	193.6	0.433949890	0.505615241	0.006702012	0.069143420	0.021310674
2019-09-30T01:45:00	0.1917	12.013	193.6	0.437919183	0.512385835	0.006833110	0.070495935	0.021727532
2019-09-30T01:50:00	0.1871	12.010	193.6	0.425517116	0.491376753	0.006428623	0.066322915	0.020441367
2019-09-30T01:55:00	0.1862	12.007	193.6	0.422932170	0.487051686	0.006346206	0.065472639	0.020179303
2019-09-30T02:00:00	0.1878	12.003	193.6	0.427475582	0.494665944	0.006491497	0.066971578	0.020641291
2019-09-30T02:05:00	0.1883	12.002	193.7	0.428727480	0.496774051	0.006531883	0.067388237	0.020769709
2019-09-30T02:10:00	0.1896	11.999	193.6	0.432163465	0.502582399	0.006643515	0.068539924	0.021124670
2019-09-30T02:15:00	0.1858	11.996	193.7	0.421916528	0.485357402	0.006314001	0.065140386	0.020076900
2019-09-30T02:20:00	0.1860	11.991	193.7	0.422349135	0.486078724	0.006327706	0.065281781	0.020120479
2019-09-30T02:25:00	0.1868	11.987	193.7	0.424702104	0.490011096	0.006402567	0.066054108	0.020358518
2019-09-30T02:30:00	0.1901	11.986	193.8	0.433609754	0.505037100	0.006690850	0.069028265	0.021275182
2019-09-30T02:35:00	0.1902	11.987	193.8	0.433766627	0.505303703	0.006695996	0.069081361	0.021291546
2019-09-30T02:40:00	0.1882	11.989	193.9	0.428461281	0.496325428	0.006523283	0.067299509	0.020742362
2019-09-30T02:45:00	0.1888	11.991	193.9	0.429985761	0.498897297	0.006572630	0.067808611	0.020899272
2019-09-30T02:50:00	0.1903	11.994	193.9	0.434237159	0.506103772	0.006711448	0.069240768	0.021340677
2019-09-30T02:55:00	0.1927	11.996	193.9	0.440651631	0.517072277	0.006924262	0.071436333	0.022017372
2019-09-30T03:00:00	0.1904	11.998	181.4	0.434550772	0.506637368	0.006721758	0.069347139	0.021373462
2019-09-30T03:05:00	0.1906	12.000	194.0	0.434980066	0.507368231	0.006735887	0.069492908	0.021418389
2019-09-30T03:10:00	0.1892	12.001	194.1	0.431044856	0.500687845	0.006607046	0.068163676	0.021008707
2019-09-30T03:15:00	0.1886	12.000	194.1	0.429562508	0.498182602	0.006558907	0.067667030	0.020855636
2019-09-30T03:20:00	0.1884	12.000	194.1	0.428899500	0.497064062	0.006537445	0.067445613	0.020787393
2019-09-30T03:25:00	0.1887	12.000	194.1	0.429877009	0.498713614	0.006569102	0.067772215	0.020888055
2019-09-30T03:30:00	0.1871	12.000	194.1	0.425381526	0.491149427	0.006424284	0.066278149	0.020427569
2019-09-30T03:35:00	0.1871	12.000	194.2	0.425539186	0.491413759	0.006429329	0.066330203	0.020443613
2019-09-30T03:40:00	0.1868	12.000	194.2	0.424600362	0.489840743	0.006399319	0.066020599	0.020348190
2019-09-30T03:45:00	0.1867	12.001	194.2	0.424209639	0.489186801	0.006386855	0.065892006	0.020308556
2019-09-30T03:50:00	0.1894	12.000	194.2	0.431755428	0.501890915	0.006630198	0.068402533	0.021082325
2019-09-30T03:55:00	0.1906	12.000	194.1	0.434912661	0.507253441	0.006733668	0.069470008	0.021411331
2019-09-30T04:00:00	0.1894	11.999	181.4	0.431796524	0.501960538	0.006631539	0.068416363	0.021086587
2019-09-30T04:05:00	0.1888	11.997	193.8	0.430068473	0.499037021	0.006575314	0.067836299	0.020907806
2019-09-30T04:10:00	0.1902	11.996	193.7	0.433801218	0.505362499	0.006697132	0.069093072	0.021295156
2019-09-30T04:15:00	0.1889	11.994	193.7	0.430436665	0.499659232	0.006587269	0.067959640	0.020945821
2019-09-30T04:20:00	0.1878	11.991	193.8	0.427339007	0.494436225	0.006487100	0.066926218	0.020627310
2019-09-30T04:25:00	0.1901	11.989	193.8	0.433534261	0.504908827	0.006688374	0.069002722	0.021267309
2019-09-30T04:30:00	0.1886	11.985	193.9	0.429622515	0.498283898	0.006560851	0.067687092	0.020861819
2019-09-30T04:35:00	0.1877	11.981	193.9	0.427071002	0.493985591	0.006478478	0.066837262	0.020599893
2019-09-30T04:40:00	0.1874	11.978	193.9	0.426160021	0.492455322	0.006449221	0.066535427	0.020506865
2019-09-30T04:45:00	0.1845	11.974	193.9	0.418381540	0.479482609	0.006202687	0.063991975	0.019722948
2019-09-30T04:50:00	0.1847	11.968	193.8	0.418842179	0.480246189	0.006217124	0.064140919	0.019768854
2019-09-30T04:55:00	0.1831	11.963	193.8	0.414343137	0.472813392	0.006076990	0.062695184	0.019323265
2019-09-30T05:00:00	0.1831	11.959	193.8	0.414529036	0.473119407	0.006082742	0.062754525	0.019341554
2019-09-30T05:05:00	0.1785	11.956	193.8	0.401694637	0.452214924	0.005693346	0.058737198	0.018103375
2019-09-30T05:10:00	0.1807	11.953	181.3	0.407712182	0.461960010	0.005873976	0.060600725	0.018677732
2019-09-30T05:15:00	0.1809	11.950	193.9	0.408452920	0.463166443	0.005896447	0.060832557	0.018749185
2019-09-30T05:20:00	0.1788	11.947	193.8	0.402534802	0.453569583	0.005718360	0.058995270	0.018182915
2019-09-30T05:25:00	0.1817	11.944	193.8	0.410486703	0.466486587	0.005958412	0.061471839	0.018946218
2019-09-30T05:30:00	0.1804	11.941	193.8	0.407073242	0.460920581	0.005854634	0.060401184	0.018616231
2019-09-30T05:35:00	0.1820	11.939	193.8	0.411412406	0.468001553	0.005986746	0.061764159	0.019036314
2019-09-30T05:40:00	0.1793	11.935	193.8	0.403839529	0.455677107	0.005757338	0.059397396	0.018306854
2019-09-30T05:45:00	0.1808	11.932	181.0	0.408187586	0.462734123	0.005888392	0.060749452	0.018723571
2019-09-30T05:50:00	0.1754	11.930	193.8	0.393064754	0.438411636	0.005440224	0.056125788	0.017298513
2019-09-30T05:55:00	0.1765	11.927	193.8	0.396047651	0.443159806	0.005526930	0.057020318	0.017574216
2019-09-30T06:00:00	0.1782	11.923	193.8	0.400974152	0.451054770	0.005671947	0.058516433	0.018035333
2019-09-30T06:05:00	0.1785	11.918	181.2	0.401718078	0.452252694	0.005694043	0.058744389	0.018105591
2019-09-30T06:10:00	0.1797	11.916	193.8	0.404962014	0.457493978	0.005791000	0.059744677	0.018413890
2019-09-30T06:15:00	0.1779	11.917	193.8	0.400144877	0.449721188	0.005647378	0.058262954	0.017957208
2019-09-30T06:20:00	0.1777	11.917	193.8	0.399496970	0.448680576	0.005628227	0.058065376	0.017896313
2019-09-30T06:25:00	0.1778	11.916	193.7	0.399684629	0.448981859	0.005633769	0.058122560	0.017913938
2019-09-30T06:30:00	0.1778	11.917	193.7	0.399872265	0.449283202	0.005639315	0.058179772	0.017931571
2019-09-30T06:35:00	0.1772	11.918	193.7	0.398109367	0.446455770	0.005587343	0.057643589	0.017766314
2019-09-30T06:40:00	0.1808	11.916	193.8	0.408024291	0.462468155	0.005883438	0.060698341	0.018707818
2019-09-30T06:45:00	0.1773	11.912	193.7	0.398206219	0.446610888	0.005590191	0.057672969	0.017775369
2019-09-30T06:50:00	0.1804	11.908	193.7	0.407011981	0.460820979	0.005852782	0.060382073	0.018610341
2019-09-30T06:55:00	0.1765	11.904	181.2	0.396071177	0.443197351	0.005527617	0.057027407	0.017576401
2019-09-30T07:00:00	0.1737	11.900	181.2	0.388142370	0.430628928	0.005298943	0.054668214	0.016849274
2019-09-30T07:05:00	0.1746	11.897	181.5	0.390854753	0.434909323	0.005376516	0.055468526	0.017095939
2019-09-30T07:10:00	0.1737	11.896	193.9	0.388239854	0.430782423	0.005301719	0.054696856	0.016858102
2019-09-30T07:15:00	0.1724	11.895	193.9	0.384495608	0.424905317	0.005195712	0.053603202	0.016521027
2019-09-30T07:20:00	0.1750	11.895	194.0	0.391980793	0.436692169	0.005408920	0.055802832	0.017198975
2019-09-30T07:25:00	0.1712	11.897	181.4	0.381213981	0.419785424	0.005103858	0.052655557	0.016228954
2019-09-30T07:30:00	0.1725	11.901	193.9	0.384782822	0.425354799	0.005203798	0.053686625	0.016546739
2019-09-30T07:35:00	0.1712	11.905	194.0	0.381311914	0.419937796	0.005106585	0.052683691	0.016237625
2019-09-30T07:40:00	0.1715	11.912	181.5	0.382065466	0.421111101	0.005127597	0.052900469	0.016304438
2019-09-30T07:45:00	0.1729	11.918	181.5	0.385913368	0.427126235	0.005235700	0.054015754	0.016648180
2019-09-30T07:50:00	0.1720	11.931	181.6	0.383571438	0.423460523	0.005169744	0.053335301	0.016438458
2019-09-30T07:55:00	0.1742	11.942	194.3	0.389660025	0.433021478	0.005342264	0.055115149	0.016987024
2019-09-30T08:00:00	0.1741	11.958	181.9	0.389288138	0.432434630	0.005331629	0.055005429	0.016953207
2019-09-30T08:05:00	0.1733	11.971	194.6	0.387232258	0.429197141	0.005273065	0.054401242	0.016766991
2019-09-30T08:10:00	0.1743	11.977	194.7	0.389946262	0.433473423	0.005350458	0.055199689	0.017013080
2019-09-30T08:15:00	0.1740	11.977	182.2	0.389013594	0.432001633	0.005323785	0.054924514	0.016928269
2019-09-30T08:20:00	0.1773	11.978	182.3	0.398429271	0.446968221	0.005596753	0.057740665	0.017796234
2019-09-30T08:25:00	0.1780	11.972	182.2	0.400288528	0.449952064	0.005651629	0.058306816	0.017970727
2019-09-30T08:30:00	0.1767	11.960	182.0	0.396573659	0.443999611	0.005542306	0.057178946	0.017623106
2019-09-30T08:35:00	0.1792	11.955	181.7	0.403722604	0.455488049	0.005753839	0.059361292	0.018295727
2019-09-30T08:40:00	0.1756	11.948	181.4	0.393597674	0.439258165	0.005455654	0.056284978	0.017347577
2019-09-30T08:45:00	0.1747	11.939	193.8	0.390987471	0.435119276	0.005380329	0.055507866	0.017108063
2019-09-30T08:50:00	0.1763	11.931	193.7	0.395650900	0.442526865	0.005515350	0.056900846	0.017537393
2019-09-30T08:55:00	0.1781	11.929	193.7	0.400578661	0.450418536	0.005660222	0.058395463	0.017998049
2019-09-30T09:00:00	0.1756	11.929	193.8	0.393512314	0.439122521	0.005453181	0.056259462	0.017339713
2019-09-30T09:05:00	0.1770	11.937	193.9	0.397610385	0.445657013	0.005572685	0.057492369	0.017719706
2019-09-30T09:10:00	0.1776	11.948	194.0	0.399192024	0.448191193	0.005619226	0.057972523	0.017867695
2019-09-30T09:15:00	0.1760	11.961	194.1	0.394636404	0.440910374	0.005485805	0.056596042	0.017443450
2019-09-30T09:20:00	0.1765	11.965	194.1	0.396221088	0.443436627	0.005531997	0.057072592	0.017590327
2019-09-30T09:25:00	0.1768	11.962	194.1	0.396967297	0.444628571	0.005553829	0.057297829	0.017659747
2019-09-30T09:30:00	0.1784	11.953	181.5	0.401334499	0.451634839	0.005682643	0.058626785	0.018069344
2019-09-30T09:35:00	0.1801	11.943	193.8	0.406244334	0.459573777	0.005829600	0.060142909	0.018536629
2019-09-30T09:40:00	0.1782	11.930	193.4	0.400874603	0.450894583	0.005668994	0.058485969	0.018025944
2019-09-30T09:45:00	0.1809	11.921	193.1	0.408280961	0.462886242	0.005891226	0.060778690	0.018732583
2019-09-30T09:50:00	0.1797	11.914	192.9	0.405140309	0.457782885	0.005796357	0.059799952	0.018430926
2019-09-30T09:55:00	0.1771	11.912	192.8	0.397815897	0.445985909	0.005578720	0.057554622	0.017738893
2019-09-30T10:00:00	0.1770	11.910	192.7	0.397445981	0.445393987	0.005567861	0.057442597	0.017704366
2019-09-30T10:05:00	0.1780	11.920	192.8	0.400208394	0.449823266	0.005649257	0.058282346	0.017963185
2019-09-30T10:10:00	0.1840	11.928	193.0	0.416802576	0.476869678	0.006153355	0.063483026	0.019566085
2019-09-30T10:15:00	0.1839	11.927	193.0	0.416502797	0.476374369	0.006144016	0.063386676	0.019536389
2019-09-30T10:20:00	0.1866	11.920	192.9	0.424176678	0.489131655	0.006385804	0.065881165	0.020305215
2019-09-30T10:25:00	0.1881	11.900	192.7	0.428261666	0.495989146	0.006516838	0.067233020	0.020721870
2019-09-30T10:30:00	0.1869	11.881	192.6	0.424951122	0.490428161	0.006410522	0.066136169	0.020383809
2019-09-30T10:35:00	0.1869	11.867	192.6	0.424927026	0.490387797	0.006409752	0.066128226	0.020381361
2019-09-30T10:40:00	0.1882	11.856	192.6	0.428463109	0.496328508	0.006523342	0.067300118	0.020742550
2019-09-30T10:45:00	0.1882	11.850	192.7	0.428439065	0.496287996	0.006522566	0.067292107	0.020740081
2019-09-30T10:50:00	0.1900	11.852	180.3	0.433331953	0.504565154	0.006681742	0.068934301	0.021246221
2019-09-30T10:55:00	0.1882	11.856	192.8	0.428390976	0.496206975	0.006521013	0.067276086	0.020735143
2019-09-30T11:00:00	0.1893	11.857	180.4	0.431373550	0.501244182	0.006617750	0.068274102	0.021042741
2019-09-30T11:05:00	0.1895	11.855	180.5	0.431895625	0.502128450	0.006634772	0.068449720	0.021096869
2019-09-30T11:10:00	0.1896	11.851	180.6	0.432144607	0.502550430	0.006642900	0.068533571	0.021122712
2019-09-30T11:15:00	0.1867	11.850	180.7	0.424460036	0.489605836	0.006394841	0.065974398	0.020333950
2019-09-30T11:20:00	0.1876	11.855	180.8	0.426902201	0.493701864	0.006473051	0.066781270	0.020582636
2019-09-30T11:25:00	0.1854	11.865	180.9	0.420842784	0.483569297	0.006280062	0.064790245	0.019968983
2019-09-30T11:30:00	0.1851	11.882	181.1	0.419993873	0.482157860	0.006253309	0.064514232	0.019883913
2019-09-30T11:35:00	0.1877	11.900	181.3	0.427103811	0.494040747	0.006479533	0.066848148	0.020603248
2019-09-30T11:40:00	0.1860	11.919	181.4	0.422418613	0.486194618	0.006329909	0.065304507	0.020127483
2019-09-30T11:45:00	0.1885	11.933	181.6	0.429244602	0.497646121	0.006548610	0.067560807	0.020822897
2019-09-30T11:50:00	0.1883	11.944	181.7	0.428673605	0.496683241	0.006530142	0.067370274	0.020764173
2019-09-30T11:55:00	0.1866	11.938	181.8	0.423992913	0.488824255	0.006379948	0.065820745	0.020286593
2019-09-30T12:00:00	0.1853	11.932	181.8	0.420398783	0.482830833	0.006266061	0.064645794	0.019924462
2019-09-30T12:05:00	0.1869	11.929	181.9	0.424767444	0.490120514	0.006404654	0.066075634	0.020365152
2019-09-30T12:10:00	0.1850	11.926	181.9	0.419525461	0.481379913	0.006238576	0.064362241	0.019837068
2019-09-30T12:15:00	0.1841	11.929	182.0	0.417299203	0.477690774	0.006168845	0.063642838	0.019615341
2019-09-30T12:20:00	0.1825	11.929	194.6	0.412861677	0.470378096	0.006031270	0.062223502	0.019177888
2019-09-30T12:25:00	0.1845	11.938	194.6	0.418352233	0.479434048	0.006201769	0.063982506	0.019720030
2019-09-30T12:30:00	0.1843	11.944	181.9	0.417777399	0.478482042	0.006183783	0.063796950	0.019662840
2019-09-30T12:35:00	0.1835	11.949	181.8	0.415548718	0.474799642	0.006114350	0.063080626	0.019442061
2019-09-30T12:40:00	0.1868	11.950	194.3	0.424598747	0.489838039	0.006399268	0.066020067	0.020348026
2019-09-30T12:45:00	0.1857	11.949	194.2	0.421555498	0.484755823	0.006302577	0.065022528	0.020040575
2019-09-30T12:50:00	0.1839	11.945	194.1	0.416578675	0.476499716	0.006146379	0.063411055	0.019543903
2019-09-30T12:55:00	0.1867	11.945	194.1	0.424252198	0.489258010	0.006388212	0.065906005	0.020312871
2019-09-30T13:00:00	0.1878	11.947	194.1	0.427242297	0.494273590	0.006483988	0.066894110	0.020617414
2019-09-30T13:05:00	0.1881	11.949	194.1	0.428039341	0.495614735	0.006509665	0.067159014	0.020699060
2019-09-30T13:10:00	0.1844	11.950	194.2	0.418134473	0.479073299	0.006194952	0.063912175	0.019698353
2019-09-30T13:15:00	0.1865	11.957	194.2	0.423881464	0.488637869	0.006376397	0.065784117	0.020275304
2019-09-30T13:20:00	0.1867	11.970	194.3	0.424405928	0.489515272	0.006393115	0.065956589	0.020328461
2019-09-30T13:25:00	0.1855	11.986	194.4	0.421087539	0.483976606	0.006287789	0.064869957	0.019993551
2019-09-30T13:30:00	0.1866	11.996	194.5	0.424083447	0.488975687	0.006382833	0.065850507	0.020295766
2019-09-30T13:35:00	0.1848	11.996	194.5	0.419114411	0.480697731	0.006225665	0.064229042	0.019796015
2019-09-30T13:40:00	0.1836	11.991	181.9	0.415785128	0.475189608	0.006121693	0.063156378	0.019465409
2019-09-30T13:45:00	0.1834	11.985	194.5	0.415209375	0.474240154	0.006103820	0.062971988	0.019408578
2019-09-30T13:50:00	0.1863	11.980	194.5	0.423163865	0.487438596	0.006353567	0.065548578	0.020202708
2019-09-30T13:55:00	0.1873	11.976	194.5	0.425881986	0.491988735	0.006440308	0.066443472	0.020478523
2019-09-30T14:00:00	0.1856	11.973	194.5	0.421193267	0.484152605	0.006291128	0.064904409	0.020004169
2019-09-30T14:05:00	0.1857	11.961	181.9	0.421718600	0.485027552	0.006307737	0.065075757	0.020056980
2019-09-30T14:10:00	0.1830	11.947	181.8	0.414260464	0.472677330	0.006074433	0.062668805	0.019315134
2019-09-30T14:15:00	0.1826	11.934	194.4	0.413131923	0.470821890	0.006039595	0.062309385	0.019204357
2019-09-30T14:20:00	0.1843	11.923	194.3	0.417795676	0.478512297	0.006184354	0.063802845	0.019664656
2019-09-30T14:25:00	0.1868	11.917	194.4	0.424641047	0.489908861	0.006400618	0.066033997	0.020352319
2019-09-30T14:30:00	0.1826	11.914	194.3	0.413059103	0.470702286	0.006037351	0.062286236	0.019197223
2019-09-30T14:35:00	0.1830	11.910	194.4	0.414139180	0.472477759	0.006070683	0.062630118	0.019303211
2019-09-30T14:40:00	0.1834	11.907	194.4	0.415218528	0.474255241	0.006104104	0.062974916	0.019409481
2019-09-30T14:45:00	0.1829	11.905	194.4	0.413814640	0.471943930	0.006060656	0.062526668	0.019271326
2019-09-30T14:50:00	0.1820	11.903	194.4	0.411303965	0.467823961	0.005983423	0.061729871	0.019025746
2019-09-30T14:55:00	0.1832	11.900	194.4	0.414594070	0.473226486	0.006084755	0.062775293	0.019347955
2019-09-30T15:00:00	0.1835	11.898	194.4	0.415397359	0.474550052	0.006109652	0.063032155	0.019427122
2019-09-30T15:05:00	0.1840	11.894	181.8	0.417026944	0.477240553	0.006160350	0.063555196	0.019588329
2019-09-30T15:10:00	0.1816	11.890	181.8	0.410377039	0.466307271	0.005955061	0.061437264	0.018935562
2019-09-30T15:15:00	0.1824	11.887	194.4	0.412564381	0.469890113	0.006022120	0.062129106	0.019148794
2019-09-30T15:20:00	0.1821	11.882	181.8	0.411711076	0.468490845	0.005995906	0.061858652	0.019065437
2019-09-30T15:25:00	0.1814	11.877	194.4	0.409750679	0.465283721	0.005935942	0.061240015	0.018874768
2019-09-30T15:30:00	0.1813	11.870	194.3	0.409449571	0.464792055	0.005926764	0.061145329	0.018845584
2019-09-30T15:35:00	0.1815	11.864	194.3	0.409978769	0.465656323	0.005942900	0.061311799	0.018896892
2019-09-30T15:40:00	0.1816	11.856	194.2	0.410231143	0.466068762	0.005950604	0.061391285	0.018921390
2019-09-30T15:45:00	0.1790	11.850	194.2	0.402996822	0.454315352	0.005732145	0.059137479	0.018226745
2019-09-30T15:50:00	0.1799	11.843	194.2	0.405471943	0.458320495	0.005806331	0.059902847	0.018462639
2019-09-30T15:55:00	0.1797	11.835	194.1	0.404892433	0.457381252	0.005788910	0.059723114	0.018407244
2019-09-30T16:00:00	0.1807	11.829	194.1	0.407918818	0.462296405	0.005880239	0.060665343	0.018697648
2019-09-30T16:05:00	0.1797	11.820	194.1	0.404951607	0.457477117	0.005790687	0.059741452	0.018412896
2019-09-30T16:10:00	0.1818	11.814	194.1	0.410853679	0.467086882	0.005969635	0.061587622	0.018981903
2019-09-30T16:15:00	0.1814	11.805	181.5	0.409830359	0.465413868	0.005938372	0.061265086	0.018882495
2019-09-30T16:20:00	0.1833	11.796	181.5	0.414886958	0.473708866	0.006093825	0.062868874	0.019376797
2019-09-30T16:25:00	0.1839	11.786	194.1	0.416624244	0.476575001	0.006147798	0.063425699	0.019548416
2019-09-30T16:30:00	0.1862	11.774	194.0	0.423032431	0.487219095	0.006349391	0.065505493	0.020189429
2019-09-30T16:35:00	0.1852	11.765	194.0	0.420093194	0.482322894	0.006256435	0.064546488	0.019893855
2019-09-30T16:40:00	0.1836	11.755	193.9	0.415770639	0.475165703	0.006121243	0.063151733	0.019463978
2019-09-30T16:45:00	0.1849	11.746	193.9	0.419433707	0.481227596	0.006235693	0.064332494	0.019827899
2019-09-30T16:50:00	0.1842	11.737	193.9	0.417589881	0.478171682	0.006177923	0.063736490	0.019644205
2019-09-30T16:55:00	0.1849	11.728	193.9	0.419324249	0.481045922	0.006232254	0.064297018	0.019816966
2019-09-30T17:00:00	0.1857	11.720	193.9	0.421606278	0.484840416	0.006304183	0.065039098	0.020045682
2019-09-30T17:05:00	0.1868	11.711	193.8	0.424707880	0.490020768	0.006402752	0.066056011	0.020359104
2019-09-30T17:10:00	0.1870	11.703	193.7	0.425064578	0.490618241	0.006414147	0.066173577	0.020395339
2019-09-30T17:15:00	0.1862	11.695	193.7	0.422952689	0.487085945	0.006346858	0.065479362	0.020181375
2019-09-30T17:20:00	0.1884	11.681	193.7	0.429062583	0.497339080	0.006542720	0.067500034	0.020804166
2019-09-30T17:25:00	0.1891	11.673	193.6	0.430784787	0.500247873	0.006598585	0.068076382	0.020981802
2019-09-30T17:30:00	0.1923	11.665	193.6	0.439585334	0.515240978	0.006888603	0.071068449	0.021903986
2019-09-30T17:35:00	0.1903	11.659	193.6	0.434223820	0.506081083	0.006711009	0.069236246	0.021339283
2019-09-30T17:40:00	0.1907	11.653	193.5	0.435395920	0.508076704	0.006749592	0.069634292	0.021461965
2019-09-30T17:45:00	0.1913	11.646	193.5	0.436839401	0.510539648	0.006797293	0.070126418	0.021613643
2019-09-30T17:50:00	0.1935	11.640	193.4	0.443420179	0.520939519	0.007005238	0.072271753	0.022274856
2019-09-30T17:55:00	0.1941	11.634	193.5	0.445619949	0.523885086	0.007068128	0.072920577	0.022474830
2019-09-30T18:00:00	0.1949	11.625	193.5	0.448167024	0.527300460	0.007141291	0.073675382	0.022707468
2019-09-30T18:05:00	0.1951	11.614	193.4	0.448969378	0.528377394	0.007164414	0.073913940	0.022780994
2019-09-30T18:10:00	0.1945	11.604	193.4	0.446981863	0.525710641	0.007107202	0.073323696	0.022599075
2019-09-30T18:15:00	0.1960	11.594	193.3	0.451967143	0.532405537	0.007251131	0.074808587	0.023056733
2019-09-30T18:20:00	0.1963	11.582	193.3	0.453116823	0.533952258	0.007284524	0.075153094	0.023162913
2019-09-30T18:25:00	0.1965	11.571	193.2	0.453917993	0.535030728	0.007307839	0.075393627	0.023237048
2019-09-30T18:30:00	0.1954	11.563	193.2	0.450191259	0.530018399	0.007199698	0.074277959	0.022893188
2019-09-30T18:35:00	0.1956	11.556	193.1	0.450644672	0.530627640	0.007212813	0.074413262	0.022934890
2019-09-30T18:40:00	0.1971	11.550	193.1	0.455972455	0.537798592	0.007367792	0.076012155	0.023427684
2019-09-30T18:45:00	0.1976	11.542	193.1	0.457816296	0.540285538	0.007421804	0.076569384	0.023599428
2019-09-30T18:50:00	0.1956	11.536	180.6	0.450610926	0.530582290	0.007211836	0.074403187	0.022931785
2019-09-30T18:55:00	0.1969	11.527	193.0	0.455242841	0.536815242	0.007346473	0.075792209	0.023359895
2019-09-30T19:00:00	0.1974	11.517	193.0	0.457087083	0.539301665	0.007400420	0.076348769	0.023531432
2019-09-30T19:05:00	0.1987	11.506	180.4	0.461362737	0.545076480	0.007526235	0.077646777	0.023931491
2019-09-30T19:10:00	0.1990	11.497	180.4	0.462509208	0.546627393	0.007560148	0.077996652	0.024039326
2019-09-30T19:15:00	0.1993	11.487	192.8	0.463655288	0.548178819	0.007594124	0.078347181	0.024147362
2019-09-30T19:20:00	0.1978	11.478	192.8	0.458201341	0.540805220	0.007433108	0.076686001	0.023635370
2019-09-30T19:25:00	0.1991	11.466	192.6	0.462822811	0.547051809	0.007569437	0.078092491	0.024068864
2019-09-30T19:30:00	0.1981	11.456	180.2	0.459453525	0.542496060	0.007469926	0.077065848	0.023752443
2019-09-30T19:35:00	0.2007	11.445	192.6	0.468582353	0.554860346	0.007741045	0.079862939	0.024614533
2019-09-30T19:40:00	0.2004	11.433	192.5	0.467299980	0.553119483	0.007702673	0.079467053	0.024492518
2019-09-30T19:45:00	0.2004	11.421	180.0	0.467404369	0.553261146	0.007705793	0.079499243	0.024502439
2019-09-30T19:50:00	0.1995	11.411	180.0	0.464386735	0.549169508	0.007615848	0.078571299	0.024216437
2019-09-30T19:55:00	0.2007	11.398	179.9	0.468306506	0.554485765	0.007732783	0.079777699	0.024588262
2019-09-30T20:00:00	0.2019	11.384	179.8	0.472567956	0.560279268	0.007860908	0.081099538	0.024995665
2019-09-30T20:05:00	0.2009	11.371	179.8	0.469208402	0.555710702	0.007759813	0.080056560	0.024674209
2019-09-30T20:10:00	0.2003	11.359	179.7	0.466886043	0.552557830	0.007690306	0.079339473	0.024453196
2019-09-30T20:15:00	0.2013	11.345	179.7	0.470456502	0.557406912	0.007797295	0.080443257	0.024793393
2019-09-30T20:20:00	0.2023	11.333	179.6	0.474023189	0.562260984	0.007904899	0.081553384	0.025135545
2019-09-30T20:25:00	0.2023	11.316	179.6	0.474127371	0.562402922	0.007908053	0.081585923	0.025145574
2019-09-30T20:30:00	0.2047	11.298	179.5	0.482181143	0.573401601	0.008153756	0.084120794	0.025926846
2019-09-30T20:35:00	0.2033	11.284	179.4	0.477448563	0.566932264	0.008008925	0.082626599	0.025466320
2019-09-30T20:40:00	0.2033	11.264	179.3	0.477552639	0.567074341	0.008012096	0.082659316	0.025476404
2019-09-30T20:45:00	0.2029	11.248	179.2	0.475927817	0.564857226	0.007962658	0.082149274	0.025319204
2019-09-30T20:50:00	0.2025	11.230	179.1	0.474648230	0.563112674	0.007923831	0.081748701	0.025195743
2019-09-30T20:55:00	0.2033	11.212	179.0	0.477519161	0.567028639	0.008011076	0.082648792	0.025473160
2019-09-30T21:00:00	0.2031	11.194	178.9	0.476585994	0.565755074	0.007982666	0.082355692	0.025382824
2019-09-30T21:05:00	0.2008	11.175	178.8	0.468727570	0.555057565	0.007745397	0.079907830	0.024628369
2019-09-30T21:10:00	0.2004	11.157	178.7	0.467445252	0.553316629	0.007707015	0.079511852	0.024506325
2019-09-30T21:15:00	0.2023	11.141	178.6	0.474131016	0.562407888	0.007908163	0.081587062	0.025145925
2019-09-30T21:20:00	0.2011	11.127	178.5	0.469733670	0.556424409	0.007775577	0.080219191	0.024724334
2019-09-30T21:25:00	0.1996	11.114	178.5	0.464636608	0.549508039	0.007623276	0.078647933	0.024240057
2019-09-30T21:30:00	0.1995	11.103	178.4	0.464394046	0.549179413	0.007616065	0.078573541	0.024217128
2019-09-30T21:35:00	0.2009	11.096	178.4	0.469007033	0.555437151	0.007753774	0.079994257	0.024655007
2019-09-30T21:40:00	0.2001	11.086	178.3	0.466337703	0.551814018	0.007673940	0.079170623	0.024401155
2019-09-30T21:45:00	0.1995	11.078	178.3	0.464360438	0.549133883	0.007615066	0.078563236	0.024213952
2019-09-30T21:50:00	0.1982	11.071	178.3	0.459602797	0.542697706	0.007474321	0.077111190	0.023766418
2019-09-30T21:55:00	0.1983	11.061	178.3	0.460054942	0.543308601	0.007487641	0.077248613	0.023808773
2019-09-30T22:00:00	0.1957	11.055	178.3	0.451112705	0.531256693	0.007226363	0.074553053	0.022977975
2019-09-30T22:05:00	0.1969	11.048	178.3	0.455121598	0.536651874	0.007342933	0.075755690	0.023348639
2019-09-30T22:10:00	0.1968	11.042	178.3	0.454951984	0.536423351	0.007337983	0.075704616	0.023332898
2019-09-30T22:15:00	0.1984	11.036	178.2	0.460346460	0.543702558	0.007496236	0.077337280	0.023836101
2019-09-30T22:20:00	0.1986	11.029	178.2	0.461219406	0.544882658	0.007522000	0.077603090	0.023918026
2019-09-30T22:25:00	0.1962	11.021	178.2	0.452702242	0.533394381	0.007272474	0.075028773	0.023124597
2019-09-30T22:30:00	0.1981	11.013	178.2	0.459490844	0.542546471	0.007471024	0.077077182	0.023755936
2019-09-30T22:35:00	0.1977	11.006	178.2	0.457930865	0.540440155	0.007425166	0.076604074	0.023610120
2019-09-30T22:40:00	0.1996	10.997	178.2	0.464708929	0.549606029	0.007625427	0.078670120	0.024246895
2019-09-30T22:45:00	0.1996	10.990	178.1	0.464539798	0.549376873	0.007620398	0.078618237	0.024230904
2019-09-30T22:50:00	0.1981	10.981	178.1	0.459508401	0.542570187	0.007471541	0.077082515	0.023757580
2019-09-30T22:55:00	0.2002	10.975	178.0	0.466630131	0.552210661	0.007682666	0.079260648	0.024428901
2019-09-30T23:00:00	0.2002	10.966	177.9	0.466807916	0.552451838	0.007687973	0.079315404	0.024445778
2019-09-30T23:05:00	0.2010	10.957	177.8	0.469412310	0.555987735	0.007765931	0.080119674	0.024693662
2019-09-30T23:10:00	0.2023	10.946	177.6	0.474091664	0.562354274	0.007906972	0.081574770	0.025142136
2019-09-30T23:15:00	0.2012	10.933	177.5	0.470114059	0.556941398	0.007787002	0.080337067	0.024760664
2019-09-30T23:20:00	0.2005	10.920	177.4	0.467865677	0.553887275	0.007719589	0.079641572	0.024546306
2019-09-30T23:25:00	0.2027	10.910	177.3	0.475315746	0.564022584	0.007944074	0.081957545	0.025260111
2019-09-30T23:30:00	0.2060	10.895	177.3	0.486888968	0.579854839	0.008299104	0.085620328	0.026389017
2019-09-30T23:35:00	0.2052	10.880	177.2	0.483961681	0.575840186	0.008208578	0.084686386	0.026101167
2019-09-30T23:40:00	0.2081	10.864	177.1	0.494129716	0.589814685	0.008525140	0.087952302	0.027107754
2019-09-30T23:45:00	0.2085	10.846	177.1	0.495337906	0.591480674	0.008563150	0.088344445	0.027228616
2019-09-30T23:50:00	0.2095	10.828	177.0	0.498951230	0.596470128	0.008677329	0.089522405	0.027591675
2019-09-30T23:55:00	0.2102	10.811	176.9	0.501187783	0.599563727	0.008748380	0.090255425	0.027817598
2019-10-01T00:00:00	0.2108	10.792	176.8	0.503422872	0.602659321	0.008819673	0.090990940	0.028044291
2019-10-01T00:05:00	0.2130	10.774	176.7	0.510795484	0.612898913	0.009056885	0.093438214	0.028798565
2019-10-01T00:10:00	0.2116	10.757	176.6	0.506175074	0.606476643	0.008907857	0.091900716	0.028324693
2019-10-01T00:15:00	0.2126	10.739	176.5	0.509434493	0.611005375	0.009012859	0.092984003	0.028658573
2019-10-01T00:20:00	0.2136	10.722	188.6	0.513032945	0.616015131	0.009129497	0.094187339	0.029029453
2019-10-01T00:25:00	0.2130	10.707	188.5	0.510812777	0.612922983	0.009057445	0.093443993	0.028800346
2019-10-01T00:30:00	0.2144	10.695	176.3	0.515435573	0.619365890	0.009207792	0.094995096	0.029278411
2019-10-01T00:35:00	0.2131	10.687	188.4	0.511163746	0.613411531	0.009068816	0.093561306	0.028836503
2019-10-01T00:40:00	0.2134	10.677	188.3	0.512023724	0.614609040	0.009096709	0.093849071	0.028925195
2019-10-01T00:45:00	0.2129	10.667	188.3	0.510487715	0.612470586	0.009046920	0.093335404	0.028766878
2019-10-01T00:50:00	0.2143	10.657	188.2	0.515110949	0.618912889	0.009197194	0.094885757	0.029244712
2019-10-01T00:55:00	0.2150	10.647	188.2	0.517678639	0.622498335	0.009281190	0.095752327	0.029511797
2019-10-01T01:00:00	0.2146	10.638	188.2	0.516145162	0.620356392	0.009230980	0.095234319	0.029352142
2019-10-01T01:05:00	0.2137	10.629	176.0	0.513242883	0.616307729	0.009136325	0.094257782	0.029051164
2019-10-01T01:10:00	0.2135	10.621	188.1	0.512391854	0.615121840	0.009108662	0.093972390	0.028963203
2019-10-01T01:15:00	0.2133	10.611	188.1	0.511882864	0.614412854	0.009092138	0.093801907	0.028910659
2019-10-01T01:20:00	0.2125	10.602	188.0	0.508976971	0.610369164	0.008998083	0.092831561	0.028611589
2019-10-01T01:25:00	0.2134	10.593	175.8	0.512233724	0.614901553	0.009103527	0.093919408	0.028946874
2019-10-01T01:30:00	0.2140	10.584	187.9	0.514119616	0.617530048	0.009164867	0.094552247	0.029141921
2019-10-01T01:35:00	0.2141	10.577	187.9	0.514636911	0.618251540	0.009181729	0.094726205	0.029195536
2019-10-01T01:40:00	0.2155	10.570	187.8	0.519254558	0.624701547	0.009332932	0.096286139	0.029676323
2019-10-01T01:45:00	0.2143	10.561	187.8	0.515329395	0.619217713	0.009204325	0.094959327	0.029267387
2019-10-01T01:50:00	0.2173	10.551	187.7	0.525404651	0.633318940	0.009536238	0.098383605	0.030322782
2019-10-01T01:55:00	0.2159	10.542	187.7	0.520803890	0.626869550	0.009383942	0.096812396	0.029838521
2019-10-01T02:00:00	0.2169	10.533	187.6	0.524049442	0.631417409	0.009491249	0.097919467	0.030179731
2019-10-01T02:05:00	0.2159	10.521	175.5	0.520812512	0.626881620	0.009384226	0.096815328	0.029839424
2019-10-01T02:10:00	0.2162	10.512	175.4	0.521670075	0.628082463	0.009412520	0.097107237	0.029929393
2019-10-01T02:15:00	0.2160	10.500	175.4	0.521162459	0.627371578	0.009395767	0.096934395	0.029876122
2019-10-01T02:20:00	0.2157	10.492	175.3	0.519971982	0.625705207	0.009356535	0.096529645	0.029751374
2019-10-01T02:25:00	0.2154	10.483	175.3	0.519122621	0.624517015	0.009328595	0.096241391	0.029662531
2019-10-01T02:30:00	0.2169	10.477	175.3	0.524075282	0.631453652	0.009492106	0.097928306	0.030182455
2019-10-01T02:35:00	0.2178	10.470	175.3	0.527317750	0.636005800	0.009599928	0.099040688	0.030525302
2019-10-01T02:40:00	0.2156	10.467	175.2	0.519647787	0.625251614	0.009345865	0.096419569	0.029717448
2019-10-01T02:45:00	0.2136	10.463	175.2	0.512987182	0.615951354	0.009128009	0.094171987	0.029024721
2019-10-01T02:50:00	0.2161	10.459	175.2	0.521363280	0.627652791	0.009402393	0.097002755	0.029897191
2019-10-01T02:55:00	0.2157	10.455	175.2	0.520172873	0.625986323	0.009363149	0.096597886	0.029772407
2019-10-01T03:00:00	0.2170	10.455	175.1	0.524442122	0.631968236	0.009504274	0.098053840	0.030221146
2019-10-01T03:05:00	0.2164	10.454	175.1	0.522570510	0.629343982	0.009442275	0.097414213	0.030024007
2019-10-01T03:10:00	0.2178	10.454	175.2	0.527177517	0.635808747	0.009595252	0.098992448	0.030510434
2019-10-01T03:15:00	0.2164	10.455	175.2	0.522579127	0.629356058	0.009442560	0.097417153	0.030024913
2019-10-01T03:20:00	0.2196	10.454	175.2	0.533313488	0.644445825	0.009800918	0.101114267	0.031164399
2019-10-01T03:25:00	0.2175	10.454	175.2	0.526338541	0.634630173	0.009567302	0.098704089	0.030421559
2019-10-01T03:30:00	0.2173	10.452	175.2	0.525490751	0.633439799	0.009539099	0.098413130	0.030331882
2019-10-01T03:35:00	0.2180	10.452	175.2	0.528050702	0.637035985	0.009624386	0.099293014	0.030603071
2019-10-01T03:40:00	0.2169	10.452	175.2	0.524135575	0.631538221	0.009494105	0.097948933	0.030188812
2019-10-01T03:45:00	0.2171	10.450	175.2	0.524651364	0.632261798	0.009511218	0.098125479	0.030243226
2019-10-01T03:50:00	0.2156	10.448	175.2	0.519708158	0.625336074	0.009347852	0.096440063	0.029723764
2019-10-01T03:55:00	0.2142	10.449	175.2	0.514757828	0.618420218	0.009185673	0.094766891	0.029208076
2019-10-01T04:00:00	0.2134	10.449	175.2	0.512196593	0.614849830	0.009102321	0.093906970	0.028943040
2019-10-01T04:05:00	0.2156	10.452	175.2	0.519698450	0.625322493	0.009347532	0.096436767	0.029722748
2019-10-01T04:10:00	0.2163	10.454	175.2	0.522069481	0.628641955	0.009425713	0.097243343	0.029971343
2019-10-01T04:15:00	0.2172	10.458	175.2	0.525120779	0.632920507	0.009526805	0.098286291	0.030292790
2019-10-01T04:20:00	0.2165	10.461	175.2	0.522715221	0.629546785	0.009447062	0.097463594	0.030039226
2019-10-01T04:25:00	0.2147	10.464	175.2	0.516550592	0.620922507	0.009244242	0.095371136	0.029394310
2019-10-01T04:30:00	0.2150	10.467	175.3	0.517557399	0.622328920	0.009277215	0.095711321	0.029499159
2019-10-01T04:35:00	0.2150	10.471	187.4	0.517539056	0.622303289	0.009276614	0.095705118	0.029497247
2019-10-01T04:40:00	0.2154	10.478	175.3	0.518887125	0.624187678	0.009320855	0.096161545	0.029637922
2019-10-01T04:45:00	0.2146	10.483	175.3	0.516135406	0.620342771	0.009230661	0.095231028	0.029351128
2019-10-01T04:50:00	0.2129	10.490	175.4	0.510301342	0.612211244	0.009040888	0.093273174	0.028747698
2019-10-01T04:55:00	0.2162	10.497	175.4	0.521904607	0.628410982	0.009420266	0.097187147	0.029954022
2019-10-01T05:00:00	0.2114	10.504	187.5	0.505467688	0.605494910	0.008885149	0.091666449	0.028252490
2019-10-01T05:05:00	0.2095	10.511	187.6	0.498928390	0.596438557	0.008676605	0.089514935	0.027589372
2019-10-01T05:10:00	0.2114	10.517	187.6	0.505430872	0.605443827	0.008883968	0.091654265	0.028248735
2019-10-01T05:15:00	0.2096	10.522	175.5	0.499235023	0.596862447	0.008686329	0.089615252	0.027620291
2019-10-01T05:20:00	0.2112	10.527	187.6	0.504708221	0.604441349	0.008860803	0.091415267	0.028175073
2019-10-01T05:25:00	0.2115	10.531	187.7	0.505718515	0.605842970	0.008893198	0.091749482	0.028278081
2019-10-01T05:30:00	0.2126	10.537	187.7	0.509469404	0.611053927	0.009013987	0.092995641	0.028662160
2019-10-01T05:35:00	0.2129	10.544	187.7	0.510478292	0.612457473	0.009046615	0.093332257	0.028765908
2019-10-01T05:40:00	0.2112	10.550	187.7	0.504634573	0.604339205	0.008858443	0.091390927	0.028167571
2019-10-01T05:45:00	0.2148	10.559	175.4	0.516940531	0.621467117	0.009257005	0.095502819	0.029434896
2019-10-01T05:50:00	0.2127	10.567	187.8	0.509738322	0.611427961	0.009022678	0.093085306	0.028689795
2019-10-01T05:55:00	0.2155	10.576	175.7	0.519295132	0.624758298	0.009334266	0.096299902	0.029680565
2019-10-01T06:00:00	0.2152	10.584	175.7	0.518252157	0.623299909	0.009300004	0.095946423	0.029571619
2019-10-01T06:05:00	0.2155	10.594	187.9	0.519258465	0.624707011	0.009333060	0.096287464	0.029676732
2019-10-01T06:10:00	0.2166	10.604	187.9	0.522994578	0.629938335	0.009456305	0.097558955	0.030068618
2019-10-01T06:15:00	0.2171	10.614	175.9	0.524681486	0.632304062	0.009512218	0.098135795	0.030246405
2019-10-01T06:20:00	0.2167	10.625	175.9	0.523299064	0.630365176	0.009466385	0.097662948	0.030100669
2019-10-01T06:25:00	0.2124	10.636	188.1	0.508924636	0.610296399	0.008996393	0.092814131	0.028606217
2019-10-01T06:30:00	0.2128	10.647	188.1	0.510276096	0.612176116	0.009040071	0.093264746	0.028745100
2019-10-01T06:35:00	0.2115	10.657	176.0	0.505803673	0.605961150	0.008895931	0.091777681	0.028286773
2019-10-01T06:40:00	0.2109	10.668	176.1	0.503727586	0.603081661	0.008829415	0.091091445	0.028075268
2019-10-01T06:45:00	0.2109	10.680	176.1	0.503709169	0.603056132	0.008828826	0.091085369	0.028073395
2019-10-01T06:50:00	0.2121	10.688	176.1	0.507804920	0.608740126	0.008960285	0.092441612	0.028491403
2019-10-01T06:55:00	0.2131	10.699	176.2	0.511211240	0.613477650	0.009070356	0.093577187	0.028841398
2019-10-01T07:00:00	0.2131	10.713	176.2	0.511192863	0.613452066	0.009069760	0.093571042	0.028839504
2019-10-01T07:05:00	0.2135	10.725	176.3	0.512543428	0.615333012	0.009113586	0.094023188	0.028978860
2019-10-01T07:10:00	0.2134	10.734	176.3	0.512182872	0.614830717	0.009101876	0.093902374	0.028941623
2019-10-01T07:15:00	0.2135	10.742	176.4	0.512506688	0.615281824	0.009112393	0.094010874	0.028975064
2019-10-01T07:20:00	0.2123	10.750	176.4	0.508379782	0.609538990	0.008978814	0.092632770	0.028550319
2019-10-01T07:25:00	0.2110	10.757	176.4	0.503904876	0.603327423	0.008835085	0.091149947	0.028093299
2019-10-01T07:30:00	0.2113	10.768	176.5	0.504915408	0.604728720	0.008867441	0.091483756	0.028196182
2019-10-01T07:35:00	0.2096	10.782	176.5	0.499062159	0.596623470	0.008680846	0.089558691	0.027602858
2019-10-01T07:40:00	0.2085	10.795	176.6	0.495262887	0.591377194	0.008560788	0.088320071	0.027221104
2019-10-01T07:45:00	0.2102	10.808	176.6	0.501085790	0.599422562	0.008745134	0.090221932	0.027807276
2019-10-01T07:50:00	0.2089	10.819	176.7	0.496601308	0.593224049	0.008602988	0.088755437	0.027355288
2019-10-01T07:55:00	0.2043	10.833	176.7	0.480732583	0.571419553	0.008109289	0.083662040	0.025785453
2019-10-01T08:00:00	0.2055	10.848	176.8	0.485200993	0.577539015	0.008246844	0.085081165	0.026222841
2019-10-01T08:05:00	0.2050	10.869	176.9	0.483457418	0.575149302	0.008193033	0.084526015	0.026051739
2019-10-01T08:10:00	0.2049	10.893	177.0	0.483093772	0.574651201	0.008181833	0.084410458	0.026016123
2019-10-01T08:15:00	0.2061	10.920	177.1	0.487214374	0.580301543	0.008309198	0.085724462	0.026421112
2019-10-01T08:20:00	0.2066	10.949	177.2	0.488919027	0.582643004	0.008362173	0.086270995	0.026589559
2019-10-01T08:25:00	0.2044	10.969	177.2	0.481312034	0.572212209	0.008127062	0.083845401	0.025841967
2019-10-01T08:30:00	0.2036	10.983	177.3	0.478529812	0.568408734	0.008041901	0.082966809	0.025571176
2019-10-01T08:35:00	0.2033	10.993	177.4	0.477474288	0.566967382	0.008009708	0.082634686	0.025468813
2019-10-01T08:40:00	0.2052	11.003	177.4	0.484017879	0.575917195	0.008210311	0.084704268	0.026106678
2019-10-01T08:45:00	0.2065	11.014	177.5	0.488481967	0.582042450	0.008348574	0.086130704	0.026546319
2019-10-01T08:50:00	0.2085	11.026	177.5	0.495348306	0.591495020	0.008563478	0.088347824	0.027229657
2019-10-01T08:55:00	0.2095	11.040	177.6	0.498767067	0.596215573	0.008671492	0.089462179	0.027573113
2019-10-01T09:00:00	0.2098	11.058	177.7	0.499779120	0.597614796	0.008703596	0.089793395	0.027675196
2019-10-01T09:05:00	0.2091	11.083	177.7	0.497355690	0.594265636	0.008626818	0.089001295	0.027431063
2019-10-01T09:10:00	0.2102	11.105	177.8	0.501115770	0.599464056	0.008746088	0.090231776	0.027810310
2019-10-01T09:15:00	0.2096	11.120	177.9	0.499036829	0.596588455	0.008680043	0.089550405	0.027600305
2019-10-01T09:20:00	0.2116	11.133	178.0	0.505881956	0.606069795	0.008898444	0.091803607	0.028294763
2019-10-01T09:25:00	0.2112	11.143	178.0	0.504491932	0.604141389	0.008853875	0.091343795	0.028153045
2019-10-01T09:30:00	0.2090	11.158	178.1	0.496919713	0.593663620	0.008613042	0.088859166	0.027387258
2019-10-01T09:35:00	0.2087	11.177	178.2	0.496213715	0.592689071	0.008590756	0.088629250	0.027316396
2019-10-01T09:40:00	0.2088	11.192	178.3	0.496539048	0.593138106	0.008601022	0.088735161	0.027349039
2019-10-01T09:45:00	0.2074	11.199	178.3	0.491704329	0.586473821	0.008449090	0.087167709	0.026865934
2019-10-01T09:50:00	0.2081	11.208	178.4	0.494094843	0.589766615	0.008524044	0.087940996	0.027104269
2019-10-01T09:55:00	0.2071	11.224	178.5	0.490634409	0.585001552	0.008415650	0.086822709	0.026759602
2019-10-01T10:00:00	0.2094	11.249	178.6	0.498527286	0.595884183	0.008663894	0.089383796	0.027548954
2019-10-01T10:05:00	0.2079	11.279	178.7	0.493220555	0.588561802	0.008496593	0.087657786	0.027016981
2019-10-01T10:10:00	0.2090	11.318	178.9	0.497198303	0.594048291	0.008621844	0.088949973	0.027415246
2019-10-01T10:15:00	0.2104	11.356	179.1	0.501857958	0.600491496	0.008769726	0.090475651	0.027885474
2019-10-01T10:20:00	0.2098	11.392	179.3	0.499992402	0.597909776	0.008710369	0.089863274	0.027696734
2019-10-01T10:25:00	0.2090	11.421	179.4	0.497094827	0.593905406	0.008618574	0.088916239	0.027404849
2019-10-01T10:30:00	0.2090	11.448	179.6	0.496945759	0.593699580	0.008613865	0.088867654	0.027389874
2019-10-01T10:35:00	0.2105	11.470	179.7	0.502292217	0.601092863	0.008783572	0.090618496	0.027929501
2019-10-01T10:40:00	0.2098	11.491	179.8	0.499740064	0.597560784	0.008702356	0.089780602	0.027671253
2019-10-01T10:45:00	0.2095	11.520	192.3	0.498904110	0.596404995	0.008675835	0.089506994	0.027586925
2019-10-01T10:50:00	0.2113	11.553	192.5	0.504933430	0.604753719	0.008868019	0.091489715	0.028198019
2019-10-01T10:55:00	0.2096	11.590	192.7	0.499293187	0.596942862	0.008688174	0.089634287	0.027626158
2019-10-01T11:00:00	0.2097	11.622	192.8	0.499487709	0.597211818	0.008694346	0.089697962	0.027645783
2019-10-01T11:05:00	0.2105	11.643	192.9	0.502085571	0.600806678	0.008776982	0.090550508	0.027908546
2019-10-01T11:10:00	0.2087	11.660	193.0	0.496096813	0.592527740	0.008587069	0.088591208	0.027304671
2019-10-01T11:15:00	0.2075	11.675	193.1	0.491819198	0.586631941	0.008452685	0.087204789	0.026877363
2019-10-01T11:20:00	0.2050	11.689	193.1	0.483397458	0.575067165	0.008191186	0.084506956	0.026045865
2019-10-01T11:25:00	0.2039	11.699	193.2	0.479449333	0.569665096	0.008069997	0.083256676	0.025660516
2019-10-01T11:30:00	0.2031	11.713	180.8	0.476879964	0.566156203	0.007991610	0.082447970	0.025411265
2019-10-01T11:35:00	0.2012	11.733	193.4	0.470153693	0.556995271	0.007788193	0.080349354	0.024764451
2019-10-01T11:40:00	0.2018	11.755	193.5	0.472081641	0.559617387	0.007846234	0.080948148	0.024949005
2019-10-01T11:45:00	0.2019	11.772	193.6	0.472623952	0.560355491	0.007862598	0.081116978	0.025001040
2019-10-01T11:50:00	0.2030	11.782	193.6	0.476280091	0.565337735	0.007973364	0.082259722	0.025353245
2019-10-01T11:55:00	0.2030	11.790	193.7	0.476475934	0.565604913	0.007979318	0.082321157	0.025372180
2019-10-01T12:00:00	0.2017	11.803	193.8	0.471827221	0.559271191	0.007838562	0.080869003	0.024924612
2019-10-01T12:05:00	0.2011	11.824	193.9	0.469945081	0.556711725	0.007781926	0.080284693	0.024744522
2019-10-01T12:10:00	0.2008	11.860	194.0	0.468755168	0.555095048	0.007746224	0.079916363	0.024630999
2019-10-01T12:15:00	0.2003	11.897	181.7	0.467218092	0.553008362	0.007700225	0.079441807	0.024484736
2019-10-01T12:20:00	0.1999	11.940	181.8	0.465680315	0.550922601	0.007654341	0.078968427	0.024338836
2019-10-01T12:25:00	0.1996	11.991	182.1	0.464488895	0.549307910	0.007618884	0.078602626	0.024226093
2019-10-01T12:30:00	0.1990	12.035	182.3	0.462602655	0.546753852	0.007562915	0.078025204	0.024048126
2019-10-01T12:35:00	0.1964	12.073	182.5	0.453411389	0.534348719	0.007293092	0.075241487	0.023190157
2019-10-01T12:40:00	0.1963	12.104	182.6	0.453260382	0.534145468	0.007288699	0.075196166	0.023176189
2019-10-01T12:45:00	0.1971	12.128	182.8	0.455893956	0.537692774	0.007365497	0.075988476	0.023420386
2019-10-01T12:50:00	0.1987	12.150	182.9	0.461652922	0.545468936	0.007534811	0.077735261	0.023958762
2019-10-01T12:55:00	0.1956	12.179	183.0	0.450717177	0.530725077	0.007214911	0.074434909	0.022941562
2019-10-01T13:00:00	0.1980	12.211	183.2	0.458919210	0.541774415	0.007454204	0.076903652	0.023702452
2019-10-01T13:05:00	0.1983	12.246	183.4	0.460158690	0.543448798	0.007490699	0.077280163	0.023818497
2019-10-01T13:10:00	0.1936	12.271	183.5	0.443635467	0.521227629	0.007011381	0.072335127	0.022294389
2019-10-01T13:15:00	0.1955	12.291	183.6	0.450461136	0.530381006	0.007207503	0.074358478	0.022918005
2019-10-01T13:20:00	0.1979	12.319	183.7	0.458663794	0.541429531	0.007446695	0.076826177	0.023678574
2019-10-01T13:25:00	0.1966	12.351	183.9	0.454338535	0.535597030	0.007320092	0.075520036	0.023276009
2019-10-01T13:30:00	0.1982	12.380	184.0	0.459752653	0.542900159	0.007478734	0.077156723	0.023780452
2019-10-01T13:35:00	0.1954	12.405	184.1	0.449856537	0.529568746	0.007190024	0.074178153	0.022862427
2019-10-01T13:40:00	0.1965	12.423	184.2	0.453885621	0.534987141	0.007306896	0.075383900	0.023234050
2019-10-01T13:45:00	0.1965	12.437	184.3	0.453734635	0.534783862	0.007302500	0.075338545	0.023220071
2019-10-01T13:50:00	0.1956	12.446	184.4	0.450797139	0.530832541	0.007217226	0.074458786	0.022948921
2019-10-01T13:55:00	0.1935	12.455	184.4	0.443320066	0.520805554	0.007002383	0.072242291	0.022265776
2019-10-01T14:00:00	0.1942	12.466	184.5	0.445961458	0.524342719	0.007077916	0.073021560	0.022505954
2019-10-01T14:05:00	0.1941	12.482	184.6	0.445461120	0.523672281	0.007063578	0.072873635	0.022460362
2019-10-01T14:10:00	0.1958	12.499	184.7	0.451238000	0.531425124	0.007229992	0.074590498	0.022989516
2019-10-01T14:15:00	0.1946	12.517	184.7	0.447251998	0.526072913	0.007114965	0.073403784	0.022623759
2019-10-01T14:20:00	0.1954	12.539	184.8	0.449890291	0.529614086	0.007190999	0.074188215	0.022865528
2019-10-01T14:25:00	0.1931	12.561	184.9	0.442061841	0.519122557	0.006966541	0.071872524	0.022151810
2019-10-01T14:30:00	0.1919	12.575	185.0	0.438465881	0.513321809	0.006851288	0.070683476	0.021785334
2019-10-01T14:35:00	0.1925	12.584	185.0	0.440250434	0.516382872	0.006910832	0.071297779	0.021974668
2019-10-01T14:40:00	0.1913	12.589	185.0	0.436869674	0.510591364	0.006798296	0.070136762	0.021616831
2019-10-01T14:45:00	0.1940	12.587	185.1	0.445297263	0.523452760	0.007058886	0.072825223	0.022445441
2019-10-01T14:50:00	0.1940	12.585	185.1	0.445145891	0.523249984	0.007054552	0.072780513	0.022431661
2019-10-01T14:55:00	0.1937	12.582	185.0	0.443947162	0.521644820	0.007020279	0.072426928	0.022322683
2019-10-01T15:00:00	0.1950	12.580	185.1	0.448680780	0.527989974	0.007156093	0.073828090	0.022754534
2019-10-01T15:05:00	0.1937	12.579	185.1	0.443993472	0.521706811	0.007021602	0.072440573	0.022326888
2019-10-01T15:10:00	0.1932	12.578	185.1	0.442445020	0.519634964	0.006977447	0.071985035	0.022186487
2019-10-01T15:15:00	0.1948	12.575	185.1	0.447878358	0.526913130	0.007132981	0.073589647	0.022681044
2019-10-01T15:20:00	0.1932	12.568	185.0	0.442491352	0.519696929	0.006978766	0.071998645	0.022190681
2019-10-01T15:25:00	0.1939	12.562	185.0	0.444784332	0.522765718	0.007044206	0.072673777	0.022398764
2019-10-01T15:30:00	0.1952	12.558	185.0	0.449168159	0.528644280	0.007170149	0.073973101	0.022799228
2019-10-01T15:35:00	0.1919	12.555	185.0	0.438564340	0.513490466	0.006854565	0.070717284	0.021795754
2019-10-01T15:40:00	0.1908	12.554	185.0	0.435452600	0.508173304	0.006751461	0.069653576	0.021467909
2019-10-01T15:45:00	0.1913	12.551	185.0	0.436968227	0.510759741	0.006801560	0.070170442	0.021627212
2019-10-01T15:50:00	0.1912	12.553	185.0	0.436577987	0.510093179	0.006788639	0.070037137	0.021586126
2019-10-01T15:55:00	0.1920	12.552	185.1	0.438908333	0.514079921	0.006866022	0.070835479	0.021832183
2019-10-01T16:00:00	0.1891	12.551	185.1	0.430887631	0.500421838	0.006601930	0.068110895	0.020992439
2019-10-01T16:05:00	0.1910	12.548	185.0	0.436144232	0.509352788	0.006774295	0.069889149	0.021540515
2019-10-01T16:10:00	0.1920	12.544	185.1	0.438667659	0.513667475	0.006858005	0.070752772	0.021806691
2019-10-01T16:15:00	0.1917	12.540	185.1	0.437926392	0.512398172	0.006833349	0.070498406	0.021728293
2019-10-01T16:20:00	0.1911	12.534	185.1	0.436368216	0.509735048	0.006781700	0.069965544	0.021564060
2019-10-01T16:25:00	0.1901	12.530	185.1	0.433718167	0.505221340	0.006694406	0.069064956	0.021286490
2019-10-01T16:30:00	0.1909	12.524	185.0	0.435700616	0.508596108	0.006759643	0.069737996	0.021493928
2019-10-01T16:35:00	0.1907	12.517	185.0	0.435230498	0.507794824	0.006744138	0.069578030	0.021444625
2019-10-01T16:40:00	0.1912	12.512	185.0	0.436666815	0.510244867	0.006791579	0.070067467	0.021595474
2019-10-01T16:45:00	0.1910	12.504	185.0	0.436196970	0.509442779	0.006776038	0.069907132	0.021546057
2019-10-01T16:50:00	0.1914	12.495	184.9	0.437088259	0.510964851	0.006805537	0.070211475	0.021639859
2019-10-01T16:55:00	0.1912	12.485	184.9	0.436618532	0.510162413	0.006789981	0.070050980	0.021590392
2019-10-01T17:00:00	0.1916	12.476	184.9	0.437781648	0.512150501	0.006828541	0.070448802	0.021713005
2019-10-01T17:05:00	0.1921	12.466	184.8	0.438943957	0.514140984	0.006867209	0.070847727	0.021835957
2019-10-01T17:10:00	0.1928	12.456	184.8	0.440920222	0.517534066	0.006933262	0.071529183	0.022045989
2019-10-01T17:15:00	0.1917	12.446	184.8	0.438005413	0.512533410	0.006835975	0.070525495	0.021736643
2019-10-01T17:20:00	0.1907	12.437	184.8	0.435357968	0.508012027	0.006748340	0.069621382	0.021457986
2019-10-01T17:25:00	0.1905	12.428	184.7	0.434615229	0.506747071	0.006723878	0.069369014	0.021380204
2019-10-01T17:30:00	0.1912	12.418	184.7	0.436596610	0.510124979	0.006789255	0.070043495	0.021588085
2019-10-01T17:35:00	0.1925	12.409	184.7	0.440206254	0.516306982	0.006909354	0.071282532	0.021969969
2019-10-01T17:40:00	0.1914	12.401	184.6	0.437290204	0.511310024	0.006812232	0.070280545	0.021661146
2019-10-01T17:45:00	0.1923	12.391	184.6	0.439540183	0.515163503	0.006887096	0.071052897	0.021899193
2019-10-01T17:50:00	0.1930	12.382	184.6	0.441639993	0.518558572	0.006954545	0.071748759	0.022113664
2019-10-01T17:55:00	0.1921	12.371	184.5	0.439145678	0.514486822	0.006873933	0.070917101	0.021857339
2019-10-01T18:00:00	0.1911	12.362	184.5	0.436227779	0.509495355	0.006777056	0.069917639	0.021549295
2019-10-01T18:05:00	0.1935	12.349	184.4	0.443324654	0.520811694	0.007002514	0.072243641	0.022266192
2019-10-01T18:10:00	0.1914	12.337	184.4	0.437193673	0.511145015	0.006809032	0.070247524	0.021650969
2019-10-01T18:15:00	0.1919	12.326	184.3	0.438628303	0.513600046	0.006856694	0.070739253	0.021802525
2019-10-01T18:20:00	0.1923	12.314	184.3	0.439518299	0.515125956	0.006886365	0.071045360	0.021896870
2019-10-01T18:25:00	0.1937	12.305	184.2	0.444056866	0.521791674	0.007023413	0.072459253	0.022332645
2019-10-01T18:30:00	0.1913	12.294	184.2	0.436947882	0.510724979	0.006800886	0.070163488	0.021625068
2019-10-01T18:35:00	0.1922	12.284	184.1	0.439470098	0.515043258	0.006884756	0.071028761	0.021891754
2019-10-01T18:40:00	0.1946	12.274	184.1	0.447135957	0.525917287	0.007111630	0.073369376	0.022613154
2019-10-01T18:45:00	0.1947	12.264	184.1	0.447580422	0.526513432	0.007124409	0.073501210	0.022653787
2019-10-01T18:50:00	0.1948	12.255	184.0	0.448024827	0.527109653	0.007137197	0.073633143	0.022694450
2019-10-01T18:55:00	0.1945	12.247	184.0	0.446725220	0.525366517	0.007099831	0.073247648	0.022575636
2019-10-01T19:00:00	0.1942	12.239	183.9	0.445774107	0.524091651	0.007072546	0.072966152	0.022488877
2019-10-01T19:05:00	0.1953	12.231	183.9	0.449706279	0.529366923	0.007185683	0.074133371	0.022848625
2019-10-01T19:10:00	0.1947	12.224	183.9	0.447709839	0.526687044	0.007128131	0.073539619	0.022665625
2019-10-01T19:15:00	0.1963	12.216	183.9	0.453032933	0.533839361	0.007282085	0.075127929	0.023155157
2019-10-01T19:20:00	0.1975	12.210	183.8	0.457304410	0.539594844	0.007406790	0.076414486	0.023551687
2019-10-01T19:25:00	0.1953	12.206	183.8	0.449740034	0.529412261	0.007186658	0.074143430	0.022851725
2019-10-01T19:30:00	0.1964	12.202	183.8	0.453667559	0.534693560	0.007300547	0.075318399	0.023213862
2019-10-01T19:35:00	0.1939	12.197	183.8	0.444698889	0.522651292	0.007041762	0.072648564	0.022390993
2019-10-01T19:40:00	0.1940	12.195	183.8	0.445143677	0.523247018	0.007054489	0.072779860	0.022431460
2019-10-01T19:45:00	0.1942	12.192	183.8	0.445937387	0.524310461	0.007077226	0.073014440	0.022503759
2019-10-01T19:50:00	0.1937	12.189	183.7	0.443938698	0.521633491	0.007020038	0.072424435	0.022321914
2019-10-01T19:55:00	0.1947	12.186	183.7	0.447524245	0.526438075	0.007122793	0.073484541	0.022648649
2019-10-01T20:00:00	0.1938	12.184	183.7	0.444479320	0.522357269	0.007035484	0.072583793	0.022371030
2019-10-01T20:05:00	0.1926	12.184	183.7	0.440539329	0.516879255	0.006920501	0.071397533	0.022005413
2019-10-01T20:10:00	0.1955	12.183	183.7	0.450251654	0.530099542	0.007201444	0.074295975	0.022898741
2019-10-01T20:15:00	0.1966	12.181	183.7	0.454178581	0.535381619	0.007315430	0.075471944	0.023261186
2019-10-01T20:20:00	0.1994	12.178	183.6	0.464006643	0.548654650	0.007604556	0.078454798	0.024180531
2019-10-01T20:25:00	0.1992	12.177	183.5	0.463407584	0.547843419	0.007586775	0.078271355	0.024123992
2019-10-01T20:30:00	0.1999	12.175	183.3	0.465584989	0.550793367	0.007651501	0.078939128	0.024329806
2019-10-01T20:35:00	0.2010	12.173	183.0	0.469494066	0.556098820	0.007768384	0.080144986	0.024701463
2019-10-01T20:40:00	0.2028	12.174	182.7	0.475820635	0.564711048	0.007959402	0.082115683	0.025308851
2019-10-01T20:45:00	0.2064	12.173	182.3	0.487999298	0.581379402	0.008333570	0.085975904	0.026498609
2019-10-01T20:50:00	0.2047	12.173	181.9	0.482230059	0.573468561	0.008155259	0.084136307	0.025931627
2019-10-01T20:55:00	0.2057	12.173	193.8	0.485775111	0.578326423	0.008264600	0.085264357	0.026279303
2019-10-01T21:00:00	0.2051	12.173	193.5	0.483799920	0.575618537	0.008203590	0.084634925	0.026085306
2019-10-01T21:05:00	0.2038	12.175	193.0	0.479060326	0.569133505	0.008058105	0.083133986	0.025622702
2019-10-01T21:10:00	0.2077	12.176	180.1	0.492604346	0.587713003	0.008477272	0.087458449	0.026955543
2019-10-01T21:15:00	0.2065	12.176	179.9	0.488566269	0.582158276	0.008351197	0.086157755	0.026554657
2019-10-01T21:20:00	0.2055	12.173	179.7	0.484868361	0.577082928	0.008236564	0.084975117	0.026190156
2019-10-01T21:25:00	0.2046	12.168	191.9	0.481857013	0.572957952	0.008143795	0.084018035	0.025895174
2019-10-01T21:30:00	0.2064	12.161	179.2	0.488160546	0.581600890	0.008338581	0.086027604	0.026514543
2019-10-01T21:35:00	0.2057	12.155	179.0	0.485841904	0.578418047	0.008266667	0.085285682	0.026285875
2019-10-01T21:40:00	0.2024	12.148	179.0	0.474191336	0.562490073	0.007909990	0.081605905	0.025151732
2019-10-01T21:45:00	0.2029	12.139	178.9	0.476015957	0.564977442	0.007965336	0.082176901	0.025327719
2019-10-01T21:50:00	0.2041	12.131	178.9	0.480258435	0.570771145	0.008094760	0.083512148	0.025739255
2019-10-01T21:55:00	0.1998	12.122	179.0	0.465467576	0.550634200	0.007648004	0.078903049	0.024318686
2019-10-01T22:00:00	0.1983	12.114	179.0	0.460007239	0.543244141	0.007486235	0.077234109	0.023804302
2019-10-01T22:05:00	0.2010	12.105	179.1	0.469419649	0.555997708	0.007766151	0.080121946	0.024694362
2019-10-01T22:10:00	0.2045	12.097	179.3	0.481569341	0.572564275	0.008134960	0.083926887	0.025867082
2019-10-01T22:15:00	0.2031	12.090	179.4	0.476774575	0.566012389	0.007988403	0.082414882	0.025401067
2019-10-01T22:20:00	0.2010	12.083	179.5	0.469548228	0.556172415	0.007770010	0.080161757	0.024706632
2019-10-01T22:25:00	0.2012	12.075	179.6	0.470284049	0.557172469	0.007792111	0.080389771	0.024776908
2019-10-01T22:30:00	0.2013	12.068	179.7	0.470673322	0.557701703	0.007803816	0.080510527	0.024814126
2019-10-01T22:35:00	0.2021	12.061	179.8	0.473140104	0.561058209	0.007878189	0.081277825	0.025050615
2019-10-01T22:40:00	0.1998	12.053	179.9	0.465212105	0.550287918	0.007640398	0.078824573	0.024294499
2019-10-01T22:45:00	0.2002	12.047	180.0	0.466642583	0.552227552	0.007683038	0.079264482	0.024430083
2019-10-01T22:50:00	0.2018	12.041	180.1	0.472229963	0.559819234	0.007850708	0.080994306	0.024963232
2019-10-01T22:55:00	0.2021	12.035	180.1	0.473311352	0.561291404	0.007883365	0.081331226	0.025067074
2019-10-01T23:00:00	0.2023	12.028	180.2	0.474046354	0.562292543	0.007905600	0.081560618	0.025137775
2019-10-01T23:05:00	0.2019	12.022	180.2	0.472704650	0.560465344	0.007865035	0.081142115	0.025008788
2019-10-01T23:10:00	0.2038	12.016	180.3	0.479318743	0.569486626	0.008066004	0.083215479	0.025647819
2019-10-01T23:15:00	0.2044	12.010	180.3	0.481088621	0.571906560	0.008120207	0.083774680	0.025820170
2019-10-01T23:20:00	0.2056	12.004	180.3	0.485272836	0.577637535	0.008249065	0.085104078	0.026229903
2019-10-01T23:25:00	0.2060	11.997	180.4	0.486694857	0.579588412	0.008293086	0.085558240	0.026369881
2019-10-01T23:30:00	0.2061	11.992	180.4	0.487082248	0.580120155	0.008305099	0.085682172	0.026408078
2019-10-01T23:35:00	0.2070	11.987	192.9	0.490226008	0.584439810	0.008402903	0.086691197	0.026719069
2019-10-01T23:40:00	0.2039	11.982	192.9	0.479575145	0.569837046	0.008073845	0.083296375	0.025672752
2019-10-01T23:45:00	0.2044	11.977	192.9	0.481344888	0.572257159	0.008128070	0.083855803	0.025845173
2019-10-01T23:50:00	0.2036	11.971	192.9	0.478623990	0.568537382	0.008044776	0.082996475	0.025580320
2019-10-01T23:55:00	0.2040	11.964	192.9	0.479703338	0.570012266	0.008077767	0.083336836	0.025685222
2019-10-02T00:00:00	0.2055	11.958	192.9	0.484924271	0.577159582	0.008238292	0.084992937	0.026195649
2019-10-02T00:05:00	0.2036	11.952	193.0	0.478406623	0.568240471	0.008038140	0.082928014	0.025559219
2019-10-02T00:10:00	0.2043	11.946	193.0	0.480867774	0.571604463	0.008113434	0.083704802	0.025798633
2019-10-02T00:15:00	0.2060	11.940	193.0	0.486776509	0.579700480	0.008295617	0.085584355	0.026377929
2019-10-02T00:20:00	0.2053	11.935	193.0	0.484404989	0.576447725	0.008222256	0.084827496	0.026144658
2019-10-02T00:25:00	0.2034	11.930	193.0	0.477886342	0.567529949	0.008022268	0.082764261	0.025508749
2019-10-02T00:30:00	0.2031	11.923	193.0	0.476891948	0.566172556	0.007991975	0.082451733	0.025412425
2019-10-02T00:35:00	0.2022	11.918	193.0	0.473475301	0.561514680	0.007888322	0.081382366	0.025082836
2019-10-02T00:40:00	0.2015	11.912	193.0	0.471094443	0.558274374	0.007816488	0.080641264	0.024854421
2019-10-02T00:45:00	0.2044	11.906	193.0	0.481166770	0.572013471	0.008122605	0.083799415	0.025827794
2019-10-02T00:50:00	0.2028	11.901	193.0	0.475679719	0.564518875	0.007955122	0.082071531	0.025295243
2019-10-02T00:55:00	0.2026	11.895	193.0	0.475030652	0.563633921	0.007935425	0.081868316	0.025232610
2019-10-02T01:00:00	0.2048	11.889	192.9	0.482675900	0.574078955	0.008168971	0.084277766	0.025975226
2019-10-02T01:05:00	0.2037	11.884	193.0	0.478919545	0.568941152	0.008053804	0.083089606	0.025609024
2019-10-02T01:10:00	0.2019	11.878	193.0	0.472736529	0.560508741	0.007865998	0.081152047	0.025011849
2019-10-02T01:15:00	0.2014	11.873	193.0	0.470701571	0.557740114	0.007804665	0.080519294	0.024816828
2019-10-02T01:20:00	0.2029	11.869	193.0	0.475936396	0.564868927	0.007962919	0.082151962	0.025320033
2019-10-02T01:25:00	0.1993	11.862	192.9	0.463505134	0.547975500	0.007589669	0.078301212	0.024133194
2019-10-02T01:30:00	0.1990	11.855	192.9	0.462506494	0.546623721	0.007560067	0.077995823	0.024039070
2019-10-02T01:35:00	0.1999	11.850	192.9	0.465673164	0.550912906	0.007654128	0.078966229	0.024338159
2019-10-02T01:40:00	0.1989	11.846	192.8	0.462245135	0.546270071	0.007552330	0.077915995	0.024014466
2019-10-02T01:45:00	0.1986	11.841	192.8	0.461246121	0.544918783	0.007522789	0.077611232	0.023920535
2019-10-02T01:50:00	0.2017	11.837	192.7	0.472040422	0.559561296	0.007844991	0.080935323	0.024945053
2019-10-02T01:55:00	0.2021	11.832	192.7	0.473121873	0.561033385	0.007877638	0.081272141	0.025048863
2019-10-02T02:00:00	0.2024	11.829	192.6	0.474202977	0.562505933	0.007910342	0.081609541	0.025152853
2019-10-02T02:05:00	0.2003	11.824	192.5	0.466971121	0.552673257	0.007692847	0.079365687	0.024461275
2019-10-02T02:10:00	0.1981	11.819	192.5	0.459376170	0.542391571	0.007467649	0.077042355	0.023745202
2019-10-02T02:15:00	0.1984	11.815	192.4	0.460461690	0.543858299	0.007499634	0.077372342	0.023846907
2019-10-02T02:20:00	0.1984	11.810	192.4	0.460504664	0.543916384	0.007500902	0.077385420	0.023850938
2019-10-02T02:25:00	0.1967	11.806	192.4	0.454635832	0.535997454	0.007328760	0.075609462	0.023303570
2019-10-02T02:30:00	0.1963	11.803	192.3	0.453286372	0.534180448	0.007289455	0.075203966	0.023178593
2019-10-02T02:35:00	0.1970	11.799	179.8	0.455417958	0.537051220	0.007351587	0.075844971	0.023376157
2019-10-02T02:40:00	0.1949	11.795	192.2	0.448145577	0.527271680	0.007140673	0.073669010	0.022705504
2019-10-02T02:45:00	0.1930	11.792	179.8	0.441556289	0.518446682	0.006952166	0.071724214	0.022106099
2019-10-02T02:50:00	0.1953	11.788	179.7	0.449626449	0.529259704	0.007183378	0.074109584	0.022841294
2019-10-02T02:55:00	0.1937	11.783	179.8	0.444087713	0.521832968	0.007024294	0.072468343	0.022335447
2019-10-02T03:00:00	0.1959	11.780	192.2	0.451803446	0.532185391	0.007246383	0.074759597	0.023041634
2019-10-02T03:05:00	0.1959	11.776	179.8	0.451846531	0.532243332	0.007247633	0.074772490	0.023045608
2019-10-02T03:10:00	0.1963	11.774	192.2	0.453282704	0.534175512	0.007289349	0.075202865	0.023178253
2019-10-02T03:15:00	0.1962	11.770	179.8	0.452977557	0.533764841	0.007280475	0.075111321	0.023150039
2019-10-02T03:20:00	0.1982	11.767	179.8	0.459630430	0.542735037	0.007475135	0.077119586	0.023769005
2019-10-02T03:25:00	0.1971	11.764	192.2	0.455848321	0.537631260	0.007364163	0.075974712	0.023416144
2019-10-02T03:30:00	0.1963	11.760	192.2	0.453106766	0.533938723	0.007284232	0.075150077	0.023161983
2019-10-02T03:35:00	0.1966	11.757	192.2	0.454194312	0.535402804	0.007315888	0.075476673	0.023262644
2019-10-02T03:40:00	0.1982	11.753	192.2	0.459802367	0.542967326	0.007480199	0.077171832	0.023785108
2019-10-02T03:45:00	0.1984	11.749	192.2	0.460540319	0.543964576	0.007501953	0.077396271	0.023854282
2019-10-02T03:50:00	0.1978	11.746	192.3	0.458497981	0.541205664	0.007441822	0.076775903	0.023663079
2019-10-02T03:55:00	0.1974	11.742	192.3	0.457150072	0.539386635	0.007402266	0.076367813	0.023537302
2019-10-02T04:00:00	0.1968	11.738	192.3	0.454757644	0.536161542	0.007332313	0.075646118	0.023314868
2019-10-02T04:05:00	0.1964	11.734	179.8	0.453645910	0.534664415	0.007299917	0.075311898	0.023211858
2019-10-02T04:10:00	0.1965	11.729	192.3	0.453926629	0.535042355	0.007308090	0.075396222	0.023237848
2019-10-02T04:15:00	0.1955	11.726	179.9	0.450375995	0.530266604	0.007205040	0.074333071	0.022910175
2019-10-02T04:20:00	0.1945	11.723	192.4	0.446821597	0.525495740	0.007102599	0.073276202	0.022584437
2019-10-02T04:25:00	0.1936	11.719	192.3	0.443612646	0.521197087	0.007010730	0.072328408	0.022292318
2019-10-02T04:30:00	0.1907	11.715	192.3	0.435384905	0.508057931	0.006749228	0.069630545	0.021460810
2019-10-02T04:35:00	0.1883	11.710	192.3	0.428780918	0.496864136	0.006533611	0.067406058	0.020775202
2019-10-02T04:40:00	0.1880	11.706	192.3	0.427907183	0.495392238	0.006505403	0.067115046	0.020685509
2019-10-02T04:45:00	0.1863	11.701	192.3	0.423195261	0.487491036	0.006354565	0.065558873	0.020205881
2019-10-02T04:50:00	0.1867	11.696	179.9	0.424239554	0.489236854	0.006387809	0.065901846	0.020311589
2019-10-02T04:55:00	0.1870	11.692	192.3	0.425283179	0.490984573	0.006421137	0.066245690	0.020417565
2019-10-02T05:00:00	0.1851	11.689	192.3	0.420013775	0.482190928	0.006253935	0.064520695	0.019885905
2019-10-02T05:05:00	0.1846	11.685	192.3	0.418584958	0.479819734	0.006209060	0.064057723	0.019743212
2019-10-02T05:10:00	0.1833	11.680	192.3	0.414949572	0.473812020	0.006095766	0.062888891	0.019382967
2019-10-02T05:15:00	0.1839	11.676	192.4	0.416550459	0.476453102	0.006145500	0.063401989	0.019541109
2019-10-02T05:20:00	0.1845	11.672	192.3	0.418149752	0.479098607	0.006195430	0.063917108	0.019699873
2019-10-02T05:25:00	0.1821	11.669	192.3	0.411751712	0.468557437	0.005997152	0.061871516	0.019069402
2019-10-02T05:30:00	0.1818	11.666	192.3	0.410868714	0.467111485	0.005970095	0.061592369	0.018983366
2019-10-02T05:35:00	0.1796	11.663	192.3	0.404718890	0.457100161	0.005783699	0.059669354	0.018390674
2019-10-02T05:40:00	0.1806	11.660	192.3	0.407439158	0.461515717	0.005865706	0.060515411	0.018651437
2019-10-02T05:45:00	0.1779	11.658	179.7	0.399883999	0.449302051	0.005639662	0.058183351	0.017932674
2019-10-02T05:50:00	0.1780	11.656	179.9	0.400386980	0.450110327	0.005654544	0.058336887	0.017979995
2019-10-02T05:55:00	0.1787	11.656	192.3	0.402280781	0.453159804	0.005710790	0.058917171	0.018158844
2019-10-02T06:00:00	0.1784	11.655	179.9	0.401392453	0.451728163	0.005684365	0.058644544	0.018074818
2019-10-02T06:05:00	0.1769	11.654	179.9	0.397159338	0.444935570	0.005559456	0.057355881	0.017677640
2019-10-02T06:10:00	0.1782	11.655	179.9	0.400728074	0.450658848	0.005664650	0.058441146	0.018012129
2019-10-02T06:15:00	0.1774	11.655	192.3	0.398724423	0.447441269	0.005605443	0.057830317	0.017823865
2019-10-02T06:20:00	0.1757	11.656	179.9	0.393924943	0.439778405	0.005465143	0.056382873	0.017377749
2019-10-02T06:25:00	0.1749	11.657	192.4	0.391632463	0.436140295	0.005398884	0.055699289	0.017167062
2019-10-02T06:30:00	0.1722	11.660	180.0	0.383999235	0.424129030	0.005181755	0.053459212	0.016476648
2019-10-02T06:35:00	0.1727	11.662	180.0	0.385351162	0.426244893	0.005219821	0.053851931	0.016597688
2019-10-02T06:40:00	0.1720	11.665	192.4	0.383608772	0.423518844	0.005170792	0.053346108	0.016441788
2019-10-02T06:45:00	0.1730	11.669	180.0	0.386366534	0.427837262	0.005248521	0.054148021	0.016688946
2019-10-02T06:50:00	0.1723	11.674	192.4	0.384343999	0.424668142	0.005191447	0.053559198	0.016507465
2019-10-02T06:55:00	0.1729	11.678	192.5	0.385976682	0.427225543	0.005237490	0.054034222	0.016653872
2019-10-02T07:00:00	0.1712	11.683	180.1	0.381136831	0.419665405	0.005101710	0.052633400	0.016222125
2019-10-02T07:05:00	0.1694	11.687	192.6	0.376281300	0.412144044	0.004967632	0.051250145	0.015795792
2019-10-02T07:10:00	0.1690	11.691	180.1	0.375094589	0.410315405	0.004935188	0.050915420	0.015692627
2019-10-02T07:15:00	0.1676	11.695	192.6	0.371071038	0.404143417	0.004826128	0.049790275	0.015345846
2019-10-02T07:20:00	0.1663	11.700	192.7	0.367321062	0.398429968	0.004725791	0.048755116	0.015026800
2019-10-02T07:25:00	0.1658	11.709	192.7	0.365842246	0.396187137	0.004686568	0.048350457	0.014902081
2019-10-02T07:30:00	0.1663	11.719	180.3	0.367495403	0.398694763	0.004730428	0.048802955	0.015041545
2019-10-02T07:35:00	0.1673	11.726	192.8	0.370283189	0.402939944	0.004804944	0.049571717	0.015278485
2019-10-02T07:40:00	0.1660	11.732	192.8	0.366531192	0.397231297	0.004704817	0.048538729	0.014960108
2019-10-02T07:45:00	0.1657	11.740	192.8	0.365621528	0.395852887	0.004680730	0.048290233	0.014883519
2019-10-02T07:50:00	0.1633	11.749	192.9	0.358711773	0.385454214	0.004500166	0.046427382	0.014309370
2019-10-02T07:55:00	0.1630	11.758	192.9	0.357797173	0.384087276	0.004476582	0.046184066	0.014234378
2019-10-02T08:00:00	0.1612	11.768	193.0	0.352863205	0.376751143	0.004350617	0.044884508	0.013833841
2019-10-02T08:05:00	0.1595	11.776	193.0	0.347912040	0.369453785	0.004226346	0.043602434	0.013438694
2019-10-02T08:10:00	0.1595	11.786	193.0	0.347856168	0.369371804	0.004224956	0.043588092	0.013434273
2019-10-02T08:15:00	0.1599	11.795	193.1	0.348953792	0.370983848	0.004252317	0.043870366	0.013521273
2019-10-02T08:20:00	0.1645	11.801	193.1	0.362096829	0.390532671	0.004588096	0.047334540	0.014588965
2019-10-02T08:25:00	0.1682	11.802	193.2	0.372855018	0.406874643	0.004874304	0.050287294	0.015499032
2019-10-02T08:30:00	0.1693	11.792	193.1	0.375915638	0.411580182	0.004957621	0.051146866	0.015763961
2019-10-02T08:35:00	0.1713	11.773	193.0	0.381508973	0.420244477	0.005112074	0.052740329	0.016255081
2019-10-02T08:40:00	0.1725	11.740	192.8	0.384833186	0.425433641	0.005205217	0.053701261	0.016551250
2019-10-02T08:45:00	0.1741	11.694	179.9	0.389272225	0.432409527	0.005331174	0.055000737	0.016951761
2019-10-02T08:50:00	0.1754	11.653	191.5	0.393139018	0.438529557	0.005442373	0.056147956	0.017305345
2019-10-02T08:55:00	0.1787	11.604	190.7	0.402288435	0.453172147	0.005711018	0.058919523	0.018159569
2019-10-02T09:00:00	0.1784	11.563	189.8	0.401400111	0.451740495	0.005684592	0.058646891	0.018075541
2019-10-02T09:05:00	0.1792	11.526	176.9	0.403570552	0.455242248	0.005749290	0.059314360	0.018281262
2019-10-02T09:10:00	0.1827	11.482	176.3	0.413211684	0.470952910	0.006042053	0.062334746	0.019212174
2019-10-02T09:15:00	0.1832	11.446	175.7	0.414814311	0.473589196	0.006091575	0.062845654	0.019369641
2019-10-02T09:20:00	0.1849	11.409	175.4	0.419444082	0.481244818	0.006236019	0.064335857	0.019828936
2019-10-02T09:25:00	0.1838	11.372	175.0	0.416361955	0.476141748	0.006139631	0.063341440	0.019522447
2019-10-02T09:30:00	0.1873	11.336	174.6	0.425926518	0.492063452	0.006441735	0.066458195	0.020483061
2019-10-02T09:35:00	0.1885	11.299	174.2	0.429158101	0.497500195	0.006545811	0.067531922	0.020813994
2019-10-02T09:40:00	0.1856	11.263	173.7	0.421430407	0.484547469	0.006298622	0.064981723	0.020027998
2019-10-02T09:45:00	0.1869	11.229	173.4	0.424945067	0.490418018	0.006410328	0.066134173	0.020383194
2019-10-02T09:50:00	0.1879	11.197	173.1	0.427631273	0.494927880	0.006496511	0.067023310	0.020657235
2019-10-02T09:55:00	0.1900	11.171	172.8	0.433316167	0.504538341	0.006681225	0.068928964	0.021244576
2019-10-02T10:00:00	0.1909	11.149	172.7	0.435716441	0.508623093	0.006760166	0.069743384	0.021495588
2019-10-02T10:05:00	0.1916	11.129	172.6	0.437631654	0.511893907	0.006823561	0.070397422	0.021697169
2019-10-02T10:10:00	0.1922	11.109	172.6	0.439272911	0.514705013	0.006878177	0.070960880	0.021870832
2019-10-02T10:15:00	0.1937	11.089	172.7	0.444007512	0.521725605	0.007022003	0.072444709	0.022328163
2019-10-02T10:20:00	0.1951	11.067	184.6	0.448904734	0.528290609	0.007162550	0.073894706	0.022775066
2019-10-02T10:25:00	0.1947	11.048	184.7	0.447522309	0.526435478	0.007122737	0.073483966	0.022648472
2019-10-02T10:30:00	0.1932	11.029	172.8	0.442298741	0.519439339	0.006973283	0.071942074	0.022173246
2019-10-02T10:35:00	0.1951	11.013	184.6	0.448942170	0.528340866	0.007163629	0.073905844	0.022778499
2019-10-02T10:40:00	0.1973	10.997	172.7	0.456616179	0.538666532	0.007386627	0.076206468	0.023487574
2019-10-02T10:45:00	0.1966	10.981	172.7	0.454192775	0.535400733	0.007315844	0.075476211	0.023262501
2019-10-02T10:50:00	0.1976	10.965	172.7	0.457684472	0.540107646	0.007417936	0.076529479	0.023587129
2019-10-02T10:55:00	0.1964	10.952	172.6	0.453521415	0.534496823	0.007296294	0.075274516	0.023200337
2019-10-02T11:00:00	0.1949	10.942	172.6	0.448307201	0.527488572	0.007145328	0.073717032	0.022720305
2019-10-02T11:05:00	0.1961	10.934	172.6	0.452501658	0.533124516	0.007266647	0.074968660	0.023106069
2019-10-02T11:10:00	0.1961	10.923	172.5	0.452514124	0.533141286	0.007267009	0.074972395	0.023107220
2019-10-02T11:15:00	0.1974	10.917	172.4	0.457051155	0.539253202	0.007399367	0.076337908	0.023528085
2019-10-02T11:20:00	0.1975	10.913	172.4	0.457411394	0.539739182	0.007409927	0.076446847	0.023561661
2019-10-02T11:25:00	0.1982	10.907	172.4	0.459857355	0.543041621	0.007481819	0.077188545	0.023790259
2019-10-02T11:30:00	0.1990	10.896	172.4	0.462648787	0.546816284	0.007564282	0.078039301	0.024052470
2019-10-02T11:35:00	0.1997	10.884	172.4	0.465090946	0.550123708	0.007636791	0.078787369	0.024283032
2019-10-02T11:40:00	0.2000	10.870	172.4	0.466144138	0.551551509	0.007668167	0.079111061	0.024382797
2019-10-02T11:45:00	0.1997	10.853	172.4	0.465115783	0.550157370	0.007637531	0.078794995	0.024285383
2019-10-02T11:50:00	0.1986	10.837	172.3	0.461309308	0.545004228	0.007524656	0.077630490	0.023926471
2019-10-02T11:55:00	0.1991	10.818	172.3	0.463058132	0.547370332	0.007576412	0.078164444	0.024091041
2019-10-02T12:00:00	0.1989	10.798	172.2	0.462028835	0.545977432	0.007545929	0.077849959	0.023994114
2019-10-02T12:05:00	0.1989	10.781	172.2	0.462041265	0.545994248	0.007546297	0.077853754	0.023995283
2019-10-02T12:10:00	0.1979	10.765	172.1	0.458578979	0.541315018	0.007444202	0.076800459	0.023670647
2019-10-02T12:15:00	0.2004	10.751	172.1	0.467271466	0.553080791	0.007701820	0.079458262	0.024489808
2019-10-02T12:20:00	0.1983	10.738	172.1	0.459994171	0.543226484	0.007485850	0.077230136	0.023803078
2019-10-02T12:25:00	0.1972	10.725	172.0	0.456181894	0.538080946	0.007373918	0.076075349	0.023447161
2019-10-02T12:30:00	0.1994	10.716	172.0	0.463839403	0.548428149	0.007599590	0.078403565	0.024164740
2019-10-02T12:35:00	0.1995	10.707	171.9	0.464198915	0.548915080	0.007610267	0.078513720	0.024198691
2019-10-02T12:40:00	0.1988	10.699	171.9	0.461780972	0.545642135	0.007538598	0.077774322	0.023970801
2019-10-02T12:45:00	0.1979	10.691	171.8	0.458666077	0.541432614	0.007446762	0.076826870	0.023678787
2019-10-02T12:50:00	0.1974	10.684	171.7	0.456939866	0.539103087	0.007396107	0.076304268	0.023517716
2019-10-02T12:55:00	0.1999	10.675	171.7	0.465636582	0.550863311	0.007653038	0.078954985	0.024334693
2019-10-02T13:00:00	0.1998	10.667	171.7	0.465302059	0.550409841	0.007643075	0.078852201	0.024303014
2019-10-02T13:05:00	0.1991	10.659	171.6	0.462884907	0.547135855	0.007571278	0.078111474	0.024074715
2019-10-02T13:10:00	0.2003	10.650	171.6	0.467061223	0.552795508	0.007695539	0.079393453	0.024469833
2019-10-02T13:15:00	0.2003	10.643	171.5	0.467073635	0.552812348	0.007695909	0.079397278	0.024471012
2019-10-02T13:20:00	0.2014	10.634	171.5	0.470898405	0.558007770	0.007810587	0.080580391	0.024835659
2019-10-02T13:25:00	0.2000	10.624	171.4	0.466057979	0.551434671	0.007665597	0.079084556	0.024374628
2019-10-02T13:30:00	0.2016	10.615	171.4	0.471615888	0.558983666	0.007832193	0.080803291	0.024904359
2019-10-02T13:35:00	0.1991	10.604	171.3	0.462959468	0.547236777	0.007573487	0.078134272	0.024081741
2019-10-02T13:40:00	0.1996	10.595	171.3	0.464707435	0.549604006	0.007625382	0.078669662	0.024246754
2019-10-02T13:45:00	0.1992	10.586	171.3	0.463331499	0.547740407	0.007584518	0.078248072	0.024116816
2019-10-02T13:50:00	0.1987	10.579	171.3	0.461607681	0.545407745	0.007533474	0.077721463	0.023954510
2019-10-02T13:55:00	0.1985	10.574	171.3	0.460925367	0.544485091	0.007513317	0.077513506	0.023890415
2019-10-02T14:00:00	0.1971	10.570	171.3	0.456070576	0.537930869	0.007370662	0.076041758	0.023436808
2019-10-02T14:05:00	0.1976	10.569	171.3	0.457822125	0.540293404	0.007421975	0.076571149	0.023599972
2019-10-02T14:10:00	0.1986	10.569	171.3	0.461310056	0.545005239	0.007524678	0.077630718	0.023926541
2019-10-02T14:15:00	0.1980	10.566	171.3	0.459237636	0.542204454	0.007463572	0.077000292	0.023732238
2019-10-02T14:20:00	0.1989	10.562	171.3	0.462029582	0.545978443	0.007545951	0.077850188	0.023994184
2019-10-02T14:25:00	0.1984	10.557	171.3	0.460305097	0.543646656	0.007495016	0.077324696	0.023832222
2019-10-02T14:30:00	0.2009	10.550	171.3	0.468993137	0.555418275	0.007753357	0.079989958	0.024653682
2019-10-02T14:35:00	0.2000	10.543	171.3	0.465884908	0.551199992	0.007660438	0.079031327	0.024358223
2019-10-02T14:40:00	0.2025	10.535	171.3	0.474558604	0.562990529	0.007921115	0.081720679	0.025187107
2019-10-02T14:45:00	0.2010	10.526	171.2	0.469376906	0.555939633	0.007764868	0.080108714	0.024690284
2019-10-02T14:50:00	0.2002	10.515	171.2	0.466615871	0.552191318	0.007682240	0.079256257	0.024427548
2019-10-02T14:55:00	0.2016	10.508	171.2	0.471480288	0.558799196	0.007828107	0.080761141	0.024891368
2019-10-02T15:00:00	0.2027	10.504	171.1	0.475300074	0.564001216	0.007943598	0.081952638	0.025258599
2019-10-02T15:05:00	0.2025	10.498	171.1	0.474620524	0.563074914	0.007922991	0.081740038	0.025193073
2019-10-02T15:10:00	0.2034	10.492	171.1	0.477745473	0.567337608	0.008017973	0.082719952	0.025495092
2019-10-02T15:15:00	0.2029	10.489	171.2	0.476029002	0.564995235	0.007965732	0.082180991	0.025328979
2019-10-02T15:20:00	0.2040	10.487	171.1	0.479843656	0.570204074	0.008082061	0.083381134	0.025698875
2019-10-02T15:25:00	0.2014	10.486	171.2	0.470861958	0.557958207	0.007809491	0.080569076	0.024832172
2019-10-02T15:30:00	0.2017	10.485	171.2	0.471913350	0.559388384	0.007841159	0.080895792	0.024932869
2019-10-02T15:35:00	0.2045	10.475	171.2	0.481607628	0.572616667	0.008136136	0.083939015	0.025870820
2019-10-02T15:40:00	0.2038	10.461	171.1	0.479202120	0.569327256	0.008062439	0.083178696	0.025636482
2019-10-02T15:45:00	0.2024	10.446	171.1	0.474373584	0.562738398	0.007915509	0.081662849	0.025169283
2019-10-02T15:50:00	0.2030	10.431	171.0	0.476461482	0.565585195	0.007978879	0.082316622	0.025370782
2019-10-02T15:55:00	0.2020	10.416	171.0	0.473013974	0.560886470	0.007874378	0.081238505	0.025038496
2019-10-02T16:00:00	0.2028	10.404	171.0	0.475794544	0.564675465	0.007958610	0.082107508	0.025306331
2019-10-02T16:05:00	0.2023	10.393	170.9	0.473927000	0.562129944	0.007901987	0.081523347	0.025126287
2019-10-02T16:10:00	0.2015	10.380	170.9	0.471365826	0.558643494	0.007824660	0.080725570	0.024880405
2019-10-02T16:15:00	0.2035	10.367	170.9	0.478147902	0.567887121	0.008030246	0.082846564	0.025534116
2019-10-02T16:20:00	0.2023	10.351	170.8	0.473859973	0.562038634	0.007899959	0.081502419	0.025119837
2019-10-02T16:25:00	0.2015	10.334	170.8	0.471298747	0.558552251	0.007822639	0.080704728	0.024873981
2019-10-02T16:30:00	0.2019	10.318	170.7	0.472546076	0.560249484	0.007860247	0.081092723	0.024993565
2019-10-02T16:35:00	0.2017	10.301	170.6	0.472062071	0.559590755	0.007845644	0.080942059	0.024947129
2019-10-02T16:40:00	0.2022	10.284	170.6	0.473655235	0.561759751	0.007893764	0.081438511	0.025100140
2019-10-02T16:45:00	0.2025	10.264	170.6	0.474555704	0.562986577	0.007921027	0.081719773	0.025186828
2019-10-02T16:50:00	0.2024	10.242	170.5	0.474418027	0.562798960	0.007916855	0.081676738	0.025173564
2019-10-02T16:55:00	0.2019	10.218	170.4	0.472549722	0.560254448	0.007860357	0.081093859	0.024993915
2019-10-02T17:00:00	0.2036	10.193	170.3	0.478638317	0.568556952	0.008045214	0.083000988	0.025581711
2019-10-02T17:05:00	0.2033	10.166	170.1	0.477463834	0.566953110	0.008009390	0.082631399	0.025467800
2019-10-02T17:10:00	0.2038	10.140	170.1	0.479054456	0.569125484	0.008057926	0.083132135	0.025622131
2019-10-02T17:15:00	0.2051	10.118	170.0	0.483751378	0.575552029	0.008202093	0.084619485	0.026080547
2019-10-02T17:20:00	0.2056	10.094	169.9	0.485339053	0.577728341	0.008251112	0.085125200	0.026236413
2019-10-02T17:25:00	0.2049	10.071	169.8	0.483131651	0.574703081	0.008182999	0.084422491	0.026019832
2019-10-02T17:30:00	0.2050	10.047	169.7	0.483339451	0.574987706	0.008189399	0.084488520	0.026040182
2019-10-02T17:35:00	0.2052	10.022	169.6	0.483892311	0.575745131	0.008206439	0.084664315	0.026094364
2019-10-02T17:40:00	0.2049	9.998	169.5	0.483064805	0.574611528	0.008180941	0.084401256	0.026013287
2019-10-02T17:45:00	0.2073	9.976	169.4	0.491201058	0.585781178	0.008433352	0.087005342	0.026815892
2019-10-02T17:50:00	0.2068	9.955	169.3	0.489686468	0.583697898	0.008386077	0.086517609	0.026665567
2019-10-02T17:55:00	0.2072	9.930	169.2	0.490927047	0.585404147	0.008424790	0.086917004	0.026788665
2019-10-02T18:00:00	0.2063	9.905	169.1	0.487689426	0.580953826	0.008323944	0.085876596	0.026468001
2019-10-02T18:05:00	0.2061	9.880	180.6	0.487207581	0.580292216	0.008308987	0.085722287	0.026420441
2019-10-02T18:10:00	0.2074	9.855	180.5	0.491548981	0.586259996	0.008444231	0.087117574	0.026850482
2019-10-02T18:15:00	0.2082	9.833	168.8	0.494509209	0.590337846	0.008537070	0.088075380	0.027145688
2019-10-02T18:20:00	0.2105	9.807	168.7	0.502274997	0.601069014	0.008783023	0.090612829	0.027927754
2019-10-02T18:25:00	0.2098	9.784	168.6	0.499735124	0.597553952	0.008702199	0.089778984	0.027670755
2019-10-02T18:30:00	0.2085	9.761	168.5	0.495474386	0.591668942	0.008567450	0.088388797	0.027242286
2019-10-02T18:35:00	0.2089	9.740	168.4	0.496712858	0.593378039	0.008606509	0.088791771	0.027366486
2019-10-02T18:40:00	0.2081	9.721	168.3	0.493824806	0.589394425	0.008515561	0.087853474	0.027077294
2019-10-02T18:45:00	0.2111	9.701	168.2	0.504337165	0.603926775	0.008848919	0.091292671	0.028137288
2019-10-02T18:50:00	0.2120	9.676	168.1	0.507286320	0.608019677	0.008943586	0.092269333	0.028438304
2019-10-02T18:55:00	0.2124	9.656	168.0	0.508863066	0.610210798	0.008994406	0.092793628	0.028599897
2019-10-02T19:00:00	0.2115	9.637	168.0	0.505642442	0.605737401	0.008890756	0.091724295	0.028270319
2019-10-02T19:05:00	0.2112	9.618	167.8	0.504477248	0.604121026	0.008853405	0.091338944	0.028151550
2019-10-02T19:10:00	0.2117	9.599	167.8	0.506398090	0.606786234	0.008915022	0.091974635	0.028347476
2019-10-02T19:15:00	0.2114	9.577	167.7	0.505233154	0.605169507	0.008877627	0.091588844	0.028228571
2019-10-02T19:20:00	0.2114	9.557	167.6	0.505439610	0.605455951	0.008884249	0.091657157	0.028249626
2019-10-02T19:25:00	0.2119	9.535	167.5	0.507017208	0.607645907	0.008934927	0.092179997	0.028410770
2019-10-02T19:30:00	0.2130	9.512	167.5	0.510648835	0.612694809	0.009052136	0.093389219	0.028783464
2019-10-02T19:35:00	0.2118	9.491	167.4	0.506744465	0.607267154	0.008926155	0.092089499	0.028382878
2019-10-02T19:40:00	0.2112	9.468	167.2	0.504550900	0.604223165	0.008855763	0.091363278	0.028159050
2019-10-02T19:45:00	0.2120	9.447	167.1	0.507499870	0.608316319	0.008950461	0.092340255	0.028460163
2019-10-02T19:50:00	0.2119	9.425	167.0	0.507020818	0.607650921	0.008935043	0.092181195	0.028411140
2019-10-02T19:55:00	0.2137	9.405	167.0	0.513048096	0.616036246	0.009129990	0.094192422	0.029031019
2019-10-02T20:00:00	0.2152	9.384	166.9	0.518381690	0.623480987	0.009304255	0.095990288	0.029585139
2019-10-02T20:05:00	0.2137	9.366	166.8	0.513117960	0.616133615	0.009132262	0.094215862	0.029038244
2019-10-02T20:10:00	0.2148	9.351	166.7	0.517084860	0.621668726	0.009261732	0.095551582	0.029449925
2019-10-02T20:15:00	0.2153	9.337	166.6	0.518657106	0.623866044	0.009313299	0.096083589	0.029613895
2019-10-02T20:20:00	0.2168	9.323	166.6	0.523640955	0.630844543	0.009477710	0.097779783	0.030136679
2019-10-02T20:25:00	0.2155	9.312	166.6	0.519409890	0.624918818	0.009338040	0.096338835	0.029692565
2019-10-02T20:30:00	0.2163	9.303	166.5	0.522004901	0.628551481	0.009423579	0.097221329	0.029964558
2019-10-02T20:35:00	0.2160	9.293	166.4	0.521186581	0.627405355	0.009396563	0.096942605	0.029878652
2019-10-02T20:40:00	0.2172	9.282	166.4	0.525144178	0.632953347	0.009527582	0.098294311	0.030295261
2019-10-02T20:45:00	0.2177	9.271	166.3	0.526712744	0.635155774	0.009579763	0.098832651	0.030461183
2019-10-02T20:50:00	0.2170	9.264	166.3	0.524531915	0.632094209	0.009507253	0.098084580	0.030230620
2019-10-02T20:55:00	0.2166	9.260	166.3	0.523032018	0.629990814	0.009457544	0.097571739	0.030072558
2019-10-02T21:00:00	0.2181	9.257	166.3	0.528350150	0.637456994	0.009634387	0.099396195	0.030634873
2019-10-02T21:05:00	0.2166	9.254	166.3	0.523101679	0.630088464	0.009459850	0.097595528	0.030079889
2019-10-02T21:10:00	0.2180	9.252	166.3	0.527738456	0.636597061	0.009613963	0.099185481	0.030569928
2019-10-02T21:15:00	0.2179	9.250	166.2	0.527602909	0.636406546	0.009609440	0.099138818	0.030555547
2019-10-02T21:20:00	0.2168	9.248	166.3	0.523717789	0.630952286	0.009480256	0.097806049	0.030144774
2019-10-02T21:25:00	0.2168	9.244	166.2	0.523923135	0.631240260	0.009487061	0.097876265	0.030166415
2019-10-02T21:30:00	0.2166	9.238	166.2	0.523105272	0.630093501	0.009459969	0.097596755	0.030080268
2019-10-02T21:35:00	0.2186	9.231	166.2	0.529785381	0.639475868	0.009682395	0.099891481	0.030787525
2019-10-02T21:40:00	0.2166	9.222	166.1	0.523174932	0.630191153	0.009462275	0.097620546	0.030087600
2019-10-02T21:45:00	0.2182	9.214	166.1	0.528492844	0.637657639	0.009639155	0.099445382	0.030650032
2019-10-02T21:50:00	0.2162	9.205	166.0	0.521879910	0.628376386	0.009419450	0.097178730	0.029951428
2019-10-02T21:55:00	0.2175	9.196	166.0	0.526177538	0.634404066	0.009561943	0.098648800	0.030404518
2019-10-02T22:00:00	0.2177	9.184	165.9	0.526723512	0.635170900	0.009580122	0.098836352	0.030462324
2019-10-02T22:05:00	0.2181	9.172	165.9	0.528327389	0.637424991	0.009633627	0.099388350	0.030632455
2019-10-02T22:10:00	0.2197	9.158	165.8	0.533673337	0.644953306	0.009813048	0.101239406	0.031202968
2019-10-02T22:15:00	0.2172	9.147	165.7	0.525061468	0.632837269	0.009524835	0.098265965	0.030286525
2019-10-02T22:20:00	0.2178	9.134	165.7	0.527347579	0.636047717	0.009600923	0.099050951	0.030528465
2019-10-02T22:25:00	0.2193	9.119	165.6	0.532354861	0.643094427	0.009768642	0.100781281	0.031061770
2019-10-02T22:30:00	0.2185	9.106	165.6	0.529532720	0.639120340	0.009673935	0.099804200	0.030760624
2019-10-02T22:35:00	0.2183	9.089	165.4	0.528752215	0.638022392	0.009647824	0.099534819	0.030677598
2019-10-02T22:40:00	0.2195	9.075	165.4	0.533077265	0.644112747	0.009792960	0.101032162	0.031139094
2019-10-02T22:45:00	0.2198	9.061	165.4	0.533998179	0.645411508	0.009824004	0.101352438	0.031237806
2019-10-02T22:50:00	0.2184	9.047	165.3	0.529134872	0.638560619	0.009660621	0.099666843	0.030718289
2019-10-02T22:55:00	0.2195	9.034	165.2	0.533119333	0.644172061	0.009794377	0.101046781	0.031143599
2019-10-02T23:00:00	0.2188	9.019	165.2	0.530638206	0.640676293	0.009710978	0.100186370	0.030878412
2019-10-02T23:05:00	0.2203	9.004	165.0	0.535640716	0.647729686	0.009879497	0.101924949	0.031414259
2019-10-02T23:10:00	0.2203	8.990	165.0	0.535541435	0.647589503	0.009876138	0.101890298	0.031403579
2019-10-02T23:15:00	0.2204	8.974	165.0	0.536121878	0.648409185	0.009895783	0.102092967	0.031466044
2019-10-02T23:20:00	0.2187	8.960	164.9	0.530240486	0.640116394	0.009697643	0.100048793	0.030836010
2019-10-02T23:25:00	0.2187	8.946	164.8	0.530141049	0.639976429	0.009694310	0.100014411	0.030825413
2019-10-02T23:30:00	0.2189	8.933	164.8	0.531062747	0.641274091	0.009725223	0.100333331	0.030923707
2019-10-02T23:35:00	0.2193	8.919	164.7	0.532324420	0.643051527	0.009767618	0.100770716	0.031058513
2019-10-02T23:40:00	0.2193	8.907	164.6	0.532225043	0.642911478	0.009764276	0.100736230	0.031047885
2019-10-02T23:45:00	0.2181	8.892	164.6	0.528381166	0.637500604	0.009635423	0.099406885	0.030638167
2019-10-02T23:50:00	0.2201	8.880	164.5	0.535087028	0.646947997	0.009860773	0.101731778	0.031354722
2019-10-02T23:55:00	0.2191	8.869	164.4	0.531586634	0.642011982	0.009742815	0.100514831	0.030979647
2019-10-03T00:00:00	0.2187	8.857	164.4	0.530125819	0.639954993	0.009693800	0.100009145	0.030823790
2019-10-03T00:05:00	0.2180	8.847	164.3	0.527983185	0.636941070	0.009622132	0.099269757	0.030595903
2019-10-03T00:10:00	0.2171	8.837	164.3	0.524816531	0.632493550	0.009516701	0.098182047	0.030260661
2019-10-03T00:15:00	0.2193	8.827	164.3	0.532209822	0.642890029	0.009763764	0.100730949	0.031046257
2019-10-03T00:20:00	0.2194	8.814	164.2	0.532790826	0.643708924	0.009783314	0.100932648	0.031108422
2019-10-03T00:25:00	0.2198	8.802	164.1	0.534051867	0.645487245	0.009825815	0.101371126	0.031243565
2019-10-03T00:30:00	0.2185	8.792	164.1	0.529529133	0.639115293	0.009673815	0.099802961	0.030760242
2019-10-03T00:35:00	0.2195	8.786	164.0	0.532832897	0.643768233	0.009784731	0.100947261	0.031112926
2019-10-03T00:40:00	0.2179	8.779	164.0	0.527627294	0.636440820	0.009610253	0.099147212	0.030558134
2019-10-03T00:45:00	0.2162	8.772	164.1	0.521731376	0.628168326	0.009414545	0.097128120	0.029935830
2019-10-03T00:50:00	0.2155	8.764	164.0	0.519242026	0.624684019	0.009332520	0.096281888	0.029675013
2019-10-03T00:55:00	0.2142	8.758	163.9	0.515041706	0.618816274	0.009194934	0.094862443	0.029237526
2019-10-03T01:00:00	0.2145	8.754	163.9	0.515967459	0.620108301	0.009225170	0.095174382	0.029333669
2019-10-03T01:05:00	0.2128	8.748	163.9	0.510051472	0.611863588	0.009032804	0.093189774	0.028721993
2019-10-03T01:10:00	0.2121	8.743	163.9	0.507896274	0.608867060	0.008963229	0.092471977	0.028500761
2019-10-03T01:15:00	0.2113	8.736	163.8	0.505053952	0.604920902	0.008871882	0.091529569	0.028210302
2019-10-03T01:20:00	0.2103	8.730	163.8	0.501522790	0.600027455	0.008759047	0.090365478	0.027851518
2019-10-03T01:25:00	0.2116	8.722	163.8	0.505882267	0.606070226	0.008898454	0.091803710	0.028294795
2019-10-03T01:30:00	0.2101	8.715	163.7	0.500978932	0.599274674	0.008741733	0.090186849	0.027796463
2019-10-03T01:35:00	0.2118	8.711	163.7	0.506710381	0.607219825	0.008925059	0.092078193	0.028379393
2019-10-03T01:40:00	0.2145	8.705	163.7	0.515852315	0.619947563	0.009221407	0.095135556	0.029321702
2019-10-03T01:45:00	0.2132	8.701	163.7	0.511647840	0.614085552	0.009084512	0.093723239	0.028886412
2019-10-03T01:50:00	0.2123	8.694	163.7	0.508466077	0.609658934	0.008981597	0.092661482	0.028559169
2019-10-03T01:55:00	0.2137	8.689	163.7	0.513158840	0.616190590	0.009133591	0.094229579	0.029042471
2019-10-03T02:00:00	0.2117	8.685	163.6	0.506209747	0.606524773	0.008908970	0.091912206	0.028328235
2019-10-03T02:05:00	0.2115	8.684	163.6	0.505766783	0.605909954	0.008894747	0.091765465	0.028283007
2019-10-03T02:10:00	0.2114	8.683	163.6	0.505323762	0.605295215	0.008880533	0.091618821	0.028237810
2019-10-03T02:15:00	0.2129	8.684	163.6	0.510363235	0.612297366	0.009042891	0.093293838	0.028754067
2019-10-03T02:20:00	0.2115	8.685	163.6	0.505809187	0.605968803	0.008896108	0.091779507	0.028287335
2019-10-03T02:25:00	0.2114	8.688	163.6	0.505366171	0.605354056	0.008881893	0.091632854	0.028242136
2019-10-03T02:30:00	0.2134	8.691	163.6	0.512117059	0.614739044	0.009099739	0.093880329	0.028934829
2019-10-03T02:35:00	0.2124	8.694	163.6	0.508593187	0.609835619	0.008985697	0.092703783	0.028572206
2019-10-03T02:40:00	0.2099	8.700	163.7	0.500261484	0.598281982	0.008718918	0.089951473	0.027723918
2019-10-03T02:45:00	0.2101	8.708	163.7	0.500847922	0.599093372	0.008737565	0.090143845	0.027783208
2019-10-03T02:50:00	0.2125	8.715	163.7	0.508978096	0.610370728	0.008998119	0.092831935	0.028611704
2019-10-03T02:55:00	0.2104	8.720	163.7	0.502020496	0.600716563	0.008774907	0.090529103	0.027901949
2019-10-03T03:00:00	0.2096	8.729	163.8	0.499173278	0.596777085	0.008684370	0.089595047	0.027614064
2019-10-03T03:05:00	0.2098	8.735	163.8	0.499759903	0.597588221	0.008702986	0.089787100	0.027673256
2019-10-03T03:10:00	0.2092	8.742	163.8	0.497941850	0.595075271	0.008645358	0.089192561	0.027490014
2019-10-03T03:15:00	0.2088	8.748	163.9	0.496466625	0.593038138	0.008598736	0.088711579	0.027341770
2019-10-03T03:20:00	0.2089	8.758	163.9	0.496709977	0.593374062	0.008606418	0.088790832	0.027366197
2019-10-03T03:25:00	0.2091	8.769	164.0	0.497297026	0.594184621	0.008624964	0.088982163	0.027425167
2019-10-03T03:30:00	0.2089	8.778	164.0	0.496852904	0.593571381	0.008610932	0.088837396	0.027380548
2019-10-03T03:35:00	0.2101	8.790	164.1	0.500875026	0.599130880	0.008738427	0.090152741	0.027785950
2019-10-03T03:40:00	0.2115	8.799	164.1	0.505578211	0.605648271	0.008888695	0.091703032	0.028263765
2019-10-03T03:45:00	0.2104	8.806	164.2	0.502047591	0.600754084	0.008775771	0.090538015	0.027904696
2019-10-03T03:50:00	0.2093	8.810	164.2	0.498169724	0.595390098	0.008652570	0.089266973	0.027512948
2019-10-03T03:55:00	0.2108	8.816	164.2	0.503219753	0.602377836	0.008813182	0.090923975	0.028023652
2019-10-03T04:00:00	0.2100	8.819	164.2	0.500373536	0.598436996	0.008722480	0.089988214	0.027735242
2019-10-03T04:05:00	0.2075	8.822	164.2	0.491884741	0.586722168	0.008454736	0.087225950	0.026883885
2019-10-03T04:10:00	0.2084	8.827	164.2	0.495088146	0.591136180	0.008555286	0.088263309	0.027203609
2019-10-03T04:15:00	0.2089	8.830	164.2	0.496913873	0.593655557	0.008612857	0.088857263	0.027386671
2019-10-03T04:20:00	0.2089	8.833	164.2	0.496676687	0.593328106	0.008605367	0.088779988	0.027362855
2019-10-03T04:25:00	0.2083	8.838	164.2	0.494720132	0.590628671	0.008543705	0.088143825	0.027166783
2019-10-03T04:30:00	0.2057	8.841	164.2	0.485872370	0.578459841	0.008267610	0.085295410	0.026288874
2019-10-03T04:35:00	0.2071	8.846	164.2	0.490459275	0.584760644	0.008410182	0.086766301	0.026742217
2019-10-03T04:40:00	0.2087	8.851	164.2	0.496071618	0.592492971	0.008586274	0.088583010	0.027302144
2019-10-03T04:45:00	0.2076	8.858	164.3	0.492394188	0.587423590	0.008470687	0.087390517	0.026934606
2019-10-03T04:50:00	0.2094	8.865	164.3	0.498346953	0.595634983	0.008658182	0.089324867	0.027530792
2019-10-03T04:55:00	0.2086	8.869	164.3	0.495703711	0.591985318	0.008574675	0.088463346	0.027265262
2019-10-03T05:00:00	0.2073	8.875	164.3	0.491337354	0.585968739	0.008437613	0.087049300	0.026829440
2019-10-03T05:05:00	0.2084	8.880	164.3	0.494885231	0.590856337	0.008548899	0.088197418	0.027183301
2019-10-03T05:10:00	0.2083	8.885	164.2	0.494647904	0.590529078	0.008541432	0.088120384	0.027159558
2019-10-03T05:15:00	0.2067	8.893	164.2	0.489246814	0.583093510	0.008372378	0.086376286	0.026622010
2019-10-03T05:20:00	0.2087	8.900	164.3	0.495892829	0.592246258	0.008580637	0.088524848	0.027284218
2019-10-03T05:25:00	0.2078	8.908	164.4	0.492903557	0.588125116	0.008486651	0.087555213	0.026985367
2019-10-03T05:30:00	0.2080	8.915	164.4	0.493698431	0.589220263	0.008511592	0.087812529	0.027064674
2019-10-03T05:35:00	0.2080	8.919	164.4	0.493805088	0.589367251	0.008514942	0.087847084	0.027075325
2019-10-03T05:40:00	0.2075	8.924	164.4	0.491846882	0.586670050	0.008453551	0.087213727	0.026880118
2019-10-03T05:45:00	0.2103	8.930	164.2	0.501578621	0.600104747	0.008760826	0.090383826	0.027857173
2019-10-03T05:50:00	0.2097	8.930	164.4	0.499624879	0.597401495	0.008698699	0.089742877	0.027659626
2019-10-03T05:55:00	0.2077	8.931	164.3	0.492511216	0.587584749	0.008474353	0.087428342	0.026946264
2019-10-03T06:00:00	0.2106	8.931	164.1	0.502584244	0.601497351	0.008792889	0.090714618	0.027959126
2019-10-03T06:05:00	0.2109	8.932	164.0	0.503719932	0.603071051	0.008829170	0.091088920	0.028074490
2019-10-03T06:10:00	0.2081	8.935	163.9	0.493863579	0.589447862	0.008516779	0.087866038	0.027081166
2019-10-03T06:15:00	0.2089	8.939	163.8	0.496721385	0.593389810	0.008606779	0.088794548	0.027367342
2019-10-03T06:20:00	0.2088	8.943	163.9	0.496484186	0.593062377	0.008599291	0.088717297	0.027343532
2019-10-03T06:25:00	0.2088	8.948	163.9	0.496246970	0.592734967	0.008591805	0.088640073	0.027319731
2019-10-03T06:30:00	0.2102	8.954	163.9	0.501163248	0.599529768	0.008747599	0.090247367	0.027815115
2019-10-03T06:35:00	0.2087	8.960	163.9	0.496116323	0.592554664	0.008587684	0.088597556	0.027306627
2019-10-03T06:40:00	0.2146	8.964	163.9	0.516447429	0.620778445	0.009240866	0.095336313	0.029383578
2019-10-03T06:45:00	0.2129	8.965	163.7	0.510396042	0.612343018	0.009043953	0.093304792	0.028757443
2019-10-03T06:50:00	0.2135	8.967	163.4	0.512555791	0.615350236	0.009113988	0.094027332	0.028980137
2019-10-03T06:55:00	0.2143	8.973	163.2	0.515398012	0.619313470	0.009206566	0.094982442	0.029274511
2019-10-03T07:00:00	0.2124	8.978	163.0	0.508659727	0.609928116	0.008987844	0.092725931	0.028579032
2019-10-03T07:05:00	0.2121	8.984	163.1	0.507738129	0.608647328	0.008958134	0.092419415	0.028484561
2019-10-03T07:10:00	0.2133	8.992	163.2	0.511953527	0.614511270	0.009094431	0.093825565	0.028917951
2019-10-03T07:15:00	0.2149	8.998	163.3	0.517189010	0.621814221	0.009265143	0.095586777	0.029460773
2019-10-03T07:20:00	0.2167	9.004	163.3	0.523439920	0.630562659	0.009471050	0.097711074	0.030115502
2019-10-03T07:25:00	0.2168	9.014	163.4	0.523886710	0.631189176	0.009485854	0.097863808	0.030162576
2019-10-03T07:30:00	0.2164	9.024	163.4	0.522286867	0.628946524	0.009432897	0.097317461	0.029994187
2019-10-03T07:35:00	0.2158	9.036	163.5	0.520344906	0.626227084	0.009368816	0.096656344	0.029790424
2019-10-03T07:40:00	0.2161	9.044	163.7	0.521474722	0.627808859	0.009406071	0.097040701	0.029908887
2019-10-03T07:45:00	0.2160	9.052	163.7	0.520897914	0.627001182	0.009387042	0.096844379	0.029848378
2019-10-03T07:50:00	0.2155	9.061	163.8	0.519296679	0.624760462	0.009334317	0.096300427	0.029680727
2019-10-03T07:55:00	0.2149	9.072	163.9	0.517353027	0.622043366	0.009270517	0.095642218	0.029477860
2019-10-03T08:00:00	0.2141	9.086	164.0	0.514724443	0.618373645	0.009184584	0.094755657	0.029204614
2019-10-03T08:05:00	0.2153	9.100	164.1	0.518589715	0.623771818	0.009311086	0.096060755	0.029606858
2019-10-03T08:10:00	0.2164	9.115	164.2	0.522450641	0.629176006	0.009438311	0.097373319	0.030011403
2019-10-03T08:15:00	0.2150	9.125	164.2	0.517776695	0.622635365	0.009284405	0.095785498	0.029522021
2019-10-03T08:20:00	0.2159	9.133	164.3	0.520614597	0.626604565	0.009377702	0.096748022	0.029818680
2019-10-03T08:25:00	0.2172	9.152	164.3	0.525155144	0.632968738	0.009527947	0.098298070	0.030296420
2019-10-03T08:30:00	0.2147	9.168	164.4	0.516727684	0.621169829	0.009250037	0.095430929	0.029412739
2019-10-03T08:35:00	0.2163	9.184	164.5	0.521955894	0.628482828	0.009421960	0.097204626	0.029959410
2019-10-03T08:40:00	0.2159	9.197	164.6	0.520696525	0.626719250	0.009380402	0.096775881	0.029827266
2019-10-03T08:45:00	0.2175	9.206	164.6	0.526259527	0.634519205	0.009564672	0.098676953	0.030413195
2019-10-03T08:50:00	0.2185	9.209	164.7	0.529430948	0.638977148	0.009670528	0.099769054	0.030749791
2019-10-03T08:55:00	0.2163	9.219	164.7	0.522037790	0.628597557	0.009424666	0.097232540	0.029968013
2019-10-03T09:00:00	0.2173	9.227	164.8	0.525553992	0.633528575	0.009541202	0.098434819	0.030338567
2019-10-03T09:05:00	0.2173	9.236	164.8	0.525659661	0.633676918	0.009544715	0.098471065	0.030349739
2019-10-03T09:10:00	0.2178	9.249	164.9	0.527128468	0.635739829	0.009593617	0.098975578	0.030505234
2019-10-03T09:15:00	0.2171	9.267	165.0	0.524848313	0.632538146	0.009517756	0.098192934	0.030264016
2019-10-03T09:20:00	0.2173	9.282	165.1	0.525635802	0.633643422	0.009543922	0.098462880	0.030347216
2019-10-03T09:25:00	0.2180	9.299	165.2	0.527785991	0.636663876	0.009615549	0.099201847	0.030574973
2019-10-03T09:30:00	0.2170	9.312	165.2	0.524483485	0.632026265	0.009505646	0.098068000	0.030225510
2019-10-03T09:35:00	0.2161	9.324	165.3	0.521519097	0.627871006	0.009407536	0.097055813	0.029913544
2019-10-03T09:40:00	0.2151	9.337	165.3	0.517868945	0.622764286	0.009287431	0.095816710	0.029531641
2019-10-03T09:45:00	0.2154	9.349	165.4	0.518999575	0.624344933	0.009324550	0.096199668	0.029649672
2019-10-03T09:50:00	0.2175	9.365	165.5	0.526269756	0.634533571	0.009565012	0.098680466	0.030414278
2019-10-03T09:55:00	0.2162	9.383	165.6	0.521601003	0.627985720	0.009410240	0.097083709	0.029922142
2019-10-03T10:00:00	0.2147	9.401	165.7	0.516584153	0.620969376	0.009245340	0.095382466	0.029397802
2019-10-03T10:05:00	0.2146	9.417	165.7	0.516393660	0.620703361	0.009239107	0.095318166	0.029377984
2019-10-03T10:10:00	0.2161	9.424	165.8	0.521326364	0.627601094	0.009401175	0.096990187	0.029893318
2019-10-03T10:15:00	0.2158	9.427	165.8	0.520453442	0.626378993	0.009372391	0.096693234	0.029801794
2019-10-03T10:20:00	0.2182	9.436	165.8	0.528446977	0.637593143	0.009637622	0.099429570	0.030645159
2019-10-03T10:25:00	0.2179	9.447	165.9	0.527575860	0.636368531	0.009608537	0.099129508	0.030552677
2019-10-03T10:30:00	0.2173	9.458	166.0	0.525341215	0.633229897	0.009534129	0.098361854	0.030316079
2019-10-03T10:35:00	0.2157	9.470	166.1	0.520033701	0.625791569	0.009358567	0.096550608	0.029757835
2019-10-03T10:40:00	0.2161	9.487	166.1	0.521550174	0.627914531	0.009408562	0.097066397	0.029916806
2019-10-03T10:45:00	0.2176	9.515	166.2	0.526475489	0.634822516	0.009571861	0.098751130	0.030436057
2019-10-03T10:50:00	0.2150	9.542	166.4	0.517754948	0.622604974	0.009283692	0.095778141	0.029519753
2019-10-03T10:55:00	0.2155	9.565	166.4	0.519272428	0.624726541	0.009333520	0.096292200	0.029678191
2019-10-03T11:00:00	0.2143	9.576	166.5	0.515323354	0.619209283	0.009204128	0.094957292	0.029266760
2019-10-03T11:05:00	0.2153	9.588	166.6	0.518550177	0.623716539	0.009309787	0.096047360	0.029602729
2019-10-03T11:10:00	0.2143	9.601	166.7	0.515284127	0.619154542	0.009202847	0.094944079	0.029262687
2019-10-03T11:15:00	0.2143	9.613	166.8	0.515093561	0.618888627	0.009196627	0.094879902	0.029242907
2019-10-03T11:20:00	0.2143	9.625	166.8	0.515244899	0.619099801	0.009201567	0.094930866	0.029258615
2019-10-03T11:25:00	0.2134	9.636	166.9	0.512317906	0.615018822	0.009106261	0.093947611	0.028955566
2019-10-03T11:30:00	0.2155	9.646	167.0	0.519306040	0.624773555	0.009334625	0.096303602	0.029681706
2019-10-03T11:35:00	0.2123	9.654	167.0	0.508512444	0.609723383	0.008983093	0.092676912	0.028563924
2019-10-03T11:40:00	0.2127	9.668	167.1	0.509691584	0.611362949	0.009021167	0.093069719	0.028684991
2019-10-03T11:45:00	0.2125	9.692	167.2	0.509158218	0.610621178	0.009003935	0.092891936	0.028630197
2019-10-03T11:50:00	0.2114	9.711	167.3	0.505197462	0.605119990	0.008876483	0.091577037	0.028224932
2019-10-03T11:55:00	0.2110	9.714	167.3	0.503977414	0.603427983	0.008837406	0.091173888	0.028100678
2019-10-03T12:00:00	0.2128	9.710	167.3	0.509955443	0.611729993	0.009029698	0.093157732	0.028712118
2019-10-03T12:05:00	0.2119	9.716	167.4	0.507023924	0.607655234	0.008935143	0.092182226	0.028411457
2019-10-03T12:10:00	0.2123	9.734	167.5	0.508546161	0.609770251	0.008984180	0.092688132	0.028567383
2019-10-03T12:15:00	0.2105	9.747	167.6	0.502183103	0.600941747	0.008780092	0.090582594	0.027918435
2019-10-03T12:20:00	0.2125	9.760	167.7	0.509191929	0.610668055	0.009005024	0.092903168	0.028633659
2019-10-03T12:25:00	0.2109	9.766	167.7	0.503516286	0.602788787	0.008822659	0.091021745	0.028053786
2019-10-03T12:30:00	0.2092	9.770	167.7	0.497831196	0.594922409	0.008641856	0.089156439	0.027478880
2019-10-03T12:35:00	0.2084	9.776	167.8	0.494889243	0.590861870	0.008549026	0.088198721	0.027183702
2019-10-03T12:40:00	0.2084	9.783	167.8	0.495041479	0.591071819	0.008553817	0.088248153	0.027198938
2019-10-03T12:45:00	0.2068	9.792	167.9	0.489686702	0.583698220	0.008386084	0.086517685	0.026665591
2019-10-03T12:50:00	0.2066	9.800	168.0	0.488805660	0.582487214	0.008358645	0.086234595	0.026578340
2019-10-03T12:55:00	0.2078	9.811	168.0	0.493090142	0.588382140	0.008492502	0.087615580	0.027003973
2019-10-03T13:00:00	0.2069	9.822	168.1	0.489799650	0.583853513	0.008389605	0.086554009	0.026676786
2019-10-03T13:05:00	0.2060	9.832	168.2	0.486850740	0.579802367	0.008297919	0.085608099	0.026385247
2019-10-03T13:10:00	0.2065	9.839	168.2	0.488382012	0.581905125	0.008345466	0.086098635	0.026536436
2019-10-03T13:15:00	0.2064	9.845	168.2	0.488189938	0.581641264	0.008339495	0.086037029	0.026517448
2019-10-03T13:20:00	0.2062	9.852	168.3	0.487308508	0.580430781	0.008312119	0.085754597	0.026430400
2019-10-03T13:25:00	0.2070	9.861	179.9	0.490217504	0.584428115	0.008402637	0.086688460	0.026718225
2019-10-03T13:30:00	0.2084	9.869	168.4	0.495188099	0.591274039	0.008558433	0.088295775	0.027213615
2019-10-03T13:35:00	0.2073	9.873	179.9	0.491211081	0.585794970	0.008433666	0.087008574	0.026816888
2019-10-03T13:40:00	0.2072	9.876	180.0	0.491019167	0.585530894	0.008427668	0.086946697	0.026797817
2019-10-03T13:45:00	0.2070	9.882	168.5	0.490138470	0.584319423	0.008400172	0.086663022	0.026710385
2019-10-03T13:50:00	0.2056	9.895	169.1	0.485465817	0.577902191	0.008255032	0.085165642	0.026248878
2019-10-03T13:55:00	0.2056	9.908	168.6	0.485273579	0.577638552	0.008249087	0.085104315	0.026229976
2019-10-03T14:00:00	0.2047	9.917	180.2	0.482320733	0.573592689	0.008158047	0.084165067	0.025940491
2019-10-03T14:05:00	0.2074	9.926	168.8	0.491436871	0.586105697	0.008440725	0.087081402	0.026839334
2019-10-03T14:10:00	0.2054	9.938	168.8	0.484696797	0.576847723	0.008231265	0.084920445	0.026173306
2019-10-03T14:15:00	0.2058	9.947	168.9	0.486229040	0.578949177	0.008278653	0.085409337	0.026323987
2019-10-03T14:20:00	0.2059	9.953	168.9	0.486381664	0.579158602	0.008283381	0.085458110	0.026339020
2019-10-03T14:25:00	0.2060	9.957	180.6	0.486879050	0.579841225	0.008298797	0.085617155	0.026388039
2019-10-03T14:30:00	0.2063	9.959	169.0	0.487721047	0.580997251	0.008324926	0.085886727	0.026471123
2019-10-03T14:35:00	0.2057	9.962	169.0	0.485805070	0.578367520	0.008265527	0.085273922	0.026282251
2019-10-03T14:40:00	0.2073	9.966	169.1	0.491126454	0.585678519	0.008431021	0.086981286	0.026808477
2019-10-03T14:45:00	0.2040	9.971	169.1	0.479897732	0.570277996	0.008083716	0.083398209	0.025704138
2019-10-03T14:50:00	0.2059	9.973	169.1	0.486262979	0.578995745	0.008279704	0.085420181	0.026327329
2019-10-03T14:55:00	0.2034	9.972	169.1	0.477784665	0.567391119	0.008019168	0.082732278	0.025498892
2019-10-03T15:00:00	0.2036	9.969	169.1	0.478628922	0.568544119	0.008044927	0.082998028	0.025580798
2019-10-03T15:05:00	0.2045	9.965	169.1	0.481545367	0.572531470	0.008134224	0.083919293	0.025864741
2019-10-03T15:10:00	0.2047	9.961	169.1	0.482388688	0.573685721	0.008160137	0.084186624	0.025947135
2019-10-03T15:15:00	0.2046	9.962	169.1	0.481851030	0.572949764	0.008143612	0.084016139	0.025894590
2019-10-03T15:20:00	0.2050	9.965	169.1	0.483384559	0.575049495	0.008190789	0.084502856	0.026044601
2019-10-03T15:25:00	0.2063	9.966	169.2	0.487675879	0.580935224	0.008323523	0.085872256	0.026466663
2019-10-03T15:30:00	0.2024	9.967	169.2	0.474360180	0.562720134	0.007915103	0.081658660	0.025167992
2019-10-03T15:35:00	0.2048	9.963	169.1	0.482462273	0.573786462	0.008162399	0.084209970	0.025954331
2019-10-03T15:40:00	0.2032	9.958	169.1	0.477087600	0.566439568	0.007997931	0.082513178	0.025431363
2019-10-03T15:45:00	0.2060	9.955	169.1	0.486907359	0.579880083	0.008299674	0.085626212	0.026390830
2019-10-03T15:50:00	0.2054	9.953	169.1	0.484645963	0.576778037	0.008229695	0.084904249	0.026168314
2019-10-03T15:55:00	0.2051	9.950	169.1	0.483763612	0.575568790	0.008202470	0.084623376	0.026081746
2019-10-03T16:00:00	0.2057	9.948	169.1	0.485641171	0.578142699	0.008260456	0.085221601	0.026266125
2019-10-03T16:05:00	0.2058	9.944	169.1	0.486132494	0.578816710	0.008275663	0.085378491	0.026314480
2019-10-03T16:10:00	0.2055	9.942	169.1	0.484899422	0.577125514	0.008237524	0.084985017	0.026193207
2019-10-03T16:15:00	0.2087	9.941	169.1	0.496066049	0.592485286	0.008586099	0.088581198	0.027301586
2019-10-03T16:20:00	0.2064	9.939	169.2	0.488295324	0.581786035	0.008342771	0.086070828	0.026527865
2019-10-03T16:25:00	0.2068	9.935	169.1	0.489475310	0.583407602	0.008379496	0.086449720	0.026644643
2019-10-03T16:30:00	0.2062	9.929	169.1	0.487554155	0.580768071	0.008319744	0.085833262	0.026454645
2019-10-03T16:35:00	0.2065	9.921	169.1	0.488389818	0.581915849	0.008345709	0.086101139	0.026537207
2019-10-03T16:40:00	0.2064	9.913	169.1	0.488191577	0.581643516	0.008339546	0.086037555	0.026517610
2019-10-03T16:45:00	0.2081	9.907	169.1	0.493847135	0.589425198	0.008516262	0.087860709	0.027079524
2019-10-03T16:50:00	0.2083	9.898	169.0	0.494681252	0.590575060	0.008542481	0.088131207	0.027162894
2019-10-03T16:55:00	0.2093	9.891	169.0	0.498265072	0.595521842	0.008655589	0.089298117	0.027522547
2019-10-03T17:00:00	0.2086	9.884	169.0	0.495661220	0.591926695	0.008573336	0.088449531	0.027261004
2019-10-03T17:05:00	0.2079	9.879	169.0	0.493399484	0.588808325	0.008502208	0.087715710	0.027034834
2019-10-03T17:10:00	0.2089	9.873	168.9	0.496640906	0.593278711	0.008604238	0.088768334	0.027359263
2019-10-03T17:15:00	0.2076	9.867	168.9	0.492315243	0.587314884	0.008468214	0.087365005	0.026926743
2019-10-03T17:20:00	0.2094	9.860	168.9	0.498307570	0.595580563	0.008656935	0.089312001	0.027526826
2019-10-03T17:25:00	0.2100	9.854	168.9	0.500514366	0.598631833	0.008726957	0.090034402	0.027749477
2019-10-03T17:30:00	0.2097	9.849	168.8	0.499629975	0.597408542	0.008698861	0.089744546	0.027660141
2019-10-03T17:35:00	0.2099	9.843	168.8	0.500119283	0.598085276	0.008714400	0.089904857	0.027709550
2019-10-03T17:40:00	0.2118	9.838	180.4	0.506783480	0.607321329	0.008927410	0.092102442	0.028386867
2019-10-03T17:45:00	0.2106	9.831	168.8	0.502470670	0.601340031	0.008789265	0.090677229	0.027947603
2019-10-03T17:50:00	0.2102	9.825	168.8	0.501243503	0.599640851	0.008750154	0.090273725	0.027823239
2019-10-03T17:55:00	0.2129	9.821	180.3	0.510303087	0.612213672	0.009040944	0.093273756	0.028747878
2019-10-03T18:00:00	0.2130	9.817	180.3	0.510790870	0.612892491	0.009056736	0.093436672	0.028798090
2019-10-03T18:05:00	0.2123	9.813	168.8	0.508539138	0.609760489	0.008983954	0.092685795	0.028566662
2019-10-03T18:10:00	0.2125	9.809	180.3	0.509027172	0.610438963	0.008999703	0.092848281	0.028616742
2019-10-03T18:15:00	0.2139	9.805	168.7	0.513964354	0.617313541	0.009159810	0.094500067	0.029125838
2019-10-03T18:20:00	0.2153	9.801	168.7	0.518552885	0.623720325	0.009309876	0.096048277	0.029603012
2019-10-03T18:25:00	0.2140	9.798	168.8	0.514254883	0.617718690	0.009169275	0.094597720	0.029155936
2019-10-03T18:30:00	0.2125	9.795	168.7	0.509266566	0.610771843	0.009007434	0.092928037	0.028641324
2019-10-03T18:35:00	0.2149	9.792	180.3	0.517280037	0.621941390	0.009268126	0.095617544	0.029470256
2019-10-03T18:40:00	0.2114	9.789	180.3	0.505445435	0.605464034	0.008884436	0.091659084	0.028250220
2019-10-03T18:45:00	0.2135	9.786	168.7	0.512441462	0.615190952	0.009110274	0.093989014	0.028968327
2019-10-03T18:50:00	0.2133	9.785	168.7	0.511902400	0.614440062	0.009092771	0.093808447	0.028912674
2019-10-03T18:55:00	0.2140	9.783	168.7	0.514100441	0.617503308	0.009164243	0.094545802	0.029139934
2019-10-03T19:00:00	0.2134	9.779	180.2	0.512193104	0.614844971	0.009102208	0.093905801	0.028942680
2019-10-03T19:05:00	0.2125	9.773	180.2	0.509257372	0.610759058	0.009007137	0.092924973	0.028640379
2019-10-03T19:10:00	0.2156	9.765	180.1	0.519661903	0.625271362	0.009346330	0.096424361	0.029718925
2019-10-03T19:15:00	0.2147	9.760	180.1	0.516732562	0.621176640	0.009250197	0.095432576	0.029413247
2019-10-03T19:20:00	0.2150	9.757	180.2	0.517561114	0.622334111	0.009277337	0.095712577	0.029499546
2019-10-03T19:25:00	0.2158	9.754	180.1	0.520438363	0.626357887	0.009371895	0.096688108	0.029800214
2019-10-03T19:30:00	0.2186	9.751	180.1	0.529787926	0.639479449	0.009682480	0.099892360	0.030787796
2019-10-03T19:35:00	0.2173	9.747	180.1	0.525503955	0.633458334	0.009539538	0.098417658	0.030333278
2019-10-03T19:40:00	0.2171	9.744	168.6	0.524966940	0.632704612	0.009521695	0.098233575	0.030276542
2019-10-03T19:45:00	0.2193	9.740	168.5	0.532263576	0.642965781	0.009765572	0.100749602	0.031052006
2019-10-03T19:50:00	0.2197	9.734	168.5	0.533768590	0.645087655	0.009816260	0.101272544	0.031213182
2019-10-03T19:55:00	0.2186	9.728	168.5	0.529830034	0.639538707	0.009683890	0.099906910	0.030792280
2019-10-03T20:00:00	0.1912	9.725	169.4	0.436662375	0.510237285	0.006791432	0.070065951	0.021595006
2019-10-03T20:05:00	0.1915	9.714	169.4	0.437322287	0.511364873	0.006813296	0.070291522	0.021664530
2019-10-03T20:10:00	0.1905	9.710	169.3	0.434714780	0.506916527	0.006727154	0.069402807	0.021390619
2019-10-03T20:15:00	0.1913	9.704	169.3	0.437009194	0.510829741	0.006802917	0.070184445	0.021631528
2019-10-03T20:20:00	0.1906	9.698	169.3	0.434946271	0.507310677	0.006734774	0.069481426	0.021414850
2019-10-03T20:25:00	0.1911	9.693	169.3	0.436423814	0.509829956	0.006783538	0.069984515	0.021569907
2019-10-03T20:30:00	0.1908	9.688	169.3	0.435450162	0.508169150	0.006751380	0.069652746	0.021467653
2019-10-03T20:35:00	0.1901	9.684	169.3	0.433658031	0.505119139	0.006692433	0.069044602	0.021280217
2019-10-03T20:40:00	0.1892	9.680	169.3	0.431044763	0.500687688	0.006607043	0.068163645	0.021008697
2019-10-03T20:45:00	0.1921	9.676	169.3	0.439062277	0.514343822	0.006871152	0.070888414	0.021848498
2019-10-03T20:50:00	0.1884	9.674	169.3	0.429090551	0.497386253	0.006543625	0.067509370	0.020807044
2019-10-03T20:55:00	0.1893	9.670	169.3	0.431392757	0.501276701	0.006618375	0.068280558	0.021044731
2019-10-03T21:00:00	0.1907	9.668	169.2	0.435327143	0.507959498	0.006747324	0.069610897	0.021454754
2019-10-03T21:05:00	0.1917	9.663	169.2	0.437892749	0.512340600	0.006832232	0.070486875	0.021724739
2019-10-03T21:10:00	0.1914	9.662	182.5	0.437192101	0.511142328	0.006808979	0.070246986	0.021650803
2019-10-03T21:15:00	0.1901	9.659	169.2	0.433493826	0.504840129	0.006687048	0.068989044	0.021263093
2019-10-03T21:20:00	0.1900	9.658	169.2	0.433336927	0.504573602	0.006681905	0.068935983	0.021246739
2019-10-03T21:25:00	0.1884	9.653	169.2	0.429083211	0.497373872	0.006543387	0.067506920	0.020806288
2019-10-03T21:30:00	0.1897	9.651	169.1	0.432477378	0.503114691	0.006653772	0.068645737	0.021157283
2019-10-03T21:35:00	0.1886	9.648	169.1	0.429588889	0.498227134	0.006559761	0.067675849	0.020858354
2019-10-03T21:40:00	0.1884	9.645	169.1	0.428884724	0.497039149	0.006536967	0.067440683	0.020785874
2019-10-03T21:45:00	0.1883	9.643	169.1	0.428727387	0.496773895	0.006531880	0.067388206	0.020769700
2019-10-03T21:50:00	0.1875	9.640	169.1	0.426654101	0.493284993	0.006465079	0.066699027	0.020557288
2019-10-03T21:55:00	0.1871	9.636	169.1	0.425400618	0.491181432	0.006424894	0.066284451	0.020429512
2019-10-03T22:00:00	0.1864	9.631	169.0	0.423597508	0.488163143	0.006367357	0.065690852	0.020246559
2019-10-03T22:05:00	0.1864	9.628	169.0	0.423592598	0.488154936	0.006367201	0.065689240	0.020246062
2019-10-03T22:10:00	0.1872	9.627	169.0	0.425781248	0.491819734	0.006437081	0.066410174	0.020468261
2019-10-03T22:15:00	0.1865	9.624	169.0	0.423857135	0.488597186	0.006375623	0.065776123	0.020272840
2019-10-03T22:20:00	0.1879	9.621	169.0	0.427688405	0.495024017	0.006498352	0.067042299	0.020663088
2019-10-03T22:25:00	0.1863	9.618	169.0	0.423298551	0.487663580	0.006357848	0.065592747	0.020216322
2019-10-03T22:30:00	0.1843	9.614	169.0	0.417795738	0.478512400	0.006184356	0.063802865	0.019664663
2019-10-03T22:35:00	0.1847	9.613	169.0	0.418891892	0.480328631	0.006218683	0.064157006	0.019773812
2019-10-03T22:40:00	0.1843	9.611	169.0	0.417785883	0.478496085	0.006184048	0.063799686	0.019663683
2019-10-03T22:45:00	0.1845	9.610	169.0	0.418331593	0.479399850	0.006201123	0.063975838	0.019717975
2019-10-03T22:50:00	0.1843	9.607	169.0	0.417776027	0.478479770	0.006183740	0.063796507	0.019662703
2019-10-03T22:55:00	0.1847	9.605	169.0	0.418872194	0.480295964	0.006218065	0.064150632	0.019771848
2019-10-03T23:00:00	0.1831	9.604	169.0	0.414458342	0.473003024	0.006080554	0.062731955	0.019334598
2019-10-03T23:05:00	0.1833	9.603	168.9	0.415005185	0.473903651	0.006097489	0.062906673	0.019388447
2019-10-03T23:10:00	0.1844	9.601	168.9	0.418031662	0.478903025	0.006191735	0.063878986	0.019688124
2019-10-03T23:15:00	0.1837	9.600	168.9	0.416098311	0.475706450	0.006131428	0.063256815	0.019496365
2019-10-03T23:20:00	0.1842	9.598	168.9	0.417471064	0.477975079	0.006174211	0.063698199	0.019632404
2019-10-03T23:25:00	0.1830	9.596	168.9	0.414157686	0.472508208	0.006071255	0.062636020	0.019305030
2019-10-03T23:30:00	0.1823	9.594	168.9	0.412219646	0.469324569	0.006011521	0.062019757	0.019115091
2019-10-03T23:35:00	0.1833	9.591	168.9	0.414975566	0.473854849	0.006096571	0.062897202	0.019385528
2019-10-03T23:40:00	0.1826	9.588	168.9	0.413038520	0.470668482	0.006036717	0.062279693	0.019195206
2019-10-03T23:45:00	0.1828	9.584	168.9	0.413585849	0.471567771	0.006053593	0.062453801	0.019248868
2019-10-03T23:50:00	0.1812	9.583	168.9	0.409157343	0.464315127	0.005917865	0.061053521	0.018817288
2019-10-03T23:55:00	0.1843	9.580	168.9	0.417711964	0.478373729	0.006181738	0.063775848	0.019656336
2019-10-04T00:00:00	0.1830	9.578	168.8	0.414123113	0.472451323	0.006070186	0.062624994	0.019301631
2019-10-04T00:05:00	0.1838	9.576	168.8	0.416324619	0.476080093	0.006138469	0.063329452	0.019518752
2019-10-04T00:10:00	0.1815	9.573	168.8	0.409967893	0.465638553	0.005942568	0.061308375	0.018895837
2019-10-04T00:15:00	0.1839	9.571	168.8	0.416590349	0.476519001	0.006146742	0.063414806	0.019545059
2019-10-04T00:20:00	0.1828	9.568	168.8	0.413551264	0.471510921	0.006052526	0.062442790	0.019245474
2019-10-04T00:25:00	0.1829	9.566	168.8	0.413822394	0.471956681	0.006060895	0.062529138	0.019272088
2019-10-04T00:30:00	0.1834	9.563	168.8	0.415197098	0.474219918	0.006103439	0.062968060	0.019407367
2019-10-04T00:35:00	0.1821	9.560	168.8	0.411602592	0.468313094	0.005992578	0.061824320	0.019054856
2019-10-04T00:40:00	0.1810	9.559	168.7	0.408553965	0.463331132	0.005899516	0.060864223	0.018758945
2019-10-04T00:45:00	0.1810	9.555	168.7	0.408549009	0.463323053	0.005899366	0.060862669	0.018758466
2019-10-04T00:50:00	0.1813	9.551	168.7	0.409374732	0.464669893	0.005924484	0.061121809	0.018838335
2019-10-04T00:55:00	0.1823	9.549	168.7	0.412135579	0.469186705	0.006008938	0.061993109	0.019106878
2019-10-04T01:00:00	0.1829	9.544	168.7	0.413787813	0.471899816	0.006059827	0.062518121	0.019268692
2019-10-04T01:05:00	0.1832	9.541	168.7	0.414610820	0.473254067	0.006085273	0.062780642	0.019349604
2019-10-04T01:10:00	0.1815	9.535	168.6	0.409908468	0.465541466	0.005940754	0.061289669	0.018890071
2019-10-04T01:15:00	0.1822	9.530	168.6	0.411839431	0.468701197	0.005999844	0.061899289	0.019077962
2019-10-04T01:20:00	0.1817	9.521	168.6	0.410451925	0.466429716	0.005957349	0.061460873	0.018942838
2019-10-04T01:25:00	0.1835	9.513	168.6	0.415418599	0.474585072	0.006110311	0.063038956	0.019429218
2019-10-04T01:30:00	0.1818	9.504	168.5	0.410718634	0.466865934	0.005965503	0.061544999	0.018968766
2019-10-04T01:35:00	0.1830	9.497	168.5	0.414029267	0.472296933	0.006067286	0.062595070	0.019292409
2019-10-04T01:40:00	0.1829	9.486	168.4	0.413748292	0.471834831	0.006058607	0.062505531	0.019264812
2019-10-04T01:45:00	0.1812	9.478	168.4	0.409043384	0.464129206	0.005914397	0.061017741	0.018806260
2019-10-04T01:50:00	0.1830	9.467	168.3	0.414014449	0.472272557	0.006066828	0.062590346	0.019290953
2019-10-04T01:55:00	0.1826	9.455	168.3	0.413181250	0.470902915	0.006041115	0.062325068	0.019209191
2019-10-04T02:00:00	0.1832	9.445	168.2	0.414832403	0.473618997	0.006092135	0.062851436	0.019371423
2019-10-04T02:05:00	0.1821	9.437	168.2	0.411789969	0.468620131	0.005998326	0.061883627	0.019073135
2019-10-04T02:10:00	0.1820	9.428	168.1	0.411508598	0.468159111	0.005989695	0.061794582	0.019045690
2019-10-04T02:15:00	0.1845	9.418	168.1	0.418399965	0.479513141	0.006203264	0.063997929	0.019724783
2019-10-04T02:20:00	0.1847	9.411	168.1	0.418945468	0.480417486	0.006220364	0.064174346	0.019779157
2019-10-04T02:25:00	0.1833	9.405	168.1	0.415083571	0.474032817	0.006099919	0.062931742	0.019396174
2019-10-04T02:30:00	0.1837	9.399	168.1	0.416181576	0.475843907	0.006134018	0.063283534	0.019504600
2019-10-04T02:35:00	0.1822	9.394	168.0	0.412036671	0.469024527	0.006005900	0.061961765	0.019097218
2019-10-04T02:40:00	0.1840	9.390	168.0	0.416998424	0.477193402	0.006159461	0.063546019	0.019585500
2019-10-04T02:45:00	0.2226	9.392	168.0	0.543624188	0.659028447	0.010151463	0.104730776	0.032279042
2019-10-04T02:50:00	0.2234	9.389	168.0	0.546329820	0.662869469	0.010244480	0.105690414	0.032574812
2019-10-04T02:55:00	0.2247	9.385	167.9	0.550725761	0.669122910	0.010396523	0.107259016	0.033058270
2019-10-04T03:00:00	0.2240	9.381	167.9	0.548350085	0.665741427	0.010314215	0.106409852	0.032796550
2019-10-04T03:05:00	0.2241	9.378	167.9	0.548682641	0.666214502	0.010325717	0.106528515	0.032833123
2019-10-04T03:10:00	0.2213	9.375	167.9	0.539182770	0.652736219	0.009999701	0.103165074	0.031796478
2019-10-04T03:15:00	0.2224	9.373	167.9	0.542909515	0.658014870	0.010126965	0.104478033	0.032201145
2019-10-04T03:20:00	0.2239	9.370	167.9	0.547987193	0.665225302	0.010301671	0.106280440	0.032756664
2019-10-04T03:25:00	0.2251	9.369	167.9	0.552042781	0.670999521	0.010442296	0.107731245	0.033203816
2019-10-04T03:30:00	0.2228	9.366	167.9	0.544247706	0.659913087	0.010172861	0.104951534	0.032347082
2019-10-04T03:35:00	0.2228	9.365	167.9	0.544241639	0.659904477	0.010172653	0.104949385	0.032346420
2019-10-04T03:40:00	0.2213	9.362	167.9	0.539146313	0.652684637	0.009998460	0.103152271	0.031792532
2019-10-04T03:45:00	0.2220	9.362	167.9	0.541516160	0.656039959	0.010079289	0.103986163	0.032049545
2019-10-04T03:50:00	0.2219	9.359	167.9	0.541170769	0.655550656	0.010067488	0.103864417	0.032012022
2019-10-04T03:55:00	0.2222	9.355	167.8	0.542182554	0.656984292	0.010102077	0.104221261	0.032122005
2019-10-04T04:00:00	0.2219	9.352	167.8	0.541158624	0.655533452	0.010067073	0.103860138	0.032010703
2019-10-04T04:05:00	0.2201	9.348	167.8	0.535078095	0.646935389	0.009860471	0.101728663	0.031353762
2019-10-04T04:10:00	0.2199	9.346	167.8	0.534431087	0.646022275	0.009838614	0.101503172	0.031284263
2019-10-04T04:15:00	0.2194	9.342	167.7	0.532763625	0.643670580	0.009782398	0.100923201	0.031105511
2019-10-04T04:20:00	0.2189	9.340	167.8	0.531095357	0.641320016	0.009726317	0.100344624	0.030927188
2019-10-04T04:25:00	0.2186	9.337	167.8	0.529766755	0.639449658	0.009681771	0.099885046	0.030785541
2019-10-04T04:30:00	0.2222	9.334	167.7	0.542034353	0.656774249	0.010097006	0.104168954	0.032105883
2019-10-04T04:35:00	0.2215	9.332	167.7	0.539691662	0.653456357	0.010017031	0.103343866	0.031851583
2019-10-04T04:40:00	0.2243	9.332	167.7	0.549216867	0.666974649	0.010344207	0.106719279	0.032891918
2019-10-04T04:45:00	0.2256	9.330	167.7	0.553647952	0.673288642	0.010498221	0.108308215	0.033381644
2019-10-04T04:50:00	0.2254	9.331	167.7	0.553004402	0.672370627	0.010475782	0.108076707	0.033310291
2019-10-04T04:55:00	0.2241	9.329	167.7	0.548638077	0.666151103	0.010324175	0.106512610	0.032828221
2019-10-04T05:00:00	0.2244	9.328	167.7	0.549686523	0.667643114	0.010360477	0.106887129	0.032943651
2019-10-04T05:05:00	0.2243	9.328	167.7	0.549380788	0.667207938	0.010349884	0.106777848	0.032909970
2019-10-04T05:10:00	0.2256	9.328	167.7	0.553811664	0.673522230	0.010503934	0.108367148	0.033399808
2019-10-04T05:15:00	0.2238	9.327	167.7	0.547753312	0.664892722	0.010293591	0.106197078	0.032730971
2019-10-04T05:20:00	0.2236	9.326	167.7	0.546769899	0.663494789	0.010259650	0.105846920	0.032623049
2019-10-04T05:25:00	0.2244	9.326	167.7	0.549511919	0.667394578	0.010354427	0.106824712	0.032924414
2019-10-04T05:30:00	0.2244	9.326	167.7	0.549544702	0.667441239	0.010355563	0.106836429	0.032928025
2019-10-04T05:35:00	0.2257	9.328	167.7	0.553975369	0.673755829	0.010509647	0.108426095	0.033417976
2019-10-04T05:40:00	0.2276	9.328	167.7	0.560425742	0.682977748	0.010736035	0.110761693	0.034137829
2019-10-04T05:45:00	0.2277	9.329	178.8	0.560795861	0.683507936	0.010749099	0.110896475	0.034179370
2019-10-04T05:50:00	0.2276	9.330	167.7	0.560491100	0.683071365	0.010738341	0.110785487	0.034145163
2019-10-04T05:55:00	0.2288	9.330	167.7	0.564570827	0.688921945	0.010882808	0.112275919	0.034604529
2019-10-04T06:00:00	0.2302	9.329	167.7	0.569319059	0.695748496	0.011052183	0.114023334	0.035143099
2019-10-04T06:05:00	0.2294	9.331	167.7	0.566657836	0.691920152	0.010957090	0.113042275	0.034840727
2019-10-04T06:10:00	0.2299	9.334	167.7	0.568037614	0.693904323	0.011006341	0.113550391	0.034997333
2019-10-04T06:15:00	0.2319	9.339	167.7	0.574798170	0.703648999	0.011249286	0.116056812	0.035769837
2019-10-04T06:20:00	0.2335	9.343	167.8	0.580203739	0.711467828	0.011445486	0.118080974	0.036393703
2019-10-04T06:25:00	0.2333	9.349	167.8	0.579565062	0.710542757	0.011422215	0.117840885	0.036319705
2019-10-04T06:30:00	0.2347	9.354	167.8	0.584293032	0.717398857	0.011595063	0.119624131	0.036869319
2019-10-04T06:35:00	0.2332	9.359	167.8	0.579294436	0.710150880	0.011412361	0.117739227	0.036288373
2019-10-04T06:40:00	0.2340	9.366	167.8	0.582011040	0.714087388	0.011511471	0.118761723	0.036603516
2019-10-04T06:45:00	0.2337	9.374	167.9	0.581037230	0.712675580	0.011475893	0.118394673	0.036490388
2019-10-04T06:50:00	0.2348	9.383	167.9	0.584757998	0.718074115	0.011612134	0.119800243	0.036923598
2019-10-04T06:55:00	0.2347	9.393	167.9	0.584455316	0.717634517	0.011601020	0.119685583	0.036888259
2019-10-04T07:00:00	0.2344	9.401	167.9	0.583146924	0.715735163	0.011553041	0.119190596	0.036735699
2019-10-04T07:05:00	0.2343	9.411	168.0	0.582844103	0.715295770	0.011541951	0.119076183	0.036700436
2019-10-04T07:10:00	0.2357	9.423	168.0	0.587567668	0.722158348	0.011715559	0.120867259	0.037252463
2019-10-04T07:15:00	0.2350	9.437	168.1	0.585255352	0.718796606	0.011630407	0.119988768	0.036981703
2019-10-04T07:20:00	0.2356	9.452	168.2	0.587297658	0.721765566	0.011705599	0.120764508	0.037220794
2019-10-04T07:25:00	0.2347	9.467	168.2	0.584314898	0.717430609	0.011595866	0.119632410	0.036871871
2019-10-04T07:30:00	0.2356	9.481	168.3	0.587362517	0.721859910	0.011707991	0.120789186	0.037228400
2019-10-04T07:35:00	0.2354	9.496	168.3	0.586725139	0.720932929	0.011684496	0.120546787	0.037153690
2019-10-04T07:40:00	0.2348	9.511	168.4	0.584747408	0.718058733	0.011611745	0.119796230	0.036922362
2019-10-04T07:45:00	0.2355	9.533	168.5	0.587124922	0.721514321	0.011699230	0.120698798	0.037200542
2019-10-04T07:50:00	0.2339	9.554	168.6	0.581794965	0.713774059	0.011503572	0.118680230	0.036578399
2019-10-04T07:55:00	0.2356	9.574	168.7	0.587189784	0.721608660	0.011701621	0.120723470	0.037208146
2019-10-04T08:00:00	0.2361	9.593	168.7	0.588896256	0.724091917	0.011764628	0.121373499	0.037408491
2019-10-04T08:05:00	0.2376	9.610	168.8	0.593945983	0.731454490	0.011952092	0.123307527	0.038004577
2019-10-04T08:10:00	0.2352	9.630	168.9	0.585947294	0.719802114	0.011655855	0.120251305	0.037062620
2019-10-04T08:15:00	0.2362	9.650	169.0	0.589328204	0.724720871	0.011780604	0.121538321	0.037459291
2019-10-04T08:20:00	0.2348	9.667	169.1	0.584671911	0.717949078	0.011608972	0.119767626	0.036913545
2019-10-04T08:25:00	0.2368	9.681	169.1	0.591400542	0.727740544	0.011857406	0.122330672	0.037703501
2019-10-04T08:30:00	0.2367	9.699	169.2	0.591098431	0.727300104	0.011846194	0.122214996	0.037667849
2019-10-04T08:35:00	0.2355	9.716	169.2	0.587114339	0.721498928	0.011698840	0.120694773	0.037199301
2019-10-04T08:40:00	0.2355	9.735	169.3	0.587146771	0.721546098	0.011700035	0.120707108	0.037203103
2019-10-04T08:45:00	0.2359	9.756	169.4	0.588183734	0.723054760	0.011738299	0.121101868	0.037324772
2019-10-04T08:50:00	0.2341	9.776	169.5	0.582184710	0.714339255	0.011517822	0.118827244	0.036623711
2019-10-04T08:55:00	0.2361	9.796	169.6	0.588918094	0.724123710	0.011765436	0.121381829	0.037411059
2019-10-04T09:00:00	0.2373	9.819	181.4	0.592964904	0.730022398	0.011915552	0.122930550	0.037888389
2019-10-04T09:05:00	0.2351	9.842	169.8	0.585634127	0.719346980	0.011644334	0.120132446	0.037025987
2019-10-04T09:10:00	0.2330	9.863	181.5	0.578623768	0.709179989	0.011387961	0.117487491	0.036210786
2019-10-04T09:15:00	0.2354	9.884	181.6	0.586703971	0.720902149	0.011683716	0.120538741	0.037151211
2019-10-04T09:20:00	0.2329	9.906	170.1	0.578353070	0.708788218	0.011378120	0.117385963	0.036179494
2019-10-04T09:25:00	0.2335	9.926	170.2	0.580399389	0.711751279	0.011452620	0.118154572	0.036416387
2019-10-04T09:30:00	0.2351	9.943	182.0	0.585796349	0.719582731	0.011650301	0.120194008	0.037044961
2019-10-04T09:35:00	0.2343	9.962	170.4	0.582812315	0.715249650	0.011540787	0.119064177	0.036696736
2019-10-04T09:40:00	0.2339	9.981	182.1	0.581503311	0.713351196	0.011492914	0.118570277	0.036544511
2019-10-04T09:45:00	0.2347	10.000	182.2	0.584218208	0.717290209	0.011592318	0.119595803	0.036860588
2019-10-04T09:50:00	0.2332	10.019	170.6	0.579219505	0.710042389	0.011409634	0.117711088	0.036279701
2019-10-04T09:55:00	0.2349	10.035	170.6	0.584953395	0.718357938	0.011619311	0.119874291	0.036946421
2019-10-04T10:00:00	0.2330	10.048	170.7	0.578613160	0.709164635	0.011387575	0.117483512	0.036209559
2019-10-04T10:05:00	0.2325	10.061	170.8	0.577070856	0.706933349	0.011331564	0.116905661	0.036031460
2019-10-04T10:10:00	0.2297	10.075	170.8	0.567454467	0.693065544	0.010985512	0.113335500	0.034931102
2019-10-04T10:15:00	0.2309	10.087	170.9	0.571630353	0.699078194	0.011135112	0.114878897	0.035406792
2019-10-04T10:20:00	0.2286	10.101	171.0	0.563685101	0.687650593	0.010851360	0.111951480	0.034504533
2019-10-04T10:25:00	0.2301	10.119	171.1	0.568875567	0.695110098	0.011036307	0.113859541	0.035092616
2019-10-04T10:30:00	0.2294	10.140	171.1	0.566655318	0.691916533	0.010957000	0.113041349	0.034840442
2019-10-04T10:35:00	0.2278	10.157	171.2	0.561061311	0.683888256	0.010758474	0.110993192	0.034209180
2019-10-04T10:40:00	0.2275	10.166	171.3	0.560186275	0.682634777	0.010727587	0.110674533	0.034110966
2019-10-04T10:45:00	0.2273	10.175	171.3	0.559311020	0.681381613	0.010696737	0.110356260	0.034012871
2019-10-04T10:50:00	0.2263	10.182	171.4	0.556071178	0.676748395	0.010582935	0.109182191	0.033651012
2019-10-04T10:55:00	0.2273	10.190	171.4	0.559585681	0.681774797	0.010706413	0.110456086	0.034043638
2019-10-04T11:00:00	0.2244	10.197	171.4	0.549582429	0.667494940	0.010356870	0.106849916	0.032932182
2019-10-04T11:05:00	0.2248	10.206	171.5	0.551073880	0.669618804	0.010408612	0.107383735	0.033096710
2019-10-04T11:10:00	0.2245	10.212	171.5	0.549857860	0.667887023	0.010366415	0.106948396	0.032962534
2019-10-04T11:15:00	0.2235	10.222	171.6	0.546609193	0.663266419	0.010254109	0.105789755	0.032605430
2019-10-04T11:20:00	0.2233	10.235	183.4	0.545730512	0.662018151	0.010223840	0.105477469	0.032509180
2019-10-04T11:25:00	0.2251	10.240	171.7	0.551962781	0.670885489	0.010439513	0.107702530	0.033194966
2019-10-04T11:30:00	0.2218	10.250	171.7	0.540919593	0.655194884	0.010058911	0.103775926	0.031984748
2019-10-04T11:35:00	0.2217	10.266	183.6	0.540378897	0.654429205	0.010040459	0.103585565	0.031926077
2019-10-04T11:40:00	0.2217	10.287	183.7	0.540516982	0.654624723	0.010045170	0.103634163	0.031941056
2019-10-04T11:45:00	0.2207	10.310	183.8	0.536919805	0.649536438	0.009922820	0.102371904	0.031552015
2019-10-04T11:50:00	0.2200	10.328	183.9	0.534679039	0.646372165	0.009846988	0.101589556	0.031310888
2019-10-04T11:55:00	0.2197	10.348	184.0	0.533797323	0.645128183	0.009817229	0.101282541	0.031216263
2019-10-04T12:00:00	0.2202	10.360	184.0	0.535295586	0.647242407	0.009867824	0.101804518	0.031377141
2019-10-04T12:05:00	0.2184	10.370	184.1	0.529310276	0.638807375	0.009666489	0.099727389	0.030736950
2019-10-04T12:10:00	0.2192	10.379	184.2	0.531831398	0.642356807	0.009751040	0.100599686	0.031005800
2019-10-04T12:15:00	0.2195	10.384	172.3	0.532990392	0.643990266	0.009790034	0.101001976	0.031129790
2019-10-04T12:20:00	0.2191	10.388	184.2	0.531768003	0.642267490	0.009748910	0.100577705	0.030999025
2019-10-04T12:25:00	0.2196	10.389	184.2	0.533267146	0.644380478	0.009799357	0.101098157	0.031159434
2019-10-04T12:30:00	0.2183	10.392	172.4	0.528981406	0.638344746	0.009655487	0.099613883	0.030701966
2019-10-04T12:35:00	0.2159	10.398	172.5	0.520596386	0.626579074	0.009377102	0.096741830	0.029816772
2019-10-04T12:40:00	0.2159	10.407	172.6	0.520735265	0.626773481	0.009381679	0.096789055	0.029831327
2019-10-04T12:45:00	0.2167	10.415	184.6	0.523603754	0.630792379	0.009476477	0.097767067	0.030132759
2019-10-04T12:50:00	0.2168	10.422	184.7	0.523742512	0.630986955	0.009481075	0.097814501	0.030147379
2019-10-04T12:55:00	0.2155	10.428	173.0	0.519444893	0.624967781	0.009339191	0.096350712	0.029696225
2019-10-04T13:00:00	0.2149	10.434	173.1	0.517192725	0.621819411	0.009265265	0.095588033	0.029461160
2019-10-04T13:05:00	0.2165	10.439	173.2	0.522794432	0.629657802	0.009449682	0.097490629	0.030047559
2019-10-04T13:10:00	0.2156	10.444	173.3	0.519861652	0.625550830	0.009352903	0.096492177	0.029739826
2019-10-04T13:15:00	0.2173	10.451	173.3	0.525459014	0.633395248	0.009538044	0.098402246	0.030328528
2019-10-04T13:20:00	0.2153	10.457	173.3	0.518773549	0.624028859	0.009317124	0.096123049	0.029626057
2019-10-04T13:25:00	0.2158	10.463	173.3	0.520278360	0.626133949	0.009366624	0.096633729	0.029783454
2019-10-04T13:30:00	0.2137	10.467	173.3	0.513240713	0.616304705	0.009136255	0.094257054	0.029050939
2019-10-04T13:35:00	0.2147	10.470	173.3	0.516457262	0.620792175	0.009241188	0.095339632	0.029384601
2019-10-04T13:40:00	0.2137	10.475	173.2	0.513176974	0.616215865	0.009134181	0.094235664	0.029044347
2019-10-04T13:45:00	0.2114	10.477	173.2	0.505439027	0.605455143	0.008884230	0.091656964	0.028249566
2019-10-04T13:50:00	0.2128	10.472	173.2	0.510032856	0.611837689	0.009032202	0.093183562	0.028720079
2019-10-04T13:55:00	0.2122	10.465	173.1	0.508117120	0.609173947	0.008970346	0.092545403	0.028523392
2019-10-04T14:00:00	0.2126	10.458	173.0	0.509284139	0.610796280	0.009008002	0.092933893	0.028643128
2019-10-04T14:05:00	0.2124	10.453	173.0	0.508738449	0.610037552	0.008990384	0.092752137	0.028587109
2019-10-04T14:10:00	0.2141	10.445	172.9	0.514695937	0.618333879	0.009183654	0.094746065	0.029201657
2019-10-04T14:15:00	0.2139	10.436	172.8	0.513809085	0.617097043	0.009154753	0.094447898	0.029109759
2019-10-04T14:20:00	0.2142	10.424	172.8	0.514974166	0.618722039	0.009192730	0.094839705	0.029230518
2019-10-04T14:25:00	0.2149	10.409	172.7	0.517164124	0.621779455	0.009264328	0.095578367	0.029458181
2019-10-04T14:30:00	0.2135	10.392	184.3	0.512516106	0.615294945	0.009112698	0.094014030	0.028976037
2019-10-04T14:35:00	0.2140	10.376	172.3	0.514365665	0.617873196	0.009172886	0.094634970	0.029167417
2019-10-04T14:40:00	0.2165	10.360	183.9	0.522702315	0.629528698	0.009446635	0.097459189	0.030037869
2019-10-04T14:45:00	0.2175	10.340	183.5	0.526250841	0.634507008	0.009564382	0.098673971	0.030412276
2019-10-04T14:50:00	0.2149	10.317	171.0	0.517175812	0.621795783	0.009264711	0.095582317	0.029459398
2019-10-04T14:55:00	0.2143	10.299	182.3	0.515264068	0.619126550	0.009202192	0.094937322	0.029260605
2019-10-04T15:00:00	0.2138	10.282	170.4	0.513693326	0.616935648	0.009150984	0.094409014	0.029097775
2019-10-04T15:05:00	0.2142	10.267	170.4	0.514858447	0.618560590	0.009188955	0.094800753	0.029218513
2019-10-04T15:10:00	0.2132	10.254	170.5	0.511576628	0.613986389	0.009082203	0.093699409	0.028879068
2019-10-04T15:15:00	0.2127	10.239	170.6	0.509661756	0.611321461	0.009020203	0.093059772	0.028681926
2019-10-04T15:20:00	0.2147	10.224	170.6	0.516643068	0.621051653	0.009247268	0.095402357	0.029403933
2019-10-04T15:25:00	0.2152	10.205	170.3	0.518490404	0.623632972	0.009307825	0.096027111	0.029596488
2019-10-04T15:30:00	0.2152	10.184	181.5	0.518287791	0.623349721	0.009301173	0.095958489	0.029575338
2019-10-04T15:35:00	0.2142	10.160	169.4	0.515009253	0.618770994	0.009193875	0.094851517	0.029234159
2019-10-04T15:40:00	0.2159	10.137	168.7	0.520614520	0.626604457	0.009377699	0.096747996	0.029818672
2019-10-04T15:45:00	0.2154	10.117	168.3	0.519046226	0.624410173	0.009326084	0.096215485	0.029654547
2019-10-04T15:50:00	0.2193	10.096	167.6	0.532478162	0.643268206	0.009772791	0.100824079	0.031074960
2019-10-04T15:55:00	0.2210	10.066	166.5	0.538055089	0.651141181	0.009961352	0.102769435	0.031674538
2019-10-04T16:00:00	0.2189	10.046	165.8	0.531053727	0.641261389	0.009724920	0.100330208	0.030922744
2019-10-04T16:05:00	0.2186	10.030	165.4	0.530068599	0.639874457	0.009691882	0.099989364	0.030817693
2019-10-04T16:10:00	0.2190	10.018	165.4	0.531125732	0.641362793	0.009727337	0.100355143	0.030930430
2019-10-04T16:15:00	0.2201	10.010	165.6	0.534903215	0.646688549	0.009854561	0.101667690	0.031334969
2019-10-04T16:20:00	0.2206	10.001	165.9	0.536638495	0.649138964	0.009913284	0.102273520	0.031521692
2019-10-04T16:25:00	0.2214	9.993	166.1	0.539391581	0.653031683	0.010006810	0.103238418	0.031819083
2019-10-04T16:30:00	0.2220	9.985	166.1	0.541463932	0.655965964	0.010077504	0.103967749	0.032043870
2019-10-04T16:35:00	0.2224	9.975	166.1	0.542856771	0.657940083	0.010125158	0.104459393	0.032195399
2019-10-04T16:40:00	0.2224	9.966	166.2	0.542892651	0.657990957	0.010126387	0.104472073	0.032199308
2019-10-04T16:45:00	0.2239	9.957	166.3	0.548012241	0.665260924	0.010302537	0.106289370	0.032759416
2019-10-04T16:50:00	0.2230	9.950	166.3	0.544998767	0.660979105	0.010198666	0.105217761	0.032429136
2019-10-04T16:55:00	0.2226	9.942	166.3	0.543678533	0.659105539	0.010153327	0.104750008	0.032284970
2019-10-04T17:00:00	0.2238	9.934	166.3	0.547442343	0.664450590	0.010282852	0.106086290	0.032696825
2019-10-04T17:05:00	0.2233	9.925	166.3	0.545784172	0.662094363	0.010225687	0.105496526	0.032515054
2019-10-04T17:10:00	0.2260	9.917	166.2	0.554957740	0.675158089	0.010543968	0.108780169	0.033527105
2019-10-04T17:15:00	0.2257	9.910	166.2	0.553979389	0.673761566	0.010509788	0.108427543	0.033418422
2019-10-04T17:20:00	0.2276	9.903	166.1	0.560432775	0.682987821	0.010736283	0.110764253	0.034138618
2019-10-04T17:25:00	0.2272	9.894	165.9	0.559118392	0.681105899	0.010689953	0.110286276	0.033991301
2019-10-04T17:30:00	0.2277	9.883	165.8	0.560841607	0.683573474	0.010750714	0.110913139	0.034184507
2019-10-04T17:35:00	0.2279	9.870	165.6	0.561552068	0.684591537	0.010775817	0.111172113	0.034264325
2019-10-04T17:40:00	0.2294	9.859	165.4	0.566644292	0.691900683	0.010956607	0.113037293	0.034839192
2019-10-04T17:45:00	0.2317	9.846	165.3	0.574082897	0.702616214	0.011223454	0.115790311	0.035687698
2019-10-04T17:50:00	0.2307	9.833	165.1	0.570755446	0.697817266	0.011103683	0.114554652	0.035306856
2019-10-04T17:55:00	0.2301	9.819	164.9	0.568771701	0.694960608	0.011032590	0.113821199	0.035080799
2019-10-04T18:00:00	0.2324	9.807	164.8	0.576541715	0.706168284	0.011312381	0.116707745	0.035970460
2019-10-04T18:05:00	0.2322	9.793	164.6	0.575905378	0.705248535	0.011289332	0.116469960	0.035897173
2019-10-04T18:10:00	0.2322	9.781	164.4	0.575940919	0.705299896	0.011290619	0.116483235	0.035901264
2019-10-04T18:15:00	0.2335	9.769	164.1	0.580341242	0.711667035	0.011450500	0.118132697	0.036409644
2019-10-04T18:20:00	0.2321	9.755	163.8	0.575676026	0.704917116	0.011281031	0.116384317	0.035870777
2019-10-04T18:25:00	0.2324	9.743	163.4	0.576719385	0.706425145	0.011318820	0.116774180	0.035990936
2019-10-04T18:30:00	0.2318	9.731	163.1	0.574739017	0.703563571	0.011247149	0.116034761	0.035763040
2019-10-04T18:35:00	0.2352	9.720	162.8	0.585847613	0.719657237	0.011652187	0.120213466	0.037050958
2019-10-04T18:40:00	0.2324	9.711	173.8	0.576490087	0.706093649	0.011310510	0.116688443	0.035964511
2019-10-04T18:45:00	0.2359	9.702	173.7	0.588262797	0.723169824	0.011741219	0.121131993	0.037334057
2019-10-04T18:50:00	0.2368	9.692	173.5	0.591309995	0.727608530	0.011854045	0.122295997	0.037692814
2019-10-04T18:55:00	0.2372	9.684	162.3	0.592683111	0.729611212	0.011905067	0.122822381	0.037855051
2019-10-04T19:00:00	0.2374	9.676	173.2	0.593387152	0.730638660	0.011931271	0.123092725	0.037938373
2019-10-04T19:05:00	0.2390	9.668	173.0	0.598767257	0.738503835	0.012132494	0.125168706	0.038578211
2019-10-04T19:10:00	0.2376	9.661	172.9	0.594126410	0.731717949	0.011958818	0.123376920	0.038025965
2019-10-04T19:15:00	0.2382	9.653	161.6	0.596166573	0.734698877	0.012035009	0.124162973	0.038268234
2019-10-04T19:20:00	0.2348	9.646	161.5	0.584491226	0.717686667	0.011602338	0.119699183	0.036892451
2019-10-04T19:25:00	0.2363	9.638	161.3	0.589550260	0.725044266	0.011788821	0.121623097	0.037485420
2019-10-04T19:30:00	0.2355	9.632	161.3	0.586907340	0.721197882	0.011691210	0.120616054	0.037175039
2019-10-04T19:35:00	0.2362	9.625	161.3	0.589286391	0.724659982	0.011779057	0.121522361	0.037454372
2019-10-04T19:40:00	0.2359	9.617	161.3	0.588317589	0.723249570	0.011743243	0.121152873	0.037340492
2019-10-04T19:45:00	0.2339	9.610	161.4	0.581651022	0.713565350	0.011498311	0.118625957	0.036561672
2019-10-04T19:50:00	0.2345	9.605	161.4	0.583698421	0.716535581	0.011573252	0.119399109	0.036799965
2019-10-04T19:55:00	0.2368	9.598	161.3	0.591435510	0.727791528	0.011858704	0.122344065	0.037707629
2019-10-04T20:00:00	0.2375	9.591	161.3	0.593811508	0.731258148	0.011947080	0.123255820	0.037988641
2019-10-04T20:05:00	0.2358	9.586	161.3	0.588159882	0.723020049	0.011737418	0.121092780	0.037321971
2019-10-04T20:10:00	0.2357	9.582	161.4	0.587525645	0.722097213	0.011714008	0.120851265	0.037247534
2019-10-04T20:15:00	0.2356	9.578	161.4	0.587226198	0.721661624	0.011702964	0.120737322	0.037212415
2019-10-04T20:20:00	0.2378	9.573	161.5	0.594621383	0.732440846	0.011977280	0.123567393	0.038084670
2019-10-04T20:25:00	0.2365	9.567	161.6	0.590309688	0.726150579	0.011816947	0.121913259	0.037574850
2019-10-04T20:30:00	0.2368	9.562	161.6	0.591348715	0.727664981	0.011855482	0.122310824	0.037697384
2019-10-04T20:35:00	0.2358	9.558	161.7	0.588037587	0.722842079	0.011732902	0.121046191	0.037307612
2019-10-04T20:40:00	0.2375	9.554	161.7	0.593760132	0.731183140	0.011945165	0.123236069	0.037982553
2019-10-04T20:45:00	0.2372	9.549	161.8	0.592792559	0.729770908	0.011909139	0.122864388	0.037867998
2019-10-04T20:50:00	0.2382	9.545	161.9	0.596169903	0.734703744	0.012035134	0.124164258	0.038268630
2019-10-04T20:55:00	0.2361	9.541	161.9	0.588848789	0.724022811	0.011762873	0.121355394	0.037402911
2019-10-04T21:00:00	0.2368	9.538	162.0	0.591226530	0.727486848	0.011850947	0.122264038	0.037682964
2019-10-04T21:05:00	0.2381	9.533	162.0	0.595607791	0.733882083	0.012014117	0.123947425	0.038201800
2019-10-04T21:10:00	0.2383	9.528	162.0	0.596311249	0.734910398	0.012040422	0.124218812	0.038285444
2019-10-04T21:15:00	0.2399	9.525	173.0	0.601686908	0.742782199	0.012242417	0.126302760	0.038927737
2019-10-04T21:20:00	0.2389	9.520	162.0	0.598385466	0.737944898	0.012118158	0.125020799	0.038532625
2019-10-04T21:25:00	0.2392	9.515	162.0	0.599422119	0.739462828	0.012157105	0.125422611	0.038656467
2019-10-04T21:30:00	0.2395	9.510	162.0	0.600458468	0.740981212	0.012196105	0.125824967	0.038780477
2019-10-04T21:35:00	0.2386	9.506	162.1	0.597489809	0.736634144	0.012084559	0.124674172	0.038425791
2019-10-04T21:40:00	0.2405	9.501	173.0	0.603530431	0.745487313	0.012312087	0.127021533	0.039149270
2019-10-04T21:45:00	0.2403	9.496	162.0	0.602898949	0.744560380	0.012288199	0.126775087	0.039073313
2019-10-04T21:50:00	0.2398	9.488	162.0	0.601266821	0.742166178	0.012226570	0.126139265	0.038877347
2019-10-04T21:55:00	0.2391	9.482	162.0	0.598966454	0.738795505	0.012139978	0.125245911	0.038602006
2019-10-04T22:00:00	0.2395	9.477	162.0	0.600336598	0.740802611	0.012191515	0.125777617	0.038765883
2019-10-04T22:05:00	0.2403	9.472	162.1	0.603187593	0.744984030	0.012299115	0.126887705	0.039108023
2019-10-04T22:10:00	0.2402	9.466	162.1	0.602703636	0.744273754	0.012280816	0.126698914	0.039049836
2019-10-04T22:15:00	0.2409	9.461	162.1	0.604886355	0.747478760	0.012363460	0.127551536	0.039312622
2019-10-04T22:20:00	0.2405	9.456	162.2	0.603736042	0.745789195	0.012319870	0.127101829	0.039174018
2019-10-04T22:25:00	0.2387	9.451	173.3	0.597580311	0.736766560	0.012087952	0.124709175	0.038436579
2019-10-04T22:30:00	0.2396	9.447	173.3	0.600767148	0.741433642	0.012207734	0.125944938	0.038817453
2019-10-04T22:35:00	0.2413	9.442	162.3	0.606283486	0.749532340	0.012416509	0.128098835	0.039481305
2019-10-04T22:40:00	0.2390	9.436	173.4	0.598797276	0.738547786	0.012133622	0.125180339	0.038581796
2019-10-04T22:45:00	0.2395	9.430	173.4	0.600315171	0.740771211	0.012190709	0.125769293	0.038763318
2019-10-04T22:50:00	0.2407	9.425	162.5	0.604499448	0.746910353	0.012348790	0.127400187	0.039265975
2019-10-04T22:55:00	0.2411	9.421	173.5	0.605681775	0.748647712	0.012393648	0.127862979	0.039408612
2019-10-04T23:00:00	0.2420	9.416	162.6	0.608528473	0.752835575	0.012501997	0.128980795	0.039753134
2019-10-04T23:05:00	0.2420	9.412	173.6	0.608711024	0.753104363	0.012508961	0.129052648	0.039775279
2019-10-04T23:10:00	0.2421	9.408	162.7	0.608893565	0.753373165	0.012515928	0.129124519	0.039797431
2019-10-04T23:15:00	0.2435	9.404	162.7	0.613732576	0.760509073	0.012701329	0.131037268	0.040386959
2019-10-04T23:20:00	0.2422	9.399	162.7	0.609258620	0.753910811	0.012529865	0.129268310	0.039841749
2019-10-04T23:25:00	0.2429	9.396	173.9	0.611769896	0.757612411	0.012625961	0.130259716	0.040147310
2019-10-04T23:30:00	0.2417	9.393	173.9	0.607626440	0.751507832	0.012467612	0.128626050	0.039643798
2019-10-04T23:35:00	0.2408	9.390	162.8	0.604811287	0.747368467	0.012360613	0.127522164	0.039303569
2019-10-04T23:40:00	0.2415	9.388	162.9	0.606992708	0.750575420	0.012443483	0.128377121	0.039567076
2019-10-04T23:45:00	0.2423	9.386	174.0	0.609838355	0.754764866	0.012552016	0.129496832	0.039912181
2019-10-04T23:50:00	0.2413	9.385	174.1	0.606358862	0.749643179	0.012419374	0.128128397	0.039490416
2019-10-04T23:55:00	0.2428	9.383	174.0	0.611201326	0.756773880	0.012604171	0.130034913	0.040078023
2019-10-05T00:00:00	0.2427	9.378	162.6	0.611051117	0.756552395	0.012598418	0.129975556	0.040059729
2019-10-05T00:05:00	0.2414	9.375	162.5	0.606573778	0.749959233	0.012427546	0.128212703	0.039516400
2019-10-05T00:10:00	0.2400	9.374	162.5	0.602090779	0.743374580	0.012257663	0.126460046	0.038976214
2019-10-05T00:15:00	0.2417	9.375	173.7	0.607605057	0.751476366	0.012466797	0.128617646	0.039641208
2019-10-05T00:20:00	0.2422	9.375	173.7	0.609451988	0.754195647	0.012537251	0.129344510	0.039865234
2019-10-05T00:25:00	0.2401	9.375	173.8	0.602305954	0.743690245	0.012265789	0.126543886	0.039002055
2019-10-05T00:30:00	0.2405	9.375	173.9	0.603822345	0.745915918	0.012323138	0.127135541	0.039184408
2019-10-05T00:35:00	0.2392	9.374	173.9	0.599335859	0.739336487	0.012153862	0.125389151	0.038646154
2019-10-05T00:40:00	0.2400	9.374	174.0	0.602187660	0.743516702	0.012261321	0.126497791	0.038987848
2019-10-05T00:45:00	0.2389	9.376	174.1	0.598366826	0.737917611	0.012117458	0.125013580	0.038530400
2019-10-05T00:50:00	0.2404	9.376	174.2	0.603220216	0.745031917	0.012300349	0.126900437	0.039111947
2019-10-05T00:55:00	0.2387	9.377	163.1	0.597731434	0.736987685	0.012093619	0.124767634	0.038454597
2019-10-05T01:00:00	0.2393	9.378	174.3	0.599583519	0.739699241	0.012163175	0.125485230	0.038675766
2019-10-05T01:05:00	0.2395	9.377	163.2	0.600433867	0.740945159	0.012195178	0.125815408	0.038777531
2019-10-05T01:10:00	0.2389	9.378	174.4	0.598280730	0.737791586	0.012114226	0.124980240	0.038520124
2019-10-05T01:15:00	0.2404	9.378	163.3	0.603467605	0.745395078	0.012309709	0.126997003	0.039141710
2019-10-05T01:20:00	0.2389	9.380	163.3	0.598313058	0.737838907	0.012115440	0.124992758	0.038523982
2019-10-05T01:25:00	0.2387	9.378	163.2	0.597828435	0.737129629	0.012097256	0.124805165	0.038466164
2019-10-05T01:30:00	0.2399	9.376	163.0	0.601682148	0.742775218	0.012242237	0.126300907	0.038927166
2019-10-05T01:35:00	0.2398	9.373	173.8	0.601197986	0.742065251	0.012223974	0.126112485	0.038869093
2019-10-05T01:40:00	0.2404	9.367	173.3	0.603381632	0.745268866	0.012306456	0.126963440	0.039131365
2019-10-05T01:45:00	0.2399	9.366	162.0	0.601563834	0.742601706	0.012237773	0.126254849	0.038912971
2019-10-05T01:50:00	0.2398	9.364	161.9	0.601413215	0.742380835	0.012232091	0.126196228	0.038894903
2019-10-05T01:55:00	0.2396	9.363	161.8	0.600595410	0.741181918	0.012201263	0.125878183	0.038796879
2019-10-05T02:00:00	0.2391	9.363	161.7	0.599109957	0.739005647	0.012145370	0.125301545	0.038619153
2019-10-05T02:05:00	0.2371	9.363	161.6	0.592277406	0.729019330	0.011889980	0.122666733	0.037807079
2019-10-05T02:10:00	0.2403	9.363	161.7	0.603145113	0.744921677	0.012297508	0.126871128	0.039102914
2019-10-05T02:15:00	0.2407	9.364	161.7	0.604327892	0.746658358	0.012342288	0.127333107	0.039245300
2019-10-05T02:20:00	0.2394	9.364	161.7	0.600175723	0.740566866	0.012185458	0.125715127	0.038746623
2019-10-05T02:25:00	0.2396	9.364	161.6	0.600692333	0.741323979	0.012204915	0.125915855	0.038808489
2019-10-05T02:30:00	0.2394	9.363	161.5	0.599874361	0.740125311	0.012174116	0.125598109	0.038710557
2019-10-05T02:35:00	0.2406	9.363	161.3	0.604059159	0.746263674	0.012332106	0.127228067	0.039212926
2019-10-05T02:40:00	0.2386	9.361	161.1	0.597236178	0.736263089	0.012075054	0.124576104	0.038395565
2019-10-05T02:45:00	0.2397	9.358	160.7	0.601090536	0.741907715	0.012219923	0.126070689	0.038856211
2019-10-05T02:50:00	0.2385	9.354	160.3	0.596934565	0.735821907	0.012063755	0.124459536	0.038359638
2019-10-05T02:55:00	0.2361	9.352	159.9	0.589093812	0.724379557	0.011771934	0.121448868	0.037431721
2019-10-05T03:00:00	0.2372	9.350	159.7	0.592622706	0.729523077	0.011902820	0.122799200	0.037847906
2019-10-05T03:05:00	0.2370	9.349	159.6	0.592137300	0.728814961	0.011884772	0.122613005	0.037790519
2019-10-05T03:10:00	0.2388	9.350	159.6	0.598000987	0.737382148	0.012103729	0.124871942	0.038486745
2019-10-05T03:15:00	0.2373	9.351	159.8	0.593172796	0.730325795	0.011923290	0.123010383	0.037912995
2019-10-05T03:20:00	0.2374	9.353	159.8	0.593356141	0.730593396	0.011930116	0.123080811	0.037934701
2019-10-05T03:25:00	0.2374	9.351	159.6	0.593205172	0.730373047	0.011924495	0.123022818	0.037916827
2019-10-05T03:30:00	0.2380	9.350	159.4	0.595393760	0.733569293	0.012006119	0.123864915	0.038176370
2019-10-05T03:35:00	0.2382	9.352	159.3	0.595911069	0.734325363	0.012025454	0.124064389	0.038237850
2019-10-05T03:40:00	0.2391	9.351	159.2	0.599099410	0.738990201	0.012144974	0.125297456	0.038617893
2019-10-05T03:45:00	0.2400	9.349	159.0	0.601951401	0.743170131	0.012252400	0.126405754	0.038959481
2019-10-05T03:50:00	0.2384	9.349	158.9	0.596794643	0.735617264	0.012058515	0.124405478	0.038342976
2019-10-05T03:55:00	0.2388	9.348	158.8	0.597979546	0.737350769	0.012102925	0.124863643	0.038484188
2019-10-05T04:00:00	0.2373	9.349	158.8	0.593151326	0.730294460	0.011922490	0.123002137	0.037910453
2019-10-05T04:05:00	0.2370	9.350	158.9	0.591991734	0.728602645	0.011879363	0.122557196	0.037773318
2019-10-05T04:10:00	0.2361	9.352	158.9	0.589158638	0.724473950	0.011774331	0.121473605	0.037439345
2019-10-05T04:15:00	0.2374	9.353	159.0	0.593350689	0.730585437	0.011929913	0.123078716	0.037934056
2019-10-05T04:20:00	0.2348	9.354	159.0	0.584491188	0.717686612	0.011602337	0.119699169	0.036892446
2019-10-05T04:25:00	0.2339	9.353	158.9	0.581652047	0.713566837	0.011498349	0.118626343	0.036561791
2019-10-05T04:30:00	0.2335	9.351	158.6	0.580153114	0.711394490	0.011443641	0.118061934	0.036387835
2019-10-05T04:35:00	0.2327	9.348	158.4	0.577646280	0.707765598	0.011352445	0.117121084	0.036097855
2019-10-05T04:40:00	0.2310	9.347	158.2	0.571775623	0.699287620	0.011140335	0.114932779	0.035423399
2019-10-05T04:45:00	0.2301	9.347	158.2	0.568926164	0.695182923	0.011038117	0.113878222	0.035098374
2019-10-05T04:50:00	0.2299	9.347	158.3	0.568095279	0.693987281	0.011008402	0.113571652	0.035003886
2019-10-05T04:55:00	0.2290	9.348	158.4	0.565242818	0.689886938	0.010906697	0.112522387	0.034680492
2019-10-05T05:00:00	0.2264	9.351	158.5	0.556311885	0.677092327	0.010591369	0.109269200	0.033677829
2019-10-05T05:05:00	0.2252	9.353	158.6	0.552435207	0.671558962	0.010455955	0.107872156	0.033247246
2019-10-05T05:10:00	0.2235	9.355	158.6	0.546521930	0.663142423	0.010251101	0.105758720	0.032595865
2019-10-05T05:15:00	0.2208	9.358	158.7	0.537542685	0.650416760	0.009943952	0.102589916	0.031619208
2019-10-05T05:20:00	0.2199	9.361	158.7	0.534325032	0.645872632	0.009835034	0.101466234	0.031272879
2019-10-05T05:25:00	0.2213	9.364	158.7	0.539262527	0.652849070	0.010002416	0.103193085	0.031805111
2019-10-05T05:30:00	0.2201	9.366	158.8	0.535026811	0.646862998	0.009858738	0.101710780	0.031348250
2019-10-05T05:35:00	0.2188	9.367	158.8	0.530445520	0.640405019	0.009704516	0.100119705	0.030857866
2019-10-05T05:40:00	0.2180	9.369	158.9	0.527902588	0.636827772	0.009619441	0.099241998	0.030587348
2019-10-05T05:45:00	0.2158	9.370	158.7	0.520240581	0.626081078	0.009365379	0.096620892	0.029779497
2019-10-05T05:50:00	0.2159	9.372	158.8	0.520763604	0.626813153	0.009382613	0.096798694	0.029834297
2019-10-05T05:55:00	0.2157	9.374	158.7	0.519921090	0.625633997	0.009354860	0.096512362	0.029746047
2019-10-05T06:00:00	0.2142	9.376	158.6	0.514977729	0.618727010	0.009192847	0.094840904	0.029230888
2019-10-05T06:05:00	0.2135	9.376	158.5	0.512423325	0.615165682	0.009109684	0.093982935	0.028966453
2019-10-05T06:10:00	0.2136	9.380	158.5	0.512947541	0.615896110	0.009126720	0.094158690	0.029020623
2019-10-05T06:15:00	0.2141	9.383	158.6	0.514497747	0.618057421	0.009177191	0.094679391	0.029181108
2019-10-05T06:20:00	0.2121	9.388	158.7	0.507833793	0.608780244	0.008961216	0.092451209	0.028494360
2019-10-05T06:25:00	0.2123	9.392	158.8	0.508358712	0.609509706	0.008978135	0.092625760	0.028548159
2019-10-05T06:30:00	0.2114	9.397	158.9	0.505456503	0.605479391	0.008884791	0.091662747	0.028251349
2019-10-05T06:35:00	0.2111	9.399	158.9	0.504267238	0.603829813	0.008846681	0.091269576	0.028130170
2019-10-05T06:40:00	0.2081	9.403	158.8	0.494144874	0.589835578	0.008525617	0.087957216	0.027109268
2019-10-05T06:45:00	0.2071	9.408	158.8	0.490541850	0.584874229	0.008412760	0.086792895	0.026750413
2019-10-05T06:50:00	0.2053	9.413	158.9	0.484175917	0.576133770	0.008215187	0.084754565	0.026122180
2019-10-05T06:55:00	0.2055	9.420	158.9	0.485049449	0.577331215	0.008242160	0.085032842	0.026207948
2019-10-05T07:00:00	0.2065	9.427	159.0	0.488335839	0.581841692	0.008344030	0.086083823	0.026531870
2019-10-05T07:05:00	0.2055	9.433	159.1	0.485071601	0.577361589	0.008242844	0.085039905	0.026210125
2019-10-05T07:10:00	0.2048	9.440	159.2	0.482494685	0.573830838	0.008163396	0.084220255	0.025957500
2019-10-05T07:15:00	0.2037	9.447	159.3	0.478879270	0.568886127	0.008052573	0.083076912	0.025605111
2019-10-05T07:20:00	0.2041	9.453	159.4	0.480099627	0.570554012	0.008089897	0.083461974	0.025723791
2019-10-05T07:25:00	0.2027	9.459	159.4	0.475444062	0.564197535	0.007947968	0.081997721	0.025272494
2019-10-05T07:30:00	0.2030	9.465	159.4	0.476319848	0.565391971	0.007974572	0.082272192	0.025357089
2019-10-05T07:35:00	0.2048	9.471	159.3	0.482722698	0.574143034	0.008170411	0.084292621	0.025979804
2019-10-05T07:40:00	0.2027	9.475	159.2	0.475304423	0.564007145	0.007943730	0.081954000	0.025259019
2019-10-05T07:45:00	0.2023	9.479	158.9	0.474104559	0.562371842	0.007907362	0.081578798	0.025143378
2019-10-05T07:50:00	0.2046	9.481	158.6	0.481892912	0.573007084	0.008144898	0.084029413	0.025898681
2019-10-05T07:55:00	0.2029	9.484	158.2	0.476202455	0.565231830	0.007971004	0.082235375	0.025345741
2019-10-05T08:00:00	0.2038	9.485	158.0	0.479151908	0.569258643	0.008060904	0.083162862	0.025631602
2019-10-05T08:05:00	0.2020	9.488	157.8	0.473110699	0.561018170	0.007877301	0.081268657	0.025047790
2019-10-05T08:10:00	0.2049	9.488	157.5	0.482972860	0.574485607	0.008178110	0.084372053	0.026004286
2019-10-05T08:15:00	0.2070	9.479	156.8	0.490052100	0.584200648	0.008397477	0.086635227	0.026701818
2019-10-05T08:20:00	0.2087	9.466	156.3	0.496085325	0.592511887	0.008586707	0.088587470	0.027303519
2019-10-05T08:25:00	0.2093	9.452	156.0	0.497986842	0.595137428	0.008646781	0.089207251	0.027494541
2019-10-05T08:30:00	0.2116	9.441	155.7	0.506063561	0.606321855	0.008904275	0.091863766	0.028313305
2019-10-05T08:35:00	0.2141	9.430	155.4	0.514463236	0.618009284	0.009176066	0.094667783	0.029177530
2019-10-05T08:40:00	0.2150	9.416	154.8	0.517721437	0.622558143	0.009282593	0.095766804	0.029516259
2019-10-05T08:45:00	0.2174	9.402	154.2	0.525751816	0.633806295	0.009547779	0.098502680	0.030359483
2019-10-05T08:50:00	0.2185	9.390	164.2	0.529680339	0.639328053	0.009678877	0.099855190	0.030776339
2019-10-05T08:55:00	0.2209	9.379	153.2	0.537682922	0.650615001	0.009948712	0.102639032	0.031634346
2019-10-05T09:00:00	0.2213	9.372	152.9	0.539222034	0.652791774	0.010001038	0.103178863	0.031800728
2019-10-05T09:05:00	0.2216	9.368	152.9	0.540081644	0.654008367	0.010030322	0.103480987	0.031893845
2019-10-05T09:10:00	0.2228	9.362	152.9	0.544332953	0.660034059	0.010175789	0.104981734	0.032356390
2019-10-05T09:15:00	0.2239	9.358	152.9	0.547901767	0.665103821	0.010298719	0.106249988	0.032747278
2019-10-05T09:20:00	0.2247	9.358	152.9	0.550790190	0.669214682	0.010398760	0.107282093	0.033065383
2019-10-05T09:25:00	0.2272	9.358	152.9	0.559081838	0.681053582	0.010688666	0.110272998	0.033987209
2019-10-05T09:30:00	0.2281	9.357	152.6	0.561960998	0.685177708	0.010790278	0.111321313	0.034310310
2019-10-05T09:35:00	0.2290	9.356	152.4	0.565174800	0.689789246	0.010904278	0.112497427	0.034672800
2019-10-05T09:40:00	0.2281	9.353	152.0	0.561982660	0.685208762	0.010791045	0.111329219	0.034312747
2019-10-05T09:45:00	0.2304	9.349	151.4	0.569911234	0.696601175	0.011073400	0.114242227	0.035210564
2019-10-05T09:50:00	0.2307	9.345	150.9	0.570763296	0.697828577	0.011103965	0.114557560	0.035307753
2019-10-05T09:55:00	0.2320	9.344	150.5	0.575313378	0.704393171	0.011267912	0.116248966	0.035829060
2019-10-05T10:00:00	0.2339	9.346	150.4	0.581535110	0.713397297	0.011494076	0.118582262	0.036548205
2019-10-05T10:05:00	0.2351	9.343	150.3	0.585635379	0.719348800	0.011644380	0.120132922	0.037026133
2019-10-05T10:10:00	0.2353	9.335	150.3	0.586382790	0.720435167	0.011671886	0.120416692	0.037113594
2019-10-05T10:15:00	0.2360	9.326	150.1	0.588804128	0.723957790	0.011761222	0.121338360	0.037397661
2019-10-05T10:20:00	0.2361	9.323	150.2	0.588881470	0.724070390	0.011764081	0.121367860	0.037406753
2019-10-05T10:25:00	0.2364	9.318	150.3	0.589962836	0.725645235	0.011804097	0.121780690	0.037533991
2019-10-05T10:30:00	0.2365	9.315	150.4	0.590374757	0.726245392	0.011819358	0.121938137	0.037582518
2019-10-05T10:35:00	0.2367	9.314	150.4	0.591121164	0.727333244	0.011847037	0.122223699	0.037670531
2019-10-05T10:40:00	0.2369	9.313	150.5	0.591532950	0.727933601	0.011862322	0.122381387	0.037719132
2019-10-05T10:45:00	0.2368	9.311	150.5	0.591275745	0.727558597	0.011852774	0.122282882	0.037688772
2019-10-05T10:50:00	0.2369	9.312	150.9	0.591687513	0.728158981	0.011868061	0.122440603	0.037737383
2019-10-05T10:55:00	0.2357	9.309	151.0	0.587749029	0.722422206	0.011722251	0.120936301	0.037273742
2019-10-05T11:00:00	0.2365	9.305	151.0	0.590504020	0.726433753	0.011824149	0.121987566	0.037597753
2019-10-05T11:05:00	0.2375	9.302	151.1	0.593591158	0.730936456	0.011938870	0.123171118	0.037962535
2019-10-05T11:10:00	0.2361	9.298	151.2	0.588985425	0.724221742	0.011767925	0.121407515	0.037418975
2019-10-05T11:15:00	0.2354	9.296	151.3	0.586718994	0.720923993	0.011684269	0.120544451	0.037152971
2019-10-05T11:20:00	0.2350	9.294	151.3	0.585456414	0.719088742	0.011637799	0.120065024	0.037005207
2019-10-05T11:25:00	0.2376	9.291	151.3	0.593900098	0.731387494	0.011950381	0.123289883	0.037999139
2019-10-05T11:30:00	0.2360	9.290	151.4	0.588625324	0.723697494	0.011754613	0.121270176	0.037376646
2019-10-05T11:35:00	0.2348	9.285	151.4	0.584683412	0.717965783	0.011609395	0.119771983	0.036914888
2019-10-05T11:40:00	0.2368	9.283	151.6	0.591456915	0.727822738	0.011859499	0.122352263	0.037710156
2019-10-05T11:45:00	0.2361	9.283	151.7	0.588857358	0.724035285	0.011763190	0.121358662	0.037403918
2019-10-05T11:50:00	0.2365	9.280	151.8	0.590273345	0.726097624	0.011815600	0.121899365	0.037570568
2019-10-05T11:55:00	0.2360	9.275	152.0	0.588677305	0.723773164	0.011756534	0.121289997	0.037382755
2019-10-05T12:00:00	0.2374	9.269	152.1	0.593437927	0.730712776	0.011933162	0.123112234	0.037944386
2019-10-05T12:05:00	0.2365	9.265	152.3	0.590505270	0.726435575	0.011824195	0.121988044	0.037597900
2019-10-05T12:10:00	0.2371	9.262	152.5	0.592255022	0.728986677	0.011889148	0.122658148	0.037804433
2019-10-05T12:15:00	0.2382	9.258	152.7	0.596008801	0.734468228	0.012029108	0.124102093	0.038249470
2019-10-05T12:20:00	0.2368	9.254	152.9	0.591406225	0.727748830	0.011857617	0.122332849	0.037704172
2019-10-05T12:25:00	0.2372	9.249	153.1	0.592821189	0.729812684	0.011910204	0.122875377	0.037871385
2019-10-05T12:30:00	0.2379	9.248	163.6	0.594903967	0.732853645	0.011987827	0.123676202	0.038118207
2019-10-05T12:35:00	0.2376	9.244	153.3	0.593978578	0.731502084	0.011953307	0.123320062	0.038008441
2019-10-05T12:40:00	0.2384	9.237	163.8	0.596728709	0.735520837	0.012056046	0.124380008	0.038335126
2019-10-05T12:45:00	0.2384	9.231	163.8	0.596805878	0.735633695	0.012058936	0.124409818	0.038344314
2019-10-05T12:50:00	0.2390	9.226	163.9	0.598552510	0.738189432	0.012124429	0.125085501	0.038552566
2019-10-05T12:55:00	0.2382	9.224	164.0	0.595958176	0.734394223	0.012027215	0.124082562	0.038243451
2019-10-05T13:00:00	0.2370	9.221	164.2	0.592024461	0.728650378	0.011880579	0.122569743	0.037777185
2019-10-05T13:05:00	0.2367	9.220	153.9	0.591098317	0.727299939	0.011846189	0.122214953	0.037667835
2019-10-05T13:10:00	0.2373	9.218	154.1	0.592847774	0.729851476	0.011911193	0.122885582	0.037874530
2019-10-05T13:15:00	0.2388	9.214	154.2	0.597936664	0.737288012	0.012101316	0.124847047	0.038479072
2019-10-05T13:20:00	0.2382	9.212	154.3	0.596010049	0.734470053	0.012029155	0.124102575	0.038249619
2019-10-05T13:25:00	0.2368	9.210	165.0	0.591407475	0.727750653	0.011857663	0.122333328	0.037704320
2019-10-05T13:30:00	0.2384	9.209	165.0	0.596832433	0.735672532	0.012059930	0.124420076	0.038347476
2019-10-05T13:35:00	0.2381	9.206	154.7	0.595573470	0.733831922	0.012012834	0.123934192	0.038197722
2019-10-05T13:40:00	0.2382	9.203	154.8	0.595984737	0.734433050	0.012028208	0.124092809	0.038246609
2019-10-05T13:45:00	0.2374	9.196	154.9	0.593388515	0.730640650	0.011931322	0.123093249	0.037938535
2019-10-05T13:50:00	0.2380	9.190	154.9	0.595470958	0.733682108	0.012009003	0.123894672	0.038185541
2019-10-05T13:55:00	0.2387	9.184	154.8	0.597552174	0.736725391	0.012086897	0.124698292	0.038433225
2019-10-05T14:00:00	0.2398	9.180	154.8	0.601300332	0.742215313	0.012227833	0.126152303	0.038881365
2019-10-05T14:05:00	0.2370	9.177	154.8	0.592025711	0.728652201	0.011880625	0.122570222	0.037777333
2019-10-05T14:10:00	0.2398	9.174	154.8	0.601454469	0.742441328	0.012233647	0.126212283	0.038899851
2019-10-05T14:15:00	0.2405	9.170	154.8	0.603532167	0.745489863	0.012312153	0.127022211	0.039149479
2019-10-05T14:20:00	0.2390	9.165	154.7	0.598605593	0.738267145	0.012126423	0.125106066	0.038558905
2019-10-05T14:25:00	0.2407	9.160	154.8	0.604352805	0.746694951	0.012343232	0.127342847	0.039248302
2019-10-05T14:30:00	0.2413	9.156	154.8	0.606428804	0.749746032	0.012422034	0.128155830	0.039498872
2019-10-05T14:35:00	0.2416	9.151	154.7	0.607504817	0.751328861	0.012462979	0.128578257	0.039629068
2019-10-05T14:40:00	0.2403	9.147	154.8	0.602917188	0.744587148	0.012288889	0.126782202	0.039075506
2019-10-05T14:45:00	0.2427	9.143	154.9	0.610986691	0.756457404	0.012595951	0.129950102	0.040051883
2019-10-05T14:50:00	0.2425	9.141	154.9	0.610398212	0.755589904	0.012573426	0.129717716	0.039980260
2019-10-05T14:55:00	0.2439	9.141	155.0	0.615129731	0.762573066	0.012755121	0.131592232	0.040558004
2019-10-05T15:00:00	0.2425	9.140	155.1	0.610219253	0.755326150	0.012566580	0.129647089	0.039958492
2019-10-05T15:05:00	0.2445	9.139	155.1	0.616944095	0.765255848	0.012825152	0.132314725	0.040780683
2019-10-05T15:10:00	0.2409	9.137	155.1	0.605045770	0.747712995	0.012369507	0.127613923	0.039331850
2019-10-05T15:15:00	0.2418	9.133	155.2	0.608120245	0.752234601	0.012486429	0.128820187	0.039703633
2019-10-05T15:20:00	0.2428	9.129	155.2	0.611192059	0.756760214	0.012603816	0.130031250	0.040076894
2019-10-05T15:25:00	0.2410	9.126	155.2	0.605276728	0.748052388	0.012378271	0.127704336	0.039359717
2019-10-05T15:30:00	0.2438	9.122	155.2	0.614670322	0.761894207	0.012737420	0.131409616	0.040501720
2019-10-05T15:35:00	0.2399	9.119	155.2	0.601763969	0.742895218	0.012245325	0.126332763	0.038936985
2019-10-05T15:40:00	0.2427	9.115	155.2	0.611166854	0.756723049	0.012602851	0.130021290	0.040073824
2019-10-05T15:45:00	0.2423	9.109	165.7	0.609580217	0.754384546	0.012542150	0.129395053	0.039880812
2019-10-05T15:50:00	0.2416	9.101	155.2	0.607326956	0.751067158	0.012456206	0.128508382	0.039607531
2019-10-05T15:55:00	0.2404	9.093	155.2	0.603405872	0.745304451	0.012307373	0.126972903	0.039134282
2019-10-05T16:00:00	0.2408	9.088	155.2	0.604816042	0.747375454	0.012360793	0.127524025	0.039304143
2019-10-05T16:05:00	0.2421	9.083	155.2	0.609107121	0.753687673	0.012524080	0.129208626	0.039823353
2019-10-05T16:10:00	0.2423	9.078	155.3	0.609734521	0.754611879	0.012548047	0.129455887	0.039899562
2019-10-05T16:15:00	0.2434	9.073	155.4	0.613354879	0.759951388	0.012686807	0.130887450	0.040340783
2019-10-05T16:20:00	0.2444	9.070	155.4	0.616639452	0.764805198	0.012813379	0.132193271	0.040743250
2019-10-05T16:25:00	0.2454	9.071	155.4	0.619920997	0.769663602	0.012940483	0.133504578	0.041147408
2019-10-05T16:30:00	0.2456	9.070	155.5	0.620546493	0.770590693	0.012964784	0.133755286	0.041224678
2019-10-05T16:35:00	0.2457	9.066	155.5	0.620840169	0.771026084	0.012976202	0.133873080	0.041260983
2019-10-05T16:40:00	0.2459	9.060	155.5	0.621797155	0.772445375	0.013013444	0.134257300	0.041379404
2019-10-05T16:45:00	0.2442	9.058	155.6	0.616116770	0.764032192	0.012793194	0.131985024	0.040679066
2019-10-05T16:50:00	0.2459	9.057	155.6	0.621721053	0.772332481	0.013010480	0.134226725	0.041369980
2019-10-05T16:55:00	0.2477	9.054	155.7	0.627647651	0.781138960	0.013242324	0.136618617	0.042107184
2019-10-05T17:00:00	0.2464	9.051	155.7	0.623302815	0.774679959	0.013072150	0.134862961	0.041566074
2019-10-05T17:05:00	0.2473	9.050	155.7	0.626247029	0.779055064	0.013187341	0.136051370	0.041932354
2019-10-05T17:10:00	0.2494	9.048	155.8	0.633158019	0.789353588	0.013459791	0.138862178	0.042798672
2019-10-05T17:15:00	0.2494	9.045	155.8	0.633120089	0.789296956	0.013458287	0.138846670	0.042793892
2019-10-05T17:20:00	0.2516	9.042	155.8	0.640347778	0.800110467	0.013746301	0.141818058	0.043709703
2019-10-05T17:25:00	0.2516	9.038	155.9	0.640639833	0.800548350	0.013758006	0.141938814	0.043746921
2019-10-05T17:30:00	0.2520	9.034	155.9	0.641921332	0.802470575	0.013809426	0.142469303	0.043910423
2019-10-05T17:35:00	0.2519	9.030	155.9	0.641553699	0.801918990	0.013794665	0.142317013	0.043863485
2019-10-05T17:40:00	0.2529	9.024	156.0	0.644812486	0.806812382	0.013925800	0.143669912	0.044280462
2019-10-05T17:45:00	0.2532	9.022	156.1	0.645763089	0.808241508	0.013964175	0.144065815	0.044402483
2019-10-05T17:50:00	0.2555	9.018	156.1	0.653294181	0.819590881	0.014270142	0.147222421	0.045375380
2019-10-05T17:55:00	0.2544	9.013	156.1	0.649638505	0.814075731	0.014121190	0.145685711	0.044901751
2019-10-05T18:00:00	0.2566	9.011	156.2	0.656833117	0.824940776	0.014415115	0.148718083	0.045836357
2019-10-05T18:05:00	0.2566	9.012	156.3	0.657123840	0.825380744	0.014427058	0.148841302	0.045874335
2019-10-05T18:10:00	0.2553	9.008	156.3	0.652814541	0.818866620	0.014250552	0.147020319	0.045313090
2019-10-05T18:15:00	0.2539	9.005	156.3	0.648170900	0.811864829	0.014061621	0.145071152	0.044712338
2019-10-05T18:20:00	0.2547	8.999	156.3	0.650765829	0.815775259	0.014167036	0.146158699	0.045047531
2019-10-05T18:25:00	0.2561	8.994	156.3	0.655330740	0.822668290	0.014353476	0.148082168	0.045640362
2019-10-05T18:30:00	0.2564	8.989	156.3	0.656278574	0.824101754	0.014392347	0.148483194	0.045763962
2019-10-05T18:35:00	0.2561	8.986	156.4	0.655255347	0.822554301	0.014350387	0.148050293	0.045630538
2019-10-05T18:40:00	0.2563	8.982	156.4	0.655874713	0.823490877	0.014375778	0.148312252	0.045711276
2019-10-05T18:45:00	0.2568	8.976	156.3	0.657479177	0.825918595	0.014441663	0.148991980	0.045920775
2019-10-05T18:50:00	0.2575	8.969	156.3	0.660067426	0.829839520	0.014548279	0.150091913	0.046259785
2019-10-05T18:55:00	0.2566	8.960	156.3	0.657075449	0.825307507	0.014425070	0.148820789	0.045868012
2019-10-05T19:00:00	0.2568	8.955	156.3	0.657694504	0.826244575	0.014450518	0.149083327	0.045948929
2019-10-05T19:05:00	0.2582	8.952	156.2	0.662250676	0.833151370	0.014638531	0.151023025	0.046546763
2019-10-05T19:10:00	0.2605	8.949	156.1	0.669747536	0.844554720	0.014950665	0.154243257	0.047539270
2019-10-05T19:15:00	0.2597	8.945	156.0	0.667091046	0.840508463	0.014839666	0.153098103	0.047186322
2019-10-05T19:20:00	0.2613	8.942	156.1	0.672289524	0.848432246	0.015057286	0.155343245	0.047878297
2019-10-05T19:25:00	0.2611	8.938	156.0	0.671597902	0.847376703	0.015028237	0.155043555	0.047785930
2019-10-05T19:30:00	0.2609	8.934	156.0	0.670906149	0.846321370	0.014999213	0.154744112	0.047693638
2019-10-05T19:35:00	0.2619	8.930	156.1	0.674465434	0.851755772	0.015148868	0.156288082	0.048169505
2019-10-05T19:40:00	0.2622	8.928	156.0	0.675408279	0.853197157	0.015188643	0.156698425	0.048295976
2019-10-05T19:45:00	0.2645	8.925	156.0	0.682878085	0.864643759	0.015505697	0.159969421	0.049304129
2019-10-05T19:50:00	0.2640	8.924	156.0	0.681209951	0.862083367	0.015434595	0.159235868	0.049078041
2019-10-05T19:55:00	0.2633	8.922	156.1	0.678888261	0.858523838	0.015335921	0.158217871	0.048764284
2019-10-05T20:00:00	0.2641	8.920	156.1	0.681461302	0.862469008	0.015445297	0.159346285	0.049112073
2019-10-05T20:05:00	0.2643	8.918	156.2	0.682076214	0.863412680	0.015471497	0.159616581	0.049195380
2019-10-05T20:10:00	0.2630	8.914	156.1	0.677796464	0.856851541	0.015289634	0.157740336	0.048617103
2019-10-05T20:15:00	0.2627	8.911	156.1	0.676779289	0.855294467	0.015246577	0.157296121	0.048480192
2019-10-05T20:20:00	0.2629	8.910	156.2	0.677721535	0.856736812	0.015286460	0.157707591	0.048607011
2019-10-05T20:25:00	0.2619	8.907	156.2	0.674417274	0.851682169	0.015146838	0.156267138	0.048163049
2019-10-05T20:30:00	0.2615	8.903	156.2	0.673072222	0.849627286	0.015090196	0.155682767	0.047982941
2019-10-05T20:35:00	0.2641	8.898	156.3	0.681525513	0.862567535	0.015448032	0.159374499	0.049120768
2019-10-05T20:40:00	0.2639	8.895	156.3	0.680835644	0.861509180	0.015418664	0.159071513	0.049027385
2019-10-05T20:45:00	0.2634	8.892	156.3	0.679166575	0.858950294	0.015347732	0.158339723	0.048801840
2019-10-05T20:50:00	0.2613	8.889	156.3	0.672268189	0.848399679	0.015056390	0.155333996	0.047875446
2019-10-05T20:55:00	0.2632	8.888	156.4	0.678438802	0.857835282	0.015316857	0.158021193	0.048703666
2019-10-05T21:00:00	0.2613	8.884	156.3	0.672520158	0.848784329	0.015066980	0.155443250	0.047909119
2019-10-05T21:05:00	0.2622	8.879	156.4	0.675424451	0.853221887	0.015189325	0.156705468	0.048298147
2019-10-05T21:10:00	0.2637	8.875	156.4	0.680284756	0.860664336	0.015395233	0.158829784	0.048952882
2019-10-05T21:15:00	0.2639	8.870	156.4	0.680899866	0.861607688	0.015421397	0.159099706	0.049036075
2019-10-05T21:20:00	0.2638	8.865	156.4	0.680536171	0.861049875	0.015405924	0.158940081	0.048986876
2019-10-05T21:25:00	0.2641	8.861	156.5	0.681477447	0.862493781	0.015445985	0.159353379	0.049114259
2019-10-05T21:30:00	0.2645	8.857	156.5	0.682744576	0.864438748	0.015500000	0.159910646	0.049286014
2019-10-05T21:35:00	0.2639	8.854	156.6	0.680750136	0.861378027	0.015415026	0.159033979	0.049015817
2019-10-05T21:40:00	0.2643	8.851	156.6	0.682017516	0.863322586	0.015468995	0.159590769	0.049187425
2019-10-05T21:45:00	0.2632	8.847	156.6	0.678717151	0.858261682	0.015328662	0.158142980	0.048741202
2019-10-05T21:50:00	0.2647	8.843	156.7	0.683573070	0.865711188	0.015535371	0.160275561	0.049398484
2019-10-05T21:55:00	0.2644	8.840	156.7	0.682557506	0.864151520	0.015492020	0.159828310	0.049260637
2019-10-05T22:00:00	0.2633	8.836	156.7	0.678931222	0.858589662	0.015337744	0.158236677	0.048770081
2019-10-05T22:05:00	0.2622	8.832	156.7	0.675387999	0.853166145	0.015187786	0.156689593	0.048293254
2019-10-05T22:10:00	0.2615	8.828	156.7	0.673149320	0.849745029	0.015093439	0.155716232	0.047993255
2019-10-05T22:15:00	0.2635	8.825	156.8	0.679405018	0.859315709	0.015357855	0.158444158	0.048834028
2019-10-05T22:20:00	0.2630	8.820	156.8	0.677821908	0.856890503	0.015290712	0.157751456	0.048620531
2019-10-05T22:25:00	0.2639	8.816	156.9	0.680808521	0.861467578	0.015417510	0.159059607	0.049023716
2019-10-05T22:30:00	0.2635	8.811	156.9	0.679552401	0.859541599	0.015364114	0.158508728	0.048853929
2019-10-05T22:35:00	0.2632	8.807	156.9	0.678622312	0.858116392	0.015324639	0.158101479	0.048728411
2019-10-05T22:40:00	0.2642	8.803	156.9	0.681934437	0.863195074	0.015465454	0.159554239	0.049176166
2019-10-05T22:45:00	0.2628	8.799	156.9	0.677414594	0.856266877	0.015273462	0.157573491	0.048565680
2019-10-05T22:50:00	0.2644	8.796	156.9	0.682358754	0.863846389	0.015483543	0.159740858	0.049233684
2019-10-05T22:55:00	0.2648	8.790	157.0	0.683712052	0.865924699	0.015541309	0.160336819	0.049417365
2019-10-05T23:00:00	0.2639	8.786	157.0	0.680826037	0.861494443	0.015418255	0.159067295	0.049026085
2019-10-05T23:05:00	0.2633	8.785	157.1	0.678917136	0.858568080	0.015337146	0.158230511	0.048768180
2019-10-05T23:10:00	0.2624	8.781	157.1	0.676027321	0.854143940	0.015214787	0.156968151	0.048379108
2019-10-05T23:15:00	0.2642	8.777	157.1	0.681951947	0.863221948	0.015466200	0.159561938	0.049178539
2019-10-05T23:20:00	0.2655	8.774	157.2	0.685912706	0.869307704	0.015635487	0.161308433	0.049716826
2019-10-05T23:25:00	0.2645	8.770	157.2	0.682702361	0.864373929	0.015498199	0.159892064	0.049280287
2019-10-05T23:30:00	0.2636	8.767	157.2	0.679815547	0.859944962	0.015375292	0.158624048	0.048889472
2019-10-05T23:35:00	0.2616	8.764	157.2	0.673332060	0.850024127	0.015101129	0.155795566	0.048017707
2019-10-05T23:40:00	0.2643	8.762	157.3	0.682197411	0.863598713	0.015476663	0.159669884	0.049211809
2019-10-05T23:45:00	0.2612	8.759	157.3	0.672122585	0.848177429	0.015050272	0.155270881	0.047855993
2019-10-05T23:50:00	0.2618	8.756	157.3	0.674133451	0.851248433	0.015134877	0.156143732	0.048125015
2019-10-05T23:55:00	0.2626	8.752	157.3	0.676469863	0.854820980	0.015233491	0.157161122	0.048438584
2019-10-06T00:00:00	0.2622	8.750	157.4	0.675212246	0.852897407	0.015180368	0.156613062	0.048269667
2019-10-06T00:05:00	0.2607	8.747	157.4	0.670356869	0.845483686	0.014976187	0.154506559	0.047620422
2019-10-06T00:10:00	0.2618	8.744	157.4	0.674003397	0.851049708	0.015129397	0.156087202	0.048107592
2019-10-06T00:15:00	0.2607	8.741	157.5	0.670455370	0.845633886	0.014980315	0.154549145	0.047633547
2019-10-06T00:20:00	0.2627	8.739	157.4	0.677042302	0.855696997	0.015257704	0.157410920	0.048515574
2019-10-06T00:25:00	0.2605	8.736	157.4	0.669899462	0.844786310	0.014957026	0.154308885	0.047559497
2019-10-06T00:30:00	0.2602	8.732	157.5	0.668639570	0.842866375	0.014904317	0.153765093	0.047391895
2019-10-06T00:35:00	0.2604	8.729	157.5	0.669343468	0.843938870	0.014933754	0.154068784	0.047485496
2019-10-06T00:40:00	0.2589	8.727	157.5	0.664480234	0.836537679	0.014730999	0.151976999	0.046840787
2019-10-06T00:45:00	0.2624	8.724	157.6	0.675981588	0.854073982	0.015212854	0.156948215	0.048372964
2019-10-06T00:50:00	0.2613	8.722	157.6	0.672435491	0.848655073	0.015063421	0.155406534	0.047897803
2019-10-06T00:55:00	0.2597	8.721	157.6	0.667248944	0.840748797	0.014846252	0.153166044	0.047207262
2019-10-06T01:00:00	0.2606	8.718	157.6	0.669917030	0.844813092	0.014957762	0.154316474	0.047561836
2019-10-06T01:05:00	0.2599	8.715	157.7	0.667674977	0.841397363	0.014864028	0.153349439	0.047263786
2019-10-06T01:10:00	0.2603	8.713	157.7	0.669033743	0.843466905	0.014920797	0.153935117	0.047444298
2019-10-06T01:15:00	0.2614	8.712	157.7	0.672681598	0.849030807	0.015073767	0.155513272	0.047930701
2019-10-06T01:20:00	0.2621	8.711	157.7	0.675018942	0.852601861	0.015172212	0.156528910	0.048243730
2019-10-06T01:25:00	0.2627	8.710	157.8	0.677028208	0.855675426	0.015257108	0.157404767	0.048513678
2019-10-06T01:30:00	0.2607	8.708	157.8	0.670539749	0.845762560	0.014983851	0.154585630	0.047644792
2019-10-06T01:35:00	0.2617	8.708	157.8	0.673532341	0.850330050	0.015109560	0.155882540	0.048044513
2019-10-06T01:40:00	0.2597	8.706	157.8	0.667037633	0.840427169	0.014837439	0.153075124	0.047179240
2019-10-06T01:45:00	0.2582	8.705	157.9	0.662171303	0.833030895	0.014635245	0.150989121	0.046536314
2019-10-06T01:50:00	0.2610	8.704	157.8	0.671390994	0.847061002	0.015019553	0.154953958	0.047758315
2019-10-06T01:55:00	0.2615	8.703	158.0	0.673075333	0.849632036	0.015090327	0.155684117	0.047983357
2019-10-06T02:00:00	0.2597	8.701	158.0	0.667234812	0.840727287	0.014845662	0.153159963	0.047205388
2019-10-06T02:05:00	0.2601	8.701	158.0	0.668593743	0.842796566	0.014902402	0.153745333	0.047385805
2019-10-06T02:10:00	0.2606	8.699	158.0	0.669952165	0.844866655	0.014959234	0.154331654	0.047566515
2019-10-06T02:15:00	0.2599	8.698	158.0	0.667710134	0.841450892	0.014865496	0.153364579	0.047268453
2019-10-06T02:20:00	0.2581	8.698	158.1	0.661860965	0.832559904	0.014622399	0.150856600	0.046495469
2019-10-06T02:25:00	0.2595	8.696	158.1	0.666498786	0.839607182	0.014814979	0.152843403	0.047107821
2019-10-06T02:30:00	0.2593	8.694	158.1	0.665892960	0.838685568	0.014789748	0.152583099	0.047027593
2019-10-06T02:35:00	0.2575	8.693	158.2	0.660040854	0.829799237	0.014547182	0.150080599	0.046256298
2019-10-06T02:40:00	0.2602	8.691	158.2	0.668611317	0.842823337	0.014903136	0.153752911	0.047388140
2019-10-06T02:45:00	0.2571	8.690	158.2	0.658498689	0.827462365	0.014483610	0.149424739	0.046054156
2019-10-06T02:50:00	0.2580	8.687	158.2	0.661501229	0.832014046	0.014607517	0.150703061	0.046448147
2019-10-06T02:55:00	0.2575	8.685	158.2	0.659910293	0.829601317	0.014541795	0.150025015	0.046239167
2019-10-06T03:00:00	0.2581	8.684	158.2	0.661927938	0.832661540	0.014625171	0.150885194	0.046504282
2019-10-06T03:05:00	0.2580	8.681	158.3	0.661649340	0.832238775	0.014613644	0.150766267	0.046467628
2019-10-06T03:10:00	0.2565	8.676	158.3	0.656775758	0.824853980	0.014412759	0.148693778	0.045828866
2019-10-06T03:15:00	0.2558	8.670	158.3	0.654196912	0.820954546	0.014307050	0.147603192	0.045492737
2019-10-06T03:20:00	0.2553	8.665	158.3	0.652602758	0.818546889	0.014241907	0.146931127	0.045285600
2019-10-06T03:25:00	0.2537	8.657	158.3	0.647387682	0.810685686	0.014029885	0.144743734	0.044611424
2019-10-06T03:30:00	0.2535	8.648	158.2	0.646778643	0.809769133	0.014005232	0.144489397	0.044533035
2019-10-06T03:35:00	0.2528	8.640	158.2	0.644522187	0.806376103	0.013914092	0.143549123	0.044243234
2019-10-06T03:40:00	0.2546	8.632	158.2	0.650498517	0.815372167	0.014156158	0.146046471	0.045012941
2019-10-06T03:45:00	0.2535	8.625	158.2	0.646927360	0.809992910	0.014011250	0.144551480	0.044552170
2019-10-06T03:50:00	0.2555	8.617	158.2	0.653228463	0.819491634	0.014267457	0.147194722	0.045366843
2019-10-06T03:55:00	0.2546	8.610	158.2	0.650318087	0.815100123	0.014148818	0.145970746	0.044989601
2019-10-06T04:00:00	0.2549	8.605	158.2	0.651354488	0.816663136	0.014191007	0.146405998	0.045123751
2019-10-06T04:05:00	0.2536	8.598	158.1	0.647163421	0.810348155	0.014020804	0.144650054	0.044582552
2019-10-06T04:10:00	0.2524	8.591	158.2	0.643297137	0.804535811	0.013864741	0.143039979	0.044086311
2019-10-06T04:15:00	0.2537	8.584	158.2	0.647338117	0.810611083	0.014027878	0.144723026	0.044605042
2019-10-06T04:20:00	0.2559	8.576	158.2	0.654662188	0.821657662	0.014326092	0.147799646	0.045553286
2019-10-06T04:25:00	0.2577	8.565	158.2	0.660659401	0.830737105	0.014572721	0.150344081	0.046337506
2019-10-06T04:30:00	0.2556	8.556	158.1	0.653521895	0.819934801	0.014279447	0.147318423	0.045404969
2019-10-06T04:35:00	0.2558	8.545	158.1	0.654266447	0.821059614	0.014309894	0.147632543	0.045501784
2019-10-06T04:40:00	0.2577	8.532	158.0	0.660592405	0.830635506	0.014569954	0.150315531	0.046328706
2019-10-06T04:45:00	0.2573	8.521	158.1	0.659366928	0.828777773	0.014519384	0.149793803	0.046167905
2019-10-06T04:50:00	0.2565	8.511	158.0	0.656499181	0.824435500	0.014401402	0.148576614	0.045792755
2019-10-06T04:55:00	0.2585	8.500	158.0	0.663149095	0.834515400	0.014675755	0.151407058	0.046665126
2019-10-06T05:00:00	0.2571	8.486	158.0	0.658643466	0.827681661	0.014489572	0.149486246	0.046073113
2019-10-06T05:05:00	0.2583	8.472	157.9	0.662667307	0.833783836	0.014655787	0.151201052	0.046601633
2019-10-06T05:10:00	0.2581	8.459	157.9	0.661770514	0.832422645	0.014618657	0.150817987	0.046483568
2019-10-06T05:15:00	0.2608	8.446	157.8	0.670701610	0.846009406	0.014990636	0.154655631	0.047666367
2019-10-06T05:20:00	0.2606	8.436	157.8	0.670134028	0.845143914	0.014966851	0.154410239	0.047590735
2019-10-06T05:25:00	0.2602	8.426	157.8	0.668911773	0.843281067	0.014915697	0.153882496	0.047428080
2019-10-06T05:30:00	0.2606	8.416	157.8	0.669980407	0.844909709	0.014960416	0.154343857	0.047570276
2019-10-06T05:35:00	0.2615	8.404	157.8	0.673010972	0.849533749	0.015087619	0.155656184	0.047974748
2019-10-06T05:40:00	0.2615	8.394	157.7	0.673097699	0.849666194	0.015091268	0.155693825	0.047986349
2019-10-06T05:45:00	0.2627	8.384	157.5	0.676778956	0.855293957	0.015246563	0.157295976	0.048480148
2019-10-06T05:50:00	0.2636	8.374	157.7	0.679803867	0.859927056	0.015374795	0.158618929	0.048887894
2019-10-06T05:55:00	0.2689	8.363	157.7	0.697145412	0.886640680	0.016120873	0.166316070	0.051260228
2019-10-06T06:00:00	0.2735	8.355	157.7	0.712141750	0.909951914	0.016781137	0.173127897	0.053359699
2019-10-06T06:05:00	0.2744	8.348	157.6	0.714814426	0.914127047	0.016900287	0.174357143	0.053738565
2019-10-06T06:10:00	0.2762	8.346	157.6	0.720713884	0.923364997	0.017164875	0.177086849	0.054579887
2019-10-06T06:15:00	0.2765	8.343	157.5	0.721767534	0.925018108	0.017212361	0.177576752	0.054730880
2019-10-06T06:20:00	0.2785	8.339	157.4	0.728300139	0.935289057	0.017508331	0.180630227	0.055671990
2019-10-06T06:25:00	0.2792	8.331	157.3	0.730317453	0.938468358	0.017600273	0.181578768	0.055964340
2019-10-06T06:30:00	0.2820	8.324	157.2	0.739404847	0.952834484	0.018017629	0.185884556	0.057291425
2019-10-06T06:35:00	0.2822	8.318	157.2	0.740132180	0.953987454	0.018051259	0.186231511	0.057398360
2019-10-06T06:40:00	0.2856	8.314	157.2	0.751116883	0.971457165	0.018563249	0.191513613	0.059026356
2019-10-06T06:45:00	0.2849	8.311	157.2	0.748640109	0.967508882	0.018447138	0.190315722	0.058657154
2019-10-06T06:50:00	0.2840	8.312	157.2	0.745841150	0.963053521	0.018316393	0.188966852	0.058241419
2019-10-06T06:55:00	0.2854	8.310	157.1	0.750411229	0.970331713	0.018530128	0.191171913	0.058921040
2019-10-06T07:00:00	0.2857	8.310	157.1	0.751456518	0.971999008	0.018579201	0.191678192	0.059077080
2019-10-06T07:05:00	0.2882	8.310	157.0	0.759215310	0.984404944	0.018945631	0.195458579	0.060242232
2019-10-06T07:10:00	0.2882	8.305	157.0	0.759300039	0.984540716	0.018949653	0.195500081	0.060255024
2019-10-06T07:15:00	0.2897	8.302	157.0	0.764172789	0.992359660	0.019181775	0.197894835	0.060993110
2019-10-06T07:20:00	0.2891	8.299	157.0	0.762023803	0.988908743	0.019079217	0.196836766	0.060667003
2019-10-06T07:25:00	0.2876	8.296	156.9	0.757317817	0.981366018	0.018855662	0.194530384	0.059956154
2019-10-06T07:30:00	0.2878	8.294	156.9	0.758041681	0.982524944	0.018889956	0.194884196	0.060065202
2019-10-06T07:35:00	0.2879	8.292	156.9	0.758445934	0.983172367	0.018909123	0.195081938	0.060126148
2019-10-06T07:40:00	0.2873	8.288	157.0	0.756293674	0.979727130	0.018807198	0.194030391	0.059802051
2019-10-06T07:45:00	0.2886	8.286	156.9	0.760531756	0.986515172	0.019008185	0.196103939	0.060441138
2019-10-06T07:50:00	0.2891	8.286	157.0	0.762212618	0.989211783	0.019088216	0.196929608	0.060695618
2019-10-06T07:55:00	0.2901	8.287	157.0	0.765487504	0.994472898	0.019244664	0.198543650	0.061193081
2019-10-06T08:00:00	0.2895	8.290	157.1	0.763339268	0.991020675	0.019141961	0.197484083	0.060866512
2019-10-06T08:05:00	0.2896	8.294	157.1	0.763742953	0.991669085	0.019161238	0.197682958	0.060927807
2019-10-06T08:10:00	0.2904	8.300	157.2	0.766378940	0.995906642	0.019287369	0.198984226	0.061328871
2019-10-06T08:15:00	0.2888	8.307	157.2	0.761359173	0.987842287	0.019047558	0.196510148	0.060566336
2019-10-06T08:20:00	0.2877	8.316	157.3	0.757611143	0.981835586	0.018869554	0.194673715	0.060000330
2019-10-06T08:25:00	0.2897	8.332	157.4	0.764081450	0.992212900	0.019177410	0.197849801	0.060979230
2019-10-06T08:30:00	0.2886	8.344	157.5	0.760655441	0.986713515	0.019014068	0.196164631	0.060459844
2019-10-06T08:35:00	0.2889	8.356	157.5	0.761378662	0.987873553	0.019048486	0.196519721	0.060569287
2019-10-06T08:40:00	0.2901	8.372	157.7	0.765292136	0.994158771	0.019235311	0.198447163	0.061163343
2019-10-06T08:45:00	0.2909	8.385	157.7	0.767927041	0.998398215	0.019361652	0.199750595	0.061565073
2019-10-06T08:50:00	0.2895	8.389	157.8	0.763547494	0.991355116	0.019151903	0.197586652	0.060898125
2019-10-06T08:55:00	0.2914	8.394	157.9	0.769370559	1.000723389	0.019431056	0.200466622	0.061785760
2019-10-06T09:00:00	0.2917	8.404	158.0	0.770410597	1.002399798	0.019481143	0.200983366	0.061945025
2019-10-06T09:05:00	0.2920	8.410	158.1	0.771450348	1.004076709	0.019531287	0.201500684	0.062104468
2019-10-06T09:10:00	0.2904	8.415	158.2	0.766437329	0.996000577	0.019290167	0.199013102	0.061337771
2019-10-06T09:15:00	0.2924	8.427	158.2	0.772574245	1.005890412	0.019585566	0.202060674	0.062277062
2019-10-06T09:20:00	0.2889	8.437	158.3	0.761502319	0.988071944	0.019054374	0.196580469	0.060588010
2019-10-06T09:25:00	0.2917	8.449	158.5	0.770514516	1.002567356	0.019486152	0.201035038	0.061960951
2019-10-06T09:30:00	0.2884	8.469	158.6	0.760075281	0.985783280	0.018986482	0.195880032	0.060372128
2019-10-06T09:35:00	0.2909	8.485	158.7	0.767816337	0.998219972	0.019356335	0.199695739	0.061548166
2019-10-06T09:40:00	0.2909	8.500	158.8	0.767900872	0.998356080	0.019360395	0.199737627	0.061561077
2019-10-06T09:45:00	0.2911	8.511	159.0	0.768622705	0.999518538	0.019395083	0.200095492	0.061671374
2019-10-06T09:50:00	0.2916	8.518	159.1	0.769981470	1.001707984	0.019460469	0.200770067	0.061879284
2019-10-06T09:55:00	0.2913	8.522	159.2	0.769110334	1.000304089	0.019418534	0.200337440	0.061745945
2019-10-06T10:00:00	0.2908	8.529	159.2	0.767601632	0.997874312	0.019346025	0.199589373	0.061515383
2019-10-06T10:05:00	0.2905	8.535	159.3	0.766727094	0.996466788	0.019304061	0.199156437	0.061381948
2019-10-06T10:10:00	0.2899	8.543	159.4	0.764576710	0.993008748	0.019201085	0.198094049	0.061054510
2019-10-06T10:15:00	0.2916	8.551	159.6	0.770076852	1.001861739	0.019465063	0.200817466	0.061893893
2019-10-06T10:20:00	0.2904	8.555	159.6	0.766334634	0.995835365	0.019285245	0.198962315	0.061322118
2019-10-06T10:25:00	0.2904	8.556	159.7	0.766416350	0.995966826	0.019289162	0.199002726	0.061334573
2019-10-06T10:30:00	0.2916	8.552	159.8	0.770003260	1.001743108	0.019461518	0.200780894	0.061882622
2019-10-06T10:35:00	0.2896	8.557	159.9	0.763709528	0.991615392	0.019159641	0.197666487	0.060922731
2019-10-06T10:40:00	0.2903	8.569	160.0	0.766023857	0.995335459	0.019270352	0.198808669	0.061274763
2019-10-06T10:45:00	0.2899	8.587	160.2	0.764830023	0.993415889	0.019213200	0.198219039	0.061093033
2019-10-06T10:50:00	0.2893	8.593	160.3	0.762678557	0.989959735	0.019110433	0.197158815	0.060766262
2019-10-06T10:55:00	0.2897	8.593	160.3	0.764036610	0.992140856	0.019175267	0.197827696	0.060972417
2019-10-06T11:00:00	0.2890	8.600	160.5	0.761884690	0.988685491	0.019072588	0.196768377	0.060645925
2019-10-06T11:05:00	0.2891	8.613	160.6	0.762285675	0.989329046	0.019091699	0.196965537	0.060706691
2019-10-06T11:10:00	0.2869	8.629	160.7	0.755019821	0.977689940	0.018747011	0.193409452	0.059610671
2019-10-06T11:15:00	0.2887	8.648	160.9	0.760853220	0.987030703	0.019023477	0.196261703	0.060489763
2019-10-06T11:20:00	0.2872	8.665	161.1	0.756142907	0.979485943	0.018800069	0.193956844	0.059779383
2019-10-06T11:25:00	0.2871	8.674	161.2	0.755905158	0.979105649	0.018788830	0.193840896	0.059743647
2019-10-06T11:30:00	0.2856	8.684	161.3	0.750868518	0.971060995	0.018551588	0.191393310	0.058989277
2019-10-06T11:35:00	0.2862	8.698	161.5	0.752870816	0.974256430	0.018645709	0.192364340	0.059288558
2019-10-06T11:40:00	0.2866	8.717	161.6	0.754232414	0.976431409	0.018709859	0.193026165	0.059492539
2019-10-06T11:45:00	0.2857	8.732	161.7	0.751434766	0.971964303	0.018578179	0.191667649	0.059073831
2019-10-06T11:50:00	0.2853	8.747	161.9	0.749916093	0.969542281	0.018506907	0.190932348	0.058847204
2019-10-06T11:55:00	0.2850	8.758	162.1	0.749037431	0.968141898	0.018465738	0.190507616	0.058716297
2019-10-06T12:00:00	0.2861	8.766	162.2	0.752640941	0.973889397	0.018634890	0.192252727	0.059254158
2019-10-06T12:05:00	0.2856	8.771	162.3	0.751122756	0.971466534	0.018563524	0.191516459	0.059027233
2019-10-06T12:10:00	0.2863	8.776	162.4	0.753124919	0.974662202	0.018657672	0.192487758	0.059326597
2019-10-06T12:15:00	0.2853	8.782	162.5	0.750006255	0.969686016	0.018511134	0.190975960	0.058860646
2019-10-06T12:20:00	0.2846	8.786	162.6	0.747846281	0.966244570	0.018410006	0.189932640	0.058539084
2019-10-06T12:25:00	0.2838	8.796	162.7	0.745364473	0.962295440	0.018294176	0.188737645	0.058170775
2019-10-06T12:30:00	0.2828	8.807	162.8	0.741918454	0.956821037	0.018133994	0.187085075	0.057661437
2019-10-06T12:35:00	0.2829	8.815	163.0	0.742321578	0.957460907	0.018152694	0.187277996	0.057720897
2019-10-06T12:40:00	0.2825	8.821	163.0	0.741120180	0.955554381	0.018096995	0.186703365	0.057543790
2019-10-06T12:45:00	0.2820	8.827	163.2	0.739597313	0.953139537	0.018026525	0.185976333	0.057319712
2019-10-06T12:50:00	0.2824	8.830	163.3	0.740642756	0.954797098	0.018074887	0.186475275	0.057473491
2019-10-06T12:55:00	0.2809	8.836	163.4	0.735906941	0.947296101	0.017856362	0.184220799	0.056778639
2019-10-06T13:00:00	0.2808	8.842	163.5	0.735667903	0.946918014	0.017845370	0.184107394	0.056743687
2019-10-06T13:05:00	0.2808	8.850	174.7	0.735428849	0.946539954	0.017834381	0.183994018	0.056708743
2019-10-06T13:10:00	0.2809	8.854	174.8	0.735832676	0.947178630	0.017852947	0.184185562	0.056767779
2019-10-06T13:15:00	0.2820	8.861	174.9	0.739448927	0.952904347	0.018019666	0.185905573	0.057297903
2019-10-06T13:20:00	0.2799	8.864	175.0	0.732781995	0.942357343	0.017712946	0.182741194	0.056322611
2019-10-06T13:25:00	0.2788	8.871	164.0	0.729002326	0.936395304	0.017540305	0.180960095	0.055773659
2019-10-06T13:30:00	0.2803	8.878	175.2	0.733911778	0.944141895	0.017764725	0.183275390	0.056487255
2019-10-06T13:35:00	0.2793	8.884	175.2	0.730777027	0.939193150	0.017621254	0.181795231	0.056031056
2019-10-06T13:40:00	0.2793	8.895	164.3	0.730859523	0.939323273	0.017625022	0.181834101	0.056043036
2019-10-06T13:45:00	0.2801	8.903	164.3	0.733194233	0.943008364	0.017731829	0.182936016	0.056382657
2019-10-06T13:50:00	0.2790	8.908	164.4	0.729736944	0.937553106	0.017573789	0.181305541	0.055880129
2019-10-06T13:55:00	0.2782	8.912	164.5	0.727243052	0.933624505	0.017460256	0.180134241	0.055519123
2019-10-06T14:00:00	0.2788	8.914	164.6	0.729258058	0.936798300	0.017551958	0.181080310	0.055810710
2019-10-06T14:05:00	0.2778	8.915	164.6	0.725797105	0.931349220	0.017394610	0.179456980	0.055310384
2019-10-06T14:10:00	0.2779	8.919	164.8	0.726201979	0.931986129	0.017412978	0.179646480	0.055368790
2019-10-06T14:15:00	0.2785	8.921	164.8	0.728217550	0.935158972	0.017504573	0.180591450	0.055660039
2019-10-06T14:20:00	0.2792	8.920	164.9	0.730553919	0.938841264	0.017611067	0.181690128	0.055998662
2019-10-06T14:25:00	0.2780	8.922	164.9	0.726449765	0.932375993	0.017424224	0.179762509	0.055404551
2019-10-06T14:30:00	0.2780	8.921	164.9	0.726532357	0.932505954	0.017427974	0.179801192	0.055416474
2019-10-06T14:35:00	0.2789	8.923	165.0	0.729513773	0.937201325	0.017563613	0.181200560	0.055847773
2019-10-06T14:40:00	0.2793	8.922	165.1	0.730883910	0.939361741	0.017626136	0.181845593	0.056046578
2019-10-06T14:45:00	0.2793	8.924	165.1	0.730644549	0.938984200	0.017615205	0.181732819	0.056011820
2019-10-06T14:50:00	0.2794	8.925	165.2	0.731048895	0.939621998	0.017633672	0.181923347	0.056070542
2019-10-06T14:55:00	0.2771	8.926	165.2	0.723722000	0.928087117	0.017300629	0.178487404	0.055011551
2019-10-06T15:00:00	0.2782	8.928	165.3	0.727350036	0.933792925	0.017465118	0.180184406	0.055534584
2019-10-06T15:05:00	0.2765	8.931	165.3	0.721629435	0.924801384	0.017206133	0.177512501	0.054711077
2019-10-06T15:10:00	0.2762	8.933	165.4	0.720744077	0.923412354	0.017166235	0.177100878	0.054584211
2019-10-06T15:15:00	0.2754	8.934	165.4	0.718244129	0.919493912	0.017053842	0.175941339	0.054226829
2019-10-06T15:20:00	0.2758	8.935	165.5	0.719618433	0.921647333	0.017115579	0.176578275	0.054423139
2019-10-06T15:25:00	0.2737	8.933	165.5	0.712592337	0.910655363	0.016801193	0.173334812	0.053423472
2019-10-06T15:30:00	0.2759	8.935	165.5	0.719783920	0.921906748	0.017123021	0.176655054	0.054446803
2019-10-06T15:35:00	0.2752	8.935	165.6	0.717606339	0.918495108	0.017025230	0.175646164	0.054135854
2019-10-06T15:40:00	0.2754	8.933	165.6	0.718335060	0.919636343	0.017057923	0.175983444	0.054239807
2019-10-06T15:45:00	0.2749	8.928	165.6	0.716479741	0.916731681	0.016974754	0.175125409	0.053975352
2019-10-06T15:50:00	0.2768	8.924	165.6	0.722696233	0.926475985	0.017254273	0.178009155	0.054864150
2019-10-06T15:55:00	0.2749	8.918	165.6	0.716645368	0.916990861	0.016982170	0.175201916	0.053998932
2019-10-06T16:00:00	0.2757	8.911	165.6	0.719311902	0.921166881	0.017101799	0.176436104	0.054379321
2019-10-06T16:05:00	0.2755	8.902	165.6	0.718620423	0.920083369	0.017070734	0.176115615	0.054280543
2019-10-06T16:10:00	0.2751	8.891	165.6	0.717282811	0.917988587	0.017010727	0.175496534	0.054089736
2019-10-06T16:15:00	0.2769	8.883	165.6	0.723047125	0.927027013	0.017270123	0.178172676	0.054914549
2019-10-06T16:20:00	0.2762	8.873	165.6	0.720743053	0.923410749	0.017166189	0.177100402	0.054584064
2019-10-06T16:25:00	0.2759	8.862	165.6	0.719729039	0.921820715	0.017120553	0.176629589	0.054438955
2019-10-06T16:30:00	0.2766	8.852	165.6	0.721942388	0.925292538	0.017220248	0.177658122	0.054755959
2019-10-06T16:35:00	0.2742	8.841	165.5	0.714468831	0.913586824	0.016884855	0.174197933	0.053689495
2019-10-06T16:40:00	0.2746	8.830	165.5	0.715715955	0.915536781	0.016940579	0.174772826	0.053866682
2019-10-06T16:45:00	0.2727	8.819	165.5	0.709524848	0.905869943	0.016664907	0.171928775	0.052990118
2019-10-06T16:50:00	0.2740	8.809	165.5	0.713684889	0.912361775	0.016849877	0.173837071	0.053578273
2019-10-06T16:55:00	0.2731	8.796	165.4	0.710727827	0.907745667	0.016718284	0.172479457	0.053159844
2019-10-06T17:00:00	0.2720	8.785	165.3	0.707120611	0.902124956	0.016558500	0.170830996	0.052651772
2019-10-06T17:05:00	0.2728	8.773	165.3	0.709665233	0.906088771	0.016671131	0.171992990	0.053009910
2019-10-06T17:10:00	0.2733	8.762	165.3	0.711237553	0.908540828	0.016740929	0.172713074	0.053231847
2019-10-06T17:15:00	0.2728	8.750	165.2	0.709897265	0.906450493	0.016681422	0.172099155	0.053042631
2019-10-06T17:20:00	0.2717	8.738	165.2	0.706289236	0.900831127	0.016521789	0.170452256	0.052535041
2019-10-06T17:25:00	0.2721	8.727	165.1	0.707539126	0.902776499	0.016576997	0.171021823	0.052710587
2019-10-06T17:30:00	0.2735	8.716	165.1	0.712024909	0.909769531	0.016775938	0.173074263	0.053343169
2019-10-06T17:35:00	0.2745	8.704	165.1	0.715212631	0.914749639	0.016918077	0.174540685	0.053795134
2019-10-06T17:40:00	0.2734	8.693	165.0	0.711609797	0.909121664	0.016757476	0.172883786	0.053284462
2019-10-06T17:45:00	0.2721	8.683	165.0	0.707355701	0.902490925	0.016568889	0.170938174	0.052684805
2019-10-06T17:50:00	0.2714	8.670	165.0	0.705365910	0.899394904	0.016481069	0.170032150	0.052405560
2019-10-06T17:55:00	0.2716	8.660	164.9	0.705968127	0.900331562	0.016507622	0.170306092	0.052489992
2019-10-06T18:00:00	0.2716	8.650	164.9	0.705922252	0.900260200	0.016505598	0.170285216	0.052483557
2019-10-06T18:05:00	0.2705	8.638	164.9	0.702310325	0.894647263	0.016346691	0.168645796	0.051978272
2019-10-06T18:10:00	0.2717	8.627	164.8	0.706154520	0.900621532	0.016515845	0.170390928	0.052516139
2019-10-06T18:15:00	0.2702	8.616	164.8	0.701245299	0.892994378	0.016299990	0.168163993	0.051829776
2019-10-06T18:20:00	0.2710	8.605	164.7	0.703793984	0.896951496	0.016411866	0.169318198	0.052185513
2019-10-06T18:25:00	0.2703	8.592	164.7	0.701802265	0.893858648	0.016324404	0.168415866	0.051907405
2019-10-06T18:30:00	0.2716	8.581	164.7	0.705971027	0.900336072	0.016507750	0.170307411	0.052490398
2019-10-06T18:35:00	0.2724	8.569	164.6	0.708516443	0.904298576	0.016620233	0.171467881	0.052848066
2019-10-06T18:40:00	0.2715	8.557	164.6	0.705555233	0.899689333	0.016489414	0.170118245	0.052432095
2019-10-06T18:45:00	0.2718	8.545	164.5	0.706481410	0.901130145	0.016530271	0.170539763	0.052562011
2019-10-06T18:50:00	0.2712	8.532	164.5	0.704491146	0.898034903	0.016442539	0.169634645	0.052283045
2019-10-06T18:55:00	0.2715	8.521	164.5	0.705417591	0.899475274	0.016483347	0.170055650	0.052412803
2019-10-06T19:00:00	0.2698	8.512	164.4	0.700182869	0.891346502	0.016253474	0.167684092	0.051681866
2019-10-06T19:05:00	0.2710	8.501	164.4	0.704029286	0.897317115	0.016422215	0.169424969	0.052218421
2019-10-06T19:10:00	0.2690	8.489	164.4	0.697493740	0.887179925	0.016136050	0.166472651	0.051308488
2019-10-06T19:15:00	0.2709	8.479	164.3	0.703613273	0.896670737	0.016403920	0.169236223	0.052160248
2019-10-06T19:20:00	0.2702	8.468	164.3	0.701297038	0.893074653	0.016302257	0.168187383	0.051836985
2019-10-06T19:25:00	0.2707	8.458	164.2	0.702872933	0.895520811	0.016371389	0.168900606	0.052056807
2019-10-06T19:30:00	0.2709	8.446	164.2	0.703475559	0.896456797	0.016397867	0.169173767	0.052140998
2019-10-06T19:35:00	0.2701	8.434	164.1	0.701159237	0.892860855	0.016296219	0.168125092	0.051817786
2019-10-06T19:40:00	0.2714	8.423	164.1	0.705328727	0.899337081	0.016479430	0.170015243	0.052400349
2019-10-06T19:45:00	0.2722	8.412	164.1	0.707874586	0.903298853	0.016591831	0.171174861	0.052757755
2019-10-06T19:50:00	0.2707	8.401	164.0	0.702967660	0.895667918	0.016375550	0.168943529	0.052070036
2019-10-06T19:55:00	0.2694	8.390	164.0	0.698703562	0.889053665	0.016188822	0.167017096	0.051476291
2019-10-06T20:00:00	0.2709	8.379	163.9	0.703524365	0.896532617	0.016400012	0.169195900	0.052147820
2019-10-06T20:05:00	0.2699	8.366	163.9	0.700234623	0.891426752	0.016255738	0.167707453	0.051689066
2019-10-06T20:10:00	0.2694	8.355	163.9	0.698890324	0.889343030	0.016196977	0.167101226	0.051502221
2019-10-06T20:15:00	0.2695	8.344	163.8	0.699168996	0.889774854	0.016209149	0.167226801	0.051540924
2019-10-06T20:20:00	0.2703	8.332	163.7	0.701719119	0.893729609	0.016320758	0.168378252	0.051895813
2019-10-06T20:25:00	0.2716	8.322	163.7	0.705887974	0.900206878	0.016504086	0.170269618	0.052478750
2019-10-06T20:30:00	0.2712	8.310	163.6	0.704545740	0.898119761	0.016444942	0.169659439	0.052290687
2019-10-06T20:35:00	0.2706	8.298	163.6	0.702554429	0.895026243	0.016357405	0.168756327	0.052012339
2019-10-06T20:40:00	0.2689	8.287	163.6	0.696990826	0.886401400	0.016114139	0.166246606	0.051238818
2019-10-06T20:45:00	0.2680	8.276	163.5	0.694345377	0.882309777	0.015999145	0.165060226	0.050873165
2019-10-06T20:50:00	0.2698	8.266	163.5	0.700145633	0.891288766	0.016251845	0.167667286	0.051676686
2019-10-06T20:55:00	0.2708	8.253	163.4	0.703343642	0.896251880	0.016392069	0.169113951	0.052122562
2019-10-06T21:00:00	0.2697	8.240	163.4	0.699729181	0.890643110	0.016233631	0.167479382	0.051618772
2019-10-06T21:05:00	0.2701	8.228	163.3	0.700981301	0.892584813	0.016288425	0.168044677	0.051793002
2019-10-06T21:10:00	0.2717	8.216	163.3	0.706123144	0.900572718	0.016514461	0.170376645	0.052511737
2019-10-06T21:15:00	0.2724	8.204	163.2	0.708344656	0.904030975	0.016612629	0.171389431	0.052823887
2019-10-06T21:20:00	0.2712	8.194	163.2	0.704735105	0.898414121	0.016453280	0.169745454	0.052317197
2019-10-06T21:25:00	0.2719	8.183	163.1	0.706957455	0.901870997	0.016551293	0.170756634	0.052628853
2019-10-06T21:30:00	0.2724	8.169	163.1	0.708530929	0.904321143	0.016620874	0.171474498	0.052850105
2019-10-06T21:35:00	0.2707	8.155	163.0	0.702976365	0.895681437	0.016375932	0.168947473	0.052071252
2019-10-06T21:40:00	0.2726	8.142	163.0	0.709086794	0.905187228	0.016645493	0.171728481	0.052928386
2019-10-06T21:45:00	0.2702	8.130	162.9	0.701262717	0.893021402	0.016300753	0.168171867	0.051832203
2019-10-06T21:50:00	0.2700	8.116	162.9	0.700567846	0.891943505	0.016270321	0.167857903	0.051735436
2019-10-06T21:55:00	0.2703	8.103	162.8	0.701819681	0.893885677	0.016325168	0.168423745	0.051909834
2019-10-06T22:00:00	0.2696	8.089	162.8	0.699502315	0.890291449	0.016223714	0.167377066	0.051587237
2019-10-06T22:05:00	0.2684	8.074	162.7	0.695521863	0.884128656	0.016050231	0.165587279	0.051035608
2019-10-06T22:10:00	0.2684	8.060	162.6	0.695438574	0.883999850	0.016046612	0.165549937	0.051024099
2019-10-06T22:15:00	0.2697	8.045	162.6	0.699577314	0.890407698	0.016226992	0.167410887	0.051597661
2019-10-06T22:20:00	0.2677	8.030	162.4	0.693321678	0.880728084	0.015954762	0.164602342	0.050732040
2019-10-06T22:25:00	0.2674	8.015	162.4	0.692262771	0.879092948	0.015908922	0.164129417	0.050586280
2019-10-06T22:30:00	0.2677	7.998	162.4	0.693154998	0.880470638	0.015947542	0.164527853	0.050709082
2019-10-06T22:35:00	0.2682	7.984	162.3	0.694697100	0.882853424	0.016014409	0.165217701	0.050921700
2019-10-06T22:40:00	0.2690	7.969	162.2	0.697537844	0.887248210	0.016137972	0.166492482	0.051314600
2019-10-06T22:45:00	0.2680	7.954	162.1	0.694205437	0.882093505	0.015993074	0.164997594	0.050853861
2019-10-06T22:50:00	0.2643	7.939	162.1	0.682074810	0.863410526	0.015471437	0.159615964	0.049195190
2019-10-06T22:55:00	0.2657	7.925	162.0	0.686880155	0.870796261	0.015676984	0.161736552	0.049848776
2019-10-06T23:00:00	0.2658	7.912	162.0	0.687122374	0.871169075	0.015687382	0.161843833	0.049881841
2019-10-06T23:05:00	0.2660	7.897	161.9	0.687690230	0.872043297	0.015711775	0.162095489	0.049959404
2019-10-06T23:10:00	0.2650	7.880	172.8	0.684348845	0.866903195	0.015568530	0.160617653	0.049503920
2019-10-06T23:15:00	0.2655	7.863	161.7	0.686220446	0.869781118	0.015648680	0.161444550	0.049758778
2019-10-06T23:20:00	0.2630	7.849	161.7	0.677983408	0.857137810	0.015297554	0.157822048	0.048642288
2019-10-06T23:25:00	0.2644	7.834	172.6	0.682468049	0.864014178	0.015488204	0.159788945	0.049248505
2019-10-06T23:30:00	0.2630	7.818	161.5	0.677816028	0.856881498	0.015290463	0.157748886	0.048619739
2019-10-06T23:35:00	0.2641	7.802	172.3	0.681648576	0.862756372	0.015453274	0.159428579	0.049137436
2019-10-06T23:40:00	0.2640	7.785	161.4	0.681238770	0.862127581	0.015435822	0.159248526	0.049081942
2019-10-06T23:45:00	0.2636	7.767	161.4	0.679850033	0.859997828	0.015376757	0.158639165	0.048894131
2019-10-06T23:50:00	0.2632	7.749	161.2	0.678460766	0.857868926	0.015317789	0.158030801	0.048706628
2019-10-06T23:55:00	0.2626	7.732	161.2	0.676744367	0.855241024	0.015245100	0.157280882	0.048475495
2019-10-07T00:00:00	0.2625	7.714	161.1	0.676334010	0.854613121	0.015227748	0.157101869	0.048420322
2019-10-07T00:05:00	0.2633	7.697	161.0	0.678862639	0.858484582	0.015334834	0.158206656	0.048760828
2019-10-07T00:10:00	0.2632	7.678	160.9	0.678452520	0.857856295	0.015317439	0.158027194	0.048705516
2019-10-07T00:15:00	0.2628	7.661	160.9	0.677389295	0.856228147	0.015272391	0.157562440	0.048562274
2019-10-07T00:20:00	0.2647	7.640	160.7	0.683505092	0.865606761	0.015532467	0.160245603	0.049389251
2019-10-07T00:25:00	0.2635	7.621	160.7	0.679507192	0.859472307	0.015362194	0.158488920	0.048847824
2019-10-07T00:30:00	0.2627	7.601	160.6	0.676811584	0.855343890	0.015247943	0.157310215	0.048484536
2019-10-07T00:35:00	0.2619	7.584	160.5	0.674440817	0.851718150	0.015147831	0.156277376	0.048166205
2019-10-07T00:40:00	0.2636	7.564	160.4	0.679908950	0.860088149	0.015379260	0.158664992	0.048902091
2019-10-07T00:45:00	0.2623	7.543	160.3	0.675580396	0.853460365	0.015195909	0.156773394	0.048319083
2019-10-07T00:50:00	0.2617	7.523	160.2	0.673535747	0.850335253	0.015109703	0.155884020	0.048044969
2019-10-07T00:55:00	0.2611	7.503	160.2	0.671817023	0.847711078	0.015037438	0.155138471	0.047815183
2019-10-07T01:00:00	0.2625	7.483	160.1	0.676309258	0.854575252	0.015226702	0.157091075	0.048416995
2019-10-07T01:05:00	0.2616	7.459	160.0	0.673284367	0.849951283	0.015099122	0.155774859	0.048011324
2019-10-07T01:10:00	0.2626	7.435	159.9	0.676468457	0.854818829	0.015233432	0.157160509	0.048438395
2019-10-07T01:15:00	0.2623	7.417	159.8	0.675731375	0.853691269	0.015202285	0.156839172	0.048339356
2019-10-07T01:20:00	0.2634	7.397	159.7	0.679239736	0.859062409	0.015350838	0.158371763	0.048811715
2019-10-07T01:25:00	0.2632	7.374	159.6	0.678503215	0.857933949	0.015319589	0.158049371	0.048712351
2019-10-07T01:30:00	0.2628	7.352	159.5	0.677113434	0.855805873	0.015260714	0.157441975	0.048525146
2019-10-07T01:35:00	0.2622	7.332	159.4	0.675396400	0.853178991	0.015188141	0.156693251	0.048294382
2019-10-07T01:40:00	0.2629	7.308	159.3	0.677599154	0.856549433	0.015281277	0.157654116	0.048590530
2019-10-07T01:45:00	0.2639	7.286	159.2	0.680779476	0.861423029	0.015416274	0.159046858	0.049019786
2019-10-07T01:50:00	0.2639	7.263	159.1	0.680695851	0.861294768	0.015412716	0.159010154	0.049008474
2019-10-07T01:55:00	0.2627	7.242	159.0	0.677021476	0.855665122	0.015256823	0.157401828	0.048512772
2019-10-07T02:00:00	0.2636	7.220	158.9	0.679875980	0.860037605	0.015377859	0.158650539	0.048897637
2019-10-07T02:05:00	0.2628	7.202	158.8	0.677180644	0.855908749	0.015263559	0.157471320	0.048534190
2019-10-07T02:10:00	0.2618	7.182	158.8	0.674156478	0.851283619	0.015135847	0.156153742	0.048128100
2019-10-07T02:15:00	0.2622	7.162	158.7	0.675379894	0.853153752	0.015187444	0.156686063	0.048292166
2019-10-07T02:20:00	0.2642	7.140	158.6	0.681825238	0.863027481	0.015460801	0.159506231	0.049161369
2019-10-07T02:25:00	0.2638	7.118	158.5	0.680436723	0.860897367	0.015401695	0.158896448	0.048973428
2019-10-07T02:30:00	0.2651	7.099	158.4	0.684918351	0.867778592	0.015592896	0.160869031	0.049581398
2019-10-07T02:35:00	0.2642	7.078	158.3	0.681900599	0.863143140	0.015464012	0.159539362	0.049171581
2019-10-07T02:40:00	0.2637	7.058	158.2	0.680185819	0.860512633	0.015391027	0.158786391	0.048939508
2019-10-07T02:45:00	0.2632	7.040	158.1	0.678470232	0.857883426	0.015318190	0.158034942	0.048707904
2019-10-07T02:50:00	0.2641	7.022	158.1	0.681649795	0.862758243	0.015453326	0.159429115	0.049137602
2019-10-07T02:55:00	0.2644	7.004	158.0	0.682544615	0.864131729	0.015491470	0.159822638	0.049258889
2019-10-07T03:00:00	0.2634	6.986	157.9	0.679198516	0.858999241	0.015349088	0.158353711	0.048806152
2019-10-07T03:05:00	0.2624	6.967	157.8	0.675849342	0.853871699	0.015207268	0.156890578	0.048355200
2019-10-07T03:10:00	0.2626	6.948	157.7	0.676745588	0.855242893	0.015245151	0.157281415	0.048475660
2019-10-07T03:15:00	0.2592	6.931	157.6	0.665539635	0.838148218	0.014775043	0.152431394	0.046980836
2019-10-07T03:20:00	0.2596	6.912	157.6	0.666765957	0.840013716	0.014826113	0.152958272	0.047143225
2019-10-07T03:25:00	0.2608	6.896	157.5	0.670610157	0.845869932	0.014986802	0.154616077	0.047654177
2019-10-07T03:30:00	0.2620	6.881	157.4	0.674777102	0.852232154	0.015162010	0.156423663	0.048211292
2019-10-07T03:35:00	0.2613	6.866	157.4	0.672405009	0.848608539	0.015062140	0.155393317	0.047893729
2019-10-07T03:40:00	0.2635	6.849	157.3	0.679508412	0.859474177	0.015362245	0.158489454	0.048847989
2019-10-07T03:45:00	0.2608	6.836	157.2	0.670601893	0.845857330	0.014986456	0.154612504	0.047653075
2019-10-07T03:50:00	0.2624	6.819	157.1	0.676075792	0.854218087	0.015216835	0.156989280	0.048385621
2019-10-07T03:55:00	0.2620	6.802	157.1	0.674685085	0.852091498	0.015158130	0.156383628	0.048198953
2019-10-07T04:00:00	0.2620	6.784	157.0	0.674601320	0.851963463	0.015154597	0.156347187	0.048187722
2019-10-07T04:05:00	0.2626	6.766	156.9	0.676752468	0.855253423	0.015245442	0.157284418	0.048476585
2019-10-07T04:10:00	0.2631	6.751	156.8	0.678249441	0.857545238	0.015308829	0.157938369	0.048678139
2019-10-07T04:15:00	0.2635	6.734	156.8	0.679419435	0.859337805	0.015358467	0.158450473	0.048835975
2019-10-07T04:20:00	0.2635	6.718	156.7	0.679610103	0.859630043	0.015366564	0.158534011	0.048861722
2019-10-07T04:25:00	0.2675	6.703	156.7	0.692506034	0.879468502	0.015919447	0.164237998	0.050619746
2019-10-07T04:30:00	0.2651	6.687	156.6	0.684883027	0.867724287	0.015591384	0.160853433	0.049576590
2019-10-07T04:35:00	0.2653	6.671	156.5	0.685399268	0.868518037	0.015613487	0.161081468	0.049646873
2019-10-07T04:40:00	0.2654	6.655	156.4	0.685589625	0.868810778	0.015621641	0.161165595	0.049672802
2019-10-07T04:45:00	0.2656	6.639	156.4	0.686431532	0.870105890	0.015657734	0.161537951	0.049787565
2019-10-07T04:50:00	0.2659	6.625	156.6	0.687273245	0.871401316	0.015693861	0.161910675	0.049902442
2019-10-07T04:55:00	0.2650	6.611	156.3	0.684531394	0.867183763	0.015576338	0.160698206	0.049528748
2019-10-07T05:00:00	0.2638	6.596	156.2	0.680482586	0.860967698	0.015403645	0.158916569	0.048979630
2019-10-07T05:05:00	0.2650	6.583	166.6	0.684586286	0.867268134	0.015578686	0.160722433	0.049536215
2019-10-07T05:10:00	0.2662	6.570	156.1	0.688359815	0.873074490	0.015740564	0.162392494	0.050050944
2019-10-07T05:15:00	0.2629	6.558	166.5	0.677464082	0.856342639	0.015275557	0.157595108	0.048572343
2019-10-07T05:20:00	0.2634	6.546	156.0	0.679287166	0.859135095	0.015352851	0.158392536	0.048818118
2019-10-07T05:25:00	0.2646	6.533	155.9	0.683066173	0.864932601	0.015513725	0.160052243	0.049329656
2019-10-07T05:30:00	0.2650	6.520	155.8	0.684560556	0.867228587	0.015577585	0.160711077	0.049532715
2019-10-07T05:35:00	0.2645	6.507	155.8	0.682795025	0.864516214	0.015502153	0.159932854	0.049292859
2019-10-07T05:40:00	0.2645	6.494	166.2	0.682659444	0.864308033	0.015496368	0.159873174	0.049274465
2019-10-07T05:45:00	0.2665	6.483	155.5	0.689365548	0.874624096	0.015783857	0.162839140	0.050188604
2019-10-07T05:50:00	0.2662	6.470	166.0	0.688253573	0.872910847	0.015735994	0.162345349	0.050036413
2019-10-07T05:55:00	0.2664	6.458	155.5	0.689094867	0.874206953	0.015772199	0.162718867	0.050151535
2019-10-07T06:00:00	0.2680	6.447	155.5	0.694164239	0.882029837	0.015991287	0.164979157	0.050848178
2019-10-07T06:05:00	0.2685	6.438	165.9	0.695979015	0.884835751	0.016070106	0.165792318	0.051098803
2019-10-07T06:10:00	0.2702	6.429	155.4	0.701363328	0.893177506	0.016305162	0.168217352	0.051846222
2019-10-07T06:15:00	0.2688	6.420	155.4	0.696683475	0.885925719	0.016100757	0.166108540	0.051196265
2019-10-07T06:20:00	0.2708	6.414	155.3	0.703363988	0.896283484	0.016392963	0.169123176	0.052125405
2019-10-07T06:25:00	0.2686	6.407	155.3	0.696088456	0.885005053	0.016074865	0.165841423	0.051113937
2019-10-07T06:30:00	0.2674	6.401	155.3	0.692377663	0.879270315	0.015913892	0.164180695	0.050602085
2019-10-07T06:35:00	0.2661	6.395	155.3	0.688011946	0.872538706	0.015725604	0.162238155	0.050003375
2019-10-07T06:40:00	0.2677	6.392	155.2	0.693082815	0.880359154	0.015944416	0.164495599	0.050699141
2019-10-07T06:45:00	0.2653	6.388	155.2	0.685461012	0.868612986	0.015616132	0.161108753	0.049655282
2019-10-07T06:50:00	0.2667	6.388	155.2	0.689884585	0.875424155	0.015806224	0.163069898	0.050259726
2019-10-07T06:55:00	0.2658	6.389	155.2	0.687144691	0.871203428	0.015688341	0.161853720	0.049884888
2019-10-07T07:00:00	0.2644	6.388	155.3	0.682446626	0.863981289	0.015487290	0.159779519	0.049245600
2019-10-07T07:05:00	0.2646	6.388	155.3	0.683289258	0.865275229	0.015523250	0.160150505	0.049359941
2019-10-07T07:10:00	0.2664	6.386	155.3	0.689017774	0.874088156	0.015768879	0.162684620	0.050140980
2019-10-07T07:15:00	0.2675	6.387	155.3	0.692461537	0.879399804	0.015917521	0.164218134	0.050613624
2019-10-07T07:20:00	0.2674	6.388	155.2	0.692326314	0.879191043	0.015911671	0.164157776	0.050595021
2019-10-07T07:25:00	0.2653	6.391	155.3	0.685354685	0.868449479	0.015611578	0.161061768	0.049640801
2019-10-07T07:30:00	0.2663	6.394	155.2	0.688801897	0.873755530	0.015759586	0.162588743	0.050111429
2019-10-07T07:35:00	0.2668	6.397	155.3	0.690293938	0.876055310	0.015823876	0.163252013	0.050315856
2019-10-07T07:40:00	0.2690	6.402	155.3	0.697310880	0.886896828	0.016128081	0.166390442	0.051283150
2019-10-07T07:45:00	0.2698	6.408	155.3	0.700097848	0.891214673	0.016249754	0.167645719	0.051670039
2019-10-07T07:50:00	0.2685	6.417	155.4	0.695741319	0.884468075	0.016059770	0.165685692	0.051065939
2019-10-07T07:55:00	0.2671	6.425	155.4	0.691379611	0.877729939	0.015870743	0.163735532	0.050464881
2019-10-07T08:00:00	0.2674	6.436	155.5	0.692220187	0.879027212	0.015907080	0.164110413	0.050580423
2019-10-07T08:05:00	0.2679	6.450	155.6	0.694035926	0.881831556	0.015985722	0.164921743	0.050830483
2019-10-07T08:10:00	0.2689	6.462	155.6	0.697150195	0.886648083	0.016121081	0.166318219	0.051260891
2019-10-07T08:15:00	0.2688	6.476	155.7	0.696690318	0.885936309	0.016101055	0.166111614	0.051197213
2019-10-07T08:20:00	0.2708	6.494	155.8	0.703370819	0.896294095	0.016393263	0.169126273	0.052126360
2019-10-07T08:25:00	0.2705	6.518	155.9	0.702263082	0.894573923	0.016344618	0.168624408	0.051971680
2019-10-07T08:30:00	0.2687	6.546	156.0	0.696609963	0.885811958	0.016097557	0.166075527	0.051186090
2019-10-07T08:35:00	0.2700	6.579	156.2	0.700695636	0.892141704	0.016275915	0.167915619	0.051753225
2019-10-07T08:40:00	0.2681	6.614	156.3	0.694390072	0.882378853	0.016001084	0.165080233	0.050879331
2019-10-07T08:45:00	0.2684	6.652	156.5	0.695554913	0.884179770	0.016051668	0.165602098	0.051040175
2019-10-07T08:50:00	0.2690	6.688	156.7	0.697369002	0.886986807	0.016130614	0.166416569	0.051291203
2019-10-07T08:55:00	0.2684	6.723	156.8	0.695609640	0.884264410	0.016054046	0.165626638	0.051047738
2019-10-07T09:00:00	0.2694	6.758	157.0	0.698722573	0.889083119	0.016189652	0.167025659	0.051478930
2019-10-07T09:05:00	0.2685	6.789	157.1	0.695989282	0.884851633	0.016070552	0.165796924	0.051100222
2019-10-07T09:10:00	0.2669	6.820	157.3	0.690651872	0.876607304	0.015839320	0.163411340	0.050364962
2019-10-07T09:15:00	0.2661	6.851	157.4	0.687912554	0.872385643	0.015721331	0.162194072	0.049989788
2019-10-07T09:20:00	0.2683	6.885	157.5	0.695259035	0.883722213	0.016038811	0.165469458	0.050999294
2019-10-07T09:25:00	0.2674	6.923	157.7	0.692197937	0.878992866	0.015906118	0.164100484	0.050577363
2019-10-07T09:30:00	0.2679	6.960	157.9	0.694013688	0.881797192	0.015984757	0.164911793	0.050827416
2019-10-07T09:35:00	0.2690	6.998	158.1	0.697452762	0.887116482	0.016134264	0.166454226	0.051302809
2019-10-07T09:40:00	0.2697	7.033	158.2	0.699590512	0.890428156	0.016227569	0.167416839	0.051599496
2019-10-07T09:45:00	0.2696	7.068	158.4	0.699455551	0.890218965	0.016221670	0.167355980	0.051580738
2019-10-07T09:50:00	0.2675	7.101	158.6	0.692497488	0.879455308	0.015919077	0.164234183	0.050618570
2019-10-07T09:55:00	0.2677	7.133	158.7	0.693337808	0.880752999	0.015955461	0.164609551	0.050734262
2019-10-07T10:00:00	0.2688	7.165	158.8	0.696777515	0.886071254	0.016104851	0.166150778	0.051209283
2019-10-07T10:05:00	0.2687	7.198	159.0	0.696400861	0.885488396	0.016088457	0.165981640	0.051157154
2019-10-07T10:10:00	0.2679	7.235	159.2	0.693749168	0.881388479	0.015973288	0.164793470	0.050790948
2019-10-07T10:15:00	0.2681	7.270	170.1	0.694672509	0.882815411	0.016013341	0.165206689	0.050918306
2019-10-07T10:20:00	0.2686	7.306	159.5	0.696245434	0.885247914	0.016081694	0.165911872	0.051135650
2019-10-07T10:25:00	0.2682	7.345	159.7	0.694893857	0.883157592	0.016022951	0.165305829	0.050948862
2019-10-07T10:30:00	0.2681	7.384	159.8	0.694517009	0.882575050	0.016006592	0.165137060	0.050896846
2019-10-07T10:35:00	0.2689	7.420	160.0	0.697064552	0.886515515	0.016117350	0.166279733	0.051249029
2019-10-07T10:40:00	0.2695	7.454	160.2	0.698961106	0.889452706	0.016200068	0.167133117	0.051512050
2019-10-07T10:45:00	0.2706	7.486	160.3	0.702802998	0.895412208	0.016368318	0.168868920	0.052047041
2019-10-07T10:50:00	0.2696	7.508	160.4	0.699506801	0.890298401	0.016223910	0.167379089	0.051587861
2019-10-07T10:55:00	0.2684	7.525	160.5	0.695557820	0.884184267	0.016051794	0.165603402	0.051040577
2019-10-07T11:00:00	0.2703	7.545	160.6	0.701674771	0.893660785	0.016318814	0.168358192	0.051889630
2019-10-07T11:05:00	0.2703	7.563	160.7	0.701623037	0.893580502	0.016316546	0.168334793	0.051882418
2019-10-07T11:10:00	0.2707	7.581	160.8	0.702868709	0.895514251	0.016371204	0.168898692	0.052056217
2019-10-07T11:15:00	0.2695	7.599	160.8	0.698923343	0.889394193	0.016198419	0.167116103	0.051506806
2019-10-07T11:20:00	0.2709	7.616	160.9	0.703738056	0.896864603	0.016409407	0.169292826	0.052177693
2019-10-07T11:25:00	0.2698	7.640	161.0	0.700118175	0.891246191	0.016250644	0.167654893	0.051672866
2019-10-07T11:30:00	0.2683	7.666	161.1	0.695195064	0.883623297	0.016036032	0.165440788	0.050990458
2019-10-07T11:35:00	0.2689	7.690	161.3	0.697092585	0.886558907	0.016118571	0.166292330	0.051252911
2019-10-07T11:40:00	0.2687	7.715	161.4	0.696391110	0.885473308	0.016088032	0.165977263	0.051155804
2019-10-07T11:45:00	0.2682	7.740	161.5	0.694714586	0.882880454	0.016015168	0.165225532	0.050924114
2019-10-07T11:50:00	0.2690	7.763	161.6	0.697586766	0.887323957	0.016140104	0.166514481	0.051321380
2019-10-07T11:55:00	0.2664	7.786	161.8	0.689081337	0.874186102	0.015771616	0.162712856	0.050149682
2019-10-07T12:00:00	0.2676	7.808	161.9	0.692933582	0.880128685	0.015937954	0.164428929	0.050678593
2019-10-07T12:05:00	0.2654	7.830	162.0	0.685720816	0.869012551	0.015627263	0.161223589	0.049690676
2019-10-07T12:10:00	0.2654	7.853	162.1	0.685668857	0.868932636	0.015625036	0.161200619	0.049683596
2019-10-07T12:15:00	0.2648	7.877	162.2	0.683661430	0.865846929	0.015539146	0.160314505	0.049410487
2019-10-07T12:20:00	0.2656	7.900	162.2	0.686542291	0.870276317	0.015662485	0.161586971	0.049802674
2019-10-07T12:25:00	0.2675	7.924	162.4	0.692674289	0.879728289	0.015926729	0.164313122	0.050642900
2019-10-07T12:30:00	0.2655	7.948	162.5	0.686112629	0.869615248	0.015644057	0.161396855	0.049744078
2019-10-07T12:35:00	0.2646	7.969	162.6	0.683127438	0.865026693	0.015516341	0.160079225	0.049337972
2019-10-07T12:40:00	0.2646	7.999	162.7	0.683075442	0.864946837	0.015514121	0.160056325	0.049330914
2019-10-07T12:45:00	0.2633	8.033	162.9	0.678782261	0.858361434	0.015331424	0.158171475	0.048749985
2019-10-07T12:50:00	0.2626	8.064	163.0	0.676771039	0.855281842	0.015246228	0.157292521	0.048479083
2019-10-07T12:55:00	0.2641	8.097	163.2	0.681614957	0.862704783	0.015451842	0.159413804	0.049132883
2019-10-07T13:00:00	0.2631	8.130	163.7	0.678299620	0.857622094	0.015310956	0.157960314	0.048684903
2019-10-07T13:05:00	0.2632	8.162	164.0	0.678574023	0.858042417	0.015322591	0.158080350	0.048721899
2019-10-07T13:10:00	0.2615	8.188	164.2	0.672967941	0.849468037	0.015085809	0.155637509	0.047968992
2019-10-07T13:15:00	0.2625	8.209	164.2	0.676183943	0.854383534	0.015221405	0.157036432	0.048400153
2019-10-07T13:20:00	0.2621	8.225	164.2	0.674824924	0.852305256	0.015164027	0.156444472	0.048217706
2019-10-07T13:25:00	0.2623	8.236	164.2	0.675753060	0.853724434	0.015203201	0.156848621	0.048342268
2019-10-07T13:30:00	0.2608	8.243	164.2	0.670796989	0.846154874	0.014994635	0.154696887	0.047679083
2019-10-07T13:35:00	0.2605	8.247	164.1	0.669763214	0.844578618	0.014951322	0.154250029	0.047541357
2019-10-07T13:40:00	0.2593	8.247	164.1	0.665781905	0.838516660	0.014785125	0.152535407	0.047012894
2019-10-07T13:45:00	0.2593	8.246	164.0	0.665729660	0.838437202	0.014782950	0.152512974	0.047005980
2019-10-07T13:50:00	0.2588	8.245	164.0	0.664038976	0.835867147	0.014712674	0.151787945	0.046782519
2019-10-07T13:55:00	0.2572	8.243	164.0	0.659066869	0.828323102	0.014507015	0.149666203	0.046128577
2019-10-07T14:00:00	0.2584	8.241	164.0	0.662950988	0.834214563	0.014667543	0.151322333	0.046639013
2019-10-07T14:05:00	0.2602	8.238	164.0	0.668795472	0.843103879	0.014910834	0.153832329	0.047412618
2019-10-07T14:10:00	0.2599	8.236	163.9	0.667761127	0.841528532	0.014867624	0.153386538	0.047275221
2019-10-07T14:15:00	0.2609	8.234	163.9	0.670981737	0.846436666	0.015002383	0.154776818	0.047703718
2019-10-07T14:20:00	0.2612	8.232	163.9	0.671910854	0.847854275	0.015041378	0.155179125	0.047827713
2019-10-07T14:25:00	0.2590	8.229	163.9	0.664984012	0.837303421	0.014751935	0.152192989	0.046907357
2019-10-07T14:30:00	0.2599	8.226	163.9	0.667879686	0.841709056	0.014872574	0.153437602	0.047290959
2019-10-07T14:35:00	0.2616	8.222	163.8	0.673389342	0.850111621	0.015103540	0.155820439	0.048025373
2019-10-07T14:40:00	0.2606	8.217	163.8	0.670066502	0.845040964	0.014964022	0.154381058	0.047581741
2019-10-07T14:45:00	0.2595	8.212	163.8	0.666413088	0.839476795	0.014811408	0.152806567	0.047096468
2019-10-07T14:50:00	0.2595	8.209	163.8	0.666360852	0.839397322	0.014809232	0.152784117	0.047089549
2019-10-07T14:55:00	0.2590	8.204	163.8	0.664998152	0.837324917	0.014752522	0.152199054	0.046909227
2019-10-07T15:00:00	0.2599	8.198	163.7	0.667893815	0.841730570	0.014873164	0.153443688	0.047292835
2019-10-07T15:05:00	0.2601	8.192	163.7	0.668496378	0.842648253	0.014898333	0.153703353	0.047372866
2019-10-07T15:10:00	0.2602	8.188	163.7	0.668771522	0.843067391	0.014909833	0.153821999	0.047409434
2019-10-07T15:15:00	0.2614	8.183	163.7	0.672645266	0.848975335	0.015072239	0.155497512	0.047925843
2019-10-07T15:20:00	0.2636	8.178	163.6	0.679779804	0.859890170	0.015373773	0.158608382	0.048884644
2019-10-07T15:25:00	0.2648	8.172	163.6	0.683641860	0.865816865	0.015538310	0.160305879	0.049407829
2019-10-07T15:30:00	0.2636	8.162	163.5	0.680002055	0.860230886	0.015383217	0.158705811	0.048914672
2019-10-07T15:35:00	0.2627	8.156	163.5	0.677011859	0.855650402	0.015256416	0.157397630	0.048511478
2019-10-07T15:40:00	0.2633	8.146	163.5	0.678918836	0.858570686	0.015337218	0.158231255	0.048768410
2019-10-07T15:45:00	0.2624	8.136	163.4	0.675927750	0.853991630	0.015210580	0.156924750	0.048365732
2019-10-07T15:50:00	0.2636	8.126	163.4	0.679793887	0.859911758	0.015374371	0.158614555	0.048886546
2019-10-07T15:55:00	0.2626	8.115	163.4	0.676476893	0.854831735	0.015233789	0.157164188	0.048439529
2019-10-07T16:00:00	0.2637	8.105	163.4	0.680342447	0.860752798	0.015397686	0.158855090	0.048960681
2019-10-07T16:05:00	0.2650	8.094	163.3	0.684293285	0.866817808	0.015566154	0.160593140	0.049496365
2019-10-07T16:10:00	0.2668	8.079	163.2	0.690192875	0.875899475	0.015819517	0.163207042	0.050301995
2019-10-07T16:15:00	0.2677	8.063	163.2	0.693157761	0.880474904	0.015947662	0.164529087	0.050709462
2019-10-07T16:20:00	0.2687	8.048	163.1	0.696445126	0.885556887	0.016090383	0.166001513	0.051163278
2019-10-07T16:25:00	0.2690	8.033	163.0	0.697456845	0.887122803	0.016134442	0.166456062	0.051303375
2019-10-07T16:30:00	0.2705	8.014	162.9	0.702362417	0.894728133	0.016348977	0.168669380	0.051985541
2019-10-07T16:35:00	0.2696	7.996	162.9	0.699479448	0.890256005	0.016222715	0.167366755	0.051584059
2019-10-07T16:40:00	0.2702	7.976	162.8	0.701463716	0.893333273	0.016309562	0.168262742	0.051860211
2019-10-07T16:45:00	0.2711	7.959	162.7	0.704419515	0.897923568	0.016439386	0.169602117	0.052273020
2019-10-07T16:50:00	0.2709	7.942	162.6	0.703484116	0.896470090	0.016398243	0.169177647	0.052142194
2019-10-07T16:55:00	0.2732	7.924	162.5	0.710971227	0.908125338	0.016729095	0.172590991	0.053194220
2019-10-07T17:00:00	0.2737	7.905	162.4	0.712625893	0.910707758	0.016802687	0.173350227	0.053428223
2019-10-07T17:05:00	0.2722	7.886	162.4	0.707808304	0.903195635	0.016588899	0.171144617	0.052748433
2019-10-07T17:10:00	0.2719	7.866	162.2	0.706873764	0.901740738	0.016547596	0.170718497	0.052617099
2019-10-07T17:15:00	0.2719	7.846	162.2	0.706910932	0.901798586	0.016549238	0.170735433	0.052622319
2019-10-07T17:20:00	0.2715	7.826	162.1	0.705652129	0.899840036	0.016493686	0.170162319	0.052445679
2019-10-07T17:25:00	0.2733	7.806	162.0	0.711517527	0.908977678	0.016753373	0.172841462	0.053271417
2019-10-07T17:30:00	0.2735	7.782	161.9	0.712201653	0.910045423	0.016783803	0.173155397	0.053368175
2019-10-07T17:35:00	0.2735	7.760	161.8	0.711915282	0.909598421	0.016771061	0.173023949	0.053327662
2019-10-07T17:40:00	0.2714	7.738	161.6	0.705152717	0.899063390	0.016471674	0.169935226	0.052375687
2019-10-07T17:45:00	0.2701	7.716	161.6	0.700974318	0.892573981	0.016288119	0.168041522	0.051792029
2019-10-07T17:50:00	0.2710	7.694	161.5	0.703930511	0.897163630	0.016417871	0.169380144	0.052204605
2019-10-07T17:55:00	0.2718	7.675	161.3	0.706560376	0.901253023	0.016533757	0.170575728	0.052573096
2019-10-07T18:00:00	0.2747	7.653	161.3	0.715980620	0.915950778	0.016952417	0.174894959	0.053904325
2019-10-07T18:05:00	0.2741	7.634	161.2	0.714078346	0.912976554	0.016867427	0.174018136	0.053634080
2019-10-07T18:10:00	0.2747	7.614	161.1	0.716054772	0.916066778	0.016955734	0.174929186	0.053914874
2019-10-07T18:15:00	0.2750	7.595	161.0	0.716738058	0.917135918	0.016986321	0.175244740	0.054012131
2019-10-07T18:20:00	0.2762	7.575	160.9	0.720649988	0.923264779	0.017161997	0.177057164	0.054570737
2019-10-07T18:25:00	0.2760	7.556	160.8	0.720041494	0.922310568	0.017134608	0.176774593	0.054483646
2019-10-07T18:30:00	0.2759	7.538	160.7	0.719755730	0.921862556	0.017121753	0.176641973	0.054442772
2019-10-07T18:35:00	0.2762	7.519	160.6	0.720761074	0.923439014	0.017167000	0.177108775	0.054586645
2019-10-07T18:40:00	0.2751	7.498	160.6	0.717246443	0.917931654	0.017009097	0.175479718	0.054084553
2019-10-07T18:45:00	0.2753	7.477	160.5	0.717929509	0.919001161	0.017039725	0.175795698	0.054181941
2019-10-07T18:50:00	0.2750	7.460	160.4	0.716997528	0.917542019	0.016997943	0.175364647	0.054049087
2019-10-07T18:55:00	0.2766	7.440	160.3	0.722199813	0.925696609	0.017231863	0.177777952	0.054792891
2019-10-07T19:00:00	0.2789	7.423	160.2	0.729327204	0.936907272	0.017555109	0.181112822	0.055820731
2019-10-07T19:05:00	0.2773	7.407	160.2	0.724208904	0.928852199	0.017322657	0.178714655	0.055081592
2019-10-07T19:10:00	0.2777	7.389	160.1	0.725535366	0.930937554	0.017382741	0.179334531	0.055272644
2019-10-07T19:15:00	0.2797	7.367	160.0	0.732012921	0.941143191	0.017677744	0.182378028	0.056210679
2019-10-07T19:20:00	0.2796	7.348	159.9	0.731728077	0.940693633	0.017664716	0.182243618	0.056169253
2019-10-07T19:25:00	0.2816	7.330	159.8	0.738194869	0.950917457	0.017961757	0.185308133	0.057113766
2019-10-07T19:30:00	0.2813	7.313	159.7	0.737267959	0.949449779	0.017919018	0.184867209	0.056977869
2019-10-07T19:35:00	0.2804	7.298	159.7	0.734412062	0.944932478	0.017787679	0.183512206	0.056560244
2019-10-07T19:40:00	0.2798	7.281	159.6	0.732519218	0.941942432	0.017700914	0.182617064	0.056284353
2019-10-07T19:45:00	0.2809	7.265	159.5	0.735771770	0.947082294	0.017850146	0.184156666	0.056758873
2019-10-07T19:50:00	0.2808	7.246	159.4	0.735487212	0.946632250	0.017837063	0.184021694	0.056717273
2019-10-07T19:55:00	0.2801	7.229	159.3	0.733273287	0.943133226	0.017735452	0.182973389	0.056394176
2019-10-07T20:00:00	0.2818	7.213	170.0	0.738774026	0.951834882	0.017988488	0.185583918	0.057198766
2019-10-07T20:05:00	0.2791	7.196	170.0	0.730129356	0.938171766	0.017591689	0.181490213	0.055937046
2019-10-07T20:10:00	0.2789	7.180	169.9	0.729522416	0.937214948	0.017564007	0.181204625	0.055849025
2019-10-07T20:15:00	0.2783	7.165	169.7	0.727627081	0.934229106	0.017477713	0.180314344	0.055574632
2019-10-07T20:20:00	0.2792	7.150	169.7	0.730562049	0.938854085	0.017611438	0.181693957	0.055999842
2019-10-07T20:25:00	0.2792	7.136	169.6	0.730277093	0.938404715	0.017598431	0.181559765	0.055958483
2019-10-07T20:30:00	0.2798	7.121	158.8	0.732244906	0.941509376	0.017688358	0.182487533	0.056244430
2019-10-07T20:35:00	0.2802	7.105	169.5	0.733568505	0.943599557	0.017748984	0.183112992	0.056437202
2019-10-07T20:40:00	0.2822	7.091	158.7	0.740032107	0.953828791	0.018046630	0.186183753	0.057383641
2019-10-07T20:45:00	0.2813	7.076	158.7	0.737178327	0.949307895	0.017914888	0.184824601	0.056964737
2019-10-07T20:50:00	0.2799	7.059	158.6	0.732714262	0.942250390	0.017709844	0.182709194	0.056312748
2019-10-07T20:55:00	0.2801	7.043	158.5	0.733394488	0.943324668	0.017741007	0.183030696	0.056411838
2019-10-07T21:00:00	0.2804	7.029	158.4	0.734396147	0.944907325	0.017786949	0.183504670	0.056557921
2019-10-07T21:05:00	0.2801	7.014	158.4	0.733468292	0.943441251	0.017744390	0.183065597	0.056422595
2019-10-07T21:10:00	0.2803	7.002	158.3	0.733826801	0.944007629	0.017760827	0.183235181	0.056474862
2019-10-07T21:15:00	0.2814	6.990	158.3	0.737399511	0.949658033	0.017925081	0.184929752	0.056997146
2019-10-07T21:20:00	0.2803	6.979	158.2	0.733900596	0.944124227	0.017764212	0.183270099	0.056485624
2019-10-07T21:25:00	0.2804	6.969	158.2	0.734259063	0.944690675	0.017780657	0.183439765	0.056537917
2019-10-07T21:30:00	0.2778	6.957	158.1	0.725926179	0.931552251	0.017400464	0.179517381	0.055329000
2019-10-07T21:35:00	0.2807	6.947	158.1	0.735297374	0.946332049	0.017828338	0.183931680	0.056689530
2019-10-07T21:40:00	0.2802	6.934	158.0	0.733726595	0.943849311	0.017756232	0.183187773	0.056460251
2019-10-07T21:45:00	0.2776	6.922	158.0	0.725392516	0.930712902	0.017376265	0.179267719	0.055252052
2019-10-07T21:50:00	0.2788	6.911	157.9	0.729295330	0.936857039	0.017553656	0.181097835	0.055816111
2019-10-07T21:55:00	0.2758	6.899	157.8	0.719337390	0.921206827	0.017102944	0.176447923	0.054382963
2019-10-07T22:00:00	0.2783	6.887	157.8	0.727436841	0.933929584	0.017469064	0.180225113	0.055547130
2019-10-07T22:05:00	0.2777	6.875	157.7	0.725483272	0.930855626	0.017380379	0.179310164	0.055265134
2019-10-07T22:10:00	0.2783	6.866	157.7	0.727396486	0.933866051	0.017467230	0.180206187	0.055541297
2019-10-07T22:15:00	0.2787	6.859	157.6	0.728986716	0.936370707	0.017539594	0.180952758	0.055771397
2019-10-07T22:20:00	0.2784	6.851	157.6	0.728000381	0.934816940	0.017494691	0.180489506	0.055628619
2019-10-07T22:25:00	0.2783	6.844	157.6	0.727658093	0.934277937	0.017479123	0.180328892	0.055579116
2019-10-07T22:30:00	0.2785	6.836	157.5	0.728282118	0.935260673	0.017507511	0.180621765	0.055669382
2019-10-07T22:35:00	0.2794	6.827	157.5	0.731159488	0.939796468	0.017638725	0.181975477	0.056086609
2019-10-07T22:40:00	0.2791	6.818	157.4	0.730173729	0.938241730	0.017593714	0.181511102	0.055943484
2019-10-07T22:45:00	0.2795	6.810	157.4	0.731440987	0.940240604	0.017651590	0.182108203	0.056127517
2019-10-07T22:50:00	0.2807	6.802	157.4	0.735280443	0.946305277	0.017827560	0.183923653	0.056687056
2019-10-07T22:55:00	0.2811	6.793	157.3	0.736545964	0.948307090	0.017885766	0.184524150	0.056872135
2019-10-07T23:00:00	0.2820	6.785	157.3	0.739416958	0.952853679	0.018018189	0.185890330	0.057293205
2019-10-07T23:05:00	0.2819	6.777	157.3	0.739075719	0.952312902	0.018002422	0.185727667	0.057243071
2019-10-07T23:10:00	0.2816	6.769	157.2	0.738092052	0.950754618	0.017957013	0.185259196	0.057098683
2019-10-07T23:15:00	0.2806	6.762	157.2	0.734858277	0.945637803	0.017808166	0.183723565	0.056625387
2019-10-07T23:20:00	0.2818	6.753	157.1	0.738694215	0.951708439	0.017984803	0.185545901	0.057187049
2019-10-07T23:25:00	0.2814	6.748	157.1	0.737389176	0.949641672	0.017924604	0.184924839	0.056995631
2019-10-07T23:30:00	0.2828	6.740	157.1	0.741864371	0.956735204	0.018131486	0.187059201	0.057653463
2019-10-07T23:35:00	0.2815	6.734	157.1	0.737991452	0.950595299	0.017952373	0.185211321	0.057083928
2019-10-07T23:40:00	0.2814	6.728	157.0	0.737650082	0.950054744	0.017936631	0.185048914	0.057033872
2019-10-07T23:45:00	0.2822	6.722	157.0	0.740199197	0.954093712	0.018054359	0.186263497	0.057408219
2019-10-07T23:50:00	0.2836	6.718	157.0	0.744671027	0.961192978	0.018261882	0.188404472	0.058068088
2019-10-07T23:55:00	0.2833	6.714	157.0	0.743688834	0.959632183	0.018216193	0.187933106	0.057922808
2019-10-08T00:00:00	0.2841	6.710	157.0	0.746233832	0.963678172	0.018334706	0.189155783	0.058299649
2019-10-08T00:05:00	0.2826	6.706	157.0	0.741402745	0.956002675	0.018110087	0.186838432	0.057585419
2019-10-08T00:10:00	0.2835	6.702	157.0	0.744270008	0.960555620	0.018243220	0.188211942	0.058008748
2019-10-08T00:15:00	0.2822	6.701	156.9	0.740078544	0.953902414	0.018048778	0.186205913	0.057390471
2019-10-08T00:20:00	0.2827	6.700	156.9	0.741663371	0.956416225	0.018122167	0.186963057	0.057623830
2019-10-08T00:25:00	0.2818	6.699	156.9	0.738753873	0.951802954	0.017987558	0.185574318	0.057195807
2019-10-08T00:30:00	0.2825	6.698	156.9	0.740981271	0.955334025	0.018090561	0.186636986	0.057523332
2019-10-08T00:35:00	0.2813	6.698	156.9	0.737107435	0.949195681	0.017911622	0.184790905	0.056954352
2019-10-08T00:40:00	0.2813	6.698	156.9	0.737087310	0.949163825	0.017910695	0.184781340	0.056951404
2019-10-08T00:45:00	0.2823	6.697	156.9	0.740278939	0.954220153	0.018058049	0.186301560	0.057419950
2019-10-08T00:50:00	0.2800	6.696	156.9	0.732867616	0.942492546	0.017716867	0.182781649	0.056335079
2019-10-08T00:55:00	0.2822	6.697	156.9	0.740238722	0.954156384	0.018056188	0.186282363	0.057414034
2019-10-08T01:00:00	0.2808	6.697	156.9	0.735721311	0.947002486	0.017847826	0.184132728	0.056751495
2019-10-08T01:05:00	0.2815	6.698	156.9	0.737950520	0.950530478	0.017950485	0.185191843	0.057077925
2019-10-08T01:10:00	0.2817	6.697	156.9	0.738572823	0.951516128	0.017979199	0.185488084	0.057169229
2019-10-08T01:15:00	0.2806	6.700	156.9	0.735017988	0.945890298	0.017815502	0.183799247	0.056648713
2019-10-08T01:20:00	0.2806	6.701	156.9	0.734997851	0.945858462	0.017814577	0.183789704	0.056645772
2019-10-08T01:25:00	0.2788	6.702	156.9	0.729186322	0.936685249	0.017548688	0.181046584	0.055800316
2019-10-08T01:30:00	0.2790	6.703	156.9	0.729810091	0.937668417	0.017577125	0.181339957	0.055890736
2019-10-08T01:35:00	0.2789	6.705	156.9	0.729467970	0.937129132	0.017561525	0.181179019	0.055841133
2019-10-08T01:40:00	0.2802	6.706	156.9	0.733631086	0.943698422	0.017751853	0.183142593	0.056446326
2019-10-08T01:45:00	0.2784	6.707	156.9	0.727817420	0.934528818	0.017486369	0.180403645	0.055602155
2019-10-08T01:50:00	0.2811	6.710	156.9	0.736484196	0.948209352	0.017882923	0.184494816	0.056863094
2019-10-08T01:55:00	0.2828	6.713	156.9	0.741923288	0.956828709	0.018134218	0.187087388	0.057662150
2019-10-08T02:00:00	0.2821	6.715	156.9	0.739656229	0.953232923	0.018029248	0.186004432	0.057328372
2019-10-08T02:05:00	0.2796	6.717	156.9	0.731600152	0.940491758	0.017658867	0.182183272	0.056150654
2019-10-08T02:10:00	0.2799	6.721	156.9	0.732545234	0.941983508	0.017702105	0.182629351	0.056288140
2019-10-08T02:15:00	0.2789	6.723	156.9	0.729628606	0.937382328	0.017568849	0.181254574	0.055864420
2019-10-08T02:20:00	0.2798	6.729	157.0	0.732504934	0.941919881	0.017700260	0.182610318	0.056282273
2019-10-08T02:25:00	0.2799	6.737	157.0	0.732806479	0.942396005	0.017714067	0.182752762	0.056326176
2019-10-08T02:30:00	0.2819	6.747	157.1	0.739214444	0.952532734	0.018008831	0.185793786	0.057263449
2019-10-08T02:35:00	0.2811	6.759	157.1	0.736624401	0.948431208	0.017889377	0.184561403	0.056883617
2019-10-08T02:40:00	0.2821	6.769	157.2	0.739816426	0.953486863	0.018036655	0.186080846	0.057351924
2019-10-08T02:45:00	0.2820	6.781	157.2	0.739475223	0.952946024	0.018020881	0.185918111	0.057301768
2019-10-08T02:50:00	0.2825	6.794	157.3	0.741060305	0.955459398	0.018094222	0.186674752	0.057534971
2019-10-08T02:55:00	0.2812	6.806	157.3	0.736865235	0.948812337	0.017900466	0.184675810	0.056918878
2019-10-08T03:00:00	0.2798	6.818	157.3	0.732343731	0.941665383	0.017692881	0.182534193	0.056258811
2019-10-08T03:05:00	0.2820	6.831	157.4	0.739394772	0.952818517	0.018017163	0.185879752	0.057289945
2019-10-08T03:10:00	0.2793	6.845	157.5	0.730694457	0.939062915	0.017617483	0.181756330	0.056019066
2019-10-08T03:15:00	0.2818	6.859	157.6	0.738712258	0.951737023	0.017985636	0.185554495	0.057189698
2019-10-08T03:20:00	0.2829	6.873	157.6	0.742223382	0.957305029	0.018148138	0.187230993	0.057706410
2019-10-08T03:25:00	0.2837	6.886	157.7	0.744769378	0.961349313	0.018266461	0.188451706	0.058082646
2019-10-08T03:30:00	0.2844	6.899	157.7	0.746993194	0.964886498	0.018370147	0.189521421	0.058412343
2019-10-08T03:35:00	0.2838	6.912	157.8	0.745370465	0.962304967	0.018294456	0.188740525	0.058171663
2019-10-08T03:40:00	0.2801	6.924	157.9	0.733469239	0.943442747	0.017744433	0.183066045	0.056422733
2019-10-08T03:45:00	0.2810	6.937	157.9	0.736342603	0.947985315	0.017876406	0.184427583	0.056842372
2019-10-08T03:50:00	0.2789	6.951	158.0	0.729567416	0.937285877	0.017566059	0.181225791	0.055855549
2019-10-08T03:55:00	0.2800	6.964	158.0	0.733087161	0.942839258	0.017726924	0.182885404	0.056367058
2019-10-08T04:00:00	0.2803	6.978	158.1	0.734031866	0.944331645	0.017770233	0.183332220	0.056504771
2019-10-08T04:05:00	0.2784	6.992	158.4	0.727765686	0.934447354	0.017484016	0.180379371	0.055594674
2019-10-08T04:10:00	0.2803	7.006	158.5	0.734051498	0.944362667	0.017771134	0.183341512	0.056507635
2019-10-08T04:15:00	0.2802	7.022	158.6	0.733578923	0.943616015	0.017749461	0.183117919	0.056438721
2019-10-08T04:20:00	0.2797	7.037	158.6	0.732141196	0.941345665	0.017683613	0.182438574	0.056229340
2019-10-08T04:25:00	0.2816	7.052	158.7	0.738098419	0.950764702	0.017957307	0.185262226	0.057099617
2019-10-08T04:30:00	0.2828	7.067	158.8	0.742121366	0.957143098	0.018143405	0.187182168	0.057691362
2019-10-08T04:35:00	0.2811	7.083	158.9	0.736511568	0.948252663	0.017884183	0.184507814	0.056867100
2019-10-08T04:40:00	0.2793	7.099	158.9	0.730893315	0.939376576	0.017626565	0.181850025	0.056047944
2019-10-08T04:45:00	0.2806	7.114	159.0	0.734924041	0.945741770	0.017811186	0.183754727	0.056634991
2019-10-08T04:50:00	0.2824	7.130	159.1	0.740876822	0.955168345	0.018085724	0.186587082	0.057507951
2019-10-08T04:55:00	0.2799	7.147	159.2	0.732692510	0.942216044	0.017708848	0.182698918	0.056309581
2019-10-08T05:00:00	0.2789	7.163	159.2	0.729323046	0.936900720	0.017554919	0.181110867	0.055820128
2019-10-08T05:05:00	0.2787	7.179	159.2	0.728849870	0.936155084	0.017533360	0.180888448	0.055751576
2019-10-08T05:10:00	0.2791	7.195	159.4	0.729986609	0.937946701	0.017585176	0.181423024	0.055916338
2019-10-08T05:15:00	0.2804	7.210	159.4	0.734339879	0.944818396	0.017784366	0.183478027	0.056549710
2019-10-08T05:20:00	0.2800	7.225	159.5	0.732902447	0.942547549	0.017718462	0.182798107	0.056340152
2019-10-08T05:25:00	0.2821	7.239	159.5	0.739821808	0.953495395	0.018036904	0.186083414	0.057352715
2019-10-08T05:30:00	0.2777	7.255	159.6	0.725516274	0.930907527	0.017381875	0.179325600	0.055269892
2019-10-08T05:35:00	0.2773	7.270	159.7	0.724397848	0.929149148	0.017331208	0.178802881	0.055108785
2019-10-08T05:40:00	0.2785	7.285	159.8	0.728113545	0.934995164	0.017499840	0.180542624	0.055644990
2019-10-08T05:45:00	0.2770	7.301	159.7	0.723450180	0.927660090	0.017288339	0.178360605	0.054972471
2019-10-08T05:50:00	0.2770	7.317	159.9	0.723298774	0.927422261	0.017281495	0.178289998	0.054950709
2019-10-08T05:55:00	0.2765	7.332	160.0	0.721857063	0.925158619	0.017216399	0.177618413	0.054743720
2019-10-08T06:00:00	0.2786	7.348	160.0	0.728474941	0.935564405	0.017516288	0.180712314	0.055697290
2019-10-08T06:05:00	0.2800	7.364	160.1	0.733151645	0.942941101	0.017729878	0.182915884	0.056376452
2019-10-08T06:10:00	0.2809	7.382	160.2	0.735894491	0.947276407	0.017855790	0.184214891	0.056776819
2019-10-08T06:15:00	0.2813	7.399	160.3	0.737350384	0.949580261	0.017922817	0.184906395	0.056989947
2019-10-08T06:20:00	0.2831	7.417	160.4	0.742978508	0.958503941	0.018183189	0.187592606	0.057817863
2019-10-08T06:25:00	0.2805	7.435	160.5	0.734477288	0.945035569	0.017790673	0.183543094	0.056569764
2019-10-08T06:30:00	0.2812	7.453	160.5	0.736897844	0.948863947	0.017901968	0.184691304	0.056923654
2019-10-08T06:35:00	0.2812	7.472	160.6	0.736746986	0.948625196	0.017895021	0.184619631	0.056901563
2019-10-08T06:40:00	0.2775	7.491	160.7	0.725009351	0.930110412	0.017358901	0.179088579	0.055196839
2019-10-08T06:45:00	0.2804	7.512	160.8	0.734194999	0.944589433	0.017777718	0.183409436	0.056528570
2019-10-08T06:50:00	0.2787	7.531	160.9	0.728895280	0.936226631	0.017535429	0.180909787	0.055758153
2019-10-08T06:55:00	0.2791	7.551	160.9	0.730032005	0.938018273	0.017587247	0.181444390	0.055922923
2019-10-08T07:00:00	0.2819	7.570	161.0	0.739205278	0.952518209	0.018008407	0.185789417	0.057262103
2019-10-08T07:05:00	0.2799	7.588	161.1	0.732626124	0.942111223	0.017705808	0.182667558	0.056299915
2019-10-08T07:10:00	0.2792	7.608	161.2	0.730544331	0.938826143	0.017610629	0.181685612	0.055997270
2019-10-08T07:15:00	0.2806	7.630	161.3	0.734896949	0.945698940	0.017809942	0.183741889	0.056631035
2019-10-08T07:20:00	0.2781	7.649	161.4	0.727021665	0.933276021	0.017450196	0.180030459	0.055487136
2019-10-08T07:25:00	0.2795	7.665	161.4	0.731378405	0.940141859	0.017648730	0.182078692	0.056118421
2019-10-08T07:30:00	0.2795	7.682	161.5	0.731549126	0.940411241	0.017656534	0.182159204	0.056143236
2019-10-08T07:35:00	0.2798	7.699	161.6	0.732363335	0.941696331	0.017693778	0.182543449	0.056261664
2019-10-08T07:40:00	0.2812	7.715	161.7	0.736713829	0.948572724	0.017893494	0.184603881	0.056896709
2019-10-08T07:45:00	0.2814	7.730	161.7	0.737526909	0.949859726	0.017930953	0.184990333	0.057015817
2019-10-08T07:50:00	0.2814	7.744	161.7	0.737376076	0.949620932	0.017924001	0.184918610	0.056993711
2019-10-08T07:55:00	0.2805	7.756	161.7	0.734653949	0.945314803	0.017798783	0.183626765	0.056595552
2019-10-08T08:00:00	0.2805	7.768	161.7	0.734502999	0.945076207	0.017791853	0.183555270	0.056573517
2019-10-08T08:05:00	0.2800	7.781	161.7	0.733065630	0.942805253	0.017725937	0.182875227	0.056363921
2019-10-08T08:10:00	0.2805	7.791	161.8	0.734522629	0.945107233	0.017792754	0.183564566	0.056576382
2019-10-08T08:15:00	0.2803	7.801	161.8	0.734050113	0.944360480	0.017771070	0.183340857	0.056507433
2019-10-08T08:20:00	0.2795	7.814	161.8	0.731325554	0.940058471	0.017646314	0.182053771	0.056110740
2019-10-08T08:25:00	0.2795	7.828	161.9	0.731496278	0.940327848	0.017654118	0.182134279	0.056135554
2019-10-08T08:30:00	0.2806	7.844	162.0	0.734883403	0.945677524	0.017809320	0.183735470	0.056629056
2019-10-08T08:35:00	0.2814	7.859	162.1	0.737624975	0.950014991	0.017935473	0.185036972	0.057030192
2019-10-08T08:40:00	0.2782	7.873	162.1	0.727179013	0.933523697	0.017457346	0.180104218	0.055509869
2019-10-08T08:45:00	0.2776	7.887	162.2	0.725416501	0.930750621	0.017377352	0.179278936	0.055255509
2019-10-08T08:50:00	0.2791	7.904	162.3	0.730097052	0.938120831	0.017590215	0.181475007	0.055932360
2019-10-08T08:55:00	0.2776	7.918	162.4	0.725436178	0.930781565	0.017378244	0.179288139	0.055258346
2019-10-08T09:00:00	0.2792	7.932	162.4	0.730438604	0.938659408	0.017605802	0.181635818	0.055981923
2019-10-08T09:05:00	0.2812	7.945	162.5	0.736719907	0.948582343	0.017893774	0.184606768	0.056897599
2019-10-08T09:10:00	0.2784	7.958	162.6	0.727882287	0.934630966	0.017489319	0.180434084	0.055611537
2019-10-08T09:15:00	0.2781	7.973	162.6	0.726764575	0.932871390	0.017438518	0.179909979	0.055450003
2019-10-08T09:20:00	0.2741	7.988	162.7	0.714025467	0.912893923	0.016865068	0.173993796	0.053626578
2019-10-08T09:25:00	0.2721	8.001	162.7	0.707401448	0.902562146	0.016570911	0.170959035	0.052691235
2019-10-08T09:30:00	0.2731	8.010	162.7	0.710810661	0.907874870	0.016721963	0.172517410	0.053171541
2019-10-08T09:35:00	0.2729	8.019	162.6	0.710011461	0.906628534	0.016686488	0.172151417	0.053058739
2019-10-08T09:40:00	0.2721	8.027	162.6	0.707593051	0.902860461	0.016579381	0.171046419	0.052718167
2019-10-08T09:45:00	0.2716	8.037	162.7	0.705821179	0.900102977	0.016501141	0.170239225	0.052469383
2019-10-08T09:50:00	0.2713	8.049	162.7	0.705020897	0.898858430	0.016465867	0.169875312	0.052357221
2019-10-08T09:55:00	0.2695	8.057	162.8	0.699029975	0.889559422	0.016203076	0.167164149	0.051521614
2019-10-08T10:00:00	0.2702	8.066	162.8	0.701473821	0.893348953	0.016310005	0.168267312	0.051861620
2019-10-08T10:05:00	0.2695	8.076	162.8	0.698969489	0.889465696	0.016200434	0.167136894	0.051513214
2019-10-08T10:10:00	0.2693	8.088	162.9	0.698412094	0.888602131	0.016176100	0.166885843	0.051435838
2019-10-08T10:15:00	0.2679	8.099	163.0	0.693955697	0.881707584	0.015982242	0.164885849	0.050819420
2019-10-08T10:20:00	0.2681	8.111	163.0	0.694372805	0.882352167	0.016000335	0.165072503	0.050876949
2019-10-08T10:25:00	0.2676	8.121	163.1	0.692839296	0.879983083	0.015933871	0.164386813	0.050665612
2019-10-08T10:30:00	0.2666	8.132	163.2	0.689678195	0.875105992	0.015797328	0.162978119	0.050231439
2019-10-08T10:35:00	0.2649	8.144	163.2	0.684233442	0.866725841	0.015563595	0.160566739	0.049488228
2019-10-08T10:40:00	0.2648	8.155	163.3	0.683673799	0.865865932	0.015539675	0.160319957	0.049412168
2019-10-08T10:45:00	0.2658	8.166	163.4	0.687024544	0.871018492	0.015683182	0.161800499	0.049868485
2019-10-08T10:50:00	0.2642	8.178	163.4	0.681902003	0.863145294	0.015464072	0.159539979	0.049171771
2019-10-08T10:55:00	0.2635	8.192	163.5	0.679710609	0.859784100	0.015370833	0.158578055	0.048875297
2019-10-08T11:00:00	0.2635	8.207	163.5	0.679476659	0.859425508	0.015360897	0.158475542	0.048843701
2019-10-08T11:05:00	0.2631	8.221	174.7	0.678263381	0.857566590	0.015309420	0.157944465	0.048680018
2019-10-08T11:10:00	0.2644	8.236	163.6	0.682597506	0.864212934	0.015493726	0.159845914	0.049266063
2019-10-08T11:15:00	0.2632	8.249	174.7	0.678448268	0.857849781	0.015317259	0.158025334	0.048704943
2019-10-08T11:20:00	0.2613	8.263	174.9	0.672332748	0.848498228	0.015059103	0.155361985	0.047884073
2019-10-08T11:25:00	0.2619	8.276	174.9	0.674386846	0.851635665	0.015145556	0.156253905	0.048158971
2019-10-08T11:30:00	0.2627	8.288	174.8	0.677093016	0.855774620	0.015259850	0.157433060	0.048522398
2019-10-08T11:35:00	0.2627	8.298	174.7	0.676858898	0.855416298	0.015249944	0.157330864	0.048490900
2019-10-08T11:40:00	0.2628	8.311	174.6	0.677277962	0.856057716	0.015267678	0.157513816	0.048547288
2019-10-08T11:45:00	0.2638	8.325	163.3	0.680634582	0.861200799	0.015410110	0.158983264	0.049000186
2019-10-08T11:50:00	0.2648	8.341	163.4	0.683662131	0.865848007	0.015539176	0.160314814	0.049410583
2019-10-08T11:55:00	0.2654	8.359	163.5	0.685709856	0.868995694	0.015626793	0.161218743	0.049689182
2019-10-08T12:00:00	0.2636	8.375	174.6	0.679932864	0.860124810	0.015380276	0.158675476	0.048905323
2019-10-08T12:05:00	0.2618	8.390	174.8	0.674146704	0.851268685	0.015135435	0.156149494	0.048126790
2019-10-08T12:10:00	0.2606	8.403	174.9	0.669987820	0.844921009	0.014960727	0.154347059	0.047571263
2019-10-08T12:15:00	0.2637	8.423	174.9	0.680210064	0.860549808	0.015392058	0.158797024	0.048942785
2019-10-08T12:20:00	0.2633	8.439	164.0	0.678997031	0.858690496	0.015340536	0.158265487	0.048778960
2019-10-08T12:25:00	0.2613	8.455	175.1	0.672228446	0.848339013	0.015054720	0.155316767	0.047870136
2019-10-08T12:30:00	0.2617	8.472	175.4	0.673628867	0.850477503	0.015113623	0.155924467	0.048057435
2019-10-08T12:35:00	0.2610	8.493	175.4	0.671432488	0.847124311	0.015021294	0.154971924	0.047763852
2019-10-08T12:40:00	0.2596	8.514	175.5	0.666943009	0.840283157	0.014833494	0.153034419	0.047166694
2019-10-08T12:45:00	0.2593	8.531	164.5	0.665725541	0.838430938	0.014782779	0.152511205	0.047005435
2019-10-08T12:50:00	0.2600	8.549	164.6	0.668110787	0.842060974	0.014882224	0.153537162	0.047321644
2019-10-08T12:55:00	0.2580	8.567	164.5	0.661649860	0.832239564	0.014613665	0.150766489	0.046467696
2019-10-08T13:00:00	0.2569	8.590	164.6	0.657804952	0.826411795	0.014455060	0.149130192	0.045963374
2019-10-08T13:05:00	0.2554	8.616	164.8	0.652969786	0.819101020	0.014256891	0.147085717	0.045333247
2019-10-08T13:10:00	0.2537	8.638	164.9	0.647469655	0.810809073	0.014033205	0.144777984	0.044621981
2019-10-08T13:15:00	0.2555	8.659	165.0	0.653484701	0.819878622	0.014277927	0.147302740	0.045400135
2019-10-08T13:20:00	0.2556	8.684	165.1	0.653577779	0.820019209	0.014281731	0.147341988	0.045412232
2019-10-08T13:25:00	0.2545	8.708	165.2	0.650053313	0.814700960	0.014138050	0.145859658	0.044955363
2019-10-08T13:30:00	0.2554	8.731	165.2	0.653106481	0.819307428	0.014262474	0.147143314	0.045350998
2019-10-08T13:35:00	0.2562	8.751	165.3	0.655500055	0.822924298	0.014360416	0.148153763	0.045662428
2019-10-08T13:40:00	0.2556	8.769	165.4	0.653621376	0.820085062	0.014283513	0.147360373	0.045417898
2019-10-08T13:45:00	0.2556	8.785	165.5	0.653714451	0.820225654	0.014287318	0.147399627	0.045429997
2019-10-08T13:50:00	0.2552	8.801	165.6	0.652492523	0.818380481	0.014237408	0.146884714	0.045271295
2019-10-08T13:55:00	0.2569	8.817	165.7	0.657842623	0.826468831	0.014456610	0.149146179	0.045968301
2019-10-08T14:00:00	0.2581	8.830	165.7	0.661873223	0.832578506	0.014622907	0.150861833	0.046497082
2019-10-08T14:05:00	0.2621	8.844	165.8	0.675060394	0.852665235	0.015173961	0.156546954	0.048249291
2019-10-08T14:10:00	0.2581	8.855	165.9	0.661730990	0.832362670	0.014617021	0.150801116	0.046478369
2019-10-08T14:15:00	0.2601	8.868	166.0	0.668377171	0.842466680	0.014893352	0.153651965	0.047357028
2019-10-08T14:20:00	0.2583	8.882	166.1	0.662572568	0.833640005	0.014651862	0.151160561	0.046589153
2019-10-08T14:25:00	0.2565	8.893	166.1	0.656758647	0.824828088	0.014412056	0.148686528	0.045826632
2019-10-08T14:30:00	0.2562	8.905	166.2	0.655537749	0.822981296	0.014361961	0.148169704	0.045667342
2019-10-08T14:35:00	0.2565	8.915	166.2	0.656616213	0.824612569	0.014406207	0.148626185	0.045808034
2019-10-08T14:40:00	0.2559	8.922	166.3	0.654738116	0.821772420	0.014329200	0.147831718	0.045563171
2019-10-08T14:45:00	0.2546	8.929	177.6	0.650227868	0.814964107	0.014145148	0.145932889	0.044977934
2019-10-08T14:50:00	0.2556	8.935	166.4	0.653609612	0.820067291	0.014283032	0.147355411	0.045416369
2019-10-08T14:55:00	0.2563	8.941	166.4	0.656002852	0.823684684	0.014381034	0.148366478	0.045727990
2019-10-08T15:00:00	0.2543	8.947	166.4	0.649520240	0.813897501	0.014116385	0.145636138	0.044886472
2019-10-08T15:05:00	0.2546	8.954	166.4	0.650271506	0.815029895	0.014146923	0.145951199	0.044983577
2019-10-08T15:10:00	0.2577	8.960	166.5	0.660549412	0.830570311	0.014568178	0.150297211	0.046323060
2019-10-08T15:15:00	0.2566	8.967	166.5	0.657031745	0.825241364	0.014423274	0.148802263	0.045862303
2019-10-08T15:20:00	0.2581	8.973	166.5	0.662047208	0.832842550	0.014630108	0.150936123	0.046519979
2019-10-08T15:25:00	0.2568	8.979	166.6	0.657546082	0.826019877	0.014444414	0.149020359	0.045929522
2019-10-08T15:30:00	0.2577	8.986	166.7	0.660592925	0.830636295	0.014569976	0.150315752	0.046328775
2019-10-08T15:35:00	0.2574	8.991	166.7	0.659701491	0.829284818	0.014533180	0.149936144	0.046211776
2019-10-08T15:40:00	0.2585	8.996	166.8	0.663074384	0.834401943	0.014672658	0.151375103	0.046655277
2019-10-08T15:45:00	0.2562	9.001	166.8	0.655619016	0.823104185	0.014365293	0.148204077	0.045677936
2019-10-08T15:50:00	0.2552	9.008	166.9	0.652425375	0.818279121	0.014234668	0.146856445	0.045262583
2019-10-08T15:55:00	0.2580	9.013	167.0	0.661713382	0.832335951	0.014616293	0.150793600	0.046476052
2019-10-08T16:00:00	0.2573	9.018	167.1	0.659181587	0.828496922	0.014511743	0.149714980	0.046143611
2019-10-08T16:05:00	0.2585	9.022	167.1	0.663300592	0.834745479	0.014682037	0.151471867	0.046685100
2019-10-08T16:10:00	0.2596	9.028	167.1	0.666759947	0.840004571	0.014825862	0.152955687	0.047142428
2019-10-08T16:15:00	0.2564	9.033	167.1	0.656447323	0.824357043	0.014399274	0.148554651	0.045785986
2019-10-08T16:20:00	0.2550	9.037	167.2	0.651700521	0.817185199	0.014205107	0.146551471	0.045168587
2019-10-08T16:25:00	0.2554	9.041	167.2	0.652870287	0.818950787	0.014252828	0.147043801	0.045320327
2019-10-08T16:30:00	0.2567	9.044	167.2	0.657324869	0.825685016	0.014435320	0.148926537	0.045900605
2019-10-08T16:35:00	0.2563	9.047	167.3	0.655865746	0.823477316	0.014375410	0.148308458	0.045710107
2019-10-08T16:40:00	0.2555	9.050	167.3	0.653419992	0.819780889	0.014275282	0.147275457	0.045391726
2019-10-08T16:45:00	0.2554	9.053	167.3	0.652945730	0.819064698	0.014255909	0.147075583	0.045330123
2019-10-08T16:50:00	0.2545	9.056	167.3	0.650168989	0.814875341	0.014142754	0.145908185	0.044970320
2019-10-08T16:55:00	0.2557	9.058	167.4	0.653969613	0.820611122	0.014297752	0.147507269	0.045463173
2019-10-08T17:00:00	0.2580	9.061	167.4	0.661704058	0.832321803	0.014615907	0.150789621	0.046474826
2019-10-08T17:05:00	0.2567	9.063	167.4	0.657292549	0.825636095	0.014433992	0.148912832	0.045896381
2019-10-08T17:10:00	0.2575	9.066	167.4	0.659773335	0.829393715	0.014536144	0.149966720	0.046221199
2019-10-08T17:15:00	0.2562	9.068	167.4	0.655688003	0.823208508	0.014368121	0.148233258	0.045686930
2019-10-08T17:20:00	0.2567	9.071	167.4	0.657184875	0.825473121	0.014429567	0.148867178	0.045882310
2019-10-08T17:25:00	0.2554	9.075	167.2	0.653096613	0.819292528	0.014262071	0.147139156	0.045349717
2019-10-08T17:30:00	0.2584	9.078	167.2	0.662800702	0.833986368	0.014661314	0.151258075	0.046619208
2019-10-08T17:35:00	0.2582	9.081	167.0	0.662327670	0.833268239	0.014641719	0.151055916	0.046556900
2019-10-08T17:40:00	0.2557	9.084	166.9	0.653974973	0.820619221	0.014297971	0.147509531	0.045463870
2019-10-08T17:45:00	0.2582	9.087	166.9	0.662365293	0.833325350	0.014643277	0.151071990	0.046561855
2019-10-08T17:50:00	0.2604	9.089	166.8	0.669427354	0.844066712	0.014937264	0.154104997	0.047496657
2019-10-08T17:55:00	0.2627	9.092	166.7	0.676802336	0.855329736	0.015247552	0.157306179	0.048483292
2019-10-08T18:00:00	0.2612	9.095	166.5	0.672082136	0.848115691	0.015048573	0.155253349	0.047850590
2019-10-08T18:05:00	0.2624	9.097	166.4	0.675859851	0.853887773	0.015207712	0.156895157	0.048356611
2019-10-08T18:10:00	0.2647	9.100	166.3	0.683547851	0.865672446	0.015534294	0.160264446	0.049395059
2019-10-08T18:15:00	0.2646	9.102	166.2	0.683077510	0.864950013	0.015514209	0.160057236	0.049331195
2019-10-08T18:20:00	0.2631	9.105	166.1	0.678365440	0.857722910	0.015313747	0.157989102	0.048693776
2019-10-08T18:25:00	0.2624	9.107	166.2	0.675934818	0.854002441	0.015210879	0.156927830	0.048366681
2019-10-08T18:30:00	0.2616	9.110	166.2	0.673502571	0.850284576	0.015108306	0.155869611	0.048040528
2019-10-08T18:35:00	0.2608	9.111	166.3	0.670741555	0.846070328	0.014992311	0.154672909	0.047671693
2019-10-08T18:40:00	0.2619	9.114	166.3	0.674193831	0.851340698	0.015137421	0.156169981	0.048133105
2019-10-08T18:45:00	0.2606	9.115	166.3	0.670124726	0.845129732	0.014966461	0.154406219	0.047589496
2019-10-08T18:50:00	0.2612	9.116	166.4	0.671942711	0.847902894	0.015042716	0.155192928	0.047831968
2019-10-08T18:55:00	0.2617	9.118	166.4	0.673759787	0.850677507	0.015119136	0.155981342	0.048074965
2019-10-08T19:00:00	0.2599	9.119	166.4	0.667726155	0.841475285	0.014866164	0.153371478	0.047270579
2019-10-08T19:05:00	0.2606	9.121	166.4	0.670199811	0.845244211	0.014969606	0.154438669	0.047599498
2019-10-08T19:10:00	0.2593	9.123	166.4	0.665798639	0.838542111	0.014785821	0.152542593	0.047015109
2019-10-08T19:15:00	0.2582	9.124	166.4	0.662375990	0.833341587	0.014643720	0.151076560	0.046563263
2019-10-08T19:20:00	0.2579	9.126	166.3	0.661246932	0.831628249	0.014597002	0.150594574	0.046414710
2019-10-08T19:25:00	0.2601	9.128	166.3	0.668311170	0.842366154	0.014890594	0.153623516	0.047348260
2019-10-08T19:30:00	0.2615	9.129	166.2	0.673073777	0.849629661	0.015090261	0.155683442	0.047983149
2019-10-08T19:35:00	0.2608	9.130	166.3	0.670639616	0.845914860	0.014988037	0.154628818	0.047658103
2019-10-08T19:40:00	0.2606	9.132	166.2	0.670167605	0.845195108	0.014968257	0.154424750	0.047595208
2019-10-08T19:45:00	0.2596	9.133	166.2	0.666749078	0.839988031	0.014825409	0.152951014	0.047140988
2019-10-08T19:50:00	0.2606	9.135	166.2	0.670205148	0.845252347	0.014969830	0.154440976	0.047600209
2019-10-08T19:55:00	0.2610	9.136	166.2	0.671368950	0.847027370	0.015018628	0.154944414	0.047755373
2019-10-08T20:00:00	0.2638	9.138	166.2	0.680371828	0.860797852	0.015398935	0.158867978	0.048964654
2019-10-08T20:05:00	0.2644	9.139	166.2	0.682510820	0.864079843	0.015490028	0.159807766	0.049254305
2019-10-08T20:10:00	0.2634	9.141	166.2	0.679103875	0.858854214	0.015345071	0.158312267	0.048793378
2019-10-08T20:15:00	0.2627	9.142	166.2	0.677000354	0.855632794	0.015255929	0.157392608	0.048509930
2019-10-08T20:20:00	0.2633	9.144	166.3	0.678814908	0.858411452	0.015332809	0.158185764	0.048754389
2019-10-08T20:25:00	0.2619	9.145	166.3	0.674424160	0.851692691	0.015147128	0.156270132	0.048163972
2019-10-08T20:30:00	0.2649	9.148	166.2	0.684071480	0.866476953	0.015556670	0.160495299	0.049466210
2019-10-08T20:35:00	0.2651	9.148	166.3	0.684904989	0.867758050	0.015592324	0.160863131	0.049579579
2019-10-08T20:40:00	0.2654	9.150	166.3	0.685738308	0.869039455	0.015628012	0.161231322	0.049693059
2019-10-08T20:45:00	0.2629	9.151	166.3	0.677439338	0.856304758	0.015274510	0.157584299	0.048569011
2019-10-08T20:50:00	0.2614	9.152	166.2	0.672719966	0.849089388	0.015075380	0.155529916	0.047935831
2019-10-08T20:55:00	0.2627	9.154	166.2	0.676823644	0.855362345	0.015248453	0.157315478	0.048486158
2019-10-08T21:00:00	0.2628	9.155	166.0	0.677332260	0.856140836	0.015269976	0.157537530	0.048554597
2019-10-08T21:05:00	0.2626	9.156	166.0	0.676534496	0.854919874	0.015236224	0.157189315	0.048447274
2019-10-08T21:10:00	0.2598	9.157	166.0	0.667559674	0.841221818	0.014859216	0.153299793	0.047248485
2019-10-08T21:15:00	0.2605	9.159	166.1	0.669706208	0.844491725	0.014948935	0.154225408	0.047533768
2019-10-08T21:20:00	0.2618	9.160	166.0	0.674140152	0.851258672	0.015135159	0.156146645	0.048125912
2019-10-08T21:25:00	0.2588	9.161	166.0	0.664176292	0.836075795	0.014718375	0.151846764	0.046800647
2019-10-08T21:30:00	0.2561	9.161	166.1	0.655170796	0.822426474	0.014346922	0.148014552	0.045619522
2019-10-08T21:35:00	0.2567	9.162	166.1	0.657324683	0.825684735	0.014435313	0.148926458	0.045900581
2019-10-08T21:40:00	0.2594	9.162	166.2	0.666034844	0.838901381	0.014795655	0.152644041	0.047046376
2019-10-08T21:45:00	0.2620	9.164	166.3	0.674724135	0.852151189	0.015159776	0.156400617	0.048204189
2019-10-08T21:50:00	0.2638	9.164	166.3	0.680457345	0.860928991	0.015402572	0.158905495	0.048976217
2019-10-08T21:55:00	0.2638	9.165	166.3	0.680639201	0.861207884	0.015410307	0.158985292	0.049000811
2019-10-08T22:00:00	0.2633	9.167	166.3	0.678863009	0.858485148	0.015334850	0.158206818	0.048760878
2019-10-08T22:05:00	0.2598	9.168	166.4	0.667481085	0.841102176	0.014855937	0.153265960	0.047238057
2019-10-08T22:10:00	0.2602	9.169	166.3	0.668851639	0.843189450	0.014913183	0.153856556	0.047420085
2019-10-08T22:15:00	0.2651	9.169	166.3	0.684916136	0.867775187	0.015592801	0.160868053	0.049581096
2019-10-08T22:20:00	0.2643	9.172	166.3	0.682042747	0.863361311	0.015470070	0.159601864	0.049190844
2019-10-08T22:25:00	0.2658	9.172	166.3	0.686992302	0.870968867	0.015681798	0.161786218	0.049864084
2019-10-08T22:30:00	0.2633	9.174	166.3	0.678901497	0.858544118	0.015336483	0.158223665	0.048766070
2019-10-08T22:35:00	0.2652	9.175	166.2	0.685159002	0.868148585	0.015603198	0.160975316	0.049614156
2019-10-08T22:40:00	0.2630	9.177	166.1	0.678043761	0.857230234	0.015300112	0.157848433	0.048650420
2019-10-08T22:45:00	0.2613	9.178	166.0	0.672222927	0.848330589	0.015054488	0.155314375	0.047869399
2019-10-08T22:50:00	0.2645	9.180	166.1	0.682733422	0.864421622	0.015499524	0.159905736	0.049284501
2019-10-08T22:55:00	0.2651	9.182	166.1	0.684750107	0.867519953	0.015585695	0.160794747	0.049558503
2019-10-08T23:00:00	0.2644	9.183	166.1	0.682528844	0.864107516	0.015490797	0.159815697	0.049256750
2019-10-08T23:05:00	0.2670	9.186	166.1	0.691058228	0.877234107	0.015856862	0.163592322	0.050420742
2019-10-08T23:10:00	0.2652	9.188	166.2	0.685258137	0.868301016	0.015607443	0.161019110	0.049627654
2019-10-08T23:15:00	0.2656	9.190	166.1	0.686296270	0.869897775	0.015651932	0.161478098	0.049769118
2019-10-08T23:20:00	0.2644	9.192	165.9	0.682445776	0.863979984	0.015487254	0.159779145	0.049245484
2019-10-08T23:25:00	0.2634	9.194	165.8	0.679244061	0.859069037	0.015351021	0.158373657	0.048812299
2019-10-08T23:30:00	0.2623	9.196	165.6	0.675712836	0.853662915	0.015201502	0.156831095	0.048336866
2019-10-08T23:35:00	0.2605	9.198	165.6	0.669888268	0.844769247	0.014956558	0.154304049	0.047558006
2019-10-08T23:40:00	0.2610	9.200	165.6	0.671257914	0.846857969	0.015013968	0.154896345	0.047740558
2019-10-08T23:45:00	0.2578	9.203	165.6	0.660836380	0.831005509	0.014580033	0.150419513	0.046360755
2019-10-08T23:50:00	0.2566	9.204	165.7	0.656958805	0.825130978	0.014420278	0.148771347	0.045852774
2019-10-08T23:55:00	0.2541	9.206	165.7	0.648800692	0.812813367	0.014087168	0.145334711	0.044793570
2019-10-09T00:00:00	0.2537	9.207	165.7	0.647545212	0.810922807	0.014036265	0.144809557	0.044631712
2019-10-09T00:05:00	0.2530	9.209	165.7	0.644971547	0.807051459	0.013932217	0.143736117	0.044300867
2019-10-09T00:10:00	0.2535	9.211	165.7	0.646680018	0.809620739	0.014001242	0.144448232	0.044520348
2019-10-09T00:15:00	0.2555	9.211	165.8	0.653322069	0.819632998	0.014271281	0.147234177	0.045379003
2019-10-09T00:20:00	0.2554	9.213	165.8	0.653054574	0.819229047	0.014260354	0.147121442	0.045344257
2019-10-09T00:25:00	0.2549	9.215	165.8	0.651471686	0.816839942	0.014195781	0.146455260	0.045138934
2019-10-09T00:30:00	0.2530	9.217	165.8	0.645278489	0.807512871	0.013944605	0.143863920	0.044340257
2019-10-09T00:35:00	0.2549	9.218	165.9	0.651265338	0.816528652	0.014187375	0.146368532	0.045112203
2019-10-09T00:40:00	0.2540	9.219	165.9	0.648365159	0.812157369	0.014069498	0.145152420	0.044737386
2019-10-09T00:45:00	0.2525	9.217	165.9	0.643485386	0.804818520	0.013872319	0.143118156	0.044110406
2019-10-09T00:50:00	0.2528	9.217	165.9	0.644535549	0.806396183	0.013914631	0.143554681	0.044244947
2019-10-09T00:55:00	0.2541	9.217	165.9	0.648878309	0.812930290	0.014090318	0.145367210	0.044803586
2019-10-09T01:00:00	0.2511	9.215	166.0	0.638721980	0.797674210	0.013681239	0.141146822	0.043502821
2019-10-09T01:05:00	0.2538	9.215	165.9	0.647684201	0.811132037	0.014041895	0.144867646	0.044649615
2019-10-09T01:10:00	0.2532	9.214	165.9	0.645769543	0.808251215	0.013964435	0.144068505	0.044403313
2019-10-09T01:15:00	0.2538	9.214	166.0	0.647806889	0.811316741	0.014046866	0.144918932	0.044665422
2019-10-09T01:20:00	0.2526	9.212	166.0	0.643915276	0.805464232	0.013889631	0.143296767	0.044165455
2019-10-09T01:25:00	0.2530	9.209	166.0	0.644965314	0.807042091	0.013931966	0.143733523	0.044300068
2019-10-09T01:30:00	0.2530	9.208	166.0	0.645026705	0.807134370	0.013934443	0.143759079	0.044307944
2019-10-09T01:35:00	0.2540	9.206	166.0	0.648381452	0.812181907	0.014070159	0.145159237	0.044739487
2019-10-09T01:40:00	0.2527	9.203	166.1	0.644160905	0.805833246	0.013899528	0.143398872	0.044196925
2019-10-09T01:45:00	0.2506	9.201	166.1	0.637294755	0.795537363	0.013624256	0.140558935	0.043321629
2019-10-09T01:50:00	0.2545	9.197	166.1	0.650210913	0.814938544	0.014144459	0.145925775	0.044975741
2019-10-09T01:55:00	0.2541	9.194	166.2	0.648626776	0.812551396	0.014080111	0.145261905	0.044771130
2019-10-09T02:00:00	0.2550	9.191	166.2	0.651649302	0.817107918	0.014203019	0.146529934	0.045161949
2019-10-09T02:05:00	0.2528	9.187	166.2	0.644467917	0.806294551	0.013911904	0.143526547	0.044236276
2019-10-09T02:10:00	0.2519	9.184	166.3	0.641562254	0.801931823	0.013795008	0.142320555	0.043864577
2019-10-09T02:15:00	0.2537	9.180	166.3	0.647555281	0.810937964	0.014036673	0.144813765	0.044633009
2019-10-09T02:20:00	0.2548	9.176	166.3	0.650907675	0.815989178	0.014172810	0.146218269	0.045065891
2019-10-09T02:25:00	0.2542	9.172	166.3	0.648994731	0.813105679	0.014095043	0.145415964	0.044818612
2019-10-09T02:30:00	0.2524	9.167	166.3	0.643126950	0.804280254	0.013857892	0.142969322	0.044064534
2019-10-09T02:35:00	0.2548	9.161	166.3	0.651091541	0.816266494	0.014180297	0.146295506	0.045089696
2019-10-09T02:40:00	0.2561	9.153	166.3	0.655426413	0.822812947	0.014357397	0.148122621	0.045652830
2019-10-09T02:45:00	0.2563	9.146	166.3	0.655816148	0.823402305	0.014373376	0.148287472	0.045703639
2019-10-09T02:50:00	0.2554	9.139	166.3	0.652919627	0.819025284	0.014254843	0.147064586	0.045326734
2019-10-09T02:55:00	0.2575	9.133	166.3	0.659878368	0.829552923	0.014540477	0.150011425	0.046234978
2019-10-09T03:00:00	0.2547	9.124	166.3	0.650740083	0.815736431	0.014165988	0.146147888	0.045044198
2019-10-09T03:05:00	0.2559	9.117	166.3	0.654746788	0.821785527	0.014329555	0.147835381	0.045564300
2019-10-09T03:10:00	0.2553	9.110	166.3	0.652835879	0.818898836	0.014251423	0.147029307	0.045315860
2019-10-09T03:15:00	0.2544	9.102	166.3	0.649607905	0.814029614	0.014119946	0.145672884	0.044897798
2019-10-09T03:20:00	0.2546	9.094	166.3	0.650327291	0.815114000	0.014149192	0.145974608	0.044990792
2019-10-09T03:25:00	0.2544	9.086	166.3	0.649730527	0.814214421	0.014124929	0.145724291	0.044913642
2019-10-09T03:30:00	0.2548	9.080	166.3	0.651107822	0.816291052	0.014180960	0.146302346	0.045091804
2019-10-09T03:35:00	0.2562	9.074	166.3	0.655771201	0.823334329	0.014371533	0.148268455	0.045697778
2019-10-09T03:40:00	0.2544	9.069	166.3	0.649585392	0.813995687	0.014119032	0.145663447	0.044894889
2019-10-09T03:45:00	0.2564	9.063	166.3	0.656222100	0.824016322	0.014390030	0.148459284	0.045756593
2019-10-09T03:50:00	0.2564	9.057	166.2	0.656283299	0.824108901	0.014392541	0.148485194	0.045764579
2019-10-09T03:55:00	0.2544	9.050	166.2	0.649769325	0.814272898	0.014126506	0.145740558	0.044918655
2019-10-09T04:00:00	0.2547	9.045	166.2	0.650817658	0.815853419	0.014169146	0.146180464	0.045054239
2019-10-09T04:05:00	0.2555	9.040	166.2	0.653206867	0.819459021	0.014266575	0.147185620	0.045364037
2019-10-09T04:10:00	0.2556	9.033	166.2	0.653622791	0.820087199	0.014283571	0.147360969	0.045418082
2019-10-09T04:15:00	0.2570	9.027	166.2	0.658308842	0.827174827	0.014475795	0.149344103	0.046029303
2019-10-09T04:20:00	0.2588	9.021	166.2	0.664300018	0.836263804	0.014723513	0.151899772	0.046816985
2019-10-09T04:25:00	0.2584	9.016	166.2	0.662747931	0.833906245	0.014659127	0.151235516	0.046612255
2019-10-09T04:30:00	0.2587	9.011	166.2	0.663818382	0.835531998	0.014703518	0.151693480	0.046753404
2019-10-09T04:35:00	0.2616	9.004	166.2	0.673398340	0.850125364	0.015103919	0.155824346	0.048026577
2019-10-09T04:40:00	0.2613	8.996	166.1	0.672504195	0.848759959	0.015066309	0.155436328	0.047906986
2019-10-09T04:45:00	0.2637	8.990	166.2	0.680103954	0.860387115	0.015387547	0.158750491	0.048928443
2019-10-09T04:50:00	0.2639	8.983	166.2	0.680843072	0.861520572	0.015418980	0.159074773	0.049028390
2019-10-09T04:55:00	0.2646	8.975	166.1	0.683212596	0.865157482	0.015519976	0.160116734	0.049349532
2019-10-09T05:00:00	0.2664	8.967	166.1	0.689162926	0.874311832	0.015775130	0.162749104	0.050160854
2019-10-09T05:05:00	0.2665	8.959	166.1	0.689249270	0.874444894	0.015778848	0.162787468	0.050172679
2019-10-09T05:10:00	0.2658	8.951	166.1	0.687056453	0.871067607	0.015684552	0.161814633	0.049872841
2019-10-09T05:15:00	0.2671	8.944	166.0	0.691374342	0.877721810	0.015870516	0.163733184	0.050464157
2019-10-09T05:20:00	0.2679	8.937	166.1	0.693737054	0.881369762	0.015972763	0.164788052	0.050789278
2019-10-09T05:25:00	0.2694	8.929	166.0	0.698696465	0.889042670	0.016188512	0.167013899	0.051475306
2019-10-09T05:30:00	0.2697	8.923	166.0	0.699756421	0.890685339	0.016234822	0.167491669	0.051622559
2019-10-09T05:35:00	0.2701	8.916	166.0	0.701140533	0.892831837	0.016295400	0.168116638	0.051815181
2019-10-09T05:40:00	0.2699	8.908	166.0	0.700253148	0.891455478	0.016256549	0.167715815	0.051691643
2019-10-09T05:45:00	0.2717	8.902	165.8	0.706175915	0.900654818	0.016516789	0.170400667	0.052519140
2019-10-09T05:50:00	0.2725	8.896	165.9	0.708852914	0.904822791	0.016635132	0.171621593	0.052895442
2019-10-09T05:55:00	0.2733	8.892	165.9	0.711527971	0.908993975	0.016753837	0.172846253	0.053272894
2019-10-09T06:00:00	0.2729	8.888	165.9	0.709995808	0.906604128	0.016685793	0.172144252	0.053056530
2019-10-09T06:05:00	0.2747	8.886	165.9	0.715902954	0.915829284	0.016948942	0.174859114	0.053893277
2019-10-09T06:10:00	0.2751	8.886	165.9	0.717281018	0.917985780	0.017010647	0.175495705	0.054089481
2019-10-09T06:15:00	0.2738	8.886	165.9	0.713165026	0.911549693	0.016826702	0.173597987	0.053504586
2019-10-09T06:20:00	0.2740	8.886	165.9	0.713574176	0.912188810	0.016844940	0.173786139	0.053562576
2019-10-09T06:25:00	0.2737	8.885	165.9	0.712689782	0.910807516	0.016805532	0.173379577	0.053437269
2019-10-09T06:30:00	0.2736	8.886	166.0	0.712452137	0.910436466	0.016794951	0.173270416	0.053403625
2019-10-09T06:35:00	0.2761	8.889	166.0	0.720292471	0.922704099	0.017145902	0.176891112	0.054519559
2019-10-09T06:40:00	0.2765	8.892	166.0	0.721668903	0.924863321	0.017207913	0.177530862	0.054716736
2019-10-09T06:45:00	0.2777	8.896	166.0	0.725624148	0.931077184	0.017386766	0.179376060	0.055285444
2019-10-09T06:50:00	0.2765	8.901	166.1	0.721840071	0.925131950	0.017215632	0.177610505	0.054741283
2019-10-09T06:55:00	0.2764	8.906	166.1	0.721280346	0.924253620	0.017190395	0.177350141	0.054661036
2019-10-09T07:00:00	0.2765	8.913	166.1	0.721688600	0.924894232	0.017208801	0.177540026	0.054719560
2019-10-09T07:05:00	0.2778	8.921	166.1	0.725966112	0.931615068	0.017402276	0.179536070	0.055334761
2019-10-09T07:10:00	0.2779	8.930	166.2	0.726373850	0.932256544	0.017420778	0.179726957	0.055393594
2019-10-09T07:15:00	0.2784	8.939	166.3	0.727748028	0.934419548	0.017483213	0.180371085	0.055592120
2019-10-09T07:20:00	0.2792	8.948	166.3	0.730409475	0.938613470	0.017604473	0.181622100	0.055977695
2019-10-09T07:25:00	0.2807	8.958	166.3	0.735319948	0.946367745	0.017829376	0.183942382	0.056692829
2019-10-09T07:30:00	0.2789	8.969	166.4	0.729614493	0.937360083	0.017568205	0.181247936	0.055862374
2019-10-09T07:35:00	0.2783	8.983	166.5	0.727445561	0.933943313	0.017469460	0.180229203	0.055548391
2019-10-09T07:40:00	0.2791	9.001	166.6	0.730107225	0.938136870	0.017590679	0.181479795	0.055933835
2019-10-09T07:45:00	0.2807	9.020	166.7	0.735339573	0.946398778	0.017830278	0.183951687	0.056695696
2019-10-09T07:50:00	0.2784	9.038	166.8	0.727701911	0.934346932	0.017481116	0.180349449	0.055585452
2019-10-09T07:55:00	0.2789	9.053	166.9	0.729397588	0.937018201	0.017558317	0.181145919	0.055830931
2019-10-09T08:00:00	0.2796	9.068	166.9	0.731736095	0.940706287	0.017665083	0.182247401	0.056170419
2019-10-09T08:05:00	0.2785	9.083	167.0	0.728280331	0.935257857	0.017507430	0.180620926	0.055669124
2019-10-09T08:10:00	0.2791	9.098	167.1	0.729975744	0.937929570	0.017584681	0.181417910	0.055914762
2019-10-09T08:15:00	0.2787	9.113	167.2	0.728773239	0.936034346	0.017529870	0.180852441	0.055740479
2019-10-09T08:20:00	0.2778	9.129	167.2	0.725959323	0.931604388	0.017401968	0.179532893	0.055333781
2019-10-09T08:25:00	0.2775	9.148	167.3	0.725077882	0.930218161	0.017362006	0.179120612	0.055206712
2019-10-09T08:30:00	0.2771	9.168	167.4	0.723551320	0.927818973	0.017292911	0.178407780	0.054987010
2019-10-09T08:35:00	0.2787	9.196	167.6	0.728792899	0.936065320	0.017530766	0.180861678	0.055743326
2019-10-09T08:40:00	0.2753	9.222	167.7	0.717913414	0.918975954	0.017039003	0.175788248	0.054179645
2019-10-09T08:45:00	0.2777	9.251	167.8	0.725742203	0.931262865	0.017392120	0.179431292	0.055302467
2019-10-09T08:50:00	0.2765	9.279	168.0	0.721635611	0.924811076	0.017206411	0.177515374	0.054711962
2019-10-09T08:55:00	0.2766	9.309	168.1	0.722043826	0.925451754	0.017224824	0.177705335	0.054770510
2019-10-09T09:00:00	0.2779	9.335	168.2	0.726320928	0.932173276	0.017418376	0.179702175	0.055385955
2019-10-09T09:05:00	0.2756	9.357	168.3	0.718987573	0.920658621	0.017087224	0.176285744	0.054332978
2019-10-09T09:10:00	0.2775	9.381	168.5	0.724880391	0.929907664	0.017353059	0.179028308	0.055178263
2019-10-09T09:15:00	0.2765	9.408	168.6	0.721740894	0.924976300	0.017211159	0.177564357	0.054727059
2019-10-09T09:20:00	0.2734	9.433	168.7	0.711811294	0.909436124	0.016766436	0.172976231	0.053312954
2019-10-09T09:25:00	0.2743	9.456	168.8	0.714484209	0.913610860	0.016885541	0.174205016	0.053691678
2019-10-09T09:30:00	0.2744	9.476	168.9	0.714893214	0.914250221	0.016903806	0.174393450	0.053749755
2019-10-09T09:35:00	0.2731	9.495	169.1	0.710774559	0.907818558	0.016720360	0.172500868	0.053166443
2019-10-09T09:40:00	0.2734	9.511	169.1	0.711831044	0.909466947	0.016767315	0.172985293	0.053315747
2019-10-09T09:45:00	0.2735	9.528	169.2	0.711916857	0.909600880	0.016771132	0.173024672	0.053327884
2019-10-09T09:50:00	0.2735	9.548	169.3	0.712002668	0.909734817	0.016774949	0.173064055	0.053340023
2019-10-09T09:55:00	0.2731	9.572	169.4	0.710794314	0.907849372	0.016721237	0.172509920	0.053169233
2019-10-09T10:00:00	0.2738	9.593	169.6	0.713144587	0.911517770	0.016825792	0.173588591	0.053501690
2019-10-09T10:05:00	0.2731	9.619	169.7	0.710874360	0.907974232	0.016724792	0.172546599	0.053180537
2019-10-09T10:10:00	0.2715	9.648	169.8	0.705687474	0.899895009	0.016495245	0.170178397	0.052450635
2019-10-09T10:15:00	0.2727	9.669	169.9	0.709568185	0.905937494	0.016666828	0.171948597	0.052996227
2019-10-09T10:20:00	0.2716	9.680	169.9	0.705999909	0.900381003	0.016509024	0.170320556	0.052494449
2019-10-09T10:25:00	0.2710	9.689	170.0	0.704049482	0.897348497	0.016423104	0.169434134	0.052221246
2019-10-09T10:30:00	0.2686	9.704	170.1	0.696254854	0.885262489	0.016082104	0.165916100	0.051136953
2019-10-09T10:35:00	0.2680	9.730	181.9	0.694299247	0.882238482	0.015997143	0.165039578	0.050866801
2019-10-09T10:40:00	0.2661	9.764	182.1	0.688112220	0.872693137	0.015729915	0.162282636	0.050017084
2019-10-09T10:45:00	0.2682	9.796	182.2	0.694937661	0.883225314	0.016024853	0.165325452	0.050954910
2019-10-09T10:50:00	0.2661	9.815	182.3	0.688100566	0.872675189	0.015729414	0.162277466	0.050015491
2019-10-09T10:55:00	0.2672	9.833	182.4	0.691674623	0.878185166	0.015883491	0.163867051	0.050505416
2019-10-09T11:00:00	0.2690	9.854	182.6	0.697519268	0.887219450	0.016137162	0.166484129	0.051312025
2019-10-09T11:05:00	0.2677	9.866	182.7	0.693289050	0.880677686	0.015953349	0.164587759	0.050727546
2019-10-09T11:10:00	0.2668	9.868	182.8	0.690355783	0.876150677	0.015826544	0.163279536	0.050324339
2019-10-09T11:15:00	0.2670	9.867	172.2	0.691000707	0.877145371	0.015854378	0.163566696	0.050412844
2019-10-09T11:20:00	0.2635	9.870	174.5	0.679590032	0.859599277	0.015365712	0.158525216	0.048859011
2019-10-09T11:25:00	0.2649	9.883	176.6	0.684150413	0.866598247	0.015560045	0.160530114	0.049476940
2019-10-09T11:30:00	0.2627	9.900	177.2	0.676966507	0.855580991	0.015254497	0.157377833	0.048505377
2019-10-09T11:35:00	0.2645	9.916	176.8	0.682834691	0.864577122	0.015503846	0.159950316	0.049298241
2019-10-09T11:40:00	0.2647	9.926	176.0	0.683480943	0.865569665	0.015531436	0.160234961	0.049385971
2019-10-09T11:45:00	0.2624	9.942	175.2	0.675969044	0.854054795	0.015212325	0.156942748	0.048371279
2019-10-09T11:50:00	0.2622	9.947	174.6	0.675309764	0.853046516	0.015184484	0.156655523	0.048282754
2019-10-09T11:55:00	0.2624	9.950	174.1	0.675957352	0.854036910	0.015211831	0.156937652	0.048369708
2019-10-09T12:00:00	0.2596	9.951	173.7	0.666792702	0.840054416	0.014827228	0.152969773	0.047146770
2019-10-09T12:05:00	0.2621	9.954	173.4	0.674965460	0.852520097	0.015169955	0.156505632	0.048236556
2019-10-09T12:10:00	0.2629	9.961	173.2	0.677572895	0.856509229	0.015280165	0.157642643	0.048586994
2019-10-09T12:15:00	0.2587	9.972	173.1	0.663826290	0.835544012	0.014703846	0.151696866	0.046754447
2019-10-09T12:20:00	0.2603	9.983	173.0	0.669061139	0.843508648	0.014921943	0.153946938	0.047447941
2019-10-09T12:25:00	0.2614	9.987	173.0	0.672653895	0.848988510	0.015072602	0.155501255	0.047926997
2019-10-09T12:30:00	0.2642	9.996	172.9	0.681792137	0.862976682	0.015459390	0.159491680	0.049156885
2019-10-09T12:35:00	0.2642	10.006	172.9	0.681786300	0.862967725	0.015459142	0.159489114	0.049156094
2019-10-09T12:40:00	0.2596	10.015	172.9	0.666745814	0.839983064	0.014825273	0.152949610	0.047140555
2019-10-09T12:45:00	0.2587	10.020	172.9	0.663791095	0.835490543	0.014702385	0.151681797	0.046749803
2019-10-09T12:50:00	0.2597	10.022	172.8	0.667061595	0.840463638	0.014838438	0.153085433	0.047182417
2019-10-09T12:55:00	0.2602	10.023	172.8	0.668692811	0.842947481	0.014906543	0.153788053	0.047398971
2019-10-09T13:00:00	0.2612	10.030	172.8	0.671958898	0.847927599	0.015043396	0.155199943	0.047834130
2019-10-09T13:05:00	0.2576	10.036	172.8	0.660160187	0.829980149	0.014552108	0.150131412	0.046271959
2019-10-09T13:10:00	0.2575	10.044	172.8	0.659826186	0.829473825	0.014538325	0.149989214	0.046228132
2019-10-09T13:15:00	0.2599	10.051	172.9	0.667687215	0.841415996	0.014864539	0.153354709	0.047265411
2019-10-09T13:20:00	0.2621	10.058	172.8	0.674877741	0.852385997	0.015166255	0.156467456	0.048224790
2019-10-09T13:25:00	0.2651	10.064	172.9	0.684662291	0.867384963	0.015581938	0.160755981	0.049546555
2019-10-09T13:30:00	0.2653	10.065	172.9	0.685308220	0.868378028	0.015609588	0.161041237	0.049634473
2019-10-09T13:35:00	0.2635	10.061	172.9	0.679432336	0.859357578	0.015359015	0.158456125	0.048837717
2019-10-09T13:40:00	0.2608	10.060	172.8	0.670603635	0.845859986	0.014986529	0.154613257	0.047653307
2019-10-09T13:45:00	0.2592	10.061	172.9	0.665359286	0.837873977	0.014767540	0.152353989	0.046956979
2019-10-09T13:50:00	0.2622	10.059	172.8	0.675169426	0.852831936	0.015178561	0.156594419	0.048263921
2019-10-09T13:55:00	0.2641	10.059	172.8	0.681366719	0.862323886	0.015441269	0.159304731	0.049099265
2019-10-09T14:00:00	0.2604	10.056	172.8	0.669271294	0.843828882	0.014930734	0.154037631	0.047475894
2019-10-09T14:05:00	0.2654	10.054	172.8	0.685593241	0.868816341	0.015621796	0.161167194	0.049673294
2019-10-09T14:10:00	0.2652	10.050	184.7	0.684935699	0.867805263	0.015593638	0.160876692	0.049583759
2019-10-09T14:15:00	0.2631	10.047	184.6	0.678406337	0.857785552	0.015315481	0.158006991	0.048699289
2019-10-09T14:20:00	0.2633	10.043	184.6	0.679053374	0.858776830	0.015342928	0.158290155	0.048786563
2019-10-09T14:25:00	0.2638	10.040	172.7	0.680679222	0.861269264	0.015412009	0.159002855	0.049006224
2019-10-09T14:30:00	0.2638	10.037	172.7	0.680673383	0.861260309	0.015411761	0.159000293	0.049005434
2019-10-09T14:35:00	0.2641	10.034	172.7	0.681646211	0.862752744	0.015453173	0.159427540	0.049137116
2019-10-09T14:40:00	0.2619	10.031	172.7	0.674457364	0.851743439	0.015148528	0.156284573	0.048168423
2019-10-09T14:45:00	0.2638	10.028	184.6	0.680655867	0.861233445	0.015411015	0.158992606	0.049003065
2019-10-09T14:50:00	0.2602	10.025	172.7	0.668885414	0.843240907	0.014914595	0.153871125	0.047424575
2019-10-09T14:55:00	0.2620	10.021	172.7	0.674766627	0.852216142	0.015161568	0.156419106	0.048209887
2019-10-09T15:00:00	0.2588	10.017	184.5	0.664288250	0.836245922	0.014723025	0.151894730	0.046815431
2019-10-09T15:05:00	0.2596	10.013	172.6	0.666903355	0.840222809	0.014831840	0.153017363	0.047161437
2019-10-09T15:10:00	0.2613	10.008	172.6	0.672460788	0.848693691	0.015064484	0.155417504	0.047901184
2019-10-09T15:15:00	0.2600	10.003	172.6	0.668201413	0.842198992	0.014886009	0.153576214	0.047333681
2019-10-09T15:20:00	0.2620	9.998	172.6	0.674737386	0.852171444	0.015160335	0.156406383	0.048205966
2019-10-09T15:25:00	0.2618	9.993	172.5	0.674077883	0.851163522	0.015132535	0.156119578	0.048117570
2019-10-09T15:30:00	0.2563	9.987	172.5	0.656050215	0.823756323	0.014382977	0.148386524	0.045734168
2019-10-09T15:35:00	0.2582	9.981	184.3	0.662280203	0.833196189	0.014639754	0.151035639	0.046550651
2019-10-09T15:40:00	0.2585	9.976	172.5	0.663257966	0.834680740	0.014680269	0.151453630	0.046679480
2019-10-09T15:45:00	0.2599	9.971	172.5	0.667838857	0.841646885	0.014870869	0.153420015	0.047285539
2019-10-09T15:50:00	0.2589	9.964	172.4	0.664557329	0.836654849	0.014734202	0.152010042	0.046850971
2019-10-09T15:55:00	0.2574	9.959	172.4	0.659632395	0.829180093	0.014530330	0.149906741	0.046202713
2019-10-09T16:00:00	0.2618	9.954	184.2	0.674036938	0.851100958	0.015130810	0.156101780	0.048112085
2019-10-09T16:05:00	0.2610	9.948	184.2	0.671328493	0.846965646	0.015016930	0.154926899	0.047749975
2019-10-09T16:10:00	0.2584	9.942	172.4	0.662720970	0.833865310	0.014658010	0.151223991	0.046608703
2019-10-09T16:15:00	0.2587	9.936	172.4	0.663939447	0.835715927	0.014708542	0.151745320	0.046769381
2019-10-09T16:20:00	0.2606	9.931	172.4	0.670069097	0.845044920	0.014964131	0.154382179	0.047582087
2019-10-09T16:25:00	0.2574	9.926	172.3	0.659490074	0.828964396	0.014524461	0.149846188	0.046184050
2019-10-09T16:30:00	0.2585	9.921	172.3	0.663333193	0.834794993	0.014683389	0.151485815	0.046689399
2019-10-09T16:35:00	0.2562	9.916	184.1	0.655692319	0.823215036	0.014368298	0.148235084	0.045687492
2019-10-09T16:40:00	0.2582	9.912	184.1	0.662163875	0.833019620	0.014634937	0.150985949	0.046535336
2019-10-09T16:45:00	0.2590	9.906	172.2	0.664693586	0.836861948	0.014739863	0.152068452	0.046868974
2019-10-09T16:50:00	0.2613	9.901	184.0	0.672457343	0.848688433	0.015064339	0.155416010	0.047900724
2019-10-09T16:55:00	0.2605	9.894	184.0	0.669747721	0.844555002	0.014950673	0.154243337	0.047539295
2019-10-09T17:00:00	0.2589	9.890	184.0	0.664415201	0.836438846	0.014728297	0.151949128	0.046832197
2019-10-09T17:05:00	0.2607	9.884	172.1	0.670544048	0.845769116	0.014984031	0.154587489	0.047645365
2019-10-09T17:10:00	0.2600	9.880	172.1	0.668160401	0.842136533	0.014884296	0.153558541	0.047328234
2019-10-09T17:15:00	0.2598	9.876	183.9	0.667412843	0.840998288	0.014853089	0.153236585	0.047229004
2019-10-09T17:20:00	0.2613	9.871	172.1	0.672228779	0.848339522	0.015054734	0.155316912	0.047870181
2019-10-09T17:25:00	0.2604	9.868	183.8	0.669518986	0.844206364	0.014941098	0.154144559	0.047508850
2019-10-09T17:30:00	0.2611	9.863	172.0	0.671716522	0.847557709	0.015033217	0.155094934	0.047801765
2019-10-09T17:35:00	0.2601	9.860	183.8	0.668351661	0.842427825	0.014892286	0.153640969	0.047353639
2019-10-09T17:40:00	0.2587	9.855	183.8	0.664000516	0.835808712	0.014711077	0.151771473	0.046777442
2019-10-09T17:45:00	0.2602	9.850	183.7	0.668820979	0.843142739	0.014911901	0.153843331	0.047416009
2019-10-09T17:50:00	0.2582	9.845	172.0	0.662175612	0.833037435	0.014635423	0.150990962	0.046536881
2019-10-09T17:55:00	0.2604	9.840	183.7	0.669290237	0.843857749	0.014931527	0.154045807	0.047478414
2019-10-09T18:00:00	0.2629	9.834	183.7	0.677697311	0.856699721	0.015285434	0.157697005	0.048603749
2019-10-09T18:05:00	0.2589	9.829	183.6	0.664519728	0.836597702	0.014732639	0.151993926	0.046846004
2019-10-09T18:10:00	0.2583	9.824	171.8	0.662460037	0.833469172	0.014647201	0.151112472	0.046574331
2019-10-09T18:15:00	0.2583	9.818	183.6	0.662695086	0.833826011	0.014656938	0.151212926	0.046605292
2019-10-09T18:20:00	0.2589	9.814	183.6	0.664569058	0.836672676	0.014734689	0.152015070	0.046852521
2019-10-09T18:25:00	0.2591	9.807	171.8	0.665131647	0.837527867	0.014758073	0.152256317	0.046926876
2019-10-09T18:30:00	0.2612	9.802	183.6	0.671913447	0.847858232	0.015041487	0.155180248	0.047828060
2019-10-09T18:35:00	0.2605	9.798	183.5	0.669857950	0.844723030	0.014955288	0.154290952	0.047553970
2019-10-09T18:40:00	0.2616	9.794	183.5	0.673363200	0.850071691	0.015102440	0.155809088	0.048021874
2019-10-09T18:45:00	0.2624	9.790	183.5	0.675885124	0.853926429	0.015208779	0.156906171	0.048360006
2019-10-09T18:50:00	0.2625	9.786	183.4	0.676445963	0.854784411	0.015232481	0.157150697	0.048435371
2019-10-09T18:55:00	0.2612	9.782	183.5	0.672104509	0.848149839	0.015049512	0.155263046	0.047853579
2019-10-09T19:00:00	0.2603	9.777	183.4	0.669067330	0.843518082	0.014922202	0.153949609	0.047448765
2019-10-09T19:05:00	0.2602	9.771	183.4	0.668647318	0.842878179	0.014904641	0.153768435	0.047392925
2019-10-09T19:10:00	0.2598	9.765	183.4	0.667572432	0.841241242	0.014859749	0.153305286	0.047250178
2019-10-09T19:15:00	0.2592	9.758	183.3	0.665514476	0.838109958	0.014773996	0.152420594	0.046977507
2019-10-09T19:20:00	0.2613	9.753	183.3	0.672295561	0.848441462	0.015057540	0.155345863	0.047879104
2019-10-09T19:25:00	0.2631	9.745	183.2	0.678084661	0.857292871	0.015301845	0.157866315	0.048655931
2019-10-09T19:30:00	0.2594	9.738	183.3	0.666218981	0.839181489	0.014803323	0.152723151	0.047070758
2019-10-09T19:35:00	0.2611	9.731	183.2	0.671690701	0.847518308	0.015032133	0.155083749	0.047798318
2019-10-09T19:40:00	0.2594	9.722	183.1	0.666033471	0.838899293	0.014795597	0.152643451	0.047046194
2019-10-09T19:45:00	0.2587	9.711	183.1	0.663974641	0.835769398	0.014710003	0.151760392	0.046774027
2019-10-09T19:50:00	0.2587	9.698	183.0	0.663881829	0.835628389	0.014706151	0.151720647	0.046761777
2019-10-09T19:55:00	0.2589	9.685	183.0	0.664444525	0.836483411	0.014729515	0.151961695	0.046836070
2019-10-09T20:00:00	0.2563	9.671	182.9	0.655820613	0.823409057	0.014373559	0.148289361	0.045704221
2019-10-09T20:05:00	0.2553	9.657	182.9	0.652769742	0.818798984	0.014248723	0.147001450	0.045307274
2019-10-09T20:10:00	0.2560	9.642	182.7	0.654977462	0.822134204	0.014339002	0.147932842	0.045594339
2019-10-09T20:15:00	0.2574	9.627	182.7	0.659481785	0.828951834	0.014524119	0.149842662	0.046182964
2019-10-09T20:20:00	0.2587	9.613	182.6	0.663980506	0.835778310	0.014710247	0.151762904	0.046774801
2019-10-09T20:25:00	0.2574	9.598	182.6	0.659624106	0.829167531	0.014529989	0.149903214	0.046201626
2019-10-09T20:30:00	0.2606	9.584	182.5	0.670017432	0.844966155	0.014961967	0.154359854	0.047575206
2019-10-09T20:35:00	0.2605	9.569	182.4	0.669597531	0.844326077	0.014944386	0.154178474	0.047519303
2019-10-09T20:40:00	0.2601	9.555	182.3	0.668522926	0.842688691	0.014899442	0.153714799	0.047376394
2019-10-09T20:45:00	0.2597	9.541	182.2	0.667120534	0.840553345	0.014840896	0.153110790	0.047190233
2019-10-09T20:50:00	0.2598	9.527	182.1	0.667355280	0.840910663	0.014850688	0.153211808	0.047221367
2019-10-09T20:55:00	0.2616	9.511	182.1	0.673479170	0.850248831	0.015107321	0.155859448	0.048037396
2019-10-09T21:00:00	0.2602	9.495	182.0	0.668806854	0.843121219	0.014911310	0.153837238	0.047414131
2019-10-09T21:05:00	0.2614	9.479	170.3	0.672640118	0.848967476	0.015072023	0.155495279	0.047925155
2019-10-09T21:10:00	0.2595	9.468	170.3	0.666329317	0.839349346	0.014807918	0.152770564	0.047085372
2019-10-09T21:15:00	0.2609	9.457	170.2	0.671146690	0.846688291	0.015009302	0.154848202	0.047725720
2019-10-09T21:20:00	0.2590	9.445	170.2	0.664833291	0.837074301	0.014745669	0.152128352	0.046887435
2019-10-09T21:25:00	0.2589	9.437	170.1	0.664412788	0.836435179	0.014728197	0.151948094	0.046831878
2019-10-09T21:30:00	0.2604	9.430	170.1	0.669559982	0.844268847	0.014942814	0.154162260	0.047514306
2019-10-09T21:35:00	0.2608	9.423	170.0	0.670776164	0.846123113	0.014993762	0.154687879	0.047676307
2019-10-09T21:40:00	0.2601	9.418	170.0	0.668392670	0.842490287	0.014893999	0.153658646	0.047359087
2019-10-09T21:45:00	0.2598	9.412	170.0	0.667317709	0.840853470	0.014849120	0.153195638	0.047216383
2019-10-09T21:50:00	0.2580	9.407	170.0	0.661653649	0.832245313	0.014613822	0.150768106	0.046468194
2019-10-09T21:55:00	0.2609	9.401	169.9	0.671059916	0.846555921	0.015005662	0.154810648	0.047714145
2019-10-09T22:00:00	0.2615	9.395	169.9	0.672929576	0.849409451	0.015084195	0.155620860	0.047963861
2019-10-09T22:05:00	0.2585	9.392	169.9	0.663209138	0.834606584	0.014678244	0.151432742	0.046673042
2019-10-09T22:10:00	0.2581	9.389	169.9	0.661999218	0.832769717	0.014628121	0.150915630	0.046513663
2019-10-09T22:15:00	0.2586	9.385	169.9	0.663412392	0.834915282	0.014686673	0.151519702	0.046699844
2019-10-09T22:20:00	0.2574	9.382	169.9	0.659578166	0.829097903	0.014528094	0.149883667	0.046195602
2019-10-09T22:25:00	0.2580	9.381	169.9	0.661648300	0.832237196	0.014613601	0.150765823	0.046467491
2019-10-09T22:30:00	0.2590	9.380	169.9	0.664700490	0.836872441	0.014740150	0.152071412	0.046869886
2019-10-09T22:35:00	0.2564	9.378	181.4	0.656272027	0.824091848	0.014392079	0.148480422	0.045763108
2019-10-09T22:40:00	0.2557	9.375	169.9	0.654073921	0.820768714	0.014302018	0.147551284	0.045476739
2019-10-09T22:45:00	0.2543	9.375	169.9	0.649242585	0.813479109	0.014105107	0.145519786	0.044850611
2019-10-09T22:50:00	0.2545	9.375	169.9	0.650002741	0.814624726	0.014135994	0.145838445	0.044948825
2019-10-09T22:55:00	0.2562	9.372	169.9	0.655693882	0.823217399	0.014368362	0.148235745	0.045687696
2019-10-09T23:00:00	0.2565	9.369	169.8	0.656781115	0.824862086	0.014412979	0.148696048	0.045829566
2019-10-09T23:05:00	0.2560	9.364	169.8	0.654911924	0.822035134	0.014336318	0.147905148	0.045585803
2019-10-09T23:10:00	0.2561	9.358	169.8	0.655342351	0.822685845	0.014353952	0.148087077	0.045641875
2019-10-09T23:15:00	0.2564	9.352	169.7	0.656429690	0.824330365	0.014398550	0.148547183	0.045783684
2019-10-09T23:20:00	0.2559	9.346	169.8	0.654560317	0.821503700	0.014321921	0.147756621	0.045540026
2019-10-09T23:25:00	0.2566	9.340	169.8	0.656961743	0.825135425	0.014420398	0.148772593	0.045853158
2019-10-09T23:30:00	0.2561	9.336	169.7	0.655421204	0.822805070	0.014357184	0.148120418	0.045652151
2019-10-09T23:35:00	0.2557	9.331	169.6	0.653880007	0.820475749	0.014294087	0.147469463	0.045451521
2019-10-09T23:40:00	0.2545	9.327	169.7	0.650035648	0.814674332	0.014137332	0.145852248	0.044953079
2019-10-09T23:45:00	0.2544	9.320	169.6	0.649808608	0.814332105	0.014128103	0.145757030	0.044923732
2019-10-09T23:50:00	0.2543	9.317	169.6	0.649252463	0.813493993	0.014105508	0.145523925	0.044851887
2019-10-09T23:55:00	0.2539	9.312	169.6	0.648037859	0.811664497	0.014056227	0.145015508	0.044695188
2019-10-10T00:00:00	0.2539	9.309	169.6	0.648139915	0.811818171	0.014060365	0.145058191	0.044708343
2019-10-10T00:05:00	0.2535	9.305	169.6	0.646924935	0.809989261	0.014011152	0.144550468	0.044551858
2019-10-10T00:10:00	0.2527	9.301	169.5	0.644062021	0.805684684	0.013895544	0.143357762	0.044184255
2019-10-10T00:15:00	0.2519	9.299	169.5	0.641526654	0.801878416	0.013793579	0.142305812	0.043860033
2019-10-10T00:20:00	0.2529	9.295	169.5	0.644925419	0.806982124	0.013930356	0.143716916	0.044294949
2019-10-10T00:25:00	0.2512	9.292	169.5	0.639091809	0.798228202	0.013696025	0.141299366	0.043549837
2019-10-10T00:30:00	0.2544	9.288	169.5	0.649739509	0.814227959	0.014125294	0.145728057	0.044914802
2019-10-10T00:35:00	0.2528	9.284	169.5	0.644572836	0.806452217	0.013916134	0.143570193	0.044249728
2019-10-10T00:40:00	0.2513	9.282	169.5	0.639398732	0.798688049	0.013708302	0.141426028	0.043588875
2019-10-10T00:45:00	0.2521	9.280	169.5	0.642140056	0.802798796	0.013818212	0.142559949	0.043938361
2019-10-10T00:50:00	0.2510	9.278	169.5	0.638613226	0.797511322	0.013676893	0.141101980	0.043489001
2019-10-10T00:55:00	0.2516	9.277	169.5	0.640365527	0.800137077	0.013747013	0.141825396	0.043711964
2019-10-10T01:00:00	0.2511	9.274	169.4	0.638817871	0.797817840	0.013685072	0.141186366	0.043515009
2019-10-10T01:05:00	0.2504	9.268	169.4	0.636609078	0.794511380	0.013596923	0.140276951	0.043234719
2019-10-10T01:10:00	0.2510	9.264	169.4	0.638362358	0.797135619	0.013666869	0.140998570	0.043457129
2019-10-10T01:15:00	0.2525	9.260	169.4	0.643412694	0.804709348	0.013869392	0.143087965	0.044101101
2019-10-10T01:20:00	0.2518	9.255	169.4	0.641206726	0.801398506	0.013780740	0.142173358	0.043819210
2019-10-10T01:25:00	0.2535	9.253	169.3	0.646911769	0.809969448	0.014010619	0.144544970	0.044550164
2019-10-10T01:30:00	0.2525	9.249	169.3	0.643389620	0.804674697	0.013868464	0.143078383	0.044098147
2019-10-10T01:35:00	0.2513	9.244	169.3	0.639534037	0.798890796	0.013713717	0.141481885	0.043606091
2019-10-10T01:40:00	0.2519	9.239	169.3	0.641615709	0.802012019	0.013797154	0.142342694	0.043871401
2019-10-10T01:45:00	0.2521	9.236	169.3	0.642047727	0.802660241	0.013814503	0.142521682	0.043926567
2019-10-10T01:50:00	0.2515	9.232	169.3	0.640170874	0.799845267	0.013739214	0.141744940	0.043687167
2019-10-10T01:55:00	0.2517	9.230	169.3	0.640932949	0.800987895	0.013769759	0.142060061	0.043784290
2019-10-10T02:00:00	0.2516	9.229	169.3	0.640375430	0.800151923	0.013747409	0.141829489	0.043713226
2019-10-10T02:05:00	0.2517	9.228	169.3	0.640807598	0.800799914	0.013764732	0.142008203	0.043768307
2019-10-10T02:10:00	0.2522	9.227	169.3	0.642558829	0.803427329	0.013835043	0.142733586	0.043991877
2019-10-10T02:15:00	0.2507	9.225	169.3	0.637381820	0.795667668	0.013627728	0.140594761	0.043332671
2019-10-10T02:20:00	0.2507	9.222	169.2	0.637484179	0.795820871	0.013631812	0.140636887	0.043345654
2019-10-10T02:25:00	0.2513	9.221	169.2	0.639567040	0.798940251	0.013715037	0.141495511	0.043610291
2019-10-10T02:30:00	0.2486	9.217	169.2	0.630748694	0.785758705	0.013364481	0.137878882	0.042495610
2019-10-10T02:35:00	0.2510	9.214	169.2	0.638451491	0.797269100	0.013670430	0.141035307	0.043468451
2019-10-10T02:40:00	0.2516	9.213	169.2	0.640533790	0.800389350	0.013753756	0.141894962	0.043733405
2019-10-10T02:45:00	0.2512	9.210	169.2	0.639316238	0.798564445	0.013705002	0.141391979	0.043578381
2019-10-10T02:50:00	0.2524	9.206	169.2	0.643046782	0.804159881	0.013854667	0.142936045	0.044054277
2019-10-10T02:55:00	0.2510	9.204	169.2	0.638530714	0.797387746	0.013673595	0.141067964	0.043478516
2019-10-10T03:00:00	0.2519	9.203	169.1	0.641602522	0.801992236	0.013796625	0.142337233	0.043869717
2019-10-10T03:05:00	0.2515	9.201	169.2	0.640055399	0.799672172	0.013734589	0.141697223	0.043672460
2019-10-10T03:10:00	0.2503	9.197	169.1	0.636196232	0.793893828	0.013580480	0.140107311	0.043182434
2019-10-10T03:15:00	0.2515	9.195	169.1	0.640259962	0.799978818	0.013742783	0.141781760	0.043698515
2019-10-10T03:20:00	0.2508	9.194	169.2	0.637721909	0.796176719	0.013641297	0.140734749	0.043375817
2019-10-10T03:25:00	0.2503	9.192	169.1	0.636173112	0.793859248	0.013579560	0.140097814	0.043179507
2019-10-10T03:30:00	0.2502	9.188	169.1	0.635945194	0.793518386	0.013570487	0.140004211	0.043150658
2019-10-10T03:35:00	0.2513	9.185	169.1	0.639679241	0.799108393	0.013719528	0.141541842	0.043624570
2019-10-10T03:40:00	0.2526	9.182	169.1	0.643739033	0.805199489	0.013882532	0.143223527	0.044142882
2019-10-10T03:45:00	0.2540	9.177	169.1	0.648452665	0.812289157	0.014073047	0.145189036	0.044748671
2019-10-10T03:50:00	0.2526	9.171	169.1	0.643943386	0.805506460	0.013890764	0.143308450	0.044169056
2019-10-10T03:55:00	0.2526	9.163	169.0	0.643715962	0.805164834	0.013881603	0.143213941	0.044139927
2019-10-10T04:00:00	0.2535	9.152	169.0	0.646783343	0.809776204	0.014005422	0.144491358	0.044533640
2019-10-10T04:05:00	0.2536	9.144	168.9	0.646981630	0.810074576	0.014013446	0.144574139	0.044559154
2019-10-10T04:10:00	0.2529	9.137	168.9	0.644874103	0.806904993	0.013928286	0.143695557	0.044288366
2019-10-10T04:15:00	0.2524	9.132	168.9	0.643095025	0.804232317	0.013856608	0.142956070	0.044060449
2019-10-10T04:20:00	0.2508	9.128	168.9	0.638015225	0.796615838	0.013653006	0.140855544	0.043413046
2019-10-10T04:25:00	0.2513	9.122	168.8	0.639534223	0.798891076	0.013713724	0.141481962	0.043606115
2019-10-10T04:30:00	0.2526	9.113	168.9	0.643690463	0.805126534	0.013880576	0.143203347	0.044136662
2019-10-10T04:35:00	0.2517	9.103	168.8	0.640921329	0.800970469	0.013769293	0.142055254	0.043782809
2019-10-10T04:40:00	0.2507	9.095	168.8	0.637489752	0.795829211	0.013632034	0.140639180	0.043346361
2019-10-10T04:45:00	0.2503	9.086	168.7	0.636367646	0.794150218	0.013587306	0.140177733	0.043204139
2019-10-10T04:50:00	0.2499	9.075	168.6	0.634914783	0.791977904	0.013529508	0.139581439	0.043020355
2019-10-10T04:55:00	0.2520	9.065	168.6	0.641715706	0.802162045	0.013801169	0.142384113	0.043884166
2019-10-10T05:00:00	0.2506	9.053	168.6	0.637294418	0.795536860	0.013624242	0.140558796	0.043321586
2019-10-10T05:05:00	0.2497	9.042	168.5	0.634189871	0.790894688	0.013500717	0.139284409	0.042928808
2019-10-10T05:10:00	0.2500	9.032	168.5	0.635380127	0.792673490	0.013548006	0.139772285	0.043079176
2019-10-10T05:15:00	0.2505	9.019	168.4	0.636900241	0.794947001	0.013608526	0.140396656	0.043271613
2019-10-10T05:20:00	0.2506	9.009	168.4	0.637099074	0.795244524	0.013616453	0.140478431	0.043296817
2019-10-10T05:25:00	0.2507	8.997	168.3	0.637628083	0.796036269	0.013637553	0.140696121	0.043363911
2019-10-10T05:30:00	0.2520	8.987	168.3	0.641786528	0.802268305	0.013804012	0.142413451	0.043893209
2019-10-10T05:35:00	0.2523	8.976	168.2	0.642974267	0.804051003	0.013851750	0.142905948	0.044045001
2019-10-10T05:40:00	0.2493	8.967	168.2	0.632938671	0.789026103	0.013451099	0.138772508	0.042771035
2019-10-10T05:45:00	0.2498	8.959	168.0	0.634459821	0.791298016	0.013511435	0.139394981	0.042962887
2019-10-10T05:50:00	0.2504	8.952	168.1	0.636640911	0.794559003	0.013598192	0.140290036	0.043238752
2019-10-10T05:55:00	0.2505	8.946	168.1	0.636839759	0.794856505	0.013606116	0.140371785	0.043263948
2019-10-10T06:00:00	0.2496	8.940	168.1	0.634065332	0.790708638	0.013495774	0.139233413	0.042913090
2019-10-10T06:05:00	0.2512	8.935	168.1	0.639218118	0.798417434	0.013701077	0.141351485	0.043565900
2019-10-10T06:10:00	0.2505	8.928	168.0	0.636775796	0.794760805	0.013603566	0.140345487	0.043255842
2019-10-10T06:15:00	0.2504	8.921	168.0	0.636644390	0.794564208	0.013598330	0.140291466	0.043239192
2019-10-10T06:20:00	0.2521	8.914	168.0	0.642123249	0.802773574	0.013817537	0.142552983	0.043936214
2019-10-10T06:25:00	0.2523	8.909	168.0	0.642651518	0.803566465	0.013838769	0.142772032	0.044003727
2019-10-10T06:30:00	0.2510	8.905	167.9	0.638561484	0.797433828	0.013674825	0.141080648	0.043482426
2019-10-10T06:35:00	0.2522	8.905	167.9	0.642389130	0.803172611	0.013828221	0.142663210	0.043970187
2019-10-10T06:40:00	0.2546	8.908	167.9	0.650492145	0.815362559	0.014155899	0.146043797	0.045012117
2019-10-10T06:45:00	0.2495	8.911	168.0	0.633542761	0.789928106	0.013475043	0.139019536	0.042847171
2019-10-10T06:50:00	0.2526	8.918	168.0	0.643643983	0.805056720	0.013878705	0.143184036	0.044130711
2019-10-10T06:55:00	0.2503	8.928	168.0	0.636253620	0.793979663	0.013582765	0.140130886	0.043189700
2019-10-10T07:00:00	0.2513	8.936	168.1	0.639423775	0.798725573	0.013709304	0.141436366	0.043592062
2019-10-10T07:05:00	0.2522	8.944	168.1	0.642591132	0.803475819	0.013836341	0.142746984	0.043996007
2019-10-10T07:10:00	0.2503	8.958	168.1	0.636189648	0.793883980	0.013580218	0.140104607	0.043181600
2019-10-10T07:15:00	0.2514	8.971	168.2	0.639689855	0.799124300	0.013719953	0.141546225	0.043625921
2019-10-10T07:20:00	0.2524	8.982	168.2	0.643186654	0.804369905	0.013860295	0.142994108	0.044072173
2019-10-10T07:25:00	0.2528	8.988	168.3	0.644373931	0.806153323	0.013908115	0.143487456	0.044224227
2019-10-10T07:30:00	0.2524	8.994	168.3	0.643253975	0.804470996	0.013863004	0.143022058	0.044080787
2019-10-10T07:35:00	0.2538	9.002	168.3	0.647735178	0.811208781	0.014043961	0.144888954	0.044656183
2019-10-10T07:40:00	0.2524	9.013	168.4	0.642991630	0.804077073	0.013852448	0.142913154	0.044047222
2019-10-10T07:45:00	0.2515	9.021	168.4	0.640221958	0.799921845	0.013741261	0.141766052	0.043693674
2019-10-10T07:50:00	0.2528	9.028	168.5	0.644377402	0.806158539	0.013908255	0.143488900	0.044224672
2019-10-10T07:55:00	0.2518	9.035	168.5	0.641278977	0.801506880	0.013783639	0.142203265	0.043828427
2019-10-10T08:00:00	0.2510	9.045	168.5	0.638507983	0.797353703	0.013672687	0.141058593	0.043475628
2019-10-10T08:05:00	0.2509	9.054	168.6	0.638046522	0.796662697	0.013654255	0.140868436	0.043417020
2019-10-10T08:10:00	0.2513	9.062	168.6	0.639565507	0.798937955	0.013714976	0.141494879	0.043610096
2019-10-10T08:15:00	0.2506	9.072	168.6	0.637123423	0.795280960	0.013617423	0.140488447	0.043299904
2019-10-10T08:20:00	0.2527	9.078	168.6	0.644249745	0.805966726	0.013903109	0.143435811	0.044208310
2019-10-10T08:25:00	0.2505	9.086	168.6	0.636860630	0.794887733	0.013606947	0.140380368	0.043266593
2019-10-10T08:30:00	0.2506	9.093	168.6	0.637059466	0.795185253	0.013614873	0.140462139	0.043291795
2019-10-10T08:35:00	0.2498	9.100	168.6	0.634615673	0.791530899	0.013517624	0.139458840	0.042982569
2019-10-10T08:40:00	0.2494	9.107	168.6	0.633162100	0.789359682	0.013459952	0.138863847	0.042799186
2019-10-10T08:45:00	0.2487	9.114	168.6	0.631046441	0.786202698	0.013376240	0.138000202	0.042533003
2019-10-10T08:50:00	0.2500	9.120	168.6	0.635212520	0.792422934	0.013541342	0.139703530	0.043057985
2019-10-10T08:55:00	0.2508	9.128	168.6	0.637723330	0.796178846	0.013641354	0.140735335	0.043375997
2019-10-10T09:00:00	0.2511	9.137	168.6	0.638912414	0.797959458	0.013688852	0.141225360	0.043527027
2019-10-10T09:05:00	0.2485	9.145	168.6	0.630189101	0.784924456	0.013342394	0.137651019	0.042425381
2019-10-10T09:10:00	0.2506	9.153	168.7	0.637329200	0.795588914	0.013625629	0.140573108	0.043325997
2019-10-10T09:15:00	0.2495	9.159	168.6	0.633563652	0.789959305	0.013475872	0.139028083	0.042849805
2019-10-10T09:20:00	0.2485	9.166	168.6	0.630125020	0.784828940	0.013339866	0.137624938	0.042417343
2019-10-10T09:25:00	0.2492	9.174	168.5	0.632639397	0.788579352	0.013439245	0.138650211	0.042733342
2019-10-10T09:30:00	0.2505	9.184	168.5	0.636803626	0.794802443	0.013604675	0.140356929	0.043259369
2019-10-10T09:35:00	0.2503	9.195	168.5	0.636341946	0.794111776	0.013586283	0.140167174	0.043200884
2019-10-10T09:40:00	0.2483	9.207	168.6	0.629598388	0.784044100	0.013319100	0.137410697	0.042351311
2019-10-10T09:45:00	0.2474	9.220	168.7	0.626487157	0.779412217	0.013196759	0.136148534	0.041962300
2019-10-10T09:50:00	0.2483	9.233	168.7	0.629665964	0.784144796	0.013321763	0.137438178	0.042359781
2019-10-10T09:55:00	0.2491	9.245	168.8	0.632180663	0.787894712	0.013421085	0.138462862	0.042675599
2019-10-10T10:00:00	0.2506	9.254	168.8	0.637336156	0.795599325	0.013625907	0.140575970	0.043326879
2019-10-10T10:05:00	0.2508	9.259	168.8	0.637917780	0.796469946	0.013649115	0.140815407	0.043400676
2019-10-10T10:10:00	0.2495	9.260	168.7	0.633544521	0.789930734	0.013475113	0.139020256	0.042847393
2019-10-10T10:15:00	0.2518	9.260	168.7	0.641060425	0.801179076	0.013774871	0.142112808	0.043800548
2019-10-10T10:20:00	0.2501	9.262	168.4	0.635700088	0.793151867	0.013560733	0.139903585	0.043119644
2019-10-10T10:25:00	0.2512	9.259	167.7	0.639253404	0.798470301	0.013702488	0.141366046	0.043570388
2019-10-10T10:30:00	0.2505	9.269	167.6	0.636863772	0.794892434	0.013607073	0.140381659	0.043266991
2019-10-10T10:35:00	0.2498	9.285	167.7	0.634472547	0.791317031	0.013511940	0.139400195	0.042964494
2019-10-10T10:40:00	0.2508	9.289	167.9	0.638027079	0.796633585	0.013653479	0.140860426	0.043414551
2019-10-10T10:45:00	0.2508	9.297	167.9	0.637948367	0.796515740	0.013650336	0.140828005	0.043404559
2019-10-10T10:50:00	0.2482	9.314	168.0	0.629275482	0.783562989	0.013306375	0.137279419	0.042310850
2019-10-10T10:55:00	0.2494	9.334	168.2	0.633165769	0.789365160	0.013460098	0.138865347	0.042799649
2019-10-10T11:00:00	0.2490	9.351	168.3	0.631764348	0.787273533	0.013404616	0.138292949	0.042623230
2019-10-10T11:05:00	0.2472	9.365	168.4	0.626058847	0.778775207	0.013179963	0.135975250	0.041908893
2019-10-10T11:10:00	0.2489	9.371	168.4	0.631606648	0.787038270	0.013398380	0.138228615	0.042603402
2019-10-10T11:15:00	0.2485	9.376	168.4	0.630204616	0.784947582	0.013343006	0.137657334	0.042427327
2019-10-10T11:20:00	0.2486	9.385	168.5	0.630456581	0.785323185	0.013352949	0.137759911	0.042458942
2019-10-10T11:25:00	0.2485	9.395	168.6	0.630377703	0.785205597	0.013349836	0.137727795	0.042449044
2019-10-10T11:30:00	0.2488	9.409	168.7	0.631291228	0.786567776	0.013385912	0.138099985	0.042563757
2019-10-10T11:35:00	0.2483	9.434	168.8	0.629558172	0.783984175	0.013317515	0.137394343	0.042346271
2019-10-10T11:40:00	0.2483	9.446	168.8	0.629479274	0.783866617	0.013314405	0.137362263	0.042336384
2019-10-10T11:45:00	0.2479	9.457	168.9	0.628407445	0.782270103	0.013272200	0.136926842	0.042202183
2019-10-10T11:50:00	0.2468	9.477	168.9	0.624685338	0.776733478	0.013126176	0.135420333	0.041737862
2019-10-10T11:55:00	0.2470	9.501	169.1	0.625269021	0.777600931	0.013149019	0.135656006	0.041810498
2019-10-10T12:00:00	0.2449	9.527	169.2	0.618225501	0.767152247	0.012874730	0.132826221	0.040938331
2019-10-10T12:05:00	0.2473	9.548	169.3	0.626436101	0.779336276	0.013194757	0.136127872	0.041955932
2019-10-10T12:10:00	0.2464	9.569	169.4	0.623374978	0.774787106	0.013074967	0.134892025	0.041575032
2019-10-10T12:15:00	0.2452	9.589	169.5	0.619315765	0.768766859	0.012916992	0.133262223	0.041072711
2019-10-10T12:20:00	0.2464	9.597	169.6	0.623216908	0.774552411	0.013068797	0.134828367	0.041555412
2019-10-10T12:25:00	0.2471	9.606	169.7	0.625788975	0.778373915	0.013169386	0.135866125	0.041875259
2019-10-10T12:30:00	0.2462	9.618	169.8	0.622727297	0.773825594	0.013049694	0.134631289	0.041494671
2019-10-10T12:35:00	0.2479	9.640	169.9	0.628280268	0.782080734	0.013267197	0.136875225	0.042186274
2019-10-10T12:40:00	0.2488	9.660	170.0	0.631179476	0.786401102	0.013381496	0.138054427	0.042549715
2019-10-10T12:45:00	0.2474	9.662	170.0	0.626466787	0.779381918	0.013195960	0.136140290	0.041959760
2019-10-10T12:50:00	0.2457	9.662	181.8	0.621084530	0.771388419	0.012985706	0.133971134	0.041291205
2019-10-10T12:55:00	0.2438	9.665	181.8	0.614697383	0.761934190	0.012738462	0.131420369	0.040505034
2019-10-10T13:00:00	0.2456	9.671	181.9	0.620594626	0.770662048	0.012966655	0.133774589	0.041230628
2019-10-10T13:05:00	0.2434	9.676	182.0	0.613209429	0.759736658	0.012681217	0.130829780	0.040323009
2019-10-10T13:10:00	0.2457	9.680	182.1	0.621099896	0.771411205	0.012986304	0.133977301	0.041293105
2019-10-10T13:15:00	0.2451	9.684	182.1	0.619030007	0.768343574	0.012905908	0.133147876	0.041037469
2019-10-10T13:20:00	0.2443	9.687	182.2	0.616294680	0.764295281	0.012800063	0.132055888	0.040700907
2019-10-10T13:25:00	0.2448	9.694	182.3	0.617875881	0.766634694	0.012861194	0.132686563	0.040895287
2019-10-10T13:30:00	0.2448	9.702	182.4	0.618128717	0.767008966	0.012870982	0.132787553	0.040926413
2019-10-10T13:35:00	0.2455	9.708	182.4	0.620372703	0.770333073	0.012958030	0.133685604	0.041203202
2019-10-10T13:40:00	0.2444	9.712	182.5	0.616642198	0.764809260	0.012813485	0.132194365	0.040743587
2019-10-10T13:45:00	0.2432	9.713	170.8	0.612575299	0.758800689	0.012656861	0.130578502	0.040245563
2019-10-10T13:50:00	0.2436	9.713	182.5	0.614158153	0.761137597	0.012717702	0.131206183	0.040439020
2019-10-10T13:55:00	0.2446	9.714	182.5	0.617400917	0.765931757	0.012842815	0.132496956	0.040836849
2019-10-10T14:00:00	0.2443	9.714	182.5	0.616325453	0.764340791	0.012801251	0.132068147	0.040704686
2019-10-10T14:05:00	0.2423	9.713	182.6	0.609596989	0.754409256	0.012542791	0.129401664	0.039882850
2019-10-10T14:10:00	0.2430	9.711	182.6	0.612178910	0.758215795	0.012641649	0.130421557	0.040197191
2019-10-10T14:15:00	0.2423	9.705	182.6	0.609771080	0.754665743	0.012549444	0.129470303	0.039904005
2019-10-10T14:20:00	0.2427	9.699	182.7	0.611022558	0.756510287	0.012597324	0.129964272	0.040056251
2019-10-10T14:25:00	0.2408	9.692	182.6	0.604617287	0.747083458	0.012353257	0.127446273	0.039280179
2019-10-10T14:30:00	0.2412	9.684	182.6	0.605870584	0.748925265	0.012400819	0.127936964	0.039431415
2019-10-10T14:35:00	0.2403	9.674	182.6	0.603125100	0.744892303	0.012296752	0.126863318	0.039100507
2019-10-10T14:40:00	0.2399	9.665	182.6	0.601711802	0.742818708	0.012243356	0.126312452	0.038930724
2019-10-10T14:45:00	0.2403	9.653	182.5	0.602966127	0.744658973	0.012290739	0.126801293	0.039081390
2019-10-10T14:50:00	0.2406	9.642	182.6	0.603886713	0.746010436	0.012325575	0.127160687	0.039192159
2019-10-10T14:55:00	0.2412	9.632	182.5	0.606139708	0.749320932	0.012411044	0.128042457	0.039463929
2019-10-10T15:00:00	0.2433	9.623	170.8	0.613048648	0.759499315	0.012675039	0.130766046	0.040303365
2019-10-10T15:05:00	0.2433	9.618	182.5	0.612969384	0.759382315	0.012671995	0.130734631	0.040293683
2019-10-10T15:10:00	0.2431	9.611	182.6	0.612225123	0.758283979	0.012643422	0.130439850	0.040202829
2019-10-10T15:15:00	0.2429	9.604	182.5	0.611813289	0.757676418	0.012627625	0.130276881	0.040152600
2019-10-10T15:20:00	0.2446	9.595	182.5	0.617383279	0.765905656	0.012842133	0.132489918	0.040834679
2019-10-10T15:25:00	0.2440	9.589	182.5	0.615311228	0.762841309	0.012762117	0.131664413	0.040580251
2019-10-10T15:30:00	0.2433	9.582	182.4	0.612905520	0.759288050	0.012669541	0.130709323	0.040285883
2019-10-10T15:35:00	0.2438	9.576	182.4	0.614820529	0.762116146	0.012743206	0.131469309	0.040520118
2019-10-10T15:40:00	0.2453	9.567	182.3	0.619722221	0.769369051	0.012932765	0.133424957	0.041122867
2019-10-10T15:45:00	0.2446	9.562	182.3	0.617319494	0.765811271	0.012839666	0.132464466	0.040826835
2019-10-10T15:50:00	0.2484	9.557	182.3	0.629836342	0.784398693	0.013328481	0.137507478	0.042381140
2019-10-10T15:55:00	0.2456	9.551	182.2	0.620812027	0.770984360	0.012975107	0.133861790	0.041257504
2019-10-10T16:00:00	0.2435	9.542	181.9	0.613759682	0.760549100	0.012702371	0.131048023	0.040390273
2019-10-10T16:05:00	0.2439	9.536	182.0	0.615144935	0.762595535	0.012755707	0.131598278	0.040559867
2019-10-10T16:10:00	0.2452	9.527	182.0	0.619185669	0.768574143	0.012911945	0.133210159	0.041056665
2019-10-10T16:15:00	0.2442	9.518	170.4	0.615921280	0.763743137	0.012785649	0.131907181	0.040655074
2019-10-10T16:20:00	0.2459	9.509	170.3	0.621619782	0.772182258	0.013006537	0.134186044	0.041357442
2019-10-10T16:25:00	0.2457	9.499	181.9	0.621012283	0.771281287	0.012982896	0.133942140	0.041282268
2019-10-10T16:30:00	0.2453	9.487	170.2	0.619741088	0.769397008	0.012933498	0.133432513	0.041125196
2019-10-10T16:35:00	0.2451	9.472	181.8	0.619133269	0.768496525	0.012909913	0.133189191	0.041050202
2019-10-10T16:40:00	0.2460	9.458	170.2	0.621843206	0.772513691	0.013015237	0.134275803	0.041385107
2019-10-10T16:45:00	0.2457	9.443	170.1	0.620904041	0.771120788	0.012978686	0.133898706	0.041268882
2019-10-10T16:50:00	0.2458	9.429	181.7	0.621291608	0.771695510	0.012993763	0.134054257	0.041316824
2019-10-10T16:55:00	0.2465	9.413	170.0	0.623668459	0.775222908	0.013086427	0.135010257	0.041611472
2019-10-10T17:00:00	0.2478	9.396	181.5	0.628030624	0.781709050	0.013257379	0.136773932	0.042155054
2019-10-10T17:05:00	0.2474	9.379	169.9	0.626761927	0.779820955	0.013207540	0.136259760	0.041996581
2019-10-10T17:10:00	0.2487	9.361	181.4	0.630789534	0.785819600	0.013366093	0.137895519	0.042500738
2019-10-10T17:15:00	0.2482	9.345	169.7	0.629190881	0.783436953	0.013303042	0.137245036	0.042300253
2019-10-10T17:20:00	0.2497	9.329	169.7	0.634207352	0.790920804	0.013501411	0.139291568	0.042931014
2019-10-10T17:25:00	0.2489	9.314	169.6	0.631618185	0.787055481	0.013398836	0.138233322	0.042604852
2019-10-10T17:30:00	0.2503	9.297	169.5	0.636300982	0.794050503	0.013584651	0.140150343	0.043195697
2019-10-10T17:35:00	0.2503	9.280	169.4	0.636356610	0.794133711	0.013586867	0.140173199	0.043202741
2019-10-10T17:40:00	0.2508	9.262	169.4	0.637733127	0.796193512	0.013641745	0.140739369	0.043377240
2019-10-10T17:45:00	0.2504	9.244	169.3	0.636467864	0.794300130	0.013591298	0.140218914	0.043216831
2019-10-10T17:50:00	0.2509	9.224	169.2	0.638174475	0.796854279	0.013659365	0.140921149	0.043433267
2019-10-10T17:55:00	0.2511	9.206	169.1	0.638890246	0.797926252	0.013687965	0.141216216	0.043524209
2019-10-10T18:00:00	0.2522	9.187	169.0	0.642574551	0.803450929	0.013835675	0.142740107	0.043993887
2019-10-10T18:05:00	0.2500	9.168	169.0	0.635369088	0.792656987	0.013547567	0.139767756	0.043077780
2019-10-10T18:10:00	0.2510	9.150	168.9	0.638396867	0.797187298	0.013668248	0.141012793	0.043461512
2019-10-10T18:15:00	0.2532	9.132	168.8	0.645707233	0.808157514	0.013961918	0.144042537	0.044395309
2019-10-10T18:20:00	0.2507	9.116	168.7	0.637517650	0.795870969	0.013633147	0.140650663	0.043349900
2019-10-10T18:25:00	0.2526	9.099	168.7	0.643841137	0.805352860	0.013886645	0.143265955	0.044155959
2019-10-10T18:30:00	0.2521	9.085	168.7	0.642248292	0.802961233	0.013822561	0.142604817	0.043952190
2019-10-10T18:35:00	0.2515	9.072	168.6	0.640324834	0.800076070	0.013745382	0.141808574	0.043706780
2019-10-10T18:40:00	0.2538	9.059	168.5	0.647631284	0.811052375	0.014039752	0.144845528	0.044642799
2019-10-10T18:45:00	0.2528	9.045	168.5	0.644392743	0.806181590	0.013908873	0.143495280	0.044226639
2019-10-10T18:50:00	0.2516	9.031	168.4	0.640491529	0.800325986	0.013752062	0.141877488	0.043728020
2019-10-10T18:55:00	0.2526	9.017	168.4	0.643844608	0.805358075	0.013886785	0.143267397	0.044156403
2019-10-10T19:00:00	0.2525	9.003	168.3	0.643570510	0.804946366	0.013875746	0.143153514	0.044121303
2019-10-10T19:05:00	0.2528	8.989	168.3	0.644614751	0.806515206	0.013917825	0.143587631	0.044255103
2019-10-10T19:10:00	0.2534	8.976	168.2	0.646317497	0.809075356	0.013986581	0.144296975	0.044473729
2019-10-10T19:15:00	0.2528	8.961	168.1	0.644396215	0.806186806	0.013909013	0.143496724	0.044227084
2019-10-10T19:20:00	0.2527	8.947	168.1	0.644122158	0.805775032	0.013897967	0.143382763	0.044191960
2019-10-10T19:25:00	0.2533	8.932	168.0	0.646154541	0.808830238	0.013979993	0.144229011	0.044452782
2019-10-10T19:30:00	0.2533	8.918	167.9	0.646210017	0.808913682	0.013982236	0.144252146	0.044459912
2019-10-10T19:35:00	0.2534	8.904	167.9	0.646594856	0.809492610	0.013997797	0.144412692	0.044509394
2019-10-10T19:40:00	0.2529	8.892	167.8	0.644673722	0.806603830	0.013920203	0.143612167	0.044262665
2019-10-10T19:45:00	0.2548	8.881	167.8	0.650984650	0.816105273	0.014175944	0.146250602	0.045075856
2019-10-10T19:50:00	0.2545	8.869	167.7	0.650053089	0.814700623	0.014138041	0.145859564	0.044955334
2019-10-10T19:55:00	0.2545	8.858	167.7	0.650108505	0.814784161	0.014140294	0.145882811	0.044962499
2019-10-10T20:00:00	0.2554	8.849	167.6	0.653123907	0.819333743	0.014263186	0.147150658	0.045353262
2019-10-10T20:05:00	0.2561	8.841	167.6	0.655479775	0.822893632	0.014359585	0.148145186	0.045659785
2019-10-10T20:10:00	0.2554	8.834	167.6	0.652905886	0.819004538	0.014254282	0.147058797	0.045324949
2019-10-10T20:15:00	0.2561	8.828	167.6	0.655261896	0.822564203	0.014350655	0.148053062	0.045631392
2019-10-10T20:20:00	0.2563	8.822	167.6	0.655974278	0.823641465	0.014379862	0.148354385	0.045724262
2019-10-10T20:25:00	0.2538	8.817	167.6	0.647808045	0.811318482	0.014046913	0.144919415	0.044665571
2019-10-10T20:30:00	0.2541	8.815	167.6	0.648851058	0.812889238	0.014089212	0.145355799	0.044800069
2019-10-10T20:35:00	0.2553	8.812	167.6	0.652853976	0.818926161	0.014252162	0.147036930	0.045318210
2019-10-10T20:40:00	0.2568	8.810	167.6	0.657509226	0.825964084	0.014442899	0.149004726	0.045924704
2019-10-10T20:45:00	0.2546	8.808	167.6	0.650333626	0.815123551	0.014149450	0.145977267	0.044991611
2019-10-10T20:50:00	0.2553	8.807	167.6	0.652691316	0.818680581	0.014245522	0.146968420	0.045297094
2019-10-10T20:55:00	0.2543	8.804	167.6	0.649457323	0.813802687	0.014113829	0.145609768	0.044878345
2019-10-10T21:00:00	0.2559	8.800	167.6	0.654774218	0.821826987	0.014330679	0.147846969	0.045567872
2019-10-10T21:05:00	0.2555	8.799	167.6	0.653186201	0.819427814	0.014265730	0.147176910	0.045361353
2019-10-10T21:10:00	0.2562	8.796	167.6	0.655542028	0.822987767	0.014362136	0.148171514	0.045667900
2019-10-10T21:15:00	0.2556	8.792	167.6	0.653625658	0.820091529	0.014283688	0.147362178	0.045418455
2019-10-10T21:20:00	0.2540	8.787	167.5	0.648417953	0.812236879	0.014071639	0.145174511	0.044744194
2019-10-10T21:25:00	0.2547	8.780	167.5	0.650776896	0.815791947	0.014167486	0.146163346	0.045048963
2019-10-10T21:30:00	0.2539	8.775	167.5	0.648199648	0.811908120	0.014062787	0.145083177	0.044716044
2019-10-10T21:35:00	0.2529	8.767	167.4	0.644632106	0.806541288	0.013918525	0.143594852	0.044257328
2019-10-10T21:40:00	0.2534	8.760	167.4	0.646334844	0.809101451	0.013987282	0.144304211	0.044475959
2019-10-10T21:45:00	0.2545	8.756	167.4	0.650011536	0.814637984	0.014136352	0.145842134	0.044949962
2019-10-10T21:50:00	0.2532	8.748	167.4	0.645787005	0.808277474	0.013965141	0.144075783	0.044405556
2019-10-10T21:55:00	0.2541	8.742	167.4	0.648806023	0.812821398	0.014087384	0.145336943	0.044794257
2019-10-10T22:00:00	0.2556	8.735	167.4	0.653795201	0.820347635	0.014290620	0.147433688	0.045440494
2019-10-10T22:05:00	0.2527	8.726	167.4	0.644154260	0.805823263	0.013899261	0.143396110	0.044196074
2019-10-10T22:10:00	0.2548	8.722	167.4	0.650972541	0.816087010	0.014175451	0.146245515	0.045074288
2019-10-10T22:15:00	0.2529	8.718	167.3	0.644950349	0.807019596	0.013931362	0.143727293	0.044298148
2019-10-10T22:20:00	0.2538	8.713	167.3	0.647818449	0.811334145	0.014047335	0.144923765	0.044666912
2019-10-10T22:25:00	0.2548	8.708	167.2	0.651013227	0.816148373	0.014177108	0.146262606	0.045079556
2019-10-10T22:30:00	0.2569	8.704	167.2	0.657818563	0.826432402	0.014455620	0.149135968	0.045965154
2019-10-10T22:35:00	0.2562	8.699	167.1	0.655752113	0.823305462	0.014370750	0.148260380	0.045695289
2019-10-10T22:40:00	0.2570	8.694	167.1	0.658283372	0.827136253	0.014474746	0.149333287	0.046025969
2019-10-10T22:45:00	0.2565	8.688	167.0	0.656545645	0.824505798	0.014403310	0.148596293	0.045798821
2019-10-10T22:50:00	0.2550	8.684	167.0	0.651848476	0.817408451	0.014211138	0.146613695	0.045187765
2019-10-10T22:55:00	0.2561	8.679	167.0	0.655368251	0.822725005	0.014355013	0.148098028	0.045645250
2019-10-10T23:00:00	0.2560	8.673	167.0	0.654943707	0.822083178	0.014337620	0.147918578	0.045589942
2019-10-10T23:05:00	0.2574	8.669	167.0	0.659445135	0.828896291	0.014522608	0.149827070	0.046178158
2019-10-10T23:10:00	0.2582	8.664	167.0	0.662301745	0.833228888	0.014640646	0.151044841	0.046553487
2019-10-10T23:15:00	0.2585	8.661	167.0	0.663189606	0.834576922	0.014677435	0.151424387	0.046670467
2019-10-10T23:20:00	0.2568	8.658	167.0	0.657516144	0.825974556	0.014443183	0.149007660	0.045925608
2019-10-10T23:25:00	0.2584	8.658	166.9	0.662998074	0.834286063	0.014669494	0.151342468	0.046645218
2019-10-10T23:30:00	0.2594	8.658	166.9	0.666179468	0.839121380	0.014801677	0.152706173	0.047065526
2019-10-10T23:35:00	0.2578	8.659	166.9	0.660838758	0.831009115	0.014580131	0.150420526	0.046361067
2019-10-10T23:40:00	0.2595	8.659	167.0	0.666315665	0.839328575	0.014807350	0.152764697	0.047083563
2019-10-10T23:45:00	0.2582	8.662	166.9	0.662287075	0.833206619	0.014640038	0.151038574	0.046551555
2019-10-10T23:50:00	0.2589	8.665	166.9	0.664486061	0.836546536	0.014731241	0.151979496	0.046841557
2019-10-10T23:55:00	0.2597	8.666	167.0	0.667011223	0.840386974	0.014836338	0.153063763	0.047175738
2019-10-11T00:00:00	0.2588	8.667	166.9	0.664294598	0.836255568	0.014723288	0.151897450	0.046816269
2019-10-11T00:05:00	0.2591	8.667	167.0	0.665181971	0.837604377	0.014760165	0.152277906	0.046933530
2019-10-11T00:10:00	0.2603	8.667	167.0	0.669016134	0.843440074	0.014920061	0.153927519	0.047441956
2019-10-11T00:15:00	0.2614	8.666	167.0	0.672846252	0.849282215	0.015080691	0.155584705	0.047952717
2019-10-11T00:20:00	0.2619	8.664	166.9	0.674385254	0.851633232	0.015145488	0.156253213	0.048158758
2019-10-11T00:25:00	0.2613	8.662	166.9	0.672328229	0.848491330	0.015058913	0.155360026	0.047883469
2019-10-11T00:30:00	0.2617	8.659	166.9	0.673540561	0.850342606	0.015109906	0.155886111	0.048045613
2019-10-11T00:35:00	0.2632	8.656	166.9	0.678671932	0.858192407	0.015326744	0.158123192	0.048735103
2019-10-11T00:40:00	0.2631	8.651	166.9	0.678250106	0.857546257	0.015308857	0.157938660	0.048678229
2019-10-11T00:45:00	0.2624	8.648	166.9	0.675868584	0.853901130	0.015208081	0.156898963	0.048357784
2019-10-11T00:50:00	0.2627	8.642	166.9	0.677079736	0.855754294	0.015259288	0.157427262	0.048520611
2019-10-11T00:55:00	0.2642	8.636	166.9	0.681879985	0.863111503	0.015463134	0.159530299	0.049168787
2019-10-11T01:00:00	0.2617	8.629	166.8	0.673621425	0.850466134	0.015113310	0.155921234	0.048056439
2019-10-11T01:05:00	0.2623	8.623	166.8	0.675486845	0.853317299	0.015191959	0.156732644	0.048306523
2019-10-11T01:10:00	0.2616	8.617	166.8	0.673430443	0.850174400	0.015105270	0.155838287	0.048030874
2019-10-11T01:15:00	0.2627	8.610	166.8	0.676929331	0.855524092	0.015252924	0.157361605	0.048500375
2019-10-11T01:20:00	0.2621	8.604	166.7	0.674873744	0.852379886	0.015166086	0.156465717	0.048224253
2019-10-11T01:25:00	0.2624	8.597	166.7	0.676085227	0.854232520	0.015217234	0.156993394	0.048386889
2019-10-11T01:30:00	0.2635	8.591	166.6	0.679581567	0.859586302	0.015365352	0.158521507	0.048857868
2019-10-11T01:35:00	0.2625	8.583	166.6	0.676221053	0.854440307	0.015222974	0.157052612	0.048405140
2019-10-11T01:40:00	0.2624	8.577	166.5	0.675798944	0.853794614	0.015205139	0.156868615	0.048348431
2019-10-11T01:45:00	0.2624	8.570	166.5	0.676030207	0.854148355	0.015214909	0.156969409	0.048379496
2019-10-11T01:50:00	0.2637	8.565	166.5	0.680179277	0.860502603	0.015390749	0.158783522	0.048938624
2019-10-11T01:55:00	0.2610	8.560	166.5	0.671262694	0.846865261	0.015014169	0.154898414	0.047741196
2019-10-11T02:00:00	0.2624	8.553	166.4	0.676070612	0.854210163	0.015216616	0.156987022	0.048384925
2019-10-11T02:05:00	0.2622	8.547	166.4	0.675321755	0.853064850	0.015184990	0.156660745	0.048284363
2019-10-11T02:10:00	0.2611	8.539	166.4	0.671630243	0.847426052	0.015029595	0.155057563	0.047790247
2019-10-11T02:15:00	0.2602	8.531	166.4	0.668917075	0.843289145	0.014915919	0.153884783	0.047428785
2019-10-11T02:20:00	0.2603	8.524	166.3	0.669148776	0.843642185	0.014925609	0.153984755	0.047459597
2019-10-11T02:25:00	0.2621	8.515	166.3	0.674939959	0.852481112	0.015168879	0.156494533	0.048233135
2019-10-11T02:30:00	0.2618	8.508	166.3	0.673864008	0.850836736	0.015123526	0.156026627	0.048088922
2019-10-11T02:35:00	0.2631	8.502	166.3	0.678342033	0.857687058	0.015312754	0.157978865	0.048690620
2019-10-11T02:40:00	0.2636	8.492	166.2	0.679878715	0.860041798	0.015377975	0.158651738	0.048898006
2019-10-11T02:45:00	0.2663	8.485	166.2	0.688584089	0.873419970	0.015750212	0.162492038	0.050081624
2019-10-11T02:50:00	0.2655	8.476	166.2	0.686209303	0.869763974	0.015648203	0.161439621	0.049757259
2019-10-11T02:55:00	0.2657	8.468	166.1	0.686765643	0.870620026	0.015672069	0.161685847	0.049833148
2019-10-11T03:00:00	0.2663	8.460	166.1	0.688624355	0.873482001	0.015751945	0.162509913	0.050087134
2019-10-11T03:05:00	0.2672	8.452	177.4	0.691458165	0.877851147	0.015874137	0.163770547	0.050475673
2019-10-11T03:10:00	0.2656	8.444	166.0	0.686480197	0.870180771	0.015659821	0.161559489	0.049794203
2019-10-11T03:15:00	0.2631	8.437	177.2	0.678232061	0.857518619	0.015308092	0.157930768	0.048675797
2019-10-11T03:20:00	0.2639	8.432	166.0	0.680747697	0.861374286	0.015414922	0.159032909	0.049015487
2019-10-11T03:25:00	0.2650	8.427	165.9	0.684565503	0.867236190	0.015577797	0.160713260	0.049533388
2019-10-11T03:30:00	0.2643	8.423	165.9	0.682188102	0.863584424	0.015476267	0.159665790	0.049210547
2019-10-11T03:35:00	0.2629	8.419	165.9	0.677524037	0.856434427	0.015278096	0.157621298	0.048580415
2019-10-11T03:40:00	0.2635	8.416	165.8	0.679713825	0.859789030	0.015370970	0.158579465	0.048875731
2019-10-11T03:45:00	0.2650	8.412	165.8	0.684510611	0.867151819	0.015575449	0.160689034	0.049525921
2019-10-11T03:50:00	0.2653	8.408	165.9	0.685393068	0.868508502	0.015613222	0.161078728	0.049646028
2019-10-11T03:55:00	0.2660	8.405	165.9	0.687578141	0.871870713	0.015706959	0.162045799	0.049944089
2019-10-11T04:00:00	0.2627	8.402	165.9	0.677047074	0.855704301	0.015257906	0.157413003	0.048516216
2019-10-11T04:05:00	0.2658	8.398	165.8	0.687059294	0.871071979	0.015684674	0.161815891	0.049873229
2019-10-11T04:10:00	0.2640	8.395	165.8	0.681093857	0.861905266	0.015429653	0.159184883	0.049062327
2019-10-11T04:15:00	0.2630	8.392	165.8	0.678058331	0.857252548	0.015300729	0.157854803	0.048652383
2019-10-11T04:20:00	0.2631	8.389	165.7	0.678286530	0.857602045	0.015310401	0.157954589	0.048683138
2019-10-11T04:25:00	0.2642	8.385	165.7	0.681777840	0.862954742	0.015458781	0.159485395	0.049154948
2019-10-11T04:30:00	0.2629	8.381	165.7	0.677436897	0.856301021	0.015274406	0.157583233	0.048568683
2019-10-11T04:35:00	0.2626	8.377	165.7	0.676685398	0.855150786	0.015242606	0.157255152	0.048467565
2019-10-11T04:40:00	0.2633	8.375	165.7	0.678872769	0.858500103	0.015335264	0.158211090	0.048762195
2019-10-11T04:45:00	0.2644	8.372	177.0	0.682363519	0.863853704	0.015483746	0.159742954	0.049234330
2019-10-11T04:50:00	0.2641	8.369	165.7	0.681613036	0.862701835	0.015451760	0.159412960	0.049132622
2019-10-11T04:55:00	0.2641	8.365	165.7	0.681514836	0.862551151	0.015447577	0.159369807	0.049119322
2019-10-11T05:00:00	0.2644	8.362	165.7	0.682395100	0.863902185	0.015485093	0.159756848	0.049238612
2019-10-11T05:05:00	0.2625	8.358	165.6	0.676422026	0.854747787	0.015231469	0.157140257	0.048432153
2019-10-11T05:10:00	0.2600	8.355	165.6	0.668148128	0.842117841	0.014883784	0.153553252	0.047326603
2019-10-11T05:15:00	0.2609	8.352	165.7	0.670994964	0.846456843	0.015002938	0.154782541	0.047705482
2019-10-11T05:20:00	0.2630	8.348	165.6	0.677759998	0.856795705	0.015288089	0.157724399	0.048612192
2019-10-11T05:25:00	0.2640	8.342	165.6	0.681251813	0.862147591	0.015436377	0.159254255	0.049083708
2019-10-11T05:30:00	0.2637	8.338	176.7	0.680174805	0.860495746	0.015390559	0.158781561	0.048938019
2019-10-11T05:35:00	0.2627	8.333	165.5	0.676811917	0.855344399	0.015247957	0.157310360	0.048484581
2019-10-11T05:40:00	0.2620	8.328	176.8	0.674753339	0.852195830	0.015161008	0.156413324	0.048208105
2019-10-11T05:45:00	0.2623	8.324	165.2	0.675635238	0.853544236	0.015198225	0.156797286	0.048326446
2019-10-11T05:50:00	0.2635	8.319	176.6	0.679455477	0.859393044	0.015359998	0.158466263	0.048840841
2019-10-11T05:55:00	0.2655	8.316	176.6	0.686204838	0.869757106	0.015648011	0.161437645	0.049756650
2019-10-11T06:00:00	0.2634	8.314	176.7	0.679258960	0.859091868	0.015351654	0.158380182	0.048814310
2019-10-11T06:05:00	0.2650	8.311	176.7	0.684379375	0.866950116	0.015569836	0.160631123	0.049508072
2019-10-11T06:10:00	0.2655	8.308	165.4	0.685910602	0.869304469	0.015635396	0.161307503	0.049716539
2019-10-11T06:15:00	0.2648	8.307	176.6	0.683857156	0.866147636	0.015547509	0.160400789	0.049437081
2019-10-11T06:20:00	0.2644	8.304	165.4	0.682454826	0.863993877	0.015487640	0.159783127	0.049246712
2019-10-11T06:25:00	0.2666	8.301	165.4	0.689524142	0.874868533	0.015790689	0.162909631	0.050210330
2019-10-11T06:30:00	0.2635	8.300	176.6	0.679648546	0.859688968	0.015368197	0.158550857	0.048866914
2019-10-11T06:35:00	0.2657	8.299	176.6	0.686723291	0.870554848	0.015670251	0.161667095	0.049827369
2019-10-11T06:40:00	0.2658	8.298	165.3	0.686950948	0.870905218	0.015680023	0.161767903	0.049858439
2019-10-11T06:45:00	0.2651	8.300	176.5	0.684898087	0.867747439	0.015592028	0.160860083	0.049578640
2019-10-11T06:50:00	0.2642	8.303	176.7	0.681865726	0.863089619	0.015462526	0.159524030	0.049166855
2019-10-11T06:55:00	0.2638	8.307	176.7	0.680462630	0.860937095	0.015402797	0.158907813	0.048976931
2019-10-11T07:00:00	0.2637	8.312	176.5	0.680364399	0.860786461	0.015398620	0.158864719	0.048963649
2019-10-11T07:05:00	0.2632	8.320	165.4	0.678634292	0.858134744	0.015325147	0.158106721	0.048730027
2019-10-11T07:10:00	0.2640	8.327	176.7	0.681146731	0.861986380	0.015431903	0.159208103	0.049069483
2019-10-11T07:15:00	0.2643	8.337	165.5	0.682027084	0.863337271	0.015469403	0.159594976	0.049188722
2019-10-11T07:20:00	0.2634	8.348	165.6	0.679318737	0.859183477	0.015354192	0.158406363	0.048822380
2019-10-11T07:25:00	0.2646	8.361	165.7	0.683135120	0.865038490	0.015516668	0.160082608	0.049339015
2019-10-11T07:30:00	0.2622	8.378	165.7	0.675203253	0.852883656	0.015179989	0.156609146	0.048268460
2019-10-11T07:35:00	0.2637	8.395	165.8	0.680329364	0.860732737	0.015397130	0.158849351	0.048958913
2019-10-11T07:40:00	0.2630	8.413	165.9	0.677946279	0.857080951	0.015295981	0.157805817	0.048637286
2019-10-11T07:45:00	0.2629	8.432	165.9	0.677521448	0.856430463	0.015277986	0.157620167	0.048580066
2019-10-11T07:50:00	0.2643	8.453	166.1	0.682318198	0.863784129	0.015481813	0.159723016	0.049228185
2019-10-11T07:55:00	0.2629	8.473	166.1	0.677651376	0.856629390	0.015283489	0.157676934	0.048597562
2019-10-11T08:00:00	0.2627	8.493	166.2	0.676899922	0.855479083	0.015251680	0.157348769	0.048496419
2019-10-11T08:05:00	0.2639	8.519	166.4	0.680718836	0.861330021	0.015413694	0.159020242	0.049011583
2019-10-11T08:10:00	0.2627	8.543	166.4	0.677029873	0.855677974	0.015257178	0.157405494	0.048513902
2019-10-11T08:15:00	0.2632	8.563	166.6	0.678564187	0.858027350	0.015322174	0.158076047	0.048720573
2019-10-11T08:20:00	0.2639	8.589	166.7	0.680750431	0.861378480	0.015415038	0.159034109	0.049015857
2019-10-11T08:25:00	0.2658	8.619	166.8	0.687171730	0.871245049	0.015689502	0.161865698	0.049888580
2019-10-11T08:30:00	0.2661	8.644	166.9	0.688050632	0.872598286	0.015727267	0.162255315	0.050008664
2019-10-11T08:35:00	0.2641	8.673	167.1	0.681434479	0.862427852	0.015444155	0.159334500	0.049108440
2019-10-11T08:40:00	0.2638	8.705	167.2	0.680683804	0.861276292	0.015412204	0.159004866	0.049006844
2019-10-11T08:45:00	0.2662	8.736	167.3	0.688407754	0.873148333	0.015742626	0.162413769	0.050057501
2019-10-11T08:50:00	0.2660	8.767	167.5	0.687658511	0.871994458	0.015710412	0.162081427	0.049955070
2019-10-11T08:55:00	0.2641	8.798	167.6	0.681367865	0.862325644	0.015441318	0.159305234	0.049099420
2019-10-11T09:00:00	0.2647	8.829	167.7	0.683552430	0.865679479	0.015534489	0.160266464	0.049395681
2019-10-11T09:05:00	0.2676	8.858	167.9	0.692896568	0.880071524	0.015936351	0.164412395	0.050673497
2019-10-11T09:10:00	0.2638	8.884	168.0	0.680420721	0.860872828	0.015401014	0.158889427	0.048971265
2019-10-11T09:15:00	0.2642	8.913	168.2	0.681953609	0.863224499	0.015466271	0.159562669	0.049178764
2019-10-11T09:20:00	0.2655	8.940	168.3	0.686093036	0.869585106	0.015643217	0.161388188	0.049741407
2019-10-11T09:25:00	0.2644	8.969	168.4	0.682409505	0.863924300	0.015485707	0.159763186	0.049240566
2019-10-11T09:30:00	0.2655	8.998	168.5	0.686222660	0.869784524	0.015648775	0.161445530	0.049759080
2019-10-11T09:35:00	0.2648	9.026	168.7	0.683843422	0.866126533	0.015546923	0.160394733	0.049435215
2019-10-11T09:40:00	0.2660	9.056	168.8	0.687655081	0.871989176	0.015710265	0.162079906	0.049954601
2019-10-11T09:45:00	0.2675	9.085	168.9	0.692438552	0.879364318	0.015916527	0.164207874	0.050610461
2019-10-11T09:50:00	0.2684	9.115	169.1	0.695591459	0.884236291	0.016053256	0.165618485	0.051045226
2019-10-11T09:55:00	0.2662	9.145	169.2	0.688337837	0.873040637	0.015739618	0.162382740	0.050047938
2019-10-11T10:00:00	0.2644	9.173	169.4	0.682374489	0.863870545	0.015484214	0.159747781	0.049235817
2019-10-11T10:05:00	0.2654	9.204	169.5	0.685766723	0.869083160	0.015629230	0.161243884	0.049696931
2019-10-11T10:10:00	0.2633	9.232	169.6	0.679051082	0.858773318	0.015342830	0.158289152	0.048786254
2019-10-11T10:15:00	0.2630	9.258	169.8	0.677878047	0.856976467	0.015293090	0.157775993	0.048628093
2019-10-11T10:20:00	0.2616	9.291	169.9	0.673436960	0.850184354	0.015105544	0.155841117	0.048031746
2019-10-11T10:25:00	0.2617	9.321	170.1	0.673569959	0.850387515	0.015111143	0.155898880	0.048049549
2019-10-11T10:30:00	0.2620	9.351	170.2	0.674683493	0.852089065	0.015158062	0.156382935	0.048198739
2019-10-11T10:35:00	0.2610	9.382	170.3	0.671547075	0.847299147	0.015026104	0.155021543	0.047779145
2019-10-11T10:40:00	0.2642	9.410	170.5	0.681805289	0.862996866	0.015459951	0.159497461	0.049158667
2019-10-11T10:45:00	0.2634	9.435	170.6	0.679327831	0.859197414	0.015354578	0.158410347	0.048823607
2019-10-11T10:50:00	0.2645	9.459	182.4	0.682722896	0.864405459	0.015499075	0.159901103	0.049283073
2019-10-11T10:55:00	0.2639	9.480	182.5	0.680898610	0.861605761	0.015421343	0.159099154	0.049035905
2019-10-11T11:00:00	0.2640	9.501	182.6	0.681031338	0.861809359	0.015426992	0.159157429	0.049053865
2019-10-11T11:05:00	0.2635	9.524	182.7	0.679532588	0.859511231	0.015363272	0.158500046	0.048851254
2019-10-11T11:10:00	0.2614	9.560	182.9	0.672805441	0.849219899	0.015078974	0.155566998	0.047947260
2019-10-11T11:15:00	0.2607	9.597	183.1	0.670321849	0.845430286	0.014974719	0.154491420	0.047615756
2019-10-11T11:20:00	0.2610	9.626	183.2	0.671436378	0.847130246	0.015021458	0.154973608	0.047764371
2019-10-11T11:25:00	0.2626	9.654	183.3	0.676472379	0.854824829	0.015233598	0.157162219	0.048438922
2019-10-11T11:30:00	0.2634	9.683	183.5	0.679217370	0.859028134	0.015349888	0.158361968	0.048808696
2019-10-11T11:35:00	0.2633	9.713	171.9	0.679023760	0.858731454	0.015341671	0.158277190	0.048782567
2019-10-11T11:40:00	0.2630	9.739	183.8	0.677850717	0.856934617	0.015291932	0.157764047	0.048624412
2019-10-11T11:45:00	0.2652	9.764	184.0	0.685159630	0.868149550	0.015603225	0.160975593	0.049614241
2019-10-11T11:50:00	0.2628	9.789	184.1	0.677136775	0.855841599	0.015261702	0.157452165	0.048528287
2019-10-11T11:55:00	0.2621	9.817	172.5	0.674982930	0.852546805	0.015170692	0.156513236	0.048238899
2019-10-11T12:00:00	0.2604	9.849	184.4	0.669556646	0.844263763	0.014942675	0.154160820	0.047513862
2019-10-11T12:05:00	0.2599	9.879	172.7	0.667725747	0.841474663	0.014866147	0.153371302	0.047270525
2019-10-11T12:10:00	0.2600	9.908	172.9	0.668186358	0.842176064	0.014885380	0.153569726	0.047331681
2019-10-11T12:15:00	0.2602	9.937	173.0	0.668646911	0.842877558	0.014904624	0.153768259	0.047392871
2019-10-11T12:20:00	0.2579	9.960	173.1	0.661243589	0.831623176	0.014596863	0.150593148	0.046414271
2019-10-11T12:25:00	0.2589	9.980	173.3	0.664655579	0.836804178	0.014738284	0.152052158	0.046863952
2019-10-11T12:30:00	0.2588	9.998	173.4	0.664133453	0.836010701	0.014716596	0.151828413	0.046794991
2019-10-11T12:35:00	0.2606	10.014	173.4	0.670161342	0.845185558	0.014967995	0.154422043	0.047594373
2019-10-11T12:40:00	0.2602	10.030	173.5	0.668658108	0.842894615	0.014905092	0.153773088	0.047394359
2019-10-11T12:45:00	0.2586	10.044	173.6	0.663550177	0.835124568	0.014692389	0.151578668	0.046718017
2019-10-11T12:50:00	0.2592	10.055	173.7	0.665649770	0.838315703	0.014779626	0.152478673	0.046995408
2019-10-11T12:55:00	0.2582	10.064	173.7	0.662177618	0.833040479	0.014635506	0.150991818	0.046537145
2019-10-11T13:00:00	0.2558	10.073	173.7	0.654432424	0.821310424	0.014316687	0.147702615	0.045523381
2019-10-11T13:05:00	0.2548	10.084	173.8	0.650949479	0.816052226	0.014174512	0.146235828	0.045071302
2019-10-11T13:10:00	0.2540	10.098	173.9	0.648450838	0.812286406	0.014072973	0.145188271	0.044748435
2019-10-11T13:15:00	0.2545	10.111	174.0	0.649901185	0.814471645	0.014131866	0.145795852	0.044935697
2019-10-11T13:20:00	0.2532	10.123	174.0	0.645755067	0.808229445	0.013963851	0.144062472	0.044401453
2019-10-11T13:25:00	0.2542	10.133	174.1	0.649181713	0.813387392	0.014102635	0.145494285	0.044842752
2019-10-11T13:30:00	0.2526	10.143	174.1	0.643716559	0.805165731	0.013881627	0.143214189	0.044140004
2019-10-11T13:35:00	0.2532	10.154	174.2	0.645827712	0.808338690	0.013966785	0.144092750	0.044410785
2019-10-11T13:40:00	0.2547	10.161	174.2	0.650570471	0.815480663	0.014159086	0.146076676	0.045022250
2019-10-11T13:45:00	0.2541	10.167	174.3	0.648729934	0.812706780	0.014084296	0.145305087	0.044784439
2019-10-11T13:50:00	0.2523	10.175	174.3	0.642934424	0.803991183	0.013850147	0.142889413	0.044039905
2019-10-11T13:55:00	0.2544	10.179	174.3	0.649655948	0.814102020	0.014121899	0.145693024	0.044904005
2019-10-11T14:00:00	0.2552	10.183	174.4	0.652421316	0.818272994	0.014234502	0.146854736	0.045262056
2019-10-11T14:05:00	0.2531	10.188	174.4	0.645314127	0.807566448	0.013946044	0.143878763	0.044344832
2019-10-11T14:10:00	0.2537	10.191	174.4	0.647424343	0.810740867	0.014031369	0.144759051	0.044616145
2019-10-11T14:15:00	0.2519	10.196	174.5	0.641626728	0.802028551	0.013797596	0.142347258	0.043872807
2019-10-11T14:20:00	0.2519	10.199	174.5	0.641431097	0.801735066	0.013789744	0.142266244	0.043847838
2019-10-11T14:25:00	0.2560	10.200	174.5	0.655062129	0.822262193	0.014342470	0.147968622	0.045605366
2019-10-11T14:30:00	0.2583	10.202	174.5	0.662416992	0.833403829	0.014645418	0.151094079	0.046568663
2019-10-11T14:35:00	0.2567	10.204	174.5	0.657300248	0.825647748	0.014434308	0.148916096	0.045897387
2019-10-11T14:40:00	0.2558	10.204	174.6	0.654477388	0.821378373	0.014318527	0.147721601	0.045529232
2019-10-11T14:45:00	0.2545	10.203	174.6	0.650007511	0.814631917	0.014136188	0.145840446	0.044949442
2019-10-11T14:50:00	0.2567	10.204	174.6	0.657372661	0.825757357	0.014437285	0.148946804	0.045906852
2019-10-11T14:55:00	0.2570	10.204	174.6	0.658162899	0.826953806	0.014469788	0.149282131	0.046010203
2019-10-11T15:00:00	0.2571	10.205	174.6	0.658624728	0.827653277	0.014488801	0.149478285	0.046070659
2019-10-11T15:05:00	0.2560	10.205	174.6	0.655145825	0.822388722	0.014345899	0.148003997	0.045616269
2019-10-11T15:10:00	0.2559	10.205	174.6	0.654622326	0.821597416	0.014324460	0.147782809	0.045548097
2019-10-11T15:15:00	0.2565	10.204	174.6	0.656727103	0.824780357	0.014410761	0.148673163	0.045822513
2019-10-11T15:20:00	0.2578	10.203	174.6	0.660799521	0.830949607	0.014578510	0.150403801	0.046355912
2019-10-11T15:25:00	0.2580	10.202	174.6	0.661589011	0.832147236	0.014611148	0.150740520	0.046459692
2019-10-11T15:30:00	0.2594	10.200	174.6	0.665983567	0.838823385	0.014793520	0.152622015	0.047039587
2019-10-11T15:35:00	0.2583	10.198	174.6	0.662511735	0.833547653	0.014649342	0.151134563	0.046581140
2019-10-11T15:40:00	0.2575	10.196	174.7	0.660021082	0.829769264	0.014546366	0.150072181	0.046253704
2019-10-11T15:45:00	0.2580	10.193	174.6	0.661466791	0.831961797	0.014606093	0.150688367	0.046443618
2019-10-11T15:50:00	0.2571	10.190	174.6	0.658647184	0.827687293	0.014489725	0.149487826	0.046073600
2019-10-11T15:55:00	0.2565	10.187	174.6	0.656482329	0.824410004	0.014400711	0.148569476	0.045790555
2019-10-11T16:00:00	0.2586	10.185	174.6	0.663506514	0.835058245	0.014690578	0.151559981	0.046712258
2019-10-11T16:05:00	0.2578	10.181	174.6	0.660830770	0.830996999	0.014579801	0.150417121	0.046360018
2019-10-11T16:10:00	0.2568	10.177	174.6	0.657496396	0.825944661	0.014442371	0.148999283	0.045923026
2019-10-11T16:15:00	0.2575	10.174	174.6	0.660069953	0.829843351	0.014548383	0.150092989	0.046260117
2019-10-11T16:20:00	0.2582	10.170	174.6	0.662313779	0.833247154	0.014641144	0.151049982	0.046555071
2019-10-11T16:25:00	0.2567	10.166	174.6	0.657339300	0.825706859	0.014435913	0.148932657	0.045902491
2019-10-11T16:30:00	0.2555	10.160	174.6	0.653344297	0.819666568	0.014272189	0.147243547	0.045381891
2019-10-11T16:35:00	0.2560	10.155	174.6	0.654935184	0.822070295	0.014337270	0.147914977	0.045588832
2019-10-11T16:40:00	0.2550	10.149	174.6	0.651595363	0.817026534	0.014200821	0.146507254	0.045154959
2019-10-11T16:45:00	0.2560	10.143	174.5	0.654830380	0.821911876	0.014332978	0.147870695	0.045575184
2019-10-11T16:50:00	0.2560	10.137	174.5	0.655106564	0.822329367	0.014344291	0.147987402	0.045611155
2019-10-11T16:55:00	0.2549	10.130	174.5	0.651438010	0.816789137	0.014194409	0.146441104	0.045134571
2019-10-11T17:00:00	0.2549	10.124	174.5	0.651385557	0.816710006	0.014192272	0.146419057	0.045127775
2019-10-11T17:05:00	0.2568	10.116	174.4	0.657577098	0.826066831	0.014445690	0.149033517	0.045933577
2019-10-11T17:10:00	0.2583	10.110	174.4	0.662446667	0.833448876	0.014646647	0.151106759	0.046572571
2019-10-11T17:15:00	0.2572	10.103	174.4	0.658785560	0.827896912	0.014495425	0.149546627	0.046091723
2019-10-11T17:20:00	0.2560	10.095	174.3	0.655120743	0.822350803	0.014344872	0.147993395	0.045613002
2019-10-11T17:25:00	0.2542	10.086	174.3	0.649149133	0.813338304	0.014101312	0.145480637	0.044838545
2019-10-11T17:30:00	0.2526	10.077	174.3	0.643826876	0.805331438	0.013886070	0.143260028	0.044154132
2019-10-11T17:35:00	0.2545	10.070	174.2	0.650031400	0.814667927	0.014137159	0.145850466	0.044952530
2019-10-11T17:40:00	0.2532	10.061	174.2	0.645698875	0.808144946	0.013961581	0.144039054	0.044394235
2019-10-11T17:45:00	0.2538	10.053	174.2	0.647622408	0.811039014	0.014039392	0.144841819	0.044641655
2019-10-11T17:50:00	0.2553	10.044	174.1	0.652834203	0.818896306	0.014251355	0.147028601	0.045315643
2019-10-11T17:55:00	0.2549	10.035	174.1	0.651466396	0.816831962	0.014195566	0.146453037	0.045138248
2019-10-11T18:00:00	0.2537	10.025	174.1	0.647464882	0.810801887	0.014033011	0.144775989	0.044621366
2019-10-11T18:05:00	0.2544	10.016	174.0	0.649716550	0.814193356	0.014124361	0.145718431	0.044911836
2019-10-11T18:10:00	0.2538	10.008	174.0	0.647689124	0.811139448	0.014042095	0.144869703	0.044650250
2019-10-11T18:15:00	0.2525	9.997	173.9	0.643353777	0.804620869	0.013867021	0.143063498	0.044093560
2019-10-11T18:20:00	0.2544	9.987	173.9	0.649888178	0.814452039	0.014131337	0.145790397	0.044934016
2019-10-11T18:25:00	0.2523	9.977	173.8	0.642918965	0.803967973	0.013849525	0.142882997	0.044037927
2019-10-11T18:30:00	0.2517	9.967	173.8	0.640887703	0.800920042	0.013767944	0.142041342	0.043778521
2019-10-11T18:35:00	0.2506	9.957	173.7	0.637204620	0.795402472	0.013620661	0.140521850	0.043310199
2019-10-11T18:40:00	0.2509	9.945	173.7	0.638142469	0.796806355	0.013658087	0.140907962	0.043429202
2019-10-11T18:45:00	0.2499	9.935	173.7	0.634787013	0.791786949	0.013524431	0.139529062	0.043004212
2019-10-11T18:50:00	0.2480	9.924	173.6	0.628450487	0.782334195	0.013273894	0.136944314	0.042207567
2019-10-11T18:55:00	0.2467	9.913	173.5	0.624423207	0.776344000	0.013115923	0.135314562	0.041705262
2019-10-11T19:00:00	0.2505	9.903	173.5	0.636941310	0.795008452	0.013610163	0.140413544	0.043276818
2019-10-11T19:05:00	0.2502	9.891	185.3	0.635897791	0.793447497	0.013568600	0.139984747	0.043144659
2019-10-11T19:10:00	0.2499	9.881	185.3	0.634853967	0.791887012	0.013527091	0.139556507	0.043012671
2019-10-11T19:15:00	0.2497	9.870	173.3	0.634140348	0.790820704	0.013498751	0.139264129	0.042922557
2019-10-11T19:20:00	0.2501	9.858	173.3	0.635409389	0.792717236	0.013549170	0.139784290	0.043082876
2019-10-11T19:25:00	0.2498	9.846	173.2	0.634695880	0.791650757	0.013520810	0.139491709	0.042992700
2019-10-11T19:30:00	0.2506	9.834	185.0	0.637285779	0.795523930	0.013623898	0.140555241	0.043320490
2019-10-11T19:35:00	0.2500	9.823	173.1	0.635251326	0.792480943	0.013542885	0.139719447	0.043062891
2019-10-11T19:40:00	0.2497	9.814	184.9	0.634207314	0.790920748	0.013501409	0.139291552	0.042931009
2019-10-11T19:45:00	0.2525	9.806	184.9	0.643396452	0.804684958	0.013868739	0.143081221	0.044099022
2019-10-11T19:50:00	0.2514	9.797	184.9	0.639715943	0.799163396	0.013720997	0.141556998	0.043629242
2019-10-11T19:55:00	0.2528	9.789	173.0	0.644609675	0.806507578	0.013917620	0.143585520	0.044254452
2019-10-11T20:00:00	0.2519	9.782	184.8	0.641590083	0.801973574	0.013796125	0.142332081	0.043868130
2019-10-11T20:05:00	0.2512	9.773	184.8	0.639228061	0.798432331	0.013701475	0.141355588	0.043567165
2019-10-11T20:10:00	0.2528	9.765	184.7	0.644452016	0.806270657	0.013911263	0.143519934	0.044234237
2019-10-11T20:15:00	0.2505	9.758	172.8	0.636811817	0.794814699	0.013605002	0.140360297	0.043260407
2019-10-11T20:20:00	0.2511	9.751	172.8	0.638740112	0.797701368	0.013681964	0.141154299	0.043505126
2019-10-11T20:25:00	0.2500	9.745	184.6	0.635385216	0.792681098	0.013548209	0.139774372	0.043079819
2019-10-11T20:30:00	0.2507	9.738	184.6	0.637644462	0.796060787	0.013638207	0.140702864	0.043365989
2019-10-11T20:35:00	0.2506	9.732	184.5	0.637261619	0.795487772	0.013622934	0.140545301	0.043317427
2019-10-11T20:40:00	0.2503	9.724	172.7	0.636218192	0.793926674	0.013581355	0.140116332	0.043185214
2019-10-11T20:45:00	0.2493	9.715	184.4	0.632860934	0.788910051	0.013448019	0.138740736	0.042761242
2019-10-11T20:50:00	0.2526	9.708	184.4	0.643701962	0.805143805	0.013881039	0.143208124	0.044138135
2019-10-11T20:55:00	0.2518	9.701	184.4	0.641011482	0.801105673	0.013772908	0.142092556	0.043794306
2019-10-11T21:00:00	0.2508	9.695	184.3	0.637988864	0.796576370	0.013651953	0.140844685	0.043409700
2019-10-11T21:05:00	0.2511	9.689	184.3	0.638926507	0.797980570	0.013689415	0.141231173	0.043528819
2019-10-11T21:10:00	0.2504	9.683	184.3	0.636562730	0.794442044	0.013595077	0.140257902	0.043228847
2019-10-11T21:15:00	0.2513	9.677	172.5	0.639481298	0.798811768	0.013711606	0.141460112	0.043599380
2019-10-11T21:20:00	0.2495	9.674	184.3	0.633483645	0.789839822	0.013472699	0.138995351	0.042839717
2019-10-11T21:25:00	0.2526	9.671	184.2	0.643663620	0.805086216	0.013879495	0.143192195	0.044133225
2019-10-11T21:30:00	0.2517	9.671	172.5	0.640973113	0.801048128	0.013771369	0.142076679	0.043789412
2019-10-11T21:35:00	0.2525	9.671	184.3	0.643558488	0.804928311	0.013875262	0.143148520	0.044119764
2019-10-11T21:40:00	0.2515	9.672	184.3	0.640208094	0.799901062	0.013740705	0.141760322	0.043691908
2019-10-11T21:45:00	0.2513	9.672	184.3	0.639495539	0.798833107	0.013712176	0.141465991	0.043601192
2019-10-11T21:50:00	0.2517	9.673	184.3	0.640762687	0.800732568	0.013762931	0.141989626	0.043762582
2019-10-11T21:55:00	0.2527	9.675	184.3	0.644007445	0.805602693	0.013893345	0.143335076	0.044177262
2019-10-11T22:00:00	0.2532	9.677	172.5	0.645931883	0.808495352	0.013970994	0.144136173	0.044424168
2019-10-11T22:05:00	0.2551	9.679	184.3	0.652089169	0.817771676	0.014220953	0.146714949	0.045218972
2019-10-11T22:10:00	0.2511	9.683	184.3	0.638814806	0.797813249	0.013684950	0.141185102	0.043514620
2019-10-11T22:15:00	0.2532	9.686	172.5	0.645643204	0.808061233	0.013959332	0.144015855	0.044387085
2019-10-11T22:20:00	0.2530	9.690	172.6	0.645217513	0.807421202	0.013942144	0.143838527	0.044332431
2019-10-11T22:25:00	0.2526	9.694	184.4	0.643803096	0.805295717	0.013885113	0.143250147	0.044151086
2019-10-11T22:30:00	0.2538	9.697	172.6	0.647659999	0.811095602	0.014040915	0.144857530	0.044646498
2019-10-11T22:35:00	0.2519	9.701	184.5	0.641632257	0.802036845	0.013797818	0.142349548	0.043873513
2019-10-11T22:40:00	0.2538	9.703	184.4	0.647796895	0.811301695	0.014046461	0.144914754	0.044664135
2019-10-11T22:45:00	0.2539	9.705	184.5	0.648029954	0.811652594	0.014055907	0.145012202	0.044694169
2019-10-11T22:50:00	0.2522	9.706	184.5	0.642332586	0.803087745	0.013825949	0.142639765	0.043962961
2019-10-11T22:55:00	0.2530	9.707	184.5	0.645202773	0.807399043	0.013941549	0.143832388	0.044330539
2019-10-11T23:00:00	0.2559	9.708	184.4	0.654648938	0.821637636	0.014325549	0.147794049	0.045551561
2019-10-11T23:05:00	0.2549	9.708	184.5	0.651265226	0.816528483	0.014187370	0.146368485	0.045112189
2019-10-11T23:10:00	0.2528	9.709	172.6	0.644584519	0.806469773	0.013916605	0.143575053	0.044251226
2019-10-11T23:15:00	0.2520	9.710	172.7	0.641850961	0.802364983	0.013806600	0.142440146	0.043901436
2019-10-11T23:20:00	0.2528	9.711	172.6	0.644391997	0.806180468	0.013908843	0.143494970	0.044226543
2019-10-11T23:25:00	0.2530	9.712	184.5	0.645284273	0.807521567	0.013944839	0.143866329	0.044341000
2019-10-11T23:30:00	0.2516	9.713	184.5	0.640572389	0.800447223	0.013755303	0.141910923	0.043738325
2019-10-11T23:35:00	0.2533	9.711	172.6	0.646080112	0.808718289	0.013976985	0.144197974	0.044443216
2019-10-11T23:40:00	0.2549	9.710	184.5	0.651250511	0.816506285	0.014186771	0.146362301	0.045110283
2019-10-11T23:45:00	0.2528	9.707	172.7	0.644569776	0.806447617	0.013916011	0.143568920	0.044249335
2019-10-11T23:50:00	0.2521	9.704	184.4	0.642165976	0.802837696	0.013819254	0.142570694	0.043941672
2019-10-11T23:55:00	0.2511	9.701	184.4	0.638770506	0.797746893	0.013683179	0.141166832	0.043508989
2019-10-12T00:00:00	0.2520	9.697	184.4	0.641973325	0.802548593	0.013811514	0.142490848	0.043917063
2019-10-12T00:05:00	0.2536	9.693	172.6	0.647149621	0.810327387	0.014020246	0.144644291	0.044580775
2019-10-12T00:10:00	0.2533	9.688	172.5	0.646065375	0.808696124	0.013976389	0.144191829	0.044441322
2019-10-12T00:15:00	0.2535	9.683	184.3	0.646627906	0.809542335	0.013999134	0.144426484	0.044513645
2019-10-12T00:20:00	0.2514	9.678	184.2	0.639938576	0.799497066	0.013729911	0.141648957	0.043657584
2019-10-12T00:25:00	0.2529	9.672	172.4	0.644788301	0.806776033	0.013924824	0.143659847	0.044277360
2019-10-12T00:30:00	0.2514	9.668	172.4	0.639745805	0.799208149	0.013722193	0.141569331	0.043633043
2019-10-12T00:35:00	0.2527	9.661	184.2	0.644266244	0.805991515	0.013903774	0.143442672	0.044210425
2019-10-12T00:40:00	0.2511	9.656	184.1	0.638892974	0.797930339	0.013688075	0.141217342	0.043524556
2019-10-12T00:45:00	0.2527	9.650	184.1	0.644073705	0.805702237	0.013896014	0.143362619	0.044185752
2019-10-12T00:50:00	0.2514	9.644	184.1	0.639690229	0.799124860	0.013719968	0.141546379	0.043625969
2019-10-12T00:55:00	0.2540	9.637	184.0	0.648492558	0.812349241	0.014074666	0.145205730	0.044753816
2019-10-12T01:00:00	0.2525	9.630	172.2	0.643455257	0.804773270	0.013871106	0.143105642	0.044106549
2019-10-12T01:05:00	0.2527	9.623	184.0	0.644018196	0.805618845	0.013893778	0.143339545	0.044178640
2019-10-12T01:10:00	0.2537	9.616	172.2	0.647545622	0.810923425	0.014036281	0.144809728	0.044631765
2019-10-12T01:15:00	0.2540	9.607	184.0	0.648437117	0.812265741	0.014072417	0.145182530	0.044746666
2019-10-12T01:20:00	0.2540	9.599	183.9	0.648340961	0.812120927	0.014068517	0.145142295	0.044734265
2019-10-12T01:25:00	0.2551	9.591	172.1	0.652193010	0.817928396	0.014225188	0.146758644	0.045232439
2019-10-12T01:30:00	0.2564	9.583	172.1	0.656369423	0.824239189	0.014396076	0.148521662	0.045775819
2019-10-12T01:35:00	0.2571	9.574	172.0	0.658572008	0.827573420	0.014486629	0.149455886	0.046063756
2019-10-12T01:40:00	0.2550	9.565	183.7	0.651575955	0.816997252	0.014200030	0.146499095	0.045152444
2019-10-12T01:45:00	0.2552	9.556	171.9	0.652466454	0.818341129	0.014236344	0.146873738	0.045267913
2019-10-12T01:50:00	0.2550	9.548	183.6	0.651712702	0.817203578	0.014205604	0.146556594	0.045170165
2019-10-12T01:55:00	0.2550	9.539	183.6	0.651616633	0.817058627	0.014201688	0.146516198	0.045157715
2019-10-12T02:00:00	0.2572	9.530	183.5	0.659077315	0.828338929	0.014507446	0.149670644	0.046129946
2019-10-12T02:05:00	0.2566	9.522	171.7	0.657011585	0.825210854	0.014422446	0.148793718	0.045859669
2019-10-12T02:10:00	0.2567	9.514	183.5	0.657244050	0.825562686	0.014431998	0.148892267	0.045890043
2019-10-12T02:15:00	0.2567	9.506	183.4	0.657148127	0.825417503	0.014428056	0.148851598	0.045877508
2019-10-12T02:20:00	0.2562	9.498	171.7	0.655738383	0.823284698	0.014370187	0.148254571	0.045693499
2019-10-12T02:25:00	0.2572	9.490	171.6	0.658926161	0.828109918	0.014501217	0.149606386	0.046110141
2019-10-12T02:30:00	0.2576	9.481	183.3	0.660142980	0.829954062	0.014551397	0.150124085	0.046269701
2019-10-12T02:35:00	0.2578	9.473	183.3	0.661031371	0.831301259	0.014588091	0.150502644	0.046386377
2019-10-12T02:40:00	0.2575	9.465	183.2	0.659951287	0.829663458	0.014543486	0.150042466	0.046244545
2019-10-12T02:45:00	0.2598	9.457	183.1	0.667394817	0.840970849	0.014852337	0.153228826	0.047226612
2019-10-12T02:50:00	0.2601	9.450	183.1	0.668281432	0.842320862	0.014889352	0.153610699	0.047344309
2019-10-12T02:55:00	0.2576	9.442	183.1	0.660319984	0.830222426	0.014558704	0.150199470	0.046292935
2019-10-12T03:00:00	0.2577	9.436	171.4	0.660552236	0.830574593	0.014568295	0.150298414	0.046323431
2019-10-12T03:05:00	0.2556	9.430	183.0	0.653560020	0.819992385	0.014281005	0.147334499	0.045409923
2019-10-12T03:10:00	0.2563	9.424	182.9	0.656092815	0.823820759	0.014384725	0.148404555	0.045739725
2019-10-12T03:15:00	0.2566	9.417	182.9	0.656982201	0.825166384	0.014421239	0.148781263	0.045855830
2019-10-12T03:20:00	0.2573	9.411	171.2	0.659184412	0.828501203	0.014511860	0.149716181	0.046143981
2019-10-12T03:25:00	0.2564	9.405	182.9	0.656461906	0.824379105	0.014399872	0.148560827	0.045787890
2019-10-12T03:30:00	0.2586	9.398	171.2	0.663584818	0.835177187	0.014693826	0.151593494	0.046722587
2019-10-12T03:35:00	0.2588	9.392	182.9	0.664144627	0.836027679	0.014717060	0.151833200	0.046796467
2019-10-12T03:40:00	0.2597	9.386	182.8	0.666997536	0.840366142	0.014835767	0.153057875	0.047173923
2019-10-12T03:45:00	0.2591	9.378	182.7	0.665263987	0.837729075	0.014763576	0.152313095	0.046944375
2019-10-12T03:50:00	0.2606	9.372	171.0	0.670079845	0.845061306	0.014964581	0.154386824	0.047583518
2019-10-12T03:55:00	0.2588	9.364	182.7	0.664089426	0.835943803	0.014714769	0.151809554	0.046789179
2019-10-12T04:00:00	0.2588	9.356	182.7	0.664321436	0.836296352	0.014724403	0.151908949	0.046819813
2019-10-12T04:05:00	0.2587	9.348	182.6	0.663900875	0.835657324	0.014706941	0.151728802	0.046764290
2019-10-12T04:10:00	0.2589	9.340	182.6	0.664463567	0.836512350	0.014730306	0.151969856	0.046838586
2019-10-12T04:15:00	0.2580	9.332	182.5	0.661419982	0.831890780	0.014604157	0.150668396	0.046437463
2019-10-12T04:20:00	0.2582	9.323	182.5	0.662310993	0.833242926	0.014641028	0.151048792	0.046554705
2019-10-12T04:25:00	0.2572	9.314	182.4	0.658937388	0.828126927	0.014501680	0.149611158	0.046111612
2019-10-12T04:30:00	0.2590	9.305	182.4	0.664747813	0.836944372	0.014742117	0.152091701	0.046876139
2019-10-12T04:35:00	0.2575	9.294	182.4	0.660064230	0.829834675	0.014548147	0.150090552	0.046259366
2019-10-12T04:40:00	0.2569	9.284	182.3	0.658002002	0.826710159	0.014463167	0.149213825	0.045989150
2019-10-12T04:45:00	0.2574	9.273	182.2	0.659550252	0.829055597	0.014526943	0.149871790	0.046191941
2019-10-12T04:50:00	0.2589	9.264	182.2	0.664376634	0.836380235	0.014726695	0.151932601	0.046827103
2019-10-12T04:55:00	0.2581	9.255	182.2	0.661988929	0.832754102	0.014627695	0.150911236	0.046512309
2019-10-12T05:00:00	0.2575	9.246	182.1	0.659927798	0.829627852	0.014542517	0.150032467	0.046241463
2019-10-12T05:05:00	0.2571	9.237	182.0	0.658522075	0.827497787	0.014484573	0.149434673	0.046057218
2019-10-12T05:10:00	0.2596	9.228	170.3	0.666954100	0.840300036	0.014833956	0.153039190	0.047168165
2019-10-12T05:15:00	0.2600	9.219	170.3	0.668171155	0.842152910	0.014884745	0.153563174	0.047329662
2019-10-12T05:20:00	0.2610	9.210	181.9	0.671350945	0.846999899	0.015017872	0.154936619	0.047752971
2019-10-12T05:25:00	0.2600	9.202	181.9	0.667985745	0.841870556	0.014877002	0.153483288	0.047305040
2019-10-12T05:30:00	0.2596	9.194	181.8	0.666910663	0.840233930	0.014832145	0.153020506	0.047162406
2019-10-12T05:35:00	0.2602	9.187	181.8	0.668782459	0.843084053	0.014910290	0.153826716	0.047410888
2019-10-12T05:40:00	0.2598	9.181	181.7	0.667380167	0.840948547	0.014851726	0.153222520	0.047224669
2019-10-12T05:45:00	0.2584	9.176	169.9	0.663027856	0.834331287	0.014670729	0.151355204	0.046649144
2019-10-12T05:50:00	0.2612	9.172	181.8	0.672103546	0.848148369	0.015049472	0.155262629	0.047853450
2019-10-12T05:55:00	0.2582	9.167	181.7	0.662186383	0.833053784	0.014635869	0.150995562	0.046538299
2019-10-12T06:00:00	0.2572	9.160	181.7	0.658812662	0.827937969	0.014496541	0.149558145	0.046095273
2019-10-12T06:05:00	0.2583	9.155	181.6	0.662656500	0.833767429	0.014655339	0.151196433	0.046600209
2019-10-12T06:10:00	0.2593	9.149	170.0	0.665841124	0.838606728	0.014787590	0.152560838	0.047020732
2019-10-12T06:15:00	0.2579	9.144	181.6	0.661158956	0.831494790	0.014593365	0.150557052	0.046403145
2019-10-12T06:20:00	0.2601	9.139	169.9	0.668275574	0.842311939	0.014889107	0.153608174	0.047343531
2019-10-12T06:25:00	0.2587	9.135	181.6	0.663924337	0.835692971	0.014707915	0.151738850	0.046767387
2019-10-12T06:30:00	0.2595	9.131	169.9	0.666452821	0.839537246	0.014813063	0.152823645	0.047101732
2019-10-12T06:35:00	0.2583	9.127	169.9	0.662427317	0.833419502	0.014645846	0.151098491	0.046570022
2019-10-12T06:40:00	0.2593	9.125	169.9	0.665939748	0.838756733	0.014791695	0.152603194	0.047033786
2019-10-12T06:45:00	0.2600	9.121	181.4	0.668139451	0.842104627	0.014883421	0.153549513	0.047325451
2019-10-12T06:50:00	0.2607	9.120	169.9	0.670337821	0.845454641	0.014975389	0.154498324	0.047617884
2019-10-12T06:55:00	0.2604	9.120	181.5	0.669263435	0.843816906	0.014930405	0.154034239	0.047474848
2019-10-12T07:00:00	0.2609	9.121	181.4	0.671134019	0.846668961	0.015008770	0.154842718	0.047724030
2019-10-12T07:05:00	0.2585	9.121	181.4	0.663181771	0.834565024	0.014677110	0.151421036	0.046669434
2019-10-12T07:10:00	0.2613	9.122	169.9	0.672257077	0.848382718	0.015055923	0.155329179	0.047873962
2019-10-12T07:15:00	0.2616	9.125	169.8	0.673472358	0.850238424	0.015107034	0.155856489	0.048036484
2019-10-12T07:20:00	0.2604	9.128	181.5	0.669454637	0.844108291	0.014938405	0.154116775	0.047500287
2019-10-12T07:25:00	0.2572	9.132	181.6	0.658873817	0.828030617	0.014499061	0.149584137	0.046103284
2019-10-12T07:30:00	0.2585	9.137	181.5	0.663045457	0.834358015	0.014671458	0.151362732	0.046651464
2019-10-12T07:35:00	0.2586	9.143	181.5	0.663608283	0.835212831	0.014694799	0.151603537	0.046725683
2019-10-12T07:40:00	0.2586	9.150	170.0	0.663515462	0.835071837	0.014690949	0.151563810	0.046713438
2019-10-12T07:45:00	0.2578	9.159	181.8	0.660799150	0.830949043	0.014578495	0.150403643	0.046355863
2019-10-12T07:50:00	0.2585	9.169	181.7	0.663329814	0.834789861	0.014683249	0.151484369	0.046688954
2019-10-12T07:55:00	0.2574	9.181	181.8	0.659629013	0.829174967	0.014530191	0.149905302	0.046202270
2019-10-12T08:00:00	0.2576	9.193	181.8	0.660192370	0.830028941	0.014553436	0.150145118	0.046276183
2019-10-12T08:05:00	0.2601	9.206	181.9	0.668293150	0.842338708	0.014889841	0.153615749	0.047345866
2019-10-12T08:10:00	0.2599	9.220	182.0	0.667873048	0.841698948	0.014872297	0.153434742	0.047290078
2019-10-12T08:15:00	0.2588	9.235	182.1	0.664176886	0.836076697	0.014718400	0.151847019	0.046800726
2019-10-12T08:20:00	0.2584	9.251	182.1	0.662772813	0.833944023	0.014660158	0.151246153	0.046615533
2019-10-12T08:25:00	0.2564	9.271	170.6	0.656444794	0.824353216	0.014399170	0.148553579	0.045785656
2019-10-12T08:30:00	0.2572	9.293	182.4	0.658978504	0.828189220	0.014503374	0.149628636	0.046116999
2019-10-12T08:35:00	0.2588	9.321	182.5	0.664133416	0.836010644	0.014716595	0.151828397	0.046794987
2019-10-12T08:40:00	0.2583	9.351	171.0	0.662401431	0.833380206	0.014644774	0.151087430	0.046566613
2019-10-12T08:45:00	0.2585	9.387	171.1	0.663292201	0.834732734	0.014681689	0.151468277	0.046683994
2019-10-12T08:50:00	0.2582	9.424	171.3	0.662215725	0.833098320	0.014637084	0.151008096	0.046542162
2019-10-12T08:55:00	0.2578	9.462	183.1	0.660810891	0.830966851	0.014578980	0.150408647	0.046357406
2019-10-12T09:00:00	0.2591	9.503	171.6	0.665307963	0.837795939	0.014765405	0.152331965	0.046950191
2019-10-12T09:05:00	0.2589	9.543	171.8	0.664559816	0.836658629	0.014734305	0.152011108	0.046851300
2019-10-12T09:10:00	0.2571	9.579	171.9	0.658563196	0.827560073	0.014486267	0.149452143	0.046062602
2019-10-12T09:15:00	0.2591	9.615	183.9	0.665029625	0.837372762	0.014753831	0.152212553	0.046913387
2019-10-12T09:20:00	0.2585	9.651	184.0	0.663298067	0.834741644	0.014681932	0.151470787	0.046684767
2019-10-12T09:25:00	0.2582	9.688	172.5	0.662221594	0.833107228	0.014637327	0.151010602	0.046542934
2019-10-12T09:30:00	0.2593	9.723	172.7	0.665734224	0.838444143	0.014783140	0.152514933	0.047006584
2019-10-12T09:35:00	0.2608	9.759	172.8	0.670879545	0.846280791	0.014998097	0.154732602	0.047690091
2019-10-12T09:40:00	0.2603	9.793	173.0	0.669150778	0.843645235	0.014925693	0.153985618	0.047459863
2019-10-12T09:45:00	0.2591	9.826	173.2	0.665128270	0.837522732	0.014757932	0.152254868	0.046926429
2019-10-12T09:50:00	0.2586	9.858	173.3	0.663396760	0.834891540	0.014686025	0.151513014	0.046697782
2019-10-12T09:55:00	0.2590	9.887	173.5	0.664942704	0.837240625	0.014750217	0.152175273	0.046901897
2019-10-12T10:00:00	0.2590	9.916	173.6	0.664849918	0.837099577	0.014746360	0.152135482	0.046889633
2019-10-12T10:05:00	0.2569	9.946	173.7	0.658060754	0.826799125	0.014465584	0.149238765	0.045996837
2019-10-12T10:10:00	0.2566	9.977	173.9	0.656846173	0.824960533	0.014415651	0.148723615	0.045838063
2019-10-12T10:15:00	0.2563	10.008	174.1	0.655959693	0.823619406	0.014379264	0.148348213	0.045722360
2019-10-12T10:20:00	0.2562	10.043	174.2	0.655730086	0.823272150	0.014369847	0.148251061	0.045692417
2019-10-12T10:25:00	0.2551	10.077	174.4	0.651884756	0.817463197	0.014212617	0.146628955	0.045192468
2019-10-12T10:30:00	0.2564	10.115	174.5	0.656256364	0.824068155	0.014391436	0.148473790	0.045761064
2019-10-12T10:35:00	0.2551	10.154	174.8	0.652082763	0.817762008	0.014220692	0.146712254	0.045218141
2019-10-12T10:40:00	0.2567	10.189	174.9	0.657439345	0.825858299	0.014440026	0.148975086	0.045915568
2019-10-12T10:45:00	0.2547	10.223	175.1	0.650636237	0.815579833	0.014161762	0.146104286	0.045030760
2019-10-12T10:50:00	0.2542	10.265	175.3	0.649090050	0.813249285	0.014098913	0.145455887	0.044830917
2019-10-12T10:55:00	0.2541	10.303	175.5	0.648860005	0.812902716	0.014089575	0.145359546	0.044801224
2019-10-12T11:00:00	0.2522	10.335	175.6	0.642370419	0.803144527	0.013827469	0.142655451	0.043967796
2019-10-12T11:05:00	0.2517	10.367	175.8	0.640820675	0.800819524	0.013765256	0.142013612	0.043769975
2019-10-12T11:10:00	0.2499	10.392	175.9	0.634977431	0.792071538	0.013531998	0.139607124	0.043028271
2019-10-12T11:15:00	0.2485	10.415	176.0	0.630117376	0.784817546	0.013339564	0.137621827	0.042416384
2019-10-12T11:20:00	0.2479	10.434	176.1	0.628231301	0.782007824	0.013265271	0.136855353	0.042180149
2019-10-12T11:25:00	0.2477	10.452	188.3	0.627668839	0.781170497	0.013243157	0.136627207	0.042109832
2019-10-12T11:30:00	0.2489	10.472	188.4	0.631739288	0.787236147	0.013403625	0.138282725	0.042620079
2019-10-12T11:35:00	0.2462	10.490	188.5	0.622567095	0.773587821	0.013043447	0.134566837	0.041474806
2019-10-12T11:40:00	0.2435	10.511	188.7	0.613703663	0.760466377	0.012700217	0.131025796	0.040383423
2019-10-12T11:45:00	0.2449	10.537	188.8	0.618454025	0.767490594	0.012883583	0.132917548	0.040966479
2019-10-12T11:50:00	0.2435	10.563	188.9	0.613571405	0.760271082	0.012695131	0.130973327	0.040367251
2019-10-12T11:55:00	0.2421	10.591	176.9	0.609014915	0.753551874	0.012520560	0.129172308	0.039812160
2019-10-12T12:00:00	0.2434	10.615	189.2	0.613439141	0.760075795	0.012690046	0.130920866	0.040351082
2019-10-12T12:05:00	0.2404	10.638	189.3	0.603219650	0.745031086	0.012300328	0.126900215	0.039111879
2019-10-12T12:10:00	0.2415	10.670	177.3	0.606985126	0.750564268	0.012443195	0.128374145	0.039566158
2019-10-12T12:15:00	0.2420	10.707	177.4	0.608750044	0.753161820	0.012510450	0.129068009	0.039780014
2019-10-12T12:20:00	0.2410	10.736	189.8	0.605520237	0.748410273	0.012387514	0.127799698	0.039389108
2019-10-12T12:25:00	0.2397	10.764	177.7	0.600953386	0.741706648	0.012214752	0.126017350	0.038839771
2019-10-12T12:30:00	0.2388	10.787	190.1	0.598050335	0.737454370	0.012105581	0.124891043	0.038492632
2019-10-12T12:35:00	0.2391	10.802	177.9	0.599152258	0.739067595	0.012146960	0.125317947	0.038624208
2019-10-12T12:40:00	0.2395	10.818	178.0	0.600253837	0.740681331	0.012188399	0.125745468	0.038755974
2019-10-12T12:45:00	0.2399	10.837	178.1	0.601688608	0.742784692	0.012242481	0.126303422	0.038927941
2019-10-12T12:50:00	0.2421	10.860	190.5	0.609118619	0.753704607	0.012524519	0.129213155	0.039824749
2019-10-12T12:55:00	0.2402	10.876	190.6	0.602556351	0.744057632	0.012275250	0.126641487	0.039032136
2019-10-12T13:00:00	0.2401	10.895	190.7	0.602323290	0.743715679	0.012266444	0.126550642	0.039004137
2019-10-12T13:05:00	0.2402	10.912	190.7	0.602757110	0.744352226	0.012282837	0.126719767	0.039056263
2019-10-12T13:10:00	0.2403	10.930	178.5	0.603190878	0.744988852	0.012299240	0.126888987	0.039108418
2019-10-12T13:15:00	0.2402	10.951	191.1	0.602624443	0.744157546	0.012277823	0.126668034	0.039040318
2019-10-12T13:20:00	0.2408	10.973	178.9	0.604724781	0.747241376	0.012357332	0.127488321	0.039293139
2019-10-12T13:25:00	0.2390	10.995	179.0	0.598822001	0.738583989	0.012134551	0.125189921	0.038584750
2019-10-12T13:30:00	0.2391	11.019	191.4	0.598922487	0.738731125	0.012138326	0.125228868	0.038596753
2019-10-12T13:35:00	0.2394	11.037	179.2	0.600024138	0.740344755	0.012179752	0.125656260	0.038728480
2019-10-12T13:40:00	0.2392	11.050	179.3	0.599457197	0.739514207	0.012158424	0.125436218	0.038660661
2019-10-12T13:45:00	0.2388	11.059	179.4	0.597888676	0.737217785	0.012099516	0.124828476	0.038473349
2019-10-12T13:50:00	0.2394	11.070	179.4	0.599991825	0.740297410	0.012178536	0.125643714	0.038724613
2019-10-12T13:55:00	0.2390	11.078	179.5	0.598757352	0.738489332	0.012132122	0.125164868	0.038577028
2019-10-12T14:00:00	0.2379	11.081	179.5	0.595184295	0.733263214	0.011998294	0.123784192	0.038151490
2019-10-12T14:05:00	0.2385	11.083	179.5	0.596955104	0.735851949	0.012064524	0.124467472	0.038362084
2019-10-12T14:10:00	0.2384	11.086	179.6	0.596721673	0.735510547	0.012055783	0.124377290	0.038334289
2019-10-12T14:15:00	0.2381	11.090	179.6	0.595820145	0.734192458	0.012022054	0.124029317	0.038227040
2019-10-12T14:20:00	0.2362	11.094	179.6	0.589233130	0.724582422	0.011777087	0.121502033	0.037448107
2019-10-12T14:25:00	0.2373	11.096	179.6	0.593013527	0.730093355	0.011917361	0.122949219	0.037894143
2019-10-12T14:30:00	0.2356	11.098	179.7	0.587426009	0.721952270	0.011710333	0.120813346	0.037235847
2019-10-12T14:35:00	0.2363	11.100	179.7	0.589535401	0.725022625	0.011788271	0.121617423	0.037483671
2019-10-12T14:40:00	0.2373	11.095	179.7	0.592981149	0.730046106	0.011916156	0.122936787	0.037890312
2019-10-12T14:45:00	0.2351	11.091	179.7	0.585718825	0.719470066	0.011647449	0.120164586	0.037035893
2019-10-12T14:50:00	0.2352	11.084	179.6	0.585819685	0.719616647	0.011651160	0.120202866	0.037047691
2019-10-12T14:55:00	0.2371	11.076	179.6	0.592280020	0.729023142	0.011890077	0.122667736	0.037807387
2019-10-12T15:00:00	0.2364	11.067	192.0	0.590039130	0.725756382	0.011806923	0.121809843	0.037542977
2019-10-12T15:05:00	0.2379	11.058	179.5	0.595155457	0.733221078	0.011997217	0.123773080	0.038148065
2019-10-12T15:10:00	0.2374	11.049	179.5	0.593250725	0.730439532	0.011926191	0.123040315	0.037922220
2019-10-12T15:15:00	0.2378	11.043	179.5	0.594688341	0.732538652	0.011979779	0.123593170	0.038092615
2019-10-12T15:20:00	0.2367	11.035	191.8	0.591111161	0.727318662	0.011846666	0.122219870	0.037669351
2019-10-12T15:25:00	0.2367	11.026	179.3	0.590877343	0.726977835	0.011837992	0.122130380	0.037641769
2019-10-12T15:30:00	0.2386	11.016	191.6	0.597328426	0.736398040	0.012078511	0.124611768	0.038406557
2019-10-12T15:35:00	0.2381	11.005	179.3	0.595758960	0.734103027	0.012019767	0.124005719	0.038219767
2019-10-12T15:40:00	0.2393	10.994	179.3	0.599532378	0.739624330	0.012161251	0.125465387	0.038669651
2019-10-12T15:45:00	0.2403	10.983	179.2	0.602968393	0.744662299	0.012290825	0.126802177	0.039081662
2019-10-12T15:50:00	0.2416	10.971	179.1	0.607400160	0.751174867	0.012458993	0.128537139	0.039616395
2019-10-12T15:55:00	0.2414	10.961	179.1	0.606834398	0.750342552	0.012437459	0.128314976	0.039547922
2019-10-12T16:00:00	0.2426	10.951	179.1	0.610596040	0.755881498	0.012580996	0.129795813	0.040004330
2019-10-12T16:05:00	0.2420	10.942	179.1	0.608602369	0.752944377	0.012504816	0.129009878	0.039762097
2019-10-12T16:10:00	0.2417	10.932	191.4	0.607606603	0.751478641	0.012466856	0.128618254	0.039641395
2019-10-12T16:15:00	0.2427	10.922	178.9	0.610937636	0.756385079	0.012594072	0.129930722	0.040045910
2019-10-12T16:20:00	0.2418	10.912	191.3	0.607945507	0.751977403	0.012479769	0.128751473	0.039682454
2019-10-12T16:25:00	0.2430	10.903	178.9	0.611941395	0.757865391	0.012632538	0.130327563	0.040168221
2019-10-12T16:30:00	0.2424	10.893	178.9	0.609948479	0.754927130	0.012556226	0.129540265	0.039925568
2019-10-12T16:35:00	0.2425	10.881	178.8	0.610284183	0.755421842	0.012569064	0.129672712	0.039966389
2019-10-12T16:40:00	0.2420	10.869	178.7	0.608623218	0.752975075	0.012505611	0.129018085	0.039764627
2019-10-12T16:45:00	0.2416	10.858	191.0	0.607294483	0.751019381	0.012454970	0.128495627	0.039603600
2019-10-12T16:50:00	0.2422	10.847	178.6	0.609294844	0.753964168	0.012531249	0.129282583	0.039846148
2019-10-12T16:55:00	0.2418	10.836	178.6	0.607966360	0.752008096	0.012480563	0.128759672	0.039684981
2019-10-12T17:00:00	0.2440	10.824	190.9	0.615286204	0.762804323	0.012761153	0.131654460	0.040577183
2019-10-12T17:05:00	0.2459	10.813	178.5	0.621596192	0.772147266	0.013005618	0.134176568	0.041354521
2019-10-12T17:10:00	0.2456	10.802	190.7	0.620604058	0.770676030	0.012967022	0.133778371	0.041231793
2019-10-12T17:15:00	0.2476	10.790	190.6	0.627235796	0.780526015	0.013226144	0.136451690	0.042055736
2019-10-12T17:20:00	0.2478	10.781	178.3	0.627900959	0.781516017	0.013252281	0.136721336	0.042138844
2019-10-12T17:25:00	0.2468	10.770	190.5	0.624591695	0.776594336	0.013122513	0.135382543	0.041726215
2019-10-12T17:30:00	0.2465	10.759	178.2	0.623600394	0.775121829	0.013083769	0.134982831	0.041603020
2019-10-12T17:35:00	0.2462	10.749	190.4	0.622608817	0.773649744	0.013045074	0.134583621	0.041479979
2019-10-12T17:40:00	0.2457	10.740	178.1	0.620953598	0.771194268	0.012980613	0.133918591	0.041275010
2019-10-12T17:45:00	0.2437	10.732	190.3	0.614316099	0.761370901	0.012723781	0.131268902	0.040458350
2019-10-12T17:50:00	0.2443	10.724	178.0	0.616312512	0.764321652	0.012800751	0.132062992	0.040703097
2019-10-12T17:55:00	0.2435	10.717	190.3	0.613657319	0.760397942	0.012698435	0.131007409	0.040377756
2019-10-12T18:00:00	0.2441	10.712	190.3	0.615654101	0.763348133	0.012775340	0.131800830	0.040622296
2019-10-12T18:05:00	0.2444	10.706	177.9	0.616653558	0.764826063	0.012813924	0.132198893	0.040744983
2019-10-12T18:10:00	0.2466	10.700	177.9	0.623955572	0.775649325	0.013097644	0.135125976	0.041647138
2019-10-12T18:15:00	0.2465	10.695	177.9	0.623627087	0.775161469	0.013084811	0.134993587	0.041606334
2019-10-12T18:20:00	0.2464	10.688	190.2	0.623298572	0.774673659	0.013071984	0.134861253	0.041565548
2019-10-12T18:25:00	0.2465	10.681	177.9	0.623633019	0.775170278	0.013085043	0.134995977	0.041607071
2019-10-12T18:30:00	0.2458	10.675	177.8	0.621314975	0.771730165	0.012994672	0.134063639	0.041319715
2019-10-12T18:35:00	0.2462	10.669	177.8	0.622644418	0.773702582	0.013046462	0.134597943	0.041484393
2019-10-12T18:40:00	0.2461	10.663	190.1	0.622315812	0.773214910	0.013033651	0.134465774	0.041443657
2019-10-12T18:45:00	0.2470	10.658	190.0	0.625301818	0.777649682	0.013150303	0.135669255	0.041814582
2019-10-12T18:50:00	0.2455	10.654	177.8	0.620331668	0.770272249	0.012956435	0.133669154	0.041198131
2019-10-12T18:55:00	0.2472	10.650	177.7	0.625970305	0.778643541	0.013176492	0.135939443	0.041897856
2019-10-12T19:00:00	0.2486	10.646	190.0	0.630607736	0.785548538	0.013358915	0.137821466	0.042477914
2019-10-12T19:05:00	0.2478	10.641	190.0	0.627963167	0.781608625	0.013254726	0.136746568	0.042146620
2019-10-12T19:10:00	0.2461	10.638	177.7	0.622333614	0.773241327	0.013034345	0.134472932	0.041445864
2019-10-12T19:15:00	0.2472	10.635	189.9	0.625982161	0.778661170	0.013176957	0.135944237	0.041899334
2019-10-12T19:20:00	0.2487	10.632	189.9	0.630950379	0.786059445	0.013372445	0.137961055	0.042520937
2019-10-12T19:25:00	0.2484	10.629	177.6	0.629960840	0.784584238	0.013333390	0.137558129	0.042396751
2019-10-12T19:30:00	0.2469	10.627	189.9	0.624997175	0.777196886	0.013138377	0.135546217	0.041776660
2019-10-12T19:35:00	0.2469	10.624	189.9	0.625000140	0.777201292	0.013138493	0.135547414	0.041777029
2019-10-12T19:40:00	0.2471	10.621	177.6	0.625665720	0.778190658	0.013164556	0.135816301	0.041859903
2019-10-12T19:45:00	0.2467	10.618	189.8	0.624343333	0.776225333	0.013112800	0.135282341	0.041695331
2019-10-12T19:50:00	0.2470	10.615	177.6	0.625340357	0.777706968	0.013151812	0.135684823	0.041819380
2019-10-12T19:55:00	0.2461	10.609	177.6	0.622360317	0.773280952	0.013035386	0.134483670	0.041449173
2019-10-12T20:00:00	0.2465	10.605	177.5	0.623689370	0.775253963	0.013087244	0.135018683	0.041614069
2019-10-12T20:05:00	0.2479	10.601	189.8	0.628329760	0.782154426	0.013269144	0.136895311	0.042192464
2019-10-12T20:10:00	0.2454	10.597	177.5	0.620047383	0.769850900	0.012945391	0.133555216	0.041163015
2019-10-12T20:15:00	0.2487	10.595	189.8	0.630982937	0.786107996	0.013373731	0.137974322	0.042525026
2019-10-12T20:20:00	0.2474	10.593	177.5	0.626683118	0.779703715	0.013204448	0.136227853	0.041986747
2019-10-12T20:25:00	0.2460	10.590	189.7	0.622046521	0.772815332	0.013023157	0.134357512	0.041410290
2019-10-12T20:30:00	0.2461	10.586	189.7	0.622381085	0.773311772	0.013036195	0.134492022	0.041451747
2019-10-12T20:35:00	0.2447	10.584	189.7	0.617738889	0.766431929	0.012855891	0.132631861	0.040878428
2019-10-12T20:40:00	0.2475	10.581	189.8	0.627026137	0.780214044	0.013217911	0.136366755	0.042029558
2019-10-12T20:45:00	0.2464	10.580	177.6	0.623384589	0.774801377	0.013075342	0.134895896	0.041576225
2019-10-12T20:50:00	0.2473	10.578	189.8	0.626369702	0.779237515	0.013192152	0.136101003	0.041947651
2019-10-12T20:55:00	0.2481	10.577	177.5	0.629021372	0.783184442	0.013296366	0.137176157	0.042279024
2019-10-12T21:00:00	0.2470	10.575	189.8	0.625381859	0.777768661	0.013153438	0.135701590	0.041824548
2019-10-12T21:05:00	0.2471	10.574	189.8	0.625716111	0.778265578	0.013166531	0.135836670	0.041866181
2019-10-12T21:10:00	0.2460	10.574	177.5	0.622073226	0.772854954	0.013024198	0.134368246	0.041413598
2019-10-12T21:15:00	0.2454	10.574	177.4	0.620085978	0.769908099	0.012946890	0.133570681	0.041167781
2019-10-12T21:20:00	0.2442	10.574	177.4	0.616105182	0.764015057	0.012792747	0.131980409	0.040677644
2019-10-12T21:25:00	0.2451	10.574	177.5	0.619096393	0.768441903	0.012908483	0.133174436	0.041045655
2019-10-12T21:30:00	0.2454	10.573	189.7	0.620094884	0.769921299	0.012947236	0.133574250	0.041168881
2019-10-12T21:35:00	0.2439	10.572	177.5	0.615117463	0.762554936	0.012754648	0.131587354	0.040556500
2019-10-12T21:40:00	0.2451	10.573	189.7	0.619105302	0.768455099	0.012908828	0.133178001	0.041046753
2019-10-12T21:45:00	0.2450	10.572	189.7	0.618776370	0.767967924	0.012896075	0.133046424	0.041006200
2019-10-12T21:50:00	0.2428	10.572	177.5	0.611469669	0.757169599	0.012614453	0.130140986	0.040110716
2019-10-12T21:55:00	0.2445	10.572	189.8	0.617122340	0.765519556	0.012832042	0.132385813	0.040802593
2019-10-12T22:00:00	0.2445	10.573	177.4	0.617125312	0.765523952	0.012832157	0.132386998	0.040802959
2019-10-12T22:05:00	0.2447	10.574	189.6	0.617598394	0.766223996	0.012850455	0.132575772	0.040861141
2019-10-12T22:10:00	0.2445	10.574	177.5	0.617075326	0.765449997	0.012830224	0.132367061	0.040796814
2019-10-12T22:15:00	0.2444	10.575	189.6	0.616552181	0.764676114	0.012810008	0.132158488	0.040732530
2019-10-12T22:20:00	0.2432	10.576	189.7	0.612705674	0.758993094	0.012661867	0.130630144	0.040261479
2019-10-12T22:25:00	0.2434	10.577	189.7	0.613511768	0.760183027	0.012692838	0.130949671	0.040359960
2019-10-12T22:30:00	0.2428	10.578	189.7	0.611325423	0.756956875	0.012608926	0.130083962	0.040093140
2019-10-12T22:35:00	0.2427	10.580	189.6	0.611134077	0.756674719	0.012601595	0.130008337	0.040069832
2019-10-12T22:40:00	0.2431	10.582	189.7	0.612273068	0.758354719	0.012645261	0.130458829	0.040208678
2019-10-12T22:45:00	0.2406	10.584	189.7	0.604091775	0.746311573	0.012333342	0.127240814	0.039216854
2019-10-12T22:50:00	0.2420	10.586	177.4	0.608563310	0.752886867	0.012503326	0.128994505	0.039757359
2019-10-12T22:55:00	0.2429	10.587	189.7	0.611699155	0.757508066	0.012623249	0.130231735	0.040138686
2019-10-12T23:00:00	0.2438	10.590	189.7	0.614832234	0.762133441	0.012743657	0.131473961	0.040521552
2019-10-12T23:05:00	0.2433	10.592	189.7	0.612979174	0.759396766	0.012672371	0.130738511	0.040294879
2019-10-12T23:10:00	0.2430	10.594	189.8	0.612122904	0.758133165	0.012639500	0.130399390	0.040190359
2019-10-12T23:15:00	0.2424	10.596	177.5	0.609935703	0.754908305	0.012555737	0.129535226	0.039924015
2019-10-12T23:20:00	0.2428	10.598	177.6	0.611407699	0.757078208	0.012612078	0.130116486	0.040103165
2019-10-12T23:25:00	0.2438	10.601	189.8	0.614541035	0.761703195	0.012732441	0.131358248	0.040485888
2019-10-12T23:30:00	0.2424	10.604	177.6	0.610026943	0.755042751	0.012559226	0.129571215	0.039935107
2019-10-12T23:35:00	0.2436	10.607	177.6	0.614158680	0.761138375	0.012717722	0.131206392	0.040439084
2019-10-12T23:40:00	0.2450	10.609	189.9	0.618617569	0.767732761	0.012889920	0.132982926	0.040986629
2019-10-12T23:45:00	0.2448	10.611	190.0	0.618094651	0.766958535	0.012869663	0.132773943	0.040922219
2019-10-12T23:50:00	0.2442	10.613	190.0	0.615911122	0.763728117	0.012785257	0.131903137	0.040653828
2019-10-12T23:55:00	0.2445	10.616	177.9	0.617048584	0.765410432	0.012829191	0.132356395	0.040793526
2019-10-13T00:00:00	0.2450	10.619	177.9	0.618517639	0.767584787	0.012886047	0.132942976	0.040974316
2019-10-13T00:05:00	0.2443	10.621	178.0	0.616334369	0.764353976	0.012801595	0.132071699	0.040705780
2019-10-13T00:10:00	0.2448	10.625	190.3	0.618135711	0.767019319	0.012871253	0.132790347	0.040927274
2019-10-13T00:15:00	0.2456	10.627	190.3	0.620599699	0.770669568	0.012966852	0.133776623	0.041231255
2019-10-13T00:20:00	0.2448	10.628	178.0	0.618085739	0.766945342	0.012869318	0.132770383	0.040921122
2019-10-13T00:25:00	0.2448	10.629	178.0	0.617894758	0.766662636	0.012861924	0.132694101	0.040897611
2019-10-13T00:30:00	0.2461	10.629	178.0	0.622348975	0.773264121	0.013034944	0.134479109	0.041447768
2019-10-13T00:35:00	0.2462	10.633	190.3	0.622489808	0.773473119	0.013040434	0.134535749	0.041465224
2019-10-13T00:40:00	0.2440	10.634	177.9	0.615328877	0.762867394	0.012762798	0.131671433	0.040582415
2019-10-13T00:45:00	0.2431	10.636	177.9	0.612478701	0.758658141	0.012653153	0.130540246	0.040233772
2019-10-13T00:50:00	0.2434	10.639	177.9	0.613284847	0.759847997	0.012684115	0.130859681	0.040332225
2019-10-13T00:55:00	0.2435	10.640	177.9	0.613758440	0.760547266	0.012702323	0.131047530	0.040390121
2019-10-13T01:00:00	0.2422	10.642	190.1	0.609243353	0.753888325	0.012529282	0.129262295	0.039839895
2019-10-13T01:05:00	0.2444	10.644	177.9	0.616698660	0.764892776	0.012815667	0.132216871	0.040750524
2019-10-13T01:10:00	0.2436	10.645	177.9	0.613849582	0.760681861	0.012705829	0.131083697	0.040401269
2019-10-13T01:15:00	0.2459	10.647	190.1	0.621626919	0.772192844	0.013006815	0.134188911	0.041358325
2019-10-13T01:20:00	0.2422	10.649	177.9	0.609475961	0.754230961	0.012538167	0.129353958	0.039868146
2019-10-13T01:25:00	0.2436	10.649	177.9	0.613940722	0.760816459	0.012709335	0.131119869	0.040412417
2019-10-13T01:30:00	0.2430	10.651	177.9	0.612087198	0.758080487	0.012638130	0.130385259	0.040186003
2019-10-13T01:35:00	0.2423	10.651	190.2	0.609567213	0.754365390	0.012541653	0.129389927	0.039879232
2019-10-13T01:40:00	0.2430	10.650	177.8	0.612037141	0.758006639	0.012636210	0.130365450	0.040179898
2019-10-13T01:45:00	0.2441	10.651	177.8	0.615834367	0.763614637	0.012782295	0.131872580	0.040644410
2019-10-13T01:50:00	0.2430	10.650	177.8	0.611987084	0.757932792	0.012634290	0.130345641	0.040173793
2019-10-13T01:55:00	0.2445	10.649	177.9	0.617112900	0.765505589	0.012831677	0.132382048	0.040801433
2019-10-13T02:00:00	0.2450	10.647	177.6	0.618581929	0.767679984	0.012888539	0.132968677	0.040982238
2019-10-13T02:05:00	0.2435	10.642	189.9	0.613740595	0.760520914	0.012701637	0.131040449	0.040387939
2019-10-13T02:10:00	0.2444	10.638	177.7	0.616539767	0.764657754	0.012809528	0.132153541	0.040731005
2019-10-13T02:15:00	0.2461	10.635	189.9	0.622322272	0.773224496	0.013033903	0.134468372	0.041444458
2019-10-13T02:20:00	0.2457	10.633	189.8	0.621136564	0.771465580	0.012987730	0.133992019	0.041297641
2019-10-13T02:25:00	0.2447	10.631	177.7	0.617627050	0.766266405	0.012851563	0.132587211	0.040864666
2019-10-13T02:30:00	0.2453	10.629	177.7	0.619759579	0.769424407	0.012934216	0.133439919	0.041127479
2019-10-13T02:35:00	0.2451	10.626	177.7	0.618904939	0.768158334	0.012901059	0.133097845	0.041022049
2019-10-13T02:40:00	0.2463	10.623	189.9	0.623026388	0.774269565	0.013061362	0.134751661	0.041531771
2019-10-13T02:45:00	0.2472	10.620	177.6	0.625818278	0.778417485	0.013170534	0.135877972	0.041878911
2019-10-13T02:50:00	0.2475	10.618	189.9	0.626952585	0.780104608	0.013215024	0.136336964	0.042020377
2019-10-13T02:55:00	0.2485	10.617	177.6	0.630403146	0.785243526	0.013350840	0.137738154	0.042452237
2019-10-13T03:00:00	0.2506	10.614	177.6	0.637154054	0.795326800	0.013618645	0.140501048	0.043303787
2019-10-13T03:05:00	0.2479	10.611	177.6	0.628367740	0.782210980	0.013270638	0.136910726	0.042197215
2019-10-13T03:10:00	0.2493	10.608	177.6	0.632808921	0.788832406	0.013445959	0.138719480	0.042754691
2019-10-13T03:15:00	0.2503	10.606	177.6	0.636253845	0.793979999	0.013582774	0.140130978	0.043189728
2019-10-13T03:20:00	0.2513	10.602	177.5	0.639365465	0.798638204	0.013706971	0.141412297	0.043584643
2019-10-13T03:25:00	0.2504	10.599	177.6	0.636534413	0.794399682	0.013593949	0.140246263	0.043225260
2019-10-13T03:30:00	0.2496	10.597	189.7	0.634031642	0.790658310	0.013494437	0.139219619	0.042908839
2019-10-13T03:35:00	0.2522	10.595	189.7	0.642424758	0.803226087	0.013829653	0.142677984	0.043974740
2019-10-13T03:40:00	0.2496	10.594	177.4	0.633981892	0.790583994	0.013492463	0.139199251	0.042902561
2019-10-13T03:45:00	0.2493	10.592	189.7	0.632800047	0.788819157	0.013445607	0.138715853	0.042753573
2019-10-13T03:50:00	0.2498	10.590	189.7	0.634593104	0.791497174	0.013516728	0.139449592	0.042979718
2019-10-13T03:55:00	0.2502	10.586	189.7	0.635724633	0.793188568	0.013561710	0.139913660	0.043122749
2019-10-13T04:00:00	0.2493	10.584	177.5	0.632890704	0.788954493	0.013449199	0.138752903	0.042764992
2019-10-13T04:05:00	0.2503	10.583	189.8	0.636244978	0.793966737	0.013582421	0.140127336	0.043188606
2019-10-13T04:10:00	0.2475	10.582	189.7	0.627034501	0.780226489	0.013218240	0.136370143	0.042030602
2019-10-13T04:15:00	0.2471	10.583	177.5	0.625759522	0.778330122	0.013168232	0.135854218	0.041871590
2019-10-13T04:20:00	0.2484	10.583	189.7	0.629782336	0.784318211	0.013326351	0.137485510	0.042374369
2019-10-13T04:25:00	0.2481	10.584	177.5	0.628839334	0.782913295	0.013289198	0.137102207	0.042256232
2019-10-13T04:30:00	0.2498	10.584	177.5	0.634511361	0.791375027	0.013513481	0.139416097	0.042969395
2019-10-13T04:35:00	0.2488	10.585	177.5	0.631255039	0.786513800	0.013384482	0.138085231	0.042559209
2019-10-13T04:40:00	0.2491	10.585	177.5	0.632296953	0.788068253	0.013425687	0.138510343	0.042690233
2019-10-13T04:45:00	0.2481	10.584	177.5	0.629038616	0.783210128	0.013297045	0.137183163	0.042281183
2019-10-13T04:50:00	0.2485	10.583	177.5	0.630412027	0.785256765	0.013351190	0.137741770	0.042453351
2019-10-13T04:55:00	0.2489	10.582	177.5	0.631454186	0.786810840	0.013392353	0.138166433	0.042584236
2019-10-13T05:00:00	0.2518	10.583	189.7	0.641082505	0.801212192	0.013775757	0.142121946	0.043803364
2019-10-13T05:05:00	0.2485	10.582	177.5	0.630230585	0.784986291	0.013344031	0.137667904	0.042430585
2019-10-13T05:10:00	0.2484	10.583	177.5	0.629949522	0.784567370	0.013332944	0.137553524	0.042395332
2019-10-13T05:15:00	0.2478	10.584	177.5	0.628013526	0.781683595	0.013256706	0.136766996	0.042152916
2019-10-13T05:20:00	0.2468	10.584	177.5	0.624751281	0.776831466	0.013128755	0.135446948	0.041746065
2019-10-13T05:25:00	0.2489	10.584	189.6	0.631422157	0.786763065	0.013391087	0.138153371	0.042580211
2019-10-13T05:30:00	0.2481	10.583	189.7	0.628825051	0.782892021	0.013288636	0.137096406	0.042254444
2019-10-13T05:35:00	0.2487	10.582	177.5	0.630860197	0.785924967	0.013368884	0.137924309	0.042509611
2019-10-13T05:40:00	0.2481	10.581	177.5	0.628924694	0.783040435	0.013292559	0.137136880	0.042266918
2019-10-13T05:45:00	0.2497	10.580	177.3	0.634266119	0.791008603	0.013503744	0.139315636	0.042938432
2019-10-13T05:50:00	0.2478	10.580	177.5	0.628031299	0.781710055	0.013257405	0.136774206	0.042155139
2019-10-13T05:55:00	0.2492	10.580	189.8	0.632712870	0.788689024	0.013442155	0.138680230	0.042742594
2019-10-13T06:00:00	0.2505	10.581	177.5	0.636727880	0.794689116	0.013601657	0.140325787	0.043249771
2019-10-13T06:05:00	0.2509	10.585	177.6	0.638098347	0.796740292	0.013656325	0.140889785	0.043423600
2019-10-13T06:10:00	0.2515	10.589	189.7	0.640128234	0.799781350	0.013737506	0.141727320	0.043681736
2019-10-13T06:15:00	0.2512	10.593	177.6	0.639187952	0.798372239	0.013699870	0.141339036	0.043562064
2019-10-13T06:20:00	0.2520	10.597	177.6	0.641876846	0.802403823	0.013807639	0.142450871	0.043904742
2019-10-13T06:25:00	0.2523	10.601	177.6	0.642915679	0.803963040	0.013849393	0.142881634	0.044037507
2019-10-13T06:30:00	0.2520	10.603	177.6	0.641976126	0.802552796	0.013811627	0.142492009	0.043917421
2019-10-13T06:35:00	0.2530	10.606	177.6	0.644992446	0.807082873	0.013933061	0.143744817	0.044303549
2019-10-13T06:40:00	0.2552	10.610	177.7	0.652283552	0.818065052	0.014228882	0.146796749	0.045244184
2019-10-13T06:45:00	0.2555	10.613	177.7	0.653319388	0.819628949	0.014271172	0.147233047	0.045378655
2019-10-13T06:50:00	0.2547	10.619	177.7	0.650738071	0.815733397	0.014165906	0.146147043	0.045043938
2019-10-13T06:55:00	0.2550	10.623	189.9	0.651774351	0.817296599	0.014208117	0.146582519	0.045178156
2019-10-13T07:00:00	0.2537	10.627	177.7	0.647545995	0.810923986	0.014036297	0.144809884	0.044631813
2019-10-13T07:05:00	0.2550	10.631	177.7	0.651544477	0.816949761	0.014198748	0.146485861	0.045148365
2019-10-13T07:10:00	0.2530	10.636	190.0	0.645010135	0.807109462	0.013933774	0.143752181	0.044305818
2019-10-13T07:15:00	0.2529	10.642	177.8	0.644730228	0.806688753	0.013922482	0.143635680	0.044269912
2019-10-13T07:20:00	0.2527	10.649	177.8	0.644120739	0.805772901	0.013897910	0.143382173	0.044191778
2019-10-13T07:25:00	0.2529	10.656	177.8	0.644829430	0.806837848	0.013926484	0.143676964	0.044282636
2019-10-13T07:30:00	0.2530	10.662	177.9	0.645208520	0.807407682	0.013941781	0.143834782	0.044331277
2019-10-13T07:35:00	0.2522	10.669	177.9	0.642621381	0.803521226	0.013837558	0.142759531	0.043999874
2019-10-13T07:40:00	0.2515	10.677	190.2	0.640032379	0.799637666	0.013733667	0.141687711	0.043669529
2019-10-13T07:45:00	0.2543	10.685	178.0	0.649308674	0.813578691	0.014107791	0.145547477	0.044859146
2019-10-13T07:50:00	0.2532	10.693	178.1	0.645736336	0.808201278	0.013963094	0.144054666	0.044399047
2019-10-13T07:55:00	0.2537	10.702	190.4	0.647432659	0.810753386	0.014031706	0.144762526	0.044617216
2019-10-13T08:00:00	0.2546	10.711	178.1	0.650444411	0.815290586	0.014153957	0.146023761	0.045005941
2019-10-13T08:05:00	0.2540	10.721	178.2	0.648519440	0.812389727	0.014075756	0.145216980	0.044757284
2019-10-13T08:10:00	0.2532	10.733	178.2	0.645934681	0.808499560	0.013971107	0.144137340	0.044424528
2019-10-13T08:15:00	0.2532	10.747	190.6	0.645654846	0.808078738	0.013959802	0.144020706	0.044388580
2019-10-13T08:20:00	0.2521	10.762	190.7	0.642078877	0.802706986	0.013815754	0.142534592	0.043930546
2019-10-13T08:25:00	0.2514	10.778	178.3	0.639819469	0.799318550	0.013725142	0.141599756	0.043642420
2019-10-13T08:30:00	0.2532	10.799	190.9	0.645803609	0.808302443	0.013965812	0.144082703	0.044407689
2019-10-13T08:35:00	0.2524	10.823	191.0	0.643216898	0.804415320	0.013861512	0.143006664	0.044076043
2019-10-13T08:40:00	0.2503	10.855	178.8	0.636337120	0.794104557	0.013586090	0.140165191	0.043200273
2019-10-13T08:45:00	0.2508	10.886	191.3	0.637707736	0.796155502	0.013640732	0.140728914	0.043374018
2019-10-13T08:50:00	0.2495	10.921	191.5	0.633462791	0.789808680	0.013471872	0.138986821	0.042837088
2019-10-13T08:55:00	0.2511	10.958	191.6	0.638797460	0.797787266	0.013684256	0.141177948	0.043512415
2019-10-13T09:00:00	0.2508	10.999	191.9	0.637856828	0.796378695	0.013646682	0.140790306	0.043392940
2019-10-13T09:05:00	0.2494	11.038	179.6	0.633281503	0.789537968	0.013464685	0.138912673	0.042814235
2019-10-13T09:10:00	0.2485	11.079	179.9	0.630354920	0.785171633	0.013348937	0.137718519	0.042446185
2019-10-13T09:15:00	0.2477	11.118	180.0	0.627757039	0.781301781	0.013246623	0.136662970	0.042120855
2019-10-13T09:20:00	0.2470	11.154	192.6	0.625157268	0.777434825	0.013144644	0.135610867	0.041796586
2019-10-13T09:25:00	0.2477	11.194	192.8	0.627525622	0.780957335	0.013237529	0.136569147	0.042091937
2019-10-13T09:30:00	0.2475	11.231	193.0	0.626913201	0.780046012	0.013213478	0.136321015	0.042015461
2019-10-13T09:35:00	0.2479	11.266	193.2	0.628287429	0.782091397	0.013267479	0.136878131	0.042187169
2019-10-13T09:40:00	0.2457	11.300	193.4	0.621047186	0.771333042	0.012984253	0.133956147	0.041286585
2019-10-13T09:45:00	0.2455	11.331	181.0	0.620433652	0.770423420	0.012960398	0.133710040	0.041210733
2019-10-13T09:50:00	0.2450	11.364	193.7	0.618824415	0.768039077	0.012897937	0.133065638	0.041012122
2019-10-13T09:55:00	0.2460	11.398	193.9	0.621860296	0.772539046	0.013015903	0.134282671	0.041387223
2019-10-13T10:00:00	0.2447	11.431	194.1	0.617596476	0.766221157	0.012850381	0.132575007	0.040860905
2019-10-13T10:05:00	0.2440	11.464	194.3	0.615221516	0.762708715	0.012758659	0.131628732	0.040569254
2019-10-13T10:10:00	0.2465	11.492	194.4	0.623799630	0.775417713	0.013091551	0.135063118	0.041627765
2019-10-13T10:15:00	0.2464	11.516	194.6	0.623418268	0.774851384	0.013076657	0.134909461	0.041580406
2019-10-13T10:20:00	0.2454	11.546	194.7	0.620051930	0.769857640	0.012945568	0.133557038	0.041163576
2019-10-13T10:25:00	0.2447	11.582	194.9	0.617678607	0.766342710	0.012853559	0.132607794	0.040871010
2019-10-13T10:30:00	0.2455	11.621	195.1	0.620283832	0.770201344	0.012954577	0.133649978	0.041192221
2019-10-13T10:35:00	0.2452	11.656	182.6	0.619238407	0.768652264	0.012913991	0.133231263	0.041063169
2019-10-13T10:40:00	0.2445	11.681	182.8	0.616864542	0.765138160	0.012822077	0.132283003	0.040770906
2019-10-13T10:45:00	0.2428	11.716	195.6	0.611496980	0.757209879	0.012615500	0.130151785	0.040114044
2019-10-13T10:50:00	0.2420	11.751	195.8	0.608785105	0.753213448	0.012511788	0.129081813	0.039784268
2019-10-13T10:55:00	0.2404	11.784	196.0	0.603405306	0.745303620	0.012307352	0.126972682	0.039134214
2019-10-13T11:00:00	0.2411	11.801	196.0	0.605687887	0.748656697	0.012393880	0.127865374	0.039409350
2019-10-13T11:05:00	0.2411	11.812	183.5	0.605637740	0.748582985	0.012391976	0.127845727	0.039403295
2019-10-13T11:10:00	0.2419	11.821	183.5	0.608251802	0.752428257	0.012491445	0.128871934	0.039719582
2019-10-13T11:15:00	0.2417	11.834	183.6	0.607535817	0.751374477	0.012464160	0.128590438	0.039632822
2019-10-13T11:20:00	0.2409	11.844	183.7	0.605154118	0.747872208	0.012373618	0.127656334	0.039344922
2019-10-13T11:25:00	0.2416	11.852	183.7	0.607435574	0.751226975	0.012460342	0.128551052	0.039620683
2019-10-13T11:30:00	0.2402	11.859	183.8	0.602720630	0.744298692	0.012281458	0.126705540	0.039051878
2019-10-13T11:35:00	0.2385	11.863	183.8	0.596997658	0.735914190	0.012066118	0.124483916	0.038367152
2019-10-13T11:40:00	0.2397	11.870	183.8	0.600952706	0.741705651	0.012214727	0.126017085	0.038839690
2019-10-13T11:45:00	0.2389	11.887	184.0	0.598232746	0.737721351	0.012112425	0.124961660	0.038514397
2019-10-13T11:50:00	0.2398	11.908	184.0	0.601519408	0.742536557	0.012236097	0.126237557	0.038907641
2019-10-13T11:55:00	0.2393	11.923	184.1	0.599801114	0.740018001	0.012171360	0.125569676	0.038701794
2019-10-13T12:00:00	0.2384	11.940	184.1	0.596746299	0.735546562	0.012056705	0.124386803	0.038337221
2019-10-13T12:05:00	0.2386	11.959	184.3	0.597363941	0.736449996	0.012079842	0.124625500	0.038410789
2019-10-13T12:10:00	0.2370	11.980	197.2	0.591966733	0.728566183	0.011878434	0.122547613	0.037770364
2019-10-13T12:15:00	0.2376	11.997	184.5	0.593922473	0.731420163	0.011951215	0.123298487	0.038001791
2019-10-13T12:20:00	0.2387	12.012	184.6	0.597547068	0.736717921	0.012086706	0.124696317	0.038432616
2019-10-13T12:25:00	0.2380	12.023	184.6	0.595492755	0.733713962	0.012009818	0.123903075	0.038188131
2019-10-13T12:30:00	0.2388	12.035	184.7	0.598114316	0.737548011	0.012107981	0.124915810	0.038500266
2019-10-13T12:35:00	0.2396	12.046	184.7	0.600733935	0.741384958	0.012206482	0.125932027	0.038813474
2019-10-13T12:40:00	0.2410	12.060	184.8	0.605351220	0.748161864	0.012381098	0.127733504	0.039368707
2019-10-13T12:45:00	0.2394	12.071	184.9	0.599966201	0.740259866	0.012177572	0.125633765	0.038721546
2019-10-13T12:50:00	0.2412	12.083	185.0	0.605917219	0.748993824	0.012402591	0.127955241	0.039437048
2019-10-13T12:55:00	0.2397	12.097	197.8	0.600866673	0.741579532	0.012211484	0.125983632	0.038829379
2019-10-13T13:00:00	0.2393	12.110	185.1	0.599815514	0.740039097	0.012171902	0.125575266	0.038703517
2019-10-13T13:05:00	0.2405	12.124	185.2	0.603767415	0.745835261	0.012321058	0.127114084	0.039177795
2019-10-13T13:10:00	0.2398	12.142	185.3	0.601383181	0.742336795	0.012230958	0.126184541	0.038891301
2019-10-13T13:15:00	0.2385	12.157	185.3	0.596994141	0.735909045	0.012065986	0.124482556	0.038366733
2019-10-13T13:20:00	0.2376	12.173	185.5	0.593936897	0.731441223	0.011951753	0.123304033	0.038003501
2019-10-13T13:25:00	0.2396	12.190	185.5	0.600565370	0.741137888	0.012200132	0.125866508	0.038793280
2019-10-13T13:30:00	0.2400	12.204	185.5	0.602182901	0.743509720	0.012261142	0.126495937	0.038987276
2019-10-13T13:35:00	0.2393	12.219	185.6	0.599797599	0.740012852	0.012171228	0.125568312	0.038701373
2019-10-13T13:40:00	0.2376	12.233	185.8	0.594069890	0.731635416	0.011956711	0.123355180	0.038019265
2019-10-13T13:45:00	0.2390	12.253	185.9	0.598695878	0.738399327	0.012129813	0.125141047	0.038569686
2019-10-13T13:50:00	0.2365	12.273	186.0	0.590290626	0.726122804	0.011816240	0.121905971	0.037572604
2019-10-13T13:55:00	0.2396	12.294	199.0	0.600597678	0.741185241	0.012201349	0.125879065	0.038797150
2019-10-13T14:00:00	0.2391	12.310	199.1	0.598878936	0.738667354	0.012136689	0.125211988	0.038591551
2019-10-13T14:05:00	0.2375	12.323	186.3	0.593818323	0.731268098	0.011947334	0.123258440	0.037989448
2019-10-13T14:10:00	0.2381	12.334	199.3	0.595773036	0.734123601	0.012020293	0.124011148	0.038221440
2019-10-13T14:15:00	0.2376	12.337	199.3	0.594051946	0.731609214	0.011956042	0.123348279	0.038017137
2019-10-13T14:20:00	0.2372	12.337	199.4	0.592664403	0.729583915	0.011904371	0.122815201	0.037852838
2019-10-13T14:25:00	0.2351	12.335	199.3	0.585585174	0.719275844	0.011642534	0.120113872	0.037020262
2019-10-13T14:30:00	0.2371	12.332	199.4	0.592229341	0.728949217	0.011888193	0.122648300	0.037801397
2019-10-13T14:35:00	0.2356	12.330	186.5	0.587159174	0.721564138	0.011700493	0.120711826	0.037204557
2019-10-13T14:40:00	0.2361	12.324	199.4	0.589117582	0.724414167	0.011772813	0.121457938	0.037434516
2019-10-13T14:45:00	0.2353	12.318	199.3	0.586388481	0.720443441	0.011672095	0.120418854	0.037114260
2019-10-13T14:50:00	0.2348	12.312	199.3	0.584662801	0.717935847	0.011608638	0.119764175	0.036912482
2019-10-13T14:55:00	0.2348	12.306	199.4	0.584612354	0.717862580	0.011606785	0.119745064	0.036906592
2019-10-13T15:00:00	0.2346	12.295	199.2	0.583891561	0.716815956	0.011580335	0.119472176	0.036822485
2019-10-13T15:05:00	0.2342	12.281	186.3	0.582500008	0.714796581	0.011529356	0.118946245	0.036660388
2019-10-13T15:10:00	0.2347	12.264	186.2	0.584461010	0.717642786	0.011601229	0.119687740	0.036888924
2019-10-13T15:15:00	0.2354	12.247	186.1	0.586755867	0.720977611	0.011685628	0.120558467	0.037157290
2019-10-13T15:20:00	0.2338	12.232	186.1	0.581342373	0.713117884	0.011487035	0.118509626	0.036525818
2019-10-13T15:25:00	0.2338	12.218	186.0	0.581291878	0.713044687	0.011485191	0.118490600	0.036519954
2019-10-13T15:30:00	0.2334	12.203	185.9	0.579899296	0.711026825	0.011434390	0.117966498	0.036358420
2019-10-13T15:35:00	0.2350	12.187	185.9	0.585214136	0.718736726	0.011628892	0.119973139	0.036976887
2019-10-13T15:40:00	0.2344	12.172	185.8	0.583152620	0.715743429	0.011553250	0.119192749	0.036736363
2019-10-13T15:45:00	0.2348	12.160	185.8	0.584778153	0.718103389	0.011612874	0.119807880	0.036925952
2019-10-13T15:50:00	0.2374	12.148	185.7	0.593430203	0.730701501	0.011932874	0.123109266	0.037943471
2019-10-13T15:55:00	0.2356	12.134	185.7	0.587357283	0.721852296	0.011707798	0.120787194	0.037227786
2019-10-13T16:00:00	0.2365	12.122	185.7	0.590319504	0.726164881	0.011817310	0.121917012	0.037576007
2019-10-13T16:05:00	0.2341	12.110	185.6	0.582137647	0.714270998	0.011516101	0.118809487	0.036618238
2019-10-13T16:10:00	0.2345	12.099	185.5	0.583671729	0.716496836	0.011572274	0.119389013	0.036796853
2019-10-13T16:15:00	0.2341	12.090	185.5	0.582188129	0.714344213	0.011517947	0.118828534	0.036624108
2019-10-13T16:20:00	0.2345	12.081	185.4	0.583722189	0.716570083	0.011574124	0.119408099	0.036802736
2019-10-13T16:25:00	0.2352	12.077	185.4	0.585925666	0.719770678	0.011655059	0.120243094	0.037060089
2019-10-13T16:30:00	0.2326	12.072	185.4	0.577397758	0.707406121	0.011343424	0.117028019	0.036069172
2019-10-13T16:35:00	0.2339	12.069	185.3	0.581618311	0.713517924	0.011497116	0.118613625	0.036557871
2019-10-13T16:40:00	0.2309	12.065	185.4	0.571398321	0.698743724	0.011126772	0.114792859	0.035380274
2019-10-13T16:45:00	0.2336	12.064	185.4	0.580662406	0.712132378	0.011462214	0.118253549	0.036446892
2019-10-13T16:50:00	0.2337	12.064	198.2	0.580855409	0.712412067	0.011469257	0.118326205	0.036469286
2019-10-13T16:55:00	0.2321	12.063	185.3	0.575676673	0.704918051	0.011281054	0.116384559	0.035870851
2019-10-13T17:00:00	0.2314	12.060	185.3	0.573181145	0.701314776	0.011190931	0.115454775	0.035584283
2019-10-13T17:05:00	0.2348	12.058	185.4	0.584787149	0.718116456	0.011613204	0.119811288	0.036927003
2019-10-13T17:10:00	0.2359	12.057	185.4	0.588329344	0.723266678	0.011743677	0.121157353	0.037341873
2019-10-13T17:15:00	0.2349	12.057	185.4	0.584837593	0.718189726	0.011615057	0.119830403	0.036932894
2019-10-13T17:20:00	0.2344	12.058	185.5	0.583354486	0.716036379	0.011560646	0.119269050	0.036759880
2019-10-13T17:25:00	0.2319	12.057	185.5	0.574820324	0.703680993	0.011250087	0.116065071	0.035772382
2019-10-13T17:30:00	0.2347	12.054	185.5	0.584410561	0.717569524	0.011599377	0.119668634	0.036883035
2019-10-13T17:35:00	0.2330	12.054	185.5	0.578565706	0.709095953	0.011385850	0.117465711	0.036204073
2019-10-13T17:40:00	0.2334	12.053	185.5	0.580101348	0.711319501	0.011441754	0.118042467	0.036381835
2019-10-13T17:45:00	0.2336	12.052	185.5	0.580629915	0.712085296	0.011461029	0.118241320	0.036443123
2019-10-13T17:50:00	0.2339	12.052	185.5	0.581493851	0.713337481	0.011492569	0.118566711	0.036543412
2019-10-13T17:55:00	0.2345	12.051	185.5	0.583698724	0.716536022	0.011573263	0.119399224	0.036800000
2019-10-13T18:00:00	0.2340	12.047	185.6	0.581879755	0.713897009	0.011506671	0.118712205	0.036588255
2019-10-13T18:05:00	0.2362	12.044	185.5	0.589443290	0.724888473	0.011784863	0.121582254	0.037472832
2019-10-13T18:10:00	0.2368	12.043	198.4	0.591308707	0.727606652	0.011853997	0.122295503	0.037692662
2019-10-13T18:15:00	0.2357	12.040	185.5	0.587819910	0.722525336	0.011724867	0.120963289	0.037282061
2019-10-13T18:20:00	0.2343	12.039	185.6	0.582986744	0.715502733	0.011547174	0.119130070	0.036717044
2019-10-13T18:25:00	0.2341	12.039	185.6	0.582173657	0.714323223	0.011517418	0.118823074	0.036622425
2019-10-13T18:30:00	0.2340	12.038	198.4	0.582031211	0.714116639	0.011512208	0.118769332	0.036605862
2019-10-13T18:35:00	0.2339	12.035	185.5	0.581553346	0.713423736	0.011494742	0.118589136	0.036550324
2019-10-13T18:40:00	0.2336	12.033	198.4	0.580739928	0.712244714	0.011465042	0.118282729	0.036455886
2019-10-13T18:45:00	0.2333	12.031	185.5	0.579590721	0.710579916	0.011423149	0.117850525	0.036322676
2019-10-13T18:50:00	0.2329	12.029	185.5	0.578105396	0.708429824	0.011369119	0.117293109	0.036150875
2019-10-13T18:55:00	0.2333	12.026	185.6	0.579641239	0.710653076	0.011424989	0.117869508	0.036328527
2019-10-13T19:00:00	0.2320	12.022	185.5	0.575132858	0.704132402	0.011261384	0.116181620	0.035808304
2019-10-13T19:05:00	0.2315	12.020	185.5	0.573645644	0.701985071	0.011207678	0.115627550	0.035637534
2019-10-13T19:10:00	0.2330	12.017	185.5	0.578542207	0.709061943	0.011384995	0.117456896	0.036201356
2019-10-13T19:15:00	0.2344	12.013	185.5	0.583431948	0.716148803	0.011563484	0.119298336	0.036768906
2019-10-13T19:20:00	0.2337	12.009	185.5	0.580941932	0.712537461	0.011472414	0.118358785	0.036479327
2019-10-13T19:25:00	0.2328	12.005	185.5	0.577778636	0.707957066	0.011357251	0.117170662	0.036113136
2019-10-13T19:30:00	0.2313	12.000	185.5	0.572931621	0.700954772	0.011181940	0.115362016	0.035555694
2019-10-13T19:35:00	0.2320	11.996	185.4	0.575141879	0.704145432	0.011261710	0.116184985	0.035809341
2019-10-13T19:40:00	0.2335	11.993	185.4	0.580371912	0.711711469	0.011451618	0.118144235	0.036413201
2019-10-13T19:45:00	0.2320	11.990	185.4	0.575192462	0.704218499	0.011263539	0.116203854	0.035815156
2019-10-13T19:50:00	0.2315	11.984	185.3	0.573705273	0.702071132	0.011209829	0.115649739	0.035644373
2019-10-13T19:55:00	0.2345	11.979	185.3	0.583633798	0.716441777	0.011570883	0.119374666	0.036792431
2019-10-13T20:00:00	0.2336	11.975	185.3	0.580472926	0.711857825	0.011455302	0.118182241	0.036424914
2019-10-13T20:05:00	0.2332	11.967	185.3	0.579323632	0.710193155	0.011413424	0.117750192	0.036291753
2019-10-13T20:10:00	0.2348	11.962	185.3	0.584547444	0.717768311	0.011604402	0.119720476	0.036899014
2019-10-13T20:15:00	0.2345	11.955	185.3	0.583734718	0.716588271	0.011574583	0.119412839	0.036804197
2019-10-13T20:20:00	0.2333	11.948	185.3	0.579567229	0.710545895	0.011422294	0.117841699	0.036319956
2019-10-13T20:25:00	0.2327	11.942	185.2	0.577746118	0.707910023	0.011356070	0.117158481	0.036109382
2019-10-13T20:30:00	0.2324	11.935	185.1	0.576595930	0.706246661	0.011314345	0.116728015	0.035976708
2019-10-13T20:35:00	0.2335	11.929	185.1	0.580146387	0.711384744	0.011443396	0.118059404	0.036387055
2019-10-13T20:40:00	0.2310	11.922	185.1	0.571940772	0.699525727	0.011146274	0.114994051	0.035442283
2019-10-13T20:45:00	0.2324	11.915	197.9	0.576503821	0.706113504	0.011311007	0.116693578	0.035966094
2019-10-13T20:50:00	0.2336	11.910	185.0	0.580725449	0.712223733	0.011464514	0.118277279	0.036454206
2019-10-13T20:55:00	0.2342	11.904	185.0	0.582595492	0.714935092	0.011532851	0.118982295	0.036671499
2019-10-13T21:00:00	0.2344	11.898	184.9	0.583458945	0.716187986	0.011564474	0.119308544	0.036772052
2019-10-13T21:05:00	0.2327	11.890	184.9	0.577612506	0.707716742	0.011351219	0.117108434	0.036093957
2019-10-13T21:10:00	0.2339	11.883	197.7	0.581497384	0.713342603	0.011492698	0.118568043	0.036543822
2019-10-13T21:15:00	0.2327	11.879	184.8	0.577663053	0.707789861	0.011353054	0.117127366	0.036099792
2019-10-13T21:20:00	0.2328	11.876	184.9	0.577856221	0.708069309	0.011360068	0.117199730	0.036122095
2019-10-13T21:25:00	0.2326	11.872	184.8	0.577377789	0.707377239	0.011342700	0.117020543	0.036066868
2019-10-13T21:30:00	0.2336	11.870	184.8	0.580591951	0.712030286	0.011459644	0.118227032	0.036438719
2019-10-13T21:35:00	0.2344	11.868	184.8	0.583467945	0.716201048	0.011564804	0.119311947	0.036773101
2019-10-13T21:40:00	0.2351	11.866	184.8	0.585671581	0.719401409	0.011645711	0.120146658	0.037030367
2019-10-13T21:45:00	0.2351	11.864	184.8	0.585529276	0.719194616	0.011640478	0.120092665	0.037013726
2019-10-13T21:50:00	0.2351	11.861	184.8	0.585722012	0.719474698	0.011647566	0.120165796	0.037036265
2019-10-13T21:55:00	0.2342	11.858	184.8	0.582563019	0.714887985	0.011531662	0.118970034	0.036667720
2019-10-13T22:00:00	0.2362	11.855	184.8	0.589455799	0.724906691	0.011785325	0.121587030	0.037474303
2019-10-13T22:05:00	0.2347	11.852	184.7	0.584343180	0.717471676	0.011596904	0.119643119	0.036875171
2019-10-13T22:10:00	0.2346	11.846	184.7	0.583919086	0.716855916	0.011581344	0.119482591	0.036825695
2019-10-13T22:15:00	0.2348	11.840	184.7	0.584500526	0.717700173	0.011602680	0.119702706	0.036893536
2019-10-13T22:20:00	0.2331	11.833	184.7	0.579045042	0.709789801	0.011403285	0.117645584	0.036259512
2019-10-13T22:25:00	0.2363	11.827	184.6	0.589681259	0.725235067	0.011793670	0.121673124	0.037500838
2019-10-13T22:30:00	0.2348	11.818	184.6	0.584568967	0.717799568	0.011605192	0.119728629	0.036901526
2019-10-13T22:35:00	0.2372	11.809	184.6	0.592514465	0.729365157	0.011898794	0.122757668	0.037835105
2019-10-13T22:40:00	0.2355	11.799	197.3	0.587071400	0.721436478	0.011697257	0.120678441	0.037194268
2019-10-13T22:45:00	0.2342	11.791	184.5	0.582626028	0.714979390	0.011533968	0.118993825	0.036675052
2019-10-13T22:50:00	0.2354	11.784	184.5	0.586558787	0.720691047	0.011678367	0.120483563	0.037134204
2019-10-13T22:55:00	0.2345	11.775	184.4	0.583789240	0.716667417	0.011576582	0.119433464	0.036810554
2019-10-13T23:00:00	0.2332	11.767	184.4	0.579339713	0.710216439	0.011414009	0.117756232	0.036293614
2019-10-13T23:05:00	0.2335	11.758	184.3	0.580257479	0.711545681	0.011447446	0.118101187	0.036399933
2019-10-13T23:10:00	0.2340	11.750	184.3	0.581845870	0.713847873	0.011505432	0.118699426	0.036584316
2019-10-13T23:15:00	0.2329	11.739	184.2	0.578401211	0.708857886	0.011379869	0.117404015	0.036185058
2019-10-13T23:20:00	0.2316	11.730	196.9	0.573944843	0.702416926	0.011218472	0.115738909	0.035671856
2019-10-13T23:25:00	0.2320	11.720	196.8	0.575200074	0.704229495	0.011263814	0.116206694	0.035816032
2019-10-13T23:30:00	0.2334	11.711	184.2	0.579812405	0.710900973	0.011431224	0.117933835	0.036348353
2019-10-13T23:35:00	0.2322	11.703	184.1	0.576029808	0.705428358	0.011293837	0.116516438	0.035911498
2019-10-13T23:40:00	0.2328	11.696	184.1	0.577955901	0.708213523	0.011363689	0.117237081	0.036133607
2019-10-13T23:45:00	0.2332	11.689	184.0	0.579209697	0.710028188	0.011409277	0.117707405	0.036278565
2019-10-13T23:50:00	0.2331	11.683	184.0	0.578784984	0.709413338	0.011393824	0.117547979	0.036229429
2019-10-13T23:55:00	0.2318	11.676	183.9	0.574665207	0.703456981	0.011244482	0.116007248	0.035754561
2019-10-14T00:00:00	0.2339	11.669	183.9	0.581626973	0.713530483	0.011497432	0.118616891	0.036558878
2019-10-14T00:05:00	0.2332	11.662	196.6	0.579189206	0.709998520	0.011408531	0.117699711	0.036276194
2019-10-14T00:10:00	0.2326	11.655	183.8	0.577421455	0.707440395	0.011344284	0.117036891	0.036071907
2019-10-14T00:15:00	0.2338	11.649	183.8	0.581360040	0.713143495	0.011487681	0.118516283	0.036527869
2019-10-14T00:20:00	0.2324	11.644	183.8	0.576571543	0.706211405	0.011313462	0.116718897	0.035973898
2019-10-14T00:25:00	0.2330	11.638	183.8	0.578497338	0.708997005	0.011383364	0.117440067	0.036196169
2019-10-14T00:30:00	0.2319	11.633	183.7	0.575049389	0.704011835	0.011258366	0.116150487	0.035798708
2019-10-14T00:35:00	0.2315	11.628	196.4	0.573615753	0.701941932	0.011206600	0.115616427	0.035634106
2019-10-14T00:40:00	0.2311	11.622	183.6	0.572181530	0.699872884	0.011154935	0.115083405	0.035469823
2019-10-14T00:45:00	0.2319	11.616	183.6	0.574781955	0.703625580	0.011248700	0.116050767	0.035767973
2019-10-14T00:50:00	0.2312	11.607	183.6	0.572675717	0.700585619	0.011172723	0.115266926	0.035526386
2019-10-14T00:55:00	0.2323	11.599	183.5	0.576283716	0.705795338	0.011303033	0.116611307	0.035940737
2019-10-14T01:00:00	0.2310	11.590	183.5	0.571824654	0.699358310	0.011142098	0.114950969	0.035429005
2019-10-14T01:05:00	0.2324	11.581	196.1	0.576441425	0.706023304	0.011308746	0.116670252	0.035958905
2019-10-14T01:10:00	0.2324	11.573	196.1	0.576688227	0.706380097	0.011317691	0.116762528	0.035987345
2019-10-14T01:15:00	0.2325	11.563	196.0	0.576935012	0.706736915	0.011326638	0.116854835	0.036015795
2019-10-14T01:20:00	0.2326	11.553	196.0	0.577181779	0.707093759	0.011335588	0.116947172	0.036044254
2019-10-14T01:25:00	0.2302	11.543	195.9	0.569359509	0.695806731	0.011053632	0.114038280	0.035147705
2019-10-14T01:30:00	0.2326	11.533	195.8	0.577339447	0.707321785	0.011341308	0.117006189	0.036062444
2019-10-14T01:35:00	0.2303	11.522	195.8	0.569517529	0.696034243	0.011059292	0.114096673	0.035165703
2019-10-14T01:40:00	0.2314	11.512	195.8	0.573128782	0.701239223	0.011189044	0.115435306	0.035578282
2019-10-14T01:45:00	0.2321	11.501	195.6	0.575728504	0.704992944	0.011282930	0.116403910	0.035876816
2019-10-14T01:50:00	0.2321	11.490	195.6	0.575639378	0.704864164	0.011279705	0.116370636	0.035866560
2019-10-14T01:55:00	0.2319	11.479	182.9	0.574878182	0.703764554	0.011252178	0.116086643	0.035779031
2019-10-14T02:00:00	0.2307	11.468	195.5	0.570753807	0.697814905	0.011103624	0.114554046	0.035306669
2019-10-14T02:05:00	0.2326	11.457	195.5	0.577387526	0.707391322	0.011343053	0.117024188	0.036067991
2019-10-14T02:10:00	0.2314	11.446	195.4	0.573266106	0.701437365	0.011193993	0.115486367	0.035594020
2019-10-14T02:15:00	0.2301	11.435	195.3	0.568803197	0.695005938	0.011033717	0.113832825	0.035084382
2019-10-14T02:20:00	0.2301	11.425	195.2	0.568713895	0.694877414	0.011030522	0.113799862	0.035074223
2019-10-14T02:25:00	0.2324	11.414	195.2	0.576695303	0.706390328	0.011317947	0.116765174	0.035988161
2019-10-14T02:30:00	0.2335	11.405	195.1	0.580299171	0.711606082	0.011448966	0.118116870	0.036404766
2019-10-14T02:35:00	0.2324	11.395	195.1	0.576517099	0.706132699	0.011311489	0.116698542	0.035967624
2019-10-14T02:40:00	0.2327	11.385	182.4	0.577435604	0.707460861	0.011344798	0.117042189	0.036073539
2019-10-14T02:45:00	0.2312	11.376	194.9	0.572641743	0.700536614	0.011171500	0.115254304	0.035522496
2019-10-14T02:50:00	0.2311	11.368	195.0	0.572216233	0.699922927	0.011156183	0.115096287	0.035473794
2019-10-14T02:55:00	0.2324	11.360	194.9	0.576496592	0.706103054	0.011310745	0.116690876	0.035965261
2019-10-14T03:00:00	0.2317	11.353	194.9	0.574391386	0.703061590	0.011234592	0.115905211	0.035723112
2019-10-14T03:05:00	0.2338	11.345	194.8	0.581353695	0.713134297	0.011487449	0.118513892	0.036527132
2019-10-14T03:10:00	0.2331	11.337	194.7	0.578915737	0.709602612	0.011398580	0.117597048	0.036244552
2019-10-14T03:15:00	0.2328	11.329	194.6	0.577819483	0.708016158	0.011358734	0.117185965	0.036117853
2019-10-14T03:20:00	0.2314	11.321	194.6	0.573362375	0.701576278	0.011197464	0.115522169	0.035605054
2019-10-14T03:25:00	0.2309	11.312	194.6	0.571591682	0.699022448	0.011133722	0.114864555	0.035402371
2019-10-14T03:30:00	0.2328	11.303	194.5	0.577888054	0.708115362	0.011361224	0.117211657	0.036125771
2019-10-14T03:35:00	0.2332	11.295	194.5	0.579141874	0.709929992	0.011406808	0.117681939	0.036270716
2019-10-14T03:40:00	0.2328	11.286	194.5	0.578045690	0.708343434	0.011366950	0.117270730	0.036143978
2019-10-14T03:45:00	0.2320	11.278	194.4	0.575269419	0.704329668	0.011266322	0.116232565	0.035824005
2019-10-14T03:50:00	0.2321	11.268	194.3	0.575516304	0.704686341	0.011275252	0.116324694	0.035852401
2019-10-14T03:55:00	0.2321	11.259	194.3	0.575427173	0.704557568	0.011272027	0.116291429	0.035842148
2019-10-14T04:00:00	0.2317	11.249	194.2	0.574329827	0.702972709	0.011232369	0.115882278	0.035716044
2019-10-14T04:05:00	0.2317	11.239	194.2	0.574184055	0.702762250	0.011227106	0.115827982	0.035699309
2019-10-14T04:10:00	0.2333	11.230	194.2	0.579748128	0.710807879	0.011428883	0.117909677	0.036340908
2019-10-14T04:15:00	0.2336	11.220	194.0	0.580609280	0.712055396	0.011460276	0.118233553	0.036440729
2019-10-14T04:20:00	0.2354	11.210	193.9	0.586498162	0.720602903	0.011676134	0.120460526	0.037127104
2019-10-14T04:25:00	0.2346	11.200	193.9	0.584007318	0.716984012	0.011584580	0.119515980	0.036835986
2019-10-14T04:30:00	0.2333	11.189	193.8	0.579501541	0.710450772	0.011419902	0.117817020	0.036312350
2019-10-14T04:35:00	0.2346	11.178	181.3	0.584051775	0.717048557	0.011586211	0.119532805	0.036841171
2019-10-14T04:40:00	0.2359	11.167	181.2	0.588261356	0.723167727	0.011741166	0.121131444	0.037333887
2019-10-14T04:45:00	0.2342	11.157	193.7	0.582755234	0.715166835	0.011538698	0.119042617	0.036690091
2019-10-14T04:50:00	0.2355	11.145	181.1	0.586966365	0.721283720	0.011693385	0.120638497	0.037181956
2019-10-14T04:55:00	0.2354	11.133	193.6	0.586821116	0.721072492	0.011688032	0.120583271	0.037164935
2019-10-14T05:00:00	0.2365	11.122	193.5	0.590358272	0.726221371	0.011818747	0.121931834	0.037580575
2019-10-14T05:05:00	0.2374	11.111	180.9	0.593223310	0.730399519	0.011925170	0.123029784	0.037918974
2019-10-14T05:10:00	0.2367	11.101	193.4	0.591071757	0.727261221	0.011845204	0.122204786	0.037664702
2019-10-14T05:15:00	0.2362	11.090	193.4	0.589253600	0.724612231	0.011777844	0.121509846	0.037450515
2019-10-14T05:20:00	0.2373	11.079	193.2	0.593122661	0.730252624	0.011921423	0.122991128	0.037907060
2019-10-14T05:25:00	0.2390	11.069	193.2	0.598656898	0.738342258	0.012128349	0.125125943	0.038565031
2019-10-14T05:30:00	0.2394	11.059	193.1	0.600180825	0.740574342	0.012185650	0.125717109	0.038747234
2019-10-14T05:35:00	0.2388	11.050	193.1	0.598033508	0.737429743	0.012104949	0.124884529	0.038490625
2019-10-14T05:40:00	0.2427	11.040	193.1	0.610886018	0.756308978	0.012592096	0.129910332	0.040039626
2019-10-14T05:45:00	0.2418	11.033	180.4	0.608079408	0.752174491	0.012484872	0.128804127	0.039698683
2019-10-14T05:50:00	0.2423	11.023	180.5	0.609599288	0.754412643	0.012542879	0.129402571	0.039883129
2019-10-14T05:55:00	0.2438	11.015	192.9	0.614775592	0.762049747	0.012741475	0.131451450	0.040514613
2019-10-14T06:00:00	0.2442	11.007	192.9	0.615960447	0.763801047	0.012787160	0.131922775	0.040659880
2019-10-14T06:05:00	0.2446	11.000	180.4	0.617476961	0.766044287	0.012845757	0.132527304	0.040846202
2019-10-14T06:10:00	0.2461	10.993	192.8	0.622310254	0.773206662	0.013033434	0.134463539	0.041442969
2019-10-14T06:15:00	0.2458	10.986	192.8	0.621171503	0.771517393	0.012989090	0.134006043	0.041301964
2019-10-14T06:20:00	0.2463	10.980	192.7	0.623017339	0.774256131	0.013061009	0.134748018	0.041530648
2019-10-14T06:25:00	0.2460	10.975	192.7	0.621878814	0.772566518	0.013016624	0.134290112	0.041389517
2019-10-14T06:30:00	0.2484	10.970	180.2	0.630016417	0.784667070	0.013335582	0.137580743	0.042403721
2019-10-14T06:35:00	0.2466	10.965	180.2	0.623911988	0.775584591	0.013095941	0.135108406	0.041641723
2019-10-14T06:40:00	0.2473	10.961	192.6	0.626418883	0.779310665	0.013194081	0.136120904	0.041953785
2019-10-14T06:45:00	0.2467	10.957	180.1	0.624287367	0.776142190	0.013110612	0.135259767	0.041688374
2019-10-14T06:50:00	0.2487	10.953	192.5	0.630765854	0.785784292	0.013365158	0.137885873	0.042497765
2019-10-14T06:55:00	0.2496	10.951	192.5	0.633929035	0.790505037	0.013490365	0.139177613	0.042895892
2019-10-14T07:00:00	0.2494	10.950	192.5	0.633124582	0.789303664	0.013458465	0.138848507	0.042794458
2019-10-14T07:05:00	0.2504	10.949	192.4	0.636615961	0.794521677	0.013597198	0.140279781	0.043235591
2019-10-14T07:10:00	0.2501	10.949	192.5	0.635481757	0.792825429	0.013552048	0.139813983	0.043092027
2019-10-14T07:15:00	0.2503	10.949	192.5	0.636329488	0.794093142	0.013585787	0.140162055	0.043199307
2019-10-14T07:20:00	0.2510	10.950	180.0	0.638497627	0.797338193	0.013672273	0.141054324	0.043474313
2019-10-14T07:25:00	0.2503	10.952	192.4	0.636373295	0.794158668	0.013587531	0.140180054	0.043204854
2019-10-14T07:30:00	0.2501	10.955	180.0	0.635569391	0.792956449	0.013555534	0.139849944	0.043103111
2019-10-14T07:35:00	0.2512	10.958	180.1	0.639058391	0.798178137	0.013694689	0.141285578	0.043545587
2019-10-14T07:40:00	0.2511	10.961	180.0	0.638915255	0.797963714	0.013688965	0.141226532	0.043527389
2019-10-14T07:45:00	0.2506	10.966	180.1	0.637121403	0.795277938	0.013617343	0.140487616	0.043299648
2019-10-14T07:50:00	0.2496	10.972	180.1	0.634004877	0.790618328	0.013493375	0.139208661	0.042905461
2019-10-14T07:55:00	0.2513	10.977	180.1	0.639475953	0.798803759	0.013711392	0.141457906	0.043598700
2019-10-14T08:00:00	0.2496	10.985	180.1	0.634048712	0.790683810	0.013495114	0.139226608	0.042910993
2019-10-14T08:05:00	0.2512	10.994	180.2	0.639189709	0.798374871	0.013699941	0.141339761	0.043562287
2019-10-14T08:10:00	0.2499	11.005	180.2	0.634753479	0.791736834	0.013523099	0.139515317	0.042999976
2019-10-14T08:15:00	0.2503	11.015	180.3	0.636262038	0.793992253	0.013583101	0.140134344	0.043190766
2019-10-14T08:20:00	0.2500	11.028	180.3	0.635127722	0.792296178	0.013537971	0.139668752	0.043047266
2019-10-14T08:25:00	0.2518	11.040	180.5	0.641256824	0.801473650	0.013782750	0.142194095	0.043825601
2019-10-14T08:30:00	0.2485	11.056	180.5	0.630212148	0.784958809	0.013343303	0.137660400	0.042428272
2019-10-14T08:35:00	0.2491	11.074	193.1	0.632383990	0.788198147	0.013429133	0.138545885	0.042701187
2019-10-14T08:40:00	0.2484	11.100	193.2	0.629925163	0.784531065	0.013331983	0.137543613	0.042392277
2019-10-14T08:45:00	0.2491	11.122	180.7	0.632097179	0.787770135	0.013417782	0.138428780	0.042665094
2019-10-14T08:50:00	0.2491	11.149	180.9	0.632284444	0.788049585	0.013425192	0.138505235	0.042688659
2019-10-14T08:55:00	0.2497	11.179	193.6	0.634124551	0.790797105	0.013498124	0.139257661	0.042920563
2019-10-14T09:00:00	0.2507	11.212	193.7	0.637614957	0.796016620	0.013637029	0.140690718	0.043362246
2019-10-14T09:05:00	0.2498	11.255	193.9	0.634498860	0.791356347	0.013512985	0.139410976	0.042967817
2019-10-14T09:10:00	0.2477	11.293	194.2	0.627739977	0.781276383	0.013245953	0.136656051	0.042118722
2019-10-14T09:15:00	0.2470	11.326	194.3	0.625277952	0.777614207	0.013149369	0.135659614	0.041811610
2019-10-14T09:20:00	0.2460	11.359	194.5	0.621819467	0.772478474	0.013014313	0.134266265	0.041382167
2019-10-14T09:25:00	0.2465	11.396	194.7	0.623664968	0.775217723	0.013086291	0.135008850	0.041611039
2019-10-14T09:30:00	0.2464	11.434	194.8	0.623189724	0.774512051	0.013067736	0.134817421	0.041552038
2019-10-14T09:35:00	0.2464	11.469	195.1	0.623377456	0.774790785	0.013075064	0.134893023	0.041575340
2019-10-14T09:40:00	0.2482	11.506	195.2	0.629195754	0.783444212	0.013303234	0.137247016	0.042300863
2019-10-14T09:45:00	0.2459	11.542	195.4	0.621763612	0.772395614	0.013012137	0.134243823	0.041375250
2019-10-14T09:50:00	0.2456	11.577	195.7	0.620624686	0.770706611	0.012967823	0.133786644	0.041234343
2019-10-14T09:55:00	0.2448	11.606	183.0	0.618157745	0.767051939	0.012872106	0.132799150	0.040929988
2019-10-14T10:00:00	0.2458	11.628	183.1	0.621332106	0.771755571	0.012995339	0.134070516	0.041321835
2019-10-14T10:05:00	0.2435	11.652	195.9	0.613686383	0.760440860	0.012699552	0.131018940	0.040381310
2019-10-14T10:10:00	0.2446	11.677	183.4	0.617331905	0.765829636	0.012840146	0.132469418	0.040828361
2019-10-14T10:15:00	0.2467	11.700	183.6	0.624289281	0.776145034	0.013110687	0.135260539	0.041688612
2019-10-14T10:20:00	0.2453	11.723	183.7	0.619637694	0.769243807	0.012929484	0.133391106	0.041112434
2019-10-14T10:25:00	0.2448	11.747	183.8	0.617969211	0.766772844	0.012864806	0.132723837	0.040906776
2019-10-14T10:30:00	0.2440	11.773	183.9	0.615303363	0.762829685	0.012761814	0.131661285	0.040579287
2019-10-14T10:35:00	0.2444	11.800	184.0	0.616623164	0.764781106	0.012812750	0.132186779	0.040741249
2019-10-14T10:40:00	0.2426	11.826	184.2	0.610631083	0.755933154	0.012582337	0.129809649	0.040008595
2019-10-14T10:45:00	0.2426	11.848	184.3	0.610622153	0.755919990	0.012581995	0.129806123	0.040007508
2019-10-14T10:50:00	0.2438	11.867	184.4	0.614603138	0.761794947	0.012734833	0.131382922	0.040493492
2019-10-14T10:55:00	0.2428	11.885	184.5	0.611269591	0.756874543	0.012606787	0.130061893	0.040086339
2019-10-14T11:00:00	0.2415	11.899	184.6	0.606933979	0.750489030	0.012441248	0.128354065	0.039559969
2019-10-14T11:05:00	0.2423	11.914	184.8	0.609588245	0.754396374	0.012542457	0.129398217	0.039881787
2019-10-14T11:10:00	0.2399	11.928	184.8	0.601583666	0.742630790	0.012238521	0.126262569	0.038915350
2019-10-14T11:15:00	0.2422	11.939	184.8	0.609237586	0.753879830	0.012529062	0.129260023	0.039839194
2019-10-14T11:20:00	0.2408	11.952	197.8	0.604566257	0.747008493	0.012351322	0.127426314	0.039274028
2019-10-14T11:25:00	0.2408	11.967	185.0	0.604557311	0.746995353	0.012350983	0.127422816	0.039272949
2019-10-14T11:30:00	0.2431	11.981	185.0	0.612204823	0.758254027	0.012642643	0.130431814	0.040200352
2019-10-14T11:35:00	0.2420	11.998	197.9	0.608536165	0.752846900	0.012502290	0.128983822	0.039754066
2019-10-14T11:40:00	0.2383	12.012	198.0	0.596189387	0.734732231	0.012035863	0.124171777	0.038270948
2019-10-14T11:45:00	0.2396	12.026	185.3	0.600853864	0.741560755	0.012211002	0.125978652	0.038827844
2019-10-14T11:50:00	0.2386	12.044	185.4	0.597507357	0.736659819	0.012085217	0.124680959	0.038427882
2019-10-14T11:55:00	0.2396	12.064	198.4	0.600835954	0.741534501	0.012210327	0.125971688	0.038825698
2019-10-14T12:00:00	0.2381	12.084	185.6	0.595819464	0.734191462	0.012022029	0.124029054	0.038226959
2019-10-14T12:05:00	0.2392	12.102	198.6	0.599483391	0.739552575	0.012159409	0.125446381	0.038663793
2019-10-14T12:10:00	0.2376	12.121	198.7	0.594130763	0.731724306	0.011958980	0.123378595	0.038026481
2019-10-14T12:15:00	0.2362	12.139	185.9	0.589439423	0.724882842	0.011784719	0.121580778	0.037472377
2019-10-14T12:20:00	0.2364	12.155	186.0	0.590099732	0.725844672	0.011809167	0.121833003	0.037550115
2019-10-14T12:25:00	0.2374	12.170	186.0	0.593435315	0.730708962	0.011933065	0.123111230	0.037944077
2019-10-14T12:30:00	0.2372	12.186	186.1	0.592757680	0.729720015	0.011907841	0.122851000	0.037863871
2019-10-14T12:35:00	0.2371	12.203	199.1	0.592414326	0.729219066	0.011895071	0.122719251	0.037823265
2019-10-14T12:40:00	0.2368	12.216	199.2	0.591402020	0.727742699	0.011857461	0.122331238	0.037703676
2019-10-14T12:45:00	0.2361	12.228	199.3	0.589050822	0.724316960	0.011770344	0.121432465	0.037426665
2019-10-14T12:50:00	0.2374	12.239	199.4	0.593390446	0.730643469	0.011931394	0.123093991	0.037938763
2019-10-14T12:55:00	0.2377	12.247	199.3	0.594384239	0.732094477	0.011968433	0.123476118	0.038056539
2019-10-14T13:00:00	0.2372	12.255	199.4	0.592703827	0.729641438	0.011905838	0.122830331	0.037857501
2019-10-14T13:05:00	0.2391	12.262	199.4	0.599042138	0.738906332	0.012142822	0.125275251	0.038611049
2019-10-14T13:10:00	0.2378	12.267	199.5	0.594691520	0.732543296	0.011979898	0.123594394	0.038092993
2019-10-14T13:15:00	0.2375	12.273	199.5	0.593679868	0.731065959	0.011942175	0.123205214	0.037973044
2019-10-14T13:20:00	0.2363	12.279	199.6	0.589657303	0.725200174	0.011792784	0.121663975	0.037498019
2019-10-14T13:25:00	0.2360	12.288	199.6	0.588644205	0.723724980	0.011755311	0.121277376	0.037378865
2019-10-14T13:30:00	0.2372	12.297	199.6	0.592649974	0.729562862	0.011903834	0.122809664	0.037851131
2019-10-14T13:35:00	0.2347	12.306	199.7	0.584271735	0.717367933	0.011594282	0.119616068	0.036866834
2019-10-14T13:40:00	0.2332	12.315	186.8	0.579231595	0.710059893	0.011410074	0.117715628	0.036281100
2019-10-14T13:45:00	0.2348	12.325	199.8	0.584588896	0.717828511	0.011605924	0.119736178	0.036903853
2019-10-14T13:50:00	0.2337	12.336	199.9	0.580891432	0.712464273	0.011470571	0.118339769	0.036473466
2019-10-14T13:55:00	0.2361	12.343	200.0	0.588925032	0.724133812	0.011765692	0.121384476	0.037411874
2019-10-14T14:00:00	0.2354	12.349	200.1	0.586572179	0.720710519	0.011678861	0.120488652	0.037135773
2019-10-14T14:05:00	0.2355	12.351	200.1	0.586898122	0.721184477	0.011690870	0.120612549	0.037173959
2019-10-14T14:10:00	0.2341	12.352	200.1	0.582197132	0.714357269	0.011518276	0.118831931	0.036625155
2019-10-14T14:15:00	0.2326	12.351	200.1	0.577154011	0.707053601	0.011334581	0.116936780	0.036041051
2019-10-14T14:20:00	0.2341	12.349	200.1	0.582179127	0.714331156	0.011517618	0.118825137	0.036623061
2019-10-14T14:25:00	0.2333	12.344	200.0	0.579486146	0.710428477	0.011419341	0.117811236	0.036310567
2019-10-14T14:30:00	0.2312	12.339	200.1	0.572421890	0.700219515	0.011163585	0.115172646	0.035497328
2019-10-14T14:35:00	0.2314	12.334	200.1	0.573085405	0.701176639	0.011187481	0.115419180	0.035573312
2019-10-14T14:40:00	0.2320	12.329	200.0	0.575093236	0.704075169	0.011259951	0.116166841	0.035803749
2019-10-14T14:45:00	0.2343	12.323	200.1	0.582804796	0.715238741	0.011540512	0.119061336	0.036695860
2019-10-14T14:50:00	0.2341	12.316	200.0	0.582460469	0.714739227	0.011527910	0.118931319	0.036655787
2019-10-14T14:55:00	0.2352	12.307	199.9	0.586138300	0.720079747	0.011662884	0.120323828	0.037084973
2019-10-14T15:00:00	0.2349	12.297	199.9	0.585124188	0.718606049	0.011625587	0.119939035	0.036966375
2019-10-14T15:05:00	0.2339	12.287	199.9	0.581762712	0.713727293	0.011502393	0.118668068	0.036574651
2019-10-14T15:10:00	0.2342	12.276	199.9	0.582759791	0.715173447	0.011538865	0.119044339	0.036690621
2019-10-14T15:15:00	0.2348	12.265	199.8	0.584762098	0.718080069	0.011612284	0.119801796	0.036924077
2019-10-14T15:20:00	0.2340	12.253	199.7	0.582071096	0.714174482	0.011513667	0.118784379	0.036610499
2019-10-14T15:25:00	0.2332	12.241	199.7	0.579378032	0.710271925	0.011415405	0.117770624	0.036298050
2019-10-14T15:30:00	0.2348	12.228	199.6	0.584735110	0.718040871	0.011611293	0.119791570	0.036920925
2019-10-14T15:35:00	0.2363	12.215	199.6	0.589749410	0.725334334	0.011796193	0.121699154	0.037508861
2019-10-14T15:40:00	0.2335	12.201	199.5	0.580357774	0.711690986	0.011451103	0.118138916	0.036411561
2019-10-14T15:45:00	0.2338	12.187	199.4	0.581355252	0.713136555	0.011487506	0.118514479	0.036527313
2019-10-14T15:50:00	0.2339	12.173	199.3	0.581681680	0.713609801	0.011499432	0.118637515	0.036565234
2019-10-14T15:55:00	0.2349	12.157	199.2	0.585025243	0.718462309	0.011621951	0.119901525	0.036954814
2019-10-14T16:00:00	0.2360	12.142	199.2	0.588700395	0.723806777	0.011757388	0.121298801	0.037385469
2019-10-14T16:05:00	0.2365	12.127	186.2	0.590219644	0.726019379	0.011813610	0.121878836	0.037564241
2019-10-14T16:10:00	0.2372	12.113	199.0	0.592741471	0.729696364	0.011907238	0.122844779	0.037861954
2019-10-14T16:15:00	0.2377	12.097	186.0	0.594258980	0.731911544	0.011963761	0.123427920	0.038041684
2019-10-14T16:20:00	0.2381	12.081	198.8	0.595775836	0.734127693	0.012020398	0.124012228	0.038221773
2019-10-14T16:25:00	0.2383	12.064	198.8	0.596290100	0.734879477	0.012039631	0.124210649	0.038282928
2019-10-14T16:30:00	0.2405	12.047	198.6	0.603810906	0.745899122	0.012322705	0.127131072	0.039183031
2019-10-14T16:35:00	0.2393	12.031	198.7	0.599655145	0.739804163	0.012165869	0.125513024	0.038684333
2019-10-14T16:40:00	0.2392	12.015	185.7	0.599501459	0.739579040	0.012160088	0.125453391	0.038665953
2019-10-14T16:45:00	0.2405	12.001	185.6	0.603683715	0.745712365	0.012317889	0.127081392	0.039167719
2019-10-14T16:50:00	0.2402	11.986	185.5	0.602530028	0.744019008	0.012274255	0.126631225	0.039028973
2019-10-14T16:55:00	0.2396	11.973	185.5	0.600708807	0.741348127	0.012205535	0.125922259	0.038810463
2019-10-14T17:00:00	0.2404	11.961	185.5	0.603223162	0.745036241	0.012300461	0.126901586	0.039112301
2019-10-14T17:05:00	0.2397	11.949	185.4	0.601068736	0.741875754	0.012219101	0.126062210	0.038853597
2019-10-14T17:10:00	0.2401	11.935	185.4	0.602249225	0.743607019	0.012263646	0.126521780	0.038995241
2019-10-14T17:15:00	0.2404	11.922	185.3	0.603429319	0.745338872	0.012308261	0.126982056	0.039137103
2019-10-14T17:20:00	0.2411	11.908	185.1	0.605608610	0.748540167	0.012390869	0.127834315	0.039399777
2019-10-14T17:25:00	0.2392	11.896	185.0	0.599453152	0.739508283	0.012158272	0.125434649	0.038660177
2019-10-14T17:30:00	0.2434	11.883	185.0	0.613289026	0.759854167	0.012684276	0.130861338	0.040332735
2019-10-14T17:35:00	0.2428	11.870	185.0	0.611473323	0.757174988	0.012614593	0.130142431	0.040111161
2019-10-14T17:40:00	0.2423	11.858	185.0	0.609656691	0.754497212	0.012545073	0.129425201	0.039890104
2019-10-14T17:45:00	0.2414	11.844	185.0	0.606840170	0.750351041	0.012437679	0.128317242	0.039548620
2019-10-14T17:50:00	0.2412	11.831	184.9	0.606020636	0.749145865	0.012406520	0.127995777	0.039449542
2019-10-14T17:55:00	0.2437	11.819	184.8	0.614185595	0.761178130	0.012718758	0.131217079	0.040442378
2019-10-14T18:00:00	0.2415	11.808	184.8	0.607046117	0.750653989	0.012445516	0.128398091	0.039573539
2019-10-14T18:05:00	0.2417	11.796	184.7	0.607558746	0.751408218	0.012465033	0.128599448	0.039635599
2019-10-14T18:10:00	0.2417	11.787	184.7	0.607738368	0.751672546	0.012471875	0.128670040	0.039657356
2019-10-14T18:15:00	0.2427	11.778	184.6	0.610913108	0.756348917	0.012593133	0.129921033	0.040042924
2019-10-14T18:20:00	0.2427	11.769	184.6	0.611092560	0.756613501	0.012600005	0.129991931	0.040064776
2019-10-14T18:25:00	0.2412	11.761	184.5	0.605946121	0.749036313	0.012403689	0.127966568	0.039440539
2019-10-14T18:30:00	0.2411	11.753	184.5	0.605792707	0.748810781	0.012397861	0.127906445	0.039422009
2019-10-14T18:35:00	0.2425	11.746	184.5	0.610300274	0.755445557	0.012569679	0.129679062	0.039968346
2019-10-14T18:40:00	0.2421	11.738	184.5	0.609148738	0.753748967	0.012525669	0.129225020	0.039828406
2019-10-14T18:45:00	0.2414	11.730	184.5	0.606664878	0.750093217	0.012431011	0.128248448	0.039527417
2019-10-14T18:50:00	0.2413	11.724	184.4	0.606511496	0.749867638	0.012425178	0.128188269	0.039508869
2019-10-14T18:55:00	0.2430	11.717	184.4	0.612015935	0.757975355	0.012635397	0.130357058	0.040177311
2019-10-14T19:00:00	0.2436	11.710	184.4	0.613857601	0.760693702	0.012706138	0.131086879	0.040402249
2019-10-14T19:05:00	0.2429	11.704	184.4	0.611709627	0.757523512	0.012623651	0.130235877	0.040139962
2019-10-14T19:10:00	0.2426	11.699	184.3	0.610558548	0.755826233	0.012579561	0.129781010	0.039999768
2019-10-14T19:15:00	0.2410	11.692	184.3	0.605411334	0.748250212	0.012383380	0.127757045	0.039375962
2019-10-14T19:20:00	0.2436	11.686	184.2	0.613910079	0.760771203	0.012708156	0.131107706	0.040408668
2019-10-14T19:25:00	0.2410	11.682	184.2	0.605437635	0.748288868	0.012384378	0.127767346	0.039379137
2019-10-14T19:30:00	0.2416	11.679	184.2	0.607282716	0.751002068	0.012454522	0.128491005	0.039602176
2019-10-14T19:35:00	0.2417	11.674	184.2	0.607795311	0.751756348	0.012474045	0.128692424	0.039664255
2019-10-14T19:40:00	0.2424	11.669	184.2	0.609971921	0.754961672	0.012557122	0.129549511	0.039928417
2019-10-14T19:45:00	0.2424	11.666	184.1	0.610151420	0.755226184	0.012563986	0.129620324	0.039950243
2019-10-14T19:50:00	0.2422	11.663	196.9	0.609332651	0.754019857	0.012532693	0.129297481	0.039850739
2019-10-14T19:55:00	0.2428	11.660	184.2	0.611508319	0.757226602	0.012615934	0.130156268	0.040115426
2019-10-14T20:00:00	0.2434	11.658	184.1	0.613350248	0.759944551	0.012686629	0.130885614	0.040340217
2019-10-14T20:05:00	0.2429	11.655	184.1	0.611534576	0.757265326	0.012616941	0.130166650	0.040118626
2019-10-14T20:10:00	0.2436	11.653	184.1	0.614041271	0.760964960	0.012713204	0.131159780	0.040424718
2019-10-14T20:15:00	0.2431	11.652	184.1	0.612225952	0.758285201	0.012643453	0.130440178	0.040202930
2019-10-14T20:20:00	0.2425	11.653	184.2	0.610409705	0.755606844	0.012573866	0.129722253	0.039981658
2019-10-14T20:25:00	0.2415	11.655	184.1	0.606927793	0.750479930	0.012441013	0.128351637	0.039559221
2019-10-14T20:30:00	0.2417	11.656	184.2	0.607773401	0.751724103	0.012473210	0.128683811	0.039661600
2019-10-14T20:35:00	0.2408	11.659	184.2	0.604622156	0.747090611	0.012353441	0.127448177	0.039280766
2019-10-14T20:40:00	0.2421	11.663	184.2	0.609131209	0.753723151	0.012525000	0.129218115	0.039826278
2019-10-14T20:45:00	0.2399	11.665	184.2	0.601648037	0.742725191	0.012240950	0.126287627	0.038923073
2019-10-14T20:50:00	0.2415	11.666	184.2	0.607160024	0.750821561	0.012449851	0.128442819	0.039587324
2019-10-14T20:55:00	0.2402	11.666	184.2	0.602674784	0.744231416	0.012279725	0.126687663	0.039046368
2019-10-14T21:00:00	0.2395	11.667	184.2	0.600520025	0.741071429	0.012198424	0.125848887	0.038787849
2019-10-14T21:05:00	0.2408	11.668	184.2	0.604701078	0.747206554	0.012356434	0.127479048	0.039290281
2019-10-14T21:10:00	0.2411	11.667	184.2	0.605547217	0.748449929	0.012388538	0.127810266	0.039392365
2019-10-14T21:15:00	0.2395	11.665	184.2	0.600392715	0.740884850	0.012193629	0.125799419	0.038772603
2019-10-14T21:20:00	0.2417	11.663	184.2	0.607571870	0.751427530	0.012465533	0.128604605	0.039637188
2019-10-14T21:25:00	0.2416	11.656	184.2	0.607418527	0.751201892	0.012459693	0.128544355	0.039618619
2019-10-14T21:30:00	0.2423	11.647	184.1	0.609595368	0.754406868	0.012542729	0.129401026	0.039882653
2019-10-14T21:35:00	0.2424	11.638	184.1	0.610107630	0.755161652	0.012562311	0.129603046	0.039944918
2019-10-14T21:40:00	0.2429	11.627	184.1	0.611617714	0.757387944	0.012620127	0.130199526	0.040128758
2019-10-14T21:45:00	0.2403	11.618	196.8	0.603139789	0.744913863	0.012297307	0.126869050	0.039102273
2019-10-14T21:50:00	0.2436	11.608	184.0	0.613971290	0.760861604	0.012710511	0.131132001	0.040416156
2019-10-14T21:55:00	0.2426	11.599	183.9	0.610825545	0.756219824	0.012589781	0.129886445	0.040032264
2019-10-14T22:00:00	0.2412	11.588	183.8	0.606011845	0.749132941	0.012406186	0.127992331	0.039448479
2019-10-14T22:05:00	0.2408	11.578	183.9	0.604575844	0.747022577	0.012351686	0.127430064	0.039275183
2019-10-14T22:10:00	0.2416	11.568	183.9	0.607470573	0.751278472	0.012461675	0.128564802	0.039624921
2019-10-14T22:15:00	0.2429	11.558	183.8	0.611693504	0.757499732	0.012623033	0.130229500	0.040137997
2019-10-14T22:20:00	0.2420	11.547	196.4	0.608595847	0.752934773	0.012504567	0.129007311	0.039761306
2019-10-14T22:25:00	0.2420	11.537	183.7	0.608825519	0.753272959	0.012513331	0.129097725	0.039789173
2019-10-14T22:30:00	0.2431	11.527	183.6	0.612381874	0.758515264	0.012649437	0.130501906	0.040221955
2019-10-14T22:35:00	0.2431	11.517	183.5	0.612278793	0.758363166	0.012645481	0.130461096	0.040209377
2019-10-14T22:40:00	0.2431	11.507	183.6	0.612508227	0.758701711	0.012654286	0.130551939	0.040237375
2019-10-14T22:45:00	0.2456	11.498	183.5	0.620708251	0.770830499	0.012971072	0.133820161	0.041244673
2019-10-14T22:50:00	0.2470	11.489	196.1	0.625246843	0.777567966	0.013148151	0.135647047	0.041807737
2019-10-14T22:55:00	0.2472	11.478	183.3	0.625806722	0.778400302	0.013170081	0.135873300	0.041877471
2019-10-14T23:00:00	0.2467	11.467	183.3	0.624378691	0.776277863	0.013114183	0.135296604	0.041699727
2019-10-14T23:05:00	0.2457	11.457	183.2	0.620960361	0.771204296	0.012980876	0.133921304	0.041275847
2019-10-14T23:10:00	0.2457	11.446	195.7	0.620857527	0.771051821	0.012976877	0.133880044	0.041263130
2019-10-14T23:15:00	0.2469	11.434	195.8	0.625064613	0.777297114	0.013141017	0.135573448	0.041785053
2019-10-14T23:20:00	0.2463	11.422	195.7	0.622973293	0.774190745	0.013059290	0.134730289	0.041525183
2019-10-14T23:25:00	0.2467	11.410	195.7	0.624196416	0.776007078	0.013107056	0.135223086	0.041677068
2019-10-14T23:30:00	0.2434	11.398	195.6	0.613472349	0.760124824	0.012691323	0.130934036	0.040355142
2019-10-14T23:35:00	0.2436	11.387	195.5	0.614034081	0.760954341	0.012712927	0.131156926	0.040423838
2019-10-14T23:40:00	0.2443	11.375	195.4	0.616256871	0.764239369	0.012798603	0.132040827	0.040696265
2019-10-14T23:45:00	0.2430	11.364	195.4	0.612165728	0.758196346	0.012641143	0.130416340	0.040195583
2019-10-14T23:50:00	0.2414	11.355	195.3	0.606737946	0.750200684	0.012433790	0.128277121	0.039536255
2019-10-14T23:55:00	0.2420	11.345	195.4	0.608632455	0.752988675	0.012505964	0.129021720	0.039765747
2019-10-15T00:00:00	0.2392	11.335	182.5	0.599196486	0.739132367	0.012148622	0.125335098	0.038629494
2019-10-15T00:05:00	0.2414	11.325	195.1	0.606761258	0.750234971	0.012434677	0.128286270	0.039539074
2019-10-15T00:10:00	0.2403	11.313	195.2	0.602992560	0.744697769	0.012291739	0.126811605	0.039084568
2019-10-15T00:15:00	0.2390	11.304	195.0	0.598552283	0.738189100	0.012124421	0.125085413	0.038552539
2019-10-15T00:20:00	0.2376	11.294	195.1	0.594106422	0.731688761	0.011958073	0.123369232	0.038023595
2019-10-15T00:25:00	0.2374	11.285	195.0	0.593334255	0.730561451	0.011929301	0.123072403	0.037932110
2019-10-15T00:30:00	0.2385	11.276	194.9	0.596906195	0.735780414	0.012062692	0.124448574	0.038356259
2019-10-15T00:35:00	0.2387	11.269	194.8	0.597804459	0.737094544	0.012096357	0.124795888	0.038463305
2019-10-15T00:40:00	0.2380	11.263	194.8	0.595362918	0.733524224	0.012004967	0.123853027	0.038172706
2019-10-15T00:45:00	0.2374	11.257	194.8	0.593254019	0.730444340	0.011926314	0.123041580	0.037922610
2019-10-15T00:50:00	0.2386	11.251	194.7	0.597493931	0.736640176	0.012084714	0.124675766	0.038426282
2019-10-15T00:55:00	0.2379	11.246	194.7	0.595052176	0.733070175	0.011993361	0.123733290	0.038135802
2019-10-15T01:00:00	0.2371	11.242	194.7	0.592274338	0.729014855	0.011889866	0.122665557	0.037806716
2019-10-15T01:05:00	0.2349	11.238	194.6	0.585140888	0.718630309	0.011626200	0.119945366	0.036968327
2019-10-15T01:10:00	0.2362	11.235	194.6	0.589390561	0.724811682	0.011782911	0.121562124	0.037466627
2019-10-15T01:15:00	0.2363	11.232	194.7	0.589621484	0.725148002	0.011791458	0.121650295	0.037493802
2019-10-15T01:20:00	0.2360	11.231	194.6	0.588513585	0.723534844	0.011750484	0.121227577	0.037363517
2019-10-15T01:25:00	0.2361	11.228	194.6	0.589079292	0.724358415	0.011771397	0.121443328	0.037430013
2019-10-15T01:30:00	0.2365	11.225	194.6	0.590314160	0.726157095	0.011817112	0.121914969	0.037575377
2019-10-15T01:35:00	0.2365	11.223	194.6	0.590210434	0.726005961	0.011813269	0.121875316	0.037563156
2019-10-15T01:40:00	0.2371	11.221	194.6	0.592448223	0.729268517	0.011896331	0.122732254	0.037827273
2019-10-15T01:45:00	0.2368	11.219	194.6	0.591341213	0.727654044	0.011855204	0.122307951	0.037696498
2019-10-15T01:50:00	0.2367	11.215	194.6	0.590902995	0.727015225	0.011838943	0.122140196	0.037644795
2019-10-15T01:55:00	0.2385	11.213	194.5	0.597149978	0.736136993	0.012071824	0.124542784	0.038385296
2019-10-15T02:00:00	0.2386	11.209	194.6	0.597380393	0.736474066	0.012080458	0.124631861	0.038412750
2019-10-15T02:05:00	0.2393	11.205	194.5	0.599613644	0.739743369	0.012164308	0.125496919	0.038679369
2019-10-15T02:10:00	0.2386	11.201	194.5	0.597507282	0.736659709	0.012085214	0.124680929	0.038427873
2019-10-15T02:15:00	0.2389	11.197	194.5	0.598405393	0.737974066	0.012118906	0.125028516	0.038535003
2019-10-15T02:20:00	0.2391	11.191	194.4	0.598969516	0.738799989	0.012140093	0.125247098	0.038602372
2019-10-15T02:25:00	0.2405	11.186	194.4	0.603535943	0.745495406	0.012312296	0.127023686	0.039149934
2019-10-15T02:30:00	0.2390	11.180	194.4	0.598762569	0.738496971	0.012132318	0.125166889	0.038577651
2019-10-15T02:35:00	0.2391	11.175	194.3	0.598992879	0.738834200	0.012140971	0.125256155	0.038605163
2019-10-15T02:40:00	0.2409	11.169	194.3	0.604892393	0.747487633	0.012363689	0.127553899	0.039313351
2019-10-15T02:45:00	0.2411	11.163	181.7	0.605788632	0.748804791	0.012397706	0.127904848	0.039421516
2019-10-15T02:50:00	0.2421	11.157	194.2	0.609015217	0.753552319	0.012520571	0.129172427	0.039812196
2019-10-15T02:55:00	0.2409	11.152	181.8	0.604915717	0.747521902	0.012364574	0.127563026	0.039316164
2019-10-15T03:00:00	0.2426	11.146	194.2	0.610805387	0.756190106	0.012589009	0.129878483	0.040029810
2019-10-15T03:05:00	0.2446	11.140	194.1	0.617349468	0.765855625	0.012840825	0.132476426	0.040830521
2019-10-15T03:10:00	0.2433	11.134	194.2	0.612927135	0.759319953	0.012670372	0.130717888	0.040288523
2019-10-15T03:15:00	0.2426	11.127	194.0	0.610828672	0.756224434	0.012589900	0.129887680	0.040032645
2019-10-15T03:20:00	0.2434	11.118	194.0	0.613385903	0.759997193	0.012688000	0.130899753	0.040344575
2019-10-15T03:25:00	0.2437	11.109	181.4	0.614280001	0.761317578	0.012722391	0.131254566	0.040453932
2019-10-15T03:30:00	0.2437	11.100	181.4	0.614509305	0.761656319	0.012731219	0.131345643	0.040482003
2019-10-15T03:35:00	0.2439	11.090	193.9	0.615070873	0.762486084	0.012752853	0.131568829	0.040550791
2019-10-15T03:40:00	0.2425	11.079	193.9	0.610313011	0.755464329	0.012570166	0.129684089	0.039969896
2019-10-15T03:45:00	0.2429	11.070	181.2	0.611540490	0.757274048	0.012617167	0.130168989	0.040119346
2019-10-15T03:50:00	0.2455	11.059	193.7	0.620406334	0.770382925	0.012959337	0.133699087	0.041207357
2019-10-15T03:55:00	0.2442	11.049	193.7	0.615987799	0.763841490	0.012788216	0.131933666	0.040663237
2019-10-15T04:00:00	0.2440	11.041	193.6	0.615220387	0.762707047	0.012758615	0.131628283	0.040569115
2019-10-15T04:05:00	0.2454	11.033	193.6	0.619859926	0.769573102	0.012938112	0.133480113	0.041139867
2019-10-15T04:10:00	0.2441	11.022	193.5	0.615534784	0.763171751	0.012770738	0.131753350	0.040607662
2019-10-15T04:15:00	0.2449	11.011	193.5	0.618182637	0.767088789	0.012873070	0.132809095	0.040933053
2019-10-15T04:20:00	0.2452	10.999	193.5	0.619169506	0.768550201	0.012911318	0.133203691	0.041054671
2019-10-15T04:25:00	0.2436	10.987	180.8	0.614178894	0.761168233	0.012718500	0.131214418	0.040441558
2019-10-15T04:30:00	0.2434	10.975	193.3	0.613505217	0.760173354	0.012692586	0.130947073	0.040359160
2019-10-15T04:35:00	0.2447	10.964	193.4	0.617815000	0.766544582	0.012858837	0.132662251	0.040887794
2019-10-15T04:40:00	0.2457	10.953	193.1	0.621124617	0.771447864	0.012987265	0.133987223	0.041296164
2019-10-15T04:45:00	0.2438	10.942	193.2	0.614807846	0.762097405	0.012742718	0.131464268	0.040518564
2019-10-15T04:50:00	0.2469	10.931	180.6	0.625084991	0.777327400	0.013141814	0.135581677	0.041787590
2019-10-15T04:55:00	0.2455	10.921	180.5	0.620434442	0.770424589	0.012960429	0.133710356	0.041210830
2019-10-15T05:00:00	0.2448	10.912	180.4	0.618102434	0.766970057	0.012869965	0.132777053	0.040923177
2019-10-15T05:05:00	0.2455	10.903	193.0	0.620416630	0.770398187	0.012959737	0.133703215	0.041208629
2019-10-15T05:10:00	0.2449	10.895	180.3	0.618416578	0.767435148	0.012882132	0.132902580	0.040961866
2019-10-15T05:15:00	0.2461	10.888	180.3	0.622388859	0.773323308	0.013036498	0.134495149	0.041452711
2019-10-15T05:20:00	0.2467	10.882	180.3	0.624368894	0.776263308	0.013113800	0.135292652	0.041698509
2019-10-15T05:25:00	0.2451	10.877	192.7	0.619053690	0.768378651	0.012906827	0.133157351	0.041040389
2019-10-15T05:30:00	0.2439	10.872	180.2	0.615059847	0.762469788	0.012752428	0.131564444	0.040549440
2019-10-15T05:35:00	0.2457	10.868	180.2	0.621026673	0.771302624	0.012983455	0.133947915	0.041284048
2019-10-15T05:40:00	0.2443	10.863	180.2	0.616370822	0.764407887	0.012803003	0.132086222	0.040710257
2019-10-15T05:45:00	0.2446	10.859	192.4	0.617358194	0.765868536	0.012841163	0.132479908	0.040831594
2019-10-15T05:50:00	0.2456	10.855	180.1	0.620668235	0.770771173	0.012969516	0.133804110	0.041239726
2019-10-15T05:55:00	0.2480	10.852	180.1	0.628612262	0.782575107	0.013280260	0.137009992	0.042227810
2019-10-15T06:00:00	0.2482	10.849	192.6	0.629265324	0.783547856	0.013305975	0.137275291	0.042309578
2019-10-15T06:05:00	0.2477	10.846	192.5	0.627601338	0.781070027	0.013240504	0.136599840	0.042101397
2019-10-15T06:10:00	0.2487	10.844	180.1	0.630901898	0.785987149	0.013370531	0.137941300	0.042514848
2019-10-15T06:15:00	0.2496	10.842	180.1	0.633868914	0.790415233	0.013487980	0.139153003	0.042888307
2019-10-15T06:20:00	0.2506	10.840	180.1	0.637163704	0.795341240	0.013619030	0.140505017	0.043305011
2019-10-15T06:25:00	0.2496	10.839	180.1	0.633851169	0.790388728	0.013487276	0.139145740	0.042886068
2019-10-15T06:30:00	0.2506	10.838	180.0	0.637145976	0.795314710	0.013618323	0.140497724	0.043302763
2019-10-15T06:35:00	0.2519	10.837	180.0	0.641427361	0.801729462	0.013789594	0.142264697	0.043847361
2019-10-15T06:40:00	0.2511	10.837	180.0	0.638778954	0.797759548	0.013683516	0.141170317	0.043510063
2019-10-15T06:45:00	0.2522	10.837	180.0	0.642398989	0.803187409	0.013828618	0.142667298	0.043971447
2019-10-15T06:50:00	0.2520	10.838	180.0	0.641730610	0.802184407	0.013801767	0.142390287	0.043886069
2019-10-15T06:55:00	0.2525	10.839	180.0	0.643370354	0.804645764	0.013867688	0.143070383	0.044095681
2019-10-15T07:00:00	0.2516	10.842	180.0	0.640393478	0.800178981	0.013748133	0.141836950	0.043715526
2019-10-15T07:05:00	0.2519	10.845	180.0	0.641374240	0.801649775	0.013787462	0.142242703	0.043840582
2019-10-15T07:10:00	0.2515	10.849	192.4	0.640045832	0.799657832	0.013734206	0.141693270	0.043671242
2019-10-15T07:15:00	0.2528	10.852	192.5	0.644323765	0.806077943	0.013906092	0.143466592	0.044217797
2019-10-15T07:20:00	0.2531	10.858	180.1	0.645303454	0.807550403	0.013945613	0.143874318	0.044343462
2019-10-15T07:25:00	0.2550	10.864	180.1	0.651549059	0.816956674	0.014198934	0.146487787	0.045148959
2019-10-15T07:30:00	0.2547	10.870	180.1	0.650553405	0.815454929	0.014158391	0.146069512	0.045020042
2019-10-15T07:35:00	0.2544	10.877	180.1	0.649886538	0.814449567	0.014131270	0.145789709	0.044933804
2019-10-15T07:40:00	0.2548	10.886	180.2	0.651193659	0.816420528	0.014184455	0.146338412	0.045102920
2019-10-15T07:45:00	0.2545	10.895	180.2	0.650197907	0.814918937	0.014143930	0.145920318	0.044974059
2019-10-15T07:50:00	0.2558	10.907	180.3	0.654463802	0.821357842	0.014317971	0.147715865	0.045527464
2019-10-15T07:55:00	0.2567	10.919	180.3	0.657411452	0.825816076	0.014438879	0.148963255	0.045911922
2019-10-15T08:00:00	0.2559	10.934	180.4	0.654774776	0.821827831	0.014330701	0.147847204	0.045567944
2019-10-15T08:05:00	0.2559	10.950	180.5	0.654765955	0.821814498	0.014330340	0.147843478	0.045566796
2019-10-15T08:10:00	0.2563	10.966	180.5	0.656071310	0.823788231	0.014383843	0.148395453	0.045736920
2019-10-15T08:15:00	0.2558	10.984	193.1	0.654419694	0.821291186	0.014316166	0.147697241	0.045521724
2019-10-15T08:20:00	0.2571	11.002	180.7	0.658680607	0.827737923	0.014491102	0.149502028	0.046077977
2019-10-15T08:25:00	0.2554	11.019	180.8	0.653087267	0.819278415	0.014261689	0.147135218	0.045348503
2019-10-15T08:30:00	0.2540	11.039	180.9	0.648472910	0.812319648	0.014073869	0.145197508	0.044751282
2019-10-15T08:35:00	0.2555	11.063	181.0	0.653398359	0.819748217	0.014274398	0.147266338	0.045388915
2019-10-15T08:40:00	0.2551	11.092	181.1	0.652074383	0.817749360	0.014220350	0.146708728	0.045217055
2019-10-15T08:45:00	0.2557	11.122	193.8	0.654038109	0.820714608	0.014300553	0.147536172	0.045472081
2019-10-15T08:50:00	0.2538	11.156	194.0	0.647779145	0.811274972	0.014045742	0.144907333	0.044661847
2019-10-15T08:55:00	0.2553	11.191	181.6	0.652705541	0.818702058	0.014246102	0.146974411	0.045298941
2019-10-15T09:00:00	0.2546	11.231	181.8	0.650394441	0.815215243	0.014151924	0.146002789	0.044999477
2019-10-15T09:05:00	0.2517	11.273	194.6	0.640831884	0.800836333	0.013765706	0.142018249	0.043771404
2019-10-15T09:10:00	0.2532	11.311	194.8	0.645767790	0.808248578	0.013964365	0.144067774	0.044403087
2019-10-15T09:15:00	0.2528	11.350	195.0	0.644441005	0.806254111	0.013910819	0.143515354	0.044232826
2019-10-15T09:20:00	0.2516	11.389	195.2	0.640475424	0.800301840	0.013751417	0.141870829	0.043725967
2019-10-15T09:25:00	0.2502	11.429	195.4	0.635844849	0.793368329	0.013566493	0.139963011	0.043137959
2019-10-15T09:30:00	0.2505	11.470	195.6	0.636826854	0.794837197	0.013605601	0.140366479	0.043262312
2019-10-15T09:35:00	0.2517	11.509	196.0	0.640778753	0.800756660	0.013763576	0.141996271	0.043764630
2019-10-15T09:40:00	0.2520	11.549	196.1	0.641759409	0.802227617	0.013802923	0.142402217	0.043889746
2019-10-15T09:45:00	0.2515	11.584	196.2	0.640101216	0.799740849	0.013736424	0.141716155	0.043678295
2019-10-15T09:50:00	0.2504	11.618	196.5	0.636461131	0.794290058	0.013591030	0.140216147	0.043215978
2019-10-15T09:55:00	0.2512	11.646	196.6	0.639093529	0.798230778	0.013696094	0.141300076	0.043550056
2019-10-15T10:00:00	0.2500	11.670	196.7	0.635122034	0.792287676	0.013537745	0.139666419	0.043046547
2019-10-15T10:05:00	0.2504	11.690	184.1	0.636580723	0.794468961	0.013595794	0.140265297	0.043231127
2019-10-15T10:10:00	0.2505	11.710	184.2	0.636718042	0.794674398	0.013601265	0.140321743	0.043248524
2019-10-15T10:15:00	0.2522	11.725	197.0	0.642465092	0.803286627	0.013831275	0.142694710	0.043979895
2019-10-15T10:20:00	0.2494	11.738	184.4	0.633358295	0.789652636	0.013467729	0.138944079	0.042823914
2019-10-15T10:25:00	0.2500	11.755	184.4	0.635148117	0.792326664	0.013538782	0.139677116	0.043049844
2019-10-15T10:30:00	0.2496	11.771	184.5	0.633963699	0.790556817	0.013491741	0.139191803	0.042900266
2019-10-15T10:35:00	0.2499	11.788	184.6	0.634762050	0.791749643	0.013523439	0.139518830	0.043001058
2019-10-15T10:40:00	0.2498	11.802	197.5	0.634569001	0.791461156	0.013515771	0.139439715	0.042976674
2019-10-15T10:45:00	0.2487	11.816	184.8	0.631069706	0.786237394	0.013377159	0.138009684	0.042535925
2019-10-15T10:50:00	0.2462	11.833	184.8	0.622597025	0.773632243	0.013044614	0.134578877	0.041478517
2019-10-15T10:55:00	0.2484	11.849	184.9	0.630021514	0.784674666	0.013335783	0.137582817	0.042404360
2019-10-15T11:00:00	0.2460	11.860	185.0	0.621877988	0.772565292	0.013016592	0.134289780	0.041389414
2019-10-15T11:05:00	0.2472	11.869	185.0	0.625993041	0.778677350	0.013177384	0.135948637	0.041900690
2019-10-15T11:10:00	0.2456	11.878	185.1	0.620495352	0.770514881	0.012962796	0.133734779	0.041218358
2019-10-15T11:15:00	0.2448	11.887	185.2	0.617978349	0.766786370	0.012865160	0.132727486	0.040907900
2019-10-15T11:20:00	0.2450	11.892	185.2	0.618780280	0.767973715	0.012896226	0.133047988	0.041006682
2019-10-15T11:25:00	0.2439	11.897	185.2	0.614933209	0.762282648	0.012747548	0.131514098	0.040533922
2019-10-15T11:30:00	0.2415	11.901	185.3	0.607088097	0.750715746	0.012447113	0.128414574	0.039578619
2019-10-15T11:35:00	0.2415	11.904	185.3	0.606893544	0.750429550	0.012439710	0.128338192	0.039555077
2019-10-15T11:40:00	0.2414	11.909	185.4	0.606698979	0.750143371	0.012432308	0.128261830	0.039531542
2019-10-15T11:45:00	0.2409	11.912	185.4	0.605171893	0.747898328	0.012374292	0.127663292	0.039347067
2019-10-15T11:50:00	0.2429	11.914	185.4	0.611635155	0.757413669	0.012620796	0.130206424	0.040130884
2019-10-15T11:55:00	0.2402	11.916	185.4	0.602782638	0.744389688	0.012283802	0.126729723	0.039059331
2019-10-15T12:00:00	0.2422	11.918	185.4	0.609250252	0.753898485	0.012529546	0.129265013	0.039840732
2019-10-15T12:05:00	0.2406	11.919	185.5	0.604059914	0.746264783	0.012332135	0.127228362	0.039213017
2019-10-15T12:10:00	0.2424	11.921	198.3	0.609859762	0.754796407	0.012552834	0.129505274	0.039914783
2019-10-15T12:15:00	0.2422	11.924	185.5	0.609332576	0.754019746	0.012532690	0.129297451	0.039850730
2019-10-15T12:20:00	0.2424	11.931	185.6	0.610136459	0.755204136	0.012563413	0.129614421	0.039948423
2019-10-15T12:25:00	0.2406	11.938	185.6	0.603947644	0.746099911	0.012327883	0.127184492	0.039199496
2019-10-15T12:30:00	0.2401	11.945	185.7	0.602419371	0.743856647	0.012270074	0.126588090	0.039015679
2019-10-15T12:35:00	0.2397	11.951	185.7	0.600890439	0.741614371	0.012212380	0.125992873	0.038832227
2019-10-15T12:40:00	0.2401	11.955	185.7	0.602363211	0.743774249	0.012267952	0.126566201	0.039008932
2019-10-15T12:45:00	0.2395	11.960	185.7	0.600500639	0.741043018	0.012197693	0.125841354	0.038785527
2019-10-15T12:50:00	0.2390	11.965	185.8	0.598637087	0.738313254	0.012127605	0.125118268	0.038562665
2019-10-15T12:55:00	0.2392	11.969	185.8	0.599443400	0.739493999	0.012157905	0.125430866	0.038659011
2019-10-15T13:00:00	0.2373	11.974	185.8	0.592901511	0.729929891	0.011913193	0.122906211	0.037880888
2019-10-15T13:05:00	0.2379	11.981	185.9	0.595045969	0.733061107	0.011993129	0.123730899	0.038135065
2019-10-15T13:10:00	0.2393	11.986	185.9	0.599859659	0.740103771	0.012173563	0.125592402	0.038708798
2019-10-15T13:15:00	0.2385	11.992	185.9	0.596994027	0.735908879	0.012065982	0.124482513	0.038366719
2019-10-15T13:20:00	0.2383	11.997	186.0	0.596464922	0.735135093	0.012046172	0.124278138	0.038303729
2019-10-15T13:25:00	0.2376	12.001	186.0	0.593930801	0.731432324	0.011951526	0.123301689	0.038002778
2019-10-15T13:30:00	0.2396	12.004	186.0	0.600748218	0.741405894	0.012207020	0.125937579	0.038815185
2019-10-15T13:35:00	0.2391	12.006	186.0	0.598884796	0.738675934	0.012136910	0.125214259	0.038592251
2019-10-15T13:40:00	0.2390	12.007	186.0	0.598689791	0.738390415	0.012129585	0.125138688	0.038568959
2019-10-15T13:45:00	0.2378	12.006	186.0	0.594820852	0.732732223	0.011984725	0.123644193	0.038108341
2019-10-15T13:50:00	0.2371	12.006	186.1	0.592285550	0.729031209	0.011890283	0.122669856	0.037808041
2019-10-15T13:55:00	0.2355	12.003	186.1	0.587070224	0.721434768	0.011697213	0.120677994	0.037194130
2019-10-15T14:00:00	0.2364	12.001	186.1	0.589887564	0.725535581	0.011801309	0.121751930	0.037525127
2019-10-15T14:05:00	0.2372	11.999	186.1	0.592702653	0.729639725	0.011905794	0.122829881	0.037857362
2019-10-15T14:10:00	0.2364	11.996	186.1	0.590165828	0.725940970	0.011811616	0.121858265	0.037557901
2019-10-15T14:15:00	0.2361	11.992	186.1	0.588966318	0.724193922	0.011767219	0.121400225	0.037416729
2019-10-15T14:20:00	0.2359	11.987	186.1	0.588436007	0.723421924	0.011747618	0.121198005	0.037354402
2019-10-15T14:25:00	0.2364	11.981	186.1	0.589913982	0.725574065	0.011802287	0.121762023	0.037528238
2019-10-15T14:30:00	0.2332	11.976	186.0	0.579328992	0.710200916	0.011413619	0.117752205	0.036292373
2019-10-15T14:35:00	0.2339	11.969	186.0	0.581481731	0.713319911	0.011492126	0.118562143	0.036542004
2019-10-15T14:40:00	0.2342	11.960	186.0	0.582627319	0.714981264	0.011534016	0.118994312	0.036675203
2019-10-15T14:45:00	0.2363	11.951	186.0	0.589801261	0.725409863	0.011798113	0.121718960	0.037514966
2019-10-15T14:50:00	0.2344	11.941	185.9	0.583241441	0.715872323	0.011556504	0.119226318	0.036746709
2019-10-15T14:55:00	0.2333	11.932	185.9	0.579691111	0.710725303	0.011426806	0.117888249	0.036334303
2019-10-15T15:00:00	0.2343	11.922	185.8	0.582849685	0.715303869	0.011542156	0.119078292	0.036701086
2019-10-15T15:05:00	0.2337	11.910	185.8	0.580976776	0.712587961	0.011473686	0.118371906	0.036483371
2019-10-15T15:10:00	0.2346	11.899	185.8	0.584134195	0.717168224	0.011589235	0.119564001	0.036850786
2019-10-15T15:15:00	0.2344	11.887	185.7	0.583267908	0.715910733	0.011557473	0.119236323	0.036749793
2019-10-15T15:20:00	0.2327	11.874	185.7	0.577703407	0.707848236	0.011354519	0.117142481	0.036104450
2019-10-15T15:25:00	0.2332	11.861	185.6	0.579185898	0.709993731	0.011408411	0.117698469	0.036275811
2019-10-15T15:30:00	0.2344	11.847	185.5	0.583350840	0.716031089	0.011560512	0.119267672	0.036759455
2019-10-15T15:35:00	0.2329	11.834	185.5	0.578122243	0.708454200	0.011369731	0.117299423	0.036152821
2019-10-15T15:40:00	0.2300	11.820	185.5	0.568511757	0.694586520	0.011023292	0.113725266	0.035051232
2019-10-15T15:45:00	0.2308	11.806	185.3	0.571344025	0.698665465	0.011124821	0.114772731	0.035374070
2019-10-15T15:50:00	0.2306	11.793	185.3	0.570474573	0.697412601	0.011093603	0.114450659	0.035274805
2019-10-15T15:55:00	0.2306	11.779	185.3	0.570614479	0.697614161	0.011098624	0.114502453	0.035290768
2019-10-15T16:00:00	0.2333	11.764	185.2	0.579491506	0.710436239	0.011419536	0.117813250	0.036311188
2019-10-15T16:05:00	0.2316	11.747	185.1	0.573778227	0.702176428	0.011212461	0.115676889	0.035652741
2019-10-15T16:10:00	0.2334	11.731	185.0	0.579821109	0.710913580	0.011431542	0.117937107	0.036349362
2019-10-15T16:15:00	0.2334	11.715	185.0	0.579818106	0.710909231	0.011431432	0.117935978	0.036349014
2019-10-15T16:20:00	0.2328	11.699	184.9	0.577800961	0.707989363	0.011358061	0.117179026	0.036115714
2019-10-15T16:25:00	0.2344	11.684	197.6	0.583166442	0.715763487	0.011553756	0.119197973	0.036737973
2019-10-15T16:30:00	0.2334	11.668	184.8	0.579809098	0.710896183	0.011431104	0.117932592	0.036347970
2019-10-15T16:35:00	0.2336	11.654	184.7	0.580477221	0.711864047	0.011455459	0.118183857	0.036425413
2019-10-15T16:40:00	0.2337	11.638	184.6	0.580809734	0.712345874	0.011467590	0.118309009	0.036463986
2019-10-15T16:45:00	0.2338	11.623	184.6	0.581142215	0.712827747	0.011479726	0.118434216	0.036502576
2019-10-15T16:50:00	0.2352	11.609	184.5	0.585832625	0.719635453	0.011651636	0.120207777	0.037049204
2019-10-15T16:55:00	0.2353	11.597	184.4	0.586164631	0.720118024	0.011663854	0.120333828	0.037088055
2019-10-15T17:00:00	0.2346	11.584	184.4	0.583815931	0.716706163	0.011577561	0.119443562	0.036813666
2019-10-15T17:05:00	0.2358	11.571	197.1	0.587833183	0.722544649	0.011725357	0.120968344	0.037283618
2019-10-15T17:10:00	0.2351	11.558	184.3	0.585485597	0.719131147	0.011638872	0.120076095	0.037008619
2019-10-15T17:15:00	0.2347	11.543	184.2	0.584477295	0.717666435	0.011601827	0.119693907	0.036890825
2019-10-15T17:20:00	0.2376	11.530	184.1	0.594180241	0.731796558	0.011960825	0.123397628	0.038032347
2019-10-15T17:25:00	0.2368	11.518	184.0	0.591502415	0.727889079	0.011861188	0.122369691	0.037715527
2019-10-15T17:30:00	0.2371	11.505	184.0	0.592502724	0.729348028	0.011898358	0.122753163	0.037833717
2019-10-15T17:35:00	0.2374	11.492	183.9	0.593502749	0.730807398	0.011935576	0.123137142	0.037952063
2019-10-15T17:40:00	0.2389	11.479	183.9	0.598510580	0.738128048	0.012122855	0.125069259	0.038547560
2019-10-15T17:45:00	0.2382	11.467	196.6	0.596170092	0.734704021	0.012035141	0.124164331	0.038268653
2019-10-15T17:50:00	0.2370	11.454	183.8	0.592156352	0.728842751	0.011885480	0.122620311	0.037792771
2019-10-15T17:55:00	0.2382	11.441	183.7	0.596164114	0.734695282	0.012034917	0.124162024	0.038267942
2019-10-15T18:00:00	0.2401	11.430	196.4	0.602502195	0.743978168	0.012273203	0.126620374	0.039025629
2019-10-15T18:05:00	0.2386	11.417	196.3	0.597494045	0.736640342	0.012084718	0.124675810	0.038426295
2019-10-15T18:10:00	0.2379	11.407	196.2	0.595152883	0.733217318	0.011997121	0.123772089	0.038147760
2019-10-15T18:15:00	0.2375	11.396	196.2	0.593813098	0.731260470	0.011947139	0.123256432	0.037988829
2019-10-15T18:20:00	0.2375	11.385	196.2	0.593810107	0.731256103	0.011947028	0.123255282	0.037988475
2019-10-15T18:25:00	0.2367	11.375	183.4	0.591132000	0.727349040	0.011847439	0.122227847	0.037671810
2019-10-15T18:30:00	0.2379	11.365	196.0	0.595140924	0.733199844	0.011996675	0.123767481	0.038146340
2019-10-15T18:35:00	0.2405	11.353	196.0	0.603814833	0.745904887	0.012322853	0.127132606	0.039183504
2019-10-15T18:40:00	0.2367	11.341	195.9	0.591123020	0.727335950	0.011847106	0.122224410	0.037670750
2019-10-15T18:45:00	0.2384	11.328	195.9	0.596802247	0.735628384	0.012058800	0.124408415	0.038343882
2019-10-15T18:50:00	0.2377	11.315	195.7	0.594460627	0.732206042	0.011971283	0.123505515	0.038065599
2019-10-15T18:55:00	0.2387	11.301	195.7	0.597798068	0.737085191	0.012096118	0.124793415	0.038462542
2019-10-15T19:00:00	0.2403	11.288	195.6	0.603133219	0.744904219	0.012297059	0.126866486	0.039101483
2019-10-15T19:05:00	0.2411	11.273	195.5	0.605796292	0.748816050	0.012397997	0.127907849	0.039422441
2019-10-15T19:10:00	0.2385	11.258	195.5	0.597121270	0.736094999	0.012070749	0.124531688	0.038381876
2019-10-15T19:15:00	0.2392	11.243	195.4	0.599455156	0.739511217	0.012158347	0.125435427	0.038660417
2019-10-15T19:20:00	0.2377	11.229	195.3	0.594442684	0.732179837	0.011970613	0.123498610	0.038063471
2019-10-15T19:25:00	0.2384	11.214	195.3	0.596778340	0.735593420	0.012057905	0.124399179	0.038341035
2019-10-15T19:30:00	0.2400	11.200	195.2	0.602115028	0.743410151	0.012258578	0.126469493	0.038979126
2019-10-15T19:35:00	0.2370	11.187	195.1	0.592093513	0.728751094	0.011883145	0.122596216	0.037785345
2019-10-15T19:40:00	0.2376	11.172	195.0	0.594096503	0.731674278	0.011957703	0.123365417	0.038022420
2019-10-15T19:45:00	0.2357	11.159	195.0	0.587737311	0.722405156	0.011721818	0.120931839	0.037272367
2019-10-15T19:50:00	0.2358	11.145	194.8	0.588069138	0.722887992	0.011734067	0.121058210	0.037311316
2019-10-15T19:55:00	0.2366	11.132	194.8	0.590743585	0.726782882	0.011833031	0.122079201	0.037625995
2019-10-15T20:00:00	0.2383	11.120	194.7	0.596423421	0.735074410	0.012044619	0.124262115	0.038298791
2019-10-15T20:05:00	0.2395	11.108	194.6	0.600426347	0.740934138	0.012194895	0.125812486	0.038776630
2019-10-15T20:10:00	0.2381	11.096	194.5	0.595749349	0.734088979	0.012019408	0.124002013	0.038218625
2019-10-15T20:15:00	0.2388	11.084	194.5	0.598084141	0.737503847	0.012106849	0.124904128	0.038496665
2019-10-15T20:20:00	0.2382	11.072	194.5	0.596077434	0.734568562	0.012031675	0.124128575	0.038257632
2019-10-15T20:25:00	0.2390	11.060	194.4	0.598745821	0.738472449	0.012131689	0.125160399	0.038575651
2019-10-15T20:30:00	0.2379	11.048	194.3	0.595069169	0.733095003	0.011993995	0.123739836	0.038137819
2019-10-15T20:35:00	0.2372	11.036	181.7	0.592726399	0.729674371	0.011906677	0.122838994	0.037860171
2019-10-15T20:40:00	0.2375	11.024	194.1	0.593726361	0.731133835	0.011943907	0.123223086	0.037978552
2019-10-15T20:45:00	0.2379	11.012	194.2	0.595060199	0.733081898	0.011993660	0.123736381	0.038136754
2019-10-15T20:50:00	0.2365	11.000	194.1	0.590376084	0.726247325	0.011819407	0.121938644	0.037582674
2019-10-15T20:55:00	0.2376	10.991	181.5	0.594051643	0.731608771	0.011956030	0.123348162	0.038017102
2019-10-15T21:00:00	0.2388	10.982	193.9	0.598057255	0.737464498	0.012105840	0.124893721	0.038493458
2019-10-15T21:05:00	0.2346	10.974	181.4	0.584004167	0.716979437	0.011584465	0.119514787	0.036835618
2019-10-15T21:10:00	0.2362	10.966	181.3	0.589360198	0.724767463	0.011781788	0.121550533	0.037463055
2019-10-15T21:15:00	0.2376	10.958	181.3	0.594039680	0.731591303	0.011955584	0.123343561	0.038015683
2019-10-15T21:20:00	0.2375	10.950	181.2	0.593702433	0.731098902	0.011943015	0.123213888	0.037975717
2019-10-15T21:25:00	0.2374	10.941	181.2	0.593365153	0.730606549	0.011930452	0.123084273	0.037935768
2019-10-15T21:30:00	0.2386	10.933	181.2	0.597371543	0.736461118	0.012080127	0.124628439	0.038411695
2019-10-15T21:35:00	0.2391	10.925	181.1	0.599037790	0.738899966	0.012142658	0.125273566	0.038610530
2019-10-15T21:40:00	0.2390	10.917	181.1	0.598701020	0.738406855	0.012130006	0.125143039	0.038570300
2019-10-15T21:45:00	0.2388	10.908	181.0	0.598030369	0.737425149	0.012104831	0.124883314	0.038490250
2019-10-15T21:50:00	0.2378	10.899	181.0	0.594687167	0.732536938	0.011979735	0.123592719	0.038092476
2019-10-15T21:55:00	0.2408	10.890	181.0	0.604695379	0.747198181	0.012356218	0.127476819	0.039289594
2019-10-15T22:00:00	0.2395	10.882	180.9	0.600357685	0.740833512	0.012192309	0.125785809	0.038768408
2019-10-15T22:05:00	0.2404	10.874	180.9	0.603326922	0.745188552	0.012304386	0.126942084	0.039124783
2019-10-15T22:10:00	0.2407	10.866	193.4	0.604294598	0.746609458	0.012341026	0.127320091	0.039241289
2019-10-15T22:15:00	0.2407	10.859	193.3	0.604262324	0.746562054	0.012339803	0.127307474	0.039237400
2019-10-15T22:20:00	0.2390	10.853	193.3	0.598559769	0.738200060	0.012124702	0.125088313	0.038553433
2019-10-15T22:25:00	0.2396	10.848	193.3	0.600529774	0.741085718	0.012198791	0.125852675	0.038789017
2019-10-15T22:30:00	0.2398	10.843	193.1	0.601498215	0.742505479	0.012235297	0.126229309	0.038905099
2019-10-15T22:35:00	0.2400	10.838	193.2	0.602132931	0.743436415	0.012259254	0.126476468	0.038981276
2019-10-15T22:40:00	0.2361	10.833	180.6	0.589070952	0.724346271	0.011771088	0.121440146	0.037429032
2019-10-15T22:45:00	0.2357	10.827	193.1	0.587699423	0.722350033	0.011720420	0.120917414	0.037267921
2019-10-15T22:50:00	0.2361	10.821	193.1	0.589006125	0.724251880	0.011768691	0.121415412	0.037421409
2019-10-15T22:55:00	0.2344	10.814	193.1	0.583278844	0.715926604	0.011557874	0.119240456	0.036751067
2019-10-15T23:00:00	0.2350	10.807	193.0	0.585257401	0.718799584	0.011630483	0.119989545	0.036981943
2019-10-15T23:05:00	0.2341	10.800	180.5	0.582207957	0.714372970	0.011518672	0.118836016	0.036626414
2019-10-15T23:10:00	0.2340	10.792	180.5	0.581840095	0.713839500	0.011505221	0.118697248	0.036583645
2019-10-15T23:15:00	0.2311	10.785	192.9	0.572067401	0.699708311	0.011150829	0.115041043	0.035456767
2019-10-15T23:20:00	0.2307	10.777	192.9	0.571025665	0.698206642	0.011113385	0.114654747	0.035337707
2019-10-15T23:25:00	0.2314	10.769	192.9	0.573347371	0.701554628	0.011196923	0.115516589	0.035603335
2019-10-15T23:30:00	0.2313	10.761	180.3	0.572978579	0.701022518	0.011183632	0.115379470	0.035561073
2019-10-15T23:35:00	0.2331	10.753	180.2	0.578993336	0.709714947	0.011401403	0.117626175	0.036253529
2019-10-15T23:40:00	0.2318	10.746	192.7	0.574594327	0.703354626	0.011241921	0.115980831	0.035746419
2019-10-15T23:45:00	0.2308	10.739	192.6	0.571199195	0.698456724	0.011119618	0.114719049	0.035357525
2019-10-15T23:50:00	0.2294	10.732	192.6	0.566453518	0.691626469	0.010949806	0.112967132	0.034817567
2019-10-15T23:55:00	0.2308	10.726	192.6	0.571134037	0.698362818	0.011117277	0.114694902	0.035350083
2019-10-16T00:00:00	0.2279	10.717	180.1	0.561331364	0.684275232	0.010768015	0.111091630	0.034239519
2019-10-16T00:05:00	0.2284	10.709	180.0	0.562985158	0.686646367	0.010826541	0.111695430	0.034425616
2019-10-16T00:10:00	0.2303	10.702	180.0	0.569690295	0.696283009	0.011065482	0.114160534	0.035185385
2019-10-16T00:15:00	0.2314	10.693	179.9	0.573357996	0.701569959	0.011197306	0.115520540	0.035604552
2019-10-16T00:20:00	0.2302	10.686	179.9	0.569288521	0.695704532	0.011051089	0.114012052	0.035139622
2019-10-16T00:25:00	0.2298	10.679	179.9	0.567909237	0.693719646	0.011001754	0.113503066	0.034982747
2019-10-16T00:30:00	0.2301	10.673	179.9	0.568886701	0.695126123	0.011036705	0.113863652	0.035093883
2019-10-16T00:35:00	0.2313	10.667	179.8	0.572891517	0.700896917	0.011180496	0.115347111	0.035551100
2019-10-16T00:40:00	0.2304	10.662	179.8	0.569831300	0.696486060	0.011070535	0.114212667	0.035201453
2019-10-16T00:45:00	0.2294	10.657	179.8	0.566431540	0.691594881	0.010949023	0.112959051	0.034815076
2019-10-16T00:50:00	0.2327	10.654	192.1	0.577498401	0.707551691	0.011347077	0.117065703	0.036080787
2019-10-16T00:55:00	0.2313	10.649	179.7	0.572761262	0.700709015	0.011175804	0.115298708	0.035536182
2019-10-16T01:00:00	0.2307	10.646	179.7	0.570710477	0.697752473	0.011102069	0.114538000	0.035301724
2019-10-16T01:05:00	0.2311	10.644	179.7	0.572359840	0.700130026	0.011161351	0.115149605	0.035490226
2019-10-16T01:10:00	0.2303	10.645	179.7	0.569635744	0.696204459	0.011063527	0.114140368	0.035179170
2019-10-16T01:15:00	0.2296	10.646	179.7	0.567246342	0.692766253	0.010978083	0.113258856	0.034907479
2019-10-16T01:20:00	0.2303	10.648	179.7	0.569570557	0.696110595	0.011061191	0.114116272	0.035171743
2019-10-16T01:25:00	0.2306	10.650	179.7	0.570547556	0.697517745	0.011096222	0.114477676	0.035283132
2019-10-16T01:30:00	0.2305	10.653	179.7	0.570178469	0.696986065	0.011082982	0.114341078	0.035241031
2019-10-16T01:35:00	0.2301	10.656	179.7	0.568799537	0.695000669	0.011033586	0.113831473	0.035083966
2019-10-16T01:40:00	0.2306	10.660	179.7	0.570449800	0.697376913	0.011092714	0.114441489	0.035271978
2019-10-16T01:45:00	0.2305	10.665	179.7	0.570080703	0.696845248	0.011079476	0.114304909	0.035229883
2019-10-16T01:50:00	0.2312	10.670	192.1	0.572403035	0.700192322	0.011162906	0.115165644	0.035495170
2019-10-16T01:55:00	0.2321	10.677	179.8	0.575731929	0.704997893	0.011283054	0.116405189	0.035877210
2019-10-16T02:00:00	0.2291	10.682	179.8	0.565605214	0.690407500	0.010919592	0.112655418	0.034721494
2019-10-16T02:05:00	0.2302	10.690	179.8	0.569277198	0.695688231	0.011050684	0.114007869	0.035138332
2019-10-16T02:10:00	0.2291	10.697	192.3	0.565539951	0.690313745	0.010917269	0.112631455	0.034714108
2019-10-16T02:15:00	0.2293	10.706	192.3	0.566181190	0.691235084	0.010940102	0.112867016	0.034786710
2019-10-16T02:20:00	0.2306	10.715	180.0	0.570525604	0.697486119	0.011095434	0.114469550	0.035280627
2019-10-16T02:25:00	0.2290	10.727	180.0	0.565105064	0.689689089	0.010901798	0.112471840	0.034664913
2019-10-16T02:30:00	0.2294	10.738	192.5	0.566420208	0.691578593	0.010948619	0.112954884	0.034813792
2019-10-16T02:35:00	0.2278	10.751	192.6	0.560993288	0.683790792	0.010756071	0.110968403	0.034201540
2019-10-16T02:40:00	0.2277	10.765	192.6	0.560623190	0.683260574	0.010743003	0.110833584	0.034159987
2019-10-16T02:45:00	0.2287	10.778	180.3	0.564300414	0.688533731	0.010873202	0.112176817	0.034573984
2019-10-16T02:50:00	0.2281	10.793	180.3	0.562244658	0.685584393	0.010800316	0.111424867	0.034342226
2019-10-16T02:55:00	0.2285	10.806	192.9	0.563560880	0.687472340	0.010846953	0.111906016	0.034490521
2019-10-16T03:00:00	0.2289	10.817	193.0	0.564876606	0.689361003	0.010893675	0.112388036	0.034639084
2019-10-16T03:05:00	0.2268	10.826	180.5	0.557759104	0.679161179	0.010642147	0.109793074	0.033839292
2019-10-16T03:10:00	0.2271	10.836	180.5	0.558739414	0.680563546	0.010676614	0.110148655	0.033948885
2019-10-16T03:15:00	0.2249	10.846	180.6	0.551271016	0.669899667	0.010415461	0.107454394	0.033118488
2019-10-16T03:20:00	0.2259	10.852	193.1	0.554620117	0.674676068	0.010532166	0.108658414	0.033489579
2019-10-16T03:25:00	0.2270	10.859	193.1	0.558303678	0.679940114	0.010661287	0.109990532	0.033900150
2019-10-16T03:30:00	0.2278	10.866	193.2	0.560971276	0.683759253	0.010755294	0.110960382	0.034199067
2019-10-16T03:35:00	0.2292	10.875	193.3	0.565996077	0.690969077	0.010933508	0.112798988	0.034765744
2019-10-16T03:40:00	0.2289	10.881	193.3	0.564952531	0.689470034	0.010896374	0.112415884	0.034647667
2019-10-16T03:45:00	0.2294	10.886	193.2	0.566604612	0.691843645	0.010955192	0.113022698	0.034834693
2019-10-16T03:50:00	0.2297	10.892	193.3	0.567582440	0.693249592	0.010990081	0.113382641	0.034945631
2019-10-16T03:55:00	0.2313	10.899	193.3	0.572934020	0.700958234	0.011182027	0.115362908	0.035555969
2019-10-16T04:00:00	0.2291	10.904	193.4	0.565495984	0.690250585	0.010915705	0.112615312	0.034709133
2019-10-16T04:05:00	0.2283	10.909	193.4	0.562909763	0.686538220	0.010823870	0.111667867	0.034417121
2019-10-16T04:10:00	0.2283	10.915	193.4	0.562683110	0.686213136	0.010815840	0.111585028	0.034391589
2019-10-16T04:15:00	0.2275	10.919	193.4	0.560094803	0.682503780	0.010724360	0.110641249	0.034100707
2019-10-16T04:20:00	0.2292	10.925	181.0	0.565937920	0.690885511	0.010931437	0.112777620	0.034759158
2019-10-16T04:25:00	0.2255	10.928	193.5	0.553222034	0.672681039	0.010483367	0.108154969	0.033334412
2019-10-16T04:30:00	0.2282	10.931	193.5	0.562450941	0.685880184	0.010807618	0.111500205	0.034365446
2019-10-16T04:35:00	0.2300	10.933	193.5	0.568626803	0.694752077	0.011027406	0.113767719	0.035064316
2019-10-16T04:40:00	0.2312	10.935	181.0	0.572438460	0.700243412	0.011164181	0.115178799	0.035499225
2019-10-16T04:45:00	0.2297	10.937	193.5	0.567500736	0.693132086	0.010987164	0.113352543	0.034936355
2019-10-16T04:50:00	0.2318	10.937	181.0	0.574676094	0.703472703	0.011244875	0.116011306	0.035755811
2019-10-16T04:55:00	0.2305	10.938	193.4	0.570078073	0.696841460	0.011079381	0.114303936	0.035229583
2019-10-16T05:00:00	0.2317	10.937	193.4	0.574224296	0.702820346	0.011228559	0.115842969	0.035703928
2019-10-16T05:05:00	0.2322	10.937	193.4	0.576014702	0.705406526	0.011293290	0.116510795	0.035909758
2019-10-16T05:10:00	0.2326	10.937	193.5	0.577132556	0.707022575	0.011333802	0.116928751	0.036038577
2019-10-16T05:15:00	0.2318	10.938	193.4	0.574554928	0.703297732	0.011240498	0.115966148	0.035741893
2019-10-16T05:20:00	0.2298	10.937	193.4	0.567936927	0.693759478	0.011002743	0.113513273	0.034985893
2019-10-16T05:25:00	0.2297	10.937	193.4	0.567373828	0.692949578	0.010982633	0.113305801	0.034921948
2019-10-16T05:30:00	0.2298	10.937	193.3	0.567821019	0.693592747	0.010998602	0.113470551	0.034972726
2019-10-16T05:35:00	0.2305	10.937	193.3	0.570287782	0.697143520	0.011086902	0.114381526	0.035253497
2019-10-16T05:40:00	0.2300	10.937	180.8	0.568378555	0.694394850	0.011018528	0.113676125	0.035036086
2019-10-16T05:45:00	0.2305	10.936	180.6	0.570171952	0.696976677	0.011082748	0.114338667	0.035240288
2019-10-16T05:50:00	0.2318	10.937	180.8	0.574654168	0.703441040	0.011244083	0.116003134	0.035753292
2019-10-16T05:55:00	0.2293	10.937	193.4	0.566015425	0.690996878	0.010934197	0.112806097	0.034767935
2019-10-16T06:00:00	0.2300	10.937	193.4	0.568483462	0.694545804	0.011022280	0.113714827	0.035048014
2019-10-16T06:05:00	0.2317	10.937	180.8	0.574312582	0.702947810	0.011231746	0.115875854	0.035714064
2019-10-16T06:10:00	0.2313	10.937	193.4	0.572741837	0.700680995	0.011175104	0.115291491	0.035533957
2019-10-16T06:15:00	0.2320	10.937	193.4	0.575205136	0.704236807	0.011263997	0.116208582	0.035816614
2019-10-16T06:20:00	0.2328	10.940	180.9	0.578002488	0.708280927	0.011365381	0.117254539	0.036138988
2019-10-16T06:25:00	0.2316	10.941	193.4	0.573745024	0.702128506	0.011211263	0.115664532	0.035648932
2019-10-16T06:30:00	0.2312	10.944	193.5	0.572510336	0.700347077	0.011166769	0.115205493	0.035507452
2019-10-16T06:35:00	0.2342	10.947	193.5	0.582694619	0.715078897	0.011536479	0.119019726	0.036683035
2019-10-16T06:40:00	0.2366	10.947	193.5	0.590508226	0.726439882	0.011824305	0.121989175	0.037598248
2019-10-16T06:45:00	0.2365	10.947	181.0	0.590283350	0.726112202	0.011815971	0.121903190	0.037571747
2019-10-16T06:50:00	0.2343	10.946	181.0	0.583024454	0.715557450	0.011548555	0.119144318	0.036721436
2019-10-16T06:55:00	0.2337	10.942	193.5	0.581122153	0.712798668	0.011478993	0.118426659	0.036500247
2019-10-16T07:00:00	0.2348	10.939	193.5	0.584585138	0.717823053	0.011605786	0.119734754	0.036903414
2019-10-16T07:05:00	0.2377	10.935	193.4	0.594400365	0.732118028	0.011969035	0.123482323	0.038058451
2019-10-16T07:10:00	0.2343	10.929	180.9	0.583128924	0.715709043	0.011552382	0.119183794	0.036733603
2019-10-16T07:15:00	0.2391	10.926	180.9	0.598961275	0.738787921	0.012139783	0.125243903	0.038601387
2019-10-16T07:20:00	0.2392	10.923	193.4	0.599404467	0.739436973	0.012156441	0.125415763	0.038654356
2019-10-16T07:25:00	0.2357	10.923	193.4	0.587814221	0.722517059	0.011724657	0.120961123	0.037281393
2019-10-16T07:30:00	0.2337	10.923	180.9	0.580885732	0.712456012	0.011470363	0.118337623	0.036472805
2019-10-16T07:35:00	0.2348	10.919	193.4	0.584684095	0.717966775	0.011609420	0.119772242	0.036914968
2019-10-16T07:40:00	0.2348	10.918	180.8	0.584793981	0.718126379	0.011613455	0.119813877	0.036927801
2019-10-16T07:45:00	0.2349	10.916	193.3	0.584903864	0.718285988	0.011617491	0.119855518	0.036940635
2019-10-16T07:50:00	0.2341	10.914	180.8	0.582331936	0.714552790	0.011523207	0.118882803	0.036640835
2019-10-16T07:55:00	0.2356	10.915	180.8	0.587468451	0.722014010	0.011711898	0.120829497	0.037240825
2019-10-16T08:00:00	0.2362	10.909	193.3	0.589252122	0.724610078	0.011777789	0.121509281	0.037450341
2019-10-16T08:05:00	0.2357	10.904	180.8	0.587688046	0.722333479	0.011720000	0.120913083	0.037266586
2019-10-16T08:10:00	0.2371	10.900	180.8	0.592482386	0.729318356	0.011897601	0.122745360	0.037831312
2019-10-16T08:15:00	0.2376	10.894	180.7	0.593929287	0.731430112	0.011951469	0.123301107	0.038002599
2019-10-16T08:20:00	0.2354	10.889	180.7	0.586677909	0.720864252	0.011682756	0.120528835	0.037148157
2019-10-16T08:25:00	0.2343	10.888	193.1	0.583101582	0.715669367	0.011551380	0.119173461	0.036730418
2019-10-16T08:30:00	0.2330	10.896	180.7	0.578514602	0.709021990	0.011383991	0.117446542	0.036198165
2019-10-16T08:35:00	0.2343	10.903	180.7	0.582986174	0.715501906	0.011547154	0.119129854	0.036716978
2019-10-16T08:40:00	0.2355	10.908	180.7	0.587117184	0.721503066	0.011698945	0.120695855	0.037199635
2019-10-16T08:45:00	0.2347	10.914	180.8	0.584211717	0.717280783	0.011592079	0.119593346	0.036859831
2019-10-16T08:50:00	0.2348	10.921	193.3	0.584656765	0.717927082	0.011608416	0.119761888	0.036911777
2019-10-16T08:55:00	0.2357	10.915	180.8	0.587781455	0.722469384	0.011723447	0.120948647	0.037277548
2019-10-16T09:00:00	0.2370	10.913	180.8	0.591906845	0.728478840	0.011876209	0.122524657	0.037763289
2019-10-16T09:05:00	0.2371	10.919	180.8	0.592350923	0.729126573	0.011892713	0.122694930	0.037815769
2019-10-16T09:10:00	0.2366	10.926	180.8	0.590788222	0.726847939	0.011834686	0.122096279	0.037631259
2019-10-16T09:15:00	0.2399	10.938	193.5	0.601586953	0.742635610	0.012238645	0.126263848	0.038915744
2019-10-16T09:20:00	0.2387	10.943	181.0	0.597691839	0.736929747	0.012092134	0.124752316	0.038449875
2019-10-16T09:25:00	0.2400	10.943	181.0	0.602139163	0.743445557	0.012259490	0.126478896	0.038982024
2019-10-16T09:30:00	0.2401	10.950	181.0	0.602248507	0.743605966	0.012263619	0.126521500	0.038995155
2019-10-16T09:35:00	0.2425	10.966	181.1	0.610351749	0.755521423	0.012571648	0.129699377	0.039974608
2019-10-16T09:40:00	0.2410	10.973	181.1	0.605466918	0.748331906	0.012385490	0.127778814	0.039382671
2019-10-16T09:45:00	0.2422	10.974	181.2	0.609238943	0.753881829	0.012529114	0.129260558	0.039839359
2019-10-16T09:50:00	0.2416	10.981	181.2	0.607350716	0.751102118	0.012457111	0.128517716	0.039610408
2019-10-16T09:55:00	0.2422	10.987	193.6	0.609457190	0.754203309	0.012537450	0.129346560	0.039865866
2019-10-16T10:00:00	0.2423	10.994	181.2	0.609566308	0.754364057	0.012541619	0.129389570	0.039879122
2019-10-16T10:05:00	0.2414	10.999	181.2	0.606717463	0.750170557	0.012433011	0.128269083	0.039533777
2019-10-16T10:10:00	0.2436	10.998	181.3	0.613851653	0.760684918	0.012705909	0.131084519	0.040401522
2019-10-16T10:15:00	0.2431	11.004	193.8	0.612336567	0.758448411	0.012647698	0.130483968	0.040216426
2019-10-16T10:20:00	0.2409	11.022	194.0	0.605161100	0.747882467	0.012373883	0.127659067	0.039345764
2019-10-16T10:25:00	0.2409	11.033	181.4	0.604975385	0.747609573	0.012366837	0.127586376	0.039323360
2019-10-16T10:30:00	0.2411	11.044	194.1	0.605789198	0.748805623	0.012397728	0.127905070	0.039421585
2019-10-16T10:35:00	0.2415	11.050	181.5	0.606935865	0.750491804	0.012441320	0.128354806	0.039560198
2019-10-16T10:40:00	0.2401	11.053	194.2	0.602418049	0.743854707	0.012270024	0.126587574	0.039015520
2019-10-16T10:45:00	0.2408	11.062	194.2	0.604565691	0.747007662	0.012351301	0.127426093	0.039273959
2019-10-16T10:50:00	0.2387	11.070	194.3	0.597708365	0.736953929	0.012092754	0.124758709	0.038451846
2019-10-16T10:55:00	0.2386	11.068	194.2	0.597522258	0.736681621	0.012085776	0.124686722	0.038429659
2019-10-16T11:00:00	0.2380	11.063	194.2	0.595332000	0.733479044	0.012003812	0.123841111	0.038169033
2019-10-16T11:05:00	0.2399	11.069	194.2	0.601822179	0.742980593	0.012247522	0.126355429	0.038943970
2019-10-16T11:10:00	0.2399	11.076	194.2	0.601636289	0.742707962	0.012240507	0.126283053	0.038921663
2019-10-16T11:15:00	0.2386	11.086	194.2	0.597445635	0.736569515	0.012082904	0.124657089	0.038420525
2019-10-16T11:20:00	0.2359	11.096	194.4	0.588231703	0.723124571	0.011740071	0.121120145	0.037330405
2019-10-16T11:25:00	0.2375	11.108	194.4	0.593732267	0.731142458	0.011944127	0.123225357	0.037979252
2019-10-16T11:30:00	0.2384	11.117	194.5	0.596553257	0.735264261	0.012049478	0.124312247	0.038314242
2019-10-16T11:35:00	0.2362	11.121	194.5	0.589345679	0.724746320	0.011781251	0.121544991	0.037461347
2019-10-16T11:40:00	0.2363	11.127	194.6	0.589828475	0.725449505	0.011799121	0.121729356	0.037518170
2019-10-16T11:45:00	0.2348	11.135	194.5	0.584618503	0.717871511	0.011607011	0.119747393	0.036907310
2019-10-16T11:50:00	0.2377	11.135	194.7	0.594471982	0.732222628	0.011971706	0.123509885	0.038066946
2019-10-16T11:55:00	0.2358	11.128	194.6	0.587929850	0.722685305	0.011728925	0.121005156	0.037294964
2019-10-16T12:00:00	0.2356	11.122	194.6	0.587408373	0.721926614	0.011709682	0.120806635	0.037233778
2019-10-16T12:05:00	0.2364	11.118	194.5	0.589899806	0.725553415	0.011801762	0.121756607	0.037526569
2019-10-16T12:10:00	0.2364	11.123	194.6	0.590047923	0.725769192	0.011807248	0.121813204	0.037544012
2019-10-16T12:15:00	0.2365	11.131	194.7	0.590196033	0.725984978	0.011812735	0.121869811	0.037561459
2019-10-16T12:20:00	0.2353	11.139	194.7	0.586326753	0.720353701	0.011669822	0.120395405	0.037107033
2019-10-16T12:25:00	0.2347	11.148	194.8	0.584464692	0.717648133	0.011601364	0.119689134	0.036889354
2019-10-16T12:30:00	0.2354	11.161	194.8	0.586623280	0.720784820	0.011680743	0.120508072	0.037141758
2019-10-16T12:35:00	0.2358	11.168	194.9	0.588111003	0.722948915	0.011735613	0.121074158	0.037316231
2019-10-16T12:40:00	0.2360	11.182	194.9	0.588593968	0.723651850	0.011753454	0.121258221	0.037372961
2019-10-16T12:45:00	0.2377	11.192	194.9	0.594428187	0.732158663	0.011970072	0.123493030	0.038061751
2019-10-16T12:50:00	0.2383	11.200	195.0	0.596246668	0.734815976	0.012038006	0.124193885	0.038277761
2019-10-16T12:55:00	0.2369	11.203	195.0	0.591715167	0.728199308	0.011869089	0.122451199	0.037740649
2019-10-16T13:00:00	0.2345	11.202	195.0	0.583492094	0.716236098	0.011565689	0.119321078	0.036775915
2019-10-16T13:05:00	0.2335	11.211	195.1	0.580286591	0.711587857	0.011448507	0.118112138	0.036403308
2019-10-16T13:10:00	0.2362	11.218	195.1	0.589482902	0.724946163	0.011786328	0.121597378	0.037477493
2019-10-16T13:15:00	0.2349	11.222	195.2	0.584942692	0.718342390	0.011618918	0.119870234	0.036945170
2019-10-16T13:20:00	0.2341	11.226	195.2	0.582409269	0.714664960	0.011526036	0.118911992	0.036649831
2019-10-16T13:25:00	0.2353	11.231	195.3	0.586244422	0.720234013	0.011666791	0.120364132	0.037097394
2019-10-16T13:30:00	0.2344	11.253	195.4	0.583376699	0.716068618	0.011561460	0.119277448	0.036762468
2019-10-16T13:35:00	0.2333	11.266	195.4	0.579499907	0.710448405	0.011419842	0.117816406	0.036312160
2019-10-16T13:40:00	0.2352	11.265	195.5	0.586019273	0.719906735	0.011658504	0.120278632	0.037071043
2019-10-16T13:45:00	0.2371	11.260	195.4	0.592192184	0.728895017	0.011886812	0.122634051	0.037797005
2019-10-16T13:50:00	0.2353	11.252	195.5	0.586315826	0.720337816	0.011669420	0.120391254	0.037105754
2019-10-16T13:55:00	0.2346	11.245	195.4	0.584118592	0.717145569	0.011588662	0.119558095	0.036848966
2019-10-16T14:00:00	0.2355	11.246	195.4	0.586947284	0.721255971	0.011692682	0.120631242	0.037179720
2019-10-16T14:05:00	0.2384	11.243	195.4	0.596794265	0.735616711	0.012058501	0.124405331	0.038342931
2019-10-16T14:10:00	0.2372	11.233	195.4	0.592597861	0.729486829	0.011901896	0.122789667	0.037844968
2019-10-16T14:15:00	0.2370	11.219	195.3	0.592077074	0.728727116	0.011882534	0.122589914	0.037783402
2019-10-16T14:20:00	0.2380	11.205	195.3	0.595233531	0.733335156	0.012000133	0.123803164	0.038157337
2019-10-16T14:25:00	0.2375	11.192	195.1	0.593710459	0.731110620	0.011943314	0.123216974	0.037976668
2019-10-16T14:30:00	0.2361	11.180	195.1	0.588840979	0.724011440	0.011762584	0.121352415	0.037401993
2019-10-16T14:35:00	0.2365	11.166	195.1	0.590327765	0.726176919	0.011817616	0.121920170	0.037576980
2019-10-16T14:40:00	0.2363	11.157	195.1	0.589806643	0.725417703	0.011798313	0.121721016	0.037515599
2019-10-16T14:45:00	0.2353	11.153	195.0	0.586271929	0.720274001	0.011667804	0.120374580	0.037100615
2019-10-16T14:50:00	0.2372	11.152	195.0	0.592778774	0.729750794	0.011908626	0.122859097	0.037866367
2019-10-16T14:55:00	0.2359	11.150	195.1	0.588242813	0.723140740	0.011740481	0.121124378	0.037331710
2019-10-16T15:00:00	0.2350	11.142	194.9	0.585376719	0.718972944	0.011634869	0.120034796	0.036995890
2019-10-16T15:05:00	0.2351	11.132	194.9	0.585525026	0.719188440	0.011640322	0.120091053	0.037013229
2019-10-16T15:10:00	0.2366	11.121	194.9	0.590695271	0.726712469	0.011831240	0.122060718	0.037620299
2019-10-16T15:15:00	0.2347	11.111	194.9	0.584146116	0.717185532	0.011589672	0.119568513	0.036852177
2019-10-16T15:20:00	0.2359	11.100	194.8	0.588314177	0.723244603	0.011743117	0.121151573	0.037340091
2019-10-16T15:25:00	0.2335	11.087	194.8	0.580418695	0.711779250	0.011453324	0.118161836	0.036418625
2019-10-16T15:30:00	0.2345	11.076	194.7	0.583585615	0.716371839	0.011569117	0.119356443	0.036786815
2019-10-16T15:35:00	0.2349	11.062	182.0	0.585074621	0.718534040	0.011623765	0.119920243	0.036960584
2019-10-16T15:40:00	0.2343	11.050	194.6	0.582876611	0.715342936	0.011543142	0.119088463	0.036704221
2019-10-16T15:45:00	0.2368	11.040	194.6	0.591397246	0.727735739	0.011857284	0.122329410	0.037703112
2019-10-16T15:50:00	0.2337	11.028	194.5	0.580825731	0.712369058	0.011468173	0.118315032	0.036465842
2019-10-16T15:55:00	0.2341	11.014	181.9	0.582315908	0.714529540	0.011522621	0.118876754	0.036638970
2019-10-16T16:00:00	0.2335	10.998	181.8	0.580451720	0.711827100	0.011454529	0.118174262	0.036422455
2019-10-16T16:05:00	0.2346	10.984	194.3	0.584045739	0.717039793	0.011585990	0.119530520	0.036840467
2019-10-16T16:10:00	0.2356	10.970	194.2	0.587301223	0.721770752	0.011705731	0.120765865	0.037221212
2019-10-16T16:15:00	0.2347	10.957	181.6	0.584191103	0.717250852	0.011591323	0.119585542	0.036857426
2019-10-16T16:20:00	0.2349	10.945	181.5	0.585101606	0.718573243	0.011624757	0.119930473	0.036963737
2019-10-16T16:25:00	0.2365	10.934	181.5	0.590364222	0.726230041	0.011818967	0.121934109	0.037581277
2019-10-16T16:30:00	0.2360	10.922	194.0	0.588596091	0.723654941	0.011753533	0.121259031	0.037373211
2019-10-16T16:35:00	0.2351	10.911	181.4	0.585487115	0.719133352	0.011638928	0.120076671	0.037008796
2019-10-16T16:40:00	0.2361	10.900	193.9	0.589075994	0.724353613	0.011771275	0.121442069	0.037429625
2019-10-16T16:45:00	0.2369	10.891	181.3	0.591657965	0.728115893	0.011866964	0.122429281	0.037733893
2019-10-16T16:50:00	0.2358	10.883	181.3	0.587882105	0.722615832	0.011727162	0.120986973	0.037289360
2019-10-16T16:55:00	0.2377	10.875	181.3	0.594477622	0.732230866	0.011971917	0.123512056	0.038067615
2019-10-16T17:00:00	0.2350	10.868	181.2	0.585347801	0.718930927	0.011633806	0.120023828	0.036992509
2019-10-16T17:05:00	0.2367	10.861	181.2	0.590944599	0.727075867	0.011840487	0.122156117	0.037649702
2019-10-16T17:10:00	0.2377	10.854	181.2	0.594193718	0.731816238	0.011961328	0.123402812	0.038033945
2019-10-16T17:15:00	0.2362	10.848	181.1	0.589416679	0.724849719	0.011783878	0.121572095	0.037469700
2019-10-16T17:20:00	0.2355	10.844	181.1	0.586978314	0.721301097	0.011693825	0.120643041	0.037183357
2019-10-16T17:25:00	0.2363	10.837	181.1	0.589561821	0.725061104	0.011789249	0.121627512	0.037486780
2019-10-16T17:30:00	0.2369	10.831	181.0	0.591809000	0.728336144	0.011872574	0.122487156	0.037751731
2019-10-16T17:35:00	0.2371	10.824	181.0	0.592383155	0.729173593	0.011893912	0.122707294	0.037819580
2019-10-16T17:40:00	0.2367	10.817	181.0	0.590950586	0.727084593	0.011840709	0.122158408	0.037650408
2019-10-16T17:45:00	0.2379	10.811	181.0	0.594868087	0.732801227	0.011986488	0.123662384	0.038113948
2019-10-16T17:50:00	0.2366	10.804	180.9	0.590761129	0.726808452	0.011833682	0.122085913	0.037628064
2019-10-16T17:55:00	0.2373	10.798	180.9	0.593007543	0.730084624	0.011917139	0.122946922	0.037893435
2019-10-16T18:00:00	0.2372	10.791	180.9	0.592578508	0.729458593	0.011901176	0.122782241	0.037842679
2019-10-16T18:05:00	0.2394	10.785	180.8	0.600166389	0.740553188	0.012185107	0.125711502	0.038745506
2019-10-16T18:10:00	0.2381	10.781	180.8	0.595731527	0.734062930	0.012018741	0.123995139	0.038216506
2019-10-16T18:15:00	0.2374	10.776	180.8	0.593297526	0.730507841	0.011927934	0.123058293	0.037927761
2019-10-16T18:20:00	0.2371	10.771	180.8	0.592199760	0.728906067	0.011887094	0.122636956	0.037797901
2019-10-16T18:25:00	0.2374	10.767	180.8	0.593442509	0.730719464	0.011933333	0.123113994	0.037944929
2019-10-16T18:30:00	0.2370	10.762	180.7	0.592010370	0.728629826	0.011880055	0.122564341	0.037775520
2019-10-16T18:35:00	0.2367	10.757	180.7	0.590912203	0.727028646	0.011839285	0.122143719	0.037645881
2019-10-16T18:40:00	0.2352	10.755	180.7	0.586130711	0.720068717	0.011662605	0.120320947	0.037084084
2019-10-16T18:45:00	0.2358	10.751	180.8	0.588045285	0.722853281	0.011733187	0.121049124	0.037308516
2019-10-16T18:50:00	0.2361	10.748	180.7	0.588954792	0.724177142	0.011766792	0.121395829	0.037415373
2019-10-16T18:55:00	0.2355	10.743	180.7	0.586851046	0.721116017	0.011689135	0.120594650	0.037168442
2019-10-16T19:00:00	0.2355	10.740	180.7	0.587091125	0.721465165	0.011697984	0.120685943	0.037196580
2019-10-16T19:05:00	0.2374	10.737	180.7	0.593353831	0.730590024	0.011930030	0.123079923	0.037934428
2019-10-16T19:10:00	0.2372	10.735	180.6	0.592590476	0.729476054	0.011901621	0.122786833	0.037844094
2019-10-16T19:15:00	0.2380	10.732	180.6	0.595503994	0.733730386	0.012010238	0.123907407	0.038189466
2019-10-16T19:20:00	0.2378	10.728	180.5	0.594741103	0.732615726	0.011981748	0.123613485	0.038098877
2019-10-16T19:25:00	0.2400	10.721	180.5	0.601990873	0.743228029	0.012253890	0.126421129	0.038964220
2019-10-16T19:30:00	0.2411	10.716	180.5	0.605563028	0.748473168	0.012389139	0.127816459	0.039394274
2019-10-16T19:35:00	0.2418	10.710	180.5	0.608132990	0.752253361	0.012486915	0.128825200	0.039705178
2019-10-16T19:40:00	0.2409	10.705	180.4	0.605041166	0.747706230	0.012369332	0.127612121	0.039331295
2019-10-16T19:45:00	0.2413	10.701	180.4	0.606279411	0.749526349	0.012416354	0.128097237	0.039480813
2019-10-16T19:50:00	0.2432	10.697	180.4	0.612840751	0.759192453	0.012667054	0.130683659	0.040277973
2019-10-16T19:55:00	0.2428	10.694	180.4	0.611416439	0.757091098	0.012612413	0.130119941	0.040104230
2019-10-16T20:00:00	0.2403	10.691	180.4	0.602997167	0.744704530	0.012291913	0.126813403	0.039085122
2019-10-16T20:05:00	0.2394	10.689	180.4	0.599900855	0.740164127	0.012175113	0.125608395	0.038713727
2019-10-16T20:10:00	0.2390	10.684	180.4	0.598805139	0.738559300	0.012133917	0.125183387	0.038582735
2019-10-16T20:15:00	0.2398	10.679	180.3	0.601380008	0.742332141	0.012230838	0.126183306	0.038890920
2019-10-16T20:20:00	0.2410	10.675	180.3	0.605285974	0.748065976	0.012378622	0.127707956	0.039360832
2019-10-16T20:25:00	0.2397	10.669	180.3	0.601191110	0.742055169	0.012223715	0.126109811	0.038868268
2019-10-16T20:30:00	0.2401	10.664	180.2	0.602430702	0.743873270	0.012270502	0.126592506	0.039017040
2019-10-16T20:35:00	0.2390	10.660	180.2	0.598666350	0.738356096	0.012128704	0.125129606	0.038566160
2019-10-16T20:40:00	0.2380	10.652	180.2	0.595232130	0.733333110	0.012000081	0.123802624	0.038157171
2019-10-16T20:45:00	0.2403	10.646	180.1	0.603147718	0.744925502	0.012297607	0.126872144	0.039103227
2019-10-16T20:50:00	0.2398	10.638	180.1	0.601385977	0.742340894	0.012231064	0.126185629	0.038891636
2019-10-16T20:55:00	0.2392	10.631	180.0	0.599289629	0.739268778	0.012152124	0.125371220	0.038640628
2019-10-16T21:00:00	0.2407	10.625	180.0	0.604197888	0.746467416	0.012337362	0.127282287	0.039229637
2019-10-16T21:05:00	0.2414	10.617	180.0	0.606768840	0.750246123	0.012434965	0.128289246	0.039539991
2019-10-16T21:10:00	0.2397	10.609	180.0	0.601008171	0.741786963	0.012216818	0.126038655	0.038846338
2019-10-16T21:15:00	0.2403	10.602	179.9	0.602914695	0.744583490	0.012288795	0.126781230	0.039075206
2019-10-16T21:20:00	0.2424	10.596	179.9	0.610147765	0.755220797	0.012563846	0.129618881	0.039949798
2019-10-16T21:25:00	0.2410	10.590	179.8	0.605392240	0.748222149	0.012382655	0.127749567	0.039373657
2019-10-16T21:30:00	0.2397	10.584	179.8	0.600963928	0.741722102	0.012215150	0.126021449	0.038841034
2019-10-16T21:35:00	0.2397	10.576	179.8	0.600869469	0.741583630	0.012211590	0.125984719	0.038829714
2019-10-16T21:40:00	0.2403	10.569	179.8	0.603109468	0.744869357	0.012296160	0.126857218	0.039098627
2019-10-16T21:45:00	0.2392	10.559	179.7	0.599345839	0.739351103	0.012154237	0.125393021	0.038647347
2019-10-16T21:50:00	0.2397	10.549	179.6	0.600919683	0.741657241	0.012213482	0.126004244	0.038835732
2019-10-16T21:55:00	0.2412	10.540	179.6	0.606158798	0.749349001	0.012411770	0.128049942	0.039466236
2019-10-16T22:00:00	0.2397	10.530	179.5	0.601064354	0.741869329	0.012218936	0.126060505	0.038853072
2019-10-16T22:05:00	0.2412	10.523	179.5	0.605922992	0.749002310	0.012402810	0.127957503	0.039437745
2019-10-16T22:10:00	0.2416	10.519	179.5	0.607446775	0.751243456	0.012460769	0.128555453	0.039622039
2019-10-16T22:15:00	0.2407	10.516	179.5	0.604307168	0.746627920	0.012341502	0.127325005	0.039242803
2019-10-16T22:20:00	0.2408	10.514	179.4	0.604832120	0.747399076	0.012361403	0.127530315	0.039306082
2019-10-16T22:25:00	0.2405	10.513	179.5	0.603690738	0.745722676	0.012318155	0.127084135	0.039168565
2019-10-16T22:30:00	0.2403	10.512	179.4	0.602882409	0.744536106	0.012287574	0.126768636	0.039071325
2019-10-16T22:35:00	0.2407	10.510	179.5	0.604407499	0.746775289	0.012345305	0.127364232	0.039254893
2019-10-16T22:40:00	0.2398	10.509	179.5	0.601265197	0.742163796	0.012226508	0.126138633	0.038877152
2019-10-16T22:45:00	0.2427	10.509	179.4	0.611116559	0.756648887	0.012600924	0.130001414	0.040067698
2019-10-16T22:50:00	0.2423	10.509	179.4	0.609644442	0.754479165	0.012544604	0.129420372	0.039888615
2019-10-16T22:55:00	0.2398	10.508	179.4	0.601507282	0.742518774	0.012235640	0.126232837	0.038906186
2019-10-16T23:00:00	0.2412	10.507	179.4	0.606032219	0.749162895	0.012406960	0.128000317	0.039450941
2019-10-16T23:05:00	0.2407	10.507	179.4	0.604224727	0.746506835	0.012338379	0.127292778	0.039232870
2019-10-16T23:10:00	0.2406	10.506	179.4	0.604083168	0.746298933	0.012333016	0.127237450	0.039215818
2019-10-16T23:15:00	0.2403	10.506	179.4	0.602941544	0.744622894	0.012289810	0.126791703	0.039078434
2019-10-16T23:20:00	0.2398	10.507	179.4	0.601466029	0.742458280	0.012234083	0.126216782	0.038901238
2019-10-16T23:25:00	0.2415	10.509	179.4	0.606990218	0.750571758	0.012443388	0.128376144	0.039566774
2019-10-16T23:30:00	0.2412	10.510	179.4	0.606182642	0.749384060	0.012412676	0.128059291	0.039469117
2019-10-16T23:35:00	0.2419	10.512	191.8	0.608372155	0.752605435	0.012496034	0.128919283	0.039734175
2019-10-16T23:40:00	0.2423	10.513	179.4	0.609562125	0.754357893	0.012541459	0.129387921	0.039878614
2019-10-16T23:45:00	0.2429	10.511	191.7	0.611749555	0.757582407	0.012625182	0.130251670	0.040144830
2019-10-16T23:50:00	0.2403	10.509	179.4	0.602950494	0.744636029	0.012290148	0.126795195	0.039079510
2019-10-16T23:55:00	0.2408	10.506	179.3	0.604808796	0.747364808	0.012360518	0.127521189	0.039303269
2019-10-17T00:00:00	0.2405	10.499	179.3	0.603667405	0.745688418	0.012317272	0.127075022	0.039165756
2019-10-17T00:05:00	0.2396	10.490	191.7	0.600858058	0.741566903	0.012211160	0.125980282	0.038828347
2019-10-17T00:10:00	0.2399	10.478	179.2	0.601717053	0.742826409	0.012243555	0.126314496	0.038931354
2019-10-17T00:15:00	0.2404	10.465	179.1	0.603242645	0.745064840	0.012301198	0.126909190	0.039114645
2019-10-17T00:20:00	0.2415	10.452	179.1	0.607099413	0.750732392	0.012447544	0.128419017	0.039579988
2019-10-17T00:25:00	0.2407	10.439	191.4	0.604292786	0.746606796	0.012340957	0.127319383	0.039241070
2019-10-17T00:30:00	0.2406	10.426	178.9	0.604151230	0.746398891	0.012335594	0.127264050	0.039224016
2019-10-17T00:35:00	0.2407	10.413	178.9	0.604342953	0.746680480	0.012342858	0.127338995	0.039247115
2019-10-17T00:40:00	0.2429	10.403	178.8	0.611526025	0.757252714	0.012616613	0.130163269	0.040117584
2019-10-17T00:45:00	0.2418	10.390	191.1	0.608057123	0.752141689	0.012484023	0.128795363	0.039695982
2019-10-17T00:50:00	0.2414	10.378	178.7	0.606583737	0.749973880	0.012427925	0.128216610	0.039517605
2019-10-17T00:55:00	0.2423	10.366	178.6	0.609771419	0.754666243	0.012549457	0.129470437	0.039904046
2019-10-17T01:00:00	0.2431	10.353	178.6	0.612291259	0.758381559	0.012645959	0.130466031	0.040210898
2019-10-17T01:05:00	0.2409	10.340	178.5	0.605159892	0.747880692	0.012373837	0.127658594	0.039345619
2019-10-17T01:10:00	0.2420	10.327	178.4	0.608681731	0.753061230	0.012507844	0.129041117	0.039771725
2019-10-17T01:15:00	0.2414	10.312	190.6	0.606542543	0.749913297	0.012426358	0.128200449	0.039512623
2019-10-17T01:20:00	0.2415	10.298	178.3	0.607067164	0.750684950	0.012446317	0.128406354	0.039576086
2019-10-17T01:25:00	0.2395	10.283	178.2	0.600258939	0.740688807	0.012188591	0.125747449	0.038756585
2019-10-17T01:30:00	0.2405	10.270	190.4	0.603785650	0.745862036	0.012321748	0.127121206	0.039179990
2019-10-17T01:35:00	0.2415	10.256	178.1	0.606975847	0.750550618	0.012442841	0.128370502	0.039565035
2019-10-17T01:40:00	0.2419	10.241	178.0	0.608499178	0.752792444	0.012500879	0.128969266	0.039749580
2019-10-17T01:45:00	0.2410	10.228	190.2	0.605360504	0.748175507	0.012381450	0.127737140	0.039369827
2019-10-17T01:50:00	0.2425	10.215	177.8	0.610213261	0.755317320	0.012566351	0.129644725	0.039957763
2019-10-17T01:55:00	0.2422	10.203	177.8	0.609406418	0.754128517	0.012535510	0.129326550	0.039859699
2019-10-17T02:00:00	0.2408	10.190	177.7	0.604602718	0.747062055	0.012352704	0.127440575	0.039278423
2019-10-17T02:05:00	0.2415	10.179	177.7	0.607126230	0.750771843	0.012448565	0.128429548	0.039583234
2019-10-17T02:10:00	0.2416	10.168	189.9	0.607317791	0.751053674	0.012455857	0.128504782	0.039606422
2019-10-17T02:15:00	0.2417	10.158	189.8	0.607842297	0.751825500	0.012475835	0.128710895	0.039669948
2019-10-17T02:20:00	0.2432	10.150	189.8	0.612691665	0.758972419	0.012661329	0.130624594	0.040259769
2019-10-17T02:25:00	0.2419	10.143	189.8	0.608225332	0.752389292	0.012490436	0.128861521	0.039716372
2019-10-17T02:30:00	0.2419	10.138	189.7	0.608416835	0.752671212	0.012497738	0.128936863	0.039739593
2019-10-17T02:35:00	0.2433	10.133	189.7	0.612932971	0.759328568	0.012670596	0.130720201	0.040289236
2019-10-17T02:40:00	0.2442	10.128	177.4	0.616114964	0.764029521	0.012793124	0.131984305	0.040678845
2019-10-17T02:45:00	0.2443	10.123	189.6	0.616306041	0.764312083	0.012800501	0.132060414	0.040702302
2019-10-17T02:50:00	0.2422	10.118	189.6	0.609515538	0.754289263	0.012539679	0.129369557	0.039872954
2019-10-17T02:55:00	0.2425	10.113	189.6	0.610372437	0.755551915	0.012572440	0.129707543	0.039977124
2019-10-17T03:00:00	0.2418	10.109	189.6	0.607901350	0.751912412	0.012478086	0.128734111	0.039677103
2019-10-17T03:05:00	0.2424	10.105	189.6	0.610089804	0.755135383	0.012561629	0.129596014	0.039942750
2019-10-17T03:10:00	0.2426	10.098	189.5	0.610613901	0.755907826	0.012581679	0.129802865	0.040006504
2019-10-17T03:15:00	0.2420	10.092	189.4	0.608808742	0.753248255	0.012512690	0.129091119	0.039787137
2019-10-17T03:20:00	0.2430	10.085	189.4	0.611994428	0.757943627	0.012634572	0.130348548	0.040174688
2019-10-17T03:25:00	0.2427	10.076	189.4	0.611187990	0.756754214	0.012603661	0.130029642	0.040076399
2019-10-17T03:30:00	0.2438	10.067	189.3	0.614703856	0.761943755	0.012738712	0.131422942	0.040505827
2019-10-17T03:35:00	0.2429	10.057	189.2	0.611570664	0.757318551	0.012618324	0.130180920	0.040123024
2019-10-17T03:40:00	0.2427	10.049	189.2	0.611096779	0.756619722	0.012600167	0.129993599	0.040065290
2019-10-17T03:45:00	0.2412	10.039	189.2	0.605962269	0.749060054	0.012404302	0.127972898	0.039442490
2019-10-17T03:50:00	0.2428	10.030	189.1	0.611479463	0.757184044	0.012614828	0.130144859	0.040111909
2019-10-17T03:55:00	0.2425	10.019	189.0	0.610340218	0.755504428	0.012571207	0.129694826	0.039973205
2019-10-17T04:00:00	0.2426	10.008	176.8	0.610531606	0.755786520	0.012578530	0.129770374	0.039996489
2019-10-17T04:05:00	0.2422	9.997	176.8	0.609250704	0.753899152	0.012529563	0.129265191	0.039840787
2019-10-17T04:10:00	0.2413	9.988	176.8	0.606304310	0.749562962	0.012417301	0.128107002	0.039483822
2019-10-17T04:15:00	0.2410	9.981	176.7	0.605355070	0.748167521	0.012381244	0.127735012	0.039369171
2019-10-17T04:20:00	0.2414	9.975	176.7	0.606737644	0.750200240	0.012433779	0.128277003	0.039536218
2019-10-17T04:25:00	0.2400	9.966	176.6	0.602122166	0.743420623	0.012258848	0.126472274	0.038979983
2019-10-17T04:30:00	0.2405	9.960	176.6	0.603839334	0.745940864	0.012323781	0.127142177	0.039186454
2019-10-17T04:35:00	0.2379	9.954	176.6	0.594878646	0.732816654	0.011986882	0.123666451	0.038115201
2019-10-17T04:40:00	0.2395	9.947	176.5	0.600271410	0.740707082	0.012189061	0.125752294	0.038758078
2019-10-17T04:45:00	0.2403	9.937	176.5	0.602989804	0.744693723	0.012291635	0.126810530	0.039084237
2019-10-17T04:50:00	0.2397	9.927	176.4	0.601039077	0.741832272	0.012217983	0.126050675	0.038850042
2019-10-17T04:55:00	0.2398	9.914	176.4	0.601422849	0.742394961	0.012232454	0.126199977	0.038896059
2019-10-17T05:00:00	0.2405	9.901	176.3	0.603807056	0.745893467	0.012322559	0.127129568	0.039182568
2019-10-17T05:05:00	0.2411	9.887	176.2	0.605856549	0.748904631	0.012400286	0.127931463	0.039429719
2019-10-17T05:10:00	0.2413	9.872	176.2	0.606239798	0.749468101	0.012414848	0.128081703	0.039476025
2019-10-17T05:15:00	0.2397	9.857	176.1	0.600956560	0.741711301	0.012214872	0.126018584	0.038840151
2019-10-17T05:20:00	0.2406	9.841	176.0	0.604007743	0.746188167	0.012330159	0.127207975	0.039206733
2019-10-17T05:25:00	0.2389	9.827	175.9	0.598387357	0.737947665	0.012118229	0.125021531	0.038532850
2019-10-17T05:30:00	0.2407	9.813	175.8	0.604441358	0.746825023	0.012346588	0.127377471	0.039258974
2019-10-17T05:35:00	0.2412	9.800	175.7	0.606157402	0.749346948	0.012411717	0.128049395	0.039466067
2019-10-17T05:40:00	0.2410	9.788	175.7	0.605208122	0.747951566	0.012375667	0.127677475	0.039351438
2019-10-17T05:45:00	0.2399	9.775	187.4	0.601591373	0.742642092	0.012238812	0.126265569	0.038916275
2019-10-17T05:50:00	0.2401	9.764	175.6	0.602308560	0.743694069	0.012265888	0.126544902	0.039002368
2019-10-17T05:55:00	0.2382	9.754	175.5	0.596017427	0.734480838	0.012029431	0.124105422	0.038250496
2019-10-17T06:00:00	0.2404	9.746	175.5	0.603409157	0.745309274	0.012307498	0.126974185	0.039134677
2019-10-17T06:05:00	0.2402	9.739	175.4	0.602792570	0.744404263	0.012284178	0.126733596	0.039060525
2019-10-17T06:10:00	0.2402	9.732	175.4	0.602842758	0.744477915	0.012286075	0.126753170	0.039066558
2019-10-17T06:15:00	0.2412	9.723	175.4	0.605892317	0.748957215	0.012401645	0.127945481	0.039434040
2019-10-17T06:20:00	0.2418	9.714	187.4	0.607940605	0.751970188	0.012479582	0.128749545	0.039681860
2019-10-17T06:25:00	0.2419	9.706	175.3	0.608323630	0.752533997	0.012494184	0.128900191	0.039728291
2019-10-17T06:30:00	0.2427	9.699	187.2	0.611035858	0.756529897	0.012597834	0.129969527	0.040057870
2019-10-17T06:35:00	0.2430	9.694	175.2	0.612083695	0.758075320	0.012637996	0.130383873	0.040185576
2019-10-17T06:40:00	0.2417	9.692	175.2	0.607808132	0.751775217	0.012474534	0.128697464	0.039665808
2019-10-17T06:45:00	0.2421	9.695	175.2	0.609189751	0.753809374	0.012527235	0.129241177	0.039833386
2019-10-17T06:50:00	0.2425	9.703	175.2	0.610238133	0.755353975	0.012567302	0.129654539	0.039960788
2019-10-17T06:55:00	0.2438	9.709	175.2	0.614610817	0.761806291	0.012735128	0.131385972	0.040494433
2019-10-17T07:00:00	0.2438	9.715	175.3	0.614660837	0.761880194	0.012737055	0.131405847	0.040500558
2019-10-17T07:05:00	0.2441	9.723	175.3	0.615707606	0.763427232	0.012777404	0.131822124	0.040628859
2019-10-17T07:10:00	0.2452	9.733	175.3	0.619409922	0.768906347	0.012920645	0.133299912	0.041084328
2019-10-17T07:15:00	0.2457	9.744	187.4	0.621118756	0.771439173	0.012987037	0.133984871	0.041295439
2019-10-17T07:20:00	0.2445	9.758	175.4	0.616854048	0.765122635	0.012821671	0.132278819	0.040769617
2019-10-17T07:25:00	0.2466	9.770	175.5	0.623871145	0.775523928	0.013094345	0.135091943	0.041636649
2019-10-17T07:30:00	0.2449	9.778	175.5	0.618282125	0.767236080	0.012876924	0.132848847	0.040945305
2019-10-17T07:35:00	0.2445	9.788	175.6	0.617004013	0.765344491	0.012827468	0.132338619	0.040788048
2019-10-17T07:40:00	0.2435	9.798	175.6	0.613731673	0.760507739	0.012701294	0.131036909	0.040386848
2019-10-17T07:45:00	0.2436	9.814	175.6	0.614114073	0.761072489	0.012716005	0.131188682	0.040433626
2019-10-17T07:50:00	0.2432	9.839	175.8	0.612834462	0.759183171	0.012666812	0.130681167	0.040277205
2019-10-17T07:55:00	0.2420	9.861	175.8	0.608559804	0.752881705	0.012503192	0.128993125	0.039756934
2019-10-17T08:00:00	0.2426	9.881	175.9	0.610606553	0.755896995	0.012581398	0.129799964	0.040005609
2019-10-17T08:05:00	0.2424	9.897	176.0	0.609991216	0.754990105	0.012557860	0.129557122	0.039930763
2019-10-17T08:10:00	0.2436	9.914	176.1	0.614031860	0.760951061	0.012712842	0.131156044	0.040423567
2019-10-17T08:15:00	0.2433	9.932	176.2	0.613084683	0.759552508	0.012676424	0.130780329	0.040307767
2019-10-17T08:20:00	0.2436	9.947	176.3	0.614131916	0.761098843	0.012716692	0.131195766	0.040435809
2019-10-17T08:25:00	0.2433	9.967	176.3	0.612852312	0.759209515	0.012667498	0.130688239	0.040279385
2019-10-17T08:30:00	0.2435	9.994	176.5	0.613567226	0.760264912	0.012694970	0.130971669	0.040366740
2019-10-17T08:35:00	0.2431	10.025	176.6	0.612287418	0.758375891	0.012645812	0.130464510	0.040210429
2019-10-17T08:40:00	0.2447	10.054	188.9	0.617653788	0.766305977	0.012852598	0.132597885	0.040867956
2019-10-17T08:45:00	0.2440	10.079	176.8	0.615378887	0.762941313	0.012764726	0.131691327	0.040588546
2019-10-17T08:50:00	0.2439	10.096	189.1	0.615096652	0.762524180	0.012753846	0.131579079	0.040553950
2019-10-17T08:55:00	0.2454	10.115	189.2	0.620127015	0.769968919	0.012948484	0.133587126	0.041172850
2019-10-17T09:00:00	0.2433	10.132	189.3	0.612870161	0.759235860	0.012668183	0.130695312	0.040281564
2019-10-17T09:05:00	0.2430	10.154	189.2	0.611922675	0.757837775	0.012631820	0.130320156	0.040165938
2019-10-17T09:10:00	0.2406	10.179	189.4	0.603982488	0.746151079	0.012329202	0.127198107	0.039203692
2019-10-17T09:15:00	0.2422	10.204	189.6	0.609361412	0.754062222	0.012533791	0.129308814	0.039854232
2019-10-17T09:20:00	0.2409	10.226	189.7	0.605082566	0.747767064	0.012370903	0.127628325	0.039336289
2019-10-17T09:25:00	0.2428	10.247	189.8	0.611457765	0.757152043	0.012613997	0.130136280	0.040109265
2019-10-17T09:30:00	0.2426	10.268	189.9	0.610842575	0.756244931	0.012590433	0.129893172	0.040034337
2019-10-17T09:35:00	0.2419	10.286	190.0	0.608230423	0.752396786	0.012490630	0.128863524	0.039716990
2019-10-17T09:40:00	0.2401	10.305	190.1	0.602283292	0.743656999	0.012264933	0.126535055	0.038999333
2019-10-17T09:45:00	0.2404	10.326	190.2	0.603333718	0.745198529	0.012304643	0.126944737	0.039125601
2019-10-17T09:50:00	0.2394	10.350	190.4	0.600048742	0.740380804	0.012180678	0.125665814	0.038731424
2019-10-17T09:55:00	0.2413	10.374	178.2	0.606432992	0.749752190	0.012422193	0.128157473	0.039499378
2019-10-17T10:00:00	0.2386	10.394	178.3	0.597478879	0.736618153	0.012084150	0.124669945	0.038424488
2019-10-17T10:05:00	0.2406	10.411	190.7	0.603864779	0.745978228	0.012324745	0.127152118	0.039189518
2019-10-17T10:10:00	0.2381	10.429	190.7	0.595569421	0.733826005	0.012012683	0.123932631	0.038197241
2019-10-17T10:15:00	0.2385	10.447	190.8	0.596952835	0.735848629	0.012064439	0.124466595	0.038361813
2019-10-17T10:20:00	0.2380	10.466	190.9	0.595329919	0.733476002	0.012003734	0.123840309	0.038168786
2019-10-17T10:25:00	0.2385	10.491	178.7	0.597047399	0.735986945	0.012067981	0.124503138	0.038373076
2019-10-17T10:30:00	0.2380	10.512	191.2	0.595424526	0.733614253	0.012007268	0.123876774	0.038180025
2019-10-17T10:35:00	0.2359	10.530	178.9	0.588448634	0.723440302	0.011748084	0.121202818	0.037355886
2019-10-17T10:40:00	0.2349	10.542	179.0	0.585146770	0.718638856	0.011626417	0.119947596	0.036969014
2019-10-17T10:45:00	0.2358	10.553	179.1	0.587873838	0.722603803	0.011726857	0.120983825	0.037288390
2019-10-17T10:50:00	0.2377	10.567	191.5	0.594277112	0.731938025	0.011964438	0.123434897	0.038043834
2019-10-17T10:55:00	0.2371	10.581	179.2	0.592318577	0.729079388	0.011891511	0.122682524	0.037811945
2019-10-17T11:00:00	0.2355	10.597	179.3	0.587011467	0.721349313	0.011695047	0.120655648	0.037187243
2019-10-17T11:05:00	0.2358	10.613	179.4	0.588063449	0.722879714	0.011733857	0.121056043	0.037310648
2019-10-17T11:10:00	0.2345	10.632	179.5	0.583755715	0.716618749	0.011575353	0.119420781	0.036806645
2019-10-17T11:15:00	0.2344	10.650	179.5	0.583467945	0.716201048	0.011564804	0.119311947	0.036773101
2019-10-17T11:20:00	0.2346	10.673	179.6	0.583850633	0.716756540	0.011578834	0.119456691	0.036817712
2019-10-17T11:25:00	0.2365	10.698	179.8	0.590261218	0.726079954	0.011815150	0.121894729	0.037569139
2019-10-17T11:30:00	0.2349	10.722	179.9	0.584951004	0.718354465	0.011619223	0.119873385	0.036946141
2019-10-17T11:35:00	0.2345	10.740	180.0	0.583657794	0.716476609	0.011571763	0.119383742	0.036795229
2019-10-17T11:40:00	0.2347	10.759	180.1	0.584375637	0.717518808	0.011598095	0.119655409	0.036878959
2019-10-17T11:45:00	0.2350	10.778	180.1	0.585428407	0.719048047	0.011636769	0.120054401	0.037001932
2019-10-17T11:50:00	0.2367	10.795	180.2	0.591167160	0.727400296	0.011848744	0.122241307	0.037675958
2019-10-17T11:55:00	0.2347	10.815	180.3	0.584182827	0.717238835	0.011591019	0.119582409	0.036856460
2019-10-17T12:00:00	0.2367	10.832	180.4	0.590927359	0.727050738	0.011839847	0.122149520	0.037647668
2019-10-17T12:05:00	0.2365	10.851	180.5	0.590305596	0.726144615	0.011816795	0.121911694	0.037574368
2019-10-17T12:10:00	0.2363	10.870	180.6	0.589683723	0.725238655	0.011793762	0.121674065	0.037501128
2019-10-17T12:15:00	0.2347	10.883	180.7	0.584372638	0.717514453	0.011597985	0.119654273	0.036878609
2019-10-17T12:20:00	0.2348	10.899	180.7	0.584755227	0.718070090	0.011612032	0.119799193	0.036923275
2019-10-17T12:25:00	0.2367	10.915	180.8	0.591164167	0.727395933	0.011848633	0.122240162	0.037675605
2019-10-17T12:30:00	0.2359	10.926	180.9	0.588199660	0.723077938	0.011738887	0.121107936	0.037326642
2019-10-17T12:35:00	0.2363	10.937	181.0	0.589585967	0.725096272	0.011790143	0.121636732	0.037489622
2019-10-17T12:40:00	0.2360	10.946	181.0	0.588629229	0.723703179	0.011754757	0.121271665	0.037377105
2019-10-17T12:45:00	0.2331	10.955	181.0	0.578955468	0.709660128	0.011400025	0.117611961	0.036249149
2019-10-17T12:50:00	0.2369	10.962	181.1	0.591735434	0.728228862	0.011869841	0.122458965	0.037743042
2019-10-17T12:55:00	0.2359	10.969	181.2	0.588436652	0.723422862	0.011747641	0.121198251	0.037354478
2019-10-17T13:00:00	0.2354	10.978	181.2	0.586809811	0.721056053	0.011687615	0.120578974	0.037163611
2019-10-17T13:05:00	0.2361	10.992	181.3	0.588866191	0.724048146	0.011763517	0.121362032	0.037404957
2019-10-17T13:10:00	0.2356	11.010	181.4	0.587239549	0.721681044	0.011703456	0.120742401	0.037213981
2019-10-17T13:15:00	0.2356	11.027	181.5	0.587286962	0.721750007	0.011705205	0.120760439	0.037219540
2019-10-17T13:20:00	0.2347	11.038	181.5	0.584319188	0.717436838	0.011596023	0.119634035	0.036872371
2019-10-17T13:25:00	0.2334	11.043	181.5	0.580006861	0.711182630	0.011438310	0.118006938	0.036370884
2019-10-17T13:30:00	0.2330	11.046	181.6	0.578711829	0.709307449	0.011391163	0.117520529	0.036220969
2019-10-17T13:35:00	0.2333	11.051	181.6	0.579766298	0.710834194	0.011429545	0.117916506	0.036343012
2019-10-17T13:40:00	0.2325	11.058	181.6	0.576792162	0.706530368	0.011321458	0.116801399	0.035999326
2019-10-17T13:45:00	0.2334	11.064	181.7	0.579861324	0.710971826	0.011433007	0.117952223	0.036354021
2019-10-17T13:50:00	0.2318	11.070	181.7	0.574535361	0.703269478	0.011239791	0.115958856	0.035739646
2019-10-17T13:55:00	0.2323	11.075	181.7	0.576263018	0.705765419	0.011302283	0.116603572	0.035938353
2019-10-17T14:00:00	0.2334	11.078	181.8	0.580003858	0.711178281	0.011438201	0.118005809	0.036370536
2019-10-17T14:05:00	0.2354	11.080	181.8	0.586756398	0.720978383	0.011685647	0.120558669	0.037157353
2019-10-17T14:10:00	0.2338	11.082	181.8	0.581440889	0.713260701	0.011490634	0.118546751	0.036537260
2019-10-17T14:15:00	0.2355	11.085	181.8	0.586851236	0.721116293	0.011689142	0.120594722	0.037168465
2019-10-17T14:20:00	0.2342	11.086	181.8	0.582542015	0.714857517	0.011530894	0.118962104	0.036665276
2019-10-17T14:25:00	0.2347	11.087	181.8	0.584265737	0.717359223	0.011594062	0.119613797	0.036866134
2019-10-17T14:30:00	0.2352	11.088	181.9	0.585988615	0.719862173	0.011657375	0.120266992	0.037067455
2019-10-17T14:35:00	0.2345	11.092	194.4	0.583690257	0.716523732	0.011572953	0.119396021	0.036799013
2019-10-17T14:40:00	0.2353	11.094	181.9	0.586418453	0.720487015	0.011673199	0.120430241	0.037117770
2019-10-17T14:45:00	0.2367	11.093	181.9	0.591152194	0.727378479	0.011848189	0.122235578	0.037674192
2019-10-17T14:50:00	0.2356	11.091	181.9	0.587183146	0.721599005	0.011701377	0.120720945	0.037207368
2019-10-17T14:55:00	0.2355	11.092	181.9	0.586895657	0.721180891	0.011690779	0.120611611	0.037173670
2019-10-17T15:00:00	0.2355	11.097	194.5	0.586943074	0.721249848	0.011692527	0.120629641	0.037179227
2019-10-17T15:05:00	0.2360	11.101	181.9	0.588664642	0.723754729	0.011756066	0.121285168	0.037381267
2019-10-17T15:10:00	0.2354	11.103	182.0	0.586702985	0.720900714	0.011683679	0.120538366	0.037151095
2019-10-17T15:15:00	0.2347	11.105	194.5	0.584405094	0.717561585	0.011599176	0.119666564	0.036882397
2019-10-17T15:20:00	0.2362	11.109	182.0	0.589476230	0.724936447	0.011786082	0.121594831	0.037476708
2019-10-17T15:25:00	0.2347	11.110	182.0	0.584164832	0.717212707	0.011590359	0.119575598	0.036854360
2019-10-17T15:30:00	0.2342	11.112	182.0	0.582536014	0.714848811	0.011530674	0.118959838	0.036664577
2019-10-17T15:35:00	0.2350	11.114	182.1	0.585265105	0.718810777	0.011630766	0.119992466	0.036982843
2019-10-17T15:40:00	0.2351	11.117	194.7	0.585647598	0.719366557	0.011644829	0.120137558	0.037027562
2019-10-17T15:45:00	0.2346	11.118	182.1	0.584019467	0.717001650	0.011585026	0.119520578	0.036837403
2019-10-17T15:50:00	0.2352	11.118	182.1	0.586077478	0.719991338	0.011660646	0.120300733	0.037077854
2019-10-17T15:55:00	0.2365	11.116	194.7	0.590477114	0.726394545	0.011823152	0.121977277	0.037594581
2019-10-17T16:00:00	0.2359	11.113	194.6	0.588181686	0.723051780	0.011738223	0.121101088	0.037324531
2019-10-17T16:05:00	0.2362	11.110	194.7	0.589277710	0.724647340	0.011778736	0.121519048	0.037453351
2019-10-17T16:10:00	0.2369	11.106	182.1	0.591711493	0.728193949	0.011868952	0.122449791	0.037740215
2019-10-17T16:15:00	0.2378	11.102	182.1	0.594811995	0.732719285	0.011984394	0.123640783	0.038107290
2019-10-17T16:20:00	0.2350	11.095	182.0	0.585199676	0.718715718	0.011628361	0.119967656	0.036975197
2019-10-17T16:25:00	0.2363	11.087	194.6	0.589644795	0.725181955	0.011792321	0.121659197	0.037496546
2019-10-17T16:30:00	0.2377	11.078	194.5	0.594418534	0.732144565	0.011969712	0.123489315	0.038060606
2019-10-17T16:35:00	0.2375	11.068	181.9	0.593841720	0.731302258	0.011948206	0.123267436	0.037992221
2019-10-17T16:40:00	0.2372	11.056	194.4	0.592596119	0.729484287	0.011901831	0.122788998	0.037844762
2019-10-17T16:45:00	0.2370	11.044	181.9	0.592019006	0.728642422	0.011880376	0.122567651	0.037776541
2019-10-17T16:50:00	0.2376	11.029	181.8	0.594116681	0.731703742	0.011958455	0.123373178	0.038024812
2019-10-17T16:55:00	0.2387	11.016	181.7	0.597548997	0.736720743	0.012086778	0.124697063	0.038432846
2019-10-17T17:00:00	0.2387	11.001	181.7	0.597640557	0.736854710	0.012090211	0.124732478	0.038443761
2019-10-17T17:05:00	0.2379	10.985	181.6	0.595059972	0.733081566	0.011993652	0.123736294	0.038136727
2019-10-17T17:10:00	0.2403	10.970	181.5	0.603161765	0.744946120	0.012298138	0.126877626	0.039104916
2019-10-17T17:15:00	0.2401	10.955	181.4	0.602252926	0.743612449	0.012263786	0.126523222	0.038995686
2019-10-17T17:20:00	0.2401	10.940	181.4	0.602344364	0.743746598	0.012267240	0.126558855	0.039006668
2019-10-17T17:25:00	0.2406	10.923	181.3	0.604102647	0.746327540	0.012333754	0.127245062	0.039218164
2019-10-17T17:30:00	0.2411	10.906	181.2	0.605860057	0.748909790	0.012400419	0.127932838	0.039430143
2019-10-17T17:35:00	0.2417	10.887	181.1	0.607616597	0.751493347	0.012467237	0.128622181	0.039642605
2019-10-17T17:40:00	0.2402	10.870	181.1	0.602710094	0.744283231	0.012281060	0.126701432	0.039050612
2019-10-17T17:45:00	0.2392	10.851	181.0	0.599465815	0.739526830	0.012158748	0.125439562	0.038661691
2019-10-17T17:50:00	0.2402	10.830	180.9	0.602559524	0.744062287	0.012275369	0.126642723	0.039032517
2019-10-17T17:55:00	0.2405	10.810	180.7	0.603651096	0.745664471	0.012316654	0.127068653	0.039163793
2019-10-17T18:00:00	0.2401	10.790	180.7	0.602408948	0.743841353	0.012269680	0.126584027	0.039014426
2019-10-17T18:05:00	0.2384	10.772	180.6	0.596827326	0.735665063	0.012059739	0.124418103	0.038346868
2019-10-17T18:10:00	0.2404	10.751	180.5	0.603258617	0.745088285	0.012301802	0.126915424	0.039116566
2019-10-17T18:15:00	0.2405	10.735	180.4	0.603683375	0.745711866	0.012317876	0.127081259	0.039167678
2019-10-17T18:20:00	0.2408	10.717	180.4	0.604774601	0.747314570	0.012359222	0.127507811	0.039299146
2019-10-17T18:25:00	0.2408	10.699	180.3	0.604532739	0.746959257	0.012350052	0.127413206	0.039269987
2019-10-17T18:30:00	0.2411	10.683	180.2	0.605623704	0.748562353	0.012391443	0.127840228	0.039401600
2019-10-17T18:35:00	0.2419	10.665	180.1	0.608379168	0.752615760	0.012496302	0.128922042	0.039735026
2019-10-17T18:40:00	0.2416	10.650	180.1	0.607471666	0.751280082	0.012461717	0.128565232	0.039625053
2019-10-17T18:45:00	0.2407	10.632	180.0	0.604231748	0.746517147	0.012338645	0.127295522	0.039233716
2019-10-17T18:50:00	0.2422	10.614	179.8	0.609318667	0.753999258	0.012532159	0.129291970	0.039849041
2019-10-17T18:55:00	0.2421	10.598	179.8	0.609077115	0.753643480	0.012522935	0.129196807	0.039819711
2019-10-17T19:00:00	0.2409	10.581	179.7	0.605172346	0.747898993	0.012374309	0.127663470	0.039347121
2019-10-17T19:05:00	0.2408	10.561	179.6	0.604597283	0.747054071	0.012352498	0.127438449	0.039277768
2019-10-17T19:10:00	0.2415	10.540	179.5	0.607020544	0.750616369	0.012444542	0.128388050	0.039570444
2019-10-17T19:15:00	0.2416	10.521	179.4	0.607444852	0.751240626	0.012460695	0.128554697	0.039621806
2019-10-17T19:20:00	0.2404	10.501	179.3	0.603204924	0.745009470	0.012299771	0.126894468	0.039110108
2019-10-17T19:25:00	0.2398	10.481	179.2	0.601295572	0.742208333	0.012227654	0.126150451	0.038880794
2019-10-17T19:30:00	0.2413	10.463	179.1	0.606386703	0.749684120	0.012420433	0.128139317	0.039493782
2019-10-17T19:35:00	0.2416	10.448	179.0	0.607477097	0.751288073	0.012461923	0.128567366	0.039625711
2019-10-17T19:40:00	0.2418	10.434	191.4	0.607901350	0.751912412	0.012478086	0.128734111	0.039677103
2019-10-17T19:45:00	0.2418	10.421	178.9	0.607992643	0.752046780	0.012481565	0.128770007	0.039688167
2019-10-17T19:50:00	0.2425	10.411	178.9	0.610413587	0.755612564	0.012574014	0.129723785	0.039982130
2019-10-17T19:55:00	0.2420	10.403	178.9	0.608840975	0.753295721	0.012513920	0.129103811	0.039791048
2019-10-17T20:00:00	0.2430	10.392	178.8	0.611926517	0.757843443	0.012631967	0.130321676	0.040166406
2019-10-17T20:05:00	0.2414	10.382	191.1	0.606692944	0.750134495	0.012432078	0.128259461	0.039530812
2019-10-17T20:10:00	0.2434	10.371	178.7	0.613438802	0.760075295	0.012690033	0.130920732	0.040351041
2019-10-17T20:15:00	0.2439	10.360	178.6	0.614859331	0.762173481	0.012744701	0.131484732	0.040524871
2019-10-17T20:20:00	0.2448	10.351	178.6	0.617939656	0.766729095	0.012863662	0.132712032	0.040903137
2019-10-17T20:25:00	0.2451	10.341	190.7	0.619026511	0.768338395	0.012905773	0.133146477	0.041037037
2019-10-17T20:30:00	0.2447	10.332	190.8	0.617789730	0.766507179	0.012857859	0.132652161	0.040884684
2019-10-17T20:35:00	0.2440	10.324	178.5	0.615223773	0.762712052	0.012758746	0.131629630	0.040569530
2019-10-17T20:40:00	0.2423	10.316	178.4	0.609662307	0.754505486	0.012545287	0.129427415	0.039890786
2019-10-17T20:45:00	0.2444	10.304	178.4	0.616734658	0.764946025	0.012817058	0.132231221	0.040754946
2019-10-17T20:50:00	0.2434	10.293	178.3	0.613503184	0.760170352	0.012692508	0.130946266	0.040358911
2019-10-17T20:55:00	0.2445	10.281	178.2	0.616916788	0.765215449	0.012824096	0.132303835	0.040777327
2019-10-17T21:00:00	0.2452	10.268	190.4	0.619331665	0.768790413	0.012917609	0.133268587	0.041074673
2019-10-17T21:05:00	0.2437	10.255	190.4	0.614441329	0.761555896	0.012728602	0.131318640	0.040473680
2019-10-17T21:10:00	0.2426	10.242	178.1	0.610542458	0.755802516	0.012578945	0.129774658	0.039997810
2019-10-17T21:15:00	0.2447	10.228	190.2	0.617613060	0.766245702	0.012851022	0.132581627	0.040862945
2019-10-17T21:20:00	0.2450	10.216	177.9	0.618700016	0.767854851	0.012893115	0.133015891	0.040996790
2019-10-17T21:25:00	0.2437	10.206	177.9	0.614473511	0.761603438	0.012729841	0.131331424	0.040477620
2019-10-17T21:30:00	0.2444	10.196	190.0	0.616557936	0.764684627	0.012810230	0.132160782	0.040733237
2019-10-17T21:35:00	0.2445	10.187	190.0	0.616981107	0.765310603	0.012826582	0.132329484	0.040785232
2019-10-17T21:40:00	0.2426	10.180	190.1	0.610757121	0.756118951	0.012587161	0.129859421	0.040023935
2019-10-17T21:45:00	0.2429	10.173	190.1	0.611846173	0.757724925	0.012628886	0.130289890	0.040156609
2019-10-17T21:50:00	0.2406	10.166	189.9	0.603947040	0.746099024	0.012327860	0.127184256	0.039199423
2019-10-17T21:55:00	0.2401	10.162	189.9	0.602371557	0.743786495	0.012268267	0.126569454	0.039009935
2019-10-17T22:00:00	0.2406	10.156	189.9	0.604129827	0.746367457	0.012334783	0.127255685	0.039221438
2019-10-17T22:05:00	0.2406	10.152	177.6	0.604079657	0.746293777	0.012332883	0.127236078	0.039215395
2019-10-17T22:10:00	0.2407	10.147	189.8	0.604362770	0.746709588	0.012343609	0.127346743	0.039249503
2019-10-17T22:15:00	0.2408	10.142	189.8	0.604645859	0.747125432	0.012354340	0.127457449	0.039283624
2019-10-17T22:20:00	0.2412	10.138	189.8	0.605928425	0.749010298	0.012403016	0.127959633	0.039438402
2019-10-17T22:25:00	0.2407	10.133	177.6	0.604212270	0.746488539	0.012337907	0.127287908	0.039231370
2019-10-17T22:30:00	0.2409	10.130	177.6	0.605161817	0.747883521	0.012373910	0.127659348	0.039345851
2019-10-17T22:35:00	0.2389	10.127	189.8	0.598441464	0.738026869	0.012120260	0.125042487	0.038539309
2019-10-17T22:40:00	0.2381	10.125	177.5	0.595719570	0.734045453	0.012018294	0.123990528	0.038215085
2019-10-17T22:45:00	0.2380	10.121	189.7	0.595335179	0.733483689	0.012003930	0.123842336	0.038169411
2019-10-17T22:50:00	0.2398	10.120	189.7	0.601293985	0.742206006	0.012227594	0.126149834	0.038880604
2019-10-17T22:55:00	0.2392	10.120	189.7	0.599241848	0.739198801	0.012150328	0.125352689	0.038634916
2019-10-17T23:00:00	0.2405	10.120	189.7	0.603861079	0.745972795	0.012324604	0.127150672	0.039189072
2019-10-17T23:05:00	0.2395	10.120	189.7	0.600476153	0.741007131	0.012196771	0.125831839	0.038782595
2019-10-17T23:10:00	0.2403	10.120	189.7	0.603094024	0.744846689	0.012295576	0.126851192	0.039096769
2019-10-17T23:15:00	0.2398	10.121	189.7	0.601376494	0.742326990	0.012230706	0.126181939	0.038890499
2019-10-17T23:20:00	0.2411	10.123	189.7	0.605659814	0.748615432	0.012392814	0.127854375	0.039405960
2019-10-17T23:25:00	0.2393	10.124	189.7	0.599607899	0.739734953	0.012164092	0.125494690	0.038678682
2019-10-17T23:30:00	0.2404	10.127	189.7	0.603226673	0.745041395	0.012300594	0.126902956	0.039112724
2019-10-17T23:35:00	0.2417	10.130	189.7	0.607840714	0.751823169	0.012475775	0.128710272	0.039669756
2019-10-17T23:40:00	0.2403	10.133	177.5	0.603126309	0.744894076	0.012296797	0.126863790	0.039100652
2019-10-17T23:45:00	0.2393	10.137	189.7	0.599740679	0.739929464	0.012169086	0.125546219	0.038694564
2019-10-17T23:50:00	0.2397	10.140	189.7	0.601025022	0.741811667	0.012217453	0.126045208	0.038848357
2019-10-17T23:55:00	0.2393	10.144	189.8	0.599640215	0.739782293	0.012165307	0.125507230	0.038682547
2019-10-18T00:00:00	0.2404	10.147	189.8	0.603258957	0.745088784	0.012301815	0.126915556	0.039116607
2019-10-18T00:05:00	0.2407	10.151	177.7	0.604208759	0.746483383	0.012337774	0.127286536	0.039230947
2019-10-18T00:10:00	0.2398	10.154	189.9	0.601491302	0.742495341	0.012235037	0.126226618	0.038904270
2019-10-18T00:15:00	0.2396	10.159	189.9	0.600773949	0.741443612	0.012207990	0.125947582	0.038818268
2019-10-18T00:20:00	0.2395	10.164	189.9	0.600390108	0.740881028	0.012193530	0.125798406	0.038772290
2019-10-18T00:25:00	0.2390	10.168	189.9	0.598671265	0.738363292	0.012128889	0.125131510	0.038566747
2019-10-18T00:30:00	0.2394	10.174	190.0	0.599955997	0.740244916	0.012177188	0.125629803	0.038720325
2019-10-18T00:35:00	0.2378	10.178	177.8	0.594562752	0.732355205	0.011975093	0.123544823	0.038077714
2019-10-18T00:40:00	0.2370	10.183	190.0	0.592172299	0.728866011	0.011886073	0.122626425	0.037794655
2019-10-18T00:45:00	0.2397	10.188	177.8	0.601139841	0.741980001	0.012221782	0.126089867	0.038862122
2019-10-18T00:50:00	0.2389	10.193	190.0	0.598420025	0.737995486	0.012119455	0.125034184	0.038536750
2019-10-18T00:55:00	0.2382	10.198	177.9	0.596032183	0.734502410	0.012029983	0.124111115	0.038252251
2019-10-18T01:00:00	0.2389	10.203	177.9	0.598319524	0.737848371	0.012115682	0.124995262	0.038524754
2019-10-18T01:05:00	0.2378	10.208	177.9	0.594595114	0.732402476	0.011976300	0.123557280	0.038081554
2019-10-18T01:10:00	0.2370	10.213	190.1	0.591870253	0.728425473	0.011874849	0.122510632	0.037758966
2019-10-18T01:15:00	0.2355	10.218	190.2	0.587134481	0.721528223	0.011699582	0.120702434	0.037201662
2019-10-18T01:20:00	0.2366	10.222	190.2	0.590766055	0.726815632	0.011833864	0.122087798	0.037628645
2019-10-18T01:25:00	0.2350	10.228	190.2	0.585358730	0.718946808	0.011634207	0.120027973	0.036993787
2019-10-18T01:30:00	0.2363	10.231	190.3	0.589661511	0.725206303	0.011792939	0.121665581	0.037498514
2019-10-18T01:35:00	0.2343	10.236	190.3	0.582911550	0.715393630	0.011544421	0.119101662	0.036708289
2019-10-18T01:40:00	0.2349	10.241	190.3	0.584872323	0.718240173	0.011616333	0.119843565	0.036936951
2019-10-18T01:45:00	0.2363	10.245	178.1	0.589510384	0.724986188	0.011787346	0.121607871	0.037480727
2019-10-18T01:50:00	0.2374	10.249	178.1	0.593473822	0.730765172	0.011934499	0.123126026	0.037948637
2019-10-18T01:55:00	0.2369	10.254	178.1	0.591751610	0.728252451	0.011870442	0.122465163	0.037744953
2019-10-18T02:00:00	0.2373	10.258	190.4	0.593038860	0.730130326	0.011918304	0.122958947	0.037897142
2019-10-18T02:05:00	0.2363	10.263	190.4	0.589643544	0.725180133	0.011792274	0.121658720	0.037496399
2019-10-18T02:10:00	0.2370	10.267	178.1	0.591935028	0.728519942	0.011877256	0.122535459	0.037766619
2019-10-18T02:15:00	0.2382	10.272	178.2	0.595895745	0.734302963	0.012024881	0.124058478	0.038236028
2019-10-18T02:20:00	0.2392	10.277	190.4	0.599518317	0.739603734	0.012160722	0.125459931	0.038667969
2019-10-18T02:25:00	0.2387	10.280	190.4	0.597799051	0.737086630	0.012096154	0.124793795	0.038462660
2019-10-18T02:30:00	0.2397	10.284	178.2	0.601086116	0.741901234	0.012219756	0.126068970	0.038855681
2019-10-18T02:35:00	0.2378	10.288	178.2	0.594692201	0.732544291	0.011979923	0.123594657	0.038093074
2019-10-18T02:40:00	0.2388	10.292	178.2	0.597982156	0.737354588	0.012103023	0.124864653	0.038484499
2019-10-18T02:45:00	0.2383	10.295	190.5	0.596262142	0.734838599	0.012038585	0.124199857	0.038279602
2019-10-18T02:50:00	0.2389	10.298	190.6	0.598215504	0.737696114	0.012111778	0.124954984	0.038512340
2019-10-18T02:55:00	0.2392	10.302	190.6	0.599500401	0.739577490	0.012160049	0.125452980	0.038665827
2019-10-18T03:00:00	0.2373	10.305	178.4	0.593103614	0.730224826	0.011920714	0.122983813	0.037904806
2019-10-18T03:05:00	0.2392	10.308	178.3	0.599399931	0.739430329	0.012156271	0.125414003	0.038653814
2019-10-18T03:10:00	0.2389	10.310	178.4	0.598348336	0.737890546	0.012116764	0.125006420	0.038528193
2019-10-18T03:15:00	0.2393	10.314	190.7	0.599633185	0.739771994	0.012165043	0.125504502	0.038681706
2019-10-18T03:20:00	0.2392	10.315	190.7	0.599249220	0.739209596	0.012150605	0.125355548	0.038635797
2019-10-18T03:25:00	0.2375	10.318	190.8	0.593520621	0.730833486	0.011936242	0.123144010	0.037954180
2019-10-18T03:30:00	0.2385	10.321	178.4	0.597145628	0.736130631	0.012071661	0.124541103	0.038384777
2019-10-18T03:35:00	0.2358	10.324	190.7	0.588067128	0.722885067	0.011733993	0.121057444	0.037311080
2019-10-18T03:40:00	0.2363	10.326	190.7	0.589690394	0.725248372	0.011794009	0.121676612	0.037501914
2019-10-18T03:45:00	0.2362	10.329	178.4	0.589305345	0.724687583	0.011779758	0.121529596	0.037456602
2019-10-18T03:50:00	0.2362	10.331	190.7	0.589254965	0.724614218	0.011777895	0.121510366	0.037450675
2019-10-18T03:55:00	0.2358	10.332	190.8	0.587865532	0.722591718	0.011726551	0.120980662	0.037287415
2019-10-18T04:00:00	0.2376	10.334	178.5	0.594171193	0.731783346	0.011960488	0.123394148	0.038031275
2019-10-18T04:05:00	0.2382	10.337	190.8	0.596119734	0.734630400	0.012033257	0.124144898	0.038262663
2019-10-18T04:10:00	0.2377	10.339	190.8	0.594392832	0.732107027	0.011968754	0.123479424	0.038057558
2019-10-18T04:15:00	0.2360	10.341	190.8	0.588650348	0.723733921	0.011755538	0.121279718	0.037379587
2019-10-18T04:20:00	0.2367	10.343	178.5	0.590936490	0.727064048	0.011840186	0.122153014	0.037648745
2019-10-18T04:25:00	0.2374	10.345	190.8	0.593221152	0.730396369	0.011925090	0.123028955	0.037918719
2019-10-18T04:30:00	0.2370	10.347	190.7	0.592161731	0.728850597	0.011885680	0.122622373	0.037793406
2019-10-18T04:35:00	0.2367	10.349	190.8	0.591101992	0.727305296	0.011846326	0.122216360	0.037668269
2019-10-18T04:40:00	0.2369	10.351	178.5	0.591714637	0.728198534	0.011869069	0.122450996	0.037740586
2019-10-18T04:45:00	0.2368	10.353	190.8	0.591323823	0.727628691	0.011854558	0.122301292	0.037694446
2019-10-18T04:50:00	0.2375	10.354	190.8	0.593608234	0.730961384	0.011939506	0.123177681	0.037964558
2019-10-18T04:55:00	0.2388	10.355	190.8	0.597894991	0.737227027	0.012099753	0.124830920	0.038474102
2019-10-18T05:00:00	0.2390	10.357	178.5	0.598840261	0.738610725	0.012135237	0.125196998	0.038586931
2019-10-18T05:05:00	0.2408	10.359	178.5	0.604787207	0.747333090	0.012359700	0.127512743	0.039300666
2019-10-18T05:10:00	0.2407	10.359	178.5	0.604397836	0.746761095	0.012344938	0.127360453	0.039253729
2019-10-18T05:15:00	0.2424	10.360	190.8	0.610002749	0.755007098	0.012558301	0.129561671	0.039932165
2019-10-18T05:20:00	0.2413	10.361	190.8	0.606284655	0.749534060	0.012416554	0.128099294	0.039481446
2019-10-18T05:25:00	0.2450	10.363	178.6	0.618531587	0.767605441	0.012886588	0.132948552	0.040976035
2019-10-18T05:30:00	0.2445	10.364	178.6	0.617147653	0.765557007	0.012833021	0.132395910	0.040805705
2019-10-18T05:35:00	0.2431	10.365	178.6	0.612439647	0.758600512	0.012651654	0.130524782	0.040229005
2019-10-18T05:40:00	0.2442	10.366	190.9	0.616039418	0.763917814	0.012790208	0.131954220	0.040669572
2019-10-18T05:45:00	0.2434	10.367	178.4	0.613325059	0.759907363	0.012685661	0.130875626	0.040337139
2019-10-18T05:50:00	0.2447	10.368	178.6	0.617588052	0.766208691	0.012850055	0.132571644	0.040859868
2019-10-18T05:55:00	0.2453	10.370	178.6	0.619523772	0.769075019	0.012925063	0.133345491	0.041098375
2019-10-18T06:00:00	0.2449	10.374	190.9	0.618472184	0.767517482	0.012884286	0.132924806	0.040968716
2019-10-18T06:05:00	0.2463	10.376	178.7	0.623060558	0.774320291	0.013062695	0.134765417	0.041536010
2019-10-18T06:10:00	0.2476	10.379	178.7	0.627311930	0.780639311	0.013229134	0.136482539	0.042065244
2019-10-18T06:15:00	0.2452	10.381	178.7	0.619300203	0.768743806	0.012916388	0.133255995	0.041070792
2019-10-18T06:20:00	0.2448	10.383	178.7	0.617916567	0.766694919	0.012862768	0.132702811	0.040900295
2019-10-18T06:25:00	0.2444	10.384	178.7	0.616532394	0.764646849	0.012809243	0.132150603	0.040730099
2019-10-18T06:30:00	0.2465	10.386	190.9	0.623775866	0.775382420	0.013090623	0.135053541	0.041624813
2019-10-18T06:35:00	0.2480	10.386	178.7	0.628688442	0.782688559	0.013283258	0.137040925	0.042237344
2019-10-18T06:40:00	0.2471	10.388	178.7	0.625652437	0.778170910	0.013164036	0.135810932	0.041858248
2019-10-18T06:45:00	0.2500	10.392	191.0	0.635190965	0.792390713	0.013540485	0.139694690	0.043055260
2019-10-18T06:50:00	0.2483	10.398	178.8	0.629514094	0.783918499	0.013315777	0.137376421	0.042340747
2019-10-18T06:55:00	0.2487	10.405	178.8	0.630781816	0.785808091	0.013365788	0.137892375	0.042499769
2019-10-18T07:00:00	0.2479	10.411	178.8	0.628409695	0.782273453	0.013272289	0.136927755	0.042202464
2019-10-18T07:05:00	0.2470	10.418	178.8	0.625373453	0.777756166	0.013153108	0.135698195	0.041823501
2019-10-18T07:10:00	0.2473	10.422	178.8	0.626311442	0.779150864	0.013189867	0.136077430	0.041940386
2019-10-18T07:15:00	0.2480	10.427	178.8	0.628573459	0.782517320	0.013278733	0.136994237	0.042222954
2019-10-18T07:20:00	0.2488	10.434	178.9	0.631164828	0.786379255	0.013380917	0.138048456	0.042547875
2019-10-18T07:25:00	0.2479	10.444	191.2	0.628130926	0.781858379	0.013261323	0.136814625	0.042167596
2019-10-18T07:30:00	0.2475	10.452	191.3	0.627081872	0.780296974	0.013220100	0.136389331	0.042036516
2019-10-18T07:35:00	0.2461	10.458	191.3	0.622386981	0.773320522	0.013036425	0.134494393	0.041452478
2019-10-18T07:40:00	0.2476	10.467	179.0	0.627301466	0.780623740	0.013228723	0.136478299	0.042063937
2019-10-18T07:45:00	0.2487	10.476	179.0	0.630886274	0.785963852	0.013369914	0.137934934	0.042512886
2019-10-18T07:50:00	0.2480	10.486	191.4	0.628514223	0.782429107	0.013276402	0.136970187	0.042215542
2019-10-18T07:55:00	0.2480	10.496	191.4	0.628458472	0.782346087	0.013274208	0.136947555	0.042208567
2019-10-18T08:00:00	0.2480	10.507	179.2	0.628733729	0.782756007	0.013285041	0.137059316	0.042243012
2019-10-18T08:05:00	0.2496	10.517	179.2	0.633970026	0.790566267	0.013491992	0.139194393	0.042901064
2019-10-18T08:10:00	0.2499	10.528	179.3	0.634905764	0.791964424	0.013529149	0.139577741	0.043019215
2019-10-18T08:15:00	0.2496	10.540	191.7	0.633858694	0.790399968	0.013487574	0.139148820	0.042887018
2019-10-18T08:20:00	0.2496	10.555	191.7	0.633803027	0.790316820	0.013485366	0.139126035	0.042879995
2019-10-18T08:25:00	0.2492	10.573	179.4	0.632424999	0.788259350	0.013430756	0.138562634	0.042706349
2019-10-18T08:30:00	0.2497	10.590	179.5	0.634352697	0.791137956	0.013507181	0.139351098	0.042949362
2019-10-18T08:35:00	0.2502	10.608	179.6	0.635949048	0.793524149	0.013570640	0.140005794	0.043151145
2019-10-18T08:40:00	0.2497	10.624	179.7	0.634241377	0.790971638	0.013502762	0.139305502	0.042935309
2019-10-18T08:45:00	0.2507	10.639	179.8	0.637489078	0.795828204	0.013632007	0.140638903	0.043346276
2019-10-18T08:50:00	0.2516	10.655	179.8	0.640403941	0.800194668	0.013748552	0.141841276	0.043716859
2019-10-18T08:55:00	0.2500	10.673	179.9	0.635065750	0.792203547	0.013535508	0.139643338	0.043039433
2019-10-18T09:00:00	0.2495	10.690	180.0	0.633688208	0.790145328	0.013480811	0.139079047	0.042865513
2019-10-18T09:05:00	0.2490	10.711	180.1	0.631979459	0.787594480	0.013413124	0.138380730	0.042650285
2019-10-18T09:10:00	0.2502	10.733	180.2	0.635889934	0.793435748	0.013568288	0.139981521	0.043143664
2019-10-18T09:15:00	0.2496	10.759	180.3	0.633851731	0.790389567	0.013487298	0.139145970	0.042886139
2019-10-18T09:20:00	0.2502	10.784	180.4	0.635778662	0.793269356	0.013563860	0.139935839	0.043129585
2019-10-18T09:25:00	0.2506	10.805	180.5	0.637044168	0.795162362	0.013614264	0.140455847	0.043289856
2019-10-18T09:30:00	0.2499	10.837	180.7	0.635006622	0.792115168	0.013533158	0.139619093	0.043031960
2019-10-18T09:35:00	0.2481	10.879	180.9	0.628998505	0.783150381	0.013295465	0.137166867	0.042276160
2019-10-18T09:40:00	0.2496	10.928	181.1	0.633903916	0.790467516	0.013489369	0.139167330	0.042892723
2019-10-18T09:45:00	0.2516	10.972	181.3	0.640452556	0.800267554	0.013750500	0.141861374	0.043723053
2019-10-18T09:50:00	0.2498	11.014	181.5	0.634453571	0.791288676	0.013511187	0.139392421	0.042962098
2019-10-18T09:55:00	0.2512	11.046	181.7	0.639021495	0.798122864	0.013693213	0.141270357	0.043540896
2019-10-18T10:00:00	0.2514	11.068	181.8	0.639955916	0.799523057	0.013730605	0.141656121	0.043659792
2019-10-18T10:05:00	0.2533	11.089	194.4	0.646219642	0.808928160	0.013982625	0.144256161	0.044461150
2019-10-18T10:10:00	0.2512	11.112	194.6	0.639295941	0.798534034	0.013704190	0.141383602	0.043575799
2019-10-18T10:15:00	0.2511	11.135	194.6	0.638965908	0.798039593	0.013690991	0.141247426	0.043533828
2019-10-18T10:20:00	0.2512	11.158	194.8	0.639295941	0.798534034	0.013704190	0.141383602	0.043575799
2019-10-18T10:25:00	0.2493	11.181	195.0	0.633020114	0.789147691	0.013454326	0.138805799	0.042781295
2019-10-18T10:30:00	0.2490	11.203	195.1	0.632028188	0.787667189	0.013415052	0.138400619	0.042656415
2019-10-18T10:35:00	0.2486	11.232	195.2	0.630705193	0.785693844	0.013362763	0.137861162	0.042490149
2019-10-18T10:40:00	0.2474	11.258	195.3	0.626733269	0.779778322	0.013206416	0.136248157	0.041993005
2019-10-18T10:45:00	0.2452	11.296	195.6	0.619439917	0.768950784	0.012921809	0.133311919	0.041088028
2019-10-18T10:50:00	0.2441	11.339	195.8	0.615787637	0.763545548	0.012780492	0.131853978	0.040638677
2019-10-18T10:55:00	0.2462	11.374	196.0	0.622756925	0.773869571	0.013050850	0.134643211	0.041498345
2019-10-18T11:00:00	0.2465	11.402	196.2	0.623751427	0.775346124	0.013089668	0.135043691	0.041621777
2019-10-18T11:05:00	0.2459	11.438	196.3	0.621762147	0.772393441	0.013012080	0.134243235	0.041375069
2019-10-18T11:10:00	0.2471	11.476	196.5	0.625739599	0.778300500	0.013167451	0.135846164	0.041869107
2019-10-18T11:15:00	0.2446	11.515	196.8	0.617448228	0.766001768	0.012844645	0.132515837	0.040842668
2019-10-18T11:20:00	0.2460	11.543	196.9	0.622093770	0.772885437	0.013024998	0.134376504	0.041416144
2019-10-18T11:25:00	0.2460	11.561	197.0	0.622093770	0.772885437	0.013024998	0.134376504	0.041416144
2019-10-18T11:30:00	0.2433	11.571	184.4	0.613129077	0.759618041	0.012678130	0.130797926	0.040313191
2019-10-18T11:35:00	0.2432	11.576	197.2	0.612796617	0.759127314	0.012665359	0.130666172	0.040272583
2019-10-18T11:40:00	0.2433	11.583	197.2	0.613129077	0.759618041	0.012678130	0.130797926	0.040313191
2019-10-18T11:45:00	0.2433	11.584	197.2	0.613129077	0.759618041	0.012678130	0.130797926	0.040313191
2019-10-18T11:50:00	0.2405	11.588	184.5	0.603808415	0.745895463	0.012322610	0.127130099	0.039182731
2019-10-18T11:55:00	0.2405	11.593	197.3	0.603808415	0.745895463	0.012322610	0.127130099	0.039182731
2019-10-18T12:00:00	0.2412	11.601	197.3	0.606140877	0.749322652	0.012411089	0.128042916	0.039464070
2019-10-18T12:05:00	0.2411	11.607	197.4	0.605807762	0.748832912	0.012398433	0.127912344	0.039423827
2019-10-18T12:10:00	0.2390	11.612	197.5	0.598805101	0.738559245	0.012133916	0.125183372	0.038582731
2019-10-18T12:15:00	0.2380	11.620	197.5	0.595465622	0.733674310	0.012008804	0.123892615	0.038184907
2019-10-18T12:20:00	0.2408	11.637	197.6	0.604808229	0.747363976	0.012360497	0.127520968	0.039303201
2019-10-18T12:25:00	0.2389	11.657	184.9	0.598471295	0.738070540	0.012121380	0.125054042	0.038542870
2019-10-18T12:30:00	0.2380	11.675	197.8	0.595465622	0.733674310	0.012008804	0.123892615	0.038184907
2019-10-18T12:35:00	0.2371	11.695	185.1	0.592457389	0.729281889	0.011896672	0.122735771	0.037828357
2019-10-18T12:40:00	0.2365	11.712	185.2	0.590450474	0.726355724	0.011822164	0.121967089	0.037591441
2019-10-18T12:45:00	0.2370	11.731	185.3	0.592122982	0.728794077	0.011884240	0.122607515	0.037788827
2019-10-18T12:50:00	0.2380	11.750	185.4	0.595465622	0.733674310	0.012008804	0.123892615	0.038184907
2019-10-18T12:55:00	0.2363	11.766	185.5	0.589781248	0.725380712	0.011797372	0.121711315	0.037512609
2019-10-18T13:00:00	0.2363	11.781	185.5	0.589781248	0.725380712	0.011797372	0.121711315	0.037512609
2019-10-18T13:05:00	0.2364	11.793	198.5	0.590115877	0.725868194	0.011809766	0.121839174	0.037552017
2019-10-18T13:10:00	0.2367	11.801	185.7	0.591119572	0.727330924	0.011846978	0.122223090	0.037670343
2019-10-18T13:15:00	0.2367	11.807	198.6	0.591119572	0.727330924	0.011846978	0.122223090	0.037670343
2019-10-18T13:20:00	0.2382	11.813	185.8	0.596133771	0.734650921	0.012033782	0.124150314	0.038264333
2019-10-18T13:25:00	0.2350	11.813	185.8	0.585428179	0.719047716	0.011636761	0.120054314	0.037001906
2019-10-18T13:30:00	0.2368	11.813	185.8	0.591454074	0.727818595	0.011859393	0.122351175	0.037709820
2019-10-18T13:35:00	0.2353	11.817	185.8	0.586433211	0.720508471	0.011673742	0.120435848	0.037119498
2019-10-18T13:40:00	0.2331	11.821	185.9	0.579056295	0.709806093	0.011403694	0.117649809	0.036260814
2019-10-18T13:45:00	0.2323	11.822	185.9	0.576369934	0.705919962	0.011306156	0.116643530	0.035950669
2019-10-18T13:50:00	0.2316	11.823	185.9	0.574017678	0.702522065	0.011221101	0.115766026	0.035680214
2019-10-18T13:55:00	0.2312	11.825	185.9	0.572672823	0.700581444	0.011172619	0.115265850	0.035526054
2019-10-18T14:00:00	0.2289	11.826	185.9	0.564929857	0.689437472	0.010895568	0.112407567	0.034645104
2019-10-18T14:05:00	0.2298	11.824	185.9	0.567961756	0.693795195	0.011003630	0.113522426	0.034988714
2019-10-18T14:10:00	0.2289	11.822	185.9	0.564929857	0.689437472	0.010895568	0.112407567	0.034645104
2019-10-18T14:15:00	0.2307	11.825	186.0	0.570991027	0.698156726	0.011112141	0.114641914	0.035333751
2019-10-18T14:20:00	0.2302	11.829	186.0	0.569308422	0.695733183	0.011051802	0.114019405	0.035141888
2019-10-18T14:25:00	0.2300	11.835	198.9	0.568635154	0.694764095	0.011027705	0.113770801	0.035065266
2019-10-18T14:30:00	0.2292	11.839	186.0	0.565940782	0.690889623	0.010931539	0.112778672	0.034759482
2019-10-18T14:35:00	0.2292	11.843	186.1	0.565940782	0.690889623	0.010931539	0.112778672	0.034759482
2019-10-18T14:40:00	0.2305	11.845	186.1	0.570318082	0.697187168	0.011087989	0.114392739	0.035256953
2019-10-18T14:45:00	0.2288	11.845	186.1	0.564592817	0.688953516	0.010883589	0.112283980	0.034607013
2019-10-18T14:50:00	0.2294	11.842	186.1	0.566614570	0.691857959	0.010955547	0.113026361	0.034835822
2019-10-18T14:55:00	0.2295	11.840	186.1	0.566951415	0.692342198	0.010967560	0.113150291	0.034874019
2019-10-18T15:00:00	0.2284	11.839	199.0	0.563244331	0.687018161	0.010835728	0.111790204	0.034454827
2019-10-18T15:05:00	0.2298	11.837	186.1	0.567961756	0.693795195	0.011003630	0.113522426	0.034988714
2019-10-18T15:10:00	0.2269	11.836	186.1	0.558182860	0.679767280	0.010657039	0.109946709	0.033886643
2019-10-18T15:15:00	0.2272	11.834	199.0	0.559195742	0.681216610	0.010692677	0.110314376	0.033999962
2019-10-18T15:20:00	0.2270	11.832	186.1	0.558520520	0.680250343	0.010668913	0.110069207	0.033924399
2019-10-18T15:25:00	0.2280	11.829	186.1	0.561895324	0.685083558	0.010787955	0.111297344	0.034302922
2019-10-18T15:30:00	0.2273	11.826	186.1	0.559533304	0.681699814	0.010704567	0.110437046	0.034037770
2019-10-18T15:35:00	0.2275	11.821	186.1	0.560208330	0.682666363	0.010728365	0.110682559	0.034113440
2019-10-18T15:40:00	0.2288	11.813	186.1	0.564592817	0.688953516	0.010883589	0.112283980	0.034607013
2019-10-18T15:45:00	0.2277	11.805	186.0	0.560883226	0.683633100	0.010752184	0.110928301	0.034189180
2019-10-18T15:50:00	0.2297	11.797	186.0	0.567625008	0.693310815	0.010991601	0.113398324	0.034950465
2019-10-18T15:55:00	0.2271	11.788	186.0	0.558858148	0.680733453	0.010680792	0.110191763	0.033962171
2019-10-18T16:00:00	0.2271	11.777	186.0	0.558858148	0.680733453	0.010680792	0.110191763	0.033962171
2019-10-18T16:05:00	0.2272	11.766	198.8	0.559106194	0.681088442	0.010689524	0.110281846	0.033989936
2019-10-18T16:10:00	0.2260	11.754	185.9	0.554963138	0.675165796	0.010544156	0.108782116	0.033527705
2019-10-18T16:15:00	0.2267	11.745	185.8	0.557238661	0.678416989	0.010623872	0.109604534	0.033781182
2019-10-18T16:20:00	0.2273	11.735	185.8	0.559512698	0.681670314	0.010703841	0.110429556	0.034035462
2019-10-18T16:25:00	0.2280	11.725	185.7	0.561785251	0.684925771	0.010784062	0.111257178	0.034290543
2019-10-18T16:30:00	0.2310	11.716	198.6	0.571801224	0.699324530	0.011141255	0.114942277	0.035426326
2019-10-18T16:35:00	0.2296	11.708	185.7	0.567336445	0.692895819	0.010981299	0.113292034	0.034917705
2019-10-18T16:40:00	0.2300	11.699	198.5	0.568594047	0.694704939	0.011026235	0.113755631	0.035060590
2019-10-18T16:45:00	0.2305	11.690	185.6	0.570187731	0.696999405	0.011083314	0.114344505	0.035242087
2019-10-18T16:50:00	0.2337	11.682	185.5	0.580850773	0.712405348	0.011469087	0.118324460	0.036468748
2019-10-18T16:55:00	0.2316	11.674	185.5	0.574045281	0.702561912	0.011222097	0.115776304	0.035683381
2019-10-18T17:00:00	0.2322	11.666	185.5	0.575972464	0.705345484	0.011291761	0.116495017	0.035904896
2019-10-18T17:05:00	0.2345	11.658	198.3	0.583602169	0.716395868	0.011569723	0.119362704	0.036788745
2019-10-18T17:10:00	0.2349	11.650	198.3	0.584853952	0.718213488	0.011615658	0.119836603	0.036934805
2019-10-18T17:15:00	0.2330	11.643	185.3	0.578727685	0.709330399	0.011391740	0.117526478	0.036222802
2019-10-18T17:20:00	0.2352	11.636	185.3	0.586016428	0.719902599	0.011658399	0.120277552	0.037070710
2019-10-18T17:25:00	0.2354	11.628	198.1	0.586597521	0.720747366	0.011679794	0.120498283	0.037138741
2019-10-18T17:30:00	0.2360	11.622	185.3	0.588517832	0.723541025	0.011750641	0.121229196	0.037364015
2019-10-18T17:35:00	0.2372	11.616	185.2	0.592778395	0.729750241	0.011908612	0.122858951	0.037866322
2019-10-18T17:40:00	0.2357	11.611	185.1	0.587670600	0.722308098	0.011719357	0.120906441	0.037264539
2019-10-18T17:45:00	0.2358	11.604	197.9	0.587916615	0.722666047	0.011728436	0.121000116	0.037293411
2019-10-18T17:50:00	0.2365	11.597	185.1	0.590170830	0.725948259	0.011811801	0.121860178	0.037558490
2019-10-18T17:55:00	0.2369	11.588	197.9	0.591754754	0.728257036	0.011870559	0.122466368	0.037745324
2019-10-18T18:00:00	0.2344	11.579	197.9	0.583294451	0.715949253	0.011558446	0.119246356	0.036752885
2019-10-18T18:05:00	0.2340	11.570	185.0	0.581864180	0.713874424	0.011506102	0.118706331	0.036586444
2019-10-18T18:10:00	0.2332	11.560	185.0	0.579426577	0.710342219	0.011417172	0.117788859	0.036303670
2019-10-18T18:15:00	0.2354	11.548	197.7	0.586713873	0.720916546	0.011684080	0.120542504	0.037152371
2019-10-18T18:20:00	0.2343	11.538	197.7	0.582938704	0.715433028	0.011545415	0.119111920	0.036711451
2019-10-18T18:25:00	0.2364	11.527	197.6	0.589884115	0.725530557	0.011801181	0.121750612	0.037524721
2019-10-18T18:30:00	0.2345	11.517	197.6	0.583766611	0.716634568	0.011575752	0.119424904	0.036807915
2019-10-18T18:35:00	0.2341	11.507	184.7	0.582336532	0.714559456	0.011523375	0.118884538	0.036641369
2019-10-18T18:40:00	0.2350	11.496	197.5	0.585264536	0.718809950	0.011630745	0.119992250	0.036982777
2019-10-18T18:45:00	0.2350	11.485	197.4	0.585175652	0.718680815	0.011627478	0.119958547	0.036972389
2019-10-18T18:50:00	0.2343	11.472	197.3	0.583075645	0.715631731	0.011550430	0.119163660	0.036727397
2019-10-18T18:55:00	0.2363	11.460	197.3	0.589686148	0.725242189	0.011793851	0.121674991	0.037501414
2019-10-18T19:00:00	0.2339	11.449	197.3	0.581556310	0.713428032	0.011494850	0.118590253	0.036550668
2019-10-18T19:05:00	0.2333	11.440	197.2	0.579454138	0.710382128	0.011418175	0.117799212	0.036306861
2019-10-18T19:10:00	0.2340	11.429	197.2	0.582049178	0.714142696	0.011512865	0.118776110	0.036607951
2019-10-18T19:15:00	0.2330	11.418	197.1	0.578604719	0.709152417	0.011387268	0.117480345	0.036208583
2019-10-18T19:20:00	0.2351	11.407	197.1	0.585558686	0.719237353	0.011641559	0.120103823	0.037017165
2019-10-18T19:25:00	0.2359	11.395	196.9	0.588484010	0.723491795	0.011749391	0.121216303	0.037360042
2019-10-18T19:30:00	0.2360	11.383	196.8	0.588729968	0.723849828	0.011758481	0.121310078	0.037388944
2019-10-18T19:35:00	0.2352	11.370	184.1	0.585962130	0.719823678	0.011656401	0.120256937	0.037064356
2019-10-18T19:40:00	0.2356	11.356	196.8	0.587213074	0.721642535	0.011702480	0.120732329	0.037210876
2019-10-18T19:45:00	0.2356	11.340	196.7	0.587459121	0.722000437	0.011711554	0.120825947	0.037239730
2019-10-18T19:50:00	0.2359	11.323	196.6	0.588374770	0.723332794	0.011745355	0.121174665	0.037347209
2019-10-18T19:55:00	0.2344	11.304	196.5	0.583260579	0.715900097	0.011557205	0.119233552	0.036748939
2019-10-18T20:00:00	0.2362	11.282	196.3	0.589201400	0.724536217	0.011775913	0.121489923	0.037444374
2019-10-18T20:05:00	0.2379	11.260	196.3	0.595132220	0.733187126	0.011996350	0.123764128	0.038145306
2019-10-18T20:10:00	0.2363	11.237	196.1	0.589693199	0.725252458	0.011794112	0.121677684	0.037502244
2019-10-18T20:15:00	0.2386	11.214	196.0	0.597293252	0.736346582	0.012077193	0.124598169	0.038402366
2019-10-18T20:20:00	0.2383	11.192	195.8	0.596202705	0.734751701	0.012036361	0.124176917	0.038272532
2019-10-18T20:25:00	0.2400	11.170	195.7	0.602121789	0.743420069	0.012258834	0.126472127	0.038979938
2019-10-18T20:30:00	0.2396	11.150	195.6	0.600699134	0.741333948	0.012205171	0.125918499	0.038809304
2019-10-18T20:35:00	0.2374	11.130	195.5	0.593263372	0.730457991	0.011926662	0.123045173	0.037923717
2019-10-18T20:40:00	0.2391	11.109	195.4	0.599187376	0.739119025	0.012148280	0.125331565	0.038628406
2019-10-18T20:45:00	0.2374	11.087	195.3	0.593420321	0.730687076	0.011932506	0.123105469	0.037942301
2019-10-18T20:50:00	0.2381	11.065	195.1	0.595671022	0.733974496	0.012016480	0.123971807	0.038209315
2019-10-18T20:55:00	0.2380	11.045	195.1	0.595248290	0.733356723	0.012000685	0.123808851	0.038159090
2019-10-18T21:00:00	0.2385	11.025	194.9	0.597163897	0.736157354	0.012072346	0.124548164	0.038386954
2019-10-18T21:05:00	0.2374	11.003	182.3	0.593399912	0.730657286	0.011931746	0.123097628	0.037939884
2019-10-18T21:10:00	0.2382	10.981	182.1	0.595984699	0.734432995	0.012028207	0.124092795	0.038246604
2019-10-18T21:15:00	0.2380	10.958	181.9	0.595227892	0.733326917	0.011999923	0.123800991	0.038156668
2019-10-18T21:20:00	0.2385	10.935	181.9	0.597143510	0.736127532	0.012071582	0.124540284	0.038384525
2019-10-18T21:25:00	0.2374	10.913	181.8	0.593379503	0.730627496	0.011930986	0.123089786	0.037937468
2019-10-18T21:30:00	0.2378	10.890	181.6	0.594627818	0.732450245	0.011977520	0.123569870	0.038085434
2019-10-18T21:35:00	0.2387	10.868	181.5	0.597545631	0.736715818	0.012086652	0.124695761	0.038432445
2019-10-18T21:40:00	0.2390	10.846	194.0	0.598792474	0.738540756	0.012133441	0.125178478	0.038581223
2019-10-18T21:45:00	0.2372	10.823	193.9	0.592690421	0.729621876	0.011905339	0.122825186	0.037855915
2019-10-18T21:50:00	0.2373	10.801	181.2	0.592936085	0.729980344	0.011914479	0.122919485	0.037884979
2019-10-18T21:55:00	0.2384	10.779	181.1	0.596523371	0.735220559	0.012048360	0.124300707	0.038310685
2019-10-18T22:00:00	0.2379	10.755	181.1	0.595098462	0.733137802	0.011995089	0.123751122	0.038141298
2019-10-18T22:05:00	0.2383	10.733	180.9	0.596289911	0.734879200	0.012039623	0.124210576	0.038282906
2019-10-18T22:10:00	0.2388	10.712	180.8	0.598148726	0.737598374	0.012109272	0.124929131	0.038504371
2019-10-18T22:15:00	0.2393	10.691	180.8	0.599672872	0.739830131	0.012166535	0.125519903	0.038686453
2019-10-18T22:20:00	0.2381	10.672	180.7	0.595521212	0.733755549	0.012010881	0.123914045	0.038191512
2019-10-18T22:25:00	0.2390	10.653	180.6	0.598715878	0.738428609	0.012130564	0.125148796	0.038572074
2019-10-18T22:30:00	0.2382	10.635	180.5	0.595899604	0.734308605	0.012025025	0.124059967	0.038236487
2019-10-18T22:35:00	0.2379	10.612	180.4	0.595086502	0.733120328	0.011994642	0.123746514	0.038139877
2019-10-18T22:40:00	0.2390	10.589	180.2	0.598615385	0.738281482	0.012126790	0.125109860	0.038560074
2019-10-18T22:45:00	0.2405	10.567	180.2	0.603807735	0.745894465	0.012322585	0.127129833	0.039182649
2019-10-18T22:50:00	0.2411	10.547	180.1	0.605662606	0.748619536	0.012392920	0.127855469	0.039406297
2019-10-18T22:55:00	0.2413	10.529	180.0	0.606517457	0.749876404	0.012425404	0.128190607	0.039509590
2019-10-18T23:00:00	0.2406	10.512	179.9	0.604040699	0.746236565	0.012331407	0.127220854	0.039210703
2019-10-18T23:05:00	0.2413	10.496	179.8	0.606228556	0.749451570	0.012414421	0.128077295	0.039474666
2019-10-18T23:10:00	0.2402	10.478	179.7	0.602751483	0.744343968	0.012282624	0.126717572	0.039055586
2019-10-18T23:15:00	0.2405	10.461	192.0	0.603607036	0.745599782	0.012314987	0.127051446	0.039158490
2019-10-18T23:20:00	0.2407	10.446	179.6	0.604462382	0.746855906	0.012347385	0.127385692	0.039261507
2019-10-18T23:25:00	0.2422	10.430	191.9	0.609313390	0.753991485	0.012531957	0.129289891	0.039848400
2019-10-18T23:30:00	0.2424	10.413	191.8	0.610167361	0.755249676	0.012564595	0.129626613	0.039952181
2019-10-18T23:35:00	0.2414	10.398	179.3	0.606694151	0.750136270	0.012432124	0.128259935	0.039530958
2019-10-18T23:40:00	0.2424	10.382	179.2	0.609878757	0.754824395	0.012553560	0.129512766	0.039917092
2019-10-18T23:45:00	0.2424	10.367	179.1	0.610067193	0.755102062	0.012560765	0.129587093	0.039940001
2019-10-18T23:50:00	0.2408	10.350	179.1	0.604594980	0.747050689	0.012352411	0.127437548	0.039277490
2019-10-18T23:55:00	0.2439	10.334	191.4	0.615098722	0.762527239	0.012753926	0.131579902	0.040554204
2019-10-19T00:00:00	0.2442	10.317	191.3	0.615951304	0.763787529	0.012786807	0.131919135	0.040658759
2019-10-19T00:05:00	0.2448	10.301	178.9	0.618131838	0.767013586	0.012871103	0.132788799	0.040926798
2019-10-19T00:10:00	0.2448	10.287	191.1	0.617987862	0.766800453	0.012865529	0.132731286	0.040909071
2019-10-19T00:15:00	0.2461	10.273	191.0	0.622157320	0.772979729	0.013027474	0.134402050	0.041424017
2019-10-19T00:20:00	0.2451	10.262	178.6	0.619027714	0.768340177	0.012905819	0.133146959	0.041037186
2019-10-19T00:25:00	0.2458	10.248	178.5	0.621206367	0.771569095	0.012990446	0.134020037	0.041306277
2019-10-19T00:30:00	0.2460	10.235	178.5	0.622057488	0.772831605	0.013023584	0.134361920	0.041411649
2019-10-19T00:35:00	0.2465	10.224	178.4	0.623571410	0.775078789	0.013082637	0.134971154	0.041599420
2019-10-19T00:40:00	0.2459	10.212	190.6	0.621769847	0.772404864	0.013012380	0.134246328	0.041376022
2019-10-19T00:45:00	0.2423	10.202	178.3	0.609666491	0.754511649	0.012545447	0.129429064	0.039891295
2019-10-19T00:50:00	0.2436	10.192	178.3	0.614178066	0.761167009	0.012718468	0.131214089	0.040441457
2019-10-19T00:55:00	0.2420	10.182	190.5	0.608712193	0.753106084	0.012509006	0.129053108	0.039775421
2019-10-19T01:00:00	0.2409	10.172	190.4	0.604904357	0.747505211	0.012364143	0.127558581	0.039314793
2019-10-19T01:05:00	0.2421	10.164	190.4	0.609089178	0.753661246	0.012523395	0.129201558	0.039821175
2019-10-19T01:10:00	0.2431	10.157	190.4	0.612271637	0.758352607	0.012645206	0.130458263	0.040208504
2019-10-19T01:15:00	0.2434	10.152	190.3	0.613457326	0.760102644	0.012690745	0.130928078	0.040353305
2019-10-19T01:20:00	0.2431	10.144	190.4	0.612315740	0.758417680	0.012646899	0.130475722	0.040213885
2019-10-19T01:25:00	0.2431	10.136	190.3	0.612504046	0.758695542	0.012654126	0.130550283	0.040236865
2019-10-19T01:30:00	0.2429	10.127	190.2	0.611694748	0.757501565	0.012623080	0.130229992	0.040138148
2019-10-19T01:35:00	0.2444	10.119	178.0	0.616535892	0.764652023	0.012809379	0.132151997	0.040730529
2019-10-19T01:40:00	0.2457	10.112	190.0	0.621038770	0.771320563	0.012983926	0.133952769	0.041285544
2019-10-19T01:45:00	0.2454	10.105	190.1	0.619899613	0.769631913	0.012939653	0.133496011	0.041144767
2019-10-19T01:50:00	0.2461	10.100	190.0	0.622409327	0.773353683	0.013037296	0.134503380	0.041455248
2019-10-19T01:55:00	0.2467	10.094	190.1	0.624254523	0.776093398	0.013109328	0.135246520	0.041684291
2019-10-19T02:00:00	0.2446	10.090	189.9	0.617476209	0.766043174	0.012845728	0.132527003	0.040846110
2019-10-19T02:05:00	0.2451	10.088	177.7	0.618992077	0.768287394	0.012904437	0.133132702	0.041032792
2019-10-19T02:10:00	0.2450	10.085	189.9	0.618516210	0.767582672	0.012885992	0.132942405	0.040974140
2019-10-19T02:15:00	0.2446	10.080	189.8	0.617376246	0.765895249	0.012841861	0.132487111	0.040833814
2019-10-19T02:20:00	0.2446	10.075	189.8	0.617232239	0.765682162	0.012836292	0.132429654	0.040816105
2019-10-19T02:25:00	0.2456	10.071	189.8	0.620739174	0.770876345	0.012972274	0.133832565	0.041248496
2019-10-19T02:30:00	0.2451	10.067	189.8	0.618936178	0.768204602	0.012902270	0.133110341	0.041025900
2019-10-19T02:35:00	0.2462	10.063	189.7	0.622772998	0.773893427	0.013051477	0.134649678	0.041500338
2019-10-19T02:40:00	0.2454	10.059	189.8	0.619975754	0.769744747	0.012942609	0.133526516	0.041154169
2019-10-19T02:45:00	0.2446	10.055	189.7	0.617176312	0.765599412	0.012834129	0.132407343	0.040809229
2019-10-19T02:50:00	0.2443	10.052	189.6	0.616368076	0.764403826	0.012802897	0.132085128	0.040709919
2019-10-19T02:55:00	0.2456	10.048	189.6	0.620539429	0.770580220	0.012964509	0.133752453	0.041223805
2019-10-19T03:00:00	0.2442	10.042	189.6	0.616079975	0.763977784	0.012791774	0.131970371	0.040674550
2019-10-19T03:05:00	0.2418	10.038	189.7	0.607954595	0.751990779	0.012480115	0.128755046	0.039683556
2019-10-19T03:10:00	0.2452	10.034	189.6	0.619444126	0.768957020	0.012921972	0.133313605	0.041088548
2019-10-19T03:15:00	0.2453	10.029	189.6	0.619632056	0.769235454	0.012929265	0.133388848	0.041111739
2019-10-19T03:20:00	0.2450	10.024	189.5	0.618824377	0.768039021	0.012897936	0.133065623	0.041012117
2019-10-19T03:25:00	0.2426	10.021	189.6	0.610705275	0.756042521	0.012585176	0.129838946	0.040017624
2019-10-19T03:30:00	0.2432	10.019	189.5	0.612556544	0.758773013	0.012656141	0.130571074	0.040243273
2019-10-19T03:35:00	0.2451	10.017	189.5	0.619056359	0.768382604	0.012906930	0.133158419	0.041040718
2019-10-19T03:40:00	0.2423	10.016	189.5	0.609606940	0.754423915	0.012543171	0.129405587	0.039884059
2019-10-19T03:45:00	0.2444	10.014	189.5	0.616776411	0.765007788	0.012818671	0.132247866	0.040760077
2019-10-19T03:50:00	0.2429	10.014	189.5	0.611647134	0.757431337	0.012621255	0.130211161	0.040132344
2019-10-19T03:55:00	0.2411	10.014	189.6	0.605844248	0.748886549	0.012399819	0.127926642	0.039428234
2019-10-19T04:00:00	0.2420	10.013	189.5	0.608696773	0.753083379	0.012508418	0.129047038	0.039773550
2019-10-19T04:05:00	0.2410	10.012	189.4	0.605266313	0.748037082	0.012377875	0.127700258	0.039358460
2019-10-19T04:10:00	0.2422	10.011	189.4	0.609494845	0.754258779	0.012538888	0.129361401	0.039870440
2019-10-19T04:15:00	0.2423	10.011	189.5	0.609727436	0.754601440	0.012547776	0.129453094	0.039898701
2019-10-19T04:20:00	0.2446	10.011	189.5	0.617272783	0.765742153	0.012837859	0.132445829	0.040821091
2019-10-19T04:25:00	0.2435	10.012	189.5	0.613518206	0.760192533	0.012693086	0.130952225	0.040360747
2019-10-19T04:30:00	0.2446	10.012	189.5	0.617404904	0.765937656	0.012842969	0.132498547	0.040837339
2019-10-19T04:35:00	0.2443	10.013	189.4	0.616308637	0.764315922	0.012800602	0.132061448	0.040702621
2019-10-19T04:40:00	0.2428	10.012	189.4	0.611222801	0.756805545	0.012604994	0.130043400	0.040080639
2019-10-19T04:45:00	0.2439	10.012	189.4	0.615112006	0.762546871	0.012754438	0.131585184	0.040555832
2019-10-19T04:50:00	0.2429	10.012	189.4	0.611687741	0.757491231	0.012622812	0.130227221	0.040137294
2019-10-19T04:55:00	0.2425	10.011	189.4	0.610257013	0.755381799	0.012568024	0.129661989	0.039963084
2019-10-19T05:00:00	0.2399	10.008	189.4	0.601829016	0.742990621	0.012247780	0.126358092	0.038944791
2019-10-19T05:05:00	0.2420	10.007	189.4	0.608725501	0.753125680	0.012509514	0.129058347	0.039777036
2019-10-19T05:10:00	0.2392	10.006	189.4	0.599292767	0.739273374	0.012152242	0.125372437	0.038641003
2019-10-19T05:15:00	0.2410	10.004	189.4	0.605527935	0.748421587	0.012387806	0.127802713	0.039390037
2019-10-19T05:20:00	0.2430	10.004	189.4	0.612084712	0.758076820	0.012638035	0.130384275	0.040185700
2019-10-19T05:25:00	0.2426	10.003	189.4	0.610654143	0.755967147	0.012583219	0.129818755	0.040011401
2019-10-19T05:30:00	0.2423	10.004	189.4	0.609555793	0.754348565	0.012541217	0.129385425	0.039877844
2019-10-19T05:35:00	0.2412	10.004	189.4	0.606126163	0.749301018	0.012410530	0.128037147	0.039462292
2019-10-19T05:40:00	0.2409	10.004	189.4	0.605026409	0.747684547	0.012368772	0.127606346	0.039329515
2019-10-19T05:45:00	0.2418	10.005	189.1	0.607923749	0.751945379	0.012478939	0.128742918	0.039679818
2019-10-19T05:50:00	0.2412	10.006	189.4	0.606158421	0.749348446	0.012411756	0.128049794	0.039466190
2019-10-19T05:55:00	0.2418	10.007	189.4	0.608056218	0.752140357	0.012483988	0.128795007	0.039695872
2019-10-19T06:00:00	0.2399	10.007	177.2	0.601624691	0.742690954	0.012240069	0.126278539	0.038920272
2019-10-19T06:05:00	0.2413	10.008	189.3	0.606523757	0.749885669	0.012425644	0.128193078	0.039510352
2019-10-19T06:10:00	0.2435	10.009	189.4	0.613743532	0.760525251	0.012701750	0.131041615	0.040388298
2019-10-19T06:15:00	0.2428	10.011	189.4	0.611315929	0.756942875	0.012608562	0.130080209	0.040091984
2019-10-19T06:20:00	0.2455	10.013	189.2	0.620185301	0.770055305	0.012950749	0.133610485	0.041180049
2019-10-19T06:25:00	0.2499	10.014	188.9	0.634985065	0.792082949	0.013532301	0.139610254	0.043029236
2019-10-19T06:30:00	0.2496	10.017	188.8	0.633894183	0.790452977	0.013488983	0.139163346	0.042891495
2019-10-19T06:35:00	0.2498	10.021	188.9	0.634455667	0.791291808	0.013511270	0.139393279	0.042962362
2019-10-19T06:40:00	0.2502	10.027	189.0	0.636008161	0.793612552	0.013572993	0.140030068	0.043158627
2019-10-19T06:45:00	0.2523	10.033	189.2	0.642838942	0.803847831	0.013846306	0.142849791	0.044027693
2019-10-19T06:50:00	0.2513	10.039	189.2	0.639441155	0.798751616	0.013710000	0.141443540	0.043594273
2019-10-19T06:55:00	0.2512	10.046	189.3	0.639341805	0.798602752	0.013706025	0.141402531	0.043581633
2019-10-19T07:00:00	0.2525	10.054	189.4	0.643530188	0.804885807	0.013874123	0.143136765	0.044116141
2019-10-19T07:05:00	0.2514	10.062	189.5	0.639803099	0.799294016	0.013724486	0.141592995	0.043640336
2019-10-19T07:10:00	0.2510	10.070	189.5	0.638383594	0.797167421	0.013667718	0.141007322	0.043459826
2019-10-19T07:15:00	0.2510	10.077	189.5	0.638614310	0.797512946	0.013676936	0.141102427	0.043489138
2019-10-19T07:20:00	0.2496	10.085	189.5	0.633890701	0.790447777	0.013488844	0.139161921	0.042891056
2019-10-19T07:25:00	0.2494	10.092	189.6	0.633130086	0.789311882	0.013458684	0.138850758	0.042795152
2019-10-19T07:30:00	0.2533	10.100	189.6	0.646230051	0.808943817	0.013983045	0.144260502	0.044462488
2019-10-19T07:35:00	0.2520	10.110	189.6	0.641846254	0.802357922	0.013806411	0.142438196	0.043900835
2019-10-19T07:40:00	0.2525	10.121	177.4	0.643395556	0.804683612	0.013868703	0.143080848	0.044098907
2019-10-19T07:45:00	0.2506	10.130	177.4	0.637357698	0.795631566	0.013626766	0.140584834	0.043329611
2019-10-19T07:50:00	0.2512	10.139	177.4	0.639238975	0.798448684	0.013701911	0.141360092	0.043568553
2019-10-19T07:55:00	0.2514	10.146	177.5	0.639799623	0.799288807	0.013724347	0.141591559	0.043639894
2019-10-19T08:00:00	0.2511	10.152	189.8	0.638710204	0.797656572	0.013680768	0.141141966	0.043501325
2019-10-19T08:05:00	0.2504	10.158	189.9	0.636629801	0.794542383	0.013597749	0.140285470	0.043237344
2019-10-19T08:10:00	0.2507	10.166	190.0	0.637521053	0.795876063	0.013633283	0.140652064	0.043350332
2019-10-19T08:15:00	0.2522	10.173	190.0	0.642371091	0.803145536	0.013827496	0.142655730	0.043967881
2019-10-19T08:20:00	0.2497	10.179	177.8	0.634349216	0.791132755	0.013507043	0.139349672	0.042948922
2019-10-19T08:25:00	0.2512	10.185	190.1	0.639203539	0.798395592	0.013700494	0.141345469	0.043564046
2019-10-19T08:30:00	0.2506	10.191	177.9	0.637123423	0.795280960	0.013617423	0.140488447	0.043299904
2019-10-19T08:35:00	0.2501	10.197	190.1	0.635702857	0.793156007	0.013560843	0.139904722	0.043119994
2019-10-19T08:40:00	0.2493	10.203	178.0	0.632959566	0.789057296	0.013451927	0.138781048	0.042773667
2019-10-19T08:45:00	0.2506	10.211	190.3	0.637155401	0.795328815	0.013618698	0.140501602	0.043303958
2019-10-19T08:50:00	0.2502	10.219	190.3	0.635734848	0.793203842	0.013562116	0.139917853	0.043124041
2019-10-19T08:55:00	0.2520	10.227	178.1	0.641906653	0.802448548	0.013808837	0.142463221	0.043908548
2019-10-19T09:00:00	0.2536	10.234	178.2	0.647080098	0.810222758	0.014017431	0.144615256	0.044571827
2019-10-19T09:05:00	0.2518	10.241	190.5	0.641048432	0.801161089	0.013774390	0.142107846	0.043799018
2019-10-19T09:10:00	0.2532	10.250	190.5	0.645893714	0.808437950	0.013969452	0.144120262	0.044419264
2019-10-19T09:15:00	0.2526	10.259	190.5	0.643817468	0.805317306	0.013885691	0.143256119	0.044152927
2019-10-19T09:20:00	0.2534	10.270	190.5	0.646354169	0.809130520	0.013988063	0.144312272	0.044478444
2019-10-19T09:25:00	0.2527	10.280	178.3	0.644278188	0.806009462	0.013904255	0.143447639	0.044211956
2019-10-19T09:30:00	0.2525	10.290	178.3	0.643519772	0.804870163	0.013873703	0.143132438	0.044114808
2019-10-19T09:35:00	0.2518	10.302	190.7	0.641112318	0.801256907	0.013776953	0.142134284	0.043807167
2019-10-19T09:40:00	0.2496	10.324	190.8	0.633748744	0.790235742	0.013483213	0.139103820	0.042873148
2019-10-19T09:45:00	0.2516	10.346	178.5	0.640583823	0.800464367	0.013755761	0.141915651	0.043739782
2019-10-19T09:50:00	0.2519	10.360	190.9	0.641474094	0.801799567	0.013791469	0.142284048	0.043853325
2019-10-19T09:55:00	0.2499	10.370	178.6	0.634772193	0.791764800	0.013523842	0.139522987	0.043002340
2019-10-19T10:00:00	0.2500	10.383	178.7	0.635333539	0.792603843	0.013546154	0.139753172	0.043073285
2019-10-19T10:05:00	0.2509	10.397	191.0	0.638256060	0.796976443	0.013662623	0.140954765	0.043443627
2019-10-19T10:10:00	0.2518	10.410	178.8	0.641176203	0.801352725	0.013779516	0.142160724	0.043815316
2019-10-19T10:15:00	0.2520	10.424	178.9	0.641786191	0.802267801	0.013803999	0.142413312	0.043893166
2019-10-19T10:20:00	0.2522	10.438	178.9	0.642396076	0.803183037	0.013828500	0.142666090	0.043971075
2019-10-19T10:25:00	0.2501	10.457	179.0	0.635415264	0.792726019	0.013549404	0.139786700	0.043083619
2019-10-19T10:30:00	0.2502	10.474	179.1	0.636026232	0.793639577	0.013573712	0.140037489	0.043160914
2019-10-19T10:35:00	0.2517	10.489	179.2	0.640927942	0.800980387	0.013769558	0.142057990	0.043783652
2019-10-19T10:40:00	0.2516	10.502	179.2	0.640548400	0.800411255	0.013754341	0.141901003	0.043735267
2019-10-19T10:45:00	0.2518	10.515	179.3	0.641158495	0.801326165	0.013778805	0.142153395	0.043813057
2019-10-19T10:50:00	0.2515	10.524	179.4	0.640119154	0.799767738	0.013737143	0.141723567	0.043680580
2019-10-19T10:55:00	0.2522	10.530	191.8	0.642378374	0.803156467	0.013827789	0.142658750	0.043968812
2019-10-19T11:00:00	0.2508	10.543	179.4	0.637709419	0.796158021	0.013640799	0.140729607	0.043374232
2019-10-19T11:05:00	0.2491	10.560	179.6	0.632373129	0.788181938	0.013428703	0.138541450	0.042699820
2019-10-19T11:10:00	0.2497	10.576	179.6	0.634306770	0.791069337	0.013505358	0.139332285	0.042943564
2019-10-19T11:15:00	0.2504	10.593	179.7	0.636569651	0.794452397	0.013595353	0.140260746	0.043229724
2019-10-19T11:20:00	0.2502	10.612	192.2	0.635859329	0.793389981	0.013567070	0.139968956	0.043139791
2019-10-19T11:25:00	0.2500	10.629	179.9	0.635148866	0.792327783	0.013538812	0.139677423	0.043049938
2019-10-19T11:30:00	0.2510	10.646	180.1	0.638401653	0.797194464	0.013668439	0.141014765	0.043462120
2019-10-19T11:35:00	0.2509	10.661	180.1	0.638351964	0.797120054	0.013666454	0.140994286	0.043455808
2019-10-19T11:40:00	0.2515	10.672	180.2	0.640282383	0.800012430	0.013743681	0.141791027	0.043701372
2019-10-19T11:45:00	0.2507	10.684	180.2	0.637592295	0.795982698	0.013636125	0.140681389	0.043359370
2019-10-19T11:50:00	0.2513	10.699	180.3	0.639523123	0.798874441	0.013713280	0.141477379	0.043604702
2019-10-19T11:55:00	0.2512	10.713	180.4	0.639143432	0.798305540	0.013698090	0.141320666	0.043556402
2019-10-19T12:00:00	0.2505	10.726	180.4	0.636782754	0.794771215	0.013603844	0.140348347	0.043256724
2019-10-19T12:05:00	0.2516	10.741	180.5	0.640363995	0.800134780	0.013746951	0.141824762	0.043711769
2019-10-19T12:10:00	0.2508	10.760	180.6	0.638004120	0.796599211	0.013652562	0.140850969	0.043411637
2019-10-19T12:15:00	0.2502	10.781	180.7	0.635973030	0.793560014	0.013571595	0.140015641	0.043154180
2019-10-19T12:20:00	0.2491	10.800	180.8	0.632287852	0.788054671	0.013425327	0.138506627	0.042689087
2019-10-19T12:25:00	0.2474	10.815	180.9	0.626612297	0.779598363	0.013201669	0.136199184	0.041977911
2019-10-19T12:30:00	0.2487	10.830	181.0	0.630865368	0.785932677	0.013369088	0.137926415	0.042510261
2019-10-19T12:35:00	0.2475	10.848	181.0	0.626843773	0.779942718	0.013210753	0.136292899	0.042006795
2019-10-19T12:40:00	0.2500	10.863	181.2	0.635063655	0.792200414	0.013535424	0.139642479	0.043039168
2019-10-19T12:45:00	0.2478	10.874	181.2	0.628068533	0.781765488	0.013258869	0.136789311	0.042159794
2019-10-19T12:50:00	0.2474	10.883	181.3	0.626694221	0.779720232	0.013204883	0.136232348	0.041988133
2019-10-19T12:55:00	0.2460	10.894	181.3	0.622004755	0.772753364	0.013021530	0.134340725	0.041405116
2019-10-19T13:00:00	0.2451	10.912	181.4	0.618968996	0.768253208	0.012903542	0.133123469	0.041029946
2019-10-19T13:05:00	0.2451	10.935	181.5	0.618919036	0.768179213	0.012901605	0.133103484	0.041023786
2019-10-19T13:10:00	0.2488	10.955	181.6	0.631128600	0.786325226	0.013379486	0.138033689	0.042543323
2019-10-19T13:15:00	0.2477	10.974	181.7	0.627769526	0.781320368	0.013247114	0.136668033	0.042122415
2019-10-19T13:20:00	0.2478	10.994	181.9	0.628050760	0.781739027	0.013258170	0.136782101	0.042157572
2019-10-19T13:25:00	0.2466	11.011	181.9	0.624025995	0.775753927	0.013100396	0.135154367	0.041655888
2019-10-19T13:30:00	0.2467	11.023	182.0	0.624307524	0.776172135	0.013111400	0.135267897	0.041690880
2019-10-19T13:35:00	0.2468	11.037	182.1	0.624589030	0.776590376	0.013122408	0.135381468	0.041725883
2019-10-19T13:40:00	0.2470	11.051	182.1	0.625201850	0.777501088	0.013146389	0.135628873	0.041802136
2019-10-19T13:45:00	0.2481	11.062	194.8	0.628794686	0.782846795	0.013287440	0.137084073	0.042250643
2019-10-19T13:50:00	0.2481	11.069	182.2	0.629075839	0.783265577	0.013298511	0.137198287	0.042285845
2019-10-19T13:55:00	0.2492	11.076	182.3	0.632664787	0.788617251	0.013440250	0.138660585	0.042736539
2019-10-19T14:00:00	0.2482	11.083	182.4	0.629307155	0.783610177	0.013307623	0.137292293	0.042314818
2019-10-19T14:05:00	0.2468	11.091	195.0	0.624621121	0.776638058	0.013123664	0.135394417	0.041729874
2019-10-19T14:10:00	0.2468	11.098	195.0	0.624571240	0.776563942	0.013121712	0.135374289	0.041723671
2019-10-19T14:15:00	0.2464	11.106	195.1	0.623195581	0.774520747	0.013067964	0.134819779	0.041552765
2019-10-19T14:20:00	0.2473	11.113	195.2	0.626128029	0.778878087	0.013182675	0.136003232	0.041917517
2019-10-19T14:25:00	0.2466	11.119	195.2	0.624090186	0.775849276	0.013102904	0.135180248	0.041663865
2019-10-19T14:30:00	0.2458	11.122	195.2	0.621387892	0.771838309	0.012997510	0.134092916	0.041328739
2019-10-19T14:35:00	0.2439	11.128	195.3	0.615030493	0.762426409	0.012751296	0.131552774	0.040545842
2019-10-19T14:40:00	0.2450	11.133	195.2	0.618633585	0.767756477	0.012890540	0.132989330	0.040988603
2019-10-19T14:45:00	0.2436	11.136	195.3	0.613933494	0.760805784	0.012709057	0.131117000	0.040411533
2019-10-19T14:50:00	0.2446	11.139	195.3	0.617205649	0.765642818	0.012835263	0.132419045	0.040812836
2019-10-19T14:55:00	0.2447	11.139	195.3	0.617819738	0.766551595	0.012859020	0.132664143	0.040888377
2019-10-19T15:00:00	0.2433	11.138	195.2	0.613118572	0.759602533	0.012677726	0.130793762	0.040311908
2019-10-19T15:05:00	0.2443	11.135	195.2	0.616391475	0.764438431	0.012803801	0.132094451	0.040712793
2019-10-19T15:10:00	0.2433	11.132	195.3	0.613018486	0.759454794	0.012673881	0.130754091	0.040299681
2019-10-19T15:15:00	0.2446	11.131	195.3	0.617287789	0.765764357	0.012838440	0.132451816	0.040822936
2019-10-19T15:20:00	0.2458	11.130	195.3	0.621220304	0.771589764	0.012990988	0.134025632	0.041308001
2019-10-19T15:25:00	0.2443	11.129	195.2	0.616191486	0.764142678	0.012796078	0.132014782	0.040688238
2019-10-19T15:30:00	0.2444	11.126	195.3	0.616805751	0.765051189	0.012819805	0.132259563	0.040763682
2019-10-19T15:35:00	0.2454	11.122	195.3	0.620075268	0.769892226	0.012946474	0.133566389	0.041166458
2019-10-19T15:40:00	0.2441	11.116	195.2	0.615709300	0.763429735	0.012777470	0.131822798	0.040629067
2019-10-19T15:45:00	0.2432	11.110	195.2	0.612668166	0.758937739	0.012660426	0.130615286	0.040256900
2019-10-19T15:50:00	0.2465	11.104	195.2	0.623573475	0.775081855	0.013082718	0.134971986	0.041599677
2019-10-19T15:55:00	0.2454	11.099	195.2	0.619875485	0.769596159	0.012938716	0.133486346	0.041141788
2019-10-19T16:00:00	0.2431	11.093	195.2	0.612518018	0.758716160	0.012654662	0.130555817	0.040238571
2019-10-19T16:05:00	0.2430	11.086	195.0	0.611950096	0.757878227	0.012632871	0.130331006	0.040169282
2019-10-19T16:10:00	0.2451	11.078	195.0	0.619023842	0.768334442	0.012905669	0.133145410	0.041036708
2019-10-19T16:15:00	0.2449	11.071	182.4	0.618456957	0.767494936	0.012883696	0.132918720	0.040966840
2019-10-19T16:20:00	0.2435	11.062	195.0	0.613571367	0.760271027	0.012695130	0.130973312	0.040367247
2019-10-19T16:25:00	0.2461	11.052	194.9	0.622300226	0.773191782	0.013033043	0.134459507	0.041441726
2019-10-19T16:30:00	0.2451	11.043	182.3	0.619079740	0.768417237	0.012907837	0.133167773	0.041043601
2019-10-19T16:35:00	0.2461	11.034	194.8	0.622162352	0.772987197	0.013027670	0.134404074	0.041424641
2019-10-19T16:40:00	0.2460	11.026	194.7	0.621927606	0.772638904	0.013018525	0.134309719	0.041395560
2019-10-19T16:45:00	0.2446	11.018	182.1	0.617378841	0.765899089	0.012841961	0.132488147	0.040834134
2019-10-19T16:50:00	0.2443	11.010	182.1	0.616479578	0.764568733	0.012807203	0.132129556	0.040723612
2019-10-19T16:55:00	0.2453	11.001	182.1	0.619564440	0.769135272	0.012926641	0.133361774	0.041103394
2019-10-19T17:00:00	0.2436	10.992	182.0	0.614015710	0.760927209	0.012712220	0.131149634	0.040421591
2019-10-19T17:05:00	0.2444	10.983	182.0	0.616770619	0.764999219	0.012818447	0.132245556	0.040759365
2019-10-19T17:10:00	0.2451	10.973	181.9	0.618859640	0.768091245	0.012899303	0.133079727	0.041016464
2019-10-19T17:15:00	0.2454	10.964	181.9	0.619952152	0.769709772	0.012941693	0.133517060	0.041151255
2019-10-19T17:20:00	0.2438	10.954	181.9	0.614736337	0.761991746	0.012739963	0.131435849	0.040509805
2019-10-19T17:25:00	0.2452	10.944	181.8	0.619482352	0.769013652	0.012923455	0.133328908	0.041093264
2019-10-19T17:30:00	0.2452	10.935	181.8	0.619247429	0.768665628	0.012914341	0.133234874	0.041064282
2019-10-19T17:35:00	0.2449	10.924	181.7	0.618348638	0.767334555	0.012879500	0.132875427	0.040953497
2019-10-19T17:40:00	0.2451	10.911	181.7	0.619109437	0.768461224	0.012908989	0.133179655	0.041047263
2019-10-19T17:45:00	0.2452	10.901	181.6	0.619206381	0.768604824	0.012912749	0.133218447	0.041059219
2019-10-19T17:50:00	0.2464	10.888	181.5	0.623283516	0.774651305	0.013071397	0.134855189	0.041563679
2019-10-19T17:55:00	0.2446	10.875	181.5	0.617408552	0.765943054	0.012843110	0.132500003	0.040837788
2019-10-19T18:00:00	0.2420	10.863	181.4	0.608529265	0.752836741	0.012502027	0.128981106	0.039753230
2019-10-19T18:05:00	0.2417	10.851	181.4	0.607627760	0.751509774	0.012467662	0.128626568	0.039643958
2019-10-19T18:10:00	0.2401	10.838	181.3	0.602393803	0.743819132	0.012269108	0.126578124	0.039012607
2019-10-19T18:15:00	0.2404	10.824	181.2	0.603491391	0.745429998	0.012310610	0.127006290	0.039144572
2019-10-19T18:20:00	0.2404	10.810	181.2	0.603255408	0.745083574	0.012301681	0.126914171	0.039116180
2019-10-19T18:25:00	0.2403	10.797	181.2	0.603019409	0.744737174	0.012292754	0.126822080	0.039087797
2019-10-19T18:30:00	0.2402	10.783	181.1	0.602783394	0.744390797	0.012283831	0.126730017	0.039059422
2019-10-19T18:35:00	0.2404	10.770	181.0	0.603214175	0.745023049	0.012300121	0.126898079	0.039111220
2019-10-19T18:40:00	0.2399	10.758	180.9	0.601644335	0.742719762	0.012240811	0.126286186	0.038922629
2019-10-19T18:45:00	0.2390	10.745	180.8	0.598738864	0.738462264	0.012131428	0.125157704	0.038574820
2019-10-19T18:50:00	0.2385	10.735	180.8	0.597167037	0.736161947	0.012072463	0.124549377	0.038387328
2019-10-19T18:55:00	0.2382	10.726	180.8	0.595928587	0.734350971	0.012026109	0.124071147	0.038239933
2019-10-19T19:00:00	0.2375	10.717	180.8	0.593687023	0.731076406	0.011942441	0.123207965	0.037973891
2019-10-19T19:05:00	0.2375	10.712	180.8	0.593784665	0.731218958	0.011946080	0.123245501	0.037985460
2019-10-19T19:10:00	0.2366	10.706	180.7	0.590538163	0.726483509	0.011825415	0.122000624	0.037601777
2019-10-19T19:15:00	0.2366	10.699	180.7	0.590635892	0.726625931	0.011829038	0.122038004	0.037613298
2019-10-19T19:20:00	0.2369	10.693	180.7	0.591737139	0.728231348	0.011869905	0.122459618	0.037743244
2019-10-19T19:25:00	0.2368	10.688	180.6	0.591500369	0.727886096	0.011861112	0.122368907	0.037715286
2019-10-19T19:30:00	0.2398	10.683	180.6	0.601284465	0.742192047	0.012227235	0.126146130	0.038879462
2019-10-19T19:35:00	0.2393	10.680	180.6	0.599713768	0.739890041	0.012168074	0.125535775	0.038691345
2019-10-19T19:40:00	0.2387	10.675	180.6	0.597808505	0.737100465	0.012096509	0.124797453	0.038463787
2019-10-19T19:45:00	0.2379	10.671	180.6	0.594899879	0.732847673	0.011987674	0.123674628	0.038117721
2019-10-19T19:50:00	0.2366	10.667	180.5	0.590650860	0.726647745	0.011829593	0.122043729	0.037615063
2019-10-19T19:55:00	0.2359	10.663	180.5	0.588405939	0.723378159	0.011746507	0.121186545	0.037350870
2019-10-19T20:00:00	0.2369	10.660	180.5	0.591515333	0.727907915	0.011861668	0.122374639	0.037717052
2019-10-19T20:05:00	0.2353	10.658	180.5	0.586257436	0.720252931	0.011667270	0.120369075	0.037098918
2019-10-19T20:10:00	0.2383	10.658	180.5	0.596390092	0.735025676	0.012043372	0.124249248	0.038294825
2019-10-19T20:15:00	0.2377	10.657	180.5	0.594483035	0.732238772	0.011972118	0.123514139	0.038068257
2019-10-19T20:20:00	0.2388	10.655	180.5	0.597920971	0.737265046	0.012100727	0.124840973	0.038477200
2019-10-19T20:25:00	0.2372	10.652	180.5	0.592672621	0.729595906	0.011904677	0.122818355	0.037853810
2019-10-19T20:30:00	0.2426	10.652	180.5	0.610779841	0.756152446	0.012588031	0.129868394	0.040026700
2019-10-19T20:35:00	0.2406	10.651	180.5	0.603884372	0.746006999	0.012325487	0.127159772	0.039191877
2019-10-19T20:40:00	0.2406	10.647	180.4	0.603981733	0.746149970	0.012329174	0.127197812	0.039203601
2019-10-19T20:45:00	0.2413	10.643	180.4	0.606411376	0.749720402	0.012421371	0.128148994	0.039496765
2019-10-19T20:50:00	0.2422	10.642	180.4	0.609504984	0.754273716	0.012539276	0.129365397	0.039871672
2019-10-19T20:55:00	0.2421	10.641	180.4	0.608936579	0.753436509	0.012517569	0.129141457	0.039802651
2019-10-19T21:00:00	0.2430	10.640	180.4	0.612027988	0.757993136	0.012635859	0.130361828	0.040178781
2019-10-19T21:05:00	0.2408	10.637	180.4	0.604801738	0.747354438	0.012360251	0.127518428	0.039302418
2019-10-19T21:10:00	0.2406	10.635	180.4	0.603899284	0.746028896	0.012326051	0.127165598	0.039193672
2019-10-19T21:15:00	0.2396	10.631	180.4	0.600662066	0.741279615	0.012203774	0.125904090	0.038804863
2019-10-19T21:20:00	0.2399	10.626	180.3	0.601760191	0.742889678	0.012245183	0.126331292	0.038936531
2019-10-19T21:25:00	0.2397	10.621	180.3	0.601190543	0.742054338	0.012223693	0.126109590	0.038868200
2019-10-19T21:30:00	0.2416	10.616	180.3	0.607286902	0.751008227	0.012454681	0.128492649	0.039602682
2019-10-19T21:35:00	0.2427	10.612	180.3	0.611045088	0.756543507	0.012598187	0.129973174	0.040058995
2019-10-19T21:40:00	0.2447	10.611	180.3	0.617788640	0.766505565	0.012857817	0.132651725	0.040884550
2019-10-19T21:45:00	0.2418	10.609	180.2	0.607911645	0.751927564	0.012478478	0.128738158	0.039678351
2019-10-19T21:50:00	0.2424	10.607	180.2	0.610005877	0.755011708	0.012558420	0.129562905	0.039932546
2019-10-19T21:55:00	0.2437	10.605	180.2	0.614425896	0.761533098	0.012728008	0.131312510	0.040471791
2019-10-19T22:00:00	0.2448	10.603	180.2	0.617844557	0.766588330	0.012859981	0.132674054	0.040891432
2019-10-19T22:05:00	0.2429	10.602	180.2	0.611719232	0.757537680	0.012624019	0.130239676	0.040141133
2019-10-19T22:10:00	0.2455	10.601	180.2	0.620211832	0.770094627	0.012951779	0.133621119	0.041183326
2019-10-19T22:15:00	0.2460	10.600	180.2	0.622058164	0.772832608	0.013023611	0.134362192	0.041411732
2019-10-19T22:20:00	0.2456	10.599	180.2	0.620587600	0.770651632	0.012966382	0.133771771	0.041229759
2019-10-19T22:25:00	0.2461	10.594	180.2	0.622433738	0.773389909	0.013038248	0.134513198	0.041458274
2019-10-19T22:30:00	0.2476	10.591	180.2	0.627260324	0.780562515	0.013227107	0.136461628	0.042058799
2019-10-19T22:35:00	0.2476	10.590	180.1	0.627447842	0.780841576	0.013234473	0.136537620	0.042082221
2019-10-19T22:40:00	0.2471	10.588	192.6	0.625648235	0.778164662	0.013163871	0.135809234	0.041857725
2019-10-19T22:45:00	0.2491	10.586	180.1	0.632124258	0.787810542	0.013418853	0.138439835	0.042668502
2019-10-19T22:50:00	0.2485	10.582	180.1	0.630327003	0.785130017	0.013347835	0.137707154	0.042442682
2019-10-19T22:55:00	0.2500	10.579	180.1	0.635142953	0.792318945	0.013538577	0.139674998	0.043049191
2019-10-19T23:00:00	0.2480	10.576	180.1	0.628716296	0.782730044	0.013284355	0.137052237	0.042240830
2019-10-19T23:05:00	0.2483	10.573	180.1	0.629565630	0.783995289	0.013317809	0.137397376	0.042347206
2019-10-19T23:10:00	0.2472	10.571	180.1	0.626111296	0.778853204	0.013182019	0.135996464	0.041915431
2019-10-19T23:15:00	0.2489	10.569	180.1	0.631594436	0.787020053	0.013397897	0.138223634	0.042601866
2019-10-19T23:20:00	0.2479	10.566	180.0	0.628142063	0.781874959	0.013261761	0.136819143	0.042168989
2019-10-19T23:25:00	0.2469	10.564	180.0	0.625017703	0.777227395	0.013139181	0.135554506	0.041779215
2019-10-19T23:30:00	0.2474	10.562	180.0	0.626530371	0.779476497	0.013198455	0.136166024	0.041967691
2019-10-19T23:35:00	0.2459	10.559	180.0	0.621746784	0.772370651	0.013011482	0.134237062	0.041373166
2019-10-19T23:40:00	0.2467	10.558	180.0	0.624255199	0.776094401	0.013109354	0.135246793	0.041684375
2019-10-19T23:45:00	0.2458	10.555	180.0	0.621459117	0.771943948	0.013000282	0.134121516	0.041337554
2019-10-19T23:50:00	0.2432	10.554	180.0	0.612681121	0.758956857	0.012660924	0.130620417	0.040258481
2019-10-19T23:55:00	0.2447	10.553	180.0	0.617520924	0.766109347	0.012847457	0.132544850	0.040851610
2019-10-20T00:00:00	0.2436	10.551	180.0	0.614054898	0.760985087	0.012713728	0.131165190	0.040426385
2019-10-20T00:05:00	0.2454	10.549	180.0	0.619888414	0.769615317	0.012939218	0.133491525	0.041143384
2019-10-20T00:10:00	0.2466	10.547	179.9	0.624055650	0.775797977	0.013101555	0.135166324	0.041659574
2019-10-20T00:15:00	0.2445	10.545	179.9	0.616944885	0.765257016	0.012825182	0.132315040	0.040780780
2019-10-20T00:20:00	0.2445	10.544	179.9	0.617132947	0.765535249	0.012832452	0.132390044	0.040803897
2019-10-20T00:25:00	0.2460	10.542	179.9	0.621966706	0.772696914	0.013020048	0.134325433	0.041400403
2019-10-20T00:30:00	0.2461	10.541	179.9	0.622154503	0.772975550	0.013027364	0.134400918	0.041423668
2019-10-20T00:35:00	0.2478	10.540	179.9	0.627974792	0.781625930	0.013255183	0.136751283	0.042148074
2019-10-20T00:40:00	0.2485	10.538	179.9	0.630147992	0.784863181	0.013340772	0.137634288	0.042420224
2019-10-20T00:45:00	0.2475	10.537	179.9	0.627025387	0.780212928	0.013217882	0.136366451	0.042029465
2019-10-20T00:50:00	0.2460	10.535	179.8	0.621910853	0.772614051	0.013017872	0.134302987	0.041393485
2019-10-20T00:55:00	0.2454	10.534	179.8	0.620108451	0.769941405	0.012947763	0.133579687	0.041170557
2019-10-20T01:00:00	0.2427	10.534	179.8	0.610994490	0.756468903	0.012596249	0.129953183	0.040052833
2019-10-20T01:05:00	0.2423	10.533	179.8	0.609852111	0.754785134	0.012552542	0.129502257	0.039913853
2019-10-20T01:10:00	0.2438	10.531	179.8	0.614695764	0.761931799	0.012738400	0.131419726	0.040504836
2019-10-20T01:15:00	0.2451	10.530	179.8	0.618869075	0.768105219	0.012899668	0.133083501	0.041017627
2019-10-20T01:20:00	0.2453	10.528	179.8	0.619720755	0.769366879	0.012932709	0.133424370	0.041122687
2019-10-20T01:25:00	0.2447	10.526	179.8	0.617585232	0.766204516	0.012849945	0.132570518	0.040859521
2019-10-20T01:30:00	0.2448	10.523	192.1	0.618105254	0.766974232	0.012870074	0.132778179	0.040923524
2019-10-20T01:35:00	0.2470	10.522	192.2	0.625257651	0.777584030	0.013148574	0.135651413	0.041809083
2019-10-20T01:40:00	0.2443	10.520	179.7	0.616489020	0.764582698	0.012807568	0.132133318	0.040724772
2019-10-20T01:45:00	0.2447	10.517	192.1	0.617673305	0.766334863	0.012853353	0.132605677	0.040870357
2019-10-20T01:50:00	0.2456	10.515	192.1	0.620516357	0.770546019	0.012963613	0.133743202	0.041220954
2019-10-20T01:55:00	0.2453	10.513	192.1	0.619708879	0.769349282	0.012932247	0.133419613	0.041121221
2019-10-20T02:00:00	0.2455	10.512	192.1	0.620228592	0.770119468	0.012952430	0.133627836	0.041185397
2019-10-20T02:05:00	0.2458	10.510	179.7	0.621411634	0.771873522	0.012998434	0.134102449	0.041331677
2019-10-20T02:10:00	0.2469	10.508	192.1	0.624914462	0.777073961	0.013135140	0.135512821	0.041766367
2019-10-20T02:15:00	0.2487	10.507	179.7	0.631061052	0.786224488	0.013376817	0.138006157	0.042534838
2019-10-20T02:20:00	0.2458	10.504	192.1	0.621311782	0.771725429	0.012994548	0.134062356	0.041319320
2019-10-20T02:25:00	0.2464	10.503	179.7	0.623157545	0.774464278	0.013066480	0.134804464	0.041548045
2019-10-20T02:30:00	0.2459	10.502	192.0	0.621687434	0.772282610	0.013009171	0.134213219	0.041365818
2019-10-20T02:35:00	0.2465	10.499	179.6	0.623533003	0.775021756	0.013081137	0.134955681	0.041594651
2019-10-20T02:40:00	0.2480	10.498	192.1	0.628689116	0.782689564	0.013283285	0.137041199	0.042237429
2019-10-20T02:45:00	0.2480	10.494	192.0	0.628545566	0.782475782	0.013277635	0.136982912	0.042219464
2019-10-20T02:50:00	0.2472	10.489	192.0	0.626084096	0.778812755	0.013180953	0.135985462	0.041912040
2019-10-20T02:55:00	0.2462	10.484	191.9	0.622626392	0.773675828	0.013045759	0.134590691	0.041482158
2019-10-20T03:00:00	0.2490	10.477	191.9	0.631754571	0.787258947	0.013404229	0.138288961	0.042622001
2019-10-20T03:05:00	0.2492	10.470	191.8	0.632603184	0.788525300	0.013437811	0.138635417	0.042728782
2019-10-20T03:10:00	0.2499	10.462	191.8	0.634773577	0.791766870	0.013523897	0.139523554	0.043002514
2019-10-20T03:15:00	0.2522	10.454	191.8	0.642552256	0.803417463	0.013834779	0.142730860	0.043991037
2019-10-20T03:20:00	0.2527	10.450	179.3	0.644057541	0.805677954	0.013895363	0.143355900	0.044183681
2019-10-20T03:25:00	0.2526	10.445	191.8	0.643914604	0.805463222	0.013889604	0.143296487	0.044165369
2019-10-20T03:30:00	0.2532	10.440	191.7	0.645748761	0.808219962	0.013963596	0.144059844	0.044400643
2019-10-20T03:35:00	0.2530	10.436	179.3	0.645276437	0.807509785	0.013944522	0.143863066	0.044339994
2019-10-20T03:40:00	0.2530	10.432	179.3	0.645133548	0.807294978	0.013938755	0.143803563	0.044321655
2019-10-20T03:45:00	0.2527	10.428	191.6	0.644002032	0.805594562	0.013893127	0.143332826	0.044176569
2019-10-20T03:50:00	0.2544	10.426	191.6	0.649786991	0.814299524	0.014127224	0.145747966	0.044920938
2019-10-20T03:55:00	0.2525	10.422	191.6	0.643386521	0.804670043	0.013868339	0.143077096	0.044097751
2019-10-20T04:00:00	0.2539	10.421	191.6	0.648184994	0.811886053	0.014062192	0.145077047	0.044714155
2019-10-20T04:05:00	0.2529	10.419	179.2	0.644754450	0.806725157	0.013923459	0.143645760	0.044273018
2019-10-20T04:10:00	0.2545	10.418	179.2	0.650215086	0.814944836	0.014144629	0.145927526	0.044976281
2019-10-20T04:15:00	0.2544	10.416	191.5	0.649749237	0.814242620	0.014125690	0.145732135	0.044916059
2019-10-20T04:20:00	0.2539	10.413	191.5	0.647966675	0.811557316	0.014053342	0.144985740	0.044686013
2019-10-20T04:25:00	0.2521	10.411	191.5	0.642228423	0.802931414	0.013821763	0.142596580	0.043949651
2019-10-20T04:30:00	0.2522	10.410	191.4	0.642421061	0.803220538	0.013829505	0.142676451	0.043974268
2019-10-20T04:35:00	0.2496	10.407	191.5	0.634030893	0.790657192	0.013494407	0.139219312	0.042908744
2019-10-20T04:40:00	0.2487	10.406	191.5	0.630917596	0.786010559	0.013371151	0.137947696	0.042516820
2019-10-20T04:45:00	0.2491	10.406	191.5	0.632103022	0.787778853	0.013418013	0.138431165	0.042665830
2019-10-20T04:50:00	0.2469	10.403	191.5	0.625014213	0.777222208	0.013139044	0.135553096	0.041778781
2019-10-20T04:55:00	0.2488	10.399	191.5	0.631166551	0.786381825	0.013380985	0.138049158	0.042548091
2019-10-20T05:00:00	0.2487	10.394	191.4	0.631029019	0.786176717	0.013375552	0.137993102	0.042530814
2019-10-20T05:05:00	0.2467	10.389	191.4	0.624269500	0.776115647	0.013109913	0.135252561	0.041686153
2019-10-20T05:10:00	0.2474	10.382	191.3	0.626782070	0.779850921	0.013208331	0.136267915	0.041999095
2019-10-20T05:15:00	0.2462	10.375	178.9	0.622667926	0.773737473	0.013047379	0.134607401	0.041487308
2019-10-20T05:20:00	0.2482	10.369	191.3	0.629155270	0.783383903	0.013301640	0.137230564	0.042295793
2019-10-20T05:25:00	0.2475	10.362	191.2	0.627031313	0.780221746	0.013218115	0.136368851	0.042030204
2019-10-20T05:30:00	0.2460	10.355	191.2	0.621922723	0.772631660	0.013018334	0.134307757	0.041394955
2019-10-20T05:35:00	0.2457	10.349	178.8	0.621121499	0.771443240	0.012987144	0.133985972	0.041295778
2019-10-20T05:40:00	0.2452	10.342	191.1	0.619324636	0.768780000	0.012917336	0.133265774	0.041073806
2019-10-20T05:45:00	0.2446	10.336	178.6	0.617194817	0.765626791	0.012834844	0.132414724	0.040811504
2019-10-20T05:50:00	0.2438	10.330	178.7	0.614731444	0.761984516	0.012739774	0.131433905	0.040509206
2019-10-20T05:55:00	0.2422	10.323	191.0	0.609272378	0.753931077	0.012530391	0.129273731	0.039843419
2019-10-20T06:00:00	0.2435	10.316	178.7	0.613790402	0.760594465	0.012703553	0.131060213	0.040394030
2019-10-20T06:05:00	0.2453	10.310	190.9	0.619630289	0.769232836	0.012929197	0.133388141	0.041111520
2019-10-20T06:10:00	0.2427	10.306	190.9	0.611186370	0.756751825	0.012603598	0.130029002	0.040076201
2019-10-20T06:15:00	0.2406	10.307	178.6	0.604055762	0.746258685	0.012331978	0.127226740	0.039212517
2019-10-20T06:20:00	0.2408	10.313	178.6	0.604583733	0.747034165	0.012351985	0.127433149	0.039276134
2019-10-20T06:25:00	0.2427	10.315	190.9	0.611104088	0.756630499	0.012600447	0.129996487	0.040066180
2019-10-20T06:30:00	0.2431	10.318	178.7	0.612296118	0.758388728	0.012646146	0.130467954	0.040211491
2019-10-20T06:35:00	0.2436	10.322	191.0	0.614152507	0.761129257	0.012717484	0.131203941	0.040438329
2019-10-20T06:40:00	0.2441	10.327	178.7	0.615675737	0.763380117	0.012776175	0.131809440	0.040624950
2019-10-20T06:45:00	0.2452	10.331	191.0	0.619190143	0.768580769	0.012912119	0.133211949	0.041057216
2019-10-20T06:50:00	0.2434	10.334	178.7	0.613405519	0.760026154	0.012688754	0.130907532	0.040346973
2019-10-20T06:55:00	0.2430	10.336	178.8	0.611937327	0.757859390	0.012632382	0.130325954	0.040167725
2019-10-20T07:00:00	0.2448	10.338	178.7	0.618112248	0.766984585	0.012870345	0.132780973	0.040924385
2019-10-20T07:05:00	0.2451	10.340	178.7	0.618970049	0.768254767	0.012903583	0.133123890	0.041030076
2019-10-20T07:10:00	0.2470	10.341	191.1	0.625132801	0.777398459	0.013143686	0.135600985	0.041793541
2019-10-20T07:15:00	0.2465	10.344	191.1	0.623669435	0.775224358	0.013086465	0.135010650	0.041611594
2019-10-20T07:20:00	0.2461	10.348	191.1	0.622205469	0.773051174	0.013029351	0.134421408	0.041429983
2019-10-20T07:25:00	0.2479	10.352	178.8	0.628362641	0.782203387	0.013270437	0.136908657	0.042196578
2019-10-20T07:30:00	0.2478	10.355	178.8	0.627893947	0.781505579	0.013252005	0.136718492	0.042137967
2019-10-20T07:35:00	0.2450	10.358	178.8	0.618805843	0.768011573	0.012897217	0.133058211	0.041009833
2019-10-20T07:40:00	0.2479	10.360	178.9	0.628280755	0.782081460	0.013267216	0.136875423	0.042186335
2019-10-20T07:45:00	0.2492	10.366	178.9	0.632444136	0.788287912	0.013431514	0.138570450	0.042708758
2019-10-20T07:50:00	0.2465	10.372	191.2	0.623699093	0.775268403	0.013087624	0.135022602	0.041615277
2019-10-20T07:55:00	0.2462	10.378	179.0	0.622566719	0.773587264	0.013043432	0.134566686	0.041474760
2019-10-20T08:00:00	0.2467	10.387	179.0	0.624417764	0.776335914	0.013115710	0.135312367	0.041704585
2019-10-20T08:05:00	0.2479	10.396	179.1	0.628254622	0.782042548	0.013266188	0.136864817	0.042183066
2019-10-20T08:10:00	0.2481	10.407	179.1	0.628779016	0.782823455	0.013286823	0.137077708	0.042248681
2019-10-20T08:15:00	0.2478	10.420	179.2	0.627979329	0.781632685	0.013255362	0.136753124	0.042148641
2019-10-20T08:20:00	0.2499	10.433	179.2	0.634787500	0.791787676	0.013524450	0.139529261	0.043004273
2019-10-20T08:25:00	0.2480	10.449	191.7	0.628697139	0.782701513	0.013283600	0.137044457	0.042238433
2019-10-20T08:30:00	0.2494	10.465	179.4	0.633190631	0.789402282	0.013461083	0.138875513	0.042802782
2019-10-20T08:35:00	0.2503	10.481	191.9	0.636357583	0.794135166	0.013586905	0.140173598	0.043202864
2019-10-20T08:40:00	0.2507	10.500	192.0	0.637541210	0.795906234	0.013634087	0.140660361	0.043352889
2019-10-20T08:45:00	0.2506	10.523	192.1	0.637073716	0.795206577	0.013615442	0.140468001	0.043293602
2019-10-20T08:50:00	0.2505	10.549	192.2	0.636936410	0.795001120	0.013609968	0.140411529	0.043276197
2019-10-20T08:55:00	0.2492	10.582	192.3	0.632503307	0.788376226	0.013433856	0.138594618	0.042716207
2019-10-20T09:00:00	0.2506	10.615	192.4	0.637322244	0.795578503	0.013625352	0.140570245	0.043325115
2019-10-20T09:05:00	0.2492	10.650	192.7	0.632558994	0.788459342	0.013436061	0.138617365	0.042723218
2019-10-20T09:10:00	0.2506	10.690	192.9	0.637047646	0.795167567	0.013614402	0.140457278	0.043290297
2019-10-20T09:15:00	0.2485	10.732	180.6	0.630299498	0.785089016	0.013346750	0.137695957	0.042439231
2019-10-20T09:20:00	0.2450	10.776	193.4	0.618563018	0.767651982	0.012887806	0.132961117	0.040979908
2019-10-20T09:25:00	0.2457	10.822	181.1	0.621079609	0.771381121	0.012985514	0.133969159	0.041290596
2019-10-20T09:30:00	0.2447	10.869	181.3	0.617622988	0.766260395	0.012851406	0.132585590	0.040864167
2019-10-20T09:35:00	0.2462	10.913	181.5	0.622793576	0.773923972	0.013052279	0.134657959	0.041502891
2019-10-20T09:40:00	0.2470	10.960	181.8	0.625307184	0.777657659	0.013150513	0.135671422	0.041815250
2019-10-20T09:45:00	0.2483	11.009	182.0	0.629474027	0.783858799	0.013314198	0.137360130	0.042335726
2019-10-20T09:50:00	0.2472	11.054	182.2	0.626025532	0.778725664	0.013178657	0.135961777	0.041904740
2019-10-20T09:55:00	0.2485	11.090	182.4	0.630191537	0.784928087	0.013342490	0.137652011	0.042425687
2019-10-20T10:00:00	0.2491	11.120	182.5	0.632369309	0.788176237	0.013428551	0.138539890	0.042699340
2019-10-20T10:05:00	0.2468	11.145	182.6	0.624709208	0.776768948	0.013127109	0.135429967	0.041740831
2019-10-20T10:10:00	0.2476	11.171	182.8	0.627312268	0.780639813	0.013229148	0.136482676	0.042065286
2019-10-20T10:15:00	0.2464	11.190	195.5	0.623289636	0.774660392	0.013071636	0.134857654	0.041564439
2019-10-20T10:20:00	0.2452	11.200	195.5	0.619262464	0.768687901	0.012914924	0.133240891	0.041066137
2019-10-20T10:25:00	0.2469	11.207	195.6	0.624852913	0.776982494	0.013132732	0.135487973	0.041758709
2019-10-20T10:30:00	0.2502	11.215	195.6	0.635724072	0.793187729	0.013561687	0.139913430	0.043122678
2019-10-20T10:35:00	0.2472	11.229	195.8	0.626084284	0.778813034	0.013180960	0.135985538	0.041912064
2019-10-20T10:40:00	0.2488	11.242	195.8	0.631333336	0.786630580	0.013387576	0.138117153	0.042569048
2019-10-20T10:45:00	0.2450	11.253	196.0	0.618695617	0.767848337	0.012892945	0.133014133	0.040996247
2019-10-20T10:50:00	0.2453	11.263	195.9	0.619644271	0.769253552	0.012929740	0.133393740	0.041113246
2019-10-20T10:55:00	0.2453	11.268	196.0	0.619597290	0.769183942	0.012927916	0.133374927	0.041107448
2019-10-20T11:00:00	0.2439	11.267	196.0	0.614901445	0.762235711	0.012746324	0.131501472	0.040530031
2019-10-20T11:05:00	0.2434	11.267	196.0	0.613192598	0.759711812	0.012680570	0.130823107	0.040320952
2019-10-20T11:10:00	0.2417	11.269	196.0	0.607822462	0.751796307	0.012475080	0.128703097	0.039667544
2019-10-20T11:15:00	0.2418	11.271	196.0	0.608108254	0.752216951	0.012485972	0.128815471	0.039702179
2019-10-20T11:20:00	0.2412	11.275	196.1	0.606063044	0.749208214	0.012408131	0.128012401	0.039454665
2019-10-20T11:25:00	0.2416	11.278	196.1	0.607348076	0.751098233	0.012457010	0.128516679	0.039610088
2019-10-20T11:30:00	0.2421	11.280	196.1	0.608965494	0.753479091	0.012518673	0.129152844	0.039806161
2019-10-20T11:35:00	0.2430	11.282	196.1	0.611912655	0.757822995	0.012631436	0.130316192	0.040164716
2019-10-20T11:40:00	0.2428	11.283	196.1	0.611200385	0.756772491	0.012604135	0.130034541	0.040077908
2019-10-20T11:45:00	0.2424	11.281	196.2	0.610155264	0.755231849	0.012564133	0.129621840	0.039950710
2019-10-20T11:50:00	0.2435	11.280	196.1	0.613766270	0.760558829	0.012702625	0.131050637	0.040391079
2019-10-20T11:55:00	0.2414	11.277	196.1	0.606732174	0.750192195	0.012433571	0.128274856	0.039535557
2019-10-20T12:00:00	0.2431	11.276	196.1	0.612342329	0.758456914	0.012647919	0.130486249	0.040217129
2019-10-20T12:05:00	0.2433	11.275	196.0	0.612960234	0.759368809	0.012671643	0.130731005	0.040292565
2019-10-20T12:10:00	0.2433	11.275	196.1	0.612913164	0.759299333	0.012669835	0.130712352	0.040286816
2019-10-20T12:15:00	0.2445	11.276	196.1	0.616853484	0.765121800	0.012821649	0.132278594	0.040769547
2019-10-20T12:20:00	0.2433	11.278	196.2	0.613151481	0.759651113	0.012678990	0.130806807	0.040315928
2019-10-20T12:25:00	0.2444	11.281	196.2	0.616759447	0.764982693	0.012818015	0.132241103	0.040757992
2019-10-20T12:30:00	0.2448	11.286	196.1	0.618040618	0.766878547	0.012867571	0.132752359	0.040915566
2019-10-20T12:35:00	0.2442	11.291	196.2	0.616001118	0.763861183	0.012788730	0.131938969	0.040664872
2019-10-20T12:40:00	0.2448	11.294	196.2	0.617946612	0.766739392	0.012863932	0.132714811	0.040903994
2019-10-20T12:45:00	0.2434	11.298	196.2	0.613248588	0.759794467	0.012682722	0.130845305	0.040327794
2019-10-20T12:50:00	0.2423	11.300	183.6	0.609542827	0.754329464	0.012540722	0.129380314	0.039876269
2019-10-20T12:55:00	0.2439	11.300	196.2	0.615148547	0.762600874	0.012755846	0.131599714	0.040560310
2019-10-20T13:00:00	0.2450	11.301	196.3	0.618754490	0.767935522	0.012895226	0.133037674	0.041003503
2019-10-20T13:05:00	0.2463	11.298	196.2	0.623019892	0.774259921	0.013061108	0.134749046	0.041530965
2019-10-20T13:10:00	0.2439	11.297	196.3	0.615007423	0.762392318	0.012750407	0.131543602	0.040543016
2019-10-20T13:15:00	0.2451	11.296	196.3	0.618945426	0.768218298	0.012902629	0.133114040	0.041027040
2019-10-20T13:20:00	0.2444	11.295	196.4	0.616574337	0.764708886	0.012810864	0.132167318	0.040735251
2019-10-20T13:25:00	0.2435	11.293	183.6	0.613536918	0.760220161	0.012693805	0.130959647	0.040363035
2019-10-20T13:30:00	0.2451	11.290	196.2	0.619136351	0.768501090	0.012910032	0.133190424	0.041050582
2019-10-20T13:35:00	0.2455	11.287	196.3	0.620416668	0.770398243	0.012959738	0.133703230	0.041208634
2019-10-20T13:40:00	0.2459	11.283	196.3	0.621696524	0.772296095	0.013009525	0.134216871	0.041366943
2019-10-20T13:45:00	0.2418	11.279	196.3	0.608025901	0.752095733	0.012482833	0.128783085	0.039692197
2019-10-20T13:50:00	0.2409	11.274	196.3	0.604981159	0.747618058	0.012367056	0.127588636	0.039324057
2019-10-20T13:55:00	0.2416	11.268	196.2	0.607265706	0.750977042	0.012453874	0.128484324	0.039600116
2019-10-20T14:00:00	0.2417	11.261	196.2	0.607551543	0.751397618	0.012464759	0.128596617	0.039634726
2019-10-20T14:05:00	0.2407	11.251	196.1	0.604506393	0.746920555	0.012349053	0.127402903	0.039266812
2019-10-20T14:10:00	0.2410	11.243	196.0	0.605458843	0.748320037	0.012385183	0.127775651	0.039381697
2019-10-20T14:15:00	0.2408	11.238	196.0	0.604745275	0.747271485	0.012358110	0.127496338	0.039295610
2019-10-20T14:20:00	0.2406	11.234	196.0	0.604031564	0.746223149	0.012331061	0.127217284	0.039209602
2019-10-20T14:25:00	0.2392	11.232	196.1	0.599315069	0.739306038	0.012153080	0.125381087	0.038643669
2019-10-20T14:30:00	0.2395	11.229	195.9	0.600268916	0.740703427	0.012188967	0.125751325	0.038757780
2019-10-20T14:35:00	0.2390	11.223	196.0	0.598553001	0.738190152	0.012124448	0.125085692	0.038552625
2019-10-20T14:40:00	0.2383	11.217	195.9	0.596502262	0.735189692	0.012047570	0.124292556	0.038308173
2019-10-20T14:45:00	0.2365	11.210	195.9	0.590437627	0.726337004	0.011821688	0.121962177	0.037589927
2019-10-20T14:50:00	0.2379	11.205	196.0	0.595071364	0.733098210	0.011994077	0.123740682	0.038138080
2019-10-20T14:55:00	0.2381	11.198	195.8	0.595692288	0.734005578	0.012017275	0.123980007	0.038211842
2019-10-20T15:00:00	0.2391	11.193	195.8	0.598984298	0.738821634	0.012140648	0.125252828	0.038604138
2019-10-20T15:05:00	0.2389	11.186	195.8	0.598269424	0.737775037	0.012113802	0.124975862	0.038518774
2019-10-20T15:10:00	0.2387	11.179	195.8	0.597554405	0.736728656	0.012086981	0.124699155	0.038433491
2019-10-20T15:15:00	0.2381	11.172	195.8	0.595837172	0.734217346	0.012022691	0.124035885	0.038229064
2019-10-20T15:20:00	0.2385	11.164	195.8	0.597125922	0.736101804	0.012070923	0.124533486	0.038382430
2019-10-20T15:25:00	0.2374	11.155	195.8	0.593403244	0.730662150	0.011931870	0.123098908	0.037940279
2019-10-20T15:30:00	0.2373	11.145	195.7	0.593021592	0.730105126	0.011917661	0.122952316	0.037895098
2019-10-20T15:35:00	0.2376	11.134	183.0	0.593977140	0.731499983	0.011953253	0.123319509	0.038008270
2019-10-20T15:40:00	0.2373	11.123	182.9	0.592926921	0.729966971	0.011914138	0.122915967	0.037883895
2019-10-20T15:45:00	0.2383	11.111	195.6	0.596221508	0.734779192	0.012037064	0.124184174	0.038274769
2019-10-20T15:50:00	0.2357	11.099	195.5	0.587813349	0.722515790	0.011724625	0.120960791	0.037281291
2019-10-20T15:55:00	0.2369	11.087	195.5	0.591781688	0.728296313	0.011871559	0.122476689	0.037748505
2019-10-20T16:00:00	0.2356	11.076	195.4	0.587383681	0.721890697	0.011708772	0.120797239	0.037230882
2019-10-20T16:05:00	0.2369	11.066	195.4	0.591595268	0.728024470	0.011864636	0.122405261	0.037726490
2019-10-20T16:10:00	0.2360	11.056	182.7	0.588779294	0.723921637	0.011760304	0.121328889	0.037394742
2019-10-20T16:15:00	0.2352	11.046	195.3	0.585961068	0.719822134	0.011656362	0.120256534	0.037064232
2019-10-20T16:20:00	0.2365	11.036	195.3	0.590174355	0.725953394	0.011811932	0.121861525	0.037558905
2019-10-20T16:25:00	0.2344	11.026	182.5	0.583336449	0.716010203	0.011559985	0.119262232	0.036757778
2019-10-20T16:30:00	0.2348	11.017	182.6	0.584537879	0.717754419	0.011604051	0.119716853	0.036897897
2019-10-20T16:35:00	0.2361	11.011	195.1	0.589087595	0.724370504	0.011771704	0.121446496	0.037430989
2019-10-20T16:40:00	0.2374	11.006	182.5	0.593297148	0.730507289	0.011927920	0.123058147	0.037927716
2019-10-20T16:45:00	0.2357	11.003	195.1	0.587804892	0.722503485	0.011724312	0.120957571	0.037280298
2019-10-20T16:50:00	0.2357	11.003	182.5	0.587665670	0.722300925	0.011719175	0.120904564	0.037263961
2019-10-20T16:55:00	0.2371	11.003	195.1	0.592211350	0.728922973	0.011887525	0.122641400	0.037799271
2019-10-20T17:00:00	0.2378	11.005	195.1	0.594746705	0.732623909	0.011981957	0.123615642	0.038099541
2019-10-20T17:05:00	0.2378	11.007	182.5	0.594607757	0.732420942	0.011976772	0.123562147	0.038083054
2019-10-20T17:10:00	0.2392	11.007	182.5	0.599478251	0.739545046	0.012159216	0.125444386	0.038663178
2019-10-20T17:15:00	0.2396	11.005	195.1	0.600674195	0.741297394	0.012204231	0.125908805	0.038806317
2019-10-20T17:20:00	0.2396	11.003	195.1	0.600535480	0.741094080	0.012199006	0.125854893	0.038789700
2019-10-20T17:25:00	0.2390	11.000	195.1	0.598728165	0.738446599	0.012131026	0.125153558	0.038573542
2019-10-20T17:30:00	0.2387	10.996	182.5	0.597587800	0.736777517	0.012088233	0.124712071	0.038437471
2019-10-20T17:35:00	0.2415	10.992	195.0	0.607119365	0.750761745	0.012448303	0.128426852	0.039582403
2019-10-20T17:40:00	0.2406	10.985	195.0	0.603982450	0.746151024	0.012329201	0.127198092	0.039203687
2019-10-20T17:45:00	0.2405	10.978	195.0	0.603843864	0.745947516	0.012323953	0.127143947	0.039186999
2019-10-20T17:50:00	0.2395	10.972	194.9	0.600370420	0.740852175	0.012192789	0.125790757	0.038769933
2019-10-20T17:55:00	0.2387	10.965	194.9	0.597561440	0.736738948	0.012087245	0.124701875	0.038434329
2019-10-20T18:00:00	0.2394	10.958	194.9	0.600092959	0.740445592	0.012182343	0.125682985	0.038736716
2019-10-20T18:05:00	0.2370	10.950	182.2	0.591936770	0.728522483	0.011877321	0.122536127	0.037766824
2019-10-20T18:10:00	0.2370	10.942	182.2	0.592132149	0.728807447	0.011884581	0.122611030	0.037789910
2019-10-20T18:15:00	0.2369	10.935	182.2	0.591658647	0.728116887	0.011866989	0.122429542	0.037733974
2019-10-20T18:20:00	0.2377	10.928	182.1	0.594194399	0.731817233	0.011961353	0.123403075	0.038034026
2019-10-20T18:25:00	0.2375	10.921	182.1	0.593721174	0.731126263	0.011943714	0.123221092	0.037977937
2019-10-20T18:30:00	0.2374	10.914	194.6	0.593247885	0.730435387	0.011926085	0.123039224	0.037921884
2019-10-20T18:35:00	0.2380	10.907	182.0	0.595448404	0.733649148	0.012008160	0.123885978	0.038182862
2019-10-20T18:40:00	0.2386	10.900	182.0	0.597313638	0.736376405	0.012077956	0.124606050	0.038404795
2019-10-20T18:45:00	0.2371	10.893	181.9	0.592496475	0.729338911	0.011898125	0.122750766	0.037832978
2019-10-20T18:50:00	0.2390	10.885	194.4	0.598705330	0.738413165	0.012130168	0.125144709	0.038570815
2019-10-20T18:55:00	0.2382	10.877	181.9	0.595895026	0.734301912	0.012024854	0.124058201	0.038235942
2019-10-20T19:00:00	0.2380	10.870	181.8	0.595422028	0.733610603	0.012007175	0.123875811	0.038179728
2019-10-20T19:05:00	0.2379	10.862	181.8	0.594948967	0.732919388	0.011989507	0.123693534	0.038123549
2019-10-20T19:10:00	0.2390	10.854	194.3	0.598817766	0.738577789	0.012134391	0.125188280	0.038584244
2019-10-20T19:15:00	0.2371	10.847	194.2	0.592331038	0.729097566	0.011891974	0.122687303	0.037813418
2019-10-20T19:20:00	0.2388	10.840	181.7	0.597872491	0.737194099	0.012098909	0.124822213	0.038471418
2019-10-20T19:25:00	0.2393	10.833	181.6	0.599736446	0.739923262	0.012168927	0.125544576	0.038694058
2019-10-20T19:30:00	0.2373	10.825	181.6	0.592917075	0.729952603	0.011913772	0.122912187	0.037882730
2019-10-20T19:35:00	0.2387	10.819	194.1	0.597789899	0.737073238	0.012095811	0.124790254	0.038461568
2019-10-20T19:40:00	0.2361	10.812	181.5	0.588959001	0.724183269	0.011766948	0.121397434	0.037415868
2019-10-20T19:45:00	0.2362	10.806	181.5	0.589489232	0.724955383	0.011786563	0.121599795	0.037478238
2019-10-20T19:50:00	0.2380	10.799	181.5	0.595369276	0.733533514	0.012005204	0.123855478	0.038173461
2019-10-20T19:55:00	0.2358	10.792	181.5	0.587871865	0.722600933	0.011726784	0.120983074	0.037288158
2019-10-20T20:00:00	0.2367	10.785	181.4	0.591079448	0.727272433	0.011845489	0.122207730	0.037665609
2019-10-20T20:05:00	0.2346	10.778	181.4	0.583908114	0.716839987	0.011580942	0.119478440	0.036824415
2019-10-20T20:10:00	0.2357	10.771	181.3	0.587789040	0.722480420	0.011723727	0.120951535	0.037278438
2019-10-20T20:15:00	0.2346	10.764	181.3	0.583964569	0.716921948	0.011583012	0.119499802	0.036831000
2019-10-20T20:20:00	0.2326	10.759	181.3	0.577114564	0.706996555	0.011333150	0.116922017	0.036036501
2019-10-20T20:25:00	0.2320	10.754	193.8	0.575295186	0.704366890	0.011267254	0.116242178	0.035826968
2019-10-20T20:30:00	0.2336	10.750	181.3	0.580527993	0.711937612	0.011457311	0.118202962	0.036431301
2019-10-20T20:35:00	0.2328	10.747	181.2	0.578038921	0.708333640	0.011366704	0.117268193	0.036143196
2019-10-20T20:40:00	0.2308	10.744	181.2	0.571177323	0.698425202	0.011118832	0.114710944	0.035355027
2019-10-20T20:45:00	0.2295	10.740	193.7	0.566997882	0.692409004	0.010969217	0.113167393	0.034879289
2019-10-20T20:50:00	0.2295	10.737	181.2	0.566857831	0.692207655	0.010964222	0.113115854	0.034863405
2019-10-20T20:55:00	0.2277	10.735	181.2	0.560649179	0.683297803	0.010743921	0.110843049	0.034162904
2019-10-20T21:00:00	0.2304	10.736	181.2	0.569944740	0.696649429	0.011074601	0.114254618	0.035214383
2019-10-20T21:05:00	0.2321	10.739	181.2	0.575521556	0.704693929	0.011275442	0.116326655	0.035853005
2019-10-20T21:10:00	0.2318	10.742	181.2	0.574709745	0.703521298	0.011246091	0.116023849	0.035759677
2019-10-20T21:15:00	0.2308	10.744	181.2	0.571207425	0.698468586	0.011119914	0.114722100	0.035358465
2019-10-20T21:20:00	0.2306	10.745	193.7	0.570394613	0.697297412	0.011090734	0.114421062	0.035265683
2019-10-20T21:25:00	0.2295	10.748	181.2	0.566887970	0.692250985	0.010965297	0.113126944	0.034866823
2019-10-20T21:30:00	0.2283	10.752	181.2	0.562703392	0.686242225	0.010816558	0.111592439	0.034393874
2019-10-20T21:35:00	0.2280	10.760	181.2	0.561888599	0.685073919	0.010787717	0.111294890	0.034302166
2019-10-20T21:40:00	0.2281	10.771	181.3	0.562085658	0.685356426	0.010794689	0.111366816	0.034324334
2019-10-20T21:45:00	0.2294	10.781	181.3	0.566664589	0.691929860	0.010957331	0.113044760	0.034841493
2019-10-20T21:50:00	0.2294	10.789	181.3	0.566524525	0.691728530	0.010952337	0.112993244	0.034825615
2019-10-20T21:55:00	0.2285	10.796	181.4	0.563351187	0.687171467	0.010839516	0.111829291	0.034466874
2019-10-20T22:00:00	0.2294	10.805	181.4	0.566581261	0.691810081	0.010954360	0.113014110	0.034832046
2019-10-20T22:05:00	0.2299	10.815	181.5	0.568274216	0.694244724	0.011014798	0.113637639	0.035024224
2019-10-20T22:10:00	0.2300	10.823	181.5	0.568619939	0.694742200	0.011027161	0.113765186	0.035063535
2019-10-20T22:15:00	0.2305	10.827	181.5	0.570311908	0.697178273	0.011087768	0.114390454	0.035256249
2019-10-20T22:20:00	0.2312	10.831	181.6	0.572675679	0.700585564	0.011172722	0.115266911	0.035526382
2019-10-20T22:25:00	0.2285	10.836	181.6	0.563593415	0.687519026	0.010848107	0.111917923	0.034494191
2019-10-20T22:30:00	0.2283	10.843	181.7	0.562928097	0.686564517	0.010824519	0.111674569	0.034419187
2019-10-20T22:35:00	0.2287	10.850	181.7	0.564285753	0.688512685	0.010872681	0.112171445	0.034572329
2019-10-20T22:40:00	0.2317	10.856	181.8	0.574392756	0.703063568	0.011234641	0.115905722	0.035723269
2019-10-20T22:45:00	0.2335	10.864	181.7	0.580446590	0.711819666	0.011454342	0.118172332	0.036421860
2019-10-20T22:50:00	0.2323	10.871	194.3	0.576090956	0.705516732	0.011296052	0.116539281	0.035918538
2019-10-20T22:55:00	0.2303	10.879	181.8	0.569374530	0.695828357	0.011054170	0.114043830	0.035149416
2019-10-20T23:00:00	0.2298	10.882	194.4	0.567700187	0.693418945	0.010994286	0.113426023	0.034959002
2019-10-20T23:05:00	0.2317	10.885	181.8	0.574101743	0.702643420	0.011224135	0.115797328	0.035689861
2019-10-20T23:10:00	0.2281	10.889	181.9	0.561988735	0.685217471	0.010791260	0.111331437	0.034313430
2019-10-20T23:15:00	0.2307	10.892	181.9	0.570756780	0.697819187	0.011103731	0.114555146	0.035307009
2019-10-20T23:20:00	0.2300	10.895	181.8	0.568409787	0.694439790	0.011019645	0.113687646	0.035039637
2019-10-20T23:25:00	0.2312	10.898	194.5	0.572456743	0.700269782	0.011164839	0.115185589	0.035501317
2019-10-20T23:30:00	0.2304	10.900	182.0	0.569774350	0.696404048	0.011068494	0.114191610	0.035194963
2019-10-20T23:35:00	0.2318	10.902	182.0	0.574492001	0.703206869	0.011238225	0.115942699	0.035734666
2019-10-20T23:40:00	0.2308	10.902	181.9	0.571138380	0.698369078	0.011117434	0.114696512	0.035350579
2019-10-20T23:45:00	0.2300	10.901	181.9	0.568454976	0.694504814	0.011021261	0.113704317	0.035044775
2019-10-20T23:50:00	0.2319	10.900	181.9	0.574855153	0.703731294	0.011251345	0.116078057	0.035776384
2019-10-20T23:55:00	0.2321	10.898	181.9	0.575536246	0.704715153	0.011275973	0.116332138	0.035854695
2019-10-21T00:00:00	0.2325	10.896	181.9	0.576889019	0.706670412	0.011324970	0.116837629	0.036010492
2019-10-21T00:05:00	0.2304	10.894	194.5	0.569837589	0.696495118	0.011070760	0.114214993	0.035202170
2019-10-21T00:10:00	0.2306	10.894	181.9	0.570519659	0.697477554	0.011095221	0.114467349	0.035279949
2019-10-21T00:15:00	0.2295	10.894	181.9	0.566825402	0.692161035	0.010963065	0.113103921	0.034859727
2019-10-21T00:20:00	0.2302	10.892	194.5	0.569191530	0.695564904	0.011047616	0.113976222	0.035128579
2019-10-21T00:25:00	0.2297	10.889	181.9	0.567517100	0.693155620	0.010987748	0.113358571	0.034938212
2019-10-21T00:30:00	0.2294	10.885	181.8	0.566515673	0.691715806	0.010952022	0.112989989	0.034824612
2019-10-21T00:35:00	0.2292	10.881	181.8	0.565850911	0.690760493	0.010928339	0.112745656	0.034749306
2019-10-21T00:40:00	0.2277	10.877	181.8	0.560802282	0.683517134	0.010749326	0.110898813	0.034180091
2019-10-21T00:45:00	0.2266	10.873	181.8	0.557097720	0.678215494	0.010618926	0.109553504	0.033765454
2019-10-21T00:50:00	0.2251	10.869	181.8	0.552036382	0.670990401	0.010442074	0.107728948	0.033203108
2019-10-21T00:55:00	0.2228	10.865	181.8	0.544256462	0.659925511	0.010173162	0.104954636	0.032348038
2019-10-21T01:00:00	0.2222	10.860	194.4	0.542230774	0.657052639	0.010103726	0.104238283	0.032127251
2019-10-21T01:05:00	0.2224	10.856	194.4	0.542918274	0.658027289	0.010127265	0.104481129	0.032202099
2019-10-21T01:10:00	0.2228	10.852	181.8	0.544283764	0.659964254	0.010174099	0.104964308	0.032351019
2019-10-21T01:15:00	0.2199	10.848	181.7	0.534447030	0.646044770	0.009839153	0.101508725	0.031285975
2019-10-21T01:20:00	0.2198	10.845	181.8	0.534116145	0.645577925	0.009827984	0.101393501	0.031250462
2019-10-21T01:25:00	0.2175	10.840	181.8	0.526295772	0.634570108	0.009565878	0.098689400	0.030417032
2019-10-21T01:30:00	0.2163	10.836	181.7	0.522212899	0.628842887	0.009430452	0.097292238	0.029986413
2019-10-21T01:35:00	0.2145	10.833	181.7	0.516074895	0.620258289	0.009228683	0.095210617	0.029344837
2019-10-21T01:40:00	0.2155	10.830	181.7	0.519500510	0.625045582	0.009341020	0.096369585	0.029702042
2019-10-21T01:45:00	0.2167	10.828	181.7	0.523604913	0.630794004	0.009476515	0.097767463	0.030132882
2019-10-21T01:50:00	0.2198	10.829	181.7	0.534170910	0.645655186	0.009829832	0.101412567	0.031256338
2019-10-21T01:55:00	0.2224	10.827	181.7	0.543009316	0.658156385	0.010130384	0.104513309	0.032212017
2019-10-21T02:00:00	0.2207	10.828	181.7	0.536908260	0.649520126	0.009922428	0.102367866	0.031550770
2019-10-21T02:05:00	0.2241	10.830	181.7	0.548449728	0.665883165	0.010317660	0.106445400	0.032807506
2019-10-21T02:10:00	0.2259	10.830	181.7	0.554548676	0.674574084	0.010529670	0.108632660	0.033481641
2019-10-21T02:15:00	0.2263	10.829	181.7	0.555909600	0.676517553	0.010577276	0.109123804	0.033633016
2019-10-21T02:20:00	0.2256	10.827	181.6	0.553552593	0.673152593	0.010494895	0.108273895	0.033371066
2019-10-21T02:25:00	0.2263	10.826	181.6	0.555927741	0.676543469	0.010577911	0.109130359	0.033635036
2019-10-21T02:30:00	0.2276	10.824	181.7	0.560326670	0.682835849	0.010732539	0.110725629	0.034126714
2019-10-21T02:35:00	0.2275	10.822	181.6	0.559998245	0.682365507	0.010720955	0.110606119	0.034089880
2019-10-21T02:40:00	0.2272	10.819	181.6	0.558994658	0.680928811	0.010685597	0.110241334	0.033977450
2019-10-21T02:45:00	0.2291	10.817	194.2	0.565412170	0.690130189	0.010912722	0.112584544	0.034699650
2019-10-21T02:50:00	0.2282	10.812	181.6	0.562387109	0.685788651	0.010805358	0.111476890	0.034358260
2019-10-21T02:55:00	0.2300	10.808	181.6	0.568461725	0.694514527	0.011021502	0.113706807	0.035045542
2019-10-21T03:00:00	0.2301	10.802	181.6	0.568807429	0.695012029	0.011033868	0.113834387	0.035084864
2019-10-21T03:05:00	0.2300	10.796	181.5	0.568479801	0.694540536	0.011022149	0.113713476	0.035047598
2019-10-21T03:10:00	0.2311	10.789	181.5	0.572190368	0.699885628	0.011155253	0.115086686	0.035470834
2019-10-21T03:15:00	0.2281	10.782	181.4	0.562095095	0.685369955	0.010795023	0.111370261	0.034325396
2019-10-21T03:20:00	0.2303	10.774	181.4	0.569516805	0.696033200	0.011059266	0.114096406	0.035165620
2019-10-21T03:25:00	0.2291	10.766	181.4	0.565484534	0.690234138	0.010915297	0.112611109	0.034707837
2019-10-21T03:30:00	0.2311	10.758	181.3	0.572226480	0.699937704	0.011156552	0.115100091	0.035474966
2019-10-21T03:35:00	0.2309	10.749	181.3	0.571562802	0.698980817	0.011132684	0.114853845	0.035399071
2019-10-21T03:40:00	0.2311	10.741	181.2	0.572244536	0.699963742	0.011157202	0.115106794	0.035477032
2019-10-21T03:45:00	0.2340	10.732	181.2	0.581993262	0.714061607	0.011510821	0.118755017	0.036601450
2019-10-21T03:50:00	0.2313	10.723	181.2	0.572935163	0.700959882	0.011182068	0.115363332	0.035556099
2019-10-21T03:55:00	0.2325	10.715	181.1	0.576976895	0.706797479	0.011328157	0.116870504	0.036020625
2019-10-21T04:00:00	0.2337	10.705	181.1	0.581013976	0.712641876	0.011475044	0.118385915	0.036487689
2019-10-21T04:05:00	0.2336	10.695	180.9	0.580743994	0.712250606	0.011465191	0.118284260	0.036456358
2019-10-21T04:10:00	0.2351	10.685	181.0	0.585503357	0.719156954	0.011639525	0.120082832	0.037010695
2019-10-21T04:15:00	0.2333	10.674	180.9	0.579532789	0.710496021	0.011421039	0.117828759	0.036315968
2019-10-21T04:20:00	0.2348	10.662	180.7	0.584628942	0.717886672	0.011607394	0.119751348	0.036908528
2019-10-21T04:25:00	0.2345	10.649	180.6	0.583688853	0.716521692	0.011572901	0.119395490	0.036798849
2019-10-21T04:30:00	0.2338	10.637	180.6	0.581407000	0.713211571	0.011489396	0.118533979	0.036533324
2019-10-21T04:35:00	0.2329	10.625	180.7	0.578116538	0.708445946	0.011369524	0.117297285	0.036152162
2019-10-21T04:40:00	0.2324	10.613	180.6	0.576502946	0.706112239	0.011310976	0.116693251	0.035965993
2019-10-21T04:45:00	0.2300	10.600	180.6	0.568497533	0.694566053	0.011022783	0.113720018	0.035049614
2019-10-21T04:50:00	0.2309	10.586	180.5	0.571592025	0.699022942	0.011133734	0.114864682	0.035402411
2019-10-21T04:55:00	0.2310	10.574	180.4	0.571994068	0.699602572	0.011148191	0.115013828	0.035448379
2019-10-21T05:00:00	0.2291	10.560	180.3	0.565326522	0.690007164	0.010909675	0.112553106	0.034689960
2019-10-21T05:05:00	0.2279	10.549	180.3	0.561346228	0.684296534	0.010768541	0.111097049	0.034241190
2019-10-21T05:10:00	0.2260	10.538	180.2	0.554996290	0.675213132	0.010545315	0.108794075	0.033531391
2019-10-21T05:15:00	0.2277	10.528	192.7	0.560803199	0.683518448	0.010749358	0.110899148	0.034180194
2019-10-21T05:20:00	0.2268	10.516	180.1	0.557831015	0.679264023	0.010644674	0.109819138	0.033847325
2019-10-21T05:25:00	0.2278	10.504	180.1	0.561272364	0.684190683	0.010765930	0.111070120	0.034232890
2019-10-21T05:30:00	0.2288	10.493	180.0	0.564373259	0.688638304	0.010875789	0.112203509	0.034582211
2019-10-21T05:35:00	0.2278	10.480	180.0	0.561066737	0.683896032	0.010758666	0.110995169	0.034209789
2019-10-21T05:40:00	0.2264	10.467	192.3	0.556405943	0.677226735	0.010594665	0.109303209	0.033688311
2019-10-21T05:45:00	0.2269	10.454	179.6	0.558160716	0.679735603	0.010656261	0.109938677	0.033884168
2019-10-21T05:50:00	0.2270	10.442	179.7	0.558564308	0.680312993	0.010670453	0.110085098	0.033929296
2019-10-21T05:55:00	0.2271	10.430	179.7	0.558630237	0.680407325	0.010672772	0.110109025	0.033936671
2019-10-21T06:00:00	0.2288	10.419	192.0	0.564431099	0.688721339	0.010877843	0.112224706	0.034588744
2019-10-21T06:05:00	0.2315	10.408	191.9	0.573585862	0.701898793	0.011205522	0.115605306	0.035630678
2019-10-21T06:10:00	0.2324	10.396	191.9	0.576675862	0.706362221	0.011317242	0.116757904	0.035985920
2019-10-21T06:15:00	0.2319	10.387	191.8	0.575061607	0.704029483	0.011258808	0.116155044	0.035800113
2019-10-21T06:20:00	0.2326	10.378	179.4	0.577142903	0.707037538	0.011334178	0.116932623	0.036039770
2019-10-21T06:25:00	0.2343	10.372	179.4	0.582913183	0.715395999	0.011544481	0.119102279	0.036708479
2019-10-21T06:30:00	0.2361	10.365	179.3	0.589008740	0.724255689	0.011768787	0.121416410	0.037421717
2019-10-21T06:35:00	0.2340	10.360	179.3	0.582038124	0.714126665	0.011512461	0.118771940	0.036606665
2019-10-21T06:40:00	0.2326	10.353	179.3	0.577405213	0.707416904	0.011343695	0.117030810	0.036070032
2019-10-21T06:45:00	0.2339	10.348	179.2	0.581498296	0.713343925	0.011492731	0.118568387	0.036543928
2019-10-21T06:50:00	0.2338	10.343	179.2	0.581228351	0.712952601	0.011482871	0.118466665	0.036512577
2019-10-21T06:55:00	0.2297	10.340	191.5	0.567513247	0.693150079	0.010987610	0.113357152	0.034937775
2019-10-21T07:00:00	0.2311	10.338	179.2	0.572290589	0.700030156	0.011158859	0.115123892	0.035482302
2019-10-21T07:05:00	0.2326	10.336	179.2	0.577397263	0.707405406	0.011343407	0.117027834	0.036069115
2019-10-21T07:10:00	0.2319	10.334	191.4	0.574775255	0.703615905	0.011248458	0.116048270	0.035767204
2019-10-21T07:15:00	0.2304	10.336	179.1	0.569796192	0.696435502	0.011069277	0.114199686	0.035197452
2019-10-21T07:20:00	0.2297	10.336	179.1	0.567505275	0.693138614	0.010987326	0.113354215	0.034936870
2019-10-21T07:25:00	0.2281	10.337	179.2	0.562178568	0.685489633	0.010797977	0.111400736	0.034334789
2019-10-21T07:30:00	0.2292	10.339	179.1	0.565952574	0.690906567	0.010931959	0.112783004	0.034760817
2019-10-21T07:35:00	0.2277	10.342	179.2	0.560623495	0.683261012	0.010743014	0.110833696	0.034160021
2019-10-21T07:40:00	0.2292	10.347	179.2	0.565747223	0.690611518	0.010924647	0.112707569	0.034737567
2019-10-21T07:45:00	0.2264	10.353	179.2	0.556365955	0.677169592	0.010593264	0.109288750	0.033683854
2019-10-21T07:50:00	0.2235	10.360	191.5	0.546620551	0.663282560	0.010254501	0.105793794	0.032606675
2019-10-21T07:55:00	0.2229	10.371	179.3	0.544653340	0.660488766	0.010186794	0.105095276	0.032391385
2019-10-21T08:00:00	0.2226	10.383	191.7	0.543363318	0.658658423	0.010142518	0.104638484	0.032250597
2019-10-21T08:05:00	0.2234	10.399	191.8	0.546141384	0.662601764	0.010237988	0.105623436	0.032554169
2019-10-21T08:10:00	0.2240	10.415	191.9	0.548240005	0.665584854	0.010310409	0.106370588	0.032784448
2019-10-21T08:15:00	0.2255	10.433	179.6	0.553381975	0.672909189	0.010488944	0.108212503	0.033352144
2019-10-21T08:20:00	0.2252	10.450	192.1	0.552433445	0.671556450	0.010455893	0.107871523	0.033247051
2019-10-21T08:25:00	0.2265	10.467	192.1	0.556555865	0.677440986	0.010599921	0.109357429	0.033705022
2019-10-21T08:30:00	0.2316	10.484	192.2	0.573808649	0.702220339	0.011213558	0.115688212	0.035656231
2019-10-21T08:35:00	0.2304	10.504	192.3	0.569838009	0.696495721	0.011070775	0.114215148	0.035202218
2019-10-21T08:40:00	0.2321	10.526	180.0	0.575620312	0.704836616	0.011279015	0.116363518	0.035864366
2019-10-21T08:45:00	0.2330	10.549	180.1	0.578708521	0.709302661	0.011391043	0.117519288	0.036220586
2019-10-21T08:50:00	0.2338	10.573	192.7	0.581458594	0.713286367	0.011491281	0.118553423	0.036539316
2019-10-21T08:55:00	0.2355	10.598	180.3	0.586886894	0.721168148	0.011690456	0.120608280	0.037172643
2019-10-21T09:00:00	0.2355	10.625	192.9	0.586952292	0.721263253	0.011692866	0.120633146	0.037180307
2019-10-21T09:05:00	0.2341	10.659	180.6	0.582325859	0.714543975	0.011522985	0.118880509	0.036640128
2019-10-21T09:10:00	0.2336	10.700	180.7	0.580714201	0.712207433	0.011464104	0.118273045	0.036452901
2019-10-21T09:15:00	0.2335	10.740	180.9	0.580444196	0.711816197	0.011454254	0.118171431	0.036421583
2019-10-21T09:20:00	0.2322	10.776	181.1	0.575809179	0.705109520	0.011285850	0.116434034	0.035886100
2019-10-21T09:25:00	0.2343	10.811	181.3	0.582923095	0.715410381	0.011544844	0.119106023	0.036709633
2019-10-21T09:30:00	0.2346	10.854	181.5	0.583994296	0.716965106	0.011584103	0.119511052	0.036834467
2019-10-21T09:35:00	0.2350	10.898	181.7	0.585400248	0.719007132	0.011635734	0.120043720	0.036998640
2019-10-21T09:40:00	0.2336	10.950	182.0	0.580771772	0.712290861	0.011466204	0.118294717	0.036459581
2019-10-21T09:45:00	0.2341	11.012	182.3	0.582179013	0.714330991	0.011517613	0.118825094	0.036623048
2019-10-21T09:50:00	0.2351	11.076	182.5	0.585596520	0.719292332	0.011642951	0.120118177	0.037021589
2019-10-21T09:55:00	0.2344	11.128	195.4	0.583315906	0.715980389	0.011559232	0.119254466	0.036755385
2019-10-21T10:00:00	0.2325	11.182	195.7	0.577005768	0.706839230	0.011329204	0.116881307	0.036023954
2019-10-21T10:05:00	0.2337	11.230	196.0	0.580944820	0.712541646	0.011472520	0.118359872	0.036479662
2019-10-21T10:10:00	0.2318	11.273	196.2	0.574475632	0.703183233	0.011237634	0.115936600	0.035732786
2019-10-21T10:15:00	0.2323	11.312	196.4	0.576402579	0.705967150	0.011307339	0.116655732	0.035954429
2019-10-21T10:20:00	0.2317	11.346	196.6	0.574297315	0.702925769	0.011231195	0.115870167	0.035712311
2019-10-21T10:25:00	0.2301	11.372	196.7	0.568825922	0.695038645	0.011034530	0.113841214	0.035086968
2019-10-21T10:30:00	0.2297	11.397	196.8	0.567389734	0.692972453	0.010983201	0.113311659	0.034923754
2019-10-21T10:35:00	0.2275	11.427	197.0	0.560220524	0.682683826	0.010728795	0.110686996	0.034114807
2019-10-21T10:40:00	0.2281	11.466	197.2	0.562155341	0.685456331	0.010797155	0.111392256	0.034332175
2019-10-21T10:45:00	0.2289	11.505	197.5	0.564763231	0.689198202	0.010889645	0.112346459	0.034626270
2019-10-21T10:50:00	0.2286	11.530	184.8	0.563662533	0.687618207	0.010850559	0.111943219	0.034501987
2019-10-21T10:55:00	0.2272	11.544	184.8	0.559187331	0.681204570	0.010692381	0.110311320	0.033999020
2019-10-21T11:00:00	0.2274	11.558	197.8	0.559772893	0.682042830	0.010713011	0.110524155	0.034064618
2019-10-21T11:05:00	0.2277	11.575	185.0	0.560695806	0.683364598	0.010745567	0.110860030	0.034168138
2019-10-21T11:10:00	0.2286	11.590	197.9	0.563641951	0.687588672	0.010849829	0.111935686	0.034499665
2019-10-21T11:15:00	0.2291	11.605	198.0	0.565574872	0.690363912	0.010918512	0.112644277	0.034718060
2019-10-21T11:20:00	0.2285	11.624	198.0	0.563463081	0.687332011	0.010843484	0.111870229	0.034479491
2019-10-21T11:25:00	0.2276	11.647	198.1	0.560337755	0.682851725	0.010732930	0.110729663	0.034127958
2019-10-21T11:30:00	0.2293	11.677	198.2	0.566317529	0.691431019	0.010944960	0.112917132	0.034802157
2019-10-21T11:35:00	0.2271	11.706	198.5	0.558808513	0.680662425	0.010679045	0.110173741	0.033956617
2019-10-21T11:40:00	0.2288	11.734	185.7	0.564453853	0.688754005	0.010878652	0.112233045	0.034591314
2019-10-21T11:45:00	0.2282	11.764	198.8	0.562341383	0.685723084	0.010803740	0.111460190	0.034353113
2019-10-21T11:50:00	0.2299	11.795	186.0	0.568317729	0.694307331	0.011016353	0.113653688	0.035029170
2019-10-21T11:55:00	0.2308	11.826	186.1	0.571257455	0.698540692	0.011121711	0.114740642	0.035364180
2019-10-21T12:00:00	0.2294	11.848	186.2	0.566455121	0.691628773	0.010949863	0.112967721	0.034817749
2019-10-21T12:05:00	0.2291	11.868	199.2	0.565354957	0.690048007	0.010910687	0.112563543	0.034693177
2019-10-21T12:10:00	0.2290	11.888	186.4	0.565265567	0.689919612	0.010907507	0.112530735	0.034683066
2019-10-21T12:15:00	0.2295	11.904	186.5	0.566860769	0.692211878	0.010964326	0.113116934	0.034863738
2019-10-21T12:20:00	0.2305	11.918	186.6	0.570138258	0.696928145	0.011081540	0.114326201	0.035236445
2019-10-21T12:25:00	0.2306	11.933	186.6	0.570385504	0.697284291	0.011090408	0.114417691	0.035264644
2019-10-21T12:30:00	0.2320	11.951	186.7	0.575340210	0.704431934	0.011268882	0.116258977	0.035832146
2019-10-21T12:35:00	0.2307	11.964	186.8	0.570879945	0.697996657	0.011108153	0.114600764	0.035321068
2019-10-21T12:40:00	0.2307	11.977	186.8	0.570790696	0.697868057	0.011104949	0.114567707	0.035310880
2019-10-21T12:45:00	0.2292	11.988	186.9	0.565987720	0.690957069	0.010933211	0.112795918	0.034764797
2019-10-21T12:50:00	0.2297	12.000	187.0	0.567582593	0.693249812	0.010990087	0.113382697	0.034945648
2019-10-21T12:55:00	0.2277	12.008	187.0	0.560751223	0.683443986	0.010747523	0.110880215	0.034174359
2019-10-21T13:00:00	0.2271	12.011	187.0	0.558636508	0.680416299	0.010672993	0.110111302	0.033937373
2019-10-21T13:05:00	0.2271	12.015	187.1	0.558884571	0.680771265	0.010681722	0.110201357	0.033965128
2019-10-21T13:10:00	0.2280	12.018	187.2	0.561832246	0.684993135	0.010785724	0.111274326	0.034295828
2019-10-21T13:15:00	0.2282	12.025	187.2	0.562417364	0.685832035	0.010806429	0.111487940	0.034361666
2019-10-21T13:20:00	0.2292	12.034	187.3	0.565699022	0.690542268	0.010922931	0.112689866	0.034732111
2019-10-21T13:25:00	0.2310	12.047	187.3	0.572005992	0.699619765	0.011148620	0.115018253	0.035449743
2019-10-21T13:30:00	0.2295	12.063	187.5	0.566867865	0.692222080	0.010964580	0.113119546	0.034864543
2019-10-21T13:35:00	0.2298	12.077	187.5	0.567788904	0.693546553	0.010997455	0.113458716	0.034969078
2019-10-21T13:40:00	0.2258	12.087	187.6	0.554203240	0.674081027	0.010517603	0.108508174	0.033443273
2019-10-21T13:45:00	0.2298	12.092	187.6	0.567946996	0.693773962	0.011003103	0.113516985	0.034987037
2019-10-21T13:50:00	0.2302	12.093	187.7	0.569204379	0.695583400	0.011048076	0.113980969	0.035130041
2019-10-21T13:55:00	0.2312	12.093	187.7	0.572479673	0.700302853	0.011165665	0.115194105	0.035503942
2019-10-21T14:00:00	0.2320	12.095	187.7	0.575415908	0.704541293	0.011271620	0.116287225	0.035840852
2019-10-21T14:05:00	0.2309	12.092	187.6	0.571628562	0.699075613	0.011135048	0.114878232	0.035406587
2019-10-21T14:10:00	0.2313	12.093	187.7	0.572884623	0.700886972	0.011180247	0.115344549	0.035550310
2019-10-21T14:15:00	0.2292	12.098	187.7	0.565726691	0.690582020	0.010923916	0.112700028	0.034735243
2019-10-21T14:20:00	0.2314	12.106	187.6	0.573378711	0.701599852	0.011198053	0.115528245	0.035606927
2019-10-21T14:25:00	0.2289	12.111	187.7	0.564873934	0.689357166	0.010893580	0.112387056	0.034638782
2019-10-21T14:30:00	0.2260	12.111	187.7	0.554996711	0.675213733	0.010545330	0.108794227	0.033531437
2019-10-21T14:35:00	0.2260	12.108	187.8	0.554907055	0.675085720	0.010542195	0.108761886	0.033521470
2019-10-21T14:40:00	0.2258	12.104	187.8	0.554479377	0.674475163	0.010527248	0.108607681	0.033473942
2019-10-21T14:45:00	0.2247	12.100	187.7	0.550669226	0.669042386	0.010394561	0.107238768	0.033052030
2019-10-21T14:50:00	0.2242	12.097	187.7	0.548886969	0.666505211	0.010332787	0.106601457	0.032855604
2019-10-21T14:55:00	0.2245	12.092	187.7	0.549812774	0.667822838	0.010364852	0.106932273	0.032957565
2019-10-21T15:00:00	0.2268	12.084	200.7	0.557837479	0.679273268	0.010644901	0.109821481	0.033848047
2019-10-21T15:05:00	0.2255	12.077	187.6	0.553354782	0.672870398	0.010487996	0.108202720	0.033349129
2019-10-21T15:10:00	0.2240	12.068	187.6	0.548189068	0.665512407	0.010308648	0.106352421	0.032778849
2019-10-21T15:15:00	0.2252	12.061	187.6	0.552160747	0.671167680	0.010446401	0.107773594	0.033216868
2019-10-21T15:20:00	0.2226	12.055	187.7	0.543603947	0.658999735	0.010150769	0.104723614	0.032276835
2019-10-21T15:25:00	0.2248	12.047	187.8	0.550966302	0.669465548	0.010404876	0.107345185	0.033084829
2019-10-21T15:30:00	0.2259	12.041	187.7	0.554596801	0.674642784	0.010531351	0.108650009	0.033486988
2019-10-21T15:35:00	0.2234	12.036	187.7	0.546384852	0.662947657	0.010246377	0.105709979	0.032580842
2019-10-21T15:40:00	0.2239	12.030	187.7	0.547988727	0.665227484	0.010301724	0.106280987	0.032756832
2019-10-21T15:45:00	0.2245	12.024	187.7	0.549930356	0.667990234	0.010368929	0.106974325	0.032970526
2019-10-21T15:50:00	0.2251	12.018	187.7	0.551870901	0.670754530	0.010436317	0.107669556	0.033184803
2019-10-21T15:55:00	0.2245	12.008	187.6	0.550089260	0.668216476	0.010374438	0.107031169	0.032988046
2019-10-21T16:00:00	0.2253	11.996	187.6	0.552706198	0.671945359	0.010465392	0.107969518	0.033277254
2019-10-21T16:05:00	0.2253	11.983	187.5	0.552664367	0.671885710	0.010463935	0.107954486	0.033272621
2019-10-21T16:10:00	0.2260	11.968	187.4	0.554989246	0.675203074	0.010545069	0.108791534	0.033530607
2019-10-21T16:15:00	0.2285	11.954	187.3	0.563386971	0.687222808	0.010840785	0.111842382	0.034470908
2019-10-21T16:20:00	0.2293	11.940	187.2	0.566041641	0.691034549	0.010935131	0.112815731	0.034770904
2019-10-21T16:25:00	0.2296	11.926	187.1	0.567010586	0.692427269	0.010969670	0.113172068	0.034880731
2019-10-21T16:30:00	0.2283	11.913	187.1	0.562924659	0.686559586	0.010824397	0.111673312	0.034418799
2019-10-21T16:35:00	0.2268	11.897	187.0	0.557820955	0.679249636	0.010644320	0.109815491	0.033846201
2019-10-21T16:40:00	0.2272	11.881	187.0	0.559129786	0.681122208	0.010690354	0.110290415	0.033992577
2019-10-21T16:45:00	0.2283	11.864	186.8	0.562799532	0.686380113	0.010819964	0.111627575	0.034404703
2019-10-21T16:50:00	0.2309	11.848	186.7	0.571514910	0.698911780	0.011130962	0.114836086	0.035393597
2019-10-21T16:55:00	0.2298	11.831	186.5	0.567771016	0.693520823	0.010996816	0.113452124	0.034967046
2019-10-21T17:00:00	0.2305	11.814	199.4	0.570085848	0.696852659	0.011079660	0.114306812	0.035230470
2019-10-21T17:05:00	0.2304	11.797	199.4	0.569707678	0.696308040	0.011066104	0.114166960	0.035187366
2019-10-21T17:10:00	0.2296	11.779	199.3	0.567309284	0.692856763	0.010980329	0.113282033	0.034914623
2019-10-21T17:15:00	0.2319	11.761	199.1	0.575005427	0.703948337	0.011256777	0.116134092	0.035793655
2019-10-21T17:20:00	0.2323	11.743	186.2	0.576307839	0.705830206	0.011303907	0.116620322	0.035943516
2019-10-21T17:25:00	0.2329	11.725	186.1	0.578281313	0.708684379	0.011375512	0.117359057	0.036171201
2019-10-21T17:30:00	0.2318	11.707	198.8	0.574544649	0.703282891	0.011240127	0.115962318	0.035740713
2019-10-21T17:35:00	0.2320	11.688	198.8	0.575175220	0.704193593	0.011262915	0.116197422	0.035813174
2019-10-21T17:40:00	0.2300	11.669	198.7	0.568406355	0.694434852	0.011019522	0.113686380	0.035039246
2019-10-21T17:45:00	0.2327	11.650	198.6	0.577443630	0.707472469	0.011345089	0.117045194	0.036074466
2019-10-21T17:50:00	0.2333	11.630	198.4	0.579752082	0.710813605	0.011429027	0.117911163	0.036341365
2019-10-21T17:55:00	0.2336	11.611	198.4	0.580717241	0.712211839	0.011464215	0.118274190	0.036453254
2019-10-21T18:00:00	0.2337	11.591	198.3	0.581011240	0.712637911	0.011474944	0.118384885	0.036487371
2019-10-21T18:05:00	0.2341	11.571	198.1	0.582311426	0.714523040	0.011522457	0.118875062	0.036638449
2019-10-21T18:10:00	0.2320	11.551	198.0	0.575220322	0.704258744	0.011264546	0.116214247	0.035818360
2019-10-21T18:15:00	0.2318	11.530	198.0	0.574506620	0.703227977	0.011238753	0.115948146	0.035736345
2019-10-21T18:20:00	0.2312	11.511	197.9	0.572447830	0.700256927	0.011164518	0.115182279	0.035500297
2019-10-21T18:25:00	0.2308	11.490	197.7	0.571060760	0.698257217	0.011114646	0.114667750	0.035341714
2019-10-21T18:30:00	0.2300	11.472	197.7	0.568663295	0.694804593	0.011028712	0.113781186	0.035068467
2019-10-21T18:35:00	0.2337	11.453	197.5	0.581056267	0.712703171	0.011476588	0.118401843	0.036492598
2019-10-21T18:40:00	0.2335	11.433	197.5	0.580343751	0.711670669	0.011450591	0.118133640	0.036409935
2019-10-21T18:45:00	0.2349	11.413	197.4	0.584996778	0.718420957	0.011620905	0.119890734	0.036951489
2019-10-21T18:50:00	0.2359	11.393	197.3	0.588304773	0.723230916	0.011742770	0.121147989	0.037338987
2019-10-21T18:55:00	0.2353	11.375	197.1	0.586254059	0.720248023	0.011667146	0.120367792	0.037098523
2019-10-21T19:00:00	0.2359	11.356	197.1	0.588221957	0.723110388	0.011739711	0.121116432	0.037329261
2019-10-21T19:05:00	0.2367	11.339	184.2	0.590857905	0.726949503	0.011837271	0.122122941	0.037639477
2019-10-21T19:10:00	0.2351	11.322	184.1	0.585794755	0.719580415	0.011650242	0.120193403	0.037044774
2019-10-21T19:15:00	0.2360	11.305	184.0	0.588767276	0.723904140	0.011759860	0.121324306	0.037393329
2019-10-21T19:20:00	0.2355	11.288	183.9	0.587051751	0.721407901	0.011696532	0.120670969	0.037191964
2019-10-21T19:25:00	0.2356	11.270	183.8	0.587345221	0.721834752	0.011707353	0.120782605	0.037226372
2019-10-21T19:30:00	0.2356	11.252	183.7	0.587303802	0.721774504	0.011705826	0.120766846	0.037221515
2019-10-21T19:35:00	0.2373	11.234	183.7	0.592950816	0.730001841	0.011915027	0.122925141	0.037886722
2019-10-21T19:40:00	0.2380	11.217	196.3	0.595249122	0.733357939	0.012000716	0.123809172	0.038159189
2019-10-21T19:45:00	0.2357	11.201	183.5	0.587514419	0.722080882	0.011713594	0.120846992	0.037246217
2019-10-21T19:50:00	0.2372	11.185	196.2	0.592826756	0.729820807	0.011910411	0.122877514	0.037872043
2019-10-21T19:55:00	0.2364	11.167	183.3	0.590109510	0.725858918	0.011809530	0.121836740	0.037551267
2019-10-21T20:00:00	0.2361	11.150	183.3	0.589064128	0.724336335	0.011770836	0.121437542	0.037428230
2019-10-21T20:05:00	0.2346	11.133	183.2	0.583998397	0.716971059	0.011584253	0.119512603	0.036834945
2019-10-21T20:10:00	0.2371	11.118	183.1	0.592326948	0.729091599	0.011891822	0.122685734	0.037812935
2019-10-21T20:15:00	0.2353	11.100	183.0	0.586261116	0.720258282	0.011667406	0.120370473	0.037099349
2019-10-21T20:20:00	0.2341	11.084	182.9	0.582197587	0.714357930	0.011518293	0.118832103	0.036625208
2019-10-21T20:25:00	0.2338	11.067	182.9	0.581149852	0.712838817	0.011480005	0.118437093	0.036503462
2019-10-21T20:30:00	0.2344	11.049	182.8	0.583455870	0.716183523	0.011564361	0.119307381	0.036771694
2019-10-21T20:35:00	0.2365	11.032	182.7	0.590447632	0.726351582	0.011822059	0.121966002	0.037591106
2019-10-21T20:40:00	0.2357	11.015	182.6	0.587728550	0.722392410	0.011721495	0.120928503	0.037271339
2019-10-21T20:45:00	0.2351	10.998	182.5	0.585677500	0.719410012	0.011645929	0.120148905	0.037031059
2019-10-21T20:50:00	0.2361	10.983	182.4	0.588984856	0.724220914	0.011767904	0.121407298	0.037418908
2019-10-21T20:55:00	0.2353	10.968	182.3	0.586264645	0.720263411	0.011667536	0.120371813	0.037099762
2019-10-21T21:00:00	0.2348	10.951	194.9	0.584547900	0.717768972	0.011604419	0.119720649	0.036899067
2019-10-21T21:05:00	0.2346	10.936	182.2	0.583836092	0.716735430	0.011578300	0.119451189	0.036816017
2019-10-21T21:10:00	0.2343	10.918	182.1	0.583124139	0.715702100	0.011552207	0.119181986	0.036733045
2019-10-21T21:15:00	0.2351	10.902	182.0	0.585763905	0.719535580	0.011649108	0.120181695	0.037041166
2019-10-21T21:20:00	0.2335	10.886	181.9	0.580357888	0.711691151	0.011451107	0.118138959	0.036411575
2019-10-21T21:25:00	0.2329	10.869	181.8	0.578302532	0.708715085	0.011376283	0.117367013	0.036173653
2019-10-21T21:30:00	0.2331	10.854	181.8	0.578932428	0.709626774	0.011399187	0.117603313	0.036246483
2019-10-21T21:35:00	0.2331	10.837	181.7	0.578890910	0.709566672	0.011397677	0.117587730	0.036241680
2019-10-21T21:40:00	0.2335	10.821	181.6	0.580191881	0.711450649	0.011445054	0.118076514	0.036392328
2019-10-21T21:45:00	0.2336	10.806	181.5	0.580485923	0.711876657	0.011455776	0.118187132	0.036426422
2019-10-21T21:50:00	0.2325	10.790	181.4	0.577087479	0.706957389	0.011332167	0.116911882	0.036033377
2019-10-21T21:55:00	0.2336	10.773	181.4	0.580738445	0.712242566	0.011464988	0.118282172	0.036455714
2019-10-21T22:00:00	0.2332	10.758	181.3	0.579354653	0.710238072	0.011414553	0.117761843	0.036295344
2019-10-21T22:05:00	0.2320	10.741	181.2	0.575089811	0.704070221	0.011259827	0.116165564	0.035803355
2019-10-21T22:10:00	0.2328	10.725	181.2	0.577878242	0.708101166	0.011360868	0.117207981	0.036124638
2019-10-21T22:15:00	0.2323	10.710	181.1	0.576300077	0.705818986	0.011303626	0.116617421	0.035942622
2019-10-21T22:20:00	0.2337	10.695	181.0	0.581100951	0.712767937	0.011478219	0.118418673	0.036497785
2019-10-21T22:25:00	0.2340	10.681	193.5	0.581872803	0.713886928	0.011506417	0.118709583	0.036587447
2019-10-21T22:30:00	0.2352	10.668	180.9	0.585996128	0.719873093	0.011657652	0.120269845	0.037068334
2019-10-21T22:35:00	0.2346	10.654	193.4	0.584086437	0.717098882	0.011587483	0.119545924	0.036845215
2019-10-21T22:40:00	0.2333	10.640	193.3	0.579491734	0.710436569	0.011419544	0.117813335	0.036311214
2019-10-21T22:45:00	0.2324	10.626	193.2	0.576570934	0.706210525	0.011313439	0.116718669	0.035973827
2019-10-21T22:50:00	0.2342	10.612	180.7	0.582712963	0.715105510	0.011537150	0.119026653	0.036685171
2019-10-21T22:55:00	0.2364	10.598	193.0	0.589848336	0.725478436	0.011799856	0.121736943	0.037520508
2019-10-21T23:00:00	0.2355	10.585	180.5	0.586936132	0.721239752	0.011692271	0.120627001	0.037178413
2019-10-21T23:05:00	0.2366	10.571	180.4	0.590718992	0.726747040	0.011832119	0.122069793	0.037623096
2019-10-21T23:10:00	0.2357	10.556	192.7	0.587807509	0.722507292	0.011724409	0.120958567	0.037280605
2019-10-21T23:15:00	0.2362	10.542	192.6	0.589247345	0.724603123	0.011777613	0.121507458	0.037449779
2019-10-21T23:20:00	0.2376	10.531	192.6	0.594030594	0.731578036	0.011955246	0.123340067	0.038014606
2019-10-21T23:25:00	0.2361	10.518	192.5	0.589114170	0.724409199	0.011772686	0.121456636	0.037434115
2019-10-21T23:30:00	0.2349	10.505	192.5	0.584861164	0.718223964	0.011615923	0.119839336	0.036935647
2019-10-21T23:35:00	0.2371	10.492	180.0	0.592326607	0.729091101	0.011891809	0.122685604	0.037812895
2019-10-21T23:40:00	0.2344	10.479	179.9	0.583387066	0.716083663	0.011561840	0.119281367	0.036763676
2019-10-21T23:45:00	0.2363	10.467	179.8	0.589517207	0.724996125	0.011787598	0.121610476	0.037481530
2019-10-21T23:50:00	0.2352	10.455	192.2	0.585934772	0.719783914	0.011655394	0.120246552	0.037061155
2019-10-21T23:55:00	0.2361	10.442	179.7	0.589049343	0.724314807	0.011770289	0.121431901	0.037426491
2019-10-22T00:00:00	0.2369	10.431	179.7	0.591826728	0.728361998	0.011873232	0.122493950	0.037753825
2019-10-22T00:05:00	0.2376	10.419	192.0	0.593933489	0.731436248	0.011951626	0.123302723	0.038003097
2019-10-22T00:10:00	0.2364	10.406	191.9	0.590020938	0.725729879	0.011806249	0.121802891	0.037540834
2019-10-22T00:15:00	0.2371	10.395	191.9	0.592463184	0.729290343	0.011896887	0.122737994	0.037829042
2019-10-22T00:20:00	0.2355	10.383	191.8	0.586874793	0.721150550	0.011690010	0.120603679	0.037171225
2019-10-22T00:25:00	0.2373	10.372	191.7	0.592998872	0.730071968	0.011916816	0.122943592	0.037892409
2019-10-22T00:30:00	0.2390	10.359	191.7	0.598778561	0.738520386	0.012132919	0.125173087	0.038579561
2019-10-22T00:35:00	0.2398	10.348	191.6	0.601214760	0.742089845	0.012224606	0.126119011	0.038871104
2019-10-22T00:40:00	0.2395	10.337	191.6	0.600314377	0.740770048	0.012190679	0.125768985	0.038763223
2019-10-22T00:45:00	0.2396	10.326	191.5	0.600748444	0.741406226	0.012207029	0.125937667	0.038815212
2019-10-22T00:50:00	0.2396	10.314	191.5	0.600848876	0.741553444	0.012210814	0.125976712	0.038827246
2019-10-22T00:55:00	0.2407	10.305	191.4	0.604283614	0.746593324	0.012340610	0.127315797	0.039239965
2019-10-22T01:00:00	0.2388	10.294	179.0	0.598046251	0.737448393	0.012105427	0.124889462	0.038492145
2019-10-22T01:05:00	0.2381	10.283	178.9	0.595809021	0.734176198	0.012021638	0.124025027	0.038225718
2019-10-22T01:10:00	0.2378	10.272	191.2	0.594573085	0.732370299	0.011975478	0.123548800	0.038078940
2019-10-22T01:15:00	0.2388	10.259	178.8	0.598013920	0.737401075	0.012104214	0.124876947	0.038488288
2019-10-22T01:20:00	0.2395	10.247	178.8	0.600450646	0.740969748	0.012195810	0.125821927	0.038779540
2019-10-22T01:25:00	0.2387	10.234	178.7	0.597547182	0.736718087	0.012086710	0.124696361	0.038432629
2019-10-22T01:30:00	0.2385	10.222	178.6	0.596979843	0.735888132	0.012065451	0.124477031	0.038365030
2019-10-22T01:35:00	0.2400	10.210	178.6	0.602086133	0.743367765	0.012257487	0.126458236	0.038975657
2019-10-22T01:40:00	0.2399	10.200	178.5	0.601853040	0.743025858	0.012248687	0.126367447	0.038947674
2019-10-22T01:45:00	0.2400	10.188	178.5	0.601953441	0.743173122	0.012252477	0.126406549	0.038959726
2019-10-22T01:50:00	0.2380	10.178	178.4	0.595377866	0.733546067	0.012005525	0.123858789	0.038174482
2019-10-22T01:55:00	0.2380	10.169	178.4	0.595478451	0.733693057	0.012009283	0.123897560	0.038186431
2019-10-22T02:00:00	0.2381	10.158	178.3	0.595579033	0.733840052	0.012013042	0.123936337	0.038198383
2019-10-22T02:05:00	0.2383	10.147	178.3	0.596347720	0.734963722	0.012041786	0.124232890	0.038289783
2019-10-22T02:10:00	0.2363	10.135	178.2	0.589761690	0.725352223	0.011796648	0.121703844	0.037510307
2019-10-22T02:15:00	0.2367	10.124	178.1	0.590866203	0.726961598	0.011837579	0.122126117	0.037640455
2019-10-22T02:20:00	0.2381	10.115	178.1	0.595647259	0.733939765	0.012015592	0.123962643	0.038206491
2019-10-22T02:25:00	0.2360	10.106	178.0	0.588725191	0.723842874	0.011758304	0.121308257	0.037388383
2019-10-22T02:30:00	0.2363	10.097	178.0	0.589830029	0.725451769	0.011799179	0.121729950	0.037518353
2019-10-22T02:35:00	0.2368	10.086	177.9	0.591269039	0.727548821	0.011852525	0.122280314	0.037687980
2019-10-22T02:40:00	0.2371	10.076	177.9	0.592373080	0.729158896	0.011893537	0.122703429	0.037818389
2019-10-22T02:45:00	0.2384	10.065	177.8	0.596818134	0.735651619	0.012059395	0.124414552	0.038345773
2019-10-22T02:50:00	0.2382	10.055	177.8	0.595916631	0.734333494	0.012025662	0.124066535	0.038238511
2019-10-22T02:55:00	0.2372	10.042	177.7	0.592675083	0.729599497	0.011904768	0.122819300	0.037854101
2019-10-22T03:00:00	0.2356	10.031	177.7	0.587421913	0.721946311	0.011710182	0.120811787	0.037235366
2019-10-22T03:05:00	0.2348	10.020	177.6	0.584507701	0.717710592	0.011602943	0.119705423	0.036894374
2019-10-22T03:10:00	0.2350	10.009	177.6	0.585278806	0.718830682	0.011631269	0.119997662	0.036984445
2019-10-22T03:15:00	0.2361	9.998	177.5	0.589063446	0.724335342	0.011770810	0.121437282	0.037428150
2019-10-22T03:20:00	0.2352	9.988	177.4	0.586150593	0.720097617	0.011663337	0.120328497	0.037086411
2019-10-22T03:25:00	0.2334	9.977	177.4	0.579881051	0.711000399	0.011433726	0.117959639	0.036356306
2019-10-22T03:30:00	0.2349	9.967	177.3	0.585012149	0.718443287	0.011621470	0.119896561	0.036953285
2019-10-22T03:35:00	0.2347	9.956	177.3	0.584442789	0.717616325	0.011600560	0.119680839	0.036886797
2019-10-22T03:40:00	0.2328	9.946	177.2	0.577834429	0.708037781	0.011359277	0.117191565	0.036119579
2019-10-22T03:45:00	0.2329	9.937	177.2	0.578271274	0.708669851	0.011375147	0.117355293	0.036170041
2019-10-22T03:50:00	0.2320	9.928	177.1	0.575349458	0.704445294	0.011269216	0.116262428	0.035833210
2019-10-22T03:55:00	0.2346	9.920	177.1	0.583840875	0.716742375	0.011578476	0.119452999	0.036816574
2019-10-22T04:00:00	0.2345	9.911	177.0	0.583606574	0.716402261	0.011569885	0.119364370	0.036789258
2019-10-22T04:05:00	0.2350	9.902	177.0	0.585190454	0.718702319	0.011628022	0.119964159	0.036974119
2019-10-22T04:10:00	0.2346	9.894	177.0	0.584093156	0.717108638	0.011587729	0.119548467	0.036845999
2019-10-22T04:15:00	0.2359	9.884	176.9	0.588356077	0.723305586	0.011744665	0.121167541	0.037345013
2019-10-22T04:20:00	0.2347	9.876	176.9	0.584244516	0.717328409	0.011593283	0.119605763	0.036863658
2019-10-22T04:25:00	0.2358	9.868	176.8	0.587837658	0.722551161	0.011725522	0.120970048	0.037284144
2019-10-22T04:30:00	0.2342	9.859	176.8	0.582719686	0.715115262	0.011537396	0.119029192	0.036685953
2019-10-22T04:35:00	0.2350	9.850	176.7	0.585309319	0.718875015	0.011632391	0.120009233	0.036988011
2019-10-22T04:40:00	0.2345	9.843	176.7	0.583541645	0.716308019	0.011567505	0.119339816	0.036781690
2019-10-22T04:45:00	0.2361	9.836	176.7	0.589144308	0.724453084	0.011773801	0.121468136	0.037437659
2019-10-22T04:50:00	0.2354	9.829	176.6	0.586708751	0.720909099	0.011683892	0.120540558	0.037151771
2019-10-22T04:55:00	0.2338	9.823	176.6	0.581253694	0.712989336	0.011483797	0.118476213	0.036515519
2019-10-22T05:00:00	0.2344	9.816	176.6	0.583173923	0.715774343	0.011554030	0.119200800	0.036738844
2019-10-22T05:05:00	0.2348	9.809	176.5	0.584757998	0.718074115	0.011612134	0.119800243	0.036923598
2019-10-22T05:10:00	0.2354	9.801	176.5	0.586676316	0.720861936	0.011682697	0.120528229	0.037147971
2019-10-22T05:15:00	0.2396	9.793	176.5	0.600624317	0.741224286	0.012202352	0.125889418	0.038800341
2019-10-22T05:20:00	0.2390	9.784	176.4	0.598530505	0.738157218	0.012123603	0.125076977	0.038549939
2019-10-22T05:25:00	0.2393	9.775	176.4	0.599774015	0.739978300	0.012170340	0.125559158	0.038698552
2019-10-22T05:30:00	0.2391	9.767	176.3	0.599015033	0.738866640	0.012141803	0.125264743	0.038607810
2019-10-22T05:35:00	0.2376	9.757	176.3	0.593913273	0.731406730	0.011950873	0.123294949	0.038000701
2019-10-22T05:40:00	0.2374	9.747	176.2	0.593487339	0.730784903	0.011935002	0.123131221	0.037950238
2019-10-22T05:45:00	0.2381	9.738	187.9	0.595735008	0.734068018	0.012018872	0.123996482	0.038216920
2019-10-22T05:50:00	0.2394	9.730	176.2	0.599983889	0.740285781	0.012178238	0.125640632	0.038723663
2019-10-22T05:55:00	0.2399	9.723	176.1	0.601560434	0.742596720	0.012237645	0.126253526	0.038912563
2019-10-22T06:00:00	0.2403	9.715	176.0	0.603136277	0.744908708	0.012297174	0.126867680	0.039101851
2019-10-22T06:05:00	0.2387	9.707	176.0	0.597706588	0.736951328	0.012092687	0.124758022	0.038451634
2019-10-22T06:10:00	0.2398	9.699	176.0	0.601286051	0.742194373	0.012227295	0.126146747	0.038879653
2019-10-22T06:15:00	0.2400	9.693	176.0	0.602195139	0.743527672	0.012261604	0.126500705	0.038988746
2019-10-22T06:20:00	0.2392	9.685	175.9	0.599434857	0.739481486	0.012157584	0.125427552	0.038657990
2019-10-22T06:25:00	0.2394	9.678	175.9	0.600010760	0.740325152	0.012179249	0.125651065	0.038726879
2019-10-22T06:30:00	0.2368	9.672	175.9	0.591232781	0.727495961	0.011851179	0.122266431	0.037683702
2019-10-22T06:35:00	0.2360	9.666	175.8	0.588798668	0.723949842	0.011761020	0.121336278	0.037397019
2019-10-22T06:40:00	0.2346	9.660	175.8	0.584017303	0.716998508	0.011584947	0.119519759	0.036837150
2019-10-22T06:45:00	0.2338	9.656	175.8	0.581242751	0.712973474	0.011483397	0.118472090	0.036514249
2019-10-22T06:50:00	0.2337	9.654	175.8	0.580815282	0.712353914	0.011467792	0.118311098	0.036464629
2019-10-22T06:55:00	0.2342	9.654	175.7	0.582735751	0.715138569	0.011537985	0.119035259	0.036687823
2019-10-22T07:00:00	0.2314	9.659	175.7	0.573242153	0.701402803	0.011193130	0.115477460	0.035591275
2019-10-22T07:05:00	0.2329	9.666	175.8	0.578189819	0.708551982	0.011372187	0.117324755	0.036160629
2019-10-22T07:10:00	0.2344	9.673	175.8	0.583465780	0.716197906	0.011564724	0.119311128	0.036772848
2019-10-22T07:15:00	0.2359	9.680	175.9	0.588399076	0.723368170	0.011746253	0.121183929	0.037350064
2019-10-22T07:20:00	0.2378	9.688	175.9	0.594662451	0.732500834	0.011978813	0.123583203	0.038089543
2019-10-22T07:25:00	0.2373	9.698	175.9	0.592899466	0.729926907	0.011913116	0.122905426	0.037880646
2019-10-22T07:30:00	0.2344	9.707	176.0	0.583433315	0.716150787	0.011563534	0.119298853	0.036769065
2019-10-22T07:35:00	0.2367	9.715	176.0	0.591043870	0.727220571	0.011844169	0.122194112	0.037661412
2019-10-22T07:40:00	0.2375	9.724	176.0	0.593627392	0.730989351	0.011940220	0.123185044	0.037966827
2019-10-22T07:45:00	0.2366	9.733	176.1	0.590525847	0.726465561	0.011824958	0.121995914	0.037600325
2019-10-22T07:50:00	0.2364	9.743	176.1	0.590099504	0.725844341	0.011809159	0.121832916	0.037550088
2019-10-22T07:55:00	0.2353	9.750	176.1	0.586324970	0.720351108	0.011669757	0.120394727	0.037106824
2019-10-22T08:00:00	0.2353	9.754	176.2	0.586233116	0.720217577	0.011666375	0.120359838	0.037096071
2019-10-22T08:05:00	0.2347	9.764	176.2	0.584465907	0.717649897	0.011601409	0.119689594	0.036889495
2019-10-22T08:10:00	0.2339	9.775	176.3	0.581691709	0.713624343	0.011499798	0.118641296	0.036566400
2019-10-22T08:15:00	0.2339	9.787	176.3	0.581599734	0.713490989	0.011496437	0.118606622	0.036555713
2019-10-22T08:20:00	0.2356	9.802	176.4	0.587205488	0.721631501	0.011702200	0.120729443	0.037209987
2019-10-22T08:25:00	0.2394	9.821	176.5	0.600150554	0.740529985	0.012184511	0.125705352	0.038743610
2019-10-22T08:30:00	0.2417	9.840	176.6	0.607725207	0.751653177	0.012471374	0.128664867	0.039655762
2019-10-22T08:35:00	0.2432	9.861	176.7	0.612624783	0.758873715	0.012658761	0.130598102	0.040251603
2019-10-22T08:40:00	0.2421	9.880	176.7	0.608874226	0.753344685	0.012515190	0.129116903	0.039795084
2019-10-22T08:45:00	0.2405	9.900	176.8	0.603786669	0.745863533	0.012321787	0.127121605	0.039180113
2019-10-22T08:50:00	0.2412	9.923	177.0	0.606027805	0.749156404	0.012406792	0.127998587	0.039450408
2019-10-22T08:55:00	0.2423	9.954	177.1	0.609598874	0.754412032	0.012542863	0.129402407	0.039883079
2019-10-22T09:00:00	0.2428	9.993	177.1	0.611503761	0.757219879	0.012615760	0.130154466	0.040114870
2019-10-22T09:05:00	0.2428	10.035	177.4	0.611412559	0.757085375	0.012612264	0.130118407	0.040103757
2019-10-22T09:10:00	0.2436	10.083	177.6	0.613981266	0.760876337	0.012710895	0.131135961	0.040417377
2019-10-22T09:15:00	0.2399	10.133	177.8	0.601570974	0.742612176	0.012238042	0.126257628	0.038913827
2019-10-22T09:20:00	0.2385	10.183	178.1	0.597140863	0.736123659	0.012071483	0.124539260	0.038384210
2019-10-22T09:25:00	0.2390	10.231	178.4	0.598718676	0.738432705	0.012130669	0.125149880	0.038572409
2019-10-22T09:30:00	0.2385	10.282	178.5	0.596957714	0.735855766	0.012064622	0.124468481	0.038362395
2019-10-22T09:35:00	0.2372	10.337	178.8	0.592521812	0.729375876	0.011899068	0.122760487	0.037835974
2019-10-22T09:40:00	0.2385	10.393	179.1	0.597108523	0.736076354	0.012070271	0.124526761	0.038380357
2019-10-22T09:45:00	0.2380	10.444	179.3	0.595346759	0.733500611	0.012004363	0.123846799	0.038170786
2019-10-22T09:50:00	0.2390	10.489	179.5	0.598594818	0.738251370	0.012126018	0.125101891	0.038557618
2019-10-22T09:55:00	0.2383	10.526	179.7	0.596499803	0.735186096	0.012047478	0.124291606	0.038307880
2019-10-22T10:00:00	0.2370	10.558	179.8	0.592063324	0.728707062	0.011882023	0.122584642	0.037781777
2019-10-22T10:05:00	0.2387	10.586	192.4	0.597741039	0.737001741	0.012093979	0.124771350	0.038455742
2019-10-22T10:10:00	0.2383	10.608	192.5	0.596402236	0.735043432	0.012043826	0.124253936	0.038296270
2019-10-22T10:15:00	0.2388	10.634	192.6	0.598068940	0.737481599	0.012106279	0.124898244	0.038494852
2019-10-22T10:20:00	0.2377	10.662	192.8	0.594391583	0.732105202	0.011968707	0.123478944	0.038057410
2019-10-22T10:25:00	0.2381	10.691	193.0	0.595725170	0.734053638	0.012018504	0.123992688	0.038215751
2019-10-22T10:30:00	0.2369	10.718	180.6	0.591710924	0.728193121	0.011868931	0.122449573	0.037740148
2019-10-22T10:35:00	0.2379	10.743	193.2	0.595050965	0.733068406	0.011993315	0.123732824	0.038135658
2019-10-22T10:40:00	0.2390	10.770	180.9	0.598721662	0.738437078	0.012130782	0.125151038	0.038572765
2019-10-22T10:45:00	0.2391	10.795	181.0	0.599052458	0.738921445	0.012143209	0.125279252	0.038612282
2019-10-22T10:50:00	0.2363	10.816	181.1	0.589691607	0.725250139	0.011794053	0.121677076	0.037502056
2019-10-22T10:55:00	0.2366	10.830	181.2	0.590692429	0.726708327	0.011831134	0.122059631	0.037619964
2019-10-22T11:00:00	0.2364	10.841	181.2	0.590020256	0.725728885	0.011806223	0.121802631	0.037540754
2019-10-22T11:05:00	0.2352	10.851	181.3	0.585999505	0.719878001	0.011657776	0.120271127	0.037068729
2019-10-22T11:10:00	0.2356	10.863	181.4	0.587336270	0.721821731	0.011707023	0.120779199	0.037225322
2019-10-22T11:15:00	0.2371	10.877	181.4	0.592352855	0.729129391	0.011892785	0.122695671	0.037815997
2019-10-22T11:20:00	0.2348	10.893	181.5	0.584650237	0.717917599	0.011608176	0.119759415	0.036911015
2019-10-22T11:25:00	0.2344	10.909	181.6	0.583306451	0.715966667	0.011558886	0.119250892	0.036754283
2019-10-22T11:30:00	0.2342	10.923	181.6	0.582632865	0.714989308	0.011534219	0.118996406	0.036675848
2019-10-22T11:35:00	0.2330	10.938	181.7	0.578603654	0.709150876	0.011387229	0.117479946	0.036208460
2019-10-22T11:40:00	0.2355	10.954	181.8	0.586983397	0.721308490	0.011694013	0.120644974	0.037183953
2019-10-22T11:45:00	0.2365	10.970	181.9	0.590327917	0.726177140	0.011817622	0.121920228	0.037576998
2019-10-22T11:50:00	0.2337	10.982	181.9	0.580943832	0.712540215	0.011472484	0.118359500	0.036479547
2019-10-22T11:55:00	0.2323	10.999	194.7	0.576240873	0.705733412	0.011301481	0.116595296	0.035935803
2019-10-22T12:00:00	0.2340	11.016	182.1	0.581944145	0.713990379	0.011509025	0.118736490	0.036595739
2019-10-22T12:05:00	0.2334	11.031	182.2	0.579928221	0.711068721	0.011435444	0.117977371	0.036361772
2019-10-22T12:10:00	0.2355	11.047	182.3	0.586965417	0.721282341	0.011693350	0.120638137	0.037181845
2019-10-22T12:15:00	0.2334	11.067	182.4	0.579922215	0.711060023	0.011435226	0.117975114	0.036361076
2019-10-22T12:20:00	0.2342	11.087	182.5	0.582602860	0.714945781	0.011533120	0.118985077	0.036672356
2019-10-22T12:25:00	0.2355	11.102	182.6	0.586956426	0.721269266	0.011693019	0.120634718	0.037180792
2019-10-22T12:30:00	0.2361	11.117	182.7	0.588962337	0.724188126	0.011767071	0.121398707	0.037416260
2019-10-22T12:35:00	0.2350	11.134	182.8	0.585275466	0.718825830	0.011631147	0.119996395	0.036984054
2019-10-22T12:40:00	0.2346	11.153	182.8	0.583931919	0.716874546	0.011581815	0.119487447	0.036827192
2019-10-22T12:45:00	0.2340	11.172	183.0	0.581917135	0.713951213	0.011508038	0.118726303	0.036592600
2019-10-22T12:50:00	0.2334	11.189	183.0	0.579901196	0.711029578	0.011434460	0.117967212	0.036358640
2019-10-22T12:55:00	0.2342	11.207	183.1	0.582581857	0.714915313	0.011532352	0.118977146	0.036669912
2019-10-22T13:00:00	0.2348	11.226	183.2	0.584590262	0.717830495	0.011605974	0.119736695	0.036904012
2019-10-22T13:05:00	0.2340	11.245	183.3	0.581905131	0.713933806	0.011507599	0.118721776	0.036591204
2019-10-22T13:10:00	0.2337	11.263	183.4	0.580895802	0.712470606	0.011470731	0.118341414	0.036473973
2019-10-22T13:15:00	0.2336	11.281	183.5	0.580557293	0.711980067	0.011458379	0.118213988	0.036434699
2019-10-22T13:20:00	0.2336	11.298	183.6	0.580554291	0.711975717	0.011458270	0.118212859	0.036434351
2019-10-22T13:25:00	0.2325	11.311	183.7	0.576858585	0.706626407	0.011323867	0.116826244	0.036006983
2019-10-22T13:30:00	0.2348	11.322	183.7	0.584572270	0.717804365	0.011605313	0.119729880	0.036901912
2019-10-22T13:35:00	0.2327	11.331	183.7	0.577524265	0.707589102	0.011348016	0.117075388	0.036083772
2019-10-22T13:40:00	0.2332	11.338	183.8	0.579199927	0.710014042	0.011408921	0.117703736	0.036277435
2019-10-22T13:45:00	0.2321	11.345	183.8	0.575502794	0.704666821	0.011274763	0.116319652	0.035850846
2019-10-22T13:50:00	0.2327	11.351	183.8	0.577515251	0.707576064	0.011347689	0.117072012	0.036082731
2019-10-22T13:55:00	0.2324	11.356	183.8	0.576504658	0.706114714	0.011311038	0.116693891	0.035966190
2019-10-22T14:00:00	0.2301	11.361	183.9	0.568767164	0.694954078	0.011032428	0.113819524	0.035080283
2019-10-22T14:05:00	0.2296	11.363	183.9	0.567080475	0.692527755	0.010972164	0.113197793	0.034888659
2019-10-22T14:10:00	0.2284	11.365	183.9	0.563033320	0.686715453	0.010828248	0.111713038	0.034431043
2019-10-22T14:15:00	0.2302	11.367	183.9	0.569094766	0.695425610	0.011044152	0.113940482	0.035117563
2019-10-22T14:20:00	0.2310	11.367	183.9	0.571783699	0.699299264	0.011140625	0.114935775	0.035424322
2019-10-22T14:25:00	0.2274	11.368	196.7	0.559650558	0.681867679	0.010708699	0.110479673	0.034050908
2019-10-22T14:30:00	0.2266	11.370	196.7	0.556946215	0.677998912	0.010613610	0.109498662	0.033748551
2019-10-22T14:35:00	0.2271	11.370	184.0	0.558631766	0.680409514	0.010672826	0.110109581	0.033936842
2019-10-22T14:40:00	0.2276	11.373	183.9	0.560316503	0.682821287	0.010732181	0.110721928	0.034125574
2019-10-22T14:45:00	0.2269	11.373	196.7	0.557950391	0.679434760	0.010648868	0.109862413	0.033860663
2019-10-22T14:50:00	0.2271	11.373	196.7	0.558622703	0.680396546	0.010672507	0.110106291	0.033935828
2019-10-22T14:55:00	0.2279	11.373	196.7	0.561319709	0.684258530	0.010767604	0.111087381	0.034238210
2019-10-22T15:00:00	0.2274	11.372	196.7	0.559629417	0.681837412	0.010707954	0.110471986	0.034048539
2019-10-22T15:05:00	0.2286	11.371	196.8	0.563674486	0.687635359	0.010850983	0.111947594	0.034503336
2019-10-22T15:10:00	0.2293	11.370	196.8	0.566030689	0.691018812	0.010934741	0.112811706	0.034769664
2019-10-22T15:15:00	0.2298	11.368	196.7	0.567711858	0.693435732	0.010994703	0.113430324	0.034960327
2019-10-22T15:20:00	0.2286	11.363	196.7	0.563665435	0.687622372	0.010850662	0.111944281	0.034502315
2019-10-22T15:25:00	0.2300	11.359	196.7	0.568379279	0.694395893	0.011018554	0.113676392	0.035036168
2019-10-22T15:30:00	0.2306	11.352	183.9	0.570395833	0.697299169	0.011090778	0.114421514	0.035265822
2019-10-22T15:35:00	0.2318	11.346	196.7	0.574428465	0.703115128	0.011235931	0.115919026	0.035727370
2019-10-22T15:40:00	0.2332	11.338	196.7	0.579127846	0.709909681	0.011406298	0.117676671	0.036269093
2019-10-22T15:45:00	0.2309	11.330	196.6	0.571396149	0.698740594	0.011126694	0.114792054	0.035380026
2019-10-22T15:50:00	0.2316	11.321	196.6	0.573747157	0.702131583	0.011211340	0.115665326	0.035649177
2019-10-22T15:55:00	0.2327	11.310	196.6	0.577440130	0.707467408	0.011344962	0.117043884	0.036074062
2019-10-22T16:00:00	0.2325	11.299	196.5	0.576765418	0.706491700	0.011320489	0.116791396	0.035996243
2019-10-22T16:05:00	0.2335	11.287	196.5	0.580170179	0.711419211	0.011444263	0.118068352	0.036389813
2019-10-22T16:10:00	0.2307	11.274	183.7	0.570809522	0.697895182	0.011105624	0.114574680	0.035313029
2019-10-22T16:15:00	0.2326	11.260	183.4	0.577243934	0.707183648	0.011337843	0.116970436	0.036051424
2019-10-22T16:20:00	0.2346	11.247	183.3	0.584001775	0.716975965	0.011584377	0.119513882	0.036835339
2019-10-22T16:25:00	0.2338	11.232	183.4	0.581366689	0.713153133	0.011487923	0.118518788	0.036528642
2019-10-22T16:30:00	0.2359	11.218	183.2	0.588451402	0.723444331	0.011748186	0.121203873	0.037356211
2019-10-22T16:35:00	0.2348	11.203	183.1	0.584479307	0.717669357	0.011601901	0.119694669	0.036891059
2019-10-22T16:40:00	0.2383	11.188	183.0	0.596237323	0.734802313	0.012037656	0.124190278	0.038276650
2019-10-22T16:45:00	0.2364	11.173	182.9	0.589932364	0.725600843	0.011802968	0.121769047	0.037530403
2019-10-22T16:50:00	0.2376	11.157	182.8	0.593992964	0.731523090	0.011953843	0.123325595	0.038010146
2019-10-22T16:55:00	0.2362	11.142	182.8	0.589357809	0.724763986	0.011781699	0.121549622	0.037462774
2019-10-22T17:00:00	0.2371	11.125	182.7	0.592416030	0.729221552	0.011895134	0.122719905	0.037823466
2019-10-22T17:05:00	0.2369	11.110	182.6	0.591794529	0.728315041	0.011872036	0.122481611	0.037750022
2019-10-22T17:10:00	0.2364	11.093	182.6	0.590169239	0.725945940	0.011811742	0.121859569	0.037558303
2019-10-22T17:15:00	0.2385	11.077	182.5	0.596902337	0.735774770	0.012062548	0.124447084	0.038355800
2019-10-22T17:20:00	0.2374	11.062	182.5	0.593274088	0.730473631	0.011927061	0.123049289	0.037924986
2019-10-22T17:25:00	0.2393	11.048	182.4	0.599667581	0.739822380	0.012166336	0.125517850	0.038685820
2019-10-22T17:30:00	0.2379	11.034	182.3	0.595039876	0.733052205	0.011992901	0.123728552	0.038134341
2019-10-22T17:35:00	0.2380	11.018	182.3	0.595421309	0.733609552	0.012007148	0.123875534	0.038179643
2019-10-22T17:40:00	0.2405	11.002	182.2	0.603811397	0.745899842	0.012322723	0.127131264	0.039183090
2019-10-22T17:45:00	0.2396	10.985	182.1	0.600857491	0.741566072	0.012211138	0.125980062	0.038828279
2019-10-22T17:50:00	0.2389	10.969	182.0	0.598234977	0.737724617	0.012112509	0.124962524	0.038514664
2019-10-22T17:55:00	0.2379	10.952	181.9	0.594942268	0.732909601	0.011989257	0.123690954	0.038122753
2019-10-22T18:00:00	0.2343	10.935	181.8	0.582939577	0.715434295	0.011545447	0.119112250	0.036711552
2019-10-22T18:05:00	0.2328	10.918	181.7	0.577954075	0.708210881	0.011363622	0.117236397	0.036133396
2019-10-22T18:10:00	0.2356	10.903	181.7	0.587390546	0.721900683	0.011709025	0.120799851	0.037231687
2019-10-22T18:15:00	0.2357	10.887	181.6	0.587772808	0.722456803	0.011723128	0.120945354	0.037276533
2019-10-22T18:20:00	0.2343	10.870	181.5	0.583129455	0.715709814	0.011552401	0.119183995	0.036733665
2019-10-22T18:25:00	0.2346	10.855	181.5	0.583847406	0.716751855	0.011578715	0.119455470	0.036817336
2019-10-22T18:30:00	0.2345	10.838	181.4	0.583559643	0.716334142	0.011568165	0.119346622	0.036783788
2019-10-22T18:35:00	0.2370	10.824	181.3	0.591977946	0.728582535	0.011878850	0.122551911	0.037771689
2019-10-22T18:40:00	0.2369	10.810	181.3	0.591690847	0.728163842	0.011868185	0.122441880	0.037737777
2019-10-22T18:45:00	0.2389	10.796	181.2	0.598421046	0.737996981	0.012119493	0.125034579	0.038536872
2019-10-22T18:50:00	0.2404	10.781	181.1	0.603472098	0.745401674	0.012309879	0.126998758	0.039142250
2019-10-22T18:55:00	0.2408	10.765	181.0	0.604852425	0.747428909	0.012362173	0.127538260	0.039308530
2019-10-22T19:00:00	0.2421	10.749	181.0	0.608895940	0.753376663	0.012516018	0.129125454	0.039797719
2019-10-22T19:05:00	0.2406	10.733	180.9	0.603947002	0.746098968	0.012327858	0.127184242	0.039199418
2019-10-22T19:10:00	0.2404	10.717	180.8	0.603327526	0.745189439	0.012304409	0.126942320	0.039124856
2019-10-22T19:15:00	0.2394	10.700	193.2	0.600039558	0.740367347	0.012180333	0.125662248	0.038730325
2019-10-22T19:20:00	0.2408	10.683	180.6	0.604755088	0.747285902	0.012358482	0.127500177	0.039296793
2019-10-22T19:25:00	0.2408	10.666	180.5	0.604802266	0.747355215	0.012360271	0.127518635	0.039302482
2019-10-22T19:30:00	0.2416	10.648	180.5	0.607514207	0.751342679	0.012463337	0.128581947	0.039630205
2019-10-22T19:35:00	0.2427	10.629	192.8	0.610889446	0.756314032	0.012592227	0.129911686	0.040040043
2019-10-22T19:40:00	0.2417	10.610	192.7	0.607608489	0.751481416	0.012466928	0.128618995	0.039641623
2019-10-22T19:45:00	0.2424	10.590	192.5	0.609985563	0.754981775	0.012557643	0.129554892	0.039930076
2019-10-22T19:50:00	0.2424	10.571	192.4	0.610032672	0.755051193	0.012559445	0.129573475	0.039935803
2019-10-22T19:55:00	0.2395	10.554	192.4	0.600417467	0.740921124	0.012194561	0.125809036	0.038775567
2019-10-22T20:00:00	0.2394	10.538	192.3	0.600131053	0.740501411	0.012183777	0.125697779	0.038741276
2019-10-22T20:05:00	0.2393	10.520	179.8	0.599844617	0.740081733	0.012172997	0.125586563	0.038706998
2019-10-22T20:10:00	0.2399	10.502	179.7	0.601559905	0.742595944	0.012237625	0.126253320	0.038912499
2019-10-22T20:15:00	0.2393	10.483	179.6	0.599605404	0.739731299	0.012163998	0.125493722	0.038678384
2019-10-22T20:20:00	0.2395	10.465	179.5	0.600320008	0.740778299	0.012190891	0.125771172	0.038763897
2019-10-22T20:25:00	0.2388	10.448	179.4	0.598030974	0.737426035	0.012104854	0.124883549	0.038490323
2019-10-22T20:30:00	0.2384	10.432	179.4	0.596742554	0.735541085	0.012056565	0.124385356	0.038336775
2019-10-22T20:35:00	0.2389	10.413	179.3	0.598459348	0.738053049	0.012120931	0.125049414	0.038541444
2019-10-22T20:40:00	0.2408	10.397	179.1	0.604843480	0.747415767	0.012361834	0.127534760	0.039307452
2019-10-22T20:45:00	0.2408	10.380	179.1	0.604557425	0.746995519	0.012350987	0.127422860	0.039272963
2019-10-22T20:50:00	0.2407	10.363	179.0	0.604271346	0.746575305	0.012340145	0.127311001	0.039238487
2019-10-22T20:55:00	0.2414	10.346	178.9	0.606650657	0.750072301	0.012430470	0.128242868	0.039525697
2019-10-22T21:00:00	0.2403	10.328	178.8	0.603032398	0.744756239	0.012293246	0.126827148	0.039089359
2019-10-22T21:05:00	0.2397	10.311	178.8	0.601078711	0.741890377	0.012219477	0.126066089	0.038854793
2019-10-22T21:10:00	0.2428	10.293	178.7	0.611451587	0.757142932	0.012613760	0.130133837	0.040108512
2019-10-22T21:15:00	0.2405	10.276	178.6	0.603840693	0.745942860	0.012323833	0.127142708	0.039186617
2019-10-22T21:20:00	0.2438	10.258	178.5	0.614537836	0.761698469	0.012732318	0.131356977	0.040485496
2019-10-22T21:25:00	0.2400	10.242	178.4	0.601934668	0.743145586	0.012251768	0.126399237	0.038957472
2019-10-22T21:30:00	0.2405	10.229	178.3	0.603648944	0.745661312	0.012316573	0.127067812	0.039163534
2019-10-22T21:35:00	0.2420	10.218	178.3	0.608692551	0.753077162	0.012508256	0.129045376	0.039773038
2019-10-22T21:40:00	0.2403	10.209	178.2	0.603076616	0.744821139	0.012294918	0.126844400	0.039094676
2019-10-22T21:45:00	0.2418	10.202	178.2	0.608121037	0.752235767	0.012486459	0.128820499	0.039703729
2019-10-22T21:50:00	0.2408	10.197	178.2	0.604837517	0.747407006	0.012361608	0.127532427	0.039306733
2019-10-22T21:55:00	0.2395	10.192	178.2	0.600216576	0.740626729	0.012186996	0.125730994	0.038751514
2019-10-22T22:00:00	0.2378	10.189	178.1	0.594587166	0.732390866	0.011976004	0.123554220	0.038080611
2019-10-22T22:05:00	0.2401	10.185	178.1	0.602492262	0.743963594	0.012272828	0.126616502	0.039024436
2019-10-22T22:10:00	0.2438	10.183	178.1	0.614702238	0.761941363	0.012738650	0.131422299	0.040505629
2019-10-22T22:15:00	0.2427	10.180	178.1	0.610938992	0.756387079	0.012594124	0.129931258	0.040046076
2019-10-22T22:20:00	0.2424	10.179	178.1	0.610167512	0.755249898	0.012564601	0.129626673	0.039952199
2019-10-22T22:25:00	0.2415	10.179	178.1	0.607065542	0.750682564	0.012446255	0.128405718	0.039575889
2019-10-22T22:30:00	0.2422	10.179	178.1	0.609289718	0.753956617	0.012531053	0.129280563	0.039845525
2019-10-22T22:35:00	0.2413	10.179	178.1	0.606520060	0.749880232	0.012425503	0.128191628	0.039509905
2019-10-22T22:40:00	0.2424	10.179	178.1	0.610075747	0.755114669	0.012561092	0.129590468	0.039941041
2019-10-22T22:45:00	0.2429	10.179	178.1	0.611632932	0.757410391	0.012620711	0.130205545	0.040130613
2019-10-22T22:50:00	0.2430	10.178	178.1	0.611859432	0.757744483	0.012629395	0.130295135	0.040158226
2019-10-22T22:55:00	0.2430	10.179	178.1	0.612085917	0.758078598	0.012638081	0.130384752	0.040185847
2019-10-22T23:00:00	0.2431	10.180	178.1	0.612312388	0.758412735	0.012646770	0.130474395	0.040213476
2019-10-22T23:05:00	0.2428	10.181	178.1	0.611208597	0.756784602	0.012604450	0.130037787	0.040078909
2019-10-22T23:10:00	0.2437	10.183	178.1	0.614427289	0.761535155	0.012728061	0.131313063	0.040471961
2019-10-22T23:15:00	0.2432	10.184	178.1	0.612659241	0.758924567	0.012660084	0.130611750	0.040255810
2019-10-22T23:20:00	0.2439	10.186	178.1	0.614879918	0.762203901	0.012745494	0.131492915	0.040527393
2019-10-22T23:25:00	0.2435	10.189	178.1	0.613776925	0.760574562	0.012703034	0.131054865	0.040392382
2019-10-22T23:30:00	0.2443	10.190	178.1	0.616329065	0.764346132	0.012801391	0.132069586	0.040705129
2019-10-22T23:35:00	0.2449	10.193	178.1	0.618215499	0.767137440	0.012874343	0.132822225	0.040937100
2019-10-22T23:40:00	0.2440	10.196	178.1	0.615452791	0.763050552	0.012767576	0.131720727	0.040597607
2019-10-22T23:45:00	0.2450	10.199	178.2	0.618667646	0.767806916	0.012891861	0.133002948	0.040992800
2019-10-22T23:50:00	0.2448	10.202	178.2	0.617897841	0.766667200	0.012862044	0.132695333	0.040897990
2019-10-22T23:55:00	0.2448	10.205	178.2	0.618123942	0.767001897	0.012870797	0.132785645	0.040925825
2019-10-23T00:00:00	0.2436	10.208	178.2	0.614031973	0.760951228	0.012712846	0.131156089	0.040423580
2019-10-23T00:05:00	0.2454	10.211	178.2	0.619903597	0.769637816	0.012939807	0.133497607	0.041145259
2019-10-23T00:10:00	0.2477	10.213	178.2	0.627752614	0.781295194	0.013246449	0.136661175	0.042120301
2019-10-23T00:15:00	0.2472	10.216	178.2	0.625991166	0.778674560	0.013177310	0.135947878	0.041900456
2019-10-23T00:20:00	0.2474	10.219	178.2	0.626547964	0.779502666	0.013199145	0.136173144	0.041969886
2019-10-23T00:25:00	0.2461	10.223	178.3	0.622465660	0.773437283	0.013039492	0.134526036	0.041462231
2019-10-23T00:30:00	0.2470	10.225	178.3	0.625342908	0.777710761	0.013151912	0.135685854	0.041819698
2019-10-23T00:35:00	0.2481	10.228	178.3	0.628879859	0.782973654	0.013290794	0.137118668	0.042261305
2019-10-23T00:40:00	0.2464	10.230	178.3	0.623143052	0.774442760	0.013065914	0.134798629	0.041546247
2019-10-23T00:45:00	0.2463	10.232	178.3	0.623037315	0.774285786	0.013061788	0.134756060	0.041533126
2019-10-23T00:50:00	0.2468	10.235	178.3	0.624588843	0.776590097	0.013122401	0.135381392	0.041725860
2019-10-23T00:55:00	0.2465	10.237	178.3	0.623488852	0.774956193	0.013079413	0.134937894	0.041589169
2019-10-23T01:00:00	0.2475	10.240	178.3	0.627027637	0.780216277	0.013217970	0.136367362	0.042029745
2019-10-23T01:05:00	0.2464	10.242	178.4	0.623277396	0.774642218	0.013071158	0.134852725	0.041562919
2019-10-23T01:10:00	0.2442	10.245	178.3	0.615871014	0.763668818	0.012783709	0.131887169	0.040648906
2019-10-23T01:15:00	0.2451	10.248	178.4	0.619085492	0.768425756	0.012908060	0.133170074	0.041044310
2019-10-23T01:20:00	0.2475	10.250	178.4	0.626936306	0.780080389	0.013214385	0.136330372	0.042018345
2019-10-23T01:25:00	0.2472	10.252	178.4	0.625837038	0.778445379	0.013171269	0.135885557	0.041881248
2019-10-23T01:30:00	0.2475	10.255	178.4	0.627056218	0.780258802	0.013219092	0.136378939	0.042033314
2019-10-23T01:35:00	0.2470	10.257	178.4	0.625294426	0.777638694	0.013150014	0.135666268	0.041813661
2019-10-23T01:40:00	0.2448	10.260	178.4	0.617892238	0.766658907	0.012861827	0.132693095	0.040897301
2019-10-23T01:45:00	0.2460	10.261	178.5	0.622099855	0.772894465	0.013025235	0.134378950	0.041416897
2019-10-23T01:50:00	0.2453	10.263	178.4	0.619672009	0.769294651	0.012930816	0.133404847	0.041116670
2019-10-23T01:55:00	0.2459	10.266	178.5	0.621556674	0.772088649	0.013004080	0.134160696	0.041349629
2019-10-23T02:00:00	0.2447	10.268	178.5	0.617800673	0.766523376	0.012858282	0.132656530	0.040886031
2019-10-23T02:05:00	0.2472	10.270	178.5	0.625985575	0.778666247	0.013177091	0.135945618	0.041899760
2019-10-23T02:10:00	0.2439	10.273	178.5	0.614931666	0.762280368	0.012747488	0.131513485	0.040533733
2019-10-23T02:15:00	0.2449	10.276	178.5	0.618478952	0.767527503	0.012884548	0.132927512	0.040969550
2019-10-23T02:20:00	0.2448	10.277	178.5	0.618041107	0.766879270	0.012867590	0.132752554	0.040915626
2019-10-23T02:25:00	0.2451	10.281	178.5	0.618931066	0.768197030	0.012902072	0.133108296	0.041025270
2019-10-23T02:30:00	0.2437	10.282	178.5	0.614507725	0.761653984	0.012731158	0.131345015	0.040481809
2019-10-23T02:35:00	0.2441	10.285	178.6	0.615730784	0.763461497	0.012778298	0.131831349	0.040631702
2019-10-23T02:40:00	0.2441	10.287	178.5	0.615624827	0.763304858	0.012774211	0.131789180	0.040618705
2019-10-23T02:45:00	0.2435	10.290	178.6	0.613524983	0.760202539	0.012693346	0.130954913	0.040361576
2019-10-23T02:50:00	0.2432	10.293	178.6	0.612754064	0.759064511	0.012663725	0.130649314	0.040267387
2019-10-23T02:55:00	0.2413	10.295	178.6	0.606325097	0.749593529	0.012418091	0.128115154	0.039486335
2019-10-23T03:00:00	0.2410	10.298	178.7	0.605219443	0.747968203	0.012376097	0.127681908	0.039352804
2019-10-23T03:05:00	0.2416	10.300	178.7	0.607444776	0.751240515	0.012460692	0.128554667	0.039621797
2019-10-23T03:10:00	0.2407	10.303	178.7	0.604340424	0.746676765	0.012342763	0.127338006	0.039246810
2019-10-23T03:15:00	0.2404	10.305	178.7	0.603234149	0.745052369	0.012300876	0.126905874	0.039113623
2019-10-23T03:20:00	0.2413	10.308	178.7	0.606460078	0.749792022	0.012423223	0.128168098	0.039502653
2019-10-23T03:25:00	0.2408	10.311	178.7	0.604688057	0.747187424	0.012355940	0.127473955	0.039288711
2019-10-23T03:30:00	0.2394	10.313	178.7	0.599913252	0.740182289	0.012175579	0.125613207	0.038715210
2019-10-23T03:35:00	0.2391	10.315	191.1	0.599139367	0.739048717	0.012146476	0.125312949	0.038622668
2019-10-23T03:40:00	0.2382	10.318	191.0	0.596027718	0.734495883	0.012029816	0.124109392	0.038251720
2019-10-23T03:45:00	0.2361	10.319	178.8	0.588898872	0.724095725	0.011764725	0.121374497	0.037408799
2019-10-23T03:50:00	0.2349	10.322	178.8	0.585108058	0.718582616	0.011624994	0.119932919	0.036964490
2019-10-23T03:55:00	0.2378	10.324	178.8	0.594705676	0.732563974	0.011980426	0.123599845	0.038094673
2019-10-23T04:00:00	0.2385	10.325	191.1	0.596937629	0.735826389	0.012063870	0.124460720	0.038360003
2019-10-23T04:05:00	0.2370	10.327	191.2	0.591912603	0.728487237	0.011876423	0.122526864	0.037763969
2019-10-23T04:10:00	0.2384	10.328	191.2	0.596579738	0.735302984	0.012050470	0.124322473	0.038317394
2019-10-23T04:15:00	0.2379	10.330	191.2	0.594897381	0.732844024	0.011987581	0.123673666	0.038117425
2019-10-23T04:20:00	0.2390	10.331	191.2	0.598559278	0.738199340	0.012124683	0.125088123	0.038553374
2019-10-23T04:25:00	0.2381	10.333	191.2	0.595541722	0.733785523	0.012011647	0.123921952	0.038193949
2019-10-23T04:30:00	0.2388	10.334	191.1	0.597867688	0.737187071	0.012098729	0.124820354	0.038470845
2019-10-23T04:35:00	0.2371	10.336	178.9	0.592509617	0.729358084	0.011898614	0.122755808	0.037834532
2019-10-23T04:40:00	0.2375	10.336	178.9	0.593834943	0.731292364	0.011947953	0.123264831	0.037991418
2019-10-23T04:45:00	0.2393	10.337	191.2	0.599834563	0.740067004	0.012172618	0.125582660	0.038705796
2019-10-23T04:50:00	0.2404	10.339	191.1	0.603491353	0.745429943	0.012310608	0.127006276	0.039144568
2019-10-23T04:55:00	0.2391	10.340	178.9	0.599143223	0.739054363	0.012146620	0.125314444	0.038623129
2019-10-23T05:00:00	0.2405	10.343	191.4	0.603800826	0.745884320	0.012322323	0.127127135	0.039181818
2019-10-23T05:05:00	0.2408	10.344	191.2	0.604788717	0.747335308	0.012359757	0.127513334	0.039300848
2019-10-23T05:10:00	0.2418	10.346	179.1	0.608107500	0.752215841	0.012485943	0.128815175	0.039702088
2019-10-23T05:15:00	0.2412	10.347	191.5	0.606097528	0.749258915	0.012409441	0.128025920	0.039458832
2019-10-23T05:20:00	0.2421	10.349	191.4	0.609082279	0.753651086	0.012523132	0.129198841	0.039820338
2019-10-23T05:25:00	0.2406	10.350	191.4	0.604074486	0.746286182	0.012332687	0.127234057	0.039214772
2019-10-23T05:30:00	0.2424	10.352	178.9	0.610056791	0.755086735	0.012560367	0.129582990	0.039938736
2019-10-23T05:35:00	0.2418	10.354	178.9	0.608047923	0.752128146	0.012483672	0.128791745	0.039694866
2019-10-23T05:40:00	0.2425	10.356	178.9	0.610365692	0.755541973	0.012572182	0.129704880	0.039976304
2019-10-23T05:45:00	0.2431	10.359	178.8	0.612349447	0.758467417	0.012648192	0.130489067	0.040217998
2019-10-23T05:50:00	0.2429	10.361	191.4	0.611672447	0.757468673	0.012622225	0.130221172	0.040135430
2019-10-23T05:55:00	0.2441	10.364	179.0	0.615649285	0.763341013	0.012775154	0.131798913	0.040621705
2019-10-23T06:00:00	0.2441	10.367	179.0	0.615637395	0.763323436	0.012774696	0.131794181	0.040620247
2019-10-23T06:05:00	0.2450	10.370	191.3	0.618614148	0.767727695	0.012889787	0.132981559	0.040986208
2019-10-23T06:10:00	0.2459	10.373	191.3	0.621588416	0.772135732	0.013005316	0.134173445	0.041353559
2019-10-23T06:15:00	0.2470	10.377	191.4	0.625222902	0.777532380	0.013147213	0.135637377	0.041804757
2019-10-23T06:20:00	0.2462	10.381	191.5	0.622559509	0.773576563	0.013043151	0.134563786	0.041473866
2019-10-23T06:25:00	0.2471	10.385	191.5	0.625530490	0.777989612	0.013159259	0.135761647	0.041843058
2019-10-23T06:30:00	0.2476	10.390	191.4	0.627174700	0.780435101	0.013223745	0.136426936	0.042048107
2019-10-23T06:35:00	0.2475	10.394	179.1	0.626831695	0.779924749	0.013210279	0.136288009	0.042005288
2019-10-23T06:40:00	0.2475	10.398	191.5	0.626819842	0.779907115	0.013209813	0.136283209	0.042003809
2019-10-23T06:45:00	0.2485	10.403	191.5	0.630118163	0.784818719	0.013339595	0.137622147	0.042416482
2019-10-23T06:50:00	0.2478	10.410	191.6	0.627789513	0.781350120	0.013247900	0.136676138	0.042124913
2019-10-23T06:55:00	0.2486	10.416	191.7	0.630756150	0.785769822	0.013364775	0.137881919	0.042496547
2019-10-23T07:00:00	0.2494	10.425	191.6	0.633389783	0.789699655	0.013468977	0.138956957	0.042827884
2019-10-23T07:05:00	0.2485	10.432	191.7	0.630401647	0.785241292	0.013350781	0.137737544	0.042452049
2019-10-23T07:10:00	0.2479	10.442	191.8	0.628404221	0.782265302	0.013272073	0.136925533	0.042201779
2019-10-23T07:15:00	0.2484	10.452	191.8	0.630047110	0.784712815	0.013336793	0.137593232	0.042407570
2019-10-23T07:20:00	0.2505	10.462	191.8	0.636976843	0.795061620	0.013611580	0.140428157	0.043281322
2019-10-23T07:25:00	0.2515	10.472	191.9	0.640265829	0.799987613	0.013743018	0.141784185	0.043699263
2019-10-23T07:30:00	0.2509	10.484	191.9	0.638273895	0.797003149	0.013663336	0.140962114	0.043445893
2019-10-23T07:35:00	0.2506	10.497	192.0	0.637271604	0.795502717	0.013623332	0.140549409	0.043318693
2019-10-23T07:40:00	0.2516	10.511	192.1	0.640560320	0.800429127	0.013754819	0.141905932	0.043736786
2019-10-23T07:45:00	0.2514	10.526	192.1	0.639888646	0.799422231	0.013727911	0.141628331	0.043651227
2019-10-23T07:50:00	0.2527	10.540	179.8	0.644163817	0.805837621	0.013899646	0.143400083	0.044197298
2019-10-23T07:55:00	0.2510	10.556	192.2	0.638544921	0.797409023	0.013674163	0.141073820	0.043480322
2019-10-23T08:00:00	0.2531	10.572	179.9	0.645458277	0.807783174	0.013951864	0.143938806	0.044363338
2019-10-23T08:05:00	0.2522	10.590	192.4	0.642480180	0.803309273	0.013831881	0.142700967	0.043981824
2019-10-23T08:10:00	0.2523	10.606	192.5	0.642798090	0.803786500	0.013844663	0.142832840	0.044022468
2019-10-23T08:15:00	0.2492	10.621	180.1	0.632551093	0.788447548	0.013435748	0.138614137	0.042722223
2019-10-23T08:20:00	0.2500	10.637	192.6	0.635183406	0.792379414	0.013540185	0.139691589	0.043054304
2019-10-23T08:25:00	0.2504	10.656	180.2	0.636492928	0.794337623	0.013592296	0.140229214	0.043220006
2019-10-23T08:30:00	0.2495	10.675	192.8	0.633507381	0.789875270	0.013473640	0.139005062	0.042842710
2019-10-23T08:35:00	0.2511	10.689	192.9	0.638780487	0.797761844	0.013683578	0.141170949	0.043510257
2019-10-23T08:40:00	0.2515	10.703	192.9	0.640088697	0.799722083	0.013735923	0.141710982	0.043676701
2019-10-23T08:45:00	0.2509	10.724	193.0	0.638096665	0.796737773	0.013656258	0.140889092	0.043423386
2019-10-23T08:50:00	0.2516	10.744	193.1	0.640395010	0.800181278	0.013748194	0.141837584	0.043715721
2019-10-23T08:55:00	0.2510	10.763	180.7	0.638403148	0.797196704	0.013668499	0.141015381	0.043462310
2019-10-23T09:00:00	0.2499	10.794	180.9	0.634758382	0.791744161	0.013523294	0.139517326	0.043000595
2019-10-23T09:05:00	0.2498	10.827	181.0	0.634416104	0.791232694	0.013509699	0.139377071	0.042957367
2019-10-23T09:10:00	0.2521	10.844	181.1	0.641997005	0.802584127	0.013812466	0.142500661	0.043920088
2019-10-23T09:15:00	0.2489	10.859	181.2	0.631747716	0.787248721	0.013403958	0.138286164	0.042621139
2019-10-23T09:20:00	0.2491	10.882	181.3	0.632397248	0.788217933	0.013429657	0.138551300	0.042702856
2019-10-23T09:25:00	0.2492	10.917	181.4	0.632716053	0.788693775	0.013442281	0.138681531	0.042742995
2019-10-23T09:30:00	0.2492	10.948	181.6	0.632704219	0.788676112	0.013441812	0.138676696	0.042741505
2019-10-23T09:35:00	0.2507	10.983	181.8	0.637648352	0.796066609	0.013638362	0.140704465	0.043366483
2019-10-23T09:40:00	0.2505	11.024	181.9	0.636976133	0.795060557	0.013611551	0.140427865	0.043281232
2019-10-23T09:45:00	0.2504	11.071	182.2	0.636634066	0.794548762	0.013597919	0.140287222	0.043237884
2019-10-23T09:50:00	0.2512	11.114	182.4	0.639263384	0.798485254	0.013702888	0.141370165	0.043571658
2019-10-23T09:55:00	0.2491	11.149	182.5	0.632314406	0.788094298	0.013426378	0.138517469	0.042692429
2019-10-23T10:00:00	0.2481	11.193	182.7	0.628994419	0.783144294	0.013295305	0.137165207	0.042275649
2019-10-23T10:05:00	0.2489	11.230	182.9	0.631585484	0.787006697	0.013397543	0.138219982	0.042600741
2019-10-23T10:10:00	0.2492	11.270	183.1	0.632521845	0.788403894	0.013434590	0.138602190	0.042718541
2019-10-23T10:15:00	0.2485	11.303	183.3	0.630150878	0.784867482	0.013340886	0.137635462	0.042420586
2019-10-23T10:20:00	0.2471	11.338	183.5	0.625791302	0.778377374	0.013169477	0.135867066	0.041875549
2019-10-23T10:25:00	0.2464	11.369	196.3	0.623415865	0.774847816	0.013076563	0.134908493	0.041580108
2019-10-23T10:30:00	0.2454	11.393	183.7	0.620043587	0.769845275	0.012945244	0.133553695	0.041162546
2019-10-23T10:35:00	0.2459	11.410	196.5	0.621646340	0.772221652	0.013007571	0.134196712	0.041360730
2019-10-23T10:40:00	0.2456	11.427	183.9	0.620595378	0.770663162	0.012966684	0.133774890	0.041230720
2019-10-23T10:45:00	0.2427	11.448	184.0	0.610905648	0.756337918	0.012592847	0.129918086	0.040042016
2019-10-23T10:50:00	0.2438	11.468	184.1	0.614839272	0.762143840	0.012743928	0.131476759	0.040522414
2019-10-23T10:55:00	0.2404	11.483	184.2	0.603467454	0.745394856	0.012309704	0.126996944	0.039141692
2019-10-23T11:00:00	0.2401	11.501	184.3	0.602411100	0.743844511	0.012269761	0.126584866	0.039014685
2019-10-23T11:05:00	0.2413	11.515	184.3	0.606354146	0.749636245	0.012419195	0.128126547	0.039489846
2019-10-23T11:10:00	0.2401	11.523	197.2	0.602298778	0.743679717	0.012265518	0.126541090	0.039001193
2019-10-23T11:15:00	0.2398	11.531	184.4	0.601242076	0.742129895	0.012225636	0.126129638	0.038874379
2019-10-23T11:20:00	0.2424	11.541	184.5	0.610180739	0.755269392	0.012565107	0.129631892	0.039953808
2019-10-23T11:25:00	0.2411	11.551	197.3	0.605796631	0.748816549	0.012398010	0.127907983	0.039422482
2019-10-23T11:30:00	0.2424	11.563	184.6	0.610068662	0.755104228	0.012560821	0.129587673	0.039940179
2019-10-23T11:35:00	0.2433	11.576	197.7	0.613005985	0.759436340	0.012673401	0.130749137	0.040298154
2019-10-23T11:40:00	0.2435	11.588	197.6	0.613614851	0.760335235	0.012696802	0.130990561	0.040372563
2019-10-23T11:45:00	0.2418	11.604	197.6	0.607903500	0.751915576	0.012478168	0.128734956	0.039677364
2019-10-23T11:50:00	0.2420	11.630	197.8	0.608846102	0.753303271	0.012514116	0.129105829	0.039791670
2019-10-23T11:55:00	0.2427	11.654	197.9	0.611119234	0.756652831	0.012601027	0.130002471	0.040068024
2019-10-23T12:00:00	0.2402	11.677	198.1	0.602737511	0.744323464	0.012282096	0.126712123	0.039053907
2019-10-23T12:05:00	0.2431	11.697	198.2	0.612337509	0.758449800	0.012647734	0.130484341	0.040216541
2019-10-23T12:10:00	0.2414	11.717	198.2	0.606624100	0.750033243	0.012429460	0.128232448	0.039522486
2019-10-23T12:15:00	0.2406	11.740	185.5	0.603902531	0.746033664	0.012326174	0.127166867	0.039194063
2019-10-23T12:20:00	0.2407	11.760	198.4	0.604512961	0.746930203	0.012349302	0.127405471	0.039267603
2019-10-23T12:25:00	0.2404	11.775	198.5	0.603456920	0.745379391	0.012309305	0.126992832	0.039140424
2019-10-23T12:30:00	0.2390	11.786	198.6	0.598730698	0.738450308	0.012131121	0.125154539	0.038573844
2019-10-23T12:35:00	0.2396	11.794	198.7	0.600676727	0.741301105	0.012204327	0.125909789	0.038806620
2019-10-23T12:40:00	0.2396	11.807	198.8	0.600620539	0.741218748	0.012202210	0.125887950	0.038799889
2019-10-23T12:45:00	0.2394	11.819	198.8	0.599897038	0.740158534	0.012174969	0.125606913	0.038713270
2019-10-23T12:50:00	0.2404	11.835	186.1	0.603509552	0.745456660	0.012311297	0.127013381	0.039146758
2019-10-23T12:55:00	0.2409	11.846	199.0	0.605119776	0.747821743	0.012372315	0.127642891	0.039340779
2019-10-23T13:00:00	0.2384	11.854	199.1	0.596723829	0.735513700	0.012055864	0.124378123	0.038334546
2019-10-23T13:05:00	0.2393	11.864	186.2	0.599672230	0.739829190	0.012166511	0.125519654	0.038686376
2019-10-23T13:10:00	0.2411	11.872	199.2	0.605617779	0.748553645	0.012391218	0.127837907	0.039400885
2019-10-23T13:15:00	0.2383	11.881	199.2	0.596221054	0.734778528	0.012037047	0.124183999	0.038274715
2019-10-23T13:20:00	0.2381	11.885	199.3	0.595830740	0.734207944	0.012022450	0.124033404	0.038228300
2019-10-23T13:25:00	0.2387	11.887	199.1	0.597778365	0.737056360	0.012095379	0.124785792	0.038460193
2019-10-23T13:30:00	0.2377	11.884	199.2	0.594381627	0.732090663	0.011968336	0.123475113	0.038056229
2019-10-23T13:35:00	0.2373	11.882	186.4	0.592988231	0.730056440	0.011916420	0.122939506	0.037891150
2019-10-23T13:40:00	0.2366	11.881	199.2	0.590590723	0.726560104	0.011827363	0.122020726	0.037607973
2019-10-23T13:45:00	0.2362	11.882	186.3	0.589195827	0.724528103	0.011775707	0.121487797	0.037443719
2019-10-23T13:50:00	0.2352	11.883	186.4	0.586125817	0.720061602	0.011662425	0.120319088	0.037083511
2019-10-23T13:55:00	0.2359	11.879	186.4	0.588413598	0.723389307	0.011746790	0.121189464	0.037351770
2019-10-23T14:00:00	0.2373	11.875	199.3	0.593041019	0.730133476	0.011918384	0.122959776	0.037897397
2019-10-23T14:05:00	0.2351	11.871	199.2	0.585621528	0.719328672	0.011643871	0.120127666	0.037024513
2019-10-23T14:10:00	0.2341	11.863	199.1	0.582213047	0.714380352	0.011518858	0.118837937	0.036627006
2019-10-23T14:15:00	0.2365	11.857	186.2	0.590196260	0.725985310	0.011812744	0.121869898	0.037561486
2019-10-23T14:20:00	0.2391	11.853	199.1	0.599162843	0.739083096	0.012147358	0.125322052	0.038625473
2019-10-23T14:25:00	0.2371	11.849	199.1	0.592425082	0.729234758	0.011895471	0.122723377	0.037824537
2019-10-23T14:30:00	0.2394	11.845	199.0	0.600051576	0.740384957	0.012180785	0.125666915	0.038731764
2019-10-23T14:35:00	0.2380	11.842	186.3	0.595320799	0.733462675	0.012003393	0.123836794	0.038167703
2019-10-23T14:40:00	0.2386	11.836	186.2	0.597268705	0.736310672	0.012076273	0.124588679	0.038399441
2019-10-23T14:45:00	0.2381	11.831	199.0	0.595542365	0.733786463	0.012011671	0.123922200	0.038194026
2019-10-23T14:50:00	0.2360	11.828	199.0	0.588797682	0.723948406	0.011760984	0.121335902	0.037396903
2019-10-23T14:55:00	0.2367	11.823	199.0	0.591083730	0.727278674	0.011845648	0.122209369	0.037666114
2019-10-23T15:00:00	0.2372	11.820	198.9	0.592699623	0.729635304	0.011905681	0.122828718	0.037857004
2019-10-23T15:05:00	0.2368	11.818	199.0	0.591305562	0.727602067	0.011853880	0.122294299	0.037692291
2019-10-23T15:10:00	0.2364	11.815	198.9	0.589910949	0.725569648	0.011802175	0.121760865	0.037527881
2019-10-23T15:15:00	0.2371	11.815	199.0	0.592196275	0.728900984	0.011886964	0.122635620	0.037797489
2019-10-23T15:20:00	0.2356	11.812	199.1	0.587454948	0.721994368	0.011711400	0.120824359	0.037239241
2019-10-23T15:25:00	0.2349	11.809	199.0	0.585053671	0.718503605	0.011622995	0.119912301	0.036958136
2019-10-23T15:30:00	0.2345	11.804	199.0	0.583656579	0.716474845	0.011571718	0.119383283	0.036795087
2019-10-23T15:35:00	0.2352	11.800	186.2	0.585945966	0.719800184	0.011655806	0.120250801	0.037062465
2019-10-23T15:40:00	0.2362	11.798	186.2	0.589238096	0.724589653	0.011777270	0.121503928	0.037448691
2019-10-23T15:45:00	0.2363	11.794	186.2	0.589516411	0.724994966	0.011787569	0.121610172	0.037481436
2019-10-23T15:50:00	0.2356	11.791	186.1	0.587451421	0.721989237	0.011711270	0.120823017	0.037238827
2019-10-23T15:55:00	0.2370	11.786	199.0	0.592080104	0.728731536	0.011882647	0.122591075	0.037783760
2019-10-23T16:00:00	0.2371	11.782	199.1	0.592358195	0.729137181	0.011892984	0.122697720	0.037816629
2019-10-23T16:05:00	0.2364	11.777	199.0	0.590099391	0.725844175	0.011809155	0.121832873	0.037550075
2019-10-23T16:10:00	0.2376	11.774	199.0	0.593860914	0.731330283	0.011948921	0.123274816	0.037994496
2019-10-23T16:15:00	0.2375	11.769	199.0	0.593609332	0.730962987	0.011939547	0.123178103	0.037964688
2019-10-23T16:20:00	0.2368	11.764	199.0	0.591351329	0.727668792	0.011855579	0.122311825	0.037697692
2019-10-23T16:25:00	0.2368	11.758	198.9	0.591434071	0.727789429	0.011858651	0.122343513	0.037707459
2019-10-23T16:30:00	0.2367	11.752	198.8	0.590847788	0.726934757	0.011836896	0.122119070	0.037638283
2019-10-23T16:35:00	0.2402	11.746	198.9	0.602619911	0.744150896	0.012277652	0.126666267	0.039039774
2019-10-23T16:40:00	0.2410	11.739	198.8	0.605368768	0.748187653	0.012381764	0.127740376	0.039370824
2019-10-23T16:45:00	0.2419	11.735	198.8	0.608448392	0.752717673	0.012498942	0.128949281	0.039743421
2019-10-23T16:50:00	0.2405	11.728	198.7	0.603534093	0.745492690	0.012312226	0.127022963	0.039149711
2019-10-23T16:55:00	0.2404	11.722	185.8	0.603283198	0.745124368	0.012302732	0.126925017	0.039119523
2019-10-23T17:00:00	0.2395	11.715	185.8	0.600364147	0.740842982	0.012192553	0.125788320	0.038769182
2019-10-23T17:05:00	0.2405	11.709	185.7	0.603781459	0.745855883	0.012321590	0.127119569	0.039179486
2019-10-23T17:10:00	0.2415	11.702	185.7	0.606862462	0.750383832	0.012438527	0.128325992	0.039551317
2019-10-23T17:15:00	0.2414	11.695	185.7	0.606611803	0.750015157	0.012428992	0.128227622	0.039520999
2019-10-23T17:20:00	0.2414	11.689	185.6	0.606694188	0.750136325	0.012432126	0.128259950	0.039530962
2019-10-23T17:25:00	0.2411	11.682	185.6	0.605777313	0.748788151	0.012397276	0.127900412	0.039420149
2019-10-23T17:30:00	0.2420	11.677	185.6	0.608856583	0.753318704	0.012514516	0.129109956	0.039792942
2019-10-23T17:35:00	0.2413	11.670	185.5	0.606275223	0.749520191	0.012416195	0.128095595	0.039480306
2019-10-23T17:40:00	0.2405	11.665	185.5	0.603691983	0.745724505	0.012318202	0.127084621	0.039168715
2019-10-23T17:45:00	0.2410	11.660	185.5	0.605440654	0.748293305	0.012384493	0.127768528	0.039379501
2019-10-23T17:50:00	0.2408	11.656	185.7	0.604856690	0.747435175	0.012362335	0.127539929	0.039309045
2019-10-23T17:55:00	0.2406	11.650	185.5	0.603939339	0.746087714	0.012327568	0.127181247	0.039198496
2019-10-23T18:00:00	0.2400	11.646	185.4	0.602021430	0.743272853	0.012255044	0.126433031	0.038967888
2019-10-23T18:05:00	0.2413	11.639	185.4	0.606436500	0.749757349	0.012422326	0.128158849	0.039499802
2019-10-23T18:10:00	0.2411	11.634	185.4	0.605852700	0.748898973	0.012400140	0.127929955	0.039429254
2019-10-23T18:15:00	0.2398	11.628	185.3	0.601268370	0.742168449	0.012226628	0.126139868	0.038877532
2019-10-23T18:20:00	0.2405	11.620	185.3	0.603684961	0.745714194	0.012317936	0.127081879	0.039167869
2019-10-23T18:25:00	0.2391	11.614	185.2	0.599097822	0.738987876	0.012144914	0.125296840	0.038617703
2019-10-23T18:30:00	0.2409	11.610	185.3	0.605182875	0.747914465	0.012374709	0.127667591	0.039348392
2019-10-23T18:35:00	0.2422	11.604	198.1	0.609261221	0.753914642	0.012529965	0.129269335	0.039842064
2019-10-23T18:40:00	0.2407	11.598	185.2	0.604348048	0.746687965	0.012343052	0.127340987	0.039247729
2019-10-23T18:45:00	0.2419	11.592	197.9	0.608427354	0.752686699	0.012498140	0.128941002	0.039740869
2019-10-23T18:50:00	0.2433	11.585	198.0	0.613166919	0.759673903	0.012679584	0.130812927	0.040317815
2019-10-23T18:55:00	0.2427	11.574	197.9	0.610921359	0.756361082	0.012593449	0.129924292	0.040043929
2019-10-23T19:00:00	0.2431	11.559	197.8	0.612333968	0.758444577	0.012647598	0.130482939	0.040216109
2019-10-23T19:05:00	0.2423	11.545	197.7	0.609755138	0.754642254	0.012548835	0.129464016	0.039902067
2019-10-23T19:10:00	0.2414	11.529	184.8	0.606841414	0.750352872	0.012437726	0.128317730	0.039548771
2019-10-23T19:15:00	0.2419	11.513	197.5	0.608255648	0.752433919	0.012491591	0.128873447	0.039720048
2019-10-23T19:20:00	0.2418	11.497	197.5	0.608005087	0.752065096	0.012482039	0.128774900	0.039689675
2019-10-23T19:25:00	0.2414	11.479	197.4	0.606755524	0.750226538	0.012434459	0.128284020	0.039538381
2019-10-23T19:30:00	0.2417	11.462	197.2	0.607836867	0.751817508	0.012475629	0.128708760	0.039669290
2019-10-23T19:35:00	0.2427	11.443	184.4	0.610914351	0.756350750	0.012593181	0.129921524	0.040043075
2019-10-23T19:40:00	0.2418	11.425	197.1	0.608001580	0.752059934	0.012481906	0.128773521	0.039689250
2019-10-23T19:45:00	0.2438	11.407	184.2	0.614736036	0.761991301	0.012739951	0.131435730	0.040509768
2019-10-23T19:50:00	0.2425	11.388	184.2	0.610495884	0.755733866	0.012577163	0.129756271	0.039992143
2019-10-23T19:55:00	0.2433	11.370	184.1	0.612906198	0.759289050	0.012669567	0.130709592	0.040285966
2019-10-23T20:00:00	0.2436	11.351	184.0	0.613985670	0.760882842	0.012711064	0.131137709	0.040417916
2019-10-23T20:05:00	0.2436	11.333	183.9	0.614067885	0.761004269	0.012714228	0.131170345	0.040427974
2019-10-23T20:10:00	0.2423	11.314	183.8	0.609826935	0.754748040	0.012551579	0.129492329	0.039910793
2019-10-23T20:15:00	0.2430	11.295	183.7	0.611905160	0.757811938	0.012631148	0.130313227	0.040163802
2019-10-23T20:20:00	0.2434	11.276	183.6	0.613317378	0.759896024	0.012685366	0.130872580	0.040336200
2019-10-23T20:25:00	0.2446	11.257	196.2	0.617386400	0.765910275	0.012842254	0.132491163	0.040835063
2019-10-23T20:30:00	0.2425	11.237	183.4	0.610488875	0.755723535	0.012576895	0.129753504	0.039991290
2019-10-23T20:35:00	0.2447	11.218	196.1	0.617550671	0.766153369	0.012848608	0.132556723	0.040855269
2019-10-23T20:40:00	0.2464	11.198	183.2	0.623272740	0.774635305	0.013070976	0.134850850	0.041562342
2019-10-23T20:45:00	0.2452	11.180	195.9	0.619374627	0.768854060	0.012919276	0.133285784	0.041079973
2019-10-23T20:50:00	0.2459	11.160	183.0	0.621778937	0.772418349	0.013012734	0.134249981	0.041377148
2019-10-23T20:55:00	0.2465	11.140	195.5	0.623518737	0.775000570	0.013080580	0.134949933	0.041592880
2019-10-23T21:00:00	0.2457	11.121	182.9	0.620948000	0.771185968	0.012980395	0.133916344	0.041274318
2019-10-23T21:05:00	0.2463	11.103	195.4	0.623019742	0.774259698	0.013061102	0.134748986	0.041530946
2019-10-23T21:10:00	0.2459	11.084	195.4	0.621775444	0.772413167	0.013012598	0.134248577	0.041376715
2019-10-23T21:15:00	0.2440	11.065	195.1	0.615218693	0.762704544	0.012758550	0.131627610	0.040568908
2019-10-23T21:20:00	0.2446	11.049	182.4	0.617293769	0.765773206	0.012838671	0.132454202	0.040823671
2019-10-23T21:25:00	0.2444	11.031	195.0	0.616711750	0.764912140	0.012816172	0.132222089	0.040752132
2019-10-23T21:30:00	0.2442	11.014	182.3	0.616129636	0.764051218	0.012793691	0.131990148	0.040680646
2019-10-23T21:35:00	0.2415	10.997	182.2	0.606899239	0.750437929	0.012439926	0.128340428	0.039555766
2019-10-23T21:40:00	0.2429	10.981	182.1	0.611640843	0.757422058	0.012621014	0.130208673	0.040131578
2019-10-23T21:45:00	0.2435	10.964	182.0	0.613718007	0.760487558	0.012700768	0.131031487	0.040385177
2019-10-23T21:50:00	0.2437	10.947	182.0	0.614464929	0.761590760	0.012729511	0.131328015	0.040476570
2019-10-23T21:55:00	0.2398	10.931	181.9	0.601229721	0.742111781	0.012225171	0.126124832	0.038872898
2019-10-23T22:00:00	0.2437	10.915	181.8	0.614297015	0.761342711	0.012723046	0.131261323	0.040456014
2019-10-23T22:05:00	0.2411	10.899	181.7	0.605778332	0.748789648	0.012397315	0.127900812	0.039420272
2019-10-23T22:10:00	0.2408	10.883	181.6	0.604578146	0.747025959	0.012351773	0.127430964	0.039275461
2019-10-23T22:15:00	0.2405	10.867	181.5	0.603710898	0.745752277	0.012318918	0.127092009	0.039170991
2019-10-23T22:20:00	0.2379	10.852	181.5	0.595166697	0.733237501	0.011997637	0.123777411	0.038149400
2019-10-23T22:25:00	0.2412	10.837	181.4	0.605975399	0.749079357	0.012404801	0.127978044	0.039444076
2019-10-23T22:30:00	0.2399	10.823	181.3	0.601774961	0.742911340	0.012245740	0.126337043	0.038938304
2019-10-23T22:35:00	0.2394	10.810	181.3	0.599906109	0.740171823	0.012175311	0.125610434	0.038714356
2019-10-23T22:40:00	0.2413	10.797	181.2	0.606373009	0.749663983	0.012419912	0.128133945	0.039492126
2019-10-23T22:45:00	0.2422	10.785	181.1	0.609501855	0.754269107	0.012539156	0.129364164	0.039871292
2019-10-23T22:50:00	0.2406	10.772	181.1	0.603972635	0.746136610	0.012328829	0.127194257	0.039202505
2019-10-23T22:55:00	0.2421	10.760	181.0	0.609101090	0.753678790	0.012523850	0.129206250	0.039822621
2019-10-23T23:00:00	0.2431	10.745	181.0	0.612227534	0.758287535	0.012643514	0.130440804	0.040203123
2019-10-23T23:05:00	0.2428	10.729	180.9	0.611362153	0.757011041	0.012610333	0.130098481	0.040097615
2019-10-23T23:10:00	0.2440	10.713	180.8	0.615483421	0.763095827	0.012768757	0.131732914	0.040601363
2019-10-23T23:15:00	0.2439	10.696	180.7	0.614951123	0.762309120	0.012748238	0.131521219	0.040536117
2019-10-23T23:20:00	0.2441	10.679	180.6	0.615747791	0.763486640	0.012778955	0.131838118	0.040633788
2019-10-23T23:25:00	0.2443	10.662	180.6	0.616212140	0.764173220	0.012796876	0.132023009	0.040690774
2019-10-23T23:30:00	0.2467	10.644	180.5	0.624306848	0.776171131	0.013111374	0.135267625	0.041690796
2019-10-23T23:35:00	0.2469	10.624	180.4	0.625101428	0.777351830	0.013142458	0.135588315	0.041789636
2019-10-23T23:40:00	0.2474	10.605	180.2	0.626558280	0.779518011	0.013199550	0.136177320	0.041971172
2019-10-23T23:45:00	0.2470	10.584	180.2	0.625365085	0.777743727	0.013152781	0.135694814	0.041822459
2019-10-23T23:50:00	0.2475	10.564	180.1	0.626821830	0.779910073	0.013209891	0.136284014	0.042004057
2019-10-23T23:55:00	0.2477	10.545	180.0	0.627615851	0.781091628	0.013241074	0.136605724	0.042103211
2019-10-24T00:00:00	0.2471	10.526	179.9	0.625760535	0.778331628	0.013168271	0.135854628	0.041871716
2019-10-24T00:05:00	0.2447	10.507	179.8	0.617601327	0.766228337	0.012850568	0.132576943	0.040861501
2019-10-24T00:10:00	0.2450	10.489	179.7	0.618729340	0.767898276	0.012894252	0.133027617	0.041000404
2019-10-24T00:15:00	0.2467	10.470	179.6	0.624168001	0.775964867	0.013105946	0.135211626	0.041673536
2019-10-24T00:20:00	0.2467	10.452	179.6	0.624299866	0.776160759	0.013111101	0.135264809	0.041689928
2019-10-24T00:25:00	0.2461	10.434	179.5	0.622442827	0.773403397	0.013038602	0.134516853	0.041459400
2019-10-24T00:30:00	0.2446	10.416	179.4	0.617265787	0.765731802	0.012837589	0.132443038	0.040820231
2019-10-24T00:35:00	0.2434	10.399	179.3	0.613411129	0.760034437	0.012688969	0.130909757	0.040347658
2019-10-24T00:40:00	0.2434	10.382	179.2	0.613210973	0.759738937	0.012681276	0.130830392	0.040323197
2019-10-24T00:45:00	0.2449	10.366	191.5	0.618326116	0.767301211	0.012878628	0.132866427	0.040950723
2019-10-24T00:50:00	0.2453	10.349	179.0	0.619785737	0.769463168	0.012935231	0.133450396	0.041130708
2019-10-24T00:55:00	0.2430	10.331	178.9	0.611945387	0.757871281	0.012632691	0.130329143	0.040168708
2019-10-24T01:00:00	0.2442	10.315	191.2	0.616065980	0.763957089	0.012791233	0.131964797	0.040672832
2019-10-24T01:05:00	0.2441	10.297	178.8	0.615533768	0.763170250	0.012770699	0.131752945	0.040607537
2019-10-24T01:10:00	0.2428	10.279	191.0	0.611344636	0.756985208	0.012609662	0.130091556	0.040095481
2019-10-24T01:15:00	0.2439	10.261	190.9	0.615133683	0.762578906	0.012755273	0.131593803	0.040558488
2019-10-24T01:20:00	0.2433	10.244	178.5	0.612939410	0.759338072	0.012670843	0.130722753	0.040290022
2019-10-24T01:25:00	0.2431	10.227	190.7	0.612406731	0.758551941	0.012650391	0.130511748	0.040224988
2019-10-24T01:30:00	0.2441	10.211	178.4	0.615530269	0.763165077	0.012770564	0.131751553	0.040607108
2019-10-24T01:35:00	0.2423	10.194	190.6	0.609677685	0.754528141	0.012545875	0.129433478	0.039892655
2019-10-24T01:40:00	0.2430	10.177	190.4	0.612138610	0.758156337	0.012640102	0.130405607	0.040192274
2019-10-24T01:45:00	0.2416	10.159	190.4	0.607279548	0.750997406	0.012454401	0.128489760	0.039601792
2019-10-24T01:50:00	0.2411	10.140	190.3	0.605746750	0.748743223	0.012396115	0.127888437	0.039416458
2019-10-24T01:55:00	0.2423	10.122	190.2	0.609541771	0.754327909	0.012540681	0.129379898	0.039876141
2019-10-24T02:00:00	0.2416	10.102	190.0	0.607344041	0.751092296	0.012456857	0.128515093	0.039609600
2019-10-24T02:05:00	0.2430	10.083	189.9	0.612135107	0.758151169	0.012639968	0.130404220	0.040191847
2019-10-24T02:10:00	0.2419	10.064	189.9	0.608274877	0.752462227	0.012492325	0.128881011	0.039722379
2019-10-24T02:15:00	0.2419	10.046	189.8	0.608407333	0.752657224	0.012497376	0.128933124	0.039738441
2019-10-24T02:20:00	0.2443	10.027	189.7	0.616187649	0.764137003	0.012795930	0.132013254	0.040687767
2019-10-24T02:25:00	0.2426	10.010	189.6	0.610668838	0.755988809	0.012583782	0.129824558	0.040013190
2019-10-24T02:30:00	0.2436	9.992	177.3	0.614126270	0.761090503	0.012716475	0.131193524	0.040435118
2019-10-24T02:35:00	0.2431	9.975	189.4	0.612263916	0.758341215	0.012644910	0.130455206	0.040207562
2019-10-24T02:40:00	0.2428	9.959	177.2	0.611398545	0.757064708	0.012611727	0.130112867	0.040102049
2019-10-24T02:45:00	0.2444	9.945	177.1	0.616516293	0.764623035	0.012808621	0.132144187	0.040728122
2019-10-24T02:50:00	0.2448	9.930	177.0	0.617976657	0.766783865	0.012865095	0.132726811	0.040907692
2019-10-24T02:55:00	0.2432	9.917	176.9	0.612793115	0.759122145	0.012665224	0.130664785	0.040272156
2019-10-24T03:00:00	0.2428	9.904	176.9	0.611262697	0.756864377	0.012606522	0.130059168	0.040085499
2019-10-24T03:05:00	0.2439	9.889	176.8	0.615051831	0.762457943	0.012752119	0.131561257	0.040548457
2019-10-24T03:10:00	0.2447	9.877	176.7	0.617509040	0.766091760	0.012846998	0.132540107	0.040850148
2019-10-24T03:15:00	0.2452	9.863	176.7	0.619300880	0.768744809	0.012916414	0.133256266	0.041070875
2019-10-24T03:20:00	0.2454	9.851	176.6	0.620096575	0.769923806	0.012947302	0.133574928	0.041169090
2019-10-24T03:25:00	0.2452	9.838	176.5	0.619233107	0.768644413	0.012913785	0.133229142	0.041062516
2019-10-24T03:30:00	0.2461	9.826	176.5	0.622350665	0.773266629	0.013035009	0.134479789	0.041447977
2019-10-24T03:35:00	0.2456	9.814	176.4	0.620492609	0.770510815	0.012962690	0.133733679	0.041218019
2019-10-24T03:40:00	0.2441	9.802	176.4	0.615644958	0.763334617	0.012774988	0.131797191	0.040621174
2019-10-24T03:45:00	0.2452	9.790	176.3	0.619429430	0.768935247	0.012921402	0.133307721	0.041086734
2019-10-24T03:50:00	0.2467	9.778	176.2	0.624204262	0.776018732	0.013107363	0.135226250	0.041678043
2019-10-24T03:55:00	0.2468	9.766	188.3	0.624667510	0.776706988	0.013125478	0.135413138	0.041735644
2019-10-24T04:00:00	0.2458	9.754	176.1	0.621484249	0.771981224	0.013001261	0.134131609	0.041340664
2019-10-24T04:05:00	0.2465	9.742	188.2	0.623517648	0.774998954	0.013080538	0.134949494	0.041592745
2019-10-24T04:10:00	0.2464	9.731	176.0	0.623230124	0.774572033	0.013069313	0.134833689	0.041557052
2019-10-24T04:15:00	0.2461	9.721	176.0	0.622279457	0.773160962	0.013032234	0.134451156	0.041439152
2019-10-24T04:20:00	0.2469	9.714	188.0	0.624975146	0.777164147	0.013137515	0.135537322	0.041773919
2019-10-24T04:25:00	0.2470	9.710	188.0	0.625350413	0.777721917	0.013152206	0.135688886	0.041820633
2019-10-24T04:30:00	0.2453	9.706	175.9	0.619757775	0.769421734	0.012934146	0.133439196	0.041127256
2019-10-24T04:35:00	0.2447	9.704	175.9	0.617810300	0.766537624	0.012858655	0.132660374	0.040887216
2019-10-24T04:40:00	0.2439	9.704	175.9	0.614865052	0.762181934	0.012744921	0.131487006	0.040525572
2019-10-24T04:45:00	0.2426	9.705	175.9	0.610586884	0.755868001	0.012580645	0.129792198	0.040003216
2019-10-24T04:50:00	0.2442	9.706	175.9	0.615949874	0.763785415	0.012786752	0.131918566	0.040658583
2019-10-24T04:55:00	0.2429	9.706	188.0	0.611673013	0.757469507	0.012622247	0.130221396	0.040135499
2019-10-24T05:00:00	0.2443	9.706	175.9	0.616370145	0.764406886	0.012802977	0.132085953	0.040710173
2019-10-24T05:05:00	0.2430	9.704	188.0	0.612093789	0.758090212	0.012638383	0.130387868	0.040186807
2019-10-24T05:10:00	0.2439	9.701	187.9	0.615129468	0.762572677	0.012755111	0.131592127	0.040557972
2019-10-24T05:15:00	0.2430	9.699	175.9	0.612181999	0.758220352	0.012641767	0.130422780	0.040197567
2019-10-24T05:20:00	0.2439	9.698	188.0	0.614885337	0.762211909	0.012745703	0.131495069	0.040528057
2019-10-24T05:25:00	0.2414	9.697	187.9	0.606612784	0.750016599	0.012429030	0.128228007	0.039521117
2019-10-24T05:30:00	0.2418	9.698	187.9	0.607988910	0.752041285	0.012481423	0.128768539	0.039687714
2019-10-24T05:35:00	0.2409	9.698	187.9	0.605035505	0.747697911	0.012369118	0.127609905	0.039330612
2019-10-24T05:40:00	0.2411	9.700	175.9	0.605746033	0.748742169	0.012396088	0.127888156	0.039416372
2019-10-24T05:45:00	0.2423	9.702	175.7	0.609785553	0.754687067	0.012549997	0.129476010	0.039905764
2019-10-24T05:50:00	0.2413	9.704	175.9	0.606500594	0.749851605	0.012424763	0.128183992	0.039507551
2019-10-24T05:55:00	0.2399	9.706	175.9	0.601545323	0.742574560	0.012237075	0.126247644	0.038910750
2019-10-24T06:00:00	0.2405	9.708	187.9	0.603590160	0.745575004	0.012314348	0.127044856	0.039156458
2019-10-24T06:05:00	0.2406	9.713	188.0	0.603967690	0.746129348	0.012328642	0.127192325	0.039201910
2019-10-24T06:10:00	0.2410	9.718	176.0	0.605344843	0.748152491	0.012380856	0.127731007	0.039367937
2019-10-24T06:15:00	0.2419	9.724	176.0	0.608386294	0.752626251	0.012496574	0.128924846	0.039735890
2019-10-24T06:20:00	0.2420	9.728	176.0	0.608763314	0.753181361	0.012510957	0.129073234	0.039781624
2019-10-24T06:25:00	0.2412	9.734	176.0	0.606143669	0.749326757	0.012411195	0.128044010	0.039464408
2019-10-24T06:30:00	0.2420	9.739	176.0	0.608851607	0.753311376	0.012514326	0.129107997	0.039792338
2019-10-24T06:35:00	0.2428	9.745	176.1	0.611224873	0.756808601	0.012605073	0.130044219	0.040080891
2019-10-24T06:40:00	0.2428	9.750	176.1	0.611268988	0.756873654	0.012606763	0.130061655	0.040086265
2019-10-24T06:45:00	0.2425	9.754	176.1	0.610315121	0.755467439	0.012570247	0.129684921	0.039970152
2019-10-24T06:50:00	0.2420	9.761	176.1	0.608695341	0.753081270	0.012508363	0.129046474	0.039773377
2019-10-24T06:55:00	0.2430	9.766	176.2	0.612066482	0.758049925	0.012637336	0.130377061	0.040183476
2019-10-24T07:00:00	0.2430	9.773	176.2	0.612110587	0.758114995	0.012639027	0.130394516	0.040188856
2019-10-24T07:05:00	0.2435	9.781	176.2	0.613816981	0.760633715	0.012704575	0.131070760	0.040397281
2019-10-24T07:10:00	0.2428	9.790	188.3	0.611201063	0.756773491	0.012604161	0.130034809	0.040077991
2019-10-24T07:15:00	0.2431	9.801	176.3	0.612242900	0.758310207	0.012644104	0.130446887	0.040204997
2019-10-24T07:20:00	0.2431	9.813	176.3	0.612287003	0.758375280	0.012645796	0.130464346	0.040210378
2019-10-24T07:25:00	0.2429	9.824	176.4	0.611666006	0.757459172	0.012621978	0.130218625	0.040134645
2019-10-24T07:30:00	0.2437	9.836	176.5	0.614369737	0.761450136	0.012725846	0.131290204	0.040464916
2019-10-24T07:35:00	0.2443	9.850	188.7	0.616407200	0.764461687	0.012804408	0.132100716	0.040714724
2019-10-24T07:40:00	0.2418	9.865	176.6	0.608138194	0.752261021	0.012487113	0.128827246	0.039705809
2019-10-24T07:45:00	0.2435	9.882	176.6	0.613837272	0.760663681	0.012705356	0.131078812	0.040399763
2019-10-24T07:50:00	0.2417	9.901	176.7	0.607560632	0.751410992	0.012465105	0.128600189	0.039635827
2019-10-24T07:55:00	0.2413	9.923	176.8	0.606272696	0.749516475	0.012416099	0.128094604	0.039480001
2019-10-24T08:00:00	0.2418	9.947	176.9	0.607981896	0.752030962	0.012481156	0.128765781	0.039686864
2019-10-24T08:05:00	0.2419	9.971	189.2	0.608358959	0.752586007	0.012495531	0.128914091	0.039732575
2019-10-24T08:10:00	0.2413	9.996	189.4	0.606405226	0.749711359	0.012421137	0.128146582	0.039496021
2019-10-24T08:15:00	0.2403	10.024	189.5	0.603117133	0.744880608	0.012296450	0.126860209	0.039099549
2019-10-24T08:20:00	0.2393	10.052	189.7	0.599825984	0.740054435	0.012172296	0.125579330	0.038704769
2019-10-24T08:25:00	0.2400	10.080	189.8	0.601871813	0.743053393	0.012249396	0.126374758	0.038949928
2019-10-24T08:30:00	0.2407	10.105	189.9	0.604249754	0.746543592	0.012339327	0.127302561	0.039235886
2019-10-24T08:35:00	0.2408	10.130	177.8	0.604627214	0.747098041	0.012353633	0.127450156	0.039281376
2019-10-24T08:40:00	0.2408	10.155	190.1	0.604671412	0.747162971	0.012355309	0.127467444	0.039286704
2019-10-24T08:45:00	0.2404	10.184	178.1	0.603382425	0.745270030	0.012306486	0.126963750	0.039131461
2019-10-24T08:50:00	0.2403	10.220	190.5	0.603093269	0.744845581	0.012295548	0.126850898	0.039096679
2019-10-24T08:55:00	0.2401	10.261	178.4	0.602470659	0.743931897	0.012272012	0.126608081	0.039021840
2019-10-24T09:00:00	0.2416	10.304	178.6	0.607512963	0.751340847	0.012463289	0.128581458	0.039630054
2019-10-24T09:05:00	0.2409	10.350	178.8	0.604892393	0.747487633	0.012363689	0.127553899	0.039313351
2019-10-24T09:10:00	0.2385	10.401	179.1	0.596930442	0.735815877	0.012063601	0.124457943	0.038359147
2019-10-24T09:15:00	0.2418	10.454	179.3	0.607978389	0.752025800	0.012481022	0.128764402	0.039686439
2019-10-24T09:20:00	0.2405	10.500	179.5	0.603691908	0.745724394	0.012318199	0.127084592	0.039168705
2019-10-24T09:25:00	0.2416	10.542	179.6	0.607400802	0.751175811	0.012459018	0.128537391	0.039616472
2019-10-24T09:30:00	0.2418	10.586	179.8	0.608110856	0.752220781	0.012486071	0.128816495	0.039702495
2019-10-24T09:35:00	0.2413	10.636	192.4	0.606490069	0.749836127	0.012424363	0.128179863	0.039506279
2019-10-24T09:40:00	0.2423	10.687	180.3	0.609530539	0.754311362	0.012540252	0.129375470	0.039874776
2019-10-24T09:45:00	0.2416	10.738	180.5	0.607244472	0.750945801	0.012453066	0.128475984	0.039597546
2019-10-24T09:50:00	0.2406	10.787	180.8	0.603957157	0.746113881	0.012328243	0.127188209	0.039200641
2019-10-24T09:55:00	0.2405	10.836	181.0	0.603668047	0.745689360	0.012317296	0.127075273	0.039165833
2019-10-24T10:00:00	0.2392	10.881	181.3	0.599376343	0.739395782	0.012155384	0.125404854	0.038650994
2019-10-24T10:05:00	0.2390	10.922	181.6	0.598670509	0.738362185	0.012128860	0.125131217	0.038566656
2019-10-24T10:10:00	0.2377	10.966	181.8	0.594290058	0.731956931	0.011964920	0.123439878	0.038045369
2019-10-24T10:15:00	0.2378	11.011	182.0	0.594585917	0.732389041	0.011975957	0.123553740	0.038080462
2019-10-24T10:20:00	0.2346	11.062	182.3	0.583837155	0.716736973	0.011578339	0.119451591	0.036816141
2019-10-24T10:25:00	0.2356	11.109	182.5	0.587484115	0.722036797	0.011712476	0.120835459	0.037242662
2019-10-24T10:30:00	0.2367	11.150	195.3	0.591127302	0.727342191	0.011847265	0.122226049	0.037671255
2019-10-24T10:35:00	0.2359	11.191	182.8	0.588411740	0.723386603	0.011746721	0.121188756	0.037351551
2019-10-24T10:40:00	0.2359	11.224	182.9	0.588373329	0.723330696	0.011745302	0.121174116	0.037347039
2019-10-24T10:45:00	0.2343	11.246	183.0	0.582974326	0.715484714	0.011546720	0.119125378	0.036715598
2019-10-24T10:50:00	0.2330	11.262	183.1	0.578574300	0.709108391	0.011386162	0.117468934	0.036205066
2019-10-24T10:55:00	0.2334	11.273	183.2	0.579878390	0.710996545	0.011433629	0.117958639	0.036355998
2019-10-24T11:00:00	0.2335	11.286	196.0	0.580175462	0.711426864	0.011444456	0.118070339	0.036390425
2019-10-24T11:05:00	0.2332	11.298	196.0	0.579130127	0.709912984	0.011406381	0.117677528	0.036269357
2019-10-24T11:10:00	0.2303	11.304	196.1	0.569680422	0.696268792	0.011065128	0.114156884	0.035184260
2019-10-24T11:15:00	0.2290	11.312	196.1	0.565263658	0.689916871	0.010907439	0.112530035	0.034682850
2019-10-24T11:20:00	0.2305	11.331	196.2	0.570276271	0.697126940	0.011086489	0.114377266	0.035252184
2019-10-24T11:25:00	0.2295	11.353	183.6	0.566870917	0.692226468	0.010964688	0.113120669	0.034864889
2019-10-24T11:30:00	0.2280	11.377	196.4	0.561776005	0.684912517	0.010783735	0.111253805	0.034289503
2019-10-24T11:35:00	0.2287	11.400	183.8	0.564097829	0.688242933	0.010866008	0.112102602	0.034551111
2019-10-24T11:40:00	0.2305	11.420	196.6	0.570121830	0.696904484	0.011080950	0.114320123	0.035234572
2019-10-24T11:45:00	0.2299	11.439	196.7	0.568063471	0.693941522	0.011007265	0.113559925	0.035000272
2019-10-24T11:50:00	0.2284	11.460	184.1	0.562970301	0.686625055	0.010826015	0.111689998	0.034423942
2019-10-24T11:55:00	0.2285	11.480	184.2	0.563605979	0.687537054	0.010848553	0.111922520	0.034495608
2019-10-24T12:00:00	0.2276	11.500	197.1	0.560531576	0.683129342	0.010739770	0.110800224	0.034149705
2019-10-24T12:05:00	0.2274	11.522	197.1	0.559817888	0.682107255	0.010714597	0.110540518	0.034069661
2019-10-24T12:10:00	0.2251	11.546	197.3	0.552007494	0.670949222	0.010441068	0.107718579	0.033199912
2019-10-24T12:15:00	0.2279	11.569	197.4	0.561427656	0.684413230	0.010771419	0.111126740	0.034250341
2019-10-24T12:20:00	0.2259	11.593	197.6	0.554635087	0.674697438	0.010532689	0.108663811	0.033491242
2019-10-24T12:25:00	0.2271	11.615	197.7	0.558650237	0.680435943	0.010673476	0.110116285	0.033938908
2019-10-24T12:30:00	0.2268	11.633	185.0	0.557598446	0.678931428	0.010636504	0.109734855	0.033821348
2019-10-24T12:35:00	0.2262	11.646	197.8	0.555870602	0.676461840	0.010575910	0.109109714	0.033628674
2019-10-24T12:40:00	0.2268	11.659	185.1	0.557858670	0.679303575	0.010645645	0.109829162	0.033850414
2019-10-24T12:45:00	0.2291	11.670	198.0	0.565578651	0.690369340	0.010918647	0.112645664	0.034718488
2019-10-24T12:50:00	0.2262	11.684	185.2	0.555754292	0.676295688	0.010571837	0.109067698	0.033615724
2019-10-24T12:55:00	0.2264	11.700	198.2	0.556391287	0.677205792	0.010594152	0.109297910	0.033686677
2019-10-24T13:00:00	0.2267	11.722	185.4	0.557365938	0.678598964	0.010628340	0.109650627	0.033795388
2019-10-24T13:05:00	0.2261	11.742	185.5	0.555300039	0.675646880	0.010555939	0.108903680	0.033565172
2019-10-24T13:10:00	0.2256	11.760	185.6	0.553571052	0.673178928	0.010495539	0.108280538	0.033373114
2019-10-24T13:15:00	0.2262	11.774	185.7	0.555560434	0.676018781	0.010565051	0.108997686	0.033594145
2019-10-24T13:20:00	0.2237	11.784	185.7	0.547401753	0.664392885	0.010281451	0.106071833	0.032692369
2019-10-24T13:25:00	0.2235	11.791	198.7	0.546685364	0.663374659	0.010256735	0.105816848	0.032613780
2019-10-24T13:30:00	0.2228	11.798	198.7	0.544274087	0.659950522	0.010173767	0.104960879	0.032349962
2019-10-24T13:35:00	0.2217	11.798	198.8	0.540503796	0.654606053	0.010044720	0.103629522	0.031939625
2019-10-24T13:40:00	0.2225	11.795	198.8	0.543179023	0.658397047	0.010136200	0.104573308	0.032230509
2019-10-24T13:45:00	0.2218	11.790	198.8	0.540765304	0.654976371	0.010053644	0.103721588	0.031968001
2019-10-24T13:50:00	0.2222	11.784	185.9	0.542083613	0.656844063	0.010098692	0.104186339	0.032111241
2019-10-24T13:55:00	0.2207	11.778	185.8	0.536952206	0.649582223	0.009923919	0.102383239	0.031555509
2019-10-24T14:00:00	0.2207	11.773	185.8	0.536913225	0.649527140	0.009922597	0.102369602	0.031551306
2019-10-24T14:05:00	0.2194	11.771	198.6	0.532794756	0.643714464	0.009783446	0.100934013	0.031108843
2019-10-24T14:10:00	0.2203	11.768	185.7	0.535815829	0.647976958	0.009885422	0.101986080	0.031433100
2019-10-24T14:15:00	0.2189	11.766	198.6	0.531015450	0.641207485	0.009723635	0.100316953	0.030918659
2019-10-24T14:20:00	0.2206	11.762	185.7	0.536757294	0.649306813	0.009917310	0.102315063	0.031534496
2019-10-24T14:25:00	0.2187	11.759	198.6	0.530256602	0.640139080	0.009698183	0.100054366	0.030837727
2019-10-24T14:30:00	0.2190	11.755	198.5	0.531238631	0.641521798	0.009731127	0.100394248	0.030942482
2019-10-24T14:35:00	0.2198	11.751	185.6	0.533921035	0.645302685	0.009821402	0.101325589	0.031229531
2019-10-24T14:40:00	0.2176	11.747	185.6	0.526392773	0.634706340	0.009569107	0.098722716	0.030427300
2019-10-24T14:45:00	0.2158	11.740	185.6	0.520213900	0.626043739	0.009364501	0.096611826	0.029776703
2019-10-24T14:50:00	0.2168	11.731	198.4	0.523928156	0.631247303	0.009487228	0.097877982	0.030166945
2019-10-24T14:55:00	0.2153	11.723	198.4	0.518769642	0.624023396	0.009316995	0.096121724	0.029625649
2019-10-24T15:00:00	0.2162	11.714	198.3	0.521803035	0.628268701	0.009416911	0.097152535	0.029943355
2019-10-24T15:05:00	0.2178	11.705	198.4	0.527219541	0.635867797	0.009596653	0.099006903	0.030514889
2019-10-24T15:10:00	0.2183	11.694	198.3	0.528883591	0.638207165	0.009652216	0.099580136	0.030691565
2019-10-24T15:15:00	0.2164	11.685	198.2	0.522368020	0.629060235	0.009435580	0.097345138	0.030002717
2019-10-24T15:20:00	0.2173	11.675	198.2	0.525398242	0.633309943	0.009536025	0.098381407	0.030322105
2019-10-24T15:25:00	0.2172	11.665	198.2	0.525018220	0.632776576	0.009523398	0.098251146	0.030281957
2019-10-24T15:30:00	0.2158	11.655	185.2	0.520544151	0.626505957	0.009375380	0.096724070	0.029811298
2019-10-24T15:35:00	0.2173	11.643	198.1	0.525621788	0.633623748	0.009543456	0.098458073	0.030345734
2019-10-24T15:40:00	0.2159	11.630	197.9	0.520807176	0.626874151	0.009384050	0.096813513	0.029838865
2019-10-24T15:45:00	0.2179	11.616	197.9	0.527588207	0.636385884	0.009608949	0.099133758	0.030553987
2019-10-24T15:50:00	0.2206	11.601	197.8	0.536735128	0.649275494	0.009916559	0.102307311	0.031532107
2019-10-24T15:55:00	0.2202	11.586	197.8	0.535336780	0.647300562	0.009869217	0.101818888	0.031381570
2019-10-24T16:00:00	0.2210	11.570	197.7	0.538016004	0.651085917	0.009960024	0.102755737	0.031670316
2019-10-24T16:05:00	0.2193	11.552	197.6	0.532445102	0.643221611	0.009771678	0.100812603	0.031071423
2019-10-24T16:10:00	0.2232	11.533	184.7	0.545555402	0.661769462	0.010217813	0.105415290	0.032490016
2019-10-24T16:15:00	0.2216	11.513	197.4	0.539996638	0.653888033	0.010027425	0.103451090	0.031884631
2019-10-24T16:20:00	0.2229	11.491	197.3	0.544613831	0.660432688	0.010185437	0.105081271	0.032387068
2019-10-24T16:25:00	0.2222	11.470	197.1	0.542108089	0.656878752	0.010099529	0.104194977	0.032113904
2019-10-24T16:30:00	0.2219	11.449	184.3	0.541297561	0.655730266	0.010071819	0.103909101	0.032025794
2019-10-24T16:35:00	0.2264	11.428	196.9	0.556402155	0.677221321	0.010594533	0.109301839	0.033687888
2019-10-24T16:40:00	0.2270	11.409	196.9	0.558297329	0.679931031	0.010661064	0.109988229	0.033899440
2019-10-24T16:45:00	0.2252	11.388	196.8	0.552420726	0.671538316	0.010455450	0.107866955	0.033245643
2019-10-24T16:50:00	0.2266	11.366	196.6	0.557021433	0.678106436	0.010616249	0.109525888	0.033756942
2019-10-24T16:55:00	0.2254	11.346	196.5	0.552834063	0.672127698	0.010469846	0.108015472	0.033291418
2019-10-24T17:00:00	0.2262	11.325	196.5	0.555745068	0.676282512	0.010571515	0.109064366	0.033614697
2019-10-24T17:05:00	0.2247	11.304	196.3	0.550541052	0.668859833	0.010390112	0.107192870	0.033037884
2019-10-24T17:10:00	0.2244	11.282	196.3	0.549732493	0.667708552	0.010362070	0.106903565	0.032948717
2019-10-24T17:15:00	0.2247	11.259	183.4	0.550616217	0.668966886	0.010392721	0.107219785	0.033046179
2019-10-24T17:20:00	0.2257	11.236	183.3	0.553867190	0.673601461	0.010505872	0.108387141	0.033405969
2019-10-24T17:25:00	0.2258	11.215	183.2	0.554411838	0.674378757	0.010524889	0.108583339	0.033466439
2019-10-24T17:30:00	0.2276	11.192	183.1	0.560360038	0.682883641	0.010733717	0.110737775	0.034130458
2019-10-24T17:35:00	0.2274	11.169	183.0	0.559891286	0.682212349	0.010717184	0.110567213	0.034077889
2019-10-24T17:40:00	0.2272	11.148	182.9	0.559084897	0.681057960	0.010688774	0.110274109	0.033987551
2019-10-24T17:45:00	0.2263	11.126	182.7	0.555913848	0.676523622	0.010577425	0.109125339	0.033633489
2019-10-24T17:50:00	0.2259	11.103	182.7	0.554768547	0.674887968	0.010537353	0.108711933	0.033506074
2019-10-24T17:55:00	0.2271	11.080	182.6	0.558690963	0.680494218	0.010674909	0.110131068	0.033943465
2019-10-24T18:00:00	0.2242	11.059	182.4	0.549092857	0.666798175	0.010339914	0.106674982	0.032878265
2019-10-24T18:05:00	0.2251	11.037	182.4	0.552006995	0.670948512	0.010441051	0.107718400	0.033199857
2019-10-24T18:10:00	0.2254	11.016	182.2	0.552890141	0.672207672	0.010471800	0.108035630	0.033297630
2019-10-24T18:15:00	0.2263	10.996	182.2	0.556138991	0.676845284	0.010585311	0.109206700	0.033658565
2019-10-24T18:20:00	0.2264	10.977	182.1	0.556345444	0.677140283	0.010592545	0.109281334	0.033681568
2019-10-24T18:25:00	0.2274	10.958	182.0	0.559591072	0.681782514	0.010706603	0.110458046	0.034044242
2019-10-24T18:30:00	0.2266	10.940	181.9	0.557096114	0.678213197	0.010618870	0.109552922	0.033765275
2019-10-24T18:35:00	0.2286	10.922	181.8	0.563714084	0.687692184	0.010852388	0.111962088	0.034507803
2019-10-24T18:40:00	0.2293	10.903	181.7	0.566279142	0.691375852	0.010943592	0.112903021	0.034797808
2019-10-24T18:45:00	0.2311	10.887	181.6	0.572207167	0.699909853	0.011155857	0.115092922	0.035472756
2019-10-24T18:50:00	0.2295	10.869	181.6	0.566690839	0.691967593	0.010958267	0.113054415	0.034844469
2019-10-24T18:55:00	0.2282	10.851	181.4	0.562515078	0.685972157	0.010809889	0.111523634	0.034372667
2019-10-24T19:00:00	0.2274	10.832	181.4	0.559684698	0.681916557	0.010709902	0.110492085	0.034054734
2019-10-24T19:05:00	0.2285	10.814	193.8	0.563601588	0.687530752	0.010848397	0.111920913	0.034495112
2019-10-24T19:10:00	0.2273	10.794	181.1	0.559422126	0.681540656	0.010700650	0.110396636	0.034025315
2019-10-24T19:15:00	0.2271	10.776	181.0	0.558615628	0.680386423	0.010672258	0.110103723	0.033935037
2019-10-24T19:20:00	0.2282	10.758	181.0	0.562533718	0.685998890	0.010810549	0.111530444	0.034374766
2019-10-24T19:25:00	0.2276	10.738	180.8	0.560378347	0.682909864	0.010734363	0.110744439	0.034132512
2019-10-24T19:30:00	0.2264	10.720	180.8	0.556532869	0.677408120	0.010599115	0.109349111	0.033702458
2019-10-24T19:35:00	0.2286	10.702	180.7	0.563826234	0.687853128	0.010856368	0.112003144	0.034520457
2019-10-24T19:40:00	0.2301	10.687	180.6	0.568748594	0.694927353	0.011031763	0.113812669	0.035078170
2019-10-24T19:45:00	0.2284	10.671	180.5	0.563226801	0.686993012	0.010835106	0.111783793	0.034452851
2019-10-24T19:50:00	0.2274	10.656	193.0	0.559722010	0.681969978	0.010711217	0.110505652	0.034058915
2019-10-24T19:55:00	0.2272	10.641	180.4	0.558915582	0.680815645	0.010682814	0.110212618	0.033968599
2019-10-24T20:00:00	0.2261	10.627	180.3	0.555406450	0.675798852	0.010559662	0.108942091	0.033577011
2019-10-24T20:05:00	0.2250	10.610	192.6	0.551555471	0.670304992	0.010425348	0.107556393	0.033149925
2019-10-24T20:10:00	0.2245	10.594	180.1	0.550070284	0.668189457	0.010373780	0.107024380	0.032985953
2019-10-24T20:15:00	0.2245	10.578	192.4	0.549938637	0.668002023	0.010369216	0.106977287	0.032971439
2019-10-24T20:20:00	0.2240	10.563	180.0	0.548114119	0.665405812	0.010306057	0.106325694	0.032770612
2019-10-24T20:25:00	0.2226	10.548	192.4	0.543576909	0.658961381	0.010149842	0.104714046	0.032273886
2019-10-24T20:30:00	0.2249	10.533	179.8	0.551235836	0.669849543	0.010414239	0.107441783	0.033114601
2019-10-24T20:35:00	0.2265	10.520	192.2	0.556851673	0.677863773	0.010610294	0.109464447	0.033738006
2019-10-24T20:40:00	0.2260	10.506	179.7	0.555030781	0.675262381	0.010546522	0.108806518	0.033535226
2019-10-24T20:45:00	0.2242	10.493	192.1	0.548810079	0.666395811	0.010330126	0.106574006	0.032847144
2019-10-24T20:50:00	0.2251	10.479	192.0	0.552062742	0.671027975	0.010442991	0.107738411	0.033206024
2019-10-24T20:55:00	0.2253	10.465	191.9	0.552607673	0.671804868	0.010461960	0.107934114	0.033266342
2019-10-24T21:00:00	0.2259	10.452	191.8	0.554842931	0.674994167	0.010539954	0.108738759	0.033514341
2019-10-24T21:05:00	0.2256	10.439	191.8	0.553697277	0.673359018	0.010499942	0.108325970	0.033387116
2019-10-24T21:10:00	0.2245	10.427	191.7	0.549844403	0.667867866	0.010365949	0.106943584	0.032961051
2019-10-24T21:15:00	0.2242	10.413	191.6	0.549035682	0.666716816	0.010337934	0.106654561	0.032871972
2019-10-24T21:20:00	0.2254	10.401	191.6	0.552964566	0.672313813	0.010474393	0.108062385	0.033305877
2019-10-24T21:25:00	0.2265	10.389	191.5	0.556551197	0.677434314	0.010599757	0.109355740	0.033704501
2019-10-24T21:30:00	0.2251	10.378	191.4	0.552025003	0.670974181	0.010441678	0.107724864	0.033201849
2019-10-24T21:35:00	0.2241	10.365	191.4	0.548508907	0.665967347	0.010319707	0.106466515	0.032814014
2019-10-24T21:40:00	0.2253	10.355	191.2	0.552776605	0.672045760	0.010467844	0.107994820	0.033285052
2019-10-24T21:45:00	0.2254	10.346	191.2	0.552983258	0.672340472	0.010475045	0.108069105	0.033307948
2019-10-24T21:50:00	0.2254	10.336	191.1	0.552851722	0.672152881	0.010470461	0.108021819	0.033293374
2019-10-24T21:55:00	0.2270	10.325	191.1	0.558464953	0.680170841	0.010666958	0.110049043	0.033918184
2019-10-24T22:00:00	0.2266	10.314	191.0	0.556982714	0.678051088	0.010614891	0.109511873	0.033752623
2019-10-24T22:05:00	0.2256	10.305	178.7	0.553714012	0.673382896	0.010500526	0.108331994	0.033388973
2019-10-24T22:10:00	0.2257	10.297	178.6	0.554162959	0.674023538	0.010516197	0.108493663	0.033438800
2019-10-24T22:15:00	0.2245	10.288	190.9	0.549876301	0.667913276	0.010367055	0.106954991	0.032964567
2019-10-24T22:20:00	0.2254	10.277	190.9	0.553032210	0.672410288	0.010476751	0.108086705	0.033313372
2019-10-24T22:25:00	0.2263	10.267	190.7	0.556185257	0.676911391	0.010586932	0.109223423	0.033663720
2019-10-24T22:30:00	0.2257	10.255	178.4	0.553930221	0.673691404	0.010508072	0.108409837	0.033412965
2019-10-24T22:35:00	0.2240	10.243	178.4	0.548288985	0.665654520	0.010312102	0.106388057	0.032789832
2019-10-24T22:40:00	0.2257	10.231	178.3	0.554151931	0.674007800	0.010515812	0.108489690	0.033437576
2019-10-24T22:45:00	0.2250	10.218	178.3	0.551557272	0.670307558	0.010425411	0.107557039	0.033150124
2019-10-24T22:50:00	0.2240	10.206	178.2	0.548283462	0.665646665	0.010311911	0.106386087	0.032789225
2019-10-24T22:55:00	0.2244	10.193	178.1	0.549748749	0.667731693	0.010362633	0.106909378	0.032950508
2019-10-24T23:00:00	0.2254	10.182	178.1	0.552904774	0.672228539	0.010472310	0.108040890	0.033299251
2019-10-24T23:05:00	0.2237	10.171	178.1	0.547261871	0.664194033	0.010276623	0.106022020	0.032677016
2019-10-24T23:10:00	0.2244	10.162	178.1	0.549743228	0.667723834	0.010362442	0.106907404	0.032949900
2019-10-24T23:15:00	0.2243	10.150	178.0	0.549177180	0.666918170	0.010342833	0.106705102	0.032887549
2019-10-24T23:20:00	0.2264	10.138	177.9	0.556390292	0.677204370	0.010594117	0.109297550	0.033686566
2019-10-24T23:25:00	0.2253	10.127	177.8	0.552782849	0.672054663	0.010468062	0.107997065	0.033285744
2019-10-24T23:30:00	0.2266	10.114	177.8	0.556949658	0.678003835	0.010613731	0.109499909	0.033748935
2019-10-24T23:35:00	0.2286	10.103	177.7	0.563809585	0.687829235	0.010855777	0.111997049	0.034518578
2019-10-24T23:40:00	0.2257	10.092	177.6	0.554129876	0.673976323	0.010515042	0.108481745	0.033435127
2019-10-24T23:45:00	0.2244	10.082	177.6	0.549504673	0.667384263	0.010354176	0.106822122	0.032923615
2019-10-24T23:50:00	0.2269	10.071	177.5	0.558068119	0.679603151	0.010653006	0.109905098	0.033873819
2019-10-24T23:55:00	0.2281	10.059	177.5	0.562228613	0.685561387	0.010799748	0.111419009	0.034340421
2019-10-25T00:00:00	0.2270	10.049	189.6	0.558289566	0.679919925	0.010660791	0.109985412	0.033898572
2019-10-25T00:05:00	0.2292	10.038	177.4	0.565820801	0.690717231	0.010927267	0.112734595	0.034745897
2019-10-25T00:10:00	0.2307	10.027	189.5	0.570981538	0.698143052	0.011111801	0.114638398	0.035332668
2019-10-25T00:15:00	0.2311	10.017	189.4	0.572101000	0.699756760	0.011152037	0.115053513	0.035460610
2019-10-25T00:20:00	0.2336	10.007	177.2	0.580609280	0.712055396	0.011460276	0.118233553	0.036440729
2019-10-25T00:25:00	0.2316	9.998	177.1	0.574002715	0.702500465	0.011220561	0.115760455	0.035678497
2019-10-25T00:30:00	0.2301	9.986	177.1	0.568730558	0.694901396	0.011031118	0.113806012	0.035076118
2019-10-25T00:35:00	0.2326	9.975	177.0	0.577247015	0.707188104	0.011337955	0.116971589	0.036051780
2019-10-25T00:40:00	0.2333	9.963	177.0	0.579707152	0.710748534	0.011427390	0.117894277	0.036336161
2019-10-25T00:45:00	0.2322	9.952	176.9	0.575787754	0.705078561	0.011285075	0.116426034	0.035883634
2019-10-25T00:50:00	0.2345	9.941	176.9	0.583616712	0.716416976	0.011570257	0.119368204	0.036790440
2019-10-25T00:55:00	0.2337	9.931	176.8	0.581043842	0.712685163	0.011476134	0.118397163	0.036491156
2019-10-25T01:00:00	0.2327	9.921	176.8	0.577461773	0.707498711	0.011345748	0.117051987	0.036076559
2019-10-25T01:05:00	0.2332	9.909	176.7	0.579250527	0.710087304	0.011410763	0.117722737	0.036283291
2019-10-25T01:10:00	0.2329	9.898	176.7	0.578353526	0.708788879	0.011378136	0.117386134	0.036179546
2019-10-25T01:15:00	0.2313	9.886	176.6	0.572751664	0.700695170	0.011175458	0.115295142	0.035535083
2019-10-25T01:20:00	0.2322	9.876	176.6	0.575886960	0.705221919	0.011288666	0.116463082	0.035895053
2019-10-25T01:25:00	0.2328	9.867	176.5	0.578012300	0.708295123	0.011365737	0.117258216	0.036140121
2019-10-25T01:30:00	0.2344	9.856	176.5	0.583155126	0.715747066	0.011553342	0.119193696	0.036736655
2019-10-25T01:35:00	0.2332	9.846	176.4	0.579239578	0.710071452	0.011410364	0.117718626	0.036282024
2019-10-25T01:40:00	0.2328	9.837	176.4	0.578006823	0.708287199	0.011365538	0.117256164	0.036139488
2019-10-25T01:45:00	0.2319	9.827	176.3	0.574757745	0.703590618	0.011247825	0.116041742	0.035765192
2019-10-25T01:50:00	0.2318	9.818	176.3	0.574531859	0.703264421	0.011239665	0.115957551	0.035739243
2019-10-25T01:55:00	0.2317	9.809	176.2	0.574305957	0.702938246	0.011231507	0.115873386	0.035713303
2019-10-25T02:00:00	0.2309	9.801	176.1	0.571389862	0.698731532	0.011126468	0.114789723	0.035379307
2019-10-25T02:05:00	0.2318	9.794	176.1	0.574526377	0.703256506	0.011239467	0.115955509	0.035738614
2019-10-25T02:10:00	0.2323	9.788	176.1	0.576316628	0.705842910	0.011304225	0.116623607	0.035944528
2019-10-25T02:15:00	0.2304	9.784	176.1	0.569701960	0.696299806	0.011065900	0.114164846	0.035186714
2019-10-25T02:20:00	0.2296	9.782	176.1	0.567118853	0.692582936	0.010973533	0.113211920	0.034893013
2019-10-25T02:25:00	0.2300	9.779	176.1	0.568576239	0.694679313	0.011025598	0.113749060	0.035058565
2019-10-25T02:30:00	0.2309	9.775	176.1	0.571715275	0.699200619	0.011138165	0.114910394	0.035416499
2019-10-25T02:35:00	0.2316	9.770	176.0	0.573843146	0.702270131	0.011214803	0.115701052	0.035660188
2019-10-25T02:40:00	0.2297	9.764	176.0	0.567560584	0.693218158	0.010989301	0.113374589	0.034943149
2019-10-25T02:45:00	0.2310	9.758	176.0	0.572046144	0.699677660	0.011150064	0.115033154	0.035454335
2019-10-25T02:50:00	0.2303	9.751	175.9	0.569464768	0.695958277	0.011057402	0.114077174	0.035159693
2019-10-25T02:55:00	0.2303	9.744	175.9	0.569575132	0.696117182	0.011061355	0.114117963	0.035172265
2019-10-25T03:00:00	0.2292	9.738	175.9	0.565981309	0.690947856	0.010932982	0.112793562	0.034764071
2019-10-25T03:05:00	0.2304	9.734	175.9	0.569795849	0.696435008	0.011069264	0.114199559	0.035197413
2019-10-25T03:10:00	0.2307	9.733	175.9	0.570915690	0.698048164	0.011109436	0.114614005	0.035325149
2019-10-25T03:15:00	0.2315	9.733	175.9	0.573716467	0.702087289	0.011210233	0.115653904	0.035645657
2019-10-25T03:20:00	0.2321	9.734	175.9	0.575507132	0.704673089	0.011274920	0.116321271	0.035851345
2019-10-25T03:25:00	0.2320	9.736	175.9	0.575281294	0.704346822	0.011266751	0.116236995	0.035825371
2019-10-25T03:30:00	0.2329	9.738	175.9	0.578414330	0.708876872	0.011380346	0.117408935	0.036186574
2019-10-25T03:35:00	0.2327	9.741	175.9	0.577517115	0.707578759	0.011347756	0.117072710	0.036082946
2019-10-25T03:40:00	0.2308	9.743	175.9	0.571241147	0.698517187	0.011121125	0.114734598	0.035362317
2019-10-25T03:45:00	0.2296	9.746	175.9	0.567312260	0.692861041	0.010980435	0.113283128	0.034914960
2019-10-25T03:50:00	0.2310	9.749	175.9	0.571798138	0.699320081	0.011141144	0.114941132	0.035425973
2019-10-25T03:55:00	0.2301	9.754	176.0	0.568879952	0.695116409	0.011036464	0.113861160	0.035093115
2019-10-25T04:00:00	0.2302	9.758	176.0	0.569326951	0.695759858	0.011052466	0.114026250	0.035143998
2019-10-25T04:05:00	0.2298	9.762	176.0	0.567750953	0.693491965	0.010996099	0.113444730	0.034964768
2019-10-25T04:10:00	0.2304	9.767	176.0	0.569878224	0.696553636	0.011072217	0.114230019	0.035206801
2019-10-25T04:15:00	0.2300	9.772	176.0	0.568639158	0.694769857	0.011027848	0.113772278	0.035065721
2019-10-25T04:20:00	0.2301	9.778	176.1	0.568746535	0.694924389	0.011031690	0.113811909	0.035077936
2019-10-25T04:25:00	0.2321	9.783	176.1	0.575580353	0.704778881	0.011277569	0.116348602	0.035859769
2019-10-25T04:30:00	0.2295	9.790	176.1	0.566940885	0.692327059	0.010967184	0.113146416	0.034872824
2019-10-25T04:35:00	0.2285	9.796	176.1	0.563341334	0.687157331	0.010839167	0.111825687	0.034465763
2019-10-25T04:40:00	0.2275	9.802	176.2	0.560075576	0.682476246	0.010723682	0.110634253	0.034098551
2019-10-25T04:45:00	0.2297	9.808	176.2	0.567599948	0.693274773	0.010990706	0.113389091	0.034947619
2019-10-25T04:50:00	0.2298	9.816	176.2	0.567707357	0.693429259	0.010994542	0.113428666	0.034959816
2019-10-25T04:55:00	0.2270	9.822	176.3	0.558373130	0.680039472	0.010663729	0.110015727	0.033907916
2019-10-25T05:00:00	0.2289	9.828	176.3	0.564890234	0.689380573	0.010894159	0.112393034	0.034640625
2019-10-25T05:05:00	0.2282	9.834	176.3	0.562300547	0.685664529	0.010802294	0.111445276	0.034348516
2019-10-25T05:10:00	0.2276	9.840	176.4	0.560383927	0.682917856	0.010734559	0.110746471	0.034133138
2019-10-25T05:15:00	0.2278	9.845	176.4	0.561166400	0.684038838	0.010762186	0.111031493	0.034220984
2019-10-25T05:20:00	0.2289	9.850	176.4	0.564983183	0.689514052	0.010897464	0.112427127	0.034651133
2019-10-25T05:25:00	0.2299	9.856	176.4	0.568122433	0.694026346	0.011009372	0.113581664	0.035006972
2019-10-25T05:30:00	0.2288	9.862	176.6	0.564524099	0.688854856	0.010881147	0.112258791	0.034599250
2019-10-25T05:35:00	0.2317	9.867	176.5	0.574392490	0.703063184	0.011234632	0.115905622	0.035723239
2019-10-25T05:40:00	0.2303	9.873	176.5	0.569454513	0.695943512	0.011057034	0.114073385	0.035158525
2019-10-25T05:45:00	0.2303	9.878	188.3	0.569561865	0.696098080	0.011060880	0.114113060	0.035170753
2019-10-25T05:50:00	0.2320	9.882	176.6	0.575386185	0.704498352	0.011270545	0.116276133	0.035837433
2019-10-25T05:55:00	0.2300	9.886	176.6	0.568430074	0.694468982	0.011020370	0.113695130	0.035041943
2019-10-25T06:00:00	0.2325	9.889	176.6	0.576944256	0.706750282	0.011326973	0.116858293	0.036016861
2019-10-25T06:05:00	0.2318	9.889	176.5	0.574699581	0.703506620	0.011245724	0.116020061	0.035758509
2019-10-25T06:10:00	0.2368	9.890	176.5	0.591235888	0.727500490	0.011851295	0.122267621	0.037684068
2019-10-25T06:15:00	0.2370	9.892	176.6	0.592011506	0.728631484	0.011880098	0.122564776	0.037775654
2019-10-25T06:20:00	0.2364	9.897	176.6	0.590111064	0.725861182	0.011809587	0.121837334	0.037551450
2019-10-25T06:25:00	0.2341	9.903	176.6	0.582178139	0.714329724	0.011517581	0.118824765	0.036622947
2019-10-25T06:30:00	0.2340	9.907	176.6	0.581949729	0.713998477	0.011509229	0.118738596	0.036596389
2019-10-25T06:35:00	0.2328	9.911	176.6	0.578029832	0.708320489	0.011366374	0.117264787	0.036142146
2019-10-25T06:40:00	0.2295	9.916	176.7	0.566702628	0.691984540	0.010958687	0.113058752	0.034845805
2019-10-25T06:45:00	0.2297	9.921	176.7	0.567483685	0.693107565	0.010986555	0.113346263	0.034934419
2019-10-25T06:50:00	0.2291	9.929	176.7	0.565569911	0.690356785	0.010918336	0.112642455	0.034717499
2019-10-25T06:55:00	0.2286	9.936	176.7	0.563655087	0.687607522	0.010850295	0.111940494	0.034501147
2019-10-25T07:00:00	0.2315	9.942	176.8	0.573525927	0.701812296	0.011203361	0.115583007	0.035623805
2019-10-25T07:05:00	0.2359	9.947	176.8	0.588394260	0.723361161	0.011746075	0.121182093	0.037349498
2019-10-25T07:10:00	0.2346	9.953	176.8	0.583811185	0.716699274	0.011577387	0.119441766	0.036813112
2019-10-25T07:15:00	0.2338	9.960	176.8	0.581235456	0.712962900	0.011483131	0.118469342	0.036513402
2019-10-25T07:20:00	0.2366	9.968	176.8	0.590722479	0.726752121	0.011832248	0.122071126	0.037623507
2019-10-25T07:25:00	0.2356	9.977	176.9	0.587482143	0.722033928	0.011712404	0.120834708	0.037242431
2019-10-25T07:30:00	0.2363	9.988	176.9	0.589597490	0.725113055	0.011790570	0.121641132	0.037490978
2019-10-25T07:35:00	0.2368	9.999	177.0	0.591377091	0.727706353	0.011856535	0.122321691	0.037700733
2019-10-25T07:40:00	0.2353	10.009	177.0	0.586462955	0.720551715	0.011674838	0.120447149	0.037122981
2019-10-25T07:45:00	0.2381	10.018	189.2	0.595601850	0.733873400	0.012013894	0.123945135	0.038201094
2019-10-25T07:50:00	0.2380	10.025	177.1	0.595374309	0.733540869	0.012005392	0.123857418	0.038174059
2019-10-25T07:55:00	0.2376	10.030	189.3	0.594144202	0.731743931	0.011959481	0.123383765	0.038028075
2019-10-25T08:00:00	0.2398	10.036	177.1	0.601262477	0.742159807	0.012226406	0.126137575	0.038876826
2019-10-25T08:05:00	0.2378	10.042	189.3	0.594691596	0.732543407	0.011979900	0.123594424	0.038093002
2019-10-25T08:10:00	0.2379	10.047	177.2	0.595132333	0.733187292	0.011996354	0.123764171	0.038145320
2019-10-25T08:15:00	0.2373	10.055	189.3	0.592899239	0.729926575	0.011913108	0.122905339	0.037880619
2019-10-25T08:20:00	0.2380	10.066	177.3	0.595345472	0.733498730	0.012004315	0.123846304	0.038170634
2019-10-25T08:25:00	0.2368	10.084	189.5	0.591440473	0.727798764	0.011858888	0.122345966	0.037708215
2019-10-25T08:30:00	0.2378	10.099	177.4	0.594556165	0.732345585	0.011974847	0.123542287	0.038076933
2019-10-25T08:35:00	0.2357	10.115	177.5	0.587637946	0.722260590	0.011718152	0.120894011	0.037260708
2019-10-25T08:40:00	0.2376	10.136	177.6	0.594100933	0.731680745	0.011957868	0.123367120	0.038022945
2019-10-25T08:45:00	0.2361	10.158	177.7	0.588855879	0.724033132	0.011763135	0.121358098	0.037403745
2019-10-25T08:50:00	0.2371	10.182	177.8	0.592308275	0.729064360	0.011891128	0.122678572	0.037810727
2019-10-25T08:55:00	0.2370	10.209	177.9	0.592080521	0.728732144	0.011882662	0.122591235	0.037783809
2019-10-25T09:00:00	0.2372	10.238	178.1	0.592521585	0.729375545	0.011899059	0.122760400	0.037835947
2019-10-25T09:05:00	0.2381	10.275	178.2	0.595636323	0.733923782	0.012015183	0.123958427	0.038205191
2019-10-25T09:10:00	0.2354	10.316	178.4	0.586711179	0.720912629	0.011683981	0.120541481	0.037152055
2019-10-25T09:15:00	0.2355	10.364	178.6	0.587152915	0.721555035	0.011700262	0.120709445	0.037203823
2019-10-25T09:20:00	0.2361	10.409	178.8	0.588933751	0.724146507	0.011766014	0.121387802	0.037412900
2019-10-25T09:25:00	0.2360	10.456	191.4	0.588705779	0.723814614	0.011757587	0.121300854	0.037386101
2019-10-25T09:30:00	0.2366	10.509	191.6	0.590820392	0.726894828	0.011835880	0.122108588	0.037635053
2019-10-25T09:35:00	0.2356	10.571	192.0	0.587245277	0.721689374	0.011703667	0.120744580	0.037214652
2019-10-25T09:40:00	0.2369	10.639	180.0	0.591702780	0.728181244	0.011868628	0.122446452	0.037739186
2019-10-25T09:45:00	0.2355	10.704	192.7	0.587124012	0.721512996	0.011699196	0.120698452	0.037200435
2019-10-25T09:50:00	0.2335	10.759	180.6	0.580191159	0.711449603	0.011445028	0.118076243	0.036392245
2019-10-25T09:55:00	0.2346	10.809	180.8	0.583987273	0.716954909	0.011583845	0.119508394	0.036833648
2019-10-25T10:00:00	0.2334	10.857	181.0	0.580069650	0.711273583	0.011440599	0.118030547	0.036378161
2019-10-25T10:05:00	0.2358	10.903	181.3	0.587977898	0.722755221	0.011730699	0.121023456	0.037300604
2019-10-25T10:10:00	0.2374	10.949	181.5	0.593194873	0.730358014	0.011924112	0.123018862	0.037915608
2019-10-25T10:15:00	0.2370	10.996	181.8	0.592055711	0.728695957	0.011881740	0.122581723	0.037780878
2019-10-25T10:20:00	0.2374	11.039	181.9	0.593257162	0.730448927	0.011926431	0.123042787	0.037922982
2019-10-25T10:25:00	0.2336	11.068	182.1	0.580729249	0.712229240	0.011464653	0.118278710	0.036454647
2019-10-25T10:30:00	0.2335	11.079	182.1	0.580257213	0.711545296	0.011447436	0.118101087	0.036399902
2019-10-25T10:35:00	0.2326	11.085	195.1	0.577099310	0.706974497	0.011332596	0.116916309	0.036034742
2019-10-25T10:40:00	0.2338	11.096	182.3	0.581326225	0.713094476	0.011486446	0.118503541	0.036523942
2019-10-25T10:45:00	0.2335	11.109	182.3	0.580183215	0.711438096	0.011444738	0.118073255	0.036391324
2019-10-25T10:50:00	0.2325	11.113	182.3	0.577025245	0.706867394	0.011329910	0.116888595	0.036026200
2019-10-25T10:55:00	0.2318	11.115	182.3	0.574536693	0.703271402	0.011239840	0.115959353	0.035739799
2019-10-25T11:00:00	0.2339	11.119	182.4	0.581786645	0.713761996	0.011503268	0.118677092	0.036577432
2019-10-25T11:05:00	0.2328	11.130	182.4	0.577958639	0.708217484	0.011363788	0.117238107	0.036133923
2019-10-25T11:10:00	0.2337	11.141	182.5	0.580842793	0.712393784	0.011468796	0.118321456	0.036467822
2019-10-25T11:15:00	0.2303	11.152	182.6	0.569616989	0.696177452	0.011062855	0.114133435	0.035177033
2019-10-25T11:20:00	0.2304	11.163	182.6	0.569816624	0.696464926	0.011070009	0.114207241	0.035199781
2019-10-25T11:25:00	0.2299	11.176	182.7	0.568333174	0.694329554	0.011016906	0.113659385	0.035030926
2019-10-25T11:30:00	0.2299	11.191	182.7	0.568196190	0.694132461	0.011012009	0.113608863	0.035015355
2019-10-25T11:35:00	0.2292	11.208	182.8	0.565701350	0.690545613	0.010923014	0.112690721	0.034732375
2019-10-25T11:40:00	0.2280	11.225	182.9	0.561855704	0.685026763	0.010786554	0.111282886	0.034298466
2019-10-25T11:45:00	0.2267	11.242	183.0	0.557330361	0.678548096	0.010627091	0.109637742	0.033791417
2019-10-25T11:50:00	0.2263	11.260	183.1	0.556179479	0.676903134	0.010586729	0.109221334	0.033663076
2019-10-25T11:55:00	0.2269	11.278	183.2	0.558068731	0.679604026	0.010653027	0.109905320	0.033873887
2019-10-25T12:00:00	0.2263	11.296	183.3	0.555904548	0.676510336	0.010577099	0.109121979	0.033632454
2019-10-25T12:05:00	0.2263	11.313	183.3	0.556104970	0.676796675	0.010584119	0.109194403	0.033654776
2019-10-25T12:10:00	0.2260	11.330	183.4	0.554953682	0.675152295	0.010543826	0.108778705	0.033526653
2019-10-25T12:15:00	0.2264	11.344	183.5	0.556505777	0.677369404	0.010598165	0.109339313	0.033699438
2019-10-25T12:20:00	0.2242	11.358	183.5	0.548927618	0.666563050	0.010334194	0.106615972	0.032860078
2019-10-25T12:25:00	0.2246	11.371	183.6	0.550143964	0.668294366	0.010376336	0.107050742	0.032994078
2019-10-25T12:30:00	0.2248	11.381	183.7	0.551021528	0.669544223	0.010406794	0.107364974	0.033090928
2019-10-25T12:35:00	0.2264	11.389	183.7	0.556293823	0.677066518	0.010590736	0.109262670	0.033675816
2019-10-25T12:40:00	0.2267	11.396	183.7	0.557507595	0.678801514	0.010633314	0.109701940	0.033811203
2019-10-25T12:45:00	0.2258	11.400	196.4	0.554329059	0.674260603	0.010521997	0.108553507	0.033457245
2019-10-25T12:50:00	0.2275	11.405	183.8	0.559933871	0.682273327	0.010718685	0.110582702	0.034082663
2019-10-25T12:55:00	0.2287	11.410	183.8	0.564181560	0.688363119	0.010868981	0.112133273	0.034560564
2019-10-25T13:00:00	0.2284	11.412	196.5	0.563032938	0.686714905	0.010828234	0.111712899	0.034431000
2019-10-25T13:05:00	0.2297	11.415	196.5	0.567613641	0.693294467	0.010991195	0.113394136	0.034949174
2019-10-25T13:10:00	0.2269	11.418	196.5	0.558034079	0.679554461	0.010651809	0.109892755	0.033870014
2019-10-25T13:15:00	0.2271	11.419	183.9	0.558909655	0.680807163	0.010682605	0.110210465	0.033967936
2019-10-25T13:20:00	0.2278	11.419	183.9	0.561134835	0.683993608	0.010761071	0.111019988	0.034217438
2019-10-25T13:25:00	0.2265	11.419	196.6	0.556608555	0.677516287	0.010601768	0.109376487	0.033710896
2019-10-25T13:30:00	0.2267	11.417	196.6	0.557484489	0.678768475	0.010632503	0.109693569	0.033808623
2019-10-25T13:35:00	0.2273	11.416	196.6	0.559373034	0.681470383	0.010698921	0.110378795	0.034019817
2019-10-25T13:40:00	0.2258	11.414	196.6	0.554506446	0.674513802	0.010528194	0.108617437	0.033476949
2019-10-25T13:45:00	0.2272	11.413	196.6	0.559098356	0.681077223	0.010689248	0.110278998	0.033989058
2019-10-25T13:50:00	0.2253	11.412	196.6	0.552540672	0.671709333	0.010459627	0.107910042	0.033258923
2019-10-25T13:55:00	0.2268	11.410	196.6	0.557810666	0.679234920	0.010643959	0.109811762	0.033845052
2019-10-25T14:00:00	0.2275	11.407	196.5	0.560036547	0.682420356	0.010722306	0.110620054	0.034094175
2019-10-25T14:05:00	0.2267	11.403	196.5	0.557535864	0.678841937	0.010634307	0.109712181	0.033814360
2019-10-25T14:10:00	0.2258	11.400	196.5	0.554357354	0.674300990	0.010522986	0.108563704	0.033460388
2019-10-25T14:15:00	0.2287	11.395	196.4	0.564009820	0.688116611	0.010862884	0.112070368	0.034541176
2019-10-25T14:20:00	0.2265	11.392	183.8	0.556785825	0.677769653	0.010607984	0.109440620	0.033730662
2019-10-25T14:25:00	0.2287	11.387	183.7	0.564072629	0.688206762	0.010865113	0.112093372	0.034548266
2019-10-25T14:30:00	0.2296	11.382	196.4	0.567305050	0.692850674	0.010980178	0.113280473	0.034914142
2019-10-25T14:35:00	0.2307	11.377	183.7	0.570870952	0.697983698	0.011107830	0.114597433	0.035320042
2019-10-25T14:40:00	0.2297	11.372	183.7	0.567367801	0.692940910	0.010982418	0.113303581	0.034921264
2019-10-25T14:45:00	0.2299	11.367	196.3	0.568241038	0.694196987	0.011013612	0.113625402	0.035020452
2019-10-25T14:50:00	0.2295	11.363	183.6	0.566756919	0.692062585	0.010960623	0.113078725	0.034851961
2019-10-25T14:55:00	0.2317	11.358	183.6	0.574359103	0.703014978	0.011233426	0.115893184	0.035719405
2019-10-25T15:00:00	0.2321	11.354	183.6	0.575566615	0.704759031	0.011277072	0.116343473	0.035858188
2019-10-25T15:05:00	0.2308	11.351	183.6	0.571059008	0.698254691	0.011114583	0.114667101	0.035341514
2019-10-25T15:10:00	0.2291	11.346	183.6	0.565534837	0.690306399	0.010917087	0.112629577	0.034713529
2019-10-25T15:15:00	0.2287	11.338	183.5	0.564049567	0.688173661	0.010864295	0.112084925	0.034545662
2019-10-25T15:20:00	0.2281	11.330	183.5	0.562226397	0.685558210	0.010799670	0.111418200	0.034340171
2019-10-25T15:25:00	0.2277	11.319	183.4	0.560739719	0.683427506	0.010747117	0.110876025	0.034173068
2019-10-25T15:30:00	0.2283	11.307	196.0	0.562626502	0.686131950	0.010813835	0.111564343	0.034385214
2019-10-25T15:35:00	0.2278	11.295	183.3	0.561139994	0.684001000	0.010761253	0.111021868	0.034218018
2019-10-25T15:40:00	0.2300	11.281	183.3	0.568417719	0.694451204	0.011019929	0.113690572	0.035040538
2019-10-25T15:45:00	0.2292	11.268	183.2	0.565923037	0.690864126	0.010930907	0.112772152	0.034757473
2019-10-25T15:50:00	0.2307	11.254	183.2	0.570836426	0.697933949	0.011106590	0.114584644	0.035316100
2019-10-25T15:55:00	0.2309	11.238	183.1	0.571708799	0.699191282	0.011137932	0.114907992	0.035415759
2019-10-25T16:00:00	0.2304	11.222	183.1	0.569889621	0.696570049	0.011072625	0.114234234	0.035208100
2019-10-25T16:05:00	0.2313	11.206	183.0	0.572863600	0.700856644	0.011179490	0.115336736	0.035547902
2019-10-25T16:10:00	0.2310	11.189	182.9	0.571801034	0.699324256	0.011141248	0.114942206	0.035426304
2019-10-25T16:15:00	0.2333	11.171	182.8	0.579475312	0.710412789	0.011418946	0.117807166	0.036309313
2019-10-25T16:20:00	0.2330	11.152	182.7	0.578750460	0.709363365	0.011392568	0.117535024	0.036225436
2019-10-25T16:25:00	0.2336	11.132	182.6	0.580710553	0.712202147	0.011463971	0.118271672	0.036452478
2019-10-25T16:30:00	0.2351	11.112	182.5	0.585686152	0.719422585	0.011646247	0.120152188	0.037032071
2019-10-25T16:35:00	0.2374	11.090	182.4	0.593330204	0.730555537	0.011929150	0.123070846	0.037931630
2019-10-25T16:40:00	0.2363	11.066	182.3	0.589597528	0.725113110	0.011790571	0.121641147	0.037490983
2019-10-25T16:45:00	0.2353	11.044	182.2	0.586195895	0.720163471	0.011665005	0.120345702	0.037091714
2019-10-25T16:50:00	0.2373	11.023	182.1	0.593170259	0.730322092	0.011923195	0.123009408	0.037912694
2019-10-25T16:55:00	0.2386	11.002	182.1	0.597460536	0.736591316	0.012083462	0.124662851	0.038422301
2019-10-25T17:00:00	0.2373	10.984	182.0	0.593063626	0.730166468	0.011919226	0.122968457	0.037900073
2019-10-25T17:05:00	0.2381	10.965	181.9	0.595684001	0.733993466	0.012016965	0.123976812	0.038210857
2019-10-25T17:10:00	0.2400	10.951	181.8	0.601972742	0.743201435	0.012253206	0.126414067	0.038962043
2019-10-25T17:15:00	0.2390	10.938	181.8	0.598583021	0.738234101	0.012125575	0.125097321	0.038556209
2019-10-25T17:20:00	0.2388	10.925	181.7	0.597862091	0.737178881	0.012098519	0.124818188	0.038470178
2019-10-25T17:25:00	0.2380	10.909	181.6	0.595470882	0.733681997	0.012009000	0.123894643	0.038185532
2019-10-25T17:30:00	0.2389	10.890	181.5	0.598423315	0.738000302	0.012119579	0.125035458	0.038537142
2019-10-25T17:35:00	0.2419	10.869	181.4	0.608370873	0.752603548	0.012495985	0.128918779	0.039734020
2019-10-25T17:40:00	0.2399	10.849	181.3	0.601653628	0.742733391	0.012241161	0.126289803	0.038923744
2019-10-25T17:45:00	0.2402	10.827	181.2	0.602600877	0.744122966	0.012276932	0.126658846	0.039037486
2019-10-25T17:50:00	0.2394	10.806	193.6	0.599879199	0.740132398	0.012174298	0.125599987	0.038711136
2019-10-25T17:55:00	0.2401	10.786	181.0	0.602494528	0.743966919	0.012272913	0.126617385	0.039024708
2019-10-25T18:00:00	0.2406	10.762	180.9	0.604108196	0.746335690	0.012333964	0.127247231	0.039218832
2019-10-25T18:05:00	0.2390	10.739	193.3	0.598718298	0.738432152	0.012130655	0.125149734	0.038572363
2019-10-25T18:10:00	0.2393	10.717	180.7	0.599666333	0.739820553	0.012166289	0.125517366	0.038685671
2019-10-25T18:15:00	0.2401	10.696	180.6	0.602281819	0.743654838	0.012264878	0.126534481	0.038999156
2019-10-25T18:20:00	0.2405	10.675	180.5	0.603562258	0.745534041	0.012313292	0.127033961	0.039153101
2019-10-25T18:25:00	0.2402	10.655	180.4	0.602842342	0.744477306	0.012286059	0.126753008	0.039066508
2019-10-25T18:30:00	0.2418	10.632	180.3	0.608119793	0.752233935	0.012486412	0.128820009	0.039703578
2019-10-25T18:35:00	0.2416	10.608	180.2	0.607400802	0.751175811	0.012459018	0.128537391	0.039616472
2019-10-25T18:40:00	0.2415	10.585	180.1	0.607014698	0.750607769	0.012444320	0.128385755	0.039569736
2019-10-25T18:45:00	0.2420	10.562	179.9	0.608626310	0.752979627	0.012505729	0.129019301	0.039765002
2019-10-25T18:50:00	0.2419	10.538	179.8	0.608240339	0.752411384	0.012491008	0.128867425	0.039718192
2019-10-25T18:55:00	0.2426	10.517	192.2	0.610849508	0.756255152	0.012590698	0.129895910	0.040035181
2019-10-25T19:00:00	0.2427	10.496	179.6	0.611129104	0.756667386	0.012601405	0.130006372	0.040069226
2019-10-25T19:05:00	0.2435	10.477	179.5	0.613736153	0.760514354	0.012701466	0.131038687	0.040387396
2019-10-25T19:10:00	0.2412	10.456	179.4	0.606029880	0.749159455	0.012406871	0.127999400	0.039450658
2019-10-25T19:15:00	0.2447	10.435	191.7	0.617616671	0.766251044	0.012851162	0.132583068	0.040863389
2019-10-25T19:20:00	0.2451	10.414	191.6	0.618891593	0.768138569	0.012900541	0.133092507	0.041020403
2019-10-25T19:25:00	0.2465	10.391	191.4	0.623482394	0.774946604	0.013079161	0.134935292	0.041588368
2019-10-25T19:30:00	0.2472	10.370	191.4	0.626080420	0.778807287	0.013180809	0.135983975	0.041911582
2019-10-25T19:35:00	0.2473	10.350	191.2	0.626358823	0.779221334	0.013191726	0.136096601	0.041946294
2019-10-25T19:40:00	0.2476	10.329	191.1	0.627299516	0.780620837	0.013228647	0.136477509	0.042063694
2019-10-25T19:45:00	0.2465	10.309	191.0	0.623602421	0.775124840	0.013083848	0.134983648	0.041603271
2019-10-25T19:50:00	0.2461	10.290	178.6	0.622223422	0.773077813	0.013030050	0.134428625	0.041432208
2019-10-25T19:55:00	0.2474	10.273	190.8	0.626478754	0.779399718	0.013196430	0.136145133	0.041961252
2019-10-25T20:00:00	0.2483	10.256	178.5	0.629736462	0.784249849	0.013324543	0.137466851	0.042368618
2019-10-25T20:05:00	0.2489	10.239	178.4	0.631668567	0.787130641	0.013400828	0.138253874	0.042611187
2019-10-25T20:10:00	0.2490	10.221	178.3	0.631946536	0.787545356	0.013411822	0.138367293	0.042646144
2019-10-25T20:15:00	0.2473	10.202	178.2	0.626267475	0.779085472	0.013188143	0.136059642	0.041934903
2019-10-25T20:20:00	0.2473	10.181	178.1	0.626214653	0.779006914	0.013186072	0.136038272	0.041928317
2019-10-25T20:25:00	0.2488	10.159	178.0	0.631126839	0.786322600	0.013379416	0.138032971	0.042543102
2019-10-25T20:30:00	0.2491	10.137	177.9	0.632396948	0.788217486	0.013429646	0.138551177	0.042702818
2019-10-25T20:35:00	0.2487	10.115	177.8	0.631021339	0.786165264	0.013375248	0.137989972	0.042529850
2019-10-25T20:40:00	0.2487	10.096	177.7	0.630968587	0.786086598	0.013373165	0.137968475	0.042523224
2019-10-25T20:45:00	0.2482	10.077	177.6	0.629261501	0.783542160	0.013305824	0.137273737	0.042309099
2019-10-25T20:50:00	0.2475	10.057	177.5	0.626891334	0.780013478	0.013212619	0.136312159	0.042012731
2019-10-25T20:55:00	0.2480	10.039	177.4	0.628493977	0.782398958	0.013275605	0.136961968	0.042213009
2019-10-25T21:00:00	0.2462	10.020	177.3	0.622809423	0.773947494	0.013052897	0.134664336	0.041504856
2019-10-25T21:05:00	0.2465	10.002	177.2	0.623751051	0.775345566	0.013089653	0.135043540	0.041621731
2019-10-25T21:10:00	0.2456	9.983	177.1	0.620713812	0.770838743	0.012971288	0.133822391	0.041245361
2019-10-25T21:15:00	0.2455	9.967	177.1	0.620329151	0.770268517	0.012956337	0.133668145	0.041197820
2019-10-25T21:20:00	0.2446	9.953	177.0	0.617288993	0.765766138	0.012838486	0.132452296	0.040823084
2019-10-25T21:25:00	0.2435	9.936	176.9	0.613581495	0.760285981	0.012695519	0.130977329	0.040368485
2019-10-25T21:30:00	0.2436	9.920	176.8	0.613860876	0.760698539	0.012706264	0.131088179	0.040402650
2019-10-25T21:35:00	0.2450	9.904	176.7	0.618790092	0.767988246	0.012896606	0.133051912	0.041007891
2019-10-25T21:40:00	0.2444	9.888	176.7	0.616745078	0.764961438	0.012817460	0.132235375	0.040756227
2019-10-25T21:45:00	0.2454	9.873	188.7	0.620011681	0.769797991	0.012944005	0.133540911	0.041158606
2019-10-25T21:50:00	0.2454	9.858	176.5	0.619958767	0.769719574	0.012941950	0.133519710	0.041152071
2019-10-25T21:55:00	0.2437	9.838	176.4	0.614260578	0.761288888	0.012721644	0.131246853	0.040451555
2019-10-25T22:00:00	0.2433	9.820	176.3	0.612877956	0.759247365	0.012668483	0.130698401	0.040282516
2019-10-25T22:05:00	0.2463	9.803	176.2	0.622972918	0.774190188	0.013059275	0.134730138	0.041525137
2019-10-25T22:10:00	0.2443	9.786	176.2	0.616471340	0.764556548	0.012806885	0.132126273	0.040722601
2019-10-25T22:15:00	0.2450	9.770	176.1	0.618598621	0.767704702	0.012889186	0.132975351	0.040984295
2019-10-25T22:20:00	0.2441	9.754	176.0	0.615745120	0.763482690	0.012778851	0.131837055	0.040633461
2019-10-25T22:25:00	0.2430	9.738	175.9	0.611891788	0.757792213	0.012630635	0.130307936	0.040162171
2019-10-25T22:30:00	0.2439	9.723	175.8	0.615018751	0.762409057	0.012750844	0.131548105	0.040544404
2019-10-25T22:35:00	0.2444	9.706	175.7	0.616814816	0.765064599	0.012820155	0.132263177	0.040764796
2019-10-25T22:40:00	0.2422	9.688	175.6	0.609303702	0.753977216	0.012531587	0.129286073	0.039847223
2019-10-25T22:45:00	0.2442	9.671	175.6	0.616088666	0.763990635	0.012792109	0.131973832	0.040675617
2019-10-25T22:50:00	0.2434	9.656	175.5	0.613233150	0.759771677	0.012682129	0.130839184	0.040325907
2019-10-25T22:55:00	0.2429	9.641	175.4	0.611705897	0.757518011	0.012623508	0.130234402	0.040139508
2019-10-25T23:00:00	0.2439	9.626	175.3	0.615165294	0.762625624	0.012756492	0.131606374	0.040562362
2019-10-25T23:05:00	0.2426	9.613	175.3	0.610646042	0.755955205	0.012582909	0.129815556	0.040010415
2019-10-25T23:10:00	0.2448	9.601	175.2	0.618092470	0.766955306	0.012869579	0.132773072	0.040921950
2019-10-25T23:15:00	0.2440	9.588	175.1	0.615238563	0.762733910	0.012759316	0.131635512	0.040571343
2019-10-25T23:20:00	0.2428	9.576	175.1	0.611384682	0.757044264	0.012611196	0.130107387	0.040100360
2019-10-25T23:25:00	0.2433	9.563	175.0	0.613182582	0.759697026	0.012680186	0.130819137	0.040319728
2019-10-25T23:30:00	0.2450	9.550	174.9	0.618632683	0.767755141	0.012890505	0.132988969	0.040988492
2019-10-25T23:35:00	0.2420	9.538	174.9	0.608796226	0.753229824	0.012512213	0.129086191	0.039785618
2019-10-25T23:40:00	0.2419	9.525	174.8	0.608265904	0.752449017	0.012491983	0.128877481	0.039721291
2019-10-25T23:45:00	0.2427	9.513	174.7	0.611063436	0.756570560	0.012598890	0.129980424	0.040061229
2019-10-25T23:50:00	0.2419	9.503	174.7	0.608203878	0.752357710	0.012489618	0.128853082	0.039713771
2019-10-25T23:55:00	0.2430	9.491	174.6	0.611999250	0.757950740	0.012634757	0.130350455	0.040175276
2019-10-26T00:00:00	0.2442	9.481	174.6	0.616122752	0.764041037	0.012793425	0.131987406	0.040679801
2019-10-26T00:05:00	0.2439	9.471	174.6	0.614929031	0.762276475	0.012747387	0.131512437	0.040533410
2019-10-26T00:10:00	0.2444	9.459	174.5	0.616725142	0.764931948	0.012816690	0.132227427	0.040753777
2019-10-26T00:15:00	0.2447	9.449	174.4	0.617524384	0.766114467	0.012847591	0.132546231	0.040852036
2019-10-26T00:20:00	0.2453	9.439	174.4	0.619651036	0.769263576	0.012930002	0.133396449	0.041114081
2019-10-26T00:25:00	0.2452	9.429	174.4	0.619454200	0.768971944	0.012922363	0.133317637	0.041089791
2019-10-26T00:30:00	0.2451	9.421	174.3	0.618925464	0.768188734	0.012901855	0.133106055	0.041024579
2019-10-26T00:35:00	0.2436	9.417	174.3	0.614078651	0.761020170	0.012714642	0.131174619	0.040429292
2019-10-26T00:40:00	0.2437	9.412	174.2	0.614213864	0.761219886	0.012719846	0.131228303	0.040445838
2019-10-26T00:45:00	0.2442	9.406	174.2	0.616010335	0.763874812	0.012789086	0.131942639	0.040666003
2019-10-26T00:50:00	0.2454	9.402	174.2	0.620129195	0.769972150	0.012948569	0.133588000	0.041173119
2019-10-26T00:55:00	0.2441	9.396	174.2	0.615616248	0.763292176	0.012773880	0.131785766	0.040617653
2019-10-26T01:00:00	0.2441	9.389	174.1	0.615751403	0.763491980	0.012779094	0.131839556	0.040634232
2019-10-26T01:05:00	0.2421	9.383	174.1	0.608903782	0.753388210	0.012516318	0.129128542	0.039798671
2019-10-26T01:10:00	0.2431	9.377	174.1	0.612365906	0.758491701	0.012648824	0.130495584	0.040220006
2019-10-26T01:15:00	0.2447	9.373	174.0	0.617817256	0.766547921	0.012858924	0.132663152	0.040888072
2019-10-26T01:20:00	0.2426	9.368	174.0	0.610640955	0.755947706	0.012582715	0.129813547	0.040009796
2019-10-26T01:25:00	0.2407	9.364	174.0	0.604450039	0.746837775	0.012346917	0.127380865	0.039260020
2019-10-26T01:30:00	0.2417	9.361	174.0	0.607583561	0.751444733	0.012465978	0.128609199	0.039638604
2019-10-26T01:35:00	0.2408	9.358	174.0	0.604721195	0.747236108	0.012357196	0.127486918	0.039292706
2019-10-26T01:40:00	0.2409	9.356	174.0	0.605189970	0.747924891	0.012374978	0.127670369	0.039349248
2019-10-26T01:45:00	0.2422	9.353	174.0	0.609321381	0.754003256	0.012532262	0.129293039	0.039849370
2019-10-26T01:50:00	0.2420	9.350	174.0	0.608791137	0.753222330	0.012512018	0.129084188	0.039785000
2019-10-26T01:55:00	0.2414	9.348	173.9	0.606595921	0.749991800	0.012428388	0.128221391	0.039519078
2019-10-26T02:00:00	0.2406	9.345	173.9	0.604066067	0.746273819	0.012332368	0.127230767	0.039213758
2019-10-26T02:05:00	0.2414	9.342	173.9	0.606533866	0.749900537	0.012426028	0.128197045	0.039511574
2019-10-26T02:10:00	0.2402	9.340	173.9	0.602670516	0.744225154	0.012279564	0.126685999	0.039045855
2019-10-26T02:15:00	0.2399	9.337	173.8	0.601805785	0.742956548	0.012246903	0.126349046	0.038942003
2019-10-26T02:20:00	0.2413	9.336	173.9	0.606274243	0.749518749	0.012416158	0.128095211	0.039480188
2019-10-26T02:25:00	0.2400	9.334	173.8	0.602077143	0.743354578	0.012257148	0.126454734	0.038974577
2019-10-26T02:30:00	0.2394	9.333	173.8	0.599877763	0.740130294	0.012174244	0.125599430	0.038710964
2019-10-26T02:35:00	0.2388	9.332	173.8	0.598010895	0.737396648	0.012104101	0.124875777	0.038487927
2019-10-26T02:40:00	0.2384	9.331	173.8	0.596811061	0.735641274	0.012059130	0.124411820	0.038344931
2019-10-26T02:45:00	0.2395	9.330	173.8	0.600285015	0.740727018	0.012189573	0.125757578	0.038759707
2019-10-26T02:50:00	0.2392	9.329	173.8	0.599419700	0.739459285	0.012157014	0.125421672	0.038656177
2019-10-26T02:55:00	0.2400	9.328	173.8	0.601890738	0.743081151	0.012250110	0.126382128	0.038952199
2019-10-26T03:00:00	0.2374	9.327	173.8	0.593345122	0.730577313	0.011929706	0.123076578	0.037933397
2019-10-26T03:05:00	0.2370	9.327	173.8	0.592143701	0.728824298	0.011885010	0.122615460	0.037791276
2019-10-26T03:10:00	0.2360	9.327	173.8	0.588599352	0.723659687	0.011753653	0.121260274	0.037373594
2019-10-26T03:15:00	0.2373	9.326	173.8	0.593084529	0.730196973	0.011920004	0.122976484	0.037902547
2019-10-26T03:20:00	0.2373	9.325	173.8	0.592886212	0.729907566	0.011912623	0.122900338	0.037879078
2019-10-26T03:25:00	0.2380	9.324	173.8	0.595361821	0.733522620	0.012004926	0.123852604	0.038172576
2019-10-26T03:30:00	0.2371	9.323	173.8	0.592489544	0.729328799	0.011897868	0.122748107	0.037832159
2019-10-26T03:35:00	0.2365	9.321	185.7	0.590284184	0.726113416	0.011816001	0.121903508	0.037571845
2019-10-26T03:40:00	0.2378	9.320	173.7	0.594767220	0.732653876	0.011982723	0.123623541	0.038101976
2019-10-26T03:45:00	0.2376	9.319	173.8	0.593900552	0.731388157	0.011950398	0.123290058	0.037999193
2019-10-26T03:50:00	0.2369	9.316	173.8	0.591696075	0.728171466	0.011868379	0.122443883	0.037738394
2019-10-26T03:55:00	0.2377	9.315	173.7	0.594506731	0.732273381	0.011973002	0.123523260	0.038071068
2019-10-26T04:00:00	0.2387	9.313	173.7	0.597649066	0.736867161	0.012090530	0.124735770	0.038444776
2019-10-26T04:05:00	0.2376	9.312	185.6	0.594015603	0.731556146	0.011954687	0.123334301	0.038012829
2019-10-26T04:10:00	0.2384	9.311	185.6	0.596729844	0.735522497	0.012056089	0.124380447	0.038335262
2019-10-26T04:15:00	0.2379	9.309	185.6	0.595100846	0.733141285	0.011995178	0.123752040	0.038141581
2019-10-26T04:20:00	0.2366	9.308	173.7	0.590795724	0.726858874	0.011834965	0.122099149	0.037632144
2019-10-26T04:25:00	0.2366	9.307	173.7	0.590837102	0.726919183	0.011836499	0.122114982	0.037637023
2019-10-26T04:30:00	0.2352	9.307	173.7	0.585856796	0.719670583	0.011652525	0.120216952	0.037052032
2019-10-26T04:35:00	0.2362	9.307	173.7	0.589246777	0.724602295	0.011777592	0.121507241	0.037449712
2019-10-26T04:40:00	0.2348	9.308	173.7	0.584599372	0.717843726	0.011606309	0.119740146	0.036905076
2019-10-26T04:45:00	0.2324	9.309	173.7	0.576588397	0.706235771	0.011314072	0.116725199	0.035975840
2019-10-26T04:50:00	0.2362	9.310	173.7	0.589370963	0.724783142	0.011782186	0.121554643	0.037464322
2019-10-26T04:55:00	0.2368	9.310	173.7	0.591419864	0.727768715	0.011858123	0.122338072	0.037705782
2019-10-26T05:00:00	0.2390	9.308	173.7	0.598812247	0.738569707	0.012134184	0.125186141	0.038583584
2019-10-26T05:05:00	0.2394	9.304	173.7	0.600188421	0.740585473	0.012185936	0.125720059	0.038748143
2019-10-26T05:10:00	0.2397	9.299	173.7	0.600896938	0.741623897	0.012212625	0.125995400	0.038833006
2019-10-26T05:15:00	0.2391	9.294	173.6	0.598936097	0.738751053	0.012138837	0.125234144	0.038598379
2019-10-26T05:20:00	0.2408	9.287	173.6	0.604646992	0.747127096	0.012354383	0.127457892	0.039283760
2019-10-26T05:25:00	0.2415	9.282	173.6	0.607020091	0.750615703	0.012444525	0.128387872	0.039570389
2019-10-26T05:30:00	0.2410	9.277	173.6	0.605395824	0.748227418	0.012382791	0.127750971	0.039374090
2019-10-26T05:35:00	0.2433	9.275	185.4	0.613091574	0.759562680	0.012676689	0.130783060	0.040308609
2019-10-26T05:40:00	0.2428	9.272	185.4	0.611470083	0.757170211	0.012614469	0.130141150	0.040110766
2019-10-26T05:45:00	0.2450	9.271	173.3	0.618820806	0.768033732	0.012897797	0.133064195	0.041011677
2019-10-26T05:50:00	0.2452	9.270	173.5	0.619193751	0.768586115	0.012912259	0.133213393	0.041057661
2019-10-26T05:55:00	0.2456	9.269	173.5	0.620562049	0.770613754	0.012965389	0.133761524	0.041226601
2019-10-26T06:00:00	0.2472	9.269	173.5	0.625907087	0.778549536	0.013174015	0.135913879	0.041889978
2019-10-26T06:05:00	0.2475	9.268	173.5	0.626941670	0.780088369	0.013214595	0.136332544	0.042019014
2019-10-26T06:10:00	0.2489	9.268	173.5	0.631615788	0.787051905	0.013398741	0.138232344	0.042604551
2019-10-26T06:15:00	0.2468	9.268	173.5	0.624704779	0.776762367	0.013126936	0.135428180	0.041740280
2019-10-26T06:20:00	0.2482	9.270	173.5	0.629381821	0.783721418	0.013310565	0.137322644	0.042324173
2019-10-26T06:25:00	0.2482	9.272	173.5	0.629422752	0.783782401	0.013312178	0.137339284	0.042329301
2019-10-26T06:30:00	0.2478	9.275	173.5	0.627808675	0.781378644	0.013248653	0.136683909	0.042127308
2019-10-26T06:35:00	0.2484	9.279	173.5	0.629835517	0.784397465	0.013328448	0.137507143	0.042381037
2019-10-26T06:40:00	0.2472	9.284	173.6	0.625903597	0.778544347	0.013173878	0.135912468	0.041889543
2019-10-26T06:45:00	0.2463	9.288	173.5	0.622962066	0.774174079	0.013058852	0.134725769	0.041523791
2019-10-26T06:50:00	0.2465	9.294	173.6	0.623666056	0.775219340	0.013086333	0.135009289	0.041611174
2019-10-26T06:55:00	0.2485	9.300	185.4	0.630330076	0.785134598	0.013347956	0.137708405	0.042443068
2019-10-26T07:00:00	0.2479	9.305	185.5	0.628385400	0.782237275	0.013271333	0.136917894	0.042199425
2019-10-26T07:05:00	0.2464	9.309	185.5	0.623457577	0.774909753	0.013078192	0.134925295	0.041585286
2019-10-26T07:10:00	0.2475	9.315	173.7	0.626811815	0.779895173	0.013209498	0.136279959	0.042002807
2019-10-26T07:15:00	0.2480	9.321	173.7	0.628508224	0.782420174	0.013276166	0.136967752	0.042214791
2019-10-26T07:20:00	0.2466	9.328	173.7	0.623912026	0.775584647	0.013095942	0.135108421	0.041641728
2019-10-26T07:25:00	0.2477	9.336	173.7	0.627596950	0.781063496	0.013240332	0.136598061	0.042100849
2019-10-26T07:30:00	0.2493	9.343	173.8	0.632931482	0.789015370	0.013450814	0.138769569	0.042770129
2019-10-26T07:35:00	0.2492	9.352	173.8	0.632641756	0.788582874	0.013439338	0.138651175	0.042733639
2019-10-26T07:40:00	0.2490	9.361	173.9	0.632021334	0.787656962	0.013414781	0.138397821	0.042655553
2019-10-26T07:45:00	0.2477	9.371	173.9	0.627760751	0.781307307	0.013246769	0.136664475	0.042121318
2019-10-26T07:50:00	0.2475	9.381	173.9	0.626808327	0.779889984	0.013209361	0.136278546	0.042002372
2019-10-26T07:55:00	0.2497	9.394	174.0	0.634127546	0.790801579	0.013498243	0.139258887	0.042920941
2019-10-26T08:00:00	0.2485	9.407	174.0	0.630200344	0.784941214	0.013342838	0.137655595	0.042426791
2019-10-26T08:05:00	0.2498	9.423	174.1	0.634539769	0.791417476	0.013514610	0.139427737	0.042972983
2019-10-26T08:10:00	0.2507	9.439	174.2	0.637553477	0.795924594	0.013634576	0.140665410	0.043354445
2019-10-26T08:15:00	0.2500	9.457	174.2	0.635282348	0.792527317	0.013544118	0.139732172	0.043066813
2019-10-26T08:20:00	0.2509	9.479	174.3	0.638295431	0.797035399	0.013664196	0.140970989	0.043448628
2019-10-26T08:25:00	0.2507	9.501	174.4	0.637675987	0.796107976	0.013639465	0.140715843	0.043369989
2019-10-26T08:30:00	0.2504	9.525	174.5	0.636395927	0.794192522	0.013588433	0.140189354	0.043207720
2019-10-26T08:35:00	0.2505	9.552	174.7	0.636767044	0.794747710	0.013603218	0.140341888	0.043254733
2019-10-26T08:40:00	0.2503	9.580	174.8	0.636147335	0.793820696	0.013578533	0.140087227	0.043176244
2019-10-26T08:45:00	0.2518	9.610	174.9	0.641139330	0.801297419	0.013778037	0.142145463	0.043810612
2019-10-26T08:50:00	0.2506	9.643	175.1	0.637219805	0.795425196	0.013621267	0.140528097	0.043312124
2019-10-26T08:55:00	0.2503	9.680	175.2	0.636269894	0.794004004	0.013583413	0.140137572	0.043191761
2019-10-26T09:00:00	0.2501	9.719	175.5	0.635650100	0.793077123	0.013558744	0.139883068	0.043113320
2019-10-26T09:05:00	0.2514	9.766	175.7	0.639982936	0.799563557	0.013731687	0.141667284	0.043663233
2019-10-26T09:10:00	0.2517	9.817	175.9	0.640683587	0.800613957	0.013759760	0.141956909	0.043752498
2019-10-26T09:15:00	0.2502	9.867	176.1	0.635772675	0.793260405	0.013563621	0.139933381	0.043128827
2019-10-26T09:20:00	0.2501	9.912	188.5	0.635483179	0.792827555	0.013552105	0.139814567	0.043092207
2019-10-26T09:25:00	0.2492	9.964	188.7	0.632549520	0.788445201	0.013435686	0.138613495	0.042722025
2019-10-26T09:30:00	0.2491	10.024	176.9	0.632259763	0.788012753	0.013424216	0.138495157	0.042685552
2019-10-26T09:35:00	0.2501	10.089	177.2	0.635605760	0.793010828	0.013556981	0.139864870	0.043107711
2019-10-26T09:40:00	0.2502	10.156	177.5	0.635976958	0.793565888	0.013571751	0.140017255	0.043154678
2019-10-26T09:45:00	0.2483	10.222	177.8	0.629736237	0.784249514	0.013324534	0.137466759	0.042368590
2019-10-26T09:50:00	0.2480	10.280	178.1	0.628453336	0.782338438	0.013274006	0.136945470	0.042207924
2019-10-26T09:55:00	0.2480	10.334	178.4	0.628494277	0.782399405	0.013275617	0.136962090	0.042213046
2019-10-26T10:00:00	0.2468	10.385	190.8	0.624560881	0.776548550	0.013121307	0.135370109	0.041722382
2019-10-26T10:05:00	0.2461	10.436	191.2	0.622234539	0.773094309	0.013030483	0.134433095	0.041433586
2019-10-26T10:10:00	0.2487	10.492	191.4	0.630839703	0.785894407	0.013368074	0.137915959	0.042507038
2019-10-26T10:15:00	0.2477	10.546	191.8	0.627524272	0.780955326	0.013237476	0.136568599	0.042091769
2019-10-26T10:20:00	0.2451	10.596	191.9	0.618899225	0.768149872	0.012900837	0.133095560	0.041021344
2019-10-26T10:25:00	0.2432	10.634	192.2	0.612581475	0.758809804	0.012657098	0.130580948	0.040246316
2019-10-26T10:30:00	0.2427	10.656	179.9	0.610912656	0.756348250	0.012593116	0.129920854	0.040042869
2019-10-26T10:35:00	0.2448	10.671	192.3	0.617885545	0.766648999	0.012861568	0.132690422	0.040896477
2019-10-26T10:40:00	0.2441	10.678	180.0	0.615554840	0.763201398	0.012771512	0.131761330	0.040610122
2019-10-26T10:45:00	0.2431	10.684	192.4	0.612225161	0.758284034	0.012643423	0.130439865	0.040202833
2019-10-26T10:50:00	0.2432	10.689	180.1	0.612551724	0.758765899	0.012655956	0.130569165	0.040242685
2019-10-26T10:55:00	0.2416	10.697	180.1	0.607221804	0.750912452	0.012452203	0.128467081	0.039594802
2019-10-26T11:00:00	0.2407	10.710	180.2	0.604217593	0.746496356	0.012338108	0.127289989	0.039232011
2019-10-26T11:05:00	0.2407	10.726	192.7	0.604211628	0.746487596	0.012337882	0.127287657	0.039231292
2019-10-26T11:10:00	0.2411	10.742	180.3	0.605538538	0.748437172	0.012388209	0.127806866	0.039391317
2019-10-26T11:15:00	0.2405	10.764	180.4	0.603533073	0.745491193	0.012312187	0.127022565	0.039149588
2019-10-26T11:20:00	0.2394	10.787	180.6	0.600192087	0.740590844	0.012186074	0.125721483	0.038748582
2019-10-26T11:25:00	0.2395	10.811	180.7	0.600519760	0.741071041	0.012198414	0.125848784	0.038787817
2019-10-26T11:30:00	0.2390	10.841	180.8	0.598845251	0.738618032	0.012135424	0.125198932	0.038587527
2019-10-26T11:35:00	0.2390	10.869	180.9	0.598839278	0.738609286	0.012135200	0.125196617	0.038586813
2019-10-26T11:40:00	0.2388	10.896	181.1	0.598165667	0.737623169	0.012109908	0.124935689	0.038506393
2019-10-26T11:45:00	0.2379	10.921	181.2	0.595153754	0.733218590	0.011997154	0.123772424	0.038147863
2019-10-26T11:50:00	0.2369	10.946	181.3	0.591804833	0.728330067	0.011872419	0.122485559	0.037751239
2019-10-26T11:55:00	0.2365	10.968	181.4	0.590460781	0.726370744	0.011822546	0.121971031	0.037592656
2019-10-26T12:00:00	0.2355	10.988	181.5	0.587107398	0.721488833	0.011698584	0.120692132	0.037198487
2019-10-26T12:05:00	0.2356	11.003	181.6	0.587436288	0.721967222	0.011710712	0.120817258	0.037237052
2019-10-26T12:10:00	0.2358	11.018	181.6	0.588099968	0.722932857	0.011735206	0.121069954	0.037314936
2019-10-26T12:15:00	0.2348	11.032	181.7	0.584744334	0.718054267	0.011611632	0.119795065	0.036922002
2019-10-26T12:20:00	0.2352	11.046	181.8	0.586078578	0.719992937	0.011660686	0.120301150	0.037077983
2019-10-26T12:25:00	0.2335	11.060	181.9	0.580373014	0.711713066	0.011451658	0.118144649	0.036413328
2019-10-26T12:30:00	0.2344	11.071	181.9	0.583385585	0.716081514	0.011561785	0.119280807	0.036763503
2019-10-26T12:35:00	0.2326	11.080	182.0	0.577339828	0.707322335	0.011341322	0.117006331	0.036062488
2019-10-26T12:40:00	0.2337	11.090	182.0	0.581026021	0.712659334	0.011475484	0.118390452	0.036489087
2019-10-26T12:45:00	0.2318	11.100	182.1	0.574640122	0.703420755	0.011243576	0.115997898	0.035751679
2019-10-26T12:50:00	0.2335	11.113	182.1	0.580342991	0.711669567	0.011450564	0.118133354	0.036409847
2019-10-26T12:55:00	0.2339	11.128	182.2	0.581678906	0.713605780	0.011499330	0.118636470	0.036564912
2019-10-26T13:00:00	0.2339	11.141	182.3	0.581672904	0.713597077	0.011499111	0.118634207	0.036564215
2019-10-26T13:05:00	0.2331	11.153	182.4	0.578982538	0.709699316	0.011401010	0.117622122	0.036252280
2019-10-26T13:10:00	0.2313	11.165	182.4	0.572929183	0.700951256	0.011181852	0.115361110	0.035555414
2019-10-26T13:15:00	0.2326	11.175	182.5	0.577291748	0.707252798	0.011339578	0.116988333	0.036056940
2019-10-26T13:20:00	0.2342	11.182	182.5	0.582655007	0.715021430	0.011535029	0.119004767	0.036678425
2019-10-26T13:25:00	0.2334	11.189	182.6	0.579965393	0.711122565	0.011436799	0.117991347	0.036366079
2019-10-26T13:30:00	0.2333	11.194	182.6	0.579623792	0.710627809	0.011424354	0.117862952	0.036326506
2019-10-26T13:35:00	0.2354	11.200	182.6	0.586658599	0.720836175	0.011682044	0.120521496	0.037145895
2019-10-26T13:40:00	0.2333	11.202	182.6	0.579611780	0.710610413	0.011423916	0.117858438	0.036325115
2019-10-26T13:45:00	0.2339	11.204	182.6	0.581618881	0.713518750	0.011497137	0.118613840	0.036557938
2019-10-26T13:50:00	0.2339	11.206	182.7	0.581612879	0.713510048	0.011496917	0.118611577	0.036557240
2019-10-26T13:55:00	0.2335	11.209	182.7	0.580264928	0.711556473	0.011447717	0.118103989	0.036400797
2019-10-26T14:00:00	0.2331	11.213	182.7	0.578916460	0.709603658	0.011398606	0.117597320	0.036244636
2019-10-26T14:05:00	0.2325	11.218	182.7	0.576895791	0.706680203	0.011325216	0.116840162	0.036011273
2019-10-26T14:10:00	0.2337	11.224	182.8	0.580917955	0.712502712	0.011471539	0.118349756	0.036476544
2019-10-26T14:15:00	0.2316	11.231	182.8	0.573859594	0.702293873	0.011215396	0.115707175	0.035662075
2019-10-26T14:20:00	0.2316	11.238	182.8	0.573853578	0.702285189	0.011215179	0.115704935	0.035661385
2019-10-26T14:25:00	0.2330	11.244	182.9	0.578550725	0.709074270	0.011385305	0.117460091	0.036202341
2019-10-26T14:30:00	0.2340	11.248	182.9	0.581900269	0.713926755	0.011507421	0.118719942	0.036590639
2019-10-26T14:35:00	0.2351	11.251	182.9	0.585581683	0.719270770	0.011642405	0.120112548	0.037019854
2019-10-26T14:40:00	0.2344	11.253	182.9	0.583229593	0.715855129	0.011556070	0.119221840	0.036745329
2019-10-26T14:45:00	0.2362	11.254	182.9	0.589253259	0.724611734	0.011777831	0.121509715	0.037450474
2019-10-26T14:50:00	0.2345	11.253	182.9	0.583552847	0.716324277	0.011567915	0.119344051	0.036782996
2019-10-26T14:55:00	0.2356	11.252	182.9	0.587232532	0.721670837	0.011703198	0.120739732	0.037213158
2019-10-26T15:00:00	0.2346	11.250	182.9	0.583876070	0.716793468	0.011579766	0.119466315	0.036820679
2019-10-26T15:05:00	0.2353	11.247	182.9	0.586215739	0.720192316	0.011665735	0.120353238	0.037094037
2019-10-26T15:10:00	0.2353	11.243	182.9	0.586209744	0.720183602	0.011665514	0.120350961	0.037093335
2019-10-26T15:15:00	0.2367	11.239	182.9	0.590890415	0.726996889	0.011838477	0.122135382	0.037643311
2019-10-26T15:20:00	0.2370	11.233	182.8	0.591887905	0.728451217	0.011875505	0.122517397	0.037761052
2019-10-26T15:25:00	0.2376	11.225	182.8	0.593888021	0.731369861	0.011949931	0.123285239	0.037997708
2019-10-26T15:30:00	0.2381	11.216	182.8	0.595552922	0.733801893	0.012012066	0.123926270	0.038195280
2019-10-26T15:35:00	0.2368	11.206	182.7	0.591200994	0.727449620	0.011850000	0.122254261	0.037679950
2019-10-26T15:40:00	0.2370	11.196	182.7	0.591863965	0.728416303	0.011874616	0.122508222	0.037758224
2019-10-26T15:45:00	0.2389	11.183	182.6	0.598206769	0.737683329	0.012111451	0.124951602	0.038511297
2019-10-26T15:50:00	0.2371	11.170	182.6	0.592186427	0.728886619	0.011886598	0.122631843	0.037796325
2019-10-26T15:55:00	0.2385	11.157	182.5	0.596859177	0.735711645	0.012060932	0.124430408	0.038350660
2019-10-26T16:00:00	0.2381	11.144	182.5	0.595851134	0.734237755	0.012023213	0.124041270	0.038230724
2019-10-26T16:05:00	0.2380	11.129	182.4	0.595463768	0.733671600	0.012008735	0.123891900	0.038184687
2019-10-26T16:10:00	0.2396	11.115	182.3	0.600752223	0.741411765	0.012207171	0.125939136	0.038815665
2019-10-26T16:15:00	0.2404	11.101	182.3	0.603366907	0.745247250	0.012305899	0.126957692	0.039129594
2019-10-26T16:20:00	0.2406	11.086	182.2	0.603980412	0.746148030	0.012329124	0.127197296	0.039203442
2019-10-26T16:25:00	0.2397	11.071	182.1	0.600926220	0.741666823	0.012213729	0.126006786	0.038836515
2019-10-26T16:30:00	0.2414	11.057	182.1	0.606539600	0.749908970	0.012426246	0.128199294	0.039512268
2019-10-26T16:35:00	0.2423	11.044	182.0	0.609815591	0.754731325	0.012551146	0.129487855	0.039909414
2019-10-26T16:40:00	0.2409	11.029	181.9	0.605100831	0.747793904	0.012371596	0.127635475	0.039338493
2019-10-26T16:45:00	0.2412	11.016	181.9	0.606047160	0.749184861	0.012407528	0.128006174	0.039452746
2019-10-26T16:50:00	0.2408	11.004	181.8	0.604661334	0.747148166	0.012354927	0.127463502	0.039285489
2019-10-26T16:55:00	0.2399	10.991	181.8	0.601607730	0.742666080	0.012239429	0.126271936	0.038918237
2019-10-26T17:00:00	0.2415	10.979	181.7	0.606887018	0.750419952	0.012439461	0.128335631	0.039554288
2019-10-26T17:05:00	0.2424	10.965	181.7	0.610162688	0.755242790	0.012564417	0.129624770	0.039951613
2019-10-26T17:10:00	0.2428	10.950	181.6	0.611440285	0.757126265	0.012613327	0.130129369	0.040107135
2019-10-26T17:15:00	0.2428	10.934	181.5	0.611387243	0.757048041	0.012611294	0.130108399	0.040100672
2019-10-26T17:20:00	0.2419	10.919	181.5	0.608339428	0.752557255	0.012494786	0.128906407	0.039730206
2019-10-26T17:25:00	0.2433	10.903	181.4	0.612943854	0.759344631	0.012671014	0.130724514	0.040290565
2019-10-26T17:30:00	0.2438	10.889	181.3	0.614552778	0.761720544	0.012732893	0.131362914	0.040487326
2019-10-26T17:35:00	0.2431	10.873	181.2	0.612505327	0.758697432	0.012654175	0.130550791	0.040237022
2019-10-26T17:40:00	0.2426	10.857	181.1	0.610789374	0.756166499	0.012588396	0.129872159	0.040027861
2019-10-26T17:45:00	0.2439	10.841	181.1	0.615058379	0.762467620	0.012752371	0.131563861	0.040549260
2019-10-26T17:50:00	0.2442	10.826	181.0	0.616002058	0.763862573	0.012788766	0.131939344	0.040664987
2019-10-26T17:55:00	0.2434	10.812	180.9	0.613290645	0.759856557	0.012684338	0.130861980	0.040332933
2019-10-26T18:00:00	0.2433	10.798	180.9	0.612905181	0.759287550	0.012669528	0.130709189	0.040285841
2019-10-26T18:05:00	0.2438	10.783	180.8	0.614514123	0.761663437	0.012731405	0.131347557	0.040482593
2019-10-26T18:10:00	0.2428	10.768	180.7	0.611468991	0.757168599	0.012614427	0.130140718	0.040110633
2019-10-26T18:15:00	0.2423	10.754	180.7	0.609752537	0.754638423	0.012548736	0.129462991	0.039901751
2019-10-26T18:20:00	0.2430	10.739	180.6	0.612028064	0.757993248	0.012635862	0.130361857	0.040178791
2019-10-26T18:25:00	0.2436	10.726	180.6	0.613969784	0.760859380	0.012710453	0.131131404	0.040415972
2019-10-26T18:30:00	0.2433	10.712	180.5	0.612919528	0.759308726	0.012670079	0.130714874	0.040287594
2019-10-26T18:35:00	0.2428	10.699	192.8	0.611203775	0.756777491	0.012604265	0.130035881	0.040078321
2019-10-26T18:40:00	0.2431	10.685	180.3	0.612480998	0.758661531	0.012653241	0.130541156	0.040234052
2019-10-26T18:45:00	0.2422	10.672	180.3	0.609434122	0.754169328	0.012536569	0.129337468	0.039863064
2019-10-26T18:50:00	0.2452	10.658	180.2	0.619350910	0.768818923	0.012918355	0.133276290	0.041077047
2019-10-26T18:55:00	0.2439	10.644	180.2	0.614981080	0.762353388	0.012749392	0.131533128	0.040539788
2019-10-26T19:00:00	0.2446	10.629	180.1	0.617253263	0.765713270	0.012837105	0.132438041	0.040818691
2019-10-26T19:05:00	0.2424	10.614	180.0	0.609887387	0.754837112	0.012553890	0.129516169	0.039918141
2019-10-26T19:10:00	0.2439	10.600	179.9	0.615154380	0.762609495	0.012756071	0.131602034	0.040561025
2019-10-26T19:15:00	0.2447	10.586	179.9	0.617758481	0.766460927	0.012856650	0.132639683	0.040880839
2019-10-26T19:20:00	0.2463	10.573	179.8	0.623013847	0.774250947	0.013060872	0.134746613	0.041530215
2019-10-26T19:25:00	0.2456	10.559	192.2	0.620639528	0.770728615	0.012968400	0.133792597	0.041236178
2019-10-26T19:30:00	0.2442	10.547	179.7	0.615939114	0.763769505	0.012786337	0.131914281	0.040657263
2019-10-26T19:35:00	0.2452	10.536	179.7	0.619206456	0.768604935	0.012912752	0.133218477	0.041059228
2019-10-26T19:40:00	0.2456	10.524	179.6	0.620812553	0.770985140	0.012975128	0.133862001	0.041257569
2019-10-26T19:45:00	0.2470	10.514	179.6	0.625400884	0.777796942	0.013154183	0.135709277	0.041826917
2019-10-26T19:50:00	0.2451	10.504	179.5	0.619047675	0.768369743	0.012906593	0.133154944	0.041039647
2019-10-26T19:55:00	0.2452	10.493	179.4	0.619326628	0.768782951	0.012917413	0.133266571	0.041074052
2019-10-26T20:00:00	0.2446	10.482	179.4	0.617281922	0.765755676	0.012838213	0.132449475	0.040822215
2019-10-26T20:05:00	0.2446	10.470	179.4	0.617228967	0.765677320	0.012836165	0.132428348	0.040815703
2019-10-26T20:10:00	0.2452	10.459	179.3	0.619167852	0.768547751	0.012911254	0.133203029	0.041054467
2019-10-26T20:15:00	0.2447	10.450	191.6	0.617787135	0.766503339	0.012857759	0.132651125	0.040884365
2019-10-26T20:20:00	0.2430	10.440	179.2	0.612085465	0.758077931	0.012638064	0.130384573	0.040185792
2019-10-26T20:25:00	0.2430	10.430	191.5	0.612032433	0.757999693	0.012636029	0.130363586	0.040179323
2019-10-26T20:30:00	0.2441	10.419	179.1	0.615635589	0.763320766	0.012774626	0.131793463	0.040620025
2019-10-26T20:35:00	0.2435	10.409	191.4	0.613588761	0.760296710	0.012695798	0.130980211	0.040369373
2019-10-26T20:40:00	0.2433	10.398	179.0	0.612870876	0.759236916	0.012668211	0.130695595	0.040281652
2019-10-26T20:45:00	0.2441	10.387	178.9	0.615808858	0.763576921	0.012781311	0.131862426	0.040641280
2019-10-26T20:50:00	0.2453	10.376	191.2	0.619740036	0.769395448	0.012933457	0.133432091	0.041125066
2019-10-26T20:55:00	0.2432	10.365	191.1	0.612711812	0.759002153	0.012662102	0.130632575	0.040262228
2019-10-26T21:00:00	0.2435	10.354	178.7	0.613656114	0.760396164	0.012698388	0.131006931	0.040377608
2019-10-26T21:05:00	0.2446	10.342	191.1	0.617257626	0.765719726	0.012837273	0.132439782	0.040819227
2019-10-26T21:10:00	0.2441	10.331	190.9	0.615543965	0.763185323	0.012771092	0.131757003	0.040608788
2019-10-26T21:15:00	0.2433	10.319	190.9	0.613164659	0.759670568	0.012679497	0.130812031	0.040317539
2019-10-26T21:20:00	0.2443	10.306	190.8	0.616434549	0.764502135	0.012805464	0.132111613	0.040718082
2019-10-26T21:25:00	0.2433	10.293	190.7	0.613058626	0.759514044	0.012675423	0.130770001	0.040304584
2019-10-26T21:30:00	0.2423	10.281	190.6	0.609679494	0.754530807	0.012545944	0.129434191	0.039892875
2019-10-26T21:35:00	0.2431	10.268	190.6	0.612287606	0.758376169	0.012645819	0.130464584	0.040210452
2019-10-26T21:40:00	0.2429	10.254	190.5	0.611569459	0.757316773	0.012618278	0.130180444	0.040122877
2019-10-26T21:45:00	0.2427	10.240	190.4	0.611183808	0.756748048	0.012603500	0.130027990	0.040075889
2019-10-26T21:50:00	0.2421	10.226	190.3	0.609134413	0.753727870	0.012525122	0.129219377	0.039826667
2019-10-26T21:55:00	0.2431	10.213	190.3	0.612408011	0.758553831	0.012650440	0.130512255	0.040225145
2019-10-26T22:00:00	0.2439	10.198	190.2	0.615014122	0.762402217	0.012750665	0.131546265	0.040543836
2019-10-26T22:05:00	0.2432	10.187	177.9	0.612540313	0.758749060	0.012655518	0.130564646	0.040241292
2019-10-26T22:10:00	0.2432	10.174	177.9	0.612725633	0.759022550	0.012662633	0.130638050	0.040263916
2019-10-26T22:15:00	0.2412	10.160	177.8	0.605922313	0.749001312	0.012402784	0.127957237	0.039437663
2019-10-26T22:20:00	0.2419	10.148	177.7	0.608438929	0.752703740	0.012498581	0.128945557	0.039742273
2019-10-26T22:25:00	0.2447	10.134	177.7	0.617600500	0.766227113	0.012850536	0.132576613	0.040861400
2019-10-26T22:30:00	0.2450	10.123	177.6	0.618781445	0.767975440	0.012896271	0.133048454	0.041006826
2019-10-26T22:35:00	0.2452	10.111	177.6	0.619298324	0.768741022	0.012916315	0.133255243	0.041070560
2019-10-26T22:40:00	0.2438	10.099	177.5	0.614834341	0.762136555	0.012743738	0.131474799	0.040521810
2019-10-26T22:45:00	0.2452	10.088	177.5	0.619336401	0.768797429	0.012917792	0.133270483	0.041075257
2019-10-26T22:50:00	0.2442	10.075	177.5	0.615869170	0.763666092	0.012783638	0.131886435	0.040648680
2019-10-26T22:55:00	0.2444	10.063	177.4	0.616718596	0.764922266	0.012816437	0.132224818	0.040752973
2019-10-26T23:00:00	0.2456	10.051	177.3	0.620554834	0.770603059	0.012965108	0.133758631	0.041225709
2019-10-26T23:05:00	0.2457	10.036	189.3	0.621071456	0.771369032	0.012985197	0.133965887	0.041289587
2019-10-26T23:10:00	0.2453	10.021	189.3	0.619597515	0.769184276	0.012927925	0.133375017	0.041107476
2019-10-26T23:15:00	0.2443	10.007	177.0	0.616462688	0.764543752	0.012806551	0.132122825	0.040721538
2019-10-26T23:20:00	0.2447	9.991	177.0	0.617644010	0.766291506	0.012852220	0.132593982	0.040866753
2019-10-26T23:25:00	0.2441	9.976	176.9	0.615836474	0.763617752	0.012782376	0.131873419	0.040644668
2019-10-26T23:30:00	0.2428	9.960	176.8	0.611368143	0.757019875	0.012610563	0.130100849	0.040098345
2019-10-26T23:35:00	0.2445	9.945	176.7	0.616871012	0.765147730	0.012822327	0.132285583	0.040771701
2019-10-26T23:40:00	0.2438	9.928	176.6	0.614730804	0.761983571	0.012739750	0.131433651	0.040509128
2019-10-26T23:45:00	0.2439	9.912	176.6	0.614916010	0.762257233	0.012746885	0.131507261	0.040531815
2019-10-26T23:50:00	0.2428	9.894	176.5	0.611444467	0.757132432	0.012613487	0.130131022	0.040107645
2019-10-26T23:55:00	0.2430	9.877	176.4	0.611962412	0.757896396	0.012633344	0.130335879	0.040170784
2019-10-27T00:00:00	0.2407	9.860	176.3	0.604491182	0.746898211	0.012348476	0.127396954	0.039264978
2019-10-27T00:05:00	0.2427	9.845	176.3	0.611002778	0.756481124	0.012596567	0.129956458	0.040053842
2019-10-27T00:10:00	0.2433	9.832	176.2	0.613183373	0.759698194	0.012680216	0.130819450	0.040319825
2019-10-27T00:15:00	0.2420	9.818	176.1	0.608711703	0.753105362	0.012508987	0.129052915	0.039775362
2019-10-27T00:20:00	0.2426	9.803	176.0	0.610561035	0.755829899	0.012579656	0.129781992	0.040000070
2019-10-27T00:25:00	0.2423	9.788	175.9	0.609748316	0.754632203	0.012548574	0.129461327	0.039901238
2019-10-27T00:30:00	0.2401	9.771	175.9	0.602272415	0.743641041	0.012264522	0.126530816	0.038998026
2019-10-27T00:35:00	0.2401	9.755	175.8	0.602458272	0.743913722	0.012271544	0.126603252	0.039020352
2019-10-27T00:40:00	0.2426	9.739	175.7	0.610637376	0.755942430	0.012582578	0.129812134	0.040009360
2019-10-27T00:45:00	0.2428	9.724	175.6	0.611488052	0.757196711	0.012615158	0.130148255	0.040112956
2019-10-27T00:50:00	0.2426	9.709	175.5	0.610675545	0.755998696	0.012584039	0.129827206	0.040014006
2019-10-27T00:55:00	0.2424	9.694	175.5	0.609862852	0.754800961	0.012552952	0.129506493	0.039915159
2019-10-27T01:00:00	0.2416	9.679	175.4	0.607385452	0.751153226	0.012458433	0.128531361	0.039614614
2019-10-27T01:05:00	0.2413	9.667	175.4	0.606238930	0.749466826	0.012414816	0.128081363	0.039475920
2019-10-27T01:10:00	0.2401	9.653	175.3	0.602425452	0.743865568	0.012270304	0.126590460	0.039016409
2019-10-27T01:15:00	0.2396	9.639	175.2	0.600610147	0.741203518	0.012201818	0.125883911	0.038798644
2019-10-27T01:20:00	0.2390	9.624	175.2	0.598793911	0.738542860	0.012133495	0.125179035	0.038581394
2019-10-27T01:25:00	0.2404	9.609	175.1	0.603316349	0.745173032	0.012303986	0.126937957	0.039123511
2019-10-27T01:30:00	0.2398	9.595	175.0	0.601501502	0.742510298	0.012235421	0.126230588	0.038905493
2019-10-27T01:35:00	0.2414	9.581	175.0	0.606686644	0.750125229	0.012431839	0.128256989	0.039530050
2019-10-27T01:40:00	0.2418	9.565	174.9	0.607871221	0.751868068	0.012476938	0.128722265	0.039673452
2019-10-27T01:45:00	0.2390	9.549	174.8	0.598722759	0.738438683	0.012130823	0.125151463	0.038572896
2019-10-27T01:50:00	0.2412	9.534	174.7	0.605911258	0.748985060	0.012402364	0.127952904	0.039436328
2019-10-27T01:55:00	0.2404	9.520	174.7	0.603431094	0.745341478	0.012308328	0.126982749	0.039137317
2019-10-27T02:00:00	0.2391	9.503	174.6	0.598947098	0.738767162	0.012139250	0.125238408	0.038599694
2019-10-27T02:05:00	0.2392	9.490	174.5	0.599466873	0.739528381	0.012158788	0.125439972	0.038661818
2019-10-27T02:10:00	0.2386	9.474	174.4	0.597316134	0.736380057	0.012078050	0.124607016	0.038405092
2019-10-27T02:15:00	0.2393	9.459	174.4	0.599838872	0.740073317	0.012172781	0.125584333	0.038706311
2019-10-27T02:20:00	0.2389	9.447	174.3	0.598356088	0.737901892	0.012117055	0.125009422	0.038529118
2019-10-27T02:25:00	0.2398	9.434	174.3	0.601211662	0.742085303	0.012224490	0.126117806	0.038870733
2019-10-27T02:30:00	0.2398	9.423	174.2	0.601397575	0.742357901	0.012231501	0.126190142	0.038893027
2019-10-27T02:35:00	0.2399	9.413	174.1	0.601583478	0.742630513	0.012238514	0.126262495	0.038915327
2019-10-27T02:40:00	0.2401	9.403	174.1	0.602436329	0.743881527	0.012270714	0.126594699	0.039017716
2019-10-27T02:45:00	0.2405	9.393	174.1	0.603622327	0.745622232	0.012315565	0.127057418	0.039160330
2019-10-27T02:50:00	0.2407	9.384	174.0	0.604474687	0.746873981	0.012347851	0.127390504	0.039262990
2019-10-27T02:55:00	0.2396	9.376	174.0	0.600659308	0.741275572	0.012203670	0.125903018	0.038804533
2019-10-27T03:00:00	0.2391	9.367	173.9	0.599176867	0.739103634	0.012147885	0.125327490	0.038627150
2019-10-27T03:05:00	0.2395	9.358	173.9	0.600363958	0.740842705	0.012192546	0.125788246	0.038769159
2019-10-27T03:10:00	0.2397	9.349	173.8	0.600883524	0.741604235	0.012212119	0.125990184	0.038831398
2019-10-27T03:15:00	0.2401	9.336	173.8	0.602403509	0.743833373	0.012269475	0.126581907	0.039013773
2019-10-27T03:20:00	0.2414	9.326	173.7	0.606588301	0.749980593	0.012428099	0.128218401	0.039518157
2019-10-27T03:25:00	0.2393	9.316	173.7	0.599773183	0.739977082	0.012170309	0.125558835	0.038698452
2019-10-27T03:30:00	0.2392	9.308	173.7	0.599291746	0.739271879	0.012152203	0.125372041	0.038640881
2019-10-27T03:35:00	0.2388	9.302	173.6	0.598142601	0.737589409	0.012109042	0.124926759	0.038503640
2019-10-27T03:40:00	0.2394	9.294	173.6	0.599997456	0.740305661	0.012178748	0.125645900	0.038725287
2019-10-27T03:45:00	0.2397	9.286	173.8	0.601184272	0.742045143	0.012223457	0.126107150	0.038867448
2019-10-27T03:50:00	0.2385	9.281	173.6	0.597031399	0.735963541	0.012067382	0.124496954	0.038371170
2019-10-27T03:55:00	0.2392	9.273	173.5	0.599220604	0.739167687	0.012149529	0.125344451	0.038632377
2019-10-27T04:00:00	0.2377	9.268	173.4	0.594397071	0.732113219	0.011968912	0.123481056	0.038058061
2019-10-27T04:05:00	0.2391	9.262	185.3	0.599182311	0.739111606	0.012148090	0.125329601	0.038627800
2019-10-27T04:10:00	0.2368	9.256	173.4	0.591272790	0.727554289	0.011852664	0.122281750	0.037688423
2019-10-27T04:15:00	0.2358	9.252	173.4	0.588035956	0.722839706	0.011732842	0.121045570	0.037307420
2019-10-27T04:20:00	0.2360	9.248	185.2	0.588815274	0.723974017	0.011761634	0.121342611	0.037398971
2019-10-27T04:25:00	0.2338	9.242	185.2	0.581217902	0.712937455	0.011482490	0.118462729	0.036511363
2019-10-27T04:30:00	0.2353	9.238	185.1	0.586356043	0.720396282	0.011670901	0.120406531	0.037110462
2019-10-27T04:35:00	0.2353	9.233	185.1	0.586465877	0.720555963	0.011674945	0.120448259	0.037123323
2019-10-27T04:40:00	0.2337	9.230	185.1	0.580876954	0.712443291	0.011470043	0.118334318	0.036471786
2019-10-27T04:45:00	0.2336	9.227	173.3	0.580651461	0.712116519	0.011461815	0.118249430	0.036445623
2019-10-27T04:50:00	0.2344	9.224	173.2	0.583444478	0.716166989	0.011563944	0.119303074	0.036770366
2019-10-27T04:55:00	0.2331	9.222	185.0	0.578857946	0.709518954	0.011396478	0.117575359	0.036237868
2019-10-27T05:00:00	0.2337	9.219	173.2	0.580981488	0.712594790	0.011473858	0.118373681	0.036483918
2019-10-27T05:05:00	0.2335	9.218	185.0	0.580420481	0.711781838	0.011453389	0.118162508	0.036418833
2019-10-27T05:10:00	0.2326	9.214	185.0	0.577173639	0.707081987	0.011335293	0.116944125	0.036043315
2019-10-27T05:15:00	0.2327	9.211	185.0	0.577619580	0.707726975	0.011351476	0.117111084	0.036094773
2019-10-27T05:20:00	0.2313	9.207	185.0	0.573025423	0.701090100	0.011185320	0.115396882	0.035566440
2019-10-27T05:25:00	0.2341	9.203	185.0	0.582202259	0.714364707	0.011518464	0.118833866	0.036625752
2019-10-27T05:30:00	0.2327	9.199	184.9	0.577614103	0.707719053	0.011351277	0.117109032	0.036094141
2019-10-27T05:35:00	0.2322	9.195	184.9	0.576044838	0.705450080	0.011294382	0.116522052	0.035913228
2019-10-27T05:40:00	0.2293	9.194	173.1	0.566062133	0.691063996	0.010935861	0.112823261	0.034773225
2019-10-27T05:45:00	0.2299	9.191	172.9	0.568193444	0.694128511	0.011011910	0.113607850	0.035015043
2019-10-27T05:50:00	0.2302	9.188	184.9	0.569313798	0.695740922	0.011051995	0.114021391	0.035142500
2019-10-27T05:55:00	0.2287	9.186	184.9	0.564034562	0.688152124	0.010863762	0.112079429	0.034543969
2019-10-27T06:00:00	0.2265	9.183	184.8	0.556721010	0.677677011	0.010605711	0.109417169	0.033723434
2019-10-27T06:05:00	0.2270	9.179	184.8	0.558520406	0.680250179	0.010668909	0.110069165	0.033924386
2019-10-27T06:10:00	0.2253	9.176	184.8	0.552548410	0.671720367	0.010459896	0.107912822	0.033259780
2019-10-27T06:15:00	0.2261	9.173	184.7	0.555363962	0.675738172	0.010558176	0.108926754	0.033572283
2019-10-27T06:20:00	0.2264	9.171	172.9	0.556488443	0.677344632	0.010597557	0.109333044	0.033697506
2019-10-27T06:25:00	0.2251	9.170	172.9	0.551866379	0.670748086	0.010436160	0.107667934	0.033184303
2019-10-27T06:30:00	0.2239	9.170	172.9	0.547915576	0.665123459	0.010299196	0.106254910	0.032748795
2019-10-27T06:35:00	0.2243	9.172	173.0	0.549381018	0.667208266	0.010349892	0.106777930	0.032909995
2019-10-27T06:40:00	0.2243	9.173	173.0	0.549153482	0.666884447	0.010342012	0.106696636	0.032884940
2019-10-27T06:45:00	0.2243	9.176	172.9	0.549264491	0.667042424	0.010345856	0.106736294	0.032897162
2019-10-27T06:50:00	0.2231	9.179	172.9	0.545310724	0.661422016	0.010209394	0.105328440	0.032463248
2019-10-27T06:55:00	0.2227	9.184	172.9	0.543726848	0.659174078	0.010154985	0.104767107	0.032290240
2019-10-27T07:00:00	0.2221	9.191	173.0	0.541802991	0.656446378	0.010089094	0.104087322	0.032080723
2019-10-27T07:05:00	0.2216	9.199	173.0	0.540217510	0.654200711	0.010034955	0.103528780	0.031908575
2019-10-27T07:10:00	0.2220	9.209	173.1	0.541346909	0.655800174	0.010073505	0.103926495	0.032031155
2019-10-27T07:15:00	0.2221	9.223	184.9	0.541797458	0.656438537	0.010088905	0.104085370	0.032080122
2019-10-27T07:20:00	0.2223	9.236	185.0	0.542587161	0.657557831	0.010115925	0.104364134	0.032166040
2019-10-27T07:25:00	0.2208	9.250	185.1	0.537267159	0.650027317	0.009934601	0.102493451	0.031589477
2019-10-27T07:30:00	0.2188	9.266	185.3	0.530577718	0.640591131	0.009708949	0.100165441	0.030871962
2019-10-27T07:35:00	0.2201	9.284	173.5	0.535111245	0.646982182	0.009861592	0.101740223	0.031357325
2019-10-27T07:40:00	0.2184	9.307	173.7	0.529098734	0.638509783	0.009659412	0.099654370	0.030714445
2019-10-27T07:45:00	0.2205	9.334	173.8	0.536353736	0.648736683	0.009903635	0.102173979	0.031491013
2019-10-27T07:50:00	0.2175	9.366	174.0	0.526256168	0.634514489	0.009564560	0.098675800	0.030412840
2019-10-27T07:55:00	0.2168	9.397	174.1	0.523640492	0.630843893	0.009477694	0.097779624	0.030136630
2019-10-27T08:00:00	0.2165	9.431	174.3	0.522729015	0.629566118	0.009447518	0.097468301	0.030040677
2019-10-27T08:05:00	0.2171	9.464	174.5	0.524887122	0.632592604	0.009519045	0.098206229	0.030268113
2019-10-27T08:10:00	0.2184	9.494	174.6	0.529087626	0.638494158	0.009659040	0.099650537	0.030713263
2019-10-27T08:15:00	0.2158	9.522	174.8	0.520334543	0.626212581	0.009368474	0.096652822	0.029789338
2019-10-27T08:20:00	0.2185	9.551	174.9	0.529651417	0.639287356	0.009677909	0.099845199	0.030773260
2019-10-27T08:25:00	0.2179	9.579	175.0	0.527379029	0.636091911	0.009601972	0.099061771	0.030531800
2019-10-27T08:30:00	0.2188	9.611	175.2	0.530555512	0.640559868	0.009708205	0.100157757	0.030869594
2019-10-27T08:35:00	0.2174	9.645	187.3	0.525898670	0.634012482	0.009552664	0.098553073	0.030375014
2019-10-27T08:40:00	0.2188	9.677	187.5	0.530438349	0.640394924	0.009704276	0.100117225	0.030857101
2019-10-27T08:45:00	0.2184	9.710	187.6	0.529188173	0.638635600	0.009662404	0.099685239	0.030723959
2019-10-27T08:50:00	0.2180	9.744	175.7	0.527937544	0.636876909	0.009620608	0.099254037	0.030591058
2019-10-27T08:55:00	0.2150	9.776	187.9	0.517815236	0.622689226	0.009285669	0.095798538	0.029526040
2019-10-27T09:00:00	0.2158	9.809	176.0	0.520317839	0.626189202	0.009367924	0.096647145	0.029787589
2019-10-27T09:05:00	0.2170	9.843	176.2	0.524523920	0.632082993	0.009506988	0.098081843	0.030229776
2019-10-27T09:10:00	0.2177	9.875	176.3	0.527021647	0.635589742	0.009590056	0.098938843	0.030493912
2019-10-27T09:15:00	0.2172	9.904	176.4	0.525088459	0.632875149	0.009525731	0.098275215	0.030289376
2019-10-27T09:20:00	0.2164	9.936	188.7	0.522471894	0.629205789	0.009439014	0.097380570	0.030013637
2019-10-27T09:25:00	0.2156	9.972	188.8	0.519853337	0.625539197	0.009352629	0.096489354	0.029738956
2019-10-27T09:30:00	0.2171	10.021	177.0	0.524741962	0.632388916	0.009514225	0.098156506	0.030252788
2019-10-27T09:35:00	0.2159	10.087	177.3	0.520760009	0.626808120	0.009382495	0.096797471	0.029833921
2019-10-27T09:40:00	0.2174	10.148	177.6	0.525988193	0.634138182	0.009555642	0.098583798	0.030384484
2019-10-27T09:45:00	0.2168	10.207	177.9	0.523713385	0.630946110	0.009480110	0.097804543	0.030144310
2019-10-27T09:50:00	0.2143	10.282	178.3	0.515288503	0.619160648	0.009202990	0.094945553	0.029263141
2019-10-27T09:55:00	0.2146	10.364	191.0	0.516426100	0.620748660	0.009240168	0.095329114	0.029381359
2019-10-27T10:00:00	0.2153	10.448	191.5	0.518588167	0.623769655	0.009311035	0.096060230	0.029606696
2019-10-27T10:05:00	0.2136	10.535	179.6	0.512934211	0.615877533	0.009126287	0.094154219	0.029019245
2019-10-27T10:10:00	0.2138	10.621	180.0	0.513433862	0.616573934	0.009142539	0.094321886	0.029070921
2019-10-27T10:15:00	0.2129	10.687	180.3	0.510511447	0.612503611	0.009047688	0.093343330	0.028769321
2019-10-27T10:20:00	0.2151	10.733	180.6	0.517851029	0.622739248	0.009286843	0.095810648	0.029529772
2019-10-27T10:25:00	0.2162	10.760	180.7	0.521764152	0.628214236	0.009415627	0.097139287	0.029939272
2019-10-27T10:30:00	0.2156	10.774	180.7	0.519531838	0.625089406	0.009342051	0.096380216	0.029705319
2019-10-27T10:35:00	0.2149	10.780	180.8	0.517298072	0.621966586	0.009268717	0.095623640	0.029472135
2019-10-27T10:40:00	0.2161	10.787	180.8	0.521553112	0.627918645	0.009408659	0.097067397	0.029917115
2019-10-27T10:45:00	0.2153	10.793	180.8	0.518637608	0.623838782	0.009312659	0.096076982	0.029611859
2019-10-27T10:50:00	0.2161	10.798	180.8	0.521526170	0.627880913	0.009407769	0.097058222	0.029914287
2019-10-27T10:55:00	0.2163	10.800	180.9	0.522024573	0.628579040	0.009424229	0.097228034	0.029966624
2019-10-27T11:00:00	0.2147	10.800	180.9	0.516718046	0.621156367	0.009249722	0.095427674	0.029411736
2019-10-27T11:05:00	0.2161	10.805	180.9	0.521315115	0.627585342	0.009400804	0.096986357	0.029892137
2019-10-27T11:10:00	0.2164	10.812	181.0	0.522495969	0.629239525	0.009439810	0.097388782	0.030016169
2019-10-27T11:15:00	0.2128	10.826	181.1	0.510006871	0.611801538	0.009031361	0.093174891	0.028717406
2019-10-27T11:20:00	0.2147	10.840	181.1	0.516664087	0.621081008	0.009247956	0.095409454	0.029406120
2019-10-27T11:25:00	0.2161	10.852	181.2	0.521261228	0.627509882	0.009399025	0.096968013	0.029886483
2019-10-27T11:30:00	0.2139	10.864	181.3	0.513901945	0.617226519	0.009157777	0.094479096	0.029119375
2019-10-27T11:35:00	0.2161	10.875	181.3	0.521575569	0.627950098	0.009409400	0.097075046	0.029919472
2019-10-27T11:40:00	0.2148	10.882	181.4	0.516951872	0.621482958	0.009257377	0.095506650	0.029436077
2019-10-27T11:45:00	0.2166	10.892	181.4	0.523254558	0.630302780	0.009464911	0.097647744	0.030095983
2019-10-27T11:50:00	0.2171	10.902	181.5	0.524775713	0.632436275	0.009515346	0.098168066	0.030256351
2019-10-27T11:55:00	0.2166	10.914	181.2	0.523227630	0.630265029	0.009464020	0.097638546	0.030093148
2019-10-27T12:00:00	0.2172	10.926	181.6	0.525089733	0.632876937	0.009525774	0.098275652	0.030289510
2019-10-27T12:05:00	0.2162	10.936	181.7	0.521836004	0.628314882	0.009418000	0.097163769	0.029946817
2019-10-27T12:10:00	0.2177	10.945	181.8	0.526767008	0.635232003	0.009581571	0.098851302	0.030466931
2019-10-27T12:15:00	0.2178	10.950	181.8	0.527264652	0.635931185	0.009598157	0.099022421	0.030519672
2019-10-27T12:20:00	0.2181	10.952	181.8	0.528102862	0.637109314	0.009626128	0.099310983	0.030608609
2019-10-27T12:25:00	0.2182	10.952	181.8	0.528600313	0.637808766	0.009642746	0.099482435	0.030661453
2019-10-27T12:30:00	0.2204	10.950	181.8	0.535901437	0.648097854	0.009888320	0.102015973	0.031442314
2019-10-27T12:35:00	0.2185	10.945	181.8	0.529595000	0.639207971	0.009676020	0.099825711	0.030767254
2019-10-27T12:40:00	0.2183	10.935	181.7	0.529070810	0.638470504	0.009658478	0.099644734	0.030711475
2019-10-27T12:45:00	0.2184	10.924	181.6	0.529227628	0.638691103	0.009663724	0.099698858	0.030728156
2019-10-27T12:50:00	0.2191	10.911	181.6	0.531767078	0.642266187	0.009748879	0.100577384	0.030998927
2019-10-27T12:55:00	0.2190	10.899	181.5	0.531243218	0.641528258	0.009731281	0.100395836	0.030942972
2019-10-27T13:00:00	0.2186	10.889	181.5	0.530038486	0.639832073	0.009690873	0.099978954	0.030814485
2019-10-27T13:05:00	0.2200	10.875	181.4	0.534617813	0.646285763	0.009844920	0.101568222	0.031304313
2019-10-27T13:10:00	0.2191	10.860	181.1	0.531713354	0.642190500	0.009747073	0.100558758	0.030993186
2019-10-27T13:15:00	0.2198	10.844	180.9	0.533910944	0.645288451	0.009821061	0.101322078	0.031228448
2019-10-27T13:20:00	0.2200	10.826	180.7	0.534747541	0.646468839	0.009849302	0.101613429	0.031318246
2019-10-27T13:25:00	0.2199	10.808	180.6	0.534224133	0.645730275	0.009831628	0.101431099	0.031262050
2019-10-27T13:30:00	0.2200	10.791	180.5	0.534720702	0.646430962	0.009848395	0.101604075	0.031315363
2019-10-27T13:35:00	0.2223	10.772	180.5	0.542348152	0.657219015	0.010107743	0.104279725	0.032140024
2019-10-27T13:40:00	0.2253	10.753	180.5	0.552665593	0.671887458	0.010463977	0.107954926	0.033272757
2019-10-27T13:45:00	0.2250	10.734	180.5	0.551806606	0.670662893	0.010434081	0.107646485	0.033177692
2019-10-27T13:50:00	0.2252	10.716	180.4	0.552300662	0.671367141	0.010451271	0.107823834	0.033232353
2019-10-27T13:55:00	0.2257	10.691	180.3	0.554147183	0.674001023	0.010515646	0.108487980	0.033437049
2019-10-27T14:00:00	0.2285	10.659	180.0	0.563418362	0.687267847	0.010841898	0.111853867	0.034474448
2019-10-27T14:05:00	0.2297	10.624	179.8	0.567617150	0.693299514	0.010991321	0.113395429	0.034949572
2019-10-27T14:10:00	0.2302	10.592	179.6	0.569118976	0.695460460	0.011045019	0.113949424	0.035120319
2019-10-27T14:15:00	0.2296	10.568	179.6	0.567253781	0.692776950	0.010978348	0.113261595	0.034908324
2019-10-27T14:20:00	0.2301	10.542	179.6	0.568755763	0.694937669	0.011032020	0.113815315	0.035078986
2019-10-27T14:25:00	0.2306	10.518	179.6	0.570593594	0.697584072	0.011097874	0.114494721	0.035288385
2019-10-27T14:30:00	0.2324	10.494	179.5	0.576463758	0.706055589	0.011309556	0.116678601	0.035961478
2019-10-27T14:35:00	0.2311	10.471	179.3	0.572249031	0.699970224	0.011157364	0.115108463	0.035477546
2019-10-27T14:40:00	0.2326	10.442	179.2	0.577109010	0.706988524	0.011332948	0.116919939	0.036035861
2019-10-27T14:45:00	0.2324	10.417	179.1	0.576591935	0.706240886	0.011314201	0.116726522	0.035976248
2019-10-27T14:50:00	0.2321	10.393	191.3	0.575738817	0.705007846	0.011283303	0.116407761	0.035878002
2019-10-27T14:55:00	0.2331	10.370	191.1	0.578915965	0.709602942	0.011398588	0.117597134	0.036244579
2019-10-27T15:00:00	0.2338	10.345	190.9	0.581419423	0.713229581	0.011489850	0.118538661	0.036534767
2019-10-27T15:05:00	0.2322	10.322	178.6	0.575867020	0.705193104	0.011287944	0.116455635	0.035892758
2019-10-27T15:10:00	0.2330	10.299	190.7	0.578708369	0.709302441	0.011391037	0.117519231	0.036220568
2019-10-27T15:15:00	0.2330	10.274	190.6	0.578527264	0.709040315	0.011384452	0.117451291	0.036199629
2019-10-27T15:20:00	0.2342	10.252	190.5	0.582707988	0.715098292	0.011536968	0.119024774	0.036684591
2019-10-27T15:25:00	0.2338	10.232	190.2	0.581185492	0.712890476	0.011481306	0.118450519	0.036507600
2019-10-27T15:30:00	0.2350	10.212	190.1	0.585363057	0.718953094	0.011634366	0.120029614	0.036994293
2019-10-27T15:35:00	0.2326	10.193	190.0	0.577131111	0.707020485	0.011333750	0.116928210	0.036038410
2019-10-27T15:40:00	0.2322	10.175	190.0	0.575942175	0.705301711	0.011290664	0.116483704	0.035901409
2019-10-27T15:45:00	0.2346	10.155	189.8	0.583815248	0.716705171	0.011577536	0.119443303	0.036813586
2019-10-27T15:50:00	0.2338	10.136	177.6	0.581287015	0.713037637	0.011485014	0.118488767	0.036519389
2019-10-27T15:55:00	0.2337	10.114	177.4	0.581106043	0.712775317	0.011478405	0.118420591	0.036498376
2019-10-27T16:00:00	0.2333	10.087	177.3	0.579582852	0.710568520	0.011422863	0.117847569	0.036321765
2019-10-27T16:05:00	0.2350	10.059	177.2	0.585381577	0.718980002	0.011635047	0.120036638	0.036996458
2019-10-27T16:10:00	0.2357	10.032	177.0	0.587824044	0.722531351	0.011725019	0.120964863	0.037282546
2019-10-27T16:15:00	0.2377	10.006	176.9	0.594277718	0.731938909	0.011964460	0.123435130	0.038043906
2019-10-27T16:20:00	0.2367	9.984	176.8	0.591031670	0.727202786	0.011843717	0.122189442	0.037659973
2019-10-27T16:25:00	0.2375	9.964	176.7	0.593804504	0.731247922	0.011946819	0.123253128	0.037987811
2019-10-27T16:30:00	0.2346	9.945	176.6	0.583860238	0.716770484	0.011579186	0.119460325	0.036818832
2019-10-27T16:35:00	0.2345	9.927	176.6	0.583622939	0.716426015	0.011570485	0.119370559	0.036791166
2019-10-27T16:40:00	0.2304	9.909	176.5	0.569949809	0.696656730	0.011074783	0.114256493	0.035214961
2019-10-27T16:45:00	0.2292	9.890	176.4	0.565670475	0.690501256	0.010921915	0.112679383	0.034728880
2019-10-27T16:50:00	0.2291	9.871	176.3	0.565431940	0.690158588	0.010913426	0.112591801	0.034701887
2019-10-27T16:55:00	0.2280	9.854	176.2	0.561821777	0.684978129	0.010785354	0.111270506	0.034294651
2019-10-27T17:00:00	0.2308	9.839	176.2	0.571352370	0.698677492	0.011125121	0.114775824	0.035375024
2019-10-27T17:05:00	0.2322	9.822	176.1	0.575821052	0.705126677	0.011286280	0.116438468	0.035887467
2019-10-27T17:10:00	0.2334	9.804	176.0	0.579948479	0.711098065	0.011436183	0.117984988	0.036364119
2019-10-27T17:15:00	0.2339	9.787	175.9	0.581723963	0.713671108	0.011500977	0.118653457	0.036570148
2019-10-27T17:20:00	0.2348	9.771	175.8	0.584504133	0.717705410	0.011602812	0.119704072	0.036893957
2019-10-27T17:25:00	0.2337	9.753	175.7	0.580913585	0.712496378	0.011471380	0.118348111	0.036476037
2019-10-27T17:30:00	0.2347	9.737	175.5	0.584364780	0.717503042	0.011597697	0.119651298	0.036877692
2019-10-27T17:35:00	0.2380	9.720	175.4	0.595505318	0.733732322	0.012010287	0.123907918	0.038189624
2019-10-27T17:40:00	0.2358	9.706	175.3	0.587910396	0.722656997	0.011728207	0.120997747	0.037292681
2019-10-27T17:45:00	0.2371	9.692	175.2	0.592358081	0.729137016	0.011892979	0.122697676	0.037816615
2019-10-27T17:50:00	0.2374	9.678	175.2	0.593458790	0.730743230	0.011933939	0.123120250	0.037946857
2019-10-27T17:55:00	0.2358	9.664	175.1	0.587868983	0.722596740	0.011726678	0.120981976	0.037287820
2019-10-27T18:00:00	0.2373	9.649	175.1	0.592985466	0.730052406	0.011916317	0.122938445	0.037890823
2019-10-27T18:05:00	0.2380	9.632	175.0	0.595422672	0.733611543	0.012007199	0.123876059	0.038179804
2019-10-27T18:10:00	0.2373	9.616	174.9	0.593180786	0.730337456	0.011923587	0.123013451	0.037913940
2019-10-27T18:15:00	0.2386	9.602	174.9	0.597287919	0.736338780	0.012076993	0.124596107	0.038401730
2019-10-27T18:20:00	0.2367	9.587	174.9	0.591035194	0.727207923	0.011843847	0.122190791	0.037660388
2019-10-27T18:25:00	0.2394	9.573	174.8	0.600153313	0.740534028	0.012184615	0.125706423	0.038743941
2019-10-27T18:30:00	0.2382	9.558	174.8	0.595910615	0.734324699	0.012025437	0.124064214	0.038237796
2019-10-27T18:35:00	0.2393	9.544	174.7	0.599680885	0.739841870	0.012166837	0.125523013	0.038687412
2019-10-27T18:40:00	0.2368	9.531	174.6	0.591426039	0.727777719	0.011858353	0.122340437	0.037706511
2019-10-27T18:45:00	0.2375	9.519	174.5	0.593530048	0.730847248	0.011936593	0.123147633	0.037955296
2019-10-27T18:50:00	0.2358	9.508	174.5	0.587940355	0.722700591	0.011729313	0.121009157	0.037296197
2019-10-27T18:55:00	0.2374	9.496	174.4	0.593391052	0.730644353	0.011931416	0.123094223	0.037938835
2019-10-27T19:00:00	0.2388	9.485	174.5	0.598165704	0.737623224	0.012109909	0.124935704	0.038506397
2019-10-27T19:05:00	0.2380	9.474	174.4	0.595257372	0.733369994	0.012001024	0.123812351	0.038160169
2019-10-27T19:10:00	0.2349	9.464	174.4	0.584982127	0.718399675	0.011620367	0.119885181	0.036949777
2019-10-27T19:15:00	0.2348	9.454	174.3	0.584744903	0.718055094	0.011611653	0.119795281	0.036922069
2019-10-27T19:20:00	0.2340	9.445	174.3	0.581825470	0.713818292	0.011504687	0.118691733	0.036581945
2019-10-27T19:25:00	0.2347	9.435	174.2	0.584270407	0.717366003	0.011594233	0.119615565	0.036866679
2019-10-27T19:30:00	0.2353	9.425	174.2	0.586378693	0.720429210	0.011671735	0.120415136	0.037113114
2019-10-27T19:35:00	0.2370	9.415	174.1	0.592166238	0.728857171	0.011885848	0.122624102	0.037793939
2019-10-27T19:40:00	0.2368	9.405	174.1	0.591260553	0.727536448	0.011852210	0.122277065	0.037686979
2019-10-27T19:45:00	0.2360	9.395	174.0	0.588681286	0.723778959	0.011756681	0.121291515	0.037383223
2019-10-27T19:50:00	0.2366	9.385	174.0	0.590786934	0.726846062	0.011834639	0.122095786	0.037631107
2019-10-27T19:55:00	0.2364	9.375	173.9	0.589880893	0.725525864	0.011801062	0.121749382	0.037524342
2019-10-27T20:00:00	0.2343	9.366	173.9	0.582944476	0.715441403	0.011545627	0.119114101	0.036712123
2019-10-27T20:05:00	0.2325	9.357	173.8	0.577002079	0.706833894	0.011329070	0.116879927	0.036023529
2019-10-27T20:10:00	0.2329	9.346	173.8	0.578107602	0.708433015	0.011369200	0.117293935	0.036151130
2019-10-27T20:15:00	0.2315	9.335	173.7	0.573502051	0.701777841	0.011202500	0.115574125	0.035621068
2019-10-27T20:20:00	0.2308	9.326	173.7	0.571246139	0.698524381	0.011121304	0.114736448	0.035362887
2019-10-27T20:25:00	0.2326	9.316	173.7	0.577394487	0.707401390	0.011343306	0.117026794	0.036068795
2019-10-27T20:30:00	0.2317	9.307	173.6	0.574132810	0.702688269	0.011225256	0.115808897	0.035693427
2019-10-27T20:35:00	0.2329	9.298	173.5	0.578262224	0.708656755	0.011374818	0.117351900	0.036168995
2019-10-27T20:40:00	0.2324	9.287	185.4	0.576681227	0.706369977	0.011317437	0.116759910	0.035986538
2019-10-27T20:45:00	0.2326	9.277	173.4	0.577115210	0.706997491	0.011333173	0.116922259	0.036036576
2019-10-27T20:50:00	0.2331	9.268	185.3	0.578892127	0.709568433	0.011397721	0.117588187	0.036241821
2019-10-27T20:55:00	0.2343	9.260	173.4	0.583015948	0.715545107	0.011548244	0.119141103	0.036720445
2019-10-27T21:00:00	0.2337	9.253	173.3	0.581101635	0.712768928	0.011478244	0.118418931	0.036497865
2019-10-27T21:05:00	0.2355	9.244	173.3	0.586897857	0.721184090	0.011690860	0.120612448	0.037173928
2019-10-27T21:10:00	0.2356	9.236	185.1	0.587330581	0.721813455	0.011706813	0.120777034	0.037224655
2019-10-27T21:15:00	0.2356	9.229	185.0	0.587428399	0.721955746	0.011710421	0.120814255	0.037236127
2019-10-27T21:20:00	0.2365	9.221	185.0	0.590204067	0.725996684	0.011813033	0.121872882	0.037562406
2019-10-27T21:25:00	0.2361	9.213	184.9	0.588963171	0.724189341	0.011767102	0.121399025	0.037416359
2019-10-27T21:30:00	0.2332	9.205	184.9	0.579340853	0.710218090	0.011414051	0.117756660	0.036293746
2019-10-27T21:35:00	0.2335	9.196	184.9	0.580445640	0.711818290	0.011454307	0.118171974	0.036421750
2019-10-27T21:40:00	0.2348	9.187	184.8	0.584567639	0.717797639	0.011605143	0.119728126	0.036901371
2019-10-27T21:45:00	0.2352	9.177	184.8	0.586005803	0.719887156	0.011658008	0.120273518	0.037069466
2019-10-27T21:50:00	0.2353	9.167	184.7	0.586438637	0.720516359	0.011673942	0.120437909	0.037120133
2019-10-27T21:55:00	0.2370	9.158	172.9	0.591891655	0.728456686	0.011875644	0.122518835	0.037761495
2019-10-27T22:00:00	0.2360	9.149	172.8	0.588643409	0.723723821	0.011755281	0.121277072	0.037378771
2019-10-27T22:05:00	0.2379	9.140	172.8	0.594950671	0.732921876	0.011989571	0.123694190	0.038123751
2019-10-27T22:10:00	0.2392	9.132	172.7	0.599244759	0.739203063	0.012150437	0.125353818	0.038635264
2019-10-27T22:15:00	0.2387	9.124	172.7	0.597528347	0.736690530	0.012086004	0.124689076	0.038430384
2019-10-27T22:20:00	0.2382	9.115	172.7	0.596145159	0.734667570	0.012034208	0.124154709	0.038265687
2019-10-27T22:25:00	0.2385	9.108	172.6	0.597099861	0.736063684	0.012069947	0.124523413	0.038379325
2019-10-27T22:30:00	0.2401	9.100	172.6	0.602391839	0.743816251	0.012269034	0.126577358	0.039012371
2019-10-27T22:35:00	0.2406	9.092	172.6	0.604011518	0.746193711	0.012330302	0.127209451	0.039207188
2019-10-27T22:40:00	0.2390	9.082	172.5	0.598627446	0.738299139	0.012127243	0.125114532	0.038561514
2019-10-27T22:45:00	0.2387	9.073	172.5	0.597578610	0.736764070	0.012087888	0.124708516	0.038436376
2019-10-27T22:50:00	0.2384	9.066	172.4	0.596529462	0.735229465	0.012048588	0.124303058	0.038311410
2019-10-27T22:55:00	0.2392	9.057	172.4	0.599486982	0.739557835	0.012159544	0.125447774	0.038664222
2019-10-27T23:00:00	0.2377	9.048	172.4	0.594430231	0.732161648	0.011970149	0.123493817	0.038061994
2019-10-27T23:05:00	0.2370	9.040	172.3	0.592042681	0.728676952	0.011881256	0.122576728	0.037779338
2019-10-27T23:10:00	0.2373	9.034	172.3	0.592998493	0.730071416	0.011916802	0.122943446	0.037892364
2019-10-27T23:15:00	0.2375	9.027	172.3	0.593619782	0.730978242	0.011939936	0.123182119	0.037965926
2019-10-27T23:20:00	0.2369	9.020	172.3	0.591566174	0.727982046	0.011863555	0.122394115	0.037723055
2019-10-27T23:25:00	0.2378	9.013	172.3	0.594527852	0.732304231	0.011973790	0.123531389	0.038073574
2019-10-27T23:30:00	0.2398	9.007	172.2	0.601491755	0.742496006	0.012235054	0.126226794	0.038904324
2019-10-27T23:35:00	0.2380	9.001	172.2	0.595435689	0.733630567	0.012007685	0.123881077	0.038181351
2019-10-27T23:40:00	0.2377	8.994	172.2	0.594385905	0.732096910	0.011968495	0.123476759	0.038056736
2019-10-27T23:45:00	0.2384	8.988	172.1	0.596677300	0.735445655	0.012054122	0.124360152	0.038329006
2019-10-27T23:50:00	0.2376	8.981	172.1	0.593957037	0.731470631	0.011952504	0.123311778	0.038005888
2019-10-27T23:55:00	0.2356	8.972	172.1	0.587218308	0.721650148	0.011702673	0.120734320	0.037211490
2019-10-28T00:00:00	0.2357	8.958	172.0	0.587505772	0.722068302	0.011713275	0.120843701	0.037245202
2019-10-28T00:05:00	0.2370	8.943	171.9	0.592143360	0.728823801	0.011884998	0.122615329	0.037791235
2019-10-28T00:10:00	0.2376	8.930	171.8	0.594101993	0.731682293	0.011957908	0.123367528	0.038023070
2019-10-28T00:15:00	0.2364	8.921	171.8	0.590041518	0.725759861	0.011807011	0.121810756	0.037543258
2019-10-28T00:20:00	0.2375	8.912	171.8	0.593673090	0.731056066	0.011941922	0.123202609	0.037972241
2019-10-28T00:25:00	0.2384	8.903	171.7	0.596633002	0.735380875	0.012052463	0.124343043	0.038323733
2019-10-28T00:30:00	0.2370	8.896	171.7	0.591906618	0.728478508	0.011876200	0.122524570	0.037763262
2019-10-28T00:35:00	0.2368	8.888	171.6	0.591190309	0.727434044	0.011849603	0.122250170	0.037678690
2019-10-28T00:40:00	0.2363	8.880	171.7	0.589804634	0.725414777	0.011798238	0.121720249	0.037515363
2019-10-28T00:45:00	0.2349	8.871	171.8	0.585069080	0.718525991	0.011623562	0.119918142	0.036959936
2019-10-28T00:50:00	0.2372	8.863	171.8	0.592720453	0.729665696	0.011906456	0.122836712	0.037859468
2019-10-28T00:55:00	0.2359	8.856	171.7	0.588323618	0.723258345	0.011743466	0.121155171	0.037341200
2019-10-28T01:00:00	0.2382	8.847	171.6	0.595967937	0.734408493	0.012027580	0.124086328	0.038244611
2019-10-28T01:05:00	0.2362	8.839	171.5	0.589233054	0.724582311	0.011777084	0.121502004	0.037448098
2019-10-28T01:10:00	0.2362	8.832	171.5	0.589185668	0.724513309	0.011775331	0.121483920	0.037442524
2019-10-28T01:15:00	0.2371	8.825	171.5	0.592483749	0.729320346	0.011897652	0.122745884	0.037831473
2019-10-28T01:20:00	0.2373	8.817	171.5	0.593105128	0.730227037	0.011920771	0.122984394	0.037904985
2019-10-28T01:25:00	0.2375	8.806	183.0	0.593726398	0.731133891	0.011943908	0.123223101	0.037978556
2019-10-28T01:30:00	0.2381	8.790	171.3	0.595684152	0.733993687	0.012016971	0.123976870	0.038210875
2019-10-28T01:35:00	0.2373	8.775	171.3	0.592963124	0.730019801	0.011915485	0.122929866	0.037888179
2019-10-28T01:40:00	0.2367	8.758	171.2	0.590909133	0.727024172	0.011839171	0.122142545	0.037645519
2019-10-28T01:45:00	0.2379	8.742	171.1	0.594873991	0.732809853	0.011986708	0.123664658	0.038114649
2019-10-28T01:50:00	0.2385	8.724	171.0	0.597165070	0.736159069	0.012072390	0.124548617	0.038387093
2019-10-28T01:55:00	0.2376	8.706	171.0	0.594110964	0.731695395	0.011958242	0.123370979	0.038024134
2019-10-28T02:00:00	0.2387	8.689	170.9	0.597738354	0.736997812	0.012093878	0.124770312	0.038455422
2019-10-28T02:05:00	0.2375	8.670	170.8	0.593682063	0.731069165	0.011942256	0.123206059	0.037973304
2019-10-28T02:10:00	0.2380	8.651	170.7	0.595305737	0.733440666	0.012002830	0.123830990	0.038165914
2019-10-28T02:15:00	0.2365	8.632	170.6	0.590242989	0.726053394	0.011814475	0.121887760	0.037566991
2019-10-28T02:20:00	0.2393	8.614	170.5	0.599552147	0.739653287	0.012161995	0.125473057	0.038672015
2019-10-28T02:25:00	0.2389	8.593	170.4	0.598503585	0.738117809	0.012122592	0.125066549	0.038546725
2019-10-28T02:30:00	0.2388	8.573	170.3	0.598122484	0.737559966	0.012108288	0.124918971	0.038501240
2019-10-28T02:35:00	0.2384	8.551	170.2	0.596739528	0.735536659	0.012056451	0.124384187	0.038336414
2019-10-28T02:40:00	0.2400	8.532	170.1	0.602032044	0.743288422	0.012255445	0.126437166	0.038969162
2019-10-28T02:45:00	0.2403	8.512	170.0	0.602985159	0.744686906	0.012291459	0.126808718	0.039083678
2019-10-28T02:50:00	0.2401	8.492	169.9	0.602271093	0.743639101	0.012264472	0.126530301	0.038997868
2019-10-28T02:55:00	0.2402	8.473	169.8	0.602557333	0.744059073	0.012275287	0.126641870	0.039032254
2019-10-28T03:00:00	0.2398	8.453	169.7	0.601509662	0.742522264	0.012235729	0.126233764	0.038906472
2019-10-28T03:05:00	0.2399	8.433	169.6	0.601795964	0.742942144	0.012246533	0.126345221	0.038940824
2019-10-28T03:10:00	0.2401	8.416	169.4	0.602415708	0.743851271	0.012269935	0.126586662	0.039015239
2019-10-28T03:15:00	0.2393	8.398	169.3	0.599699859	0.739869665	0.012167551	0.125530376	0.038689681
2019-10-28T03:20:00	0.2403	8.379	169.3	0.602988142	0.744691284	0.012291572	0.126809882	0.039084037
2019-10-28T03:25:00	0.2375	8.360	169.2	0.593593392	0.730939717	0.011938953	0.123171977	0.037962799
2019-10-28T03:30:00	0.2393	8.340	169.1	0.599558119	0.739662035	0.012162219	0.125475374	0.038672729
2019-10-28T03:35:00	0.2389	8.320	169.0	0.598509559	0.738126554	0.012122816	0.125068863	0.038547438
2019-10-28T03:40:00	0.2399	8.300	168.9	0.601798948	0.742946520	0.012246645	0.126346383	0.038941182
2019-10-28T03:45:00	0.2397	8.280	168.9	0.601084642	0.741899074	0.012219700	0.126068397	0.038855504
2019-10-28T03:50:00	0.2405	8.259	168.7	0.603705046	0.745743685	0.012318697	0.127089723	0.039170287
2019-10-28T03:55:00	0.2412	8.238	168.6	0.605990415	0.749101434	0.012405371	0.127983931	0.039445890
2019-10-28T04:00:00	0.2428	8.217	168.5	0.611269139	0.756873876	0.012606769	0.130061714	0.040086284
2019-10-28T04:05:00	0.2413	8.196	168.4	0.606279336	0.749526238	0.012416351	0.128097208	0.039480804
2019-10-28T04:10:00	0.2410	8.174	168.3	0.605282917	0.748061483	0.012378505	0.127706759	0.039360463
2019-10-28T04:15:00	0.2405	8.152	168.2	0.603619608	0.745618241	0.012315462	0.127056356	0.039160003
2019-10-28T04:20:00	0.2408	8.130	168.0	0.604622458	0.747091055	0.012353453	0.127448295	0.039280802
2019-10-28T04:25:00	0.2419	8.107	167.9	0.608289205	0.752483319	0.012492871	0.128886648	0.039724117
2019-10-28T04:30:00	0.2399	8.085	167.8	0.601627978	0.742695774	0.012240193	0.126279818	0.038920666
2019-10-28T04:35:00	0.2407	8.064	167.7	0.604298147	0.746614669	0.012341161	0.127321478	0.039241716
2019-10-28T04:40:00	0.2414	8.043	167.6	0.606633267	0.750046724	0.012429809	0.128236044	0.039523594
2019-10-28T04:45:00	0.2404	8.023	167.5	0.603304154	0.745155130	0.012303525	0.126933197	0.039122044
2019-10-28T04:50:00	0.2380	8.003	178.8	0.595297298	0.733428334	0.012002515	0.123827737	0.038164911
2019-10-28T04:55:00	0.2397	7.982	167.2	0.600975792	0.741739494	0.012215597	0.126026063	0.038842456
2019-10-28T05:00:00	0.2402	7.960	178.6	0.602646309	0.744189632	0.012278649	0.126676560	0.039042946
2019-10-28T05:05:00	0.2410	7.939	178.3	0.605315710	0.748109677	0.012379750	0.127719600	0.039364421
2019-10-28T05:10:00	0.2416	7.917	166.9	0.607317188	0.751052786	0.012455834	0.128504545	0.039606349
2019-10-28T05:15:00	0.2387	7.897	178.1	0.597650314	0.736868987	0.012090577	0.124736252	0.038444924
2019-10-28T05:20:00	0.2416	7.875	178.1	0.607323147	0.751061554	0.012456061	0.128506886	0.039607070
2019-10-28T05:25:00	0.2412	7.853	166.6	0.605993924	0.749106592	0.012405505	0.127985306	0.039446314
2019-10-28T05:30:00	0.2409	7.832	166.5	0.604997425	0.747641958	0.012367673	0.127595002	0.039326019
2019-10-28T05:35:00	0.2432	7.810	166.4	0.612655889	0.758919621	0.012659955	0.130610423	0.040255401
2019-10-28T05:40:00	0.2417	7.788	166.3	0.607668036	0.751569044	0.012469196	0.128642397	0.039648836
2019-10-28T05:45:00	0.2407	7.766	166.0	0.604339895	0.746675989	0.012342743	0.127337800	0.039246747
2019-10-28T05:50:00	0.2431	7.746	166.0	0.612332311	0.758442132	0.012647535	0.130482283	0.040215907
2019-10-28T05:55:00	0.2421	7.726	165.9	0.609008544	0.753542492	0.012520317	0.129169799	0.039811386
2019-10-28T06:00:00	0.2420	7.706	165.8	0.608678677	0.753056733	0.012507727	0.129039914	0.039771355
2019-10-28T06:05:00	0.2418	7.687	165.7	0.608015871	0.752080969	0.012482450	0.128779140	0.039690982
2019-10-28T06:10:00	0.2430	7.671	165.6	0.612011679	0.757969076	0.012635233	0.130355374	0.040176792
2019-10-28T06:15:00	0.2426	7.653	165.5	0.610684212	0.756011471	0.012584370	0.129830628	0.040015061
2019-10-28T06:20:00	0.2442	7.634	165.5	0.616005971	0.763868359	0.012788917	0.131940902	0.040665467
2019-10-28T06:25:00	0.2449	7.616	165.4	0.618333410	0.767312010	0.012878910	0.132869342	0.040951622
2019-10-28T06:30:00	0.2428	7.599	165.3	0.611358424	0.757005541	0.012610190	0.130097007	0.040097161
2019-10-28T06:35:00	0.2437	7.583	165.2	0.614353627	0.761426338	0.012725226	0.131283806	0.040462944
2019-10-28T06:40:00	0.2455	7.569	165.1	0.620333510	0.770274978	0.012956507	0.133669892	0.041198359
2019-10-28T06:45:00	0.2455	7.557	165.1	0.620336478	0.770279379	0.012956622	0.133671082	0.041198726
2019-10-28T06:50:00	0.2464	7.544	165.0	0.623324141	0.774711623	0.013072982	0.134871550	0.041568722
2019-10-28T06:55:00	0.2458	7.533	164.9	0.621337590	0.771763705	0.012995552	0.134072718	0.041322514
2019-10-28T07:00:00	0.2470	7.521	164.9	0.625318480	0.777674448	0.013150956	0.135675985	0.041816656
2019-10-28T07:05:00	0.2456	7.509	164.8	0.620680108	0.770788776	0.012969978	0.133808873	0.041241194
2019-10-28T07:10:00	0.2450	7.497	164.7	0.618692083	0.767843104	0.012892808	0.133012719	0.040995812
2019-10-28T07:15:00	0.2449	7.487	164.7	0.618363113	0.767355987	0.012880061	0.132881212	0.040955280
2019-10-28T07:20:00	0.2461	7.479	164.7	0.622347322	0.773261669	0.013034879	0.134478445	0.041447563
2019-10-28T07:25:00	0.2474	7.471	164.6	0.626658286	0.779666775	0.013203473	0.136217801	0.041983649
2019-10-28T07:30:00	0.2482	7.466	164.6	0.629309742	0.783614030	0.013307725	0.137293345	0.042315142
2019-10-28T07:35:00	0.2473	7.461	164.6	0.626333013	0.779182946	0.013190713	0.136086158	0.041943076
2019-10-28T07:40:00	0.2465	7.457	164.6	0.623685278	0.775247886	0.013087084	0.135017034	0.041613561
2019-10-28T07:45:00	0.2476	7.453	164.5	0.627332445	0.780669840	0.013229940	0.136490852	0.042067806
2019-10-28T07:50:00	0.2478	7.451	164.5	0.627997590	0.781659870	0.013256080	0.136760531	0.042150924
2019-10-28T07:55:00	0.2477	7.452	164.5	0.627669477	0.781171446	0.013243182	0.136627465	0.042109912
2019-10-28T08:00:00	0.2485	7.455	164.5	0.630320183	0.785119851	0.013347566	0.137704377	0.042441826
2019-10-28T08:05:00	0.2465	7.459	164.5	0.623700107	0.775269908	0.013087663	0.135023010	0.041615403
2019-10-28T08:10:00	0.2457	7.464	164.5	0.621050417	0.771337833	0.012984379	0.133957444	0.041286985
2019-10-28T08:15:00	0.2464	7.470	164.5	0.623374565	0.774786493	0.013074951	0.134891858	0.041574981
2019-10-28T08:20:00	0.2472	7.478	164.6	0.626028458	0.778730016	0.013178772	0.135962960	0.041905105
2019-10-28T08:25:00	0.2462	7.489	164.6	0.622717458	0.773810990	0.013049310	0.134627330	0.041493451
2019-10-28T08:30:00	0.2447	7.503	164.6	0.617743702	0.766439053	0.012856078	0.132633783	0.040879020
2019-10-28T08:35:00	0.2458	7.519	164.6	0.621396946	0.771851737	0.012997862	0.134096551	0.041329859
2019-10-28T08:40:00	0.2461	7.538	164.7	0.622394793	0.773332114	0.013036729	0.134497535	0.041453446
2019-10-28T08:45:00	0.2471	7.559	164.8	0.625712021	0.778259497	0.013166370	0.135835017	0.041865671
2019-10-28T08:50:00	0.2446	7.585	164.9	0.617423557	0.765965260	0.012843691	0.132505991	0.040839633
2019-10-28T08:55:00	0.2462	7.615	165.0	0.622735258	0.773837410	0.013050005	0.134634492	0.041495658
2019-10-28T09:00:00	0.2475	7.653	165.2	0.627045753	0.780243232	0.013218682	0.136374700	0.042032007
2019-10-28T09:05:00	0.2480	7.695	165.4	0.628704075	0.782711842	0.013283873	0.137047274	0.042239301
2019-10-28T09:10:00	0.2473	7.745	165.6	0.626389322	0.779266697	0.013192922	0.136108942	0.041950098
2019-10-28T09:15:00	0.2454	7.792	165.8	0.620093757	0.769919628	0.012947193	0.133573799	0.041168742
2019-10-28T09:20:00	0.2463	7.835	166.0	0.623081623	0.774351563	0.013063517	0.134773897	0.041538624
2019-10-28T09:25:00	0.2449	7.881	166.2	0.618440339	0.767470330	0.012883052	0.132912078	0.040964793
2019-10-28T09:30:00	0.2442	7.928	166.4	0.616118914	0.764035363	0.012793277	0.131985878	0.040679329
2019-10-28T09:35:00	0.2452	7.977	177.9	0.619441984	0.768953846	0.012921889	0.133312747	0.041088283
2019-10-28T09:40:00	0.2440	8.030	178.1	0.615460468	0.763061898	0.012767872	0.131723781	0.040598549
2019-10-28T09:45:00	0.2441	8.083	167.2	0.615795651	0.763557396	0.012780801	0.131857169	0.040639660
2019-10-28T09:50:00	0.2445	8.132	167.4	0.617127155	0.765526679	0.012832228	0.132387734	0.040803185
2019-10-28T09:55:00	0.2443	8.180	167.6	0.616465923	0.764548536	0.012806676	0.132124115	0.040721935
2019-10-28T10:00:00	0.2434	8.219	167.8	0.613478448	0.760133830	0.012691557	0.130936456	0.040355887
2019-10-28T10:05:00	0.2437	8.240	167.8	0.614284367	0.761324028	0.012722559	0.131256300	0.040454466
2019-10-28T10:10:00	0.2441	8.251	167.9	0.615754564	0.763496653	0.012779216	0.131840814	0.040634619
2019-10-28T10:15:00	0.2442	8.256	167.9	0.615895658	0.763705254	0.012784660	0.131896980	0.040651930
2019-10-28T10:20:00	0.2438	8.273	168.1	0.614707808	0.761949594	0.012738864	0.131424512	0.040506311
2019-10-28T10:25:00	0.2424	8.303	168.1	0.609861194	0.754798518	0.012552889	0.129505839	0.039914957
2019-10-28T10:30:00	0.2410	8.328	168.3	0.605341145	0.748147056	0.012380715	0.127729559	0.039367491
2019-10-28T10:35:00	0.2424	8.344	168.4	0.610143845	0.755215021	0.012563696	0.129617335	0.039949322
2019-10-28T10:40:00	0.2404	8.358	168.5	0.603291354	0.745136340	0.012303040	0.126928201	0.039120504
2019-10-28T10:45:00	0.2413	8.381	168.6	0.606431860	0.749750526	0.012422150	0.128157029	0.039499241
2019-10-28T10:50:00	0.2384	8.415	168.7	0.596567443	0.735285006	0.012050009	0.124317725	0.038315930
2019-10-28T10:55:00	0.2401	8.451	168.9	0.602382548	0.743802620	0.012268683	0.126573737	0.039011255
2019-10-28T11:00:00	0.2391	8.482	169.0	0.599188208	0.739120243	0.012148311	0.125331888	0.038628505
2019-10-28T11:05:00	0.2405	8.510	169.2	0.603665933	0.745686256	0.012317216	0.127074447	0.039165579
2019-10-28T11:10:00	0.2409	8.524	169.2	0.605140533	0.747852243	0.012373102	0.127651016	0.039343283
2019-10-28T11:15:00	0.2395	8.533	169.3	0.600280820	0.740720871	0.012189415	0.125755949	0.038759205
2019-10-28T11:20:00	0.2406	8.546	169.3	0.604090643	0.746309910	0.012333299	0.127240371	0.039216718
2019-10-28T11:25:00	0.2393	8.558	169.4	0.599563222	0.739669509	0.012162411	0.125477354	0.038673339
2019-10-28T11:30:00	0.2389	8.573	169.5	0.598369888	0.737922094	0.012117573	0.125014766	0.038530765
2019-10-28T11:35:00	0.2375	8.590	169.6	0.593835132	0.731292640	0.011947960	0.123264903	0.037991440
2019-10-28T11:40:00	0.2378	8.597	169.6	0.594645532	0.732476120	0.011978181	0.123576689	0.038087536
2019-10-28T11:45:00	0.2373	8.605	169.7	0.593116224	0.730243229	0.011921184	0.122988655	0.037906298
2019-10-28T11:50:00	0.2374	8.614	169.7	0.593258222	0.730450474	0.011926470	0.123043195	0.037923108
2019-10-28T11:55:00	0.2387	8.630	169.8	0.597743460	0.737005283	0.012094070	0.124772287	0.038456031
2019-10-28T12:00:00	0.2371	8.647	169.9	0.592204797	0.728913415	0.011887281	0.122638888	0.037798496
2019-10-28T12:05:00	0.2374	8.674	170.0	0.593349893	0.730584276	0.011929884	0.123078411	0.037933961
2019-10-28T12:10:00	0.2381	8.697	170.1	0.595831156	0.734208552	0.012022466	0.124033564	0.038228349
2019-10-28T12:15:00	0.2370	8.719	170.3	0.591962074	0.728559387	0.011878261	0.122545827	0.037769814
2019-10-28T12:20:00	0.2376	8.743	170.3	0.594110094	0.731694123	0.011958210	0.123370644	0.038024031
2019-10-28T12:25:00	0.2380	8.762	170.5	0.595254572	0.733365902	0.012000919	0.123811272	0.038159836
2019-10-28T12:30:00	0.2374	8.776	170.5	0.593391241	0.730644629	0.011931423	0.123094296	0.037938858
2019-10-28T12:35:00	0.2382	8.792	170.6	0.595872475	0.734268949	0.012024011	0.124049502	0.038233261
2019-10-28T12:40:00	0.2369	8.809	170.7	0.591668989	0.728131968	0.011867374	0.122433505	0.037735195
2019-10-28T12:45:00	0.2369	8.825	170.8	0.591811045	0.728339127	0.011872650	0.122487940	0.037751973
2019-10-28T12:50:00	0.2368	8.842	170.8	0.591284156	0.727570859	0.011853086	0.122286102	0.037689764
2019-10-28T12:55:00	0.2384	8.851	170.9	0.596773989	0.735587058	0.012057742	0.124397499	0.038340517
2019-10-28T13:00:00	0.2386	8.858	170.9	0.597249794	0.736283007	0.012075564	0.124581368	0.038397188
2019-10-28T13:05:00	0.2372	8.862	170.9	0.592713598	0.729655694	0.011906201	0.122834081	0.037858657
2019-10-28T13:10:00	0.2377	8.861	170.9	0.594192771	0.731814856	0.011961292	0.123402448	0.038033833
2019-10-28T13:15:00	0.2369	8.858	170.9	0.591660010	0.728118876	0.011867040	0.122430065	0.037734135
2019-10-28T13:20:00	0.2362	8.857	171.0	0.589460120	0.724912984	0.011785485	0.121588680	0.037474812
2019-10-28T13:25:00	0.2389	8.855	171.0	0.598292754	0.737809186	0.012114678	0.124984896	0.038521559
2019-10-28T13:30:00	0.2378	8.853	171.0	0.594760558	0.732644145	0.011982474	0.123620976	0.038101185
2019-10-28T13:35:00	0.2377	8.855	170.9	0.594234109	0.731875224	0.011962834	0.123418352	0.038038735
2019-10-28T13:40:00	0.2378	8.860	171.0	0.594710256	0.732570664	0.011980597	0.123601608	0.038095216
2019-10-28T13:45:00	0.2387	8.866	171.0	0.597858385	0.737173458	0.012098380	0.124816754	0.038469736
2019-10-28T13:50:00	0.2380	8.875	171.1	0.595328254	0.733473569	0.012003672	0.123839667	0.038168588
2019-10-28T13:55:00	0.2379	8.884	171.1	0.595136042	0.733192711	0.011996492	0.123765600	0.038145760
2019-10-28T14:00:00	0.2404	8.891	171.2	0.603287842	0.745131185	0.012302908	0.126926830	0.039120082
2019-10-28T14:05:00	0.2371	8.890	171.2	0.592411599	0.729215088	0.011894969	0.122718205	0.037822943
2019-10-28T14:10:00	0.2383	8.885	171.2	0.596229907	0.734791472	0.012037379	0.124187416	0.038275768
2019-10-28T14:15:00	0.2368	8.889	171.2	0.591357921	0.727678403	0.011855824	0.122314349	0.037698470
2019-10-28T14:20:00	0.2378	8.895	171.2	0.594843220	0.732764901	0.011985559	0.123652807	0.038110996
2019-10-28T14:25:00	0.2381	8.900	171.2	0.595653389	0.733948724	0.012015821	0.123965007	0.038207219
2019-10-28T14:30:00	0.2370	8.902	171.2	0.592118551	0.728787613	0.011884076	0.122605816	0.037788303
2019-10-28T14:35:00	0.2377	8.900	171.2	0.594266475	0.731922490	0.011964041	0.123430804	0.038042573
2019-10-28T14:40:00	0.2368	8.896	171.2	0.591399292	0.727738722	0.011857360	0.122330193	0.037703354
2019-10-28T14:45:00	0.2347	8.897	171.2	0.584175158	0.717227700	0.011590738	0.119579506	0.036855565
2019-10-28T14:50:00	0.2347	8.900	171.2	0.584317518	0.717434412	0.011595962	0.119633402	0.036872176
2019-10-28T14:55:00	0.2348	8.902	171.2	0.584795006	0.718127868	0.011613493	0.119814265	0.036927920
2019-10-28T15:00:00	0.2353	8.901	171.2	0.586277507	0.720282109	0.011668009	0.120376698	0.037101268
2019-10-28T15:05:00	0.2355	8.896	171.2	0.587089646	0.721463014	0.011697929	0.120685381	0.037196406
2019-10-28T15:10:00	0.2346	8.892	171.2	0.583881424	0.716801240	0.011579963	0.119468341	0.036821303
2019-10-28T15:15:00	0.2351	8.884	171.1	0.585699358	0.719441776	0.011646733	0.120157199	0.037033616
2019-10-28T15:20:00	0.2348	8.872	171.1	0.584501324	0.717701331	0.011602709	0.119703008	0.036893630
2019-10-28T15:25:00	0.2347	8.858	171.0	0.584308521	0.717421348	0.011595632	0.119629996	0.036871127
2019-10-28T15:30:00	0.2359	8.842	170.9	0.588470398	0.723471982	0.011748888	0.121211114	0.037358443
2019-10-28T15:35:00	0.2352	8.826	170.9	0.585933520	0.719782095	0.011655348	0.120246076	0.037061008
2019-10-28T15:40:00	0.2355	8.809	170.8	0.587080656	0.721449939	0.011697598	0.120681961	0.037195353
2019-10-28T15:45:00	0.2365	8.792	170.7	0.590235599	0.726042626	0.011814201	0.121884935	0.037566121
2019-10-28T15:50:00	0.2350	8.776	170.6	0.585355315	0.718941845	0.011634082	0.120026678	0.036993388
2019-10-28T15:55:00	0.2366	8.764	170.5	0.590519822	0.726456781	0.011824735	0.121993609	0.037599615
2019-10-28T16:00:00	0.2342	8.748	170.5	0.582623294	0.714975423	0.011533868	0.118992792	0.036674734
2019-10-28T16:05:00	0.2349	8.728	170.4	0.585112119	0.718588515	0.011625143	0.119934459	0.036964965
2019-10-28T16:10:00	0.2366	8.707	170.3	0.590611565	0.726590477	0.011828136	0.122028698	0.037610430
2019-10-28T16:15:00	0.2362	8.685	170.2	0.589415201	0.724847566	0.011783823	0.121571531	0.037469526
2019-10-28T16:20:00	0.2376	8.661	170.1	0.593905323	0.731395122	0.011950576	0.123291892	0.037999758
2019-10-28T16:25:00	0.2362	8.636	170.0	0.589364822	0.724774198	0.011781959	0.121552299	0.037463599
2019-10-28T16:30:00	0.2369	8.610	169.8	0.591514424	0.727906589	0.011861634	0.122374291	0.037716945
2019-10-28T16:35:00	0.2374	8.583	169.7	0.593328424	0.730552940	0.011929084	0.123070163	0.037931419
2019-10-28T16:40:00	0.2410	8.554	169.6	0.605484578	0.748357862	0.012386160	0.127785731	0.039384803
2019-10-28T16:45:00	0.2386	8.523	169.4	0.597287579	0.736338282	0.012076980	0.124595975	0.038401690
2019-10-28T16:50:00	0.2374	8.492	169.3	0.593420094	0.730686744	0.011932498	0.123105382	0.037942274
2019-10-28T16:55:00	0.2371	8.461	169.1	0.592224682	0.728942421	0.011888020	0.122646513	0.037800847
2019-10-28T17:00:00	0.2376	8.429	169.0	0.594038317	0.731589313	0.011955534	0.123343037	0.038015522
2019-10-28T17:05:00	0.2382	8.398	168.9	0.596185074	0.734725925	0.012035701	0.124170113	0.038270435
2019-10-28T17:10:00	0.2393	8.370	168.7	0.599665615	0.739819501	0.012166262	0.125517087	0.038685585
2019-10-28T17:15:00	0.2399	8.339	168.6	0.601808958	0.742961202	0.012247023	0.126350281	0.038942384
2019-10-28T17:20:00	0.2413	8.308	168.5	0.606283372	0.749532174	0.012416505	0.128098791	0.039481291
2019-10-28T17:25:00	0.2403	8.274	168.3	0.603092551	0.744844528	0.012295520	0.126850618	0.039096592
2019-10-28T17:30:00	0.2422	8.243	168.2	0.609229783	0.753868337	0.012528764	0.129256949	0.039838247
2019-10-28T17:35:00	0.2421	8.214	168.0	0.609038325	0.753586351	0.012521454	0.129181528	0.039815002
2019-10-28T17:40:00	0.2403	8.183	167.9	0.603183968	0.744978709	0.012298978	0.126886290	0.039107587
2019-10-28T17:45:00	0.2414	8.155	167.8	0.606657636	0.750082565	0.012430735	0.128245606	0.039526541
2019-10-28T17:50:00	0.2420	8.127	167.6	0.608796754	0.753230602	0.012512233	0.129086399	0.039785682
2019-10-28T17:55:00	0.2442	8.100	167.5	0.615920829	0.763742470	0.012785631	0.131907001	0.040655019
2019-10-28T18:00:00	0.2422	8.073	167.4	0.609412298	0.754137179	0.012535735	0.129328867	0.039860413
2019-10-28T18:05:00	0.2441	8.044	167.2	0.615538622	0.763177425	0.012770886	0.131754877	0.040608133
2019-10-28T18:10:00	0.2431	8.017	167.1	0.612356114	0.758477253	0.012648448	0.130491707	0.040218811
2019-10-28T18:15:00	0.2416	7.987	167.0	0.607506287	0.751331025	0.012463035	0.128578835	0.039629246
2019-10-28T18:20:00	0.2422	7.960	178.1	0.609312108	0.753989597	0.012531908	0.129289386	0.039848244
2019-10-28T18:25:00	0.2431	7.932	166.8	0.612447292	0.758611793	0.012651947	0.130527809	0.040229938
2019-10-28T18:30:00	0.2436	7.903	177.9	0.613918248	0.760783268	0.012708471	0.131110949	0.040409668
2019-10-28T18:35:00	0.2434	7.877	177.7	0.613394638	0.760010089	0.012688335	0.130903217	0.040345643
2019-10-28T18:40:00	0.2456	7.850	166.4	0.620509519	0.770535881	0.012963347	0.133740460	0.041220109
2019-10-28T18:45:00	0.2438	7.825	166.3	0.614674048	0.761899712	0.012737564	0.131411097	0.040502176
2019-10-28T18:50:00	0.2430	7.799	166.1	0.612155898	0.758181843	0.012640766	0.130412449	0.040194383
2019-10-28T18:55:00	0.2444	7.775	166.0	0.616617296	0.764772426	0.012812523	0.132184440	0.040740528
2019-10-28T19:00:00	0.2430	7.752	165.9	0.612105842	0.758107993	0.012638845	0.130392638	0.040188277
2019-10-28T19:05:00	0.2430	7.726	165.8	0.611914539	0.757825774	0.012631508	0.130316937	0.040164946
2019-10-28T19:10:00	0.2438	7.702	165.7	0.614715147	0.761960437	0.012739147	0.131427429	0.040507210
2019-10-28T19:15:00	0.2454	7.680	165.6	0.619837038	0.769539186	0.012937223	0.133470945	0.041137041
2019-10-28T19:20:00	0.2431	7.658	165.5	0.612338262	0.758450912	0.012647763	0.130484639	0.040216633
2019-10-28T19:25:00	0.2431	7.632	165.4	0.612479492	0.758659308	0.012653183	0.130540560	0.040233868
2019-10-28T19:30:00	0.2435	7.609	165.3	0.613618051	0.760339960	0.012696925	0.130991831	0.040372954
2019-10-28T19:35:00	0.2441	7.589	165.2	0.615752983	0.763494316	0.012779155	0.131840185	0.040634425
2019-10-28T19:40:00	0.2440	7.569	165.1	0.615229644	0.762720729	0.012758972	0.131631965	0.040570250
2019-10-28T19:45:00	0.2449	7.550	165.0	0.618359616	0.767350810	0.012879925	0.132879815	0.040954849
2019-10-28T19:50:00	0.2455	7.530	164.9	0.620159935	0.770017709	0.012949763	0.133600319	0.041176916
2019-10-28T19:55:00	0.2474	7.511	164.8	0.626599018	0.779578610	0.013201148	0.136193809	0.041976255
2019-10-28T20:00:00	0.2460	7.491	164.8	0.622100193	0.772894967	0.013025248	0.134379086	0.041416939
2019-10-28T20:05:00	0.2472	7.472	164.7	0.625886714	0.778519242	0.013173216	0.135905642	0.041887439
2019-10-28T20:10:00	0.2472	7.452	164.6	0.626027408	0.778728454	0.013178731	0.135962535	0.041904974
2019-10-28T20:15:00	0.2466	7.434	164.5	0.623848733	0.775490641	0.013093469	0.135082909	0.041633864
2019-10-28T20:20:00	0.2461	7.415	164.4	0.622331962	0.773238874	0.013034280	0.134472268	0.041445659
2019-10-28T20:25:00	0.2465	7.394	164.3	0.623798841	0.775416542	0.013091520	0.135062800	0.041627667
2019-10-28T20:30:00	0.2460	7.374	164.2	0.621950442	0.772672785	0.013019414	0.134318897	0.041398388
2019-10-28T20:35:00	0.2466	7.355	164.1	0.624080388	0.775834722	0.013102521	0.135176298	0.041662648
2019-10-28T20:40:00	0.2475	7.338	164.0	0.626871454	0.779983902	0.013211839	0.136304109	0.042010250
2019-10-28T20:45:00	0.2468	7.325	164.0	0.624693295	0.776745301	0.013126487	0.135423544	0.041738852
2019-10-28T20:50:00	0.2472	7.315	163.9	0.625827959	0.778431878	0.013170913	0.135881886	0.041880117
2019-10-28T20:55:00	0.2453	7.305	163.9	0.619669378	0.769290752	0.012930714	0.133403794	0.041116345
2019-10-28T21:00:00	0.2455	7.296	163.8	0.620473897	0.770483076	0.012961962	0.133726176	0.041215706
2019-10-28T21:05:00	0.2455	7.281	163.7	0.620283043	0.770200175	0.012954546	0.133649662	0.041192124
2019-10-28T21:10:00	0.2433	7.264	163.6	0.613117668	0.759601199	0.012677691	0.130793403	0.040311797
2019-10-28T21:15:00	0.2449	7.248	163.6	0.618241856	0.767176462	0.012875364	0.132832756	0.040940346
2019-10-28T21:20:00	0.2433	7.236	163.5	0.613067626	0.759527329	0.012675769	0.130773568	0.040305684
2019-10-28T21:25:00	0.2461	7.225	163.5	0.622173319	0.773003470	0.013028098	0.134408482	0.041426000
2019-10-28T21:30:00	0.2444	7.212	163.4	0.616672705	0.764854384	0.012814664	0.132206525	0.040747335
2019-10-28T21:35:00	0.2447	7.202	163.3	0.617809924	0.766537068	0.012858641	0.132660224	0.040887169
2019-10-28T21:40:00	0.2438	7.192	163.3	0.614629447	0.761833817	0.012735846	0.131393375	0.040496714
2019-10-28T21:45:00	0.2453	7.185	163.2	0.619751461	0.769412378	0.012933901	0.133436668	0.041126477
2019-10-28T21:50:00	0.2453	7.179	163.1	0.619560569	0.769129536	0.012926491	0.133360223	0.041102916
2019-10-28T21:55:00	0.2428	7.175	163.1	0.611396058	0.757061042	0.012611632	0.130111884	0.040101746
2019-10-28T22:00:00	0.2428	7.169	163.1	0.611204717	0.756778880	0.012604301	0.130036253	0.040078436
2019-10-28T22:05:00	0.2417	7.163	163.1	0.607641223	0.751529586	0.012468175	0.128631859	0.039645588
2019-10-28T22:10:00	0.2415	7.158	163.0	0.607072520	0.750692829	0.012446520	0.128408457	0.039576734
2019-10-28T22:15:00	0.2420	7.151	163.0	0.608834416	0.753286061	0.012513670	0.129101228	0.039790252
2019-10-28T22:20:00	0.2399	7.145	163.0	0.601601648	0.742657160	0.012239200	0.126269568	0.038917507
2019-10-28T22:25:00	0.2422	7.139	163.0	0.609361676	0.754062610	0.012533801	0.129308918	0.039854264
2019-10-28T22:30:00	0.2416	7.133	162.9	0.607461597	0.751265265	0.012461333	0.128561276	0.039623834
2019-10-28T22:35:00	0.2414	7.126	162.9	0.606559820	0.749938706	0.012427015	0.128207227	0.039514712
2019-10-28T22:40:00	0.2417	7.121	162.8	0.607656119	0.751551507	0.012468742	0.128637714	0.039647393
2019-10-28T22:45:00	0.2414	7.114	162.8	0.606754392	0.750224874	0.012434416	0.128283576	0.039538244
2019-10-28T22:50:00	0.2430	7.107	162.7	0.612176198	0.758211794	0.012641544	0.130420484	0.040196860
2019-10-28T22:55:00	0.2419	7.100	162.7	0.608280797	0.752470942	0.012492550	0.128883340	0.039723097
2019-10-28T23:00:00	0.2400	7.093	162.7	0.602047493	0.743311083	0.012256028	0.126443184	0.038971017
2019-10-28T23:05:00	0.2374	7.087	162.7	0.593463902	0.730750691	0.011934130	0.123122215	0.037947462
2019-10-28T23:10:00	0.2390	7.082	162.7	0.598572284	0.738218381	0.012125172	0.125093162	0.038554927
2019-10-28T23:15:00	0.2380	7.078	162.7	0.595330184	0.733476389	0.012003744	0.123840411	0.038168817
2019-10-28T23:20:00	0.2398	7.074	162.6	0.601436638	0.742415181	0.012232975	0.126205343	0.038897713
2019-10-28T23:25:00	0.2388	7.070	162.6	0.597863301	0.737180652	0.012098564	0.124818657	0.038470322
2019-10-28T23:30:00	0.2385	7.065	162.6	0.596959076	0.735857758	0.012064673	0.124469007	0.038362557
2019-10-28T23:35:00	0.2409	7.061	162.5	0.605062488	0.747737561	0.012370141	0.127620467	0.039333867
2019-10-28T23:40:00	0.2402	7.060	162.5	0.602826708	0.744454362	0.012285468	0.126746910	0.039064629
2019-10-28T23:45:00	0.2398	7.059	162.5	0.601256696	0.742151332	0.012226188	0.126135326	0.038876133
2019-10-28T23:50:00	0.2380	7.056	162.5	0.595345132	0.733498233	0.012004302	0.123846172	0.038170593
2019-10-28T23:55:00	0.2397	7.055	162.5	0.601118004	0.741947985	0.012220958	0.126081373	0.038859504
2019-10-29T00:00:00	0.2393	7.053	162.5	0.599547233	0.739646089	0.012161810	0.125471150	0.038671427
2019-10-29T00:05:00	0.2388	7.051	162.5	0.597975765	0.737345235	0.012102783	0.124862180	0.038483736
2019-10-29T00:10:00	0.2383	7.049	162.4	0.596403598	0.735045424	0.012043877	0.124254462	0.038296432
2019-10-29T00:15:00	0.2373	7.046	162.4	0.593159505	0.730306397	0.011922795	0.123005278	0.037911421
2019-10-29T00:20:00	0.2387	7.044	162.4	0.597600582	0.736796220	0.012088712	0.124717015	0.038438995
2019-10-29T00:25:00	0.2362	7.042	162.4	0.589340865	0.724739309	0.011781073	0.121543154	0.037460780
2019-10-29T00:30:00	0.2362	7.040	162.4	0.589438627	0.724881683	0.011784690	0.121580474	0.037472283
2019-10-29T00:35:00	0.2369	7.038	162.4	0.591543822	0.727949455	0.011862726	0.122385552	0.037720416
2019-10-29T00:40:00	0.2355	7.036	162.4	0.586955857	0.721268439	0.011692998	0.120634502	0.037180725
2019-10-29T00:45:00	0.2356	7.034	162.4	0.587388574	0.721897814	0.011708952	0.120799101	0.037231456
2019-10-29T00:50:00	0.2344	7.031	162.4	0.583465742	0.716197851	0.011564723	0.119311114	0.036772844
2019-10-29T00:55:00	0.2347	7.029	162.4	0.584234077	0.717313250	0.011592900	0.119601811	0.036862440
2019-10-29T01:00:00	0.2358	7.029	162.3	0.588016844	0.722811894	0.011732137	0.121038290	0.037305177
2019-10-29T01:05:00	0.2338	7.029	162.4	0.581412205	0.713219117	0.011489586	0.118535941	0.036533928
2019-10-29T01:10:00	0.2321	7.027	162.4	0.575467210	0.704615411	0.011273476	0.116306371	0.035846753
2019-10-29T01:15:00	0.2324	7.022	162.4	0.576573217	0.706213825	0.011313522	0.116719523	0.035974091
2019-10-29T01:20:00	0.2325	7.017	162.3	0.577007214	0.706841320	0.011329256	0.116881848	0.036024121
2019-10-29T01:25:00	0.2318	7.014	162.4	0.574417463	0.703099242	0.011235533	0.115914927	0.035726106
2019-10-29T01:30:00	0.2320	7.011	162.3	0.575187780	0.704211736	0.011263370	0.116202108	0.035814618
2019-10-29T01:35:00	0.2327	7.011	162.3	0.577637342	0.707752669	0.011352121	0.117117736	0.036096824
2019-10-29T01:40:00	0.2311	7.011	162.3	0.572358621	0.700128268	0.011161308	0.115149152	0.035490087
2019-10-29T01:45:00	0.2329	7.014	162.3	0.578169284	0.708522268	0.011371441	0.117317057	0.036158256
2019-10-29T01:50:00	0.2307	7.016	162.3	0.570873238	0.697986993	0.011107912	0.114598280	0.035320303
2019-10-29T01:55:00	0.2304	7.018	162.3	0.569962045	0.696674352	0.011075222	0.114261019	0.035216356
2019-10-29T02:00:00	0.2313	7.021	162.3	0.572751550	0.700695005	0.011175454	0.115295100	0.035535069
2019-10-29T02:05:00	0.2318	7.023	162.3	0.574530678	0.703262717	0.011239622	0.115957112	0.035739108
2019-10-29T02:10:00	0.2321	7.024	162.3	0.575636981	0.704860700	0.011279618	0.116369741	0.035866284
2019-10-29T02:15:00	0.2305	7.024	162.3	0.570355243	0.697240698	0.011089322	0.114406491	0.035261192
2019-10-29T02:20:00	0.2324	7.024	162.3	0.576505153	0.706115429	0.011311056	0.116694076	0.035966247
2019-10-29T02:25:00	0.2299	7.024	162.3	0.568195656	0.694131693	0.011011989	0.113608666	0.035015294
2019-10-29T02:30:00	0.2310	7.024	162.3	0.571995744	0.699604989	0.011148251	0.115014450	0.035448571
2019-10-29T02:35:00	0.2301	7.023	162.3	0.568729033	0.694899200	0.011031064	0.113805449	0.035075945
2019-10-29T02:40:00	0.2309	7.023	162.3	0.571519520	0.698918426	0.011131128	0.114837796	0.035394124
2019-10-29T02:45:00	0.2318	7.022	162.3	0.574643890	0.703426197	0.011243712	0.115999303	0.035752112
2019-10-29T02:50:00	0.2315	7.024	162.3	0.573733678	0.702112129	0.011210854	0.115660309	0.035647631
2019-10-29T02:55:00	0.2311	7.027	162.3	0.572150636	0.699828335	0.011153823	0.115071937	0.035466289
2019-10-29T03:00:00	0.2318	7.031	162.3	0.574602321	0.703366170	0.011242210	0.115983810	0.035747337
2019-10-29T03:05:00	0.2313	7.033	162.3	0.573019672	0.701081803	0.011185113	0.115394744	0.035565781
2019-10-29T03:10:00	0.2331	7.035	162.3	0.578829240	0.709477401	0.011395433	0.117564586	0.036234547
2019-10-29T03:15:00	0.2324	7.038	162.3	0.576576755	0.706218940	0.011313650	0.116720846	0.035974498
2019-10-29T03:20:00	0.2304	7.039	162.3	0.569950534	0.696657773	0.011074809	0.114256761	0.035215043
2019-10-29T03:25:00	0.2303	7.040	162.3	0.569375711	0.695830058	0.011054212	0.114044266	0.035149550
2019-10-29T03:30:00	0.2313	7.041	162.3	0.572838273	0.700820107	0.011178578	0.115327324	0.035545001
2019-10-29T03:35:00	0.2310	7.040	162.2	0.571927591	0.699506722	0.011145800	0.114989161	0.035440776
2019-10-29T03:40:00	0.2309	7.037	162.2	0.571689483	0.699163436	0.011137238	0.114900827	0.035413551
2019-10-29T03:45:00	0.2321	7.035	162.2	0.575485782	0.704642243	0.011274148	0.116313302	0.035848889
2019-10-29T03:50:00	0.2306	7.033	162.1	0.570540315	0.697507313	0.011095962	0.114474996	0.035282305
2019-10-29T03:55:00	0.2316	7.032	162.1	0.574001725	0.702499036	0.011220525	0.115760087	0.035678383
2019-10-29T04:00:00	0.2338	7.033	162.1	0.581151790	0.712841625	0.011480076	0.118437823	0.036503687
2019-10-29T04:05:00	0.2324	7.033	162.1	0.576701923	0.706399898	0.011318187	0.116767650	0.035988924
2019-10-29T04:10:00	0.2306	7.032	162.1	0.570564401	0.697542013	0.011096826	0.114483913	0.035285054
2019-10-29T04:15:00	0.2317	7.029	162.1	0.574177582	0.702752906	0.011226872	0.115825571	0.035698566
2019-10-29T04:20:00	0.2298	7.026	162.1	0.567698890	0.693417080	0.010994240	0.113425546	0.034958855
2019-10-29T04:25:00	0.2307	7.024	162.1	0.570978604	0.698138824	0.011111695	0.114637311	0.035332333
2019-10-29T04:30:00	0.2273	7.022	162.0	0.559434322	0.681558115	0.010701080	0.110401069	0.034026682
2019-10-29T04:35:00	0.2286	7.020	162.1	0.563733368	0.687719857	0.010853072	0.111969147	0.034509979
2019-10-29T04:40:00	0.2293	7.020	162.1	0.566006190	0.690983608	0.010933868	0.112802704	0.034766889
2019-10-29T04:45:00	0.2278	7.020	162.1	0.561199645	0.684086477	0.010763361	0.111043611	0.034224719
2019-10-29T04:50:00	0.2270	7.019	162.1	0.558412981	0.680096484	0.010665131	0.110030186	0.033912372
2019-10-29T04:55:00	0.2262	7.017	162.0	0.555624085	0.676109697	0.010567279	0.109020671	0.033601230
2019-10-29T05:00:00	0.2266	7.015	162.0	0.556888939	0.677917041	0.010611601	0.109477933	0.033742162
2019-10-29T05:05:00	0.2259	7.012	162.1	0.554774902	0.674897041	0.010537576	0.108714225	0.033506780
2019-10-29T05:10:00	0.2251	7.006	162.1	0.551983087	0.670914434	0.010440219	0.107709819	0.033197212
2019-10-29T05:15:00	0.2263	7.001	162.0	0.555953459	0.676580211	0.010578812	0.109139651	0.033637900
2019-10-29T05:20:00	0.2240	6.996	162.0	0.548425067	0.665848084	0.010316808	0.106436601	0.032804794
2019-10-29T05:25:00	0.2245	6.991	162.0	0.550031028	0.668133565	0.010372419	0.107010336	0.032981625
2019-10-29T05:30:00	0.2291	6.990	161.9	0.565479496	0.690226901	0.010915118	0.112609259	0.034707267
2019-10-29T05:35:00	0.2286	6.989	161.9	0.563707822	0.687683197	0.010852166	0.111959796	0.034507097
2019-10-29T05:40:00	0.2300	6.987	161.9	0.568675001	0.694821440	0.011029131	0.113785507	0.035069798
2019-10-29T05:45:00	0.2309	6.988	161.7	0.571617437	0.699059576	0.011134648	0.114874107	0.035405315
2019-10-29T05:50:00	0.2305	6.989	161.9	0.570185406	0.696996056	0.011083230	0.114343645	0.035241822
2019-10-29T05:55:00	0.2306	6.990	161.9	0.570435660	0.697356544	0.011092207	0.114436255	0.035270365
2019-10-29T06:00:00	0.2280	6.992	161.9	0.561926728	0.685128579	0.010789066	0.111308806	0.034306455
2019-10-29T06:05:00	0.2276	6.991	161.8	0.560490718	0.683070817	0.010738328	0.110785348	0.034145120
2019-10-29T06:10:00	0.2300	6.991	161.8	0.568493910	0.694560840	0.011022653	0.113718682	0.035049202
2019-10-29T06:15:00	0.2299	6.992	161.8	0.568070908	0.693952221	0.011007531	0.113562667	0.035001117
2019-10-29T06:20:00	0.2292	6.995	161.9	0.565963641	0.690922469	0.010932353	0.112787070	0.034762070
2019-10-29T06:25:00	0.2292	6.999	161.9	0.565877281	0.690798382	0.010929278	0.112755343	0.034752292
2019-10-29T06:30:00	0.2302	7.006	161.9	0.569158704	0.695517649	0.011046441	0.113964097	0.035124842
2019-10-29T06:35:00	0.2311	7.013	162.0	0.572100733	0.699756375	0.011152028	0.115053415	0.035460580
2019-10-29T06:40:00	0.2298	7.020	162.0	0.567976096	0.693815824	0.011004143	0.113527712	0.034990343
2019-10-29T06:45:00	0.2310	7.026	162.0	0.571928315	0.699507766	0.011145826	0.114989429	0.035440859
2019-10-29T06:50:00	0.2305	7.034	162.1	0.570159907	0.696959328	0.011082316	0.114334211	0.035238914
2019-10-29T06:55:00	0.2323	7.043	162.0	0.576125925	0.705567271	0.011297318	0.116552346	0.035922565
2019-10-29T07:00:00	0.2301	7.054	162.1	0.568977638	0.695257012	0.011039960	0.113897228	0.035104232
2019-10-29T07:05:00	0.2318	7.068	162.1	0.574609592	0.703376669	0.011242473	0.115986520	0.035748172
2019-10-29T07:10:00	0.2308	7.082	162.2	0.571160824	0.698401424	0.011118240	0.114704829	0.035353142
2019-10-29T07:15:00	0.2322	7.093	162.2	0.575781475	0.705069488	0.011284847	0.116423690	0.035882912
2019-10-29T07:20:00	0.2318	7.107	162.3	0.574687248	0.703488810	0.011245278	0.116015463	0.035757093
2019-10-29T07:25:00	0.2328	7.122	162.3	0.577960427	0.708220070	0.011363853	0.117238776	0.036134130
2019-10-29T07:30:00	0.2299	7.137	162.4	0.568123195	0.694027444	0.011009400	0.113581946	0.035007059
2019-10-29T07:35:00	0.2311	7.152	162.4	0.572075248	0.699719627	0.011151111	0.115043956	0.035457664
2019-10-29T07:40:00	0.2316	7.166	162.5	0.574006523	0.702505961	0.011220698	0.115761873	0.035678933
2019-10-29T07:45:00	0.2303	7.182	162.6	0.569547569	0.696077496	0.011060368	0.114107776	0.035169125
2019-10-29T07:50:00	0.2304	7.198	162.6	0.569797869	0.696437918	0.011069337	0.114200306	0.035197643
2019-10-29T07:55:00	0.2316	7.214	162.7	0.573748032	0.702132847	0.011211371	0.115665652	0.035649277
2019-10-29T08:00:00	0.2299	7.230	162.8	0.568278793	0.694251308	0.011014961	0.113639327	0.035024744
2019-10-29T08:05:00	0.2309	7.249	162.9	0.571557964	0.698973842	0.011132510	0.114852051	0.035398518
2019-10-29T08:10:00	0.2302	7.267	163.0	0.569116193	0.695456454	0.011044919	0.113948396	0.035120002
2019-10-29T08:15:00	0.2298	7.282	163.0	0.567683137	0.693394422	0.010993677	0.113419741	0.034957066
2019-10-29T08:20:00	0.2314	7.300	163.1	0.573317173	0.701511052	0.011195834	0.115505358	0.035599873
2019-10-29T08:25:00	0.2306	7.321	163.2	0.570540163	0.697507093	0.011095957	0.114474939	0.035282288
2019-10-29T08:30:00	0.2310	7.344	163.3	0.571799624	0.699322223	0.011141198	0.114941683	0.035426143
2019-10-29T08:35:00	0.2300	7.365	163.4	0.568684763	0.694835489	0.011029480	0.113789109	0.035070909
2019-10-29T08:40:00	0.2311	7.385	163.5	0.572299884	0.700043560	0.011159194	0.115127343	0.035483365
2019-10-29T08:45:00	0.2307	7.406	163.6	0.570868132	0.697979635	0.011107729	0.114596388	0.035319720
2019-10-29T08:50:00	0.2312	7.424	163.6	0.572463790	0.700279945	0.011165093	0.115188206	0.035502124
2019-10-29T08:55:00	0.2297	7.439	163.7	0.567666126	0.693369954	0.010993070	0.113413473	0.034955134
2019-10-29T09:00:00	0.2301	7.453	163.8	0.568926622	0.695183582	0.011038134	0.113878391	0.035098426
2019-10-29T09:05:00	0.2302	7.471	163.9	0.569176966	0.695543939	0.011047095	0.113970843	0.035126921
2019-10-29T09:10:00	0.2320	7.494	163.9	0.575144657	0.704149445	0.011261810	0.116186021	0.035809660
2019-10-29T09:15:00	0.2303	7.518	164.0	0.569677601	0.696264730	0.011065027	0.114155841	0.035183939
2019-10-29T09:20:00	0.2308	7.537	164.1	0.571273802	0.698564251	0.011122298	0.114746701	0.035366048
2019-10-29T09:25:00	0.2300	7.556	164.2	0.568495169	0.694562650	0.011022698	0.113719146	0.035049345
2019-10-29T09:30:00	0.2320	7.578	164.3	0.575136170	0.704137185	0.011261503	0.116182855	0.035808684
2019-10-29T09:35:00	0.2314	7.595	164.4	0.573369382	0.701586389	0.011197716	0.115524775	0.035605858
2019-10-29T09:40:00	0.2307	7.612	164.4	0.570928875	0.698067164	0.011109910	0.114618889	0.035326655
2019-10-29T09:45:00	0.2297	7.630	164.5	0.567476476	0.693097196	0.010986298	0.113343607	0.034933600
2019-10-29T09:50:00	0.2301	7.653	164.6	0.568737041	0.694910725	0.011031350	0.113808405	0.035076856
2019-10-29T09:55:00	0.2301	7.672	164.7	0.568987399	0.695271062	0.011040309	0.113900832	0.035105343
2019-10-29T10:00:00	0.2296	7.692	164.8	0.567217503	0.692724784	0.010977054	0.113248238	0.034904207
2019-10-29T10:05:00	0.2320	7.711	164.9	0.575398630	0.704516331	0.011270995	0.116280777	0.035838865
2019-10-29T10:10:00	0.2306	7.726	165.0	0.570462072	0.697394593	0.011093155	0.114446032	0.035273378
2019-10-29T10:15:00	0.2312	7.739	165.1	0.572587695	0.700458656	0.011169554	0.115234227	0.035516308
2019-10-29T10:20:00	0.2308	7.754	165.1	0.571349588	0.698673483	0.011125021	0.114774793	0.035374706
2019-10-29T10:25:00	0.2289	7.766	165.2	0.564722498	0.689139715	0.010888197	0.112331524	0.034621667
2019-10-29T10:30:00	0.2280	7.784	165.2	0.561795376	0.684940285	0.010784420	0.111260873	0.034291682
2019-10-29T10:35:00	0.2275	7.807	165.4	0.560215975	0.682677312	0.010728634	0.110685341	0.034114297
2019-10-29T10:40:00	0.2273	7.832	165.5	0.559311058	0.681381668	0.010696738	0.110356274	0.034012875
2019-10-29T10:45:00	0.2273	7.848	165.6	0.559418723	0.681535785	0.010700530	0.110395399	0.034024934
2019-10-29T10:50:00	0.2256	7.860	165.6	0.553783364	0.673481850	0.010502946	0.108356960	0.033396667
2019-10-29T10:55:00	0.2259	7.881	165.7	0.554567321	0.674600701	0.010530321	0.108639381	0.033483712
2019-10-29T11:00:00	0.2254	7.906	165.8	0.552984637	0.672342439	0.010475093	0.108069601	0.033308101
2019-10-29T11:05:00	0.2264	7.930	165.9	0.556472563	0.677321938	0.010597001	0.109327301	0.033695736
2019-10-29T11:10:00	0.2270	7.950	165.9	0.558269066	0.679890599	0.010660070	0.109977976	0.033896280
2019-10-29T11:15:00	0.2255	7.974	166.1	0.553308210	0.672803963	0.010486372	0.108185966	0.033343966
2019-10-29T11:20:00	0.2247	8.010	166.3	0.550709893	0.669100309	0.010395973	0.107253332	0.033056519
2019-10-29T11:25:00	0.2247	8.039	166.4	0.550479416	0.668772053	0.010387973	0.107170803	0.033031082
2019-10-29T11:30:00	0.2246	8.058	166.4	0.550248923	0.668443819	0.010379976	0.107088300	0.033005654
2019-10-29T11:35:00	0.2236	8.071	166.6	0.546970847	0.663780376	0.010266581	0.105918423	0.032645087
2019-10-29T11:40:00	0.2247	8.084	177.9	0.550464812	0.668751255	0.010387466	0.107165575	0.033029471
2019-10-29T11:45:00	0.2237	8.097	166.7	0.547186940	0.664087521	0.010274037	0.105995342	0.032668794
2019-10-29T11:50:00	0.2251	8.107	166.8	0.552034045	0.670987070	0.010441992	0.107728109	0.033202850
2019-10-29T11:55:00	0.2232	8.115	178.0	0.545708979	0.661987569	0.010223098	0.105469822	0.032506823
2019-10-29T12:00:00	0.2239	8.122	166.8	0.547849751	0.665029854	0.010296922	0.106231448	0.032741564
2019-10-29T12:05:00	0.2222	8.125	166.8	0.542195579	0.657002754	0.010102522	0.104225859	0.032123422
2019-10-29T12:10:00	0.2248	8.131	166.8	0.551112396	0.669673676	0.010409950	0.107397538	0.033100964
2019-10-29T12:15:00	0.2231	8.133	166.9	0.545124613	0.661157769	0.010202993	0.105262403	0.032442895
2019-10-29T12:20:00	0.2226	8.132	166.8	0.543537618	0.658905647	0.010148494	0.104700144	0.032269601
2019-10-29T12:25:00	0.2229	8.132	166.9	0.544662901	0.660502336	0.010187123	0.105098665	0.032392429
2019-10-29T12:30:00	0.2210	8.129	166.8	0.537984729	0.651041695	0.009958962	0.102744775	0.031666938
2019-10-29T12:35:00	0.2217	8.127	166.8	0.540469698	0.654557772	0.010043556	0.103617521	0.031935926
2019-10-29T12:40:00	0.2214	8.124	166.8	0.539559620	0.653269483	0.010012533	0.103297460	0.031837280
2019-10-29T12:45:00	0.2214	8.128	166.8	0.539328401	0.652942280	0.010004659	0.103216223	0.031812242
2019-10-29T12:50:00	0.2193	8.132	166.8	0.532299720	0.643016718	0.009766787	0.100762144	0.031055872
2019-10-29T12:55:00	0.2187	8.132	178.1	0.530366446	0.640293703	0.009701865	0.100092354	0.030849436
2019-10-29T13:00:00	0.2170	8.130	178.0	0.524342595	0.631828614	0.009500972	0.098019774	0.030210646
2019-10-29T13:05:00	0.2187	8.129	178.0	0.530243185	0.640120193	0.009697733	0.100049726	0.030836297
2019-10-29T13:10:00	0.2196	8.119	178.0	0.533413989	0.644587547	0.009804305	0.101149209	0.031175169
2019-10-29T13:15:00	0.2199	8.110	166.7	0.534202567	0.645699848	0.009830901	0.101423589	0.031259735
2019-10-29T13:20:00	0.2209	8.103	166.7	0.537709430	0.650652475	0.009949612	0.102648317	0.031637208
2019-10-29T13:25:00	0.2220	8.094	166.6	0.541552053	0.656090814	0.010080515	0.103998819	0.032053446
2019-10-29T13:30:00	0.2204	8.092	177.8	0.535887580	0.648078284	0.009887851	0.102011134	0.031440822
2019-10-29T13:35:00	0.2204	8.094	166.6	0.535995974	0.648231365	0.009891520	0.102048989	0.031452489
2019-10-29T13:40:00	0.2211	8.089	166.6	0.538482373	0.651745427	0.009975874	0.102919255	0.031720714
2019-10-29T13:45:00	0.2203	8.088	166.6	0.535872914	0.648057573	0.009887354	0.102006013	0.031439244
2019-10-29T13:50:00	0.2220	8.078	166.6	0.541414548	0.655895999	0.010075816	0.103950339	0.032038504
2019-10-29T13:55:00	0.2224	8.062	166.5	0.542879705	0.657972601	0.010125944	0.104467498	0.032197897
2019-10-29T14:00:00	0.2202	8.045	166.4	0.535518375	0.647556945	0.009875358	0.101882250	0.031401099
2019-10-29T14:05:00	0.2205	8.030	166.4	0.536306473	0.648669921	0.009902034	0.102157463	0.031485922
2019-10-29T14:10:00	0.2200	8.018	166.3	0.534715427	0.646423517	0.009848217	0.101602237	0.031314796
2019-10-29T14:15:00	0.2199	8.010	166.3	0.534483883	0.646096772	0.009840397	0.101521562	0.031289931
2019-10-29T14:20:00	0.2210	8.005	166.2	0.537990461	0.651049800	0.009959157	0.102746784	0.031667557
2019-10-29T14:25:00	0.2208	8.000	166.2	0.537419450	0.650242565	0.009939769	0.102546764	0.031605909
2019-10-29T14:30:00	0.2187	7.992	166.2	0.530386880	0.640322468	0.009702550	0.100099422	0.030851614
2019-10-29T14:35:00	0.2200	7.987	166.2	0.534577650	0.646229087	0.009843563	0.101554229	0.031300000
2019-10-29T14:40:00	0.2200	7.988	166.1	0.534686085	0.646382109	0.009847226	0.101592012	0.031311645
2019-10-29T14:45:00	0.2202	7.986	166.2	0.535474373	0.647494818	0.009873870	0.101866895	0.031396366
2019-10-29T14:50:00	0.2179	7.981	166.2	0.527415918	0.636143752	0.009603202	0.099074465	0.030535712
2019-10-29T14:55:00	0.2178	7.978	166.2	0.527183884	0.635817694	0.009595464	0.098994638	0.030511109
2019-10-29T15:00:00	0.2184	7.975	166.2	0.529336154	0.638843781	0.009667355	0.099736324	0.030739704
2019-10-29T15:05:00	0.2179	7.972	166.2	0.527401217	0.636123092	0.009602712	0.099069406	0.030534153
2019-10-29T15:10:00	0.2185	7.961	166.1	0.529553351	0.639149369	0.009674625	0.099811326	0.030762820
2019-10-29T15:15:00	0.2169	7.948	166.1	0.524210158	0.631642836	0.009496579	0.097974452	0.030196678
2019-10-29T15:20:00	0.2175	7.937	166.0	0.526023477	0.634187726	0.009556816	0.098595909	0.030388217
2019-10-29T15:25:00	0.2185	7.924	166.0	0.529538658	0.639128696	0.009674133	0.099806251	0.030761256
2019-10-29T15:30:00	0.2199	7.911	165.9	0.534410523	0.645993259	0.009837920	0.101496009	0.031282056
2019-10-29T15:35:00	0.2203	7.897	165.8	0.535878650	0.648065673	0.009887549	0.102008016	0.031439861
2019-10-29T15:40:00	0.2202	7.882	165.7	0.535307290	0.647258929	0.009868219	0.101808601	0.031378399
2019-10-29T15:45:00	0.2204	7.863	165.7	0.536095435	0.648371838	0.009894887	0.102083729	0.031463197
2019-10-29T15:50:00	0.2204	7.843	165.6	0.536203823	0.648524927	0.009898558	0.102121595	0.031474867
2019-10-29T15:55:00	0.2222	7.822	165.5	0.542084190	0.656844880	0.010098711	0.104186542	0.032111304
2019-10-29T16:00:00	0.2233	7.802	165.4	0.545921964	0.662290077	0.010230431	0.105545472	0.032530139
2019-10-29T16:05:00	0.2210	7.780	165.3	0.538077170	0.651172403	0.009962102	0.102777175	0.031676923
2019-10-29T16:10:00	0.2218	7.756	165.2	0.540751236	0.654956447	0.010053163	0.103716634	0.031966474
2019-10-29T16:15:00	0.2236	7.734	165.1	0.546812722	0.663555646	0.010261127	0.105862156	0.032627745
2019-10-29T16:20:00	0.2244	7.716	165.0	0.549480057	0.667349227	0.010353323	0.106813324	0.032920904
2019-10-29T16:25:00	0.2257	7.701	165.0	0.554174331	0.674039768	0.010516594	0.108497759	0.033440063
2019-10-29T16:30:00	0.2265	7.690	164.9	0.556836024	0.677841405	0.010609745	0.109458785	0.033736260
2019-10-29T16:35:00	0.2259	7.680	164.9	0.554766786	0.674885454	0.010537292	0.108711298	0.033505878
2019-10-29T16:40:00	0.2259	7.670	164.9	0.554724979	0.674825769	0.010535831	0.108696223	0.033501231
2019-10-29T16:45:00	0.2262	7.657	164.8	0.555697073	0.676213954	0.010569834	0.109047031	0.033609354
2019-10-29T16:50:00	0.2256	7.643	164.7	0.553627157	0.673258974	0.010497496	0.108300731	0.033379337
2019-10-29T16:55:00	0.2282	7.626	164.7	0.562365450	0.685757593	0.010804592	0.111468979	0.034355822
2019-10-29T17:00:00	0.2278	7.608	164.6	0.560974371	0.683763688	0.010755403	0.110961510	0.034199415
2019-10-29T17:05:00	0.2283	7.589	164.5	0.562956513	0.686605278	0.010825526	0.111684957	0.034422388
2019-10-29T17:10:00	0.2311	7.568	164.4	0.572344185	0.700107448	0.011160788	0.115143792	0.035488435
2019-10-29T17:15:00	0.2307	7.549	164.3	0.570957074	0.698107799	0.011110922	0.114629335	0.035329874
2019-10-29T17:20:00	0.2315	7.535	164.2	0.573606005	0.701927864	0.011206249	0.115612800	0.035632988
2019-10-29T17:25:00	0.2328	7.524	164.2	0.577932208	0.708179243	0.011362828	0.117228202	0.036130870
2019-10-29T17:30:00	0.2327	7.513	164.1	0.577554884	0.707633391	0.011349127	0.117086854	0.036087305
2019-10-29T17:35:00	0.2326	7.503	164.1	0.577177519	0.707087598	0.011335433	0.116945578	0.036043763
2019-10-29T17:40:00	0.2337	7.492	164.0	0.580828391	0.712372913	0.011468271	0.118316033	0.036466151
2019-10-29T17:45:00	0.2324	7.480	164.0	0.576758570	0.706481799	0.011320241	0.116788835	0.035995453
2019-10-29T17:50:00	0.2320	7.468	164.0	0.575373207	0.704479603	0.011270075	0.116271290	0.035835941
2019-10-29T17:55:00	0.2314	7.455	163.9	0.573314926	0.701507810	0.011195753	0.115504522	0.035599616
2019-10-29T18:00:00	0.2323	7.442	163.8	0.576298023	0.705816016	0.011303551	0.116616653	0.035942385
2019-10-29T18:05:00	0.2332	7.430	163.8	0.579278583	0.710127927	0.011411784	0.117733273	0.036286538
2019-10-29T18:10:00	0.2335	7.420	163.7	0.580243873	0.711525970	0.011446950	0.118096070	0.036398356
2019-10-29T18:15:00	0.2333	7.414	163.7	0.579531192	0.710493709	0.011420981	0.117828159	0.036315783
2019-10-29T18:20:00	0.2319	7.407	163.7	0.574787779	0.703633991	0.011248911	0.116052938	0.035768643
2019-10-29T18:25:00	0.2315	7.400	163.6	0.573401636	0.701632932	0.011198879	0.115536772	0.035609555
2019-10-29T18:30:00	0.2324	7.392	163.5	0.576720564	0.706426850	0.011318863	0.116774621	0.035991072
2019-10-29T18:35:00	0.2325	7.384	163.5	0.577014898	0.706852432	0.011329535	0.116884723	0.036025007
2019-10-29T18:40:00	0.2321	7.376	163.4	0.575629636	0.704850088	0.011279352	0.116366999	0.035865439
2019-10-29T18:45:00	0.2316	7.366	163.4	0.573907683	0.702363286	0.011217131	0.115725075	0.035667592
2019-10-29T18:50:00	0.2329	7.355	163.4	0.578233513	0.708615209	0.011373775	0.117341136	0.036165678
2019-10-29T18:55:00	0.2301	7.343	163.3	0.568778374	0.694970212	0.011032829	0.113823662	0.035081558
2019-10-29T19:00:00	0.2330	7.332	163.3	0.578486197	0.708980881	0.011382959	0.117435888	0.036194881
2019-10-29T19:05:00	0.2327	7.319	163.2	0.577437354	0.707463391	0.011344861	0.117042844	0.036073741
2019-10-29T19:10:00	0.2327	7.305	163.1	0.577731627	0.707889061	0.011355544	0.117153052	0.036107709
2019-10-29T19:15:00	0.2320	7.297	163.1	0.575338725	0.704429789	0.011268828	0.116258424	0.035831975
2019-10-29T19:20:00	0.2339	7.289	163.0	0.581675867	0.713601373	0.011499219	0.118635324	0.036564559
2019-10-29T19:25:00	0.2323	7.284	163.1	0.576263551	0.705766189	0.011302302	0.116603771	0.035938415
2019-10-29T19:30:00	0.2327	7.278	163.0	0.577565495	0.707648741	0.011349512	0.117090828	0.036088530
2019-10-29T19:35:00	0.2347	7.272	163.0	0.584233811	0.717312865	0.011592890	0.119601710	0.036862409
2019-10-29T19:40:00	0.2346	7.267	163.6	0.583857163	0.716766020	0.011579073	0.119459162	0.036818474
2019-10-29T19:45:00	0.2340	7.262	163.0	0.581803854	0.713786949	0.011503897	0.118683582	0.036579433
2019-10-29T19:50:00	0.2344	7.258	162.9	0.583439011	0.716159054	0.011563743	0.119301007	0.036769729
2019-10-29T19:55:00	0.2329	7.255	162.9	0.578365162	0.708805718	0.011378559	0.117390497	0.036180891
2019-10-29T20:00:00	0.2346	7.250	162.9	0.584026529	0.717011902	0.011585285	0.119523250	0.036838226
2019-10-29T20:05:00	0.2346	7.247	162.8	0.583985071	0.716951712	0.011583764	0.119507561	0.036833391
2019-10-29T20:10:00	0.2355	7.245	162.8	0.586959120	0.721273183	0.011693118	0.120635742	0.037181107
2019-10-29T20:15:00	0.2360	7.243	162.8	0.588591882	0.723648814	0.011753377	0.121257426	0.037372716
2019-10-29T20:20:00	0.2353	7.241	162.8	0.586206367	0.720178693	0.011665390	0.120349679	0.037092940
2019-10-29T20:25:00	0.2338	7.238	162.8	0.581136516	0.712819486	0.011479518	0.118432070	0.036501914
2019-10-29T20:30:00	0.2343	7.235	162.7	0.583107278	0.715677633	0.011551589	0.119175614	0.036731082
2019-10-29T20:35:00	0.2324	7.230	162.7	0.576689635	0.706382132	0.011317742	0.116763055	0.035987507
2019-10-29T20:40:00	0.2336	7.227	162.7	0.580676542	0.712152862	0.011462730	0.118258870	0.036448532
2019-10-29T20:45:00	0.2337	7.222	162.7	0.580970545	0.712578929	0.011473459	0.118369559	0.036482648
2019-10-29T20:50:00	0.2331	7.219	162.7	0.578915547	0.709602337	0.011398573	0.117596977	0.036244530
2019-10-29T20:55:00	0.2313	7.213	162.6	0.572826504	0.700803130	0.011178154	0.115322951	0.035543654
2019-10-29T21:00:00	0.2321	7.210	162.6	0.575474022	0.704625253	0.011273722	0.116308913	0.035847537
2019-10-29T21:05:00	0.2326	7.206	162.6	0.577112129	0.706993035	0.011333061	0.116921106	0.036036220
2019-10-29T21:10:00	0.2332	7.202	162.6	0.579420799	0.710333852	0.011416962	0.117786688	0.036303001
2019-10-29T21:15:00	0.2347	7.194	162.6	0.584410219	0.717569027	0.011599364	0.119668505	0.036882995
2019-10-29T21:20:00	0.2333	7.183	162.5	0.579673398	0.710699649	0.011426161	0.117881592	0.036332252
2019-10-29T21:25:00	0.2332	7.169	162.5	0.579296261	0.710153523	0.011412428	0.117739912	0.036288584
2019-10-29T21:30:00	0.2331	7.156	162.4	0.578919083	0.709607455	0.011398702	0.117598304	0.036244939
2019-10-29T21:35:00	0.2333	7.145	162.3	0.579548868	0.710519307	0.011421625	0.117834800	0.036317830
2019-10-29T21:40:00	0.2326	7.132	162.2	0.577157206	0.707058222	0.011334697	0.116937975	0.036041420
2019-10-29T21:45:00	0.2326	7.118	162.2	0.577115667	0.706998151	0.011333190	0.116922430	0.036036628
2019-10-29T21:50:00	0.2317	7.102	162.1	0.574386246	0.703054169	0.011234406	0.115903296	0.035722522
2019-10-29T21:55:00	0.2321	7.086	162.0	0.575688888	0.704935702	0.011281496	0.116389120	0.035872257
2019-10-29T22:00:00	0.2332	7.073	162.0	0.579341309	0.710218751	0.011414068	0.117756831	0.036293799
2019-10-29T22:05:00	0.2315	7.059	161.9	0.573728994	0.702105369	0.011210685	0.115658566	0.035647093
2019-10-29T22:10:00	0.2330	7.044	161.8	0.578530382	0.709044828	0.011384565	0.117452461	0.036199989
2019-10-29T22:15:00	0.2335	7.032	161.8	0.580306582	0.711616819	0.011449236	0.118119658	0.036405626
2019-10-29T22:20:00	0.2327	7.020	161.7	0.577719267	0.707871180	0.011355095	0.117148422	0.036106281
2019-10-29T22:25:00	0.2330	7.013	161.7	0.578488859	0.708984733	0.011383056	0.117436886	0.036195189
2019-10-29T22:30:00	0.2326	7.008	161.7	0.577243820	0.707183483	0.011337839	0.116970393	0.036051411
2019-10-29T22:35:00	0.2344	7.003	161.7	0.583381674	0.716075838	0.011561642	0.119279329	0.036763048
2019-10-29T22:40:00	0.2324	6.998	161.6	0.576432408	0.706010270	0.011308420	0.116666882	0.035957866
2019-10-29T22:45:00	0.2337	6.994	161.6	0.580894624	0.712468899	0.011470688	0.118340971	0.036473837
2019-10-29T22:50:00	0.2323	6.991	161.6	0.576292734	0.705808372	0.011303360	0.116614677	0.035941776
2019-10-29T22:55:00	0.2321	6.987	161.5	0.575718952	0.704979142	0.011282584	0.116400344	0.035875717
2019-10-29T23:00:00	0.2323	6.986	161.5	0.576153055	0.705606482	0.011298300	0.116562482	0.035925689
2019-10-29T23:05:00	0.2330	6.983	161.5	0.578601943	0.709148400	0.011387167	0.117479304	0.036208262
2019-10-29T23:10:00	0.2307	6.981	161.5	0.570970373	0.698126963	0.011111400	0.114634262	0.035331393
2019-10-29T23:15:00	0.2332	6.979	161.5	0.579133738	0.709918213	0.011406512	0.117678884	0.036269775
2019-10-29T23:20:00	0.2325	6.976	161.5	0.576881449	0.706659466	0.011324696	0.116834797	0.036009619
2019-10-29T23:25:00	0.2328	6.976	161.5	0.577987010	0.708258532	0.011364819	0.117248739	0.036137200
2019-10-29T23:30:00	0.2318	6.976	161.5	0.574725884	0.703544606	0.011246674	0.116029865	0.035761531
2019-10-29T23:35:00	0.2313	6.976	161.5	0.572807042	0.700775055	0.011177453	0.115315719	0.035541425
2019-10-29T23:40:00	0.2326	6.976	161.5	0.577273870	0.707226942	0.011338929	0.116981641	0.036054878
2019-10-29T23:45:00	0.2328	6.977	161.4	0.578043560	0.708340353	0.011366873	0.117269932	0.036143732
2019-10-29T23:50:00	0.2322	6.977	161.5	0.575790570	0.705082630	0.011285177	0.116427086	0.035883959
2019-10-29T23:55:00	0.2327	6.978	161.5	0.577568158	0.707652592	0.011349609	0.117091825	0.036088838
2019-10-30T00:00:00	0.2336	6.979	161.5	0.580687145	0.712168226	0.011463117	0.118262861	0.036449762
2019-10-30T00:05:00	0.2342	6.980	161.5	0.582797580	0.715228272	0.011540248	0.119058611	0.036695020
2019-10-30T00:10:00	0.2335	6.981	161.5	0.580212100	0.711479941	0.011445791	0.118084119	0.036394672
2019-10-30T00:15:00	0.2336	6.982	161.5	0.580645647	0.712108094	0.011461603	0.118247241	0.036444948
2019-10-30T00:20:00	0.2347	6.984	161.5	0.584432274	0.717601056	0.011600174	0.119676857	0.036885570
2019-10-30T00:25:00	0.2355	6.985	161.5	0.586875400	0.721151433	0.011690032	0.120603910	0.037171296
2019-10-30T00:30:00	0.2335	6.986	161.5	0.580268615	0.711561814	0.011447852	0.118105376	0.036401224
2019-10-30T00:35:00	0.2335	6.987	161.5	0.580366629	0.711703816	0.011451426	0.118142247	0.036412588
2019-10-30T00:40:00	0.2340	6.988	161.5	0.581806513	0.713790805	0.011503994	0.118684585	0.036579742
2019-10-30T00:45:00	0.2343	6.989	161.5	0.582910525	0.715392142	0.011544383	0.119101274	0.036708169
2019-10-30T00:50:00	0.2354	6.991	161.5	0.586694715	0.720888689	0.011683375	0.120535223	0.037150126
2019-10-30T00:55:00	0.2345	6.991	161.5	0.583776901	0.716649504	0.011576130	0.119428796	0.036809115
2019-10-30T01:00:00	0.2332	6.992	161.5	0.579178789	0.709983438	0.011408152	0.117695799	0.036274988
2019-10-30T01:05:00	0.2328	6.994	161.5	0.577933995	0.708181829	0.011362893	0.117228872	0.036131077
2019-10-30T01:10:00	0.2328	6.996	161.5	0.578032075	0.708323735	0.011366456	0.117265628	0.036142405
2019-10-30T01:15:00	0.2333	6.999	161.6	0.579472917	0.710409321	0.011418859	0.117806266	0.036309035
2019-10-30T01:20:00	0.2318	7.000	161.6	0.574533077	0.703266180	0.011239709	0.115958005	0.035739383
2019-10-30T01:25:00	0.2314	7.003	161.6	0.573286632	0.701466983	0.011194733	0.115494000	0.035596372
2019-10-30T01:30:00	0.2309	7.004	161.6	0.571703389	0.699183483	0.011137738	0.114905985	0.035415141
2019-10-30T01:35:00	0.2304	7.005	161.6	0.569782888	0.696416344	0.011068800	0.114194767	0.035195936
2019-10-30T01:40:00	0.2311	7.005	161.6	0.572236232	0.699951767	0.011156903	0.115103711	0.035476082
2019-10-30T01:45:00	0.2315	7.005	161.6	0.573679456	0.702033872	0.011208898	0.115640132	0.035641412
2019-10-30T01:50:00	0.2308	7.006	161.6	0.571087244	0.698295383	0.011115597	0.114677563	0.035344739
2019-10-30T01:55:00	0.2331	7.005	161.6	0.578914673	0.709601071	0.011398541	0.117596649	0.036244429
2019-10-30T02:00:00	0.2315	7.004	161.6	0.573637876	0.701973861	0.011207398	0.115624659	0.035636643
2019-10-30T02:05:00	0.2302	7.004	161.6	0.569363054	0.695811836	0.011053759	0.114039590	0.035148109
2019-10-30T02:10:00	0.2319	7.003	161.6	0.574842630	0.703713208	0.011250893	0.116073388	0.035774945
2019-10-30T02:15:00	0.2308	6.998	161.5	0.571242176	0.698518670	0.011121162	0.114734979	0.035362435
2019-10-30T02:20:00	0.2297	6.994	161.5	0.567638014	0.693329523	0.010992066	0.113403116	0.034951942
2019-10-30T02:25:00	0.2302	6.994	161.5	0.569083137	0.695408870	0.011043736	0.113936187	0.035116239
2019-10-30T02:30:00	0.2310	6.991	161.5	0.571873342	0.699428506	0.011143849	0.114969032	0.035434572
2019-10-30T02:35:00	0.2313	6.991	161.5	0.572980484	0.701025265	0.011183701	0.115380177	0.035561291
2019-10-30T02:40:00	0.2319	6.986	161.5	0.574759496	0.703593146	0.011247889	0.116042395	0.035765393
2019-10-30T02:45:00	0.2302	6.976	161.4	0.569139831	0.695490482	0.011045766	0.113957127	0.035122693
2019-10-30T02:50:00	0.2305	6.964	161.4	0.570247838	0.697085984	0.011085469	0.114366745	0.035248942
2019-10-30T02:55:00	0.2307	6.950	161.3	0.571019073	0.698197142	0.011113149	0.114652304	0.035336954
2019-10-30T03:00:00	0.2304	6.936	161.2	0.569771376	0.696399766	0.011068387	0.114190510	0.035194624
2019-10-30T03:05:00	0.2311	6.922	161.2	0.572224727	0.699935177	0.011156489	0.115099441	0.035474765
2019-10-30T03:10:00	0.2299	6.908	161.1	0.568284895	0.694260088	0.011015180	0.113641577	0.035025438
2019-10-30T03:15:00	0.2318	6.893	161.0	0.574438439	0.703129529	0.011236291	0.115922742	0.035728515
2019-10-30T03:20:00	0.2308	6.878	160.9	0.571174008	0.698420424	0.011118713	0.114709715	0.035354648
2019-10-30T03:25:00	0.2311	6.866	160.9	0.572281371	0.700016862	0.011158527	0.115120470	0.035481247
2019-10-30T03:30:00	0.2314	6.860	160.9	0.573388384	0.701613809	0.011198401	0.115531843	0.035608036
2019-10-30T03:35:00	0.2304	6.856	160.9	0.569786434	0.696421449	0.011068927	0.114196078	0.035196340
2019-10-30T03:40:00	0.2316	6.849	160.8	0.573920971	0.702382466	0.011217611	0.115730022	0.035669117
2019-10-30T03:45:00	0.2313	6.840	160.8	0.573010570	0.701068672	0.011184785	0.115391361	0.035564738
2019-10-30T03:50:00	0.2314	6.832	160.7	0.573108788	0.701210376	0.011188324	0.115427873	0.035575991
2019-10-30T03:55:00	0.2311	6.824	160.7	0.572198177	0.699896889	0.011155534	0.115089584	0.035471728
2019-10-30T04:00:00	0.2309	6.816	160.7	0.571623724	0.699068638	0.011134874	0.114876438	0.035406034
2019-10-30T04:05:00	0.2316	6.810	160.6	0.573837815	0.702262437	0.011214610	0.115699068	0.035659576
2019-10-30T04:10:00	0.2302	6.806	160.7	0.569324968	0.695757004	0.011052395	0.114025518	0.035143772
2019-10-30T04:15:00	0.2315	6.804	160.6	0.573558255	0.701858951	0.011204526	0.115595034	0.035627512
2019-10-30T04:20:00	0.2315	6.802	160.6	0.573418467	0.701657221	0.011199486	0.115543032	0.035611485
2019-10-30T04:25:00	0.2308	6.800	160.6	0.571260770	0.698545469	0.011121830	0.114741871	0.035364559
2019-10-30T04:30:00	0.2307	6.797	160.6	0.570784447	0.697859052	0.011104724	0.114565393	0.035310167
2019-10-30T04:35:00	0.2314	6.792	160.6	0.573335300	0.701537209	0.011196488	0.115512099	0.035601951
2019-10-30T04:40:00	0.2310	6.788	160.5	0.571850331	0.699395330	0.011143021	0.114960495	0.035431941
2019-10-30T04:45:00	0.2296	6.784	160.5	0.567334919	0.692893625	0.010981244	0.113291472	0.034917532
2019-10-30T04:50:00	0.2317	6.781	160.5	0.574260654	0.702872837	0.011229871	0.115856511	0.035708102
2019-10-30T04:55:00	0.2331	6.780	160.5	0.578823689	0.709469366	0.011395232	0.117562503	0.036233905
2019-10-30T05:00:00	0.2303	6.773	160.4	0.569608412	0.696165102	0.011062548	0.114130264	0.035176056
2019-10-30T05:05:00	0.2321	6.764	160.4	0.575521784	0.704694259	0.011275450	0.116326740	0.035853031
2019-10-30T05:10:00	0.2306	6.752	160.3	0.570674654	0.697700859	0.011100783	0.114524734	0.035297635
2019-10-30T05:15:00	0.2303	6.738	160.3	0.569525154	0.696045221	0.011059565	0.114099491	0.035166571
2019-10-30T05:20:00	0.2317	6.724	160.2	0.574094357	0.702632757	0.011223868	0.115794578	0.035689013
2019-10-30T05:25:00	0.2296	6.710	160.2	0.567225018	0.692735590	0.010977322	0.113251005	0.034905060
2019-10-30T05:30:00	0.2302	6.697	160.1	0.569105289	0.695440757	0.011044529	0.113944369	0.035118761
2019-10-30T05:35:00	0.2298	6.682	160.0	0.567955272	0.693785868	0.011003399	0.113520035	0.034987977
2019-10-30T05:40:00	0.2313	6.665	160.0	0.572862800	0.700855490	0.011179461	0.115336439	0.035547811
2019-10-30T05:45:00	0.2311	6.648	159.7	0.572386694	0.700168755	0.011162318	0.115159576	0.035493300
2019-10-30T05:50:00	0.2329	6.630	159.7	0.578295383	0.708704739	0.011376023	0.117364332	0.036172827
2019-10-30T05:55:00	0.2307	6.610	159.9	0.570761429	0.697825886	0.011103898	0.114556868	0.035307539
2019-10-30T06:00:00	0.2301	6.591	159.4	0.568938747	0.695201034	0.011038568	0.113882868	0.035099806
2019-10-30T06:05:00	0.2317	6.570	159.3	0.574181047	0.702757907	0.011226997	0.115826861	0.035698964
2019-10-30T06:10:00	0.2329	6.551	159.3	0.578408474	0.708868397	0.011380133	0.117406739	0.036185897
2019-10-30T06:15:00	0.2312	6.530	159.2	0.572556614	0.700413826	0.011168435	0.115222682	0.035512750
2019-10-30T06:20:00	0.2344	6.510	159.2	0.583161999	0.715757040	0.011553593	0.119196294	0.036737455
2019-10-30T06:25:00	0.2337	6.492	159.1	0.581010290	0.712636534	0.011474910	0.118384527	0.036487261
2019-10-30T06:30:00	0.2341	6.474	159.1	0.582212515	0.714379581	0.011518839	0.118837736	0.036626944
2019-10-30T06:35:00	0.2341	6.453	159.0	0.582408434	0.714663747	0.011526006	0.118911676	0.036649733
2019-10-30T06:40:00	0.2349	6.433	158.9	0.584950853	0.718354244	0.011619218	0.119873327	0.036946124
2019-10-30T06:45:00	0.2341	6.417	158.8	0.582464913	0.714745673	0.011528072	0.118932996	0.036656304
2019-10-30T06:50:00	0.2348	6.400	158.7	0.584672176	0.717949464	0.011608982	0.119767727	0.036913577
2019-10-30T06:55:00	0.2347	6.381	158.6	0.584197670	0.717260388	0.011591564	0.119588028	0.036858192
2019-10-30T07:00:00	0.2359	6.365	158.5	0.588413067	0.723388535	0.011746770	0.121189262	0.037351707
2019-10-30T07:05:00	0.2361	6.350	158.4	0.588943381	0.724160527	0.011766371	0.121391476	0.037414032
2019-10-30T07:10:00	0.2371	6.336	158.3	0.592484393	0.729321285	0.011897676	0.122746131	0.037831550
2019-10-30T07:15:00	0.2367	6.322	158.3	0.591007496	0.727167549	0.011842820	0.122180190	0.037657121
2019-10-30T07:20:00	0.2377	6.310	158.2	0.594212229	0.731843271	0.011962018	0.123409934	0.038036140
2019-10-30T07:25:00	0.2387	6.299	158.1	0.597747960	0.737011868	0.012094238	0.124774028	0.038456567
2019-10-30T07:30:00	0.2370	6.288	158.1	0.591928210	0.728509998	0.011877003	0.122532846	0.037765813
2019-10-30T07:35:00	0.2386	6.278	158.0	0.597470294	0.736605592	0.012083828	0.124666625	0.038423465
2019-10-30T07:40:00	0.2385	6.268	158.0	0.596997507	0.735913969	0.012066112	0.124483857	0.038367134
2019-10-30T07:45:00	0.2380	6.260	157.9	0.595188382	0.733269186	0.011998447	0.123785767	0.038151975
2019-10-30T07:50:00	0.2381	6.252	157.9	0.595717678	0.734042688	0.012018224	0.123989799	0.038214860
2019-10-30T07:55:00	0.2373	6.247	157.9	0.592904995	0.729934975	0.011913322	0.122907549	0.037881300
2019-10-30T08:00:00	0.2370	6.244	157.9	0.592097187	0.728756453	0.011883282	0.122597625	0.037785779
2019-10-30T08:05:00	0.2362	6.243	157.8	0.589281615	0.724653026	0.011778880	0.121520538	0.037453810
2019-10-30T08:10:00	0.2347	6.242	157.8	0.584453456	0.717631816	0.011600952	0.119684879	0.036888042
2019-10-30T08:15:00	0.2354	6.242	157.8	0.586659472	0.720837444	0.011682076	0.120521827	0.037145998
2019-10-30T08:20:00	0.2378	6.246	157.8	0.594549958	0.732336518	0.011974615	0.123539898	0.038076196
2019-10-30T08:25:00	0.2354	6.251	157.8	0.586715883	0.720919470	0.011684155	0.120543269	0.037152606
2019-10-30T08:30:00	0.2369	6.261	157.8	0.591597276	0.728027398	0.011864710	0.122406030	0.037726727
2019-10-30T08:35:00	0.2379	6.273	157.9	0.595135626	0.733192103	0.011996477	0.123765440	0.038145711
2019-10-30T08:40:00	0.2357	6.286	157.9	0.587637718	0.722260259	0.011718143	0.120893924	0.037260681
2019-10-30T08:45:00	0.2358	6.299	158.0	0.587833335	0.722544870	0.011725362	0.120968401	0.037283636
2019-10-30T08:50:00	0.2355	6.317	158.1	0.587024364	0.721368070	0.011695523	0.120660553	0.037188754
2019-10-30T08:55:00	0.2358	6.339	158.2	0.587889727	0.722626924	0.011727444	0.120989876	0.037290255
2019-10-30T09:00:00	0.2368	6.367	158.2	0.591431798	0.727786115	0.011858566	0.122342643	0.037707191
2019-10-30T09:05:00	0.2361	6.402	158.4	0.588950433	0.724170794	0.011766631	0.121394166	0.037414861
2019-10-30T09:10:00	0.2354	6.444	158.6	0.586802262	0.721045076	0.011687337	0.120576104	0.037162726
2019-10-30T09:15:00	0.2367	6.486	158.8	0.591014544	0.727177822	0.011843081	0.122182887	0.037657952
2019-10-30T09:20:00	0.2358	6.522	159.0	0.587863295	0.722588463	0.011726468	0.120979810	0.037287152
2019-10-30T09:25:00	0.2362	6.562	159.1	0.589397877	0.724822337	0.011783182	0.121564917	0.037467488
2019-10-30T09:30:00	0.2351	6.609	159.3	0.585575156	0.719261285	0.011642165	0.120110071	0.037019091
2019-10-30T09:35:00	0.2370	6.658	159.5	0.592130634	0.728805237	0.011884525	0.122610449	0.037789731
2019-10-30T09:40:00	0.2366	6.709	159.8	0.590653589	0.726651721	0.011829694	0.122044773	0.037615384
2019-10-30T09:45:00	0.2374	6.758	160.0	0.593190064	0.730350996	0.011923933	0.123017014	0.037915039
2019-10-30T09:50:00	0.2357	6.798	160.2	0.587697641	0.722347439	0.011720354	0.120916736	0.037267712
2019-10-30T09:55:00	0.2355	6.834	171.1	0.586888639	0.721170685	0.011690520	0.120608943	0.037172848
2019-10-30T10:00:00	0.2352	6.866	171.3	0.586079451	0.719994206	0.011660718	0.120301482	0.037078085
2019-10-30T10:05:00	0.2355	6.896	171.4	0.586841221	0.721101729	0.011688773	0.120590915	0.037167291
2019-10-30T10:10:00	0.2337	6.931	171.6	0.580899412	0.712475837	0.011470862	0.118342774	0.036474392
2019-10-30T10:15:00	0.2339	6.975	161.1	0.581662305	0.713581709	0.011498723	0.118630211	0.036562983
2019-10-30T10:20:00	0.2339	7.009	161.2	0.581754278	0.713715064	0.011502085	0.118664888	0.036573671
2019-10-30T10:25:00	0.2347	7.025	161.2	0.584193267	0.717253994	0.011591402	0.119586361	0.036857678
2019-10-30T10:30:00	0.2344	7.028	161.3	0.583279528	0.715927596	0.011557899	0.119240715	0.036751146
2019-10-30T10:35:00	0.2344	7.025	161.3	0.583371459	0.716061013	0.011561268	0.119275467	0.036761857
2019-10-30T10:40:00	0.2336	7.016	161.2	0.580780398	0.712303361	0.011466519	0.118297965	0.036460582
2019-10-30T10:45:00	0.2345	6.994	161.1	0.583555315	0.716327859	0.011568006	0.119344985	0.036783283
2019-10-30T10:50:00	0.2333	6.981	161.1	0.579622195	0.710625497	0.011424296	0.117862352	0.036326321
2019-10-30T10:55:00	0.2322	6.982	161.1	0.576020638	0.705415104	0.011293505	0.116513012	0.035910442
2019-10-30T11:00:00	0.2310	6.986	161.1	0.571742706	0.699240165	0.011139151	0.114920569	0.035419635
2019-10-30T11:05:00	0.2322	6.989	161.1	0.575868923	0.705195854	0.011288013	0.116456345	0.035892977
2019-10-30T11:10:00	0.2293	6.994	161.2	0.566204543	0.691268644	0.010940934	0.112875599	0.034789356
2019-10-30T11:15:00	0.2293	6.999	161.2	0.566296924	0.691401406	0.010944226	0.112909558	0.034799822
2019-10-30T11:20:00	0.2293	7.007	161.2	0.566052402	0.691050013	0.010935514	0.112819685	0.034772123
2019-10-30T11:25:00	0.2281	7.015	161.3	0.562099565	0.685376363	0.010795181	0.111371893	0.034325899
2019-10-30T11:30:00	0.2282	7.025	161.3	0.562529326	0.685992590	0.010810394	0.111528839	0.034374271
2019-10-30T11:35:00	0.2265	7.033	161.4	0.556883889	0.677909822	0.010611424	0.109476106	0.033741599
2019-10-30T11:40:00	0.2269	7.045	161.4	0.557989749	0.679491054	0.010650252	0.109876682	0.033865060
2019-10-30T11:45:00	0.2276	7.059	161.5	0.560445350	0.683005833	0.010736727	0.110768831	0.034140029
2019-10-30T11:50:00	0.2271	7.069	161.5	0.558850232	0.680722126	0.010680513	0.110188889	0.033961286
2019-10-30T11:55:00	0.2282	7.080	161.6	0.562317202	0.685688411	0.010802884	0.111451359	0.034350391
2019-10-30T12:00:00	0.2282	7.085	161.6	0.562409685	0.685821025	0.010806158	0.111485136	0.034360802
2019-10-30T12:05:00	0.2276	7.083	161.6	0.560478029	0.683052641	0.010737880	0.110780728	0.034143696
2019-10-30T12:10:00	0.2274	7.089	161.7	0.559895605	0.682218535	0.010717336	0.110568784	0.034078373
2019-10-30T12:15:00	0.2263	7.098	161.7	0.555935778	0.676554951	0.010578193	0.109133262	0.033635931
2019-10-30T12:20:00	0.2272	7.105	161.7	0.559068073	0.681033881	0.010688182	0.110267998	0.033985668
2019-10-30T12:25:00	0.2263	7.113	161.7	0.556121081	0.676819695	0.010584683	0.109200226	0.033656570
2019-10-30T12:30:00	0.2279	7.123	161.7	0.561278058	0.684198842	0.010766132	0.111072196	0.034233529
2019-10-30T12:35:00	0.2278	7.142	161.9	0.561033185	0.683847956	0.010757480	0.110982942	0.034206020
2019-10-30T12:40:00	0.2287	7.162	161.9	0.564160904	0.688333470	0.010868248	0.112125706	0.034558232
2019-10-30T12:45:00	0.2275	7.171	162.0	0.560205922	0.682662914	0.010728280	0.110681683	0.034113170
2019-10-30T12:50:00	0.2279	7.178	162.0	0.561310729	0.684245661	0.010767286	0.111084107	0.034237201
2019-10-30T12:55:00	0.2251	7.183	162.1	0.551944198	0.670859002	0.010438866	0.107695861	0.033192910
2019-10-30T13:00:00	0.2277	7.185	162.1	0.560820970	0.683543908	0.010749986	0.110905621	0.034182190
2019-10-30T13:05:00	0.2243	7.182	162.1	0.549422544	0.667267367	0.010351331	0.106792769	0.032914569
2019-10-30T13:10:00	0.2240	7.180	162.0	0.548161030	0.665472529	0.010307679	0.106342422	0.032775767
2019-10-30T13:15:00	0.2229	7.183	162.1	0.544526825	0.660309199	0.010182447	0.105050433	0.032377564
2019-10-30T13:20:00	0.2223	7.178	162.1	0.542585202	0.657555054	0.010115858	0.104363442	0.032165826
2019-10-30T13:25:00	0.2222	7.170	162.0	0.541999771	0.656725239	0.010095824	0.104156750	0.032102122
2019-10-30T13:30:00	0.2211	7.170	162.0	0.538359094	0.651571076	0.009971683	0.102876018	0.031707388
2019-10-30T13:35:00	0.2238	7.171	162.0	0.547609340	0.664688014	0.010288618	0.106145778	0.032715160
2019-10-30T13:40:00	0.2224	7.182	162.1	0.542957226	0.658082522	0.010128600	0.104494897	0.032206342
2019-10-30T13:45:00	0.2225	7.206	162.2	0.543050226	0.658214398	0.010131786	0.104527771	0.032216474
2019-10-30T13:50:00	0.2239	7.230	162.3	0.547887958	0.665084184	0.010298242	0.106245066	0.032745761
2019-10-30T13:55:00	0.2248	7.243	162.4	0.551027507	0.669552740	0.010407002	0.107367117	0.033091588
2019-10-30T14:00:00	0.2237	7.244	162.3	0.547396305	0.664385140	0.010281263	0.106069893	0.032691771
2019-10-30T14:05:00	0.2243	7.232	162.3	0.549182356	0.666925537	0.010343012	0.106706951	0.032888119
2019-10-30T14:10:00	0.2231	7.223	162.3	0.545210299	0.661279426	0.010205940	0.105292804	0.032452265
2019-10-30T14:15:00	0.2255	7.213	162.2	0.553428048	0.672974915	0.010490551	0.108229080	0.033357253
2019-10-30T14:20:00	0.2246	7.203	162.2	0.550137831	0.668285633	0.010376123	0.107048547	0.032993402
2019-10-30T14:25:00	0.2261	7.195	162.1	0.555303675	0.675652073	0.010556067	0.108904993	0.033565576
2019-10-30T14:30:00	0.2277	7.191	162.2	0.560799301	0.683512864	0.010749221	0.110897728	0.034179757
2019-10-30T14:35:00	0.2267	7.187	162.1	0.557516049	0.678813603	0.010633611	0.109705002	0.033812147
2019-10-30T14:40:00	0.2256	7.186	162.4	0.553553512	0.673153904	0.010494927	0.108274226	0.033371168
2019-10-30T14:45:00	0.2236	7.186	162.2	0.546877301	0.663647423	0.010263354	0.105885134	0.032634827
2019-10-30T14:50:00	0.2259	7.186	162.1	0.554753118	0.674865941	0.010536814	0.108706369	0.033504359
2019-10-30T14:55:00	0.2247	7.186	162.1	0.550787431	0.669210752	0.010398664	0.107281104	0.033065078
2019-10-30T15:00:00	0.2261	7.187	162.1	0.555276459	0.675613207	0.010555114	0.108895170	0.033562549
2019-10-30T15:05:00	0.2254	7.183	162.1	0.553002678	0.672368169	0.010475721	0.108076087	0.033310100
2019-10-30T15:10:00	0.2255	7.178	162.1	0.553433563	0.672982782	0.010490743	0.108231064	0.033357865
2019-10-30T15:15:00	0.2258	7.170	162.1	0.554202474	0.674079934	0.010517577	0.108507898	0.033443188
2019-10-30T15:20:00	0.2272	7.160	162.1	0.559024712	0.680971824	0.010686655	0.110252250	0.033980814
2019-10-30T15:25:00	0.2265	7.150	162.0	0.556753379	0.677723277	0.010606847	0.109428880	0.033727044
2019-10-30T15:30:00	0.2252	7.138	161.9	0.552451757	0.671582558	0.010456531	0.107878101	0.033249078
2019-10-30T15:35:00	0.2269	7.125	161.9	0.557951883	0.679436894	0.010648921	0.109862953	0.033860829
2019-10-30T15:40:00	0.2290	7.110	161.8	0.565128767	0.689723132	0.010902641	0.112480537	0.034667594
2019-10-30T15:45:00	0.2281	7.096	161.8	0.562186896	0.685501574	0.010798272	0.111403777	0.034335726
2019-10-30T15:50:00	0.2288	7.081	161.7	0.564639544	0.689020606	0.010885249	0.112301110	0.034612293
2019-10-30T15:55:00	0.2301	7.064	161.6	0.568774142	0.694964121	0.011032677	0.113822099	0.035081076
2019-10-30T16:00:00	0.2328	7.043	161.5	0.577944073	0.708196410	0.011363259	0.117232648	0.036132241
2019-10-30T16:05:00	0.2322	7.021	161.4	0.576020980	0.705415599	0.011293518	0.116513140	0.035910481
2019-10-30T16:10:00	0.2329	6.999	161.3	0.578128213	0.708462839	0.011369948	0.117301661	0.036153511
2019-10-30T16:15:00	0.2324	6.976	161.2	0.576541144	0.706167459	0.011312360	0.116707532	0.035970395
2019-10-30T16:20:00	0.2332	6.952	161.1	0.579319412	0.710187045	0.011413270	0.117748607	0.036291264
2019-10-30T16:25:00	0.2324	6.927	161.0	0.576725358	0.706433781	0.011319037	0.116776414	0.035991625
2019-10-30T16:30:00	0.2347	6.903	160.8	0.584199075	0.717262427	0.011591615	0.119588560	0.036858356
2019-10-30T16:35:00	0.2334	6.877	160.8	0.579931109	0.711072905	0.011435550	0.117978457	0.036362106
2019-10-30T16:40:00	0.2334	6.851	160.6	0.580023128	0.711206194	0.011438903	0.118013054	0.036372769
2019-10-30T16:45:00	0.2337	6.824	160.5	0.581121697	0.712798007	0.011478977	0.118426488	0.036500194
2019-10-30T16:50:00	0.2323	6.798	171.2	0.576178168	0.705642779	0.011299210	0.116571865	0.035928581
2019-10-30T16:55:00	0.2339	6.771	160.3	0.581641106	0.713550973	0.011497949	0.118622219	0.036560520
2019-10-30T17:00:00	0.2340	6.743	170.9	0.582068475	0.714170681	0.011513571	0.118783390	0.036610194
2019-10-30T17:05:00	0.2332	6.717	170.8	0.579140810	0.709928451	0.011406770	0.117681539	0.036270593
2019-10-30T17:10:00	0.2335	6.691	159.9	0.580239654	0.711519858	0.011446796	0.118094483	0.036397867
2019-10-30T17:15:00	0.2337	6.664	159.8	0.581002691	0.712625520	0.011474632	0.118381665	0.036486379
2019-10-30T17:20:00	0.2338	6.637	159.7	0.581430137	0.713245114	0.011490241	0.118542699	0.036536011
2019-10-30T17:25:00	0.2347	6.610	159.6	0.584204542	0.717270365	0.011591816	0.119590630	0.036858994
2019-10-30T17:30:00	0.2343	6.583	159.5	0.582955527	0.715457438	0.011546031	0.119118276	0.036713409
2019-10-30T17:35:00	0.2358	6.556	159.3	0.588073157	0.722893841	0.011734216	0.121059741	0.037311788
2019-10-30T17:40:00	0.2366	6.529	159.2	0.590507772	0.726439220	0.011824288	0.121989001	0.037598195
2019-10-30T17:45:00	0.2370	6.503	159.1	0.591937528	0.728523588	0.011877349	0.122536418	0.037766914
2019-10-30T17:50:00	0.2356	6.476	158.9	0.587344083	0.721833096	0.011707311	0.120782172	0.037226238
2019-10-30T17:55:00	0.2375	6.451	158.8	0.593792654	0.731230621	0.011946377	0.123248572	0.037986407
2019-10-30T18:00:00	0.2373	6.425	158.7	0.592881402	0.729900547	0.011912444	0.122898492	0.037878509
2019-10-30T18:05:00	0.2387	6.399	158.6	0.597650768	0.736869651	0.012090594	0.124736428	0.038444979
2019-10-30T18:10:00	0.2383	6.374	158.4	0.596406511	0.735049683	0.012043986	0.124255587	0.038296779
2019-10-30T18:15:00	0.2385	6.348	158.3	0.597166053	0.736160508	0.012072426	0.124548997	0.038387211
2019-10-30T18:20:00	0.2387	6.320	158.2	0.597591544	0.736782995	0.012088373	0.124713519	0.038437918
2019-10-30T18:25:00	0.2395	6.292	158.1	0.600353263	0.740827033	0.012192143	0.125784091	0.038767879
2019-10-30T18:30:00	0.2382	6.265	158.0	0.596104827	0.734608607	0.012032700	0.124139145	0.038260890
2019-10-30T18:35:00	0.2400	6.239	157.8	0.601870491	0.743051454	0.012249346	0.126374243	0.038949769
2019-10-30T18:40:00	0.2387	6.215	157.7	0.597623879	0.736830307	0.012089586	0.124726027	0.038441773
2019-10-30T18:45:00	0.2385	6.191	157.6	0.597047588	0.735987221	0.012067988	0.124503211	0.038373099
2019-10-30T18:50:00	0.2386	6.166	157.5	0.597473092	0.736609687	0.012083933	0.124667707	0.038423798
2019-10-30T18:55:00	0.2398	6.142	157.4	0.601235728	0.742120589	0.012225397	0.126127169	0.038873618
2019-10-30T19:00:00	0.2399	6.119	157.3	0.601660730	0.742743806	0.012241429	0.126292568	0.038924596
2019-10-30T19:05:00	0.2399	6.096	157.1	0.601752183	0.742877932	0.012244880	0.126328174	0.038935570
2019-10-30T19:10:00	0.2396	6.071	157.1	0.600842982	0.741544803	0.012210591	0.125974421	0.038826540
2019-10-30T19:15:00	0.2414	6.048	157.0	0.606600939	0.749999178	0.012428579	0.128223360	0.039519685
2019-10-30T19:20:00	0.2427	6.026	156.9	0.611019243	0.756505399	0.012597197	0.129962962	0.040055847
2019-10-30T19:25:00	0.2398	6.002	156.8	0.601450955	0.742436176	0.012233515	0.126210915	0.038899430
2019-10-30T19:30:00	0.2430	5.981	156.7	0.611866852	0.757755429	0.012629679	0.130298071	0.040159131
2019-10-30T19:35:00	0.2415	5.960	156.6	0.606966229	0.750536469	0.012442475	0.128366726	0.039563872
2019-10-30T19:40:00	0.2427	5.936	156.5	0.611051456	0.756552895	0.012598431	0.129975690	0.040059770
2019-10-30T19:45:00	0.2423	5.914	156.5	0.609811897	0.754725883	0.012551004	0.129486398	0.039908966
2019-10-30T19:50:00	0.2415	5.892	156.3	0.606907160	0.750449580	0.012440228	0.128343537	0.039556725
2019-10-30T19:55:00	0.2430	5.869	156.2	0.611990248	0.757937459	0.012634411	0.130346893	0.040174178
2019-10-30T20:00:00	0.2433	5.848	156.1	0.613078922	0.759544004	0.012676203	0.130778045	0.040307064
2019-10-30T20:05:00	0.2434	5.825	156.1	0.613502506	0.760169352	0.012692482	0.130945998	0.040358828
2019-10-30T20:10:00	0.2440	5.805	156.0	0.615255271	0.762758605	0.012759960	0.131642157	0.040573391
2019-10-30T20:15:00	0.2446	5.784	155.9	0.617339239	0.765840488	0.012840430	0.132472345	0.040829263
2019-10-30T20:20:00	0.2440	5.762	155.8	0.615437476	0.763027914	0.012766985	0.131714634	0.040595729
2019-10-30T20:25:00	0.2448	5.742	155.6	0.617853356	0.766601354	0.012860322	0.132677568	0.040892515
2019-10-30T20:30:00	0.2453	5.722	155.6	0.619603980	0.769193855	0.012928176	0.133377606	0.041108273
2019-10-30T20:35:00	0.2447	5.703	155.5	0.617703427	0.766379444	0.012854519	0.132617703	0.040874064
2019-10-30T20:40:00	0.2446	5.684	155.4	0.617462444	0.766022805	0.012845195	0.132521510	0.040844416
2019-10-30T20:45:00	0.2435	5.663	155.3	0.613566887	0.760264411	0.012694957	0.130971534	0.040366699
2019-10-30T20:50:00	0.2445	5.646	155.2	0.616980430	0.765309601	0.012826556	0.132329214	0.040785149
2019-10-30T20:55:00	0.2436	5.628	155.1	0.614081549	0.761024451	0.012714754	0.131175770	0.040429646
2019-10-30T21:00:00	0.2455	5.611	155.1	0.620481675	0.770494606	0.012962265	0.133729295	0.041216667
2019-10-30T21:05:00	0.2434	5.590	155.0	0.613266661	0.759821149	0.012683417	0.130852470	0.040330002
2019-10-30T21:10:00	0.2425	5.570	154.9	0.610364750	0.755540584	0.012572146	0.129704509	0.039976189
2019-10-30T21:15:00	0.2409	5.550	154.8	0.605128871	0.747835107	0.012372660	0.127646451	0.039341876
2019-10-30T21:20:00	0.2417	5.530	154.7	0.607551769	0.751397951	0.012464767	0.128596706	0.039634754
2019-10-30T21:25:00	0.2405	5.511	154.6	0.603645319	0.745655990	0.012316436	0.127066397	0.039163098
2019-10-30T21:30:00	0.2379	5.493	154.5	0.595059632	0.733081069	0.011993639	0.123736162	0.038136687
2019-10-30T21:35:00	0.2402	5.475	154.4	0.602828030	0.744456302	0.012285518	0.126747426	0.039064788
2019-10-30T21:40:00	0.2398	5.456	154.3	0.601252049	0.742144519	0.012226013	0.126133518	0.038875575
2019-10-30T21:45:00	0.2392	5.436	154.3	0.599341643	0.739344958	0.012154079	0.125391394	0.038646845
2019-10-30T21:50:00	0.2397	5.412	154.2	0.601101417	0.741923668	0.012220333	0.126074921	0.038857515
2019-10-30T21:55:00	0.2415	5.387	154.1	0.607191970	0.750868560	0.012451067	0.128455364	0.039591191
2019-10-30T22:00:00	0.2402	5.367	154.0	0.602618325	0.744148569	0.012277592	0.126665649	0.039039583
2019-10-30T22:05:00	0.2417	5.349	153.9	0.607754696	0.751696576	0.012472498	0.128676459	0.039659334
2019-10-30T22:10:00	0.2396	5.334	153.8	0.600560986	0.741131464	0.012199966	0.125864805	0.038792755
2019-10-30T22:15:00	0.2397	5.318	153.7	0.601033297	0.741823798	0.012217765	0.126048426	0.038849349
2019-10-30T22:20:00	0.2398	5.303	163.7	0.601505544	0.742516226	0.012235574	0.126232161	0.038905978
2019-10-30T22:25:00	0.2400	5.288	163.5	0.601977728	0.743208748	0.012253394	0.126416009	0.038962642
2019-10-30T22:30:00	0.2399	5.271	153.5	0.601782894	0.742922974	0.012246039	0.126340132	0.038939256
2019-10-30T22:35:00	0.2394	5.256	153.4	0.599920017	0.740192201	0.012175834	0.125615834	0.038716020
2019-10-30T22:40:00	0.2386	5.240	163.2	0.597388374	0.736485741	0.012080757	0.124634947	0.038413701
2019-10-30T22:45:00	0.2390	5.224	153.2	0.598528804	0.738154727	0.012123539	0.125076318	0.038549736
2019-10-30T22:50:00	0.2386	5.206	153.2	0.597332133	0.736403462	0.012078650	0.124613201	0.038406999
2019-10-30T22:55:00	0.2382	5.190	153.1	0.596135057	0.734652802	0.012033830	0.124150811	0.038264486
2019-10-30T23:00:00	0.2389	5.171	153.0	0.598277553	0.737786936	0.012114107	0.124979010	0.038519745
2019-10-30T23:05:00	0.2378	5.152	152.9	0.594742352	0.732617550	0.011981795	0.123613966	0.038099025
2019-10-30T23:10:00	0.2389	5.131	152.8	0.598221327	0.737704637	0.012111997	0.124957239	0.038513035
2019-10-30T23:15:00	0.2384	5.114	152.7	0.596690578	0.735465073	0.012054619	0.124365280	0.038330587
2019-10-30T23:20:00	0.2371	5.094	152.6	0.592485075	0.729322279	0.011897701	0.122746392	0.037831630
2019-10-30T23:25:00	0.2380	5.075	152.5	0.595298092	0.733429496	0.012002545	0.123828043	0.038165006
2019-10-30T23:30:00	0.2384	5.057	152.5	0.596773195	0.735585896	0.012057712	0.124397192	0.038340423
2019-10-30T23:35:00	0.2385	5.040	152.4	0.596912058	0.735788989	0.012062912	0.124450840	0.038356957
2019-10-30T23:40:00	0.2381	5.027	152.3	0.595714840	0.734038540	0.012018118	0.123988704	0.038214523
2019-10-30T23:45:00	0.2378	5.015	152.2	0.594851396	0.732776844	0.011985865	0.123655956	0.038111967
2019-10-30T23:50:00	0.2378	5.003	152.2	0.594656168	0.732491656	0.011978578	0.123580784	0.038088798
2019-10-30T23:55:00	0.2377	4.991	152.1	0.594460929	0.732206485	0.011971294	0.123505631	0.038065635
2019-10-31T00:00:00	0.2391	4.979	152.1	0.598941654	0.738759191	0.012139046	0.125236298	0.038599043
2019-10-31T00:05:00	0.2390	4.969	152.1	0.598746653	0.738473667	0.012131720	0.125160721	0.038575750
2019-10-31T00:10:00	0.2399	4.958	152.0	0.601554692	0.742588299	0.012237428	0.126251291	0.038911874
2019-10-31T00:15:00	0.2370	4.946	152.0	0.592008097	0.728626511	0.011879971	0.122563469	0.037775252
2019-10-31T00:20:00	0.2380	4.932	151.9	0.595489765	0.733709593	0.012009706	0.123901922	0.038187776
2019-10-31T00:25:00	0.2387	4.919	151.8	0.597632653	0.736843145	0.012089915	0.124729421	0.038442819
2019-10-31T00:30:00	0.2388	4.905	151.7	0.598105354	0.737534895	0.012107645	0.124912340	0.038499196
2019-10-31T00:35:00	0.2378	4.893	151.8	0.594569981	0.732365765	0.011975362	0.123547605	0.038078572
2019-10-31T00:40:00	0.2378	4.878	151.6	0.594708931	0.732568729	0.011980547	0.123601098	0.038095059
2019-10-31T00:45:00	0.2366	4.866	151.5	0.590835625	0.726917029	0.011836445	0.122114416	0.037636849
2019-10-31T00:50:00	0.2378	4.853	151.5	0.594652648	0.732486514	0.011978447	0.123579429	0.038088380
2019-10-31T00:55:00	0.2381	4.841	151.4	0.595793961	0.734154185	0.012021075	0.124019218	0.038223927
2019-10-31T01:00:00	0.2371	4.829	151.4	0.592256271	0.728988500	0.011889194	0.122658628	0.037804580
2019-10-31T01:05:00	0.2377	4.816	151.3	0.594401122	0.732119134	0.011969063	0.123482615	0.038058541
2019-10-31T01:10:00	0.2384	4.804	151.2	0.596544670	0.735251704	0.012049157	0.124308931	0.038313220
2019-10-31T01:15:00	0.2394	4.792	151.2	0.600021871	0.740341432	0.012179667	0.125655380	0.038728208
2019-10-31T01:20:00	0.2379	4.779	151.1	0.595152126	0.733216212	0.011997093	0.123771797	0.038147670
2019-10-31T01:25:00	0.2386	4.765	151.0	0.597295219	0.736349459	0.012077266	0.124598929	0.038402600
2019-10-31T01:30:00	0.2374	4.751	151.0	0.593424751	0.730693542	0.011932671	0.123107171	0.037942826
2019-10-31T01:35:00	0.2365	4.740	151.0	0.590219302	0.726018882	0.011813597	0.121878706	0.037564201
2019-10-31T01:40:00	0.2375	4.729	150.8	0.593702735	0.731099345	0.011943027	0.123214005	0.037975753
2019-10-31T01:45:00	0.2365	4.717	150.9	0.590497540	0.726424310	0.011823909	0.121985088	0.037596989
2019-10-31T01:50:00	0.2364	4.705	150.8	0.589967460	0.725651971	0.011804268	0.121782457	0.037534536
2019-10-31T01:55:00	0.2350	4.691	150.7	0.585418882	0.719034207	0.011636419	0.120050788	0.037000819
2019-10-31T02:00:00	0.2347	4.678	150.7	0.584217753	0.717289548	0.011592301	0.119595631	0.036860535
2019-10-31T02:05:00	0.2339	4.665	150.5	0.581674804	0.713599831	0.011499180	0.118634923	0.036564435
2019-10-31T02:10:00	0.2361	4.652	150.5	0.588850685	0.724025570	0.011762943	0.121356117	0.037403134
2019-10-31T02:15:00	0.2341	4.642	150.4	0.582289091	0.714490645	0.011521640	0.118866633	0.036635851
2019-10-31T02:20:00	0.2344	4.630	150.3	0.583434416	0.716152385	0.011563575	0.119299269	0.036769193
2019-10-31T02:25:00	0.2326	4.619	150.3	0.577198554	0.707118019	0.011336197	0.116953450	0.036046189
2019-10-31T02:30:00	0.2342	4.608	150.2	0.582707380	0.715097410	0.011536946	0.119024545	0.036684521
2019-10-31T02:35:00	0.2330	4.596	150.3	0.578485132	0.708979340	0.011382920	0.117435489	0.036194758
2019-10-31T02:40:00	0.2341	4.584	150.1	0.582315566	0.714529045	0.011522608	0.118876625	0.036638930
2019-10-31T02:45:00	0.2331	4.572	150.1	0.579099978	0.709869336	0.011405284	0.117666209	0.036265868
2019-10-31T02:50:00	0.2342	4.560	150.0	0.582594429	0.714933550	0.011532812	0.118981893	0.036671375
2019-10-31T02:55:00	0.2347	4.548	150.0	0.584410029	0.717568752	0.011599357	0.119668433	0.036882973
2019-10-31T03:00:00	0.2328	4.534	149.9	0.577840134	0.708046035	0.011359484	0.117193703	0.036120237
2019-10-31T03:05:00	0.2337	4.523	149.8	0.581000373	0.712622160	0.011474548	0.118380792	0.036486110
2019-10-31T03:10:00	0.2328	4.508	149.9	0.577783580	0.707964218	0.011357430	0.117172515	0.036113707
2019-10-31T03:15:00	0.2348	4.497	149.7	0.584632282	0.717891523	0.011607517	0.119752613	0.036908918
2019-10-31T03:20:00	0.2355	4.486	149.6	0.587116691	0.721502349	0.011698926	0.120695667	0.037199577
2019-10-31T03:25:00	0.2357	4.478	149.5	0.587590804	0.722192005	0.011716412	0.120876065	0.037255177
2019-10-31T03:30:00	0.2360	4.469	149.5	0.588734404	0.723856286	0.011758645	0.121311770	0.037389466
2019-10-31T03:35:00	0.2356	4.462	149.4	0.587199533	0.721622839	0.011701981	0.120727178	0.037209289
2019-10-31T03:40:00	0.2342	4.454	149.4	0.582647373	0.715010355	0.011534750	0.119001884	0.036677537
2019-10-31T03:45:00	0.2357	4.444	149.3	0.587812856	0.722515073	0.011724606	0.120960603	0.037281233
2019-10-31T03:50:00	0.2370	4.434	149.3	0.591967604	0.728567453	0.011878466	0.122547947	0.037770467
2019-10-31T03:55:00	0.2367	4.423	149.2	0.591103242	0.727307119	0.011846372	0.122216838	0.037668417
2019-10-31T04:00:00	0.2350	4.413	149.2	0.585216072	0.718739538	0.011628963	0.119973873	0.036977113
2019-10-31T04:05:00	0.2347	4.401	149.1	0.584444953	0.717619468	0.011600639	0.119681659	0.036887049
2019-10-31T04:10:00	0.2354	4.391	149.1	0.586689404	0.720880966	0.011683179	0.120533204	0.037149504
2019-10-31T04:15:00	0.2354	4.379	149.1	0.586588568	0.720734348	0.011679464	0.120494880	0.037137692
2019-10-31T04:20:00	0.2357	4.368	148.9	0.587827305	0.722536096	0.011725140	0.120966105	0.037282928
2019-10-31T04:25:00	0.2358	4.358	148.8	0.588061326	0.722876624	0.011733779	0.121055234	0.037310399
2019-10-31T04:30:00	0.2368	4.348	148.9	0.591307115	0.727604332	0.011853938	0.122294894	0.037692474
2019-10-31T04:35:00	0.2359	4.340	148.8	0.588194541	0.723070488	0.011738698	0.121105986	0.037326041
2019-10-31T04:40:00	0.2382	4.331	148.7	0.596119923	0.734630677	0.012033264	0.124144971	0.038262686
2019-10-31T04:45:00	0.2362	4.325	148.7	0.589331957	0.724726336	0.011780743	0.121539753	0.037459732
2019-10-31T04:50:00	0.2371	4.314	148.7	0.592242181	0.728967947	0.011888671	0.122653224	0.037802915
2019-10-31T04:55:00	0.2372	4.304	148.6	0.592810282	0.729796769	0.011909798	0.122871191	0.037870094
2019-10-31T05:00:00	0.2370	4.292	148.6	0.592040825	0.728674245	0.011881187	0.122576016	0.037779119
2019-10-31T05:05:00	0.2375	4.280	148.6	0.593611944	0.730966800	0.011939644	0.123179107	0.037964997
2019-10-31T05:10:00	0.2367	4.269	148.5	0.591170494	0.727405157	0.011848868	0.122242584	0.037676352
2019-10-31T05:15:00	0.2363	4.261	148.5	0.589731443	0.725308165	0.011795528	0.121692291	0.037506746
2019-10-31T05:20:00	0.2372	4.253	148.4	0.592641339	0.729550263	0.011903513	0.122806350	0.037850110
2019-10-31T05:25:00	0.2369	4.246	148.4	0.591537382	0.727940064	0.011862486	0.122383085	0.037719655
2019-10-31T05:30:00	0.2367	4.239	148.3	0.591102182	0.727305572	0.011846333	0.122216432	0.037668291
2019-10-31T05:35:00	0.2366	4.231	148.2	0.590666927	0.726671160	0.011830189	0.122049875	0.037616957
2019-10-31T05:40:00	0.2374	4.224	148.2	0.593241751	0.730426434	0.011925857	0.123036868	0.037921157
2019-10-31T05:45:00	0.2378	4.216	147.9	0.594812336	0.732719783	0.011984407	0.123640914	0.038107331
2019-10-31T05:50:00	0.2382	4.210	148.1	0.596048188	0.734525806	0.012030581	0.124117290	0.038254154
2019-10-31T05:55:00	0.2377	4.202	148.1	0.594276923	0.731937748	0.011964430	0.123434824	0.038043812
2019-10-31T06:00:00	0.2370	4.193	148.1	0.592170367	0.728863193	0.011886001	0.122625685	0.037794427
2019-10-31T06:05:00	0.2387	4.187	148.0	0.597750380	0.737015410	0.012094329	0.124774964	0.038456856
2019-10-31T06:10:00	0.2397	4.182	148.0	0.600987277	0.741756333	0.012216030	0.126030529	0.038843833
2019-10-31T06:15:00	0.2406	4.177	147.9	0.603887921	0.746012210	0.012325621	0.127161159	0.039192304
2019-10-31T06:20:00	0.2410	4.173	147.9	0.605453786	0.748312605	0.012384991	0.127773671	0.039381086
2019-10-31T06:25:00	0.2410	4.167	147.8	0.605353485	0.748165192	0.012381184	0.127734391	0.039368980
2019-10-31T06:30:00	0.2416	4.163	147.8	0.607251713	0.750956455	0.012453341	0.128478828	0.039598423
2019-10-31T06:35:00	0.2423	4.162	147.8	0.609814498	0.754729714	0.012551104	0.129487424	0.039909282
2019-10-31T06:40:00	0.2432	4.157	147.9	0.612707933	0.758996428	0.012661953	0.130631039	0.040261755
2019-10-31T06:45:00	0.2425	4.154	147.8	0.610279623	0.755415122	0.012568889	0.129670912	0.039965834
2019-10-31T06:50:00	0.2448	4.151	147.8	0.618155790	0.767049044	0.012872031	0.132798368	0.040929747
2019-10-31T06:55:00	0.2436	4.149	147.8	0.614069805	0.761007104	0.012714302	0.131171107	0.040428209
2019-10-31T07:00:00	0.2434	4.147	147.7	0.613304953	0.759877680	0.012684888	0.130867653	0.040334682
2019-10-31T07:05:00	0.2436	4.144	147.7	0.613869685	0.760711549	0.012706602	0.131091675	0.040403727
2019-10-31T07:10:00	0.2458	4.143	147.7	0.621406262	0.771865554	0.012998225	0.134100292	0.041331012
2019-10-31T07:15:00	0.2441	4.143	147.7	0.615663357	0.763361817	0.012775697	0.131804514	0.040623431
2019-10-31T07:20:00	0.2433	4.142	147.7	0.612904616	0.759286716	0.012669507	0.130708965	0.040285772
2019-10-31T07:25:00	0.2448	4.143	147.7	0.618120144	0.766996275	0.012870650	0.132784128	0.040925358
2019-10-31T07:30:00	0.2437	4.145	147.7	0.614366462	0.761445299	0.012725720	0.131288904	0.040464515
2019-10-31T07:35:00	0.2445	4.146	147.7	0.616924123	0.765226300	0.012824380	0.132306760	0.040778228
2019-10-31T07:40:00	0.2442	4.148	147.7	0.616159884	0.764095946	0.012794858	0.132002195	0.040684359
2019-10-31T07:45:00	0.2429	4.150	147.8	0.611739046	0.757566905	0.012624779	0.130247513	0.040143549
2019-10-31T07:50:00	0.2431	4.153	147.7	0.612304027	0.758400398	0.012646449	0.130471085	0.040212456
2019-10-31T07:55:00	0.2424	4.156	147.8	0.609875440	0.754819509	0.012553433	0.129511458	0.039916689
2019-10-31T08:00:00	0.2427	4.161	147.8	0.611106047	0.756633388	0.012600522	0.129997261	0.040066418
2019-10-31T08:05:00	0.2415	4.169	147.8	0.607011944	0.750603718	0.012444215	0.128384674	0.039569403
2019-10-31T08:10:00	0.2407	4.176	147.8	0.604246470	0.746538769	0.012339202	0.127301277	0.039235490
2019-10-31T08:15:00	0.2447	4.186	147.8	0.617784654	0.766499665	0.012857662	0.132650134	0.040884059
2019-10-31T08:20:00	0.2450	4.197	147.9	0.618680617	0.767826124	0.012892363	0.133008135	0.040994399
2019-10-31T08:25:00	0.2443	4.210	147.9	0.616256382	0.764238646	0.012798584	0.132040632	0.040696205
2019-10-31T08:30:00	0.2442	4.224	148.0	0.616156386	0.764090772	0.012794723	0.132000802	0.040683929
2019-10-31T08:35:00	0.2439	4.240	148.1	0.615059734	0.762469622	0.012752423	0.131564400	0.040549426
2019-10-31T08:40:00	0.2448	4.257	148.2	0.617948906	0.766742787	0.012864020	0.132715727	0.040904276
2019-10-31T08:45:00	0.2429	4.274	148.3	0.611535292	0.757266381	0.012616968	0.130166933	0.040118713
2019-10-31T08:50:00	0.2442	4.294	148.3	0.616088553	0.763990468	0.012792105	0.131973787	0.040675603
2019-10-31T08:55:00	0.2440	4.318	148.5	0.615324135	0.762860386	0.012762615	0.131669547	0.040581833
2019-10-31T09:00:00	0.2445	4.345	148.5	0.616884967	0.765168374	0.012822866	0.132291147	0.040773416
2019-10-31T09:05:00	0.2425	4.381	148.7	0.610469432	0.755694876	0.012576151	0.129745829	0.039988924
2019-10-31T09:10:00	0.2451	4.421	148.9	0.619009031	0.768312505	0.012905095	0.133139484	0.041034882
2019-10-31T09:15:00	0.2449	4.459	149.1	0.618245240	0.767181472	0.012875495	0.132834109	0.040940762
2019-10-31T09:20:00	0.2438	4.498	149.3	0.614823992	0.762121262	0.012743340	0.131470686	0.040520542
2019-10-31T09:25:00	0.2426	4.542	149.5	0.610734174	0.756085124	0.012586283	0.129850359	0.040021142
2019-10-31T09:30:00	0.2435	4.595	149.8	0.613626861	0.760352968	0.012697263	0.130995326	0.040374032
2019-10-31T09:35:00	0.2437	4.652	150.0	0.614191542	0.761186915	0.012718987	0.131219440	0.040443106
2019-10-31T09:40:00	0.2444	4.712	150.3	0.616749328	0.764967726	0.012817624	0.132237069	0.040756749
2019-10-31T09:45:00	0.2432	4.773	150.5	0.612661726	0.758928235	0.012660179	0.130612735	0.040256113
2019-10-31T09:50:00	0.2424	4.830	150.8	0.609900654	0.754856659	0.012554397	0.129521402	0.039919754
2019-10-31T09:55:00	0.2424	4.877	151.0	0.610133218	0.755199360	0.012563290	0.129613142	0.039948029
2019-10-31T10:00:00	0.2427	4.919	151.3	0.611031111	0.756522897	0.012597652	0.129967651	0.040057292
2019-10-31T10:05:00	0.2422	4.964	151.4	0.609458773	0.754205641	0.012537510	0.129347184	0.039866058
2019-10-31T10:10:00	0.2419	5.015	151.7	0.608218659	0.752379468	0.012490181	0.128858896	0.039715563
2019-10-31T10:15:00	0.2426	5.072	151.9	0.610639448	0.755945484	0.012582657	0.129812952	0.040009613
2019-10-31T10:20:00	0.2409	5.120	152.2	0.605070791	0.747749762	0.012370456	0.127623717	0.039334869
2019-10-31T10:25:00	0.2402	5.152	152.3	0.602829050	0.744457798	0.012285557	0.126747823	0.039064910
2019-10-31T10:30:00	0.2385	5.173	152.5	0.596914139	0.735792032	0.012062990	0.124451644	0.038357205
2019-10-31T10:35:00	0.2380	5.186	152.5	0.595335520	0.733484187	0.012003943	0.123842468	0.038169451
2019-10-31T10:40:00	0.2372	5.192	152.5	0.592753249	0.729713549	0.011907676	0.122849300	0.037863347
2019-10-31T10:45:00	0.2363	5.196	162.6	0.589834463	0.725458229	0.011799343	0.121731644	0.037518875
2019-10-31T10:50:00	0.2367	5.204	152.6	0.590929973	0.727054548	0.011839944	0.122150520	0.037647977
2019-10-31T10:55:00	0.2350	5.221	152.7	0.585330154	0.718905287	0.011633157	0.120017135	0.036990447
2019-10-31T11:00:00	0.2359	5.240	162.9	0.588436273	0.723422311	0.011747627	0.121198106	0.037354433
2019-10-31T11:05:00	0.2358	5.258	162.9	0.587858478	0.722581455	0.011726290	0.120977976	0.037286587
2019-10-31T11:10:00	0.2352	5.277	152.9	0.585940805	0.719792683	0.011655616	0.120248842	0.037061861
2019-10-31T11:15:00	0.2364	5.291	153.0	0.590050386	0.725772781	0.011807339	0.121814145	0.037544303
2019-10-31T11:20:00	0.2343	5.310	153.1	0.583108303	0.715679121	0.011551627	0.119176001	0.036731201
2019-10-31T11:25:00	0.2356	5.330	153.2	0.587221191	0.721654341	0.011702779	0.120735417	0.037211828
2019-10-31T11:30:00	0.2363	5.353	153.3	0.589656394	0.725198849	0.011792750	0.121663627	0.037497911
2019-10-31T11:35:00	0.2359	5.372	153.3	0.588409313	0.723383071	0.011746631	0.121187831	0.037351266
2019-10-31T11:40:00	0.2330	5.391	153.4	0.578443761	0.708919466	0.011381416	0.117419973	0.036189976
2019-10-31T11:45:00	0.2354	5.409	153.5	0.586583788	0.720727398	0.011679288	0.120493064	0.037137132
2019-10-31T11:50:00	0.2339	5.431	153.6	0.581647944	0.713560888	0.011498199	0.118624797	0.036561314
2019-10-31T11:55:00	0.2321	5.453	153.7	0.575697337	0.704947909	0.011281802	0.116392274	0.035873229
2019-10-31T12:00:00	0.2333	5.474	153.8	0.579483295	0.710424349	0.011419237	0.117810165	0.036310237
2019-10-31T12:05:00	0.2335	5.493	153.9	0.580246495	0.711529769	0.011447045	0.118097056	0.036398660
2019-10-31T12:10:00	0.2337	5.510	154.0	0.581009530	0.712635433	0.011474882	0.118384241	0.036487173
2019-10-31T12:15:00	0.2337	5.531	154.1	0.581101521	0.712768763	0.011478240	0.118418888	0.036497851
2019-10-31T12:20:00	0.2347	5.548	154.2	0.584211375	0.717280287	0.011592067	0.119593216	0.036859791
2019-10-31T12:25:00	0.2325	5.565	154.3	0.576921887	0.706717938	0.011326162	0.116849925	0.036014282
2019-10-31T12:30:00	0.2330	5.579	154.4	0.578692894	0.709280042	0.011390474	0.117513425	0.036218779
2019-10-31T12:35:00	0.2315	5.594	154.4	0.573409747	0.701644637	0.011199172	0.115539789	0.035610485
2019-10-31T12:40:00	0.2302	5.607	154.5	0.569128622	0.695474346	0.011045364	0.113952986	0.035121417
2019-10-31T12:45:00	0.2300	5.621	154.5	0.568547640	0.694638157	0.011024575	0.113738507	0.035055312
2019-10-31T12:50:00	0.2303	5.633	154.6	0.569649811	0.696224714	0.011064031	0.114145568	0.035180773
2019-10-31T12:55:00	0.2313	5.646	154.7	0.572769831	0.700721377	0.011176113	0.115301892	0.035537163
2019-10-31T13:00:00	0.2286	5.659	154.7	0.563771210	0.687774162	0.010854415	0.111983000	0.034514248
2019-10-31T13:05:00	0.2303	5.668	154.7	0.569590113	0.696138754	0.011061892	0.114123501	0.035173971
2019-10-31T13:10:00	0.2294	5.679	154.8	0.566651999	0.691911761	0.010956882	0.113040128	0.034840065
2019-10-31T13:15:00	0.2320	5.688	154.8	0.575155467	0.704165059	0.011262201	0.116190053	0.035810903
2019-10-31T13:20:00	0.2307	5.695	154.9	0.570876478	0.697991660	0.011108028	0.114599479	0.035320673
2019-10-31T13:25:00	0.2308	5.702	154.9	0.571305160	0.698609448	0.011123425	0.114758324	0.035369630
2019-10-31T13:30:00	0.2309	5.707	154.9	0.571397406	0.698742406	0.011126739	0.114792520	0.035380169
2019-10-31T13:35:00	0.2308	5.710	154.9	0.571153241	0.698390495	0.011117967	0.114702019	0.035352276
2019-10-31T13:40:00	0.2301	5.713	154.9	0.568889789	0.695130568	0.011036816	0.113864792	0.035094235
2019-10-31T13:45:00	0.2306	5.716	155.0	0.570664860	0.697686748	0.011100432	0.114521108	0.035296518
2019-10-31T13:50:00	0.2313	5.719	155.0	0.572775316	0.700729288	0.011176310	0.115303930	0.035537791
2019-10-31T13:55:00	0.2317	5.721	154.9	0.574212303	0.702803033	0.011228126	0.115838503	0.035702551
2019-10-31T14:00:00	0.2317	5.722	154.9	0.574304473	0.702936102	0.011231453	0.115872833	0.035713133
2019-10-31T14:05:00	0.2298	5.724	155.0	0.568004662	0.693856918	0.011005163	0.113538243	0.034993589
2019-10-31T14:10:00	0.2300	5.724	155.0	0.568433697	0.694474195	0.011020500	0.113696467	0.035042355
2019-10-31T14:15:00	0.2312	5.725	155.0	0.572563813	0.700424210	0.011168694	0.115225356	0.035513574
2019-10-31T14:20:00	0.2307	5.724	154.9	0.570974222	0.698132509	0.011111538	0.114635688	0.035331832
2019-10-31T14:25:00	0.2300	5.722	155.0	0.568373978	0.694388266	0.011018365	0.113674436	0.035035565
2019-10-31T14:30:00	0.2288	5.719	155.0	0.564423769	0.688710816	0.010877583	0.112222019	0.034587916
2019-10-31T14:35:00	0.2295	5.716	155.0	0.566874846	0.692232117	0.010964829	0.113122115	0.034865334
2019-10-31T14:40:00	0.2280	5.712	154.9	0.561911141	0.685106233	0.010788515	0.111303117	0.034304702
2019-10-31T14:45:00	0.2301	5.708	154.9	0.568743256	0.694919670	0.011031572	0.113810699	0.035077563
2019-10-31T14:50:00	0.2291	5.705	154.9	0.565467473	0.690209631	0.010914690	0.112604846	0.034705907
2019-10-31T14:55:00	0.2298	5.700	154.8	0.567917819	0.693731991	0.011002060	0.113506230	0.034983722
2019-10-31T15:00:00	0.2299	5.696	154.9	0.568346865	0.694349252	0.011017395	0.113664435	0.035032483
2019-10-31T15:05:00	0.2303	5.691	154.8	0.569449099	0.695935717	0.011056840	0.114071384	0.035157908
2019-10-31T15:10:00	0.2292	5.685	154.8	0.565837058	0.690740589	0.010927845	0.112740567	0.034747738
2019-10-31T15:15:00	0.2313	5.680	154.8	0.572997774	0.701050210	0.011184324	0.115386604	0.035563272
2019-10-31T15:20:00	0.2308	5.675	154.8	0.571071963	0.698273362	0.011115048	0.114671901	0.035342994
2019-10-31T15:25:00	0.2326	5.668	154.7	0.577214607	0.707141234	0.011336779	0.116959459	0.036048041
2019-10-31T15:30:00	0.2311	5.660	154.7	0.572265563	0.699994065	0.011157958	0.115114601	0.035479438
2019-10-31T15:35:00	0.2332	5.651	154.7	0.579413158	0.710322787	0.011416683	0.117783818	0.036302117
2019-10-31T15:40:00	0.2322	5.638	154.6	0.575811386	0.705112709	0.011285930	0.116434859	0.035886354
2019-10-31T15:45:00	0.2335	5.623	154.5	0.580268387	0.711561484	0.011447843	0.118105290	0.036401197
2019-10-31T15:50:00	0.2337	5.606	154.5	0.581031417	0.712667154	0.011475681	0.118392484	0.036489713
2019-10-31T15:55:00	0.2337	5.589	154.4	0.581123407	0.712800485	0.011479039	0.118427132	0.036500392
2019-10-31T16:00:00	0.2334	5.571	154.3	0.579873297	0.710989168	0.011433443	0.117956724	0.036355408
2019-10-31T16:05:00	0.2339	5.552	154.2	0.581684301	0.713613601	0.011499527	0.118638503	0.036565539
2019-10-31T16:10:00	0.2355	5.533	154.2	0.586845204	0.721107522	0.011688920	0.120592429	0.037167758
2019-10-31T16:15:00	0.2339	5.513	154.1	0.581615804	0.713514289	0.011497024	0.118612680	0.036557580
2019-10-31T16:20:00	0.2368	5.493	154.0	0.591462712	0.727831189	0.011859714	0.122354483	0.037710840
2019-10-31T16:25:00	0.2372	5.474	153.9	0.592599073	0.729488597	0.011901941	0.122790132	0.037845111
2019-10-31T16:30:00	0.2359	5.454	153.8	0.588382695	0.723344328	0.011745648	0.121177686	0.037348140
2019-10-31T16:35:00	0.2379	5.434	153.7	0.594870698	0.732805043	0.011986585	0.123663390	0.038114258
2019-10-31T16:40:00	0.2387	5.416	163.8	0.597675841	0.736906339	0.012091534	0.124746127	0.038447968
2019-10-31T16:45:00	0.2377	5.397	153.5	0.594468273	0.732217210	0.011971568	0.123508458	0.038066506
2019-10-31T16:50:00	0.2400	5.380	153.4	0.601945735	0.743161820	0.012252186	0.126403548	0.038958801
2019-10-31T16:55:00	0.2399	5.362	153.4	0.601744930	0.742867295	0.012244607	0.126325350	0.038934700
2019-10-31T17:00:00	0.2421	5.343	153.2	0.608874226	0.753344685	0.012515190	0.129116903	0.039795084
2019-10-31T17:05:00	0.2408	5.326	153.2	0.604677224	0.747171510	0.012355529	0.127469717	0.039287405
2019-10-31T17:10:00	0.2418	5.310	153.1	0.608140494	0.752264407	0.012487201	0.128828151	0.039706087
2019-10-31T17:15:00	0.2415	5.293	163.3	0.606941108	0.750499516	0.012441520	0.128356864	0.039560832
2019-10-31T17:20:00	0.2427	5.273	153.0	0.611067505	0.756576559	0.012599046	0.129982032	0.040061724
2019-10-31T17:25:00	0.2423	5.255	163.0	0.609536344	0.754319913	0.012540474	0.129377758	0.039875482
2019-10-31T17:30:00	0.2423	5.236	152.8	0.609668752	0.754514981	0.012545533	0.129429956	0.039891569
2019-10-31T17:35:00	0.2423	5.216	162.8	0.609801156	0.754710057	0.012550594	0.129482163	0.039907660
2019-10-31T17:40:00	0.2440	5.196	152.6	0.615253465	0.762755935	0.012759891	0.131641439	0.040573170
2019-10-31T17:45:00	0.2436	5.178	152.5	0.614056479	0.760987422	0.012713789	0.131165817	0.040426579
2019-10-31T17:50:00	0.2437	5.160	152.4	0.614188719	0.761182744	0.012718878	0.131218319	0.040442760
2019-10-31T17:55:00	0.2429	5.142	152.4	0.611661297	0.757452227	0.012621798	0.130216762	0.040134071
2019-10-31T18:00:00	0.2441	5.124	152.3	0.615782219	0.763537538	0.012780283	0.131851822	0.040638012
2019-10-31T18:05:00	0.2452	5.107	152.2	0.619234686	0.768646752	0.012913847	0.133229774	0.041062710
2019-10-31T18:10:00	0.2435	5.088	152.1	0.613720604	0.760491394	0.012700868	0.131032518	0.040385494
2019-10-31T18:15:00	0.2451	5.072	152.0	0.618835016	0.768054777	0.012898348	0.133069878	0.041013429
2019-10-31T18:20:00	0.2455	5.055	152.0	0.620294429	0.770217051	0.012954988	0.133654226	0.041193530
2019-10-31T18:25:00	0.2459	5.038	151.8	0.621753244	0.772380235	0.013011734	0.134239658	0.041373966
2019-10-31T18:30:00	0.2454	5.022	151.8	0.619894878	0.769624896	0.012939469	0.133494114	0.041144183
2019-10-31T18:35:00	0.2450	5.005	151.7	0.618699452	0.767854016	0.012893093	0.133015666	0.040996720
2019-10-31T18:40:00	0.2443	4.987	151.6	0.616175234	0.764118644	0.012795451	0.132008309	0.040686243
2019-10-31T18:45:00	0.2461	4.972	151.5	0.622281035	0.773163303	0.013032295	0.134451790	0.041439347
2019-10-31T18:50:00	0.2451	4.957	151.5	0.619095641	0.768440789	0.012908454	0.133174135	0.041045562
2019-10-31T18:55:00	0.2467	4.942	151.6	0.624202347	0.776015888	0.013107288	0.135225477	0.041677805
2019-10-31T19:00:00	0.2457	4.927	151.4	0.621018670	0.771290758	0.012983144	0.133944703	0.041283058
2019-10-31T19:05:00	0.2469	4.910	151.3	0.625128785	0.777392491	0.013143529	0.135599364	0.041793041
2019-10-31T19:10:00	0.2464	4.891	151.2	0.623272177	0.774634469	0.013070954	0.134850623	0.041562272
2019-10-31T19:15:00	0.2474	4.875	151.1	0.626717403	0.779754718	0.013205793	0.136241733	0.041991025
2019-10-31T19:20:00	0.2471	4.857	151.0	0.625524261	0.777980352	0.013159015	0.135759130	0.041842282
2019-10-31T19:25:00	0.2476	4.842	151.0	0.627312080	0.780639534	0.013229140	0.136482600	0.042065263
2019-10-31T19:30:00	0.2481	4.825	150.9	0.629099005	0.783300086	0.013299423	0.137207700	0.042288746
2019-10-31T19:35:00	0.2499	4.809	150.9	0.634852358	0.791884607	0.013527027	0.139555847	0.043012467
2019-10-31T19:40:00	0.2495	4.795	150.7	0.633661927	0.790106077	0.013479769	0.139068293	0.042862198
2019-10-31T19:45:00	0.2485	4.783	150.7	0.630155824	0.784874855	0.013341081	0.137637475	0.042421207
2019-10-31T19:50:00	0.2491	4.770	150.6	0.632272010	0.788031029	0.013424700	0.138500158	0.042687094
2019-10-31T19:55:00	0.2487	4.756	150.5	0.631080721	0.786253821	0.013377594	0.138014174	0.042537309
2019-10-31T20:00:00	0.2495	4.741	150.5	0.633526924	0.789904455	0.013474415	0.139013057	0.042845174
2019-10-31T20:05:00	0.2480	4.727	150.4	0.628696952	0.782701234	0.013283593	0.137044381	0.042238409
2019-10-31T20:10:00	0.2493	4.714	150.3	0.632798249	0.788816474	0.013445536	0.138715118	0.042753347
2019-10-31T20:15:00	0.2506	4.700	150.3	0.637225078	0.795433088	0.013621477	0.140530267	0.043312793
2019-10-31T20:20:00	0.2506	4.684	150.2	0.637356464	0.795629718	0.013626717	0.140584327	0.043329455
2019-10-31T20:25:00	0.2519	4.668	150.1	0.641447870	0.801760228	0.013790417	0.142273189	0.043849979
2019-10-31T20:30:00	0.2512	4.653	150.0	0.639269701	0.798494719	0.013703140	0.141372772	0.043572461
2019-10-31T20:35:00	0.2511	4.637	149.9	0.638740934	0.797702600	0.013681997	0.141154638	0.043505230
2019-10-31T20:40:00	0.2497	4.623	149.9	0.634248489	0.790982263	0.013503044	0.139308415	0.042936207
2019-10-31T20:45:00	0.2507	4.608	149.8	0.637683167	0.796118724	0.013639751	0.140718799	0.043370900
2019-10-31T20:50:00	0.2509	4.593	149.7	0.638144675	0.796809658	0.013658175	0.140908871	0.043429482
2019-10-31T20:55:00	0.2496	4.579	149.7	0.633982004	0.790584161	0.013492467	0.139199297	0.042902575
2019-10-31T21:00:00	0.2494	4.564	149.6	0.633121886	0.789299639	0.013458359	0.138847405	0.042794119
2019-10-31T21:05:00	0.2495	4.548	149.6	0.633583981	0.789989665	0.013476678	0.139036400	0.042852369
2019-10-31T21:10:00	0.2492	4.534	149.5	0.632723767	0.788705291	0.013442586	0.138684683	0.042743966
2019-10-31T21:15:00	0.2496	4.521	149.4	0.633847014	0.790382522	0.013487111	0.139144039	0.042885544
2019-10-31T21:20:00	0.2469	4.507	149.4	0.625043673	0.777265991	0.013140197	0.135564992	0.041782447
2019-10-31T21:25:00	0.2463	4.494	149.3	0.622855498	0.774015886	0.013054695	0.134682878	0.041510571
2019-10-31T21:30:00	0.2470	4.479	149.3	0.625307335	0.777657882	0.013150519	0.135671483	0.041815269
2019-10-31T21:35:00	0.2458	4.466	149.3	0.621461371	0.771947291	0.013000370	0.134122422	0.041337833
2019-10-31T21:40:00	0.2443	4.452	149.1	0.616282905	0.764277868	0.012799608	0.132051197	0.040699461
2019-10-31T21:45:00	0.2450	4.439	149.1	0.618739264	0.767912974	0.012894636	0.133031586	0.041001627
2019-10-31T21:50:00	0.2454	4.425	149.0	0.619866916	0.769583461	0.012938383	0.133482913	0.041140730
2019-10-31T21:55:00	0.2467	4.412	149.0	0.624309776	0.776175480	0.013111488	0.135268805	0.041691160
2019-10-31T22:00:00	0.2452	4.398	148.9	0.619467317	0.768991378	0.012922872	0.133322889	0.041091409
2019-10-31T22:05:00	0.2447	4.386	148.9	0.617742837	0.766437773	0.012856044	0.132633437	0.040878913
2019-10-31T22:10:00	0.2455	4.374	148.8	0.620333171	0.770274477	0.012956494	0.133669756	0.041198317
2019-10-31T22:15:00	0.2445	4.361	148.8	0.616949060	0.765263193	0.012825343	0.132316704	0.040781293
2019-10-31T22:20:00	0.2453	4.350	148.7	0.619539972	0.769099019	0.012925692	0.133351977	0.041100374
2019-10-31T22:25:00	0.2455	4.338	148.7	0.620470590	0.770478174	0.012961834	0.133724850	0.041215298
2019-10-31T22:30:00	0.2449	4.327	148.6	0.618414660	0.767432308	0.012882058	0.132901814	0.040961630
2019-10-31T22:35:00	0.2448	4.316	148.6	0.618017869	0.766844871	0.012866690	0.132743272	0.040912765
2019-10-31T22:40:00	0.2452	4.306	148.6	0.619280770	0.768715018	0.012915634	0.133248217	0.041068395
2019-10-31T22:45:00	0.2462	4.294	148.5	0.622533184	0.773537493	0.013042125	0.134553196	0.041470602
2019-10-31T22:50:00	0.2452	4.283	148.4	0.619483029	0.769014655	0.012923482	0.133329179	0.041093348
2019-10-31T22:55:00	0.2454	4.272	148.4	0.620081882	0.769902029	0.012946731	0.133569040	0.041167275
2019-10-31T23:00:00	0.2446	4.258	148.3	0.617361691	0.765873712	0.012841298	0.132481304	0.040832024
2019-10-31T23:05:00	0.2468	4.247	148.3	0.624594585	0.776598630	0.013122626	0.135383709	0.041726574
2019-10-31T23:10:00	0.2470	4.233	148.2	0.625192581	0.777487311	0.013146026	0.135625129	0.041800982
2019-10-31T23:15:00	0.2483	4.219	148.2	0.629763447	0.784290062	0.013325607	0.137477826	0.042372001
2019-10-31T23:20:00	0.2476	4.206	148.1	0.627381762	0.780743233	0.013231877	0.136510838	0.042073966
2019-10-31T23:25:00	0.2488	4.193	148.0	0.631288381	0.786563529	0.013385799	0.138098824	0.042563399
2019-10-31T23:30:00	0.2493	4.180	148.0	0.632877223	0.788934368	0.013448665	0.138747393	0.042763294
2019-10-31T23:35:00	0.2493	4.168	148.0	0.632812666	0.788837996	0.013446107	0.138721010	0.042755162
2019-10-31T23:40:00	0.2477	4.155	147.9	0.627454255	0.780851120	0.013234725	0.136540219	0.042083022
2019-10-31T23:45:00	0.2475	4.143	147.9	0.627058468	0.780262150	0.013219181	0.136379851	0.042033594
2019-10-31T23:50:00	0.2474	4.132	147.8	0.626662637	0.779673248	0.013203644	0.136219562	0.041984192
2019-10-31T23:55:00	0.2463	4.121	147.8	0.622953017	0.774160645	0.013058499	0.134722127	0.041522668
2019-11-01T00:00:00	0.2486	4.112	147.7	0.630505443	0.785396030	0.013354877	0.137779807	0.042465075
2019-11-01T00:05:00	0.2515	4.102	147.7	0.640022214	0.799622429	0.013733260	0.141683511	0.043668234
2019-11-01T00:10:00	0.2497	4.094	147.6	0.634344125	0.791125149	0.013506841	0.139347586	0.042948279
2019-11-01T00:15:00	0.2521	4.086	147.6	0.642202354	0.802892289	0.013820715	0.142585773	0.043946320
2019-11-01T00:20:00	0.2499	4.079	147.6	0.634875973	0.791919901	0.013527966	0.139565528	0.043015451
2019-11-01T00:25:00	0.2507	4.075	147.6	0.637453924	0.795775587	0.013630605	0.140624435	0.043341817
2019-11-01T00:30:00	0.2522	4.067	147.6	0.642338935	0.803097274	0.013826204	0.142642397	0.043963772
2019-11-01T00:35:00	0.2515	4.056	147.5	0.640295537	0.800032149	0.013744208	0.141796464	0.043703047
2019-11-01T00:40:00	0.2515	4.046	147.5	0.640231113	0.799935570	0.013741627	0.141769836	0.043694840
2019-11-01T00:45:00	0.2512	4.040	147.5	0.639176738	0.798355438	0.013699422	0.141334409	0.043560638
2019-11-01T00:50:00	0.2531	4.037	147.4	0.645377489	0.807661709	0.013948602	0.143905154	0.044352966
2019-11-01T00:55:00	0.2506	4.032	147.4	0.637067058	0.795196615	0.013615176	0.140465262	0.043292758
2019-11-01T01:00:00	0.2515	4.025	147.4	0.640303347	0.800043857	0.013744521	0.141799692	0.043704042
2019-11-01T01:05:00	0.2527	4.021	147.4	0.644195919	0.805885852	0.013900939	0.143413430	0.044201412
2019-11-01T01:10:00	0.2514	4.017	147.4	0.639844546	0.799356135	0.013726146	0.141610114	0.043645612
2019-11-01T01:15:00	0.2506	4.014	147.4	0.637139356	0.795304803	0.013618059	0.140495001	0.043301924
2019-11-01T01:20:00	0.2490	4.013	147.4	0.631787421	0.787307957	0.013405528	0.138302364	0.042626132
2019-11-01T01:25:00	0.2508	4.011	147.4	0.638000941	0.796594452	0.013652435	0.140849660	0.043411233
2019-11-01T01:30:00	0.2513	4.010	147.4	0.639586812	0.798969880	0.013715829	0.141503675	0.043612807
2019-11-01T01:35:00	0.2513	4.007	147.4	0.639522375	0.798873321	0.013713250	0.141477071	0.043604607
2019-11-01T01:40:00	0.2529	4.005	147.3	0.644734110	0.806694586	0.013922639	0.143637295	0.044270409
2019-11-01T01:45:00	0.2540	4.002	147.3	0.648292714	0.812048268	0.014066560	0.145122110	0.044728044
2019-11-01T01:50:00	0.2525	4.002	147.2	0.643616692	0.805015730	0.013877606	0.143172699	0.044127216
2019-11-01T01:55:00	0.2516	3.999	147.3	0.640584458	0.800465319	0.013755787	0.141915914	0.043739863
2019-11-01T02:00:00	0.2502	3.997	147.2	0.635898389	0.793448393	0.013568624	0.139984993	0.043144734
2019-11-01T02:05:00	0.2505	3.995	147.2	0.636824759	0.794834063	0.013605518	0.140365618	0.043262047
2019-11-01T02:10:00	0.2503	3.994	147.4	0.636099710	0.793749467	0.013576637	0.140067666	0.043170215
2019-11-01T02:15:00	0.2519	3.993	147.4	0.641646227	0.802057805	0.013798379	0.142355334	0.043875297
2019-11-01T02:20:00	0.2497	3.995	147.4	0.634318710	0.791087176	0.013505832	0.139337176	0.042945071
2019-11-01T02:25:00	0.2492	4.000	147.4	0.632601387	0.788522617	0.013437740	0.138634683	0.042728556
2019-11-01T02:30:00	0.2486	4.002	147.3	0.630552431	0.785466082	0.013356732	0.137798942	0.042470972
2019-11-01T02:35:00	0.2514	4.007	147.3	0.639739115	0.799198123	0.013721925	0.141566568	0.043632191
2019-11-01T02:40:00	0.2489	4.010	147.3	0.631746330	0.787246653	0.013403903	0.138285598	0.042620964
2019-11-01T02:45:00	0.2504	4.015	147.3	0.636639115	0.794556317	0.013598120	0.140289298	0.043238524
2019-11-01T02:50:00	0.2483	4.017	147.3	0.629632270	0.784094587	0.013320435	0.137424475	0.042355558
2019-11-01T02:55:00	0.2495	4.021	147.3	0.633536434	0.789918657	0.013474792	0.139016947	0.042846373
2019-11-01T03:00:00	0.2472	4.024	147.3	0.625861051	0.778481083	0.013172210	0.135895265	0.041884241
2019-11-01T03:05:00	0.2497	4.028	147.3	0.634068402	0.790713224	0.013495896	0.139234669	0.042913477
2019-11-01T03:10:00	0.2490	4.031	147.3	0.632020285	0.787655397	0.013414739	0.138397393	0.042655421
2019-11-01T03:15:00	0.2486	4.034	147.4	0.630632691	0.785585744	0.013359900	0.137831630	0.042481047
2019-11-01T03:20:00	0.2509	4.037	147.3	0.638168941	0.796845993	0.013659144	0.140918869	0.043432564
2019-11-01T03:25:00	0.2500	4.043	147.4	0.635132101	0.792302723	0.013538145	0.139670548	0.043047819
2019-11-01T03:30:00	0.2503	4.048	147.4	0.636058669	0.793688087	0.013575004	0.140050810	0.043165020
2019-11-01T03:35:00	0.2503	4.052	147.4	0.636324475	0.794085644	0.013585587	0.140159996	0.043198672
2019-11-01T03:40:00	0.2478	4.058	147.4	0.627993015	0.781653060	0.013255900	0.136758676	0.042150352
2019-11-01T03:45:00	0.2469	4.063	147.4	0.624947525	0.777123097	0.013136434	0.135526170	0.041770482
2019-11-01T03:50:00	0.2481	4.068	147.4	0.628856804	0.782939315	0.013289886	0.137109303	0.042258419
2019-11-01T03:55:00	0.2485	4.073	147.5	0.630115877	0.784815311	0.013339505	0.137621217	0.042416196
2019-11-01T04:00:00	0.2490	4.076	147.5	0.632035941	0.787678758	0.013415359	0.138403784	0.042657390
2019-11-01T04:05:00	0.2503	4.080	147.4	0.636171316	0.793856562	0.013579488	0.140097077	0.043179280
2019-11-01T04:10:00	0.2512	4.084	147.5	0.639312014	0.798558116	0.013704833	0.141390235	0.043577844
2019-11-01T04:15:00	0.2496	4.089	147.5	0.633866780	0.790412046	0.013487895	0.139152129	0.042888038
2019-11-01T04:20:00	0.2474	4.097	147.5	0.626757764	0.779814761	0.013207377	0.136258074	0.041996062
2019-11-01T04:25:00	0.2480	4.098	147.5	0.628582944	0.782531446	0.013279106	0.136998088	0.042224141
2019-11-01T04:30:00	0.2502	4.102	147.5	0.636027017	0.793640752	0.013573744	0.140037811	0.043161013
2019-11-01T04:35:00	0.2486	4.112	147.6	0.630576786	0.785502394	0.013357693	0.137808861	0.042474029
2019-11-01T04:40:00	0.2485	4.118	147.6	0.630415549	0.785262016	0.013351329	0.137743204	0.042453793
2019-11-01T04:45:00	0.2461	4.121	147.6	0.622305033	0.773198915	0.013033231	0.134461440	0.041442322
2019-11-01T04:50:00	0.2478	4.124	147.6	0.628107304	0.781823210	0.013260394	0.136805041	0.042164642
2019-11-01T04:55:00	0.2498	4.128	147.6	0.634561141	0.791449411	0.013515459	0.139436494	0.042975682
2019-11-01T05:00:00	0.2502	4.134	147.7	0.635721715	0.793184204	0.013561594	0.139912462	0.043122380
2019-11-01T05:05:00	0.2482	4.140	147.7	0.629278331	0.783567233	0.013306487	0.137280577	0.042311207
2019-11-01T05:10:00	0.2490	4.146	147.7	0.631763711	0.787272583	0.013404591	0.138292690	0.042623150
2019-11-01T05:15:00	0.2479	4.150	147.7	0.628293728	0.782100776	0.013267726	0.136880688	0.042187957
2019-11-01T05:20:00	0.2479	4.156	147.8	0.628132389	0.781860556	0.013261381	0.136815218	0.042167779
2019-11-01T05:25:00	0.2485	4.160	147.7	0.630287732	0.785071476	0.013346285	0.137691167	0.042437755
2019-11-01T05:30:00	0.2462	4.167	147.8	0.622508510	0.773500875	0.013041163	0.134543271	0.041467543
2019-11-01T05:35:00	0.2488	4.173	147.8	0.631288494	0.786563697	0.013385804	0.138098870	0.042563413
2019-11-01T05:40:00	0.2486	4.181	147.8	0.630465686	0.785336760	0.013353308	0.137763618	0.042460085
2019-11-01T05:45:00	0.2502	4.188	147.5	0.635924430	0.793487334	0.013569660	0.139995685	0.043148030
2019-11-01T05:50:00	0.2500	4.194	147.9	0.635102687	0.792258756	0.013536976	0.139658485	0.043044101
2019-11-01T05:55:00	0.2519	4.195	147.9	0.641543949	0.801904363	0.013794273	0.142312975	0.043862241
2019-11-01T06:00:00	0.2520	4.196	147.9	0.641713016	0.802158010	0.013801061	0.142382999	0.043883823
2019-11-01T06:05:00	0.2503	4.198	147.9	0.636271428	0.794006298	0.013583474	0.140138202	0.043191955
2019-11-01T06:10:00	0.2527	4.204	147.9	0.644029171	0.805635332	0.013894220	0.143344107	0.044180046
2019-11-01T06:15:00	0.2538	4.209	148.0	0.647821544	0.811338805	0.014047460	0.144925059	0.044667311
2019-11-01T06:20:00	0.2501	4.212	148.0	0.635458109	0.792790073	0.013551108	0.139804280	0.043089037
2019-11-01T06:25:00	0.2527	4.216	148.0	0.644206445	0.805901668	0.013901364	0.143417807	0.044202761
2019-11-01T06:30:00	0.2526	4.222	148.0	0.643716223	0.805165226	0.013881614	0.143214050	0.044139961
2019-11-01T06:35:00	0.2514	4.228	148.0	0.639927850	0.799480990	0.013729481	0.141644526	0.043656218
2019-11-01T06:40:00	0.2519	4.237	148.1	0.641416528	0.801713211	0.013789159	0.142260211	0.043845979
2019-11-01T06:45:00	0.2543	4.244	148.1	0.649492285	0.813855374	0.014115249	0.145624421	0.044882861
2019-11-01T06:50:00	0.2524	4.250	148.0	0.643073592	0.804200136	0.013855746	0.142947173	0.044057707
2019-11-01T06:55:00	0.2518	4.256	148.1	0.641264109	0.801484577	0.013783043	0.142197110	0.043826530
2019-11-01T07:00:00	0.2527	4.267	148.1	0.644070793	0.805697863	0.013895897	0.143361409	0.044185379
2019-11-01T07:05:00	0.2540	4.278	148.2	0.648521527	0.812392872	0.014075841	0.145217854	0.044757553
2019-11-01T07:10:00	0.2542	4.288	148.2	0.649019409	0.813142858	0.014096045	0.145426300	0.044821798
2019-11-01T07:15:00	0.2543	4.295	148.2	0.649517221	0.813892952	0.014116262	0.145634872	0.044886082
2019-11-01T07:20:00	0.2538	4.307	148.3	0.647710976	0.811172346	0.014042980	0.144878838	0.044653065
2019-11-01T07:25:00	0.2541	4.316	148.3	0.648867311	0.812913723	0.014089871	0.145362605	0.044802167
2019-11-01T07:30:00	0.2528	4.326	148.5	0.644425329	0.806230554	0.013910187	0.143508833	0.044230816
2019-11-01T07:35:00	0.2525	4.336	148.4	0.643605529	0.804998964	0.013877156	0.143168061	0.044125787
2019-11-01T07:40:00	0.2514	4.344	148.5	0.639817039	0.799314909	0.013725044	0.141598752	0.043642111
2019-11-01T07:45:00	0.2510	4.354	148.5	0.638666127	0.797590554	0.013679007	0.141123792	0.043495723
2019-11-01T07:50:00	0.2508	4.367	148.5	0.637845012	0.796361005	0.013646211	0.140785439	0.043391440
2019-11-01T07:55:00	0.2509	4.382	148.6	0.638344374	0.797108688	0.013666151	0.140991158	0.043454844
2019-11-01T08:00:00	0.2524	4.397	148.7	0.643131878	0.804287655	0.013858091	0.142971368	0.044065164
2019-11-01T08:05:00	0.2540	4.411	148.7	0.648571412	0.812468006	0.014077864	0.145238732	0.044763988
2019-11-01T08:10:00	0.2539	4.426	148.9	0.648081784	0.811730637	0.014058008	0.145033878	0.044700850
2019-11-01T08:15:00	0.2547	4.441	148.9	0.650554187	0.815456109	0.014158423	0.146069840	0.045020143
2019-11-01T08:20:00	0.2563	4.457	148.9	0.655982538	0.823653958	0.014380201	0.148357881	0.045725340
2019-11-01T08:25:00	0.2570	4.475	149.0	0.658121253	0.826890739	0.014468074	0.149264450	0.046004753
2019-11-01T08:30:00	0.2553	4.498	149.1	0.652704424	0.818700371	0.014246057	0.146973940	0.045298796
2019-11-01T08:35:00	0.2576	4.519	149.2	0.660098793	0.829887072	0.014549574	0.150105269	0.046263902
2019-11-01T08:40:00	0.2617	4.536	149.3	0.673694327	0.850577504	0.015116380	0.155952904	0.048066199
2019-11-01T08:45:00	0.2595	4.549	149.3	0.666335958	0.839359449	0.014808195	0.152773418	0.047086251
2019-11-01T08:50:00	0.2597	4.572	149.4	0.667158887	0.840611720	0.014842496	0.153127292	0.047195319
2019-11-01T08:55:00	0.2600	4.595	149.5	0.667981629	0.841864288	0.014876830	0.153481515	0.047304494
2019-11-01T09:00:00	0.2599	4.620	149.6	0.667822057	0.841621306	0.014870168	0.153412780	0.047283309
2019-11-01T09:05:00	0.2606	4.648	149.8	0.669953796	0.844869141	0.014959302	0.154332359	0.047566732
2019-11-01T09:10:00	0.2611	4.689	150.0	0.671757234	0.847619836	0.015034927	0.155112569	0.047807200
2019-11-01T09:15:00	0.2601	4.732	150.2	0.668325557	0.842388067	0.014891195	0.153629717	0.047350171
2019-11-01T09:20:00	0.2615	4.774	150.4	0.673073518	0.849629265	0.015090250	0.155683329	0.047983114
2019-11-01T09:25:00	0.2618	4.810	150.6	0.673894922	0.850883968	0.015124828	0.156040060	0.048093062
2019-11-01T09:30:00	0.2608	4.853	150.8	0.670792431	0.846147923	0.014994444	0.154694916	0.047678475
2019-11-01T09:35:00	0.2604	4.904	151.0	0.669324081	0.843909325	0.014932943	0.154060415	0.047482916
2019-11-01T09:40:00	0.2601	4.958	151.3	0.668509912	0.842668868	0.014898898	0.153709188	0.047374665
2019-11-01T09:45:00	0.2603	5.007	151.5	0.669005049	0.843423184	0.014919597	0.153922737	0.047440482
2019-11-01T09:50:00	0.2583	5.047	151.6	0.662620959	0.833713471	0.014653867	0.151181242	0.046595527
2019-11-01T09:55:00	0.2565	5.083	151.9	0.656554052	0.824518518	0.014403655	0.148599854	0.045799918
2019-11-01T10:00:00	0.2568	5.114	152.1	0.657707557	0.826264337	0.014451054	0.149088865	0.045950636
2019-11-01T10:05:00	0.2561	5.144	152.2	0.655384959	0.822750268	0.014355698	0.148105092	0.045647428
2019-11-01T10:10:00	0.2569	5.182	152.3	0.657988876	0.826690282	0.014462627	0.149208253	0.045987433
2019-11-01T10:15:00	0.2582	5.215	152.5	0.662230916	0.833121378	0.014637713	0.151014585	0.046544162
2019-11-01T10:20:00	0.2594	5.239	152.6	0.666140437	0.839062005	0.014800052	0.152689404	0.047060357
2019-11-01T10:25:00	0.2585	5.242	152.6	0.663167624	0.834543539	0.014676523	0.151414984	0.046667569
2019-11-01T10:30:00	0.2577	5.234	162.7	0.660520465	0.830526415	0.014566983	0.150284877	0.046319259
2019-11-01T10:35:00	0.2562	5.220	152.5	0.655572392	0.823033681	0.014363381	0.148184356	0.045671858
2019-11-01T10:40:00	0.2566	5.203	152.4	0.656862763	0.824985638	0.014416333	0.148730645	0.045840229
2019-11-01T10:45:00	0.2579	5.187	162.4	0.661106124	0.831414649	0.014591181	0.150534521	0.046396201
2019-11-01T10:50:00	0.2563	5.178	162.4	0.655830362	0.823423801	0.014373959	0.148293486	0.045705493
2019-11-01T10:55:00	0.2552	5.179	162.4	0.652520268	0.818422364	0.014238540	0.146896395	0.045274896
2019-11-01T11:00:00	0.2555	5.180	162.4	0.653483026	0.819876092	0.014277858	0.147302033	0.045399917
2019-11-01T11:05:00	0.2553	5.173	162.4	0.652801991	0.818847673	0.014250040	0.147015033	0.045311461
2019-11-01T11:10:00	0.2560	5.169	152.3	0.655079211	0.822288016	0.014343170	0.147975841	0.045607591
2019-11-01T11:15:00	0.2567	5.172	152.3	0.657354995	0.825730616	0.014436558	0.148939312	0.045904543
2019-11-01T11:20:00	0.2553	5.175	152.3	0.652731386	0.818741075	0.014247157	0.146985295	0.045302295
2019-11-01T11:25:00	0.2527	5.188	152.5	0.644149146	0.805815580	0.013899055	0.143393983	0.044195418
2019-11-01T11:30:00	0.2542	5.202	152.5	0.649065782	0.813212724	0.014097928	0.145445722	0.044827784
2019-11-01T11:35:00	0.2535	5.211	162.7	0.646737612	0.809707395	0.014003572	0.144472270	0.044527757
2019-11-01T11:40:00	0.2522	5.224	152.6	0.642430099	0.803234103	0.013829868	0.142680198	0.043975423
2019-11-01T11:45:00	0.2540	5.242	152.7	0.648336785	0.812114638	0.014068348	0.145140548	0.044733727
2019-11-01T11:50:00	0.2527	5.264	152.8	0.644031187	0.805638361	0.013894301	0.143344945	0.044180304
2019-11-01T11:55:00	0.2544	5.287	163.0	0.649606190	0.814027031	0.014119877	0.145672165	0.044897576
2019-11-01T12:00:00	0.2535	5.309	153.0	0.646619737	0.809530044	0.013998803	0.144423075	0.044512594
2019-11-01T12:05:00	0.2538	5.326	163.2	0.647913314	0.811476973	0.014051179	0.144963428	0.044679136
2019-11-01T12:10:00	0.2540	5.341	153.2	0.648548147	0.812432966	0.014076921	0.145228995	0.044760987
2019-11-01T12:15:00	0.2539	5.353	153.2	0.648195397	0.811901719	0.014062614	0.145081399	0.044715496
2019-11-01T12:20:00	0.2554	5.364	153.3	0.653106518	0.819307485	0.014262475	0.147143330	0.045351003
2019-11-01T12:25:00	0.2557	5.373	163.4	0.654069119	0.820761458	0.014301822	0.147549258	0.045476114
2019-11-01T12:30:00	0.2548	5.386	153.3	0.651086362	0.816258683	0.014180086	0.146293330	0.045089025
2019-11-01T12:35:00	0.2555	5.399	153.4	0.653364664	0.819697327	0.014273022	0.147252132	0.045384537
2019-11-01T12:40:00	0.2518	5.414	153.5	0.641157449	0.801324596	0.013778763	0.142152962	0.043812923
2019-11-01T12:45:00	0.2515	5.424	153.5	0.640144154	0.799805214	0.013738144	0.141733898	0.043683764
2019-11-01T12:50:00	0.2525	5.427	153.5	0.643418443	0.804717983	0.013869624	0.143090353	0.044101837
2019-11-01T12:55:00	0.2512	5.426	153.6	0.639106949	0.798250882	0.013696631	0.141305613	0.043551762
2019-11-01T13:00:00	0.2500	5.423	153.6	0.635120687	0.792285662	0.013537691	0.139665867	0.043046377
2019-11-01T13:05:00	0.2487	5.421	153.6	0.630799201	0.785834014	0.013366475	0.137899458	0.042501952
2019-11-01T13:10:00	0.2500	5.420	153.6	0.635073385	0.792214958	0.013535811	0.139646469	0.043040398
2019-11-01T13:15:00	0.2493	5.422	153.6	0.633066732	0.789217292	0.013456173	0.138824856	0.042787169
2019-11-01T13:20:00	0.2504	5.424	153.6	0.636677756	0.794614126	0.013599660	0.140305182	0.043243420
2019-11-01T13:25:00	0.2481	5.428	153.6	0.629050049	0.783227159	0.013297495	0.137187808	0.042282615
2019-11-01T13:30:00	0.2505	5.432	153.7	0.636960722	0.795037498	0.013610937	0.140421528	0.043279279
2019-11-01T13:35:00	0.2520	5.436	153.7	0.641887192	0.802419348	0.013808055	0.142455158	0.043906063
2019-11-01T13:40:00	0.2513	5.440	153.7	0.639554369	0.798921264	0.013714530	0.141490280	0.043608678
2019-11-01T13:45:00	0.2517	5.442	153.7	0.640850490	0.800864236	0.013766452	0.142025947	0.043773776
2019-11-01T13:50:00	0.2509	5.444	153.7	0.638186889	0.796872867	0.013659861	0.140926263	0.043434843
2019-11-01T13:55:00	0.2503	5.450	153.8	0.636181978	0.793872509	0.013579913	0.140101456	0.043180630
2019-11-01T14:00:00	0.2515	5.457	153.8	0.640119826	0.799768746	0.013737169	0.141723845	0.043680665
2019-11-01T14:05:00	0.2506	5.462	153.8	0.637125480	0.795284039	0.013617505	0.140489293	0.043300165
2019-11-01T14:10:00	0.2494	5.464	153.8	0.633137013	0.789322225	0.013458958	0.138853590	0.042796025
2019-11-01T14:15:00	0.2501	5.468	153.9	0.635426714	0.792743137	0.013549859	0.139791398	0.043085067
2019-11-01T14:20:00	0.2498	5.475	153.9	0.634411799	0.791226262	0.013509528	0.139375308	0.042956824
2019-11-01T14:25:00	0.2498	5.484	153.9	0.634718598	0.791684707	0.013521713	0.139501020	0.042995569
2019-11-01T14:30:00	0.2506	5.489	154.0	0.637337502	0.795601340	0.013625961	0.140576524	0.043327050
2019-11-01T14:35:00	0.2511	5.497	164.5	0.638964488	0.798037465	0.013690934	0.141246840	0.043533648
2019-11-01T14:40:00	0.2482	5.505	154.0	0.629356595	0.783683835	0.013309571	0.137312390	0.042321012
2019-11-01T14:45:00	0.2509	5.509	154.1	0.638257070	0.796977955	0.013662664	0.140955181	0.043443756
2019-11-01T14:50:00	0.2510	5.515	154.1	0.638563540	0.797436907	0.013674907	0.141081496	0.043482687
2019-11-01T14:55:00	0.2494	5.520	154.1	0.633254620	0.789497826	0.013463619	0.138901679	0.042810846
2019-11-01T15:00:00	0.2471	5.524	154.2	0.625619606	0.778122098	0.013162750	0.135797663	0.041854158
2019-11-01T15:05:00	0.2483	5.528	154.2	0.629569078	0.784000427	0.013317944	0.137398778	0.042347638
2019-11-01T15:10:00	0.2479	5.533	154.2	0.628221477	0.781993198	0.013264884	0.136851367	0.042178920
2019-11-01T15:15:00	0.2468	5.540	154.2	0.624554463	0.776539014	0.013121056	0.135367519	0.041721584
2019-11-01T15:20:00	0.2483	5.548	154.3	0.629498015	0.783894540	0.013315144	0.137369883	0.042338732
2019-11-01T15:25:00	0.2496	5.555	154.4	0.633773752	0.790273094	0.013484205	0.139114054	0.042876303
2019-11-01T15:30:00	0.2487	5.563	154.4	0.630774097	0.785796583	0.013365484	0.137889231	0.042498800
2019-11-01T15:35:00	0.2498	5.568	154.4	0.634717887	0.791683644	0.013521685	0.139500729	0.042995479
2019-11-01T15:40:00	0.2491	5.570	154.4	0.632380395	0.788192781	0.013428990	0.138544417	0.042700735
2019-11-01T15:45:00	0.2492	5.575	154.5	0.632687368	0.788650957	0.013441145	0.138669811	0.042739382
2019-11-01T15:50:00	0.2522	5.582	154.5	0.642568875	0.803442408	0.013835447	0.142737752	0.043993161
2019-11-01T15:55:00	0.2508	5.592	154.5	0.637926231	0.796482598	0.013649453	0.140818888	0.043401749
2019-11-01T16:00:00	0.2477	5.601	154.5	0.627653426	0.781147556	0.013242551	0.136620958	0.042107906
2019-11-01T16:05:00	0.2478	5.609	154.6	0.627867061	0.781465555	0.013250948	0.136707587	0.042134606
2019-11-01T16:10:00	0.2475	5.618	154.7	0.627087386	0.780305178	0.013220316	0.136391564	0.042037205
2019-11-01T16:15:00	0.2457	5.626	154.7	0.621004130	0.771269198	0.012982578	0.133938868	0.041281260
2019-11-01T16:20:00	0.2445	5.638	154.8	0.616903586	0.765195918	0.012823586	0.132298571	0.040775704
2019-11-01T16:25:00	0.2444	5.650	154.8	0.616785777	0.765021643	0.012819033	0.132251600	0.040761227
2019-11-01T16:30:00	0.2447	5.661	154.9	0.617664167	0.766321338	0.012853000	0.132602029	0.040869233
2019-11-01T16:35:00	0.2426	5.669	154.9	0.610566876	0.755838508	0.012579880	0.129784298	0.040000781
2019-11-01T16:40:00	0.2446	5.677	154.9	0.617428597	0.765972717	0.012843886	0.132508002	0.040840253
2019-11-01T16:45:00	0.2459	5.682	155.0	0.621624891	0.772189836	0.013006736	0.134188096	0.041358074
2019-11-01T16:50:00	0.2444	5.689	155.0	0.616528820	0.764641563	0.012809105	0.132149179	0.040729660
2019-11-01T16:55:00	0.2475	5.695	155.0	0.627023587	0.780210250	0.013217811	0.136365722	0.042029240
2019-11-01T17:00:00	0.2475	5.699	155.0	0.626906112	0.780035465	0.013213200	0.136318144	0.042014576
2019-11-01T17:05:00	0.2483	5.702	154.9	0.629437032	0.783803679	0.013312740	0.137345089	0.042331090
2019-11-01T17:10:00	0.2455	5.706	154.9	0.620373116	0.770333686	0.012958046	0.133685770	0.041203253
2019-11-01T17:15:00	0.2452	5.711	154.9	0.619259946	0.768684170	0.012914826	0.133239883	0.041065826
2019-11-01T17:20:00	0.2485	5.721	155.0	0.630408430	0.785251403	0.013351048	0.137740305	0.042452900
2019-11-01T17:25:00	0.2479	5.727	155.0	0.628305426	0.782118194	0.013268187	0.136885435	0.042189421
2019-11-01T17:30:00	0.2473	5.733	155.0	0.626201185	0.778986884	0.013185544	0.136032824	0.041926638
2019-11-01T17:35:00	0.2498	5.738	155.1	0.634685513	0.791635264	0.013520399	0.139487461	0.042991390
2019-11-01T17:40:00	0.2479	5.743	155.1	0.628284167	0.782086540	0.013267350	0.136876808	0.042186761
2019-11-01T17:45:00	0.2491	5.749	155.1	0.632137067	0.787829656	0.013419360	0.138445064	0.042670113
2019-11-01T17:50:00	0.2494	5.756	155.2	0.633342270	0.789628707	0.013467094	0.138937525	0.042821894
2019-11-01T17:55:00	0.2513	5.765	155.2	0.639500472	0.798840500	0.013712373	0.141468028	0.043601820
2019-11-01T18:00:00	0.2501	5.772	155.3	0.635421101	0.792734746	0.013549636	0.139789095	0.043084357
2019-11-01T18:05:00	0.2487	5.779	155.3	0.631006315	0.786142860	0.013374655	0.137983849	0.042527962
2019-11-01T18:10:00	0.2495	5.788	155.3	0.633534337	0.789915526	0.013474709	0.139016090	0.042846109
2019-11-01T18:15:00	0.2502	5.797	155.3	0.635730246	0.793196960	0.013561933	0.139915964	0.043123459
2019-11-01T18:20:00	0.2500	5.803	155.4	0.635282685	0.792527820	0.013544132	0.139732311	0.043066855
2019-11-01T18:25:00	0.2497	5.810	155.4	0.634174150	0.790871201	0.013500093	0.139277971	0.042926823
2019-11-01T18:30:00	0.2509	5.815	155.5	0.638350842	0.797118374	0.013666409	0.140993824	0.043455666
2019-11-01T18:35:00	0.2518	5.819	155.4	0.641203550	0.801393743	0.013780613	0.142172043	0.043818804
2019-11-01T18:40:00	0.2530	5.822	155.5	0.645042603	0.807158267	0.013935085	0.143765698	0.044309984
2019-11-01T18:45:00	0.2523	5.824	155.5	0.642948166	0.804011815	0.013850700	0.142895116	0.044041662
2019-11-01T18:50:00	0.2531	5.827	155.5	0.645467792	0.807797480	0.013952248	0.143942770	0.044364560
2019-11-01T18:55:00	0.2512	5.830	155.5	0.639085679	0.798219018	0.013695780	0.141296837	0.043549057
2019-11-01T19:00:00	0.2523	5.830	155.5	0.642926994	0.803980027	0.013849848	0.142886329	0.044038954
2019-11-01T19:05:00	0.2541	5.827	155.4	0.648739664	0.812721437	0.014084691	0.145309161	0.044785695
2019-11-01T19:10:00	0.2547	5.826	155.5	0.650597336	0.815521174	0.014160179	0.146087954	0.045025726
2019-11-01T19:15:00	0.2549	5.827	155.5	0.651467477	0.816833592	0.014195610	0.146453491	0.045138388
2019-11-01T19:20:00	0.2544	5.826	155.5	0.649705854	0.814177235	0.014123927	0.145713946	0.044910453
2019-11-01T19:25:00	0.2567	5.826	155.4	0.657149913	0.825420205	0.014428130	0.148852355	0.045877742
2019-11-01T19:30:00	0.2569	5.824	155.4	0.658018475	0.826735103	0.014463845	0.149220818	0.045991305
2019-11-01T19:35:00	0.2570	5.824	155.4	0.658230313	0.827055897	0.014472562	0.149310756	0.046019025
2019-11-01T19:40:00	0.2575	5.825	155.4	0.659754975	0.829365885	0.014535387	0.149958905	0.046218791
2019-11-01T19:45:00	0.2555	5.823	155.4	0.653398136	0.819747880	0.014274389	0.147266243	0.045388886
2019-11-01T19:50:00	0.2571	5.822	155.4	0.658537505	0.827521158	0.014485209	0.149441228	0.046059238
2019-11-01T19:55:00	0.2568	5.819	155.4	0.657764455	0.826350480	0.014453395	0.149113008	0.045958077
2019-11-01T20:00:00	0.2553	5.815	155.4	0.652719506	0.818723141	0.014246672	0.146980292	0.045300753
2019-11-01T20:05:00	0.2579	5.814	155.4	0.661141568	0.831468415	0.014592646	0.150549636	0.046400860
2019-11-01T20:10:00	0.2590	5.812	155.4	0.664959480	0.837266127	0.014750915	0.152182467	0.046904114
2019-11-01T20:15:00	0.2605	5.808	155.4	0.669755245	0.844566471	0.014950988	0.154246587	0.047540296
2019-11-01T20:20:00	0.2610	5.804	155.4	0.671275068	0.846884139	0.015014688	0.154903771	0.047742847
2019-11-01T20:25:00	0.2580	5.802	155.4	0.661660150	0.832255177	0.014614091	0.150770880	0.046469050
2019-11-01T20:30:00	0.2575	5.799	155.4	0.659903492	0.829591007	0.014541514	0.150022120	0.046238274
2019-11-01T20:35:00	0.2577	5.799	155.3	0.660443321	0.830409438	0.014563797	0.150252010	0.046309129
2019-11-01T20:40:00	0.2596	5.797	155.3	0.666882954	0.840191761	0.014830990	0.153008588	0.047158733
2019-11-01T20:45:00	0.2601	5.796	155.3	0.668403979	0.842507513	0.014894472	0.153663520	0.047360589
2019-11-01T20:50:00	0.2592	5.798	155.3	0.665340248	0.837845030	0.014766748	0.152345819	0.046954461
2019-11-01T20:55:00	0.2583	5.799	155.3	0.662601833	0.833684434	0.014653074	0.151173068	0.046593008
2019-11-01T21:00:00	0.2562	5.797	155.3	0.655593007	0.823064854	0.014364226	0.148193075	0.045674545
2019-11-01T21:05:00	0.2563	5.797	155.3	0.656133480	0.823882269	0.014386393	0.148421768	0.045745030
2019-11-01T21:10:00	0.2573	5.798	155.3	0.659300353	0.828676888	0.014516639	0.149765487	0.046159178
2019-11-01T21:15:00	0.2582	5.797	155.2	0.662136538	0.832978129	0.014633805	0.150974273	0.046531737
2019-11-01T21:20:00	0.2579	5.798	155.3	0.661364256	0.831806236	0.014601853	0.150644622	0.046430135
2019-11-01T21:25:00	0.2593	5.798	155.3	0.665837191	0.838600746	0.014787426	0.152559149	0.047020211
2019-11-01T21:30:00	0.2599	5.799	155.3	0.667686103	0.841414303	0.014864493	0.153354230	0.047265263
2019-11-01T21:35:00	0.2580	5.799	155.3	0.661671183	0.832271918	0.014614547	0.150775589	0.046470501
2019-11-01T21:40:00	0.2581	5.802	155.3	0.661882806	0.832593050	0.014623303	0.150865925	0.046498343
2019-11-01T21:45:00	0.2574	5.805	155.3	0.659469965	0.828933920	0.014523632	0.149837633	0.046181414
2019-11-01T21:50:00	0.2579	5.805	155.3	0.661322127	0.831742322	0.014600111	0.150626649	0.046424596
2019-11-01T21:55:00	0.2582	5.806	155.3	0.662189689	0.833058801	0.014636006	0.150996974	0.046538734
2019-11-01T22:00:00	0.2588	5.805	155.3	0.664040461	0.835869404	0.014712736	0.151788581	0.046782715
2019-11-01T22:05:00	0.2585	5.807	155.4	0.663271519	0.834701323	0.014680831	0.151459428	0.046681267
2019-11-01T22:10:00	0.2590	5.809	155.4	0.664796992	0.837019125	0.014744161	0.152112787	0.046882638
2019-11-01T22:15:00	0.2593	5.813	155.3	0.665666653	0.838341380	0.014780328	0.152485922	0.046997642
2019-11-01T22:20:00	0.2586	5.819	155.4	0.663587083	0.835180627	0.014693920	0.151594463	0.046722886
2019-11-01T22:25:00	0.2594	5.827	155.4	0.666095284	0.838993319	0.014798171	0.152670005	0.047054378
2019-11-01T22:30:00	0.2584	5.834	155.4	0.663032534	0.834338392	0.014670923	0.151357205	0.046649761
2019-11-01T22:35:00	0.2562	5.841	155.4	0.655698979	0.823225108	0.014368571	0.148237901	0.045688361
2019-11-01T22:40:00	0.2562	5.849	155.5	0.655585379	0.823053319	0.014363914	0.148189849	0.045673551
2019-11-01T22:45:00	0.2555	5.860	155.6	0.653500003	0.819901735	0.014278552	0.147309192	0.045402124
2019-11-01T22:50:00	0.2571	5.868	155.6	0.658642164	0.827679690	0.014489519	0.149485693	0.046072942
2019-11-01T22:55:00	0.2553	5.874	155.6	0.652615122	0.818565554	0.014242411	0.146936334	0.045287205
2019-11-01T23:00:00	0.2548	5.876	155.6	0.651185947	0.816408895	0.014184141	0.146335171	0.045101921
2019-11-01T23:05:00	0.2550	5.875	155.6	0.651730023	0.817229714	0.014206310	0.146563878	0.045172410
2019-11-01T23:10:00	0.2567	5.869	155.6	0.657203100	0.825500706	0.014430315	0.148874905	0.045884691
2019-11-01T23:15:00	0.2549	5.865	155.6	0.651502568	0.816886534	0.014197040	0.146468242	0.045142935
2019-11-01T23:20:00	0.2530	5.860	155.5	0.645134108	0.807295820	0.013938777	0.143803796	0.044321727
2019-11-01T23:25:00	0.2556	5.857	155.5	0.653576811	0.820017747	0.014281692	0.147341579	0.045412106
2019-11-01T23:30:00	0.2528	5.860	155.5	0.644576718	0.806458050	0.013916291	0.143571808	0.044250226
2019-11-01T23:35:00	0.2532	5.864	155.5	0.645780700	0.808267992	0.013964886	0.144073155	0.044404746
2019-11-01T23:40:00	0.2536	5.867	155.6	0.646984279	0.810078562	0.014013553	0.144575245	0.044559495
2019-11-01T23:45:00	0.2506	5.870	155.6	0.637307321	0.795556170	0.013624757	0.140564105	0.043323222
2019-11-01T23:50:00	0.2498	5.871	155.6	0.634550474	0.791433472	0.013515035	0.139432123	0.042974335
2019-11-01T23:55:00	0.2475	5.870	155.5	0.626827419	0.779918388	0.013210111	0.136286277	0.042004754
2019-11-02T00:00:00	0.2484	5.868	155.5	0.630023163	0.784677124	0.013335848	0.137583488	0.042404567
2019-11-02T00:05:00	0.2504	5.865	155.6	0.636520310	0.794378586	0.013593387	0.140240467	0.043223474
2019-11-02T00:10:00	0.2521	5.867	155.6	0.642016540	0.802613441	0.013813250	0.142508757	0.043922583
2019-11-02T00:15:00	0.2527	5.874	155.6	0.644210215	0.805907332	0.013901516	0.143419374	0.044203244
2019-11-02T00:20:00	0.2509	5.882	155.6	0.638158958	0.796831045	0.013658745	0.140914755	0.043431296
2019-11-02T00:25:00	0.2508	5.889	155.7	0.637714654	0.796165859	0.013641008	0.140731763	0.043374896
2019-11-02T00:30:00	0.2508	5.894	155.7	0.637930643	0.796489204	0.013649629	0.140820705	0.043402309
2019-11-02T00:35:00	0.2490	5.899	155.7	0.631868777	0.787429337	0.013408746	0.138335561	0.042636363
2019-11-02T00:40:00	0.2496	5.903	155.8	0.633738149	0.790219918	0.013482792	0.139099484	0.042871812
2019-11-02T00:45:00	0.2485	5.906	155.8	0.630316923	0.785114991	0.013347437	0.137703050	0.042441417
2019-11-02T00:50:00	0.2506	5.907	155.8	0.637143769	0.795311408	0.013618235	0.140496817	0.043302483
2019-11-02T00:55:00	0.2497	5.909	155.8	0.634386796	0.791188904	0.013508535	0.139365066	0.042953667
2019-11-02T01:00:00	0.2482	5.912	155.8	0.629311878	0.783617213	0.013307809	0.137294213	0.042315410
2019-11-02T01:05:00	0.2491	5.916	155.8	0.632174746	0.787885881	0.013420851	0.138460446	0.042674854
2019-11-02T01:10:00	0.2501	5.921	155.8	0.635696085	0.793145881	0.013560574	0.139901942	0.043119137
2019-11-02T01:15:00	0.2487	5.926	155.9	0.630953826	0.786064585	0.013372582	0.137962459	0.042521370
2019-11-02T01:20:00	0.2467	5.932	155.9	0.624217362	0.776038193	0.013107875	0.135231533	0.041679672
2019-11-02T01:25:00	0.2474	5.938	155.9	0.626753150	0.779807897	0.013207196	0.136256206	0.041995486
2019-11-02T01:30:00	0.2485	5.942	155.9	0.630279825	0.785059690	0.013345973	0.137687948	0.042436763
2019-11-02T01:35:00	0.2501	5.945	155.9	0.635455265	0.792785821	0.013550995	0.139803113	0.043088677
2019-11-02T01:40:00	0.2477	5.946	155.9	0.627734164	0.781267731	0.013245724	0.136653694	0.042117996
2019-11-02T01:45:00	0.2494	5.944	155.9	0.633243874	0.789481781	0.013463193	0.138897285	0.042809492
2019-11-02T01:50:00	0.2497	5.943	155.9	0.634121182	0.790792072	0.013497991	0.139256281	0.042920138
2019-11-02T01:55:00	0.2490	5.943	155.9	0.632023319	0.787659924	0.013414859	0.138398632	0.042655802
2019-11-02T02:00:00	0.2493	5.945	155.9	0.632900926	0.788969754	0.013449604	0.138757081	0.042766280
2019-11-02T02:05:00	0.2492	5.947	155.9	0.632455970	0.788305575	0.013431982	0.138575283	0.042710248
2019-11-02T02:10:00	0.2482	5.947	155.9	0.629364467	0.783695562	0.013309881	0.137315590	0.042321998
2019-11-02T02:15:00	0.2504	5.950	155.9	0.636523415	0.794383230	0.013593511	0.140241744	0.043223867
2019-11-02T02:20:00	0.2504	5.955	156.0	0.636409207	0.794212387	0.013588961	0.140194811	0.043209402
2019-11-02T02:25:00	0.2512	5.961	156.0	0.639266412	0.798489791	0.013703009	0.141371415	0.043572043
2019-11-02T02:30:00	0.2520	5.968	156.0	0.641791570	0.802275871	0.013804215	0.142415540	0.043893853
2019-11-02T02:35:00	0.2517	5.975	156.1	0.640687996	0.800620568	0.013759937	0.141958733	0.043753060
2019-11-02T02:40:00	0.2509	5.982	156.1	0.638263875	0.796988145	0.013662935	0.140957985	0.043444620
2019-11-02T02:45:00	0.2503	5.988	156.1	0.636168435	0.793852254	0.013579374	0.140095894	0.043178915
2019-11-02T02:50:00	0.2538	5.994	156.2	0.647596714	0.811000334	0.014038351	0.144831080	0.044638345
2019-11-02T02:55:00	0.2520	6.001	156.2	0.641880955	0.802409988	0.013807804	0.142452573	0.043905266
2019-11-02T03:00:00	0.2522	6.009	156.2	0.642426439	0.803228609	0.013829721	0.142678681	0.043974955
2019-11-02T03:05:00	0.2524	6.014	156.3	0.643301505	0.804542371	0.013864917	0.143041793	0.044086870
2019-11-02T03:10:00	0.2497	6.019	156.3	0.634275627	0.791022808	0.013504121	0.139319530	0.042939632
2019-11-02T03:15:00	0.2495	6.023	156.3	0.633500305	0.789864702	0.013473360	0.139002167	0.042841818
2019-11-02T03:20:00	0.2494	6.027	156.3	0.633386001	0.789694009	0.013468828	0.138955411	0.042827407
2019-11-02T03:25:00	0.2501	6.032	156.3	0.635584956	0.792979722	0.013556153	0.139856332	0.043105080
2019-11-02T03:30:00	0.2514	6.036	156.4	0.639762960	0.799233859	0.013722879	0.141576416	0.043635226
2019-11-02T03:35:00	0.2501	6.041	156.4	0.635686843	0.793132062	0.013560206	0.139898149	0.043117968
2019-11-02T03:40:00	0.2508	6.045	156.4	0.637884388	0.796419954	0.013647782	0.140801655	0.043396438
2019-11-02T03:45:00	0.2509	6.051	156.4	0.638100366	0.796743315	0.013656405	0.140890617	0.043423856
2019-11-02T03:50:00	0.2523	6.059	156.5	0.642934872	0.803991856	0.013850165	0.142889599	0.044039962
2019-11-02T03:55:00	0.2532	6.066	156.5	0.645786893	0.808277306	0.013965136	0.144075737	0.044405541
2019-11-02T04:00:00	0.2546	6.072	156.5	0.650282089	0.815045851	0.014147354	0.145955640	0.044984946
2019-11-02T04:05:00	0.2549	6.081	156.6	0.651402805	0.816736027	0.014192975	0.146426307	0.045130010
2019-11-02T04:10:00	0.2533	6.090	156.6	0.646270417	0.809004535	0.013984677	0.144277337	0.044467677
2019-11-02T04:15:00	0.2517	6.098	156.8	0.640800835	0.800789773	0.013764461	0.142005405	0.043767445
2019-11-02T04:20:00	0.2532	6.106	156.7	0.645879648	0.808416796	0.013968884	0.144114399	0.044417457
2019-11-02T04:25:00	0.2518	6.112	156.6	0.641069242	0.801192300	0.013775225	0.142116457	0.043801672
2019-11-02T04:30:00	0.2487	6.118	156.5	0.630963717	0.786079335	0.013372972	0.137966490	0.042522612
2019-11-02T04:35:00	0.2474	6.125	156.6	0.626464461	0.779378459	0.013195869	0.136139349	0.041959470
2019-11-02T04:40:00	0.2476	6.131	156.6	0.627261524	0.780564301	0.013227154	0.136462114	0.042058949
2019-11-02T04:45:00	0.2476	6.136	156.7	0.627396238	0.780764777	0.013232446	0.136516705	0.042075774
2019-11-02T04:50:00	0.2476	6.140	156.8	0.627199828	0.780472493	0.013224732	0.136437117	0.042051245
2019-11-02T04:55:00	0.2488	6.144	156.8	0.631305801	0.786589512	0.013386488	0.138105927	0.042565588
2019-11-02T05:00:00	0.2469	6.148	156.8	0.624819399	0.776932690	0.013131420	0.135474444	0.041754539
2019-11-02T05:05:00	0.2452	6.152	156.8	0.619316930	0.768768585	0.012917037	0.133262690	0.041072855
2019-11-02T05:10:00	0.2454	6.158	156.8	0.620115591	0.769951988	0.012948041	0.133582548	0.041171439
2019-11-02T05:15:00	0.2453	6.165	156.9	0.619586954	0.769168628	0.012927515	0.133370788	0.041106172
2019-11-02T05:20:00	0.2435	6.175	156.9	0.613744021	0.760525973	0.012701769	0.131041809	0.040388358
2019-11-02T05:25:00	0.2422	6.184	157.0	0.609222960	0.753858288	0.012528503	0.129254261	0.039837418
2019-11-02T05:30:00	0.2429	6.194	157.0	0.611687176	0.757490397	0.012622790	0.130226998	0.040137225
2019-11-02T05:35:00	0.2442	6.203	157.1	0.616143218	0.764071301	0.012794215	0.131995558	0.040682313
2019-11-02T05:40:00	0.2459	6.213	157.1	0.621588792	0.772136289	0.013005330	0.134173596	0.041353605
2019-11-02T05:45:00	0.2478	6.224	157.0	0.628019375	0.781692303	0.013256936	0.136769369	0.042153648
2019-11-02T05:50:00	0.2483	6.232	157.2	0.629478000	0.783864718	0.013314355	0.137361745	0.042336224
2019-11-02T05:55:00	0.2465	6.242	157.3	0.623651264	0.775197374	0.013085756	0.135003329	0.041609337
2019-11-02T06:00:00	0.2464	6.253	157.3	0.623454649	0.774905405	0.013078078	0.134924116	0.041584923
2019-11-02T06:05:00	0.2452	6.263	157.3	0.619277800	0.768710619	0.012915519	0.133247029	0.041068028
2019-11-02T06:10:00	0.2433	6.271	157.4	0.613101928	0.759577965	0.012677087	0.130787165	0.040309874
2019-11-02T06:15:00	0.2454	6.280	157.4	0.619879657	0.769602340	0.012938878	0.133488017	0.041142303
2019-11-02T06:20:00	0.2462	6.290	157.5	0.622668076	0.773737696	0.013047385	0.134607462	0.041487327
2019-11-02T06:25:00	0.2465	6.299	157.5	0.623797452	0.775414479	0.013091466	0.135062240	0.041627494
2019-11-02T06:30:00	0.2481	6.307	157.5	0.628900402	0.783004253	0.013291602	0.137127013	0.042263877
2019-11-02T06:35:00	0.2467	6.315	157.6	0.624398547	0.776307362	0.013114959	0.135304614	0.041702196
2019-11-02T06:40:00	0.2464	6.320	157.5	0.623207596	0.774538586	0.013068433	0.134824617	0.041554256
2019-11-02T06:45:00	0.2445	6.328	157.6	0.617038541	0.765395574	0.012828802	0.132352389	0.040792292
2019-11-02T06:50:00	0.2437	6.338	157.6	0.614183788	0.761175461	0.012718688	0.131216361	0.040442157
2019-11-02T06:55:00	0.2450	6.352	157.7	0.618636706	0.767761098	0.012890661	0.132990577	0.040988988
2019-11-02T07:00:00	0.2448	6.365	157.8	0.618107849	0.766978072	0.012870174	0.132779216	0.040923844
2019-11-02T07:05:00	0.2449	6.378	157.8	0.618242909	0.767178020	0.012875405	0.132833177	0.040940475
2019-11-02T07:10:00	0.2448	6.386	157.8	0.618045995	0.766886506	0.012867779	0.132754507	0.040916228
2019-11-02T07:15:00	0.2465	6.392	157.8	0.623488664	0.774955914	0.013079406	0.134937818	0.041589146
2019-11-02T07:20:00	0.2453	6.397	157.9	0.619643707	0.769252717	0.012929718	0.133393514	0.041113177
2019-11-02T07:25:00	0.2458	6.401	157.9	0.621437442	0.771911799	0.012999439	0.134112812	0.041334871
2019-11-02T07:30:00	0.2456	6.409	157.9	0.620577267	0.770636313	0.012965980	0.133767627	0.041228482
2019-11-02T07:35:00	0.2459	6.419	157.9	0.621707305	0.772312087	0.013009945	0.134221202	0.041368278
2019-11-02T07:40:00	0.2463	6.425	157.9	0.622836985	0.773988406	0.013053972	0.134675428	0.041508275
2019-11-02T07:45:00	0.2463	6.437	158.0	0.622971867	0.774188627	0.013059234	0.134729714	0.041525006
2019-11-02T07:50:00	0.2451	6.457	158.1	0.619126352	0.768486280	0.012909645	0.133186423	0.041049349
2019-11-02T07:55:00	0.2430	6.488	158.2	0.611952695	0.757882061	0.012632971	0.130332034	0.040169599
2019-11-02T08:00:00	0.2454	6.523	158.3	0.620060047	0.769869670	0.012945883	0.133560291	0.041164579
2019-11-02T08:05:00	0.2483	6.547	169.0	0.629472940	0.783857179	0.013314156	0.137359688	0.042335590
2019-11-02T08:10:00	0.2462	6.562	169.1	0.622651666	0.773713339	0.013046745	0.134600859	0.041485292
2019-11-02T08:15:00	0.2464	6.581	169.3	0.623449580	0.774897879	0.013077880	0.134922074	0.041584294
2019-11-02T08:20:00	0.2462	6.600	158.7	0.622589890	0.773621653	0.013044336	0.134576007	0.041477632
2019-11-02T08:25:00	0.2459	6.621	169.4	0.621729993	0.772345743	0.013010828	0.134230317	0.041371087
2019-11-02T08:30:00	0.2440	6.642	169.5	0.615226144	0.762715556	0.012758837	0.131630573	0.040569821
2019-11-02T08:35:00	0.2455	6.662	158.9	0.620341363	0.770286620	0.012956812	0.133673040	0.041199329
2019-11-02T08:40:00	0.2455	6.683	159.0	0.620476339	0.770486696	0.012962057	0.133727155	0.041216008
2019-11-02T08:45:00	0.2470	6.703	159.1	0.625252735	0.777576724	0.013148381	0.135649427	0.041808471
2019-11-02T08:50:00	0.2481	6.725	159.2	0.629029994	0.783197285	0.013296706	0.137179660	0.042280103
2019-11-02T08:55:00	0.2477	6.749	159.3	0.627509496	0.780933335	0.013236895	0.136562610	0.042089923
2019-11-02T09:00:00	0.2461	6.769	159.4	0.622342778	0.773254925	0.013034702	0.134476617	0.041446999
2019-11-02T09:05:00	0.2471	6.790	159.5	0.625791864	0.778378210	0.013169499	0.135867293	0.041875619
2019-11-02T09:10:00	0.2463	6.815	159.6	0.622944117	0.774147434	0.013058152	0.134718545	0.041521564
2019-11-02T09:15:00	0.2468	6.844	159.7	0.624736193	0.776809046	0.013128165	0.135440858	0.041744188
2019-11-02T09:20:00	0.2462	6.875	159.9	0.622550796	0.773563632	0.013042811	0.134560281	0.041472785
2019-11-02T09:25:00	0.2451	6.900	160.0	0.619036736	0.768353540	0.012906169	0.133150568	0.041038298
2019-11-02T09:30:00	0.2462	6.927	160.1	0.622489019	0.773471949	0.013040403	0.134535432	0.041465127
2019-11-02T09:35:00	0.2465	6.956	160.2	0.623618452	0.775148646	0.013084474	0.134990107	0.041605262
2019-11-02T09:40:00	0.2483	6.982	160.4	0.629714500	0.784217121	0.013323677	0.137457918	0.042365865
2019-11-02T09:45:00	0.2440	7.008	160.5	0.615260238	0.762765946	0.012760152	0.131644133	0.040574000
2019-11-02T09:50:00	0.2450	7.030	160.6	0.618716181	0.767878790	0.012893742	0.133022355	0.040998782
2019-11-02T09:55:00	0.2466	7.053	160.7	0.623826396	0.775457467	0.013092597	0.135073906	0.041631090
2019-11-02T10:00:00	0.2443	7.072	160.8	0.616330080	0.764347634	0.012801430	0.132069991	0.040705254
2019-11-02T10:05:00	0.2460	7.086	160.8	0.621928094	0.772639628	0.013018544	0.134309915	0.041395620
2019-11-02T10:10:00	0.2455	7.098	160.9	0.620225585	0.770115012	0.012952314	0.133626631	0.041185026
2019-11-02T10:15:00	0.2453	7.116	161.0	0.619517946	0.769066387	0.012924837	0.133343158	0.041097656
2019-11-02T10:20:00	0.2441	7.143	161.1	0.615821688	0.763595890	0.012781806	0.131867533	0.040642854
2019-11-02T10:25:00	0.2450	7.181	161.3	0.618766144	0.767952781	0.012895678	0.133042335	0.041004940
2019-11-02T10:30:00	0.2435	7.219	161.5	0.613739805	0.760519747	0.012701607	0.131040136	0.040387842
2019-11-02T10:35:00	0.2441	7.253	161.6	0.615689508	0.763400476	0.012776706	0.131814921	0.040626639
2019-11-02T10:40:00	0.2432	7.285	161.8	0.612654308	0.758917287	0.012659894	0.130609796	0.040255208
2019-11-02T10:45:00	0.2428	7.315	161.9	0.611279989	0.756889876	0.012607185	0.130066003	0.040087605
2019-11-02T10:50:00	0.2428	7.343	162.0	0.611235873	0.756824822	0.012605495	0.130048567	0.040082231
2019-11-02T10:55:00	0.2410	7.367	162.1	0.605199442	0.747938811	0.012375338	0.127674077	0.039350391
2019-11-02T11:00:00	0.2404	7.391	162.2	0.603488899	0.745426340	0.012310515	0.127005317	0.039144272
2019-11-02T11:05:00	0.2388	7.420	162.3	0.598107018	0.737537330	0.012107707	0.124912984	0.038499395
2019-11-02T11:10:00	0.2389	7.448	162.5	0.598396583	0.737961170	0.012118575	0.125025104	0.038533951
2019-11-02T11:15:00	0.2400	7.477	162.6	0.602022564	0.743274515	0.012255087	0.126433473	0.038968024
2019-11-02T11:20:00	0.2369	7.510	162.7	0.591624969	0.728067778	0.011865739	0.122416639	0.037729997
2019-11-02T11:25:00	0.2376	7.547	162.9	0.593921147	0.731418228	0.011951166	0.123297977	0.038001634
2019-11-02T11:30:00	0.2362	7.588	163.1	0.589194121	0.724525619	0.011775644	0.121487146	0.037443518
2019-11-02T11:35:00	0.2352	7.629	163.3	0.586136099	0.720076549	0.011662803	0.120322993	0.037084715
2019-11-02T11:40:00	0.2364	7.674	163.6	0.590109320	0.725858642	0.011809523	0.121836668	0.037551244
2019-11-02T11:45:00	0.2342	7.721	163.8	0.582695645	0.715080385	0.011536516	0.119020113	0.036683155
2019-11-02T11:50:00	0.2338	7.769	164.0	0.581309622	0.713070408	0.011485839	0.118497285	0.036522014
2019-11-02T11:55:00	0.2342	7.819	164.2	0.582606696	0.714951346	0.011533261	0.118986525	0.036672803
2019-11-02T12:00:00	0.2329	7.864	164.4	0.578200201	0.708567005	0.011372564	0.117328647	0.036161828
2019-11-02T12:05:00	0.2350	7.909	164.6	0.585199411	0.718715332	0.011628351	0.119967555	0.036975166
2019-11-02T12:10:00	0.2335	7.947	164.8	0.580125103	0.711353912	0.011442620	0.118051400	0.036384588
2019-11-02T12:15:00	0.2329	7.979	164.9	0.578402351	0.708859537	0.011379911	0.117404443	0.036185190
2019-11-02T12:20:00	0.2357	8.009	165.1	0.587745806	0.722417516	0.011722132	0.120935073	0.037273364
2019-11-02T12:25:00	0.2331	8.038	165.2	0.578984705	0.709702453	0.011401089	0.117622935	0.036252531
2019-11-02T12:30:00	0.2359	8.065	176.5	0.588326614	0.723262704	0.011743576	0.121156312	0.037341552
2019-11-02T12:35:00	0.2363	8.086	165.4	0.589621105	0.725147450	0.011791444	0.121650150	0.037493758
2019-11-02T12:40:00	0.2351	8.104	165.5	0.585558458	0.719237022	0.011641551	0.120103736	0.037017138
2019-11-02T12:45:00	0.2342	8.119	165.6	0.582497274	0.714792614	0.011529256	0.118945212	0.036660070
2019-11-02T12:50:00	0.2326	8.131	165.7	0.577419058	0.707436929	0.011344197	0.117035994	0.036071630
2019-11-02T12:55:00	0.2332	8.142	165.7	0.579388905	0.710287668	0.011415800	0.117774708	0.036299309
2019-11-02T13:00:00	0.2342	8.150	165.8	0.582699177	0.715085509	0.011536646	0.119021447	0.036683566
2019-11-02T13:05:00	0.2337	8.159	165.8	0.580977688	0.712589283	0.011473720	0.118372250	0.036483477
2019-11-02T13:10:00	0.2339	8.173	165.9	0.581604103	0.713497324	0.011496597	0.118608269	0.036556220
2019-11-02T13:15:00	0.2333	8.187	165.9	0.579546473	0.710515839	0.011421538	0.117833901	0.036317553
2019-11-02T13:20:00	0.2339	8.200	166.0	0.581515127	0.713368325	0.011493346	0.118574730	0.036545883
2019-11-02T13:25:00	0.2365	8.213	166.0	0.590181177	0.725963333	0.011812185	0.121864132	0.037559709
2019-11-02T13:30:00	0.2337	8.223	166.1	0.581090692	0.712753067	0.011477845	0.118414809	0.036496594
2019-11-02T13:35:00	0.2356	8.232	166.2	0.587414479	0.721935497	0.011709908	0.120808958	0.037234494
2019-11-02T13:40:00	0.2344	8.240	166.2	0.583349283	0.716028830	0.011560455	0.119267084	0.036759273
2019-11-02T13:45:00	0.2327	8.248	166.3	0.577600753	0.707699742	0.011350792	0.117104032	0.036092600
2019-11-02T13:50:00	0.2305	8.257	166.3	0.570160593	0.696960317	0.011082341	0.114334464	0.035238992
2019-11-02T13:55:00	0.2324	8.264	166.3	0.576504088	0.706113889	0.011311017	0.116693678	0.035966125
2019-11-02T14:00:00	0.2340	8.271	166.4	0.581830067	0.713824957	0.011504855	0.118693466	0.036582479
2019-11-02T14:05:00	0.2314	8.275	166.4	0.573390402	0.701616722	0.011198474	0.115532594	0.035608267
2019-11-02T14:10:00	0.2327	8.276	166.4	0.577713866	0.707863367	0.011354899	0.117146399	0.036105658
2019-11-02T14:15:00	0.2316	8.279	166.5	0.573973589	0.702458421	0.011219509	0.115749611	0.035675154
2019-11-02T14:20:00	0.2325	8.281	166.4	0.576953120	0.706763099	0.011327294	0.116861609	0.036017883
2019-11-02T14:25:00	0.2327	8.282	166.5	0.577580253	0.707670087	0.011350048	0.117096355	0.036090234
2019-11-02T14:30:00	0.2328	8.282	166.5	0.577871510	0.708091427	0.011360623	0.117205458	0.036123861
2019-11-02T14:35:00	0.2344	8.279	166.4	0.583195417	0.715805533	0.011554818	0.119208923	0.036741348
2019-11-02T14:40:00	0.2339	8.276	166.4	0.581474171	0.713308950	0.011491850	0.118559294	0.036541126
2019-11-02T14:45:00	0.2337	8.271	166.4	0.581094226	0.712758189	0.011477974	0.118416140	0.036497004
2019-11-02T14:50:00	0.2337	8.267	166.4	0.581049731	0.712693699	0.011476349	0.118399382	0.036491839
2019-11-02T14:55:00	0.2350	8.265	166.4	0.585363778	0.718954141	0.011634393	0.120029887	0.036994377
2019-11-02T15:00:00	0.2326	8.263	166.5	0.577268469	0.707219131	0.011338733	0.116979619	0.036054255
2019-11-02T15:05:00	0.2347	8.259	166.4	0.584269534	0.717364736	0.011594201	0.119615235	0.036866577
2019-11-02T15:10:00	0.2339	8.254	166.4	0.581542671	0.713408258	0.011494352	0.118585112	0.036549083
2019-11-02T15:15:00	0.2341	8.247	166.4	0.582168985	0.714316447	0.011517247	0.118821311	0.036621882
2019-11-02T15:20:00	0.2330	8.241	166.3	0.578769167	0.709390443	0.011393248	0.117542043	0.036227599
2019-11-02T15:25:00	0.2337	8.234	166.3	0.581073745	0.712728505	0.011477226	0.118408426	0.036494627
2019-11-02T15:30:00	0.2325	8.227	166.2	0.577001204	0.706832629	0.011329038	0.116879599	0.036023428
2019-11-02T15:35:00	0.2343	8.220	166.3	0.582997073	0.715517721	0.011547553	0.119133972	0.036718247
2019-11-02T15:40:00	0.2357	8.212	166.2	0.587643597	0.722268811	0.011718360	0.120896162	0.037261371
2019-11-02T15:45:00	0.2382	8.203	166.2	0.595960559	0.734397708	0.012027304	0.124083482	0.038243734
2019-11-02T15:50:00	0.2367	8.194	166.1	0.590901745	0.727013403	0.011838897	0.122139717	0.037644647
2019-11-02T15:55:00	0.2368	8.186	166.1	0.591191901	0.727436364	0.011849662	0.122250779	0.037678877
2019-11-02T16:00:00	0.2376	8.177	166.1	0.594156884	0.731762450	0.011959954	0.123388643	0.038029578
2019-11-02T16:05:00	0.2379	8.172	166.1	0.594913921	0.732868187	0.011988199	0.123680036	0.038119388
2019-11-02T16:10:00	0.2369	8.175	166.1	0.591659480	0.728118103	0.011867020	0.122429862	0.037734072
2019-11-02T16:15:00	0.2372	8.179	166.1	0.592751431	0.729710897	0.011907609	0.122848602	0.037863132
2019-11-02T16:20:00	0.2376	8.185	166.2	0.594177288	0.731792246	0.011960715	0.123396492	0.038031997
2019-11-02T16:25:00	0.2396	8.187	166.2	0.600610412	0.741203905	0.012201828	0.125884014	0.038798676
2019-11-02T16:30:00	0.2399	8.186	166.2	0.601699600	0.742800813	0.012242896	0.126307701	0.038929260
2019-11-02T16:35:00	0.2378	8.185	166.2	0.594777439	0.732668804	0.011983104	0.123627476	0.038103189
2019-11-02T16:40:00	0.2383	8.186	166.2	0.596202478	0.734751369	0.012036352	0.124176830	0.038272505
2019-11-02T16:45:00	0.2374	8.188	166.2	0.593283554	0.730487448	0.011927413	0.123052925	0.037926107
2019-11-02T16:50:00	0.2392	8.190	166.3	0.599384584	0.739407851	0.012155694	0.125408050	0.038651979
2019-11-02T16:55:00	0.2407	8.191	166.2	0.604475480	0.746875145	0.012347881	0.127390814	0.039263086
2019-11-02T17:00:00	0.2406	8.190	166.2	0.603897321	0.746026013	0.012325977	0.127164831	0.039193436
2019-11-02T17:05:00	0.2414	8.184	166.2	0.606651147	0.750073022	0.012430489	0.128243060	0.039525757
2019-11-02T17:10:00	0.2412	8.179	166.2	0.606073344	0.749223358	0.012408522	0.128016439	0.039455910
2019-11-02T17:15:00	0.2403	8.171	166.1	0.603162558	0.744947283	0.012298168	0.126877935	0.039105012
2019-11-02T17:20:00	0.2430	8.161	166.1	0.611908060	0.757816216	0.012631259	0.130314374	0.040164156
2019-11-02T17:25:00	0.2454	8.152	166.1	0.619968538	0.769734054	0.012942329	0.133523625	0.041153278
2019-11-02T17:30:00	0.2440	8.144	166.0	0.615408351	0.762984863	0.012765862	0.131703048	0.040592158
2019-11-02T17:35:00	0.2457	8.134	166.0	0.621139795	0.771470371	0.012987856	0.133993315	0.041298041
2019-11-02T17:40:00	0.2438	8.127	166.0	0.614587820	0.761772315	0.012734243	0.131376835	0.040491617
2019-11-02T17:45:00	0.2457	8.124	165.9	0.620984068	0.771239449	0.012981798	0.133930817	0.041278779
2019-11-02T17:50:00	0.2452	8.126	166.0	0.619413155	0.768911136	0.012920770	0.133301206	0.041084726
2019-11-02T17:55:00	0.2471	8.129	166.0	0.625469477	0.777898910	0.013156869	0.135736992	0.041835459
2019-11-02T18:00:00	0.2442	8.133	166.0	0.615937082	0.763766501	0.012786259	0.131913472	0.040657013
2019-11-02T18:05:00	0.2454	8.140	166.0	0.620009050	0.769794092	0.012943903	0.133539856	0.041158281
2019-11-02T18:10:00	0.2457	8.146	166.1	0.621092307	0.771399951	0.012986008	0.133974256	0.041292167
2019-11-02T18:15:00	0.2461	8.150	166.1	0.622175235	0.773006312	0.013028172	0.134409253	0.041426237
2019-11-02T18:20:00	0.2472	8.160	166.1	0.625908850	0.778552158	0.013174084	0.135914592	0.041890197
2019-11-02T18:25:00	0.2468	8.172	166.1	0.624671489	0.776712899	0.013125634	0.135414744	0.041736139
2019-11-02T18:30:00	0.2460	8.188	166.2	0.622107517	0.772905834	0.013025534	0.134382030	0.041417847
2019-11-02T18:35:00	0.2471	8.201	166.3	0.625509927	0.777959043	0.013158453	0.135753338	0.041840497
2019-11-02T18:40:00	0.2463	8.213	166.4	0.622946558	0.774151057	0.013058247	0.134719527	0.041521867
2019-11-02T18:45:00	0.2454	8.223	166.4	0.620049563	0.769854131	0.012945476	0.133556089	0.041163284
2019-11-02T18:50:00	0.2446	8.232	166.4	0.617482263	0.766052134	0.012845962	0.132529420	0.040846854
2019-11-02T18:55:00	0.2447	8.236	166.4	0.617570339	0.766182477	0.012849369	0.132564574	0.040857689
2019-11-02T19:00:00	0.2455	8.239	166.4	0.620313594	0.770245458	0.012955733	0.133661908	0.041195898
2019-11-02T19:05:00	0.2469	8.240	166.4	0.625043298	0.777265433	0.013140183	0.135564841	0.041782400
2019-11-02T19:10:00	0.2444	8.238	166.4	0.616838400	0.765099487	0.012821067	0.132272580	0.040767694
2019-11-02T19:15:00	0.2442	8.234	166.4	0.615930084	0.763756154	0.012785988	0.131910686	0.040656155
2019-11-02T19:20:00	0.2453	8.230	166.4	0.619670242	0.769292033	0.012930748	0.133404140	0.041116452
2019-11-02T19:25:00	0.2453	8.224	166.4	0.619758264	0.769422458	0.012934165	0.133439392	0.041127317
2019-11-02T19:30:00	0.2451	8.218	166.3	0.618850692	0.768077994	0.012898956	0.133076148	0.041015361
2019-11-02T19:35:00	0.2473	8.215	166.3	0.626233111	0.779034364	0.013186796	0.136045739	0.041930618
2019-11-02T19:40:00	0.2491	8.215	166.3	0.632277890	0.788039804	0.013424933	0.138502559	0.042687834
2019-11-02T19:45:00	0.2499	8.215	166.3	0.635009877	0.792120034	0.013533287	0.139620428	0.043032372
2019-11-02T19:50:00	0.2483	8.216	166.4	0.629476238	0.783862094	0.013314285	0.137361029	0.042336003
2019-11-02T19:55:00	0.2497	8.216	166.3	0.634193839	0.790900616	0.013500875	0.139286034	0.042929308
2019-11-02T20:00:00	0.2491	8.214	166.3	0.632298077	0.788069930	0.013425732	0.138510802	0.042690374
2019-11-02T20:05:00	0.2486	8.210	166.3	0.630732133	0.785734012	0.013363827	0.137872136	0.042493531
2019-11-02T20:10:00	0.2494	8.208	166.3	0.633134729	0.789318815	0.013458868	0.138852656	0.042795737
2019-11-02T20:15:00	0.2496	8.205	166.2	0.633883514	0.790437041	0.013488559	0.139158979	0.042890149
2019-11-02T20:20:00	0.2491	8.201	166.2	0.632318263	0.788100055	0.013426531	0.138519045	0.042692915
2019-11-02T20:25:00	0.2497	8.197	166.2	0.634389341	0.791192707	0.013508636	0.139366108	0.042953988
2019-11-02T20:30:00	0.2486	8.191	166.2	0.630509265	0.785401728	0.013355028	0.137781364	0.042465554
2019-11-02T20:35:00	0.2483	8.187	166.2	0.629604422	0.784053092	0.013319338	0.137413151	0.042352068
2019-11-02T20:40:00	0.2488	8.182	166.2	0.631346335	0.786649970	0.013388090	0.138122454	0.042570682
2019-11-02T20:45:00	0.2482	8.177	166.1	0.629118123	0.783328565	0.013300176	0.137215469	0.042291140
2019-11-02T20:50:00	0.2479	8.172	166.1	0.628212928	0.781980469	0.013264548	0.136847898	0.042177851
2019-11-02T20:55:00	0.2488	8.168	166.1	0.631278791	0.786549225	0.013385420	0.138094914	0.042562194
2019-11-02T21:00:00	0.2483	8.163	166.1	0.629712401	0.784213994	0.013323594	0.137457064	0.042365602
2019-11-02T21:05:00	0.2509	8.158	166.0	0.638062975	0.796687330	0.013654912	0.140875213	0.043419109
2019-11-02T21:10:00	0.2515	8.156	166.0	0.640130738	0.799785103	0.013737607	0.141728354	0.043682055
2019-11-02T21:15:00	0.2520	8.156	166.0	0.641867545	0.802389868	0.013807266	0.142447017	0.043903554
2019-11-02T21:20:00	0.2523	8.161	166.0	0.642944208	0.804005872	0.013850540	0.142893473	0.044041156
2019-11-02T21:25:00	0.2522	8.168	166.1	0.642372249	0.803147274	0.013827543	0.142656210	0.043968029
2019-11-02T21:30:00	0.2476	8.174	166.1	0.627260099	0.780562180	0.013227099	0.136461537	0.042058771
2019-11-02T21:35:00	0.2495	8.180	166.1	0.633633699	0.790063918	0.013478650	0.139056742	0.042858639
2019-11-02T21:40:00	0.2485	8.183	166.2	0.630414538	0.785260508	0.013351289	0.137742792	0.042453666
2019-11-02T21:45:00	0.2500	8.187	166.1	0.635130903	0.792300933	0.013538098	0.139670057	0.043047668
2019-11-02T21:50:00	0.2504	8.191	166.2	0.636539874	0.794407853	0.013594166	0.140248508	0.043225952
2019-11-02T21:55:00	0.2511	8.196	166.2	0.638938582	0.797998658	0.013689898	0.141236154	0.043530354
2019-11-02T22:00:00	0.2513	8.204	166.3	0.639356158	0.798624258	0.013706599	0.141408455	0.043583459
2019-11-02T22:05:00	0.2490	8.213	166.3	0.632032833	0.787674119	0.013415236	0.138402515	0.042656999
2019-11-02T22:10:00	0.2492	8.224	166.4	0.632638461	0.788577955	0.013439208	0.138649829	0.042733224
2019-11-02T22:15:00	0.2492	8.241	166.5	0.632582775	0.788494836	0.013437003	0.138627079	0.042726212
2019-11-02T22:20:00	0.2509	8.258	166.5	0.638143590	0.796808034	0.013658131	0.140908424	0.043429345
2019-11-02T22:25:00	0.2500	8.273	166.6	0.635115597	0.792278054	0.013537489	0.139663780	0.043045733
2019-11-02T22:30:00	0.2495	8.283	166.7	0.633407529	0.789726156	0.013469681	0.138964216	0.042830121
2019-11-02T22:35:00	0.2507	8.289	166.6	0.637646631	0.796064034	0.013638293	0.140703757	0.043366264
2019-11-02T22:40:00	0.2486	8.293	166.7	0.630650639	0.785612503	0.013360609	0.137838940	0.042483300
2019-11-02T22:45:00	0.2489	8.298	166.7	0.631587244	0.787009324	0.013397613	0.138220701	0.042600962
2019-11-02T22:50:00	0.2500	8.301	166.7	0.635167764	0.792356032	0.013539563	0.139685174	0.043052327
2019-11-02T22:55:00	0.2491	8.303	166.7	0.632137255	0.787829936	0.013419367	0.138445140	0.042670137
2019-11-02T23:00:00	0.2473	8.304	166.7	0.626455533	0.779365179	0.013195519	0.136135736	0.041958356
2019-11-02T23:05:00	0.2478	8.304	166.7	0.628055410	0.781745949	0.013258353	0.136783987	0.042158153
2019-11-02T23:10:00	0.2455	8.304	166.7	0.620377137	0.770339646	0.012958202	0.133687382	0.041203749
2019-11-02T23:15:00	0.2439	8.305	166.8	0.615008929	0.762394542	0.012750465	0.131544200	0.040543200
2019-11-02T23:20:00	0.2462	8.307	166.7	0.622587074	0.773617473	0.013044226	0.134574874	0.041477283
2019-11-02T23:25:00	0.2450	8.309	166.8	0.618550197	0.767632998	0.012887309	0.132955992	0.040978328
2019-11-02T23:30:00	0.2459	8.311	166.8	0.621812180	0.772467664	0.013014029	0.134263337	0.041381264
2019-11-02T23:35:00	0.2426	8.313	166.8	0.610795365	0.756175331	0.012588625	0.129874525	0.040028590
2019-11-02T23:40:00	0.2426	8.314	166.8	0.610739336	0.756092734	0.012586480	0.129852397	0.040021770
2019-11-02T23:45:00	0.2426	8.314	166.8	0.610683307	0.756010138	0.012584336	0.129830271	0.040014950
2019-11-02T23:50:00	0.2420	8.315	166.8	0.608630646	0.752986010	0.012505894	0.129021008	0.039765528
2019-11-02T23:55:00	0.2434	8.316	166.9	0.613231719	0.759769565	0.012682074	0.130838617	0.040325732
2019-11-03T00:00:00	0.2413	8.317	166.8	0.606520701	0.749881175	0.012425528	0.128191880	0.039509982
2019-11-03T00:05:00	0.2410	8.319	166.8	0.605465258	0.748329465	0.012385427	0.127778164	0.039382471
2019-11-03T00:10:00	0.2412	8.319	166.8	0.606075419	0.749226408	0.012408601	0.128017253	0.039456161
2019-11-03T00:15:00	0.2401	8.319	166.8	0.602353202	0.743759565	0.012267574	0.126562300	0.039007730
2019-11-03T00:20:00	0.2394	8.317	166.8	0.599962044	0.740253775	0.012177415	0.125632150	0.038721049
2019-11-03T00:25:00	0.2433	8.318	166.7	0.612895767	0.759273655	0.012669167	0.130705458	0.040284692
2019-11-03T00:30:00	0.2436	8.318	166.6	0.614169409	0.761154221	0.012718135	0.131210652	0.040440397
2019-11-03T00:35:00	0.2415	8.319	166.6	0.607127173	0.750773231	0.012448601	0.128429918	0.039583348
2019-11-03T00:40:00	0.2412	8.320	166.7	0.606071910	0.749221250	0.012408468	0.128015877	0.039455737
2019-11-03T00:45:00	0.2414	8.320	166.7	0.606681967	0.750118350	0.012431661	0.128255154	0.039529484
2019-11-03T00:50:00	0.2402	8.320	166.7	0.602626973	0.744161259	0.012277918	0.126669021	0.039040622
2019-11-03T00:55:00	0.2413	8.319	166.7	0.606236705	0.749463553	0.012414731	0.128080490	0.039475651
2019-11-03T01:00:00	0.2409	8.318	166.7	0.605181177	0.747911970	0.012374645	0.127666927	0.039348187
2019-11-03T01:05:00	0.2421	8.316	166.7	0.609121144	0.753708327	0.012524616	0.129214150	0.039825056
2019-11-03T01:10:00	0.2434	8.314	166.7	0.613389179	0.760002029	0.012688126	0.130901052	0.040344976
2019-11-03T01:15:00	0.2407	8.313	166.7	0.604346350	0.746685470	0.012342987	0.127340323	0.039247524
2019-11-03T01:20:00	0.2418	8.311	166.7	0.607954331	0.751990391	0.012480105	0.128754942	0.039683524
2019-11-03T01:25:00	0.2427	8.308	166.7	0.610893403	0.756319865	0.012592379	0.129913249	0.040040525
2019-11-03T01:30:00	0.2417	8.304	166.7	0.607842184	0.751825333	0.012475831	0.128710850	0.039669934
2019-11-03T01:35:00	0.2410	8.300	166.7	0.605454730	0.748313992	0.012385027	0.127774040	0.039381200
2019-11-03T01:40:00	0.2401	8.297	166.7	0.602398826	0.743826502	0.012269298	0.126580082	0.039013210
2019-11-03T01:45:00	0.2388	8.293	166.7	0.598005071	0.737388125	0.012103882	0.124873523	0.038487232
2019-11-03T01:50:00	0.2393	8.289	166.6	0.599617802	0.739749460	0.012164464	0.125498532	0.038679867
2019-11-03T01:55:00	0.2401	8.286	166.6	0.602230340	0.743579314	0.012262933	0.126514421	0.038992973
2019-11-03T02:00:00	0.2398	8.283	166.6	0.601507168	0.742518608	0.012235635	0.126232793	0.038906173
2019-11-03T02:05:00	0.2409	8.280	166.6	0.605118040	0.747819192	0.012372249	0.127642211	0.039340569
2019-11-03T02:10:00	0.2418	8.277	166.5	0.608059461	0.752145130	0.012484112	0.128796282	0.039696265
2019-11-03T02:15:00	0.2412	8.274	166.6	0.606005281	0.749123289	0.012405936	0.127989758	0.039447686
2019-11-03T02:20:00	0.2400	8.272	166.6	0.601949512	0.743167360	0.012252329	0.126405019	0.038959254
2019-11-03T02:25:00	0.2413	8.271	166.5	0.606226179	0.749448076	0.012414331	0.128076363	0.039474379
2019-11-03T02:30:00	0.2412	8.268	166.5	0.606170078	0.749365587	0.012412199	0.128054365	0.039467599
2019-11-03T02:35:00	0.2405	8.266	166.5	0.603781497	0.745855938	0.012321591	0.127119584	0.039179490
2019-11-03T02:40:00	0.2439	8.264	166.6	0.615040390	0.762441036	0.012751678	0.131556709	0.040547055
2019-11-03T02:45:00	0.2427	8.262	166.5	0.610994942	0.756469569	0.012596267	0.129953361	0.040052888
2019-11-03T02:50:00	0.2432	8.260	166.5	0.612601773	0.758839759	0.012657877	0.130588988	0.040248794
2019-11-03T02:55:00	0.2446	8.259	166.5	0.617197713	0.765631076	0.012834956	0.132415880	0.040811860
2019-11-03T03:00:00	0.2426	8.257	166.6	0.610826864	0.756221768	0.012589831	0.129886966	0.040032424
2019-11-03T03:05:00	0.2414	8.255	166.6	0.606776610	0.750257553	0.012435261	0.128292295	0.039540931
2019-11-03T03:10:00	0.2414	8.253	166.6	0.606720518	0.750175051	0.012433127	0.128270282	0.039534147
2019-11-03T03:15:00	0.2396	8.249	166.5	0.600664447	0.741283105	0.012203864	0.125905016	0.038805149
2019-11-03T03:20:00	0.2419	8.246	166.5	0.608273218	0.752459785	0.012492261	0.128880359	0.039722178
2019-11-03T03:25:00	0.2432	8.242	166.5	0.612542271	0.758751950	0.012655593	0.130565422	0.040241531
2019-11-03T03:30:00	0.2399	8.238	166.5	0.601830149	0.742992283	0.012247823	0.126358533	0.038944927
2019-11-03T03:35:00	0.2416	8.232	166.5	0.607439119	0.751232191	0.012460477	0.128552445	0.039621112
2019-11-03T03:40:00	0.2407	8.226	166.4	0.604384927	0.746742133	0.012344449	0.127355406	0.039252173
2019-11-03T03:45:00	0.2404	8.218	166.3	0.603328847	0.745191379	0.012304459	0.126942835	0.039125015
2019-11-03T03:50:00	0.2405	8.211	166.3	0.603606054	0.745598341	0.012314949	0.127051063	0.039158372
2019-11-03T03:55:00	0.2401	8.204	166.2	0.602216290	0.743558702	0.012262403	0.126508946	0.038991286
2019-11-03T04:00:00	0.2397	8.198	166.2	0.601159563	0.742008916	0.012222525	0.126097539	0.038864486
2019-11-03T04:05:00	0.2396	8.192	166.2	0.600772778	0.741441895	0.012207946	0.125947127	0.038818128
2019-11-03T04:10:00	0.2405	8.186	166.2	0.603720790	0.745766800	0.012319293	0.127095872	0.039172182
2019-11-03T04:15:00	0.2415	8.179	166.1	0.606999384	0.750585241	0.012443737	0.128379742	0.039567883
2019-11-03T04:20:00	0.2395	8.169	166.1	0.600279535	0.740718988	0.012189367	0.125755450	0.038759051
2019-11-03T04:25:00	0.2368	8.162	166.0	0.591206109	0.727457076	0.011850189	0.122256219	0.037680554
2019-11-03T04:30:00	0.2390	8.157	166.0	0.598838219	0.738607736	0.012135160	0.125196207	0.038586687
2019-11-03T04:35:00	0.2399	8.153	166.0	0.601787842	0.742930232	0.012246226	0.126342059	0.038939850
2019-11-03T04:40:00	0.2404	8.150	165.9	0.603401832	0.745298521	0.012307221	0.126971326	0.039133796
2019-11-03T04:45:00	0.2415	8.146	177.1	0.607013755	0.750606381	0.012444284	0.128385384	0.039569622
2019-11-03T04:50:00	0.2427	8.144	165.9	0.610954665	0.756410187	0.012594724	0.129937450	0.040047984
2019-11-03T04:55:00	0.2432	8.141	165.9	0.612564491	0.758784739	0.012656446	0.130574221	0.040244243
2019-11-03T05:00:00	0.2421	8.137	165.8	0.609184888	0.753802211	0.012527050	0.129239261	0.039832795
2019-11-03T05:05:00	0.2416	8.134	165.9	0.607467329	0.751273700	0.012461551	0.128563528	0.039624528
2019-11-03T05:10:00	0.2424	8.131	165.8	0.610077066	0.755116612	0.012561142	0.129590989	0.039941201
2019-11-03T05:15:00	0.2414	8.127	165.8	0.606695094	0.750137657	0.012432160	0.128260305	0.039531072
2019-11-03T05:20:00	0.2425	8.124	165.8	0.610303665	0.755450555	0.012569809	0.129680400	0.039968759
2019-11-03T05:25:00	0.2433	8.120	165.8	0.612911319	0.759296609	0.012669764	0.130711621	0.040286591
2019-11-03T05:30:00	0.2447	8.116	165.8	0.617509830	0.766092929	0.012847028	0.132540422	0.040850245
2019-11-03T05:35:00	0.2428	8.112	165.8	0.611475131	0.757177655	0.012614662	0.130143146	0.040111382
2019-11-03T05:40:00	0.2438	8.108	165.8	0.614746574	0.762006871	0.012740357	0.131439917	0.040511059
2019-11-03T05:45:00	0.2438	8.104	165.6	0.614693581	0.761928573	0.012738316	0.131418859	0.040504569
2019-11-03T05:50:00	0.2431	8.100	165.7	0.612313706	0.758414680	0.012646821	0.130474917	0.040213637
2019-11-03T05:55:00	0.2446	8.097	165.7	0.617245064	0.765701139	0.012836787	0.132434770	0.040817682
2019-11-03T06:00:00	0.2447	8.094	165.7	0.617524158	0.766114133	0.012847583	0.132546141	0.040852008
2019-11-03T06:05:00	0.2439	8.092	165.7	0.615146176	0.762597371	0.012755755	0.131598771	0.040560019
2019-11-03T06:10:00	0.2436	8.090	165.7	0.614096268	0.761046191	0.012715320	0.131181613	0.040431447
2019-11-03T06:15:00	0.2438	8.088	165.7	0.614707921	0.761949760	0.012738868	0.131424557	0.040506325
2019-11-03T06:20:00	0.2438	8.087	165.6	0.614654928	0.761871463	0.012736827	0.131403499	0.040499835
2019-11-03T06:25:00	0.2438	8.085	165.7	0.614601934	0.761793167	0.012734786	0.131382443	0.040493345
2019-11-03T06:30:00	0.2426	8.084	165.7	0.610558963	0.755826844	0.012579577	0.129781174	0.039999818
2019-11-03T06:35:00	0.2444	8.083	165.7	0.616821399	0.765074337	0.012820409	0.132265801	0.040765605
2019-11-03T06:40:00	0.2441	8.083	165.6	0.615771985	0.763522407	0.012779888	0.131847748	0.040636756
2019-11-03T06:45:00	0.2452	8.083	165.6	0.619371357	0.768849215	0.012919149	0.133284475	0.041079570
2019-11-03T06:50:00	0.2444	8.082	165.7	0.616662511	0.764839306	0.012814270	0.132202462	0.040746083
2019-11-03T06:55:00	0.2451	8.083	165.7	0.618933622	0.768200816	0.012902171	0.133109318	0.041025585
2019-11-03T07:00:00	0.2470	8.086	165.7	0.625181360	0.777470634	0.013145587	0.135620598	0.041799585
2019-11-03T07:05:00	0.2460	8.088	165.6	0.622145339	0.772961952	0.013027007	0.134397234	0.041422533
2019-11-03T07:10:00	0.2471	8.093	165.6	0.625738285	0.778298547	0.013167400	0.135845634	0.041868944
2019-11-03T07:15:00	0.2477	8.097	165.7	0.627672552	0.781176023	0.013243303	0.136628712	0.042110296
2019-11-03T07:20:00	0.2478	8.103	165.7	0.627950831	0.781590260	0.013254241	0.136741564	0.042145078
2019-11-03T07:25:00	0.2485	8.109	165.7	0.630214771	0.784962719	0.013343407	0.137661468	0.042428601
2019-11-03T07:30:00	0.2472	8.114	165.8	0.625858237	0.778476899	0.013172100	0.135894128	0.041883890
2019-11-03T07:35:00	0.2489	8.121	165.8	0.631432459	0.786778431	0.013391494	0.138157572	0.042581506
2019-11-03T07:40:00	0.2481	8.127	165.8	0.629063731	0.783247541	0.013298034	0.137193368	0.042284328
2019-11-03T07:45:00	0.2480	8.134	165.9	0.628679969	0.782675941	0.013282925	0.137037485	0.042236284
2019-11-03T07:50:00	0.2487	8.144	165.9	0.630943448	0.786049109	0.013372172	0.137958230	0.042520066
2019-11-03T07:55:00	0.2482	8.151	165.9	0.629236349	0.783504689	0.013304833	0.137263514	0.042305948
2019-11-03T08:00:00	0.2477	8.154	165.9	0.627528435	0.780961521	0.013237640	0.136570287	0.042092289
2019-11-03T08:05:00	0.2468	8.155	165.9	0.624494409	0.776449787	0.013118708	0.135343288	0.041714116
2019-11-03T08:10:00	0.2456	8.159	165.9	0.620794406	0.770958233	0.012974422	0.133854721	0.041255325
2019-11-03T08:15:00	0.2476	8.165	165.9	0.627370023	0.780725764	0.013231416	0.136506081	0.042072500
2019-11-03T08:20:00	0.2472	8.171	166.0	0.625992479	0.778676513	0.013177361	0.135948409	0.041900620
2019-11-03T08:25:00	0.2457	8.177	166.0	0.620967424	0.771214769	0.012981151	0.133924139	0.041276720
2019-11-03T08:30:00	0.2459	8.181	166.0	0.621577898	0.772120130	0.013004906	0.134169220	0.041352257
2019-11-03T08:35:00	0.2453	8.185	166.0	0.619534484	0.769090889	0.012925479	0.133349780	0.041099697
2019-11-03T08:40:00	0.2439	8.188	166.0	0.615164880	0.762625012	0.012756476	0.131606209	0.040562312
2019-11-03T08:45:00	0.2422	8.191	166.1	0.609458999	0.754205974	0.012537519	0.129347273	0.039866086
2019-11-03T08:50:00	0.2425	8.196	166.0	0.610404166	0.755598679	0.012573654	0.129720066	0.039980984
2019-11-03T08:55:00	0.2420	8.203	166.1	0.608687197	0.753069279	0.012508052	0.129043269	0.039772389
2019-11-03T09:00:00	0.2429	8.212	166.1	0.611628638	0.757404057	0.012620546	0.130203846	0.040130090
2019-11-03T09:05:00	0.2405	8.220	166.2	0.603584459	0.745566634	0.012314132	0.127042630	0.039155772
2019-11-03T09:10:00	0.2392	8.230	166.2	0.599195163	0.739130429	0.012148573	0.125334585	0.038629336
2019-11-03T09:15:00	0.2405	8.239	166.3	0.603811473	0.745899953	0.012322726	0.127131293	0.039183099
2019-11-03T09:20:00	0.2420	8.246	166.3	0.608754643	0.753168592	0.012510626	0.129069820	0.039780572
2019-11-03T09:25:00	0.2449	8.251	166.3	0.618341381	0.767323811	0.012879219	0.132872527	0.040952603
2019-11-03T09:30:00	0.2426	8.256	166.3	0.610645100	0.755953816	0.012582873	0.129815184	0.040010300
2019-11-03T09:35:00	0.2437	8.264	166.3	0.614249662	0.761272763	0.012721224	0.131242518	0.040450219
2019-11-03T09:40:00	0.2430	8.273	166.4	0.611869489	0.757759319	0.012629780	0.130299114	0.040159452
2019-11-03T09:45:00	0.2438	8.284	166.4	0.614808298	0.762098072	0.012742735	0.131464448	0.040518620
2019-11-03T09:50:00	0.2435	8.298	166.5	0.613758289	0.760547043	0.012702318	0.131047470	0.040390103
2019-11-03T09:55:00	0.2423	8.314	166.5	0.609714357	0.754582171	0.012547276	0.129447937	0.039897111
2019-11-03T10:00:00	0.2420	8.325	166.6	0.608662842	0.753033418	0.012507123	0.129033681	0.039769434
2019-11-03T10:05:00	0.2410	8.336	166.7	0.605515369	0.748403118	0.012387329	0.127797791	0.039388520
2019-11-03T10:10:00	0.2412	8.349	166.7	0.606031201	0.749161397	0.012406921	0.127999918	0.039450818
2019-11-03T10:15:00	0.2411	8.365	166.8	0.605547632	0.748450539	0.012388554	0.127810429	0.039392415
2019-11-03T10:20:00	0.2395	8.383	166.9	0.600396116	0.740889834	0.012193757	0.125800740	0.038773010
2019-11-03T10:25:00	0.2391	8.403	167.0	0.598910579	0.738713687	0.012137878	0.125224252	0.038595331
2019-11-03T10:30:00	0.2418	8.422	167.1	0.608093775	0.752195638	0.012485420	0.128809777	0.039700424
2019-11-03T10:35:00	0.2392	8.438	167.1	0.599276663	0.739249789	0.012151636	0.125366191	0.038639078
2019-11-03T10:40:00	0.2410	8.450	167.2	0.605461711	0.748324252	0.012385292	0.127776775	0.039382043
2019-11-03T10:45:00	0.2416	8.467	167.2	0.607309758	0.751041854	0.012455551	0.128501627	0.039605449
2019-11-03T10:50:00	0.2410	8.478	167.3	0.605493974	0.748371672	0.012386517	0.127789411	0.039385938
2019-11-03T10:55:00	0.2406	8.482	167.3	0.604010575	0.746192325	0.012330266	0.127209082	0.039207074
2019-11-03T11:00:00	0.2394	8.489	167.3	0.600191709	0.740590291	0.012186060	0.125721336	0.038748537
2019-11-03T11:05:00	0.2431	8.494	167.3	0.612365491	0.758491090	0.012648808	0.130495420	0.040219956
2019-11-03T11:10:00	0.2425	8.504	167.4	0.610219592	0.755326650	0.012566593	0.129647223	0.039958533
2019-11-03T11:15:00	0.2426	8.512	167.4	0.610734740	0.756085957	0.012586304	0.129850582	0.040021210
2019-11-03T11:20:00	0.2420	8.516	167.4	0.608587854	0.752923005	0.012504262	0.129004165	0.039760337
2019-11-03T11:25:00	0.2422	8.522	167.4	0.609436044	0.754172160	0.012536642	0.129338226	0.039863297
2019-11-03T11:30:00	0.2413	8.530	167.5	0.606289258	0.749540828	0.012416728	0.128101099	0.039482003
2019-11-03T11:35:00	0.2375	8.537	167.5	0.593792654	0.731230621	0.011946377	0.123248572	0.037986407
2019-11-03T11:40:00	0.2375	8.547	167.6	0.593641703	0.731010244	0.011940753	0.123190545	0.037968522
2019-11-03T11:45:00	0.2403	8.560	167.6	0.603171960	0.744961084	0.012298524	0.126881604	0.039106143
2019-11-03T11:50:00	0.2380	8.572	167.7	0.595345056	0.733498122	0.012004299	0.123846143	0.038170584
2019-11-03T11:55:00	0.2377	8.579	167.7	0.594191636	0.731813198	0.011961250	0.123402011	0.038033698
2019-11-03T12:00:00	0.2398	8.586	167.7	0.601386355	0.742341448	0.012231078	0.126185776	0.038891682
2019-11-03T12:05:00	0.2390	8.597	167.8	0.598566234	0.738209525	0.012124945	0.125090818	0.038554205
2019-11-03T12:10:00	0.2378	8.606	167.8	0.594741482	0.732616279	0.011981762	0.123613631	0.038098922
2019-11-03T12:15:00	0.2373	8.617	167.9	0.592919234	0.729955753	0.011913852	0.122913015	0.037882985
2019-11-03T12:20:00	0.2365	8.630	167.9	0.590426940	0.726321431	0.011821292	0.121958090	0.037588668
2019-11-03T12:25:00	0.2343	8.643	168.0	0.582906993	0.715387017	0.011544254	0.119099940	0.036707758
2019-11-03T12:30:00	0.2360	8.654	168.1	0.588786043	0.723931462	0.011760554	0.121331463	0.037395535
2019-11-03T12:35:00	0.2362	8.663	168.1	0.589304322	0.724686093	0.011779720	0.121529205	0.037456481
2019-11-03T12:40:00	0.2355	8.674	168.1	0.587144381	0.721542622	0.011699947	0.120706199	0.037202823
2019-11-03T12:45:00	0.2384	8.688	168.2	0.596692167	0.735467396	0.012054678	0.124365894	0.038330776
2019-11-03T12:50:00	0.2397	8.701	168.3	0.600880728	0.741600136	0.012212014	0.125989097	0.038831063
2019-11-03T12:55:00	0.2382	8.706	168.3	0.596056474	0.734537919	0.012030891	0.124120487	0.038255140
2019-11-03T13:00:00	0.2381	8.709	168.3	0.595571540	0.733829102	0.012012762	0.123933448	0.038197492
2019-11-03T13:05:00	0.2392	8.713	168.3	0.599427713	0.739471022	0.012157315	0.125424781	0.038657136
2019-11-03T13:10:00	0.2383	8.716	168.3	0.596272016	0.734853036	0.012038954	0.124203669	0.038280777
2019-11-03T13:15:00	0.2389	8.718	168.4	0.598458705	0.738052108	0.012120907	0.125049165	0.038541367
2019-11-03T13:20:00	0.2391	8.718	168.4	0.598975565	0.738808846	0.012140320	0.125249443	0.038603095
2019-11-03T13:25:00	0.2402	8.721	168.4	0.602828030	0.744456302	0.012285518	0.126747426	0.039064788
2019-11-03T13:30:00	0.2399	8.723	168.4	0.601677049	0.742767739	0.012242045	0.126298921	0.038926554
2019-11-03T13:35:00	0.2387	8.724	168.4	0.597855662	0.737169473	0.012098278	0.124815701	0.038469411
2019-11-03T13:40:00	0.2398	8.724	168.4	0.601375814	0.742325993	0.012230680	0.126181674	0.038890417
2019-11-03T13:45:00	0.2415	8.723	168.4	0.606891205	0.750426110	0.012439621	0.128337274	0.039554794
2019-11-03T13:50:00	0.2409	8.722	168.4	0.605075207	0.747756250	0.012370624	0.127625445	0.039335402
2019-11-03T13:55:00	0.2402	8.721	168.4	0.602591474	0.744109168	0.012276577	0.126655180	0.039036356
2019-11-03T14:00:00	0.2390	8.720	168.4	0.598771076	0.738509426	0.012132638	0.125170186	0.038578667
2019-11-03T14:05:00	0.2386	8.721	168.4	0.597284855	0.736334299	0.012076878	0.124594923	0.038401365
2019-11-03T14:10:00	0.2386	8.726	168.5	0.597467987	0.736602217	0.012083741	0.124665733	0.038423190
2019-11-03T14:15:00	0.2391	8.727	168.5	0.598986453	0.738824789	0.012140729	0.125253664	0.038604396
2019-11-03T14:20:00	0.2396	8.724	168.4	0.600837881	0.741537326	0.012210399	0.125972437	0.038825929
2019-11-03T14:25:00	0.2386	8.716	168.4	0.597349531	0.736428915	0.012079302	0.124619928	0.038409072
2019-11-03T14:30:00	0.2400	8.709	168.4	0.601870831	0.743051953	0.012249359	0.126374376	0.038949810
2019-11-03T14:35:00	0.2404	8.703	168.4	0.603387409	0.745277347	0.012306675	0.126965695	0.039132060
2019-11-03T14:40:00	0.2399	8.698	168.4	0.601569614	0.742610182	0.012237991	0.126257099	0.038913664
2019-11-03T14:45:00	0.2397	8.694	168.4	0.601085436	0.741900237	0.012219730	0.126068705	0.038855599
2019-11-03T14:50:00	0.2379	8.691	168.3	0.594925086	0.732884498	0.011988615	0.123684336	0.038120714
2019-11-03T14:55:00	0.2382	8.688	168.3	0.596110616	0.734617070	0.012032916	0.124141379	0.038261579
2019-11-03T15:00:00	0.2394	8.686	168.3	0.599966201	0.740259866	0.012177572	0.125633765	0.038721546
2019-11-03T15:05:00	0.2382	8.681	168.3	0.596142965	0.734664362	0.012034126	0.124153862	0.038265426
2019-11-03T15:10:00	0.2395	8.676	168.3	0.600332176	0.740796131	0.012191349	0.125775899	0.038765354
2019-11-03T15:15:00	0.2396	8.671	168.3	0.600848763	0.741553278	0.012210809	0.125976668	0.038827233
2019-11-03T15:20:00	0.2399	8.661	168.3	0.601698807	0.742799650	0.012242866	0.126307392	0.038929165
2019-11-03T15:25:00	0.2391	8.649	168.2	0.598878936	0.738667354	0.012136689	0.125211988	0.038591551
2019-11-03T15:30:00	0.2395	8.641	168.1	0.600396796	0.740890831	0.012193782	0.125801005	0.038773091
2019-11-03T15:35:00	0.2397	8.632	168.1	0.600913374	0.741647991	0.012213244	0.126001791	0.038834976
2019-11-03T15:40:00	0.2379	8.622	168.1	0.595086881	0.733120881	0.011994656	0.123746660	0.038139922
2019-11-03T15:45:00	0.2410	8.609	168.0	0.605279672	0.748056714	0.012378382	0.127705489	0.039360072
2019-11-03T15:50:00	0.2397	8.596	168.0	0.601128620	0.741963550	0.012221358	0.126085502	0.038860776
2019-11-03T15:55:00	0.2406	8.581	167.9	0.603978977	0.746145923	0.012329069	0.127196735	0.039203269
2019-11-03T16:00:00	0.2407	8.566	167.9	0.604495032	0.746903866	0.012348622	0.127398460	0.039265443
2019-11-03T16:05:00	0.2385	8.550	167.8	0.597058292	0.736002879	0.012068389	0.124507348	0.038374374
2019-11-03T16:10:00	0.2402	8.534	167.7	0.602633582	0.744170957	0.012278168	0.126671598	0.039041417
2019-11-03T16:15:00	0.2403	8.519	167.7	0.602869607	0.744517319	0.012287090	0.126763642	0.039069786
2019-11-03T16:20:00	0.2405	8.503	167.6	0.603772323	0.745842467	0.012321244	0.127116001	0.039178386
2019-11-03T16:25:00	0.2378	8.488	167.5	0.594663549	0.732502437	0.011978854	0.123583626	0.038089674
2019-11-03T16:30:00	0.2386	8.473	167.5	0.597238447	0.736266408	0.012075139	0.124576981	0.038395836
2019-11-03T16:35:00	0.2388	8.459	167.4	0.598142601	0.737589409	0.012109042	0.124926759	0.038503640
2019-11-03T16:40:00	0.2389	8.446	167.3	0.598378925	0.737935323	0.012117912	0.125018266	0.038531844
2019-11-03T16:45:00	0.2396	8.435	167.3	0.600617516	0.741214317	0.012202096	0.125886775	0.038799527
2019-11-03T16:50:00	0.2399	8.423	167.2	0.601854324	0.743027741	0.012248736	0.126367947	0.038947829
2019-11-03T16:55:00	0.2381	8.411	167.2	0.595748592	0.734087873	0.012019379	0.124001721	0.038218535
2019-11-03T17:00:00	0.2402	8.397	167.1	0.602659904	0.744209582	0.012279163	0.126681861	0.039044580
2019-11-03T17:05:00	0.2396	8.383	167.1	0.600561326	0.741131962	0.012199979	0.125864937	0.038792796
2019-11-03T17:10:00	0.2387	8.369	167.0	0.597793794	0.737078938	0.012095957	0.124791762	0.038462033
2019-11-03T17:15:00	0.2395	8.355	167.0	0.600366414	0.740846305	0.012192638	0.125789201	0.038769453
2019-11-03T17:20:00	0.2381	8.340	166.9	0.595594736	0.733863003	0.012013629	0.123942392	0.038200249
2019-11-03T17:25:00	0.2371	8.326	166.8	0.592488938	0.729327915	0.011897845	0.122747874	0.037832087
2019-11-03T17:30:00	0.2372	8.311	166.7	0.592725641	0.729673266	0.011906649	0.122838703	0.037860081
2019-11-03T17:35:00	0.2366	8.297	166.7	0.590621152	0.726604449	0.011828491	0.122032365	0.037611560
2019-11-03T17:40:00	0.2389	8.281	166.6	0.598210248	0.737688421	0.012111581	0.124952949	0.038511712
2019-11-03T17:45:00	0.2381	8.268	166.6	0.595774966	0.734126421	0.012020365	0.124011892	0.038221670
2019-11-03T17:50:00	0.2385	8.253	166.5	0.597013469	0.735937317	0.012066710	0.124490026	0.038369035
2019-11-03T17:55:00	0.2366	8.237	166.4	0.590564803	0.726522331	0.011826402	0.122010813	0.037604917
2019-11-03T18:00:00	0.2336	8.221	166.3	0.580750872	0.712260573	0.011465442	0.118286849	0.036457156
2019-11-03T18:05:00	0.2340	8.202	166.3	0.581994667	0.714063645	0.011510872	0.118755547	0.036601613
2019-11-03T18:10:00	0.2370	8.184	166.2	0.591944195	0.728533311	0.011877596	0.122538973	0.037767702
2019-11-03T18:15:00	0.2351	8.165	166.1	0.585486242	0.719132084	0.011638896	0.120076340	0.037008694
2019-11-03T18:20:00	0.2354	8.147	166.0	0.586728364	0.720937618	0.011684614	0.120548013	0.037154068
2019-11-03T18:25:00	0.2352	8.130	165.9	0.585960574	0.719821417	0.011656343	0.120256347	0.037064174
2019-11-03T18:30:00	0.2350	8.114	165.9	0.585192617	0.718705462	0.011628101	0.119964979	0.036974372
2019-11-03T18:35:00	0.2352	8.099	165.8	0.586099864	0.720023878	0.011661470	0.120309233	0.037080474
2019-11-03T18:40:00	0.2346	8.087	165.7	0.583991411	0.716960917	0.011583997	0.119509960	0.036834130
2019-11-03T18:45:00	0.2367	8.073	165.7	0.590925767	0.727048418	0.011839788	0.122148911	0.037647481
2019-11-03T18:50:00	0.2352	8.060	165.6	0.586141297	0.720084105	0.011662995	0.120324967	0.037085323
2019-11-03T18:55:00	0.2374	8.046	165.5	0.593405743	0.730665797	0.011931964	0.123099868	0.037940575
2019-11-03T19:00:00	0.2357	8.034	165.5	0.587620234	0.722234822	0.011717498	0.120887268	0.037258630
2019-11-03T19:05:00	0.2343	8.024	165.4	0.582831266	0.715277146	0.011541481	0.119071335	0.036698942
2019-11-03T19:10:00	0.2333	8.014	165.4	0.579714184	0.710758719	0.011427646	0.117896920	0.036336976
2019-11-03T19:15:00	0.2348	8.005	165.3	0.584646745	0.717912527	0.011608048	0.119758092	0.036910607
2019-11-03T19:20:00	0.2342	7.996	165.3	0.582537420	0.714850850	0.011530725	0.118960369	0.036664741
2019-11-03T19:25:00	0.2346	7.988	165.2	0.584115783	0.717141490	0.011588559	0.119557031	0.036848638
2019-11-03T19:30:00	0.2342	7.980	165.2	0.582676845	0.715053111	0.011535828	0.119013014	0.036680967
2019-11-03T19:35:00	0.2334	7.973	165.2	0.579895228	0.711020934	0.011434242	0.117964969	0.036357949
2019-11-03T19:40:00	0.2332	7.965	165.1	0.579125945	0.709906929	0.011406229	0.117675958	0.036268873
2019-11-03T19:45:00	0.2357	7.956	176.2	0.587744478	0.722415585	0.011722083	0.120934568	0.037273208
2019-11-03T19:50:00	0.2355	7.949	165.1	0.586976910	0.721299056	0.011693774	0.120642507	0.037183192
2019-11-03T19:55:00	0.2368	7.941	176.2	0.591230357	0.727492426	0.011851089	0.122265503	0.037683415
2019-11-03T20:00:00	0.2351	7.935	176.1	0.585776313	0.719553613	0.011649564	0.120186404	0.037042617
2019-11-03T20:05:00	0.2348	7.931	165.0	0.584673201	0.717950953	0.011609020	0.119768115	0.036913696
2019-11-03T20:10:00	0.2350	7.928	164.9	0.585245522	0.718782325	0.011630046	0.119985040	0.036980555
2019-11-03T20:15:00	0.2355	7.926	176.1	0.587157581	0.721561821	0.011700434	0.120711220	0.037204370
2019-11-03T20:20:00	0.2368	7.925	165.0	0.591410809	0.727755514	0.011857787	0.122334604	0.037704713
2019-11-03T20:25:00	0.2378	7.923	164.9	0.594656509	0.732492154	0.011978591	0.123580915	0.038088838
2019-11-03T20:30:00	0.2377	7.921	176.0	0.594224683	0.731861459	0.011962482	0.123414725	0.038037617
2019-11-03T20:35:00	0.2378	7.918	164.8	0.594795455	0.732695123	0.011983777	0.123634414	0.038105327
2019-11-03T20:40:00	0.2358	7.917	175.9	0.588007932	0.722798926	0.011731808	0.121034896	0.037304130
2019-11-03T20:45:00	0.2370	7.916	164.7	0.591925710	0.728506352	0.011876910	0.122531888	0.037765518
2019-11-03T20:50:00	0.2338	7.916	175.9	0.581444765	0.713266319	0.011490775	0.118548211	0.036537710
2019-11-03T20:55:00	0.2364	7.916	175.7	0.590057625	0.725783327	0.011807608	0.121816911	0.037545155
2019-11-03T21:00:00	0.2375	7.917	164.5	0.593638864	0.731006099	0.011940647	0.123189454	0.037968186
2019-11-03T21:05:00	0.2368	7.919	164.6	0.591200426	0.727448791	0.011849978	0.122254043	0.037679883
2019-11-03T21:10:00	0.2382	7.920	164.5	0.596116934	0.734626307	0.012033153	0.124143817	0.038262330
2019-11-03T21:15:00	0.2356	7.922	175.6	0.587323260	0.721802807	0.011706543	0.120774249	0.037223797
2019-11-03T21:20:00	0.2381	7.924	175.5	0.595587698	0.733852716	0.012013366	0.123939678	0.038199413
2019-11-03T21:25:00	0.2370	7.926	175.4	0.592147489	0.728829823	0.011885151	0.122616912	0.037791723
2019-11-03T21:30:00	0.2370	7.928	175.5	0.592049802	0.728687338	0.011881521	0.122579458	0.037780179
2019-11-03T21:35:00	0.2348	7.929	175.4	0.584586770	0.717825424	0.011605846	0.119735373	0.036903605
2019-11-03T21:40:00	0.2365	7.932	175.4	0.590181783	0.725964216	0.011812207	0.121864364	0.037559781
2019-11-03T21:45:00	0.2356	7.934	175.4	0.587406097	0.721923304	0.011709598	0.120805769	0.037233511
2019-11-03T21:50:00	0.2373	7.935	164.2	0.592996637	0.730068708	0.011916733	0.122942734	0.037892145
2019-11-03T21:55:00	0.2356	7.938	175.3	0.587210457	0.721638728	0.011702384	0.120731334	0.037210570
2019-11-03T22:00:00	0.2366	7.940	175.2	0.590794588	0.726857218	0.011834923	0.122098714	0.037632010
2019-11-03T22:05:00	0.2371	7.943	164.1	0.592378231	0.729166410	0.011893729	0.122705405	0.037818998
2019-11-03T22:10:00	0.2362	7.946	175.2	0.589278582	0.724648610	0.011778768	0.121519380	0.037453453
2019-11-03T22:15:00	0.2365	7.949	164.2	0.590193759	0.725981665	0.011812651	0.121868942	0.037561191
2019-11-03T22:20:00	0.2350	7.952	175.2	0.585417288	0.719031891	0.011636360	0.120050183	0.037000632
2019-11-03T22:25:00	0.2358	7.954	164.1	0.588007932	0.722798926	0.011731808	0.121034896	0.037304130
2019-11-03T22:30:00	0.2362	7.957	175.1	0.589258149	0.724618855	0.011778012	0.121511582	0.037451050
2019-11-03T22:35:00	0.2346	7.959	175.0	0.583810046	0.716697620	0.011577345	0.119441335	0.036812980
2019-11-03T22:40:00	0.2340	7.962	175.0	0.582044620	0.714136085	0.011512699	0.118774390	0.036607421
2019-11-03T22:45:00	0.2323	7.964	174.9	0.576249396	0.705745731	0.011301790	0.116598481	0.035936784
2019-11-03T22:50:00	0.2346	7.967	174.8	0.583878500	0.716796996	0.011579856	0.119467235	0.036820962
2019-11-03T22:55:00	0.2354	7.969	174.7	0.586805221	0.721049379	0.011687446	0.120577229	0.037163073
2019-11-03T23:00:00	0.2345	7.972	163.6	0.583700661	0.716538833	0.011573334	0.119399956	0.036800226
2019-11-03T23:05:00	0.2350	7.975	174.7	0.585287497	0.718843309	0.011631589	0.120000957	0.036985461
2019-11-03T23:10:00	0.2342	7.978	174.7	0.582516948	0.714821153	0.011529976	0.118952640	0.036662359
2019-11-03T23:15:00	0.2360	7.981	174.6	0.588793777	0.723942721	0.011760839	0.121334413	0.037396444
2019-11-03T23:20:00	0.2355	7.984	174.7	0.587030851	0.721377504	0.011695762	0.120663020	0.037189515
2019-11-03T23:25:00	0.2365	7.988	174.7	0.590289565	0.726121257	0.011816201	0.121905566	0.037572479
2019-11-03T23:30:00	0.2348	7.991	174.8	0.584507929	0.717710923	0.011602951	0.119705509	0.036894401
2019-11-03T23:35:00	0.2343	7.994	163.8	0.583078151	0.715635368	0.011550522	0.119164607	0.036727689
2019-11-03T23:40:00	0.2339	7.997	174.9	0.581647792	0.713560668	0.011498193	0.118624739	0.036561297
2019-11-03T23:45:00	0.2353	7.999	163.9	0.586251669	0.720244548	0.011667058	0.120366884	0.037098243
2019-11-03T23:50:00	0.2344	8.002	163.9	0.583146620	0.715734722	0.011553030	0.119190481	0.036735664
2019-11-03T23:55:00	0.2344	8.004	164.0	0.583392951	0.716092205	0.011562055	0.119283592	0.036764362
2019-11-04T00:00:00	0.2347	8.007	175.1	0.584309659	0.717423001	0.011595674	0.119630427	0.036871259
2019-11-04T00:05:00	0.2354	8.009	164.0	0.586566185	0.720701804	0.011678640	0.120486374	0.037135071
2019-11-04T00:10:00	0.2352	8.012	164.0	0.586142360	0.720085649	0.011663034	0.120325370	0.037085448
2019-11-04T00:15:00	0.2348	8.014	164.0	0.584713247	0.718009115	0.011610490	0.119783287	0.036918372
2019-11-04T00:20:00	0.2331	8.016	175.0	0.578922429	0.709612299	0.011398823	0.117599560	0.036245326
2019-11-04T00:25:00	0.2350	8.017	164.0	0.585205673	0.718724430	0.011628581	0.119969930	0.036975897
2019-11-04T00:30:00	0.2349	8.016	163.9	0.585116788	0.718595297	0.011625315	0.119936229	0.036965510
2019-11-04T00:35:00	0.2351	8.016	164.0	0.585698030	0.719439846	0.011646684	0.120156695	0.037033460
2019-11-04T00:40:00	0.2341	8.014	163.9	0.582257147	0.714444313	0.011520471	0.118854578	0.036632135
2019-11-04T00:45:00	0.2347	8.013	164.0	0.584179828	0.717234480	0.011590909	0.119581274	0.036856110
2019-11-04T00:50:00	0.2342	8.013	164.0	0.582749917	0.715159121	0.011538503	0.119040609	0.036689472
2019-11-04T00:55:00	0.2353	8.014	164.0	0.586347582	0.720383982	0.011670589	0.120403317	0.037109472
2019-11-04T01:00:00	0.2353	8.016	164.0	0.586258726	0.720254807	0.011667318	0.120369565	0.037099069
2019-11-04T01:05:00	0.2363	8.020	164.0	0.589518154	0.724997506	0.011787633	0.121610838	0.037481641
2019-11-04T01:10:00	0.2370	8.023	164.0	0.592105786	0.728768994	0.011883601	0.122600922	0.037786795
2019-11-04T01:15:00	0.2356	8.027	164.0	0.587331908	0.721815386	0.011706862	0.120777539	0.037224811
2019-11-04T01:20:00	0.2350	8.031	164.0	0.585233188	0.718764405	0.011629593	0.119980363	0.036979113
2019-11-04T01:25:00	0.2344	8.035	164.1	0.583468476	0.716201819	0.011564823	0.119312148	0.036773163
2019-11-04T01:30:00	0.2344	8.038	164.0	0.583379547	0.716072752	0.011561564	0.119278525	0.036762800
2019-11-04T01:35:00	0.2356	8.042	164.1	0.587311464	0.721785648	0.011706108	0.120769761	0.037222413
2019-11-04T01:40:00	0.2346	8.045	164.1	0.583872160	0.716787791	0.011579623	0.119464836	0.036820223
2019-11-04T01:45:00	0.2340	8.049	164.1	0.582106765	0.714226211	0.011514971	0.118797835	0.036614647
2019-11-04T01:50:00	0.2354	8.053	175.4	0.586710041	0.720910975	0.011683939	0.120541048	0.037151922
2019-11-04T01:55:00	0.2354	8.056	164.2	0.586621194	0.720781786	0.011680666	0.120507279	0.037141514
2019-11-04T02:00:00	0.2355	8.059	164.2	0.586867282	0.721139627	0.011689733	0.120600823	0.037170345
2019-11-04T02:05:00	0.2344	8.063	164.2	0.583427543	0.716142410	0.011563323	0.119296671	0.036768393
2019-11-04T02:10:00	0.2351	8.066	164.2	0.585684634	0.719420379	0.011646192	0.120151612	0.037031894
2019-11-04T02:15:00	0.2349	8.070	164.2	0.584925612	0.718317580	0.011618290	0.119863761	0.036943175
2019-11-04T02:20:00	0.2346	8.073	164.3	0.583831232	0.716728375	0.011578122	0.119449351	0.036815450
2019-11-04T02:25:00	0.2331	8.077	164.3	0.579046106	0.709791343	0.011403323	0.117645984	0.036259635
2019-11-04T02:30:00	0.2333	8.081	164.3	0.579628353	0.710634415	0.011424520	0.117864666	0.036327035
2019-11-04T02:35:00	0.2345	8.084	164.3	0.583564465	0.716341141	0.011568341	0.119348445	0.036784350
2019-11-04T02:40:00	0.2343	8.088	164.4	0.582804986	0.715239016	0.011540519	0.119061408	0.036695882
2019-11-04T02:45:00	0.2355	8.091	164.4	0.587072462	0.721438023	0.011697296	0.120678845	0.037194392
2019-11-04T02:50:00	0.2352	8.094	164.4	0.585978749	0.719847834	0.011657012	0.120263247	0.037066301
2019-11-04T02:55:00	0.2369	8.099	164.5	0.591580532	0.728002982	0.011864089	0.122399615	0.037724750
2019-11-04T03:00:00	0.2364	8.103	175.6	0.590153624	0.725923190	0.011811164	0.121853601	0.037556463
2019-11-04T03:05:00	0.2353	8.107	164.5	0.586382145	0.720434230	0.011671862	0.120416447	0.037113519
2019-11-04T03:10:00	0.2357	8.112	164.5	0.587632940	0.722253307	0.011717967	0.120892105	0.037260121
2019-11-04T03:15:00	0.2345	8.116	164.5	0.583523534	0.716281731	0.011566841	0.119332966	0.036779579
2019-11-04T03:20:00	0.2343	8.121	164.6	0.583099341	0.715666116	0.011551298	0.119172615	0.036730157
2019-11-04T03:25:00	0.2349	8.125	164.6	0.585021562	0.718456961	0.011621816	0.119900129	0.036954384
2019-11-04T03:30:00	0.2363	8.130	164.7	0.589621029	0.725147339	0.011791441	0.121650121	0.037493749
2019-11-04T03:35:00	0.2367	8.135	164.7	0.590870674	0.726968115	0.011837744	0.122127828	0.037640983
2019-11-04T03:40:00	0.2374	8.142	164.7	0.593457313	0.730741074	0.011933884	0.123119683	0.037946682
2019-11-04T03:45:00	0.2372	8.147	164.7	0.592699964	0.729635801	0.011905694	0.122828849	0.037857044
2019-11-04T03:50:00	0.2368	8.152	164.7	0.591273510	0.727555338	0.011852691	0.122282026	0.037688508
2019-11-04T03:55:00	0.2386	8.158	164.7	0.597200851	0.736211411	0.012073730	0.124562448	0.038391356
2019-11-04T04:00:00	0.2381	8.162	164.6	0.595776215	0.734128247	0.012020412	0.124012374	0.038221818
2019-11-04T04:05:00	0.2389	8.167	164.6	0.598214483	0.737694619	0.012111740	0.124954589	0.038512218
2019-11-04T04:10:00	0.2375	8.171	164.6	0.593638182	0.731005104	0.011940622	0.123189192	0.037968105
2019-11-04T04:15:00	0.2368	8.174	164.6	0.591398156	0.727737064	0.011857317	0.122329758	0.037703220
2019-11-04T04:20:00	0.2351	8.178	164.5	0.585808074	0.719599772	0.011650732	0.120198458	0.037046332
2019-11-04T04:25:00	0.2343	8.180	164.5	0.582892524	0.715366024	0.011543724	0.119094474	0.036706074
2019-11-04T04:30:00	0.2374	8.183	164.4	0.593372158	0.730616774	0.011930713	0.123086964	0.037936598
2019-11-04T04:35:00	0.2383	8.185	164.4	0.596480168	0.735157386	0.012046743	0.124284025	0.038305544
2019-11-04T04:40:00	0.2400	8.187	164.3	0.601920692	0.743125086	0.012251241	0.126393794	0.038955795
2019-11-04T04:45:00	0.2394	8.189	164.1	0.600019603	0.740338110	0.012179582	0.125654499	0.038727937
2019-11-04T04:50:00	0.2378	8.191	164.0	0.594777363	0.732668694	0.011983101	0.123627447	0.038103180
2019-11-04T04:55:00	0.2375	8.194	163.9	0.593541066	0.730863332	0.011937004	0.123151867	0.037956601
2019-11-04T05:00:00	0.2385	8.197	163.9	0.596982906	0.735892613	0.012065566	0.124478215	0.038365395
2019-11-04T05:05:00	0.2380	8.199	164.0	0.595413287	0.733597829	0.012006848	0.123872441	0.038178689
2019-11-04T05:10:00	0.2364	8.201	164.1	0.590164198	0.725938596	0.011811556	0.121857643	0.037557709
2019-11-04T05:15:00	0.2378	8.202	164.2	0.594612034	0.732427190	0.011976931	0.123563794	0.038083561
2019-11-04T05:20:00	0.2379	8.204	164.3	0.595046802	0.733062324	0.011993160	0.123731220	0.038135164
2019-11-04T05:25:00	0.2367	8.204	164.3	0.591135486	0.727354122	0.011847569	0.122229181	0.037672221
2019-11-04T05:30:00	0.2372	8.204	164.4	0.592573963	0.729451963	0.011901007	0.122780497	0.037842142
2019-11-04T05:35:00	0.2389	8.206	164.4	0.598354348	0.737899346	0.012116990	0.125008748	0.038528910
2019-11-04T05:40:00	0.2381	8.206	164.5	0.595783253	0.734138534	0.012020675	0.124015088	0.038222655
2019-11-04T05:45:00	0.2373	8.206	164.3	0.592875949	0.729892590	0.011912241	0.122896398	0.037877864
2019-11-04T05:50:00	0.2383	8.207	164.5	0.596318437	0.734920908	0.012040691	0.124221587	0.038286300
2019-11-04T05:55:00	0.2383	8.208	164.5	0.596418995	0.735067938	0.012044454	0.124260406	0.038298264
2019-11-04T06:00:00	0.2393	8.208	164.6	0.599858034	0.740101390	0.012173502	0.125591771	0.038708604
2019-11-04T06:05:00	0.2413	8.208	164.5	0.606292766	0.749545987	0.012416862	0.128102475	0.039482427
2019-11-04T06:10:00	0.2408	8.208	164.5	0.604727272	0.747245035	0.012357427	0.127489295	0.039293439
2019-11-04T06:15:00	0.2404	8.206	164.6	0.603494449	0.745434488	0.012310725	0.127007484	0.039144940
2019-11-04T06:20:00	0.2428	8.206	164.6	0.611253316	0.756850544	0.012606163	0.130055461	0.040084356
2019-11-04T06:25:00	0.2436	8.201	164.6	0.614013339	0.760923707	0.012712129	0.131148692	0.040421301
2019-11-04T06:30:00	0.2428	8.196	164.5	0.611453583	0.757145876	0.012613837	0.130134626	0.040108756
2019-11-04T06:35:00	0.2441	8.193	164.6	0.615542573	0.763183265	0.012771038	0.131756449	0.040608617
2019-11-04T06:40:00	0.2439	8.190	164.6	0.614978107	0.762348994	0.012749278	0.131531947	0.040539423
2019-11-04T06:45:00	0.2423	8.186	164.5	0.609757964	0.754646419	0.012548943	0.129465131	0.039902411
2019-11-04T06:50:00	0.2466	8.181	164.5	0.623806274	0.775427582	0.013091811	0.135065796	0.041628590
2019-11-04T06:55:00	0.2452	8.176	164.5	0.619262878	0.768688514	0.012914940	0.133241057	0.041066188
2019-11-04T07:00:00	0.2468	8.169	175.5	0.624668636	0.776708661	0.013125522	0.135413593	0.041735784
2019-11-04T07:05:00	0.2475	8.163	164.4	0.627087161	0.780304843	0.013220307	0.136391473	0.042037177
2019-11-04T07:10:00	0.2471	8.156	175.6	0.625530790	0.777990058	0.013159271	0.135761769	0.041843096
2019-11-04T07:15:00	0.2465	8.152	164.3	0.623642292	0.775184049	0.013085405	0.134999713	0.041608223
2019-11-04T07:20:00	0.2466	8.153	164.3	0.624073519	0.775824518	0.013102253	0.135173528	0.041661794
2019-11-04T07:25:00	0.2480	8.152	164.3	0.628479093	0.782376794	0.013275019	0.136955926	0.042211147
2019-11-04T07:30:00	0.2446	8.154	164.3	0.617306744	0.765792405	0.012839173	0.132459379	0.040825267
2019-11-04T07:35:00	0.2448	8.156	164.3	0.618070737	0.766923133	0.012868737	0.132764390	0.040919274
2019-11-04T07:40:00	0.2448	8.165	164.4	0.617838691	0.766579647	0.012859754	0.132671711	0.040890710
2019-11-04T07:45:00	0.2458	8.176	175.5	0.621257046	0.771644253	0.012992418	0.134040382	0.041312547
2019-11-04T07:50:00	0.2457	8.190	164.4	0.621025207	0.771300451	0.012983398	0.133947327	0.041283867
2019-11-04T07:55:00	0.2444	8.208	164.5	0.616810378	0.765058033	0.012819984	0.132261407	0.040764250
2019-11-04T08:00:00	0.2427	8.225	164.6	0.610927689	0.756370414	0.012593691	0.129926793	0.040044699
2019-11-04T08:05:00	0.2448	8.237	164.6	0.618006438	0.766827950	0.012866248	0.132738706	0.040911358
2019-11-04T08:10:00	0.2451	8.237	164.7	0.619102182	0.768450477	0.012908707	0.133176752	0.041046368
2019-11-04T08:15:00	0.2454	8.234	164.6	0.619865789	0.769581790	0.012938339	0.133482462	0.041140591
2019-11-04T08:20:00	0.2445	8.237	164.7	0.616978173	0.765306262	0.012826469	0.132328314	0.040784872
2019-11-04T08:25:00	0.2443	8.243	164.7	0.616413934	0.764471646	0.012804668	0.132103399	0.040715551
2019-11-04T08:30:00	0.2438	8.252	164.7	0.614520597	0.761673001	0.012731654	0.131350129	0.040483385
2019-11-04T08:35:00	0.2446	8.258	164.7	0.617278086	0.765749999	0.012838064	0.132447945	0.040821743
2019-11-04T08:40:00	0.2445	8.265	164.8	0.617045988	0.765406592	0.012829090	0.132355360	0.040793207
2019-11-04T08:45:00	0.2456	8.276	164.9	0.620796848	0.770961854	0.012974517	0.133855701	0.041255627
2019-11-04T08:50:00	0.2453	8.286	165.0	0.619569589	0.769142901	0.012926841	0.133363835	0.041104029
2019-11-04T08:55:00	0.2445	8.308	165.1	0.617013830	0.765359015	0.012827847	0.132342534	0.040789254
2019-11-04T09:00:00	0.2435	8.341	165.2	0.613791531	0.760596133	0.012703596	0.131060661	0.040394169
2019-11-04T09:05:00	0.2443	8.375	165.4	0.616217445	0.764181065	0.012797081	0.132025122	0.040691425
2019-11-04T09:10:00	0.2446	8.415	165.6	0.617313740	0.765802756	0.012839443	0.132462170	0.040826127
2019-11-04T09:15:00	0.2435	8.453	165.8	0.613759343	0.760548600	0.012702358	0.131047888	0.040390232
2019-11-04T09:20:00	0.2460	8.486	166.0	0.621827505	0.772490399	0.013014626	0.134269495	0.041383162
2019-11-04T09:25:00	0.2452	8.514	166.1	0.619273365	0.768704049	0.012915347	0.133245254	0.041067481
2019-11-04T09:30:00	0.2450	8.538	166.2	0.618709490	0.767868880	0.012893482	0.133019680	0.040997957
2019-11-04T09:35:00	0.2442	8.556	166.3	0.616153112	0.764085932	0.012794597	0.131999498	0.040683527
2019-11-04T09:40:00	0.2435	8.572	166.4	0.613594898	0.760305771	0.012696034	0.130982646	0.040370124
2019-11-04T09:45:00	0.2442	8.594	166.5	0.616020945	0.763890500	0.012789495	0.131946864	0.040667305
2019-11-04T09:50:00	0.2441	8.617	166.6	0.615788766	0.763547217	0.012780535	0.131854428	0.040638815
2019-11-04T09:55:00	0.2426	8.640	166.8	0.610569815	0.755842840	0.012579992	0.129785458	0.040001139
2019-11-04T10:00:00	0.2423	8.664	166.9	0.609671805	0.754519479	0.012545650	0.129431160	0.039891940
2019-11-04T10:05:00	0.2435	8.695	167.0	0.613809903	0.760623263	0.012704303	0.131067951	0.040396415
2019-11-04T10:10:00	0.2432	8.729	167.2	0.612627306	0.758877439	0.012658858	0.130599101	0.040251911
2019-11-04T10:15:00	0.2428	8.750	167.3	0.611444316	0.757132209	0.012613481	0.130130963	0.040107626
2019-11-04T10:20:00	0.2427	8.751	167.3	0.610926295	0.756368359	0.012593638	0.129926242	0.040044530
2019-11-04T10:25:00	0.2415	8.747	167.3	0.607079648	0.750703316	0.012446792	0.128411257	0.039577596
2019-11-04T10:30:00	0.2411	8.737	167.3	0.605561669	0.748471171	0.012389087	0.127815927	0.039394110
2019-11-04T10:35:00	0.2439	8.720	167.2	0.615024810	0.762418011	0.012751077	0.131550514	0.040545146
2019-11-04T10:40:00	0.2419	8.702	167.1	0.608520594	0.752823974	0.012501696	0.128977694	0.039752178
2019-11-04T10:45:00	0.2433	8.689	167.1	0.612992504	0.759416442	0.012672883	0.130743794	0.040296507
2019-11-04T10:50:00	0.2407	8.679	167.0	0.604485596	0.746890005	0.012348265	0.127394769	0.039264305
2019-11-04T10:55:00	0.2407	8.672	167.0	0.604299845	0.746617164	0.012341225	0.127322142	0.039241921
2019-11-04T11:00:00	0.2408	8.672	167.0	0.604780602	0.747323386	0.012359449	0.127510159	0.039299869
2019-11-04T11:05:00	0.2397	8.676	167.0	0.600927278	0.741668374	0.012213768	0.126007197	0.038836642
2019-11-04T11:10:00	0.2394	8.688	167.1	0.600074063	0.740417905	0.012181631	0.125675647	0.038734455
2019-11-04T11:15:00	0.2391	8.704	167.2	0.598886875	0.738678979	0.012136988	0.125215065	0.038592499
2019-11-04T11:20:00	0.2379	8.715	167.2	0.595027122	0.733033570	0.011992425	0.123723639	0.038132827
2019-11-04T11:25:00	0.2377	8.726	167.3	0.594506693	0.732273325	0.011973001	0.123523245	0.038071064
2019-11-04T11:30:00	0.2385	8.737	167.4	0.596993119	0.735907551	0.012065948	0.124482162	0.038366611
2019-11-04T11:35:00	0.2369	8.748	167.4	0.591793734	0.728313881	0.011872007	0.122481306	0.037749928
2019-11-04T11:40:00	0.2384	8.762	167.5	0.596620821	0.735363062	0.012052007	0.124338339	0.038322284
2019-11-04T11:45:00	0.2344	8.779	167.6	0.583383990	0.716079199	0.011561727	0.119280204	0.036763317
2019-11-04T11:50:00	0.2345	8.794	167.7	0.583532381	0.716294572	0.011567165	0.119336312	0.036780610
2019-11-04T11:55:00	0.2347	8.806	167.8	0.584351152	0.717483252	0.011597196	0.119646138	0.036876102
2019-11-04T12:00:00	0.2355	8.819	167.8	0.586844749	0.721106860	0.011688903	0.120592256	0.037167705
2019-11-04T12:05:00	0.2371	8.838	167.9	0.592347476	0.729121545	0.011892585	0.122693608	0.037815362
2019-11-04T12:10:00	0.2375	8.863	168.0	0.593832785	0.731289213	0.011947873	0.123264001	0.037991162
2019-11-04T12:15:00	0.2371	8.898	168.2	0.592309108	0.729065575	0.011891159	0.122678892	0.037810826
2019-11-04T12:20:00	0.2374	8.928	168.3	0.593460153	0.730745219	0.011933990	0.123120774	0.037947018
2019-11-04T12:25:00	0.2359	8.944	168.4	0.588255554	0.723159283	0.011740952	0.121129233	0.037333206
2019-11-04T12:30:00	0.2373	8.956	168.5	0.593087482	0.730201284	0.011920114	0.122977618	0.037902896
2019-11-04T12:35:00	0.2348	8.958	168.5	0.584532488	0.717746590	0.011603853	0.119714812	0.036897268
2019-11-04T12:40:00	0.2349	8.959	168.5	0.585015945	0.718448801	0.011621609	0.119898000	0.036953728
2019-11-04T12:45:00	0.2335	8.968	168.6	0.580134415	0.711367401	0.011442959	0.118054902	0.036385667
2019-11-04T12:50:00	0.2361	8.989	168.7	0.588996419	0.724237750	0.011768332	0.121411709	0.037420268
2019-11-04T12:55:00	0.2351	9.002	168.7	0.585795931	0.719582125	0.011650286	0.120193850	0.037044912
2019-11-04T13:00:00	0.2343	9.003	168.8	0.582927843	0.715417268	0.011545017	0.119107817	0.036710186
2019-11-04T13:05:00	0.2347	8.999	168.7	0.584417128	0.717579060	0.011599618	0.119671121	0.036883802
2019-11-04T13:10:00	0.2343	8.994	168.7	0.582889372	0.715361450	0.011543609	0.119093284	0.036705707
2019-11-04T13:15:00	0.2355	8.997	168.8	0.587058921	0.721418328	0.011696797	0.120673695	0.037192805
2019-11-04T13:20:00	0.2341	9.007	168.8	0.582180228	0.714332754	0.011517658	0.118825553	0.036623189
2019-11-04T13:25:00	0.2336	9.019	168.9	0.580651499	0.712116574	0.011461816	0.118249444	0.036445627
2019-11-04T13:30:00	0.2336	9.019	168.9	0.580464490	0.711845601	0.011454994	0.118179067	0.036423936
2019-11-04T13:35:00	0.2352	9.012	168.8	0.585977194	0.719845572	0.011656955	0.120262656	0.037066119
2019-11-04T13:40:00	0.2334	9.002	168.8	0.580090440	0.711303700	0.011441356	0.118038365	0.036380570
2019-11-04T13:45:00	0.2319	8.993	168.8	0.574866001	0.703746962	0.011251737	0.116082101	0.035777631
2019-11-04T13:50:00	0.2330	8.985	168.8	0.578709396	0.709303927	0.011391075	0.117519616	0.036220687
2019-11-04T13:55:00	0.2335	8.977	168.7	0.580200470	0.711463092	0.011445367	0.118079745	0.036393324
2019-11-04T14:00:00	0.2337	8.973	168.7	0.581020017	0.712650632	0.011475265	0.118388191	0.036488390
2019-11-04T14:05:00	0.2332	8.972	168.7	0.579155142	0.709949201	0.011407291	0.117686920	0.036272252
2019-11-04T14:10:00	0.2336	8.977	168.8	0.580646027	0.712108644	0.011461616	0.118247384	0.036444992
2019-11-04T14:15:00	0.2322	8.982	168.8	0.575758415	0.705036165	0.011284013	0.116415079	0.035880258
2019-11-04T14:20:00	0.2321	8.986	168.8	0.575571144	0.704765574	0.011277236	0.116345164	0.035858709
2019-11-04T14:25:00	0.2317	8.990	168.8	0.574375663	0.703038888	0.011234024	0.115899354	0.035721306
2019-11-04T14:30:00	0.2338	8.993	168.9	0.581240015	0.712969509	0.011483297	0.118471060	0.036513931
2019-11-04T14:35:00	0.2336	8.996	168.9	0.580717545	0.712212279	0.011464226	0.118274304	0.036453289
2019-11-04T14:40:00	0.2337	9.001	169.0	0.580866049	0.712427486	0.011469645	0.118330211	0.036470520
2019-11-04T14:45:00	0.2315	9.010	169.0	0.573626224	0.701957044	0.011206978	0.115620324	0.035635307
2019-11-04T14:50:00	0.2339	9.022	169.1	0.581498486	0.713344201	0.011492738	0.118568458	0.036543950
2019-11-04T14:55:00	0.2324	9.033	169.1	0.576612061	0.706269982	0.011314930	0.116734047	0.035978567
2019-11-04T15:00:00	0.2324	9.040	169.2	0.576760739	0.706484934	0.011320319	0.116789646	0.035995703
2019-11-04T15:05:00	0.2333	9.043	169.2	0.579595358	0.710586632	0.011423318	0.117852268	0.036323214
2019-11-04T15:10:00	0.2334	9.041	169.2	0.580079494	0.711287843	0.011440957	0.118034249	0.036379302
2019-11-04T15:15:00	0.2319	9.038	169.2	0.574855039	0.703731130	0.011251341	0.116078014	0.035776371
2019-11-04T15:20:00	0.2316	9.034	169.2	0.573995481	0.702490023	0.011220300	0.115757762	0.035677666
2019-11-04T15:25:00	0.2342	9.030	169.2	0.582537648	0.714851181	0.011530734	0.118960455	0.036664768
2019-11-04T15:30:00	0.2321	9.026	180.7	0.575637285	0.704861140	0.011279629	0.116369854	0.035866319
2019-11-04T15:35:00	0.2327	9.020	180.7	0.577465500	0.707504103	0.011345883	0.117053383	0.036076989
2019-11-04T15:40:00	0.2330	9.016	169.2	0.578621411	0.709176577	0.011387875	0.117486607	0.036210513
2019-11-04T15:45:00	0.2325	9.010	169.2	0.577091131	0.706962669	0.011332300	0.116913248	0.036033799
2019-11-04T15:50:00	0.2338	9.002	169.1	0.581267562	0.713009439	0.011484303	0.118481438	0.036517130
2019-11-04T15:55:00	0.2324	8.992	169.1	0.576716722	0.706421295	0.011318724	0.116773184	0.035990630
2019-11-04T16:00:00	0.2334	8.983	169.1	0.579886980	0.711008987	0.011433942	0.117961868	0.036356993
2019-11-04T16:05:00	0.2327	8.974	169.0	0.577736267	0.707895773	0.011355712	0.117154791	0.036108244
2019-11-04T16:10:00	0.2325	8.966	169.0	0.576927974	0.706726739	0.011326383	0.116852202	0.036014983
2019-11-04T16:15:00	0.2330	8.957	168.9	0.578470341	0.708957933	0.011382382	0.117429941	0.036193048
2019-11-04T16:20:00	0.2322	8.948	168.9	0.575982814	0.705360442	0.011292136	0.116498883	0.035906087
2019-11-04T16:25:00	0.2332	8.938	168.9	0.579204261	0.710020317	0.011409079	0.117705364	0.036277936
2019-11-04T16:30:00	0.2333	8.927	168.8	0.579738968	0.710794612	0.011428549	0.117906234	0.036339846
2019-11-04T16:35:00	0.2334	8.916	168.8	0.579938027	0.711082925	0.011435802	0.117981058	0.036362908
2019-11-04T16:40:00	0.2343	8.906	168.7	0.582820557	0.715261607	0.011541089	0.119067289	0.036697695
2019-11-04T16:45:00	0.2337	8.896	168.7	0.581007136	0.712631963	0.011474795	0.118383340	0.036486895
2019-11-04T16:50:00	0.2350	8.889	168.6	0.585229355	0.718758836	0.011629452	0.119978909	0.036978665
2019-11-04T16:55:00	0.2332	8.882	168.6	0.579391870	0.710291961	0.011415908	0.117775822	0.036299652
2019-11-04T17:00:00	0.2331	8.874	168.6	0.578919653	0.709608281	0.011398722	0.117598518	0.036245005
2019-11-04T17:05:00	0.2334	8.867	168.5	0.579790016	0.710868547	0.011430409	0.117925420	0.036345760
2019-11-04T17:10:00	0.2342	8.860	168.4	0.582672667	0.715047051	0.011535675	0.119011436	0.036680480
2019-11-04T17:15:00	0.2337	8.853	168.4	0.580859171	0.712417519	0.011469394	0.118327622	0.036469722
2019-11-04T17:20:00	0.2336	8.846	168.4	0.580722675	0.712219713	0.011464413	0.118276235	0.036453884
2019-11-04T17:25:00	0.2327	8.838	168.3	0.577565191	0.707648300	0.011349501	0.117090714	0.036088495
2019-11-04T17:30:00	0.2329	8.831	168.2	0.578435890	0.708908074	0.011381130	0.117417021	0.036189066
2019-11-04T17:35:00	0.2323	8.823	168.1	0.576284287	0.705796163	0.011303054	0.116611520	0.035940803
2019-11-04T17:40:00	0.2327	8.815	167.9	0.577491136	0.707541183	0.011346813	0.117062982	0.036079948
2019-11-04T17:45:00	0.2335	8.806	167.9	0.580375675	0.711716920	0.011451755	0.118145650	0.036413637
2019-11-04T17:50:00	0.2337	8.798	167.9	0.580910203	0.712491477	0.011471256	0.118346837	0.036475645
2019-11-04T17:55:00	0.2315	8.789	167.9	0.573721074	0.702093938	0.011210399	0.115655619	0.035646185
2019-11-04T18:00:00	0.2326	8.781	167.9	0.577280451	0.707236460	0.011339168	0.116984104	0.036055637
2019-11-04T18:05:00	0.2321	8.774	167.8	0.575464166	0.704611012	0.011273366	0.116305235	0.035846403
2019-11-04T18:10:00	0.2326	8.766	167.8	0.577343023	0.707326956	0.011341438	0.117007528	0.036062856
2019-11-04T18:15:00	0.2320	8.759	167.8	0.575190749	0.704216025	0.011263477	0.116203215	0.035814959
2019-11-04T18:20:00	0.2329	8.751	167.7	0.578412923	0.708874836	0.011380295	0.117408407	0.036186411
2019-11-04T18:25:00	0.2310	8.742	167.7	0.571891438	0.699454596	0.011144499	0.114975746	0.035436642
2019-11-04T18:30:00	0.2304	8.730	167.7	0.569735811	0.696348551	0.011067113	0.114177361	0.035190571
2019-11-04T18:35:00	0.2295	8.717	167.6	0.566905253	0.692275831	0.010965913	0.113133304	0.034868783
2019-11-04T18:40:00	0.2308	8.702	167.6	0.571144477	0.698377865	0.011117652	0.114698771	0.035351275
2019-11-04T18:45:00	0.2292	8.686	167.5	0.565957382	0.690913476	0.010932130	0.112784771	0.034761362
2019-11-04T18:50:00	0.2292	8.668	167.4	0.565820305	0.690716519	0.010927249	0.112734413	0.034745841
2019-11-04T18:55:00	0.2294	8.649	167.4	0.566357059	0.691487833	0.010946368	0.112931666	0.034806636
2019-11-04T19:00:00	0.2290	8.632	167.3	0.565209153	0.689838585	0.010905500	0.112510033	0.034676685
2019-11-04T19:05:00	0.2313	8.617	167.2	0.572814697	0.700786098	0.011177728	0.115318564	0.035542301
2019-11-04T19:10:00	0.2311	8.606	167.2	0.572341594	0.700103713	0.011160695	0.115142830	0.035488138
2019-11-04T19:15:00	0.2311	8.595	167.1	0.572204767	0.699906392	0.011155771	0.115092031	0.035472482
2019-11-04T19:20:00	0.2309	8.585	167.1	0.571395196	0.698739221	0.011126660	0.114791701	0.035379917
2019-11-04T19:25:00	0.2326	8.575	167.0	0.577308561	0.707277114	0.011340188	0.116994627	0.036058880
2019-11-04T19:30:00	0.2306	8.565	167.0	0.570448542	0.697375101	0.011092669	0.114441023	0.035271835
2019-11-04T19:35:00	0.2319	8.553	166.9	0.575019548	0.703968733	0.011257287	0.116139358	0.035795278
2019-11-04T19:40:00	0.2326	8.542	166.9	0.577234501	0.707170005	0.011337501	0.116966905	0.036050336
2019-11-04T19:45:00	0.2319	8.531	166.8	0.574746097	0.703573796	0.011247405	0.116037400	0.035763854
2019-11-04T19:50:00	0.2312	8.523	166.8	0.572592228	0.700465193	0.011169717	0.115235910	0.035516827
2019-11-04T19:55:00	0.2324	8.517	166.8	0.576488679	0.706091614	0.011310459	0.116687917	0.035964349
2019-11-04T20:00:00	0.2330	8.512	166.7	0.578702704	0.709294241	0.011390831	0.117517106	0.036219913
2019-11-04T20:05:00	0.2344	8.508	166.7	0.583262972	0.715903569	0.011557293	0.119234457	0.036749218
2019-11-04T20:10:00	0.2331	8.503	166.7	0.579100929	0.709870712	0.011405318	0.117666566	0.036265978
2019-11-04T20:15:00	0.2330	8.497	166.7	0.578628673	0.709187089	0.011388139	0.117489332	0.036211353
2019-11-04T20:20:00	0.2335	8.490	166.6	0.580170293	0.711419376	0.011444267	0.118068395	0.036389826
2019-11-04T20:25:00	0.2338	8.483	166.6	0.581375807	0.713166352	0.011488256	0.118522224	0.036529701
2019-11-04T20:30:00	0.2359	8.474	166.5	0.588276902	0.723190353	0.011741740	0.121137368	0.037335713
2019-11-04T20:35:00	0.2352	8.467	166.5	0.586131318	0.720069599	0.011662627	0.120321177	0.037084155
2019-11-04T20:40:00	0.2327	8.460	166.5	0.577609920	0.707713001	0.011351125	0.117107465	0.036093658
2019-11-04T20:45:00	0.2337	8.454	166.5	0.580829873	0.712375060	0.011468325	0.118316591	0.036466322
2019-11-04T20:50:00	0.2347	8.449	166.4	0.584382052	0.717528124	0.011598331	0.119657838	0.036879708
2019-11-04T20:55:00	0.2325	8.444	166.4	0.576864177	0.706634493	0.011324069	0.116828336	0.036007628
2019-11-04T21:00:00	0.2341	8.440	166.4	0.582433008	0.714699393	0.011526905	0.118920952	0.036652592
2019-11-04T21:05:00	0.2330	8.437	166.4	0.578605707	0.709153848	0.011387304	0.117480716	0.036208698
2019-11-04T21:10:00	0.2318	8.435	166.3	0.574438135	0.703129089	0.011236280	0.115922628	0.035728480
2019-11-04T21:15:00	0.2311	8.432	166.3	0.572284076	0.700020762	0.011158625	0.115121474	0.035481556
2019-11-04T21:20:00	0.2332	8.430	166.4	0.579203044	0.710018555	0.011409035	0.117704907	0.036277795
2019-11-04T21:25:00	0.2323	8.426	166.3	0.576380130	0.705934701	0.011306526	0.116647341	0.035951843
2019-11-04T21:30:00	0.2328	8.421	166.3	0.577922738	0.708165543	0.011362484	0.117224654	0.036129777
2019-11-04T21:35:00	0.2323	8.415	166.3	0.576106785	0.705539609	0.011296625	0.116545195	0.035920361
2019-11-04T21:40:00	0.2329	8.406	166.2	0.578321051	0.708741884	0.011376956	0.117373957	0.036175793
2019-11-04T21:45:00	0.2319	8.395	166.2	0.574825348	0.703688250	0.011250268	0.116066945	0.035772960
2019-11-04T21:50:00	0.2341	8.382	166.2	0.582410067	0.714666117	0.011526065	0.118912293	0.036649923
2019-11-04T21:55:00	0.2334	8.368	166.1	0.579925332	0.711064537	0.011435339	0.117976285	0.036361437
2019-11-04T22:00:00	0.2350	8.352	166.0	0.585154247	0.718649718	0.011626691	0.119950431	0.036969888
2019-11-04T22:05:00	0.2349	8.337	166.0	0.584825144	0.718171643	0.011614600	0.119825686	0.036931440
2019-11-04T22:10:00	0.2336	8.321	165.9	0.580471938	0.711856393	0.011455266	0.118181869	0.036424800
2019-11-04T22:15:00	0.2344	8.304	165.8	0.583161164	0.715755828	0.011553563	0.119195978	0.036737358
2019-11-04T22:20:00	0.2331	8.287	165.7	0.578805895	0.709443608	0.011394584	0.117555826	0.036231847
2019-11-04T22:25:00	0.2335	8.269	165.7	0.580154406	0.711396362	0.011443688	0.118062420	0.036387985
2019-11-04T22:30:00	0.2337	8.251	165.6	0.580831469	0.712377373	0.011468383	0.118317192	0.036466508
2019-11-04T22:35:00	0.2339	8.234	165.5	0.581508402	0.713358576	0.011493100	0.118572196	0.036545102
2019-11-04T22:40:00	0.2333	8.216	165.4	0.579501237	0.710450331	0.011419891	0.117816905	0.036312314
2019-11-04T22:45:00	0.2356	8.198	165.3	0.587218119	0.721649872	0.011702666	0.120734248	0.037211468
2019-11-04T22:50:00	0.2360	8.178	165.2	0.588563407	0.723607365	0.011752325	0.121246570	0.037369370
2019-11-04T22:55:00	0.2367	8.159	165.2	0.590911937	0.727028259	0.011839275	0.122143618	0.037645849
2019-11-04T23:00:00	0.2367	8.140	165.1	0.590917924	0.727036986	0.011839497	0.122145909	0.037646555
2019-11-04T23:05:00	0.2373	8.122	176.2	0.592930556	0.729972276	0.011914273	0.122917363	0.037884325
2019-11-04T23:10:00	0.2373	8.101	176.1	0.592936540	0.729981007	0.011914496	0.122919660	0.037885033
2019-11-04T23:15:00	0.2385	8.080	176.0	0.596952381	0.735847965	0.012064422	0.124466420	0.038361759
2019-11-04T23:20:00	0.2382	8.060	175.8	0.595956322	0.734391513	0.012027146	0.124081847	0.038243230
2019-11-04T23:25:00	0.2364	8.037	175.7	0.589944113	0.725617959	0.011803403	0.121773536	0.037531786
2019-11-04T23:30:00	0.2367	8.015	164.5	0.590953844	0.727089343	0.011840830	0.122159656	0.037650792
2019-11-04T23:35:00	0.2368	7.992	164.4	0.591294348	0.727585718	0.011853464	0.122290005	0.037690967
2019-11-04T23:40:00	0.2357	7.970	164.3	0.587618907	0.722232891	0.011717449	0.120886763	0.037258474
2019-11-04T23:45:00	0.2361	7.948	164.2	0.588964043	0.724190610	0.011767135	0.121399358	0.037416461
2019-11-04T23:50:00	0.2363	7.927	164.1	0.589639413	0.725174116	0.011792121	0.121657142	0.037495913
2019-11-04T23:55:00	0.2370	7.905	164.0	0.591987226	0.728596071	0.011879195	0.122555468	0.037772786
2019-11-05T00:00:00	0.2373	7.884	163.9	0.592996372	0.730068321	0.011916723	0.122942632	0.037892113
2019-11-05T00:05:00	0.2361	7.865	163.9	0.588988003	0.724225495	0.011768021	0.121408498	0.037419278
2019-11-05T00:10:00	0.2350	7.844	163.8	0.585310153	0.718876228	0.011632422	0.120009550	0.036988109
2019-11-05T00:15:00	0.2347	7.824	163.7	0.584310798	0.717424655	0.011595715	0.119630858	0.036871392
2019-11-05T00:20:00	0.2339	7.804	163.6	0.581634458	0.713541334	0.011497706	0.118619712	0.036559747
2019-11-05T00:25:00	0.2337	7.784	163.5	0.580969557	0.712577498	0.011473423	0.118369187	0.036482533
2019-11-05T00:30:00	0.2341	7.764	163.4	0.582317237	0.714531469	0.011522669	0.118877255	0.036639125
2019-11-05T00:35:00	0.2346	7.745	163.3	0.583999611	0.716972823	0.011584298	0.119513063	0.036835087
2019-11-05T00:40:00	0.2339	7.726	163.2	0.581658468	0.713576146	0.011498583	0.118628764	0.036562537
2019-11-05T00:45:00	0.2348	7.707	163.2	0.584681932	0.717963633	0.011609340	0.119771422	0.036914716
2019-11-05T00:50:00	0.2359	7.691	163.1	0.588372419	0.723329372	0.011745268	0.121173769	0.037346932
2019-11-05T00:55:00	0.2342	7.675	163.0	0.582682580	0.715061431	0.011536038	0.119015179	0.036681634
2019-11-05T01:00:00	0.2368	7.660	163.0	0.591396110	0.727734082	0.011857241	0.122328975	0.037702978
2019-11-05T01:05:00	0.2353	7.646	162.9	0.586381159	0.720432795	0.011671826	0.120416073	0.037113403
2019-11-05T01:10:00	0.2358	7.631	162.8	0.588061591	0.722877010	0.011733789	0.121055335	0.037310430
2019-11-05T01:15:00	0.2359	7.615	162.8	0.588402374	0.723372971	0.011746375	0.121185186	0.037350451
2019-11-05T01:20:00	0.2327	7.599	162.7	0.577679218	0.707813244	0.011353641	0.117133421	0.036101658
2019-11-05T01:25:00	0.2357	7.582	162.6	0.587744744	0.722415971	0.011722093	0.120934669	0.037273239
2019-11-05T01:30:00	0.2334	7.564	162.6	0.580041030	0.711232126	0.011439556	0.118019785	0.036374844
2019-11-05T01:35:00	0.2334	7.548	162.5	0.580047035	0.711240825	0.011439774	0.118022043	0.036375540
2019-11-05T01:40:00	0.2325	7.532	162.4	0.577031598	0.706876580	0.011330141	0.116890972	0.036026933
2019-11-05T01:45:00	0.2331	7.517	162.4	0.579052189	0.709800149	0.011403545	0.117648268	0.036260339
2019-11-05T01:50:00	0.2333	7.502	162.3	0.579729465	0.710780849	0.011428203	0.117902663	0.036338746
2019-11-05T01:55:00	0.2338	7.486	162.2	0.581413079	0.713220383	0.011489618	0.118536270	0.036534030
2019-11-05T02:00:00	0.2313	7.472	162.2	0.573023024	0.701086639	0.011185233	0.115395990	0.035566165
2019-11-05T02:05:00	0.2336	7.460	162.1	0.580754140	0.712265309	0.011465561	0.118288080	0.036457535
2019-11-05T02:10:00	0.2367	7.446	162.0	0.591145412	0.727368593	0.011847937	0.122232982	0.037673392
2019-11-05T02:15:00	0.2372	7.434	162.0	0.592823575	0.729816165	0.011910293	0.122876293	0.037871667
2019-11-05T02:20:00	0.2346	7.427	161.9	0.584125578	0.717155712	0.011588919	0.119560739	0.036849781
2019-11-05T02:25:00	0.2350	7.420	161.9	0.585472049	0.719111461	0.011638374	0.120070955	0.037007035
2019-11-05T02:30:00	0.2351	7.416	161.9	0.585813083	0.719607052	0.011650917	0.120200360	0.037046918
2019-11-05T02:35:00	0.2357	7.417	161.9	0.587493786	0.722050866	0.011712833	0.120839139	0.037243796
2019-11-05T02:40:00	0.2346	7.417	161.9	0.583814374	0.716703903	0.011577504	0.119442973	0.036813484
2019-11-05T02:45:00	0.2333	7.417	161.9	0.579459916	0.710390495	0.011418386	0.117801382	0.036307530
2019-11-05T02:50:00	0.2329	7.418	161.9	0.578123155	0.708455521	0.011369765	0.117299766	0.036152927
2019-11-05T02:55:00	0.2313	7.418	161.9	0.572752959	0.700697038	0.011175505	0.115295623	0.035535231
2019-11-05T03:00:00	0.2317	7.420	161.9	0.574103799	0.702646388	0.011224209	0.115798094	0.035690097
2019-11-05T03:05:00	0.2317	7.421	161.9	0.574109814	0.702655072	0.011224426	0.115800334	0.035690788
2019-11-05T03:10:00	0.2290	7.422	161.9	0.565028264	0.689578793	0.010899067	0.112443665	0.034656229
2019-11-05T03:15:00	0.2285	7.418	161.9	0.563348819	0.687168070	0.010839432	0.111828425	0.034466607
2019-11-05T03:20:00	0.2309	7.413	161.9	0.571437718	0.698800511	0.011128188	0.114807465	0.035384776
2019-11-05T03:25:00	0.2286	7.415	161.9	0.563698046	0.687669169	0.010851819	0.111956218	0.034505994
2019-11-05T03:30:00	0.2298	7.419	161.9	0.567747444	0.693486918	0.010995974	0.113443437	0.034964369
2019-11-05T03:35:00	0.2284	7.422	161.9	0.563035765	0.686718960	0.010828335	0.111713932	0.034431319
2019-11-05T03:40:00	0.2293	7.427	161.9	0.566075336	0.691082968	0.010936331	0.112828113	0.034774720
2019-11-05T03:45:00	0.2284	7.432	162.0	0.563047834	0.686736272	0.010828762	0.111718345	0.034432679
2019-11-05T03:50:00	0.2298	7.435	162.0	0.567771550	0.693521591	0.010996835	0.113452320	0.034967107
2019-11-05T03:55:00	0.2306	7.438	162.0	0.570470533	0.697406781	0.011093458	0.114449163	0.035274344
2019-11-05T04:00:00	0.2281	7.441	162.0	0.562054179	0.685311294	0.010793575	0.111355325	0.034320793
2019-11-05T04:05:00	0.2310	7.445	162.1	0.571730019	0.699221875	0.011138695	0.114915863	0.035418185
2019-11-05T04:10:00	0.2314	7.451	162.0	0.573319268	0.701514075	0.011195910	0.115506137	0.035600113
2019-11-05T04:15:00	0.2328	7.457	162.1	0.577931067	0.708177593	0.011362787	0.117227775	0.036130739
2019-11-05T04:20:00	0.2313	7.459	162.1	0.572798625	0.700762913	0.011177150	0.115312591	0.035540461
2019-11-05T04:25:00	0.2287	7.460	162.1	0.564289419	0.688517946	0.010872811	0.112172788	0.034572743
2019-11-05T04:30:00	0.2280	7.458	162.1	0.561836525	0.684999270	0.010785875	0.111275887	0.034296309
2019-11-05T04:35:00	0.2292	7.457	162.1	0.565789660	0.690672489	0.010926158	0.112723156	0.034742372
2019-11-05T04:40:00	0.2298	7.456	162.1	0.567718380	0.693445114	0.010994936	0.113432727	0.034961068
2019-11-05T04:45:00	0.2288	7.453	162.1	0.564593848	0.688954996	0.010883626	0.112284358	0.034607130
2019-11-05T04:50:00	0.2340	7.450	162.1	0.581985057	0.714049708	0.011510521	0.118751922	0.036600496
2019-11-05T04:55:00	0.2342	7.443	162.0	0.582563816	0.714889142	0.011531691	0.118970335	0.036667813
2019-11-05T05:00:00	0.2357	7.438	162.0	0.587498376	0.722057543	0.011713002	0.120840886	0.037244335
2019-11-05T05:05:00	0.2369	7.434	162.0	0.591757178	0.728260571	0.011870649	0.122467297	0.037745610
2019-11-05T05:10:00	0.2374	7.431	162.0	0.593337398	0.730566038	0.011929418	0.123073610	0.037932482
2019-11-05T05:15:00	0.2391	7.425	162.0	0.598924529	0.738734114	0.012138402	0.125229660	0.038596997
2019-11-05T05:20:00	0.2389	7.421	162.0	0.598499199	0.738111388	0.012122428	0.125064850	0.038546201
2019-11-05T05:25:00	0.2404	7.417	161.9	0.603411536	0.745312766	0.012307588	0.126975114	0.039134963
2019-11-05T05:30:00	0.2404	7.413	161.9	0.603320125	0.745178575	0.012304129	0.126939431	0.039123965
2019-11-05T05:35:00	0.2383	7.408	161.9	0.596220941	0.734778362	0.012037043	0.124183955	0.038274701
2019-11-05T05:40:00	0.2400	7.403	161.9	0.602137010	0.743442399	0.012259408	0.126478057	0.038981766
2019-11-05T05:45:00	0.2390	7.400	161.7	0.598709148	0.738418756	0.012130312	0.125146189	0.038571271
2019-11-05T05:50:00	0.2397	7.396	161.9	0.600953500	0.741706814	0.012214757	0.126017394	0.038839785
2019-11-05T05:55:00	0.2398	7.393	161.8	0.601529155	0.742550850	0.012236465	0.126241351	0.038908810
2019-11-05T06:00:00	0.2424	7.389	161.8	0.610099188	0.755149212	0.012561988	0.129599716	0.039943891
2019-11-05T06:05:00	0.2406	7.387	161.8	0.604013632	0.746196815	0.012330382	0.127210277	0.039207443
2019-11-05T06:10:00	0.2404	7.384	161.8	0.603255559	0.745083796	0.012301686	0.126914230	0.039116198
2019-11-05T06:15:00	0.2408	7.381	161.8	0.604830648	0.747396914	0.012361347	0.127529739	0.039305904
2019-11-05T06:20:00	0.2401	7.380	161.7	0.602405888	0.743836864	0.012269564	0.126582834	0.039014059
2019-11-05T06:25:00	0.2424	7.380	161.8	0.609975727	0.754967281	0.012557267	0.129551012	0.039928880
2019-11-05T06:30:00	0.2367	7.379	161.7	0.590866885	0.726962592	0.011837604	0.122126378	0.037640536
2019-11-05T06:35:00	0.2380	7.378	161.8	0.595455746	0.733659876	0.012008435	0.123888808	0.038183734
2019-11-05T06:40:00	0.2411	7.378	161.7	0.605706565	0.748684153	0.012394589	0.127872692	0.039411605
2019-11-05T06:45:00	0.2401	7.377	161.7	0.602282159	0.743655336	0.012264890	0.126534614	0.038999197
2019-11-05T06:50:00	0.2399	7.378	161.7	0.601857233	0.743032007	0.012248845	0.126369080	0.038948178
2019-11-05T06:55:00	0.2422	7.380	161.8	0.609428242	0.754160666	0.012536344	0.129335151	0.039862350
2019-11-05T07:00:00	0.2441	7.382	161.7	0.615654553	0.763348801	0.012775358	0.131801010	0.040622351
2019-11-05T07:05:00	0.2437	7.387	161.8	0.614234341	0.761250133	0.012720634	0.131236435	0.040448344
2019-11-05T07:10:00	0.2446	7.393	161.8	0.617465152	0.766026812	0.012845300	0.132522591	0.040844750
2019-11-05T07:15:00	0.2443	7.399	161.8	0.616377820	0.764418235	0.012803273	0.132089010	0.040711116
2019-11-05T07:20:00	0.2449	7.405	161.8	0.618279080	0.767231571	0.012876806	0.132847630	0.040944930
2019-11-05T07:25:00	0.2444	7.412	161.9	0.616527805	0.764640061	0.012809066	0.132148774	0.040729536
2019-11-05T07:30:00	0.2469	7.420	161.9	0.625061799	0.777292931	0.013140907	0.135572312	0.041784703
2019-11-05T07:35:00	0.2470	7.428	161.9	0.625302269	0.777650352	0.013150321	0.135669436	0.041814638
2019-11-05T07:40:00	0.2466	7.436	162.0	0.623885898	0.775545840	0.013094921	0.135097889	0.041638482
2019-11-05T07:45:00	0.2441	7.448	162.0	0.615831320	0.763610131	0.012782177	0.131871367	0.040644036
2019-11-05T07:50:00	0.2440	7.460	162.1	0.615408013	0.762984363	0.012765849	0.131702913	0.040592117
2019-11-05T07:55:00	0.2408	7.475	162.1	0.604669298	0.747159866	0.012355229	0.127466617	0.039286449
2019-11-05T08:00:00	0.2458	7.490	162.2	0.621201257	0.771561518	0.012990247	0.134017986	0.041305645
2019-11-05T08:05:00	0.2466	7.507	162.2	0.624094352	0.775855465	0.013103067	0.135181928	0.041664383
2019-11-05T08:10:00	0.2453	7.521	162.3	0.619692267	0.769324667	0.012931603	0.133412960	0.041119170
2019-11-05T08:15:00	0.2447	7.536	174.4	0.617609676	0.766240692	0.012850891	0.132580276	0.040862529
2019-11-05T08:20:00	0.2463	7.553	162.5	0.622827222	0.773973914	0.013053592	0.134671499	0.041507064
2019-11-05T08:25:00	0.2458	7.573	162.6	0.621409868	0.771870903	0.012998365	0.134101740	0.041331459
2019-11-05T08:30:00	0.2435	7.593	162.7	0.613682091	0.760434522	0.012699387	0.131017237	0.040380785
2019-11-05T08:35:00	0.2452	7.608	162.7	0.619237280	0.768650594	0.012913947	0.133230812	0.041063030
2019-11-05T08:40:00	0.2431	7.626	163.7	0.612502427	0.758693153	0.012654064	0.130549642	0.040236668
2019-11-05T08:45:00	0.2440	7.647	163.0	0.615402594	0.762976354	0.012765640	0.131700757	0.040591452
2019-11-05T08:50:00	0.2446	7.672	163.0	0.617304375	0.765788899	0.012839081	0.132458434	0.040824976
2019-11-05T08:55:00	0.2442	7.694	163.1	0.615884822	0.763689233	0.012784242	0.131892666	0.040650601
2019-11-05T09:00:00	0.2439	7.719	163.2	0.615129280	0.762572399	0.012755104	0.131592052	0.040557949
2019-11-05T09:05:00	0.2429	7.741	163.3	0.611713959	0.757529901	0.012623817	0.130237590	0.040140490
2019-11-05T09:10:00	0.2436	7.762	163.4	0.613950096	0.760830303	0.012709696	0.131123589	0.040413564
2019-11-05T09:15:00	0.2441	7.786	163.5	0.615520448	0.763150559	0.012770185	0.131747645	0.040605904
2019-11-05T09:20:00	0.2475	7.809	163.6	0.627038439	0.780232349	0.013218394	0.136371738	0.042031094
2019-11-05T09:25:00	0.2471	7.831	163.7	0.625622757	0.778126784	0.013162873	0.135798936	0.041854551
2019-11-05T09:30:00	0.2470	7.854	163.8	0.625200611	0.777499248	0.013146341	0.135628373	0.041801982
2019-11-05T09:35:00	0.2451	7.874	163.9	0.619140862	0.768507772	0.012910207	0.133192229	0.041051139
2019-11-05T09:40:00	0.2431	7.896	164.0	0.612405827	0.758550608	0.012650356	0.130511390	0.040224878
2019-11-05T09:45:00	0.2422	7.919	164.1	0.609320702	0.754002257	0.012532236	0.129292772	0.039849288
2019-11-05T09:50:00	0.2419	7.939	164.1	0.608230875	0.752397452	0.012490647	0.128863702	0.039717044
2019-11-05T09:55:00	0.2410	7.959	175.4	0.605475295	0.748344218	0.012385808	0.127782095	0.039383683
2019-11-05T10:00:00	0.2402	7.979	175.4	0.602717571	0.744294203	0.012281343	0.126704348	0.039051510
2019-11-05T10:05:00	0.2395	8.000	164.4	0.600196886	0.740597877	0.012186255	0.125723347	0.038749157
2019-11-05T10:10:00	0.2413	8.022	175.6	0.606345092	0.749622931	0.012418851	0.128122996	0.039488752
2019-11-05T10:15:00	0.2391	8.045	175.7	0.599157475	0.739075234	0.012147156	0.125319970	0.038624832
2019-11-05T10:20:00	0.2391	8.072	164.8	0.598971444	0.738802812	0.012140165	0.125247846	0.038602602
2019-11-05T10:25:00	0.2390	8.094	164.8	0.598785404	0.738530405	0.012133176	0.125175739	0.038580378
2019-11-05T10:30:00	0.2385	8.116	164.9	0.596929912	0.735815102	0.012063581	0.124457738	0.038359084
2019-11-05T10:35:00	0.2406	8.133	165.0	0.604083810	0.746299876	0.012333040	0.127237701	0.039215895
2019-11-05T10:40:00	0.2384	8.147	165.1	0.596557608	0.735270623	0.012049641	0.124313927	0.038314760
2019-11-05T10:45:00	0.2386	8.158	165.1	0.597373359	0.736463774	0.012080195	0.124629141	0.038411912
2019-11-05T10:50:00	0.2381	8.174	165.2	0.595851210	0.734237865	0.012023216	0.124041299	0.038230733
2019-11-05T10:55:00	0.2365	8.191	165.3	0.590315563	0.726159138	0.011817164	0.121915505	0.037575543
2019-11-05T11:00:00	0.2365	8.198	165.3	0.590463661	0.726374941	0.011822653	0.121972132	0.037592996
2019-11-05T11:05:00	0.2362	8.205	165.3	0.589273237	0.724640826	0.011778570	0.121517340	0.037452824
2019-11-05T11:10:00	0.2364	8.211	165.4	0.590090674	0.725831475	0.011808832	0.121829542	0.037549048
2019-11-05T11:15:00	0.2366	8.211	165.3	0.590573367	0.726534811	0.011826720	0.122014088	0.037605927
2019-11-05T11:20:00	0.2347	8.206	165.4	0.584359161	0.717494884	0.011597490	0.119649171	0.036877036
2019-11-05T11:25:00	0.2337	8.207	165.3	0.580818967	0.712359256	0.011467927	0.118312485	0.036465057
2019-11-05T11:30:00	0.2336	8.215	165.4	0.580631967	0.712088270	0.011461104	0.118242092	0.036443361
2019-11-05T11:35:00	0.2313	8.225	165.4	0.573055433	0.701133397	0.011186401	0.115408038	0.035569878
2019-11-05T11:40:00	0.2323	8.248	165.6	0.576229002	0.705716253	0.011301051	0.116590860	0.035934435
2019-11-05T11:45:00	0.2319	8.267	165.6	0.575033746	0.703989240	0.011257801	0.116144653	0.035796910
2019-11-05T11:50:00	0.2325	8.278	165.7	0.576862275	0.706631743	0.011324000	0.116827625	0.036007409
2019-11-05T11:55:00	0.2337	8.286	165.7	0.581038978	0.712678113	0.011475957	0.118395332	0.036490591
2019-11-05T12:00:00	0.2329	8.297	165.8	0.578167002	0.708518966	0.011371358	0.117316202	0.036157993
2019-11-05T12:05:00	0.2353	8.301	165.8	0.586364086	0.720407975	0.011671197	0.120409587	0.037111404
2019-11-05T12:10:00	0.2351	8.306	165.8	0.585507342	0.719162744	0.011639671	0.120084344	0.037011161
2019-11-05T12:15:00	0.2338	8.308	165.8	0.581297463	0.713052783	0.011485395	0.118492704	0.036520602
2019-11-05T12:20:00	0.2338	8.315	165.9	0.581445942	0.713268026	0.011490818	0.118548655	0.036537847
2019-11-05T12:25:00	0.2329	8.322	165.9	0.578238571	0.708622527	0.011373958	0.117343032	0.036166262
2019-11-05T12:30:00	0.2342	8.331	165.9	0.582748967	0.715157744	0.011538468	0.119040251	0.036689361
2019-11-05T12:35:00	0.2321	8.336	166.0	0.575513031	0.704681612	0.011275133	0.116323473	0.035852024
2019-11-05T12:40:00	0.2332	8.347	166.1	0.579355717	0.710239613	0.011414592	0.117762243	0.036295467
2019-11-05T12:45:00	0.2328	8.353	166.0	0.577825758	0.708025237	0.011358962	0.117188316	0.036118577
2019-11-05T12:50:00	0.2314	8.355	166.1	0.573270448	0.701443630	0.011194150	0.115487981	0.035594517
2019-11-05T12:55:00	0.2309	8.362	166.1	0.571401445	0.698748228	0.011126885	0.114794017	0.035380631
2019-11-05T13:00:00	0.2290	8.369	166.1	0.565153158	0.689758163	0.010903508	0.112489486	0.034670352
2019-11-05T13:05:00	0.2286	8.376	166.2	0.563954111	0.688036655	0.010860906	0.112049967	0.034534888
2019-11-05T13:10:00	0.2279	8.392	166.3	0.561405455	0.684381413	0.010770634	0.111118645	0.034247846
2019-11-05T13:15:00	0.2274	8.399	166.3	0.559867623	0.682178467	0.010716350	0.110558606	0.034075236
2019-11-05T13:20:00	0.2270	8.401	166.3	0.558329111	0.679976498	0.010662181	0.109999758	0.033902994
2019-11-05T13:25:00	0.2274	8.405	166.4	0.559828898	0.682123019	0.010714985	0.110544522	0.034070895
2019-11-05T13:30:00	0.2286	8.411	166.4	0.563688843	0.687655963	0.010851493	0.111952849	0.034504955
2019-11-05T13:35:00	0.2312	8.420	166.5	0.572592456	0.700465523	0.011169725	0.115235995	0.035516853
2019-11-05T13:40:00	0.2302	8.427	166.5	0.569040358	0.695347292	0.011042205	0.113920389	0.035111370
2019-11-05T13:45:00	0.2324	8.430	166.5	0.576587028	0.706233791	0.011314023	0.116724687	0.035975682
2019-11-05T13:50:00	0.2320	8.438	166.6	0.575391893	0.704506599	0.011270751	0.116278263	0.035838090
2019-11-05T13:55:00	0.2310	8.442	166.6	0.571842636	0.699384235	0.011142744	0.114957640	0.035431061
2019-11-05T14:00:00	0.2314	8.443	166.6	0.573336633	0.701539132	0.011196536	0.115512595	0.035602104
2019-11-05T14:05:00	0.2326	8.446	166.7	0.577181703	0.707093649	0.011335585	0.116947144	0.036044245
2019-11-05T14:10:00	0.2307	8.449	166.7	0.570943737	0.698088579	0.011110443	0.114624394	0.035328352
2019-11-05T14:15:00	0.2326	8.451	166.6	0.577143169	0.707037923	0.011334187	0.116932722	0.036039801
2019-11-05T14:20:00	0.2328	8.453	166.7	0.577963431	0.708224417	0.011363962	0.117239902	0.036134477
2019-11-05T14:25:00	0.2329	8.454	166.7	0.578112051	0.708439453	0.011369361	0.117295603	0.036151644
2019-11-05T14:30:00	0.2334	8.454	166.7	0.579938977	0.711084302	0.011435836	0.117981415	0.036363018
2019-11-05T14:35:00	0.2330	8.456	166.7	0.578744985	0.709355440	0.011392369	0.117532970	0.036224803
2019-11-05T14:40:00	0.2325	8.455	166.7	0.576878900	0.706655781	0.011324603	0.116833844	0.036009325
2019-11-05T14:45:00	0.2309	8.449	166.7	0.571649669	0.699106040	0.011135806	0.114886061	0.035409000
2019-11-05T14:50:00	0.2310	8.440	166.7	0.571798557	0.699320685	0.011141159	0.114941287	0.035426021
2019-11-05T14:55:00	0.2300	8.431	166.7	0.568582341	0.694688093	0.011025816	0.113751311	0.035059259
2019-11-05T15:00:00	0.2301	8.418	166.6	0.568731359	0.694902548	0.011031147	0.113806308	0.035076209
2019-11-05T15:05:00	0.2294	8.404	166.5	0.566523075	0.691726446	0.010952286	0.112992711	0.034825451
2019-11-05T15:10:00	0.2310	8.390	166.9	0.571721371	0.699209407	0.011138384	0.114912655	0.035417196
2019-11-05T15:15:00	0.2308	8.377	166.5	0.571197480	0.698454253	0.011119556	0.114718414	0.035357329
2019-11-05T15:20:00	0.2309	8.360	166.4	0.571682777	0.699153769	0.011136997	0.114898340	0.035412784
2019-11-05T15:25:00	0.2315	8.344	166.3	0.573513056	0.701793722	0.011202897	0.115578219	0.035622329
2019-11-05T15:30:00	0.2303	8.324	166.2	0.569625337	0.696189473	0.011063154	0.114136521	0.035177984
2019-11-05T15:35:00	0.2304	8.304	166.1	0.569774312	0.696403993	0.011068492	0.114191596	0.035194959
2019-11-05T15:40:00	0.2307	8.282	166.1	0.570932762	0.698072765	0.011110049	0.114620329	0.035327098
2019-11-05T15:45:00	0.2308	8.260	165.8	0.571081680	0.698287365	0.011115397	0.114675502	0.035344103
2019-11-05T15:50:00	0.2314	8.236	165.8	0.573248513	0.701411979	0.011193359	0.115479824	0.035592003
2019-11-05T15:55:00	0.2323	8.211	165.7	0.576421907	0.705995090	0.011308039	0.116662956	0.035956656
2019-11-05T16:00:00	0.2300	8.184	165.6	0.568499592	0.694569016	0.011022856	0.113720778	0.035049848
2019-11-05T16:05:00	0.2320	8.156	176.4	0.575375452	0.704482847	0.011270157	0.116272128	0.035836199
2019-11-05T16:10:00	0.2320	8.129	165.0	0.575188161	0.704212286	0.011263383	0.116202249	0.035814662
2019-11-05T16:15:00	0.2324	8.100	164.8	0.576680732	0.706369262	0.011317419	0.116759725	0.035986481
2019-11-05T16:20:00	0.2332	8.073	165.0	0.579179778	0.709984869	0.011408188	0.117696170	0.036275103
2019-11-05T16:25:00	0.2339	8.048	165.0	0.581677045	0.713603081	0.011499262	0.118635768	0.036564696
2019-11-05T16:30:00	0.2339	8.023	164.9	0.581490090	0.713332028	0.011492431	0.118565294	0.036542975
2019-11-05T16:35:00	0.2341	7.997	164.8	0.582309336	0.714520009	0.011522380	0.118874274	0.036638206
2019-11-05T16:40:00	0.2335	7.973	175.2	0.580445146	0.711817574	0.011454289	0.118171788	0.036421693
2019-11-05T16:45:00	0.2345	7.947	164.3	0.583612041	0.716410197	0.011570085	0.119366438	0.036789895
2019-11-05T16:50:00	0.2346	7.921	164.2	0.584095624	0.717112221	0.011587820	0.119549401	0.036846286
2019-11-05T16:55:00	0.2332	7.896	164.1	0.579212814	0.710032701	0.011409390	0.117708576	0.036278926
2019-11-05T17:00:00	0.2346	7.872	164.0	0.584057166	0.717056384	0.011586409	0.119534845	0.036841800
2019-11-05T17:05:00	0.2312	7.848	175.0	0.572454762	0.700266925	0.011164768	0.115184854	0.035501091
2019-11-05T17:10:00	0.2331	7.822	163.9	0.578987215	0.709706085	0.011401180	0.117623877	0.036252821
2019-11-05T17:15:00	0.2318	7.798	163.8	0.574433414	0.703122273	0.011236109	0.115920870	0.035727938
2019-11-05T17:20:00	0.2331	7.775	163.7	0.578948701	0.709650331	0.011399779	0.117609421	0.036248366
2019-11-05T17:25:00	0.2315	7.750	163.7	0.573722559	0.702096082	0.011210452	0.115656172	0.035646355
2019-11-05T17:30:00	0.2331	7.723	163.5	0.578910186	0.709594576	0.011398378	0.117594965	0.036243910
2019-11-05T17:35:00	0.2316	7.695	163.4	0.574020153	0.702525637	0.011221190	0.115766948	0.035680498
2019-11-05T17:40:00	0.2335	7.670	163.3	0.580214152	0.711482914	0.011445866	0.118084891	0.036394910
2019-11-05T17:45:00	0.2329	7.642	163.2	0.578348849	0.708782110	0.011377966	0.117384380	0.036179006
2019-11-05T17:50:00	0.2341	7.615	163.1	0.582188433	0.714344654	0.011517958	0.118828649	0.036624144
2019-11-05T17:55:00	0.2322	7.588	163.0	0.575959374	0.705326567	0.011291287	0.116490128	0.035903389
2019-11-05T18:00:00	0.2318	7.561	162.8	0.574427932	0.703114358	0.011235911	0.115918827	0.035727308
2019-11-05T18:05:00	0.2320	7.537	162.7	0.575248829	0.704299924	0.011265577	0.116224882	0.035821638
2019-11-05T18:10:00	0.2318	7.512	162.7	0.574725466	0.703544001	0.011246659	0.116029709	0.035761483
2019-11-05T18:15:00	0.2312	7.486	162.6	0.572520963	0.700362405	0.011167151	0.115209440	0.035508668
2019-11-05T18:20:00	0.2313	7.461	162.5	0.573006076	0.701062188	0.011184623	0.115389690	0.035564223
2019-11-05T18:25:00	0.2325	7.437	162.3	0.576851509	0.706616176	0.011323610	0.116823598	0.036006167
2019-11-05T18:30:00	0.2312	7.411	162.3	0.572631230	0.700521450	0.011171121	0.115250399	0.035521292
2019-11-05T18:35:00	0.2321	7.388	162.3	0.575469189	0.704618270	0.011273547	0.116307110	0.035846981
2019-11-05T18:40:00	0.2335	7.362	162.2	0.580318706	0.711634384	0.011449678	0.118124219	0.036407031
2019-11-05T18:45:00	0.2302	7.336	162.1	0.569040549	0.695347567	0.011042211	0.113920459	0.035111392
2019-11-05T18:50:00	0.2303	7.313	162.0	0.569526145	0.696046648	0.011059600	0.114099858	0.035166684
2019-11-05T18:55:00	0.2308	7.288	161.9	0.571357551	0.698684961	0.011125307	0.114777745	0.035375616
2019-11-05T19:00:00	0.2311	7.265	161.8	0.572179168	0.699869478	0.011154850	0.115082528	0.035469553
2019-11-05T19:05:00	0.2308	7.243	161.7	0.571318954	0.698629329	0.011123921	0.114763437	0.035371206
2019-11-05T19:10:00	0.2295	7.220	161.6	0.566755164	0.692060062	0.010960560	0.113078079	0.034851762
2019-11-05T19:15:00	0.2317	7.197	161.4	0.574306757	0.702939400	0.011231536	0.115873684	0.035713395
2019-11-05T19:20:00	0.2318	7.175	161.4	0.574455532	0.703154209	0.011236908	0.115929111	0.035730478
2019-11-05T19:25:00	0.2309	7.151	161.2	0.571578157	0.699002950	0.011133236	0.114859539	0.035400826
2019-11-05T19:30:00	0.2312	7.129	161.1	0.572399722	0.700187543	0.011162787	0.115164414	0.035494791
2019-11-05T19:35:00	0.2300	7.106	161.0	0.568510765	0.694585094	0.011023256	0.113724901	0.035051119
2019-11-05T19:40:00	0.2323	7.082	160.9	0.576394512	0.705955491	0.011307047	0.116652717	0.035953500
2019-11-05T19:45:00	0.2313	7.061	160.8	0.572846271	0.700831645	0.011178866	0.115330297	0.035545917
2019-11-05T19:50:00	0.2316	7.040	160.7	0.574003705	0.702501894	0.011220596	0.115760824	0.035678610
2019-11-05T19:55:00	0.2327	7.015	160.6	0.577512246	0.707571717	0.011347580	0.117070887	0.036082384
2019-11-05T20:00:00	0.2317	6.991	160.5	0.574301275	0.702931485	0.011231338	0.115871642	0.035712765
2019-11-05T20:05:00	0.2342	6.966	160.3	0.582507377	0.714807269	0.011529626	0.118949027	0.036661245
2019-11-05T20:10:00	0.2352	6.943	160.2	0.586007435	0.719889528	0.011658068	0.120274138	0.037069657
2019-11-05T20:15:00	0.2348	6.920	160.1	0.584480370	0.717670901	0.011601940	0.119695072	0.036891184
2019-11-05T20:20:00	0.2358	6.895	160.0	0.587978467	0.722756049	0.011730720	0.121023673	0.037300671
2019-11-05T20:25:00	0.2350	6.872	159.9	0.585447230	0.719075398	0.011637461	0.120061541	0.037004133
2019-11-05T20:30:00	0.2352	6.850	159.8	0.585930560	0.719777793	0.011655239	0.120244953	0.037060662
2019-11-05T20:35:00	0.2337	6.830	159.7	0.581050301	0.712694525	0.011476370	0.118399596	0.036491905
2019-11-05T20:40:00	0.2345	6.810	159.6	0.583546240	0.716314687	0.011567673	0.119341553	0.036782226
2019-11-05T20:45:00	0.2355	6.790	159.5	0.587045265	0.721398467	0.011696293	0.120668502	0.037191204
2019-11-05T20:50:00	0.2372	6.773	159.4	0.592547680	0.729413615	0.011900030	0.122770412	0.037839033
2019-11-05T20:55:00	0.2353	6.753	159.3	0.586336959	0.720368538	0.011670198	0.120399282	0.037108228
2019-11-05T21:00:00	0.2346	6.731	159.2	0.584139738	0.717176272	0.011589438	0.119566099	0.036851433
2019-11-05T21:05:00	0.2339	6.710	159.1	0.581605736	0.713499692	0.011496656	0.118608885	0.036556410
2019-11-05T21:10:00	0.2333	6.689	169.6	0.579741172	0.710797805	0.011428629	0.117907063	0.036340102
2019-11-05T21:15:00	0.2349	6.668	158.9	0.584919919	0.718309310	0.011618081	0.119861603	0.036942510
2019-11-05T21:20:00	0.2363	6.649	169.4	0.589756422	0.725344548	0.011796453	0.121701832	0.037509687
2019-11-05T21:25:00	0.2351	6.628	169.3	0.585551628	0.719227096	0.011641300	0.120101145	0.037016339
2019-11-05T21:30:00	0.2334	6.610	169.3	0.579999753	0.711172335	0.011438051	0.118004265	0.036370061
2019-11-05T21:35:00	0.2349	6.593	169.1	0.584843021	0.718197610	0.011615257	0.119832460	0.036933528
2019-11-05T21:40:00	0.2330	6.579	169.1	0.578618673	0.709172615	0.011387775	0.117485580	0.036210197
2019-11-05T21:45:00	0.2338	6.564	158.4	0.581451793	0.713276508	0.011491032	0.118550860	0.036538526
2019-11-05T21:50:00	0.2351	6.547	169.0	0.585623046	0.719330878	0.011643926	0.120128242	0.037024691
2019-11-05T21:55:00	0.2359	6.529	158.2	0.588450530	0.723443062	0.011748154	0.121203541	0.037356108
2019-11-05T22:00:00	0.2334	6.510	158.2	0.579884244	0.711005023	0.011433842	0.117960839	0.036356676
2019-11-05T22:05:00	0.2340	6.492	158.1	0.581802221	0.713784580	0.011503837	0.118682966	0.036579243
2019-11-05T22:10:00	0.2356	6.475	158.0	0.587404656	0.721921207	0.011709545	0.120805220	0.037233342
2019-11-05T22:15:00	0.2354	6.460	168.5	0.586640011	0.720809146	0.011681359	0.120514431	0.037143718
2019-11-05T22:20:00	0.2361	6.445	157.8	0.588889053	0.724081429	0.011764362	0.121370752	0.037407644
2019-11-05T22:25:00	0.2356	6.431	157.8	0.587455062	0.721994533	0.011711405	0.120824402	0.037239254
2019-11-05T22:30:00	0.2357	6.415	157.7	0.587695100	0.722343742	0.011720261	0.120915768	0.037267414
2019-11-05T22:35:00	0.2341	6.402	157.6	0.582238573	0.714417373	0.011519792	0.118847569	0.036629975
2019-11-05T22:40:00	0.2361	6.389	157.6	0.588844657	0.724016794	0.011762720	0.121353818	0.037402425
2019-11-05T22:45:00	0.2348	6.375	157.5	0.584730669	0.718034420	0.011611130	0.119789888	0.036920407
2019-11-05T22:50:00	0.2368	6.361	157.5	0.591332083	0.727640732	0.011854865	0.122304455	0.037695421
2019-11-05T22:55:00	0.2373	6.350	157.4	0.592909501	0.729941551	0.011913490	0.122909279	0.037881833
2019-11-05T23:00:00	0.2365	6.337	157.4	0.590473552	0.726389354	0.011823020	0.121975914	0.037594161
2019-11-05T23:05:00	0.2367	6.324	157.3	0.591047924	0.727226481	0.011844320	0.122195664	0.037661890
2019-11-05T23:10:00	0.2365	6.314	157.2	0.590284070	0.726113251	0.011815997	0.121903465	0.037571832
2019-11-05T23:15:00	0.2388	6.304	157.2	0.597876877	0.737200519	0.012099073	0.124823910	0.038471941
2019-11-05T23:20:00	0.2380	6.293	157.1	0.595444355	0.733643231	0.012008009	0.123884417	0.038182381
2019-11-05T23:25:00	0.2387	6.283	157.1	0.597687792	0.736923826	0.012091982	0.124750751	0.038449393
2019-11-05T23:30:00	0.2376	6.271	157.0	0.593918384	0.731414193	0.011951063	0.123296914	0.038001306
2019-11-05T23:35:00	0.2378	6.258	157.0	0.594826378	0.732740296	0.011984931	0.123646321	0.038108997
2019-11-05T23:40:00	0.2392	6.247	156.9	0.599407113	0.739440848	0.012156541	0.125416789	0.038654672
2019-11-05T23:45:00	0.2393	6.235	156.8	0.599646339	0.739791263	0.012165537	0.125509606	0.038683280
2019-11-05T23:50:00	0.2373	6.224	156.8	0.592871139	0.729885572	0.011912062	0.122894552	0.037877294
2019-11-05T23:55:00	0.2367	6.212	156.7	0.591104265	0.727308610	0.011846410	0.122217230	0.037668537
2019-11-06T00:00:00	0.2365	6.197	156.7	0.590340423	0.726195362	0.011818085	0.121925009	0.037578472
2019-11-06T00:05:00	0.2376	6.184	156.6	0.593924365	0.731422926	0.011951286	0.123299214	0.038002015
2019-11-06T00:10:00	0.2354	6.165	156.5	0.586803248	0.721046510	0.011687374	0.120576479	0.037162842
2019-11-06T00:15:00	0.2344	6.147	156.4	0.583357447	0.716040678	0.011560754	0.119270170	0.036760225
2019-11-06T00:20:00	0.2335	6.127	156.3	0.580243835	0.711525915	0.011446948	0.118096055	0.036398351
2019-11-06T00:25:00	0.2323	6.111	156.3	0.576119761	0.705558362	0.011297095	0.116550043	0.035921855
2019-11-06T00:30:00	0.2333	6.097	156.2	0.579718213	0.710764554	0.011427793	0.117898434	0.036337442
2019-11-06T00:35:00	0.2318	6.087	156.1	0.574585381	0.703341708	0.011241598	0.115977497	0.035745391
2019-11-06T00:40:00	0.2327	6.076	156.1	0.577513844	0.707574028	0.011347638	0.117071485	0.036082569
2019-11-06T00:45:00	0.2337	6.063	156.0	0.581110868	0.712782311	0.011478581	0.118422409	0.036498936
2019-11-06T00:50:00	0.2335	6.051	156.0	0.580344853	0.711672265	0.011450632	0.118134055	0.036410063
2019-11-06T00:55:00	0.2357	6.033	155.9	0.587624255	0.722240671	0.011717646	0.120888799	0.037259102
2019-11-06T01:00:00	0.2352	6.015	155.8	0.585854747	0.719667605	0.011652450	0.120216174	0.037051792
2019-11-06T01:05:00	0.2342	5.995	155.7	0.582743347	0.715149589	0.011538263	0.119038128	0.036688707
2019-11-06T01:10:00	0.2365	5.977	155.6	0.590352398	0.726212812	0.011818529	0.121929588	0.037579883
2019-11-06T01:15:00	0.2350	5.962	155.5	0.585235085	0.718767162	0.011629662	0.119981083	0.036979335
2019-11-06T01:20:00	0.2355	5.947	155.5	0.587150146	0.721551008	0.011700160	0.120708392	0.037203499
2019-11-06T01:25:00	0.2360	5.932	155.4	0.588729438	0.723849056	0.011758461	0.121309876	0.037388882
2019-11-06T01:30:00	0.2356	5.917	155.4	0.587295382	0.721762256	0.011705515	0.120763642	0.037220527
2019-11-06T01:35:00	0.2359	5.904	155.3	0.588205083	0.723085830	0.011739088	0.121110002	0.037327279
2019-11-06T01:40:00	0.2347	5.889	155.2	0.584425517	0.717591243	0.011599926	0.119674298	0.036884781
2019-11-06T01:45:00	0.2351	5.876	155.2	0.585671011	0.719400582	0.011645691	0.120146442	0.037030300
2019-11-06T01:50:00	0.2347	5.865	155.1	0.584235709	0.717315621	0.011592960	0.119602429	0.036862630
2019-11-06T01:55:00	0.2366	5.855	155.1	0.590838050	0.726920564	0.011836534	0.122115344	0.037637135
2019-11-06T02:00:00	0.2357	5.846	155.0	0.587731053	0.722396051	0.011721587	0.120929456	0.037271633
2019-11-06T02:05:00	0.2361	5.838	155.0	0.588975378	0.724207114	0.011767554	0.121403682	0.037417794
2019-11-06T02:10:00	0.2360	5.830	155.0	0.588545852	0.723581811	0.011751676	0.121239878	0.037367308
2019-11-06T02:15:00	0.2347	5.820	154.9	0.584431515	0.717599953	0.011600146	0.119676569	0.036885481
2019-11-06T02:20:00	0.2350	5.809	154.9	0.585341956	0.718922435	0.011633591	0.120021611	0.036991826
2019-11-06T02:25:00	0.2333	5.799	154.8	0.579546169	0.710515398	0.011421527	0.117833786	0.036317517
2019-11-06T02:30:00	0.2348	5.789	154.8	0.584481964	0.717673216	0.011601998	0.119695676	0.036891370
2019-11-06T02:35:00	0.2346	5.778	154.7	0.584051889	0.717048723	0.011586215	0.119532848	0.036841185
2019-11-06T02:40:00	0.2344	5.768	154.7	0.583286515	0.715937735	0.011558155	0.119243356	0.036751960
2019-11-06T02:45:00	0.2357	5.758	154.6	0.587547416	0.722128884	0.011714811	0.120859551	0.037250087
2019-11-06T02:50:00	0.2376	5.749	154.6	0.594143559	0.731742991	0.011959457	0.123383517	0.038027998
2019-11-06T02:55:00	0.2360	5.740	154.6	0.588697021	0.723801865	0.011757263	0.121297514	0.037385072
2019-11-06T03:00:00	0.2372	5.733	154.5	0.592617025	0.729514789	0.011902609	0.122797020	0.037847234
2019-11-06T03:05:00	0.2370	5.726	154.5	0.591853510	0.728401055	0.011874227	0.122504215	0.037756989
2019-11-06T03:10:00	0.2369	5.720	154.5	0.591758807	0.728262947	0.011870709	0.122467921	0.037745803
2019-11-06T03:15:00	0.2364	5.713	154.5	0.589991375	0.725686811	0.011805154	0.121791595	0.037537352
2019-11-06T03:20:00	0.2371	5.705	154.4	0.592238280	0.728962256	0.011888526	0.122651728	0.037802454
2019-11-06T03:25:00	0.2371	5.698	154.4	0.592477992	0.729311947	0.011897438	0.122743675	0.037830793
2019-11-06T03:30:00	0.2379	5.691	154.4	0.595057474	0.733077917	0.011993558	0.123735331	0.038136431
2019-11-06T03:35:00	0.2378	5.684	154.3	0.594628688	0.732451517	0.011977553	0.123570205	0.038085537
2019-11-06T03:40:00	0.2375	5.678	154.3	0.593531336	0.730849127	0.011936641	0.123148128	0.037955449
2019-11-06T03:45:00	0.2385	5.673	154.3	0.597112041	0.736081499	0.012070403	0.124528121	0.038380776
2019-11-06T03:50:00	0.2383	5.665	154.2	0.596349498	0.734966322	0.012041853	0.124233577	0.038289995
2019-11-06T03:55:00	0.2392	5.660	154.2	0.599259918	0.739225264	0.012151007	0.125359697	0.038637076
2019-11-06T04:00:00	0.2397	5.653	154.2	0.601167384	0.742020382	0.012222820	0.126100581	0.038865424
2019-11-06T04:05:00	0.2388	5.644	154.2	0.597980908	0.737352762	0.012102976	0.124864170	0.038484350
2019-11-06T04:10:00	0.2378	5.634	154.1	0.594791557	0.732689428	0.011983631	0.123632913	0.038104864
2019-11-06T04:15:00	0.2388	5.626	154.1	0.597948576	0.737305445	0.012101763	0.124851657	0.038480493
2019-11-06T04:20:00	0.2386	5.621	154.0	0.597431565	0.736548931	0.012082376	0.124651648	0.038418849
2019-11-06T04:25:00	0.2384	5.618	154.1	0.596580495	0.735304091	0.012050498	0.124322765	0.038317484
2019-11-06T04:30:00	0.2393	5.621	154.1	0.599735917	0.739922487	0.012168907	0.125544371	0.038693994
2019-11-06T04:35:00	0.2373	5.624	154.1	0.592872200	0.729887119	0.011912102	0.122894959	0.037877420
2019-11-06T04:40:00	0.2385	5.627	154.1	0.597032949	0.735965810	0.012067440	0.124497554	0.038371355
2019-11-06T04:45:00	0.2364	5.627	154.1	0.590163971	0.725938264	0.011811547	0.121857556	0.037557682
2019-11-06T04:50:00	0.2364	5.630	154.1	0.589980460	0.725670910	0.011804749	0.121787424	0.037536067
2019-11-06T04:55:00	0.2358	5.635	154.1	0.588123327	0.722966850	0.011736068	0.121078853	0.037317679
2019-11-06T05:00:00	0.2368	5.639	154.2	0.591286316	0.727574008	0.011853166	0.122286929	0.037690019
2019-11-06T05:05:00	0.2344	5.639	154.2	0.583400508	0.716103172	0.011562332	0.119286449	0.036765242
2019-11-06T05:10:00	0.2337	5.640	154.1	0.580868975	0.712431726	0.011469752	0.118331313	0.036470860
2019-11-06T05:15:00	0.2337	5.638	154.2	0.581020473	0.712651293	0.011475281	0.118388363	0.036488443
2019-11-06T05:20:00	0.2334	5.633	154.1	0.579829851	0.710926242	0.011431860	0.117940393	0.036350375
2019-11-06T05:25:00	0.2356	5.627	154.1	0.587356372	0.721850972	0.011707764	0.120786848	0.037227680
2019-11-06T05:30:00	0.2354	5.625	154.1	0.586502867	0.720609742	0.011676308	0.120462314	0.037127655
2019-11-06T05:35:00	0.2360	5.626	154.1	0.588663201	0.723752632	0.011756013	0.121284619	0.037381097
2019-11-06T05:40:00	0.2346	5.624	154.1	0.584124932	0.717154775	0.011588895	0.119560494	0.036849706
2019-11-06T05:45:00	0.2343	5.618	153.7	0.582935362	0.715428179	0.011545293	0.119110657	0.036711061
2019-11-06T05:50:00	0.2342	5.612	154.0	0.582751474	0.715161380	0.011538560	0.119041197	0.036689653
2019-11-06T05:55:00	0.2346	5.607	154.0	0.583908646	0.716840759	0.011580961	0.119478641	0.036824477
2019-11-06T06:00:00	0.2341	5.602	154.0	0.582383669	0.714627826	0.011525100	0.118902329	0.036646852
2019-11-06T06:05:00	0.2365	5.598	154.0	0.590239351	0.726048093	0.011814340	0.121886369	0.037566563
2019-11-06T06:10:00	0.2385	5.595	153.9	0.597075843	0.736028551	0.012069047	0.124514130	0.038376464
2019-11-06T06:15:00	0.2389	5.596	154.0	0.598228322	0.737714876	0.012112259	0.124959947	0.038513869
2019-11-06T06:20:00	0.2396	5.598	153.9	0.600715118	0.741357376	0.012205773	0.125924712	0.038811219
2019-11-06T06:25:00	0.2388	5.597	153.9	0.597862129	0.737178936	0.012098520	0.124818203	0.038470182
2019-11-06T06:30:00	0.2399	5.599	154.0	0.601683508	0.742777213	0.012242289	0.126301436	0.038927329
2019-11-06T06:35:00	0.2391	5.599	153.9	0.599165073	0.739086362	0.012147442	0.125322917	0.038625740
2019-11-06T06:40:00	0.2401	5.599	154.0	0.602318191	0.743708198	0.012266251	0.126548655	0.039003525
2019-11-06T06:45:00	0.2408	5.607	154.0	0.604802115	0.747354993	0.012360265	0.127518576	0.039302463
2019-11-06T06:50:00	0.2417	5.619	154.0	0.607617276	0.751494346	0.012467262	0.128622448	0.039642688
2019-11-06T06:55:00	0.2425	5.634	154.1	0.610430205	0.755637058	0.012574650	0.129730344	0.039984152
2019-11-06T07:00:00	0.2395	5.650	154.2	0.600252250	0.740679005	0.012188339	0.125744851	0.038755784
2019-11-06T07:05:00	0.2425	5.663	154.2	0.610397986	0.755589571	0.012573417	0.129717627	0.039980232
2019-11-06T07:10:00	0.2398	5.676	154.2	0.601220767	0.742098653	0.012224833	0.126121348	0.038871824
2019-11-06T07:15:00	0.2398	5.686	154.2	0.601371394	0.742319511	0.012230514	0.126179954	0.038889887
2019-11-06T07:20:00	0.2397	5.692	154.3	0.601188465	0.742051291	0.012223615	0.126108782	0.038867951
2019-11-06T07:25:00	0.2395	5.694	154.3	0.600338298	0.740805103	0.012191579	0.125778278	0.038766087
2019-11-06T07:30:00	0.2384	5.696	154.2	0.596817113	0.735650126	0.012059356	0.124414158	0.038345652
2019-11-06T07:35:00	0.2389	5.697	154.2	0.598303530	0.737824960	0.012115082	0.124989069	0.038522845
2019-11-06T07:40:00	0.2387	5.699	154.2	0.597786571	0.737068368	0.012095686	0.124788967	0.038461172
2019-11-06T07:45:00	0.2399	5.708	154.3	0.601608032	0.742666523	0.012239441	0.126272054	0.038918273
2019-11-06T07:50:00	0.2404	5.713	154.3	0.603425808	0.745333718	0.012308128	0.126980686	0.039136681
2019-11-06T07:55:00	0.2388	5.718	154.3	0.597905012	0.737241692	0.012100129	0.124834798	0.038475297
2019-11-06T08:00:00	0.2401	5.725	154.3	0.602393312	0.743818412	0.012269089	0.126577932	0.039012548
2019-11-06T08:05:00	0.2400	5.734	154.4	0.601876951	0.743060928	0.012249590	0.126376759	0.038950544
2019-11-06T08:10:00	0.2392	5.744	154.4	0.599358653	0.739369872	0.012154719	0.125397992	0.038648879
2019-11-06T08:15:00	0.2392	5.757	154.5	0.599509359	0.739590612	0.012160385	0.125456456	0.038666898
2019-11-06T08:20:00	0.2400	5.770	154.5	0.601995255	0.743234456	0.012254056	0.126422835	0.038964746
2019-11-06T08:25:00	0.2384	5.783	154.5	0.596806219	0.735634193	0.012058949	0.124409949	0.038344355
2019-11-06T08:30:00	0.2395	5.799	154.6	0.600295105	0.740741804	0.012189953	0.125761498	0.038760915
2019-11-06T08:35:00	0.2385	5.818	154.7	0.597107842	0.736075358	0.012070246	0.124526498	0.038380276
2019-11-06T08:40:00	0.2381	5.841	154.8	0.595588568	0.733853988	0.012013398	0.123940014	0.038199516
2019-11-06T08:45:00	0.2373	5.865	154.9	0.593065784	0.730169618	0.011919306	0.122969285	0.037900328
2019-11-06T08:50:00	0.2370	5.890	155.0	0.591879231	0.728438566	0.011875183	0.122514073	0.037760027
2019-11-06T08:55:00	0.2368	5.919	155.1	0.591361331	0.727683374	0.011855950	0.122315655	0.037698873
2019-11-06T09:00:00	0.2365	5.952	155.3	0.590174203	0.725953173	0.011811926	0.121861467	0.037558888
2019-11-06T09:05:00	0.2372	5.987	155.4	0.592666675	0.729587230	0.011904456	0.122816073	0.037853107
2019-11-06T09:10:00	0.2364	6.030	155.6	0.590141800	0.725905962	0.011810726	0.121849082	0.037555070
2019-11-06T09:15:00	0.2361	6.075	155.8	0.588954262	0.724176369	0.011766773	0.121395626	0.037415311
2019-11-06T09:20:00	0.2346	6.124	156.0	0.584081198	0.717091275	0.011587291	0.119543941	0.036844604
2019-11-06T09:25:00	0.2365	6.177	156.3	0.590260498	0.726078905	0.011815124	0.121894453	0.037569054
2019-11-06T09:30:00	0.2349	6.237	156.6	0.585054164	0.718504322	0.011623014	0.119912488	0.036958193
2019-11-06T09:35:00	0.2342	6.298	156.8	0.582523822	0.714831126	0.011530228	0.118955235	0.036663159
2019-11-06T09:40:00	0.2339	6.362	157.1	0.581669143	0.713591624	0.011498973	0.118632789	0.036563778
2019-11-06T09:45:00	0.2359	6.425	168.0	0.588187488	0.723060224	0.011738438	0.121103298	0.037325213
2019-11-06T09:50:00	0.2353	6.486	157.7	0.586329409	0.720357562	0.011669920	0.120396414	0.037107344
2019-11-06T09:55:00	0.2328	6.537	157.9	0.578096725	0.708417278	0.011368804	0.117289859	0.036149874
2019-11-06T10:00:00	0.2350	6.588	158.2	0.585291899	0.718849706	0.011631751	0.120002627	0.036985975
2019-11-06T10:05:00	0.2349	6.648	158.5	0.585060692	0.718513806	0.011623253	0.119914963	0.036958956
2019-11-06T10:10:00	0.2338	6.699	158.7	0.581141265	0.712826370	0.011479691	0.118433859	0.036502465
2019-11-06T10:15:00	0.2323	6.744	178.5	0.576209787	0.705688480	0.011300355	0.116583680	0.035932222
2019-11-06T10:20:00	0.2325	6.794	170.3	0.576985721	0.706810240	0.011328477	0.116873806	0.036021642
2019-11-06T10:25:00	0.2322	6.843	173.4	0.576082129	0.705503973	0.011295732	0.116535983	0.035917522
2019-11-06T10:30:00	0.2324	6.880	173.4	0.576522198	0.706140069	0.011311673	0.116700448	0.035968211
2019-11-06T10:35:00	0.2336	6.913	159.8	0.580654806	0.712121364	0.011461937	0.118250688	0.036446011
2019-11-06T10:40:00	0.2334	6.942	159.9	0.580087742	0.711299790	0.011441258	0.118037350	0.036380258
2019-11-06T10:45:00	0.2340	6.969	171.1	0.581869157	0.713881640	0.011506284	0.118708208	0.036587023
2019-11-06T10:50:00	0.2326	7.000	160.1	0.577274555	0.707227933	0.011338954	0.116981897	0.036054957
2019-11-06T10:55:00	0.2316	7.029	173.3	0.574018782	0.702523659	0.011221140	0.115766437	0.035680340
2019-11-06T11:00:00	0.2319	7.055	160.5	0.574795201	0.703644711	0.011249179	0.116055705	0.035769496
2019-11-06T11:05:00	0.2323	7.084	171.5	0.576243385	0.705737041	0.011301572	0.116596235	0.035936092
2019-11-06T11:10:00	0.2300	7.114	160.5	0.568612694	0.694731773	0.011026902	0.113762512	0.035062711
2019-11-06T11:15:00	0.2310	7.142	160.7	0.571745678	0.699244449	0.011139258	0.114921671	0.035419975
2019-11-06T11:20:00	0.2311	7.176	160.8	0.572186292	0.699879750	0.011155106	0.115085172	0.035470368
2019-11-06T11:25:00	0.2299	7.215	161.0	0.568252441	0.694213393	0.011014019	0.113629608	0.035021749
2019-11-06T11:30:00	0.2304	7.249	161.2	0.569703332	0.696301782	0.011065949	0.114165353	0.035186871
2019-11-06T11:35:00	0.2307	7.279	161.3	0.570817182	0.697906219	0.011105899	0.114577517	0.035313903
2019-11-06T11:40:00	0.2303	7.312	161.4	0.569575437	0.696117621	0.011061366	0.114118076	0.035172299
2019-11-06T11:45:00	0.2306	7.341	161.6	0.570689327	0.697721999	0.011101310	0.114530167	0.035299310
2019-11-06T11:50:00	0.2310	7.368	161.7	0.571802862	0.699326892	0.011141314	0.114942884	0.035426513
2019-11-06T11:55:00	0.2316	7.390	161.8	0.573924664	0.702387797	0.011217744	0.115731397	0.035669541
2019-11-06T12:00:00	0.2299	7.405	161.9	0.568309683	0.694295753	0.011016066	0.113650720	0.035028256
2019-11-06T12:05:00	0.2300	7.417	162.0	0.568414058	0.694445936	0.011019798	0.113689222	0.035040122
2019-11-06T12:10:00	0.2300	7.426	162.0	0.568518430	0.694596123	0.011023530	0.113727729	0.035051991
2019-11-06T12:15:00	0.2297	7.434	162.1	0.567612649	0.693293041	0.010991160	0.113393771	0.034949061
2019-11-06T12:20:00	0.2294	7.442	162.1	0.566369765	0.691506095	0.010946821	0.112936337	0.034808076
2019-11-06T12:25:00	0.2303	7.449	162.1	0.569504758	0.696015855	0.011058834	0.114091954	0.035164248
2019-11-06T12:30:00	0.2295	7.456	162.2	0.566915477	0.692290530	0.010966278	0.113137066	0.034869943
2019-11-06T12:35:00	0.2310	7.467	162.3	0.571732229	0.699225061	0.011138774	0.114916683	0.035418438
2019-11-06T12:40:00	0.2299	7.482	162.3	0.568134598	0.694043849	0.011009807	0.113586150	0.035008355
2019-11-06T12:45:00	0.2297	7.501	162.4	0.567565504	0.693225235	0.010989476	0.113376402	0.034943708
2019-11-06T12:50:00	0.2270	7.520	162.5	0.558565532	0.680314744	0.010670496	0.110085542	0.033929433
2019-11-06T12:55:00	0.2277	7.536	162.5	0.560695386	0.683363996	0.010745552	0.110859877	0.034168091
2019-11-06T13:00:00	0.2276	7.548	162.6	0.560462549	0.683030469	0.010737334	0.110775092	0.034141959
2019-11-06T13:05:00	0.2268	7.557	162.6	0.557866549	0.679314844	0.010645922	0.109832018	0.033851295
2019-11-06T13:10:00	0.2265	7.563	162.7	0.556620187	0.677532912	0.010602176	0.109380695	0.033712192
2019-11-06T13:15:00	0.2270	7.566	162.7	0.558413592	0.680097360	0.010665152	0.110030408	0.033912440
2019-11-06T13:20:00	0.2273	7.566	162.7	0.559531049	0.681696585	0.010704488	0.110436226	0.034037517
2019-11-06T13:25:00	0.2272	7.567	162.7	0.558960550	0.680879998	0.010684396	0.110228947	0.033973632
2019-11-06T13:30:00	0.2289	7.565	162.6	0.564799534	0.689250331	0.010890935	0.112359772	0.034630373
2019-11-06T13:35:00	0.2292	7.565	162.6	0.565914947	0.690852502	0.010930619	0.112769180	0.034756557
2019-11-06T13:40:00	0.2293	7.569	162.6	0.566019394	0.691002581	0.010934339	0.112807556	0.034768384
2019-11-06T13:45:00	0.2285	7.575	162.7	0.563427527	0.687280998	0.010842223	0.111857220	0.034475482
2019-11-06T13:50:00	0.2274	7.583	162.7	0.559821328	0.682112181	0.010714718	0.110541769	0.034070047
2019-11-06T13:55:00	0.2283	7.597	162.8	0.562962204	0.686613441	0.010825728	0.111687038	0.034423030
2019-11-06T14:00:00	0.2280	7.604	162.8	0.561717663	0.684828889	0.010781672	0.111232519	0.034282943
2019-11-06T14:05:00	0.2281	7.601	162.8	0.562159543	0.685462356	0.010797304	0.111393790	0.034332648
2019-11-06T14:10:00	0.2296	7.601	162.8	0.567319660	0.692871683	0.010980700	0.113285853	0.034915800
2019-11-06T14:15:00	0.2305	7.607	162.8	0.570117294	0.696897951	0.011080788	0.114318445	0.035234055
2019-11-06T14:20:00	0.2301	7.610	162.8	0.568875300	0.695109714	0.011036297	0.113859443	0.035092586
2019-11-06T14:25:00	0.2286	7.612	162.8	0.563926505	0.687997034	0.010859926	0.112039858	0.034531772
2019-11-06T14:30:00	0.2284	7.615	162.8	0.563019532	0.686695675	0.010827759	0.111707997	0.034429490
2019-11-06T14:35:00	0.2290	7.613	162.8	0.565146669	0.689748843	0.010903278	0.112487105	0.034669618
2019-11-06T14:40:00	0.2276	7.606	162.8	0.560530047	0.683127152	0.010739716	0.110799668	0.034149534
2019-11-06T14:45:00	0.2301	7.608	162.9	0.568723809	0.694891682	0.011030877	0.113803521	0.035075350
2019-11-06T14:50:00	0.2294	7.610	162.9	0.566470841	0.691651367	0.010950424	0.112973502	0.034819531
2019-11-06T14:55:00	0.2294	7.613	162.9	0.566575271	0.691801471	0.010954146	0.113011907	0.034831367
2019-11-06T15:00:00	0.2292	7.613	162.9	0.565668987	0.690499118	0.010921862	0.112678836	0.034728712
2019-11-06T15:05:00	0.2294	7.611	162.9	0.566447261	0.691617475	0.010949583	0.112964831	0.034816858
2019-11-06T15:10:00	0.2316	7.610	162.9	0.573954933	0.702431490	0.011218836	0.115742666	0.035673014
2019-11-06T15:15:00	0.2297	7.605	162.9	0.567666545	0.693370558	0.010993085	0.113413628	0.034955182
2019-11-06T15:20:00	0.2274	7.600	162.9	0.559679575	0.681909222	0.010709722	0.110490222	0.034054160
2019-11-06T15:25:00	0.2279	7.595	162.9	0.561471407	0.684475932	0.010772965	0.111142695	0.034255258
2019-11-06T15:30:00	0.2281	7.590	162.8	0.562250617	0.685592937	0.010800527	0.111427044	0.034342897
2019-11-06T15:35:00	0.2277	7.580	162.8	0.560668403	0.683325342	0.010744599	0.110850050	0.034165062
2019-11-06T15:40:00	0.2288	7.566	162.8	0.564482715	0.688795442	0.010879677	0.112243623	0.034594575
2019-11-06T15:45:00	0.2292	7.550	162.7	0.565935172	0.690881563	0.010931339	0.112776611	0.034758847
2019-11-06T15:50:00	0.2283	7.532	162.6	0.562668824	0.686192647	0.010815334	0.111579807	0.034389980
2019-11-06T15:55:00	0.2281	7.511	162.5	0.562098839	0.685375322	0.010795155	0.111371628	0.034325817
2019-11-06T16:00:00	0.2276	7.487	162.4	0.560516556	0.683107826	0.010739240	0.110794755	0.034148020
2019-11-06T16:05:00	0.2290	7.462	162.3	0.565240681	0.689883868	0.010906621	0.112521603	0.034680251
2019-11-06T16:10:00	0.2289	7.437	162.2	0.564906686	0.689404199	0.010894744	0.112399069	0.034642485
2019-11-06T16:15:00	0.2292	7.417	162.1	0.565920633	0.690860672	0.010930821	0.112771269	0.034757200
2019-11-06T16:20:00	0.2309	7.397	162.0	0.571646736	0.699101811	0.011135701	0.114884973	0.035408664
2019-11-06T16:25:00	0.2293	7.378	161.9	0.566263574	0.691353478	0.010943037	0.112897298	0.034796044
2019-11-06T16:30:00	0.2295	7.355	161.8	0.566940313	0.692326237	0.010967164	0.113146206	0.034872759
2019-11-06T16:35:00	0.2296	7.331	161.7	0.567280140	0.692814854	0.010979289	0.113271301	0.034911315
2019-11-06T16:40:00	0.2310	7.307	161.6	0.571995135	0.699604110	0.011148229	0.115014224	0.035448501
2019-11-06T16:45:00	0.2315	7.282	161.5	0.573679456	0.702033872	0.011208898	0.115640132	0.035641412
2019-11-06T16:50:00	0.2319	7.258	161.4	0.575026932	0.703979399	0.011257554	0.116142112	0.035796127
2019-11-06T16:55:00	0.2315	7.233	161.3	0.573685473	0.702042555	0.011209115	0.115642370	0.035642102
2019-11-06T17:00:00	0.2327	7.208	161.2	0.577720332	0.707872720	0.011355134	0.117148821	0.036106404
2019-11-06T17:05:00	0.2337	7.185	161.0	0.581079673	0.712737096	0.011477443	0.118410659	0.036495315
2019-11-06T17:10:00	0.2342	7.163	161.0	0.582759639	0.715173227	0.011538859	0.119044281	0.036690604
2019-11-06T17:15:00	0.2351	7.147	160.9	0.585779159	0.719557750	0.011649669	0.120187484	0.037042950
2019-11-06T17:20:00	0.2344	7.134	160.8	0.583436201	0.716154975	0.011563640	0.119299944	0.036769401
2019-11-06T17:25:00	0.2362	7.124	160.8	0.589468497	0.724925185	0.011785795	0.121591878	0.037475798
2019-11-06T17:30:00	0.2357	7.116	160.7	0.587797724	0.722493056	0.011724048	0.120954841	0.037279457
2019-11-06T17:35:00	0.2359	7.109	160.7	0.588470322	0.723471871	0.011748885	0.121211085	0.037358434
2019-11-06T17:40:00	0.2360	7.102	160.7	0.588808071	0.723963530	0.011761368	0.121339864	0.037398125
2019-11-06T17:45:00	0.2355	7.095	160.6	0.587136984	0.721531864	0.011699675	0.120703386	0.037201956
2019-11-06T17:50:00	0.2336	7.089	160.7	0.580771202	0.712290035	0.011466184	0.118294503	0.036459515
2019-11-06T17:55:00	0.2364	7.083	160.6	0.590155747	0.725926282	0.011811243	0.121854412	0.037556713
2019-11-06T18:00:00	0.2358	7.077	160.6	0.588150516	0.723006418	0.011737072	0.121089212	0.037320871
2019-11-06T18:05:00	0.2343	7.071	160.6	0.583127936	0.715707610	0.011552346	0.119183421	0.036733488
2019-11-06T18:10:00	0.2374	7.066	160.5	0.593509224	0.730816849	0.011935818	0.123139630	0.037952830
2019-11-06T18:15:00	0.2358	7.063	160.6	0.588159503	0.723019497	0.011737404	0.121092636	0.037321926
2019-11-06T18:20:00	0.2381	7.059	160.5	0.595854464	0.734242622	0.012023337	0.124042555	0.038231120
2019-11-06T18:25:00	0.2380	7.056	160.5	0.595189252	0.733270458	0.011998480	0.123786102	0.038152079
2019-11-06T18:30:00	0.2377	7.050	160.5	0.594189705	0.731810378	0.011961178	0.123401269	0.038033469
2019-11-06T18:35:00	0.2373	7.043	160.5	0.592855537	0.729862805	0.011911482	0.122888562	0.037875448
2019-11-06T18:40:00	0.2362	7.037	160.4	0.589178730	0.724503207	0.011775074	0.121481272	0.037441708
2019-11-06T18:45:00	0.2368	7.031	160.4	0.591189362	0.727432663	0.011849568	0.122249807	0.037678578
2019-11-06T18:50:00	0.2369	7.027	160.4	0.591526850	0.727924708	0.011862095	0.122379051	0.037718412
2019-11-06T18:55:00	0.2351	7.024	160.3	0.585504078	0.719158001	0.011639551	0.120083106	0.037010779
2019-11-06T19:00:00	0.2365	7.021	160.4	0.590194669	0.725982990	0.011812685	0.121869289	0.037561299
2019-11-06T19:05:00	0.2366	7.018	160.4	0.590532252	0.726474894	0.011825196	0.121998363	0.037601080
2019-11-06T19:10:00	0.2383	7.016	160.3	0.596218406	0.734774656	0.012036948	0.124182977	0.038274400
2019-11-06T19:15:00	0.2364	7.013	160.3	0.589869030	0.725508582	0.011800623	0.121744849	0.037522945
2019-11-06T19:20:00	0.2372	7.012	160.3	0.592548096	0.729414223	0.011900045	0.122770572	0.037839082
2019-11-06T19:25:00	0.2355	7.009	160.3	0.586862009	0.721131960	0.011689539	0.120598818	0.037169727
2019-11-06T19:30:00	0.2372	7.006	160.3	0.592554080	0.729422954	0.011900268	0.122772868	0.037839790
2019-11-06T19:35:00	0.2375	7.005	160.3	0.593560073	0.730891078	0.011937712	0.123159172	0.037958853
2019-11-06T19:40:00	0.2359	7.003	160.3	0.588210430	0.723093611	0.011739285	0.121112039	0.037327907
2019-11-06T19:45:00	0.2373	7.001	160.3	0.592897421	0.729923923	0.011913040	0.122904641	0.037880404
2019-11-06T19:50:00	0.2383	7.000	160.3	0.596242317	0.734809614	0.012037843	0.124192205	0.038277244
2019-11-06T19:55:00	0.2377	6.999	160.2	0.594240545	0.731884622	0.011963074	0.123420828	0.038039498
2019-11-06T20:00:00	0.2396	6.997	160.2	0.600588042	0.741171118	0.012200986	0.125875320	0.038795996
2019-11-06T20:05:00	0.2396	6.996	160.2	0.600591027	0.741175493	0.012201098	0.125876480	0.038796354
2019-11-06T20:10:00	0.2404	6.995	160.2	0.603261978	0.745093218	0.012301929	0.126916735	0.039116970
2019-11-06T20:15:00	0.2394	6.997	160.2	0.599929692	0.740206376	0.012176198	0.125619590	0.038717178
2019-11-06T20:20:00	0.2404	6.998	160.2	0.603267943	0.745101976	0.012302155	0.126919064	0.039117688
2019-11-06T20:25:00	0.2404	6.998	160.2	0.603270926	0.745106354	0.012302268	0.126920228	0.039118047
2019-11-06T20:30:00	0.2410	6.999	160.2	0.605273558	0.748047730	0.012378150	0.127703095	0.039359334
2019-11-06T20:35:00	0.2415	7.000	160.2	0.606942051	0.750500904	0.012441555	0.128357234	0.039560946
2019-11-06T20:40:00	0.2405	7.000	160.2	0.603613228	0.745608873	0.012315221	0.127053864	0.039159235
2019-11-06T20:45:00	0.2406	6.999	160.2	0.603949531	0.746102682	0.012327954	0.127185230	0.039199723
2019-11-06T20:50:00	0.2409	6.998	160.2	0.604952288	0.747575636	0.012365961	0.127577337	0.039320574
2019-11-06T20:55:00	0.2393	6.995	160.2	0.599619881	0.739752505	0.012164542	0.125499339	0.038680115
2019-11-06T21:00:00	0.2411	6.994	160.2	0.605624609	0.748563684	0.012391477	0.127840583	0.039401709
2019-11-06T21:05:00	0.2402	6.995	160.2	0.602627993	0.744162755	0.012277957	0.126669418	0.039040745
2019-11-06T21:10:00	0.2402	6.996	160.2	0.602630976	0.744167133	0.012278070	0.126670582	0.039041103
2019-11-06T21:15:00	0.2404	6.996	160.2	0.603300755	0.745150141	0.012303396	0.126931870	0.039121635
2019-11-06T21:20:00	0.2410	6.999	160.2	0.605303371	0.748091542	0.012379282	0.127714768	0.039362932
2019-11-06T21:25:00	0.2383	7.001	160.2	0.596299105	0.734892642	0.012039967	0.124214124	0.038283999
2019-11-06T21:30:00	0.2395	7.001	160.2	0.600308142	0.740760910	0.012190444	0.125766563	0.038762476
2019-11-06T21:35:00	0.2383	7.002	160.3	0.596305082	0.734901381	0.012040191	0.124216432	0.038284711
2019-11-06T21:40:00	0.2384	7.002	160.2	0.596642081	0.735394152	0.012052803	0.124346549	0.038324814
2019-11-06T21:45:00	0.2379	7.002	160.2	0.594974704	0.732956988	0.011990468	0.123703447	0.038126604
2019-11-06T21:50:00	0.2378	7.001	160.2	0.594643526	0.732473190	0.011978107	0.123575917	0.038087298
2019-11-06T21:55:00	0.2379	7.001	160.2	0.594980683	0.732965724	0.011990691	0.123705751	0.038127314
2019-11-06T22:00:00	0.2380	7.000	160.2	0.595317809	0.733458306	0.012003281	0.123835642	0.038167348
2019-11-06T22:05:00	0.2382	7.000	160.3	0.596175162	0.734711433	0.012035331	0.124166287	0.038269256
2019-11-06T22:10:00	0.2391	6.999	160.3	0.599035484	0.738896589	0.012142571	0.125272672	0.038610254
2019-11-06T22:15:00	0.2385	7.000	160.3	0.596887471	0.735753028	0.012061991	0.124441340	0.038354030
2019-11-06T22:20:00	0.2386	7.001	160.3	0.597410537	0.736518166	0.012081588	0.124643517	0.038416342
2019-11-06T22:25:00	0.2378	7.002	160.2	0.594593222	0.732399712	0.011976229	0.123556552	0.038081329
2019-11-06T22:30:00	0.2375	7.003	160.3	0.593779819	0.731211883	0.011945899	0.123243638	0.037984886
2019-11-06T22:35:00	0.2386	7.003	160.3	0.597310007	0.736371094	0.012077820	0.124604647	0.038404362
2019-11-06T22:40:00	0.2399	7.004	160.3	0.601837326	0.743002810	0.012248094	0.126361328	0.038945788
2019-11-06T22:45:00	0.2397	7.006	160.3	0.601025589	0.741812498	0.012217474	0.126045429	0.038848425
2019-11-06T22:50:00	0.2383	7.007	160.3	0.596207510	0.734758726	0.012036541	0.124178772	0.038273103
2019-11-06T22:55:00	0.2392	7.008	160.4	0.599401556	0.739432710	0.012156332	0.125414634	0.038654008
2019-11-06T23:00:00	0.2401	7.010	160.4	0.602259271	0.743621758	0.012264026	0.126525695	0.038996448
2019-11-06T23:05:00	0.2388	7.011	160.3	0.598110648	0.737542643	0.012107844	0.124914390	0.038499828
2019-11-06T23:10:00	0.2375	7.013	160.4	0.593622886	0.730982774	0.011940052	0.123183313	0.037966293
2019-11-06T23:15:00	0.2386	7.014	160.4	0.597487161	0.736630271	0.012084460	0.124673148	0.038425475
2019-11-06T23:20:00	0.2367	7.011	160.3	0.590991999	0.727144960	0.011842245	0.122174258	0.037655293
2019-11-06T23:25:00	0.2377	7.008	160.4	0.594190765	0.731811926	0.011961218	0.123401677	0.038033595
2019-11-06T23:30:00	0.2375	7.006	160.3	0.593711557	0.731112223	0.011943355	0.123217396	0.037976798
2019-11-06T23:35:00	0.2365	7.006	160.4	0.590222145	0.726023023	0.011813703	0.121879792	0.037564536
2019-11-06T23:40:00	0.2375	7.002	160.3	0.593755892	0.731176949	0.011945007	0.123234439	0.037982051
2019-11-06T23:45:00	0.2380	6.998	160.3	0.595281933	0.733405883	0.012001941	0.123821816	0.038163086
2019-11-06T23:50:00	0.2384	6.991	160.3	0.596807316	0.735635797	0.012058990	0.124410373	0.038344485
2019-11-06T23:55:00	0.2390	6.983	160.2	0.598665859	0.738355377	0.012128686	0.125129415	0.038566101
2019-11-07T00:00:00	0.2387	6.974	160.2	0.597853393	0.737166153	0.012098193	0.124814823	0.038469141
2019-11-07T00:05:00	0.2365	6.963	160.1	0.590355278	0.726217009	0.011818636	0.121930689	0.037580223
2019-11-07T00:10:00	0.2354	6.950	160.1	0.586527602	0.720645706	0.011677219	0.120471713	0.037130552
2019-11-07T00:15:00	0.2366	6.934	160.0	0.590734225	0.726769241	0.011832684	0.122075620	0.037624892
2019-11-07T00:20:00	0.2387	6.917	159.9	0.597608071	0.736807177	0.012088993	0.124719912	0.038439888
2019-11-07T00:25:00	0.2389	6.900	159.8	0.598464868	0.738061130	0.012121139	0.125051552	0.038542103
2019-11-07T00:30:00	0.2374	6.885	159.7	0.593308999	0.730524587	0.011928361	0.123062700	0.037929119
2019-11-07T00:35:00	0.2371	6.869	159.6	0.592495301	0.729337198	0.011898082	0.122750315	0.037832839
2019-11-07T00:40:00	0.2394	6.853	159.5	0.600033133	0.740357934	0.012180091	0.125659753	0.038729556
2019-11-07T00:45:00	0.2370	6.838	159.5	0.591870821	0.728426302	0.011874870	0.122510849	0.037759034
2019-11-07T00:50:00	0.2376	6.824	170.1	0.594066218	0.731630054	0.011956574	0.123353768	0.038018829
2019-11-07T00:55:00	0.2379	6.813	159.4	0.594923875	0.732882729	0.011988570	0.123683870	0.038120570
2019-11-07T01:00:00	0.2375	6.802	159.3	0.593776298	0.731206742	0.011945768	0.123242284	0.037984469
2019-11-07T01:05:00	0.2394	6.792	159.3	0.599976935	0.740275593	0.012177976	0.125637932	0.038722831
2019-11-07T01:10:00	0.2365	6.781	159.2	0.590476432	0.726393551	0.011823126	0.121977016	0.037594501
2019-11-07T01:15:00	0.2400	6.771	159.2	0.602022677	0.743274681	0.012255091	0.126433517	0.038968038
2019-11-07T01:20:00	0.2395	6.760	159.1	0.600210151	0.740617315	0.012186754	0.125728499	0.038750744
2019-11-07T01:25:00	0.2406	6.750	159.0	0.604067238	0.746275538	0.012332412	0.127231224	0.039213899
2019-11-07T01:30:00	0.2395	6.741	169.6	0.600254404	0.740682162	0.012188421	0.125745688	0.038756042
2019-11-07T01:35:00	0.2391	6.731	159.0	0.599108558	0.739003598	0.012145318	0.125301003	0.038618986
2019-11-07T01:40:00	0.2385	6.721	158.9	0.596960589	0.735859971	0.012064730	0.124469592	0.038362737
2019-11-07T01:45:00	0.2381	6.709	169.5	0.595813675	0.734183000	0.012021812	0.124026822	0.038226271
2019-11-07T01:50:00	0.2371	6.694	169.4	0.592326342	0.729090715	0.011891799	0.122685502	0.037812863
2019-11-07T01:55:00	0.2386	6.678	169.3	0.597194005	0.736201396	0.012073474	0.124559802	0.038390541
2019-11-07T02:00:00	0.2392	6.659	158.6	0.599386096	0.739410066	0.012155750	0.125408637	0.038652160
2019-11-07T02:05:00	0.2381	6.643	169.2	0.595568210	0.733824235	0.012012637	0.123932165	0.038197097
2019-11-07T02:10:00	0.2392	6.628	169.1	0.599430359	0.739474898	0.012157415	0.125425807	0.038657452
2019-11-07T02:15:00	0.2386	6.611	158.4	0.597282586	0.736330979	0.012076793	0.124594045	0.038401095
2019-11-07T02:20:00	0.2392	6.597	168.8	0.599474622	0.739539730	0.012159079	0.125442979	0.038662744
2019-11-07T02:25:00	0.2380	6.585	158.3	0.595322729	0.733465495	0.012003465	0.123837538	0.038167932
2019-11-07T02:30:00	0.2370	6.578	158.2	0.592169344	0.728861702	0.011885963	0.122625293	0.037794306
2019-11-07T02:35:00	0.2368	6.575	168.8	0.591355383	0.727674702	0.011855730	0.122313377	0.037698171
2019-11-07T02:40:00	0.2375	6.573	158.2	0.593551100	0.730877979	0.011937377	0.123155723	0.037957790
2019-11-07T02:45:00	0.2360	6.571	158.2	0.588722803	0.723839397	0.011758216	0.121307346	0.037388102
2019-11-07T02:50:00	0.2363	6.572	158.2	0.589581760	0.725090144	0.011789987	0.121635125	0.037489127
2019-11-07T02:55:00	0.2377	6.569	158.2	0.594453207	0.732195206	0.011971006	0.123502660	0.038064719
2019-11-07T03:00:00	0.2394	6.568	158.2	0.599985363	0.740287941	0.012178293	0.125641204	0.038723839
2019-11-07T03:05:00	0.2373	6.570	158.2	0.593160490	0.730307834	0.011922832	0.123005656	0.037911538
2019-11-07T03:10:00	0.2379	6.569	158.2	0.595020953	0.733024557	0.011992195	0.123721262	0.038132095
2019-11-07T03:15:00	0.2391	6.568	158.2	0.598883699	0.738674329	0.012136868	0.125213834	0.038592120
2019-11-07T03:20:00	0.2367	6.567	158.2	0.591053267	0.727234268	0.011844518	0.122197709	0.037662521
2019-11-07T03:25:00	0.2379	6.567	158.1	0.594920355	0.732877586	0.011988439	0.123682514	0.038120152
2019-11-07T03:30:00	0.2375	6.566	158.1	0.593772777	0.731201602	0.011945637	0.123240930	0.037984052
2019-11-07T03:35:00	0.2371	6.564	158.2	0.592290436	0.729038336	0.011890465	0.122671730	0.037808619
2019-11-07T03:40:00	0.2366	6.561	158.1	0.590807471	0.726875995	0.011835400	0.122103644	0.037633529
2019-11-07T03:45:00	0.2375	6.556	158.1	0.593672144	0.731054684	0.011941887	0.123202246	0.037972129
2019-11-07T03:50:00	0.2374	6.552	158.1	0.593192866	0.730355085	0.011924037	0.123018091	0.037915370
2019-11-07T03:55:00	0.2379	6.548	158.0	0.595053311	0.733071834	0.011993403	0.123733728	0.038135937
2019-11-07T04:00:00	0.2370	6.544	158.0	0.591899686	0.728468398	0.011875943	0.122521913	0.037762443
2019-11-07T04:05:00	0.2379	6.541	158.0	0.595097629	0.733136585	0.011995058	0.123750801	0.038141199
2019-11-07T04:10:00	0.2377	6.538	158.0	0.594284342	0.731948584	0.011964707	0.123437679	0.038044691
2019-11-07T04:15:00	0.2366	6.536	158.0	0.590795497	0.726858543	0.011834956	0.122099062	0.037632117
2019-11-07T04:20:00	0.2346	6.533	158.0	0.583952800	0.716904861	0.011582581	0.119495349	0.036829627
2019-11-07T04:25:00	0.2359	6.531	158.0	0.588497281	0.723511112	0.011749882	0.121221362	0.037361601
2019-11-07T04:30:00	0.2352	6.532	158.0	0.586007852	0.719890134	0.011658083	0.120274296	0.037069706
2019-11-07T04:35:00	0.2354	6.532	158.0	0.586532534	0.720652877	0.011677400	0.120473587	0.037131130
2019-11-07T04:40:00	0.2354	6.534	158.0	0.586722218	0.720928682	0.011684388	0.120545677	0.037153348
2019-11-07T04:45:00	0.2355	6.537	158.0	0.586911892	0.721204502	0.011691377	0.120617785	0.037175573
2019-11-07T04:50:00	0.2361	6.537	158.0	0.589110379	0.724403679	0.011772546	0.121455189	0.037433669
2019-11-07T04:55:00	0.2349	6.538	158.0	0.584946260	0.718347573	0.011619049	0.119871587	0.036945587
2019-11-07T05:00:00	0.2363	6.540	158.0	0.589824116	0.725443156	0.011798960	0.121727691	0.037517657
2019-11-07T05:05:00	0.2359	6.542	158.0	0.588340113	0.723282351	0.011744075	0.121161457	0.037343138
2019-11-07T05:10:00	0.2373	6.543	158.0	0.592878941	0.729896956	0.011912353	0.122897547	0.037878217
2019-11-07T05:15:00	0.2388	6.544	158.0	0.598079717	0.737497372	0.012106683	0.124902416	0.038496138
2019-11-07T05:20:00	0.2393	6.542	158.0	0.599603892	0.739729084	0.012163941	0.125493135	0.038678203
2019-11-07T05:25:00	0.2390	6.541	158.0	0.598791642	0.738539539	0.012133410	0.125178156	0.038581123
2019-11-07T05:30:00	0.2386	6.537	158.0	0.597311407	0.736373141	0.012077873	0.124605188	0.038404529
2019-11-07T05:35:00	0.2388	6.532	157.9	0.598168276	0.737626988	0.012110006	0.124936699	0.038506704
2019-11-07T05:40:00	0.2405	6.528	157.9	0.603694626	0.745728385	0.012318302	0.127085653	0.039169033
2019-11-07T05:45:00	0.2392	6.523	157.7	0.599213951	0.739157944	0.012149279	0.125341870	0.038631582
2019-11-07T05:50:00	0.2404	6.520	157.9	0.603405495	0.745303897	0.012307359	0.126972756	0.039134236
2019-11-07T05:55:00	0.2378	6.515	157.9	0.594582661	0.732384286	0.011975835	0.123552487	0.038080076
2019-11-07T06:00:00	0.2389	6.509	157.8	0.598445887	0.738033345	0.012120426	0.125044200	0.038539837
2019-11-07T06:05:00	0.2400	6.502	157.8	0.601971420	0.743199495	0.012253156	0.126413552	0.038961884
2019-11-07T06:10:00	0.2396	6.496	157.8	0.600826130	0.741520101	0.012209956	0.125967869	0.038824521
2019-11-07T06:15:00	0.2405	6.488	157.7	0.603682696	0.745710868	0.012317851	0.127080994	0.039167597
2019-11-07T06:20:00	0.2410	6.481	157.7	0.605204461	0.747946187	0.012375528	0.127676042	0.039350996
2019-11-07T06:25:00	0.2413	6.474	157.7	0.606392513	0.749692664	0.012420654	0.128141595	0.039494484
2019-11-07T06:30:00	0.2414	6.467	157.6	0.606581134	0.749970052	0.012427826	0.128215589	0.039517290
2019-11-07T06:35:00	0.2418	6.461	157.6	0.608101656	0.752207238	0.012485720	0.128812876	0.039701379
2019-11-07T06:40:00	0.2435	6.457	157.6	0.613612555	0.760331844	0.012696713	0.130989650	0.040372282
2019-11-07T06:45:00	0.2438	6.453	157.5	0.614797797	0.762082557	0.012742330	0.131460275	0.040517333
2019-11-07T06:50:00	0.2434	6.450	157.5	0.613324231	0.759906140	0.012685629	0.130875297	0.040337038
2019-11-07T06:55:00	0.2434	6.447	157.5	0.613512484	0.760184083	0.012692866	0.130949955	0.040360048
2019-11-07T07:00:00	0.2424	6.443	157.5	0.610042546	0.755065743	0.012559822	0.129577370	0.039937004
2019-11-07T07:05:00	0.2420	6.440	157.5	0.608567005	0.752892307	0.012503467	0.128995959	0.039757807
2019-11-07T07:10:00	0.2427	6.441	157.5	0.611084723	0.756601946	0.012599705	0.129988835	0.040063821
2019-11-07T07:15:00	0.2436	6.449	157.5	0.613933042	0.760805117	0.012709040	0.131116820	0.040411477
2019-11-07T07:20:00	0.2437	6.453	157.5	0.614453599	0.761574023	0.012729074	0.131323514	0.040475182
2019-11-07T07:25:00	0.2428	6.451	157.5	0.611317210	0.756944764	0.012608611	0.130080715	0.040092140
2019-11-07T07:30:00	0.2441	6.449	157.5	0.615826692	0.763603289	0.012781999	0.131869525	0.040643468
2019-11-07T07:35:00	0.2428	6.447	157.4	0.611361325	0.757009819	0.012610301	0.130098153	0.040097514
2019-11-07T07:40:00	0.2433	6.445	157.4	0.612879801	0.759250089	0.012668554	0.130699132	0.040282742
2019-11-07T07:45:00	0.2421	6.444	157.4	0.609076437	0.753642481	0.012522909	0.129196539	0.039819628
2019-11-07T07:50:00	0.2418	6.444	157.4	0.607933441	0.751959643	0.012479309	0.128746728	0.039680992
2019-11-07T07:55:00	0.2420	6.446	157.4	0.608787744	0.753217334	0.012511889	0.129082852	0.039784589
2019-11-07T08:00:00	0.2409	6.449	157.5	0.604979989	0.747616339	0.012367012	0.127588178	0.039323916
2019-11-07T08:05:00	0.2420	6.453	157.5	0.608831890	0.753282342	0.012513574	0.129100233	0.039789946
2019-11-07T08:10:00	0.2392	6.458	157.5	0.599355175	0.739364778	0.012154588	0.125396643	0.038648463
2019-11-07T08:15:00	0.2406	6.465	157.5	0.603879880	0.746000402	0.012325316	0.127158017	0.039191336
2019-11-07T08:20:00	0.2406	6.473	157.6	0.604068634	0.746277589	0.012332465	0.127231770	0.039214067
2019-11-07T08:25:00	0.2407	6.483	157.6	0.604257379	0.746554792	0.012339616	0.127305541	0.039236804
2019-11-07T08:30:00	0.2392	6.495	157.6	0.599443702	0.739494442	0.012157917	0.125430983	0.038659047
2019-11-07T08:35:00	0.2423	6.507	157.7	0.609629931	0.754457787	0.012544050	0.129414651	0.039886852
2019-11-07T08:40:00	0.2408	6.523	157.8	0.604823553	0.747386489	0.012361078	0.127526963	0.039305049
2019-11-07T08:45:00	0.2409	6.541	157.9	0.605012257	0.747663752	0.012368236	0.127600807	0.039327808
2019-11-07T08:50:00	0.2417	6.561	157.9	0.607532498	0.751369593	0.012464033	0.128589134	0.039632420
2019-11-07T08:55:00	0.2437	6.583	158.0	0.614373840	0.761456197	0.012726004	0.131291834	0.040465418
2019-11-07T09:00:00	0.2429	6.607	158.1	0.611569986	0.757317551	0.012618298	0.130180652	0.040122941
2019-11-07T09:05:00	0.2413	6.635	158.2	0.606433181	0.749752467	0.012422200	0.128157547	0.039499401
2019-11-07T09:10:00	0.2420	6.665	158.4	0.608619561	0.752969690	0.012505472	0.129016645	0.039764183
2019-11-07T09:15:00	0.2419	6.700	158.5	0.608475199	0.752757140	0.012499964	0.128959829	0.039746672
2019-11-07T09:20:00	0.2423	6.741	169.3	0.609662157	0.754505264	0.012545281	0.129427356	0.039890768
2019-11-07T09:25:00	0.2423	6.786	169.5	0.609850604	0.754782913	0.012552484	0.129501663	0.039913670
2019-11-07T09:30:00	0.2412	6.835	169.8	0.606043991	0.749180201	0.012407407	0.128004932	0.039452363
2019-11-07T09:35:00	0.2417	6.890	159.4	0.607564743	0.751417041	0.012465261	0.128601804	0.039636325
2019-11-07T09:40:00	0.2431	6.946	159.7	0.612411514	0.758558999	0.012650574	0.130513642	0.040225572
2019-11-07T09:45:00	0.2442	7.000	159.9	0.615923199	0.763745974	0.012785723	0.131907945	0.040655310
2019-11-07T09:50:00	0.2421	7.045	160.1	0.609128985	0.753719875	0.012524915	0.129217239	0.039826008
2019-11-07T09:55:00	0.2424	7.076	160.2	0.609983001	0.754977999	0.012557545	0.129553882	0.039929764
2019-11-07T10:00:00	0.2421	7.105	160.4	0.609173127	0.753784889	0.012526600	0.129234628	0.039831367
2019-11-07T10:05:00	0.2405	7.131	160.5	0.603850056	0.745956608	0.012324187	0.127146366	0.039187745
2019-11-07T10:10:00	0.2397	7.160	160.6	0.601188503	0.742051347	0.012223616	0.126108796	0.038867956
2019-11-07T10:15:00	0.2382	7.187	160.8	0.596187458	0.734729410	0.012035791	0.124171033	0.038270718
2019-11-07T10:20:00	0.2377	7.205	160.8	0.594188645	0.731808831	0.011961139	0.123400861	0.038033344
2019-11-07T10:25:00	0.2384	7.210	160.9	0.596533434	0.735235274	0.012048736	0.124304592	0.038311883
2019-11-07T10:30:00	0.2387	7.205	160.9	0.597541282	0.736709454	0.012086489	0.124694079	0.038431926
2019-11-07T10:35:00	0.2365	7.201	160.9	0.590193607	0.725981444	0.011812645	0.121868884	0.037561174
2019-11-07T10:40:00	0.2386	7.202	160.9	0.597219309	0.736238411	0.012074422	0.124569583	0.038393555
2019-11-07T10:45:00	0.2363	7.206	160.8	0.589536311	0.725023950	0.011788305	0.121617771	0.037483778
2019-11-07T10:50:00	0.2364	7.214	160.9	0.589876952	0.725520122	0.011800916	0.121747876	0.037523878
2019-11-07T10:55:00	0.2363	7.224	160.9	0.589548289	0.725041395	0.011788748	0.121622344	0.037485188
2019-11-07T11:00:00	0.2356	7.232	161.0	0.587210836	0.721639280	0.011702398	0.120731478	0.037210614
2019-11-07T11:05:00	0.2349	7.240	161.0	0.584871829	0.718239456	0.011616315	0.119843378	0.036936893
2019-11-07T11:10:00	0.2347	7.249	161.1	0.584207541	0.717274720	0.011591926	0.119591765	0.036859343
2019-11-07T11:15:00	0.2364	7.263	161.2	0.589906894	0.725563740	0.011802025	0.121759315	0.037527403
2019-11-07T11:20:00	0.2368	7.280	161.2	0.591251157	0.727522750	0.011851861	0.122273467	0.037685870
2019-11-07T11:25:00	0.2378	7.299	161.3	0.594600603	0.732410493	0.011976505	0.123559393	0.038082205
2019-11-07T11:30:00	0.2374	7.313	161.4	0.593269582	0.730467054	0.011926893	0.123047558	0.037924452
2019-11-07T11:35:00	0.2359	7.327	161.4	0.588257298	0.723161822	0.011741016	0.121129898	0.037333411
2019-11-07T11:40:00	0.2357	7.341	161.5	0.587593648	0.722196144	0.011716517	0.120877148	0.037255511
2019-11-07T11:45:00	0.2338	7.350	161.5	0.581231695	0.712957447	0.011482993	0.118467925	0.036512965
2019-11-07T11:50:00	0.2343	7.357	161.5	0.582914589	0.715398038	0.011544532	0.119102810	0.036708643
2019-11-07T11:55:00	0.2349	7.366	161.6	0.584931799	0.718326567	0.011618518	0.119866106	0.036943898
2019-11-07T12:00:00	0.2334	7.372	161.6	0.579907620	0.711038882	0.011434694	0.117969627	0.036359385
2019-11-07T12:05:00	0.2335	7.376	161.7	0.580249194	0.711533678	0.011447144	0.118098071	0.036398972
2019-11-07T12:10:00	0.2324	7.380	161.7	0.576562184	0.706197875	0.011313122	0.116715398	0.035972819
2019-11-07T12:15:00	0.2317	7.383	161.7	0.574216073	0.702808474	0.011228262	0.115839906	0.035702984
2019-11-07T12:20:00	0.2343	7.387	161.7	0.582950591	0.715450275	0.011545850	0.119116411	0.036712835
2019-11-07T12:25:00	0.2329	7.390	161.7	0.578259334	0.708652572	0.011374713	0.117350816	0.036168661
2019-11-07T12:30:00	0.2320	7.391	161.8	0.575242359	0.704290577	0.011265343	0.116222469	0.035820894
2019-11-07T12:35:00	0.2325	7.392	161.8	0.576928126	0.706726959	0.011326388	0.116852259	0.036015001
2019-11-07T12:40:00	0.2326	7.398	161.8	0.577269990	0.707221331	0.011338788	0.116980189	0.036054430
2019-11-07T12:45:00	0.2304	7.410	161.8	0.569879787	0.696555886	0.011072273	0.114230597	0.035206979
2019-11-07T12:50:00	0.2310	7.419	161.9	0.571904505	0.699473436	0.011144969	0.114980594	0.035438136
2019-11-07T12:55:00	0.2307	7.424	161.9	0.570901323	0.698027462	0.011108920	0.114608683	0.035323509
2019-11-07T13:00:00	0.2304	7.424	161.9	0.569897855	0.696581907	0.011072920	0.114237279	0.035209039
2019-11-07T13:05:00	0.2295	7.422	161.9	0.566873664	0.692230417	0.010964786	0.113121679	0.034865200
2019-11-07T13:10:00	0.2289	7.417	161.8	0.564858092	0.689334417	0.010893017	0.112381246	0.034636992
2019-11-07T13:15:00	0.2298	7.416	161.8	0.567896079	0.693700718	0.011001284	0.113498216	0.034981253
2019-11-07T13:20:00	0.2295	7.415	161.9	0.566891747	0.692256414	0.010965431	0.113128334	0.034867251
2019-11-07T13:25:00	0.2299	7.417	161.8	0.568244852	0.694202474	0.011013748	0.113626809	0.035020886
2019-11-07T13:30:00	0.2298	7.423	161.9	0.567914157	0.693726724	0.011001930	0.113504880	0.034983306
2019-11-07T13:35:00	0.2292	7.424	161.9	0.565899186	0.690829856	0.010930058	0.112763390	0.034754772
2019-11-07T13:40:00	0.2291	7.422	161.9	0.565568270	0.690354427	0.010918277	0.112641852	0.034717313
2019-11-07T13:45:00	0.2267	7.420	161.9	0.557477833	0.678758958	0.010632269	0.109691158	0.033807880
2019-11-07T13:50:00	0.2266	7.417	161.8	0.557146117	0.678284681	0.010620625	0.109571025	0.033770854
2019-11-07T13:55:00	0.2273	7.413	161.8	0.559515794	0.681674747	0.010703950	0.110430681	0.034035808
2019-11-07T14:00:00	0.2287	7.410	161.8	0.564244290	0.688453165	0.010871208	0.112156254	0.034567647
2019-11-07T14:05:00	0.2300	7.408	161.8	0.568629739	0.694756302	0.011027511	0.113768802	0.035064650
2019-11-07T14:10:00	0.2288	7.407	161.8	0.564593428	0.688954393	0.010883611	0.112284204	0.034607082
2019-11-07T14:15:00	0.2284	7.405	161.8	0.563250976	0.687027695	0.010835963	0.111792635	0.034455576
2019-11-07T14:20:00	0.2303	7.404	161.8	0.569657664	0.696236021	0.011064312	0.114148471	0.035181667
2019-11-07T14:25:00	0.2296	7.403	161.7	0.567306919	0.692853362	0.010980245	0.113281162	0.034914354
2019-11-07T14:30:00	0.2301	7.400	161.8	0.568996511	0.695284178	0.011040635	0.113904197	0.035106380
2019-11-07T14:35:00	0.2304	7.399	161.8	0.570012283	0.696746706	0.011077023	0.114279600	0.035222083
2019-11-07T14:40:00	0.2306	7.395	161.8	0.570691308	0.697724854	0.011101381	0.114530901	0.035299536
2019-11-07T14:45:00	0.2307	7.390	161.8	0.571033782	0.698218338	0.011113677	0.114657754	0.035338633
2019-11-07T14:50:00	0.2297	7.387	161.8	0.567673830	0.693381036	0.010993345	0.113416312	0.034956009
2019-11-07T14:55:00	0.2286	7.381	161.7	0.563973546	0.688064549	0.010861596	0.112057084	0.034537082
2019-11-07T15:00:00	0.2296	7.376	161.7	0.567012302	0.692429737	0.010969732	0.113172700	0.034880925
2019-11-07T15:05:00	0.2310	7.369	161.7	0.571730667	0.699222809	0.011138718	0.114916103	0.035418259
2019-11-07T15:10:00	0.2306	7.363	161.6	0.570390954	0.697292142	0.011090603	0.114419708	0.035265265
2019-11-07T15:15:00	0.2292	7.356	161.7	0.565682840	0.690519021	0.010922355	0.112683924	0.034730280
2019-11-07T15:20:00	0.2282	7.347	161.6	0.562317737	0.685689178	0.010802903	0.111451554	0.034350451
2019-11-07T15:25:00	0.2284	7.337	161.6	0.562998259	0.686665159	0.010827005	0.111700219	0.034427092
2019-11-07T15:30:00	0.2280	7.324	161.5	0.561655193	0.684739346	0.010779463	0.111209729	0.034275918
2019-11-07T15:35:00	0.2266	7.310	161.5	0.556935272	0.677983271	0.010613227	0.109494702	0.033747331
2019-11-07T15:40:00	0.2272	7.296	161.4	0.558967509	0.680889958	0.010684641	0.110231475	0.033974411
2019-11-07T15:45:00	0.2273	7.283	161.3	0.559311134	0.681381777	0.010696741	0.110356301	0.034012884
2019-11-07T15:50:00	0.2269	7.269	161.3	0.557966647	0.679458011	0.010649440	0.109868306	0.033862479
2019-11-07T15:55:00	0.2303	7.255	161.2	0.569435527	0.695916177	0.011056354	0.114066369	0.035156363
2019-11-07T16:00:00	0.2269	7.241	161.2	0.557978734	0.679475298	0.010649864	0.109872688	0.033863830
2019-11-07T16:05:00	0.2271	7.227	161.1	0.558758725	0.680591180	0.010677293	0.110155666	0.033951046
2019-11-07T16:10:00	0.2286	7.211	161.1	0.563923870	0.687993252	0.010859833	0.112038893	0.034531475
2019-11-07T16:15:00	0.2250	7.195	161.0	0.551532901	0.670272829	0.010424563	0.107548298	0.033147430
2019-11-07T16:20:00	0.2276	7.177	160.9	0.560422799	0.682973533	0.010735931	0.110760621	0.034137499
2019-11-07T16:25:00	0.2284	7.161	160.8	0.563225961	0.686991807	0.010835076	0.111783485	0.034452756
2019-11-07T16:30:00	0.2277	7.143	160.7	0.560632018	0.683273221	0.010743315	0.110836800	0.034160978
2019-11-07T16:35:00	0.2279	7.127	160.7	0.561411416	0.684389956	0.010770845	0.111120819	0.034248516
2019-11-07T16:40:00	0.2269	7.113	160.6	0.558140827	0.679707153	0.010655562	0.109931465	0.033881945
2019-11-07T16:45:00	0.2263	7.099	160.5	0.555881011	0.676476711	0.010576275	0.109113475	0.033629833
2019-11-07T16:50:00	0.2266	7.086	160.5	0.556999281	0.678074770	0.010615472	0.109517869	0.033754471
2019-11-07T16:55:00	0.2266	7.074	160.4	0.557103995	0.678224464	0.010619146	0.109555776	0.033766154
2019-11-07T17:00:00	0.2267	7.060	160.4	0.557546460	0.678857089	0.010634679	0.109716020	0.033815543
2019-11-07T17:05:00	0.2277	7.049	160.3	0.560689385	0.683355400	0.010745340	0.110857692	0.034167417
2019-11-07T17:10:00	0.2265	7.041	160.3	0.556742551	0.677707801	0.010606467	0.109424963	0.033725836
2019-11-07T17:15:00	0.2276	7.035	160.3	0.560561159	0.683171717	0.010740814	0.110810996	0.034153025
2019-11-07T17:20:00	0.2291	7.029	160.3	0.565386674	0.690093566	0.010911815	0.112575185	0.034696765
2019-11-07T17:25:00	0.2313	7.023	160.2	0.572896620	0.700904279	0.011180679	0.115349008	0.035551684
2019-11-07T17:30:00	0.2282	7.017	160.2	0.562561642	0.686038933	0.010811538	0.111540645	0.034377910
2019-11-07T17:35:00	0.2278	7.011	160.2	0.560979568	0.683771135	0.010755587	0.110963404	0.034199999
2019-11-07T17:40:00	0.2290	7.004	160.2	0.565130561	0.689725709	0.010902705	0.112481195	0.034667797
2019-11-07T17:45:00	0.2312	6.996	160.1	0.572641057	0.700535625	0.011171475	0.115254049	0.035522417
2019-11-07T17:50:00	0.2266	6.988	160.1	0.556904702	0.677939573	0.010612154	0.109483638	0.033743921
2019-11-07T17:55:00	0.2269	6.978	160.0	0.558022643	0.679538103	0.010651408	0.109888608	0.033868736
2019-11-07T18:00:00	0.2291	6.970	160.0	0.565548424	0.690325917	0.010917571	0.112634565	0.034715067
2019-11-07T18:05:00	0.2282	6.962	160.0	0.562618977	0.686121158	0.010813569	0.111561593	0.034384367
2019-11-07T18:10:00	0.2267	6.955	159.9	0.557323551	0.678538360	0.010626852	0.109635276	0.033790657
2019-11-07T18:15:00	0.2267	6.949	159.9	0.557428256	0.678688068	0.010630528	0.109673199	0.033802345
2019-11-07T18:20:00	0.2253	6.944	159.9	0.552801389	0.672081102	0.010468708	0.108003728	0.033287798
2019-11-07T18:25:00	0.2277	6.938	159.9	0.560675894	0.683336073	0.010744864	0.110852778	0.034165903
2019-11-07T18:30:00	0.2256	6.931	159.8	0.553687358	0.673344866	0.010499596	0.108322399	0.033386015
2019-11-07T18:35:00	0.2261	6.923	159.8	0.555482275	0.675907148	0.010562316	0.108969466	0.033585448
2019-11-07T18:40:00	0.2246	6.916	159.7	0.550175974	0.668339944	0.010377446	0.107062195	0.032997608
2019-11-07T18:45:00	0.2247	6.909	159.7	0.550619322	0.668971308	0.010392829	0.107220897	0.033046522
2019-11-07T18:50:00	0.2258	6.902	159.7	0.554444650	0.674425594	0.010526035	0.108595164	0.033470084
2019-11-07T18:55:00	0.2252	6.895	159.7	0.552182432	0.671198593	0.010447156	0.107781380	0.033219268
2019-11-07T19:00:00	0.2241	6.889	159.6	0.548564557	0.666046512	0.010321632	0.106486373	0.032820134
2019-11-07T19:05:00	0.2256	6.884	159.6	0.553744840	0.673426881	0.010501602	0.108343091	0.033392393
2019-11-07T19:10:00	0.2271	6.880	159.6	0.558579796	0.680335153	0.010670998	0.110090718	0.033931029
2019-11-07T19:15:00	0.2253	6.875	159.6	0.552601850	0.671796565	0.010461757	0.107932022	0.033265697
2019-11-07T19:20:00	0.2258	6.873	170.2	0.554397327	0.674358045	0.010524382	0.108578109	0.033464828
2019-11-07T19:25:00	0.2260	6.871	159.6	0.555178121	0.675472775	0.010551675	0.108859681	0.033551611
2019-11-07T19:30:00	0.2260	6.870	159.5	0.554944916	0.675139778	0.010543519	0.108775543	0.033525679
2019-11-07T19:35:00	0.2262	6.868	159.5	0.555725587	0.676254684	0.010570832	0.109057330	0.033612528
2019-11-07T19:40:00	0.2257	6.865	159.5	0.554140406	0.673991351	0.010515409	0.108485538	0.033436296
2019-11-07T19:45:00	0.2251	6.859	159.5	0.551877989	0.670764633	0.010436563	0.107672100	0.033185587
2019-11-07T19:50:00	0.2246	6.854	159.5	0.550291052	0.668503809	0.010381438	0.107103377	0.033010301
2019-11-07T19:55:00	0.2262	6.849	159.4	0.555806687	0.676370535	0.010573672	0.109086625	0.033621557
2019-11-07T20:00:00	0.2241	6.844	159.4	0.548469749	0.665911644	0.010318353	0.106452543	0.032809708
2019-11-07T20:05:00	0.2268	6.839	159.4	0.557705208	0.679084102	0.010640254	0.109773541	0.033833272
2019-11-07T20:10:00	0.2265	6.834	159.4	0.556796615	0.677785075	0.010608363	0.109444524	0.033731865
2019-11-07T20:15:00	0.2258	6.831	159.4	0.554197879	0.674073376	0.010517416	0.108506243	0.033442678
2019-11-07T20:20:00	0.2259	6.827	159.4	0.554640715	0.674705473	0.010532886	0.108665840	0.033491867
2019-11-07T20:25:00	0.2272	6.823	159.3	0.559136860	0.681132332	0.010690603	0.110292985	0.033993369
2019-11-07T20:30:00	0.2278	6.820	159.3	0.561266365	0.684182086	0.010765718	0.111067933	0.034232216
2019-11-07T20:35:00	0.2277	6.817	159.3	0.560696150	0.683365091	0.010745579	0.110860156	0.034168177
2019-11-07T20:40:00	0.2281	6.813	159.2	0.562150184	0.685448937	0.010796972	0.111390373	0.034331595
2019-11-07T20:45:00	0.2280	6.810	169.8	0.561917444	0.685115270	0.010788738	0.111305417	0.034305411
2019-11-07T20:50:00	0.2299	6.806	169.9	0.568088223	0.693977130	0.011008150	0.113569051	0.035003084
2019-11-07T20:55:00	0.2310	6.802	169.8	0.571894447	0.699458935	0.011144608	0.114976863	0.035436986
2019-11-07T21:00:00	0.2310	6.798	159.2	0.571998716	0.699609273	0.011148358	0.115015553	0.035448910
2019-11-07T21:05:00	0.2302	6.795	169.8	0.569074673	0.695396686	0.011043433	0.113933061	0.035115276
2019-11-07T21:10:00	0.2309	6.791	159.2	0.571534532	0.698940065	0.011131668	0.114843362	0.035395840
2019-11-07T21:15:00	0.2282	6.786	159.2	0.562544796	0.686014776	0.010810942	0.111534491	0.034376013
2019-11-07T21:20:00	0.2281	6.780	169.7	0.561974790	0.685197480	0.010790766	0.111326347	0.034311861
2019-11-07T21:25:00	0.2287	6.774	169.7	0.564102564	0.688249728	0.010866176	0.112104336	0.034551645
2019-11-07T21:30:00	0.2258	6.769	159.1	0.554417619	0.674387010	0.010525091	0.108585422	0.033467082
2019-11-07T21:35:00	0.2279	6.765	169.7	0.561276491	0.684196597	0.010766076	0.111071624	0.034233353
2019-11-07T21:40:00	0.2274	6.759	169.7	0.559693835	0.681929638	0.010710224	0.110495407	0.034055758
2019-11-07T21:45:00	0.2267	6.752	159.0	0.557435027	0.678697749	0.010630766	0.109675652	0.033803101
2019-11-07T21:50:00	0.2275	6.744	158.9	0.560240591	0.682712566	0.010729503	0.110694300	0.034117058
2019-11-07T21:55:00	0.2268	6.736	158.9	0.557644426	0.678997179	0.010638119	0.109751515	0.033826483
2019-11-07T22:00:00	0.2269	6.727	158.8	0.558086822	0.679629904	0.010653663	0.109911880	0.033875909
2019-11-07T22:05:00	0.2298	6.718	169.4	0.567916675	0.693730345	0.011002020	0.113505808	0.034983592
2019-11-07T22:10:00	0.2277	6.709	169.3	0.560888843	0.683641149	0.010752382	0.110930348	0.034189811
2019-11-07T22:15:00	0.2298	6.700	158.7	0.567681306	0.693391789	0.010993612	0.113419067	0.034956858
2019-11-07T22:20:00	0.2305	6.689	169.3	0.570088478	0.696856447	0.011079755	0.114307785	0.035230770
2019-11-07T22:25:00	0.2299	6.677	158.6	0.568119420	0.694022012	0.011009265	0.113580553	0.035006630
2019-11-07T22:30:00	0.2318	6.667	158.6	0.574561780	0.703307627	0.011240746	0.115968702	0.035742680
2019-11-07T22:35:00	0.2305	6.659	158.5	0.570240444	0.697075333	0.011085204	0.114364009	0.035248098
2019-11-07T22:40:00	0.2309	6.651	158.5	0.571636868	0.699087586	0.011135346	0.114881313	0.035407536
2019-11-07T22:45:00	0.2329	6.646	158.5	0.578408512	0.708868452	0.011380135	0.117406753	0.036185902
2019-11-07T22:50:00	0.2327	6.641	158.5	0.577451731	0.707484187	0.011345383	0.117048228	0.036075400
2019-11-07T22:55:00	0.2323	6.636	158.4	0.576158762	0.705614732	0.011298507	0.116564615	0.035926346
2019-11-07T23:00:00	0.2322	6.629	158.4	0.575873375	0.705202288	0.011288174	0.116458008	0.035893489
2019-11-07T23:05:00	0.2302	6.623	158.4	0.569198164	0.695574454	0.011047854	0.113978673	0.035129334
2019-11-07T23:10:00	0.2311	6.618	158.3	0.572276990	0.700010545	0.011158370	0.115118843	0.035480746
2019-11-07T23:15:00	0.2309	6.613	158.3	0.571654927	0.699113620	0.011135995	0.114888011	0.035409601
2019-11-07T23:20:00	0.2286	6.610	158.3	0.563960450	0.688045752	0.010861131	0.112052288	0.034535603
2019-11-07T23:25:00	0.2292	6.607	158.3	0.565696350	0.690538430	0.010922836	0.112688885	0.034731809
2019-11-07T23:30:00	0.2306	6.603	158.3	0.570461119	0.697393220	0.011093120	0.114445679	0.035273270
2019-11-07T23:35:00	0.2320	6.600	158.2	0.575219409	0.704257424	0.011264513	0.116213907	0.035818255
2019-11-07T23:40:00	0.2332	6.595	158.2	0.579300024	0.710158972	0.011412565	0.117741326	0.036289020
2019-11-07T23:45:00	0.2315	6.589	158.2	0.573640047	0.701976993	0.011207476	0.115625467	0.035636892
2019-11-07T23:50:00	0.2326	6.581	158.2	0.577386689	0.707390112	0.011343023	0.117023875	0.036067895
2019-11-07T23:55:00	0.2359	6.575	158.2	0.588167125	0.723030589	0.011737686	0.121095540	0.037322821
2019-11-08T00:00:00	0.2345	6.571	158.1	0.583527293	0.716287187	0.011566979	0.119334388	0.036780017
2019-11-08T00:05:00	0.2363	6.567	158.1	0.589606815	0.725126636	0.011790915	0.121644693	0.037492076
2019-11-08T00:10:00	0.2350	6.561	158.1	0.585303967	0.718867240	0.011632194	0.120007204	0.036987386
2019-11-08T00:15:00	0.2345	6.556	158.1	0.583678677	0.716506922	0.011572528	0.119391641	0.036797663
2019-11-08T00:20:00	0.2350	6.550	158.0	0.585404840	0.719013804	0.011635903	0.120045462	0.036999177
2019-11-08T00:25:00	0.2355	6.547	158.0	0.587130157	0.721521934	0.011699423	0.120700789	0.037201155
2019-11-08T00:30:00	0.2357	6.542	158.0	0.587515443	0.722082371	0.011713632	0.120847382	0.037246337
2019-11-08T00:35:00	0.2340	6.536	158.0	0.581868701	0.713880979	0.011506267	0.118708036	0.036586970
2019-11-08T00:40:00	0.2356	6.530	158.0	0.587281386	0.721741897	0.011704999	0.120758317	0.037218886
2019-11-08T00:45:00	0.2366	6.523	157.9	0.590678977	0.726688722	0.011830635	0.122054485	0.037618378
2019-11-08T00:50:00	0.2365	6.516	157.9	0.590394767	0.726274548	0.011820100	0.121945788	0.037584876
2019-11-08T00:55:00	0.2366	6.509	157.8	0.590779696	0.726835513	0.011834370	0.122093017	0.037630254
2019-11-08T01:00:00	0.2361	6.502	157.8	0.589156932	0.724471466	0.011774268	0.121472954	0.037439144
2019-11-08T01:05:00	0.2361	6.494	157.8	0.588872599	0.724057474	0.011763753	0.121364476	0.037405710
2019-11-08T01:10:00	0.2379	6.486	157.8	0.594942912	0.732910541	0.011989281	0.123691202	0.038122830
2019-11-08T01:15:00	0.2385	6.477	157.7	0.596997545	0.735914024	0.012066114	0.124483872	0.038367138
2019-11-08T01:20:00	0.2393	6.467	157.7	0.599718455	0.739896907	0.012168250	0.125537594	0.038691906
2019-11-08T01:25:00	0.2388	6.459	157.6	0.598099796	0.737526759	0.012107436	0.124910188	0.038498533
2019-11-08T01:30:00	0.2374	6.451	157.6	0.593473027	0.730764011	0.011934469	0.123125721	0.037948543
2019-11-08T01:35:00	0.2387	6.446	157.5	0.597532545	0.736696672	0.012086161	0.124690700	0.038430885
2019-11-08T01:40:00	0.2380	6.438	157.5	0.595244695	0.733351469	0.012000550	0.123807466	0.038158663
2019-11-08T01:45:00	0.2394	6.431	157.5	0.599969603	0.740264850	0.012177700	0.125635085	0.038721953
2019-11-08T01:50:00	0.2383	6.424	157.4	0.596347493	0.734963390	0.012041778	0.124232803	0.038289756
2019-11-08T01:55:00	0.2379	6.417	157.4	0.595061448	0.733083723	0.011993707	0.123736862	0.038136903
2019-11-08T02:00:00	0.2378	6.411	157.4	0.594777590	0.732669026	0.011983110	0.123627535	0.038103207
2019-11-08T02:05:00	0.2352	6.405	157.4	0.586128852	0.720066014	0.011662537	0.120320241	0.037083867
2019-11-08T02:10:00	0.2355	6.401	157.3	0.586849187	0.721113314	0.011689066	0.120593944	0.037168225
2019-11-08T02:15:00	0.2353	6.396	157.3	0.586229701	0.720212613	0.011666249	0.120358541	0.037095671
2019-11-08T02:20:00	0.2332	6.391	157.3	0.579238552	0.710069966	0.011410327	0.117718240	0.036281905
2019-11-08T02:25:00	0.2356	6.386	157.2	0.587335322	0.721820352	0.011706988	0.120778838	0.037225211
2019-11-08T02:30:00	0.2350	6.380	157.2	0.585375922	0.718971786	0.011634839	0.120034493	0.036995797
2019-11-08T02:35:00	0.2321	6.373	157.2	0.575696195	0.704946260	0.011281761	0.116391848	0.035873098
2019-11-08T02:40:00	0.2355	6.365	157.1	0.587151664	0.721553215	0.011700216	0.120708969	0.037203677
2019-11-08T02:45:00	0.2349	6.355	157.1	0.584857065	0.718218009	0.011615772	0.119837782	0.036935168
2019-11-08T02:50:00	0.2341	6.345	157.0	0.582225620	0.714398587	0.011519318	0.118842681	0.036628468
2019-11-08T02:55:00	0.2343	6.333	157.0	0.582946755	0.715444709	0.011545710	0.119114961	0.036712388
2019-11-08T03:00:00	0.2348	6.322	156.9	0.584673277	0.717951063	0.011609022	0.119768144	0.036913705
2019-11-08T03:05:00	0.2358	6.313	156.9	0.588073385	0.722894172	0.011734224	0.121059828	0.037311815
2019-11-08T03:10:00	0.2342	6.307	156.9	0.582762868	0.715177910	0.011538977	0.119045500	0.036690979
2019-11-08T03:15:00	0.2328	6.301	156.8	0.577780119	0.707959212	0.011357305	0.117171218	0.036113307
2019-11-08T03:20:00	0.2320	6.295	156.8	0.575143363	0.704147576	0.011261764	0.116185539	0.035809511
2019-11-08T03:25:00	0.2329	6.289	156.8	0.578216971	0.708591272	0.011373173	0.117334934	0.036163766
2019-11-08T03:30:00	0.2313	6.282	156.8	0.572891517	0.700896917	0.011180496	0.115347111	0.035551100
2019-11-08T03:35:00	0.2294	6.277	156.8	0.566547495	0.691761545	0.010953156	0.113001691	0.034828219
2019-11-08T03:40:00	0.2291	6.269	156.7	0.565587467	0.690382005	0.010918960	0.112648901	0.034719485
2019-11-08T03:45:00	0.2303	6.261	156.7	0.569679317	0.696267200	0.011065088	0.114156475	0.035184134
2019-11-08T03:50:00	0.2317	6.253	156.6	0.574102542	0.702644574	0.011224164	0.115797626	0.035689953
2019-11-08T03:55:00	0.2302	6.245	156.6	0.569107462	0.695443886	0.011044607	0.113945171	0.035119008
2019-11-08T04:00:00	0.2316	6.237	156.6	0.573867590	0.702305414	0.011215685	0.115710151	0.035662992
2019-11-08T04:05:00	0.2326	6.228	156.5	0.577364247	0.707357654	0.011342208	0.117015473	0.036065305
2019-11-08T04:10:00	0.2346	6.222	156.5	0.583875577	0.716792752	0.011579748	0.119466129	0.036820621
2019-11-08T04:15:00	0.2357	6.214	156.5	0.587697148	0.722346722	0.011720336	0.120916548	0.037267654
2019-11-08T04:20:00	0.2345	6.206	156.4	0.583477893	0.716215487	0.011565168	0.119315708	0.036774260
2019-11-08T04:25:00	0.2360	6.197	156.3	0.588639163	0.723717639	0.011755125	0.121275453	0.037378272
2019-11-08T04:30:00	0.2359	6.189	156.3	0.588440595	0.723428602	0.011747787	0.121199754	0.037354941
2019-11-08T04:35:00	0.2349	6.180	156.3	0.584892515	0.718269504	0.011617075	0.119851217	0.036939309
2019-11-08T04:40:00	0.2329	6.171	156.2	0.578320519	0.708741113	0.011376937	0.117373757	0.036175732
2019-11-08T04:45:00	0.2354	6.161	156.2	0.586505257	0.720613217	0.011676396	0.120463222	0.037127935
2019-11-08T04:50:00	0.2361	6.153	156.2	0.588985349	0.724221632	0.011767922	0.121407486	0.037418966
2019-11-08T04:55:00	0.2369	6.148	156.1	0.591798166	0.728320344	0.011872171	0.122483004	0.037750451
2019-11-08T05:00:00	0.2345	6.144	156.1	0.583563288	0.716339433	0.011568298	0.119348000	0.036784213
2019-11-08T05:05:00	0.2363	6.140	156.1	0.589728525	0.725303913	0.011795420	0.121691176	0.037506402
2019-11-08T05:10:00	0.2367	6.136	156.1	0.590868438	0.726964857	0.011837662	0.122126972	0.037640719
2019-11-08T05:15:00	0.2382	6.135	156.1	0.596018903	0.734482996	0.012029486	0.124105991	0.038250672
2019-11-08T05:20:00	0.2358	6.131	156.1	0.588128712	0.722974686	0.011736267	0.121080905	0.037318311
2019-11-08T05:25:00	0.2346	6.128	156.1	0.583909974	0.716842688	0.011581010	0.119479144	0.036824632
2019-11-08T05:30:00	0.2362	6.124	156.1	0.589405307	0.724833157	0.011783457	0.121567754	0.037468362
2019-11-08T05:35:00	0.2370	6.117	156.0	0.591883360	0.728444588	0.011875336	0.122515655	0.037760515
2019-11-08T05:40:00	0.2378	6.110	155.9	0.594693867	0.732546724	0.011979985	0.123595298	0.038093271
2019-11-08T05:45:00	0.2370	6.103	155.7	0.592155481	0.728841480	0.011885448	0.122619977	0.037792668
2019-11-08T05:50:00	0.2376	6.096	155.9	0.593963170	0.731479586	0.011952732	0.123314137	0.038006615
2019-11-08T05:55:00	0.2390	6.091	155.8	0.598775348	0.738515681	0.012132798	0.125171841	0.038579177
2019-11-08T06:00:00	0.2396	6.088	155.8	0.600579653	0.741158823	0.012200670	0.125872060	0.038794991
2019-11-08T06:05:00	0.2404	6.084	155.8	0.603383256	0.745271250	0.012306518	0.126964074	0.039131561
2019-11-08T06:10:00	0.2387	6.082	155.8	0.597847456	0.737157464	0.012097970	0.124812525	0.038468432
2019-11-08T06:15:00	0.2408	6.077	155.8	0.604654352	0.747137908	0.012354662	0.127460770	0.039284647
2019-11-08T06:20:00	0.2421	6.074	155.8	0.609119222	0.753705495	0.012524542	0.129213393	0.039824823
2019-11-08T06:25:00	0.2414	6.070	155.7	0.606591168	0.749984809	0.012428208	0.128219526	0.039518503
2019-11-08T06:30:00	0.2402	6.065	155.7	0.602727881	0.744309332	0.012281732	0.126708368	0.039052750
2019-11-08T06:35:00	0.2391	6.058	155.7	0.598860374	0.738640174	0.012135992	0.125204793	0.038589333
2019-11-08T06:40:00	0.2398	6.050	155.6	0.601331802	0.742261457	0.012229020	0.126164548	0.038885139
2019-11-08T06:45:00	0.2394	6.043	155.6	0.600133094	0.740504401	0.012183854	0.125698571	0.038741520
2019-11-08T06:50:00	0.2398	6.040	155.7	0.601269655	0.742170332	0.012226677	0.126140368	0.038877686
2019-11-08T06:55:00	0.2422	6.043	155.6	0.609401405	0.754121133	0.012535319	0.129324574	0.039859090
2019-11-08T07:00:00	0.2407	6.049	155.7	0.604208306	0.746482718	0.012337756	0.127286359	0.039230892
2019-11-08T07:05:00	0.2427	6.058	155.7	0.611003004	0.756481457	0.012596575	0.129956547	0.040053870
2019-11-08T07:10:00	0.2410	6.070	155.7	0.605479106	0.748349820	0.012385952	0.127783588	0.039384143
2019-11-08T07:15:00	0.2415	6.082	155.8	0.606946992	0.750508172	0.012441743	0.128359174	0.039561544
2019-11-08T07:20:00	0.2421	6.096	155.8	0.609079980	0.753647700	0.012523044	0.129197935	0.039820058
2019-11-08T07:25:00	0.2426	6.112	155.9	0.610546377	0.755808293	0.012579095	0.129776205	0.039998287
2019-11-08T07:30:00	0.2421	6.132	156.0	0.609017969	0.753556371	0.012520676	0.129173511	0.039812530
2019-11-08T07:35:00	0.2415	6.152	156.1	0.607155913	0.750815513	0.012449695	0.128441204	0.039586827
2019-11-08T07:40:00	0.2401	6.169	156.2	0.602292999	0.743671239	0.012265300	0.126538838	0.039000499
2019-11-08T07:45:00	0.2374	6.183	156.2	0.593414073	0.730677956	0.011932274	0.123103069	0.037941561
2019-11-08T07:50:00	0.2411	6.197	156.3	0.605563971	0.748474554	0.012389174	0.127816829	0.039394388
2019-11-08T07:55:00	0.2418	6.212	156.3	0.608030728	0.752102837	0.012483017	0.128784983	0.039692782
2019-11-08T08:00:00	0.2411	6.229	156.4	0.605835042	0.748873015	0.012399469	0.127923035	0.039427122
2019-11-08T08:05:00	0.2421	6.245	156.5	0.608967341	0.753481811	0.012518744	0.129153571	0.039806385
2019-11-08T08:10:00	0.2425	6.263	156.5	0.610433784	0.755642334	0.012574787	0.129731757	0.039984588
2019-11-08T08:15:00	0.2437	6.281	156.6	0.614226775	0.761238957	0.012720343	0.131233430	0.040447418
2019-11-08T08:20:00	0.2423	6.299	156.7	0.609706329	0.754570343	0.012546970	0.129444772	0.039896136
2019-11-08T08:25:00	0.2420	6.316	156.8	0.608843313	0.753299163	0.012514010	0.129104731	0.039791332
2019-11-08T08:30:00	0.2414	6.333	156.8	0.606648130	0.750068584	0.012430374	0.128241876	0.039525392
2019-11-08T08:35:00	0.2403	6.353	156.9	0.603118304	0.744882326	0.012296494	0.126860666	0.039099689
2019-11-08T08:40:00	0.2419	6.379	157.0	0.608250972	0.752427036	0.012491413	0.128871607	0.039719481
2019-11-08T08:45:00	0.2405	6.412	157.2	0.603722904	0.745769905	0.012319373	0.127096698	0.039172437
2019-11-08T08:50:00	0.2426	6.444	157.3	0.610851204	0.756257652	0.012590763	0.129896580	0.040035387
2019-11-08T08:55:00	0.2424	6.475	157.5	0.609988465	0.754986051	0.012557754	0.129556037	0.039930429
2019-11-08T09:00:00	0.2414	6.500	157.6	0.606795018	0.750284628	0.012435961	0.128299520	0.039543158
2019-11-08T09:05:00	0.2431	6.523	157.7	0.612254915	0.758327934	0.012644565	0.130451643	0.040206463
2019-11-08T09:10:00	0.2411	6.545	157.8	0.605733695	0.748724032	0.012395619	0.127883321	0.039414882
2019-11-08T09:15:00	0.2420	6.566	157.9	0.608533224	0.752842570	0.012502178	0.128982664	0.039753710
2019-11-08T09:20:00	0.2415	6.590	158.0	0.607003948	0.750591955	0.012443911	0.128381534	0.039568436
2019-11-08T09:25:00	0.2399	6.620	158.1	0.601807334	0.742958820	0.012246962	0.126349649	0.038942189
2019-11-08T09:30:00	0.2387	6.656	158.3	0.597604932	0.736802584	0.012088875	0.124718698	0.038439514
2019-11-08T09:35:00	0.2393	6.695	158.4	0.599743551	0.739933672	0.012169194	0.125547334	0.038694908
2019-11-08T09:40:00	0.2390	6.734	158.6	0.598544305	0.738177421	0.012124121	0.125082323	0.038551587
2019-11-08T09:45:00	0.2384	6.773	169.4	0.596676733	0.735444825	0.012054100	0.124359932	0.038328939
2019-11-08T09:50:00	0.2395	6.803	169.5	0.600484466	0.741019315	0.012197084	0.125835069	0.038783590
2019-11-08T09:55:00	0.2395	6.828	169.7	0.600286564	0.740729289	0.012189631	0.125758180	0.038759893
2019-11-08T10:00:00	0.2406	6.861	159.2	0.604090416	0.746309578	0.012333290	0.127240282	0.039216691
2019-11-08T10:05:00	0.2370	6.896	159.3	0.591873132	0.728429672	0.011874956	0.122511735	0.037759307
2019-11-08T10:10:00	0.2369	6.929	159.5	0.591674747	0.728140365	0.011867587	0.122435711	0.037735875
2019-11-08T10:15:00	0.2376	6.956	159.6	0.594151206	0.731754158	0.011959742	0.123386459	0.038028905
2019-11-08T10:20:00	0.2359	6.976	159.7	0.588266133	0.723174680	0.011741342	0.121133265	0.037334449
2019-11-08T10:25:00	0.2360	6.985	159.7	0.588737096	0.723860205	0.011758744	0.121312797	0.037389782
2019-11-08T10:30:00	0.2362	6.993	159.8	0.589207996	0.724545823	0.011776157	0.121492441	0.037445150
2019-11-08T10:35:00	0.2358	7.006	159.8	0.588005164	0.722794897	0.011731705	0.121033841	0.037303805
2019-11-08T10:40:00	0.2361	7.014	159.8	0.589145635	0.724455016	0.011773850	0.121468643	0.037437815
2019-11-08T10:45:00	0.2363	7.022	159.9	0.589616480	0.725140714	0.011791272	0.121648384	0.037493213
2019-11-08T10:50:00	0.2356	7.033	159.9	0.587409321	0.721927994	0.011709717	0.120806996	0.037233889
2019-11-08T10:55:00	0.2347	7.050	160.0	0.584195392	0.717257081	0.011591480	0.119587166	0.036857926
2019-11-08T11:00:00	0.2341	7.072	160.2	0.582320200	0.714535766	0.011522778	0.118878374	0.036639469
2019-11-08T11:05:00	0.2329	7.098	160.3	0.578430224	0.708899875	0.011380924	0.117414896	0.036188411
2019-11-08T11:10:00	0.2334	7.122	160.4	0.579909406	0.711041469	0.011434759	0.117970298	0.036359592
2019-11-08T11:15:00	0.2324	7.140	160.5	0.576688607	0.706380647	0.011317704	0.116762670	0.035987389
2019-11-08T11:20:00	0.2339	7.152	160.5	0.581524435	0.713381820	0.011493686	0.118578239	0.036546965
2019-11-08T11:25:00	0.2350	7.165	160.6	0.585348560	0.718932030	0.011633833	0.120024116	0.036992598
2019-11-08T11:30:00	0.2341	7.180	160.7	0.582132747	0.714263892	0.011515921	0.118807638	0.036617668
2019-11-08T11:35:00	0.2338	7.192	160.7	0.581262964	0.713002774	0.011484135	0.118479706	0.036516596
2019-11-08T11:40:00	0.2346	7.205	160.8	0.584081957	0.717092378	0.011587318	0.119544228	0.036844692
2019-11-08T11:45:00	0.2331	7.219	160.9	0.578851445	0.709509543	0.011396241	0.117572919	0.036237116
2019-11-08T11:50:00	0.2329	7.231	160.9	0.578316602	0.708735445	0.011376794	0.117372288	0.036175279
2019-11-08T11:55:00	0.2303	7.243	161.0	0.569376893	0.695831760	0.011054254	0.114044703	0.035149685
2019-11-08T12:00:00	0.2310	7.253	161.0	0.571869113	0.699422409	0.011143697	0.114967463	0.035434089
2019-11-08T12:05:00	0.2297	7.265	161.1	0.567630767	0.693319099	0.010991807	0.113400446	0.034951119
2019-11-08T12:10:00	0.2295	7.275	161.1	0.566757377	0.692063243	0.010960639	0.113078894	0.034852013
2019-11-08T12:15:00	0.2301	7.284	161.2	0.568914840	0.695166624	0.011037712	0.113874041	0.035097085
2019-11-08T12:20:00	0.2310	7.296	161.2	0.571743773	0.699241703	0.011139189	0.114920965	0.035419757
2019-11-08T12:25:00	0.2297	7.307	161.3	0.567505275	0.693138614	0.010987326	0.113354215	0.034936870
2019-11-08T12:30:00	0.2294	7.317	161.3	0.566631854	0.691882803	0.010956163	0.113032718	0.034837782
2019-11-08T12:35:00	0.2273	7.326	161.4	0.559350400	0.681437984	0.010698124	0.110370570	0.034017282
2019-11-08T12:40:00	0.2239	7.332	161.4	0.547992064	0.665232230	0.010301839	0.106282177	0.032757199
2019-11-08T12:45:00	0.2245	7.338	161.5	0.549822704	0.667836974	0.010365197	0.106935823	0.032958659
2019-11-08T12:50:00	0.2254	7.345	161.5	0.553005359	0.672371993	0.010475815	0.108077051	0.033310397
2019-11-08T12:55:00	0.2241	7.353	161.5	0.548744002	0.666301800	0.010327840	0.106550418	0.032839874
2019-11-08T13:00:00	0.2246	7.359	161.6	0.550235813	0.668425151	0.010379521	0.107083609	0.033004208
2019-11-08T13:05:00	0.2247	7.365	161.6	0.550711924	0.669103202	0.010396043	0.107254060	0.033056743
2019-11-08T13:10:00	0.2235	7.370	161.6	0.546447750	0.663037024	0.010248544	0.105732342	0.032587735
2019-11-08T13:15:00	0.2257	7.374	161.6	0.554031314	0.673835665	0.010511600	0.108446244	0.033424185
2019-11-08T13:20:00	0.2266	7.378	161.6	0.557210121	0.678376186	0.010622871	0.109594200	0.033777997
2019-11-08T13:25:00	0.2253	7.383	161.7	0.552615717	0.671816338	0.010462240	0.107937005	0.033267233
2019-11-08T13:30:00	0.1332	7.522	7.7	0.284843216	0.264196418	0.002644983	0.027287798	0.008410364
2019-11-08T13:35:00								
2019-11-08T13:40:00								
2019-11-08T13:45:00								
2019-11-08T13:50:00								
2019-11-08T13:55:00	0.2252	14.500		0.552291367	0.671353890	0.010450947	0.107820496	0.033231324
2019-11-08T14:00:00	0.2254	7.580		0.553105383	0.672514653	0.010479301	0.108113017	0.033321482
2019-11-08T14:05:00	0.2288	7.378		0.564384270	0.688654111	0.010876180	0.112207544	0.034583455
2019-11-08T14:10:00	0.2288	7.349		0.564521404	0.688850986	0.010881052	0.112257803	0.034598945
2019-11-08T14:15:00	0.2283	7.341		0.562635646	0.686145065	0.010814159	0.111567684	0.034386244
2019-11-08T14:20:00	0.2268	7.342		0.557710693	0.679091946	0.010640447	0.109775529	0.033833884
2019-11-08T14:25:00	0.2396	7.344		0.600810162	0.741496694	0.012209355	0.125961661	0.038822607
2019-11-08T14:30:00	0.2401	7.347		0.602279984	0.743652145	0.012264808	0.126533766	0.038998936
2019-11-08T14:35:00	0.2406	7.348		0.604082504	0.746297958	0.012332991	0.127237190	0.039215738
2019-11-08T14:40:00	0.2414	7.350		0.606550291	0.749924692	0.012426653	0.128203488	0.039513560
2019-11-08T14:45:00	0.2353	7.352		0.586311289	0.720331219	0.011669253	0.120389530	0.037105222
2019-11-08T14:50:00	0.2356	7.352		0.587452309	0.721990528	0.011711303	0.120823354	0.037238931
2019-11-08T14:55:00	0.2370	7.354		0.591938945	0.728525654	0.011877401	0.122536961	0.037767081
2019-11-08T15:00:00	0.2369	7.353		0.591740563	0.728236342	0.011870032	0.122460930	0.037743648
2019-11-08T15:05:00	0.2370	7.355		0.591876632	0.728434776	0.011875086	0.122513077	0.037759720
2019-11-08T15:10:00	0.2367	7.356		0.591009254	0.727170112	0.011842885	0.122180863	0.037657328
2019-11-08T15:15:00	0.2355	7.359		0.587128882	0.721520080	0.011699376	0.120700304	0.037201006
2019-11-08T15:20:00	0.2371	7.361		0.592284807	0.729030126	0.011890255	0.122669572	0.037807953
2019-11-08T15:25:00	0.2381	7.362		0.595763213	0.734109243	0.012019926	0.124007359	0.038220273
2019-11-08T15:30:00	0.2384	7.362		0.596567194	0.735284641	0.012050000	0.124317629	0.038315901
2019-11-08T15:35:00	0.2392	7.362		0.599373977	0.739392316	0.012155295	0.125403936	0.038650711
2019-11-08T15:40:00	0.2395	7.365		0.600510782	0.741057883	0.012198075	0.125845295	0.038786742
2019-11-08T15:45:00	0.2396	7.365		0.600646513	0.741256819	0.012203188	0.125898045	0.038803000
2019-11-08T15:50:00	0.2397	7.366		0.601115827	0.741944794	0.012220876	0.126080526	0.038859243
2019-11-08T15:55:00	0.2405	7.366		0.603585682	0.745568430	0.012314178	0.127043108	0.039155920
2019-11-08T16:00:00	0.2407	7.367		0.604387886	0.746746480	0.012344561	0.127356563	0.039252530
2019-11-08T16:05:00	0.2400	7.369		0.601915608	0.743117629	0.012251049	0.126391814	0.038955184
2019-11-08T16:10:00	0.2401	7.368		0.602443897	0.743892632	0.012271000	0.126597649	0.039018625
2019-11-08T16:15:00	0.2409	7.370		0.604971928	0.747604494	0.012366706	0.127585023	0.039322943
2019-11-08T16:20:00	0.2401	7.369		0.602500057	0.743975031	0.012273122	0.126619541	0.039025372
2019-11-08T16:25:00	0.2396	7.368		0.600693746	0.741326050	0.012204968	0.125916404	0.038808659
2019-11-08T16:30:00	0.2410	7.368		0.605222703	0.747972995	0.012376220	0.127683184	0.039353197
2019-11-08T16:35:00	0.2406	7.367		0.604084429	0.746300785	0.012333063	0.127237943	0.039215970
2019-11-08T16:40:00	0.2402	7.367		0.602612373	0.744139835	0.012277367	0.126663328	0.039038868
2019-11-08T16:45:00	0.2404	7.366		0.603473925	0.745404356	0.012309949	0.126999471	0.039142470
2019-11-08T16:50:00	0.2400	7.365		0.602001615	0.743243787	0.012254296	0.126425313	0.038965509
2019-11-08T16:55:00	0.2400	7.364		0.601862952	0.743040396	0.012249061	0.126371307	0.038948864
2019-11-08T17:00:00	0.2402	7.364		0.602724686	0.744304644	0.012281612	0.126707122	0.039052366
2019-11-08T17:05:00	0.2399	7.364		0.601585608	0.742633638	0.012238595	0.126263325	0.038915583
2019-11-08T17:10:00	0.2393	7.364		0.599778830	0.739985354	0.012170521	0.125561027	0.038699128
2019-11-08T17:15:00	0.2389	7.364		0.598304982	0.737827085	0.012115137	0.124989631	0.038523018
2019-11-08T17:20:00	0.2384	7.364		0.596830519	0.735669732	0.012059858	0.124419337	0.038347248
2019-11-08T17:25:00	0.2377	7.364		0.594352949	0.732048779	0.011967266	0.123464077	0.038052828
2019-11-08T17:30:00	0.2369	7.363		0.591539178	0.727942682	0.011862553	0.122383773	0.037719867
2019-11-08T17:35:00	0.2360	7.362		0.588723159	0.723839915	0.011758229	0.121307482	0.037388144
2019-11-08T17:40:00	0.2363	7.360		0.589588105	0.725099386	0.011790222	0.121637548	0.037489874
2019-11-08T17:45:00	0.2361	7.360		0.589114261	0.724409332	0.011772690	0.121456671	0.037434125
2019-11-08T17:50:00	0.2366	7.358		0.590648299	0.726644012	0.011829498	0.122042749	0.037614761
2019-11-08T17:55:00	0.2364	7.358		0.589839974	0.725466256	0.011799547	0.121733749	0.037519524
2019-11-08T18:00:00	0.2360	7.357		0.588696733	0.723801445	0.011757252	0.121297405	0.037385038
2019-11-08T18:05:00	0.2358	7.356		0.587887960	0.722624352	0.011727379	0.120989203	0.037290047
2019-11-08T18:10:00	0.2367	7.355		0.591095528	0.727295874	0.011846086	0.122213885	0.037667506
2019-11-08T18:15:00	0.2364	7.355		0.589952694	0.725630460	0.011803721	0.121776814	0.037532797
2019-11-08T18:20:00	0.2363	7.354		0.589813556	0.725427774	0.011798569	0.121723657	0.037516413
2019-11-08T18:25:00	0.2359	7.354		0.588335540	0.723275696	0.011743906	0.121159714	0.037342601
2019-11-08T18:30:00	0.2362	7.352		0.589200581	0.724535025	0.011775883	0.121489611	0.037444278
2019-11-08T18:35:00	0.2354	7.351		0.586717643	0.720922029	0.011684219	0.120543938	0.037152812
2019-11-08T18:40:00	0.2354	7.349		0.586578378	0.720719532	0.011679089	0.120491008	0.037136499
2019-11-08T18:45:00	0.2354	7.346		0.586774054	0.721004056	0.011686298	0.120565381	0.037159421
2019-11-08T18:50:00	0.2344	7.343		0.583283758	0.715933735	0.011558054	0.119242314	0.036751639
2019-11-08T18:55:00	0.2343	7.339		0.582809064	0.715244934	0.011540668	0.119062949	0.036696357
2019-11-08T19:00:00	0.2346	7.337		0.584010674	0.716988885	0.011584703	0.119517250	0.036836377
2019-11-08T19:05:00	0.2350	7.336		0.585211874	0.718733439	0.011628809	0.119972281	0.036976622
2019-11-08T19:10:00	0.2348	7.333		0.584737441	0.718044256	0.011611379	0.119792453	0.036921198
2019-11-08T19:15:00	0.2340	7.329		0.581915973	0.713949527	0.011507995	0.118725865	0.036592465
2019-11-08T19:20:00	0.2336	7.325		0.580770153	0.712288515	0.011466145	0.118294108	0.036459393
2019-11-08T19:25:00	0.2339	7.321		0.581637056	0.713545101	0.011497801	0.118620692	0.036560049
2019-11-08T19:30:00	0.2343	7.319		0.582839067	0.715288463	0.011541767	0.119074281	0.036699850
2019-11-08T19:35:00	0.2347	7.315		0.584375842	0.717519106	0.011598103	0.119655487	0.036878983
2019-11-08T19:40:00	0.2352	7.310		0.585911945	0.719750736	0.011654554	0.120237886	0.037058484
2019-11-08T19:45:00	0.2345	7.305		0.583761918	0.716627755	0.011575580	0.119423128	0.036807368
2019-11-08T19:50:00	0.2352	7.300		0.585968368	0.719832744	0.011656630	0.120259306	0.037065086
2019-11-08T19:55:00	0.2361	7.294		0.588842966	0.724014332	0.011762658	0.121353173	0.037402227
2019-11-08T20:00:00	0.2365	7.290		0.590377122	0.726248838	0.011819446	0.121939041	0.037582797
2019-11-08T20:05:00	0.2369	7.286		0.591576152	0.727996596	0.011863926	0.122397937	0.037724233
2019-11-08T20:10:00	0.2374	7.283		0.593443433	0.730720812	0.011933367	0.123114349	0.037945038
2019-11-08T20:15:00	0.2378	7.281		0.594641421	0.732470116	0.011978028	0.123575107	0.038087048
2019-11-08T20:20:00	0.2369	7.279		0.591827880	0.728363677	0.011873275	0.122494392	0.037753961
2019-11-08T20:25:00	0.2368	7.278		0.591354337	0.727673178	0.011855691	0.122312977	0.037698047
2019-11-08T20:30:00	0.2376	7.276		0.593890308	0.731373199	0.011950017	0.123286118	0.037997979
2019-11-08T20:35:00	0.2369	7.273		0.591745147	0.728243026	0.011870202	0.122462687	0.037744189
2019-11-08T20:40:00	0.2363	7.269		0.589598680	0.725114789	0.011790614	0.121641587	0.037491118
2019-11-08T20:45:00	0.2356	7.266		0.587450905	0.721988486	0.011711251	0.120822820	0.037238767
2019-11-08T20:50:00	0.2351	7.265		0.585636874	0.719350973	0.011644435	0.120133489	0.037026308
2019-11-08T20:55:00	0.2354	7.263		0.586502578	0.720609323	0.011676297	0.120462204	0.037127621
2019-11-08T21:00:00	0.2351	7.262		0.585693302	0.719432974	0.011646510	0.120154901	0.037032907
2019-11-08T21:05:00	0.2350	7.260		0.585218933	0.718743695	0.011629069	0.119974958	0.036977447
2019-11-08T21:10:00	0.2339	7.259		0.581727093	0.713675647	0.011501091	0.118654637	0.036570512
2019-11-08T21:15:00	0.2340	7.258		0.581923039	0.713959773	0.011508253	0.118728530	0.036593286
2019-11-08T21:20:00	0.2336	7.257		0.580777221	0.712298757	0.011466403	0.118296769	0.036460213
2019-11-08T21:25:00	0.2339	7.255		0.581644122	0.713555347	0.011498059	0.118623356	0.036560870
2019-11-08T21:30:00	0.2335	7.254		0.580162669	0.711408331	0.011443989	0.118065528	0.036388942
2019-11-08T21:35:00	0.2334	7.253		0.580023144	0.711206216	0.011438904	0.118013060	0.036372771
2019-11-08T21:40:00	0.2329	7.251		0.578205274	0.708574345	0.011372748	0.117330549	0.036162415
2019-11-08T21:45:00	0.2328	7.250		0.578065671	0.708372344	0.011367676	0.117278219	0.036146286
2019-11-08T21:50:00	0.2330	7.249		0.578597547	0.709142038	0.011387007	0.117477655	0.036207754
2019-11-08T21:55:00	0.2327	7.247		0.577450644	0.707482614	0.011345344	0.117047820	0.036075275
2019-11-08T22:00:00	0.2322	7.246		0.575967418	0.705338192	0.011291578	0.116493133	0.035904315
2019-11-08T22:05:00	0.2326	7.245		0.577314015	0.707285003	0.011340386	0.116996669	0.036059510
2019-11-08T22:10:00	0.2324	7.245		0.576645290	0.706318021	0.011316134	0.116746472	0.035982396
2019-11-08T22:15:00	0.2327	7.242		0.577655842	0.707779430	0.011352792	0.117124665	0.036098959
2019-11-08T22:20:00	0.2330	7.242		0.578666103	0.709241264	0.011389500	0.117503374	0.036215681
2019-11-08T22:25:00	0.2332	7.241		0.579340450	0.710217507	0.011414036	0.117756509	0.036293700
2019-11-08T22:30:00	0.2332	7.239		0.579343453	0.710221855	0.011414146	0.117757637	0.036294047
2019-11-08T22:35:00	0.2341	7.238		0.582365909	0.714602065	0.011524450	0.118895625	0.036644786
2019-11-08T22:40:00	0.2340	7.238		0.582033543	0.714120022	0.011512294	0.118770212	0.036606133
2019-11-08T22:45:00	0.2347	7.236		0.584383434	0.717530131	0.011598381	0.119658362	0.036879869
2019-11-08T22:50:00	0.2349	7.235		0.585056684	0.718507983	0.011623106	0.119913443	0.036958488
2019-11-08T22:55:00	0.2352	7.233		0.586064820	0.719972939	0.011660180	0.120295926	0.037076373
2019-11-08T23:00:00	0.2353	7.233		0.586402799	0.720464257	0.011672622	0.120424294	0.037115937
2019-11-08T23:05:00	0.2355	7.232		0.587075664	0.721442679	0.011697414	0.120680063	0.037194767
2019-11-08T23:10:00	0.2356	7.229		0.587413546	0.721934140	0.011709873	0.120808603	0.037234385
2019-11-08T23:15:00	0.2353	7.228		0.586411791	0.720477329	0.011672954	0.120427710	0.037116990
2019-11-08T23:20:00	0.2351	7.226		0.585744795	0.719507808	0.011648405	0.120174442	0.037038930
2019-11-08T23:25:00	0.2345	7.224		0.583737050	0.716591655	0.011574668	0.119413721	0.036804468
2019-11-08T23:30:00	0.2341	7.224		0.582398915	0.714649941	0.011525657	0.118908083	0.036648626
2019-11-08T23:35:00	0.2345	7.222		0.583743048	0.716600363	0.011574888	0.119415990	0.036805168
2019-11-08T23:40:00	0.2341	7.221		0.582404917	0.714658646	0.011525877	0.118910349	0.036649324
2019-11-08T23:45:00	0.2346	7.220		0.584084250	0.717095707	0.011587403	0.119545096	0.036844960
2019-11-08T23:50:00	0.2349	7.219		0.585092664	0.718560252	0.011624428	0.119927083	0.036962692
2019-11-08T23:55:00	0.2339	7.218		0.581743163	0.713698947	0.011501678	0.118660696	0.036572379
2019-11-09T00:00:00	0.2342	7.219		0.582752249	0.715162504	0.011538588	0.119041490	0.036689743
2019-11-09T00:05:00	0.2338	7.217		0.581413740	0.713221342	0.011489642	0.118536519	0.036534106
2019-11-09T00:10:00	0.2334	7.217		0.580074720	0.711280928	0.011440783	0.118032454	0.036378749
2019-11-09T00:15:00	0.2328	7.215		0.578063731	0.708369538	0.011367606	0.117277492	0.036146062
2019-11-09T00:20:00	0.2336	7.214		0.580751799	0.712261917	0.011465476	0.118287198	0.036457263
2019-11-09T00:25:00	0.2334	7.214		0.580083728	0.711293976	0.011441112	0.118035841	0.036379793
2019-11-09T00:30:00	0.2330	7.212		0.578744201	0.709354307	0.011392340	0.117532676	0.036224712
2019-11-09T00:35:00	0.2320	7.211		0.575388636	0.704501893	0.011270633	0.116277048	0.035837715
2019-11-09T00:40:00	0.2313	7.211		0.573038730	0.701109298	0.011185799	0.115401828	0.035567964
2019-11-09T00:45:00	0.2321	7.209		0.575730650	0.704996045	0.011283008	0.116404712	0.035877063
2019-11-09T00:50:00	0.2333	7.210		0.579763158	0.710829647	0.011429430	0.117915326	0.036342649
2019-11-09T00:55:00	0.2333	7.209		0.579766161	0.710833996	0.011429540	0.117916454	0.036342996
2019-11-09T01:00:00	0.2337	7.208		0.581111301	0.712782939	0.011478597	0.118422572	0.036498987
2019-11-09T01:05:00	0.2333	7.209		0.579772167	0.710842694	0.011429758	0.117918711	0.036343692
2019-11-09T01:10:00	0.2333	7.209		0.579775169	0.710847043	0.011429868	0.117919840	0.036344040
2019-11-09T01:15:00	0.2315	7.209		0.573732208	0.702110007	0.011210801	0.115659762	0.035647462
2019-11-09T01:20:00	0.2336	7.208		0.580787823	0.712314121	0.011466790	0.118300760	0.036461443
2019-11-09T01:25:00	0.2342	7.208		0.582467929	0.714750047	0.011528183	0.118934135	0.036656655
2019-11-09T01:30:00	0.2343	7.207		0.582806254	0.715240856	0.011540566	0.119061887	0.036696030
2019-11-09T01:35:00	0.2344	7.207		0.583144546	0.715731713	0.011552954	0.119189698	0.036735422
2019-11-09T01:40:00	0.2338	7.207		0.581135315	0.712817745	0.011479474	0.118431617	0.036501775
2019-11-09T01:45:00	0.2329	7.207		0.578117809	0.708447784	0.011369570	0.117297761	0.036152309
2019-11-09T01:50:00	0.2322	7.207		0.575769732	0.705052518	0.011284422	0.116419305	0.035881560
2019-11-09T01:55:00	0.2300	7.205		0.568373345	0.694387355	0.011018342	0.113674203	0.035035493
2019-11-09T02:00:00	0.2281	7.206		0.561973354	0.685195420	0.010790715	0.111325823	0.034311700
2019-11-09T02:05:00	0.2257	7.206		0.553871533	0.673607658	0.010506023	0.108388704	0.033406451
2019-11-09T02:10:00	0.2245	7.205		0.549815052	0.667826080	0.010364931	0.106933087	0.032957816
2019-11-09T02:15:00	0.2256	7.205		0.553539472	0.673133874	0.010494437	0.108269174	0.033369611
2019-11-09T02:20:00	0.2282	7.203		0.562322718	0.685696320	0.010803079	0.111453373	0.034351012
2019-11-09T02:25:00	0.2303	7.201		0.569401346	0.695866964	0.011055130	0.114053738	0.035152470
2019-11-09T02:30:00	0.2300	7.198		0.568394434	0.694417699	0.011019096	0.113681982	0.035037891
2019-11-09T02:35:00	0.2297	7.197		0.567387232	0.692968854	0.010983112	0.113310738	0.034923470
2019-11-09T02:40:00	0.2305	7.198		0.570083500	0.696849277	0.011079576	0.114305944	0.035230202
2019-11-09T02:45:00	0.2308	7.197		0.571095947	0.698307925	0.011115909	0.114680788	0.035345733
2019-11-09T02:50:00	0.2313	7.197		0.572780701	0.700737057	0.011176504	0.115305931	0.035538408
2019-11-09T02:55:00	0.2300	7.195		0.568409497	0.694439373	0.011019635	0.113687539	0.035039604
2019-11-09T03:00:00	0.2302	7.195		0.569085821	0.695412734	0.011043832	0.113937179	0.035116545
2019-11-09T03:05:00	0.2307	7.194		0.570771543	0.697840459	0.011104261	0.114560614	0.035308694
2019-11-09T03:10:00	0.2304	7.194		0.569765026	0.696390621	0.011068160	0.114188162	0.035193901
2019-11-09T03:15:00	0.2312	7.195		0.572459463	0.700273704	0.011164937	0.115186599	0.035501629
2019-11-09T03:20:00	0.2308	7.196		0.571117019	0.698338293	0.011116666	0.114688596	0.035348139
2019-11-09T03:25:00	0.2312	7.196		0.572465481	0.700282384	0.011165154	0.115188834	0.035502317
2019-11-09T03:30:00	0.2315	7.195		0.573477239	0.701742033	0.011201605	0.115564894	0.035618223
2019-11-09T03:35:00	0.2319	7.196		0.574824793	0.703687447	0.011250248	0.116066737	0.035772896
2019-11-09T03:40:00	0.2314	7.196		0.573147039	0.701265565	0.011189702	0.115442094	0.035580374
2019-11-09T03:45:00	0.2320	7.196		0.575166862	0.704181520	0.011262613	0.116194304	0.035812213
2019-11-09T03:50:00	0.2321	7.196		0.575505892	0.704671297	0.011274875	0.116320808	0.035851203
2019-11-09T03:55:00	0.2320	7.196		0.575172876	0.704190206	0.011262831	0.116196548	0.035812904
2019-11-09T04:00:00	0.2309	7.194		0.571477511	0.698857870	0.011129618	0.114822219	0.035389323
2019-11-09T04:05:00	0.2310	7.193		0.571724663	0.699214153	0.011138502	0.114913876	0.035417573
2019-11-09T04:10:00	0.2302	7.191		0.569279996	0.695692260	0.011050784	0.114008903	0.035138651
2019-11-09T04:15:00	0.2304	7.190		0.569863868	0.696532962	0.011071702	0.114224711	0.035205165
2019-11-09T04:20:00	0.2303	7.187		0.569438020	0.695919767	0.011056444	0.114067290	0.035156647
2019-11-09T04:25:00	0.2293	7.184		0.566318040	0.691431754	0.010944978	0.112917320	0.034802215
2019-11-09T04:30:00	0.2283	7.178		0.562858063	0.686464064	0.010822038	0.111648968	0.034411296
2019-11-09T04:35:00	0.2274	7.169		0.559732194	0.681984559	0.010711576	0.110509355	0.034060057
2019-11-09T04:40:00	0.2272	7.159		0.558967524	0.680889980	0.010684642	0.110231480	0.033974413
2019-11-09T04:45:00	0.2275	7.148		0.560228146	0.682694742	0.010729063	0.110689770	0.034115662
2019-11-09T04:50:00	0.2267	7.137		0.557437682	0.678701545	0.010630859	0.109676613	0.033803397
2019-11-09T04:55:00	0.2281	7.126		0.562073487	0.685338975	0.010794258	0.111362373	0.034322965
2019-11-09T05:00:00	0.2293	7.117		0.566029369	0.691016914	0.010934694	0.112811221	0.034769514
2019-11-09T05:05:00	0.2286	7.108		0.563917852	0.687984616	0.010859619	0.112036690	0.034530796
2019-11-09T05:10:00	0.2282	7.103		0.562479644	0.685921345	0.010808635	0.111510690	0.034368678
2019-11-09T05:15:00	0.2287	7.099		0.564076119	0.688211771	0.010865237	0.112094650	0.034548660
2019-11-09T05:20:00	0.2285	7.095		0.563312401	0.687115821	0.010838141	0.111815103	0.034462501
2019-11-09T05:25:00	0.2284	7.091		0.563222959	0.686987501	0.010834970	0.111782387	0.034452417
2019-11-09T05:30:00	0.2301	7.087		0.568861169	0.695089375	0.011035791	0.113854226	0.035090978
2019-11-09T05:35:00	0.2311	7.084		0.572136785	0.699808362	0.011153325	0.115066796	0.035464704
2019-11-09T05:40:00	0.2305	7.084		0.570365472	0.697255433	0.011089689	0.114410277	0.035262359
2019-11-09T05:45:00	0.2305	7.082		0.570276210	0.697126852	0.011086487	0.114377244	0.035252177
2019-11-09T05:50:00	0.2320	7.081		0.575231070	0.704274270	0.011264935	0.116218257	0.035819596
2019-11-09T05:55:00	0.2322	7.079		0.575813951	0.705116416	0.011286023	0.116435816	0.035886649
2019-11-09T06:00:00	0.2316	7.077		0.574044497	0.702560780	0.011222068	0.115776012	0.035683291
2019-11-09T06:05:00	0.2316	7.075		0.573955329	0.702432062	0.011218851	0.115742813	0.035673059
2019-11-09T06:10:00	0.2321	7.075		0.575546575	0.704730076	0.011276347	0.116335993	0.035855883
2019-11-09T06:15:00	0.2310	7.074		0.571759370	0.699264189	0.011139750	0.114926750	0.035421541
2019-11-09T06:20:00	0.2304	7.073		0.569987866	0.696711539	0.011076147	0.114270569	0.035219299
2019-11-09T06:25:00	0.2301	7.074		0.568888813	0.695129163	0.011036781	0.113864432	0.035094124
2019-11-09T06:30:00	0.2310	7.074		0.571828060	0.699363220	0.011142220	0.114952232	0.035429394
2019-11-09T06:35:00	0.2311	7.075		0.572075187	0.699719539	0.011151109	0.115043933	0.035457657
2019-11-09T06:40:00	0.2315	7.076		0.573667287	0.702016308	0.011208459	0.115635603	0.035640016
2019-11-09T06:45:00	0.2324	7.077		0.576602527	0.706256199	0.011314584	0.116730482	0.035977468
2019-11-09T06:50:00	0.2321	7.077		0.575505549	0.704670802	0.011274863	0.116320680	0.035851163
2019-11-09T06:55:00	0.2316	7.077		0.574072100	0.702600627	0.011223065	0.115786290	0.035686459
2019-11-09T07:00:00	0.2310	7.077		0.571965435	0.699561288	0.011147161	0.115003203	0.035445104
2019-11-09T07:05:00	0.2311	7.080		0.572212553	0.699917621	0.011156051	0.115094921	0.035473372
2019-11-09T07:10:00	0.2311	7.082		0.572123338	0.699788971	0.011152841	0.115061805	0.035463166
2019-11-09T07:15:00	0.2316	7.084		0.574051578	0.702571002	0.011222324	0.115778649	0.035684104
2019-11-09T07:20:00	0.2315	7.086		0.573626240	0.701957066	0.011206978	0.115620329	0.035635308
2019-11-09T07:25:00	0.2320	7.089		0.575217635	0.704254862	0.011264449	0.116213245	0.035818051
2019-11-09T07:30:00	0.2320	7.093		0.575128497	0.704126101	0.011261226	0.116179993	0.035807802
2019-11-09T07:35:00	0.2311	7.097		0.572349913	0.700115710	0.011160994	0.115145919	0.035489090
2019-11-09T07:40:00	0.2311	7.102		0.572260702	0.699987055	0.011157784	0.115112796	0.035478882
2019-11-09T07:45:00	0.2311	7.109		0.572171489	0.699858404	0.011154573	0.115079677	0.035468674
2019-11-09T07:50:00	0.2306	7.116		0.570400193	0.697305450	0.011090935	0.114423128	0.035266319
2019-11-09T07:55:00	0.2303	7.125		0.569637856	0.696207500	0.011063603	0.114141149	0.035179411
2019-11-09T08:00:00	0.2297	7.133		0.567528520	0.693172044	0.010988156	0.113362778	0.034939509
2019-11-09T08:05:00	0.2296	7.141		0.567102388	0.692559262	0.010972946	0.113205859	0.034891145
2019-11-09T08:10:00	0.2298	7.147		0.567686623	0.693399437	0.010993802	0.113421026	0.034957462
2019-11-09T08:15:00	0.2299	7.153		0.568270761	0.694239753	0.011014674	0.113636364	0.035023831
2019-11-09T08:20:00	0.2307	7.162		0.570874092	0.697988223	0.011107943	0.114598596	0.035320400
2019-11-09T08:25:00	0.2301	7.169		0.568765501	0.694951685	0.011032368	0.113818910	0.035080093
2019-11-09T08:30:00	0.2303	7.175		0.569686041	0.696276883	0.011065329	0.114158961	0.035184900
2019-11-09T08:35:00	0.2308	7.182		0.571279228	0.698572071	0.011122493	0.114748712	0.035366667
2019-11-09T08:40:00	0.2303	7.188		0.569507480	0.696019774	0.011058932	0.114092959	0.035164558
2019-11-09T08:45:00	0.2302	7.194		0.569081589	0.695406642	0.011043680	0.113935616	0.035116063
2019-11-09T08:50:00	0.2301	7.200		0.568992294	0.695278108	0.011040484	0.113902640	0.035105900
2019-11-09T08:55:00	0.2302	7.206		0.569239622	0.695634136	0.011049338	0.113993987	0.035134054
2019-11-09T09:00:00	0.2304	7.216		0.569823501	0.696474828	0.011070255	0.114209783	0.035200564
2019-11-09T09:05:00	0.2311	7.226		0.572089358	0.699739973	0.011151619	0.115049193	0.035459279
2019-11-09T09:10:00	0.2309	7.235		0.571663781	0.699126384	0.011136314	0.114891294	0.035410613
2019-11-09T09:15:00	0.2311	7.243		0.572247256	0.699967664	0.011157300	0.115107804	0.035477343
2019-11-09T09:20:00	0.2316	7.253		0.573839277	0.702264547	0.011214663	0.115699612	0.035659744
2019-11-09T09:25:00	0.2317	7.259		0.574086263	0.702621072	0.011223576	0.115791564	0.035688085
2019-11-09T09:30:00	0.2321	7.263		0.575677449	0.704919173	0.011281083	0.116384849	0.035870941
2019-11-09T09:35:00	0.2322	7.261		0.575924305	0.705275887	0.011290018	0.116477029	0.035899352
2019-11-09T09:40:00	0.2324	7.260		0.576507070	0.706118201	0.011311125	0.116694793	0.035966468
2019-11-09T09:45:00	0.2327	7.261		0.577761384	0.707932108	0.011356624	0.117164200	0.036111144
2019-11-09T09:50:00	0.2325	7.260		0.577000648	0.706831825	0.011329018	0.116879391	0.036023364
2019-11-09T09:55:00	0.2327	7.264		0.577583235	0.707674401	0.011350156	0.117097471	0.036090578
2019-11-09T10:00:00	0.2328	7.264		0.577829957	0.708031311	0.011359114	0.117189889	0.036119062
2019-11-09T10:05:00	0.2322	7.265		0.575921832	0.705272313	0.011289928	0.116476106	0.035899067
2019-11-09T10:10:00	0.2318	7.266		0.574684903	0.703485423	0.011245194	0.116014589	0.035756823
2019-11-09T10:15:00	0.2319	7.263		0.574792095	0.703640225	0.011249067	0.116054547	0.035769139
2019-11-09T10:20:00	0.2313	7.262		0.572882315	0.700883643	0.011180164	0.115343692	0.035550046
2019-11-09T10:25:00	0.2311	7.261		0.572317002	0.700068247	0.011159810	0.115133699	0.035485324
2019-11-09T10:30:00	0.2310	7.262		0.571751598	0.699252985	0.011139471	0.114923867	0.035420652
2019-11-09T10:35:00	0.2311	7.262		0.572195221	0.699892626	0.011155427	0.115088487	0.035471389
2019-11-09T10:40:00	0.2306	7.267		0.570620515	0.697622858	0.011098840	0.114504688	0.035291457
2019-11-09T10:45:00	0.2306	7.277		0.570391351	0.697292713	0.011090617	0.114419855	0.035265311
2019-11-09T10:50:00	0.2305	7.287		0.570162171	0.696962589	0.011082397	0.114335048	0.035239172
2019-11-09T10:55:00	0.2308	7.292		0.571278885	0.698571577	0.011122481	0.114748585	0.035366628
2019-11-09T11:00:00	0.2306	7.289		0.570376830	0.697271795	0.011090096	0.114414481	0.035263654
2019-11-09T11:05:00	0.2300	7.286		0.568464639	0.694518719	0.011021606	0.113707882	0.035045874
2019-11-09T11:10:00	0.2299	7.279		0.568235333	0.694188779	0.011013408	0.113623298	0.035019804
2019-11-09T11:15:00	0.2302	7.273		0.569352662	0.695796873	0.011053386	0.114035750	0.035146926
2019-11-09T11:20:00	0.2299	7.274		0.568113409	0.694013365	0.011009050	0.113578337	0.035005947
2019-11-09T11:25:00	0.2303	7.276		0.569567370	0.696106006	0.011061077	0.114115094	0.035171380
2019-11-09T11:30:00	0.2303	7.283		0.569674719	0.696260580	0.011064923	0.114154776	0.035183610
2019-11-09T11:35:00	0.2303	7.291		0.569445493	0.695930525	0.011056711	0.114070052	0.035157498
2019-11-09T11:40:00	0.2298	7.296		0.567869549	0.693662555	0.011000336	0.113488438	0.034978239
2019-11-09T11:45:00	0.2298	7.300		0.567976950	0.693817053	0.011004173	0.113528027	0.034990440
2019-11-09T11:50:00	0.2297	7.305		0.567410844	0.693002810	0.010983954	0.113319434	0.034926150
2019-11-09T11:55:00	0.2298	7.311		0.567855017	0.693641652	0.010999817	0.113483082	0.034976588
2019-11-09T12:00:00	0.2294	7.314		0.566615234	0.691858913	0.010955571	0.113026605	0.034835897
2019-11-09T12:05:00	0.2295	7.314		0.566722674	0.692013356	0.010959402	0.113066126	0.034848078
2019-11-09T12:10:00	0.2296	7.314		0.567166935	0.692652071	0.010975249	0.113229621	0.034898469
2019-11-09T12:15:00	0.2289	7.316		0.564915977	0.689417541	0.010895075	0.112402476	0.034643535
2019-11-09T12:20:00	0.2287	7.318		0.564012279	0.688120141	0.010862971	0.112071268	0.034541453
2019-11-09T12:25:00	0.2280	7.318		0.561759286	0.684888551	0.010783144	0.111247705	0.034287623
2019-11-09T12:30:00	0.2279	7.317		0.561529539	0.684559248	0.010775020	0.111163896	0.034261792
2019-11-09T12:35:00	0.2278	7.319		0.560962387	0.683746517	0.010754980	0.110957143	0.034198069
2019-11-09T12:40:00	0.2273	7.325		0.559382608	0.681484088	0.010699258	0.110382274	0.034020889
2019-11-09T12:45:00	0.2274	7.328		0.559827804	0.682121453	0.010714946	0.110544124	0.034070773
2019-11-09T12:50:00	0.2277	7.330		0.560610401	0.683242255	0.010742552	0.110828927	0.034158552
2019-11-09T12:55:00	0.2277	7.330		0.560718026	0.683396430	0.010746351	0.110868123	0.034170632
2019-11-09T13:00:00	0.2274	7.327		0.559813239	0.682100599	0.010714433	0.110538827	0.034069140
2019-11-09T13:05:00	0.2270	7.324		0.558570595	0.680321988	0.010670674	0.110087379	0.033929999
2019-11-09T13:10:00	0.2273	7.322		0.559353474	0.681442384	0.010698232	0.110371687	0.034017626
2019-11-09T13:15:00	0.2278	7.321		0.561148493	0.684013178	0.010761554	0.111024966	0.034218973
2019-11-09T13:20:00	0.2282	7.320		0.562605355	0.686101624	0.010813086	0.111556617	0.034382833
2019-11-09T13:25:00	0.2287	7.317		0.564061610	0.688190946	0.010864722	0.112089336	0.034547022
2019-11-09T13:30:00	0.2297	7.313		0.567538476	0.693186362	0.010988511	0.113366445	0.034940639
2019-11-09T13:35:00	0.2302	7.307		0.569329292	0.695763228	0.011052549	0.114027115	0.035144264
2019-11-09T13:40:00	0.2305	7.300		0.570109762	0.696887103	0.011080518	0.114315659	0.035233196
2019-11-09T13:45:00	0.2303	7.292		0.569544001	0.696072359	0.011060240	0.114106457	0.035168718
2019-11-09T13:50:00	0.2306	7.286		0.570660912	0.697681060	0.011100290	0.114519646	0.035296067
2019-11-09T13:55:00	0.2311	7.278		0.572113815	0.699775238	0.011152498	0.115058270	0.035462076
2019-11-09T14:00:00	0.2310	7.272		0.571884748	0.699444951	0.011144259	0.114973264	0.035435877
2019-11-09T14:05:00	0.2313	7.262		0.573000912	0.701054738	0.011184437	0.115387771	0.035563632
2019-11-09T14:10:00	0.2311	7.256		0.572099301	0.699754310	0.011151976	0.115052883	0.035460416
2019-11-09T14:15:00	0.2310	7.246		0.571870233	0.699424024	0.011143737	0.114967879	0.035434217
2019-11-09T14:20:00	0.2305	7.231		0.570295382	0.697154468	0.011087175	0.114384338	0.035254364
2019-11-09T14:25:00	0.2304	7.219		0.569729650	0.696339680	0.011066892	0.114175083	0.035189870
2019-11-09T14:30:00	0.2305	7.207		0.570173530	0.696978950	0.011082804	0.114339251	0.035240467
2019-11-09T14:35:00	0.2303	7.198		0.569607779	0.696164191	0.011062525	0.114130030	0.035175984
2019-11-09T14:40:00	0.2304	7.190		0.569715127	0.696318766	0.011066371	0.114169714	0.035188215
2019-11-09T14:45:00	0.2301	7.180		0.568812668	0.695019569	0.011034056	0.113836321	0.035085460
2019-11-09T14:50:00	0.2300	7.170		0.568583385	0.694689596	0.011025853	0.113751697	0.035059378
2019-11-09T14:55:00	0.2287	7.161		0.563974325	0.688065667	0.010861624	0.112057369	0.034537169
2019-11-09T15:00:00	0.2284	7.152		0.563070383	0.686768619	0.010829562	0.111726590	0.034435220
2019-11-09T15:05:00	0.2290	7.143		0.565200504	0.689826163	0.010905192	0.112506859	0.034675707
2019-11-09T15:10:00	0.2290	7.134		0.565307987	0.689980542	0.010909016	0.112546304	0.034687864
2019-11-09T15:15:00	0.2291	7.125		0.565415467	0.690134926	0.010912840	0.112585754	0.034700023
2019-11-09T15:20:00	0.2296	7.114		0.567207371	0.692710215	0.010976692	0.113244508	0.034903057
2019-11-09T15:25:00	0.2300	7.106		0.568661709	0.694802310	0.011028655	0.113780601	0.035068286
2019-11-09T15:30:00	0.2306	7.098		0.570451950	0.697380010	0.011092791	0.114442285	0.035272224
2019-11-09T15:35:00	0.2307	7.091		0.570895737	0.698019412	0.011108720	0.114606613	0.035322871
2019-11-09T15:40:00	0.2309	7.082		0.571675858	0.699143795	0.011136748	0.114895774	0.035411993
2019-11-09T15:45:00	0.2309	7.074		0.571446763	0.698813549	0.011128513	0.114810819	0.035385809
2019-11-09T15:50:00	0.2310	7.064		0.571890424	0.699453135	0.011144463	0.114975370	0.035436526
2019-11-09T15:55:00	0.2308	7.053		0.571324951	0.698637973	0.011124136	0.114765660	0.035371891
2019-11-09T16:00:00	0.2309	7.044		0.571432246	0.698792625	0.011127991	0.114805437	0.035384151
2019-11-09T16:05:00	0.2311	7.034		0.572155604	0.699835498	0.011154002	0.115073781	0.035466857
2019-11-09T16:10:00	0.2321	7.024		0.575567848	0.704760812	0.011277117	0.116343934	0.035858330
2019-11-09T16:15:00	0.2317	7.014		0.574274184	0.702892372	0.011230360	0.115861551	0.035709655
2019-11-09T16:20:00	0.2324	7.004		0.576676829	0.706363618	0.011317278	0.116758266	0.035986031
2019-11-09T16:25:00	0.2325	6.995		0.577063263	0.706922370	0.011331289	0.116902820	0.036030585
2019-11-09T16:30:00	0.2324	6.987		0.576442049	0.706024206	0.011308769	0.116670486	0.035958977
2019-11-09T16:35:00	0.2329	6.979		0.578171771	0.708525866	0.011371531	0.117317989	0.036158544
2019-11-09T16:40:00	0.2333	6.970		0.579565039	0.710542724	0.011422214	0.117840876	0.036319702
2019-11-09T16:45:00	0.2328	6.962		0.577937091	0.708186308	0.011363005	0.117230032	0.036131434
2019-11-09T16:50:00	0.2330	6.954		0.578659107	0.709231138	0.011389246	0.117500749	0.036214872
2019-11-09T16:55:00	0.2338	6.946		0.581394211	0.713193032	0.011488929	0.118529160	0.036531838
2019-11-09T17:00:00	0.2332	6.937		0.579431496	0.710349342	0.011417351	0.117790707	0.036304240
2019-11-09T17:05:00	0.2331	6.929		0.578810701	0.709450565	0.011394759	0.117557629	0.036232403
2019-11-09T17:10:00	0.2330	6.921		0.578525530	0.709037806	0.011384389	0.117450641	0.036199428
2019-11-09T17:15:00	0.2325	6.912		0.576897099	0.706682096	0.011325263	0.116840652	0.036011424
2019-11-09T17:20:00	0.2325	6.902		0.576947657	0.706755200	0.011327096	0.116859565	0.036017253
2019-11-09T17:25:00	0.2322	6.891		0.575990478	0.705371518	0.011292413	0.116501746	0.035906970
2019-11-09T17:30:00	0.2322	6.882		0.576041049	0.705444603	0.011294244	0.116520637	0.035912792
2019-11-09T17:35:00	0.2320	6.873		0.575083622	0.704061282	0.011259604	0.116163255	0.035802643
2019-11-09T17:40:00	0.2323	6.862		0.576142188	0.705590776	0.011297907	0.116558422	0.035924438
2019-11-09T17:45:00	0.2327	6.850		0.577536262	0.707606455	0.011348451	0.117079880	0.036085156
2019-11-09T17:50:00	0.2333	6.836		0.579601075	0.710594911	0.011423526	0.117854416	0.036323876
2019-11-09T17:55:00	0.2334	6.823		0.579987188	0.711154134	0.011437593	0.117999541	0.036368604
2019-11-09T18:00:00	0.2336	6.809		0.580708782	0.712199581	0.011463906	0.118271005	0.036452272
2019-11-09T18:05:00	0.2343	6.791		0.583107028	0.715677269	0.011551580	0.119175519	0.036731052
2019-11-09T18:10:00	0.2345	6.776		0.583492755	0.716237057	0.011565713	0.119321328	0.036775992
2019-11-09T18:15:00	0.2343	6.759		0.582872677	0.715337228	0.011542997	0.119086977	0.036703763
2019-11-09T18:20:00	0.2341	6.742		0.582252490	0.714437559	0.011520301	0.118852821	0.036631594
2019-11-09T18:25:00	0.2337	6.725		0.580961288	0.712565514	0.011473121	0.118366074	0.036481573
2019-11-09T18:30:00	0.2337	6.707		0.581011787	0.712638704	0.011474964	0.118385091	0.036487435
2019-11-09T18:35:00	0.2340	6.688		0.582068566	0.714170813	0.011513574	0.118783424	0.036610205
2019-11-09T18:40:00	0.2344	6.671		0.583460290	0.716189937	0.011564523	0.119309052	0.036772209
2019-11-09T18:45:00	0.2347	6.652		0.584181171	0.717236432	0.011590959	0.119581783	0.036856267
2019-11-09T18:50:00	0.2353	6.636		0.586242085	0.720230616	0.011666705	0.120363244	0.037097121
2019-11-09T18:55:00	0.2361	6.622		0.588971299	0.724201175	0.011767403	0.121402126	0.037417314
2019-11-09T19:00:00	0.2359	6.612		0.588352186	0.723299923	0.011744521	0.121166058	0.037344556
2019-11-09T19:05:00	0.2354	6.603		0.586728303	0.720937530	0.011684612	0.120547990	0.037154061
2019-11-09T19:10:00	0.2353	6.596		0.586443774	0.720523827	0.011674131	0.120439861	0.037120735
2019-11-09T19:15:00	0.2354	6.586		0.586494194	0.720597133	0.011675988	0.120459018	0.037126639
2019-11-09T19:20:00	0.2350	6.575		0.585204549	0.718722798	0.011628540	0.119969504	0.036975766
2019-11-09T19:25:00	0.2351	6.563		0.585590046	0.719282924	0.011642713	0.120115721	0.037020832
2019-11-09T19:30:00	0.2349	6.554		0.584970339	0.718382550	0.011619934	0.119880713	0.036948400
2019-11-09T19:35:00	0.2352	6.544		0.586025929	0.719916408	0.011658749	0.120281159	0.037071821
2019-11-09T19:40:00	0.2353	6.530		0.586411336	0.720476668	0.011672937	0.120427537	0.037116936
2019-11-09T19:45:00	0.2354	6.514		0.586796701	0.721036989	0.011687132	0.120573990	0.037162075
2019-11-09T19:50:00	0.2353	6.495		0.586177205	0.720136302	0.011664317	0.120338603	0.037089526
2019-11-09T19:55:00	0.2353	6.475		0.586227629	0.720209602	0.011666173	0.120357754	0.037095429
2019-11-09T20:00:00	0.2350	6.454		0.585272976	0.718822213	0.011631055	0.119995451	0.036983763
2019-11-09T20:05:00	0.2343	6.431		0.582977151	0.715488814	0.011546823	0.119126445	0.036715927
2019-11-09T20:10:00	0.2336	6.408		0.580679826	0.712157620	0.011462850	0.118260106	0.036448913
2019-11-09T20:15:00	0.2337	6.385		0.581065819	0.712717017	0.011476937	0.118405441	0.036493707
2019-11-09T20:20:00	0.2335	6.358		0.580445313	0.711817816	0.011454295	0.118171851	0.036421712
2019-11-09T20:25:00	0.2334	6.334		0.579824697	0.710918777	0.011431672	0.117938456	0.036349777
2019-11-09T20:30:00	0.2336	6.312		0.580546325	0.711964175	0.011457979	0.118209861	0.036433427
2019-11-09T20:35:00	0.2335	6.287		0.580261295	0.711551209	0.011447585	0.118102623	0.036400375
2019-11-09T20:40:00	0.2333	6.262		0.579640646	0.710652218	0.011424968	0.117869285	0.036328458
2019-11-09T20:45:00	0.2329	6.238		0.578348484	0.708781582	0.011377953	0.117384243	0.036178964
2019-11-09T20:50:00	0.2328	6.213		0.578063275	0.708368878	0.011367589	0.117277321	0.036146009
2019-11-09T20:55:00	0.2329	6.187		0.578113816	0.708442006	0.011369425	0.117296265	0.036151848
2019-11-09T21:00:00	0.2328	6.164		0.577828587	0.708029330	0.011359065	0.117189377	0.036118904
2019-11-09T21:05:00	0.2322	6.141		0.575863877	0.705188562	0.011287830	0.116454461	0.035892396
2019-11-09T21:10:00	0.2323	6.117		0.576250401	0.705747183	0.011301826	0.116598857	0.035936900
2019-11-09T21:15:00	0.2326	6.096		0.577308614	0.707277191	0.011340190	0.116994647	0.036058886
2019-11-09T21:20:00	0.2320	6.074		0.575343612	0.704436849	0.011269005	0.116260247	0.035832537
2019-11-09T21:25:00	0.2319	6.054		0.575058159	0.704024502	0.011258683	0.116153758	0.035799716
2019-11-09T21:30:00	0.2315	6.031		0.573428116	0.701671146	0.011199834	0.115546622	0.035612591
2019-11-09T21:35:00	0.2315	6.009		0.573478724	0.701744177	0.011201659	0.115565447	0.035618393
2019-11-09T21:40:00	0.2319	5.986		0.574873858	0.703758309	0.011252021	0.116085031	0.035778534
2019-11-09T21:45:00	0.2317	5.963		0.574252255	0.702860712	0.011229568	0.115853383	0.035707138
2019-11-09T21:50:00	0.2322	5.940		0.575983058	0.705360794	0.011292145	0.116498974	0.035906115
2019-11-09T21:55:00	0.2319	5.918		0.575025616	0.703977497	0.011257507	0.116141621	0.035795976
2019-11-09T22:00:00	0.2318	5.895		0.574740136	0.703565187	0.011247189	0.116035178	0.035763169
2019-11-09T22:05:00	0.2315	5.874		0.573449174	0.701701534	0.011200593	0.115554455	0.035615005
2019-11-09T22:10:00	0.2313	5.848		0.572830328	0.700808646	0.011178291	0.115324372	0.035544092
2019-11-09T22:15:00	0.2314	5.825		0.573220195	0.701371119	0.011192339	0.115469295	0.035588758
2019-11-09T22:20:00	0.2312	5.802		0.572601308	0.700478291	0.011170044	0.115239283	0.035517866
2019-11-09T22:25:00	0.2313	5.782		0.572991201	0.701040727	0.011184087	0.115384161	0.035562519
2019-11-09T22:30:00	0.2307	5.761		0.571026785	0.698208256	0.011113425	0.114655162	0.035337834
2019-11-09T22:35:00	0.2307	5.741		0.570743991	0.697800760	0.011103272	0.114550410	0.035305549
2019-11-09T22:40:00	0.2304	5.724		0.569788126	0.696423887	0.011068987	0.114196703	0.035196533
2019-11-09T22:45:00	0.2305	5.704		0.570178332	0.696985867	0.011082977	0.114341027	0.035241015
2019-11-09T22:50:00	0.2304	5.683		0.569895468	0.696578470	0.011072835	0.114236396	0.035208767
2019-11-09T22:55:00	0.2295	5.662		0.566918964	0.692295543	0.010966402	0.113138349	0.034870338
2019-11-09T23:00:00	0.2293	5.638		0.566298961	0.691404335	0.010944298	0.112910307	0.034800053
2019-11-09T23:05:00	0.2284	5.614		0.562982195	0.686642116	0.010826436	0.111694346	0.034425282
2019-11-09T23:10:00	0.2282	5.585		0.562361492	0.685751918	0.010804451	0.111467534	0.034355377
2019-11-09T23:15:00	0.2279	5.557		0.561403331	0.684378368	0.010770559	0.111117870	0.034247607
2019-11-09T23:20:00	0.2273	5.530		0.559432387	0.681555346	0.010701012	0.110400365	0.034026465
2019-11-09T23:25:00	0.2275	5.503		0.560161253	0.682598943	0.010726704	0.110665428	0.034108160
2019-11-09T23:30:00	0.2276	5.477		0.560552536	0.683159366	0.010740509	0.110807856	0.034152057
2019-11-09T23:35:00	0.2276	5.455		0.560268892	0.682753098	0.010730501	0.110704599	0.034120233
2019-11-09T23:40:00	0.2273	5.431		0.559310155	0.681380376	0.010696706	0.110355946	0.034012774
2019-11-09T23:45:00	0.2267	5.407		0.557338027	0.678559057	0.010627360	0.109640519	0.033792273
2019-11-09T23:50:00	0.2267	5.382		0.557391891	0.678636071	0.010629251	0.109660027	0.033798285
2019-11-09T23:55:00	0.2265	5.362		0.556770192	0.677747307	0.010607436	0.109434963	0.033728919
2019-11-10T00:00:00	0.2268	5.341		0.557837341	0.679273071	0.010644896	0.109821431	0.033848032
2019-11-10T00:05:00	0.2265	5.321		0.556877935	0.677901312	0.010611215	0.109473951	0.033740935
2019-11-10T00:10:00	0.2268	5.301		0.557607336	0.678944140	0.010636817	0.109738076	0.033822341
2019-11-10T00:15:00	0.2271	5.282		0.558674229	0.680470273	0.010674320	0.110124993	0.033941592
2019-11-10T00:20:00	0.2262	5.262		0.555688133	0.676201183	0.010569521	0.109043802	0.033608359
2019-11-10T00:25:00	0.2254	5.240		0.553037664	0.672418067	0.010476941	0.108088667	0.033313977
2019-11-10T00:30:00	0.2249	5.218		0.551400329	0.670083918	0.010419955	0.107500757	0.033132777
2019-11-10T00:35:00	0.2248	5.195		0.551115937	0.669678721	0.010410073	0.107398807	0.033101355
2019-11-10T00:40:00	0.2250	5.169		0.551508239	0.670237685	0.010423706	0.107539453	0.033144704
2019-11-10T00:45:00	0.2252	5.149		0.552238766	0.671278901	0.010449116	0.107801607	0.033225502
2019-11-10T00:50:00	0.2247	5.129		0.550601054	0.668945290	0.010392195	0.107214355	0.033044505
2019-11-10T00:55:00	0.2247	5.109		0.550655021	0.669022155	0.010394068	0.107233681	0.033050462
2019-11-10T01:00:00	0.2247	5.093		0.550708989	0.669099021	0.010395941	0.107253008	0.033056419
2019-11-10T01:05:00	0.2244	5.075		0.549747614	0.667730077	0.010362594	0.106908972	0.032950383
2019-11-10T01:10:00	0.2250	5.059		0.551493639	0.670216880	0.010423198	0.107534217	0.033143090
2019-11-10T01:15:00	0.2245	5.043		0.549855575	0.667883770	0.010366336	0.106947579	0.032962282
2019-11-10T01:20:00	0.2246	5.028		0.550248019	0.668442531	0.010379945	0.107087976	0.033005554
2019-11-10T01:25:00	0.2247	5.010		0.550640418	0.669001355	0.010393561	0.107228451	0.033048850
2019-11-10T01:30:00	0.2244	4.993		0.549679024	0.667632439	0.010360217	0.106884448	0.032942825
2019-11-10T01:35:00	0.2251	4.976		0.552101684	0.671083485	0.010444346	0.107752390	0.033210333
2019-11-10T01:40:00	0.2257	4.960		0.553846527	0.673571976	0.010505150	0.108379701	0.033403676
2019-11-10T01:45:00	0.2252	4.945		0.552209572	0.671237283	0.010448100	0.107791125	0.033222271
2019-11-10T01:50:00	0.2256	4.925		0.553616258	0.673243423	0.010497116	0.108296808	0.033378128
2019-11-10T01:55:00	0.2253	4.906		0.552655687	0.671873332	0.010463632	0.107951367	0.033271660
2019-11-10T02:00:00	0.2257	4.888		0.554062192	0.673879731	0.010512678	0.108457365	0.033427613
2019-11-10T02:05:00	0.2256	4.872		0.553778018	0.673474222	0.010502760	0.108355035	0.033396074
2019-11-10T02:10:00	0.2255	4.856		0.553493822	0.673068747	0.010492845	0.108252746	0.033364548
2019-11-10T02:15:00	0.2264	4.838		0.556251706	0.677006336	0.010589260	0.109247443	0.033671123
2019-11-10T02:20:00	0.2268	4.825		0.557656758	0.679014815	0.010638552	0.109755984	0.033827860
2019-11-10T02:25:00	0.2268	4.812		0.557710617	0.679091837	0.010640444	0.109775501	0.033833876
2019-11-10T02:30:00	0.2264	4.797		0.556413344	0.677237311	0.010594925	0.109305885	0.033689135
2019-11-10T02:35:00	0.2264	4.779		0.556467222	0.677314304	0.010596813	0.109325369	0.033695140
2019-11-10T02:40:00	0.2259	4.763		0.554831500	0.674977846	0.010539554	0.108734636	0.033513071
2019-11-10T02:45:00	0.2256	4.747		0.553533153	0.673124859	0.010494217	0.108266900	0.033368910
2019-11-10T02:50:00	0.2254	4.734		0.552910765	0.672237083	0.010472519	0.108043043	0.033299915
2019-11-10T02:55:00	0.2256	4.720		0.553640997	0.673278720	0.010497979	0.108305712	0.033380872
2019-11-10T03:00:00	0.2260	4.706		0.555047104	0.675285688	0.010547092	0.108812407	0.033537041
2019-11-10T03:05:00	0.2265	4.690		0.556790470	0.677776292	0.010608147	0.109442301	0.033731180
2019-11-10T03:10:00	0.2269	4.674		0.558195305	0.679785083	0.010657477	0.109951222	0.033888035
2019-11-10T03:15:00	0.2274	4.661		0.559599574	0.681794687	0.010706902	0.110461137	0.034045195
2019-11-10T03:20:00	0.2276	4.649		0.560328405	0.682838334	0.010732600	0.110726260	0.034126909
2019-11-10T03:25:00	0.2276	4.638		0.560382223	0.682915415	0.010734499	0.110745850	0.034132947
2019-11-10T03:30:00	0.2268	4.624		0.557735327	0.679127175	0.010641312	0.109784457	0.033836636
2019-11-10T03:35:00	0.2272	4.610		0.559139781	0.681136513	0.010690706	0.110294046	0.033993696
2019-11-10T03:40:00	0.2280	4.598		0.561893199	0.685080513	0.010787880	0.111296569	0.034302684
2019-11-10T03:45:00	0.2282	4.585		0.562621551	0.686124851	0.010813660	0.111562534	0.034384656
2019-11-10T03:50:00	0.2282	4.570		0.562338075	0.685718340	0.010803622	0.111458982	0.034352741
2019-11-10T03:55:00	0.2280	4.557		0.561717258	0.684828308	0.010781657	0.111232371	0.034282897
2019-11-10T04:00:00	0.2272	4.544		0.559071376	0.681038610	0.010688298	0.110269198	0.033986038
2019-11-10T04:05:00	0.2269	4.531		0.557968881	0.679461206	0.010649518	0.109869116	0.033862729
2019-11-10T04:10:00	0.2270	4.519		0.558554648	0.680299172	0.010670113	0.110081592	0.033928216
2019-11-10T04:15:00	0.2272	4.513		0.559140316	0.681137279	0.010690725	0.110294240	0.033993756
2019-11-10T04:20:00	0.2266	4.507		0.557024623	0.678110998	0.010616361	0.109527043	0.033757298
2019-11-10T04:25:00	0.2260	4.497		0.554907644	0.675086562	0.010542216	0.108762099	0.033521535
2019-11-10T04:30:00	0.2254	4.492		0.553127560	0.672546284	0.010480074	0.108120992	0.033323940
2019-11-10T04:35:00	0.2251	4.486		0.552023179	0.670971581	0.010441614	0.107724209	0.033201647
2019-11-10T04:40:00	0.2247	4.479		0.550580049	0.668915374	0.010391465	0.107206834	0.033042187
2019-11-10T04:45:00	0.2238	4.471		0.547443125	0.664451702	0.010282879	0.106086568	0.032696911
2019-11-10T04:50:00	0.2236	4.464		0.547014527	0.663842457	0.010268088	0.105933969	0.032649878
2019-11-10T04:55:00	0.2240	4.456		0.548279488	0.665641013	0.010311774	0.106384670	0.032788788
2019-11-10T05:00:00	0.2225	4.451		0.543106209	0.658293787	0.010133705	0.104547563	0.032222574
2019-11-10T05:05:00	0.2225	4.446		0.543016245	0.658166212	0.010130622	0.104515759	0.032212772
2019-11-10T05:10:00	0.2222	4.439		0.542247887	0.657076895	0.010104312	0.104244325	0.032129113
2019-11-10T05:15:00	0.2223	4.429		0.542497123	0.657430188	0.010112843	0.104332332	0.032156238
2019-11-10T05:20:00	0.2220	4.418		0.541389353	0.655860304	0.010074955	0.103941457	0.032035766
2019-11-10T05:25:00	0.2216	4.408		0.540281228	0.654290921	0.010037128	0.103551197	0.031915485
2019-11-10T05:30:00	0.2216	4.396		0.540191191	0.654163450	0.010034057	0.103519521	0.031905722
2019-11-10T05:35:00	0.2200	4.385		0.534665846	0.646353547	0.009846542	0.101584959	0.031309471
2019-11-10T05:40:00	0.2210	4.376		0.537973819	0.651026269	0.009958591	0.102740952	0.031665759
2019-11-10T05:45:00	0.2218	4.367		0.540939288	0.655222779	0.010059583	0.103782864	0.031986886
2019-11-10T05:50:00	0.2213	4.352		0.539152020	0.652692711	0.009998655	0.103154275	0.031793150
2019-11-10T05:55:00	0.2206	4.339		0.536684345	0.649203743	0.009914838	0.102289552	0.031526633
2019-11-10T06:00:00	0.2201	4.329		0.534894875	0.646676778	0.009854279	0.101664783	0.031334073
2019-11-10T06:05:00	0.2209	4.316		0.537862986	0.650869566	0.009954827	0.102702114	0.031653789
2019-11-10T06:10:00	0.2214	4.302		0.539470810	0.653143801	0.010009508	0.103266254	0.031827662
2019-11-10T06:15:00	0.2202	4.290		0.535304225	0.647254603	0.009868116	0.101807531	0.031378070
2019-11-10T06:20:00	0.2205	4.281		0.536233668	0.648567082	0.009899568	0.102132023	0.031478081
2019-11-10T06:25:00	0.2197	4.271		0.533763906	0.645081048	0.009816102	0.101270914	0.031212679
2019-11-10T06:30:00	0.2196	4.257		0.533333611	0.644474201	0.009801596	0.101121263	0.031166555
2019-11-10T06:35:00	0.2214	4.247		0.539360026	0.652987031	0.010005736	0.103227333	0.031815666
2019-11-10T06:40:00	0.2214	4.234		0.539609469	0.653340030	0.010014231	0.103314978	0.031842680
2019-11-10T06:45:00	0.2209	4.225		0.537821514	0.650810933	0.009953418	0.102687583	0.031649310
2019-11-10T06:50:00	0.2216	4.217		0.540108303	0.654046106	0.010031231	0.103490363	0.031896735
2019-11-10T06:55:00	0.2218	4.208		0.540697090	0.654879769	0.010051315	0.103697569	0.031960598
2019-11-10T07:00:00	0.2214	4.198		0.539588744	0.653310699	0.010013525	0.103307695	0.031840435
2019-11-10T07:05:00	0.2211	4.191		0.538480042	0.651742130	0.009975795	0.102918437	0.031720462
2019-11-10T07:10:00	0.2214	4.185		0.539408631	0.653055811	0.010007391	0.103244408	0.031820929
2019-11-10T07:15:00	0.2220	4.176		0.541355072	0.655811738	0.010073784	0.103929372	0.032032042
2019-11-10T07:20:00	0.2226	4.168		0.543639528	0.659050207	0.010151989	0.104736204	0.032280715
2019-11-10T07:25:00	0.2228	4.164		0.544227715	0.659884719	0.010172175	0.104944453	0.032344900
2019-11-10T07:30:00	0.2228	4.162		0.544137781	0.659757103	0.010169087	0.104912598	0.032335082
2019-11-10T07:35:00	0.2229	4.158		0.544386880	0.660110589	0.010177641	0.105000841	0.032362279
2019-11-10T07:40:00	0.2235	4.155		0.546669339	0.663351888	0.010256183	0.105811148	0.032612023
2019-11-10T07:45:00	0.2232	4.155		0.545562902	0.661780114	0.010218071	0.105417953	0.032490837
2019-11-10T07:50:00	0.2225	4.155		0.543099794	0.658284690	0.010133485	0.104545295	0.032221875
2019-11-10T07:55:00	0.2228	4.156		0.544027145	0.659600121	0.010165289	0.104873417	0.032323006
2019-11-10T08:00:00	0.2229	4.156		0.544615267	0.660434726	0.010185486	0.105081780	0.032387225
2019-11-10T08:05:00	0.2240	4.155		0.548252409	0.665602497	0.010310838	0.106375012	0.032785812
2019-11-10T08:10:00	0.2243	4.157		0.549178384	0.666919883	0.010342875	0.106705532	0.032887681
2019-11-10T08:15:00	0.2243	4.160		0.549427122	0.667273883	0.010351489	0.106794405	0.032915073
2019-11-10T08:20:00	0.2238	4.166		0.547644227	0.664737617	0.010289823	0.106158208	0.032718991
2019-11-10T08:25:00	0.2243	4.174		0.549247520	0.667018272	0.010345269	0.106730230	0.032895293
2019-11-10T08:30:00	0.2243	4.183		0.549157715	0.666890471	0.010342159	0.106698149	0.032885406
2019-11-10T08:35:00	0.2243	4.189		0.549406455	0.667244469	0.010350773	0.106787020	0.032912797
2019-11-10T08:40:00	0.2246	4.202		0.550332122	0.668562293	0.010382862	0.107118077	0.033014832
2019-11-10T08:45:00	0.2245	4.216		0.549903881	0.667952541	0.010368011	0.106964855	0.032967607
2019-11-10T08:50:00	0.2242	4.232		0.548798475	0.666379301	0.010329724	0.106569863	0.032845867
2019-11-10T08:55:00	0.2236	4.251		0.547015256	0.663843494	0.010268113	0.105934228	0.032649958
2019-11-10T09:00:00	0.2240	4.268		0.548280217	0.665642049	0.010311799	0.106384930	0.032788869
2019-11-10T09:05:00	0.2244	4.289		0.549544717	0.667441261	0.010355563	0.106836435	0.032928027
2019-11-10T09:10:00	0.2242	4.311		0.548777804	0.666349891	0.010329009	0.106562484	0.032843592
2019-11-10T09:15:00	0.2241	4.341		0.548687987	0.666222108	0.010325902	0.106530424	0.032833711
2019-11-10T09:20:00	0.2234	4.376		0.546227099	0.662723532	0.010240941	0.105653900	0.032563558
2019-11-10T09:25:00	0.2242	4.419		0.548846948	0.666448268	0.010331402	0.106587168	0.032851200
2019-11-10T09:30:00	0.2234	4.466		0.546386172	0.662949533	0.010246422	0.105710448	0.032580987
2019-11-10T09:35:00	0.2242	4.519		0.549005902	0.666674439	0.010336903	0.106643926	0.032868694
2019-11-10T09:40:00	0.2240	4.571		0.548238870	0.665583240	0.010310370	0.106370183	0.032784323
2019-11-10T09:45:00	0.2240	4.612		0.548149039	0.665455476	0.010307264	0.106338147	0.032774450
2019-11-10T09:50:00	0.2239	4.645		0.548059206	0.665327716	0.010304160	0.106306115	0.032764577
2019-11-10T09:55:00	0.2240	4.674		0.548308025	0.665681601	0.010312760	0.106394849	0.032791926
2019-11-10T10:00:00	0.2233	4.698		0.545846866	0.662183409	0.010227845	0.105518795	0.032521917
2019-11-10T10:05:00	0.2229	4.718		0.544596184	0.660407641	0.010184830	0.105075016	0.032385140
2019-11-10T10:10:00	0.2217	4.741		0.540631012	0.654786195	0.010049060	0.103674304	0.031953427
2019-11-10T10:15:00	0.2212	4.763		0.538699357	0.652052333	0.009983253	0.102995378	0.031744176
2019-11-10T10:20:00	0.2215	4.773		0.539823176	0.653642497	0.010021513	0.103390097	0.031865832
2019-11-10T10:25:00	0.2210	4.777		0.538230709	0.651389518	0.009967320	0.102831000	0.031693513
2019-11-10T10:30:00	0.2208	4.782		0.537317002	0.650097764	0.009936293	0.102510898	0.031594854
2019-11-10T10:35:00	0.2206	4.791		0.536742840	0.649286390	0.009916820	0.102310008	0.031532938
2019-11-10T10:40:00	0.2197	4.802		0.533788981	0.645116415	0.009816948	0.101279638	0.031215368
2019-11-10T10:45:00	0.2195	4.818		0.532874098	0.643826315	0.009786118	0.100961573	0.031117337
2019-11-10T10:50:00	0.2184	4.838		0.529235974	0.638702844	0.009664003	0.099701739	0.030729044
2019-11-10T10:55:00	0.2187	4.860		0.530362876	0.640288677	0.009701745	0.100091119	0.030849055
2019-11-10T11:00:00	0.2184	4.882		0.529106578	0.638520819	0.009659674	0.099657078	0.030715279
2019-11-10T11:05:00	0.2191	4.906		0.531594897	0.642023623	0.009743093	0.100517695	0.030980530
2019-11-10T11:10:00	0.2191	4.933		0.531700382	0.642172224	0.009746637	0.100554261	0.030991800
2019-11-10T11:15:00	0.2189	4.960		0.530784945	0.640882900	0.009715900	0.100237154	0.030894064
2019-11-10T11:20:00	0.2185	4.987		0.529528802	0.639114827	0.009673803	0.099802847	0.030760207
2019-11-10T11:25:00	0.2182	5.012		0.528612788	0.637826309	0.009643163	0.099486737	0.030662778
2019-11-10T11:30:00	0.2175	5.038		0.526333616	0.634623256	0.009567138	0.098702397	0.030421037
2019-11-10T11:35:00	0.2184	5.065		0.529164469	0.638602254	0.009661611	0.099677058	0.030721437
2019-11-10T11:40:00	0.2182	5.090		0.528588949	0.637792785	0.009642366	0.099478517	0.030660245
2019-11-10T11:45:00	0.2185	5.112		0.529716063	0.639378323	0.009680073	0.099867531	0.030780143
2019-11-10T11:50:00	0.2180	5.137		0.527778290	0.636653051	0.009615292	0.099199196	0.030574156
2019-11-10T11:55:00	0.2180	5.157		0.527883892	0.636801489	0.009618817	0.099235559	0.030585363
2019-11-10T12:00:00	0.2179	5.174		0.527648840	0.636471102	0.009610972	0.099154629	0.030560420
2019-11-10T12:05:00	0.2180	5.193		0.527754446	0.636619535	0.009614496	0.099190986	0.030571625
2019-11-10T12:10:00	0.2177	5.209		0.526837960	0.635331677	0.009583935	0.098875690	0.030474448
2019-11-10T12:15:00	0.2180	5.225		0.527965646	0.636916414	0.009621546	0.099263716	0.030594041
2019-11-10T12:20:00	0.2180	5.241		0.527730601	0.636586019	0.009613701	0.099182776	0.030569095
2019-11-10T12:25:00	0.2179	5.254		0.527495539	0.636255647	0.009605858	0.099101864	0.030544157
2019-11-10T12:30:00	0.2173	5.265		0.525556517	0.633532119	0.009541286	0.098435685	0.030338834
2019-11-10T12:35:00	0.2177	5.279		0.527025367	0.635594969	0.009590180	0.098940122	0.030494307
2019-11-10T12:40:00	0.2179	5.289		0.527471692	0.636222134	0.009605062	0.099093657	0.030541628
2019-11-10T12:45:00	0.2179	5.300		0.527577303	0.636370559	0.009608585	0.099130005	0.030552830
2019-11-10T12:50:00	0.2179	5.309		0.527682911	0.636518989	0.009612109	0.099166358	0.030564035
2019-11-10T12:55:00	0.2178	5.316		0.527107143	0.635709865	0.009592906	0.098968244	0.030502974
2019-11-10T13:00:00	0.2171	5.323		0.524826973	0.632508202	0.009517047	0.098185624	0.030261763
2019-11-10T13:05:00	0.2168	5.329		0.523909708	0.631221430	0.009486616	0.097871673	0.030165000
2019-11-10T13:10:00	0.2166	5.335		0.522992198	0.629934998	0.009456226	0.097558143	0.030068367
2019-11-10T13:15:00	0.2166	5.340		0.523097947	0.630083232	0.009459726	0.097594253	0.030079497
2019-11-10T13:20:00	0.2169	5.345		0.524226858	0.631666262	0.009497133	0.097980166	0.030198439
2019-11-10T13:25:00	0.2175	5.348		0.526037119	0.634206882	0.009557270	0.098600592	0.030389660
2019-11-10T13:30:00	0.2178	5.349		0.527165067	0.635791254	0.009594837	0.098988166	0.030509114
2019-11-10T13:35:00	0.2180	5.352		0.527952027	0.636897269	0.009621091	0.099259025	0.030592596
2019-11-10T13:40:00	0.2181	5.353		0.528057623	0.637045715	0.009624617	0.099295398	0.030603806
2019-11-10T13:45:00	0.2186	5.357		0.529865872	0.639589141	0.009685091	0.099919294	0.030796097
2019-11-10T13:50:00	0.2181	5.357		0.528268805	0.637342620	0.009631670	0.099368161	0.030626232
2019-11-10T13:55:00	0.2182	5.358		0.528714969	0.637970010	0.009646579	0.099521974	0.030673639
2019-11-10T14:00:00	0.2188	5.355		0.530522873	0.640513918	0.009707110	0.100146465	0.030866113
2019-11-10T14:05:00	0.2187	5.354		0.530288002	0.640183279	0.009699235	0.100065224	0.030841074
2019-11-10T14:10:00	0.2190	5.352		0.531414560	0.641769593	0.009737035	0.100455198	0.030961268
2019-11-10T14:15:00	0.2190	5.349		0.531179750	0.641438869	0.009729150	0.100373852	0.030936196
2019-11-10T14:20:00	0.2192	5.347		0.531965794	0.642546165	0.009755558	0.100646294	0.031020165
2019-11-10T14:25:00	0.2185	5.344		0.529688838	0.639340013	0.009679162	0.099858126	0.030777244
2019-11-10T14:30:00	0.2187	5.340		0.530134818	0.639967659	0.009694101	0.100012256	0.030824749
2019-11-10T14:35:00	0.2189	5.338		0.530921100	0.641074622	0.009720469	0.100284286	0.030908591
2019-11-10T14:40:00	0.2191	5.336		0.531707203	0.642181835	0.009746867	0.100556626	0.030992529
2019-11-10T14:45:00	0.2197	5.331		0.533513540	0.644727937	0.009807661	0.101183826	0.031185838
2019-11-10T14:50:00	0.2191	5.327		0.531577901	0.641999680	0.009742522	0.100511804	0.030978714
2019-11-10T14:55:00	0.2196	5.320		0.533384305	0.644545687	0.009803305	0.101138888	0.031171987
2019-11-10T15:00:00	0.2195	5.313		0.533149628	0.644214776	0.009795397	0.101057310	0.031146844
2019-11-10T15:05:00	0.2196	5.307		0.533255065	0.644363444	0.009798950	0.101093958	0.031158140
2019-11-10T15:10:00	0.2193	5.297		0.532340041	0.643073542	0.009768144	0.100776138	0.031060184
2019-11-10T15:15:00	0.2201	5.287		0.535165971	0.647059433	0.009863442	0.101759308	0.031363207
2019-11-10T15:20:00	0.2202	5.275		0.535271346	0.647208187	0.009867004	0.101796062	0.031374535
2019-11-10T15:25:00	0.2205	5.261		0.536396280	0.648796781	0.009905076	0.102188848	0.031495595
2019-11-10T15:30:00	0.2209	5.249		0.537860524	0.650866085	0.009954743	0.102701251	0.031653523
2019-11-10T15:35:00	0.2210	5.234		0.537965817	0.651014956	0.009958320	0.102738148	0.031664895
2019-11-10T15:40:00	0.2212	5.217		0.538750318	0.652124419	0.009984986	0.103013261	0.031749687
2019-11-10T15:45:00	0.2216	5.199		0.540213566	0.654195127	0.010034820	0.103527392	0.031908148
2019-11-10T15:50:00	0.2216	5.181		0.539979353	0.653863563	0.010026835	0.103445011	0.031882757
2019-11-10T15:55:00	0.2216	5.164		0.540084581	0.654012525	0.010030422	0.103482020	0.031894164
2019-11-10T16:00:00	0.2215	5.147		0.539850359	0.653680974	0.010022439	0.103399654	0.031868778
2019-11-10T16:05:00	0.2215	5.128		0.539658110	0.653408870	0.010015888	0.103332073	0.031847949
2019-11-10T16:10:00	0.2219	5.111		0.541162944	0.655539571	0.010067221	0.103861660	0.032011172
2019-11-10T16:15:00	0.2224	5.094		0.543006296	0.658152104	0.010130281	0.104512242	0.032211688
2019-11-10T16:20:00	0.2220	5.075		0.541457261	0.655956512	0.010077276	0.103965397	0.032043145
2019-11-10T16:25:00	0.2222	5.058		0.542282928	0.657126562	0.010105511	0.104256696	0.032132926
2019-11-10T16:30:00	0.2228	5.039		0.544125684	0.659739938	0.010168672	0.104908313	0.032333761
2019-11-10T16:35:00	0.2229	5.018		0.544611735	0.660429712	0.010185364	0.105080528	0.032386839
2019-11-10T16:40:00	0.2235	4.998		0.546453253	0.663044843	0.010248734	0.105734299	0.032588338
2019-11-10T16:45:00	0.2238	4.978		0.547616452	0.664698127	0.010288864	0.106148312	0.032715941
2019-11-10T16:50:00	0.2242	4.959		0.548779261	0.666351965	0.010329060	0.106563004	0.032843753
2019-11-10T16:55:00	0.2247	4.941		0.550618570	0.668970238	0.010392803	0.107220628	0.033046439
2019-11-10T17:00:00	0.2252	4.924		0.552456906	0.671589899	0.010456710	0.107879951	0.033249648
2019-11-10T17:05:00	0.2259	4.905		0.554632307	0.674693470	0.010532592	0.108662809	0.033490933
2019-11-10T17:10:00	0.2260	4.884		0.555116889	0.675385337	0.010549533	0.108837586	0.033544801
2019-11-10T17:15:00	0.2256	4.865		0.553573251	0.673182065	0.010495615	0.108281330	0.033373357
2019-11-10T17:20:00	0.2266	4.847		0.557099343	0.678217813	0.010618983	0.109554091	0.033765635
2019-11-10T17:25:00	0.2259	4.829		0.554542642	0.674565471	0.010529459	0.108630485	0.033480970
2019-11-10T17:30:00	0.2269	4.808		0.558067752	0.679602626	0.010652993	0.109904965	0.033873778
2019-11-10T17:35:00	0.2271	4.789		0.558889481	0.680778292	0.010681895	0.110203140	0.033965678
2019-11-10T17:40:00	0.2277	4.771		0.560723453	0.683404204	0.010746543	0.110870100	0.034171242
2019-11-10T17:45:00	0.2282	4.756		0.562556462	0.686031505	0.010811355	0.111538753	0.034377327
2019-11-10T17:50:00	0.2284	4.738		0.563039943	0.686724953	0.010828483	0.111715460	0.034431790
2019-11-10T17:55:00	0.2287	4.720		0.564197611	0.688386159	0.010869551	0.112139153	0.034562376
2019-11-10T18:00:00	0.2285	4.702		0.563332413	0.687144531	0.010838851	0.111822423	0.034464757
2019-11-10T18:05:00	0.2286	4.685		0.563815787	0.687838135	0.010855997	0.111999319	0.034519278
2019-11-10T18:10:00	0.2287	4.667		0.564299093	0.688531834	0.010873155	0.112176333	0.034573835
2019-11-10T18:15:00	0.2287	4.649		0.564108192	0.688257807	0.010866376	0.112106397	0.034552280
2019-11-10T18:20:00	0.2290	4.632		0.565265506	0.689919524	0.010907504	0.112530713	0.034683059
2019-11-10T18:25:00	0.2289	4.613		0.564737631	0.689161443	0.010888735	0.112337073	0.034623377
2019-11-10T18:30:00	0.2281	4.596		0.562186530	0.685501048	0.010798259	0.111403643	0.034335685
2019-11-10T18:35:00	0.2291	4.580		0.565366957	0.690065244	0.010911114	0.112567948	0.034694535
2019-11-10T18:40:00	0.2286	4.561		0.563827853	0.687855451	0.010856425	0.112003737	0.034520639
2019-11-10T18:45:00	0.2290	4.545		0.564985260	0.689517035	0.010897538	0.112427889	0.034651367
2019-11-10T18:50:00	0.2289	4.528		0.564794396	0.689242952	0.010890753	0.112357888	0.034629792
2019-11-10T18:55:00	0.2292	4.510		0.565951483	0.690904999	0.010931920	0.112782603	0.034760694
2019-11-10T19:00:00	0.2289	4.492		0.564749694	0.689178765	0.010889164	0.112341496	0.034624740
2019-11-10T19:05:00	0.2286	4.475		0.563884633	0.687936939	0.010858440	0.112024526	0.034527047
2019-11-10T19:10:00	0.2282	4.458		0.562344875	0.685728091	0.010803863	0.111461465	0.034353506
2019-11-10T19:15:00	0.2280	4.444		0.561816558	0.684970648	0.010785169	0.111268602	0.034294064
2019-11-10T19:20:00	0.2278	4.429		0.560950769	0.683729872	0.010754569	0.110952910	0.034196765
2019-11-10T19:25:00	0.2280	4.412		0.561771818	0.684906515	0.010783587	0.111252277	0.034289032
2019-11-10T19:30:00	0.2287	4.399		0.564278514	0.688502294	0.010872424	0.112168793	0.034571511
2019-11-10T19:35:00	0.2283	4.386		0.562738931	0.686293194	0.010817817	0.111605426	0.034397876
2019-11-10T19:40:00	0.2280	4.371		0.561873371	0.685052088	0.010787179	0.111289333	0.034300453
2019-11-10T19:45:00	0.2285	4.354		0.563368617	0.687196474	0.010840134	0.111835668	0.034468839
2019-11-10T19:50:00	0.2284	4.337		0.563177664	0.686922520	0.010833364	0.111765822	0.034447312
2019-11-10T19:55:00	0.2289	4.321		0.564672352	0.689067712	0.010886415	0.112313138	0.034616000
2019-11-10T20:00:00	0.2286	4.303		0.563807271	0.687825914	0.010855695	0.111996202	0.034518317
2019-11-10T20:05:00	0.2286	4.289		0.563953477	0.688035745	0.010860884	0.112049735	0.034534816
2019-11-10T20:10:00	0.2283	4.273		0.562751001	0.686310505	0.010818245	0.111609838	0.034399236
2019-11-10T20:15:00	0.2276	4.257		0.560535910	0.683135550	0.010739923	0.110801803	0.034150192
2019-11-10T20:20:00	0.2275	4.239		0.560007319	0.682378502	0.010721275	0.110609421	0.034090898
2019-11-10T20:25:00	0.2276	4.224		0.560491154	0.683071441	0.010738343	0.110785507	0.034145169
2019-11-10T20:30:00	0.2279	4.208		0.561312311	0.684247928	0.010767342	0.111084683	0.034237378
2019-11-10T20:35:00	0.2277	4.191		0.560783838	0.683490711	0.010748675	0.110892095	0.034178021
2019-11-10T20:40:00	0.2285	4.172		0.563628410	0.687569241	0.010849349	0.111930730	0.034498138
2019-11-10T20:45:00	0.2283	4.155		0.562763071	0.686327817	0.010818672	0.111614249	0.034400595
2019-11-10T20:50:00	0.2284	4.138		0.563246523	0.687021306	0.010835805	0.111791006	0.034455074
2019-11-10T20:55:00	0.2286	4.121		0.563729908	0.687714892	0.010852950	0.111967881	0.034509588
2019-11-10T21:00:00	0.2289	4.107		0.564887348	0.689376429	0.010894057	0.112391976	0.034640299
2019-11-10T21:05:00	0.2285	4.096		0.563348033	0.687166941	0.010839404	0.111828137	0.034466518
2019-11-10T21:10:00	0.2277	4.082		0.560795915	0.683508013	0.010749101	0.110896494	0.034179376
2019-11-10T21:15:00	0.2276	4.071		0.560267363	0.682750908	0.010730447	0.110704043	0.034120061
2019-11-10T21:20:00	0.2283	4.054		0.562775140	0.686345128	0.010819100	0.111618660	0.034401955
2019-11-10T21:25:00	0.2279	4.038		0.561572257	0.684620474	0.010776530	0.111179477	0.034266594
2019-11-10T21:30:00	0.2282	4.018		0.562393160	0.685797328	0.010805573	0.111479100	0.034358941
2019-11-10T21:35:00	0.2281	4.002		0.562202154	0.685523451	0.010798812	0.111409348	0.034337443
2019-11-10T21:40:00	0.2281	3.986		0.562011138	0.685249588	0.010792052	0.111339614	0.034315950
2019-11-10T21:45:00	0.2279	3.972		0.561482771	0.684492218	0.010773367	0.111146839	0.034256535
2019-11-10T21:50:00	0.2280	3.957		0.561629074	0.684701909	0.010778539	0.111200201	0.034272982
2019-11-10T21:55:00	0.2284	3.942		0.563124425	0.686846144	0.010831477	0.111746352	0.034441311
2019-11-10T22:00:00	0.2283	3.927		0.562933459	0.686572209	0.010824709	0.111676529	0.034419791
2019-11-10T22:05:00	0.2288	3.915		0.564374496	0.688640080	0.010875833	0.112203963	0.034582351
2019-11-10T22:10:00	0.2288	3.903		0.564466925	0.688772772	0.010879116	0.112237835	0.034592791
2019-11-10T22:15:00	0.2291	3.889		0.565570384	0.690357464	0.010918352	0.112642629	0.034717552
2019-11-10T22:20:00	0.2293	3.877		0.565999718	0.690974308	0.010933638	0.112800326	0.034766156
2019-11-10T22:25:00	0.2294	3.864		0.566428999	0.691591229	0.010948932	0.112958116	0.034814789
2019-11-10T22:30:00	0.2297	3.852		0.567531839	0.693176817	0.010988274	0.113364000	0.034939886
2019-11-10T22:35:00	0.2295	3.838		0.566950591	0.692341013	0.010967530	0.113149988	0.034873925
2019-11-10T22:40:00	0.2299	3.822		0.568053266	0.693926840	0.011006900	0.113556162	0.034999112
2019-11-10T22:45:00	0.2296	3.805		0.567135310	0.692606599	0.010974121	0.113217978	0.034894880
2019-11-10T22:50:00	0.2299	3.792		0.568237926	0.694192510	0.011013501	0.113624254	0.035020099
2019-11-10T22:55:00	0.2297	3.778		0.567656796	0.693356536	0.010992736	0.113410036	0.034954074
2019-11-10T23:00:00	0.2297	3.768		0.567412370	0.693005004	0.010984009	0.113319996	0.034926323
2019-11-10T23:05:00	0.2301	3.753		0.568851561	0.695075546	0.011035448	0.113850679	0.035089885
2019-11-10T23:10:00	0.2301	3.741		0.568943871	0.695208410	0.011038751	0.113884760	0.035100389
2019-11-10T23:15:00	0.2298	3.730		0.567689408	0.693403441	0.010993901	0.113422052	0.034957778
2019-11-10T23:20:00	0.2291	3.720		0.565423711	0.690146768	0.010913133	0.112588781	0.034700956
2019-11-10T23:25:00	0.2292	3.710		0.565853063	0.690763586	0.010928415	0.112746446	0.034749550
2019-11-10T23:30:00	0.2291	3.699		0.565608511	0.690412237	0.010919709	0.112656628	0.034721867
2019-11-10T23:35:00	0.2288	3.687		0.564352849	0.688609003	0.010875064	0.112196030	0.034579906
2019-11-10T23:40:00	0.2289	3.679		0.564782333	0.689225631	0.010890324	0.112353464	0.034628429
2019-11-10T23:45:00	0.2287	3.667		0.564200627	0.688390489	0.010869658	0.112140258	0.034562717
2019-11-10T23:50:00	0.2291	3.659		0.565641142	0.690459115	0.010920871	0.112668611	0.034725560
2019-11-10T23:55:00	0.2287	3.648		0.564048399	0.688171984	0.010864253	0.112084497	0.034545531
2019-11-11T00:00:00	0.2288	3.642		0.564477920	0.688788558	0.010879507	0.112241865	0.034594033
2019-11-11T00:05:00	0.2287	3.635		0.564233271	0.688437348	0.010870817	0.112152217	0.034566402
2019-11-11T00:10:00	0.2286	3.624		0.563651475	0.687602338	0.010850167	0.111939172	0.034500740
2019-11-11T00:15:00	0.2289	3.614		0.564755191	0.689186658	0.010889359	0.112343511	0.034625361
2019-11-11T00:20:00	0.2290	3.604		0.565184625	0.689803357	0.010904628	0.112501033	0.034673911
2019-11-11T00:25:00	0.2291	3.594		0.565614007	0.690420132	0.010919905	0.112658646	0.034722489
2019-11-11T00:30:00	0.2288	3.582		0.564358347	0.688616896	0.010875259	0.112198045	0.034580527
2019-11-11T00:35:00	0.2291	3.573		0.565461840	0.690201538	0.010914490	0.112602777	0.034705270
2019-11-11T00:40:00	0.2293	3.566		0.566228102	0.691302500	0.010941773	0.112884259	0.034792025
2019-11-11T00:45:00	0.2290	3.560		0.565309667	0.689982954	0.010909075	0.112546920	0.034688054
2019-11-11T00:50:00	0.2281	3.553		0.562030660	0.685277576	0.010792743	0.111346740	0.034318147
2019-11-11T00:55:00	0.2285	3.547		0.563472070	0.687344909	0.010843803	0.111873518	0.034480505
2019-11-11T01:00:00	0.2280	3.539		0.561878337	0.685059208	0.010787354	0.111291146	0.034301012
2019-11-11T01:05:00	0.2284	3.530		0.562982615	0.686642718	0.010826451	0.111694500	0.034425330
2019-11-11T01:10:00	0.2289	3.518		0.564760688	0.689194551	0.010889555	0.112345527	0.034625983
2019-11-11T01:15:00	0.2293	3.506		0.566200972	0.691263511	0.010940807	0.112874287	0.034788951
2019-11-11T01:20:00	0.2294	3.490		0.566630228	0.691880467	0.010956105	0.113032120	0.034837597
2019-11-11T01:25:00	0.2285	3.473		0.563352463	0.687173297	0.010839562	0.111829758	0.034467017
2019-11-11T01:30:00	0.2281	3.462		0.562095989	0.685371236	0.010795055	0.111370587	0.034325497
2019-11-11T01:35:00	0.2278	3.454		0.561176465	0.684053261	0.010762542	0.111035162	0.034222115
2019-11-11T01:40:00	0.2277	3.448		0.560931585	0.683702385	0.010753892	0.110945920	0.034194610
2019-11-11T01:45:00	0.2278	3.440		0.561024105	0.683834946	0.010757160	0.110979633	0.034205001
2019-11-11T01:50:00	0.2272	3.427		0.559091680	0.681067668	0.010689013	0.110276573	0.033988311
2019-11-11T01:55:00	0.2279	3.418		0.561546504	0.684583563	0.010775620	0.111170083	0.034263699
2019-11-11T02:00:00	0.2288	3.409		0.564336700	0.688585820	0.010874490	0.112190112	0.034578082
2019-11-11T02:05:00	0.2286	3.401		0.563754920	0.687750785	0.010853837	0.111977037	0.034512410
2019-11-11T02:10:00	0.2281	3.394		0.562161316	0.685464898	0.010797366	0.111394437	0.034332847
2019-11-11T02:15:00	0.2278	3.388		0.561241809	0.684146897	0.010764851	0.111058981	0.034229457
2019-11-11T02:20:00	0.2271	3.378		0.558634305	0.680413147	0.010672916	0.110110502	0.033937126
2019-11-11T02:25:00	0.2260	3.371		0.555011043	0.675234198	0.010545831	0.108799398	0.033533031
2019-11-11T02:30:00	0.2258	3.362		0.554427704	0.674401405	0.010525443	0.108589057	0.033468202
2019-11-11T02:35:00	0.2253	3.356		0.552829827	0.672121657	0.010469698	0.108013949	0.033290948
2019-11-11T02:40:00	0.2254	3.353		0.552922562	0.672253908	0.010472930	0.108047284	0.033301222
2019-11-11T02:45:00	0.2252	3.347		0.552338873	0.671421617	0.010452601	0.107837556	0.033236582
2019-11-11T02:50:00	0.2250	3.343		0.551755086	0.670589465	0.010432289	0.107628000	0.033171995
2019-11-11T02:55:00	0.2263	3.339		0.555904985	0.676510959	0.010577114	0.109122137	0.033632502
2019-11-11T03:00:00	0.2265	3.333		0.556673350	0.677608893	0.010604040	0.109399926	0.033718120
2019-11-11T03:05:00	0.2266	3.324		0.557103780	0.678224157	0.010619139	0.109555698	0.033766130
2019-11-11T03:10:00	0.2269	3.317		0.558209571	0.679805490	0.010657978	0.109956397	0.033889629
2019-11-11T03:15:00	0.2268	3.307		0.557626768	0.678971929	0.010637499	0.109745117	0.033824511
2019-11-11T03:20:00	0.2270	3.301		0.558394753	0.680070408	0.010664490	0.110023572	0.033910334
2019-11-11T03:25:00	0.2268	3.292		0.557811981	0.679236802	0.010644005	0.109812239	0.033845199
2019-11-11T03:30:00	0.2267	3.283		0.557229112	0.678403336	0.010623537	0.109601076	0.033780116
2019-11-11T03:35:00	0.2260	3.275		0.554956607	0.675156471	0.010543928	0.108779760	0.033526979
2019-11-11T03:40:00	0.2262	3.267		0.555725181	0.676254105	0.010570818	0.109057183	0.033612483
2019-11-11T03:45:00	0.2262	3.261		0.555817840	0.676386467	0.010574062	0.109090653	0.033622799
2019-11-11T03:50:00	0.2259	3.254		0.554558645	0.674588316	0.010530018	0.108636254	0.033482748
2019-11-11T03:55:00	0.2257	3.248		0.553975231	0.673755632	0.010509643	0.108426046	0.033417960
2019-11-11T04:00:00	0.2256	3.242		0.553729843	0.673405484	0.010501079	0.108337693	0.033390729
2019-11-11T04:05:00	0.2263	3.232		0.555985009	0.676625285	0.010579917	0.109151051	0.033641414
2019-11-11T04:10:00	0.2273	3.223		0.559251581	0.681296533	0.010694643	0.110334663	0.034006215
2019-11-11T04:15:00	0.2275	3.214		0.560153494	0.682587830	0.010726430	0.110662604	0.034107289
2019-11-11T04:20:00	0.2271	3.208		0.558692585	0.680496538	0.010674966	0.110131656	0.033943646
2019-11-11T04:25:00	0.2275	3.200		0.559932166	0.682270886	0.010718625	0.110582082	0.034082472
2019-11-11T04:30:00	0.2275	3.195		0.560158998	0.682595713	0.010726624	0.110664607	0.034107907
2019-11-11T04:35:00	0.2276	3.187		0.560385815	0.682920561	0.010734626	0.110747158	0.034133350
2019-11-11T04:40:00	0.2272	3.179		0.558925004	0.680829128	0.010683145	0.110216039	0.033969654
2019-11-11T04:45:00	0.2275	3.173		0.560164502	0.682603596	0.010726819	0.110666610	0.034108524
2019-11-11T04:50:00	0.2273	3.163		0.559378785	0.681478615	0.010699124	0.110380885	0.034020461
2019-11-11T04:55:00	0.2279	3.155		0.561292938	0.684220165	0.010766657	0.111077620	0.034235201
2019-11-11T05:00:00	0.2285	3.147		0.563543215	0.687446991	0.010846327	0.111899551	0.034488528
2019-11-11T05:05:00	0.2293	3.140		0.566128966	0.691160034	0.010938242	0.112847822	0.034780795
2019-11-11T05:10:00	0.2295	3.132		0.566692266	0.691969644	0.010958317	0.113054940	0.034844631
2019-11-11T05:15:00	0.2297	3.122		0.567592258	0.693263713	0.010990432	0.113386258	0.034946746
2019-11-11T05:20:00	0.2303	3.114		0.569501914	0.696011760	0.011058732	0.114090902	0.035163924
2019-11-11T05:25:00	0.2314	3.106		0.573092123	0.701186332	0.011187723	0.115421677	0.035574082
2019-11-11T05:30:00	0.2312	3.099		0.572645605	0.700542184	0.011171639	0.115255739	0.035522938
2019-11-11T05:35:00	0.2315	3.090		0.573544067	0.701838476	0.011204015	0.115589756	0.035625885
2019-11-11T05:40:00	0.2316	3.083		0.573770018	0.702164579	0.011212164	0.115673834	0.035651799
2019-11-11T05:45:00	0.2315	3.073		0.573659786	0.702005482	0.011208188	0.115632812	0.035639156
2019-11-11T05:50:00	0.2321	3.067		0.575566136	0.704758338	0.011277055	0.116343294	0.035858133
2019-11-11T05:55:00	0.2330	3.059		0.578478760	0.708970117	0.011382688	0.117433099	0.036194021
2019-11-11T06:00:00	0.2341	3.052		0.582395155	0.714644487	0.011525520	0.118906664	0.036648189
2019-11-11T06:05:00	0.2351	3.044		0.585637178	0.719351414	0.011644446	0.120133604	0.037026343
2019-11-11T06:10:00	0.2360	3.037		0.588541469	0.723575431	0.011751514	0.121238207	0.037366793
2019-11-11T06:15:00	0.2369	3.032		0.591777839	0.728290701	0.011871416	0.122475214	0.037748051
2019-11-11T06:20:00	0.2375	3.023		0.593674393	0.731057967	0.011941971	0.123203110	0.037972395
2019-11-11T06:25:00	0.2384	3.017		0.596572074	0.735291777	0.012050183	0.124319513	0.038316481
2019-11-11T06:30:00	0.2390	3.013		0.598799861	0.738551573	0.012133719	0.125181341	0.038582105
2019-11-11T06:35:00	0.2391	3.008		0.599024196	0.738880059	0.012142147	0.125268295	0.038608905
2019-11-11T06:40:00	0.2396	3.003		0.600583258	0.741164107	0.012200805	0.125873461	0.038795423
2019-11-11T06:45:00	0.2400	3.001		0.602141633	0.743449181	0.012259583	0.126479858	0.038982321
2019-11-11T06:50:00	0.2404	2.997		0.603365978	0.745245886	0.012305864	0.126957329	0.039129482
2019-11-11T06:55:00	0.2402	2.994		0.602589865	0.744106807	0.012276516	0.126654553	0.039036163
2019-11-11T07:00:00	0.2403	2.993		0.603147356	0.744924970	0.012297593	0.126872003	0.039103183
2019-11-11T07:05:00	0.2406	2.991		0.604038072	0.746232706	0.012331308	0.127219827	0.039210386
2019-11-11T07:10:00	0.2404	2.990		0.603262106	0.745093407	0.012301934	0.126916785	0.039116986
2019-11-11T07:15:00	0.2410	2.989		0.605485687	0.748359492	0.012386202	0.127786165	0.039384937
2019-11-11T07:20:00	0.2421	2.987		0.609039433	0.753587984	0.012521496	0.129181965	0.039815136
2019-11-11T07:25:00	0.2428	2.985		0.611259397	0.756859510	0.012606396	0.130057864	0.040085097
2019-11-11T07:30:00	0.2421	2.985		0.609153993	0.753756707	0.012525870	0.129227090	0.039829044
2019-11-11T07:35:00	0.2418	2.986		0.608046241	0.752125671	0.012483608	0.128791083	0.039694663
2019-11-11T07:40:00	0.2420	2.988		0.608602875	0.752945121	0.012504835	0.129010077	0.039762159
2019-11-11T07:45:00	0.2408	2.993		0.604830173	0.747396215	0.012361329	0.127529553	0.039305847
2019-11-11T07:50:00	0.2412	2.997		0.606053589	0.749194313	0.012407772	0.128008695	0.039453523
2019-11-11T07:55:00	0.2413	3.004		0.606277464	0.749523487	0.012416280	0.128096474	0.039480577
2019-11-11T08:00:00	0.2408	3.009		0.604835607	0.747404200	0.012361535	0.127531680	0.039306502
2019-11-11T08:05:00	0.2407	3.016		0.604393095	0.746754132	0.012344759	0.127358600	0.039253157
2019-11-11T08:10:00	0.2410	3.028		0.605283498	0.748062338	0.012378528	0.127706987	0.039360534
2019-11-11T08:15:00	0.2410	3.040		0.605507422	0.748391438	0.012387027	0.127794679	0.039387561
2019-11-11T08:20:00	0.2406	3.056		0.604065252	0.746272622	0.012332337	0.127230448	0.039213660
2019-11-11T08:25:00	0.2412	3.070		0.605955229	0.749049703	0.012404035	0.127970138	0.039441639
2019-11-11T08:30:00	0.2409	3.090		0.605179682	0.747909774	0.012374588	0.127666342	0.039348006
2019-11-11T08:35:00	0.2420	3.112		0.608733735	0.753137804	0.012509828	0.129061589	0.039778035
2019-11-11T08:40:00	0.2420	3.138		0.608624591	0.752977095	0.012505663	0.129018625	0.039764793
2019-11-11T08:45:00	0.2412	3.169		0.606184543	0.749386855	0.012412748	0.128060037	0.039469347
2019-11-11T08:50:00	0.2414	3.195		0.606741469	0.750205866	0.012433924	0.128278504	0.039536681
2019-11-11T08:55:00	0.2412	3.221		0.605966095	0.749065678	0.012404447	0.127974398	0.039442952
2019-11-11T09:00:00	0.2415	3.244		0.607189119	0.750864365	0.012450959	0.128454245	0.039590846
2019-11-11T09:05:00	0.2411	3.269		0.605747633	0.748744521	0.012396149	0.127888783	0.039416565
2019-11-11T09:10:00	0.2413	3.298		0.606304627	0.749563428	0.012417313	0.128107126	0.039483861
2019-11-11T09:15:00	0.2415	3.333		0.607194550	0.750872355	0.012451165	0.128456377	0.039591503
2019-11-11T09:20:00	0.2424	3.374		0.610081189	0.755122688	0.012561300	0.129592615	0.039941703
2019-11-11T09:25:00	0.2430	3.422		0.611967964	0.757904587	0.012633557	0.130338076	0.040171461
2019-11-11T09:30:00	0.2449	3.475		0.618172011	0.767073058	0.012872659	0.132804849	0.040931744
2019-11-11T09:35:00	0.2463	3.527		0.623039433	0.774288930	0.013061871	0.134756912	0.041533389
2019-11-11T09:40:00	0.2455	3.573		0.620277496	0.770191954	0.012954330	0.133647438	0.041191438
2019-11-11T09:45:00	0.2467	3.611		0.624147933	0.775935057	0.013105161	0.135203534	0.041671042
2019-11-11T09:50:00	0.2457	3.627		0.621055166	0.771344875	0.012984564	0.133959349	0.041287572
2019-11-11T09:55:00	0.2451	3.643		0.618955553	0.768233298	0.012903021	0.133118091	0.041028289
2019-11-11T10:00:00	0.2446	3.652		0.617186783	0.765614904	0.012834534	0.132411520	0.040810516
2019-11-11T10:05:00	0.2441	3.661		0.615796381	0.763558476	0.012780829	0.131857459	0.040639749
2019-11-11T10:10:00	0.2433	3.668		0.613075887	0.759539524	0.012676086	0.130776842	0.040306693
2019-11-11T10:15:00	0.2436	3.678		0.614011170	0.760920504	0.012712046	0.131147831	0.040421035
2019-11-11T10:20:00	0.2431	3.689		0.612287019	0.758375302	0.012645797	0.130464352	0.040210380
2019-11-11T10:25:00	0.2423	3.704		0.609563836	0.754360414	0.012541524	0.129388595	0.039878822
2019-11-11T10:30:00	0.2405	3.720		0.603839991	0.745941829	0.012323806	0.127142434	0.039186533
2019-11-11T10:35:00	0.2397	3.735		0.601110311	0.741936707	0.012220668	0.126078381	0.038858581
2019-11-11T10:40:00	0.2397	3.752		0.601048160	0.741845588	0.012218325	0.126054207	0.038851131
2019-11-11T10:45:00	0.2391	3.764		0.598983935	0.738821103	0.012140634	0.125252688	0.038604095
2019-11-11T10:50:00	0.2388	3.773		0.597920267	0.737264016	0.012100701	0.124840701	0.038477117
2019-11-11T10:55:00	0.2377	3.789		0.594517685	0.732289381	0.011973411	0.123527476	0.038072368
2019-11-11T11:00:00	0.2374	3.803		0.593452671	0.730734298	0.011933711	0.123117899	0.037946132
2019-11-11T11:05:00	0.2373	3.817		0.593056067	0.730155437	0.011918945	0.122965554	0.037899178
2019-11-11T11:10:00	0.2365	3.832		0.590318041	0.726162749	0.011817256	0.121916452	0.037575835
2019-11-11T11:15:00	0.2363	3.846		0.589586437	0.725096956	0.011790160	0.121636911	0.037489677
2019-11-11T11:20:00	0.2366	3.858		0.590527947	0.726468620	0.011825036	0.121996717	0.037600573
2019-11-11T11:25:00	0.2362	3.876		0.589461727	0.724915325	0.011785545	0.121589293	0.037475001
2019-11-11T11:30:00	0.2359	3.890		0.588395185	0.723362507	0.011746109	0.121182446	0.037349607
2019-11-11T11:35:00	0.2361	3.905		0.589002311	0.724246327	0.011768550	0.121413957	0.037420961
2019-11-11T11:40:00	0.2344	3.914		0.583245025	0.715877525	0.011556635	0.119227673	0.036747127
2019-11-11T11:45:00	0.2336	3.931		0.580499354	0.711896116	0.011456266	0.118192185	0.036427979
2019-11-11T11:50:00	0.2321	3.941		0.575736206	0.705004074	0.011283209	0.116406786	0.035877702
2019-11-11T11:55:00	0.2323	3.948		0.576345522	0.705884675	0.011305272	0.116634406	0.035947857
2019-11-11T12:00:00	0.2314	3.953		0.573258239	0.701426013	0.011193710	0.115483441	0.035593118
2019-11-11T12:05:00	0.2303	3.957		0.569495128	0.696001990	0.011058489	0.114088395	0.035163151
2019-11-11T12:10:00	0.2310	3.955		0.571787753	0.699305109	0.011140771	0.114937279	0.035424786
2019-11-11T12:15:00	0.2308	3.950		0.571052278	0.698244994	0.011114341	0.114664607	0.035340746
2019-11-11T12:20:00	0.2328	3.953		0.578047721	0.708346373	0.011367024	0.117271491	0.036144213
2019-11-11T12:25:00	0.2341	3.958		0.582347449	0.714575289	0.011523775	0.118888658	0.036642639
2019-11-11T12:30:00	0.2346	3.972		0.583961357	0.716917285	0.011582894	0.119498587	0.036830625
2019-11-11T12:35:00	0.2357	3.994		0.587584220	0.722182427	0.011716169	0.120873559	0.037254405
2019-11-11T12:40:00	0.2344	4.014		0.583165964	0.715762793	0.011553739	0.119197792	0.036737917
2019-11-11T12:45:00	0.2349	4.025		0.585114601	0.718592121	0.011625234	0.119935400	0.036965255
2019-11-11T12:50:00	0.2349	4.033		0.585052168	0.718501422	0.011622940	0.119911731	0.036957960
2019-11-11T12:55:00	0.2353	4.039		0.586329879	0.720358246	0.011669937	0.120396592	0.037107399
2019-11-11T13:00:00	0.2353	4.042		0.586267467	0.720267515	0.011667639	0.120372885	0.037100092
2019-11-11T13:05:00	0.2350	4.045		0.585199957	0.718716126	0.011628371	0.119967762	0.036975229
2019-11-11T13:10:00	0.2354	4.046		0.586812558	0.721060047	0.011687717	0.120580018	0.037163933
2019-11-11T13:15:00	0.2365	4.046		0.590432488	0.726329516	0.011821498	0.121960212	0.037589322
2019-11-11T13:20:00	0.2359	4.046		0.588362045	0.723314272	0.011744885	0.121169815	0.037345714
2019-11-11T13:25:00	0.2357	4.043		0.587630035	0.722249080	0.011717860	0.120890999	0.037259780
2019-11-11T13:30:00	0.2355	4.050		0.586897872	0.721184112	0.011690861	0.120612454	0.037173930
2019-11-11T13:35:00	0.2347	4.060		0.584155053	0.717198508	0.011590000	0.119571896	0.036853220
2019-11-11T13:40:00	0.2346	4.068		0.584092602	0.717107834	0.011587709	0.119548257	0.036845934
2019-11-11T13:45:00	0.2345	4.076		0.583694943	0.716530533	0.011573125	0.119397793	0.036799559
2019-11-11T13:50:00	0.2357	4.085		0.587652942	0.722282407	0.011718705	0.120899719	0.037262468
2019-11-11T13:55:00	0.2357	4.090		0.587590553	0.722191641	0.011716403	0.120875970	0.037255148
2019-11-11T14:00:00	0.2362	4.092		0.589202060	0.724537178	0.011775937	0.121490175	0.037444452
2019-11-11T14:05:00	0.2359	4.094		0.588470224	0.723471728	0.011748882	0.121211048	0.037358422
2019-11-11T14:10:00	0.2359	4.102		0.588407850	0.723380940	0.011746577	0.121187273	0.037351094
2019-11-11T14:15:00	0.2361	4.109		0.589014973	0.724264764	0.011769018	0.121418788	0.037422450
2019-11-11T14:20:00	0.2364	4.113		0.589956636	0.725636202	0.011803867	0.121778321	0.037533261
2019-11-11T14:25:00	0.2364	4.110		0.589894288	0.725545376	0.011801558	0.121754499	0.037525919
2019-11-11T14:30:00	0.2367	4.103		0.591170244	0.727404792	0.011848858	0.122242488	0.037676322
2019-11-11T14:35:00	0.2381	4.097		0.595788073	0.734145580	0.012020855	0.124016947	0.038223228
2019-11-11T14:40:00	0.2375	4.093		0.593720772	0.731125677	0.011943699	0.123220938	0.037977890
2019-11-11T14:45:00	0.2371	4.082		0.592321130	0.729083112	0.011891606	0.122683503	0.037812247
2019-11-11T14:50:00	0.2379	4.073		0.594933087	0.732896187	0.011988914	0.123687418	0.038121663
2019-11-11T14:55:00	0.2382	4.068		0.595873171	0.734269966	0.012024037	0.124049770	0.038233344
2019-11-11T15:00:00	0.2383	4.063		0.596479011	0.735155693	0.012046699	0.124283578	0.038305406
2019-11-11T15:05:00	0.2383	4.065		0.596416778	0.735064696	0.012044371	0.124259551	0.038298000
2019-11-11T15:10:00	0.2396	4.069		0.600694162	0.741326659	0.012204984	0.125916566	0.038808709
2019-11-11T15:15:00	0.2397	4.070		0.600965605	0.741724561	0.012215213	0.126022101	0.038841236
2019-11-11T15:20:00	0.2407	4.070		0.604237803	0.746526039	0.012338874	0.127297889	0.039234446
2019-11-11T15:25:00	0.2403	4.065		0.603175713	0.744966593	0.012298666	0.126883069	0.039106594
2019-11-11T15:30:00	0.2402	4.058		0.602780199	0.744386108	0.012283710	0.126728771	0.039059038
2019-11-11T15:35:00	0.2401	4.052		0.602384640	0.743805689	0.012268762	0.126574553	0.039011506
2019-11-11T15:40:00	0.2401	4.046		0.602322511	0.743714537	0.012266415	0.126550339	0.039004044
2019-11-11T15:45:00	0.2407	4.046		0.604260603	0.746559526	0.012339738	0.127306801	0.039237193
2019-11-11T15:50:00	0.2394	4.051		0.599863189	0.740108943	0.012173696	0.125593772	0.038709220
2019-11-11T15:55:00	0.2389	4.059		0.598465979	0.738062758	0.012121180	0.125051983	0.038542236
2019-11-11T16:00:00	0.2381	4.065		0.595732148	0.734063837	0.012018765	0.123995379	0.038216580
2019-11-11T16:05:00	0.2366	4.067		0.590518928	0.726455477	0.011824702	0.121993267	0.037599510
2019-11-11T16:10:00	0.2357	4.065		0.587642702	0.722267509	0.011718327	0.120895821	0.037261266
2019-11-11T16:15:00	0.2339	4.058		0.581746734	0.713704125	0.011501809	0.118662043	0.036572794
2019-11-11T16:20:00	0.2344	4.050		0.583224520	0.715847767	0.011555884	0.119219923	0.036744738
2019-11-11T16:25:00	0.2349	4.037		0.585036797	0.718479092	0.011622375	0.119905904	0.036956164
2019-11-11T16:30:00	0.2367	4.031		0.590864930	0.726959743	0.011837531	0.122125630	0.037640305
2019-11-11T16:35:00	0.2375	4.026		0.593676248	0.731060675	0.011942040	0.123203823	0.037972615
2019-11-11T16:40:00	0.2372	4.023		0.592809313	0.729795355	0.011909762	0.122870819	0.037869980
2019-11-11T16:45:00	0.2377	4.027		0.594282465	0.731945842	0.011964637	0.123436956	0.038044469
2019-11-11T16:50:00	0.2369	4.034		0.591743783	0.728241038	0.011870151	0.122462164	0.037744028
2019-11-11T16:55:00	0.2373	4.042		0.592883046	0.729902946	0.011912505	0.122899123	0.037878703
2019-11-11T17:00:00	0.2359	4.048		0.588335237	0.723275254	0.011743895	0.121159598	0.037342565
2019-11-11T17:05:00	0.2360	4.058		0.588806190	0.723960792	0.011761298	0.121339147	0.037397903
2019-11-11T17:10:00	0.2365	4.066		0.590281015	0.726108800	0.011815884	0.121902297	0.037571472
2019-11-11T17:15:00	0.2366	4.072		0.590751709	0.726794723	0.011833332	0.122082309	0.037626953
2019-11-11T17:20:00	0.2372	4.076		0.592560117	0.729431761	0.011900492	0.122775184	0.037840504
2019-11-11T17:25:00	0.2352	4.081		0.586002442	0.719882270	0.011657884	0.120272242	0.037069073
2019-11-11T17:30:00	0.2357	4.085		0.587813288	0.722515702	0.011724622	0.120960768	0.037281283
2019-11-11T17:35:00	0.2348	4.084		0.584599729	0.717844245	0.011606322	0.119740281	0.036905118
2019-11-11T17:40:00	0.2351	4.085		0.585741304	0.719502735	0.011648276	0.120173117	0.037038522
2019-11-11T17:45:00	0.2352	4.085		0.585877605	0.719700826	0.011653291	0.120224850	0.037054466
2019-11-11T17:50:00	0.2336	4.083		0.580649767	0.712114063	0.011461753	0.118248792	0.036445426
2019-11-11T17:55:00	0.2332	4.084		0.579444003	0.710367452	0.011417806	0.117795405	0.036305688
2019-11-11T18:00:00	0.2327	4.083		0.577566271	0.707649863	0.011349541	0.117091118	0.036088620
2019-11-11T18:05:00	0.2327	4.081		0.577702890	0.707847488	0.011354500	0.117142288	0.036104391
2019-11-11T18:10:00	0.2332	4.077		0.579182378	0.709988634	0.011408282	0.117697147	0.036275404
2019-11-11T18:15:00	0.2333	4.071		0.579654559	0.710672366	0.011425474	0.117874513	0.036330070
2019-11-11T18:20:00	0.2328	4.065		0.577776940	0.707954612	0.011357189	0.117170027	0.036112940
2019-11-11T18:25:00	0.2318	4.062		0.574554181	0.703296655	0.011240471	0.115965870	0.035741807
2019-11-11T18:30:00	0.2333	4.059		0.579728568	0.710779550	0.011428170	0.117902325	0.036338642
2019-11-11T18:35:00	0.2326	4.057		0.577179360	0.707090260	0.011335500	0.116946267	0.036043975
2019-11-11T18:40:00	0.2317	4.058		0.574292191	0.702918370	0.011231010	0.115868259	0.035711723
2019-11-11T18:45:00	0.2320	4.058		0.575101092	0.704086517	0.011260235	0.116169771	0.035804652
2019-11-11T18:50:00	0.2323	4.057		0.576245759	0.705740473	0.011301658	0.116597122	0.035936365
2019-11-11T18:55:00	0.2318	4.058		0.574702413	0.703510710	0.011245826	0.116021116	0.035758835
2019-11-11T19:00:00	0.2314	4.057		0.573158387	0.701281939	0.011190111	0.115446313	0.035581675
2019-11-11T19:05:00	0.2304	4.057		0.569931376	0.696630182	0.011074122	0.114249676	0.035212860
2019-11-11T19:10:00	0.2299	4.055		0.568048537	0.693920036	0.011006731	0.113554418	0.034998575
2019-11-11T19:15:00	0.2304	4.050		0.569868671	0.696539879	0.011071874	0.114226487	0.035205713
2019-11-11T19:20:00	0.2308	4.046		0.571351470	0.698676196	0.011125089	0.114775491	0.035374921
2019-11-11T19:25:00	0.2310	4.040		0.571824707	0.699358387	0.011142100	0.114950988	0.035429011
2019-11-11T19:30:00	0.2310	4.035		0.571961550	0.699555685	0.011147021	0.115001761	0.035444660
2019-11-11T19:35:00	0.2313	4.033		0.572770989	0.700723047	0.011176154	0.115302323	0.035537296
2019-11-11T19:40:00	0.2319	4.034		0.574924749	0.703831810	0.011253861	0.116104006	0.035784382
2019-11-11T19:45:00	0.2303	4.031		0.569680552	0.696268979	0.011065132	0.114156932	0.035184275
2019-11-11T19:50:00	0.2307	4.032		0.570826991	0.697920353	0.011106252	0.114581150	0.035315023
2019-11-11T19:55:00	0.2306	4.033		0.570627413	0.697632796	0.011099088	0.114507242	0.035292244
2019-11-11T20:00:00	0.2318	4.035		0.574463427	0.703165610	0.011237193	0.115932052	0.035731384
2019-11-11T20:05:00	0.2326	4.039		0.577287884	0.707247209	0.011339438	0.116986886	0.036056495
2019-11-11T20:10:00	0.2347	4.047		0.584469718	0.717655432	0.011601549	0.119691038	0.036889940
2019-11-11T20:15:00	0.2344	4.057		0.583265265	0.715906897	0.011557377	0.119235324	0.036749485
2019-11-11T20:20:00	0.2348	4.071		0.584742413	0.718051478	0.011611561	0.119794337	0.036921778
2019-11-11T20:25:00	0.2342	4.085		0.582532193	0.714843269	0.011530534	0.118958396	0.036664133
2019-11-11T20:30:00	0.2340	4.100		0.581997911	0.714068350	0.011510991	0.118756771	0.036601990
2019-11-11T20:35:00	0.2319	4.113		0.574748396	0.703577116	0.011247488	0.116038257	0.035764118
2019-11-11T20:40:00	0.2323	4.121		0.576229131	0.705716440	0.011301056	0.116590909	0.035934450
2019-11-11T20:45:00	0.2324	4.131		0.576701710	0.706399590	0.011318179	0.116767570	0.035988899
2019-11-11T20:50:00	0.2323	4.139		0.576166540	0.705625972	0.011298789	0.116567521	0.035927242
2019-11-11T20:55:00	0.2328	4.149		0.577982461	0.708251951	0.011364653	0.117247034	0.036136675
2019-11-11T21:00:00	0.2321	4.158		0.575431984	0.704564518	0.011272201	0.116293224	0.035842701
2019-11-11T21:05:00	0.2330	4.169		0.578591387	0.709133123	0.011386783	0.117475344	0.036207042
2019-11-11T21:10:00	0.2323	4.177		0.576377292	0.705930598	0.011306423	0.116646280	0.035951516
2019-11-11T21:15:00	0.2333	4.187		0.579535845	0.710500447	0.011421151	0.117829907	0.036316322
2019-11-11T21:20:00	0.2331	4.197		0.579001107	0.709726197	0.011401686	0.117629092	0.036254429
2019-11-11T21:25:00	0.2322	4.209		0.575779474	0.705066596	0.011284775	0.116422942	0.035882681
2019-11-11T21:30:00	0.2313	4.218		0.572891151	0.700896389	0.011180482	0.115346975	0.035551058
2019-11-11T21:35:00	0.2320	4.230		0.575380872	0.704490676	0.011270353	0.116274150	0.035836822
2019-11-11T21:40:00	0.2314	4.240		0.573164747	0.701291115	0.011190340	0.115448678	0.035582404
2019-11-11T21:45:00	0.2311	4.251		0.572292738	0.700033254	0.011158936	0.115124690	0.035482547
2019-11-11T21:50:00	0.2314	4.264		0.573102101	0.701200728	0.011188083	0.115425386	0.035575225
2019-11-11T21:55:00	0.2320	4.277		0.575255657	0.704309787	0.011265824	0.116227430	0.035822423
2019-11-11T22:00:00	0.2321	4.293		0.575728367	0.704992746	0.011282925	0.116403859	0.035876800
2019-11-11T22:05:00	0.2330	4.309		0.578563820	0.709093224	0.011385781	0.117465003	0.036203855
2019-11-11T22:10:00	0.2322	4.325		0.576025790	0.705422550	0.011293692	0.116514937	0.035911035
2019-11-11T22:15:00	0.2327	4.341		0.577518005	0.707580047	0.011347789	0.117073043	0.036083049
2019-11-11T22:20:00	0.2330	4.357		0.578673898	0.709252546	0.011389784	0.117506298	0.036216582
2019-11-11T22:25:00	0.2320	4.372		0.575127964	0.704125331	0.011261207	0.116179794	0.035807741
2019-11-11T22:30:00	0.2318	4.390		0.574604582	0.703369435	0.011242292	0.115984653	0.035747596
2019-11-11T22:35:00	0.2309	4.404		0.571390944	0.698733092	0.011126507	0.114790124	0.035379431
2019-11-11T22:40:00	0.2303	4.420		0.569520937	0.696039150	0.011059414	0.114097933	0.035166091
2019-11-11T22:45:00	0.2300	4.433		0.568660069	0.694799951	0.011028596	0.113779996	0.035068100
2019-11-11T22:50:00	0.2297	4.444		0.567462225	0.693076702	0.010985789	0.113338358	0.034931983
2019-11-11T22:55:00	0.2289	4.454		0.564916130	0.689417760	0.010895080	0.112402532	0.034643552
2019-11-11T23:00:00	0.2284	4.463		0.563042655	0.686728843	0.010828579	0.111716451	0.034432095
2019-11-11T23:05:00	0.2283	4.473		0.562854702	0.686459243	0.010821919	0.111647739	0.034410918
2019-11-11T23:10:00	0.2288	4.483		0.564352544	0.688608565	0.010875053	0.112195918	0.034579872
2019-11-11T23:15:00	0.2291	4.493		0.565512792	0.690274731	0.010916303	0.112621483	0.034711035
2019-11-11T23:20:00	0.2285	4.502		0.563302472	0.687101575	0.010837789	0.111811471	0.034461381
2019-11-11T23:25:00	0.2282	4.512		0.562440070	0.685864595	0.010807233	0.111496234	0.034364222
2019-11-11T23:30:00	0.2287	4.524		0.564275193	0.688497525	0.010872306	0.112167576	0.034571136
2019-11-11T23:35:00	0.2275	4.534		0.560039697	0.682424867	0.010722417	0.110621200	0.034094528
2019-11-11T23:40:00	0.2280	4.543		0.561876083	0.685055977	0.010787275	0.111290323	0.034300758
2019-11-11T23:45:00	0.2286	4.553		0.563711503	0.687688480	0.010852297	0.111961144	0.034507512
2019-11-11T23:50:00	0.2285	4.561		0.563523586	0.687418827	0.010845630	0.111892368	0.034486315
2019-11-11T23:55:00	0.2293	4.566		0.566032040	0.691020753	0.010934789	0.112812203	0.034769816
2019-11-12T00:00:00	0.2261	4.570		0.555383575	0.675766183	0.010558862	0.108933834	0.033574466
2019-11-12T00:05:00	0.2251	4.574		0.552152180	0.671155468	0.010446103	0.107770519	0.033215920
2019-11-12T00:10:00	0.2245	4.578		0.549933362	0.667994513	0.010369033	0.106975400	0.032970857
2019-11-12T00:15:00	0.2250	4.583		0.551775087	0.670617971	0.010432984	0.107635176	0.033174207
2019-11-12T00:20:00	0.2248	4.589		0.550909824	0.669385095	0.010402914	0.107324950	0.033078592
2019-11-12T00:25:00	0.2244	4.596		0.549705862	0.667670642	0.010361147	0.106894043	0.032945782
2019-11-12T00:30:00	0.2241	4.608		0.548501482	0.665956785	0.010319450	0.106463865	0.032813197
2019-11-12T00:35:00	0.2246	4.616		0.550343967	0.668579161	0.010383273	0.107122316	0.033016138
2019-11-12T00:40:00	0.2262	4.626		0.555566420	0.676027331	0.010565261	0.108999848	0.033594812
2019-11-12T00:45:00	0.2260	4.633		0.555040098	0.675275685	0.010546847	0.108809880	0.033536262
2019-11-12T00:50:00	0.2270	4.641		0.558567727	0.680317885	0.010670573	0.110086338	0.033929679
2019-11-12T00:55:00	0.2281	4.646		0.562091786	0.685365211	0.010794906	0.111369053	0.034325024
2019-11-12T01:00:00	0.2277	4.653		0.560891687	0.683645223	0.010752483	0.110931384	0.034190130
2019-11-12T01:05:00	0.2284	4.658		0.563064845	0.686760675	0.010829365	0.111724565	0.034434596
2019-11-12T01:10:00	0.2271	4.664		0.558827878	0.680690136	0.010679727	0.110180772	0.033958784
2019-11-12T01:15:00	0.2264	4.671		0.556275470	0.677040293	0.010590093	0.109256035	0.033673771
2019-11-12T01:20:00	0.2269	4.676		0.558113840	0.679668550	0.010654613	0.109921678	0.033878929
2019-11-12T01:25:00	0.2263	4.683		0.555898823	0.676502157	0.010576898	0.109119910	0.033631816
2019-11-12T01:30:00	0.2260	4.687		0.555034586	0.675267814	0.010546655	0.108807891	0.033535649
2019-11-12T01:35:00	0.2261	4.690		0.555522136	0.675964079	0.010563711	0.108983858	0.033589883
2019-11-12T01:40:00	0.2246	4.693		0.550260784	0.668460708	0.010380388	0.107092545	0.033006962
2019-11-12T01:45:00	0.2242	4.693		0.549056596	0.666746576	0.010338658	0.106662031	0.032874274
2019-11-12T01:50:00	0.2224	4.691		0.542768046	0.657814282	0.010122119	0.104428039	0.032185736
2019-11-12T01:55:00	0.2217	4.692		0.540543214	0.654661868	0.010046065	0.103643397	0.031943901
2019-11-12T02:00:00	0.2223	4.693		0.542389931	0.657278237	0.010109173	0.104294477	0.032144571
2019-11-12T02:05:00	0.2227	4.698		0.543896613	0.659414920	0.010160810	0.104827200	0.032308761
2019-11-12T02:10:00	0.2229	4.705		0.544385729	0.660108954	0.010177601	0.105000433	0.032362153
2019-11-12T02:15:00	0.2228	4.713		0.544196765	0.659840799	0.010171112	0.104933489	0.032341520
2019-11-12T02:20:00	0.2229	4.722		0.544685838	0.660534893	0.010187911	0.105106796	0.032394935
2019-11-12T02:25:00	0.2238	4.729		0.547546631	0.664598857	0.010286453	0.106123438	0.032708274
2019-11-12T02:30:00	0.2241	4.739		0.548712494	0.666256972	0.010326749	0.106539171	0.032836407
2019-11-12T02:35:00	0.2243	4.747		0.549200931	0.666951970	0.010343655	0.106713586	0.032890164
2019-11-12T02:40:00	0.2247	4.758		0.550704657	0.669092852	0.010395791	0.107251457	0.033055941
2019-11-12T02:45:00	0.2251	4.767		0.551869460	0.670752477	0.010436267	0.107669039	0.033184644
2019-11-12T02:50:00	0.2255	4.776		0.553372032	0.672895005	0.010488597	0.108208926	0.033351042
2019-11-12T02:55:00	0.2263	4.781		0.555887801	0.676486411	0.010576512	0.109115928	0.033630589
2019-11-12T03:00:00	0.2259	4.779		0.554685562	0.674769496	0.010534453	0.108682010	0.033496851
2019-11-12T03:05:00	0.2252	4.772		0.552468360	0.671606231	0.010457109	0.107884065	0.033250917
2019-11-12T03:10:00	0.2251	4.766		0.551941569	0.670855256	0.010438775	0.107694918	0.033192620
2019-11-12T03:15:00	0.2250	4.761		0.551753016	0.670586516	0.010432217	0.107627257	0.033171766
2019-11-12T03:20:00	0.2250	4.760		0.551564453	0.670317792	0.010425660	0.107559615	0.033150918
2019-11-12T03:25:00	0.2284	4.763		0.563197600	0.686951120	0.010834071	0.111773113	0.034449559
2019-11-12T03:30:00	0.2289	4.766		0.564695295	0.689100655	0.010887230	0.112321550	0.034618593
2019-11-12T03:35:00	0.2307	4.771		0.570905797	0.698033909	0.011109081	0.114610340	0.035324020
2019-11-12T03:40:00	0.2296	4.777		0.567015179	0.692433873	0.010969834	0.113173759	0.034881252
2019-11-12T03:45:00	0.2309	4.782		0.571540034	0.698947996	0.011131865	0.114845402	0.035396468
2019-11-12T03:50:00	0.2319	4.784		0.575051041	0.704014221	0.011258426	0.116151103	0.035798898
2019-11-12T03:55:00	0.2313	4.785		0.572846743	0.700832326	0.011178883	0.115330472	0.035545972
2019-11-12T04:00:00	0.2322	4.785		0.576020501	0.705414906	0.011293500	0.116512961	0.035910426
2019-11-12T04:05:00	0.2309	4.785		0.571456822	0.698828048	0.011128875	0.114814548	0.035386959
2019-11-12T04:10:00	0.2297	4.785		0.567560790	0.693218455	0.010989308	0.113374665	0.034943173
2019-11-12T04:15:00	0.2295	4.787		0.566693410	0.691971289	0.010958358	0.113055361	0.034844760
2019-11-12T04:20:00	0.2284	4.789		0.563129275	0.686853102	0.010831649	0.111748125	0.034441858
2019-11-12T04:25:00	0.2281	4.789		0.562260794	0.685607529	0.010800887	0.111430760	0.034344042
2019-11-12T04:30:00	0.2283	4.789		0.562741299	0.686296591	0.010817901	0.111606292	0.034398143
2019-11-12T04:35:00	0.2287	4.790		0.564233157	0.688437184	0.010870813	0.112152175	0.034566390
2019-11-12T04:40:00	0.2307	4.792		0.570774935	0.697845346	0.011104383	0.114561870	0.035309081
2019-11-12T04:45:00	0.2311	4.794		0.572263369	0.699990901	0.011157880	0.115113786	0.035479187
2019-11-12T04:50:00	0.2312	4.795		0.572406212	0.700196904	0.011163020	0.115166824	0.035495534
2019-11-12T04:55:00	0.2321	4.797		0.575574356	0.704770215	0.011277352	0.116346363	0.035859079
2019-11-12T05:00:00	0.2319	4.799		0.575045027	0.704005535	0.011258208	0.116148861	0.035798207
2019-11-12T05:05:00	0.2323	4.801		0.576195724	0.705668154	0.011299846	0.116578425	0.035930603
2019-11-12T05:10:00	0.2326	4.802		0.577346043	0.707331324	0.011341548	0.117008658	0.036063205
2019-11-12T05:15:00	0.2314	4.804		0.573120343	0.701227047	0.011188740	0.115432168	0.035577315
2019-11-12T05:20:00	0.2313	4.809		0.572926913	0.700947981	0.011181771	0.115360266	0.035555154
2019-11-12T05:25:00	0.2323	4.814		0.576094586	0.705521978	0.011296183	0.116540637	0.035918956
2019-11-12T05:30:00	0.2323	4.818		0.576237274	0.705728209	0.011301351	0.116593951	0.035935388
2019-11-12T05:35:00	0.2333	4.823		0.579737576	0.710792597	0.011428498	0.117905711	0.036339685
2019-11-12T05:40:00	0.2338	4.828		0.581222211	0.712943701	0.011482647	0.118464352	0.036511864
2019-11-12T05:45:00	0.2338	4.834		0.581364690	0.713150236	0.011487850	0.118518035	0.036528409
2019-11-12T05:50:00	0.2343	4.839		0.582848637	0.715302349	0.011542117	0.119077896	0.036700964
2019-11-12T05:55:00	0.2345	4.842		0.583661568	0.716482087	0.011571901	0.119385170	0.036795669
2019-11-12T06:00:00	0.2345	4.846		0.583803949	0.716688768	0.011577122	0.119439029	0.036812269
2019-11-12T06:05:00	0.2345	4.851		0.583611107	0.716408842	0.011570051	0.119366085	0.036789787
2019-11-12T06:10:00	0.2350	4.854		0.585429181	0.719049172	0.011636797	0.120054694	0.037002023
2019-11-12T06:15:00	0.2369	4.854		0.591597140	0.728027199	0.011864705	0.122405978	0.037726711
2019-11-12T06:20:00	0.2385	4.857		0.597086487	0.736044120	0.012069445	0.124518244	0.038377732
2019-11-12T06:25:00	0.2391	4.858		0.598897627	0.738694722	0.012137392	0.125219232	0.038593783
2019-11-12T06:30:00	0.2389	4.859		0.598371794	0.737924884	0.012117644	0.125015504	0.038530993
2019-11-12T06:35:00	0.2386	4.859		0.597511987	0.736666592	0.012085391	0.124682749	0.038428434
2019-11-12T06:40:00	0.2386	4.859		0.597319894	0.736385557	0.012078191	0.124608469	0.038405540
2019-11-12T06:45:00	0.2387	4.860		0.597795625	0.737081616	0.012096026	0.124792470	0.038462251
2019-11-12T06:50:00	0.2393	4.863		0.599606402	0.739732761	0.012164035	0.125494109	0.038678503
2019-11-12T06:55:00	0.2392	4.867		0.599414423	0.739451556	0.012156816	0.125419625	0.038655547
2019-11-12T07:00:00	0.2411	4.871		0.605558024	0.748465813	0.012388949	0.127814499	0.039393670
2019-11-12T07:05:00	0.2415	4.874		0.607031837	0.750632981	0.012444972	0.128392484	0.039571810
2019-11-12T07:10:00	0.2424	4.877		0.610169034	0.755252142	0.012564659	0.129627274	0.039952385
2019-11-12T07:15:00	0.2421	4.880		0.608979268	0.753499377	0.012519199	0.129158269	0.039807833
2019-11-12T07:20:00	0.2405	4.885		0.603791516	0.745870650	0.012321970	0.127123498	0.039180697
2019-11-12T07:25:00	0.2416	4.889		0.607264589	0.750975399	0.012453832	0.128483885	0.039599981
2019-11-12T07:30:00	0.2405	4.894		0.603741343	0.745796978	0.012320071	0.127103900	0.039174656
2019-11-12T07:35:00	0.2417	4.900		0.607547447	0.751391591	0.012464603	0.128595008	0.039634230
2019-11-12T07:40:00	0.2412	4.906		0.606023708	0.749150380	0.012406636	0.127996981	0.039449913
2019-11-12T07:45:00	0.2416	4.914		0.607497327	0.751317840	0.012462694	0.128575314	0.039628161
2019-11-12T07:50:00	0.2413	4.922		0.606306665	0.749566424	0.012417390	0.128107925	0.039484107
2019-11-12T07:55:00	0.2417	4.930		0.607780166	0.751734060	0.012473468	0.128686470	0.039662420
2019-11-12T08:00:00	0.2424	4.940		0.609918608	0.754883115	0.012555084	0.129528483	0.039921936
2019-11-12T08:05:00	0.2426	4.949		0.610725335	0.756072093	0.012585944	0.129846868	0.040020066
2019-11-12T08:10:00	0.2429	4.958		0.611531879	0.757261348	0.012616837	0.130165584	0.040118297
2019-11-12T08:15:00	0.2432	4.965		0.612670742	0.758941541	0.012660525	0.130616306	0.040257214
2019-11-12T08:20:00	0.2437	4.975		0.614473940	0.761604072	0.012729858	0.131331594	0.040477673
2019-11-12T08:25:00	0.2430	4.983		0.611955648	0.757886417	0.012633084	0.130333203	0.040169959
2019-11-12T08:30:00	0.2426	4.994		0.610766480	0.756132749	0.012587519	0.129863117	0.040025074
2019-11-12T08:35:00	0.2437	5.005		0.614232738	0.761247765	0.012720572	0.131235798	0.040448147
2019-11-12T08:40:00	0.2422	5.016		0.609385475	0.754097668	0.012534710	0.129318297	0.039857155
2019-11-12T08:45:00	0.2413	5.029		0.606197446	0.749405827	0.012413239	0.128065096	0.039470906
2019-11-12T08:50:00	0.2418	5.038		0.608003933	0.752063397	0.012481995	0.128774446	0.039689535
2019-11-12T08:55:00	0.2422	5.047		0.609476730	0.754232093	0.012538196	0.129354261	0.039868240
2019-11-12T09:00:00	0.2430	5.055		0.611946721	0.757873248	0.012632742	0.130329671	0.040168870
2019-11-12T09:05:00	0.2433	5.063		0.613085451	0.759553642	0.012676453	0.130780633	0.040307861
2019-11-12T09:10:00	0.2440	5.071		0.615220703	0.762707514	0.012758628	0.131628409	0.040569154
2019-11-12T09:15:00	0.2438	5.078		0.614697285	0.761934045	0.012738459	0.131420330	0.040505022
2019-11-12T09:20:00	0.2437	5.082		0.614506121	0.761651615	0.012731097	0.131344378	0.040481613
2019-11-12T09:25:00	0.2440	5.086		0.615311808	0.762842166	0.012762140	0.131664644	0.040580322
2019-11-12T09:30:00	0.2439	5.091		0.615120677	0.762559685	0.012754772	0.131588632	0.040556894
2019-11-12T09:35:00	0.2442	5.100		0.615926224	0.763750447	0.012785840	0.131909149	0.040655681
2019-11-12T09:40:00	0.2435	5.111		0.613741363	0.760522048	0.012701667	0.131040754	0.040388033
2019-11-12T09:45:00	0.2442	5.123		0.615876221	0.763676517	0.012783910	0.131889242	0.040649545
2019-11-12T09:50:00	0.2435	5.131		0.613691330	0.760448165	0.012699743	0.131020903	0.040381915
2019-11-12T09:55:00	0.2436	5.138		0.614164869	0.761147516	0.012717960	0.131208849	0.040439842
2019-11-12T10:00:00	0.2433	5.143		0.612976441	0.759392731	0.012672266	0.130737428	0.040294545
2019-11-12T10:05:00	0.2430	5.147		0.612070113	0.758055282	0.012637475	0.130378498	0.040183919
2019-11-12T10:10:00	0.2427	5.148		0.611163554	0.756718183	0.012602725	0.130019986	0.040073422
2019-11-12T10:15:00	0.2428	5.153		0.611254763	0.756852677	0.012606218	0.130056032	0.040084532
2019-11-12T10:20:00	0.2434	5.158		0.613341076	0.759931010	0.012686277	0.130881977	0.040339096
2019-11-12T10:25:00	0.2441	5.164		0.615758379	0.763502293	0.012779363	0.131842333	0.040635087
2019-11-12T10:30:00	0.2440	5.167		0.615185028	0.762654789	0.012757252	0.131614221	0.040564781
2019-11-12T10:35:00	0.2443	5.172		0.616272725	0.764262813	0.012799215	0.132047142	0.040698212
2019-11-12T10:40:00	0.2445	5.177		0.617028025	0.765380015	0.012828396	0.132348195	0.040790999
2019-11-12T10:45:00	0.2435	5.181		0.613796817	0.760603939	0.012703800	0.131062758	0.040394815
2019-11-12T10:50:00	0.2433	5.187		0.612890699	0.759266174	0.012668972	0.130703450	0.040284073
2019-11-12T10:55:00	0.2427	5.197		0.610986555	0.756457204	0.012595946	0.129950048	0.040051867
2019-11-12T11:00:00	0.2423	5.208		0.609746974	0.754630226	0.012548523	0.129460797	0.039901075
2019-11-12T11:05:00	0.2419	5.220		0.608506960	0.752803901	0.012501176	0.128972328	0.039750524
2019-11-12T11:10:00	0.2418	5.232		0.607932438	0.751958167	0.012479271	0.128746334	0.039680870
2019-11-12T11:15:00	0.2420	5.248		0.608689512	0.753072687	0.012508140	0.129044180	0.039772669
2019-11-12T11:20:00	0.2414	5.258		0.606783113	0.750267118	0.012435508	0.128294848	0.039541718
2019-11-12T11:25:00	0.2403	5.267		0.602875815	0.744526430	0.012287325	0.126766064	0.039070532
2019-11-12T11:30:00	0.2405	5.279		0.603633970	0.745639327	0.012316006	0.127061965	0.039161732
2019-11-12T11:35:00	0.2390	5.290		0.598721942	0.738437488	0.012130792	0.125151146	0.038572799
2019-11-12T11:40:00	0.2383	5.299		0.596476173	0.735151544	0.012046593	0.124282482	0.038305068
2019-11-12T11:45:00	0.2371	5.306		0.592223069	0.728940068	0.011887960	0.122645895	0.037800656
2019-11-12T11:50:00	0.2371	5.315		0.592314767	0.729073830	0.011891369	0.122681062	0.037811495
2019-11-12T11:55:00	0.2368	5.319		0.591403134	0.727744323	0.011857502	0.122331665	0.037703807
2019-11-12T12:00:00	0.2367	5.324		0.591160355	0.727390377	0.011848491	0.122238702	0.037675155
2019-11-12T12:05:00	0.2356	5.328		0.587235733	0.721675493	0.011703316	0.120740949	0.037213533
2019-11-12T12:10:00	0.2354	5.332		0.586657742	0.720834928	0.011682013	0.120521170	0.037145795
2019-11-12T12:15:00	0.2365	5.336		0.590431920	0.726328687	0.011821477	0.121959994	0.037589255
2019-11-12T12:20:00	0.2371	5.342		0.592196139	0.728900785	0.011886959	0.122635567	0.037797473
2019-11-12T12:25:00	0.2382	5.345		0.595964396	0.734403316	0.012027448	0.124084962	0.038244190
2019-11-12T12:30:00	0.2374	5.349		0.593382585	0.730631995	0.011931101	0.123090971	0.037937833
2019-11-12T12:35:00	0.2375	5.354		0.593808532	0.731253803	0.011946969	0.123254676	0.037988288
2019-11-12T12:40:00	0.2388	5.358		0.597908960	0.737247470	0.012100277	0.124836326	0.038475768
2019-11-12T12:45:00	0.2401	5.360		0.602338110	0.743737422	0.012267004	0.126556418	0.039005917
2019-11-12T12:50:00	0.2403	5.361		0.603096380	0.744850147	0.012295665	0.126852112	0.039097053
2019-11-12T12:55:00	0.2393	5.364		0.599852455	0.740093217	0.012173292	0.125589606	0.038707936
2019-11-12T13:00:00	0.2400	5.366		0.601945486	0.743161454	0.012252177	0.126403450	0.038958771
2019-11-12T13:05:00	0.2405	5.370		0.603703966	0.745742099	0.012318656	0.127089301	0.039170157
2019-11-12T13:10:00	0.2405	5.374		0.603795367	0.745876305	0.012322116	0.127125002	0.039181160
2019-11-12T13:15:00	0.2404	5.378		0.603220081	0.745031718	0.012300344	0.126900383	0.039111931
2019-11-12T13:20:00	0.2413	5.381		0.606310513	0.749572082	0.012417536	0.128109434	0.039484572
2019-11-12T13:25:00	0.2417	5.385		0.607733895	0.751665964	0.012471705	0.128668282	0.039656814
2019-11-12T13:30:00	0.2416	5.387		0.607492235	0.751310348	0.012462500	0.128573314	0.039627544
2019-11-12T13:35:00	0.2419	5.390		0.608249404	0.752424727	0.012491353	0.128870990	0.039719291
2019-11-12T13:40:00	0.2425	5.394		0.610337482	0.755500396	0.012571102	0.129693747	0.039972872
2019-11-12T13:45:00	0.2419	5.398		0.608431969	0.752693493	0.012498316	0.128942818	0.039741429
2019-11-12T13:50:00	0.2418	5.400		0.608190357	0.752337806	0.012489102	0.128847764	0.039712132
2019-11-12T13:55:00	0.2417	5.400		0.607615783	0.751492148	0.012467206	0.128621861	0.039642507
2019-11-12T14:00:00	0.2413	5.403		0.606375024	0.749666945	0.012419989	0.128134736	0.039492370
2019-11-12T14:05:00	0.2413	5.405		0.606466356	0.749801254	0.012423461	0.128170560	0.039503411
2019-11-12T14:10:00	0.2414	5.408		0.606557685	0.749935566	0.012426934	0.128206389	0.039514454
2019-11-12T14:15:00	0.2411	5.410		0.605649717	0.748600589	0.012392430	0.127850419	0.039404741
2019-11-12T14:20:00	0.2411	5.410		0.605741067	0.748734870	0.012395900	0.127886210	0.039415772
2019-11-12T14:25:00	0.2411	5.411		0.605832416	0.748869154	0.012399369	0.127922005	0.039426804
2019-11-12T14:30:00	0.2415	5.413		0.606922980	0.750472850	0.012440830	0.128349748	0.039558639
2019-11-12T14:35:00	0.2413	5.416		0.606348201	0.749627502	0.012418969	0.128124215	0.039489128
2019-11-12T14:40:00	0.2405	5.418		0.603773961	0.745844873	0.012321306	0.127116641	0.039178583
2019-11-12T14:45:00	0.2406	5.422		0.603865360	0.745979081	0.012324767	0.127152345	0.039189588
2019-11-12T14:50:00	0.2398	5.426		0.601289315	0.742199160	0.012227418	0.126148017	0.038880044
2019-11-12T14:55:00	0.2398	5.429		0.601380779	0.742333272	0.012230868	0.126183606	0.038891013
2019-11-12T15:00:00	0.2395	5.431		0.600471482	0.741000285	0.012196595	0.125830024	0.038782035
2019-11-12T15:05:00	0.2388	5.433		0.597892964	0.737224061	0.012099677	0.124830135	0.038473860
2019-11-12T15:10:00	0.2386	5.434		0.597316717	0.736380909	0.012078072	0.124607241	0.038405162
2019-11-12T15:15:00	0.2388	5.434		0.598076064	0.737492026	0.012106546	0.124901002	0.038495702
2019-11-12T15:20:00	0.2388	5.431		0.598167610	0.737626014	0.012109981	0.124936441	0.038506625
2019-11-12T15:25:00	0.2387	5.428		0.597591408	0.736782796	0.012088368	0.124713467	0.038437902
2019-11-12T15:30:00	0.2383	5.426		0.596347129	0.734962859	0.012041764	0.124232663	0.038289713
2019-11-12T15:35:00	0.2372	5.424		0.592762656	0.729727276	0.011908026	0.122852910	0.037864460
2019-11-12T15:40:00	0.2372	5.421		0.592519971	0.729373191	0.011898999	0.122759781	0.037835757
2019-11-12T15:45:00	0.2367	5.419		0.590939385	0.727068267	0.011840293	0.122154122	0.037649087
2019-11-12T15:50:00	0.2363	5.417		0.589692759	0.725251817	0.011794096	0.121677516	0.037502192
2019-11-12T15:55:00	0.2367	5.414		0.591122846	0.727335696	0.011847100	0.122224343	0.037670729
2019-11-12T16:00:00	0.2367	5.413		0.590880048	0.726981779	0.011838092	0.122131415	0.037642088
2019-11-12T16:05:00	0.2359	5.411		0.588193722	0.723069296	0.011738668	0.121105673	0.037325945
2019-11-12T16:10:00	0.2358	5.410		0.587849923	0.722569006	0.011725975	0.120974718	0.037285583
2019-11-12T16:15:00	0.2363	5.409		0.589514682	0.724992449	0.011787505	0.121609512	0.037481233
2019-11-12T16:20:00	0.2358	5.409		0.587831947	0.722542850	0.011725311	0.120967873	0.037283473
2019-11-12T16:25:00	0.2353	5.406		0.586483382	0.720581413	0.011675590	0.120454910	0.037125373
2019-11-12T16:30:00	0.2352	5.403		0.586139415	0.720081369	0.011662925	0.120324252	0.037085103
2019-11-12T16:35:00	0.2360	5.400		0.588809337	0.723965374	0.011761415	0.121340347	0.037398273
2019-11-12T16:40:00	0.2358	5.396		0.588130812	0.722977744	0.011736345	0.121081705	0.037318557
2019-11-12T16:45:00	0.2348	5.395		0.584772209	0.718094756	0.011612656	0.119805627	0.036925258
2019-11-12T16:50:00	0.2348	5.393		0.584763214	0.718081690	0.011612325	0.119802219	0.036924207
2019-11-12T16:55:00	0.2337	5.393		0.581065933	0.712717182	0.011476941	0.118405484	0.036493720
2019-11-12T17:00:00	0.2351	5.394		0.585750449	0.719516025	0.011648613	0.120176588	0.037039592
2019-11-12T17:05:00	0.2343	5.394		0.583060204	0.715609325	0.011549865	0.119157826	0.036725599
2019-11-12T17:10:00	0.2338	5.394		0.581374378	0.713164281	0.011488204	0.118521686	0.036529535
2019-11-12T17:15:00	0.2339	5.394		0.581700804	0.713637529	0.011500130	0.118644725	0.036567457
2019-11-12T17:20:00	0.2360	5.392		0.588728467	0.723847643	0.011758425	0.121309506	0.037388768
2019-11-12T17:25:00	0.2369	5.391		0.591730903	0.728222255	0.011869673	0.122457229	0.037742507
2019-11-12T17:30:00	0.2373	5.390		0.593059513	0.730160466	0.011919073	0.122966877	0.037899586
2019-11-12T17:35:00	0.2376	5.391		0.594053400	0.731611336	0.011956096	0.123348838	0.038017310
2019-11-12T17:40:00	0.2366	5.389		0.590700440	0.726720002	0.011831431	0.122062695	0.037620908
2019-11-12T17:45:00	0.2378	5.385		0.594703874	0.732561343	0.011980359	0.123599151	0.038094459
2019-11-12T17:50:00	0.2381	5.385		0.595697298	0.734012900	0.012017462	0.123981939	0.038212438
2019-11-12T17:55:00	0.2373	5.384		0.593014640	0.730094980	0.011917403	0.122949646	0.037894275
2019-11-12T18:00:00	0.2369	5.382		0.591668057	0.728130609	0.011867339	0.122433148	0.037735085
2019-11-12T18:05:00	0.2372	5.378		0.592662335	0.729580898	0.011904294	0.122814408	0.037852593
2019-11-12T18:10:00	0.2380	5.373		0.595327323	0.733472209	0.012003637	0.123839309	0.038168478
2019-11-12T18:15:00	0.2391	5.368		0.598991760	0.738832562	0.012140928	0.125255721	0.038605030
2019-11-12T18:20:00	0.2394	5.364		0.599983979	0.740285914	0.012178241	0.125640667	0.038723674
2019-11-12T18:25:00	0.2392	5.362		0.599307600	0.739295098	0.012152799	0.125378190	0.038642776
2019-11-12T18:30:00	0.2410	5.358		0.605300933	0.748087959	0.012379189	0.127713813	0.039362638
2019-11-12T18:35:00	0.2404	5.355		0.603292350	0.745137803	0.012303078	0.126928590	0.039120624
2019-11-12T18:40:00	0.2407	5.353		0.604283365	0.746592958	0.012340600	0.127315699	0.039239935
2019-11-12T18:45:00	0.2395	5.350		0.600272861	0.740709209	0.012189115	0.125752857	0.038758252
2019-11-12T18:50:00	0.2398	5.349		0.601264721	0.742163098	0.012226490	0.126138448	0.038877095
2019-11-12T18:55:00	0.2381	5.348		0.595580713	0.733842507	0.012013105	0.123936985	0.038198582
2019-11-12T19:00:00	0.2385	5.349		0.596907875	0.735782870	0.012062755	0.124449223	0.038356459
2019-11-12T19:05:00	0.2387	5.350		0.597566787	0.736746772	0.012087445	0.124703944	0.038434967
2019-11-12T19:10:00	0.2398	5.351		0.601228905	0.742110584	0.012225140	0.126124514	0.038872800
2019-11-12T19:15:00	0.2397	5.351		0.600886373	0.741608411	0.012212227	0.125991292	0.038831740
2019-11-12T19:20:00	0.2400	5.351		0.601878061	0.743062557	0.012249632	0.126377191	0.038950678
2019-11-12T19:25:00	0.2404	5.350		0.603202862	0.745006444	0.012299693	0.126893664	0.039109860
2019-11-12T19:30:00	0.2405	5.349		0.603860604	0.745972097	0.012324586	0.127150486	0.039189015
2019-11-12T19:35:00	0.2411	5.349		0.605850979	0.748896444	0.012400074	0.127929280	0.039429047
2019-11-12T19:40:00	0.2380	5.347		0.595499998	0.733724546	0.012010088	0.123905867	0.038188991
2019-11-12T19:45:00	0.2376	5.347		0.594154363	0.731758768	0.011959860	0.123387673	0.038029279
2019-11-12T19:50:00	0.2370	5.346		0.592139436	0.728818077	0.011884852	0.122613824	0.037790772
2019-11-12T19:55:00	0.2389	5.345		0.598478759	0.738081466	0.012121660	0.125056933	0.038543761
2019-11-12T20:00:00	0.2418	5.345		0.608137417	0.752259878	0.012487084	0.128826941	0.039705714
2019-11-12T20:05:00	0.2415	5.349		0.607129602	0.750776804	0.012448693	0.128430872	0.039583642
2019-11-12T20:10:00	0.2411	5.350		0.605788383	0.748804425	0.012397697	0.127904750	0.039421486
2019-11-12T20:15:00	0.2410	5.351		0.605446292	0.748301591	0.012384707	0.127770736	0.039380182
2019-11-12T20:20:00	0.2412	5.350		0.606103617	0.749267868	0.012409673	0.128028307	0.039459568
2019-11-12T20:25:00	0.2414	5.350		0.606760820	0.750234328	0.012434660	0.128286098	0.039539021
2019-11-12T20:30:00	0.2409	5.350		0.605086279	0.747772520	0.012371044	0.127629779	0.039336737
2019-11-12T20:35:00	0.2411	5.350		0.605743671	0.748738697	0.012395998	0.127887230	0.039416086
2019-11-12T20:40:00	0.2436	5.348		0.614053407	0.760982885	0.012713671	0.131164598	0.040426203
2019-11-12T20:45:00	0.2446	5.347		0.617366520	0.765880857	0.012841485	0.132483231	0.040832618
2019-11-12T20:50:00	0.2458	5.347		0.621339972	0.771767238	0.012995645	0.134073675	0.041322809
2019-11-12T20:55:00	0.2464	5.346		0.623320589	0.774706349	0.013072844	0.134870120	0.041568281
2019-11-12T21:00:00	0.2471	5.346		0.625631402	0.778139637	0.013163212	0.135802431	0.041855628
2019-11-12T21:05:00	0.2473	5.347		0.626285009	0.779111551	0.013188831	0.136066736	0.041937089
2019-11-12T21:10:00	0.2484	5.348		0.629917682	0.784519916	0.013331688	0.137540570	0.042391339
2019-11-12T21:15:00	0.2492	5.348		0.632554890	0.788453216	0.013435899	0.138615688	0.042722701
2019-11-12T21:20:00	0.2496	5.350		0.633868330	0.790414361	0.013487957	0.139152764	0.042888233
2019-11-12T21:25:00	0.2488	5.351		0.631214332	0.786453087	0.013382873	0.138068636	0.042554095
2019-11-12T21:30:00	0.2484	5.352		0.629882154	0.784466967	0.013330287	0.137526115	0.042386884
2019-11-12T21:35:00	0.2484	5.352		0.629873272	0.784453730	0.013329937	0.137522502	0.042385771
2019-11-12T21:40:00	0.2480	5.353		0.628540594	0.782468378	0.013277439	0.136980894	0.042218842
2019-11-12T21:45:00	0.2481	5.353		0.628862704	0.782948103	0.013290118	0.137111700	0.042259157
2019-11-12T21:50:00	0.2466	5.353		0.623885650	0.775545472	0.013094912	0.135097789	0.041638451
2019-11-12T21:55:00	0.2465	5.355		0.623545295	0.775040008	0.013081617	0.134960633	0.041596178
2019-11-12T22:00:00	0.2458	5.356		0.621215323	0.771582377	0.012990795	0.134023633	0.041307385
2019-11-12T22:05:00	0.2452	5.356		0.619409599	0.768905868	0.012920632	0.133299783	0.041084288
2019-11-12T22:10:00	0.2452	5.355		0.619262705	0.768688257	0.012914933	0.133240987	0.041066166
2019-11-12T22:15:00	0.2449	5.352		0.618451972	0.767487554	0.012883503	0.132916727	0.040966226
2019-11-12T22:20:00	0.2448	5.350		0.617973062	0.766778544	0.012864956	0.132725375	0.040907250
2019-11-12T22:25:00	0.2439	5.348		0.615169072	0.762631208	0.012756637	0.131607876	0.040562826
2019-11-12T22:30:00	0.2437	5.349		0.614357406	0.761431920	0.012725371	0.131285307	0.040463407
2019-11-12T22:35:00	0.2423	5.345		0.609554451	0.754346588	0.012541166	0.129384896	0.039877681
2019-11-12T22:40:00	0.2416	5.337		0.607409830	0.751189096	0.012459362	0.128540938	0.039617565
2019-11-12T22:45:00	0.2424	5.331		0.609925392	0.754893111	0.012555343	0.129531159	0.039922761
2019-11-12T22:50:00	0.2418	5.329		0.608113925	0.752225299	0.012486188	0.128817702	0.039702867
2019-11-12T22:55:00	0.2387	5.328		0.597630739	0.736840345	0.012089843	0.124728680	0.038442591
2019-11-12T23:00:00	0.2370	5.329		0.592136255	0.728813436	0.011884733	0.122612604	0.037790395
2019-11-12T23:05:00	0.2352	5.330		0.585963246	0.719825299	0.011656442	0.120257361	0.037064487
2019-11-12T23:10:00	0.2362	5.332		0.589498269	0.724968544	0.011786897	0.121603245	0.037479301
2019-11-12T23:15:00	0.2373	5.331		0.593029749	0.730117030	0.011917965	0.122955448	0.037896063
2019-11-12T23:20:00	0.2357	5.331		0.587528088	0.722100767	0.011714098	0.120852194	0.037247820
2019-11-12T23:25:00	0.2357	5.331		0.587714722	0.722372292	0.011720985	0.120923239	0.037269717
2019-11-12T23:30:00	0.2362	5.331		0.589240385	0.724592987	0.011777355	0.121504802	0.037448960
2019-11-12T23:35:00	0.2375	5.328		0.593775064	0.731204940	0.011945722	0.123241809	0.037984323
2019-11-12T23:40:00	0.2386	5.326		0.597302269	0.736359773	0.012077530	0.124601655	0.038403440
2019-11-12T23:45:00	0.2386	5.326		0.597488387	0.736632064	0.012084506	0.124673622	0.038425621
2019-11-12T23:50:00	0.2389	5.324		0.598342226	0.737881602	0.012116535	0.125004053	0.038527463
2019-11-12T23:55:00	0.2401	5.322		0.602198364	0.743532404	0.012261726	0.126501962	0.038989133
2019-11-13T00:00:00	0.2399	5.321		0.601717257	0.742826708	0.012243562	0.126314575	0.038931379
2019-11-13T00:05:00	0.2404	5.320		0.603236883	0.745056382	0.012300980	0.126906941	0.039113952
2019-11-13T00:10:00	0.2403	5.320		0.603089319	0.744839783	0.012295398	0.126849356	0.039096204
2019-11-13T00:15:00	0.2400	5.322		0.601941406	0.743155470	0.012252023	0.126401862	0.038958281
2019-11-13T00:20:00	0.2394	5.324		0.600125853	0.740493791	0.012183581	0.125695759	0.038740654
2019-11-13T00:25:00	0.2401	5.325		0.602313145	0.743700795	0.012266061	0.126546689	0.039002918
2019-11-13T00:30:00	0.2413	5.325		0.606498044	0.749847855	0.012424666	0.128182991	0.039507243
2019-11-13T00:35:00	0.2408	5.327		0.604684826	0.747182677	0.012355817	0.127472691	0.039288321
2019-11-13T00:40:00	0.2397	5.328		0.600869673	0.741583929	0.012211597	0.125984798	0.038829738
2019-11-13T00:45:00	0.2423	5.327		0.609718028	0.754587580	0.012547417	0.129449384	0.039897557
2019-11-13T00:50:00	0.2421	5.327		0.608905116	0.753390175	0.012516369	0.129129067	0.039798833
2019-11-13T00:55:00	0.2411	5.327		0.605760839	0.748763934	0.012396650	0.127893957	0.039418160
2019-11-13T01:00:00	0.2400	5.327		0.601946846	0.743163449	0.012252228	0.126403980	0.038958934
2019-11-13T01:05:00	0.2411	5.325		0.605799061	0.748820122	0.012398102	0.127908935	0.039422776
2019-11-13T01:10:00	0.2435	5.323		0.613638095	0.760369557	0.012697695	0.130999783	0.040375405
2019-11-13T01:15:00	0.2433	5.319		0.613158537	0.759661530	0.012679262	0.130809604	0.040316790
2019-11-13T01:20:00	0.2410	5.316		0.605356670	0.748169872	0.012381305	0.127735638	0.039369364
2019-11-13T01:25:00	0.2395	5.312		0.600207861	0.740613959	0.012186668	0.125727609	0.038750470
2019-11-13T01:30:00	0.2400	5.310		0.602061635	0.743331828	0.012256562	0.126448692	0.038972715
2019-11-13T01:35:00	0.2398	5.308		0.601246964	0.742137063	0.012225821	0.126131540	0.038874966
2019-11-13T01:40:00	0.2405	5.304		0.603766902	0.745834507	0.012321039	0.127113883	0.039177733
2019-11-13T01:45:00	0.2410	5.300		0.605285649	0.748065499	0.012378609	0.127707829	0.039360793
2019-11-13T01:50:00	0.2406	5.298		0.604138449	0.746380119	0.012335110	0.127259054	0.039222477
2019-11-13T01:55:00	0.2413	5.295		0.606323264	0.749590833	0.012418021	0.128114435	0.039486113
2019-11-13T02:00:00	0.2384	5.293		0.596836836	0.735678971	0.012060095	0.124421777	0.038348000
2019-11-13T02:05:00	0.2400	5.291		0.602028811	0.743283679	0.012255323	0.126435906	0.038968774
2019-11-13T02:10:00	0.2388	5.289		0.597876930	0.737200596	0.012099075	0.124823931	0.038471948
2019-11-13T02:15:00	0.2368	5.287		0.591379493	0.727709855	0.011856625	0.122322611	0.037701017
2019-11-13T02:20:00	0.2343	5.285		0.582858815	0.715317116	0.011542490	0.119081741	0.036702149
2019-11-13T02:25:00	0.2332	5.282		0.579355618	0.710239470	0.011414589	0.117762206	0.036295455
2019-11-13T02:30:00	0.2349	5.280		0.584908510	0.718292737	0.011617662	0.119857279	0.036941177
2019-11-13T02:35:00	0.2350	5.276		0.585430358	0.719050881	0.011636841	0.120055141	0.037002160
2019-11-13T02:40:00	0.2371	5.272		0.592311548	0.729069133	0.011891249	0.122679828	0.037811114
2019-11-13T02:45:00	0.2381	5.268		0.595840214	0.734221793	0.012022805	0.124037058	0.038229426
2019-11-13T02:50:00	0.2377	5.264		0.594355751	0.732052870	0.011967370	0.123465155	0.038053160
2019-11-13T02:55:00	0.2346	5.261		0.583831589	0.716728893	0.011578135	0.119449486	0.036815492
2019-11-13T03:00:00	0.2342	5.255		0.582677392	0.715053905	0.011535848	0.119013220	0.036681030
2019-11-13T03:05:00	0.2346	5.248		0.583870049	0.716784727	0.011579546	0.119464037	0.036819976
2019-11-13T03:10:00	0.2357	5.240		0.587742028	0.722412020	0.011721992	0.120933635	0.037272921
2019-11-13T03:15:00	0.2348	5.232		0.584578852	0.717813924	0.011605555	0.119732373	0.036902680
2019-11-13T03:20:00	0.2352	5.221		0.586105874	0.720032614	0.011661691	0.120311515	0.037081177
2019-11-13T03:25:00	0.2345	5.212		0.583611753	0.716409779	0.011570075	0.119366329	0.036789862
2019-11-13T03:30:00	0.2339	5.205		0.581786736	0.713762128	0.011503271	0.118677127	0.036577443
2019-11-13T03:35:00	0.2342	5.197		0.582644388	0.715006025	0.011534640	0.119000757	0.036677189
2019-11-13T03:40:00	0.2338	5.186		0.581154351	0.712845337	0.011480169	0.118438788	0.036503985
2019-11-13T03:45:00	0.2343	5.176		0.583018165	0.715548325	0.011548325	0.119141941	0.036720703
2019-11-13T03:50:00	0.2338	5.168		0.581192841	0.712901128	0.011481574	0.118453287	0.036508454
2019-11-13T03:55:00	0.2334	5.159		0.580037777	0.711227413	0.011439437	0.118018562	0.036374467
2019-11-13T04:00:00	0.2334	5.153		0.579889238	0.711012258	0.011434024	0.117962717	0.036357255
2019-11-13T04:05:00	0.2323	5.148		0.576293967	0.705810154	0.011303404	0.116615138	0.035941918
2019-11-13T04:10:00	0.2321	5.142		0.575720185	0.704980924	0.011282629	0.116400804	0.035875858
2019-11-13T04:15:00	0.2336	5.138		0.580518849	0.711924364	0.011456977	0.118199521	0.036430240
2019-11-13T04:20:00	0.2339	5.134		0.581623265	0.713525107	0.011497297	0.118615493	0.036558447
2019-11-13T04:25:00	0.2338	5.130		0.581385815	0.713180859	0.011488622	0.118525996	0.036530863
2019-11-13T04:30:00	0.2338	5.125		0.581148348	0.712836636	0.011479950	0.118436527	0.036503288
2019-11-13T04:35:00	0.2343	5.122		0.582923225	0.715410568	0.011544848	0.119106072	0.036709648
2019-11-13T04:40:00	0.2333	5.118		0.579666685	0.710689927	0.011425916	0.117879070	0.036331474
2019-11-13T04:45:00	0.2338	5.115		0.581442310	0.713262761	0.011490686	0.118547286	0.036537425
2019-11-13T04:50:00	0.2331	5.110		0.578855832	0.709515894	0.011396401	0.117574566	0.036237623
2019-11-13T04:55:00	0.2312	5.106		0.572570227	0.700433461	0.011168925	0.115227738	0.035514308
2019-11-13T05:00:00	0.2304	5.103		0.569977193	0.696696168	0.011075765	0.114266621	0.035218082
2019-11-13T05:05:00	0.2319	5.099		0.574783721	0.703628131	0.011248764	0.116051425	0.035768176
2019-11-13T05:10:00	0.2308	5.096		0.571183206	0.698433681	0.011119044	0.114713124	0.035355699
2019-11-13T05:15:00	0.2327	5.092		0.577667480	0.707796265	0.011353215	0.117129024	0.036100303
2019-11-13T05:20:00	0.2305	5.089		0.570370389	0.697262516	0.011089865	0.114412097	0.035262919
2019-11-13T05:25:00	0.2319	5.084		0.574840323	0.703709877	0.011250809	0.116072528	0.035774680
2019-11-13T05:30:00	0.2325	5.080		0.576954276	0.706764771	0.011327336	0.116862042	0.036018016
2019-11-13T05:35:00	0.2336	5.074		0.580744883	0.712251895	0.011465223	0.118284595	0.036456461
2019-11-13T05:40:00	0.2337	5.071		0.580842884	0.712393916	0.011468799	0.118321490	0.036467832
2019-11-13T05:45:00	0.2341	5.068		0.582282573	0.714481192	0.011521401	0.118864173	0.036635093
2019-11-13T05:50:00	0.2340	5.065		0.582045167	0.714136879	0.011512719	0.118774597	0.036607484
2019-11-13T05:55:00	0.2342	5.062		0.582478488	0.714765364	0.011528569	0.118938121	0.036657884
2019-11-13T06:00:00	0.2352	5.061		0.585928147	0.719774285	0.011655150	0.120244036	0.037060380
2019-11-13T06:05:00	0.2367	5.059		0.591047447	0.727225785	0.011844302	0.122195481	0.037661834
2019-11-13T06:10:00	0.2369	5.058		0.591814129	0.728343624	0.011872764	0.122489122	0.037752337
2019-11-13T06:15:00	0.2367	5.057		0.590908353	0.727023035	0.011839142	0.122142246	0.037645427
2019-11-13T06:20:00	0.2361	5.056		0.588998330	0.724240532	0.011768402	0.121412438	0.037420493
2019-11-13T06:25:00	0.2366	5.055		0.590769253	0.726820293	0.011833983	0.122089021	0.037629022
2019-11-13T06:30:00	0.2367	5.055		0.590866976	0.726962725	0.011837607	0.122126413	0.037640546
2019-11-13T06:35:00	0.2359	5.053		0.588287421	0.723205662	0.011742129	0.121141377	0.037336949
2019-11-13T06:40:00	0.2372	5.050		0.592734632	0.729686384	0.011906984	0.122842154	0.037861145
2019-11-13T06:45:00	0.2357	5.049		0.587813402	0.722515867	0.011724627	0.120960811	0.037281297
2019-11-13T06:50:00	0.2352	5.048		0.585901700	0.719735846	0.011654177	0.120233997	0.037057285
2019-11-13T06:55:00	0.2357	5.050		0.587674180	0.722313306	0.011719489	0.120907804	0.037264960
2019-11-13T07:00:00	0.2350	5.051		0.585427360	0.719046525	0.011636731	0.120054004	0.037001810
2019-11-13T07:05:00	0.2336	5.053		0.580495896	0.711891105	0.011456140	0.118190884	0.036427578
2019-11-13T07:10:00	0.2334	5.057		0.579922801	0.711060870	0.011435247	0.117975334	0.036361144
2019-11-13T07:15:00	0.2333	5.060		0.579685235	0.710716792	0.011426592	0.117886040	0.036333623
2019-11-13T07:20:00	0.2346	5.064		0.583808125	0.716694831	0.011577275	0.119440609	0.036812756
2019-11-13T07:25:00	0.2351	5.069		0.585581660	0.719270737	0.011642404	0.120112539	0.037019851
2019-11-13T07:30:00	0.2342	5.074		0.582662922	0.715032912	0.011535319	0.119007756	0.036679346
2019-11-13T07:35:00	0.2331	5.079		0.579070491	0.709826646	0.011404211	0.117655139	0.036262456
2019-11-13T07:40:00	0.2338	5.085		0.581181898	0.712885266	0.011481175	0.118449165	0.036507183
2019-11-13T07:45:00	0.2335	5.093		0.580273381	0.711568719	0.011448025	0.118107169	0.036401776
2019-11-13T07:50:00	0.2351	5.100		0.585735954	0.719494959	0.011648079	0.120171087	0.037037896
2019-11-13T07:55:00	0.2349	5.108		0.584828613	0.718176682	0.011614727	0.119827000	0.036931845
2019-11-13T08:00:00	0.2348	5.115		0.584591378	0.717832116	0.011606015	0.119737118	0.036904143
2019-11-13T08:05:00	0.2336	5.122		0.580665423	0.712136750	0.011462324	0.118254685	0.036447242
2019-11-13T08:10:00	0.2332	5.129		0.579421156	0.710334369	0.011416975	0.117786822	0.036303043
2019-11-13T08:15:00	0.2329	5.135		0.578176448	0.708532635	0.011371701	0.117319743	0.036159084
2019-11-13T08:20:00	0.2327	5.141		0.577602975	0.707702955	0.011350873	0.117104864	0.036092856
2019-11-13T08:25:00	0.2330	5.149		0.578708308	0.709302353	0.011391035	0.117519208	0.036220561
2019-11-13T08:30:00	0.2342	5.156		0.582497023	0.714792250	0.011529247	0.118945118	0.036660040
2019-11-13T08:35:00	0.2333	5.163		0.579575721	0.710558193	0.011422603	0.117844889	0.036320939
2019-11-13T08:40:00	0.2337	5.172		0.581015929	0.712644707	0.011475115	0.118386651	0.036487916
2019-11-13T08:45:00	0.2338	5.181		0.581449377	0.713273005	0.011490944	0.118549949	0.036538246
2019-11-13T08:50:00	0.2331	5.190		0.578862904	0.709526131	0.011396658	0.117577220	0.036238441
2019-11-13T08:55:00	0.2336	5.201		0.580638936	0.712098369	0.011461358	0.118244715	0.036444170
2019-11-13T09:00:00	0.2342	5.213		0.582749400	0.715158372	0.011538484	0.119040414	0.036689412
2019-11-13T09:05:00	0.2347	5.222		0.584188309	0.717246795	0.011591220	0.119584484	0.036857100
2019-11-13T09:10:00	0.2355	5.234		0.586966532	0.721283963	0.011693391	0.120638561	0.037181976
2019-11-13T09:15:00	0.2368	5.247		0.591415409	0.727762219	0.011857958	0.122336366	0.037705256
2019-11-13T09:20:00	0.2375	5.259		0.593519424	0.730831739	0.011936198	0.123143550	0.037954038
2019-11-13T09:25:00	0.2378	5.271		0.594619771	0.732438491	0.011977220	0.123566772	0.038084479
2019-11-13T09:30:00	0.2374	5.285		0.593380427	0.730628845	0.011931021	0.123090141	0.037937577
2019-11-13T09:35:00	0.2374	5.299		0.593478078	0.730771384	0.011934658	0.123127662	0.037949141
2019-11-13T09:40:00	0.2368	5.316		0.591234956	0.727499132	0.011851260	0.122267264	0.037683958
2019-11-13T09:45:00	0.2383	5.333		0.596346562	0.734962029	0.012041743	0.124232444	0.038289646
2019-11-13T09:50:00	0.2380	5.350		0.595441948	0.733639714	0.012007919	0.123883489	0.038182095
2019-11-13T09:55:00	0.2382	5.368		0.595873625	0.734270630	0.012024054	0.124049945	0.038233398
2019-11-13T10:00:00	0.2377	5.384		0.594300521	0.731972212	0.011965311	0.123443904	0.038046610
2019-11-13T10:05:00	0.2368	5.398		0.591436359	0.727792766	0.011858736	0.122344390	0.037707729
2019-11-13T10:10:00	0.2360	5.413		0.588569868	0.723616770	0.011752564	0.121249033	0.037370130
2019-11-13T10:15:00	0.2366	5.425		0.590722948	0.726752806	0.011832266	0.122071306	0.037623562
2019-11-13T10:20:00	0.2356	5.442		0.587186158	0.721603386	0.011701488	0.120722090	0.037207721
2019-11-13T10:25:00	0.2357	5.458		0.587666254	0.722301774	0.011719196	0.120904787	0.037264029
2019-11-13T10:30:00	0.2362	5.474		0.589485229	0.724949553	0.011786415	0.121598266	0.037477767
2019-11-13T10:35:00	0.2354	5.485		0.586617150	0.720775906	0.011680517	0.120505743	0.037141040
2019-11-13T10:40:00	0.2360	5.495		0.588771424	0.723910178	0.011760013	0.121325888	0.037393817
2019-11-13T10:45:00	0.2366	5.505		0.590589829	0.726558800	0.011827330	0.122020384	0.037607867
2019-11-13T10:50:00	0.2364	5.516		0.590065751	0.725795165	0.011807909	0.121820017	0.037546112
2019-11-13T10:55:00	0.2357	5.531		0.587533018	0.722107939	0.011714280	0.120854071	0.037248398
2019-11-13T11:00:00	0.2343	5.545		0.582987291	0.715503526	0.011547194	0.119130276	0.036717108
2019-11-13T11:05:00	0.2329	5.558		0.578435677	0.708907766	0.011381122	0.117416941	0.036189041
2019-11-13T11:10:00	0.2320	5.573		0.575222545	0.704261955	0.011264627	0.116215077	0.035818615
2019-11-13T11:15:00	0.2312	5.588		0.572679084	0.700590476	0.011172844	0.115268176	0.035526771
2019-11-13T11:20:00	0.2326	5.601		0.577193625	0.707110889	0.011336018	0.116951605	0.036045621
2019-11-13T11:25:00	0.2325	5.614		0.577003425	0.706835841	0.011329119	0.116880430	0.036023684
2019-11-13T11:30:00	0.2338	5.624		0.581176958	0.712878107	0.011480995	0.118447304	0.036506610
2019-11-13T11:35:00	0.2324	5.634		0.576622996	0.706285790	0.011315326	0.116738135	0.035979827
2019-11-13T11:40:00	0.2331	5.642		0.578783402	0.709411049	0.011393766	0.117547385	0.036229246
2019-11-13T11:45:00	0.2335	5.648		0.580271442	0.711565910	0.011447955	0.118106440	0.036401552
2019-11-13T11:50:00	0.2344	5.658		0.583435494	0.716153950	0.011563614	0.119299677	0.036769319
2019-11-13T11:55:00	0.2365	5.669		0.590279196	0.726106150	0.011815817	0.121901602	0.037571258
2019-11-13T12:00:00	0.2371	5.675		0.592431233	0.729243731	0.011895699	0.122725737	0.037825264
2019-11-13T12:05:00	0.2374	5.681		0.593244946	0.730431098	0.011925976	0.123038095	0.037921536
2019-11-13T12:10:00	0.2347	5.687		0.584352192	0.717484763	0.011597235	0.119646531	0.036876223
2019-11-13T12:15:00	0.2305	5.696		0.570056552	0.696810464	0.011078610	0.114295975	0.035227130
2019-11-13T12:20:00	0.2289	5.705		0.564814093	0.689271237	0.010891453	0.112365111	0.034632018
2019-11-13T12:25:00	0.2292	5.714		0.565971174	0.690933293	0.010932621	0.112789838	0.034762923
2019-11-13T12:30:00	0.2293	5.722		0.566117289	0.691143255	0.010937826	0.112843530	0.034779472
2019-11-13T12:35:00	0.2307	5.729		0.570976752	0.698136155	0.011111629	0.114636625	0.035332121
2019-11-13T12:40:00	0.2314	5.736		0.573140641	0.701256334	0.011189472	0.115439715	0.035579641
2019-11-13T12:45:00	0.2320	5.741		0.575303193	0.704378458	0.011267543	0.116245166	0.035827889
2019-11-13T12:50:00	0.2333	5.748		0.579478748	0.710417765	0.011419072	0.117808457	0.036309711
2019-11-13T12:55:00	0.2329	5.754		0.578281595	0.708684786	0.011375522	0.117359162	0.036171234
2019-11-13T13:00:00	0.2317	5.758		0.574396160	0.703068482	0.011234764	0.115906990	0.035723660
2019-11-13T13:05:00	0.2320	5.763		0.575214057	0.704249694	0.011264320	0.116211910	0.035817639
2019-11-13T13:10:00	0.2318	5.769		0.574687682	0.703489436	0.011245294	0.116015625	0.035757142
2019-11-13T13:15:00	0.2328	5.776		0.577856769	0.708070101	0.011360088	0.117199935	0.036122158
2019-11-13T13:20:00	0.2323	5.784		0.576323150	0.705852337	0.011304461	0.116626044	0.035945279
2019-11-13T13:25:00	0.2327	5.789		0.577476432	0.707519914	0.011346280	0.117057476	0.036078251
2019-11-13T13:30:00	0.2327	5.794		0.577622068	0.707730574	0.011351566	0.117112015	0.036095060
2019-11-13T13:35:00	0.2325	5.799		0.577096054	0.706969788	0.011332478	0.116915090	0.036034366
2019-11-13T13:40:00	0.2329	5.805		0.578249082	0.708637737	0.011374340	0.117346972	0.036167477
2019-11-13T13:45:00	0.2329	5.808		0.578394685	0.708848443	0.011379632	0.117401568	0.036184303
2019-11-13T13:50:00	0.2338	5.811		0.581224985	0.712947721	0.011482748	0.118465397	0.036512186
2019-11-13T13:55:00	0.2346	5.814		0.584053005	0.717050343	0.011586256	0.119533270	0.036841315
2019-11-13T14:00:00	0.2342	5.813		0.582522090	0.714828613	0.011530164	0.118954581	0.036662957
2019-11-13T14:05:00	0.2345	5.814		0.583673339	0.716499173	0.011572333	0.119389622	0.036797041
2019-11-13T14:10:00	0.2353	5.814		0.586164419	0.720117715	0.011663846	0.120333748	0.037088030
2019-11-13T14:15:00	0.2354	5.813		0.586644654	0.720815898	0.011681530	0.120516196	0.037144262
2019-11-13T14:20:00	0.2351	5.811		0.585784980	0.719566209	0.011649883	0.120189693	0.037043631
2019-11-13T14:25:00	0.2348	5.808		0.584589974	0.717830076	0.011605964	0.119736586	0.036903979
2019-11-13T14:30:00	0.2349	5.806		0.585070424	0.718527942	0.011623611	0.119918652	0.036960093
2019-11-13T14:35:00	0.2345	5.802		0.583539952	0.716305561	0.011567443	0.119339175	0.036781493
2019-11-13T14:40:00	0.2343	5.799		0.583014823	0.715543476	0.011548203	0.119140679	0.036720314
2019-11-13T14:45:00	0.2343	5.796		0.582824939	0.715267966	0.011541250	0.119068945	0.036698205
2019-11-13T14:50:00	0.2340	5.792		0.581964331	0.714019653	0.011509763	0.118744104	0.036598086
2019-11-13T14:55:00	0.2338	5.788		0.581438967	0.713257914	0.011490564	0.118546026	0.036537037
2019-11-13T15:00:00	0.2347	5.783		0.584266815	0.717360789	0.011594101	0.119614206	0.036866260
2019-11-13T15:05:00	0.2346	5.780		0.584076999	0.717085179	0.011587137	0.119542351	0.036844114
2019-11-13T15:10:00	0.2344	5.775		0.583216697	0.715836415	0.011555597	0.119216966	0.036743827
2019-11-13T15:15:00	0.2343	5.770		0.583026824	0.715560889	0.011548642	0.119145213	0.036721712
2019-11-13T15:20:00	0.2351	5.765		0.585518362	0.719178757	0.011640077	0.120088525	0.037012450
2019-11-13T15:25:00	0.2353	5.760		0.586333673	0.720363761	0.011670077	0.120398034	0.037107843
2019-11-13T15:30:00	0.2352	5.754		0.586143968	0.720087987	0.011663093	0.120325981	0.037085636
2019-11-13T15:35:00	0.2350	5.746		0.585284172	0.718838479	0.011631467	0.119999697	0.036985072
2019-11-13T15:40:00	0.2356	5.740		0.587439261	0.721971548	0.011710822	0.120818389	0.037237401
2019-11-13T15:45:00	0.2356	5.734		0.587249616	0.721695686	0.011703827	0.120746231	0.037215161
2019-11-13T15:50:00	0.2354	5.728		0.586725041	0.720932786	0.011684492	0.120546750	0.037153679
2019-11-13T15:55:00	0.2354	5.723		0.586535357	0.720656981	0.011677504	0.120474660	0.037131460
2019-11-13T16:00:00	0.2347	5.716		0.584335261	0.717460177	0.011596613	0.119640121	0.036874247
2019-11-13T16:05:00	0.2346	5.710		0.583816250	0.716706626	0.011577573	0.119443682	0.036813703
2019-11-13T16:10:00	0.2344	5.705		0.583297162	0.715953188	0.011558545	0.119247381	0.036753201
2019-11-13T16:15:00	0.2339	5.700		0.581771921	0.713740645	0.011502730	0.118671540	0.036575721
2019-11-13T16:20:00	0.2336	5.693		0.580581553	0.712015220	0.011459264	0.118223119	0.036437513
2019-11-13T16:25:00	0.2341	5.689		0.582410196	0.714666304	0.011526070	0.118912342	0.036649939
2019-11-13T16:30:00	0.2342	5.682		0.582561629	0.714885968	0.011531611	0.118969509	0.036667558
2019-11-13T16:35:00	0.2338	5.675		0.581371529	0.713160150	0.011488100	0.118520612	0.036529204
2019-11-13T16:40:00	0.2341	5.667		0.582193804	0.714352443	0.011518154	0.118830676	0.036624768
2019-11-13T16:45:00	0.2338	5.659		0.581339044	0.713113059	0.011486914	0.118508371	0.036525431
2019-11-13T16:50:00	0.2331	5.649		0.578806025	0.709443795	0.011394589	0.117555874	0.036231862
2019-11-13T16:55:00	0.2321	5.640		0.575599245	0.704806176	0.011278253	0.116355654	0.035861942
2019-11-13T17:00:00	0.2315	5.631		0.573734493	0.702113305	0.011210883	0.115660613	0.035647724
2019-11-13T17:05:00	0.2311	5.622		0.572205087	0.699906854	0.011155782	0.115092150	0.035472518
2019-11-13T17:10:00	0.2309	5.611		0.571684278	0.699155933	0.011137050	0.114898897	0.035412956
2019-11-13T17:15:00	0.2311	5.601		0.572172517	0.699859887	0.011154610	0.115080059	0.035468792
2019-11-13T17:20:00	0.2315	5.591		0.573669381	0.702019330	0.011208534	0.115636382	0.035640256
2019-11-13T17:25:00	0.2306	5.580		0.570457895	0.697388575	0.011093005	0.114444485	0.035272902
2019-11-13T17:30:00	0.2305	5.571		0.570273352	0.697122735	0.011086385	0.114376186	0.035251851
2019-11-13T17:35:00	0.2311	5.562		0.572107377	0.699765955	0.011152267	0.115055880	0.035461340
2019-11-13T17:40:00	0.2309	5.553		0.571586554	0.699015055	0.011133537	0.114862653	0.035401785
2019-11-13T17:45:00	0.2317	5.544		0.574092240	0.702629701	0.011223792	0.115793790	0.035688771
2019-11-13T17:50:00	0.2323	5.535		0.576260217	0.705761372	0.011302182	0.116602525	0.035938031
2019-11-13T17:55:00	0.2324	5.528		0.576747819	0.706466255	0.011319851	0.116784814	0.035994214
2019-11-13T18:00:00	0.2321	5.520		0.575555746	0.704743327	0.011276679	0.116339416	0.035856938
2019-11-13T18:05:00	0.2311	5.512		0.572345990	0.700110052	0.011160853	0.115144462	0.035488641
2019-11-13T18:10:00	0.2306	5.501		0.570479505	0.697419706	0.011093780	0.114452484	0.035275367
2019-11-13T18:15:00	0.2306	5.492		0.570631453	0.697638616	0.011099233	0.114508738	0.035292705
2019-11-13T18:20:00	0.2302	5.480		0.569100690	0.695434138	0.011044364	0.113942670	0.035118238
2019-11-13T18:25:00	0.2298	5.470		0.567906011	0.693715005	0.011001639	0.113501877	0.034982381
2019-11-13T18:30:00	0.2294	5.460		0.566374054	0.691512259	0.010946974	0.112937914	0.034808562
2019-11-13T18:35:00	0.2294	5.449		0.566526181	0.691730910	0.010952396	0.112993853	0.034825803
2019-11-13T18:40:00	0.2291	5.440		0.565330621	0.690013052	0.010909821	0.112554611	0.034690424
2019-11-13T18:45:00	0.2296	5.430		0.567167240	0.692652510	0.010975260	0.113229733	0.034898503
2019-11-13T18:50:00	0.2291	5.420		0.565634959	0.690450233	0.010920651	0.112666340	0.034724860
2019-11-13T18:55:00	0.2298	5.411		0.567808181	0.693574280	0.010998144	0.113465820	0.034971268
2019-11-13T19:00:00	0.2295	5.399		0.566949904	0.692340026	0.010967506	0.113149735	0.034873847
2019-11-13T19:05:00	0.2300	5.389		0.568449004	0.694496221	0.011021047	0.113702114	0.035044096
2019-11-13T19:10:00	0.2302	5.378		0.569274316	0.695684082	0.011050581	0.114006804	0.035138004
2019-11-13T19:15:00	0.2303	5.362		0.569426317	0.695902916	0.011056024	0.114062965	0.035155314
2019-11-13T19:20:00	0.2304	5.346		0.569914871	0.696606412	0.011073530	0.114243572	0.035210978
2019-11-13T19:25:00	0.2302	5.330		0.569057111	0.695371408	0.011042804	0.113926576	0.035113277
2019-11-13T19:30:00	0.2304	5.314		0.569882280	0.696559476	0.011072362	0.114231519	0.035207264
2019-11-13T19:35:00	0.2302	5.300		0.569361125	0.695809058	0.011053689	0.114038877	0.035147889
2019-11-13T19:40:00	0.2296	5.283		0.567156253	0.692636713	0.010974868	0.113225688	0.034897257
2019-11-13T19:45:00	0.2294	5.267		0.566634692	0.691886884	0.010956265	0.113033762	0.034838103
2019-11-13T19:50:00	0.2296	5.252		0.567123636	0.692589814	0.010973704	0.113213681	0.034893556
2019-11-13T19:55:00	0.2292	5.237		0.565928281	0.690871660	0.010931094	0.112774079	0.034758066
2019-11-13T20:00:00	0.2298	5.223		0.567764585	0.693511573	0.010996586	0.113449754	0.034966316
2019-11-13T20:05:00	0.2301	5.209		0.568926713	0.695183714	0.011038137	0.113878425	0.035098437
2019-11-13T20:10:00	0.2303	5.194		0.569415337	0.695887108	0.011055631	0.114058908	0.035154063
2019-11-13T20:15:00	0.2295	5.180		0.566873679	0.692230439	0.010964787	0.113121685	0.034865202
2019-11-13T20:20:00	0.2293	5.168		0.566015173	0.690996516	0.010934188	0.112806005	0.034767906
2019-11-13T20:25:00	0.2297	5.155		0.567514674	0.693152131	0.010987661	0.113357677	0.034937937
2019-11-13T20:30:00	0.2293	5.142		0.566319452	0.691433783	0.010945028	0.112917839	0.034802375
2019-11-13T20:35:00	0.2291	5.130		0.565460810	0.690200058	0.010914453	0.112602399	0.034705153
2019-11-13T20:40:00	0.2297	5.117		0.567634139	0.693323949	0.010991927	0.113401688	0.034951502
2019-11-13T20:45:00	0.2302	5.107		0.569132946	0.695480570	0.011045519	0.113954583	0.035121909
2019-11-13T20:50:00	0.2304	5.096		0.569958096	0.696668665	0.011075080	0.114259558	0.035215905
2019-11-13T20:55:00	0.2302	5.085		0.569100347	0.695433644	0.011044352	0.113942544	0.035118199
2019-11-13T21:00:00	0.2305	5.074		0.570262032	0.697106429	0.011085979	0.114371997	0.035250560
2019-11-13T21:05:00	0.2305	5.065		0.570077478	0.696840604	0.011079360	0.114303716	0.035229515
2019-11-13T21:10:00	0.2297	5.056		0.567536301	0.693183235	0.010988434	0.113365644	0.034940393
2019-11-13T21:15:00	0.2302	5.047		0.569035150	0.695339795	0.011042018	0.113918466	0.035110777
2019-11-13T21:20:00	0.2295	5.037		0.566830072	0.692167748	0.010963232	0.113105640	0.034860257
2019-11-13T21:25:00	0.2292	5.029		0.565971555	0.690933841	0.010932635	0.112789978	0.034762967
2019-11-13T21:30:00	0.2284	5.020		0.563090205	0.686797054	0.010830264	0.111733838	0.034437454
2019-11-13T21:35:00	0.2280	5.013		0.561893467	0.685080897	0.010787889	0.111296667	0.034302714
2019-11-13T21:40:00	0.2279	5.004		0.561371119	0.684332205	0.010769420	0.111106125	0.034243987
2019-11-13T21:45:00	0.2280	4.997		0.561860801	0.685034069	0.010786734	0.111284746	0.034299040
2019-11-13T21:50:00	0.2284	4.990		0.563024895	0.686703367	0.010827949	0.111709958	0.034430094
2019-11-13T21:55:00	0.2283	4.980		0.562839958	0.686438096	0.010821396	0.111642351	0.034409257
2019-11-13T22:00:00	0.2291	4.969		0.565351919	0.690043643	0.010910579	0.112562428	0.034692833
2019-11-13T22:05:00	0.2287	4.960		0.564203682	0.688394873	0.010869766	0.112141377	0.034563061
2019-11-13T22:10:00	0.2284	4.953		0.563055067	0.686746649	0.010829019	0.111720990	0.034433494
2019-11-13T22:15:00	0.2282	4.946		0.562580641	0.686066181	0.010812211	0.111547587	0.034380050
2019-11-13T22:20:00	0.2286	4.941		0.563792227	0.687804324	0.010855161	0.111990694	0.034516620
2019-11-13T22:25:00	0.2289	4.937		0.564666358	0.689059107	0.010886202	0.112310941	0.034615323
2019-11-13T22:30:00	0.2288	4.933		0.564529230	0.688862223	0.010881330	0.112260672	0.034599829
2019-11-13T22:35:00	0.2288	4.929		0.564392097	0.688665346	0.010876458	0.112210412	0.034584339
2019-11-13T22:40:00	0.2277	4.924		0.560882438	0.683631972	0.010752156	0.110928014	0.034189091
2019-11-13T22:45:00	0.2280	4.919		0.561757299	0.684885703	0.010783073	0.111246980	0.034287400
2019-11-13T22:50:00	0.2283	4.912		0.562631941	0.686139751	0.010814028	0.111566330	0.034385827
2019-11-13T22:55:00	0.2278	4.905		0.561145436	0.684008798	0.010761446	0.111023852	0.034218629
2019-11-13T23:00:00	0.2278	4.900		0.561008169	0.683812113	0.010756597	0.110973826	0.034203211
2019-11-13T23:05:00	0.2288	4.895		0.564580501	0.688935834	0.010883151	0.112279466	0.034605622
2019-11-13T23:10:00	0.2289	4.892		0.564780424	0.689222890	0.010890256	0.112352764	0.034628213
2019-11-13T23:15:00	0.2284	4.887		0.563294834	0.687090617	0.010837518	0.111808677	0.034460520
2019-11-13T23:20:00	0.2284	4.881		0.563157652	0.686893810	0.010832655	0.111758503	0.034445056
2019-11-13T23:25:00	0.2289	4.875		0.564706099	0.689116167	0.010887614	0.112325511	0.034619813
2019-11-13T23:30:00	0.2293	4.869		0.566253859	0.691339516	0.010942691	0.112893727	0.034794943
2019-11-13T23:35:00	0.2296	4.864		0.567127375	0.692595190	0.010973837	0.113215057	0.034893980
2019-11-13T23:40:00	0.2293	4.857		0.566316628	0.691429725	0.010944928	0.112916801	0.034802055
2019-11-13T23:45:00	0.2292	4.852		0.565842645	0.690748617	0.010928044	0.112742619	0.034748370
2019-11-13T23:50:00	0.2288	4.847		0.564357507	0.688615690	0.010875229	0.112197737	0.034580432
2019-11-13T23:55:00	0.2283	4.841		0.562871737	0.686483676	0.010822522	0.111653966	0.034412837
2019-11-14T00:00:00	0.2283	4.834		0.562734538	0.686286894	0.010817662	0.111603821	0.034397382
2019-11-14T00:05:00	0.2282	4.827		0.562597334	0.686090120	0.010812802	0.111553686	0.034381929
2019-11-14T00:10:00	0.2280	4.821		0.561785534	0.684926176	0.010784072	0.111257282	0.034290575
2019-11-14T00:15:00	0.2274	4.817		0.559623659	0.681829169	0.010707751	0.110469893	0.034047894
2019-11-14T00:20:00	0.2270	4.813		0.558473535	0.680183119	0.010667260	0.110052157	0.033919144
2019-11-14T00:25:00	0.2268	4.811		0.557660774	0.679020559	0.010638693	0.109757440	0.033828309
2019-11-14T00:30:00	0.2262	4.807		0.555834259	0.676409922	0.010574637	0.109096585	0.033624627
2019-11-14T00:35:00	0.2261	4.803		0.555358848	0.675730868	0.010557997	0.108924908	0.033571714
2019-11-14T00:40:00	0.2261	4.798		0.555221354	0.675534512	0.010553187	0.108875282	0.033556419
2019-11-14T00:45:00	0.2260	4.792		0.555083853	0.675338163	0.010548377	0.108825666	0.033541127
2019-11-14T00:50:00	0.2262	4.787		0.555622263	0.676107094	0.010567215	0.109020013	0.033601027
2019-11-14T00:55:00	0.2264	4.783		0.556498446	0.677358926	0.010597908	0.109336661	0.033698621
2019-11-14T01:00:00	0.2254	4.776		0.552980822	0.672336998	0.010474960	0.108068229	0.033307678
2019-11-14T01:05:00	0.2244	4.765		0.549459636	0.667320161	0.010352615	0.106806026	0.032918654
2019-11-14T01:10:00	0.2250	4.749		0.551690866	0.670497941	0.010430055	0.107604960	0.033164894
2019-11-14T01:15:00	0.2248	4.734		0.550876519	0.669337652	0.010401758	0.107313018	0.033074914
2019-11-14T01:20:00	0.2253	4.719		0.552768653	0.672034419	0.010467567	0.107991962	0.033284172
2019-11-14T01:25:00	0.2254	4.705		0.552969255	0.672320500	0.010474557	0.108064071	0.033306396
2019-11-14T01:30:00	0.2254	4.690		0.552831665	0.672124279	0.010469763	0.108014610	0.033291152
2019-11-14T01:35:00	0.2248	4.676		0.551002611	0.669517274	0.010406137	0.107358196	0.033088839
2019-11-14T01:40:00	0.2239	4.664		0.547818119	0.664984874	0.010295829	0.106220174	0.032738089
2019-11-14T01:45:00	0.2242	4.651		0.549034854	0.666715637	0.010337906	0.106654266	0.032871880
2019-11-14T01:50:00	0.2246	4.637		0.550251162	0.668447007	0.010380054	0.107089101	0.033005901
2019-11-14T01:55:00	0.2250	4.624		0.551805357	0.670661113	0.010434037	0.107646037	0.033177554
2019-11-14T02:00:00	0.2251	4.611		0.552006015	0.670947114	0.010441017	0.107718048	0.033199749
2019-11-14T02:05:00	0.2245	4.597		0.549838055	0.667858828	0.010365729	0.106941313	0.032960351
2019-11-14T02:10:00	0.2238	4.583		0.547668740	0.664772471	0.010290670	0.106166942	0.032721683
2019-11-14T02:15:00	0.2230	4.567		0.544820180	0.660725585	0.010192527	0.105154427	0.032409616
2019-11-14T02:20:00	0.2220	4.548		0.541630004	0.656201259	0.010083180	0.104026307	0.032061918
2019-11-14T02:25:00	0.2211	4.530		0.538436885	0.651681093	0.009974328	0.102903300	0.031715796
2019-11-14T02:30:00	0.2201	4.510		0.534900882	0.646685256	0.009854482	0.101666876	0.031334719
2019-11-14T02:35:00	0.2199	4.491		0.534422592	0.646010288	0.009838328	0.101500213	0.031283351
2019-11-14T02:40:00	0.2207	4.474		0.537003285	0.649654404	0.009925651	0.102401109	0.031561016
2019-11-14T02:45:00	0.2200	4.456		0.534825914	0.646579448	0.009851949	0.101640744	0.031326664
2019-11-14T02:50:00	0.2196	4.438		0.533327448	0.644465510	0.009801389	0.101119120	0.031165895
2019-11-14T02:55:00	0.2192	4.419		0.531828331	0.642352485	0.009750937	0.100598622	0.031005472
2019-11-14T03:00:00	0.2189	4.401		0.531009298	0.641198821	0.009723429	0.100314823	0.030918003
2019-11-14T03:05:00	0.2188	4.385		0.530530468	0.640524610	0.009707365	0.100149093	0.030866923
2019-11-14T03:10:00	0.2183	4.370		0.529030135	0.638413289	0.009657117	0.099630698	0.030707149
2019-11-14T03:15:00	0.2176	4.356		0.526506962	0.634866722	0.009572909	0.098761942	0.030439390
2019-11-14T03:20:00	0.2174	4.341		0.525686663	0.633714826	0.009545613	0.098480328	0.030352593
2019-11-14T03:25:00	0.2168	4.327		0.523843192	0.631128146	0.009484412	0.097848926	0.030157989
2019-11-14T03:30:00	0.2171	4.311		0.524727457	0.632368564	0.009513744	0.098151538	0.030251257
2019-11-14T03:35:00	0.2173	4.294		0.525611495	0.633609298	0.009543113	0.098454542	0.030344646
2019-11-14T03:40:00	0.2179	4.276		0.527517495	0.636286503	0.009606590	0.099109420	0.030546486
2019-11-14T03:45:00	0.2189	4.259		0.530784135	0.640881760	0.009715873	0.100236874	0.030893978
2019-11-14T03:50:00	0.2194	4.241		0.532687278	0.643562959	0.009779828	0.100896686	0.031097338
2019-11-14T03:55:00	0.2194	4.225		0.532548881	0.643367881	0.009775170	0.100848631	0.031082527
2019-11-14T04:00:00	0.2192	4.210		0.532070265	0.642693371	0.009759070	0.100682531	0.031031334
2019-11-14T04:05:00	0.2191	4.195		0.531787326	0.642294714	0.009749559	0.100584404	0.031001090
2019-11-14T04:10:00	0.2197	4.181		0.533545472	0.644772971	0.009808737	0.101194932	0.031189261
2019-11-14T04:15:00	0.2204	4.167		0.535982479	0.648212306	0.009891063	0.102044275	0.031451037
2019-11-14T04:20:00	0.2196	4.153		0.533319936	0.644454918	0.009801136	0.101116509	0.031165090
2019-11-14T04:25:00	0.2197	4.142		0.533717301	0.645015313	0.009814530	0.101254700	0.031207682
2019-11-14T04:30:00	0.2195	4.133		0.533094385	0.644136885	0.009793537	0.101038111	0.031140927
2019-11-14T04:35:00	0.2198	4.124		0.534171888	0.645656566	0.009829865	0.101412908	0.031256443
2019-11-14T04:40:00	0.2201	4.116		0.534909122	0.646696885	0.009854761	0.101669749	0.031335604
2019-11-14T04:45:00	0.2202	4.108		0.535306304	0.647257538	0.009868186	0.101808257	0.031378293
2019-11-14T04:50:00	0.2203	4.098		0.535703441	0.647818254	0.009881619	0.101946844	0.031421007
2019-11-14T04:55:00	0.2206	4.088		0.536780130	0.649339078	0.009918084	0.102323049	0.031536957
2019-11-14T05:00:00	0.2206	4.078		0.536837354	0.649419933	0.009920024	0.102343063	0.031543126
2019-11-14T05:05:00	0.2208	4.069		0.537574019	0.650461052	0.009945015	0.102600889	0.031622590
2019-11-14T05:10:00	0.2210	4.058		0.537970895	0.651022135	0.009958492	0.102739927	0.031665443
2019-11-14T05:15:00	0.2214	4.049		0.539386405	0.653024359	0.010006634	0.103236600	0.031818523
2019-11-14T05:20:00	0.2209	4.039		0.537745648	0.650703676	0.009950842	0.102661004	0.031641119
2019-11-14T05:25:00	0.2213	4.029		0.539161250	0.652705770	0.009998969	0.103157517	0.031794148
2019-11-14T05:30:00	0.2208	4.018		0.537520386	0.650385238	0.009943195	0.102582107	0.031616802
2019-11-14T05:35:00	0.2217	4.008		0.540633434	0.654789624	0.010049143	0.103675157	0.031953690
2019-11-14T05:40:00	0.2211	3.999		0.538314104	0.651507451	0.009970154	0.102860241	0.031702525
2019-11-14T05:45:00	0.2209	3.990		0.537692017	0.650627858	0.009949021	0.102642217	0.031635328
2019-11-14T05:50:00	0.2212	3.982		0.538768087	0.652149554	0.009985591	0.103019496	0.031751609
2019-11-14T05:55:00	0.2207	3.974		0.537127036	0.649829285	0.009929848	0.102444410	0.031574362
2019-11-14T06:00:00	0.2210	3.966		0.538203282	0.651350733	0.009966388	0.102821384	0.031690549
2019-11-14T06:05:00	0.2211	3.958		0.538260483	0.651431621	0.009968332	0.102841439	0.031696730
2019-11-14T06:10:00	0.2213	3.952		0.538996845	0.652473167	0.009993373	0.103099791	0.031776357
2019-11-14T06:15:00	0.2216	3.947		0.540072509	0.653995435	0.010030011	0.103477774	0.031892855
2019-11-14T06:20:00	0.2216	3.941		0.540129678	0.654076367	0.010031960	0.103497882	0.031899052
2019-11-14T06:25:00	0.2214	3.935		0.539507917	0.653196313	0.010010772	0.103279292	0.031831681
2019-11-14T06:30:00	0.2221	3.930		0.541940727	0.656641562	0.010093804	0.104135916	0.032095701
2019-11-14T06:35:00	0.2230	3.927		0.544710833	0.660570371	0.010188770	0.105115657	0.032397666
2019-11-14T06:40:00	0.2234	3.922		0.546123591	0.662576488	0.010237375	0.105617113	0.032552220
2019-11-14T06:45:00	0.2228	3.919		0.544146997	0.659770180	0.010169404	0.104915862	0.032336088
2019-11-14T06:50:00	0.2238	3.915		0.547592821	0.664664528	0.010288048	0.106139893	0.032713346
2019-11-14T06:55:00	0.2250	3.912		0.551711902	0.670527921	0.010430787	0.107612507	0.033167220
2019-11-14T07:00:00	0.2256	3.908		0.553798085	0.673502854	0.010503460	0.108362260	0.033398301
2019-11-14T07:05:00	0.2258	3.906		0.554193108	0.674066567	0.010517249	0.108504524	0.033442148
2019-11-14T07:10:00	0.2265	3.904		0.556615649	0.677526426	0.010602017	0.109379053	0.033711686
2019-11-14T07:15:00	0.2267	3.903		0.557348127	0.678573497	0.010627715	0.109644176	0.033793400
2019-11-14T07:20:00	0.2262	3.901		0.555715843	0.676240765	0.010570491	0.109053810	0.033611443
2019-11-14T07:25:00	0.2262	3.900		0.555772755	0.676322062	0.010572484	0.109074367	0.033617779
2019-11-14T07:30:00	0.2254	3.901		0.553125377	0.672543170	0.010479998	0.108120207	0.033323698
2019-11-14T07:35:00	0.2256	3.902		0.553520477	0.673106774	0.010493775	0.108262338	0.033367504
2019-11-14T07:40:00	0.2259	3.902		0.554591648	0.674635428	0.010531171	0.108648151	0.033486415
2019-11-14T07:45:00	0.2263	3.903		0.556000394	0.676647265	0.010580456	0.109156611	0.033643128
2019-11-14T07:50:00	0.2265	3.905		0.556733001	0.677694151	0.010606132	0.109421507	0.033724771
2019-11-14T07:55:00	0.2268	3.908		0.557803184	0.679224220	0.010643696	0.109809050	0.033844216
2019-11-14T08:00:00	0.2267	3.913		0.557522338	0.678822595	0.010633832	0.109707281	0.033812849
2019-11-14T08:05:00	0.2266	3.916		0.556903685	0.677938118	0.010612118	0.109483270	0.033743807
2019-11-14T08:10:00	0.2267	3.920		0.557298356	0.678502336	0.010625968	0.109626151	0.033787845
2019-11-14T08:15:00	0.2285	3.925		0.563429567	0.687283924	0.010842296	0.111857966	0.034475712
2019-11-14T08:20:00	0.2297	3.933		0.567529970	0.693174129	0.010988208	0.113363312	0.034939674
2019-11-14T08:25:00	0.2293	3.944		0.566239359	0.691318678	0.010942174	0.112888397	0.034793300
2019-11-14T08:30:00	0.2288	3.959		0.564611233	0.688979957	0.010884243	0.112290731	0.034609094
2019-11-14T08:35:00	0.2286	3.978		0.563656706	0.687609845	0.010850352	0.111941086	0.034501330
2019-11-14T08:40:00	0.2284	4.008		0.563039141	0.686723803	0.010828454	0.111715167	0.034431699
2019-11-14T08:45:00	0.2286	4.044		0.563770270	0.687772814	0.010854382	0.111982656	0.034514142
2019-11-14T08:50:00	0.2287	4.077		0.564164165	0.688338150	0.010868363	0.112126900	0.034558600
2019-11-14T08:55:00	0.2281	4.109		0.562197799	0.685517206	0.010798657	0.111407758	0.034336953
2019-11-14T09:00:00	0.2280	4.142		0.561917307	0.685115073	0.010788733	0.111305367	0.034305395
2019-11-14T09:05:00	0.2281	4.177		0.561974118	0.685196516	0.010790743	0.111326101	0.034311786
2019-11-14T09:10:00	0.2281	4.213		0.562030928	0.685277960	0.010792752	0.111346837	0.034318177
2019-11-14T09:15:00	0.2277	4.249		0.560738282	0.683425448	0.010747066	0.110875501	0.034172906
2019-11-14T09:20:00	0.2284	4.284		0.563156277	0.686891838	0.010832606	0.111758000	0.034444901
2019-11-14T09:25:00	0.2285	4.309		0.563550241	0.687457074	0.010846576	0.111902122	0.034489321
2019-11-14T09:30:00	0.2277	4.335		0.560908769	0.683669697	0.010753086	0.110937608	0.034192048
2019-11-14T09:35:00	0.2271	4.353		0.558602947	0.680368279	0.010671812	0.110099121	0.033933618
2019-11-14T09:40:00	0.2275	4.363		0.560010072	0.682382444	0.010721372	0.110610422	0.034091206
2019-11-14T09:45:00	0.2266	4.374		0.557028143	0.678116029	0.010616485	0.109528317	0.033757691
2019-11-14T09:50:00	0.2263	4.387		0.556071538	0.676748909	0.010582948	0.109182321	0.033651052
2019-11-14T09:55:00	0.2267	4.401		0.557479685	0.678761605	0.010632334	0.109691829	0.033808087
2019-11-14T10:00:00	0.2263	4.415		0.556185349	0.676911522	0.010586935	0.109223456	0.033663730
2019-11-14T10:05:00	0.2264	4.425		0.556277995	0.677043902	0.010590181	0.109256948	0.033674052
2019-11-14T10:10:00	0.2269	4.436		0.558059491	0.679590809	0.010652703	0.109901969	0.033872854
2019-11-14T10:15:00	0.2266	4.445		0.557138901	0.678274366	0.010620371	0.109568413	0.033770049
2019-11-14T10:20:00	0.2264	4.452		0.556218068	0.676958273	0.010588081	0.109235284	0.033667375
2019-11-14T10:25:00	0.2264	4.460		0.556310714	0.677090654	0.010591328	0.109268777	0.033677698
2019-11-14T10:30:00	0.2265	4.467		0.556741189	0.677705854	0.010606419	0.109424470	0.033725684
2019-11-14T10:35:00	0.2276	4.476		0.560547721	0.683152467	0.010740340	0.110806103	0.034151517
2019-11-14T10:40:00	0.2272	4.484		0.558952650	0.680868693	0.010684118	0.110226079	0.033972748
2019-11-14T10:45:00	0.2277	4.491		0.560732779	0.683417564	0.010746872	0.110873497	0.034172288
2019-11-14T10:50:00	0.2283	4.498		0.562849240	0.686451408	0.010821725	0.111645743	0.034410302
2019-11-14T10:55:00	0.2282	4.507		0.562604477	0.686100364	0.010813055	0.111556296	0.034382734
2019-11-14T11:00:00	0.2283	4.521		0.562696952	0.686232989	0.010816330	0.111590086	0.034393148
2019-11-14T11:05:00	0.2285	4.535		0.563463822	0.687333074	0.010843511	0.111870500	0.034479575
2019-11-14T11:10:00	0.2284	4.546		0.563219102	0.686981967	0.010834833	0.111780977	0.034451983
2019-11-14T11:15:00	0.2286	4.560		0.563648725	0.687598393	0.010850069	0.111938165	0.034500430
2019-11-14T11:20:00	0.2285	4.574		0.563404018	0.687247267	0.010841390	0.111848619	0.034472831
2019-11-14T11:25:00	0.2279	4.587		0.561472912	0.684478090	0.010773018	0.111143244	0.034255427
2019-11-14T11:30:00	0.2282	4.600		0.562577318	0.686061415	0.010812093	0.111546373	0.034379675
2019-11-14T11:35:00	0.2278	4.609		0.560983176	0.683776304	0.010755714	0.110964719	0.034200404
2019-11-14T11:40:00	0.2277	4.621		0.560738282	0.683425448	0.010747066	0.110875501	0.034172906
2019-11-14T11:45:00	0.2280	4.633		0.561842920	0.685008438	0.010786102	0.111278221	0.034297029
2019-11-14T11:50:00	0.2287	4.645		0.564295810	0.688527121	0.010873038	0.112175130	0.034573464
2019-11-14T11:55:00	0.2284	4.656		0.563039676	0.686724570	0.010828473	0.111715362	0.034431760
2019-11-14T12:00:00	0.2278	4.668		0.561108368	0.683955683	0.010760136	0.111010341	0.034214465
2019-11-14T12:05:00	0.2286	4.679		0.563898913	0.687957434	0.010858947	0.112029755	0.034528658
2019-11-14T12:10:00	0.2288	4.689		0.564328453	0.688573981	0.010874197	0.112187091	0.034577151
2019-11-14T12:15:00	0.2292	4.703		0.565768915	0.690642684	0.010925419	0.112715536	0.034740023
2019-11-14T12:20:00	0.2287	4.715		0.564176230	0.688355468	0.010868792	0.112131320	0.034559962
2019-11-14T12:25:00	0.2273	4.724		0.559546242	0.681718335	0.010705023	0.110441749	0.034039220
2019-11-14T12:30:00	0.2275	4.735		0.559976318	0.682334109	0.010720182	0.110598143	0.034087422
2019-11-14T12:35:00	0.2262	4.746		0.555678679	0.676187679	0.010569190	0.109040388	0.033607307
2019-11-14T12:40:00	0.2258	4.761		0.554419434	0.674389600	0.010525154	0.108586076	0.033467283
2019-11-14T12:45:00	0.2257	4.778		0.554174078	0.674039408	0.010516585	0.108497668	0.033440035
2019-11-14T12:50:00	0.2267	4.794		0.557307958	0.678516065	0.010626305	0.109629629	0.033788916
2019-11-14T12:55:00	0.2267	4.810		0.557400574	0.678648488	0.010629556	0.109663173	0.033799255
2019-11-14T13:00:00	0.2260	4.829		0.555128182	0.675401462	0.010549928	0.108841660	0.033546057
2019-11-14T13:05:00	0.2256	4.845		0.553530626	0.673121253	0.010494129	0.108265990	0.033368630
2019-11-14T13:10:00	0.2264	4.861		0.556327245	0.677114276	0.010591907	0.109274753	0.033679540
2019-11-14T13:15:00	0.2258	4.876		0.554392212	0.674350743	0.010524203	0.108576265	0.033464259
2019-11-14T13:20:00	0.2265	4.889		0.556850349	0.677861880	0.010610248	0.109463968	0.033737858
2019-11-14T13:25:00	0.2257	4.904		0.553901478	0.673650388	0.010507068	0.108399487	0.033409775
2019-11-14T13:30:00	0.2262	4.918		0.555684190	0.676195552	0.010569383	0.109042378	0.033607920
2019-11-14T13:35:00	0.2274	4.934		0.559829410	0.682123752	0.010715003	0.110544708	0.034070953
2019-11-14T13:40:00	0.2273	4.947		0.559584435	0.681773013	0.010706369	0.110455633	0.034043499
2019-11-14T13:45:00	0.2263	4.955		0.555962162	0.676592644	0.010579117	0.109142796	0.033638870
2019-11-14T13:50:00	0.2252	4.962		0.552336115	0.671417684	0.010452505	0.107836566	0.033236277
2019-11-14T13:55:00	0.2255	4.964		0.553443421	0.672996846	0.010491087	0.108234611	0.033358958
2019-11-14T14:00:00	0.2273	4.965		0.559279568	0.681336594	0.010695629	0.110344832	0.034009349
2019-11-14T14:05:00	0.2277	4.965		0.560722116	0.683402288	0.010746495	0.110869613	0.034171091
2019-11-14T14:10:00	0.2287	4.965		0.564187226	0.688371252	0.010869182	0.112135348	0.034561203
2019-11-14T14:15:00	0.2286	4.968		0.563942557	0.688020072	0.010860496	0.112045736	0.034533584
2019-11-14T14:20:00	0.2284	4.969		0.563023520	0.686701395	0.010827901	0.111709455	0.034429939
2019-11-14T14:25:00	0.2274	4.969		0.559742363	0.681999119	0.010711934	0.110513053	0.034061196
2019-11-14T14:30:00	0.2271	4.967		0.558822218	0.680682037	0.010679528	0.110178717	0.033958151
2019-11-14T14:35:00	0.2271	4.963		0.558577172	0.680331400	0.010670906	0.110089766	0.033930735
2019-11-14T14:40:00	0.2269	4.959		0.557994431	0.679497750	0.010650416	0.109878379	0.033865584
2019-11-14T14:45:00	0.2270	4.953		0.558424698	0.680113249	0.010665543	0.110034437	0.033913682
2019-11-14T14:50:00	0.2283	4.949		0.562903897	0.686529805	0.010823662	0.111665722	0.034416460
2019-11-14T14:55:00	0.2299	4.944		0.568050863	0.693923383	0.011006814	0.113555276	0.034998839
2019-11-14T15:00:00	0.2307	4.936		0.570835870	0.697933147	0.011106570	0.114584438	0.035316037
2019-11-14T15:05:00	0.2318	4.930		0.574627080	0.703401922	0.011243105	0.115993038	0.035750181
2019-11-14T15:10:00	0.2323	4.921		0.576399246	0.705962333	0.011307218	0.116654486	0.035954045
2019-11-14T15:15:00	0.2320	4.914		0.575147451	0.704153480	0.011261911	0.116187063	0.035809981
2019-11-14T15:20:00	0.2323	4.904		0.576247547	0.705743058	0.011301723	0.116597790	0.035936571
2019-11-14T15:25:00	0.2314	4.897		0.573315018	0.701507942	0.011195757	0.115504556	0.035599626
2019-11-14T15:30:00	0.2305	4.889		0.570043516	0.696791689	0.011078142	0.114291153	0.035225643
2019-11-14T15:35:00	0.2307	4.878		0.570808775	0.697894106	0.011105598	0.114574403	0.035312944
2019-11-14T15:40:00	0.2306	4.868		0.570564569	0.697542255	0.011096832	0.114483975	0.035285073
2019-11-14T15:45:00	0.2303	4.856		0.569647272	0.696221058	0.011063940	0.114144629	0.035180483
2019-11-14T15:50:00	0.2314	4.844		0.573103548	0.701202816	0.011188135	0.115425924	0.035575391
2019-11-14T15:55:00	0.2319	4.834		0.574876484	0.703762102	0.011252116	0.116086010	0.035778836
2019-11-14T16:00:00	0.2307	4.822		0.570933615	0.698073995	0.011110080	0.114620645	0.035327196
2019-11-14T16:05:00	0.2306	4.808		0.570635759	0.697644821	0.011099387	0.114510332	0.035293197
2019-11-14T16:10:00	0.2303	4.795		0.569664808	0.696246308	0.011064568	0.114151112	0.035182481
2019-11-14T16:15:00	0.2304	4.780		0.569703424	0.696301914	0.011065952	0.114165387	0.035186881
2019-11-14T16:20:00	0.2302	4.764		0.569068854	0.695388311	0.011043225	0.113930913	0.035114614
2019-11-14T16:25:00	0.2303	4.749		0.569444082	0.695928494	0.011056661	0.114069530	0.035157337
2019-11-14T16:30:00	0.2313	4.734		0.572846934	0.700832601	0.011178890	0.115330543	0.035545993
2019-11-14T16:35:00	0.2320	4.719		0.575238530	0.704285046	0.011265205	0.116221040	0.035820453
2019-11-14T16:40:00	0.2323	4.702		0.576285025	0.705797229	0.011303080	0.116611796	0.035940888
2019-11-14T16:45:00	0.2328	4.688		0.578002807	0.708281389	0.011365392	0.117254659	0.036139025
2019-11-14T16:50:00	0.2333	4.675		0.579719749	0.710766778	0.011427849	0.117899011	0.036337620
2019-11-14T16:55:00	0.2331	4.667		0.579086991	0.709850534	0.011404811	0.117661333	0.036264366
2019-11-14T17:00:00	0.2335	4.662		0.580132339	0.711364395	0.011442884	0.118054121	0.036385427
2019-11-14T17:05:00	0.2339	4.658		0.581512824	0.713364988	0.011493262	0.118573862	0.036545616
2019-11-14T17:10:00	0.2330	4.654		0.578531157	0.709045951	0.011384593	0.117452752	0.036200079
2019-11-14T17:15:00	0.2341	4.653		0.582260581	0.714449293	0.011520597	0.118855874	0.036632535
2019-11-14T17:20:00	0.2342	4.653		0.582634399	0.714991534	0.011534275	0.118996985	0.036676027
2019-11-14T17:25:00	0.2333	4.653		0.579653685	0.710671100	0.011425443	0.117874184	0.036329968
2019-11-14T17:30:00	0.2329	4.653		0.578349510	0.708783068	0.011377990	0.117384628	0.036179082
2019-11-14T17:35:00	0.2334	4.653		0.580066283	0.711268705	0.011440476	0.118029281	0.036377771
2019-11-14T17:40:00	0.2338	4.653		0.581446793	0.713269260	0.011490849	0.118548976	0.036537946
2019-11-14T17:45:00	0.2332	4.655		0.579136453	0.709922143	0.011406611	0.117679903	0.036270089
2019-11-14T17:50:00	0.2322	4.657		0.575816805	0.705120540	0.011286126	0.116436882	0.035886978
2019-11-14T17:55:00	0.2327	4.659		0.577534816	0.707604364	0.011348399	0.117079339	0.036084989
2019-11-14T18:00:00	0.2327	4.662		0.577573346	0.707660096	0.011349797	0.117093768	0.036089436
2019-11-14T18:05:00	0.2329	4.666		0.578283420	0.708687427	0.011375588	0.117359847	0.036171445
2019-11-14T18:10:00	0.2327	4.668		0.577650403	0.707771562	0.011352595	0.117122628	0.036098331
2019-11-14T18:15:00	0.2322	4.670		0.576009542	0.705399069	0.011293104	0.116508867	0.035909164
2019-11-14T18:20:00	0.2322	4.670		0.576048088	0.705454776	0.011294499	0.116523266	0.035913602
2019-11-14T18:25:00	0.2321	4.672		0.575750667	0.705024969	0.011283732	0.116412186	0.035879366
2019-11-14T18:30:00	0.2329	4.677		0.578140283	0.708480304	0.011370387	0.117306186	0.036154906
2019-11-14T18:35:00	0.2325	4.683		0.576835547	0.706593096	0.011323031	0.116817627	0.036004327
2019-11-14T18:40:00	0.2333	4.689		0.579560059	0.710535513	0.011422033	0.117839005	0.036319126
2019-11-14T18:45:00	0.2344	4.700		0.583288391	0.715940458	0.011558224	0.119244065	0.036752179
2019-11-14T18:50:00	0.2336	4.712		0.580643762	0.712105362	0.011461534	0.118246532	0.036444729
2019-11-14T18:55:00	0.2330	4.723		0.578668613	0.709244897	0.011389591	0.117504315	0.036215971
2019-11-14T19:00:00	0.2329	4.731		0.578371414	0.708814765	0.011378786	0.117392841	0.036181614
2019-11-14T19:05:00	0.2323	4.737		0.576394984	0.705956173	0.011307064	0.116652893	0.035953555
2019-11-14T19:10:00	0.2321	4.743		0.575425628	0.704555336	0.011271972	0.116290853	0.035841970
2019-11-14T19:15:00	0.2324	4.747		0.576472068	0.706067601	0.011309857	0.116681707	0.035962435
2019-11-14T19:20:00	0.2331	4.752		0.578861193	0.709523654	0.011396596	0.117576578	0.036238243
2019-11-14T19:25:00	0.2326	4.754		0.577220898	0.707150333	0.011337007	0.116961813	0.036048767
2019-11-14T19:30:00	0.2309	4.755		0.571545520	0.698955904	0.011132063	0.114847437	0.035397095
2019-11-14T19:35:00	0.2298	4.752		0.567881944	0.693680386	0.011000779	0.113493006	0.034979647
2019-11-14T19:40:00	0.2291	4.745		0.565562636	0.690346334	0.010918077	0.112639784	0.034716675
2019-11-14T19:45:00	0.2288	4.736		0.564590274	0.688949866	0.010883499	0.112283048	0.034606726
2019-11-14T19:50:00	0.2282	4.730		0.562606043	0.686102610	0.010813111	0.111556868	0.034382910
2019-11-14T19:55:00	0.2283	4.722		0.562644737	0.686158102	0.010814481	0.111571006	0.034387268
2019-11-14T20:00:00	0.2281	4.713		0.562008884	0.685246357	0.010791973	0.111338791	0.034315697
2019-11-14T20:05:00	0.2283	4.707		0.562722124	0.686269090	0.010817222	0.111599285	0.034395983
2019-11-14T20:10:00	0.2278	4.705		0.561074242	0.683906786	0.010758931	0.110997904	0.034210632
2019-11-14T20:15:00	0.2271	4.705		0.558750404	0.680579273	0.010677000	0.110152645	0.033950115
2019-11-14T20:20:00	0.2280	4.709		0.561826377	0.684984723	0.010785516	0.111272185	0.034295168
2019-11-14T20:25:00	0.2274	4.710		0.559840572	0.682139735	0.010715396	0.110548768	0.034072204
2019-11-14T20:30:00	0.2269	4.708		0.558191328	0.679779393	0.010657337	0.109949780	0.033887590
2019-11-14T20:35:00	0.2269	4.704		0.558230071	0.679834815	0.010658699	0.109963832	0.033891921
2019-11-14T20:40:00	0.2268	4.704		0.557593412	0.678924229	0.010636328	0.109733031	0.033820786
2019-11-14T20:45:00	0.2277	4.706		0.560670406	0.683328211	0.010744670	0.110850780	0.034165287
2019-11-14T20:50:00	0.2276	4.710		0.560371673	0.682900305	0.010734127	0.110742010	0.034131763
2019-11-14T20:55:00	0.2274	4.717		0.559735405	0.681989157	0.010711689	0.110510523	0.034060416
2019-11-14T21:00:00	0.2278	4.723		0.561123959	0.683978024	0.010760687	0.111016024	0.034216217
2019-11-14T21:05:00	0.2279	4.727		0.561500041	0.684516971	0.010773977	0.111153138	0.034258477
2019-11-14T21:10:00	0.2267	4.731		0.557488177	0.678773748	0.010632632	0.109694905	0.033809035
2019-11-14T21:15:00	0.2272	4.732		0.559215219	0.681244488	0.010693363	0.110321452	0.034002143
2019-11-14T21:20:00	0.2274	4.732		0.559591508	0.681783138	0.010706618	0.110458204	0.034044291
2019-11-14T21:25:00	0.2266	4.734		0.556928898	0.677974159	0.010613003	0.109492395	0.033746620
2019-11-14T21:30:00	0.2263	4.737		0.555954125	0.676581162	0.010578835	0.109139892	0.033637975
2019-11-14T21:35:00	0.2263	4.740		0.555992893	0.676636549	0.010580193	0.109153900	0.033642292
2019-11-14T21:40:00	0.2269	4.743		0.558058382	0.679589222	0.010652664	0.109901567	0.033872730
2019-11-14T21:45:00	0.2269	4.750		0.558097126	0.679644642	0.010654025	0.109915617	0.033877061
2019-11-14T21:50:00	0.2270	4.756		0.558473535	0.680183119	0.010667260	0.110052157	0.033919144
2019-11-14T21:55:00	0.2265	4.765		0.556823643	0.677823707	0.010609311	0.109454304	0.033734880
2019-11-14T22:00:00	0.2270	4.773		0.558551015	0.680293974	0.010669985	0.110080273	0.033927809
2019-11-14T22:05:00	0.2271	4.779		0.558685357	0.680486196	0.010674712	0.110129033	0.033942837
2019-11-14T22:10:00	0.2269	4.788		0.558144399	0.679712263	0.010655687	0.109932760	0.033882344
2019-11-14T22:15:00	0.2263	4.799		0.555914285	0.676524245	0.010577440	0.109125497	0.033633538
2019-11-14T22:20:00	0.2256	4.808		0.553682740	0.673338277	0.010499435	0.108320737	0.033385503
2019-11-14T22:25:00	0.2259	4.816		0.554831423	0.674977737	0.010539551	0.108734608	0.033513062
2019-11-14T22:30:00	0.2263	4.827		0.555979728	0.676617740	0.010579732	0.109149143	0.033640826
2019-11-14T22:35:00	0.2268	4.839		0.557803146	0.679224165	0.010643695	0.109809036	0.033844211
2019-11-14T22:40:00	0.2268	4.848		0.557599800	0.678933364	0.010636552	0.109735346	0.033821499
2019-11-14T22:45:00	0.2274	4.856		0.559759910	0.682024242	0.010712553	0.110519434	0.034063163
2019-11-14T22:50:00	0.2266	4.865		0.557193074	0.678351814	0.010622272	0.109588027	0.033776094
2019-11-14T22:55:00	0.2263	4.875		0.555976169	0.676612655	0.010579607	0.109147857	0.033640430
2019-11-14T23:00:00	0.2258	4.884		0.554420813	0.674391568	0.010525202	0.108586573	0.033467436
2019-11-14T23:05:00	0.2268	4.893		0.557596243	0.678928277	0.010636427	0.109734057	0.033821102
2019-11-14T23:10:00	0.2271	4.900		0.558743636	0.680569588	0.010676762	0.110150188	0.033949358
2019-11-14T23:15:00	0.2277	4.908		0.560903037	0.683661484	0.010752884	0.110935519	0.034191404
2019-11-14T23:20:00	0.2264	4.915		0.556310484	0.677090326	0.010591320	0.109268694	0.033677673
2019-11-14T23:25:00	0.2263	4.922		0.556107051	0.676799650	0.010584192	0.109195156	0.033655007
2019-11-14T23:30:00	0.2265	4.928		0.556579337	0.677474530	0.010600744	0.109365918	0.033707638
2019-11-14T23:35:00	0.2262	4.934		0.555700151	0.676218349	0.010569942	0.109048143	0.033609697
2019-11-14T23:40:00	0.2257	4.938		0.554144671	0.673997439	0.010515558	0.108487075	0.033436770
2019-11-14T23:45:00	0.2265	4.940		0.556644767	0.677568042	0.010603038	0.109389586	0.033714933
2019-11-14T23:50:00	0.2269	4.946		0.558130172	0.679691911	0.010655187	0.109927600	0.033880754
2019-11-14T23:55:00	0.2263	4.953		0.555900048	0.676503906	0.010576941	0.109120353	0.033631953
2019-11-15T00:00:00	0.2275	4.960		0.560086753	0.682492252	0.010724076	0.110638320	0.034099805
2019-11-15T00:05:00	0.2275	4.967		0.560221036	0.682684559	0.010728813	0.110687183	0.034114865
2019-11-15T00:10:00	0.2268	4.977		0.557654539	0.679011643	0.010638475	0.109755180	0.033827612
2019-11-15T00:15:00	0.2264	4.986		0.556437796	0.677272253	0.010595782	0.109314727	0.033691861
2019-11-15T00:20:00	0.2266	4.995		0.556910036	0.677947197	0.010612341	0.109485568	0.033744516
2019-11-15T00:25:00	0.2273	5.003		0.559408148	0.681520647	0.010700158	0.110391556	0.034023750
2019-11-15T00:30:00	0.2267	5.011		0.557516600	0.678814390	0.010633630	0.109705202	0.033812209
2019-11-15T00:35:00	0.2271	5.021		0.558664019	0.680455663	0.010673961	0.110121287	0.033940450
2019-11-15T00:40:00	0.2275	5.028		0.560148563	0.682580768	0.010726256	0.110660810	0.034106736
2019-11-15T00:45:00	0.2276	5.030		0.560282844	0.682773079	0.010730993	0.110709677	0.034121798
2019-11-15T00:50:00	0.2269	5.034		0.558054098	0.679583095	0.010652513	0.109900014	0.033872252
2019-11-15T00:55:00	0.2270	5.038		0.558526119	0.680258353	0.010669110	0.110071239	0.033925025
2019-11-15T01:00:00	0.2272	5.041		0.558998076	0.680933704	0.010685717	0.110242576	0.033977833
2019-11-15T01:05:00	0.2283	5.046		0.562843854	0.686443684	0.010821534	0.111643775	0.034409696
2019-11-15T01:10:00	0.2289	5.051		0.564663686	0.689055270	0.010886107	0.112309961	0.034615021
2019-11-15T01:15:00	0.2282	5.061		0.562437739	0.685861253	0.010807151	0.111495383	0.034363960
2019-11-15T01:20:00	0.2278	5.071		0.561222665	0.684119463	0.010764174	0.111052002	0.034227306
2019-11-15T01:25:00	0.2282	5.078		0.562368865	0.685762490	0.010804712	0.111470227	0.034356206
2019-11-15T01:30:00	0.2278	5.086		0.561153766	0.684020735	0.010761740	0.111026888	0.034219565
2019-11-15T01:35:00	0.2281	5.094		0.561962695	0.685180139	0.010790338	0.111321932	0.034310501
2019-11-15T01:40:00	0.2284	5.100		0.563108651	0.686823517	0.010830918	0.111740584	0.034439533
2019-11-15T01:45:00	0.2294	5.108		0.566613059	0.691855787	0.010955493	0.113025805	0.034835651
2019-11-15T01:50:00	0.2298	5.114		0.567757491	0.693501369	0.010996333	0.113447139	0.034965510
2019-11-15T01:55:00	0.2297	5.123		0.567554725	0.693209732	0.010989091	0.113372431	0.034942484
2019-11-15T02:00:00	0.2309	5.131		0.571391097	0.698733312	0.011126513	0.114790181	0.035379449
2019-11-15T02:05:00	0.2296	5.138		0.567149158	0.692626510	0.010974615	0.113223076	0.034896452
2019-11-15T02:10:00	0.2299	5.147		0.568293414	0.694272346	0.011015484	0.113644719	0.035026406
2019-11-15T02:15:00	0.2297	5.156		0.567417176	0.693011916	0.010984181	0.113321766	0.034926869
2019-11-15T02:20:00	0.2297	5.166		0.567551178	0.693204630	0.010988965	0.113371124	0.034942082
2019-11-15T02:25:00	0.2290	5.174		0.564990070	0.689523942	0.010897709	0.112429653	0.034651911
2019-11-15T02:30:00	0.2295	5.180		0.566808783	0.692137143	0.010962472	0.113097807	0.034857842
2019-11-15T02:35:00	0.2279	5.184		0.561549370	0.684587671	0.010775721	0.111171129	0.034264022
2019-11-15T02:40:00	0.2284	5.184		0.563032686	0.686714544	0.010828226	0.111712807	0.034430972
2019-11-15T02:45:00	0.2283	5.185		0.562829646	0.686423304	0.010821031	0.111638581	0.034408095
2019-11-15T02:50:00	0.2298	5.184		0.567681627	0.693392250	0.010993623	0.113419185	0.034956894
2019-11-15T02:55:00	0.2302	5.187		0.569162341	0.695522885	0.011046571	0.113965441	0.035125256
2019-11-15T03:00:00	0.2311	5.189		0.572324392	0.700078904	0.011160076	0.115136443	0.035486170
2019-11-15T03:05:00	0.2314	5.188		0.573130739	0.701242048	0.011189115	0.115436034	0.035578507
2019-11-15T03:10:00	0.2324	5.190		0.576625126	0.706288870	0.011315404	0.116738932	0.035980073
2019-11-15T03:15:00	0.2326	5.197		0.577430484	0.707453456	0.011344612	0.117040272	0.036072949
2019-11-15T03:20:00	0.2334	5.204		0.579913982	0.711048098	0.011434926	0.117972019	0.036360122
2019-11-15T03:25:00	0.2329	5.212		0.578369246	0.708811628	0.011378708	0.117392028	0.036181363
2019-11-15T03:30:00	0.2326	5.219		0.577159694	0.707061820	0.011334787	0.116938906	0.036041707
2019-11-15T03:35:00	0.2319	5.228		0.574941687	0.703856274	0.011254473	0.116110322	0.035786329
2019-11-15T03:40:00	0.2328	5.239		0.578098528	0.708419886	0.011368870	0.117290534	0.036150082
2019-11-15T03:45:00	0.2332	5.248		0.579239213	0.710070923	0.011410351	0.117718489	0.036281981
2019-11-15T03:50:00	0.2332	5.258		0.579372763	0.710264295	0.011415213	0.117768645	0.036297440
2019-11-15T03:55:00	0.2329	5.268		0.578163557	0.708513981	0.011371233	0.117314910	0.036157595
2019-11-15T04:00:00	0.2325	5.276		0.576953934	0.706764276	0.011327324	0.116861914	0.036017977
2019-11-15T04:05:00	0.2325	5.285		0.576995475	0.706824344	0.011328830	0.116877456	0.036022767
2019-11-15T04:10:00	0.2318	5.292		0.574685207	0.703485863	0.011245205	0.116014703	0.035756858
2019-11-15T04:15:00	0.2311	5.302		0.572373416	0.700149605	0.011161840	0.115154646	0.035491780
2019-11-15T04:20:00	0.2304	5.311		0.569723551	0.696330897	0.011066673	0.114172828	0.035189175
2019-11-15T04:25:00	0.2315	5.321		0.573465358	0.701724888	0.011201177	0.115560475	0.035616861
2019-11-15T04:30:00	0.2320	5.332		0.575187529	0.704211373	0.011263360	0.116202014	0.035814589
2019-11-15T04:35:00	0.2318	5.341		0.574556960	0.703300668	0.011240572	0.115966906	0.035742127
2019-11-15T04:40:00	0.2317	5.348		0.574262420	0.702875388	0.011229935	0.115857169	0.035708305
2019-11-15T04:45:00	0.2300	5.359		0.568585254	0.694692285	0.011025920	0.113752386	0.035059590
2019-11-15T04:50:00	0.2298	5.368		0.567953495	0.693783311	0.011003335	0.113519380	0.034987775
2019-11-15T04:55:00	0.2287	5.377		0.564289167	0.688517585	0.010872802	0.112172696	0.034572714
2019-11-15T05:00:00	0.2286	5.384		0.563656630	0.687609736	0.010850350	0.111941058	0.034501321
2019-11-15T05:05:00	0.2288	5.392		0.564372549	0.688637284	0.010875764	0.112203249	0.034582131
2019-11-15T05:10:00	0.2283	5.401		0.562728465	0.686278184	0.010817447	0.111601602	0.034396698
2019-11-15T05:15:00	0.2278	5.407		0.561083605	0.683920201	0.010759261	0.111001317	0.034211684
2019-11-15T05:20:00	0.2266	5.412		0.557074283	0.678181989	0.010618104	0.109545020	0.033762839
2019-11-15T05:25:00	0.2269	5.417		0.558129254	0.679690598	0.010655155	0.109927267	0.033880651
2019-11-15T05:30:00	0.2264	5.424		0.556482221	0.677335740	0.010597339	0.109330794	0.033696812
2019-11-15T05:35:00	0.2262	5.433		0.555848266	0.676429932	0.010575128	0.109101645	0.033626187
2019-11-15T05:40:00	0.2268	5.442		0.557579144	0.678903826	0.010635827	0.109727861	0.033819193
2019-11-15T05:45:00	0.2275	5.451		0.559984231	0.682345440	0.010720461	0.110601021	0.034088309
2019-11-15T05:50:00	0.2279	5.461		0.561375704	0.684338776	0.010769582	0.111107797	0.034244502
2019-11-15T05:55:00	0.2271	5.469		0.558717479	0.680532160	0.010675842	0.110140693	0.033946431
2019-11-15T06:00:00	0.2268	5.477		0.557746228	0.679142766	0.010641695	0.109788408	0.033837853
2019-11-15T06:05:00	0.2262	5.486		0.555761120	0.676305442	0.010572077	0.109070164	0.033616484
2019-11-15T06:10:00	0.2278	5.494		0.561205240	0.684094494	0.010763559	0.111045650	0.034225348
2019-11-15T06:15:00	0.2274	5.502		0.559897188	0.682220801	0.010717392	0.110569359	0.034078550
2019-11-15T06:20:00	0.2288	5.513		0.564323757	0.688567240	0.010874031	0.112185370	0.034576621
2019-11-15T06:25:00	0.2281	5.521		0.562005102	0.685240935	0.010791839	0.111337410	0.034315271
2019-11-15T06:30:00	0.2286	5.532		0.563732925	0.687719221	0.010853057	0.111968985	0.034509929
2019-11-15T06:35:00	0.2287	5.541		0.564111742	0.688262903	0.010866502	0.112107698	0.034552681
2019-11-15T06:40:00	0.2285	5.551		0.563479173	0.687355101	0.010844055	0.111876117	0.034481306
2019-11-15T06:45:00	0.2293	5.561		0.566217113	0.691286707	0.010941382	0.112880219	0.034790780
2019-11-15T06:50:00	0.2294	5.573		0.566595661	0.691830779	0.010954873	0.113019406	0.034833679
2019-11-15T06:55:00	0.2289	5.583		0.564952623	0.689470165	0.010896377	0.112415918	0.034647678
2019-11-15T07:00:00	0.2307	5.594		0.570718915	0.697764630	0.011102372	0.114541124	0.035302687
2019-11-15T07:05:00	0.2303	5.605		0.569414422	0.695885791	0.011055598	0.114058570	0.035153959
2019-11-15T07:10:00	0.2297	5.617		0.567435943	0.693038905	0.010984851	0.113328678	0.034928999
2019-11-15T07:15:00	0.2294	5.630		0.566467117	0.691646015	0.010950291	0.112972133	0.034819108
2019-11-15T07:20:00	0.2290	5.643		0.565161036	0.689769478	0.010903789	0.112492377	0.034671243
2019-11-15T07:25:00	0.2297	5.656		0.567560904	0.693218619	0.010989312	0.113374707	0.034943186
2019-11-15T07:30:00	0.2299	5.670		0.568276024	0.694247325	0.011014862	0.113638306	0.035024429
2019-11-15T07:35:00	0.2283	5.682		0.562926355	0.686562019	0.010824457	0.111673932	0.034418990
2019-11-15T07:40:00	0.2283	5.693		0.562630833	0.686138162	0.010813988	0.111565926	0.034385702
2019-11-15T07:45:00	0.2278	5.705		0.560985927	0.683780246	0.010755811	0.110965721	0.034200713
2019-11-15T07:50:00	0.2272	5.719		0.559002665	0.680940271	0.010685879	0.110244242	0.033978346
2019-11-15T07:55:00	0.2265	5.734		0.556680467	0.677619065	0.010604290	0.109402501	0.033718913
2019-11-15T08:00:00	0.2261	5.751		0.555370714	0.675747815	0.010558412	0.108929191	0.033573035
2019-11-15T08:05:00	0.2261	5.767		0.555412513	0.675807511	0.010559875	0.108944280	0.033577685
2019-11-15T08:10:00	0.2264	5.782		0.556467987	0.677315398	0.010596840	0.109325646	0.033695226
2019-11-15T08:15:00	0.2260	5.797		0.555158155	0.675444263	0.010550976	0.108852476	0.033549390
2019-11-15T08:20:00	0.2272	5.812		0.558915597	0.680815667	0.010682814	0.110212623	0.033968601
2019-11-15T08:25:00	0.2253	5.826		0.552537010	0.671704112	0.010459499	0.107908727	0.033258518
2019-11-15T08:30:00	0.2236	5.842		0.546824325	0.663572136	0.010261527	0.105866284	0.032629017
2019-11-15T08:35:00	0.2222	5.857		0.542120093	0.656895765	0.010099940	0.104199214	0.032115210
2019-11-15T08:40:00	0.2210	5.872		0.538088802	0.651188852	0.009962498	0.102781252	0.031678180
2019-11-15T08:45:00	0.2199	5.889		0.534392825	0.645968285	0.009837323	0.101489845	0.031280156
2019-11-15T08:50:00	0.2203	5.905		0.535794595	0.647946974	0.009884704	0.101978667	0.031430816
2019-11-15T08:55:00	0.2198	5.923		0.534136919	0.645607232	0.009828685	0.101400734	0.031252691
2019-11-15T09:00:00	0.2192	5.944		0.532138241	0.642789157	0.009761356	0.100706113	0.031038602
2019-11-15T09:05:00	0.2189	5.970		0.530819177	0.640931101	0.009717049	0.100249003	0.030897716
2019-11-15T09:10:00	0.2221	6.001		0.541735298	0.656350455	0.010086779	0.104063443	0.032073364
2019-11-15T09:15:00	0.2246	6.039		0.550248785	0.668443623	0.010379971	0.107088251	0.033005639
2019-11-15T09:20:00	0.2281	6.079		0.562116045	0.685399992	0.010795764	0.111377909	0.034327753
2019-11-15T09:25:00	0.2293	6.119		0.566202918	0.691266308	0.010940876	0.112875002	0.034789172
2019-11-15T09:30:00	0.2284	6.169		0.563211196	0.686970625	0.010834553	0.111778085	0.034451091
2019-11-15T09:35:00	0.2279	6.214		0.561566564	0.684612314	0.010776329	0.111177400	0.034265954
2019-11-15T09:40:00	0.2292	6.267		0.565991017	0.690961806	0.010933328	0.112797129	0.034765171
2019-11-15T09:45:00	0.2285	6.304		0.563336308	0.687150120	0.010838989	0.111823848	0.034465196
2019-11-15T09:50:00	0.2289	6.328		0.564726446	0.689145383	0.010888338	0.112332971	0.034622113
2019-11-15T09:55:00	0.2271	6.349		0.558696141	0.680501626	0.010675091	0.110132947	0.033944044
2019-11-15T10:00:00	0.2278	6.369		0.561100458	0.683944349	0.010759857	0.111007458	0.034213577
2019-11-15T10:05:00	0.2273	6.384		0.559275745	0.681331121	0.010695494	0.110343442	0.034008921
2019-11-15T10:10:00	0.2282	6.398		0.562512610	0.685968619	0.010809802	0.111522733	0.034372389
2019-11-15T10:15:00	0.2297	6.409		0.567430794	0.693031500	0.010984667	0.113326781	0.034928415
2019-11-15T10:20:00	0.2283	6.419		0.562912681	0.686542406	0.010823973	0.111668933	0.034417450
2019-11-15T10:25:00	0.2289	6.431		0.564798290	0.689248544	0.010890891	0.112359315	0.034630232
2019-11-15T10:30:00	0.2282	6.447		0.562301020	0.685665208	0.010802311	0.111445449	0.034348570
2019-11-15T10:35:00	0.2292	6.471		0.565872030	0.690790837	0.010929091	0.112753414	0.034751697
2019-11-15T10:40:00	0.2270	6.505		0.558314249	0.679955236	0.010661659	0.109994366	0.033901332
2019-11-15T10:45:00	0.2279	6.534		0.561552007	0.684591449	0.010775814	0.111172090	0.034264318
2019-11-15T10:50:00	0.2284	6.558		0.563101166	0.686812778	0.010830653	0.111737846	0.034438689
2019-11-15T10:55:00	0.2252	6.585		0.552156395	0.671161476	0.010446250	0.107772032	0.033216387
2019-11-15T11:00:00	0.2246	6.616		0.550326985	0.668554979	0.010382684	0.107116238	0.033014265
2019-11-15T11:05:00	0.2220	6.651		0.541378323	0.655844678	0.010074578	0.103937568	0.032034568
2019-11-15T11:10:00	0.2210	6.682		0.538184972	0.651324840	0.009965765	0.102814965	0.031688571
2019-11-15T11:15:00	0.2220	6.708		0.541441543	0.655934243	0.010076739	0.103959855	0.032041437
2019-11-15T11:20:00	0.2215	6.726		0.539945942	0.653816269	0.010025696	0.103433262	0.031879136
2019-11-15T11:25:00	0.2229	6.739		0.544557135	0.660352218	0.010183489	0.105061175	0.032380875
2019-11-15T11:30:00	0.2238	6.753		0.547469021	0.664488518	0.010283773	0.106095792	0.032699753
2019-11-15T11:35:00	0.2236	6.773		0.546992465	0.663811100	0.010267327	0.105926117	0.032647458
2019-11-15T11:40:00	0.2233	6.785		0.545838153	0.662171034	0.010227545	0.105515700	0.032520963
2019-11-15T11:45:00	0.2250	6.794		0.551794973	0.670646314	0.010433676	0.107642311	0.033176406
2019-11-15T11:50:00	0.2230	6.805		0.544884527	0.660816928	0.010194739	0.105177245	0.032416648
2019-11-15T11:55:00	0.2239	6.809		0.547796139	0.664953618	0.010295070	0.106212340	0.032735675
2019-11-15T12:00:00	0.2238	6.810		0.547658344	0.664757689	0.010290311	0.106163238	0.032720541
2019-11-15T12:05:00	0.2231	6.810		0.545148737	0.661192020	0.010203823	0.105270961	0.032445533
2019-11-15T12:10:00	0.2230	6.818		0.545010838	0.660996241	0.010199081	0.105222042	0.032430455
2019-11-15T12:15:00	0.2238	6.828		0.547583652	0.664651492	0.010287731	0.106136626	0.032712339
2019-11-15T12:20:00	0.2230	6.843		0.544735022	0.660604705	0.010189601	0.105124233	0.032400310
2019-11-15T12:25:00	0.2236	6.860		0.546969290	0.663778161	0.010266527	0.105917869	0.032644916
2019-11-15T12:30:00	0.2241	6.876		0.548524954	0.665990174	0.010320262	0.106472241	0.032815779
2019-11-15T12:35:00	0.2255	6.890		0.553462915	0.673024655	0.010491767	0.108241625	0.033361120
2019-11-15T12:40:00	0.2259	6.904		0.554677675	0.674758237	0.010534177	0.108679166	0.033495974
2019-11-15T12:45:00	0.2258	6.917		0.554202107	0.674079410	0.010517564	0.108507766	0.033443147
2019-11-15T12:50:00	0.2272	6.927		0.559132019	0.681125404	0.010690433	0.110291226	0.033992827
2019-11-15T12:55:00	0.2267	6.935		0.557306275	0.678513659	0.010626246	0.109629019	0.033788728
2019-11-15T13:00:00	0.2257	6.944		0.554127555	0.673973011	0.010514960	0.108480909	0.033434870
2019-11-15T13:05:00	0.2246	6.956		0.550269102	0.668472553	0.010380676	0.107095522	0.033007880
2019-11-15T13:10:00	0.2250	6.970		0.551484978	0.670204539	0.010422897	0.107531112	0.033142133
2019-11-15T13:15:00	0.2233	6.978		0.545929656	0.662301002	0.010230696	0.105548204	0.032530982
2019-11-15T13:20:00	0.2233	6.986		0.545791787	0.662105179	0.010225949	0.105499231	0.032515888
2019-11-15T13:25:00	0.2236	6.993		0.547009232	0.663834932	0.010267905	0.105932084	0.032649297
2019-11-15T13:30:00	0.2242	6.998		0.548903474	0.666528696	0.010333358	0.106607351	0.032857421
2019-11-15T13:35:00	0.2248	7.002		0.551135061	0.669705966	0.010410738	0.107405661	0.033103468
2019-11-15T13:40:00	0.2248	7.008		0.550997399	0.669509849	0.010405956	0.107356328	0.033088263
2019-11-15T13:45:00	0.2250	7.011		0.551536442	0.670277875	0.010424686	0.107549568	0.033147821
2019-11-15T13:50:00	0.2250	7.013		0.551737115	0.670563854	0.010431664	0.107621552	0.033170008
2019-11-15T13:55:00	0.2262	7.011		0.555656901	0.676156571	0.010568428	0.109032523	0.033604882
2019-11-15T14:00:00	0.2280	7.012		0.561934270	0.685139390	0.010789333	0.111311558	0.034307303
2019-11-15T14:05:00	0.2270	7.014		0.558422136	0.680109583	0.010665453	0.110033507	0.033913396
2019-11-15T14:10:00	0.2282	7.015		0.562334408	0.685713082	0.010803493	0.111457642	0.034352328
2019-11-15T14:15:00	0.2281	7.017		0.562197188	0.685516330	0.010798636	0.111407534	0.034336884
2019-11-15T14:20:00	0.2287	7.021		0.564083183	0.688221910	0.010865488	0.112097237	0.034549457
2019-11-15T14:25:00	0.2294	7.023		0.566641941	0.691897304	0.010956523	0.113036429	0.034838925
2019-11-15T14:30:00	0.2296	7.024		0.567178570	0.692668801	0.010975664	0.113233904	0.034899789
2019-11-15T14:35:00	0.2297	7.024		0.567378344	0.692956073	0.010982794	0.113307464	0.034922461
2019-11-15T14:40:00	0.2318	7.024		0.574643106	0.703425065	0.011243684	0.115999011	0.035752022
2019-11-15T14:45:00	0.2324	7.024		0.576522403	0.706140366	0.011311681	0.116700525	0.035968235
2019-11-15T14:50:00	0.2329	7.025		0.578400694	0.708857138	0.011379851	0.117403821	0.036184998
2019-11-15T14:55:00	0.2326	7.024		0.577256730	0.707202154	0.011338307	0.116975225	0.036052900
2019-11-15T15:00:00	0.2338	7.024		0.581148006	0.712836140	0.011479937	0.118436398	0.036503248
2019-11-15T15:05:00	0.2326	7.025		0.577319303	0.707292650	0.011340578	0.116998648	0.036060120
2019-11-15T15:10:00	0.2303	7.026		0.569449686	0.695936563	0.011056861	0.114071601	0.035157975
2019-11-15T15:15:00	0.2302	7.025		0.569312746	0.695739407	0.011051957	0.114021002	0.035142380
2019-11-15T15:20:00	0.2323	7.024		0.576237578	0.705728649	0.011301362	0.116594065	0.035935423
2019-11-15T15:25:00	0.2301	7.023		0.568702204	0.694860589	0.011030104	0.113795547	0.035072893
2019-11-15T15:30:00	0.2270	7.020		0.558450398	0.680150017	0.010666446	0.110043762	0.033916556
2019-11-15T15:35:00	0.2285	7.010		0.563374307	0.687204638	0.010840336	0.111837749	0.034469481
2019-11-15T15:40:00	0.2318	7.003		0.574682733	0.703482290	0.011245115	0.116013781	0.035756574
2019-11-15T15:45:00	0.2346	7.000		0.583944159	0.716892316	0.011582264	0.119492079	0.036828619
2019-11-15T15:50:00	0.2328	6.996		0.577768763	0.707942782	0.011356892	0.117166964	0.036111996
2019-11-15T15:55:00	0.2327	6.992		0.577632147	0.707745153	0.011351932	0.117115790	0.036096224
2019-11-15T16:00:00	0.2306	6.988		0.570436285	0.697357444	0.011092229	0.114436487	0.035270437
2019-11-15T16:05:00	0.2327	6.985		0.577540065	0.707611956	0.011348589	0.117081305	0.036085595
2019-11-15T16:10:00	0.2318	6.982		0.574561034	0.703306549	0.011240719	0.115968423	0.035742594
2019-11-15T16:15:00	0.2324	6.982		0.576621588	0.706283755	0.011315275	0.116737609	0.035979665
2019-11-15T16:20:00	0.2341	6.980		0.582371720	0.714610494	0.011524662	0.118897819	0.036645462
2019-11-15T16:25:00	0.2352	6.977		0.586103066	0.720028532	0.011661588	0.120310449	0.037080849
2019-11-15T16:30:00	0.2343	6.974		0.583131293	0.715712482	0.011552469	0.119184689	0.036733879
2019-11-15T16:35:00	0.2373	6.966		0.592885280	0.729906206	0.011912589	0.122899980	0.037878968
2019-11-15T16:40:00	0.2393	6.958		0.599610220	0.739738353	0.012164179	0.125495590	0.038678960
2019-11-15T16:45:00	0.2392	6.953		0.599320754	0.739314364	0.012153294	0.125383292	0.038644348
2019-11-15T16:50:00	0.2380	6.940		0.595357900	0.733516891	0.012004779	0.123851093	0.038172110
2019-11-15T16:55:00	0.2381	6.925		0.595736310	0.734069921	0.012018920	0.123996984	0.038217075
2019-11-15T17:00:00	0.2367	6.908		0.591100454	0.727303054	0.011846269	0.122215771	0.037668088
2019-11-15T17:05:00	0.2349	6.890		0.585118397	0.718597635	0.011625374	0.119936839	0.036965699
2019-11-15T17:10:00	0.2347	6.872		0.584157444	0.717201981	0.011590088	0.119572801	0.036853499
2019-11-15T17:15:00	0.2343	6.857		0.582860942	0.715320201	0.011542568	0.119082544	0.036702397
2019-11-15T17:20:00	0.2346	6.842		0.583911167	0.716844419	0.011581054	0.119479595	0.036824771
2019-11-15T17:25:00	0.2370	6.825		0.591991218	0.728601894	0.011879344	0.122556999	0.037773257
2019-11-15T17:30:00	0.2366	6.809		0.590697598	0.726715860	0.011831326	0.122061608	0.037620573
2019-11-15T17:35:00	0.2358	6.793		0.588064526	0.722881281	0.011733897	0.121056453	0.037310775
2019-11-15T17:40:00	0.2343	6.777		0.583083293	0.715642829	0.011550710	0.119166550	0.036728288
2019-11-15T17:45:00	0.2335	6.761		0.580444515	0.711816660	0.011454266	0.118171551	0.036421620
2019-11-15T17:50:00	0.2327	6.746		0.577467950	0.707507646	0.011345972	0.117054300	0.036077272
2019-11-15T17:55:00	0.2357	6.729		0.587572500	0.722165377	0.011715737	0.120869099	0.037253030
2019-11-15T18:00:00	0.2363	6.715		0.589625441	0.725153766	0.011791604	0.121651806	0.037494268
2019-11-15T18:05:00	0.2365	6.700		0.590339074	0.726193396	0.011818035	0.121924494	0.037578313
2019-11-15T18:10:00	0.2372	6.685		0.592724785	0.729672017	0.011906617	0.122838375	0.037859980
2019-11-15T18:15:00	0.2357	6.671		0.587750144	0.722423828	0.011722292	0.120936725	0.037273873
2019-11-15T18:20:00	0.2356	6.657		0.587459705	0.722001287	0.011711576	0.120826169	0.037239799
2019-11-15T18:25:00	0.2352	6.644		0.585829415	0.719630787	0.011651518	0.120206558	0.037048829
2019-11-15T18:30:00	0.2359	6.630		0.588218180	0.723104891	0.011739571	0.121114993	0.037328817
2019-11-15T18:35:00	0.2352	6.618		0.585918282	0.719759946	0.011654787	0.120240291	0.037059226
2019-11-15T18:40:00	0.2362	6.607		0.589311198	0.724696107	0.011779975	0.121531830	0.037457290
2019-11-15T18:45:00	0.2349	6.598		0.585001993	0.718428533	0.011621097	0.119892711	0.036952098
2019-11-15T18:50:00	0.2356	6.590		0.587391320	0.721901808	0.011709053	0.120800146	0.037231778
2019-11-15T18:55:00	0.2364	6.583		0.590113656	0.725864958	0.011809683	0.121838325	0.037551755
2019-11-15T19:00:00	0.2372	6.579		0.592833891	0.729831218	0.011910676	0.122880253	0.037872887
2019-11-15T19:05:00	0.2369	6.575		0.591540579	0.727944726	0.011862605	0.122384310	0.037720033
2019-11-15T19:10:00	0.2366	6.570		0.590581378	0.726546485	0.011827017	0.122017152	0.037606871
2019-11-15T19:15:00	0.2360	6.567		0.588617794	0.723686533	0.011754335	0.121267305	0.037375761
2019-11-15T19:20:00	0.2359	6.564		0.588327425	0.723263885	0.011743606	0.121156622	0.037341647
2019-11-15T19:25:00	0.2348	6.561		0.584687337	0.717971483	0.011609539	0.119773470	0.036915347
2019-11-15T19:30:00	0.2344	6.558		0.583391030	0.716089417	0.011561985	0.119282866	0.036764138
2019-11-15T19:35:00	0.2350	6.558		0.585446410	0.719074207	0.011637431	0.120061230	0.037004037
2019-11-15T19:40:00	0.2348	6.553		0.584485547	0.717678420	0.011602130	0.119697033	0.036891788
2019-11-15T19:45:00	0.2348	6.547		0.584529998	0.717742974	0.011603762	0.119713868	0.036896977
2019-11-15T19:50:00	0.2341	6.540		0.582227686	0.714401584	0.011519394	0.118843461	0.036628709
2019-11-15T19:55:00	0.2336	6.532		0.580594968	0.712034658	0.011459754	0.118228167	0.036439069
2019-11-15T20:00:00	0.2342	6.524		0.582651984	0.715017044	0.011534918	0.119003626	0.036678073
2019-11-15T20:05:00	0.2359	6.516		0.588392266	0.723358258	0.011746002	0.121181333	0.037349264
2019-11-15T20:10:00	0.2371	6.507		0.592451647	0.729273512	0.011896458	0.122733568	0.037827678
2019-11-15T20:15:00	0.2372	6.499		0.592830369	0.729826079	0.011910545	0.122878901	0.037872471
2019-11-15T20:20:00	0.2374	6.488		0.593209050	0.730378706	0.011924639	0.123024307	0.037917286
2019-11-15T20:25:00	0.2374	6.478		0.593253390	0.730443422	0.011926290	0.123041339	0.037922536
2019-11-15T20:30:00	0.2361	6.469		0.588949007	0.724168719	0.011766579	0.121393622	0.037414693
2019-11-15T20:35:00	0.2370	6.459		0.592004590	0.728621396	0.011879841	0.122562125	0.037774837
2019-11-15T20:40:00	0.2376	6.452		0.594054952	0.731613603	0.011956154	0.123349435	0.038017494
2019-11-15T20:45:00	0.2374	6.447		0.593430748	0.730702297	0.011932895	0.123109476	0.037943536
2019-11-15T20:50:00	0.2372	6.443		0.592806435	0.729791155	0.011909655	0.122869714	0.037869639
2019-11-15T20:55:00	0.2350	6.439		0.585152251	0.718646818	0.011626618	0.119949674	0.036969654
2019-11-15T21:00:00	0.2347	6.433		0.584191308	0.717251149	0.011591330	0.119585620	0.036857449
2019-11-15T21:05:00	0.2335	6.427		0.580211393	0.711478916	0.011445766	0.118083853	0.036394590
2019-11-15T21:10:00	0.2341	6.419		0.582268633	0.714460973	0.011520891	0.118858913	0.036633471
2019-11-15T21:15:00	0.2350	6.411		0.585330017	0.718905088	0.011633152	0.120017083	0.036990431
2019-11-15T21:20:00	0.2347	6.401		0.584369122	0.717509349	0.011597856	0.119652942	0.036878199
2019-11-15T21:25:00	0.2341	6.394		0.582402068	0.714654514	0.011525773	0.118909273	0.036648993
2019-11-15T21:30:00	0.2339	6.385		0.581775796	0.713746264	0.011502871	0.118673001	0.036576172
2019-11-15T21:35:00	0.2326	6.378		0.577121502	0.707006589	0.011333401	0.116924614	0.036037302
2019-11-15T21:40:00	0.2317	6.368		0.574142115	0.702701702	0.011225592	0.115812362	0.035694495
2019-11-15T21:45:00	0.2310	6.358		0.571832974	0.699370306	0.011142397	0.114954056	0.035429956
2019-11-15T21:50:00	0.2309	6.348		0.571541215	0.698949698	0.011131908	0.114845840	0.035396603
2019-11-15T21:55:00	0.2299	6.337		0.568220384	0.694167270	0.011012873	0.113617785	0.035018105
2019-11-15T22:00:00	0.2310	6.328		0.571966807	0.699563265	0.011147210	0.115003712	0.035445261
2019-11-15T22:05:00	0.2327	6.321		0.577680031	0.707814422	0.011353670	0.117133725	0.036101752
2019-11-15T22:10:00	0.2344	6.316		0.583383967	0.716079166	0.011561726	0.119280196	0.036763315
2019-11-15T22:15:00	0.2372	6.311		0.592758566	0.729721308	0.011907874	0.122851340	0.037863976
2019-11-15T22:20:00	0.2365	6.307		0.590417254	0.726307317	0.011820933	0.121954386	0.037587526
2019-11-15T22:25:00	0.2377	6.301		0.594429981	0.732161283	0.011970139	0.123493721	0.038061964
2019-11-15T22:30:00	0.2376	6.292		0.594095761	0.731673194	0.011957675	0.123365131	0.038022332
2019-11-15T22:35:00	0.2361	6.286		0.589078663	0.724357499	0.011771373	0.121443088	0.037429939
2019-11-15T22:40:00	0.2343	6.289		0.583048698	0.715592629	0.011549443	0.119153478	0.036724259
2019-11-15T22:45:00	0.2342	6.300		0.582713396	0.715106138	0.011537166	0.119026817	0.036685221
2019-11-15T22:50:00	0.2332	6.311		0.579358622	0.710243818	0.011414698	0.117763334	0.036295803
2019-11-15T22:55:00	0.2323	6.325		0.576336581	0.705871751	0.011304948	0.116631064	0.035946827
2019-11-15T23:00:00	0.2318	6.337		0.574656543	0.703444470	0.011244169	0.116004019	0.035753565
2019-11-15T23:05:00	0.2333	6.349		0.579694243	0.710729839	0.011426920	0.117889426	0.036334666
2019-11-15T23:10:00	0.2331	6.359		0.579022968	0.709757845	0.011402481	0.117637298	0.036256958
2019-11-15T23:15:00	0.2313	6.363		0.572975700	0.701018364	0.011183528	0.115378399	0.035560743
2019-11-15T23:20:00	0.2321	6.367		0.575664662	0.704900697	0.011280620	0.116380075	0.035869469
2019-11-15T23:25:00	0.2326	6.367		0.577344217	0.707328683	0.011341482	0.117007975	0.036062994
2019-11-15T23:30:00	0.2341	6.368		0.582378063	0.714619695	0.011524895	0.118900213	0.036646200
2019-11-15T23:35:00	0.2337	6.367		0.581036410	0.712674391	0.011475863	0.118394364	0.036490293
2019-11-15T23:40:00	0.2337	6.366		0.581036410	0.712674391	0.011475863	0.118394364	0.036490293
2019-11-15T23:45:00	0.2345	6.364		0.583719204	0.716565751	0.011574014	0.119406971	0.036802388
2019-11-15T23:50:00	0.2350	6.361		0.585394912	0.718999379	0.011635538	0.120041696	0.036998017
2019-11-15T23:55:00	0.2349	6.359		0.585059835	0.718512559	0.011623222	0.119914637	0.036958856
2019-11-16T00:00:00	0.2340	6.356		0.582042698	0.714133298	0.011512628	0.118773665	0.036607197
2019-11-16T00:05:00	0.2318	6.354		0.574656543	0.703444470	0.011244169	0.116004019	0.035753565
2019-11-16T00:10:00	0.2307	6.351		0.570957623	0.698108589	0.011110942	0.114629538	0.035329937
2019-11-16T00:15:00	0.2304	6.347		0.569948147	0.696654337	0.011074723	0.114255879	0.035214771
2019-11-16T00:20:00	0.2306	6.345		0.570621163	0.697623791	0.011098863	0.114504928	0.035291531
2019-11-16T00:25:00	0.2300	6.344		0.568601727	0.694715991	0.011026509	0.113758465	0.035061464
2019-11-16T00:30:00	0.2298	6.342		0.567928322	0.693747100	0.011002436	0.113510101	0.034984916
2019-11-16T00:35:00	0.2296	6.340		0.567254788	0.692778398	0.010978384	0.113261966	0.034908438
2019-11-16T00:40:00	0.2289	6.337		0.564896395	0.689389420	0.010894378	0.112395294	0.034641321
2019-11-16T00:45:00	0.2279	6.333		0.561524496	0.684552020	0.010774842	0.111162056	0.034261225
2019-11-16T00:50:00	0.2292	6.331		0.565907330	0.690841557	0.010930348	0.112766382	0.034755694
2019-11-16T00:55:00	0.2304	6.329		0.569948147	0.696654337	0.011074723	0.114255879	0.035214771
2019-11-16T01:00:00	0.2307	6.327		0.570957623	0.698108589	0.011110942	0.114629538	0.035329937
2019-11-16T01:05:00	0.2302	6.326		0.569275002	0.695685070	0.011050605	0.114007058	0.035138082
2019-11-16T01:10:00	0.2286	6.322		0.563885167	0.687937706	0.010858459	0.112024722	0.034527107
2019-11-16T01:15:00	0.2275	6.315		0.560174823	0.682618376	0.010727183	0.110670366	0.034109681
2019-11-16T01:20:00	0.2267	6.308		0.557473908	0.678753345	0.010632131	0.109689736	0.033807442
2019-11-16T01:25:00	0.2261	6.303		0.555446847	0.675856547	0.010561076	0.108956675	0.033581505
2019-11-16T01:30:00	0.2262	6.297		0.555784772	0.676339229	0.010572905	0.109078708	0.033619117
2019-11-16T01:35:00	0.2258	6.295		0.554432873	0.674408783	0.010525624	0.108590920	0.033468776
2019-11-16T01:40:00	0.2258	6.292		0.554432873	0.674408783	0.010525624	0.108590920	0.033468776
2019-11-16T01:45:00	0.2249	6.292		0.551389177	0.670068029	0.010419568	0.107496758	0.033131545
2019-11-16T01:50:00	0.2244	6.292		0.549697082	0.667658144	0.010360843	0.106890904	0.032944815
2019-11-16T01:55:00	0.2245	6.292		0.550035567	0.668140027	0.010372577	0.107011960	0.032982125
2019-11-16T02:00:00	0.2237	6.290		0.547326763	0.664286281	0.010278862	0.106045128	0.032684138
2019-11-16T02:05:00	0.2230	6.288		0.544954824	0.660916721	0.010197156	0.105202175	0.032424332
2019-11-16T02:10:00	0.2219	6.286		0.541224208	0.655626354	0.010069313	0.103883249	0.032017826
2019-11-16T02:15:00	0.2192	6.282		0.532050149	0.642665026	0.009758394	0.100675553	0.031029183
2019-11-16T02:20:00	0.2173	6.279		0.525579682	0.633564638	0.009542056	0.098443630	0.030341283
2019-11-16T02:25:00	0.2128	6.277		0.510206151	0.612078794	0.009037808	0.093241397	0.028737904
2019-11-16T02:30:00	0.2104	6.276		0.501978643	0.600658607	0.008773573	0.090515338	0.027897706
2019-11-16T02:35:00	0.2101	6.276		0.500948811	0.599232988	0.008740775	0.090176960	0.027793415
2019-11-16T02:40:00	0.2094	6.276		0.498544658	0.595908189	0.008664444	0.089389473	0.027550704
2019-11-16T02:45:00	0.2105	6.277		0.502321852	0.601133908	0.008784518	0.090628248	0.027932506
2019-11-16T02:50:00	0.2103	6.278		0.501635400	0.600183354	0.008762635	0.090402487	0.027862924
2019-11-16T02:55:00	0.2129	6.277		0.510548534	0.612555223	0.009048889	0.093355716	0.028773138
2019-11-16T03:00:00	0.2151	6.276		0.518072334	0.623048552	0.009294103	0.095885544	0.029552856
2019-11-16T03:05:00	0.2167	6.275		0.523533848	0.630694358	0.009474161	0.097743173	0.030125395
2019-11-16T03:10:00	0.2196	6.279		0.533410807	0.644583060	0.009804198	0.101148103	0.031174828
2019-11-16T03:15:00	0.2205	6.288		0.536470328	0.648901387	0.009907585	0.102214730	0.031503572
2019-11-16T03:20:00	0.2196	6.297		0.533410807	0.644583060	0.009804198	0.101148103	0.031174828
2019-11-16T03:25:00	0.2196	6.307		0.533410807	0.644583060	0.009804198	0.101148103	0.031174828
2019-11-16T03:30:00	0.2189	6.316		0.531029304	0.641226994	0.009724100	0.100321750	0.030920138
2019-11-16T03:35:00	0.2187	6.325		0.530348572	0.640268542	0.009701266	0.100086172	0.030847530
2019-11-16T03:40:00	0.2206	6.334		0.536810108	0.649381436	0.009919101	0.102333534	0.031540189
2019-11-16T03:45:00	0.2194	6.343		0.532730545	0.643623949	0.009781285	0.100911712	0.031101970
2019-11-16T03:50:00	0.2201	6.352		0.535110876	0.646981660	0.009861579	0.101740094	0.031357285
2019-11-16T03:55:00	0.2224	6.363		0.542920440	0.658030361	0.010127339	0.104481895	0.032202335
2019-11-16T04:00:00	0.2226	6.374		0.543598701	0.658992293	0.010150589	0.104721757	0.032276263
2019-11-16T04:05:00	0.2219	6.382		0.541053290	0.655384248	0.010063476	0.103823024	0.031999264
2019-11-16T04:10:00	0.2218	6.383		0.540882363	0.655142155	0.010057640	0.103762813	0.031980707
2019-11-16T04:15:00	0.2218	6.385		0.540711428	0.654900073	0.010051805	0.103702617	0.031962154
2019-11-16T04:20:00	0.2195	6.390		0.533065685	0.644096420	0.009792570	0.101028138	0.031137853
2019-11-16T04:25:00	0.2189	6.392		0.530852869	0.640978543	0.009718179	0.100260665	0.030901311
2019-11-16T04:30:00	0.2169	6.392		0.524208396	0.631640366	0.009496520	0.097973849	0.030196492
2019-11-16T04:35:00	0.2155	6.395		0.519258983	0.624707736	0.009333077	0.096287640	0.029676786
2019-11-16T04:40:00	0.2160	6.395		0.521135453	0.627333763	0.009394876	0.096925203	0.029873289
2019-11-16T04:45:00	0.2167	6.395		0.523352007	0.630439402	0.009468138	0.097681036	0.030106244
2019-11-16T04:50:00	0.2174	6.396		0.525907989	0.634025567	0.009552974	0.098556271	0.030376000
2019-11-16T04:55:00	0.2175	6.403		0.526077150	0.634263094	0.009558602	0.098614334	0.030393895
2019-11-16T05:00:00	0.2160	6.413		0.521130427	0.627326727	0.009394710	0.096923493	0.029872762
2019-11-16T05:05:00	0.2158	6.421		0.520275784	0.626130345	0.009366539	0.096632854	0.029783184
2019-11-16T05:10:00	0.2148	6.429		0.517029723	0.621591704	0.009259926	0.095532951	0.029444183
2019-11-16T05:15:00	0.2145	6.437		0.515832236	0.619919534	0.009220751	0.095128786	0.029319616
2019-11-16T05:20:00	0.2134	6.446		0.512239785	0.614909997	0.009103724	0.093921439	0.028947500
2019-11-16T05:25:00	0.2129	6.460		0.510355921	0.612287189	0.009042654	0.093291396	0.028753314
2019-11-16T05:30:00	0.2136	6.473		0.512921593	0.615859950	0.009125877	0.094149987	0.029017940
2019-11-16T05:35:00	0.2146	6.487		0.516169025	0.620389709	0.009231760	0.095242369	0.029354623
2019-11-16T05:40:00	0.2151	6.496		0.518047184	0.623013399	0.009293278	0.095877031	0.029550232
2019-11-16T05:45:00	0.2146	6.500		0.516166509	0.620386196	0.009231678	0.095241520	0.029354362
2019-11-16T05:50:00	0.2150	6.509		0.517703033	0.622532425	0.009281990	0.095760579	0.029514340
2019-11-16T05:55:00	0.2158	6.513		0.520263217	0.626112758	0.009366125	0.096628584	0.029781868
2019-11-16T06:00:00	0.2151	6.515		0.518042154	0.623006369	0.009293113	0.095875329	0.029549707
2019-11-16T06:05:00	0.2153	6.512		0.518553287	0.623720888	0.009309889	0.096048413	0.029603054
2019-11-16T06:10:00	0.2158	6.505		0.520430142	0.626346381	0.009371624	0.096685314	0.029799353
2019-11-16T06:15:00	0.2151	6.501		0.517867567	0.622762361	0.009287386	0.095816244	0.029531497
2019-11-16T06:20:00	0.2150	6.499		0.517695487	0.622521880	0.009281742	0.095758026	0.029513554
2019-11-16T06:25:00	0.2144	6.499		0.515472762	0.619417790	0.009209007	0.095007626	0.029282273
2019-11-16T06:30:00	0.2140	6.506		0.514274731	0.617746371	0.009169922	0.094604393	0.029157993
2019-11-16T06:35:00	0.2137	6.515		0.513076282	0.616075529	0.009130906	0.094201879	0.029033934
2019-11-16T06:40:00	0.2130	6.524		0.510850559	0.612975570	0.009058669	0.093456618	0.028804237
2019-11-16T06:45:00	0.2133	6.532		0.511705033	0.614165197	0.009086368	0.093742380	0.028892312
2019-11-16T06:50:00	0.2137	6.540		0.513243557	0.616308669	0.009136347	0.094258008	0.029051234
2019-11-16T06:55:00	0.2137	6.548		0.513071245	0.616068508	0.009130743	0.094200188	0.029033413
2019-11-16T07:00:00	0.2131	6.555		0.511187838	0.613445071	0.009069597	0.093569362	0.028838986
2019-11-16T07:05:00	0.2124	6.565		0.508618344	0.609870589	0.008986509	0.092712156	0.028574787
2019-11-16T07:10:00	0.2125	6.575		0.509130884	0.610583170	0.009003052	0.092882829	0.028627390
2019-11-16T07:15:00	0.2117	6.586		0.506217062	0.606534927	0.008909205	0.091914630	0.028328982
2019-11-16T07:20:00	0.2112	6.594		0.504672850	0.604392292	0.008859669	0.091403577	0.028171470
2019-11-16T07:25:00	0.2117	6.597		0.506214538	0.606531423	0.008909124	0.091913794	0.028328724
2019-11-16T07:30:00	0.2110	6.600		0.503984345	0.603437592	0.008837628	0.091176176	0.028101383
2019-11-16T07:35:00	0.2114	6.601		0.505183457	0.605100560	0.008876034	0.091572404	0.028223504
2019-11-16T07:40:00	0.2122	6.606		0.508095638	0.609144093	0.008969653	0.092538260	0.028521190
2019-11-16T07:45:00	0.2137	6.625		0.513058652	0.616050957	0.009130333	0.094195963	0.029032111
2019-11-16T07:50:00	0.2135	6.648		0.512544180	0.615334059	0.009113611	0.094023440	0.028978937
2019-11-16T07:55:00	0.2139	6.667		0.513740297	0.617001134	0.009152513	0.094424790	0.029102637
2019-11-16T08:00:00	0.2133	6.680		0.511857258	0.614377191	0.009091307	0.093793334	0.028908016
2019-11-16T08:05:00	0.2116	6.681		0.505861624	0.606041578	0.008897791	0.091796873	0.028292688
2019-11-16T08:10:00	0.2132	6.678		0.511512485	0.613897074	0.009080122	0.093677948	0.028872453
2019-11-16T08:15:00	0.2137	6.683		0.513051096	0.616040426	0.009130087	0.094193428	0.029031329
2019-11-16T08:20:00	0.2137	6.702		0.513220890	0.616277075	0.009135610	0.094250401	0.029048889
2019-11-16T08:25:00	0.2138	6.726		0.513390677	0.616513735	0.009141133	0.094307389	0.029066453
2019-11-16T08:30:00	0.2137	6.750		0.513218372	0.616273565	0.009135528	0.094249556	0.029048629
2019-11-16T08:35:00	0.2142	6.774		0.514756217	0.618417971	0.009185620	0.094766349	0.029207909
2019-11-16T08:40:00	0.2137	6.800		0.513215853	0.616270054	0.009135446	0.094248711	0.029048368
2019-11-16T08:45:00	0.2140	6.823		0.514069738	0.617460492	0.009163242	0.094535483	0.029136754
2019-11-16T08:50:00	0.2149	6.841		0.517316083	0.621991750	0.009269307	0.095629729	0.029474011
2019-11-16T08:55:00	0.2144	6.856		0.515435008	0.619365101	0.009207774	0.094994906	0.029278353
2019-11-16T09:00:00	0.2142	6.863		0.514920892	0.618647712	0.009190992	0.094821772	0.029224991
2019-11-16T09:05:00	0.2147	6.865		0.516457974	0.620793170	0.009241211	0.095339873	0.029384675
2019-11-16T09:10:00	0.2152	6.873		0.518335975	0.623417079	0.009302755	0.095974806	0.029580367
2019-11-16T09:15:00	0.2146	6.876		0.516113664	0.620312416	0.009229950	0.095223694	0.029348867
2019-11-16T09:20:00	0.2147	6.876		0.516625084	0.621026537	0.009246679	0.095396285	0.029402062
2019-11-16T09:25:00	0.2139	6.881		0.514059666	0.617446447	0.009162914	0.094532098	0.029135711
2019-11-16T09:30:00	0.2145	6.887		0.515938979	0.620068543	0.009224239	0.095164778	0.029330709
2019-11-16T09:35:00	0.2166	6.890		0.523279183	0.630337303	0.009465727	0.097656156	0.030098576
2019-11-16T09:40:00	0.2170	6.898		0.524471567	0.632009544	0.009505251	0.098063920	0.030224252
2019-11-16T09:45:00	0.2180	6.919		0.528048750	0.637033240	0.009624321	0.099292341	0.030602864
2019-11-16T09:50:00	0.2178	6.931		0.527195824	0.635834470	0.009595863	0.098998745	0.030512375
2019-11-16T09:55:00	0.2175	6.938		0.526342686	0.634635995	0.009567440	0.098705513	0.030421998
2019-11-16T10:00:00	0.2162	6.942		0.521737615	0.628177064	0.009414751	0.097130246	0.029936485
2019-11-16T10:05:00	0.2154	6.953		0.519027906	0.624384553	0.009325481	0.096209273	0.029652632
2019-11-16T10:10:00	0.2152	6.968		0.518366191	0.623459320	0.009303747	0.095985039	0.029583521
2019-11-16T10:15:00	0.2147	6.973		0.516679238	0.621102167	0.009248452	0.095414570	0.029407697
2019-11-16T10:20:00	0.2125	6.974		0.509173829	0.610642885	0.009004439	0.092897137	0.028631800
2019-11-16T10:25:00	0.2112	6.969		0.504739855	0.604485224	0.008861816	0.091425722	0.028178296
2019-11-16T10:30:00	0.2097	6.964		0.499613262	0.597385432	0.008698331	0.089739073	0.027658454
2019-11-16T10:35:00	0.2094	6.960		0.498604234	0.595990524	0.008666332	0.089408946	0.027556705
2019-11-16T10:40:00	0.2100	6.959		0.500686511	0.598870017	0.008732431	0.090090876	0.027766883
2019-11-16T10:45:00	0.2103	6.959		0.501394655	0.599850075	0.008754967	0.090323376	0.027838542
2019-11-16T10:50:00	0.2109	6.960		0.503475230	0.602731884	0.008821346	0.091008205	0.028049613
2019-11-16T10:55:00	0.2099	6.962		0.500064260	0.598009168	0.008712652	0.089886823	0.027703992
2019-11-16T11:00:00	0.2114	6.963		0.505233131	0.605169475	0.008877627	0.091588836	0.028228569
2019-11-16T11:05:00	0.2112	6.963		0.504568746	0.604247914	0.008856335	0.091369175	0.028160867
2019-11-16T11:10:00	0.2109	6.963		0.503561182	0.602851012	0.008824094	0.091036552	0.028058350
2019-11-16T11:15:00	0.2096	6.964		0.499119913	0.596703310	0.008682678	0.089577587	0.027608682
2019-11-16T11:20:00	0.2099	6.965		0.500171807	0.598157932	0.008716069	0.089922074	0.027714857
2019-11-16T11:25:00	0.2115	6.966		0.505683387	0.605794221	0.008892070	0.091737851	0.028274497
2019-11-16T11:30:00	0.2120	6.968		0.507418690	0.608203548	0.008947847	0.092313291	0.028451853
2019-11-16T11:35:00	0.2127	6.969		0.509838057	0.611566695	0.009025902	0.093118572	0.028700048
2019-11-16T11:40:00	0.2124	6.970		0.508832045	0.610167670	0.008993405	0.092783298	0.028596714
2019-11-16T11:45:00	0.2117	6.971		0.506454905	0.606865112	0.008916847	0.091993471	0.028353281
2019-11-16T11:50:00	0.2112	6.972		0.504762074	0.604516040	0.008862528	0.091433066	0.028180559
2019-11-16T11:55:00	0.2113	6.973		0.505126481	0.605021517	0.008874207	0.091553557	0.028217696
2019-11-16T12:00:00	0.2114	6.974		0.505490849	0.605527048	0.008885892	0.091674115	0.028254852
2019-11-16T12:05:00	0.2119	6.979		0.506883534	0.607460268	0.008930627	0.092135637	0.028397098
2019-11-16T12:10:00	0.2135	7.003		0.512384312	0.615111333	0.009108417	0.093969862	0.028962424
2019-11-16T12:15:00	0.2144	7.041		0.515483991	0.619433462	0.009209374	0.095011410	0.029283439
2019-11-16T12:20:00	0.2146	7.073		0.516189079	0.620417708	0.009232416	0.095249135	0.029356708
2019-11-16T12:25:00	0.2146	7.098		0.516210488	0.620447599	0.009233116	0.095256357	0.029358934
2019-11-16T12:30:00	0.2159	7.111		0.520672415	0.626685499	0.009379608	0.096767682	0.029824739
2019-11-16T12:35:00	0.2166	7.123		0.523082453	0.630061514	0.009459214	0.097588962	0.030077866
2019-11-16T12:40:00	0.2169	7.138		0.524127016	0.631526215	0.009493821	0.097946005	0.030187910
2019-11-16T12:45:00	0.2164	7.150		0.522442889	0.629165144	0.009438055	0.097370675	0.030010588
2019-11-16T12:50:00	0.2164	7.161		0.522464258	0.629195089	0.009438762	0.097377965	0.030012834
2019-11-16T12:55:00	0.2167	7.168		0.523509009	0.630659529	0.009473338	0.097734684	0.030122779
2019-11-16T13:00:00	0.2163	7.175		0.522165805	0.628776905	0.009428896	0.097276181	0.029981464
2019-11-16T13:05:00	0.2159	7.177		0.520822077	0.626895010	0.009384541	0.096818581	0.029840427
2019-11-16T13:10:00	0.2171	7.174		0.524937106	0.632662746	0.009520704	0.098223353	0.030273391
2019-11-16T13:15:00	0.2169	7.168		0.524276528	0.631735935	0.009498780	0.097997163	0.030203677
2019-11-16T13:20:00	0.2169	7.166		0.524297886	0.631765896	0.009499489	0.098004472	0.030205930
2019-11-16T13:25:00	0.2179	7.152		0.527386839	0.636102887	0.009602232	0.099064459	0.030532628
2019-11-16T13:30:00	0.2176	7.141		0.526385956	0.634696766	0.009568880	0.098720374	0.030426578
2019-11-16T13:35:00	0.2173	7.134		0.525384783	0.633291051	0.009535577	0.098376792	0.030320683
2019-11-16T13:40:00	0.2166	7.126		0.523019090	0.629972693	0.009457116	0.097567325	0.030071197
2019-11-16T13:45:00	0.2160	7.123		0.520993111	0.627134463	0.009390181	0.096876766	0.029858360
2019-11-16T13:50:00	0.2157	7.126		0.519990366	0.625730932	0.009357140	0.096535889	0.029753299
2019-11-16T13:55:00	0.2153	7.129		0.518645787	0.623850217	0.009312927	0.096079753	0.029612713
2019-11-16T14:00:00	0.2144	7.128		0.515591790	0.619583916	0.009212895	0.095047736	0.029294635
2019-11-16T14:05:00	0.2144	7.118		0.515613203	0.619613801	0.009213594	0.095054952	0.029296859
2019-11-16T14:10:00	0.2146	7.103		0.516318265	0.620598084	0.009236641	0.095292722	0.029370143
2019-11-16T14:15:00	0.2133	7.084		0.511893539	0.614427721	0.009092484	0.093805481	0.028911760
2019-11-16T14:20:00	0.2127	7.065		0.509860979	0.611598581	0.009026644	0.093126218	0.028702405
2019-11-16T14:25:00	0.2134	7.048		0.512278621	0.614964096	0.009104985	0.093934449	0.028951510
2019-11-16T14:30:00	0.2130	7.030		0.510931014	0.613087558	0.009061275	0.093483506	0.028812524
2019-11-16T14:35:00	0.2113	7.014		0.505127957	0.605023565	0.008874254	0.091554045	0.028217846
2019-11-16T14:40:00	0.2111	6.999		0.504463551	0.604102032	0.008852966	0.091334419	0.028150155
2019-11-16T14:45:00	0.2112	6.983		0.504485033	0.604131822	0.008853654	0.091341516	0.028152342
2019-11-16T14:50:00	0.2133	6.964		0.511701351	0.614160069	0.009086248	0.093741147	0.028891932
2019-11-16T14:55:00	0.2129	6.944		0.510353517	0.612283843	0.009042576	0.093290593	0.028753067
2019-11-16T15:00:00	0.2125	6.924		0.509005152	0.610408346	0.008998993	0.092840947	0.028614481
2019-11-16T15:05:00	0.2108	6.902		0.503198823	0.602348832	0.008812513	0.090917076	0.028021526
2019-11-16T15:10:00	0.2118	6.880		0.506649602	0.607135432	0.008923105	0.092058034	0.028373180
2019-11-16T15:15:00	0.2115	6.857		0.505642651	0.605737692	0.008890763	0.091724364	0.028270340
2019-11-16T15:20:00	0.2107	6.828		0.502920179	0.601962741	0.008803613	0.090825256	0.027993226
2019-11-16T15:25:00	0.2102	6.798		0.501225594	0.599616061	0.008749584	0.090267842	0.027821426
2019-11-16T15:30:00	0.2123	6.768		0.508448787	0.609634902	0.008981040	0.092655729	0.028557396
2019-11-16T15:35:00	0.2127	6.738		0.509840268	0.611569770	0.009025974	0.093119309	0.028700275
2019-11-16T15:40:00	0.2090	6.709		0.497168070	0.594006543	0.008620888	0.088940116	0.027412208
2019-11-16T15:45:00	0.2093	6.681		0.498220567	0.595460346	0.008654180	0.089283579	0.027518066
2019-11-16T15:50:00	0.2099	6.654		0.500303077	0.598339521	0.008720240	0.089965110	0.027728121
2019-11-16T15:55:00	0.2103	6.627		0.501697878	0.600269853	0.008764625	0.090423023	0.027869254
2019-11-16T16:00:00	0.2128	6.599		0.510289917	0.612195347	0.009040518	0.093269360	0.028746522
2019-11-16T16:05:00	0.2138	6.571		0.513572969	0.616767853	0.009147066	0.094368593	0.029085317
2019-11-16T16:10:00	0.2148	6.546		0.516852878	0.621344686	0.009254136	0.095473210	0.029425771
2019-11-16T16:15:00	0.2156	6.521		0.519788227	0.625448099	0.009350487	0.096467246	0.029732142
2019-11-16T16:20:00	0.2171	6.496		0.524767387	0.632424592	0.009515069	0.098165214	0.030255472
2019-11-16T16:25:00	0.2171	6.468		0.524969620	0.632708373	0.009521784	0.098234493	0.030276825
2019-11-16T16:30:00	0.2170	6.442		0.524489950	0.632035335	0.009505861	0.098070213	0.030226192
2019-11-16T16:35:00	0.2171	6.414		0.524692199	0.632319093	0.009512573	0.098139463	0.030247536
2019-11-16T16:40:00	0.2163	6.386		0.522165844	0.628776959	0.009428897	0.097276194	0.029981468
2019-11-16T16:45:00	0.2170	6.359		0.524414756	0.631929844	0.009503366	0.098044472	0.030218259
2019-11-16T16:50:00	0.2178	6.332		0.527343659	0.636042207	0.009600792	0.099049602	0.030528049
2019-11-16T16:55:00	0.2172	6.305		0.525160179	0.632975804	0.009528114	0.098299795	0.030296952
2019-11-16T17:00:00	0.2181	6.279		0.528088449	0.637089051	0.009625646	0.099306017	0.030607079
2019-11-16T17:05:00	0.2176	6.252		0.526587051	0.634979215	0.009575577	0.098789459	0.030447871
2019-11-16T17:10:00	0.2171	6.226		0.524744063	0.632391864	0.009514295	0.098157226	0.030253010
2019-11-16T17:15:00	0.2179	6.201		0.527672686	0.636504617	0.009611768	0.099162838	0.030562950
2019-11-16T17:20:00	0.2194	6.174		0.532640465	0.643496972	0.009778253	0.100880430	0.031092328
2019-11-16T17:25:00	0.2211	6.149		0.538280408	0.651459799	0.009969009	0.102848426	0.031698884
2019-11-16T17:30:00	0.2207	6.125		0.537123188	0.649823847	0.009929717	0.102443064	0.031573947
2019-11-16T17:35:00	0.2215	6.101		0.539701867	0.653470800	0.010017379	0.103347453	0.031852689
2019-11-16T17:40:00	0.2213	6.080		0.539224241	0.652794897	0.010001113	0.103179638	0.031800967
2019-11-16T17:45:00	0.2213	6.059		0.539086105	0.652599452	0.009996411	0.103131130	0.031786016
2019-11-16T17:50:00	0.2216	6.042		0.539966473	0.653845331	0.010026396	0.103440482	0.031881361
2019-11-16T17:55:00	0.2235	6.023		0.546611050	0.663269058	0.010254173	0.105790415	0.032605633
2019-11-16T18:00:00	0.2240	6.000		0.548166875	0.665480843	0.010307881	0.106344507	0.032776410
2019-11-16T18:05:00	0.2235	5.976		0.546674174	0.663358758	0.010256350	0.105812868	0.032612553
2019-11-16T18:10:00	0.2222	5.953		0.542129007	0.656908399	0.010100244	0.104202360	0.032116179
2019-11-16T18:15:00	0.2223	5.930		0.542669430	0.657674464	0.010118742	0.104393197	0.032174997
2019-11-16T18:20:00	0.2221	5.906		0.541852962	0.656517189	0.010090803	0.104104950	0.032086157
2019-11-16T18:25:00	0.2203	5.883		0.535602467	0.647675678	0.009878203	0.101911598	0.031410144
2019-11-16T18:30:00	0.2184	5.862		0.529340643	0.638850097	0.009667506	0.099737873	0.030740181
2019-11-16T18:35:00	0.2180	5.839		0.527839792	0.636739499	0.009617345	0.099220373	0.030580683
2019-11-16T18:40:00	0.2179	5.818		0.527701200	0.636544694	0.009612719	0.099172654	0.030565975
2019-11-16T18:45:00	0.2166	5.796		0.523130980	0.630129539	0.009460820	0.097605535	0.030082974
2019-11-16T18:50:00	0.2175	5.776		0.526060975	0.634240382	0.009558064	0.098608782	0.030392184
2019-11-16T18:55:00	0.2167	5.756		0.523535625	0.630696850	0.009474220	0.097743781	0.030125583
2019-11-16T19:00:00	0.2146	5.735		0.516226554	0.620470031	0.009233642	0.095261778	0.029360605
2019-11-16T19:05:00	0.2163	5.714		0.522234634	0.628873339	0.009431171	0.097299649	0.029988697
2019-11-16T19:10:00	0.2185	5.692		0.529594398	0.639207125	0.009675999	0.099825503	0.030767190
2019-11-16T19:15:00	0.2201	5.671		0.534899380	0.646683136	0.009854431	0.101666353	0.031334557
2019-11-16T19:20:00	0.2218	5.649		0.540875022	0.655131757	0.010057389	0.103760227	0.031979910
2019-11-16T19:25:00	0.2224	5.630		0.542772618	0.657820763	0.010122276	0.104429655	0.032186234
2019-11-16T19:30:00	0.2224	5.610		0.542973798	0.658106021	0.010129168	0.104500754	0.032208147
2019-11-16T19:35:00	0.2220	5.590		0.541478859	0.655987111	0.010078014	0.103973011	0.032045492
2019-11-16T19:40:00	0.2221	5.574		0.541680115	0.656272262	0.010084893	0.104043980	0.032067365
2019-11-16T19:45:00	0.2199	5.553		0.534409461	0.645991759	0.009837884	0.101495639	0.031281942
2019-11-16T19:50:00	0.2189	5.533		0.530869329	0.641001721	0.009718732	0.100266364	0.030903067
2019-11-16T19:55:00	0.2188	5.513		0.530730859	0.640806746	0.009714086	0.100218434	0.030888295
2019-11-16T20:00:00	0.2195	5.492		0.532974188	0.643967421	0.009789488	0.100996346	0.031128055
2019-11-16T20:05:00	0.2215	5.471		0.539632194	0.653372192	0.010015005	0.103322965	0.031845141
2019-11-16T20:10:00	0.2211	5.449		0.538475427	0.651735602	0.009975638	0.102916818	0.031719963
2019-11-16T20:15:00	0.2219	5.428		0.541053098	0.655383976	0.010063469	0.103822956	0.031999243
2019-11-16T20:20:00	0.2225	5.408		0.543289740	0.658554067	0.010139995	0.104612461	0.032242576
2019-11-16T20:25:00	0.2238	5.385		0.547557795	0.664614729	0.010286838	0.106127415	0.032709500
2019-11-16T20:30:00	0.2245	5.366		0.549790247	0.667790768	0.010364072	0.106924217	0.032955082
2019-11-16T20:35:00	0.2234	5.349		0.546265822	0.662778546	0.010242275	0.105667664	0.032567800
2019-11-16T20:40:00	0.2233	5.330		0.545789100	0.662101363	0.010225857	0.105498277	0.032515594
2019-11-16T20:45:00	0.2239	5.310		0.548022690	0.665275783	0.010302898	0.106293095	0.032760564
2019-11-16T20:50:00	0.2233	5.291		0.545852240	0.662191042	0.010228030	0.105520703	0.032522506
2019-11-16T20:55:00	0.2231	5.275		0.545375461	0.661513940	0.010211621	0.105351415	0.032470329
2019-11-16T21:00:00	0.2225	5.260		0.543203353	0.658431552	0.010137034	0.104581911	0.032233161
2019-11-16T21:05:00	0.2222	5.242		0.542047779	0.656793276	0.010097466	0.104173692	0.032107344
2019-11-16T21:10:00	0.2215	5.226		0.539873582	0.653713845	0.010023230	0.103407819	0.031871294
2019-11-16T21:15:00	0.2210	5.212		0.538037678	0.651116562	0.009960761	0.102763333	0.031672657
2019-11-16T21:20:00	0.2195	5.200		0.533141038	0.644202663	0.009795108	0.101054324	0.031145924
2019-11-16T21:25:00	0.2190	5.188		0.531301551	0.641610417	0.009733240	0.100416044	0.030949200
2019-11-16T21:30:00	0.2191	5.176		0.531503400	0.641894733	0.009740019	0.100485984	0.030970756
2019-11-16T21:35:00	0.2193	5.164		0.532385702	0.643137893	0.009769680	0.100791985	0.031065069
2019-11-16T21:40:00	0.2208	5.154		0.537346706	0.650139747	0.009937300	0.102521297	0.031598059
2019-11-16T21:45:00	0.2217	5.144		0.540604066	0.654748037	0.010048141	0.103664818	0.031950504
2019-11-16T21:50:00	0.2224	5.134		0.542840998	0.657917717	0.010124618	0.104453818	0.032193681
2019-11-16T21:55:00	0.2216	5.126		0.539988465	0.653876462	0.010027146	0.103448216	0.031883745
2019-11-16T22:00:00	0.2219	5.121		0.541207950	0.655603324	0.010068758	0.103877520	0.032016060
2019-11-16T22:05:00	0.2225	5.112		0.543231202	0.658471046	0.010137989	0.104591759	0.032236196
2019-11-16T22:10:00	0.2235	5.106		0.546608748	0.663265787	0.010254094	0.105789596	0.032605381
2019-11-16T22:15:00	0.2230	5.099		0.544902188	0.660841999	0.010195346	0.105183508	0.032418579
2019-11-16T22:20:00	0.2236	5.092		0.546923284	0.663712776	0.010264940	0.105901497	0.032639870
2019-11-16T22:25:00	0.2238	5.084		0.547588639	0.664658582	0.010287903	0.106138403	0.032712887
2019-11-16T22:30:00	0.2241	5.078		0.548592493	0.666086253	0.010322598	0.106496342	0.032823207
2019-11-16T22:35:00	0.2244	5.071		0.549596056	0.667514336	0.010357342	0.106854787	0.032933683
2019-11-16T22:40:00	0.2244	5.064		0.549583940	0.667497091	0.010356922	0.106850456	0.032932348
2019-11-16T22:45:00	0.2240	5.056		0.548217506	0.665552853	0.010309631	0.106362563	0.032781975
2019-11-16T22:50:00	0.2243	5.050		0.549221177	0.666980782	0.010344356	0.106720819	0.032892393
2019-11-16T22:55:00	0.2249	5.042		0.551239760	0.669855134	0.010414375	0.107443190	0.033115035
2019-11-16T23:00:00	0.2255	5.034		0.553257171	0.672731159	0.010484592	0.108167607	0.033338307
2019-11-16T23:05:00	0.2254	5.026		0.552906896	0.672231566	0.010472384	0.108041652	0.033299487
2019-11-16T23:10:00	0.2273	5.017		0.559314476	0.681386561	0.010696858	0.110357516	0.034013258
2019-11-16T23:15:00	0.2283	5.008		0.562676441	0.686203571	0.010815604	0.111582591	0.034390838
2019-11-16T23:20:00	0.2285	4.998		0.563338791	0.687153682	0.010839077	0.111824757	0.034465476
2019-11-16T23:25:00	0.2290	4.990		0.565012209	0.689555736	0.010898496	0.112437775	0.034654414
2019-11-16T23:30:00	0.2294	4.982		0.566347955	0.691474748	0.010946044	0.112928318	0.034805604
2019-11-16T23:35:00	0.2288	4.975		0.564313983	0.688553209	0.010873684	0.112181789	0.034575517
2019-11-16T23:40:00	0.2298	4.969		0.568007881	0.693861549	0.011005278	0.113539429	0.034993955
2019-11-16T23:45:00	0.2293	4.964		0.566311782	0.691422761	0.010944755	0.112915020	0.034801506
2019-11-16T23:50:00	0.2304	4.960		0.570003570	0.696734157	0.011076710	0.114276377	0.035221089
2019-11-16T23:55:00	0.2322	4.958		0.576043940	0.705448782	0.011294349	0.116521717	0.035913125
2019-11-17T00:00:00	0.2340	4.958		0.582073922	0.714178581	0.011513770	0.118785445	0.036610828
2019-11-17T00:05:00	0.2351	4.961		0.585749159	0.719514150	0.011648565	0.120176098	0.037039441
2019-11-17T00:10:00	0.2356	4.962		0.587411915	0.721931768	0.011709813	0.120807983	0.037234194
2019-11-17T00:15:00	0.2359	4.964		0.588404399	0.723375918	0.011746450	0.121185958	0.037350689
2019-11-17T00:20:00	0.2366	4.964		0.590735074	0.726770478	0.011832716	0.122075945	0.037624992
2019-11-17T00:25:00	0.2371	4.969		0.592395479	0.729191572	0.011894370	0.122712021	0.037821037
2019-11-17T00:30:00	0.2372	4.972		0.592717893	0.729661960	0.011906361	0.122835730	0.037859165
2019-11-17T00:35:00	0.2373	4.976		0.593040277	0.730132393	0.011918357	0.122959491	0.037897309
2019-11-17T00:40:00	0.2387	4.980		0.597705922	0.736950354	0.012092662	0.124757764	0.038451555
2019-11-17T00:45:00	0.2385	4.984		0.597026118	0.735955818	0.012067184	0.124494914	0.038370541
2019-11-17T00:50:00	0.2377	4.988		0.594341480	0.732032028	0.011966838	0.123459664	0.038051467
2019-11-17T00:55:00	0.2370	4.993		0.591989249	0.728599021	0.011879270	0.122556244	0.037773025
2019-11-17T01:00:00	0.2375	4.996		0.593649064	0.731020989	0.011941027	0.123193374	0.037969394
2019-11-17T01:05:00	0.2393	5.000		0.599649000	0.739795161	0.012165637	0.125510639	0.038683598
2019-11-17T01:10:00	0.2386	5.005		0.597300302	0.736356896	0.012077457	0.124600894	0.038403206
2019-11-17T01:15:00	0.2382	5.010		0.595952364	0.734385727	0.012026998	0.124080320	0.038242760
2019-11-17T01:20:00	0.2385	5.015		0.596942448	0.735833437	0.012064050	0.124462582	0.038360576
2019-11-17T01:25:00	0.2396	5.020		0.600602227	0.741191909	0.012201520	0.125880833	0.038797695
2019-11-17T01:30:00	0.2385	5.026		0.596918542	0.735798472	0.012063155	0.124453345	0.038357730
2019-11-17T01:35:00	0.2376	5.031		0.593899583	0.731386742	0.011950362	0.123289685	0.037999078
2019-11-17T01:40:00	0.2378	5.037		0.594556067	0.732345442	0.011974843	0.123542249	0.038076921
2019-11-17T01:45:00	0.2372	5.042		0.592538378	0.729400045	0.011899684	0.122766843	0.037837933
2019-11-17T01:50:00	0.2365	5.049		0.590184944	0.725968822	0.011812324	0.121865572	0.037560153
2019-11-17T01:55:00	0.2351	5.054		0.585485346	0.719130783	0.011638863	0.120076000	0.037008589
2019-11-17T02:00:00	0.2366	5.060		0.590830145	0.726909043	0.011836241	0.122112320	0.037636203
2019-11-17T02:05:00	0.2372	5.066		0.592824878	0.729818066	0.011910341	0.122876793	0.037871821
2019-11-17T02:10:00	0.2383	5.072		0.596488922	0.735170186	0.012047070	0.124287405	0.038306585
2019-11-17T02:15:00	0.2376	5.078		0.594138123	0.731735053	0.011959255	0.123381426	0.038027354
2019-11-17T02:20:00	0.2365	5.085		0.590447685	0.726351659	0.011822061	0.121966023	0.037591113
2019-11-17T02:25:00	0.2357	5.091		0.587758033	0.722435306	0.011722583	0.120939729	0.037274799
2019-11-17T02:30:00	0.2353	5.096		0.586406442	0.720469552	0.011672757	0.120425678	0.037116363
2019-11-17T02:35:00	0.2365	5.103		0.590411759	0.726299309	0.011820729	0.121952285	0.037586879
2019-11-17T02:40:00	0.2357	5.109		0.587722080	0.722382996	0.011721256	0.120926040	0.037270580
2019-11-17T02:45:00	0.2368	5.116		0.591391427	0.727727254	0.011857068	0.122327181	0.037702425
2019-11-17T02:50:00	0.2368	5.120		0.591379455	0.727709800	0.011856623	0.122322596	0.037701012
2019-11-17T02:55:00	0.2370	5.126		0.592036408	0.728667803	0.011881023	0.122574323	0.037778597
2019-11-17T03:00:00	0.2375	5.133		0.593696201	0.731089804	0.011942783	0.123211493	0.037974979
2019-11-17T03:05:00	0.2378	5.138		0.594686918	0.732536573	0.011979726	0.123592622	0.038092447
2019-11-17T03:10:00	0.2372	5.144		0.592669303	0.729591065	0.011904553	0.122817082	0.037853417
2019-11-17T03:15:00	0.2377	5.150		0.594328799	0.732013508	0.011966365	0.123454784	0.038049963
2019-11-17T03:20:00	0.2383	5.157		0.596321555	0.734925466	0.012040807	0.124222790	0.038286670
2019-11-17T03:25:00	0.2382	5.164		0.595975558	0.734419632	0.012027865	0.124089268	0.038245518
2019-11-17T03:30:00	0.2379	5.171		0.594961283	0.732937381	0.011989967	0.123698278	0.038125011
2019-11-17T03:35:00	0.2374	5.176		0.593278154	0.730479567	0.011927212	0.123050851	0.037925467
2019-11-17T03:40:00	0.2376	5.184		0.593934754	0.731438095	0.011951673	0.123303209	0.038003247
2019-11-17T03:45:00	0.2380	5.191		0.595259545	0.733373168	0.012001105	0.123813188	0.038160427
2019-11-17T03:50:00	0.2373	5.197		0.592907926	0.729939252	0.011913431	0.122908674	0.037881647
2019-11-17T03:55:00	0.2353	5.203		0.586202626	0.720173255	0.011665252	0.120348258	0.037092502
2019-11-17T04:00:00	0.2330	5.208		0.578477505	0.708968300	0.011382643	0.117432628	0.036193876
2019-11-17T04:05:00	0.2321	5.215		0.575534815	0.704713085	0.011275922	0.116331603	0.035854530
2019-11-17T04:10:00	0.2337	5.218		0.580986747	0.712602412	0.011474050	0.118375661	0.036484528
2019-11-17T04:15:00	0.2328	5.222		0.578046162	0.708344117	0.011366967	0.117270907	0.036144032
2019-11-17T04:20:00	0.2326	5.228		0.577118801	0.707002684	0.011333304	0.116923603	0.036036990
2019-11-17T04:25:00	0.2337	5.233		0.580891219	0.712463964	0.011470563	0.118339689	0.036473441
2019-11-17T04:30:00	0.2351	5.237		0.585664841	0.719391615	0.011645464	0.120144101	0.037029579
2019-11-17T04:35:00	0.2354	5.243		0.586749661	0.720968586	0.011685399	0.120556108	0.037156563
2019-11-17T04:40:00	0.2350	5.248		0.585154490	0.718650071	0.011626700	0.119950523	0.036969916
2019-11-17T04:45:00	0.2341	5.255		0.582217392	0.714386655	0.011519017	0.118839576	0.036627512
2019-11-17T04:50:00	0.2351	5.261		0.585649321	0.719369060	0.011644893	0.120138212	0.037027764
2019-11-17T04:55:00	0.2357	5.268		0.587738805	0.722407330	0.011721873	0.120932408	0.037272543
2019-11-17T05:00:00	0.2361	5.275		0.589157706	0.724472592	0.011774297	0.121473249	0.037439235
2019-11-17T05:05:00	0.2346	5.281		0.583878288	0.716796687	0.011579848	0.119467154	0.036820937
2019-11-17T05:10:00	0.2334	5.287		0.579933519	0.711076396	0.011435637	0.117979363	0.036362386
2019-11-17T05:15:00	0.2338	5.293		0.581355572	0.713137018	0.011487517	0.118514599	0.036527350
2019-11-17T05:20:00	0.2341	5.299		0.582441721	0.714712032	0.011527224	0.118924241	0.036653606
2019-11-17T05:25:00	0.2339	5.303		0.581515522	0.713368898	0.011493360	0.118574879	0.036545929
2019-11-17T05:30:00	0.2330	5.309		0.578575379	0.709109954	0.011386201	0.117469339	0.036205191
2019-11-17T05:35:00	0.2330	5.314		0.578655419	0.709225800	0.011389112	0.117499365	0.036214446
2019-11-17T05:40:00	0.2334	5.320		0.580077989	0.711285663	0.011440903	0.118033683	0.036379127
2019-11-17T05:45:00	0.2351	5.325		0.585522878	0.719185319	0.011640243	0.120090238	0.037012978
2019-11-17T05:50:00	0.2347	5.331		0.584262336	0.717354284	0.011593937	0.119612510	0.036865737
2019-11-17T05:55:00	0.2352	5.336		0.586017657	0.719904385	0.011658444	0.120278019	0.037070854
2019-11-17T06:00:00	0.2359	5.342		0.588441710	0.723430225	0.011747828	0.121200179	0.037355072
2019-11-17T06:05:00	0.2360	5.348		0.588521525	0.723546401	0.011750777	0.121230604	0.037364449
2019-11-17T06:10:00	0.2366	5.355		0.590609306	0.726587186	0.011828052	0.122027834	0.037610164
2019-11-17T06:15:00	0.2373	5.361		0.593030204	0.730117693	0.011917982	0.122955623	0.037896117
2019-11-17T06:20:00	0.2373	5.366		0.593109915	0.730234022	0.011920949	0.122986233	0.037905551
2019-11-17T06:25:00	0.2374	5.372		0.593189624	0.730350355	0.011923916	0.123016846	0.037914987
2019-11-17T06:30:00	0.2373	5.377		0.592935002	0.729978764	0.011914439	0.122919069	0.037884851
2019-11-17T06:35:00	0.2378	5.383		0.594686009	0.732535246	0.011979692	0.123592273	0.038092339
2019-11-17T06:40:00	0.2369	5.386		0.591756852	0.728260096	0.011870637	0.122467172	0.037745572
2019-11-17T06:45:00	0.2371	5.391		0.592505428	0.729351973	0.011898458	0.122754201	0.037834037
2019-11-17T06:50:00	0.2390	5.395		0.598598840	0.738257260	0.012126169	0.125103450	0.038558098
2019-11-17T06:55:00	0.2390	5.399		0.598678426	0.738373776	0.012129158	0.125134285	0.038567602
2019-11-17T07:00:00	0.2387	5.405		0.597756484	0.737024341	0.012094558	0.124777326	0.038457584
2019-11-17T07:05:00	0.2401	5.411		0.602507346	0.743985726	0.012273398	0.126622382	0.039026248
2019-11-17T07:10:00	0.2399	5.417		0.601586401	0.742634801	0.012238625	0.126263634	0.038915678
2019-11-17T07:15:00	0.2397	5.423		0.600998816	0.741773249	0.012216465	0.126035017	0.038845216
2019-11-17T07:20:00	0.2392	5.430		0.599410076	0.739445189	0.012156652	0.125417939	0.038655027
2019-11-17T07:25:00	0.2403	5.436		0.603158722	0.744941652	0.012298023	0.126876438	0.039104550
2019-11-17T07:30:00	0.2416	5.441		0.607236416	0.750933948	0.012452759	0.128472820	0.039596571
2019-11-17T07:35:00	0.2413	5.448		0.606316700	0.749581180	0.012417772	0.128111861	0.039485320
2019-11-17T07:40:00	0.2429	5.454		0.611721319	0.757540758	0.012624099	0.130240502	0.040141388
2019-11-17T07:45:00	0.2426	5.460		0.610802765	0.756186240	0.012588908	0.129877448	0.040029491
2019-11-17T07:50:00	0.2423	5.466		0.609551209	0.754341813	0.012541042	0.129383618	0.039877288
2019-11-17T07:55:00	0.2410	5.473		0.605301876	0.748089346	0.012379225	0.127714183	0.039362751
2019-11-17T08:00:00	0.2402	5.482		0.602714943	0.744290346	0.012281243	0.126703323	0.039051195
2019-11-17T08:05:00	0.2398	5.492		0.601460528	0.742450214	0.012233876	0.126214641	0.038900578
2019-11-17T08:10:00	0.2398	5.502		0.601206502	0.742077736	0.012224295	0.126115798	0.038870114
2019-11-17T08:15:00	0.2384	5.513		0.596613157	0.735351854	0.012051720	0.124335379	0.038321371
2019-11-17T08:20:00	0.2385	5.524		0.597026761	0.735956758	0.012067208	0.124495162	0.038370618
2019-11-17T08:25:00	0.2392	5.535		0.599443264	0.739493799	0.012157900	0.125430813	0.038658995
2019-11-17T08:30:00	0.2399	5.546		0.601858117	0.743033304	0.012248879	0.126369424	0.038948284
2019-11-17T08:35:00	0.2397	5.558		0.600937003	0.741682631	0.012214135	0.126010979	0.038837808
2019-11-17T08:40:00	0.2414	5.570		0.606682887	0.750119703	0.012431696	0.128255515	0.039529595
2019-11-17T08:45:00	0.2414	5.581		0.606762291	0.750236492	0.012434716	0.128286676	0.039539199
2019-11-17T08:50:00	0.2419	5.594		0.608506470	0.752803180	0.012501157	0.128972135	0.039750465
2019-11-17T08:55:00	0.2414	5.612		0.606588052	0.749980227	0.012428089	0.128218304	0.039518126
2019-11-17T09:00:00	0.2420	5.631		0.608665195	0.753036882	0.012507213	0.129034607	0.039769719
2019-11-17T09:05:00	0.2421	5.652		0.609077394	0.753643891	0.012522945	0.129196917	0.039819744
2019-11-17T09:10:00	0.2417	5.670		0.607825230	0.751800381	0.012475185	0.128704185	0.039667880
2019-11-17T09:15:00	0.2409	5.686		0.604906939	0.747509004	0.012364241	0.127559591	0.039315105
2019-11-17T09:20:00	0.2396	5.701		0.600652030	0.741264905	0.012203396	0.125900190	0.038803661
2019-11-17T09:25:00	0.2393	5.717		0.599730603	0.739914702	0.012168707	0.125542308	0.038693359
2019-11-17T09:30:00	0.2361	5.734		0.589115739	0.724411485	0.011772745	0.121457235	0.037434299
2019-11-17T09:35:00	0.2344	5.754		0.583165774	0.715762517	0.011553732	0.119197720	0.036737895
2019-11-17T09:40:00	0.2338	5.775		0.581233534	0.712960113	0.011483060	0.118468618	0.036513178
2019-11-17T09:45:00	0.2336	5.801		0.580642546	0.712103600	0.011461489	0.118246074	0.036444588
2019-11-17T09:50:00	0.2327	5.827		0.577701673	0.707845728	0.011354456	0.117141832	0.036104250
2019-11-17T09:55:00	0.2329	5.853		0.578117504	0.708447344	0.011369559	0.117297647	0.036152274
2019-11-17T10:00:00	0.2348	5.880		0.584570994	0.717802512	0.011605267	0.119729397	0.036901763
2019-11-17T10:05:00	0.2361	5.905		0.588957537	0.724181138	0.011766894	0.121396876	0.037415696
2019-11-17T10:10:00	0.2362	5.926		0.589324655	0.724715704	0.011780473	0.121536966	0.037458873
2019-11-17T10:15:00	0.2352	5.949		0.586008626	0.719891259	0.011658112	0.120274590	0.037069797
2019-11-17T10:20:00	0.2342	5.976		0.582689469	0.715071426	0.011536290	0.119017781	0.036682436
2019-11-17T10:25:00	0.2336	6.006		0.580709466	0.712200572	0.011463931	0.118271263	0.036452352
2019-11-17T10:30:00	0.2324	6.043		0.576713580	0.706416751	0.011318610	0.116772009	0.035990267
2019-11-17T10:35:00	0.2332	6.079		0.579432181	0.710350333	0.011417376	0.117790964	0.036304319
2019-11-17T10:40:00	0.2319	6.115		0.574762747	0.703597841	0.011248006	0.116043607	0.035765767
2019-11-17T10:45:00	0.2315	6.154		0.573450736	0.701703787	0.011200649	0.115555035	0.035615184
2019-11-17T10:50:00	0.2322	6.196		0.575835908	0.705148145	0.011286818	0.116444016	0.035889177
2019-11-17T10:55:00	0.2322	6.240		0.575868443	0.705195161	0.011287995	0.116456166	0.035892921
2019-11-17T11:00:00	0.2322	6.281		0.575900979	0.705242178	0.011289173	0.116468317	0.035896667
2019-11-17T11:05:00	0.2319	6.316		0.574925472	0.703832855	0.011253887	0.116104276	0.035784465
2019-11-17T11:10:00	0.2330	6.347		0.578652719	0.709221892	0.011389013	0.117498352	0.036214133
2019-11-17T11:15:00	0.2331	6.378		0.579020915	0.709754873	0.011402407	0.117636527	0.036256720
2019-11-17T11:20:00	0.2313	6.407		0.573006206	0.701062375	0.011184627	0.115389738	0.035564238
2019-11-17T11:25:00	0.2330	6.432		0.578750247	0.709363057	0.011392560	0.117534944	0.036225411
2019-11-17T11:30:00	0.2326	6.454		0.577103890	0.706981120	0.011332763	0.116918023	0.036035270
2019-11-17T11:35:00	0.2337	6.477		0.580828825	0.712373540	0.011468286	0.118316196	0.036466201
2019-11-17T11:40:00	0.2331	6.502		0.578847772	0.709504226	0.011396108	0.117571541	0.036236691
2019-11-17T11:45:00	0.2331	6.531		0.578880280	0.709551283	0.011397290	0.117583741	0.036240451
2019-11-17T11:50:00	0.2338	6.564		0.581261764	0.713001034	0.011484091	0.118479253	0.036516457
2019-11-17T11:55:00	0.2330	6.597		0.578609601	0.709159484	0.011387446	0.117482177	0.036209148
2019-11-17T12:00:00	0.2329	6.628		0.578306388	0.708720665	0.011376423	0.117368459	0.036174099
2019-11-17T12:05:00	0.2337	6.662		0.581023756	0.712656052	0.011475401	0.118389599	0.036488824
2019-11-17T12:10:00	0.2340	6.698		0.582062526	0.714162054	0.011513353	0.118781146	0.036609503
2019-11-17T12:15:00	0.2351	6.734		0.585782210	0.719562183	0.011649781	0.120188642	0.037043307
2019-11-17T12:20:00	0.2359	6.772		0.588493808	0.723506056	0.011749753	0.121220038	0.037361193
2019-11-17T12:25:00	0.2355	6.807		0.586852010	0.721117418	0.011689170	0.120595017	0.037168555
2019-11-17T12:30:00	0.2348	6.835		0.584539222	0.717756370	0.011604100	0.119717362	0.036898054
2019-11-17T12:35:00	0.2339	6.862		0.581554121	0.713424860	0.011494771	0.118589428	0.036550414
2019-11-17T12:40:00	0.2335	6.890		0.580244648	0.711527093	0.011446978	0.118096361	0.036398445
2019-11-17T12:45:00	0.2344	6.918		0.583295795	0.715951204	0.011558495	0.119246864	0.036753042
2019-11-17T12:50:00	0.2342	6.948		0.582657681	0.715025309	0.011535127	0.119005777	0.036678736
2019-11-17T12:55:00	0.2333	6.984		0.579670980	0.710696148	0.011426073	0.117880684	0.036331972
2019-11-17T13:00:00	0.2332	7.015		0.579367859	0.710257194	0.011415034	0.117766803	0.036296872
2019-11-17T13:05:00	0.2332	7.042		0.579400362	0.710304259	0.011416218	0.117779012	0.036300635
2019-11-17T13:10:00	0.2328	7.064		0.578090085	0.708407670	0.011368563	0.117287370	0.036149106
2019-11-17T13:15:00	0.2333	7.086		0.579465367	0.710398389	0.011418584	0.117803430	0.036308161
2019-11-17T13:20:00	0.2338	7.105		0.581175591	0.712876124	0.011480945	0.118446789	0.036506451
2019-11-17T13:25:00	0.2329	7.119		0.578187629	0.708548813	0.011372107	0.117323934	0.036160376
2019-11-17T13:30:00	0.2318	7.135		0.574524984	0.703254494	0.011239417	0.115954989	0.035738454
2019-11-17T13:35:00	0.2304	7.150		0.569849002	0.696511553	0.011071169	0.114219213	0.035203471
2019-11-17T13:40:00	0.2303	7.162		0.569545031	0.696073841	0.011060277	0.114106838	0.035168836
2019-11-17T13:45:00	0.2281	7.171		0.562165098	0.685470320	0.010797500	0.111395818	0.034333273
2019-11-17T13:50:00	0.2279	7.180		0.561523120	0.684550048	0.010774793	0.111161555	0.034261071
2019-11-17T13:55:00	0.2293	7.190		0.566275494	0.691370609	0.010943462	0.112901680	0.034797394
2019-11-17T14:00:00	0.2312	7.201		0.572703194	0.700625253	0.011173713	0.115277134	0.035529532
2019-11-17T14:05:00	0.2318	7.209		0.574416717	0.703098165	0.011235506	0.115914649	0.035726020
2019-11-17T14:10:00	0.2301	7.217		0.568730764	0.694901692	0.011031125	0.113806088	0.035076142
2019-11-17T14:15:00	0.2287	7.225		0.564047025	0.688170011	0.010864204	0.112083994	0.034545375
2019-11-17T14:20:00	0.2291	7.232		0.565427833	0.690152689	0.010913280	0.112590294	0.034701422
2019-11-17T14:25:00	0.2305	7.240		0.570174902	0.696980926	0.011082854	0.114339758	0.035240624
2019-11-17T14:30:00	0.2308	7.239		0.571216890	0.698482227	0.011120254	0.114725607	0.035359546
2019-11-17T14:35:00	0.2326	7.235		0.577299713	0.707264318	0.011339867	0.116991315	0.036057859
2019-11-17T14:40:00	0.2322	7.232		0.575988651	0.705368878	0.011292347	0.116501064	0.035906759
2019-11-17T14:45:00	0.2342	7.227		0.582733905	0.715135892	0.011537917	0.119034562	0.036687608
2019-11-17T14:50:00	0.2339	7.223		0.581760296	0.713723790	0.011502305	0.118667157	0.036574370
2019-11-17T14:55:00	0.2344	7.218		0.583469403	0.716203164	0.011564857	0.119312498	0.036773271
2019-11-17T15:00:00	0.2344	7.212		0.583166610	0.715763730	0.011553762	0.119198036	0.036737992
2019-11-17T15:05:00	0.2348	7.203		0.584539906	0.717757362	0.011604125	0.119717621	0.036898133
2019-11-17T15:10:00	0.2360	7.192		0.588591746	0.723648616	0.011753372	0.121257374	0.037372700
2019-11-17T15:15:00	0.2360	7.183		0.588624163	0.723695805	0.011754570	0.121269734	0.037376510
2019-11-17T15:20:00	0.2371	7.173		0.592336924	0.729106152	0.011892193	0.122689561	0.037814114
2019-11-17T15:25:00	0.2370	7.167		0.592034893	0.728665593	0.011880967	0.122573742	0.037778418
2019-11-17T15:30:00	0.2369	7.162		0.591732835	0.728225073	0.011869745	0.122457969	0.037742735
2019-11-17T15:35:00	0.2371	7.160		0.592434073	0.729247875	0.011895805	0.122726826	0.037825600
2019-11-17T15:40:00	0.2376	7.159		0.594138009	0.731734887	0.011959250	0.123381382	0.038027340
2019-11-17T15:45:00	0.2383	7.158		0.596509200	0.735199837	0.012047829	0.124295235	0.038308998
2019-11-17T15:50:00	0.2382	7.155		0.595873474	0.734270409	0.012024048	0.124049887	0.038233380
2019-11-17T15:55:00	0.2395	7.152		0.600245992	0.740669835	0.012188104	0.125742420	0.038755035
2019-11-17T16:00:00	0.2391	7.149		0.598943446	0.738761815	0.012139113	0.125236993	0.038599257
2019-11-17T16:05:00	0.2378	7.144		0.594598688	0.732407695	0.011976433	0.123558656	0.038081978
2019-11-17T16:10:00	0.2387	7.141		0.597602110	0.736798456	0.012088769	0.124717606	0.038439178
2019-11-17T16:15:00	0.2373	7.136		0.592921369	0.729958870	0.011913932	0.122913835	0.037883238
2019-11-17T16:20:00	0.2378	7.130		0.594589717	0.732394592	0.011976099	0.123555203	0.038080913
2019-11-17T16:25:00	0.2379	7.121		0.594920900	0.732878383	0.011988459	0.123682724	0.038120217
2019-11-17T16:30:00	0.2373	7.111		0.592912394	0.729945773	0.011913598	0.122910390	0.037882176
2019-11-17T16:35:00	0.2374	7.100		0.593243735	0.730429330	0.011925931	0.123037630	0.037921392
2019-11-17T16:40:00	0.2370	7.087		0.591903224	0.728473558	0.011876074	0.122523269	0.037762861
2019-11-17T16:45:00	0.2358	7.077		0.587884623	0.722619496	0.011727255	0.120987932	0.037289656
2019-11-17T16:50:00	0.2355	7.069		0.586877008	0.721153772	0.011690092	0.120604521	0.037171485
2019-11-17T16:55:00	0.2355	7.065		0.586874012	0.721149414	0.011689981	0.120603382	0.037171134
2019-11-17T17:00:00	0.2352	7.062		0.585866108	0.719684116	0.011652868	0.120220486	0.037053121
2019-11-17T17:05:00	0.2351	7.059		0.585528077	0.719192874	0.011640434	0.120092210	0.037013585
2019-11-17T17:10:00	0.2355	7.053		0.586865021	0.721136340	0.011689650	0.120599964	0.037170080
2019-11-17T17:15:00	0.2345	7.048		0.583511208	0.716263841	0.011566389	0.119328306	0.036778143
2019-11-17T17:20:00	0.2342	7.044		0.582502340	0.714799964	0.011529442	0.118947125	0.036660659
2019-11-17T17:25:00	0.2342	7.042		0.582499340	0.714795611	0.011529332	0.118945992	0.036660310
2019-11-17T17:30:00	0.2341	7.043		0.582160985	0.714304845	0.011516954	0.118818292	0.036620952
2019-11-17T17:35:00	0.2336	7.048		0.580480732	0.711869135	0.011455587	0.118185178	0.036425820
2019-11-17T17:40:00	0.2322	7.052		0.575777153	0.705063241	0.011284691	0.116422075	0.035882414
2019-11-17T17:45:00	0.2311	7.060		0.572076406	0.699721297	0.011151153	0.115044386	0.035457797
2019-11-17T17:50:00	0.2302	7.069		0.569045063	0.695354065	0.011042373	0.113922126	0.035111906
2019-11-17T17:55:00	0.2290	7.081		0.565000185	0.689538468	0.010898069	0.112433364	0.034653055
2019-11-17T18:00:00	0.2287	7.088		0.563985971	0.688082382	0.010862037	0.112061634	0.034538484
2019-11-17T18:05:00	0.2280	7.091		0.561622349	0.684692270	0.010778301	0.111197748	0.034272226
2019-11-17T18:10:00	0.2278	7.095		0.560944578	0.683721002	0.010754351	0.110950655	0.034196069
2019-11-17T18:15:00	0.2277	7.099		0.560604133	0.683233276	0.010742331	0.110826645	0.034157848
2019-11-17T18:20:00	0.2277	7.101		0.560938540	0.683712350	0.010754138	0.110948454	0.034195391
2019-11-17T18:25:00	0.2291	7.104		0.565656064	0.690480553	0.010921402	0.112674091	0.034727249
2019-11-17T18:30:00	0.2285	7.113		0.563630739	0.687572584	0.010849431	0.111931582	0.034498401
2019-11-17T18:35:00	0.2291	7.117		0.565650034	0.690471890	0.010921187	0.112671876	0.034726567
2019-11-17T18:40:00	0.2279	7.121		0.561601220	0.684661986	0.010777554	0.111190041	0.034269850
2019-11-17T18:45:00	0.2279	7.123		0.561598201	0.684657659	0.010777448	0.111188940	0.034269511
2019-11-17T18:50:00	0.2285	7.124		0.563618672	0.687555268	0.010849003	0.111927166	0.034497040
2019-11-17T18:55:00	0.2279	7.126		0.561592164	0.684649006	0.010777234	0.111186738	0.034268832
2019-11-17T19:00:00	0.2275	7.126		0.560239498	0.682711000	0.010729464	0.110693902	0.034116936
2019-11-17T19:05:00	0.2275	7.128		0.560236478	0.682706676	0.010729357	0.110692803	0.034116597
2019-11-17T19:10:00	0.2281	7.136		0.562257738	0.685603147	0.010800779	0.111429644	0.034343698
2019-11-17T19:15:00	0.2283	7.145		0.562929219	0.686566128	0.010824559	0.111674979	0.034419313
2019-11-17T19:20:00	0.2284	7.154		0.563263403	0.687045524	0.010836404	0.111797180	0.034456977
2019-11-17T19:25:00	0.2299	7.162		0.568314503	0.694302689	0.011016238	0.113652498	0.035028804
2019-11-17T19:30:00	0.2299	7.170		0.568311490	0.694298354	0.011016130	0.113651387	0.035028461
2019-11-17T19:35:00	0.2293	7.174		0.566287705	0.691388157	0.010943897	0.112906169	0.034798778
2019-11-17T19:40:00	0.2295	7.179		0.566958412	0.692352257	0.010967809	0.113152866	0.034874812
2019-11-17T19:45:00	0.2295	7.183		0.566955398	0.692347924	0.010967702	0.113151757	0.034874470
2019-11-17T19:50:00	0.2291	7.185		0.565604809	0.690406919	0.010919578	0.112655269	0.034721448
2019-11-17T19:55:00	0.2293	7.184		0.566275647	0.691370828	0.010943467	0.112901736	0.034797412
2019-11-17T20:00:00	0.2296	7.188		0.567283169	0.692819209	0.010979397	0.113272416	0.034911659
2019-11-17T20:05:00	0.2290	7.193		0.565258788	0.689909875	0.010907266	0.112528248	0.034682299
2019-11-17T20:10:00	0.2273	7.200		0.559522194	0.681683909	0.010704176	0.110433008	0.034036525
2019-11-17T20:15:00	0.2257	7.209		0.554114230	0.673953994	0.010514495	0.108476109	0.033433390
2019-11-17T20:20:00	0.2230	7.214		0.544971256	0.660940048	0.010197721	0.105208003	0.032426128
2019-11-17T20:25:00	0.2210	7.221		0.538182318	0.651321087	0.009965675	0.102814034	0.031688284
2019-11-17T20:30:00	0.2185	7.226		0.529678118	0.639324928	0.009678803	0.099854423	0.030776103
2019-11-17T20:35:00	0.2155	7.237		0.519445914	0.624969209	0.009339225	0.096351058	0.029696332
2019-11-17T20:40:00	0.2133	7.247		0.511922068	0.614467455	0.009093410	0.093815032	0.028914704
2019-11-17T20:45:00	0.2147	7.258		0.516706875	0.621140766	0.009249356	0.095423902	0.029410573
2019-11-17T20:50:00	0.2141	7.268		0.514652690	0.618273551	0.009182244	0.094731514	0.029197173
2019-11-17T20:55:00	0.2117	7.277		0.506432815	0.606834442	0.008916137	0.091986147	0.028351024
2019-11-17T21:00:00	0.2107	7.291		0.503000238	0.602073665	0.008806170	0.090851633	0.028001356
2019-11-17T21:05:00	0.2105	7.304		0.502310852	0.601118672	0.008784167	0.090624628	0.027931391
2019-11-17T21:10:00	0.2084	7.316		0.495093108	0.591143025	0.008555442	0.088264921	0.027204106
2019-11-17T21:15:00	0.2087	7.329		0.496121635	0.592561995	0.008587852	0.088599285	0.027307160
2019-11-17T21:20:00	0.2129	7.341		0.510528370	0.612527161	0.009048236	0.093348982	0.028771063
2019-11-17T21:25:00	0.2159	7.352		0.520781018	0.626837530	0.009383188	0.096804616	0.029836123
2019-11-17T21:30:00	0.2202	7.362		0.535424688	0.647424670	0.009872189	0.101849558	0.031391023
2019-11-17T21:35:00	0.2240	7.372		0.548313778	0.665689785	0.010312959	0.106396901	0.032792558
2019-11-17T21:40:00	0.2274	7.377		0.559805364	0.682089323	0.010714155	0.110535963	0.034068257
2019-11-17T21:45:00	0.2307	7.382		0.570922755	0.698058345	0.011109690	0.114616622	0.035325956
2019-11-17T21:50:00	0.2309	7.383		0.571592574	0.699023733	0.011133754	0.114864886	0.035402473
2019-11-17T21:55:00	0.2319	7.384		0.574951774	0.703870843	0.011254837	0.116114084	0.035787488
2019-11-17T22:00:00	0.2315	7.384		0.573604269	0.701925358	0.011206186	0.115612154	0.035632789
2019-11-17T22:05:00	0.2314	7.388		0.573169850	0.701298478	0.011190524	0.115450575	0.035582988
2019-11-17T22:10:00	0.2317	7.388		0.574080209	0.702612333	0.011223357	0.115789310	0.035687390
2019-11-17T22:15:00	0.2312	7.395		0.572637149	0.700529988	0.011171334	0.115252598	0.035521970
2019-11-17T22:20:00	0.2324	7.399		0.576572091	0.706212197	0.011313481	0.116719102	0.035973961
2019-11-17T22:25:00	0.2326	7.403		0.577145733	0.707041631	0.011334280	0.116933682	0.036040096
2019-11-17T22:30:00	0.2320	7.410		0.575367932	0.704471982	0.011269885	0.116269322	0.035835334
2019-11-17T22:35:00	0.2329	7.424		0.578292737	0.708700909	0.011375927	0.117363340	0.036172521
2019-11-17T22:40:00	0.2337	7.436		0.580879629	0.712447168	0.011470140	0.118335325	0.036472096
2019-11-17T22:45:00	0.2338	7.452		0.581452568	0.713277632	0.011491060	0.118551152	0.036538616
2019-11-17T22:50:00	0.2345	7.463		0.583701929	0.716540674	0.011573381	0.119400436	0.036800374
2019-11-17T22:55:00	0.2351	7.474		0.585614826	0.719318934	0.011643624	0.120125123	0.037023730
2019-11-17T23:00:00	0.2342	7.482		0.582500213	0.714796878	0.011529364	0.118946322	0.036660412
2019-11-17T23:05:00	0.2352	7.490		0.586089142	0.720008292	0.011661075	0.120305161	0.037079219
2019-11-17T23:10:00	0.2356	7.501		0.587331051	0.721814139	0.011706831	0.120777213	0.037224710
2019-11-17T23:15:00	0.2354	7.507		0.586563393	0.720697744	0.011678537	0.120485313	0.037134744
2019-11-17T23:20:00	0.2356	7.515		0.587470286	0.722016680	0.011711966	0.120830196	0.037241040
2019-11-17T23:25:00	0.2348	7.527		0.584692461	0.717978926	0.011609727	0.119775412	0.036915945
2019-11-17T23:30:00	0.2348	7.535		0.584594567	0.717836747	0.011606132	0.119738326	0.036904515
2019-11-17T23:35:00	0.2346	7.542		0.583826311	0.716721232	0.011577942	0.119447489	0.036814876
2019-11-17T23:40:00	0.2344	7.547		0.583393156	0.716092503	0.011562063	0.119283670	0.036764386
2019-11-17T23:45:00	0.2336	7.555		0.580612107	0.712059493	0.011460379	0.118234618	0.036441057
2019-11-17T23:50:00	0.2331	7.561		0.578836061	0.709487275	0.011395682	0.117567146	0.036235336
2019-11-17T23:55:00	0.2330	7.570		0.578738004	0.709345336	0.011392115	0.117530350	0.036223995
2019-11-18T00:00:00	0.2326	7.580		0.577296860	0.707260192	0.011339763	0.116990247	0.036057530
2019-11-18T00:05:00	0.2312	7.592		0.572493782	0.700323202	0.011166173	0.115199345	0.035505557
2019-11-18T00:10:00	0.2306	7.599		0.570377135	0.697272234	0.011090107	0.114414593	0.035263689
2019-11-18T00:15:00	0.2302	7.602		0.569269169	0.695676672	0.011050396	0.114004903	0.035137418
2019-11-18T00:20:00	0.2310	7.602		0.571862728	0.699413203	0.011143467	0.114965094	0.035433359
2019-11-18T00:25:00	0.2316	7.604		0.573782088	0.702182001	0.011212600	0.115678326	0.035653184
2019-11-18T00:30:00	0.2323	7.607		0.576372308	0.705923394	0.011306242	0.116644417	0.035950942
2019-11-18T00:35:00	0.2323	7.614		0.576274181	0.705781555	0.011302688	0.116607744	0.035939639
2019-11-18T00:40:00	0.2320	7.622		0.575168080	0.704183279	0.011262657	0.116194759	0.035812353
2019-11-18T00:45:00	0.2305	7.627		0.570362080	0.697250547	0.011089567	0.114409022	0.035261972
2019-11-18T00:50:00	0.2312	7.633		0.572618562	0.700503178	0.011170665	0.115245693	0.035519842
2019-11-18T00:55:00	0.2313	7.638		0.572856607	0.700846556	0.011179238	0.115334138	0.035547101
2019-11-18T01:00:00	0.2313	7.641		0.572758382	0.700704862	0.011175700	0.115297638	0.035535852
2019-11-18T01:05:00	0.2316	7.644		0.574005015	0.702503785	0.011220644	0.115761311	0.035678760
2019-11-18T01:10:00	0.2309	7.646		0.571552912	0.698966559	0.011132328	0.114850178	0.035397940
2019-11-18T01:15:00	0.2329	7.649		0.578176106	0.708532139	0.011371689	0.117319614	0.036159045
2019-11-18T01:20:00	0.2324	7.655		0.576734732	0.706447333	0.011319376	0.116779920	0.035992705
2019-11-18T01:25:00	0.2312	7.660		0.572603517	0.700481477	0.011170123	0.115240104	0.035518119
2019-11-18T01:30:00	0.2307	7.662		0.570823409	0.697915192	0.011106123	0.114579823	0.035314614
2019-11-18T01:35:00	0.2315	7.662		0.573415817	0.701653396	0.011199390	0.115542047	0.035611181
2019-11-18T01:40:00	0.2315	7.665		0.573653808	0.701996854	0.011207973	0.115630587	0.035638470
2019-11-18T01:45:00	0.2316	7.668		0.573891783	0.702340335	0.011216558	0.115719157	0.035665768
2019-11-18T01:50:00	0.2315	7.671		0.573457400	0.701713403	0.011200890	0.115557514	0.035615948
2019-11-18T01:55:00	0.2316	7.675		0.574031552	0.702542093	0.011221601	0.115771192	0.035681806
2019-11-18T02:00:00	0.2328	7.681		0.577964929	0.708226585	0.011364017	0.117240464	0.036134650
2019-11-18T02:05:00	0.2326	7.684		0.577195222	0.707113200	0.011336076	0.116952203	0.036045805
2019-11-18T02:10:00	0.2333	7.686		0.579447310	0.710372241	0.011417927	0.117796647	0.036306071
2019-11-18T02:15:00	0.2340	7.688		0.582033353	0.714119746	0.011512287	0.118770140	0.036606111
2019-11-18T02:20:00	0.2339	7.690		0.581599977	0.713491342	0.011496446	0.118606714	0.036555741
2019-11-18T02:25:00	0.2328	7.691		0.577810294	0.708002865	0.011358400	0.117182523	0.036116792
2019-11-18T02:30:00	0.2332	7.692		0.579390782	0.710290387	0.011415869	0.117775413	0.036299526
2019-11-18T02:35:00	0.2336	7.694		0.580635060	0.712092752	0.011461216	0.118243256	0.036443720
2019-11-18T02:40:00	0.2339	7.696		0.581543484	0.713409437	0.011494382	0.118585419	0.036549178
2019-11-18T02:45:00	0.2337	7.698		0.581110047	0.712781121	0.011478551	0.118422100	0.036498841
2019-11-18T02:50:00	0.2330	7.702		0.578662909	0.709236641	0.011389384	0.117502175	0.036215312
2019-11-18T02:55:00	0.2332	7.704		0.579236210	0.710066575	0.011410242	0.117717361	0.036281634
2019-11-18T03:00:00	0.2332	7.707		0.579138164	0.709924620	0.011406673	0.117680545	0.036270287
2019-11-18T03:05:00	0.2327	7.707		0.577697185	0.707839235	0.011354293	0.117140151	0.036103732
2019-11-18T03:10:00	0.2324	7.708		0.576591532	0.706240303	0.011314186	0.116726371	0.035976201
2019-11-18T03:15:00	0.2336	7.709		0.580522042	0.711928989	0.011457094	0.118200723	0.036430611
2019-11-18T03:20:00	0.2339	7.710		0.581765918	0.713731942	0.011502510	0.118669277	0.036575024
2019-11-18T03:25:00	0.2338	7.711		0.581332509	0.713103586	0.011486675	0.118505909	0.036524672
2019-11-18T03:30:00	0.2344	7.713		0.583246696	0.715879950	0.011556696	0.119228305	0.036747321
2019-11-18T03:35:00	0.2346	7.714		0.583819249	0.716710980	0.011577683	0.119444817	0.036814053
2019-11-18T03:40:00	0.2347	7.718		0.584391709	0.717542148	0.011598685	0.119661495	0.036880835
2019-11-18T03:45:00	0.2359	7.720		0.588313509	0.723243631	0.011743092	0.121151318	0.037340013
2019-11-18T03:50:00	0.2354	7.724		0.586541351	0.720665696	0.011677725	0.120476937	0.037132162
2019-11-18T03:55:00	0.2353	7.724		0.586443508	0.720523441	0.011674122	0.120439760	0.037120704
2019-11-18T04:00:00	0.2351	7.724		0.585675656	0.719407332	0.011645861	0.120148205	0.037030844
2019-11-18T04:05:00	0.2345	7.725		0.583581947	0.716366515	0.011568982	0.119355056	0.036786388
2019-11-18T04:10:00	0.2337	7.725		0.580816057	0.712355037	0.011467820	0.118311389	0.036464719
2019-11-18T04:15:00	0.2340	7.725		0.582074834	0.714179903	0.011513804	0.118785789	0.036610934
2019-11-18T04:20:00	0.2336	7.724		0.580650071	0.712114503	0.011461764	0.118248906	0.036445461
2019-11-18T04:25:00	0.2337	7.724		0.580902581	0.712480430	0.011470978	0.118343967	0.036474760
2019-11-18T04:30:00	0.2328	7.724		0.577798808	0.707986249	0.011357983	0.117178220	0.036115465
2019-11-18T04:35:00	0.2315	7.725		0.573683889	0.702040268	0.011209058	0.115641781	0.035641920
2019-11-18T04:40:00	0.2309	7.725		0.571583010	0.699009947	0.011133410	0.114861339	0.035401380
2019-11-18T04:45:00	0.2316	7.725		0.573853746	0.702285431	0.011215185	0.115704998	0.035661404
2019-11-18T04:50:00	0.2321	7.726		0.575451051	0.704592065	0.011272891	0.116300340	0.035844894
2019-11-18T04:55:00	0.2322	7.727		0.576039907	0.705442953	0.011294203	0.116520210	0.035912660
2019-11-18T05:00:00	0.2327	7.728		0.577636217	0.707751040	0.011352080	0.117117314	0.036096694
2019-11-18T05:05:00	0.2318	7.732		0.574529552	0.703261090	0.011239582	0.115956692	0.035738979
2019-11-18T05:10:00	0.2312	7.734		0.572429181	0.700230030	0.011163847	0.115175354	0.035498163
2019-11-18T05:15:00	0.2312	7.737		0.572682284	0.700595091	0.011172960	0.115269365	0.035527138
2019-11-18T05:20:00	0.2302	7.739		0.569234627	0.695626946	0.011049160	0.113992142	0.035133485
2019-11-18T05:25:00	0.2298	7.739		0.567804633	0.693569178	0.010998017	0.113464513	0.034970865
2019-11-18T05:30:00	0.2298	7.739		0.567721333	0.693449360	0.010995041	0.113433815	0.034961404
2019-11-18T05:35:00	0.2300	7.739		0.568648172	0.694782829	0.011028171	0.113775605	0.035066746
2019-11-18T05:40:00	0.2295	7.739		0.566881119	0.692241134	0.010965052	0.113124423	0.034866046
2019-11-18T05:45:00	0.2293	7.738		0.566124043	0.691152961	0.010938066	0.112846013	0.034780237
2019-11-18T05:50:00	0.2289	7.738		0.564692776	0.689097037	0.010887141	0.112320626	0.034618308
2019-11-18T05:55:00	0.2286	7.739		0.563935226	0.688009550	0.010860236	0.112043051	0.034532757
2019-11-18T06:00:00	0.2284	7.739		0.563177512	0.686922301	0.010833359	0.111765766	0.034447294
2019-11-18T06:05:00	0.2285	7.739		0.563431285	0.687286389	0.010842357	0.111858595	0.034475905
2019-11-18T06:10:00	0.2290	7.738		0.565033356	0.689586106	0.010899248	0.112445533	0.034656805
2019-11-18T06:15:00	0.2293	7.737		0.566297817	0.691402690	0.010944257	0.112909886	0.034799923
2019-11-18T06:20:00	0.2303	7.738		0.569581856	0.696126865	0.011061596	0.114120449	0.035173031
2019-11-18T06:25:00	0.2297	7.738		0.567478513	0.693100126	0.010986370	0.113344357	0.034933832
2019-11-18T06:30:00	0.2292	7.738		0.565710868	0.690559287	0.010923353	0.112694217	0.034733452
2019-11-18T06:35:00	0.2290	7.738		0.565290544	0.689955488	0.010908395	0.112539902	0.034685891
2019-11-18T06:40:00	0.2293	7.739		0.566218028	0.691288023	0.010941414	0.112880556	0.034790884
2019-11-18T06:45:00	0.2292	7.739		0.565797766	0.690684135	0.010926446	0.112726134	0.034743289
2019-11-18T06:50:00	0.2300	7.740		0.568408963	0.694438605	0.011019616	0.113687342	0.035039543
2019-11-18T06:55:00	0.2285	7.741		0.563608744	0.687541021	0.010848651	0.111923532	0.034495920
2019-11-18T07:00:00	0.2283	7.744		0.562850959	0.686453874	0.010821786	0.111646371	0.034410496
2019-11-18T07:05:00	0.2276	7.746		0.560406111	0.682949631	0.010735342	0.110754546	0.034135627
2019-11-18T07:10:00	0.2273	7.747		0.559310079	0.681380267	0.010696703	0.110355918	0.034012766
2019-11-18T07:15:00	0.2272	7.747		0.559226575	0.681260742	0.010693763	0.110325577	0.034003414
2019-11-18T07:20:00	0.2276	7.750		0.560493141	0.683074288	0.010738413	0.110786230	0.034145392
2019-11-18T07:25:00	0.2277	7.752		0.560747110	0.683438095	0.010747378	0.110878717	0.034173897
2019-11-18T07:30:00	0.2285	7.753		0.563362086	0.687187105	0.010839903	0.111833279	0.034468103
2019-11-18T07:35:00	0.2279	7.754		0.561592355	0.684649280	0.010777241	0.111186807	0.034268854
2019-11-18T07:40:00	0.2280	7.756		0.561846244	0.685013203	0.010786219	0.111279434	0.034297402
2019-11-18T07:45:00	0.2278	7.758		0.561088076	0.683926608	0.010759419	0.111002946	0.034212186
2019-11-18T07:50:00	0.2278	7.759		0.561004615	0.683807021	0.010756471	0.110972531	0.034202812
2019-11-18T07:55:00	0.2286	7.761		0.563956532	0.688040130	0.010860992	0.112050853	0.034535161
2019-11-18T08:00:00	0.2280	7.761		0.561849797	0.685018296	0.010786345	0.111280731	0.034297802
2019-11-18T08:05:00	0.2277	7.763		0.560754219	0.683448279	0.010747629	0.110881306	0.034174695
2019-11-18T08:10:00	0.2275	7.764		0.559995813	0.682362026	0.010720870	0.110605235	0.034089608
2019-11-18T08:15:00	0.2266	7.765		0.557211208	0.678377739	0.010622909	0.109594593	0.033778118
2019-11-18T08:20:00	0.2264	7.767		0.556452030	0.677292595	0.010596281	0.109319875	0.033693447
2019-11-18T08:25:00	0.2262	7.768		0.555692687	0.676207689	0.010569681	0.109045447	0.033608866
2019-11-18T08:30:00	0.2253	7.770		0.552566430	0.671746061	0.010460524	0.107919296	0.033261775
2019-11-18T08:35:00	0.2253	7.771		0.552820978	0.672109038	0.010469390	0.108010769	0.033289968
2019-11-18T08:40:00	0.2245	7.772		0.550030622	0.668132986	0.010372405	0.107010191	0.032981580
2019-11-18T08:45:00	0.2245	7.772		0.549946895	0.668013780	0.010369502	0.106980240	0.032972349
2019-11-18T08:50:00	0.2241	7.775		0.548508961	0.665967424	0.010319709	0.106466534	0.032814020
2019-11-18T08:55:00	0.2239	7.775		0.548086555	0.665366611	0.010305105	0.106315866	0.032767582
2019-11-18T09:00:00	0.2238	7.778		0.547664098	0.664765871	0.010290509	0.106165288	0.032721173
2019-11-18T09:05:00	0.2246	7.781		0.550288920	0.668500774	0.010381364	0.107102614	0.033010066
2019-11-18T09:10:00	0.2249	7.786		0.551220407	0.669827561	0.010413703	0.107436252	0.033112896
2019-11-18T09:15:00	0.2243	7.789		0.549444491	0.667298605	0.010352091	0.106800613	0.032916986
2019-11-18T09:20:00	0.2246	7.795		0.550376204	0.668625069	0.010384392	0.107133855	0.033019695
2019-11-18T09:25:00	0.2247	7.801		0.550630912	0.668987816	0.010393231	0.107225047	0.033047801
2019-11-18T09:30:00	0.2239	7.809		0.547838795	0.665014275	0.010296544	0.106227543	0.032740360
2019-11-18T09:35:00	0.2231	7.821		0.545044430	0.661043931	0.010200236	0.105233958	0.032434128
2019-11-18T09:40:00	0.2223	7.840		0.542587023	0.657557635	0.010115920	0.104364086	0.032166025
2019-11-18T09:45:00	0.2240	7.866		0.548264798	0.665620118	0.010311266	0.106379430	0.032787174
2019-11-18T09:50:00	0.2249	7.881		0.551227535	0.669837717	0.010413950	0.107438807	0.033113684
2019-11-18T09:55:00	0.2257	7.887		0.553849667	0.673576457	0.010505260	0.108380831	0.033404025
2019-11-18T10:00:00	0.2265	7.886		0.556807650	0.677800847	0.010608750	0.109448517	0.033733096
2019-11-18T10:05:00	0.2273	7.885		0.559431623	0.681554251	0.010700985	0.110400088	0.034026379
2019-11-18T10:10:00	0.2279	7.885		0.561378952	0.684343431	0.010769697	0.111108981	0.034244867
2019-11-18T10:15:00	0.2276	7.885		0.560289265	0.682782276	0.010731220	0.110712014	0.034122518
2019-11-18T10:20:00	0.2281	7.883		0.562236116	0.685572145	0.010800014	0.111421748	0.034341265
2019-11-18T10:25:00	0.2276	7.881		0.560471852	0.683043794	0.010737662	0.110778479	0.034143003
2019-11-18T10:30:00	0.2271	7.882		0.558706696	0.680516729	0.010675462	0.110136778	0.033945225
2019-11-18T10:35:00	0.2262	7.885		0.555589194	0.676059860	0.010566058	0.109008071	0.033597346
2019-11-18T10:40:00	0.2265	7.886		0.556863128	0.677880147	0.010610696	0.109468593	0.033739283
2019-11-18T10:45:00	0.2264	7.888		0.556447783	0.677286525	0.010596132	0.109318339	0.033692974
2019-11-18T10:50:00	0.2262	7.886		0.555694486	0.676210258	0.010569744	0.109046097	0.033609066
2019-11-18T10:55:00	0.2264	7.882		0.556292728	0.677064954	0.010590698	0.109262274	0.033675694
2019-11-18T11:00:00	0.2267	7.876		0.557228653	0.678402680	0.010623521	0.109600910	0.033780065
2019-11-18T11:05:00	0.2266	7.871		0.557151144	0.678291868	0.010620801	0.109572846	0.033771415
2019-11-18T11:10:00	0.2260	7.869		0.555046338	0.675284595	0.010547066	0.108812131	0.033536956
2019-11-18T11:15:00	0.2259	7.867		0.554630776	0.674691284	0.010532538	0.108662257	0.033490763
2019-11-18T11:20:00	0.2248	7.864		0.550832903	0.669275522	0.010400243	0.107297393	0.033070099
2019-11-18T11:25:00	0.2227	7.862		0.543980678	0.659534191	0.010163695	0.104856963	0.032317934
2019-11-18T11:30:00	0.2225	7.864		0.543224672	0.658461785	0.010137765	0.104589450	0.032235484
2019-11-18T11:35:00	0.2220	7.865		0.541450728	0.655947256	0.010077053	0.103963093	0.032042435
2019-11-18T11:40:00	0.2223	7.867		0.542390661	0.657279272	0.010109198	0.104294735	0.032144650
2019-11-18T11:45:00	0.2222	7.870		0.542312820	0.657168933	0.010106534	0.104267249	0.032136179
2019-11-18T11:50:00	0.2226	7.872		0.543591634	0.658982268	0.010150347	0.104719257	0.032275492
2019-11-18T11:55:00	0.2221	7.870		0.541817878	0.656467473	0.010089603	0.104092573	0.032082342
2019-11-18T12:00:00	0.2205	7.867		0.536307296	0.648671084	0.009902062	0.102157750	0.031486011
2019-11-18T12:05:00	0.2198	7.863		0.533849759	0.645202144	0.009818997	0.101300786	0.031221886
2019-11-18T12:10:00	0.2201	7.861		0.535131705	0.647011062	0.009862283	0.101747358	0.031359524
2019-11-18T12:15:00	0.2192	7.859		0.531992923	0.642584391	0.009756470	0.100655703	0.031023065
2019-11-18T12:20:00	0.2191	7.855		0.531574586	0.641995010	0.009742411	0.100510655	0.030978360
2019-11-18T12:25:00	0.2199	7.853		0.534217717	0.645721223	0.009831412	0.101428865	0.031261361
2019-11-18T12:30:00	0.2186	7.851		0.530056970	0.639858090	0.009691493	0.099985344	0.030816454
2019-11-18T12:35:00	0.2187	7.849		0.530319270	0.640227294	0.009700284	0.100076038	0.030844407
2019-11-18T12:40:00	0.2178	7.847		0.527176104	0.635806762	0.009595205	0.098991962	0.030510284
2019-11-18T12:45:00	0.2188	7.843		0.530503443	0.640486562	0.009706458	0.100139743	0.030864041
2019-11-18T12:50:00	0.2189	7.843		0.531106050	0.641335075	0.009726676	0.100348327	0.030928329
2019-11-18T12:55:00	0.2193	7.848		0.532389015	0.643142563	0.009769791	0.100793135	0.031065423
2019-11-18T13:00:00	0.2189	7.853		0.530949857	0.641115116	0.009721434	0.100294242	0.030911659
2019-11-18T13:05:00	0.2186	7.857		0.529850563	0.639567597	0.009684578	0.099914004	0.030794467
2019-11-18T13:10:00	0.2181	7.855		0.528069737	0.637062745	0.009625021	0.099299571	0.030605092
2019-11-18T13:15:00	0.2187	7.852		0.530375174	0.640305990	0.009702158	0.100095373	0.030850366
2019-11-18T13:20:00	0.2192	7.849		0.531998665	0.642592482	0.009756663	0.100657695	0.031023679
2019-11-18T13:25:00	0.2203	7.853		0.535661250	0.647758679	0.009880192	0.101932116	0.031416468
2019-11-18T13:30:00	0.2210	7.857		0.537961624	0.651009027	0.009958177	0.102736678	0.031664442
2019-11-18T13:35:00	0.2222	7.848		0.542296414	0.657145678	0.010105973	0.104261457	0.032134394
2019-11-18T13:40:00	0.2229	7.842		0.544592383	0.660402246	0.010184700	0.105073669	0.032384725
2019-11-18T13:45:00	0.2237	7.835		0.547225591	0.664142462	0.010275370	0.106009103	0.032673035
2019-11-18T13:50:00	0.2231	7.817		0.545114762	0.661143783	0.010202655	0.105258908	0.032441818
2019-11-18T13:55:00	0.2224	7.789		0.543002647	0.658146929	0.010130156	0.104510952	0.032211290
2019-11-18T14:00:00	0.2209	7.757		0.537833632	0.650828066	0.009953830	0.102691829	0.031650619
2019-11-18T14:05:00	0.2193	7.726		0.532316690	0.643040633	0.009767358	0.100768034	0.031057687
2019-11-18T14:10:00	0.2191	7.697		0.531558129	0.641971828	0.009741858	0.100504951	0.030976602
2019-11-18T14:15:00	0.2197	7.671		0.533521167	0.644738693	0.009807918	0.101186479	0.031186655
2019-11-18T14:20:00	0.2189	7.648		0.531061644	0.641272539	0.009725186	0.100332949	0.030923589
2019-11-18T14:25:00	0.2187	7.621		0.530302807	0.640204120	0.009699732	0.100070344	0.030842652
2019-11-18T14:30:00	0.2189	7.593		0.530905449	0.641052583	0.009719944	0.100278868	0.030906921
2019-11-18T14:35:00	0.2188	7.562		0.530486980	0.640463387	0.009705906	0.100134048	0.030862286
2019-11-18T14:40:00	0.2189	7.529		0.531089591	0.641311895	0.009726124	0.100342627	0.030926572
2019-11-18T14:45:00	0.2196	7.496		0.533393011	0.644557964	0.009803598	0.101141915	0.031172920
2019-11-18T14:50:00	0.2188	7.461		0.530593039	0.640612701	0.009709463	0.100170742	0.030873595
2019-11-18T14:55:00	0.2187	7.428		0.530174532	0.640023558	0.009695432	0.100025987	0.030828981
2019-11-18T15:00:00	0.2191	7.397		0.531798117	0.642309917	0.009749922	0.100588146	0.031002243
2019-11-18T15:05:00	0.2200	7.366		0.534781056	0.646516138	0.009850434	0.101625109	0.031321846
2019-11-18T15:10:00	0.2199	7.332		0.534363057	0.645926283	0.009836318	0.101479477	0.031276960
2019-11-18T15:15:00	0.2200	7.301		0.534625029	0.646295946	0.009845163	0.101570737	0.031305087
2019-11-18T15:20:00	0.2202	7.269		0.535226917	0.647145467	0.009865502	0.101780565	0.031369759
2019-11-18T15:25:00	0.2198	7.240		0.534128986	0.645596039	0.009828417	0.101397972	0.031251840
2019-11-18T15:30:00	0.2200	7.209		0.534730960	0.646445439	0.009848741	0.101607650	0.031316465
2019-11-18T15:35:00	0.2217	7.179		0.540427697	0.654498300	0.010042124	0.103602738	0.031931370
2019-11-18T15:40:00	0.2228	7.148		0.544081369	0.659677058	0.010167151	0.104892619	0.032328924
2019-11-18T15:45:00	0.2222	7.115		0.542307864	0.657161907	0.010106365	0.104265500	0.032135640
2019-11-18T15:50:00	0.2223	7.083		0.542569235	0.657532418	0.010115311	0.104357802	0.032164088
2019-11-18T15:55:00	0.2226	7.053		0.543508865	0.658864863	0.010147508	0.104689971	0.032266466
2019-11-18T16:00:00	0.2238	7.022		0.547498025	0.664529752	0.010284775	0.106106123	0.032702938
2019-11-18T16:05:00	0.2242	6.993		0.548957584	0.666605687	0.010335231	0.106626672	0.032863376
2019-11-18T16:10:00	0.2241	6.963		0.548723960	0.666273286	0.010327146	0.106543264	0.032837669
2019-11-18T16:15:00	0.2243	6.934		0.549167494	0.666904386	0.010342498	0.106701642	0.032886482
2019-11-18T16:20:00	0.2254	6.906		0.552994420	0.672356391	0.010475434	0.108073118	0.033309185
2019-11-18T16:25:00	0.2245	6.879		0.550054390	0.668166827	0.010373229	0.107018694	0.032984201
2019-11-18T16:30:00	0.2250	6.851		0.551512875	0.670244292	0.010423867	0.107541116	0.033145216
2019-11-18T16:35:00	0.2245	6.824		0.549925771	0.667983706	0.010368770	0.106972685	0.032970020
2019-11-18T16:40:00	0.2247	6.797		0.550707570	0.669097001	0.010395892	0.107252501	0.033056262
2019-11-18T16:45:00	0.2253	6.772		0.552504026	0.671657083	0.010458351	0.107896877	0.033254865
2019-11-18T16:50:00	0.2254	6.747		0.552947077	0.672288870	0.010473784	0.108056097	0.033303939
2019-11-18T16:55:00	0.2251	6.724		0.552037241	0.670991624	0.010442103	0.107729256	0.033203203
2019-11-18T17:00:00	0.2248	6.700		0.551127166	0.669694719	0.010410463	0.107402832	0.033102596
2019-11-18T17:05:00	0.2262	6.676		0.555627851	0.676115076	0.010567411	0.109022031	0.033601649
2019-11-18T17:10:00	0.2257	6.653		0.554042625	0.673851807	0.010511995	0.108450318	0.033425441
2019-11-18T17:15:00	0.2251	6.629		0.552118427	0.671107352	0.010444928	0.107758401	0.033212186
2019-11-18T17:20:00	0.2245	6.603		0.549854693	0.667882515	0.010366306	0.106947264	0.032962185
2019-11-18T17:25:00	0.2244	6.578		0.549621130	0.667550029	0.010358211	0.106863750	0.032936446
2019-11-18T17:30:00	0.2241	6.553		0.548710423	0.666254026	0.010326678	0.106538431	0.032836179
2019-11-18T17:35:00	0.2235	6.527		0.546444465	0.663032357	0.010248431	0.105731174	0.032587375
2019-11-18T17:40:00	0.2234	6.502		0.546210673	0.662700197	0.010240375	0.105648062	0.032561759
2019-11-18T17:45:00	0.2231	6.474		0.545299069	0.661405468	0.010208993	0.105324304	0.032461973
2019-11-18T17:50:00	0.2234	6.451		0.546081911	0.662517279	0.010235940	0.105602301	0.032547655
2019-11-18T17:55:00	0.2247	6.427		0.550589133	0.668928312	0.010391781	0.107210087	0.033043190
2019-11-18T18:00:00	0.2261	6.402		0.555428474	0.675830307	0.010560433	0.108950042	0.033579461
2019-11-18T18:05:00	0.2260	6.376		0.555195286	0.675497286	0.010552275	0.108865875	0.033553520
2019-11-18T18:10:00	0.2260	6.350		0.554962081	0.675164287	0.010544119	0.108781735	0.033527587
2019-11-18T18:15:00	0.2269	6.323		0.558107338	0.679659250	0.010654384	0.109919320	0.033878202
2019-11-18T18:20:00	0.2271	6.298		0.558887301	0.680775173	0.010681818	0.110202348	0.033965434
2019-11-18T18:25:00	0.2274	6.275		0.559667089	0.681891346	0.010709281	0.110485683	0.034052760
2019-11-18T18:30:00	0.2276	6.252		0.560446703	0.683007771	0.010736775	0.110769323	0.034140181
2019-11-18T18:35:00	0.2269	6.230		0.558188383	0.679775180	0.010657233	0.109948712	0.033887261
2019-11-18T18:40:00	0.2266	6.206		0.556942136	0.677993082	0.010613467	0.109497186	0.033748096
2019-11-18T18:45:00	0.2263	6.185		0.556033344	0.676694342	0.010581610	0.109168518	0.033646797
2019-11-18T18:50:00	0.2261	6.165		0.555462272	0.675878578	0.010561616	0.108962244	0.033583222
2019-11-18T18:55:00	0.2263	6.144		0.555904946	0.676510905	0.010577113	0.109122123	0.033632498
2019-11-18T19:00:00	0.2271	6.123		0.558711743	0.680523952	0.010675640	0.110138611	0.033945789
2019-11-18T19:05:00	0.2279	6.103		0.561516281	0.684540246	0.010774551	0.111159060	0.034260302
2019-11-18T19:10:00	0.2280	6.084		0.561620859	0.684690135	0.010778249	0.111197204	0.034272058
2019-11-18T19:15:00	0.2278	6.065		0.561050702	0.683873056	0.010758099	0.110989326	0.034207988
2019-11-18T19:20:00	0.2282	6.047		0.562504588	0.685957115	0.010809518	0.111519802	0.034371486
2019-11-18T19:25:00	0.2274	6.030		0.559910109	0.682239302	0.010717848	0.110574059	0.034079999
2019-11-18T19:30:00	0.2271	6.013		0.558664478	0.680456320	0.010673977	0.110121454	0.033940502
2019-11-18T19:35:00	0.2269	5.995		0.558093837	0.679639937	0.010653910	0.109914424	0.033876693
2019-11-18T19:40:00	0.2273	5.977		0.559548956	0.681722221	0.010705119	0.110442736	0.034039524
2019-11-18T19:45:00	0.2283	5.957		0.562690077	0.686223128	0.010816087	0.111587574	0.034392374
2019-11-18T19:50:00	0.2279	5.934		0.561445439	0.684438716	0.010772047	0.111133225	0.034252339
2019-11-18T19:55:00	0.2282	5.910		0.562561924	0.686039339	0.010811548	0.111540749	0.034377942
2019-11-18T20:00:00	0.2278	5.888		0.560979851	0.683771540	0.010755597	0.110963507	0.034200031
2019-11-18T20:05:00	0.2266	5.867		0.557033347	0.678123467	0.010616667	0.109530200	0.033758272
2019-11-18T20:10:00	0.2263	5.846		0.556124579	0.676824692	0.010584806	0.109201491	0.033656960
2019-11-18T20:15:00	0.2276	5.829		0.560281353	0.682770944	0.010730940	0.110709135	0.034121630
2019-11-18T20:20:00	0.2279	5.810		0.561398211	0.684371030	0.010770378	0.111116003	0.034247031
2019-11-18T20:25:00	0.2287	5.791		0.564200589	0.688390434	0.010869657	0.112140244	0.034562712
2019-11-18T20:30:00	0.2288	5.772		0.564642155	0.689024355	0.010885342	0.112302067	0.034612588
2019-11-18T20:35:00	0.2285	5.752		0.563398213	0.687238939	0.010841184	0.111846496	0.034472176
2019-11-18T20:40:00	0.2288	5.732		0.564514074	0.688840463	0.010880791	0.112255116	0.034598117
2019-11-18T20:45:00	0.2284	5.712		0.563270087	0.687055112	0.010836641	0.111799625	0.034457730
2019-11-18T20:50:00	0.2286	5.694		0.563711770	0.687688863	0.010852306	0.111961241	0.034507542
2019-11-18T20:55:00	0.2285	5.673		0.563479135	0.687355046	0.010844054	0.111876103	0.034481301
2019-11-18T21:00:00	0.2282	5.653		0.562572047	0.686053855	0.010811907	0.111544447	0.034379082
2019-11-18T21:05:00	0.2280	5.634		0.561664722	0.684753005	0.010779800	0.111213205	0.034276990
2019-11-18T21:10:00	0.2278	5.616		0.561094573	0.683935916	0.010759649	0.111005314	0.034212916
2019-11-18T21:15:00	0.2281	5.597		0.562211170	0.685536377	0.010799131	0.111412640	0.034338458
2019-11-18T21:20:00	0.2283	5.578		0.562652988	0.686169935	0.010814773	0.111574021	0.034388197
2019-11-18T21:25:00	0.2283	5.560		0.562757532	0.686319873	0.010818476	0.111612225	0.034399972
2019-11-18T21:30:00	0.2287	5.541		0.564210707	0.688404958	0.010870016	0.112143950	0.034563855
2019-11-18T21:35:00	0.2295	5.523		0.566673990	0.691943373	0.010957666	0.113048218	0.034842559
2019-11-18T21:40:00	0.2299	5.505		0.568125537	0.694030813	0.011009483	0.113582809	0.035007325
2019-11-18T21:45:00	0.2288	5.488		0.564524191	0.688854988	0.010881151	0.112258825	0.034599260
2019-11-18T21:50:00	0.2294	5.472		0.566650411	0.691909480	0.010956825	0.113039544	0.034839885
2019-11-18T21:55:00	0.2298	5.455		0.567765234	0.693512506	0.010996609	0.113449993	0.034966390
2019-11-18T22:00:00	0.2305	5.439		0.570226014	0.697054547	0.011084687	0.114358670	0.035246453
2019-11-18T22:05:00	0.2312	5.422		0.572443998	0.700251400	0.011164381	0.115180856	0.035499858
2019-11-18T22:10:00	0.2329	5.404		0.578355595	0.708791872	0.011378211	0.117386909	0.036179786
2019-11-18T22:15:00	0.2340	5.388		0.581910275	0.713941264	0.011507787	0.118723716	0.036591802
2019-11-18T22:20:00	0.2325	5.371		0.577074979	0.706939312	0.011331714	0.116907204	0.036031936
2019-11-18T22:25:00	0.2319	5.355		0.574922541	0.703828622	0.011253781	0.116103183	0.035784129
2019-11-18T22:30:00	0.2324	5.337		0.576465790	0.706058526	0.011309629	0.116679360	0.035961712
2019-11-18T22:35:00	0.2312	5.322		0.572631969	0.700522516	0.011171148	0.115250673	0.035521377
2019-11-18T22:40:00	0.2315	5.309		0.573503894	0.701780500	0.011202566	0.115574810	0.035621279
2019-11-18T22:45:00	0.2315	5.296		0.573703308	0.702068296	0.011209758	0.115649007	0.035644147
2019-11-18T22:50:00	0.2335	5.284		0.580283946	0.711584025	0.011448411	0.118111143	0.036403001
2019-11-18T22:55:00	0.2324	5.272		0.576454300	0.706041916	0.011309213	0.116675065	0.035960388
2019-11-18T23:00:00	0.2319	5.261		0.574973660	0.703902454	0.011255629	0.116122245	0.035790004
2019-11-18T23:05:00	0.2312	5.251		0.572483650	0.700308589	0.011165808	0.115195582	0.035504397
2019-11-18T23:10:00	0.2310	5.243		0.572010502	0.699626268	0.011148782	0.115019927	0.035450259
2019-11-18T23:15:00	0.2301	5.233		0.568845155	0.695066326	0.011035218	0.113848314	0.035089156
2019-11-18T23:20:00	0.2296	5.225		0.567024487	0.692447256	0.010970166	0.113177185	0.034882308
2019-11-18T23:25:00	0.2285	5.217		0.563517476	0.687410060	0.010845414	0.111890133	0.034485626
2019-11-18T23:30:00	0.2275	5.212		0.560006937	0.682377955	0.010721262	0.110609282	0.034090855
2019-11-18T23:35:00	0.2259	5.211		0.554803247	0.674937509	0.010538566	0.108724447	0.033509930
2019-11-18T23:40:00	0.2251	5.213		0.551960535	0.670882289	0.010439435	0.107701724	0.033194717
2019-11-18T23:45:00	0.2240	5.217		0.548099674	0.665385267	0.010305558	0.106320544	0.032769024
2019-11-18T23:50:00	0.2216	5.221		0.540163703	0.654124535	0.010033120	0.103509851	0.031902741
2019-11-18T23:55:00	0.2201	5.226		0.534930145	0.646726558	0.009855471	0.101677078	0.031337863
2019-11-19T00:00:00	0.2195	5.227		0.533091612	0.644132975	0.009793443	0.101037148	0.031140630
2019-11-19T00:05:00	0.2177	5.228		0.526825224	0.635313785	0.009583511	0.098871312	0.030473099
2019-11-19T00:10:00	0.2166	5.229		0.523277290	0.630334649	0.009465664	0.097655510	0.030098377
2019-11-19T00:15:00	0.2183	5.230		0.528932553	0.638276031	0.009653854	0.099597028	0.030696771
2019-11-19T00:20:00	0.2192	5.231		0.531857620	0.642393751	0.009751922	0.100608779	0.031008603
2019-11-19T00:25:00	0.2191	5.235		0.531719189	0.642198720	0.009747269	0.100560781	0.030993809
2019-11-19T00:30:00	0.2208	5.239		0.537360635	0.650159434	0.009937773	0.102526173	0.031599562
2019-11-19T00:35:00	0.2234	5.240		0.546382795	0.662944734	0.010246306	0.105709247	0.032580617
2019-11-19T00:40:00	0.2225	5.234		0.543194058	0.658418369	0.010136715	0.104578624	0.032232148
2019-11-19T00:45:00	0.2192	5.221		0.531845981	0.642377353	0.009751531	0.100604743	0.031007359
2019-11-19T00:50:00	0.2181	5.203		0.528303217	0.637391003	0.009632819	0.099380020	0.030629887
2019-11-19T00:55:00	0.2182	5.181		0.528505242	0.637675073	0.009639569	0.099449656	0.030651350
2019-11-19T01:00:00	0.2189	5.162		0.531090362	0.641312981	0.009726150	0.100342894	0.030926654
2019-11-19T01:05:00	0.2214	5.148		0.539449930	0.653114254	0.010008797	0.103258918	0.031825401
2019-11-19T01:10:00	0.2210	5.139		0.537953468	0.650997496	0.009957900	0.102733820	0.031663561
2019-11-19T01:15:00	0.2202	5.131		0.535436814	0.647441791	0.009872600	0.101853790	0.031392327
2019-11-19T01:20:00	0.2215	5.124		0.539714555	0.653488758	0.010017811	0.103351913	0.031854063
2019-11-19T01:25:00	0.2216	5.118		0.540255355	0.654254290	0.010036245	0.103542094	0.031912679
2019-11-19T01:30:00	0.2214	5.111		0.539438318	0.653097820	0.010008402	0.103254838	0.031824144
2019-11-19T01:35:00	0.2212	5.106		0.538621087	0.651941622	0.009980591	0.102967916	0.031735712
2019-11-19T01:40:00	0.2206	5.100		0.536784517	0.649345277	0.009918233	0.102324583	0.031537430
2019-11-19T01:45:00	0.2207	5.092		0.536986046	0.649630043	0.009925066	0.102395078	0.031559157
2019-11-19T01:50:00	0.2203	5.083		0.535828393	0.647994701	0.009885848	0.101990467	0.031434453
2019-11-19T01:55:00	0.2209	5.073		0.537728758	0.650679800	0.009950269	0.102655088	0.031639295
2019-11-19T02:00:00	0.2204	5.066		0.535891714	0.648084123	0.009887991	0.102012578	0.031441267
2019-11-19T02:05:00	0.2199	5.059		0.534393710	0.645969535	0.009837353	0.101490153	0.031280251
2019-11-19T02:10:00	0.2183	5.053		0.528810860	0.638104872	0.009649784	0.099555047	0.030683832
2019-11-19T02:15:00	0.2176	5.047		0.526628311	0.635037171	0.009576951	0.098803636	0.030452240
2019-11-19T02:20:00	0.2153	5.039		0.518642769	0.623845998	0.009312828	0.096078731	0.029612398
2019-11-19T02:25:00	0.2125	5.030		0.509268909	0.610775101	0.009007510	0.092928818	0.028641564
2019-11-19T02:30:00	0.2107	5.018		0.502958848	0.602016318	0.008804848	0.090837996	0.027997153
2019-11-19T02:35:00	0.2101	5.009		0.500759778	0.598971399	0.008734761	0.090114917	0.027774293
2019-11-19T02:40:00	0.2109	4.998		0.503708951	0.603055830	0.008828819	0.091085297	0.028073373
2019-11-19T02:45:00	0.2126	4.989		0.509396532	0.610952582	0.009011632	0.092971351	0.028654673
2019-11-19T02:50:00	0.2151	4.984		0.518150531	0.623157853	0.009296669	0.095912015	0.029561015
2019-11-19T02:55:00	0.2187	4.977		0.530288002	0.640183279	0.009699235	0.100065224	0.030841074
2019-11-19T03:00:00	0.2190	4.976		0.531170614	0.641426004	0.009728844	0.100370688	0.030935221
2019-11-19T03:05:00	0.2194	4.971		0.532733396	0.643627968	0.009781381	0.100912702	0.031102275
2019-11-19T03:10:00	0.2197	4.966		0.533615383	0.644871569	0.009811094	0.101219247	0.031196755
2019-11-19T03:15:00	0.2190	4.961		0.531435874	0.641799615	0.009737751	0.100462584	0.030963544
2019-11-19T03:20:00	0.2202	4.958		0.535378682	0.647359719	0.009870634	0.101833507	0.031386076
2019-11-19T03:25:00	0.2210	4.955		0.537958662	0.651004839	0.009958077	0.102735640	0.031664122
2019-11-19T03:30:00	0.2221	4.951		0.541894039	0.656575400	0.010092207	0.104119443	0.032090623
2019-11-19T03:35:00	0.2237	4.947		0.547180202	0.664077944	0.010273804	0.105992943	0.032668055
2019-11-19T03:40:00	0.2236	4.943		0.547042384	0.663882050	0.010269049	0.105943884	0.032652934
2019-11-19T03:45:00	0.2238	4.941		0.547582041	0.664649201	0.010287676	0.106136052	0.032712162
2019-11-19T03:50:00	0.2240	4.940		0.548121614	0.665416471	0.010306316	0.106328367	0.032771435
2019-11-19T03:55:00	0.2255	4.937		0.553398305	0.672932485	0.010489514	0.108218379	0.033353955
2019-11-19T04:00:00	0.2265	4.934		0.556640635	0.677562136	0.010602893	0.109388091	0.033714472
2019-11-19T04:05:00	0.2265	4.930		0.556554044	0.677438383	0.010599857	0.109356770	0.033704819
2019-11-19T04:10:00	0.2259	4.923		0.554777827	0.674901217	0.010537678	0.108715279	0.033507105
2019-11-19T04:15:00	0.2259	4.917		0.554691189	0.674777530	0.010534650	0.108684039	0.033497476
2019-11-19T04:20:00	0.2254	4.913		0.552914020	0.672241726	0.010472632	0.108044214	0.033300276
2019-11-19T04:25:00	0.2261	4.908		0.555531858	0.675977965	0.010564051	0.108987368	0.033590965
2019-11-19T04:30:00	0.2263	4.904		0.556121058	0.676819662	0.010584682	0.109200218	0.033656568
2019-11-19T04:35:00	0.2261	4.896		0.555358619	0.675730540	0.010557989	0.108924825	0.033571689
2019-11-19T04:40:00	0.2268	4.889		0.557636905	0.678986425	0.010637855	0.109748790	0.033825643
2019-11-19T04:45:00	0.2279	4.883		0.561600838	0.684661438	0.010777541	0.111189901	0.034269807
2019-11-19T04:50:00	0.2277	4.881		0.560839597	0.683570594	0.010750643	0.110912407	0.034184281
2019-11-19T04:55:00	0.2263	4.877		0.556025920	0.676683734	0.010581350	0.109165835	0.033645971
2019-11-19T05:00:00	0.2258	4.867		0.554249433	0.674146955	0.010519216	0.108524817	0.033448402
2019-11-19T05:05:00	0.2247	4.854		0.550780471	0.669200837	0.010398423	0.107278611	0.033064310
2019-11-19T05:10:00	0.2241	4.840		0.548662714	0.666186152	0.010325027	0.106521403	0.032830931
2019-11-19T05:15:00	0.2240	4.823		0.548237297	0.665581003	0.010310315	0.106369622	0.032784150
2019-11-19T05:20:00	0.2237	4.808		0.547134391	0.664012827	0.010272223	0.105976635	0.032663028
2019-11-19T05:25:00	0.2226	4.792		0.543658308	0.659076848	0.010152634	0.104742850	0.032282764
2019-11-19T05:30:00	0.2223	4.775		0.542553945	0.657510741	0.010114788	0.104352401	0.032162424
2019-11-19T05:35:00	0.2222	4.763		0.542127777	0.656906656	0.010100202	0.104201926	0.032116046
2019-11-19T05:40:00	0.2220	4.753		0.541362258	0.655821920	0.010074030	0.103931906	0.032032823
2019-11-19T05:45:00	0.2214	4.743		0.539578246	0.653295843	0.010013168	0.103304006	0.031839298
2019-11-19T05:50:00	0.2220	4.735		0.541527627	0.656056206	0.010079681	0.103990206	0.032050791
2019-11-19T05:55:00	0.2222	4.726		0.542119209	0.656894512	0.010099909	0.104198902	0.032115114
2019-11-19T06:00:00	0.2220	4.717		0.541353688	0.655809778	0.010073737	0.103928885	0.032031892
2019-11-19T06:05:00	0.2220	4.706		0.541606024	0.656167282	0.010082360	0.104017850	0.032059312
2019-11-19T06:10:00	0.2212	4.696		0.538803586	0.652199770	0.009986798	0.103031955	0.031755449
2019-11-19T06:15:00	0.2196	4.681		0.533279065	0.644397285	0.009799758	0.101102300	0.031160711
2019-11-19T06:20:00	0.2199	4.667		0.534212095	0.645713290	0.009831222	0.101426907	0.031260758
2019-11-19T06:25:00	0.2203	4.654		0.535824659	0.647989428	0.009885721	0.101989164	0.031434051
2019-11-19T06:30:00	0.2206	4.642		0.536757002	0.649306400	0.009917300	0.102314961	0.031534464
2019-11-19T06:35:00	0.2204	4.631		0.535990293	0.648223341	0.009891328	0.102047004	0.031451878
2019-11-19T06:40:00	0.2217	4.622		0.540318442	0.654343609	0.010038397	0.103564291	0.031919520
2019-11-19T06:45:00	0.2213	4.614		0.539213012	0.652779008	0.010000731	0.103175695	0.031799751
2019-11-19T06:50:00	0.2211	4.608		0.538446848	0.651695183	0.009974666	0.102906794	0.031716873
2019-11-19T06:55:00	0.2216	4.609		0.540057438	0.653974100	0.010029497	0.103472473	0.031891221
2019-11-19T07:00:00	0.2221	4.612		0.541667280	0.656254076	0.010084454	0.104039453	0.032065970
2019-11-19T07:05:00	0.2232	4.617		0.545649460	0.661903040	0.010221050	0.105448686	0.032500309
2019-11-19T07:10:00	0.2239	4.624		0.547934119	0.665149828	0.010299837	0.106261520	0.032750833
2019-11-19T07:15:00	0.2244	4.637		0.549540308	0.667434985	0.010355410	0.106834859	0.032927541
2019-11-19T07:20:00	0.2249	4.651		0.551145753	0.669721199	0.010411109	0.107409494	0.033104649
2019-11-19T07:25:00	0.2255	4.666		0.553426800	0.672973134	0.010490507	0.108228630	0.033357115
2019-11-19T07:30:00	0.2242	4.682		0.548941439	0.666582715	0.010334672	0.106620907	0.032861599
2019-11-19T07:35:00	0.2253	4.698		0.552577080	0.671761246	0.010460895	0.107923123	0.033262955
2019-11-19T07:40:00	0.2253	4.715		0.552828601	0.672119909	0.010469656	0.108013509	0.033290812
2019-11-19T07:45:00	0.2257	4.733		0.554094472	0.673925797	0.010513805	0.108468992	0.033431197
2019-11-19T07:50:00	0.2259	4.750		0.554683915	0.674767145	0.010534395	0.108681416	0.033496668
2019-11-19T07:55:00	0.2262	4.766		0.555611202	0.676091295	0.010566828	0.109016019	0.033599796
2019-11-19T08:00:00	0.2263	4.780		0.556200388	0.676933011	0.010587462	0.109228893	0.033665406
2019-11-19T08:05:00	0.2264	4.795		0.556451648	0.677292048	0.010596267	0.109319737	0.033693405
2019-11-19T08:10:00	0.2270	4.813		0.558391579	0.680065866	0.010664378	0.110022421	0.033909979
2019-11-19T08:15:00	0.2262	4.829		0.555602666	0.676079103	0.010566529	0.109012937	0.033598846
2019-11-19T08:20:00	0.2267	4.844		0.557543071	0.678852243	0.010634560	0.109714792	0.033815164
2019-11-19T08:25:00	0.2275	4.864		0.560157431	0.682593468	0.010726569	0.110664037	0.034107731
2019-11-19T08:30:00	0.2272	4.881		0.559058300	0.681019894	0.010687837	0.110264449	0.033984574
2019-11-19T08:35:00	0.2277	4.900		0.560659360	0.683312388	0.010744280	0.110846757	0.034164047
2019-11-19T08:40:00	0.2260	4.919		0.555169562	0.675460552	0.010551375	0.108856592	0.033550659
2019-11-19T08:45:00	0.2275	4.939		0.560148907	0.682581261	0.010726269	0.110660935	0.034106775
2019-11-19T08:50:00	0.2265	4.961		0.556685823	0.677626721	0.010604477	0.109404439	0.033719511
2019-11-19T08:55:00	0.2274	4.982		0.559638378	0.681850241	0.010708270	0.110475244	0.034049543
2019-11-19T09:00:00	0.2284	5.003		0.563262869	0.687044757	0.010836385	0.111796985	0.034456916
2019-11-19T09:05:00	0.2290	5.022		0.565199015	0.689824024	0.010905139	0.112506313	0.034675538
2019-11-19T09:10:00	0.2286	5.039		0.563764352	0.687764320	0.010854172	0.111980489	0.034513474
2019-11-19T09:15:00	0.2280	5.057		0.561654483	0.684738328	0.010779438	0.111209470	0.034275839
2019-11-19T09:20:00	0.2273	5.078		0.559543336	0.681714176	0.010704921	0.110440693	0.034038894
2019-11-19T09:25:00	0.2278	5.100		0.561144174	0.684006991	0.010761401	0.111023392	0.034218488
2019-11-19T09:30:00	0.2276	5.121		0.560382834	0.682916291	0.010734521	0.110746073	0.034133015
2019-11-19T09:35:00	0.2271	5.146		0.558608569	0.680376322	0.010672010	0.110101161	0.033934247
2019-11-19T09:40:00	0.2267	5.173		0.557508949	0.678803450	0.010633361	0.109702430	0.033811354
2019-11-19T09:45:00	0.2258	5.196		0.554381300	0.674335168	0.010523822	0.108572333	0.033463047
2019-11-19T09:50:00	0.2272	5.218		0.559024192	0.680971080	0.010686637	0.110252061	0.033980756
2019-11-19T09:55:00	0.2262	5.235		0.555559990	0.676018147	0.010565036	0.108997526	0.033594096
2019-11-19T10:00:00	0.2264	5.250		0.556487043	0.677342630	0.010597508	0.109332537	0.033697350
2019-11-19T10:05:00	0.2255	5.263		0.553400297	0.672935326	0.010489583	0.108219095	0.033354176
2019-11-19T10:10:00	0.2251	5.273		0.552002605	0.670942254	0.010440898	0.107716824	0.033199371
2019-11-19T10:15:00	0.2251	5.284		0.551957738	0.670878302	0.010439338	0.107700721	0.033194408
2019-11-19T10:20:00	0.2245	5.300		0.549882565	0.667922194	0.010367272	0.106957232	0.032965258
2019-11-19T10:25:00	0.2239	5.314		0.547806151	0.664967855	0.010295416	0.106215908	0.032736774
2019-11-19T10:30:00	0.2244	5.323		0.549454268	0.667312521	0.010352430	0.106804107	0.032918063
2019-11-19T10:35:00	0.2237	5.334		0.547377598	0.664358546	0.010280617	0.106063231	0.032689718
2019-11-19T10:40:00	0.2243	5.343		0.549364469	0.667184713	0.010349319	0.106772016	0.032908172
2019-11-19T10:45:00	0.2233	5.352		0.545932534	0.662305091	0.010230795	0.105549227	0.032531297
2019-11-19T10:50:00	0.2231	5.360		0.545209777	0.661278685	0.010205922	0.105292618	0.032452208
2019-11-19T10:55:00	0.2230	5.376		0.544825862	0.660733651	0.010192723	0.105156442	0.032410237
2019-11-19T11:00:00	0.2217	5.390		0.540371340	0.654418504	0.010040201	0.103582905	0.031925257
2019-11-19T11:05:00	0.2210	5.404		0.537949583	0.650992002	0.009957768	0.102732459	0.031663141
2019-11-19T11:10:00	0.2214	5.415		0.539602394	0.653330017	0.010013990	0.103312492	0.031841913
2019-11-19T11:15:00	0.2208	5.428		0.537519808	0.650384422	0.009943175	0.102581905	0.031616739
2019-11-19T11:20:00	0.2209	5.439		0.537814435	0.650800925	0.009953178	0.102685103	0.031648546
2019-11-19T11:25:00	0.2199	5.451		0.534371028	0.645937531	0.009836587	0.101482253	0.031277816
2019-11-19T11:30:00	0.2195	5.460		0.532965636	0.643955364	0.009789200	0.100993374	0.031127139
2019-11-19T11:35:00	0.2203	5.466		0.535640616	0.647729544	0.009879494	0.101924914	0.031414248
2019-11-19T11:40:00	0.2189	5.475		0.530833903	0.640951837	0.009717543	0.100254100	0.030899287
2019-11-19T11:45:00	0.2191	5.486		0.531469406	0.641846848	0.009738877	0.100474203	0.030967125
2019-11-19T11:50:00	0.2198	5.497		0.534145546	0.645619402	0.009828976	0.101403737	0.031253617
2019-11-19T11:55:00	0.2190	5.512		0.531379139	0.641719701	0.009735846	0.100442925	0.030957485
2019-11-19T12:00:00	0.2188	5.534		0.530653333	0.640697591	0.009711485	0.100191605	0.030880026
2019-11-19T12:05:00	0.2174	5.558		0.525839659	0.633929627	0.009550701	0.098532822	0.030368773
2019-11-19T12:10:00	0.2167	5.581		0.523407677	0.630517452	0.009469982	0.097700057	0.030112106
2019-11-19T12:15:00	0.2166	5.601		0.523021331	0.629975834	0.009457190	0.097568090	0.030071433
2019-11-19T12:20:00	0.2156	5.623		0.519563104	0.625133144	0.009343079	0.096390827	0.029708589
2019-11-19T12:25:00	0.2160	5.643		0.521224752	0.627458804	0.009397822	0.096955597	0.029882657
2019-11-19T12:30:00	0.2153	5.656		0.518789502	0.624051167	0.009317648	0.096128456	0.029627724
2019-11-19T12:35:00	0.2159	5.665		0.520792887	0.626854146	0.009383579	0.096808653	0.029837367
2019-11-19T12:40:00	0.2155	5.676		0.519381942	0.624879723	0.009337121	0.096329353	0.029689642
2019-11-19T12:45:00	0.2154	5.693		0.518995142	0.624338733	0.009324405	0.096198165	0.029649209
2019-11-19T12:50:00	0.2156	5.715		0.519632835	0.625230696	0.009345373	0.096414494	0.029715884
2019-11-19T12:55:00	0.2147	5.735		0.516512982	0.620869985	0.009243011	0.095358440	0.029390397
2019-11-19T13:00:00	0.2145	5.751		0.515784032	0.619852246	0.009219176	0.095112534	0.029314607
2019-11-19T13:05:00	0.2147	5.761		0.516764085	0.621220668	0.009251229	0.095443222	0.029416528
2019-11-19T13:10:00	0.2149	5.774		0.517402192	0.622112057	0.009272128	0.095658839	0.029482983
2019-11-19T13:15:00	0.2153	5.789		0.518723351	0.623958669	0.009315475	0.096106037	0.029620814
2019-11-19T13:20:00	0.2144	5.804		0.515602671	0.619599102	0.009213250	0.095051403	0.029295765
2019-11-19T13:25:00	0.2144	5.822		0.515557329	0.619535818	0.009211769	0.095036122	0.029291056
2019-11-19T13:30:00	0.2146	5.839		0.516195661	0.620426897	0.009232631	0.095251355	0.029357393
2019-11-19T13:35:00	0.2149	5.853		0.517175596	0.621795481	0.009264704	0.095582244	0.029459376
2019-11-19T13:40:00	0.2154	5.859		0.519179922	0.624597157	0.009330478	0.096260824	0.029668521
2019-11-19T13:45:00	0.2151	5.870		0.518109943	0.623101120	0.009295337	0.095898275	0.029556780
2019-11-19T13:50:00	0.2154	5.878		0.519089332	0.624470459	0.009327500	0.096230102	0.029659052
2019-11-19T13:55:00	0.2146	5.888		0.516310793	0.620587652	0.009236397	0.095290201	0.029369365
2019-11-19T14:00:00	0.2140	5.899		0.514214071	0.617661772	0.009167945	0.094583999	0.029151707
2019-11-19T14:05:00	0.2139	5.909		0.513826689	0.617121587	0.009155326	0.094453812	0.029111582
2019-11-19T14:10:00	0.2148	5.920		0.516858336	0.621352308	0.009254314	0.095475054	0.029426339
2019-11-19T14:15:00	0.2139	5.931		0.513735958	0.616995085	0.009152372	0.094423333	0.029102188
2019-11-19T14:20:00	0.2142	5.939		0.515058529	0.618839747	0.009195483	0.094868107	0.029239272
2019-11-19T14:25:00	0.2139	5.944		0.513987264	0.617345487	0.009160556	0.094507765	0.029128211
2019-11-19T14:30:00	0.2154	5.943		0.519068483	0.624441300	0.009326815	0.096223032	0.029656873
2019-11-19T14:35:00	0.2155	5.941		0.519364691	0.624855594	0.009336553	0.096323500	0.029687838
2019-11-19T14:40:00	0.2151	5.938		0.517953159	0.622881984	0.009290193	0.095845208	0.029540424
2019-11-19T14:45:00	0.2154	5.940		0.518932593	0.624251261	0.009322349	0.096176959	0.029642673
2019-11-19T14:50:00	0.2157	5.944		0.519911747	0.625620924	0.009354552	0.096509189	0.029745069
2019-11-19T14:55:00	0.2159	5.949		0.520890623	0.626990974	0.009386801	0.096841898	0.029847614
2019-11-19T15:00:00	0.2160	5.953		0.521186674	0.627405485	0.009396566	0.096942636	0.029878662
2019-11-19T15:05:00	0.2157	5.955		0.520117320	0.625908583	0.009361320	0.096579013	0.029766590
2019-11-19T15:10:00	0.2163	5.954		0.522119931	0.628712635	0.009427380	0.097260541	0.029976643
2019-11-19T15:15:00	0.2155	5.954		0.519343844	0.624826433	0.009335868	0.096316427	0.029685658
2019-11-19T15:20:00	0.2158	5.954		0.520322881	0.626196259	0.009368090	0.096648859	0.029788117
2019-11-19T15:25:00	0.2169	5.954		0.524030917	0.631391427	0.009490635	0.097913130	0.030177778
2019-11-19T15:30:00	0.2182	5.953		0.528416209	0.637549879	0.009636594	0.099418964	0.030641890
2019-11-19T15:35:00	0.2180	5.951		0.528030424	0.637007478	0.009623709	0.099286029	0.030600918
2019-11-19T15:40:00	0.2192	5.947		0.532070419	0.642693588	0.009759076	0.100682585	0.031031350
2019-11-19T15:45:00	0.2209	5.943		0.537804433	0.650786784	0.009952838	0.102681599	0.031647466
2019-11-19T15:50:00	0.2202	5.941		0.535380876	0.647362817	0.009870708	0.101834273	0.031386312
2019-11-19T15:55:00	0.2187	5.937		0.530233407	0.640106430	0.009697405	0.100046345	0.030835255
2019-11-19T16:00:00	0.2182	5.932		0.528485761	0.637647680	0.009638918	0.099442940	0.030649280
2019-11-19T16:05:00	0.2183	5.926		0.528826328	0.638126626	0.009650302	0.099560383	0.030685477
2019-11-19T16:10:00	0.2194	5.920		0.532570342	0.643398131	0.009775893	0.100856082	0.031084824
2019-11-19T16:15:00	0.2193	5.913		0.532230145	0.642918668	0.009764447	0.100738001	0.031048430
2019-11-19T16:20:00	0.2196	5.908		0.533250635	0.644357197	0.009798800	0.101092418	0.031157665
2019-11-19T16:25:00	0.2201	5.904		0.534950783	0.646755687	0.009856168	0.101684273	0.031340080
2019-11-19T16:30:00	0.2213	5.899		0.539027727	0.652516858	0.009994424	0.103110633	0.031779698
2019-11-19T16:35:00	0.2212	5.894		0.538688165	0.652036501	0.009982872	0.102991451	0.031742965
2019-11-19T16:40:00	0.2204	5.888		0.535970470	0.648195345	0.009890657	0.102040081	0.031449744
2019-11-19T16:45:00	0.2208	5.883		0.537329584	0.650115547	0.009936719	0.102515303	0.031596212
2019-11-19T16:50:00	0.2217	5.878		0.540385640	0.654438752	0.010040689	0.103587938	0.031926808
2019-11-19T16:55:00	0.2224	5.874		0.542760708	0.657803878	0.010121868	0.104425447	0.032184937
2019-11-19T17:00:00	0.2230	5.870		0.544795186	0.660690106	0.010191668	0.105145564	0.032406884
2019-11-19T17:05:00	0.2233	5.867		0.545811977	0.662133854	0.010226644	0.105506402	0.032518098
2019-11-19T17:10:00	0.2237	5.865		0.547167234	0.664059510	0.010273357	0.105988326	0.032666632
2019-11-19T17:15:00	0.2239	5.864		0.547844665	0.665022621	0.010296746	0.106229635	0.032741005
2019-11-19T17:20:00	0.2241	5.861		0.548521963	0.665985919	0.010320159	0.106471173	0.032815450
2019-11-19T17:25:00	0.2243	5.859		0.549199129	0.666949405	0.010343593	0.106712942	0.032889965
2019-11-19T17:30:00	0.2243	5.857		0.549199129	0.666949405	0.010343593	0.106712942	0.032889965
2019-11-19T17:35:00	0.2239	5.856		0.547844665	0.665022621	0.010296746	0.106229635	0.032741005
2019-11-19T17:40:00	0.2240	5.855		0.548183330	0.665504246	0.010308450	0.106350375	0.032778218
2019-11-19T17:45:00	0.2243	5.854		0.549199129	0.666949405	0.010343593	0.106712942	0.032889965
2019-11-19T17:50:00	0.2251	5.853		0.551906473	0.670805231	0.010437554	0.107682322	0.033188737
2019-11-19T17:55:00	0.2246	5.852		0.550214630	0.668394987	0.010378787	0.107076028	0.033001872
2019-11-19T18:00:00	0.2247	5.850		0.550553064	0.668876942	0.010390529	0.107197172	0.033039209
2019-11-19T18:05:00	0.2245	5.848		0.549876163	0.667913080	0.010367050	0.106954942	0.032964552
2019-11-19T18:10:00	0.2249	5.848		0.551229835	0.669840993	0.010414030	0.107439632	0.033113938
2019-11-19T18:15:00	0.2247	5.846		0.550553064	0.668876942	0.010390529	0.107197172	0.033039209
2019-11-19T18:20:00	0.2246	5.845		0.550214630	0.668394987	0.010378787	0.107076028	0.033001872
2019-11-19T18:25:00	0.2241	5.844		0.548521963	0.665985919	0.010320159	0.106471173	0.032815450
2019-11-19T18:30:00	0.2238	5.842		0.547505966	0.664541042	0.010285049	0.106108952	0.032703809
2019-11-19T18:35:00	0.2232	5.843		0.545473079	0.661652558	0.010214980	0.105386065	0.032481009
2019-11-19T18:40:00	0.2225	5.842		0.543099871	0.658284799	0.010133487	0.104545322	0.032221884
2019-11-19T18:45:00	0.2224	5.841		0.542760708	0.657803878	0.010121868	0.104425447	0.032184937
2019-11-19T18:50:00	0.2229	5.840		0.544456189	0.660208950	0.010180021	0.105025400	0.032369848
2019-11-19T18:55:00	0.2234	5.839		0.546150841	0.662615198	0.010238314	0.105626797	0.032555205
2019-11-19T19:00:00	0.2238	5.839		0.547505966	0.664541042	0.010285049	0.106108952	0.032703809
2019-11-19T19:05:00	0.2239	5.837		0.547844665	0.665022621	0.010296746	0.106229635	0.032741005
2019-11-19T19:10:00	0.2246	5.836		0.550214630	0.668394987	0.010378787	0.107076028	0.033001872
2019-11-19T19:15:00	0.2242	5.836		0.548860562	0.666467639	0.010331873	0.106592029	0.032852699
2019-11-19T19:20:00	0.2252	5.835		0.552244743	0.671287421	0.010449324	0.107803753	0.033226164
2019-11-19T19:25:00	0.2242	5.835		0.548860562	0.666467639	0.010331873	0.106592029	0.032852699
2019-11-19T19:30:00	0.2249	5.837		0.551229835	0.669840993	0.010414030	0.107439632	0.033113938
2019-11-19T19:35:00	0.2259	5.837		0.554611710	0.674664066	0.010531872	0.108655383	0.033488644
2019-11-19T19:40:00	0.2267	5.837		0.557314844	0.678525911	0.010626547	0.109632123	0.033789685
2019-11-19T19:45:00	0.2271	5.837		0.558665625	0.680457961	0.010674017	0.110121870	0.033940630
2019-11-19T19:50:00	0.2276	5.837		0.560353365	0.682874082	0.010733481	0.110735345	0.034129709
2019-11-19T19:55:00	0.2271	5.837		0.558665625	0.680457961	0.010674017	0.110121870	0.033940630
2019-11-19T20:00:00	0.2276	5.837		0.560353365	0.682874082	0.010733481	0.110735345	0.034129709
2019-11-19T20:05:00	0.2281	5.837		0.562040288	0.685291379	0.010793084	0.111350254	0.034319230
2019-11-19T20:10:00	0.2277	5.837		0.560690815	0.683357448	0.010745390	0.110858212	0.034167578
2019-11-19T20:15:00	0.2282	5.836		0.562377574	0.685774979	0.010805021	0.111473408	0.034357187
2019-11-19T20:20:00	0.2291	5.833		0.565411689	0.690129498	0.010912705	0.112584367	0.034699595
2019-11-19T20:25:00	0.2290	5.830		0.565074695	0.689645475	0.010900718	0.112460698	0.034661479
2019-11-19T20:30:00	0.2280	5.829		0.561702968	0.684807825	0.010781152	0.111227158	0.034281290
2019-11-19T20:35:00	0.2279	5.825		0.561365616	0.684324319	0.010769226	0.111104119	0.034243368
2019-11-19T20:40:00	0.2276	5.820		0.560353365	0.682874082	0.010733481	0.110735345	0.034129709
2019-11-19T20:45:00	0.2278	5.817		0.561028232	0.683840860	0.010757305	0.110981137	0.034205464
2019-11-19T20:50:00	0.2281	5.815		0.562040288	0.685291379	0.010793084	0.111350254	0.034319230
2019-11-19T20:55:00	0.2288	5.814		0.564400610	0.688677569	0.010876760	0.112213532	0.034585300
2019-11-19T21:00:00	0.2285	5.815		0.563389239	0.687226062	0.010840866	0.111843212	0.034471164
2019-11-19T21:05:00	0.2295	5.815		0.566759338	0.692066062	0.010960709	0.113079615	0.034852236
2019-11-19T21:10:00	0.2287	5.814		0.564063519	0.688193686	0.010864790	0.112090035	0.034547237
2019-11-19T21:15:00	0.2290	5.813		0.565074695	0.689645475	0.010900718	0.112460698	0.034661479
2019-11-19T21:20:00	0.2279	5.814		0.561365616	0.684324319	0.010769226	0.111104119	0.034243368
2019-11-19T21:25:00	0.2276	5.815		0.560353365	0.682874082	0.010733481	0.110735345	0.034129709
2019-11-19T21:30:00	0.2271	5.816		0.558665625	0.680457961	0.010674017	0.110121870	0.033940630
2019-11-19T21:35:00	0.2265	5.816		0.556639257	0.677560167	0.010602845	0.109387593	0.033714319
2019-11-19T21:40:00	0.2271	5.815		0.558665625	0.680457961	0.010674017	0.110121870	0.033940630
2019-11-19T21:45:00	0.2280	5.816		0.561702968	0.684807825	0.010781152	0.111227158	0.034281290
2019-11-19T21:50:00	0.2286	5.816		0.563726395	0.687709851	0.010852825	0.111966595	0.034509192
2019-11-19T21:55:00	0.2275	5.817		0.560015882	0.682390764	0.010721577	0.110612536	0.034091858
2019-11-19T22:00:00	0.2261	5.818		0.555287690	0.675629245	0.010555507	0.108899223	0.033563798
2019-11-19T22:05:00	0.2266	5.817		0.557072715	0.678179746	0.010618049	0.109544452	0.033762664
2019-11-19T22:10:00	0.2275	5.817		0.560207008	0.682664469	0.010728318	0.110682078	0.034113291
2019-11-19T22:15:00	0.2286	5.818		0.563675646	0.687637025	0.010851024	0.111948019	0.034503467
2019-11-19T22:20:00	0.2284	5.818		0.563096774	0.686806477	0.010830497	0.111736240	0.034438194
2019-11-19T22:25:00	0.2276	5.819		0.560493677	0.683075054	0.010738432	0.110786425	0.034145452
2019-11-19T22:30:00	0.2270	5.819		0.558563979	0.680312522	0.010670442	0.110084978	0.033929259
2019-11-19T22:35:00	0.2271	5.820		0.558659583	0.680449316	0.010673805	0.110119677	0.033939954
2019-11-19T22:40:00	0.2290	5.820		0.565164090	0.689773863	0.010903897	0.112493497	0.034671588
2019-11-19T22:45:00	0.2289	5.821		0.564922505	0.689426915	0.010895307	0.112404871	0.034644273
2019-11-19T22:50:00	0.2284	5.820		0.562995257	0.686660853	0.010826899	0.111699122	0.034426754
2019-11-19T22:55:00	0.2272	5.817		0.559041972	0.680996527	0.010687263	0.110258518	0.033982746
2019-11-19T23:00:00	0.2267	5.814		0.557449234	0.678718064	0.010631265	0.109680798	0.033804687
2019-11-19T23:05:00	0.2269	5.812		0.558220280	0.679820809	0.010658355	0.109960281	0.033890826
2019-11-19T23:10:00	0.2268	5.810		0.557640501	0.678991567	0.010637981	0.109750093	0.033826045
2019-11-19T23:15:00	0.2265	5.808		0.556722823	0.677679604	0.010605775	0.109417825	0.033723636
2019-11-19T23:20:00	0.2263	5.809		0.556142795	0.676850719	0.010585444	0.109208075	0.033658989
2019-11-19T23:25:00	0.2263	5.808		0.555900584	0.676504672	0.010576960	0.109120546	0.033632012
2019-11-19T23:30:00	0.2253	5.808		0.552615732	0.671816360	0.010462241	0.107937010	0.033267235
2019-11-19T23:35:00	0.2261	5.808		0.555416111	0.675812650	0.010560001	0.108945579	0.033578085
2019-11-19T23:40:00	0.2260	5.809		0.555173849	0.675466675	0.010551525	0.108858139	0.033551136
2019-11-19T23:45:00	0.2263	5.809		0.555945399	0.676568696	0.010578530	0.109136739	0.033637003
2019-11-19T23:50:00	0.2263	5.810		0.556041075	0.676705386	0.010581881	0.109171312	0.033647659
2019-11-19T23:55:00	0.2264	5.811		0.556474607	0.677324858	0.010597072	0.109328040	0.033695964
2019-11-20T00:00:00	0.2263	5.812		0.555894537	0.676496033	0.010576748	0.109118362	0.033631339
2019-11-20T00:05:00	0.2269	5.813		0.558016959	0.679529973	0.010651208	0.109886547	0.033868101
2019-11-20T00:10:00	0.2273	5.814		0.559463050	0.681599240	0.010702092	0.110411510	0.034029900
2019-11-20T00:15:00	0.2271	5.815		0.558883477	0.680769700	0.010681684	0.110200960	0.033965006
2019-11-20T00:20:00	0.2271	5.815		0.558641457	0.680423379	0.010673167	0.110113098	0.033937926
2019-11-20T00:25:00	0.2260	5.815		0.555021226	0.675248738	0.010546187	0.108803071	0.033534163
2019-11-20T00:30:00	0.2263	5.816		0.556130702	0.676833441	0.010585020	0.109203704	0.033657642
2019-11-20T00:35:00	0.2268	5.816		0.557577575	0.678901583	0.010635771	0.109727293	0.033819017
2019-11-20T00:40:00	0.2270	5.816		0.558348593	0.680004368	0.010662866	0.110006825	0.033905172
2019-11-20T00:45:00	0.2261	5.816		0.555404015	0.675795375	0.010559577	0.108941212	0.033576740
2019-11-20T00:50:00	0.2259	5.815		0.554823767	0.674966806	0.010539284	0.108731847	0.033512211
2019-11-20T00:55:00	0.2263	5.815		0.555933305	0.676551419	0.010578106	0.109132369	0.033635656
2019-11-20T01:00:00	0.2264	5.814		0.556366851	0.677170872	0.010593295	0.109289074	0.033683954
2019-11-20T01:05:00	0.2265	5.813		0.556800342	0.677790402	0.010608494	0.109445873	0.033732281
2019-11-20T01:10:00	0.2268	5.812		0.557571531	0.678892940	0.010635559	0.109725103	0.033818343
2019-11-20T01:15:00	0.2278	5.811		0.561042792	0.683861722	0.010757820	0.110986443	0.034207100
2019-11-20T01:20:00	0.2277	5.811		0.560800921	0.683515185	0.010749278	0.110898318	0.034179939
2019-11-20T01:25:00	0.2279	5.811		0.561571226	0.684618996	0.010776494	0.111179100	0.034266478
2019-11-20T01:30:00	0.2286	5.810		0.563690195	0.687657903	0.010851541	0.111953344	0.034505108
2019-11-20T01:35:00	0.2283	5.809		0.562774109	0.686343649	0.010819063	0.111618283	0.034401839
2019-11-20T01:40:00	0.2281	5.808		0.562195087	0.685513318	0.010798561	0.111406767	0.034336648
2019-11-20T01:45:00	0.2274	5.808		0.559591316	0.681782865	0.010706611	0.110458135	0.034044270
2019-11-20T01:50:00	0.2275	5.807		0.560024407	0.682402971	0.010721878	0.110615637	0.034092814
2019-11-20T01:55:00	0.2280	5.804		0.561807006	0.684956956	0.010784831	0.111265116	0.034292989
2019-11-20T02:00:00	0.2276	5.802		0.560552995	0.683160023	0.010740526	0.110808023	0.034152109
2019-11-20T02:05:00	0.2282	5.802		0.562335325	0.685714396	0.010803525	0.111457977	0.034352431
2019-11-20T02:10:00	0.2288	5.801		0.564453830	0.688753973	0.010878651	0.112233036	0.034591312
2019-11-20T02:15:00	0.2283	5.799		0.562863563	0.686471952	0.010822233	0.111650978	0.034411916
2019-11-20T02:20:00	0.2276	5.797		0.560597751	0.683224133	0.010742105	0.110824321	0.034157132
2019-11-20T02:25:00	0.2276	5.793		0.560355849	0.682877641	0.010733569	0.110736250	0.034129988
2019-11-20T02:30:00	0.2273	5.789		0.559438887	0.681564650	0.010701241	0.110402728	0.034027193
2019-11-20T02:35:00	0.2281	5.785		0.562233786	0.685568804	0.010799931	0.111420897	0.034341003
2019-11-20T02:40:00	0.2279	5.782		0.561317317	0.684255102	0.010767519	0.111086508	0.034237941
2019-11-20T02:45:00	0.2279	5.780		0.561412845	0.684392004	0.010770895	0.111121340	0.034248676
2019-11-20T02:50:00	0.2286	5.776		0.563869054	0.687914580	0.010857887	0.112018822	0.034525289
2019-11-20T02:55:00	0.2289	5.772		0.564975717	0.689503330	0.010897199	0.112424389	0.034650288
2019-11-20T03:00:00	0.2286	5.772		0.563722844	0.687704755	0.010852699	0.111965295	0.034508791
2019-11-20T03:05:00	0.2292	5.769		0.565840508	0.690745546	0.010927968	0.112741834	0.034748128
2019-11-20T03:10:00	0.2299	5.767		0.568293605	0.694272620	0.011015491	0.113644790	0.035026428
2019-11-20T03:15:00	0.2298	5.767		0.567715497	0.693440966	0.010994833	0.113431665	0.034960741
2019-11-20T03:20:00	0.2304	5.764		0.569830743	0.696485258	0.011070515	0.114212462	0.035201390
2019-11-20T03:25:00	0.2307	5.763		0.570935521	0.698076740	0.011110148	0.114621351	0.035327413
2019-11-20T03:30:00	0.2311	5.758		0.572376273	0.700153725	0.011161943	0.115155706	0.035492107
2019-11-20T03:35:00	0.2315	5.754		0.573480247	0.701746375	0.011201714	0.115566013	0.035618568
2019-11-20T03:40:00	0.2325	5.751		0.576935750	0.706737983	0.011326665	0.116855111	0.036015880
2019-11-20T03:45:00	0.2324	5.745		0.576694976	0.706389855	0.011317935	0.116765052	0.035988123
2019-11-20T03:50:00	0.2332	5.740		0.579140483	0.709927977	0.011406758	0.117681416	0.036270555
2019-11-20T03:55:00	0.2339	5.733		0.581584287	0.713468594	0.011495873	0.118600799	0.036553918
2019-11-20T04:00:00	0.2334	5.729		0.580001783	0.711175275	0.011438125	0.118005028	0.036370296
2019-11-20T04:05:00	0.2326	5.725		0.577313141	0.707283738	0.011340354	0.116996341	0.036059409
2019-11-20T04:10:00	0.2326	5.720		0.577310136	0.707279391	0.011340245	0.116995216	0.036059062
2019-11-20T04:15:00	0.2325	5.715		0.576971280	0.706789359	0.011327953	0.116868404	0.036019977
2019-11-20T04:20:00	0.2318	5.710		0.574616421	0.703386531	0.011242720	0.115989065	0.035748956
2019-11-20T04:25:00	0.2318	5.707		0.574613414	0.703382188	0.011242611	0.115987944	0.035748611
2019-11-20T04:30:00	0.2302	5.704		0.569228794	0.695618549	0.011048951	0.113989988	0.035132821
2019-11-20T04:35:00	0.2302	5.702		0.569225782	0.695614213	0.011048843	0.113988875	0.035132478
2019-11-20T04:40:00	0.2299	5.701		0.568212794	0.694156351	0.011012602	0.113614986	0.035017242
2019-11-20T04:45:00	0.2305	5.699		0.570229444	0.697059488	0.011084810	0.114359939	0.035246844
2019-11-20T04:50:00	0.2303	5.697		0.569553341	0.696085807	0.011060575	0.114109909	0.035169782
2019-11-20T04:55:00	0.2308	5.696		0.571232818	0.698505182	0.011120826	0.114731510	0.035361366
2019-11-20T05:00:00	0.2302	5.696		0.569210723	0.695592533	0.011048304	0.113983312	0.035130764
2019-11-20T05:05:00	0.2307	5.695		0.570890364	0.698011670	0.011108527	0.114604623	0.035322258
2019-11-20T05:10:00	0.2315	5.694		0.573577919	0.701887329	0.011205236	0.115602350	0.035629767
2019-11-20T05:15:00	0.2313	5.694		0.572902463	0.700912707	0.011180890	0.115351179	0.035552354
2019-11-20T05:20:00	0.2316	5.692		0.573908079	0.702363857	0.011217146	0.115725223	0.035667638
2019-11-20T05:25:00	0.2325	5.690		0.576929207	0.706728521	0.011326427	0.116852663	0.036015126
2019-11-20T05:30:00	0.2324	5.690		0.576590315	0.706238543	0.011314142	0.116725916	0.035976061
2019-11-20T05:35:00	0.2331	5.689		0.578937842	0.709634612	0.011399384	0.117605345	0.036247110
2019-11-20T05:40:00	0.2327	5.689		0.577591869	0.707686890	0.011350470	0.117100705	0.036091574
2019-11-20T05:45:00	0.2331	5.688		0.578931835	0.709625915	0.011399166	0.117603090	0.036246415
2019-11-20T05:50:00	0.2339	5.687		0.581613236	0.713510565	0.011496930	0.118611712	0.036557282
2019-11-20T05:55:00	0.2334	5.685		0.579932721	0.711075240	0.011435608	0.117979063	0.036362293
2019-11-20T06:00:00	0.2333	5.685		0.579594119	0.710584837	0.011423273	0.117851802	0.036323070
2019-11-20T06:05:00	0.2330	5.685		0.578584125	0.709122611	0.011386519	0.117472620	0.036206202
2019-11-20T06:10:00	0.2326	5.684		0.577238016	0.707175088	0.011337628	0.116968220	0.036050741
2019-11-20T06:15:00	0.2331	5.683		0.578913814	0.709599827	0.011398510	0.117596326	0.036244330
2019-11-20T06:20:00	0.2333	5.682		0.579582107	0.710567441	0.011422836	0.117847289	0.036321679
2019-11-20T06:25:00	0.2328	5.680		0.577900619	0.708133541	0.011361681	0.117216365	0.036127222
2019-11-20T06:30:00	0.2327	5.679		0.577561821	0.707643426	0.011349379	0.117089452	0.036088106
2019-11-20T06:35:00	0.2333	5.678		0.579573098	0.710554395	0.011422507	0.117843904	0.036320636
2019-11-20T06:40:00	0.2342	5.676		0.582589354	0.714926189	0.011532626	0.118979977	0.036670784
2019-11-20T06:45:00	0.2342	5.674		0.582586354	0.714921836	0.011532516	0.118978844	0.036670435
2019-11-20T06:50:00	0.2338	5.673		0.581241778	0.712972064	0.011483362	0.118471724	0.036514136
2019-11-20T06:55:00	0.2352	5.674		0.585932055	0.719779966	0.011655294	0.120245520	0.037060837
2019-11-20T07:00:00	0.2356	5.673		0.587268846	0.721723658	0.011704537	0.120753547	0.037217416
2019-11-20T07:05:00	0.2356	5.673		0.587265850	0.721719299	0.011704426	0.120752407	0.037217064
2019-11-20T07:10:00	0.2356	5.673		0.587262853	0.721714941	0.011704316	0.120751267	0.037216713
2019-11-20T07:15:00	0.2354	5.673		0.586590025	0.720736466	0.011679518	0.120495434	0.037137863
2019-11-20T07:20:00	0.2354	5.674		0.586587028	0.720732109	0.011679408	0.120494295	0.037137512
2019-11-20T07:25:00	0.2352	5.674		0.585914070	0.719753825	0.011654632	0.120238692	0.037058733
2019-11-20T07:30:00	0.2357	5.674		0.587585737	0.722184634	0.011716225	0.120874137	0.037254583
2019-11-20T07:35:00	0.2360	5.674		0.588587158	0.723641937	0.011753203	0.121255625	0.037372161
2019-11-20T07:40:00	0.2368	5.675		0.591261212	0.727537409	0.011852234	0.122277317	0.037687057
2019-11-20T07:45:00	0.2368	5.674		0.591258219	0.727533046	0.011852123	0.122276171	0.037686703
2019-11-20T07:50:00	0.2371	5.673		0.592258597	0.728991892	0.011889281	0.122659520	0.037804855
2019-11-20T07:55:00	0.2369	5.674		0.591586722	0.728012008	0.011864318	0.122401987	0.037725481
2019-11-20T08:00:00	0.2368	5.676		0.591249240	0.727519955	0.011851790	0.122272733	0.037685644
2019-11-20T08:05:00	0.2371	5.679		0.592249620	0.728978798	0.011888947	0.122656077	0.037803794
2019-11-20T08:10:00	0.2380	5.679		0.595255041	0.733366588	0.012000937	0.123811453	0.038159892
2019-11-20T08:15:00	0.2379	5.683		0.594917910	0.732874014	0.011988348	0.123681572	0.038119862
2019-11-20T08:20:00	0.2383	5.688		0.596251299	0.734822746	0.012038179	0.124195672	0.038278312
2019-11-20T08:25:00	0.2387	5.693		0.597584184	0.736772227	0.012088097	0.124710673	0.038437040
2019-11-20T08:30:00	0.2394	5.698		0.599917764	0.740188900	0.012175749	0.125614959	0.038715750
2019-11-20T08:35:00	0.2391	5.704		0.598913581	0.738718083	0.012137991	0.125225416	0.038595689
2019-11-20T08:40:00	0.2384	5.710		0.596573360	0.735293658	0.012050231	0.124320010	0.038316634
2019-11-20T08:45:00	0.2399	5.714		0.601576844	0.742620785	0.012238264	0.126259913	0.038914531
2019-11-20T08:50:00	0.2400	5.716		0.601907373	0.743105551	0.012250738	0.126388607	0.038954196
2019-11-20T08:55:00	0.2404	5.718		0.603238129	0.745058211	0.012301027	0.126907427	0.039114102
2019-11-20T09:00:00	0.2402	5.721		0.602568338	0.744075221	0.012275703	0.126646160	0.039033576
2019-11-20T09:05:00	0.2400	5.724		0.601898421	0.743092420	0.012250400	0.126385120	0.038953121
2019-11-20T09:10:00	0.2402	5.725		0.602562371	0.744066465	0.012275477	0.126643834	0.039032859
2019-11-20T09:15:00	0.2406	5.726		0.603892882	0.746019494	0.012325809	0.127163097	0.039192901
2019-11-20T09:20:00	0.2404	5.728		0.603223215	0.745036318	0.012300463	0.126901607	0.039112308
2019-11-20T09:25:00	0.2404	5.731		0.603220232	0.745031940	0.012300350	0.126900442	0.039111949
2019-11-20T09:30:00	0.2405	5.734		0.603550607	0.745516935	0.012312851	0.127029411	0.039151698
2019-11-20T09:35:00	0.2404	5.736		0.603214266	0.745023182	0.012300124	0.126898114	0.039111231
2019-11-20T09:40:00	0.2404	5.738		0.603211283	0.745018804	0.012300011	0.126896950	0.039110872
2019-11-20T09:45:00	0.2399	5.741		0.601541032	0.742568267	0.012236913	0.126245974	0.038910235
2019-11-20T09:50:00	0.2392	5.743		0.599202550	0.739141247	0.012148850	0.125337449	0.038630219
2019-11-20T09:55:00	0.2393	5.745		0.599533301	0.739625681	0.012161286	0.125465744	0.038669761
2019-11-20T10:00:00	0.2393	5.747		0.599530315	0.739621307	0.012161174	0.125464586	0.038669404
2019-11-20T10:05:00	0.2392	5.752		0.599477094	0.739543351	0.012159172	0.125443938	0.038663040
2019-11-20T10:10:00	0.2393	5.761		0.599757589	0.739954236	0.012169722	0.125552782	0.038696587
2019-11-20T10:15:00	0.2391	5.771		0.599036898	0.738898659	0.012142625	0.125273220	0.038610423
2019-11-20T10:20:00	0.2378	5.784		0.594641951	0.732470890	0.011978048	0.123575311	0.038087111
2019-11-20T10:25:00	0.2380	5.798		0.595256971	0.733369408	0.012001009	0.123812197	0.038160121
2019-11-20T10:30:00	0.2376	5.808		0.593866911	0.731339039	0.011949145	0.123277122	0.037995206
2019-11-20T10:35:00	0.2374	5.815		0.593479327	0.730773208	0.011934704	0.123128142	0.037949289
2019-11-20T10:40:00	0.2365	5.819		0.590416042	0.726305549	0.011820888	0.121953923	0.037587383
2019-11-20T10:45:00	0.2363	5.822		0.589693441	0.725252811	0.011794121	0.121677776	0.037502272
2019-11-20T10:50:00	0.2362	5.827		0.589305398	0.724687661	0.011779760	0.121529616	0.037456608
2019-11-20T10:55:00	0.2355	5.834		0.586908380	0.721199393	0.011691248	0.120616449	0.037175161
2019-11-20T11:00:00	0.2360	5.840		0.588529184	0.723557549	0.011751060	0.121233523	0.037365349
2019-11-20T11:05:00	0.2363	5.846		0.589814618	0.725429320	0.011798608	0.121724062	0.037516538
2019-11-20T11:10:00	0.2361	5.852		0.589091894	0.724376764	0.011771863	0.121448136	0.037431495
2019-11-20T11:15:00	0.2371	5.856		0.592384079	0.729174941	0.011893946	0.122707648	0.037819689
2019-11-20T11:20:00	0.2365	5.858		0.590323763	0.726171088	0.011817468	0.121918640	0.037576509
2019-11-20T11:25:00	0.2370	5.861		0.591942998	0.728531566	0.011877552	0.122538514	0.037767560
2019-11-20T11:30:00	0.2367	5.864		0.590886187	0.726990726	0.011838320	0.122133764	0.037642812
2019-11-20T11:35:00	0.2366	5.867		0.590832836	0.726912964	0.011836341	0.122113349	0.037636520
2019-11-20T11:40:00	0.2366	5.872		0.590779484	0.726835204	0.011834362	0.122092936	0.037630229
2019-11-20T11:45:00	0.2367	5.875		0.591060670	0.727245060	0.011844793	0.122200542	0.037663394
2019-11-20T11:50:00	0.2355	5.879		0.586990695	0.721319104	0.011694282	0.120647749	0.037184808
2019-11-20T11:55:00	0.2355	5.886		0.586937285	0.721241430	0.011692313	0.120627440	0.037178548
2019-11-20T12:00:00	0.2347	5.891		0.584203494	0.717268844	0.011591778	0.119590233	0.036858871
2019-11-20T12:05:00	0.2357	5.896		0.587500249	0.722060268	0.011713071	0.120841599	0.037244554
2019-11-20T12:10:00	0.2347	5.900		0.584431758	0.717600306	0.011600155	0.119676661	0.036885509
2019-11-20T12:15:00	0.2344	5.905		0.583372689	0.716062799	0.011561313	0.119275932	0.036762001
2019-11-20T12:20:00	0.2335	5.912		0.580300592	0.711608142	0.011449018	0.118117405	0.036404931
2019-11-20T12:25:00	0.2329	5.918		0.578233186	0.708614735	0.011373763	0.117341013	0.036165640
2019-11-20T12:30:00	0.2324	5.922		0.576500488	0.706108686	0.011310887	0.116692332	0.035965710
2019-11-20T12:35:00	0.2321	5.926		0.575439025	0.704574690	0.011272456	0.116295852	0.035843511
2019-11-20T12:40:00	0.2317	5.928		0.574377239	0.703041164	0.011234081	0.115899941	0.035721487
2019-11-20T12:45:00	0.2322	5.928		0.576003834	0.705390820	0.011292897	0.116506735	0.035908507
2019-11-20T12:50:00	0.2324	5.927		0.576622120	0.706284525	0.011315295	0.116737808	0.035979726
2019-11-20T12:55:00	0.2323	5.926		0.576232632	0.705721499	0.011301183	0.116592217	0.035934854
2019-11-20T13:00:00	0.2317	5.924		0.574162826	0.702731602	0.011226340	0.115820075	0.035696872
2019-11-20T13:05:00	0.2323	5.925		0.576125483	0.705566633	0.011297302	0.116552181	0.035922514
2019-11-20T13:10:00	0.2327	5.925		0.577751268	0.707917473	0.011356257	0.117160410	0.036109976
2019-11-20T13:15:00	0.2332	5.925		0.579376299	0.710269415	0.011415341	0.117769973	0.036297849
2019-11-20T13:20:00	0.2338	5.924		0.581336043	0.713108708	0.011486804	0.118507240	0.036525082
2019-11-20T13:25:00	0.2335	5.922		0.580276041	0.711572573	0.011448122	0.118108169	0.036402085
2019-11-20T13:30:00	0.2342	5.923		0.582570630	0.714899026	0.011531941	0.118972907	0.036668606
2019-11-20T13:35:00	0.2342	5.922		0.582517153	0.714821451	0.011529984	0.118952717	0.036662383
2019-11-20T13:40:00	0.2346	5.919		0.584139981	0.717176625	0.011589447	0.119566191	0.036851461
2019-11-20T13:45:00	0.2345	5.918		0.583751325	0.716612378	0.011575192	0.119419121	0.036806133
2019-11-20T13:50:00	0.2349	5.916		0.585038505	0.718481573	0.011622438	0.119906552	0.036956364
2019-11-20T13:55:00	0.2351	5.916		0.585655203	0.719377608	0.011645109	0.120140444	0.037028452
2019-11-20T14:00:00	0.2350	5.914		0.585266714	0.718813115	0.011630825	0.119993076	0.036983032
2019-11-20T14:05:00	0.2344	5.913		0.583202229	0.715815419	0.011555067	0.119211498	0.036742141
2019-11-20T14:10:00	0.2350	5.911		0.585159841	0.718657845	0.011626897	0.119952552	0.036970541
2019-11-20T14:15:00	0.2340	5.910		0.582089307	0.714200892	0.011514333	0.118791249	0.036612617
2019-11-20T14:20:00	0.2354	5.909		0.586728038	0.720937144	0.011684602	0.120547889	0.037154030
2019-11-20T14:25:00	0.2351	5.906		0.585669661	0.719398618	0.011645641	0.120145930	0.037030142
2019-11-20T14:30:00	0.2347	5.905		0.584275813	0.717373853	0.011594431	0.119617612	0.036867310
2019-11-20T14:35:00	0.2350	5.903		0.585227738	0.718756487	0.011629392	0.119978296	0.036978476
2019-11-20T14:40:00	0.2351	5.901		0.585509368	0.719165688	0.011639746	0.120085113	0.037011398
2019-11-20T14:45:00	0.2349	5.898		0.585120864	0.718601219	0.011625464	0.119937774	0.036965987
2019-11-20T14:50:00	0.2353	5.897		0.586407542	0.720471152	0.011672797	0.120426096	0.037116492
2019-11-20T14:55:00	0.2353	5.895		0.586354123	0.720393491	0.011670830	0.120405802	0.037110237
2019-11-20T15:00:00	0.2357	5.892		0.587640350	0.722264088	0.011718240	0.120894926	0.037260990
2019-11-20T15:05:00	0.2353	5.890		0.586247283	0.720238172	0.011666896	0.120365219	0.037097729
2019-11-20T15:10:00	0.2349	5.888		0.584853664	0.718213069	0.011615647	0.119836493	0.036934771
2019-11-20T15:15:00	0.2350	5.886		0.585470394	0.719109057	0.011638313	0.120070328	0.037006841
2019-11-20T15:20:00	0.2357	5.885		0.587761598	0.722440492	0.011722715	0.120941086	0.037275217
2019-11-20T15:25:00	0.2356	5.883		0.587373342	0.721875656	0.011708390	0.120793305	0.037229670
2019-11-20T15:30:00	0.2351	5.881		0.585645147	0.719362994	0.011644739	0.120136628	0.037027275
2019-11-20T15:35:00	0.2346	5.881		0.583916102	0.716851584	0.011581235	0.119481462	0.036825347
2019-11-20T15:40:00	0.2345	5.879		0.583527422	0.716287374	0.011566984	0.119334437	0.036780032
2019-11-20T15:45:00	0.2342	5.877		0.582468081	0.714750268	0.011528188	0.118934192	0.036656673
2019-11-20T15:50:00	0.2337	5.874		0.581072963	0.712727370	0.011477198	0.118408131	0.036494536
2019-11-20T15:55:00	0.2339	5.873		0.581690357	0.713622382	0.011499749	0.118640787	0.036566243
2019-11-20T16:00:00	0.2342	5.871		0.582642982	0.715003986	0.011534589	0.119000227	0.036677026
2019-11-20T16:05:00	0.2348	5.869		0.584503009	0.717703778	0.011602771	0.119703646	0.036893826
2019-11-20T16:10:00	0.2346	5.868		0.584016483	0.716997318	0.011584917	0.119519448	0.036837055
2019-11-20T16:15:00	0.2342	5.867		0.582524028	0.714831423	0.011530235	0.118955313	0.036663183
2019-11-20T16:20:00	0.2344	5.864		0.583378499	0.716071231	0.011561526	0.119278129	0.036762678
2019-11-20T16:25:00	0.2349	5.862		0.584903044	0.718284798	0.011617461	0.119855207	0.036940539
2019-11-20T16:30:00	0.2352	5.859		0.586091949	0.720012373	0.011661178	0.120306228	0.037079548
2019-11-20T16:35:00	0.2359	5.858		0.588284956	0.723202075	0.011742038	0.121140437	0.037336659
2019-11-20T16:40:00	0.2360	5.857		0.588803309	0.723956598	0.011761192	0.121338048	0.037397565
2019-11-20T16:45:00	0.2354	5.855		0.586643061	0.720813581	0.011681472	0.120515590	0.037144075
2019-11-20T16:50:00	0.2358	5.856		0.587831378	0.722542023	0.011725290	0.120967656	0.037283406
2019-11-20T16:55:00	0.2358	5.855		0.588015001	0.722809212	0.011732069	0.121037588	0.037304960
2019-11-20T17:00:00	0.2357	5.855		0.587528960	0.722102036	0.011714131	0.120852526	0.037247922
2019-11-20T17:05:00	0.2351	5.855		0.585702978	0.719447037	0.011646866	0.120158573	0.037034039
2019-11-20T17:10:00	0.2358	5.854		0.587896227	0.722636382	0.011727684	0.120992351	0.037291018
2019-11-20T17:15:00	0.2362	5.854		0.589418817	0.724852832	0.011783957	0.121572911	0.037469952
2019-11-20T17:20:00	0.2361	5.853		0.588932970	0.724145370	0.011765986	0.121387504	0.037412808
2019-11-20T17:25:00	0.2365	5.853		0.590455112	0.726362483	0.011822336	0.121968863	0.037591988
2019-11-20T17:30:00	0.2366	5.852		0.590638598	0.726629874	0.011829138	0.122039039	0.037613617
2019-11-20T17:35:00	0.2366	5.853		0.590822074	0.726897280	0.011835942	0.122109231	0.037635251
2019-11-20T17:40:00	0.2369	5.852		0.591674535	0.728140056	0.011867579	0.122435630	0.037735850
2019-11-20T17:45:00	0.2364	5.853		0.589850701	0.725481881	0.011799944	0.121737847	0.037520787
2019-11-20T17:50:00	0.2361	5.852		0.589030213	0.724286954	0.011769581	0.121424602	0.037424242
2019-11-20T17:55:00	0.2367	5.852		0.590886869	0.726991720	0.011838345	0.122134025	0.037642893
2019-11-20T18:00:00	0.2364	5.852		0.590066623	0.725796435	0.011807941	0.121820350	0.037546215
2019-11-20T18:05:00	0.2360	5.852		0.588576731	0.723626760	0.011752817	0.121251650	0.037370936
2019-11-20T18:10:00	0.2371	5.852		0.592440550	0.729257323	0.011896046	0.122729311	0.037826366
2019-11-20T18:15:00	0.2371	5.852		0.592289542	0.729037032	0.011890431	0.122671388	0.037808513
2019-11-20T18:20:00	0.2370	5.852		0.592138527	0.728816751	0.011884818	0.122613476	0.037790664
2019-11-20T18:25:00	0.2367	5.852		0.590984058	0.727133384	0.011841950	0.122171219	0.037654356
2019-11-20T18:30:00	0.2363	5.852		0.589829210	0.725450576	0.011799148	0.121729637	0.037518256
2019-11-20T18:35:00	0.2359	5.851		0.588339218	0.723281049	0.011744042	0.121161116	0.037343033
2019-11-20T18:40:00	0.2367	5.851		0.590865384	0.726960405	0.011837548	0.122125804	0.037640359
2019-11-20T18:45:00	0.2365	5.851		0.590379737	0.726252648	0.011819542	0.121940041	0.037583105
2019-11-20T18:50:00	0.2361	5.851		0.588889978	0.724082776	0.011764396	0.121371105	0.037407753
2019-11-20T18:55:00	0.2361	5.851		0.589073545	0.724350047	0.011771184	0.121441135	0.037429337
2019-11-20T19:00:00	0.2361	5.851		0.588922393	0.724129970	0.011765594	0.121383469	0.037411564
2019-11-20T19:05:00	0.2369	5.851		0.591782612	0.728297661	0.011871594	0.122477044	0.037748614
2019-11-20T19:10:00	0.2368	5.850		0.591297091	0.727589717	0.011853566	0.122291055	0.037691291
2019-11-20T19:15:00	0.2374	5.851		0.593486862	0.730784207	0.011934985	0.123131037	0.037950182
2019-11-20T19:20:00	0.2379	5.851		0.595007040	0.733004231	0.011991675	0.123715903	0.038130443
2019-11-20T19:25:00	0.2381	5.851		0.595524405	0.733760216	0.012011000	0.123915276	0.038191892
2019-11-20T19:30:00	0.2379	5.850		0.595039399	0.733051508	0.011992883	0.123728368	0.038134285
2019-11-20T19:35:00	0.2416	5.851		0.607230871	0.750925791	0.012452548	0.128470642	0.039595900
2019-11-20T19:40:00	0.2413	5.851		0.606414409	0.749724862	0.012421486	0.128150184	0.039497131
2019-11-20T19:45:00	0.2408	5.851		0.604598166	0.747055368	0.012352532	0.127438794	0.039277874
2019-11-20T19:50:00	0.2405	5.851		0.603781097	0.745855350	0.012321576	0.127119428	0.039179442
2019-11-20T19:55:00	0.2401	5.850		0.602296980	0.743677080	0.012265450	0.126540389	0.039000977
2019-11-20T20:00:00	0.2401	5.851		0.602479852	0.743945385	0.012272359	0.126611664	0.039022945
2019-11-20T20:05:00	0.2406	5.851		0.603996169	0.746171170	0.012329720	0.127203453	0.039205340
2019-11-20T20:10:00	0.2408	5.851		0.604845458	0.747418673	0.012361909	0.127535534	0.039307690
2019-11-20T20:15:00	0.2403	5.852		0.603028411	0.744750386	0.012293095	0.126825592	0.039088879
2019-11-20T20:20:00	0.2407	5.851		0.604211228	0.746487009	0.012337867	0.127287501	0.039231244
2019-11-20T20:25:00	0.2401	5.852		0.602393856	0.743819210	0.012269110	0.126578144	0.039012613
2019-11-20T20:30:00	0.2397	5.852		0.600909157	0.741641810	0.012213085	0.126000151	0.038834470
2019-11-20T20:35:00	0.2398	5.851		0.601425659	0.742399082	0.012232560	0.126201071	0.038896396
2019-11-20T20:40:00	0.2394	5.851		0.599940554	0.740222290	0.012176607	0.125623807	0.038718477
2019-11-20T20:45:00	0.2398	5.851		0.601457959	0.742446447	0.012233779	0.126213641	0.038900270
2019-11-20T20:50:00	0.2398	5.852		0.601307336	0.742225583	0.012228098	0.126155029	0.038882205
2019-11-20T20:55:00	0.2399	5.851		0.601823780	0.742982942	0.012247583	0.126356053	0.038944163
2019-11-20T21:00:00	0.2396	5.851		0.600672472	0.741294868	0.012204166	0.125908135	0.038806110
2019-11-20T21:05:00	0.2389	5.852		0.598519480	0.738141078	0.012123189	0.125072706	0.038548623
2019-11-20T21:10:00	0.2387	5.852		0.597701006	0.736943161	0.012092478	0.124755862	0.038450968
2019-11-20T21:15:00	0.2391	5.851		0.598885605	0.738677119	0.012136940	0.125214572	0.038592347
2019-11-20T21:20:00	0.2382	5.850		0.596063488	0.734548174	0.012031154	0.124123194	0.038255974
2019-11-20T21:25:00	0.2379	5.850		0.594910302	0.732862901	0.011988064	0.123678642	0.038118959
2019-11-20T21:30:00	0.2374	5.850		0.593422456	0.730690193	0.011932586	0.123106290	0.037942554
2019-11-20T21:35:00	0.2374	5.849		0.593271490	0.730469840	0.011926964	0.123048291	0.037924678
2019-11-20T21:40:00	0.2375	5.848		0.593789110	0.731225447	0.011946245	0.123247209	0.037985987
2019-11-20T21:45:00	0.2383	5.848		0.596311378	0.734910586	0.012040427	0.124218862	0.038285460
2019-11-20T21:50:00	0.2384	5.847		0.596828552	0.735666855	0.012059785	0.124418577	0.038347014
2019-11-20T21:55:00	0.2383	5.847		0.596343724	0.734957880	0.012041637	0.124231348	0.038289308
2019-11-20T22:00:00	0.2382	5.848		0.595858830	0.734249004	0.012023501	0.124044239	0.038231639
2019-11-20T22:05:00	0.2388	5.846		0.597995519	0.737374146	0.012103524	0.124869825	0.038486093
2019-11-20T22:10:00	0.2390	5.845		0.598796005	0.738545927	0.012133574	0.125179847	0.038581644
2019-11-20T22:15:00	0.2406	5.846		0.603931954	0.746076871	0.012327288	0.127178362	0.039197606
2019-11-20T22:20:00	0.2404	5.846		0.603397921	0.745292778	0.012307073	0.126969799	0.039133325
2019-11-20T22:25:00	0.2407	5.847		0.604197186	0.746466385	0.012337335	0.127282012	0.039229552
2019-11-20T22:30:00	0.2411	5.847		0.605662622	0.748619558	0.012392920	0.127855475	0.039406299
2019-11-20T22:35:00	0.2401	5.848		0.602462290	0.743919618	0.012271695	0.126604819	0.039020835
2019-11-20T22:40:00	0.2401	5.849		0.602261515	0.743625049	0.012264111	0.126526569	0.038996717
2019-11-20T22:45:00	0.2401	5.850		0.602394195	0.743819709	0.012269123	0.126578277	0.039012654
2019-11-20T22:50:00	0.2396	5.851		0.600859282	0.741568698	0.012211206	0.125980758	0.038828493
2019-11-20T22:55:00	0.2395	5.851		0.600324785	0.740785299	0.012191071	0.125773028	0.038764469
2019-11-20T23:00:00	0.2396	5.852		0.600791157	0.741468835	0.012208638	0.125954272	0.038820330
2019-11-20T23:05:00	0.2399	5.852		0.601591010	0.742641560	0.012238798	0.126265428	0.038916231
2019-11-20T23:10:00	0.2401	5.852		0.602390683	0.743814555	0.012268990	0.126576908	0.039012232
2019-11-20T23:15:00	0.2398	5.853		0.601522899	0.742541676	0.012236229	0.126238916	0.038908060
2019-11-20T23:20:00	0.2402	5.853		0.602656030	0.744203896	0.012279017	0.126680350	0.039044114
2019-11-20T23:25:00	0.2399	5.854		0.601788311	0.742930919	0.012246244	0.126342241	0.038939906
2019-11-20T23:30:00	0.2401	5.854		0.602254490	0.743614743	0.012263845	0.126523831	0.038995874
2019-11-20T23:35:00	0.2399	5.855		0.601720203	0.742831029	0.012243674	0.126315723	0.038931732
2019-11-20T23:40:00	0.2399	5.855		0.601852904	0.743025658	0.012248682	0.126367394	0.038947658
2019-11-20T23:45:00	0.2399	5.856		0.601652094	0.742731141	0.012241103	0.126289206	0.038923560
2019-11-20T23:50:00	0.2389	5.856		0.598448133	0.738036633	0.012120510	0.125045070	0.038540105
2019-11-20T23:55:00	0.2388	5.856		0.597913271	0.737253778	0.012100439	0.124837994	0.038476282
2019-11-21T00:00:00	0.2383	5.856		0.596376412	0.735005673	0.012042860	0.124243967	0.038293197
2019-11-21T00:05:00	0.2395	5.857		0.600515127	0.741064252	0.012198239	0.125846984	0.038787263
2019-11-21T00:10:00	0.2402	5.857		0.602649006	0.744193588	0.012278751	0.126677611	0.039043270
2019-11-21T00:15:00	0.2397	5.858		0.601114203	0.741942412	0.012220815	0.126079894	0.038859048
2019-11-21T00:20:00	0.2408	5.858		0.604580955	0.747030084	0.012351879	0.127432062	0.039275799
2019-11-21T00:25:00	0.2408	5.858		0.604713548	0.747224874	0.012356907	0.127483927	0.039291784
2019-11-21T00:30:00	0.2408	5.858		0.604846137	0.747419671	0.012361935	0.127535800	0.039307772
2019-11-21T00:35:00	0.2404	5.859		0.603312287	0.745167068	0.012303832	0.126936371	0.039123022
2019-11-21T00:40:00	0.2403	5.859		0.603111560	0.744872428	0.012296239	0.126858035	0.039098878
2019-11-21T00:45:00	0.2407	5.859		0.604244182	0.746535409	0.012339116	0.127300383	0.039235214
2019-11-21T00:50:00	0.2405	5.858		0.603710196	0.745751246	0.012318892	0.127091734	0.039170907
2019-11-21T00:55:00	0.2406	5.858		0.604176122	0.746435449	0.012336537	0.127273779	0.039227015
2019-11-21T01:00:00	0.2405	5.858		0.603642125	0.745651301	0.012316315	0.127065149	0.039162713
2019-11-21T01:05:00	0.2407	5.859		0.604441335	0.746824990	0.012346587	0.127377462	0.039258971
2019-11-21T01:10:00	0.2408	5.858		0.604573934	0.747019771	0.012351613	0.127429317	0.039274953
2019-11-21T01:15:00	0.2404	5.857		0.603373341	0.745256694	0.012306142	0.126960203	0.039130368
2019-11-21T01:20:00	0.2402	5.855		0.602839223	0.744472728	0.012285941	0.126751791	0.039066133
2019-11-21T01:25:00	0.2403	5.854		0.602971882	0.744667420	0.012290957	0.126803538	0.039082082
2019-11-21T01:30:00	0.2394	5.853		0.600102800	0.740460012	0.012182713	0.125686806	0.038737894
2019-11-21T01:35:00	0.2394	5.852		0.599901891	0.740165644	0.012175152	0.125608797	0.038713851
2019-11-21T01:40:00	0.2390	5.853		0.598699712	0.738404940	0.012129957	0.125142532	0.038570144
2019-11-21T01:45:00	0.2385	5.854		0.597163194	0.736156325	0.012072319	0.124547892	0.038386870
2019-11-21T01:50:00	0.2380	5.854		0.595291901	0.733420449	0.012002314	0.123825657	0.038164270
2019-11-21T01:55:00	0.2375	5.854		0.593753900	0.731174042	0.011944933	0.123233673	0.037981815
2019-11-21T02:00:00	0.2371	5.853		0.592215228	0.728928631	0.011887669	0.122642888	0.037799729
2019-11-21T02:05:00	0.2366	5.853		0.590675885	0.726684216	0.011830521	0.122053302	0.037618013
2019-11-21T02:10:00	0.2366	5.853		0.590809002	0.726878226	0.011835457	0.122104230	0.037633709
2019-11-21T02:15:00	0.2369	5.853		0.591611119	0.728047583	0.011865224	0.122411333	0.037728362
2019-11-21T02:20:00	0.2373	5.855		0.593081779	0.730192961	0.011919902	0.122975428	0.037902221
2019-11-21T02:25:00	0.2372	5.856		0.592546104	0.729411317	0.011899971	0.122769807	0.037838847
2019-11-21T02:30:00	0.2373	5.856		0.593013504	0.730093322	0.011917360	0.122949210	0.037894141
2019-11-21T02:35:00	0.2371	5.855		0.592477818	0.729311693	0.011897432	0.122743608	0.037830772
2019-11-21T02:40:00	0.2375	5.857		0.593613852	0.730969586	0.011939715	0.123179841	0.037965223
2019-11-21T02:45:00	0.2379	5.857		0.595083679	0.733116203	0.011994537	0.123745426	0.038139542
2019-11-21T02:50:00	0.2381	5.857		0.595550743	0.733798707	0.012011985	0.123925430	0.038195021
2019-11-21T02:55:00	0.2381	5.858		0.595683676	0.733992990	0.012016953	0.123976686	0.038210819
2019-11-21T03:00:00	0.2387	5.859		0.597820470	0.737117974	0.012096958	0.124802083	0.038465214
2019-11-21T03:05:00	0.2388	5.859		0.597953318	0.737312385	0.012101941	0.124853492	0.038481059
2019-11-21T03:10:00	0.2385	5.860		0.597084444	0.736041132	0.012069369	0.124517455	0.038377489
2019-11-21T03:15:00	0.2384	5.860		0.596549376	0.735258585	0.012049333	0.124310748	0.038313780
2019-11-21T03:20:00	0.2385	5.860		0.597016246	0.735941378	0.012066814	0.124491099	0.038369366
2019-11-21T03:25:00	0.2381	5.860		0.595813084	0.734182138	0.012021790	0.124026594	0.038226201
2019-11-21T03:30:00	0.2386	5.859		0.597281996	0.736330116	0.012076771	0.124593817	0.038401024
2019-11-21T03:35:00	0.2386	5.858		0.597414864	0.736524496	0.012081750	0.124645190	0.038416858
2019-11-21T03:40:00	0.2384	5.855		0.596545857	0.735253441	0.012049201	0.124309390	0.038313361
2019-11-21T03:45:00	0.2386	5.852		0.597346672	0.736424732	0.012079194	0.124618822	0.038408731
2019-11-21T03:50:00	0.2382	5.849		0.596143623	0.734665324	0.012034151	0.124154116	0.038265504
2019-11-21T03:55:00	0.2386	5.847		0.597278479	0.736324970	0.012076639	0.124592457	0.038400605
2019-11-21T04:00:00	0.2386	5.847		0.597411346	0.736519350	0.012081618	0.124643830	0.038416439
2019-11-21T04:05:00	0.2378	5.847		0.594635365	0.732461270	0.011977802	0.123572775	0.038086329
2019-11-21T04:10:00	0.2383	5.847		0.596202342	0.734751170	0.012036347	0.124176777	0.038272489
2019-11-21T04:15:00	0.2384	5.847		0.596766817	0.735576568	0.012057473	0.124394728	0.038339663
2019-11-21T04:20:00	0.2383	5.845		0.596329272	0.734936750	0.012041096	0.124225769	0.038287589
2019-11-21T04:25:00	0.2379	5.846		0.594889335	0.732832268	0.011987281	0.123670567	0.038116470
2019-11-21T04:30:00	0.2379	5.846		0.595119897	0.733169121	0.011995889	0.123759380	0.038143843
2019-11-21T04:35:00	0.2380	5.847		0.595350445	0.733505997	0.012004501	0.123848220	0.038171224
2019-11-21T04:40:00	0.2373	5.849		0.592907206	0.729938202	0.011913404	0.122908398	0.037881562
2019-11-21T04:45:00	0.2375	5.851		0.593806488	0.731250819	0.011946893	0.123253890	0.037988046
2019-11-21T04:50:00	0.2375	5.853		0.593702864	0.731099533	0.011943031	0.123214054	0.037975768
2019-11-21T04:55:00	0.2377	5.854		0.594267739	0.731924337	0.011964088	0.123431291	0.038042722
2019-11-21T05:00:00	0.2381	5.854		0.595834879	0.734213995	0.012022605	0.124035000	0.038228792
2019-11-21T05:05:00	0.2386	5.854		0.597401324	0.736504687	0.012081243	0.124639954	0.038415244
2019-11-21T05:10:00	0.2390	5.855		0.598633284	0.738307685	0.012127462	0.125116794	0.038562211
2019-11-21T05:15:00	0.2389	5.857		0.598195970	0.737667522	0.012111045	0.124947421	0.038510009
2019-11-21T05:20:00	0.2392	5.859		0.599427653	0.739470934	0.012157313	0.125424757	0.038657128
2019-11-21T05:25:00	0.2386	5.861		0.597321180	0.736387438	0.012078239	0.124608966	0.038405694
2019-11-21T05:30:00	0.2382	5.863		0.595881646	0.734282355	0.012024354	0.124053040	0.038234352
2019-11-21T05:35:00	0.2381	5.865		0.595778084	0.734130979	0.012020482	0.124013095	0.038222040
2019-11-21T05:40:00	0.2381	5.866		0.595674518	0.733979607	0.012016610	0.123973155	0.038209730
2019-11-21T05:45:00	0.2381	5.867		0.595570950	0.733828239	0.012012740	0.123933221	0.038197422
2019-11-21T05:50:00	0.2379	5.869		0.595133257	0.733188641	0.011996388	0.123764527	0.038145429
2019-11-21T05:55:00	0.2378	5.870		0.594695510	0.732549124	0.011980046	0.123595930	0.038093466
2019-11-21T06:00:00	0.2378	5.870		0.594591912	0.732397799	0.011976181	0.123556048	0.038081174
2019-11-21T06:05:00	0.2376	5.873		0.594154098	0.731758381	0.011959850	0.123387571	0.038029248
2019-11-21T06:10:00	0.2386	5.874		0.597391301	0.736490024	0.012080867	0.124636079	0.038414050
2019-11-21T06:15:00	0.2385	5.875		0.596953834	0.735850090	0.012064477	0.124466981	0.038361932
2019-11-21T06:20:00	0.2384	5.877		0.596850302	0.735698667	0.012060599	0.124426980	0.038349604
2019-11-21T06:25:00	0.2387	5.879		0.597748580	0.737012775	0.012094262	0.124774268	0.038456641
2019-11-21T06:30:00	0.2390	5.880		0.598646630	0.738327225	0.012127964	0.125121965	0.038563805
2019-11-21T06:35:00	0.2398	5.882		0.601212660	0.742086765	0.012224527	0.126118194	0.038870852
2019-11-21T06:40:00	0.2404	5.885		0.603443493	0.745359680	0.012308797	0.126987590	0.039138809
2019-11-21T06:45:00	0.2409	5.888		0.605006573	0.747655400	0.012368020	0.127598582	0.039327122
2019-11-21T06:50:00	0.2407	5.893		0.604236784	0.746524543	0.012338835	0.127297490	0.039234323
2019-11-21T06:55:00	0.2404	5.896		0.603466827	0.745393936	0.012309680	0.126996700	0.039141616
2019-11-21T07:00:00	0.2406	5.901		0.604030144	0.746221064	0.012331007	0.127216729	0.039209431
2019-11-21T07:05:00	0.2418	5.905		0.607924255	0.751946123	0.012478959	0.128743116	0.039679879
2019-11-21T07:10:00	0.2424	5.908		0.610150870	0.755225373	0.012563965	0.129620107	0.039950176
2019-11-21T07:15:00	0.2413	5.913		0.606385775	0.749682756	0.012420398	0.128138953	0.039493670
2019-11-21T07:20:00	0.2414	5.915		0.606615590	0.750020727	0.012429136	0.128229108	0.039521457
2019-11-21T07:25:00	0.2411	5.914		0.605846150	0.748889344	0.012399891	0.127927388	0.039428463
2019-11-21T07:30:00	0.2411	5.915		0.605742879	0.748737532	0.012395968	0.127886920	0.039415991
2019-11-21T07:35:00	0.2420	5.920		0.608636655	0.752994859	0.012506124	0.129023373	0.039766257
2019-11-21T07:40:00	0.2427	5.927		0.610862824	0.756274782	0.012591208	0.129901170	0.040036802
2019-11-21T07:45:00	0.2424	5.936		0.610094304	0.755142014	0.012561801	0.129597789	0.039943297
2019-11-21T07:50:00	0.2420	5.946		0.608659955	0.753029166	0.012507013	0.129032545	0.039769083
2019-11-21T07:55:00	0.2420	5.958		0.608556765	0.752877230	0.012503076	0.128991929	0.039756565
2019-11-21T08:00:00	0.2422	5.971		0.609452079	0.754195780	0.012537255	0.129344545	0.039865245
2019-11-21T08:05:00	0.2417	5.988		0.607684531	0.751593318	0.012469824	0.128648880	0.039650834
2019-11-21T08:10:00	0.2425	6.004		0.610244027	0.755362661	0.012567528	0.129656865	0.039961505
2019-11-21T08:15:00	0.2432	6.016		0.612801678	0.759134784	0.012665553	0.130668178	0.040273201
2019-11-21T08:20:00	0.2431	6.028		0.612366109	0.758492001	0.012648832	0.130495664	0.040220031
2019-11-21T08:25:00	0.2431	6.040		0.612263027	0.758339904	0.012644876	0.130454854	0.040207453
2019-11-21T08:30:00	0.2432	6.051		0.612824950	0.759169132	0.012666447	0.130677398	0.040276043
2019-11-21T08:35:00	0.2435	6.064		0.613719189	0.760489304	0.012700814	0.131031956	0.040385321
2019-11-21T08:40:00	0.2428	6.084		0.611288594	0.756902565	0.012607515	0.130069404	0.040088654
2019-11-21T08:45:00	0.2420	6.106		0.608856334	0.753318338	0.012514507	0.129109858	0.039792912
2019-11-21T08:50:00	0.2421	6.128		0.609085989	0.753656549	0.012523273	0.129200302	0.039820788
2019-11-21T08:55:00	0.2427	6.151		0.610979246	0.756446427	0.012595666	0.129947160	0.040050977
2019-11-21T09:00:00	0.2435	6.177		0.613536368	0.760219350	0.012693784	0.130959429	0.040362968
2019-11-21T09:05:00	0.2443	6.210		0.616423805	0.764486245	0.012805049	0.132107332	0.040716763
2019-11-21T09:10:00	0.2440	6.243		0.615324263	0.762860576	0.012762620	0.131669598	0.040581849
2019-11-21T09:15:00	0.2438	6.282		0.614556708	0.761726350	0.012733045	0.131364475	0.040487807
2019-11-21T09:20:00	0.2449	6.313		0.618439302	0.767468794	0.012883012	0.132911663	0.040964665
2019-11-21T09:25:00	0.2452	6.334		0.619332131	0.768791104	0.012917627	0.133268774	0.041074730
2019-11-21T09:30:00	0.2445	6.351		0.616905368	0.765198556	0.012823655	0.132299282	0.040775924
2019-11-21T09:35:00	0.2446	6.360		0.617466559	0.766028893	0.012845354	0.132523152	0.040844923
2019-11-21T09:40:00	0.2447	6.369		0.617695658	0.766367945	0.012854218	0.132614601	0.040873108
2019-11-21T09:45:00	0.2448	6.372		0.617924742	0.766707020	0.012863085	0.132706076	0.040901302
2019-11-21T09:50:00	0.2453	6.379		0.619813301	0.769504011	0.012936301	0.133461436	0.041134111
2019-11-21T09:55:00	0.2450	6.386		0.618714805	0.767876753	0.012893688	0.133021805	0.040998612
2019-11-21T10:00:00	0.2442	6.396		0.615955458	0.763793670	0.012786968	0.131920789	0.040659268
2019-11-21T10:05:00	0.2436	6.412		0.613908814	0.760769335	0.012708108	0.131107204	0.040408514
2019-11-21T10:10:00	0.2434	6.429		0.613190994	0.759709444	0.012680509	0.130822471	0.040320756
2019-11-21T10:15:00	0.2437	6.445		0.614467503	0.761594563	0.012729610	0.131329037	0.040476885
2019-11-21T10:20:00	0.2433	6.463		0.613084962	0.759552919	0.012676435	0.130780439	0.040307801
2019-11-21T10:25:00	0.2434	6.487		0.613364382	0.759965419	0.012687172	0.130891219	0.040341945
2019-11-21T10:30:00	0.2435	6.504		0.613643780	0.760377952	0.012697914	0.131002038	0.040376100
2019-11-21T10:35:00	0.2436	6.521		0.613923157	0.760790517	0.012708659	0.131112897	0.040410268
2019-11-21T10:40:00	0.2435	6.534		0.613537761	0.760221406	0.012693837	0.130959981	0.040363138
2019-11-21T10:45:00	0.2428	6.548		0.611489725	0.757199178	0.012615222	0.130148916	0.040113160
2019-11-21T10:50:00	0.2427	6.561		0.611104066	0.756630466	0.012600446	0.129996478	0.040066177
2019-11-21T10:55:00	0.2425	6.572		0.610385679	0.755571431	0.012572946	0.129712769	0.039978735
2019-11-21T11:00:00	0.2420	6.584		0.608668701	0.753042044	0.012507346	0.129035988	0.039770145
2019-11-21T11:05:00	0.2421	6.596		0.608948469	0.753454019	0.012518023	0.129146139	0.039804094
2019-11-21T11:10:00	0.2419	6.608		0.608229646	0.752395642	0.012490600	0.128863218	0.039716895
2019-11-21T11:15:00	0.2416	6.617		0.607510677	0.751337484	0.012463202	0.128580560	0.039629777
2019-11-21T11:20:00	0.2412	6.625		0.606125424	0.749299930	0.012410502	0.128036857	0.039462203
2019-11-21T11:25:00	0.2410	6.635		0.605406028	0.748242414	0.012383178	0.127754967	0.039375322
2019-11-21T11:30:00	0.2403	6.644		0.603019915	0.744737916	0.012292773	0.126822277	0.039087858
2019-11-21T11:35:00	0.2402	6.652		0.602633333	0.744170591	0.012278159	0.126671500	0.039041387
2019-11-21T11:40:00	0.2403	6.659		0.602913578	0.744581850	0.012288752	0.126780794	0.039075072
2019-11-21T11:45:00	0.2391	6.666		0.599191020	0.739124361	0.012148417	0.125332978	0.038628841
2019-11-21T11:50:00	0.2385	6.678		0.597134675	0.736114607	0.012071251	0.124536869	0.038383472
2019-11-21T11:55:00	0.2383	6.694		0.596413449	0.735059828	0.012044246	0.124258265	0.038297604
2019-11-21T12:00:00	0.2380	6.712		0.595357976	0.733517001	0.012004782	0.123851123	0.038172119
2019-11-21T12:05:00	0.2377	6.725		0.594302187	0.731974644	0.011965373	0.123444545	0.038046807
2019-11-21T12:10:00	0.2375	6.735		0.593580383	0.730920726	0.011938468	0.123166977	0.037961258
2019-11-21T12:15:00	0.2369	6.744		0.591520766	0.727915836	0.011861869	0.122376720	0.037717694
2019-11-21T12:20:00	0.2372	6.755		0.592805109	0.729789221	0.011909606	0.122869205	0.037869482
2019-11-21T12:25:00	0.2374	6.767		0.593420449	0.730687264	0.011932511	0.123105518	0.037942316
2019-11-21T12:30:00	0.2372	6.775		0.592698465	0.729633613	0.011905638	0.122828273	0.037856867
2019-11-21T12:35:00	0.2373	6.781		0.592979498	0.730043696	0.011916095	0.122936153	0.037890116
2019-11-21T12:40:00	0.2375	6.785		0.593594808	0.730941784	0.011939006	0.123172521	0.037962967
2019-11-21T12:45:00	0.2369	6.789		0.591535200	0.727936882	0.011862405	0.122382249	0.037719398
2019-11-21T12:50:00	0.2358	6.792		0.588135439	0.722984476	0.011736516	0.121083468	0.037319101
2019-11-21T12:55:00	0.2361	6.796		0.589086321	0.724368649	0.011771656	0.121446010	0.037430840
2019-11-21T13:00:00	0.2360	6.800		0.588698211	0.723803598	0.011757307	0.121297968	0.037385212
2019-11-21T13:05:00	0.2367	6.803		0.590987316	0.727138133	0.011842071	0.122172466	0.037654741
2019-11-21T13:10:00	0.2370	6.806		0.591937430	0.728523444	0.011877345	0.122536380	0.037766902
2019-11-21T13:15:00	0.2366	6.808		0.590546061	0.726495017	0.011825707	0.122003644	0.037602708
2019-11-21T13:20:00	0.2363	6.811		0.589823487	0.725442239	0.011798936	0.121727450	0.037517582
2019-11-21T13:25:00	0.2367	6.815		0.591108448	0.727314708	0.011846565	0.122218831	0.037669031
2019-11-21T13:30:00	0.2370	6.817		0.592058529	0.728700067	0.011881845	0.122582804	0.037781211
2019-11-21T13:35:00	0.2372	6.821		0.592673999	0.729597917	0.011904728	0.122818884	0.037853973
2019-11-21T13:40:00	0.2372	6.825		0.592620676	0.729520115	0.011902745	0.122798421	0.037847666
2019-11-21T13:45:00	0.2369	6.827		0.591564067	0.727978975	0.011863477	0.122393308	0.037722806
2019-11-21T13:50:00	0.2372	6.831		0.592514025	0.729364516	0.011898778	0.122757499	0.037835053
2019-11-21T13:55:00	0.2367	6.836		0.591122884	0.727335751	0.011847101	0.122224357	0.037670734
2019-11-21T14:00:00	0.2370	6.840		0.592072961	0.728721117	0.011882381	0.122588336	0.037782916
2019-11-21T14:05:00	0.2370	6.846		0.592019628	0.728643329	0.011880399	0.122567890	0.037776614
2019-11-21T14:10:00	0.2372	6.851		0.592635105	0.729541168	0.011903281	0.122803958	0.037849373
2019-11-21T14:15:00	0.2379	6.853		0.594921657	0.732879488	0.011988487	0.123683015	0.038120307
2019-11-21T14:20:00	0.2381	6.857		0.595536628	0.733778079	0.012011457	0.123919988	0.038193344
2019-11-21T14:25:00	0.2377	6.859		0.594480893	0.732235642	0.011972039	0.123513315	0.038068003
2019-11-21T14:30:00	0.2380	6.862		0.595430066	0.733622349	0.012007475	0.123878909	0.038180683
2019-11-21T14:35:00	0.2374	6.864		0.593371529	0.730615857	0.011930689	0.123086723	0.037936523
2019-11-21T14:40:00	0.2374	6.866		0.593318216	0.730538039	0.011928704	0.123066241	0.037930211
2019-11-21T14:45:00	0.2372	6.868		0.592596210	0.729484420	0.011901835	0.122789033	0.037844772
2019-11-21T14:50:00	0.2372	6.868		0.592542885	0.729406620	0.011899851	0.122768572	0.037838466
2019-11-21T14:55:00	0.2376	6.870		0.594161101	0.731768608	0.011960111	0.123390265	0.038030078
2019-11-21T15:00:00	0.2378	6.870		0.594776205	0.732667002	0.011983058	0.123627001	0.038103042
2019-11-21T15:05:00	0.2383	6.871		0.596393398	0.735030510	0.012043496	0.124250524	0.038295218
2019-11-21T15:10:00	0.2384	6.871		0.596674138	0.735441030	0.012054003	0.124358930	0.038328630
2019-11-21T15:15:00	0.2385	6.871		0.596954855	0.735851584	0.012064515	0.124467376	0.038362054
2019-11-21T15:20:00	0.2384	6.871		0.596567610	0.735285249	0.012050016	0.124317789	0.038315950
2019-11-21T15:25:00	0.2383	6.871		0.596514345	0.735207360	0.012048022	0.124297221	0.038309611
2019-11-21T15:30:00	0.2385	6.871		0.597129039	0.736106364	0.012071040	0.124534690	0.038382801
2019-11-21T15:35:00	0.2389	6.871		0.598411344	0.737982778	0.012119129	0.125030821	0.038535713
2019-11-21T15:40:00	0.2392	6.871		0.599359462	0.739371056	0.012154749	0.125398306	0.038648976
2019-11-21T15:45:00	0.2392	6.871		0.599306239	0.739293105	0.012152748	0.125377662	0.038642613
2019-11-21T15:50:00	0.2401	6.871		0.602255472	0.743616184	0.012263882	0.126524214	0.038995992
2019-11-21T15:55:00	0.2401	6.872		0.602202292	0.743538167	0.012261874	0.126503492	0.038989605
2019-11-21T16:00:00	0.2398	6.873		0.601482099	0.742481846	0.012234690	0.126223036	0.038903166
2019-11-21T16:05:00	0.2401	6.874		0.602485555	0.743953753	0.012272574	0.126613887	0.039023630
2019-11-21T16:10:00	0.2401	6.875		0.602488538	0.743958130	0.012272687	0.126615050	0.039023988
2019-11-21T16:15:00	0.2397	6.876		0.601157500	0.742005892	0.012222447	0.126096736	0.038864239
2019-11-21T16:20:00	0.2390	6.877		0.598824738	0.738587996	0.012134653	0.125190982	0.038585076
2019-11-21T16:25:00	0.2389	6.877		0.598493921	0.738103661	0.012122229	0.125062806	0.038545571
2019-11-21T16:30:00	0.2383	6.878		0.596493424	0.735176769	0.012047239	0.124289143	0.038307121
2019-11-21T16:35:00	0.2380	6.880		0.595494246	0.733716140	0.012009873	0.123903649	0.038188308
2019-11-21T16:40:00	0.2374	6.880		0.593492049	0.730791779	0.011935178	0.123133031	0.037950796
2019-11-21T16:45:00	0.2372	6.881		0.592826392	0.729820277	0.011910397	0.122877375	0.037872000
2019-11-21T16:50:00	0.2365	6.882		0.590488119	0.726410581	0.011823560	0.121981485	0.037595878
2019-11-21T16:55:00	0.2361	6.883		0.589152550	0.724465085	0.011774106	0.121471281	0.037438629
2019-11-21T17:00:00	0.2365	6.883		0.590494107	0.726419307	0.011823782	0.121983775	0.037596584
2019-11-21T17:05:00	0.2359	6.884		0.588489068	0.723499157	0.011749578	0.121218231	0.037360636
2019-11-21T17:10:00	0.2356	6.885		0.587487619	0.722041895	0.011712606	0.120836792	0.037243073
2019-11-21T17:15:00	0.2348	6.886		0.584810697	0.718150659	0.011614069	0.119820211	0.036929753
2019-11-21T17:20:00	0.2348	6.886		0.584478563	0.717668277	0.011601873	0.119694387	0.036890973
2019-11-21T17:25:00	0.2345	6.886		0.583475972	0.716212698	0.011565098	0.119314982	0.036774036
2019-11-21T17:30:00	0.2342	6.888		0.582473094	0.714757540	0.011528372	0.118936085	0.036657256
2019-11-21T17:35:00	0.2340	6.887		0.581805351	0.713789119	0.011503951	0.118684146	0.036579606
2019-11-21T17:40:00	0.2338	6.888		0.581137481	0.712820885	0.011479553	0.118432433	0.036502026
2019-11-21T17:45:00	0.2340	6.889		0.581811353	0.713797823	0.011504171	0.118686410	0.036580304
2019-11-21T17:50:00	0.2336	6.890		0.580472486	0.711857186	0.011455286	0.118182075	0.036424863
2019-11-21T17:55:00	0.2340	6.890		0.581817355	0.713806526	0.011504390	0.118688673	0.036581002
2019-11-21T18:00:00	0.2337	6.892		0.580814005	0.712352064	0.011467746	0.118310617	0.036464481
2019-11-21T18:05:00	0.2337	6.892		0.580817007	0.712356414	0.011467855	0.118311747	0.036464829
2019-11-21T18:10:00	0.2337	6.893		0.580820009	0.712360764	0.011467965	0.118312877	0.036465178
2019-11-21T18:15:00	0.2339	6.893		0.581493942	0.713337613	0.011492572	0.118566746	0.036543422
2019-11-21T18:20:00	0.2340	6.894		0.581832361	0.713828284	0.011504939	0.118694332	0.036582746
2019-11-21T18:25:00	0.2339	6.895		0.581499945	0.713346316	0.011492791	0.118569008	0.036544120
2019-11-21T18:30:00	0.2337	6.896		0.580832017	0.712378166	0.011468403	0.118317398	0.036466571
2019-11-21T18:35:00	0.2337	6.895		0.580835018	0.712382517	0.011468512	0.118318528	0.036466920
2019-11-21T18:40:00	0.2337	6.897		0.580838020	0.712386867	0.011468622	0.118319659	0.036467268
2019-11-21T18:45:00	0.2335	6.897		0.580169966	0.711418902	0.011444255	0.118068272	0.036389788
2019-11-21T18:50:00	0.2333	6.897		0.579501785	0.710451124	0.011419910	0.117817111	0.036312378
2019-11-21T18:55:00	0.2331	6.897		0.578833476	0.709483532	0.011395588	0.117566176	0.036235037
2019-11-21T19:00:00	0.2330	6.897		0.578500776	0.709001980	0.011383489	0.117441356	0.036196567
2019-11-21T19:05:00	0.2330	6.899		0.578503780	0.709006327	0.011383598	0.117442483	0.036196914
2019-11-21T19:10:00	0.2329	6.899		0.578171048	0.708524821	0.011371505	0.117317718	0.036158460
2019-11-21T19:15:00	0.2327	6.900		0.577502486	0.707557600	0.011347225	0.117067232	0.036081258
2019-11-21T19:20:00	0.2327	6.899		0.577505491	0.707561946	0.011347334	0.117068358	0.036081605
2019-11-21T19:25:00	0.2327	6.901		0.577508496	0.707566293	0.011347443	0.117069483	0.036081952
2019-11-21T19:30:00	0.2332	6.901		0.579190171	0.709999918	0.011408566	0.117700073	0.036276306
2019-11-21T19:35:00	0.2331	6.901		0.578857505	0.709518316	0.011396462	0.117575193	0.036237817
2019-11-21T19:40:00	0.2327	6.901		0.577517510	0.707579331	0.011347771	0.117072858	0.036082992
2019-11-21T19:45:00	0.2327	6.901		0.577520515	0.707583678	0.011347880	0.117073984	0.036083339
2019-11-21T19:50:00	0.2320	6.901		0.575172038	0.704188997	0.011262800	0.116196235	0.035812808
2019-11-21T19:55:00	0.2318	6.902		0.574502904	0.703222612	0.011238619	0.115946762	0.035735918
2019-11-21T20:00:00	0.2316	6.902		0.573833642	0.702256413	0.011214460	0.115697515	0.035659098
2019-11-21T20:05:00	0.2313	6.902		0.572828005	0.700805295	0.011178208	0.115323509	0.035543825
2019-11-21T20:10:00	0.2311	6.902		0.572158423	0.699839562	0.011154103	0.115074827	0.035467179
2019-11-21T20:15:00	0.2313	6.900		0.572834022	0.700813976	0.011178425	0.115325745	0.035544515
2019-11-21T20:20:00	0.2317	6.898		0.574181824	0.702759029	0.011227025	0.115827151	0.035699053
2019-11-21T20:25:00	0.2316	6.897		0.573848682	0.702278122	0.011215002	0.115703113	0.035660823
2019-11-21T20:30:00	0.2308	6.896		0.571161335	0.698402160	0.011118258	0.114705018	0.035353201
2019-11-21T20:35:00	0.2304	6.895		0.569818393	0.696467473	0.011070072	0.114207895	0.035199982
2019-11-21T20:40:00	0.2306	6.895		0.570494444	0.697441229	0.011094316	0.114458015	0.035277072
2019-11-21T20:45:00	0.2316	6.894		0.573860714	0.702295489	0.011215437	0.115707591	0.035662203
2019-11-21T20:50:00	0.2315	6.895		0.573527541	0.701814626	0.011203419	0.115583608	0.035623990
2019-11-21T20:55:00	0.2311	6.896		0.572185507	0.699878619	0.011155078	0.115084881	0.035470278
2019-11-21T21:00:00	0.2310	6.895		0.571852175	0.699397988	0.011143087	0.114961179	0.035432152
2019-11-21T21:05:00	0.2309	6.895		0.571518812	0.698917404	0.011131103	0.114837533	0.035394043
2019-11-21T21:10:00	0.2316	6.895		0.573875753	0.702317197	0.011215979	0.115713190	0.035663929
2019-11-21T21:15:00	0.2317	6.894		0.574214908	0.702806792	0.011228220	0.115839472	0.035702850
2019-11-21T21:20:00	0.2316	6.894		0.573881769	0.702325881	0.011216196	0.115715429	0.035664619
2019-11-21T21:25:00	0.2311	6.893		0.572203563	0.699904657	0.011155727	0.115091584	0.035472344
2019-11-21T21:30:00	0.2317	6.892		0.574223930	0.702819819	0.011228545	0.115842833	0.035703886
2019-11-21T21:35:00	0.2315	6.891		0.573554615	0.701853698	0.011204395	0.115593680	0.035627095
2019-11-21T21:40:00	0.2312	6.891		0.572548898	0.700402696	0.011168157	0.115219816	0.035511866
2019-11-21T21:45:00	0.2315	6.892		0.573560631	0.701862380	0.011204612	0.115595918	0.035627785
2019-11-21T21:50:00	0.2315	6.894		0.573563640	0.701866722	0.011204721	0.115597038	0.035628130
2019-11-21T21:55:00	0.2313	6.892		0.572894198	0.700900785	0.011180592	0.115348108	0.035551407
2019-11-21T22:00:00	0.2318	6.891		0.574578088	0.703331176	0.011241335	0.115974779	0.035744553
2019-11-21T22:05:00	0.2315	6.889		0.573670866	0.702021474	0.011208588	0.115636935	0.035640426
2019-11-21T22:10:00	0.2314	6.888		0.573099663	0.701197211	0.011187995	0.115424480	0.035574946
2019-11-21T22:15:00	0.2312	6.886		0.572528367	0.700373085	0.011167418	0.115212190	0.035509516
2019-11-21T22:20:00	0.2315	6.885		0.573638310	0.701974487	0.011207414	0.115624821	0.035636693
2019-11-21T22:25:00	0.2311	6.884		0.572058235	0.699695095	0.011150499	0.115037642	0.035455718
2019-11-21T22:30:00	0.2310	6.882		0.571823145	0.699356135	0.011142044	0.114950409	0.035428832
2019-11-21T22:35:00	0.2310	6.882		0.571924406	0.699502130	0.011145685	0.114987979	0.035440412
2019-11-21T22:40:00	0.2308	6.881		0.571352918	0.698678283	0.011125141	0.114776028	0.035375086
2019-11-21T22:45:00	0.2312	6.882		0.572463234	0.700279143	0.011165073	0.115188000	0.035502060
2019-11-21T22:50:00	0.2311	6.884		0.572228171	0.699940143	0.011156613	0.115100719	0.035475159
2019-11-21T22:55:00	0.2319	6.886		0.575018878	0.703967766	0.011257263	0.116139108	0.035795201
2019-11-21T23:00:00	0.2318	6.888		0.574447895	0.703143183	0.011236632	0.115926265	0.035729601
2019-11-21T23:05:00	0.2318	6.890		0.574549080	0.703289289	0.011240287	0.115963969	0.035741221
2019-11-21T23:10:00	0.2316	6.892		0.573978021	0.702464818	0.011219669	0.115751261	0.035675663
2019-11-21T23:15:00	0.2312	6.892		0.572398099	0.700185203	0.011162728	0.115163811	0.035494605
2019-11-21T23:20:00	0.2316	6.895		0.573844265	0.702271747	0.011214843	0.115701469	0.035660316
2019-11-21T23:25:00	0.2319	6.896		0.574953791	0.703873756	0.011254910	0.116114836	0.035787720
2019-11-21T23:30:00	0.2317	6.898		0.574382797	0.703049189	0.011234282	0.115902012	0.035722126
2019-11-21T23:35:00	0.2325	6.900		0.576835927	0.706593646	0.011323045	0.116817769	0.036004371
2019-11-21T23:40:00	0.2330	6.901		0.578615989	0.709168729	0.011387678	0.117484573	0.036209886
2019-11-21T23:45:00	0.2331	6.903		0.579052737	0.709800942	0.011403565	0.117648473	0.036260402
2019-11-21T23:50:00	0.2329	6.904		0.578146672	0.708489549	0.011370619	0.117308581	0.036155644
2019-11-21T23:55:00	0.2331	6.906		0.578919174	0.709607588	0.011398705	0.117598338	0.036244950
2019-11-22T00:00:00	0.2330	6.907		0.578684544	0.709267956	0.011390171	0.117510292	0.036217813
2019-11-22T00:05:00	0.2340	6.909		0.581805541	0.713789395	0.011503958	0.118684218	0.036579629
2019-11-22T00:10:00	0.2346	6.911		0.583918304	0.716854781	0.011581315	0.119482295	0.036825604
2019-11-22T00:15:00	0.2348	6.913		0.584689538	0.717974681	0.011609620	0.119774304	0.036915604
2019-11-22T00:20:00	0.2357	6.914		0.587805211	0.722503949	0.011724324	0.120957692	0.037280335
2019-11-22T00:25:00	0.2363	6.917		0.589579728	0.725087185	0.011789912	0.121634349	0.037488888
2019-11-22T00:30:00	0.2366	6.919		0.590684298	0.726696476	0.011830833	0.122056520	0.037619005
2019-11-22T00:35:00	0.2367	6.920		0.591119550	0.727330891	0.011846977	0.122223081	0.037670341
2019-11-22T00:40:00	0.2370	6.922		0.591889208	0.728453118	0.011875554	0.122517897	0.037761206
2019-11-22T00:45:00	0.2366	6.923		0.590651899	0.726649258	0.011829631	0.122044126	0.037615185
2019-11-22T00:50:00	0.2366	6.923		0.590752618	0.726796048	0.011833366	0.122082657	0.037627061
2019-11-22T00:55:00	0.2363	6.925		0.589514910	0.724992780	0.011787513	0.121609599	0.037481259
2019-11-22T01:00:00	0.2359	6.925		0.588276766	0.723190155	0.011741735	0.121137316	0.037335697
2019-11-22T01:05:00	0.2358	6.926		0.588042760	0.722849606	0.011733093	0.121048162	0.037308219
2019-11-22T01:10:00	0.2357	6.927		0.587808738	0.722509080	0.011724454	0.120959035	0.037280749
2019-11-22T01:15:00	0.2355	6.928		0.586904928	0.721194373	0.011691121	0.120615136	0.037174756
2019-11-22T01:20:00	0.2358	6.928		0.588010336	0.722802424	0.011731896	0.121035811	0.037304413
2019-11-22T01:25:00	0.2365	6.928		0.590453975	0.726360826	0.011822294	0.121968428	0.037591854
2019-11-22T01:30:00	0.2364	6.928		0.589885495	0.725532567	0.011801232	0.121751139	0.037524884
2019-11-22T01:35:00	0.2365	6.929		0.590320845	0.726166836	0.011817360	0.121917524	0.037576165
2019-11-22T01:40:00	0.2369	6.928		0.591759656	0.728264184	0.011870741	0.122468246	0.037745903
2019-11-22T01:45:00	0.2369	6.928		0.591525880	0.727923293	0.011862059	0.122378680	0.037718298
2019-11-22T01:50:00	0.2369	6.929		0.591626575	0.728070121	0.011865798	0.122417255	0.037730187
2019-11-22T01:55:00	0.2364	6.928		0.590054570	0.725778877	0.011807494	0.121815744	0.037544795
2019-11-22T02:00:00	0.2363	6.928		0.589820682	0.725438154	0.011798832	0.121726379	0.037517252
2019-11-22T02:05:00	0.2359	6.926		0.588247871	0.723148102	0.011740668	0.121126306	0.037332304
2019-11-22T02:10:00	0.2362	6.925		0.589352859	0.724756776	0.011781516	0.121547732	0.037462191
2019-11-22T02:15:00	0.2362	6.924		0.589453615	0.724903511	0.011785245	0.121586196	0.037474047
2019-11-22T02:20:00	0.2365	6.921		0.590223638	0.726025199	0.011813758	0.121880363	0.037564712
2019-11-22T02:25:00	0.2371	6.916		0.592331357	0.729098030	0.011891986	0.122687425	0.037813456
2019-11-22T02:30:00	0.2369	6.911		0.591763179	0.728269322	0.011870872	0.122469596	0.037746319
2019-11-22T02:35:00	0.2368	6.907		0.591194909	0.727440749	0.011849774	0.122251931	0.037679232
2019-11-22T02:40:00	0.2370	6.904		0.591964551	0.728563000	0.011878353	0.122546776	0.037770107
2019-11-22T02:45:00	0.2363	6.901		0.589723461	0.725296537	0.011795233	0.121689242	0.037505806
2019-11-22T02:50:00	0.2362	6.900		0.589489551	0.724955847	0.011786574	0.121599916	0.037478275
2019-11-22T02:55:00	0.2361	6.897		0.588920914	0.724127817	0.011765540	0.121382905	0.037411390
2019-11-22T03:00:00	0.2357	6.894		0.587682562	0.722325501	0.011719798	0.120910995	0.037265943
2019-11-22T03:05:00	0.2352	6.892		0.586108796	0.720036861	0.011661798	0.120312625	0.037081519
2019-11-22T03:10:00	0.2353	6.889		0.586209645	0.720183459	0.011665511	0.120350924	0.037093323
2019-11-22T03:15:00	0.2357	6.887		0.587650135	0.722278324	0.011718601	0.120898651	0.037262138
2019-11-22T03:20:00	0.2352	6.884		0.586076355	0.719989705	0.011660604	0.120300306	0.037077723
2019-11-22T03:25:00	0.2353	6.880		0.586177205	0.720136302	0.011664317	0.120338603	0.037089526
2019-11-22T03:30:00	0.2350	6.877		0.585272976	0.718822213	0.011631055	0.119995451	0.036983763
2019-11-22T03:35:00	0.2356	6.874		0.587383658	0.721890664	0.011708771	0.120797230	0.037230880
2019-11-22T03:40:00	0.2351	6.871		0.585809759	0.719602221	0.011650794	0.120199098	0.037046529
2019-11-22T03:45:00	0.2346	6.868		0.583899967	0.716828159	0.011580643	0.119475357	0.036823465
2019-11-22T03:50:00	0.2340	6.864		0.581989137	0.714055624	0.011510670	0.118753461	0.036600970
2019-11-22T03:55:00	0.2330	6.862		0.578734734	0.709340603	0.011391996	0.117529123	0.036223617
2019-11-22T04:00:00	0.2333	6.858		0.579507107	0.710458831	0.011420104	0.117819111	0.036312994
2019-11-22T04:05:00	0.2335	6.851		0.580178290	0.711430960	0.011444559	0.118071402	0.036390753
2019-11-22T04:10:00	0.2331	6.843		0.578835795	0.709486889	0.011395672	0.117567046	0.036235305
2019-11-22T04:15:00	0.2331	6.835		0.578835795	0.709486889	0.011395672	0.117567046	0.036235305
2019-11-22T04:20:00	0.2326	6.826		0.577156955	0.707057859	0.011334687	0.116937881	0.036041391
2019-11-22T04:25:00	0.2323	6.815		0.576149265	0.705601005	0.011298163	0.116561066	0.035925253
2019-11-22T04:30:00	0.2325	6.800		0.576821090	0.706572194	0.011322507	0.116812219	0.036002660
2019-11-22T04:35:00	0.2319	6.778		0.574805228	0.703659191	0.011249541	0.116059443	0.035770648
2019-11-22T04:40:00	0.2322	6.756		0.575813304	0.705115481	0.011285999	0.116435575	0.035886575
2019-11-22T04:45:00	0.2320	6.733		0.575141285	0.704144574	0.011261688	0.116184763	0.035809272
2019-11-22T04:50:00	0.2319	6.712		0.574805228	0.703659191	0.011249541	0.116059443	0.035770648
2019-11-22T04:55:00	0.2318	6.690		0.574469138	0.703173855	0.011237400	0.115934180	0.035732040
2019-11-22T05:00:00	0.2310	6.668		0.571779257	0.699292860	0.011140465	0.114934128	0.035423814
2019-11-22T05:05:00	0.2312	6.648		0.572451921	0.700262827	0.011164666	0.115183798	0.035500765
2019-11-22T05:10:00	0.2321	6.626		0.575477311	0.704630004	0.011273841	0.116310141	0.035847915
2019-11-22T05:15:00	0.2316	6.605		0.573796861	0.702203324	0.011213133	0.115683825	0.035654878
2019-11-22T05:20:00	0.2321	6.586		0.575477311	0.704630004	0.011273841	0.116310141	0.035847915
2019-11-22T05:25:00	0.2326	6.565		0.577156955	0.707057859	0.011334687	0.116937881	0.036041391
2019-11-22T05:30:00	0.2329	6.545		0.578164355	0.708515136	0.011371262	0.117315209	0.036157687
2019-11-22T05:35:00	0.2342	6.525		0.582526420	0.714834894	0.011530323	0.118956216	0.036663461
2019-11-22T05:40:00	0.2346	6.508		0.583867505	0.716781034	0.011579452	0.119463075	0.036819680
2019-11-22T05:45:00	0.2346	6.492		0.583867505	0.716781034	0.011579452	0.119463075	0.036819680
2019-11-22T05:50:00	0.2356	6.477		0.587217982	0.721649674	0.011702661	0.120734196	0.037211452
2019-11-22T05:55:00	0.2354	6.465		0.586548142	0.720675570	0.011677975	0.120479518	0.037132957
2019-11-22T06:00:00	0.2355	6.452		0.586883078	0.721162598	0.011690315	0.120606829	0.037172196
2019-11-22T06:05:00	0.2347	6.439		0.584202697	0.717267686	0.011591748	0.119589931	0.036858778
2019-11-22T06:10:00	0.2346	6.427		0.583867505	0.716781034	0.011579452	0.119463075	0.036819680
2019-11-22T06:15:00	0.2358	6.420		0.587887695	0.722623966	0.011727369	0.120989102	0.037290016
2019-11-22T06:20:00	0.2357	6.413		0.587552854	0.722136796	0.011715012	0.120861621	0.037250725
2019-11-22T06:25:00	0.2365	6.409		0.590230687	0.726035470	0.011814019	0.121883058	0.037565542
2019-11-22T06:30:00	0.2368	6.406		0.591234350	0.727498248	0.011851237	0.122267032	0.037683887
2019-11-22T06:35:00	0.2364	6.401		0.589896069	0.725547971	0.011801624	0.121755180	0.037526129
2019-11-22T06:40:00	0.2369	6.399		0.591568841	0.727985935	0.011863655	0.122395137	0.037723370
2019-11-22T06:45:00	0.2378	6.398		0.594577832	0.732377232	0.011975655	0.123550627	0.038079503
2019-11-22T06:50:00	0.2381	6.398		0.595580259	0.733841844	0.012013088	0.123936810	0.038198528
2019-11-22T06:55:00	0.2382	6.398		0.595914338	0.734330142	0.012025576	0.124065650	0.038238238
2019-11-22T07:00:00	0.2387	6.393		0.597584260	0.736772337	0.012088100	0.124710702	0.038437049
2019-11-22T07:05:00	0.2381	6.390		0.595580259	0.733841844	0.012013088	0.123936810	0.038198528
2019-11-22T07:10:00	0.2380	6.387		0.595246148	0.733353593	0.012000605	0.123808026	0.038158836
2019-11-22T07:15:00	0.2392	6.379		0.599253393	0.739215708	0.012150761	0.125357166	0.038636296
2019-11-22T07:20:00	0.2405	6.372		0.603589457	0.745573973	0.012314321	0.127044582	0.039156374
2019-11-22T07:25:00	0.2406	6.374		0.603922781	0.746063400	0.012326941	0.127174778	0.039196502
2019-11-22T07:30:00	0.2409	6.382		0.604922563	0.747531961	0.012364833	0.127565705	0.039316989
2019-11-22T07:35:00	0.2410	6.392		0.605255761	0.748021576	0.012377475	0.127696127	0.039357186
2019-11-22T07:40:00	0.2408	6.403		0.604589334	0.747042394	0.012352197	0.127435340	0.039276809
2019-11-22T07:45:00	0.2396	6.415		0.600588133	0.741171251	0.012200989	0.125875355	0.038796007
2019-11-22T07:50:00	0.2394	6.427		0.599920826	0.740193386	0.012175864	0.125616148	0.038716117
2019-11-22T07:55:00	0.2402	6.433		0.602589298	0.744105976	0.012276495	0.126654332	0.039036095
2019-11-22T08:00:00	0.2398	6.440		0.601255314	0.742149305	0.012226136	0.126134788	0.038875967
2019-11-22T08:05:00	0.2388	6.442		0.597918149	0.737260917	0.012100622	0.124839882	0.038476864
2019-11-22T08:10:00	0.2384	6.441		0.596582401	0.735306879	0.012050569	0.124323501	0.038317711
2019-11-22T08:15:00	0.2383	6.440		0.596248385	0.734818487	0.012038070	0.124194548	0.038277966
2019-11-22T08:20:00	0.2384	6.442		0.596582401	0.735306879	0.012050569	0.124323501	0.038317711
2019-11-22T08:25:00	0.2382	6.444		0.595914338	0.734330142	0.012025576	0.124065650	0.038238238
2019-11-22T08:30:00	0.2388	6.450		0.597918149	0.737260917	0.012100622	0.124839882	0.038476864
2019-11-22T08:35:00	0.2391	6.459		0.598919629	0.738726940	0.012138218	0.125227761	0.038596412
2019-11-22T08:40:00	0.2397	6.470		0.600921739	0.741660254	0.012213560	0.126005043	0.038835978
2019-11-22T08:45:00	0.2404	6.482		0.603256102	0.745084594	0.012301707	0.126914442	0.039116264
2019-11-22T08:50:00	0.2413	6.499		0.606255168	0.749490701	0.012415433	0.128087730	0.039477882
2019-11-22T08:55:00	0.2404	6.525		0.603256102	0.745084594	0.012301707	0.126914442	0.039116264
2019-11-22T09:00:00	0.2399	6.553		0.601588857	0.742638402	0.012238717	0.126264589	0.038915973
2019-11-22T09:05:00	0.2396	6.578		0.600588133	0.741171251	0.012200989	0.125875355	0.038796007
2019-11-22T09:10:00	0.2390	6.605		0.598585834	0.738238219	0.012125681	0.125098411	0.038556545
2019-11-22T09:15:00	0.2395	6.630		0.600254495	0.740682295	0.012188424	0.125745723	0.038756053
2019-11-22T09:20:00	0.2410	6.647		0.605255761	0.748021576	0.012377475	0.127696127	0.039357186
2019-11-22T09:25:00	0.2414	6.662		0.606588241	0.749980504	0.012428096	0.128218378	0.039518149
2019-11-22T09:30:00	0.2418	6.677		0.607920220	0.751940185	0.012478805	0.128741530	0.039679390
2019-11-22T09:35:00	0.2423	6.694		0.609584491	0.754390843	0.012542314	0.129396737	0.039881331
2019-11-22T09:40:00	0.2419	6.716		0.608253137	0.752430222	0.012491496	0.128872459	0.039719743
2019-11-22T09:45:00	0.2420	6.742		0.608586022	0.752920307	0.012504192	0.129003444	0.039760114
2019-11-22T09:50:00	0.2415	6.763		0.606921283	0.750470354	0.012440765	0.128349081	0.039558433
2019-11-22T09:55:00	0.2415	6.778		0.606921283	0.750470354	0.012440765	0.128349081	0.039558433
2019-11-22T10:00:00	0.2415	6.790		0.606921283	0.750470354	0.012440765	0.128349081	0.039558433
2019-11-22T10:05:00	0.2411	6.801		0.605633114	0.748576185	0.012391800	0.127843915	0.039402736
2019-11-22T10:10:00	0.2413	6.814		0.606343523	0.749620623	0.012418791	0.128122381	0.039488562
2019-11-22T10:15:00	0.2416	6.826		0.607386787	0.751155190	0.012458484	0.128531885	0.039614775
2019-11-22T10:20:00	0.2416	6.838		0.607430950	0.751220172	0.012460166	0.128549235	0.039620123
2019-11-22T10:25:00	0.2413	6.849		0.606476051	0.749815512	0.012423830	0.128174364	0.039504584
2019-11-22T10:30:00	0.2407	6.863		0.604521280	0.746942423	0.012349617	0.127408724	0.039268606
2019-11-22T10:35:00	0.2412	6.872		0.605898218	0.748965890	0.012401869	0.127947794	0.039434753
2019-11-22T10:40:00	0.2412	6.883		0.605942400	0.749030844	0.012403547	0.127965110	0.039440090
2019-11-22T10:45:00	0.2412	6.891		0.605986582	0.749095798	0.012405226	0.127982428	0.039445427
2019-11-22T10:50:00	0.2410	6.900		0.605364481	0.748181353	0.012381601	0.127738697	0.039370307
2019-11-22T10:55:00	0.2413	6.910		0.606408033	0.749715487	0.012421244	0.128147683	0.039496360
2019-11-22T11:00:00	0.2410	6.918		0.605452858	0.748311241	0.012384956	0.127773307	0.039380974
2019-11-22T11:05:00	0.2410	6.928		0.605497045	0.748376186	0.012386633	0.127790614	0.039386308
2019-11-22T11:10:00	0.2423	6.939		0.609536849	0.754320657	0.012540493	0.129377957	0.039875543
2019-11-22T11:15:00	0.2416	6.950		0.607250785	0.750955090	0.012453306	0.128478463	0.039598310
2019-11-22T11:20:00	0.2409	6.962		0.604963248	0.747591740	0.012366376	0.127581626	0.039321896
2019-11-22T11:25:00	0.2400	6.970		0.602007319	0.743252153	0.012254511	0.126427535	0.038966194
2019-11-22T11:30:00	0.2398	6.975		0.601384519	0.742338756	0.012231009	0.126185061	0.038891461
2019-11-22T11:35:00	0.2387	6.979		0.597757883	0.737026389	0.012094611	0.124777867	0.038457750
2019-11-22T11:40:00	0.2387	6.988		0.597802167	0.737091190	0.012096271	0.124795001	0.038463031
2019-11-22T11:45:00	0.2380	6.997		0.595508512	0.733736989	0.012010406	0.123909149	0.038190003
2019-11-22T11:50:00	0.2371	7.000		0.592210267	0.728921393	0.011887484	0.122640985	0.037799143
2019-11-22T11:55:00	0.2374	7.001		0.593257707	0.730449723	0.011926451	0.123042997	0.037923047
2019-11-22T12:00:00	0.2381	7.003		0.595641446	0.733931270	0.012015374	0.123960402	0.038205800
2019-11-22T12:05:00	0.2377	7.008		0.594349164	0.732043251	0.011967125	0.123462620	0.038052379
2019-11-22T12:10:00	0.2377	7.016		0.594393491	0.732107989	0.011968778	0.123479678	0.038057636
2019-11-22T12:15:00	0.2376	7.026		0.594103598	0.731684637	0.011957967	0.123368146	0.038023261
2019-11-22T12:20:00	0.2374	7.038		0.593479403	0.730773318	0.011934707	0.123128171	0.037949298
2019-11-22T12:25:00	0.2376	7.052		0.593858014	0.731326049	0.011948813	0.123273701	0.037994152
2019-11-22T12:30:00	0.2374	7.065		0.593233776	0.730414795	0.011925560	0.123033804	0.037920213
2019-11-22T12:35:00	0.2376	7.076		0.593946679	0.731455507	0.011952118	0.123307795	0.038004660
2019-11-22T12:40:00	0.2367	7.081		0.590981519	0.727129683	0.011841856	0.122170247	0.037654057
2019-11-22T12:45:00	0.2364	7.074		0.590022166	0.725731668	0.011806294	0.121803361	0.037540979
2019-11-22T12:50:00	0.2363	7.066		0.589731913	0.725308849	0.011795546	0.121692471	0.037506801
2019-11-22T12:55:00	0.2357	7.057		0.587767855	0.722449597	0.011722946	0.120943468	0.037275952
2019-11-22T13:00:00	0.2347	7.048		0.584462354	0.717644738	0.011601278	0.119688249	0.036889081
2019-11-22T13:05:00	0.2348	7.038		0.584506805	0.717709291	0.011602910	0.119705084	0.036894269
2019-11-22T13:10:00	0.2351	7.030		0.585556538	0.719234232	0.011641480	0.120103008	0.037016913
2019-11-22T13:15:00	0.2343	7.021		0.582919617	0.715405333	0.011544716	0.119104709	0.036709228
2019-11-22T13:20:00	0.2338	7.012		0.581287220	0.713037935	0.011485021	0.118488845	0.036519413
2019-11-22T13:25:00	0.2339	7.003		0.581667145	0.713588726	0.011498900	0.118632035	0.036563545
2019-11-22T13:30:00	0.2337	6.995		0.581040741	0.712680669	0.011476021	0.118395996	0.036490796
2019-11-22T13:35:00	0.2342	6.986		0.582762199	0.715176941	0.011538953	0.119045248	0.036690902
2019-11-22T13:40:00	0.2348	6.978		0.584482814	0.717674451	0.011602029	0.119695998	0.036891469
2019-11-22T13:45:00	0.2356	6.971		0.587207399	0.721634281	0.011702271	0.120730171	0.037210211
2019-11-22T13:50:00	0.2348	6.964		0.584571716	0.717803560	0.011605293	0.119729670	0.036901847
2019-11-22T13:55:00	0.2346	6.957		0.583945829	0.716894742	0.011582325	0.119492711	0.036828814
2019-11-22T14:00:00	0.2345	6.951		0.583655076	0.716472663	0.011571663	0.119382714	0.036794912
2019-11-22T14:05:00	0.2338	6.944		0.581352190	0.713132116	0.011487394	0.118513325	0.036526958
2019-11-22T14:10:00	0.2341	6.939		0.582402866	0.714655671	0.011525802	0.118909574	0.036649086
2019-11-22T14:15:00	0.2344	6.933		0.583453227	0.716179687	0.011564264	0.119306382	0.036771386
2019-11-22T14:20:00	0.2340	6.929		0.581821078	0.713811924	0.011504526	0.118690077	0.036581434
2019-11-22T14:25:00	0.2335	6.922		0.580188171	0.711445275	0.011444919	0.118075119	0.036391898
2019-11-22T14:30:00	0.2336	6.913		0.580568215	0.711995892	0.011458778	0.118218099	0.036435966
2019-11-22T14:35:00	0.2333	6.905		0.579606017	0.710602067	0.011423706	0.117856273	0.036324448
2019-11-22T14:40:00	0.2335	6.895		0.580321685	0.711638700	0.011449787	0.118125339	0.036407377
2019-11-22T14:45:00	0.2337	6.884		0.581037207	0.712675547	0.011475892	0.118394665	0.036490386
2019-11-22T14:50:00	0.2340	6.873		0.582087977	0.714198963	0.011514284	0.118790747	0.036612462
2019-11-22T14:55:00	0.2343	6.861		0.582803140	0.715236338	0.011540452	0.119060711	0.036695667
2019-11-22T15:00:00	0.2344	6.848		0.583182900	0.715787370	0.011554359	0.119204193	0.036739890
2019-11-22T15:05:00	0.2344	6.833		0.583227368	0.715851900	0.011555988	0.119220999	0.036745070
2019-11-22T15:10:00	0.2344	6.818		0.583271834	0.715916431	0.011557617	0.119237807	0.036750250
2019-11-22T15:15:00	0.2348	6.801		0.584657084	0.717927545	0.011608428	0.119762009	0.036911814
2019-11-22T15:20:00	0.2347	6.785		0.584366389	0.717505380	0.011597756	0.119651907	0.036877880
2019-11-22T15:25:00	0.2349	6.768		0.585081089	0.718543436	0.011624003	0.119922695	0.036961339
2019-11-22T15:30:00	0.2352	6.753		0.586130651	0.720068629	0.011662603	0.120320924	0.037084077
2019-11-22T15:35:00	0.2353	6.736		0.586175081	0.720133213	0.011664238	0.120337796	0.037089278
2019-11-22T15:40:00	0.2348	6.720		0.584544195	0.717763592	0.011604283	0.119719246	0.036898634
2019-11-22T15:45:00	0.2351	6.704		0.585593917	0.719288549	0.011642855	0.120117190	0.037021284
2019-11-22T15:50:00	0.2351	6.687		0.585638354	0.719353123	0.011644489	0.120134050	0.037026481
2019-11-22T15:55:00	0.2347	6.669		0.584342398	0.717470541	0.011596875	0.119642823	0.036875080
2019-11-22T16:00:00	0.2353	6.651		0.586397222	0.720456149	0.011672417	0.120422175	0.037115284
2019-11-22T16:05:00	0.2354	6.635		0.586726179	0.720934441	0.011684534	0.120547182	0.037153812
2019-11-22T16:10:00	0.2357	6.619		0.587724848	0.722387024	0.011721358	0.120927094	0.037270905
2019-11-22T16:15:00	0.2358	6.604		0.588053681	0.722865499	0.011733497	0.121052322	0.037309501
2019-11-22T16:20:00	0.2355	6.589		0.587043118	0.721395345	0.011696214	0.120667685	0.037190952
2019-11-22T16:25:00	0.2352	6.574		0.586032265	0.719925619	0.011658982	0.120283565	0.037072563
2019-11-22T16:30:00	0.2349	6.560		0.585021122	0.718456321	0.011621799	0.119899962	0.036954333
2019-11-22T16:35:00	0.2356	6.545		0.587360029	0.721856291	0.011707899	0.120788239	0.037228108
2019-11-22T16:40:00	0.2361	6.532		0.589028014	0.724283752	0.011769500	0.121423763	0.037423983
2019-11-22T16:45:00	0.2360	6.519		0.588687292	0.723787702	0.011756903	0.121293805	0.037383929
2019-11-22T16:50:00	0.2366	6.506		0.590689224	0.726703655	0.011831015	0.122058404	0.037619586
2019-11-22T16:55:00	0.2368	6.493		0.591352291	0.727670195	0.011855615	0.122312194	0.037697806
2019-11-22T17:00:00	0.2362	6.480		0.589338757	0.724736240	0.011780995	0.121542349	0.037460532
2019-11-22T17:05:00	0.2359	6.466		0.588328563	0.723265541	0.011743648	0.121157055	0.037341781
2019-11-22T17:10:00	0.2357	6.453		0.587652942	0.722282407	0.011718705	0.120899719	0.037262468
2019-11-22T17:15:00	0.2353	6.440		0.586307305	0.720325428	0.011669106	0.120388017	0.037104756
2019-11-22T17:20:00	0.2359	6.427		0.588310590	0.723239382	0.011742984	0.121150206	0.037339670
2019-11-22T17:25:00	0.2353	6.412		0.586295316	0.720307999	0.011668665	0.120383463	0.037103352
2019-11-22T17:30:00	0.2361	6.399		0.588968115	0.724196538	0.011767285	0.121400911	0.037416940
2019-11-22T17:35:00	0.2360	6.387		0.588627386	0.723700497	0.011754689	0.121270963	0.037376888
2019-11-22T17:40:00	0.2360	6.374		0.588621396	0.723691776	0.011754468	0.121268679	0.037376185
2019-11-22T17:45:00	0.2359	6.361		0.588280634	0.723195784	0.011741878	0.121138790	0.037336152
2019-11-22T17:50:00	0.2360	6.348		0.588609414	0.723674335	0.011754025	0.121264111	0.037374777
2019-11-22T17:55:00	0.2357	6.334		0.587599011	0.722203946	0.011716715	0.120879190	0.037256140
2019-11-22T18:00:00	0.2351	6.320		0.585583330	0.719273163	0.011642466	0.120113173	0.037020046
2019-11-22T18:05:00	0.2358	6.308		0.587921863	0.722673684	0.011728630	0.121002115	0.037294027
2019-11-22T18:10:00	0.2356	6.292		0.587246164	0.721690665	0.011703700	0.120744918	0.037214756
2019-11-22T18:15:00	0.2353	6.280		0.586235369	0.720220853	0.011666458	0.120360694	0.037096335
2019-11-22T18:20:00	0.2353	6.266		0.586229375	0.720212139	0.011666237	0.120358417	0.037095633
2019-11-22T18:25:00	0.2350	6.255		0.585218288	0.718742758	0.011629045	0.119974713	0.036977372
2019-11-22T18:30:00	0.2350	6.241		0.585212292	0.718734046	0.011628825	0.119972439	0.036976671
2019-11-22T18:35:00	0.2353	6.230		0.586211391	0.720185996	0.011665575	0.120351586	0.037093528
2019-11-22T18:40:00	0.2354	6.217		0.586540365	0.720664262	0.011677689	0.120476563	0.037132047
2019-11-22T18:45:00	0.2355	6.206		0.586869308	0.721142573	0.011689808	0.120601593	0.037170582
2019-11-22T18:50:00	0.2358	6.195		0.587867937	0.722595217	0.011726639	0.120981578	0.037287697
2019-11-22T18:55:00	0.2357	6.185		0.587527102	0.722099332	0.011714062	0.120851819	0.037247704
2019-11-22T19:00:00	0.2355	6.173		0.586851327	0.721116425	0.011689145	0.120594757	0.037168475
2019-11-22T19:05:00	0.2365	6.162		0.590192978	0.725980528	0.011812622	0.121868643	0.037561099
2019-11-22T19:10:00	0.2366	6.150		0.590521581	0.726459343	0.011824800	0.121994282	0.037599822
2019-11-22T19:15:00	0.2364	6.138		0.589846380	0.725475587	0.011799784	0.121736196	0.037520278
2019-11-22T19:20:00	0.2367	6.127		0.590844165	0.726929478	0.011836761	0.122117684	0.037637856
2019-11-22T19:25:00	0.2373	6.114		0.593179211	0.730335157	0.011923529	0.123012846	0.037913754
2019-11-22T19:30:00	0.2379	6.103		0.595178595	0.733254886	0.011998082	0.123781996	0.038150813
2019-11-22T19:35:00	0.2383	6.091		0.596508897	0.735199394	0.012047818	0.124295118	0.038308962
2019-11-22T19:40:00	0.2377	6.081		0.594498305	0.732261074	0.011972688	0.123520016	0.038070069
2019-11-22T19:45:00	0.2379	6.073		0.595160657	0.733228676	0.011997412	0.123775084	0.038148683
2019-11-22T19:50:00	0.2382	6.063		0.596156941	0.734684794	0.012034649	0.124159256	0.038267088
2019-11-22T19:55:00	0.2386	6.058		0.597486874	0.736629850	0.012084449	0.124673037	0.038425441
2019-11-22T20:00:00	0.2395	6.049		0.600484859	0.741019891	0.012197099	0.125835222	0.038783637
2019-11-22T20:05:00	0.2402	6.041		0.602813544	0.744435043	0.012284970	0.126741776	0.039063046
2019-11-22T20:10:00	0.2404	6.035		0.603474340	0.745404966	0.012309964	0.126999633	0.039142520
2019-11-22T20:15:00	0.2407	6.028		0.604468286	0.746864577	0.012347608	0.127388000	0.039262219
2019-11-22T20:20:00	0.2406	6.022		0.604129049	0.746366315	0.012334754	0.127255381	0.039221344
2019-11-22T20:25:00	0.2406	6.017		0.604123085	0.746357555	0.012334528	0.127253050	0.039220626
2019-11-22T20:30:00	0.2406	6.016		0.604117120	0.746348796	0.012334302	0.127250719	0.039219907
2019-11-22T20:35:00	0.2407	6.016		0.604444430	0.746829536	0.012346704	0.127378672	0.039259344
2019-11-22T20:40:00	0.2411	6.023		0.605771253	0.748779243	0.012397046	0.127898038	0.039419417
2019-11-22T20:45:00	0.2410	6.026		0.605432141	0.748280793	0.012384170	0.127765194	0.039378474
2019-11-22T20:50:00	0.2403	6.028		0.603093246	0.744845547	0.012295547	0.126850889	0.039096676
2019-11-22T20:55:00	0.2407	6.029		0.604420575	0.746794495	0.012345800	0.127369344	0.039256469
2019-11-22T21:00:00	0.2415	6.029		0.607079701	0.750703394	0.012446794	0.128411277	0.039577603
2019-11-22T21:05:00	0.2418	6.028		0.608072636	0.752164523	0.012484614	0.128801463	0.039697862
2019-11-22T21:10:00	0.2419	6.025		0.608399581	0.752645812	0.012497080	0.128930074	0.039737501
2019-11-22T21:15:00	0.2414	6.022		0.606728794	0.750187224	0.012433442	0.128273530	0.039535148
2019-11-22T21:20:00	0.2404	6.020		0.603390822	0.745282358	0.012306804	0.126967028	0.039132471
2019-11-22T21:25:00	0.2403	6.015		0.603051483	0.744784249	0.012293967	0.126834594	0.039091654
2019-11-22T21:30:00	0.2409	6.011		0.605045294	0.747712296	0.012369489	0.127613737	0.039331793
2019-11-22T21:35:00	0.2415	6.007		0.607037985	0.750642026	0.012445206	0.128394898	0.039572554
2019-11-22T21:40:00	0.2416	6.002		0.607365025	0.751123171	0.012457656	0.128523337	0.039612141
2019-11-22T21:45:00	0.2417	5.998		0.607692036	0.751604362	0.012470110	0.128651830	0.039651743
2019-11-22T21:50:00	0.2419	6.000		0.608351923	0.752575650	0.012495263	0.128911323	0.039731722
2019-11-22T21:55:00	0.2420	5.998		0.608678843	0.753056977	0.012507733	0.129039980	0.039771375
2019-11-22T22:00:00	0.2421	6.001		0.609005732	0.753538350	0.012520209	0.129168691	0.039811045
2019-11-22T22:05:00	0.2406	6.005		0.604098170	0.746320965	0.012333584	0.127243313	0.039217625
2019-11-22T22:10:00	0.2406	6.011		0.604186578	0.746450806	0.012336933	0.127277866	0.039228274
2019-11-22T22:15:00	0.2406	6.018		0.603941694	0.746091174	0.012327657	0.127182168	0.039198779
2019-11-22T22:20:00	0.2397	6.019		0.601029156	0.741817727	0.012217609	0.126046816	0.038848853
2019-11-22T22:25:00	0.2390	6.018		0.598781866	0.738525224	0.012133043	0.125174367	0.038579956
2019-11-22T22:30:00	0.2392	6.013		0.599204175	0.739143627	0.012148911	0.125338080	0.038630413
2019-11-22T22:35:00	0.2387	6.012		0.597623591	0.736829886	0.012089575	0.124725916	0.038441738
2019-11-22T22:40:00	0.2395	6.013		0.600382301	0.740869587	0.012193236	0.125795373	0.038771356
2019-11-22T22:45:00	0.2398	6.016		0.601471559	0.742466390	0.012234292	0.126218934	0.038901901
2019-11-22T22:50:00	0.2382	6.022		0.595885468	0.734287941	0.012024497	0.124054514	0.038234806
2019-11-22T22:55:00	0.2379	6.024		0.594971767	0.732952697	0.011990358	0.123702316	0.038126255
2019-11-22T23:00:00	0.2381	6.024		0.595728629	0.734058693	0.012018633	0.123994022	0.038216162
2019-11-22T23:05:00	0.2369	6.023		0.591806098	0.728331912	0.011872466	0.122486044	0.037751388
2019-11-22T23:10:00	0.2363	6.022		0.589552929	0.725048153	0.011788920	0.121624116	0.037485734
2019-11-22T23:15:00	0.2359	6.022		0.588302816	0.723228068	0.011742697	0.121147243	0.037338757
2019-11-22T23:20:00	0.2359	6.020		0.588391621	0.723357320	0.011745978	0.121181087	0.037349188
2019-11-22T23:25:00	0.2348	6.020		0.584796046	0.718129378	0.011613531	0.119814659	0.036928042
2019-11-22T23:30:00	0.2358	6.019		0.587899641	0.722641348	0.011727810	0.120993651	0.037291418
2019-11-22T23:35:00	0.2348	6.020		0.584638713	0.717900862	0.011607753	0.119755049	0.036909669
2019-11-22T23:40:00	0.2337	6.022		0.581039297	0.712678576	0.011475969	0.118395452	0.036490628
2019-11-22T23:45:00	0.2335	6.026		0.580121735	0.711349034	0.011442497	0.118050134	0.036384198
2019-11-22T23:50:00	0.2334	6.027		0.579875175	0.710991888	0.011433511	0.117957430	0.036355626
2019-11-22T23:55:00	0.2336	6.029		0.580635288	0.712093083	0.011461225	0.118243342	0.036443746
2019-11-23T00:00:00	0.2329	6.030		0.578374950	0.708819883	0.011378915	0.117394167	0.036182022
2019-11-23T00:05:00	0.2333	6.031		0.579471031	0.710406591	0.011418791	0.117805558	0.036308817
2019-11-23T00:10:00	0.2349	6.030		0.584925855	0.718317933	0.011618299	0.119863853	0.036943204
2019-11-23T00:15:00	0.2347	6.031		0.584344485	0.717473573	0.011596952	0.119643613	0.036875324
2019-11-23T00:20:00	0.2349	6.034		0.585103633	0.718576187	0.011624831	0.119931241	0.036963973
2019-11-23T00:25:00	0.2351	6.039		0.585527583	0.719192157	0.011640416	0.120092023	0.037013528
2019-11-23T00:30:00	0.2351	6.044		0.585616458	0.719321305	0.011643684	0.120125742	0.037023920
2019-11-23T00:35:00	0.2346	6.047		0.584029771	0.717016610	0.011585404	0.119524477	0.036838605
2019-11-23T00:40:00	0.2360	6.049		0.588808124	0.723963607	0.011761370	0.121339884	0.037398131
2019-11-23T00:45:00	0.2363	6.057		0.589566309	0.725067641	0.011789415	0.121629225	0.037487309
2019-11-23T00:50:00	0.2359	6.065		0.588316202	0.723247550	0.011743192	0.121152344	0.037340329
2019-11-23T00:55:00	0.2364	6.075		0.590078485	0.725813718	0.011808380	0.121824883	0.037547612
2019-11-23T01:00:00	0.2368	6.084		0.591505423	0.727893465	0.011861300	0.122370843	0.037715882
2019-11-23T01:05:00	0.2374	6.094		0.593266113	0.730461992	0.011926764	0.123046226	0.037924042
2019-11-23T01:10:00	0.2375	6.105		0.593689083	0.731079413	0.011942518	0.123208757	0.037974135
2019-11-23T01:15:00	0.2370	6.119		0.592106028	0.728769348	0.011883610	0.122601015	0.037786823
2019-11-23T01:20:00	0.2363	6.130		0.589518397	0.724997859	0.011787642	0.121610930	0.037481670
2019-11-23T01:25:00	0.2375	6.140		0.593620819	0.730979756	0.011939975	0.123182518	0.037966048
2019-11-23T01:30:00	0.2373	6.150		0.593040882	0.730133277	0.011918379	0.122959723	0.037897381
2019-11-23T01:35:00	0.2381	6.162		0.595803171	0.734167647	0.012021420	0.124022770	0.038225022
2019-11-23T01:40:00	0.2391	6.173		0.598897098	0.738693947	0.012137372	0.125219027	0.038593720
2019-11-23T01:45:00	0.2387	6.184		0.597650291	0.736868954	0.012090576	0.124736244	0.038444922
2019-11-23T01:50:00	0.2397	6.194		0.601076194	0.741886688	0.012219382	0.126065111	0.038854491
2019-11-23T01:55:00	0.2399	6.205		0.601831751	0.742994632	0.012247884	0.126359157	0.038945119
2019-11-23T02:00:00	0.2397	6.214		0.600919585	0.741657097	0.012213478	0.126004206	0.038835720
2019-11-23T02:05:00	0.2404	6.224		0.603342380	0.745211244	0.012304971	0.126948118	0.039126643
2019-11-23T02:10:00	0.2407	6.234		0.604430728	0.746809410	0.012346185	0.127373315	0.039257693
2019-11-23T02:15:00	0.2412	6.243		0.606184996	0.749387521	0.012412766	0.128060214	0.039469402
2019-11-23T02:20:00	0.2417	6.253		0.607605449	0.751476943	0.012466812	0.128617801	0.039641255
2019-11-23T02:25:00	0.2421	6.262		0.609025335	0.753567220	0.012520958	0.129176412	0.039813425
2019-11-23T02:30:00	0.2424	6.271		0.610111941	0.755168005	0.012562476	0.129604747	0.039945442
2019-11-23T02:35:00	0.2430	6.280		0.611863402	0.757750340	0.012629547	0.130296706	0.040158710
2019-11-23T02:40:00	0.2433	6.289		0.612949141	0.759352435	0.012671217	0.130726609	0.040291210
2019-11-23T02:45:00	0.2431	6.297		0.612372361	0.758501226	0.012649072	0.130498139	0.040220794
2019-11-23T02:50:00	0.2426	6.305		0.610797641	0.756178686	0.012588712	0.129875424	0.040028867
2019-11-23T02:55:00	0.2422	6.313		0.609222222	0.753857200	0.012528475	0.129253970	0.039837329
2019-11-23T03:00:00	0.2425	6.321		0.610308767	0.755458075	0.012570004	0.129682414	0.039969379
2019-11-23T03:05:00	0.2424	6.329		0.610064306	0.755097808	0.012560654	0.129585955	0.039939650
2019-11-23T03:10:00	0.2426	6.337		0.610817949	0.756208626	0.012589490	0.129883445	0.040031339
2019-11-23T03:15:00	0.2431	6.345		0.612236550	0.758300838	0.012643860	0.130444373	0.040204223
2019-11-23T03:20:00	0.2430	6.352		0.611992221	0.757940371	0.012634487	0.130347674	0.040174419
2019-11-23T03:25:00	0.2433	6.360		0.613077920	0.759542525	0.012676164	0.130777648	0.040306941
2019-11-23T03:30:00	0.2428	6.367		0.611503513	0.757219512	0.012615750	0.130154367	0.040114840
2019-11-23T03:35:00	0.2432	6.375		0.612589361	0.758821441	0.012657401	0.130584072	0.040247279
2019-11-23T03:40:00	0.2428	6.381		0.611347363	0.756989230	0.012609766	0.130092634	0.040095813
2019-11-23T03:45:00	0.2421	6.389		0.609106609	0.753686918	0.012524061	0.129208424	0.039823291
2019-11-23T03:50:00	0.2422	6.396		0.609194893	0.753816947	0.012527432	0.129243203	0.039834010
2019-11-23T03:55:00	0.2420	6.403		0.608617503	0.752966659	0.012505393	0.129015835	0.039763933
2019-11-23T04:00:00	0.2418	6.409		0.608040019	0.752116513	0.012483371	0.128788636	0.039693909
2019-11-23T04:05:00	0.2416	6.417		0.607418278	0.751201526	0.012459683	0.128544257	0.039618588
2019-11-23T04:10:00	0.2409	6.423		0.605130849	0.747838013	0.012372735	0.127647225	0.039342114
2019-11-23T04:15:00	0.2400	6.429		0.602175060	0.743498217	0.012260845	0.126492882	0.038986335
2019-11-23T04:20:00	0.2404	6.435		0.603219552	0.745030942	0.012300324	0.126900177	0.039111867
2019-11-23T04:25:00	0.2396	6.440		0.600595803	0.741182494	0.012201278	0.125878336	0.038796926
2019-11-23T04:30:00	0.2396	6.445		0.600640052	0.741247348	0.012202945	0.125895534	0.038802226
2019-11-23T04:35:00	0.2391	6.451		0.599015842	0.738867825	0.012141833	0.125265057	0.038607907
2019-11-23T04:40:00	0.2395	6.459		0.600394922	0.740888084	0.012193712	0.125800276	0.038772867
2019-11-23T04:45:00	0.2383	6.465		0.596433273	0.735088814	0.012044988	0.124265919	0.038299963
2019-11-23T04:50:00	0.2379	6.470		0.595141280	0.733200364	0.011996688	0.123767618	0.038146382
2019-11-23T04:55:00	0.2374	6.474		0.593514540	0.730824609	0.011936016	0.123141673	0.037953460
2019-11-23T05:00:00	0.2372	6.479		0.592555875	0.729425573	0.011900334	0.122773556	0.037840002
2019-11-23T05:05:00	0.2367	6.484		0.590927942	0.727051588	0.011839869	0.122149743	0.037647737
2019-11-23T05:10:00	0.2355	6.483		0.586955645	0.721268130	0.011692990	0.120634421	0.037180700
2019-11-23T05:15:00	0.2346	6.482		0.583984592	0.716951018	0.011583747	0.119507380	0.036833335
2019-11-23T05:20:00	0.2344	6.479		0.583358602	0.716042353	0.011560797	0.119270606	0.036760359
2019-11-23T05:25:00	0.2332	6.469		0.579377743	0.710271506	0.011415394	0.117770516	0.036298017
2019-11-23T05:30:00	0.2321	6.456		0.575728367	0.704992746	0.011282925	0.116403859	0.035876800
2019-11-23T05:35:00	0.2331	6.445		0.578795455	0.709428495	0.011394205	0.117551908	0.036230640
2019-11-23T05:40:00	0.2347	6.433		0.584206872	0.717273750	0.011591902	0.119591512	0.036859265
2019-11-23T05:45:00	0.2354	6.427		0.586596740	0.720746230	0.011679765	0.120497986	0.037138650
2019-11-23T05:50:00	0.2358	6.428		0.587980681	0.722759272	0.011730801	0.121024516	0.037300931
2019-11-23T05:55:00	0.2350	6.434		0.585345577	0.718927696	0.011633724	0.120022984	0.036992249
2019-11-23T06:00:00	0.2345	6.438		0.583714307	0.716558641	0.011573835	0.119405118	0.036801817
2019-11-23T06:05:00	0.2333	6.442		0.579733851	0.710787202	0.011428363	0.117904311	0.036339254
2019-11-23T06:10:00	0.2328	6.442		0.578099973	0.708421977	0.011368922	0.117291076	0.036150249
2019-11-23T06:15:00	0.2329	6.440		0.578144505	0.708486412	0.011370540	0.117307768	0.036155393
2019-11-23T06:20:00	0.2328	6.437		0.577853270	0.708065039	0.011359961	0.117198624	0.036121754
2019-11-23T06:25:00	0.2331	6.433		0.578904993	0.709587058	0.011398189	0.117593016	0.036243310
2019-11-23T06:30:00	0.2331	6.429		0.578949514	0.709651508	0.011399809	0.117609726	0.036248460
2019-11-23T06:35:00	0.2346	6.425		0.584025519	0.717010436	0.011585248	0.119522868	0.036838109
2019-11-23T06:40:00	0.2357	6.421		0.587755112	0.722431057	0.011722475	0.120938617	0.037274456
2019-11-23T06:45:00	0.2357	6.416		0.587799522	0.722495672	0.011724114	0.120955526	0.037279668
2019-11-23T06:50:00	0.2367	6.414		0.590856101	0.726946874	0.011837204	0.122122251	0.037639264
2019-11-23T06:55:00	0.2376	6.413		0.593910032	0.731401999	0.011950752	0.123293703	0.038000317
2019-11-23T07:00:00	0.2389	6.420		0.598296928	0.737815296	0.012114834	0.124986512	0.038522057
2019-11-23T07:05:00	0.2392	6.430		0.599342565	0.739346309	0.012154114	0.125391752	0.038646956
2019-11-23T07:10:00	0.2394	6.441		0.600054237	0.740388855	0.012180885	0.125667948	0.038732082
2019-11-23T07:15:00	0.2396	6.452		0.600765765	0.741431615	0.012207682	0.125944401	0.038817287
2019-11-23T07:20:00	0.2394	6.460		0.600142746	0.740518545	0.012184217	0.125702320	0.038742676
2019-11-23T07:25:00	0.2399	6.468		0.601854906	0.743028595	0.012248758	0.126368174	0.038947898
2019-11-23T07:30:00	0.2410	6.477		0.605232553	0.747987469	0.012376594	0.127687040	0.039354386
2019-11-23T07:35:00	0.2414	6.484		0.606609215	0.750011351	0.012428894	0.128226607	0.039520686
2019-11-23T07:40:00	0.2422	6.492		0.609316797	0.753996505	0.012532087	0.129291233	0.039848814
2019-11-23T07:45:00	0.2424	6.500		0.610026469	0.755042052	0.012559207	0.129571028	0.039935049
2019-11-23T07:50:00	0.2432	6.508		0.612731447	0.759031131	0.012662856	0.130640354	0.040264626
2019-11-23T07:55:00	0.2435	6.515		0.613772836	0.760568525	0.012702877	0.131053242	0.040391882
2019-11-23T08:00:00	0.2425	6.523		0.610491566	0.755727501	0.012576998	0.129754566	0.039991618
2019-11-23T08:05:00	0.2423	6.530		0.609537489	0.754321601	0.012540518	0.129378210	0.039875621
2019-11-23T08:10:00	0.2420	6.537		0.608583157	0.752916088	0.012504083	0.129002316	0.039759767
2019-11-23T08:15:00	0.2425	6.543		0.610291245	0.755432250	0.012569334	0.129675499	0.039967248
2019-11-23T08:20:00	0.2425	6.548		0.610335372	0.755497286	0.012571022	0.129692914	0.039972616
2019-11-23T08:25:00	0.2411	6.554		0.605718617	0.748701868	0.012395047	0.127877413	0.039413061
2019-11-23T08:30:00	0.2404	6.560		0.603430090	0.745340003	0.012308290	0.126982357	0.039137196
2019-11-23T08:35:00	0.2400	6.570		0.602140651	0.743447740	0.012259546	0.126479476	0.038982203
2019-11-23T08:40:00	0.2388	6.580		0.598180958	0.737645550	0.012110482	0.124941609	0.038508217
2019-11-23T08:45:00	0.2381	6.592		0.595553467	0.733802689	0.012012086	0.123926481	0.038195345
2019-11-23T08:50:00	0.2384	6.607		0.596599917	0.735332492	0.012051225	0.124330265	0.038319795
2019-11-23T08:55:00	0.2379	6.623		0.594973848	0.732955738	0.011990436	0.123703118	0.038126502
2019-11-23T09:00:00	0.2370	6.637		0.592009552	0.728628633	0.011880025	0.122564027	0.037775423
2019-11-23T09:05:00	0.2380	6.652		0.595396613	0.733573463	0.012006225	0.123866015	0.038176709
2019-11-23T09:10:00	0.2379	6.663		0.595106803	0.733149989	0.011995400	0.123754335	0.038142288
2019-11-23T09:15:00	0.2383	6.674		0.596487409	0.735167974	0.012047014	0.124286821	0.038306405
2019-11-23T09:20:00	0.2387	6.684		0.597533582	0.736698188	0.012086200	0.124691101	0.038431008
2019-11-23T09:25:00	0.2384	6.696		0.596576008	0.735297530	0.012050330	0.124321032	0.038316950
2019-11-23T09:30:00	0.2390	6.708		0.598623718	0.738293681	0.012127103	0.125113088	0.038561069
2019-11-23T09:35:00	0.2377	6.717		0.594325884	0.732009251	0.011966257	0.123453662	0.038049618
2019-11-23T09:40:00	0.2370	6.728		0.592029969	0.728658411	0.011880784	0.122571854	0.037777836
2019-11-23T09:45:00	0.2379	6.738		0.595082884	0.733115042	0.011994507	0.123745120	0.038139448
2019-11-23T09:50:00	0.2373	6.747		0.593121805	0.730251375	0.011921392	0.122990799	0.037906959
2019-11-23T09:55:00	0.2374	6.756		0.593500455	0.730804049	0.011935491	0.123136261	0.037951791
2019-11-23T10:00:00	0.2377	6.767		0.594213304	0.731844841	0.011962058	0.123410347	0.038036268
2019-11-23T10:05:00	0.2372	6.775		0.592781478	0.729754739	0.011908726	0.122860134	0.037866687
2019-11-23T10:10:00	0.2369	6.784		0.591683551	0.728153203	0.011867914	0.122439084	0.037736915
2019-11-23T10:15:00	0.2376	6.790		0.593929378	0.731430245	0.011951473	0.123301142	0.038002609
2019-11-23T10:20:00	0.2366	6.795		0.590825106	0.726901698	0.011836054	0.122110391	0.037635609
2019-11-23T10:25:00	0.2377	6.801		0.594408556	0.732129992	0.011969340	0.123485476	0.038059423
2019-11-23T10:30:00	0.2370	6.802		0.591973642	0.728576259	0.011878691	0.122550261	0.037771181
2019-11-23T10:35:00	0.2366	6.808		0.590540907	0.726487507	0.011825516	0.122001673	0.037602101
2019-11-23T10:40:00	0.2360	6.812		0.588772864	0.723912276	0.011760066	0.121326437	0.037393986
2019-11-23T10:45:00	0.2353	6.816		0.586334053	0.720364313	0.011670091	0.120398178	0.037107888
2019-11-23T10:50:00	0.2354	6.823		0.586574167	0.720713409	0.011678934	0.120489408	0.037136006
2019-11-23T10:55:00	0.2346	6.829		0.584133831	0.717167695	0.011589222	0.119563863	0.036850744
2019-11-23T11:00:00	0.2341	6.835		0.582362566	0.714597216	0.011524328	0.118894364	0.036644398
2019-11-23T11:05:00	0.2344	6.845		0.583273543	0.715918911	0.011557680	0.119238453	0.036750449
2019-11-23T11:10:00	0.2340	6.851		0.581837262	0.713835390	0.011505118	0.118696180	0.036583315
2019-11-23T11:15:00	0.2340	6.852		0.582077683	0.714184034	0.011513908	0.118786863	0.036611265
2019-11-23T11:20:00	0.2348	6.855		0.584664790	0.717938736	0.011608711	0.119764928	0.036912714
2019-11-23T11:25:00	0.2339	6.856		0.581552336	0.713422271	0.011494705	0.118588755	0.036550206
2019-11-23T11:30:00	0.2332	6.858		0.579444155	0.710367672	0.011417812	0.117795462	0.036305705
2019-11-23T11:35:00	0.2340	6.861		0.582033201	0.714119526	0.011512281	0.118770083	0.036606093
2019-11-23T11:40:00	0.2342	6.861		0.582608952	0.714954619	0.011533343	0.118987377	0.036673065
2019-11-23T11:45:00	0.2327	6.861		0.577480350	0.707525581	0.011346422	0.117058943	0.036078703
2019-11-23T11:50:00	0.2317	6.861		0.574361517	0.703018463	0.011233513	0.115894083	0.035719682
2019-11-23T11:55:00	0.2314	6.863		0.573257820	0.701425408	0.011193695	0.115483285	0.035593070
2019-11-23T12:00:00	0.2305	6.865		0.570135224	0.696923775	0.011081431	0.114325078	0.035236099
2019-11-23T12:05:00	0.2309	6.867		0.571385800	0.698725678	0.011126322	0.114788217	0.035378843
2019-11-23T12:10:00	0.2305	6.867		0.570281165	0.697133989	0.011086665	0.114379077	0.035252742
2019-11-23T12:15:00	0.2321	6.867		0.575566021	0.704758173	0.011277051	0.116343252	0.035858120
2019-11-23T12:20:00	0.2322	6.864		0.575806873	0.705106188	0.011285767	0.116433173	0.035885835
2019-11-23T12:25:00	0.2311	6.861		0.572350256	0.700116205	0.011161006	0.115146046	0.035489130
2019-11-23T12:30:00	0.2319	6.859		0.574944542	0.703860397	0.011254576	0.116111387	0.035786657
2019-11-23T12:35:00	0.2320	6.858		0.575185436	0.704208350	0.011263285	0.116201233	0.035814349
2019-11-23T12:40:00	0.2327	6.858		0.577441819	0.707469850	0.011345024	0.117044516	0.036074257
2019-11-23T12:45:00	0.2326	6.858		0.577346728	0.707332314	0.011341573	0.117008914	0.036063284
2019-11-23T12:50:00	0.2328	6.857		0.577923248	0.708166280	0.011362503	0.117224845	0.036129836
2019-11-23T12:55:00	0.2320	6.852		0.575140866	0.704143969	0.011261673	0.116184607	0.035809224
2019-11-23T13:00:00	0.2318	6.847		0.574709646	0.703521155	0.011246088	0.116023812	0.035759666
2019-11-23T13:05:00	0.2315	6.844		0.573606058	0.701927941	0.011206250	0.115612820	0.035632994
2019-11-23T13:10:00	0.2320	6.837		0.575191449	0.704217036	0.011263502	0.116203476	0.035815040
2019-11-23T13:15:00	0.2314	6.829		0.573079441	0.701168035	0.011187266	0.115416962	0.035572629
2019-11-23T13:20:00	0.2320	6.823		0.575337180	0.704427557	0.011268772	0.116257847	0.035831798
2019-11-23T13:25:00	0.2323	6.815		0.576249982	0.705746578	0.011301811	0.116598700	0.035936852
2019-11-23T13:30:00	0.2320	6.808		0.575146880	0.704152656	0.011261891	0.116186850	0.035809916
2019-11-23T13:35:00	0.2322	6.797		0.576059732	0.705471604	0.011294921	0.116527616	0.035914943
2019-11-23T13:40:00	0.2320	6.788		0.575292613	0.704363174	0.011267161	0.116241218	0.035826672
2019-11-23T13:45:00	0.2319	6.776		0.574861411	0.703740332	0.011251572	0.116080390	0.035777104
2019-11-23T13:50:00	0.2327	6.769		0.577453839	0.707487235	0.011345460	0.117049017	0.036075644
2019-11-23T13:55:00	0.2325	6.762		0.577022902	0.706864005	0.011329825	0.116887718	0.036025930
2019-11-23T14:00:00	0.2323	6.755		0.576255994	0.705755267	0.011302029	0.116600947	0.035937544
2019-11-23T14:05:00	0.2317	6.749		0.574144627	0.702705330	0.011225683	0.115813298	0.035694783
2019-11-23T14:10:00	0.2314	6.745		0.573377089	0.701597511	0.011197994	0.115527642	0.035606741
2019-11-23T14:15:00	0.2317	6.738		0.574290402	0.702915787	0.011230945	0.115867592	0.035711517
2019-11-23T14:20:00	0.2317	6.730		0.574195225	0.702778376	0.011227509	0.115832142	0.035700591
2019-11-23T14:25:00	0.2319	6.719		0.574772263	0.703611584	0.011248350	0.116047154	0.035766860
2019-11-23T14:30:00	0.2337	6.706		0.581056928	0.712704130	0.011476612	0.118402092	0.036492675
2019-11-23T14:35:00	0.2334	6.698		0.579955336	0.711107997	0.011436432	0.117987566	0.036364914
2019-11-23T14:40:00	0.2352	6.686		0.585895743	0.719727188	0.011653958	0.120231735	0.037056588
2019-11-23T14:45:00	0.2339	6.676		0.581778303	0.713749899	0.011502963	0.118673947	0.036576463
2019-11-23T14:50:00	0.2328	6.666		0.577991817	0.708265487	0.011364993	0.117250540	0.036137755
2019-11-23T14:55:00	0.2326	6.656		0.577225121	0.707156439	0.011337160	0.116963394	0.036049254
2019-11-23T15:00:00	0.2333	6.645		0.579480193	0.710419857	0.011419124	0.117809000	0.036309878
2019-11-23T15:05:00	0.2321	6.629		0.575691225	0.704939078	0.011281581	0.116389992	0.035872526
2019-11-23T15:10:00	0.2321	6.620		0.575596086	0.704801612	0.011278138	0.116354474	0.035861579
2019-11-23T15:15:00	0.2315	6.612		0.573484322	0.701752255	0.011201860	0.115567529	0.035619035
2019-11-23T15:20:00	0.2315	6.605		0.573725316	0.702100060	0.011210552	0.115657198	0.035646672
2019-11-23T15:25:00	0.2308	6.598		0.571276027	0.698567458	0.011122378	0.114747526	0.035366302
2019-11-23T15:30:00	0.2319	6.586		0.574879453	0.703766390	0.011252224	0.116087117	0.035779177
2019-11-23T15:35:00	0.2313	6.580		0.572767257	0.700717663	0.011176020	0.115300936	0.035536868
2019-11-23T15:40:00	0.2307	6.573		0.570990242	0.698155595	0.011112113	0.114641623	0.035333662
2019-11-23T15:45:00	0.2303	6.566		0.569548919	0.696079440	0.011060416	0.114108275	0.035169278
2019-11-23T15:50:00	0.2305	6.561		0.570126724	0.696911533	0.011081126	0.114321934	0.035235130
2019-11-23T15:55:00	0.2304	6.556		0.570031433	0.696774287	0.011077709	0.114286684	0.035224266
2019-11-23T16:00:00	0.2312	6.548		0.572627437	0.700515978	0.011170985	0.115248990	0.035520858
2019-11-23T16:05:00	0.2305	6.541		0.570323319	0.697194711	0.011088177	0.114394677	0.035257550
2019-11-23T16:10:00	0.2304	6.533		0.569700908	0.696298291	0.011065862	0.114164457	0.035186594
2019-11-23T16:15:00	0.2313	6.522		0.572779292	0.700735024	0.011176453	0.115305408	0.035538247
2019-11-23T16:20:00	0.2314	6.513		0.573166156	0.701293148	0.011190391	0.115449202	0.035582565
2019-11-23T16:25:00	0.2300	6.505		0.568506433	0.694578860	0.011023101	0.113723302	0.035050626
2019-11-23T16:30:00	0.2289	6.500		0.564851732	0.689325285	0.010892791	0.112378914	0.034636273
2019-11-23T16:35:00	0.2290	6.493		0.565239475	0.689882135	0.010906579	0.112521160	0.034680114
2019-11-23T16:40:00	0.2287	6.484		0.564279087	0.688503116	0.010872444	0.112169003	0.034571576
2019-11-23T16:45:00	0.2287	6.474		0.563992729	0.688092082	0.010862277	0.112064109	0.034539247
2019-11-23T16:50:00	0.2290	6.469		0.565054655	0.689616695	0.010900005	0.112453346	0.034659213
2019-11-23T16:55:00	0.2290	6.465		0.565105384	0.689689550	0.010901809	0.112471958	0.034664950
2019-11-23T17:00:00	0.2305	6.462		0.570207490	0.697027866	0.011084022	0.114351816	0.035244340
2019-11-23T17:05:00	0.2293	6.459		0.566217685	0.691287530	0.010941402	0.112880430	0.034790845
2019-11-23T17:10:00	0.2294	6.452		0.566605276	0.691844599	0.010955216	0.113022942	0.034834769
2019-11-23T17:15:00	0.2298	6.445		0.568003152	0.693854746	0.011005110	0.113537686	0.034993417
2019-11-23T17:20:00	0.2306	6.441		0.570410102	0.697319725	0.011091290	0.114426795	0.035267450
2019-11-23T17:25:00	0.2308	6.437		0.571133671	0.698362291	0.011117264	0.114694767	0.035350041
2019-11-23T17:30:00	0.2311	6.435		0.572193430	0.699890045	0.011155363	0.115087822	0.035471185
2019-11-23T17:35:00	0.2312	6.432		0.572580359	0.700448075	0.011169290	0.115231502	0.035515468
2019-11-23T17:40:00	0.2302	6.433		0.569266538	0.695672885	0.011050302	0.114003931	0.035137119
2019-11-23T17:45:00	0.2300	6.429		0.568643939	0.694776738	0.011028019	0.113774043	0.035066265
2019-11-23T17:50:00	0.2301	6.426		0.568694616	0.694849669	0.011029832	0.113792746	0.035072029
2019-11-23T17:55:00	0.2291	6.423		0.565377109	0.690079827	0.010911475	0.112571674	0.034695683
2019-11-23T18:00:00	0.2297	6.417		0.567449103	0.693057831	0.010985320	0.113333525	0.034930493
2019-11-23T18:05:00	0.2278	6.412		0.561095184	0.683936792	0.010759670	0.111005536	0.034212984
2019-11-23T18:10:00	0.2288	6.407		0.564518235	0.688846437	0.010880939	0.112256642	0.034598587
2019-11-23T18:15:00	0.2274	6.400		0.559846957	0.682148876	0.010715621	0.110551090	0.034072920
2019-11-23T18:20:00	0.2297	6.394		0.567651876	0.693349459	0.010992561	0.113408223	0.034953516
2019-11-23T18:25:00	0.2289	6.388		0.564670443	0.689064972	0.010886347	0.112312438	0.034615784
2019-11-23T18:30:00	0.2291	6.381		0.565395201	0.690105814	0.010912118	0.112578315	0.034697730
2019-11-23T18:35:00	0.2273	6.379		0.559375114	0.681473361	0.010698994	0.110379551	0.034020050
2019-11-23T18:40:00	0.2284	6.372		0.563137066	0.686864279	0.010831925	0.111750975	0.034442736
2019-11-23T18:45:00	0.2290	6.364		0.565210390	0.689840361	0.010905544	0.112510487	0.034676825
2019-11-23T18:50:00	0.2290	6.360		0.565261116	0.689913220	0.010907348	0.112529102	0.034682562
2019-11-23T18:55:00	0.2293	6.357		0.566322657	0.691438390	0.010945143	0.112919018	0.034802738
2019-11-23T19:00:00	0.2288	6.353		0.564351475	0.688607030	0.010875015	0.112195526	0.034579751
2019-11-23T19:05:00	0.2284	6.351		0.563053654	0.686744622	0.010828969	0.111720473	0.034433335
2019-11-23T19:10:00	0.2288	6.347		0.564452952	0.688752712	0.010878620	0.112232714	0.034591213
2019-11-23T19:15:00	0.2274	6.339		0.559781586	0.682055277	0.010713317	0.110527316	0.034065592
2019-11-23T19:20:00	0.2285	6.331		0.563543100	0.687446827	0.010846322	0.111899509	0.034488515
2019-11-23T19:25:00	0.2281	6.329		0.562244979	0.685584853	0.010800327	0.111424985	0.034342262
2019-11-23T19:30:00	0.2276	6.324		0.560271491	0.682756820	0.010730593	0.110705545	0.034120524
2019-11-23T19:35:00	0.2275	6.319		0.559984804	0.682346261	0.010720481	0.110601230	0.034088373
2019-11-23T19:40:00	0.2283	6.316		0.562734538	0.686286894	0.010817662	0.111603821	0.034397382
2019-11-23T19:45:00	0.2285	6.313		0.563459697	0.687327156	0.010843364	0.111868991	0.034479109
2019-11-23T19:50:00	0.2279	6.310		0.561486897	0.684498133	0.010773513	0.111148344	0.034256999
2019-11-23T19:55:00	0.2283	6.307		0.562886824	0.686505316	0.010823057	0.111659481	0.034414536
2019-11-23T20:00:00	0.2283	6.304		0.562937584	0.686578126	0.010824855	0.111678037	0.034420256
2019-11-23T20:05:00	0.2289	6.299		0.564673993	0.689070069	0.010886473	0.112313740	0.034616185
2019-11-23T20:10:00	0.2290	6.295		0.565061755	0.689626891	0.010900258	0.112455951	0.034660016
2019-11-23T20:15:00	0.2287	6.292		0.564101319	0.688247942	0.010866132	0.112103880	0.034551505
2019-11-23T20:20:00	0.2289	6.286		0.564826194	0.689288614	0.010891883	0.112369549	0.034633386
2019-11-23T20:25:00	0.2300	6.283		0.568582280	0.694688005	0.011025814	0.113751289	0.035059252
2019-11-23T20:30:00	0.2296	6.281		0.567286030	0.692823323	0.010979499	0.113273470	0.034911984
2019-11-23T20:35:00	0.2290	6.280		0.565315392	0.689991177	0.010909279	0.112549021	0.034688701
2019-11-23T20:40:00	0.2279	6.276		0.561319992	0.684258935	0.010767614	0.111087484	0.034238241
2019-11-23T20:45:00	0.2279	6.268		0.561370775	0.684331712	0.010769408	0.111106000	0.034243948
2019-11-23T20:50:00	0.2284	6.258		0.563107964	0.686822530	0.010830894	0.111740332	0.034439456
2019-11-23T20:55:00	0.2285	6.250		0.563495900	0.687379101	0.010844648	0.111882237	0.034483192
2019-11-23T21:00:00	0.2292	6.244		0.565905956	0.690839583	0.010930299	0.112765877	0.034755538
2019-11-23T21:05:00	0.2299	6.237		0.568314350	0.694302469	0.011016233	0.113652442	0.035028786
2019-11-23T21:10:00	0.2302	6.234		0.569038353	0.695344405	0.011042133	0.113919648	0.035111142
2019-11-23T21:15:00	0.2293	6.229		0.566058103	0.691058205	0.010935717	0.112821780	0.034772768
2019-11-23T21:20:00	0.2287	6.224		0.564086772	0.688227062	0.010865615	0.112098552	0.034549862
2019-11-23T21:25:00	0.2284	6.220		0.563126067	0.686848500	0.010831535	0.111746952	0.034441496
2019-11-23T21:30:00	0.2286	6.214		0.563851145	0.687888879	0.010857252	0.112012265	0.034523268
2019-11-23T21:35:00	0.2288	6.208		0.564576073	0.688929476	0.010882994	0.112277842	0.034605121
2019-11-23T21:40:00	0.2268	6.200		0.557879225	0.679332974	0.010646368	0.109836613	0.033852711
2019-11-23T21:45:00	0.2270	6.191		0.558267743	0.679888706	0.010660023	0.109977496	0.033896132
2019-11-23T21:50:00	0.2267	6.178		0.557305433	0.678512455	0.010626216	0.109628714	0.033788634
2019-11-23T21:55:00	0.2276	6.169		0.560394759	0.682933371	0.010734942	0.110750414	0.034134353
2019-11-23T22:00:00	0.2257	6.160		0.554027959	0.673830878	0.010511483	0.108445035	0.033423813
2019-11-23T22:05:00	0.2279	6.149		0.561460800	0.684460730	0.010772590	0.111138827	0.034254066
2019-11-23T22:10:00	0.2279	6.140		0.561463818	0.684465056	0.010772697	0.111139928	0.034254405
2019-11-23T22:15:00	0.2282	6.134		0.562478766	0.685920085	0.010808603	0.111510369	0.034368579
2019-11-23T22:20:00	0.2278	6.127		0.561132481	0.683990235	0.010760988	0.111019130	0.034217174
2019-11-23T22:25:00	0.2275	6.125		0.560123181	0.682544420	0.010725361	0.110651574	0.034103890
2019-11-23T22:30:00	0.2274	6.120		0.559788697	0.682065458	0.010713568	0.110529902	0.034066389
2019-11-23T22:35:00	0.2284	6.115		0.563165290	0.686904768	0.010832926	0.111761296	0.034445917
2019-11-23T22:40:00	0.2292	6.110		0.565864817	0.690780474	0.010928834	0.112750764	0.034750881
2019-11-23T22:45:00	0.2297	6.109		0.567552093	0.693205947	0.010988997	0.113371461	0.034942185
2019-11-23T22:50:00	0.2298	6.110		0.567891861	0.693694650	0.011001133	0.113496661	0.034980773
2019-11-23T22:55:00	0.2297	6.112		0.567558120	0.693214614	0.010989213	0.113373682	0.034942870
2019-11-23T23:00:00	0.2300	6.112		0.568571297	0.694672201	0.011025421	0.113747236	0.035058003
2019-11-23T23:05:00	0.2299	6.112		0.568237621	0.694192071	0.011013490	0.113624142	0.035020064
2019-11-23T23:10:00	0.2299	6.110		0.568240634	0.694196406	0.011013597	0.113625253	0.035020407
2019-11-23T23:15:00	0.2288	6.109		0.564537934	0.688874719	0.010881639	0.112263862	0.034600813
2019-11-23T23:20:00	0.2283	6.110		0.562855236	0.686460010	0.010821938	0.111647935	0.034410978
2019-11-23T23:25:00	0.2287	6.109		0.564206889	0.688399477	0.010869880	0.112142552	0.034563424
2019-11-23T23:30:00	0.2282	6.109		0.562524031	0.685984998	0.010810206	0.111526905	0.034373675
2019-11-23T23:35:00	0.2274	6.110		0.559827957	0.682121672	0.010714952	0.110544180	0.034070790
2019-11-23T23:40:00	0.2270	6.110		0.558480648	0.680193296	0.010667510	0.110054738	0.033919939
2019-11-23T23:45:00	0.2270	6.111		0.558483670	0.680197619	0.010667617	0.110055835	0.033920277
2019-11-23T23:50:00	0.2272	6.110		0.559161919	0.681168199	0.010691486	0.110302088	0.033996175
2019-11-23T23:55:00	0.2266	6.106		0.557138863	0.678274311	0.010620370	0.109568399	0.033770045
2019-11-24T00:00:00	0.2264	6.102		0.556466265	0.677312937	0.010596780	0.109325023	0.033695034
2019-11-24T00:05:00	0.2287	6.098		0.564231019	0.688434114	0.010870737	0.112151392	0.034566148
2019-11-24T00:10:00	0.2283	6.097		0.562885410	0.686503289	0.010823007	0.111658965	0.034414377
2019-11-24T00:15:00	0.2283	6.098		0.562888428	0.686507617	0.010823114	0.111660067	0.034414717
2019-11-24T00:20:00	0.2283	6.100		0.562891445	0.686511945	0.010823220	0.111661170	0.034415057
2019-11-24T00:25:00	0.2281	6.101		0.562219956	0.685548975	0.010799442	0.111415848	0.034339446
2019-11-24T00:30:00	0.2266	6.101		0.557160019	0.678304557	0.010621112	0.109576059	0.033772406
2019-11-24T00:35:00	0.2273	6.102		0.559526667	0.681690312	0.010704333	0.110434634	0.034037027
2019-11-24T00:40:00	0.2275	6.100		0.560204714	0.682661184	0.010728237	0.110681243	0.034113034
2019-11-24T00:45:00	0.2273	6.101		0.559532708	0.681698960	0.010704546	0.110436829	0.034037703
2019-11-24T00:50:00	0.2275	6.099		0.560210754	0.682669834	0.010728450	0.110683441	0.034113711
2019-11-24T00:55:00	0.2272	6.098		0.559201187	0.681224403	0.010692869	0.110316354	0.034000572
2019-11-24T01:00:00	0.2267	6.096		0.557515911	0.678813406	0.010633606	0.109704952	0.033812132
2019-11-24T01:05:00	0.2267	6.095		0.557518933	0.678817727	0.010633712	0.109706047	0.033812469
2019-11-24T01:10:00	0.2260	6.092		0.555156968	0.675442568	0.010550935	0.108852048	0.033549258
2019-11-24T01:15:00	0.2260	6.087		0.555159992	0.675446887	0.010551040	0.108853139	0.033549595
2019-11-24T01:20:00	0.2255	6.083		0.553472758	0.673038697	0.010492110	0.108245167	0.033362212
2019-11-24T01:25:00	0.2251	6.075		0.552122986	0.671113851	0.010445087	0.107760037	0.033212690
2019-11-24T01:30:00	0.2250	6.067		0.551787732	0.670635993	0.010433424	0.107639713	0.033175605
2019-11-24T01:35:00	0.2262	6.062		0.555847960	0.676429495	0.010575117	0.109101535	0.033626153
2019-11-24T01:40:00	0.2268	6.055		0.557877810	0.679330950	0.010646318	0.109836100	0.033852553
2019-11-24T01:45:00	0.2253	6.050		0.552811555	0.672095600	0.010469062	0.108007382	0.033288924
2019-11-24T01:50:00	0.2247	6.045		0.550784802	0.669207006	0.010398573	0.107280163	0.033064788
2019-11-24T01:55:00	0.2244	6.039		0.549772496	0.667765498	0.010363456	0.106917869	0.032953126
2019-11-24T02:00:00	0.2246	6.033		0.550452446	0.668733644	0.010387037	0.107161148	0.033028106
2019-11-24T02:05:00	0.2251	6.027		0.552147200	0.671148368	0.010445930	0.107768730	0.033215369
2019-11-24T02:10:00	0.2239	6.020		0.548088703	0.665369666	0.010305179	0.106316632	0.032767819
2019-11-24T02:15:00	0.2239	6.014		0.548091734	0.665373975	0.010305284	0.106317712	0.032768152
2019-11-24T02:20:00	0.2240	6.006		0.548094764	0.665378285	0.010305388	0.106318793	0.032768485
2019-11-24T02:25:00	0.2227	5.998		0.543692452	0.659125283	0.010153805	0.104754933	0.032286488
2019-11-24T02:30:00	0.2231	5.991		0.545051571	0.661054069	0.010200482	0.105236491	0.032434909
2019-11-24T02:35:00	0.2228	5.983		0.544037591	0.659614942	0.010165648	0.104877116	0.032324146
2019-11-24T02:40:00	0.2226	5.972		0.543362450	0.658657192	0.010142488	0.104638177	0.032250502
2019-11-24T02:45:00	0.2233	5.962		0.545738511	0.662029512	0.010224115	0.105480310	0.032510056
2019-11-24T02:50:00	0.2233	5.953		0.545741544	0.662033819	0.010224219	0.105481387	0.032510388
2019-11-24T02:55:00	0.2236	5.946		0.546761089	0.663482269	0.010259346	0.105843786	0.032622083
2019-11-24T03:00:00	0.2234	5.938		0.546086479	0.662523767	0.010236097	0.105603924	0.032548155
2019-11-24T03:05:00	0.2237	5.934		0.547105922	0.663972361	0.010271241	0.105966500	0.032659904
2019-11-24T03:10:00	0.2241	5.927		0.548463704	0.665903045	0.010318144	0.106450386	0.032809043
2019-11-24T03:15:00	0.2249	5.921		0.551174649	0.669762368	0.010412113	0.107419851	0.033107841
2019-11-24T03:20:00	0.2246	5.917		0.550162457	0.668320698	0.010376977	0.107057359	0.032996118
2019-11-24T03:25:00	0.2248	5.914		0.550842331	0.669288953	0.010400571	0.107300770	0.033071140
2019-11-24T03:30:00	0.2245	5.912		0.549830042	0.667847421	0.010365451	0.106938448	0.032959468
2019-11-24T03:35:00	0.2252	5.910		0.552201680	0.671226032	0.010447826	0.107788291	0.033221398
2019-11-24T03:40:00	0.2244	5.910		0.549497595	0.667374189	0.010353930	0.106819592	0.032922836
2019-11-24T03:45:00	0.2238	5.907		0.547468906	0.664488354	0.010283769	0.106095751	0.032699741
2019-11-24T03:50:00	0.2235	5.900		0.546455633	0.663048224	0.010248816	0.105735145	0.032588599
2019-11-24T03:55:00	0.2244	5.894		0.549506682	0.667387123	0.010354245	0.106822840	0.032923837
2019-11-24T04:00:00	0.2249	5.891		0.551201897	0.669801189	0.010413060	0.107429617	0.033110851
2019-11-24T04:05:00	0.2253	5.887		0.552707784	0.671947621	0.010465447	0.107970087	0.033277430
2019-11-24T04:10:00	0.2254	5.888		0.552860509	0.672165412	0.010470767	0.108024978	0.033294347
2019-11-24T04:15:00	0.2257	5.888		0.554027615	0.673830386	0.010511471	0.108444911	0.033423775
2019-11-24T04:20:00	0.2258	5.890		0.554518330	0.674530766	0.010528609	0.108621721	0.033478269
2019-11-24T04:25:00	0.2259	5.893		0.554670975	0.674748672	0.010533943	0.108676750	0.033495230
2019-11-24T04:30:00	0.2270	5.899		0.558539657	0.680277723	0.010669586	0.110076152	0.033926539
2019-11-24T04:35:00	0.2257	5.902		0.553962135	0.673736944	0.010509185	0.108421329	0.033416507
2019-11-24T04:40:00	0.2254	5.905		0.553100442	0.672507606	0.010479129	0.108111240	0.033320934
2019-11-24T04:45:00	0.2256	5.908		0.553591288	0.673207799	0.010496245	0.108287821	0.033375358
2019-11-24T04:50:00	0.2254	5.911		0.553067694	0.672460897	0.010477987	0.108099464	0.033317305
2019-11-24T04:55:00	0.2258	5.911		0.554234730	0.674125970	0.010518703	0.108519519	0.033446770
2019-11-24T05:00:00	0.2249	5.911		0.551343651	0.670003160	0.010417985	0.107480435	0.033126514
2019-11-24T05:05:00	0.2233	5.911		0.545740123	0.662031802	0.010224171	0.105480882	0.032510232
2019-11-24T05:10:00	0.2246	5.908		0.550295705	0.668510436	0.010381599	0.107105043	0.033010814
2019-11-24T05:15:00	0.2245	5.908		0.550110092	0.668246136	0.010375161	0.107038622	0.032990343
2019-11-24T05:20:00	0.2249	5.909		0.551278121	0.669909790	0.010415708	0.107456941	0.033119273
2019-11-24T05:25:00	0.2253	5.912		0.552783975	0.672056269	0.010468101	0.107997469	0.033285869
2019-11-24T05:30:00	0.2257	5.915		0.553951106	0.673721206	0.010508801	0.108417358	0.033415283
2019-11-24T05:35:00	0.2262	5.920		0.555793728	0.676352023	0.010573218	0.109081943	0.033620114
2019-11-24T05:40:00	0.2263	5.923		0.555946317	0.676570008	0.010578562	0.109137071	0.033637105
2019-11-24T05:45:00	0.2257	5.922		0.554071037	0.673892354	0.010512987	0.108460551	0.033428595
2019-11-24T05:50:00	0.2265	5.922		0.556589323	0.677488802	0.010601094	0.109369531	0.033708751
2019-11-24T05:55:00	0.2249	5.921		0.551332615	0.669987435	0.010417602	0.107476478	0.033125294
2019-11-24T06:00:00	0.2264	5.923		0.556218757	0.676959257	0.010588105	0.109235533	0.033667452
2019-11-24T06:05:00	0.2275	5.924		0.560085721	0.682490774	0.010724040	0.110637944	0.034099689
2019-11-24T06:10:00	0.2274	5.926		0.559900628	0.682225727	0.010717513	0.110570611	0.034078936
2019-11-24T06:15:00	0.2272	5.926		0.559040405	0.680994283	0.010687207	0.110257949	0.033982571
2019-11-24T06:20:00	0.2271	5.926		0.558855257	0.680729316	0.010680690	0.110190713	0.033961848
2019-11-24T06:25:00	0.2274	5.922		0.559682840	0.681913897	0.010709837	0.110491410	0.034054526
2019-11-24T06:30:00	0.2284	5.920		0.563208790	0.686967173	0.010834468	0.111777205	0.034450820
2019-11-24T06:35:00	0.2290	5.918		0.565046525	0.689605018	0.010899716	0.112450364	0.034658294
2019-11-24T06:40:00	0.2287	5.917		0.564187570	0.688371746	0.010869194	0.112135474	0.034561242
2019-11-24T06:45:00	0.2285	5.914		0.563328403	0.687138778	0.010838708	0.111820957	0.034464305
2019-11-24T06:50:00	0.2284	5.912		0.563143483	0.686873484	0.010832153	0.111753321	0.034443459
2019-11-24T06:55:00	0.2282	5.913		0.562621322	0.686124522	0.010813652	0.111562450	0.034384631
2019-11-24T07:00:00	0.2292	5.916		0.565807383	0.690697953	0.010926789	0.112729666	0.034744378
2019-11-24T07:05:00	0.2303	5.917		0.569663740	0.696244771	0.011064530	0.114150717	0.035182360
2019-11-24T07:10:00	0.2304	5.921		0.569815724	0.696463630	0.011069977	0.114206908	0.035199678
2019-11-24T07:15:00	0.2303	5.927		0.569631147	0.696197839	0.011063362	0.114138668	0.035178646
2019-11-24T07:20:00	0.2310	5.935		0.571801887	0.699325486	0.011141279	0.114942523	0.035426402
2019-11-24T07:25:00	0.2317	5.940		0.574307419	0.702940356	0.011231560	0.115873931	0.035713471
2019-11-24T07:30:00	0.2311	5.945		0.572105663	0.699763483	0.011152205	0.115055244	0.035461144
2019-11-24T07:35:00	0.2312	5.948		0.572593843	0.700467523	0.011169775	0.115236510	0.035517012
2019-11-24T07:40:00	0.2312	5.953		0.572409412	0.700201519	0.011163136	0.115168012	0.035495900
2019-11-24T07:45:00	0.2311	5.962		0.572224971	0.699935529	0.011156498	0.115099531	0.035474793
2019-11-24T07:50:00	0.2306	5.970		0.570694906	0.697730038	0.011101510	0.114532233	0.035299947
2019-11-24T07:55:00	0.2308	5.976		0.571183283	0.698433791	0.011119046	0.114713152	0.035355708
2019-11-24T08:00:00	0.2314	5.979		0.573353061	0.701562837	0.011197128	0.115518705	0.035603987
2019-11-24T08:05:00	0.2313	5.982		0.572832423	0.700811668	0.011178367	0.115325151	0.035544331
2019-11-24T08:10:00	0.2314	5.984		0.573320501	0.701515855	0.011195954	0.115506596	0.035600255
2019-11-24T08:15:00	0.2316	5.986		0.573808512	0.702220141	0.011213553	0.115688161	0.035656215
2019-11-24T08:20:00	0.2310	5.988		0.571942806	0.699528660	0.011146347	0.114994806	0.035442516
2019-11-24T08:25:00	0.2315	5.994		0.573439769	0.701687961	0.011200254	0.115550956	0.035613927
2019-11-24T08:30:00	0.2319	5.997		0.574936092	0.703848193	0.011254271	0.116108236	0.035785686
2019-11-24T08:35:00	0.2322	6.004		0.575759876	0.705038276	0.011284066	0.116415624	0.035880426
2019-11-24T08:40:00	0.2324	6.018		0.576583467	0.706228643	0.011313894	0.116723355	0.035975272
2019-11-24T08:45:00	0.2316	6.029		0.574047010	0.702564407	0.011222159	0.115776948	0.035683580
2019-11-24T08:50:00	0.2319	6.035		0.574871003	0.703754186	0.011251918	0.116083966	0.035778206
2019-11-24T08:55:00	0.2308	6.036		0.571324227	0.698636929	0.011124110	0.114765392	0.035371808
2019-11-24T09:00:00	0.2316	6.037		0.573830101	0.702251302	0.011214332	0.115696197	0.035658691
2019-11-24T09:05:00	0.2315	6.041		0.573645735	0.701985203	0.011207681	0.115627584	0.035637544
2019-11-24T09:10:00	0.2311	6.050		0.572116291	0.699778809	0.011152587	0.115059189	0.035462359
2019-11-24T09:15:00	0.2319	6.060		0.574957674	0.703879364	0.011255051	0.116116284	0.035788166
2019-11-24T09:20:00	0.2313	6.075		0.572756326	0.700701895	0.011175626	0.115296874	0.035535616
2019-11-24T09:25:00	0.2314	6.090		0.573244415	0.701406067	0.011193212	0.115478301	0.035591534
2019-11-24T09:30:00	0.2305	6.109		0.570369055	0.697260594	0.011089818	0.114411603	0.035262767
2019-11-24T09:35:00	0.2309	6.128		0.571530318	0.698933991	0.011131516	0.114841800	0.035395358
2019-11-24T09:40:00	0.2308	6.145		0.571345831	0.698668068	0.011124886	0.114773400	0.035374277
2019-11-24T09:45:00	0.2292	6.160		0.565774410	0.690650579	0.010925615	0.112717555	0.034740645
2019-11-24T09:50:00	0.2312	6.168		0.572658631	0.700560974	0.011172108	0.115260578	0.035524430
2019-11-24T09:55:00	0.2306	6.172		0.570455837	0.697385610	0.011092931	0.114443724	0.035272667
2019-11-24T10:00:00	0.2301	6.171		0.568924998	0.695181244	0.011038076	0.113877791	0.035098241
2019-11-24T10:05:00	0.2299	6.173		0.568257681	0.694220932	0.011014207	0.113631540	0.035022344
2019-11-24T10:10:00	0.2298	6.175		0.567926988	0.693745180	0.011002388	0.113509609	0.034984764
2019-11-24T10:15:00	0.2297	6.175		0.567596263	0.693269473	0.010990575	0.113387734	0.034947201
2019-11-24T10:20:00	0.2296	6.178		0.567265507	0.692793812	0.010978767	0.113265913	0.034909654
2019-11-24T10:25:00	0.2285	6.182		0.563564790	0.687477951	0.010847092	0.111907447	0.034490962
2019-11-24T10:30:00	0.2285	6.187		0.563570824	0.687486609	0.010847306	0.111909655	0.034491642
2019-11-24T10:35:00	0.2280	6.193		0.561890678	0.685076899	0.010787791	0.111295649	0.034302400
2019-11-24T10:40:00	0.2277	6.198		0.560884617	0.683635093	0.010752233	0.110928808	0.034189336
2019-11-24T10:45:00	0.2268	6.204		0.557852603	0.679294899	0.010645432	0.109826963	0.033849737
2019-11-24T10:50:00	0.2272	6.208		0.559209216	0.681235896	0.010693151	0.110319271	0.034001471
2019-11-24T10:55:00	0.2266	6.212		0.557189210	0.678346289	0.010622137	0.109586628	0.033775663
2019-11-24T11:00:00	0.2265	6.220		0.556857466	0.677872053	0.010610497	0.109466544	0.033738652
2019-11-24T11:05:00	0.2274	6.228		0.559902425	0.682228300	0.010717577	0.110571264	0.034079137
2019-11-24T11:10:00	0.2271	6.234		0.558895790	0.680787321	0.010682117	0.110205431	0.033966384
2019-11-24T11:15:00	0.2269	6.240		0.558226552	0.679829782	0.010658575	0.109962556	0.033891528
2019-11-24T11:20:00	0.2268	6.244		0.557894907	0.679355403	0.010646919	0.109842298	0.033854463
2019-11-24T11:25:00	0.2274	6.251		0.559589061	0.681779635	0.010706532	0.110457315	0.034044017
2019-11-24T11:30:00	0.2278	6.256		0.560944998	0.683721604	0.010754366	0.110950808	0.034196116
2019-11-24T11:35:00	0.2276	6.261		0.560276154	0.682763499	0.010730757	0.110707243	0.034121047
2019-11-24T11:40:00	0.2273	6.265		0.559269627	0.681322365	0.010695279	0.110341220	0.034008236
2019-11-24T11:45:00	0.2277	6.269		0.560625689	0.683264154	0.010743092	0.110834495	0.034160268
2019-11-24T11:50:00	0.2278	6.273		0.560969151	0.683756209	0.010755219	0.110959608	0.034198829
2019-11-24T11:55:00	0.2277	6.276		0.560637767	0.683281455	0.010743518	0.110838893	0.034161623
2019-11-24T12:00:00	0.2272	6.279		0.558956206	0.680873782	0.010684243	0.110227370	0.033973146
2019-11-24T12:05:00	0.2276	6.279		0.560312390	0.682815396	0.010732035	0.110720431	0.034125112
2019-11-24T12:10:00	0.2263	6.278		0.555928560	0.676544639	0.010577940	0.109130654	0.033635128
2019-11-24T12:15:00	0.2261	6.278		0.555258752	0.675587919	0.010554495	0.108888779	0.033560579
2019-11-24T12:20:00	0.2257	6.277		0.553912698	0.673666399	0.010507460	0.108403527	0.033411020
2019-11-24T12:25:00	0.2259	6.274		0.554594864	0.674640019	0.010531283	0.108649310	0.033486773
2019-11-24T12:30:00	0.2248	6.269		0.550880658	0.669343548	0.010401902	0.107314501	0.033075371
2019-11-24T12:35:00	0.2240	6.264		0.548178574	0.665497482	0.010308285	0.106348679	0.032777696
2019-11-24T12:40:00	0.2243	6.256		0.549200432	0.666951261	0.010343638	0.106713408	0.032890109
2019-11-24T12:45:00	0.2246	6.250		0.550221990	0.668405468	0.010379042	0.107078662	0.033002683
2019-11-24T12:50:00	0.2240	6.244		0.548196755	0.665523340	0.010308914	0.106355163	0.032779694
2019-11-24T12:55:00	0.2244	6.239		0.549557139	0.667458943	0.010355993	0.106840875	0.032929395
2019-11-24T13:00:00	0.2250	6.237		0.551593691	0.670359456	0.010426677	0.107570102	0.033154150
2019-11-24T13:05:00	0.2233	6.231		0.545843604	0.662178775	0.010227733	0.105517636	0.032521560
2019-11-24T13:10:00	0.2243	6.225		0.549236783	0.667002992	0.010344897	0.106726394	0.032894111
2019-11-24T13:15:00	0.2240	6.218		0.548227056	0.665566437	0.010309961	0.106365969	0.032783025
2019-11-24T13:20:00	0.2240	6.212		0.548233116	0.665575057	0.010310171	0.106368131	0.032783691
2019-11-24T13:25:00	0.2244	6.206		0.549593487	0.667510680	0.010357253	0.106853868	0.032933400
2019-11-24T13:30:00	0.2243	6.199		0.549261017	0.667037480	0.010345736	0.106735052	0.032896780
2019-11-24T13:35:00	0.2244	6.194		0.549605602	0.667527926	0.010357673	0.106858199	0.032934735
2019-11-24T13:40:00	0.2244	6.189		0.549611660	0.667536549	0.010357883	0.106860365	0.032935402
2019-11-24T13:45:00	0.2247	6.187		0.550633097	0.668990928	0.010393307	0.107225830	0.033048042
2019-11-24T13:50:00	0.2247	6.179		0.550639153	0.668999554	0.010393517	0.107227998	0.033048710
2019-11-24T13:55:00	0.2249	6.175		0.551321961	0.669972255	0.010417232	0.107472658	0.033124117
2019-11-24T14:00:00	0.2253	6.169		0.552681123	0.671909602	0.010464518	0.107960507	0.033274477
2019-11-24T14:05:00	0.2253	6.165		0.552687175	0.671918233	0.010464729	0.107962682	0.033275147
2019-11-24T14:10:00	0.2250	6.162		0.551678451	0.670480248	0.010429624	0.107600506	0.033163521
2019-11-24T14:15:00	0.2246	6.159		0.550331010	0.668560710	0.010382824	0.107117679	0.033014709
2019-11-24T14:20:00	0.2242	6.154		0.548983047	0.666641918	0.010336112	0.106635764	0.032866178
2019-11-24T14:25:00	0.2244	6.149		0.549666180	0.667614156	0.010359772	0.106879856	0.032941410
2019-11-24T14:30:00	0.2248	6.142		0.551025990	0.669550578	0.010406949	0.107366573	0.033091420
2019-11-24T14:35:00	0.2247	6.135		0.550693657	0.669077184	0.010395409	0.107247518	0.033054726
2019-11-24T14:40:00	0.2249	6.125		0.551376455	0.670049900	0.010419125	0.107492196	0.033130139
2019-11-24T14:45:00	0.2254	6.114		0.553073784	0.672469583	0.010478200	0.108101654	0.033317980
2019-11-24T14:50:00	0.2247	6.103		0.550711825	0.669103060	0.010396040	0.107254024	0.033056732
2019-11-24T14:55:00	0.2245	6.092		0.550041011	0.668147778	0.010372765	0.107013907	0.032982726
2019-11-24T15:00:00	0.2240	6.079		0.548354319	0.665747450	0.010314361	0.106411362	0.032797015
2019-11-24T15:05:00	0.2244	6.068		0.549714642	0.667683141	0.010361451	0.106897183	0.032946750
2019-11-24T15:10:00	0.2246	6.055		0.550397632	0.668655583	0.010385135	0.107141525	0.033022059
2019-11-24T15:15:00	0.2247	6.040		0.550742104	0.669146189	0.010397091	0.107264869	0.033060074
2019-11-24T15:20:00	0.2246	6.026		0.550409745	0.668672833	0.010385555	0.107145861	0.033023395
2019-11-24T15:25:00	0.2238	6.011		0.547707294	0.664827289	0.010292001	0.106180679	0.032725917
2019-11-24T15:30:00	0.2249	5.998		0.551437001	0.670136174	0.010421230	0.107513907	0.033136830
2019-11-24T15:35:00	0.2244	5.986		0.549750988	0.667734880	0.010362711	0.106910178	0.032950755
2019-11-24T15:40:00	0.2236	5.972		0.547048024	0.663890067	0.010269243	0.105945891	0.032653553
2019-11-24T15:45:00	0.2235	5.958		0.546715310	0.663417214	0.010257768	0.105827501	0.032617063
2019-11-24T15:50:00	0.2237	5.942		0.547398890	0.664388816	0.010281352	0.106070814	0.032692055
2019-11-24T15:55:00	0.2236	5.929		0.547066211	0.663915916	0.010269871	0.105952365	0.032655548
2019-11-24T16:00:00	0.2229	5.913		0.544700159	0.660555221	0.010188403	0.105111873	0.032396500
2019-11-24T16:05:00	0.2234	5.896		0.546151800	0.662616561	0.010238347	0.105627138	0.032555310
2019-11-24T16:10:00	0.2239	5.880		0.547941523	0.665160356	0.010300093	0.106264159	0.032751646
2019-11-24T16:15:00	0.2246	5.866		0.550407253	0.668669285	0.010385469	0.107144969	0.033023120
2019-11-24T16:20:00	0.2254	5.851		0.552871234	0.672180708	0.010471141	0.108028833	0.033295536
2019-11-24T16:25:00	0.2257	5.836		0.553981396	0.673764430	0.010509858	0.108428266	0.033418645
2019-11-24T16:30:00	0.2262	5.824		0.555767090	0.676313971	0.010572286	0.109072321	0.033617149
2019-11-24T16:35:00	0.2267	5.813		0.557551869	0.678864824	0.010634869	0.109717980	0.033816147
2019-11-24T16:40:00	0.2274	5.801		0.559673282	0.681900213	0.010709500	0.110487935	0.034053454
2019-11-24T16:45:00	0.2281	5.788		0.562130715	0.685421024	0.010796283	0.111383265	0.034329404
2019-11-24T16:50:00	0.2282	5.776		0.562563490	0.686041585	0.010811604	0.111541321	0.034378118
2019-11-24T16:55:00	0.2295	5.763		0.566703559	0.691985878	0.010958720	0.113059095	0.034845911
2019-11-24T17:00:00	0.2294	5.751		0.566462080	0.691638776	0.010950111	0.112970281	0.034818538
2019-11-24T17:05:00	0.2294	5.740		0.566557468	0.691775881	0.010953512	0.113005359	0.034829349
2019-11-24T17:10:00	0.2296	5.727		0.567326504	0.692881524	0.010980944	0.113288374	0.034916577
2019-11-24T17:15:00	0.2300	5.713		0.568432072	0.694471858	0.011020442	0.113695867	0.035042171
2019-11-24T17:20:00	0.2297	5.701		0.567517229	0.693155806	0.010987753	0.113358619	0.034938227
2019-11-24T17:25:00	0.2294	5.687		0.566602147	0.691840102	0.010955104	0.113021792	0.034834414
2019-11-24T17:30:00	0.2305	5.676		0.570064442	0.696821828	0.011078893	0.114298894	0.035228029
2019-11-24T17:35:00	0.2303	5.664		0.569486627	0.695989750	0.011058185	0.114085253	0.035162183
2019-11-24T17:40:00	0.2300	5.650		0.568572060	0.694673298	0.011025448	0.113747518	0.035058090
2019-11-24T17:45:00	0.2310	5.638		0.572032407	0.699657853	0.011149570	0.115028056	0.035452764
2019-11-24T17:50:00	0.2307	5.626		0.570782061	0.697855614	0.011104639	0.114564509	0.035309894
2019-11-24T17:55:00	0.2306	5.614		0.570540864	0.697508104	0.011095982	0.114475199	0.035282368
2019-11-24T18:00:00	0.2308	5.601		0.571309024	0.698615017	0.011123564	0.114759757	0.035370071
2019-11-24T18:05:00	0.2318	5.588		0.574430574	0.703118173	0.011236007	0.115919812	0.035727612
2019-11-24T18:10:00	0.2316	5.574		0.573853479	0.702285046	0.011215176	0.115704899	0.035661373
2019-11-24T18:15:00	0.2310	5.560		0.571931149	0.699511853	0.011145928	0.114990481	0.035441183
2019-11-24T18:20:00	0.2305	5.545		0.570344281	0.697224907	0.011088929	0.114402434	0.035259941
2019-11-24T18:25:00	0.2303	5.529		0.569429938	0.695908130	0.011056154	0.114064304	0.035155726
2019-11-24T18:30:00	0.2297	5.513		0.567505176	0.693138471	0.010987322	0.113354179	0.034936859
2019-11-24T18:35:00	0.2299	5.497		0.568274003	0.694244417	0.011014790	0.113637560	0.035024200
2019-11-24T18:40:00	0.2298	5.482		0.567695892	0.693412768	0.010994133	0.113424441	0.034958514
2019-11-24T18:45:00	0.2299	5.468		0.568127978	0.694034324	0.011009570	0.113583709	0.035007602
2019-11-24T18:50:00	0.2295	5.455		0.566876235	0.692234113	0.010964878	0.113122626	0.034865492
2019-11-24T18:55:00	0.2295	5.442		0.566971612	0.692371235	0.010968280	0.113157724	0.034876310
2019-11-24T19:00:00	0.2281	5.429		0.562011062	0.685249479	0.010792050	0.111339586	0.034315942
2019-11-24T19:05:00	0.2271	5.416		0.558731972	0.680552898	0.010676352	0.110145954	0.033948053
2019-11-24T19:10:00	0.2271	5.403		0.558827572	0.680689698	0.010679716	0.110180661	0.033958750
2019-11-24T19:15:00	0.2272	5.390		0.558923169	0.680826502	0.010683081	0.110215373	0.033969448
2019-11-24T19:20:00	0.2280	5.377		0.561718481	0.684830061	0.010781701	0.111232817	0.034283034
2019-11-24T19:25:00	0.2285	5.362		0.563500215	0.687385293	0.010844801	0.111883816	0.034483679
2019-11-24T19:30:00	0.2289	5.349		0.564944034	0.689457832	0.010896072	0.112412767	0.034646707
2019-11-24T19:35:00	0.2294	5.334		0.566387256	0.691531233	0.010947445	0.112942768	0.034810058
2019-11-24T19:40:00	0.2294	5.320		0.566482646	0.691668335	0.010950844	0.112977843	0.034820868
2019-11-24T19:45:00	0.2299	5.303		0.568261952	0.694227078	0.011014359	0.113633115	0.035022830
2019-11-24T19:50:00	0.2295	5.289		0.566673418	0.691942551	0.010957645	0.113048007	0.034842494
2019-11-24T19:55:00	0.2291	5.274		0.565421154	0.690143095	0.010913042	0.112587842	0.034700666
2019-11-24T20:00:00	0.2300	5.260		0.568547960	0.694638618	0.011024586	0.113738625	0.035055349
2019-11-24T20:05:00	0.2298	5.244		0.567969894	0.693806903	0.011003921	0.113525426	0.034989639
2019-11-24T20:10:00	0.2302	5.231		0.569075260	0.695397532	0.011043454	0.113933278	0.035115343
2019-11-24T20:15:00	0.2298	5.218		0.567823856	0.693596829	0.010998704	0.113471597	0.034973048
2019-11-24T20:20:00	0.2299	5.207		0.568255926	0.694218408	0.011014144	0.113630893	0.035022145
2019-11-24T20:25:00	0.2303	5.196		0.569697782	0.696293790	0.011065750	0.114163301	0.035186238
2019-11-24T20:30:00	0.2305	5.185		0.570129621	0.696915705	0.011081230	0.114323006	0.035235461
2019-11-24T20:35:00	0.2306	5.175		0.570561406	0.697537698	0.011096719	0.114482804	0.035284712
2019-11-24T20:40:00	0.2304	5.164		0.569983673	0.696705500	0.011075997	0.114269018	0.035218821
2019-11-24T20:45:00	0.2305	5.153		0.570078965	0.696842745	0.011079413	0.114304266	0.035229685
2019-11-24T20:50:00	0.2307	5.141		0.570847226	0.697949511	0.011106978	0.114588645	0.035317333
2019-11-24T20:55:00	0.2301	5.128		0.568923244	0.695178719	0.011038013	0.113877144	0.035098042
2019-11-24T21:00:00	0.2316	5.115		0.574064371	0.702589469	0.011222786	0.115783412	0.035685572
2019-11-24T21:05:00	0.2320	5.104		0.575167814	0.704182894	0.011262648	0.116194659	0.035812322
2019-11-24T21:10:00	0.2317	5.093		0.574254730	0.702864285	0.011229657	0.115854305	0.035707422
2019-11-24T21:15:00	0.2323	5.082		0.576366030	0.705914319	0.011306015	0.116642071	0.035950219
2019-11-24T21:20:00	0.2325	5.072		0.576797047	0.706537431	0.011321635	0.116803226	0.035999889
2019-11-24T21:25:00	0.2325	5.060		0.576892154	0.706674945	0.011325084	0.116838802	0.036010853
2019-11-24T21:30:00	0.2329	5.048		0.578330459	0.708755498	0.011377298	0.117377484	0.036176881
2019-11-24T21:35:00	0.2330	5.035		0.578761235	0.709378963	0.011392960	0.117539067	0.036226682
2019-11-24T21:40:00	0.2342	5.022		0.582546892	0.714864591	0.011531072	0.118963945	0.036665843
2019-11-24T21:45:00	0.2336	5.008		0.580629322	0.712084437	0.011461007	0.118241097	0.036443054
2019-11-24T21:50:00	0.2340	4.992		0.582066097	0.714167232	0.011513484	0.118782493	0.036609918
2019-11-24T21:55:00	0.2336	4.978		0.580483811	0.711873595	0.011455699	0.118186337	0.036426177
2019-11-24T22:00:00	0.2330	4.964		0.578565113	0.709095095	0.011385828	0.117465488	0.036204004
2019-11-24T22:05:00	0.2338	4.951		0.581300290	0.713056881	0.011485498	0.118493769	0.036520930
2019-11-24T22:10:00	0.2341	4.939		0.582356983	0.714589118	0.011524123	0.118892256	0.036643748
2019-11-24T22:15:00	0.2331	4.926		0.579052394	0.709800446	0.011403552	0.117648345	0.036260362
2019-11-24T22:20:00	0.2331	4.914		0.579102921	0.709873596	0.011405391	0.117667314	0.036266209
2019-11-24T22:25:00	0.2341	4.902		0.582173064	0.714322364	0.011517396	0.118822850	0.036622356
2019-11-24T22:30:00	0.2338	4.890		0.581217310	0.712936596	0.011482468	0.118462505	0.036511295
2019-11-24T22:35:00	0.2337	4.877		0.580932334	0.712523550	0.011472064	0.118355170	0.036478213
2019-11-24T22:40:00	0.2332	4.865		0.579305020	0.710166205	0.011412746	0.117743202	0.036289598
2019-11-24T22:45:00	0.2333	4.853		0.579691164	0.710725380	0.011426808	0.117888269	0.036334309
2019-11-24T22:50:00	0.2335	4.839		0.580412820	0.711770738	0.011453110	0.118159625	0.036417944
2019-11-24T22:55:00	0.2319	4.827		0.574754639	0.703586132	0.011247713	0.116040584	0.035764835
2019-11-24T23:00:00	0.2317	4.816		0.574133015	0.702688566	0.011225263	0.115808974	0.035693450
2019-11-24T23:05:00	0.2314	4.805		0.573175068	0.701306006	0.011190712	0.115452515	0.035583586
2019-11-24T23:10:00	0.2309	4.792		0.571544148	0.698953927	0.011132013	0.114846928	0.035396939
2019-11-24T23:15:00	0.2304	4.781		0.569912469	0.696602954	0.011073444	0.114242684	0.035210705
2019-11-24T23:20:00	0.2309	4.769		0.571645417	0.699099911	0.011135653	0.114884484	0.035408514
2019-11-24T23:25:00	0.2304	4.758		0.570013785	0.696748869	0.011077076	0.114280156	0.035222254
2019-11-24T23:30:00	0.2297	4.747		0.567371173	0.692945760	0.010982538	0.113304823	0.034921647
2019-11-24T23:35:00	0.2294	4.737		0.566411371	0.691565892	0.010948304	0.112951635	0.034812791
2019-11-24T23:40:00	0.2284	4.728		0.563091694	0.686799191	0.010830317	0.111734383	0.034437622
2019-11-24T23:45:00	0.2280	4.719		0.561793405	0.684937459	0.010784350	0.111260153	0.034291460
2019-11-24T23:50:00	0.2276	4.711		0.560494632	0.683076423	0.010738466	0.110786773	0.034145559
2019-11-24T23:55:00	0.2270	4.705		0.558520153	0.680249818	0.010668900	0.110069074	0.033924358
2019-11-25T00:00:00	0.2263	4.699		0.556206703	0.676942033	0.010587683	0.109231175	0.033666109
2019-11-25T00:05:00	0.2260	4.693		0.554905845	0.675083993	0.010542153	0.108761450	0.033521335
2019-11-25T00:10:00	0.2254	4.686		0.552928193	0.672261939	0.010473126	0.108049309	0.033301846
2019-11-25T00:15:00	0.2252	4.681		0.552302669	0.671370003	0.010451341	0.107824555	0.033232575
2019-11-25T00:20:00	0.2250	4.677		0.551677033	0.670478227	0.010429574	0.107599997	0.033163364
2019-11-25T00:25:00	0.2247	4.672		0.550712898	0.669104589	0.010396077	0.107254409	0.033056850
2019-11-25T00:30:00	0.2242	4.666		0.549071437	0.666767694	0.010339172	0.106667331	0.032875907
2019-11-25T00:35:00	0.2240	4.662		0.548106578	0.665395087	0.010305797	0.106323005	0.032769783
2019-11-25T00:40:00	0.2231	4.657		0.545108351	0.661134681	0.010202434	0.105256633	0.032441117
2019-11-25T00:45:00	0.2228	4.654		0.544142389	0.659763641	0.010169245	0.104914230	0.032335585
2019-11-25T00:50:00	0.2232	4.650		0.545549314	0.661760817	0.010217603	0.105413129	0.032489350
2019-11-25T00:55:00	0.2232	4.649		0.545600328	0.661833263	0.010219359	0.105431241	0.032494932
2019-11-25T01:00:00	0.2239	4.646		0.548022805	0.665275947	0.010302902	0.106293136	0.032760577
2019-11-25T01:05:00	0.2235	4.644		0.546718879	0.663422286	0.010257891	0.105828770	0.032617455
2019-11-25T01:10:00	0.2237	4.639		0.547108646	0.663976233	0.010271335	0.105967470	0.032660203
2019-11-25T01:15:00	0.2241	4.633		0.548514369	0.665975116	0.010319896	0.106468464	0.032814614
2019-11-25T01:20:00	0.2240	4.627		0.548226711	0.665565946	0.010309949	0.106365846	0.032782987
2019-11-25T01:25:00	0.2246	4.618		0.550308930	0.668529268	0.010382058	0.107109776	0.033012273
2019-11-25T01:30:00	0.2247	4.611		0.550698295	0.669083789	0.010395570	0.107249179	0.033055238
2019-11-25T01:35:00	0.2250	4.607		0.551764282	0.670602572	0.010432609	0.107631299	0.033173012
2019-11-25T01:40:00	0.2253	4.601		0.552829942	0.672121820	0.010469702	0.108013991	0.033290961
2019-11-25T01:45:00	0.2252	4.595		0.552204400	0.671229910	0.010447920	0.107789268	0.033221699
2019-11-25T01:50:00	0.2245	4.589		0.549886744	0.667928144	0.010367417	0.106958726	0.032965718
2019-11-25T01:55:00	0.2236	4.583		0.546890055	0.663665550	0.010263794	0.105889672	0.032636225
2019-11-25T02:00:00	0.2233	4.576		0.545924589	0.662293806	0.010230522	0.105546404	0.032530427
2019-11-25T02:05:00	0.2235	4.570		0.546653261	0.663329040	0.010255629	0.105805429	0.032610261
2019-11-25T02:10:00	0.2232	4.564		0.545687730	0.661957390	0.010222367	0.105462276	0.032504498
2019-11-25T02:15:00	0.2238	4.557		0.547432767	0.664436976	0.010282522	0.106082879	0.032695774
2019-11-25T02:20:00	0.2239	4.549		0.547822454	0.664991038	0.010295979	0.106221719	0.032738565
2019-11-25T02:25:00	0.2244	4.539		0.549566418	0.667472150	0.010356315	0.106844192	0.032930418
2019-11-25T02:30:00	0.2247	4.530		0.550632752	0.668990437	0.010393295	0.107225706	0.033048004
2019-11-25T02:35:00	0.2251	4.518		0.552037049	0.670991351	0.010442097	0.107729188	0.033203182
2019-11-25T02:40:00	0.2252	4.509		0.552426220	0.671546148	0.010455642	0.107868928	0.033246251
2019-11-25T02:45:00	0.2258	4.500		0.554505925	0.674513059	0.010528176	0.108617250	0.033476891
2019-11-25T02:50:00	0.2254	4.488		0.552866255	0.672173606	0.010470968	0.108027043	0.033294984
2019-11-25T02:55:00	0.2257	4.480		0.553931577	0.673693338	0.010508119	0.108410325	0.033413115
2019-11-25T03:00:00	0.2250	4.471		0.551615072	0.670389927	0.010427420	0.107577771	0.033156514
2019-11-25T03:05:00	0.2256	4.461		0.553695263	0.673356144	0.010499872	0.108325244	0.033386892
2019-11-25T03:10:00	0.2258	4.453		0.554422306	0.674393699	0.010525255	0.108587111	0.033467602
2019-11-25T03:15:00	0.2271	4.444		0.558864893	0.680743106	0.010681029	0.110194212	0.033962926
2019-11-25T03:20:00	0.2262	4.435		0.555538020	0.675986767	0.010564267	0.108989593	0.033591651
2019-11-25T03:25:00	0.2264	4.425		0.556264678	0.677024873	0.010589715	0.109252133	0.033672569
2019-11-25T03:30:00	0.2270	4.416		0.558342091	0.679995067	0.010662638	0.110004467	0.033904445
2019-11-25T03:35:00	0.2273	4.410		0.559405739	0.681517199	0.010700073	0.110390681	0.034023480
2019-11-25T03:40:00	0.2273	4.402		0.559456550	0.681589935	0.010701863	0.110409147	0.034029172
2019-11-25T03:45:00	0.2276	4.395		0.560519858	0.683112556	0.010739356	0.110795958	0.034148390
2019-11-25T03:50:00	0.2275	4.388		0.560233191	0.682701968	0.010729241	0.110691606	0.034116228
2019-11-25T03:55:00	0.2274	4.380		0.559608979	0.681808151	0.010707234	0.110464556	0.034046249
2019-11-25T04:00:00	0.2274	4.372		0.559659787	0.681880892	0.010709024	0.110483028	0.034051942
2019-11-25T04:05:00	0.2279	4.365		0.561585860	0.684639970	0.010777011	0.111184438	0.034268124
2019-11-25T04:10:00	0.2283	4.357		0.562836483	0.686433110	0.010821273	0.111641080	0.034408865
2019-11-25T04:15:00	0.2284	4.350		0.563075195	0.686775522	0.010829732	0.111728350	0.034435762
2019-11-25T04:20:00	0.2281	4.340		0.561964910	0.685183316	0.010790417	0.111322741	0.034310750
2019-11-25T04:25:00	0.2281	4.331		0.562203682	0.685525642	0.010798866	0.111409906	0.034337615
2019-11-25T04:30:00	0.2279	4.322		0.561430499	0.684417304	0.010771519	0.111127777	0.034250660
2019-11-25T04:35:00	0.2285	4.313		0.563355594	0.687177790	0.010839673	0.111830904	0.034467371
2019-11-25T04:40:00	0.2284	4.305		0.563257102	0.687036483	0.010836180	0.111794875	0.034456266
2019-11-25T04:45:00	0.2279	4.296		0.561472225	0.684477104	0.010772994	0.111142993	0.034255350
2019-11-25T04:50:00	0.2278	4.285		0.561036295	0.683852413	0.010757590	0.110984075	0.034206370
2019-11-25T04:55:00	0.2281	4.275		0.562287115	0.685645270	0.010801819	0.111440371	0.034347005
2019-11-25T05:00:00	0.2276	4.266		0.560501741	0.683086606	0.010738717	0.110789361	0.034146357
2019-11-25T05:05:00	0.2272	4.255		0.559053061	0.681012397	0.010687653	0.110262546	0.033983988
2019-11-25T05:10:00	0.2272	4.244		0.558954447	0.680871265	0.010684182	0.110226731	0.033972949
2019-11-25T05:15:00	0.2272	4.234		0.559193425	0.681213293	0.010692595	0.110313534	0.033999703
2019-11-25T05:20:00	0.2280	4.224		0.561794475	0.684938992	0.010784388	0.111260544	0.034291580
2019-11-25T05:25:00	0.2280	4.213		0.561695938	0.684797749	0.010780903	0.111224593	0.034280500
2019-11-25T05:30:00	0.2282	4.204		0.562609290	0.686107266	0.010813225	0.111558054	0.034383276
2019-11-25T05:35:00	0.2283	4.195		0.562848018	0.686449655	0.010821682	0.111645296	0.034410165
2019-11-25T05:40:00	0.2279	4.185		0.561400312	0.684374042	0.010770452	0.111116770	0.034247268
2019-11-25T05:45:00	0.2277	4.176		0.560626950	0.683265961	0.010743136	0.110834954	0.034160409
2019-11-25T05:50:00	0.2281	4.165		0.562215219	0.685542183	0.010799274	0.111414118	0.034338913
2019-11-25T05:55:00	0.2285	4.154		0.563465617	0.687335649	0.010843574	0.111871157	0.034479777
2019-11-25T06:00:00	0.2292	4.146		0.565726553	0.690581822	0.010923911	0.112699978	0.034735228
2019-11-25T06:05:00	0.2298	4.137		0.567986027	0.693830111	0.011004498	0.113531373	0.034991472
2019-11-25T06:10:00	0.2300	4.127		0.568561078	0.694657495	0.011025055	0.113743465	0.035056841
2019-11-25T06:15:00	0.2308	4.118		0.571155162	0.698393263	0.011118036	0.114702731	0.035352496
2019-11-25T06:20:00	0.2312	4.108		0.572402365	0.700191356	0.011162882	0.115165395	0.035495093
2019-11-25T06:25:00	0.2315	4.100		0.573649124	0.701990094	0.011207804	0.115628845	0.035637933
2019-11-25T06:30:00	0.2322	4.092		0.575903490	0.705245807	0.011289264	0.116469255	0.035896956
2019-11-25T06:35:00	0.2323	4.086		0.576141312	0.705589511	0.011297875	0.116558095	0.035924337
2019-11-25T06:40:00	0.2324	4.081		0.576715025	0.706418842	0.011318662	0.116772550	0.035990434
2019-11-25T06:45:00	0.2331	4.075		0.578967422	0.709677432	0.011400460	0.117616448	0.036250531
2019-11-25T06:50:00	0.2335	4.070		0.580211849	0.711479577	0.011445782	0.118084024	0.036394643
2019-11-25T06:55:00	0.2330	4.064		0.578771311	0.709393547	0.011393326	0.117542848	0.036227847
2019-11-25T07:00:00	0.2330	4.061		0.578673252	0.709251611	0.011389760	0.117506056	0.036216508
2019-11-25T07:05:00	0.2335	4.058		0.580253352	0.711539702	0.011447295	0.118099635	0.036399454
2019-11-25T07:10:00	0.2336	4.054		0.580490879	0.711883837	0.011455957	0.118188996	0.036426997
2019-11-25T07:15:00	0.2338	4.052		0.581399340	0.713200467	0.011489116	0.118531093	0.036532434
2019-11-25T07:20:00	0.2342	4.049		0.582642906	0.715003876	0.011534586	0.119000198	0.036677017
2019-11-25T07:25:00	0.2343	4.049		0.582880272	0.715348248	0.011543276	0.119089846	0.036704647
2019-11-25T07:30:00	0.2343	4.049		0.583117622	0.715692644	0.011551968	0.119179523	0.036732286
2019-11-25T07:35:00	0.2342	4.049		0.582684380	0.715064043	0.011536104	0.119015859	0.036681844
2019-11-25T07:40:00	0.2344	4.049		0.583257025	0.715894939	0.011557075	0.119232209	0.036748525
2019-11-25T07:45:00	0.2338	4.051		0.581146866	0.712834488	0.011479896	0.118435968	0.036503116
2019-11-25T07:50:00	0.2334	4.053		0.580042300	0.711233965	0.011439602	0.118020263	0.036374991
2019-11-25T07:55:00	0.2336	4.053		0.580615375	0.712064228	0.011460498	0.118235848	0.036441437
2019-11-25T08:00:00	0.2339	4.054		0.581523804	0.713380906	0.011493663	0.118578001	0.036546891
2019-11-25T08:05:00	0.2342	4.056		0.582767326	0.715184379	0.011539140	0.119047184	0.036691498
2019-11-25T08:10:00	0.2342	4.057		0.582669378	0.715042279	0.011535555	0.119010194	0.036680098
2019-11-25T08:15:00	0.2348	4.057		0.584582837	0.717819712	0.011605701	0.119733883	0.036903146
2019-11-25T08:20:00	0.2354	4.060		0.586495256	0.720598677	0.011676027	0.120459422	0.037126764
2019-11-25T08:25:00	0.2354	4.061		0.586732362	0.720943432	0.011684762	0.120549533	0.037154537
2019-11-25T08:30:00	0.2350	4.061		0.585294495	0.718853477	0.011631846	0.120003611	0.036986279
2019-11-25T08:35:00	0.2354	4.061		0.586536685	0.720658911	0.011677553	0.120475164	0.037131616
2019-11-25T08:40:00	0.2347	4.063		0.584428493	0.717595565	0.011600035	0.119675425	0.036885128
2019-11-25T08:45:00	0.2352	4.064		0.586006008	0.719887454	0.011658015	0.120273596	0.037069490
2019-11-25T08:50:00	0.2347	4.069		0.584232687	0.717311233	0.011592849	0.119601285	0.036862278
2019-11-25T08:55:00	0.2353	4.074		0.586480271	0.720576890	0.011675475	0.120453728	0.037125009
2019-11-25T09:00:00	0.2356	4.082		0.587387186	0.721895795	0.011708901	0.120798573	0.037231293
2019-11-25T09:05:00	0.2361	4.091		0.588963376	0.724189639	0.011767110	0.121399103	0.037416383
2019-11-25T09:10:00	0.2359	4.105		0.588196073	0.723072718	0.011738755	0.121106569	0.037326221
2019-11-25T09:15:00	0.2351	4.123		0.585753864	0.719520988	0.011648738	0.120177884	0.037039991
2019-11-25T09:20:00	0.2350	4.151		0.585320947	0.718891910	0.011632818	0.120013643	0.036989370
2019-11-25T09:25:00	0.2349	4.186		0.584887976	0.718262910	0.011616908	0.119849497	0.036938779
2019-11-25T09:30:00	0.2347	4.228		0.584454952	0.717633988	0.011601006	0.119685445	0.036888217
2019-11-25T09:35:00	0.2347	4.271		0.584357051	0.717491819	0.011597413	0.119648371	0.036876790
2019-11-25T09:40:00	0.2339	4.308		0.581576764	0.713457688	0.011495598	0.118597964	0.036553044
2019-11-25T09:45:00	0.2334	4.336		0.579801207	0.710884754	0.011430816	0.117929626	0.036347056
2019-11-25T09:50:00	0.2330	4.353		0.578696217	0.709284852	0.011390595	0.117514672	0.036219163
2019-11-25T09:55:00	0.2333	4.368		0.579605143	0.710600801	0.011423675	0.117855944	0.036324347
2019-11-25T10:00:00	0.2326	4.380		0.577156955	0.707057859	0.011334687	0.116937881	0.036041391
2019-11-25T10:05:00	0.2326	4.397		0.577302604	0.707268499	0.011339972	0.116992397	0.036058193
2019-11-25T10:10:00	0.2319	4.418		0.574760653	0.703594818	0.011247931	0.116042826	0.035765526
2019-11-25T10:15:00	0.2328	4.442		0.577929675	0.708175579	0.011362736	0.117227253	0.036130578
2019-11-25T10:20:00	0.2330	4.468		0.578746749	0.709357994	0.011392433	0.117533632	0.036225007
2019-11-25T10:25:00	0.2326	4.496		0.577213519	0.707139660	0.011336739	0.116959051	0.036047916
2019-11-25T10:30:00	0.2323	4.526		0.576351534	0.705893365	0.011305490	0.116636653	0.035948549
2019-11-25T10:35:00	0.2316	4.552		0.573808893	0.702220691	0.011213567	0.115688303	0.035656259
2019-11-25T10:40:00	0.2311	4.576		0.572273501	0.700005513	0.011158244	0.115117548	0.035480346
2019-11-25T10:45:00	0.2307	4.602		0.570737436	0.697791316	0.011103037	0.114547983	0.035304801
2019-11-25T10:50:00	0.2303	4.628		0.569537292	0.696062698	0.011060000	0.114103977	0.035167954
2019-11-25T10:55:00	0.2294	4.653		0.566652853	0.691912990	0.010956912	0.113040443	0.034840162
2019-11-25T11:00:00	0.2287	4.676		0.564103152	0.688250572	0.010866197	0.112104551	0.034551711
2019-11-25T11:05:00	0.2279	4.696		0.561551586	0.684590847	0.010775799	0.111171937	0.034264271
2019-11-25T11:10:00	0.2282	4.715		0.562372494	0.685767694	0.010804841	0.111471552	0.034356615
2019-11-25T11:15:00	0.2284	4.736		0.563193208	0.686944819	0.010833915	0.111771506	0.034449064
2019-11-25T11:20:00	0.2283	4.756		0.562665020	0.686187191	0.010815199	0.111578417	0.034389552
2019-11-25T11:25:00	0.2281	4.775		0.562136751	0.685429679	0.010796497	0.111385469	0.034330083
2019-11-25T11:30:00	0.2279	4.794		0.561608403	0.684672281	0.010777808	0.111192661	0.034270658
2019-11-25T11:35:00	0.2270	4.814		0.558379762	0.680048960	0.010663962	0.110018133	0.033908657
2019-11-25T11:40:00	0.2277	4.836		0.560888897	0.683641226	0.010752384	0.110930367	0.034189817
2019-11-25T11:45:00	0.2271	4.864		0.558672623	0.680467975	0.010674264	0.110124410	0.033941413
2019-11-25T11:50:00	0.2269	4.891		0.558143749	0.679711333	0.010655664	0.109932524	0.033882272
2019-11-25T11:55:00	0.2260	4.915		0.554911894	0.675092629	0.010542365	0.108763632	0.033522008
2019-11-25T12:00:00	0.2269	4.938		0.558098962	0.679647268	0.010654090	0.109916282	0.033877266
2019-11-25T12:05:00	0.2263	4.958		0.555880912	0.676476569	0.010576271	0.109113439	0.033629822
2019-11-25T12:10:00	0.2260	4.977		0.555013646	0.675237915	0.010545922	0.108800337	0.033533320
2019-11-25T12:15:00	0.2259	4.992		0.554822235	0.674964619	0.010539230	0.108731295	0.033512041
2019-11-25T12:20:00	0.2262	5.005		0.555644730	0.676139186	0.010568002	0.109028127	0.033603528
2019-11-25T12:25:00	0.2260	5.018		0.555115396	0.675383205	0.010549481	0.108837047	0.033544635
2019-11-25T12:30:00	0.2260	5.032		0.554923991	0.675109901	0.010542787	0.108767995	0.033523352
2019-11-25T12:35:00	0.2253	5.046		0.552703915	0.671942104	0.010465312	0.107968697	0.033277001
2019-11-25T12:40:00	0.2260	5.063		0.554879162	0.675045896	0.010541220	0.108751826	0.033518369
2019-11-25T12:45:00	0.2264	5.077		0.556377412	0.677185964	0.010593665	0.109292893	0.033685131
2019-11-25T12:50:00	0.2262	5.090		0.555848190	0.676429823	0.010575125	0.109101617	0.033626178
2019-11-25T12:55:00	0.2249	5.101		0.551261067	0.669885493	0.010415116	0.107450828	0.033117389
2019-11-25T13:00:00	0.2251	5.108		0.552084405	0.671058854	0.010443745	0.107746187	0.033208421
2019-11-25T13:05:00	0.2250	5.118		0.551554529	0.670303649	0.010425315	0.107556055	0.033149821
2019-11-25T13:10:00	0.2258	5.131		0.554406646	0.674371347	0.010524708	0.108581467	0.033465863
2019-11-25T13:15:00	0.2271	5.147		0.558607230	0.680374407	0.010671963	0.110100675	0.033934097
2019-11-25T13:20:00	0.2265	5.162		0.556727338	0.677686057	0.010605933	0.109419458	0.033724140
2019-11-25T13:25:00	0.2257	5.176		0.554170364	0.674034107	0.010516455	0.108496330	0.033439623
2019-11-25T13:30:00	0.2267	5.191		0.557358111	0.678587773	0.010628066	0.109647793	0.033794515
2019-11-25T13:35:00	0.2266	5.204		0.557166829	0.678314293	0.010621351	0.109578525	0.033773166
2019-11-25T13:40:00	0.2267	5.216		0.557313314	0.678523723	0.010626493	0.109631568	0.033789514
2019-11-25T13:45:00	0.2268	5.228		0.557797523	0.679216124	0.010643497	0.109806998	0.033843583
2019-11-25T13:50:00	0.2270	5.238		0.558281664	0.679908621	0.010660513	0.109982546	0.033897689
2019-11-25T13:55:00	0.2274	5.245		0.559778451	0.682050789	0.010713206	0.110526176	0.034065241
2019-11-25T14:00:00	0.2283	5.251		0.562961073	0.686611819	0.010825688	0.111686624	0.034422902
2019-11-25T14:05:00	0.2279	5.256		0.561420908	0.684403559	0.010771180	0.111124280	0.034249582
2019-11-25T14:10:00	0.2276	5.261		0.560555021	0.683162924	0.010740597	0.110808761	0.034152336
2019-11-25T14:15:00	0.2283	5.264		0.562725371	0.686273746	0.010817337	0.111600471	0.034396349
2019-11-25T14:20:00	0.2280	5.269		0.561859807	0.685032645	0.010786699	0.111284384	0.034298928
2019-11-25T14:25:00	0.2275	5.271		0.559981670	0.682341772	0.010720371	0.110600090	0.034088022
2019-11-25T14:30:00	0.2279	5.271		0.561477727	0.684484990	0.010773189	0.111145000	0.034255968
2019-11-25T14:35:00	0.2275	5.270		0.559936906	0.682277674	0.010718792	0.110583806	0.034083003
2019-11-25T14:40:00	0.2277	5.267		0.560758194	0.683453973	0.010747769	0.110882754	0.034175142
2019-11-25T14:45:00	0.2280	5.261		0.561916619	0.685114087	0.010788708	0.111305116	0.034305318
2019-11-25T14:50:00	0.2278	5.255		0.561050855	0.683873275	0.010758105	0.110989381	0.034208005
2019-11-25T14:55:00	0.2281	5.246		0.562209183	0.685533529	0.010799060	0.111411914	0.034338234
2019-11-25T15:00:00	0.2290	5.238		0.565052594	0.689613734	0.010899932	0.112452590	0.034658980
2019-11-25T15:05:00	0.2297	5.227		0.567556937	0.693212914	0.010989170	0.113373246	0.034942735
2019-11-25T15:10:00	0.2291	5.216		0.565344896	0.690033556	0.010910329	0.112559850	0.034692039
2019-11-25T15:15:00	0.2282	5.204		0.562456992	0.685888861	0.010807832	0.111502415	0.034366127
2019-11-25T15:20:00	0.2290	5.193		0.565300201	0.689969358	0.010908739	0.112543446	0.034686983
2019-11-25T15:25:00	0.2279	5.181		0.561400312	0.684374042	0.010770452	0.111116770	0.034247268
2019-11-25T15:30:00	0.2285	5.167		0.563570137	0.687485622	0.010847281	0.111909403	0.034491565
2019-11-25T15:35:00	0.2285	5.154		0.563379195	0.687211652	0.010840509	0.111839538	0.034470032
2019-11-25T15:40:00	0.2289	5.142		0.564873797	0.689356969	0.010893575	0.112387006	0.034638767
2019-11-25T15:45:00	0.2286	5.129		0.563671637	0.687631271	0.010850882	0.111946551	0.034503014
2019-11-25T15:50:00	0.2295	5.116		0.566850712	0.692197420	0.010963968	0.113113234	0.034862597
2019-11-25T15:55:00	0.2293	5.102		0.566323077	0.691438993	0.010945157	0.112919172	0.034802786
2019-11-25T16:00:00	0.2291	5.090		0.565458405	0.690196604	0.010914367	0.112601516	0.034704881
2019-11-25T16:05:00	0.2285	5.074		0.563483718	0.687361621	0.010844216	0.111877780	0.034481818
2019-11-25T16:10:00	0.2287	5.061		0.564205705	0.688397778	0.010869838	0.112142118	0.034563290
2019-11-25T16:15:00	0.2285	5.045		0.563579187	0.687498609	0.010847603	0.111912715	0.034492586
2019-11-25T16:20:00	0.2276	5.029		0.560591253	0.683214826	0.010741876	0.110821955	0.034156403
2019-11-25T16:25:00	0.2274	5.013		0.559626565	0.681833329	0.010707853	0.110470949	0.034048219
2019-11-25T16:30:00	0.2279	4.998		0.561361604	0.684318569	0.010769084	0.111102656	0.034242918
2019-11-25T16:35:00	0.2289	4.982		0.564781379	0.689224261	0.010890290	0.112353114	0.034628321
2019-11-25T16:40:00	0.2291	4.968		0.565503098	0.690260805	0.010915958	0.112617924	0.034709938
2019-11-25T16:45:00	0.2280	4.953		0.561842233	0.685007452	0.010786077	0.111277970	0.034296951
2019-11-25T16:50:00	0.2280	4.938		0.561889990	0.685075913	0.010787766	0.111295398	0.034302323
2019-11-25T16:55:00	0.2278	4.924		0.561263056	0.684177343	0.010765602	0.111066726	0.034231844
2019-11-25T17:00:00	0.2275	4.908		0.559961065	0.682312268	0.010719644	0.110592594	0.034085712
2019-11-25T17:05:00	0.2272	4.896		0.558996203	0.680931022	0.010685651	0.110241895	0.033977623
2019-11-25T17:10:00	0.2281	4.882		0.562081013	0.685349765	0.010794525	0.111365120	0.034323812
2019-11-25T17:15:00	0.2285	4.869		0.563477684	0.687352964	0.010844002	0.111875572	0.034481138
2019-11-25T17:20:00	0.2287	4.856		0.564199673	0.688389119	0.010869624	0.112139908	0.034562609
2019-11-25T17:25:00	0.2291	4.844		0.565595497	0.690393541	0.010919246	0.112651850	0.034720394
2019-11-25T17:30:00	0.2291	4.832		0.565643203	0.690462076	0.010920944	0.112669368	0.034725793
2019-11-25T17:35:00	0.2289	4.821		0.564679911	0.689078565	0.010886684	0.112315909	0.034616854
2019-11-25T17:40:00	0.2284	4.811		0.563042005	0.686727912	0.010828556	0.111716214	0.034432022
2019-11-25T17:45:00	0.2287	4.800		0.564101204	0.688247777	0.010866128	0.112103838	0.034551492
2019-11-25T17:50:00	0.2283	4.789		0.562800273	0.686381176	0.010819990	0.111627846	0.034404786
2019-11-25T17:55:00	0.2284	4.778		0.563185226	0.686933368	0.010833632	0.111768587	0.034448164
2019-11-25T18:00:00	0.2292	4.767		0.565929425	0.690873305	0.010931134	0.112774499	0.034758196
2019-11-25T18:05:00	0.2289	4.757		0.564966212	0.689489681	0.010896861	0.112420902	0.034649214
2019-11-25T18:10:00	0.2295	4.746		0.566698599	0.691978748	0.010958543	0.113057270	0.034845349
2019-11-25T18:15:00	0.2294	4.735		0.566409425	0.691563095	0.010948235	0.112950919	0.034812570
2019-11-25T18:20:00	0.2293	4.724		0.566120227	0.691147477	0.010937930	0.112844610	0.034779805
2019-11-25T18:25:00	0.2288	4.712		0.564482998	0.688795847	0.010879687	0.112243726	0.034594607
2019-11-25T18:30:00	0.2291	4.702		0.565541760	0.690316344	0.010917334	0.112632119	0.034714313
2019-11-25T18:35:00	0.2302	4.692		0.569294064	0.695712513	0.011051288	0.114014100	0.035140253
2019-11-25T18:40:00	0.2305	4.683		0.570351370	0.697235119	0.011089183	0.114405058	0.035260750
2019-11-25T18:45:00	0.2312	4.672		0.572417411	0.700213055	0.011163424	0.115170983	0.035496815
2019-11-25T18:50:00	0.2305	4.661		0.570110143	0.696887652	0.011080531	0.114315800	0.035233240
2019-11-25T18:55:00	0.2304	4.650		0.569821252	0.696471590	0.011070175	0.114208952	0.035200308
2019-11-25T19:00:00	0.2308	4.639		0.571214833	0.698479262	0.011120180	0.114724845	0.035359311
2019-11-25T19:05:00	0.2308	4.628		0.571262462	0.698547908	0.011121891	0.114742498	0.035364752
2019-11-25T19:10:00	0.2304	4.618		0.569964195	0.696677448	0.011075299	0.114261814	0.035216601
2019-11-25T19:15:00	0.2309	4.605		0.571694108	0.699170103	0.011137404	0.114902543	0.035414080
2019-11-25T19:20:00	0.2311	4.593		0.572078082	0.699723714	0.011151213	0.115045008	0.035457989
2019-11-25T19:25:00	0.2312	4.580		0.572462015	0.700277385	0.011165029	0.115187547	0.035501921
2019-11-25T19:30:00	0.2310	4.569		0.571836975	0.699376073	0.011142541	0.114955540	0.035430414
2019-11-25T19:35:00	0.2318	4.558		0.574574395	0.703325844	0.011241201	0.115973403	0.035744129
2019-11-25T19:40:00	0.2316	4.545		0.573949732	0.702423983	0.011218649	0.115740729	0.035672417
2019-11-25T19:45:00	0.2312	4.534		0.572652461	0.700552073	0.011171886	0.115258286	0.035523723
2019-11-25T19:50:00	0.2306	4.521		0.570681834	0.697711204	0.011101041	0.114527393	0.035298455
2019-11-25T19:55:00	0.2305	4.509		0.570056476	0.696810355	0.011078607	0.114295947	0.035227121
2019-11-25T20:00:00	0.2308	4.498		0.571113551	0.698333296	0.011116542	0.114687311	0.035347743
2019-11-25T20:05:00	0.2310	4.485		0.571833965	0.699371734	0.011142433	0.114954423	0.035430070
2019-11-25T20:10:00	0.2306	4.475		0.570535910	0.697500966	0.011095804	0.114473365	0.035281803
2019-11-25T20:15:00	0.2305	4.466		0.570247053	0.697084853	0.011085441	0.114366454	0.035248852
2019-11-25T20:20:00	0.2295	4.457		0.566928006	0.692308542	0.010966725	0.113141677	0.034871364
2019-11-25T20:25:00	0.2292	4.449		0.565965068	0.690924519	0.010932404	0.112787595	0.034762232
2019-11-25T20:30:00	0.2284	4.442		0.562979177	0.686637788	0.010826329	0.111693243	0.034424942
2019-11-25T20:35:00	0.2278	4.435		0.561003086	0.683804831	0.010756417	0.110971974	0.034202640
2019-11-25T20:40:00	0.2282	4.428		0.562400189	0.685807407	0.010805821	0.111481667	0.034359733
2019-11-25T20:45:00	0.2288	4.421		0.564470934	0.688778527	0.010879259	0.112239305	0.034593244
2019-11-25T20:50:00	0.2285	4.412		0.563507318	0.687395484	0.010845053	0.111886415	0.034484480
2019-11-25T20:55:00	0.2286	4.407		0.563892193	0.687947790	0.010858709	0.112027294	0.034527900
2019-11-25T21:00:00	0.2287	4.400		0.564277025	0.688500156	0.010872371	0.112168247	0.034571343
2019-11-25T21:05:00	0.2282	4.393		0.562301670	0.685666139	0.010802334	0.111445686	0.034348643
2019-11-25T21:10:00	0.2270	4.386		0.558299792	0.679934555	0.010661150	0.109989122	0.033899716
2019-11-25T21:15:00	0.2271	4.377		0.558685243	0.680486032	0.010674708	0.110128991	0.033942825
2019-11-25T21:20:00	0.2268	4.374		0.557720026	0.679105294	0.010640775	0.109778912	0.033834927
2019-11-25T21:25:00	0.2267	4.371		0.557430107	0.678690715	0.010630593	0.109673870	0.033802552
2019-11-25T21:30:00	0.2267	4.365		0.557477925	0.678759089	0.010632272	0.109691191	0.033807890
2019-11-25T21:35:00	0.2263	4.361		0.556174519	0.676896048	0.010586556	0.109219542	0.033662523
2019-11-25T21:40:00	0.2265	4.358		0.556560205	0.677447187	0.010600073	0.109358998	0.033705505
2019-11-25T21:45:00	0.2259	4.356		0.554580468	0.674619469	0.010530780	0.108644121	0.033485173
2019-11-25T21:50:00	0.2255	4.354		0.553275977	0.672757983	0.010485248	0.108174372	0.033340392
2019-11-25T21:55:00	0.2259	4.353		0.554676182	0.674756105	0.010534125	0.108678628	0.033495809
2019-11-25T22:00:00	0.2261	4.351		0.555399996	0.675789635	0.010559437	0.108939761	0.033576292
2019-11-25T22:05:00	0.2266	4.349		0.557181941	0.678335897	0.010621882	0.109583996	0.033774852
2019-11-25T22:10:00	0.2274	4.348		0.559638111	0.681849858	0.010708260	0.110475147	0.034049513
2019-11-25T22:15:00	0.2272	4.346		0.559055547	0.681015954	0.010687741	0.110263449	0.033984266
2019-11-25T22:20:00	0.2275	4.342		0.560160718	0.682598176	0.010726685	0.110665233	0.034108100
2019-11-25T22:25:00	0.2275	4.338		0.560253259	0.682730708	0.010729949	0.110698910	0.034118479
2019-11-25T22:30:00	0.2276	4.336		0.560345797	0.682863243	0.010733214	0.110732591	0.034128860
2019-11-25T22:35:00	0.2274	4.332		0.559763351	0.682029168	0.010712674	0.110520685	0.034063548
2019-11-25T22:40:00	0.2277	4.328		0.560868298	0.683611714	0.010751657	0.110922863	0.034187504
2019-11-25T22:45:00	0.2287	4.323		0.563996166	0.688097014	0.010862399	0.112065367	0.034539635
2019-11-25T22:50:00	0.2294	4.319		0.566447543	0.691617881	0.010949593	0.112964935	0.034816890
2019-11-25T22:55:00	0.2293	4.316		0.566203032	0.691266472	0.010940880	0.112875044	0.034789185
2019-11-25T23:00:00	0.2293	4.311		0.566295413	0.691399235	0.010944172	0.112909002	0.034799651
2019-11-25T23:05:00	0.2292	4.305		0.565713959	0.690563728	0.010923463	0.112695352	0.034733802
2019-11-25T23:10:00	0.2298	4.300		0.567827404	0.693601931	0.010998830	0.113472904	0.034973451
2019-11-25T23:15:00	0.2294	4.297		0.566572539	0.691797544	0.010954049	0.113010902	0.034831058
2019-11-25T23:20:00	0.2296	4.292		0.567338558	0.692898858	0.010981374	0.113292812	0.034917945
2019-11-25T23:25:00	0.2295	4.286		0.566757278	0.692063101	0.010960636	0.113078857	0.034852002
2019-11-25T23:30:00	0.2292	4.280		0.565838982	0.690743353	0.010927914	0.112741273	0.034747955
2019-11-25T23:35:00	0.2297	4.272		0.567615602	0.693297287	0.010991265	0.113394858	0.034949397
2019-11-25T23:40:00	0.2299	4.265		0.568044685	0.693914495	0.011006594	0.113552998	0.034998137
2019-11-25T23:45:00	0.2295	4.256		0.566789898	0.692109994	0.010961799	0.113090858	0.034855701
2019-11-25T23:50:00	0.2288	4.246		0.564523618	0.688854165	0.010881130	0.112258615	0.034599195
2019-11-25T23:55:00	0.2282	4.236		0.562593132	0.686084094	0.010812653	0.111552150	0.034381456
2019-11-26T00:00:00	0.2282	4.226		0.562348351	0.685733075	0.010803986	0.111462735	0.034353897
2019-11-26T00:05:00	0.2288	4.215		0.564463833	0.688768333	0.010879006	0.112236702	0.034592442
2019-11-26T00:10:00	0.2288	4.203		0.564556259	0.688901029	0.010882290	0.112270579	0.034602883
2019-11-26T00:15:00	0.2299	4.192		0.568017568	0.693875485	0.011005625	0.113543001	0.034995056
2019-11-26T00:20:00	0.2299	4.181		0.568109901	0.694008317	0.011008924	0.113577043	0.035005548
2019-11-26T00:25:00	0.2293	4.167		0.566181396	0.691235380	0.010940109	0.112867092	0.034786734
2019-11-26T00:30:00	0.2289	4.157		0.564925940	0.689431848	0.010895429	0.112406131	0.034644661
2019-11-26T00:35:00	0.2282	4.146		0.562321190	0.685694129	0.010803025	0.111452815	0.034350840
2019-11-26T00:40:00	0.2273	4.137		0.559376949	0.681475988	0.010699059	0.110380218	0.034020255
2019-11-26T00:45:00	0.2269	4.127		0.558119042	0.679675991	0.010654796	0.109923564	0.033879510
2019-11-26T00:50:00	0.2262	4.116		0.555847118	0.676428292	0.010575088	0.109101230	0.033626059
2019-11-26T00:55:00	0.2259	4.108		0.554587934	0.674630126	0.010531041	0.108646812	0.033486003
2019-11-26T01:00:00	0.2269	4.097		0.558059147	0.679590316	0.010652691	0.109901844	0.033872816
2019-11-26T01:05:00	0.2277	4.086		0.560852132	0.683588553	0.010751086	0.110916973	0.034185688
2019-11-26T01:10:00	0.2270	4.077		0.558244337	0.679855222	0.010659200	0.109969006	0.033893516
2019-11-26T01:15:00	0.2277	4.068		0.560699758	0.683370259	0.010745706	0.110861470	0.034168582
2019-11-26T01:20:00	0.2273	4.056		0.559442328	0.681569576	0.010701362	0.110403978	0.034027578
2019-11-26T01:25:00	0.2266	4.049		0.557171267	0.678320638	0.010621507	0.109580132	0.033773661
2019-11-26T01:30:00	0.2265	4.039		0.556588290	0.677487326	0.010601058	0.109369157	0.033708636
2019-11-26T01:35:00	0.2260	4.029		0.554991405	0.675206157	0.010545145	0.108792313	0.033530847
2019-11-26T01:40:00	0.2261	4.019		0.555422044	0.675821123	0.010560208	0.108947721	0.033578746
2019-11-26T01:45:00	0.2252	4.009		0.552471961	0.671611365	0.010457234	0.107885359	0.033251315
2019-11-26T01:50:00	0.2249	3.997		0.551211555	0.669814948	0.010413395	0.107433079	0.033111918
2019-11-26T01:55:00	0.2247	3.986		0.550627578	0.668983067	0.010393115	0.107223853	0.033047433
2019-11-26T02:00:00	0.2243	3.977		0.549366501	0.667187605	0.010349389	0.106772742	0.032908396
2019-11-26T02:05:00	0.2245	3.966		0.549797838	0.667801575	0.010364335	0.106926931	0.032955919
2019-11-26T02:10:00	0.2246	3.957		0.550229120	0.668415620	0.010379289	0.107081213	0.033003470
2019-11-26T02:15:00	0.2245	3.945		0.549983468	0.668065851	0.010370770	0.106993323	0.032976381
2019-11-26T02:20:00	0.2249	3.936		0.551429874	0.670126018	0.010420982	0.107511351	0.033136042
2019-11-26T02:25:00	0.2249	3.925		0.551184307	0.669776127	0.010412449	0.107423312	0.033108908
2019-11-26T02:30:00	0.2261	3.915		0.555334887	0.675696648	0.010557159	0.108916259	0.033569049
2019-11-26T02:35:00	0.2267	3.905		0.557454628	0.678725777	0.010631454	0.109682752	0.033805289
2019-11-26T02:40:00	0.2275	3.894		0.560248098	0.682723317	0.010729767	0.110697032	0.034117900
2019-11-26T02:45:00	0.2278	3.884		0.561015506	0.683822626	0.010756856	0.110976500	0.034204035
2019-11-26T02:50:00	0.2274	3.872		0.559758190	0.682021779	0.010712492	0.110518808	0.034062970
2019-11-26T02:55:00	0.2270	3.861		0.558500420	0.680221584	0.010668206	0.110061913	0.033922150
2019-11-26T03:00:00	0.2274	3.852		0.559605768	0.681803554	0.010707120	0.110463388	0.034045889
2019-11-26T03:05:00	0.2271	3.847		0.558685587	0.680486524	0.010674720	0.110129116	0.033942863
2019-11-26T03:10:00	0.2272	3.844		0.559115769	0.681102145	0.010689861	0.110285323	0.033991008
2019-11-26T03:15:00	0.2263	3.844		0.556168817	0.676887901	0.010586356	0.109217480	0.033661888
2019-11-26T03:20:00	0.2268	3.846		0.557612653	0.678951744	0.010637003	0.109740003	0.033822935
2019-11-26T03:25:00	0.2280	3.847		0.561755580	0.684883239	0.010783013	0.111246352	0.034287206
2019-11-26T03:30:00	0.2275	3.849		0.560161062	0.682598669	0.010726697	0.110665358	0.034108138
2019-11-26T03:35:00	0.2273	3.852		0.559578585	0.681764639	0.010706163	0.110453507	0.034042843
2019-11-26T03:40:00	0.2271	3.854		0.558658397	0.680447619	0.010673763	0.110119247	0.033939821
2019-11-26T03:45:00	0.2276	3.858		0.560438676	0.682996274	0.010736491	0.110766401	0.034139281
2019-11-26T03:50:00	0.2279	3.862		0.561543409	0.684579128	0.010775510	0.111168955	0.034263351
2019-11-26T03:55:00	0.2283	3.865		0.562647793	0.686162485	0.010814589	0.111572123	0.034387612
2019-11-26T04:00:00	0.2276	3.868		0.560378821	0.682910542	0.010734379	0.110744612	0.034132565
2019-11-26T04:05:00	0.2282	3.872		0.562349230	0.685734335	0.010804017	0.111463055	0.034353996
2019-11-26T04:10:00	0.2287	3.876		0.563981427	0.688075860	0.010861876	0.112059970	0.034537971
2019-11-26T04:15:00	0.2291	3.879		0.565612862	0.690418487	0.010919864	0.112658226	0.034722359
2019-11-26T04:20:00	0.2283	3.882		0.562862379	0.686470254	0.010822191	0.111650546	0.034411783
2019-11-26T04:25:00	0.2287	3.885		0.564157254	0.688328230	0.010868118	0.112124369	0.034557819
2019-11-26T04:30:00	0.2295	3.886		0.566799284	0.692123486	0.010962134	0.113094311	0.034856765
2019-11-26T04:35:00	0.2290	3.890		0.565060915	0.689625685	0.010900228	0.112455643	0.034659921
2019-11-26T04:40:00	0.2299	3.891		0.568039002	0.693906320	0.011006391	0.113550903	0.034997491
2019-11-26T04:45:00	0.2306	3.893		0.570678100	0.697705823	0.011100907	0.114526010	0.035298029
2019-11-26T04:50:00	0.2316	3.894		0.573987577	0.702478613	0.011220014	0.115754819	0.035676759
2019-11-26T04:55:00	0.2319	3.893		0.574942296	0.703857154	0.011254495	0.116110550	0.035786399
2019-11-26T05:00:00	0.2334	3.891		0.579926069	0.711065605	0.011435366	0.117976563	0.036361522
2019-11-26T05:05:00	0.2345	3.889		0.583562088	0.716337691	0.011568254	0.119347546	0.036784073
2019-11-26T05:10:00	0.2343	3.888		0.582838079	0.715287031	0.011541731	0.119073908	0.036699735
2019-11-26T05:15:00	0.2350	3.890		0.585466068	0.719102770	0.011638154	0.120068687	0.037006335
2019-11-26T05:20:00	0.2352	3.891		0.586082691	0.719998916	0.011660838	0.120302712	0.037078464
2019-11-26T05:25:00	0.2355	3.891		0.587034128	0.721382270	0.011695883	0.120664266	0.037189899
2019-11-26T05:30:00	0.2352	3.893		0.585975843	0.719843609	0.011656905	0.120262144	0.037065961
2019-11-26T05:35:00	0.2359	3.891		0.588266717	0.723175530	0.011741364	0.121133487	0.037334517
2019-11-26T05:40:00	0.2350	3.889		0.585198894	0.718714582	0.011628332	0.119967359	0.036975105
2019-11-26T05:45:00	0.2347	3.886		0.584475222	0.717663426	0.011601751	0.119693122	0.036890583
2019-11-26T05:50:00	0.2349	3.884		0.585092019	0.718559315	0.011624405	0.119926839	0.036962616
2019-11-26T05:55:00	0.2341	3.881		0.582356793	0.714588842	0.011524116	0.118892184	0.036643726
2019-11-26T06:00:00	0.2332	3.878		0.579283807	0.710135490	0.011411974	0.117735235	0.036287143
2019-11-26T06:05:00	0.2336	3.874		0.580572623	0.712002280	0.011458939	0.118219758	0.036436477
2019-11-26T06:10:00	0.2343	3.865		0.582867018	0.715329018	0.011542790	0.119084840	0.036703104
2019-11-26T06:15:00	0.2332	3.858		0.579123223	0.709902988	0.011406130	0.117674936	0.036268558
2019-11-26T06:20:00	0.2335	3.854		0.580412098	0.711769692	0.011453084	0.118159354	0.036417860
2019-11-26T06:25:00	0.2341	3.849		0.582371264	0.714609833	0.011524646	0.118897646	0.036645409
2019-11-26T06:30:00	0.2341	3.843		0.582317784	0.714532262	0.011522689	0.118877462	0.036639188
2019-11-26T06:35:00	0.2345	3.839		0.583605488	0.716400685	0.011569845	0.119363959	0.036789131
2019-11-26T06:40:00	0.2341	3.835		0.582210821	0.714377124	0.011518777	0.118837097	0.036626747
2019-11-26T06:45:00	0.2342	3.829		0.582492693	0.714785969	0.011529089	0.118943483	0.036659537
2019-11-26T06:50:00	0.2344	3.824		0.583445101	0.716167893	0.011563966	0.119303309	0.036770439
2019-11-26T06:55:00	0.2360	3.816		0.588751595	0.723881311	0.011759280	0.121318326	0.037391486
2019-11-26T07:00:00	0.2369	3.814		0.591709652	0.728191264	0.011868884	0.122449085	0.037739997
2019-11-26T07:05:00	0.2379	3.823		0.594999395	0.732993062	0.011991390	0.123712958	0.038129535
2019-11-26T07:10:00	0.2384	3.827		0.596616486	0.735356722	0.012051845	0.124336664	0.038321767
2019-11-26T07:15:00	0.2380	3.832		0.595226961	0.733325557	0.011999888	0.123800632	0.038156557
2019-11-26T07:20:00	0.2379	3.837		0.595173675	0.733247698	0.011997898	0.123780100	0.038150229
2019-11-26T07:25:00	0.2374	3.845		0.593449302	0.730729379	0.011933586	0.123116604	0.037945733
2019-11-26T07:30:00	0.2375	3.853		0.593730275	0.731139551	0.011944053	0.123224591	0.037979016
2019-11-26T07:35:00	0.2378	3.864		0.594679650	0.732525957	0.011979455	0.123589825	0.038091584
2019-11-26T07:40:00	0.2377	3.876		0.594292156	0.731959994	0.011964999	0.123440685	0.038045618
2019-11-26T07:45:00	0.2367	3.888		0.590895053	0.727003649	0.011838649	0.122137157	0.037643858
2019-11-26T07:50:00	0.2372	3.904		0.592514025	0.729364516	0.011898778	0.122757499	0.037835053
2019-11-26T07:55:00	0.2362	3.921		0.589449901	0.724898101	0.011785107	0.121584778	0.037473609
2019-11-26T08:00:00	0.2366	3.943		0.590734998	0.726770368	0.011832713	0.122075916	0.037624983
2019-11-26T08:05:00	0.2371	3.965		0.592354044	0.729131126	0.011892829	0.122696127	0.037816138
2019-11-26T08:10:00	0.2372	3.989		0.592635105	0.729541168	0.011903281	0.122803958	0.037849373
2019-11-26T08:15:00	0.2372	4.013		0.592581780	0.729463367	0.011901298	0.122783496	0.037843066
2019-11-26T08:20:00	0.2376	4.036		0.593865737	0.731337325	0.011949101	0.123276671	0.037995067
2019-11-26T08:25:00	0.2384	4.061		0.596819511	0.735653633	0.012059446	0.124415084	0.038345937
2019-11-26T08:30:00	0.2380	4.089		0.595430066	0.733622349	0.012007475	0.123878909	0.038180683
2019-11-26T08:35:00	0.2386	4.124		0.597380900	0.736474807	0.012080477	0.124632057	0.038412810
2019-11-26T08:40:00	0.2394	4.156		0.599998076	0.740306569	0.012178772	0.125646141	0.038725361
2019-11-26T08:45:00	0.2392	4.191		0.599277435	0.739250918	0.012151665	0.125366490	0.038639170
2019-11-26T08:50:00	0.2393	4.220		0.599557945	0.739661780	0.012162213	0.125475307	0.038672708
2019-11-26T08:55:00	0.2379	4.251		0.595163647	0.733233044	0.011997523	0.123776236	0.038149038
2019-11-26T09:00:00	0.2381	4.279		0.595778576	0.734131698	0.012020500	0.124013284	0.038222099
2019-11-26T09:05:00	0.2387	4.307		0.597729218	0.736984442	0.012093536	0.124766777	0.038454332
2019-11-26T09:10:00	0.2393	4.339		0.599678784	0.739838791	0.012166758	0.125522197	0.038687160
2019-11-26T09:15:00	0.2396	4.369		0.600626562	0.741227576	0.012202437	0.125890291	0.038800610
2019-11-26T09:20:00	0.2395	4.396		0.600239719	0.740660642	0.012187868	0.125739984	0.038754284
2019-11-26T09:25:00	0.2393	4.421		0.599852833	0.740093771	0.012173306	0.125589752	0.038707981
2019-11-26T09:30:00	0.2391	4.452		0.599132162	0.739038165	0.012146205	0.125310155	0.038621807
2019-11-26T09:35:00	0.2386	4.486		0.597409720	0.736516971	0.012081557	0.124643201	0.038416245
2019-11-26T09:40:00	0.2392	4.520		0.599359462	0.739371056	0.012154749	0.125398306	0.038648976
2019-11-26T09:45:00	0.2395	4.546		0.600307326	0.740759714	0.012190413	0.125766246	0.038762378
2019-11-26T09:50:00	0.2390	4.569		0.598585456	0.738237665	0.012125666	0.125098265	0.038556500
2019-11-26T09:55:00	0.2386	4.589		0.597196705	0.736205347	0.012073575	0.124560846	0.038390862
2019-11-26T10:00:00	0.2376	4.610		0.594136646	0.731732897	0.011959200	0.123380858	0.038027179
2019-11-26T10:05:00	0.2366	4.633		0.590692028	0.726707742	0.011831119	0.122059477	0.037619916
2019-11-26T10:10:00	0.2367	4.661		0.590925858	0.727048551	0.011839791	0.122148945	0.037647491
2019-11-26T10:15:00	0.2361	4.690		0.589152019	0.724464312	0.011774086	0.121471079	0.037438566
2019-11-26T10:20:00	0.2362	4.719		0.589385952	0.724804970	0.011782741	0.121560365	0.037466085
2019-11-26T10:25:00	0.2369	4.743		0.591627257	0.728071115	0.011865824	0.122417516	0.037730267
2019-11-26T10:30:00	0.2369	4.765		0.591526562	0.727924288	0.011862085	0.122378941	0.037718378
2019-11-26T10:35:00	0.2367	4.789		0.591091360	0.727289798	0.011845931	0.122212290	0.037667015
2019-11-26T10:40:00	0.2360	4.814		0.588648164	0.723730742	0.011755457	0.121278885	0.037379330
2019-11-26T10:45:00	0.2362	4.838		0.589216844	0.724558707	0.011776484	0.121495817	0.037446191
2019-11-26T10:50:00	0.2357	4.862		0.587776995	0.722462895	0.011723283	0.120946948	0.037277024
2019-11-26T10:55:00	0.2349	4.884		0.584996413	0.718420428	0.011620892	0.119890596	0.036951446
2019-11-26T11:00:00	0.2335	4.908		0.580200865	0.711463665	0.011445382	0.118079893	0.036393370
2019-11-26T11:05:00	0.2327	4.932		0.577750089	0.707915768	0.011356214	0.117159968	0.036109840
2019-11-26T11:10:00	0.2338	4.953		0.581340868	0.713115703	0.011486980	0.118509059	0.036525643
2019-11-26T11:15:00	0.2343	4.972		0.582916768	0.715401201	0.011544612	0.119103633	0.036708896
2019-11-26T11:20:00	0.2352	4.991		0.585832298	0.719634979	0.011651624	0.120207653	0.037049166
2019-11-26T11:25:00	0.2358	5.011		0.588075865	0.722897781	0.011734316	0.121060773	0.037312106
2019-11-26T11:30:00	0.2362	5.031		0.589314079	0.724700302	0.011780082	0.121532929	0.037457629
2019-11-26T11:35:00	0.2355	5.051		0.586869649	0.721143070	0.011689820	0.120601723	0.037170622
2019-11-26T11:40:00	0.2350	5.071		0.585428840	0.719048676	0.011636785	0.120054565	0.037001983
2019-11-26T11:45:00	0.2347	5.093		0.584322620	0.717441821	0.011596149	0.119635334	0.036872772
2019-11-26T11:50:00	0.2344	5.114		0.583216052	0.715835478	0.011555574	0.119216722	0.036743752
2019-11-26T11:55:00	0.2326	5.136		0.577410744	0.707424903	0.011343896	0.117032881	0.036070671
2019-11-26T12:00:00	0.2319	5.159		0.574958016	0.703879859	0.011255063	0.116116412	0.035788206
2019-11-26T12:05:00	0.2321	5.183		0.575528916	0.704704563	0.011275708	0.116329402	0.035853851
2019-11-26T12:10:00	0.2328	5.207		0.577779069	0.707957693	0.011357267	0.117170825	0.036113186
2019-11-26T12:15:00	0.2330	5.230		0.578685229	0.709268947	0.011390196	0.117510549	0.036217893
2019-11-26T12:20:00	0.2341	5.251		0.582275052	0.714470283	0.011521126	0.118861335	0.036634218
2019-11-26T12:25:00	0.2336	5.274		0.580496846	0.711892482	0.011456175	0.118191242	0.036427689
2019-11-26T12:30:00	0.2335	5.297		0.580395832	0.711746125	0.011452491	0.118153234	0.036415974
2019-11-26T12:35:00	0.2334	5.320		0.579959251	0.711113668	0.011436575	0.117989038	0.036365367
2019-11-26T12:40:00	0.2329	5.340		0.578179871	0.708537587	0.011371825	0.117321026	0.036159480
2019-11-26T12:45:00	0.2326	5.358		0.577407206	0.707419787	0.011343767	0.117031557	0.036070262
2019-11-26T12:50:00	0.2322	5.375		0.575962510	0.705331098	0.011291401	0.116491299	0.035903750
2019-11-26T12:55:00	0.2324	5.389		0.576533246	0.706156041	0.011312074	0.116704579	0.035969485
2019-11-26T13:00:00	0.2323	5.398		0.576096184	0.705524288	0.011296241	0.116541234	0.035919140
2019-11-26T13:05:00	0.2326	5.409		0.577338626	0.707320596	0.011341279	0.117005881	0.036062349
2019-11-26T13:10:00	0.2326	5.420		0.577237521	0.707174373	0.011337610	0.116968035	0.036050684
2019-11-26T13:15:00	0.2322	5.429		0.575792755	0.705085787	0.011285256	0.116427901	0.035884210
2019-11-26T13:20:00	0.2309	5.438		0.571657419	0.699117212	0.011136085	0.114888935	0.035409885
2019-11-26T13:25:00	0.2308	5.446		0.571219748	0.698486346	0.011120356	0.114726667	0.035359873
2019-11-26T13:30:00	0.2313	5.454		0.572800202	0.700765187	0.011177206	0.115313177	0.035540641
2019-11-26T13:35:00	0.2314	5.459		0.573371453	0.701589378	0.011197791	0.115525546	0.035606095
2019-11-26T13:40:00	0.2317	5.465		0.574278752	0.702898968	0.011230525	0.115863253	0.035710180
2019-11-26T13:45:00	0.2315	5.472		0.573505227	0.701782424	0.011202614	0.115575306	0.035621432
2019-11-26T13:50:00	0.2314	5.479		0.573067788	0.701151221	0.011186846	0.115412630	0.035571294
2019-11-26T13:55:00	0.2319	5.486		0.574983480	0.703916638	0.011255984	0.116125907	0.035791132
2019-11-26T14:00:00	0.2314	5.487		0.573201573	0.701344250	0.011191667	0.115462370	0.035586624
2019-11-26T14:05:00	0.2315	5.485		0.573436570	0.701683345	0.011200139	0.115549766	0.035613560
2019-11-26T14:10:00	0.2315	5.485		0.573671552	0.702022463	0.011208613	0.115637190	0.035640505
2019-11-26T14:15:00	0.2319	5.487		0.574914852	0.703817517	0.011253503	0.116100316	0.035783245
2019-11-26T14:20:00	0.2322	5.486		0.575821752	0.705127688	0.011286305	0.116438730	0.035887547
2019-11-26T14:25:00	0.2333	5.485		0.579750120	0.710810764	0.011428955	0.117910425	0.036341138
2019-11-26T14:30:00	0.2337	5.484		0.580991269	0.712608965	0.011474215	0.118377364	0.036485053
2019-11-26T14:35:00	0.2341	5.483		0.582231978	0.714407810	0.011519551	0.118845080	0.036629208
2019-11-26T14:40:00	0.2338	5.477		0.581460205	0.713288703	0.011491339	0.118554030	0.036539504
2019-11-26T14:45:00	0.2340	5.469		0.582030048	0.714114954	0.011512166	0.118768893	0.036605726
2019-11-26T14:50:00	0.2343	5.458		0.582935111	0.715427815	0.011545284	0.119110563	0.036711032
2019-11-26T14:55:00	0.2346	5.449		0.583839941	0.716741019	0.011578441	0.119452646	0.036816466
2019-11-26T15:00:00	0.2347	5.446		0.584409399	0.717567837	0.011599334	0.119668194	0.036882900
2019-11-26T15:05:00	0.2347	5.445		0.584308498	0.717421315	0.011595631	0.119629987	0.036871124
2019-11-26T15:10:00	0.2347	5.441		0.584207594	0.717274797	0.011591928	0.119591785	0.036859350
2019-11-26T15:15:00	0.2346	5.435		0.584106687	0.717128283	0.011588226	0.119553588	0.036847577
2019-11-26T15:20:00	0.2351	5.423		0.585681348	0.719415603	0.011646071	0.120150365	0.037031509
2019-11-26T15:25:00	0.2354	5.411		0.586585472	0.720729847	0.011679350	0.120493704	0.037137330
2019-11-26T15:30:00	0.2356	5.398		0.587489364	0.722044433	0.011712670	0.120837456	0.037243278
2019-11-26T15:35:00	0.2355	5.383		0.587053663	0.721410681	0.011696603	0.120671696	0.037192189
2019-11-26T15:40:00	0.2367	5.371		0.590969508	0.727112175	0.011841411	0.122165650	0.037652640
2019-11-26T15:45:00	0.2365	5.361		0.590199648	0.725990246	0.011812869	0.121871193	0.037561885
2019-11-26T15:50:00	0.2374	5.353		0.593443471	0.730720867	0.011933369	0.123114364	0.037945043
2019-11-26T15:55:00	0.2381	5.347		0.595682200	0.733990834	0.012016898	0.123976117	0.038210643
2019-11-26T16:00:00	0.2378	5.344		0.594579194	0.732379222	0.011975706	0.123551152	0.038079665
2019-11-26T16:05:00	0.2386	5.342		0.597479121	0.736618507	0.012084159	0.124670039	0.038424517
2019-11-26T16:10:00	0.2386	5.342		0.597372617	0.736462690	0.012080167	0.124628854	0.038411823
2019-11-26T16:15:00	0.2384	5.342		0.596598176	0.735329947	0.012051160	0.124329593	0.038319588
2019-11-26T16:20:00	0.2389	5.343		0.598495131	0.738105432	0.012122275	0.125063274	0.038545716
2019-11-26T16:25:00	0.2393	5.341		0.599723724	0.739904625	0.012168448	0.125539638	0.038692536
2019-11-26T16:30:00	0.2393	5.338		0.599617288	0.739748707	0.012164445	0.125498333	0.038679805
2019-11-26T16:35:00	0.2388	5.335		0.598175702	0.737637857	0.012110285	0.124939574	0.038507590
2019-11-26T16:40:00	0.2394	5.333		0.600071810	0.740414604	0.012181547	0.125674772	0.038734185
2019-11-26T16:45:00	0.2398	5.333		0.601299856	0.742214615	0.012227815	0.126152118	0.038881308
2019-11-26T16:50:00	0.2403	5.334		0.603194291	0.744993862	0.012299369	0.126890319	0.039108829
2019-11-26T16:55:00	0.2400	5.337		0.602087659	0.743370003	0.012257545	0.126458831	0.038975840
2019-11-26T17:00:00	0.2402	5.332		0.602648212	0.744192425	0.012278721	0.126677302	0.039043175
2019-11-26T17:05:00	0.2403	5.322		0.602875287	0.744525654	0.012287305	0.126765858	0.039070469
2019-11-26T17:10:00	0.2413	5.309		0.606434629	0.749754598	0.012422255	0.128158115	0.039499576
2019-11-26T17:15:00	0.2408	5.303		0.604662595	0.747150018	0.012354975	0.127463995	0.039285641
2019-11-26T17:20:00	0.2414	5.294		0.606555233	0.749931960	0.012426841	0.128205427	0.039514158
2019-11-26T17:25:00	0.2415	5.283		0.607115080	0.750755441	0.012448140	0.128425170	0.039581885
2019-11-26T17:30:00	0.2409	5.274		0.605010196	0.747660724	0.012368157	0.127600000	0.039327559
2019-11-26T17:35:00	0.2409	5.266		0.604903919	0.747504568	0.012364126	0.127558409	0.039314741
2019-11-26T17:40:00	0.2410	5.257		0.605464027	0.748327657	0.012385380	0.127777682	0.039382323
2019-11-26T17:45:00	0.2409	5.246		0.605024575	0.747681852	0.012368703	0.127605628	0.039329294
2019-11-26T17:50:00	0.2407	5.233		0.604251807	0.746546608	0.012339405	0.127303363	0.039236133
2019-11-26T17:55:00	0.2405	5.220		0.603812205	0.745901029	0.012322754	0.127131580	0.039183188
2019-11-26T18:00:00	0.2409	5.208		0.605038954	0.747702980	0.012369248	0.127611255	0.039331028
2019-11-26T18:05:00	0.2413	5.199		0.606265279	0.749505568	0.012415817	0.128091695	0.039479105
2019-11-26T18:10:00	0.2419	5.193		0.608489956	0.752778866	0.012500527	0.128965637	0.039748462
2019-11-26T18:15:00	0.2417	5.190		0.607717943	0.751642488	0.012471097	0.128662012	0.039654882
2019-11-26T18:20:00	0.2420	5.185		0.608610490	0.752956334	0.012505126	0.129013075	0.039763083
2019-11-26T18:25:00	0.2417	5.183		0.607838504	0.751819916	0.012475691	0.128709403	0.039669488
2019-11-26T18:30:00	0.2419	5.183		0.608398149	0.752643702	0.012497026	0.128929510	0.039737327
2019-11-26T18:35:00	0.2423	5.185		0.609623313	0.754448036	0.012543797	0.129412042	0.039886048
2019-11-26T18:40:00	0.2423	5.187		0.609849940	0.754781936	0.012552459	0.129501401	0.039913589
2019-11-26T18:45:00	0.2415	5.187		0.607080720	0.750704892	0.012446833	0.128411677	0.039577726
2019-11-26T18:50:00	0.2424	5.187		0.609970428	0.754959473	0.012557065	0.129548922	0.039928236
2019-11-26T18:55:00	0.2431	5.186		0.612192785	0.758236267	0.012642181	0.130427050	0.040198883
2019-11-26T19:00:00	0.2440	5.187		0.615410586	0.762988167	0.012765948	0.131703937	0.040592432
2019-11-26T19:05:00	0.2453	5.190		0.619621134	0.769219271	0.012928842	0.133384475	0.041110390
2019-11-26T19:10:00	0.2456	5.193		0.620510698	0.770537630	0.012963393	0.133740933	0.041220254
2019-11-26T19:15:00	0.2463	5.197		0.623058020	0.774316523	0.013062596	0.134764395	0.041535695
2019-11-26T19:20:00	0.2462	5.198		0.622620737	0.773667434	0.013045539	0.134588416	0.041481457
2019-11-26T19:25:00	0.2457	5.195		0.620856753	0.771050674	0.012976847	0.133879734	0.041263034
2019-11-26T19:30:00	0.2463	5.189		0.623072326	0.774337761	0.013063154	0.134770154	0.041537470
2019-11-26T19:35:00	0.2467	5.181		0.624292449	0.776149740	0.013110811	0.135261817	0.041689006
2019-11-26T19:40:00	0.2471	5.171		0.625512156	0.777962357	0.013158541	0.135754239	0.041840775
2019-11-26T19:45:00	0.2491	5.168		0.632357040	0.788157926	0.013428066	0.138534880	0.042697795
2019-11-26T19:50:00	0.2492	5.168		0.632582228	0.788494020	0.013436981	0.138626856	0.042726143
2019-11-26T19:55:00	0.2497	5.170		0.634129620	0.790804677	0.013498326	0.139259736	0.042921203
2019-11-26T20:00:00	0.2491	5.177		0.632371309	0.788179222	0.013428631	0.138540707	0.042699591
2019-11-26T20:05:00	0.2501	5.182		0.635570977	0.792958821	0.013555597	0.139850595	0.043103312
2019-11-26T20:10:00	0.2492	5.189		0.632491039	0.788357914	0.013433370	0.138589607	0.042714663
2019-11-26T20:15:00	0.2497	5.193		0.634368957	0.791162250	0.013507827	0.139357758	0.042951414
2019-11-26T20:20:00	0.2482	5.196		0.629302897	0.783603833	0.013307455	0.137290563	0.042314285
2019-11-26T20:25:00	0.2477	5.193		0.627542213	0.780982028	0.013238181	0.136575872	0.042094010
2019-11-26T20:30:00	0.2470	5.182		0.625449380	0.777869033	0.013156082	0.135728872	0.041832956
2019-11-26T20:35:00	0.2478	5.169		0.627993180	0.781653305	0.013255906	0.136758743	0.042150373
2019-11-26T20:40:00	0.2471	5.157		0.625569341	0.778047370	0.013160781	0.135777348	0.041847897
2019-11-26T20:45:00	0.2468	5.147		0.624469652	0.776413004	0.013117739	0.135333300	0.041711037
2019-11-26T20:50:00	0.2461	5.135		0.622375016	0.773302766	0.013035959	0.134489582	0.041450995
2019-11-26T20:55:00	0.2465	5.128		0.623595378	0.775114381	0.013083573	0.134980811	0.041602397
2019-11-26T21:00:00	0.2453	5.120		0.619509692	0.769054158	0.012924516	0.133339854	0.041096638
2019-11-26T21:05:00	0.2440	5.120		0.615419316	0.763001071	0.012766285	0.131707410	0.040593503
2019-11-26T21:10:00	0.2440	5.120		0.615313350	0.762844446	0.012762199	0.131665257	0.040580511
2019-11-26T21:15:00	0.2447	5.120		0.617532372	0.766126288	0.012847900	0.132549419	0.040853018
2019-11-26T21:20:00	0.2436	5.119		0.614104489	0.761058333	0.012715636	0.131184877	0.040432453
2019-11-26T21:25:00	0.2433	5.120		0.613001255	0.759429359	0.012673219	0.130747262	0.040297576
2019-11-26T21:30:00	0.2428	5.122		0.611232498	0.756819845	0.012605366	0.130047232	0.040081820
2019-11-26T21:35:00	0.2432	5.124		0.612789176	0.759116332	0.012665073	0.130663224	0.040271675
2019-11-26T21:40:00	0.2437	5.127		0.614345173	0.761413849	0.012724900	0.131280448	0.040461909
2019-11-26T21:45:00	0.2440	5.129		0.615236056	0.762730206	0.012759219	0.131634515	0.040571036
2019-11-26T21:50:00	0.2436	5.131		0.614133174	0.761100700	0.012716740	0.131196265	0.040435963
2019-11-26T21:55:00	0.2432	5.134		0.612697479	0.758981000	0.012661552	0.130626897	0.040260478
2019-11-26T22:00:00	0.2446	5.137		0.617243312	0.765698545	0.012836720	0.132434071	0.040817467
2019-11-26T22:05:00	0.2444	5.142		0.616652370	0.764824305	0.012813878	0.132198419	0.040744837
2019-11-26T22:10:00	0.2442	5.148		0.616061329	0.763950213	0.012791054	0.131962946	0.040672261
2019-11-26T22:15:00	0.2447	5.154		0.617795010	0.766514993	0.012858063	0.132654269	0.040885334
2019-11-26T22:20:00	0.2460	5.159		0.621850019	0.772523800	0.013015503	0.134278541	0.041385951
2019-11-26T22:25:00	0.2462	5.161		0.622586338	0.773616380	0.013044197	0.134574578	0.041477192
2019-11-26T22:30:00	0.2460	5.159		0.621996281	0.772740793	0.013021200	0.134337319	0.041404066
2019-11-26T22:35:00	0.2470	5.152		0.625383975	0.777771807	0.013153520	0.135702446	0.041824812
2019-11-26T22:40:00	0.2476	5.145		0.627444257	0.780836240	0.013234332	0.136536167	0.042081773
2019-11-26T22:45:00	0.2480	5.141		0.628510451	0.782423490	0.013276253	0.136968656	0.042215070
2019-11-26T22:50:00	0.2481	5.145		0.628914437	0.783025158	0.013292155	0.137132714	0.042265634
2019-11-26T22:55:00	0.2487	5.153		0.630972686	0.786092710	0.013373327	0.137970145	0.042523739
2019-11-26T23:00:00	0.2485	5.161		0.630384013	0.785215004	0.013350085	0.137730364	0.042449836
2019-11-26T23:05:00	0.2494	5.165		0.633102655	0.789270926	0.013457597	0.138839543	0.042791695
2019-11-26T23:10:00	0.2490	5.167		0.631852986	0.787405776	0.013408121	0.138329117	0.042634377
2019-11-26T23:15:00	0.2485	5.160		0.630272045	0.785048094	0.013345667	0.137684781	0.042435787
2019-11-26T23:20:00	0.2491	5.154		0.632329514	0.788116845	0.013426976	0.138523639	0.042694331
2019-11-26T23:25:00	0.2486	5.147		0.630748784	0.785758839	0.013364484	0.137878919	0.042495622
2019-11-26T23:30:00	0.2491	5.142		0.632144685	0.787841024	0.013419661	0.138448174	0.042671072
2019-11-26T23:35:00	0.2502	5.139		0.635853133	0.793380716	0.013566823	0.139966412	0.043139007
2019-11-26T23:40:00	0.2498	5.134		0.634604423	0.791514087	0.013517178	0.139454229	0.042981148
2019-11-26T23:45:00	0.2499	5.129		0.635007722	0.792116812	0.013533201	0.139619544	0.043032099
2019-11-26T23:50:00	0.2490	5.124		0.631775000	0.787289426	0.013405037	0.138297296	0.042624570
2019-11-26T23:55:00	0.2492	5.118		0.632509277	0.788385135	0.013434093	0.138597056	0.042716959
2019-11-27T00:00:00	0.2489	5.110		0.631590144	0.787013649	0.013397727	0.138221883	0.042601327
2019-11-27T00:05:00	0.2501	5.102		0.635629535	0.793046375	0.013557926	0.139874627	0.043110719
2019-11-27T00:10:00	0.2509	5.094		0.638344202	0.797108431	0.013666144	0.140991087	0.043454822
2019-11-27T00:15:00	0.2521	5.090		0.642046248	0.802658022	0.013814444	0.142521069	0.043926378
2019-11-27T00:20:00	0.2517	5.097		0.640799692	0.800788058	0.013764415	0.142004932	0.043767299
2019-11-27T00:25:00	0.2516	5.110		0.640542549	0.800402482	0.013754107	0.141898584	0.043734522
2019-11-27T00:30:00	0.2522	5.123		0.642594135	0.803480326	0.013836462	0.142748229	0.043996391
2019-11-27T00:35:00	0.2533	5.135		0.645962417	0.808541274	0.013972228	0.144148903	0.044428092
2019-11-27T00:40:00	0.2530	5.146		0.645046723	0.807164460	0.013935251	0.143767413	0.044310513
2019-11-27T00:45:00	0.2538	5.155		0.647754286	0.811237548	0.014044735	0.144896942	0.044658645
2019-11-27T00:50:00	0.2537	5.164		0.647497640	0.810851198	0.014034338	0.144789678	0.044625585
2019-11-27T00:55:00	0.2539	5.172		0.648228709	0.811951882	0.014063965	0.145095334	0.044719791
2019-11-27T01:00:00	0.2531	5.179		0.645337352	0.807601366	0.013946981	0.143888436	0.044347813
2019-11-27T01:05:00	0.2532	5.186		0.645739448	0.808205958	0.013963220	0.144055962	0.044399447
2019-11-27T01:10:00	0.2540	5.194		0.648446491	0.812279858	0.014072797	0.145186452	0.044747875
2019-11-27T01:15:00	0.2531	5.201		0.645555309	0.807929069	0.013955782	0.143979231	0.044375797
2019-11-27T01:20:00	0.2525	5.208		0.643321159	0.804571886	0.013865708	0.143049954	0.044089385
2019-11-27T01:25:00	0.2522	5.214		0.642404793	0.803196120	0.013828851	0.142669705	0.043972189
2019-11-27T01:30:00	0.2506	5.219		0.637198015	0.795392587	0.013620398	0.140519133	0.043309361
2019-11-27T01:35:00	0.2503	5.222		0.636280084	0.794019246	0.013583819	0.140141758	0.043193051
2019-11-27T01:40:00	0.2500	5.225		0.635361918	0.792646269	0.013547282	0.139764814	0.043076873
2019-11-27T01:45:00	0.2495	5.228		0.633451986	0.789792544	0.013471444	0.138982401	0.042835726
2019-11-27T01:50:00	0.2482	5.226		0.629225156	0.783488015	0.013304393	0.137258965	0.042304546
2019-11-27T01:55:00	0.2492	5.225		0.632606008	0.788529515	0.013437923	0.138636571	0.042729138
2019-11-27T02:00:00	0.2499	5.225		0.634992565	0.792094159	0.013532599	0.139613329	0.043030184
2019-11-27T02:05:00	0.2491	5.225		0.632090527	0.787760209	0.013417519	0.138426065	0.042664258
2019-11-27T02:10:00	0.2488	5.226		0.631171287	0.786388888	0.013381172	0.138051089	0.042548686
2019-11-27T02:15:00	0.2479	5.225		0.628266148	0.782059709	0.013266642	0.136869495	0.042184508
2019-11-27T02:20:00	0.2482	5.224		0.629332097	0.783647335	0.013308606	0.137302431	0.042317943
2019-11-27T02:25:00	0.2483	5.225		0.629735990	0.784249146	0.013324524	0.137466658	0.042368559
2019-11-27T02:30:00	0.2485	5.221		0.630139838	0.784851026	0.013340451	0.137630969	0.042419201
2019-11-27T02:35:00	0.2490	5.218		0.631866695	0.787426230	0.013408664	0.138334711	0.042636101
2019-11-27T02:40:00	0.2499	5.216		0.634914648	0.791977703	0.013529503	0.139581383	0.043020338
2019-11-27T02:45:00	0.2493	5.215		0.633004477	0.789124346	0.013453706	0.138799406	0.042779325
2019-11-27T02:50:00	0.2493	5.214		0.632746775	0.788739635	0.013443497	0.138694084	0.042746864
2019-11-27T02:55:00	0.2490	5.213		0.631827703	0.787368054	0.013407121	0.138318800	0.042631197
2019-11-27T03:00:00	0.2467	5.208		0.624286444	0.776140818	0.013110576	0.135259395	0.041688259
2019-11-27T03:05:00	0.2464	5.201		0.623365193	0.774772578	0.013074585	0.134888084	0.041573818
2019-11-27T03:10:00	0.2468	5.193		0.624763981	0.776850339	0.013129252	0.135452074	0.041747645
2019-11-27T03:15:00	0.2463	5.188		0.622848378	0.774005318	0.013054417	0.134680013	0.041509688
2019-11-27T03:20:00	0.2460	5.184		0.621926757	0.772637645	0.013018492	0.134309378	0.041395455
2019-11-27T03:25:00	0.2466	5.177		0.623989034	0.775699027	0.013098951	0.135139466	0.041651296
2019-11-27T03:30:00	0.2450	5.170		0.618755370	0.767936825	0.012895261	0.133038026	0.041003612
2019-11-27T03:35:00	0.2460	5.166		0.622146142	0.772963145	0.013027039	0.134397557	0.041422632
2019-11-27T03:40:00	0.2472	5.164		0.625864968	0.778486907	0.013172364	0.135896849	0.041884729
2019-11-27T03:45:00	0.2474	5.162		0.626600458	0.779580752	0.013201204	0.136194392	0.041976434
2019-11-27T03:50:00	0.2477	5.162		0.627666904	0.781167617	0.013243081	0.136626422	0.042109590
2019-11-27T03:55:00	0.2486	5.157		0.630718435	0.785713587	0.013363286	0.137866555	0.042491811
2019-11-27T04:00:00	0.2478	5.152		0.627812928	0.781384974	0.013248820	0.136685634	0.042127840
2019-11-27T04:05:00	0.2473	5.146		0.626201088	0.778986739	0.013185540	0.136032785	0.041926625
2019-11-27T04:10:00	0.2477	5.142		0.627569664	0.781022885	0.013239260	0.136587000	0.042097440
2019-11-27T04:15:00	0.2464	5.140		0.623306734	0.774685779	0.013072303	0.134864540	0.041566561
2019-11-27T04:20:00	0.2459	5.138		0.621692858	0.772290657	0.013009382	0.134215398	0.041366489
2019-11-27T04:25:00	0.2484	5.138		0.630018269	0.784669829	0.013335655	0.137581496	0.042403953
2019-11-27T04:30:00	0.2462	5.138		0.622775604	0.773897295	0.013051578	0.134650727	0.041500662
2019-11-27T04:35:00	0.2454	5.135		0.619834460	0.769535365	0.012937123	0.133469912	0.041136723
2019-11-27T04:40:00	0.2438	5.133		0.614565478	0.761739306	0.012733382	0.131367959	0.040488881
2019-11-27T04:45:00	0.2434	5.132		0.613280080	0.759840959	0.012683932	0.130857791	0.040331642
2019-11-27T04:50:00	0.2428	5.132		0.611329054	0.756962230	0.012609065	0.130085397	0.040093583
2019-11-27T04:55:00	0.2422	5.131		0.609376957	0.754085120	0.012534385	0.129314940	0.039856120
2019-11-27T05:00:00	0.2411	5.131		0.605758500	0.748760495	0.012396562	0.127893041	0.039417877
2019-11-27T05:05:00	0.2418	5.133		0.608133835	0.752254605	0.012486947	0.128825532	0.039705280
2019-11-27T05:10:00	0.2424	5.136		0.610174875	0.755260750	0.012564883	0.129629578	0.039953095
2019-11-27T05:15:00	0.2424	5.139		0.609886272	0.754835468	0.012553847	0.129515729	0.039918006
2019-11-27T05:20:00	0.2412	5.139		0.605935232	0.749020304	0.012403275	0.127962301	0.039439224
2019-11-27T05:25:00	0.2403	5.140		0.602980114	0.744679502	0.012291268	0.126806750	0.039083072
2019-11-27T05:30:00	0.2396	5.138		0.600689816	0.741320290	0.012204820	0.125914877	0.038808188
2019-11-27T05:35:00	0.2390	5.134		0.598731848	0.738451990	0.012131164	0.125154984	0.038573982
2019-11-27T05:40:00	0.2378	5.128		0.594768332	0.732655501	0.011982764	0.123623970	0.038102108
2019-11-27T05:45:00	0.2373	5.122		0.593141420	0.730280002	0.011922122	0.122998332	0.037909280
2019-11-27T05:50:00	0.2351	5.119		0.585487965	0.719134588	0.011638959	0.120076993	0.037008895
2019-11-27T05:55:00	0.2344	5.117		0.583186280	0.715792275	0.011554483	0.119205470	0.036740284
2019-11-27T06:00:00	0.2341	5.118		0.582224799	0.714397397	0.011519288	0.118842371	0.036628373
2019-11-27T06:05:00	0.2331	5.116		0.578914080	0.709600212	0.011398520	0.117596426	0.036244361
2019-11-27T06:10:00	0.2322	5.115		0.575936216	0.705293099	0.011290449	0.116481478	0.035900723
2019-11-27T06:15:00	0.2303	5.113		0.569591692	0.696141027	0.011061949	0.114124084	0.035174151
2019-11-27T06:20:00	0.2310	5.109		0.571991531	0.699598914	0.011148099	0.115012887	0.035448089
2019-11-27T06:25:00	0.2307	5.101		0.571026976	0.698208531	0.011113432	0.114655233	0.035337856
2019-11-27T06:30:00	0.2304	5.086		0.569725610	0.696333862	0.011066747	0.114173589	0.035189409
2019-11-27T06:35:00	0.2301	5.074		0.568760430	0.694944387	0.011032187	0.113817038	0.035079516
2019-11-27T06:40:00	0.2301	5.058		0.568805081	0.695008649	0.011033784	0.113833520	0.035084596
2019-11-27T06:45:00	0.2288	5.041		0.564470590	0.688778034	0.010879246	0.112239179	0.034593205
2019-11-27T06:50:00	0.2293	5.027		0.566200208	0.691262414	0.010940780	0.112874006	0.034788865
2019-11-27T06:55:00	0.2297	5.015		0.567592220	0.693263658	0.010990430	0.113386244	0.034946742
2019-11-27T07:00:00	0.2283	5.002		0.562919022	0.686551500	0.010824198	0.111671251	0.034418164
2019-11-27T07:05:00	0.2271	4.987		0.558577211	0.680331454	0.010670907	0.110089780	0.033930739
2019-11-27T07:10:00	0.2270	4.975		0.558284341	0.679912451	0.010660607	0.109983517	0.033897988
2019-11-27T07:15:00	0.2277	4.961		0.560691961	0.683359090	0.010745431	0.110858630	0.034167706
2019-11-27T07:20:00	0.2267	4.951		0.557360789	0.678591602	0.010628160	0.109648762	0.033794813
2019-11-27T07:25:00	0.2271	4.941		0.558756331	0.680587754	0.010677209	0.110154797	0.033950778
2019-11-27T07:30:00	0.2242	4.934		0.548996430	0.666660962	0.010336575	0.106640544	0.032867651
2019-11-27T07:35:00	0.2252	4.928		0.552425339	0.671544892	0.010455611	0.107868612	0.033246154
2019-11-27T07:40:00	0.2250	4.929		0.551793671	0.670644457	0.010433631	0.107641844	0.033176262
2019-11-27T07:45:00	0.2245	4.931		0.549808189	0.667816311	0.010364694	0.106930633	0.032957060
2019-11-27T07:50:00	0.2235	4.932		0.546466570	0.663063763	0.010249193	0.105739034	0.032589797
2019-11-27T07:55:00	0.2241	4.932		0.548543785	0.666016963	0.010320913	0.106478960	0.032817850
2019-11-27T08:00:00	0.2227	4.932		0.543844921	0.659341583	0.010159036	0.104808900	0.032303121
2019-11-27T08:05:00	0.2211	4.936		0.538460541	0.651714549	0.009975132	0.102911597	0.031718354
2019-11-27T08:10:00	0.2194	4.940		0.532727617	0.643619821	0.009781186	0.100910695	0.031101656
2019-11-27T08:15:00	0.2210	4.945		0.538211014	0.651361667	0.009966650	0.102824095	0.031691385
2019-11-27T08:20:00	0.2212	4.952		0.538935234	0.652386005	0.009991277	0.103078162	0.031769691
2019-11-27T08:25:00	0.2206	4.956		0.536602604	0.649088257	0.009912067	0.102260972	0.031517825
2019-11-27T08:30:00	0.2205	4.963		0.536307874	0.648671900	0.009902082	0.102157952	0.031486073
2019-11-27T08:35:00	0.2202	4.973		0.535333369	0.647295747	0.009869101	0.101817698	0.031381203
2019-11-27T08:40:00	0.2219	4.982		0.541151990	0.655524055	0.010066847	0.103857800	0.032009983
2019-11-27T08:45:00	0.2221	4.990		0.541875595	0.656549262	0.010091577	0.104112935	0.032088618
2019-11-27T08:50:00	0.2216	4.998		0.540223869	0.654209714	0.010035172	0.103531017	0.031909265
2019-11-27T08:55:00	0.2217	5.006		0.540608294	0.654754024	0.010048285	0.103666306	0.031950962
2019-11-27T09:00:00	0.2204	5.017		0.535898643	0.648093908	0.009888225	0.102014997	0.031442013
2019-11-27T09:05:00	0.2201	5.031		0.534924023	0.646717917	0.009855264	0.101674943	0.031337205
2019-11-27T09:10:00	0.2208	5.047		0.537347899	0.650141433	0.009937341	0.102521714	0.031598188
2019-11-27T09:15:00	0.2202	5.066		0.535354120	0.647325042	0.009869803	0.101824938	0.031383435
2019-11-27T09:20:00	0.2194	5.084		0.532678917	0.643551173	0.009779547	0.100893783	0.031096444
2019-11-27T09:25:00	0.2184	5.100		0.529320705	0.638822046	0.009666838	0.099730990	0.030738060
2019-11-27T09:30:00	0.2184	5.116		0.529365865	0.638885581	0.009668350	0.099746582	0.030742865
2019-11-27T09:35:00	0.2191	5.131		0.531793646	0.642303619	0.009749772	0.100586596	0.031001766
2019-11-27T09:40:00	0.2202	5.146		0.535239623	0.647163403	0.009865931	0.101784996	0.031371124
2019-11-27T09:45:00	0.2199	5.161		0.534264816	0.645787674	0.009833002	0.101445265	0.031266416
2019-11-27T09:50:00	0.2196	5.177		0.533289735	0.644412331	0.009800118	0.101106010	0.031161854
2019-11-27T09:55:00	0.2213	5.194		0.539111795	0.652635798	0.009997285	0.103140150	0.031788796
2019-11-27T10:00:00	0.2231	5.206		0.545263022	0.661354285	0.010207754	0.105311512	0.032458031
2019-11-27T10:05:00	0.2311	5.219		0.572269616	0.699999910	0.011158104	0.115116105	0.035479902
2019-11-27T10:10:00	0.2352	5.239		0.586028585	0.719920269	0.011658846	0.120282168	0.037072132
2019-11-27T10:15:00	0.2350	5.260		0.585355520	0.718942143	0.011634089	0.120026755	0.036993412
2019-11-27T10:20:00	0.2363	5.280		0.589705684	0.725270644	0.011794575	0.121682452	0.037503714
2019-11-27T10:25:00	0.2355	5.299		0.587024455	0.721368202	0.011695526	0.120660588	0.037188765
2019-11-27T10:30:00	0.2359	5.318		0.588360832	0.723312506	0.011744840	0.121169353	0.037345571
2019-11-27T10:35:00	0.2374	5.337		0.593375959	0.730622323	0.011930854	0.123088425	0.037937048
2019-11-27T10:40:00	0.2402	5.354		0.602721098	0.744299379	0.012281476	0.126705723	0.039051934
2019-11-27T10:45:00	0.2407	5.370		0.604384829	0.746741989	0.012344445	0.127355368	0.039252161
2019-11-27T10:50:00	0.2388	5.390		0.598044149	0.737445316	0.012105348	0.124888648	0.038491894
2019-11-27T10:55:00	0.2365	5.405		0.590353967	0.726215098	0.011818587	0.121930188	0.037580068
2019-11-27T11:00:00	0.2370	5.420		0.592023529	0.728649019	0.011880544	0.122569385	0.037777075
2019-11-27T11:05:00	0.2370	5.435		0.592020537	0.728644654	0.011880433	0.122568238	0.037776721
2019-11-27T11:10:00	0.2373	5.450		0.593020699	0.730103822	0.011917628	0.122951973	0.037894992
2019-11-27T11:15:00	0.2362	5.463		0.589338075	0.724735246	0.011780969	0.121542089	0.037460452
2019-11-27T11:20:00	0.2366	5.476		0.590673574	0.726680847	0.011830435	0.122052418	0.037617740
2019-11-27T11:25:00	0.2374	5.488		0.593346046	0.730578661	0.011929740	0.123076933	0.037933506
2019-11-27T11:30:00	0.2377	5.502		0.594345833	0.732038386	0.011967001	0.123461339	0.038051984
2019-11-27T11:35:00	0.2380	5.510		0.595345336	0.733498531	0.012004310	0.123846251	0.038170617
2019-11-27T11:40:00	0.2389	5.518		0.598348125	0.737890236	0.012116756	0.125006338	0.038528167
2019-11-27T11:45:00	0.2401	5.526		0.602348874	0.743753214	0.012267411	0.126560613	0.039007210
2019-11-27T11:50:00	0.2411	5.532		0.605678884	0.748643463	0.012393538	0.127861846	0.039408263
2019-11-27T11:55:00	0.2417	5.538		0.607674198	0.751578112	0.012469431	0.128644819	0.039649583
2019-11-27T12:00:00	0.2412	5.543		0.606006050	0.749124420	0.012405966	0.127990059	0.039447779
2019-11-27T12:05:00	0.2407	5.549		0.604337117	0.746671909	0.012342637	0.127336714	0.039246412
2019-11-27T12:10:00	0.2413	5.552		0.606333186	0.749605423	0.012418398	0.128118327	0.039487313
2019-11-27T12:15:00	0.2417	5.555		0.607662281	0.751560575	0.012468977	0.128640135	0.039648139
2019-11-27T12:20:00	0.2419	5.557		0.608325153	0.752536240	0.012494242	0.128900790	0.039728475
2019-11-27T12:25:00	0.2423	5.559		0.609653503	0.754492514	0.012544951	0.129423944	0.039889716
2019-11-27T12:30:00	0.2411	5.562		0.605655037	0.748608410	0.012392632	0.127852503	0.039405383
2019-11-27T12:35:00	0.2404	5.567		0.603319272	0.745177322	0.012304097	0.126939098	0.039123863
2019-11-27T12:40:00	0.2415	5.571		0.606981407	0.750558797	0.012443053	0.128372685	0.039565708
2019-11-27T12:45:00	0.2414	5.575		0.606645391	0.750064556	0.012430270	0.128240802	0.039525060
2019-11-27T12:50:00	0.2404	5.578		0.603310323	0.745164186	0.012303758	0.126935605	0.039122786
2019-11-27T12:55:00	0.2401	5.582		0.602307102	0.743691930	0.012265833	0.126544334	0.039002193
2019-11-27T13:00:00	0.2402	5.585		0.602637563	0.744176797	0.012278319	0.126673150	0.039041895
2019-11-27T13:05:00	0.2413	5.586		0.606300402	0.749557215	0.012417152	0.128105469	0.039483350
2019-11-27T13:10:00	0.2413	5.589		0.606297422	0.749552833	0.012417039	0.128104300	0.039482990
2019-11-27T13:15:00	0.2408	5.591		0.604628626	0.747100115	0.012353687	0.127450708	0.039281546
2019-11-27T13:20:00	0.2393	5.592		0.599623486	0.739757787	0.012164678	0.125500738	0.038680546
2019-11-27T13:25:00	0.2389	5.594		0.598285396	0.737798415	0.012114401	0.124982046	0.038520681
2019-11-27T13:30:00	0.2386	5.596		0.597280748	0.736328290	0.012076724	0.124593335	0.038400876
2019-11-27T13:35:00	0.2372	5.597		0.592599581	0.729489338	0.011901960	0.122790326	0.037845171
2019-11-27T13:40:00	0.2380	5.600		0.595270595	0.733389315	0.012001518	0.123817447	0.038161740
2019-11-27T13:45:00	0.2383	5.603		0.596269837	0.734849850	0.012038872	0.124202827	0.038280518
2019-11-27T13:50:00	0.2377	5.604		0.594262099	0.731916100	0.011963878	0.123429120	0.038042054
2019-11-27T13:55:00	0.2372	5.607		0.592587613	0.729471877	0.011901515	0.122785734	0.037843756
2019-11-27T14:00:00	0.2367	5.611		0.590912331	0.727028834	0.011839290	0.122143769	0.037645896
2019-11-27T14:05:00	0.2381	5.616		0.595589757	0.733855725	0.012013443	0.123940472	0.038199657
2019-11-27T14:10:00	0.2379	5.621		0.594918515	0.732874899	0.011988370	0.123681806	0.038119934
2019-11-27T14:15:00	0.2364	5.623		0.589899594	0.725553106	0.011801755	0.121756526	0.037526544
2019-11-27T14:20:00	0.2356	5.624		0.587218513	0.721650446	0.011702681	0.120734398	0.037211514
2019-11-27T14:25:00	0.2365	5.624		0.590228224	0.726031880	0.011813928	0.121882116	0.037565252
2019-11-27T14:30:00	0.2356	5.624		0.587212520	0.721641729	0.011702460	0.120732119	0.037210811
2019-11-27T14:35:00	0.2341	5.623		0.582182599	0.714336192	0.011517745	0.118826447	0.036623465
2019-11-27T14:40:00	0.2341	5.621		0.582179598	0.714331840	0.011517635	0.118825315	0.036623116
2019-11-27T14:45:00	0.2349	5.622		0.584858522	0.718220126	0.011615826	0.119838335	0.036935339
2019-11-27T14:50:00	0.2349	5.621		0.584855524	0.718215771	0.011615716	0.119837198	0.036934988
2019-11-27T14:55:00	0.2335	5.621		0.580157804	0.711401284	0.011443812	0.118063698	0.036388378
2019-11-27T15:00:00	0.2335	5.622		0.580154801	0.711396934	0.011443702	0.118062569	0.036388030
2019-11-27T15:05:00	0.2336	5.621		0.580487345	0.711878716	0.011455828	0.118187666	0.036426587
2019-11-27T15:10:00	0.2332	5.622		0.579141965	0.709930124	0.011406812	0.117681973	0.036270727
2019-11-27T15:15:00	0.2348	5.621		0.584505400	0.717707252	0.011602858	0.119704552	0.036894105
2019-11-27T15:20:00	0.2349	5.616		0.584837532	0.718189638	0.011615055	0.119830380	0.036932887
2019-11-27T15:25:00	0.2343	5.609		0.582823268	0.715265541	0.011541188	0.119068314	0.036698011
2019-11-27T15:30:00	0.2366	5.600		0.590523892	0.726462712	0.011824886	0.121995166	0.037600095
2019-11-27T15:35:00	0.2374	5.592		0.593196478	0.730360358	0.011924171	0.123019478	0.037915798
2019-11-27T15:40:00	0.2381	5.586		0.595532958	0.733772715	0.012011320	0.123918573	0.038192908
2019-11-27T15:45:00	0.2377	5.582		0.594193316	0.731815652	0.011961313	0.123402658	0.038033898
2019-11-27T15:50:00	0.2371	5.579		0.592184397	0.728883658	0.011886523	0.122631065	0.037796085
2019-11-27T15:55:00	0.2370	5.571		0.591846972	0.728391520	0.011873984	0.122501709	0.037756216
2019-11-27T16:00:00	0.2380	5.564		0.595186883	0.733266997	0.011998391	0.123785189	0.038151798
2019-11-27T16:05:00	0.2382	5.559		0.595896403	0.734303925	0.012024905	0.124058732	0.038236106
2019-11-27T16:10:00	0.2382	5.553		0.595937721	0.734364323	0.012026450	0.124074671	0.038241019
2019-11-27T16:15:00	0.2392	5.546		0.599318033	0.739310378	0.012153191	0.125382236	0.038644023
2019-11-27T16:20:00	0.2389	5.534		0.598357955	0.737904627	0.012117125	0.125010145	0.038529341
2019-11-27T16:25:00	0.2396	5.516		0.600735272	0.741386919	0.012206533	0.125932547	0.038813634
2019-11-27T16:30:00	0.2406	5.498		0.604111005	0.746339814	0.012334070	0.127248329	0.039219171
2019-11-27T16:35:00	0.2411	5.483		0.605818267	0.748848354	0.012398832	0.127916461	0.039425095
2019-11-27T16:40:00	0.2414	5.469		0.606858705	0.750378306	0.012438384	0.128324517	0.039550862
2019-11-27T16:45:00	0.2421	5.451		0.608897501	0.753378961	0.012516078	0.129126068	0.039797908
2019-11-27T16:50:00	0.2431	5.434		0.612265475	0.758343516	0.012644970	0.130455823	0.040207752
2019-11-27T16:55:00	0.2438	5.419		0.614633490	0.761839789	0.012736002	0.131394981	0.040497209
2019-11-27T17:00:00	0.2440	5.404		0.615339127	0.762882545	0.012763193	0.131675511	0.040583671
2019-11-27T17:05:00	0.2442	5.388		0.616044625	0.763925513	0.012790409	0.131956294	0.040670211
2019-11-27T17:10:00	0.2441	5.374		0.615753525	0.763495117	0.012779176	0.131840401	0.040634492
2019-11-27T17:15:00	0.2445	5.359		0.617123145	0.765520747	0.012832073	0.132386134	0.040802692
2019-11-27T17:20:00	0.2444	5.347		0.616832134	0.765090217	0.012820824	0.132270081	0.040766924
2019-11-27T17:25:00	0.2442	5.333		0.615876786	0.763677351	0.012783932	0.131889467	0.040649615
2019-11-27T17:30:00	0.2435	5.321		0.613591825	0.760301235	0.012695916	0.130981427	0.040369748
2019-11-27T17:35:00	0.2448	5.308		0.617951478	0.766746595	0.012864120	0.132716754	0.040904593
2019-11-27T17:40:00	0.2450	5.296		0.618656458	0.767790348	0.012891427	0.132998475	0.040991422
2019-11-27T17:45:00	0.2453	5.283		0.619693146	0.769325970	0.012931637	0.133413312	0.041119279
2019-11-27T17:50:00	0.2447	5.270		0.617742664	0.766437517	0.012856037	0.132633368	0.040878892
2019-11-27T17:55:00	0.2441	5.261		0.615791113	0.763550688	0.012780626	0.131855362	0.040639103
2019-11-27T18:00:00	0.2439	5.253		0.615167755	0.762629261	0.012756587	0.131607352	0.040562664
2019-11-27T18:05:00	0.2440	5.243		0.615208849	0.762689995	0.012758171	0.131623695	0.040567701
2019-11-27T18:10:00	0.2433	5.235		0.612923459	0.759314528	0.012670230	0.130716432	0.040288074
2019-11-27T18:15:00	0.2432	5.228		0.612632104	0.758884519	0.012659042	0.130601001	0.040252497
2019-11-27T18:20:00	0.2437	5.219		0.614335273	0.761399226	0.012724519	0.131276517	0.040460697
2019-11-27T18:25:00	0.2427	5.212		0.611051546	0.756553028	0.012598434	0.129975726	0.040059781
2019-11-27T18:30:00	0.2420	5.206		0.608763480	0.753181605	0.012510963	0.129073299	0.039781644
2019-11-27T18:35:00	0.2421	5.199		0.609137482	0.753732389	0.012525239	0.129220586	0.039827040
2019-11-27T18:40:00	0.2425	5.194		0.610509653	0.755754161	0.012577690	0.129761707	0.039993818
2019-11-27T18:45:00	0.2423	5.188		0.609552604	0.754343867	0.012541095	0.129384168	0.039877457
2019-11-27T18:50:00	0.2433	5.182		0.612919957	0.759309359	0.012670096	0.130715044	0.040287646
2019-11-27T18:55:00	0.2428	5.175		0.611298389	0.756917009	0.012607890	0.130073276	0.040089847
2019-11-27T19:00:00	0.2434	5.167		0.613334637	0.759921505	0.012686029	0.130879424	0.040338310
2019-11-27T19:05:00	0.2428	5.160		0.611380666	0.757038341	0.012611042	0.130105799	0.040099871
2019-11-27T19:10:00	0.2428	5.153		0.611421803	0.757099009	0.012612619	0.130122062	0.040104883
2019-11-27T19:15:00	0.2447	5.146		0.617776734	0.766487943	0.012857356	0.132646972	0.040883085
2019-11-27T19:20:00	0.2431	5.137		0.612501726	0.758692119	0.012654037	0.130549365	0.040236582
2019-11-27T19:25:00	0.2433	5.133		0.612875335	0.759243497	0.012668382	0.130697362	0.040282196
2019-11-27T19:30:00	0.2445	5.124		0.616903789	0.765196219	0.012823594	0.132298652	0.040775729
2019-11-27T19:35:00	0.2446	5.120		0.617276935	0.765748296	0.012838020	0.132447486	0.040821601
2019-11-27T19:40:00	0.2445	5.120		0.616985936	0.765317747	0.012826769	0.132331410	0.040785826
2019-11-27T19:45:00	0.2457	5.120		0.621009743	0.771277521	0.012982797	0.133941121	0.041281954
2019-11-27T19:50:00	0.2448	5.116		0.618064171	0.766913414	0.012868483	0.132761767	0.040918466
2019-11-27T19:55:00	0.2454	5.108		0.620096553	0.769923772	0.012947301	0.133574919	0.041169087
2019-11-27T20:00:00	0.2456	5.104		0.620801109	0.770968171	0.012974683	0.133857410	0.041256154
2019-11-27T20:05:00	0.2457	5.098		0.620842138	0.771029003	0.012976278	0.133873870	0.041261227
2019-11-27T20:10:00	0.2470	5.098		0.625192933	0.777487836	0.013146040	0.135625272	0.041801026
2019-11-27T20:15:00	0.2476	5.096		0.627221259	0.780504383	0.013225573	0.136445800	0.042053921
2019-11-27T20:20:00	0.2460	5.095		0.621960223	0.772687296	0.013019795	0.134322827	0.041399600
2019-11-27T20:25:00	0.2457	5.093		0.621006249	0.771272340	0.012982661	0.133939719	0.041281522
2019-11-27T20:30:00	0.2466	5.091		0.624031378	0.775761923	0.013100606	0.135156537	0.041656557
2019-11-27T20:35:00	0.2471	5.091		0.625729108	0.778284902	0.013167040	0.135841924	0.041867800
2019-11-27T20:40:00	0.2470	5.090		0.625438798	0.777853303	0.013155667	0.135724596	0.041831639
2019-11-27T20:45:00	0.2466	5.087		0.623822920	0.775452304	0.013092461	0.135072505	0.041630658
2019-11-27T20:50:00	0.2473	5.083		0.626183268	0.778960237	0.013184841	0.136025576	0.041924404
2019-11-27T20:55:00	0.2468	5.080		0.624567727	0.776558722	0.013121575	0.135372871	0.041723234
2019-11-27T21:00:00	0.2462	5.076		0.622619910	0.773666208	0.013045506	0.134588084	0.041481355
2019-11-27T21:05:00	0.2462	5.071		0.622660919	0.773727072	0.013047105	0.134604582	0.041486439
2019-11-27T21:10:00	0.2471	5.068		0.625684645	0.778218796	0.013165298	0.135823951	0.041862261
2019-11-27T21:15:00	0.2456	5.068		0.620753091	0.770896978	0.012972816	0.133838147	0.041250217
2019-11-27T21:20:00	0.2449	5.069		0.618471259	0.767516113	0.012884250	0.132924437	0.040968602
2019-11-27T21:25:00	0.2440	5.068		0.615191350	0.762664133	0.012757496	0.131616736	0.040565556
2019-11-27T21:30:00	0.2441	5.067		0.615564676	0.763215938	0.012771891	0.131765244	0.040611328
2019-11-27T21:35:00	0.2442	5.068		0.615937963	0.763767803	0.012786293	0.131913823	0.040657121
2019-11-27T21:40:00	0.2444	5.067		0.616643342	0.764810951	0.012813529	0.132194821	0.040743728
2019-11-27T21:45:00	0.2438	5.068		0.614691188	0.761925037	0.012738224	0.131417908	0.040504275
2019-11-27T21:50:00	0.2442	5.071		0.616061217	0.763950047	0.012791050	0.131962901	0.040672248
2019-11-27T21:55:00	0.2439	5.076		0.615105661	0.762537494	0.012754193	0.131582661	0.040555054
2019-11-27T22:00:00	0.2437	5.078		0.614482183	0.761616250	0.012730175	0.131334868	0.040478682
2019-11-27T22:05:00	0.2430	5.079		0.612008003	0.757963653	0.012635092	0.130353919	0.040176344
2019-11-27T22:10:00	0.2433	5.084		0.612858352	0.759218430	0.012667730	0.130690633	0.040280122
2019-11-27T22:15:00	0.2438	5.091		0.614705527	0.761946224	0.012738776	0.131423606	0.040506032
2019-11-27T22:20:00	0.2443	5.098		0.616219604	0.764184258	0.012797164	0.132025982	0.040691690
2019-11-27T22:25:00	0.2433	5.104		0.613081799	0.759548250	0.012676313	0.130779186	0.040307415
2019-11-27T22:30:00	0.2445	5.112		0.616921956	0.765223095	0.012824296	0.132305896	0.040777962
2019-11-27T22:35:00	0.2455	5.117		0.620426227	0.770412413	0.012960110	0.133707063	0.041209815
2019-11-27T22:40:00	0.2458	5.124		0.621274567	0.771670238	0.012993100	0.134047416	0.041314715
2019-11-27T22:45:00	0.2465	5.131		0.623780349	0.775389077	0.013090798	0.135055347	0.041625370
2019-11-27T22:50:00	0.2466	5.140		0.623965084	0.775663454	0.013098015	0.135129810	0.041648320
2019-11-27T22:55:00	0.2472	5.151		0.625806512	0.778399990	0.013170073	0.135873215	0.041877445
2019-11-27T23:00:00	0.2466	5.160		0.624003111	0.775719937	0.013099501	0.135145141	0.041653045
2019-11-27T23:05:00	0.2466	5.169		0.623856406	0.775502038	0.013093769	0.135086002	0.041634818
2019-11-27T23:10:00	0.2461	5.178		0.622383616	0.773315528	0.013036294	0.134493040	0.041452061
2019-11-27T23:15:00	0.2460	5.187		0.621905234	0.772605714	0.013017653	0.134300729	0.041392789
2019-11-27T23:20:00	0.2447	5.195		0.617776546	0.766487665	0.012857349	0.132646896	0.040883062
2019-11-27T23:25:00	0.2450	5.203		0.618625517	0.767744530	0.012890228	0.132986104	0.040987609
2019-11-27T23:30:00	0.2443	5.207		0.616486365	0.764578770	0.012807465	0.132132260	0.040724446
2019-11-27T23:35:00	0.2437	5.212		0.614345926	0.761414961	0.012724929	0.131280747	0.040462001
2019-11-27T23:40:00	0.2440	5.217		0.615195715	0.762670584	0.012757664	0.131618472	0.040566091
2019-11-27T23:45:00	0.2440	5.221		0.615380897	0.762944283	0.012764804	0.131692126	0.040588792
2019-11-27T23:50:00	0.2436	5.225		0.613904598	0.760763108	0.012707945	0.131105531	0.040407998
2019-11-27T23:55:00	0.2430	5.228		0.612095160	0.758092234	0.012638436	0.130388410	0.040186974
2019-11-28T00:00:00	0.2417	5.225		0.607622118	0.751501472	0.012467447	0.128624351	0.039643274
2019-11-28T00:05:00	0.2418	5.220		0.608140622	0.752264595	0.012487206	0.128828202	0.039706103
2019-11-28T00:10:00	0.2419	5.215		0.608326171	0.752537738	0.012494281	0.128901191	0.039728599
2019-11-28T00:15:00	0.2424	5.214		0.610175704	0.755261972	0.012564914	0.129629905	0.039953196
2019-11-28T00:20:00	0.2420	5.216		0.608697241	0.753084068	0.012508435	0.129047222	0.039773607
2019-11-28T00:25:00	0.2419	5.220		0.608217015	0.752377048	0.012490118	0.128858250	0.039715364
2019-11-28T00:30:00	0.2420	5.221		0.608735431	0.753140303	0.012509893	0.129062257	0.039778241
2019-11-28T00:35:00	0.2418	5.220		0.607922294	0.751943237	0.012478884	0.128742345	0.039679641
2019-11-28T00:40:00	0.2431	5.222		0.612433109	0.758590864	0.012651403	0.130522193	0.040228207
2019-11-28T00:45:00	0.2425	5.223		0.610290227	0.755430750	0.012569295	0.129675097	0.039967124
2019-11-28T00:50:00	0.2429	5.225		0.611806185	0.757665939	0.012627353	0.130274071	0.040151734
2019-11-28T00:55:00	0.2420	5.226		0.608664479	0.753035827	0.012507185	0.129034326	0.039769632
2019-11-28T01:00:00	0.2422	5.228		0.609515628	0.754289396	0.012539683	0.129369593	0.039872965
2019-11-28T01:05:00	0.2429	5.228		0.611697136	0.757505088	0.012623172	0.130230937	0.040138439
2019-11-28T01:10:00	0.2431	5.224		0.612215045	0.758269108	0.012643035	0.130435860	0.040201599
2019-11-28T01:15:00	0.2431	5.223		0.612400381	0.758542572	0.012650147	0.130509234	0.040224213
2019-11-28T01:20:00	0.2428	5.220		0.611255479	0.756853732	0.012606246	0.130056315	0.040084619
2019-11-28T01:25:00	0.2433	5.218		0.613103487	0.759580266	0.012677146	0.130787782	0.040310065
2019-11-28T01:30:00	0.2434	5.211		0.613288778	0.759853800	0.012684267	0.130861240	0.040332705
2019-11-28T01:35:00	0.2441	5.205		0.615800181	0.763564094	0.012780976	0.131858972	0.040640216
2019-11-28T01:40:00	0.2449	5.197		0.618309813	0.767277073	0.012877996	0.132859912	0.040948715
2019-11-28T01:45:00	0.2446	5.188		0.617498863	0.766076700	0.012846604	0.132536045	0.040848896
2019-11-28T01:50:00	0.2442	5.178		0.616023443	0.763894193	0.012789592	0.131947859	0.040667612
2019-11-28T01:55:00	0.2435	5.167		0.613550336	0.760239974	0.012694321	0.130964969	0.040364675
2019-11-28T02:00:00	0.2436	5.157		0.614067975	0.761004402	0.012714231	0.131170381	0.040427985
2019-11-28T02:05:00	0.2429	5.145		0.611593507	0.757352242	0.012619199	0.130189953	0.040125808
2019-11-28T02:10:00	0.2436	5.135		0.614106108	0.761060724	0.012715699	0.131185520	0.040432651
2019-11-28T02:15:00	0.2434	5.125		0.613294199	0.759861804	0.012684475	0.130863389	0.040333368
2019-11-28T02:20:00	0.2434	5.115		0.613479480	0.760135353	0.012691597	0.130936865	0.040356013
2019-11-28T02:25:00	0.2428	5.104		0.611337229	0.756974286	0.012609378	0.130088629	0.040094579
2019-11-28T02:30:00	0.2429	5.095		0.611522612	0.757247680	0.012616482	0.130161919	0.040117168
2019-11-28T02:35:00	0.2437	5.085		0.614367607	0.761446989	0.012725764	0.131289358	0.040464655
2019-11-28T02:40:00	0.2437	5.074		0.614220504	0.761229694	0.012720101	0.131230940	0.040446650
2019-11-28T02:45:00	0.2438	5.065		0.614738046	0.761994270	0.012740029	0.131436528	0.040510015
2019-11-28T02:50:00	0.2435	5.055		0.613593896	0.760304292	0.012695996	0.130982249	0.040370001
2019-11-28T02:55:00	0.2430	5.046		0.612116855	0.758124241	0.012639268	0.130396996	0.040189621
2019-11-28T03:00:00	0.2429	5.034		0.611637091	0.757416524	0.012620870	0.130207189	0.040131120
2019-11-28T03:05:00	0.2419	5.023		0.608495235	0.752786638	0.012500729	0.128967714	0.039749102
2019-11-28T03:10:00	0.2420	5.013		0.608680765	0.753059808	0.012507807	0.129040737	0.039771608
2019-11-28T03:15:00	0.2423	5.003		0.609531911	0.754313383	0.012540305	0.129376011	0.039874943
2019-11-28T03:20:00	0.2421	4.992		0.609051798	0.753606194	0.012521968	0.129186835	0.039816637
2019-11-28T03:25:00	0.2428	4.979		0.611233590	0.756821456	0.012605407	0.130047664	0.040081953
2019-11-28T03:30:00	0.2428	4.968		0.611418978	0.757094842	0.012612510	0.130120945	0.040104539
2019-11-28T03:35:00	0.2420	4.959		0.608609812	0.752955335	0.012505100	0.129012808	0.039763000
2019-11-28T03:40:00	0.2433	4.947		0.613119754	0.759604278	0.012677771	0.130794230	0.040312052
2019-11-28T03:45:00	0.2429	4.938		0.611642515	0.757424525	0.012621078	0.130209334	0.040131781
2019-11-28T03:50:00	0.2433	4.928		0.613157897	0.759660585	0.012679237	0.130809351	0.040316712
2019-11-28T03:55:00	0.2420	4.921		0.608686194	0.753067802	0.012508014	0.129042874	0.039772267
2019-11-28T04:00:00	0.2421	4.916		0.608871715	0.753340988	0.012515094	0.129115915	0.039794779
2019-11-28T04:05:00	0.2421	4.910		0.609110303	0.753692359	0.012524202	0.129209880	0.039823740
2019-11-28T04:10:00	0.2408	4.907		0.604686638	0.747185339	0.012355886	0.127473400	0.039288540
2019-11-28T04:15:00	0.2415	4.906		0.606924225	0.750474681	0.012440877	0.128350236	0.039558789
2019-11-28T04:20:00	0.2414	4.905		0.606829925	0.750335972	0.012437289	0.128313221	0.039547381
2019-11-28T04:25:00	0.2414	4.906		0.606735622	0.750197266	0.012433702	0.128276209	0.039535974
2019-11-28T04:30:00	0.2413	4.907		0.606308249	0.749568754	0.012417450	0.128108547	0.039484298
2019-11-28T04:35:00	0.2411	4.907		0.605547685	0.748450616	0.012388556	0.127810449	0.039392422
2019-11-28T04:40:00	0.2402	4.909		0.602787034	0.744396139	0.012283968	0.126731437	0.039059860
2019-11-28T04:45:00	0.2396	4.909		0.600691517	0.741322782	0.012204884	0.125915538	0.038808392
2019-11-28T04:50:00	0.2405	4.909		0.603598367	0.745587055	0.012314658	0.127048061	0.039157446
2019-11-28T04:55:00	0.2398	4.904		0.601503330	0.742512979	0.012235490	0.126231299	0.038905712
2019-11-28T05:00:00	0.2399	4.903		0.601742415	0.742863605	0.012244512	0.126324371	0.038934398
2019-11-28T05:05:00	0.2397	4.904		0.600980870	0.741746938	0.012215788	0.126028037	0.038843065
2019-11-28T05:10:00	0.2404	4.902		0.603220798	0.745032771	0.012300371	0.126900663	0.039112017
2019-11-28T05:15:00	0.2405	4.898		0.603793102	0.745872979	0.012322031	0.127124117	0.039180888
2019-11-28T05:20:00	0.2396	4.897		0.600697487	0.741331533	0.012205109	0.125917858	0.038809107
2019-11-28T05:25:00	0.2383	4.898		0.596263292	0.734840281	0.012038628	0.124200301	0.038279739
2019-11-28T05:30:00	0.2378	4.900		0.594832297	0.732748943	0.011985152	0.123648601	0.038109700
2019-11-28T05:35:00	0.2374	4.906		0.593400722	0.730658469	0.011931777	0.123097939	0.037939980
2019-11-28T05:40:00	0.2372	4.911		0.592637377	0.729544484	0.011903366	0.122804830	0.037849641
2019-11-28T05:45:00	0.2378	4.916		0.594548421	0.732334274	0.011974558	0.123539306	0.038076014
2019-11-28T05:50:00	0.2378	4.922		0.594787976	0.732684197	0.011983497	0.123631534	0.038104439
2019-11-28T05:55:00	0.2376	4.928		0.594024931	0.731569767	0.011955035	0.123337889	0.038013935
2019-11-28T06:00:00	0.2378	4.934		0.594598725	0.732407751	0.011976435	0.123558670	0.038081982
2019-11-28T06:05:00	0.2390	4.940		0.598845985	0.738619106	0.012135452	0.125199216	0.038587614
2019-11-28T06:10:00	0.2386	4.948		0.597416036	0.736526211	0.012081794	0.124645643	0.038416998
2019-11-28T06:15:00	0.2384	4.955		0.596653559	0.735410936	0.012053233	0.124350982	0.038326180
2019-11-28T06:20:00	0.2380	4.965		0.595222722	0.733319363	0.011999730	0.123798999	0.038156054
2019-11-28T06:25:00	0.2383	4.974		0.596464408	0.735134340	0.012046153	0.124277940	0.038303668
2019-11-28T06:30:00	0.2377	4.986		0.594365138	0.732066581	0.011967721	0.123468767	0.038054273
2019-11-28T06:35:00	0.2389	4.997		0.598278854	0.737788840	0.012114156	0.124979513	0.038519900
2019-11-28T06:40:00	0.2379	5.009		0.595178406	0.733254610	0.011998075	0.123781923	0.038150791
2019-11-28T06:45:00	0.2373	5.022		0.593078371	0.730187988	0.011919775	0.122974119	0.037901818
2019-11-28T06:50:00	0.2375	5.035		0.593652320	0.731025743	0.011941148	0.123194626	0.037969780
2019-11-28T06:55:00	0.2378	5.047		0.594560382	0.732351744	0.011975004	0.123543910	0.038077433
2019-11-28T07:00:00	0.2378	5.059		0.594799936	0.732701669	0.011983944	0.123636139	0.038105859
2019-11-28T07:05:00	0.2381	5.073		0.595707704	0.734028109	0.012017851	0.123985952	0.038213675
2019-11-28T07:10:00	0.2384	5.087		0.596615238	0.735354896	0.012051798	0.124336182	0.038321619
2019-11-28T07:15:00	0.2384	5.103		0.596854653	0.735705029	0.012060762	0.124428660	0.038350122
2019-11-28T07:20:00	0.2388	5.119		0.598095765	0.737520860	0.012107285	0.124908628	0.038498052
2019-11-28T07:25:00	0.2395	5.136		0.600337520	0.740803962	0.012191550	0.125777975	0.038765994
2019-11-28T07:30:00	0.2401	5.157		0.602244405	0.743599949	0.012263464	0.126519902	0.038994662
2019-11-28T07:35:00	0.2408	5.180		0.604816774	0.747376530	0.012360821	0.127524311	0.039304231
2019-11-28T07:40:00	0.2411	5.203		0.605721975	0.748706805	0.012395174	0.127878729	0.039413466
2019-11-28T07:45:00	0.2405	5.224		0.603628194	0.745630846	0.012315787	0.127059709	0.039161036
2019-11-28T07:50:00	0.2410	5.242		0.605200136	0.747939831	0.012375364	0.127674349	0.039350474
2019-11-28T07:55:00	0.2412	5.261		0.606105239	0.749270253	0.012409735	0.128028943	0.039459764
2019-11-28T08:00:00	0.2419	5.277		0.608341932	0.752560940	0.012494882	0.128907392	0.039730510
2019-11-28T08:05:00	0.2425	5.294		0.610244516	0.755363383	0.012567546	0.129657058	0.039961565
2019-11-28T08:10:00	0.2441	5.311		0.615802100	0.763566931	0.012781050	0.131859736	0.040640451
2019-11-28T08:15:00	0.2441	5.331		0.615708035	0.763427866	0.012777421	0.131822295	0.040628912
2019-11-28T08:20:00	0.2432	5.348		0.612622802	0.758870792	0.012658685	0.130597317	0.040251361
2019-11-28T08:25:00	0.2434	5.365		0.613193592	0.759713279	0.012680609	0.130823501	0.040321074
2019-11-28T08:30:00	0.2437	5.382		0.614428998	0.761537679	0.012728127	0.131313742	0.040472171
2019-11-28T08:35:00	0.2442	5.403		0.615996166	0.763853862	0.012788539	0.131936998	0.040664264
2019-11-28T08:40:00	0.2439	5.425		0.614905412	0.762241572	0.012746477	0.131503048	0.040530517
2019-11-28T08:45:00	0.2452	5.448		0.619460304	0.768980987	0.012922600	0.133320081	0.041090544
2019-11-28T08:50:00	0.2455	5.469		0.620361783	0.770316887	0.012957605	0.133681226	0.041201852
2019-11-28T08:55:00	0.2453	5.489		0.619604220	0.769194211	0.012928185	0.133377702	0.041108303
2019-11-28T09:00:00	0.2451	5.508		0.618846497	0.768071781	0.012898793	0.133074470	0.041014844
2019-11-28T09:05:00	0.2447	5.529		0.617756616	0.766458166	0.012856577	0.132638939	0.040880609
2019-11-28T09:10:00	0.2456	5.554		0.620649538	0.770743454	0.012968790	0.133796611	0.041237415
2019-11-28T09:15:00	0.2454	5.579		0.619892037	0.769620685	0.012939358	0.133492976	0.041143832
2019-11-28T09:20:00	0.2456	5.604		0.620793406	0.770956751	0.012974383	0.133854320	0.041255201
2019-11-28T09:25:00	0.2457	5.633		0.621031196	0.771309332	0.012983631	0.133949730	0.041284608
2019-11-28T09:30:00	0.2459	5.667		0.621600639	0.772153863	0.013005792	0.134178355	0.041355072
2019-11-28T09:35:00	0.2461	5.700		0.622169992	0.772998532	0.013027968	0.134407145	0.041425587
2019-11-28T09:40:00	0.2457	5.732		0.621081127	0.771383372	0.012985574	0.133969768	0.041290784
2019-11-28T09:45:00	0.2467	5.766		0.624302772	0.776165075	0.013111214	0.135265980	0.041690289
2019-11-28T09:50:00	0.2471	5.807		0.625534332	0.777995324	0.013159409	0.135763200	0.041843537
2019-11-28T09:55:00	0.2471	5.835		0.625771806	0.778348387	0.013168713	0.135859184	0.041873120
2019-11-28T10:00:00	0.2466	5.858		0.624021243	0.775746868	0.013100210	0.135152451	0.041655298
2019-11-28T10:05:00	0.2459	5.877		0.621697516	0.772297566	0.013009564	0.134217270	0.041367066
2019-11-28T10:10:00	0.2452	5.897		0.619372275	0.768850574	0.012919184	0.133284842	0.041079683
2019-11-28T10:15:00	0.2456	5.920		0.620696505	0.770813085	0.012970616	0.133815450	0.041243221
2019-11-28T10:20:00	0.2450	5.946		0.618702550	0.767858603	0.012893213	0.133016905	0.040997102
2019-11-28T10:25:00	0.2446	5.974		0.617371635	0.765888426	0.012841683	0.132485272	0.040833247
2019-11-28T10:30:00	0.2451	6.016		0.619028519	0.768341369	0.012905851	0.133147281	0.041037285
2019-11-28T10:35:00	0.2444	6.056		0.616701534	0.764897027	0.012815778	0.132218016	0.040750877
2019-11-28T10:40:00	0.2447	6.092		0.617694755	0.766366610	0.012854183	0.132614240	0.040872997
2019-11-28T10:45:00	0.2445	6.141		0.617027686	0.765379515	0.012828383	0.132348060	0.040790958
2019-11-28T10:50:00	0.2444	6.183		0.616692619	0.764883840	0.012815433	0.132214463	0.040749781
2019-11-28T10:55:00	0.2439	6.215		0.615028702	0.762423762	0.012751227	0.131552061	0.040545623
2019-11-28T11:00:00	0.2443	6.237		0.616354548	0.764383819	0.012802375	0.132079739	0.040708258
2019-11-28T11:05:00	0.2425	6.246		0.610367968	0.755545328	0.012572269	0.129705779	0.039976581
2019-11-28T11:10:00	0.2419	6.254		0.608368212	0.752599629	0.012495884	0.128917731	0.039733697
2019-11-28T11:15:00	0.2420	6.259		0.608698108	0.753085344	0.012508468	0.129047564	0.039773712
2019-11-28T11:20:00	0.2423	6.259		0.609693568	0.754551541	0.012546482	0.129439740	0.039894585
2019-11-28T11:25:00	0.2417	6.259		0.607693431	0.751606415	0.012470164	0.128652378	0.039651912
2019-11-28T11:30:00	0.2418	6.264		0.608023390	0.752092036	0.012482737	0.128782097	0.039691893
2019-11-28T11:35:00	0.2412	6.271		0.606022312	0.749148328	0.012406583	0.127996434	0.039449744
2019-11-28T11:40:00	0.2419	6.281		0.608350340	0.752573318	0.012495202	0.128910700	0.039731530
2019-11-28T11:45:00	0.2422	6.303		0.609345897	0.754039368	0.012533199	0.129302700	0.039852348
2019-11-28T11:50:00	0.2428	6.327		0.611339151	0.756977119	0.012609452	0.130089388	0.040094813
2019-11-28T11:55:00	0.2426	6.353		0.610670888	0.755991831	0.012583860	0.129825367	0.040013439
2019-11-28T12:00:00	0.2426	6.376		0.610667911	0.755987443	0.012583746	0.129824192	0.040013077
2019-11-28T12:05:00	0.2425	6.398		0.610332244	0.755492676	0.012570902	0.129691679	0.039972235
2019-11-28T12:10:00	0.2416	6.419		0.607333647	0.751077002	0.012456461	0.128511010	0.039608341
2019-11-28T12:15:00	0.2420	6.440		0.608662367	0.753032718	0.012507105	0.129033494	0.039769376
2019-11-28T12:20:00	0.2420	6.455		0.608659389	0.753028333	0.012506991	0.129032322	0.039769015
2019-11-28T12:25:00	0.2424	6.470		0.609987614	0.754984796	0.012557722	0.129555701	0.039930325
2019-11-28T12:30:00	0.2425	6.486		0.610317359	0.755470738	0.012570333	0.129685805	0.039970425
2019-11-28T12:35:00	0.2416	6.503		0.607318749	0.751055083	0.012455894	0.128505158	0.039606538
2019-11-28T12:40:00	0.2413	6.518		0.606316662	0.749581125	0.012417770	0.128111846	0.039485315
2019-11-28T12:45:00	0.2407	6.533		0.604314620	0.746638864	0.012341785	0.127327918	0.039243701
2019-11-28T12:50:00	0.2410	6.548		0.605311310	0.748103211	0.012379583	0.127717877	0.039363890
2019-11-28T12:55:00	0.2409	6.561		0.604975136	0.747609207	0.012366827	0.127586279	0.039323330
2019-11-28T13:00:00	0.2401	6.570		0.602305478	0.743689547	0.012265771	0.126543701	0.039001998
2019-11-28T13:05:00	0.2411	6.574		0.605635529	0.748579735	0.012391892	0.127844861	0.039403028
2019-11-28T13:10:00	0.2417	6.573		0.607630867	0.751514347	0.012467780	0.128627790	0.039644334
2019-11-28T13:15:00	0.2402	6.575		0.602629972	0.744165659	0.012278032	0.126670190	0.039040983
2019-11-28T13:20:00	0.2407	6.580		0.604293745	0.746608205	0.012340994	0.127319758	0.039241186
2019-11-28T13:25:00	0.2405	6.588		0.603624154	0.745624915	0.012315635	0.127058131	0.039160550
2019-11-28T13:30:00	0.2406	6.595		0.603954492	0.746109967	0.012328142	0.127187168	0.039200320
2019-11-28T13:35:00	0.2406	6.604		0.603951510	0.746105587	0.012328029	0.127186003	0.039199961
2019-11-28T13:40:00	0.2405	6.615		0.603615206	0.745611778	0.012315296	0.127054637	0.039159473
2019-11-28T13:45:00	0.2408	6.630		0.604612094	0.747075829	0.012353060	0.127444242	0.039279553
2019-11-28T13:50:00	0.2409	6.644		0.604942339	0.747561019	0.012365583	0.127573444	0.039319374
2019-11-28T13:55:00	0.2417	6.652		0.607604054	0.751474889	0.012466759	0.128617252	0.039641086
2019-11-28T14:00:00	0.2422	6.657		0.609265495	0.753920938	0.012530128	0.129271019	0.039842584
2019-11-28T14:05:00	0.2418	6.663		0.607931042	0.751956113	0.012479217	0.128745785	0.039680701
2019-11-28T14:10:00	0.2410	6.673		0.605263611	0.748033111	0.012377773	0.127699200	0.039358134
2019-11-28T14:15:00	0.2412	6.673		0.605926931	0.749008101	0.012402960	0.127959047	0.039438221
2019-11-28T14:20:00	0.2422	6.667		0.609253584	0.753903394	0.012529673	0.129266326	0.039841137
2019-11-28T14:25:00	0.2437	6.659		0.614239212	0.761257328	0.012720821	0.131238369	0.040448940
2019-11-28T14:30:00	0.2441	6.654		0.615565353	0.763216939	0.012771917	0.131765513	0.040611411
2019-11-28T14:35:00	0.2442	6.654		0.615894582	0.763703663	0.012784618	0.131896552	0.040651798
2019-11-28T14:40:00	0.2432	6.650		0.612568196	0.758790208	0.012656588	0.130575689	0.040244696
2019-11-28T14:45:00	0.2434	6.636		0.613230153	0.759767253	0.012682014	0.130837996	0.040325541
2019-11-28T14:50:00	0.2440	6.627		0.615221230	0.762708293	0.012758648	0.131628618	0.040569219
2019-11-28T14:55:00	0.2455	6.625		0.620198506	0.770074877	0.012951262	0.133615778	0.041181680
2019-11-28T15:00:00	0.2445	6.622		0.616876142	0.765155320	0.012822525	0.132287628	0.040772332
2019-11-28T15:05:00	0.2438	6.615		0.614547750	0.761713115	0.012732700	0.131360916	0.040486710
2019-11-28T15:10:00	0.2438	6.603		0.614544776	0.761708722	0.012732585	0.131359734	0.040486346
2019-11-28T15:15:00	0.2435	6.589		0.613544727	0.760231691	0.012694105	0.130962744	0.040363990
2019-11-28T15:20:00	0.2441	6.579		0.615535627	0.763172997	0.012770771	0.131753685	0.040607765
2019-11-28T15:25:00	0.2427	6.567		0.610878535	0.756297946	0.012591809	0.129907376	0.040038715
2019-11-28T15:30:00	0.2426	6.552		0.610542888	0.755803149	0.012578962	0.129774828	0.039997862
2019-11-28T15:35:00	0.2426	6.532		0.610539911	0.755798761	0.012578848	0.129773652	0.039997500
2019-11-28T15:40:00	0.2425	6.513		0.610204232	0.755304013	0.012566005	0.129641162	0.039956665
2019-11-28T15:45:00	0.2417	6.495		0.607538510	0.751378439	0.012464262	0.128591496	0.039633148
2019-11-28T15:50:00	0.2419	6.474		0.608201404	0.752354069	0.012489523	0.128852109	0.039713471
2019-11-28T15:55:00	0.2422	6.453		0.609197003	0.753820056	0.012527512	0.129244034	0.039834267
2019-11-28T16:00:00	0.2441	6.432		0.615511846	0.763137844	0.012769853	0.131744223	0.040604849
2019-11-28T16:05:00	0.2457	6.413		0.620876328	0.771079698	0.012977608	0.133887587	0.041265455
2019-11-28T16:10:00	0.2458	6.399		0.621260930	0.771650014	0.012992569	0.134041941	0.041313028
2019-11-28T16:15:00	0.2456	6.382		0.620650402	0.770744735	0.012968823	0.133796958	0.041237522
2019-11-28T16:20:00	0.2439	6.366		0.615059297	0.762468977	0.012752406	0.131564226	0.040549372
2019-11-28T16:25:00	0.2454	6.351		0.620092682	0.769918035	0.012947151	0.133573368	0.041168609
2019-11-28T16:30:00	0.2439	6.336		0.615165271	0.762625590	0.012756491	0.131606365	0.040562360
2019-11-28T16:35:00	0.2448	6.323		0.617875256	0.766633771	0.012861169	0.132686313	0.040895210
2019-11-28T16:40:00	0.2442	6.312		0.615935668	0.763764410	0.012786204	0.131912909	0.040656840
2019-11-28T16:45:00	0.2431	6.304		0.612332816	0.758442876	0.012647554	0.130482483	0.040215968
2019-11-28T16:50:00	0.2431	6.297		0.612385844	0.758521121	0.012649589	0.130503478	0.040222439
2019-11-28T16:55:00	0.2431	6.289		0.612438871	0.758599367	0.012651624	0.130524474	0.040228911
2019-11-28T17:00:00	0.2422	6.278		0.609498101	0.754263577	0.012539013	0.129362685	0.039870836
2019-11-28T17:05:00	0.2411	6.265		0.605555572	0.748462208	0.012388856	0.127813538	0.039393374
2019-11-28T17:10:00	0.2405	6.253		0.603609241	0.745603019	0.012315070	0.127052307	0.039158755
2019-11-28T17:15:00	0.2407	6.239		0.604329001	0.746659988	0.012342330	0.127333541	0.039245434
2019-11-28T17:20:00	0.2402	6.224		0.602715434	0.744291067	0.012281262	0.126703514	0.039051254
2019-11-28T17:25:00	0.2396	6.211		0.600767541	0.741434218	0.012207749	0.125945091	0.038817500
2019-11-28T17:30:00	0.2388	6.204		0.598150935	0.737601607	0.012109355	0.124929986	0.038504635
2019-11-28T17:35:00	0.2392	6.195		0.599205574	0.739145676	0.012148964	0.125338622	0.038630581
2019-11-28T17:40:00	0.2391	6.187		0.598925036	0.738734856	0.012138421	0.125229856	0.038597058
2019-11-28T17:45:00	0.2394	6.180		0.599979444	0.740279269	0.012178070	0.125638906	0.038723131
2019-11-28T17:50:00	0.2386	6.172		0.597362254	0.736447529	0.012079778	0.124624847	0.038410588
2019-11-28T17:55:00	0.2397	6.168		0.601086736	0.741902143	0.012219779	0.126069211	0.038855755
2019-11-28T18:00:00	0.2403	6.170		0.603140786	0.744915326	0.012297345	0.126869439	0.039102393
2019-11-28T18:05:00	0.2392	6.173		0.599524910	0.739613389	0.012160970	0.125462489	0.038668758
2019-11-28T18:10:00	0.2388	6.178		0.597909149	0.737247746	0.012100284	0.124836399	0.038475790
2019-11-28T18:15:00	0.2398	6.181		0.601299516	0.742214116	0.012227803	0.126151986	0.038881267
2019-11-28T18:20:00	0.2392	6.183		0.599350843	0.739358434	0.012154425	0.125394963	0.038647945
2019-11-28T18:25:00	0.2389	6.186		0.598402723	0.737970159	0.012118806	0.125027483	0.038534684
2019-11-28T18:30:00	0.2381	6.189		0.595784365	0.734140160	0.012020717	0.124015517	0.038222787
2019-11-28T18:35:00	0.2383	6.188		0.596505719	0.735194748	0.012047699	0.124293891	0.038308584
2019-11-28T18:40:00	0.2367	6.188		0.590876373	0.726976422	0.011837956	0.122130008	0.037641655
2019-11-28T18:45:00	0.2366	6.187		0.590595172	0.726566587	0.011827528	0.122022428	0.037608497
2019-11-28T18:50:00	0.2367	6.184		0.590983073	0.727131948	0.011841914	0.122170842	0.037654240
2019-11-28T18:55:00	0.2365	6.185		0.590367307	0.726234535	0.011819082	0.121935288	0.037581640
2019-11-28T19:00:00	0.2363	6.187		0.589751434	0.725337283	0.011796268	0.121699927	0.037509099
2019-11-28T19:05:00	0.2362	6.189		0.589470143	0.724927581	0.011785856	0.121592506	0.037475991
2019-11-28T19:10:00	0.2361	6.192		0.588854112	0.724030560	0.011763070	0.121357425	0.037403537
2019-11-28T19:15:00	0.2363	6.198		0.589576885	0.725083044	0.011789807	0.121633264	0.037488553
2019-11-28T19:20:00	0.2374	6.203		0.593309583	0.730525438	0.011928383	0.123062924	0.037929188
2019-11-28T19:25:00	0.2354	6.208		0.586670451	0.720853408	0.011682481	0.120526000	0.037147284
2019-11-28T19:30:00	0.2366	6.208		0.590740796	0.726778818	0.011832928	0.122078134	0.037625667
2019-11-28T19:35:00	0.2369	6.206		0.591797651	0.728319593	0.011872152	0.122482807	0.037750391
2019-11-28T19:40:00	0.2366	6.210		0.590512940	0.726446752	0.011824480	0.121990978	0.037598804
2019-11-28T19:45:00	0.2365	6.211		0.590231710	0.726036961	0.011814057	0.121883449	0.037565663
2019-11-28T19:50:00	0.2363	6.215		0.589615813	0.725139743	0.011791248	0.121648129	0.037493135
2019-11-28T19:55:00	0.2369	6.216		0.591676542	0.728142983	0.011867654	0.122436399	0.037736087
2019-11-28T20:00:00	0.2371	6.217		0.592398736	0.729196324	0.011894491	0.122713271	0.037821422
2019-11-28T20:05:00	0.2366	6.216		0.590779711	0.726835535	0.011834371	0.122093023	0.037630255
2019-11-28T20:10:00	0.2360	6.218		0.588825223	0.723988501	0.011762002	0.121346406	0.037400141
2019-11-28T20:15:00	0.2371	6.219		0.592224319	0.728941891	0.011888007	0.122646374	0.037800804
2019-11-28T20:20:00	0.2358	6.221		0.587927666	0.722682127	0.011728844	0.121004324	0.037294708
2019-11-28T20:25:00	0.2361	6.224		0.588985364	0.724221654	0.011767923	0.121407492	0.037418968
2019-11-28T20:30:00	0.2358	6.225		0.588034455	0.722837521	0.011732787	0.121044998	0.037307244
2019-11-28T20:35:00	0.2352	6.227		0.586078442	0.719992739	0.011660681	0.120301098	0.037077967
2019-11-28T20:40:00	0.2354	6.226		0.586801784	0.721044381	0.011687320	0.120575922	0.037162670
2019-11-28T20:45:00	0.2355	6.222		0.586855196	0.721122052	0.011689288	0.120596228	0.037168929
2019-11-28T20:50:00	0.2350	6.215		0.585233621	0.718765034	0.011629608	0.119980527	0.036979164
2019-11-28T20:55:00	0.2358	6.210		0.587966612	0.722738799	0.011730282	0.121019158	0.037299280
2019-11-28T21:00:00	0.2357	6.203		0.587685179	0.722329308	0.011719895	0.120911991	0.037266250
2019-11-28T21:05:00	0.2358	6.197		0.588073400	0.722894194	0.011734225	0.121059834	0.037311816
2019-11-28T21:10:00	0.2356	6.190		0.587457126	0.721997535	0.011711481	0.120825187	0.037239496
2019-11-28T21:15:00	0.2365	6.186		0.590188393	0.725973846	0.011812452	0.121866890	0.037560559
2019-11-28T21:20:00	0.2356	6.185		0.587229058	0.721665783	0.011703069	0.120738410	0.037212750
2019-11-28T21:25:00	0.2353	6.184		0.586277674	0.720282351	0.011668015	0.120376762	0.037101287
2019-11-28T21:30:00	0.2354	6.185		0.586666050	0.720847009	0.011682319	0.120524328	0.037146768
2019-11-28T21:35:00	0.2358	6.188		0.588058952	0.722873169	0.011733691	0.121054330	0.037310120
2019-11-28T21:40:00	0.2356	6.192		0.587442675	0.721976513	0.011710948	0.120819688	0.037237801
2019-11-28T21:45:00	0.2352	6.198		0.585821370	0.719619096	0.011651222	0.120203505	0.037047888
2019-11-28T21:50:00	0.2358	6.204		0.587884320	0.722619055	0.011727244	0.120987817	0.037289620
2019-11-28T21:55:00	0.2348	6.209		0.584587924	0.717827100	0.011605888	0.119735810	0.036903739
2019-11-28T22:00:00	0.2355	6.216		0.586986523	0.721313035	0.011694128	0.120646163	0.037184319
2019-11-28T22:05:00	0.2352	6.221		0.586138922	0.720080652	0.011662907	0.120324065	0.037085045
2019-11-28T22:10:00	0.2355	6.225		0.586966077	0.721283301	0.011693374	0.120638388	0.037181923
2019-11-28T22:15:00	0.2355	6.232		0.587123306	0.721511970	0.011699170	0.120698183	0.037200352
2019-11-28T22:20:00	0.2356	6.238		0.587280529	0.721740650	0.011704967	0.120757991	0.037218786
2019-11-28T22:25:00	0.2370	6.244		0.592122770	0.728793768	0.011884232	0.122607434	0.037788802
2019-11-28T22:30:00	0.2366	6.250		0.590607336	0.726584314	0.011827979	0.122027081	0.037609931
2019-11-28T22:35:00	0.2370	6.256		0.592102354	0.728763989	0.011883474	0.122599606	0.037786389
2019-11-28T22:40:00	0.2382	6.260		0.595935943	0.734361723	0.012026384	0.124073985	0.038240807
2019-11-28T22:45:00	0.2378	6.264		0.594756334	0.732637974	0.011982316	0.123619350	0.038100684
2019-11-28T22:50:00	0.2377	6.269		0.594244837	0.731890891	0.011963234	0.123422479	0.038040007
2019-11-28T22:55:00	0.2363	6.270		0.589719746	0.725291127	0.011795095	0.121687823	0.037505369
2019-11-28T23:00:00	0.2355	6.270		0.586863845	0.721134629	0.011689607	0.120599516	0.037169942
2019-11-28T23:05:00	0.2352	6.270		0.586016215	0.719902290	0.011658391	0.120277471	0.037070685
2019-11-28T23:10:00	0.2347	6.269		0.584162987	0.717210028	0.011590291	0.119574899	0.036854145
2019-11-28T23:15:00	0.2341	6.271		0.582308782	0.714519205	0.011522360	0.118874064	0.036638141
2019-11-28T23:20:00	0.2331	6.270		0.579111209	0.709885595	0.011405692	0.117670425	0.036267168
2019-11-28T23:25:00	0.2327	6.267		0.577590157	0.707684414	0.011350408	0.117100064	0.036091377
2019-11-28T23:30:00	0.2319	6.263		0.575060442	0.704027801	0.011258766	0.116154610	0.035799979
2019-11-28T23:35:00	0.2322	6.265		0.575890210	0.705226615	0.011288783	0.116464295	0.035895427
2019-11-28T23:40:00	0.2319	6.267		0.575039927	0.703998168	0.011258024	0.116146958	0.035797621
2019-11-28T23:45:00	0.2314	6.269		0.573180894	0.701314413	0.011190922	0.115454681	0.035584254
2019-11-28T23:50:00	0.2320	6.271		0.575355448	0.704453948	0.011269433	0.116264664	0.035833899
2019-11-28T23:55:00	0.2322	6.272		0.575849188	0.705167336	0.011287298	0.116448975	0.035890705
2019-11-29T00:00:00	0.2312	6.271		0.572645719	0.700542349	0.011171643	0.115255781	0.035522951
2019-11-29T00:05:00	0.2315	6.273		0.573476058	0.701740330	0.011201562	0.115564455	0.035618087
2019-11-29T00:10:00	0.2309	6.272		0.571616195	0.699057785	0.011134603	0.114873646	0.035405173
2019-11-29T00:15:00	0.2316	6.269		0.573791721	0.702195905	0.011212947	0.115681912	0.035654289
2019-11-29T00:20:00	0.2309	6.270		0.571595660	0.699028182	0.011133865	0.114866030	0.035402826
2019-11-29T00:25:00	0.2300	6.274		0.568388294	0.694408865	0.011018876	0.113679717	0.035037193
2019-11-29T00:30:00	0.2302	6.274		0.569219644	0.695605376	0.011048623	0.113986608	0.035131779
2019-11-29T00:35:00	0.2296	6.275		0.567020710	0.692441826	0.010970032	0.113175795	0.034881879
2019-11-29T00:40:00	0.2296	6.276		0.567178837	0.692669185	0.010975674	0.113234002	0.034899819
2019-11-29T00:45:00	0.2295	6.280		0.567000148	0.692412262	0.010969298	0.113168227	0.034879547
2019-11-29T00:50:00	0.2289	6.282		0.564799817	0.689250736	0.010890945	0.112359875	0.034630405
2019-11-29T00:55:00	0.2287	6.284		0.564283936	0.688510076	0.010872616	0.112170779	0.034572124
2019-11-29T01:00:00	0.2289	6.285		0.564779241	0.689221191	0.010890214	0.112352330	0.034628079
2019-11-29T01:05:00	0.2282	6.284		0.562577509	0.686061689	0.010812100	0.111546442	0.034379697
2019-11-29T01:10:00	0.2282	6.280		0.562398585	0.685805106	0.010805765	0.111481081	0.034359552
2019-11-29T01:15:00	0.2275	6.277		0.560195349	0.682647772	0.010727907	0.110677835	0.034111984
2019-11-29T01:20:00	0.2268	6.274		0.557653009	0.679009454	0.010638421	0.109754626	0.033827442
2019-11-29T01:25:00	0.2272	6.270		0.559162149	0.681168527	0.010691494	0.110302172	0.033996201
2019-11-29T01:30:00	0.2273	6.269		0.559320632	0.681395372	0.010697075	0.110359752	0.034013948
2019-11-29T01:35:00	0.2276	6.272		0.560491613	0.683072098	0.010738359	0.110785674	0.034145221
2019-11-29T01:40:00	0.2272	6.278		0.558962439	0.680882702	0.010684463	0.110229633	0.033973844
2019-11-29T01:45:00	0.2266	6.283		0.557094828	0.678211359	0.010618825	0.109552457	0.033765131
2019-11-29T01:50:00	0.2267	6.285		0.557253405	0.678438068	0.010624390	0.109609873	0.033782827
2019-11-29T01:55:00	0.2266	6.289		0.557074207	0.678181879	0.010618101	0.109544992	0.033762830
2019-11-29T02:00:00	0.2268	6.292		0.557570537	0.678891518	0.010635524	0.109724743	0.033818231
2019-11-29T02:05:00	0.2272	6.296		0.559079712	0.681050540	0.010688591	0.110272226	0.033986971
2019-11-29T02:10:00	0.2264	6.300		0.556536557	0.677413392	0.010599244	0.109350445	0.033702869
2019-11-29T02:15:00	0.2269	6.304		0.558046181	0.679571770	0.010652235	0.109897143	0.033871367
2019-11-29T02:20:00	0.2267	6.307		0.557529300	0.678832551	0.010634076	0.109709803	0.033813627
2019-11-29T02:25:00	0.2262	6.309		0.555660920	0.676162312	0.010568569	0.109033974	0.033605330
2019-11-29T02:30:00	0.2259	6.312		0.554805697	0.674941007	0.010538652	0.108725330	0.033510203
2019-11-29T02:35:00	0.2262	6.315		0.555640290	0.676132844	0.010567846	0.109026524	0.033603033
2019-11-29T02:40:00	0.2255	6.316		0.553432774	0.672981657	0.010490716	0.108230780	0.033357778
2019-11-29T02:45:00	0.2259	6.317		0.554605737	0.674655540	0.010531663	0.108653230	0.033487981
2019-11-29T02:50:00	0.2256	6.318		0.553750255	0.673434607	0.010501791	0.108345040	0.033392994
2019-11-29T02:55:00	0.2256	6.318		0.553570876	0.673178677	0.010495533	0.108280475	0.033373094
2019-11-29T03:00:00	0.2254	6.320		0.553053330	0.672440411	0.010477487	0.108094299	0.033315713
2019-11-29T03:05:00	0.2258	6.322		0.554226421	0.674114111	0.010518413	0.108516526	0.033445847
2019-11-29T03:10:00	0.2250	6.324		0.551679715	0.670482050	0.010429668	0.107600960	0.033163661
2019-11-29T03:15:00	0.2255	6.327		0.553191447	0.672637409	0.010482301	0.108143968	0.033331021
2019-11-29T03:20:00	0.2249	6.330		0.551320735	0.669970508	0.010417189	0.107472219	0.033123982
2019-11-29T03:25:00	0.2244	6.333		0.549449015	0.667305045	0.010352248	0.106802230	0.032917484
2019-11-29T03:30:00	0.2245	6.335		0.549946435	0.668013125	0.010369486	0.106980076	0.032972298
2019-11-29T03:35:00	0.2248	6.336		0.551120574	0.669685328	0.010410234	0.107400469	0.033101868
2019-11-29T03:40:00	0.2248	6.338		0.550941060	0.669429591	0.010403999	0.107336141	0.033082041
2019-11-29T03:45:00	0.2254	6.340		0.553129513	0.672549070	0.010480142	0.108121694	0.033324156
2019-11-29T03:50:00	0.2248	6.341		0.550920402	0.669400164	0.010403282	0.107328740	0.033079760
2019-11-29T03:55:00	0.2248	6.343		0.551079261	0.669626470	0.010408799	0.107385663	0.033097304
2019-11-29T04:00:00	0.2248	6.345		0.550899744	0.669370737	0.010402564	0.107321339	0.033077479
2019-11-29T04:05:00	0.2237	6.347		0.547244698	0.664169622	0.010276030	0.106015906	0.032675132
2019-11-29T04:10:00	0.2238	6.348		0.547652590	0.664749508	0.010290112	0.106161187	0.032719909
2019-11-29T04:15:00	0.2238	6.351		0.547721756	0.664847853	0.010292501	0.106185833	0.032727505
2019-11-29T04:20:00	0.2236	6.352		0.546774711	0.663501627	0.010259816	0.105848632	0.032623576
2019-11-29T04:25:00	0.2238	6.355		0.547521388	0.664562968	0.010285581	0.106114445	0.032705503
2019-11-29T04:30:00	0.2244	6.356		0.549622204	0.667551557	0.010358248	0.106864134	0.032936564
2019-11-29T04:35:00	0.2233	6.358		0.545965811	0.662352358	0.010231941	0.105561049	0.032534941
2019-11-29T04:40:00	0.2235	6.361		0.546712663	0.663413452	0.010257677	0.105826559	0.032616773
2019-11-29T04:45:00	0.2237	6.363		0.547120617	0.663993248	0.010271748	0.105971731	0.032661517
2019-11-29T04:50:00	0.2234	6.364		0.546173407	0.662647256	0.010239091	0.105634817	0.032557676
2019-11-29T04:55:00	0.2232	6.366		0.545564860	0.661782894	0.010218138	0.105418648	0.032491051
2019-11-29T05:00:00	0.2238	6.368		0.547666860	0.664769798	0.010290605	0.106166272	0.032721476
2019-11-29T05:05:00	0.2242	6.370		0.549090533	0.666794868	0.010339833	0.106674152	0.032878010
2019-11-29T05:10:00	0.2245	6.371		0.549836713	0.667856917	0.010365682	0.106940833	0.032960203
2019-11-29T05:15:00	0.2243	6.370		0.549228808	0.666991642	0.010344621	0.106723545	0.032893233
2019-11-29T05:20:00	0.2238	6.369		0.547604828	0.664681600	0.010288462	0.106144171	0.032714664
2019-11-29T05:25:00	0.2234	6.368		0.546318936	0.662854006	0.010244105	0.105686545	0.032573620
2019-11-29T05:30:00	0.2231	6.366		0.545371507	0.661508325	0.010211485	0.105350012	0.032469897
2019-11-29T05:35:00	0.2232	6.364		0.545440719	0.661606606	0.010213867	0.105374578	0.032477468
2019-11-29T05:40:00	0.2236	6.363		0.546865306	0.663630377	0.010262941	0.105880866	0.032633511
2019-11-29T05:45:00	0.2238	6.362		0.547611964	0.664691745	0.010288709	0.106146713	0.032715448
2019-11-29T05:50:00	0.2239	6.359		0.548019813	0.665271692	0.010302798	0.106292069	0.032760248
2019-11-29T05:55:00	0.2238	6.358		0.547750297	0.664888435	0.010293487	0.106196003	0.032730640
2019-11-29T06:00:00	0.2232	6.358		0.545447859	0.661616744	0.010214112	0.105377113	0.032478250
2019-11-29T06:05:00	0.2234	6.356		0.546194823	0.662677679	0.010239829	0.105642428	0.032560022
2019-11-29T06:10:00	0.2233	6.354		0.545925165	0.662294624	0.010230541	0.105546609	0.032530490
2019-11-29T06:15:00	0.2238	6.352		0.547688266	0.664800234	0.010291344	0.106173899	0.032723827
2019-11-29T06:20:00	0.2252	6.351		0.552157621	0.671163224	0.010446292	0.107772472	0.033216522
2019-11-29T06:25:00	0.2250	6.344		0.551550122	0.670297369	0.010425162	0.107554475	0.033149334
2019-11-29T06:30:00	0.2257	6.337		0.553986604	0.673771861	0.010510040	0.108430141	0.033419223
2019-11-29T06:35:00	0.2266	6.331		0.557097009	0.678214476	0.010618901	0.109553247	0.033765375
2019-11-29T06:40:00	0.2270	6.325		0.558516826	0.680245057	0.010668783	0.110067866	0.033923985
2019-11-29T06:45:00	0.2282	6.318		0.562297811	0.685660607	0.010802197	0.111444277	0.034348209
2019-11-29T06:50:00	0.2296	6.310		0.567085297	0.692534688	0.010972336	0.113199568	0.034889206
2019-11-29T06:55:00	0.2305	6.304		0.570184049	0.696994102	0.011083182	0.114343143	0.035241667
2019-11-29T07:00:00	0.2306	6.292		0.570589265	0.697577834	0.011097719	0.114493118	0.035287891
2019-11-29T07:05:00	0.2311	6.282		0.572339934	0.700101317	0.011160635	0.115142213	0.035487948
2019-11-29T07:10:00	0.2315	6.271		0.573417378	0.701655649	0.011199447	0.115542627	0.035611360
2019-11-29T07:15:00	0.2322	6.259		0.575838648	0.705152104	0.011286917	0.116445039	0.035889492
2019-11-29T07:20:00	0.2322	6.246		0.575907257	0.705251251	0.011289400	0.116470662	0.035897389
2019-11-29T07:25:00	0.2325	6.235		0.576983606	0.706807182	0.011328400	0.116873015	0.036021398
2019-11-29T07:30:00	0.2325	6.225		0.577052193	0.706906362	0.011330888	0.116898678	0.036029308
2019-11-29T07:35:00	0.2334	6.217		0.579806566	0.710892517	0.011431012	0.117931641	0.036347677
2019-11-29T07:40:00	0.2337	6.205		0.580881719	0.712450197	0.011470217	0.118336112	0.036472339
2019-11-29T07:45:00	0.2338	6.194		0.581285700	0.713035732	0.011484966	0.118488272	0.036519236
2019-11-29T07:50:00	0.2344	6.181		0.583366310	0.716053540	0.011561079	0.119273521	0.036761257
2019-11-29T07:55:00	0.2344	6.170		0.583434773	0.716152903	0.011563588	0.119299404	0.036769235
2019-11-29T08:00:00	0.2350	6.155		0.585179045	0.718685745	0.011627603	0.119959833	0.036972786
2019-11-29T08:05:00	0.2353	6.140		0.586252557	0.720245839	0.011667090	0.120367222	0.037098347
2019-11-29T08:10:00	0.2353	6.126		0.586320963	0.720345284	0.011669609	0.120393205	0.037106355
2019-11-29T08:15:00	0.2348	6.113		0.584714135	0.718010405	0.011610523	0.119783623	0.036918476
2019-11-29T08:20:00	0.2340	6.102		0.582100588	0.714217253	0.011514745	0.118795505	0.036613928
2019-11-29T08:25:00	0.2334	6.095		0.579820706	0.710912996	0.011431527	0.117936956	0.036349315
2019-11-29T08:30:00	0.2332	6.088		0.579218000	0.710040209	0.011409579	0.117710523	0.036279526
2019-11-29T08:35:00	0.2331	6.084		0.578950883	0.709653490	0.011399859	0.117610240	0.036248618
2019-11-29T08:40:00	0.2332	6.081		0.579355086	0.710238699	0.011414569	0.117762006	0.036295394
2019-11-29T08:45:00	0.2333	6.077		0.579759243	0.710823977	0.011429288	0.117913854	0.036342195
2019-11-29T08:50:00	0.2334	6.072		0.579827776	0.710923236	0.011431784	0.117939613	0.036350134
2019-11-29T08:55:00	0.2342	6.063		0.582579973	0.714912580	0.011532283	0.118976435	0.036669693
2019-11-29T09:00:00	0.2354	6.049		0.586670033	0.720852801	0.011682465	0.120525842	0.037147235
2019-11-29T09:05:00	0.2356	6.022		0.587408236	0.721926416	0.011709677	0.120806583	0.037233762
2019-11-29T09:10:00	0.2360	5.996		0.588815820	0.723974812	0.011761654	0.121342820	0.037399035
2019-11-29T09:15:00	0.2368	5.970		0.591226507	0.727486814	0.011850946	0.122264029	0.037682961
2019-11-29T09:20:00	0.2361	5.949		0.588952533	0.724173852	0.011766709	0.121394967	0.037415108
2019-11-29T09:25:00	0.2362	5.925		0.589355588	0.724760751	0.011781617	0.121548774	0.037462513
2019-11-29T09:30:00	0.2357	5.900		0.587750144	0.722423828	0.011722292	0.120936725	0.037273873
2019-11-29T09:35:00	0.2356	5.880		0.587483675	0.722036157	0.011712460	0.120835291	0.037242610
2019-11-29T09:40:00	0.2349	5.857		0.584872186	0.718239974	0.011616328	0.119843513	0.036936935
2019-11-29T09:45:00	0.2345	5.840		0.583599944	0.716392638	0.011569642	0.119361863	0.036788485
2019-11-29T09:50:00	0.2349	5.821		0.585009052	0.718438788	0.011621356	0.119895387	0.036952923
2019-11-29T09:55:00	0.2345	5.801		0.583736860	0.716591379	0.011574662	0.119413649	0.036804446
2019-11-29T10:00:00	0.2342	5.784		0.582799532	0.715231104	0.011540319	0.119059348	0.036695247
2019-11-29T10:05:00	0.2336	5.769		0.580763617	0.712279043	0.011465907	0.118291647	0.036458635
2019-11-29T10:10:00	0.2326	5.751		0.577383471	0.707385458	0.011342906	0.117022670	0.036067524
2019-11-29T10:15:00	0.2328	5.729		0.578031558	0.708322987	0.011366437	0.117265434	0.036142346
2019-11-29T10:20:00	0.2317	5.715		0.574312673	0.702947942	0.011231749	0.115875888	0.035714074
2019-11-29T10:25:00	0.2311	5.695		0.572271825	0.700003096	0.011158184	0.115116926	0.035480154
2019-11-29T10:30:00	0.2299	5.673		0.568210125	0.694152510	0.011012507	0.113614002	0.035016939
2019-11-29T10:35:00	0.2294	5.659		0.566502601	0.691697018	0.010951556	0.112985181	0.034823130
2019-11-29T10:40:00	0.2285	5.644		0.563445835	0.687307266	0.010842873	0.111863919	0.034477546
2019-11-29T10:45:00	0.2284	5.631		0.563085049	0.686789657	0.010830081	0.111731953	0.034436873
2019-11-29T10:50:00	0.2273	5.618		0.559350224	0.681437732	0.010698117	0.110370506	0.034017262
2019-11-29T10:55:00	0.2268	5.611		0.557638359	0.678988504	0.010637906	0.109749317	0.033825805
2019-11-29T11:00:00	0.2265	5.605		0.556601377	0.677506028	0.010601516	0.109373890	0.033710095
2019-11-29T11:05:00	0.2260	5.591		0.554888159	0.675058741	0.010541535	0.108755071	0.033519369
2019-11-29T11:10:00	0.2250	5.576		0.551482871	0.670201536	0.010422824	0.107530356	0.033141900
2019-11-29T11:15:00	0.2250	5.559		0.551797502	0.670649918	0.010433764	0.107643219	0.033176685
2019-11-29T11:20:00	0.2249	5.545		0.551435507	0.670134045	0.010421178	0.107513371	0.033136665
2019-11-29T11:25:00	0.2236	5.530		0.547010691	0.663837004	0.010267955	0.105932603	0.032649457
2019-11-29T11:30:00	0.2243	5.516		0.549357529	0.667174835	0.010349079	0.106769536	0.032907408
2019-11-29T11:35:00	0.2231	5.506		0.545269011	0.661362789	0.010207960	0.105313637	0.032458686
2019-11-29T11:40:00	0.2231	5.495		0.545245287	0.661329103	0.010207144	0.105305219	0.032456091
2019-11-29T11:45:00	0.2232	5.487		0.545560484	0.661776680	0.010217988	0.105417094	0.032490572
2019-11-29T11:50:00	0.2227	5.476		0.543841810	0.659337170	0.010158929	0.104807799	0.032302781
2019-11-29T11:55:00	0.2226	5.466		0.543478984	0.658822479	0.010146483	0.104679400	0.032263208
2019-11-29T12:00:00	0.2213	5.460		0.539043994	0.652539873	0.009994978	0.103116344	0.031781459
2019-11-29T12:05:00	0.2211	5.454		0.538341069	0.651545584	0.009971071	0.102869697	0.031705440
2019-11-29T12:10:00	0.2203	5.454		0.535599310	0.647671221	0.009878096	0.101910497	0.031409805
2019-11-29T12:15:00	0.2193	5.445		0.532175003	0.642840961	0.009762593	0.100718868	0.031042533
2019-11-29T12:20:00	0.2193	5.433		0.532151188	0.642807403	0.009761792	0.100710605	0.031039987
2019-11-29T12:25:00	0.2192	5.424		0.532127374	0.642773844	0.009760991	0.100702343	0.031037440
2019-11-29T12:30:00	0.2184	5.422		0.529380675	0.638906416	0.009668845	0.099751695	0.030744441
2019-11-29T12:35:00	0.2174	5.416		0.525950184	0.634084812	0.009554378	0.098570752	0.030380463
2019-11-29T12:40:00	0.2182	5.422		0.528651940	0.637881370	0.009644472	0.099500237	0.030666940
2019-11-29T12:45:00	0.2181	5.440		0.528287516	0.637368927	0.009632295	0.099374609	0.030628219
2019-11-29T12:50:00	0.2181	5.471		0.528263675	0.637335406	0.009631498	0.099366392	0.030625687
2019-11-29T12:55:00	0.2184	5.501		0.529261505	0.638738761	0.009664857	0.099710552	0.030731761
2019-11-29T13:00:00	0.2185	5.517		0.529578163	0.639184281	0.009675456	0.099819895	0.030765461
2019-11-29T13:05:00	0.2188	5.531		0.530575613	0.640588168	0.009708879	0.100164712	0.030871737
2019-11-29T13:10:00	0.2188	5.540		0.530551788	0.640554625	0.009708080	0.100156469	0.030869196
2019-11-29T13:15:00	0.2191	5.540		0.531548956	0.641958906	0.009741550	0.100501772	0.030975622
2019-11-29T13:20:00	0.2186	5.531		0.529823301	0.639529232	0.009683665	0.099904584	0.030791563
2019-11-29T13:25:00	0.2183	5.521		0.528777958	0.638058597	0.009648684	0.099543698	0.030680335
2019-11-29T13:30:00	0.2178	5.508		0.527050915	0.635630863	0.009591032	0.098948907	0.030497014
2019-11-29T13:35:00	0.2170	5.497		0.524641145	0.632247461	0.009510879	0.098121980	0.030242147
2019-11-29T13:40:00	0.2169	5.494		0.524276296	0.631735610	0.009498772	0.097997084	0.030203653
2019-11-29T13:45:00	0.2164	5.494		0.522546992	0.629311026	0.009441498	0.097406190	0.030021534
2019-11-29T13:50:00	0.2158	5.499		0.520475458	0.626409808	0.009373117	0.096700718	0.029804100
2019-11-29T13:55:00	0.2157	5.498		0.520110167	0.625898572	0.009361084	0.096576583	0.029765841
2019-11-29T14:00:00	0.2170	5.487		0.524521812	0.632080035	0.009506918	0.098081121	0.030229554
2019-11-29T14:05:00	0.2170	5.483		0.524497945	0.632046550	0.009506126	0.098072950	0.030227036
2019-11-29T14:10:00	0.2167	5.479		0.523450984	0.630578172	0.009471416	0.097714855	0.030116667
2019-11-29T14:15:00	0.2163	5.463		0.522062502	0.628632176	0.009425482	0.097240963	0.029970609
2019-11-29T14:20:00	0.2163	5.455		0.522038617	0.628598716	0.009424693	0.097232822	0.029968100
2019-11-29T14:25:00	0.2162	5.449		0.521673492	0.628087249	0.009412633	0.097108401	0.029929752
2019-11-29T14:30:00	0.2164	5.449		0.522332058	0.629009845	0.009434391	0.097332873	0.029998937
2019-11-29T14:35:00	0.2164	5.450		0.522308176	0.628976381	0.009433602	0.097324728	0.029996426
2019-11-29T14:40:00	0.2168	5.451		0.523648813	0.630855561	0.009477970	0.097782468	0.030137506
2019-11-29T14:45:00	0.2171	5.452		0.524647981	0.632257051	0.009511105	0.098124321	0.030242869
2019-11-29T14:50:00	0.2164	5.449		0.522577713	0.629354076	0.009442513	0.097416671	0.030024764
2019-11-29T14:55:00	0.2160	5.441		0.521188878	0.627408571	0.009396638	0.096943386	0.029878893
2019-11-29T15:00:00	0.2156	5.433		0.519799481	0.625463844	0.009350857	0.096471067	0.029733320
2019-11-29T15:05:00	0.2161	5.417		0.521482391	0.627819599	0.009406324	0.097043313	0.029909691
2019-11-29T15:10:00	0.2160	5.407		0.521117206	0.627308214	0.009394274	0.096918993	0.029871375
2019-11-29T15:15:00	0.2166	5.403		0.523140600	0.630143025	0.009461138	0.097608820	0.030083986
2019-11-29T15:20:00	0.2159	5.397		0.520728089	0.626763435	0.009381443	0.096786615	0.029830575
2019-11-29T15:25:00	0.2164	5.389		0.522410544	0.629119821	0.009436986	0.097359642	0.030007187
2019-11-29T15:30:00	0.2166	5.376		0.523068969	0.630042612	0.009458767	0.097584357	0.030076447
2019-11-29T15:35:00	0.2165	5.365		0.522703953	0.629530994	0.009446689	0.097459748	0.030038041
2019-11-29T15:40:00	0.2162	5.361		0.521656446	0.628063374	0.009412070	0.097102594	0.029927963
2019-11-29T15:45:00	0.2157	5.361		0.519925824	0.625640620	0.009355015	0.096513969	0.029746543
2019-11-29T15:50:00	0.2165	5.357		0.522632313	0.629430593	0.009444319	0.097435301	0.030030506
2019-11-29T15:55:00	0.2160	5.351		0.520902182	0.627007158	0.009387182	0.096845831	0.029848826
2019-11-29T16:00:00	0.2165	5.339		0.522925703	0.629841793	0.009454026	0.097535440	0.030061370
2019-11-29T16:05:00	0.2156	5.331		0.519636857	0.625236323	0.009345506	0.096415860	0.029716304
2019-11-29T16:10:00	0.2155	5.329		0.519419575	0.624932365	0.009338358	0.096342121	0.029693577
2019-11-29T16:15:00	0.2153	5.329		0.518519204	0.623673235	0.009308770	0.096036867	0.029599495
2019-11-29T16:20:00	0.2149	5.330		0.517276918	0.621937032	0.009268023	0.095616490	0.029469931
2019-11-29T16:25:00	0.2158	5.329		0.520474956	0.626409105	0.009373100	0.096700547	0.029804048
2019-11-29T16:30:00	0.2161	5.324		0.521281770	0.627538648	0.009399703	0.096975006	0.029888639
2019-11-29T16:35:00	0.2174	5.322		0.525839736	0.633929735	0.009550704	0.098532848	0.030368781
2019-11-29T16:40:00	0.2189	5.316		0.531072399	0.641287684	0.009725547	0.100336674	0.030924737
2019-11-29T16:45:00	0.2180	5.304		0.527791331	0.636671382	0.009615727	0.099203686	0.030575540
2019-11-29T16:50:00	0.2188	5.287		0.530639262	0.640677780	0.009711013	0.100186736	0.030878525
2019-11-29T16:55:00	0.2178	5.274		0.527357782	0.636062054	0.009601263	0.099054461	0.030529547
2019-11-29T17:00:00	0.2175	5.255		0.526118686	0.634321421	0.009559984	0.098628594	0.030398290
2019-11-29T17:05:00	0.2182	5.231		0.528627446	0.637846923	0.009643653	0.099491791	0.030664336
2019-11-29T17:10:00	0.2182	5.215		0.528410731	0.637542176	0.009636411	0.099417076	0.030641308
2019-11-29T17:15:00	0.2174	5.195		0.525808891	0.633886427	0.009549678	0.098522264	0.030365518
2019-11-29T17:20:00	0.2165	5.175		0.522863959	0.629755250	0.009451983	0.097514361	0.030054873
2019-11-29T17:25:00	0.2161	5.162		0.521281964	0.627538918	0.009399710	0.096975072	0.029888659
2019-11-29T17:30:00	0.2155	5.160		0.519357768	0.624845910	0.009336326	0.096321151	0.029687114
2019-11-29T17:35:00	0.2148	5.159		0.517090797	0.621677020	0.009261926	0.095553588	0.029450544
2019-11-29T17:40:00	0.2149	5.160		0.517215072	0.621850630	0.009265997	0.095595586	0.029463488
2019-11-29T17:45:00	0.2176	5.159		0.526552584	0.634930802	0.009574429	0.098777616	0.030444221
2019-11-29T17:50:00	0.2161	5.148		0.521561283	0.627930089	0.009408928	0.097070180	0.029917972
2019-11-29T17:55:00	0.2159	5.134		0.520661473	0.626670182	0.009379247	0.096763961	0.029823593
2019-11-29T18:00:00	0.2154	5.125		0.519078463	0.624455257	0.009327143	0.096226416	0.029657916
2019-11-29T18:05:00	0.2151	5.119		0.517836379	0.622718774	0.009286363	0.095805691	0.029528245
2019-11-29T18:10:00	0.2147	5.109		0.516593846	0.620982912	0.009245657	0.095385739	0.029398811
2019-11-29T18:15:00	0.2147	5.103		0.516718139	0.621156497	0.009249725	0.095427706	0.029411746
2019-11-29T18:20:00	0.2136	5.098		0.512739112	0.615605664	0.009119945	0.094088790	0.028999079
2019-11-29T18:25:00	0.2137	5.094		0.513205663	0.616255851	0.009135114	0.094245291	0.029047314
2019-11-29T18:30:00	0.2136	5.089		0.512987973	0.615952455	0.009128035	0.094172252	0.029024803
2019-11-29T18:35:00	0.2139	5.083		0.513796549	0.617079564	0.009154345	0.094443686	0.029108461
2019-11-29T18:40:00	0.2145	5.073		0.515972508	0.620115349	0.009225335	0.095176085	0.029334194
2019-11-29T18:45:00	0.2145	5.062		0.516096823	0.620288903	0.009229399	0.095218013	0.029347116
2019-11-29T18:50:00	0.2141	5.045		0.514511706	0.618076892	0.009177646	0.094684086	0.029182555
2019-11-29T18:55:00	0.2136	5.032		0.512925856	0.615865890	0.009126015	0.094151416	0.029018381
2019-11-29T19:00:00	0.2145	5.030		0.515786123	0.619855165	0.009219244	0.095113239	0.029314824
2019-11-29T19:05:00	0.2142	5.022		0.514884798	0.618597354	0.009189815	0.094809622	0.029221246
2019-11-29T19:10:00	0.2144	5.013		0.515692927	0.619725078	0.009216199	0.095081823	0.029305141
2019-11-29T19:15:00	0.2145	5.009		0.515817252	0.619898618	0.009220261	0.095123734	0.029318059
2019-11-29T19:20:00	0.2137	5.006		0.513205856	0.616256121	0.009135121	0.094245356	0.029047334
2019-11-29T19:25:00	0.2142	4.995		0.515040289	0.618814297	0.009194888	0.094861966	0.029237379
2019-11-29T19:30:00	0.2138	4.986		0.513454683	0.616602958	0.009143216	0.094328877	0.029073076
2019-11-29T19:35:00	0.2140	4.975		0.514263149	0.617730218	0.009169544	0.094600499	0.029156793
2019-11-29T19:40:00	0.2133	4.964		0.511992808	0.614565980	0.009095706	0.093838718	0.028922004
2019-11-29T19:45:00	0.2142	4.955		0.514853853	0.618554182	0.009188805	0.094799207	0.029218036
2019-11-29T19:50:00	0.2139	4.951		0.513952283	0.617296709	0.009159416	0.094496010	0.029124588
2019-11-29T19:55:00	0.2144	4.940		0.515444456	0.619378286	0.009208082	0.094998089	0.029279334
2019-11-29T20:00:00	0.2147	4.929		0.516594233	0.620983453	0.009245670	0.095385869	0.029398851
2019-11-29T20:05:00	0.2149	4.917		0.517401960	0.622111733	0.009272121	0.095658761	0.029482959
2019-11-29T20:10:00	0.2159	4.884		0.520599882	0.626583967	0.009377217	0.096743018	0.029817138
2019-11-29T20:15:00	0.2165	4.856		0.522771534	0.629625710	0.009448925	0.097482813	0.030045150
2019-11-29T20:20:00	0.2162	4.832		0.521872041	0.628365363	0.009419190	0.097176049	0.029950602
2019-11-29T20:25:00	0.2166	4.807		0.523019669	0.629973505	0.009457135	0.097567523	0.030071258
2019-11-29T20:30:00	0.2168	4.780		0.523825887	0.631103877	0.009483838	0.097843008	0.030156165
2019-11-29T20:35:00	0.2168	4.752		0.523949918	0.631277824	0.009487949	0.097885425	0.030169239
2019-11-29T20:40:00	0.2165	4.732		0.522709595	0.629538900	0.009446876	0.097461673	0.030038634
2019-11-29T20:45:00	0.2165	4.717		0.522833666	0.629712792	0.009450980	0.097504021	0.030051686
2019-11-29T20:50:00	0.2163	4.709		0.521934189	0.628452422	0.009421243	0.097197228	0.029957130
2019-11-29T20:55:00	0.2157	4.700		0.520010359	0.625758907	0.009357798	0.096542680	0.029755391
2019-11-29T21:00:00	0.2156	4.687		0.519793100	0.625454916	0.009350647	0.096468901	0.029732652
2019-11-29T21:05:00	0.2151	4.671		0.517868070	0.622763064	0.009287402	0.095816415	0.029531550
2019-11-29T21:10:00	0.2149	4.664		0.517309001	0.621981855	0.009269075	0.095627335	0.029473273
2019-11-29T21:15:00	0.2146	4.660		0.516408076	0.620723492	0.009239579	0.095323031	0.029379484
2019-11-29T21:20:00	0.2142	4.656		0.514823103	0.618511281	0.009187802	0.094788858	0.029214846
2019-11-29T21:25:00	0.2147	4.656		0.516656671	0.621070650	0.009247713	0.095406950	0.029405349
2019-11-29T21:30:00	0.2147	4.650		0.516780961	0.621244238	0.009251781	0.095448921	0.029418284
2019-11-29T21:35:00	0.2148	4.639		0.516905247	0.621417833	0.009255850	0.095490900	0.029431223
2019-11-29T21:40:00	0.2147	4.630		0.516687792	0.621114114	0.009248732	0.095417458	0.029408587
2019-11-29T21:45:00	0.2148	4.616		0.516812082	0.621287704	0.009252800	0.095459431	0.029421524
2019-11-29T21:50:00	0.2151	4.608		0.517961401	0.622893503	0.009290463	0.095847998	0.029541284
2019-11-29T21:55:00	0.2153	4.607		0.518768806	0.624022228	0.009316968	0.096121441	0.029625562
2019-11-29T22:00:00	0.2152	4.603		0.518209883	0.623240816	0.009298616	0.095932109	0.029567208
2019-11-29T22:05:00	0.2156	4.593		0.519687985	0.625307852	0.009347188	0.096433215	0.029721653
2019-11-29T22:10:00	0.2159	4.590		0.520824126	0.626897879	0.009384609	0.096819278	0.029840642
2019-11-29T22:15:00	0.2158	4.586		0.520253318	0.626098904	0.009365799	0.096625220	0.029780831
2019-11-29T22:20:00	0.2167	4.580		0.523436381	0.630557697	0.009470933	0.097709865	0.030115129
2019-11-29T22:25:00	0.2170	4.570		0.524571284	0.632149443	0.009508560	0.098098059	0.030234774
2019-11-29T22:30:00	0.2171	4.561		0.524683085	0.632306305	0.009512271	0.098136342	0.030246574
2019-11-29T22:35:00	0.2180	4.551		0.527862054	0.636770793	0.009618088	0.099228039	0.030583045
2019-11-29T22:40:00	0.2181	4.538		0.528314366	0.637406679	0.009633192	0.099383862	0.030631071
2019-11-29T22:45:00	0.2181	4.520		0.528085439	0.637084820	0.009625546	0.099304981	0.030606760
2019-11-29T22:50:00	0.2185	4.495		0.529559305	0.639157747	0.009674825	0.099813382	0.030763454
2019-11-29T22:55:00	0.2192	4.469		0.532053386	0.642669587	0.009758503	0.100676676	0.031029529
2019-11-29T23:00:00	0.2192	4.451		0.531824708	0.642347382	0.009750816	0.100597366	0.031005085
2019-11-29T23:05:00	0.2188	4.442		0.530575035	0.640587354	0.009708859	0.100164512	0.030871675
2019-11-29T23:10:00	0.2191	4.434		0.531707588	0.642182377	0.009746880	0.100556759	0.030992570
2019-11-29T23:15:00	0.2197	4.429		0.533520011	0.644737063	0.009807879	0.101186077	0.031186532
2019-11-29T23:20:00	0.2195	4.421		0.532951304	0.643935159	0.009788718	0.100988395	0.031125604
2019-11-29T23:25:00	0.2197	4.413		0.533743030	0.645051603	0.009815398	0.101263651	0.031210441
2019-11-29T23:30:00	0.2197	4.401		0.533514464	0.644729241	0.009807692	0.101184148	0.031185937
2019-11-29T23:35:00	0.2195	4.389		0.532945756	0.643927338	0.009788531	0.100986468	0.031125010
2019-11-29T23:40:00	0.2198	4.375		0.534077533	0.645523452	0.009826681	0.101380060	0.031246319
2019-11-29T23:45:00	0.2200	4.363		0.534529030	0.646160478	0.009841922	0.101537290	0.031294779
2019-11-29T23:50:00	0.2200	4.345		0.534640509	0.646317791	0.009845686	0.101576130	0.031306750
2019-11-29T23:55:00	0.2202	4.326		0.535431848	0.647434780	0.009872432	0.101852057	0.031391793
2019-11-30T00:00:00	0.2203	4.308		0.535543298	0.647592134	0.009876201	0.101890948	0.031403780
2019-11-30T00:05:00	0.2204	4.288		0.535994604	0.648229429	0.009891474	0.102048510	0.031452342
2019-11-30T00:10:00	0.2199	4.268		0.534406457	0.645987521	0.009837783	0.101494593	0.031281619
2019-11-30T00:15:00	0.2200	4.248		0.534857911	0.646624608	0.009853030	0.101651897	0.031330102
2019-11-30T00:20:00	0.2202	4.231		0.535309307	0.647261777	0.009868288	0.101809304	0.031378616
2019-11-30T00:25:00	0.2205	4.213		0.536440309	0.648858979	0.009906568	0.102204237	0.031500338
2019-11-30T00:30:00	0.2219	4.196		0.541305494	0.655741504	0.010072090	0.103911897	0.032026656
2019-11-30T00:35:00	0.2221	4.178		0.541756049	0.656379859	0.010087489	0.104070763	0.032075620
2019-11-30T00:40:00	0.2228	4.160		0.544241347	0.659904063	0.010172643	0.104949282	0.032346388
2019-11-30T00:45:00	0.2233	4.142		0.546047216	0.662467993	0.010234745	0.105589973	0.032543855
2019-11-30T00:50:00	0.2231	4.122		0.545141635	0.661181937	0.010203579	0.105268442	0.032444756
2019-11-30T00:55:00	0.2231	4.101		0.545252773	0.661339732	0.010207401	0.105307875	0.032456910
2019-11-30T01:00:00	0.2233	4.082		0.546041689	0.662460142	0.010234554	0.105588009	0.032543250
2019-11-30T01:05:00	0.2232	4.061		0.545475037	0.661655338	0.010215047	0.105386760	0.032481223
2019-11-30T01:10:00	0.2233	4.042		0.545925050	0.662294460	0.010230537	0.105546568	0.032530477
2019-11-30T01:15:00	0.2238	4.020		0.547730042	0.664859635	0.010292787	0.106188785	0.032728415
2019-11-30T01:20:00	0.2235	3.999		0.546486103	0.663091517	0.010249866	0.105745980	0.032591938
2019-11-30T01:25:00	0.2226	3.977		0.543546620	0.658918417	0.010148803	0.104703329	0.032270583
2019-11-30T01:30:00	0.2223	3.955		0.542640386	0.657633288	0.010117748	0.104382936	0.032171835
2019-11-30T01:35:00	0.2215	3.935		0.539697637	0.653464813	0.010017235	0.103345966	0.031852231
2019-11-30T01:40:00	0.2216	3.913		0.540148401	0.654102873	0.010032598	0.103504468	0.031901082
2019-11-30T01:45:00	0.2205	3.892		0.536524017	0.648977232	0.009909404	0.102233497	0.031509357
2019-11-30T01:50:00	0.2200	3.869		0.534596149	0.646255191	0.009844188	0.101560674	0.031301986
2019-11-30T01:55:00	0.2210	3.849		0.538105652	0.651212677	0.009963070	0.102787159	0.031680001
2019-11-30T02:00:00	0.2229	3.824		0.544663876	0.660503720	0.010187156	0.105099011	0.032392536
2019-11-30T02:05:00	0.2237	3.802		0.547147091	0.664030878	0.010272662	0.105981156	0.032664421
2019-11-30T02:10:00	0.2240	3.784		0.548274234	0.665633539	0.010311592	0.106382796	0.032788211
2019-11-30T02:15:00	0.2244	3.765		0.549739524	0.667718561	0.010362314	0.106906079	0.032949492
2019-11-30T02:20:00	0.2237	3.744		0.547141566	0.664023025	0.010272471	0.105979189	0.032663815
2019-11-30T02:25:00	0.2233	3.727		0.545897415	0.662255208	0.010229586	0.105536751	0.032527452
2019-11-30T02:30:00	0.2228	3.713		0.544313807	0.660006889	0.010175131	0.104974951	0.032354299
2019-11-30T02:35:00	0.2220	3.701		0.541372481	0.655836402	0.010074379	0.103935509	0.032033933
2019-11-30T02:40:00	0.2216	3.696		0.540126257	0.654071523	0.010031843	0.103496679	0.031898682
2019-11-30T02:45:00	0.2210	3.689		0.538200397	0.651346653	0.009966290	0.102820373	0.031690237
2019-11-30T02:50:00	0.2217	3.684		0.540348850	0.654386662	0.010039434	0.103574991	0.031922818
2019-11-30T02:55:00	0.2216	3.682		0.540120721	0.654063685	0.010031655	0.103494731	0.031898081
2019-11-30T03:00:00	0.2213	3.680		0.539213589	0.652779825	0.010000750	0.103175897	0.031799814
2019-11-30T03:05:00	0.2214	3.676		0.539324917	0.652937351	0.010004540	0.103214999	0.031811865
2019-11-30T03:10:00	0.2208	3.671		0.537398611	0.650213110	0.009939062	0.102539468	0.031603660
2019-11-30T03:15:00	0.2216	3.669		0.540226483	0.654213415	0.010035261	0.103531937	0.031909548
2019-11-30T03:20:00	0.2219	3.669		0.541016545	0.655332203	0.010062221	0.103810079	0.031995274
2019-11-30T03:25:00	0.2219	3.669		0.541127815	0.655489811	0.010066021	0.103849281	0.032007357
2019-11-30T03:30:00	0.2201	3.667		0.535125776	0.647002693	0.009862083	0.101745290	0.031358887
2019-11-30T03:35:00	0.2212	3.664		0.538634741	0.651960935	0.009981055	0.102972706	0.031737188
2019-11-30T03:40:00	0.2211	3.665		0.538406498	0.651638117	0.009973295	0.102892642	0.031712512
2019-11-30T03:45:00	0.2206	3.666		0.536819459	0.649394649	0.009919418	0.102336804	0.031541197
2019-11-30T03:50:00	0.2202	3.667		0.535231691	0.647152207	0.009865663	0.101782230	0.031370272
2019-11-30T03:55:00	0.2200	3.667		0.534663266	0.646349907	0.009846455	0.101584060	0.031309194
2019-11-30T04:00:00	0.2198	3.667		0.534094748	0.645547738	0.009827262	0.101386052	0.031248166
2019-11-30T04:05:00	0.2204	3.666		0.536095335	0.648371696	0.009894884	0.102083694	0.031463186
2019-11-30T04:10:00	0.2197	3.667		0.533676665	0.644958000	0.009813160	0.101240564	0.031203325
2019-11-30T04:15:00	0.2198	3.667		0.533977705	0.645382626	0.009823313	0.101345312	0.031235609
2019-11-30T04:20:00	0.2204	3.669		0.535978360	0.648206489	0.009890924	0.102042837	0.031450593
2019-11-30T04:25:00	0.2203	3.672		0.535599503	0.647671492	0.009878103	0.101910564	0.031409825
2019-11-30T04:30:00	0.2201	3.674		0.534880667	0.646656725	0.009853799	0.101659830	0.031332547
2019-11-30T04:35:00	0.2204	3.676		0.536201221	0.648521252	0.009898470	0.102120686	0.031474587
2019-11-30T04:40:00	0.2196	3.678		0.533442548	0.644627821	0.009805268	0.101159139	0.031178229
2019-11-30T04:45:00	0.2202	3.679		0.535443513	0.647451249	0.009872826	0.101856127	0.031393048
2019-11-30T04:50:00	0.2202	3.680		0.535404515	0.647396189	0.009871507	0.101842520	0.031388854
2019-11-30T04:55:00	0.2206	3.681		0.536724868	0.649260998	0.009916211	0.102303723	0.031531001
2019-11-30T05:00:00	0.2206	3.682		0.536685884	0.649205918	0.009914890	0.102290091	0.031526799
2019-11-30T05:05:00	0.2210	3.683		0.538005748	0.651071415	0.009959676	0.102752142	0.031669208
2019-11-30T05:10:00	0.2214	3.683		0.539325109	0.652937623	0.010004547	0.103215067	0.031811886
2019-11-30T05:15:00	0.2222	3.683		0.542001247	0.656727330	0.010095874	0.104157271	0.032102282
2019-11-30T05:20:00	0.2224	3.685		0.542979944	0.658114736	0.010129378	0.104502927	0.032208817
2019-11-30T05:25:00	0.2215	3.687		0.539887231	0.653733165	0.010023695	0.103412618	0.031872773
2019-11-30T05:30:00	0.2222	3.689		0.542223720	0.657042640	0.010103485	0.104235793	0.032126484
2019-11-30T05:35:00	0.2219	3.688		0.541166941	0.655545233	0.010067357	0.103863068	0.032011606
2019-11-30T05:40:00	0.2223	3.689		0.542485098	0.657413141	0.010112431	0.104328085	0.032154929
2019-11-30T05:45:00	0.2216	3.689		0.540070894	0.653993149	0.010029956	0.103477206	0.031892680
2019-11-30T05:50:00	0.2221	3.689		0.541728765	0.656341198	0.010086556	0.104061139	0.032072654
2019-11-30T05:55:00	0.2226	3.689		0.543385842	0.658690368	0.010143290	0.104646451	0.032253053
2019-11-30T06:00:00	0.2223	3.689		0.542668623	0.657673321	0.010118714	0.104392912	0.032174909
2019-11-30T06:05:00	0.2221	3.687		0.541951255	0.656656483	0.010094164	0.104139631	0.032096846
2019-11-30T06:10:00	0.2222	3.683		0.542251576	0.657082123	0.010104438	0.104245627	0.032129515
2019-11-30T06:15:00	0.2220	3.677		0.541534122	0.656065408	0.010079903	0.103992496	0.032051497
2019-11-30T06:20:00	0.2224	3.673		0.542852138	0.657933514	0.010125000	0.104457755	0.032194895
2019-11-30T06:25:00	0.2220	3.673		0.541456262	0.655955096	0.010077242	0.103965044	0.032043036
2019-11-30T06:30:00	0.2223	3.672		0.542435113	0.657342285	0.010110720	0.104310432	0.032149488
2019-11-30T06:35:00	0.2218	3.668		0.540699704	0.654883470	0.010051405	0.103698489	0.031960881
2019-11-30T06:40:00	0.2217	3.663		0.540321363	0.654347745	0.010038497	0.103565319	0.031919837
2019-11-30T06:45:00	0.2218	3.656		0.540961197	0.655253809	0.010060331	0.103790581	0.031989265
2019-11-30T06:50:00	0.2229	3.648		0.544653202	0.660488570	0.010186789	0.105095227	0.032391370
2019-11-30T06:55:00	0.2231	3.641		0.545292236	0.661395766	0.010208758	0.105321879	0.032461226
2019-11-30T07:00:00	0.2232	3.633		0.545592267	0.661821816	0.010219081	0.105428379	0.032494050
2019-11-30T07:05:00	0.2236	3.623		0.546908741	0.663692108	0.010264439	0.105896322	0.032638275
2019-11-30T07:10:00	0.2240	3.614		0.548224716	0.665563109	0.010309880	0.106365135	0.032782768
2019-11-30T07:15:00	0.2239	3.605		0.547847196	0.665026221	0.010296834	0.106230537	0.032741283
2019-11-30T07:20:00	0.2242	3.595		0.548824245	0.666415967	0.010330616	0.106579063	0.032848702
2019-11-30T07:25:00	0.2243	3.586		0.549123971	0.666842451	0.010340991	0.106686095	0.032881691
2019-11-30T07:30:00	0.2241	3.579		0.548746549	0.666305423	0.010327928	0.106551327	0.032840154
2019-11-30T07:35:00	0.2244	3.571		0.549723345	0.667695530	0.010361753	0.106900294	0.032947709
2019-11-30T07:40:00	0.2248	3.565		0.551038254	0.669568050	0.010407375	0.107370968	0.033092775
2019-11-30T07:45:00	0.2252	3.565		0.552352665	0.671441279	0.010453081	0.107842510	0.033238109
2019-11-30T07:50:00	0.2247	3.574		0.550622212	0.668975424	0.010392929	0.107221932	0.033046841
2019-11-30T07:55:00	0.2251	3.581		0.551936780	0.670848429	0.010438608	0.107693199	0.033192090
2019-11-30T08:00:00	0.2258	3.589		0.554265170	0.674169415	0.010519766	0.108530487	0.033450150
2019-11-30T08:05:00	0.2254	3.594		0.552873877	0.672184477	0.010471233	0.108029783	0.033295828
2019-11-30T08:10:00	0.2248	3.592		0.550805307	0.669236214	0.010399285	0.107287508	0.033067052
2019-11-30T08:15:00	0.2248	3.589		0.551104862	0.669662942	0.010409689	0.107394838	0.033100132
2019-11-30T08:20:00	0.2251	3.593		0.552080995	0.671053994	0.010443626	0.107744963	0.033208044
2019-11-30T08:25:00	0.2255	3.604		0.553395012	0.672927786	0.010489399	0.108217194	0.033353590
2019-11-30T08:30:00	0.2256	3.608		0.553694343	0.673354833	0.010499840	0.108324914	0.033386790
2019-11-30T08:35:00	0.2260	3.616		0.555007751	0.675229497	0.010545716	0.108798210	0.033532665
2019-11-30T08:40:00	0.2266	3.633		0.556996312	0.678070525	0.010615368	0.109516795	0.033754140
2019-11-30T08:45:00	0.2267	3.646		0.557295334	0.678498015	0.010625862	0.109625057	0.033787507
2019-11-30T08:50:00	0.2263	3.655		0.555905253	0.676511342	0.010577124	0.109122233	0.033632532
2019-11-30T08:55:00	0.2264	3.666		0.556542220	0.677421485	0.010599442	0.109352493	0.033703500
2019-11-30T09:00:00	0.2265	3.685		0.556841281	0.677848919	0.010609930	0.109460687	0.033736847
2019-11-30T09:05:00	0.2266	3.692		0.557140317	0.678276390	0.010620421	0.109568926	0.033770207
2019-11-30T09:10:00	0.2275	3.708		0.560140268	0.682568889	0.010725964	0.110657792	0.034105806
2019-11-30T09:15:00	0.2268	3.733		0.557738310	0.679131442	0.010641417	0.109785538	0.033836969
2019-11-30T09:20:00	0.2262	3.762		0.555672632	0.676179041	0.010568979	0.109038204	0.033606633
2019-11-30T09:25:00	0.2268	3.793		0.557660813	0.679020614	0.010638695	0.109757454	0.033828313
2019-11-30T09:30:00	0.2268	3.819		0.557622063	0.678965201	0.010637334	0.109743412	0.033823986
2019-11-30T09:35:00	0.2277	3.851		0.560621600	0.683258296	0.010742947	0.110833005	0.034159809
2019-11-30T09:40:00	0.2274	3.881		0.559907930	0.682236182	0.010717771	0.110573266	0.034079755
2019-11-30T09:45:00	0.2273	3.896		0.559531676	0.681697482	0.010704510	0.110436454	0.034037588
2019-11-30T09:50:00	0.2273	3.896		0.559492947	0.681642039	0.010703145	0.110422377	0.034033249
2019-11-30T09:55:00	0.2265	3.904		0.556752744	0.677722369	0.010606824	0.109428651	0.033726973
2019-11-30T10:00:00	0.2258	3.915		0.554348448	0.674288278	0.010522675	0.108560494	0.033459399
2019-11-30T10:05:00	0.2255	3.915		0.553340206	0.672849604	0.010487488	0.108197476	0.033347513
2019-11-30T10:10:00	0.2251	3.918		0.551993409	0.670929147	0.010440578	0.107713523	0.033198354
2019-11-30T10:15:00	0.2259	3.930		0.554704627	0.674796714	0.010535119	0.108688884	0.033498970
2019-11-30T10:20:00	0.2258	3.945		0.554372646	0.674322817	0.010523520	0.108569215	0.033462086
2019-11-30T10:25:00	0.2260	3.976		0.555054722	0.675296566	0.010547359	0.108815156	0.033537888
2019-11-30T10:30:00	0.2262	3.996		0.555736663	0.676270506	0.010571220	0.109061331	0.033613761
2019-11-30T10:35:00	0.2254	4.016		0.553038354	0.672419051	0.010476965	0.108088914	0.033314053
2019-11-30T10:40:00	0.2256	4.042		0.553720691	0.673392425	0.010500759	0.108334398	0.033389714
2019-11-30T10:45:00	0.2247	4.067		0.550682427	0.669061188	0.010395019	0.107243496	0.033053487
2019-11-30T10:50:00	0.2245	4.078		0.550011607	0.668105913	0.010371746	0.107003389	0.032979484
2019-11-30T10:55:00	0.2243	4.082		0.549340658	0.667150824	0.010348494	0.106763508	0.032905550
2019-11-30T11:00:00	0.2237	4.083		0.547314908	0.664269428	0.010278453	0.106040906	0.032682837
2019-11-30T11:05:00	0.2235	4.092		0.546643437	0.663315081	0.010255290	0.105801935	0.032609184
2019-11-30T11:10:00	0.2231	4.115		0.545294040	0.661398327	0.010208821	0.105322519	0.032461423
2019-11-30T11:15:00	0.2232	4.142		0.545639020	0.661888212	0.010220690	0.105444979	0.032499167
2019-11-30T11:20:00	0.2226	4.164		0.543611106	0.659009890	0.010151015	0.104726147	0.032277616
2019-11-30T11:25:00	0.2224	4.185		0.542938918	0.658056561	0.010127973	0.104488425	0.032204347
2019-11-30T11:30:00	0.2231	4.205		0.545318302	0.661432776	0.010209655	0.105331129	0.032464077
2019-11-30T11:35:00	0.2231	4.225		0.545324367	0.661441389	0.010209864	0.105333282	0.032464740
2019-11-30T11:40:00	0.2237	4.247		0.547363403	0.664338366	0.010280127	0.106058175	0.032688160
2019-11-30T11:45:00	0.2241	4.268		0.548724114	0.666273505	0.010327152	0.106543318	0.032837685
2019-11-30T11:50:00	0.2238	4.283		0.547714237	0.664837162	0.010292241	0.106183153	0.032726679
2019-11-30T11:55:00	0.2235	4.295		0.546704067	0.663401237	0.010257380	0.105823501	0.032615831
2019-11-30T12:00:00	0.2231	4.318		0.545354694	0.661484450	0.010210907	0.105344045	0.032468058
2019-11-30T12:05:00	0.2227	4.342		0.544004795	0.659568409	0.010164522	0.104865503	0.032320566
2019-11-30T12:10:00	0.2228	4.363		0.544349903	0.660058112	0.010176371	0.104987739	0.032358241
2019-11-30T12:15:00	0.2223	4.373		0.542660440	0.657661719	0.010118434	0.104390021	0.032174018
2019-11-30T12:20:00	0.2229	4.373		0.544701042	0.660556474	0.010188433	0.105112186	0.032396597
2019-11-30T12:25:00	0.2233	4.378		0.545723926	0.662008797	0.010223613	0.105475130	0.032508459
2019-11-30T12:30:00	0.2234	4.386		0.546068862	0.662498742	0.010235490	0.105597664	0.032546226
2019-11-30T12:35:00	0.2236	4.404		0.546752570	0.663470163	0.010259053	0.105840755	0.032621149
2019-11-30T12:40:00	0.2233	4.423		0.545742119	0.662034636	0.010224239	0.105481591	0.032510451
2019-11-30T12:45:00	0.2236	4.444		0.546764696	0.663487395	0.010259471	0.105845069	0.032622478
2019-11-30T12:50:00	0.2240	4.464		0.548125642	0.665422199	0.010306456	0.106329803	0.032771878
2019-11-30T12:55:00	0.2244	4.481		0.549486054	0.667357762	0.010353531	0.106815467	0.032921564
2019-11-30T13:00:00	0.2248	4.495		0.550845934	0.669294085	0.010400696	0.107302061	0.033071537
2019-11-30T13:05:00	0.2244	4.506		0.549498170	0.667375008	0.010353950	0.106819798	0.032922899
2019-11-30T13:10:00	0.2247	4.518		0.550519640	0.668829339	0.010389369	0.107185204	0.033035521
2019-11-30T13:15:00	0.2244	4.526		0.549510286	0.667392253	0.010354370	0.106824128	0.032924234
2019-11-30T13:20:00	0.2247	4.534		0.550531753	0.668846590	0.010389789	0.107189541	0.033036858
2019-11-30T13:25:00	0.2243	4.540		0.549183867	0.666927687	0.010343065	0.106707490	0.032888285
2019-11-30T13:30:00	0.2238	4.546		0.547496759	0.664527952	0.010284731	0.106105672	0.032702799
2019-11-30T13:35:00	0.2241	4.549		0.548518818	0.665981445	0.010320050	0.106470051	0.032815104
2019-11-30T13:40:00	0.2246	4.554		0.550217543	0.668399136	0.010378888	0.107077070	0.033002193
2019-11-30T13:45:00	0.2242	4.562		0.548869536	0.666480406	0.010332184	0.106595233	0.032853686
2019-11-30T13:50:00	0.2246	4.570		0.550229657	0.668416385	0.010379308	0.107081405	0.033003529
2019-11-30T13:55:00	0.2248	4.575		0.550912546	0.669388972	0.010403009	0.107325925	0.033078892
2019-11-30T14:00:00	0.2246	4.578		0.550241770	0.668433634	0.010379728	0.107085740	0.033004865
2019-11-30T14:05:00	0.2248	4.578		0.550924657	0.669406224	0.010403429	0.107330264	0.033080230
2019-11-30T14:10:00	0.2245	4.578		0.549915420	0.667968970	0.010368411	0.106968983	0.032968879
2019-11-30T14:15:00	0.2248	4.581		0.550936768	0.669423476	0.010403850	0.107334603	0.033081567
2019-11-30T14:20:00	0.2246	4.585		0.550265997	0.668468132	0.010380568	0.107094410	0.033007537
2019-11-30T14:25:00	0.2257	4.588		0.553992960	0.673780932	0.010510262	0.108432430	0.033419928
2019-11-30T14:30:00	0.2257	4.591		0.553999010	0.673789566	0.010510473	0.108434609	0.033420600
2019-11-30T14:35:00	0.2255	4.591		0.553328831	0.672833378	0.010487091	0.108193384	0.033346252
2019-11-30T14:40:00	0.2256	4.591		0.553673013	0.673324398	0.010499096	0.108317236	0.033384424
2019-11-30T14:45:00	0.2248	4.591		0.550973101	0.669475234	0.010405112	0.107347621	0.033085579
2019-11-30T14:50:00	0.2254	4.590		0.553008822	0.672376931	0.010475936	0.108078296	0.033310781
2019-11-30T14:55:00	0.2251	4.591		0.552000191	0.670938813	0.010440814	0.107715958	0.033199104
2019-11-30T15:00:00	0.2257	4.591		0.554035311	0.673841369	0.010511740	0.108447683	0.033424629
2019-11-30T15:05:00	0.2256	4.593		0.553703266	0.673367564	0.010500151	0.108328126	0.033387780
2019-11-30T15:10:00	0.2263	4.592		0.556075288	0.676754268	0.010583079	0.109183676	0.033651469
2019-11-30T15:15:00	0.2268	4.590		0.557770327	0.679177229	0.010642542	0.109797141	0.033840545
2019-11-30T15:20:00	0.2276	4.579		0.560477050	0.683051240	0.010737845	0.110780372	0.034143587
2019-11-30T15:25:00	0.2277	4.569		0.560820527	0.683543273	0.010749970	0.110905460	0.034182140
2019-11-30T15:30:00	0.2274	4.565		0.559814157	0.682101912	0.010714465	0.110539161	0.034069243
2019-11-30T15:35:00	0.2268	4.563		0.557794501	0.679211802	0.010643391	0.109805903	0.033843246
2019-11-30T15:40:00	0.2272	4.560		0.559151137	0.681152766	0.010691106	0.110298171	0.033994968
2019-11-30T15:45:00	0.2271	4.557		0.558819580	0.680678261	0.010679435	0.110177759	0.033957855
2019-11-30T15:50:00	0.2265	4.556		0.556799347	0.677788980	0.010608459	0.109445513	0.033732170
2019-11-30T15:55:00	0.2264	4.555		0.556467566	0.677314797	0.010596825	0.109325493	0.033695179
2019-11-30T16:00:00	0.2267	4.554		0.557486991	0.678772053	0.010632590	0.109694476	0.033808903
2019-11-30T16:05:00	0.2273	4.552		0.559417285	0.681533727	0.010700480	0.110394877	0.034024773
2019-11-30T16:10:00	0.2273	4.551		0.559321702	0.681396904	0.010697113	0.110360141	0.034014067
2019-11-30T16:15:00	0.2269	4.549		0.558213243	0.679810742	0.010658107	0.109957728	0.033890040
2019-11-30T16:20:00	0.2271	4.547		0.558792927	0.680640121	0.010678497	0.110168083	0.033954873
2019-11-30T16:25:00	0.2276	4.545		0.560385051	0.682919466	0.010734599	0.110746880	0.034133264
2019-11-30T16:30:00	0.2277	4.544		0.560626950	0.683265961	0.010743136	0.110834954	0.034160409
2019-11-30T16:35:00	0.2271	4.542		0.558843747	0.680712845	0.010680285	0.110186534	0.033960560
2019-11-30T16:40:00	0.2263	4.536		0.556046126	0.676712604	0.010582058	0.109173137	0.033648221
2019-11-30T16:45:00	0.2263	4.526		0.555950451	0.676575913	0.010578706	0.109138564	0.033637565
2019-11-30T16:50:00	0.2258	4.513		0.554502900	0.674508741	0.010528070	0.108616159	0.033476555
2019-11-30T16:55:00	0.2256	4.502		0.553731030	0.673407178	0.010501120	0.108338120	0.033390861
2019-11-30T17:00:00	0.2256	4.496		0.553635291	0.673270579	0.010497780	0.108303658	0.033380239
2019-11-30T17:05:00	0.2252	4.487		0.552186777	0.671204786	0.010447307	0.107782940	0.033219749
2019-11-30T17:10:00	0.2248	4.480		0.551076042	0.669621884	0.010408687	0.107384509	0.033096949
2019-11-30T17:15:00	0.2259	4.472		0.554700378	0.674790647	0.010534971	0.108687352	0.033498497
2019-11-30T17:20:00	0.2262	4.459		0.555618589	0.676101846	0.010567087	0.109018686	0.033600618
2019-11-30T17:25:00	0.2251	4.448		0.552141913	0.671140831	0.010445746	0.107766832	0.033214784
2019-11-30T17:30:00	0.2249	4.437		0.551369518	0.670040017	0.010418884	0.107489709	0.033129372
2019-11-30T17:35:00	0.2245	4.431		0.549920059	0.667975574	0.010368572	0.106970642	0.032969391
2019-11-30T17:40:00	0.2250	4.426		0.551516247	0.670249097	0.010423984	0.107542326	0.033145589
2019-11-30T17:45:00	0.2253	4.423		0.552773518	0.672041357	0.010467737	0.107993711	0.033284710
2019-11-30T17:50:00	0.2254	4.419		0.553015946	0.672387092	0.010476184	0.108080858	0.033311570
2019-11-30T17:55:00	0.2258	4.413		0.554272675	0.674180127	0.010520028	0.108533191	0.033450983
2019-11-30T18:00:00	0.2259	4.403		0.554853015	0.675008564	0.010540306	0.108742395	0.033515462
2019-11-30T18:05:00	0.2262	4.393		0.555771186	0.676319821	0.010572429	0.109073800	0.033617605
2019-11-30T18:10:00	0.2263	4.389		0.556013406	0.676665855	0.010580911	0.109161313	0.033644577
2019-11-30T18:15:00	0.2262	4.383		0.555579816	0.676046466	0.010565730	0.109004685	0.033596303
2019-11-30T18:20:00	0.2264	4.372		0.556497795	0.677357997	0.010597885	0.109336426	0.033698548
2019-11-30T18:25:00	0.2263	4.359		0.556064266	0.676738521	0.010582693	0.109179693	0.033650242
2019-11-30T18:30:00	0.2268	4.339		0.557657638	0.679016073	0.010638583	0.109756303	0.033827959
2019-11-30T18:35:00	0.2273	4.318		0.559587837	0.681777884	0.010706489	0.110456870	0.034043880
2019-11-30T18:40:00	0.2281	4.297		0.562191610	0.685508333	0.010798438	0.111405498	0.034336256
2019-11-30T18:45:00	0.2284	4.282		0.563107849	0.686822366	0.010830889	0.111740290	0.034439443
2019-11-30T18:50:00	0.2286	4.274		0.563686720	0.687652916	0.010851417	0.111952072	0.034504716
2019-11-30T18:55:00	0.2297	4.268		0.567634749	0.693324827	0.010991949	0.113401913	0.034951571
2019-11-30T19:00:00	0.2302	4.261		0.569222847	0.695609987	0.011048738	0.113987791	0.035132144
2019-11-30T19:05:00	0.2302	4.256		0.569127532	0.695472776	0.011045325	0.113952584	0.035121293
2019-11-30T19:10:00	0.2303	4.251		0.569368826	0.695820145	0.011053965	0.114041722	0.035148766
2019-11-30T19:15:00	0.2306	4.247		0.570619677	0.697621650	0.011098810	0.114504378	0.035291361
2019-11-30T19:20:00	0.2304	4.247		0.569851365	0.696514956	0.011071254	0.114220087	0.035203740
2019-11-30T19:25:00	0.2300	4.246		0.568409573	0.694439483	0.011019637	0.113687567	0.035039612
2019-11-30T19:30:00	0.2297	4.242		0.567640776	0.693333494	0.010992164	0.113404133	0.034952255
2019-11-30T19:35:00	0.2301	4.237		0.568892245	0.695134102	0.011036903	0.113865699	0.035094514
2019-11-30T19:40:00	0.2299	4.231		0.568123554	0.694027960	0.011009412	0.113582078	0.035007099
2019-11-30T19:45:00	0.2304	4.224		0.569711429	0.696313441	0.011066239	0.114168347	0.035187793
2019-11-30T19:50:00	0.2300	4.220		0.568606265	0.694722521	0.011026672	0.113760140	0.035061980
2019-11-30T19:55:00	0.2297	4.220		0.567500751	0.693132108	0.010987164	0.113352549	0.034936356
2019-11-30T20:00:00	0.2297	4.220		0.567405389	0.692994965	0.010983760	0.113317425	0.034925531
2019-11-30T20:05:00	0.2298	4.218		0.567983548	0.693826545	0.011004409	0.113530459	0.034991190
2019-11-30T20:10:00	0.2298	4.217		0.567888199	0.693689383	0.011001002	0.113495312	0.034980357
2019-11-30T20:15:00	0.2312	4.216		0.572504142	0.700338145	0.011166546	0.115203193	0.035506743
2019-11-30T20:20:00	0.2306	4.214		0.570390512	0.697291505	0.011090587	0.114419545	0.035265215
2019-11-30T20:25:00	0.2311	4.213		0.572313688	0.700063468	0.011159690	0.115132468	0.035484945
2019-11-30T20:30:00	0.2307	4.212		0.570872911	0.697986521	0.011107900	0.114598158	0.035320265
2019-11-30T20:35:00	0.2306	4.212		0.570441164	0.697364472	0.011092404	0.114438292	0.035270993
2019-11-30T20:40:00	0.2297	4.212		0.567652829	0.693350830	0.010992595	0.113408574	0.034953624
2019-11-30T20:45:00	0.2293	4.212		0.566210130	0.691276672	0.010941133	0.112877653	0.034789989
2019-11-30T20:50:00	0.2293	4.210		0.566114732	0.691139581	0.010937735	0.112842591	0.034779182
2019-11-30T20:55:00	0.2290	4.211		0.565008430	0.689550309	0.010898362	0.112436389	0.034653987
2019-11-30T21:00:00	0.2294	4.207		0.566597721	0.691833740	0.010954947	0.113020164	0.034833912
2019-11-30T21:05:00	0.2300	4.174		0.568522983	0.694602675	0.011023693	0.113729409	0.035052508
2019-11-30T21:10:00	0.2293	4.135		0.566070047	0.691075368	0.010936143	0.112826169	0.034774121
2019-11-30T21:15:00	0.2289	4.119		0.564963731	0.689486117	0.010896772	0.112419992	0.034648933
2019-11-30T21:20:00	0.2292	4.112		0.565879243	0.690801200	0.010929347	0.112756063	0.034752514
2019-11-30T21:25:00	0.2299	4.106		0.568141631	0.694053967	0.011010058	0.113588743	0.035009154
2019-11-30T21:30:00	0.2299	4.100		0.568046286	0.693916799	0.011006651	0.113553589	0.034998319
2019-11-30T21:35:00	0.2293	4.100		0.566266871	0.691358216	0.010943155	0.112898510	0.034796417
2019-11-30T21:40:00	0.2294	4.101		0.566508363	0.691705299	0.010951761	0.112987300	0.034823783
2019-11-30T21:45:00	0.2302	4.105		0.569106981	0.695443194	0.011044589	0.113944994	0.035118954
2019-11-30T21:50:00	0.2305	4.110		0.570357926	0.697244563	0.011089418	0.114407484	0.035261498
2019-11-30T21:55:00	0.2304	4.115		0.569926115	0.696622606	0.011073933	0.114247730	0.035212260
2019-11-30T22:00:00	0.2305	4.117		0.570167355	0.696970056	0.011082583	0.114336966	0.035239763
2019-11-30T22:05:00	0.2307	4.118		0.570932587	0.698072512	0.011110043	0.114620264	0.035327078
2019-11-30T22:10:00	0.2305	4.117		0.570351904	0.697235888	0.011089202	0.114405256	0.035260811
2019-11-30T22:15:00	0.2305	4.115		0.570107666	0.696884083	0.011080443	0.114314883	0.035232957
2019-11-30T22:20:00	0.2306	4.117		0.570536443	0.697501734	0.011095823	0.114473562	0.035281864
2019-11-30T22:25:00	0.2304	4.117		0.569955695	0.696665206	0.011074994	0.114258670	0.035215632
2019-11-30T22:30:00	0.2298	4.119		0.567691467	0.693406404	0.010993975	0.113422811	0.034958012
2019-11-30T22:35:00	0.2297	4.119		0.567447044	0.693054869	0.010985247	0.113332766	0.034930259
2019-11-30T22:40:00	0.2296	4.116		0.567202603	0.692703358	0.010976522	0.113242752	0.034902516
2019-11-30T22:45:00	0.2303	4.112		0.569651732	0.696227480	0.011064100	0.114146278	0.035180991
2019-11-30T22:50:00	0.2304	4.108		0.569744022	0.696360375	0.011067407	0.114180397	0.035191507
2019-11-30T22:55:00	0.2308	4.108		0.571182254	0.698432308	0.011119009	0.114712771	0.035355590
2019-11-30T23:00:00	0.2311	4.109		0.572283596	0.700020070	0.011158607	0.115121296	0.035481501
2019-11-30T23:05:00	0.2307	4.110		0.571030329	0.698213363	0.011113553	0.114656475	0.035338239
2019-11-30T23:10:00	0.2306	4.110		0.570449663	0.697376716	0.011092709	0.114441438	0.035271963
2019-11-30T23:15:00	0.2313	4.107		0.572896521	0.700904136	0.011180676	0.115348971	0.035551673
2019-11-30T23:20:00	0.2311	4.104		0.572316164	0.700067039	0.011159779	0.115133388	0.035485228
2019-11-30T23:25:00	0.2302	4.100		0.569043729	0.695352144	0.011042325	0.113921634	0.035111754
2019-11-30T23:30:00	0.2296	4.095		0.567115740	0.692578460	0.010973422	0.113210774	0.034892660
2019-11-30T23:35:00	0.2294	4.091		0.566534423	0.691742756	0.010952690	0.112996884	0.034826737
2019-11-30T23:40:00	0.2294	4.083		0.566626794	0.691875531	0.010955983	0.113030857	0.034837208
2019-11-30T23:45:00	0.2292	4.075		0.565708464	0.690555833	0.010923267	0.112693334	0.034733180
2019-11-30T23:50:00	0.2296	4.068		0.567148356	0.692625358	0.010974586	0.113222781	0.034896361
2019-11-30T23:55:00	0.2302	4.061		0.569260934	0.695664817	0.011050102	0.114001860	0.035136481
2019-12-01T00:00:00	0.2294	4.057		0.566659416	0.691922423	0.010957146	0.113042857	0.034840906
2019-12-01T00:05:00	0.2290	4.050		0.565067137	0.689634620	0.010900449	0.112457926	0.034660625
2019-12-01T00:10:00	0.2290	4.044		0.565159548	0.689767340	0.010903736	0.112491831	0.034671075
2019-12-01T00:15:00	0.2287	4.035		0.564240831	0.688448200	0.010871086	0.112154987	0.034567256
2019-12-01T00:20:00	0.2282	4.019		0.562310188	0.685678354	0.010802635	0.111448797	0.034349602
2019-12-01T00:25:00	0.2290	4.002		0.565099773	0.689681491	0.010901610	0.112469899	0.034664315
2019-12-01T00:30:00	0.2293	3.984		0.566203032	0.691266472	0.010940880	0.112875044	0.034789185
2019-12-01T00:35:00	0.2294	3.971		0.566632288	0.691883429	0.010956179	0.113032878	0.034837831
2019-12-01T00:40:00	0.2293	3.959		0.566050891	0.691047841	0.010935460	0.112819130	0.034771951
2019-12-01T00:45:00	0.2303	3.948		0.569510721	0.696024440	0.011059048	0.114094157	0.035164927
2019-12-01T00:50:00	0.2311	3.938		0.572294566	0.700035891	0.011159002	0.115125369	0.035482757
2019-12-01T00:55:00	0.2310	3.931		0.572050464	0.699683889	0.011150219	0.115034757	0.035454829
2019-12-01T01:00:00	0.2312	3.923		0.572479003	0.700301886	0.011165641	0.115193856	0.035503865
2019-12-01T01:05:00	0.2310	3.915		0.571898577	0.699464889	0.011144756	0.114978395	0.035437458
2019-12-01T01:10:00	0.2321	3.906		0.575688637	0.704935339	0.011281487	0.116389026	0.035872228
2019-12-01T01:15:00	0.2321	3.904		0.575444771	0.704582993	0.011272664	0.116297997	0.035844172
2019-12-01T01:20:00	0.2313	3.902		0.572847848	0.700833920	0.011178922	0.115330883	0.035546098
2019-12-01T01:25:00	0.2312	3.901		0.572603784	0.700481862	0.011170133	0.115240203	0.035518150
2019-12-01T01:30:00	0.2320	3.896		0.575385172	0.704496889	0.011270508	0.116275755	0.035837317
2019-12-01T01:35:00	0.2314	3.892		0.573124456	0.701232981	0.011188888	0.115433697	0.035577787
2019-12-01T01:40:00	0.2309	3.890		0.571535119	0.698940911	0.011131689	0.114843580	0.035395907
2019-12-01T01:45:00	0.2306	3.889		0.570618076	0.697619344	0.011098753	0.114503785	0.035291179
2019-12-01T01:50:00	0.2305	3.886		0.570037341	0.696782796	0.011077921	0.114288869	0.035224939
2019-12-01T01:55:00	0.2309	3.884		0.571475453	0.698854904	0.011129544	0.114821456	0.035389088
2019-12-01T02:00:00	0.2307	3.879		0.570894861	0.698018149	0.011108688	0.114606289	0.035322771
2019-12-01T02:05:00	0.2315	3.878		0.573677606	0.702031201	0.011208831	0.115639443	0.035641199
2019-12-01T02:10:00	0.2319	3.877		0.574778163	0.703620105	0.011248563	0.116049354	0.035767538
2019-12-01T02:15:00	0.2314	3.875		0.573189577	0.701326941	0.011191235	0.115457910	0.035585249
2019-12-01T02:20:00	0.2317	3.872		0.574290288	0.702915622	0.011230941	0.115867549	0.035711504
2019-12-01T02:25:00	0.2314	3.873		0.573373967	0.701593005	0.011197882	0.115526481	0.035606383
2019-12-01T02:30:00	0.2315	3.872		0.573466158	0.701726042	0.011201206	0.115560772	0.035616952
2019-12-01T02:35:00	0.2306	3.866		0.570531298	0.697494322	0.011095639	0.114471658	0.035281277
2019-12-01T02:40:00	0.2304	3.852		0.569950549	0.696657795	0.011074809	0.114256767	0.035215045
2019-12-01T02:45:00	0.2298	3.832		0.567686318	0.693398998	0.010993791	0.113420913	0.034957427
2019-12-01T02:50:00	0.2299	3.808		0.568115392	0.694016218	0.011009121	0.113579068	0.035006172
2019-12-01T02:55:00	0.2298	3.786		0.567870998	0.693664640	0.011000388	0.113488972	0.034978403
2019-12-01T03:00:00	0.2303	3.768		0.569646586	0.696220070	0.011063915	0.114144376	0.035180405
2019-12-01T03:05:00	0.2309	3.746		0.571421273	0.698776808	0.011127597	0.114801368	0.035382897
2019-12-01T03:10:00	0.2308	3.726		0.571177110	0.698424895	0.011118825	0.114710864	0.035355002
2019-12-01T03:15:00	0.2315	3.703		0.573623460	0.701953055	0.011206878	0.115619295	0.035634990
2019-12-01T03:20:00	0.2310	3.682		0.572034350	0.699660654	0.011149640	0.115028777	0.035452986
2019-12-01T03:25:00	0.2315	3.660		0.573471641	0.701733956	0.011201403	0.115562812	0.035617581
2019-12-01T03:30:00	0.2307	3.640		0.570873254	0.697987015	0.011107912	0.114598285	0.035320304
2019-12-01T03:35:00	0.2307	3.621		0.570965511	0.698119956	0.011111225	0.114632461	0.035330838
2019-12-01T03:40:00	0.2303	3.597		0.569375193	0.695829312	0.011054193	0.114044075	0.035149491
2019-12-01T03:45:00	0.2297	3.575		0.567447387	0.693055362	0.010985259	0.113332893	0.034930298
2019-12-01T03:50:00	0.2293	3.553		0.566192386	0.691251173	0.010940501	0.112871131	0.034787979
2019-12-01T03:55:00	0.2297	3.530		0.567632079	0.693320986	0.010991854	0.113400929	0.034951268
2019-12-01T04:00:00	0.2284	3.510		0.563006677	0.686677234	0.010827304	0.111703297	0.034428041
2019-12-01T04:05:00	0.2280	3.490		0.561893352	0.685080732	0.010787885	0.111296625	0.034302701
2019-12-01T04:10:00	0.2283	3.470		0.562803635	0.686385996	0.010820109	0.111629074	0.034405165
2019-12-01T04:15:00	0.2286	3.446		0.563713680	0.687691603	0.010852374	0.111961940	0.034507757
2019-12-01T04:20:00	0.2290	3.425		0.565297529	0.689965520	0.010908644	0.112542465	0.034686681
2019-12-01T04:25:00	0.2296	3.408		0.567217480	0.692724751	0.010977053	0.113248230	0.034904204
2019-12-01T04:30:00	0.2302	3.390		0.569136377	0.695485509	0.011045642	0.113955851	0.035122300
2019-12-01T04:35:00	0.2307	3.371		0.570717771	0.697762983	0.011102331	0.114540701	0.035302556
2019-12-01T04:40:00	0.2307	3.352		0.570952936	0.698101835	0.011110774	0.114627802	0.035329402
2019-12-01T04:45:00	0.2304	3.332		0.569842141	0.696501672	0.011070923	0.114216676	0.035202689
2019-12-01T04:50:00	0.2302	3.314		0.569067634	0.695386555	0.011043181	0.113930462	0.035114475
2019-12-01T04:55:00	0.2312	3.296		0.572667315	0.700573500	0.011172421	0.115263804	0.035525424
2019-12-01T05:00:00	0.2324	3.278		0.576599217	0.706251413	0.011314464	0.116729244	0.035977087
2019-12-01T05:05:00	0.2321	3.258		0.575490212	0.704648643	0.011274308	0.116314956	0.035849399
2019-12-01T05:10:00	0.2320	3.237		0.575389054	0.704502498	0.011270649	0.116277204	0.035837764
2019-12-01T05:15:00	0.2302	3.215		0.569234170	0.695626287	0.011049143	0.113991973	0.035133433
2019-12-01T05:20:00	0.2295	3.194		0.566775706	0.692089591	0.010961293	0.113085637	0.034854091
2019-12-01T05:25:00	0.2302	3.175		0.569031490	0.695334527	0.011041887	0.113917114	0.035110361
2019-12-01T05:30:00	0.2303	3.155		0.569603357	0.696157823	0.011062367	0.114128396	0.035175480
2019-12-01T05:35:00	0.2317	3.135		0.574211024	0.702801186	0.011228079	0.115838026	0.035702405
2019-12-01T05:40:00	0.2310	3.114		0.571756055	0.699259411	0.011139631	0.114925521	0.035421162
2019-12-01T05:45:00	0.2300	3.094		0.568626094	0.694751056	0.011027381	0.113767457	0.035064235
2019-12-01T05:50:00	0.2309	3.074		0.571553521	0.698967438	0.011132350	0.114850404	0.035398010
2019-12-01T05:55:00	0.2306	3.055		0.570442917	0.697366998	0.011092467	0.114438941	0.035271193
2019-12-01T06:00:00	0.2318	3.040		0.574713414	0.703526597	0.011246224	0.116025217	0.035760099
2019-12-01T06:05:00	0.2309	3.025		0.571586097	0.699014396	0.011133521	0.114862484	0.035401733
2019-12-01T06:10:00	0.2306	3.012		0.570475503	0.697413941	0.011093637	0.114451003	0.035274911
2019-12-01T06:15:00	0.2299	3.004		0.568017911	0.693875979	0.011005637	0.113543127	0.034995095
2019-12-01T06:20:00	0.2294	2.997		0.566569334	0.691792937	0.010953935	0.113009723	0.034830694
2019-12-01T06:25:00	0.2304	2.994		0.569835051	0.696491462	0.011070669	0.114214054	0.035201881
2019-12-01T06:30:00	0.2302	2.998		0.569060543	0.695376347	0.011042927	0.113927843	0.035113668
2019-12-01T06:35:00	0.2300	3.000		0.568622547	0.694745953	0.011027254	0.113766148	0.035063832
2019-12-01T06:40:00	0.2301	3.004		0.568857852	0.695084601	0.011035673	0.113853001	0.035090601
2019-12-01T06:45:00	0.2300	3.008		0.568419831	0.694454244	0.011020004	0.113691352	0.035040779
2019-12-01T06:50:00	0.2303	3.012		0.569664998	0.696246583	0.011064575	0.114151182	0.035182503
2019-12-01T06:55:00	0.2316	3.013		0.573936444	0.702404802	0.011218169	0.115735783	0.035670892
2019-12-01T07:00:00	0.2308	3.017		0.571144873	0.698378436	0.011117667	0.114698918	0.035351321
2019-12-01T07:05:00	0.2310	3.020		0.572052749	0.699687185	0.011150302	0.115035606	0.035455091
2019-12-01T07:10:00	0.2312	3.023		0.572624123	0.700511199	0.011170865	0.115247759	0.035520478
2019-12-01T07:15:00	0.2322	3.025		0.575884197	0.705217927	0.011288566	0.116462050	0.035894735
2019-12-01T07:20:00	0.2307	3.032		0.570739722	0.697794610	0.011103119	0.114548829	0.035305062
2019-12-01T07:25:00	0.2300	3.039		0.568619001	0.694740850	0.011027127	0.113764840	0.035063428
2019-12-01T07:30:00	0.2297	3.044		0.567507465	0.693141763	0.010987404	0.113355022	0.034937119
2019-12-01T07:35:00	0.2295	3.048		0.566732441	0.692027396	0.010959750	0.113069720	0.034849186
2019-12-01T07:40:00	0.2294	3.055		0.566631029	0.691881619	0.010956134	0.113032415	0.034837688
2019-12-01T07:45:00	0.2317	3.064		0.574269044	0.702884952	0.011230174	0.115859637	0.035709065
2019-12-01T07:50:00	0.2313	3.073		0.572823054	0.700798152	0.011178029	0.115321669	0.035543258
2019-12-01T07:55:00	0.2305	3.082		0.570367111	0.697257794	0.011089748	0.114410884	0.035262545
2019-12-01T08:00:00	0.2311	3.093		0.572284281	0.700021059	0.011158632	0.115121550	0.035481580
2019-12-01T08:05:00	0.2300	3.103		0.568481494	0.694542973	0.011022209	0.113714101	0.035047790
2019-12-01T08:10:00	0.2295	3.112		0.566696272	0.691975403	0.010958460	0.113056414	0.034845085
2019-12-01T08:15:00	0.2295	3.123		0.566931706	0.692313863	0.010966857	0.113143038	0.034871783
2019-12-01T08:20:00	0.2312	3.136		0.572551907	0.700407036	0.011168265	0.115220933	0.035512211
2019-12-01T08:25:00	0.2313	3.151		0.572786948	0.700746068	0.011176729	0.115308252	0.035539123
2019-12-01T08:30:00	0.2305	3.168		0.570330980	0.697205746	0.011088452	0.114397512	0.035258424
2019-12-01T08:35:00	0.2309	3.188		0.571575467	0.698999073	0.011133139	0.114858542	0.035400518
2019-12-01T08:40:00	0.2313	3.209		0.572819511	0.700793043	0.011177902	0.115320353	0.035542853
2019-12-01T08:45:00	0.2307	3.231		0.571036502	0.698222259	0.011113774	0.114658762	0.035338944
2019-12-01T08:50:00	0.2304	3.242		0.569925734	0.696622058	0.011073920	0.114247589	0.035212217
2019-12-01T08:55:00	0.2318	3.252		0.574532978	0.703266037	0.011239705	0.115957968	0.035739372
2019-12-01T09:00:00	0.2334	3.263		0.579805426	0.710890865	0.011430970	0.117931212	0.036347545
2019-12-01T09:05:00	0.2334	3.278		0.580039981	0.711230606	0.011439517	0.118019391	0.036374722
2019-12-01T09:10:00	0.2339	3.297		0.581616465	0.713515247	0.011497048	0.118612929	0.036557657
2019-12-01T09:15:00	0.2340	3.313		0.581850899	0.713855166	0.011505616	0.118701323	0.036584900
2019-12-01T09:20:00	0.2339	3.327		0.581749925	0.713708752	0.011501926	0.118663246	0.036573165
2019-12-01T09:25:00	0.2344	3.333		0.583325642	0.715994519	0.011559589	0.119258146	0.036756519
2019-12-01T09:30:00	0.2355	3.344		0.586910732	0.721202814	0.011691335	0.120617343	0.037175437
2019-12-01T09:35:00	0.2348	3.363		0.584799766	0.718134781	0.011613668	0.119816069	0.036928476
2019-12-01T09:40:00	0.2342	3.390		0.582687532	0.715068616	0.011536219	0.119017050	0.036682211
2019-12-01T09:45:00	0.2345	3.412		0.583592426	0.716381726	0.011569366	0.119359020	0.036787609
2019-12-01T09:50:00	0.2328	3.425		0.577787741	0.707970238	0.011357581	0.117174073	0.036114187
2019-12-01T09:55:00	0.2327	3.434		0.577686649	0.707823995	0.011353911	0.117136204	0.036102516
2019-12-01T10:00:00	0.2329	3.450		0.578257105	0.708649348	0.011374632	0.117349981	0.036168404
2019-12-01T10:05:00	0.2323	3.470		0.576381744	0.705937033	0.011306584	0.116647944	0.035952029
2019-12-01T10:10:00	0.2317	3.492		0.574169260	0.702740891	0.011226572	0.115822472	0.035697611
2019-12-01T10:15:00	0.2306	3.514		0.570609730	0.697607319	0.011098453	0.114500695	0.035290226
2019-12-01T10:20:00	0.2285	3.542		0.563339593	0.687154832	0.010839105	0.111825050	0.034465566
2019-12-01T10:25:00	0.2289	3.567		0.564828180	0.689291464	0.010891954	0.112370277	0.034633611
2019-12-01T10:30:00	0.2284	3.592		0.563282804	0.687073357	0.010837092	0.111804277	0.034459164
2019-12-01T10:35:00	0.2287	3.621		0.564097272	0.688242133	0.010865988	0.112102397	0.034551048
2019-12-01T10:40:00	0.2294	3.649		0.566596271	0.691831656	0.010954895	0.113019631	0.034833748
2019-12-01T10:45:00	0.2287	3.670		0.564040495	0.688160640	0.010863973	0.112081602	0.034544638
2019-12-01T10:50:00	0.2281	3.688		0.562157496	0.685459420	0.010797231	0.111393042	0.034332417
2019-12-01T10:55:00	0.2287	3.700		0.563983718	0.688079148	0.010861957	0.112060809	0.034538230
2019-12-01T11:00:00	0.2286	3.716		0.563786766	0.687796487	0.010854967	0.111988695	0.034516003
2019-12-01T11:05:00	0.2289	3.745		0.564938156	0.689449390	0.010895863	0.112410611	0.034646042
2019-12-01T11:10:00	0.2283	3.780		0.562718419	0.686263776	0.010817091	0.111597931	0.034395566
2019-12-01T11:15:00	0.2280	3.820		0.561846817	0.685014024	0.010786239	0.111279643	0.034297467
2019-12-01T11:20:00	0.2293	3.851		0.566032422	0.691021301	0.010934803	0.112812343	0.034769860
2019-12-01T11:25:00	0.2281	3.879		0.562127315	0.685416150	0.010796163	0.111382024	0.034329021
2019-12-01T11:30:00	0.2294	3.897		0.566649458	0.691908109	0.010956791	0.113039194	0.034839777
2019-12-01T11:35:00	0.2295	3.895		0.566789517	0.692109446	0.010961785	0.113090718	0.034855658
2019-12-01T11:40:00	0.2283	3.894		0.562885258	0.686503070	0.010823001	0.111658909	0.034414360
2019-12-01T11:45:00	0.2279	3.892		0.561339021	0.684286206	0.010768286	0.111094422	0.034240380
2019-12-01T11:50:00	0.2264	3.887		0.556415257	0.677240045	0.010594992	0.109306577	0.033689349
2019-12-01T11:55:00	0.2273	3.875		0.559257354	0.681304797	0.010694847	0.110336760	0.034006861
2019-12-01T12:00:00	0.2271	3.865		0.558722527	0.680539382	0.010676020	0.110142525	0.033946996
2019-12-01T12:05:00	0.2282	3.858		0.562574644	0.686057580	0.010811999	0.111545396	0.034379374
2019-12-01T12:10:00	0.2290	3.865		0.565074733	0.689645529	0.010900719	0.112460712	0.034661484
2019-12-01T12:15:00	0.2294	3.887		0.566562581	0.691783230	0.010953694	0.113007240	0.034829929
2019-12-01T12:20:00	0.2287	3.910		0.564006780	0.688112249	0.010862776	0.112069255	0.034540833
2019-12-01T12:25:00	0.2287	3.924		0.564146945	0.688313433	0.010867752	0.112120593	0.034556656
2019-12-01T12:30:00	0.2281	3.931		0.562264003	0.685612131	0.010801001	0.111431932	0.034344404
2019-12-01T12:35:00	0.2266	3.929		0.557003772	0.678081190	0.010615630	0.109519495	0.033754972
2019-12-01T12:40:00	0.2257	3.931		0.554102896	0.673937819	0.010514100	0.108472026	0.033432132
2019-12-01T12:45:00	0.2258	3.936		0.554243460	0.674138430	0.010519008	0.108522665	0.033447739
2019-12-01T12:50:00	0.2257	3.945		0.554045956	0.673856561	0.010512112	0.108451517	0.033425811
2019-12-01T12:55:00	0.2263	3.966		0.555876434	0.676470172	0.010576114	0.109111822	0.033629323
2019-12-01T13:00:00	0.2256	3.974		0.553650916	0.673292872	0.010498325	0.108309282	0.033381973
2019-12-01T13:05:00	0.2256	3.975		0.553791498	0.673493456	0.010503230	0.108359888	0.033397570
2019-12-01T13:10:00	0.2253	3.974		0.552579455	0.671764633	0.010460977	0.107923976	0.033263218
2019-12-01T13:15:00	0.2243	3.969		0.549336363	0.667144712	0.010348346	0.106761973	0.032905077
2019-12-01T13:20:00	0.2237	3.972		0.547106651	0.663973397	0.010271266	0.105966760	0.032659984
2019-12-01T13:25:00	0.2226	3.980		0.543519351	0.658879736	0.010147868	0.104693681	0.032267609
2019-12-01T13:30:00	0.2236	3.989		0.547049597	0.663892302	0.010269298	0.105946451	0.032653725
2019-12-01T13:35:00	0.2256	3.989		0.553620662	0.673249707	0.010497269	0.108298393	0.033378616
2019-12-01T13:40:00	0.2260	3.982		0.555113406	0.675380362	0.010549411	0.108836329	0.033544414
2019-12-01T13:45:00	0.2255	3.970		0.553225573	0.672686087	0.010483491	0.108156242	0.033334804
2019-12-01T13:50:00	0.2266	3.960		0.557083771	0.678195553	0.010618437	0.109548454	0.033763898
2019-12-01T13:55:00	0.2271	3.951		0.558912653	0.680811453	0.010682710	0.110211554	0.033968271
2019-12-01T14:00:00	0.2259	3.944		0.554661557	0.674735227	0.010533614	0.108673355	0.033494183
2019-12-01T14:05:00	0.2249	3.941		0.551420409	0.670112531	0.010420653	0.107507957	0.033134996
2019-12-01T14:10:00	0.2249	3.935		0.551222745	0.669830891	0.010413784	0.107437090	0.033113155
2019-12-01T14:15:00	0.2250	3.930		0.551701748	0.670513450	0.010430434	0.107608864	0.033166097
2019-12-01T14:20:00	0.2257	3.922		0.553871571	0.673607712	0.010506024	0.108388718	0.033406456
2019-12-01T14:25:00	0.2262	3.915		0.555702141	0.676221192	0.010570012	0.109048862	0.033609918
2019-12-01T14:30:00	0.2270	3.906		0.558544820	0.680285110	0.010669768	0.110078025	0.033927116
2019-12-01T14:35:00	0.2274	3.897		0.559697941	0.681935517	0.010710369	0.110496900	0.034056218
2019-12-01T14:40:00	0.2273	3.888		0.559500746	0.681653204	0.010703420	0.110425211	0.034034123
2019-12-01T14:45:00	0.2270	3.877		0.558290690	0.679921533	0.010660830	0.109985820	0.033898698
2019-12-01T14:50:00	0.2264	3.865		0.556404581	0.677224788	0.010594618	0.109302717	0.033688159
2019-12-01T14:55:00	0.2260	3.853		0.555193448	0.675494662	0.010552211	0.108865212	0.033553316
2019-12-01T15:00:00	0.2260	3.840		0.554995999	0.675212716	0.010545305	0.108793970	0.033531358
2019-12-01T15:05:00	0.2253	3.827		0.552769917	0.672036222	0.010467611	0.107992417	0.033284312
2019-12-01T15:10:00	0.2251	3.812		0.551895821	0.670790049	0.010437184	0.107678499	0.033187559
2019-12-01T15:15:00	0.2246	3.794		0.550344695	0.668580198	0.010383299	0.107122577	0.033016219
2019-12-01T15:20:00	0.2250	3.777		0.551500536	0.670226709	0.010423438	0.107536691	0.033143853
2019-12-01T15:25:00	0.2241	3.761		0.548595062	0.666089908	0.010322687	0.106497259	0.032823489
2019-12-01T15:30:00	0.2232	3.744		0.545687154	0.661956572	0.010222347	0.105462071	0.032504435
2019-12-01T15:35:00	0.2224	3.729		0.542776805	0.657826700	0.010122419	0.104431134	0.032186690
2019-12-01T15:40:00	0.2211	3.718		0.538505890	0.651778688	0.009976674	0.102927504	0.031723256
2019-12-01T15:45:00	0.2211	3.706		0.538307488	0.651498095	0.009969929	0.102857921	0.031701810
2019-12-01T15:50:00	0.2221	3.694		0.541843048	0.656503140	0.010090464	0.104101453	0.032085079
2019-12-01T15:55:00	0.2219	3.680		0.541305532	0.655741558	0.010072091	0.103911911	0.032026660
2019-12-01T16:00:00	0.2225	3.668		0.543142739	0.658345591	0.010134957	0.104560479	0.032226555
2019-12-01T16:05:00	0.2230	3.653		0.544927949	0.660878570	0.010196232	0.105192644	0.032421394
2019-12-01T16:10:00	0.2236	3.639		0.547051017	0.663894320	0.010269347	0.105946956	0.032653881
2019-12-01T16:15:00	0.2247	3.626		0.550526731	0.668839439	0.010389615	0.107187743	0.033036303
2019-12-01T16:20:00	0.2242	3.611		0.548924029	0.666557942	0.010334069	0.106614690	0.032859683
2019-12-01T16:25:00	0.2258	3.599		0.554426709	0.674399984	0.010525408	0.108588698	0.033468091
2019-12-01T16:30:00	0.2255	3.585		0.553502132	0.673080603	0.010493135	0.108255737	0.033365469
2019-12-01T16:35:00	0.2243	3.573		0.549193453	0.666941329	0.010343397	0.106710915	0.032889340
2019-12-01T16:40:00	0.2238	3.558		0.547590135	0.664660710	0.010287955	0.106138936	0.032713051
2019-12-01T16:45:00	0.2237	3.546		0.547341266	0.664306897	0.010279363	0.106050292	0.032685730
2019-12-01T16:50:00	0.2253	3.533		0.552508240	0.671663091	0.010458498	0.107898391	0.033255332
2019-12-01T16:55:00	0.2244	3.521		0.549552654	0.667452558	0.010355838	0.106839272	0.032928901
2019-12-01T17:00:00	0.2242	3.510		0.548965368	0.666616763	0.010335500	0.106629451	0.032864232
2019-12-01T17:05:00	0.2246	3.499		0.550409170	0.668672014	0.010385536	0.107145656	0.033023332
2019-12-01T17:10:00	0.2253	3.488		0.552528888	0.671692532	0.010459217	0.107905809	0.033257618
2019-12-01T17:15:00	0.2259	3.479		0.554647315	0.674714895	0.010533116	0.108668220	0.033492601
2019-12-01T17:20:00	0.2263	3.471		0.556088759	0.676773514	0.010583551	0.109188544	0.033652970
2019-12-01T17:25:00	0.2268	3.463		0.557867329	0.679315960	0.010645950	0.109832301	0.033851382
2019-12-01T17:30:00	0.2284	3.454		0.563018707	0.686694492	0.010827730	0.111707696	0.034429397
2019-12-01T17:35:00	0.2276	3.447		0.560409513	0.682954503	0.010735462	0.110755784	0.034136008
2019-12-01T17:40:00	0.2269	3.436		0.558136062	0.679700337	0.010655394	0.109929736	0.033881412
2019-12-01T17:45:00	0.2274	3.427		0.559913587	0.682244283	0.010717970	0.110575324	0.034080389
2019-12-01T17:50:00	0.2273	3.415		0.559328049	0.681405989	0.010697336	0.110362448	0.034014778
2019-12-01T17:55:00	0.2258	3.406		0.554350554	0.674291284	0.010522748	0.108561253	0.033459633
2019-12-01T18:00:00	0.2249	3.399		0.551396535	0.670078513	0.010419823	0.107499396	0.033132358
2019-12-01T18:05:00	0.2252	3.393		0.552162870	0.671170706	0.010446475	0.107774356	0.033217103
2019-12-01T18:10:00	0.2233	3.386		0.545819845	0.662145030	0.010226915	0.105509197	0.032518959
2019-12-01T18:15:00	0.2219	3.380		0.541162291	0.655538646	0.010067198	0.103861430	0.032011101
2019-12-01T18:20:00	0.2215	3.373		0.539894729	0.653743777	0.010023951	0.103415254	0.031873586
2019-12-01T18:25:00	0.2219	3.367		0.541002977	0.655312985	0.010061758	0.103805299	0.031993801
2019-12-01T18:30:00	0.2217	3.361		0.540414242	0.654479249	0.010041665	0.103598003	0.031929911
2019-12-01T18:35:00	0.2213	3.360		0.539146406	0.652684767	0.009998463	0.103152304	0.031792542
2019-12-01T18:40:00	0.2202	3.352		0.535499681	0.647530550	0.009874726	0.101875727	0.031399088
2019-12-01T18:45:00	0.2202	3.345		0.535249941	0.647177969	0.009866280	0.101788595	0.031372234
2019-12-01T18:50:00	0.2221	3.338		0.541792324	0.656431262	0.010088729	0.104083559	0.032079564
2019-12-01T18:55:00	0.2217	3.333		0.540524993	0.654636067	0.010045443	0.103636983	0.031941925
2019-12-01T19:00:00	0.2221	3.327		0.541972313	0.656686325	0.010094884	0.104147061	0.032099136
2019-12-01T19:05:00	0.2221	3.322		0.541723039	0.656333084	0.010086360	0.104059119	0.032072031
2019-12-01T19:10:00	0.2222	3.317		0.542152292	0.656941401	0.010101041	0.104210579	0.032118713
2019-12-01T19:15:00	0.2235	3.313		0.546649462	0.663323642	0.010255498	0.105804078	0.032609844
2019-12-01T19:20:00	0.2244	3.309		0.549448594	0.667304444	0.010352233	0.106802079	0.032917438
2019-12-01T19:25:00	0.2244	3.302		0.549538391	0.667432256	0.010355344	0.106834174	0.032927330
2019-12-01T19:30:00	0.2243	3.295		0.549289660	0.667078244	0.010346728	0.106745286	0.032899934
2019-12-01T19:35:00	0.2242	3.290		0.549040913	0.666724258	0.010338115	0.106656430	0.032872547
2019-12-01T19:40:00	0.2247	3.284		0.550484683	0.668779554	0.010388156	0.107172688	0.033031663
2019-12-01T19:45:00	0.2246	3.278		0.550236020	0.668425446	0.010379529	0.107083683	0.033004231
2019-12-01T19:50:00	0.2237	3.274		0.547278499	0.664217671	0.010277196	0.106027941	0.032678841
2019-12-01T19:55:00	0.2235	3.269		0.546690828	0.663382424	0.010256924	0.105818792	0.032614379
2019-12-01T20:00:00	0.2244	3.264		0.549489927	0.667363274	0.010353665	0.106816851	0.032921991
2019-12-01T20:05:00	0.2239	3.260		0.547886745	0.665082460	0.010298200	0.106244633	0.032745628
2019-12-01T20:10:00	0.2247	3.256		0.550684880	0.669064682	0.010395104	0.107244374	0.033053758
2019-12-01T20:15:00	0.2247	3.251		0.550774645	0.669192539	0.010398221	0.107276525	0.033063667
2019-12-01T20:20:00	0.2251	3.247		0.551879422	0.670766676	0.010436613	0.107672614	0.033185745
2019-12-01T20:25:00	0.2239	3.243		0.547907421	0.665111862	0.010298915	0.106252003	0.032747899
2019-12-01T20:30:00	0.2251	3.240		0.552058888	0.671022481	0.010442857	0.107737027	0.033205598
2019-12-01T20:35:00	0.2250	3.237		0.551810338	0.670668212	0.010434210	0.107647824	0.033178105
2019-12-01T20:40:00	0.2247	3.232		0.550546663	0.668867825	0.010390307	0.107194880	0.033038503
2019-12-01T20:45:00	0.2260	3.229		0.555032978	0.675265518	0.010546598	0.108807311	0.033535470
2019-12-01T20:50:00	0.2264	3.225		0.556474262	0.677324366	0.010597060	0.109327915	0.033695925
2019-12-01T20:55:00	0.2262	3.221		0.555550230	0.676004206	0.010564694	0.108994002	0.033593010
2019-12-01T21:00:00	0.2265	3.218		0.556653491	0.677580511	0.010603344	0.109392742	0.033715906
2019-12-01T21:05:00	0.2256	3.214		0.553701428	0.673364941	0.010500087	0.108327464	0.033387576
2019-12-01T21:10:00	0.2238	3.212		0.547699928	0.664816816	0.010291747	0.106178055	0.032725108
2019-12-01T21:15:00	0.2243	3.208		0.549144256	0.666871317	0.010341693	0.106693341	0.032883924
2019-12-01T21:20:00	0.2234	3.204		0.546185804	0.662664867	0.010239518	0.105639223	0.032559034
2019-12-01T21:25:00	0.2244	3.201		0.549662385	0.667608753	0.010359640	0.106878499	0.032940991
2019-12-01T21:30:00	0.2253	3.197		0.552797305	0.672075279	0.010468565	0.108002260	0.033287346
2019-12-01T21:35:00	0.2262	3.193		0.555591490	0.676063140	0.010566138	0.109008901	0.033597602
2019-12-01T21:40:00	0.2266	3.190		0.557032543	0.678122319	0.010616639	0.109529910	0.033758182
2019-12-01T21:45:00	0.2250	3.186		0.551713473	0.670530160	0.010430842	0.107613070	0.033167393
2019-12-01T21:50:00	0.2243	3.180		0.549434330	0.667284143	0.010351739	0.106796982	0.032915867
2019-12-01T21:55:00	0.2240	3.174		0.548169790	0.665484989	0.010307982	0.106345547	0.032776730
2019-12-01T22:00:00	0.2235	3.169		0.546565999	0.663205043	0.010252620	0.105774392	0.032600695
2019-12-01T22:05:00	0.2234	3.166		0.546326151	0.662864257	0.010244354	0.105689110	0.032574410
2019-12-01T22:10:00	0.2235	3.165		0.546425124	0.663004876	0.010247765	0.105724297	0.032585255
2019-12-01T22:15:00	0.2230	3.163		0.544829625	0.660738992	0.010192852	0.105157776	0.032410648
2019-12-01T22:20:00	0.2237	3.159		0.547300598	0.664249085	0.010277959	0.106035810	0.032681266
2019-12-01T22:25:00	0.2245	3.157		0.550108290	0.668243571	0.010375098	0.107037977	0.032990144
2019-12-01T22:30:00	0.2254	3.153		0.552913714	0.672241289	0.010472621	0.108044103	0.033300242
2019-12-01T22:35:00	0.2247	3.148		0.550644443	0.669007087	0.010393701	0.107229893	0.033049294
2019-12-01T22:40:00	0.2241	3.142		0.548712302	0.666256700	0.010326743	0.106539102	0.032836386
2019-12-01T22:45:00	0.2252	3.138		0.552195435	0.671217129	0.010447608	0.107786049	0.033220707
2019-12-01T22:50:00	0.2256	3.132		0.553646971	0.673287244	0.010498187	0.108307862	0.033381535
2019-12-01T22:55:00	0.2265	3.129		0.556787371	0.677771862	0.010608039	0.109441179	0.033730834
2019-12-01T23:00:00	0.2264	3.125		0.556548228	0.677430071	0.010599653	0.109354666	0.033704170
2019-12-01T23:05:00	0.2265	3.121		0.556646910	0.677571105	0.010603113	0.109390362	0.033715172
2019-12-01T23:10:00	0.2261	3.116		0.555394063	0.675781161	0.010559229	0.108937620	0.033575632
2019-12-01T23:15:00	0.2258	3.112		0.554478818	0.674474365	0.010527229	0.108607479	0.033473880
2019-12-01T23:20:00	0.2249	3.107		0.551195650	0.669792289	0.010412843	0.107427378	0.033110161
2019-12-01T23:25:00	0.2244	3.105		0.549602344	0.667523287	0.010357560	0.106857034	0.032934376
2019-12-01T23:30:00	0.2225	3.102		0.543263736	0.658517187	0.010139104	0.104603264	0.032239742
2019-12-01T23:35:00	0.2221	3.101		0.541666780	0.656253368	0.010084437	0.104039277	0.032065916
2019-12-01T23:40:00	0.2209	3.100		0.537692171	0.650628076	0.009949026	0.102642271	0.031635345
2019-12-01T23:45:00	0.2213	3.099		0.539149790	0.652689556	0.009998579	0.103153492	0.031792908
2019-12-01T23:50:00	0.2204	3.097		0.536191907	0.648508096	0.009898154	0.102117432	0.031473584
2019-12-01T23:55:00	0.2190	3.093		0.531190195	0.641453581	0.009729501	0.100377470	0.030937311
2019-12-02T00:00:00	0.2196	3.087		0.533330838	0.644470290	0.009801503	0.101120299	0.031166258
2019-12-02T00:05:00	0.2203	3.082		0.535810031	0.647968772	0.009885226	0.101984056	0.031432477
2019-12-02T00:10:00	0.2202	3.080		0.535229535	0.647149163	0.009865590	0.101781478	0.031370040
2019-12-02T00:15:00	0.2206	3.080		0.536688193	0.649209180	0.009914968	0.102290898	0.031527048
2019-12-02T00:20:00	0.2215	3.079		0.539843977	0.653671939	0.010022221	0.103397410	0.031868086
2019-12-02T00:25:00	0.2216	3.081		0.540282574	0.654292826	0.010037174	0.103551671	0.031915631
2019-12-02T00:30:00	0.2207	3.081		0.536985931	0.649629879	0.009925062	0.102395037	0.031559145
2019-12-02T00:35:00	0.2203	3.080		0.535725960	0.647850054	0.009882381	0.101954705	0.031423430
2019-12-02T00:40:00	0.2211	3.080		0.538543046	0.651831239	0.009977937	0.102940537	0.031727273
2019-12-02T00:45:00	0.2213	3.080		0.538981807	0.652451893	0.009992862	0.103094512	0.031774730
2019-12-02T00:50:00	0.2223	3.082		0.542474724	0.657398436	0.010112076	0.104324421	0.032153800
2019-12-02T00:55:00	0.2222	3.083		0.542234593	0.657058052	0.010103857	0.104239632	0.032127667
2019-12-02T01:00:00	0.2234	3.087		0.546063105	0.662490564	0.010235292	0.105595619	0.032545595
2019-12-02T01:05:00	0.2242	3.088		0.548871798	0.666483626	0.010332262	0.106596041	0.032853935
2019-12-02T01:10:00	0.2241	3.091		0.548632110	0.666142613	0.010323969	0.106510480	0.032827564
2019-12-02T01:15:00	0.2246	3.093		0.550423582	0.668692539	0.010386036	0.107150815	0.033024922
2019-12-02T01:20:00	0.2246	3.095		0.550184001	0.668351374	0.010377724	0.107065068	0.032998494
2019-12-02T01:25:00	0.2241	3.096		0.548590230	0.666083034	0.010322520	0.106495534	0.032822958
2019-12-02T01:30:00	0.2247	3.097		0.550720142	0.669114907	0.010396328	0.107257003	0.033057650
2019-12-02T01:35:00	0.2244	3.099		0.549465158	0.667328020	0.010352807	0.106807999	0.032919263
2019-12-02T01:40:00	0.2235	3.101		0.546516074	0.663134103	0.010250899	0.105756638	0.032595223
2019-12-02T01:45:00	0.2228	3.103		0.544242614	0.659905861	0.010172686	0.104949730	0.032346526
2019-12-02T01:50:00	0.2224	3.105		0.542985284	0.658122308	0.010129561	0.104504814	0.032209399
2019-12-02T01:55:00	0.2214	3.105		0.539351719	0.652975277	0.010005453	0.103224415	0.031814767
2019-12-02T02:00:00	0.2209	3.104		0.537752957	0.650714010	0.009951090	0.102663565	0.031641908
2019-12-02T02:05:00	0.2207	3.102		0.537172788	0.649893943	0.009931400	0.102460421	0.031579297
2019-12-02T02:10:00	0.2203	3.099		0.535573017	0.647634096	0.009877207	0.101901320	0.031406976
2019-12-02T02:15:00	0.2202	3.097		0.535332407	0.647294388	0.009869069	0.101817363	0.031381100
2019-12-02T02:20:00	0.2208	3.095		0.537470483	0.650314700	0.009941501	0.102564633	0.031611416
2019-12-02T02:25:00	0.2207	3.093		0.537230005	0.649974807	0.009933341	0.102480447	0.031585469
2019-12-02T02:30:00	0.2209	3.090		0.537668933	0.650595226	0.009948237	0.102634132	0.031632836
2019-12-02T02:35:00	0.2219	3.089		0.541163175	0.655539898	0.010067229	0.103861741	0.032011197
2019-12-02T02:40:00	0.2221	3.088		0.541940881	0.656641780	0.010093809	0.104135970	0.032095717
2019-12-02T02:45:00	0.2216	3.086		0.540003882	0.653898286	0.010027671	0.103453638	0.031885416
2019-12-02T02:50:00	0.2215	3.083		0.539763579	0.653558144	0.010019482	0.103369146	0.031859375
2019-12-02T02:55:00	0.2210	3.081		0.538165008	0.651296609	0.009965087	0.102807966	0.031686414
2019-12-02T03:00:00	0.2225	3.078		0.543015631	0.658165340	0.010130601	0.104515541	0.032212705
2019-12-02T03:05:00	0.2235	3.077		0.546504484	0.663117636	0.010250500	0.105752516	0.032593953
2019-12-02T03:10:00	0.2233	3.075		0.545925779	0.662295496	0.010230562	0.105546827	0.032530557
2019-12-02T03:15:00	0.2218	3.072		0.540938135	0.655221146	0.010059544	0.103782457	0.031986761
2019-12-02T03:20:00	0.2217	3.071		0.540358500	0.654400324	0.010039763	0.103578387	0.031923865
2019-12-02T03:25:00	0.2224	3.070		0.542832662	0.657905898	0.010124333	0.104450873	0.032192773
2019-12-02T03:30:00	0.2227	3.069		0.543949072	0.659489349	0.010162610	0.104845773	0.032314485
2019-12-02T03:35:00	0.2229	3.068		0.544387149	0.660110970	0.010177650	0.105000936	0.032362308
2019-12-02T03:40:00	0.2219	3.069		0.541094415	0.655442501	0.010064880	0.103837513	0.032003730
2019-12-02T03:45:00	0.2218	3.068		0.540854188	0.655102252	0.010056678	0.103752890	0.031977648
2019-12-02T03:50:00	0.2209	3.065		0.537897763	0.650918736	0.009956008	0.102714300	0.031657545
2019-12-02T03:55:00	0.2200	3.061		0.534598844	0.646258995	0.009844279	0.101561613	0.031302276
2019-12-02T04:00:00	0.2200	3.057		0.534698153	0.646399140	0.009847633	0.101596217	0.031312941
2019-12-02T04:05:00	0.2204	3.054		0.536015736	0.648259274	0.009892189	0.102055891	0.031454617
2019-12-02T04:10:00	0.2197	3.052		0.533593967	0.644841364	0.009810372	0.101211798	0.031194459
2019-12-02T04:15:00	0.2195	3.049		0.532871671	0.643822893	0.009786036	0.100960730	0.031117078
2019-12-02T04:20:00	0.2199	3.047		0.534189950	0.645682048	0.009830475	0.101419197	0.031258381
2019-12-02T04:25:00	0.2193	3.046		0.532447352	0.643224782	0.009771754	0.100813385	0.031071664
2019-12-02T04:30:00	0.2193	3.045		0.532405276	0.643165480	0.009770338	0.100798779	0.031067163
2019-12-02T04:35:00	0.2189	3.043		0.531002128	0.641188724	0.009723188	0.100312340	0.030917238
2019-12-02T04:40:00	0.2189	3.042		0.530960034	0.641129447	0.009721775	0.100297766	0.030912745
2019-12-02T04:45:00	0.2187	3.040		0.530237186	0.640111748	0.009697532	0.100047651	0.030835658
2019-12-02T04:50:00	0.2188	3.038		0.530535480	0.640531666	0.009707533	0.100150827	0.030867457
2019-12-02T04:55:00	0.2184	3.037		0.529131571	0.638555975	0.009660510	0.099665703	0.030717938
2019-12-02T05:00:00	0.2186	3.036		0.529770434	0.639454835	0.009681894	0.099886317	0.030785933
2019-12-02T05:05:00	0.2196	3.034		0.533471361	0.644668454	0.009806239	0.101169158	0.031181317
2019-12-02T05:10:00	0.2189	3.034		0.531047806	0.641253051	0.009724721	0.100328157	0.030922112
2019-12-02T05:15:00	0.2188	3.034		0.530665361	0.640714526	0.009711889	0.100195767	0.030881309
2019-12-02T05:20:00	0.2199	3.035		0.534365329	0.645929489	0.009836394	0.101480268	0.031277204
2019-12-02T05:25:00	0.2198	3.035		0.533983251	0.645390449	0.009823500	0.101347242	0.031236204
2019-12-02T05:30:00	0.2198	3.036		0.533941194	0.645331121	0.009822082	0.101332605	0.031231693
2019-12-02T05:35:00	0.2211	3.039		0.538316951	0.651511477	0.009970251	0.102861239	0.031702833
2019-12-02T05:40:00	0.2217	3.038		0.540312060	0.654334573	0.010038179	0.103562046	0.031918828
2019-12-02T05:45:00	0.2209	3.039		0.537893301	0.650912427	0.009955856	0.102712736	0.031657063
2019-12-02T05:50:00	0.2210	3.038		0.538190935	0.651333272	0.009965968	0.102817055	0.031689215
2019-12-02T05:55:00	0.2210	3.039		0.538148928	0.651273871	0.009964541	0.102802329	0.031684676
2019-12-02T06:00:00	0.2203	3.040		0.535728655	0.647853859	0.009882472	0.101955646	0.031423720
2019-12-02T06:05:00	0.2206	3.041		0.536706088	0.649234464	0.009915575	0.102297156	0.031528977
2019-12-02T06:10:00	0.2209	3.041		0.537683245	0.650615458	0.009948723	0.102639145	0.031634381
2019-12-02T06:15:00	0.2205	3.043		0.536282240	0.648635692	0.009901214	0.102148995	0.031483312
2019-12-02T06:20:00	0.2209	3.044		0.537599219	0.650496675	0.009945871	0.102609715	0.031625311
2019-12-02T06:25:00	0.2206	3.046		0.536877760	0.649477027	0.009921394	0.102357196	0.031547482
2019-12-02T06:30:00	0.2205	3.048		0.536495960	0.648937597	0.009908454	0.102223690	0.031506334
2019-12-02T06:35:00	0.2198	3.051		0.534074529	0.645519214	0.009826580	0.101379014	0.031245997
2019-12-02T06:40:00	0.2204	3.053		0.536072087	0.648338861	0.009894097	0.102075573	0.031460683
2019-12-02T06:45:00	0.2210	3.055		0.538068491	0.651160132	0.009961808	0.102774133	0.031675986
2019-12-02T06:50:00	0.2214	3.058		0.539384790	0.653022074	0.010006579	0.103236032	0.031818348
2019-12-02T06:55:00	0.2219	3.062		0.541039953	0.655365357	0.010063020	0.103818325	0.031997816
2019-12-02T07:00:00	0.2218	3.066		0.540658612	0.654825279	0.010050002	0.103684021	0.031956422
2019-12-02T07:05:00	0.2222	3.069		0.542313166	0.657169423	0.010106546	0.104267372	0.032136217
2019-12-02T07:10:00	0.2229	3.073		0.544644985	0.660476907	0.010186507	0.105092314	0.032390472
2019-12-02T07:15:00	0.2235	3.078		0.546636453	0.663305156	0.010255049	0.105799451	0.032608418
2019-12-02T07:20:00	0.2240	3.083		0.548288157	0.665653342	0.010312074	0.106387762	0.032789741
2019-12-02T07:25:00	0.2224	3.086		0.542823749	0.657893261	0.010124027	0.104447723	0.032191803
2019-12-02T07:30:00	0.2235	3.088		0.546510739	0.663126523	0.010250715	0.105754741	0.032594638
2019-12-02T07:35:00	0.2236	3.094		0.546807634	0.663548415	0.010260952	0.105860346	0.032627187
2019-12-02T07:40:00	0.2237	3.099		0.547104502	0.663970343	0.010271192	0.105965995	0.032659749
2019-12-02T07:45:00	0.2237	3.106		0.547401346	0.664392307	0.010281437	0.106071688	0.032692324
2019-12-02T07:50:00	0.2239	3.110		0.548036844	0.665295912	0.010303387	0.106298142	0.032762120
2019-12-02T07:55:00	0.2236	3.117		0.546978805	0.663791686	0.010266855	0.105921255	0.032645960
2019-12-02T08:00:00	0.2243	3.122		0.549307490	0.667103620	0.010347346	0.106751657	0.032901897
2019-12-02T08:05:00	0.2245	3.131		0.549942640	0.668007722	0.010369354	0.106978718	0.032971880
2019-12-02T08:10:00	0.2251	3.144		0.551931071	0.670840292	0.010438410	0.107691150	0.033191458
2019-12-02T08:15:00	0.2254	3.158		0.552903946	0.672227359	0.010472281	0.108040592	0.033299160
2019-12-02T08:20:00	0.2252	3.172		0.552185666	0.671203202	0.010447268	0.107782541	0.033219626
2019-12-02T08:25:00	0.2252	3.186		0.552482075	0.671625785	0.010457586	0.107888992	0.033252435
2019-12-02T08:30:00	0.2260	3.201		0.555145063	0.675425568	0.010550518	0.108847752	0.033547934
2019-12-02T08:35:00	0.2256	3.216		0.553751097	0.673435810	0.010501820	0.108345344	0.033393087
2019-12-02T08:40:00	0.2265	3.230		0.556750946	0.677719799	0.010606761	0.109428000	0.033726772
2019-12-02T08:45:00	0.2267	3.244		0.557384737	0.678625843	0.010629000	0.109657436	0.033797487
2019-12-02T08:50:00	0.2264	3.256		0.556329541	0.677117557	0.010591988	0.109275584	0.033679796
2019-12-02T08:55:00	0.2273	3.270		0.559327170	0.681404730	0.010697305	0.110362128	0.034014680
2019-12-02T09:00:00	0.2278	3.286		0.560972858	0.683761520	0.010755350	0.110960959	0.034199245
2019-12-02T09:05:00	0.2283	3.301		0.562955001	0.686603108	0.010825472	0.111684404	0.034422218
2019-12-02T09:10:00	0.2283	3.315		0.562913292	0.686543282	0.010823995	0.111669157	0.034417519
2019-12-02T09:15:00	0.2283	3.331		0.562871584	0.686483457	0.010822517	0.111653910	0.034412820
2019-12-02T09:20:00	0.2278	3.347		0.561143334	0.684005786	0.010761371	0.111023085	0.034218393
2019-12-02T09:25:00	0.2276	3.364		0.560426751	0.682979193	0.010736070	0.110762060	0.034137943
2019-12-02T09:30:00	0.2275	3.380		0.560047533	0.682436089	0.010722693	0.110624051	0.034095407
2019-12-02T09:35:00	0.2277	3.394		0.560680725	0.683342994	0.010745034	0.110854538	0.034166445
2019-12-02T09:40:00	0.2285	3.414		0.563337454	0.687151764	0.010839029	0.111824268	0.034465325
2019-12-02T09:45:00	0.2274	3.428		0.559922303	0.682256764	0.010718278	0.110578495	0.034081366
2019-12-02T09:50:00	0.2276	3.445		0.560555518	0.683163636	0.010740615	0.110808942	0.034152392
2019-12-02T09:55:00	0.2273	3.460		0.559501282	0.681653971	0.010703439	0.110425406	0.034034183
2019-12-02T10:00:00	0.2274	3.475		0.559797069	0.682077445	0.010713863	0.110532947	0.034067328
2019-12-02T10:05:00	0.2275	3.492		0.559994246	0.682359782	0.010720814	0.110604665	0.034089432
2019-12-02T10:10:00	0.2284	3.510		0.563227427	0.686993911	0.010835128	0.111784022	0.034452921
2019-12-02T10:15:00	0.2286	3.527		0.563761564	0.687760320	0.010854073	0.111979469	0.034513160
2019-12-02T10:20:00	0.2287	3.545		0.564295619	0.688526847	0.010873031	0.112175060	0.034573443
2019-12-02T10:25:00	0.2284	3.561		0.563144017	0.686874251	0.010832172	0.111753517	0.034443519
2019-12-02T10:30:00	0.2276	3.578		0.560305089	0.682804940	0.010731778	0.110717774	0.034124293
2019-12-02T10:35:00	0.2268	3.592		0.557801577	0.679221922	0.010643640	0.109808468	0.033844036
2019-12-02T10:40:00	0.2269	3.609		0.557998868	0.679504096	0.010650572	0.109879988	0.033866079
2019-12-02T10:45:00	0.2268	3.628		0.557858455	0.679303269	0.010645638	0.109829084	0.033850390
2019-12-02T10:50:00	0.2268	3.646		0.557718037	0.679102449	0.010640705	0.109778191	0.033834705
2019-12-02T10:55:00	0.2267	3.663		0.557239862	0.678418706	0.010623915	0.109604969	0.033781316
2019-12-02T11:00:00	0.2272	3.682		0.559125519	0.681116100	0.010690204	0.110288865	0.033992099
2019-12-02T11:05:00	0.2269	3.697		0.557972209	0.679465965	0.010649635	0.109870322	0.033863100
2019-12-02T11:10:00	0.2273	3.705		0.559519939	0.681680680	0.010704096	0.110432188	0.034036273
2019-12-02T11:15:00	0.2267	3.716		0.557353635	0.678581374	0.010627908	0.109646171	0.033794015
2019-12-02T11:20:00	0.2258	3.723		0.554509983	0.674518852	0.010528318	0.108618713	0.033477342
2019-12-02T11:25:00	0.2264	3.730		0.556397119	0.677214125	0.010594356	0.109300018	0.033687327
2019-12-02T11:30:00	0.2261	3.742		0.555242904	0.675565288	0.010553941	0.108883060	0.033558816
2019-12-02T11:35:00	0.2266	3.757		0.557129643	0.678261130	0.010620046	0.109565061	0.033769016
2019-12-02T11:40:00	0.2261	3.775		0.555299824	0.675646574	0.010555932	0.108903603	0.033565148
2019-12-02T11:45:00	0.2262	3.788		0.555835177	0.676411234	0.010574670	0.109096917	0.033624729
2019-12-02T11:50:00	0.2260	3.807		0.555018776	0.675245239	0.010546102	0.108802187	0.033533891
2019-12-02T11:55:00	0.2260	3.829		0.554878243	0.675044584	0.010541188	0.108751494	0.033518267
2019-12-02T12:00:00	0.2251	3.845		0.552032566	0.670984961	0.010441941	0.107727579	0.033202686
2019-12-02T12:05:00	0.2259	3.860		0.554597161	0.674643298	0.010531364	0.108650138	0.033487028
2019-12-02T12:10:00	0.2254	3.876		0.553104196	0.672512959	0.010479260	0.108112590	0.033321350
2019-12-02T12:15:00	0.2258	3.890		0.554316056	0.674242044	0.010521543	0.108548822	0.033455801
2019-12-02T12:20:00	0.2252	3.900		0.552484757	0.671629608	0.010457680	0.107889955	0.033252732
2019-12-02T12:25:00	0.2257	3.909		0.554034928	0.673840823	0.010511727	0.108447545	0.033424587
2019-12-02T12:30:00	0.2262	3.915		0.555584409	0.676053026	0.010565890	0.109006344	0.033596814
2019-12-02T12:35:00	0.2262	3.919		0.555781825	0.676335020	0.010572801	0.109077644	0.033618789
2019-12-02T12:40:00	0.2262	3.924		0.555641324	0.676134320	0.010567883	0.109026897	0.033603148
2019-12-02T12:45:00	0.2266	3.935		0.557190090	0.678347547	0.010622168	0.109586947	0.033775761
2019-12-02T12:50:00	0.2275	3.946		0.560088396	0.682494606	0.010724134	0.110638918	0.034099989
2019-12-02T12:55:00	0.2266	3.952		0.556909194	0.677945994	0.010612312	0.109485264	0.033744422
2019-12-02T13:00:00	0.2261	3.959		0.555417221	0.675814235	0.010560039	0.108945980	0.033578209
2019-12-02T13:05:00	0.2257	3.965		0.553924608	0.673683393	0.010507876	0.108407815	0.033412342
2019-12-02T13:10:00	0.2251	3.972		0.552093102	0.671071252	0.010444047	0.107749309	0.033209383
2019-12-02T13:15:00	0.2262	3.982		0.555671560	0.676177510	0.010568941	0.109037817	0.033606514
2019-12-02T13:20:00	0.2264	3.983		0.556544708	0.677425040	0.010599530	0.109353393	0.033703778
2019-12-02T13:25:00	0.2275	3.991		0.560118594	0.682537851	0.010725199	0.110649905	0.034103375
2019-12-02T13:30:00	0.2271	3.990		0.558627996	0.680404119	0.010672694	0.110108212	0.033936420
2019-12-02T13:35:00	0.2265	3.984		0.556798964	0.677788433	0.010608445	0.109445374	0.033732127
2019-12-02T13:40:00	0.2263	3.985		0.555982789	0.676622114	0.010579839	0.109150249	0.033641167
2019-12-02T13:45:00	0.2255	3.985		0.553476166	0.673043559	0.010492229	0.108246393	0.033362590
2019-12-02T13:50:00	0.2245	3.980		0.549952454	0.668021694	0.010369695	0.106982229	0.032972962
2019-12-02T13:55:00	0.2237	3.973		0.547102738	0.663967834	0.010271131	0.105965367	0.032659555
2019-12-02T14:00:00	0.2237	3.976		0.547300636	0.664249140	0.010277960	0.106035824	0.032681271
2019-12-02T14:05:00	0.2234	3.983		0.546143395	0.662604621	0.010238057	0.105624151	0.032554389
2019-12-02T14:10:00	0.2233	3.990		0.546002503	0.662404478	0.010233205	0.105574085	0.032538958
2019-12-02T14:15:00	0.2232	3.993		0.545522713	0.661723040	0.010216688	0.105403685	0.032486439
2019-12-02T14:20:00	0.2233	3.993		0.546059574	0.662485548	0.010235170	0.105594364	0.032545208
2019-12-02T14:25:00	0.2231	3.993		0.545240872	0.661322835	0.010206992	0.105303652	0.032455608
2019-12-02T14:30:00	0.2227	3.993		0.543743877	0.659198236	0.010155569	0.104773134	0.032292097
2019-12-02T14:35:00	0.2218	3.991		0.540889051	0.655151627	0.010057868	0.103765169	0.031981433
2019-12-02T14:40:00	0.2224	3.980		0.542783605	0.657836341	0.010122652	0.104433537	0.032187430
2019-12-02T14:45:00	0.2222	3.971		0.542303368	0.657155536	0.010106211	0.104263912	0.032135150
2019-12-02T14:50:00	0.2226	3.960		0.543519005	0.658879246	0.010147856	0.104693559	0.032267572
2019-12-02T14:55:00	0.2219	3.953		0.541003362	0.655313530	0.010061771	0.103805434	0.031993843
2019-12-02T15:00:00	0.2221	3.937		0.541880206	0.656555796	0.010091734	0.104114562	0.032089119
2019-12-02T15:05:00	0.2228	3.919		0.544113281	0.659722338	0.010168246	0.104903921	0.032332407
2019-12-02T15:10:00	0.2224	3.901		0.542954975	0.658079330	0.010128523	0.104494101	0.032206097
2019-12-02T15:15:00	0.2223	3.882		0.542474763	0.657398491	0.010112077	0.104324435	0.032153804
2019-12-02T15:20:00	0.2230	3.866		0.544707454	0.660565575	0.010188653	0.105114460	0.032397297
2019-12-02T15:25:00	0.2232	3.852		0.545583362	0.661809169	0.010218775	0.105425217	0.032493076
2019-12-02T15:30:00	0.2227	3.843		0.543747449	0.659203303	0.010155692	0.104774398	0.032292487
2019-12-02T15:35:00	0.2224	3.836		0.542928200	0.658041364	0.010127605	0.104484637	0.032203180
2019-12-02T15:40:00	0.2215	3.829		0.539733242	0.653515206	0.010018448	0.103358482	0.031856088
2019-12-02T15:45:00	0.2208	3.820		0.537554551	0.650433533	0.009944354	0.102594071	0.031620489
2019-12-02T15:50:00	0.2206	3.811		0.536733835	0.649273667	0.009916515	0.102306859	0.031531967
2019-12-02T15:55:00	0.2210	3.798		0.537951429	0.650994613	0.009957831	0.102733106	0.031663341
2019-12-02T16:00:00	0.2220	3.790		0.541544498	0.656080109	0.010080257	0.103996155	0.032052625
2019-12-02T16:05:00	0.2214	3.785		0.539324955	0.652937405	0.010004542	0.103215013	0.031811869
2019-12-02T16:10:00	0.2207	3.783		0.537103987	0.649796712	0.009929066	0.102436345	0.031571876
2019-12-02T16:15:00	0.2197	3.784		0.533521513	0.644739182	0.009807929	0.101186599	0.031186693
2019-12-02T16:20:00	0.2191	3.784		0.531637099	0.642083074	0.009744511	0.100532323	0.030985038
2019-12-02T16:25:00	0.2191	3.781		0.531793800	0.642303836	0.009749777	0.100586649	0.031001782
2019-12-02T16:30:00	0.2187	3.780		0.530248868	0.640128193	0.009697924	0.100051691	0.030836903
2019-12-02T16:35:00	0.2184	3.779		0.529384300	0.638911517	0.009668967	0.099752947	0.030744827
2019-12-02T16:40:00	0.2193	3.775		0.532263861	0.642966183	0.009765581	0.100749701	0.031052036
2019-12-02T16:45:00	0.2200	3.776		0.534801079	0.646544397	0.009851110	0.101632088	0.031323996
2019-12-02T16:50:00	0.2209	3.778		0.537676128	0.650605396	0.009948482	0.102636652	0.031633613
2019-12-02T16:55:00	0.2215	3.777		0.539869930	0.653708675	0.010023106	0.103406535	0.031870898
2019-12-02T17:00:00	0.2215	3.776		0.539686794	0.653449467	0.010016866	0.103342155	0.031851056
2019-12-02T17:05:00	0.2210	3.772		0.538145389	0.651268867	0.009964420	0.102801088	0.031684294
2019-12-02T17:10:00	0.2224	3.771		0.542713994	0.657737646	0.010120268	0.104408941	0.032179850
2019-12-02T17:15:00	0.2234	3.772		0.546260219	0.662770585	0.010242082	0.105665672	0.032567186
2019-12-02T17:20:00	0.2232	3.772		0.545399645	0.661548280	0.010212453	0.105359999	0.032472975
2019-12-02T17:25:00	0.2226	3.776		0.543521694	0.658883060	0.010147948	0.104694510	0.032267865
2019-12-02T17:30:00	0.2215	3.779		0.539945865	0.653816160	0.010025694	0.103433235	0.031879128
2019-12-02T17:35:00	0.2219	3.782		0.541120359	0.655479249	0.010065766	0.103846654	0.032006547
2019-12-02T17:40:00	0.2211	3.786		0.538560970	0.651856591	0.009978547	0.102946825	0.031729211
2019-12-02T17:45:00	0.2217	3.789		0.540414818	0.654480065	0.010041684	0.103598206	0.031929973
2019-12-02T17:50:00	0.2219	3.793		0.541249843	0.655662668	0.010070189	0.103892283	0.032020611
2019-12-02T17:55:00	0.2217	3.797		0.540388024	0.654442127	0.010040770	0.103588776	0.031927067
2019-12-02T18:00:00	0.2225	3.799		0.543258435	0.658509669	0.010138922	0.104601390	0.032239164
2019-12-02T18:05:00	0.2225	3.803		0.543075479	0.658250208	0.010132652	0.104536698	0.032219226
2019-12-02T18:10:00	0.2225	3.805		0.543231662	0.658471700	0.010138004	0.104591922	0.032236246
2019-12-02T18:15:00	0.2221	3.806		0.541691835	0.656288870	0.010085293	0.104048114	0.032068639
2019-12-02T18:20:00	0.2220	3.806		0.541508796	0.656029526	0.010079037	0.103983566	0.032048745
2019-12-02T18:25:00	0.2229	3.805		0.544378279	0.660098382	0.010177345	0.104997794	0.032361340
2019-12-02T18:30:00	0.2242	3.805		0.548938678	0.666578786	0.010334576	0.106619921	0.032861295
2019-12-02T18:35:00	0.2233	3.805		0.546046218	0.662466575	0.010234710	0.105589618	0.032543746
2019-12-02T18:40:00	0.2229	3.805		0.544507642	0.660281973	0.010181788	0.105043634	0.032375468
2019-12-02T18:45:00	0.2222	3.801		0.542289998	0.657136583	0.010105753	0.104259192	0.032133695
2019-12-02T18:50:00	0.2220	3.799		0.541428438	0.655915676	0.010076291	0.103955235	0.032040013
2019-12-02T18:55:00	0.2224	3.797		0.542941607	0.658060374	0.010128065	0.104489376	0.032204640
2019-12-02T19:00:00	0.2227	3.797		0.543776022	0.659243838	0.010156672	0.104784512	0.032295604
2019-12-02T19:05:00	0.2231	3.799		0.545288167	0.661389988	0.010208618	0.105320435	0.032460781
2019-12-02T19:10:00	0.2238	3.802		0.547477154	0.664500081	0.010284054	0.106098689	0.032700646
2019-12-02T19:15:00	0.2236	3.804		0.546955668	0.663758802	0.010266057	0.105913021	0.032643422
2019-12-02T19:20:00	0.2238	3.805		0.547450414	0.664462065	0.010283131	0.106089165	0.032697711
2019-12-02T19:25:00	0.2228	3.807		0.544217693	0.659870497	0.010171831	0.104940902	0.032343805
2019-12-02T19:30:00	0.2225	3.808		0.543017475	0.658167955	0.010130664	0.104516193	0.032212906
2019-12-02T19:35:00	0.2223	3.811		0.542495317	0.657427629	0.010112781	0.104331694	0.032156041
2019-12-02T19:40:00	0.2226	3.813		0.543668947	0.659091940	0.010152999	0.104746615	0.032283924
2019-12-02T19:45:00	0.2230	3.813		0.544842179	0.660756814	0.010193284	0.105162228	0.032412020
2019-12-02T19:50:00	0.2215	3.812		0.539910147	0.653765601	0.010024476	0.103420676	0.031875257
2019-12-02T19:55:00	0.2202	3.813		0.535311001	0.647264169	0.009868345	0.101809895	0.031378798
2019-12-02T20:00:00	0.2196	3.814		0.533427564	0.644606690	0.009804763	0.101153929	0.031176623
2019-12-02T20:05:00	0.2191	3.818		0.531543098	0.641950654	0.009741353	0.100499742	0.030974996
2019-12-02T20:10:00	0.2191	3.823		0.531699804	0.642171410	0.009746618	0.100554060	0.030991738
2019-12-02T20:15:00	0.2194	3.823		0.532536936	0.643351046	0.009774768	0.100844484	0.031081249
2019-12-02T20:20:00	0.2202	3.825		0.535413870	0.647409397	0.009871824	0.101845784	0.031389860
2019-12-02T20:25:00	0.2202	3.830		0.535230498	0.647150522	0.009865623	0.101781814	0.031370144
2019-12-02T20:30:00	0.2200	3.833		0.534707164	0.646411856	0.009847938	0.101599357	0.031313909
2019-12-02T20:35:00	0.2212	3.834		0.538601202	0.651913496	0.009979915	0.102960939	0.031733561
2019-12-02T20:40:00	0.2223	3.836		0.542490861	0.657421311	0.010112628	0.104330120	0.032155556
2019-12-02T20:45:00	0.2232	3.836		0.545698439	0.661972599	0.010222736	0.105466079	0.032505670
2019-12-02T20:50:00	0.2234	3.834		0.546193364	0.662675608	0.010239779	0.105641910	0.032559863
2019-12-02T20:55:00	0.2228	3.836		0.544315843	0.660009777	0.010175201	0.104975672	0.032354522
2019-12-02T21:00:00	0.2232	3.832		0.545488856	0.661674962	0.010215523	0.105391666	0.032482735
2019-12-02T21:05:00	0.2229	3.827		0.544628091	0.660452928	0.010185926	0.105086326	0.032388626
2019-12-02T21:10:00	0.2218	3.828		0.540714042	0.654903775	0.010051894	0.103703538	0.031962437
2019-12-02T21:15:00	0.2211	3.828		0.538493966	0.651761823	0.009976268	0.102923321	0.031721967
2019-12-02T21:20:00	0.2186	3.829		0.529809921	0.639510402	0.009683217	0.099899960	0.030790138
2019-12-02T21:25:00	0.2184	3.827		0.529285763	0.638772889	0.009665669	0.099718927	0.030734342
2019-12-02T21:30:00	0.2186	3.829		0.529783044	0.639472579	0.009682316	0.099890674	0.030787276
2019-12-02T21:35:00	0.2187	3.831		0.530280252	0.640172370	0.009698976	0.100062544	0.030840248
2019-12-02T21:40:00	0.2187	3.834		0.530437015	0.640393046	0.009704231	0.100116763	0.030856959
2019-12-02T21:45:00	0.2186	3.840		0.529912953	0.639655400	0.009686668	0.099935565	0.030801112
2019-12-02T21:50:00	0.2183	3.844		0.529048301	0.638438842	0.009657725	0.099636966	0.030709081
2019-12-02T21:55:00	0.2186	3.847		0.529886077	0.639617576	0.009685767	0.099926277	0.030798249
2019-12-02T22:00:00	0.2185	3.848		0.529702412	0.639359114	0.009679616	0.099862815	0.030778690
2019-12-02T22:05:00	0.2190	3.849		0.531169496	0.641424429	0.009728806	0.100370301	0.030935102
2019-12-02T22:10:00	0.2197	3.846		0.533656328	0.644929316	0.009812474	0.101233489	0.031201145
2019-12-02T22:15:00	0.2210	3.848		0.538179741	0.651317442	0.009965588	0.102813131	0.031688005
2019-12-02T22:20:00	0.2224	3.849		0.542697244	0.657713898	0.010119695	0.104403023	0.032178026
2019-12-02T22:25:00	0.2213	3.849		0.539069453	0.652575892	0.009995844	0.103125283	0.031784214
2019-12-02T22:30:00	0.2217	3.850		0.540532566	0.654646790	0.010045701	0.103639648	0.031942746
2019-12-02T22:35:00	0.2226	3.850		0.543351811	0.658642101	0.010142123	0.104634414	0.032249343
2019-12-02T22:40:00	0.2217	3.845		0.540403593	0.654464171	0.010041301	0.103594255	0.031928756
2019-12-02T22:45:00	0.2209	3.838		0.537792545	0.650769977	0.009952435	0.102677434	0.031646182
2019-12-02T22:50:00	0.2204	3.834		0.536199143	0.648518316	0.009898399	0.102119960	0.031474363
2019-12-02T22:55:00	0.2205	3.825		0.536304487	0.648667115	0.009901967	0.102156769	0.031485708
2019-12-02T23:00:00	0.2207	3.818		0.537089365	0.649776048	0.009928570	0.102431228	0.031570299
2019-12-02T23:05:00	0.2208	3.817		0.537534390	0.650405034	0.009943670	0.102587011	0.031618313
2019-12-02T23:10:00	0.2210	3.818		0.537979358	0.651034102	0.009958780	0.102742893	0.031666358
2019-12-02T23:15:00	0.2211	3.818		0.538424269	0.651663250	0.009973899	0.102898875	0.031714433
2019-12-02T23:20:00	0.2218	3.818		0.540905887	0.655175471	0.010058443	0.103771098	0.031983260
2019-12-02T23:25:00	0.2217	3.816		0.540332320	0.654363258	0.010038870	0.103569175	0.031921025
2019-12-02T23:30:00	0.2211	3.816		0.538400498	0.651629631	0.009973091	0.102890538	0.031711863
2019-12-02T23:35:00	0.2216	3.814		0.540203340	0.654180649	0.010034472	0.103523795	0.031907039
2019-12-02T23:40:00	0.2222	3.794		0.542005243	0.656732993	0.010096011	0.104158681	0.032102717
2019-12-02T23:45:00	0.2212	3.793		0.538716319	0.652076325	0.009983830	0.103001330	0.031746010
2019-12-02T23:50:00	0.2221	3.794		0.541876325	0.656550297	0.010091602	0.104113193	0.032088697
2019-12-02T23:55:00	0.2213	3.752		0.539266388	0.652854533	0.010002548	0.103194441	0.031805529
2019-12-03T00:00:00	0.2212	3.747		0.538692549	0.652042703	0.009983021	0.102992989	0.031743440
2019-12-03T00:05:00	0.2214	3.741		0.539476886	0.653152399	0.010009715	0.103268388	0.031828320
2019-12-03T00:10:00	0.2212	3.735		0.538903082	0.652340520	0.009990183	0.103066876	0.031766212
2019-12-03T00:15:00	0.2212	3.733		0.538668780	0.652009082	0.009982213	0.102984649	0.031740869
2019-12-03T00:20:00	0.2211	3.731		0.538434462	0.651677666	0.009974245	0.102902450	0.031715534
2019-12-03T00:25:00	0.2210	3.731		0.538200128	0.651346272	0.009966280	0.102820278	0.031690208
2019-12-03T00:30:00	0.2205	3.732		0.536267114	0.648614326	0.009900701	0.102143709	0.031481683
2019-12-03T00:35:00	0.2214	3.734		0.539429358	0.653085141	0.010008097	0.103251690	0.031823174
2019-12-03T00:40:00	0.2226	3.733		0.543606152	0.659002862	0.010150845	0.104724394	0.032277075
2019-12-03T00:45:00	0.2220	3.699		0.541336855	0.655785931	0.010073162	0.103922951	0.032030063
2019-12-03T00:50:00	0.2214	3.684		0.539405594	0.653051512	0.010007288	0.103243341	0.031820600
2019-12-03T00:55:00	0.2224	3.672		0.542904153	0.658007266	0.010126782	0.104476138	0.032200560
2019-12-03T01:00:00	0.2217	3.671		0.540634395	0.654790985	0.010049176	0.103675495	0.031953795
2019-12-03T01:05:00	0.2221	3.663		0.541757586	0.656382037	0.010087541	0.104071305	0.032075787
2019-12-03T01:10:00	0.2215	3.660		0.539826559	0.653647286	0.010021628	0.103391287	0.031866199
2019-12-03T01:15:00	0.2215	3.660		0.539931793	0.653796241	0.010025214	0.103428287	0.031877603
2019-12-03T01:20:00	0.2218	3.655		0.540715849	0.654906333	0.010051956	0.103704174	0.031962633
2019-12-03T01:25:00	0.2222	3.653		0.542178266	0.656978215	0.010101930	0.104219748	0.032121538
2019-12-03T01:30:00	0.2225	3.658		0.543300956	0.658569974	0.010140380	0.104616427	0.032243799
2019-12-03T01:35:00	0.2227	3.664		0.543745183	0.659200088	0.010155614	0.104773596	0.032292240
2019-12-03T01:40:00	0.2226	3.664		0.543511208	0.658868187	0.010147589	0.104690800	0.032266721
2019-12-03T01:45:00	0.2221	3.664		0.541920438	0.656612810	0.010093110	0.104128757	0.032093494
2019-12-03T01:50:00	0.2221	3.664		0.541686340	0.656281083	0.010085106	0.104046175	0.032068042
2019-12-03T01:55:00	0.2221	3.664		0.541791517	0.656430118	0.010088702	0.104083274	0.032079476
2019-12-03T02:00:00	0.2220	3.665		0.541557410	0.656098404	0.010080698	0.104000708	0.032054028
2019-12-03T02:05:00	0.2216	3.666		0.539965742	0.653844297	0.010026371	0.103440225	0.031881282
2019-12-03T02:10:00	0.2223	3.666		0.542446255	0.657358079	0.010111101	0.104314367	0.032150701
2019-12-03T02:15:00	0.2216	3.669		0.540176197	0.654142223	0.010033546	0.103514246	0.031904096
2019-12-03T02:20:00	0.2219	3.670		0.541299537	0.655733065	0.010071887	0.103909798	0.032026009
2019-12-03T02:25:00	0.2220	3.672		0.541404725	0.655882083	0.010075481	0.103946876	0.032037437
2019-12-03T02:30:00	0.2229	3.670		0.544562280	0.660359521	0.010183665	0.105062999	0.032381437
2019-12-03T02:35:00	0.2229	3.669		0.544667370	0.660508679	0.010187276	0.105100249	0.032392918
2019-12-03T02:40:00	0.2227	3.667		0.543755360	0.659214526	0.010155963	0.104777198	0.032293350
2019-12-03T02:45:00	0.2223	3.662		0.542503923	0.657439829	0.010113075	0.104334734	0.032156978
2019-12-03T02:50:00	0.2216	3.655		0.540233903	0.654223919	0.010035514	0.103534547	0.031910353
2019-12-03T02:55:00	0.2215	3.647		0.539660225	0.653411863	0.010015960	0.103332817	0.031848178
2019-12-03T03:00:00	0.2212	3.643		0.538746895	0.652119577	0.009984870	0.103012060	0.031749317
2019-12-03T03:05:00	0.2225	3.640		0.543263659	0.658517078	0.010139101	0.104603237	0.032239734
2019-12-03T03:10:00	0.2215	3.640		0.539636462	0.653378232	0.010015151	0.103324465	0.031845604
2019-12-03T03:15:00	0.2217	3.641		0.540420585	0.654488230	0.010041881	0.103600235	0.031930599
2019-12-03T03:20:00	0.2226	3.641		0.543579036	0.658964399	0.010149915	0.104714799	0.032274118
2019-12-03T03:25:00	0.2232	3.641		0.545718091	0.662000510	0.010223412	0.105473058	0.032507821
2019-12-03T03:30:00	0.2241	3.638		0.548533123	0.666001795	0.010320545	0.106475156	0.032816677
2019-12-03T03:35:00	0.2238	3.637		0.547622130	0.664706199	0.010289060	0.106150335	0.032716564
2019-12-03T03:40:00	0.2238	3.636		0.547727127	0.664855489	0.010292686	0.106187747	0.032728095
2019-12-03T03:45:00	0.2238	3.637		0.547493421	0.664523207	0.010284616	0.106104483	0.032702432
2019-12-03T03:50:00	0.2240	3.637		0.548275768	0.665635721	0.010311645	0.106383343	0.032788379
2019-12-03T03:55:00	0.2235	3.639		0.546687183	0.663377244	0.010256798	0.105817495	0.032613980
2019-12-03T04:00:00	0.2238	3.640		0.547469712	0.664489500	0.010283797	0.106096038	0.032699829
2019-12-03T04:05:00	0.2238	3.638		0.547472743	0.664493808	0.010283902	0.106097118	0.032700162
2019-12-03T04:10:00	0.2230	3.639		0.544764969	0.660647215	0.010190630	0.105134851	0.032403582
2019-12-03T04:15:00	0.2232	3.641		0.545445902	0.661613964	0.010214045	0.105376418	0.032478035
2019-12-03T04:20:00	0.2241	3.643		0.548497839	0.665951602	0.010319324	0.106462565	0.032812797
2019-12-03T04:25:00	0.2248	3.644		0.550870386	0.669328916	0.010401545	0.107310821	0.033074237
2019-12-03T04:30:00	0.2246	3.645		0.550196575	0.668369278	0.010378160	0.107069567	0.032999880
2019-12-03T04:35:00	0.2248	3.642		0.550876442	0.669337542	0.010401755	0.107312990	0.033074906
2019-12-03T04:40:00	0.2257	3.641		0.553923612	0.673681972	0.010507841	0.108407457	0.033412231
2019-12-03T04:45:00	0.2260	3.639		0.554940758	0.675133842	0.010543374	0.108774043	0.033525217
2019-12-03T04:50:00	0.2250	3.639		0.551562231	0.670314624	0.010425583	0.107558818	0.033150672
2019-12-03T04:55:00	0.2261	3.640		0.555284781	0.675625091	0.010555406	0.108898173	0.033563475
2019-12-03T05:00:00	0.2261	3.643		0.555287805	0.675629409	0.010555511	0.108899265	0.033563811
2019-12-03T05:05:00	0.2257	3.647		0.553938738	0.673703556	0.010508369	0.108412904	0.033413910
2019-12-03T05:10:00	0.2255	3.649		0.553265521	0.672743069	0.010484884	0.108170611	0.033339233
2019-12-03T05:15:00	0.2250	3.653		0.551577367	0.670336194	0.010426109	0.107564247	0.033152345
2019-12-03T05:20:00	0.2248	3.654		0.550903692	0.669376360	0.010402701	0.107322753	0.033077915
2019-12-03T05:25:00	0.2260	3.651		0.554964952	0.675168387	0.010544220	0.108782771	0.033527906
2019-12-03T05:30:00	0.2262	3.649		0.555643888	0.676137983	0.010567972	0.109027823	0.033603434
2019-12-03T05:35:00	0.2268	3.652		0.557673857	0.679039267	0.010639153	0.109762180	0.033829770
2019-12-03T05:40:00	0.2270	3.645		0.558352264	0.680009621	0.010662995	0.110008157	0.033905582
2019-12-03T05:45:00	0.2263	3.634		0.555990864	0.676633651	0.010580122	0.109153167	0.033642066
2019-12-03T05:50:00	0.2253	3.619		0.552613357	0.671812974	0.010462158	0.107936157	0.033266972
2019-12-03T05:55:00	0.2263	3.604		0.555996911	0.676642290	0.010580334	0.109155352	0.033642740
2019-12-03T06:00:00	0.2262	3.594		0.555662030	0.676163897	0.010568607	0.109034375	0.033605453
2019-12-03T06:05:00	0.2269	3.592		0.558029696	0.679548191	0.010651655	0.109891166	0.033869524
2019-12-03T06:10:00	0.2279	3.590		0.561407993	0.684385049	0.010770724	0.111119570	0.034248131
2019-12-03T06:15:00	0.2278	3.590		0.561073631	0.683905910	0.010758909	0.110997682	0.034210563
2019-12-03T06:20:00	0.2290	3.591		0.565123057	0.689714931	0.010902438	0.112478442	0.034666948
2019-12-03T06:25:00	0.2289	3.583		0.564789051	0.689235278	0.010890563	0.112355928	0.034629188
2019-12-03T06:30:00	0.2288	3.570		0.564455014	0.688755672	0.010878693	0.112233470	0.034591445
2019-12-03T06:35:00	0.2298	3.561		0.567827098	0.693601492	0.010998819	0.113472792	0.034973417
2019-12-03T06:40:00	0.2309	3.557		0.571532337	0.698936901	0.011131589	0.114842548	0.035395589
2019-12-03T06:45:00	0.2306	3.561		0.570526039	0.697486745	0.011095450	0.114469711	0.035280676
2019-12-03T06:50:00	0.2314	3.567		0.573219890	0.701370680	0.011192328	0.115469181	0.035588723
2019-12-03T06:55:00	0.2310	3.571		0.571877738	0.699434844	0.011144007	0.114970663	0.035435075
2019-12-03T07:00:00	0.2314	3.573		0.573225907	0.701379362	0.011192545	0.115471419	0.035589413
2019-12-03T07:05:00	0.2322	3.574		0.575917684	0.705266319	0.011289778	0.116474556	0.035898589
2019-12-03T07:10:00	0.2319	3.575		0.574912645	0.703814328	0.011253423	0.116099493	0.035782991
2019-12-03T07:15:00	0.2321	3.575		0.575587714	0.704789515	0.011277835	0.116351349	0.035860616
2019-12-03T07:20:00	0.2331	3.578		0.578949096	0.709650903	0.011399794	0.117609569	0.036248411
2019-12-03T07:25:00	0.2326	3.582		0.577273315	0.707226139	0.011338909	0.116981433	0.036054814
2019-12-03T07:30:00	0.2324	3.588		0.576604582	0.706259169	0.011314659	0.116731250	0.035977705
2019-12-03T07:35:00	0.2322	3.592		0.575935721	0.705292385	0.011290431	0.116481293	0.035900666
2019-12-03T07:40:00	0.2326	3.597		0.577282330	0.707239177	0.011339236	0.116984808	0.036055854
2019-12-03T07:45:00	0.2323	3.603		0.576277682	0.705786615	0.011302814	0.116609052	0.035940042
2019-12-03T07:50:00	0.2328	3.609		0.577959947	0.708219377	0.011363836	0.117238597	0.036134074
2019-12-03T07:55:00	0.2325	3.617		0.576955493	0.706766531	0.011327381	0.116862497	0.036018157
2019-12-03T08:00:00	0.2321	3.626		0.575614771	0.704828610	0.011278814	0.116361450	0.035863729
2019-12-03T08:05:00	0.2317	3.636		0.574273537	0.702891437	0.011230336	0.115861310	0.035709581
2019-12-03T08:10:00	0.2322	3.646		0.575956764	0.705322795	0.011291193	0.116489153	0.035903088
2019-12-03T08:15:00	0.2322	3.657		0.575959770	0.705327139	0.011291301	0.116490276	0.035903434
2019-12-03T08:20:00	0.2331	3.669		0.578985139	0.709703080	0.011401105	0.117623098	0.036252581
2019-12-03T08:25:00	0.2325	3.682		0.576973525	0.706792605	0.011328034	0.116869243	0.036020236
2019-12-03T08:30:00	0.2326	3.698		0.577312380	0.707282637	0.011340326	0.116996056	0.036059321
2019-12-03T08:35:00	0.2322	3.716		0.575971794	0.705344516	0.011291737	0.116494767	0.035904819
2019-12-03T08:40:00	0.2331	3.736		0.578997153	0.709720473	0.011401542	0.117627608	0.036253971
2019-12-03T08:45:00	0.2321	3.755		0.575641829	0.704867705	0.011279794	0.116371551	0.035866842
2019-12-03T08:50:00	0.2328	3.774		0.577996000	0.708271539	0.011365145	0.117252108	0.036138238
2019-12-03T08:55:00	0.2327	3.791		0.577663221	0.707790103	0.011353060	0.117127429	0.036099811
2019-12-03T09:00:00	0.2335	3.809		0.580351595	0.711682033	0.011450877	0.118136591	0.036410845
2019-12-03T09:05:00	0.2336	3.825		0.580690124	0.712172543	0.011463225	0.118263982	0.036450108
2019-12-03T09:10:00	0.2347	3.844		0.584381801	0.717527760	0.011598321	0.119657744	0.036879679
2019-12-03T09:15:00	0.2344	3.861		0.583379183	0.716072222	0.011561551	0.119278387	0.036762757
2019-12-03T09:20:00	0.2355	3.880		0.587068040	0.721431590	0.011697133	0.120677163	0.037193874
2019-12-03T09:25:00	0.2363	3.899		0.589749235	0.725334080	0.011796187	0.121699087	0.037508841
2019-12-03T09:30:00	0.2361	3.913		0.589082871	0.724363626	0.011771529	0.121444693	0.037430434
2019-12-03T09:35:00	0.2364	3.926		0.590089855	0.725830283	0.011808802	0.121829229	0.037548951
2019-12-03T09:40:00	0.2355	3.941		0.587080026	0.721449023	0.011697575	0.120681722	0.037195279
2019-12-03T09:45:00	0.2352	3.956		0.586078176	0.719992353	0.011660671	0.120300998	0.037077936
2019-12-03T09:50:00	0.2349	3.964		0.585076041	0.718536103	0.011623817	0.119920781	0.036960749
2019-12-03T09:55:00	0.2344	3.972		0.583403181	0.716107052	0.011562430	0.119287460	0.036765554
2019-12-03T10:00:00	0.2342	3.985		0.582735614	0.715138371	0.011537980	0.119035208	0.036687807
2019-12-03T10:05:00	0.2340	4.001		0.581919468	0.713954595	0.011508123	0.118727183	0.036592871
2019-12-03T10:10:00	0.2333	4.020		0.579760991	0.710826509	0.011429351	0.117914511	0.036342398
2019-12-03T10:15:00	0.2334	4.036		0.579951041	0.711101776	0.011436276	0.117985951	0.036364416
2019-12-03T10:20:00	0.2324	4.050		0.576447946	0.706032731	0.011308983	0.116672690	0.035959656
2019-12-03T10:25:00	0.2315	4.062		0.573613788	0.701939096	0.011206529	0.115615696	0.035633880
2019-12-03T10:30:00	0.2316	4.073		0.573804172	0.702213876	0.011213397	0.115686546	0.035655717
2019-12-03T10:35:00	0.2308	4.089		0.571304299	0.698608207	0.011123394	0.114758005	0.035369532
2019-12-03T10:40:00	0.2308	4.108		0.571158401	0.698397931	0.011118153	0.114703931	0.035352866
2019-12-03T10:45:00	0.2308	4.132		0.571348918	0.698672516	0.011124997	0.114774544	0.035374629
2019-12-03T10:50:00	0.2309	4.157		0.571539424	0.698947117	0.011131843	0.114845176	0.035396399
2019-12-03T10:55:00	0.2304	4.177		0.569711124	0.696313002	0.011066228	0.114168234	0.035187759
2019-12-03T11:00:00	0.2303	4.197		0.569565159	0.696102823	0.011060998	0.114114277	0.035171128
2019-12-03T11:05:00	0.2301	4.214		0.568745940	0.694923533	0.011031668	0.113811690	0.035077868
2019-12-03T11:10:00	0.2300	4.231		0.568599935	0.694713412	0.011026445	0.113757804	0.035061260
2019-12-03T11:15:00	0.2303	4.246		0.569463830	0.695956926	0.011057368	0.114076828	0.035159586
2019-12-03T11:20:00	0.2298	4.261		0.567971191	0.693808769	0.011003967	0.113525904	0.034989786
2019-12-03T11:25:00	0.2297	4.271		0.567488392	0.693114334	0.010986723	0.113347996	0.034934953
2019-12-03T11:30:00	0.2292	4.279		0.565994910	0.690967399	0.010933467	0.112798559	0.034765611
2019-12-03T11:35:00	0.2295	4.290		0.566859449	0.692209980	0.010964279	0.113116449	0.034863588
2019-12-03T11:40:00	0.2298	4.303		0.567723774	0.693452871	0.010995129	0.113434715	0.034961681
2019-12-03T11:45:00	0.2295	4.319		0.566904124	0.692274207	0.010965873	0.113132888	0.034868655
2019-12-03T11:50:00	0.2296	4.341		0.567094872	0.692548456	0.010972678	0.113203092	0.034890293
2019-12-03T11:55:00	0.2297	4.358		0.567622391	0.693307052	0.010991508	0.113397360	0.034950168
2019-12-03T12:00:00	0.2295	4.373		0.566802717	0.692128423	0.010962256	0.113095575	0.034857155
2019-12-03T12:05:00	0.2287	4.386		0.564297833	0.688530026	0.010873110	0.112175871	0.034573693
2019-12-03T12:10:00	0.2280	4.388		0.561791151	0.684934227	0.010784271	0.111259331	0.034291206
2019-12-03T12:15:00	0.2276	4.393		0.560295228	0.682790816	0.010731430	0.110714184	0.034123187
2019-12-03T12:20:00	0.2271	4.401		0.558798663	0.680648329	0.010678699	0.110170165	0.033955515
2019-12-03T12:25:00	0.2276	4.406		0.560339987	0.682854922	0.010733009	0.110730476	0.034128208
2019-12-03T12:30:00	0.2275	4.408		0.560193629	0.682645309	0.010727846	0.110677209	0.034111791
2019-12-03T12:35:00	0.2263	4.402		0.555994959	0.676639501	0.010580265	0.109154647	0.033642522
2019-12-03T12:40:00	0.2264	4.386		0.556524160	0.677395674	0.010598809	0.109345961	0.033701487
2019-12-03T12:45:00	0.2264	4.371		0.556377642	0.677186292	0.010593673	0.109292976	0.033685156
2019-12-03T12:50:00	0.2262	4.352		0.555555320	0.676011477	0.010564872	0.108995840	0.033593576
2019-12-03T12:55:00	0.2263	4.334		0.556084587	0.676767554	0.010583405	0.109187037	0.033652505
2019-12-03T13:00:00	0.2267	4.325		0.557289366	0.678489483	0.010625652	0.109622896	0.033786841
2019-12-03T13:05:00	0.2267	4.326		0.557480641	0.678762973	0.010632367	0.109692175	0.033808194
2019-12-03T13:10:00	0.2259	4.323		0.554631044	0.674691667	0.010532548	0.108662354	0.033490793
2019-12-03T13:15:00	0.2257	4.318		0.554146394	0.673999898	0.010515618	0.108487695	0.033436961
2019-12-03T13:20:00	0.2256	4.312		0.553661677	0.673308225	0.010498700	0.108313155	0.033383166
2019-12-03T13:25:00	0.2263	4.310		0.555881142	0.676476897	0.010576279	0.109113522	0.033629847
2019-12-03T13:30:00	0.2266	4.314		0.557085990	0.678198725	0.010618515	0.109549258	0.033764145
2019-12-03T13:35:00	0.2256	4.331		0.553559885	0.673162996	0.010495149	0.108276519	0.033371875
2019-12-03T13:40:00	0.2253	4.345		0.552736897	0.671989135	0.010466461	0.107980550	0.033280654
2019-12-03T13:45:00	0.2254	4.352		0.552928423	0.672262266	0.010473134	0.108049391	0.033301872
2019-12-03T13:50:00	0.2251	4.350		0.552105285	0.671088619	0.010444471	0.107753683	0.033210732
2019-12-03T13:55:00	0.2252	4.350		0.552296846	0.671361701	0.010451138	0.107822463	0.033231930
2019-12-03T14:00:00	0.2258	4.350		0.554517181	0.674529127	0.010528569	0.108621307	0.033478142
2019-12-03T14:05:00	0.2261	4.352		0.555384571	0.675767604	0.010558897	0.108934193	0.033574576
2019-12-03T14:10:00	0.2258	4.348		0.554223970	0.674110614	0.010518327	0.108515643	0.033445575
2019-12-03T14:15:00	0.2259	4.343		0.554753440	0.674866401	0.010536825	0.108706485	0.033504395
2019-12-03T14:20:00	0.2263	4.336		0.555958679	0.676587669	0.010578995	0.109141537	0.033638482
2019-12-03T14:25:00	0.2269	4.322		0.558176680	0.679758439	0.010656822	0.109944467	0.033885953
2019-12-03T14:30:00	0.2272	4.307		0.559043158	0.680998223	0.010687304	0.110258949	0.033982879
2019-12-03T14:35:00	0.2278	4.290		0.561259196	0.684171813	0.010765465	0.111065319	0.034231410
2019-12-03T14:40:00	0.2282	4.271		0.562462187	0.685896311	0.010808016	0.111504313	0.034366712
2019-12-03T14:45:00	0.2283	4.253		0.562653179	0.686170209	0.010814780	0.111574090	0.034388218
2019-12-03T14:50:00	0.2276	4.234		0.560482784	0.683059452	0.010738048	0.110782459	0.034144230
2019-12-03T14:55:00	0.2269	4.217		0.557973356	0.679467607	0.010649675	0.109870738	0.033863229
2019-12-03T15:00:00	0.2255	4.196		0.553433885	0.672983241	0.010490754	0.108231180	0.033357901
2019-12-03T15:05:00	0.2260	4.174		0.554977585	0.675186425	0.010544661	0.108787328	0.033529311
2019-12-03T15:10:00	0.2258	4.153		0.554492984	0.674494586	0.010527724	0.108612585	0.033475454
2019-12-03T15:15:00	0.2266	4.131		0.557049721	0.678146876	0.010617242	0.109536128	0.033760098
2019-12-03T15:20:00	0.2261	4.109		0.555213813	0.675523743	0.010552923	0.108872561	0.033555581
2019-12-03T15:25:00	0.2254	4.085		0.553038775	0.672419651	0.010476979	0.108089066	0.033314100
2019-12-03T15:30:00	0.2257	4.060		0.553906533	0.673657601	0.010507245	0.108401307	0.033410336
2019-12-03T15:35:00	0.2262	4.033		0.555787949	0.676343767	0.010573016	0.109079856	0.033619471
2019-12-03T15:40:00	0.2265	4.006		0.556655022	0.677582698	0.010603397	0.109393296	0.033716076
2019-12-03T15:45:00	0.2272	3.980		0.559210172	0.681237264	0.010693185	0.110319618	0.034001578
2019-12-03T15:50:00	0.2282	3.956		0.562438045	0.685861692	0.010807162	0.111495495	0.034363994
2019-12-03T15:55:00	0.2284	3.935		0.562966268	0.686619270	0.010825872	0.111688523	0.034423488
2019-12-03T16:00:00	0.2290	3.925		0.565179816	0.689796449	0.010904457	0.112499268	0.034673367
2019-12-03T16:05:00	0.2287	3.917		0.564022473	0.688134773	0.010863333	0.112075002	0.034542604
2019-12-03T16:10:00	0.2285	3.908		0.563539128	0.687441128	0.010846182	0.111898056	0.034488068
2019-12-03T16:15:00	0.2278	3.899		0.561031900	0.683846116	0.010757435	0.110982474	0.034205876
2019-12-03T16:20:00	0.2276	3.891		0.560548141	0.683153070	0.010740354	0.110806256	0.034151564
2019-12-03T16:25:00	0.2279	3.883		0.561414030	0.684393702	0.010770937	0.111121772	0.034248809
2019-12-03T16:30:00	0.2276	3.878		0.560592897	0.683217180	0.010741934	0.110822553	0.034156587
2019-12-03T16:35:00	0.2269	3.870		0.558083548	0.679625221	0.010653548	0.109910693	0.033875543
2019-12-03T16:40:00	0.2267	3.861		0.557261630	0.678449828	0.010624679	0.109612852	0.033783745
2019-12-03T16:45:00	0.2271	3.854		0.558803634	0.680655443	0.010678874	0.110171970	0.033956071
2019-12-03T16:50:00	0.2279	3.853		0.561357210	0.684312272	0.010768929	0.111101053	0.034242424
2019-12-03T16:55:00	0.2285	3.852		0.563571779	0.687487978	0.010847340	0.111910004	0.034491750
2019-12-03T17:00:00	0.2280	3.851		0.561739304	0.684859908	0.010782437	0.111240414	0.034285376
2019-12-03T17:05:00	0.2266	3.850		0.557204742	0.678368496	0.010622682	0.109592252	0.033777396
2019-12-03T17:10:00	0.2269	3.848		0.558071462	0.679607933	0.010653123	0.109906310	0.033874192
2019-12-03T17:15:00	0.2270	3.846		0.558262695	0.679881484	0.010659846	0.109975665	0.033895568
2019-12-03T17:20:00	0.2282	3.844		0.562503366	0.685955362	0.010809474	0.111519356	0.034371348
2019-12-03T17:25:00	0.2289	3.841		0.564717207	0.689132118	0.010888009	0.112329584	0.034621069
2019-12-03T17:30:00	0.2285	3.839		0.563559712	0.687470663	0.010846912	0.111905588	0.034490389
2019-12-03T17:35:00	0.2301	3.840		0.568804051	0.695007167	0.011033748	0.113833140	0.035084479
2019-12-03T17:40:00	0.2314	3.840		0.573368178	0.701584653	0.011197673	0.115524328	0.035605720
2019-12-03T17:45:00	0.2308	3.839		0.571204430	0.698464269	0.011119806	0.114720990	0.035358123
2019-12-03T17:50:00	0.2294	3.840		0.566345284	0.691470909	0.010945949	0.112927336	0.034805302
2019-12-03T17:55:00	0.2288	3.840		0.564514265	0.688840737	0.010880798	0.112255186	0.034598139
2019-12-03T18:00:00	0.2287	3.841		0.564030988	0.688146994	0.010863635	0.112078120	0.034543565
2019-12-03T18:05:00	0.2282	3.843		0.562536026	0.686002198	0.010810631	0.111531287	0.034375026
2019-12-03T18:10:00	0.2282	3.845		0.562389760	0.685792453	0.010805452	0.111477858	0.034358559
2019-12-03T18:15:00	0.2286	3.845		0.563929498	0.688001330	0.010860033	0.112040954	0.034532110
2019-12-03T18:20:00	0.2287	3.844		0.564120410	0.688275344	0.010866810	0.112110873	0.034553660
2019-12-03T18:25:00	0.2287	3.844		0.563974211	0.688065503	0.010861620	0.112057327	0.034537157
2019-12-03T18:30:00	0.2297	3.846		0.567534471	0.693180602	0.010988368	0.113364970	0.034940185
2019-12-03T18:35:00	0.2299	3.849		0.568061923	0.693939294	0.011007210	0.113559354	0.035000096
2019-12-03T18:40:00	0.2301	3.850		0.568925951	0.695182616	0.011038110	0.113878143	0.035098350
2019-12-03T18:45:00	0.2299	3.853		0.568106583	0.694003544	0.011008806	0.113575820	0.035005171
2019-12-03T18:50:00	0.2303	3.857		0.569643803	0.696216063	0.011063816	0.114143347	0.035180088
2019-12-03T18:55:00	0.2296	3.860		0.567140956	0.692614717	0.010974322	0.113220057	0.034895521
2019-12-03T19:00:00	0.2298	3.861		0.568005211	0.693857708	0.011005183	0.113538445	0.034993652
2019-12-03T19:05:00	0.2291	3.862		0.565501189	0.690258064	0.010915890	0.112617224	0.034709722
2019-12-03T19:10:00	0.2284	3.864		0.562995371	0.686661017	0.010826903	0.111699164	0.034426767
2019-12-03T19:15:00	0.2281	3.868		0.562174610	0.685483959	0.010797837	0.111399291	0.034334343
2019-12-03T19:20:00	0.2281	3.872		0.562028330	0.685274235	0.010792661	0.111345889	0.034317884
2019-12-03T19:25:00	0.2288	3.877		0.564579547	0.688934464	0.010883117	0.112279116	0.034605514
2019-12-03T19:30:00	0.2291	3.882		0.565444436	0.690176538	0.010913870	0.112596388	0.034703300
2019-12-03T19:35:00	0.2282	3.887		0.562601345	0.686095872	0.010812944	0.111555151	0.034382381
2019-12-03T19:40:00	0.2277	3.892		0.560768360	0.683468537	0.010748128	0.110886457	0.034176283
2019-12-03T19:45:00	0.2271	3.898		0.558596790	0.680359469	0.010671596	0.110096886	0.033932930
2019-12-03T19:50:00	0.2275	3.904		0.560138204	0.682565933	0.010725891	0.110657040	0.034105575
2019-12-03T19:55:00	0.2269	3.909		0.557966242	0.679457431	0.010649425	0.109868159	0.033862434
2019-12-03T20:00:00	0.2270	3.916		0.558495142	0.680214034	0.010668020	0.110059998	0.033921560
2019-12-03T20:05:00	0.2277	3.922		0.560711529	0.683387122	0.010746122	0.110865757	0.034169903
2019-12-03T20:10:00	0.2281	3.928		0.562252008	0.685594931	0.010800576	0.111427551	0.034343053
2019-12-03T20:15:00	0.2276	3.933		0.560418839	0.682967861	0.010735791	0.110759180	0.034137055
2019-12-03T20:20:00	0.2285	3.937		0.563308430	0.687110122	0.010838000	0.111813650	0.034462053
2019-12-03T20:25:00	0.2292	3.941		0.565858711	0.690771701	0.010928616	0.112748521	0.034750189
2019-12-03T20:30:00	0.2297	3.948		0.567396921	0.692982787	0.010983457	0.113314306	0.034924570
2019-12-03T20:35:00	0.2294	3.954		0.566577194	0.691804235	0.010954215	0.113012614	0.034831585
2019-12-03T20:40:00	0.2294	3.959		0.566431098	0.691594245	0.010949007	0.112958888	0.034815026
2019-12-03T20:45:00	0.2299	3.964		0.568305770	0.694290124	0.011015926	0.113649277	0.035027811
2019-12-03T20:50:00	0.2294	3.971		0.566475778	0.691658464	0.010950600	0.112975318	0.034820090
2019-12-03T20:55:00	0.2299	3.977		0.568350426	0.694354377	0.011017522	0.113665749	0.035032888
2019-12-03T21:00:00	0.2303	3.983		0.569550978	0.696082404	0.011060490	0.114109036	0.035169513
2019-12-03T21:05:00	0.2306	3.990		0.570414638	0.697326259	0.011091453	0.114428474	0.035267967
2019-12-03T21:10:00	0.2308	3.995		0.571278085	0.698570424	0.011122452	0.114748288	0.035366537
2019-12-03T21:15:00	0.2305	4.003		0.570122760	0.696905823	0.011080984	0.114320467	0.035234678
2019-12-03T21:20:00	0.2300	4.009		0.568630402	0.694757257	0.011027535	0.113769047	0.035064725
2019-12-03T21:25:00	0.2299	4.014		0.568147695	0.694062691	0.011010275	0.113590979	0.035009843
2019-12-03T21:30:00	0.2302	4.021		0.569348316	0.695790616	0.011053231	0.114034144	0.035146431
2019-12-03T21:35:00	0.2299	4.026		0.568192353	0.694126942	0.011011871	0.113607448	0.035014919
2019-12-03T21:40:00	0.2294	4.032		0.566362302	0.691495368	0.010946555	0.112933593	0.034807230
2019-12-03T21:45:00	0.2285	4.037		0.563519958	0.687413621	0.010845502	0.111891041	0.034485905
2019-12-03T21:50:00	0.2285	4.042		0.563373734	0.687203817	0.010840316	0.111837540	0.034469416
2019-12-03T21:55:00	0.2283	4.046		0.562890299	0.686510302	0.010823180	0.111660752	0.034414928
2019-12-03T22:00:00	0.2297	4.048		0.567462149	0.693076592	0.010985786	0.113338330	0.034931974
2019-12-03T22:05:00	0.2299	4.051		0.568034273	0.693899516	0.011006222	0.113549159	0.034996954
2019-12-03T22:10:00	0.2296	4.054		0.567259366	0.692784980	0.010978548	0.113263652	0.034908957
2019-12-03T22:15:00	0.2298	4.057		0.567831523	0.693607856	0.010998977	0.113474423	0.034973919
2019-12-03T22:20:00	0.2304	4.060		0.569750083	0.696369103	0.011067624	0.114182637	0.035192198
2019-12-03T22:25:00	0.2310	4.062		0.572003950	0.699616821	0.011148546	0.115017495	0.035449509
2019-12-03T22:30:00	0.2317	4.063		0.574256367	0.702866648	0.011229716	0.115854914	0.035707610
2019-12-03T22:35:00	0.2319	4.067		0.574827381	0.703691186	0.011250342	0.116067702	0.035773193
2019-12-03T22:40:00	0.2320	4.068		0.575398302	0.704515858	0.011270983	0.116280655	0.035838827
2019-12-03T22:45:00	0.2324	4.069		0.576640991	0.706311806	0.011315979	0.116744864	0.035981901
2019-12-03T22:50:00	0.2324	4.070		0.576539866	0.706165611	0.011312314	0.116707054	0.035970247
2019-12-03T22:55:00	0.2326	4.070		0.577110509	0.706990691	0.011333003	0.116920500	0.036036034
2019-12-03T23:00:00	0.2327	4.069		0.577681058	0.707815907	0.011353708	0.117134110	0.036101870
2019-12-03T23:05:00	0.2329	4.069		0.578251515	0.708641259	0.011374429	0.117347885	0.036167758
2019-12-03T23:10:00	0.2329	4.071		0.578150437	0.708494997	0.011370756	0.117309992	0.036156079
2019-12-03T23:15:00	0.2326	4.069		0.577377766	0.707377206	0.011342699	0.117020534	0.036066865
2019-12-03T23:20:00	0.2324	4.068		0.576604924	0.706259664	0.011314671	0.116731378	0.035977744
2019-12-03T23:25:00	0.2330	4.066		0.578518685	0.709027900	0.011384140	0.117448073	0.036198637
2019-12-03T23:30:00	0.2329	4.063		0.578417615	0.708881627	0.011380466	0.117410167	0.036186954
2019-12-03T23:35:00	0.2340	4.058		0.582007712	0.714082562	0.011511349	0.118760468	0.036603130
2019-12-03T23:40:00	0.2337	4.054		0.580900415	0.712477291	0.011470899	0.118343151	0.036474509
2019-12-03T23:45:00	0.2336	4.047		0.580463897	0.711844742	0.011454973	0.118178843	0.036423867
2019-12-03T23:50:00	0.2338	4.041		0.581369363	0.713157011	0.011488021	0.118519796	0.036528952
2019-12-03T23:55:00	0.2342	4.036		0.582609940	0.714956051	0.011533379	0.118987750	0.036673180
2019-12-04T00:00:00	0.2344	4.033		0.583179597	0.715782576	0.011554238	0.119202944	0.036739505
2019-12-04T00:05:00	0.2341	4.031		0.582408031	0.714663163	0.011525991	0.118911524	0.036649687
2019-12-04T00:10:00	0.2336	4.027		0.580629892	0.712085263	0.011461028	0.118241311	0.036443120
2019-12-04T00:15:00	0.2339	4.023		0.581535316	0.713397595	0.011494083	0.118582340	0.036548229
2019-12-04T00:20:00	0.2335	4.018		0.580427869	0.711792543	0.011453659	0.118165288	0.036419689
2019-12-04T00:25:00	0.2347	4.017		0.584351091	0.717483164	0.011597194	0.119646115	0.036876094
2019-12-04T00:30:00	0.2349	4.014		0.584920466	0.718310104	0.011618101	0.119861810	0.036942574
2019-12-04T00:35:00	0.2346	4.014		0.583814086	0.716703484	0.011577493	0.119442864	0.036813451
2019-12-04T00:40:00	0.2339	4.012		0.581701260	0.713638190	0.011500147	0.118644897	0.036567510
2019-12-04T00:45:00	0.2331	4.009		0.578915867	0.709602799	0.011398585	0.117597097	0.036244567
2019-12-04T00:50:00	0.2325	4.005		0.576800091	0.706541831	0.011321746	0.116804365	0.036000240
2019-12-04T00:55:00	0.2324	4.000		0.576698971	0.706395630	0.011318080	0.116766546	0.035988583
2019-12-04T01:00:00	0.2323	3.993		0.576261930	0.705763847	0.011302244	0.116603165	0.035938228
2019-12-04T01:05:00	0.2322	3.986		0.575824834	0.705132143	0.011286417	0.116439881	0.035887902
2019-12-04T01:10:00	0.2329	3.976		0.578410542	0.708871391	0.011380209	0.117407515	0.036186136
2019-12-04T01:15:00	0.2333	3.965		0.579652164	0.710668898	0.011425387	0.117873613	0.036329792
2019-12-04T01:20:00	0.2333	3.954		0.579551126	0.710522577	0.011421707	0.117835649	0.036318091
2019-12-04T01:25:00	0.2335	3.938		0.580121279	0.711348373	0.011442481	0.118049962	0.036384145
2019-12-04T01:30:00	0.2339	3.920		0.581697727	0.713633068	0.011500018	0.118643565	0.036567099
2019-12-04T01:35:00	0.2342	3.904		0.582602875	0.714945803	0.011533121	0.118985082	0.036672358
2019-12-04T01:40:00	0.2340	3.888		0.581831183	0.713826577	0.011504896	0.118693888	0.036582609
2019-12-04T01:45:00	0.2333	3.871		0.579717164	0.710763035	0.011427755	0.117898040	0.036337321
2019-12-04T01:50:00	0.2340	3.851		0.581964635	0.714020093	0.011509774	0.118744219	0.036598121
2019-12-04T01:55:00	0.2326	3.831		0.577164943	0.707069411	0.011334977	0.116940871	0.036042312
2019-12-04T02:00:00	0.2317	3.812		0.574375945	0.703039295	0.011234034	0.115899459	0.035721339
2019-12-04T02:05:00	0.2318	3.793		0.574610863	0.703378505	0.011242519	0.115986994	0.035748318
2019-12-04T02:10:00	0.2313	3.773		0.572828766	0.700806394	0.011178235	0.115323792	0.035543913
2019-12-04T02:15:00	0.2311	3.754		0.572391242	0.700175314	0.011162482	0.115161265	0.035493820
2019-12-04T02:20:00	0.2312	3.735		0.572626294	0.700514330	0.011170944	0.115248565	0.035520727
2019-12-04T02:25:00	0.2307	3.714		0.570843187	0.697943690	0.011106833	0.114587148	0.035316872
2019-12-04T02:30:00	0.2308	3.694		0.571078342	0.698282555	0.011115277	0.114674265	0.035343722
2019-12-04T02:35:00	0.2296	3.675		0.567274243	0.692806373	0.010979079	0.113269130	0.034910646
2019-12-04T02:40:00	0.2296	3.654		0.567172847	0.692660573	0.010975460	0.113231797	0.034899140
2019-12-04T02:45:00	0.2296	3.636		0.567071449	0.692514778	0.010971842	0.113194470	0.034887635
2019-12-04T02:50:00	0.2294	3.620		0.566633204	0.691884745	0.010956212	0.113033215	0.034837935
2019-12-04T02:55:00	0.2296	3.603		0.567205464	0.692707472	0.010976624	0.113243805	0.034902841
2019-12-04T03:00:00	0.2294	3.586		0.566430373	0.691593203	0.010948981	0.112958621	0.034814944
2019-12-04T03:05:00	0.2298	3.571		0.568012991	0.693868901	0.011005461	0.113541314	0.034994536
2019-12-04T03:10:00	0.2297	3.556		0.567574865	0.693238697	0.010989811	0.113379850	0.034944771
2019-12-04T03:15:00	0.2293	3.541		0.566126104	0.691155922	0.010938140	0.112846770	0.034780470
2019-12-04T03:20:00	0.2300	3.524		0.568382307	0.694400250	0.011018662	0.113677509	0.035036512
2019-12-04T03:25:00	0.2294	3.508		0.566597034	0.691832753	0.010954922	0.113019911	0.034833834
2019-12-04T03:30:00	0.2289	3.493		0.564810849	0.689266578	0.010891337	0.112363921	0.034631652
2019-12-04T03:35:00	0.2286	3.477		0.563698100	0.687669246	0.010851821	0.111956237	0.034506000
2019-12-04T03:40:00	0.2281	3.459		0.562247729	0.685588797	0.010800425	0.111425989	0.034342572
2019-12-04T03:45:00	0.2275	3.441		0.560121843	0.682542504	0.010725314	0.110651087	0.034103740
2019-12-04T03:50:00	0.2281	3.424		0.562044643	0.685297623	0.010793238	0.111351844	0.034319720
2019-12-04T03:55:00	0.2284	3.406		0.563292084	0.687086672	0.010837421	0.111807671	0.034460210
2019-12-04T04:00:00	0.2289	3.392		0.564876125	0.689360313	0.010893658	0.112387860	0.034639030
2019-12-04T04:05:00	0.2289	3.379		0.564777676	0.689218944	0.010890158	0.112351756	0.034627902
2019-12-04T04:10:00	0.2287	3.365		0.564005062	0.688109783	0.010862715	0.112068626	0.034540639
2019-12-04T04:15:00	0.2294	3.354		0.566602528	0.691840651	0.010955118	0.113021932	0.034834457
2019-12-04T04:20:00	0.2289	3.341		0.564819361	0.689278802	0.010891640	0.112367043	0.034632614
2019-12-04T04:25:00	0.2291	3.330		0.565394933	0.690105430	0.010912109	0.112578217	0.034697700
2019-12-04T04:30:00	0.2290	3.314		0.565296499	0.689964040	0.010908607	0.112542087	0.034686564
2019-12-04T04:35:00	0.2291	3.302		0.565535043	0.690306695	0.010917095	0.112629653	0.034713553
2019-12-04T04:40:00	0.2291	3.294		0.565436612	0.690165299	0.010913592	0.112593516	0.034702415
2019-12-04T04:45:00	0.2287	3.283		0.563989980	0.688088136	0.010862179	0.112063102	0.034538936
2019-12-04T04:50:00	0.2293	3.271		0.566250577	0.691334800	0.010942574	0.112892520	0.034794571
2019-12-04T04:55:00	0.2291	3.257		0.565478290	0.690225168	0.010915075	0.112608816	0.034707131
2019-12-04T05:00:00	0.2296	3.248		0.567064353	0.692504575	0.010971589	0.113191859	0.034886830
2019-12-04T05:05:00	0.2294	3.239		0.566629122	0.691878877	0.010956066	0.113031713	0.034837472
2019-12-04T05:10:00	0.2288	3.230		0.564508920	0.688833063	0.010880608	0.112253227	0.034597535
2019-12-04T05:15:00	0.2293	3.220		0.566095424	0.691111834	0.010937047	0.112835495	0.034776995
2019-12-04T05:20:00	0.2294	3.209		0.566333913	0.691454567	0.010945544	0.112923156	0.034804013
2019-12-04T05:25:00	0.2292	3.195		0.565898591	0.690829000	0.010930036	0.112763171	0.034754705
2019-12-04T05:30:00	0.2296	3.180		0.567147670	0.692624371	0.010974562	0.113222528	0.034896283
2019-12-04T05:35:00	0.2292	3.165		0.565701747	0.690546183	0.010923028	0.112690867	0.034732420
2019-12-04T05:40:00	0.2297	3.151		0.567624489	0.693310069	0.010991583	0.113398133	0.034950406
2019-12-04T05:45:00	0.2301	3.136		0.568872951	0.695106333	0.011036213	0.113858576	0.035092319
2019-12-04T05:50:00	0.2295	3.124		0.566754111	0.692058549	0.010960523	0.113077692	0.034851643
2019-12-04T05:55:00	0.2296	3.108		0.567329365	0.692885638	0.010981046	0.113289427	0.034916902
2019-12-04T06:00:00	0.2291	3.094		0.565546569	0.690323252	0.010917505	0.112633884	0.034714857
2019-12-04T06:05:00	0.2291	3.076		0.565448138	0.690181856	0.010914002	0.112597747	0.034703719
2019-12-04T06:10:00	0.2292	3.062		0.565686672	0.690524526	0.010922491	0.112685331	0.034730713
2019-12-04T06:15:00	0.2292	3.049		0.565925189	0.690867219	0.010930984	0.112772943	0.034757716
2019-12-04T06:20:00	0.2291	3.039		0.565489816	0.690241726	0.010915485	0.112613048	0.034708435
2019-12-04T06:25:00	0.2293	3.028		0.566065277	0.691068514	0.010935973	0.112824416	0.034773581
2019-12-04T06:30:00	0.2292	3.015		0.565966862	0.690927096	0.010932468	0.112788254	0.034762435
2019-12-04T06:35:00	0.2293	2.998		0.566205360	0.691269817	0.010940963	0.112875900	0.034789448
2019-12-04T06:40:00	0.2286	2.982		0.563747779	0.687740538	0.010853584	0.111974423	0.034511605
2019-12-04T06:45:00	0.2289	2.967		0.564660594	0.689050830	0.010885997	0.112308827	0.034614671
2019-12-04T06:50:00	0.2286	2.955		0.563887955	0.687941707	0.010858558	0.112025742	0.034527422
2019-12-04T06:55:00	0.2289	2.942		0.564800733	0.689252052	0.010890978	0.112360211	0.034630508
2019-12-04T07:00:00	0.2295	2.932		0.566723971	0.692015220	0.010959448	0.113066604	0.034848225
2019-12-04T07:05:00	0.2291	2.921		0.565614846	0.690421338	0.010919935	0.112658955	0.034722584
2019-12-04T07:10:00	0.2295	2.911		0.566864027	0.692216562	0.010964443	0.113118133	0.034864107
2019-12-04T07:15:00	0.2296	2.901		0.567102464	0.692559371	0.010972949	0.113205887	0.034891154
2019-12-04T07:20:00	0.2297	2.891		0.567677660	0.693386544	0.010993482	0.113417723	0.034956444
2019-12-04T07:25:00	0.2295	2.883		0.566905688	0.692276456	0.010965929	0.113133464	0.034868832
2019-12-04T07:30:00	0.2296	2.876		0.567144122	0.692619270	0.010974435	0.113221222	0.034895880
2019-12-04T07:35:00	0.2292	2.868		0.565698197	0.690541084	0.010922902	0.112689564	0.034732018
2019-12-04T07:40:00	0.2287	2.860		0.564251674	0.688463765	0.010871471	0.112158959	0.034568480
2019-12-04T07:45:00	0.2282	2.854		0.562467306	0.685903651	0.010808198	0.111506183	0.034367289
2019-12-04T07:50:00	0.2277	2.849		0.560682024	0.683344855	0.010745080	0.110855011	0.034166591
2019-12-04T07:55:00	0.2276	2.845		0.560583456	0.683203657	0.010741601	0.110819115	0.034155528
2019-12-04T08:00:00	0.2269	2.839		0.558121910	0.679680094	0.010654897	0.109924604	0.033879831
2019-12-04T08:05:00	0.2268	2.833		0.557685562	0.679056006	0.010639564	0.109766422	0.033831077
2019-12-04T08:10:00	0.2271	2.828		0.558599965	0.680364011	0.010671707	0.110098038	0.033933285
2019-12-04T08:15:00	0.2272	2.824		0.559176564	0.681189159	0.010692001	0.110307408	0.033997814
2019-12-04T08:20:00	0.2275	2.820		0.560090575	0.682497726	0.010724211	0.110639710	0.034100233
2019-12-04T08:25:00	0.2279	2.817		0.561341734	0.684290094	0.010768382	0.111095411	0.034240685
2019-12-04T08:30:00	0.2280	2.813		0.561917880	0.685115894	0.010788753	0.111305576	0.034305460
2019-12-04T08:35:00	0.2281	2.812		0.562156655	0.685458215	0.010797201	0.111392735	0.034332323
2019-12-04T08:40:00	0.2283	2.812		0.562732666	0.686284210	0.010817595	0.111603137	0.034397171
2019-12-04T08:45:00	0.2285	2.815		0.563308582	0.687110341	0.010838006	0.111813706	0.034462070
2019-12-04T08:50:00	0.2275	2.817		0.560174058	0.682617281	0.010727156	0.110670087	0.034109596
2019-12-04T08:55:00	0.2278	2.821		0.561087809	0.683926224	0.010759410	0.111002849	0.034212156
2019-12-04T09:00:00	0.2282	2.826		0.562338610	0.685719107	0.010803641	0.111459177	0.034352801
2019-12-04T09:05:00	0.2286	2.832		0.563926100	0.687996453	0.010859912	0.112039710	0.034531727
2019-12-04T09:10:00	0.2293	2.843		0.566186739	0.691243057	0.010940300	0.112869055	0.034787339
2019-12-04T09:15:00	0.2297	2.856		0.567435715	0.693038576	0.010984842	0.113328594	0.034928973
2019-12-04T09:20:00	0.2296	2.873		0.567337337	0.692897103	0.010981331	0.113292363	0.034917807
2019-12-04T09:25:00	0.2290	2.895		0.565217565	0.689850668	0.010905799	0.112513120	0.034677636
2019-12-04T09:30:00	0.2294	2.923		0.566466888	0.691645686	0.010950283	0.112972048	0.034819083
2019-12-04T09:35:00	0.2290	2.947		0.565020683	0.689567906	0.010898797	0.112440884	0.034655372
2019-12-04T09:40:00	0.2291	2.964		0.565596222	0.690394583	0.010919272	0.112652116	0.034720476
2019-12-04T09:45:00	0.2294	2.969		0.566508554	0.691705573	0.010951768	0.112987370	0.034823805
2019-12-04T09:50:00	0.2296	2.966		0.567083847	0.692532604	0.010972284	0.113199034	0.034889042
2019-12-04T09:55:00	0.2293	2.959		0.566311744	0.691422706	0.010944754	0.112915006	0.034801501
2019-12-04T10:00:00	0.2287	2.951		0.564191350	0.688377171	0.010869329	0.112136859	0.034561669
2019-12-04T10:05:00	0.2287	2.948		0.564089864	0.688231501	0.010865725	0.112099684	0.034550211
2019-12-04T10:10:00	0.2289	2.951		0.564662541	0.689053625	0.010886066	0.112309541	0.034614891
2019-12-04T10:15:00	0.2292	2.955		0.565909047	0.690844025	0.010930409	0.112767013	0.034755888
2019-12-04T10:20:00	0.2283	2.961		0.562773842	0.686343266	0.010819054	0.111618185	0.034401809
2019-12-04T10:25:00	0.2281	2.971		0.561997766	0.685230419	0.010791579	0.111334733	0.034314446
2019-12-04T10:30:00	0.2282	2.983		0.562570786	0.686052048	0.010811862	0.111543986	0.034378940
2019-12-04T10:35:00	0.2279	2.997		0.561457323	0.684455747	0.010772467	0.111137559	0.034253675
2019-12-04T10:40:00	0.2277	3.013		0.560680954	0.683343322	0.010745042	0.110854621	0.034166471
2019-12-04T10:45:00	0.2281	3.029		0.562266181	0.685615253	0.010801078	0.111432727	0.034344649
2019-12-04T10:50:00	0.2277	3.045		0.560815214	0.683535662	0.010749783	0.110903525	0.034181543
2019-12-04T10:55:00	0.2277	3.064		0.560713631	0.683390133	0.010746196	0.110866523	0.034170139
2019-12-04T11:00:00	0.2281	3.084		0.561961548	0.685178496	0.010790298	0.111321514	0.034310372
2019-12-04T11:05:00	0.2277	3.102		0.560847890	0.683582476	0.010750936	0.110915428	0.034185212
2019-12-04T11:10:00	0.2280	3.120		0.561758446	0.684887346	0.010783114	0.111247398	0.034287528
2019-12-04T11:15:00	0.2276	3.138		0.560307268	0.682808061	0.010731855	0.110718567	0.034124538
2019-12-04T11:20:00	0.2264	3.154		0.556491405	0.677348864	0.010597661	0.109334115	0.033697836
2019-12-04T11:25:00	0.2266	3.171		0.557065331	0.678169191	0.010617790	0.109541779	0.033761840
2019-12-04T11:30:00	0.2266	3.188		0.556963638	0.678023819	0.010614222	0.109504969	0.033750495
2019-12-04T11:35:00	0.2272	3.203		0.559225772	0.681259592	0.010693734	0.110325286	0.034003325
2019-12-04T11:40:00	0.2275	3.216		0.560136751	0.682563853	0.010725840	0.110656512	0.034105412
2019-12-04T11:45:00	0.2271	3.232		0.558684898	0.680485539	0.010674696	0.110128866	0.033942786
2019-12-04T11:50:00	0.2263	3.244		0.555881103	0.676476843	0.010576278	0.109113508	0.033629843
2019-12-04T11:55:00	0.2255	3.256		0.553413204	0.672953738	0.010490033	0.108223739	0.033355607
2019-12-04T12:00:00	0.2262	3.267		0.555677646	0.676186203	0.010569154	0.109040015	0.033607191
2019-12-04T12:05:00	0.2261	3.278		0.555237966	0.675558236	0.010553768	0.108881278	0.033558267
2019-12-04T12:10:00	0.2256	3.289		0.553784069	0.673482855	0.010502971	0.108357214	0.033396746
2019-12-04T12:15:00	0.2261	3.298		0.555372437	0.675750275	0.010558472	0.108929813	0.033573226
2019-12-04T12:20:00	0.2262	3.307		0.555608637	0.676087632	0.010566738	0.109015093	0.033599510
2019-12-04T12:25:00	0.2261	3.317		0.555506902	0.675942321	0.010563178	0.108978357	0.033588188
2019-12-04T12:30:00	0.2263	3.325		0.556080990	0.676762415	0.010583279	0.109185737	0.033652104
2019-12-04T12:35:00	0.2269	3.335		0.558006020	0.679514327	0.010650823	0.109882581	0.033866879
2019-12-04T12:40:00	0.2271	3.342		0.558579696	0.680335011	0.010670994	0.110090682	0.033931017
2019-12-04T12:45:00	0.2264	3.349		0.556451571	0.677291939	0.010596265	0.109319709	0.033693396
2019-12-04T12:50:00	0.2266	3.356		0.557025503	0.678112256	0.010616392	0.109527361	0.033757397
2019-12-04T12:55:00	0.2264	3.363		0.556248147	0.677001251	0.010589135	0.109246157	0.033670727
2019-12-04T13:00:00	0.2263	3.369		0.556146430	0.676855914	0.010585571	0.109209389	0.033659394
2019-12-04T13:05:00	0.2268	3.374		0.557733720	0.679124877	0.010641256	0.109783874	0.033836456
2019-12-04T13:10:00	0.2266	3.379		0.556956522	0.678013646	0.010613972	0.109502393	0.033749701
2019-12-04T13:15:00	0.2262	3.384		0.555841262	0.676419927	0.010574883	0.109099115	0.033625407
2019-12-04T13:20:00	0.2265	3.387		0.556753127	0.677722916	0.010606838	0.109428789	0.033727016
2019-12-04T13:25:00	0.2265	3.393		0.556651425	0.677577558	0.010603271	0.109391995	0.033715675
2019-12-04T13:30:00	0.2266	3.399		0.556887539	0.677915039	0.010611552	0.109477427	0.033742006
2019-12-04T13:35:00	0.2270	3.406		0.558474491	0.680184487	0.010667294	0.110052504	0.033919251
2019-12-04T13:40:00	0.2273	3.411		0.559385667	0.681488466	0.010699366	0.110383386	0.034021232
2019-12-04T13:45:00	0.2278	3.415		0.560971482	0.683759549	0.010755301	0.110960458	0.034199091
2019-12-04T13:50:00	0.2277	3.423		0.560869903	0.683614013	0.010751714	0.110923448	0.034187684
2019-12-04T13:55:00	0.2275	3.429		0.560093404	0.682501777	0.010724311	0.110640740	0.034100551
2019-12-04T14:00:00	0.2268	3.435		0.557628490	0.678974390	0.010637560	0.109745741	0.033824703
2019-12-04T14:05:00	0.2265	3.440		0.556851268	0.677863193	0.010610280	0.109464301	0.033737961
2019-12-04T14:10:00	0.2264	3.445		0.556411737	0.677235014	0.010594868	0.109305304	0.033688956
2019-12-04T14:15:00	0.2258	3.448		0.554282285	0.674193843	0.010520364	0.108536654	0.033452051
2019-12-04T14:20:00	0.2251	3.451		0.552151529	0.671154540	0.010446080	0.107770285	0.033215848
2019-12-04T14:25:00	0.2252	3.451		0.552387948	0.671491584	0.010454309	0.107855182	0.033242015
2019-12-04T14:30:00	0.2257	3.449		0.553976954	0.673758091	0.010509703	0.108426666	0.033418152
2019-12-04T14:35:00	0.2255	3.448		0.553198916	0.672648063	0.010482561	0.108146654	0.033331849
2019-12-04T14:40:00	0.2256	3.447		0.553773385	0.673467611	0.010502598	0.108353367	0.033395560
2019-12-04T14:45:00	0.2256	3.445		0.553671596	0.673322377	0.010499046	0.108316726	0.033384267
2019-12-04T14:50:00	0.2257	3.441		0.553907912	0.673659568	0.010507293	0.108401803	0.033410489
2019-12-04T14:55:00	0.2255	3.435		0.553468009	0.673031922	0.010491945	0.108243458	0.033361685
2019-12-04T15:00:00	0.2262	3.428		0.555732415	0.676264438	0.010571072	0.109059796	0.033613288
2019-12-04T15:05:00	0.2259	3.421		0.554616763	0.674671281	0.010532049	0.108657205	0.033489206
2019-12-04T15:10:00	0.2264	3.412		0.556542603	0.677422032	0.010599456	0.109352632	0.033703543
2019-12-04T15:15:00	0.2261	3.404		0.555427211	0.675828503	0.010560389	0.108949586	0.033579321
2019-12-04T15:20:00	0.2258	3.395		0.554311461	0.674235486	0.010521383	0.108547166	0.033455291
2019-12-04T15:25:00	0.2258	3.382		0.554209688	0.674090230	0.010517828	0.108510497	0.033443989
2019-12-04T15:30:00	0.2253	3.373		0.552755361	0.672015464	0.010467104	0.107987185	0.033282699
2019-12-04T15:35:00	0.2251	3.361		0.551977049	0.670905827	0.010440009	0.107707651	0.033196544
2019-12-04T15:40:00	0.2257	3.348		0.553904350	0.673654486	0.010507169	0.108400521	0.033410093
2019-12-04T15:45:00	0.2252	3.338		0.552449895	0.671579904	0.010456466	0.107877432	0.033248872
2019-12-04T15:50:00	0.2257	3.324		0.554038872	0.673846451	0.010511864	0.108448966	0.033425025
2019-12-04T15:55:00	0.2264	3.312		0.556302907	0.677079499	0.010591054	0.109265954	0.033676828
2019-12-04T16:00:00	0.2257	3.300		0.554173389	0.674038424	0.010516561	0.108497420	0.033439959
2019-12-04T16:05:00	0.2258	3.288		0.554505389	0.674512294	0.010528157	0.108617056	0.033476832
2019-12-04T16:10:00	0.2257	3.277		0.554161289	0.674021155	0.010516138	0.108493061	0.033438615
2019-12-04T16:15:00	0.2261	3.267		0.555507246	0.675942813	0.010563190	0.108978482	0.033588226
2019-12-04T16:20:00	0.2260	3.258		0.555163246	0.675451533	0.010551154	0.108854313	0.033549956
2019-12-04T16:25:00	0.2260	3.245		0.555157198	0.675442896	0.010550943	0.108852131	0.033549284
2019-12-04T16:30:00	0.2261	3.236		0.555489104	0.675916900	0.010562555	0.108971931	0.033586207
2019-12-04T16:35:00	0.2262	3.226		0.555820978	0.676390950	0.010574172	0.109091787	0.033623148
2019-12-04T16:40:00	0.2265	3.219		0.556828502	0.677830653	0.010609481	0.109456063	0.033735422
2019-12-04T16:45:00	0.2261	3.210		0.555470961	0.675890988	0.010561920	0.108965381	0.033584189
2019-12-04T16:50:00	0.2265	3.199		0.556816412	0.677813371	0.010609057	0.109451688	0.033734073
2019-12-04T16:55:00	0.2266	3.195		0.557148160	0.678287602	0.010620696	0.109571765	0.033771082
2019-12-04T17:00:00	0.2262	3.189		0.555790743	0.676347758	0.010573114	0.109080865	0.033619782
2019-12-04T17:05:00	0.2262	3.181		0.555784696	0.676339120	0.010572902	0.109078681	0.033619109
2019-12-04T17:10:00	0.2261	3.175		0.555440723	0.675847800	0.010560862	0.108954464	0.033580824
2019-12-04T17:15:00	0.2267	3.170		0.557461744	0.678735951	0.010631704	0.109685330	0.033806084
2019-12-04T17:20:00	0.2270	3.167		0.558468793	0.680176335	0.010667093	0.110050437	0.033918613
2019-12-04T17:25:00	0.2267	3.158		0.557449655	0.678718666	0.010631279	0.109680951	0.033804734
2019-12-04T17:30:00	0.2259	3.154		0.554740576	0.674848036	0.010536376	0.108701847	0.033502965
2019-12-04T17:35:00	0.2268	3.148		0.557775299	0.679184340	0.010642716	0.109798944	0.033841101
2019-12-04T17:40:00	0.2270	3.146		0.558444623	0.680141755	0.010666243	0.110041667	0.033915910
2019-12-04T17:45:00	0.2277	3.141		0.560801342	0.683515787	0.010749293	0.110898471	0.034179986
2019-12-04T17:50:00	0.2275	3.135		0.560120391	0.682540424	0.010725263	0.110650559	0.034103577
2019-12-04T17:55:00	0.2274	3.132		0.559776846	0.682048490	0.010713150	0.110525592	0.034065061
2019-12-04T18:00:00	0.2276	3.129		0.560445785	0.683006457	0.010736742	0.110768989	0.034140078
2019-12-04T18:05:00	0.2274	3.122		0.559764765	0.682031193	0.010712724	0.110521199	0.034063707
2019-12-04T18:10:00	0.2274	3.117		0.559758725	0.682022545	0.010712511	0.110519003	0.034063030
2019-12-04T18:15:00	0.2277	3.109		0.560765111	0.683463883	0.010748013	0.110885273	0.034175918
2019-12-04T18:20:00	0.2289	3.102		0.564805848	0.689259397	0.010891160	0.112362087	0.034631087
2019-12-04T18:25:00	0.2290	3.094		0.565136837	0.689734721	0.010902928	0.112483498	0.034668506
2019-12-04T18:30:00	0.2289	3.086		0.564793785	0.689242075	0.010890731	0.112357664	0.034629723
2019-12-04T18:35:00	0.2276	3.077		0.560403512	0.682945908	0.010735250	0.110753600	0.034135335
2019-12-04T18:40:00	0.2282	3.066		0.562421657	0.685838192	0.010806581	0.111489509	0.034362149
2019-12-04T18:45:00	0.2284	3.056		0.563090090	0.686796889	0.010830260	0.111733796	0.034437441
2019-12-04T18:50:00	0.2285	3.045		0.563421241	0.687271979	0.010842001	0.111854921	0.034474773
2019-12-04T18:55:00	0.2288	3.032		0.564426571	0.688714839	0.010877683	0.112223046	0.034588233
2019-12-04T19:00:00	0.2283	3.023		0.562734767	0.686287223	0.010817670	0.111603905	0.034397407
2019-12-04T19:05:00	0.2295	3.015		0.566773226	0.692086026	0.010961204	0.113084724	0.034853810
2019-12-04T19:10:00	0.2284	3.008		0.563059918	0.686753607	0.010829191	0.111722764	0.034434041
2019-12-04T19:15:00	0.2294	3.000		0.566424306	0.691584483	0.010948765	0.112956391	0.034814257
2019-12-04T19:20:00	0.2293	2.994		0.566081381	0.691091654	0.010936546	0.112830334	0.034775405
2019-12-04T19:25:00	0.2287	2.987		0.564053286	0.688178999	0.010864427	0.112086287	0.034546082
2019-12-04T19:30:00	0.2293	2.980		0.566069322	0.691074326	0.010936117	0.112825903	0.034774039
2019-12-04T19:35:00	0.2294	2.974		0.566400191	0.691549824	0.010947906	0.112947524	0.034811524
2019-12-04T19:40:00	0.2298	2.966		0.567741433	0.693478272	0.010995759	0.113441222	0.034963686
2019-12-04T19:45:00	0.2300	2.961		0.568408849	0.694438441	0.011019611	0.113687300	0.035039530
2019-12-04T19:50:00	0.2300	2.956		0.568402823	0.694429771	0.011019396	0.113685077	0.035038845
2019-12-04T19:55:00	0.2306	2.950		0.570416353	0.697328730	0.011091514	0.114429109	0.035268163
2019-12-04T20:00:00	0.2308	2.943		0.571083258	0.698289639	0.011115454	0.114676086	0.035344283
2019-12-04T20:05:00	0.2305	2.935		0.570067797	0.696826659	0.011079013	0.114300135	0.035228412
2019-12-04T20:10:00	0.2306	2.927		0.570398287	0.697302705	0.011090866	0.114422422	0.035266102
2019-12-04T20:15:00	0.2310	2.921		0.571737997	0.699233376	0.011138982	0.114918822	0.035419097
2019-12-04T20:20:00	0.2314	2.916		0.573077194	0.701164793	0.011187185	0.115416127	0.035572371
2019-12-04T20:25:00	0.2318	2.910		0.574415880	0.703096955	0.011235476	0.115914337	0.035725924
2019-12-04T20:30:00	0.2320	2.904		0.575082024	0.704058973	0.011259546	0.116162659	0.035802460
2019-12-04T20:35:00	0.2322	2.897		0.576084008	0.705506690	0.011295800	0.116536685	0.035917738
2019-12-04T20:40:00	0.2323	2.892		0.576413932	0.705983562	0.011307750	0.116659975	0.035955737
2019-12-04T20:45:00	0.2323	2.885		0.576407920	0.705974872	0.011307533	0.116657728	0.035955045
2019-12-04T20:50:00	0.2323	2.877		0.576401909	0.705966182	0.011307315	0.116655481	0.035954352
2019-12-04T20:55:00	0.2311	2.870		0.572362522	0.700133894	0.011161448	0.115150600	0.035490533
2019-12-04T21:00:00	0.2299	2.858		0.568318469	0.694308395	0.011016380	0.113653961	0.035029255
2019-12-04T21:05:00	0.2295	2.846		0.566965393	0.692362294	0.010968058	0.113155436	0.034875604
2019-12-04T21:10:00	0.2284	2.824		0.563252290	0.687029580	0.010836010	0.111793115	0.034455724
2019-12-04T21:15:00	0.2284	2.806		0.563246256	0.687020923	0.010835796	0.111790908	0.034455044
2019-12-04T21:20:00	0.2277	2.791		0.560879113	0.683627209	0.010752039	0.110926803	0.034188718
2019-12-04T21:25:00	0.2281	2.779		0.562222478	0.685552591	0.010799531	0.111416769	0.034339730
2019-12-04T21:30:00	0.2276	2.776		0.560529604	0.683126517	0.010739700	0.110799506	0.034149484
2019-12-04T21:35:00	0.2281	2.771		0.562210406	0.685535282	0.010799104	0.111412361	0.034338372
2019-12-04T21:40:00	0.2280	2.767		0.561867067	0.685043051	0.010786956	0.111287033	0.034299744
2019-12-04T21:45:00	0.2281	2.762		0.562198334	0.685517973	0.010798676	0.111407953	0.034337013
2019-12-04T21:50:00	0.2281	2.756		0.562192298	0.685509319	0.010798463	0.111405749	0.034336334
2019-12-04T21:55:00	0.2283	2.744		0.562860775	0.686467953	0.010822134	0.111649959	0.034411602
2019-12-04T22:00:00	0.2286	2.734		0.563866266	0.687910580	0.010857788	0.112017801	0.034524974
2019-12-04T22:05:00	0.2277	2.730		0.560732244	0.683416797	0.010746853	0.110873302	0.034172228
2019-12-04T22:10:00	0.2271	2.726		0.558608454	0.680376158	0.010672006	0.110101119	0.033934234
2019-12-04T22:15:00	0.2272	2.723		0.559185052	0.681201308	0.010692300	0.110310492	0.033998765
2019-12-04T22:20:00	0.2279	2.721		0.561448763	0.684443480	0.010772165	0.111134438	0.034252713
2019-12-04T22:25:00	0.2280	2.716		0.561687571	0.684785755	0.010780608	0.111221540	0.034279559
2019-12-04T22:30:00	0.2280	2.707		0.561926362	0.685128053	0.010789053	0.111308672	0.034306414
2019-12-04T22:35:00	0.2274	2.704		0.559803300	0.682086367	0.010714082	0.110535213	0.034068026
2019-12-04T22:40:00	0.2272	2.696		0.559029584	0.680978796	0.010686826	0.110254019	0.033981359
2019-12-04T22:45:00	0.2284	2.691		0.562979865	0.686638774	0.010826354	0.111693494	0.034425020
2019-12-04T22:50:00	0.2278	2.687		0.561194846	0.684079599	0.010763191	0.111041861	0.034224180
2019-12-04T22:55:00	0.2273	2.680		0.559408912	0.681521742	0.010700185	0.110391834	0.034023835
2019-12-04T23:00:00	0.2269	2.672		0.557959778	0.679448185	0.010649198	0.109865815	0.033861711
2019-12-04T23:05:00	0.2259	2.666		0.554820436	0.674962050	0.010539167	0.108730646	0.033511841
2019-12-04T23:10:00	0.2256	2.655		0.553707517	0.673373629	0.010500300	0.108329656	0.033388252
2019-12-04T23:15:00	0.2245	2.647		0.549887434	0.667929126	0.010367441	0.106958973	0.032965794
2019-12-04T23:20:00	0.2242	2.642		0.548772934	0.666342962	0.010328841	0.106560745	0.032843057
2019-12-04T23:25:00	0.2234	2.638		0.546303010	0.662831379	0.010243556	0.105680883	0.032571875
2019-12-04T23:30:00	0.2236	2.633		0.546881652	0.663653607	0.010263504	0.105886682	0.032635304
2019-12-04T23:35:00	0.2245	2.630		0.549830425	0.667847966	0.010365464	0.106938585	0.032959510
2019-12-04T23:40:00	0.2241	2.623		0.548715907	0.666261828	0.010326868	0.106540389	0.032836783
2019-12-04T23:45:00	0.2242	2.614		0.548955590	0.666602849	0.010335162	0.106625959	0.032863156
2019-12-04T23:50:00	0.2240	2.598		0.548179456	0.665498736	0.010308316	0.106348994	0.032777793
2019-12-04T23:55:00	0.2235	2.579		0.546725632	0.663431883	0.010258124	0.105831173	0.032618195
2019-12-05T00:00:00	0.2235	2.562		0.546626668	0.663291252	0.010254712	0.105795970	0.032607345
2019-12-05T00:05:00	0.2242	2.544		0.548898566	0.666521711	0.010333188	0.106605598	0.032856881
2019-12-05T00:10:00	0.2242	2.525		0.548799663	0.666380992	0.010329766	0.106570287	0.032845998
2019-12-05T00:15:00	0.2238	2.508		0.547684814	0.664795325	0.010291225	0.106172669	0.032723448
2019-12-05T00:20:00	0.2240	2.487		0.548263226	0.665617882	0.010311212	0.106378869	0.032787001
2019-12-05T00:25:00	0.2228	2.467		0.544098112	0.659700815	0.010167725	0.104898549	0.032330751
2019-12-05T00:30:00	0.2220	2.450		0.541624854	0.656193963	0.010083004	0.104024491	0.032061358
2019-12-05T00:35:00	0.2219	2.437		0.541186427	0.655572836	0.010068023	0.103869935	0.032013723
2019-12-05T00:40:00	0.2223	2.420		0.542444411	0.657355465	0.010111038	0.104313716	0.032150500
2019-12-05T00:45:00	0.2220	2.401		0.541327516	0.655772701	0.010072843	0.103919659	0.032029048
2019-12-05T00:50:00	0.2211	2.381		0.538512698	0.651788317	0.009976905	0.102929892	0.031723992
2019-12-05T00:55:00	0.2213	2.363		0.539092643	0.652608701	0.009996634	0.103133425	0.031786723
2019-12-05T01:00:00	0.2212	2.346		0.538653895	0.651988028	0.009981707	0.102979427	0.031739259
2019-12-05T01:05:00	0.2232	2.329		0.545678786	0.661944688	0.010222059	0.105459100	0.032503519
2019-12-05T01:10:00	0.2233	2.316		0.545918679	0.662285410	0.010230318	0.105544305	0.032529780
2019-12-05T01:15:00	0.2232	2.298		0.545480795	0.661663514	0.010215245	0.105388804	0.032481853
2019-12-05T01:20:00	0.2227	2.288		0.544025839	0.659598268	0.010165245	0.104872955	0.032322863
2019-12-05T01:25:00	0.2223	2.274		0.542570273	0.657533888	0.010115347	0.104358169	0.032164201
2019-12-05T01:30:00	0.2216	2.262		0.540095923	0.654028580	0.010030809	0.103486009	0.031895393
2019-12-05T01:35:00	0.2203	2.248		0.535581102	0.647645510	0.009877480	0.101904141	0.031407846
2019-12-05T01:40:00	0.2199	2.236		0.534461987	0.646065875	0.009839658	0.101513935	0.031287581
2019-12-05T01:45:00	0.2201	2.225		0.535042612	0.646885302	0.009859272	0.101716290	0.031349948
2019-12-05T01:50:00	0.2194	2.210		0.532562867	0.643387595	0.009775641	0.100853487	0.031084024
2019-12-05T01:55:00	0.2197	2.196		0.533823992	0.645165799	0.009818128	0.101291820	0.031219123
2019-12-05T02:00:00	0.2189	2.177		0.531003053	0.641190027	0.009723219	0.100312661	0.030917336
2019-12-05T02:05:00	0.2183	2.164		0.528860965	0.638175342	0.009651460	0.099572331	0.030689159
2019-12-05T02:10:00	0.2184	2.155		0.529102027	0.638514417	0.009659522	0.099655507	0.030714795
2019-12-05T02:15:00	0.2186	2.144		0.530024003	0.639811690	0.009690388	0.099973948	0.030812942
2019-12-05T02:20:00	0.2174	2.131		0.525836841	0.633925670	0.009550607	0.098531855	0.030368475
2019-12-05T02:25:00	0.2174	2.116		0.525737277	0.633785883	0.009547296	0.098497692	0.030357945
2019-12-05T02:30:00	0.2163	2.105		0.522227368	0.628863160	0.009430931	0.097297172	0.029987933
2019-12-05T02:35:00	0.2173	2.097		0.525538139	0.633506321	0.009540675	0.098429382	0.030336891
2019-12-05T02:40:00	0.2168	2.088		0.523733720	0.630974625	0.009480783	0.097811495	0.030146453
2019-12-05T02:45:00	0.2170	2.080		0.524316154	0.631791523	0.009500095	0.098010724	0.030207857
2019-12-05T02:50:00	0.2171	2.079		0.524898490	0.632608557	0.009519422	0.098210123	0.030269314
2019-12-05T02:55:00	0.2166	2.076		0.523093735	0.630077329	0.009459587	0.097592815	0.030079053
2019-12-05T03:00:00	0.2162	2.076		0.521629312	0.628025370	0.009411174	0.097093351	0.029925114
2019-12-05T03:05:00	0.2171	2.072		0.524940658	0.632667731	0.009520822	0.098224570	0.030273766
2019-12-05T03:10:00	0.2169	2.068		0.524159113	0.631571236	0.009494886	0.097956986	0.030191294
2019-12-05T03:15:00	0.2177	2.062		0.526786591	0.635259513	0.009582223	0.098858033	0.030469006
2019-12-05T03:20:00	0.2176	2.051		0.526687054	0.635119687	0.009578907	0.098823823	0.030458462
2019-12-05T03:25:00	0.2196	2.043		0.533396208	0.644562472	0.009803706	0.101143026	0.031173263
2019-12-05T03:30:00	0.2198	2.034		0.533977012	0.645381648	0.009823290	0.101345071	0.031235535
2019-12-05T03:35:00	0.2192	2.030		0.531836771	0.642364376	0.009751221	0.100601549	0.031006374
2019-12-05T03:40:00	0.2189	2.026		0.531056787	0.641265699	0.009725023	0.100331267	0.030923071
2019-12-05T03:45:00	0.2180	2.022		0.527892958	0.636814235	0.009619119	0.099238682	0.030586326
2019-12-05T03:50:00	0.2187	2.023		0.530177192	0.640027303	0.009695521	0.100026907	0.030829264
2019-12-05T03:55:00	0.2195	2.025		0.533140229	0.644201522	0.009795081	0.101054043	0.031145838
2019-12-05T04:00:00	0.2190	2.024		0.531339786	0.641664271	0.009734524	0.100429291	0.030953283
2019-12-05T04:05:00	0.2204	2.020		0.535953341	0.648171154	0.009890077	0.102034099	0.031447900
2019-12-05T04:10:00	0.2206	2.019		0.536825386	0.649403023	0.009919619	0.102338877	0.031541836
2019-12-05T04:15:00	0.2217	2.018		0.540413550	0.654478269	0.010041641	0.103597759	0.031929836
2019-12-05T04:20:00	0.2225	2.014		0.543319815	0.658596722	0.010141026	0.104623097	0.032245855
2019-12-05T04:25:00	0.2226	2.014		0.543511861	0.658869113	0.010147611	0.104691031	0.032266793
2019-12-05T04:30:00	0.2238	2.013		0.547431846	0.664435667	0.010282490	0.106082551	0.032695672
2019-12-05T04:35:00	0.2232	2.012		0.545590847	0.661819799	0.010219033	0.105427875	0.032493895
2019-12-05T04:40:00	0.2229	2.012		0.544426968	0.660167480	0.010179017	0.105015046	0.032366657
2019-12-05T04:45:00	0.2223	2.011		0.542584372	0.657553877	0.010115830	0.104363149	0.032165736
2019-12-05T04:50:00	0.2224	2.011		0.542776459	0.657826210	0.010122408	0.104431012	0.032186652
2019-12-05T04:55:00	0.2214	2.007		0.539575286	0.653291653	0.010013067	0.103302965	0.031838977
2019-12-05T05:00:00	0.2225	2.005		0.543160601	0.658370922	0.010135569	0.104566794	0.032228501
2019-12-05T05:05:00	0.2225	2.002		0.543013518	0.658162344	0.010130528	0.104514794	0.032212475
2019-12-05T05:10:00	0.2211	1.998		0.538454425	0.651705900	0.009974924	0.102909452	0.031717692
2019-12-05T05:15:00	0.2217	1.992		0.540344237	0.654380131	0.010039277	0.103573368	0.031922318
2019-12-05T05:20:00	0.2225	1.985		0.543250561	0.658498502	0.010138652	0.104598605	0.032238306
2019-12-05T05:25:00	0.2231	1.983		0.545137758	0.661176432	0.010203445	0.105267066	0.032444332
2019-12-05T05:30:00	0.2233	1.978		0.546007492	0.662411566	0.010233376	0.105575858	0.032539505
2019-12-05T05:35:00	0.2234	1.974		0.546199390	0.662684167	0.010239986	0.105644051	0.032560523
2019-12-05T05:40:00	0.2251	1.965		0.552146510	0.671147385	0.010445906	0.107768483	0.033215293
2019-12-05T05:45:00	0.2249	1.957		0.551323188	0.669974002	0.010417274	0.107473098	0.033124253
2019-12-05T05:50:00	0.2249	1.952		0.551176450	0.669764934	0.010412176	0.107420496	0.033108040
2019-12-05T05:55:00	0.2249	1.951		0.551368062	0.670037942	0.010418834	0.107489187	0.033129211
2019-12-05T06:00:00	0.2255	1.944		0.553250852	0.672722144	0.010484372	0.108165334	0.033337606
2019-12-05T06:05:00	0.2263	1.936		0.556146392	0.676855859	0.010585570	0.109209375	0.033659390
2019-12-05T06:10:00	0.2268	1.931		0.557688890	0.679060765	0.010639681	0.109767628	0.033831449
2019-12-05T06:15:00	0.2284	1.929		0.563279252	0.687068262	0.010836966	0.111802977	0.034458763
2019-12-05T06:20:00	0.2277	1.923		0.560771837	0.683473519	0.010748251	0.110887724	0.034176673
2019-12-05T06:25:00	0.2284	1.917		0.562986778	0.686648690	0.010826599	0.111696022	0.034425799
2019-12-05T06:30:00	0.2283	1.910		0.562840531	0.686438918	0.010821417	0.111642560	0.034409321
2019-12-05T06:35:00	0.2284	1.901		0.563031502	0.686712845	0.010828184	0.111712374	0.034430839
2019-12-05T06:40:00	0.2286	1.888		0.563896775	0.687954366	0.010858871	0.112028972	0.034528417
2019-12-05T06:45:00	0.2286	1.877		0.563750567	0.687744538	0.010853683	0.111975443	0.034511919
2019-12-05T06:50:00	0.2285	1.868		0.563604352	0.687534719	0.010848495	0.111921925	0.034495424
2019-12-05T06:55:00	0.2284	1.856		0.563120949	0.686841158	0.010831354	0.111745081	0.034440919
2019-12-05T07:00:00	0.2275	1.849		0.559938473	0.682279918	0.010718848	0.110584376	0.034083179
2019-12-05T07:05:00	0.2275	1.843		0.560129603	0.682553617	0.010725588	0.110653911	0.034104610
2019-12-05T07:10:00	0.2294	1.841		0.566389889	0.691535017	0.010947538	0.112943736	0.034810356
2019-12-05T07:15:00	0.2301	1.835		0.568937923	0.695199848	0.011038538	0.113882564	0.035099712
2019-12-05T07:20:00	0.2304	1.832		0.569801735	0.696443484	0.011069475	0.114201735	0.035198084
2019-12-05T07:25:00	0.2301	1.827		0.568982572	0.695264114	0.011040136	0.113899050	0.035104793
2019-12-05T07:30:00	0.2287	1.821		0.564120333	0.688275234	0.010866807	0.112110845	0.034553651
2019-12-05T07:35:00	0.2283	1.813		0.562625409	0.686130383	0.010813796	0.111563944	0.034385091
2019-12-05T07:40:00	0.2289	1.807		0.564839173	0.689307251	0.010892344	0.112374308	0.034634853
2019-12-05T07:45:00	0.2290	1.796		0.565030035	0.689581336	0.010899130	0.112444314	0.034656430
2019-12-05T07:50:00	0.2282	1.793		0.562523879	0.685984779	0.010810201	0.111526849	0.034373658
2019-12-05T07:55:00	0.2280	1.793		0.561703007	0.684807880	0.010781153	0.111227172	0.034281295
2019-12-05T08:00:00	0.2277	1.795		0.560881941	0.683631260	0.010752139	0.110927833	0.034189036
2019-12-05T08:05:00	0.2290	1.793		0.565119431	0.689709723	0.010902309	0.112477111	0.034666538
2019-12-05T08:10:00	0.2304	1.791		0.570024915	0.696764899	0.011077476	0.114284273	0.035223523
2019-12-05T08:15:00	0.2301	1.796		0.568869177	0.695100900	0.011036078	0.113857182	0.035091889
2019-12-05T08:20:00	0.2307	1.797		0.570742542	0.697798673	0.011103220	0.114549874	0.035305384
2019-12-05T08:25:00	0.2316	1.804		0.573959783	0.702438492	0.011219011	0.115744471	0.035673570
2019-12-05T08:30:00	0.2306	1.809		0.570450692	0.697378198	0.011092746	0.114441819	0.035272080
2019-12-05T08:35:00	0.2315	1.810		0.573668201	0.702017627	0.011208492	0.115635943	0.035640121
2019-12-05T08:40:00	0.2300	1.810		0.568475812	0.694534797	0.011022006	0.113712004	0.035047144
2019-12-05T08:45:00	0.2292	1.806		0.565972128	0.690934664	0.010932655	0.112790189	0.034763032
2019-12-05T08:50:00	0.2284	1.805		0.563129466	0.686853376	0.010831656	0.111748195	0.034441879
2019-12-05T08:55:00	0.2289	1.809		0.564668878	0.689062724	0.010886292	0.112311864	0.034615607
2019-12-05T09:00:00	0.2301	1.813		0.568901777	0.695147822	0.011037245	0.113869218	0.035095599
2019-12-05T09:05:00	0.2314	1.822		0.573129559	0.701240344	0.011189072	0.115435595	0.035578371
2019-12-05T09:10:00	0.2320	1.831		0.575336685	0.704426842	0.011268754	0.116257662	0.035831741
2019-12-05T09:15:00	0.2332	1.846		0.579221079	0.710044668	0.011409691	0.117711679	0.036279883
2019-12-05T09:20:00	0.2351	1.857		0.585782400	0.719562459	0.011649788	0.120188714	0.037043329
2019-12-05T09:25:00	0.2353	1.875		0.586307115	0.720325152	0.011669099	0.120387945	0.037104734
2019-12-05T09:30:00	0.2345	1.895		0.583480908	0.716219863	0.011565279	0.119316848	0.036774611
2019-12-05T09:35:00	0.2335	1.914		0.580316897	0.711631763	0.011449612	0.118123538	0.036406822
2019-12-05T09:40:00	0.2348	1.927		0.584530947	0.717744352	0.011603796	0.119714228	0.036897088
2019-12-05T09:45:00	0.2338	1.923		0.581367882	0.713154863	0.011487967	0.118519238	0.036528780
2019-12-05T09:50:00	0.2342	1.920		0.582563983	0.714889384	0.011531698	0.118970398	0.036667832
2019-12-05T09:55:00	0.2358	1.913		0.588114810	0.722954456	0.011735754	0.121075609	0.037316678
2019-12-05T10:00:00	0.2349	1.910		0.584954967	0.718360221	0.011619369	0.119874887	0.036946604
2019-12-05T10:05:00	0.2344	1.912		0.583370981	0.716060319	0.011561250	0.119275286	0.036761802
2019-12-05T10:10:00	0.2342	1.917		0.582792354	0.715220690	0.011540057	0.119056637	0.036694412
2019-12-05T10:15:00	0.2341	1.916		0.582213632	0.714381201	0.011518880	0.118838157	0.036627074
2019-12-05T10:20:00	0.2344	1.918		0.583311516	0.715974019	0.011559071	0.119252807	0.036754873
2019-12-05T10:25:00	0.2332	1.923		0.579378123	0.710272057	0.011415408	0.117770658	0.036298061
2019-12-05T10:30:00	0.2329	1.927		0.578127392	0.708461651	0.011369919	0.117301353	0.036153416
2019-12-05T10:35:00	0.2322	1.928		0.575868443	0.705195161	0.011287995	0.116456166	0.035892921
2019-12-05T10:40:00	0.2315	1.928		0.573608039	0.701930798	0.011206322	0.115613557	0.035633221
2019-12-05T10:45:00	0.2315	1.930		0.573700224	0.702063844	0.011209647	0.115647860	0.035643793
2019-12-05T10:50:00	0.2309	1.935		0.571438419	0.698801522	0.011128213	0.114807725	0.035384856
2019-12-05T10:55:00	0.2312	1.944		0.572539680	0.700389401	0.011167825	0.115216392	0.035510811
2019-12-05T11:00:00	0.2310	1.953		0.571959264	0.699552389	0.011146939	0.115000913	0.035444398
2019-12-05T11:05:00	0.2306	1.962		0.570705881	0.697745851	0.011101904	0.114536298	0.035301199
2019-12-05T11:10:00	0.2309	1.970		0.571470995	0.698848479	0.011129384	0.114819803	0.035388578
2019-12-05T11:15:00	0.2309	1.981		0.571563237	0.698981443	0.011132699	0.114854006	0.035399120
2019-12-05T11:20:00	0.2299	1.981		0.568290096	0.694267572	0.011015366	0.113643496	0.035026029
2019-12-05T11:25:00	0.2320	1.984		0.575109770	0.704099052	0.011260549	0.116173008	0.035805649
2019-12-05T11:30:00	0.2311	1.984		0.572176288	0.699865325	0.011154746	0.115081459	0.035469223
2019-12-05T11:35:00	0.2314	1.986		0.573277317	0.701453542	0.011194398	0.115490536	0.035595305
2019-12-05T11:40:00	0.2311	1.984		0.572360731	0.700131312	0.011161383	0.115149936	0.035490328
2019-12-05T11:45:00	0.2317	1.982		0.574134043	0.702690050	0.011225301	0.115809357	0.035693568
2019-12-05T11:50:00	0.2309	1.980		0.571536147	0.698942394	0.011131726	0.114843961	0.035396024
2019-12-05T11:55:00	0.2284	1.974		0.563208790	0.686967173	0.010834468	0.111777205	0.034450820
2019-12-05T12:00:00	0.2275	1.969		0.559927808	0.682264646	0.010718472	0.110580497	0.034081983
2019-12-05T12:05:00	0.2284	1.962		0.563056519	0.686748731	0.010829070	0.111721521	0.034433658
2019-12-05T12:10:00	0.2286	1.958		0.563823309	0.687848930	0.010856264	0.112002073	0.034520127
2019-12-05T12:15:00	0.2295	1.960		0.566948531	0.692338051	0.010967457	0.113149230	0.034873692
2019-12-05T12:20:00	0.2306	1.965		0.570407472	0.697315937	0.011091196	0.114425822	0.035267150
2019-12-05T12:25:00	0.2296	1.973		0.567133250	0.692603637	0.010974047	0.113217220	0.034894647
2019-12-05T12:30:00	0.2298	1.975		0.567899146	0.693705129	0.011001393	0.113499347	0.034981601
2019-12-05T12:35:00	0.2295	1.967		0.566981149	0.692384947	0.010968620	0.113161234	0.034877391
2019-12-05T12:40:00	0.2290	1.962		0.565052022	0.689612912	0.010899912	0.112452380	0.034658916
2019-12-05T12:45:00	0.2290	1.953		0.565144432	0.689745631	0.010903198	0.112486285	0.034669365
2019-12-05T12:50:00	0.2297	1.948		0.567595004	0.693267663	0.010990530	0.113387270	0.034947058
2019-12-05T12:55:00	0.2306	1.945		0.570380374	0.697276901	0.011090224	0.114415792	0.035264058
2019-12-05T13:00:00	0.2298	1.941		0.567779689	0.693533298	0.010997126	0.113455320	0.034968031
2019-12-05T13:05:00	0.2317	1.941		0.574264247	0.702878026	0.011230001	0.115857850	0.035708515
2019-12-05T13:10:00	0.2334	1.943		0.580065750	0.711267935	0.011440457	0.118029081	0.036377709
2019-12-05T13:15:00	0.2331	1.942		0.578815264	0.709457169	0.011394925	0.117559341	0.036232931
2019-12-05T13:20:00	0.2340	1.941		0.581927141	0.713965723	0.011508403	0.118730077	0.036593763
2019-12-05T13:25:00	0.2335	1.938		0.580341790	0.711667828	0.011450520	0.118132903	0.036409708
2019-12-05T13:30:00	0.2330	1.933		0.578755722	0.709370982	0.011392759	0.117536999	0.036226044
2019-12-05T13:35:00	0.2324	1.927		0.576497178	0.706103901	0.011310767	0.116691095	0.035965329
2019-12-05T13:40:00	0.2319	1.924		0.574909371	0.703809600	0.011253305	0.116098272	0.035782615
2019-12-05T13:45:00	0.2303	1.924		0.569620511	0.696182524	0.011062981	0.114134737	0.035177434
2019-12-05T13:50:00	0.2311	1.922		0.572067949	0.699709102	0.011150848	0.115041247	0.035456830
2019-12-05T13:55:00	0.2319	1.922		0.574849763	0.703723510	0.011251151	0.116076047	0.035775765
2019-12-05T14:00:00	0.2335	1.926		0.580314768	0.711628679	0.011449535	0.118122737	0.036406575
2019-12-05T14:05:00	0.2332	1.933		0.579400020	0.710303763	0.011416205	0.117778883	0.036300596
2019-12-05T14:10:00	0.2341	1.943		0.582176027	0.714326661	0.011517504	0.118823968	0.036622701
2019-12-05T14:15:00	0.2354	1.949		0.586624965	0.720787269	0.011680805	0.120508713	0.037141956
2019-12-05T14:20:00	0.2358	1.955		0.588056298	0.722869307	0.011733593	0.121053319	0.037309808
2019-12-05T14:25:00	0.2347	1.957		0.584463379	0.717646226	0.011601316	0.119688637	0.036889200
2019-12-05T14:30:00	0.2347	1.957		0.584220122	0.717292987	0.011592388	0.119596528	0.036860811
2019-12-05T14:35:00	0.2362	1.956		0.589335914	0.724732100	0.011780889	0.121541264	0.037460198
2019-12-05T14:40:00	0.2361	1.955		0.589092993	0.724378364	0.011771903	0.121448556	0.037431624
2019-12-05T14:45:00	0.2349	1.954		0.584830966	0.718180100	0.011614814	0.119827892	0.036932120
2019-12-05T14:50:00	0.2348	1.953		0.584587734	0.717826824	0.011605881	0.119735738	0.036903717
2019-12-05T14:55:00	0.2344	1.950		0.583338856	0.716013697	0.011560073	0.119263142	0.036758059
2019-12-05T15:00:00	0.2341	1.947		0.582424895	0.714687625	0.011526608	0.118917890	0.036651649
2019-12-05T15:05:00	0.2338	1.945		0.581175249	0.712875628	0.011480932	0.118446660	0.036506411
2019-12-05T15:10:00	0.2326	1.940		0.577239461	0.707177178	0.011337681	0.116968761	0.036050908
2019-12-05T15:15:00	0.2327	1.933		0.577667366	0.707796100	0.011353211	0.117128982	0.036100290
2019-12-05T15:20:00	0.2332	1.927		0.579437997	0.710358755	0.011417588	0.117793148	0.036304992
2019-12-05T15:25:00	0.2328	1.922		0.577851521	0.708062508	0.011359898	0.117197969	0.036121552
2019-12-05T15:30:00	0.2334	1.912		0.579957655	0.711111356	0.011436517	0.117988437	0.036365182
2019-12-05T15:35:00	0.2335	1.903		0.580385229	0.711730763	0.011452104	0.118149245	0.036414745
2019-12-05T15:40:00	0.2331	1.892		0.578799181	0.709433889	0.011394340	0.117553306	0.036231071
2019-12-05T15:45:00	0.2318	1.885		0.574524641	0.703253999	0.011239404	0.115954862	0.035738415
2019-12-05T15:50:00	0.2315	1.872		0.573608381	0.701931293	0.011206334	0.115613684	0.035633260
2019-12-05T15:55:00	0.2309	1.865		0.571682907	0.699153956	0.011137001	0.114898388	0.035412799
2019-12-05T16:00:00	0.2316	1.858		0.573792749	0.702197389	0.011212985	0.115682294	0.035654407
2019-12-05T16:05:00	0.2310	1.852		0.572054845	0.699690206	0.011150377	0.115036383	0.035455331
2019-12-05T16:10:00	0.2286	1.846		0.563916630	0.687982862	0.010859576	0.112036242	0.034530658
2019-12-05T16:15:00	0.2297	1.839		0.567566282	0.693226354	0.010989504	0.113376689	0.034943797
2019-12-05T16:20:00	0.2307	1.830		0.570875692	0.697990529	0.011108000	0.114599189	0.035320583
2019-12-05T16:25:00	0.2313	1.824		0.572837184	0.700818536	0.011178538	0.115326920	0.035544877
2019-12-05T16:30:00	0.2319	1.817		0.574797576	0.703648141	0.011249265	0.116056591	0.035769768
2019-12-05T16:35:00	0.2317	1.810		0.574404878	0.703081070	0.011235079	0.115910238	0.035724661
2019-12-05T16:40:00	0.2314	1.805		0.573339770	0.701543660	0.011196649	0.115513762	0.035602463
2019-12-05T16:45:00	0.2319	1.799		0.574963840	0.703888270	0.011255274	0.116118583	0.035788875
2019-12-05T16:50:00	0.2329	1.793		0.578266270	0.708662610	0.011374965	0.117353417	0.036169463
2019-12-05T16:55:00	0.2329	1.787		0.578209723	0.708580783	0.011372910	0.117332217	0.036162929
2019-12-05T17:00:00	0.2326	1.783		0.577145771	0.707041686	0.011334282	0.116933696	0.036040101
2019-12-05T17:05:00	0.2318	1.776		0.574737434	0.703561284	0.011247092	0.116034170	0.035762858
2019-12-05T17:10:00	0.2325	1.767		0.577032640	0.706878088	0.011330178	0.116891362	0.036027053
2019-12-05T17:15:00	0.2313	1.759		0.572943366	0.700971717	0.011182363	0.115366381	0.035557039
2019-12-05T17:20:00	0.2311	1.748		0.572214153	0.699919928	0.011156109	0.115095515	0.035473556
2019-12-05T17:25:00	0.2295	1.741		0.566772119	0.692084436	0.010961165	0.113084317	0.034853685
2019-12-05T17:30:00	0.2303	1.732		0.569409161	0.695878216	0.011055410	0.114056626	0.035153360
2019-12-05T17:35:00	0.2291	1.726		0.565647935	0.690468874	0.010921113	0.112671105	0.034726329
2019-12-05T17:40:00	0.2295	1.719		0.566938764	0.692324010	0.010967108	0.113145636	0.034872584
2019-12-05T17:45:00	0.2278	1.710		0.561151129	0.684016956	0.010761647	0.111025927	0.034219269
2019-12-05T17:50:00	0.2285	1.701		0.563455268	0.687320800	0.010843207	0.111867370	0.034478610
2019-12-05T17:55:00	0.2289	1.695		0.564746907	0.689174763	0.010889065	0.112340474	0.034624425
2019-12-05T18:00:00	0.2296	1.687		0.567048674	0.692482032	0.010971029	0.113186087	0.034885051
2019-12-05T18:05:00	0.2305	1.684		0.570358574	0.697245496	0.011089442	0.114407724	0.035261572
2019-12-05T18:10:00	0.2316	1.678		0.574001512	0.702498729	0.011220517	0.115760007	0.035678359
2019-12-05T18:15:00	0.2315	1.672		0.573608724	0.701931787	0.011206347	0.115613812	0.035633300
2019-12-05T18:20:00	0.2319	1.669		0.574896620	0.703791184	0.011252844	0.116093518	0.035781150
2019-12-05T18:25:00	0.2317	1.662		0.574167813	0.702738802	0.011226520	0.115821933	0.035697445
2019-12-05T18:30:00	0.2323	1.658		0.576127462	0.705569493	0.011297374	0.116552920	0.035922742
2019-12-05T18:35:00	0.2337	1.652		0.581106552	0.712776055	0.011478424	0.118420783	0.036498435
2019-12-05T18:40:00	0.2347	1.647		0.584403211	0.717558851	0.011599107	0.119665851	0.036882177
2019-12-05T18:45:00	0.2348	1.643		0.584681909	0.717963600	0.011609339	0.119771414	0.036914713
2019-12-05T18:50:00	0.2350	1.640		0.585295671	0.718855186	0.011631889	0.120004058	0.036986416
2019-12-05T18:55:00	0.2351	1.640		0.585574298	0.719260039	0.011642134	0.120109746	0.037018990
2019-12-05T19:00:00	0.2349	1.635		0.584847705	0.718204413	0.011615429	0.119834235	0.036934075
2019-12-05T19:05:00	0.2352	1.630		0.586131485	0.720069842	0.011662634	0.120321241	0.037084175
2019-12-05T19:10:00	0.2342	1.620		0.582723499	0.715120794	0.011537536	0.119030632	0.036686397
2019-12-05T19:15:00	0.2330	1.615		0.578640856	0.709204722	0.011388582	0.117493902	0.036212762
2019-12-05T19:20:00	0.2333	1.613		0.579591306	0.710580763	0.011423171	0.117850745	0.036322744
2019-12-05T19:25:00	0.2346	1.607		0.583895145	0.716821159	0.011580466	0.119473532	0.036822903
2019-12-05T19:30:00	0.2345	1.601		0.583503462	0.716252599	0.011566105	0.119325377	0.036777240
2019-12-05T19:35:00	0.2342	1.597		0.582776441	0.715197603	0.011539474	0.119050627	0.036692559
2019-12-05T19:40:00	0.2339	1.591		0.581713873	0.713656478	0.011500608	0.118649653	0.036568975
2019-12-05T19:45:00	0.2336	1.587		0.580650983	0.712115825	0.011461797	0.118249249	0.036445567
2019-12-05T19:50:00	0.2328	1.584		0.577909290	0.708146087	0.011361996	0.117219615	0.036128224
2019-12-05T19:55:00	0.2331	1.577		0.578859939	0.709521838	0.011396550	0.117576107	0.036238098
2019-12-05T20:00:00	0.2327	1.572		0.577460381	0.707496698	0.011345697	0.117051466	0.036076399
2019-12-05T20:05:00	0.2321	1.567		0.575724295	0.704986863	0.011282778	0.116402339	0.035876331
2019-12-05T20:10:00	0.2319	1.565		0.574995660	0.703934230	0.011256424	0.116130450	0.035792532
2019-12-05T20:15:00	0.2325	1.565		0.576954847	0.706765596	0.011327357	0.116862255	0.036018082
2019-12-05T20:20:00	0.2320	1.563		0.575218510	0.704256127	0.011264481	0.116213571	0.035818151
2019-12-05T20:25:00	0.2324	1.559		0.576505815	0.706116386	0.011311080	0.116694323	0.035966324
2019-12-05T20:30:00	0.2314	1.552		0.573088467	0.701181057	0.011187591	0.115420318	0.035573663
2019-12-05T20:35:00	0.2321	1.552		0.575720756	0.704981749	0.011282650	0.116401018	0.035875924
2019-12-05T20:40:00	0.2314	1.550		0.573311438	0.701502777	0.011195628	0.115503225	0.035599216
2019-12-05T20:45:00	0.2311	1.551		0.572245998	0.699965851	0.011157254	0.115107337	0.035477199
2019-12-05T20:50:00	0.2317	1.552		0.574206722	0.702794975	0.011227924	0.115836424	0.035701911
2019-12-05T20:55:00	0.2321	1.550		0.575494398	0.704654692	0.011274459	0.116316518	0.035849881
2019-12-05T21:00:00	0.2340	1.548		0.581816254	0.713804928	0.011504350	0.118688258	0.036580874
2019-12-05T21:05:00	0.2351	1.545		0.585782362	0.719562404	0.011649786	0.120188700	0.037043325
2019-12-05T21:10:00	0.2368	1.542		0.591416848	0.727764318	0.011858011	0.122336917	0.037705426
2019-12-05T21:15:00	0.2367	1.539		0.591026002	0.727194524	0.011843506	0.122187272	0.037659304
2019-12-05T21:20:00	0.2358	1.537		0.587957587	0.722725665	0.011729949	0.121015720	0.037298220
2019-12-05T21:25:00	0.2346	1.531		0.583881021	0.716800655	0.011579948	0.119468188	0.036821256
2019-12-05T21:30:00	0.2339	1.523		0.581477302	0.713313488	0.011491964	0.118560474	0.036541489
2019-12-05T21:35:00	0.2342	1.518		0.582762313	0.715177106	0.011538957	0.119045291	0.036690915
2019-12-05T21:40:00	0.2350	1.512		0.585387360	0.718988406	0.011635260	0.120038832	0.036997134
2019-12-05T21:45:00	0.2336	1.508		0.580636846	0.712095340	0.011461282	0.118243929	0.036443927
2019-12-05T21:50:00	0.2325	1.508		0.576887665	0.706668454	0.011324921	0.116837122	0.036010336
2019-12-05T21:55:00	0.2318	1.509		0.574479150	0.703188312	0.011237761	0.115937911	0.035733190
2019-12-05T22:00:00	0.2317	1.508		0.574086415	0.702621292	0.011223581	0.115791620	0.035688102
2019-12-05T22:05:00	0.2311	1.504		0.572152175	0.699830554	0.011153879	0.115072508	0.035466465
2019-12-05T22:10:00	0.2309	1.500		0.571562665	0.698980619	0.011132679	0.114853795	0.035399055
2019-12-05T22:15:00	0.2310	1.496		0.571982235	0.699585511	0.011147765	0.115009437	0.035447026
2019-12-05T22:20:00	0.2318	1.494		0.574419001	0.703101463	0.011235589	0.115915500	0.035726283
2019-12-05T22:25:00	0.2327	1.491		0.577525764	0.707591270	0.011348070	0.117075949	0.036083945
2019-12-05T22:30:00	0.2326	1.489		0.577273011	0.707225699	0.011338898	0.116981319	0.036054779
2019-12-05T22:35:00	0.2326	1.488		0.577356085	0.707345848	0.011341912	0.117012417	0.036064363
2019-12-05T22:40:00	0.2335	1.486		0.580124700	0.711353328	0.011442605	0.118051248	0.036384541
2019-12-05T22:45:00	0.2324	1.484		0.576514642	0.706129146	0.011311399	0.116697623	0.035967341
2019-12-05T22:50:00	0.2318	1.485		0.574581742	0.703336453	0.011241467	0.115976141	0.035744973
2019-12-05T22:55:00	0.2324	1.482		0.576680823	0.706369394	0.011317422	0.116759760	0.035986492
2019-12-05T23:00:00	0.2344	1.478		0.583139952	0.715725046	0.011552786	0.119187961	0.036734887
2019-12-05T23:05:00	0.2342	1.476		0.582552285	0.714872415	0.011531269	0.118965981	0.036666471
2019-12-05T23:10:00	0.2344	1.473		0.583305820	0.715965752	0.011558862	0.119250653	0.036754210
2019-12-05T23:15:00	0.2345	1.472		0.583723988	0.716572695	0.011574190	0.119408780	0.036802946
2019-12-05T23:20:00	0.2342	1.472		0.582801127	0.715233418	0.011540378	0.119059951	0.036695433
2019-12-05T23:25:00	0.2339	1.472		0.581542610	0.713408170	0.011494350	0.118585089	0.036549076
2019-12-05T23:30:00	0.2333	1.472		0.579612479	0.710611426	0.011423942	0.117858701	0.036325196
2019-12-05T23:35:00	0.2334	1.468		0.580031087	0.711217723	0.011439193	0.118016047	0.036373692
2019-12-05T23:40:00	0.2343	1.460		0.583132888	0.715714796	0.011552527	0.119185292	0.036734065
2019-12-05T23:45:00	0.2345	1.454		0.583551077	0.716321709	0.011567851	0.119343382	0.036782789
2019-12-05T23:50:00	0.2355	1.450		0.586984702	0.721310387	0.011694061	0.120645470	0.037184106
2019-12-05T23:55:00	0.2350	1.449		0.585392635	0.718996071	0.011635454	0.120040832	0.036997750
2019-12-06T00:00:00	0.2343	1.449		0.583129357	0.715709671	0.011552398	0.119183957	0.036733653
2019-12-06T00:05:00	0.2345	1.443		0.583547546	0.716316583	0.011567721	0.119342047	0.036782378
2019-12-06T00:10:00	0.2334	1.432		0.579941007	0.711087242	0.011435910	0.117982178	0.036363253
2019-12-06T00:15:00	0.2348	1.424		0.584718917	0.718017352	0.011610698	0.119785435	0.036919034
2019-12-06T00:20:00	0.2344	1.419		0.583461087	0.716191095	0.011564552	0.119309354	0.036772302
2019-12-06T00:25:00	0.2346	1.417		0.583879237	0.716798065	0.011579883	0.119467513	0.036821048
2019-12-06T00:30:00	0.2339	1.410		0.581614983	0.713513099	0.011496994	0.118612371	0.036557485
2019-12-06T00:35:00	0.2333	1.401		0.579684892	0.710716296	0.011426579	0.117885912	0.036333583
2019-12-06T00:40:00	0.2328	1.393		0.578089515	0.708406845	0.011368542	0.117287156	0.036149041
2019-12-06T00:45:00	0.2331	1.385		0.578844008	0.709498778	0.011395971	0.117570128	0.036236255
2019-12-06T00:50:00	0.2338	1.379		0.581276012	0.713021687	0.011484612	0.118484622	0.036518111
2019-12-06T00:55:00	0.2343	1.376		0.583035824	0.715573948	0.011548972	0.119148614	0.036722760
2019-12-06T01:00:00	0.2346	1.374		0.584124454	0.717154080	0.011588878	0.119560313	0.036849650
2019-12-06T01:05:00	0.2354	1.371		0.586552808	0.720682354	0.011678147	0.120481291	0.037133504
2019-12-06T01:10:00	0.2360	1.368		0.588644751	0.723725775	0.011755331	0.121277584	0.037378929
2019-12-06T01:15:00	0.2365	1.368		0.590400883	0.726283461	0.011820326	0.121948126	0.037585597
2019-12-06T01:20:00	0.2369	1.365		0.591821705	0.728354672	0.011873046	0.122492025	0.037753232
2019-12-06T01:25:00	0.2368	1.365		0.591235487	0.727499905	0.011851280	0.122267467	0.037684021
2019-12-06T01:30:00	0.2370	1.364		0.591987165	0.728595982	0.011879193	0.122555445	0.037772778
2019-12-06T01:35:00	0.2371	1.364		0.592404304	0.729204446	0.011894698	0.122715406	0.037822080
2019-12-06T01:40:00	0.2363	1.365		0.589810903	0.725423909	0.011798470	0.121722643	0.037516101
2019-12-06T01:45:00	0.2358	1.364		0.587885306	0.722620489	0.011727281	0.120988192	0.037289736
2019-12-06T01:50:00	0.2356	1.365		0.587298432	0.721766691	0.011705628	0.120764803	0.037220885
2019-12-06T01:55:00	0.2350	1.365		0.585371459	0.718965302	0.011634675	0.120032801	0.036995275
2019-12-06T02:00:00	0.2346	1.364		0.584113862	0.717138701	0.011588489	0.119556304	0.036848414
2019-12-06T02:05:00	0.2347	1.363		0.584196774	0.717259087	0.011591531	0.119587689	0.036858087
2019-12-06T02:10:00	0.2341	1.361		0.582268101	0.714460202	0.011520872	0.118858712	0.036633409
2019-12-06T02:15:00	0.2338	1.357		0.581344857	0.713121486	0.011487126	0.118510562	0.036526106
2019-12-06T02:20:00	0.2335	1.352		0.580421371	0.711783127	0.011453422	0.118162843	0.036418936
2019-12-06T02:25:00	0.2340	1.345		0.581846227	0.713848390	0.011505446	0.118699561	0.036584357
2019-12-06T02:30:00	0.2336	1.342		0.580587368	0.712023645	0.011459477	0.118225307	0.036438188
2019-12-06T02:35:00	0.2336	1.342		0.580670363	0.712143909	0.011462504	0.118256544	0.036447815
2019-12-06T02:40:00	0.2336	1.344		0.580753357	0.712264175	0.011465532	0.118287785	0.036457444
2019-12-06T02:45:00	0.2335	1.342		0.580165291	0.711412130	0.011444085	0.118066514	0.036389246
2019-12-06T02:50:00	0.2336	1.341		0.580583833	0.712018524	0.011459348	0.118223977	0.036437778
2019-12-06T02:55:00	0.2329	1.342		0.578317454	0.708736678	0.011376825	0.117372608	0.036175378
2019-12-06T03:00:00	0.2336	1.341		0.580749823	0.712259054	0.011465404	0.118286454	0.036457034
2019-12-06T03:05:00	0.2338	1.339		0.581168295	0.712865550	0.011480678	0.118444041	0.036505604
2019-12-06T03:10:00	0.2341	1.341		0.582257504	0.714444831	0.011520484	0.118854713	0.036632177
2019-12-06T03:15:00	0.2348	1.342		0.584687147	0.717971208	0.011609532	0.119773398	0.036915325
2019-12-06T03:20:00	0.2351	1.342		0.585775266	0.719552091	0.011649525	0.120186007	0.037042494
2019-12-06T03:25:00	0.2351	1.341		0.585523106	0.719185650	0.011640251	0.120090324	0.037013004
2019-12-06T03:30:00	0.2356	1.342		0.587280794	0.721741037	0.011704977	0.120758092	0.037218817
2019-12-06T03:35:00	0.2350	1.336		0.585353812	0.718939661	0.011634027	0.120026108	0.036993212
2019-12-06T03:40:00	0.2351	1.326		0.585771737	0.719546963	0.011649396	0.120184667	0.037042082
2019-12-06T03:45:00	0.2348	1.315		0.584514283	0.717720151	0.011603185	0.119707916	0.036895142
2019-12-06T03:50:00	0.2357	1.307		0.587612133	0.722223037	0.011717199	0.120884185	0.037257680
2019-12-06T03:55:00	0.2355	1.302		0.587025214	0.721369306	0.011695554	0.120660876	0.037188854
2019-12-06T04:00:00	0.2351	1.296		0.585768208	0.719541834	0.011649266	0.120183328	0.037041669
2019-12-06T04:05:00	0.2349	1.295		0.585092095	0.718559425	0.011624407	0.119926867	0.036962625
2019-12-06T04:10:00	0.2348	1.294		0.584750991	0.718063937	0.011611876	0.119797588	0.036922780
2019-12-06T04:15:00	0.2343	1.297		0.583068977	0.715622054	0.011550186	0.119161141	0.036726621
2019-12-06T04:20:00	0.2342	1.297		0.582727676	0.715126855	0.011537689	0.119032210	0.036686883
2019-12-06T04:25:00	0.2336	1.299		0.580709200	0.712200187	0.011463921	0.118271163	0.036452321
2019-12-06T04:30:00	0.2331	1.296		0.579025249	0.709761147	0.011402564	0.117638154	0.036257222
2019-12-06T04:35:00	0.2324	1.295		0.576668763	0.706351958	0.011316985	0.116755250	0.035985102
2019-12-06T04:40:00	0.2317	1.293		0.574310693	0.702945083	0.011231678	0.115875151	0.035713847
2019-12-06T04:45:00	0.2317	1.287		0.574304678	0.702936399	0.011231461	0.115872910	0.035713156
2019-12-06T04:50:00	0.2313	1.282		0.572953916	0.700986936	0.011182743	0.115370302	0.035558248
2019-12-06T04:55:00	0.2308	1.278		0.571266234	0.698553344	0.011122026	0.114743896	0.035365183
2019-12-06T05:00:00	0.2297	1.268		0.567557700	0.693214011	0.010989198	0.113373527	0.034942822
2019-12-06T05:05:00	0.2296	1.255		0.567214886	0.692721021	0.010976960	0.113247275	0.034903910
2019-12-06T05:10:00	0.2290	1.242		0.565187450	0.689807414	0.010904728	0.112502069	0.034674230
2019-12-06T05:15:00	0.2284	1.229		0.563158836	0.686895509	0.010832697	0.111758936	0.034445189
2019-12-06T05:20:00	0.2284	1.220		0.563152802	0.686886852	0.010832483	0.111756729	0.034444509
2019-12-06T05:25:00	0.2281	1.215		0.562135032	0.685427214	0.010796436	0.111384841	0.034329890
2019-12-06T05:30:00	0.2283	1.211		0.562803520	0.686385832	0.010820105	0.111629032	0.034405152
2019-12-06T05:35:00	0.2286	1.207		0.563809028	0.687828435	0.010855757	0.111996845	0.034518515
2019-12-06T05:40:00	0.2282	1.203		0.562454203	0.685884863	0.010807734	0.111501397	0.034365813
2019-12-06T05:45:00	0.2277	1.197		0.560761442	0.683458627	0.010747884	0.110883937	0.034175506
2019-12-06T05:50:00	0.2274	1.194		0.559742975	0.681999994	0.010711956	0.110513275	0.034061265
2019-12-06T05:55:00	0.2271	1.188		0.558724210	0.680541790	0.010676079	0.110143136	0.033947184
2019-12-06T06:00:00	0.2274	1.186		0.559730894	0.681982698	0.010711530	0.110508883	0.034059911
2019-12-06T06:05:00	0.2279	1.183		0.561412081	0.684390909	0.010770868	0.111121061	0.034248590
2019-12-06T06:10:00	0.2280	1.179		0.561743392	0.684865768	0.010782581	0.111241906	0.034285836
2019-12-06T06:15:00	0.2277	1.173		0.560725211	0.683406723	0.010746605	0.110870740	0.034171439
2019-12-06T06:20:00	0.2288	1.170		0.564428938	0.688718237	0.010877767	0.112223914	0.034588500
2019-12-06T06:25:00	0.2282	1.168		0.562399883	0.685806969	0.010805811	0.111481556	0.034359698
2019-12-06T06:30:00	0.2288	1.165		0.564416874	0.688700917	0.010877338	0.112219492	0.034587137
2019-12-06T06:35:00	0.2288	1.166		0.564410842	0.688692257	0.010877124	0.112217282	0.034586456
2019-12-06T06:40:00	0.2288	1.162		0.564404810	0.688683598	0.010876910	0.112215071	0.034585775
2019-12-06T06:45:00	0.2293	1.161		0.566083747	0.691095054	0.010936631	0.112831204	0.034775673
2019-12-06T06:50:00	0.2295	1.158		0.566751479	0.692054764	0.010960429	0.113076724	0.034851344
2019-12-06T06:55:00	0.2301	1.157		0.568765959	0.694952344	0.011032385	0.113819079	0.035080145
2019-12-06T07:00:00	0.2310	1.163		0.571788515	0.699306207	0.011140798	0.114937562	0.035424873
2019-12-06T07:05:00	0.2311	1.162		0.572118843	0.699782489	0.011152679	0.115060136	0.035462651
2019-12-06T07:10:00	0.2314	1.161		0.573121675	0.701228970	0.011188788	0.115432664	0.035577468
2019-12-06T07:15:00	0.2320	1.163		0.575132493	0.704131874	0.011261371	0.116181484	0.035808262
2019-12-06T07:20:00	0.2328	1.165		0.577813793	0.708007927	0.011358527	0.117183834	0.036117196
2019-12-06T07:25:00	0.2329	1.168		0.578143554	0.708485037	0.011370506	0.117307412	0.036155284
2019-12-06T07:30:00	0.2334	1.169		0.579815917	0.710906060	0.011431352	0.117935155	0.036348760
2019-12-06T07:35:00	0.2336	1.174		0.580481036	0.711869576	0.011455598	0.118185293	0.036425855
2019-12-06T07:40:00	0.2332	1.178		0.579132651	0.709916638	0.011406473	0.117678476	0.036269649
2019-12-06T07:45:00	0.2331	1.184		0.578790968	0.709422001	0.011394041	0.117550224	0.036230121
2019-12-06T07:50:00	0.2329	1.191		0.578113511	0.708441566	0.011369414	0.117296151	0.036151813
2019-12-06T07:55:00	0.2330	1.197		0.578443244	0.708918717	0.011381397	0.117419779	0.036189916
2019-12-06T08:00:00	0.2338	1.202		0.581457469	0.713284737	0.011491239	0.118552999	0.036539186
2019-12-06T08:05:00	0.2348	1.212		0.584804245	0.718141287	0.011613832	0.119817766	0.036928999
2019-12-06T08:10:00	0.2356	1.222		0.587478175	0.722028156	0.011712257	0.120833198	0.037241965
2019-12-06T08:15:00	0.2354	1.232		0.586802391	0.721045263	0.011687342	0.120576153	0.037162741
2019-12-06T08:20:00	0.2356	1.245		0.587466190	0.722010721	0.011711815	0.120828637	0.037240559
2019-12-06T08:25:00	0.2360	1.260		0.588799404	0.723950912	0.011761047	0.121336559	0.037397106
2019-12-06T08:30:00	0.2365	1.271		0.590466708	0.726379381	0.011822766	0.121973297	0.037593355
2019-12-06T08:35:00	0.2362	1.284		0.589456837	0.724908204	0.011785364	0.121587427	0.037474426
2019-12-06T08:40:00	0.2362	1.294		0.589450848	0.724899481	0.011785142	0.121585140	0.037473721
2019-12-06T08:45:00	0.2370	1.304		0.592121255	0.728791558	0.011884176	0.122606853	0.037788623
2019-12-06T08:50:00	0.2384	1.313		0.596794091	0.735616456	0.012058494	0.124405264	0.038342911
2019-12-06T08:55:00	0.2375	1.330		0.593781008	0.731213618	0.011945943	0.123244095	0.037985027
2019-12-06T09:00:00	0.2392	1.349		0.599452978	0.739508028	0.012158265	0.125434582	0.038660156
2019-12-06T09:05:00	0.2391	1.372		0.599113261	0.739010485	0.012145494	0.125302826	0.038619548
2019-12-06T09:10:00	0.2399	1.396		0.601776374	0.742913412	0.012245793	0.126337593	0.038938473
2019-12-06T09:15:00	0.2399	1.417		0.601770406	0.742904658	0.012245568	0.126335269	0.038937757
2019-12-06T09:20:00	0.2393	1.442		0.599762805	0.739961877	0.012169919	0.125554807	0.038697211
2019-12-06T09:25:00	0.2394	1.471		0.600090518	0.740442015	0.012182251	0.125682036	0.038736424
2019-12-06T09:30:00	0.2397	1.507		0.601085413	0.741900204	0.012219729	0.126068696	0.038855597
2019-12-06T09:35:00	0.2395	1.541		0.600412229	0.740913448	0.012194364	0.125807001	0.038774940
2019-12-06T09:40:00	0.2387	1.567		0.597736138	0.736994569	0.012093795	0.124769454	0.038455158
2019-12-06T09:45:00	0.2393	1.584		0.599732946	0.739918135	0.012168795	0.125543218	0.038693639
2019-12-06T09:50:00	0.2388	1.597		0.598058064	0.737465682	0.012105871	0.124894034	0.038493554
2019-12-06T09:55:00	0.2386	1.605		0.597384304	0.736479787	0.012080605	0.124633373	0.038413216
2019-12-06T10:00:00	0.2377	1.616		0.594371725	0.732076200	0.011967966	0.123471302	0.038055054
2019-12-06T10:05:00	0.2370	1.628		0.592069855	0.728716586	0.011882266	0.122587146	0.037782549
2019-12-06T10:10:00	0.2357	1.643		0.587758033	0.722435306	0.011722583	0.120939729	0.037274799
2019-12-06T10:15:00	0.2348	1.660		0.584781661	0.718108484	0.011613003	0.119809208	0.036926362
2019-12-06T10:20:00	0.2356	1.678		0.587165144	0.721572822	0.011700713	0.120714097	0.037205257
2019-12-06T10:25:00	0.2358	1.698		0.587873284	0.722602997	0.011726837	0.120983614	0.037288325
2019-12-06T10:30:00	0.2358	1.720		0.587911700	0.722658896	0.011728255	0.120998244	0.037292834
2019-12-06T10:35:00	0.2355	1.744		0.586945517	0.721253401	0.011692617	0.120630570	0.037179513
2019-12-06T10:40:00	0.2351	1.767		0.585644046	0.719361395	0.011644699	0.120136210	0.037027147
2019-12-06T10:45:00	0.2358	1.792		0.588026946	0.722826595	0.011732510	0.121042138	0.037306363
2019-12-06T10:50:00	0.2359	1.816		0.588400152	0.723369737	0.011746293	0.121184339	0.037350190
2019-12-06T10:55:00	0.2357	1.842		0.587768955	0.722451197	0.011722986	0.120943887	0.037276081
2019-12-06T11:00:00	0.2358	1.871		0.588142189	0.722994299	0.011736765	0.121086039	0.037319893
2019-12-06T11:05:00	0.2354	1.898		0.586506220	0.720614618	0.011676431	0.120463588	0.037128048
2019-12-06T11:10:00	0.2359	1.924		0.588219015	0.723106105	0.011739602	0.121115310	0.037328915
2019-12-06T11:15:00	0.2347	1.951		0.584237660	0.717318454	0.011593031	0.119603168	0.036862858
2019-12-06T11:20:00	0.2348	1.976		0.584611269	0.717861004	0.011606745	0.119744653	0.036906465
2019-12-06T11:25:00	0.2336	2.000		0.580625826	0.712079371	0.011460879	0.118239781	0.036442649
2019-12-06T11:30:00	0.2330	2.026		0.578650666	0.709218920	0.011388939	0.117497582	0.036213896
2019-12-06T11:35:00	0.2333	2.050		0.579696144	0.710732591	0.011426989	0.117890140	0.036334886
2019-12-06T11:40:00	0.2335	2.075		0.580405789	0.711760551	0.011452854	0.118156980	0.036417129
2019-12-06T11:45:00	0.2330	2.100		0.578766216	0.709386172	0.011393141	0.117540936	0.036227258
2019-12-06T11:50:00	0.2336	2.123		0.580482784	0.711872108	0.011455662	0.118185950	0.036426058
2019-12-06T11:55:00	0.2339	2.145		0.581527717	0.713386579	0.011493806	0.118579476	0.036547346
2019-12-06T12:00:00	0.2332	2.165		0.579217430	0.710039384	0.011409558	0.117710309	0.036279460
2019-12-06T12:05:00	0.2340	2.186		0.581940095	0.713984507	0.011508877	0.118734963	0.036595269
2019-12-06T12:10:00	0.2338	2.204		0.581307737	0.713067676	0.011485770	0.118496575	0.036521795
2019-12-06T12:15:00	0.2346	2.222		0.584028784	0.717015177	0.011585368	0.119524103	0.036838489
2019-12-06T12:20:00	0.2338	2.239		0.581384713	0.713179262	0.011488582	0.118525580	0.036530735
2019-12-06T12:25:00	0.2336	2.256		0.580752255	0.712262578	0.011465492	0.118287370	0.036457316
2019-12-06T12:30:00	0.2333	2.274		0.579448489	0.710373948	0.011417970	0.117797090	0.036306207
2019-12-06T12:35:00	0.2333	2.290		0.579486997	0.710429711	0.011419372	0.117811556	0.036310666
2019-12-06T12:40:00	0.2330	2.305		0.578518495	0.709027625	0.011384133	0.117448002	0.036198615
2019-12-06T12:45:00	0.2332	2.319		0.579228379	0.710055236	0.011409957	0.117714420	0.036280727
2019-12-06T12:50:00	0.2334	2.328		0.579938118	0.711083057	0.011435805	0.117981092	0.036362919
2019-12-06T12:55:00	0.2332	2.335		0.579305400	0.710166755	0.011412760	0.117743345	0.036289642
2019-12-06T13:00:00	0.2336	2.341		0.580686210	0.712166871	0.011463082	0.118262509	0.036449654
2019-12-06T13:05:00	0.2331	2.345		0.579046768	0.709792300	0.011403347	0.117646232	0.036259711
2019-12-06T13:10:00	0.2330	2.348		0.578749600	0.709362122	0.011392537	0.117534702	0.036225337
2019-12-06T13:15:00	0.2335	2.354		0.580130629	0.711361917	0.011442821	0.118053478	0.036385229
2019-12-06T13:20:00	0.2334	2.359		0.579833554	0.710931604	0.011431995	0.117941785	0.036350803
2019-12-06T13:25:00	0.2323	2.362		0.576178639	0.705643461	0.011299227	0.116572042	0.035928635
2019-12-06T13:30:00	0.2323	2.367		0.576217184	0.705699171	0.011300623	0.116586444	0.035933074
2019-12-06T13:35:00	0.2315	2.372		0.573567219	0.701871887	0.011204850	0.115598369	0.035628540
2019-12-06T13:40:00	0.2315	2.380		0.573605792	0.701927556	0.011206241	0.115612721	0.035632963
2019-12-06T13:45:00	0.2307	2.388		0.570953850	0.698103153	0.011110806	0.114628141	0.035329506
2019-12-06T13:50:00	0.2305	2.399		0.570319507	0.697189221	0.011088040	0.114393266	0.035257116
2019-12-06T13:55:00	0.2300	2.404		0.568675207	0.694821737	0.011029138	0.113785583	0.035069822
2019-12-06T14:00:00	0.2296	2.412		0.567030133	0.692455374	0.010970368	0.113179263	0.034882948
2019-12-06T14:05:00	0.2296	2.415		0.567068779	0.692510938	0.010971747	0.113193487	0.034887332
2019-12-06T14:10:00	0.2304	2.418		0.569800896	0.696442276	0.011069445	0.114201425	0.035197988
2019-12-06T14:15:00	0.2302	2.418		0.569166344	0.695528648	0.011046715	0.113966919	0.035125711
2019-12-06T14:20:00	0.2314	2.419		0.573241978	0.701402550	0.011193124	0.115477394	0.035591254
2019-12-06T14:25:00	0.2315	2.421		0.573616758	0.701943383	0.011206636	0.115616801	0.035634221
2019-12-06T14:30:00	0.2321	2.422		0.575671855	0.704911090	0.011280880	0.116382760	0.035870297
2019-12-06T14:35:00	0.2320	2.421		0.575374402	0.704481329	0.011270119	0.116271736	0.035836078
2019-12-06T14:40:00	0.2316	2.421		0.574068635	0.702595625	0.011222940	0.115785000	0.035686061
2019-12-06T14:45:00	0.2313	2.415		0.572762382	0.700710630	0.011175844	0.115299124	0.035536310
2019-12-06T14:50:00	0.2310	2.410		0.571792020	0.699311260	0.011140924	0.114938862	0.035425274
2019-12-06T14:55:00	0.2312	2.405		0.572503266	0.700336881	0.011166514	0.115202867	0.035506643
2019-12-06T15:00:00	0.2316	2.397		0.573886757	0.702333080	0.011216376	0.115717286	0.035665191
2019-12-06T15:05:00	0.2315	2.390		0.573589152	0.701903541	0.011205641	0.115606530	0.035631055
2019-12-06T15:10:00	0.2321	2.387		0.575644265	0.704871224	0.011279882	0.116372460	0.035867122
2019-12-06T15:15:00	0.2324	2.384		0.576690639	0.706383584	0.011317778	0.116763430	0.035987623
2019-12-06T15:20:00	0.2325	2.378		0.577065051	0.706924955	0.011331354	0.116903489	0.036030791
2019-12-06T15:25:00	0.2319	2.377		0.574751822	0.703582064	0.011247611	0.116039534	0.035764511
2019-12-06T15:30:00	0.2319	2.373		0.574790382	0.703637751	0.011249005	0.116053909	0.035768942
2019-12-06T15:35:00	0.2315	2.368		0.573484398	0.701752365	0.011201863	0.115567558	0.035619044
2019-12-06T15:40:00	0.2318	2.362		0.574531417	0.703263783	0.011239649	0.115957387	0.035739193
2019-12-06T15:45:00	0.2321	2.359		0.575578123	0.704775658	0.011277488	0.116347769	0.035859512
2019-12-06T15:50:00	0.2320	2.352		0.575280662	0.704345910	0.011266728	0.116236759	0.035825298
2019-12-06T15:55:00	0.2322	2.345		0.575991201	0.705372562	0.011292439	0.116502016	0.035907053
2019-12-06T16:00:00	0.2324	2.341		0.576701596	0.706399425	0.011318175	0.116767528	0.035988886
2019-12-06T16:05:00	0.2326	2.336		0.577165095	0.707069631	0.011334983	0.116940928	0.036042330
2019-12-06T16:10:00	0.2321	2.331		0.575613135	0.704826245	0.011278755	0.116360839	0.035863541
2019-12-06T16:15:00	0.2318	2.325		0.574732713	0.703554468	0.011246921	0.116032411	0.035762316
2019-12-06T16:20:00	0.2324	2.323		0.576540361	0.706166326	0.011312331	0.116707239	0.035970304
2019-12-06T16:25:00	0.2330	2.320		0.578682795	0.709265425	0.011390107	0.117509636	0.036217611
2019-12-06T16:30:00	0.2325	2.319		0.576795640	0.706535395	0.011321584	0.116802700	0.035999726
2019-12-06T16:35:00	0.2332	2.320		0.579273580	0.710120683	0.011411602	0.117731395	0.036285959
2019-12-06T16:40:00	0.2346	2.317		0.584096854	0.717114007	0.011587865	0.119549867	0.036846430
2019-12-06T16:45:00	0.2357	2.314		0.587574359	0.722168081	0.011715806	0.120869806	0.037253248
2019-12-06T16:50:00	0.2360	2.311		0.588705984	0.723814912	0.011757594	0.121300932	0.037386125
2019-12-06T16:55:00	0.2366	2.310		0.590506460	0.726437309	0.011824240	0.121988499	0.037598040
2019-12-06T17:00:00	0.2374	2.308		0.593309090	0.730524720	0.011928364	0.123062735	0.037929130
2019-12-06T17:05:00	0.2362	2.308		0.589422267	0.724857856	0.011784085	0.121574228	0.037470358
2019-12-06T17:10:00	0.2357	2.307		0.587540869	0.722119361	0.011714570	0.120857059	0.037249319
2019-12-06T17:15:00	0.2362	2.311		0.589341941	0.724740877	0.011781112	0.121543565	0.037460907
2019-12-06T17:20:00	0.2356	2.316		0.587460501	0.722002445	0.011711605	0.120826472	0.037239892
2019-12-06T17:25:00	0.2355	2.322		0.586917977	0.721213350	0.011691602	0.120620098	0.037176286
2019-12-06T17:30:00	0.2352	2.330		0.586040385	0.719937421	0.011659281	0.120286648	0.037073513
2019-12-06T17:35:00	0.2348	2.340		0.584492342	0.717688288	0.011602379	0.119699606	0.036892581
2019-12-06T17:40:00	0.2352	2.354		0.585959982	0.719820556	0.011656322	0.120256122	0.037064105
2019-12-06T17:45:00	0.2354	2.374		0.586757210	0.720979564	0.011685677	0.120558978	0.037157448
2019-12-06T17:50:00	0.2362	2.393		0.589228141	0.724575157	0.011776902	0.121500129	0.037447520
2019-12-06T17:55:00	0.2363	2.408		0.589689992	0.725247787	0.011793994	0.121676459	0.037501866
2019-12-06T18:00:00	0.2375	2.419		0.593830566	0.731285974	0.011947790	0.123263148	0.037990899
2019-12-06T18:05:00	0.2382	2.430		0.595962504	0.734400550	0.012027377	0.124084232	0.038243965
2019-12-06T18:10:00	0.2377	2.444		0.594418814	0.732144974	0.011969723	0.123489423	0.038060640
2019-12-06T18:15:00	0.2386	2.456		0.597218340	0.736236995	0.012074385	0.124569209	0.038393440
2019-12-06T18:20:00	0.2389	2.459		0.598346877	0.737888410	0.012116709	0.125005855	0.038528018
2019-12-06T18:25:00	0.2391	2.461		0.599141310	0.739051562	0.012146549	0.125313702	0.038622900
2019-12-06T18:30:00	0.2406	2.461		0.603937504	0.746085020	0.012327499	0.127180531	0.039198275
2019-12-06T18:35:00	0.2390	2.460		0.598727424	0.738445514	0.012130998	0.125153270	0.038573453
2019-12-06T18:40:00	0.2402	2.458		0.602857425	0.744499440	0.012286629	0.126758891	0.039068321
2019-12-06T18:45:00	0.2404	2.451		0.603317497	0.745174717	0.012304030	0.126938405	0.039123649
2019-12-06T18:50:00	0.2402	2.449		0.602777404	0.744382007	0.012283604	0.126727681	0.039058702
2019-12-06T18:55:00	0.2404	2.448		0.603237487	0.745057269	0.012301003	0.126907177	0.039114024
2019-12-06T19:00:00	0.2390	2.445		0.598694040	0.738396637	0.012129744	0.125140335	0.038569466
2019-12-06T19:05:00	0.2388	2.441		0.598153241	0.737604983	0.012109442	0.124930879	0.038504910
2019-12-06T19:10:00	0.2387	2.435		0.597612359	0.736813452	0.012089154	0.124721571	0.038440399
2019-12-06T19:15:00	0.2395	2.433		0.600409358	0.740909239	0.012194255	0.125805885	0.038774596
2019-12-06T19:20:00	0.2388	2.433		0.597866115	0.737184769	0.012098670	0.124819745	0.038470658
2019-12-06T19:25:00	0.2379	2.435		0.594986906	0.732974814	0.011990924	0.123708147	0.038128052
2019-12-06T19:30:00	0.2392	2.439		0.599455020	0.739511018	0.012158342	0.125435374	0.038660400
2019-12-06T19:35:00	0.2376	2.442		0.593904088	0.731393320	0.011950530	0.123291417	0.037999612
2019-12-06T19:40:00	0.2381	2.445		0.595701914	0.734019648	0.012017634	0.123983719	0.038212986
2019-12-06T19:45:00	0.2383	2.449		0.596496943	0.735181914	0.012047371	0.124290502	0.038307540
2019-12-06T19:50:00	0.2384	2.457		0.596623863	0.735367509	0.012052121	0.124339513	0.038322646
2019-12-06T19:55:00	0.2386	2.460		0.597418684	0.736530084	0.012081893	0.124646667	0.038417313
2019-12-06T20:00:00	0.2397	2.461		0.600883086	0.741603592	0.012212103	0.125990014	0.038831346
2019-12-06T20:05:00	0.2403	2.466		0.603010776	0.744724504	0.012292428	0.126818712	0.039086759
2019-12-06T20:10:00	0.2403	2.466		0.603137463	0.744910449	0.012297219	0.126868142	0.039101994
2019-12-06T20:15:00	0.2406	2.463		0.603930822	0.746075208	0.012327246	0.127177920	0.039197470
2019-12-06T20:20:00	0.2402	2.465		0.602724044	0.744303702	0.012281587	0.126706872	0.039052288
2019-12-06T20:25:00	0.2399	2.461		0.601850373	0.743021946	0.012248586	0.126366409	0.038947354
2019-12-06T20:30:00	0.2406	2.457		0.603977482	0.746143728	0.012329013	0.127196151	0.039203089
2019-12-06T20:35:00	0.2403	2.452		0.603104121	0.744861509	0.012295958	0.126855132	0.039097984
2019-12-06T20:40:00	0.2400	2.452		0.601897061	0.743090425	0.012250349	0.126384591	0.038952958
2019-12-06T20:45:00	0.2412	2.451		0.606023368	0.749149881	0.012406624	0.127996848	0.039449872
2019-12-06T20:50:00	0.2410	2.452		0.605483687	0.748356553	0.012386126	0.127785382	0.039384696
2019-12-06T20:55:00	0.2415	2.457		0.606942632	0.750501758	0.012441578	0.128357462	0.039561016
2019-12-06T21:00:00	0.2417	2.463		0.607735140	0.751667795	0.012471753	0.128668772	0.039656965
2019-12-06T21:05:00	0.2419	2.474		0.608194580	0.752344022	0.012489263	0.128849425	0.039712644
2019-12-06T21:10:00	0.2412	2.484		0.605990053	0.749100901	0.012405358	0.127983789	0.039445847
2019-12-06T21:15:00	0.2409	2.497		0.605117187	0.747817938	0.012372217	0.127641877	0.039340466
2019-12-06T21:20:00	0.2414	2.510		0.606576283	0.749962917	0.012427641	0.128213686	0.039516703
2019-12-06T21:25:00	0.2425	2.525		0.610364463	0.755540162	0.012572135	0.129704396	0.039976154
2019-12-06T21:30:00	0.2424	2.540		0.610158181	0.755236147	0.012564244	0.129622991	0.039951065
2019-12-06T21:35:00	0.2414	2.555		0.606622908	0.750031490	0.012429415	0.128231980	0.039522342
2019-12-06T21:40:00	0.2404	2.571		0.603417479	0.745321490	0.012307813	0.126977434	0.039135678
2019-12-06T21:45:00	0.2415	2.588		0.606876019	0.750403773	0.012439043	0.128331313	0.039552957
2019-12-06T21:50:00	0.2413	2.608		0.606336468	0.749610249	0.012418523	0.128119614	0.039487709
2019-12-06T21:55:00	0.2409	2.631		0.605130509	0.747837514	0.012372722	0.127647092	0.039342073
2019-12-06T22:00:00	0.2411	2.651		0.605590287	0.748513234	0.012390174	0.127827137	0.039397565
2019-12-06T22:05:00	0.2404	2.671		0.603351857	0.745225156	0.012305330	0.126951817	0.039127783
2019-12-06T22:10:00	0.2409	2.692		0.605112621	0.747811228	0.012372043	0.127640090	0.039339915
2019-12-06T22:15:00	0.2406	2.714		0.603873968	0.745991721	0.012325093	0.127155707	0.039190624
2019-12-06T22:20:00	0.2400	2.734		0.601967960	0.743194420	0.012253025	0.126412204	0.038961469
2019-12-06T22:25:00	0.2404	2.751		0.603396071	0.745290062	0.012307003	0.126969077	0.039133102
2019-12-06T22:30:00	0.2398	2.765		0.601489806	0.742493147	0.012234980	0.126226036	0.038904090
2019-12-06T22:35:00	0.2393	2.778		0.599582514	0.739697768	0.012163137	0.125484840	0.038675646
2019-12-06T22:40:00	0.2381	2.786		0.595670243	0.733973357	0.012016451	0.123971506	0.038209222
2019-12-06T22:45:00	0.2372	2.796		0.592756862	0.729718821	0.011907811	0.122850686	0.037863775
2019-12-06T22:50:00	0.2365	2.805		0.590175697	0.725955349	0.011811982	0.121862038	0.037559064
2019-12-06T22:55:00	0.2360	2.810		0.588597054	0.723656343	0.011753568	0.121259398	0.037373324
2019-12-06T23:00:00	0.2347	2.820		0.584337425	0.717463319	0.011596693	0.119640940	0.036874500
2019-12-06T23:05:00	0.2345	2.830		0.583761956	0.716627810	0.011575582	0.119423143	0.036807372
2019-12-06T23:10:00	0.2340	2.839		0.581845049	0.713846683	0.011505402	0.118699117	0.036584221
2019-12-06T23:15:00	0.2331	2.848		0.578920201	0.709609074	0.011398742	0.117598724	0.036245069
2019-12-06T23:20:00	0.2328	2.856		0.578008094	0.708289037	0.011365584	0.117256640	0.036139635
2019-12-06T23:25:00	0.2330	2.866		0.578774619	0.709398335	0.011393447	0.117544089	0.036228230
2019-12-06T23:30:00	0.2327	2.875		0.577526677	0.707592590	0.011348103	0.117076291	0.036084050
2019-12-06T23:35:00	0.2313	2.885		0.572917354	0.700934190	0.011181426	0.115356714	0.035554059
2019-12-06T23:40:00	0.2308	2.894		0.571330933	0.698646595	0.011124351	0.114767878	0.035372575
2019-12-06T23:45:00	0.2301	2.904		0.568733967	0.694906302	0.011031240	0.113807270	0.035076506
2019-12-06T23:50:00	0.2301	2.912		0.568829293	0.695043496	0.011034651	0.113842458	0.035087351
2019-12-06T23:55:00	0.2294	2.919		0.566567350	0.691790085	0.010953864	0.113008994	0.034830469
2019-12-07T00:00:00	0.2291	2.927		0.565652019	0.690474741	0.010921258	0.112672605	0.034726791
2019-12-07T00:05:00	0.2288	2.935		0.564399389	0.688675815	0.010876717	0.112213084	0.034585162
2019-12-07T00:10:00	0.2290	2.943		0.565168899	0.689780771	0.010904068	0.112495262	0.034672132
2019-12-07T00:15:00	0.2284	2.951		0.563241787	0.687014512	0.010835637	0.111789274	0.034454540
2019-12-07T00:20:00	0.2271	2.961		0.558613579	0.680383490	0.010672186	0.110102979	0.033934808
2019-12-07T00:25:00	0.2262	2.970		0.555669225	0.676174175	0.010568859	0.109036974	0.033606254
2019-12-07T00:30:00	0.2273	2.982		0.559479948	0.681623431	0.010702687	0.110417652	0.034031793
2019-12-07T00:35:00	0.2267	2.993		0.557549689	0.678861706	0.010634792	0.109717190	0.033815903
2019-12-07T00:40:00	0.2269	3.003		0.557983033	0.679481447	0.010650016	0.109874247	0.033864310
2019-12-07T00:45:00	0.2236	3.013		0.546917106	0.663703996	0.010264727	0.105899298	0.032639192
2019-12-07T00:50:00	0.2235	3.024		0.546674251	0.663358867	0.010256352	0.105812895	0.032612562
2019-12-07T00:55:00	0.2230	3.033		0.544736865	0.660607321	0.010189664	0.105124886	0.032400511
2019-12-07T01:00:00	0.2235	3.046		0.546527317	0.663150079	0.010251287	0.105760636	0.032596455
2019-12-07T01:05:00	0.2253	3.062		0.552716327	0.671959802	0.010465745	0.107973157	0.033278376
2019-12-07T01:10:00	0.2268	3.079		0.557881367	0.679336037	0.010646443	0.109837390	0.033852950
2019-12-07T01:15:00	0.2260	3.096		0.554936394	0.675127611	0.010543221	0.108772469	0.033524731
2019-12-07T01:20:00	0.2269	3.115		0.558072610	0.679609574	0.010653164	0.109906726	0.033874320
2019-12-07T01:25:00	0.2271	3.134		0.558843517	0.680712517	0.010680277	0.110186451	0.033960534
2019-12-07T01:30:00	0.2272	3.151		0.558939114	0.680849321	0.010683642	0.110221163	0.033971233
2019-12-07T01:35:00	0.2287	3.168		0.564094943	0.688238790	0.010865906	0.112101544	0.034550785
2019-12-07T01:40:00	0.2289	3.184		0.564864520	0.689343648	0.010893245	0.112383604	0.034637718
2019-12-07T01:45:00	0.2289	3.201		0.564959952	0.689480690	0.010896638	0.112418606	0.034648506
2019-12-07T01:50:00	0.2279	3.218		0.561346281	0.684296610	0.010768543	0.111097069	0.034241196
2019-12-07T01:55:00	0.2287	3.232		0.564139653	0.688302965	0.010867493	0.112117921	0.034555832
2019-12-07T02:00:00	0.2278	3.247		0.561199966	0.684086937	0.010763372	0.111043728	0.034224755
2019-12-07T02:05:00	0.2271	3.261		0.558595452	0.680357554	0.010671549	0.110096401	0.033932780
2019-12-07T02:10:00	0.2261	3.272		0.555313145	0.675665598	0.010556398	0.108908411	0.033566630
2019-12-07T02:15:00	0.2257	3.285		0.554056793	0.673872026	0.010512490	0.108455420	0.033427014
2019-12-07T02:20:00	0.2249	3.298		0.551446926	0.670150317	0.010421575	0.107517466	0.033137927
2019-12-07T02:25:00	0.2262	3.314		0.555600217	0.676075604	0.010566444	0.109012052	0.033598573
2019-12-07T02:30:00	0.2264	3.331		0.556371672	0.677177762	0.010593464	0.109290817	0.033684491
2019-12-07T02:35:00	0.2270	3.345		0.558493804	0.680212119	0.010667973	0.110059512	0.033921411
2019-12-07T02:40:00	0.2256	3.361		0.553521166	0.673107758	0.010493799	0.108262586	0.033367580
2019-12-07T02:45:00	0.2255	3.375		0.553278773	0.672761972	0.010485346	0.108175377	0.033340702
2019-12-07T02:50:00	0.2251	3.388		0.552021685	0.670969451	0.010441562	0.107723673	0.033201482
2019-12-07T02:55:00	0.2253	3.398		0.552793935	0.672070472	0.010468448	0.108001049	0.033286972
2019-12-07T03:00:00	0.2259	3.407		0.554580239	0.674619141	0.010530772	0.108644038	0.033485148
2019-12-07T03:05:00	0.2260	3.414		0.555013953	0.675238352	0.010545933	0.108800447	0.033533355
2019-12-07T03:10:00	0.2255	3.418		0.553419370	0.672962534	0.010490248	0.108225957	0.033356291
2019-12-07T03:15:00	0.2268	3.424		0.557570307	0.678891190	0.010635516	0.109724660	0.033818206
2019-12-07T03:20:00	0.2250	3.428		0.551581543	0.670342146	0.010426254	0.107565745	0.033152807
2019-12-07T03:25:00	0.2288	3.435		0.564509378	0.688833721	0.010880624	0.112253395	0.034597587
2019-12-07T03:30:00	0.2294	3.443		0.566626565	0.691875202	0.010955975	0.113030773	0.034837182
2019-12-07T03:35:00	0.2301	3.453		0.568742470	0.694918539	0.011031544	0.113810409	0.035077473
2019-12-07T03:40:00	0.2316	3.461		0.573883863	0.702328903	0.011216272	0.115716209	0.035664859
2019-12-07T03:45:00	0.2317	3.472		0.574315186	0.702951569	0.011231840	0.115876824	0.035714363
2019-12-07T03:50:00	0.2318	3.483		0.574410359	0.703088985	0.011235277	0.115912280	0.035725290
2019-12-07T03:55:00	0.2323	3.494		0.576185641	0.705653580	0.011299481	0.116574658	0.035929442
2019-12-07T04:00:00	0.2310	3.505		0.571910920	0.699482686	0.011145200	0.114982975	0.035438870
2019-12-07T04:05:00	0.2296	3.518		0.567067825	0.692509567	0.010971713	0.113193136	0.034887224
2019-12-07T04:10:00	0.2290	3.527		0.565252261	0.689900501	0.010907033	0.112525852	0.034681561
2019-12-07T04:15:00	0.2299	3.526		0.568152920	0.694070208	0.011010462	0.113592906	0.035010437
2019-12-07T04:20:00	0.2295	3.530		0.566674792	0.691944525	0.010957694	0.113048512	0.034842649
2019-12-07T04:25:00	0.2282	3.533		0.562499011	0.685949117	0.010809320	0.111517765	0.034370858
2019-12-07T04:30:00	0.2285	3.535		0.563379501	0.687212090	0.010840520	0.111839649	0.034470066
2019-12-07T04:35:00	0.2291	3.532		0.565607862	0.690411305	0.010919686	0.112656390	0.034721794
2019-12-07T04:40:00	0.2274	3.529		0.559743586	0.682000870	0.010711978	0.110513498	0.034061333
2019-12-07T04:45:00	0.2260	3.530		0.554883565	0.675052181	0.010541374	0.108753414	0.033518858
2019-12-07T04:50:00	0.2252	3.525		0.552385228	0.671487706	0.010454215	0.107854205	0.033241713
2019-12-07T04:55:00	0.2236	3.523		0.546837410	0.663590732	0.010261978	0.105870940	0.032630452
2019-12-07T05:00:00	0.2275	3.533		0.560231012	0.682698847	0.010729165	0.110690813	0.034115984
2019-12-07T05:05:00	0.2277	3.551		0.560774666	0.683477571	0.010748351	0.110888754	0.034176991
2019-12-07T05:10:00	0.2259	3.573		0.554564235	0.674596296	0.010530213	0.108638269	0.033483369
2019-12-07T05:15:00	0.2248	3.594		0.551050709	0.669585794	0.010407807	0.107375431	0.033094151
2019-12-07T05:20:00	0.2256	3.614		0.553625104	0.673256045	0.010497424	0.108299992	0.033379109
2019-12-07T05:25:00	0.2250	3.632		0.551802522	0.670657072	0.010433938	0.107645020	0.033177240
2019-12-07T05:30:00	0.2267	3.651		0.557417445	0.678672610	0.010630149	0.109669283	0.033801138
2019-12-07T05:35:00	0.2277	3.663		0.560662074	0.683316276	0.010744376	0.110847745	0.034164352
2019-12-07T05:40:00	0.2273	3.673		0.559518333	0.681678381	0.010704040	0.110431604	0.034036093
2019-12-07T05:45:00	0.2253	3.681		0.552629293	0.671835697	0.010462713	0.107941883	0.033268737
2019-12-07T05:50:00	0.2254	3.686		0.552835955	0.672130397	0.010469912	0.108016152	0.033291627
2019-12-07T05:55:00	0.2249	3.691		0.551351316	0.670014081	0.010418252	0.107483183	0.033127361
2019-12-07T06:00:00	0.2270	3.698		0.558317882	0.679960434	0.010661786	0.109995684	0.033901738
2019-12-07T06:05:00	0.2276	3.708		0.560549479	0.683154986	0.010740402	0.110806743	0.034151714
2019-12-07T06:10:00	0.2278	3.730		0.561093082	0.683933781	0.010759596	0.111004770	0.034212748
2019-12-07T06:15:00	0.2269	3.751		0.557923862	0.679396816	0.010647936	0.109852795	0.033857698
2019-12-07T06:20:00	0.2280	3.774		0.561842729	0.685008164	0.010786095	0.111278152	0.034297007
2019-12-07T06:25:00	0.2291	3.795		0.565420238	0.690141779	0.010913009	0.112587506	0.034700563
2019-12-07T06:30:00	0.2280	3.816		0.561917651	0.685115566	0.010788745	0.111305493	0.034305434
2019-12-07T06:35:00	0.2272	3.835		0.559086786	0.681060664	0.010688840	0.110274796	0.033987763
2019-12-07T06:40:00	0.2269	3.854		0.557942527	0.679423513	0.010648592	0.109859562	0.033859784
2019-12-07T06:45:00	0.2270	3.874		0.558486538	0.680201723	0.010667718	0.110056875	0.033920598
2019-12-07T06:50:00	0.2283	3.892		0.562742024	0.686297632	0.010817927	0.111606557	0.034398225
2019-12-07T06:55:00	0.2267	3.909		0.557548465	0.678859956	0.010634749	0.109716746	0.033815767
2019-12-07T07:00:00	0.2282	3.923		0.562479682	0.685921400	0.010808636	0.111510704	0.034368682
2019-12-07T07:05:00	0.2291	3.937		0.565382644	0.690087777	0.010911672	0.112573706	0.034696309
2019-12-07T07:10:00	0.2296	3.952		0.567272946	0.692804508	0.010979032	0.113268652	0.034910499
2019-12-07T07:15:00	0.2298	3.968		0.567815504	0.693584814	0.010998405	0.113468519	0.034972099
2019-12-07T07:20:00	0.2302	3.983		0.569031299	0.695334252	0.011041880	0.113917044	0.035110339
2019-12-07T07:25:00	0.2293	3.997		0.566206199	0.691271024	0.010940993	0.112876208	0.034789544
2019-12-07T07:30:00	0.2297	4.014		0.567422554	0.693019651	0.010984373	0.113323747	0.034927479
2019-12-07T07:35:00	0.2298	4.029		0.567965089	0.693799990	0.011003749	0.113523654	0.034989093
2019-12-07T07:40:00	0.2289	4.041		0.564802107	0.689254025	0.010891027	0.112360715	0.034630664
2019-12-07T07:45:00	0.2297	4.057		0.567366366	0.692938848	0.010982367	0.113303053	0.034921101
2019-12-07T07:50:00	0.2296	4.071		0.567235371	0.692750477	0.010977691	0.113254817	0.034906234
2019-12-07T07:55:00	0.2298	4.090		0.567777935	0.693530775	0.010997063	0.113454673	0.034967832
2019-12-07T08:00:00	0.2292	4.103		0.565962740	0.690921174	0.010932321	0.112786739	0.034761968
2019-12-07T08:05:00	0.2287	4.114		0.564146602	0.688312940	0.010867740	0.112120467	0.034556617
2019-12-07T08:10:00	0.2283	4.125		0.562666777	0.686189711	0.010815262	0.111579059	0.034389750
2019-12-07T08:15:00	0.2284	4.147		0.563210051	0.686968982	0.010834512	0.111777666	0.034450962
2019-12-07T08:20:00	0.2295	4.171		0.566786159	0.692104619	0.010961666	0.113089483	0.034855277
2019-12-07T08:25:00	0.2283	4.195		0.562947744	0.686592699	0.010825215	0.111681751	0.034421400
2019-12-07T08:30:00	0.2298	4.218		0.567871341	0.693665134	0.011000400	0.113489098	0.034978442
2019-12-07T08:35:00	0.2296	4.240		0.567066795	0.692508086	0.010971676	0.113192757	0.034887107
2019-12-07T08:40:00	0.2298	4.261		0.567946134	0.693772722	0.011003072	0.113516667	0.034986939
2019-12-07T08:45:00	0.2311	4.280		0.572190116	0.699885266	0.011155244	0.115086592	0.035470805
2019-12-07T08:50:00	0.2310	4.300		0.571722948	0.699211681	0.011138441	0.114913240	0.035417377
2019-12-07T08:55:00	0.2319	4.318		0.574954324	0.703874526	0.011254930	0.116115035	0.035787781
2019-12-07T09:00:00	0.2321	4.338		0.575495692	0.704656561	0.011274506	0.116317001	0.035850029
2019-12-07T09:05:00	0.2319	4.354		0.575028965	0.703982335	0.011257628	0.116142870	0.035796361
2019-12-07T09:10:00	0.2320	4.371		0.575234305	0.704278943	0.011265052	0.116219464	0.035819968
2019-12-07T09:15:00	0.2328	4.387		0.577790936	0.707974859	0.011357697	0.117175270	0.036114556
2019-12-07T09:20:00	0.2331	4.404		0.579003274	0.709729334	0.011401765	0.117629905	0.036254679
2019-12-07T09:25:00	0.2328	4.426		0.577865516	0.708082756	0.011360406	0.117203213	0.036123168
2019-12-07T09:30:00	0.2331	4.445		0.579077829	0.709837269	0.011404478	0.117657893	0.036263305
2019-12-07T09:35:00	0.2327	4.464		0.577604306	0.707704880	0.011350921	0.117105363	0.036093010
2019-12-07T09:40:00	0.2322	4.486		0.575794201	0.705087876	0.011285308	0.116428441	0.035884376
2019-12-07T09:45:00	0.2322	4.511		0.575999496	0.705384551	0.011292740	0.116505115	0.035908008
2019-12-07T09:50:00	0.2346	4.538		0.583922898	0.716861450	0.011581484	0.119484034	0.036826140
2019-12-07T09:55:00	0.2331	4.565		0.579096382	0.709864129	0.011405153	0.117664859	0.036265452
2019-12-07T10:00:00	0.2333	4.593		0.579637111	0.710647098	0.011424839	0.117867957	0.036328049
2019-12-07T10:05:00	0.2322	4.627		0.576003035	0.705389665	0.011292868	0.116506436	0.035908415
2019-12-07T10:10:00	0.2302	4.660		0.569337107	0.695774479	0.011052829	0.114030003	0.035145154
2019-12-07T10:15:00	0.2306	4.684		0.570406443	0.697314455	0.011091159	0.114425441	0.035267032
2019-12-07T10:20:00	0.2310	4.709		0.571811830	0.699339822	0.011141637	0.114946211	0.035427539
2019-12-07T10:25:00	0.2310	4.727		0.571871490	0.699425836	0.011143782	0.114968345	0.035434361
2019-12-07T10:30:00	0.2323	4.745		0.576300968	0.705820273	0.011303658	0.116617754	0.035942724
2019-12-07T10:35:00	0.2323	4.763		0.576360551	0.705906399	0.011305816	0.116640023	0.035949588
2019-12-07T10:40:00	0.2314	4.782		0.573395558	0.701624162	0.011198660	0.115534511	0.035608858
2019-12-07T10:45:00	0.2319	4.796		0.574799746	0.703651275	0.011249343	0.116057400	0.035770018
2019-12-07T10:50:00	0.2318	4.806		0.574523270	0.703252020	0.011239355	0.115954351	0.035738257
2019-12-07T10:55:00	0.2322	4.812		0.575927007	0.705279792	0.011290115	0.116478038	0.035899663
2019-12-07T11:00:00	0.2330	4.817		0.578673252	0.709251611	0.011389760	0.117506056	0.036216508
2019-12-07T11:05:00	0.2319	4.823		0.575038176	0.703995639	0.011257961	0.116146305	0.035797419
2019-12-07T11:10:00	0.2314	4.831		0.573080926	0.701170178	0.011187320	0.115417515	0.035572799
2019-12-07T11:15:00	0.2310	4.836		0.571795372	0.699316094	0.011141045	0.114940106	0.035425657
2019-12-07T11:20:00	0.2308	4.847		0.571182254	0.698432308	0.011119009	0.114712771	0.035355590
2019-12-07T11:25:00	0.2311	4.857		0.572251027	0.699973102	0.011157435	0.115109204	0.035477775
2019-12-07T11:30:00	0.2303	4.865		0.569619139	0.696180548	0.011062932	0.114134230	0.035177278
2019-12-07T11:35:00	0.2301	4.886		0.569005639	0.695297317	0.011040962	0.113907568	0.035107419
2019-12-07T11:40:00	0.2307	4.909		0.570748068	0.697806635	0.011103418	0.114551920	0.035306014
2019-12-07T11:45:00	0.2294	4.926		0.566431060	0.691594190	0.010949006	0.112958874	0.034815022
2019-12-07T11:50:00	0.2283	4.935		0.562783238	0.686356742	0.010819387	0.111621619	0.034402867
2019-12-07T11:55:00	0.2284	4.943		0.563180261	0.686926246	0.010833456	0.111766771	0.034447604
2019-12-07T12:00:00	0.2290	4.950		0.565262605	0.689915358	0.010907401	0.112529648	0.034682730
2019-12-07T12:05:00	0.2284	4.954		0.562962678	0.686614120	0.010825745	0.111687211	0.034423083
2019-12-07T12:10:00	0.2288	4.957		0.564371060	0.688635147	0.010875711	0.112202703	0.034581963
2019-12-07T12:15:00	0.2285	4.962		0.563419485	0.687269458	0.010841938	0.111854278	0.034474575
2019-12-07T12:20:00	0.2281	4.969		0.562130372	0.685420531	0.010796271	0.111383140	0.034329365
2019-12-07T12:25:00	0.2273	4.977		0.559490844	0.681639029	0.010703071	0.110421612	0.034033013
2019-12-07T12:30:00	0.2265	4.987		0.556849316	0.677860404	0.010610211	0.109463595	0.033737743
2019-12-07T12:35:00	0.2259	4.990		0.554543829	0.674567165	0.010529500	0.108630913	0.033481102
2019-12-07T12:40:00	0.2258	4.991		0.554265744	0.674170235	0.010519786	0.108530694	0.033450214
2019-12-07T12:45:00	0.2262	4.992		0.555677646	0.676186203	0.010569154	0.109040015	0.033607191
2019-12-07T12:50:00	0.2277	4.993		0.560802603	0.683517594	0.010749337	0.110898930	0.034180127
2019-12-07T12:55:00	0.2272	4.994		0.559174958	0.681186861	0.010691945	0.110306825	0.033997635
2019-12-07T13:00:00	0.2251	4.994		0.552138541	0.671136025	0.010445628	0.107765622	0.033214411
2019-12-07T13:05:00	0.2253	4.999		0.552536780	0.671703784	0.010459491	0.107908644	0.033258492
2019-12-07T13:10:00	0.2251	5.006		0.551920266	0.670824891	0.010438034	0.107687272	0.033190263
2019-12-07T13:15:00	0.2247	5.012		0.550626888	0.668982084	0.010393091	0.107223606	0.033047357
2019-12-07T13:20:00	0.2232	5.017		0.545607122	0.661842912	0.010219593	0.105433653	0.032495676
2019-12-07T13:25:00	0.2244	5.018		0.549731588	0.667707264	0.010362039	0.106903242	0.032948617
2019-12-07T13:30:00	0.2240	5.020		0.548098753	0.665383958	0.010305526	0.106320215	0.032768923
2019-12-07T13:35:00	0.2247	5.023		0.550528571	0.668842059	0.010389679	0.107188402	0.033036506
2019-12-07T13:40:00	0.2239	5.027		0.547880224	0.665073187	0.010297975	0.106242309	0.032744911
2019-12-07T13:45:00	0.2243	5.029		0.549294722	0.667085448	0.010346903	0.106747094	0.032900491
2019-12-07T13:50:00	0.2238	5.029		0.547661682	0.664762435	0.010290426	0.106164427	0.032720907
2019-12-07T13:55:00	0.2239	5.030		0.548060434	0.665329461	0.010304202	0.106306552	0.032764712
2019-12-07T14:00:00	0.2245	5.030		0.549813365	0.667823679	0.010364873	0.106932484	0.032957630
2019-12-07T14:05:00	0.2246	5.031		0.550211870	0.668391057	0.010378691	0.107075040	0.033001567
2019-12-07T14:10:00	0.2249	5.031		0.551287088	0.669922567	0.010416020	0.107460156	0.033120264
2019-12-07T14:15:00	0.2254	5.028		0.553038392	0.672419105	0.010476966	0.108088928	0.033314057
2019-12-07T14:20:00	0.2259	5.026		0.554788814	0.674916903	0.010538062	0.108719242	0.033508326
2019-12-07T14:25:00	0.2257	5.024		0.554172700	0.674037440	0.010516537	0.108497172	0.033439882
2019-12-07T14:30:00	0.2267	5.021		0.557273872	0.678467331	0.010625108	0.109617285	0.033785112
2019-12-07T14:35:00	0.2253	5.019		0.552601942	0.671796696	0.010461761	0.107932055	0.033265708
2019-12-07T14:40:00	0.2271	5.019		0.558744439	0.680570737	0.010676791	0.110150480	0.033949448
2019-12-07T14:45:00	0.2277	5.018		0.560829431	0.683556030	0.010750285	0.110908704	0.034183140
2019-12-07T14:50:00	0.2281	5.016		0.562238675	0.685575815	0.010800104	0.111422683	0.034341553
2019-12-07T14:55:00	0.2289	5.013		0.564658647	0.689048034	0.010885928	0.112308114	0.034614451
2019-12-07T15:00:00	0.2295	5.011		0.566740109	0.692038420	0.010960023	0.113072541	0.034850055
2019-12-07T15:05:00	0.2295	5.007		0.566799856	0.692124309	0.010962154	0.113094522	0.034856830
2019-12-07T15:10:00	0.2296	5.005		0.567196423	0.692694472	0.010976301	0.113240477	0.034901815
2019-12-07T15:15:00	0.2296	5.003		0.567256161	0.692780373	0.010978433	0.113262472	0.034908594
2019-12-07T15:20:00	0.2301	5.000		0.568999462	0.695288426	0.011040741	0.113905287	0.035106716
2019-12-07T15:25:00	0.2299	4.997		0.568049147	0.693920914	0.011006753	0.113554643	0.034998644
2019-12-07T15:30:00	0.2298	4.994		0.567772137	0.693522436	0.010996856	0.113452537	0.034967174
2019-12-07T15:35:00	0.2285	4.989		0.563451449	0.687315320	0.010843072	0.111865973	0.034478179
2019-12-07T15:40:00	0.2280	4.980		0.561825040	0.684982806	0.010785469	0.111271697	0.034295018
2019-12-07T15:45:00	0.2273	4.971		0.559522844	0.681684839	0.010704199	0.110433244	0.034036598
2019-12-07T15:50:00	0.2265	4.965		0.556881341	0.677906179	0.010611335	0.109475184	0.033741315
2019-12-07T15:55:00	0.2254	4.961		0.552885330	0.672200811	0.010471632	0.108033900	0.033297097
2019-12-07T16:00:00	0.2268	4.958		0.557676687	0.679043315	0.010639252	0.109763206	0.033830086
2019-12-07T16:05:00	0.2274	4.952		0.559851850	0.682155883	0.010715794	0.110552869	0.034073468
2019-12-07T16:10:00	0.2287	4.944		0.564048895	0.688172697	0.010864271	0.112084679	0.034545587
2019-12-07T16:15:00	0.2294	4.938		0.566556972	0.691775168	0.010953494	0.113005177	0.034829293
2019-12-07T16:20:00	0.2309	4.936		0.571418835	0.698773293	0.011127509	0.114800464	0.035382618
2019-12-07T16:25:00	0.2310	4.937		0.571904101	0.699472854	0.011144955	0.114980445	0.035438090
2019-12-07T16:30:00	0.2302	4.939		0.569361240	0.695809223	0.011053694	0.114038919	0.035147902
2019-12-07T16:35:00	0.2294	4.939		0.566479670	0.691664058	0.010950738	0.112976749	0.034820531
2019-12-07T16:40:00	0.2295	4.936		0.566965622	0.692362623	0.010968066	0.113155520	0.034875630
2019-12-07T16:45:00	0.2302	4.933		0.569135004	0.695483533	0.011045593	0.113955344	0.035122144
2019-12-07T16:50:00	0.2306	4.929		0.570630157	0.697636749	0.011099186	0.114508258	0.035292557
2019-12-07T16:55:00	0.2302	4.926		0.569096382	0.695427937	0.011044210	0.113941079	0.035117747
2019-12-07T17:00:00	0.2300	4.922		0.568572098	0.694673353	0.011025450	0.113747532	0.035058094
2019-12-07T17:05:00	0.2300	4.921		0.568384443	0.694403323	0.011018739	0.113678297	0.035036755
2019-12-07T17:10:00	0.2292	4.921		0.565839020	0.690743408	0.010927915	0.112741287	0.034747960
2019-12-07T17:15:00	0.2298	4.921		0.568009101	0.693863305	0.011005322	0.113539879	0.034994094
2019-12-07T17:20:00	0.2304	4.921		0.569841302	0.696500464	0.011070893	0.114216366	0.035202593
2019-12-07T17:25:00	0.2321	4.921		0.575706713	0.704961458	0.011282142	0.116395775	0.035874308
2019-12-07T17:30:00	0.2331	4.920		0.578877884	0.709547816	0.011397203	0.117582842	0.036240174
2019-12-07T17:35:00	0.2334	4.920		0.580033330	0.711220971	0.011439275	0.118016890	0.036373952
2019-12-07T17:40:00	0.2338	4.918		0.581188395	0.712894684	0.011481412	0.118451613	0.036507937
2019-12-07T17:45:00	0.2341	4.916		0.582343081	0.714568954	0.011523615	0.118887009	0.036642131
2019-12-07T17:50:00	0.2335	4.916		0.580143361	0.711380362	0.011443285	0.118058266	0.036386704
2019-12-07T17:55:00	0.2337	4.915		0.580962922	0.712567882	0.011473181	0.118366689	0.036481763
2019-12-07T18:00:00	0.2332	4.913		0.579433663	0.710352479	0.011417430	0.117791521	0.036304491
2019-12-07T18:05:00	0.2338	4.910		0.581259902	0.712998335	0.011484023	0.118478552	0.036516240
2019-12-07T18:10:00	0.2331	4.900		0.579059504	0.709810739	0.011403811	0.117651014	0.036261185
2019-12-07T18:15:00	0.2337	4.897		0.580885937	0.712456310	0.011470371	0.118337700	0.036472828
2019-12-07T18:20:00	0.2338	4.896		0.581369895	0.713157782	0.011488041	0.118519997	0.036529014
2019-12-07T18:25:00	0.2338	4.898		0.581182924	0.712886753	0.011481212	0.118449551	0.036507302
2019-12-07T18:30:00	0.2337	4.898		0.580995942	0.712615739	0.011474386	0.118379124	0.036485596
2019-12-07T18:35:00	0.2353	4.894		0.586172842	0.720129959	0.011664156	0.120336946	0.037089016
2019-12-07T18:40:00	0.2353	4.890		0.586321115	0.720345505	0.011669615	0.120393263	0.037106373
2019-12-07T18:45:00	0.2352	4.887		0.586134407	0.720074089	0.011662741	0.120322350	0.037084517
2019-12-07T18:50:00	0.2357	4.884		0.587622336	0.722237879	0.011717576	0.120888068	0.037258877
2019-12-07T18:55:00	0.2353	4.884		0.586430950	0.720505184	0.011673659	0.120434989	0.037119233
2019-12-07T19:00:00	0.2362	4.885		0.589257785	0.724618325	0.011777999	0.121511443	0.037451007
2019-12-07T19:05:00	0.2365	4.885		0.590409827	0.726296493	0.011820658	0.121951546	0.037586651
2019-12-07T19:10:00	0.2365	4.886		0.590223335	0.726024757	0.011813747	0.121880247	0.037564676
2019-12-07T19:15:00	0.2369	4.886		0.591709538	0.728191099	0.011868880	0.122449042	0.037739984
2019-12-07T19:20:00	0.2371	4.887		0.592192010	0.728894763	0.011886806	0.122633984	0.037796985
2019-12-07T19:25:00	0.2376	4.886		0.594011643	0.731550364	0.011954539	0.123332778	0.038012360
2019-12-07T19:30:00	0.2376	4.886		0.594159587	0.731766397	0.011960055	0.123389683	0.038029899
2019-12-07T19:35:00	0.2361	4.885		0.588956021	0.724178930	0.011766838	0.121396297	0.037415518
2019-12-07T19:40:00	0.2359	4.886		0.588434695	0.723420015	0.011747569	0.121197505	0.037354248
2019-12-07T19:45:00	0.2354	4.885		0.586573750	0.720712802	0.011678918	0.120489249	0.037135957
2019-12-07T19:50:00	0.2361	4.884		0.589065774	0.724338731	0.011770897	0.121438170	0.037428423
2019-12-07T19:55:00	0.2369	4.883		0.591556036	0.727967264	0.011863179	0.122390231	0.037721858
2019-12-07T20:00:00	0.2372	4.884		0.592707326	0.729646543	0.011905968	0.122831674	0.037857915
2019-12-07T20:05:00	0.2376	4.883		0.593858241	0.731326380	0.011948821	0.123273789	0.037994179
2019-12-07T20:10:00	0.2381	4.882		0.595677016	0.733983257	0.012016704	0.123974118	0.038210027
2019-12-07T20:15:00	0.2384	4.879		0.596826963	0.735664532	0.012059725	0.124417963	0.038346825
2019-12-07T20:20:00	0.2371	4.874		0.592296208	0.729046757	0.011890679	0.122673944	0.037809301
2019-12-07T20:25:00	0.2362	4.868		0.589433411	0.724874086	0.011784497	0.121578483	0.037471669
2019-12-07T20:30:00	0.2354	4.859		0.586568287	0.720704859	0.011678717	0.120487173	0.037135317
2019-12-07T20:35:00	0.2347	4.852		0.584371210	0.717512380	0.011597933	0.119653733	0.036878443
2019-12-07T20:40:00	0.2341	4.849		0.582172760	0.714321923	0.011517385	0.118822735	0.036622321
2019-12-07T20:45:00	0.2341	4.850		0.582321202	0.714537220	0.011522814	0.118878752	0.036639586
2019-12-07T20:50:00	0.2350	4.849		0.585151340	0.718645494	0.011626584	0.119949329	0.036969548
2019-12-07T20:55:00	0.2338	4.849		0.581276506	0.713022403	0.011484630	0.118484808	0.036518168
2019-12-07T21:00:00	0.2335	4.849		0.580418520	0.711778997	0.011453318	0.118161770	0.036418605
2019-12-07T21:05:00	0.2339	4.848		0.581573459	0.713452896	0.011495477	0.118596718	0.036552660
2019-12-07T21:10:00	0.2338	4.846		0.581386498	0.713181851	0.011488647	0.118526253	0.036530942
2019-12-07T21:15:00	0.2328	4.845		0.577843306	0.708050623	0.011359599	0.117194891	0.036120604
2019-12-07T21:20:00	0.2333	4.844		0.579670372	0.710695267	0.011426050	0.117880455	0.036331901
2019-12-07T21:25:00	0.2330	4.844		0.578476288	0.708966539	0.011382599	0.117432172	0.036193736
2019-12-07T21:30:00	0.2335	4.843		0.580303025	0.711611666	0.011449106	0.118118320	0.036405213
2019-12-07T21:35:00	0.2331	4.842		0.579109156	0.709882623	0.011405618	0.117669654	0.036266930
2019-12-07T21:40:00	0.2333	4.840		0.579593359	0.710583736	0.011423245	0.117851517	0.036322982
2019-12-07T21:45:00	0.2338	4.837		0.581419515	0.713229714	0.011489853	0.118538695	0.036534777
2019-12-07T21:50:00	0.2342	4.833		0.582574124	0.714904095	0.011532069	0.118974227	0.036669012
2019-12-07T21:55:00	0.2346	4.831		0.584063559	0.717065666	0.011586643	0.119537265	0.036842546
2019-12-07T22:00:00	0.2346	4.826		0.583876731	0.716794427	0.011579791	0.119466565	0.036820756
2019-12-07T22:05:00	0.2354	4.822		0.586684639	0.720874038	0.011683003	0.120531393	0.037148946
2019-12-07T22:10:00	0.2341	4.817		0.582455167	0.714731535	0.011527716	0.118929317	0.036655171
2019-12-07T22:15:00	0.2351	4.810		0.585599268	0.719296324	0.011643052	0.120119220	0.037021910
2019-12-07T22:20:00	0.2370	4.805		0.592086407	0.728740730	0.011882881	0.122593492	0.037784505
2019-12-07T22:25:00	0.2376	4.802		0.593885159	0.731365682	0.011949825	0.123284139	0.037997369
2019-12-07T22:30:00	0.2375	4.799		0.593677914	0.731063107	0.011942102	0.123204463	0.037972812
2019-12-07T22:35:00	0.2378	4.798		0.594807582	0.732712838	0.011984229	0.123639083	0.038106766
2019-12-07T22:40:00	0.2371	4.795		0.592260301	0.728994379	0.011889344	0.122660173	0.037805057
2019-12-07T22:45:00	0.2372	4.795		0.592721755	0.729667597	0.011906505	0.122837212	0.037859622
2019-12-07T22:50:00	0.2373	4.794		0.592848811	0.729852991	0.011911232	0.122885981	0.037874653
2019-12-07T22:55:00	0.2379	4.794		0.594981342	0.732966686	0.011990716	0.123706004	0.038127392
2019-12-07T23:00:00	0.2390	4.794		0.598781941	0.738525335	0.012133046	0.125174396	0.038579965
2019-12-07T23:05:00	0.2395	4.794		0.600243649	0.740666401	0.012188016	0.125741510	0.038754755
2019-12-07T23:10:00	0.2387	4.794		0.597700287	0.736942109	0.012092451	0.124755584	0.038450883
2019-12-07T23:15:00	0.2387	4.794		0.597827164	0.737127769	0.012097209	0.124804673	0.038466012
2019-12-07T23:20:00	0.2399	4.793		0.601624707	0.742690976	0.012240070	0.126278545	0.038920274
2019-12-07T23:25:00	0.2404	4.792		0.603418612	0.745323153	0.012307855	0.126977876	0.039135815
2019-12-07T23:30:00	0.2404	4.790		0.603211925	0.745019746	0.012300036	0.126897200	0.039110950
2019-12-07T23:35:00	0.2406	4.789		0.604005267	0.746184530	0.012330065	0.127207008	0.039206435
2019-12-07T23:40:00	0.2413	4.788		0.606464168	0.749798036	0.012423378	0.128169702	0.039503147
2019-12-07T23:45:00	0.2410	4.789		0.605258252	0.748025236	0.012377569	0.127697102	0.039357487
2019-12-07T23:50:00	0.2426	4.788		0.610711582	0.756051819	0.012585418	0.129841437	0.040018392
2019-12-07T23:55:00	0.2439	4.786		0.615159927	0.762617693	0.012756285	0.131604240	0.040561705
2019-12-08T00:00:00	0.2450	4.785		0.618607058	0.767717195	0.012889512	0.132978724	0.040985334
2019-12-08T00:05:00	0.2448	4.784		0.618069285	0.766920984	0.012868681	0.132763810	0.040919096
2019-12-08T00:10:00	0.2450	4.784		0.618527391	0.767599228	0.012886425	0.132946875	0.040975518
2019-12-08T00:15:00	0.2457	4.786		0.620976268	0.771227883	0.012981495	0.133927688	0.041277814
2019-12-08T00:20:00	0.2462	4.785		0.622760433	0.773874777	0.013050987	0.134644622	0.041498780
2019-12-08T00:25:00	0.2447	4.786		0.617577913	0.766193686	0.012849662	0.132567597	0.040858621
2019-12-08T00:30:00	0.2442	4.785		0.616043609	0.763924011	0.012790370	0.131955889	0.040670087
2019-12-08T00:35:00	0.2445	4.786		0.617166172	0.765584409	0.012833737	0.132403298	0.040807982
2019-12-08T00:40:00	0.2448	4.785		0.617956404	0.766753886	0.012864311	0.132718721	0.040905199
2019-12-08T00:45:00	0.2458	4.786		0.621400830	0.771857498	0.012998014	0.134098111	0.041330340
2019-12-08T00:50:00	0.2450	4.785		0.618540663	0.767618880	0.012886940	0.132952180	0.040977153
2019-12-08T00:55:00	0.2450	4.785		0.618666797	0.767805658	0.012891828	0.133002609	0.040992696
2019-12-08T01:00:00	0.2453	4.785		0.619788534	0.769467311	0.012935340	0.133451516	0.041131053
2019-12-08T01:05:00	0.2458	4.784		0.621241620	0.771621376	0.012991818	0.134034189	0.041310639
2019-12-08T01:10:00	0.2463	4.786		0.623025652	0.774268472	0.013061333	0.134751365	0.041531679
2019-12-08T01:15:00	0.2468	4.786		0.624477421	0.776424548	0.013118043	0.135336434	0.041712003
2019-12-08T01:20:00	0.2466	4.786		0.623940533	0.775626988	0.013097056	0.135119913	0.041645270
2019-12-08T01:25:00	0.2464	4.787		0.623403565	0.774829553	0.013076083	0.134903539	0.041578581
2019-12-08T01:30:00	0.2447	4.788		0.617557982	0.766164189	0.012848891	0.132559641	0.040856169
2019-12-08T01:35:00	0.2448	4.790		0.618016154	0.766842333	0.012866624	0.132742587	0.040912554
2019-12-08T01:40:00	0.2455	4.791		0.620465382	0.770470454	0.012961631	0.133722762	0.041214654
2019-12-08T01:45:00	0.2467	4.792		0.624238810	0.776070055	0.013108714	0.135240183	0.041682338
2019-12-08T01:50:00	0.2472	4.794		0.626021345	0.778719438	0.013178493	0.135960083	0.041904218
2019-12-08T01:55:00	0.2463	4.796		0.622833358	0.773983022	0.013053831	0.134673968	0.041507825
2019-12-08T02:00:00	0.2463	4.795		0.622959340	0.774170032	0.013058746	0.134724672	0.041523452
2019-12-08T02:05:00	0.2476	4.797		0.627392428	0.780759106	0.013232296	0.136515161	0.042075298
2019-12-08T02:10:00	0.2477	4.799		0.627518249	0.780946362	0.013237239	0.136566158	0.042091016
2019-12-08T02:15:00	0.2478	4.802		0.627975144	0.781626455	0.013255197	0.136751426	0.042148118
2019-12-08T02:20:00	0.2478	4.804		0.628100945	0.781813742	0.013260144	0.136802461	0.042163847
2019-12-08T02:25:00	0.2481	4.807		0.628888758	0.782986910	0.013291144	0.137122283	0.042262419
2019-12-08T02:30:00	0.2473	4.809		0.626365816	0.779231735	0.013192000	0.136099431	0.041947166
2019-12-08T02:35:00	0.2461	4.810		0.622183475	0.773018539	0.013028493	0.134412565	0.041427258
2019-12-08T02:40:00	0.2468	4.809		0.624629843	0.776651018	0.013124005	0.135397937	0.041730959
2019-12-08T02:45:00	0.2484	4.810		0.630053608	0.784722501	0.013337049	0.137595877	0.042408386
2019-12-08T02:50:00	0.2486	4.809		0.630510179	0.785403091	0.013355064	0.137781736	0.042465669
2019-12-08T02:55:00	0.2489	4.808		0.631628202	0.787070424	0.013399232	0.138237407	0.042606112
2019-12-08T03:00:00	0.2480	4.808		0.628445215	0.782326345	0.013273686	0.136942174	0.042206908
2019-12-08T03:05:00	0.2471	4.807		0.625590691	0.778079111	0.013161617	0.135785976	0.041850557
2019-12-08T03:10:00	0.2456	4.808		0.620744036	0.770883553	0.012972464	0.133834515	0.041249097
2019-12-08T03:15:00	0.2454	4.808		0.619874786	0.769595123	0.012938689	0.133486066	0.041141702
2019-12-08T03:20:00	0.2449	4.809		0.618341471	0.767323945	0.012879222	0.132872563	0.040952614
2019-12-08T03:25:00	0.2455	4.809		0.620458731	0.770460595	0.012961373	0.133720095	0.041213832
2019-12-08T03:30:00	0.2458	4.809		0.621248232	0.771631182	0.012992075	0.134036844	0.041311457
2019-12-08T03:35:00	0.2468	4.808		0.624689482	0.776739635	0.013126338	0.135422005	0.041738377
2019-12-08T03:40:00	0.2450	4.809		0.618514082	0.767579521	0.012885910	0.132941554	0.040973878
2019-12-08T03:45:00	0.2447	4.810		0.617644288	0.766291918	0.012852231	0.132594093	0.040866787
2019-12-08T03:50:00	0.2434	4.812		0.613451694	0.760094328	0.012690529	0.130925845	0.040352617
2019-12-08T03:55:00	0.2433	4.813		0.612913142	0.759299299	0.012669834	0.130712343	0.040286814
2019-12-08T04:00:00	0.2426	4.815		0.610711544	0.756051764	0.012585416	0.129841422	0.040018387
2019-12-08T04:05:00	0.2437	4.817		0.614345248	0.761413960	0.012724903	0.131280478	0.040461918
2019-12-08T04:10:00	0.2442	4.820		0.615982735	0.763834002	0.012788020	0.131931649	0.040662616
2019-12-08T04:15:00	0.2438	4.822		0.614629989	0.761834617	0.012735867	0.131393590	0.040496781
2019-12-08T04:20:00	0.2441	4.824		0.615602981	0.763272563	0.012773368	0.131780486	0.040616026
2019-12-08T04:25:00	0.2441	4.824		0.615579200	0.763237409	0.012772451	0.131771023	0.040613109
2019-12-08T04:30:00	0.2449	4.826		0.618212168	0.767132508	0.012874214	0.132820894	0.040936689
2019-12-08T04:35:00	0.2449	4.827		0.618188404	0.767097328	0.012873294	0.132811399	0.040933763
2019-12-08T04:40:00	0.2443	4.828		0.616504384	0.764605420	0.012808161	0.132139441	0.040726659
2019-12-08T04:45:00	0.2443	4.829		0.616480609	0.764570257	0.012807243	0.132129967	0.040723739
2019-12-08T04:50:00	0.2452	4.829		0.619444780	0.768957989	0.012921998	0.133313866	0.041088628
2019-12-08T04:55:00	0.2468	4.832		0.624726788	0.776795070	0.013127797	0.135437062	0.041743018
2019-12-08T05:00:00	0.2480	4.834		0.628677247	0.782671888	0.013282817	0.137036379	0.042235943
2019-12-08T05:05:00	0.2477	4.836		0.627660416	0.781157960	0.013242826	0.136623792	0.042108780
2019-12-08T05:10:00	0.2489	4.839		0.631607637	0.787039745	0.013398419	0.138229019	0.042603526
2019-12-08T05:15:00	0.2484	4.840		0.629929937	0.784538180	0.013332171	0.137545555	0.042392876
2019-12-08T05:20:00	0.2483	4.841		0.629575353	0.784009776	0.013318192	0.137401330	0.042348424
2019-12-08T05:25:00	0.2471	4.841		0.625578459	0.778060925	0.013161138	0.135781033	0.041849033
2019-12-08T05:30:00	0.2468	4.840		0.624560746	0.776548350	0.013121302	0.135370054	0.041722365
2019-12-08T05:35:00	0.2455	4.837		0.620226465	0.770116315	0.012952348	0.133626984	0.041185134
2019-12-08T05:40:00	0.2469	4.834		0.624844672	0.776970247	0.013132409	0.135484646	0.041757684
2019-12-08T05:45:00	0.2478	4.828		0.627801903	0.781368563	0.013248387	0.136681163	0.042126462
2019-12-08T05:50:00	0.2490	4.823		0.632079666	0.787744001	0.013417089	0.138421631	0.042662891
2019-12-08T05:55:00	0.2479	4.819		0.628416609	0.782283748	0.013272561	0.136930562	0.042203329
2019-12-08T06:00:00	0.2480	4.811		0.628723922	0.782741401	0.013284655	0.137055333	0.042241785
2019-12-08T06:05:00	0.2484	4.800		0.630023965	0.784678319	0.013335880	0.137583814	0.042404668
2019-12-08T06:10:00	0.2488	4.795		0.631323536	0.786615963	0.013387189	0.138113158	0.042567817
2019-12-08T06:15:00	0.2488	4.793		0.631299860	0.786580650	0.013386253	0.138103504	0.042564841
2019-12-08T06:20:00	0.2478	4.788		0.627967082	0.781614453	0.013254880	0.136748156	0.042147110
2019-12-08T06:25:00	0.2471	4.778		0.625625174	0.778130377	0.013162968	0.135799913	0.041854852
2019-12-08T06:30:00	0.2471	4.764		0.625601460	0.778095121	0.013162039	0.135790329	0.041851898
2019-12-08T06:35:00	0.2466	4.751		0.623920938	0.775597883	0.013096290	0.135112014	0.041642835
2019-12-08T06:40:00	0.2476	4.734		0.627210082	0.780487751	0.013225134	0.136441271	0.042052525
2019-12-08T06:45:00	0.2474	4.716		0.626524046	0.779467089	0.013198207	0.136163464	0.041966902
2019-12-08T06:50:00	0.2485	4.702		0.630141674	0.784853763	0.013340523	0.137631716	0.042419432
2019-12-08T06:55:00	0.2489	4.688		0.631441202	0.786791473	0.013391839	0.138161138	0.042582604
2019-12-08T07:00:00	0.2487	4.673		0.631086768	0.786262838	0.013377833	0.138016638	0.042538068
2019-12-08T07:05:00	0.2490	4.657		0.632055283	0.787707618	0.013416124	0.138411678	0.042659823
2019-12-08T07:10:00	0.2497	4.640		0.634345675	0.791127465	0.013506902	0.139348221	0.042948475
2019-12-08T07:15:00	0.2507	4.623		0.637625256	0.796032037	0.013637440	0.140694957	0.043363552
2019-12-08T07:20:00	0.2514	4.609		0.639912094	0.799457374	0.013728850	0.141638017	0.043654212
2019-12-08T07:25:00	0.2507	4.595		0.637577987	0.795961281	0.013635554	0.140675499	0.043357555
2019-12-08T07:30:00	0.2511	4.584		0.638874821	0.797903147	0.013687349	0.141209854	0.043522249
2019-12-08T07:35:00	0.2518	4.577		0.641160864	0.801329718	0.013778900	0.142154375	0.043813359
2019-12-08T07:40:00	0.2519	4.570		0.641467086	0.801789054	0.013791188	0.142281146	0.043852431
2019-12-08T07:45:00	0.2525	4.563		0.643421856	0.804723108	0.013869761	0.143091771	0.044102273
2019-12-08T07:50:00	0.2527	4.558		0.644057482	0.805677864	0.013895361	0.143355875	0.044183673
2019-12-08T07:55:00	0.2529	4.551		0.644692995	0.806632795	0.013920980	0.143620187	0.044265136
2019-12-08T08:00:00	0.2527	4.544		0.644010297	0.805606978	0.013893460	0.143336261	0.044177628
2019-12-08T08:05:00	0.2526	4.539		0.643657102	0.805076425	0.013879233	0.143189487	0.044132390
2019-12-08T08:10:00	0.2514	4.532		0.640005860	0.799597917	0.013732605	0.141676755	0.043666152
2019-12-08T08:15:00	0.2516	4.524		0.640642090	0.800551734	0.013758097	0.141939747	0.043747209
2019-12-08T08:20:00	0.2522	4.517		0.642597309	0.803485090	0.013836590	0.142749546	0.043996796
2019-12-08T08:25:00	0.2522	4.511		0.642573707	0.803449662	0.013835641	0.142739757	0.043993779
2019-12-08T08:30:00	0.2528	4.506		0.644527875	0.806384651	0.013914321	0.143551489	0.044243963
2019-12-08T08:35:00	0.2538	4.504		0.647798178	0.811303627	0.014046513	0.144915290	0.044664300
2019-12-08T08:40:00	0.2547	4.504		0.650736558	0.815731116	0.014165845	0.146146408	0.045043742
2019-12-08T08:45:00	0.2551	4.511		0.652028659	0.817680356	0.014218485	0.146689490	0.045211126
2019-12-08T08:50:00	0.2562	4.521		0.655620706	0.823106740	0.014365362	0.148204791	0.045678156
2019-12-08T08:55:00	0.2551	4.532		0.651981578	0.817609306	0.014216565	0.146669684	0.045205021
2019-12-08T09:00:00	0.2561	4.547		0.655245128	0.822538851	0.014349968	0.148045973	0.045629207
2019-12-08T09:05:00	0.2565	4.567		0.656535616	0.824490624	0.014402898	0.148592045	0.045797511
2019-12-08T09:10:00	0.2563	4.589		0.655855157	0.823461300	0.014374976	0.148303977	0.045708726
2019-12-08T09:15:00	0.2554	4.610		0.652873876	0.818956207	0.014252975	0.147045313	0.045320793
2019-12-08T09:20:00	0.2550	4.630		0.651863875	0.817431687	0.014211766	0.146620172	0.045189761
2019-12-08T09:25:00	0.2557	4.647		0.654141686	0.820871101	0.014304790	0.147579883	0.045485553
2019-12-08T09:30:00	0.2553	4.658		0.652803272	0.818849607	0.014250092	0.147015572	0.045311627
2019-12-08T09:35:00	0.2549	4.665		0.651464362	0.816828893	0.014195483	0.146452182	0.045137985
2019-12-08T09:40:00	0.2539	4.673		0.648150258	0.811833746	0.014060784	0.145062518	0.044709677
2019-12-08T09:45:00	0.2539	4.679		0.648126693	0.811798261	0.014059829	0.145052661	0.044706639
2019-12-08T09:50:00	0.2546	4.690		0.650406865	0.815233975	0.014152429	0.146008003	0.045001084
2019-12-08T09:55:00	0.2539	4.707		0.648079561	0.811727291	0.014057918	0.145032949	0.044700563
2019-12-08T10:00:00	0.2532	4.724		0.645750753	0.808222959	0.013963676	0.144060674	0.044400899
2019-12-08T10:05:00	0.2519	4.740		0.641360470	0.801629120	0.013786909	0.142237002	0.043838825
2019-12-08T10:10:00	0.2499	4.758		0.634982872	0.792079671	0.013532214	0.139609355	0.043028959
2019-12-08T10:15:00	0.2481	4.774		0.628924896	0.783040737	0.013292567	0.137136963	0.042266944
2019-12-08T10:20:00	0.2476	4.789		0.627164026	0.780419217	0.013223326	0.136422612	0.042046774
2019-12-08T10:25:00	0.2481	4.804		0.629044741	0.783219252	0.013297286	0.137185652	0.042281950
2019-12-08T10:30:00	0.2491	4.818		0.632247381	0.787994275	0.013423726	0.138490102	0.042683994
2019-12-08T10:35:00	0.2486	4.830		0.630488146	0.785370244	0.013354195	0.137772764	0.042462904
2019-12-08T10:40:00	0.2471	4.845		0.625747868	0.778312795	0.013167775	0.135849507	0.041870138
2019-12-08T10:45:00	0.2459	4.868		0.621664648	0.772248810	0.013008284	0.134204066	0.041362997
2019-12-08T10:50:00	0.2451	4.892		0.618904616	0.768157856	0.012901046	0.133097716	0.041022009
2019-12-08T10:55:00	0.2441	4.918		0.615810265	0.763579002	0.012781365	0.131862986	0.040641453
2019-12-08T11:00:00	0.2442	4.940		0.616036498	0.763913497	0.012790096	0.131953058	0.040669214
2019-12-08T11:05:00	0.2442	4.955		0.615930551	0.763756844	0.012786006	0.131910872	0.040656212
2019-12-08T11:10:00	0.2466	4.971		0.624119743	0.775893181	0.013104060	0.135192166	0.041667539
2019-12-08T11:15:00	0.2465	4.983		0.623682590	0.775243894	0.013086979	0.135015951	0.041613227
2019-12-08T11:20:00	0.2471	4.998		0.625565138	0.778041122	0.013160616	0.135775650	0.041847374
2019-12-08T11:25:00	0.2476	5.014		0.627446695	0.780839868	0.013234428	0.136537155	0.042082077
2019-12-08T11:30:00	0.2455	5.032		0.620380759	0.770345015	0.012958343	0.133688834	0.041204197
2019-12-08T11:35:00	0.2456	5.049		0.620606703	0.770679952	0.012967124	0.133779432	0.041232120
2019-12-08T11:40:00	0.2461	5.066		0.622159288	0.772982650	0.013027551	0.134402841	0.041424261
2019-12-08T11:45:00	0.2448	5.085		0.618071955	0.766924936	0.012868784	0.132764877	0.040919424
2019-12-08T11:50:00	0.2441	5.101		0.615641361	0.763329299	0.012774849	0.131795760	0.040620733
2019-12-08T11:55:00	0.2424	5.115		0.609883181	0.754830915	0.012553729	0.129514511	0.039917630
2019-12-08T12:00:00	0.2406	5.127		0.604115648	0.746346633	0.012334246	0.127250143	0.039219730
2019-12-08T12:05:00	0.2388	5.134		0.598004860	0.737387815	0.012103874	0.124873441	0.038487207
2019-12-08T12:10:00	0.2376	5.140		0.593889589	0.731372149	0.011949990	0.123285842	0.037997894
2019-12-08T12:15:00	0.2381	5.143		0.595787998	0.734145469	0.012020852	0.124016918	0.038223219
2019-12-08T12:20:00	0.2382	5.145		0.596015513	0.734478040	0.012029359	0.124104683	0.038250269
2019-12-08T12:25:00	0.2379	5.147		0.594906631	0.732857537	0.011987927	0.123677228	0.038118523
2019-12-08T12:30:00	0.2378	5.152		0.594800050	0.732701835	0.011983948	0.123636183	0.038105872
2019-12-08T12:35:00	0.2351	5.160		0.585659073	0.719383233	0.011645251	0.120141912	0.037028904
2019-12-08T12:40:00	0.2340	5.172		0.581864765	0.713875272	0.011506123	0.118706552	0.036586512
2019-12-08T12:45:00	0.2325	5.183		0.577058926	0.706916099	0.011331132	0.116901197	0.036030084
2019-12-08T12:50:00	0.2322	5.189		0.575944054	0.705304428	0.011290732	0.116484406	0.035901625
2019-12-08T12:55:00	0.2322	5.192		0.575836897	0.705149574	0.011286853	0.116444385	0.035889290
2019-12-08T13:00:00	0.2316	5.195		0.574049408	0.702567870	0.011222246	0.115777841	0.035683855
2019-12-08T13:05:00	0.2321	5.197		0.575622573	0.704839882	0.011279097	0.116364362	0.035864626
2019-12-08T13:10:00	0.2329	5.200		0.578202422	0.708570218	0.011372645	0.117329480	0.036162085
2019-12-08T13:15:00	0.2306	5.205		0.570700851	0.697738603	0.011101723	0.114534435	0.035300625
2019-12-08T13:20:00	0.2293	5.208		0.566216578	0.691285939	0.010941363	0.112880023	0.034790719
2019-12-08T13:25:00	0.2288	5.210		0.564424166	0.688711386	0.010877597	0.112222165	0.034587961
2019-12-08T13:30:00	0.2287	5.212		0.563979556	0.688073175	0.010861809	0.112059285	0.034537760
2019-12-08T13:35:00	0.2312	5.213		0.572626332	0.700514385	0.011170945	0.115248579	0.035520731
2019-12-08T13:40:00	0.2342	5.215		0.582593380	0.714932029	0.011532773	0.118981497	0.036671253
2019-12-08T13:45:00	0.2372	5.218		0.592532242	0.729391093	0.011899455	0.122764489	0.037837208
2019-12-08T13:50:00	0.2387	5.224		0.597771838	0.737046808	0.012095134	0.124783266	0.038459415
2019-12-08T13:55:00	0.2408	5.233		0.604670257	0.747161274	0.012355265	0.127466992	0.039286565
2019-12-08T14:00:00	0.2413	5.243		0.606229816	0.749453423	0.012414469	0.128077789	0.039474818
2019-12-08T14:05:00	0.2419	5.251		0.608454515	0.752726688	0.012499176	0.128951690	0.039744163
2019-12-08T14:10:00	0.2412	5.259		0.606017331	0.749141006	0.012406394	0.127994481	0.039449142
2019-12-08T14:15:00	0.2433	5.264		0.612899736	0.759279513	0.012669319	0.130707031	0.040285176
2019-12-08T14:20:00	0.2412	5.270		0.606137949	0.749318347	0.012410978	0.128041768	0.039463716
2019-12-08T14:25:00	0.2419	5.275		0.608362707	0.752591525	0.012495674	0.128915565	0.039733029
2019-12-08T14:30:00	0.2403	5.279		0.602926115	0.744600249	0.012289227	0.126785684	0.039076579
2019-12-08T14:35:00	0.2397	5.280		0.601152324	0.741998303	0.012222252	0.126094723	0.038863618
2019-12-08T14:40:00	0.2392	5.282		0.599377644	0.739397686	0.012155433	0.125405358	0.038651149
2019-12-08T14:45:00	0.2407	5.285		0.604273852	0.746578987	0.012340240	0.127311981	0.039238789
2019-12-08T14:50:00	0.2405	5.290		0.603834253	0.745933403	0.012323589	0.127140192	0.039185842
2019-12-08T14:55:00	0.2400	5.296		0.602060917	0.743330775	0.012256535	0.126448413	0.038972629
2019-12-08T15:00:00	0.2392	5.304		0.599285600	0.739262877	0.012151972	0.125369657	0.038640146
2019-12-08T15:05:00	0.2405	5.307		0.603848636	0.745954523	0.012324133	0.127145811	0.039187574
2019-12-08T15:10:00	0.2408	5.310		0.604742158	0.747266905	0.012357991	0.127495119	0.039295234
2019-12-08T15:15:00	0.2412	5.310		0.605968585	0.749069339	0.012404542	0.127975374	0.039443253
2019-12-08T15:20:00	0.2431	5.311		0.612518598	0.758717016	0.012654684	0.130556046	0.040238641
2019-12-08T15:25:00	0.2439	5.314		0.615071641	0.762487218	0.012752882	0.131569134	0.040550885
2019-12-08T15:30:00	0.2438	5.316		0.614633377	0.761839622	0.012735997	0.131394936	0.040497195
2019-12-08T15:35:00	0.2429	5.318		0.611535307	0.757266403	0.012616969	0.130166939	0.040118715
2019-12-08T15:40:00	0.2437	5.323		0.614421395	0.761526447	0.012727834	0.131310722	0.040471240
2019-12-08T15:45:00	0.2433	5.329		0.612985817	0.759406571	0.012672626	0.130741144	0.040295690
2019-12-08T15:50:00	0.2450	5.336		0.618527241	0.767599005	0.012886420	0.132946815	0.040975499
2019-12-08T15:55:00	0.2446	5.345		0.617425378	0.765967953	0.012843761	0.132506718	0.040839857
2019-12-08T16:00:00	0.2444	5.352		0.616655304	0.764828645	0.012813992	0.132199589	0.040745197
2019-12-08T16:05:00	0.2443	5.359		0.616414250	0.764472113	0.012804680	0.132103525	0.040715589
2019-12-08T16:10:00	0.2441	5.363		0.615841004	0.763624449	0.012782551	0.131875222	0.040645224
2019-12-08T16:15:00	0.2440	5.366		0.615267667	0.762776925	0.012760438	0.131647087	0.040574911
2019-12-08T16:20:00	0.2424	5.370		0.610039018	0.755060545	0.012559687	0.129575979	0.039936575
2019-12-08T16:25:00	0.2429	5.375		0.611793491	0.757647215	0.012626866	0.130269050	0.040150186
2019-12-08T16:30:00	0.2437	5.382		0.614211847	0.761216906	0.012719768	0.131227502	0.040445591
2019-12-08T16:35:00	0.2431	5.387		0.612308411	0.758406866	0.012646617	0.130472821	0.040212990
2019-12-08T16:40:00	0.2429	5.394		0.611734503	0.757560205	0.012624604	0.130245716	0.040142995
2019-12-08T16:45:00	0.2436	5.400		0.614152898	0.761129835	0.012717499	0.131204097	0.040438377
2019-12-08T16:50:00	0.2417	5.406		0.607591006	0.751455688	0.012466262	0.128612125	0.039639506
2019-12-08T16:55:00	0.2413	5.409		0.606350238	0.749630498	0.012419047	0.128125014	0.039489374
2019-12-08T17:00:00	0.2407	5.414		0.604442581	0.746826819	0.012346634	0.127377949	0.039259121
2019-12-08T17:05:00	0.2428	5.419		0.611192714	0.756761180	0.012603842	0.130031509	0.040076974
2019-12-08T17:10:00	0.2422	5.425		0.609287660	0.753953586	0.012530974	0.129279752	0.039845275
2019-12-08T17:15:00	0.2413	5.431		0.606382493	0.749677929	0.012420273	0.128137665	0.039493273
2019-12-08T17:20:00	0.2391	5.440		0.599138740	0.739047798	0.012146452	0.125312706	0.038622593
2019-12-08T17:25:00	0.2397	5.451		0.600898615	0.741626357	0.012212688	0.125996052	0.038833207
2019-12-08T17:30:00	0.2398	5.460		0.601323657	0.742249513	0.012228713	0.126161379	0.038884162
2019-12-08T17:35:00	0.2397	5.465		0.601081559	0.741894554	0.012219584	0.126067197	0.038855135
2019-12-08T17:40:00	0.2379	5.470		0.595163722	0.733233155	0.011997526	0.123776265	0.038149047
2019-12-08T17:45:00	0.2384	5.478		0.596591594	0.735320322	0.012050913	0.124327051	0.038318805
2019-12-08T17:50:00	0.2386	5.481		0.597351097	0.736431206	0.012079360	0.124620533	0.038409259
2019-12-08T17:55:00	0.2388	5.488		0.598110437	0.737542333	0.012107836	0.124914308	0.038499803
2019-12-08T18:00:00	0.2383	5.498		0.596198331	0.734745307	0.012036197	0.124175229	0.038272012
2019-12-08T18:05:00	0.2373	5.510		0.592948067	0.729997829	0.011914925	0.122924085	0.037886397
2019-12-08T18:10:00	0.2378	5.522		0.594711028	0.732571792	0.011980626	0.123601905	0.038095308
2019-12-08T18:15:00	0.2376	5.531		0.594134261	0.731729414	0.011959111	0.123379941	0.038026896
2019-12-08T18:20:00	0.2369	5.542		0.591551111	0.727960083	0.011862996	0.122388345	0.037721276
2019-12-08T18:25:00	0.2358	5.554		0.587961758	0.722731736	0.011730103	0.121017309	0.037298710
2019-12-08T18:30:00	0.2357	5.564		0.587718742	0.722378140	0.011721133	0.120924769	0.037270188
2019-12-08T18:35:00	0.2361	5.575		0.589149631	0.724460834	0.011773998	0.121470167	0.037438285
2019-12-08T18:40:00	0.2349	5.584		0.584887672	0.718262469	0.011616897	0.119849382	0.036938743
2019-12-08T18:45:00	0.2351	5.598		0.585649700	0.719369612	0.011644907	0.120138356	0.037027808
2019-12-08T18:50:00	0.2349	5.613		0.585071448	0.718529431	0.011623649	0.119919040	0.036960213
2019-12-08T18:55:00	0.2331	5.625		0.578790968	0.709422001	0.011394041	0.117550224	0.036230121
2019-12-08T19:00:00	0.2338	5.633		0.581232014	0.712957910	0.011483005	0.118468045	0.036513002
2019-12-08T19:05:00	0.2328	5.641		0.577967896	0.708230877	0.011364124	0.117241576	0.036134992
2019-12-08T19:10:00	0.2334	5.648		0.580073960	0.711279827	0.011440756	0.118032168	0.036378660
2019-12-08T19:15:00	0.2339	5.654		0.581507961	0.713357937	0.011493084	0.118572029	0.036545051
2019-12-08T19:20:00	0.2335	5.660		0.580257988	0.711546419	0.011447464	0.118101379	0.036399992
2019-12-08T19:25:00	0.2343	5.665		0.583033318	0.715570312	0.011548880	0.119147667	0.036722468
2019-12-08T19:30:00	0.2342	5.671		0.582789961	0.715217218	0.011539969	0.119055733	0.036694133
2019-12-08T19:35:00	0.2352	5.676		0.585898323	0.719730938	0.011654053	0.120232715	0.037056890
2019-12-08T19:40:00	0.2359	5.681		0.588334440	0.723274095	0.011743865	0.121159295	0.037342471
2019-12-08T19:45:00	0.2352	5.687		0.586082046	0.719997978	0.011660814	0.120302467	0.037078389
2019-12-08T19:50:00	0.2358	5.693		0.587848444	0.722566854	0.011725920	0.120974155	0.037285409
2019-12-08T19:55:00	0.2364	5.700		0.589948601	0.725624497	0.011803569	0.121775250	0.037532315
2019-12-08T20:00:00	0.2362	5.707		0.589371054	0.724783274	0.011782190	0.121554678	0.037464332
2019-12-08T20:05:00	0.2353	5.712		0.586449464	0.720532101	0.011674341	0.120442023	0.037121401
2019-12-08T20:10:00	0.2340	5.717		0.581848848	0.713852191	0.011505541	0.118700549	0.036584662
2019-12-08T20:15:00	0.2337	5.721		0.580934499	0.712526689	0.011472143	0.118355986	0.036478464
2019-12-08T20:20:00	0.2322	5.724		0.575990706	0.705371847	0.011292422	0.116501831	0.035906996
2019-12-08T20:25:00	0.2330	5.726		0.578769410	0.709390795	0.011393257	0.117542135	0.036227627
2019-12-08T20:30:00	0.2328	5.726		0.577854259	0.708066470	0.011359997	0.117198995	0.036121868
2019-12-08T20:35:00	0.2318	5.727		0.574586995	0.703344039	0.011241657	0.115978099	0.035745576
2019-12-08T20:40:00	0.2327	5.730		0.577702623	0.707847103	0.011354491	0.117142188	0.036104360
2019-12-08T20:45:00	0.2326	5.735		0.577123062	0.707008845	0.011333458	0.116925197	0.036037481
2019-12-08T20:50:00	0.2322	5.738		0.575871526	0.705199615	0.011288107	0.116457317	0.035893276
2019-12-08T20:55:00	0.2330	5.744		0.578650324	0.709218425	0.011388926	0.117497454	0.036213856
2019-12-08T21:00:00	0.2321	5.752		0.575719804	0.704980374	0.011282615	0.116400662	0.035875815
2019-12-08T21:05:00	0.2327	5.760		0.577491418	0.707541590	0.011346824	0.117063088	0.036079981
2019-12-08T21:10:00	0.2324	5.766		0.576575934	0.706217752	0.011313621	0.116720539	0.035974404
2019-12-08T21:15:00	0.2318	5.773		0.574652090	0.703438038	0.011244008	0.116002359	0.035753054
2019-12-08T21:20:00	0.2319	5.779		0.575080311	0.704056499	0.011259484	0.116162020	0.035802263
2019-12-08T21:25:00	0.2313	5.786		0.572819397	0.700792878	0.011177898	0.115320310	0.035542840
2019-12-08T21:30:00	0.2329	5.794		0.578287565	0.708693425	0.011375739	0.117361401	0.036171924
2019-12-08T21:35:00	0.2312	5.801		0.572667544	0.700573829	0.011172429	0.115263889	0.035525450
2019-12-08T21:40:00	0.2309	5.805		0.571414415	0.698766922	0.011127351	0.114798826	0.035382113
2019-12-08T21:45:00	0.2298	5.810		0.567804405	0.693568849	0.010998009	0.113464428	0.034970839
2019-12-08T21:50:00	0.2294	5.814		0.566549532	0.691764474	0.010953229	0.113002441	0.034828450
2019-12-08T21:55:00	0.2298	5.821		0.567989078	0.693834500	0.011004607	0.113532498	0.034991818
2019-12-08T22:00:00	0.2306	5.826		0.570437658	0.697359421	0.011092279	0.114436994	0.035270593
2019-12-08T22:05:00	0.2300	5.830		0.568370447	0.694383185	0.011018238	0.113673134	0.035035164
2019-12-08T22:10:00	0.2293	5.834		0.566302014	0.691408722	0.010944407	0.112911429	0.034800399
2019-12-08T22:15:00	0.2284	5.837		0.563220935	0.686984597	0.010834898	0.111781647	0.034452189
2019-12-08T22:20:00	0.2285	5.842		0.563510373	0.687399868	0.010845162	0.111887533	0.034484824
2019-12-08T22:25:00	0.2296	5.847		0.567169490	0.692655746	0.010975340	0.113230561	0.034898759
2019-12-08T22:30:00	0.2317	5.852		0.574187725	0.702767548	0.011227238	0.115829348	0.035699730
2019-12-08T22:35:00	0.2327	5.857		0.577499900	0.707553859	0.011347131	0.117066264	0.036080959
2019-12-08T22:40:00	0.2345	5.863		0.583491919	0.716235845	0.011565682	0.119321012	0.036775895
2019-12-08T22:45:00	0.2335	5.866		0.580425931	0.711789734	0.011453588	0.118164559	0.036419465
2019-12-08T22:50:00	0.2319	5.868		0.575005671	0.703948689	0.011256786	0.116134183	0.035793683
2019-12-08T22:55:00	0.2336	5.868		0.580666449	0.712138237	0.011462362	0.118255071	0.036447361
2019-12-08T23:00:00	0.2350	5.865		0.585313053	0.718880441	0.011632528	0.120010649	0.036988448
2019-12-08T23:05:00	0.2354	5.862		0.586605655	0.720759192	0.011680094	0.120501374	0.037139694
2019-12-08T23:10:00	0.2360	5.858		0.588567366	0.723613127	0.011752471	0.121248079	0.037369836
2019-12-08T23:15:00	0.2374	5.855		0.593203559	0.730370692	0.011924435	0.123022198	0.037916636
2019-12-08T23:20:00	0.2400	5.851		0.602171472	0.743492953	0.012260710	0.126491484	0.038985904
2019-12-08T23:25:00	0.2396	5.846		0.600790099	0.741467284	0.012208599	0.125953860	0.038820203
2019-12-08T23:30:00	0.2391	5.840		0.599074437	0.738953631	0.012144035	0.125287774	0.038614909
2019-12-08T23:35:00	0.2385	5.835		0.597024000	0.735952719	0.012067105	0.124494095	0.038370289
2019-12-08T23:40:00	0.2373	5.829		0.592966888	0.730025294	0.011915625	0.122931311	0.037888624
2019-12-08T23:45:00	0.2381	5.822		0.595593314	0.733860924	0.012013575	0.123941843	0.038200080
2019-12-08T23:50:00	0.2396	5.816		0.600553935	0.741121129	0.012199701	0.125862065	0.038791911
2019-12-08T23:55:00	0.2392	5.809		0.599505670	0.739585208	0.012160247	0.125455024	0.038666457
2019-12-09T00:00:00	0.2383	5.803		0.596453588	0.735118520	0.012045748	0.124273762	0.038302380
2019-12-09T00:05:00	0.2398	5.797		0.601413004	0.742380525	0.012232083	0.126196146	0.038894878
2019-12-09T00:10:00	0.2376	5.790		0.594020085	0.731562691	0.011954854	0.123336025	0.038013361
2019-12-09T00:15:00	0.2358	5.780		0.587951178	0.722716340	0.011729712	0.121013279	0.037297468
2019-12-09T00:20:00	0.2366	5.767		0.590581340	0.726546430	0.011827015	0.122017138	0.037606867
2019-12-09T00:25:00	0.2367	5.754		0.590868529	0.726964989	0.011837665	0.122127007	0.037640730
2019-12-09T00:30:00	0.2364	5.745		0.590152010	0.725920838	0.011811104	0.121852984	0.037556273
2019-12-09T00:35:00	0.2352	5.739		0.586086979	0.720005148	0.011660995	0.120304340	0.037078966
2019-12-09T00:40:00	0.2338	5.729		0.581346415	0.713123744	0.011487183	0.118511149	0.036526287
2019-12-09T00:45:00	0.2350	5.717		0.585322047	0.718893509	0.011632859	0.120014060	0.036989499
2019-12-09T00:50:00	0.2342	5.703		0.582593001	0.714931478	0.011532760	0.118981354	0.036671209
2019-12-09T00:55:00	0.2337	5.690		0.580868458	0.712430978	0.011469733	0.118331119	0.036470800
2019-12-09T01:00:00	0.2335	5.676		0.580149899	0.711389832	0.011443524	0.118060725	0.036387462
2019-12-09T01:05:00	0.2356	5.664		0.587477113	0.722026612	0.011712218	0.120832794	0.037241841
2019-12-09T01:10:00	0.2343	5.651		0.583073723	0.715628942	0.011550360	0.119162934	0.036727174
2019-12-09T01:15:00	0.2345	5.636		0.583696765	0.716533178	0.011573191	0.119398483	0.036799772
2019-12-09T01:20:00	0.2337	5.622		0.580966456	0.712573004	0.011473310	0.118368020	0.036482173
2019-12-09T01:25:00	0.2339	5.608		0.581589871	0.713476690	0.011496077	0.118602904	0.036554567
2019-12-09T01:30:00	0.2342	5.596		0.582548525	0.714866960	0.011531132	0.118964562	0.036666033
2019-12-09T01:35:00	0.2338	5.584		0.581159442	0.712852717	0.011480355	0.118440706	0.036504576
2019-12-09T01:40:00	0.2345	5.571		0.583794685	0.716675320	0.011576782	0.119435524	0.036811188
2019-12-09T01:45:00	0.2333	5.557		0.579722296	0.710770466	0.011427942	0.117899968	0.036337915
2019-12-09T01:50:00	0.2341	5.545		0.582358616	0.714591487	0.011524183	0.118892873	0.036643938
2019-12-09T01:55:00	0.2325	5.529		0.576941342	0.706746069	0.011326867	0.116857203	0.036016525
2019-12-09T02:00:00	0.2334	5.515		0.579915351	0.711050080	0.011434975	0.117972533	0.036360280
2019-12-09T02:05:00	0.2347	5.500		0.584227790	0.717304122	0.011592669	0.119599431	0.036861706
2019-12-09T02:10:00	0.2360	5.485		0.588534947	0.723565938	0.011751273	0.121235720	0.037366026
2019-12-09T02:15:00	0.2349	5.467		0.585138284	0.718626527	0.011626105	0.119944379	0.036968022
2019-12-09T02:20:00	0.2364	5.451		0.590113618	0.725864903	0.011809682	0.121838310	0.037551751
2019-12-09T02:25:00	0.2367	5.436		0.591069953	0.727258592	0.011845137	0.122204096	0.037664489
2019-12-09T02:30:00	0.2371	5.419		0.592360445	0.729140463	0.011893067	0.122698583	0.037816895
2019-12-09T02:35:00	0.2370	5.401		0.591978680	0.728583607	0.011878878	0.122552192	0.037771776
2019-12-09T02:40:00	0.2362	5.382		0.589254791	0.724613964	0.011777888	0.121510300	0.037450655
2019-12-09T02:45:00	0.2359	5.363		0.588203164	0.723083038	0.011739017	0.121109271	0.037327054
2019-12-09T02:50:00	0.2351	5.347		0.585811390	0.719604592	0.011650854	0.120199717	0.037046720
2019-12-09T02:55:00	0.2339	5.331		0.581741339	0.713696303	0.011501612	0.118660009	0.036572167
2019-12-09T03:00:00	0.2329	5.315		0.578338103	0.708766559	0.011377576	0.117380350	0.036177764
2019-12-09T03:05:00	0.2335	5.299		0.580304431	0.711613703	0.011449158	0.118118849	0.036405376
2019-12-09T03:10:00	0.2336	5.285		0.580592460	0.712031024	0.011459662	0.118227223	0.036438778
2019-12-09T03:15:00	0.2335	5.269		0.580209417	0.711476053	0.011445693	0.118083110	0.036394361
2019-12-09T03:20:00	0.2340	5.254		0.581839313	0.713838365	0.011505193	0.118696953	0.036583554
2019-12-09T03:25:00	0.2329	5.241		0.578436171	0.708908482	0.011381140	0.117417126	0.036189099
2019-12-09T03:30:00	0.2318	5.229		0.574693658	0.703498067	0.011245510	0.116017853	0.035757829
2019-12-09T03:35:00	0.2328	5.213		0.578005356	0.708285075	0.011365485	0.117255614	0.036139319
2019-12-09T03:40:00	0.2343	5.200		0.582990785	0.715508596	0.011547322	0.119131596	0.036717515
2019-12-09T03:45:00	0.2343	5.188		0.582943314	0.715439717	0.011545584	0.119113662	0.036711987
2019-12-09T03:50:00	0.2349	5.176		0.584907067	0.718290642	0.011617609	0.119856732	0.036941009
2019-12-09T03:55:00	0.2342	5.165		0.582513051	0.714815500	0.011529834	0.118951169	0.036661905
2019-12-09T04:00:00	0.2346	5.153		0.584141879	0.717179381	0.011589517	0.119566909	0.036851683
2019-12-09T04:05:00	0.2357	5.144		0.587684724	0.722328646	0.011719878	0.120911818	0.037266197
2019-12-09T04:10:00	0.2359	5.133		0.588212151	0.723096117	0.011739349	0.121112695	0.037328109
2019-12-09T04:15:00	0.2354	5.121		0.586730466	0.720940674	0.011684692	0.120548812	0.037154314
2019-12-09T04:20:00	0.2356	5.107		0.587258036	0.721707934	0.011704138	0.120749434	0.037216148
2019-12-09T04:25:00	0.2356	5.093		0.587450678	0.721988155	0.011711243	0.120822734	0.037238740
2019-12-09T04:30:00	0.2353	5.080		0.586303663	0.720320133	0.011668972	0.120386634	0.037104330
2019-12-09T04:35:00	0.2353	5.066		0.586161384	0.720113303	0.011663734	0.120332595	0.037087674
2019-12-09T04:40:00	0.2358	5.051		0.588028539	0.722828912	0.011732568	0.121042745	0.037306550
2019-12-09T04:45:00	0.2354	5.038		0.586546776	0.720673584	0.011677925	0.120478999	0.037132798
2019-12-09T04:50:00	0.2345	5.027		0.583723761	0.716572365	0.011574181	0.119408694	0.036802919
2019-12-09T04:55:00	0.2344	5.014		0.583246127	0.715879123	0.011556675	0.119228090	0.036747255
2019-12-09T05:00:00	0.2331	5.003		0.579078057	0.709837599	0.011404486	0.117657979	0.036263332
2019-12-09T05:05:00	0.2330	4.991		0.578599791	0.709145285	0.011387089	0.117478497	0.036208014
2019-12-09T05:10:00	0.2333	4.977		0.579464227	0.710396737	0.011418543	0.117803002	0.036308029
2019-12-09T05:15:00	0.2339	4.966		0.581670374	0.713593408	0.011499018	0.118633253	0.036563921
2019-12-09T05:20:00	0.2353	4.959		0.586220800	0.720199674	0.011665921	0.120355160	0.037094629
2019-12-09T05:25:00	0.2367	4.947		0.591099885	0.727302225	0.011846248	0.122215553	0.037668021
2019-12-09T05:30:00	0.2378	4.936		0.594635744	0.732461822	0.011977816	0.123572921	0.038086374
2019-12-09T05:35:00	0.2371	4.924		0.592488044	0.729326611	0.011897812	0.122747531	0.037831981
2019-12-09T05:40:00	0.2373	4.912		0.593014753	0.730095145	0.011917407	0.122949690	0.037894289
2019-12-09T05:45:00	0.2374	4.900		0.593207081	0.730375832	0.011924566	0.123023551	0.037917053
2019-12-09T05:50:00	0.2371	4.889		0.592396350	0.729192843	0.011894402	0.122712355	0.037821140
2019-12-09T05:55:00	0.2370	4.879		0.591919891	0.728497866	0.011876693	0.122529657	0.037764830
2019-12-09T06:00:00	0.2369	4.872		0.591777839	0.728290701	0.011871416	0.122475214	0.037748051
2019-12-09T06:05:00	0.2368	4.864		0.591301296	0.727595848	0.011853722	0.122292666	0.037691787
2019-12-09T06:10:00	0.2380	4.860		0.595505220	0.733732178	0.012010283	0.123907880	0.038189612
2019-12-09T06:15:00	0.2374	4.855		0.593358049	0.730596181	0.011930187	0.123081544	0.037934927
2019-12-09T06:20:00	0.2369	4.849		0.591544065	0.727949808	0.011862735	0.122385645	0.037720444
2019-12-09T06:25:00	0.2373	4.843		0.593074055	0.730181687	0.011919614	0.122972461	0.037901307
2019-12-09T06:30:00	0.2375	4.835		0.593600677	0.730950351	0.011939224	0.123174776	0.037963662
2019-12-09T06:35:00	0.2389	4.824		0.598469571	0.738068016	0.012121315	0.125053374	0.038542664
2019-12-09T06:40:00	0.2390	4.809		0.598661602	0.738349144	0.012128526	0.125127766	0.038565593
2019-12-09T06:45:00	0.2391	4.791		0.599187391	0.739119047	0.012148281	0.125331571	0.038628407
2019-12-09T06:50:00	0.2386	4.773		0.597376399	0.736468223	0.012080309	0.124630317	0.038412274
2019-12-09T06:55:00	0.2393	4.755		0.599571363	0.739681435	0.012162717	0.125480513	0.038674313
2019-12-09T07:00:00	0.2393	4.735		0.599763334	0.739962653	0.012169938	0.125555012	0.038697274
2019-12-09T07:05:00	0.2394	4.718		0.599955294	0.740243886	0.012177161	0.125629530	0.038720241
2019-12-09T07:10:00	0.2404	4.710		0.603482307	0.745416662	0.012310266	0.127002743	0.039143479
2019-12-09T07:15:00	0.2403	4.708		0.603007340	0.744719461	0.012292298	0.126817371	0.039086346
2019-12-09T07:20:00	0.2411	4.708		0.605531988	0.748427544	0.012387960	0.127804300	0.039390527
2019-12-09T07:25:00	0.2397	4.710		0.601056623	0.741857996	0.012218644	0.126057499	0.038852145
2019-12-09T07:30:00	0.2400	4.712		0.601915570	0.743117574	0.012251048	0.126391799	0.038955180
2019-12-09T07:35:00	0.2402	4.714		0.602774308	0.744377463	0.012283487	0.126726474	0.039058330
2019-12-09T07:40:00	0.2405	4.708		0.603632838	0.745637664	0.012315963	0.127061522	0.039161595
2019-12-09T07:45:00	0.2411	4.698		0.605823926	0.748856674	0.012399047	0.127918679	0.039425779
2019-12-09T07:50:00	0.2413	4.696		0.606348653	0.749628168	0.012418986	0.128124393	0.039489182
2019-12-09T07:55:00	0.2407	4.687		0.604208057	0.746482352	0.012337747	0.127286262	0.039230862
2019-12-09T08:00:00	0.2407	4.674		0.604399776	0.746763945	0.012345012	0.127361212	0.039253962
2019-12-09T08:05:00	0.2390	4.659		0.598587989	0.738241374	0.012125761	0.125099246	0.038556803
2019-12-09T08:10:00	0.2386	4.648		0.597444591	0.736567988	0.012082864	0.124656685	0.038420401
2019-12-09T08:15:00	0.2382	4.637		0.595966780	0.734406800	0.012027537	0.124085881	0.038244474
2019-12-09T08:20:00	0.2375	4.631		0.593819890	0.731270386	0.011947392	0.123259043	0.037989634
2019-12-09T08:25:00	0.2371	4.624		0.592340560	0.729111456	0.011892328	0.122690956	0.037814544
2019-12-09T08:30:00	0.2378	4.617		0.594538655	0.732320010	0.011974194	0.123535547	0.038074855
2019-12-09T08:35:00	0.2382	4.613		0.596067348	0.734553816	0.012031298	0.124124683	0.038256433
2019-12-09T08:40:00	0.2391	4.616		0.598930744	0.738743215	0.012138636	0.125232069	0.038597740
2019-12-09T08:45:00	0.2395	4.618		0.600457538	0.740979850	0.012196070	0.125824606	0.038780365
2019-12-09T08:50:00	0.2402	4.615		0.602650592	0.744195916	0.012278811	0.126678230	0.039043461
2019-12-09T08:55:00	0.2416	4.613		0.607507057	0.751332157	0.012463064	0.128579137	0.039629339
2019-12-09T09:00:00	0.2420	4.618		0.608697316	0.753084179	0.012508438	0.129047252	0.039773616
2019-12-09T09:05:00	0.2430	4.626		0.611883102	0.757779400	0.012630302	0.130304500	0.040161112
2019-12-09T09:10:00	0.2435	4.634		0.613736733	0.760515210	0.012701489	0.131038917	0.040387467
2019-12-09T09:15:00	0.2426	4.648		0.610602687	0.755891296	0.012581250	0.129798437	0.040005139
2019-12-09T09:20:00	0.2425	4.667		0.610461383	0.755683012	0.012575843	0.129742651	0.039987945
2019-12-09T09:25:00	0.2428	4.688		0.611318054	0.756946008	0.012608643	0.130081049	0.040092243
2019-12-09T09:30:00	0.2420	4.706		0.608847626	0.753305514	0.012514174	0.129106429	0.039791855
2019-12-09T09:35:00	0.2407	4.711		0.604376449	0.746729681	0.012344128	0.127352091	0.039251151
2019-12-09T09:40:00	0.2411	4.712		0.605567760	0.748480123	0.012389318	0.127818313	0.039394845
2019-12-09T09:45:00	0.2404	4.725		0.603426692	0.745335015	0.012308161	0.126981031	0.039136787
2019-12-09T09:50:00	0.2403	4.737		0.602951717	0.744637825	0.012290195	0.126795672	0.039079657
2019-12-09T09:55:00	0.2396	4.760		0.600809067	0.741495088	0.012209313	0.125961235	0.038822476
2019-12-09T10:00:00	0.2380	4.781		0.595325506	0.733469554	0.012003569	0.123838609	0.038168262
2019-12-09T10:05:00	0.2384	4.784		0.596765266	0.735574300	0.012057415	0.124394129	0.038339479
2019-12-09T10:10:00	0.2384	4.790		0.596534811	0.735237288	0.012048788	0.124305124	0.038312046
2019-12-09T10:15:00	0.2383	4.815		0.596304341	0.734900297	0.012040163	0.124216146	0.038284622
2019-12-09T10:20:00	0.2369	4.832		0.591728555	0.728218830	0.011869586	0.122456329	0.037742230
2019-12-09T10:25:00	0.2361	4.846		0.589155621	0.724469556	0.011774220	0.121472453	0.037438990
2019-12-09T10:30:00	0.2364	4.872		0.589928702	0.725595509	0.011802833	0.121767648	0.037529972
2019-12-09T10:35:00	0.2365	4.904		0.590367042	0.726234149	0.011819072	0.121935187	0.037581609
2019-12-09T10:40:00	0.2377	4.930		0.594483429	0.732239347	0.011972133	0.123514291	0.038068304
2019-12-09T10:45:00	0.2381	4.961		0.595589454	0.733855283	0.012013431	0.123940355	0.038199621
2019-12-09T10:50:00	0.2383	4.995		0.596361127	0.734983326	0.012042288	0.124238066	0.038291379
2019-12-09T10:55:00	0.2380	5.023		0.595462497	0.733669742	0.012008687	0.123891410	0.038184536
2019-12-09T11:00:00	0.2371	5.050		0.592223523	0.728940731	0.011887977	0.122646069	0.037800710
2019-12-09T11:05:00	0.2373	5.069		0.592995933	0.730067680	0.011916706	0.122942464	0.037892061
2019-12-09T11:10:00	0.2347	5.081		0.584396265	0.717548763	0.011598852	0.119663220	0.036881367
2019-12-09T11:15:00	0.2329	5.083		0.578126593	0.708460495	0.011369890	0.117301054	0.036153324
2019-12-09T11:20:00	0.2325	5.082		0.576887437	0.706668124	0.011324913	0.116837037	0.036010310
2019-12-09T11:25:00	0.2310	5.082		0.571949968	0.699538987	0.011146605	0.114997464	0.035443335
2019-12-09T11:30:00	0.2311	5.079		0.572390557	0.700174326	0.011162457	0.115161011	0.035493742
2019-12-09T11:35:00	0.2294	5.088		0.566436249	0.691601648	0.010949191	0.112960782	0.034815610
2019-12-09T11:40:00	0.2290	5.103		0.565192946	0.689815308	0.010904924	0.112504086	0.034674852
2019-12-09T11:45:00	0.2290	5.129		0.565297415	0.689965356	0.010908640	0.112542423	0.034686668
2019-12-09T11:50:00	0.2289	5.154		0.564727858	0.689147411	0.010888388	0.112333489	0.034622272
2019-12-09T11:55:00	0.2287	5.173		0.564158209	0.688329600	0.010868152	0.112124719	0.034557927
2019-12-09T12:00:00	0.2280	5.187		0.561902292	0.685093548	0.010788202	0.111299888	0.034303706
2019-12-09T12:05:00	0.2288	5.198		0.564367204	0.688629611	0.010875574	0.112201290	0.034581527
2019-12-09T12:10:00	0.2282	5.207		0.562448703	0.685876975	0.010807539	0.111499388	0.034365194
2019-12-09T12:15:00	0.2281	5.220		0.562215983	0.685543279	0.010799301	0.111414397	0.034338999
2019-12-09T12:20:00	0.2271	5.232		0.558608531	0.680376268	0.010672009	0.110101147	0.033934243
2019-12-09T12:25:00	0.2267	5.243		0.557362434	0.678593954	0.010628217	0.109649358	0.033794997
2019-12-09T12:30:00	0.2264	5.258		0.556453752	0.677295056	0.010596341	0.109320498	0.033693639
2019-12-09T12:35:00	0.2266	5.272		0.556896300	0.677927563	0.010611859	0.109480598	0.033742983
2019-12-09T12:40:00	0.2265	5.283		0.556663210	0.677594401	0.010603684	0.109396258	0.033716989
2019-12-09T12:45:00	0.2259	5.288		0.554740461	0.674847872	0.010536372	0.108701805	0.033502952
2019-12-09T12:50:00	0.2254	5.291		0.553154831	0.672585182	0.010481025	0.108130799	0.033326962
2019-12-09T12:55:00	0.2247	5.299		0.550553371	0.668877379	0.010390540	0.107197281	0.033039243
2019-12-09T13:00:00	0.2233	5.308		0.545917335	0.662283502	0.010230272	0.105543827	0.032529633
2019-12-09T13:05:00	0.2241	5.319		0.548732206	0.666285017	0.010327431	0.106546207	0.032838576
2019-12-09T13:10:00	0.2256	5.336		0.553574131	0.673183321	0.010495646	0.108281647	0.033373455
2019-12-09T13:15:00	0.2262	5.348		0.555707040	0.676228190	0.010570183	0.109050631	0.033610464
2019-12-09T13:20:00	0.2282	5.358		0.562563376	0.686041420	0.010811599	0.111541279	0.034378105
2019-12-09T13:25:00	0.2287	5.368		0.564016631	0.688126388	0.010863125	0.112072863	0.034541945
2019-12-09T13:30:00	0.2273	5.368		0.559398513	0.681506855	0.010699818	0.110388054	0.034022670
2019-12-09T13:35:00	0.2256	5.364		0.553760096	0.673448650	0.010502134	0.108348583	0.033394086
2019-12-09T13:40:00	0.2255	5.356		0.553188651	0.672633421	0.010482204	0.108142962	0.033330711
2019-12-09T13:45:00	0.2244	5.343		0.549571824	0.667479845	0.010356502	0.106846125	0.032931013
2019-12-09T13:50:00	0.2237	5.331		0.547306429	0.664257375	0.010278160	0.106037887	0.032681906
2019-12-09T13:55:00	0.2257	5.331		0.554179324	0.674046894	0.010516768	0.108499558	0.033440618
2019-12-09T14:00:00	0.2245	5.343		0.549886629	0.667927980	0.010367413	0.106958685	0.032965705
2019-12-09T14:05:00	0.2243	5.349		0.549314546	0.667113661	0.010347590	0.106754178	0.032902674
2019-12-09T14:10:00	0.2248	5.352		0.551111722	0.669672715	0.010409927	0.107397296	0.033100890
2019-12-09T14:15:00	0.2244	5.352		0.549524434	0.667412391	0.010354860	0.106829185	0.032925792
2019-12-09T14:20:00	0.2242	5.345		0.548952292	0.666598157	0.010335048	0.106624782	0.032862793
2019-12-09T14:25:00	0.2224	5.337		0.542957741	0.658083252	0.010128617	0.104495078	0.032206398
2019-12-09T14:30:00	0.2212	5.320		0.538651126	0.651984111	0.009981612	0.102978455	0.031738960
2019-12-09T14:35:00	0.2211	5.303		0.538416807	0.651652696	0.009973645	0.102896258	0.031713626
2019-12-09T14:40:00	0.2212	5.282		0.538861661	0.652281924	0.009988774	0.103052337	0.031761731
2019-12-09T14:45:00	0.2220	5.264		0.541342965	0.655794588	0.010073370	0.103925105	0.032030727
2019-12-09T14:50:00	0.2217	5.245		0.540430080	0.654501674	0.010042205	0.103603577	0.031931629
2019-12-09T14:55:00	0.2221	5.226		0.541892618	0.656573385	0.010092159	0.104118941	0.032090469
2019-12-09T15:00:00	0.2222	5.204		0.541997788	0.656722429	0.010095756	0.104156051	0.032101906
2019-12-09T15:05:00	0.2219	5.183		0.541085076	0.655429271	0.010064561	0.103834222	0.032002716
2019-12-09T15:10:00	0.2220	5.162		0.541529587	0.656058983	0.010079748	0.103990897	0.032051004
2019-12-09T15:15:00	0.2221	5.140		0.541974042	0.656688775	0.010094943	0.104147671	0.032099324
2019-12-09T15:20:00	0.2220	5.114		0.541400652	0.655876311	0.010075341	0.103945440	0.032036994
2019-12-09T15:25:00	0.2221	5.090		0.541845123	0.656506080	0.010090535	0.104102185	0.032085304
2019-12-09T15:30:00	0.2230	5.065		0.545002276	0.660984087	0.010198787	0.105219006	0.032429519
2019-12-09T15:35:00	0.2230	5.039		0.544768387	0.660652065	0.010190747	0.105136062	0.032403955
2019-12-09T15:40:00	0.2249	5.018		0.551307974	0.669952325	0.010416746	0.107467644	0.033122572
2019-12-09T15:45:00	0.2244	4.996		0.549720776	0.667691873	0.010361664	0.106899376	0.032947426
2019-12-09T15:50:00	0.2241	4.976		0.548471490	0.665914121	0.010318413	0.106453164	0.032809899
2019-12-09T15:55:00	0.2252	4.954		0.552299183	0.671365032	0.010451219	0.107823303	0.033232189
2019-12-09T16:00:00	0.2251	4.930		0.552065784	0.671032312	0.010443097	0.107739503	0.033206361
2019-12-09T16:05:00	0.2249	4.905		0.551422478	0.670115479	0.010420725	0.107508699	0.033135225
2019-12-09T16:10:00	0.2244	4.884		0.549763716	0.667753000	0.010363152	0.106914730	0.032952158
2019-12-09T16:15:00	0.2236	4.865		0.546749270	0.663465474	0.010258939	0.105839581	0.032620787
2019-12-09T16:20:00	0.2240	4.850		0.548137494	0.665439056	0.010306865	0.106334030	0.032773181
2019-12-09T16:25:00	0.2226	4.838		0.543426479	0.658748006	0.010144683	0.104660826	0.032257483
2019-12-09T16:30:00	0.2219	4.829		0.541085268	0.655429543	0.010064568	0.103834290	0.032002737
2019-12-09T16:35:00	0.2214	4.821		0.539421552	0.653074095	0.010007831	0.103248947	0.031822328
2019-12-09T16:40:00	0.2198	4.814		0.534018646	0.645440379	0.009824694	0.101359562	0.031240001
2019-12-09T16:45:00	0.2185	4.803		0.529628835	0.639255580	0.009677152	0.099837398	0.030770856
2019-12-09T16:50:00	0.2178	4.781		0.527278251	0.635950294	0.009598611	0.099027099	0.030521114
2019-12-09T16:55:00	0.2166	4.760		0.523220961	0.630255681	0.009463799	0.097636268	0.030092446
2019-12-09T17:00:00	0.2168	4.739		0.523936670	0.631259243	0.009487510	0.097880894	0.030167842
2019-12-09T17:05:00	0.2162	4.723		0.521582194	0.627959377	0.009409619	0.097077303	0.029920167
2019-12-09T17:10:00	0.2155	4.705		0.519226106	0.624661751	0.009331997	0.096276488	0.029673349
2019-12-09T17:15:00	0.2141	4.682		0.514475413	0.618026269	0.009176463	0.094671879	0.029178793
2019-12-09T17:20:00	0.2139	4.659		0.513825062	0.617119319	0.009155273	0.094453265	0.029111414
2019-12-09T17:25:00	0.2132	4.638		0.511463639	0.613829060	0.009078538	0.093661606	0.028867417
2019-12-09T17:30:00	0.2133	4.617		0.511839582	0.614352574	0.009090733	0.093787417	0.028906193
2019-12-09T17:35:00	0.2144	4.603		0.515635777	0.619645309	0.009214332	0.095062560	0.029299204
2019-12-09T17:40:00	0.2133	4.597		0.511906951	0.614446400	0.009092919	0.093809971	0.028913144
2019-12-09T17:45:00	0.2119	4.591		0.507146096	0.607824912	0.008939074	0.092222778	0.028423956
2019-12-09T17:50:00	0.2113	4.588		0.505122985	0.605016668	0.008874095	0.091552401	0.028217339
2019-12-09T17:55:00	0.2111	4.586		0.504127862	0.603636564	0.008842220	0.091223553	0.028115985
2019-12-09T18:00:00	0.2107	4.586		0.502789321	0.601781445	0.008799435	0.090782151	0.027979941
2019-12-09T18:05:00	0.2110	4.587		0.503852362	0.603254625	0.008833406	0.091132616	0.028087957
2019-12-09T18:10:00	0.2107	4.587		0.502856868	0.601875027	0.008801592	0.090804400	0.027986798
2019-12-09T18:15:00	0.2109	4.587		0.503576841	0.602872716	0.008824595	0.091041717	0.028059941
2019-12-09T18:20:00	0.2104	4.587		0.501894867	0.600542602	0.008770903	0.090487788	0.027889215
2019-12-09T18:25:00	0.2101	4.586		0.500898802	0.599163782	0.008739183	0.090160545	0.027788356
2019-12-09T18:30:00	0.2100	4.585		0.500589246	0.598735437	0.008729337	0.090058965	0.027757048
2019-12-09T18:35:00	0.2094	4.584		0.498562247	0.595932497	0.008665001	0.089395222	0.027552476
2019-12-09T18:40:00	0.2083	4.584		0.494814736	0.590759124	0.008546681	0.088174533	0.027176247
2019-12-09T18:45:00	0.2075	4.587		0.492095921	0.587012902	0.008461346	0.087294149	0.026904905
2019-12-09T18:50:00	0.2073	4.589		0.491096987	0.585637971	0.008430100	0.086971785	0.026805549
2019-12-09T18:55:00	0.2075	4.592		0.491819448	0.586632285	0.008452692	0.087204870	0.026877388
2019-12-09T19:00:00	0.2078	4.595		0.492885916	0.588100815	0.008486098	0.087549506	0.026983608
2019-12-09T19:05:00	0.2082	4.600		0.494296067	0.590043999	0.008530369	0.088006243	0.027124379
2019-12-09T19:10:00	0.2076	4.605		0.492265319	0.587246140	0.008466651	0.087348874	0.026921771
2019-12-09T19:15:00	0.2086	4.610		0.495739479	0.592034668	0.008575803	0.088474976	0.027268847
2019-12-09T19:20:00	0.2094	4.616		0.498523021	0.595878289	0.008663759	0.089382402	0.027548524
2019-12-09T19:25:00	0.2098	4.623		0.499930842	0.597824632	0.008708414	0.089843102	0.027690517
2019-12-09T19:30:00	0.2096	4.630		0.499277718	0.596921476	0.008687683	0.089629225	0.027624597
2019-12-09T19:35:00	0.2089	4.637		0.496906219	0.593644989	0.008612616	0.088854768	0.027385903
2019-12-09T19:40:00	0.2092	4.644		0.497627448	0.594640969	0.008635411	0.089089945	0.027458386
2019-12-09T19:45:00	0.2099	4.651		0.500066049	0.598011643	0.008712709	0.089887410	0.027704173
2019-12-09T19:50:00	0.2105	4.659		0.502159718	0.600909360	0.008779347	0.090574900	0.027916064
2019-12-09T19:55:00	0.2101	4.662		0.500820405	0.599055293	0.008736689	0.090134814	0.027780425
2019-12-09T20:00:00	0.2103	4.667		0.501540807	0.600052397	0.008759621	0.090371399	0.027853343
2019-12-09T20:05:00	0.2103	4.671		0.501574593	0.600099171	0.008760698	0.090382502	0.027856765
2019-12-09T20:10:00	0.2102	4.673		0.501265099	0.599670742	0.008750841	0.090280818	0.027825425
2019-12-09T20:15:00	0.2101	4.676		0.500955577	0.599242352	0.008740990	0.090179182	0.027794100
2019-12-09T20:20:00	0.2101	4.677		0.500989369	0.599289118	0.008742065	0.090190275	0.027797519
2019-12-09T20:25:00	0.2105	4.680		0.502396172	0.601236845	0.008786888	0.090652708	0.027940045
2019-12-09T20:30:00	0.2104	4.683		0.501743520	0.600333047	0.008766080	0.090438027	0.027873878
2019-12-09T20:35:00	0.2098	4.684		0.499717206	0.597529173	0.008701630	0.089773115	0.027668946
2019-12-09T20:40:00	0.2096	4.688		0.499064042	0.596626073	0.008680906	0.089559307	0.027603048
2019-12-09T20:45:00	0.2087	4.690		0.496004808	0.592400776	0.008584168	0.088561274	0.027295445
2019-12-09T20:50:00	0.2076	4.692		0.492254480	0.587231216	0.008466311	0.087345372	0.026920692
2019-12-09T20:55:00	0.2083	4.694		0.494696929	0.590596676	0.008542975	0.088136294	0.027164462
2019-12-09T21:00:00	0.2086	4.696		0.495762496	0.592066425	0.008576528	0.088482461	0.027271154
2019-12-09T21:05:00	0.2097	4.696		0.499576578	0.597334704	0.008697166	0.089727060	0.027654751
2019-12-09T21:10:00	0.2103	4.688		0.501670547	0.600232013	0.008763754	0.090414039	0.027866485
2019-12-09T21:15:00	0.2107	4.683		0.503077069	0.602180122	0.008808624	0.090876950	0.028009159
2019-12-09T21:20:00	0.2110	4.677		0.503796996	0.603177874	0.008831635	0.091114346	0.028082326
2019-12-09T21:25:00	0.2099	4.675		0.500055236	0.597996686	0.008712365	0.089883866	0.027703080
2019-12-09T21:30:00	0.2101	4.676		0.500775800	0.598993570	0.008735270	0.090120175	0.027775913
2019-12-09T21:35:00	0.2099	4.673		0.500122838	0.598090194	0.008714513	0.089906023	0.027709909
2019-12-09T21:40:00	0.2093	4.674		0.498095561	0.595287630	0.008650223	0.089242751	0.027505483
2019-12-09T21:45:00	0.2088	4.676		0.496410881	0.592961196	0.008596977	0.088693429	0.027336176
2019-12-09T21:50:00	0.2078	4.678		0.493005149	0.588265057	0.008489837	0.087588079	0.026995497
2019-12-09T21:55:00	0.2079	4.683		0.493383130	0.588785793	0.008501694	0.087710415	0.027033202
2019-12-09T22:00:00	0.2079	4.686		0.493416998	0.588832457	0.008502757	0.087721380	0.027036581
2019-12-09T22:05:00	0.2083	4.688		0.494826929	0.590775938	0.008547065	0.088178491	0.027177467
2019-12-09T22:10:00	0.2085	4.688		0.495204708	0.591296948	0.008558956	0.088301170	0.027215278
2019-12-09T22:15:00	0.2074	4.688		0.491453499	0.586128582	0.008441245	0.087086766	0.026840987
2019-12-09T22:20:00	0.2078	4.688		0.492864244	0.588070963	0.008485418	0.087542496	0.026981447
2019-12-09T22:25:00	0.2079	4.689		0.493242240	0.588591678	0.008497274	0.087664805	0.027019144
2019-12-09T22:30:00	0.2079	4.693		0.493276109	0.588638341	0.008498336	0.087675768	0.027022523
2019-12-09T22:35:00	0.2072	4.696		0.490900425	0.585367519	0.008423958	0.086908423	0.026786020
2019-12-09T22:40:00	0.2072	4.698		0.490934317	0.585414149	0.008425017	0.086919347	0.026789387
2019-12-09T22:45:00	0.2076	4.700		0.492345277	0.587356240	0.008469155	0.087374711	0.026929734
2019-12-09T22:50:00	0.2080	4.703		0.493755653	0.589299121	0.008513389	0.087831067	0.027070388
2019-12-09T22:55:00	0.2073	4.705		0.491380304	0.586027847	0.008438956	0.087063154	0.026833710
2019-12-09T23:00:00	0.2074	4.708		0.491414191	0.586074484	0.008440016	0.087074086	0.026837079
2019-12-09T23:05:00	0.2076	4.710		0.492136585	0.587068889	0.008462619	0.087307284	0.026908953
2019-12-09T23:10:00	0.2089	4.711		0.496642323	0.593280667	0.008604282	0.088768795	0.027359405
2019-12-09T23:15:00	0.2110	4.708		0.503887486	0.603303315	0.008834529	0.091144207	0.028091530
2019-12-09T23:20:00	0.2112	4.696		0.504607241	0.604301301	0.008857568	0.091381895	0.028164788
2019-12-09T23:25:00	0.2133	4.687		0.511835551	0.614346960	0.009090602	0.093786067	0.028905777
2019-12-09T23:30:00	0.2143	4.675		0.515289873	0.619162561	0.009203035	0.094946014	0.029263284
2019-12-09T23:35:00	0.2141	4.666		0.514639676	0.618255397	0.009181819	0.094727136	0.029195823
2019-12-09T23:40:00	0.2150	4.658		0.517749546	0.622597424	0.009283515	0.095776313	0.029519190
2019-12-09T23:45:00	0.2153	4.653		0.518807955	0.624076970	0.009318254	0.096134710	0.029629651
2019-12-09T23:50:00	0.2159	4.650		0.520890198	0.626990379	0.009386787	0.096841754	0.029847569
2019-12-09T23:55:00	0.2166	4.647		0.522971180	0.629905536	0.009455531	0.097550966	0.030066155
2019-12-10T00:00:00	0.2167	4.644		0.523345865	0.630430789	0.009467935	0.097678937	0.030105597
2019-12-10T00:05:00	0.2176	4.641		0.526447869	0.634783722	0.009570942	0.098741641	0.030433133
2019-12-10T00:10:00	0.2178	4.640		0.527162906	0.635788218	0.009594765	0.098987423	0.030508885
2019-12-10T00:15:00	0.2187	4.636		0.530261476	0.640145940	0.009698346	0.100056051	0.030838247
2019-12-10T00:20:00	0.2186	4.632		0.529954559	0.639713954	0.009688062	0.099949945	0.030805544
2019-12-10T00:25:00	0.2184	4.628		0.529307129	0.638802947	0.009666384	0.099726303	0.030736615
2019-12-10T00:30:00	0.2184	4.624		0.529340643	0.638850097	0.009667506	0.099737873	0.030740181
2019-12-10T00:35:00	0.2187	4.620		0.530395493	0.640334593	0.009702839	0.100102401	0.030852532
2019-12-10T00:40:00	0.2183	4.617		0.529067161	0.638465371	0.009658356	0.099643475	0.030711087
2019-12-10T00:45:00	0.2189	4.616		0.530802870	0.640908141	0.009716502	0.100243358	0.030895977
2019-12-10T00:50:00	0.2188	4.613		0.530496002	0.640476087	0.009706209	0.100137169	0.030863248
2019-12-10T00:55:00	0.2198	4.608		0.533931642	0.645317647	0.009821759	0.101329281	0.031230668
2019-12-10T01:00:00	0.2200	4.601		0.534645130	0.646324312	0.009845842	0.101577741	0.031307246
2019-12-10T01:05:00	0.2198	4.599		0.533998580	0.645412073	0.009824018	0.101352578	0.031237849
2019-12-10T01:10:00	0.2202	4.596		0.535391926	0.647378416	0.009871081	0.101838128	0.031387500
2019-12-10T01:15:00	0.2201	4.591		0.535085465	0.646945791	0.009860720	0.101731232	0.031354554
2019-12-10T01:20:00	0.2209	4.587		0.537837287	0.650833233	0.009953954	0.102693110	0.031651014
2019-12-10T01:25:00	0.2205	4.579		0.536511817	0.648959997	0.009908991	0.102229232	0.031508042
2019-12-10T01:30:00	0.2198	4.573		0.534165919	0.645648144	0.009829664	0.101410830	0.031255803
2019-12-10T01:35:00	0.2206	4.559		0.536578704	0.649054493	0.009911257	0.102252616	0.031515249
2019-12-10T01:40:00	0.2207	4.547		0.536951914	0.649581810	0.009923909	0.102383137	0.031555477
2019-12-10T01:45:00	0.2204	4.537		0.535965966	0.648188985	0.009890504	0.102038508	0.031449259
2019-12-10T01:50:00	0.2210	4.528		0.538037870	0.651116834	0.009960767	0.102763400	0.031672678
2019-12-10T01:55:00	0.2217	4.517		0.540447956	0.654526985	0.010042815	0.103609868	0.031933568
2019-12-10T02:00:00	0.2214	4.496		0.539463004	0.653132755	0.010009243	0.103263511	0.031826817
2019-12-10T02:05:00	0.2214	4.479		0.539496420	0.653180043	0.010010381	0.103275252	0.031830436
2019-12-10T02:10:00	0.2215	4.468		0.539869314	0.653707804	0.010023085	0.103406319	0.031870832
2019-12-10T02:15:00	0.2212	4.455		0.538884199	0.652313806	0.009989540	0.103060248	0.031764169
2019-12-10T02:20:00	0.2214	4.448		0.539596665	0.653321909	0.010013795	0.103310478	0.031841293
2019-12-10T02:25:00	0.2211	4.440		0.538271869	0.651447723	0.009968719	0.102845431	0.031697961
2019-12-10T02:30:00	0.2204	4.433		0.535927166	0.648134189	0.009889191	0.102024958	0.031445083
2019-12-10T02:35:00	0.2208	4.429		0.537319734	0.650101625	0.009936385	0.102511855	0.031595149
2019-12-10T02:40:00	0.2196	4.426		0.533274249	0.644390495	0.009799596	0.101100626	0.031160195
2019-12-10T02:45:00	0.2191	4.422		0.531606768	0.642040345	0.009743492	0.100521810	0.030981798
2019-12-10T02:50:00	0.2185	4.422		0.529598023	0.639212225	0.009676121	0.099826755	0.030767575
2019-12-10T02:55:00	0.2182	4.416		0.528609972	0.637822349	0.009643069	0.099485766	0.030662479
2019-12-10T03:00:00	0.2180	4.409		0.527962290	0.636911696	0.009621434	0.099262560	0.030593685
2019-12-10T03:05:00	0.2175	4.402		0.526292236	0.634565142	0.009565760	0.098688186	0.030416657
2019-12-10T03:10:00	0.2178	4.397		0.527348019	0.636048335	0.009600937	0.099051102	0.030528512
2019-12-10T03:15:00	0.2172	4.391		0.524995878	0.632745222	0.009522656	0.098243490	0.030279598
2019-12-10T03:20:00	0.2179	4.385		0.527415085	0.636142581	0.009603174	0.099074178	0.030535624
2019-12-10T03:25:00	0.2176	4.376		0.526426408	0.634753580	0.009570227	0.098734269	0.030430861
2019-12-10T03:30:00	0.2176	4.370		0.526459950	0.634800690	0.009571344	0.098745791	0.030434412
2019-12-10T03:35:00	0.2175	4.361		0.526152694	0.634369178	0.009561116	0.098640270	0.030401889
2019-12-10T03:40:00	0.2169	4.356		0.524140766	0.631545502	0.009494277	0.097950709	0.030189360
2019-12-10T03:45:00	0.2178	4.348		0.527242054	0.635899431	0.009597404	0.099014647	0.030517276
2019-12-10T03:50:00	0.2174	4.338		0.525912506	0.634031909	0.009553124	0.098557821	0.030376478
2019-12-10T03:55:00	0.2172	4.330		0.525264316	0.633121963	0.009531574	0.098335491	0.030307953
2019-12-10T04:00:00	0.2168	4.324		0.523934004	0.631255505	0.009487422	0.097879982	0.030167561
2019-12-10T04:05:00	0.2176	4.318		0.526682539	0.635113344	0.009578757	0.098822271	0.030457984
2019-12-10T04:10:00	0.2168	4.314		0.523635678	0.630837144	0.009477535	0.097777979	0.030136123
2019-12-10T04:15:00	0.2170	4.307		0.524339096	0.631823705	0.009500856	0.098018576	0.030210277
2019-12-10T04:20:00	0.2168	4.300		0.523678403	0.630897055	0.009478950	0.097792584	0.030140624
2019-12-10T04:25:00	0.2165	4.293		0.522676441	0.629492436	0.009445779	0.097450359	0.030035147
2019-12-10T04:30:00	0.2168	4.286		0.523721127	0.630956966	0.009480366	0.097807190	0.030145126
2019-12-10T04:35:00	0.2162	4.280		0.521695562	0.628118162	0.009413362	0.097115919	0.029932069
2019-12-10T04:40:00	0.2154	4.273		0.518985820	0.624325696	0.009324098	0.096195004	0.029648234
2019-12-10T04:45:00	0.2159	4.261		0.520714403	0.626744276	0.009380992	0.096781960	0.029829140
2019-12-10T04:50:00	0.2168	4.251		0.523806573	0.631076791	0.009483198	0.097836404	0.030154130
2019-12-10T04:55:00	0.2171	4.247		0.524850915	0.632541798	0.009517842	0.098193826	0.030264291
2019-12-10T05:00:00	0.2179	4.243		0.527598718	0.636400657	0.009609300	0.099137376	0.030555102
2019-12-10T05:05:00	0.2186	4.234		0.530003914	0.639783416	0.009689715	0.099967004	0.030810801
2019-12-10T05:10:00	0.2190	4.225		0.531386694	0.641730341	0.009736099	0.100445543	0.030958292
2019-12-10T05:15:00	0.2205	4.218		0.536508661	0.648955539	0.009908884	0.102228129	0.031507702
2019-12-10T05:20:00	0.2211	4.210		0.538568085	0.651866655	0.009978788	0.102949321	0.031729981
2019-12-10T05:25:00	0.2205	4.204		0.536551226	0.649015672	0.009910326	0.102243009	0.031512288
2019-12-10T05:30:00	0.2201	4.195		0.534873159	0.646646128	0.009853545	0.101657212	0.031331740
2019-12-10T05:35:00	0.2206	4.188		0.536593791	0.649075806	0.009911769	0.102257890	0.031516875
2019-12-10T05:40:00	0.2214	4.177		0.539332261	0.652947744	0.010004791	0.103217580	0.031812660
2019-12-10T05:45:00	0.2226	4.165		0.543425288	0.658746317	0.010144642	0.104660404	0.032257353
2019-12-10T05:50:00	0.2222	4.158		0.542089815	0.656852852	0.010098904	0.104188528	0.032111916
2019-12-10T05:55:00	0.2223	4.149		0.542450289	0.657363798	0.010111239	0.104315792	0.032151140
2019-12-10T06:00:00	0.2230	4.142		0.544845174	0.660761065	0.010193387	0.105163289	0.032412347
2019-12-10T06:05:00	0.2225	4.136		0.543171126	0.658385848	0.010135929	0.104570516	0.032229648
2019-12-10T06:10:00	0.2223	4.129		0.542514027	0.657454153	0.010113421	0.104338302	0.032158078
2019-12-10T06:15:00	0.2231	4.126		0.545247820	0.661332701	0.010207231	0.105306118	0.032456368
2019-12-10T06:20:00	0.2229	4.117		0.544591116	0.660400448	0.010184656	0.105073219	0.032384587
2019-12-10T06:25:00	0.2236	4.100		0.546984522	0.663799812	0.010267053	0.105923290	0.032646587
2019-12-10T06:30:00	0.2238	4.083		0.547683203	0.664793034	0.010291169	0.106172095	0.032723271
2019-12-10T06:35:00	0.2239	4.077		0.548043096	0.665304804	0.010303603	0.106300371	0.032762807
2019-12-10T06:40:00	0.2245	4.072		0.550095678	0.668225613	0.010374661	0.107033465	0.032988753
2019-12-10T06:45:00	0.2241	4.069		0.548762771	0.666328503	0.010328489	0.106557117	0.032841938
2019-12-10T06:50:00	0.2239	4.066		0.547768058	0.664913690	0.010294100	0.106202333	0.032732590
2019-12-10T06:55:00	0.2248	4.062		0.550836122	0.669280108	0.010400355	0.107298546	0.033070454
2019-12-10T07:00:00	0.2241	4.063		0.548487790	0.665937308	0.010318977	0.106458980	0.032811692
2019-12-10T07:05:00	0.2241	4.063		0.548508999	0.665967478	0.010319710	0.106466548	0.032814024
2019-12-10T07:10:00	0.2249	4.064		0.551238074	0.669852732	0.010414317	0.107442585	0.033114848
2019-12-10T07:15:00	0.2251	4.067		0.551935899	0.670847173	0.010438578	0.107692882	0.033191992
2019-12-10T07:20:00	0.2257	4.069		0.553986182	0.673771260	0.010510025	0.108429990	0.033419176
2019-12-10T07:25:00	0.2253	4.067		0.552654768	0.671872021	0.010463600	0.107951036	0.033271558
2019-12-10T07:30:00	0.2257	4.064		0.554028534	0.673831697	0.010511503	0.108445242	0.033423877
2019-12-10T07:35:00	0.2254	4.064		0.553035328	0.672414735	0.010476859	0.108087826	0.033313718
2019-12-10T07:40:00	0.2260	4.065		0.555084963	0.675339748	0.010548416	0.108826067	0.033541251
2019-12-10T07:45:00	0.2260	4.062		0.555106132	0.675369976	0.010549157	0.108833705	0.033543605
2019-12-10T07:50:00	0.2252	4.051		0.552422466	0.671540796	0.010455511	0.107867580	0.033245836
2019-12-10T07:55:00	0.2261	4.049		0.555486424	0.675913074	0.010562461	0.108970964	0.033585909
2019-12-10T08:00:00	0.2269	4.048		0.558210030	0.679806147	0.010657994	0.109956563	0.033889681
2019-12-10T08:05:00	0.2270	4.043		0.558568836	0.680319471	0.010670612	0.110086741	0.033929803
2019-12-10T08:10:00	0.2265	4.044		0.556563572	0.677451999	0.010600191	0.109360216	0.033705881
2019-12-10T08:15:00	0.2273	4.055		0.559286336	0.681346281	0.010695867	0.110347291	0.034010107
2019-12-10T08:20:00	0.2261	4.060		0.555254311	0.675581578	0.010554340	0.108887177	0.033560085
2019-12-10T08:25:00	0.2270	4.060		0.558315779	0.679957425	0.010661712	0.109994921	0.033901503
2019-12-10T08:30:00	0.2264	4.057		0.556310369	0.677090162	0.010591316	0.109268652	0.033677660
2019-12-10T08:35:00	0.2272	4.063		0.559033331	0.680984159	0.010686958	0.110255380	0.033981779
2019-12-10T08:40:00	0.2272	4.064		0.559054476	0.681014421	0.010687703	0.110263060	0.033984146
2019-12-10T08:45:00	0.2273	4.066		0.559413194	0.681527871	0.010700336	0.110393390	0.034024315
2019-12-10T08:50:00	0.2273	4.071		0.559434337	0.681558137	0.010701080	0.110401074	0.034026683
2019-12-10T08:55:00	0.2289	4.072		0.564852152	0.689325888	0.010892806	0.112379068	0.034636320
2019-12-10T09:00:00	0.2288	4.069		0.564536217	0.688872253	0.010881578	0.112263233	0.034600619
2019-12-10T09:05:00	0.2287	4.061		0.564220252	0.688418659	0.010870355	0.112147447	0.034564932
2019-12-10T09:10:00	0.2287	4.070		0.564241366	0.688448967	0.010871105	0.112155182	0.034567316
2019-12-10T09:15:00	0.2293	4.082		0.566284423	0.691383441	0.010943780	0.112904962	0.034798406
2019-12-10T09:20:00	0.2285	4.096		0.563609355	0.687541898	0.010848673	0.111923756	0.034495989
2019-12-10T09:25:00	0.2294	4.110		0.566663498	0.691928291	0.010957292	0.113044358	0.034841369
2019-12-10T09:30:00	0.2288	4.106		0.564325819	0.688570200	0.010874104	0.112186125	0.034576853
2019-12-10T09:35:00	0.2286	4.101		0.563672706	0.687632805	0.010850920	0.111946943	0.034503135
2019-12-10T09:40:00	0.2289	4.096		0.564705106	0.689114742	0.010887579	0.112325147	0.034619701
2019-12-10T09:45:00	0.2280	4.096		0.561691506	0.684791396	0.010780747	0.111222976	0.034280001
2019-12-10T09:50:00	0.2272	4.103		0.559012912	0.680954936	0.010686240	0.110247964	0.033979493
2019-12-10T09:55:00	0.2279	4.113		0.561396415	0.684368457	0.010770314	0.111115348	0.034246830
2019-12-10T10:00:00	0.2282	4.127		0.562429488	0.685849421	0.010806859	0.111492369	0.034363031
2019-12-10T10:05:00	0.2281	4.136		0.562238484	0.685575541	0.010800097	0.111422613	0.034341532
2019-12-10T10:10:00	0.2285	4.136		0.563396419	0.687236363	0.010841120	0.111845839	0.034471974
2019-12-10T10:15:00	0.2282	4.150		0.562531022	0.685995022	0.010810454	0.111529459	0.034374462
2019-12-10T10:20:00	0.2288	4.159		0.564363081	0.688623692	0.010875427	0.112199779	0.034581062
2019-12-10T10:25:00	0.2295	4.171		0.566867918	0.692222156	0.010964581	0.113119565	0.034864549
2019-12-10T10:30:00	0.2292	4.175		0.565666445	0.690495466	0.010921771	0.112677903	0.034728424
2019-12-10T10:35:00	0.2289	4.182		0.564801611	0.689253312	0.010891009	0.112360533	0.034630608
2019-12-10T10:40:00	0.2274	4.189		0.559888778	0.682208759	0.010717096	0.110566300	0.034077608
2019-12-10T10:45:00	0.2284	4.198		0.563071299	0.686769934	0.010829594	0.111726925	0.034435323
2019-12-10T10:50:00	0.2283	4.196		0.562880331	0.686496003	0.010822827	0.111657108	0.034413805
2019-12-10T10:55:00	0.2273	4.186		0.559315317	0.681387765	0.010696888	0.110357821	0.034013352
2019-12-10T11:00:00	0.2273	4.181		0.559461711	0.681597324	0.010702045	0.110411023	0.034029750
2019-12-10T11:05:00	0.2273	4.178		0.559270545	0.681323678	0.010695311	0.110341553	0.034008338
2019-12-10T11:10:00	0.2271	4.176		0.558741762	0.680566906	0.010676696	0.110149508	0.033949148
2019-12-10T11:15:00	0.2271	4.169		0.558888180	0.680776431	0.010681849	0.110202668	0.033965532
2019-12-10T11:20:00	0.2271	4.165		0.558696982	0.680502830	0.010675121	0.110133252	0.033944138
2019-12-10T11:25:00	0.2281	4.159		0.562217894	0.685546018	0.010799369	0.111415095	0.034339214
2019-12-10T11:30:00	0.2277	4.155		0.560677400	0.683338230	0.010744917	0.110853327	0.034166072
2019-12-10T11:35:00	0.2288	4.146		0.564533391	0.688868197	0.010881477	0.112262197	0.034600299
2019-12-10T11:40:00	0.2284	4.140		0.562993920	0.686658935	0.010826852	0.111698633	0.034426603
2019-12-10T11:45:00	0.2285	4.138		0.563477340	0.687352471	0.010843990	0.111875446	0.034481099
2019-12-10T11:50:00	0.2278	4.134		0.561262712	0.684176851	0.010765589	0.111066601	0.034231805
2019-12-10T11:55:00	0.2293	4.130		0.566128928	0.691159980	0.010938240	0.112847808	0.034780790
2019-12-10T12:00:00	0.2297	4.129		0.567622353	0.693306997	0.010991506	0.113397346	0.034950163
2019-12-10T12:05:00	0.2293	4.131		0.566084243	0.691095767	0.010936648	0.112831386	0.034775729
2019-12-10T12:10:00	0.2302	4.128		0.569261125	0.695665091	0.011050108	0.114001931	0.035136502
2019-12-10T12:15:00	0.2292	4.127		0.565702625	0.690547444	0.010923059	0.112691190	0.034732519
2019-12-10T12:20:00	0.2289	4.125		0.564837799	0.689305277	0.010892295	0.112373804	0.034634698
2019-12-10T12:25:00	0.2297	4.120		0.567679071	0.693388574	0.010993532	0.113418243	0.034956604
2019-12-10T12:30:00	0.2297	4.112		0.567488354	0.693114279	0.010986722	0.113347982	0.034934949
2019-12-10T12:35:00	0.2296	4.102		0.567297627	0.692839999	0.010979913	0.113277740	0.034913300
2019-12-10T12:40:00	0.2302	4.093		0.569127189	0.695472282	0.011045313	0.113952457	0.035121254
2019-12-10T12:45:00	0.2301	4.087		0.568936551	0.695197873	0.011038489	0.113882057	0.035099556
2019-12-10T12:50:00	0.2309	4.097		0.571438114	0.698801082	0.011128202	0.114807612	0.035384821
2019-12-10T12:55:00	0.2304	4.116		0.569901682	0.696587418	0.011073058	0.114238694	0.035209475
2019-12-10T13:00:00	0.2305	4.127		0.570047633	0.696797618	0.011078290	0.114292676	0.035226113
2019-12-10T13:05:00	0.2305	4.123		0.570193578	0.697007827	0.011083523	0.114346668	0.035242754
2019-12-10T13:10:00	0.2320	4.122		0.575383422	0.704494360	0.011270445	0.116275102	0.035837116
2019-12-10T13:15:00	0.2324	4.132		0.576537013	0.706161486	0.011312210	0.116705987	0.035969919
2019-12-10T13:20:00	0.2336	4.148		0.580711100	0.712202940	0.011463991	0.118271878	0.036452541
2019-12-10T13:25:00	0.2332	4.170		0.579178728	0.709983350	0.011408150	0.117695776	0.036274981
2019-12-10T13:30:00	0.2333	4.181		0.579659919	0.710680128	0.011425670	0.117876527	0.036330690
2019-12-10T13:35:00	0.2341	4.190		0.582153844	0.714294488	0.011516693	0.118815598	0.036620121
2019-12-10T13:40:00	0.2336	4.191		0.580622101	0.712073975	0.011460744	0.118238379	0.036442217
2019-12-10T13:45:00	0.2342	4.188		0.582780049	0.715202837	0.011539606	0.119051990	0.036692979
2019-12-10T13:50:00	0.2349	4.180		0.584936673	0.718333646	0.011618697	0.119867953	0.036944467
2019-12-10T13:55:00	0.2356	4.170		0.587426859	0.721953506	0.011710364	0.120813669	0.037235946
2019-12-10T14:00:00	0.2355	4.161		0.586902310	0.721190567	0.011691024	0.120614141	0.037174450
2019-12-10T14:05:00	0.2349	4.149		0.585037556	0.718480195	0.011622403	0.119906192	0.036956253
2019-12-10T14:10:00	0.2353	4.135		0.586187981	0.720151966	0.011664713	0.120342696	0.037090788
2019-12-10T14:15:00	0.2346	4.125		0.583987668	0.716955482	0.011583860	0.119508543	0.036833694
2019-12-10T14:20:00	0.2348	4.116		0.584803334	0.718139964	0.011613799	0.119817421	0.036928893
2019-12-10T14:25:00	0.2347	4.108		0.584278394	0.717377601	0.011594526	0.119618589	0.036867611
2019-12-10T14:30:00	0.2343	4.100		0.583082875	0.715642223	0.011550695	0.119166393	0.036728240
2019-12-10T14:35:00	0.2343	4.099		0.582892995	0.715366707	0.011543741	0.119094652	0.036706128
2019-12-10T14:40:00	0.2346	4.103		0.584044122	0.717037445	0.011585930	0.119529908	0.036840279
2019-12-10T14:45:00	0.2357	4.104		0.587539656	0.722117595	0.011714525	0.120856597	0.037249177
2019-12-10T14:50:00	0.2354	4.104		0.586680200	0.720867584	0.011682840	0.120529706	0.037148426
2019-12-10T14:55:00	0.2352	4.097		0.585820535	0.719617883	0.011651191	0.120203188	0.037047790
2019-12-10T15:00:00	0.2359	4.087		0.588310097	0.723238665	0.011742966	0.121150018	0.037339612
2019-12-10T15:05:00	0.2359	4.078		0.588455284	0.723449983	0.011748330	0.121205353	0.037356667
2019-12-10T15:10:00	0.2364	4.067		0.589939239	0.725610859	0.011803223	0.121771673	0.037531212
2019-12-10T15:15:00	0.2358	4.056		0.588076092	0.722898113	0.011734324	0.121060859	0.037312133
2019-12-10T15:20:00	0.2352	4.049		0.585876960	0.719699889	0.011653267	0.120224605	0.037054391
2019-12-10T15:25:00	0.2345	4.045		0.583676452	0.716503692	0.011572447	0.119390799	0.036797404
2019-12-10T15:30:00	0.2343	4.041		0.582816052	0.715255072	0.011540924	0.119065588	0.036697171
2019-12-10T15:35:00	0.2344	4.036		0.583296745	0.715952582	0.011558530	0.119247223	0.036753152
2019-12-10T15:40:00	0.2338	4.030		0.581430077	0.713245025	0.011490239	0.118542676	0.036536004
2019-12-10T15:45:00	0.2337	4.025		0.580904633	0.712483404	0.011471053	0.118344740	0.036474998
2019-12-10T15:50:00	0.2342	4.020		0.582727107	0.715126029	0.011537668	0.119031995	0.036686817
2019-12-10T15:55:00	0.2349	4.011		0.584883763	0.718256790	0.011616753	0.119847900	0.036938287
2019-12-10T16:00:00	0.2353	4.003		0.586369223	0.720415443	0.011671386	0.120411538	0.037112005
2019-12-10T16:05:00	0.2356	3.989		0.587409412	0.721928126	0.011709721	0.120807030	0.037233900
2019-12-10T16:10:00	0.2349	3.969		0.585099989	0.718570894	0.011624697	0.119929860	0.036963548
2019-12-10T16:15:00	0.2354	3.947		0.586810471	0.721057013	0.011687640	0.120579225	0.037163688
2019-12-10T16:20:00	0.2361	3.923		0.588854871	0.724031664	0.011763098	0.121357714	0.037403626
2019-12-10T16:25:00	0.2373	3.901		0.592904745	0.729934610	0.011913313	0.122907453	0.037881271
2019-12-10T16:30:00	0.2371	3.882		0.592271361	0.729010512	0.011889755	0.122664415	0.037806364
2019-12-10T16:35:00	0.2375	3.860		0.593644104	0.731013749	0.011940842	0.123191468	0.037968807
2019-12-10T16:40:00	0.2384	3.839		0.596686659	0.735459342	0.012054472	0.124363766	0.038330121
2019-12-10T16:45:00	0.2375	3.815		0.593714828	0.731116999	0.011943477	0.123218653	0.037977186
2019-12-10T16:50:00	0.2376	3.791		0.594084442	0.731656666	0.011957253	0.123360778	0.038020990
2019-12-10T16:55:00	0.2379	3.766		0.595122357	0.733172716	0.011995981	0.123760328	0.038144135
2019-12-10T17:00:00	0.2379	3.742		0.595157705	0.733224363	0.011997301	0.123773947	0.038148332
2019-12-10T17:05:00	0.2394	3.717		0.599867800	0.740115698	0.012173869	0.125595562	0.038709772
2019-12-10T17:10:00	0.2399	3.690		0.601571140	0.742612420	0.012238049	0.126257693	0.038913847
2019-12-10T17:15:00	0.2400	3.664		0.601939933	0.743153310	0.012251967	0.126401288	0.038958105
2019-12-10T17:20:00	0.2396	3.639		0.600640996	0.741248733	0.012202981	0.125895901	0.038802339
2019-12-10T17:25:00	0.2400	3.615		0.602010492	0.743256807	0.012254631	0.126428770	0.038966575
2019-12-10T17:30:00	0.2405	3.587		0.603712801	0.745755071	0.012318990	0.127092752	0.039171220
2019-12-10T17:35:00	0.2407	3.562		0.604414649	0.746785790	0.012345576	0.127367027	0.039255755
2019-12-10T17:40:00	0.2407	3.539		0.604449903	0.746837576	0.012346912	0.127380812	0.039260003
2019-12-10T17:45:00	0.2405	3.516		0.603818585	0.745910397	0.012322995	0.127134072	0.039183956
2019-12-10T17:50:00	0.2407	3.494		0.604520412	0.746941148	0.012349584	0.127408385	0.039268502
2019-12-10T17:55:00	0.2405	3.473		0.603555780	0.745524529	0.012313047	0.127031431	0.039152321
2019-12-10T18:00:00	0.2409	3.454		0.604924148	0.747534290	0.012364893	0.127566325	0.039317180
2019-12-10T18:05:00	0.2409	3.432		0.604959398	0.747586083	0.012366230	0.127580120	0.039321432
2019-12-10T18:10:00	0.2419	3.412		0.608325153	0.752536240	0.012494242	0.128900790	0.039728475
2019-12-10T18:15:00	0.2424	3.392		0.610024434	0.755039053	0.012559130	0.129570225	0.039934802
2019-12-10T18:20:00	0.2424	3.371		0.610059633	0.755090922	0.012560476	0.129584111	0.039939082
2019-12-10T18:25:00	0.2420	3.350		0.608763669	0.753181882	0.012510970	0.129073373	0.039781667
2019-12-10T18:30:00	0.2434	3.329		0.613455723	0.760100276	0.012690684	0.130927442	0.040353109
2019-12-10T18:35:00	0.2439	3.310		0.615152551	0.762606792	0.012756001	0.131601306	0.040560801
2019-12-10T18:40:00	0.2449	3.293		0.618176711	0.767080016	0.012872841	0.132806727	0.040932323
2019-12-10T18:45:00	0.2445	3.273		0.616883703	0.765166505	0.012822817	0.132290643	0.040773261
2019-12-10T18:50:00	0.2468	3.252		0.624548735	0.776530504	0.013120832	0.135365208	0.041720872
2019-12-10T18:55:00	0.2465	3.231		0.623589521	0.775105684	0.013083344	0.134978451	0.041601669
2019-12-10T19:00:00	0.2463	3.209		0.622961593	0.774173376	0.013058834	0.134725579	0.041523732
2019-12-10T19:05:00	0.2472	3.187		0.625979137	0.778656674	0.013176839	0.135943014	0.041898957
2019-12-10T19:10:00	0.2465	3.167		0.623694716	0.775261902	0.013087453	0.135020838	0.041614733
2019-12-10T19:15:00	0.2467	3.148		0.624392631	0.776298574	0.013114728	0.135302227	0.041701461
2019-12-10T19:20:00	0.2464	3.130		0.623433376	0.774873817	0.013077247	0.134915547	0.041582282
2019-12-10T19:25:00	0.2465	3.113		0.623799908	0.775418126	0.013091562	0.135063230	0.041627799
2019-12-10T19:30:00	0.2468	3.094		0.624497802	0.776454829	0.013118840	0.135344657	0.041714538
2019-12-10T19:35:00	0.2473	3.074		0.626189383	0.778969331	0.013185081	0.136028050	0.041925166
2019-12-10T19:40:00	0.2466	3.053		0.623905096	0.775574354	0.013095671	0.135105628	0.041640867
2019-12-10T19:45:00	0.2467	3.030		0.624271579	0.776118736	0.013109995	0.135253399	0.041686411
2019-12-10T19:50:00	0.2460	3.012		0.621986065	0.772725635	0.013020802	0.134333213	0.041402801
2019-12-10T19:55:00	0.2463	2.992		0.623015852	0.774253923	0.013060951	0.134747420	0.041530463
2019-12-10T20:00:00	0.2474	2.976		0.626695774	0.779722542	0.013204944	0.136232977	0.041988327
2019-12-10T20:05:00	0.2472	2.961		0.626068392	0.778789400	0.013180337	0.135979111	0.041910082
2019-12-10T20:10:00	0.2473	2.943		0.626434653	0.779334122	0.013194700	0.136127286	0.041955752
2019-12-10T20:15:00	0.2466	2.922		0.623819091	0.775446617	0.013092311	0.135070962	0.041630182
2019-12-10T20:20:00	0.2460	2.902		0.621864931	0.772545922	0.013016083	0.134284533	0.041387797
2019-12-10T20:25:00	0.2457	2.882		0.620904996	0.771122203	0.012978723	0.133899089	0.041269000
2019-12-10T20:30:00	0.2458	2.861		0.621271787	0.771666115	0.012992992	0.134046300	0.041314371
2019-12-10T20:35:00	0.2459	2.843		0.621638541	0.772210084	0.013007267	0.134193579	0.041359764
2019-12-10T20:40:00	0.2455	2.825		0.620346790	0.770294663	0.012957023	0.133675216	0.041200000
2019-12-10T20:45:00	0.2455	2.809		0.620381887	0.770346686	0.012958387	0.133689286	0.041204336
2019-12-10T20:50:00	0.2452	2.793		0.619421552	0.768923576	0.012921096	0.133304568	0.041085762
2019-12-10T20:55:00	0.2449	2.776		0.618460958	0.767500859	0.012883851	0.132920319	0.040967333
2019-12-10T21:00:00	0.2454	2.759		0.620155403	0.770010992	0.012949587	0.133598503	0.041176356
2019-12-10T21:05:00	0.2443	2.743		0.616206851	0.764165398	0.012796672	0.132020902	0.040690124
2019-12-10T21:10:00	0.2451	2.729		0.618898225	0.768148391	0.012900798	0.133095160	0.041021221
2019-12-10T21:15:00	0.2455	2.713		0.620260699	0.770167056	0.012953678	0.133640705	0.041189363
2019-12-10T21:20:00	0.2467	2.695		0.624274883	0.776123643	0.013110124	0.135254732	0.041686822
2019-12-10T21:25:00	0.2462	2.678		0.622652544	0.773714643	0.013046779	0.134601213	0.041485401
2019-12-10T21:30:00	0.2463	2.663		0.623019156	0.774258829	0.013061080	0.134748750	0.041530873
2019-12-10T21:35:00	0.2462	2.649		0.622722693	0.773818760	0.013049515	0.134629436	0.041494100
2019-12-10T21:40:00	0.2469	2.636		0.625077838	0.777316769	0.013141534	0.135578789	0.041786699
2019-12-10T21:45:00	0.2467	2.623		0.624450172	0.776384062	0.013116978	0.135325441	0.041708615
2019-12-10T21:50:00	0.2472	2.609		0.625810527	0.778405959	0.013170230	0.135874838	0.041877945
2019-12-10T21:55:00	0.2472	2.598		0.625845570	0.778458065	0.013171604	0.135889006	0.041882311
2019-12-10T22:00:00	0.2471	2.586		0.625549341	0.778017637	0.013159997	0.135769266	0.041845406
2019-12-10T22:05:00	0.2480	2.574		0.628456163	0.782342648	0.013274117	0.136946618	0.042208278
2019-12-10T22:10:00	0.2489	2.559		0.631691357	0.787164640	0.013401729	0.138263171	0.042614052
2019-12-10T22:15:00	0.2487	2.547		0.630956389	0.786068406	0.013372683	0.137963504	0.042521692
2019-12-10T22:20:00	0.2494	2.534		0.633197723	0.789412871	0.013461364	0.138878413	0.042803676
2019-12-10T22:25:00	0.2493	2.521		0.632793696	0.788809677	0.013445356	0.138713258	0.042752773
2019-12-10T22:30:00	0.2492	2.505		0.632720262	0.788700058	0.013442447	0.138683251	0.042743525
2019-12-10T22:35:00	0.2489	2.490		0.631654798	0.787110099	0.013400284	0.138248256	0.042609455
2019-12-10T22:40:00	0.2495	2.475		0.633565164	0.789961564	0.013475932	0.139028701	0.042849996
2019-12-10T22:45:00	0.2500	2.461		0.635144128	0.792320701	0.013538623	0.139675480	0.043049340
2019-12-10T22:50:00	0.2492	2.447		0.632426512	0.788261608	0.013430816	0.138563251	0.042706540
2019-12-10T22:55:00	0.2493	2.434		0.633014325	0.789139049	0.013454096	0.138803432	0.042780566
2019-12-10T23:00:00	0.2496	2.421		0.633932568	0.790510315	0.013490506	0.139179059	0.042896338
2019-12-10T23:05:00	0.2504	2.411		0.636502332	0.794351691	0.013592671	0.140233079	0.043221197
2019-12-10T23:10:00	0.2490	2.401		0.631802045	0.787329774	0.013406107	0.138308330	0.042627971
2019-12-10T23:15:00	0.2491	2.390		0.632389960	0.788207056	0.013429369	0.138548323	0.042701939
2019-12-10T23:20:00	0.2494	2.379		0.633308364	0.789578076	0.013465750	0.138923658	0.042817620
2019-12-10T23:25:00	0.2497	2.366		0.634226532	0.790949459	0.013502172	0.139299423	0.042933435
2019-12-10T23:30:00	0.2493	2.351		0.632830917	0.788865241	0.013446830	0.138728469	0.042757461
2019-12-10T23:35:00	0.2501	2.335		0.635401471	0.792705399	0.013548855	0.139781041	0.043081875
2019-12-10T23:40:00	0.2492	2.323		0.632684050	0.788646005	0.013441013	0.138668455	0.042738965
2019-12-10T23:45:00	0.2495	2.312		0.633602378	0.790017141	0.013477407	0.139043927	0.042854689
2019-12-10T23:50:00	0.2492	2.301		0.632537177	0.788426777	0.013435197	0.138608453	0.042720471
2019-12-10T23:55:00	0.2496	2.292		0.633786083	0.790291512	0.013484694	0.139119101	0.042877858
2019-12-11T00:00:00	0.2492	2.278		0.632720936	0.788701065	0.013442474	0.138683526	0.042743610
2019-12-11T00:05:00	0.2479	2.264		0.628346722	0.782179683	0.013269811	0.136902195	0.042194586
2019-12-11T00:10:00	0.2468	2.250		0.624629956	0.776651186	0.013124009	0.135397983	0.041730973
2019-12-11T00:15:00	0.2461	2.237		0.622235943	0.773096393	0.013030538	0.134433660	0.041433760
2019-12-11T00:20:00	0.2459	2.227		0.621499027	0.772003143	0.013001836	0.134137544	0.041342494
2019-12-11T00:25:00	0.2460	2.217		0.622088640	0.772877825	0.013024798	0.134374442	0.041415508
2019-12-11T00:30:00	0.2465	2.207		0.623672679	0.775229175	0.013086592	0.135011957	0.041611996
2019-12-11T00:35:00	0.2462	2.200		0.622604514	0.773643356	0.013044906	0.134581890	0.041479445
2019-12-11T00:40:00	0.2470	2.186		0.625182426	0.777472218	0.013145629	0.135621028	0.041799718
2019-12-11T00:45:00	0.2480	2.175		0.628751589	0.782782607	0.013285744	0.137066569	0.042245248
2019-12-11T00:50:00	0.2480	2.167		0.628678072	0.782673116	0.013282850	0.137036714	0.042236046
2019-12-11T00:55:00	0.2478	2.156		0.627942484	0.781577834	0.013253913	0.136738179	0.042144035
2019-12-11T01:00:00	0.2486	2.146		0.630516549	0.785412588	0.013355316	0.137784330	0.042466469
2019-12-11T01:05:00	0.2479	2.136		0.628126479	0.781851758	0.013261148	0.136812821	0.042167040
2019-12-11T01:10:00	0.2481	2.128		0.629045978	0.783221095	0.013297335	0.137186154	0.042282105
2019-12-11T01:15:00	0.2477	2.117		0.627648341	0.781139987	0.013242351	0.136618896	0.042107271
2019-12-11T01:20:00	0.2470	2.107		0.625256353	0.777582101	0.013148523	0.135650888	0.041808921
2019-12-11T01:25:00	0.2474	2.097		0.626507804	0.779442928	0.013197569	0.136156890	0.041964876
2019-12-11T01:30:00	0.2446	2.087		0.617480473	0.766049485	0.012845893	0.132528706	0.040846634
2019-12-11T01:35:00	0.2437	2.079		0.614417066	0.761520053	0.012727668	0.131309003	0.040470710
2019-12-11T01:40:00	0.2430	2.072		0.612016177	0.757975711	0.012635406	0.130357154	0.040177341
2019-12-11T01:45:00	0.2429	2.066		0.611609743	0.757376188	0.012619822	0.130196374	0.040127787
2019-12-11T01:50:00	0.2447	2.060		0.617517517	0.766104304	0.012847326	0.132543490	0.040851191
2019-12-11T01:55:00	0.2434	2.049		0.613457040	0.760102222	0.012690734	0.130927965	0.040353270
2019-12-11T02:00:00	0.2450	2.036		0.618697963	0.767851811	0.012893036	0.133015071	0.040996537
2019-12-11T02:05:00	0.2439	2.025		0.614971122	0.762338673	0.012749008	0.131529170	0.040538567
2019-12-11T02:10:00	0.2440	2.013		0.615229584	0.762720640	0.012758970	0.131631941	0.040570243
2019-12-11T02:15:00	0.2446	2.004		0.617480812	0.766049986	0.012845906	0.132528841	0.040846676
2019-12-11T02:20:00	0.2441	1.996		0.615746452	0.763484660	0.012778903	0.131837585	0.040633624
2019-12-11T02:25:00	0.2439	1.990		0.615008191	0.762393452	0.012750437	0.131543907	0.040543110
2019-12-11T02:30:00	0.2439	1.986		0.614934391	0.762284394	0.012747593	0.131514568	0.040534067
2019-12-11T02:35:00	0.2444	1.984		0.616521613	0.764630903	0.012808827	0.132146306	0.040728775
2019-12-11T02:40:00	0.2434	1.981		0.613457379	0.760102722	0.012690747	0.130928099	0.040353312
2019-12-11T02:45:00	0.2431	1.980		0.612386145	0.758521566	0.012649601	0.130503597	0.040222476
2019-12-11T02:50:00	0.2425	1.978		0.610316606	0.755469628	0.012570304	0.129685507	0.039970333
2019-12-11T02:55:00	0.2425	1.977		0.610242708	0.755360717	0.012567477	0.129656344	0.039961345
2019-12-11T03:00:00	0.2427	1.974		0.611166832	0.756723016	0.012602850	0.130021281	0.040073822
2019-12-11T03:05:00	0.2425	1.970		0.610427619	0.755633248	0.012574551	0.129729324	0.039983838
2019-12-11T03:10:00	0.2421	1.968		0.609022658	0.753563278	0.012520855	0.129175358	0.039813100
2019-12-11T03:15:00	0.2419	1.964		0.608282999	0.752474183	0.012492634	0.128884206	0.039723364
2019-12-11T03:20:00	0.2418	1.960		0.607876138	0.751875305	0.012477125	0.128724199	0.039674048
2019-12-11T03:25:00	0.2411	1.956		0.605803966	0.748827332	0.012398288	0.127910857	0.039423368
2019-12-11T03:30:00	0.2410	1.954		0.605396821	0.748228882	0.012382829	0.127751362	0.039374210
2019-12-11T03:35:00	0.2416	1.953		0.607321314	0.751058857	0.012455991	0.128506166	0.039606848
2019-12-11T03:40:00	0.2414	1.950		0.606581300	0.749970296	0.012427832	0.128215654	0.039517310
2019-12-11T03:45:00	0.2413	1.948		0.606507324	0.749861503	0.012425019	0.128186632	0.039508365
2019-12-11T03:50:00	0.2418	1.947		0.608098315	0.752202320	0.012485593	0.128811562	0.039700974
2019-12-11T03:55:00	0.2418	1.946		0.608024371	0.752093479	0.012482774	0.128782483	0.039692012
2019-12-11T04:00:00	0.2417	1.943		0.607617480	0.751494646	0.012467270	0.128622528	0.039642712
2019-12-11T04:05:00	0.2413	1.946		0.606270485	0.749513224	0.012416015	0.128093737	0.039479734
2019-12-11T04:10:00	0.2409	1.944		0.604922978	0.747532571	0.012364849	0.127565868	0.039317039
2019-12-11T04:15:00	0.2409	1.946		0.604908071	0.747510668	0.012364284	0.127560034	0.039315241
2019-12-11T04:20:00	0.2407	1.946		0.604226667	0.746509684	0.012338452	0.127293536	0.039233104
2019-12-11T04:25:00	0.2400	1.947		0.601878023	0.743062502	0.012249630	0.126377176	0.038950673
2019-12-11T04:30:00	0.2397	1.950		0.600862456	0.741573350	0.012211325	0.125981992	0.038828874
2019-12-11T04:35:00	0.2393	1.950		0.599846597	0.740084635	0.012173071	0.125587332	0.038707235
2019-12-11T04:40:00	0.2401	1.949		0.602500208	0.743975253	0.012273128	0.126619600	0.039025390
2019-12-11T04:45:00	0.2405	1.950		0.603818812	0.745910730	0.012323004	0.127134160	0.039183983
2019-12-11T04:50:00	0.2404	1.950		0.603470565	0.745399423	0.012309821	0.126998159	0.039142066
2019-12-11T04:55:00	0.2404	1.950		0.603455651	0.745377529	0.012309257	0.126992336	0.039140271
2019-12-11T05:00:00	0.2404	1.949		0.603440737	0.745355634	0.012308693	0.126986514	0.039138477
2019-12-11T05:05:00	0.2403	1.944		0.603092453	0.744844383	0.012295517	0.126850579	0.039096581
2019-12-11T05:10:00	0.2405	1.945		0.603744250	0.745801247	0.012320181	0.127105035	0.039175006
2019-12-11T05:15:00	0.2406	1.943		0.604062647	0.746268797	0.012332238	0.127229430	0.039213346
2019-12-11T05:20:00	0.2405	1.942		0.603714424	0.745757454	0.012319052	0.127093386	0.039171416
2019-12-11T05:25:00	0.2410	1.941		0.605365764	0.748183238	0.012381650	0.127739200	0.039370462
2019-12-11T05:30:00	0.2410	1.940		0.605350858	0.748161332	0.012381084	0.127733363	0.039368663
2019-12-11T05:35:00	0.2409	1.939		0.605002762	0.747649799	0.012367875	0.127597090	0.039326662
2019-12-11T05:40:00	0.2413	1.937		0.606320435	0.749586672	0.012417914	0.128113326	0.039485771
2019-12-11T05:45:00	0.2414	1.936		0.606638601	0.750054569	0.012430011	0.128238137	0.039524239
2019-12-11T05:50:00	0.2409	1.936		0.604958040	0.747584087	0.012366179	0.127579588	0.039321268
2019-12-11T05:55:00	0.2419	1.933		0.608273686	0.752460473	0.012492279	0.128880543	0.039722235
2019-12-11T06:00:00	0.2423	1.931		0.609590144	0.754399172	0.012542530	0.129398966	0.039882018
2019-12-11T06:05:00	0.2416	1.928		0.607245053	0.750946655	0.012453088	0.128476212	0.039597616
2019-12-11T06:10:00	0.2420	1.930		0.608561893	0.752884780	0.012503272	0.128993947	0.039757187
2019-12-11T06:15:00	0.2420	1.929		0.608547000	0.752862853	0.012502703	0.128988086	0.039755381
2019-12-11T06:20:00	0.2410	1.929		0.605201797	0.747942272	0.012375427	0.127674999	0.039350675
2019-12-11T06:25:00	0.2414	1.926		0.606852444	0.750369095	0.012438146	0.128322059	0.039550105
2019-12-11T06:30:00	0.2417	1.923		0.607836505	0.751816975	0.012475615	0.128708617	0.039669246
2019-12-11T06:35:00	0.2420	1.922		0.608820294	0.753265265	0.012513131	0.129095667	0.039788538
2019-12-11T06:40:00	0.2417	1.923		0.607806714	0.751773131	0.012474480	0.128696906	0.039665636
2019-12-11T06:45:00	0.2412	1.921		0.606126706	0.749301816	0.012410550	0.128037360	0.039462358
2019-12-11T06:50:00	0.2411	1.922		0.605778686	0.748790170	0.012397328	0.127900951	0.039420315
2019-12-11T06:55:00	0.2417	1.922		0.607762027	0.751707365	0.012472777	0.128679340	0.039660222
2019-12-11T07:00:00	0.2421	1.921		0.609078676	0.753645779	0.012522994	0.129197421	0.039819900
2019-12-11T07:05:00	0.2423	1.923		0.609729373	0.754604294	0.012547850	0.129453857	0.039898936
2019-12-11T07:10:00	0.2431	1.925		0.612375600	0.758506005	0.012649196	0.130499422	0.040221189
2019-12-11T07:15:00	0.2437	1.931		0.614355260	0.761428751	0.012725288	0.131284455	0.040463144
2019-12-11T07:20:00	0.2434	1.934		0.613343260	0.759934234	0.012686361	0.130882843	0.040339363
2019-12-11T07:25:00	0.2450	1.937		0.618643225	0.767770752	0.012890914	0.132993184	0.040989791
2019-12-11T07:30:00	0.2440	1.941		0.615307518	0.762835825	0.012761974	0.131662937	0.040579796
2019-12-11T07:35:00	0.2445	1.943		0.616953476	0.765269725	0.012825514	0.132318465	0.040781836
2019-12-11T07:40:00	0.2442	1.948		0.615942214	0.763774089	0.012786457	0.131915516	0.040657643
2019-12-11T07:45:00	0.2440	1.952		0.615262925	0.762769917	0.012760255	0.131645201	0.040574330
2019-12-11T07:50:00	0.2462	1.956		0.622549985	0.773562428	0.013042780	0.134559955	0.041472685
2019-12-11T07:55:00	0.2471	1.961		0.625518010	0.777971059	0.013158770	0.135756604	0.041841504
2019-12-11T08:00:00	0.2474	1.964		0.626496925	0.779426746	0.013197143	0.136152487	0.041963519
2019-12-11T08:05:00	0.2486	1.971		0.630454310	0.785319800	0.013352859	0.137758986	0.042458657
2019-12-11T08:10:00	0.2490	1.976		0.631762602	0.787270928	0.013404547	0.138292237	0.042623011
2019-12-11T08:15:00	0.2505	1.980		0.637035319	0.795149120	0.013613911	0.140452207	0.043288734
2019-12-11T08:20:00	0.2510	1.988		0.638671301	0.797598304	0.013679214	0.141125925	0.043496381
2019-12-11T08:25:00	0.2506	1.994		0.637335984	0.795599068	0.013625900	0.140575899	0.043326857
2019-12-11T08:30:00	0.2511	2.003		0.638971829	0.798048463	0.013691227	0.141249868	0.043534581
2019-12-11T08:35:00	0.2517	2.012		0.640936812	0.800993688	0.013769914	0.142061659	0.043784783
2019-12-11T08:40:00	0.2511	2.022		0.638942297	0.798004224	0.013690047	0.141237686	0.043530827
2019-12-11T08:45:00	0.2513	2.034		0.639587574	0.798971023	0.013715859	0.141503990	0.043612904
2019-12-11T08:50:00	0.2509	2.049		0.638252598	0.796971259	0.013662485	0.140953338	0.043443188
2019-12-11T08:55:00	0.2519	2.066		0.641537464	0.801894634	0.013794013	0.142310289	0.043861413
2019-12-11T09:00:00	0.2529	2.087		0.644819330	0.806822669	0.013926076	0.143672761	0.044281340
2019-12-11T09:05:00	0.2534	2.105		0.646451774	0.809277351	0.013992010	0.144352991	0.044490994
2019-12-11T09:10:00	0.2539	2.126		0.648083477	0.811733186	0.014058077	0.145034586	0.044701068
2019-12-11T09:15:00	0.2545	2.148		0.650043489	0.814686151	0.014137651	0.145855537	0.044954093
2019-12-11T09:20:00	0.2551	2.176		0.652002437	0.817640784	0.014217416	0.146678459	0.045207725
2019-12-11T09:25:00	0.2552	2.212		0.652316565	0.818114881	0.014230228	0.146810644	0.045248466
2019-12-11T09:30:00	0.2557	2.247		0.653945616	0.820574868	0.014296770	0.147497144	0.045460052
2019-12-11T09:35:00	0.2555	2.279		0.653273494	0.819559639	0.014269297	0.147213702	0.045372693
2019-12-11T09:40:00	0.2551	2.306		0.651943586	0.817551973	0.014215016	0.146653701	0.045200095
2019-12-11T09:45:00	0.2548	2.327		0.650942154	0.816041179	0.014174214	0.146232751	0.045070354
2019-12-11T09:50:00	0.2545	2.343		0.649940444	0.814530821	0.014133461	0.145812316	0.044940772
2019-12-11T09:55:00	0.2534	2.362		0.646304418	0.809055681	0.013986052	0.144291519	0.044472048
2019-12-11T10:00:00	0.2531	2.384		0.645301417	0.807547340	0.013945531	0.143873469	0.044343200
2019-12-11T10:05:00	0.2521	2.413		0.641990484	0.802574341	0.013812204	0.142497959	0.043919255
2019-12-11T10:10:00	0.2511	2.444		0.639006557	0.798100487	0.013692616	0.141264195	0.043538997
2019-12-11T10:15:00	0.2514	2.474		0.639981793	0.799561843	0.013731641	0.141666811	0.043663087
2019-12-11T10:20:00	0.2504	2.504		0.636665951	0.794596464	0.013599189	0.140300329	0.043241924
2019-12-11T10:25:00	0.2490	2.534		0.632024533	0.787661734	0.013414907	0.138399127	0.042655955
2019-12-11T10:30:00	0.2485	2.563		0.630355909	0.785173108	0.013348976	0.137718922	0.042446309
2019-12-11T10:35:00	0.2479	2.590		0.628355495	0.782192747	0.013270156	0.136905756	0.042195684
2019-12-11T10:40:00	0.2471	2.611		0.625691474	0.778228949	0.013165565	0.135826711	0.041863112
2019-12-11T10:45:00	0.2476	2.630		0.627332647	0.780670141	0.013229948	0.136490935	0.042067832
2019-12-11T10:50:00	0.2468	2.653		0.624667863	0.776707512	0.013125492	0.135413281	0.041735688
2019-12-11T10:55:00	0.2461	2.674		0.622332690	0.773239956	0.013034309	0.134472561	0.041445749
2019-12-11T11:00:00	0.2457	2.696		0.620991259	0.771250112	0.012982078	0.133933703	0.041279668
2019-12-11T11:05:00	0.2455	2.717		0.620312932	0.770244478	0.012955707	0.133661643	0.041195817
2019-12-11T11:10:00	0.2453	2.737		0.619634476	0.769239040	0.012929359	0.133389818	0.041112037
2019-12-11T11:15:00	0.2439	2.754		0.614970858	0.762338283	0.012748998	0.131529065	0.040538535
2019-12-11T11:20:00	0.2438	2.768		0.614623704	0.761825331	0.012735625	0.131391093	0.040496011
2019-12-11T11:25:00	0.2441	2.777		0.615605615	0.763276456	0.012773470	0.131781534	0.040616349
2019-12-11T11:30:00	0.2435	2.784		0.613596908	0.760308740	0.012696112	0.130983443	0.040370369
2019-12-11T11:35:00	0.2433	2.792		0.612917171	0.759305246	0.012669989	0.130713940	0.040287306
2019-12-11T11:40:00	0.2421	2.798		0.608910469	0.753398059	0.012516573	0.129131175	0.039799482
2019-12-11T11:45:00	0.2424	2.803		0.609893960	0.754846797	0.012554141	0.129518762	0.039918940
2019-12-11T11:50:00	0.2413	2.802		0.606216951	0.749434507	0.012413980	0.128072744	0.039473264
2019-12-11T11:55:00	0.2405	2.801		0.603536298	0.745495927	0.012312309	0.127023824	0.039149976
2019-12-11T12:00:00	0.2404	2.805		0.603521384	0.745474032	0.012311745	0.127018001	0.039148181
2019-12-11T12:05:00	0.2404	2.803		0.603506471	0.745452137	0.012311180	0.127012178	0.039146387
2019-12-11T12:10:00	0.2398	2.796		0.601490901	0.742494754	0.012235022	0.126226462	0.038904221
2019-12-11T12:15:00	0.2394	2.791		0.600141575	0.740516828	0.012184173	0.125701865	0.038742535
2019-12-11T12:20:00	0.2388	2.785		0.598124087	0.737562312	0.012108348	0.124919592	0.038501431
2019-12-11T12:25:00	0.2386	2.782		0.597441376	0.736563284	0.012082744	0.124655442	0.038420018
2019-12-11T12:30:00	0.2376	2.784		0.594085654	0.731658434	0.011957298	0.123361244	0.038021133
2019-12-11T12:35:00	0.2377	2.784		0.594404922	0.732124685	0.011969205	0.123484077	0.038058992
2019-12-11T12:40:00	0.2381	2.787		0.595726548	0.734055652	0.012018555	0.123993219	0.038215914
2019-12-11T12:45:00	0.2377	2.787		0.594375018	0.732081010	0.011968089	0.123472569	0.038055445
2019-12-11T12:50:00	0.2372	2.789		0.592688618	0.729619246	0.011905272	0.122824494	0.037855702
2019-12-11T12:55:00	0.2370	2.791		0.592004855	0.728621782	0.011879850	0.122562226	0.037774868
2019-12-11T13:00:00	0.2369	2.791		0.591655442	0.728112214	0.011866870	0.122428315	0.037733596
2019-12-11T13:05:00	0.2370	2.789		0.591974930	0.728578138	0.011878738	0.122550755	0.037771333
2019-12-11T13:10:00	0.2373	2.786		0.592963139	0.730019823	0.011915486	0.122929872	0.037888180
2019-12-11T13:15:00	0.2365	2.782		0.590272413	0.726096265	0.011815565	0.121899008	0.037570458
2019-12-11T13:20:00	0.2359	2.777		0.588249275	0.723150144	0.011740720	0.121126841	0.037332469
2019-12-11T13:25:00	0.2367	2.775		0.590911611	0.727027784	0.011839263	0.122143493	0.037645811
2019-12-11T13:30:00	0.2357	2.776		0.587549668	0.722132161	0.011714895	0.120860408	0.037250352
2019-12-11T13:35:00	0.2351	2.778		0.585524965	0.719188352	0.011640319	0.120091030	0.037013222
2019-12-11T13:40:00	0.2353	2.777		0.586180013	0.720140383	0.011664420	0.120339670	0.037089855
2019-12-11T13:45:00	0.2343	2.774		0.582813546	0.715251436	0.011540832	0.119064641	0.036696879
2019-12-11T13:50:00	0.2342	2.772		0.582798544	0.715229671	0.011540283	0.119058975	0.036695132
2019-12-11T13:55:00	0.2342	2.768		0.582783543	0.715207907	0.011539734	0.119053309	0.036693386
2019-12-11T14:00:00	0.2336	2.765		0.580756093	0.712268140	0.011465632	0.118288815	0.036457762
2019-12-11T14:05:00	0.2340	2.759		0.582082849	0.714191527	0.011514097	0.118788812	0.036611866
2019-12-11T14:10:00	0.2331	2.755		0.579048136	0.709794282	0.011403397	0.117646746	0.036259870
2019-12-11T14:15:00	0.2333	2.752		0.579704392	0.710744537	0.011427290	0.117893240	0.036335842
2019-12-11T14:20:00	0.2337	2.747		0.581031546	0.712667341	0.011475686	0.118392533	0.036489728
2019-12-11T14:25:00	0.2343	2.737		0.583028836	0.715563809	0.011548716	0.119145973	0.036721946
2019-12-11T14:30:00	0.2339	2.731		0.581672425	0.713596383	0.011499093	0.118634026	0.036564159
2019-12-11T14:35:00	0.2339	2.721		0.581657419	0.713574625	0.011498545	0.118628369	0.036562415
2019-12-11T14:40:00	0.2353	2.711		0.586335153	0.720365912	0.011670132	0.120398596	0.037108016
2019-12-11T14:45:00	0.2355	2.698		0.586990050	0.721318166	0.011694258	0.120647504	0.037184732
2019-12-11T14:50:00	0.2354	2.685		0.586640139	0.720809334	0.011681364	0.120514480	0.037143733
2019-12-11T14:55:00	0.2360	2.678		0.588634249	0.723710486	0.011754943	0.121273579	0.037377695
2019-12-11T15:00:00	0.2352	2.671		0.585940213	0.719791823	0.011655594	0.120248617	0.037061792
2019-12-11T15:05:00	0.2357	2.667		0.587599883	0.722205215	0.011716747	0.120879522	0.037256243
2019-12-11T15:10:00	0.2360	2.659		0.588589319	0.723645083	0.011753283	0.121256449	0.037372415
2019-12-11T15:15:00	0.2362	2.654		0.589243797	0.724597956	0.011777481	0.121506104	0.037449361
2019-12-11T15:20:00	0.2363	2.649		0.589563504	0.725063556	0.011789312	0.121628154	0.037486978
2019-12-11T15:25:00	0.2370	2.644		0.591890421	0.728454885	0.011875599	0.122518361	0.037761349
2019-12-11T15:30:00	0.2372	2.634		0.592544286	0.729408665	0.011899903	0.122769110	0.037838632
2019-12-11T15:35:00	0.2379	2.624		0.594869237	0.732802908	0.011986531	0.123662827	0.038114084
2019-12-11T15:40:00	0.2390	2.620		0.598528176	0.738153808	0.012123516	0.125076075	0.038549661
2019-12-11T15:45:00	0.2393	2.612		0.599848260	0.740087071	0.012173134	0.125587977	0.038707434
2019-12-11T15:50:00	0.2405	2.600		0.603835385	0.745935066	0.012323632	0.127140635	0.039185978
2019-12-11T15:55:00	0.2407	2.586		0.604487045	0.746892134	0.012348320	0.127395336	0.039264480
2019-12-11T16:00:00	0.2413	2.570		0.606471109	0.749808244	0.012423642	0.128172425	0.039503986
2019-12-11T16:05:00	0.2416	2.555		0.607222536	0.750913528	0.012452231	0.128467368	0.039594891
2019-12-11T16:10:00	0.2418	2.546		0.607973804	0.752019051	0.012480847	0.128762599	0.039685883
2019-12-11T16:15:00	0.2416	2.537		0.607393236	0.751164679	0.012458730	0.128534419	0.039615556
2019-12-11T16:20:00	0.2423	2.529		0.609808634	0.754721074	0.012550880	0.129485111	0.039908569
2019-12-11T16:25:00	0.2421	2.521		0.608895541	0.753376074	0.012516003	0.129125296	0.039797670
2019-12-11T16:30:00	0.2421	2.514		0.608980852	0.753501709	0.012519259	0.129158892	0.039808025
2019-12-11T16:35:00	0.2419	2.506		0.608400448	0.752647088	0.012497113	0.128930415	0.039737606
2019-12-11T16:40:00	0.2420	2.498		0.608818635	0.753262822	0.012513068	0.129095014	0.039788337
2019-12-11T16:45:00	0.2430	2.491		0.611898244	0.757801736	0.012630883	0.130310490	0.040162959
2019-12-11T16:50:00	0.2432	2.481		0.612648523	0.758908750	0.012659672	0.130607505	0.040254501
2019-12-11T16:55:00	0.2428	2.475		0.611403570	0.757072119	0.012611920	0.130114854	0.040102662
2019-12-11T17:00:00	0.2435	2.468		0.613816243	0.760632625	0.012704547	0.131070467	0.040397191
2019-12-11T17:05:00	0.2438	2.461		0.614566117	0.761740251	0.012733407	0.131368213	0.040488959
2019-12-11T17:10:00	0.2430	2.455		0.611991882	0.757939871	0.012634474	0.130347540	0.040174378
2019-12-11T17:15:00	0.2418	2.451		0.608084363	0.752181784	0.012485061	0.128806075	0.039699283
2019-12-11T17:20:00	0.2427	2.447		0.611164609	0.756719738	0.012602765	0.130020402	0.040073551
2019-12-11T17:25:00	0.2427	2.444		0.610917230	0.756354994	0.012593291	0.129922661	0.040043426
2019-12-11T17:30:00	0.2415	2.442		0.607008527	0.750598691	0.012444085	0.128383332	0.039568990
2019-12-11T17:35:00	0.2416	2.440		0.607426877	0.751214178	0.012460011	0.128547635	0.039619630
2019-12-11T17:40:00	0.2407	2.439		0.604514222	0.746932055	0.012349350	0.127405964	0.039267755
2019-12-11T17:45:00	0.2401	2.438		0.602266160	0.743631865	0.012264286	0.126528379	0.038997275
2019-12-11T17:50:00	0.2399	2.435		0.601684657	0.742778897	0.012242332	0.126301883	0.038927467
2019-12-11T17:55:00	0.2376	2.431		0.594091067	0.731666339	0.011957500	0.123363326	0.038021775
2019-12-11T18:00:00	0.2363	2.430		0.589829096	0.725450411	0.011799144	0.121729593	0.037518243
2019-12-11T18:05:00	0.2364	2.432		0.589914868	0.725575357	0.011802320	0.121762362	0.037528343
2019-12-11T18:10:00	0.2365	2.434		0.590335246	0.726187819	0.011817894	0.121923030	0.037577862
2019-12-11T18:15:00	0.2360	2.435		0.588747689	0.723875626	0.011759136	0.121316836	0.037391027
2019-12-11T18:20:00	0.2355	2.434		0.586824507	0.721077424	0.011688157	0.120584561	0.037165333
2019-12-11T18:25:00	0.2348	2.431		0.584565149	0.717794023	0.011605052	0.119727182	0.036901080
2019-12-11T18:30:00	0.2353	2.427		0.586326313	0.720353061	0.011669806	0.120395238	0.037106981
2019-12-11T18:35:00	0.2346	2.421		0.584066635	0.717070131	0.011586756	0.119538429	0.036842905
2019-12-11T18:40:00	0.2345	2.413		0.583482123	0.716221626	0.011565323	0.119317308	0.036774753
2019-12-11T18:45:00	0.2346	2.412		0.583903270	0.716832954	0.011580764	0.119476607	0.036823851
2019-12-11T18:50:00	0.2348	2.412		0.584659514	0.717931073	0.011608517	0.119762929	0.036912098
2019-12-11T18:55:00	0.2346	2.416		0.584075101	0.717082423	0.011587067	0.119541633	0.036843892
2019-12-11T19:00:00	0.2341	2.421		0.582149362	0.714287988	0.011516529	0.118813907	0.036619600
2019-12-11T19:05:00	0.2343	2.422		0.582905983	0.715385552	0.011544217	0.119099559	0.036707641
2019-12-11T19:10:00	0.2351	2.422		0.585673228	0.719403802	0.011645772	0.120147283	0.037030560
2019-12-11T19:15:00	0.2352	2.423		0.586094112	0.720015516	0.011661258	0.120307049	0.037079801
2019-12-11T19:20:00	0.2363	2.426		0.589528252	0.725012213	0.011788007	0.121614694	0.037482830
2019-12-11T19:25:00	0.2360	2.430		0.588609907	0.723675053	0.011754043	0.121264298	0.037374834
2019-12-11T19:30:00	0.2352	2.432		0.586016708	0.719903007	0.011658409	0.120277659	0.037070743
2019-12-11T19:35:00	0.2353	2.433		0.586437552	0.720514782	0.011673902	0.120437497	0.037120006
2019-12-11T19:40:00	0.2352	2.429		0.585853434	0.719665696	0.011652401	0.120215675	0.037051639
2019-12-11T19:45:00	0.2360	2.425		0.588618362	0.723687361	0.011754356	0.121267522	0.037375828
2019-12-11T19:50:00	0.2352	2.422		0.586025170	0.719915305	0.011658721	0.120280871	0.037071733
2019-12-11T19:55:00	0.2365	2.416		0.590463260	0.726374356	0.011822638	0.121971978	0.037592948
2019-12-11T20:00:00	0.2366	2.412		0.590549016	0.726499325	0.011825817	0.122004775	0.037603056
2019-12-11T20:05:00	0.2366	2.409		0.590634771	0.726624297	0.011828996	0.122037575	0.037613166
2019-12-11T20:10:00	0.2368	2.405		0.591389571	0.727724548	0.011856999	0.122326470	0.037702206
2019-12-11T20:15:00	0.2364	2.404		0.590137116	0.725899138	0.011810552	0.121847291	0.037554519
2019-12-11T20:20:00	0.2352	2.406		0.585870357	0.719690293	0.011653024	0.120222099	0.037053619
2019-12-11T20:25:00	0.2353	2.402		0.586291218	0.720302042	0.011668514	0.120381907	0.037102873
2019-12-11T20:30:00	0.2348	2.401		0.584701837	0.717992543	0.011610071	0.119778964	0.036917040
2019-12-11T20:35:00	0.2348	2.399		0.584787734	0.718117305	0.011613226	0.119811510	0.036927071
2019-12-11T20:40:00	0.2345	2.398		0.583532927	0.716295365	0.011567185	0.119336519	0.036780674
2019-12-11T20:45:00	0.2332	2.402		0.579258146	0.710098335	0.011411040	0.117725598	0.036284173
2019-12-11T20:50:00	0.2339	2.405		0.581692864	0.713626017	0.011499840	0.118641732	0.036566534
2019-12-11T20:55:00	0.2353	2.412		0.586471393	0.720563983	0.011675149	0.120450355	0.037123969
2019-12-11T21:00:00	0.2356	2.413		0.587227085	0.721662915	0.011702997	0.120737659	0.037212519
2019-12-11T21:05:00	0.2358	2.416		0.587982615	0.722762086	0.011730873	0.121025253	0.037301158
2019-12-11T21:10:00	0.2351	2.416		0.585724000	0.719477588	0.011647640	0.120166551	0.037036498
2019-12-11T21:15:00	0.2357	2.415		0.587819432	0.722524641	0.011724849	0.120963107	0.037282004
2019-12-11T21:20:00	0.2360	2.415		0.588574835	0.723624000	0.011752747	0.121250927	0.037370713
2019-12-11T21:25:00	0.2370	2.414		0.592006559	0.728624268	0.011879914	0.122562880	0.037775070
2019-12-11T21:30:00	0.2380	2.414		0.595434948	0.733629483	0.012007658	0.123880791	0.038181263
2019-12-11T21:35:00	0.2375	2.411		0.593515411	0.730825880	0.011936048	0.123142008	0.037953563
2019-12-11T21:40:00	0.2381	2.406		0.595606217	0.733879782	0.012014058	0.123946819	0.038201613
2019-12-11T21:45:00	0.2393	2.403		0.599698589	0.739867804	0.012167503	0.125529884	0.038689529
2019-12-11T21:50:00	0.2397	2.402		0.601118661	0.741948948	0.012220983	0.126081628	0.038859582
2019-12-11T21:55:00	0.2392	2.405		0.599202210	0.739140748	0.012148838	0.125337317	0.038630178
2019-12-11T22:00:00	0.2385	2.406		0.596950770	0.735845608	0.012064362	0.124465797	0.038361568
2019-12-11T22:05:00	0.2385	2.407		0.596944793	0.735836867	0.012064138	0.124463488	0.038360856
2019-12-11T22:10:00	0.2388	2.406		0.597940574	0.737293735	0.012101463	0.124848560	0.038479539
2019-12-11T22:15:00	0.2378	2.403		0.594594297	0.732401282	0.011976270	0.123556966	0.038081457
2019-12-11T22:20:00	0.2379	2.404		0.594922489	0.732880705	0.011988519	0.123683336	0.038120405
2019-12-11T22:25:00	0.2379	2.402		0.594916509	0.732871969	0.011988295	0.123681033	0.038119696
2019-12-11T22:30:00	0.2382	2.403		0.595912862	0.734327985	0.012025521	0.124065081	0.038238063
2019-12-11T22:35:00	0.2381	2.402		0.595572804	0.733830949	0.012012809	0.123933936	0.038197643
2019-12-11T22:40:00	0.2376	2.400		0.593895949	0.731381436	0.011950227	0.123288287	0.037998648
2019-12-11T22:45:00	0.2386	2.398		0.597230935	0.736255420	0.012074857	0.124574078	0.038394941
2019-12-11T22:50:00	0.2387	2.395		0.597558883	0.736735207	0.012087149	0.124700887	0.038434024
2019-12-11T22:55:00	0.2389	2.395		0.598220661	0.737703663	0.012111972	0.124956981	0.038512955
2019-12-11T23:00:00	0.2389	2.401		0.598214687	0.737694918	0.012111748	0.124954668	0.038512242
2019-12-11T23:05:00	0.2387	2.402		0.597540957	0.736708979	0.012086477	0.124693953	0.038431887
2019-12-11T23:10:00	0.2387	2.403		0.597534981	0.736700236	0.012086253	0.124691642	0.038431175
2019-12-11T23:15:00	0.2383	2.402		0.596193110	0.734737674	0.012036002	0.124173214	0.038271391
2019-12-11T23:20:00	0.2377	2.406		0.594516550	0.732287722	0.011973369	0.123527039	0.038072233
2019-12-11T23:25:00	0.2370	2.411		0.592170420	0.728863271	0.011886003	0.122625705	0.037794433
2019-12-11T23:30:00	0.2365	2.415		0.590491947	0.726416159	0.011823702	0.121982949	0.037596329
2019-12-11T23:35:00	0.2365	2.422		0.590485959	0.726407434	0.011823480	0.121980659	0.037595624
2019-12-11T23:40:00	0.2362	2.426		0.589476094	0.724936248	0.011786076	0.121594779	0.037476692
2019-12-11T23:45:00	0.2358	2.426		0.588131154	0.722978240	0.011736357	0.121081835	0.037318598
2019-12-11T23:50:00	0.2361	2.429		0.589129425	0.724431412	0.011773251	0.121462457	0.037435909
2019-12-11T23:55:00	0.2362	2.426		0.589458126	0.724910081	0.011785412	0.121587919	0.037474577
2019-12-12T00:00:00	0.2363	2.430		0.589786797	0.725388794	0.011797578	0.121713435	0.037513263
2019-12-12T00:05:00	0.2352	2.430		0.586097792	0.720020866	0.011661393	0.120308446	0.037080232
2019-12-12T00:10:00	0.2359	2.428		0.588435985	0.723421891	0.011747617	0.121197997	0.037354400
2019-12-12T00:15:00	0.2346	2.428		0.584075252	0.717082643	0.011587072	0.119541691	0.036843910
2019-12-12T00:20:00	0.2350	2.431		0.585409751	0.719020939	0.011636083	0.120047324	0.036999751
2019-12-12T00:25:00	0.2343	2.433		0.583057546	0.715605468	0.011549767	0.119156821	0.036725290
2019-12-12T00:30:00	0.2344	2.434		0.583386815	0.716083299	0.011561830	0.119281273	0.036763647
2019-12-12T00:35:00	0.2330	2.430		0.578684126	0.709267351	0.011390156	0.117510135	0.036217765
2019-12-12T00:40:00	0.2317	2.426		0.574311264	0.702945908	0.011231699	0.115875363	0.035713912
2019-12-12T00:45:00	0.2322	2.420		0.575985455	0.705364259	0.011292231	0.116499870	0.035906391
2019-12-12T00:50:00	0.2324	2.416		0.576651301	0.706326711	0.011316352	0.116748720	0.035983089
2019-12-12T00:55:00	0.2326	2.416		0.577317020	0.707289349	0.011340495	0.116997793	0.036059856
2019-12-12T01:00:00	0.2333	2.413		0.579661059	0.710681780	0.011425711	0.117876956	0.036330822
2019-12-12T01:05:00	0.2345	2.408		0.583680059	0.716508928	0.011572579	0.119392164	0.036797824
2019-12-12T01:10:00	0.2339	2.400		0.581662130	0.713581455	0.011498717	0.118630145	0.036562963
2019-12-12T01:15:00	0.2339	2.392		0.581656127	0.713572753	0.011498498	0.118627882	0.036562265
2019-12-12T01:20:00	0.2340	2.389		0.581985528	0.714050391	0.011510538	0.118752100	0.036600550
2019-12-12T01:25:00	0.2319	2.387		0.574929316	0.703838407	0.011254026	0.116105710	0.035784907
2019-12-12T01:30:00	0.2314	2.385		0.573242587	0.701403429	0.011193146	0.115477621	0.035591324
2019-12-12T01:35:00	0.2315	2.377		0.573572778	0.701879911	0.011205050	0.115600438	0.035629178
2019-12-12T01:40:00	0.2326	2.375		0.577262931	0.707211121	0.011338532	0.116977546	0.036053616
2019-12-12T01:45:00	0.2333	2.370		0.579607005	0.710603499	0.011423742	0.117856644	0.036324562
2019-12-12T01:50:00	0.2316	2.364		0.573890907	0.702339071	0.011216526	0.115718831	0.035665667
2019-12-12T01:55:00	0.2309	2.352		0.571530966	0.698934924	0.011131539	0.114842040	0.035395432
2019-12-12T02:00:00	0.2317	2.339		0.574215022	0.702806957	0.011228224	0.115839515	0.035702864
2019-12-12T02:05:00	0.2313	2.331		0.572864225	0.700857545	0.011179512	0.115336969	0.035547974
2019-12-12T02:10:00	0.2309	2.330		0.571512906	0.698908892	0.011130890	0.114835343	0.035393368
2019-12-12T02:15:00	0.2313	2.335		0.572852189	0.700840183	0.011179079	0.115332496	0.035546595
2019-12-12T02:20:00	0.2325	2.341		0.576878991	0.706655913	0.011324607	0.116833878	0.036009336
2019-12-12T02:25:00	0.2324	2.346		0.576537089	0.706161596	0.011312213	0.116706015	0.035969927
2019-12-12T02:30:00	0.2324	2.351		0.576531078	0.706152906	0.011311995	0.116703768	0.035969235
2019-12-12T02:35:00	0.2313	2.355		0.572828119	0.700805459	0.011178212	0.115323551	0.035543839
2019-12-12T02:40:00	0.2308	2.360		0.571140377	0.698371956	0.011117505	0.114697252	0.035350807
2019-12-12T02:45:00	0.2309	2.366		0.571470767	0.698848149	0.011129376	0.114819718	0.035388552
2019-12-12T02:50:00	0.2312	2.371		0.572473785	0.700294360	0.011165453	0.115191918	0.035503268
2019-12-12T02:55:00	0.2321	2.376		0.575493142	0.704652877	0.011274414	0.116316050	0.035849736
2019-12-12T03:00:00	0.2318	2.383		0.574478959	0.703188037	0.011237754	0.115937840	0.035733168
2019-12-12T03:05:00	0.2314	2.386		0.573128264	0.701238476	0.011189025	0.115435113	0.035578223
2019-12-12T03:10:00	0.2320	2.388		0.575139078	0.704141385	0.011261609	0.116183940	0.035809019
2019-12-12T03:15:00	0.2322	2.389		0.575805084	0.705103603	0.011285702	0.116432505	0.035885629
2019-12-12T03:20:00	0.2312	2.393		0.572437675	0.700242281	0.011164153	0.115178508	0.035499135
2019-12-12T03:25:00	0.2305	2.395		0.570076754	0.696839560	0.011079334	0.114303448	0.035229433
2019-12-12T03:30:00	0.2311	2.395		0.572089320	0.699739918	0.011151617	0.115049179	0.035459274
2019-12-12T03:35:00	0.2315	2.396		0.573428383	0.701671530	0.011199844	0.115546721	0.035612622
2019-12-12T03:40:00	0.2314	2.398		0.573086144	0.701177705	0.011187508	0.115419454	0.035573397
2019-12-12T03:45:00	0.2317	2.399		0.574088699	0.702624590	0.011223664	0.115792471	0.035688364
2019-12-12T03:50:00	0.2314	2.394		0.573074109	0.701160342	0.011187074	0.115414980	0.035572018
2019-12-12T03:55:00	0.2317	2.390		0.574076668	0.702607222	0.011223230	0.115787991	0.035686983
2019-12-12T04:00:00	0.2313	2.387		0.573062075	0.701142980	0.011186640	0.115410507	0.035570639
2019-12-12T04:05:00	0.2319	2.384		0.575078941	0.704054520	0.011259434	0.116161509	0.035802105
2019-12-12T04:10:00	0.2320	2.383		0.575414972	0.704539941	0.011271586	0.116286876	0.035840744
2019-12-12T04:15:00	0.2324	2.384		0.576758776	0.706482096	0.011320248	0.116788912	0.035995477
2019-12-12T04:20:00	0.2324	2.384		0.576758776	0.706482096	0.011320248	0.116788912	0.035995477
2019-12-12T04:25:00	0.2324	2.384		0.576758776	0.706482096	0.011320248	0.116788912	0.035995477
2019-12-12T04:30:00	0.2321	2.383		0.575750971	0.705025409	0.011283743	0.116412299	0.035879401
2019-12-12T04:35:00	0.2318	2.383		0.574742877	0.703569145	0.011247288	0.116036199	0.035763484
2019-12-12T04:40:00	0.2325	2.383		0.577094646	0.706967752	0.011332427	0.116914564	0.036034204
2019-12-12T04:45:00	0.2317	2.387		0.574406781	0.703083818	0.011235148	0.115910947	0.035724880
2019-12-12T04:50:00	0.2315	2.388		0.573734493	0.702113305	0.011210883	0.115660613	0.035647724
2019-12-12T04:55:00	0.2322	2.388		0.576086938	0.705510924	0.011295906	0.116537780	0.035918076
2019-12-12T05:00:00	0.2321	2.390		0.575750971	0.705025409	0.011283743	0.116412299	0.035879401
2019-12-12T05:05:00	0.2317	2.394		0.574406781	0.703083818	0.011235148	0.115910947	0.035724880
2019-12-12T05:10:00	0.2315	2.399		0.573734493	0.702113305	0.011210883	0.115660613	0.035647724
2019-12-12T05:15:00	0.2315	2.404		0.573734493	0.702113305	0.011210883	0.115660613	0.035647724
2019-12-12T05:20:00	0.2312	2.406		0.572725818	0.700657887	0.011174527	0.115285539	0.035532123
2019-12-12T05:25:00	0.2312	2.410		0.572725818	0.700657887	0.011174527	0.115285539	0.035532123
2019-12-12T05:30:00	0.2312	2.411		0.572725818	0.700657887	0.011174527	0.115285539	0.035532123
2019-12-12T05:35:00	0.2318	2.414		0.574742877	0.703569145	0.011247288	0.116036199	0.035763484
2019-12-12T05:40:00	0.2323	2.417		0.576422873	0.705996487	0.011308074	0.116663318	0.035956767
2019-12-12T05:45:00	0.2324	2.423		0.576758776	0.706482096	0.011320248	0.116788912	0.035995477
2019-12-12T05:50:00	0.2326	2.433		0.577430484	0.707453456	0.011344612	0.117040272	0.036072949
2019-12-12T05:55:00	0.2324	2.439		0.576758776	0.706482096	0.011320248	0.116788912	0.035995477
2019-12-12T06:00:00	0.2335	2.446		0.580451584	0.711826902	0.011454524	0.118174210	0.036422439
2019-12-12T06:05:00	0.2333	2.453		0.579780453	0.710854696	0.011430060	0.117921826	0.036344652
2019-12-12T06:10:00	0.2326	2.457		0.577430484	0.707453456	0.011344612	0.117040272	0.036072949
2019-12-12T06:15:00	0.2328	2.460		0.578102065	0.708425003	0.011368998	0.117291860	0.036150490
2019-12-12T06:20:00	0.2331	2.465		0.579109194	0.709882678	0.011405619	0.117669669	0.036266935
2019-12-12T06:25:00	0.2333	2.469		0.579780453	0.710854696	0.011430060	0.117921826	0.036344652
2019-12-12T06:30:00	0.2331	2.474		0.579109194	0.709882678	0.011405619	0.117669669	0.036266935
2019-12-12T06:35:00	0.2334	2.479		0.580116034	0.711340775	0.011442289	0.118047990	0.036383537
2019-12-12T06:40:00	0.2342	2.485		0.582799532	0.715231104	0.011540319	0.119059348	0.036695247
2019-12-12T06:45:00	0.2338	2.491		0.581458039	0.713285563	0.011491260	0.118553214	0.036539252
2019-12-12T06:50:00	0.2346	2.496		0.584140513	0.717177396	0.011589467	0.119566392	0.036851523
2019-12-12T06:55:00	0.2346	2.501		0.584140513	0.717177396	0.011589467	0.119566392	0.036851523
2019-12-12T07:00:00	0.2344	2.509		0.583470086	0.716204156	0.011564882	0.119312756	0.036773350
2019-12-12T07:05:00	0.2343	2.517		0.583134825	0.715717606	0.011552598	0.119186024	0.036734290
2019-12-12T07:10:00	0.2342	2.524		0.582799532	0.715231104	0.011540319	0.119059348	0.036695247
2019-12-12T07:15:00	0.2349	2.533		0.585145913	0.718637610	0.011626385	0.119947271	0.036968914
2019-12-12T07:20:00	0.2353	2.540		0.586485999	0.720585219	0.011675686	0.120455905	0.037125680
2019-12-12T07:25:00	0.2363	2.548		0.589833986	0.725457533	0.011799325	0.121731461	0.037518819
2019-12-12T07:30:00	0.2356	2.558		0.587490729	0.722046419	0.011712720	0.120837976	0.037243438
2019-12-12T07:35:00	0.2365	2.568		0.590503201	0.726432560	0.011824119	0.121987253	0.037597656
2019-12-12T07:40:00	0.2356	2.576		0.587490729	0.722046419	0.011712720	0.120837976	0.037243438
2019-12-12T07:45:00	0.2362	2.585		0.589499330	0.724970090	0.011786936	0.121603650	0.037479426
2019-12-12T07:50:00	0.2370	2.594		0.592175685	0.728870950	0.011886199	0.122627724	0.037795055
2019-12-12T07:55:00	0.2383	2.603		0.596520435	0.735216266	0.012048250	0.124299573	0.038310336
2019-12-12T08:00:00	0.2375	2.612		0.593847376	0.731310516	0.011948417	0.123269611	0.037992891
2019-12-12T08:05:00	0.2372	2.624		0.592844456	0.729846636	0.011911070	0.122884309	0.037874137
2019-12-12T08:10:00	0.2380	2.633		0.595518275	0.733751257	0.012010771	0.123912913	0.038191163
2019-12-12T08:15:00	0.2381	2.647		0.595852360	0.734239547	0.012023259	0.124041743	0.038230870
2019-12-12T08:20:00	0.2385	2.660		0.597188384	0.736193174	0.012073263	0.124557629	0.038389871
2019-12-12T08:25:00	0.2384	2.678		0.596854426	0.735704697	0.012060754	0.124428573	0.038350095
2019-12-12T08:30:00	0.2392	2.696		0.599525212	0.739613832	0.012160982	0.125462606	0.038668794
2019-12-12T08:35:00	0.2390	2.712		0.598857704	0.738636266	0.012135892	0.125203759	0.038589014
2019-12-12T08:40:00	0.2400	2.728		0.602193983	0.743525977	0.012261560	0.126500255	0.038988607
2019-12-12T08:45:00	0.2404	2.746		0.603527614	0.745483178	0.012311981	0.127020433	0.039148931
2019-12-12T08:50:00	0.2407	2.767		0.604527508	0.746951572	0.012349853	0.127411160	0.039269357
2019-12-12T08:55:00	0.2405	2.786		0.603860943	0.745972595	0.012324599	0.127150619	0.039189056
2019-12-12T09:00:00	0.2409	2.804		0.605193947	0.747930737	0.012375129	0.127671926	0.039349728
2019-12-12T09:05:00	0.2405	2.822		0.603860943	0.745972595	0.012324599	0.127150619	0.039189056
2019-12-12T09:10:00	0.2400	2.841		0.602193983	0.743525977	0.012261560	0.126500255	0.038988607
2019-12-12T09:15:00	0.2404	2.862		0.603527614	0.745483178	0.012311981	0.127020433	0.039148931
2019-12-12T09:20:00	0.2396	2.886		0.600859849	0.741569529	0.012211227	0.125980979	0.038828561
2019-12-12T09:25:00	0.2397	2.906		0.601193430	0.742058570	0.012223802	0.126110713	0.038868547
2019-12-12T09:30:00	0.2399	2.929		0.601860496	0.743036794	0.012248969	0.126370351	0.038948569
2019-12-12T09:35:00	0.2398	2.950		0.601526979	0.742547659	0.012236383	0.126240504	0.038908549
2019-12-12T09:40:00	0.2392	2.972		0.599525212	0.739613832	0.012160982	0.125462606	0.038668794
2019-12-12T09:45:00	0.2396	2.995		0.600859849	0.741569529	0.012211227	0.125980979	0.038828561
2019-12-12T09:50:00	0.2389	3.016		0.598523903	0.738147554	0.012123355	0.125074420	0.038549151
2019-12-12T09:55:00	0.2383	3.039		0.596520435	0.735216266	0.012048250	0.124299573	0.038310336
2019-12-12T10:00:00	0.2377	3.063		0.594515830	0.732286672	0.011973342	0.123526762	0.038072148
2019-12-12T10:05:00	0.2384	3.087		0.596747903	0.735548907	0.012056765	0.124387422	0.038337412
2019-12-12T10:10:00	0.2388	3.112		0.597977104	0.737347194	0.012102833	0.124862698	0.038483896
2019-12-12T10:15:00	0.2384	3.136		0.596534849	0.735237343	0.012048789	0.124305139	0.038312051
2019-12-12T10:20:00	0.2384	3.159		0.596762316	0.735569985	0.012057305	0.124392990	0.038339127
2019-12-12T10:25:00	0.2393	3.181		0.599660452	0.739811937	0.012166068	0.125515083	0.038684968
2019-12-12T10:30:00	0.2393	3.206		0.599554014	0.739656022	0.012162065	0.125473781	0.038672238
2019-12-12T10:35:00	0.2393	3.227		0.599781287	0.739988954	0.012170614	0.125561980	0.038699422
2019-12-12T10:40:00	0.2392	3.249		0.599341129	0.739344205	0.012154060	0.125391195	0.038646784
2019-12-12T10:45:00	0.2392	3.270		0.599234681	0.739188304	0.012150058	0.125349910	0.038634060
2019-12-12T10:50:00	0.2394	3.290		0.600129368	0.740498941	0.012183713	0.125697124	0.038741074
2019-12-12T10:55:00	0.2391	3.307		0.599021777	0.738876516	0.012142056	0.125267358	0.038608616
2019-12-12T11:00:00	0.2384	3.330		0.596578089	0.735300573	0.012050408	0.124321836	0.038317197
2019-12-12T11:05:00	0.2375	3.352		0.593798461	0.731239100	0.011946594	0.123250805	0.037987095
2019-12-12T11:10:00	0.2378	3.372		0.594694525	0.732547686	0.011980010	0.123595552	0.038093349
2019-12-12T11:15:00	0.2383	3.393		0.596258487	0.734833256	0.012038448	0.124198447	0.038279167
2019-12-12T11:20:00	0.2386	3.414		0.597487857	0.736631289	0.012084486	0.124673417	0.038425558
2019-12-12T11:25:00	0.2387	3.434		0.597715263	0.736964023	0.012093012	0.124761378	0.038452668
2019-12-12T11:30:00	0.2388	3.452		0.597942654	0.737296778	0.012101541	0.124849365	0.038479787
2019-12-12T11:35:00	0.2386	3.471		0.597502267	0.736652371	0.012085026	0.124678990	0.038427276
2019-12-12T11:40:00	0.2385	3.491		0.597061825	0.736008046	0.012068522	0.124508713	0.038374795
2019-12-12T11:45:00	0.2385	3.513		0.596955309	0.735852248	0.012064532	0.124467551	0.038362108
2019-12-12T11:50:00	0.2385	3.534		0.597182749	0.736184930	0.012073052	0.124555451	0.038389200
2019-12-12T11:55:00	0.2387	3.554		0.597744080	0.737006190	0.012094093	0.124772527	0.038456105
2019-12-12T12:00:00	0.2387	3.578		0.597637584	0.736850361	0.012090100	0.124731328	0.038443407
2019-12-12T12:05:00	0.2383	3.598		0.596195191	0.734740716	0.012036080	0.124174017	0.038271638
2019-12-12T12:10:00	0.2386	3.613		0.597424584	0.736538716	0.012082115	0.124648948	0.038418016
2019-12-12T12:15:00	0.2430	3.624		0.611980620	0.757923257	0.012634042	0.130343084	0.040173004
2019-12-12T12:20:00	0.2469	3.638		0.624820878	0.776934887	0.013131478	0.135475041	0.041754723
2019-12-12T12:25:00	0.2432	3.655		0.612766054	0.759082207	0.012664185	0.130654064	0.040268851
2019-12-12T12:30:00	0.2399	3.667		0.601670906	0.742758731	0.012241813	0.126296530	0.038925817
2019-12-12T12:35:00	0.2387	3.679		0.597559904	0.736736701	0.012087187	0.124701282	0.038434146
2019-12-12T12:40:00	0.2375	3.694		0.593778396	0.731209805	0.011945846	0.123243090	0.037984717
2019-12-12T12:45:00	0.2379	3.707		0.595008630	0.733006553	0.011991735	0.123716515	0.038130632
2019-12-12T12:50:00	0.2375	3.717		0.593565162	0.730898507	0.011937901	0.123161127	0.037959456
2019-12-12T12:55:00	0.2377	3.724		0.594461285	0.732207004	0.011971307	0.123505768	0.038065677
2019-12-12T13:00:00	0.2381	3.728		0.595691281	0.734004107	0.012017237	0.123979619	0.038211723
2019-12-12T13:05:00	0.2382	3.734		0.595918803	0.734336668	0.012025743	0.124067373	0.038238769
2019-12-12T13:10:00	0.2383	3.741		0.596480335	0.735157629	0.012046749	0.124284089	0.038305563
2019-12-12T13:15:00	0.2388	3.748		0.598043506	0.737444375	0.012105324	0.124888399	0.038491818
2019-12-12T13:20:00	0.2391	3.757		0.598938494	0.738754563	0.012138927	0.125235073	0.038598666
2019-12-12T13:25:00	0.2391	3.768		0.599165806	0.739087436	0.012147469	0.125323201	0.038625828
2019-12-12T13:30:00	0.2386	3.781		0.597390129	0.736488308	0.012080823	0.124635625	0.038413910
2019-12-12T13:35:00	0.2383	3.783		0.596281679	0.734867164	0.012039315	0.124207398	0.038281926
2019-12-12T13:40:00	0.2383	3.784		0.596509162	0.735199782	0.012047828	0.124295220	0.038308994
2019-12-12T13:45:00	0.2381	3.779		0.595734532	0.734067321	0.012018854	0.123996298	0.038216863
2019-12-12T13:50:00	0.2381	3.773		0.595627975	0.733911582	0.012014871	0.123955208	0.038204199
2019-12-12T13:55:00	0.2383	3.769		0.596189554	0.734732474	0.012035869	0.124171842	0.038270968
2019-12-12T14:00:00	0.2382	3.761		0.596083011	0.734576715	0.012031884	0.124130727	0.038258296
2019-12-12T14:05:00	0.2382	3.750		0.595976466	0.734420960	0.012027899	0.124089618	0.038245625
2019-12-12T14:10:00	0.2385	3.742		0.596871977	0.735730367	0.012061411	0.124435354	0.038352185
2019-12-12T14:15:00	0.2381	3.730		0.595763365	0.734109464	0.012019932	0.124007418	0.038220291
2019-12-12T14:20:00	0.2389	3.714		0.598328501	0.737861511	0.012116019	0.124998738	0.038525825
2019-12-12T14:25:00	0.2398	3.699		0.601225354	0.742105377	0.012225006	0.126123132	0.038872374
2019-12-12T14:30:00	0.2401	3.680		0.602452999	0.743905986	0.012271344	0.126601197	0.039019719
2019-12-12T14:35:00	0.2399	3.661		0.601679670	0.742771584	0.012242144	0.126299942	0.038926869
2019-12-12T14:40:00	0.2402	3.644		0.602573739	0.744083145	0.012275907	0.126648265	0.039034225
2019-12-12T14:45:00	0.2397	3.628		0.601133358	0.741970496	0.012221537	0.126087345	0.038861344
2019-12-12T14:50:00	0.2405	3.609		0.603694604	0.745728352	0.012318301	0.127085645	0.039169030
2019-12-12T14:55:00	0.2412	3.590		0.605920894	0.748999226	0.012402730	0.127956681	0.039437492
2019-12-12T15:00:00	0.2414	3.572		0.606813893	0.750312392	0.012436679	0.128306928	0.039545441
2019-12-12T15:05:00	0.2423	3.557		0.609703819	0.754566645	0.012546874	0.129443782	0.039895831
2019-12-12T15:10:00	0.2424	3.544		0.609930442	0.754900552	0.012555536	0.129533150	0.039923375
2019-12-12T15:15:00	0.2425	3.533		0.610489757	0.755724835	0.012576928	0.129753852	0.039991397
2019-12-12T15:20:00	0.2431	3.522		0.612379291	0.758511452	0.012649338	0.130500883	0.040221640
2019-12-12T15:25:00	0.2439	3.513		0.614932434	0.762281502	0.012747518	0.131513790	0.040533827
2019-12-12T15:30:00	0.2441	3.505		0.615823170	0.763598082	0.012781863	0.131868123	0.040643036
2019-12-12T15:35:00	0.2443	3.498		0.616381559	0.764423766	0.012803418	0.132090500	0.040711575
2019-12-12T15:40:00	0.2442	3.488		0.615943456	0.763775925	0.012786505	0.131916010	0.040657795
2019-12-12T15:45:00	0.2437	3.476		0.614508492	0.761655118	0.012731188	0.131345320	0.040481903
2019-12-12T15:50:00	0.2442	3.464		0.616063737	0.763953774	0.012791147	0.131963904	0.040672557
2019-12-12T15:55:00	0.2438	3.455		0.614628822	0.761832893	0.012735822	0.131393127	0.040496638
2019-12-12T16:00:00	0.2434	3.447		0.613193329	0.759712890	0.012680598	0.130823397	0.040321041
2019-12-12T16:05:00	0.2437	3.442		0.614213766	0.761219741	0.012719842	0.131228265	0.040445826
2019-12-12T16:10:00	0.2432	3.434		0.612574937	0.758800156	0.012656847	0.130578359	0.040245518
2019-12-12T16:15:00	0.2434	3.426		0.613263136	0.759815946	0.012683281	0.130851073	0.040329572
2019-12-12T16:20:00	0.2439	3.419		0.614948165	0.762304749	0.012748124	0.131520043	0.040535755
2019-12-12T16:25:00	0.2441	3.412		0.615635905	0.763321233	0.012774638	0.131793588	0.040620064
2019-12-12T16:30:00	0.2452	3.405		0.619311570	0.768760645	0.012916829	0.133260545	0.041072194
2019-12-12T16:35:00	0.2459	3.396		0.621657098	0.772237610	0.013007990	0.134201033	0.041362062
2019-12-12T16:40:00	0.2466	3.388		0.624001084	0.775716926	0.013099422	0.135144324	0.041652793
2019-12-12T16:45:00	0.2470	3.380		0.625349753	0.777720935	0.013152180	0.135688619	0.041820550
2019-12-12T16:50:00	0.2471	3.375		0.625704231	0.778247916	0.013166065	0.135831868	0.041864701
2019-12-12T16:55:00	0.2473	3.370		0.626389900	0.779267556	0.013192944	0.136109176	0.041950170
2019-12-12T17:00:00	0.2482	3.360		0.629392706	0.783737636	0.013310994	0.137327069	0.042325536
2019-12-12T17:05:00	0.2481	3.352		0.629084926	0.783279113	0.013298869	0.137201979	0.042286983
2019-12-12T17:10:00	0.2492	3.344		0.632416138	0.788246126	0.013430405	0.138559015	0.042705234
2019-12-12T17:15:00	0.2493	3.338		0.632769917	0.788774181	0.013444414	0.138703541	0.042749778
2019-12-12T17:20:00	0.2488	3.332		0.631139592	0.786341619	0.013379920	0.138038169	0.042544704
2019-12-12T17:25:00	0.2489	3.327		0.631493497	0.786869479	0.013393907	0.138182465	0.042589178
2019-12-12T17:30:00	0.2485	3.324		0.630193463	0.784930958	0.013342566	0.137652795	0.042425928
2019-12-12T17:35:00	0.2489	3.320		0.631539798	0.786938546	0.013395737	0.138201348	0.042594998
2019-12-12T17:40:00	0.2494	3.314		0.633216219	0.789440488	0.013462097	0.138885976	0.042806007
2019-12-12T17:45:00	0.2503	3.308		0.636213306	0.793919366	0.013581160	0.140114325	0.043184596
2019-12-12T17:50:00	0.2514	3.301		0.639867882	0.799391110	0.013727080	0.141619753	0.043648583
2019-12-12T17:55:00	0.2523	3.291		0.642859420	0.803878576	0.013847130	0.142858288	0.044030312
2019-12-12T18:00:00	0.2526	3.279		0.643871427	0.805398362	0.013887865	0.143278543	0.044159838
2019-12-12T18:05:00	0.2525	3.267		0.643564887	0.804937922	0.013875520	0.143151178	0.044120583
2019-12-12T18:10:00	0.2524	3.249		0.643258321	0.804477522	0.013863179	0.143023862	0.044081343
2019-12-12T18:15:00	0.2533	3.229		0.646247041	0.808969372	0.013983732	0.144267588	0.044464672
2019-12-12T18:20:00	0.2552	3.207		0.652522853	0.818426265	0.014238646	0.146897483	0.045275231
2019-12-12T18:25:00	0.2544	3.190		0.649585407	0.813995710	0.014119032	0.145663453	0.044894891
2019-12-12T18:30:00	0.2533	3.173		0.645986817	0.808577972	0.013973214	0.144159075	0.044431227
2019-12-12T18:35:00	0.2547	3.154		0.650618553	0.815553167	0.014161042	0.146096861	0.045028472
2019-12-12T18:40:00	0.2539	3.139		0.648008789	0.811620726	0.014055049	0.145003351	0.044691441
2019-12-12T18:45:00	0.2534	3.124		0.646385371	0.809177458	0.013989325	0.144325288	0.044482456
2019-12-12T18:50:00	0.2542	3.111		0.649042387	0.813177476	0.014096978	0.145435923	0.044824764
2019-12-12T18:55:00	0.2540	3.095		0.648407119	0.812220562	0.014071200	0.145169977	0.044742797
2019-12-12T19:00:00	0.2544	3.086		0.649746643	0.814238710	0.014125584	0.145731048	0.044915724
2019-12-12T19:05:00	0.2553	3.073		0.652729986	0.818738962	0.014247100	0.146984705	0.045302114
2019-12-12T19:10:00	0.2555	3.059		0.653410512	0.819766572	0.014274895	0.147271461	0.045390495
2019-12-12T19:15:00	0.2562	3.045		0.655733859	0.823277856	0.014370002	0.148252657	0.045692909
2019-12-12T19:20:00	0.2558	3.035		0.654442563	0.821325746	0.014317101	0.147706897	0.045524700
2019-12-12T19:25:00	0.2557	3.026		0.654136921	0.820863901	0.014304595	0.147577872	0.045484933
2019-12-12T19:30:00	0.2555	3.012		0.653502550	0.819905581	0.014278656	0.147310266	0.045402455
2019-12-12T19:35:00	0.2550	2.995		0.651552724	0.816962204	0.014199084	0.146489328	0.045149434
2019-12-12T19:40:00	0.2556	2.979		0.653548568	0.819975087	0.014280537	0.147329670	0.045408435
2019-12-12T19:45:00	0.2558	2.960		0.654228940	0.821002940	0.014308360	0.147616711	0.045496904
2019-12-12T19:50:00	0.2550	2.943		0.651621788	0.817066405	0.014201898	0.146518365	0.045158383
2019-12-12T19:55:00	0.2548	2.924		0.650986975	0.816108779	0.014176039	0.146251578	0.045076157
2019-12-12T20:00:00	0.2535	2.906		0.646731174	0.809697708	0.014003311	0.144469583	0.044526929
2019-12-12T20:05:00	0.2535	2.889		0.646754226	0.809732393	0.014004244	0.144479205	0.044529894
2019-12-12T20:10:00	0.2540	2.872		0.648423561	0.812245325	0.014071867	0.145176857	0.044744917
2019-12-12T20:15:00	0.2549	2.855		0.651407998	0.816743861	0.014193187	0.146428489	0.045130683
2019-12-12T20:20:00	0.2542	2.837		0.649127938	0.813306370	0.014100451	0.145471758	0.044835809
2019-12-12T20:25:00	0.2544	2.824		0.649809145	0.814332914	0.014128124	0.145757255	0.044923801
2019-12-12T20:30:00	0.2535	2.810		0.646869485	0.809905822	0.014008908	0.144527318	0.044544723
2019-12-12T20:35:00	0.2532	2.797		0.645904437	0.808454076	0.013969885	0.144124732	0.044420642
2019-12-12T20:40:00	0.2526	2.780		0.643950494	0.805517137	0.013891050	0.143311404	0.044169966
2019-12-12T20:45:00	0.2533	2.769		0.645950552	0.808523430	0.013971749	0.144143956	0.044426567
2019-12-12T20:50:00	0.2546	2.761		0.650253336	0.815002501	0.014146184	0.145943575	0.044981227
2019-12-12T20:55:00	0.2541	2.754		0.648630929	0.812557652	0.014080279	0.145263643	0.044771666
2019-12-12T21:00:00	0.2531	2.745		0.645360861	0.807636710	0.013947931	0.143898228	0.044350831
2019-12-12T21:05:00	0.2542	2.737		0.649006153	0.813122887	0.014095507	0.145420748	0.044820087
2019-12-12T21:10:00	0.2539	2.731		0.648041677	0.811670247	0.014056382	0.145017105	0.044695680
2019-12-12T21:15:00	0.2547	2.730		0.650697472	0.815672173	0.014164254	0.146129996	0.045038684
2019-12-12T21:20:00	0.2539	2.734		0.648087765	0.811739643	0.014058251	0.145036380	0.044701621
2019-12-12T21:25:00	0.2535	2.739		0.646793728	0.809791830	0.014005842	0.144495693	0.044534976
2019-12-12T21:30:00	0.2536	2.743		0.647146093	0.810322076	0.014020103	0.144642817	0.044580321
2019-12-12T21:35:00	0.2539	2.739		0.648156895	0.811843740	0.014061053	0.145065294	0.044710532
2019-12-12T21:40:00	0.2533	2.730		0.646204175	0.808904894	0.013981999	0.144249710	0.044459162
2019-12-12T21:45:00	0.2535	2.724		0.646885935	0.809930574	0.014009573	0.144534185	0.044546840
2019-12-12T21:50:00	0.2536	2.711		0.647238291	0.810460835	0.014023836	0.144681326	0.044592190
2019-12-12T21:55:00	0.2548	2.696		0.651210625	0.816446120	0.014185146	0.146345541	0.045105117
2019-12-12T22:00:00	0.2549	2.679		0.651233649	0.816480850	0.014186084	0.146355215	0.045108099
2019-12-12T22:05:00	0.2554	2.662		0.653028784	0.819190105	0.014259301	0.147110575	0.045340908
2019-12-12T22:10:00	0.2561	2.649		0.655480162	0.822894218	0.014359600	0.148145350	0.045659836
2019-12-12T22:15:00	0.2570	2.640		0.658258177	0.827098096	0.014473709	0.149322588	0.046022672
2019-12-12T22:20:00	0.2581	2.639		0.662018028	0.832798264	0.014628900	0.150923662	0.046516138
2019-12-12T22:25:00	0.2585	2.641		0.663152192	0.834520103	0.014675883	0.151408383	0.046665534
2019-12-12T22:30:00	0.2587	2.645		0.663958247	0.835744490	0.014709323	0.151753371	0.046771863
2019-12-12T22:35:00	0.2595	2.647		0.666402233	0.839460279	0.014810956	0.152801902	0.047095030
2019-12-12T22:40:00	0.2580	2.651		0.661636204	0.832218844	0.014613100	0.150760661	0.046465900
2019-12-12T22:45:00	0.2575	2.656		0.659818396	0.829462017	0.014538003	0.149985898	0.046227111
2019-12-12T22:50:00	0.2570	2.656		0.658327968	0.827203794	0.014476582	0.149352226	0.046031807
2019-12-12T22:55:00	0.2563	2.648		0.655851548	0.823455842	0.014374828	0.148302450	0.045708255
2019-12-12T23:00:00	0.2568	2.639		0.657644389	0.826168702	0.014448457	0.149062064	0.045942376
2019-12-12T23:05:00	0.2568	2.624		0.657466733	0.825899757	0.014441152	0.148986702	0.045919148
2019-12-12T23:10:00	0.2563	2.612		0.655975335	0.823643064	0.014379905	0.148354832	0.045724400
2019-12-12T23:15:00	0.2561	2.599		0.655469073	0.822877450	0.014359146	0.148140660	0.045658390
2019-12-12T23:20:00	0.2568	2.587		0.657590464	0.826087066	0.014446239	0.149039187	0.045935325
2019-12-12T23:25:00	0.2566	2.574		0.657084428	0.825321096	0.014425439	0.148824595	0.045869185
2019-12-12T23:30:00	0.2563	2.561		0.655921385	0.823561466	0.014377692	0.148332002	0.045717364
2019-12-12T23:35:00	0.2567	2.549		0.657385842	0.825777309	0.014437826	0.148952394	0.045908574
2019-12-12T23:40:00	0.2560	2.537		0.654908775	0.822030375	0.014336189	0.147903818	0.045585393
2019-12-12T23:45:00	0.2563	2.526		0.656045170	0.823748692	0.014382770	0.148384389	0.045733510
2019-12-12T23:50:00	0.2570	2.515		0.658166223	0.826958840	0.014469924	0.149283543	0.046010638
2019-12-12T23:55:00	0.2562	2.502		0.655689692	0.823211063	0.014368190	0.148233973	0.045687150
2019-12-13T00:00:00	0.2566	2.491		0.656825841	0.824929766	0.014414816	0.148714999	0.045835407
2019-12-13T00:05:00	0.2560	2.480		0.655005613	0.822176758	0.014340155	0.147944738	0.045598005
2019-12-13T00:10:00	0.2556	2.468		0.653513198	0.819921664	0.014279092	0.147314755	0.045403838
2019-12-13T00:15:00	0.2556	2.458		0.653664057	0.820149531	0.014285258	0.147378373	0.045423446
2019-12-13T00:20:00	0.2560	2.445		0.655129429	0.822363934	0.014345227	0.147997066	0.045614133
2019-12-13T00:25:00	0.2550	2.432		0.651664292	0.817130534	0.014203630	0.146536237	0.045163891
2019-12-13T00:30:00	0.2559	2.421		0.654773860	0.821826447	0.014330664	0.147846818	0.045567825
2019-12-13T00:35:00	0.2560	2.404		0.654924667	0.822054397	0.014336840	0.147910532	0.045587463
2019-12-13T00:40:00	0.2566	2.384		0.657046378	0.825263509	0.014423876	0.148808465	0.045864214
2019-12-13T00:45:00	0.2569	2.377		0.657853793	0.826485745	0.014457069	0.149150920	0.045969762
2019-12-13T00:50:00	0.2566	2.385		0.657019411	0.825222698	0.014422768	0.148797035	0.045860691
2019-12-13T00:55:00	0.2578	2.399		0.660780549	0.830920833	0.014577726	0.150395714	0.046353420
2019-12-13T01:00:00	0.2579	2.411		0.661259133	0.831646757	0.014597506	0.150599778	0.046416314
2019-12-13T01:05:00	0.2589	2.425		0.664360464	0.836355662	0.014726024	0.151925672	0.046824968
2019-12-13T01:10:00	0.2590	2.434		0.664838576	0.837082335	0.014745889	0.152130618	0.046888134
2019-12-13T01:15:00	0.2591	2.444		0.665316624	0.837809109	0.014765766	0.152335682	0.046951337
2019-12-13T01:20:00	0.2591	2.451		0.665139344	0.837539569	0.014758393	0.152259619	0.046927893
2019-12-13T01:25:00	0.2583	2.457		0.662667582	0.833784253	0.014655798	0.151201170	0.046601669
2019-12-13T01:30:00	0.2596	2.465		0.666750391	0.839990030	0.014825464	0.152951578	0.047141162
2019-12-13T01:35:00	0.2595	2.470		0.666573181	0.839720378	0.014818079	0.152875385	0.047117678
2019-12-13T01:40:00	0.2599	2.474		0.667705921	0.841444477	0.014865320	0.153362764	0.047267893
2019-12-13T01:45:00	0.2595	2.478		0.666546286	0.839679455	0.014816958	0.152863822	0.047114115
2019-12-13T01:50:00	0.2598	2.480		0.667351586	0.840905040	0.014850534	0.153210219	0.047220877
2019-12-13T01:55:00	0.2598	2.489		0.667501869	0.841133817	0.014856804	0.153274908	0.047240815
2019-12-13T02:00:00	0.2597	2.496		0.666997217	0.840365657	0.014835754	0.153057737	0.047173881
2019-12-13T02:05:00	0.2594	2.505		0.666164939	0.839099278	0.014801072	0.152699931	0.047063602
2019-12-13T02:10:00	0.2595	2.511		0.666315271	0.839327977	0.014807333	0.152764528	0.047083511
2019-12-13T02:15:00	0.2587	2.515		0.663844311	0.835571389	0.014704594	0.151704582	0.046756825
2019-12-13T02:20:00	0.2581	2.516		0.662027611	0.832812808	0.014629296	0.150927754	0.046517400
2019-12-13T02:25:00	0.2577	2.517		0.660538093	0.830553147	0.014567711	0.150292388	0.046321574
2019-12-13T02:30:00	0.2581	2.518		0.662000682	0.832771938	0.014628182	0.150916255	0.046513855
2019-12-13T02:35:00	0.2585	2.518		0.663134851	0.834493768	0.014675164	0.151400966	0.046663248
2019-12-13T02:40:00	0.2592	2.514		0.665579392	0.838208677	0.014776697	0.152448460	0.046986096
2019-12-13T02:45:00	0.2584	2.508		0.662780069	0.833955040	0.014660459	0.151249255	0.046616489
2019-12-13T02:50:00	0.2589	2.508		0.664569481	0.836673319	0.014734707	0.152015251	0.046852577
2019-12-13T02:55:00	0.2573	2.501		0.659144689	0.828441013	0.014510222	0.149699290	0.046138775
2019-12-13T03:00:00	0.2587	2.492		0.663887079	0.835636365	0.014706369	0.151722895	0.046762470
2019-12-13T03:05:00	0.2583	2.484		0.662398326	0.833375493	0.014644645	0.151086104	0.046566204
2019-12-13T03:10:00	0.2575	2.472		0.659924691	0.829623142	0.014542389	0.150031144	0.046241056
2019-12-13T03:15:00	0.2584	2.462		0.663027165	0.834330238	0.014670700	0.151354909	0.046649053
2019-12-13T03:20:00	0.2584	2.462		0.662849773	0.834060876	0.014663348	0.151279055	0.046625674
2019-12-13T03:25:00	0.2580	2.465		0.661688583	0.832298321	0.014615267	0.150783015	0.046472790
2019-12-13T03:30:00	0.2577	2.466		0.660527020	0.830536355	0.014567254	0.150287670	0.046320119
2019-12-13T03:35:00	0.2577	2.462		0.660677586	0.830764683	0.014573473	0.150351831	0.046339894
2019-12-13T03:40:00	0.2570	2.453		0.658202775	0.827014193	0.014471429	0.149299063	0.046015421
2019-12-13T03:45:00	0.2562	2.447		0.655726268	0.823266376	0.014369690	0.148249446	0.045691919
2019-12-13T03:50:00	0.2565	2.438		0.656533979	0.824488148	0.014402831	0.148591352	0.045797298
2019-12-13T03:55:00	0.2561	2.433		0.655370759	0.822728797	0.014355116	0.148099088	0.045645577
2019-12-13T04:00:00	0.2561	2.427		0.655192991	0.822460028	0.014347832	0.148023934	0.045622414
2019-12-13T04:05:00	0.2548	2.424		0.651180896	0.816401275	0.014183936	0.146333048	0.045101267
2019-12-13T04:10:00	0.2546	2.420		0.650455792	0.815307745	0.014154420	0.146028538	0.045007414
2019-12-13T04:15:00	0.2539	2.412		0.648084856	0.811735264	0.014058133	0.145035163	0.044701246
2019-12-13T04:20:00	0.2530	2.409		0.645053440	0.807174558	0.013935522	0.143770210	0.044311375
2019-12-13T04:25:00	0.2521	2.398		0.642019468	0.802617835	0.013813368	0.142509970	0.043922957
2019-12-13T04:30:00	0.2527	2.383		0.644259801	0.805981835	0.013903514	0.143439993	0.044209599
2019-12-13T04:35:00	0.2521	2.363		0.642214544	0.802910585	0.013821205	0.142590827	0.043947878
2019-12-13T04:40:00	0.2507	2.348		0.637527650	0.795885937	0.013633546	0.140654779	0.043351169
2019-12-13T04:45:00	0.2517	2.331		0.640760572	0.800729396	0.013762847	0.141988751	0.043762312
2019-12-13T04:50:00	0.2501	2.317		0.635411088	0.792719776	0.013549238	0.139784987	0.043083091
2019-12-13T04:55:00	0.2491	2.302		0.632368950	0.788175700	0.013428537	0.138539743	0.042699294
2019-12-13T05:00:00	0.2487	2.288		0.630978531	0.786101426	0.013373557	0.137972527	0.042524473
2019-12-13T05:05:00	0.2478	2.273		0.627932622	0.781563153	0.013253525	0.136734178	0.042142802
2019-12-13T05:10:00	0.2481	2.257		0.628858093	0.782941235	0.013289937	0.137109827	0.042258580
2019-12-13T05:15:00	0.2487	2.239		0.630775873	0.785799231	0.013365554	0.137889954	0.042499023
2019-12-13T05:20:00	0.2466	2.223		0.624085996	0.775843053	0.013102741	0.135178559	0.041663345
2019-12-13T05:25:00	0.2458	2.215		0.621365893	0.771805682	0.012996654	0.134084082	0.041326016
2019-12-13T05:30:00	0.2460	2.205		0.621961463	0.772689135	0.013019844	0.134323325	0.041399753
2019-12-13T05:35:00	0.2454	2.195		0.619903424	0.769637560	0.012939801	0.133497538	0.041145238
2019-12-13T05:40:00	0.2446	2.182		0.617180126	0.765605054	0.012834276	0.132408864	0.040809698
2019-12-13T05:45:00	0.2456	2.170		0.620763236	0.770912019	0.012973210	0.133842217	0.041251471
2019-12-13T05:50:00	0.2464	2.171		0.623348411	0.774747658	0.013073930	0.134881325	0.041571734
2019-12-13T05:55:00	0.2462	2.178		0.622617657	0.773662864	0.013045418	0.134587177	0.041481075
2019-12-13T06:00:00	0.2456	2.186		0.620559997	0.770610712	0.012965309	0.133760702	0.041226347
2019-12-13T06:05:00	0.2450	2.190		0.618501149	0.767560370	0.012885409	0.132936384	0.040972285
2019-12-13T06:10:00	0.2446	2.196		0.617437375	0.765985707	0.012844225	0.132511505	0.040841333
2019-12-13T06:15:00	0.2438	2.201		0.614712189	0.761956067	0.012739033	0.131426253	0.040506848
2019-12-13T06:20:00	0.2451	2.207		0.618961643	0.768242318	0.012903257	0.133120527	0.041029039
2019-12-13T06:25:00	0.2446	2.210		0.617233947	0.765684688	0.012836358	0.132430335	0.040816315
2019-12-13T06:30:00	0.2450	2.211		0.618826084	0.768041549	0.012898002	0.133066306	0.041012328
2019-12-13T06:35:00	0.2444	2.213		0.616766233	0.764992731	0.012818278	0.132243808	0.040758826
2019-12-13T06:40:00	0.2437	2.220		0.614372876	0.761454773	0.012725967	0.131291451	0.040465300
2019-12-13T06:45:00	0.2431	2.223		0.612310445	0.758409867	0.012646695	0.130473626	0.040213239
2019-12-13T06:50:00	0.2420	2.221		0.608582855	0.752915644	0.012504071	0.129002198	0.039759730
2019-12-13T06:55:00	0.2407	2.220		0.604518109	0.746937766	0.012349497	0.127407484	0.039268224
2019-12-13T07:00:00	0.2400	2.214		0.602116478	0.743412279	0.012258633	0.126470058	0.038979300
2019-12-13T07:05:00	0.2415	2.206		0.607047113	0.750655453	0.012445554	0.128398482	0.039573659
2019-12-13T07:10:00	0.2411	2.194		0.605646774	0.748596263	0.012392319	0.127849266	0.039404385
2019-12-13T07:15:00	0.2419	2.177		0.608242956	0.752415236	0.012491108	0.128868454	0.039718509
2019-12-13T07:20:00	0.2449	2.164		0.618480170	0.767529306	0.012884596	0.132927998	0.040969700
2019-12-13T07:25:00	0.2472	2.156		0.626039091	0.778745827	0.013179189	0.135967260	0.041906430
2019-12-13T07:30:00	0.2478	2.152		0.627958383	0.781601502	0.013254538	0.136744627	0.042146022
2019-12-13T07:35:00	0.2467	2.156		0.624247143	0.776082435	0.013109039	0.135243544	0.041683374
2019-12-13T07:40:00	0.2462	2.167		0.622522007	0.773520906	0.013041689	0.134548700	0.041469216
2019-12-13T07:45:00	0.2454	2.182		0.620132517	0.769977073	0.012948698	0.133589331	0.041173529
2019-12-13T07:50:00	0.2466	2.190		0.624044104	0.775780825	0.013101103	0.135161668	0.041658139
2019-12-13T07:55:00	0.2464	2.199		0.623313493	0.774695813	0.013072567	0.134867262	0.041567400
2019-12-13T08:00:00	0.2452	2.204		0.619265562	0.768692489	0.012915044	0.133242131	0.041066519
2019-12-13T08:05:00	0.2465	2.213		0.623509591	0.774986990	0.013080223	0.134946249	0.041591744
2019-12-13T08:10:00	0.2459	2.217		0.621784098	0.772426005	0.013012935	0.134252054	0.041377787
2019-12-13T08:15:00	0.2472	2.224		0.626025134	0.778725073	0.013178642	0.135961616	0.041904690
2019-12-13T08:20:00	0.2465	2.233		0.623637989	0.775177660	0.013085237	0.134997979	0.041607688
2019-12-13T08:25:00	0.2456	2.241		0.620585811	0.770648980	0.012966312	0.133771054	0.041229538
2019-12-13T08:30:00	0.2458	2.253		0.621181511	0.771532235	0.012989479	0.134010060	0.041303202
2019-12-13T08:35:00	0.2437	2.265		0.614473601	0.761603571	0.012729845	0.131331459	0.040477631
2019-12-13T08:40:00	0.2432	2.279		0.612743723	0.759049249	0.012663328	0.130645217	0.040266125
2019-12-13T08:45:00	0.2435	2.293		0.613673146	0.760421314	0.012699043	0.131013688	0.040379691
2019-12-13T08:50:00	0.2444	2.307		0.616595606	0.764740344	0.012811685	0.132175795	0.040737864
2019-12-13T08:55:00	0.2433	2.313		0.612872511	0.759239328	0.012668274	0.130696243	0.040281851
2019-12-13T09:00:00	0.2447	2.323		0.617788241	0.766504975	0.012857801	0.132651566	0.040884501
2019-12-13T09:05:00	0.2451	2.336		0.619048254	0.768370600	0.012906616	0.133155176	0.041039718
2019-12-13T09:10:00	0.2448	2.348		0.617984643	0.766795688	0.012865404	0.132730001	0.040908675
2019-12-13T09:15:00	0.2434	2.362		0.613265847	0.759819948	0.012683385	0.130852148	0.040329903
2019-12-13T09:20:00	0.2443	2.384		0.616188642	0.764138472	0.012795969	0.132013649	0.040687889
2019-12-13T09:25:00	0.2443	2.397		0.616452960	0.764529364	0.012806175	0.132118949	0.040720343
2019-12-13T09:30:00	0.2428	2.416		0.611399539	0.757066175	0.012611766	0.130113260	0.040102170
2019-12-13T09:35:00	0.2428	2.432		0.611331616	0.756966008	0.012609163	0.130086410	0.040093895
2019-12-13T09:40:00	0.2432	2.447		0.612593918	0.758828166	0.012657576	0.130585876	0.040247835
2019-12-13T09:45:00	0.2420	2.466		0.608533767	0.752843369	0.012502199	0.128982878	0.039753776
2019-12-13T09:50:00	0.2417	2.483		0.607799964	0.751763196	0.012474222	0.128694253	0.039664819
2019-12-13T09:55:00	0.2415	2.496		0.607066010	0.750683252	0.012446273	0.128405901	0.039575946
2019-12-13T10:00:00	0.2418	2.505		0.607996919	0.752053074	0.012481728	0.128771688	0.039688685
2019-12-13T10:05:00	0.2406	2.525		0.604005531	0.746184918	0.012330075	0.127207111	0.039206467
2019-12-13T10:10:00	0.2395	2.548		0.600343302	0.740812435	0.012191768	0.125780222	0.038766686
2019-12-13T10:15:00	0.2382	2.573		0.596009232	0.734468858	0.012029124	0.124102260	0.038249522
2019-12-13T10:20:00	0.2384	2.583		0.596683254	0.735454363	0.012054345	0.124362451	0.038329715
2019-12-13T10:25:00	0.2371	2.581		0.592344689	0.729117478	0.011892481	0.122692539	0.037815032
2019-12-13T10:30:00	0.2362	2.581		0.589339781	0.724737730	0.011781032	0.121542740	0.037460653
2019-12-13T10:35:00	0.2361	2.588		0.589011068	0.724259078	0.011768873	0.121417298	0.037421990
2019-12-13T10:40:00	0.2364	2.596		0.590021067	0.725730067	0.011806253	0.121802941	0.037540849
2019-12-13T10:45:00	0.2361	2.607		0.589023048	0.724276521	0.011769316	0.121421868	0.037423399
2019-12-13T10:50:00	0.2375	2.613		0.593711951	0.731112798	0.011943370	0.123217547	0.037976845
2019-12-13T10:55:00	0.2374	2.619		0.593383646	0.730633542	0.011931141	0.123091378	0.037937958
2019-12-13T11:00:00	0.2362	2.623		0.589375717	0.724790064	0.011782362	0.121556458	0.037464881
2019-12-13T11:05:00	0.2367	2.630		0.591054722	0.727236389	0.011844572	0.122198265	0.037662692
2019-12-13T11:10:00	0.2356	2.637		0.587379031	0.721883932	0.011708600	0.120795470	0.037230337
2019-12-13T11:15:00	0.2349	2.645		0.585040137	0.718483944	0.011622498	0.119907170	0.036956554
2019-12-13T11:20:00	0.2352	2.653		0.586051275	0.719953250	0.011659681	0.120290783	0.037074788
2019-12-13T11:25:00	0.2353	2.659		0.586392252	0.720448923	0.011672234	0.120420287	0.037114702
2019-12-13T11:30:00	0.2343	2.666		0.583046989	0.715590149	0.011549381	0.119152832	0.036724060
2019-12-13T11:35:00	0.2333	2.672		0.579698539	0.710736060	0.011427076	0.117891040	0.036335164
2019-12-13T11:40:00	0.2330	2.676		0.578697586	0.709286833	0.011390645	0.117515186	0.036219321
2019-12-13T11:45:00	0.2325	2.680		0.577024690	0.706866591	0.011329890	0.116888387	0.036026136
2019-12-13T11:50:00	0.2326	2.679		0.577366545	0.707360976	0.011342292	0.117016333	0.036065570
2019-12-13T11:55:00	0.2330	2.682		0.578715609	0.709312920	0.011391301	0.117521948	0.036221406
2019-12-13T12:00:00	0.2321	2.682		0.575699026	0.704950351	0.011281863	0.116392905	0.035873424
2019-12-13T12:05:00	0.2304	2.681		0.569988590	0.696712582	0.011076173	0.114270837	0.035219382
2019-12-13T12:10:00	0.2301	2.676		0.568984859	0.695267407	0.011040218	0.113899895	0.035105054
2019-12-13T12:15:00	0.2267	2.677		0.557526584	0.678828667	0.010633981	0.109708819	0.033813323
2019-12-13T12:20:00	0.2258	2.681		0.554491644	0.674492674	0.010527677	0.108612102	0.033475305
2019-12-13T12:25:00	0.2256	2.675		0.553821559	0.673536349	0.010504279	0.108370711	0.033400906
2019-12-13T12:30:00	0.2241	2.666		0.548752416	0.666313771	0.010328131	0.106553421	0.032840799
2019-12-13T12:35:00	0.2238	2.653		0.547742548	0.664877417	0.010293219	0.106193242	0.032729788
2019-12-13T12:40:00	0.2232	2.643		0.545715865	0.661997349	0.010223335	0.105472267	0.032507577
2019-12-13T12:45:00	0.2241	2.638		0.548770594	0.666339634	0.010328760	0.106559910	0.032842799
2019-12-13T12:50:00	0.2243	2.636		0.549115228	0.666830010	0.010340688	0.106682972	0.032880728
2019-12-13T12:55:00	0.2239	2.638		0.547766792	0.664911890	0.010294056	0.106201882	0.032732451
2019-12-13T13:00:00	0.2236	2.643		0.546756637	0.663475943	0.010259193	0.105842203	0.032621595
2019-12-13T13:05:00	0.2231	2.653		0.545068348	0.661077887	0.010201059	0.105242442	0.032436743
2019-12-13T13:10:00	0.2251	2.672		0.551846854	0.670720256	0.010435480	0.107660927	0.033182143
2019-12-13T13:15:00	0.2264	2.692		0.556247917	0.677000923	0.010589127	0.109246074	0.033670701
2019-12-13T13:20:00	0.2301	2.706		0.568732556	0.694904271	0.011031190	0.113806750	0.035076345
2019-12-13T13:25:00	0.2321	2.711		0.575465246	0.704612574	0.011273405	0.116305638	0.035846527
2019-12-13T13:30:00	0.2325	2.712		0.576815042	0.706563448	0.011322288	0.116809957	0.036001963
2019-12-13T13:35:00	0.2329	2.712		0.578164317	0.708515081	0.011371260	0.117315195	0.036157683
2019-12-13T13:40:00	0.2328	2.713		0.577834558	0.708037968	0.011359282	0.117191614	0.036119593
2019-12-13T13:45:00	0.2295	2.717		0.566742170	0.692041382	0.010960097	0.113073299	0.034850289
2019-12-13T13:50:00	0.2306	2.721		0.570451568	0.697379461	0.011092778	0.114442144	0.035272180
2019-12-13T13:55:00	0.2301	2.726		0.568774729	0.694964966	0.011032698	0.113822316	0.035081143
2019-12-13T14:00:00	0.2286	2.724		0.563727312	0.687711166	0.010852858	0.111966930	0.034509295
2019-12-13T14:05:00	0.2270	2.720		0.558334939	0.679984836	0.010662386	0.110001872	0.033903645
2019-12-13T14:10:00	0.2259	2.717		0.554624727	0.674682649	0.010532327	0.108660076	0.033490091
2019-12-13T14:15:00	0.2259	2.714		0.554630776	0.674691284	0.010532538	0.108662257	0.033490763
2019-12-13T14:20:00	0.2252	2.712		0.552269875	0.671323250	0.010450199	0.107812778	0.033228945
2019-12-13T14:25:00	0.2245	2.708		0.549907369	0.667957508	0.010368132	0.106966103	0.032967992
2019-12-13T14:30:00	0.2239	2.707		0.547881950	0.665075641	0.010298035	0.106242924	0.032745101
2019-12-13T14:35:00	0.2232	2.701		0.545516456	0.661714155	0.010216472	0.105401463	0.032485755
2019-12-13T14:40:00	0.2240	2.696		0.548232733	0.665574511	0.010310157	0.106367994	0.032783649
2019-12-13T14:45:00	0.2249	2.689		0.551285249	0.669919946	0.010415956	0.107459497	0.033120061
2019-12-13T14:50:00	0.2232	2.676		0.545534651	0.661739993	0.010217099	0.105407923	0.032487746
2019-12-13T14:55:00	0.2215	2.667		0.539774499	0.653573600	0.010019854	0.103372985	0.031860558
2019-12-13T15:00:00	0.2229	2.661		0.544529912	0.660313581	0.010182553	0.105051527	0.032377901
2019-12-13T15:05:00	0.2229	2.655		0.544535978	0.660322191	0.010182762	0.105053677	0.032378564
2019-12-13T15:10:00	0.2217	2.650		0.540471597	0.654560461	0.010043621	0.103618189	0.031936132
2019-12-13T15:15:00	0.2195	2.642		0.533002735	0.644007669	0.009790450	0.101006264	0.031131112
2019-12-13T15:20:00	0.2194	2.629		0.532668669	0.643536727	0.009779202	0.100890224	0.031095347
2019-12-13T15:25:00	0.2201	2.616		0.535055125	0.646902965	0.009859695	0.101720653	0.031351293
2019-12-13T15:30:00	0.2201	2.606		0.535061208	0.646911552	0.009859900	0.101722774	0.031351947
2019-12-13T15:35:00	0.2208	2.600		0.537446013	0.650280112	0.009940670	0.102556065	0.031608775
2019-12-13T15:40:00	0.2204	2.593		0.536093026	0.648368434	0.009894806	0.102082888	0.031462937
2019-12-13T15:45:00	0.2211	2.588		0.538477119	0.651737996	0.009975696	0.102917412	0.031720146
2019-12-13T15:50:00	0.2205	2.581		0.536445004	0.648865612	0.009906727	0.102205878	0.031500844
2019-12-13T15:55:00	0.2213	2.568		0.539168403	0.652715891	0.009999212	0.103160028	0.031794923
2019-12-13T16:00:00	0.2223	2.561		0.542568121	0.657530838	0.010115273	0.104357409	0.032163967
2019-12-13T16:05:00	0.2233	2.553		0.545922594	0.662290971	0.010230453	0.105545695	0.032530208
2019-12-13T16:10:00	0.2242	2.551		0.548935265	0.666573930	0.010334458	0.106618702	0.032860919
2019-12-13T16:15:00	0.2250	2.555		0.551607025	0.670378460	0.010427140	0.107574885	0.033155624
2019-12-13T16:20:00	0.2249	2.554		0.551232900	0.669845361	0.010414137	0.107440731	0.033114277
2019-12-13T16:25:00	0.2242	2.550		0.548827812	0.666421041	0.010330740	0.106580336	0.032849095
2019-12-13T16:30:00	0.2228	2.542		0.544048497	0.659630416	0.010166022	0.104880978	0.032325336
2019-12-13T16:35:00	0.2226	2.536		0.543673556	0.659098478	0.010153157	0.104748246	0.032284427
2019-12-13T16:40:00	0.2230	2.532		0.544993792	0.660972041	0.010198495	0.105215996	0.032428592
2019-12-13T16:45:00	0.2220	2.531		0.541566634	0.656111471	0.010081014	0.104003960	0.032055031
2019-12-13T16:50:00	0.2202	2.529		0.535417950	0.647415158	0.009871962	0.101847208	0.031390299
2019-12-13T16:55:00	0.2191	2.520		0.531641030	0.642088612	0.009744643	0.100533686	0.030985458
2019-12-13T17:00:00	0.2180	2.507		0.527859970	0.636767864	0.009618018	0.099227322	0.030582824
2019-12-13T17:05:00	0.2161	2.492		0.521345514	0.627627911	0.009401807	0.096996707	0.029895327
2019-12-13T17:10:00	0.2166	2.477		0.523015458	0.629967602	0.009456996	0.097566085	0.030070815
2019-12-13T17:15:00	0.2179	2.467		0.527411188	0.636137104	0.009603044	0.099072837	0.030535210
2019-12-13T17:20:00	0.2184	2.456		0.529078192	0.638480888	0.009658725	0.099647281	0.030712260
2019-12-13T17:25:00	0.2186	2.447		0.530063602	0.639867424	0.009691715	0.099987636	0.030817161
2019-12-13T17:30:00	0.2189	2.442		0.531048731	0.641254354	0.009724752	0.100328478	0.030922211
2019-12-13T17:35:00	0.2189	2.439		0.531012728	0.641203652	0.009723544	0.100316011	0.030918369
2019-12-13T17:40:00	0.2203	2.436		0.535738163	0.647867285	0.009882794	0.101958965	0.031424743
2019-12-13T17:45:00	0.2202	2.433		0.535362320	0.647336619	0.009870080	0.101827799	0.031384316
2019-12-13T17:50:00	0.2200	2.436		0.534646478	0.646326214	0.009845888	0.101578210	0.031307391
2019-12-13T17:55:00	0.2206	2.435		0.536649786	0.649154917	0.009913666	0.102277468	0.031522909
2019-12-13T18:00:00	0.2200	2.431		0.534574546	0.646224707	0.009843459	0.101553147	0.031299666
2019-12-13T18:05:00	0.2200	2.418		0.534538580	0.646173954	0.009842244	0.101540617	0.031295804
2019-12-13T18:10:00	0.2203	2.405		0.535862306	0.648042592	0.009886995	0.102002309	0.031438102
2019-12-13T18:15:00	0.2207	2.391		0.537185524	0.649911942	0.009931832	0.102464879	0.031580671
2019-12-13T18:20:00	0.2205	2.387		0.536470059	0.648901006	0.009907576	0.102214636	0.031503543
2019-12-13T18:25:00	0.2209	2.393		0.537793045	0.650770684	0.009952452	0.102677609	0.031646236
2019-12-13T18:30:00	0.2212	2.397		0.538775972	0.652160707	0.009985859	0.103022263	0.031752462
2019-12-13T18:35:00	0.2217	2.403		0.540437499	0.654512180	0.010042458	0.103606188	0.031932433
2019-12-13T18:40:00	0.2217	2.406		0.540401594	0.654461341	0.010041233	0.103593552	0.031928539
2019-12-13T18:45:00	0.2219	2.406		0.541044450	0.655371727	0.010063174	0.103819909	0.031998304
2019-12-13T18:50:00	0.2222	2.406		0.542026453	0.656763053	0.010096736	0.104166166	0.032105024
2019-12-13T18:55:00	0.2223	2.406		0.542669007	0.657673865	0.010118728	0.104393047	0.032174951
2019-12-13T19:00:00	0.2214	2.409		0.539579054	0.653296986	0.010013195	0.103304289	0.031839385
2019-12-13T19:05:00	0.2217	2.411		0.540561473	0.654687724	0.010046688	0.103649824	0.031945882
2019-12-13T19:10:00	0.2215	2.411		0.539846707	0.653675803	0.010022314	0.103398370	0.031868382
2019-12-13T19:15:00	0.2214	2.412		0.539471310	0.653144509	0.010009526	0.103266429	0.031827716
2019-12-13T19:20:00	0.2216	2.417		0.540114339	0.654054651	0.010031437	0.103492486	0.031897389
2019-12-13T19:25:00	0.2206	2.417		0.536682343	0.649200916	0.009914770	0.102288853	0.031526418
2019-12-13T19:30:00	0.2200	2.417		0.534607123	0.646270678	0.009844559	0.101564498	0.031303165
2019-12-13T19:35:00	0.2196	2.417		0.533210957	0.644301249	0.009797464	0.101078626	0.031153414
2019-12-13T19:40:00	0.2197	2.415		0.533515081	0.644730110	0.009807713	0.101184362	0.031186003
2019-12-13T19:45:00	0.2202	2.415		0.535519045	0.647557891	0.009875381	0.101882484	0.031401171
2019-12-13T19:50:00	0.2201	2.417		0.535143178	0.647027258	0.009862671	0.101751359	0.031360757
2019-12-13T19:55:00	0.2203	2.419		0.535787012	0.647936265	0.009884447	0.101976019	0.031430000
2019-12-13T20:00:00	0.2205	2.417		0.536430726	0.648845441	0.009906243	0.102200887	0.031499306
2019-12-13T20:05:00	0.2217	2.414		0.540470021	0.654558229	0.010043567	0.103617634	0.031935961
2019-12-13T20:10:00	0.2220	2.410		0.541452188	0.655949325	0.010077102	0.103963608	0.032042594
2019-12-13T20:15:00	0.2230	2.408		0.544807740	0.660707927	0.010192100	0.105150016	0.032408256
2019-12-13T20:20:00	0.2228	2.406		0.544093849	0.659694767	0.010167579	0.104897039	0.032330286
2019-12-13T20:25:00	0.2225	2.406		0.543040676	0.658200856	0.010131459	0.104524395	0.032215434
2019-12-13T20:30:00	0.2223	2.403		0.542665626	0.657669072	0.010118612	0.104391853	0.032174583
2019-12-13T20:35:00	0.2216	2.405		0.540254586	0.654253202	0.010036219	0.103541824	0.031912596
2019-12-13T20:40:00	0.2212	2.409		0.538860700	0.652280564	0.009988741	0.103052000	0.031761627
2019-12-13T20:45:00	0.2215	2.405		0.539843323	0.653671014	0.010022199	0.103397180	0.031868015
2019-12-13T20:50:00	0.2224	2.396		0.542861281	0.657946477	0.010125313	0.104460987	0.032195891
2019-12-13T20:55:00	0.2228	2.383		0.544181827	0.659819603	0.010170599	0.104928198	0.032339890
2019-12-13T21:00:00	0.2232	2.371		0.545501869	0.661693441	0.010215971	0.105396285	0.032484159
2019-12-13T21:05:00	0.2239	2.362		0.547837606	0.665012584	0.010296503	0.106227119	0.032740230
2019-12-13T21:10:00	0.2237	2.354		0.547124339	0.663998538	0.010271876	0.105973056	0.032661925
2019-12-13T21:15:00	0.2245	2.352		0.549797493	0.667801083	0.010364323	0.106926808	0.032955881
2019-12-13T21:20:00	0.2245	2.350		0.550100163	0.668231999	0.010374817	0.107035070	0.032989248
2019-12-13T21:25:00	0.2255	2.356		0.553447366	0.673002473	0.010491225	0.108236030	0.033359396
2019-12-13T21:30:00	0.2261	2.362		0.555439842	0.675846543	0.010560831	0.108954146	0.033580726
2019-12-13T21:35:00	0.2260	2.372		0.555066129	0.675312855	0.010547758	0.108819271	0.033539156
2019-12-13T21:40:00	0.2261	2.382		0.555368341	0.675744426	0.010558329	0.108928334	0.033572771
2019-12-13T21:45:00	0.2257	2.394		0.553980515	0.673763173	0.010509827	0.108427949	0.033418547
2019-12-13T21:50:00	0.2266	2.408		0.556986211	0.678056087	0.010615014	0.109513139	0.033753013
2019-12-13T21:55:00	0.2259	2.422		0.554585101	0.674626082	0.010530942	0.108645791	0.033485688
2019-12-13T22:00:00	0.2261	2.429		0.555225335	0.675540197	0.010553326	0.108876719	0.033556862
2019-12-13T22:05:00	0.2264	2.432		0.556442502	0.677278979	0.010595947	0.109316430	0.033692385
2019-12-13T22:10:00	0.2261	2.439		0.555294350	0.675638757	0.010555740	0.108901627	0.033564539
2019-12-13T22:15:00	0.2270	2.448		0.558537936	0.680275261	0.010669525	0.110075527	0.033926346
2019-12-13T22:20:00	0.2268	2.455		0.557728212	0.679117000	0.010641062	0.109781878	0.033835841
2019-12-13T22:25:00	0.2263	2.466		0.555904755	0.676510631	0.010577106	0.109122054	0.033632477
2019-12-13T22:30:00	0.2253	2.476		0.552727780	0.671976135	0.010466144	0.107977273	0.033279644
2019-12-13T22:35:00	0.2256	2.479		0.553607718	0.673231239	0.010496818	0.108293734	0.033377181
2019-12-13T22:40:00	0.2256	2.478		0.553811296	0.673521705	0.010503921	0.108367016	0.033399767
2019-12-13T22:45:00	0.2249	2.480		0.551309162	0.669954018	0.010416787	0.107468070	0.033122703
2019-12-13T22:50:00	0.2248	2.488		0.550836160	0.669280163	0.010400356	0.107298560	0.033070458
2019-12-13T22:55:00	0.2237	2.494		0.547315829	0.664270737	0.010278485	0.106041234	0.032682938
2019-12-13T23:00:00	0.2235	2.495		0.546503487	0.663116218	0.010250465	0.105752162	0.032593843
2019-12-13T23:05:00	0.2232	2.496		0.545690954	0.661961969	0.010222478	0.105463421	0.032504851
2019-12-13T23:10:00	0.2232	2.498		0.545556108	0.661770465	0.010217837	0.105415541	0.032490093
2019-12-13T23:15:00	0.2232	2.499		0.545421257	0.661578969	0.010213197	0.105367670	0.032475339
2019-12-13T23:20:00	0.2231	2.498		0.545286401	0.661387480	0.010208558	0.105319808	0.032460588
2019-12-13T23:25:00	0.2237	2.498		0.547184615	0.664084216	0.010273956	0.105994514	0.032668539
2019-12-13T23:30:00	0.2227	2.496		0.543999649	0.659561108	0.010164346	0.104863681	0.032320005
2019-12-13T23:35:00	0.2224	2.496		0.542847375	0.657926759	0.010124837	0.104456072	0.032194376
2019-12-13T23:40:00	0.2230	2.496		0.544746924	0.660621600	0.010190010	0.105128453	0.032401610
2019-12-13T23:45:00	0.2237	2.500		0.547322965	0.664280881	0.010278731	0.106043775	0.032683721
2019-12-13T23:50:00	0.2242	2.505		0.548881501	0.666497430	0.010332598	0.106599505	0.032855003
2019-12-13T23:55:00	0.2240	2.514		0.548408168	0.665824047	0.010316223	0.106430572	0.032802936
2019-12-14T00:00:00	0.2244	2.524		0.549627725	0.667559416	0.010358439	0.106866108	0.032937172
2019-12-14T00:05:00	0.2239	2.534		0.547800013	0.664959127	0.010295204	0.106213721	0.032736100
2019-12-14T00:10:00	0.2236	2.543		0.546987784	0.663804447	0.010267165	0.105924451	0.032646944
2019-12-14T00:15:00	0.2226	2.552		0.543463543	0.658800578	0.010145954	0.104673937	0.032261524
2019-12-14T00:20:00	0.2230	2.560		0.545023814	0.661014663	0.010199528	0.105226645	0.032431874
2019-12-14T00:25:00	0.2233	2.569		0.545905706	0.662266984	0.010229871	0.105539696	0.032528359
2019-12-14T00:30:00	0.2240	2.578		0.548142250	0.665445820	0.010307030	0.106335726	0.032773703
2019-12-14T00:35:00	0.2242	2.590		0.549023350	0.666699267	0.010337507	0.106650157	0.032870614
2019-12-14T00:40:00	0.2236	2.603		0.546856557	0.663617943	0.010262639	0.105877753	0.032632552
2019-12-14T00:45:00	0.2227	2.615		0.544010363	0.659576310	0.010164713	0.104867475	0.032321174
2019-12-14T00:50:00	0.2241	2.628		0.548619185	0.666124226	0.010323521	0.106505868	0.032826143
2019-12-14T00:55:00	0.2249	2.640		0.551192355	0.669787593	0.010412728	0.107426197	0.033109797
2019-12-14T01:00:00	0.2250	2.655		0.551734394	0.670559976	0.010431569	0.107620576	0.033169707
2019-12-14T01:05:00	0.2263	2.666		0.555995113	0.676639720	0.010580271	0.109154702	0.033642539
2019-12-14T01:10:00	0.2259	2.679		0.554846813	0.674999710	0.010540089	0.108740159	0.033514773
2019-12-14T01:15:00	0.2269	2.689		0.558090815	0.679635615	0.010653804	0.109913328	0.033876355
2019-12-14T01:20:00	0.2265	2.699		0.556605394	0.677511770	0.010601657	0.109375344	0.033710543
2019-12-14T01:25:00	0.2261	2.710		0.555457296	0.675871471	0.010561442	0.108960447	0.033582668
2019-12-14T01:30:00	0.2268	2.719		0.557687704	0.679059070	0.010639639	0.109767198	0.033831317
2019-12-14T01:35:00	0.2256	2.728		0.553836226	0.673557277	0.010504791	0.108375992	0.033402533
2019-12-14T01:40:00	0.2271	2.728		0.558769677	0.680606852	0.010677679	0.110159642	0.033952272
2019-12-14T01:45:00	0.2267	2.729		0.557284545	0.678482591	0.010625483	0.109621150	0.033786303
2019-12-14T01:50:00	0.2271	2.730		0.558838623	0.680705512	0.010680105	0.110184673	0.033959986
2019-12-14T01:55:00	0.2269	2.734		0.558028969	0.679547151	0.010651630	0.109890902	0.033869443
2019-12-14T02:00:00	0.2284	2.742		0.563293688	0.687088973	0.010837478	0.111808258	0.034460391
2019-12-14T02:05:00	0.2277	2.755		0.560798361	0.683511517	0.010749187	0.110897385	0.034179651
2019-12-14T02:10:00	0.2278	2.766		0.561001519	0.683802586	0.010756362	0.110971403	0.034202464
2019-12-14T02:15:00	0.2284	2.773		0.563228382	0.686995281	0.010835162	0.111784371	0.034453029
2019-12-14T02:20:00	0.2292	2.780		0.565790782	0.690674101	0.010926198	0.112723568	0.034742499
2019-12-14T02:25:00	0.2286	2.787		0.563971538	0.688061667	0.010861525	0.112056349	0.034536855
2019-12-14T02:30:00	0.2290	2.795		0.565185656	0.689804837	0.010904664	0.112501411	0.034674027
2019-12-14T02:35:00	0.2293	2.804		0.566062454	0.691064456	0.010935872	0.112823379	0.034773261
2019-12-14T02:40:00	0.2293	2.813		0.566265306	0.691355967	0.010943099	0.112897935	0.034796240
2019-12-14T02:45:00	0.2303	2.823		0.569498712	0.696007150	0.011058618	0.114089719	0.035163559
2019-12-14T02:50:00	0.2295	2.832		0.566670976	0.691939041	0.010957558	0.113047109	0.034842217
2019-12-14T02:55:00	0.2300	2.840		0.568557570	0.694652446	0.011024930	0.113742171	0.035056442
2019-12-14T03:00:00	0.2303	2.847		0.569433522	0.695913290	0.011056282	0.114065628	0.035156134
2019-12-14T03:05:00	0.2309	2.855		0.571655018	0.699113752	0.011135999	0.114888044	0.035409611
2019-12-14T03:10:00	0.2312	2.862		0.572530196	0.700375722	0.011167484	0.115212869	0.035509725
2019-12-14T03:15:00	0.2302	2.864		0.569031718	0.695334856	0.011041895	0.113917198	0.035110387
2019-12-14T03:20:00	0.2292	2.858		0.565866687	0.690783161	0.010928900	0.112751451	0.034751092
2019-12-14T03:25:00	0.2285	2.854		0.563373199	0.687203049	0.010840297	0.111837344	0.034469356
2019-12-14T03:30:00	0.2290	2.847		0.565261574	0.689913877	0.010907365	0.112529270	0.034682614
2019-12-14T03:35:00	0.2285	2.841		0.563442054	0.687301841	0.010842739	0.111862535	0.034477120
2019-12-14T03:40:00	0.2288	2.835		0.564319290	0.688560828	0.010873872	0.112183733	0.034576116
2019-12-14T03:45:00	0.2291	2.831		0.565533287	0.690304173	0.010917032	0.112629008	0.034713354
2019-12-14T03:50:00	0.2299	2.826		0.568093997	0.693985437	0.011008356	0.113571179	0.035003741
2019-12-14T03:55:00	0.2297	2.823		0.567623268	0.693308314	0.010991539	0.113397683	0.034950267
2019-12-14T04:00:00	0.2295	2.820		0.566815651	0.692147016	0.010962717	0.113100333	0.034858621
2019-12-14T04:05:00	0.2295	2.817		0.566764947	0.692074125	0.010960909	0.113081678	0.034852872
2019-12-14T04:10:00	0.2296	2.812		0.567051077	0.692485487	0.010971115	0.113186972	0.034885324
2019-12-14T04:15:00	0.2279	2.802		0.561607028	0.684670310	0.010777760	0.111192159	0.034270503
2019-12-14T04:20:00	0.2278	2.790		0.561218882	0.684114042	0.010764041	0.111050623	0.034226881
2019-12-14T04:25:00	0.2271	2.781		0.558805584	0.680658234	0.010678942	0.110172678	0.033956289
2019-12-14T04:30:00	0.2276	2.772		0.560442460	0.683001694	0.010736625	0.110767779	0.034139705
2019-12-14T04:35:00	0.2292	2.760		0.565786889	0.690668509	0.010926059	0.112722139	0.034742058
2019-12-14T04:40:00	0.2294	2.746		0.566409998	0.691563918	0.010948255	0.112951130	0.034812635
2019-12-14T04:45:00	0.2298	2.733		0.567706572	0.693428129	0.010994514	0.113428376	0.034959727
2019-12-14T04:50:00	0.2293	2.721		0.566308577	0.691418154	0.010944641	0.112913842	0.034801143
2019-12-14T04:55:00	0.2306	2.710		0.570634769	0.697643393	0.011099352	0.114509966	0.035293084
2019-12-14T05:00:00	0.2309	2.702		0.571593412	0.699024941	0.011133784	0.114865197	0.035402569
2019-12-14T05:05:00	0.2302	2.702		0.569187275	0.695558779	0.011047464	0.113974651	0.035128094
2019-12-14T05:10:00	0.2288	2.697		0.564420768	0.688706508	0.010877476	0.112220919	0.034587577
2019-12-14T05:15:00	0.2295	2.689		0.566728778	0.692022131	0.010959619	0.113068372	0.034848770
2019-12-14T05:20:00	0.2306	2.680		0.570381518	0.697278548	0.011090265	0.114416216	0.035264189
2019-12-14T05:25:00	0.2319	2.672		0.575038747	0.703996464	0.011257981	0.116146518	0.035797485
2019-12-14T05:30:00	0.2329	2.666		0.578347115	0.708779601	0.011377903	0.117383730	0.036178805
2019-12-14T05:35:00	0.2327	2.662		0.577625035	0.707734865	0.011351674	0.117113126	0.036095403
2019-12-14T05:40:00	0.2340	2.657		0.581937284	0.713980431	0.011508774	0.118733903	0.036594942
2019-12-14T05:45:00	0.2342	2.652		0.582557527	0.714880018	0.011531461	0.118967960	0.036667081
2019-12-14T05:50:00	0.2331	2.650		0.578816404	0.709458821	0.011394967	0.117559769	0.036233063
2019-12-14T05:55:00	0.2320	2.650		0.575407322	0.704528889	0.011271309	0.116284021	0.035839865
2019-12-14T06:00:00	0.2317	2.646		0.574348535	0.702999719	0.011233044	0.115889247	0.035718192
2019-12-14T06:05:00	0.2298	2.645		0.567905782	0.693714676	0.011001630	0.113501793	0.034982355
2019-12-14T06:10:00	0.2302	2.642		0.569201801	0.695579690	0.011047984	0.113980016	0.035129748
2019-12-14T06:15:00	0.2308	2.639		0.571170251	0.698415010	0.011118578	0.114708323	0.035354219
2019-12-14T06:20:00	0.2306	2.636		0.570446690	0.697372433	0.011092603	0.114440338	0.035271624
2019-12-14T06:25:00	0.2297	2.633		0.567366252	0.692938683	0.010982363	0.113303011	0.034921088
2019-12-14T06:30:00	0.2300	2.626		0.568662471	0.694803408	0.011028682	0.113780882	0.035068373
2019-12-14T06:35:00	0.2309	2.621		0.571640503	0.699092826	0.011135477	0.114882661	0.035407952
2019-12-14T06:40:00	0.2289	2.621		0.564855741	0.689331041	0.010892933	0.112380384	0.034636726
2019-12-14T06:45:00	0.2289	2.621		0.564805008	0.689258191	0.010891130	0.112361779	0.034630992
2019-12-14T06:50:00	0.2294	2.620		0.566439072	0.691605707	0.010949291	0.112961820	0.034815930
2019-12-14T06:55:00	0.2268	2.619		0.557618391	0.678959949	0.010637205	0.109742082	0.033823575
2019-12-14T07:00:00	0.2273	2.620		0.559255825	0.681302608	0.010694793	0.110336205	0.034006690
2019-12-14T07:05:00	0.2271	2.623		0.558867417	0.680746717	0.010681118	0.110195128	0.033963209
2019-12-14T07:10:00	0.2272	2.626		0.559154196	0.681157144	0.010691214	0.110299282	0.033995310
2019-12-14T07:15:00	0.2267	2.631		0.557415035	0.678669164	0.010630064	0.109668410	0.033800869
2019-12-14T07:20:00	0.2275	2.636		0.560065194	0.682461378	0.010723316	0.110630476	0.034097387
2019-12-14T07:25:00	0.2273	2.642		0.559339328	0.681422134	0.010697734	0.110366546	0.034016041
2019-12-14T07:30:00	0.2261	2.649		0.555235325	0.675554464	0.010553675	0.108880324	0.033557973
2019-12-14T07:35:00	0.2260	2.654		0.555184453	0.675481816	0.010551896	0.108861966	0.033552315
2019-12-14T07:40:00	0.2251	2.663		0.552090497	0.671067538	0.010443956	0.107748374	0.033209095
2019-12-14T07:45:00	0.2250	2.670		0.551701288	0.670512794	0.010430418	0.107608699	0.033166046
2019-12-14T07:50:00	0.2254	2.678		0.553003345	0.672369119	0.010475745	0.108076327	0.033310174
2019-12-14T07:55:00	0.2255	2.689		0.553290607	0.672778853	0.010485758	0.108179634	0.033342014
2019-12-14T08:00:00	0.2261	2.700		0.555268053	0.675601202	0.010554820	0.108892136	0.033561614
2019-12-14T08:05:00	0.2271	2.712		0.558595184	0.680357171	0.010671539	0.110096303	0.033932750
2019-12-14T08:10:00	0.2269	2.725		0.558206703	0.679801387	0.010657877	0.109955356	0.033889309
2019-12-14T08:15:00	0.2266	2.738		0.557142689	0.678279781	0.010620504	0.109569784	0.033770472
2019-12-14T08:20:00	0.2262	2.750		0.555740452	0.676275919	0.010571353	0.109062699	0.033614183
2019-12-14T08:25:00	0.2258	2.760		0.554337651	0.674272867	0.010522297	0.108556604	0.033458200
2019-12-14T08:30:00	0.2242	2.770		0.548873677	0.666486299	0.010332327	0.106596712	0.032854142
2019-12-14T08:35:00	0.2245	2.780		0.549838323	0.667859210	0.010365738	0.106941409	0.032960381
2019-12-14T08:40:00	0.2232	2.789		0.545384175	0.661526313	0.010211921	0.105354508	0.032471283
2019-12-14T08:45:00	0.2227	2.803		0.543977183	0.659529233	0.010163575	0.104855726	0.032317553
2019-12-14T08:50:00	0.2221	2.815		0.541891157	0.656571316	0.010092109	0.104118426	0.032090310
2019-12-14T08:55:00	0.2216	2.827		0.540143327	0.654095688	0.010032425	0.103502683	0.031900532
2019-12-14T09:00:00	0.2198	2.842		0.533976896	0.645381485	0.009823286	0.101345031	0.031235523
2019-12-14T09:05:00	0.2203	2.859		0.535625526	0.647708237	0.009878983	0.101919647	0.031412625
2019-12-14T09:10:00	0.2213	2.878		0.538971539	0.652437366	0.009992512	0.103090907	0.031773619
2019-12-14T09:15:00	0.2206	2.901		0.536882493	0.649483715	0.009921555	0.102358852	0.031547992
2019-12-14T09:20:00	0.2185	2.924		0.529688992	0.639340230	0.009679167	0.099858179	0.030777261
2019-12-14T09:25:00	0.2192	2.946		0.532020207	0.642622835	0.009757387	0.100665167	0.031025982
2019-12-14T09:30:00	0.2189	2.965		0.530948122	0.641112674	0.009721376	0.100293642	0.030911474
2019-12-14T09:35:00	0.2177	2.981		0.526810327	0.635292857	0.009583014	0.098866191	0.030471520
2019-12-14T09:40:00	0.2190	2.998		0.531185994	0.641447664	0.009729360	0.100376015	0.030936863
2019-12-14T09:45:00	0.2188	3.008		0.530454056	0.640417036	0.009704802	0.100122658	0.030858776
2019-12-14T09:50:00	0.2186	3.009		0.530062407	0.639865741	0.009691675	0.099987223	0.030817033
2019-12-14T09:55:00	0.2185	3.016		0.529670714	0.639314509	0.009678555	0.099851865	0.030775314
2019-12-14T10:00:00	0.2172	3.019		0.525190490	0.633018345	0.009529121	0.098310184	0.030300154
2019-12-14T10:05:00	0.2171	3.030		0.524696138	0.632324620	0.009512704	0.098140812	0.030247952
2019-12-14T10:10:00	0.2125	3.040		0.509164518	0.610629939	0.009004138	0.092894035	0.028630844
2019-12-14T10:15:00	0.2113	3.050		0.504897673	0.604704119	0.008866873	0.091477893	0.028194375
2019-12-14T10:20:00	0.2093	3.060		0.498221111	0.595461099	0.008654197	0.089283757	0.027518121
2019-12-14T10:25:00	0.2077	3.072		0.492564132	0.587657621	0.008476011	0.087445448	0.026951536
2019-12-14T10:30:00	0.2063	3.090		0.487931822	0.581286724	0.008331473	0.085954274	0.026491942
2019-12-14T10:35:00	0.2079	3.107		0.493286827	0.588653107	0.008498673	0.087679238	0.027023593
2019-12-14T10:40:00	0.2080	3.123		0.493820145	0.589388002	0.008515415	0.087851963	0.027076828
2019-12-14T10:45:00	0.2075	3.146		0.491944567	0.586804528	0.008456608	0.087245268	0.026889839
2019-12-14T10:50:00	0.2087	3.170		0.495918198	0.592281262	0.008581437	0.088533099	0.027286761
2019-12-14T10:55:00	0.2073	3.196		0.491290456	0.585904200	0.008436147	0.087034173	0.026824777
2019-12-14T11:00:00	0.2078	3.218		0.492856682	0.588060548	0.008485181	0.087540050	0.026980693
2019-12-14T11:05:00	0.2079	3.235		0.493390068	0.588795352	0.008501912	0.087712661	0.027033894
2019-12-14T11:10:00	0.2085	3.249		0.495299244	0.591427344	0.008561933	0.088331883	0.027224744
2019-12-14T11:15:00	0.2085	3.255		0.495488385	0.591688253	0.008567891	0.088393347	0.027243688
2019-12-14T11:20:00	0.2091	3.262		0.497396385	0.594321837	0.008628105	0.089014567	0.027435154
2019-12-14T11:25:00	0.2084	3.273		0.495178883	0.591261328	0.008558143	0.088292781	0.027212693
2019-12-14T11:30:00	0.2091	3.283		0.497430758	0.594369308	0.008629191	0.089025778	0.027438609
2019-12-14T11:35:00	0.2091	3.294		0.497276098	0.594155721	0.008624303	0.088975339	0.027423064
2019-12-14T11:40:00	0.2091	3.305		0.497465130	0.594416779	0.008630278	0.089036990	0.027442065
2019-12-14T11:45:00	0.2088	3.317		0.496279228	0.592779487	0.008592823	0.088650572	0.027322967
2019-12-14T11:50:00	0.2083	3.332		0.494748977	0.590668445	0.008544612	0.088153187	0.027169668
2019-12-14T11:55:00	0.2081	3.350		0.493906186	0.589506584	0.008518117	0.087879845	0.027085422
2019-12-14T12:00:00	0.2091	3.370		0.497533873	0.594511722	0.008632452	0.089059415	0.027448977
2019-12-14T12:05:00	0.2111	3.391		0.504246081	0.603800477	0.008846004	0.091262589	0.028128016
2019-12-14T12:10:00	0.2135	3.410		0.512656335	0.615490325	0.009117255	0.094061037	0.028990525
2019-12-14T12:15:00	0.2147	3.433		0.516605962	0.620999832	0.009246053	0.095389829	0.029400072
2019-12-14T12:20:00	0.2137	3.455		0.513374791	0.616491592	0.009140617	0.094302056	0.029064810
2019-12-14T12:25:00	0.2154	3.471		0.519031620	0.624389746	0.009325604	0.096210532	0.029653020
2019-12-14T12:30:00	0.2162	3.484		0.521609135	0.627997110	0.009410508	0.097086479	0.029922996
2019-12-14T12:35:00	0.2146	3.498		0.516332549	0.620618030	0.009237108	0.095297543	0.029371628
2019-12-14T12:40:00	0.2169	3.513		0.524031265	0.631391914	0.009490646	0.097913249	0.030177814
2019-12-14T12:45:00	0.2174	3.532		0.525923431	0.634047248	0.009553488	0.098561570	0.030377633
2019-12-14T12:50:00	0.2179	3.543		0.527473892	0.636225225	0.009605136	0.099094414	0.030541861
2019-12-14T12:55:00	0.2181	3.555		0.528342527	0.637446275	0.009634132	0.099393568	0.030634063
2019-12-14T13:00:00	0.2169	3.574		0.524099477	0.631487588	0.009492908	0.097936583	0.030185006
2019-12-14T13:05:00	0.2171	3.592		0.524968963	0.632707452	0.009521762	0.098234268	0.030276755
2019-12-14T13:10:00	0.2169	3.590		0.524133582	0.631535425	0.009494039	0.097948251	0.030188602
2019-12-14T13:15:00	0.2184	3.576		0.529091768	0.638499985	0.009659179	0.099651966	0.030713704
2019-12-14T13:20:00	0.2204	3.559		0.536082441	0.648353485	0.009894447	0.102079190	0.031461798
2019-12-14T13:25:00	0.2211	3.540		0.538307642	0.651498312	0.009969934	0.102857975	0.031701827
2019-12-14T13:30:00	0.2202	3.537		0.535436699	0.647441628	0.009872596	0.101853750	0.031392315
2019-12-14T13:35:00	0.2210	3.532		0.538001978	0.651066085	0.009959548	0.102750821	0.031668801
2019-12-14T13:40:00	0.2206	3.537		0.536830004	0.649409548	0.009919775	0.102340492	0.031542334
2019-12-14T13:45:00	0.2184	3.539		0.529193935	0.638643705	0.009662597	0.099687228	0.030724572
2019-12-14T13:50:00	0.2182	3.546		0.528700157	0.637949179	0.009646084	0.099516865	0.030672064
2019-12-14T13:55:00	0.2173	3.556		0.525480342	0.633425187	0.009538753	0.098409560	0.030330782
2019-12-14T14:00:00	0.2178	3.560		0.527371712	0.636081630	0.009601728	0.099059254	0.030531024
2019-12-14T14:05:00	0.2180	3.569		0.527899749	0.636823780	0.009619346	0.099241020	0.030587046
2019-12-14T14:10:00	0.2179	3.572		0.527405785	0.636129512	0.009602864	0.099070978	0.030534638
2019-12-14T14:15:00	0.2192	3.576		0.532019051	0.642621206	0.009757349	0.100664766	0.031025858
2019-12-14T14:20:00	0.2186	3.583		0.529823841	0.639529992	0.009683683	0.099904770	0.030791620
2019-12-14T14:25:00	0.2192	3.588		0.532053078	0.642669153	0.009758493	0.100676569	0.031029496
2019-12-14T14:30:00	0.2186	3.595		0.529857890	0.639577908	0.009684823	0.099916536	0.030795247
2019-12-14T14:35:00	0.2178	3.600		0.527320621	0.636009834	0.009600024	0.099041676	0.030525606
2019-12-14T14:40:00	0.2178	3.606		0.527167306	0.635794399	0.009594912	0.098988936	0.030509351
2019-12-14T14:45:00	0.2177	3.607		0.527013983	0.635578973	0.009589801	0.098936208	0.030493100
2019-12-14T14:50:00	0.2172	3.608		0.525156511	0.632970656	0.009527992	0.098298538	0.030296564
2019-12-14T14:55:00	0.2169	3.608		0.523980163	0.631320242	0.009488952	0.097895769	0.030172427
2019-12-14T15:00:00	0.2160	3.602		0.521097258	0.627280284	0.009393616	0.096912205	0.029869283
2019-12-14T15:05:00	0.2157	3.596		0.519919520	0.625631800	0.009354808	0.096511828	0.029745883
2019-12-14T15:10:00	0.2158	3.588		0.520448702	0.626372358	0.009372235	0.096691623	0.029801297
2019-12-14T15:15:00	0.2169	3.574		0.524048376	0.631415914	0.009491214	0.097919102	0.030179618
2019-12-14T15:20:00	0.2170	3.573		0.524576922	0.632157353	0.009508747	0.098099989	0.030235369
2019-12-14T15:25:00	0.2183	3.575		0.528853443	0.638164763	0.009651208	0.099569736	0.030688360
2019-12-14T15:30:00	0.2186	3.581		0.530062176	0.639865416	0.009691667	0.099987143	0.030817009
2019-12-14T15:35:00	0.2187	3.587		0.530249408	0.640128953	0.009697942	0.100051878	0.030836960
2019-12-14T15:40:00	0.2176	3.591		0.526690296	0.635124241	0.009579015	0.098824937	0.030458805
2019-12-14T15:45:00	0.2184	3.595		0.529262083	0.638739575	0.009664877	0.099710752	0.030731822
2019-12-14T15:50:00	0.2182	3.597		0.528427743	0.637566097	0.009636979	0.099422940	0.030643116
2019-12-14T15:55:00	0.2175	3.599		0.526230244	0.634478082	0.009563697	0.098666898	0.030410096
2019-12-14T16:00:00	0.2171	3.600		0.524713323	0.632348732	0.009513274	0.098146698	0.030249765
2019-12-14T16:05:00	0.2177	3.590		0.526779799	0.635249970	0.009581997	0.098855698	0.030468286
2019-12-14T16:10:00	0.2176	3.581		0.526460374	0.634801287	0.009571358	0.098745937	0.030434457
2019-12-14T16:15:00	0.2183	3.580		0.528866365	0.638182937	0.009651640	0.099574194	0.030689734
2019-12-14T16:20:00	0.2197	3.585		0.533652014	0.644923232	0.009812329	0.101231989	0.031200682
2019-12-14T16:25:00	0.2211	3.588		0.538431039	0.651672824	0.009974129	0.102901249	0.031715164
2019-12-14T16:30:00	0.2221	3.591		0.541846660	0.656508258	0.010090587	0.104102727	0.032085471
2019-12-14T16:35:00	0.2220	3.586		0.541528626	0.656057622	0.010079715	0.103990558	0.032050900
2019-12-14T16:40:00	0.2239	3.575		0.547990545	0.665230070	0.010301787	0.106281635	0.032757032
2019-12-14T16:45:00	0.2235	3.570		0.546656830	0.663334111	0.010255752	0.105806698	0.032610652
2019-12-14T16:50:00	0.2221	3.562		0.541931658	0.656628711	0.010093494	0.104132716	0.032094714
2019-12-14T16:55:00	0.2222	3.557		0.542292149	0.657139633	0.010105827	0.104259951	0.032133930
2019-12-14T17:00:00	0.2204	3.552		0.536201991	0.648522339	0.009898496	0.102120955	0.031474670
2019-12-14T17:05:00	0.2212	3.547		0.538601202	0.651913496	0.009979915	0.102960939	0.031733561
2019-12-14T17:10:00	0.2217	3.541		0.540319979	0.654345786	0.010038449	0.103564832	0.031919687
2019-12-14T17:15:00	0.2218	3.540		0.540680638	0.654856470	0.010050754	0.103691776	0.031958812
2019-12-14T17:20:00	0.2219	3.537		0.541041259	0.655367208	0.010063065	0.103818785	0.031997958
2019-12-14T17:25:00	0.2209	3.533		0.537667394	0.650593050	0.009948185	0.102633593	0.031632670
2019-12-14T17:30:00	0.2209	3.528		0.537688670	0.650623127	0.009948908	0.102641045	0.031634967
2019-12-14T17:35:00	0.2216	3.522		0.540086850	0.654015736	0.010030500	0.103482818	0.031894409
2019-12-14T17:40:00	0.2213	3.518		0.539089643	0.652604457	0.009996531	0.103132372	0.031786399
2019-12-14T17:45:00	0.2194	3.515		0.532653681	0.643515600	0.009778697	0.100885019	0.031093743
2019-12-14T17:50:00	0.2208	3.511		0.537434086	0.650263252	0.009940266	0.102551888	0.031607488
2019-12-14T17:55:00	0.2195	3.507		0.533036445	0.644055194	0.009791585	0.101017977	0.031134722
2019-12-14T18:00:00	0.2188	3.504		0.530676001	0.640729507	0.009712246	0.100199449	0.030882443
2019-12-14T18:05:00	0.2191	3.503		0.531718264	0.642197417	0.009747238	0.100560460	0.030993710
2019-12-14T18:10:00	0.2174	3.503		0.525950261	0.634084920	0.009554380	0.098570779	0.030380471
2019-12-14T18:15:00	0.2181	3.499		0.528356608	0.637466074	0.009634603	0.099398421	0.030635559
2019-12-14T18:20:00	0.2175	3.496		0.526333770	0.634623473	0.009567143	0.098702450	0.030421054
2019-12-14T18:25:00	0.2167	3.494		0.523286601	0.630347703	0.009465972	0.097658690	0.030099357
2019-12-14T18:30:00	0.2157	3.495		0.519895312	0.625597927	0.009354011	0.096503607	0.029743349
2019-12-14T18:35:00	0.2184	3.495		0.529123047	0.638543985	0.009660225	0.099662761	0.030717031
2019-12-14T18:40:00	0.2184	3.498		0.529144375	0.638573988	0.009660939	0.099670122	0.030719300
2019-12-14T18:45:00	0.2182	3.507		0.528484604	0.637646053	0.009638879	0.099442541	0.030649157
2019-12-14T18:50:00	0.2189	3.516		0.530889182	0.641029676	0.009719398	0.100273236	0.030905185
2019-12-14T18:55:00	0.2190	3.526		0.531250827	0.641538974	0.009731537	0.100398472	0.030943784
2019-12-14T19:00:00	0.2200	3.531		0.534673548	0.646364416	0.009846802	0.101587643	0.031310298
2019-12-14T19:05:00	0.2172	3.531		0.525162496	0.632979056	0.009528191	0.098300589	0.030297196
2019-12-14T19:10:00	0.2154	3.530		0.519041986	0.624404244	0.009325944	0.096214048	0.029654104
2019-12-14T19:15:00	0.2141	3.532		0.514620776	0.618229032	0.009181203	0.094720777	0.029193863
2019-12-14T19:20:00	0.2146	3.537		0.516351557	0.620644571	0.009237730	0.095303957	0.029373605
2019-12-14T19:25:00	0.2125	3.541		0.509187949	0.610662520	0.009004895	0.092901841	0.028633250
2019-12-14T19:30:00	0.2120	3.545		0.507496470	0.608311596	0.008950351	0.092339126	0.028459815
2019-12-14T19:35:00	0.2109	3.548		0.503746485	0.603107858	0.008830019	0.091097680	0.028077190
2019-12-14T19:40:00	0.2099	3.550		0.500335787	0.598384772	0.008721280	0.089975836	0.027731426
2019-12-14T19:45:00	0.2088	3.551		0.496234135	0.592717253	0.008591401	0.088635896	0.027318444
2019-12-14T19:50:00	0.2081	3.553		0.493848202	0.589426670	0.008516296	0.087861055	0.027079630
2019-12-14T19:55:00	0.2070	3.550		0.490083169	0.584243372	0.008398447	0.086645225	0.026704900
2019-12-14T20:00:00	0.2051	3.543		0.483554368	0.575282116	0.008196021	0.084556836	0.026061238
2019-12-14T20:05:00	0.2050	3.533		0.483230877	0.574838988	0.008186055	0.084454017	0.026029548
2019-12-14T20:10:00	0.2051	3.526		0.483597596	0.575341338	0.008197353	0.084570581	0.026065474
2019-12-14T20:15:00	0.2038	3.520		0.479130163	0.569228930	0.008060240	0.083156005	0.025629488
2019-12-14T20:20:00	0.2027	3.523		0.475348752	0.564067584	0.007945075	0.081967878	0.025263296
2019-12-14T20:25:00	0.2028	3.527		0.475716326	0.564568795	0.007956234	0.082083000	0.025298778
2019-12-14T20:30:00	0.2012	3.533		0.470199267	0.557057220	0.007789563	0.080363483	0.024768806
2019-12-14T20:35:00	0.2004	3.536		0.467448213	0.553320648	0.007707103	0.079512765	0.024506607
2019-12-14T20:40:00	0.1999	3.536		0.465735812	0.550997842	0.007655995	0.078985487	0.024344094
2019-12-14T20:45:00	0.1983	3.530		0.460202392	0.543507857	0.007491988	0.077293455	0.023822593
2019-12-14T20:50:00	0.1977	3.518		0.458138623	0.540720563	0.007431266	0.076667000	0.023629514
2019-12-14T20:55:00	0.1965	3.510		0.453985474	0.535121589	0.007309804	0.075413904	0.023243298
2019-12-14T21:00:00	0.1977	3.501		0.458182178	0.540779354	0.007432545	0.076680195	0.023633581
2019-12-14T21:05:00	0.1968	3.498		0.454725256	0.536117912	0.007331368	0.075636370	0.023311864
2019-12-14T21:10:00	0.1972	3.498		0.456138959	0.538023061	0.007372662	0.076062392	0.023443168
2019-12-14T21:15:00	0.1973	3.498		0.456508633	0.538521505	0.007383479	0.076173988	0.023477563
2019-12-14T21:20:00	0.1966	3.498		0.454094496	0.535268390	0.007312980	0.075446669	0.023253396
2019-12-14T21:25:00	0.1975	3.497		0.457247860	0.539518553	0.007405132	0.076397383	0.023546415
2019-12-14T21:30:00	0.1990	3.499		0.462482400	0.546591117	0.007559354	0.077988462	0.024036801
2019-12-14T21:35:00	0.2041	3.503		0.480167368	0.570646631	0.008091971	0.083483375	0.025730387
2019-12-14T21:40:00	0.2005	3.519		0.467730531	0.553703825	0.007715546	0.079599862	0.024533451
2019-12-14T21:45:00	0.2017	3.535		0.471910150	0.559384029	0.007841063	0.080894797	0.024932562
2019-12-14T21:50:00	0.2029	3.551		0.476084603	0.565071074	0.007967422	0.082198422	0.025334352
2019-12-14T21:55:00	0.2175	3.564		0.526229240	0.634476673	0.009563663	0.098666553	0.030409990
2019-12-14T22:00:00	0.2167	3.517		0.523523070	0.630679246	0.009473804	0.097739490	0.030124260
2019-12-14T22:05:00	0.2187	3.496		0.530187140	0.640041304	0.009695855	0.100030346	0.030830324
2019-12-14T22:10:00	0.2178	3.492		0.527311939	0.635997633	0.009599734	0.099038689	0.030524686
2019-12-14T22:15:00	0.2169	3.479		0.524093335	0.631478974	0.009492704	0.097934482	0.030184359
2019-12-14T22:20:00	0.2182	3.456		0.528713542	0.637968003	0.009646531	0.099521481	0.030673487
2019-12-14T22:25:00	0.2204	3.437		0.536047337	0.648303906	0.009893259	0.102066928	0.031458019
2019-12-14T22:30:00	0.2210	3.425		0.537935426	0.650971986	0.009957287	0.102727497	0.031661612
2019-12-14T22:35:00	0.2218	3.422		0.540840735	0.655083198	0.010056218	0.103748152	0.031976188
2019-12-14T22:40:00	0.2230	3.414		0.544760708	0.660641165	0.010190483	0.105133340	0.032403116
2019-12-14T22:45:00	0.2234	3.406		0.546305236	0.662834541	0.010243633	0.105681674	0.032572118
2019-12-14T22:50:00	0.2250	3.393		0.551572577	0.670329368	0.010425943	0.107562529	0.033151816
2019-12-14T22:55:00	0.2267	3.381		0.557507495	0.678801372	0.010633310	0.109701904	0.033811192
2019-12-14T23:00:00	0.2271	3.371		0.558708761	0.680519684	0.010675535	0.110137528	0.033945456
2019-12-14T23:05:00	0.2282	3.361		0.562608640	0.686106335	0.010813202	0.111557817	0.034383203
2019-12-14T23:10:00	0.2285	3.352		0.563471001	0.687343375	0.010843765	0.111873127	0.034480384
2019-12-14T23:15:00	0.2293	3.342		0.566018150	0.691000793	0.010934294	0.112807099	0.034768243
2019-12-14T23:20:00	0.2291	3.328		0.565532066	0.690302418	0.010916989	0.112628560	0.034713216
2019-12-14T23:25:00	0.2302	3.315		0.569087727	0.695415478	0.011043900	0.113937883	0.035116762
2019-12-14T23:30:00	0.2327	3.302		0.577680374	0.707814917	0.011353683	0.117133854	0.036101791
2019-12-14T23:35:00	0.2335	3.292		0.580217208	0.711487340	0.011445978	0.118086040	0.036395264
2019-12-14T23:40:00	0.2334	3.282		0.580068677	0.711272174	0.011440563	0.118030181	0.036378048
2019-12-14T23:45:00	0.2356	3.272		0.587295245	0.721762057	0.011705510	0.120763590	0.037220511
2019-12-14T23:50:00	0.2359	3.262		0.588486338	0.723495184	0.011749477	0.121217190	0.037360315
2019-12-14T23:55:00	0.2358	3.254		0.588003359	0.722792271	0.011731639	0.121033154	0.037303593
2019-12-15T00:00:00	0.2364	3.245		0.589863549	0.725500598	0.011800420	0.121742755	0.037522300
2019-12-15T00:05:00	0.2378	3.233		0.594731618	0.732601870	0.011981394	0.123609833	0.038097751
2019-12-15T00:10:00	0.2392	3.221		0.599259252	0.739224289	0.012150982	0.125359439	0.038636997
2019-12-15T00:15:00	0.2393	3.209		0.599778981	0.739985576	0.012170527	0.125561085	0.038699146
2019-12-15T00:20:00	0.2416	3.200		0.607298345	0.751025063	0.012455117	0.128497144	0.039604068
2019-12-15T00:25:00	0.2426	3.190		0.610812109	0.756200016	0.012589266	0.129881138	0.040030628
2019-12-15T00:30:00	0.2415	3.182		0.607003548	0.750591367	0.012443896	0.128381377	0.039568387
2019-12-15T00:35:00	0.2422	3.172		0.609519397	0.754294949	0.012539827	0.129371079	0.039873423
2019-12-15T00:40:00	0.2434	3.162		0.613363403	0.759963973	0.012687135	0.130890831	0.040341825
2019-12-15T00:45:00	0.2439	3.151		0.614878051	0.762201142	0.012745422	0.131492173	0.040527165
2019-12-15T00:50:00	0.2425	3.140		0.610408515	0.755605089	0.012573820	0.129721783	0.039981513
2019-12-15T00:55:00	0.2432	3.128		0.612589474	0.758821608	0.012657405	0.130584116	0.040247293
2019-12-15T01:00:00	0.2448	3.117		0.618090455	0.766952323	0.012869501	0.132772267	0.040921702
2019-12-15T01:05:00	0.2450	3.106		0.618607434	0.767717752	0.012889527	0.132978874	0.040985380
2019-12-15T01:10:00	0.2448	3.094		0.618128544	0.767008710	0.012870976	0.132787484	0.040926392
2019-12-15T01:15:00	0.2445	3.083		0.616985485	0.765317080	0.012826751	0.132331230	0.040785770
2019-12-15T01:20:00	0.2457	3.072		0.621153147	0.771490172	0.012988375	0.133998675	0.041299693
2019-12-15T01:25:00	0.2464	3.063		0.623327535	0.774716663	0.013073115	0.134872917	0.041569143
2019-12-15T01:30:00	0.2484	3.059		0.629804800	0.784351688	0.013327237	0.137494648	0.042377186
2019-12-15T01:35:00	0.2494	3.048		0.633296457	0.789560298	0.013465278	0.138918788	0.042816120
2019-12-15T01:40:00	0.2496	3.034		0.633811240	0.790329088	0.013485692	0.139129397	0.042881031
2019-12-15T01:45:00	0.2487	3.018		0.631019668	0.786162772	0.013375182	0.137989291	0.042529640
2019-12-15T01:50:00	0.2502	3.003		0.635831731	0.793348713	0.013565971	0.139957625	0.043136299
2019-12-15T01:55:00	0.2513	2.987		0.639647524	0.799060862	0.013718259	0.141528745	0.043620534
2019-12-15T02:00:00	0.2506	2.972		0.637190722	0.795381673	0.013620107	0.140516132	0.043308437
2019-12-15T02:05:00	0.2504	2.959		0.636384046	0.794174750	0.013587959	0.140184472	0.043206216
2019-12-15T02:10:00	0.2510	2.949		0.638549198	0.797415429	0.013674334	0.141075584	0.043480865
2019-12-15T02:15:00	0.2525	2.941		0.643351178	0.804616966	0.013866916	0.143062419	0.044093227
2019-12-15T02:20:00	0.2497	2.936		0.634293422	0.791049394	0.013504828	0.139326818	0.042941878
2019-12-15T02:25:00	0.2489	2.933		0.631502225	0.786882499	0.013394252	0.138186024	0.042590275
2019-12-15T02:30:00	0.2482	2.930		0.629370779	0.783704967	0.013310130	0.137318156	0.042322789
2019-12-15T02:35:00	0.2489	2.924		0.631540172	0.786939105	0.013395752	0.138201501	0.042595045
2019-12-15T02:40:00	0.2494	2.920		0.633377704	0.789681619	0.013468499	0.138952017	0.042826361
2019-12-15T02:45:00	0.2494	2.914		0.633231383	0.789463131	0.013462698	0.138892177	0.042807918
2019-12-15T02:50:00	0.2498	2.909		0.634407173	0.791219350	0.013509344	0.139373413	0.042956239
2019-12-15T02:55:00	0.2475	2.906		0.626982906	0.780149722	0.013216214	0.136349245	0.042024161
2019-12-15T03:00:00	0.2476	2.906		0.627167476	0.780424352	0.013223461	0.136424010	0.042047205
2019-12-15T03:05:00	0.2475	2.908		0.627020901	0.780206254	0.013217706	0.136364634	0.042028905
2019-12-15T03:10:00	0.2466	2.910		0.623892595	0.775555787	0.013095183	0.135100589	0.041639314
2019-12-15T03:15:00	0.2465	2.911		0.623745886	0.775337895	0.013089451	0.135041458	0.041621089
2019-12-15T03:20:00	0.2445	2.912		0.616963632	0.765284750	0.012825907	0.132322515	0.040783084
2019-12-15T03:25:00	0.2443	2.911		0.616484521	0.764576044	0.012807394	0.132131526	0.040724219
2019-12-15T03:30:00	0.2434	2.906		0.613346949	0.759939682	0.012686502	0.130884306	0.040339814
2019-12-15T03:35:00	0.2435	2.905		0.613532227	0.760213235	0.012693625	0.130957786	0.040362462
2019-12-15T03:40:00	0.2405	2.905		0.603731791	0.745782954	0.012319709	0.127100169	0.039173506
2019-12-15T03:45:00	0.2413	2.907		0.606249962	0.749483046	0.012415235	0.128085689	0.039477253
2019-12-15T03:50:00	0.2407	2.909		0.604436617	0.746818059	0.012346408	0.127375617	0.039258402
2019-12-15T03:55:00	0.2400	2.914		0.601955420	0.743176026	0.012252552	0.126407320	0.038959964
2019-12-15T04:00:00	0.2416	2.919		0.607472888	0.751281880	0.012461763	0.128565712	0.039625201
2019-12-15T04:05:00	0.2412	2.921		0.605949116	0.749040717	0.012403802	0.127967743	0.039440901
2019-12-15T04:10:00	0.2415	2.924		0.607089772	0.750718209	0.012447177	0.128415232	0.039578822
2019-12-15T04:15:00	0.2410	2.927		0.605232666	0.747987636	0.012376598	0.127687085	0.039354400
2019-12-15T04:20:00	0.2401	2.930		0.602374367	0.743790617	0.012268374	0.126570549	0.039010272
2019-12-15T04:25:00	0.2402	2.936		0.602849419	0.744487691	0.012286327	0.126755768	0.039067359
2019-12-15T04:30:00	0.2396	2.937		0.600656489	0.741271441	0.012203564	0.125901923	0.038804195
2019-12-15T04:35:00	0.2389	2.943		0.598462198	0.738057223	0.012121038	0.125050518	0.038541784
2019-12-15T04:40:00	0.2378	2.951		0.594596000	0.732403770	0.011976333	0.123557621	0.038081659
2019-12-15T04:45:00	0.2365	2.958		0.590390992	0.726269048	0.011819960	0.121944344	0.037584431
2019-12-15T04:50:00	0.2361	2.968		0.588859837	0.724038895	0.011763282	0.121359608	0.037404210
2019-12-15T04:55:00	0.2350	2.977		0.585318176	0.718887885	0.011632717	0.120012592	0.036989047
2019-12-15T05:00:00	0.2362	2.986		0.589478861	0.724940278	0.011786179	0.121595835	0.037477017
2019-12-15T05:05:00	0.2363	2.997		0.589621006	0.725147306	0.011791440	0.121650113	0.037493746
2019-12-15T05:10:00	0.2362	3.009		0.589428483	0.724866910	0.011784315	0.121576602	0.037471089
2019-12-15T05:15:00	0.2368	3.022		0.591243557	0.727511670	0.011851579	0.122270557	0.037684973
2019-12-15T05:20:00	0.2365	3.037		0.590382011	0.726255961	0.011819627	0.121940910	0.037583373
2019-12-15T05:25:00	0.2377	3.052		0.594202515	0.731829086	0.011961656	0.123406197	0.038034988
2019-12-15T05:30:00	0.2396	3.068		0.600688796	0.741318795	0.012204781	0.125914480	0.038808066
2019-12-15T05:35:00	0.2385	3.083		0.597158995	0.736150184	0.012072162	0.124546269	0.038386370
2019-12-15T05:40:00	0.2384	3.095		0.596632904	0.735380731	0.012052460	0.124343005	0.038323722
2019-12-15T05:45:00	0.2380	3.108		0.595438580	0.733634792	0.012007793	0.123882191	0.038181694
2019-12-15T05:50:00	0.2390	3.119		0.598586061	0.738238551	0.012125689	0.125098499	0.038556572
2019-12-15T05:55:00	0.2384	3.130		0.596724488	0.735514663	0.012055888	0.124378378	0.038334624
2019-12-15T06:00:00	0.2385	3.140		0.596866341	0.735722124	0.012061200	0.124433176	0.038351513
2019-12-15T06:05:00	0.2376	3.150		0.594001270	0.731535218	0.011954153	0.123328789	0.038011130
2019-12-15T06:10:00	0.2377	3.158		0.594477448	0.732230611	0.011971910	0.123511989	0.038067595
2019-12-15T06:15:00	0.2378	3.166		0.594619392	0.732437938	0.011977206	0.123566626	0.038084434
2019-12-15T06:20:00	0.2382	3.175		0.596097767	0.734598286	0.012032436	0.124136421	0.038260051
2019-12-15T06:25:00	0.2379	3.182		0.594903263	0.732852616	0.011987801	0.123675931	0.038118123
2019-12-15T06:30:00	0.2374	3.192		0.593374066	0.730619560	0.011930784	0.123087697	0.037936824
2019-12-15T06:35:00	0.2370	3.200		0.591844206	0.728387487	0.011873882	0.122500649	0.037755890
2019-12-15T06:40:00	0.2362	3.207		0.589309758	0.724694009	0.011779922	0.121531280	0.037457121
2019-12-15T06:45:00	0.2357	3.214		0.587778133	0.722464550	0.011723325	0.120947382	0.037277158
2019-12-15T06:50:00	0.2357	3.223		0.587585509	0.722184303	0.011716217	0.120874050	0.037254556
2019-12-15T06:55:00	0.2344	3.232		0.583372120	0.716061972	0.011561292	0.119275717	0.036761934
2019-12-15T07:00:00	0.2341	3.239		0.582173292	0.714322695	0.011517404	0.118822936	0.036622383
2019-12-15T07:05:00	0.2333	3.249		0.579631866	0.710639501	0.011424648	0.117865985	0.036327441
2019-12-15T07:10:00	0.2328	3.259		0.578096018	0.708416254	0.011368779	0.117289594	0.036149792
2019-12-15T07:15:00	0.2332	3.267		0.579245714	0.710080336	0.011410588	0.117720930	0.036282734
2019-12-15T07:20:00	0.2332	3.276		0.579388274	0.710286754	0.011415777	0.117774471	0.036299236
2019-12-15T07:25:00	0.2322	3.287		0.575837049	0.705149794	0.011286859	0.116444442	0.035889308
2019-12-15T07:30:00	0.2311	3.297		0.572282224	0.700018093	0.011158558	0.115120787	0.035481344
2019-12-15T07:35:00	0.2310	3.308		0.571752398	0.699254138	0.011139500	0.114924164	0.035420744
2019-12-15T07:40:00	0.2289	3.318		0.564824706	0.689286476	0.010891830	0.112369003	0.034633218
2019-12-15T07:45:00	0.2293	3.328		0.566315674	0.691428354	0.010944894	0.112916451	0.034801947
2019-12-15T07:50:00	0.2289	3.340		0.564773973	0.689213627	0.010890027	0.112350398	0.034627484
2019-12-15T07:55:00	0.2285	3.355		0.563568762	0.687483650	0.010847233	0.111908900	0.034491410
2019-12-15T08:00:00	0.2258	3.370		0.554259197	0.674160890	0.010519557	0.108528335	0.033449487
2019-12-15T08:05:00	0.2243	3.386		0.549328426	0.667133415	0.010348071	0.106759137	0.032904203
2019-12-15T08:10:00	0.2265	3.410		0.556573941	0.677466819	0.010600555	0.109363967	0.033707037
2019-12-15T08:15:00	0.2290	3.433		0.565152677	0.689757472	0.010903491	0.112489310	0.034670298
2019-12-15T08:20:00	0.2289	3.450		0.564958807	0.689479046	0.010896597	0.112418186	0.034648377
2019-12-15T08:25:00	0.2303	3.465		0.569480299	0.695980638	0.011057958	0.114082914	0.035161462
2019-12-15T08:30:00	0.2318	3.481		0.574668192	0.703461291	0.011244590	0.116008361	0.035754903
2019-12-15T08:35:00	0.2334	3.498		0.579848416	0.710953130	0.011432536	0.117947371	0.036352525
2019-12-15T08:40:00	0.2288	3.517		0.564520297	0.688849397	0.010881012	0.112257397	0.034598820
2019-12-15T08:45:00	0.2325	3.541		0.576776238	0.706507343	0.011320881	0.116795443	0.035997490
2019-12-15T08:50:00	0.2346	3.563		0.583965116	0.716922742	0.011583032	0.119500009	0.036831063
2019-12-15T08:55:00	0.2368	3.584		0.591473827	0.727847396	0.011860127	0.122358741	0.037712152
2019-12-15T09:00:00	0.2374	3.602		0.593287848	0.730493715	0.011927573	0.123054575	0.037926615
2019-12-15T09:05:00	0.2372	3.620		0.592761179	0.729725121	0.011907971	0.122852343	0.037864285
2019-12-15T09:10:00	0.2375	3.641		0.593571826	0.730908234	0.011938150	0.123163688	0.037960245
2019-12-15T09:15:00	0.2361	3.661		0.589030896	0.724287947	0.011769607	0.121424862	0.037424322
2019-12-15T09:20:00	0.2345	3.677		0.583478516	0.716216391	0.011565191	0.119315944	0.036774333
2019-12-15T09:25:00	0.2337	3.684		0.580938033	0.712531811	0.011472272	0.118357317	0.036478874
2019-12-15T09:30:00	0.2326	3.692		0.577388378	0.707392555	0.011343084	0.117024507	0.036068090
2019-12-15T09:35:00	0.2308	3.696		0.571144759	0.698378271	0.011117663	0.114698876	0.035351307
2019-12-15T09:40:00	0.2285	3.705		0.563541611	0.687444690	0.010846270	0.111898964	0.034488348
2019-12-15T09:45:00	0.2272	3.713		0.558961598	0.680881498	0.010684433	0.110229328	0.033973749
2019-12-15T09:50:00	0.2282	3.715		0.562479224	0.685920742	0.010808620	0.111510537	0.034368630
2019-12-15T09:55:00	0.2282	3.712		0.562622468	0.686126165	0.010813692	0.111562869	0.034384760
2019-12-15T10:00:00	0.2306	3.712		0.570513462	0.697468626	0.011094999	0.114465055	0.035279242
2019-12-15T10:05:00	0.2309	3.711		0.571645113	0.699099472	0.011135642	0.114884371	0.035408479
2019-12-15T10:10:00	0.2316	3.711		0.573785058	0.702186287	0.011212707	0.115679432	0.035653524
2019-12-15T10:15:00	0.2324	3.711		0.576595565	0.706246133	0.011314332	0.116727879	0.035976666
2019-12-15T10:20:00	0.2325	3.712		0.577053601	0.706908397	0.011330939	0.116899205	0.036029470
2019-12-15T10:25:00	0.2339	3.712		0.581539039	0.713402993	0.011494219	0.118583743	0.036548661
2019-12-15T10:30:00	0.2328	3.717		0.577969493	0.708233188	0.011364182	0.117242174	0.036135177
2019-12-15T10:35:00	0.2333	3.721		0.579770000	0.710839556	0.011429680	0.117917897	0.036343441
2019-12-15T10:40:00	0.2334	3.727		0.579892051	0.711016332	0.011434126	0.117963774	0.036357581
2019-12-15T10:45:00	0.2338	3.737		0.581356142	0.713137844	0.011487538	0.118514814	0.036527417
2019-12-15T10:50:00	0.2352	3.755		0.585836093	0.719640494	0.011651763	0.120209093	0.037049610
2019-12-15T10:55:00	0.2353	3.773		0.586292926	0.720304524	0.011668577	0.120382555	0.037103073
2019-12-15T11:00:00	0.2348	3.789		0.584739528	0.718047288	0.011611455	0.119793244	0.036921441
2019-12-15T11:05:00	0.2344	3.805		0.583185445	0.715791062	0.011554452	0.119205154	0.036740186
2019-12-15T11:10:00	0.2346	3.820		0.583977834	0.716941207	0.011583499	0.119504822	0.036832547
2019-12-15T11:15:00	0.2359	3.836		0.588454450	0.723448769	0.011748299	0.121205035	0.037356569
2019-12-15T11:20:00	0.2340	3.849		0.581874642	0.713889594	0.011506484	0.118710277	0.036587660
2019-12-15T11:25:00	0.2344	3.864		0.583337907	0.716012319	0.011560038	0.119262783	0.036757948
2019-12-15T11:30:00	0.2331	3.876		0.579098929	0.709867817	0.011405245	0.117665815	0.036265747
2019-12-15T11:35:00	0.2317	3.888		0.574182623	0.702760183	0.011227054	0.115827448	0.035699145
2019-12-15T11:40:00	0.2286	3.897		0.563869550	0.687915293	0.010857905	0.112019003	0.034525345
2019-12-15T11:45:00	0.2269	3.895		0.557918813	0.679389595	0.010647759	0.109850964	0.033857134
2019-12-15T11:50:00	0.2272	3.893		0.559054552	0.681014531	0.010687706	0.110263088	0.033984154
2019-12-15T11:55:00	0.2261	3.901		0.555461966	0.675878141	0.010561605	0.108962133	0.033583188
2019-12-15T12:00:00	0.2268	3.925		0.557611850	0.678950595	0.010636975	0.109739712	0.033822845
2019-12-15T12:05:00	0.2268	3.959		0.557734677	0.679126245	0.010641289	0.109784221	0.033836563
2019-12-15T12:10:00	0.2258	3.991		0.554478780	0.674474310	0.010527227	0.108607465	0.033473876
2019-12-15T12:15:00	0.2259	4.017		0.554601717	0.674649802	0.010531523	0.108651781	0.033487534
2019-12-15T12:20:00	0.2247	4.039		0.550666137	0.669037986	0.010394454	0.107237662	0.033051689
2019-12-15T12:25:00	0.2247	4.056		0.550789209	0.669213285	0.010398726	0.107281741	0.033065275
2019-12-15T12:30:00	0.2257	4.073		0.553956391	0.673728747	0.010508985	0.108419261	0.033415869
2019-12-15T12:35:00	0.2255	4.090		0.553403131	0.672939369	0.010489682	0.108220115	0.033354490
2019-12-15T12:40:00	0.2259	4.105		0.554540345	0.674562192	0.010529378	0.108629657	0.033480715
2019-12-15T12:45:00	0.2246	4.123		0.550266265	0.668468514	0.010380578	0.107094507	0.033007567
2019-12-15T12:50:00	0.2241	4.142		0.548696770	0.666234602	0.010326205	0.106533558	0.032834677
2019-12-15T12:55:00	0.2258	4.164		0.554233083	0.674123620	0.010518645	0.108518926	0.033446587
2019-12-15T13:00:00	0.2263	4.192		0.556045859	0.676712221	0.010582048	0.109173040	0.033648191
2019-12-15T13:05:00	0.2262	4.227		0.555830852	0.676405056	0.010574518	0.109095354	0.033624248
2019-12-15T13:10:00	0.2266	4.265		0.556967273	0.678029015	0.010614349	0.109506284	0.033750900
2019-12-15T13:15:00	0.2264	4.288		0.556414492	0.677238951	0.010594965	0.109306300	0.033689263
2019-12-15T13:20:00	0.2273	4.305		0.559576559	0.681761738	0.010706091	0.110452770	0.034042616
2019-12-15T13:25:00	0.2277	4.323		0.560711758	0.683387451	0.010746130	0.110865841	0.034169929
2019-12-15T13:30:00	0.2295	4.339		0.566902750	0.692272233	0.010965824	0.113132383	0.034868499
2019-12-15T13:35:00	0.2320	4.350		0.575099646	0.704084428	0.011260183	0.116169232	0.035804486
2019-12-15T13:40:00	0.2354	4.357		0.586628455	0.720792344	0.011680934	0.120510039	0.037142364
2019-12-15T13:45:00	0.2373	4.364		0.593108249	0.730231591	0.011920887	0.122985593	0.037905354
2019-12-15T13:50:00	0.2369	4.379		0.591557854	0.727969915	0.011863247	0.122390928	0.037722073
2019-12-15T13:55:00	0.2378	4.392		0.594688394	0.732538729	0.011979781	0.123593191	0.038092622
2019-12-15T14:00:00	0.2403	4.406		0.603154266	0.744935112	0.012297855	0.126874699	0.039104015
2019-12-15T14:05:00	0.2380	4.422		0.595265600	0.733382016	0.012001331	0.123815522	0.038161146
2019-12-15T14:10:00	0.2373	4.435		0.593047547	0.730143003	0.011918627	0.122962282	0.037898170
2019-12-15T14:15:00	0.2400	4.440		0.602184351	0.743511848	0.012261196	0.126496502	0.038987450
2019-12-15T14:20:00	0.2365	4.446		0.590280636	0.726108248	0.011815870	0.121902152	0.037571427
2019-12-15T14:25:00	0.2381	4.452		0.595751635	0.734092319	0.012019493	0.124002894	0.038218896
2019-12-15T14:30:00	0.2383	4.460		0.596207184	0.734758250	0.012036529	0.124178646	0.038273065
2019-12-15T14:35:00	0.2372	4.466		0.592652488	0.729566531	0.011903928	0.122810629	0.037851429
2019-12-15T14:40:00	0.2375	4.469		0.593777033	0.731207815	0.011945795	0.123242566	0.037984556
2019-12-15T14:45:00	0.2339	4.472		0.581509443	0.713360085	0.011493138	0.118572588	0.036545223
2019-12-15T14:50:00	0.2351	4.473		0.585654178	0.719376119	0.011645071	0.120140055	0.037028332
2019-12-15T14:55:00	0.2324	4.473		0.576718677	0.706424122	0.011318794	0.116773916	0.035990855
2019-12-15T15:00:00	0.2342	4.475		0.582546132	0.714863489	0.011531044	0.118963658	0.036665755
2019-12-15T15:05:00	0.2360	4.476		0.588698704	0.723804315	0.011757325	0.121298156	0.037385270
2019-12-15T15:10:00	0.2356	4.479		0.587481248	0.722032626	0.011712371	0.120834367	0.037242326
2019-12-15T15:15:00	0.2347	4.481		0.584252921	0.717340614	0.011593591	0.119608945	0.036864639
2019-12-15T15:20:00	0.2328	4.482		0.578001020	0.708278803	0.011365328	0.117253989	0.036138818
2019-12-15T15:25:00	0.2317	4.480		0.574091745	0.702628987	0.011223774	0.115793605	0.035688714
2019-12-15T15:30:00	0.2335	4.477		0.580259128	0.711548071	0.011447506	0.118101808	0.036400124
2019-12-15T15:35:00	0.2320	4.474		0.575344449	0.704438058	0.011269035	0.116260559	0.035832634
2019-12-15T15:40:00	0.2333	4.473		0.579496463	0.710443417	0.011419717	0.117815112	0.036311762
2019-12-15T15:45:00	0.2312	4.471		0.572563562	0.700423847	0.011168685	0.115225263	0.035513545
2019-12-15T15:50:00	0.2321	4.468		0.575711052	0.704967727	0.011282299	0.116397394	0.035874807
2019-12-15T15:55:00	0.2314	4.466		0.573144411	0.701261774	0.011189607	0.115441117	0.035580073
2019-12-15T16:00:00	0.2345	4.461		0.583674098	0.716500275	0.011572360	0.119389909	0.036797129
2019-12-15T16:05:00	0.2352	4.456		0.586132737	0.720071662	0.011662680	0.120321716	0.037084321
2019-12-15T16:10:00	0.2349	4.453		0.584905397	0.718288216	0.011617548	0.119856099	0.036940814
2019-12-15T16:15:00	0.2344	4.449		0.583342388	0.716018822	0.011560202	0.119264477	0.036758470
2019-12-15T16:20:00	0.2342	4.445		0.582784758	0.715209670	0.011539779	0.119053768	0.036693528
2019-12-15T16:25:00	0.2343	4.438		0.582897704	0.715373540	0.011543914	0.119096431	0.036706677
2019-12-15T16:30:00	0.2324	4.432		0.576634371	0.706302235	0.011315739	0.116742389	0.035981138
2019-12-15T16:35:00	0.2324	4.427		0.576747515	0.706465815	0.011319840	0.116784701	0.035994179
2019-12-15T16:40:00	0.2304	4.424		0.569800134	0.696441178	0.011069418	0.114201143	0.035197901
2019-12-15T16:45:00	0.2332	4.421		0.579324065	0.710193782	0.011413440	0.117750355	0.036291803
2019-12-15T16:50:00	0.2277	4.419		0.560928642	0.683698169	0.010753788	0.110944848	0.034194280
2019-12-15T16:55:00	0.2330	4.416		0.578543173	0.709063341	0.011385030	0.117457259	0.036201468
2019-12-15T17:00:00	0.2333	4.413		0.579663226	0.710684918	0.011425790	0.117877770	0.036331073
2019-12-15T17:05:00	0.2332	4.412		0.579440658	0.710362608	0.011417685	0.117794148	0.036305300
2019-12-15T17:10:00	0.2336	4.409		0.580560424	0.711984604	0.011458494	0.118215167	0.036435063
2019-12-15T17:15:00	0.2327	4.403		0.577652533	0.707774643	0.011352672	0.117123426	0.036098577
2019-12-15T17:20:00	0.2319	4.396		0.575078293	0.704053585	0.011259411	0.116161268	0.035802031
2019-12-15T17:25:00	0.2321	4.390		0.575527508	0.704702528	0.011275657	0.116328876	0.035853689
2019-12-15T17:30:00	0.2331	4.382		0.578999016	0.709723170	0.011401610	0.117628307	0.036254187
2019-12-15T17:35:00	0.2326	4.374		0.577097537	0.706971933	0.011332532	0.116915646	0.036034537
2019-12-15T17:40:00	0.2328	4.365		0.577882288	0.708107021	0.011361015	0.117209497	0.036125105
2019-12-15T17:45:00	0.2324	4.357		0.576652062	0.706327811	0.011316380	0.116749004	0.035983177
2019-12-15T17:50:00	0.2335	4.349		0.580122458	0.711350080	0.011442523	0.118050405	0.036384281
2019-12-15T17:55:00	0.2342	4.340		0.582583581	0.714917814	0.011532415	0.118977797	0.036670113
2019-12-15T18:00:00	0.2344	4.329		0.583367108	0.716054698	0.011561108	0.119273822	0.036761350
2019-12-15T18:05:00	0.2342	4.318		0.582474158	0.714759083	0.011528411	0.118936486	0.036657380
2019-12-15T18:10:00	0.2349	4.306		0.584933636	0.718329235	0.011618585	0.119866802	0.036944112
2019-12-15T18:15:00	0.2359	4.293		0.588395868	0.723363501	0.011746135	0.121182706	0.037349687
2019-12-15T18:20:00	0.2363	4.279		0.589512787	0.724989688	0.011787434	0.121608788	0.037481010
2019-12-15T18:25:00	0.2356	4.266		0.587282122	0.721742968	0.011705026	0.120758597	0.037218972
2019-12-15T18:30:00	0.2360	4.252		0.588734154	0.723855922	0.011758635	0.121311675	0.037389436
2019-12-15T18:35:00	0.2352	4.239		0.585833019	0.719636026	0.011651650	0.120207927	0.037049250
2019-12-15T18:40:00	0.2354	4.228		0.586615822	0.720773975	0.011680468	0.120505238	0.037140885
2019-12-15T18:45:00	0.2347	4.215		0.584383320	0.717529965	0.011598377	0.119658319	0.036879856
2019-12-15T18:50:00	0.2353	4.204		0.586171552	0.720128084	0.011664108	0.120336456	0.037088865
2019-12-15T18:55:00	0.2354	4.195		0.586619350	0.720779105	0.011680598	0.120506579	0.037141298
2019-12-15T19:00:00	0.2334	4.184		0.580027096	0.711211942	0.011439048	0.118014546	0.036373229
2019-12-15T19:05:00	0.2342	4.173		0.582488287	0.714779578	0.011528928	0.118941820	0.036659024
2019-12-15T19:10:00	0.2335	4.162		0.580253162	0.711539427	0.011447288	0.118099563	0.036399432
2019-12-15T19:15:00	0.2337	4.150		0.581037207	0.712675547	0.011475892	0.118394665	0.036490386
2019-12-15T19:20:00	0.2346	4.140		0.583832917	0.716730822	0.011578184	0.119449988	0.036815646
2019-12-15T19:25:00	0.2356	4.132		0.587296232	0.721763491	0.011705547	0.120763966	0.037220627
2019-12-15T19:30:00	0.2364	4.120		0.590086975	0.725826086	0.011808695	0.121828128	0.037548612
2019-12-15T19:35:00	0.2354	4.109		0.586517109	0.720630449	0.011676832	0.120467725	0.037129323
2019-12-15T19:40:00	0.2353	4.098		0.586294974	0.720307502	0.011668652	0.120383333	0.037103312
2019-12-15T19:45:00	0.2347	4.084		0.584397441	0.717550472	0.011598895	0.119663666	0.036881504
2019-12-15T19:50:00	0.2347	4.070		0.584175173	0.717227722	0.011590738	0.119579512	0.036855567
2019-12-15T19:55:00	0.2341	4.057		0.582276496	0.714472377	0.011521179	0.118861880	0.036634386
2019-12-15T20:00:00	0.2341	4.044		0.582389458	0.714636223	0.011525311	0.118904514	0.036647526
2019-12-15T20:05:00	0.2333	4.029		0.579483082	0.710424041	0.011419229	0.117810085	0.036310212
2019-12-15T20:10:00	0.2342	4.014		0.582615371	0.714963930	0.011533578	0.118989801	0.036673812
2019-12-15T20:15:00	0.2349	3.997		0.585074750	0.718534228	0.011623770	0.119920292	0.036960599
2019-12-15T20:20:00	0.2356	3.982		0.587197537	0.721619937	0.011701907	0.120726419	0.037209055
2019-12-15T20:25:00	0.2360	3.965		0.588649605	0.723732840	0.011755510	0.121279434	0.037379499
2019-12-15T20:30:00	0.2360	3.950		0.588762362	0.723896987	0.011759678	0.121322432	0.037392752
2019-12-15T20:35:00	0.2358	3.934		0.587870781	0.722599355	0.011726744	0.120982661	0.037288031
2019-12-15T20:40:00	0.2362	3.918		0.589322571	0.724712668	0.011780396	0.121536170	0.037458628
2019-12-15T20:45:00	0.2362	3.900		0.589435307	0.724876847	0.011784567	0.121579206	0.037471892
2019-12-15T20:50:00	0.2357	3.885		0.587539466	0.722117319	0.011714518	0.120856525	0.037249155
2019-12-15T20:55:00	0.2361	3.868		0.588991392	0.724230430	0.011768146	0.121409791	0.037419677
2019-12-15T21:00:00	0.2359	3.849		0.588434657	0.723419959	0.011747568	0.121197491	0.037354244
2019-12-15T21:05:00	0.2346	3.833		0.583857634	0.716766703	0.011579090	0.119459340	0.036818529
2019-12-15T21:10:00	0.2352	3.816		0.585981155	0.719851330	0.011657101	0.120264160	0.037066582
2019-12-15T21:15:00	0.2352	3.797		0.586093998	0.720015351	0.011661254	0.120307006	0.037079788
2019-12-15T21:20:00	0.2350	3.778		0.585201741	0.718718717	0.011628437	0.119968439	0.036975438
2019-12-15T21:25:00	0.2350	3.758		0.585314609	0.718882701	0.011632585	0.120011239	0.036988630
2019-12-15T21:30:00	0.2349	3.738		0.585092399	0.718559866	0.011624418	0.119926982	0.036962661
2019-12-15T21:35:00	0.2352	3.721		0.585875366	0.719697572	0.011653208	0.120224000	0.037054205
2019-12-15T21:40:00	0.2344	3.703		0.583307149	0.715967681	0.011558911	0.119251156	0.036754364
2019-12-15T21:45:00	0.2344	3.684		0.583420078	0.716131576	0.011563049	0.119293848	0.036767523
2019-12-15T21:50:00	0.2339	3.667		0.581520993	0.713376830	0.011493560	0.118576941	0.036546565
2019-12-15T21:55:00	0.2334	3.650		0.579956477	0.711109649	0.011436474	0.117987994	0.036365046
2019-12-15T22:00:00	0.2340	3.637		0.582082355	0.714190810	0.011514079	0.118788626	0.036611808
2019-12-15T22:05:00	0.2342	3.625		0.582610623	0.714957043	0.011533404	0.118988008	0.036673260
2019-12-15T22:10:00	0.2343	3.612		0.582803520	0.715236889	0.011540465	0.119060854	0.036695712
2019-12-15T22:15:00	0.2350	3.597		0.585342655	0.718923450	0.011633616	0.120021876	0.036991908
2019-12-15T22:20:00	0.2352	3.583		0.585870433	0.719690403	0.011653027	0.120222128	0.037053627
2019-12-15T22:25:00	0.2357	3.569		0.587737743	0.722405785	0.011721834	0.120932003	0.037272418
2019-12-15T22:30:00	0.2361	3.554		0.588934676	0.724147854	0.011766049	0.121388155	0.037413008
2019-12-15T22:35:00	0.2366	3.540		0.590800362	0.726865634	0.011835137	0.122100924	0.037632691
2019-12-15T22:40:00	0.2366	3.527		0.590658265	0.726658536	0.011829867	0.122046562	0.037615936
2019-12-15T22:45:00	0.2369	3.512		0.591519743	0.727914345	0.011861831	0.122376329	0.037717573
2019-12-15T22:50:00	0.2361	3.494		0.589035445	0.724294571	0.011769775	0.121426598	0.037424857
2019-12-15T22:55:00	0.2360	3.474		0.588558531	0.723600267	0.011752145	0.121244711	0.037368798
2019-12-15T23:00:00	0.2360	3.458		0.588751102	0.723880594	0.011759262	0.121318138	0.037391428
2019-12-15T23:05:00	0.2369	3.441		0.591620438	0.728061172	0.011865571	0.122414904	0.037729462
2019-12-15T23:10:00	0.2369	3.425		0.591812841	0.728341745	0.011872717	0.122488628	0.037752185
2019-12-15T23:15:00	0.2374	3.407		0.593342714	0.730573798	0.011929616	0.123075652	0.037933111
2019-12-15T23:20:00	0.2371	3.390		0.592197616	0.728902940	0.011887014	0.122636134	0.037797647
2019-12-15T23:25:00	0.2370	3.374		0.592055574	0.728695758	0.011881735	0.122581671	0.037780861
2019-12-15T23:30:00	0.2377	3.356		0.594253847	0.731904048	0.011963570	0.123425945	0.038041075
2019-12-15T23:35:00	0.2379	3.341		0.595114448	0.733161159	0.011995686	0.123757280	0.038143196
2019-12-15T23:40:00	0.2384	3.324		0.596642891	0.735395336	0.012052834	0.124346862	0.038324910
2019-12-15T23:45:00	0.2390	3.305		0.598838310	0.738607869	0.012135163	0.125196242	0.038586698
2019-12-15T23:50:00	0.2391	3.289		0.599030320	0.738889027	0.012142377	0.125270670	0.038609637
2019-12-15T23:55:00	0.2397	3.271		0.600890681	0.741614725	0.012212389	0.125992967	0.038832256
2019-12-16T00:00:00	0.2404	3.257		0.603416837	0.745320548	0.012307788	0.126977183	0.039135601
2019-12-16T00:05:00	0.2397	3.243		0.600940895	0.741688337	0.012214282	0.126012492	0.038838274
2019-12-16T00:10:00	0.2402	3.227		0.602800251	0.744415536	0.012284468	0.126736592	0.039061448
2019-12-16T00:15:00	0.2409	3.212		0.604991855	0.747633773	0.012367462	0.127592822	0.039325347
2019-12-16T00:20:00	0.2394	3.196		0.600182163	0.740576302	0.012185701	0.125717628	0.038747394
2019-12-16T00:25:00	0.2404	3.180		0.603375606	0.745260020	0.012306228	0.126961088	0.039130640
2019-12-16T00:30:00	0.2410	3.164		0.605233685	0.747989133	0.012376637	0.127687484	0.039354523
2019-12-16T00:35:00	0.2412	3.148		0.606091619	0.749250228	0.012409217	0.128023604	0.039458118
2019-12-16T00:40:00	0.2437	3.132		0.614268309	0.761300308	0.012721941	0.131249923	0.040452501
2019-12-16T00:45:00	0.2454	3.118		0.620104445	0.769935468	0.012947608	0.133578081	0.041170062
2019-12-16T00:50:00	0.2459	3.105		0.621622164	0.772185790	0.013006630	0.134187000	0.041357737
2019-12-16T00:55:00	0.2450	3.094		0.618826986	0.768042885	0.012898037	0.133066667	0.041012439
2019-12-16T01:00:00	0.2455	3.087		0.620345249	0.770292379	0.012956963	0.133674598	0.041199809
2019-12-16T01:05:00	0.2444	3.078		0.616552835	0.764677083	0.012810033	0.132158749	0.040732610
2019-12-16T01:10:00	0.2444	3.069		0.616743889	0.764959680	0.012817414	0.132234901	0.040756081
2019-12-16T01:15:00	0.2448	3.065		0.617931060	0.766716371	0.012863330	0.132708599	0.040902079
2019-12-16T01:20:00	0.2465	3.065		0.623761203	0.775360642	0.013090050	0.135047631	0.041622991
2019-12-16T01:25:00	0.2463	3.064		0.622957425	0.774167189	0.013058671	0.134723901	0.041523215
2019-12-16T01:30:00	0.2466	3.065		0.623811095	0.775434741	0.013091999	0.135067739	0.041629189
2019-12-16T01:35:00	0.2470	3.067		0.625327238	0.777687467	0.013151299	0.135679523	0.041817747
2019-12-16T01:40:00	0.2464	3.069		0.623198037	0.774524393	0.013068060	0.134820768	0.041553070
2019-12-16T01:45:00	0.2468	3.072		0.624714440	0.776776722	0.013127314	0.135432079	0.041741482
2019-12-16T01:50:00	0.2475	3.073		0.626892587	0.780015342	0.013212669	0.136312666	0.042012888
2019-12-16T01:55:00	0.2476	3.075		0.627414217	0.780791534	0.013233152	0.136523992	0.042078020
2019-12-16T02:00:00	0.2476	3.075		0.627273578	0.780582238	0.013227628	0.136466999	0.042060454
2019-12-16T02:05:00	0.2479	3.078		0.628126217	0.781851368	0.013261138	0.136812714	0.042167007
2019-12-16T02:10:00	0.2469	3.080		0.625004809	0.777208231	0.013138676	0.135549299	0.041777610
2019-12-16T02:15:00	0.2470	3.083		0.625195410	0.777491517	0.013146137	0.135626272	0.041801334
2019-12-16T02:20:00	0.2473	3.084		0.626379771	0.779252491	0.013192547	0.136105077	0.041948907
2019-12-16T02:25:00	0.2478	3.088		0.627894824	0.781506885	0.013252039	0.136718848	0.042138077
2019-12-16T02:30:00	0.2495	3.093		0.633708739	0.790175992	0.013481626	0.139087448	0.042868102
2019-12-16T02:35:00	0.2494	3.098		0.633237786	0.789472691	0.013462952	0.138894795	0.042808725
2019-12-16T02:40:00	0.2496	3.099		0.633758492	0.790250303	0.013483599	0.139107809	0.042874378
2019-12-16T02:45:00	0.2481	3.099		0.628987537	0.783134042	0.013295034	0.137162410	0.042274787
2019-12-16T02:50:00	0.2477	3.100		0.627522787	0.780953115	0.013237418	0.136567997	0.042091583
2019-12-16T02:55:00	0.2466	3.105		0.624069442	0.775818463	0.013102094	0.135171884	0.041661288
2019-12-16T03:00:00	0.2458	3.108		0.621276183	0.771672634	0.012993163	0.134048064	0.041314915
2019-12-16T03:05:00	0.2455	3.111		0.620471845	0.770480034	0.012961883	0.133725353	0.041215453
2019-12-16T03:10:00	0.2464	3.115		0.623315633	0.774698991	0.013072650	0.134868124	0.041567666
2019-12-16T03:15:00	0.2474	3.120		0.626488372	0.779414024	0.013196807	0.136149026	0.041962452
2019-12-16T03:20:00	0.2472	3.124		0.626016468	0.778712185	0.013178302	0.135958111	0.041903610
2019-12-16T03:25:00	0.2485	3.127		0.630179523	0.784910179	0.013342016	0.137647121	0.042424179
2019-12-16T03:30:00	0.2509	3.132		0.638301242	0.797044099	0.013664428	0.140973383	0.043449366
2019-12-16T03:35:00	0.2497	3.137		0.634197372	0.790905895	0.013501015	0.139287481	0.042929754
2019-12-16T03:40:00	0.2492	3.141		0.632734754	0.788721691	0.013443021	0.138689172	0.042745350
2019-12-16T03:45:00	0.2499	3.147		0.634908024	0.791967803	0.013529239	0.139578668	0.043019501
2019-12-16T03:50:00	0.2489	3.151		0.631461806	0.786822206	0.013392654	0.138169540	0.042585194
2019-12-16T03:55:00	0.2477	3.157		0.627681192	0.781188883	0.013243642	0.136632215	0.042111376
2019-12-16T04:00:00	0.2473	3.162		0.626215906	0.779008777	0.013186121	0.136038779	0.041928473
2019-12-16T04:05:00	0.2483	3.167		0.629564596	0.783993747	0.013317768	0.137396955	0.042347076
2019-12-16T04:10:00	0.2466	3.172		0.623972630	0.775674661	0.013098310	0.135132852	0.041649257
2019-12-16T04:15:00	0.2440	3.179		0.615383041	0.762947453	0.012764886	0.131692979	0.040589055
2019-12-16T04:20:00	0.2450	3.185		0.618741911	0.767916893	0.012894739	0.133032644	0.041001953
2019-12-16T04:25:00	0.2462	3.191		0.622760771	0.773875279	0.013051000	0.134644758	0.041498822
2019-12-16T04:30:00	0.2483	3.199		0.629754430	0.784276624	0.013325251	0.137474159	0.042370871
2019-12-16T04:35:00	0.2489	3.208		0.631446484	0.786799352	0.013392048	0.138163292	0.042583268
2019-12-16T04:40:00	0.2494	3.217		0.633137739	0.789323309	0.013458987	0.138853887	0.042796116
2019-12-16T04:45:00	0.2476	3.226		0.627220246	0.780502876	0.013225533	0.136445390	0.042053794
2019-12-16T04:50:00	0.2467	3.234		0.624276834	0.776126543	0.013110200	0.135255519	0.041687064
2019-12-16T04:55:00	0.2487	3.243		0.630936756	0.786039130	0.013371907	0.137955504	0.042519226
2019-12-16T05:00:00	0.2502	3.252		0.635933050	0.793500225	0.013570003	0.139999225	0.043149121
2019-12-16T05:05:00	0.2486	3.262		0.630681865	0.785659062	0.013361842	0.137851659	0.042487220
2019-12-16T05:10:00	0.2491	3.270		0.632373482	0.788182463	0.013428717	0.138541594	0.042699865
2019-12-16T05:15:00	0.2505	3.279		0.637037563	0.795152478	0.013614000	0.140453130	0.043289019
2019-12-16T05:20:00	0.2502	3.289		0.635754319	0.793232957	0.013562891	0.139925846	0.043126505
2019-12-16T05:25:00	0.2508	3.298		0.637773716	0.796254273	0.013643365	0.140756081	0.043382391
2019-12-16T05:30:00	0.2523	3.308		0.642760501	0.803730069	0.013843152	0.142817244	0.044017662
2019-12-16T05:35:00	0.2543	3.318		0.649386220	0.813695541	0.014110940	0.145579971	0.044869161
2019-12-16T05:40:00	0.2548	3.329		0.651069053	0.816232575	0.014179381	0.146286058	0.045086784
2019-12-16T05:45:00	0.2549	3.338		0.651435715	0.816785675	0.014194316	0.146440140	0.045134273
2019-12-16T05:50:00	0.2544	3.348		0.649828562	0.814362181	0.014128914	0.145765397	0.044926311
2019-12-16T05:55:00	0.2543	3.358		0.649537251	0.813923137	0.014117076	0.145643268	0.044888670
2019-12-16T06:00:00	0.2552	3.368		0.652206657	0.817948992	0.014225745	0.146764387	0.045234209
2019-12-16T06:05:00	0.2572	3.381		0.658815056	0.827941596	0.014496640	0.149559163	0.046095586
2019-12-16T06:10:00	0.2571	3.392		0.658524470	0.827501414	0.014484672	0.149435691	0.046057531
2019-12-16T06:15:00	0.2573	3.404		0.659218589	0.828552990	0.014513268	0.149730715	0.046148460
2019-12-16T06:20:00	0.2578	3.416		0.660896848	0.831097219	0.014582532	0.150445290	0.046368699
2019-12-16T06:25:00	0.2580	3.428		0.661590512	0.832149514	0.014611210	0.150741161	0.046459890
2019-12-16T06:30:00	0.2579	3.439		0.661300149	0.831708979	0.014599202	0.150617274	0.046421707
2019-12-16T06:35:00	0.2593	3.450		0.665926962	0.838737286	0.014791163	0.152597702	0.047032094
2019-12-16T06:40:00	0.2606	3.463		0.670220691	0.845276046	0.014970481	0.154447694	0.047602279
2019-12-16T06:45:00	0.2615	3.475		0.672874893	0.849325950	0.015081895	0.155597132	0.047956547
2019-12-16T06:50:00	0.2622	3.488		0.675200418	0.852879321	0.015179869	0.156607912	0.048268079
2019-12-16T06:55:00	0.2629	3.501		0.677524458	0.856435073	0.015278114	0.157621483	0.048580472
2019-12-16T07:00:00	0.2638	3.515		0.680499637	0.860993847	0.015404370	0.158924050	0.048981936
2019-12-16T07:05:00	0.2646	3.528		0.683146361	0.865055754	0.015517148	0.160087560	0.049340541
2019-12-16T07:10:00	0.2666	3.542		0.689698779	0.875137722	0.015798215	0.162987271	0.050234260
2019-12-16T07:15:00	0.2659	3.554		0.687457211	0.871684528	0.015701763	0.161992198	0.049927569
2019-12-16T07:20:00	0.2670	3.568		0.691075046	0.877260051	0.015857588	0.163599814	0.050423052
2019-12-16T07:25:00	0.2680	3.580		0.694364279	0.882338989	0.015999965	0.165068687	0.050875772
2019-12-16T07:30:00	0.2685	3.594		0.695701514	0.884406508	0.016058040	0.165667839	0.051060437
2019-12-16T07:35:00	0.2687	3.607		0.696388586	0.885469403	0.016087922	0.165976130	0.051155455
2019-12-16T07:40:00	0.2680	3.622		0.694151109	0.882009548	0.015990717	0.164973282	0.050846368
2019-12-16T07:45:00	0.2679	3.636		0.693863329	0.881564863	0.015978237	0.164844530	0.050806685
2019-12-16T07:50:00	0.2675	3.651		0.692600048	0.879613658	0.015923515	0.164279972	0.050632683
2019-12-16T07:55:00	0.2682	3.664		0.694913050	0.883187265	0.016023784	0.165314427	0.050951512
2019-12-16T08:00:00	0.2672	3.677		0.691698954	0.878222714	0.015884543	0.163877900	0.050508760
2019-12-16T08:05:00	0.2679	3.689		0.694012524	0.881795394	0.015984707	0.164911273	0.050827256
2019-12-16T08:10:00	0.2678	3.700		0.693399616	0.880848472	0.015958139	0.164637179	0.050742777
2019-12-16T08:15:00	0.2667	3.712		0.689858760	0.875384343	0.015805111	0.163058412	0.050256186
2019-12-16T08:20:00	0.2667	3.726		0.689896100	0.875441908	0.015806720	0.163075019	0.050261305
2019-12-16T08:25:00	0.2663	3.743		0.688631449	0.873492931	0.015752250	0.162513063	0.050088104
2019-12-16T08:30:00	0.2670	3.758		0.690946958	0.877062458	0.015852057	0.163542754	0.050405465
2019-12-16T08:35:00	0.2676	3.775		0.692935844	0.880132177	0.015938051	0.164429939	0.050678904
2019-12-16T08:40:00	0.2675	3.793		0.692647969	0.879687648	0.015925589	0.164301369	0.050639278
2019-12-16T08:45:00	0.2680	3.810		0.694310895	0.882256485	0.015997649	0.165044792	0.050868408
2019-12-16T08:50:00	0.2692	3.826		0.698246690	0.888345925	0.016168883	0.166811383	0.051412888
2019-12-16T08:55:00	0.2702	3.844		0.701205076	0.892931972	0.016298228	0.168145811	0.051824172
2019-12-16T09:00:00	0.2701	3.866		0.700917849	0.892486383	0.016285646	0.168016006	0.051784165
2019-12-16T09:05:00	0.2694	3.889		0.698683131	0.889022012	0.016187930	0.167007894	0.051473455
2019-12-16T09:10:00	0.2684	3.910		0.695472339	0.884052067	0.016048079	0.165565075	0.051028764
2019-12-16T09:15:00	0.2683	3.934		0.695184663	0.883607213	0.016035580	0.165436126	0.050989021
2019-12-16T09:20:00	0.2706	3.961		0.702688666	0.895234674	0.016363298	0.168817127	0.052031078
2019-12-16T09:25:00	0.2704	3.990		0.702077205	0.894285384	0.016336463	0.168540273	0.051945749
2019-12-16T09:30:00	0.2694	4.016		0.698869379	0.889310577	0.016196062	0.167091790	0.051499312
2019-12-16T09:35:00	0.2702	4.045		0.701502863	0.893394019	0.016311278	0.168280445	0.051865667
2019-12-16T09:40:00	0.2707	4.078		0.702837503	0.895465791	0.016369833	0.168884553	0.052051859
2019-12-16T09:45:00	0.2708	4.108		0.703198991	0.896027198	0.016385712	0.169048374	0.052102351
2019-12-16T09:50:00	0.2713	4.138		0.704857148	0.898603848	0.016458654	0.169800902	0.052334287
2019-12-16T09:55:00	0.2717	4.164		0.706190572	0.900677621	0.016517436	0.170407339	0.052521197
2019-12-16T10:00:00	0.2703	4.191		0.701688968	0.893682818	0.016319436	0.168364614	0.051891609
2019-12-16T10:05:00	0.2703	4.224		0.701640137	0.893607039	0.016317295	0.168342527	0.051884802
2019-12-16T10:10:00	0.2695	4.255		0.698995132	0.889505431	0.016201554	0.167148449	0.051516775
2019-12-16T10:15:00	0.2694	4.281		0.698621611	0.888926701	0.016185245	0.166980186	0.051464915
2019-12-16T10:20:00	0.2683	4.303		0.695324565	0.883823545	0.016041658	0.165498830	0.051008347
2019-12-16T10:25:00	0.2673	4.327		0.692024554	0.878725234	0.015898619	0.164023124	0.050553520
2019-12-16T10:30:00	0.2689	4.358		0.697176034	0.886688082	0.016122206	0.166329832	0.051264470
2019-12-16T10:35:00	0.2690	4.389		0.697451931	0.887115195	0.016134228	0.166453852	0.051302694
2019-12-16T10:40:00	0.2695	4.416		0.699026570	0.889554146	0.016202927	0.167162615	0.051521141
2019-12-16T10:45:00	0.2692	4.447		0.698003661	0.887969522	0.016158281	0.166702011	0.051379179
2019-12-16T10:50:00	0.2686	4.479		0.696005894	0.884877330	0.016071275	0.165804377	0.051102519
2019-12-16T10:55:00	0.2683	4.514		0.695307119	0.883796567	0.016040900	0.165491010	0.051005937
2019-12-16T11:00:00	0.2682	4.548		0.694933222	0.883218451	0.016024660	0.165323463	0.050954297
2019-12-16T11:05:00	0.2687	4.577		0.696508942	0.885655634	0.016093160	0.166030165	0.051172109
2019-12-16T11:10:00	0.2672	4.597		0.691583893	0.878045154	0.015879570	0.163826597	0.050492948
2019-12-16T11:15:00	0.2672	4.610		0.691534927	0.877969595	0.015877454	0.163804766	0.050486220
2019-12-16T11:20:00	0.2668	4.627		0.690184523	0.875886597	0.015819157	0.163203325	0.050300850
2019-12-16T11:25:00	0.2668	4.653		0.690460946	0.876312851	0.015831081	0.163326343	0.050338765
2019-12-16T11:30:00	0.2669	4.673		0.690737348	0.876739138	0.015843009	0.163449401	0.050376693
2019-12-16T11:35:00	0.2666	4.691		0.689712124	0.875158293	0.015798790	0.162993204	0.050236089
2019-12-16T11:40:00	0.2659	4.712		0.687384178	0.871572091	0.015698626	0.161959831	0.049917593
2019-12-16T11:45:00	0.2655	4.734		0.686032240	0.869491581	0.015640611	0.161361298	0.049733119
2019-12-16T11:50:00	0.2648	4.742		0.683701949	0.865909179	0.015540877	0.160332366	0.049415992
2019-12-16T11:55:00	0.2638	4.746		0.680391429	0.860827910	0.015399769	0.158876577	0.048967304
2019-12-16T12:00:00	0.2636	4.750		0.680016004	0.860252272	0.015383809	0.158711926	0.048916557
2019-12-16T12:05:00	0.2629	4.759		0.677681866	0.856676073	0.015284780	0.157690256	0.048601668
2019-12-16T12:10:00	0.2624	4.772		0.675999659	0.854101625	0.015213618	0.156956093	0.048375392
2019-12-16T12:15:00	0.2640	4.786		0.681173756	0.862027839	0.015433054	0.159219971	0.049073142
2019-12-16T12:20:00	0.2630	4.807		0.677860939	0.856950270	0.015292365	0.157768515	0.048625789
2019-12-16T12:25:00	0.2625	4.824		0.676178815	0.854375689	0.015221188	0.157034196	0.048399464
2019-12-16T12:30:00	0.2626	4.837		0.676456300	0.854800227	0.015232918	0.157155206	0.048436761
2019-12-16T12:35:00	0.2610	4.846		0.671504115	0.847233598	0.015024301	0.155002940	0.047773411
2019-12-16T12:40:00	0.2616	4.854		0.673416906	0.850153722	0.015104700	0.155832408	0.048029062
2019-12-16T12:45:00	0.2617	4.858		0.673694601	0.850577923	0.015116391	0.155953023	0.048066236
2019-12-16T12:50:00	0.2620	4.863		0.674625950	0.852001109	0.015155636	0.156357902	0.048191024
2019-12-16T12:55:00	0.2616	4.870		0.673269274	0.849928231	0.015098487	0.155768306	0.048009305
2019-12-16T13:00:00	0.2610	4.879		0.671257929	0.846857992	0.015013969	0.154896352	0.047740560
2019-12-16T13:05:00	0.2615	4.889		0.673170849	0.849777909	0.015094345	0.155725577	0.047996135
2019-12-16T13:10:00	0.2618	4.905		0.674102332	0.851200881	0.015133565	0.156130205	0.048120845
2019-12-16T13:15:00	0.2608	4.921		0.670783071	0.846133647	0.014994052	0.154690867	0.047677228
2019-12-16T13:20:00	0.2602	4.937		0.668770350	0.843065606	0.014909784	0.153821494	0.047409278
2019-12-16T13:25:00	0.2594	4.952		0.666101421	0.839002654	0.014798427	0.152672642	0.047055191
2019-12-16T13:30:00	0.2591	4.966		0.665069239	0.837432986	0.014755478	0.152229545	0.046918624
2019-12-16T13:35:00	0.2590	4.975		0.664692228	0.836859883	0.014739807	0.152067870	0.046868794
2019-12-16T13:40:00	0.2580	4.982		0.661692335	0.832304014	0.014615422	0.150784617	0.046473283
2019-12-16T13:45:00	0.2581	4.985		0.661970929	0.832726784	0.014626950	0.150903550	0.046509940
2019-12-16T13:50:00	0.2582	4.989		0.662249502	0.833149589	0.014638482	0.151022524	0.046546609
2019-12-16T13:55:00	0.2584	4.994		0.662855938	0.834070236	0.014663603	0.151281691	0.046626486
2019-12-16T14:00:00	0.2587	4.998		0.663790070	0.835488986	0.014702343	0.151681358	0.046749668
2019-12-16T14:05:00	0.2592	5.001		0.665379303	0.837904413	0.014768373	0.152362579	0.046959627
2019-12-16T14:10:00	0.2595	5.002		0.666312786	0.839324195	0.014807230	0.152763460	0.047083182
2019-12-16T14:15:00	0.2597	5.001		0.667246028	0.840744359	0.014846130	0.153164790	0.047206876
2019-12-16T14:20:00	0.2597	4.999		0.667196735	0.840669328	0.014844074	0.153143578	0.047200338
2019-12-16T14:25:00	0.2604	4.991		0.669439083	0.844084586	0.014937755	0.154110060	0.047498217
2019-12-16T14:30:00	0.2600	4.983		0.668080468	0.842014803	0.014880958	0.153524098	0.047317618
2019-12-16T14:35:00	0.2599	4.972		0.667703770	0.841441202	0.014865230	0.153361838	0.047267608
2019-12-16T14:40:00	0.2597	4.961		0.666999554	0.840369213	0.014835851	0.153058743	0.047174191
2019-12-16T14:45:00	0.2611	4.949		0.671859416	0.847775773	0.015039218	0.155156838	0.047820844
2019-12-16T14:50:00	0.2612	4.940		0.672137231	0.848199784	0.015050887	0.155277229	0.047857950
2019-12-16T14:55:00	0.2612	4.932		0.672088003	0.848124646	0.015048819	0.155255892	0.047851374
2019-12-16T15:00:00	0.2617	4.925		0.673673608	0.850545852	0.015115507	0.155943903	0.048063425
2019-12-16T15:05:00	0.2618	4.918		0.673951285	0.850970084	0.015127202	0.156064554	0.048100611
2019-12-16T15:10:00	0.2615	4.912		0.672921332	0.849396863	0.015083848	0.155617283	0.047962758
2019-12-16T15:15:00	0.2608	4.906		0.670582639	0.845827967	0.014985649	0.154604177	0.047650509
2019-12-16T15:20:00	0.2603	4.899		0.669224452	0.843757501	0.014928774	0.154017414	0.047469663
2019-12-16T15:25:00	0.2616	4.892		0.673427569	0.850170011	0.015105149	0.155837039	0.048030489
2019-12-16T15:30:00	0.2623	4.883		0.675666078	0.853591402	0.015199527	0.156810722	0.048330587
2019-12-16T15:35:00	0.2630	4.866		0.677903210	0.857014999	0.015294156	0.157786991	0.048631483
2019-12-16T15:40:00	0.2620	4.852		0.674587417	0.851942212	0.015154011	0.156341140	0.048185858
2019-12-16T15:45:00	0.2616	4.841		0.673230726	0.849869357	0.015096865	0.155751571	0.048004147
2019-12-16T15:50:00	0.2621	4.830		0.675142609	0.852790933	0.015177430	0.156582744	0.048260322
2019-12-16T15:55:00	0.2623	4.819		0.675746895	0.853715006	0.015202940	0.156845935	0.048341440
2019-12-16T16:00:00	0.2631	4.807		0.678310469	0.857638712	0.015311416	0.157965059	0.048686365
2019-12-16T16:05:00	0.2629	4.796		0.677608304	0.856563443	0.015281664	0.157658114	0.048591762
2019-12-16T16:10:00	0.2623	4.789		0.675599358	0.853489363	0.015196710	0.156781655	0.048321629
2019-12-16T16:15:00	0.2632	4.785		0.678489511	0.857912958	0.015319007	0.158043376	0.048710503
2019-12-16T16:20:00	0.2644	4.779		0.682355851	0.863841932	0.015483419	0.159739581	0.049233290
2019-12-16T16:25:00	0.2643	4.773		0.682306762	0.863766573	0.015481326	0.159717985	0.049226634
2019-12-16T16:30:00	0.2643	4.769		0.682257672	0.863691216	0.015479233	0.159696390	0.049219978
2019-12-16T16:35:00	0.2643	4.765		0.682208581	0.863615859	0.015477140	0.159674797	0.049213323
2019-12-16T16:40:00	0.2648	4.760		0.683789789	0.866044131	0.015544631	0.160371088	0.049427927
2019-12-16T16:45:00	0.2664	4.752		0.688952861	0.873988133	0.015766084	0.162655787	0.050132093
2019-12-16T16:50:00	0.2673	4.741		0.691832469	0.878428765	0.015890314	0.163937442	0.050527112
2019-12-16T16:55:00	0.2681	4.734		0.694384785	0.882370682	0.016000854	0.165077866	0.050878602
2019-12-16T17:00:00	0.2675	4.727		0.692710253	0.879783819	0.015928285	0.164329182	0.050647850
2019-12-16T17:05:00	0.2665	4.721		0.689407884	0.874689346	0.015785681	0.162857956	0.050194404
2019-12-16T17:10:00	0.2659	4.714		0.687405424	0.871604800	0.015699539	0.161969246	0.049920495
2019-12-16T17:15:00	0.2668	4.703		0.690286249	0.876043454	0.015823544	0.163248591	0.050314801
2019-12-16T17:20:00	0.2677	4.692		0.693164809	0.880485791	0.015947967	0.164532237	0.050710433
2019-12-16T17:25:00	0.2684	4.682		0.695391257	0.883926678	0.016044556	0.165528725	0.051017561
2019-12-16T17:30:00	0.2680	4.672		0.694367334	0.882343712	0.016000097	0.165070055	0.050876194
2019-12-16T17:35:00	0.2683	4.662		0.695293427	0.883775395	0.016040305	0.165484873	0.051004045
2019-12-16T17:40:00	0.2676	4.651		0.692969028	0.880183423	0.015939488	0.164444763	0.050683473
2019-12-16T17:45:00	0.2667	4.643		0.689992342	0.875590285	0.015810870	0.163117827	0.050274498
2019-12-16T17:50:00	0.2662	4.634		0.688315799	0.873006692	0.015738670	0.162372961	0.050044924
2019-12-16T17:55:00	0.2670	4.624		0.690870567	0.876944621	0.015848759	0.163508728	0.050394978
2019-12-16T18:00:00	0.2677	4.613		0.693098408	0.880383236	0.015945091	0.164502566	0.050701289
2019-12-16T18:05:00	0.2667	4.604		0.690121828	0.875789927	0.015816453	0.163175430	0.050292252
2019-12-16T18:10:00	0.2662	4.593		0.688445345	0.873206238	0.015744243	0.162430452	0.050062643
2019-12-16T18:15:00	0.2656	4.584		0.686442357	0.870122547	0.015658198	0.161542742	0.049789042
2019-12-16T18:20:00	0.2664	4.574		0.688998432	0.874058353	0.015768046	0.162676029	0.050138332
2019-12-16T18:25:00	0.2667	4.564		0.689925883	0.875487824	0.015808004	0.163088266	0.050265387
2019-12-16T18:30:00	0.2671	4.553		0.691178443	0.877419564	0.015862054	0.163645882	0.050437250
2019-12-16T18:35:00	0.2673	4.542		0.691780080	0.878347913	0.015888049	0.163914078	0.050519911
2019-12-16T18:40:00	0.2680	4.531		0.694332433	0.882289771	0.015998583	0.165054432	0.050871379
2019-12-16T18:45:00	0.2683	4.521		0.695258535	0.883721439	0.016038789	0.165469234	0.050999225
2019-12-16T18:50:00	0.2689	4.511		0.697158928	0.886661602	0.016121461	0.166322144	0.051262100
2019-12-16T18:55:00	0.2682	4.500		0.694835711	0.883067700	0.016020426	0.165279782	0.050940834
2019-12-16T19:00:00	0.2688	4.492		0.696736323	0.886007505	0.016103058	0.166132276	0.051203581
2019-12-16T19:05:00	0.2688	4.481		0.696687426	0.885931834	0.016100929	0.166110315	0.051196812
2019-12-16T19:10:00	0.2679	4.471		0.694038850	0.881836073	0.015985848	0.164923051	0.050830886
2019-12-16T19:15:00	0.2688	4.462		0.696914466	0.886283210	0.016110814	0.166212298	0.051228244
2019-12-16T19:20:00	0.2688	4.452		0.696865571	0.886207535	0.016108685	0.166190332	0.051221474
2019-12-16T19:25:00	0.2679	4.443		0.693892049	0.881609239	0.015979483	0.164857377	0.050810645
2019-12-16T19:30:00	0.2679	4.435		0.693843115	0.881533630	0.015977361	0.164835488	0.050803898
2019-12-16T19:35:00	0.2696	4.426		0.699316666	0.890003709	0.016215601	0.167293364	0.051561440
2019-12-16T19:40:00	0.2686	4.417		0.696020245	0.884899532	0.016071899	0.165810817	0.051104504
2019-12-16T19:45:00	0.2690	4.408		0.697595499	0.887337478	0.016140485	0.166518408	0.051322591
2019-12-16T19:50:00	0.2678	4.398		0.693647369	0.881231203	0.015968876	0.164747946	0.050776917
2019-12-16T19:55:00	0.2667	4.391		0.690020429	0.875633589	0.015812081	0.163130321	0.050278349
2019-12-16T20:00:00	0.2671	4.381		0.691272956	0.877565381	0.015866136	0.163687999	0.050450231
2019-12-16T20:05:00	0.2675	4.369		0.692525055	0.879497870	0.015920270	0.164246490	0.050622363
2019-12-16T20:10:00	0.2676	4.358		0.692801301	0.879924411	0.015932226	0.164369843	0.050660382
2019-12-16T20:15:00	0.2689	4.349		0.696977376	0.886380582	0.016113554	0.166240562	0.051236956
2019-12-16T20:20:00	0.2679	4.338		0.694003945	0.881782137	0.015984335	0.164907434	0.050826073
2019-12-16T20:25:00	0.2675	4.327		0.692654451	0.879697657	0.015925870	0.164304264	0.050640170
2019-12-16T20:30:00	0.2677	4.315		0.693255847	0.880626401	0.015951910	0.164572920	0.050722972
2019-12-16T20:35:00	0.2668	4.303		0.690279394	0.876032883	0.015823249	0.163245541	0.050313861
2019-12-16T20:40:00	0.2663	4.291		0.688602983	0.873449077	0.015751025	0.162500425	0.050084209
2019-12-16T20:45:00	0.2654	4.278		0.685622742	0.868861712	0.015623060	0.161180234	0.049677313
2019-12-16T20:50:00	0.2645	4.265		0.682966144	0.864778985	0.015509456	0.160008194	0.049316079
2019-12-16T20:55:00	0.2649	4.253		0.684221089	0.866706857	0.015563067	0.160561290	0.049486549
2019-12-16T21:00:00	0.2639	4.241		0.680911041	0.861624828	0.015421872	0.159104612	0.049037587
2019-12-16T21:05:00	0.2648	4.231		0.683796988	0.866055193	0.015544938	0.160374262	0.049428905
2019-12-16T21:10:00	0.2645	4.220		0.682769815	0.864477504	0.015501077	0.159921756	0.049289438
2019-12-16T21:15:00	0.2640	4.209		0.681089955	0.861899280	0.015429487	0.159183169	0.049061799
2019-12-16T21:20:00	0.2645	4.197		0.682671647	0.864326770	0.015496889	0.159878545	0.049276120
2019-12-16T21:25:00	0.2634	4.186		0.679360192	0.859247009	0.015355952	0.158424522	0.048827976
2019-12-16T21:30:00	0.2642	4.177		0.681921227	0.863174799	0.015464891	0.159548431	0.049174376
2019-12-16T21:35:00	0.2633	4.169		0.678935525	0.858596256	0.015337927	0.158238561	0.048770661
2019-12-16T21:40:00	0.2635	4.159		0.679539182	0.859521338	0.015363552	0.158502936	0.048852144
2019-12-16T21:45:00	0.2636	4.150		0.679816412	0.859946287	0.015375328	0.158624428	0.048889589
2019-12-16T21:50:00	0.2635	4.141		0.679440927	0.859370744	0.015359380	0.158459889	0.048838877
2019-12-16T21:55:00	0.2632	4.131		0.678412527	0.857795034	0.015315743	0.158009699	0.048700124
2019-12-16T22:00:00	0.2638	4.123		0.680647974	0.861221339	0.015410680	0.158989142	0.049001998
2019-12-16T22:05:00	0.2643	4.113		0.682039326	0.863356061	0.015469925	0.159600359	0.049190381
2019-12-16T22:10:00	0.2653	4.105		0.685385738	0.868497231	0.015612908	0.161075489	0.049645030
2019-12-16T22:15:00	0.2647	4.099		0.683516627	0.865624481	0.015532960	0.160250686	0.049390818
2019-12-16T22:20:00	0.2652	4.092		0.685232759	0.868261995	0.015606356	0.161007899	0.049624198
2019-12-16T22:25:00	0.2656	4.087		0.686296617	0.869898308	0.015651947	0.161478251	0.049769165
2019-12-16T22:30:00	0.2664	4.084		0.688988146	0.874042502	0.015767604	0.162671460	0.050136924
2019-12-16T22:35:00	0.2666	4.079		0.689725468	0.875178863	0.015799365	0.162999138	0.050237917
2019-12-16T22:40:00	0.2665	4.074		0.689486334	0.874810258	0.015789060	0.162892825	0.050205151
2019-12-16T22:45:00	0.2668	4.068		0.690223555	0.875946782	0.015820840	0.163220693	0.050306203
2019-12-16T22:50:00	0.2679	4.062		0.693887594	0.881602355	0.015979290	0.164855384	0.050810030
2019-12-16T22:55:00	0.2682	4.053		0.694948940	0.883242751	0.016025343	0.165330505	0.050956467
2019-12-16T23:00:00	0.2681	4.045		0.694385116	0.882371195	0.016000869	0.165078014	0.050878647
2019-12-16T23:05:00	0.2673	4.039		0.691870120	0.878486875	0.015891942	0.163954235	0.050532288
2019-12-16T23:10:00	0.2665	4.032		0.689353397	0.874605368	0.015783333	0.162833740	0.050186940
2019-12-16T23:15:00	0.2671	4.025		0.691392117	0.877749235	0.015871284	0.163741106	0.050466599
2019-12-16T23:20:00	0.2678	4.018		0.693429702	0.880894947	0.015959443	0.164650628	0.050746923
2019-12-16T23:25:00	0.2671	4.012		0.691239388	0.877513591	0.015864686	0.163673040	0.050445620
2019-12-16T23:30:00	0.2674	4.005		0.692301501	0.879152737	0.015910598	0.164146702	0.050591608
2019-12-16T23:35:00	0.2678	3.999		0.693688426	0.881294634	0.015970655	0.164766305	0.050782576
2019-12-16T23:40:00	0.2691	3.992		0.697673773	0.887458675	0.016143897	0.166553610	0.051333440
2019-12-16T23:45:00	0.2688	3.986		0.696785551	0.886083690	0.016105201	0.166154387	0.051210396
2019-12-16T23:50:00	0.2680	3.985		0.694272201	0.882196684	0.015995970	0.165027473	0.050863070
2019-12-16T23:55:00	0.2683	3.984		0.695333436	0.883837262	0.016042044	0.165502806	0.051009572
2019-12-17T00:00:00	0.2685	3.983		0.695744573	0.884473107	0.016059912	0.165687151	0.051066389
2019-12-17T00:05:00	0.2677	3.986		0.693230510	0.880587266	0.015950813	0.164561596	0.050719482
2019-12-17T00:10:00	0.2686	3.987		0.696241843	0.885242358	0.016081538	0.165910260	0.051135154
2019-12-17T00:15:00	0.2687	3.992		0.696328020	0.885375691	0.016085287	0.165948942	0.051147076
2019-12-17T00:20:00	0.2669	3.997		0.690561964	0.876468641	0.015835440	0.163371312	0.050352625
2019-12-17T00:25:00	0.2675	4.003		0.692600012	0.879613601	0.015923514	0.164279956	0.050632678
2019-12-17T00:30:00	0.2666	4.009		0.689758349	0.875229550	0.015800782	0.163013759	0.050242424
2019-12-17T00:35:00	0.2675	4.013		0.692447334	0.879377875	0.015916907	0.164211794	0.050611670
2019-12-17T00:40:00	0.2676	4.016		0.692858794	0.880013193	0.015934715	0.164395522	0.050668297
2019-12-17T00:45:00	0.2673	4.015		0.691969405	0.878640113	0.015896235	0.163998522	0.050545937
2019-12-17T00:50:00	0.2666	4.014		0.689778217	0.875260179	0.015801639	0.163022594	0.050245147
2019-12-17T00:55:00	0.2671	4.014		0.691166099	0.877400520	0.015861520	0.163640382	0.050435555
2019-12-17T01:00:00	0.2665	4.013		0.689299940	0.874522983	0.015781031	0.162809984	0.050179618
2019-12-17T01:05:00	0.2659	4.012		0.687432830	0.871646992	0.015700716	0.161981392	0.049924238
2019-12-17T01:10:00	0.2653	4.009		0.685564766	0.868772547	0.015620576	0.161154608	0.049669415
2019-12-17T01:15:00	0.2644	4.006		0.682391532	0.863896708	0.015484941	0.159755279	0.049238128
2019-12-17T01:20:00	0.2635	4.004		0.679541918	0.859525531	0.015363668	0.158504134	0.048852514
2019-12-17T01:25:00	0.2622	4.001		0.675383351	0.853159038	0.015187590	0.156687569	0.048292630
2019-12-17T01:30:00	0.2622	3.997		0.675470022	0.853291573	0.015191249	0.156725316	0.048304265
2019-12-17T01:35:00	0.2618	3.997		0.673922704	0.850926415	0.015125998	0.156052133	0.048096783
2019-12-17T01:40:00	0.2611	3.999		0.671720649	0.847564007	0.015033391	0.155096721	0.047802316
2019-12-17T01:45:00	0.2615	3.999		0.673115415	0.849693249	0.015092013	0.155701515	0.047988719
2019-12-17T01:50:00	0.2620	4.000		0.674509646	0.851823346	0.015150732	0.156307312	0.048175432
2019-12-17T01:55:00	0.2622	4.003		0.675249899	0.852954979	0.015181957	0.156629456	0.048274719
2019-12-17T02:00:00	0.2622	4.005		0.675336573	0.853087509	0.015185616	0.156667198	0.048286352
2019-12-17T02:05:00	0.2620	4.008		0.674769714	0.852220861	0.015161699	0.156420449	0.048210301
2019-12-17T02:10:00	0.2627	4.011		0.676816593	0.855351555	0.015248155	0.157312401	0.048485210
2019-12-17T02:15:00	0.2612	4.016		0.672000882	0.847991675	0.015045159	0.155218136	0.047839737
2019-12-17T02:20:00	0.2622	4.025		0.675356520	0.853118010	0.015186458	0.156675884	0.048289029
2019-12-17T02:25:00	0.2625	4.034		0.676423262	0.854749677	0.015231521	0.157140795	0.048432319
2019-12-17T02:30:00	0.2621	4.040		0.674876349	0.852383870	0.015166196	0.156466850	0.048224603
2019-12-17T02:35:00	0.2627	4.046		0.676923168	0.855514660	0.015252663	0.157358915	0.048499546
2019-12-17T02:40:00	0.2626	4.052		0.676683194	0.855147412	0.015242512	0.157254189	0.048467268
2019-12-17T02:45:00	0.2649	4.059		0.684274251	0.866788555	0.015565340	0.160584742	0.049493777
2019-12-17T02:50:00	0.2648	4.069		0.683708780	0.865919673	0.015541169	0.160335377	0.049416920
2019-12-17T02:55:00	0.2634	4.079		0.679228586	0.859045322	0.015350364	0.158366880	0.048810210
2019-12-17T03:00:00	0.2650	4.092		0.684533623	0.867187190	0.015576433	0.160699190	0.049529051
2019-12-17T03:05:00	0.2653	4.105		0.685271844	0.868322094	0.015608030	0.161025166	0.049629520
2019-12-17T03:10:00	0.2655	4.110		0.686009916	0.869457239	0.015639654	0.161351424	0.049730076
2019-12-17T03:15:00	0.2647	4.114		0.683489155	0.865582280	0.015531787	0.160238580	0.049387087
2019-12-17T03:20:00	0.2655	4.119		0.686182751	0.869723125	0.015647064	0.161427874	0.049753639
2019-12-17T03:25:00	0.2656	4.125		0.686269165	0.869856073	0.015650770	0.161466105	0.049765422
2019-12-17T03:30:00	0.2646	4.132		0.683096544	0.864979244	0.015515022	0.160065618	0.049333778
2019-12-17T03:35:00	0.2644	4.134		0.682530890	0.864110657	0.015490884	0.159816598	0.049257028
2019-12-17T03:40:00	0.2645	4.135		0.682943468	0.864744163	0.015508488	0.159998209	0.049313002
2019-12-17T03:45:00	0.2632	4.138		0.678462334	0.857871327	0.015317855	0.158031487	0.048706839
2019-12-17T03:50:00	0.2637	4.140		0.680180844	0.860505006	0.015390816	0.158784209	0.048938835
2019-12-17T03:55:00	0.2612	4.140		0.672100709	0.848144038	0.015049353	0.155261399	0.047853071
2019-12-17T04:00:00	0.2623	4.138		0.675782973	0.853770187	0.015204464	0.156861656	0.048346286
2019-12-17T04:05:00	0.2636	4.139		0.679753353	0.859849623	0.015372649	0.158596789	0.048881071
2019-12-17T04:10:00	0.2626	4.143		0.676540504	0.854929067	0.015236478	0.157191936	0.048448081
2019-12-17T04:15:00	0.2621	4.148		0.674959072	0.852510331	0.015169686	0.156502852	0.048235699
2019-12-17T04:20:00	0.2623	4.151		0.675664671	0.853589251	0.015199468	0.156810109	0.048330399
2019-12-17T04:25:00	0.2600	4.156		0.668194679	0.842188737	0.014885728	0.153573312	0.047332786
2019-12-17T04:30:00	0.2577	4.159		0.660709282	0.830812750	0.014574782	0.150365339	0.046344058
2019-12-17T04:35:00	0.2568	4.159		0.657479526	0.825919124	0.014441678	0.148992128	0.045920821
2019-12-17T04:40:00	0.2569	4.159		0.657860227	0.826495486	0.014457334	0.149153650	0.045970603
2019-12-17T04:45:00	0.2558	4.160		0.654299293	0.821109246	0.014311238	0.147646409	0.045506057
2019-12-17T04:50:00	0.2561	4.161		0.655337491	0.822678497	0.014353753	0.148085022	0.045641242
2019-12-17T04:55:00	0.2558	4.164		0.654404113	0.821267640	0.014315528	0.147690662	0.045519696
2019-12-17T05:00:00	0.2563	4.168		0.656099303	0.823830573	0.014384991	0.148407301	0.045740572
2019-12-17T05:05:00	0.2564	4.172		0.656151688	0.823909811	0.014387140	0.148429476	0.045747406
2019-12-17T05:10:00	0.2556	4.176		0.653575337	0.820015520	0.014281631	0.147340958	0.045411914
2019-12-17T05:15:00	0.2557	4.181		0.653956449	0.820591235	0.014297213	0.147501715	0.045461461
2019-12-17T05:20:00	0.2549	4.186		0.651378531	0.816699407	0.014191986	0.146416104	0.045126865
2019-12-17T05:25:00	0.2558	4.190		0.654389931	0.821246210	0.014314947	0.147684674	0.045517851
2019-12-17T05:30:00	0.2550	4.194		0.651812323	0.817353896	0.014209664	0.146598489	0.045183078
2019-12-17T05:35:00	0.2544	4.201		0.649891025	0.814456331	0.014131453	0.145791591	0.044934384
2019-12-17T05:40:00	0.2552	4.211		0.652246062	0.818008466	0.014227352	0.146780970	0.045239321
2019-12-17T05:45:00	0.2554	4.220		0.652956097	0.819080351	0.014256332	0.147079950	0.045331469
2019-12-17T05:50:00	0.2549	4.231		0.651364337	0.816677995	0.014191408	0.146410138	0.045125027
2019-12-17T05:55:00	0.2554	4.237		0.653060956	0.819238685	0.014260614	0.147124131	0.045345086
2019-12-17T06:00:00	0.2554	4.243		0.653113384	0.819317853	0.014262756	0.147146223	0.045351895
2019-12-17T06:05:00	0.2554	4.247		0.653165811	0.819397023	0.014264897	0.147168317	0.045358705
2019-12-17T06:10:00	0.2567	4.250		0.657161011	0.825437003	0.014428586	0.148857061	0.045879192
2019-12-17T06:15:00	0.2560	4.253		0.654913985	0.822038251	0.014336402	0.147906019	0.045586072
2019-12-17T06:20:00	0.2559	4.256		0.654637787	0.821620783	0.014325093	0.147789340	0.045550110
2019-12-17T06:25:00	0.2536	4.260		0.647124237	0.810289184	0.014019218	0.144633689	0.044577508
2019-12-17T06:30:00	0.2537	4.261		0.647506032	0.810863829	0.014034678	0.144793184	0.044626666
2019-12-17T06:35:00	0.2541	4.261		0.648875341	0.812925820	0.014090197	0.145365968	0.044803203
2019-12-17T06:40:00	0.2552	4.258		0.652217681	0.817965632	0.014226195	0.146769027	0.045235639
2019-12-17T06:45:00	0.2555	4.255		0.653256478	0.819533942	0.014268601	0.147206529	0.045370482
2019-12-17T06:50:00	0.2567	4.255		0.657251577	0.825574080	0.014432308	0.148895459	0.045891027
2019-12-17T06:55:00	0.2584	4.254		0.662881969	0.834109762	0.014664682	0.151292821	0.046629917
2019-12-17T07:00:00	0.2577	4.251		0.660638496	0.830705402	0.014571858	0.150335172	0.046334760
2019-12-17T07:05:00	0.2597	4.249		0.667246177	0.840744585	0.014846137	0.153164854	0.047206895
2019-12-17T07:10:00	0.2605	4.245		0.669589947	0.844314518	0.014944068	0.154175199	0.047518294
2019-12-17T07:15:00	0.2595	4.242		0.666368101	0.839408351	0.014809534	0.152787232	0.047090509
2019-12-17T07:20:00	0.2597	4.241		0.667075371	0.840484605	0.014839013	0.153091359	0.047184244
2019-12-17T07:25:00	0.2612	4.239		0.672036516	0.848046062	0.015046656	0.155233578	0.047844496
2019-12-17T07:30:00	0.2607	4.238		0.670453124	0.845630462	0.014980221	0.154548174	0.047633248
2019-12-17T07:35:00	0.2613	4.237		0.672467840	0.848704457	0.015064780	0.155420562	0.047902127
2019-12-17T07:40:00	0.2600	4.238		0.668266541	0.842298182	0.014888730	0.153604281	0.047342331
2019-12-17T07:45:00	0.2597	4.241		0.667009012	0.840383609	0.014836246	0.153062812	0.047175445
2019-12-17T07:50:00	0.2612	4.242		0.671970248	0.847944921	0.015043873	0.155204861	0.047835645
2019-12-17T07:55:00	0.2646	4.244		0.683124868	0.865022745	0.015516231	0.160078093	0.049337623
2019-12-17T08:00:00	0.2676	4.249		0.692945051	0.880146396	0.015938450	0.164434052	0.050680172
2019-12-17T08:05:00	0.2684	4.255		0.695597325	0.884245364	0.016053511	0.165621116	0.051046036
2019-12-17T08:10:00	0.2691	4.262		0.697922966	0.887844554	0.016154762	0.166665704	0.051367989
2019-12-17T08:15:00	0.2702	4.270		0.701220583	0.892956031	0.016298907	0.168152821	0.051826332
2019-12-17T08:20:00	0.2705	4.279		0.702245500	0.894546628	0.016343846	0.168616449	0.051969227
2019-12-17T08:25:00	0.2695	4.286		0.699052345	0.889594087	0.016204053	0.167174230	0.051524721
2019-12-17T08:30:00	0.2685	4.292		0.695856412	0.884646098	0.016064774	0.165737316	0.051081850
2019-12-17T08:35:00	0.2680	4.302		0.694283320	0.882213867	0.015996452	0.165032450	0.050864604
2019-12-17T08:40:00	0.2697	4.316		0.699856831	0.890840999	0.016239213	0.167536966	0.051636520
2019-12-17T08:45:00	0.2714	4.331		0.705097816	0.898978026	0.016469255	0.169910272	0.052367996
2019-12-17T08:50:00	0.2709	4.347		0.703528677	0.896539314	0.016400201	0.169197855	0.052148422
2019-12-17T08:55:00	0.2721	4.355		0.707469110	0.902667488	0.016573902	0.170989890	0.052700745
2019-12-17T09:00:00	0.2711	4.357		0.704280487	0.897707490	0.016433268	0.169538993	0.052253564
2019-12-17T09:05:00	0.2711	4.362		0.704332184	0.897787835	0.016435543	0.169562463	0.052260798
2019-12-17T09:10:00	0.2721	4.371		0.707624063	0.902908748	0.016580752	0.171060565	0.052722527
2019-12-17T09:15:00	0.2725	4.382		0.708647199	0.904502280	0.016626022	0.171527607	0.052866474
2019-12-17T09:20:00	0.2703	4.393		0.701568745	0.893496251	0.016314166	0.168310239	0.051874850
2019-12-17T09:25:00	0.2689	4.404		0.697076008	0.886533248	0.016117849	0.166284881	0.051250615
2019-12-17T09:30:00	0.2713	4.417		0.704914784	0.898693452	0.016461193	0.169827090	0.052342359
2019-12-17T09:35:00	0.2708	4.430		0.703345566	0.896254869	0.016392153	0.169114823	0.052122831
2019-12-17T09:40:00	0.2699	4.442		0.700477887	0.891803990	0.016266383	0.167817279	0.051722915
2019-12-17T09:45:00	0.2676	4.456		0.693058523	0.880321636	0.015943364	0.164484746	0.050695796
2019-12-17T09:50:00	0.2677	4.468		0.693110378	0.880401722	0.015945610	0.164507914	0.050702937
2019-12-17T09:55:00	0.2662	4.478		0.688281688	0.872954152	0.015737203	0.162357825	0.050040258
2019-12-17T10:00:00	0.2650	4.488		0.684424538	0.867019528	0.015571767	0.160651052	0.049514214
2019-12-17T10:05:00	0.2635	4.499		0.679584354	0.859590574	0.015365471	0.158522728	0.048858244
2019-12-17T10:10:00	0.2639	4.510		0.680941599	0.861671703	0.015423173	0.159118028	0.049041722
2019-12-17T10:15:00	0.2643	4.522		0.682298340	0.863753645	0.015480967	0.159714280	0.049225492
2019-12-17T10:20:00	0.2661	4.534		0.687890108	0.872351078	0.015720366	0.162184118	0.049986720
2019-12-17T10:25:00	0.2658	4.547		0.686965055	0.870926930	0.015680628	0.161774151	0.049860364
2019-12-17T10:30:00	0.2663	4.567		0.688645129	0.873514006	0.015752839	0.162519136	0.050089976
2019-12-17T10:35:00	0.2666	4.588		0.689673565	0.875098855	0.015797128	0.162976060	0.050230805
2019-12-17T10:40:00	0.2664	4.607		0.689074494	0.874175558	0.015771321	0.162709816	0.050148746
2019-12-17T10:45:00	0.2660	4.625		0.687824127	0.872249475	0.015717530	0.162154859	0.049977702
2019-12-17T10:50:00	0.2654	4.646		0.685595987	0.868820563	0.015621914	0.161168407	0.049673668
2019-12-17T10:55:00	0.2675	4.662		0.692483800	0.879434176	0.015918485	0.164228073	0.050616687
2019-12-17T11:00:00	0.2665	4.677		0.689282134	0.874495540	0.015780264	0.162802071	0.050177179
2019-12-17T11:05:00	0.2660	4.693		0.687706215	0.872067911	0.015712462	0.162102577	0.049961588
2019-12-17T11:10:00	0.2654	4.709		0.685803825	0.869140226	0.015630820	0.161260288	0.049701987
2019-12-17T11:15:00	0.2646	4.723		0.683248431	0.865212521	0.015521506	0.160132519	0.049354398
2019-12-17T11:20:00	0.2645	4.736		0.682974379	0.864791632	0.015509807	0.160011820	0.049317197
2019-12-17T11:25:00	0.2635	4.742		0.679438007	0.859366269	0.015359256	0.158458609	0.048838482
2019-12-17T11:30:00	0.2624	4.751		0.675898200	0.853946431	0.015209332	0.156911871	0.048361762
2019-12-17T11:35:00	0.2623	4.768		0.675623596	0.853526432	0.015197733	0.156792214	0.048324883
2019-12-17T11:40:00	0.2628	4.784		0.677308899	0.856105074	0.015268987	0.157527327	0.048551452
2019-12-17T11:45:00	0.2619	4.808		0.674420732	0.851687453	0.015146984	0.156268641	0.048163513
2019-12-17T11:50:00	0.2625	4.832		0.676433251	0.854764961	0.015231943	0.157145152	0.048433662
2019-12-17T11:55:00	0.2620	4.849		0.674524971	0.851846768	0.015151378	0.156313977	0.048177486
2019-12-17T12:00:00	0.2614	4.864		0.672615689	0.848930179	0.015070996	0.155484683	0.047921889
2019-12-17T12:05:00	0.2612	4.875		0.672013809	0.848011406	0.015045702	0.155223738	0.047841464
2019-12-17T12:10:00	0.2608	4.883		0.670757578	0.846094765	0.014992983	0.154679839	0.047673829
2019-12-17T12:15:00	0.2602	4.895		0.668846316	0.843181339	0.014912960	0.153854260	0.047419377
2019-12-17T12:20:00	0.2590	4.906		0.664968513	0.837279859	0.014751290	0.152186342	0.046905309
2019-12-17T12:25:00	0.2579	4.917		0.661086559	0.831384971	0.014590372	0.150526177	0.046393630
2019-12-17T12:30:00	0.2574	4.930		0.659498378	0.828976980	0.014524804	0.149849720	0.046185139
2019-12-17T12:35:00	0.2577	4.948		0.660535083	0.830548583	0.014567587	0.150291106	0.046321178
2019-12-17T12:40:00	0.2575	4.969		0.659931195	0.829633002	0.014542657	0.150033913	0.046241909
2019-12-17T12:45:00	0.2572	4.986		0.658999003	0.828220277	0.014504219	0.149637350	0.046119685
2019-12-17T12:50:00	0.2564	5.000		0.656424683	0.824322790	0.014398344	0.148545062	0.045783031
2019-12-17T12:55:00	0.2565	5.013		0.656477062	0.824402035	0.014400494	0.148567245	0.045789868
2019-12-17T13:00:00	0.2567	5.027		0.657186266	0.825475227	0.014429624	0.148867768	0.045882492
2019-12-17T13:05:00	0.2568	5.044		0.657566997	0.826051540	0.014445274	0.149029232	0.045932257
2019-12-17T13:10:00	0.2563	5.052		0.655977269	0.823645990	0.014379985	0.148355651	0.045724653
2019-12-17T13:15:00	0.2564	5.065		0.656358128	0.824222103	0.014395612	0.148516879	0.045774344
2019-12-17T13:20:00	0.2562	5.079		0.655753542	0.823307623	0.014370809	0.148260984	0.045695475
2019-12-17T13:25:00	0.2581	5.089		0.662042209	0.832834962	0.014629901	0.150933988	0.046519321
2019-12-17T13:30:00	0.2588	5.093		0.664061599	0.835901521	0.014713613	0.151797635	0.046785505
2019-12-17T13:35:00	0.2583	5.096		0.662474722	0.833491465	0.014647809	0.151118747	0.046576265
2019-12-17T13:40:00	0.2591	5.095		0.665149253	0.837554634	0.014758805	0.152263870	0.046929203
2019-12-17T13:45:00	0.2600	5.091		0.668149218	0.842119501	0.014883829	0.153553721	0.047326748
2019-12-17T13:50:00	0.2609	5.085		0.671146705	0.846688313	0.015009303	0.154848209	0.047725722
2019-12-17T13:55:00	0.2615	5.078		0.673161036	0.849762922	0.015093932	0.155721318	0.047994822
2019-12-17T14:00:00	0.2621	5.073		0.674847479	0.852339736	0.015164978	0.156454287	0.048220731
2019-12-17T14:05:00	0.2634	5.070		0.679145295	0.858917685	0.015346829	0.158330405	0.048798968
2019-12-17T14:10:00	0.2633	5.066		0.678870936	0.858497293	0.015335186	0.158210287	0.048761947
2019-12-17T14:15:00	0.2644	5.057		0.682511869	0.864081453	0.015490073	0.159808227	0.049254448
2019-12-17T14:20:00	0.2647	5.043		0.683542032	0.865663506	0.015534045	0.160261882	0.049394268
2019-12-17T14:25:00	0.2639	5.031		0.680985054	0.861738360	0.015425022	0.159137107	0.049047602
2019-12-17T14:30:00	0.2643	5.020		0.682015647	0.863319717	0.015468915	0.159589947	0.049187172
2019-12-17T14:35:00	0.2646	5.008		0.683045950	0.864901544	0.015512862	0.160043337	0.049326911
2019-12-17T14:40:00	0.2665	4.996		0.689287627	0.874504006	0.015780500	0.162804512	0.050177932
2019-12-17T14:45:00	0.2657	4.984		0.686734668	0.870572357	0.015670740	0.161672133	0.049828921
2019-12-17T14:50:00	0.2660	4.973		0.687763641	0.872156335	0.015714930	0.162128038	0.049969436
2019-12-17T14:55:00	0.2666	4.961		0.689768818	0.875245688	0.015801234	0.163018414	0.050243858
2019-12-17T15:00:00	0.2645	4.949		0.682653808	0.864299380	0.015496128	0.159870693	0.049273700
2019-12-17T15:05:00	0.2650	4.938		0.684335865	0.866883246	0.015567975	0.160611926	0.049502155
2019-12-17T15:10:00	0.2649	4.929		0.684061896	0.866462226	0.015556261	0.160491072	0.049464907
2019-12-17T15:15:00	0.2650	4.917		0.684439822	0.867043017	0.015572421	0.160657795	0.049516293
2019-12-17T15:20:00	0.2651	4.905		0.684817708	0.867623872	0.015588588	0.160824593	0.049567701
2019-12-17T15:25:00	0.2659	4.893		0.687475875	0.871713262	0.015702565	0.162000470	0.049930118
2019-12-17T15:30:00	0.2663	4.882		0.688830192	0.873799125	0.015760804	0.162601308	0.050115302
2019-12-17T15:35:00	0.2657	4.872		0.686602664	0.870369220	0.015665075	0.161613695	0.049810910
2019-12-17T15:40:00	0.2655	4.864		0.686003090	0.869446738	0.015639361	0.161348405	0.049729145
2019-12-17T15:45:00	0.2651	4.854		0.684751672	0.867522358	0.015585762	0.160795438	0.049558716
2019-12-17T15:50:00	0.2645	4.843		0.682847742	0.864597164	0.015504402	0.159956062	0.049300012
2019-12-17T15:55:00	0.2653	4.833		0.685507342	0.868684236	0.015618116	0.161129228	0.049661593
2019-12-17T16:00:00	0.2650	4.823		0.684581686	0.867261065	0.015578489	0.160720403	0.049535589
2019-12-17T16:05:00	0.2661	4.814		0.688115996	0.872698953	0.015730078	0.162284311	0.050017601
2019-12-17T16:10:00	0.2668	4.803		0.690345515	0.876134843	0.015826101	0.163274966	0.050322930
2019-12-17T16:15:00	0.2667	4.794		0.689971111	0.875557552	0.015809954	0.163108383	0.050271588
2019-12-17T16:20:00	0.2671	4.785		0.691223655	0.877489317	0.015864006	0.163666029	0.050443460
2019-12-17T16:25:00	0.2669	4.777		0.690523968	0.876410041	0.015833800	0.163354397	0.050347412
2019-12-17T16:30:00	0.2670	4.771		0.690800365	0.876836337	0.015845729	0.163477463	0.050385342
2019-12-17T16:35:00	0.2677	4.765		0.693353400	0.880777083	0.015956137	0.164616521	0.050736410
2019-12-17T16:40:00	0.2676	4.759		0.692979303	0.880199292	0.015939933	0.164449353	0.050684888
2019-12-17T16:45:00	0.2677	4.753		0.693255515	0.880625889	0.015951896	0.164572772	0.050722927
2019-12-17T16:50:00	0.2667	4.748		0.689953639	0.875530616	0.015809201	0.163100611	0.050269192
2019-12-17T16:55:00	0.2681	4.745		0.694458010	0.882483858	0.016004032	0.165110646	0.050888705
2019-12-17T17:00:00	0.2674	4.743		0.692133081	0.878892751	0.015903313	0.164071544	0.050568443
2019-12-17T17:05:00	0.2677	4.739		0.693384886	0.880825719	0.015957501	0.164630594	0.050740748
2019-12-17T17:10:00	0.2672	4.736		0.691709896	0.878239600	0.015885016	0.163882779	0.050510264
2019-12-17T17:15:00	0.2683	4.733		0.695237334	0.883688657	0.016037868	0.165459732	0.050996296
2019-12-17T17:20:00	0.2693	4.729		0.698436711	0.888640264	0.016177174	0.166896926	0.051439254
2019-12-17T17:25:00	0.2693	4.727		0.698387837	0.888564556	0.016175042	0.166874922	0.051432472
2019-12-17T17:30:00	0.2685	4.724		0.695740488	0.884466789	0.016059734	0.165685318	0.051065824
2019-12-17T17:35:00	0.2687	4.720		0.696341377	0.885396358	0.016085868	0.165954937	0.051148923
2019-12-17T17:40:00	0.2694	4.717		0.698890559	0.889343394	0.016196987	0.167101332	0.051502253
2019-12-17T17:45:00	0.2695	4.713		0.699166326	0.889770718	0.016209032	0.167225598	0.051540553
2019-12-17T17:50:00	0.2708	4.709		0.703335173	0.896238724	0.016391696	0.169110111	0.052121379
2019-12-17T17:55:00	0.2701	4.707		0.701015860	0.892638424	0.016289939	0.168060294	0.051797815
2019-12-17T18:00:00	0.2699	4.705		0.700318038	0.891556101	0.016259388	0.167745108	0.051700671
2019-12-17T18:05:00	0.2707	4.701		0.702864463	0.895507657	0.016371017	0.168896768	0.052055624
2019-12-17T18:10:00	0.2704	4.698		0.701842622	0.893921281	0.016326174	0.168434124	0.051913033
2019-12-17T18:15:00	0.2693	4.695		0.698548468	0.888813389	0.016182052	0.166947248	0.051454763
2019-12-17T18:20:00	0.2695	4.690		0.699148898	0.889743710	0.016208271	0.167217743	0.051538132
2019-12-17T18:25:00	0.2698	4.683		0.700073786	0.891177365	0.016248702	0.167634860	0.051666692
2019-12-17T18:30:00	0.2704	4.676		0.701971690	0.894121606	0.016331834	0.168492523	0.051931032
2019-12-17T18:35:00	0.2703	4.671		0.701598471	0.893542379	0.016315469	0.168323682	0.051878994
2019-12-17T18:40:00	0.2703	4.666		0.701549639	0.893466602	0.016313328	0.168301598	0.051872187
2019-12-17T18:45:00	0.2698	4.662		0.700202916	0.891377587	0.016254351	0.167693141	0.051684655
2019-12-17T18:50:00	0.2691	4.658		0.697881625	0.887780533	0.016152959	0.166647105	0.051362256
2019-12-17T18:55:00	0.2696	4.653		0.699456080	0.890219786	0.016221693	0.167356219	0.051580812
2019-12-17T19:00:00	0.2692	4.649		0.698108590	0.888132031	0.016162858	0.166749229	0.051393732
2019-12-17T19:05:00	0.2692	4.644		0.698059712	0.888056329	0.016160726	0.166727233	0.051386952
2019-12-17T19:10:00	0.2684	4.642		0.695412126	0.883958949	0.016045463	0.165538081	0.051020444
2019-12-17T19:15:00	0.2680	4.639		0.694063150	0.881873624	0.015986902	0.164933924	0.050834237
2019-12-17T19:20:00	0.2685	4.637		0.695964163	0.884812775	0.016069460	0.165785654	0.051096749
2019-12-17T19:25:00	0.2688	4.635		0.696889853	0.886245117	0.016109742	0.166201241	0.051224836
2019-12-17T19:30:00	0.2682	4.632		0.694891479	0.883153916	0.016022847	0.165304764	0.050948534
2019-12-17T19:35:00	0.2685	4.630		0.695817440	0.884585815	0.016063080	0.165719834	0.051076462
2019-12-17T19:40:00	0.2683	4.628		0.695118629	0.883505111	0.016032712	0.165406535	0.050979900
2019-12-17T19:45:00	0.2683	4.627		0.695069711	0.883429475	0.016030587	0.165384615	0.050973145
2019-12-17T19:50:00	0.2680	4.627		0.694370758	0.882349003	0.016000246	0.165071587	0.050876666
2019-12-17T19:55:00	0.2683	4.629		0.695296850	0.883780688	0.016040454	0.165486407	0.051004518
2019-12-17T20:00:00	0.2690	4.629		0.697522005	0.887223687	0.016137282	0.166485360	0.051312405
2019-12-17T20:05:00	0.2687	4.629		0.696498676	0.885639749	0.016092713	0.166025556	0.051170689
2019-12-17T20:10:00	0.2691	4.630		0.697748992	0.887575148	0.016147176	0.166587441	0.051343867
2019-12-17T20:15:00	0.2695	4.630		0.698998883	0.889511243	0.016201718	0.167150139	0.051517296
2019-12-17T20:20:00	0.2698	4.630		0.699923808	0.890944836	0.016242142	0.167567184	0.051645833
2019-12-17T20:25:00	0.2705	4.632		0.702470506	0.894895944	0.016353721	0.168718322	0.052000626
2019-12-17T20:30:00	0.2717	4.632		0.706311635	0.900865978	0.016522778	0.170462455	0.052538184
2019-12-17T20:35:00	0.2719	4.633		0.706910800	0.901798380	0.016549232	0.170735373	0.052622300
2019-12-17T20:40:00	0.2721	4.634		0.707509867	0.902730943	0.016575704	0.171008478	0.052706474
2019-12-17T20:45:00	0.2725	4.635		0.708756446	0.904672486	0.016630860	0.171577516	0.052881857
2019-12-17T20:50:00	0.2726	4.637		0.709031475	0.905101025	0.016643042	0.171703196	0.052920593
2019-12-17T20:55:00	0.2711	4.639		0.704123190	0.897463039	0.016426346	0.169467588	0.052231557
2019-12-17T21:00:00	0.2704	4.642		0.702128748	0.894365392	0.016338724	0.168563601	0.051952939
2019-12-17T21:05:00	0.2711	4.644		0.704349771	0.897815168	0.016436317	0.169570449	0.052263259
2019-12-17T21:10:00	0.2713	4.649		0.704949255	0.898747044	0.016462711	0.169842754	0.052347186
2019-12-17T21:15:00	0.2708	4.653		0.703279533	0.896152299	0.016389251	0.169084885	0.052113604
2019-12-17T21:20:00	0.2705	4.660		0.702257807	0.894565733	0.016344386	0.168622020	0.051970944
2019-12-17T21:25:00	0.2703	4.669		0.701560221	0.893483023	0.016313792	0.168306383	0.051873662
2019-12-17T21:30:00	0.2705	4.675		0.702484502	0.894917674	0.016354335	0.168724660	0.052002579
2019-12-17T21:35:00	0.2710	4.679		0.704056987	0.897360160	0.016423434	0.169437540	0.052222296
2019-12-17T21:40:00	0.2708	4.683		0.703359742	0.896276889	0.016392776	0.169121251	0.052124812
2019-12-17T21:45:00	0.2704	4.687		0.702013683	0.894186786	0.016333676	0.168511526	0.051936889
2019-12-17T21:50:00	0.2714	4.691		0.705207169	0.899148059	0.016474073	0.169959979	0.052383316
2019-12-17T21:55:00	0.2714	4.694		0.705158385	0.899072203	0.016471924	0.169937803	0.052376481
2019-12-17T22:00:00	0.2713	4.698		0.704785488	0.898492444	0.016455498	0.169768343	0.052324252
2019-12-17T22:05:00	0.2705	4.703		0.702300825	0.894632515	0.016346274	0.168641495	0.051976947
2019-12-17T22:10:00	0.2694	4.709		0.698840661	0.889266081	0.016194808	0.167078852	0.051495325
2019-12-17T22:15:00	0.2688	4.715		0.696676830	0.885915436	0.016100468	0.166105556	0.051195346
2019-12-17T22:20:00	0.2694	4.722		0.698734723	0.889101943	0.016190183	0.167031131	0.051480617
2019-12-17T22:25:00	0.2695	4.730		0.699168716	0.889774421	0.016209137	0.167226675	0.051540885
2019-12-17T22:30:00	0.2680	4.740		0.694080602	0.881900592	0.015987659	0.164941732	0.050836644
2019-12-17T22:35:00	0.2670	4.747		0.690938040	0.877048701	0.015851672	0.163538782	0.050404241
2019-12-17T22:40:00	0.2646	4.754		0.683231111	0.865185920	0.015520767	0.160124890	0.049352046
2019-12-17T22:45:00	0.2629	4.760		0.677467722	0.856348211	0.015275711	0.157596697	0.048572833
2019-12-17T22:50:00	0.2619	4.766		0.674310826	0.851519487	0.015142351	0.156220848	0.048148783
2019-12-17T22:55:00	0.2611	4.772		0.671805369	0.847693293	0.015036948	0.155133422	0.047813627
2019-12-17T23:00:00	0.2595	4.776		0.666351407	0.839382952	0.014808839	0.152780057	0.047088297
2019-12-17T23:05:00	0.2568	4.781		0.657607274	0.826112514	0.014446930	0.149046318	0.045937523
2019-12-17T23:10:00	0.2559	4.786		0.654761653	0.821807995	0.014330164	0.147841661	0.045566236
2019-12-17T23:15:00	0.2542	4.791		0.648952807	0.813042520	0.014093342	0.145398407	0.044813201
2019-12-17T23:20:00	0.2548	4.794		0.651037868	0.816185540	0.014178111	0.146272957	0.045082746
2019-12-17T23:25:00	0.2540	4.795		0.648516248	0.812384920	0.014075627	0.145215644	0.044756872
2019-12-17T23:30:00	0.2537	4.796		0.647310235	0.810569117	0.014026749	0.144711379	0.044601452
2019-12-17T23:35:00	0.2526	4.794		0.643797324	0.805287047	0.013884880	0.143247748	0.044150347
2019-12-17T23:40:00	0.2527	4.794		0.644237927	0.805948969	0.013902633	0.143430897	0.044206796
2019-12-17T23:45:00	0.2513	4.797		0.639402223	0.798693280	0.013708442	0.141427469	0.043589320
2019-12-17T23:50:00	0.2508	4.799		0.637863013	0.796387955	0.013646929	0.140792853	0.043393725
2019-12-17T23:55:00	0.2488	4.799		0.631365343	0.786678321	0.013388841	0.138130204	0.042573070
2019-12-18T00:00:00	0.2476	4.796		0.627174565	0.780434900	0.013223739	0.136426882	0.042048090
2019-12-18T00:05:00	0.2471	4.790		0.625630089	0.778137684	0.013163160	0.135801900	0.041855464
2019-12-18T00:10:00	0.2477	4.785		0.627728742	0.781259660	0.013245511	0.136651495	0.042117318
2019-12-18T00:15:00	0.2478	4.784		0.627840264	0.781425666	0.013249895	0.136696720	0.042131257
2019-12-18T00:20:00	0.2461	4.785		0.622319245	0.773220004	0.013033785	0.134467154	0.041444083
2019-12-18T00:25:00	0.2457	4.782		0.621104382	0.771417857	0.012986478	0.133979102	0.041293660
2019-12-18T00:30:00	0.2463	4.779		0.622874176	0.774043611	0.013055423	0.134690395	0.041512888
2019-12-18T00:35:00	0.2462	4.781		0.622654309	0.773717263	0.013046848	0.134601923	0.041485620
2019-12-18T00:40:00	0.2455	4.788		0.620444414	0.770439372	0.012960817	0.133714355	0.041212063
2019-12-18T00:45:00	0.2448	4.793		0.617901165	0.766672120	0.012862172	0.132696660	0.040898399
2019-12-18T00:50:00	0.2458	4.796		0.621331332	0.771754423	0.012995309	0.134070206	0.041321739
2019-12-18T00:55:00	0.2454	4.800		0.620116132	0.769952790	0.012948062	0.133582765	0.041171506
2019-12-18T01:00:00	0.2455	4.802		0.620227893	0.770118432	0.012952403	0.133627556	0.041185311
2019-12-18T01:05:00	0.2460	4.803		0.621998121	0.772743523	0.013021272	0.134338059	0.041404294
2019-12-18T01:10:00	0.2463	4.808		0.623104505	0.774385533	0.013064410	0.134783109	0.041541463
2019-12-18T01:15:00	0.2464	4.812		0.623216172	0.774551318	0.013068768	0.134828070	0.041555321
2019-12-18T01:20:00	0.2459	4.819		0.621669982	0.772256722	0.013008491	0.134206209	0.041363657
2019-12-18T01:25:00	0.2458	4.824		0.621450041	0.771930487	0.012999929	0.134117872	0.041336431
2019-12-18T01:30:00	0.2464	4.823		0.623219664	0.774556503	0.013068904	0.134829476	0.041555754
2019-12-18T01:35:00	0.2466	4.820		0.623994252	0.775706778	0.013099155	0.135141569	0.041651944
2019-12-18T01:40:00	0.2459	4.818		0.621785187	0.772427621	0.013012978	0.134252492	0.041377922
2019-12-18T01:45:00	0.2464	4.816		0.623223156	0.774561687	0.013069041	0.134830883	0.041556187
2019-12-18T01:50:00	0.2463	4.814		0.623003311	0.774235306	0.013060461	0.134742371	0.041528907
2019-12-18T01:55:00	0.2456	4.813		0.620793632	0.770957085	0.012974392	0.133854410	0.041255229
2019-12-18T02:00:00	0.2462	4.811		0.622563580	0.773582605	0.013043310	0.134565423	0.041474370
2019-12-18T02:05:00	0.2473	4.809		0.626320498	0.779164333	0.013190223	0.136081094	0.041941515
2019-12-18T02:10:00	0.2479	4.806		0.628418746	0.782286930	0.013272645	0.136931429	0.042203596
2019-12-18T02:15:00	0.2470	4.802		0.625218601	0.777525988	0.013147045	0.135635640	0.041804221
2019-12-18T02:20:00	0.2477	4.799		0.627648604	0.781140378	0.013242362	0.136619003	0.042107303
2019-12-18T02:25:00	0.2477	4.797		0.627760129	0.781306380	0.013246745	0.136664223	0.042121241
2019-12-18T02:30:00	0.2497	4.795		0.634156496	0.790844828	0.013499392	0.139270742	0.042924595
2019-12-18T02:35:00	0.2515	4.792		0.640211547	0.799906238	0.013740844	0.141761750	0.043692348
2019-12-18T02:40:00	0.2530	4.791		0.645268130	0.807497297	0.013944187	0.143859606	0.044338928
2019-12-18T02:45:00	0.2524	4.789		0.643072150	0.804197972	0.013855688	0.142946575	0.044057523
2019-12-18T02:50:00	0.2517	4.789		0.640874828	0.800900734	0.013767428	0.142036015	0.043776879
2019-12-18T02:55:00	0.2510	4.789		0.638676161	0.797605583	0.013679408	0.141127929	0.043496998
2019-12-18T03:00:00	0.2503	4.789		0.636145854	0.793818480	0.013578474	0.140086618	0.043176056
2019-12-18T03:05:00	0.2504	4.789		0.636587397	0.794478945	0.013596060	0.140268040	0.043231972
2019-12-18T03:10:00	0.2503	4.790		0.636368372	0.794151304	0.013587335	0.140178031	0.043204231
2019-12-18T03:15:00	0.2505	4.790		0.636809887	0.794811811	0.013604925	0.140359503	0.043260162
2019-12-18T03:20:00	0.2504	4.788		0.636590876	0.794484149	0.013596198	0.140269470	0.043232413
2019-12-18T03:25:00	0.2507	4.786		0.637692755	0.796133077	0.013640134	0.140722746	0.043372117
2019-12-18T03:30:00	0.2517	4.784		0.640774135	0.800749735	0.013763390	0.141994361	0.043764041
2019-12-18T03:35:00	0.2510	4.782		0.638575406	0.797454680	0.013675381	0.141086388	0.043484195
2019-12-18T03:40:00	0.2512	4.778		0.639346679	0.798610055	0.013706220	0.141404543	0.043582253
2019-12-18T03:45:00	0.2524	4.774		0.643086041	0.804218828	0.013856246	0.142952340	0.044059300
2019-12-18T03:50:00	0.2520	4.770		0.641878206	0.802405863	0.013807694	0.142451434	0.043904915
2019-12-18T03:55:00	0.2528	4.766		0.644296942	0.806037640	0.013905011	0.143455438	0.044214359
2019-12-18T04:00:00	0.2524	4.761		0.643089513	0.804224042	0.013856386	0.142953782	0.044059744
2019-12-18T04:05:00	0.2512	4.757		0.639198695	0.798388334	0.013700300	0.141343470	0.043563430
2019-12-18T04:10:00	0.2493	4.751		0.632990211	0.789103047	0.013453141	0.138793575	0.042777528
2019-12-18T04:15:00	0.2485	4.745		0.630412005	0.785256732	0.013351189	0.137741761	0.042453348
2019-12-18T04:20:00	0.2500	4.739		0.635108203	0.792267001	0.013537195	0.139660747	0.043044799
2019-12-18T04:25:00	0.2502	4.733		0.635836408	0.793355707	0.013566157	0.139959546	0.043136891
2019-12-18T04:30:00	0.2492	4.728		0.632599042	0.788519118	0.013437647	0.138633725	0.042728260
2019-12-18T04:35:00	0.2487	4.722		0.631013037	0.786152883	0.013374920	0.137986589	0.042528807
2019-12-18T04:40:00	0.2485	4.717		0.630418974	0.785267122	0.013351465	0.137744598	0.042454223
2019-12-18T04:45:00	0.2479	4.713		0.628169974	0.781916515	0.013262859	0.136830469	0.042172479
2019-12-18T04:50:00	0.2472	4.708		0.625919558	0.778568080	0.013174503	0.135918922	0.041891532
2019-12-18T04:55:00	0.2467	4.707		0.624330586	0.776206396	0.013112302	0.135277199	0.041693747
2019-12-18T05:00:00	0.2457	4.706		0.621082780	0.771385823	0.012985638	0.133970432	0.041290988
2019-12-18T05:05:00	0.2466	4.708		0.624134533	0.775915151	0.013104638	0.135198130	0.041669377
2019-12-18T05:10:00	0.2468	4.711		0.624533609	0.776508030	0.013120241	0.135359105	0.041718991
2019-12-18T05:15:00	0.2462	4.713		0.622612475	0.773655172	0.013045216	0.134585093	0.041480433
2019-12-18T05:20:00	0.2469	4.716		0.625000305	0.777201538	0.013138500	0.135547481	0.041777050
2019-12-18T05:25:00	0.2467	4.720		0.624405243	0.776317311	0.013115221	0.135307315	0.041703029
2019-12-18T05:30:00	0.2468	4.724		0.624472917	0.776417856	0.013117867	0.135334617	0.041711443
2019-12-18T05:35:00	0.2472	4.728		0.625865868	0.778488246	0.013172399	0.135897213	0.041884841
2019-12-18T05:40:00	0.2480	4.732		0.628582547	0.782530854	0.013279090	0.136997927	0.042224091
2019-12-18T05:45:00	0.2473	4.734		0.626332390	0.779182020	0.013190689	0.136085906	0.041942998
2019-12-18T05:50:00	0.2472	4.737		0.626068804	0.778790014	0.013180354	0.135979277	0.041910134
2019-12-18T05:55:00	0.2468	4.738		0.624479899	0.776428228	0.013118140	0.135337434	0.041712311
2019-12-18T06:00:00	0.2463	4.739		0.622890285	0.774067524	0.013056052	0.134696878	0.041514886
2019-12-18T06:05:00	0.2476	4.739		0.627265252	0.780569848	0.013227301	0.136463625	0.042059415
2019-12-18T06:10:00	0.2487	4.741		0.630973361	0.786093716	0.013373353	0.137970420	0.042523823
2019-12-18T06:15:00	0.2476	4.744		0.627400491	0.780771106	0.013232613	0.136518429	0.042076306
2019-12-18T06:20:00	0.2474	4.746		0.626474642	0.779393602	0.013196268	0.136143469	0.041960739
2019-12-18T06:25:00	0.2466	4.749		0.623891732	0.775554504	0.013095149	0.135100241	0.041639206
2019-12-18T06:30:00	0.2471	4.754		0.625616206	0.778117044	0.013162617	0.135796289	0.041853735
2019-12-18T06:35:00	0.2480	4.757		0.628664088	0.782652290	0.013282300	0.137031036	0.042234296
2019-12-18T06:40:00	0.2482	4.755		0.629393606	0.783738976	0.013311029	0.137327435	0.042325649
2019-12-18T06:45:00	0.2476	4.754		0.627143960	0.780389359	0.013222538	0.136414483	0.042044268
2019-12-18T06:50:00	0.2486	4.760		0.630521383	0.785419794	0.013355507	0.137786299	0.042467075
2019-12-18T06:55:00	0.2485	4.765		0.630258105	0.785027314	0.013345116	0.137679107	0.042434038
2019-12-18T07:00:00	0.2497	4.771		0.634293609	0.791049674	0.013504835	0.139326895	0.042941902
2019-12-18T07:05:00	0.2501	4.775		0.635682742	0.793125930	0.013560043	0.139896465	0.043117449
2019-12-18T07:10:00	0.2504	4.780		0.636410831	0.794214816	0.013589026	0.140195478	0.043209608
2019-12-18T07:15:00	0.2502	4.786		0.635817663	0.793327677	0.013565412	0.139951850	0.043134519
2019-12-18T07:20:00	0.2475	4.794		0.626955038	0.780108258	0.013215120	0.136337958	0.042020683
2019-12-18T07:25:00	0.2494	4.803		0.633309000	0.789579027	0.013465775	0.138923918	0.042817701
2019-12-18T07:30:00	0.2490	4.806		0.632054009	0.787705718	0.013416074	0.138411159	0.042659663
2019-12-18T07:35:00	0.2506	4.809		0.637078294	0.795213428	0.013615624	0.140469884	0.043294182
2019-12-18T07:40:00	0.2513	4.812		0.639456495	0.798774602	0.013710614	0.141449873	0.043596225
2019-12-18T07:45:00	0.2520	4.816		0.641833121	0.802338216	0.013805883	0.142432755	0.043899158
2019-12-18T07:50:00	0.2522	4.822		0.642559964	0.803429033	0.013835088	0.142734056	0.043992022
2019-12-18T07:55:00	0.2524	4.828		0.643286660	0.804520078	0.013864320	0.143035629	0.044084970
2019-12-18T08:00:00	0.2520	4.837		0.641705374	0.802146544	0.013800754	0.142379833	0.043882847
2019-12-18T08:05:00	0.2525	4.848		0.643421296	0.804722267	0.013869739	0.143091538	0.044102202
2019-12-18T08:10:00	0.2525	4.858		0.643488612	0.804823365	0.013872449	0.143119496	0.044110819
2019-12-18T08:15:00	0.2530	4.863		0.645203684	0.807400411	0.013941586	0.143832768	0.044330656
2019-12-18T08:20:00	0.2533	4.864		0.646259240	0.808987722	0.013984225	0.144272676	0.044466240
2019-12-18T08:25:00	0.2528	4.869		0.644349721	0.806116945	0.013907139	0.143477387	0.044221124
2019-12-18T08:30:00	0.2520	4.877		0.641779670	0.802258015	0.013803737	0.142410610	0.043892333
2019-12-18T08:35:00	0.2531	4.884		0.645472807	0.807805021	0.013952450	0.143944860	0.044365204
2019-12-18T08:40:00	0.2546	4.888		0.650478373	0.815341793	0.014155338	0.146038016	0.045010335
2019-12-18T08:45:00	0.2547	4.894		0.650874530	0.815939190	0.014171461	0.146204348	0.045061600
2019-12-18T08:50:00	0.2564	4.911		0.656201095	0.823984548	0.014389168	0.148450391	0.045753852
2019-12-18T08:55:00	0.2583	4.932		0.662503654	0.833535385	0.014649007	0.151131110	0.046580076
2019-12-18T09:00:00	0.2563	4.956		0.656006774	0.823690616	0.014381195	0.148368138	0.045728501
2019-12-18T09:05:00	0.2565	4.981		0.656730764	0.824785896	0.014410911	0.148674714	0.045822991
2019-12-18T09:10:00	0.2535	5.006		0.646931813	0.809999611	0.014011430	0.144553339	0.044552743
2019-12-18T09:15:00	0.2533	5.032		0.646010994	0.808614333	0.013974191	0.144169155	0.044434334
2019-12-18T09:20:00	0.2522	5.060		0.642453081	0.803268599	0.013830792	0.142689729	0.043978360
2019-12-18T09:25:00	0.2519	5.084		0.641531114	0.801885107	0.013793758	0.142307660	0.043860603
2019-12-18T09:30:00	0.2530	5.106		0.645224507	0.807431715	0.013942426	0.143841439	0.044333328
2019-12-18T09:35:00	0.2524	5.129		0.642984775	0.804066780	0.013852172	0.142910309	0.044046345
2019-12-18T09:40:00	0.2508	5.154		0.637773454	0.796253881	0.013643354	0.140755973	0.043382358
2019-12-18T09:45:00	0.2508	5.172		0.637840876	0.796354814	0.013646046	0.140783736	0.043390915
2019-12-18T09:50:00	0.2493	5.190		0.632952691	0.789047033	0.013451654	0.138778238	0.042772801
2019-12-18T09:55:00	0.2489	5.206		0.631697575	0.787173916	0.013401975	0.138265707	0.042614834
2019-12-18T10:00:00	0.2491	5.227		0.632095808	0.787768089	0.013417727	0.138428221	0.042664922
2019-12-18T10:05:00	0.2509	5.252		0.638057904	0.796679739	0.013654710	0.140873124	0.043418465
2019-12-18T10:10:00	0.2518	5.274		0.641042619	0.801152371	0.013774157	0.142105440	0.043798277
2019-12-18T10:15:00	0.2511	5.297		0.638747641	0.797712646	0.013682265	0.141157404	0.043506083
2019-12-18T10:20:00	0.2500	5.323		0.635129833	0.792299333	0.013538055	0.139669618	0.043047533
2019-12-18T10:25:00	0.2495	5.353		0.633492233	0.789852648	0.013473040	0.138998865	0.042840800
2019-12-18T10:30:00	0.2495	5.380		0.633507022	0.789874733	0.013473626	0.139004915	0.042842665
2019-12-18T10:35:00	0.2461	5.407		0.622265426	0.773140141	0.013031687	0.134445514	0.041437413
2019-12-18T10:40:00	0.2465	5.428		0.623606378	0.775130716	0.013084003	0.134985243	0.041603763
2019-12-18T10:45:00	0.2470	5.448		0.625278155	0.777614508	0.013149377	0.135659695	0.041811636
2019-12-18T10:50:00	0.2470	5.474		0.625292977	0.777636541	0.013149957	0.135665683	0.041813481
2019-12-18T10:55:00	0.2464	5.493		0.623319388	0.774704566	0.013072797	0.134869636	0.041568132
2019-12-18T11:00:00	0.2475	5.519		0.626978780	0.780143583	0.013216052	0.136347574	0.042023646
2019-12-18T11:05:00	0.2482	5.547		0.629310919	0.783615783	0.013307771	0.137293823	0.042315290
2019-12-18T11:10:00	0.2477	5.574		0.627670654	0.781173198	0.013243228	0.136627943	0.042110059
2019-12-18T11:15:00	0.2473	5.605		0.626360864	0.779224369	0.013191806	0.136097427	0.041946549
2019-12-18T11:20:00	0.2461	5.623		0.622398939	0.773338267	0.013036891	0.134499202	0.041453960
2019-12-18T11:25:00	0.2456	5.644		0.620755495	0.770900543	0.012972909	0.133839112	0.041250514
2019-12-18T11:30:00	0.2455	5.668		0.620438590	0.770430739	0.012960590	0.133712020	0.041211343
2019-12-18T11:35:00	0.2441	5.690		0.615805750	0.763572327	0.012781191	0.131861188	0.040640899
2019-12-18T11:40:00	0.2446	5.705		0.617481188	0.766050543	0.012845920	0.132528991	0.040846722
2019-12-18T11:45:00	0.2457	5.719		0.621146572	0.771480422	0.012988120	0.133996036	0.041298880
2019-12-18T11:50:00	0.2443	5.737		0.616182510	0.764129404	0.012795732	0.132011207	0.040687136
2019-12-18T11:55:00	0.2439	5.755		0.614868492	0.762187017	0.012745054	0.131488373	0.040525994
2019-12-18T12:00:00	0.2439	5.777		0.614883358	0.762208984	0.012745627	0.131494282	0.040527815
2019-12-18T12:05:00	0.2441	5.809		0.615562719	0.763213046	0.012771815	0.131764465	0.040611088
2019-12-18T12:10:00	0.2440	5.836		0.615245351	0.762743944	0.012759578	0.131638212	0.040572175
2019-12-18T12:15:00	0.2442	5.865		0.615924644	0.763748110	0.012785779	0.131908520	0.040655487
2019-12-18T12:20:00	0.2446	5.888		0.617267984	0.765735052	0.012837674	0.132443914	0.040820501
2019-12-18T12:25:00	0.2446	5.900		0.617282840	0.765757034	0.012838248	0.132449841	0.040822327
2019-12-18T12:30:00	0.2441	5.918		0.615637034	0.763322902	0.012774682	0.131794038	0.040620202
2019-12-18T12:35:00	0.2446	5.935		0.617312551	0.765800998	0.012839397	0.132461696	0.040825981
2019-12-18T12:40:00	0.2439	5.947		0.615002283	0.762384721	0.012750209	0.131541558	0.040542386
2019-12-18T12:45:00	0.2438	5.959		0.614684865	0.761915694	0.012737980	0.131415395	0.040503501
2019-12-18T12:50:00	0.2438	5.974		0.614699731	0.761937660	0.012738553	0.131421303	0.040505322
2019-12-18T12:55:00	0.2443	5.988		0.616375690	0.764415086	0.012803191	0.132088162	0.040710854
2019-12-18T13:00:00	0.2452	6.001		0.619378552	0.768859873	0.012919428	0.133287355	0.041080457
2019-12-18T13:05:00	0.2451	6.008		0.619061524	0.768390255	0.012907130	0.133160485	0.041041355
2019-12-18T13:10:00	0.2473	6.009		0.626370467	0.779238653	0.013192182	0.136101313	0.041947746
2019-12-18T13:15:00	0.2470	6.006		0.625391518	0.777783019	0.013153816	0.135705493	0.041825751
2019-12-18T13:20:00	0.2481	6.004		0.629048789	0.783225283	0.013297446	0.137187297	0.042282457
2019-12-18T13:25:00	0.2482	6.002		0.629394543	0.783740372	0.013311066	0.137327816	0.042325767
2019-12-18T13:30:00	0.2483	6.004		0.629740263	0.784255513	0.013324693	0.137468396	0.042369095
2019-12-18T13:35:00	0.2478	6.008		0.628100195	0.781812625	0.013260114	0.136802157	0.042163753
2019-12-18T13:40:00	0.2478	6.010		0.627783941	0.781341825	0.013247681	0.136673879	0.042124217
2019-12-18T13:45:00	0.2480	6.011		0.628460849	0.782349627	0.013274301	0.136948520	0.042208864
2019-12-18T13:50:00	0.2473	6.012		0.626157794	0.778922353	0.013183842	0.136015272	0.041921228
2019-12-18T13:55:00	0.2468	6.009		0.624516081	0.776481987	0.013119555	0.135352032	0.041716811
2019-12-18T14:00:00	0.2468	6.000		0.624530907	0.776504015	0.013120135	0.135358014	0.041718655
2019-12-18T14:05:00	0.2479	5.985		0.628189059	0.781944930	0.013263609	0.136838213	0.042174866
2019-12-18T14:10:00	0.2469	5.976		0.624891922	0.777040464	0.013134258	0.135503721	0.041763563
2019-12-18T14:15:00	0.2470	5.969		0.625238077	0.777554936	0.013147808	0.135643506	0.041806646
2019-12-18T14:20:00	0.2477	5.957		0.627571352	0.781025396	0.013239326	0.136587684	0.042097651
2019-12-18T14:25:00	0.2478	5.953		0.627917248	0.781540266	0.013252921	0.136727943	0.042140880
2019-12-18T14:30:00	0.2496	5.951		0.633886299	0.790441201	0.013488670	0.139160119	0.042890500
2019-12-18T14:35:00	0.2501	5.948		0.635553278	0.792932360	0.013554893	0.139843332	0.043101073
2019-12-18T14:40:00	0.2506	5.944		0.637219483	0.795424715	0.013621254	0.140527965	0.043312084
2019-12-18T14:45:00	0.2499	5.940		0.634922058	0.791988778	0.013529797	0.139584421	0.043021274
2019-12-18T14:50:00	0.2499	5.937		0.634936841	0.792010872	0.013530384	0.139590482	0.043023142
2019-12-18T14:55:00	0.2494	5.933		0.633299153	0.789564323	0.013465385	0.138919891	0.042816459
2019-12-18T15:00:00	0.2497	5.927		0.634305512	0.791067458	0.013505308	0.139331770	0.042943405
2019-12-18T15:05:00	0.2492	5.923		0.632667535	0.788621354	0.013440359	0.138661708	0.042736885
2019-12-18T15:10:00	0.2502	5.918		0.635987075	0.793581018	0.013572154	0.140021409	0.043155958
2019-12-18T15:15:00	0.2507	5.913		0.637653078	0.796073684	0.013638551	0.140706411	0.043367083
2019-12-18T15:20:00	0.2506	5.906		0.637337667	0.795601586	0.013625967	0.140576592	0.043327071
2019-12-18T15:25:00	0.2507	5.902		0.637682621	0.796117907	0.013639729	0.140718574	0.043370831
2019-12-18T15:30:00	0.2503	5.896		0.636376489	0.794163447	0.013587658	0.140181367	0.043205259
2019-12-18T15:35:00	0.2501	5.890		0.635400274	0.792703609	0.013548808	0.139780550	0.043081723
2019-12-18T15:40:00	0.2514	5.885		0.639707362	0.799150536	0.013720654	0.141553455	0.043628149
2019-12-18T15:45:00	0.2523	5.879		0.642690706	0.803625293	0.013840345	0.142788289	0.044008737
2019-12-18T15:50:00	0.2519	5.877		0.641386396	0.801668010	0.013787950	0.142247736	0.043842134
2019-12-18T15:55:00	0.2509	5.874		0.638101391	0.796744849	0.013656446	0.140891039	0.043423986
2019-12-18T16:00:00	0.2517	5.870		0.640756201	0.800722841	0.013762671	0.141986943	0.043761755
2019-12-18T16:05:00	0.2517	5.866		0.640896312	0.800932951	0.013768289	0.142044903	0.043779619
2019-12-18T16:10:00	0.2522	5.861		0.642355607	0.803122296	0.013826874	0.142649310	0.043965903
2019-12-18T16:15:00	0.2523	5.856		0.642825365	0.803827447	0.013845760	0.142844157	0.044025956
2019-12-18T16:20:00	0.2524	5.853		0.643295061	0.804532694	0.013864658	0.143039117	0.044086045
2019-12-18T16:25:00	0.2530	5.848		0.645082885	0.807218819	0.013936710	0.143782469	0.044315153
2019-12-18T16:30:00	0.2528	5.843		0.644563819	0.806438665	0.013915771	0.143566442	0.044248572
2019-12-18T16:35:00	0.2536	5.839		0.647009694	0.810116808	0.014014582	0.144585857	0.044562765
2019-12-18T16:40:00	0.2537	5.835		0.647478844	0.810822905	0.014033577	0.144781824	0.044623164
2019-12-18T16:45:00	0.2542	5.831		0.648935473	0.813016406	0.014092638	0.145391148	0.044810964
2019-12-18T16:50:00	0.2541	5.827		0.648746129	0.812731175	0.014084953	0.145311867	0.044786529
2019-12-18T16:55:00	0.2549	5.823		0.651518080	0.816909936	0.014197672	0.146474763	0.045144945
2019-12-18T17:00:00	0.2551	5.820		0.651986644	0.817616951	0.014216772	0.146671815	0.045205678
2019-12-18T17:05:00	0.2554	5.816		0.653112714	0.819316841	0.014262729	0.147145941	0.045351808
2019-12-18T17:10:00	0.2552	5.810		0.652265988	0.818038541	0.014228165	0.146789356	0.045241905
2019-12-18T17:15:00	0.2560	5.805		0.655035237	0.822221540	0.014341369	0.147957257	0.045601863
2019-12-18T17:20:00	0.2576	5.801		0.660099922	0.829888785	0.014549620	0.150105750	0.046264050
2019-12-18T17:25:00	0.2580	5.798		0.661551469	0.832090274	0.014609595	0.150724499	0.046454754
2019-12-18T17:30:00	0.2583	5.794		0.662674564	0.833794853	0.014656088	0.151204154	0.046602589
2019-12-18T17:35:00	0.2593	5.791		0.665763478	0.838488635	0.014784358	0.152527495	0.047010455
2019-12-18T17:40:00	0.2591	5.788		0.665247376	0.837703819	0.014762885	0.152305968	0.046942178
2019-12-18T17:45:00	0.2593	5.786		0.665714164	0.838413635	0.014782305	0.152506321	0.047003929
2019-12-18T17:50:00	0.2602	5.783		0.668800492	0.843111526	0.014911044	0.153834494	0.047413285
2019-12-18T17:55:00	0.2608	5.781		0.670575746	0.845817455	0.014985360	0.154601196	0.047649590
2019-12-18T18:00:00	0.2622	5.778		0.675292052	0.853019432	0.015183737	0.156647811	0.048280377
2019-12-18T18:05:00	0.2627	5.773		0.677064141	0.855730424	0.015258628	0.157420454	0.048518513
2019-12-18T18:10:00	0.2627	5.770		0.676876262	0.855442873	0.015250679	0.157338443	0.048493236
2019-12-18T18:15:00	0.2626	5.767		0.676688373	0.855155337	0.015242731	0.157256449	0.048467965
2019-12-18T18:20:00	0.2623	5.763		0.675520424	0.853368651	0.015193377	0.156747270	0.048311031
2019-12-18T18:25:00	0.2620	5.760		0.674678918	0.852082072	0.015157869	0.156380945	0.048198126
2019-12-18T18:30:00	0.2630	5.754		0.677757646	0.856792104	0.015287990	0.157723371	0.048611875
2019-12-18T18:35:00	0.2632	5.743		0.678549301	0.858004546	0.015321543	0.158069534	0.048718566
2019-12-18T18:40:00	0.2623	5.728		0.675748782	0.853717892	0.015203020	0.156846757	0.048341694
2019-12-18T18:45:00	0.2620	5.713		0.674580532	0.851931689	0.015153721	0.156338145	0.048184935
2019-12-18T18:50:00	0.2624	5.698		0.676026300	0.854142378	0.015214744	0.156967705	0.048378971
2019-12-18T18:55:00	0.2620	5.678		0.674531338	0.851856499	0.015151647	0.156316747	0.048178339
2019-12-18T19:00:00	0.2620	5.658		0.674670146	0.852068663	0.015157500	0.156377129	0.048196950
2019-12-18T19:05:00	0.2626	5.639		0.676769167	0.855278977	0.015246149	0.157291705	0.048478831
2019-12-18T19:10:00	0.2639	5.617		0.680825017	0.861492879	0.015418212	0.159066848	0.049025947
2019-12-18T19:15:00	0.2637	5.598		0.680311048	0.860704651	0.015396351	0.158841316	0.048956436
2019-12-18T19:20:00	0.2639	5.575		0.680775907	0.861417554	0.015416122	0.159045291	0.049019303
2019-12-18T19:25:00	0.2643	5.551		0.682219219	0.863632189	0.015477593	0.159679476	0.049214765
2019-12-18T19:30:00	0.2644	5.529		0.682357735	0.863844824	0.015483499	0.159740409	0.049233546
2019-12-18T19:35:00	0.2639	5.508		0.680865368	0.861554772	0.015419929	0.159084561	0.049031407
2019-12-18T19:40:00	0.2640	5.485		0.681330157	0.862267789	0.015439713	0.159288669	0.049094315
2019-12-18T19:45:00	0.2640	5.462		0.681142497	0.861979884	0.015431723	0.159206243	0.049068910
2019-12-18T19:50:00	0.2651	5.440		0.684867613	0.867700590	0.015590724	0.160846627	0.049574493
2019-12-18T19:55:00	0.2648	5.416		0.683702282	0.865909690	0.015540891	0.160332512	0.049416037
2019-12-18T20:00:00	0.2639	5.393		0.680905720	0.861616667	0.015421646	0.159102276	0.049036867
2019-12-18T20:05:00	0.2635	5.369		0.679412759	0.859327573	0.015358184	0.158447549	0.048835073
2019-12-18T20:10:00	0.2630	5.346		0.677919186	0.857039463	0.015294833	0.157793975	0.048633635
2019-12-18T20:15:00	0.2628	5.325		0.677404807	0.856251895	0.015273048	0.157569216	0.048564363
2019-12-18T20:20:00	0.2625	5.303		0.676237089	0.854464839	0.015223651	0.157059604	0.048407295
2019-12-18T20:25:00	0.2615	5.283		0.673107861	0.849681712	0.015091695	0.155698236	0.047987708
2019-12-18T20:30:00	0.2614	5.262		0.672592801	0.848895234	0.015070033	0.155474756	0.047918830
2019-12-18T20:35:00	0.2607	5.242		0.670442118	0.845613679	0.014979759	0.154543415	0.047631781
2019-12-18T20:40:00	0.2601	5.224		0.668290161	0.842334156	0.014889717	0.153614461	0.047345469
2019-12-18T20:45:00	0.2599	5.204		0.667774418	0.841548769	0.014868179	0.153392262	0.047276985
2019-12-18T20:50:00	0.2597	5.186		0.667258602	0.840763498	0.014846655	0.153170201	0.047208543
2019-12-18T20:55:00	0.2591	5.168		0.665104756	0.837486983	0.014756955	0.152244781	0.046923320
2019-12-18T21:00:00	0.2587	5.151		0.663933076	0.835706248	0.014708278	0.151742592	0.046768541
2019-12-18T21:05:00	0.2581	5.132		0.661777252	0.832432870	0.014618936	0.150820864	0.046484455
2019-12-18T21:10:00	0.2580	5.114		0.661588580	0.832146583	0.014611130	0.150740336	0.046459636
2019-12-18T21:15:00	0.2583	5.096		0.662383767	0.833353392	0.014644042	0.151079883	0.046564287
2019-12-18T21:20:00	0.2581	5.075		0.661867183	0.832569340	0.014622657	0.150859255	0.046496287
2019-12-18T21:25:00	0.2585	5.058		0.663318021	0.834771950	0.014682760	0.151479324	0.046687399
2019-12-18T21:30:00	0.2581	5.039		0.661817816	0.832494425	0.014620614	0.150838180	0.046489792
2019-12-18T21:35:00	0.2576	5.021		0.660316989	0.830217885	0.014558581	0.150198194	0.046292542
2019-12-18T21:40:00	0.2574	5.003		0.659471950	0.828936929	0.014523714	0.149838477	0.046181674
2019-12-18T21:45:00	0.2579	4.984		0.661251777	0.831635598	0.014597202	0.150596641	0.046415347
2019-12-18T21:50:00	0.2571	4.965		0.658766131	0.827867479	0.014494625	0.149538370	0.046089178
2019-12-18T21:55:00	0.2571	4.945		0.658577302	0.827581439	0.014486848	0.149458135	0.046064449
2019-12-18T22:00:00	0.2578	4.927		0.661013700	0.831274456	0.014587361	0.150495110	0.046384054
2019-12-18T22:05:00	0.2584	4.910		0.662879741	0.834106379	0.014664590	0.151291868	0.046629623
2019-12-18T22:10:00	0.2586	4.895		0.663433793	0.834947788	0.014687561	0.151528860	0.046702666
2019-12-18T22:15:00	0.2581	4.877		0.662020628	0.832802210	0.014629007	0.150924772	0.046516481
2019-12-18T22:20:00	0.2583	4.860		0.662574811	0.833643411	0.014651955	0.151161519	0.046589448
2019-12-18T22:25:00	0.2582	4.842		0.662145244	0.832991343	0.014634166	0.150977991	0.046532883
2019-12-18T22:30:00	0.2582	4.825		0.662371510	0.833334788	0.014643535	0.151074647	0.046562673
2019-12-18T22:35:00	0.2585	4.809		0.663253488	0.834673939	0.014680083	0.151451715	0.046678889
2019-12-18T22:40:00	0.2590	4.794		0.664790697	0.837009556	0.014743899	0.152110088	0.046881806
2019-12-18T22:45:00	0.2585	4.778		0.663050225	0.834365256	0.014671656	0.151364771	0.046652092
2019-12-18T22:50:00	0.2585	4.762		0.663276435	0.834708790	0.014681035	0.151461532	0.046681915
2019-12-18T22:55:00	0.2582	4.744		0.662191152	0.833061022	0.014636066	0.150997599	0.046538927
2019-12-18T23:00:00	0.2586	4.725		0.663401008	0.834897991	0.014686201	0.151514831	0.046698342
2019-12-18T23:05:00	0.2580	4.707		0.661659868	0.832254749	0.014614079	0.150770760	0.046469012
2019-12-18T23:10:00	0.2579	4.691		0.661230192	0.831602853	0.014596309	0.150587434	0.046412510
2019-12-18T23:15:00	0.2568	4.673		0.657518427	0.825978013	0.014443277	0.149008629	0.045925907
2019-12-18T23:20:00	0.2566	4.656		0.657088259	0.825326894	0.014425596	0.148826219	0.045869686
2019-12-18T23:25:00	0.2573	4.640		0.659284533	0.828652915	0.014515987	0.149758759	0.046157104
2019-12-18T23:30:00	0.2577	4.623		0.660495360	0.830488347	0.014565946	0.150274181	0.046315962
2019-12-18T23:35:00	0.2583	4.609		0.662689567	0.833817632	0.014656709	0.151210567	0.046604565
2019-12-18T23:40:00	0.2584	4.594		0.662915799	0.834161131	0.014666084	0.151307286	0.046634375
2019-12-18T23:45:00	0.2589	4.577		0.664453152	0.836496521	0.014729874	0.151965392	0.046837210
2019-12-18T23:50:00	0.2592	4.559		0.665334623	0.837836476	0.014766514	0.152343405	0.046953717
2019-12-18T23:55:00	0.2591	4.542		0.665233051	0.837682039	0.014762290	0.152299822	0.046940284
2019-12-19T00:00:00	0.2590	4.525		0.664803799	0.837029472	0.014744444	0.152115706	0.046883538
2019-12-19T00:05:00	0.2595	4.507		0.666340351	0.839366132	0.014808378	0.152775306	0.047086833
2019-12-19T00:10:00	0.2593	4.490		0.665911230	0.838713357	0.014790508	0.152590945	0.047030011
2019-12-19T00:15:00	0.2601	4.475		0.668429541	0.842546447	0.014895540	0.153674540	0.047363986
2019-12-19T00:20:00	0.2607	4.458		0.670291771	0.845384425	0.014973459	0.154478418	0.047611749
2019-12-19T00:25:00	0.2608	4.442		0.670844692	0.846227632	0.014996636	0.154717524	0.047685443
2019-12-19T00:30:00	0.2611	4.426		0.671724612	0.847570056	0.015033557	0.155098438	0.047802845
2019-12-19T00:35:00	0.2625	4.409		0.676199424	0.854407217	0.015222059	0.157043181	0.048402234
2019-12-19T00:40:00	0.2630	4.393		0.678057680	0.857251551	0.015300702	0.157854519	0.048652296
2019-12-19T00:45:00	0.2638	4.378		0.680567598	0.861098070	0.015407261	0.158953870	0.048991127
2019-12-19T00:50:00	0.2640	4.360		0.681118960	0.861943776	0.015430721	0.159195907	0.049065725
2019-12-19T00:55:00	0.2637	4.345		0.680365301	0.860787844	0.015398658	0.158865115	0.048963771
2019-12-19T01:00:00	0.2637	4.328		0.680264148	0.860632737	0.015394357	0.158820745	0.048950096
2019-12-19T01:05:00	0.2640	4.310		0.681141795	0.861978807	0.015431693	0.159205935	0.049068815
2019-12-19T01:10:00	0.2643	4.293		0.682019231	0.863325217	0.015469068	0.159591523	0.049187657
2019-12-19T01:15:00	0.2640	4.278		0.681265757	0.862168984	0.015436971	0.159260380	0.049085596
2019-12-19T01:20:00	0.2648	4.264		0.683773469	0.866019058	0.015543933	0.160363893	0.049425709
2019-12-19T01:25:00	0.2651	4.250		0.684650272	0.867366488	0.015581424	0.160750676	0.049544919
2019-12-19T01:30:00	0.2651	4.235		0.684875143	0.867712166	0.015591046	0.160849952	0.049575517
2019-12-19T01:35:00	0.2650	4.220		0.684448201	0.867055897	0.015572779	0.160661493	0.049517433
2019-12-19T01:40:00	0.2654	4.205		0.685650678	0.868904677	0.015624257	0.161192583	0.049681119
2019-12-19T01:45:00	0.2648	4.190		0.683920159	0.866244438	0.015550202	0.160428568	0.049445643
2019-12-19T01:50:00	0.2646	4.174		0.683167078	0.865087572	0.015518033	0.160096684	0.049343353
2019-12-19T01:55:00	0.2639	4.159		0.680782928	0.861428322	0.015416421	0.159048373	0.049020253
2019-12-19T02:00:00	0.2631	4.143		0.678397218	0.857771585	0.015315094	0.158003003	0.048698060
2019-12-19T02:05:00	0.2630	4.128		0.677969518	0.857116539	0.015296966	0.157815976	0.048640417
2019-12-19T02:10:00	0.2630	4.115		0.677868299	0.856961539	0.015292677	0.157771732	0.048626780
2019-12-19T02:15:00	0.2626	4.103		0.676460740	0.854807020	0.015233106	0.157157142	0.048437358
2019-12-19T02:20:00	0.2616	4.091		0.673418424	0.850156041	0.015104764	0.155833068	0.048029265
2019-12-19T02:25:00	0.2614	4.079		0.672663169	0.849002669	0.015072992	0.155505278	0.047928237
2019-12-19T02:30:00	0.2614	4.067		0.672561802	0.848847907	0.015068730	0.155461311	0.047914686
2019-12-19T02:35:00	0.2605	4.054		0.669843473	0.844700961	0.014954682	0.154284698	0.047552042
2019-12-19T02:40:00	0.2604	4.041		0.669414766	0.844047527	0.014936737	0.154099562	0.047494982
2019-12-19T02:45:00	0.2604	4.027		0.669313309	0.843892909	0.014932492	0.154055766	0.047481483
2019-12-19T02:50:00	0.2608	4.013		0.670847953	0.846232605	0.014996772	0.154718935	0.047685878
2019-12-19T02:55:00	0.2609	4.002		0.671073677	0.846576912	0.015006239	0.154816603	0.047715981
2019-12-19T03:00:00	0.2613	3.990		0.672280575	0.848418586	0.015056910	0.155339366	0.047877101
2019-12-19T03:05:00	0.2609	3.980		0.671197983	0.846766539	0.015011454	0.154870403	0.047732562
2019-12-19T03:10:00	0.2617	3.965		0.673712632	0.850605469	0.015117151	0.155960856	0.048068650
2019-12-19T03:15:00	0.2618	3.952		0.673938179	0.850950060	0.015126650	0.156058858	0.048098856
2019-12-19T03:20:00	0.2611	3.940		0.671547979	0.847300526	0.015026142	0.155021935	0.047779266
2019-12-19T03:25:00	0.2607	3.928		0.670465168	0.845648828	0.014980725	0.154553381	0.047634853
2019-12-19T03:30:00	0.2607	3.917		0.670363740	0.845494163	0.014976475	0.154509529	0.047621337
2019-12-19T03:35:00	0.2610	3.904		0.671243776	0.846836400	0.015013375	0.154890225	0.047738672
2019-12-19T03:40:00	0.2611	3.893		0.671796553	0.847679838	0.015036578	0.155129603	0.047812450
2019-12-19T03:45:00	0.2611	3.882		0.671695162	0.847525114	0.015032321	0.155085681	0.047798913
2019-12-19T03:50:00	0.2618	3.869		0.673882608	0.850865154	0.015124309	0.156034709	0.048091413
2019-12-19T03:55:00	0.2613	3.857		0.672473507	0.848713108	0.015065019	0.155423019	0.047902884
2019-12-19T04:00:00	0.2610	3.845		0.671390972	0.847060969	0.015019552	0.154953948	0.047758312
2019-12-19T04:05:00	0.2611	3.833		0.671564501	0.847325737	0.015026835	0.155029090	0.047781471
2019-12-19T04:10:00	0.2610	3.822		0.671410941	0.847091436	0.015020390	0.154962594	0.047760977
2019-12-19T04:15:00	0.2610	3.811		0.671257374	0.846857144	0.015013946	0.154896111	0.047740486
2019-12-19T04:20:00	0.2614	3.800		0.672739053	0.849118532	0.015076183	0.155538196	0.047938383
2019-12-19T04:25:00	0.2612	3.787		0.671931502	0.847885786	0.015042245	0.155188071	0.047830471
2019-12-19T04:30:00	0.2612	3.776		0.672105005	0.848150597	0.015049533	0.155263261	0.047853645
2019-12-19T04:35:00	0.2610	3.764		0.671297313	0.846918076	0.015015622	0.154913400	0.047745814
2019-12-19T04:40:00	0.2615	3.751		0.673105935	0.849678771	0.015091614	0.155697400	0.047987451
2019-12-19T04:45:00	0.2624	3.740		0.675893871	0.853939809	0.015209149	0.156909984	0.048361181
2019-12-19T04:50:00	0.2622	3.730		0.675413771	0.853205555	0.015188874	0.156700817	0.048296714
2019-12-19T04:55:00	0.2623	3.717		0.675587109	0.853470631	0.015196193	0.156776319	0.048319984
2019-12-19T05:00:00	0.2622	3.705		0.675433718	0.853236057	0.015189716	0.156709504	0.048299391
2019-12-19T05:05:00	0.2619	3.695		0.674299942	0.851502854	0.015141893	0.156216116	0.048147324
2019-12-19T05:10:00	0.2617	3.685		0.673819632	0.850768937	0.015121657	0.156007344	0.048082979
2019-12-19T05:15:00	0.2626	3.673		0.676607021	0.855030851	0.015239291	0.157220955	0.048457025
2019-12-19T05:20:00	0.2630	3.663		0.677760013	0.856795728	0.015288090	0.157724406	0.048612194
2019-12-19T05:25:00	0.2628	3.652		0.677280159	0.856061079	0.015267771	0.157514776	0.048547584
2019-12-19T05:30:00	0.2630	3.642		0.677779947	0.856826251	0.015288934	0.157733117	0.048614879
2019-12-19T05:35:00	0.2627	3.633		0.676973513	0.855591714	0.015254793	0.157380891	0.048506319
2019-12-19T05:40:00	0.2630	3.623		0.677799881	0.856856774	0.015289779	0.157741829	0.048617564
2019-12-19T05:45:00	0.2631	3.615		0.678299598	0.857622060	0.015310955	0.157960304	0.048684900
2019-12-19T05:50:00	0.2630	3.605		0.677819815	0.856887297	0.015290623	0.157750541	0.048620249
2019-12-19T05:55:00	0.2628	3.596		0.677339969	0.856152636	0.015270303	0.157540896	0.048555634
2019-12-19T06:00:00	0.2634	3.587		0.679145591	0.858918139	0.015346841	0.158330534	0.048799008
2019-12-19T06:05:00	0.2630	3.579		0.678012971	0.857183082	0.015298807	0.157834972	0.048646271
2019-12-19T06:10:00	0.2635	3.572		0.679491903	0.859448874	0.015361544	0.158482221	0.048845760
2019-12-19T06:15:00	0.2649	3.565		0.684231168	0.866722346	0.015563498	0.160565736	0.049487919
2019-12-19T06:20:00	0.2650	3.559		0.684404087	0.866988096	0.015570892	0.160642027	0.049511433
2019-12-19T06:25:00	0.2659	3.553		0.687509072	0.871764371	0.015703991	0.162015183	0.049934653
2019-12-19T06:30:00	0.2665	3.548		0.689309673	0.874537983	0.015781450	0.162814309	0.050180951
2019-12-19T06:35:00	0.2672	3.545		0.691760002	0.878316926	0.015887182	0.163905123	0.050517151
2019-12-19T06:40:00	0.2673	3.544		0.691932565	0.878583252	0.015894642	0.163982088	0.050540872
2019-12-19T06:45:00	0.2678	3.546		0.693405876	0.880858143	0.015958410	0.164639977	0.050743640
2019-12-19T06:50:00	0.2680	3.548		0.694228536	0.882129203	0.015994076	0.165007931	0.050857047
2019-12-19T06:55:00	0.2686	3.551		0.696025839	0.884908184	0.016072142	0.165813327	0.051105278
2019-12-19T07:00:00	0.2687	3.556		0.696523071	0.885677498	0.016093775	0.166036509	0.051174065
2019-12-19T07:05:00	0.2698	3.559		0.699942372	0.890973617	0.016242954	0.167575560	0.051648415
2019-12-19T07:10:00	0.2699	3.565		0.700439074	0.891743798	0.016264685	0.167799754	0.051717514
2019-12-19T07:15:00	0.2709	3.571		0.703530513	0.896542167	0.016400282	0.169198688	0.052148679
2019-12-19T07:20:00	0.2709	3.577		0.703702524	0.896809398	0.016407844	0.169276707	0.052172725
2019-12-19T07:25:00	0.2712	3.585		0.704522882	0.898084231	0.016443936	0.169649058	0.052287487
2019-12-19T07:30:00	0.2714	3.591		0.705343057	0.899359365	0.016480062	0.170021759	0.052402357
2019-12-19T07:35:00	0.2724	3.600		0.708430382	0.904164511	0.016616423	0.171428577	0.052835952
2019-12-19T07:40:00	0.2728	3.609		0.709897097	0.906450230	0.016681414	0.172099077	0.053042607
2019-12-19T07:45:00	0.2725	3.619		0.708773939	0.904699740	0.016631635	0.171585508	0.052884320
2019-12-19T07:50:00	0.2724	3.629		0.708621931	0.904462914	0.016624903	0.171516064	0.052862917
2019-12-19T07:55:00	0.2736	3.640		0.712353491	0.910282459	0.016790560	0.173225115	0.053389663
2019-12-19T08:00:00	0.2734	3.653		0.711878143	0.909540456	0.016769409	0.173006906	0.053322409
2019-12-19T08:05:00	0.2744	3.667		0.714960006	0.914354645	0.016906790	0.174424232	0.053759242
2019-12-19T08:10:00	0.2744	3.682		0.714808253	0.914117397	0.016900011	0.174354298	0.053737688
2019-12-19T08:15:00	0.2744	3.698		0.714979739	0.914385497	0.016907671	0.174433327	0.053762045
2019-12-19T08:20:00	0.2753	3.715		0.717736042	0.918698199	0.017031047	0.175706171	0.054154348
2019-12-19T08:25:00	0.2755	3.734		0.718553287	0.919978192	0.017067719	0.176084515	0.054270958
2019-12-19T08:30:00	0.2750	3.754		0.716786668	0.917211993	0.016988498	0.175267200	0.054019053
2019-12-19T08:35:00	0.2757	3.777		0.719218779	0.921020937	0.017097613	0.176392924	0.054366012
2019-12-19T08:40:00	0.2752	3.799		0.717452477	0.918254208	0.017018332	0.175574995	0.054113919
2019-12-19T08:45:00	0.2759	3.825		0.719884151	0.922063882	0.017127530	0.176701566	0.054461139
2019-12-19T08:50:00	0.2763	3.853		0.721023639	0.923850883	0.017178828	0.177230798	0.054624253
2019-12-19T08:55:00	0.2762	3.881		0.720872135	0.923613221	0.017172002	0.177160384	0.054602551
2019-12-19T09:00:00	0.2763	3.910		0.721043340	0.923881789	0.017179715	0.177239955	0.054627076
2019-12-19T09:05:00	0.2766	3.941		0.722182472	0.925669387	0.017231080	0.177769878	0.054790403
2019-12-19T09:10:00	0.2771	3.973		0.723643743	0.927964169	0.017297090	0.178450894	0.055000299
2019-12-19T09:15:00	0.2774	4.004		0.724782077	0.929753105	0.017348606	0.178982367	0.055164104
2019-12-19T09:20:00	0.2783	4.036		0.727531101	0.934077987	0.017473349	0.180269322	0.055560756
2019-12-19T09:25:00	0.2783	4.066		0.727379862	0.933839879	0.017466474	0.180198392	0.055538894
2019-12-19T09:30:00	0.2783	4.095		0.727550767	0.934108951	0.017474243	0.180278546	0.055563599
2019-12-19T09:35:00	0.2786	4.124		0.728365851	0.935392564	0.017511322	0.180661083	0.055681500
2019-12-19T09:40:00	0.2778	4.149		0.725959410	0.931604526	0.017401972	0.179532934	0.055333794
2019-12-19T09:45:00	0.2776	4.175		0.725163476	0.930352743	0.017365884	0.179160625	0.055219045
2019-12-19T09:50:00	0.2779	4.200		0.726301343	0.932142462	0.017417487	0.179693004	0.055383129
2019-12-19T09:55:00	0.2777	4.224		0.725505482	0.930890556	0.017381386	0.179320553	0.055268336
2019-12-19T10:00:00	0.2777	4.250		0.725676474	0.931159482	0.017389139	0.179400539	0.055292989
2019-12-19T10:05:00	0.2774	4.274		0.724737786	0.929683479	0.017346600	0.178961672	0.055157725
2019-12-19T10:10:00	0.2769	4.303		0.723153880	0.927194679	0.017274947	0.178222442	0.054929887
2019-12-19T10:15:00	0.2781	4.330		0.727050398	0.933321248	0.017451502	0.180043927	0.055491287
2019-12-19T10:20:00	0.2789	4.354		0.729333272	0.936916836	0.017555385	0.181115675	0.055821610
2019-12-19T10:25:00	0.2777	4.378		0.725495808	0.930875342	0.017380947	0.179316028	0.055266941
2019-12-19T10:30:00	0.2785	4.403		0.728101740	0.934976572	0.017499303	0.180537083	0.055643282
2019-12-19T10:35:00	0.2782	4.428		0.727163665	0.933499538	0.017456648	0.180097022	0.055507651
2019-12-19T10:40:00	0.2777	4.449		0.725580794	0.931008999	0.017384800	0.179355780	0.055279193
2019-12-19T10:45:00	0.2779	4.471		0.726253676	0.932067464	0.017415324	0.179670685	0.055376250
2019-12-19T10:50:00	0.2757	4.491		0.719185794	0.920969245	0.017096131	0.176377632	0.054361299
2019-12-19T10:55:00	0.2746	4.508		0.715660991	0.915450814	0.016938121	0.174747468	0.053858867
2019-12-19T11:00:00	0.2739	4.527		0.713426519	0.911958145	0.016838357	0.173718225	0.053541644
2019-12-19T11:05:00	0.2741	4.544		0.714101613	0.913012914	0.016868465	0.174028847	0.053637381
2019-12-19T11:10:00	0.2732	4.562		0.711219134	0.908512091	0.016740110	0.172704629	0.053229244
2019-12-19T11:15:00	0.2720	4.584		0.707038920	0.901997798	0.016554891	0.170793761	0.052640296
2019-12-19T11:20:00	0.2716	4.604		0.705771463	0.900025646	0.016498948	0.170216606	0.052462411
2019-12-19T11:25:00	0.2703	4.622		0.701585059	0.893521567	0.016314881	0.168317617	0.051877124
2019-12-19T11:30:00	0.2707	4.641		0.702910964	0.895579870	0.016373060	0.168917838	0.052062118
2019-12-19T11:35:00	0.2708	4.657		0.703263740	0.896127769	0.016388557	0.169077726	0.052111397
2019-12-19T11:40:00	0.2715	4.675		0.705561340	0.899698832	0.016489683	0.170121023	0.052432952
2019-12-19T11:45:00	0.2726	4.699		0.709152702	0.905289936	0.016648413	0.171758608	0.052937671
2019-12-19T11:50:00	0.2720	4.734		0.707238209	0.902308018	0.016563697	0.170884605	0.052668295
2019-12-19T11:55:00	0.2716	4.772		0.705970821	0.900335753	0.016507741	0.170307318	0.052490369
2019-12-19T12:00:00	0.2719	4.806		0.706971228	0.901892435	0.016551901	0.170762911	0.052630788
2019-12-19T12:05:00	0.2707	4.841		0.703110477	0.895889721	0.016381823	0.169008253	0.052089985
2019-12-19T12:10:00	0.2705	4.875		0.702166037	0.894423275	0.016340360	0.168580479	0.051958141
2019-12-19T12:15:00	0.2718	4.905		0.706408732	0.901017056	0.016527063	0.170506666	0.052551811
2019-12-19T12:20:00	0.2719	4.937		0.706761173	0.901565507	0.016542623	0.170667197	0.052601288
2019-12-19T12:25:00	0.2717	4.967		0.706141691	0.900601573	0.016515279	0.170385088	0.052514339
2019-12-19T12:30:00	0.2711	4.996		0.704225633	0.897622239	0.016430854	0.169514090	0.052245889
2019-12-19T12:35:00	0.2709	5.021		0.703605723	0.896659007	0.016403588	0.169232799	0.052159192
2019-12-19T12:40:00	0.2708	5.047		0.703309979	0.896199590	0.016390589	0.169098689	0.052117858
2019-12-19T12:45:00	0.2702	5.074		0.701392445	0.893222685	0.016306438	0.168230517	0.051850279
2019-12-19T12:50:00	0.2696	5.097		0.699473911	0.890247423	0.016222473	0.167364259	0.051583290
2019-12-19T12:55:00	0.2677	5.119		0.693330015	0.880740962	0.015955124	0.164606068	0.050733189
2019-12-19T13:00:00	0.2665	5.137		0.689454888	0.874761791	0.015787705	0.162878847	0.050200843
2019-12-19T13:05:00	0.2655	5.154		0.686227250	0.869791586	0.015648972	0.161447561	0.049759706
2019-12-19T13:10:00	0.2656	5.173		0.686255882	0.869835637	0.015650200	0.161460228	0.049763610
2019-12-19T13:15:00	0.2676	5.192		0.692794008	0.879913150	0.015931911	0.164366586	0.050659378
2019-12-19T13:20:00	0.2675	5.208		0.692497392	0.879455160	0.015919073	0.164234140	0.050618557
2019-12-19T13:25:00	0.2686	5.223		0.696101534	0.885025285	0.016075434	0.165847292	0.051115746
2019-12-19T13:30:00	0.2683	5.236		0.695155290	0.883561796	0.016034304	0.165422963	0.050984964
2019-12-19T13:35:00	0.2697	5.249		0.699730666	0.890645413	0.016233696	0.167480051	0.051618978
2019-12-19T13:40:00	0.2701	5.264		0.701057239	0.892702617	0.016291751	0.168078993	0.051803578
2019-12-19T13:45:00	0.2690	5.276		0.697515053	0.887212923	0.016136979	0.166482234	0.051311441
2019-12-19T13:50:00	0.2691	5.285		0.697868347	0.887759972	0.016152380	0.166641131	0.051360415
2019-12-19T13:55:00	0.2690	5.293		0.697572141	0.887301313	0.016139467	0.166507904	0.051319353
2019-12-19T14:00:00	0.2690	5.304		0.697600685	0.887345508	0.016140711	0.166520740	0.051323309
2019-12-19T14:05:00	0.2694	5.314		0.698603371	0.888898444	0.016184449	0.166971972	0.051462383
2019-12-19T14:10:00	0.2693	5.322		0.698307224	0.888439688	0.016171524	0.166838632	0.051421287
2019-12-19T14:15:00	0.2697	5.332		0.699634311	0.890496049	0.016229484	0.167436592	0.051605584
2019-12-19T14:20:00	0.2685	5.342		0.695765844	0.884506008	0.016060837	0.165696691	0.051069329
2019-12-19T14:25:00	0.2683	5.349		0.695144505	0.883545121	0.016033836	0.165418130	0.050983474
2019-12-19T14:30:00	0.2681	5.353		0.694523062	0.882584404	0.016006855	0.165139770	0.050897681
2019-12-19T14:35:00	0.2676	5.358		0.692926121	0.880117162	0.015937630	0.164425596	0.050677565
2019-12-19T14:40:00	0.2685	5.366		0.695880075	0.884682700	0.016065803	0.165747931	0.051085122
2019-12-19T14:45:00	0.2698	5.373		0.700130026	0.891264566	0.016251162	0.167660242	0.051674515
2019-12-19T14:50:00	0.2701	5.380		0.701132022	0.892818633	0.016295027	0.168112791	0.051813995
2019-12-19T14:55:00	0.2691	5.386		0.697914654	0.887831681	0.016154400	0.166661964	0.051366836
2019-12-19T15:00:00	0.2699	5.390		0.700540112	0.891900492	0.016269107	0.167845378	0.051731576
2019-12-19T15:05:00	0.2688	5.395		0.696672599	0.885908888	0.016100283	0.166103656	0.051194760
2019-12-19T15:10:00	0.2680	5.399		0.694101515	0.881932909	0.015988566	0.164951090	0.050839528
2019-12-19T15:15:00	0.2696	5.403		0.699327475	0.890020461	0.016216073	0.167298237	0.051562941
2019-12-19T15:20:00	0.2682	5.408		0.694808728	0.883025987	0.016019255	0.165267696	0.050937109
2019-12-19T15:25:00	0.2688	5.411		0.696786802	0.886085626	0.016105255	0.166154949	0.051210569
2019-12-19T15:30:00	0.2680	5.413		0.694215798	0.882109516	0.015993523	0.165002230	0.050855290
2019-12-19T15:35:00	0.2663	5.414		0.688714229	0.873620462	0.015755813	0.162549815	0.050099432
2019-12-19T15:40:00	0.2666	5.414		0.689719349	0.875169430	0.015799101	0.162996417	0.050237079
2019-12-19T15:45:00	0.2667	5.415		0.690073395	0.875715252	0.015814365	0.163153883	0.050285611
2019-12-19T15:50:00	0.2651	5.414		0.684891495	0.867737304	0.015591746	0.160857172	0.049577743
2019-12-19T15:55:00	0.2651	5.411		0.684920137	0.867781339	0.015592972	0.160869820	0.049581641
2019-12-19T16:00:00	0.2648	5.409		0.683645013	0.865821709	0.015538445	0.160307269	0.049408257
2019-12-19T16:05:00	0.2646	5.406		0.683067776	0.864935063	0.015513794	0.160052949	0.049329873
2019-12-19T16:10:00	0.2617	5.408		0.673675015	0.850548001	0.015115567	0.155944514	0.048063614
2019-12-19T16:15:00	0.2627	5.409		0.677017422	0.855658917	0.015256651	0.157400058	0.048512227
2019-12-19T16:20:00	0.2639	5.401		0.681009293	0.861775543	0.015426053	0.159147750	0.049050882
2019-12-19T16:25:00	0.2644	5.388		0.682388836	0.863892568	0.015484826	0.159754092	0.049237763
2019-12-19T16:30:00	0.2668	5.374		0.690281827	0.876036634	0.015823354	0.163246623	0.050314195
2019-12-19T16:35:00	0.2700	5.363		0.700754601	0.892233162	0.016278497	0.167942254	0.051761434
2019-12-19T16:40:00	0.2696	5.352		0.699530933	0.890335806	0.016224965	0.167389971	0.051591215
2019-12-19T16:45:00	0.2710	5.341		0.703822567	0.896995908	0.016413123	0.169331166	0.052189510
2019-12-19T16:50:00	0.2714	5.330		0.705193550	0.899126883	0.016473473	0.169953788	0.052381408
2019-12-19T16:55:00	0.2732	5.320		0.711096803	0.908321238	0.016734674	0.172648548	0.053211959
2019-12-19T17:00:00	0.2728	5.309		0.709876567	0.906418223	0.016680504	0.172089683	0.053039712
2019-12-19T17:05:00	0.2734	5.300		0.711568844	0.909057756	0.016755655	0.172865000	0.053278672
2019-12-19T17:10:00	0.2720	5.289		0.707110976	0.902109959	0.016558075	0.170826605	0.052650419
2019-12-19T17:15:00	0.2711	5.274		0.704268922	0.897689515	0.016432759	0.169533742	0.052251946
2019-12-19T17:20:00	0.2712	5.261		0.704667459	0.898308964	0.016450301	0.169714724	0.052307726
2019-12-19T17:25:00	0.2714	5.251		0.705390040	0.899432429	0.016482132	0.170043122	0.052408942
2019-12-19T17:30:00	0.2723	5.242		0.708056019	0.903581407	0.016599857	0.171257662	0.052783275
2019-12-19T17:35:00	0.2732	5.230		0.711043662	0.908238335	0.016732313	0.172624190	0.053204452
2019-12-19T17:40:00	0.2732	5.220		0.711117912	0.908354171	0.016735612	0.172658225	0.053214942
2019-12-19T17:45:00	0.2741	5.209		0.714103078	0.913015203	0.016868531	0.174029521	0.053637589
2019-12-19T17:50:00	0.2750	5.200		0.716762773	0.917174597	0.016987428	0.175256159	0.054015650
2019-12-19T17:55:00	0.2760	5.191		0.720066187	0.922349283	0.017135719	0.176786055	0.054487179
2019-12-19T18:00:00	0.2770	5.180		0.723366657	0.927528890	0.017284563	0.178321653	0.054960465
2019-12-19T18:05:00	0.2768	5.169		0.722795618	0.926632045	0.017258762	0.178055462	0.054878423
2019-12-19T18:10:00	0.2771	5.159		0.723514663	0.927761387	0.017291254	0.178390681	0.054981740
2019-12-19T18:15:00	0.2773	5.150		0.724233569	0.928890961	0.017323773	0.178726170	0.055085141
2019-12-19T18:20:00	0.2776	5.144		0.725274683	0.930527607	0.017370924	0.179212619	0.055235070
2019-12-19T18:25:00	0.2757	5.137		0.719219364	0.921021854	0.017097640	0.176393196	0.054366096
2019-12-19T18:30:00	0.2750	5.131		0.717032779	0.917597195	0.016999523	0.175380941	0.054054109
2019-12-19T18:35:00	0.2751	5.126		0.717106909	0.917713230	0.017002844	0.175415208	0.054064671
2019-12-19T18:40:00	0.2763	5.120		0.721055475	0.923900825	0.017180262	0.177245596	0.054628814
2019-12-19T18:45:00	0.2770	5.112		0.723387697	0.927561939	0.017285514	0.178331465	0.054963489
2019-12-19T18:50:00	0.2780	5.103		0.726685214	0.932746497	0.017434914	0.179872797	0.055438543
2019-12-19T18:55:00	0.2779	5.093		0.726114686	0.931848795	0.017409016	0.179605614	0.055356195
2019-12-19T19:00:00	0.2780	5.085		0.726510875	0.932472152	0.017426998	0.179791130	0.055413372
2019-12-19T19:05:00	0.2784	5.078		0.727873473	0.934617086	0.017488918	0.180429948	0.055610262
2019-12-19T19:10:00	0.2783	5.072		0.727625271	0.934226257	0.017477631	0.180313495	0.055574370
2019-12-19T19:15:00	0.2767	5.065		0.722541633	0.926233240	0.017247292	0.177937134	0.054841953
2019-12-19T19:20:00	0.2772	5.057		0.723905689	0.928375726	0.017308938	0.178573118	0.055037969
2019-12-19T19:25:00	0.2770	5.053		0.723334732	0.927478742	0.017283120	0.178306766	0.054955877
2019-12-19T19:30:00	0.2758	5.050		0.719536762	0.921519316	0.017111907	0.176540389	0.054411463
2019-12-19T19:35:00	0.2775	5.047		0.725094837	0.930244820	0.017362774	0.179128538	0.055209155
2019-12-19T19:40:00	0.2776	5.042		0.725168806	0.930361125	0.017366126	0.179163117	0.055219813
2019-12-19T19:45:00	0.2758	5.037		0.719436170	0.921361648	0.017107385	0.176493733	0.054397083
2019-12-19T19:50:00	0.2751	5.035		0.717249714	0.917936774	0.017009244	0.175481230	0.054085019
2019-12-19T19:55:00	0.2757	5.035		0.719261490	0.921087874	0.017099533	0.176412728	0.054372116
2019-12-19T20:00:00	0.2747	5.037		0.715782513	0.915640887	0.016943555	0.174803535	0.053876147
2019-12-19T20:05:00	0.2759	5.038		0.719732490	0.921826125	0.017120708	0.176631191	0.054439448
2019-12-19T20:10:00	0.2758	5.040		0.719483743	0.921436211	0.017109523	0.176515797	0.054403883
2019-12-19T20:15:00	0.2764	5.040		0.721494306	0.924589337	0.017200040	0.177449644	0.054691704
2019-12-19T20:20:00	0.2772	5.040		0.724148698	0.928757586	0.017319932	0.178686547	0.055072929
2019-12-19T20:25:00	0.2764	5.039		0.721319722	0.924315401	0.017192170	0.177368451	0.054666679
2019-12-19T20:30:00	0.2771	5.037		0.723651779	0.927976793	0.017297454	0.178454642	0.055001454
2019-12-19T20:35:00	0.2762	5.035		0.720822424	0.923535245	0.017169763	0.177137283	0.054595431
2019-12-19T20:40:00	0.2759	5.034		0.719928208	0.922132952	0.017129511	0.176722012	0.054467440
2019-12-19T20:45:00	0.2755	5.032		0.718387965	0.919719213	0.017060297	0.176007944	0.054247358
2019-12-19T20:50:00	0.2751	5.031		0.717170135	0.917812200	0.017005677	0.175444437	0.054073679
2019-12-19T20:55:00	0.2752	5.028		0.717567282	0.918433954	0.017023479	0.175628097	0.054130285
2019-12-19T21:00:00	0.2746	5.025		0.715702902	0.915516366	0.016939995	0.174766803	0.053864826
2019-12-19T21:05:00	0.2744	5.021		0.714807448	0.914116138	0.016899975	0.174353927	0.053737574
2019-12-19T21:10:00	0.2747	5.022		0.715851214	0.915748350	0.016946628	0.174835237	0.053885918
2019-12-19T21:15:00	0.2750	5.020		0.716894687	0.917381053	0.016993336	0.175317117	0.054034438
2019-12-19T21:20:00	0.2745	5.019		0.715353180	0.914969421	0.016924359	0.174605492	0.053815108
2019-12-19T21:25:00	0.2750	5.015		0.717042951	0.917613117	0.016999978	0.175385643	0.054055558
2019-12-19T21:30:00	0.2751	5.013		0.717117081	0.917729152	0.017003300	0.175419910	0.054066120
2019-12-19T21:35:00	0.2764	5.008		0.721388321	0.924423036	0.017195262	0.177400352	0.054676511
2019-12-19T21:40:00	0.2755	5.005		0.718557237	0.919984381	0.017067897	0.176086345	0.054271522
2019-12-19T21:45:00	0.2760	5.004		0.720245545	0.922630515	0.017143790	0.176869323	0.054512843
2019-12-19T21:50:00	0.2753	5.005		0.717736591	0.918699059	0.017031071	0.175706425	0.054154427
2019-12-19T21:55:00	0.2753	5.005		0.717810707	0.918815118	0.017034396	0.175740719	0.054164996
2019-12-19T22:00:00	0.2754	5.005		0.718207785	0.919436986	0.017052210	0.175924512	0.054221643
2019-12-19T22:05:00	0.2760	5.005		0.720121867	0.922436586	0.017138224	0.176811903	0.054495146
2019-12-19T22:10:00	0.2753	5.006		0.717838583	0.918858769	0.017035646	0.175753618	0.054168972
2019-12-19T22:15:00	0.2754	5.006		0.718138432	0.919328362	0.017049098	0.175892403	0.054211747
2019-12-19T22:20:00	0.2756	5.006		0.718761172	0.920303882	0.017077055	0.176180825	0.054300641
2019-12-19T22:25:00	0.2744	5.004		0.714861193	0.914200161	0.016902376	0.174378694	0.053745207
2019-12-19T22:30:00	0.2737	5.003		0.712574657	0.910627759	0.016800406	0.173326691	0.053420969
2019-12-19T22:35:00	0.2748	5.003		0.716107672	0.916149537	0.016958101	0.174953605	0.053922400
2019-12-19T22:40:00	0.2743	5.003		0.714791778	0.914091641	0.016899275	0.174346707	0.053735348
2019-12-19T22:45:00	0.2744	5.004		0.715091874	0.914560822	0.016912681	0.174485015	0.053777976
2019-12-19T22:50:00	0.2731	5.004		0.710864443	0.907958762	0.016724352	0.172542054	0.053179137
2019-12-19T22:55:00	0.2741	5.004		0.714075797	0.912972571	0.016867313	0.174016963	0.053633718
2019-12-19T23:00:00	0.2740	5.006		0.713729327	0.912431204	0.016851858	0.173857516	0.053584575
2019-12-19T23:05:00	0.2741	5.006		0.714029510	0.912900241	0.016865248	0.173995657	0.053627151
2019-12-19T23:10:00	0.2747	5.005		0.715945755	0.915896237	0.016950857	0.174878868	0.053899365
2019-12-19T23:15:00	0.2745	5.002		0.715276269	0.914849150	0.016920921	0.174570027	0.053804178
2019-12-19T23:20:00	0.2753	5.001		0.717837888	0.918857681	0.017035615	0.175753297	0.054168873
2019-12-19T23:25:00	0.2759	5.001		0.719752161	0.921856962	0.017121593	0.176640318	0.054442261
2019-12-19T23:30:00	0.2761	5.002		0.720374630	0.922832936	0.017149600	0.176929264	0.054531317
2019-12-19T23:35:00	0.2763	5.001		0.720996994	0.923809084	0.017177627	0.177218413	0.054620436
2019-12-19T23:40:00	0.2762	5.001		0.720651172	0.923266637	0.017162051	0.177057714	0.054570907
2019-12-19T23:45:00	0.2751	5.002		0.717076248	0.917665235	0.017001470	0.175401034	0.054060302
2019-12-19T23:50:00	0.2748	5.004		0.716406967	0.916617808	0.016971496	0.175091798	0.053964993
2019-12-19T23:55:00	0.2743	5.005		0.714767943	0.914054381	0.016898211	0.174335725	0.053731963
2019-12-20T00:00:00	0.2740	5.005		0.713774922	0.912502441	0.016853892	0.173878494	0.053591041
2019-12-20T00:05:00	0.2751	5.008		0.717306790	0.918026126	0.017011802	0.175507622	0.054093154
2019-12-20T00:10:00	0.2759	5.012		0.719867004	0.922036999	0.017126758	0.176693608	0.054458686
2019-12-20T00:15:00	0.2763	5.014		0.721134897	0.924025424	0.017183841	0.177282517	0.054640193
2019-12-20T00:20:00	0.2768	5.018		0.722724927	0.926521040	0.017255569	0.178022524	0.054868271
2019-12-20T00:25:00	0.2772	5.021		0.723991843	0.928511101	0.017312835	0.178613328	0.055050362
2019-12-20T00:30:00	0.2763	5.023		0.721065599	0.923916708	0.017180718	0.177250302	0.054630265
2019-12-20T00:35:00	0.2763	5.024		0.721042499	0.923880470	0.017179677	0.177239565	0.054626955
2019-12-20T00:40:00	0.2759	5.022		0.719728359	0.921819649	0.017120522	0.176629274	0.054438858
2019-12-20T00:45:00	0.2752	5.020		0.717444831	0.918242237	0.017017989	0.175571459	0.054112829
2019-12-20T00:50:00	0.2748	5.019		0.716129412	0.916183548	0.016959074	0.174963641	0.053925493
2019-12-20T00:55:00	0.2737	5.020		0.712550113	0.910589436	0.016799313	0.173315416	0.053417495
2019-12-20T01:00:00	0.2740	5.023		0.713820516	0.912573679	0.016855925	0.173899474	0.053597507
2019-12-20T01:05:00	0.2736	5.026		0.712503807	0.910517137	0.016797252	0.173294147	0.053410939
2019-12-20T01:10:00	0.2734	5.029		0.711833697	0.909471088	0.016767433	0.172986510	0.053316123
2019-12-20T01:15:00	0.2742	5.029		0.714397701	0.913475649	0.016881679	0.174165174	0.053679398
2019-12-20T01:20:00	0.2756	5.030		0.718897769	0.920517906	0.017083190	0.176244123	0.054320150
2019-12-20T01:25:00	0.2774	5.030		0.724682138	0.929596003	0.017344080	0.178935673	0.055149712
2019-12-20T01:30:00	0.2784	5.030		0.727881536	0.934629783	0.017489285	0.180433731	0.055611428
2019-12-20T01:35:00	0.2791	5.026		0.730112562	0.938145286	0.017590923	0.181482308	0.055934610
2019-12-20T01:40:00	0.2802	5.025		0.733628915	0.943694992	0.017751753	0.183141566	0.056446009
2019-12-20T01:45:00	0.2795	5.024		0.731353926	0.940103236	0.017647611	0.182067149	0.056114863
2019-12-20T01:50:00	0.2792	5.023		0.730365338	0.938543869	0.017602458	0.181601316	0.055971289
2019-12-20T01:55:00	0.2786	5.024		0.728410427	0.935462780	0.017513351	0.180682016	0.055687952
2019-12-20T02:00:00	0.2773	5.027		0.724198182	0.928835350	0.017322171	0.178709649	0.055080049
2019-12-20T02:05:00	0.2774	5.028		0.724497517	0.929305802	0.017335720	0.178849431	0.055123131
2019-12-20T02:10:00	0.2775	5.030		0.725119190	0.930283109	0.017363877	0.179139922	0.055212664
2019-12-20T02:15:00	0.2765	5.032		0.721871220	0.925180837	0.017217037	0.177625001	0.054745750
2019-12-20T02:20:00	0.2760	5.035		0.720234615	0.922613375	0.017143298	0.176864248	0.054511279
2019-12-20T02:25:00	0.2759	5.037		0.719888721	0.922071047	0.017127735	0.176703687	0.054461792
2019-12-20T02:30:00	0.2746	5.037		0.715666775	0.915459860	0.016938379	0.174750136	0.053859689
2019-12-20T02:35:00	0.2757	5.039		0.719196838	0.920986552	0.017096627	0.176382752	0.054362877
2019-12-20T02:40:00	0.2763	5.042		0.721110409	0.923987006	0.017182737	0.177271132	0.054636685
2019-12-20T02:45:00	0.2758	5.040		0.719473468	0.921420106	0.017109061	0.176511031	0.054402414
2019-12-20T02:50:00	0.2766	5.035		0.722032184	0.925433480	0.017224299	0.177699916	0.054768840
2019-12-20T02:55:00	0.2760	5.037		0.720072878	0.922359773	0.017136020	0.176789161	0.054488136
2019-12-20T03:00:00	0.2756	5.040		0.718758393	0.920299527	0.017076930	0.176179537	0.054300244
2019-12-20T03:05:00	0.2759	5.043		0.719703861	0.921781246	0.017119421	0.176617908	0.054435354
2019-12-20T03:10:00	0.2763	5.045		0.720971810	0.923769578	0.017176493	0.177206708	0.054616828
2019-12-20T03:15:00	0.2762	5.049		0.720625986	0.923227135	0.017160917	0.177046013	0.054567301
2019-12-20T03:20:00	0.2761	5.051		0.720602884	0.923190901	0.017159876	0.177035281	0.054563993
2019-12-20T03:25:00	0.2768	5.053		0.722838289	0.926699051	0.017260689	0.178075346	0.054884551
2019-12-20T03:30:00	0.2774	5.052		0.724749981	0.929702651	0.017347152	0.178967370	0.055159482
2019-12-20T03:35:00	0.2779	5.051		0.726338462	0.932200864	0.017419172	0.179710385	0.055388486
2019-12-20T03:40:00	0.2778	5.051		0.725993138	0.931657582	0.017403502	0.179548719	0.055338659
2019-12-20T03:45:00	0.2773	5.053		0.724358351	0.929087071	0.017329420	0.178784436	0.055103100
2019-12-20T03:50:00	0.2781	5.056		0.726913700	0.933106090	0.017445292	0.179979858	0.055471540
2019-12-20T03:55:00	0.2784	5.060		0.727857092	0.934591290	0.017488173	0.180422261	0.055607893
2019-12-20T04:00:00	0.2782	5.067		0.727189755	0.933540608	0.017457834	0.180109254	0.055511421
2019-12-20T04:05:00	0.2766	5.072		0.721917043	0.925252758	0.017219104	0.177646326	0.054752323
2019-12-20T04:10:00	0.2774	5.073		0.724705179	0.929632221	0.017345123	0.178946437	0.055153030
2019-12-20T04:15:00	0.2777	5.076		0.725557869	0.930972943	0.017383761	0.179345056	0.055275888
2019-12-20T04:20:00	0.2784	5.073		0.728021190	0.934849712	0.017495638	0.180499273	0.055631629
2019-12-20T04:25:00	0.2776	5.068		0.725329190	0.930613319	0.017373394	0.179238106	0.055242925
2019-12-20T04:30:00	0.2777	5.065		0.725537170	0.930940390	0.017382822	0.179335374	0.055272904
2019-12-20T04:35:00	0.2774	5.064		0.724778133	0.929746906	0.017348427	0.178980524	0.055163536
2019-12-20T04:40:00	0.2777	5.064		0.725630806	0.931087656	0.017387068	0.179379175	0.055286404
2019-12-20T04:45:00	0.2773	5.060		0.724226995	0.928880631	0.017323475	0.178723101	0.055084196
2019-12-20T04:50:00	0.2765	5.058		0.721854885	0.925155201	0.017216301	0.177617399	0.054743407
2019-12-20T04:55:00	0.2760	5.061		0.720126876	0.922444440	0.017138450	0.176814228	0.054495862
2019-12-20T05:00:00	0.2752	5.065		0.717429136	0.918217664	0.017017286	0.175564200	0.054110591
2019-12-20T05:05:00	0.2746	5.066		0.715699059	0.915510354	0.016939823	0.174765030	0.053864280
2019-12-20T05:10:00	0.2751	5.070		0.717199954	0.917858879	0.017007014	0.175458224	0.054077929
2019-12-20T05:15:00	0.2754	5.069		0.718054373	0.919196709	0.017045326	0.175853491	0.054199754
2019-12-20T05:20:00	0.2757	5.062		0.719231468	0.921040823	0.017098184	0.176398808	0.054367826
2019-12-20T05:25:00	0.2775	5.053		0.724924038	0.929976283	0.017355036	0.179048706	0.055184550
2019-12-20T05:30:00	0.2785	5.042		0.728032025	0.934866776	0.017496131	0.180504359	0.055633196
2019-12-20T05:35:00	0.2783	5.033		0.727595645	0.934179610	0.017476284	0.180299597	0.055570087
2019-12-20T05:40:00	0.2785	5.027		0.728125598	0.935014148	0.017500389	0.180548282	0.055646734
2019-12-20T05:45:00	0.2779	5.021		0.726400508	0.932298489	0.017421988	0.179739440	0.055397441
2019-12-20T05:50:00	0.2770	5.013		0.723384848	0.927557464	0.017285386	0.178330136	0.054963080
2019-12-20T05:55:00	0.2762	5.005		0.720689480	0.923326721	0.017163776	0.177075511	0.054576392
2019-12-20T06:00:00	0.2747	4.996		0.716053835	0.916065313	0.016955692	0.174928753	0.053914741
2019-12-20T06:05:00	0.2741	4.989		0.713999811	0.912853833	0.016863923	0.173981987	0.053622938
2019-12-20T06:10:00	0.2729	4.983		0.710003154	0.906615582	0.016686119	0.172147615	0.053057567
2019-12-20T06:15:00	0.2715	4.978		0.705678130	0.899880475	0.016494832	0.170174146	0.052449325
2019-12-20T06:20:00	0.2736	4.973		0.712362101	0.910295900	0.016790943	0.173229068	0.053390881
2019-12-20T06:25:00	0.2747	4.972		0.715803815	0.915674208	0.016944508	0.174813365	0.053879177
2019-12-20T06:30:00	0.2742	4.969		0.714396273	0.913473417	0.016881616	0.174164517	0.053679196
2019-12-20T06:35:00	0.2733	4.970		0.711370814	0.908748751	0.016746851	0.172774178	0.053250679
2019-12-20T06:40:00	0.2729	4.974		0.709961582	0.906550767	0.016684275	0.172128588	0.053051703
2019-12-20T06:45:00	0.2736	4.980		0.712435299	0.910410178	0.016794202	0.173262683	0.053401242
2019-12-20T06:50:00	0.2738	4.983		0.712967426	0.911241083	0.016817898	0.173507158	0.053476591
2019-12-20T06:55:00	0.2749	4.983		0.716408577	0.916620327	0.016971568	0.175092542	0.053965222
2019-12-20T07:00:00	0.2767	4.982		0.722428079	0.926054957	0.017242166	0.177884245	0.054825652
2019-12-20T07:05:00	0.2775	4.983		0.724893477	0.929928237	0.017353651	0.179034423	0.055180148
2019-12-20T07:10:00	0.2785	4.983		0.728323573	0.935325969	0.017509398	0.180641230	0.055675382
2019-12-20T07:15:00	0.2779	4.984		0.726276342	0.932103125	0.017416352	0.179681297	0.055379521
2019-12-20T07:20:00	0.2783	4.989		0.727450830	0.933951608	0.017469700	0.180231674	0.055549152
2019-12-20T07:25:00	0.2778	4.993		0.726047707	0.931743426	0.017405977	0.179574261	0.055346531
2019-12-20T07:30:00	0.2767	4.996		0.722386646	0.925989910	0.017240295	0.177864949	0.054819705
2019-12-20T07:35:00	0.2783	4.997		0.727430142	0.933919037	0.017468759	0.180221971	0.055546162
2019-12-20T07:40:00	0.2772	5.001		0.724092896	0.928669894	0.017317407	0.178660496	0.055064900
2019-12-20T07:45:00	0.2776	5.004		0.725268075	0.930517216	0.017370624	0.179209529	0.055234117
2019-12-20T07:50:00	0.2759	5.007		0.719669820	0.921727885	0.017117890	0.176602114	0.054430487
2019-12-20T07:55:00	0.2762	5.007		0.720846402	0.923572857	0.017170843	0.177148425	0.054598865
2019-12-20T08:00:00	0.2757	5.006		0.719117922	0.920862882	0.017093081	0.176346166	0.054351601
2019-12-20T08:05:00	0.2750	5.011		0.716742537	0.917142928	0.016986521	0.175246810	0.054012769
2019-12-20T08:10:00	0.2742	5.017		0.714365626	0.913425517	0.016880248	0.174150403	0.053674846
2019-12-20T08:15:00	0.2756	5.023		0.718774302	0.920324453	0.017077644	0.176186908	0.054302516
2019-12-20T08:20:00	0.2777	5.033		0.725756966	0.931286084	0.017392789	0.179438199	0.055304596
2019-12-20T08:25:00	0.2776	5.040		0.725320318	0.930599368	0.017372992	0.179233958	0.055241646
2019-12-20T08:30:00	0.2775	5.045		0.724883619	0.929912738	0.017353205	0.179029816	0.055178728
2019-12-20T08:35:00	0.2774	5.048		0.724769261	0.929732958	0.017348025	0.178976378	0.055162258
2019-12-20T08:40:00	0.2795	5.054		0.731418877	0.940205718	0.017650580	0.182097777	0.056124303
2019-12-20T08:45:00	0.2806	5.060		0.734842961	0.945613590	0.017807463	0.183716308	0.056623150
2019-12-20T08:50:00	0.2832	5.065		0.743399735	0.959172941	0.018202757	0.187794484	0.057880084
2019-12-20T08:55:00	0.2821	5.073		0.739755708	0.953390612	0.018033848	0.186051882	0.057342997
2019-12-20T09:00:00	0.2827	5.080		0.741567861	0.956264667	0.018117740	0.186917381	0.057609752
2019-12-20T09:05:00	0.2821	5.089		0.739848988	0.953538482	0.018038161	0.186096380	0.057356712
2019-12-20T09:10:00	0.2808	5.098		0.735558660	0.946745241	0.017840348	0.184055578	0.056727717
2019-12-20T09:15:00	0.2791	5.109		0.729975904	0.937929823	0.017584688	0.181417986	0.055914785
2019-12-20T09:20:00	0.2771	5.121		0.723739875	0.928115200	0.017301438	0.178495744	0.055014122
2019-12-20T09:25:00	0.2749	5.135		0.716524182	0.916801222	0.016976744	0.175145936	0.053981678
2019-12-20T09:30:00	0.2747	5.150		0.715763296	0.915610830	0.016942696	0.174794669	0.053873415
2019-12-20T09:35:00	0.2733	5.160		0.711445022	0.908864540	0.016750150	0.172808209	0.053261168
2019-12-20T09:40:00	0.2724	5.160		0.708417142	0.904143887	0.016615837	0.171422531	0.052834089
2019-12-20T09:45:00	0.2749	5.157		0.716711909	0.917094995	0.016985150	0.175232658	0.054008407
2019-12-20T09:50:00	0.2768	5.156		0.722730918	0.926530448	0.017255840	0.178025315	0.054869131
2019-12-20T09:55:00	0.2773	5.158		0.724228967	0.928883730	0.017323565	0.178724022	0.055084479
2019-12-20T10:00:00	0.2770	5.161		0.723469663	0.927690695	0.017289220	0.178369692	0.054975271
2019-12-20T10:05:00	0.2775	5.167		0.724881903	0.929910040	0.017353127	0.179029014	0.055178481
2019-12-20T10:10:00	0.2770	5.174		0.723392263	0.927569111	0.017285721	0.178333594	0.054964146
2019-12-20T10:15:00	0.2786	5.180		0.728348962	0.935365960	0.017510553	0.180653152	0.055679056
2019-12-20T10:20:00	0.2792	5.189		0.730403182	0.938603547	0.017604186	0.181619137	0.055976782
2019-12-20T10:25:00	0.2802	5.197		0.733742892	0.943875059	0.017756979	0.183195483	0.056462627
2019-12-20T10:30:00	0.2806	5.202		0.734829742	0.945592694	0.017806855	0.183710045	0.056621220
2019-12-20T10:35:00	0.2814	5.207		0.737522994	0.949853527	0.017930772	0.184988471	0.057015243
2019-12-20T10:40:00	0.2813	5.214		0.737323797	0.949538172	0.017921591	0.184893754	0.056986051
2019-12-20T10:45:00	0.2816	5.221		0.738088392	0.950748821	0.017956844	0.185257454	0.057098147
2019-12-20T10:50:00	0.2821	5.225		0.739816186	0.953486482	0.018036644	0.186080732	0.057351889
2019-12-20T10:55:00	0.2826	5.231		0.741222237	0.955716289	0.018101723	0.186752143	0.057558824
2019-12-20T11:00:00	0.2837	5.237		0.744872933	0.961513931	0.018271282	0.188501447	0.058097977
2019-12-20T11:05:00	0.2824	5.242		0.740824229	0.955084925	0.018083289	0.186561956	0.057500207
2019-12-20T11:10:00	0.2815	5.246		0.737735024	0.950189238	0.017940547	0.185089318	0.057046325
2019-12-20T11:15:00	0.2801	5.251		0.733356944	0.943265365	0.017739286	0.183012943	0.056406367
2019-12-20T11:20:00	0.2808	5.258		0.735729845	0.947015983	0.017848218	0.184136777	0.056752743
2019-12-20T11:25:00	0.2794	5.268		0.731027585	0.939588381	0.017632699	0.181913303	0.056067447
2019-12-20T11:30:00	0.2790	5.277		0.729862358	0.937750814	0.017579509	0.181364551	0.055898316
2019-12-20T11:35:00	0.2777	5.285		0.725475000	0.930842617	0.017380004	0.179306295	0.055263942
2019-12-20T11:40:00	0.2773	5.292		0.724308030	0.929007984	0.017327143	0.178760938	0.055095857
2019-12-20T11:45:00	0.2759	5.297		0.719914095	0.922110827	0.017128877	0.176715462	0.054465422
2019-12-20T11:50:00	0.2743	5.301		0.714545261	0.913706288	0.016888267	0.174233136	0.053700345
2019-12-20T11:55:00	0.2742	5.308		0.714344828	0.913393011	0.016879319	0.174140826	0.053671894
2019-12-20T12:00:00	0.2738	5.314		0.713174344	0.911564246	0.016827118	0.173602271	0.053505906
2019-12-20T12:05:00	0.2735	5.318		0.712003489	0.909736098	0.016774985	0.173064432	0.053340139
2019-12-20T12:10:00	0.2728	5.323		0.709861352	0.906394504	0.016679829	0.172082721	0.053037566
2019-12-20T12:15:00	0.2726	5.330		0.709013214	0.905072569	0.016642233	0.171694849	0.052918020
2019-12-20T12:20:00	0.2722	5.338		0.707841038	0.903246609	0.016590347	0.171159553	0.052753037
2019-12-20T12:25:00	0.2715	5.343		0.705696481	0.899909018	0.016495642	0.170182494	0.052451897
2019-12-20T12:30:00	0.2708	5.347		0.703226426	0.896069810	0.016386918	0.169060810	0.052106184
2019-12-20T12:35:00	0.2710	5.353		0.703998090	0.897268638	0.016420843	0.169410811	0.052214057
2019-12-20T12:40:00	0.2715	5.358		0.705417789	0.899475582	0.016483355	0.170055740	0.052412831
2019-12-20T12:45:00	0.2712	5.368		0.704568627	0.898155337	0.016445950	0.169669834	0.052293891
2019-12-20T12:50:00	0.2702	5.379		0.701449033	0.893310489	0.016308918	0.168256103	0.051858165
2019-12-20T12:55:00	0.2701	5.386		0.700923435	0.892495048	0.016285890	0.168018530	0.051784943
2019-12-20T13:00:00	0.2679	5.390		0.693901770	0.881624258	0.015979904	0.164861725	0.050811985
2019-12-20T13:05:00	0.2681	5.389		0.694675395	0.882819873	0.016013466	0.165207981	0.050918704
2019-12-20T13:10:00	0.2678	5.389		0.693498638	0.881001436	0.015962430	0.164681445	0.050756421
2019-12-20T13:15:00	0.2673	5.386		0.691996261	0.878681564	0.015897396	0.164010502	0.050549630
2019-12-20T13:20:00	0.2672	5.383		0.691469307	0.877868340	0.015874619	0.163775514	0.050477204
2019-12-20T13:25:00	0.2678	5.380		0.693544153	0.881071747	0.015964402	0.164701794	0.050762693
2019-12-20T13:30:00	0.2657	5.377		0.686834055	0.870725312	0.015675005	0.161716138	0.049842484
2019-12-20T13:35:00	0.2644	5.373		0.682395115	0.863902208	0.015485093	0.159756855	0.049238614
2019-12-20T13:40:00	0.2641	5.374		0.681540602	0.862590687	0.015448675	0.159381129	0.049122812
2019-12-20T13:45:00	0.2634	5.375		0.679380598	0.859278283	0.015356818	0.158433460	0.048830731
2019-12-20T13:50:00	0.2645	5.375		0.682766861	0.864472967	0.015500951	0.159920456	0.049289038
2019-12-20T13:55:00	0.2650	5.372		0.684520740	0.867167388	0.015575882	0.160693505	0.049527299
2019-12-20T14:00:00	0.2663	5.370		0.688553424	0.873372730	0.015748893	0.162478425	0.050077429
2019-12-20T14:05:00	0.2669	5.368		0.690629922	0.876573450	0.015838372	0.163401568	0.050361950
2019-12-20T14:10:00	0.2675	5.368		0.692705243	0.879776084	0.015928068	0.164326945	0.050647160
2019-12-20T14:15:00	0.2685	5.370		0.695754288	0.884488135	0.016060334	0.165691508	0.051067732
2019-12-20T14:20:00	0.2680	5.369		0.694252836	0.882166755	0.015995130	0.165018806	0.050860399
2019-12-20T14:25:00	0.2686	5.365		0.696001220	0.884870100	0.016071071	0.165802281	0.051101873
2019-12-20T14:30:00	0.2682	5.357		0.694824888	0.883050969	0.016019956	0.165274935	0.050939340
2019-12-20T14:35:00	0.2692	5.351		0.698196894	0.888268797	0.016166710	0.166788970	0.051405980
2019-12-20T14:40:00	0.2701	5.341		0.700916930	0.892484958	0.016285606	0.168015591	0.051784037
2019-12-20T14:45:00	0.2705	5.331		0.702337818	0.894689945	0.016347897	0.168658243	0.051982108
2019-12-20T14:50:00	0.2716	5.324		0.706026971	0.900423102	0.016510218	0.170332872	0.052498245
2019-12-20T14:55:00	0.2719	5.321		0.706798049	0.901622897	0.016544252	0.170683997	0.052606466
2019-12-20T15:00:00	0.2705	5.317		0.702383224	0.894760435	0.016349890	0.168678801	0.051988445
2019-12-20T15:05:00	0.2702	5.313		0.701208934	0.892937958	0.016298397	0.168147555	0.051824710
2019-12-20T15:10:00	0.2700	5.309		0.700683302	0.892122573	0.016275375	0.167910048	0.051751508
2019-12-20T15:15:00	0.2684	5.309		0.695611311	0.884266994	0.016054119	0.165627387	0.051047969
2019-12-20T15:20:00	0.2690	5.305		0.697359048	0.886971396	0.016130180	0.166412094	0.051289824
2019-12-20T15:25:00	0.2686	5.300		0.696183151	0.885151554	0.016078985	0.165883919	0.051127035
2019-12-20T15:30:00	0.2691	5.296		0.697930616	0.887856401	0.016155096	0.166669146	0.051369049
2019-12-20T15:35:00	0.2680	5.291		0.694155307	0.882016034	0.015990899	0.164975160	0.050846946
2019-12-20T15:40:00	0.2678	5.285		0.693628663	0.881202304	0.015968065	0.164739581	0.050774339
2019-12-20T15:45:00	0.2670	5.281		0.690825129	0.876874534	0.015846798	0.163488492	0.050388741
2019-12-20T15:50:00	0.2674	5.275		0.692249930	0.879073125	0.015908367	0.164123686	0.050584514
2019-12-20T15:55:00	0.2663	5.271		0.688794316	0.873743850	0.015759260	0.162585376	0.050110392
2019-12-20T16:00:00	0.2663	5.271		0.688592474	0.873432887	0.015750573	0.162495760	0.050082771
2019-12-20T16:05:00	0.2650	5.268		0.684502024	0.867138621	0.015575082	0.160685245	0.049524753
2019-12-20T16:10:00	0.2648	5.267		0.683668423	0.865857673	0.015539445	0.160317588	0.049411438
2019-12-20T16:15:00	0.2636	5.270		0.679898800	0.860072589	0.015378829	0.158660543	0.048900720
2019-12-20T16:20:00	0.2626	5.270		0.676451935	0.854793548	0.015232733	0.157153302	0.048436174
2019-12-20T16:25:00	0.2625	5.269		0.676269870	0.854514991	0.015225037	0.157073899	0.048411701
2019-12-20T16:30:00	0.2621	5.268		0.675107634	0.852737460	0.015175954	0.156567518	0.048255630
2019-12-20T16:35:00	0.2613	5.263		0.672310317	0.848463987	0.015058160	0.155352260	0.047881075
2019-12-20T16:40:00	0.2599	5.258		0.667874139	0.841700608	0.014872342	0.153435212	0.047290222
2019-12-20T16:45:00	0.2599	5.257		0.667691643	0.841422738	0.014864724	0.153356616	0.047265998
2019-12-20T16:50:00	0.2583	5.256		0.662594086	0.833672673	0.014652754	0.151169757	0.046591987
2019-12-20T16:55:00	0.2581	5.257		0.661755447	0.832399782	0.014618033	0.150811556	0.046481586
2019-12-20T17:00:00	0.2563	5.257		0.655992598	0.823669175	0.014380614	0.148362139	0.045726652
2019-12-20T17:05:00	0.2564	5.261		0.656466460	0.824385994	0.014400059	0.148562755	0.045788484
2019-12-20T17:10:00	0.2564	5.266		0.656283388	0.824109036	0.014392545	0.148485232	0.045764591
2019-12-20T17:15:00	0.2558	5.272		0.654457526	0.821348358	0.014317714	0.147713215	0.045526647
2019-12-20T17:20:00	0.2551	5.275		0.651973086	0.817596491	0.014216219	0.146666111	0.045203920
2019-12-20T17:25:00	0.2540	5.279		0.648499545	0.812359764	0.014074949	0.145208654	0.044754717
2019-12-20T17:30:00	0.2537	5.284		0.647328360	0.810596398	0.014027482	0.144718951	0.044603786
2019-12-20T17:35:00	0.2535	5.288		0.646815512	0.809824607	0.014006724	0.144504786	0.044537779
2019-12-20T17:40:00	0.2536	5.293		0.646961280	0.810043953	0.014012622	0.144565642	0.044556535
2019-12-20T17:45:00	0.2523	5.297		0.642823572	0.803824756	0.013845688	0.142843413	0.044025727
2019-12-20T17:50:00	0.2522	5.302		0.642639807	0.803548885	0.013838298	0.142767174	0.044002230
2019-12-20T17:55:00	0.2523	5.310		0.642785744	0.803767966	0.013844167	0.142827718	0.044020890
2019-12-20T18:00:00	0.2521	5.314		0.642272247	0.802997185	0.013823524	0.142614748	0.043955250
2019-12-20T18:05:00	0.2522	5.322		0.642418200	0.803216244	0.013829390	0.142675264	0.043973902
2019-12-20T18:10:00	0.2520	5.328		0.641904651	0.802445544	0.013808756	0.142462391	0.043908293
2019-12-20T18:15:00	0.2516	5.337		0.640401415	0.800190881	0.013748451	0.141840232	0.043716537
2019-12-20T18:20:00	0.2531	5.346		0.645492584	0.807834756	0.013953249	0.143953099	0.044367743
2019-12-20T18:25:00	0.2530	5.354		0.644979473	0.807063373	0.013932537	0.143739417	0.044301884
2019-12-20T18:30:00	0.2530	5.364		0.645125316	0.807282603	0.013938423	0.143800136	0.044320598
2019-12-20T18:35:00	0.2522	5.374		0.642634429	0.803540812	0.013838082	0.142764944	0.044001542
2019-12-20T18:40:00	0.2534	5.382		0.646405217	0.809207313	0.013990128	0.144333568	0.044485007
2019-12-20T18:45:00	0.2538	5.391		0.647868171	0.811409006	0.014049350	0.144944553	0.044673319
2019-12-20T18:50:00	0.2531	5.400		0.645379183	0.807664257	0.013948670	0.143905859	0.044353183
2019-12-20T18:55:00	0.2522	5.409		0.642558769	0.803427239	0.013835040	0.142733561	0.043991870
2019-12-20T19:00:00	0.2513	5.419		0.639406147	0.798699161	0.013708599	0.141429089	0.043589819
2019-12-20T19:05:00	0.2514	5.425		0.639882196	0.799412563	0.013727653	0.141625666	0.043650406
2019-12-20T19:10:00	0.2513	5.431		0.639368283	0.798642426	0.013707084	0.141413460	0.043585002
2019-12-20T19:15:00	0.2520	5.437		0.641823596	0.802323924	0.013805501	0.142428808	0.043897942
2019-12-20T19:20:00	0.2536	5.439		0.647242058	0.810466505	0.014023988	0.144682899	0.044592675
2019-12-20T19:25:00	0.2532	5.442		0.645741052	0.808208370	0.013963284	0.144056631	0.044399653
2019-12-20T19:30:00	0.2531	5.449		0.645557436	0.807932267	0.013955868	0.143980118	0.044376071
2019-12-20T19:35:00	0.2524	5.448		0.643066848	0.804190010	0.013855474	0.142944374	0.044056844
2019-12-20T19:40:00	0.2520	5.444		0.641893893	0.802429403	0.013808324	0.142457934	0.043906919
2019-12-20T19:45:00	0.2524	5.438		0.643029023	0.804133216	0.013853952	0.142928674	0.044052005
2019-12-20T19:50:00	0.2533	5.432		0.646140678	0.808809385	0.013979433	0.144223229	0.044451000
2019-12-20T19:55:00	0.2523	5.426		0.642661503	0.803581455	0.013839171	0.142776174	0.044005004
2019-12-20T20:00:00	0.2528	5.419		0.644455540	0.806275952	0.013911405	0.143521399	0.044234689
2019-12-20T20:05:00	0.2528	5.410		0.644601404	0.806495148	0.013917286	0.143582078	0.044253391
2019-12-20T20:10:00	0.2515	5.404		0.640131052	0.799785574	0.013737619	0.141728484	0.043682095
2019-12-20T20:15:00	0.2511	5.399		0.638957138	0.798026455	0.013690640	0.141243808	0.043532713
2019-12-20T20:20:00	0.2523	5.393		0.642731784	0.803686959	0.013841997	0.142805330	0.044013990
2019-12-20T20:25:00	0.2519	5.388		0.641558720	0.801926521	0.013794866	0.142319092	0.043864126
2019-12-20T20:30:00	0.2519	5.389		0.641374890	0.801650750	0.013787488	0.142242972	0.043840665
2019-12-20T20:35:00	0.2512	5.394		0.639211442	0.798407432	0.013700810	0.141348730	0.043565051
2019-12-20T20:40:00	0.2511	5.399		0.638697433	0.797637444	0.013680258	0.141136700	0.043499702
2019-12-20T20:45:00	0.2508	5.405		0.637853216	0.796373288	0.013646538	0.140788818	0.043392481
2019-12-20T20:50:00	0.2499	5.412		0.635026883	0.792145451	0.013533963	0.139627400	0.043034521
2019-12-20T20:55:00	0.2535	5.418		0.646718454	0.809678569	0.014002797	0.144464274	0.044525292
2019-12-20T21:00:00	0.2540	5.426		0.648510469	0.812376217	0.014075392	0.145213226	0.044756127
2019-12-20T21:05:00	0.2531	5.437		0.645363063	0.807640020	0.013948019	0.143899145	0.044351114
2019-12-20T21:10:00	0.2518	5.444		0.641223515	0.801423689	0.013781414	0.142180307	0.043821351
2019-12-20T21:15:00	0.2520	5.452		0.641699322	0.802137465	0.013800511	0.142377326	0.043882075
2019-12-20T21:20:00	0.2526	5.458		0.643823456	0.805326301	0.013885933	0.143258607	0.044153694
2019-12-20T21:25:00	0.2514	5.467		0.639682134	0.799112728	0.013719644	0.141543036	0.043624938
2019-12-20T21:30:00	0.2504	5.476		0.636526984	0.794388569	0.013593653	0.140243210	0.043224319
2019-12-20T21:35:00	0.2498	5.484		0.634691067	0.791643564	0.013520619	0.139489737	0.042992092
2019-12-20T21:40:00	0.2492	5.491		0.632523582	0.788406487	0.013434659	0.138602900	0.042718760
2019-12-20T21:45:00	0.2503	5.500		0.636305000	0.794056513	0.013584811	0.140151994	0.043196206
2019-12-20T21:50:00	0.2503	5.506		0.636120900	0.793781159	0.013577481	0.140076369	0.043172897
2019-12-20T21:55:00	0.2503	5.513		0.636267103	0.793999830	0.013583302	0.140136425	0.043191407
2019-12-20T22:00:00	0.2502	5.518		0.635752673	0.793230495	0.013562825	0.139925170	0.043126296
2019-12-20T22:05:00	0.2494	5.523		0.633307989	0.789577517	0.013465735	0.138923504	0.042817573
2019-12-20T22:10:00	0.2482	5.528		0.629207276	0.783461378	0.013303688	0.137251699	0.042302307
2019-12-20T22:15:00	0.2465	5.533		0.623776294	0.775383056	0.013090639	0.135053713	0.041624866
2019-12-20T22:20:00	0.2455	5.537		0.620328226	0.770267147	0.012956301	0.133667774	0.041197706
2019-12-20T22:25:00	0.2446	5.541		0.617208898	0.765647626	0.012835389	0.132420342	0.040813235
2019-12-20T22:30:00	0.2447	5.543		0.617740859	0.766434846	0.012855968	0.132632648	0.040878670
2019-12-20T22:35:00	0.2475	5.545		0.626893374	0.780016514	0.013212700	0.136312985	0.042012986
2019-12-20T22:40:00	0.2482	5.546		0.629410023	0.783763436	0.013311676	0.137334109	0.042327706
2019-12-20T22:45:00	0.2473	5.548		0.626298627	0.779131804	0.013189365	0.136072245	0.041938788
2019-12-20T22:50:00	0.2484	5.549		0.629808511	0.784357218	0.013327383	0.137496157	0.042377651
2019-12-20T22:55:00	0.2465	5.550		0.623715589	0.775292901	0.013088268	0.135029249	0.041617326
2019-12-20T23:00:00	0.2466	5.550		0.623915157	0.775589297	0.013096065	0.135109683	0.041642117
2019-12-20T23:05:00	0.2475	5.548		0.627096252	0.780318371	0.013220664	0.136395156	0.042038312
2019-12-20T23:10:00	0.2510	5.547		0.638536225	0.797395999	0.013673816	0.141070236	0.043479217
2019-12-20T23:15:00	0.2502	5.546		0.635763112	0.793246104	0.013563241	0.139929455	0.043127617
2019-12-20T23:20:00	0.2497	5.544		0.634310004	0.791074168	0.013505486	0.139333610	0.042943972
2019-12-20T23:25:00	0.2502	5.541		0.635830572	0.793346979	0.013565925	0.139957149	0.043136153
2019-12-20T23:30:00	0.2493	5.540		0.633055364	0.789200319	0.013455723	0.138820209	0.042785737
2019-12-20T23:35:00	0.2483	5.541		0.629616244	0.784070706	0.013319804	0.137417958	0.042353549
2019-12-20T23:40:00	0.2487	5.543		0.630808020	0.785847165	0.013366823	0.137903051	0.042503060
2019-12-20T23:45:00	0.2487	5.548		0.631007192	0.786144167	0.013374690	0.137984207	0.042528073
2019-12-20T23:50:00	0.2494	5.551		0.633190384	0.789401913	0.013461073	0.138875412	0.042802751
2019-12-20T23:55:00	0.2502	5.551		0.636032944	0.793649614	0.013573980	0.140040245	0.043161764
2019-12-21T00:00:00	0.2506	5.553		0.637222588	0.795429360	0.013621378	0.140529242	0.043312477
2019-12-21T00:05:00	0.2512	5.556		0.639071975	0.798198488	0.013695232	0.141291183	0.043547315
2019-12-21T00:10:00	0.2498	5.558		0.634647427	0.791578350	0.013518886	0.139471852	0.042986579
2019-12-21T00:15:00	0.2502	5.561		0.635837531	0.793357385	0.013566202	0.139960006	0.043137033
2019-12-21T00:20:00	0.2508	5.563		0.638017783	0.796619667	0.013653108	0.140856597	0.043413371
2019-12-21T00:25:00	0.2513	5.565		0.639536780	0.798894907	0.013713826	0.141483018	0.043606440
2019-12-21T00:30:00	0.2513	5.569		0.639405475	0.798698153	0.013708572	0.141428812	0.043589733
2019-12-21T00:35:00	0.2518	5.571		0.641253738	0.801469022	0.013782627	0.142192817	0.043825207
2019-12-21T00:40:00	0.2521	5.574		0.642111909	0.802756557	0.013817082	0.142548283	0.043934765
2019-12-21T00:45:00	0.2520	5.577		0.641980698	0.802559657	0.013811811	0.142493904	0.043918005
2019-12-21T00:50:00	0.2527	5.579		0.644157224	0.805827716	0.013899380	0.143397342	0.044196453
2019-12-21T00:55:00	0.2531	5.582		0.645344181	0.807611632	0.013947257	0.143891280	0.044348690
2019-12-21T01:00:00	0.2531	5.582		0.645542547	0.807909881	0.013955267	0.143973914	0.044374159
2019-12-21T01:05:00	0.2535	5.582		0.646729047	0.809694509	0.014003225	0.144468695	0.044526655
2019-12-21T01:10:00	0.2537	5.584		0.647585914	0.810984076	0.014037914	0.144826566	0.044636954
2019-12-21T01:15:00	0.2535	5.584		0.646796302	0.809795703	0.014005946	0.144496768	0.044535307
2019-12-21T01:20:00	0.2536	5.586		0.646994588	0.810094076	0.014013970	0.144579549	0.044560821
2019-12-21T01:25:00	0.2542	5.586		0.649168085	0.813366858	0.014102082	0.145488575	0.044840992
2019-12-21T01:30:00	0.2543	5.588		0.649366241	0.813665435	0.014110129	0.145571598	0.044866580
2019-12-21T01:35:00	0.2544	5.589		0.649893448	0.814459982	0.014131551	0.145792607	0.044934697
2019-12-21T01:40:00	0.2539	5.591		0.648116849	0.811783438	0.014059430	0.145048544	0.044705370
2019-12-21T01:45:00	0.2547	5.592		0.650618665	0.815553335	0.014161047	0.146096908	0.045028486
2019-12-21T01:50:00	0.2548	5.592		0.651145689	0.816348169	0.014182502	0.146318256	0.045096707
2019-12-21T01:55:00	0.2558	5.594		0.654302755	0.821114477	0.014311380	0.147647870	0.045506508
2019-12-21T02:00:00	0.2563	5.595		0.655814898	0.823400414	0.014373325	0.148286943	0.045703476
2019-12-21T02:05:00	0.2575	5.597		0.659952417	0.829665171	0.014543533	0.150042947	0.046244694
2019-12-21T02:10:00	0.2571	5.599		0.658509040	0.827478043	0.014484037	0.149429136	0.046055511
2019-12-21T02:15:00	0.2573	5.602		0.659363114	0.828771994	0.014519226	0.149792181	0.046167405
2019-12-21T02:20:00	0.2575	5.605		0.659888863	0.829568832	0.014540910	0.150015893	0.046236355
2019-12-21T02:25:00	0.2579	5.605		0.661070657	0.831360850	0.014589715	0.150519397	0.046391540
2019-12-21T02:30:00	0.2589	5.606		0.664546802	0.836638850	0.014733764	0.152005530	0.046849581
2019-12-21T02:35:00	0.2599	5.607		0.667692199	0.841423585	0.014864747	0.153356855	0.047266072
2019-12-21T02:40:00	0.2605	5.607		0.669853295	0.844715934	0.014955093	0.154288941	0.047553350
2019-12-21T02:45:00	0.2603	5.608		0.669068531	0.843519912	0.014922252	0.153950128	0.047448925
2019-12-21T02:50:00	0.2606	5.605		0.669920121	0.844817804	0.014957892	0.154317810	0.047562248
2019-12-21T02:55:00	0.2613	5.605		0.672406913	0.848611445	0.015062220	0.155394142	0.047893984
2019-12-21T03:00:00	0.2609	5.603		0.670968487	0.846416455	0.015001827	0.154771084	0.047701951
2019-12-21T03:05:00	0.2607	5.601		0.670511156	0.845718957	0.014982653	0.154573266	0.047640982
2019-12-21T03:10:00	0.2614	5.599		0.672670576	0.849013979	0.015073303	0.155508491	0.047929227
2019-12-21T03:15:00	0.2618	5.598		0.673848214	0.850812605	0.015122860	0.156019764	0.048086806
2019-12-21T03:20:00	0.2614	5.597		0.672737350	0.849115931	0.015076111	0.155537457	0.047938155
2019-12-21T03:25:00	0.2617	5.594		0.673588080	0.850415196	0.015111906	0.155906750	0.048051975
2019-12-21T03:30:00	0.2619	5.592		0.674438611	0.851714778	0.015147738	0.156276417	0.048165909
2019-12-21T03:35:00	0.2619	5.589		0.674308568	0.851516036	0.015142256	0.156219866	0.048148480
2019-12-21T03:40:00	0.2620	5.587		0.674505352	0.851816783	0.015150551	0.156305444	0.048174856
2019-12-21T03:45:00	0.2612	5.585		0.672086781	0.848122781	0.015048768	0.155255363	0.047851211
2019-12-21T03:50:00	0.2612	5.582		0.671956653	0.847924173	0.015043302	0.155198970	0.047833830
2019-12-21T03:55:00	0.2614	5.579		0.672807566	0.849223145	0.015079064	0.155567920	0.047947544
2019-12-21T04:00:00	0.2610	5.576		0.671369298	0.847027902	0.015018642	0.154944565	0.047755420
2019-12-21T04:05:00	0.2605	5.573		0.669875348	0.844749551	0.014956017	0.154298467	0.047556286
2019-12-21T04:10:00	0.2609	5.569		0.670998796	0.846462687	0.015003098	0.154784199	0.047705993
2019-12-21T04:15:00	0.2586	5.566		0.663609077	0.835214038	0.014694832	0.151603877	0.046725787
2019-12-21T04:20:00	0.2589	5.562		0.664406753	0.836426006	0.014727946	0.151945508	0.046831081
2019-12-21T04:25:00	0.2590	5.558		0.664876581	0.837140108	0.014747469	0.152146916	0.046893157
2019-12-21T04:30:00	0.2571	5.554		0.658459293	0.827402693	0.014481988	0.149408004	0.046048998
2019-12-21T04:35:00	0.2571	5.548		0.658601654	0.827618327	0.014487850	0.149468482	0.046067638
2019-12-21T04:40:00	0.2571	5.544		0.658744010	0.827833969	0.014493713	0.149528970	0.046086281
2019-12-21T04:45:00	0.2571	5.539		0.658558117	0.827552380	0.014486058	0.149449985	0.046061937
2019-12-21T04:50:00	0.2574	5.533		0.659685077	0.829259941	0.014532503	0.149929159	0.046209623
2019-12-21T04:55:00	0.2568	5.528		0.657529659	0.825995015	0.014443739	0.149013393	0.045927375
2019-12-21T05:00:00	0.2577	5.522		0.660625899	0.830686300	0.014571338	0.150329804	0.046333106
2019-12-21T05:05:00	0.2578	5.515		0.660768176	0.830902068	0.014577215	0.150390440	0.046351794
2019-12-21T05:10:00	0.2587	5.507		0.663861648	0.835597729	0.014705313	0.151712006	0.046759114
2019-12-21T05:15:00	0.2586	5.499		0.663676018	0.835315725	0.014697610	0.151632531	0.046734619
2019-12-21T05:20:00	0.2590	5.489		0.664801386	0.837025805	0.014744343	0.152114671	0.046883219
2019-12-21T05:25:00	0.2585	5.480		0.663304729	0.834751761	0.014682208	0.151473636	0.046685646
2019-12-21T05:30:00	0.2596	5.472		0.666723571	0.839949217	0.014824346	0.152940045	0.047137607
2019-12-21T05:35:00	0.2602	5.466		0.668830114	0.843156656	0.014912283	0.153847271	0.047417223
2019-12-21T05:40:00	0.2599	5.460		0.667662568	0.841378470	0.014863510	0.153344096	0.047262140
2019-12-21T05:45:00	0.2592	5.454		0.665511893	0.838106031	0.014773889	0.152419486	0.046977166
2019-12-21T05:50:00	0.2594	5.446		0.666309150	0.839318664	0.014807078	0.152761897	0.047082700
2019-12-21T05:55:00	0.2595	5.436		0.666451203	0.839534786	0.014812996	0.152822950	0.047101517
2019-12-21T06:00:00	0.2596	5.424		0.666920767	0.840249308	0.014832566	0.153024852	0.047163746
2019-12-21T06:05:00	0.2594	5.407		0.666080198	0.838970371	0.014797543	0.152663524	0.047052381
2019-12-21T06:10:00	0.2601	5.394		0.668514487	0.842675837	0.014899090	0.153711161	0.047375273
2019-12-21T06:15:00	0.2597	5.384		0.667019361	0.840399360	0.014836677	0.153067264	0.047176817
2019-12-21T06:20:00	0.2590	5.376		0.664868305	0.837127527	0.014747125	0.152143366	0.046892063
2019-12-21T06:25:00	0.2593	5.365		0.665665703	0.838339935	0.014780289	0.152485514	0.046997516
2019-12-21T06:30:00	0.2600	5.355		0.668100270	0.842044959	0.014881785	0.153532630	0.047320248
2019-12-21T06:35:00	0.2605	5.339		0.669878795	0.844754806	0.014956161	0.154299956	0.047556745
2019-12-21T06:40:00	0.2596	5.319		0.666747016	0.839984893	0.014825323	0.152950127	0.047140714
2019-12-21T06:45:00	0.2579	5.298		0.661317201	0.831734849	0.014599907	0.150624548	0.046423949
2019-12-21T06:50:00	0.2579	5.277		0.661131440	0.831453051	0.014592227	0.150545317	0.046399529
2019-12-21T06:55:00	0.2588	5.255		0.664224603	0.836149204	0.014720381	0.151867461	0.046807026
2019-12-21T07:00:00	0.2573	5.232		0.659119225	0.828402430	0.014509173	0.149688463	0.046135438
2019-12-21T07:05:00	0.2570	5.209		0.658276843	0.827126365	0.014474477	0.149330514	0.046025115
2019-12-21T07:10:00	0.2573	5.187		0.659403891	0.828833787	0.014520907	0.149809526	0.046172751
2019-12-21T07:15:00	0.2580	5.162		0.661514691	0.832034473	0.014608074	0.150708806	0.046449918
2019-12-21T07:20:00	0.2574	5.141		0.659688534	0.829265180	0.014532646	0.149930630	0.046210076
2019-12-21T07:25:00	0.2560	5.122		0.654905351	0.822025199	0.014336049	0.147902371	0.045584947
2019-12-21T07:30:00	0.2568	5.102		0.657675516	0.826215827	0.014449737	0.149075270	0.045946446
2019-12-21T07:35:00	0.2579	5.084		0.661099674	0.831404865	0.014590914	0.150531770	0.046395354
2019-12-21T07:40:00	0.2579	5.064		0.661241932	0.831620663	0.014596795	0.150592441	0.046414053
2019-12-21T07:45:00	0.2595	5.042		0.666628419	0.839804428	0.014820380	0.152899133	0.047124998
2019-12-21T07:50:00	0.2606	5.021		0.670044132	0.845006859	0.014963085	0.154371391	0.047578762
2019-12-21T07:55:00	0.2605	5.000		0.669858818	0.844724352	0.014955325	0.154291326	0.047554085
2019-12-21T08:00:00	0.2601	4.982		0.668364246	0.842446993	0.014892812	0.153646393	0.047355311
2019-12-21T08:05:00	0.2601	4.965		0.668506219	0.842663242	0.014898744	0.153707596	0.047374174
2019-12-21T08:10:00	0.2608	4.949		0.670611728	0.845872328	0.014986868	0.154616757	0.047654386
2019-12-21T08:15:00	0.2606	4.932		0.670099243	0.845090880	0.014965394	0.154395206	0.047586102
2019-12-21T08:20:00	0.2627	4.914		0.676779304	0.855294489	0.015246577	0.157296128	0.048480194
2019-12-21T08:25:00	0.2641	4.895		0.681490504	0.862513815	0.015446541	0.159359116	0.049116027
2019-12-21T08:30:00	0.2643	4.878		0.682284267	0.863732041	0.015480367	0.159708089	0.049223584
2019-12-21T08:35:00	0.2632	4.863		0.678510292	0.857944790	0.015319889	0.158052467	0.048713305
2019-12-21T08:40:00	0.2631	4.853		0.678325408	0.857661593	0.015312050	0.157971593	0.048688379
2019-12-21T08:45:00	0.2640	4.843		0.681077762	0.861880575	0.015428968	0.159177815	0.049060148
2019-12-21T08:50:00	0.2654	4.827		0.685783418	0.869108838	0.015629945	0.161251265	0.049699206
2019-12-21T08:55:00	0.2667	4.815		0.689832183	0.875343371	0.015803965	0.163046593	0.050252543
2019-12-21T09:00:00	0.2668	4.807		0.690298744	0.876062721	0.015824083	0.163254152	0.050316515
2019-12-21T09:05:00	0.2652	4.799		0.685229843	0.868257511	0.015606231	0.161006611	0.049623801
2019-12-21T09:10:00	0.2637	4.794		0.680153901	0.860463695	0.015389670	0.158772394	0.048935194
2019-12-21T09:15:00	0.2629	4.791		0.677684085	0.856679471	0.015284874	0.157691226	0.048601967
2019-12-21T09:20:00	0.2614	4.789		0.672597616	0.848902585	0.015070236	0.155476844	0.047919473
2019-12-21T09:25:00	0.2603	4.792		0.669140895	0.843630176	0.014925279	0.153981353	0.047458549
2019-12-21T09:30:00	0.2601	4.799		0.668300840	0.842350421	0.014890163	0.153619064	0.047346887
2019-12-21T09:35:00	0.2588	4.800		0.664184585	0.836088396	0.014718720	0.151850317	0.046801742
2019-12-21T09:40:00	0.2577	4.790		0.660719834	0.830828754	0.014575218	0.150369836	0.046345444
2019-12-21T09:45:00	0.2567	4.774		0.657251763	0.825574362	0.014432315	0.148895538	0.045891051
2019-12-21T09:50:00	0.2555	4.760		0.653451654	0.819828709	0.014276576	0.147288806	0.045395841
2019-12-21T09:55:00	0.2558	4.748		0.654251572	0.821037137	0.014309286	0.147626264	0.045499848
2019-12-21T10:00:00	0.2556	4.739		0.653736766	0.820259363	0.014288230	0.147409039	0.045432898
2019-12-21T10:05:00	0.2543	4.733		0.649402807	0.813720536	0.014111614	0.145586921	0.044871303
2019-12-21T10:10:00	0.2548	4.729		0.650989546	0.816112657	0.014176143	0.146252658	0.045076490
2019-12-21T10:15:00	0.2564	4.727		0.656190603	0.823968677	0.014388737	0.148445950	0.045752483
2019-12-21T10:20:00	0.2571	4.726		0.658759216	0.827857003	0.014494340	0.149535432	0.046088272
2019-12-21T10:25:00	0.2586	4.725		0.663621329	0.835232649	0.014695341	0.151609122	0.046727404
2019-12-21T10:30:00	0.2597	4.726		0.667167247	0.840624445	0.014842844	0.153130890	0.047196427
2019-12-21T10:35:00	0.2585	4.730		0.663177219	0.834558110	0.014676921	0.151419088	0.046668834
2019-12-21T10:40:00	0.2573	4.734		0.659182791	0.828498747	0.014511793	0.149715492	0.046143769
2019-12-21T10:45:00	0.2572	4.738		0.658796356	0.827913267	0.014495870	0.149551215	0.046093137
2019-12-21T10:50:00	0.2571	4.742		0.658738136	0.827825070	0.014493471	0.149526474	0.046085511
2019-12-21T10:55:00	0.2565	4.747		0.656709895	0.824754319	0.014410054	0.148665872	0.045820266
2019-12-21T11:00:00	0.2565	4.753		0.656651642	0.824666175	0.014407662	0.148641193	0.045812659
2019-12-21T11:05:00	0.2583	4.762		0.662500423	0.833530480	0.014648874	0.151129729	0.046579650
2019-12-21T11:10:00	0.2596	4.773		0.666702538	0.839917211	0.014823469	0.152931001	0.047134820
2019-12-21T11:15:00	0.2593	4.786		0.665661733	0.838333897	0.014780123	0.152483809	0.046996991
2019-12-21T11:20:00	0.2608	4.795		0.670841765	0.846223167	0.014996513	0.154716258	0.047685053
2019-12-21T11:25:00	0.2602	4.802		0.668820290	0.843141688	0.014911872	0.153843033	0.047415917
2019-12-21T11:30:00	0.2621	4.811		0.674976282	0.852536642	0.015170412	0.156510342	0.048238008
2019-12-21T11:35:00	0.2628	4.825		0.677205072	0.855946140	0.015264592	0.157481987	0.048537478
2019-12-21T11:40:00	0.2627	4.845		0.676820551	0.855357613	0.015248322	0.157314128	0.048485742
2019-12-21T11:45:00	0.2628	4.864		0.677415792	0.856268712	0.015273513	0.157574014	0.048565841
2019-12-21T11:50:00	0.2635	4.881		0.679643090	0.859680605	0.015367965	0.158548466	0.048866177
2019-12-21T11:55:00	0.2638	4.900		0.680564161	0.861092800	0.015407115	0.158952362	0.048990662
2019-12-21T12:00:00	0.2634	4.917		0.679200934	0.859002946	0.015349191	0.158354769	0.048806478
2019-12-21T12:05:00	0.2630	4.934		0.677837197	0.856913913	0.015291360	0.157758138	0.048622590
2019-12-21T12:10:00	0.2636	4.951		0.679737903	0.859825938	0.015371993	0.158590017	0.048878983
2019-12-21T12:15:00	0.2642	4.964		0.681963783	0.863240114	0.015466705	0.159567142	0.049180143
2019-12-21T12:20:00	0.2643	4.981		0.682232074	0.863651921	0.015478141	0.159685131	0.049216508
2019-12-21T12:25:00	0.2643	4.997		0.682174228	0.863563128	0.015475675	0.159659687	0.049208666
2019-12-21T12:30:00	0.2634	5.013		0.679179972	0.858970825	0.015348301	0.158345590	0.048803649
2019-12-21T12:35:00	0.2636	5.028		0.679774829	0.859882543	0.015373562	0.158606201	0.048883972
2019-12-21T12:40:00	0.2634	5.042		0.679064184	0.858793394	0.015343386	0.158294888	0.048788022
2019-12-21T12:45:00	0.2643	5.055		0.682268975	0.863708567	0.015479715	0.159701362	0.049221511
2019-12-21T12:50:00	0.2642	5.066		0.681884987	0.863119180	0.015463347	0.159532498	0.049169465
2019-12-21T12:55:00	0.2639	5.077		0.680848518	0.861528927	0.015419212	0.159077164	0.049029127
2019-12-21T13:00:00	0.2643	5.087		0.682095437	0.863442186	0.015472316	0.159625035	0.049197986
2019-12-21T13:05:00	0.2643	5.097		0.682037590	0.863353396	0.015469851	0.159599596	0.049190146
2019-12-21T13:10:00	0.2648	5.104		0.683936109	0.866268945	0.015550884	0.160435601	0.049447810
2019-12-21T13:15:00	0.2659	5.109		0.687462301	0.871692365	0.015701982	0.161994454	0.049928264
2019-12-21T13:20:00	0.2666	5.112		0.689683481	0.875114141	0.015797556	0.162980469	0.050232163
2019-12-21T13:25:00	0.2663	5.116		0.688649222	0.873520312	0.015753015	0.162520953	0.050090536
2019-12-21T13:30:00	0.2665	5.120		0.689242539	0.874434519	0.015778558	0.162784477	0.050171757
2019-12-21T13:35:00	0.2665	5.124		0.689184804	0.874345546	0.015776072	0.162758824	0.050163850
2019-12-21T13:40:00	0.2671	5.126		0.691404939	0.877769019	0.015871837	0.163746822	0.050468361
2019-12-21T13:45:00	0.2667	5.128		0.690045751	0.875672630	0.015813172	0.163141585	0.050281821
2019-12-21T13:50:00	0.2668	5.130		0.690313450	0.876085397	0.015824718	0.163260696	0.050318532
2019-12-21T13:55:00	0.2669	5.130		0.690581128	0.876498196	0.015836267	0.163379844	0.050355255
2019-12-21T14:00:00	0.2664	5.130		0.688896117	0.873900701	0.015763642	0.162630585	0.050124326
2019-12-21T14:05:00	0.2661	5.128		0.688187245	0.872808688	0.015733141	0.162315920	0.050027343
2019-12-21T14:10:00	0.2659	5.125		0.687478236	0.871716897	0.015702667	0.162001516	0.049930441
2019-12-21T14:15:00	0.2663	5.122		0.688722894	0.873633812	0.015756186	0.162553663	0.050100618
2019-12-21T14:20:00	0.2669	5.117		0.690617945	0.876554978	0.015837855	0.163396235	0.050360306
2019-12-21T14:25:00	0.2662	5.109		0.688281836	0.872954379	0.015737210	0.162357890	0.050040279
2019-12-21T14:30:00	0.2657	5.100		0.686595765	0.870358603	0.015664779	0.161610641	0.049809969
2019-12-21T14:35:00	0.2650	5.091		0.684583015	0.867263107	0.015578546	0.160720989	0.049535770
2019-12-21T14:40:00	0.2641	5.082		0.681590736	0.862667616	0.015450810	0.159403160	0.049129602
2019-12-21T14:45:00	0.2642	5.071		0.681859054	0.863079380	0.015462242	0.159521097	0.049165951
2019-12-21T14:50:00	0.2650	5.060		0.684409588	0.866996549	0.015571128	0.160644454	0.049512181
2019-12-21T14:55:00	0.2648	5.049		0.683699845	0.865905946	0.015540787	0.160331438	0.049415706
2019-12-21T15:00:00	0.2646	5.037		0.682989964	0.864815565	0.015510472	0.160018683	0.049319312
2019-12-21T15:05:00	0.2659	5.025		0.687494170	0.871741429	0.015703351	0.162008578	0.049932617
2019-12-21T15:10:00	0.2659	5.012		0.687436408	0.871652500	0.015700870	0.161982978	0.049924727
2019-12-21T15:15:00	0.2649	5.000		0.684120524	0.866552316	0.015558767	0.160516930	0.049472877
2019-12-21T15:20:00	0.2652	4.986		0.685040465	0.867966332	0.015598123	0.160922959	0.049598019
2019-12-21T15:25:00	0.2647	4.974		0.683352898	0.865372979	0.015525967	0.160178542	0.049368582
2019-12-21T15:30:00	0.2646	4.962		0.683295070	0.865284156	0.015523498	0.160153065	0.049360730
2019-12-21T15:35:00	0.2647	4.949		0.683563263	0.865696122	0.015534952	0.160271239	0.049397152
2019-12-21T15:40:00	0.2649	4.938		0.684157405	0.866608992	0.015560344	0.160533198	0.049477891
2019-12-21T15:45:00	0.2645	4.928		0.682795520	0.864516974	0.015502174	0.159933072	0.049292926
2019-12-21T15:50:00	0.2641	4.915		0.681433127	0.862425777	0.015444097	0.159333906	0.049108257
2019-12-21T15:55:00	0.2643	4.903		0.682027616	0.863338087	0.015469425	0.159595210	0.049188794
2019-12-21T16:00:00	0.2633	4.893		0.679033240	0.858745978	0.015342073	0.158281340	0.048783846
2019-12-21T16:05:00	0.2633	4.881		0.678836699	0.858444839	0.015333733	0.158195302	0.048757328
2019-12-21T16:10:00	0.2628	4.869		0.677334125	0.856143690	0.015270055	0.157538344	0.048554848
2019-12-21T16:15:00	0.2625	4.855		0.676157614	0.854343256	0.015220293	0.157024952	0.048396615
2019-12-21T16:20:00	0.2629	4.843		0.677593991	0.856541528	0.015281058	0.157651860	0.048589834
2019-12-21T16:25:00	0.2622	4.832		0.675437493	0.853241829	0.015189876	0.156711148	0.048299898
2019-12-21T16:30:00	0.2621	4.820		0.674913991	0.852441414	0.015167784	0.156483232	0.048229652
2019-12-21T16:35:00	0.2613	4.807		0.672428914	0.848645031	0.015063144	0.155403682	0.047896924
2019-12-21T16:40:00	0.2616	4.794		0.673212952	0.849842211	0.015096117	0.155743855	0.048001769
2019-12-21T16:45:00	0.2616	4.780		0.673343035	0.850040891	0.015101591	0.155800332	0.048019175
2019-12-21T16:50:00	0.2613	4.769		0.672492247	0.848741718	0.015065806	0.155431146	0.047905389
2019-12-21T16:55:00	0.2605	4.759		0.669678275	0.844449148	0.014947766	0.154213344	0.047530050
2019-12-21T17:00:00	0.2604	4.747		0.669481229	0.844148819	0.014939518	0.154128257	0.047503826
2019-12-21T17:05:00	0.2607	4.735		0.670265904	0.845344983	0.014972375	0.154467236	0.047608302
2019-12-21T17:10:00	0.2600	4.723		0.668105054	0.842052243	0.014881985	0.153534691	0.047320883
2019-12-21T17:15:00	0.2602	4.710		0.668890026	0.843247934	0.014914788	0.153873115	0.047425188
2019-12-21T17:20:00	0.2599	4.696		0.667710779	0.841451874	0.014865523	0.153364856	0.047268538
2019-12-21T17:25:00	0.2591	4.684		0.665220767	0.837663362	0.014761779	0.152294551	0.046938660
2019-12-21T17:30:00	0.2595	4.674		0.666333933	0.839356368	0.014808111	0.152772548	0.047085983
2019-12-21T17:35:00	0.2595	4.661		0.666464262	0.839554654	0.014813540	0.152828563	0.047103247
2019-12-21T17:40:00	0.2595	4.649		0.666594587	0.839752948	0.014818971	0.152884587	0.047120514
2019-12-21T17:45:00	0.2606	4.637		0.669998620	0.844937474	0.014961179	0.154351726	0.047572701
2019-12-21T17:50:00	0.2605	4.626		0.669801591	0.844637117	0.014952928	0.154266606	0.047546466
2019-12-21T17:55:00	0.2613	4.614		0.672221682	0.848328689	0.015054435	0.155313835	0.047869232
2019-12-21T18:00:00	0.2610	4.601		0.671370632	0.847029937	0.015018698	0.154945142	0.047755598
2019-12-21T18:05:00	0.2609	4.586		0.671173678	0.846729461	0.015010434	0.154859883	0.047729320
2019-12-21T18:10:00	0.2614	4.573		0.672612023	0.848924581	0.015070841	0.155483093	0.047921399
2019-12-21T18:15:00	0.2612	4.559		0.672088115	0.848124816	0.015048824	0.155255940	0.047851389
2019-12-21T18:20:00	0.2613	4.545		0.672218238	0.848323431	0.015054291	0.155312342	0.047868772
2019-12-21T18:25:00	0.2614	4.532		0.672675353	0.849021273	0.015073504	0.155510563	0.047929866
2019-12-21T18:30:00	0.2610	4.521		0.671497336	0.847223254	0.015024016	0.155000004	0.047772506
2019-12-21T18:35:00	0.2617	4.509		0.673589413	0.850417232	0.015111962	0.155907329	0.048052153
2019-12-21T18:40:00	0.2624	4.497		0.676006986	0.854112832	0.015213928	0.156959286	0.048376376
2019-12-21T18:45:00	0.2631	4.486		0.678096472	0.857310960	0.015302346	0.157871479	0.048657523
2019-12-21T18:50:00	0.2637	4.473		0.680184762	0.860511012	0.015390982	0.158785927	0.048939365
2019-12-21T18:55:00	0.2642	4.460		0.681945719	0.863212389	0.015465935	0.159559199	0.049177695
2019-12-21T19:00:00	0.2641	4.448		0.681423152	0.862410471	0.015443673	0.159329523	0.049106906
2019-12-21T19:05:00	0.2639	4.434		0.680900509	0.861608675	0.015421424	0.159099988	0.049036162
2019-12-21T19:10:00	0.2639	4.419		0.680704070	0.861307373	0.015413066	0.159013761	0.049009585
2019-12-21T19:15:00	0.2637	4.406		0.680181325	0.860505742	0.015390836	0.158784420	0.048938900
2019-12-21T19:20:00	0.2635	4.393		0.679658505	0.859704232	0.015368620	0.158555221	0.048868259
2019-12-21T19:25:00	0.2629	4.379		0.677503228	0.856402570	0.015277215	0.157612208	0.048577613
2019-12-21T19:30:00	0.2629	4.370		0.677633158	0.856601495	0.015282717	0.157668973	0.048595109
2019-12-21T19:35:00	0.2627	4.358		0.676783373	0.855300717	0.015246749	0.157297904	0.048480742
2019-12-21T19:40:00	0.2629	4.347		0.677566474	0.856499399	0.015279893	0.157639838	0.048586129
2019-12-21T19:45:00	0.2638	4.335		0.680634005	0.861199915	0.015410086	0.158983011	0.049000108
2019-12-21T19:50:00	0.2639	4.320		0.680763823	0.861399020	0.015415608	0.159039987	0.049017669
2019-12-21T19:55:00	0.2638	4.303		0.680567376	0.861097730	0.015407251	0.158953773	0.048991097
2019-12-21T20:00:00	0.2647	4.286		0.683306370	0.865301512	0.015523980	0.160158043	0.049362264
2019-12-21T20:05:00	0.2640	4.270		0.681153249	0.861996379	0.015432181	0.159210965	0.049070366
2019-12-21T20:10:00	0.2634	4.253		0.679325258	0.859193471	0.015354468	0.158409220	0.048823260
2019-12-21T20:15:00	0.2624	4.233		0.675863233	0.853892946	0.015207854	0.156896631	0.048357066
2019-12-21T20:20:00	0.2627	4.215		0.676973144	0.855591148	0.015254778	0.157380730	0.048506269
2019-12-21T20:25:00	0.2624	4.199		0.676123204	0.854290616	0.015218838	0.157009950	0.048391991
2019-12-21T20:30:00	0.2633	4.182		0.678865538	0.858489023	0.015334957	0.158207925	0.048761219
2019-12-21T20:35:00	0.2645	4.165		0.682910304	0.864693234	0.015507072	0.159983607	0.049308501
2019-12-21T20:40:00	0.2646	4.147		0.683040041	0.864892470	0.015512610	0.160040735	0.049326109
2019-12-21T20:45:00	0.2633	4.130		0.678928760	0.858585890	0.015337639	0.158235599	0.048769748
2019-12-21T20:50:00	0.2625	4.111		0.676446422	0.854785113	0.015232500	0.157150897	0.048435433
2019-12-21T20:55:00	0.2626	4.095		0.676576389	0.854983978	0.015237996	0.157207591	0.048452906
2019-12-21T21:00:00	0.2627	4.079		0.677032958	0.855682696	0.015257309	0.157406841	0.048514317
2019-12-21T21:05:00	0.2624	4.063		0.675856351	0.853882419	0.015207564	0.156893632	0.048356141
2019-12-21T21:10:00	0.2622	4.047		0.675332909	0.853081906	0.015185461	0.156665602	0.048285860
2019-12-21T21:15:00	0.2624	4.035		0.676116322	0.854280088	0.015218548	0.157006950	0.048391067
2019-12-21T21:20:00	0.2636	4.026		0.679837813	0.859979095	0.015376238	0.158633808	0.048892480
2019-12-21T21:25:00	0.2630	4.018		0.678009162	0.857177249	0.015298646	0.157833307	0.048645758
2019-12-21T21:30:00	0.2634	4.008		0.679118419	0.858876500	0.015345688	0.158318636	0.048795341
2019-12-21T21:35:00	0.2631	3.996		0.678268980	0.857575165	0.015309657	0.157946914	0.048680773
2019-12-21T21:40:00	0.2638	3.986		0.680683450	0.861275748	0.015412189	0.159004711	0.049006796
2019-12-21T21:45:00	0.2647	3.975		0.683422356	0.865479670	0.015528934	0.160209145	0.049378015
2019-12-21T21:50:00	0.2631	3.961		0.678332212	0.857672015	0.015312338	0.157974569	0.048689296
2019-12-21T21:55:00	0.2605	3.944		0.669636910	0.844386098	0.014946034	0.154195480	0.047524544
2019-12-21T22:00:00	0.2593	3.928		0.665838060	0.838602067	0.014787462	0.152559521	0.047020326
2019-12-21T22:05:00	0.2589	3.911		0.664472231	0.836525517	0.014730666	0.151973569	0.046839730
2019-12-21T22:10:00	0.2599	3.894		0.667692830	0.841424545	0.014864773	0.153357127	0.047266156
2019-12-21T22:15:00	0.2594	3.879		0.666000130	0.838848578	0.014794209	0.152629130	0.047041780
2019-12-21T22:20:00	0.2586	3.863		0.663651106	0.835277881	0.014696576	0.151621867	0.046731332
2019-12-21T22:25:00	0.2590	3.848		0.664906867	0.837186146	0.014748728	0.152159903	0.046897160
2019-12-21T22:30:00	0.2591	3.832		0.665179351	0.837600393	0.014760057	0.152276782	0.046933183
2019-12-21T22:35:00	0.2591	3.815		0.665124165	0.837516492	0.014757762	0.152253107	0.046925886
2019-12-21T22:40:00	0.2585	3.800		0.663102434	0.834444539	0.014673820	0.151387100	0.046658975
2019-12-21T22:45:00	0.2581	3.783		0.661735574	0.832369625	0.014617211	0.150803073	0.046478972
2019-12-21T22:50:00	0.2566	3.767		0.657085767	0.825323123	0.014425494	0.148825162	0.045869360
2019-12-21T22:55:00	0.2566	3.749		0.657030458	0.825239416	0.014423222	0.148801717	0.045862134
2019-12-21T23:00:00	0.2564	3.733		0.656318285	0.824161826	0.014393977	0.148500008	0.045769145
2019-12-21T23:05:00	0.2554	3.715		0.652976801	0.819111613	0.014257178	0.147088673	0.045334158
2019-12-21T23:10:00	0.2550	3.700		0.651606106	0.817042743	0.014201259	0.146511771	0.045156351
2019-12-21T23:15:00	0.2554	3.685		0.652866056	0.818944400	0.014252655	0.147042019	0.045319778
2019-12-21T23:20:00	0.2554	3.672		0.653139449	0.819357213	0.014263821	0.147157207	0.045355280
2019-12-21T23:25:00	0.2565	3.660		0.656698587	0.824737208	0.014409590	0.148661082	0.045818789
2019-12-21T23:30:00	0.2568	3.655		0.657628434	0.826144549	0.014447801	0.149055295	0.045940290
2019-12-21T23:35:00	0.2552	3.651		0.652315746	0.818113644	0.014230195	0.146810299	0.045248360
2019-12-21T23:40:00	0.2550	3.647		0.651602641	0.817037517	0.014201118	0.146510315	0.045155902
2019-12-21T23:45:00	0.2552	3.644		0.652204981	0.817946463	0.014225676	0.146763682	0.045233992
2019-12-21T23:50:00	0.2565	3.637		0.656750441	0.824815671	0.014411719	0.148683051	0.045825560
2019-12-21T23:55:00	0.2559	3.632		0.654724025	0.821751122	0.014328623	0.147825765	0.045561337
2019-12-22T00:00:00	0.2558	3.626		0.654340053	0.821170837	0.014312906	0.147663616	0.045511361
2019-12-22T00:05:00	0.2559	3.623		0.654613333	0.821583825	0.014324092	0.147779012	0.045546927
2019-12-22T00:10:00	0.2554	3.620		0.652914503	0.819017548	0.014254634	0.147062427	0.045326068
2019-12-22T00:15:00	0.2549	3.613		0.651214872	0.816452527	0.014185319	0.146347325	0.045105667
2019-12-22T00:20:00	0.2545	3.609		0.650172544	0.814880700	0.014142898	0.145909677	0.044970779
2019-12-22T00:25:00	0.2545	3.606		0.650117129	0.814797161	0.014140645	0.145886428	0.044963614
2019-12-22T00:30:00	0.2545	3.606		0.650061713	0.814713623	0.014138392	0.145863182	0.044956449
2019-12-22T00:35:00	0.2538	3.602		0.647702302	0.811159288	0.014042629	0.144875212	0.044651947
2019-12-22T00:40:00	0.2533	3.593		0.646000211	0.808598116	0.013973755	0.144164660	0.044432948
2019-12-22T00:45:00	0.2548	3.587		0.650882466	0.815951159	0.014171784	0.146207682	0.045062627
2019-12-22T00:50:00	0.2544	3.579		0.649840041	0.814379483	0.014129380	0.145770211	0.044927795
2019-12-22T00:55:00	0.2543	3.573		0.649455549	0.813800014	0.014113757	0.145609025	0.044878116
2019-12-22T01:00:00	0.2544	3.564		0.649729200	0.814212421	0.014124875	0.145723734	0.044913470
2019-12-22T01:05:00	0.2561	3.556		0.655263586	0.822566758	0.014350724	0.148053776	0.045631612
2019-12-22T01:10:00	0.2559	3.546		0.654551064	0.821489716	0.014321542	0.147752713	0.045538821
2019-12-22T01:15:00	0.2570	3.539		0.658437096	0.827369074	0.014481074	0.149398575	0.046046092
2019-12-22T01:20:00	0.2579	3.533		0.661335071	0.831761959	0.014600646	0.150632171	0.046426298
2019-12-22T01:25:00	0.2584	3.526		0.662919513	0.834166769	0.014666238	0.151308874	0.046634864
2019-12-22T01:30:00	0.2595	3.518		0.666469048	0.839561935	0.014813740	0.152830620	0.047103881
2019-12-22T01:35:00	0.2591	3.507		0.665103457	0.837485008	0.014756901	0.152244223	0.046923148
2019-12-22T01:40:00	0.2597	3.494		0.667013760	0.840390835	0.014836444	0.153064854	0.047176075
2019-12-22T01:45:00	0.2599	3.482		0.667940963	0.841802364	0.014875132	0.153463997	0.047299094
2019-12-22T01:50:00	0.2601	3.470		0.668540589	0.842715598	0.014900180	0.153722415	0.047378741
2019-12-22T01:55:00	0.2590	3.460		0.664882705	0.837149417	0.014747723	0.152149542	0.046893966
2019-12-22T02:00:00	0.2594	3.450		0.666138040	0.839058359	0.014799952	0.152688374	0.047060040
2019-12-22T02:05:00	0.2600	3.442		0.668047799	0.841965052	0.014879593	0.153510023	0.047313280
2019-12-22T02:10:00	0.2609	3.432		0.670938104	0.846370111	0.015000553	0.154757938	0.047697899
2019-12-22T02:15:00	0.2621	3.424		0.675133394	0.852776844	0.015177041	0.156578732	0.048259086
2019-12-22T02:20:00	0.2628	3.418		0.677365009	0.856190969	0.015271363	0.157551833	0.048559005
2019-12-22T02:25:00	0.2625	3.414		0.676330177	0.854607256	0.015227586	0.157100198	0.048419807
2019-12-22T02:30:00	0.2616	3.411		0.673334037	0.850027147	0.015101212	0.155796425	0.048017971
2019-12-22T02:35:00	0.2599	3.409		0.667716936	0.841461247	0.014865780	0.153367508	0.047269355
2019-12-22T02:40:00	0.2597	3.404		0.667006861	0.840380335	0.014836156	0.153061886	0.047175160
2019-12-22T02:45:00	0.2571	3.402		0.658754978	0.827850583	0.014494165	0.149533630	0.046087717
2019-12-22T02:50:00	0.2558	3.399		0.654429982	0.821306734	0.014316587	0.147701584	0.045523063
2019-12-22T02:55:00	0.2563	3.399		0.656017452	0.823706767	0.014381633	0.148372657	0.045729894
2019-12-22T03:00:00	0.2539	3.398		0.648069643	0.811712356	0.014057516	0.145028800	0.044699285
2019-12-22T03:05:00	0.2524	3.396		0.643072524	0.804198532	0.013855703	0.142946730	0.044057570
2019-12-22T03:10:00	0.2511	3.396		0.638728650	0.797684200	0.013681506	0.141149572	0.043503669
2019-12-22T03:15:00	0.2520	3.396		0.641972294	0.802547046	0.013811473	0.142490421	0.043916932
2019-12-22T03:20:00	0.2527	3.395		0.644224452	0.805928723	0.013902089	0.143425294	0.044205069
2019-12-22T03:25:00	0.2531	3.392		0.645486987	0.807826340	0.013953023	0.143950767	0.044367024
2019-12-22T03:30:00	0.2524	3.388		0.643124575	0.804276688	0.013857797	0.142968336	0.044064230
2019-12-22T03:35:00	0.2520	3.384		0.641750123	0.802213684	0.013802551	0.142398370	0.043888561
2019-12-22T03:40:00	0.2535	3.380		0.646638142	0.809557735	0.013999548	0.144430756	0.044514962
2019-12-22T03:45:00	0.2542	3.377		0.649216507	0.813439816	0.014104048	0.145508861	0.044847244
2019-12-22T03:50:00	0.2554	3.376		0.653108283	0.819310150	0.014262548	0.147144074	0.045351233
2019-12-22T03:55:00	0.2560	3.372		0.655024928	0.822205956	0.014340946	0.147952900	0.045600521
2019-12-22T04:00:00	0.2538	3.370		0.647733478	0.811206221	0.014043892	0.144888244	0.044655964
2019-12-22T04:05:00	0.2540	3.367		0.648301640	0.812061710	0.014066922	0.145125844	0.044729195
2019-12-22T04:10:00	0.2535	3.363		0.646894327	0.809943203	0.014009913	0.144537689	0.044547919
2019-12-22T04:15:00	0.2516	3.357		0.640541316	0.800400633	0.013754057	0.141898074	0.043734364
2019-12-22T04:20:00	0.2506	3.354		0.637150217	0.795321057	0.013618492	0.140499469	0.043303301
2019-12-22T04:25:00	0.2489	3.350		0.631441465	0.786791864	0.013391850	0.138161245	0.042582637
2019-12-22T04:30:00	0.2467	3.347		0.624398261	0.776306939	0.013114948	0.135304499	0.041702161
2019-12-22T04:35:00	0.2480	3.343		0.628613027	0.782576246	0.013280290	0.137010302	0.042227906
2019-12-22T04:40:00	0.2473	3.342		0.626204426	0.778991704	0.013185671	0.136034135	0.041927042
2019-12-22T04:45:00	0.2473	3.342		0.626444819	0.779349243	0.013195099	0.136131400	0.041957020
2019-12-22T04:50:00	0.2469	3.343		0.625028902	0.777244038	0.013139619	0.135559028	0.041780609
2019-12-22T04:55:00	0.2458	3.344		0.621291398	0.771695198	0.012993755	0.134054173	0.041316798
2019-12-22T05:00:00	0.2432	3.345		0.612566012	0.758786984	0.012656505	0.130574824	0.040244429
2019-12-22T05:05:00	0.2436	3.346		0.614136975	0.761106316	0.012716887	0.131197775	0.040436428
2019-12-22T05:10:00	0.2441	3.347		0.615707245	0.763426698	0.012777390	0.131821980	0.040628815
2019-12-22T05:15:00	0.2447	3.346		0.617608864	0.766239490	0.012850860	0.132579952	0.040862429
2019-12-22T05:20:00	0.2456	3.348		0.620504874	0.770528996	0.012963166	0.133738597	0.041219535
2019-12-22T05:25:00	0.2467	3.351		0.624392856	0.776298908	0.013114736	0.135302318	0.041701489
2019-12-22T05:30:00	0.2462	3.352		0.622644583	0.773702827	0.013046468	0.134598010	0.041484414
2019-12-22T05:35:00	0.2475	3.354		0.626861417	0.779968968	0.013211445	0.136300044	0.042008997
2019-12-22T05:40:00	0.2493	3.356		0.633057386	0.789203338	0.013455803	0.138821035	0.042785991
2019-12-22T05:45:00	0.2480	3.358		0.628666338	0.782655640	0.013282388	0.137031949	0.042234578
2019-12-22T05:50:00	0.2470	3.358		0.625263970	0.777593424	0.013148821	0.135653965	0.041809870
2019-12-22T05:55:00	0.2471	3.356		0.625504426	0.777950865	0.013158238	0.135751115	0.041839812
2019-12-22T06:00:00	0.2479	3.351		0.628394038	0.782250138	0.013271673	0.136921400	0.042200505
2019-12-22T06:05:00	0.2484	3.345		0.629958045	0.784580071	0.013333280	0.137556991	0.042396401
2019-12-22T06:10:00	0.2487	3.342		0.630859838	0.785924431	0.013368870	0.137924162	0.042509566
2019-12-22T06:15:00	0.2476	3.338		0.627128433	0.780366255	0.013221928	0.136408192	0.042042330
2019-12-22T06:20:00	0.2487	3.334		0.631009215	0.786147184	0.013374769	0.137985031	0.042528327
2019-12-22T06:25:00	0.2501	3.331		0.635546581	0.792922345	0.013554627	0.139840583	0.043100226
2019-12-22T06:30:00	0.2497	3.327		0.634134261	0.790811611	0.013498510	0.139261637	0.042921789
2019-12-22T06:35:00	0.2496	3.324		0.634043636	0.790676227	0.013494913	0.139224529	0.042910352
2019-12-22T06:40:00	0.2515	3.320		0.640227204	0.799929711	0.013741471	0.141768221	0.043694342
2019-12-22T06:45:00	0.2509	3.316		0.638156543	0.796827428	0.013658649	0.140913760	0.043430989
2019-12-22T06:50:00	0.2528	3.313		0.644333036	0.806091874	0.013906466	0.143470448	0.044218985
2019-12-22T06:55:00	0.2540	3.312		0.648524450	0.812397274	0.014075959	0.145219077	0.044757930
2019-12-22T07:00:00	0.2538	3.311		0.647775766	0.811269885	0.014045605	0.144905921	0.044661412
2019-12-22T07:05:00	0.2529	3.308		0.644721024	0.806674920	0.013922111	0.143631850	0.044268731
2019-12-22T07:10:00	0.2536	3.310		0.646936625	0.810006852	0.014011625	0.144555348	0.044553362
2019-12-22T07:15:00	0.2526	3.309		0.643881171	0.805412998	0.013888257	0.143282592	0.044161086
2019-12-22T07:20:00	0.2518	3.309		0.641152981	0.801317894	0.013778584	0.142151113	0.043812354
2019-12-22T07:25:00	0.2507	3.308		0.637432286	0.795743200	0.013629741	0.140615529	0.043339072
2019-12-22T07:30:00	0.2517	3.306		0.640972081	0.801046582	0.013771328	0.142076252	0.043789281
2019-12-22T07:35:00	0.2521	3.305		0.642200875	0.802890070	0.013820656	0.142585160	0.043946131
2019-12-22T07:40:00	0.2525	3.303		0.643429248	0.804734210	0.013870059	0.143094841	0.044103220
2019-12-22T07:45:00	0.2525	3.301		0.643338857	0.804598463	0.013866420	0.143057303	0.044091650
2019-12-22T07:50:00	0.2516	3.299		0.640610255	0.800504000	0.013756821	0.141926582	0.043743151
2019-12-22T07:55:00	0.2507	3.297		0.637549415	0.795918515	0.013634414	0.140663738	0.043353930
2019-12-22T08:00:00	0.2515	3.297		0.640099400	0.799738127	0.013736351	0.141715404	0.043678064
2019-12-22T08:05:00	0.2512	3.298		0.639348959	0.798613472	0.013706311	0.141405484	0.043582543
2019-12-22T08:10:00	0.2512	3.302		0.639258465	0.798477884	0.013702691	0.141368135	0.043571032
2019-12-22T08:15:00	0.2501	3.308		0.635535804	0.792906234	0.013554198	0.139836161	0.043098863
2019-12-22T08:20:00	0.2499	3.313		0.634784408	0.791783056	0.013524328	0.139527994	0.043003883
2019-12-22T08:25:00	0.2494	3.320		0.633371789	0.789672785	0.013468264	0.138949598	0.042825615
2019-12-22T08:30:00	0.2499	3.328		0.634933622	0.792006061	0.013530257	0.139589162	0.043022735
2019-12-22T08:35:00	0.2495	3.339		0.633521061	0.789895700	0.013474183	0.139010658	0.042844435
2019-12-22T08:40:00	0.2492	3.349		0.632438608	0.788279662	0.013431295	0.138568192	0.042708063
2019-12-22T08:45:00	0.2492	3.363		0.632678583	0.788637844	0.013440797	0.138666221	0.042738276
2019-12-22T08:50:00	0.2505	3.378		0.636883611	0.794922118	0.013607863	0.140389817	0.043269505
2019-12-22T08:55:00	0.2507	3.395		0.637453491	0.795774938	0.013630587	0.140624256	0.043341761
2019-12-22T09:00:00	0.2517	3.412		0.640993265	0.801078352	0.013772178	0.142085018	0.043791982
2019-12-22T09:05:00	0.2531	3.430		0.645518032	0.807873019	0.013954277	0.143963701	0.044371011
2019-12-22T09:10:00	0.2538	3.448		0.647733142	0.811205716	0.014043878	0.144888103	0.044655921
2019-12-22T09:15:00	0.2542	3.466		0.648959629	0.813052798	0.014093618	0.145401264	0.044814082
2019-12-22T09:20:00	0.2537	3.487		0.647552574	0.810933889	0.014036563	0.144812633	0.044632660
2019-12-22T09:25:00	0.2537	3.513		0.647462286	0.810797980	0.014032906	0.144774905	0.044621032
2019-12-22T09:30:00	0.2537	3.545		0.647371996	0.810662076	0.014029249	0.144737180	0.044609405
2019-12-22T09:35:00	0.2539	3.579		0.647940215	0.811517476	0.014052270	0.144974676	0.044682603
2019-12-22T09:40:00	0.2535	3.611		0.646862100	0.809894709	0.014008609	0.144524235	0.044543773
2019-12-22T09:45:00	0.2532	3.641		0.645783662	0.808272447	0.013965006	0.144074390	0.044405126
2019-12-22T09:50:00	0.2522	3.670		0.642397510	0.803185189	0.013828558	0.142666685	0.043971258
2019-12-22T09:55:00	0.2507	3.699		0.637687744	0.796125576	0.013639934	0.140720683	0.043371481
2019-12-22T10:00:00	0.2503	3.721		0.636276269	0.794013539	0.013583667	0.140140190	0.043192568
2019-12-22T10:05:00	0.2508	3.743		0.637743351	0.796208817	0.013642153	0.140743578	0.043378538
2019-12-22T10:10:00	0.2502	3.768		0.635908057	0.793462850	0.013569009	0.139988963	0.043145958
2019-12-22T10:15:00	0.2512	3.797		0.639025884	0.798129439	0.013693389	0.141272168	0.043541454
2019-12-22T10:20:00	0.2503	3.831		0.636200474	0.793900173	0.013580649	0.140109054	0.043182971
2019-12-22T10:25:00	0.2501	3.861		0.635686035	0.793130853	0.013560174	0.139897817	0.043117866
2019-12-22T10:30:00	0.2509	3.892		0.638143867	0.796808449	0.013658142	0.140908538	0.043429380
2019-12-22T10:35:00	0.2504	3.922		0.636639056	0.794556227	0.013598118	0.140289274	0.043238517
2019-12-22T10:40:00	0.2492	3.953		0.632489428	0.788355511	0.013433307	0.138588949	0.042714460
2019-12-22T10:45:00	0.2492	3.981		0.632635779	0.788573953	0.013439102	0.138648733	0.042732886
2019-12-22T10:50:00	0.2494	4.009		0.633112727	0.789285965	0.013457996	0.138843661	0.042792965
2019-12-22T10:55:00	0.2503	4.032		0.636232985	0.793948798	0.013581944	0.140122409	0.043187087
2019-12-22T11:00:00	0.2504	4.049		0.636379183	0.794167476	0.013587766	0.140182474	0.043205600
2019-12-22T11:05:00	0.2515	4.063		0.640156539	0.799823778	0.013738640	0.141739016	0.043685341
2019-12-22T11:10:00	0.2514	4.076		0.639972637	0.799548119	0.013731275	0.141663028	0.043661921
2019-12-22T11:15:00	0.2511	4.089		0.638798671	0.797789080	0.013684305	0.141178448	0.043512569
2019-12-22T11:20:00	0.2511	4.104		0.638944765	0.798007920	0.013690145	0.141238704	0.043531140
2019-12-22T11:25:00	0.2517	4.116		0.640740657	0.800699533	0.013762048	0.141980513	0.043759773
2019-12-22T11:30:00	0.2518	4.126		0.641216529	0.801413210	0.013781134	0.142177415	0.043820460
2019-12-22T11:35:00	0.2506	4.136		0.637072197	0.795204305	0.013615381	0.140467376	0.043293409
2019-12-22T11:40:00	0.2498	4.146		0.634575715	0.791471190	0.013516037	0.139442466	0.042977522
2019-12-22T11:45:00	0.2481	4.158		0.629100107	0.783301728	0.013299467	0.137208148	0.042288884
2019-12-22T11:50:00	0.2485	4.175		0.630239294	0.784999273	0.013344374	0.137671449	0.042431678
2019-12-22T11:55:00	0.2475	4.194		0.627075811	0.780287956	0.013219862	0.136386876	0.042035760
2019-12-22T12:00:00	0.2470	4.210		0.625235038	0.777550418	0.013147689	0.135642279	0.041806268
2019-12-22T12:05:00	0.2463	4.224		0.623061812	0.774322153	0.013062744	0.134765922	0.041536166
2019-12-22T12:10:00	0.2456	4.240		0.620555526	0.770604083	0.012965135	0.133758909	0.041225795
2019-12-22T12:15:00	0.2445	4.253		0.617051382	0.765414572	0.012829299	0.132357511	0.040793870
2019-12-22T12:20:00	0.2448	4.265		0.617862434	0.766614791	0.012860673	0.132681193	0.040893632
2019-12-22T12:25:00	0.2440	4.274		0.615352486	0.762902290	0.012763708	0.131680824	0.040585309
2019-12-22T12:30:00	0.2432	4.283		0.612840766	0.759192475	0.012667054	0.130683665	0.040277975
2019-12-22T12:35:00	0.2432	4.292		0.612655453	0.758918976	0.012659938	0.130610250	0.040255347
2019-12-22T12:40:00	0.2429	4.300		0.611805055	0.757664272	0.012627309	0.130273624	0.040151596
2019-12-22T12:45:00	0.2425	4.308		0.610289097	0.755429084	0.012569252	0.129674651	0.039966987
2019-12-22T12:50:00	0.2419	4.318		0.608439623	0.752704762	0.012498608	0.128945830	0.039742357
2019-12-22T12:55:00	0.2411	4.328		0.605589872	0.748512624	0.012390158	0.127826975	0.039397515
2019-12-22T13:00:00	0.2399	4.335		0.601737428	0.742856292	0.012244324	0.126322429	0.038933800
2019-12-22T13:05:00	0.2391	4.342		0.598882278	0.738672248	0.012136815	0.125213283	0.038591950
2019-12-22T13:10:00	0.2384	4.348		0.596692863	0.735468414	0.012054704	0.124366162	0.038330859
2019-12-22T13:15:00	0.2375	4.355		0.593833633	0.731290451	0.011947904	0.123264327	0.037991263
2019-12-22T13:20:00	0.2375	4.360		0.593647322	0.731018447	0.011940962	0.123192705	0.037969188
2019-12-22T13:25:00	0.2379	4.368		0.595132084	0.733186927	0.011996345	0.123764075	0.038145290
2019-12-22T13:30:00	0.2376	4.378		0.593943234	0.731450477	0.011951989	0.123306470	0.038004252
2019-12-22T13:35:00	0.2377	4.386		0.594425401	0.732154594	0.011969968	0.123491958	0.038061421
2019-12-22T13:40:00	0.2385	4.392		0.596911884	0.735788734	0.012062906	0.124450772	0.038356937
2019-12-22T13:45:00	0.2386	4.396		0.597393646	0.736493454	0.012080955	0.124636985	0.038414329
2019-12-22T13:50:00	0.2388	4.401		0.597875342	0.737198272	0.012099016	0.124823316	0.038471758
2019-12-22T13:55:00	0.2384	4.404		0.596687416	0.735460448	0.012054500	0.124364059	0.038330211
2019-12-22T14:00:00	0.2384	4.405		0.596835247	0.735676648	0.012060036	0.124421164	0.038347811
2019-12-22T14:05:00	0.2379	4.407		0.594978731	0.732962871	0.011990618	0.123704998	0.038127082
2019-12-22T14:10:00	0.2379	4.407		0.595126634	0.733178964	0.011996141	0.123761975	0.038144643
2019-12-22T14:15:00	0.2379	4.407		0.594940391	0.732906859	0.011989187	0.123690231	0.038122531
2019-12-22T14:20:00	0.2389	4.406		0.598428132	0.738007353	0.012119759	0.125037323	0.038537717
2019-12-22T14:25:00	0.2392	4.404		0.599243451	0.739201148	0.012150388	0.125353311	0.038635108
2019-12-22T14:30:00	0.2396	4.401		0.600725864	0.741373127	0.012206178	0.125928889	0.038812507
2019-12-22T14:35:00	0.2397	4.397		0.600873527	0.741589579	0.012211743	0.125986297	0.038830200
2019-12-22T14:40:00	0.2404	4.394		0.603355482	0.745230477	0.012305467	0.126953232	0.039128219
2019-12-22T14:45:00	0.2403	4.390		0.603169672	0.744957725	0.012298437	0.126880711	0.039105867
2019-12-22T14:50:00	0.2410	4.385		0.605316858	0.748111363	0.012379794	0.127720049	0.039364559
2019-12-22T14:55:00	0.2414	4.379		0.606796730	0.750287147	0.012436026	0.128300192	0.039543365
2019-12-22T15:00:00	0.2418	4.373		0.607943071	0.751973818	0.012479676	0.128750515	0.039682159
2019-12-22T15:05:00	0.2424	4.369		0.610087370	0.755131796	0.012561536	0.129595053	0.039942454
2019-12-22T15:10:00	0.2419	4.365		0.608237790	0.752407631	0.012490911	0.128866422	0.039717883
2019-12-22T15:15:00	0.2419	4.360		0.608385141	0.752624552	0.012496530	0.128924392	0.039735750
2019-12-22T15:20:00	0.2424	4.356		0.609863734	0.754802260	0.012552986	0.129506841	0.039915266
2019-12-22T15:25:00	0.2428	4.351		0.611341712	0.756980897	0.012609550	0.130090401	0.040095125
2019-12-22T15:30:00	0.2422	4.348		0.609492787	0.754255747	0.012538810	0.129360590	0.039870190
2019-12-22T15:35:00	0.2430	4.344		0.611968718	0.757905698	0.012633586	0.130338374	0.040171553
2019-12-22T15:40:00	0.2436	4.339		0.614110588	0.761067341	0.012715871	0.131187298	0.040433199
2019-12-22T15:45:00	0.2437	4.336		0.614257694	0.761284629	0.012721533	0.131245708	0.040451202
2019-12-22T15:50:00	0.2438	4.330		0.614737105	0.761992880	0.012739993	0.131436154	0.040509899
2019-12-22T15:55:00	0.2438	4.326		0.614551890	0.761719232	0.012732859	0.131362561	0.040487217
2019-12-22T16:00:00	0.2439	4.321		0.615031261	0.762427544	0.012751326	0.131553079	0.040545937
2019-12-22T16:05:00	0.2439	4.319		0.614943122	0.762297296	0.012747930	0.131518039	0.040535137
2019-12-22T16:10:00	0.2445	4.318		0.616848120	0.765113866	0.012821442	0.132276455	0.040768888
2019-12-22T16:15:00	0.2456	4.317		0.620743059	0.770882105	0.012972426	0.133834123	0.041248976
2019-12-22T16:20:00	0.2458	4.318		0.621318484	0.771735369	0.012994809	0.134065047	0.041320150
2019-12-22T16:25:00	0.2461	4.317		0.622225427	0.773080789	0.013030128	0.134429432	0.041432456
2019-12-22T16:30:00	0.2462	4.317		0.622800613	0.773934417	0.013052554	0.134660791	0.041503763
2019-12-22T16:35:00	0.2461	4.318		0.622381100	0.773311794	0.013036196	0.134492028	0.041451749
2019-12-22T16:40:00	0.2459	4.320		0.621629902	0.772197269	0.013006931	0.134190109	0.041358695
2019-12-22T16:45:00	0.2466	4.323		0.623862788	0.775511516	0.013094018	0.135088574	0.041635611
2019-12-22T16:50:00	0.2468	4.325		0.624769085	0.776857923	0.013129452	0.135454135	0.041748280
2019-12-22T16:55:00	0.2465	4.325		0.623686945	0.775250361	0.013087149	0.135017706	0.041613768
2019-12-22T17:00:00	0.2456	4.327		0.620614556	0.770691594	0.012967430	0.133782582	0.041233091
2019-12-22T17:05:00	0.2458	4.328		0.621190002	0.771544826	0.012989809	0.134013468	0.041304252
2019-12-22T17:10:00	0.2471	4.331		0.625742803	0.778305264	0.013167577	0.135847460	0.041869506
2019-12-22T17:15:00	0.2467	4.333		0.624329572	0.776204890	0.013112262	0.135276790	0.041693621
2019-12-22T17:20:00	0.2461	4.334		0.622252656	0.773121193	0.013031189	0.134440380	0.041435831
2019-12-22T17:25:00	0.2462	4.336		0.622496282	0.773482728	0.013040686	0.134538353	0.041466027
2019-12-22T17:30:00	0.2460	4.339		0.622076734	0.772860159	0.013024334	0.134369656	0.041414033
2019-12-22T17:35:00	0.2456	4.342		0.620662050	0.770762004	0.012969276	0.133801630	0.041238962
2019-12-22T17:40:00	0.2452	4.344		0.619246805	0.768664704	0.012914317	0.133234624	0.041064205
2019-12-22T17:45:00	0.2458	4.346		0.621481183	0.771976677	0.013001141	0.134130378	0.041340285
2019-12-22T17:50:00	0.2461	4.350		0.622388086	0.773322160	0.013036468	0.134494837	0.041452615
2019-12-22T17:55:00	0.2461	4.352		0.622300129	0.773191637	0.013033040	0.134459468	0.041441714
2019-12-22T18:00:00	0.2460	4.353		0.621880557	0.772569103	0.013016692	0.134290812	0.041389733
2019-12-22T18:05:00	0.2457	4.354		0.621129253	0.771454739	0.012987446	0.133989084	0.041296737
2019-12-22T18:10:00	0.2456	4.355		0.620709543	0.770832415	0.012971122	0.133820679	0.041244833
2019-12-22T18:15:00	0.2447	4.357		0.617634586	0.766277559	0.012851855	0.132590220	0.040865593
2019-12-22T18:20:00	0.2447	4.357		0.617546512	0.766147214	0.012848447	0.132555063	0.040854758
2019-12-22T18:25:00	0.2445	4.355		0.617126380	0.765525533	0.012832198	0.132387424	0.040803090
2019-12-22T18:30:00	0.2436	4.350		0.614048325	0.760975380	0.012713475	0.131162580	0.040425581
2019-12-22T18:35:00	0.2440	4.344		0.615289380	0.762809017	0.012761275	0.131655723	0.040577572
2019-12-22T18:40:00	0.2442	4.334		0.615865686	0.763660941	0.012783503	0.131885048	0.040648253
2019-12-22T18:45:00	0.2436	4.325		0.614116196	0.761075625	0.012716087	0.131189525	0.040433886
2019-12-22T18:50:00	0.2437	4.317		0.614360380	0.761436313	0.012725485	0.131286488	0.040463771
2019-12-22T18:55:00	0.2438	4.311		0.614604546	0.761797026	0.012734887	0.131383481	0.040493665
2019-12-22T19:00:00	0.2442	4.310		0.615845407	0.763630958	0.012782721	0.131876975	0.040645764
2019-12-22T19:05:00	0.2448	4.310		0.618081919	0.766939687	0.012869170	0.132768857	0.040920651
2019-12-22T19:10:00	0.2444	4.310		0.616665648	0.764843946	0.012814391	0.132203712	0.040746468
2019-12-22T19:15:00	0.2448	4.310		0.617905790	0.766678967	0.012862351	0.132698507	0.040898969
2019-12-22T19:20:00	0.2449	4.310		0.618481674	0.767531533	0.012884654	0.132928600	0.040969885
2019-12-22T19:25:00	0.2449	4.310		0.618393620	0.767401156	0.012881243	0.132893405	0.040959038
2019-12-22T19:30:00	0.2443	4.309		0.616313242	0.764322731	0.012800780	0.132063282	0.040703186
2019-12-22T19:35:00	0.2440	4.309		0.615228530	0.762719083	0.012758929	0.131631522	0.040570113
2019-12-22T19:40:00	0.2438	4.308		0.614808124	0.762097817	0.012742728	0.131464379	0.040518598
2019-12-22T19:45:00	0.2435	4.309		0.613722954	0.760494863	0.012700959	0.131033450	0.040385782
2019-12-22T19:50:00	0.2432	4.309		0.612637452	0.758892411	0.012659247	0.130603119	0.040253150
2019-12-22T19:55:00	0.2435	4.308		0.613546609	0.760234470	0.012694178	0.130963491	0.040364220
2019-12-22T20:00:00	0.2436	4.308		0.614123198	0.761085966	0.012716356	0.131192305	0.040434742
2019-12-22T20:05:00	0.2432	4.310		0.612705350	0.758992616	0.012661854	0.130630015	0.040261439
2019-12-22T20:10:00	0.2426	4.312		0.610621640	0.755919234	0.012581975	0.129805921	0.040007445
2019-12-22T20:15:00	0.2427	4.313		0.610866064	0.756279559	0.012591332	0.129902450	0.040037197
2019-12-22T20:20:00	0.2422	4.314		0.609446915	0.754188173	0.012537057	0.129342510	0.039864618
2019-12-22T20:25:00	0.2420	4.316		0.608692981	0.753077795	0.012508273	0.129045545	0.039773090
2019-12-22T20:30:00	0.2423	4.318		0.609603148	0.754418329	0.012543027	0.129404092	0.039883598
2019-12-22T20:35:00	0.2423	4.319		0.609847641	0.754778548	0.012552371	0.129500494	0.039913310
2019-12-22T20:40:00	0.2417	4.321		0.607762254	0.751707698	0.012472786	0.128679429	0.039660250
2019-12-22T20:45:00	0.2428	4.323		0.611334555	0.756970341	0.012609276	0.130087571	0.040094253
2019-12-22T20:50:00	0.2428	4.323		0.611246324	0.756840233	0.012605895	0.130052697	0.040083504
2019-12-22T20:55:00	0.2431	4.322		0.612488357	0.758672390	0.012653524	0.130544070	0.040234950
2019-12-22T21:00:00	0.2427	4.322		0.611069856	0.756580026	0.012599136	0.129982960	0.040062011
2019-12-22T21:05:00	0.2428	4.322		0.611314249	0.756940397	0.012608498	0.130079545	0.040091779
2019-12-22T21:10:00	0.2425	4.321		0.610228011	0.755339057	0.012566915	0.129650545	0.039959557
2019-12-22T21:15:00	0.2427	4.322		0.611137785	0.756680185	0.012601737	0.130009802	0.040070284
2019-12-22T21:20:00	0.2433	4.322		0.613044822	0.759493668	0.012674893	0.130764529	0.040302898
2019-12-22T21:25:00	0.2438	4.323		0.614618547	0.761817713	0.012735426	0.131389044	0.040495379
2019-12-22T21:30:00	0.2437	4.324		0.614198070	0.761196556	0.012719238	0.131222032	0.040443905
2019-12-22T21:35:00	0.2433	4.325		0.613112713	0.759593884	0.012677501	0.130791439	0.040311192
2019-12-22T21:40:00	0.2437	4.327		0.614354094	0.761427027	0.012725243	0.131283991	0.040463001
2019-12-22T21:45:00	0.2439	4.328		0.614930552	0.762278722	0.012747445	0.131513042	0.040533597
2019-12-22T21:50:00	0.2442	4.329		0.616171299	0.764112825	0.012795299	0.132006742	0.040685760
2019-12-22T21:55:00	0.2441	4.330		0.615751004	0.763491390	0.012779079	0.131839397	0.040634183
2019-12-22T22:00:00	0.2454	4.330		0.619978963	0.769749503	0.012942734	0.133527801	0.041154565
2019-12-22T22:05:00	0.2444	4.331		0.616683140	0.764869819	0.012815067	0.132210684	0.040748617
2019-12-22T22:10:00	0.2440	4.333		0.615378225	0.762940334	0.012764701	0.131691063	0.040588465
2019-12-22T22:15:00	0.2438	4.335		0.614737481	0.761993436	0.012740007	0.131436304	0.040509945
2019-12-22T22:20:00	0.2430	4.339		0.612101940	0.758102236	0.012638696	0.130391093	0.040187801
2019-12-22T22:25:00	0.2423	4.341		0.609797214	0.754704248	0.012550443	0.129480608	0.039907181
2019-12-22T22:30:00	0.2423	4.346		0.609821033	0.754739343	0.012551354	0.129490001	0.039910076
2019-12-22T22:35:00	0.2419	4.351		0.608513596	0.752813671	0.012501429	0.128974940	0.039751329
2019-12-22T22:40:00	0.2417	4.355		0.607538660	0.751378661	0.012464268	0.128591555	0.039633166
2019-12-22T22:45:00	0.2409	4.358		0.604897768	0.747495529	0.012363893	0.127556002	0.039313999
2019-12-22T22:50:00	0.2403	4.361		0.602921772	0.744593876	0.012289062	0.126783990	0.039076057
2019-12-22T22:55:00	0.2400	4.365		0.601945297	0.743161177	0.012252170	0.126403377	0.038958748
2019-12-22T23:00:00	0.2391	4.367		0.598966469	0.738795527	0.012139978	0.125245917	0.038602008
2019-12-22T23:05:00	0.2378	4.368		0.594648651	0.732480676	0.011978298	0.123577890	0.038087906
2019-12-22T23:10:00	0.2376	4.364		0.594004147	0.731539419	0.011954260	0.123329895	0.038011472
2019-12-22T23:15:00	0.2363	4.360		0.589680251	0.725233598	0.011793633	0.121672738	0.037500720
2019-12-22T23:20:00	0.2360	4.354		0.588700107	0.723806357	0.011757377	0.121298691	0.037385435
2019-12-22T23:25:00	0.2353	4.350		0.586380074	0.720431218	0.011671786	0.120415660	0.037113276
2019-12-22T23:30:00	0.2345	4.347		0.583723305	0.716571703	0.011574165	0.119408522	0.036802866
2019-12-22T23:35:00	0.2337	4.342		0.581064527	0.712715144	0.011476890	0.118404954	0.036493557
2019-12-22T23:40:00	0.2329	4.341		0.578403736	0.708861540	0.011379961	0.117404962	0.036185350
2019-12-22T23:45:00	0.2331	4.340		0.579099157	0.709868147	0.011405254	0.117665901	0.036265773
2019-12-22T23:50:00	0.2324	4.340		0.576436874	0.706016726	0.011308582	0.116668551	0.035958381
2019-12-22T23:55:00	0.2325	4.340		0.576796819	0.706537101	0.011321627	0.116803141	0.035999862
2019-12-23T00:00:00	0.2323	4.345		0.576149037	0.705600675	0.011298155	0.116560981	0.035925226
2019-12-23T00:05:00	0.2329	4.350		0.578188161	0.708549583	0.011372127	0.117324134	0.036160437
2019-12-23T00:10:00	0.2324	4.356		0.576533056	0.706155766	0.011312067	0.116704508	0.035969463
2019-12-23T00:15:00	0.2315	4.363		0.573532644	0.701821990	0.011203603	0.115585506	0.035624575
2019-12-23T00:20:00	0.2309	4.371		0.571538967	0.698946458	0.011131827	0.114845007	0.035396346
2019-12-23T00:25:00	0.2309	4.379		0.571563046	0.698981168	0.011132692	0.114853936	0.035399098
2019-12-23T00:30:00	0.2313	4.385		0.572932398	0.700955893	0.011181968	0.115362305	0.035555783
2019-12-23T00:35:00	0.2312	4.391		0.572620200	0.700505540	0.011170724	0.115246301	0.035520029
2019-12-23T00:40:00	0.2315	4.398		0.573652970	0.701995645	0.011207942	0.115630276	0.035638374
2019-12-23T00:45:00	0.2316	4.405		0.574013201	0.702515602	0.011220939	0.115764359	0.035679700
2019-12-23T00:50:00	0.2316	4.413		0.574037263	0.702550337	0.011221807	0.115773318	0.035682461
2019-12-23T00:55:00	0.2317	4.422		0.574397454	0.703070351	0.011234811	0.115907472	0.035723809
2019-12-23T01:00:00	0.2318	4.430		0.574421514	0.703105091	0.011235680	0.115916436	0.035726571
2019-12-23T01:05:00	0.2316	4.440		0.573773292	0.702169306	0.011212283	0.115675053	0.035652175
2019-12-23T01:10:00	0.2320	4.447		0.575141780	0.704145289	0.011261706	0.116184948	0.035809329
2019-12-23T01:15:00	0.2319	4.457		0.574829779	0.703694649	0.011250428	0.116068597	0.035773469
2019-12-23T01:20:00	0.2323	4.467		0.576197855	0.705671233	0.011299923	0.116579221	0.035930848
2019-12-23T01:25:00	0.2315	4.476		0.573533367	0.701823034	0.011203629	0.115585775	0.035624658
2019-12-23T01:30:00	0.2320	4.482		0.575237997	0.704284277	0.011265185	0.116220841	0.035820392
2019-12-23T01:35:00	0.2323	4.488		0.576269996	0.705775506	0.011302536	0.116606179	0.035939157
2019-12-23T01:40:00	0.2332	4.492		0.579316120	0.710182278	0.011413151	0.117747371	0.036290883
2019-12-23T01:45:00	0.2335	4.498		0.580346920	0.711675261	0.011450707	0.118134833	0.036410303
2019-12-23T01:50:00	0.2336	4.503		0.580706464	0.712196222	0.011463821	0.118270133	0.036452004
2019-12-23T01:55:00	0.2334	4.505		0.580059403	0.711258740	0.011440225	0.118026694	0.036376973
2019-12-23T02:00:00	0.2329	4.508		0.578405181	0.708863632	0.011380014	0.117405504	0.036185517
2019-12-23T02:05:00	0.2331	4.514		0.579100602	0.709870238	0.011405306	0.117666443	0.036265940
2019-12-23T02:10:00	0.2334	4.521		0.579795885	0.710877047	0.011430623	0.117927626	0.036346440
2019-12-23T02:15:00	0.2331	4.525		0.578812983	0.709453867	0.011394842	0.117558485	0.036232667
2019-12-23T02:20:00	0.2331	4.533		0.578837012	0.709488651	0.011395716	0.117567503	0.036235446
2019-12-23T02:25:00	0.2323	4.539		0.576174530	0.705637521	0.011299078	0.116570506	0.035928162
2019-12-23T02:30:00	0.2326	4.545		0.577206253	0.707129153	0.011336476	0.116956332	0.036047077
2019-12-23T02:35:00	0.2329	4.552		0.578237673	0.708621229	0.011373926	0.117342695	0.036166158
2019-12-23T02:40:00	0.2322	4.558		0.575910720	0.705256255	0.011289526	0.116471956	0.035897788
2019-12-23T02:45:00	0.2318	4.564		0.574590650	0.703349316	0.011241789	0.115979461	0.035745996
2019-12-23T02:50:00	0.2325	4.568		0.576966563	0.706782538	0.011327782	0.116866639	0.036019433
2019-12-23T02:55:00	0.2327	4.573		0.577662270	0.707788728	0.011353026	0.117127073	0.036099701
2019-12-23T03:00:00	0.2327	4.576		0.577686307	0.707823500	0.011353898	0.117136076	0.036102476
2019-12-23T03:05:00	0.2325	4.580		0.577038689	0.706886834	0.011330398	0.116893625	0.036027750
2019-12-23T03:10:00	0.2329	4.583		0.578405903	0.708864677	0.011380040	0.117405775	0.036185600
2019-12-23T03:15:00	0.2322	4.586		0.576079062	0.705499541	0.011295621	0.116534837	0.035917169
2019-12-23T03:20:00	0.2320	4.589		0.575095117	0.704077885	0.011260019	0.116167543	0.035803965
2019-12-23T03:25:00	0.2313	4.591		0.572766076	0.700715960	0.011175977	0.115300497	0.035536733
2019-12-23T03:30:00	0.2314	4.594		0.573126398	0.701235784	0.011188958	0.115434420	0.035578009
2019-12-23T03:35:00	0.2313	4.599		0.572814217	0.700785406	0.011177711	0.115318385	0.035542246
2019-12-23T03:40:00	0.2315	4.602		0.573510748	0.701790392	0.011202813	0.115577360	0.035622065
2019-12-23T03:45:00	0.2319	4.606		0.574879339	0.703766225	0.011252220	0.116087074	0.035779164
2019-12-23T03:50:00	0.2309	4.610		0.571541139	0.698949588	0.011131905	0.114845812	0.035396595
2019-12-23T03:55:00	0.2308	4.614		0.571228817	0.698499416	0.011120682	0.114730028	0.035360909
2019-12-23T04:00:00	0.2311	4.618		0.572261997	0.699988923	0.011157830	0.115113277	0.035479030
2019-12-23T04:05:00	0.2316	4.622		0.574014838	0.702517965	0.011220998	0.115764969	0.035679888
2019-12-23T04:10:00	0.2319	4.625		0.574758712	0.703592014	0.011247860	0.116042102	0.035765303
2019-12-23T04:15:00	0.2324	4.629		0.576510304	0.706122876	0.011311242	0.116696002	0.035966841
2019-12-23T04:20:00	0.2322	4.632		0.575910035	0.705255266	0.011289501	0.116471700	0.035897709
2019-12-23T04:25:00	0.2323	4.635		0.576317595	0.705844307	0.011304260	0.116623968	0.035944640
2019-12-23T04:30:00	0.2321	4.638		0.575717293	0.704976745	0.011282524	0.116399725	0.035875526
2019-12-23T04:35:00	0.2326	4.642		0.577132572	0.707022597	0.011333803	0.116928756	0.036038578
2019-12-23T04:40:00	0.2322	4.643		0.575860528	0.705183723	0.011287709	0.116453210	0.035892010
2019-12-23T04:45:00	0.2335	4.646		0.580296982	0.711602911	0.011448886	0.118116047	0.036404513
2019-12-23T04:50:00	0.2322	4.649		0.576003758	0.705390710	0.011292894	0.116506707	0.035908498
2019-12-23T04:55:00	0.2338	4.651		0.581446490	0.713268819	0.011490838	0.118548861	0.036537910
2019-12-23T05:00:00	0.2340	4.654		0.581853407	0.713858801	0.011505708	0.118702268	0.036585192
2019-12-23T05:05:00	0.2347	4.657		0.584271864	0.717368120	0.011594287	0.119616117	0.036866849
2019-12-23T05:10:00	0.2345	4.660		0.583672921	0.716498566	0.011572317	0.119389464	0.036796992
2019-12-23T05:15:00	0.2351	4.663		0.585755117	0.719522808	0.011648784	0.120178359	0.037040138
2019-12-23T05:20:00	0.2351	4.666		0.585491494	0.719139716	0.011639089	0.120078332	0.037009308
2019-12-23T05:25:00	0.2358	4.670		0.587907453	0.722652715	0.011728098	0.120996626	0.037292335
2019-12-23T05:30:00	0.2352	4.672		0.585969355	0.719834178	0.011656667	0.120259680	0.037065201
2019-12-23T05:35:00	0.2356	4.673		0.587380510	0.721886084	0.011708655	0.120796032	0.037230510
2019-12-23T05:40:00	0.2357	4.675		0.587786742	0.722477076	0.011723643	0.120950660	0.037278168
2019-12-23T05:45:00	0.2360	4.677		0.588527705	0.723555397	0.011751006	0.121232960	0.037365176
2019-12-23T05:50:00	0.2365	4.681		0.590272450	0.726096321	0.011815567	0.121899023	0.037570463
2019-12-23T05:55:00	0.2362	4.684		0.589339856	0.724737841	0.011781035	0.121542769	0.037460662
2019-12-23T06:00:00	0.2363	4.687		0.589745862	0.725329167	0.011796062	0.121697798	0.037508443
2019-12-23T06:05:00	0.2361	4.690		0.589147849	0.724458240	0.011773932	0.121469488	0.037438076
2019-12-23T06:10:00	0.2354	4.691		0.586540592	0.720664593	0.011677697	0.120476649	0.037132073
2019-12-23T06:15:00	0.2356	4.694		0.587281818	0.721742526	0.011705015	0.120758482	0.037218937
2019-12-23T06:20:00	0.2358	4.696		0.588022889	0.722820690	0.011732360	0.121040593	0.037305886
2019-12-23T06:25:00	0.2359	4.699		0.588429046	0.723411791	0.011747360	0.121195352	0.037353584
2019-12-23T06:30:00	0.2368	4.700		0.591177519	0.727415397	0.011849128	0.122245273	0.037677180
2019-12-23T06:35:00	0.2370	4.703		0.591917770	0.728494772	0.011876615	0.122528844	0.037764580
2019-12-23T06:40:00	0.2386	4.704		0.597335968	0.736409073	0.012078793	0.124614684	0.038407456
2019-12-23T06:45:00	0.2385	4.705		0.597073210	0.736024700	0.012068948	0.124513113	0.038376151
2019-12-23T06:50:00	0.2376	4.706		0.594137593	0.731734279	0.011959235	0.123381222	0.038027291
2019-12-23T06:55:00	0.2380	4.706		0.595211369	0.733302774	0.011999306	0.123794624	0.038154705
2019-12-23T07:00:00	0.2393	4.705		0.599623524	0.739757842	0.012164679	0.125500753	0.038680551
2019-12-23T07:05:00	0.2394	4.705		0.600028349	0.740350923	0.012179911	0.125657895	0.038728984
2019-12-23T07:10:00	0.2392	4.705		0.599432075	0.739477411	0.012157479	0.125426473	0.038657657
2019-12-23T07:15:00	0.2396	4.705		0.600837858	0.741537293	0.012210398	0.125972429	0.038825926
2019-12-23T07:20:00	0.2381	4.706		0.595567468	0.733823151	0.012012610	0.123931879	0.038197009
2019-12-23T07:25:00	0.2390	4.708		0.598644210	0.738323682	0.012127873	0.125121027	0.038563516
2019-12-23T07:30:00	0.2385	4.710		0.597045976	0.735984864	0.012067928	0.124502588	0.038372907
2019-12-23T07:35:00	0.2385	4.712		0.597117162	0.736088991	0.012070595	0.124530100	0.038381386
2019-12-23T07:40:00	0.2383	4.713		0.596520398	0.735216211	0.012048248	0.124299558	0.038310331
2019-12-23T07:45:00	0.2383	4.715		0.596257579	0.734831928	0.012038414	0.124198096	0.038279059
2019-12-23T07:50:00	0.2380	4.716		0.595326566	0.733471103	0.012003609	0.123839017	0.038168388
2019-12-23T07:55:00	0.2384	4.718		0.596733982	0.735528549	0.012056244	0.124382045	0.038335754
2019-12-23T08:00:00	0.2378	4.718		0.594800731	0.732702830	0.011983973	0.123636445	0.038105953
2019-12-23T08:05:00	0.2379	4.717		0.594871962	0.732806889	0.011986632	0.123663876	0.038114408
2019-12-23T08:10:00	0.2382	4.719		0.595945515	0.734375716	0.012026742	0.124077678	0.038241945
2019-12-23T08:15:00	0.2373	4.719		0.593008960	0.730086690	0.011917191	0.122947465	0.037893603
2019-12-23T08:20:00	0.2379	4.721		0.595085647	0.733119079	0.011994610	0.123746185	0.038139776
2019-12-23T08:25:00	0.2373	4.725		0.593151493	0.730294703	0.011922497	0.123002200	0.037910473
2019-12-23T08:30:00	0.2372	4.728		0.592554057	0.729422920	0.011900267	0.122772859	0.037839787
2019-12-23T08:35:00	0.2373	4.729		0.592959693	0.730014794	0.011915358	0.122928549	0.037887773
2019-12-23T08:40:00	0.2373	4.733		0.593030961	0.730118798	0.011918010	0.122955913	0.037896207
2019-12-23T08:45:00	0.2371	4.735		0.592433505	0.729247046	0.011895784	0.122726608	0.037825533
2019-12-23T08:50:00	0.2380	4.740		0.595512977	0.733743515	0.012010573	0.123910871	0.038190534
2019-12-23T08:55:00	0.2379	4.747		0.594915942	0.732871139	0.011988274	0.123680814	0.038119628
2019-12-23T09:00:00	0.2377	4.754		0.594318805	0.731998913	0.011965992	0.123450939	0.038048778
2019-12-23T09:05:00	0.2378	4.761		0.594724238	0.732591088	0.011981119	0.123606991	0.038096875
2019-12-23T09:10:00	0.2371	4.769		0.592455510	0.729279148	0.011896602	0.122735050	0.037828134
2019-12-23T09:15:00	0.2366	4.779		0.590519913	0.726456913	0.011824738	0.121993644	0.037599626
2019-12-23T09:20:00	0.2362	4.788		0.589252706	0.724610928	0.011777811	0.121509504	0.037450409
2019-12-23T09:25:00	0.2362	4.794		0.589324049	0.724714821	0.011780450	0.121536735	0.037458802
2019-12-23T09:30:00	0.2358	4.804		0.588056411	0.722869472	0.011733597	0.121053362	0.037309822
2019-12-23T09:35:00	0.2353	4.816		0.586453372	0.720537782	0.011674485	0.120443508	0.037121859
2019-12-23T09:40:00	0.2357	4.829		0.587529491	0.722102808	0.011714150	0.120852729	0.037247985
2019-12-23T09:45:00	0.2348	4.842		0.584585912	0.717824178	0.011605814	0.119735048	0.036903505
2019-12-23T09:50:00	0.2349	4.856		0.584992466	0.718414694	0.011620747	0.119889100	0.036950985
2019-12-23T09:55:00	0.2353	4.867		0.586404013	0.720466022	0.011672667	0.120424755	0.037116079
2019-12-23T10:00:00	0.2350	4.873		0.585470394	0.719109057	0.011638313	0.120070328	0.037006841
2019-12-23T10:05:00	0.2346	4.878		0.583961092	0.716916899	0.011582885	0.119498486	0.036830594
2019-12-23T10:10:00	0.2347	4.883		0.584462620	0.717645123	0.011601288	0.119688349	0.036889112
2019-12-23T10:15:00	0.2356	4.893		0.587309014	0.721782084	0.011706018	0.120768829	0.037222126
2019-12-23T10:20:00	0.2352	4.909		0.586135507	0.720075688	0.011662782	0.120322768	0.037084646
2019-12-23T10:25:00	0.2359	4.927		0.588311045	0.723240044	0.011743001	0.121150379	0.037339723
2019-12-23T10:30:00	0.2357	4.940		0.587807600	0.722507425	0.011724412	0.120958602	0.037280616
2019-12-23T10:35:00	0.2360	4.954		0.588643349	0.723723733	0.011755279	0.121277049	0.037378764
2019-12-23T10:40:00	0.2357	4.963		0.587805135	0.722503838	0.011724321	0.120957663	0.037280326
2019-12-23T10:45:00	0.2354	4.970		0.586631793	0.720797198	0.011681057	0.120511308	0.037142755
2019-12-23T10:50:00	0.2352	4.980		0.586128108	0.720064933	0.011662509	0.120319958	0.037083780
2019-12-23T10:55:00	0.2349	4.990		0.584954208	0.718359118	0.011619341	0.119874599	0.036946516
2019-12-23T11:00:00	0.2355	5.001		0.587130475	0.721522397	0.011699435	0.120700910	0.037201193
2019-12-23T11:05:00	0.2343	5.011		0.582940542	0.715435695	0.011545482	0.119112614	0.036711665
2019-12-23T11:10:00	0.2344	5.023		0.583442215	0.716163705	0.011563861	0.119302218	0.036770102
2019-12-23T11:15:00	0.2339	5.033		0.581596634	0.713486495	0.011496324	0.118605454	0.036555353
2019-12-23T11:20:00	0.2337	5.038		0.581092227	0.712755292	0.011477901	0.118415387	0.036496772
2019-12-23T11:25:00	0.2337	5.039		0.580923252	0.712510388	0.011471733	0.118351751	0.036477159
2019-12-23T11:30:00	0.2328	5.038		0.578069207	0.708377462	0.011367805	0.117279545	0.036146695
2019-12-23T11:35:00	0.2319	5.040		0.574876789	0.703762542	0.011252127	0.116086123	0.035778871
2019-12-23T11:40:00	0.2323	5.046		0.576387527	0.705945393	0.011306794	0.116650106	0.035952695
2019-12-23T11:45:00	0.2309	5.057		0.571512030	0.698907628	0.011130859	0.114835018	0.035393268
2019-12-23T11:50:00	0.2306	5.071		0.570669715	0.697693743	0.011100606	0.114522905	0.035297072
2019-12-23T11:55:00	0.2312	5.084		0.572518578	0.700358966	0.011167065	0.115208554	0.035508395
2019-12-23T12:00:00	0.2312	5.092		0.572685483	0.700599706	0.011173075	0.115270554	0.035527504
2019-12-23T12:05:00	0.2310	5.096		0.571843451	0.699385410	0.011142774	0.114957942	0.035431154
2019-12-23T12:10:00	0.2315	5.095		0.573691694	0.702051534	0.011209339	0.115644686	0.035642815
2019-12-23T12:15:00	0.2305	5.098		0.570158779	0.696957703	0.011082275	0.114333793	0.035238785
2019-12-23T12:20:00	0.2312	5.106		0.572680532	0.700592564	0.011172897	0.115268714	0.035526937
2019-12-23T12:25:00	0.2311	5.113		0.572174841	0.699863238	0.011154694	0.115080922	0.035469058
2019-12-23T12:30:00	0.2308	5.117		0.571332686	0.698649121	0.011124414	0.114768527	0.035372775
2019-12-23T12:35:00	0.2307	5.120		0.570826800	0.697920079	0.011106245	0.114581079	0.035315001
2019-12-23T12:40:00	0.2310	5.129		0.572002959	0.699615392	0.011148511	0.115017128	0.035449396
2019-12-23T12:45:00	0.2306	5.138		0.570487851	0.697431730	0.011094080	0.114455574	0.035276319
2019-12-23T12:50:00	0.2303	5.146		0.569645290	0.696218204	0.011063869	0.114143896	0.035180257
2019-12-23T12:55:00	0.2304	5.149		0.569812332	0.696458744	0.011069855	0.114205654	0.035199292
2019-12-23T13:00:00	0.2301	5.149		0.568969608	0.695245454	0.011039672	0.113894263	0.035103318
2019-12-23T13:05:00	0.2298	5.148		0.567789949	0.693548056	0.010997492	0.113459101	0.034969197
2019-12-23T13:10:00	0.2299	5.147		0.568293795	0.694272894	0.011015498	0.113644860	0.035026450
2019-12-23T13:15:00	0.2303	5.146		0.569470806	0.695966971	0.011057618	0.114079406	0.035160381
2019-12-23T13:20:00	0.2302	5.144		0.569301270	0.695722886	0.011051546	0.114016762	0.035141073
2019-12-23T13:25:00	0.2301	5.145		0.568795091	0.694994271	0.011033427	0.113829832	0.035083460
2019-12-23T13:30:00	0.2306	5.145		0.570644944	0.697658053	0.011099717	0.114513733	0.035294245
2019-12-23T13:35:00	0.2304	5.144		0.569802421	0.696444472	0.011069500	0.114201989	0.035198162
2019-12-23T13:40:00	0.2303	5.147		0.569632901	0.696200364	0.011063425	0.114139317	0.035178846
2019-12-23T13:45:00	0.2306	5.147		0.570472987	0.697410317	0.011093546	0.114450072	0.035274624
2019-12-23T13:50:00	0.2303	5.147		0.569630423	0.696196796	0.011063336	0.114138401	0.035178564
2019-12-23T13:55:00	0.2304	5.145		0.569797465	0.696437336	0.011069322	0.114200157	0.035197597
2019-12-23T14:00:00	0.2302	5.143		0.569291358	0.695708616	0.011051191	0.114013100	0.035139945
2019-12-23T14:05:00	0.2298	5.145		0.567775074	0.693526660	0.010996961	0.113453619	0.034967507
2019-12-23T14:10:00	0.2298	5.145		0.567942205	0.693767071	0.011002932	0.113515219	0.034986493
2019-12-23T14:15:00	0.2301	5.143		0.568782698	0.694976435	0.011032984	0.113825258	0.035082050
2019-12-23T14:20:00	0.2297	5.141		0.567602976	0.693279129	0.010990814	0.113390207	0.034947963
2019-12-23T14:25:00	0.2296	5.139		0.567096551	0.692550870	0.010972738	0.113203710	0.034890483
2019-12-23T14:30:00	0.2301	5.130		0.568947303	0.695213349	0.011038874	0.113886027	0.035100780
2019-12-23T14:35:00	0.2296	5.124		0.567094071	0.692547304	0.010972649	0.113202798	0.034890202
2019-12-23T14:40:00	0.2298	5.115		0.567934768	0.693756373	0.011002666	0.113512477	0.034985648
2019-12-23T14:45:00	0.2309	5.105		0.571467452	0.698843371	0.011129257	0.114818489	0.035388174
2019-12-23T14:50:00	0.2307	5.097		0.570961586	0.698114300	0.011111084	0.114631007	0.035330390
2019-12-23T14:55:00	0.2310	5.092		0.571801354	0.699324717	0.011141260	0.114942325	0.035426341
2019-12-23T15:00:00	0.2308	5.083		0.571295536	0.698595576	0.011123079	0.114754757	0.035368531
2019-12-23T15:05:00	0.2307	5.078		0.570789645	0.697866541	0.011104911	0.114567318	0.035310760
2019-12-23T15:10:00	0.2306	5.078		0.570620172	0.697622364	0.011098828	0.114504561	0.035291418
2019-12-23T15:15:00	0.2301	5.075		0.568767827	0.694955033	0.011032452	0.113819769	0.035080358
2019-12-23T15:20:00	0.2297	5.073		0.567588100	0.693257734	0.010990283	0.113384726	0.034946274
2019-12-23T15:25:00	0.2302	5.070		0.569101987	0.695436004	0.011044411	0.113943149	0.035118385
2019-12-23T15:30:00	0.2295	5.069		0.566912021	0.692285561	0.010966154	0.113135794	0.034869551
2019-12-23T15:35:00	0.2301	5.067		0.568762870	0.694947899	0.011032274	0.113817939	0.035079794
2019-12-23T15:40:00	0.2297	5.066		0.567583142	0.693250602	0.010990106	0.113382900	0.034945711
2019-12-23T15:45:00	0.2302	5.064		0.569097030	0.695428870	0.011044233	0.113941319	0.035117821
2019-12-23T15:50:00	0.2307	5.063		0.570946724	0.698092884	0.011110550	0.114625501	0.035328693
2019-12-23T15:55:00	0.2306	5.063		0.570440783	0.697363923	0.011092391	0.114438151	0.035270950
2019-12-23T16:00:00	0.2308	5.063		0.571280676	0.698574158	0.011122545	0.114749249	0.035366833
2019-12-23T16:05:00	0.2318	5.062		0.574512459	0.703236409	0.011238964	0.115950322	0.035737015
2019-12-23T16:10:00	0.2309	5.060		0.571691784	0.699166753	0.011137320	0.114901681	0.035413814
2019-12-23T16:15:00	0.2317	5.059		0.574250999	0.702858898	0.011229523	0.115852915	0.035706994
2019-12-23T16:20:00	0.2320	5.057		0.575128535	0.704126156	0.011261227	0.116180007	0.035807807
2019-12-23T16:25:00	0.2317	5.054		0.574325655	0.702966685	0.011232218	0.115880724	0.035715565
2019-12-23T16:30:00	0.2319	5.052		0.574867120	0.703748578	0.011251778	0.116082519	0.035777760
2019-12-23T16:35:00	0.2328	5.051		0.578095600	0.708415649	0.011368763	0.117289437	0.036149744
2019-12-23T16:40:00	0.2319	5.048		0.574941763	0.703856384	0.011254476	0.116110351	0.035786338
2019-12-23T16:45:00	0.2340	5.044		0.581861498	0.713870535	0.011506004	0.118705320	0.036586132
2019-12-23T16:50:00	0.2345	5.040		0.583742935	0.716600198	0.011574884	0.119415947	0.036805155
2019-12-23T16:55:00	0.2350	5.033		0.585288309	0.718844489	0.011631619	0.120001265	0.036985555
2019-12-23T17:00:00	0.2359	5.023		0.588172449	0.723038337	0.011737882	0.121097568	0.037323447
2019-12-23T17:05:00	0.2367	5.012		0.591054229	0.727235671	0.011844554	0.122198077	0.037662634
2019-12-23T17:10:00	0.2372	5.004		0.592596399	0.729484696	0.011901842	0.122789106	0.037844795
2019-12-23T17:15:00	0.2375	4.998		0.593803648	0.731246673	0.011946787	0.123252799	0.037987710
2019-12-23T17:20:00	0.2378	4.991		0.594676319	0.732521092	0.011979330	0.123588542	0.038091189
2019-12-23T17:25:00	0.2382	4.986		0.595882857	0.734284125	0.012024399	0.124053507	0.038234496
2019-12-23T17:30:00	0.2396	4.984		0.600760551	0.741423972	0.012207485	0.125942373	0.038816663
2019-12-23T17:35:00	0.2400	4.981		0.601965014	0.743190099	0.012252914	0.126411057	0.038961115
2019-12-23T17:40:00	0.2399	4.977		0.601835301	0.742999840	0.012248018	0.126360539	0.038945545
2019-12-23T17:45:00	0.2399	4.975		0.601705584	0.742809589	0.012243122	0.126310031	0.038929978
2019-12-23T17:50:00	0.2405	4.976		0.603576470	0.745554905	0.012313830	0.127039510	0.039154811
2019-12-23T17:55:00	0.2423	4.976		0.609774864	0.754671319	0.012549589	0.129471795	0.039904465
2019-12-23T18:00:00	0.2432	4.974		0.612639109	0.758894856	0.012659311	0.130603776	0.040253352
2019-12-23T18:05:00	0.2423	4.970		0.609848772	0.754780214	0.012552414	0.129500940	0.039913447
2019-12-23T18:10:00	0.2428	4.967		0.611382775	0.757041452	0.012611123	0.130106633	0.040100128
2019-12-23T18:15:00	0.2439	4.963		0.614910342	0.762248858	0.012746666	0.131505008	0.040531121
2019-12-23T18:20:00	0.2434	4.958		0.613451694	0.760094328	0.012690529	0.130925845	0.040352617
2019-12-23T18:25:00	0.2440	4.956		0.615316398	0.762848951	0.012762317	0.131666470	0.040580885
2019-12-23T18:30:00	0.2451	4.953		0.618840068	0.768062260	0.012898544	0.133071899	0.041014052
2019-12-23T18:35:00	0.2453	4.950		0.619706601	0.769345907	0.012932159	0.133418701	0.041120939
2019-12-23T18:40:00	0.2453	4.946		0.619577535	0.769154673	0.012927149	0.133367017	0.041105010
2019-12-23T18:45:00	0.2457	4.941		0.621107350	0.771422258	0.012986594	0.133980293	0.041294028
2019-12-23T18:50:00	0.2463	4.934		0.622968052	0.774182964	0.013059086	0.134728179	0.041524533
2019-12-23T18:55:00	0.2461	4.929		0.622175964	0.773007393	0.013028201	0.134409545	0.041426327
2019-12-23T19:00:00	0.2458	4.923		0.621383700	0.771832091	0.012997347	0.134091232	0.041328220
2019-12-23T19:05:00	0.2468	4.912		0.624570016	0.776562124	0.013121665	0.135373795	0.041723518
2019-12-23T19:10:00	0.2478	4.904		0.628084559	0.781789347	0.013259500	0.136795813	0.042161798
2019-12-23T19:15:00	0.2464	4.903		0.623317886	0.774702336	0.013072738	0.134869031	0.041567945
2019-12-23T19:20:00	0.2469	4.901		0.624846098	0.776972366	0.013132465	0.135485222	0.041757861
2019-12-23T19:25:00	0.2469	4.894		0.625048567	0.777273264	0.013140389	0.135566968	0.041783056
2019-12-23T19:30:00	0.2467	4.886		0.624256940	0.776096989	0.013109422	0.135247495	0.041684591
2019-12-23T19:35:00	0.2473	4.880		0.626447220	0.779352814	0.013195193	0.136132372	0.041957319
2019-12-23T19:40:00	0.2470	4.873		0.625324611	0.777683563	0.013151196	0.135678462	0.041817420
2019-12-23T19:45:00	0.2473	4.865		0.626189570	0.778969610	0.013185088	0.136028126	0.041925189
2019-12-23T19:50:00	0.2473	4.855		0.626391963	0.779270625	0.013193025	0.136110011	0.041950427
2019-12-23T19:55:00	0.2469	4.842		0.624938008	0.777108953	0.013136062	0.135522327	0.041769297
2019-12-23T20:00:00	0.2485	4.830		0.630106898	0.784801928	0.013339151	0.137617563	0.042415069
2019-12-23T20:05:00	0.2479	4.822		0.628323438	0.782145014	0.013268895	0.136892745	0.042191674
2019-12-23T20:10:00	0.2493	4.817		0.632826274	0.788858310	0.013446646	0.138726571	0.042756876
2019-12-23T20:15:00	0.2488	4.809		0.631374933	0.786692626	0.013389220	0.138134115	0.042574276
2019-12-23T20:20:00	0.2492	4.802		0.632569083	0.788474401	0.013436461	0.138621486	0.042724488
2019-12-23T20:25:00	0.2492	4.797		0.632440481	0.788282457	0.013431369	0.138568957	0.042708298
2019-12-23T20:30:00	0.2496	4.791		0.633964800	0.790558461	0.013491785	0.139192254	0.042900404
2019-12-23T20:35:00	0.2498	4.784		0.634497228	0.791353909	0.013512920	0.139410307	0.042967611
2019-12-23T20:40:00	0.2504	4.778		0.636681250	0.794619353	0.013599799	0.140306618	0.043243862
2019-12-23T20:45:00	0.2499	4.772		0.634901063	0.791957399	0.013528963	0.139575814	0.043018621
2019-12-23T20:50:00	0.2501	4.766		0.635433352	0.792753061	0.013550123	0.139794122	0.043085906
2019-12-23T20:55:00	0.2500	4.761		0.635304853	0.792560959	0.013545013	0.139741404	0.043069658
2019-12-23T21:00:00	0.2500	4.757		0.635176348	0.792368864	0.013539904	0.139688695	0.043053412
2019-12-23T21:05:00	0.2498	4.753		0.634717415	0.791682939	0.013521666	0.139500535	0.042995420
2019-12-23T21:10:00	0.2496	4.750		0.633927927	0.790503382	0.013490321	0.139177159	0.042895752
2019-12-23T21:15:00	0.2496	4.746		0.633799373	0.790311362	0.013485221	0.139124540	0.042879534
2019-12-23T21:20:00	0.2489	4.743		0.631687049	0.787158213	0.013401559	0.138261413	0.042613510
2019-12-23T21:25:00	0.2487	4.740		0.630896892	0.785979685	0.013370333	0.137939260	0.042514220
2019-12-23T21:30:00	0.2488	4.734		0.631099018	0.786281109	0.013378317	0.138021631	0.042539607
2019-12-23T21:35:00	0.2492	4.729		0.632623908	0.788556233	0.013438631	0.138643884	0.042731391
2019-12-23T21:40:00	0.2495	4.725		0.633487104	0.789844988	0.013472836	0.138996767	0.042840153
2019-12-23T21:45:00	0.2493	4.722		0.633027955	0.789159398	0.013454636	0.138809004	0.042782283
2019-12-23T21:50:00	0.2496	4.718		0.633891053	0.790448303	0.013488858	0.139162065	0.042891100
2019-12-23T21:55:00	0.2496	4.715		0.633762498	0.790256286	0.013483758	0.139109448	0.042874883
2019-12-23T22:00:00	0.2488	4.712		0.631319415	0.786609817	0.013387026	0.138111477	0.042567299
2019-12-23T22:05:00	0.2494	4.709		0.633312258	0.789583891	0.013465904	0.138925250	0.042818111
2019-12-23T22:10:00	0.2497	4.708		0.634312699	0.791078195	0.013505593	0.139334714	0.042944312
2019-12-23T22:15:00	0.2489	4.707		0.631676786	0.787142902	0.013401153	0.138257226	0.042612220
2019-12-23T22:20:00	0.2488	4.705		0.631354929	0.786662788	0.013388429	0.138125958	0.042571762
2019-12-23T22:25:00	0.2489	4.703		0.631694541	0.787169390	0.013401855	0.138264470	0.042614452
2019-12-23T22:30:00	0.2489	4.701		0.631703419	0.787182634	0.013402206	0.138268091	0.042615569
2019-12-23T22:35:00	0.2491	4.700		0.632373669	0.788182743	0.013428724	0.138541670	0.042699888
2019-12-23T22:40:00	0.2489	4.697		0.631721174	0.787209122	0.013402908	0.138275335	0.042617801
2019-12-23T22:45:00	0.2490	4.695		0.632060751	0.787715778	0.013416340	0.138413910	0.042660511
2019-12-23T22:50:00	0.2490	4.692		0.632069628	0.787729023	0.013416692	0.138417534	0.042661628
2019-12-23T22:55:00	0.2492	4.689		0.632739809	0.788729238	0.013443222	0.138691238	0.042745987
2019-12-23T23:00:00	0.2491	4.687		0.632087381	0.787755514	0.013417394	0.138424781	0.042663862
2019-12-23T23:05:00	0.2498	4.681		0.634410280	0.791223992	0.013509467	0.139374686	0.042956632
2019-12-23T23:10:00	0.2495	4.679		0.633427612	0.789756147	0.013470477	0.138972431	0.042832653
2019-12-23T23:15:00	0.2492	4.680		0.632444675	0.788288717	0.013431535	0.138570670	0.042708826
2019-12-23T23:20:00	0.2486	4.680		0.630469111	0.785341865	0.013353443	0.137765013	0.042460515
2019-12-23T23:25:00	0.2478	4.677		0.627830365	0.781410930	0.013249505	0.136692705	0.042130019
2019-12-23T23:30:00	0.2471	4.676		0.625520974	0.777975466	0.013158886	0.135757802	0.041841873
2019-12-23T23:35:00	0.2471	4.675		0.625529867	0.777988686	0.013159234	0.135761396	0.041842981
2019-12-23T23:40:00	0.2478	4.675		0.627857026	0.781450618	0.013250553	0.136703518	0.042133352
2019-12-23T23:45:00	0.2475	4.675		0.626872557	0.779985542	0.013211882	0.136304555	0.042010388
2019-12-23T23:50:00	0.2467	4.675		0.624231153	0.776058680	0.013108414	0.135237095	0.041681386
2019-12-23T23:55:00	0.2470	4.674		0.625234137	0.777549080	0.013147653	0.135641915	0.041806155
2019-12-24T00:00:00	0.2474	4.672		0.626568048	0.779532541	0.013199933	0.136181273	0.041972391
2019-12-24T00:05:00	0.2474	4.672		0.626576939	0.779545766	0.013200282	0.136184872	0.041973500
2019-12-24T00:10:00	0.2477	4.672		0.627579265	0.781037173	0.013239637	0.136590892	0.042098639
2019-12-24T00:15:00	0.2480	4.676		0.628581309	0.782529012	0.013279042	0.136997424	0.042223937
2019-12-24T00:20:00	0.2482	4.679		0.629252145	0.783528221	0.013305456	0.137269934	0.042307927
2019-12-24T00:25:00	0.2492	4.681		0.632568933	0.788474177	0.013436455	0.138621425	0.042724470
2019-12-24T00:30:00	0.2488	4.681		0.631255017	0.786513767	0.013384481	0.138085222	0.042559207
2019-12-24T00:35:00	0.2492	4.683		0.632586684	0.788500672	0.013437157	0.138628677	0.042726704
2019-12-24T00:40:00	0.2494	4.685		0.633256769	0.789501035	0.013463705	0.138902558	0.042811117
2019-12-24T00:45:00	0.2503	4.688		0.636239569	0.793958646	0.013582206	0.140125114	0.043187921
2019-12-24T00:50:00	0.2505	4.691		0.636908971	0.794960063	0.013608874	0.140400246	0.043272719
2019-12-24T00:55:00	0.2508	4.693		0.637908409	0.796455917	0.013648741	0.140811548	0.043399487
2019-12-24T01:00:00	0.2514	4.695		0.639897593	0.799435641	0.013728270	0.141632027	0.043652366
2019-12-24T01:05:00	0.2520	4.694		0.641885676	0.802417073	0.013807994	0.142454529	0.043905869
2019-12-24T01:10:00	0.2521	4.696		0.642224292	0.802925214	0.013821597	0.142594868	0.043949123
2019-12-24T01:15:00	0.2518	4.695		0.641243763	0.801454060	0.013782226	0.142188688	0.043823935
2019-12-24T01:20:00	0.2514	4.694		0.639933022	0.799488743	0.013729688	0.141646662	0.043656877
2019-12-24T01:25:00	0.2522	4.693		0.642580578	0.803459977	0.013835917	0.142742607	0.043994658
2019-12-24T01:30:00	0.2507	4.691		0.637640289	0.796054540	0.013638040	0.140701146	0.043365460
2019-12-24T01:35:00	0.2516	4.691		0.640619447	0.800517782	0.013757189	0.141930383	0.043744322
2019-12-24T01:40:00	0.2512	4.692		0.639308478	0.798552818	0.013704692	0.141388776	0.043577394
2019-12-24T01:45:00	0.2517	4.693		0.640967038	0.801039018	0.013771126	0.142074165	0.043788638
2019-12-24T01:50:00	0.2517	4.693		0.640975892	0.801052297	0.013771481	0.142077829	0.043789767
2019-12-24T01:55:00	0.2516	4.692		0.640654869	0.800570895	0.013758609	0.141945032	0.043748837
2019-12-24T02:00:00	0.2515	4.689		0.640333817	0.800089537	0.013745742	0.141812287	0.043707924
2019-12-24T02:05:00	0.2515	4.686		0.640012736	0.799608224	0.013732880	0.141679596	0.043667027
2019-12-24T02:10:00	0.2512	4.686		0.639031603	0.798138007	0.013693617	0.141274527	0.043542181
2019-12-24T02:15:00	0.2518	4.686		0.641020165	0.801118695	0.013773257	0.142096149	0.043795413
2019-12-24T02:20:00	0.2515	4.684		0.640039307	0.799648051	0.013733945	0.141690574	0.043670411
2019-12-24T02:25:00	0.2515	4.682		0.640048164	0.799661327	0.013734299	0.141694234	0.043671539
2019-12-24T02:30:00	0.2517	4.680		0.640716856	0.800663844	0.013761094	0.141970669	0.043756739
2019-12-24T02:35:00	0.2517	4.674		0.640725712	0.800677122	0.013761449	0.141974332	0.043757868
2019-12-24T02:40:00	0.2519	4.673		0.641394278	0.801679834	0.013788266	0.142250999	0.043843139
2019-12-24T02:45:00	0.2521	4.672		0.642062720	0.802682739	0.013815105	0.142527895	0.043928482
2019-12-24T02:50:00	0.2534	4.675		0.646355937	0.809133180	0.013988135	0.144313010	0.044478671
2019-12-24T02:55:00	0.2528	4.676		0.644388018	0.806174490	0.013908683	0.143493315	0.044226033
2019-12-24T03:00:00	0.2530	4.676		0.645055903	0.807178260	0.013935621	0.143771235	0.044311691
2019-12-24T03:05:00	0.2532	4.675		0.645723665	0.808182224	0.013962582	0.144049385	0.044397419
2019-12-24T03:10:00	0.2530	4.676		0.645073593	0.807204850	0.013936335	0.143778600	0.044313961
2019-12-24T03:15:00	0.2524	4.674		0.643104972	0.804247253	0.013857008	0.142960199	0.044061722
2019-12-24T03:20:00	0.2518	4.673		0.641135272	0.801291334	0.013777874	0.142143784	0.043810095
2019-12-24T03:25:00	0.2513	4.671		0.639494507	0.798831561	0.013712135	0.141465565	0.043601061
2019-12-24T03:30:00	0.2508	4.671		0.637852992	0.796372952	0.013646529	0.140788726	0.043392453
2019-12-24T03:35:00	0.2504	4.671		0.636541012	0.794409554	0.013594212	0.140248975	0.043226096
2019-12-24T03:40:00	0.2504	4.666		0.636549877	0.794422816	0.013594565	0.140252619	0.043227219
2019-12-24T03:45:00	0.2506	4.659		0.637219222	0.795424323	0.013621243	0.140527857	0.043312050
2019-12-24T03:50:00	0.2503	4.651		0.636237324	0.793955289	0.013582116	0.140124192	0.043187637
2019-12-24T03:55:00	0.2500	4.644		0.635255158	0.792486671	0.013543037	0.139721019	0.043063375
2019-12-24T04:00:00	0.2493	4.643		0.632950556	0.789043846	0.013451570	0.138777366	0.042772532
2019-12-24T04:05:00	0.2500	4.642		0.635108914	0.792268064	0.013537223	0.139661039	0.043044888
2019-12-24T04:10:00	0.2500	4.641		0.635284196	0.792530080	0.013544192	0.139732931	0.043067046
2019-12-24T04:15:00	0.2509	4.636		0.638101466	0.796744961	0.013656449	0.140891069	0.043423996
2019-12-24T04:20:00	0.2510	4.626		0.638606699	0.797501546	0.013676632	0.141099289	0.043488171
2019-12-24T04:25:00	0.2521	4.618		0.642080946	0.802710092	0.013815838	0.142535450	0.043930810
2019-12-24T04:30:00	0.2537	4.614		0.647527960	0.810896838	0.014035566	0.144802348	0.044629490
2019-12-24T04:35:00	0.2545	4.606		0.650006632	0.814630591	0.014136152	0.145840077	0.044949328
2019-12-24T04:40:00	0.2540	4.605		0.648535710	0.812414233	0.014076416	0.145223789	0.044759382
2019-12-24T04:45:00	0.2540	4.596		0.648381169	0.812181480	0.014070148	0.145159119	0.044739450
2019-12-24T04:50:00	0.2546	4.585		0.650530280	0.815420060	0.014157450	0.146059804	0.045017050
2019-12-24T04:55:00	0.2549	4.570		0.651362698	0.816675522	0.014191341	0.146409449	0.045124814
2019-12-24T05:00:00	0.2552	4.560		0.652523747	0.818427614	0.014238682	0.146897859	0.045275347
2019-12-24T05:05:00	0.2566	4.554		0.656969941	0.825147831	0.014420735	0.148776067	0.045854229
2019-12-24T05:10:00	0.2566	4.550		0.656815761	0.824914512	0.014414402	0.148710728	0.045834091
2019-12-24T05:15:00	0.2579	4.548		0.661256681	0.831643038	0.014597405	0.150598733	0.046415992
2019-12-24T05:20:00	0.2581	4.546		0.661758679	0.832404686	0.014618167	0.150812935	0.046482011
2019-12-24T05:25:00	0.2581	4.545		0.661932670	0.832668722	0.014625367	0.150887214	0.046504905
2019-12-24T05:30:00	0.2582	4.541		0.662106653	0.832932770	0.014632568	0.150961509	0.046527803
2019-12-24T05:35:00	0.2593	4.534		0.665885962	0.838674924	0.014789456	0.152580093	0.047026667
2019-12-24T05:40:00	0.2595	4.528		0.666387319	0.839437589	0.014810335	0.152795492	0.047093054
2019-12-24T05:45:00	0.2609	4.524		0.671143667	0.846683679	0.015009175	0.154846894	0.047725317
2019-12-24T05:50:00	0.2615	4.521		0.672952365	0.849444252	0.015085154	0.155630750	0.047966909
2019-12-24T05:55:00	0.2614	4.520		0.672798863	0.849209856	0.015078698	0.155564144	0.047946380
2019-12-24T06:00:00	0.2622	4.519		0.675260299	0.852970880	0.015182396	0.156633984	0.048276115
2019-12-24T06:05:00	0.2623	4.518		0.675760364	0.853735606	0.015203509	0.156851804	0.048343249
2019-12-24T06:10:00	0.2629	4.517		0.677566770	0.856499852	0.015279905	0.157639967	0.048586169
2019-12-24T06:15:00	0.2628	4.516		0.677413462	0.856265144	0.015273414	0.157572996	0.048565528
2019-12-24T06:20:00	0.2636	4.516		0.679871781	0.860031168	0.015377681	0.158648698	0.048897070
2019-12-24T06:25:00	0.2651	4.518		0.684610553	0.867305435	0.015579724	0.160733144	0.049539516
2019-12-24T06:30:00	0.2662	4.518		0.688366578	0.873084908	0.015740855	0.162395495	0.050051869
2019-12-24T06:35:00	0.2665	4.518		0.689190371	0.874354125	0.015776311	0.162761297	0.050164613
2019-12-24T06:40:00	0.2677	4.518		0.693266858	0.880643409	0.015952387	0.164577841	0.050724489
2019-12-24T06:45:00	0.2683	4.517		0.695064631	0.883421621	0.016030367	0.165382339	0.050972443
2019-12-24T06:50:00	0.2681	4.518		0.694587044	0.882683302	0.016009632	0.165168418	0.050906510
2019-12-24T06:55:00	0.2685	4.518		0.695734379	0.884457340	0.016059469	0.165682579	0.051064980
2019-12-24T07:00:00	0.2685	4.518		0.695906755	0.884723971	0.016066963	0.165759899	0.051088811
2019-12-24T07:05:00	0.2684	4.519		0.695429277	0.883985473	0.016046208	0.165545770	0.051022814
2019-12-24T07:10:00	0.2685	4.518		0.695926590	0.884754654	0.016067826	0.165768798	0.051091553
2019-12-24T07:15:00	0.2688	4.520		0.696748685	0.886026637	0.016103596	0.166137828	0.051205292
2019-12-24T07:20:00	0.2686	4.522		0.696271317	0.885287960	0.016082820	0.165923490	0.051139231
2019-12-24T07:25:00	0.2688	4.524		0.696768516	0.886057327	0.016104459	0.166146735	0.051208037
2019-12-24T07:30:00	0.2692	4.527		0.698239886	0.888335387	0.016168586	0.166808321	0.051411944
2019-12-24T07:35:00	0.2698	4.529		0.700035226	0.891117579	0.016247015	0.167617459	0.051661329
2019-12-24T07:40:00	0.2694	4.532		0.698909054	0.889372052	0.016197795	0.167109665	0.051504822
2019-12-24T07:45:00	0.2698	4.536		0.700055039	0.891148298	0.016247882	0.167626400	0.051664084
2019-12-24T07:50:00	0.2701	4.539		0.700876210	0.892421794	0.016283822	0.167997193	0.051778367
2019-12-24T07:55:00	0.2705	4.543		0.702345937	0.894702549	0.016348254	0.168661919	0.051983241
2019-12-24T08:00:00	0.2712	4.547		0.704463441	0.897991841	0.016441320	0.169622064	0.052279167
2019-12-24T08:05:00	0.2713	4.553		0.704959533	0.898763025	0.016463164	0.169847425	0.052348626
2019-12-24T08:10:00	0.2729	4.561		0.709989700	0.906594606	0.016685522	0.172141457	0.053055669
2019-12-24T08:15:00	0.2732	4.568		0.711132242	0.908376526	0.016736249	0.172664794	0.053216966
2019-12-24T08:20:00	0.2740	4.577		0.713568075	0.912179278	0.016844668	0.173783333	0.053561711
2019-12-24T08:25:00	0.2745	4.587		0.715355962	0.914973771	0.016924483	0.174606775	0.053815504
2019-12-24T08:30:00	0.2747	4.598		0.715850592	0.915747377	0.016946600	0.174834950	0.053885830
2019-12-24T08:35:00	0.2751	4.607		0.717314364	0.918037982	0.017012141	0.175511124	0.054094233
2019-12-24T08:40:00	0.2754	4.618		0.718131702	0.919317820	0.017048796	0.175889288	0.054210787
2019-12-24T08:45:00	0.2752	4.627		0.717657096	0.918574582	0.017027506	0.175669645	0.054143091
2019-12-24T08:50:00	0.2752	4.638		0.717505453	0.918337149	0.017020707	0.175599498	0.054121471
2019-12-24T08:55:00	0.2755	4.651		0.718645674	0.920122928	0.017071868	0.176127313	0.054284148
2019-12-24T09:00:00	0.2767	4.666		0.722367135	0.925959279	0.017239415	0.177855863	0.054816904
2019-12-24T09:05:00	0.2764	4.681		0.721570430	0.924708790	0.017203472	0.177485052	0.054702617
2019-12-24T09:10:00	0.2764	4.695		0.721418948	0.924471091	0.017196643	0.177414595	0.054680901
2019-12-24T09:15:00	0.2763	4.709		0.720944763	0.923727149	0.017175274	0.177194137	0.054612954
2019-12-24T09:20:00	0.2773	4.719		0.724341517	0.929060613	0.017328658	0.178776575	0.055100677
2019-12-24T09:25:00	0.2753	4.726		0.717735969	0.918698085	0.017031044	0.175706137	0.054154338
2019-12-24T09:30:00	0.2752	4.724		0.717584330	0.918460647	0.017024244	0.175635983	0.054132716
2019-12-24T09:35:00	0.2741	4.712		0.713877792	0.912663171	0.016858480	0.173925830	0.053605630
2019-12-24T09:40:00	0.2744	4.703		0.715019131	0.914447086	0.016909431	0.174451484	0.053767642
2019-12-24T09:45:00	0.2751	4.698		0.717129375	0.917748397	0.017003851	0.175425594	0.054067872
2019-12-24T09:50:00	0.2757	4.703		0.719238416	0.921051712	0.017098496	0.176402029	0.054368819
2019-12-24T09:55:00	0.2743	4.711		0.714563861	0.913735361	0.016889097	0.174241704	0.053702985
2019-12-24T10:00:00	0.2733	4.723		0.711501418	0.908952541	0.016752657	0.172834074	0.053269140
2019-12-24T10:05:00	0.2713	4.735		0.705010523	0.898842301	0.016465410	0.169870597	0.052355768
2019-12-24T10:10:00	0.2713	4.746		0.704996023	0.898819757	0.016464771	0.169864008	0.052353737
2019-12-24T10:15:00	0.2716	4.755		0.705953719	0.900309149	0.016506986	0.170299535	0.052487971
2019-12-24T10:20:00	0.2727	4.761		0.709501764	0.905833962	0.016663884	0.171918217	0.052986864
2019-12-24T10:25:00	0.2734	4.767		0.711752572	0.909344477	0.016763824	0.172949287	0.053304650
2019-12-24T10:30:00	0.2731	4.772		0.710767426	0.907807432	0.016720043	0.172497600	0.053165436
2019-12-24T10:35:00	0.2731	4.780		0.710752949	0.907784851	0.016719400	0.172490967	0.053163391
2019-12-24T10:40:00	0.2722	4.787		0.707824898	0.903221476	0.016589633	0.171152189	0.052750767
2019-12-24T10:45:00	0.2705	4.791		0.702300678	0.894632287	0.016346267	0.168641428	0.051976926
2019-12-24T10:50:00	0.2702	4.793		0.701313001	0.893099419	0.016302957	0.168194599	0.051839209
2019-12-24T10:55:00	0.2706	4.790		0.702595989	0.895090772	0.016359229	0.168775150	0.052018140
2019-12-24T11:00:00	0.2712	4.791		0.704526884	0.898090451	0.016444112	0.169650875	0.052288047
2019-12-24T11:05:00	0.2701	4.802		0.700945007	0.892528512	0.016286835	0.168028277	0.051787947
2019-12-24T11:10:00	0.2693	4.810		0.698333850	0.888480930	0.016172686	0.166850618	0.051424981
2019-12-24T11:15:00	0.2687	4.812		0.696370630	0.885441619	0.016087141	0.165968069	0.051152971
2019-12-24T11:20:00	0.2675	4.818		0.692455585	0.879390614	0.015917264	0.164215477	0.050612805
2019-12-24T11:25:00	0.2663	4.825		0.688536352	0.873346430	0.015748158	0.162470847	0.050075093
2019-12-24T11:30:00	0.2647	4.819		0.683309029	0.865305596	0.015524094	0.160159215	0.049362625
2019-12-24T11:35:00	0.2650	4.809		0.684598334	0.867286654	0.015579202	0.160727751	0.049537854
2019-12-24T11:40:00	0.2644	4.798		0.682627733	0.864259343	0.015495015	0.159859217	0.049270163
2019-12-24T11:45:00	0.2635	4.790		0.679677134	0.859732789	0.015369411	0.158563385	0.048870775
2019-12-24T11:50:00	0.2631	4.783		0.678356876	0.857709792	0.015313384	0.157985357	0.048692621
2019-12-24T11:55:00	0.2634	4.784		0.679321561	0.859187805	0.015354311	0.158407601	0.048822761
2019-12-24T12:00:00	0.2637	4.788		0.680285990	0.860666229	0.015395286	0.158830326	0.048953049
2019-12-24T12:05:00	0.2626	4.795		0.676680308	0.855142996	0.015242390	0.157252930	0.048466880
2019-12-24T12:10:00	0.2631	4.804		0.678298451	0.857620304	0.015310907	0.157959803	0.048684745
2019-12-24T12:15:00	0.2635	4.813		0.679589529	0.859598507	0.015365690	0.158524996	0.048858943
2019-12-24T12:20:00	0.2628	4.820		0.677289665	0.856075631	0.015268173	0.157518927	0.048548863
2019-12-24T12:25:00	0.2626	4.827		0.676621856	0.855053551	0.015239918	0.157227428	0.048459020
2019-12-24T12:30:00	0.2617	4.834		0.673666389	0.850534823	0.015115203	0.155940766	0.048062459
2019-12-24T12:35:00	0.2608	4.841		0.670708517	0.846019940	0.014990926	0.154658618	0.047667288
2019-12-24T12:40:00	0.2606	4.848		0.670039499	0.844999796	0.014962891	0.154369389	0.047578145
2019-12-24T12:45:00	0.2595	4.852		0.666423639	0.839492847	0.014811848	0.152811102	0.047097866
2019-12-24T12:50:00	0.2591	4.852		0.665098558	0.837477560	0.014756697	0.152242122	0.046922501
2019-12-24T12:55:00	0.2587	4.853		0.663772992	0.835463042	0.014701634	0.151674047	0.046747414
2019-12-24T13:00:00	0.2586	4.858		0.663430526	0.834942825	0.014687426	0.151527462	0.046702235
2019-12-24T13:05:00	0.2583	4.866		0.662432272	0.833427023	0.014646051	0.151100608	0.046570675
2019-12-24T13:10:00	0.2572	4.874		0.658808810	0.827932134	0.014496383	0.149556508	0.046094768
2019-12-24T13:15:00	0.2581	4.877		0.661747052	0.832387043	0.014617686	0.150807972	0.046480482
2019-12-24T13:20:00	0.2592	4.882		0.665338259	0.837842005	0.014766665	0.152344966	0.046954198
2019-12-24T13:25:00	0.2581	4.884		0.662045663	0.832840205	0.014630044	0.150935463	0.046519776
2019-12-24T13:30:00	0.2582	4.888		0.662358920	0.833315675	0.014643013	0.151069267	0.046561015
2019-12-24T13:35:00	0.2581	4.889		0.662016319	0.832795671	0.014628829	0.150922932	0.046515913
2019-12-24T13:40:00	0.2581	4.889		0.662001647	0.832773404	0.014628222	0.150916667	0.046513982
2019-12-24T13:45:00	0.2579	4.887		0.661331021	0.831755815	0.014600478	0.150630443	0.046425766
2019-12-24T13:50:00	0.2567	4.886		0.657378106	0.825765599	0.014437508	0.148949113	0.045907563
2019-12-24T13:55:00	0.2562	4.884		0.655721208	0.823258724	0.014369483	0.148247305	0.045691259
2019-12-24T14:00:00	0.2558	4.884		0.654392202	0.821249641	0.014315040	0.147685633	0.045518146
2019-12-24T14:05:00	0.2558	4.882		0.654377499	0.821227423	0.014314439	0.147679425	0.045516233
2019-12-24T14:10:00	0.2557	4.881		0.654034141	0.820708612	0.014300391	0.147534498	0.045471565
2019-12-24T14:15:00	0.2543	4.879		0.649415107	0.813739071	0.014112114	0.145592076	0.044872892
2019-12-24T14:20:00	0.2530	4.879		0.645119644	0.807274076	0.013938194	0.143797774	0.044319870
2019-12-24T14:25:00	0.2533	4.878		0.646093222	0.808738007	0.013977515	0.144203441	0.044444901
2019-12-24T14:30:00	0.2537	4.876		0.647395827	0.810697946	0.014030215	0.144747137	0.044612473
2019-12-24T14:35:00	0.2538	4.873		0.647710357	0.811171414	0.014042955	0.144878579	0.044652985
2019-12-24T14:40:00	0.2534	4.868		0.646378395	0.809166963	0.013989043	0.144322378	0.044481559
2019-12-24T14:45:00	0.2526	4.864		0.643727736	0.805182520	0.013882077	0.143218833	0.044141435
2019-12-24T14:50:00	0.2521	4.859		0.642064550	0.802685486	0.013815179	0.142528654	0.043928715
2019-12-24T14:55:00	0.2519	4.856		0.641390206	0.801673726	0.013788103	0.142249313	0.043842620
2019-12-24T15:00:00	0.2515	4.851		0.640055900	0.799672923	0.013734609	0.141697430	0.043672524
2019-12-24T15:05:00	0.2518	4.846		0.641030850	0.801134720	0.013773685	0.142100570	0.043796776
2019-12-24T15:10:00	0.2524	4.842		0.642994707	0.804081693	0.013852572	0.142914431	0.044047616
2019-12-24T15:15:00	0.2526	4.837		0.643639257	0.805049621	0.013878514	0.143182073	0.044130105
2019-12-24T15:20:00	0.2525	4.833		0.643624510	0.805027472	0.013877920	0.143175946	0.044128217
2019-12-24T15:25:00	0.2521	4.828		0.642291033	0.803025380	0.013824279	0.142622537	0.043957651
2019-12-24T15:30:00	0.2524	4.822		0.643265378	0.804488119	0.013863463	0.143026792	0.044082246
2019-12-24T15:35:00	0.2526	4.819		0.643909878	0.805456123	0.013889414	0.143294523	0.044164764
2019-12-24T15:40:00	0.2530	4.816		0.645213274	0.807414829	0.013941973	0.143836761	0.044331887
2019-12-24T15:45:00	0.2539	4.813		0.648162600	0.811852331	0.014061285	0.145067680	0.044711268
2019-12-24T15:50:00	0.2544	4.811		0.649793529	0.814309377	0.014127490	0.145750707	0.044921783
2019-12-24T15:55:00	0.2561	4.809		0.655368452	0.822725309	0.014355022	0.148098113	0.045645277
2019-12-24T16:00:00	0.2568	4.807		0.657652868	0.826181539	0.014448805	0.149065661	0.045943484
2019-12-24T16:05:00	0.2575	4.806		0.659950521	0.829662298	0.014543455	0.150042140	0.046244445
2019-12-24T16:10:00	0.2586	4.804		0.663558175	0.835136716	0.014692721	0.151582090	0.046719072
2019-12-24T16:15:00	0.2585	4.804		0.663230355	0.834638807	0.014679124	0.151441818	0.046675839
2019-12-24T16:20:00	0.2589	4.801		0.664541457	0.836630727	0.014733542	0.152003239	0.046848875
2019-12-24T16:25:00	0.2588	4.795		0.664213726	0.836132676	0.014719930	0.151862801	0.046805590
2019-12-24T16:30:00	0.2600	4.790		0.668144546	0.842112386	0.014883634	0.153551708	0.047326128
2019-12-24T16:35:00	0.2595	4.785		0.666507222	0.839620017	0.014815330	0.152847029	0.047108939
2019-12-24T16:40:00	0.2578	4.778		0.660934783	0.831154757	0.014584099	0.150461463	0.046373684
2019-12-24T16:45:00	0.2573	4.773		0.659294198	0.828667560	0.014516385	0.149762869	0.046158371
2019-12-24T16:50:00	0.2571	4.768		0.658637755	0.827673011	0.014489337	0.149483820	0.046072365
2019-12-24T16:55:00	0.2568	4.764		0.657652868	0.826181539	0.014448805	0.149065661	0.045943484
2019-12-24T17:00:00	0.2557	4.758		0.654039316	0.820716430	0.014300603	0.147536681	0.045472238
2019-12-24T17:05:00	0.2563	4.753		0.656010792	0.823696693	0.014381360	0.148369839	0.045729025
2019-12-24T17:10:00	0.2570	4.745		0.658309489	0.827175806	0.014475821	0.149344378	0.046029388
2019-12-24T17:15:00	0.2561	4.740		0.655353753	0.822703084	0.014354419	0.148091898	0.045643361
2019-12-24T17:20:00	0.2556	4.736		0.653710631	0.820219884	0.014287162	0.147398016	0.045429500
2019-12-24T17:25:00	0.2545	4.730		0.650093129	0.814760981	0.014139669	0.145876360	0.044960511
2019-12-24T17:30:00	0.2541	4.722		0.648776773	0.812777336	0.014086197	0.145324697	0.044790483
2019-12-24T17:35:00	0.2539	4.716		0.648118415	0.811785796	0.014059493	0.145049199	0.044705572
2019-12-24T17:40:00	0.2538	4.710		0.647789191	0.811290096	0.014046149	0.144911533	0.044663142
2019-12-24T17:45:00	0.2535	4.705		0.646801337	0.809803280	0.014006150	0.144498870	0.044535955
2019-12-24T17:50:00	0.2544	4.701		0.649764085	0.814265000	0.014126293	0.145738361	0.044917978
2019-12-24T17:55:00	0.2530	4.697		0.645154312	0.807326192	0.013939593	0.143812209	0.044324320
2019-12-24T18:00:00	0.2535	4.694		0.646801337	0.809803280	0.014006150	0.144498870	0.044535955
2019-12-24T18:05:00	0.2534	4.692		0.646471993	0.809307768	0.013992828	0.144361426	0.044493594
2019-12-24T18:10:00	0.2531	4.690		0.645483778	0.807821515	0.013952893	0.143949430	0.044366612
2019-12-24T18:15:00	0.2533	4.687		0.646142618	0.808812303	0.013979511	0.144224038	0.044451249
2019-12-24T18:20:00	0.2536	4.685		0.647130652	0.810298838	0.014019478	0.144636368	0.044578333
2019-12-24T18:25:00	0.2528	4.682		0.644495291	0.806335686	0.013913008	0.143537934	0.044239785
2019-12-24T18:30:00	0.2526	4.678		0.643836149	0.805345368	0.013886444	0.143263882	0.044155320
2019-12-24T18:35:00	0.2522	4.675		0.642517503	0.803365296	0.013833381	0.142716446	0.043986595
2019-12-24T18:40:00	0.2523	4.672		0.642847210	0.803860243	0.013846639	0.142853221	0.044028750
2019-12-24T18:45:00	0.2523	4.671		0.642847210	0.803860243	0.013846639	0.142853221	0.044028750
2019-12-24T18:50:00	0.2525	4.670		0.643506533	0.804850279	0.013873170	0.143126939	0.044113113
2019-12-24T18:55:00	0.2520	4.672		0.641857998	0.802375542	0.013806882	0.142443061	0.043902335
2019-12-24T19:00:00	0.2524	4.672		0.643176886	0.804355238	0.013859902	0.142990053	0.044070923
2019-12-24T19:05:00	0.2524	4.672		0.643176886	0.804355238	0.013859902	0.142990053	0.044070923
2019-12-24T19:10:00	0.2531	4.672		0.645483778	0.807821515	0.013952893	0.143949430	0.044366612
2019-12-24T19:15:00	0.2529	4.671		0.644824817	0.806830915	0.013926297	0.143675044	0.044282044
2019-12-24T19:20:00	0.2533	4.670		0.646142618	0.808812303	0.013979511	0.144224038	0.044451249
2019-12-24T19:25:00	0.2534	4.670		0.646471993	0.809307768	0.013992828	0.144361426	0.044493594
2019-12-24T19:30:00	0.2522	4.671		0.642517503	0.803365296	0.013833381	0.142716446	0.043986595
2019-12-24T19:35:00	0.2529	4.671		0.644824817	0.806830915	0.013926297	0.143675044	0.044282044
2019-12-24T19:40:00	0.2528	4.672		0.644495291	0.806335686	0.013913008	0.143537934	0.044239785
2019-12-24T19:45:00	0.2526	4.673		0.643836149	0.805345368	0.013886444	0.143263882	0.044155320
2019-12-24T19:50:00	0.2529	4.675		0.644824817	0.806830915	0.013926297	0.143675044	0.044282044
2019-12-24T19:55:00	0.2522	4.678		0.642517503	0.803365296	0.013833381	0.142716446	0.043986595
2019-12-24T20:00:00	0.2525	4.681		0.643506533	0.804850279	0.013873170	0.143126939	0.044113113
2019-12-24T20:05:00	0.2528	4.684		0.644495291	0.806335686	0.013913008	0.143537934	0.044239785
2019-12-24T20:10:00	0.2532	4.687		0.645813213	0.808316886	0.013966200	0.144086706	0.044408922
2019-12-24T20:15:00	0.2537	4.690		0.647459936	0.810794444	0.014032811	0.144773923	0.044620729
2019-12-24T20:20:00	0.2543	4.692		0.649435011	0.813769065	0.014112922	0.145600418	0.044875463
2019-12-24T20:25:00	0.2526	4.696		0.643836149	0.805345368	0.013886444	0.143263882	0.044155320
2019-12-24T20:30:00	0.2536	4.697		0.647130652	0.810298838	0.014019478	0.144636368	0.044578333
2019-12-24T20:35:00	0.2540	4.700		0.648447609	0.812281543	0.014072842	0.145186920	0.044748019
2019-12-24T20:40:00	0.2540	4.705		0.648447609	0.812281543	0.014072842	0.145186920	0.044748019
2019-12-24T20:45:00	0.2548	4.710		0.651080081	0.816249209	0.014179830	0.146290691	0.045088212
2019-12-24T20:50:00	0.2547	4.713		0.650751127	0.815753086	0.014166438	0.146152525	0.045045628
2019-12-24T20:55:00	0.2540	4.710		0.648447609	0.812281543	0.014072842	0.145186920	0.044748019
2019-12-24T21:00:00	0.2542	4.710		0.649105907	0.813273177	0.014099557	0.145462529	0.044832964
2019-12-24T21:05:00	0.2542	4.714		0.649105907	0.813273177	0.014099557	0.145462529	0.044832964
2019-12-24T21:10:00	0.2546	4.718		0.650422143	0.815257010	0.014153051	0.146014415	0.045003061
2019-12-24T21:15:00	0.2556	4.717		0.653710631	0.820219884	0.014287162	0.147398016	0.045429500
2019-12-24T21:20:00	0.2557	4.709		0.654039316	0.820716430	0.014300603	0.147536681	0.045472238
2019-12-24T21:25:00	0.2559	4.700		0.654696594	0.821709663	0.014327500	0.147814178	0.045557765
2019-12-24T21:30:00	0.2541	4.693		0.648776773	0.812777336	0.014086197	0.145324697	0.044790483
2019-12-24T21:35:00	0.2545	4.684		0.650093129	0.814760981	0.014139669	0.145876360	0.044960511
2019-12-24T21:40:00	0.2547	4.675		0.650751127	0.815753086	0.014166438	0.146152525	0.045045628
2019-12-24T21:45:00	0.2555	4.664		0.653381917	0.819723385	0.014273727	0.147259406	0.045386779
2019-12-24T21:50:00	0.2550	4.655		0.651737898	0.817241596	0.014206631	0.146567189	0.045173431
2019-12-24T21:55:00	0.2554	4.645		0.653053174	0.819226933	0.014260297	0.147120852	0.045344075
2019-12-24T22:00:00	0.2558	4.644		0.654367970	0.821213023	0.014314049	0.147675402	0.045514993
2019-12-24T22:05:00	0.2560	4.651		0.654891506	0.822004272	0.014335482	0.147896521	0.045583144
2019-12-24T22:10:00	0.2561	4.656		0.655414967	0.822795640	0.014356928	0.148117781	0.045651339
2019-12-24T22:15:00	0.2573	4.658		0.659221823	0.828557890	0.014513402	0.149732090	0.046148884
2019-12-24T22:20:00	0.2560	4.662		0.655147627	0.822391445	0.014345973	0.148004758	0.045616504
2019-12-24T22:25:00	0.2553	4.667		0.652713153	0.818713549	0.014246413	0.146977616	0.045299929
2019-12-24T22:30:00	0.2555	4.670		0.653236930	0.819504421	0.014267803	0.147198290	0.045367943
2019-12-24T22:35:00	0.2544	4.675		0.649814139	0.814340442	0.014128327	0.145759349	0.044924447
2019-12-24T22:40:00	0.2546	4.681		0.650338336	0.815130653	0.014149642	0.145979243	0.044992220
2019-12-24T22:45:00	0.2537	4.686		0.647571369	0.810962182	0.014037324	0.144820488	0.044635081
2019-12-24T22:50:00	0.2540	4.690		0.648425090	0.812247627	0.014071929	0.145177497	0.044745114
2019-12-24T22:55:00	0.2542	4.698		0.648949489	0.813037522	0.014093207	0.145397017	0.044812773
2019-12-24T23:00:00	0.2532	4.703		0.645852053	0.808375296	0.013967769	0.144102896	0.044413912
2019-12-24T23:05:00	0.2529	4.707		0.644729609	0.806687822	0.013922457	0.143635422	0.044269832
2019-12-24T23:10:00	0.2523	4.711		0.642947509	0.804010828	0.013850673	0.142894843	0.044041578
2019-12-24T23:15:00	0.2533	4.717		0.646108817	0.808761463	0.013978145	0.144209943	0.044446905
2019-12-24T23:20:00	0.2534	4.722		0.646304194	0.809055344	0.013986043	0.144291426	0.044472019
2019-12-24T23:25:00	0.2528	4.723		0.644522874	0.806377135	0.013914120	0.143549408	0.044243322
2019-12-24T23:30:00	0.2530	4.721		0.645047842	0.807166143	0.013935296	0.143767879	0.044310657
2019-12-24T23:35:00	0.2528	4.721		0.644584272	0.806469403	0.013916596	0.143574951	0.044251194
2019-12-24T23:40:00	0.2537	4.726		0.647414885	0.810726631	0.014030986	0.144755099	0.044614927
2019-12-24T23:45:00	0.2527	4.727		0.643986555	0.805571311	0.013892503	0.143326393	0.044174586
2019-12-24T23:50:00	0.2528	4.732		0.644511602	0.806360196	0.013913665	0.143544719	0.044241877
2019-12-24T23:55:00	0.2529	4.740		0.644707066	0.806653942	0.013921548	0.143626042	0.044266941
2019-12-25T00:00:00	0.2528	4.749		0.644573000	0.806452463	0.013916141	0.143570262	0.044249749
2019-12-25T00:05:00	0.2533	4.756		0.646086283	0.808727570	0.013977234	0.144200547	0.044444009
2019-12-25T00:10:00	0.2534	4.761		0.646281661	0.809021449	0.013985132	0.144282027	0.044469122
2019-12-25T00:15:00	0.2536	4.767		0.647135687	0.810306416	0.014019682	0.144638471	0.044578982
2019-12-25T00:20:00	0.2533	4.772		0.646013643	0.808618317	0.013974298	0.144170259	0.044434674
2019-12-25T00:25:00	0.2527	4.775		0.644232179	0.805940332	0.013902401	0.143428507	0.044206059
2019-12-25T00:30:00	0.2535	4.776		0.646733747	0.809701580	0.014003416	0.144470657	0.044527260
2019-12-25T00:35:00	0.2524	4.776		0.643304768	0.804547272	0.013865048	0.143043148	0.044087287
2019-12-25T00:40:00	0.2527	4.780		0.644159501	0.805831137	0.013899472	0.143398289	0.044196745
2019-12-25T00:45:00	0.2528	4.784		0.644354984	0.806124853	0.013907351	0.143479576	0.044221799
2019-12-25T00:50:00	0.2534	4.786		0.646527128	0.809390715	0.013995058	0.144384431	0.044500684
2019-12-25T00:55:00	0.2532	4.791		0.645734336	0.808198271	0.013963013	0.144053832	0.044398790
2019-12-25T01:00:00	0.2540	4.795		0.648564045	0.812456910	0.014077566	0.145235648	0.044763037
2019-12-25T01:05:00	0.2537	4.799		0.647442445	0.810768116	0.014032102	0.144766615	0.044618477
2019-12-25T01:10:00	0.2533	4.801		0.645991108	0.808584424	0.013973388	0.144160864	0.044431778
2019-12-25T01:15:00	0.2539	4.803		0.648162265	0.811851826	0.014061271	0.145067540	0.044711225
2019-12-25T01:20:00	0.2534	4.805		0.646381864	0.809172182	0.013989183	0.144323825	0.044482005
2019-12-25T01:25:00	0.2541	4.806		0.648881940	0.812935760	0.014090465	0.145368731	0.044804055
2019-12-25T01:30:00	0.2543	4.810		0.649406273	0.813725759	0.014111755	0.145588374	0.044871751
2019-12-25T01:35:00	0.2544	4.814		0.649601471	0.814019919	0.014119685	0.145670187	0.044896966
2019-12-25T01:40:00	0.2545	4.819		0.650125700	0.814810082	0.014140994	0.145890024	0.044964722
2019-12-25T01:45:00	0.2555	4.824		0.653280717	0.819570548	0.014269592	0.147216746	0.045373631
2019-12-25T01:50:00	0.2552	4.828		0.652489410	0.818375781	0.014237281	0.146883403	0.045270891
2019-12-25T01:55:00	0.2545	4.832		0.650053142	0.814700702	0.014138043	0.145859586	0.044955341
2019-12-25T02:00:00	0.2549	4.834		0.651235214	0.816483210	0.014186148	0.146355873	0.045108301
2019-12-25T02:05:00	0.2552	4.837		0.652416899	0.818266326	0.014234322	0.146852877	0.045261483
2019-12-25T02:10:00	0.2549	4.838		0.651296498	0.816575656	0.014188644	0.146381627	0.045116239
2019-12-25T02:15:00	0.2553	4.841		0.652806959	0.818855173	0.014250243	0.147017125	0.045312106
2019-12-25T02:20:00	0.2553	4.842		0.652673195	0.818653224	0.014244782	0.146960788	0.045294742
2019-12-25T02:25:00	0.2549	4.844		0.651223963	0.816466239	0.014185690	0.146351145	0.045106844
2019-12-25T02:30:00	0.2546	4.848		0.650432204	0.815272180	0.014153460	0.146018638	0.045004362
2019-12-25T02:35:00	0.2541	4.849		0.648652925	0.812590784	0.014081171	0.145272851	0.044774503
2019-12-25T02:40:00	0.2542	4.848		0.649177292	0.813380731	0.014102455	0.145492433	0.044842181
2019-12-25T02:45:00	0.2538	4.844		0.647726654	0.811195947	0.014043615	0.144885391	0.044655085
2019-12-25T02:50:00	0.2538	4.840		0.647592701	0.810994294	0.014038189	0.144829403	0.044637829
2019-12-25T02:55:00	0.2542	4.843		0.649104714	0.813271380	0.014099508	0.145462030	0.044832810
2019-12-25T03:00:00	0.2542	4.847		0.648970813	0.813069646	0.014094072	0.145405947	0.044815525
2019-12-25T03:05:00	0.2545	4.851		0.650153240	0.814851599	0.014142113	0.145901578	0.044968283
2019-12-25T03:10:00	0.2536	4.855		0.647056839	0.810187756	0.014016490	0.144605544	0.044568833
2019-12-25T03:15:00	0.2546	4.859		0.650543545	0.815440062	0.014157990	0.146065373	0.045018766
2019-12-25T03:20:00	0.2545	4.862		0.650080682	0.814742218	0.014139163	0.145871139	0.044958902
2019-12-25T03:25:00	0.2538	4.865		0.647642785	0.811069688	0.014040217	0.144850335	0.044644280
2019-12-25T03:30:00	0.2540	4.867		0.648496488	0.812355159	0.014074825	0.145207375	0.044754323
2019-12-25T03:35:00	0.2539	4.869		0.648033362	0.811657726	0.014056045	0.145013627	0.044694608
2019-12-25T03:40:00	0.2540	4.871		0.648557819	0.812447532	0.014077313	0.145233042	0.044762234
2019-12-25T03:45:00	0.2539	4.872		0.648094700	0.811750087	0.014058532	0.145039280	0.044702515
2019-12-25T03:50:00	0.2529	4.875		0.644667018	0.806593756	0.013919933	0.143609378	0.044261805
2019-12-25T03:55:00	0.2525	4.877		0.643544204	0.804906857	0.013874687	0.143142587	0.044117935
2019-12-25T04:00:00	0.2530	4.879		0.645057919	0.807181289	0.013935703	0.143772074	0.044311950
2019-12-25T04:05:00	0.2523	4.881		0.642718826	0.803667506	0.013841476	0.142799954	0.044012333
2019-12-25T04:10:00	0.2515	4.883		0.640048276	0.799661495	0.013734304	0.141694280	0.043671553
2019-12-25T04:15:00	0.2511	4.883		0.638696274	0.797635708	0.013680212	0.141136222	0.043499554
2019-12-25T04:20:00	0.2506	4.882		0.637343763	0.795610710	0.013626210	0.140579100	0.043327844
2019-12-25T04:25:00	0.2500	4.884		0.635330036	0.792598607	0.013546015	0.139751735	0.043072842
2019-12-25T04:30:00	0.2508	4.886		0.637940156	0.796503446	0.013650009	0.140824623	0.043403517
2019-12-25T04:35:00	0.2499	4.889		0.634935643	0.792009082	0.013530337	0.139589991	0.043022991
2019-12-25T04:40:00	0.2498	4.889		0.634573208	0.791467442	0.013515938	0.139441439	0.042977206
2019-12-25T04:45:00	0.2501	4.888		0.635532437	0.792901199	0.013554064	0.139834779	0.043098437
2019-12-25T04:50:00	0.2490	4.889		0.631864560	0.787423045	0.013408579	0.138333839	0.042635833
2019-12-25T04:55:00	0.2489	4.890		0.631501813	0.786881884	0.013394235	0.138185856	0.042590223
2019-12-25T05:00:00	0.2477	4.890		0.627498711	0.780917282	0.013236472	0.136558238	0.042088575
2019-12-25T05:05:00	0.2477	4.892		0.627466646	0.780869561	0.013235212	0.136545241	0.042084570
2019-12-25T05:10:00	0.2470	4.894		0.625447353	0.777866021	0.013156003	0.135728053	0.041832704
2019-12-25T05:15:00	0.2473	4.895		0.626409032	0.779296012	0.013193695	0.136116918	0.041952556
2019-12-25T05:20:00	0.2465	4.898		0.623726289	0.775308791	0.013088686	0.135033561	0.041618655
2019-12-25T05:25:00	0.2463	4.899		0.623031210	0.774276722	0.013061550	0.134753602	0.041532369
2019-12-25T05:30:00	0.2462	4.901		0.622667566	0.773736938	0.013047365	0.134607256	0.041487264
2019-12-25T05:35:00	0.2454	4.904		0.619982007	0.769754015	0.012942852	0.133529021	0.041154941
2019-12-25T05:40:00	0.2455	4.906		0.620281667	0.770198136	0.012954492	0.133649110	0.041191954
2019-12-25T05:45:00	0.2447	4.905		0.617594310	0.766217952	0.012850297	0.132574142	0.040860638
2019-12-25T05:50:00	0.2439	4.901		0.614904923	0.762240850	0.012746458	0.131502854	0.040530457
2019-12-25T05:55:00	0.2434	4.893		0.613210950	0.759738904	0.012681276	0.130830383	0.040323195
2019-12-25T06:00:00	0.2430	4.892		0.612181298	0.758219318	0.012641740	0.130422503	0.040197482
2019-12-25T06:05:00	0.2427	4.892		0.611151348	0.756700184	0.012602257	0.130015162	0.040071936
2019-12-25T06:10:00	0.2424	4.890		0.610121098	0.755181500	0.012562826	0.129608360	0.039946555
2019-12-25T06:15:00	0.2425	4.886		0.610421590	0.755624361	0.012574320	0.129726944	0.039983104
2019-12-25T06:20:00	0.2420	4.885		0.608725478	0.753125647	0.012509513	0.129058338	0.039777033
2019-12-25T06:25:00	0.2424	4.887		0.610024434	0.755039053	0.012559130	0.129570225	0.039934802
2019-12-25T06:30:00	0.2421	4.889		0.608993857	0.753520862	0.012519756	0.129164014	0.039809604
2019-12-25T06:35:00	0.2424	4.889		0.609959989	0.754944090	0.012556666	0.129544805	0.039926967
2019-12-25T06:40:00	0.2421	4.889		0.608929394	0.753425928	0.012517295	0.129138627	0.039801779
2019-12-25T06:45:00	0.2422	4.892		0.609229987	0.753868637	0.012528772	0.129257029	0.039838272
2019-12-25T06:50:00	0.2427	4.894		0.610861429	0.756272727	0.012591154	0.129900619	0.040036632
2019-12-25T06:55:00	0.2431	4.896		0.612492123	0.758677948	0.012653668	0.130545562	0.040235410
2019-12-25T07:00:00	0.2432	4.897		0.612792415	0.759121112	0.012665197	0.130664507	0.040272070
2019-12-25T07:05:00	0.2431	4.898		0.612427723	0.758582917	0.012651196	0.130520060	0.040227550
2019-12-25T07:10:00	0.2425	4.900		0.610399885	0.755592370	0.012573490	0.129718377	0.039980463
2019-12-25T07:15:00	0.2420	4.901		0.608703763	0.753093671	0.012508684	0.129049790	0.039774398
2019-12-25T07:20:00	0.2421	4.903		0.609004375	0.753536352	0.012520157	0.129168157	0.039810880
2019-12-25T07:25:00	0.2417	4.906		0.607640559	0.751528609	0.012468149	0.128631599	0.039645508
2019-12-25T07:30:00	0.2419	4.910		0.608274176	0.752461195	0.012492298	0.128880736	0.039722294
2019-12-25T07:35:00	0.2413	4.913		0.606243963	0.749474226	0.012415007	0.128083337	0.039476528
2019-12-25T07:40:00	0.2417	4.918		0.607543827	0.751386264	0.012464465	0.128593585	0.039633792
2019-12-25T07:45:00	0.2416	4.923		0.607511582	0.751338816	0.012463237	0.128580915	0.039629887
2019-12-25T07:50:00	0.2412	4.927		0.606147193	0.749331938	0.012411329	0.128045392	0.039464833
2019-12-25T07:55:00	0.2418	4.930		0.608112983	0.752223911	0.012486152	0.128817331	0.039702752
2019-12-25T08:00:00	0.2415	4.935		0.607081851	0.750706557	0.012446876	0.128412122	0.039577863
2019-12-25T08:05:00	0.2410	4.940		0.605384141	0.748210247	0.012382347	0.127746396	0.039372680
2019-12-25T08:10:00	0.2418	4.946		0.608016263	0.752081546	0.012482465	0.128779295	0.039691029
2019-12-25T08:15:00	0.2419	4.950		0.608316934	0.752524139	0.012493928	0.128897557	0.039727479
2019-12-25T08:20:00	0.2419	4.954		0.608284696	0.752476681	0.012492699	0.128884874	0.039723570
2019-12-25T08:25:00	0.2416	4.960		0.607253614	0.750959251	0.012453414	0.128479574	0.039598653
2019-12-25T08:30:00	0.2414	4.968		0.606555309	0.749932071	0.012426844	0.128205457	0.039514167
2019-12-25T08:35:00	0.2417	4.973		0.607855058	0.751844281	0.012476322	0.128715911	0.039671494
2019-12-25T08:40:00	0.2417	4.979		0.607822816	0.751796829	0.012475093	0.128703236	0.039667587
2019-12-25T08:45:00	0.2416	4.983		0.607457614	0.751259405	0.012461181	0.128559711	0.039623351
2019-12-25T08:50:00	0.2419	4.988		0.608424164	0.752682003	0.012498018	0.128939747	0.039740482
2019-12-25T08:55:00	0.2428	4.994		0.611386656	0.757047175	0.012611272	0.130108167	0.040100601
2019-12-25T09:00:00	0.2429	4.995		0.611687040	0.757490197	0.012622785	0.130226944	0.040137209
2019-12-25T09:05:00	0.2431	4.997		0.612319935	0.758423871	0.012647060	0.130477383	0.040214397
2019-12-25T09:10:00	0.2431	5.001		0.612287734	0.758376358	0.012645824	0.130464635	0.040210468
2019-12-25T09:15:00	0.2429	5.002		0.611590418	0.757347686	0.012619081	0.130188732	0.040125432
2019-12-25T09:20:00	0.2428	5.005		0.611225603	0.756809678	0.012605101	0.130044508	0.040080980
2019-12-25T09:25:00	0.2425	5.007		0.610195376	0.755290962	0.012565667	0.129637667	0.039955588
2019-12-25T09:30:00	0.2421	5.011		0.609164849	0.753772697	0.012526284	0.129231367	0.039830362
2019-12-25T09:35:00	0.2407	5.015		0.604470097	0.746867239	0.012347677	0.127388709	0.039262437
2019-12-25T09:40:00	0.2410	5.019		0.605437462	0.748288613	0.012384371	0.127767278	0.039379116
2019-12-25T09:45:00	0.2404	5.023		0.603405623	0.745304086	0.012307364	0.126972806	0.039134252
2019-12-25T09:50:00	0.2402	5.029		0.602706559	0.744278044	0.012280926	0.126700053	0.039050187
2019-12-25T09:55:00	0.2399	5.034		0.601673853	0.742763052	0.012241924	0.126297677	0.038926171
2019-12-25T10:00:00	0.2401	5.039		0.602308537	0.743694035	0.012265887	0.126544893	0.039002365
2019-12-25T10:05:00	0.2394	5.041		0.599902949	0.740167194	0.012175192	0.125609208	0.038713978
2019-12-25T10:10:00	0.2391	5.045		0.599164899	0.739086107	0.012147435	0.125322849	0.038625719
2019-12-25T10:15:00	0.2390	5.047		0.598760505	0.738493949	0.012132241	0.125166089	0.038577404
2019-12-25T10:20:00	0.2385	5.051		0.597020482	0.735947574	0.012066973	0.124492736	0.038369870
2019-12-25T10:25:00	0.2383	5.057		0.596281830	0.734867385	0.012039321	0.124207457	0.038281944
2019-12-25T10:30:00	0.2377	5.060		0.594206376	0.731834724	0.011961800	0.123407682	0.038035446
2019-12-25T10:35:00	0.2380	5.062		0.595472336	0.733684121	0.012009055	0.123895203	0.038185705
2019-12-25T10:40:00	0.2373	5.067		0.593062088	0.730164224	0.011919169	0.122967866	0.037899891
2019-12-25T10:45:00	0.2368	5.072		0.591319254	0.727622029	0.011854389	0.122299542	0.037693907
2019-12-25T10:50:00	0.2367	5.082		0.590913961	0.727031209	0.011839350	0.122144392	0.037646088
2019-12-25T10:55:00	0.2368	5.083		0.591177708	0.727415673	0.011849135	0.122245346	0.037677203
2019-12-25T11:00:00	0.2364	5.081		0.590103234	0.725849774	0.011809297	0.121834342	0.037550527
2019-12-25T11:05:00	0.2359	5.084		0.588358936	0.723309747	0.011744770	0.121168630	0.037345349
2019-12-25T11:10:00	0.2355	5.083		0.586948703	0.721258034	0.011692734	0.120631781	0.037179887
2019-12-25T11:15:00	0.2356	5.082		0.587212748	0.721642060	0.011702468	0.120732205	0.037210838
2019-12-25T11:20:00	0.2352	5.089		0.586137063	0.720077949	0.011662839	0.120323359	0.037084828
2019-12-25T11:25:00	0.2343	5.100		0.583049913	0.715594392	0.011549488	0.119153937	0.036724401
2019-12-25T11:30:00	0.2343	5.108		0.582978974	0.715491459	0.011546890	0.119127134	0.036716140
2019-12-25T11:35:00	0.2337	5.113		0.580895665	0.712470407	0.011470726	0.118341363	0.036473957
2019-12-25T11:40:00	0.2334	5.113		0.579818045	0.710909143	0.011431430	0.117935955	0.036349007
2019-12-25T11:45:00	0.2335	5.106		0.580418178	0.711778502	0.011453306	0.118161642	0.036418566
2019-12-25T11:50:00	0.2337	5.095		0.581018209	0.712648011	0.011475199	0.118387510	0.036488180
2019-12-25T11:55:00	0.2344	5.085		0.583294846	0.715949826	0.011558460	0.119246505	0.036752931
2019-12-25T12:00:00	0.2348	5.076		0.584564731	0.717793416	0.011605037	0.119727024	0.036901032
2019-12-25T12:05:00	0.2356	5.067		0.587173982	0.721585676	0.011701039	0.120717459	0.037206293
2019-12-25T12:10:00	0.2350	5.060		0.585428232	0.719047793	0.011636763	0.120054335	0.037001912
2019-12-25T12:15:00	0.2347	5.053		0.584352002	0.717484487	0.011597228	0.119646460	0.036876201
2019-12-25T12:20:00	0.2346	5.048		0.583945905	0.716894852	0.011582328	0.119492740	0.036828823
2019-12-25T12:25:00	0.2345	5.043		0.583539762	0.716305285	0.011567436	0.119339103	0.036781471
2019-12-25T12:30:00	0.2347	5.038		0.584474425	0.717662268	0.011601721	0.119692820	0.036890490
2019-12-25T12:35:00	0.2345	5.032		0.583733139	0.716585978	0.011574525	0.119412241	0.036804013
2019-12-25T12:40:00	0.2343	5.026		0.582991696	0.715509918	0.011547356	0.119131941	0.036717621
2019-12-25T12:45:00	0.2348	5.018		0.584596844	0.717840055	0.011606216	0.119739189	0.036904781
2019-12-25T12:50:00	0.2349	5.009		0.584861065	0.718223820	0.011615919	0.119839298	0.036935636
2019-12-25T12:55:00	0.2352	5.005		0.586130385	0.720068243	0.011662593	0.120320823	0.037084046
2019-12-25T13:00:00	0.2359	4.999		0.588403717	0.723374925	0.011746425	0.121185698	0.037350609
2019-12-25T13:05:00	0.2355	4.991		0.586993502	0.721323186	0.011694385	0.120648817	0.037185137
2019-12-25T13:10:00	0.2361	4.980		0.588931568	0.724143328	0.011765934	0.121386969	0.037412643
2019-12-25T13:15:00	0.2363	4.974		0.589530148	0.725014973	0.011788077	0.121615417	0.037483053
2019-12-25T13:20:00	0.2365	4.965		0.590463222	0.726374300	0.011822637	0.121971964	0.037592944
2019-12-25T13:25:00	0.2367	4.960		0.591061542	0.727246331	0.011844825	0.122200876	0.037663497
2019-12-25T13:30:00	0.2378	4.959		0.594668674	0.732509924	0.011979045	0.123585599	0.038090282
2019-12-25T13:35:00	0.2387	4.960		0.597604380	0.736801776	0.012088855	0.124718484	0.038439448
2019-12-25T13:40:00	0.2387	4.956		0.597533733	0.736698410	0.012086206	0.124691159	0.038431026
2019-12-25T13:45:00	0.2388	4.949		0.598130856	0.737572219	0.012108602	0.124922212	0.038502239
2019-12-25T13:50:00	0.2389	4.942		0.598394065	0.737957484	0.012118480	0.125024129	0.038533651
2019-12-25T13:55:00	0.2384	4.937		0.596653861	0.735411378	0.012053244	0.124351099	0.038326216
2019-12-25T14:00:00	0.2393	4.929		0.599587919	0.739705686	0.012163340	0.125486937	0.038676293
2019-12-25T14:05:00	0.2392	4.920		0.599517312	0.739602261	0.012160685	0.125459541	0.038667849
2019-12-25T14:10:00	0.2393	4.915		0.599780418	0.739987680	0.012170581	0.125561643	0.038699318
2019-12-25T14:15:00	0.2391	4.909		0.599042342	0.738906631	0.012142829	0.125275330	0.038611073
2019-12-25T14:20:00	0.2394	4.904		0.599972906	0.740269690	0.012177824	0.125636368	0.038722349
2019-12-25T14:25:00	0.2392	4.899		0.599234870	0.739188581	0.012150065	0.125349983	0.038634082
2019-12-25T14:30:00	0.2385	4.894		0.597161151	0.736153337	0.012072243	0.124547103	0.038386627
2019-12-25T14:35:00	0.2387	4.886		0.597758337	0.737027053	0.012094628	0.124778043	0.038457805
2019-12-25T14:40:00	0.2394	4.879		0.600024191	0.740344832	0.012179754	0.125656281	0.038728486
2019-12-25T14:45:00	0.2401	4.872		0.602288595	0.743664778	0.012265134	0.126537122	0.038999970
2019-12-25T14:50:00	0.2397	4.867		0.600883917	0.741604811	0.012212134	0.125990337	0.038831445
2019-12-25T14:55:00	0.2402	4.862		0.602814375	0.744436262	0.012285002	0.126742100	0.039063146
2019-12-25T15:00:00	0.2405	4.857		0.603743948	0.745800803	0.012320169	0.127104917	0.039174970
2019-12-25T15:05:00	0.2407	4.851		0.604340023	0.746676178	0.012342747	0.127337850	0.039246762
2019-12-25T15:10:00	0.2409	4.844		0.604935999	0.747551702	0.012365343	0.127570963	0.039318610
2019-12-25T15:15:00	0.2409	4.838		0.604865499	0.747448118	0.012362669	0.127543376	0.039310107
2019-12-25T15:20:00	0.2410	4.831		0.605461386	0.748323775	0.012385280	0.127776648	0.039382004
2019-12-25T15:25:00	0.2418	4.827		0.608055253	0.752138936	0.012483952	0.128794627	0.039695755
2019-12-25T15:30:00	0.2418	4.821		0.607984815	0.752035258	0.012481267	0.128766928	0.039687218
2019-12-25T15:35:00	0.2421	4.815		0.608913033	0.753401834	0.012516671	0.129132185	0.039799793
2019-12-25T15:40:00	0.2419	4.811		0.608509750	0.752808009	0.012501282	0.128973426	0.039750863
2019-12-25T15:45:00	0.2427	4.807		0.611101391	0.756626522	0.012600343	0.129995421	0.040065851
2019-12-25T15:50:00	0.2425	4.802		0.610365669	0.755541940	0.012572181	0.129704871	0.039976301
2019-12-25T15:55:00	0.2430	4.796		0.611958435	0.757890529	0.012633191	0.130334305	0.040170299
2019-12-25T16:00:00	0.2428	4.793		0.611222891	0.756805678	0.012604998	0.130043436	0.040080650
2019-12-25T16:05:00	0.2428	4.784		0.611281888	0.756892676	0.012607258	0.130066753	0.040087837
2019-12-25T16:10:00	0.2428	4.774		0.611340884	0.756979675	0.012609518	0.130090073	0.040095024
2019-12-25T16:15:00	0.2434	4.768		0.613394955	0.760010556	0.012688348	0.130903343	0.040345681
2019-12-25T16:20:00	0.2435	4.764		0.613786314	0.760588428	0.012703396	0.131058590	0.040393530
2019-12-25T16:25:00	0.2437	4.758		0.614509960	0.761657287	0.012731245	0.131345903	0.040482083
2019-12-25T16:30:00	0.2445	4.755		0.616894310	0.765182196	0.012823227	0.132294872	0.040774565
2019-12-25T16:35:00	0.2450	4.749		0.618613261	0.767726381	0.012889753	0.132981204	0.040986099
2019-12-25T16:40:00	0.2449	4.745		0.618340193	0.767322052	0.012879173	0.132872052	0.040952457
2019-12-25T16:45:00	0.2448	4.743		0.618067104	0.766917756	0.012868597	0.132762939	0.040918827
2019-12-25T16:50:00	0.2450	4.739		0.618789881	0.767987934	0.012896598	0.133051828	0.041007865
2019-12-25T16:55:00	0.2455	4.736		0.620176147	0.770041737	0.012950393	0.133606816	0.041178918
2019-12-25T17:00:00	0.2457	4.731		0.620898496	0.771112566	0.012978470	0.133896481	0.041268196
2019-12-25T17:05:00	0.2458	4.727		0.621289031	0.771691688	0.012993663	0.134053223	0.041316505
2019-12-25T17:10:00	0.2457	4.723		0.621016168	0.771287048	0.012983047	0.133943699	0.041282749
2019-12-25T17:15:00	0.2461	4.720		0.622401568	0.773342168	0.013036994	0.134500260	0.041454286
2019-12-25T17:20:00	0.2467	4.714		0.624449271	0.776382723	0.013116942	0.135325077	0.041708503
2019-12-25T17:25:00	0.2464	4.706		0.623182267	0.774500980	0.013067445	0.134814418	0.041551113
2019-12-25T17:30:00	0.2468	4.703		0.624566826	0.776557384	0.013121540	0.135372508	0.041723122
2019-12-25T17:35:00	0.2467	4.698		0.624294214	0.776152361	0.013110880	0.135262528	0.041689225
2019-12-25T17:40:00	0.2470	4.694		0.625347051	0.777716919	0.013152074	0.135687528	0.041820214
2019-12-25T17:45:00	0.2474	4.689		0.626730771	0.779774606	0.013206318	0.136247145	0.041992693
2019-12-25T17:50:00	0.2484	4.684		0.629768821	0.784298071	0.013325818	0.137480012	0.042372675
2019-12-25T17:55:00	0.2485	4.678		0.630158388	0.784878676	0.013341182	0.137638519	0.042421528
2019-12-25T18:00:00	0.2486	4.673		0.630547912	0.785459345	0.013356554	0.137797102	0.042470405
2019-12-25T18:05:00	0.2495	4.671		0.633582723	0.789987787	0.013476628	0.139035885	0.042852210
2019-12-25T18:10:00	0.2494	4.669		0.633310797	0.789581710	0.013465846	0.138924653	0.042817927
2019-12-25T18:15:00	0.2504	4.663		0.636673544	0.794607824	0.013599492	0.140303451	0.043242886
2019-12-25T18:20:00	0.2509	4.658		0.638052894	0.796672237	0.013654510	0.140871060	0.043417829
2019-12-25T18:25:00	0.2507	4.653		0.637451135	0.795771411	0.013630493	0.140623287	0.043341463
2019-12-25T18:30:00	0.2513	4.648		0.639490246	0.798825177	0.013711964	0.141463806	0.043600519
2019-12-25T18:35:00	0.2513	4.643		0.639548778	0.798912885	0.013714306	0.141487971	0.043607967
2019-12-25T18:40:00	0.2513	4.638		0.639607309	0.799000596	0.013716649	0.141512138	0.043615415
2019-12-25T18:45:00	0.2513	4.637		0.639665838	0.799088308	0.013718992	0.141536307	0.043622864
2019-12-25T18:50:00	0.2509	4.636		0.638074095	0.796703980	0.013655356	0.140879794	0.043420521
2019-12-25T18:55:00	0.2510	4.632		0.638462759	0.797285976	0.013670880	0.141039952	0.043469883
2019-12-25T19:00:00	0.2509	4.631		0.638191204	0.796879328	0.013660033	0.140928041	0.043435391
2019-12-25T19:05:00	0.2511	4.626		0.638909924	0.797955729	0.013688752	0.141224333	0.043526711
2019-12-25T19:10:00	0.2508	4.625		0.637978184	0.796560381	0.013651527	0.140840286	0.043408344
2019-12-25T19:15:00	0.2511	4.625		0.638696947	0.797636716	0.013680239	0.141136500	0.043499640
2019-12-25T19:20:00	0.2513	4.625		0.639415566	0.798713274	0.013708976	0.141432977	0.043591017
2019-12-25T19:25:00	0.2520	4.623		0.641783368	0.802263564	0.013803886	0.142412142	0.043892805
2019-12-25T19:30:00	0.2519	4.622		0.641512063	0.801856527	0.013792993	0.142299770	0.043858171
2019-12-25T19:35:00	0.2515	4.621		0.640251083	0.799965507	0.013742427	0.141778090	0.043697384
2019-12-25T19:40:00	0.2512	4.619		0.639319692	0.798569619	0.013705140	0.141393404	0.043578820
2019-12-25T19:45:00	0.2502	4.618		0.635746275	0.793220928	0.013562571	0.139922544	0.043125487
2019-12-25T19:50:00	0.2499	4.615		0.634813713	0.791826851	0.013525492	0.139540006	0.043007585
2019-12-25T19:55:00	0.2496	4.613		0.633880908	0.790433149	0.013488456	0.139157912	0.042889820
2019-12-25T20:00:00	0.2499	4.611		0.634930928	0.792002034	0.013530149	0.139588058	0.043022395
2019-12-25T20:05:00	0.2499	4.611		0.634989534	0.792089628	0.013532479	0.139612086	0.043029801
2019-12-25T20:10:00	0.2506	4.611		0.637360256	0.795635394	0.013626868	0.140585887	0.043329936
2019-12-25T20:15:00	0.2501	4.610		0.635437131	0.792758711	0.013550273	0.139795673	0.043086384
2019-12-25T20:20:00	0.2503	4.609		0.636156404	0.793834259	0.013578895	0.140090952	0.043177392
2019-12-25T20:25:00	0.2500	4.609		0.635223949	0.792440018	0.013541796	0.139708218	0.043059430
2019-12-25T20:30:00	0.2509	4.605		0.638254804	0.796974562	0.013662573	0.140954247	0.043443468
2019-12-25T20:35:00	0.2503	4.604		0.636332159	0.794097138	0.013585893	0.140163153	0.043199645
2019-12-25T20:40:00	0.2507	4.600		0.637381461	0.795667131	0.013627714	0.140594613	0.043332625
2019-12-25T20:45:00	0.2510	4.597		0.638430457	0.797237599	0.013669590	0.141026637	0.043465779
2019-12-25T20:50:00	0.2510	4.596		0.638489005	0.797325281	0.013671929	0.141050770	0.043473217
2019-12-25T20:55:00	0.2509	4.595		0.638217451	0.796918630	0.013661081	0.140938856	0.043438724
2019-12-25T21:00:00	0.2509	4.594		0.638276004	0.797006307	0.013663420	0.140962983	0.043446160
2019-12-25T21:05:00	0.2510	4.592		0.638664646	0.797588337	0.013678948	0.141123181	0.043495535
2019-12-25T21:10:00	0.2516	4.590		0.640373165	0.800148528	0.013747319	0.141828553	0.043712937
2019-12-25T21:15:00	0.2524	4.590		0.643070022	0.804194776	0.013855602	0.142945691	0.044057250
2019-12-25T21:20:00	0.2513	4.589		0.639500338	0.798840299	0.013712368	0.141467973	0.043601803
2019-12-25T21:25:00	0.2511	4.586		0.638898821	0.797939097	0.013688308	0.141219753	0.043525299
2019-12-25T21:30:00	0.2517	4.583		0.640937111	0.800994137	0.013769926	0.142061783	0.043784821
2019-12-25T21:35:00	0.2513	4.581		0.639675929	0.799103430	0.013719395	0.141540474	0.043624149
2019-12-25T21:40:00	0.2526	4.580		0.643692009	0.805128855	0.013880639	0.143203989	0.044136860
2019-12-25T21:45:00	0.2522	4.579		0.642431794	0.803236648	0.013829936	0.142680901	0.043975640
2019-12-25T21:50:00	0.2527	4.577		0.644138523	0.805799619	0.013898626	0.143389566	0.044194057
2019-12-25T21:55:00	0.2531	4.577		0.645515010	0.807868475	0.013954155	0.143962441	0.044370623
2019-12-25T22:00:00	0.2533	4.575		0.646232267	0.808947150	0.013983135	0.144261426	0.044462773
2019-12-25T22:05:00	0.2526	4.572		0.643648814	0.805063976	0.013878899	0.143186043	0.044131329
2019-12-25T22:10:00	0.2529	4.568		0.644690084	0.806628420	0.013920863	0.143618976	0.044264763
2019-12-25T22:15:00	0.2524	4.566		0.643094666	0.804231779	0.013856594	0.142955921	0.044060403
2019-12-25T22:20:00	0.2526	4.565		0.643806508	0.805300842	0.013885250	0.143251564	0.044151523
2019-12-25T22:25:00	0.2523	4.566		0.642870138	0.803894666	0.013847561	0.142862735	0.044031682
2019-12-25T22:30:00	0.2528	4.566		0.644570761	0.806449098	0.013916051	0.143569330	0.044249462
2019-12-25T22:35:00	0.2527	4.565		0.644293769	0.806032872	0.013904883	0.143454118	0.044213952
2019-12-25T22:40:00	0.2525	4.564		0.643357525	0.804626498	0.013867172	0.143065055	0.044094039
2019-12-25T22:45:00	0.2526	4.562		0.643739720	0.805200521	0.013882560	0.143223813	0.044142970
2019-12-25T22:50:00	0.2528	4.561		0.644451434	0.806269782	0.013911239	0.143519691	0.044234163
2019-12-25T22:55:00	0.2528	4.561		0.644503988	0.806348754	0.013913358	0.143541552	0.044240900
2019-12-25T23:00:00	0.2538	4.558		0.647850384	0.811382226	0.014048629	0.144937116	0.044671027
2019-12-25T23:05:00	0.2534	4.554		0.646585732	0.809478882	0.013997428	0.144408884	0.044508221
2019-12-25T23:10:00	0.2538	4.552		0.647626152	0.811044650	0.014039544	0.144843384	0.044642138
2019-12-25T23:15:00	0.2539	4.544		0.648007894	0.811619379	0.014055013	0.145002977	0.044691326
2019-12-25T23:20:00	0.2541	4.538		0.648718764	0.812689956	0.014083843	0.145300412	0.044782998
2019-12-25T23:25:00	0.2533	4.534		0.646137096	0.808803998	0.013979288	0.144221736	0.044450540
2019-12-25T23:30:00	0.2532	4.526		0.645860224	0.808387585	0.013968099	0.144106302	0.044414962
2019-12-25T23:35:00	0.2529	4.522		0.644924389	0.806980576	0.013930315	0.143716487	0.044294817
2019-12-25T23:40:00	0.2521	4.520		0.642010242	0.802603991	0.013812997	0.142506147	0.043921779
2019-12-25T23:45:00	0.2534	4.514		0.646347207	0.809120048	0.013987782	0.144309368	0.044477549
2019-12-25T23:50:00	0.2529	4.510		0.644752524	0.806722262	0.013923381	0.143644959	0.044272771
2019-12-25T23:55:00	0.2525	4.506		0.643486783	0.804820617	0.013872375	0.143118736	0.044110584
2019-12-26T00:00:00	0.2527	4.505		0.644198547	0.805889801	0.013901045	0.143414523	0.044201749
2019-12-26T00:05:00	0.2530	4.503		0.645239657	0.807454492	0.013943038	0.143847748	0.044335273
2019-12-26T00:10:00	0.2537	4.502		0.647268463	0.810506247	0.014025057	0.144693929	0.044596074
2019-12-26T00:15:00	0.2539	4.502		0.647979480	0.811576596	0.014053861	0.144991095	0.044687663
2019-12-26T00:20:00	0.2540	4.500		0.648361184	0.812151383	0.014069337	0.145150757	0.044736873
2019-12-26T00:25:00	0.2536	4.498		0.647096711	0.810247759	0.014018104	0.144622194	0.044573965
2019-12-26T00:30:00	0.2540	4.496		0.648466176	0.812309507	0.014073595	0.145194690	0.044750414
2019-12-26T00:35:00	0.2544	4.495		0.649835122	0.814372068	0.014129180	0.145768148	0.044927159
2019-12-26T00:40:00	0.2549	4.492		0.651532459	0.816931630	0.014198258	0.146480808	0.045146808
2019-12-26T00:45:00	0.2559	4.490		0.654543731	0.821478634	0.014321242	0.147749617	0.045537867
2019-12-26T00:50:00	0.2560	4.487		0.654924741	0.822054509	0.014336843	0.147910564	0.045587472
2019-12-26T00:55:00	0.2558	4.486		0.654319915	0.821140407	0.014312082	0.147655115	0.045508740
2019-12-26T01:00:00	0.2572	4.486		0.658970341	0.828176852	0.014503038	0.149625166	0.046115929
2019-12-26T01:05:00	0.2573	4.486		0.659350884	0.828753461	0.014518722	0.149786979	0.046165802
2019-12-26T01:10:00	0.2581	4.484		0.662027723	0.832812977	0.014629301	0.150927802	0.046517414
2019-12-26T01:15:00	0.2587	4.482		0.663719345	0.835381543	0.014699408	0.151651079	0.046740335
2019-12-26T01:20:00	0.2590	4.478		0.664754843	0.836955057	0.014742409	0.152094715	0.046877068
2019-12-26T01:25:00	0.2591	4.472		0.665134779	0.837532629	0.014758203	0.152257660	0.046927290
2019-12-26T01:30:00	0.2593	4.462		0.665842290	0.838608500	0.014787638	0.152561338	0.047020886
2019-12-26T01:35:00	0.2594	4.459		0.666222112	0.839186252	0.014803453	0.152724496	0.047071173
2019-12-26T01:40:00	0.2602	4.456		0.668893881	0.843253808	0.014914949	0.153874778	0.047425701
2019-12-26T01:45:00	0.2604	4.455		0.669273385	0.843832068	0.014930822	0.154038533	0.047476172
2019-12-26T01:50:00	0.2608	4.452		0.670634480	0.845907027	0.014987822	0.154626597	0.047657419
2019-12-26T01:55:00	0.2608	4.451		0.670686655	0.845986597	0.014990009	0.154649162	0.047664374
2019-12-26T02:00:00	0.2605	4.449		0.669757224	0.844569488	0.014951071	0.154247442	0.047540560
2019-12-26T02:05:00	0.2606	4.446		0.670136637	0.845147892	0.014966960	0.154411366	0.047591083
2019-12-26T02:10:00	0.2603	4.445		0.669207066	0.843731008	0.014928047	0.154009910	0.047467350
2019-12-26T02:15:00	0.2612	4.443		0.671876641	0.847802061	0.015039941	0.155164301	0.047823144
2019-12-26T02:20:00	0.2605	4.443		0.669638726	0.844388867	0.014946110	0.154196264	0.047524786
2019-12-26T02:25:00	0.2600	4.441		0.668054288	0.841974935	0.014879864	0.153512819	0.047314142
2019-12-26T02:30:00	0.2607	4.439		0.670397537	0.845545698	0.014977891	0.154524140	0.047625841
2019-12-26T02:35:00	0.2609	4.433		0.671104022	0.846623202	0.015007512	0.154829736	0.047720028
2019-12-26T02:40:00	0.2609	4.432		0.671156190	0.846702783	0.015009701	0.154852314	0.047726987
2019-12-26T02:45:00	0.2604	4.429		0.669572414	0.844287796	0.014943335	0.154167629	0.047515960
2019-12-26T02:50:00	0.2601	4.424		0.668315338	0.842372502	0.014890768	0.153625312	0.047348813
2019-12-26T02:55:00	0.2614	4.419		0.672620874	0.848938095	0.015071214	0.155486932	0.047922583
2019-12-26T03:00:00	0.2610	4.415		0.671364853	0.847021119	0.015018456	0.154942640	0.047754826
2019-12-26T03:05:00	0.2610	4.411		0.671417017	0.847100706	0.015020645	0.154965225	0.047761787
2019-12-26T03:10:00	0.2612	4.409		0.672123303	0.848178526	0.015050302	0.155271192	0.047856089
2019-12-26T03:15:00	0.2608	4.404		0.670867110	0.846261824	0.014997576	0.154727222	0.047688433
2019-12-26T03:20:00	0.2610	4.399		0.671246407	0.846840413	0.015013486	0.154891364	0.047739023
2019-12-26T03:25:00	0.2601	4.397		0.668353419	0.842430502	0.014892359	0.153641726	0.047353872
2019-12-26T03:30:00	0.2600	4.391		0.668078244	0.842011415	0.014880865	0.153523140	0.047317323
2019-12-26T03:35:00	0.2599	4.387		0.667803048	0.841592361	0.014869374	0.153404592	0.047280785
2019-12-26T03:40:00	0.2599	4.382		0.667855263	0.841671866	0.014871554	0.153427082	0.047287717
2019-12-26T03:45:00	0.2601	4.377		0.668562242	0.842748581	0.014901085	0.153731751	0.047381619
2019-12-26T03:50:00	0.2603	4.371		0.668941780	0.843326786	0.014916952	0.153895441	0.047432070
2019-12-26T03:55:00	0.2598	4.364		0.667357038	0.840913339	0.014850761	0.153212565	0.047221601
2019-12-26T04:00:00	0.2593	4.358		0.665771604	0.838500994	0.014784696	0.152530984	0.047011531
2019-12-26T04:05:00	0.2602	4.354		0.668814469	0.843132820	0.014911629	0.153840523	0.047415143
2019-12-26T04:10:00	0.2595	4.348		0.666618106	0.839788735	0.014819951	0.152894699	0.047123631
2019-12-26T04:15:00	0.2597	4.343		0.667041283	0.840432724	0.014837591	0.153076694	0.047179724
2019-12-26T04:20:00	0.2607	4.337		0.670410285	0.845565137	0.014978425	0.154529652	0.047627540
2019-12-26T04:25:00	0.2604	4.332		0.669524190	0.844214296	0.014941316	0.154146806	0.047509543
2019-12-26T04:30:00	0.2612	4.327		0.671909869	0.847852771	0.015041337	0.155178698	0.047827582
2019-12-26T04:35:00	0.2609	4.325		0.671024139	0.846501346	0.015004161	0.154795166	0.047709373
2019-12-26T04:40:00	0.2610	4.323		0.671446803	0.847146152	0.015021895	0.154978122	0.047765762
2019-12-26T04:45:00	0.2607	4.321		0.670560961	0.845794907	0.014984740	0.154594802	0.047647619
2019-12-26T04:50:00	0.2615	4.318		0.672945959	0.849434469	0.015084884	0.155627970	0.047966052
2019-12-26T04:55:00	0.2621	4.315		0.675002635	0.852576930	0.015171524	0.156521812	0.048241543
2019-12-26T05:00:00	0.2624	4.307		0.676078249	0.854221845	0.015216939	0.156990351	0.048385951
2019-12-26T05:05:00	0.2619	4.299		0.674213133	0.851370194	0.015138234	0.156178372	0.048135691
2019-12-26T05:10:00	0.2625	4.292		0.676269093	0.854513802	0.015225004	0.157073560	0.048411597
2019-12-26T05:15:00	0.2629	4.285		0.677670882	0.856659255	0.015284315	0.157685457	0.048600189
2019-12-26T05:20:00	0.2628	4.279		0.677113153	0.855805443	0.015260702	0.157441852	0.048525108
2019-12-26T05:25:00	0.2631	4.275		0.678188145	0.857451358	0.015306231	0.157911564	0.048669877
2019-12-26T05:30:00	0.2629	4.271		0.677630495	0.856597418	0.015282604	0.157667810	0.048594750
2019-12-26T05:35:00	0.2634	4.268		0.679358159	0.859243893	0.015355865	0.158423631	0.048827702
2019-12-26T05:40:00	0.2630	4.262		0.677821257	0.856889506	0.015290684	0.157751171	0.048620443
2019-12-26T05:45:00	0.2641	4.259		0.681506501	0.862538362	0.015447222	0.159366145	0.049118194
2019-12-26T05:50:00	0.2638	4.255		0.680623104	0.861183196	0.015409622	0.158978227	0.048998634
2019-12-26T05:55:00	0.2631	4.248		0.678107382	0.857327667	0.015302808	0.157876249	0.048658993
2019-12-26T06:00:00	0.2637	4.244		0.680161145	0.860474802	0.015389978	0.158775570	0.048936173
2019-12-26T06:05:00	0.2640	4.241		0.681235238	0.862122162	0.015435671	0.159246975	0.049081464
2019-12-26T06:10:00	0.2636	4.236		0.680025466	0.860266778	0.015384212	0.158716075	0.048917836
2019-12-26T06:15:00	0.2640	4.233		0.681099599	0.861914074	0.015429897	0.159187404	0.049063104
2019-12-26T06:20:00	0.2635	4.229		0.679563432	0.859558506	0.015364582	0.158513561	0.048855419
2019-12-26T06:25:00	0.2634	4.223		0.679332392	0.859204405	0.015354771	0.158412345	0.048824223
2019-12-26T06:30:00	0.2636	4.217		0.679754092	0.859850756	0.015372681	0.158597113	0.048881170
2019-12-26T06:35:00	0.2628	4.212		0.677237770	0.855996192	0.015265976	0.157496265	0.048541878
2019-12-26T06:40:00	0.2630	4.205		0.677986233	0.857142137	0.015297674	0.157823283	0.048642669
2019-12-26T06:45:00	0.2633	4.199		0.679060967	0.858788466	0.015343250	0.158293480	0.048787588
2019-12-26T06:50:00	0.2631	4.191		0.678176977	0.857434254	0.015305758	0.157906680	0.048668372
2019-12-26T06:55:00	0.2632	4.185		0.678598811	0.858080390	0.015323643	0.158091196	0.048725242
2019-12-26T07:00:00	0.2635	4.181		0.679673364	0.859727009	0.015369251	0.158561733	0.048870266
2019-12-26T07:05:00	0.2643	4.177		0.682052403	0.863376132	0.015470482	0.159606110	0.049192153
2019-12-26T07:10:00	0.2641	4.171		0.681495344	0.862521242	0.015446747	0.159361242	0.049116683
2019-12-26T07:15:00	0.2651	4.165		0.684851003	0.867675055	0.015590013	0.160839293	0.049572232
2019-12-26T07:20:00	0.2646	4.161		0.682990370	0.864816189	0.015510490	0.160018862	0.049319367
2019-12-26T07:25:00	0.2646	4.158		0.683085612	0.864962456	0.015514555	0.160060804	0.049332294
2019-12-26T07:30:00	0.2649	4.145		0.684158845	0.866611205	0.015560405	0.160533833	0.049478086
2019-12-26T07:35:00	0.2649	4.131		0.684254057	0.866757521	0.015564476	0.160575833	0.049491031
2019-12-26T07:40:00	0.2657	4.122		0.686630113	0.870411459	0.015666253	0.161625845	0.049814655
2019-12-26T07:45:00	0.2659	4.108		0.687376653	0.871560507	0.015698303	0.161956496	0.049916565
2019-12-26T07:50:00	0.2673	4.106		0.692028164	0.878730806	0.015898775	0.164024735	0.050554016
2019-12-26T07:55:00	0.2676	4.108		0.692773604	0.879881641	0.015931027	0.164357473	0.050656569
2019-12-26T08:00:00	0.2677	4.112		0.693193756	0.880530499	0.015949221	0.164545172	0.050714420
2019-12-26T08:05:00	0.2684	4.115		0.695564018	0.884193852	0.016052064	0.165606181	0.051041433
2019-12-26T08:10:00	0.2673	4.119		0.692082944	0.878815360	0.015901144	0.164049174	0.050561549
2019-12-26T08:15:00	0.2681	4.118		0.694453924	0.882477542	0.016003855	0.165108817	0.050888141
2019-12-26T08:20:00	0.2679	4.116		0.693898751	0.881619593	0.015979773	0.164860375	0.050811569
2019-12-26T08:25:00	0.2680	4.119		0.694318774	0.882268661	0.015997990	0.165048318	0.050869495
2019-12-26T08:30:00	0.2693	4.126		0.698312152	0.888447321	0.016171739	0.166840850	0.051421970
2019-12-26T08:35:00	0.2696	4.134		0.699380933	0.890103313	0.016218409	0.167322337	0.051570369
2019-12-26T08:40:00	0.2694	4.143		0.698826504	0.889244146	0.016194190	0.167072475	0.051493359
2019-12-26T08:45:00	0.2698	4.155		0.699895135	0.890900383	0.016240888	0.167554247	0.051641846
2019-12-26T08:50:00	0.2701	4.162		0.700963455	0.892557130	0.016287643	0.168036613	0.051790516
2019-12-26T08:55:00	0.2710	4.166		0.703977160	0.897236115	0.016419922	0.169401313	0.052211130
2019-12-26T09:00:00	0.2703	4.170		0.701801839	0.893857987	0.016324385	0.168415673	0.051907346
2019-12-26T09:05:00	0.2711	4.178		0.704166554	0.897530427	0.016428254	0.169487272	0.052237623
2019-12-26T09:10:00	0.2711	4.188		0.704261248	0.897677589	0.016432421	0.169530258	0.052250872
2019-12-26T09:15:00	0.2714	4.197		0.705328301	0.899336419	0.016479411	0.170015049	0.052400289
2019-12-26T09:20:00	0.2710	4.192		0.703802261	0.896964356	0.016412230	0.169321953	0.052186670
2019-12-26T09:25:00	0.2711	4.190		0.704221153	0.897615277	0.016430657	0.169512056	0.052245262
2019-12-26T09:30:00	0.2714	4.192		0.705288218	0.899274088	0.016477645	0.169996825	0.052394673
2019-12-26T09:35:00	0.2710	4.200		0.704086362	0.897405808	0.016424726	0.169450873	0.052226405
2019-12-26T09:40:00	0.2700	4.227		0.700613361	0.892014097	0.016272314	0.167878459	0.051741771
2019-12-26T09:45:00	0.2703	4.242		0.701681473	0.893671186	0.016319108	0.168361224	0.051890564
2019-12-26T09:50:00	0.2701	4.251		0.701127392	0.892811449	0.016294824	0.168110699	0.051813350
2019-12-26T09:55:00	0.2696	4.257		0.699275010	0.889939150	0.016213781	0.167274586	0.051555652
2019-12-26T10:00:00	0.2701	4.264		0.700992487	0.892602166	0.016288915	0.168049732	0.051794559
2019-12-26T10:05:00	0.2697	4.275		0.699648465	0.890517989	0.016230102	0.167442975	0.051607551
2019-12-26T10:10:00	0.2692	4.285		0.697979239	0.887931701	0.016157216	0.166691022	0.051375792
2019-12-26T10:15:00	0.2698	4.303		0.700205673	0.891381862	0.016254471	0.167694385	0.051685038
2019-12-26T10:20:00	0.2695	4.313		0.699185997	0.889801202	0.016209892	0.167234463	0.051543286
2019-12-26T10:25:00	0.2697	4.319		0.699789227	0.890736195	0.016236257	0.167506468	0.051627120
2019-12-26T10:30:00	0.2698	4.327		0.700067831	0.891168132	0.016248441	0.167632173	0.051665864
2019-12-26T10:35:00	0.2700	4.331		0.700670916	0.892103363	0.016274833	0.167904454	0.051749783
2019-12-26T10:40:00	0.2689	4.340		0.697053824	0.886498910	0.016116883	0.166274912	0.051247543
2019-12-26T10:45:00	0.2679	4.351		0.693758278	0.881402553	0.015973683	0.164797544	0.050792204
2019-12-26T10:50:00	0.2678	4.365		0.693712251	0.881331441	0.015971688	0.164776960	0.050785859
2019-12-26T10:55:00	0.2677	4.377		0.693341100	0.880758084	0.015955604	0.164611023	0.050734716
2019-12-26T11:00:00	0.2682	4.392		0.694920412	0.883198647	0.016024104	0.165317725	0.050952528
2019-12-26T11:05:00	0.2686	4.410		0.696174173	0.885137663	0.016078594	0.165879890	0.051125793
2019-12-26T11:10:00	0.2688	4.425		0.696777898	0.886071847	0.016104868	0.166150949	0.051209336
2019-12-26T11:15:00	0.2688	4.436		0.696731908	0.886000673	0.016102865	0.166130293	0.051202970
2019-12-26T11:20:00	0.2686	4.448		0.696036179	0.884924181	0.016072592	0.165817966	0.051106708
2019-12-26T11:25:00	0.2687	4.458		0.696639927	0.885858327	0.016098861	0.166088983	0.051190238
2019-12-26T11:30:00	0.2678	4.471		0.693669131	0.881264824	0.015969819	0.164757677	0.050779916
2019-12-26T11:35:00	0.2680	4.480		0.694273269	0.882198334	0.015996016	0.165027951	0.050863217
2019-12-26T11:40:00	0.2683	4.486		0.695202293	0.883634474	0.016036346	0.165444028	0.050991456
2019-12-26T11:45:00	0.2681	4.493		0.694506274	0.882558457	0.016006126	0.165132254	0.050895364
2019-12-26T11:50:00	0.2673	4.501		0.691859031	0.878469760	0.015891463	0.163949289	0.050530763
2019-12-26T11:55:00	0.2677	4.511		0.693113839	0.880407069	0.015945759	0.164509461	0.050703414
2019-12-26T12:00:00	0.2664	4.520		0.689163789	0.874313161	0.015775167	0.162749487	0.050160972
2019-12-26T12:05:00	0.2666	4.528		0.689768670	0.875245461	0.015801227	0.163018348	0.050243838
2019-12-26T12:10:00	0.2677	4.535		0.693300886	0.880695968	0.015953862	0.164593049	0.050729176
2019-12-26T12:15:00	0.2666	4.532		0.689676514	0.875103401	0.015797255	0.162977371	0.050231209
2019-12-26T12:20:00	0.2649	4.532		0.684093314	0.866510504	0.015557604	0.160504929	0.049469178
2019-12-26T12:25:00	0.2649	4.537		0.684047165	0.866439590	0.015555631	0.160484576	0.049462905
2019-12-26T12:30:00	0.2645	4.547		0.682696910	0.864365559	0.015497967	0.159889664	0.049279547
2019-12-26T12:35:00	0.2639	4.561		0.681019935	0.861791867	0.015426506	0.159152422	0.049052322
2019-12-26T12:40:00	0.2633	4.574		0.679015790	0.858719240	0.015341333	0.158273700	0.048781491
2019-12-26T12:45:00	0.2630	4.584		0.677990190	0.857148196	0.015297842	0.157825013	0.048643202
2019-12-26T12:50:00	0.2632	4.592		0.678596925	0.858077501	0.015323563	0.158090371	0.048724988
2019-12-26T12:55:00	0.2635	4.597		0.679529941	0.859507174	0.015363160	0.158498887	0.048850896
2019-12-26T13:00:00	0.2623	4.602		0.675565164	0.853437071	0.015195266	0.156766759	0.048317038
2019-12-26T13:05:00	0.2617	4.604		0.673558015	0.850369268	0.015110640	0.155893691	0.048047950
2019-12-26T13:10:00	0.2620	4.606		0.674492323	0.851796868	0.015150002	0.156299777	0.048173109
2019-12-26T13:15:00	0.2613	4.608		0.672484581	0.848730014	0.015065484	0.155427821	0.047904364
2019-12-26T13:20:00	0.2611	4.614		0.671784217	0.847661014	0.015036060	0.155124259	0.047810803
2019-12-26T13:25:00	0.2615	4.619		0.673045945	0.849587156	0.015089090	0.155671362	0.047979426
2019-12-26T13:30:00	0.2612	4.621		0.672018662	0.848018812	0.015045906	0.155225841	0.047842112
2019-12-26T13:35:00	0.2613	4.619		0.672299391	0.848447308	0.015057701	0.155347523	0.047879615
2019-12-26T13:40:00	0.2617	4.617		0.673560940	0.850373737	0.015110764	0.155894962	0.048048341
2019-12-26T13:45:00	0.2624	4.614		0.675802289	0.853799730	0.015205280	0.156870073	0.048348880
2019-12-26T13:50:00	0.2620	4.612		0.674775785	0.852230140	0.015161955	0.156423090	0.048211115
2019-12-26T13:55:00	0.2636	4.610		0.679954538	0.860158038	0.015381197	0.158684978	0.048908251
2019-12-26T14:00:00	0.2629	4.609		0.677623283	0.856586376	0.015282299	0.157664659	0.048593779
2019-12-26T14:05:00	0.2635	4.607		0.679535782	0.859516126	0.015363408	0.158501446	0.048851685
2019-12-26T14:10:00	0.2634	4.608		0.679163189	0.858945105	0.015347588	0.158338240	0.048801383
2019-12-26T14:15:00	0.2633	4.607		0.678790557	0.858374145	0.015331776	0.158175106	0.048751104
2019-12-26T14:20:00	0.2628	4.604		0.677111785	0.855803348	0.015260644	0.157441254	0.048524924
2019-12-26T14:25:00	0.2627	4.598		0.677065547	0.855732576	0.015258688	0.157421068	0.048518702
2019-12-26T14:30:00	0.2618	4.592		0.674078787	0.851164903	0.015132573	0.156119970	0.048117691
2019-12-26T14:35:00	0.2630	4.588		0.677952728	0.857090828	0.015296254	0.157808637	0.048638154
2019-12-26T14:40:00	0.2638	4.581		0.680517671	0.861021504	0.015405137	0.158931963	0.048984375
2019-12-26T14:45:00	0.2628	4.576		0.677207180	0.855949368	0.015264682	0.157482907	0.048537761
2019-12-26T14:50:00	0.2628	4.571		0.677160944	0.855878594	0.015262725	0.157462718	0.048531539
2019-12-26T14:55:00	0.2630	4.565		0.677767817	0.856807677	0.015288420	0.157727816	0.048613245
2019-12-26T15:00:00	0.2631	4.561		0.678374588	0.857736922	0.015314135	0.157993104	0.048695009
2019-12-26T15:05:00	0.2629	4.555		0.677675357	0.856666107	0.015284504	0.157687412	0.048600792
2019-12-26T15:10:00	0.2633	4.549		0.678935045	0.858595520	0.015337906	0.158238351	0.048770596
2019-12-26T15:15:00	0.2631	4.543		0.678235921	0.857524532	0.015308256	0.157932456	0.048676317
2019-12-26T15:20:00	0.2632	4.538		0.678516171	0.857953796	0.015320138	0.158055039	0.048714098
2019-12-26T15:25:00	0.2621	4.532		0.674877090	0.852385001	0.015166227	0.156467173	0.048224702
2019-12-26T15:30:00	0.2633	4.525		0.678750183	0.858312288	0.015330063	0.158157436	0.048745658
2019-12-26T15:35:00	0.2645	4.519		0.682945241	0.864746885	0.015508563	0.159998990	0.049313243
2019-12-26T15:40:00	0.2644	4.514		0.682572996	0.864175303	0.015492680	0.159835127	0.049262739
2019-12-26T15:45:00	0.2644	4.510		0.682526828	0.864104419	0.015490711	0.159814810	0.049256477
2019-12-26T15:50:00	0.2645	4.503		0.682806748	0.864534214	0.015502653	0.159938015	0.049294449
2019-12-26T15:55:00	0.2647	4.498		0.683412682	0.865464809	0.015528520	0.160204883	0.049376701
2019-12-26T16:00:00	0.2649	4.493		0.684018515	0.866395567	0.015554406	0.160471941	0.049459011
2019-12-26T16:05:00	0.2652	4.488		0.685042421	0.867969340	0.015598207	0.160923823	0.049598285
2019-12-26T16:10:00	0.2649	4.482		0.684110814	0.866537395	0.015558352	0.160512648	0.049471557
2019-12-26T16:15:00	0.2648	4.477		0.683830994	0.866107439	0.015546391	0.160389254	0.049433526
2019-12-26T16:20:00	0.2651	4.473		0.684854952	0.867681127	0.015590182	0.160841037	0.049572770
2019-12-26T16:25:00	0.2651	4.470		0.684901091	0.867752058	0.015592157	0.160861410	0.049579049
2019-12-26T16:30:00	0.2656	4.466		0.686250532	0.869827406	0.015649971	0.161457861	0.049762881
2019-12-26T16:35:00	0.2654	4.463		0.685645069	0.868896050	0.015624017	0.161190103	0.049680355
2019-12-26T16:40:00	0.2663	4.458		0.688622379	0.873478957	0.015751860	0.162509036	0.050086863
2019-12-26T16:45:00	0.2661	4.454		0.688017308	0.872546965	0.015725834	0.162240534	0.050004108
2019-12-26T16:50:00	0.2669	4.449		0.690667328	0.876631142	0.015839987	0.163418222	0.050367083
2019-12-26T16:55:00	0.2668	4.443		0.690388009	0.876200373	0.015827934	0.163293879	0.050328759
2019-12-26T17:00:00	0.2671	4.438		0.691410134	0.877777035	0.015872062	0.163749137	0.050469074
2019-12-26T17:05:00	0.2670	4.433		0.690805524	0.876844295	0.015845952	0.163479761	0.050386050
2019-12-26T17:10:00	0.2677	4.427		0.693128387	0.880429536	0.015946390	0.164515961	0.050705417
2019-12-26T17:15:00	0.2682	4.422		0.694799820	0.883012215	0.016018868	0.165263706	0.050935879
2019-12-26T17:20:00	0.2688	4.416		0.696795337	0.886098836	0.016105627	0.166158783	0.051211751
2019-12-26T17:25:00	0.2699	4.410		0.700412684	0.891702872	0.016263530	0.167787838	0.051713841
2019-12-26T17:30:00	0.2701	4.406		0.701107584	0.892780721	0.016293957	0.168101746	0.051810591
2019-12-26T17:35:00	0.2704	4.401		0.702126728	0.894362256	0.016338635	0.168562687	0.051952657
2019-12-26T17:40:00	0.2706	4.397		0.702496991	0.894937065	0.016354883	0.168730316	0.052004322
2019-12-26T17:45:00	0.2709	4.391		0.703515750	0.896519233	0.016399633	0.169191993	0.052146615
2019-12-26T17:50:00	0.2711	4.385		0.704210064	0.897598045	0.016430169	0.169507022	0.052243711
2019-12-26T17:55:00	0.2707	4.380		0.702959043	0.895654536	0.016375171	0.168939624	0.052068833
2019-12-26T18:00:00	0.2698	4.373		0.700085255	0.891195147	0.016249203	0.167640036	0.051668287
2019-12-26T18:05:00	0.2702	4.368		0.701429117	0.893279587	0.016308045	0.168247098	0.051855390
2019-12-26T18:10:00	0.2707	4.364		0.703096777	0.895868444	0.016381222	0.169002044	0.052088071
2019-12-26T18:15:00	0.2712	4.360		0.704439540	0.897954691	0.016440268	0.169611210	0.052275822
2019-12-26T18:20:00	0.2701	4.353		0.700918032	0.892486668	0.016285654	0.168016089	0.051784190
2019-12-26T18:25:00	0.2713	4.346		0.704855460	0.898601223	0.016458580	0.169800134	0.052334050
2019-12-26T18:30:00	0.2692	4.337		0.698088620	0.888101101	0.016161987	0.166740241	0.051390962
2019-12-26T18:35:00	0.2686	4.329		0.696185801	0.885155653	0.016079100	0.165885108	0.051127401
2019-12-26T18:40:00	0.2686	4.321		0.696231797	0.885226816	0.016081101	0.165905752	0.051133764
2019-12-26T18:45:00	0.2692	4.310		0.698226536	0.888314709	0.016168004	0.166802312	0.051410092
2019-12-26T18:50:00	0.2688	4.303		0.696648647	0.885871822	0.016099241	0.166092899	0.051191445
2019-12-26T18:55:00	0.2694	4.295		0.698643159	0.888960085	0.016186185	0.166989891	0.051467906
2019-12-26T19:00:00	0.2698	4.286		0.699987549	0.891043660	0.016244930	0.167595945	0.051654698
2019-12-26T19:05:00	0.2696	4.276		0.699384352	0.890108612	0.016218559	0.167323878	0.051570844
2019-12-26T19:10:00	0.2690	4.267		0.697482204	0.887162065	0.016135547	0.166467464	0.051306889
2019-12-26T19:15:00	0.2702	4.259		0.701423311	0.893270578	0.016307791	0.168244473	0.051854580
2019-12-26T19:20:00	0.2703	4.253		0.701793646	0.893845271	0.016324026	0.168411966	0.051906204
2019-12-26T19:25:00	0.2705	4.244		0.702488285	0.894923548	0.016354501	0.168726373	0.052003107
2019-12-26T19:30:00	0.2715	4.237		0.705451961	0.899528725	0.016484862	0.170071279	0.052417620
2019-12-26T19:35:00	0.2718	4.230		0.706469903	0.901112239	0.016529763	0.170534523	0.052560396
2019-12-26T19:40:00	0.2704	4.224		0.701977348	0.894130388	0.016332082	0.168495083	0.051931821
2019-12-26T19:45:00	0.2716	4.219		0.705913643	0.900246807	0.016505219	0.170281298	0.052482350
2019-12-26T19:50:00	0.2714	4.213		0.705311416	0.899310163	0.016478667	0.170007373	0.052397923
2019-12-26T19:55:00	0.2712	4.209		0.704709091	0.898373681	0.016452134	0.169733636	0.052313555
2019-12-26T20:00:00	0.2715	4.204		0.705727237	0.899956857	0.016496998	0.170196486	0.052456210
2019-12-26T20:05:00	0.2718	4.200		0.706421135	0.901036355	0.016527611	0.170512314	0.052553551
2019-12-26T20:10:00	0.2708	4.194		0.703225801	0.896068841	0.016386890	0.169060527	0.052106096
2019-12-26T20:15:00	0.2702	4.190		0.701325642	0.893119032	0.016303511	0.168200314	0.051840970
2019-12-26T20:20:00	0.2711	4.185		0.704290254	0.897722669	0.016433697	0.169543427	0.052254931
2019-12-26T20:25:00	0.2711	4.181		0.704336149	0.897793998	0.016435717	0.169564264	0.052261353
2019-12-26T20:30:00	0.2708	4.176		0.703409432	0.896354075	0.016394960	0.169143781	0.052131756
2019-12-26T20:35:00	0.2713	4.171		0.705076195	0.898944409	0.016468303	0.169900445	0.052364967
2019-12-26T20:40:00	0.2709	4.167		0.703501244	0.896496698	0.016398996	0.169185414	0.052144588
2019-12-26T20:45:00	0.2709	4.163		0.703547149	0.896568011	0.016401013	0.169206233	0.052151004
2019-12-26T20:50:00	0.2711	4.157		0.704241458	0.897646833	0.016431550	0.169521274	0.052248103
2019-12-26T20:55:00	0.2710	4.154		0.703963170	0.897214376	0.016419307	0.169394964	0.052209173
2019-12-26T21:00:00	0.2712	4.148		0.704657400	0.898293327	0.016449858	0.169710155	0.052306318
2019-12-26T21:05:00	0.2709	4.142		0.703730763	0.896853272	0.016409086	0.169289517	0.052176673
2019-12-26T21:10:00	0.2711	4.137		0.704425037	0.897932150	0.016439629	0.169604624	0.052273792
2019-12-26T21:15:00	0.2710	4.132		0.703822567	0.896995908	0.016413123	0.169331166	0.052189510
2019-12-26T21:20:00	0.2715	4.128		0.705489143	0.899586549	0.016486501	0.170088188	0.052422831
2019-12-26T21:25:00	0.2713	4.123		0.704886847	0.898650020	0.016459962	0.169814396	0.052338446
2019-12-26T21:30:00	0.2723	4.118		0.708172436	0.903762724	0.016605008	0.171310803	0.052799653
2019-12-26T21:35:00	0.2721	4.114		0.707570579	0.902825471	0.016578388	0.171036169	0.052715008
2019-12-26T21:40:00	0.2718	4.110		0.706644675	0.901384207	0.016537479	0.170614125	0.052584930
2019-12-26T21:45:00	0.2724	4.105		0.708633776	0.904481368	0.016625428	0.171521475	0.052864584
2019-12-26T21:50:00	0.2718	4.100		0.706412438	0.901022823	0.016527227	0.170508354	0.052552331
2019-12-26T21:55:00	0.2718	4.096		0.706458307	0.901094196	0.016529252	0.170529242	0.052558769
2019-12-26T22:00:00	0.2728	4.091		0.709742496	0.906209213	0.016674558	0.172028337	0.053020804
2019-12-26T22:05:00	0.2729	4.087		0.710020347	0.906642389	0.016686882	0.172155484	0.053059992
2019-12-26T22:10:00	0.2719	4.084		0.706736406	0.901526963	0.016541530	0.170655913	0.052597810
2019-12-26T22:15:00	0.2720	4.080		0.707338400	0.902463991	0.016568124	0.170930286	0.052682374
2019-12-26T22:20:00	0.2729	4.075		0.710206536	0.906932697	0.016695143	0.172240713	0.053086261
2019-12-26T22:25:00	0.2724	4.070		0.708542092	0.904338535	0.016621369	0.171479596	0.052851677
2019-12-26T22:30:00	0.2723	4.067		0.708172436	0.903762724	0.016605008	0.171310803	0.052799653
2019-12-26T22:35:00	0.2728	4.063		0.709745392	0.906213728	0.016674686	0.172029662	0.053021213
2019-12-26T22:40:00	0.2721	4.058		0.707433012	0.902611287	0.016572306	0.170973428	0.052695671
2019-12-26T22:45:00	0.2722	4.055		0.707711038	0.903044175	0.016584598	0.171100241	0.052734756
2019-12-26T22:50:00	0.2721	4.052		0.707665185	0.902972777	0.016582570	0.171079323	0.052728309
2019-12-26T22:55:00	0.2719	4.047		0.706971521	0.901892891	0.016551914	0.170763045	0.052630829
2019-12-26T23:00:00	0.2717	4.044		0.706277728	0.900813222	0.016521282	0.170447017	0.052533426
2019-12-26T23:05:00	0.2709	4.039		0.703638957	0.896710639	0.016405050	0.169247873	0.052163838
2019-12-26T23:10:00	0.2708	4.034		0.703268809	0.896135641	0.016388780	0.169080024	0.052112105
2019-12-26T23:15:00	0.2711	4.030		0.704195561	0.897575505	0.016429531	0.169500439	0.052241681
2019-12-26T23:20:00	0.2698	4.023		0.699932888	0.890958913	0.016242539	0.167571281	0.051647096
2019-12-26T23:25:00	0.2696	4.018		0.699562366	0.890384528	0.016226339	0.167404146	0.051595583
2019-12-26T23:30:00	0.2696	4.013		0.699516411	0.890313297	0.016224330	0.167383422	0.051589196
2019-12-26T23:35:00	0.2695	4.009		0.699145847	0.889738981	0.016208138	0.167216367	0.051537708
2019-12-26T23:40:00	0.2689	4.005		0.697151607	0.886650270	0.016121142	0.166318854	0.051261086
2019-12-26T23:45:00	0.2693	4.002		0.698404606	0.888590532	0.016175773	0.166882472	0.051434799
2019-12-26T23:50:00	0.2687	3.999		0.696409964	0.885502481	0.016088853	0.165985727	0.051158413
2019-12-26T23:55:00	0.2689	3.994		0.697013651	0.886436728	0.016115133	0.166256861	0.051241979
2019-12-27T00:00:00	0.2684	3.991		0.695668171	0.884354937	0.016056591	0.165652886	0.051055828
2019-12-27T00:05:00	0.2681	3.987		0.694647234	0.882776340	0.016012244	0.165195370	0.050914817
2019-12-27T00:10:00	0.2687	3.982		0.696550850	0.885720484	0.016094984	0.166048982	0.051177909
2019-12-27T00:15:00	0.2680	3.978		0.694230156	0.882131706	0.015994146	0.165008656	0.050857270
2019-12-27T00:20:00	0.2677	3.973		0.693208818	0.880553763	0.015949873	0.164551903	0.050716495
2019-12-27T00:25:00	0.2676	3.969		0.692837617	0.879980489	0.015933799	0.164386063	0.050665381
2019-12-27T00:30:00	0.2685	3.964		0.695717082	0.884430586	0.016058717	0.165674821	0.051062589
2019-12-27T00:35:00	0.2690	3.960		0.697620144	0.887375636	0.016141559	0.166529491	0.051326006
2019-12-27T00:40:00	0.2686	3.956		0.696274886	0.885293482	0.016082975	0.165925092	0.051139725
2019-12-27T00:45:00	0.2690	3.951		0.697528185	0.887233255	0.016137551	0.166488138	0.051313261
2019-12-27T00:50:00	0.2682	3.945		0.694883123	0.883140998	0.016022485	0.165301020	0.050947380
2019-12-27T00:55:00	0.2696	3.940		0.699384352	0.890108612	0.016218559	0.167323878	0.051570844
2019-12-27T01:00:00	0.2694	3.935		0.698689125	0.889031298	0.016188192	0.167010593	0.051474287
2019-12-27T01:05:00	0.2692	3.932		0.697993767	0.887954200	0.016157850	0.166697559	0.051377807
2019-12-27T01:10:00	0.2698	3.929		0.699895650	0.890901181	0.016240910	0.167554479	0.051641918
2019-12-27T01:15:00	0.2698	3.923		0.700174246	0.891333131	0.016253096	0.167680200	0.051680666
2019-12-27T01:20:00	0.2690	3.918		0.697531091	0.887237754	0.016137678	0.166489445	0.051313664
2019-12-27T01:25:00	0.2692	3.910		0.698134593	0.888172302	0.016163992	0.166760930	0.051397338
2019-12-27T01:30:00	0.2692	3.903		0.698088620	0.888101101	0.016161987	0.166740241	0.051390962
2019-12-27T01:35:00	0.2689	3.898		0.697068356	0.886521403	0.016117516	0.166281442	0.051249555
2019-12-27T01:40:00	0.2698	3.890		0.699944504	0.890976922	0.016243047	0.167576522	0.051648712
2019-12-27T01:45:00	0.2687	3.884		0.696326696	0.885373642	0.016085229	0.165948347	0.051146892
2019-12-27T01:50:00	0.2680	3.875		0.694330923	0.882287438	0.015998518	0.165053757	0.050871171
2019-12-27T01:55:00	0.2679	3.869		0.693959835	0.881713979	0.015982422	0.164887701	0.050819991
2019-12-27T02:00:00	0.2681	3.862		0.694563925	0.882647567	0.016008628	0.165158066	0.050903320
2019-12-27T02:05:00	0.2685	3.853		0.695817808	0.884586384	0.016063096	0.165719999	0.051076513
2019-12-27T02:10:00	0.2675	3.840		0.692521150	0.879491841	0.015920101	0.164244747	0.050621826
2019-12-27T02:15:00	0.2668	3.826		0.690197903	0.875907227	0.015819734	0.163209279	0.050302685
2019-12-27T02:20:00	0.2669	3.811		0.690477236	0.876337972	0.015831784	0.163333594	0.050341000
2019-12-27T02:25:00	0.2667	3.792		0.690105757	0.875765149	0.015815760	0.163168281	0.050290049
2019-12-27T02:30:00	0.2655	3.773		0.686152458	0.869676521	0.015645765	0.161414473	0.049749508
2019-12-27T02:35:00	0.2640	3.754		0.681216358	0.862093196	0.015434867	0.159238682	0.049078908
2019-12-27T02:40:00	0.2657	3.736		0.686711721	0.870537043	0.015669755	0.161661973	0.049825790
2019-12-27T02:45:00	0.2667	3.718		0.689921460	0.875481005	0.015807814	0.163086298	0.050264781
2019-12-27T02:50:00	0.2672	3.705		0.691502246	0.877919166	0.015876042	0.163790197	0.050481730
2019-12-27T02:55:00	0.2679	3.694		0.693732613	0.881362901	0.015972571	0.164786066	0.050788666
2019-12-27T03:00:00	0.2688	3.683		0.696936209	0.886316863	0.016111761	0.166222066	0.051231255
2019-12-27T03:05:00	0.2675	3.676		0.692665096	0.879714093	0.015926331	0.164309017	0.050641635
2019-12-27T03:10:00	0.2679	3.671		0.693919628	0.881651851	0.015980678	0.164869714	0.050814447
2019-12-27T03:15:00	0.2681	3.664		0.694523724	0.882585429	0.016006884	0.165140067	0.050897772
2019-12-27T03:20:00	0.2679	3.656		0.693827576	0.881509621	0.015976687	0.164828538	0.050801756
2019-12-27T03:25:00	0.2681	3.649		0.694431688	0.882443174	0.016002890	0.165098862	0.050885073
2019-12-27T03:30:00	0.2694	3.644		0.698608813	0.888906875	0.016184686	0.166974423	0.051463139
2019-12-27T03:35:00	0.2694	3.640		0.698887507	0.889338665	0.016196854	0.167099957	0.051501830
2019-12-27T03:40:00	0.2677	3.634		0.693318341	0.880722930	0.015954618	0.164600851	0.050731581
2019-12-27T03:45:00	0.2686	3.627		0.696197429	0.885173643	0.016079606	0.165890327	0.051129010
2019-12-27T03:50:00	0.2684	3.622		0.695501598	0.884097317	0.016049351	0.165578193	0.051032807
2019-12-27T03:55:00	0.2686	3.615		0.696105434	0.885031320	0.016075604	0.165849042	0.051116286
2019-12-27T04:00:00	0.2685	3.609		0.695734526	0.884457567	0.016059475	0.165682645	0.051065000
2019-12-27T04:05:00	0.2676	3.603		0.693010645	0.880247695	0.015941290	0.164463355	0.050689203
2019-12-27T04:10:00	0.2679	3.596		0.693862482	0.881563555	0.015978201	0.164844151	0.050806568
2019-12-27T04:15:00	0.2672	3.592		0.691462528	0.877857879	0.015874326	0.163772492	0.050476272
2019-12-27T04:20:00	0.2675	3.586		0.692639939	0.879675250	0.015925242	0.164297784	0.050638173
2019-12-27T04:25:00	0.2664	3.580		0.688937302	0.873964159	0.015765415	0.162648877	0.050129963
2019-12-27T04:30:00	0.2663	3.575		0.688813600	0.873773561	0.015760090	0.162593939	0.050113031
2019-12-27T04:35:00	0.2653	3.570		0.685432941	0.868569819	0.015614929	0.161096348	0.049651459
2019-12-27T04:40:00	0.2649	3.566		0.684005482	0.866375541	0.015553849	0.160466193	0.049457239
2019-12-27T04:45:00	0.2645	3.560		0.682903546	0.864682856	0.015506784	0.159980631	0.049307584
2019-12-27T04:50:00	0.2635	3.555		0.679517410	0.859487967	0.015362628	0.158493396	0.048849204
2019-12-27T04:55:00	0.2635	3.551		0.679393388	0.859297885	0.015357361	0.158439063	0.048832458
2019-12-27T05:00:00	0.2628	3.547		0.677310489	0.856107508	0.015269055	0.157528022	0.048551666
2019-12-27T05:05:00	0.2617	3.542		0.673592264	0.850421587	0.015112082	0.155908568	0.048052535
2019-12-27T05:10:00	0.2616	3.537		0.673468040	0.850231829	0.015106853	0.155854614	0.048035906
2019-12-27T05:15:00	0.2614	3.534		0.672689908	0.849043495	0.015074116	0.155516877	0.047931812
2019-12-27T05:20:00	0.2615	3.531		0.672892632	0.849353037	0.015082641	0.155604829	0.047958920
2019-12-27T05:25:00	0.2598	3.527		0.667533023	0.841181245	0.014858104	0.153288320	0.047244949
2019-12-27T05:30:00	0.2606	3.522		0.670027306	0.844981207	0.014962380	0.154364121	0.047576521
2019-12-27T05:35:00	0.2599	3.519		0.667939035	0.841799427	0.014875052	0.153463166	0.047298838
2019-12-27T05:40:00	0.2595	3.516		0.666504699	0.839616179	0.014815225	0.152845945	0.047108605
2019-12-27T05:45:00	0.2595	3.515		0.666380233	0.839426808	0.014810039	0.152792446	0.047092116
2019-12-27T05:50:00	0.2590	3.514		0.664945280	0.837244540	0.014750324	0.152176377	0.046902237
2019-12-27T05:55:00	0.2589	3.511		0.664493055	0.836557164	0.014731531	0.151982494	0.046842481
2019-12-27T06:00:00	0.2583	3.508		0.662401594	0.833380454	0.014644780	0.151087500	0.046566635
2019-12-27T06:05:00	0.2587	3.505		0.663916222	0.835680641	0.014707578	0.151735374	0.046766316
2019-12-27T06:10:00	0.2589	3.502		0.664447176	0.836487439	0.014729625	0.151962831	0.046836420
2019-12-27T06:15:00	0.2587	3.499		0.663994888	0.835800161	0.014710844	0.151769063	0.046776699
2019-12-27T06:20:00	0.2577	3.496		0.660591082	0.830633500	0.014569899	0.150314967	0.046328533
2019-12-27T06:25:00	0.2571	3.494		0.658497365	0.827460360	0.014483556	0.149424176	0.046053982
2019-12-27T06:30:00	0.2567	3.490		0.657387664	0.825780068	0.014437901	0.148953167	0.045908813
2019-12-27T06:35:00	0.2572	3.487		0.658904391	0.828076936	0.014500320	0.149597132	0.046107289
2019-12-27T06:40:00	0.2566	3.485		0.656809698	0.824905337	0.014414153	0.148708159	0.045833299
2019-12-27T06:45:00	0.2568	3.481		0.657670049	0.826207550	0.014449512	0.149072951	0.045945731
2019-12-27T06:50:00	0.2574	3.478		0.659514844	0.829001935	0.014525483	0.149856726	0.046187298
2019-12-27T06:55:00	0.2580	3.475		0.661686688	0.832295446	0.014615189	0.150782207	0.046472541
2019-12-27T07:00:00	0.2576	3.474		0.660249875	0.830116127	0.014555810	0.150169608	0.046283732
2019-12-27T07:05:00	0.2584	3.470		0.662749172	0.833908128	0.014659179	0.151236046	0.046612418
2019-12-27T07:10:00	0.2585	3.469		0.663280296	0.834714655	0.014681195	0.151463184	0.046682424
2019-12-27T07:15:00	0.2589	3.467		0.664466849	0.836517337	0.014730443	0.151971262	0.046839019
2019-12-27T07:20:00	0.2584	3.465		0.663031138	0.834336272	0.014670865	0.151356608	0.046649577
2019-12-27T07:25:00	0.2583	3.463		0.662578674	0.833649274	0.014652115	0.151163170	0.046589957
2019-12-27T07:30:00	0.2589	3.462		0.664420969	0.836447612	0.014728537	0.151951600	0.046832959
2019-12-27T07:35:00	0.2584	3.462		0.662985241	0.834266575	0.014668962	0.151336980	0.046643527
2019-12-27T07:40:00	0.2595	3.462		0.666465412	0.839556404	0.014813588	0.152829057	0.047103400
2019-12-27T07:45:00	0.2597	3.462		0.666995993	0.840363794	0.014835703	0.153057211	0.047173719
2019-12-27T07:50:00	0.2597	3.462		0.667199034	0.840672828	0.014844170	0.153144567	0.047200643
2019-12-27T07:55:00	0.2594	3.463		0.666091997	0.838988319	0.014798034	0.152668593	0.047053943
2019-12-27T08:00:00	0.2604	3.464		0.669569189	0.844282880	0.014943200	0.154166236	0.047515531
2019-12-27T08:05:00	0.2602	3.466		0.668790222	0.843095881	0.014910615	0.153830065	0.047411920
2019-12-27T08:10:00	0.2603	3.469		0.668993163	0.843405075	0.014919100	0.153917609	0.047438902
2019-12-27T08:15:00	0.2604	3.471		0.669523375	0.844213053	0.014941282	0.154146454	0.047509434
2019-12-27T08:20:00	0.2603	3.474		0.669071719	0.843524770	0.014922386	0.153951503	0.047449348
2019-12-27T08:25:00	0.2599	3.478		0.667637831	0.841340809	0.014862478	0.153333444	0.047258857
2019-12-27T08:30:00	0.2599	3.482		0.667840837	0.841649900	0.014870952	0.153420868	0.047285802
2019-12-27T08:35:00	0.2602	3.486		0.668698572	0.842956258	0.014906784	0.153790538	0.047399737
2019-12-27T08:40:00	0.2611	3.491		0.671846228	0.847755648	0.015038664	0.155151124	0.047819083
2019-12-27T08:45:00	0.2606	3.498		0.670086234	0.845071047	0.014964849	0.154389585	0.047584369
2019-12-27T08:50:00	0.2606	3.506		0.669961891	0.844881481	0.014959641	0.154335856	0.047567810
2019-12-27T08:55:00	0.2615	3.513		0.673108453	0.849682617	0.015091720	0.155698493	0.047987788
2019-12-27T09:00:00	0.2608	3.520		0.670694807	0.845999030	0.014990351	0.154652688	0.047665460
2019-12-27T09:05:00	0.2610	3.528		0.671224770	0.846807404	0.015012578	0.154881998	0.047736136
2019-12-27T09:10:00	0.2618	3.536		0.674043395	0.851110823	0.015131082	0.156104587	0.048112950
2019-12-27T09:15:00	0.2617	3.546		0.673592301	0.850421643	0.015112084	0.155908584	0.048052540
2019-12-27T09:20:00	0.2618	3.556		0.674121842	0.851230692	0.015134387	0.156138686	0.048123459
2019-12-27T09:25:00	0.2621	3.566		0.674978096	0.852539415	0.015170488	0.156511132	0.048238251
2019-12-27T09:30:00	0.2622	3.577		0.675180692	0.852849161	0.015179037	0.156599323	0.048265432
2019-12-27T09:35:00	0.2624	3.589		0.676036697	0.854158282	0.015215183	0.156972238	0.048380368
2019-12-27T09:40:00	0.2619	3.599		0.674278731	0.851470439	0.015140999	0.156206893	0.048144481
2019-12-27T09:45:00	0.2621	3.609		0.675134948	0.852779220	0.015177106	0.156579408	0.048259294
2019-12-27T09:50:00	0.2619	3.619		0.674357172	0.851590316	0.015144305	0.156241001	0.048154994
2019-12-27T09:55:00	0.2617	3.631		0.673579231	0.850401678	0.015111534	0.155902907	0.048050790
2019-12-27T10:00:00	0.2606	3.645		0.670184409	0.845220727	0.014968961	0.154432012	0.047597446
2019-12-27T10:05:00	0.2605	3.655		0.669828425	0.844678022	0.014954052	0.154278197	0.047550039
2019-12-27T10:10:00	0.2607	3.662		0.670454088	0.845631931	0.014980261	0.154548590	0.047633376
2019-12-27T10:15:00	0.2605	3.665		0.669770901	0.844590336	0.014951643	0.154253350	0.047542380
2019-12-27T10:20:00	0.2600	3.667		0.668105536	0.842052978	0.014882005	0.153534899	0.047320947
2019-12-27T10:25:00	0.2597	3.672		0.667094436	0.840513623	0.014839808	0.153099562	0.047186772
2019-12-27T10:30:00	0.2599	3.677		0.667720570	0.841466781	0.014865931	0.153369073	0.047269838
2019-12-27T10:35:00	0.2590	3.684		0.664743708	0.836938132	0.014741946	0.152089941	0.046875597
2019-12-27T10:40:00	0.2591	3.691		0.665042592	0.837392476	0.014754370	0.152218115	0.046915101
2019-12-27T10:45:00	0.2593	3.694		0.665669080	0.838345070	0.014780429	0.152486964	0.046997963
2019-12-27T10:50:00	0.2587	3.692		0.664001830	0.835810709	0.014711132	0.151772036	0.046777616
2019-12-27T10:55:00	0.2575	3.702		0.660037673	0.829794414	0.014547051	0.150079245	0.046255881
2019-12-27T11:00:00	0.2571	3.712		0.658696088	0.827761374	0.014491740	0.149508606	0.046080004
2019-12-27T11:05:00	0.2568	3.718		0.657682358	0.826226186	0.014450018	0.149078173	0.045947341
2019-12-27T11:10:00	0.2572	3.721		0.658966623	0.828171219	0.014502884	0.149623586	0.046115442
2019-12-27T11:15:00	0.2572	3.725		0.658937775	0.828127513	0.014501696	0.149611323	0.046111663
2019-12-27T11:20:00	0.2569	3.720		0.657924113	0.826592219	0.014459962	0.149180764	0.045978960
2019-12-27T11:25:00	0.2565	3.724		0.656581744	0.824560416	0.014404792	0.148611584	0.045803533
2019-12-27T11:30:00	0.2561	3.733		0.655238876	0.822529399	0.014349712	0.148043330	0.045628392
2019-12-27T11:35:00	0.2566	3.742		0.656852437	0.824970012	0.014415908	0.148726270	0.045838881
2019-12-27T11:40:00	0.2555	3.753		0.653209190	0.819462530	0.014266669	0.147186599	0.045364339
2019-12-27T11:45:00	0.2549	3.759		0.651536185	0.816937250	0.014198410	0.146482375	0.045147290
2019-12-27T11:50:00	0.2545	3.762		0.650191438	0.814909184	0.014143667	0.145917604	0.044973223
2019-12-27T11:55:00	0.2551	3.764		0.652136114	0.817842525	0.014222868	0.146734702	0.045225060
2019-12-27T12:00:00	0.2565	3.766		0.656708110	0.824751617	0.014409981	0.148665116	0.045820033
2019-12-27T12:05:00	0.2567	3.770		0.657336042	0.825701928	0.014435779	0.148931275	0.045902065
2019-12-27T12:10:00	0.2573	3.778		0.659276875	0.828641311	0.014515671	0.149755502	0.046156100
2019-12-27T12:15:00	0.2565	3.782		0.656621510	0.824620584	0.014406425	0.148628429	0.045808725
2019-12-27T12:20:00	0.2565	3.781		0.656592643	0.824576907	0.014405240	0.148616201	0.045804956
2019-12-27T12:25:00	0.2570	3.778		0.658205601	0.827018472	0.014471545	0.149300262	0.046015791
2019-12-27T12:30:00	0.2568	3.774		0.657520101	0.825980546	0.014443346	0.149009339	0.045926125
2019-12-27T12:35:00	0.2573	3.771		0.659132645	0.828422763	0.014509726	0.149694169	0.046137197
2019-12-27T12:40:00	0.2573	3.770		0.659103798	0.828379055	0.014508537	0.149681904	0.046133416
2019-12-27T12:45:00	0.2582	3.770		0.662355577	0.833310601	0.014642875	0.151067839	0.046560575
2019-12-27T12:50:00	0.2580	3.773		0.661670863	0.832271434	0.014614534	0.150775453	0.046470459
2019-12-27T12:55:00	0.2590	3.774		0.664920339	0.837206626	0.014749288	0.152165681	0.046898941
2019-12-27T13:00:00	0.2594	3.776		0.666202040	0.839155718	0.014802617	0.152715872	0.047068515
2019-12-27T13:05:00	0.2593	3.774		0.665845666	0.838613636	0.014787779	0.152562788	0.047021333
2019-12-27T13:10:00	0.2599	3.777		0.667781946	0.841560231	0.014868493	0.153395505	0.047277984
2019-12-27T13:15:00	0.2601	3.780		0.668407962	0.842513578	0.014894638	0.153665237	0.047361118
2019-12-27T13:20:00	0.2595	3.781		0.666414438	0.839478849	0.014811464	0.152807148	0.047096647
2019-12-27T13:25:00	0.2598	3.780		0.667368165	0.840930277	0.014851225	0.153217354	0.047223077
2019-12-27T13:30:00	0.2611	3.774		0.671593916	0.847370621	0.015028070	0.155041829	0.047785397
2019-12-27T13:35:00	0.2603	3.769		0.668947564	0.843335598	0.014917194	0.153897936	0.047432839
2019-12-27T13:40:00	0.2592	3.765		0.665644107	0.838307092	0.014779390	0.152476242	0.046994659
2019-12-27T13:45:00	0.2587	3.762		0.663976846	0.835772748	0.014710095	0.151761336	0.046774318
2019-12-27T13:50:00	0.2587	3.763		0.663948037	0.835728979	0.014708899	0.151748999	0.046770515
2019-12-27T13:55:00	0.2589	3.766		0.664574715	0.836681273	0.014734924	0.152017494	0.046853268
2019-12-27T14:00:00	0.2584	3.765		0.662906961	0.834147711	0.014665718	0.151303507	0.046633210
2019-12-27T14:05:00	0.2580	3.760		0.661566440	0.832112989	0.014610214	0.150730888	0.046456724
2019-12-27T14:10:00	0.2580	3.759		0.661537612	0.832069250	0.014609022	0.150718586	0.046452932
2019-12-27T14:15:00	0.2572	3.754		0.658883907	0.828045902	0.014499476	0.149588426	0.046104606
2019-12-27T14:20:00	0.2581	3.749		0.661807935	0.832479431	0.014620205	0.150833961	0.046488492
2019-12-27T14:25:00	0.2589	3.745		0.664401890	0.836418617	0.014727744	0.151943424	0.046830439
2019-12-27T14:30:00	0.2589	3.740		0.664373085	0.836374842	0.014726548	0.151931080	0.046826635
2019-12-27T14:35:00	0.2594	3.739		0.665982580	0.838821884	0.014793479	0.152621591	0.047039457
2019-12-27T14:40:00	0.2584	3.737		0.663004291	0.834295503	0.014669752	0.151345126	0.046646038
2019-12-27T14:45:00	0.2590	3.733		0.664942088	0.837239688	0.014750192	0.152175009	0.046901816
2019-12-27T14:50:00	0.2580	3.730		0.661634979	0.832216983	0.014613049	0.150760137	0.046465738
2019-12-27T14:55:00	0.2580	3.727		0.661606152	0.832173243	0.014611857	0.150747835	0.046461947
2019-12-27T15:00:00	0.2579	3.726		0.661249325	0.831631878	0.014597100	0.150595595	0.046415025
2019-12-27T15:05:00	0.2588	3.723		0.664171444	0.836068428	0.014718174	0.151844687	0.046800007
2019-12-27T15:10:00	0.2580	3.719		0.661519669	0.832042026	0.014608280	0.150710930	0.046450572
2019-12-27T15:15:00	0.2595	3.714		0.666407389	0.839468125	0.014811171	0.152804118	0.047095713
2019-12-27T15:20:00	0.2580	3.712		0.661462014	0.831954549	0.014605895	0.150686329	0.046442990
2019-12-27T15:25:00	0.2585	3.709		0.663072802	0.834399540	0.014672592	0.151374427	0.046655068
2019-12-27T15:30:00	0.2567	3.706		0.657137839	0.825401933	0.014427634	0.148847237	0.045876164
2019-12-27T15:35:00	0.2571	3.701		0.658750554	0.827843881	0.014493983	0.149531750	0.046087138
2019-12-27T15:40:00	0.2574	3.698		0.659706300	0.829292108	0.014533379	0.149938191	0.046212407
2019-12-27T15:45:00	0.2577	3.696		0.660661794	0.830740734	0.014572820	0.150345100	0.046337820
2019-12-27T15:50:00	0.2572	3.695		0.658992237	0.828210026	0.014503940	0.149634474	0.046118798
2019-12-27T15:55:00	0.2568	3.694		0.657650264	0.826177598	0.014448698	0.149064557	0.045943144
2019-12-27T16:00:00	0.2565	3.693		0.656636241	0.824642873	0.014407030	0.148634669	0.045810649
2019-12-27T16:05:00	0.2569	3.690		0.657824974	0.826442109	0.014455884	0.149138689	0.045965992
2019-12-27T16:10:00	0.2574	3.688		0.659669690	0.829236619	0.014531869	0.149922611	0.046207605
2019-12-27T16:15:00	0.2565	3.685		0.656590263	0.824573305	0.014405142	0.148615192	0.045804646
2019-12-27T16:20:00	0.2565	3.682		0.656793889	0.824881415	0.014413504	0.148701460	0.045831234
2019-12-27T16:25:00	0.2573	3.679		0.659295573	0.828669644	0.014516442	0.149763454	0.046158551
2019-12-27T16:30:00	0.2574	3.677		0.659499047	0.828977994	0.014524831	0.149850005	0.046185227
2019-12-27T16:35:00	0.2577	3.676		0.660686839	0.830778714	0.014573855	0.150355774	0.046341110
2019-12-27T16:40:00	0.2577	3.674		0.660562172	0.830589661	0.014568705	0.150302648	0.046324736
2019-12-27T16:45:00	0.2573	3.671		0.659124912	0.828411048	0.014509407	0.149690881	0.046136183
2019-12-27T16:50:00	0.2577	3.666		0.660640911	0.830709065	0.014571958	0.150336201	0.046335077
2019-12-27T16:55:00	0.2577	3.661		0.660516244	0.830520014	0.014566809	0.150283079	0.046318704
2019-12-27T17:00:00	0.2584	3.659		0.663015356	0.834312306	0.014670211	0.151349859	0.046647496
2019-12-27T17:05:00	0.2590	3.655		0.664857430	0.837110996	0.014746673	0.152138703	0.046890626
2019-12-27T17:10:00	0.2592	3.653		0.665388246	0.837918012	0.014768745	0.152366417	0.046960809
2019-12-27T17:15:00	0.2596	3.651		0.666901627	0.840220179	0.014831768	0.153016620	0.047161208
2019-12-27T17:20:00	0.2598	3.648		0.667432144	0.841027670	0.014853895	0.153244893	0.047231564
2019-12-27T17:25:00	0.2603	3.644		0.668944672	0.843331192	0.014917073	0.153896689	0.047432454
2019-12-27T17:30:00	0.2606	3.640		0.670129373	0.845136817	0.014966656	0.154408227	0.047590115
2019-12-27T17:35:00	0.2608	3.635		0.670659419	0.845945060	0.014988867	0.154637382	0.047660743
2019-12-27T17:40:00	0.2610	3.632		0.671516489	0.847252478	0.015024820	0.155008298	0.047775063
2019-12-27T17:45:00	0.2604	3.629		0.669429074	0.844069333	0.014937336	0.154105740	0.047496886
2019-12-27T17:50:00	0.2604	3.625		0.669304708	0.843879803	0.014932132	0.154052053	0.047480339
2019-12-27T17:55:00	0.2611	3.622		0.671797775	0.847681704	0.015036629	0.155130132	0.047812613
2019-12-27T18:00:00	0.2608	3.621		0.670692139	0.845994961	0.014990239	0.154651534	0.047665105
2019-12-27T18:05:00	0.2601	3.617		0.668276886	0.842313938	0.014889162	0.153608740	0.047343705
2019-12-27T18:10:00	0.2603	3.613		0.669134519	0.843620460	0.014925012	0.153978602	0.047457701
2019-12-27T18:15:00	0.2605	3.610		0.669664709	0.844428471	0.014947198	0.154207485	0.047528245
2019-12-27T18:20:00	0.2605	3.606		0.669867602	0.844737743	0.014955692	0.154295121	0.047555255
2019-12-27T18:25:00	0.2599	3.604		0.667779239	0.841556109	0.014868380	0.153394339	0.047277625
2019-12-27T18:30:00	0.2600	3.603		0.667982237	0.841865214	0.014876856	0.153481777	0.047304574
2019-12-27T18:35:00	0.2586	3.602		0.663598904	0.835198584	0.014694410	0.151599523	0.046724445
2019-12-27T18:40:00	0.2597	3.601		0.667078487	0.840489348	0.014839143	0.153092700	0.047184657
2019-12-27T18:45:00	0.2582	3.602		0.662366162	0.833326669	0.014643313	0.151072362	0.046561969
2019-12-27T18:50:00	0.2585	3.600		0.663225193	0.834630968	0.014678910	0.151439610	0.046675159
2019-12-27T18:55:00	0.2586	3.599		0.663428446	0.834939667	0.014687339	0.151526572	0.046701961
2019-12-27T19:00:00	0.2596	3.599		0.666908192	0.840230171	0.014832042	0.153019444	0.047162079
2019-12-27T19:05:00	0.2590	3.596		0.664818125	0.837051249	0.014745039	0.152121849	0.046885431
2019-12-27T19:10:00	0.2599	3.593		0.667641725	0.841346737	0.014862640	0.153335121	0.047259374
2019-12-27T19:15:00	0.2592	3.589		0.665552081	0.838167144	0.014775561	0.152436736	0.046982483
2019-12-27T19:20:00	0.2591	3.583		0.665099931	0.837479648	0.014756754	0.152242711	0.046922682
2019-12-27T19:25:00	0.2603	3.582		0.669232719	0.843770099	0.014929120	0.154020982	0.047470762
2019-12-27T19:30:00	0.2606	3.578		0.670090125	0.845076980	0.014965012	0.154391266	0.047584888
2019-12-27T19:35:00	0.2613	3.577		0.672255648	0.848380535	0.015055863	0.155328559	0.047873771
2019-12-27T19:40:00	0.2606	3.577		0.670168658	0.845196712	0.014968301	0.154425205	0.047595348
2019-12-27T19:45:00	0.2610	3.575		0.671352960	0.847002974	0.015017957	0.154937491	0.047753240
2019-12-27T19:50:00	0.2607	3.572		0.670247189	0.845316448	0.014971591	0.154459147	0.047605809
2019-12-27T19:55:00	0.2613	3.568		0.672412617	0.848620153	0.015062459	0.155396615	0.047894746
2019-12-27T20:00:00	0.2618	3.557		0.673923074	0.850926981	0.015126014	0.156052294	0.048096833
2019-12-27T20:05:00	0.2623	3.556		0.675759624	0.853734475	0.015203478	0.156851481	0.048343150
2019-12-27T20:10:00	0.2621	3.552		0.674981982	0.852545356	0.015170652	0.156512823	0.048238772
2019-12-27T20:15:00	0.2628	3.550		0.677144595	0.855853568	0.015262033	0.157455580	0.048529339
2019-12-27T20:20:00	0.2618	3.547		0.674079971	0.851166713	0.015132623	0.156120485	0.048117850
2019-12-27T20:25:00	0.2611	3.544		0.671666970	0.847482095	0.015031137	0.155073470	0.047795150
2019-12-27T20:30:00	0.2620	3.542		0.674812058	0.852285588	0.015163484	0.156438873	0.048215980
2019-12-27T20:35:00	0.2622	3.533		0.675341421	0.853094922	0.015185820	0.156669309	0.048287002
2019-12-27T20:40:00	0.2623	3.529		0.675543997	0.853404700	0.015194372	0.156757538	0.048314196
2019-12-27T20:45:00	0.2623	3.514		0.675746562	0.853714496	0.015202926	0.156845789	0.048341396
2019-12-27T20:50:00	0.2620	3.468		0.674642126	0.852025834	0.015156318	0.156364939	0.048193193
2019-12-27T20:55:00	0.2624	3.445		0.675824972	0.853834424	0.015206238	0.156879957	0.048351926
2019-12-27T21:00:00	0.2621	3.448		0.675047344	0.852645283	0.015173410	0.156541273	0.048247541
2019-12-27T21:05:00	0.2621	3.448		0.674923170	0.852455446	0.015168171	0.156487227	0.048230883
2019-12-27T21:10:00	0.2617	3.446		0.673818484	0.850767184	0.015121608	0.156006845	0.048082825
2019-12-27T21:15:00	0.2620	3.441		0.674674810	0.852075792	0.015157696	0.156379158	0.048197575
2019-12-27T21:20:00	0.2619	3.438		0.674223794	0.851386487	0.015138684	0.156183008	0.048137120
2019-12-27T21:25:00	0.2618	3.430		0.674099592	0.851196694	0.015133450	0.156129014	0.048120478
2019-12-27T21:30:00	0.2617	3.431		0.673648505	0.850507503	0.015114450	0.155932998	0.048060064
2019-12-27T21:35:00	0.2624	3.427		0.675811910	0.853814445	0.015205687	0.156874265	0.048350172
2019-12-27T21:40:00	0.2620	3.424		0.674707494	0.852125751	0.015159074	0.156393377	0.048201958
2019-12-27T21:45:00	0.2623	3.421		0.675563610	0.853434694	0.015195200	0.156766082	0.048316829
2019-12-27T21:50:00	0.2631	3.420		0.678378878	0.857743492	0.015314316	0.157994980	0.048695587
2019-12-27T21:55:00	0.2625	3.418		0.676295398	0.854554048	0.015226116	0.157085031	0.048415132
2019-12-27T22:00:00	0.2627	3.418		0.676824546	0.855363727	0.015248491	0.157315872	0.048486280
2019-12-27T22:05:00	0.2619	3.418		0.674314972	0.851525823	0.015142526	0.156222651	0.048149338
2019-12-27T22:10:00	0.2631	3.417		0.678339016	0.857682436	0.015312626	0.157977545	0.048690214
2019-12-27T22:15:00	0.2628	3.415		0.677137049	0.855842018	0.015261714	0.157452285	0.048528323
2019-12-27T22:20:00	0.2621	3.413		0.674954482	0.852503315	0.015169492	0.156500854	0.048235083
2019-12-27T22:25:00	0.2628	3.411		0.677345369	0.856160903	0.015270531	0.157543255	0.048556361
2019-12-27T22:30:00	0.2634	3.406		0.679081929	0.858820586	0.015344139	0.158302658	0.048790417
2019-12-27T22:35:00	0.2635	3.399		0.679512419	0.859480318	0.015362416	0.158491210	0.048848530
2019-12-27T22:40:00	0.2627	3.395		0.677004697	0.855639441	0.015256113	0.157394504	0.048510515
2019-12-27T22:45:00	0.2626	3.388		0.676455634	0.854799208	0.015232890	0.157154915	0.048436671
2019-12-27T22:50:00	0.2632	3.387		0.678519092	0.857958271	0.015320262	0.158056317	0.048714492
2019-12-27T22:55:00	0.2628	3.386		0.677317184	0.856117757	0.015269338	0.157530946	0.048552567
2019-12-27T23:00:00	0.2613	3.383		0.672519692	0.848783616	0.015066960	0.155443048	0.047909057
2019-12-27T23:05:00	0.2611	3.381		0.671642891	0.847445351	0.015030126	0.155063040	0.047791935
2019-12-27T23:10:00	0.2610	3.380		0.671420129	0.847105454	0.015020776	0.154966573	0.047762203
2019-12-27T23:15:00	0.2607	3.380		0.670543062	0.845767612	0.014983990	0.154587063	0.047645234
2019-12-27T23:20:00	0.2600	3.374		0.668029147	0.841936648	0.014878815	0.153501987	0.047310803
2019-12-27T23:25:00	0.2598	3.370		0.667478727	0.841098585	0.014855838	0.153264945	0.047237745
2019-12-27T23:30:00	0.2604	3.364		0.669547283	0.844249492	0.014942283	0.154156777	0.047512616
2019-12-27T23:35:00	0.2597	3.358		0.667032677	0.840419626	0.014837232	0.153072992	0.047178583
2019-12-27T23:40:00	0.2608	3.357		0.670737642	0.846064360	0.014992147	0.154671216	0.047671171
2019-12-27T23:45:00	0.2611	3.358		0.671823298	0.847720654	0.015037701	0.155141190	0.047816021
2019-12-27T23:50:00	0.2602	3.357		0.668655638	0.842890853	0.014904989	0.153772023	0.047394031
2019-12-27T23:55:00	0.2598	3.354		0.667450465	0.841055562	0.014854659	0.153252779	0.047233995
2019-12-28T00:00:00	0.2595	3.352		0.666572439	0.839719249	0.014818048	0.152875066	0.047117580
2019-12-28T00:05:00	0.2596	3.348		0.666676904	0.839878205	0.014822401	0.152919979	0.047131423
2019-12-28T00:10:00	0.2593	3.344		0.665798691	0.838542190	0.014785824	0.152542615	0.047015116
2019-12-28T00:15:00	0.2597	3.342		0.667213314	0.840694564	0.014844766	0.153150712	0.047202537
2019-12-28T00:20:00	0.2593	3.338		0.665680064	0.838361774	0.014780886	0.152491679	0.046999417
2019-12-28T00:25:00	0.2601	3.337		0.668404439	0.842508213	0.014894491	0.153663719	0.047360650
2019-12-28T00:30:00	0.2610	3.333		0.671453879	0.847156949	0.015022192	0.154981186	0.047766707
2019-12-28T00:35:00	0.2603	3.328		0.668940594	0.843324979	0.014916902	0.153894929	0.047431912
2019-12-28T00:40:00	0.2597	3.323		0.667080601	0.840492565	0.014839231	0.153093609	0.047184937
2019-12-28T00:45:00	0.2597	3.312		0.667185051	0.840651544	0.014843587	0.153138550	0.047198788
2019-12-28T00:50:00	0.2602	3.306		0.668926469	0.843303458	0.014916311	0.153888836	0.047430034
2019-12-28T00:55:00	0.2604	3.298		0.669358162	0.843961263	0.014934369	0.154075127	0.047487451
2019-12-28T01:00:00	0.2612	3.297		0.672079780	0.848112095	0.015048474	0.155252328	0.047850275
2019-12-28T01:05:00	0.2605	3.292		0.669894176	0.844778253	0.014956805	0.154306601	0.047558793
2019-12-28T01:10:00	0.2605	3.286		0.669671307	0.844438527	0.014947474	0.154210334	0.047529123
2019-12-28T01:15:00	0.2604	3.279		0.669448424	0.844098822	0.014938145	0.154114093	0.047499460
2019-12-28T01:20:00	0.2612	3.273		0.672169974	0.848249762	0.015052263	0.155291421	0.047862324
2019-12-28T01:25:00	0.2608	3.269		0.670638816	0.845913639	0.014988004	0.154628472	0.047657997
2019-12-28T01:30:00	0.2608	3.263		0.670743164	0.846072781	0.014992378	0.154673604	0.047671907
2019-12-28T01:35:00	0.2602	3.259		0.668884094	0.843238896	0.014914540	0.153870556	0.047424400
2019-12-28T01:40:00	0.2603	3.254		0.668988492	0.843397958	0.014918905	0.153915594	0.047438281
2019-12-28T01:45:00	0.2602	3.239		0.668765567	0.843058320	0.014909584	0.153819431	0.047408642
2019-12-28T01:50:00	0.2598	3.234		0.667560431	0.841222970	0.014859248	0.153300119	0.047248586
2019-12-28T01:55:00	0.2600	3.229		0.667992286	0.841880517	0.014877275	0.153486107	0.047305909
2019-12-28T02:00:00	0.2599	3.220		0.667769300	0.841540977	0.014867965	0.153390058	0.047276306
2019-12-28T02:05:00	0.2596	3.212		0.666891352	0.840204541	0.014831340	0.153012200	0.047159846
2019-12-28T02:10:00	0.2606	3.208		0.669942062	0.844851252	0.014958810	0.154327289	0.047565169
2019-12-28T02:15:00	0.2603	3.207		0.669064639	0.843513981	0.014922090	0.153948448	0.047448407
2019-12-28T02:20:00	0.2605	3.205		0.669823570	0.844670621	0.014953849	0.154276100	0.047549392
2019-12-28T02:25:00	0.2585	3.202		0.663049594	0.834364297	0.014671630	0.151364501	0.046652009
2019-12-28T02:30:00	0.2579	3.200		0.661186575	0.831536687	0.014594506	0.150568831	0.046406776
2019-12-28T02:35:00	0.2577	3.194		0.660635115	0.830700275	0.014571718	0.150333731	0.046334316
2019-12-28T02:40:00	0.2578	3.190		0.660739751	0.830858958	0.014576041	0.150378325	0.046348060
2019-12-28T02:45:00	0.2569	3.183		0.657890720	0.826541656	0.014458588	0.149166591	0.045974592
2019-12-28T02:50:00	0.2569	3.177		0.657995435	0.826700215	0.014462897	0.149211037	0.045988291
2019-12-28T02:55:00	0.2571	3.173		0.658756688	0.827853174	0.014494236	0.149534357	0.046087941
2019-12-28T03:00:00	0.2574	3.167		0.659517780	0.829006385	0.014525604	0.149857975	0.046187683
2019-12-28T03:05:00	0.2576	3.159		0.660278713	0.830159850	0.014557001	0.150181891	0.046287517
2019-12-28T03:10:00	0.2565	3.153		0.656772537	0.824849106	0.014412627	0.148692413	0.045828446
2019-12-28T03:15:00	0.2565	3.151		0.656548859	0.824510661	0.014403442	0.148597655	0.045799240
2019-12-28T03:20:00	0.2564	3.149		0.656325167	0.824172238	0.014394260	0.148502922	0.045770043
2019-12-28T03:25:00	0.2560	3.147		0.655115882	0.822343455	0.014344672	0.147991341	0.045612368
2019-12-28T03:30:00	0.2562	3.117		0.655549225	0.822998649	0.014362431	0.148174558	0.045668838
2019-12-28T03:35:00	0.2573	3.023		0.659265947	0.828624751	0.014515221	0.149750855	0.046154668
2019-12-28T03:40:00	0.2571	2.932		0.658714194	0.827788801	0.014492485	0.149516299	0.046082376
2019-12-28T03:45:00	0.2581	2.941		0.661771792	0.832424584	0.014618710	0.150818533	0.046483736
2019-12-28T03:50:00	0.2575	2.952		0.659908115	0.829598015	0.014541705	0.150024088	0.046238881
2019-12-28T03:55:00	0.2571	2.965		0.658700029	0.827767343	0.014491902	0.149510280	0.046080520
2019-12-28T04:00:00	0.2576	2.969		0.660117426	0.829915322	0.014550343	0.150113203	0.046266347
2019-12-28T04:05:00	0.2582	2.965		0.662233680	0.833125572	0.014637827	0.151015765	0.046544525
2019-12-28T04:10:00	0.2577	2.960		0.660413756	0.830364608	0.014562576	0.150239415	0.046305247
2019-12-28T04:15:00	0.2572	2.953		0.658921157	0.828102337	0.014501011	0.149604259	0.046109486
2019-12-28T04:20:00	0.2573	2.948		0.659397571	0.828824211	0.014520647	0.149806838	0.046171922
2019-12-28T04:25:00	0.2581	2.945		0.661842221	0.832531460	0.014621624	0.150848598	0.046493003
2019-12-28T04:30:00	0.2580	2.938		0.661662356	0.832258526	0.014614182	0.150771822	0.046469340
2019-12-28T04:35:00	0.2584	2.935		0.662794218	0.833976523	0.014661045	0.151255303	0.046618353
2019-12-28T04:40:00	0.2586	2.929		0.663597939	0.835197118	0.014694370	0.151599110	0.046724318
2019-12-28T04:45:00	0.2594	2.921		0.666039756	0.838908854	0.014795859	0.152646151	0.047047026
2019-12-28T04:50:00	0.2589	2.914		0.664549475	0.836642912	0.014733875	0.152006676	0.046849934
2019-12-28T04:55:00	0.2595	2.911		0.666335602	0.839358908	0.014808180	0.152773265	0.047086204
2019-12-28T05:00:00	0.2584	2.908		0.662878776	0.834104913	0.014664550	0.151291455	0.046629496
2019-12-28T05:05:00	0.2568	2.907		0.657777374	0.826370040	0.014453926	0.149118490	0.045959767
2019-12-28T05:10:00	0.2568	2.908		0.657597307	0.826097425	0.014446521	0.149042090	0.045936220
2019-12-28T05:15:00	0.2569	2.912		0.658073895	0.826819024	0.014466125	0.149244344	0.045998556
2019-12-28T05:20:00	0.2574	2.913		0.659535064	0.829032580	0.014526316	0.149865328	0.046189950
2019-12-28T05:25:00	0.2577	2.912		0.660667591	0.830749525	0.014573060	0.150347571	0.046338581
2019-12-28T05:30:00	0.2581	2.907		0.661799763	0.832467030	0.014619867	0.150830473	0.046487417
2019-12-28T05:35:00	0.2585	2.905		0.663259429	0.834682962	0.014680330	0.151454256	0.046679673
2019-12-28T05:40:00	0.2592	2.900		0.665373848	0.837896119	0.014768146	0.152360238	0.046958905
2019-12-28T05:45:00	0.2586	2.901		0.663555502	0.835132656	0.014692610	0.151580946	0.046718720
2019-12-28T05:50:00	0.2587	2.896		0.663703529	0.835357517	0.014698751	0.151644308	0.046738249
2019-12-28T05:55:00	0.2583	2.799		0.662540198	0.833590863	0.014650521	0.151146727	0.046584889
2019-12-28T06:00:00	0.2582	2.759		0.662360368	0.833317874	0.014643073	0.151069886	0.046561206
2019-12-28T06:05:00	0.2586	2.775		0.663492012	0.835036217	0.014689976	0.151553774	0.046710345
2019-12-28T06:10:00	0.2585	2.779		0.663312229	0.834763153	0.014682519	0.151476845	0.046686635
2019-12-28T06:15:00	0.2588	2.785		0.664115835	0.835983930	0.014715865	0.151820866	0.046792665
2019-12-28T06:20:00	0.2588	2.784		0.664263840	0.836208828	0.014722011	0.151884271	0.046812207
2019-12-28T06:25:00	0.2591	2.783		0.665067235	0.837429940	0.014755395	0.152228686	0.046918359
2019-12-28T06:30:00	0.2587	2.781		0.663904342	0.835662592	0.014707085	0.151730287	0.046764748
2019-12-28T06:35:00	0.2589	2.773		0.664380101	0.836385503	0.014726839	0.151934087	0.046827561
2019-12-28T06:40:00	0.2588	2.769		0.664200362	0.836112369	0.014719375	0.151857076	0.046803826
2019-12-28T06:45:00	0.2586	2.764		0.663365029	0.834843345	0.014684709	0.151499436	0.046693598
2019-12-28T06:50:00	0.2587	2.761		0.663840858	0.835566144	0.014704450	0.151703104	0.046756370
2019-12-28T06:55:00	0.2580	2.758		0.661693783	0.832306212	0.014615482	0.150785235	0.046473474
2019-12-28T07:00:00	0.2579	2.756		0.661185906	0.831535673	0.014594479	0.150568546	0.046406688
2019-12-28T07:05:00	0.2574	2.752		0.659693626	0.829272898	0.014532856	0.149932797	0.046210744
2019-12-28T07:10:00	0.2575	2.755		0.659841811	0.829497509	0.014538969	0.149995865	0.046230182
2019-12-28T07:15:00	0.2580	2.758		0.661630261	0.832209825	0.014612854	0.150758124	0.046465118
2019-12-28T07:20:00	0.2580	2.762		0.661450386	0.831936907	0.014605414	0.150681367	0.046441461
2019-12-28T07:25:00	0.2580	2.767		0.661598499	0.832161632	0.014611540	0.150744569	0.046460940
2019-12-28T07:30:00	0.2586	2.769		0.663386081	0.834875320	0.014685582	0.151508444	0.046696374
2019-12-28T07:35:00	0.2591	2.767		0.665172782	0.837590406	0.014759783	0.152273964	0.046932315
2019-12-28T07:40:00	0.2604	2.772		0.669577641	0.844295761	0.014943553	0.154169885	0.047516656
2019-12-28T07:45:00	0.2600	2.770		0.668088812	0.842027509	0.014881306	0.153527693	0.047318726
2019-12-28T07:50:00	0.2608	2.767		0.670854771	0.846243004	0.014997058	0.154721884	0.047686787
2019-12-28T07:55:00	0.2610	2.763		0.671329619	0.846967364	0.015016977	0.154927386	0.047750125
2019-12-28T08:00:00	0.2616	2.748		0.673439344	0.850187996	0.015105645	0.155842152	0.048032065
2019-12-28T08:05:00	0.2620	2.713		0.674567539	0.851911831	0.015153173	0.156332493	0.048183193
2019-12-28T08:10:00	0.2618	2.697		0.674061461	0.851138429	0.015131843	0.156112439	0.048115370
2019-12-28T08:15:00	0.2622	2.706		0.675189463	0.852862572	0.015179407	0.156603142	0.048266609
2019-12-28T08:20:00	0.2624	2.709		0.675990446	0.854087532	0.015213229	0.156952077	0.048374154
2019-12-28T08:25:00	0.2624	2.705		0.675811281	0.853813483	0.015205660	0.156873991	0.048350088
2019-12-28T08:30:00	0.2620	2.710		0.674651824	0.852040657	0.015156727	0.156369158	0.048194493
2019-12-28T08:35:00	0.2631	2.717		0.678392337	0.857764109	0.015314887	0.158000867	0.048697402
2019-12-28T08:40:00	0.2628	2.724		0.677233701	0.855989964	0.015265804	0.157494488	0.048541331
2019-12-28T08:45:00	0.2632	2.728		0.678687180	0.858215767	0.015327391	0.158129864	0.048737160
2019-12-28T08:50:00	0.2641	2.731		0.681445098	0.862444144	0.015444607	0.159339165	0.049109878
2019-12-28T08:55:00	0.2645	2.735		0.682896898	0.864672648	0.015506500	0.159977704	0.049306682
2019-12-28T09:00:00	0.2636	2.738		0.679782147	0.859893762	0.015373873	0.158609409	0.048884960
2019-12-28T09:05:00	0.2641	2.748		0.681560811	0.862621697	0.015449535	0.159390010	0.049125549
2019-12-28T09:10:00	0.2635	2.754		0.679424181	0.859345079	0.015358669	0.158452553	0.048836616
2019-12-28T09:15:00	0.2638	2.762		0.680550525	0.861071887	0.015406535	0.158946379	0.048988818
2019-12-28T09:20:00	0.2643	2.773		0.682002681	0.863299816	0.015468363	0.159584246	0.049185414
2019-12-28T09:25:00	0.2651	2.780		0.684758095	0.867532232	0.015586037	0.160798274	0.049559590
2019-12-28T09:30:00	0.2659	2.791		0.687511432	0.871768006	0.015704093	0.162016230	0.049934975
2019-12-28T09:35:00	0.2659	2.800		0.687332832	0.871493046	0.015696421	0.161937078	0.049910580
2019-12-28T09:40:00	0.2652	2.808		0.685199579	0.868210976	0.015604935	0.160993241	0.049619680
2019-12-28T09:45:00	0.2650	2.816		0.684369053	0.866934252	0.015569394	0.160626569	0.049506669
2019-12-28T09:50:00	0.2644	2.823		0.682560180	0.864155625	0.015492134	0.159829487	0.049261000
2019-12-28T09:55:00	0.2634	2.830		0.679118751	0.858877010	0.015345702	0.158318781	0.048795386
2019-12-28T10:00:00	0.2632	2.838		0.678613305	0.858102594	0.015324257	0.158097538	0.048727197
2019-12-28T10:05:00	0.2627	2.845		0.676986534	0.855611642	0.015255344	0.157386575	0.048508071
2019-12-28T10:10:00	0.2629	2.854		0.677645511	0.856620409	0.015283240	0.157674371	0.048596772
2019-12-28T10:15:00	0.2625	2.865		0.676344976	0.854629899	0.015228212	0.157106652	0.048421796
2019-12-28T10:20:00	0.2632	2.875		0.678636673	0.858138392	0.015325248	0.158107763	0.048730348
2019-12-28T10:25:00	0.2624	2.883		0.676030000	0.854148038	0.015214900	0.156969318	0.048379468
2019-12-28T10:30:00	0.2626	2.891		0.676689150	0.855156526	0.015242764	0.157256788	0.048468069
2019-12-28T10:35:00	0.2628	2.898		0.677348180	0.856165206	0.015270650	0.157544483	0.048556740
2019-12-28T10:40:00	0.2625	2.902		0.676374204	0.854674617	0.015229447	0.157119399	0.048425725
2019-12-28T10:45:00	0.2630	2.906		0.678012934	0.857183025	0.015298805	0.157834956	0.048646266
2019-12-28T10:50:00	0.2623	2.910		0.675732537	0.853693046	0.015202334	0.156839679	0.048339512
2019-12-28T10:55:00	0.2634	2.913		0.679330396	0.859201346	0.015354687	0.158411470	0.048823954
2019-12-28T11:00:00	0.2623	2.915		0.675744231	0.853710931	0.015202828	0.156844774	0.048341082
2019-12-28T11:05:00	0.2625	2.914		0.676403432	0.854719336	0.015230683	0.157132146	0.048429654
2019-12-28T11:10:00	0.2617	2.912		0.673795159	0.850731548	0.015120626	0.155996711	0.048079701
2019-12-28T11:15:00	0.2614	2.916		0.672820232	0.849242484	0.015079596	0.155573415	0.047949237
2019-12-28T11:20:00	0.2617	2.923		0.673806859	0.850749423	0.015121119	0.156001794	0.048081268
2019-12-28T11:25:00	0.2620	2.932		0.674793218	0.852256789	0.015162690	0.156430676	0.048213453
2019-12-28T11:30:00	0.2615	2.940		0.673164739	0.849768578	0.015094088	0.155722925	0.047995318
2019-12-28T11:35:00	0.2614	2.943		0.672843637	0.849278223	0.015080581	0.155583570	0.047952367
2019-12-28T11:40:00	0.2611	2.944		0.671868454	0.847789567	0.015039597	0.155160754	0.047822051
2019-12-28T11:45:00	0.2611	2.940		0.671547238	0.847299396	0.015026111	0.155021614	0.047779167
2019-12-28T11:50:00	0.2603	2.939		0.668935478	0.843317184	0.014916688	0.153892722	0.047431232
2019-12-28T11:55:00	0.2599	2.937		0.667631823	0.841331662	0.014862227	0.153330858	0.047258059
2019-12-28T12:00:00	0.2587	2.941		0.663706313	0.835361747	0.014698867	0.151645500	0.046738616
2019-12-28T12:05:00	0.2578	2.947		0.660760856	0.830890966	0.014576913	0.150387320	0.046350833
2019-12-28T12:10:00	0.2578	2.955		0.660766727	0.830899870	0.014577155	0.150389823	0.046351604
2019-12-28T12:15:00	0.2569	2.959		0.657818875	0.826432875	0.014455633	0.149136101	0.045965195
2019-12-28T12:20:00	0.2571	2.958		0.658481341	0.827436088	0.014482896	0.149417369	0.046051884
2019-12-28T12:25:00	0.2567	2.961		0.657173918	0.825456537	0.014429116	0.148862532	0.045880878
2019-12-28T12:30:00	0.2559	2.960		0.654551771	0.821490785	0.014321571	0.147753012	0.045538913
2019-12-28T12:35:00	0.2552	2.959		0.652256565	0.818024319	0.014227781	0.146785391	0.045240683
2019-12-28T12:40:00	0.2551	2.958		0.651933603	0.817536909	0.014214609	0.146649502	0.045198801
2019-12-28T12:45:00	0.2551	2.961		0.651939489	0.817545790	0.014214849	0.146651977	0.045199564
2019-12-28T12:50:00	0.2548	2.961		0.650958659	0.816066072	0.014174886	0.146239684	0.045072491
2019-12-28T12:55:00	0.2550	2.963		0.651622385	0.817067305	0.014201922	0.146518616	0.045158460
2019-12-28T13:00:00	0.2552	2.965		0.652285988	0.818068728	0.014228981	0.146797774	0.045244500
2019-12-28T13:05:00	0.2562	2.964		0.655578658	0.823043157	0.014363638	0.148187007	0.045672675
2019-12-28T13:10:00	0.2559	2.962		0.654598818	0.821561887	0.014323497	0.147772881	0.045545037
2019-12-28T13:15:00	0.2557	2.959		0.653947403	0.820577568	0.014296843	0.147497898	0.045460285
2019-12-28T13:20:00	0.2557	2.961		0.653953285	0.820586454	0.014297084	0.147500380	0.045461050
2019-12-28T13:25:00	0.2550	2.959		0.651657698	0.817120586	0.014203362	0.146533464	0.045163037
2019-12-28T13:30:00	0.2553	2.956		0.652650106	0.818618367	0.014243839	0.146951065	0.045291745
2019-12-28T13:35:00	0.2550	2.950		0.651669470	0.817138347	0.014203841	0.146538414	0.045164562
2019-12-28T13:40:00	0.2548	2.949		0.651017526	0.816154858	0.014177283	0.146264412	0.045080112
2019-12-28T13:45:00	0.2547	2.939		0.650694454	0.815667622	0.014164131	0.146128729	0.045038293
2019-12-28T13:50:00	0.2555	2.934		0.653331169	0.819646741	0.014271653	0.147238013	0.045380185
2019-12-28T13:55:00	0.2551	2.928		0.652021880	0.817670126	0.014218209	0.146686638	0.045210247
2019-12-28T14:00:00	0.2554	2.925		0.653014187	0.819168064	0.014258704	0.147104425	0.045339012
2019-12-28T14:05:00	0.2553	2.922		0.652691293	0.818680547	0.014245521	0.146968410	0.045297091
2019-12-28T14:10:00	0.2549	2.919		0.651381772	0.816704296	0.014192118	0.146417466	0.045127285
2019-12-28T14:15:00	0.2554	2.912		0.653031837	0.819194715	0.014259425	0.147111861	0.045341304
2019-12-28T14:20:00	0.2559	2.906		0.654681148	0.821686318	0.014326868	0.147807654	0.045555755
2019-12-28T14:25:00	0.2568	2.904		0.657643310	0.826167070	0.014448412	0.149061606	0.045942235
2019-12-28T14:30:00	0.2573	2.899		0.659290518	0.828661984	0.014516233	0.149761304	0.046157888
2019-12-28T14:35:00	0.2567	2.893		0.657326707	0.825687797	0.014435396	0.148927316	0.045900845
2019-12-28T14:40:00	0.2570	2.889		0.658317558	0.827188026	0.014476153	0.149347805	0.046030444
2019-12-28T14:45:00	0.2580	2.884		0.661604740	0.832171102	0.014611799	0.150747232	0.046461761
2019-12-28T14:50:00	0.2574	2.876		0.659642185	0.829194931	0.014530734	0.149910907	0.046203997
2019-12-28T14:55:00	0.2575	2.872		0.659976202	0.829701228	0.014544514	0.150053074	0.046247815
2019-12-28T15:00:00	0.2581	2.868		0.661950314	0.832695498	0.014626097	0.150894748	0.046507227
2019-12-28T15:05:00	0.2585	2.863		0.663267746	0.834695594	0.014680675	0.151457814	0.046680769
2019-12-28T15:10:00	0.2591	2.860		0.665240065	0.837692703	0.014762581	0.152302831	0.046941212
2019-12-28T15:15:00	0.2593	2.854		0.665901174	0.838698063	0.014790089	0.152586627	0.047028680
2019-12-28T15:20:00	0.2592	2.847		0.665579429	0.838208733	0.014776699	0.152448476	0.046986101
2019-12-28T15:25:00	0.2595	2.845		0.666568025	0.839712532	0.014817864	0.152873168	0.047116995
2019-12-28T15:30:00	0.2586	2.840		0.663624894	0.835238063	0.014695489	0.151610647	0.046727874
2019-12-28T15:35:00	0.2584	2.835		0.662975103	0.834251182	0.014668542	0.151332645	0.046642191
2019-12-28T15:40:00	0.2586	2.827		0.663636626	0.835255885	0.014695975	0.151615669	0.046729422
2019-12-28T15:45:00	0.2583	2.819		0.662658966	0.833771173	0.014655441	0.151197487	0.046600534
2019-12-28T15:50:00	0.2593	2.813		0.665942212	0.838760481	0.014791798	0.152604252	0.047034113
2019-12-28T15:55:00	0.2591	2.808		0.665292836	0.837772940	0.014764776	0.152325474	0.046948191
2019-12-28T16:00:00	0.2591	2.805		0.665298700	0.837781855	0.014765020	0.152327990	0.046948966
2019-12-28T16:05:00	0.2590	2.802		0.664686809	0.836851646	0.014739582	0.152065546	0.046868078
2019-12-28T16:10:00	0.2594	2.798		0.666040832	0.838910490	0.014795904	0.152646613	0.047047169
2019-12-28T16:15:00	0.2604	2.792		0.669358570	0.843961885	0.014934386	0.154075303	0.047487505
2019-12-28T16:20:00	0.2608	2.787		0.670710852	0.846023500	0.014991024	0.154659628	0.047667599
2019-12-28T16:25:00	0.2610	2.783		0.671408495	0.847087705	0.015020287	0.154961536	0.047760650
2019-12-28T16:30:00	0.2613	2.781		0.672433025	0.848651307	0.015063317	0.155405465	0.047897473
2019-12-28T16:35:00	0.2612	2.778		0.672149380	0.848218328	0.015051398	0.155282495	0.047859573
2019-12-28T16:40:00	0.2615	2.773		0.673173700	0.849782264	0.015094465	0.155726815	0.047996517
2019-12-28T16:45:00	0.2618	2.768		0.673870872	0.850847223	0.015123815	0.156029609	0.048089841
2019-12-28T16:50:00	0.2621	2.761		0.674894708	0.852411934	0.015166971	0.156474840	0.048227065
2019-12-28T16:55:00	0.2614	2.753		0.672649873	0.848982370	0.015072433	0.155499511	0.047926459
2019-12-28T17:00:00	0.2614	2.752		0.672693241	0.849048585	0.015074256	0.155518323	0.047932257
2019-12-28T17:05:00	0.2620	2.749		0.674697944	0.852111154	0.015158672	0.156389222	0.048200677
2019-12-28T17:10:00	0.2627	2.748		0.677028149	0.855675336	0.015257105	0.157404741	0.048513670
2019-12-28T17:15:00	0.2625	2.747		0.676418231	0.854741979	0.015231308	0.157138601	0.048431643
2019-12-28T17:20:00	0.2635	2.744		0.679400153	0.859308253	0.015357648	0.158442027	0.048833371
2019-12-28T17:25:00	0.2632	2.739		0.678464183	0.857874159	0.015317933	0.158032296	0.048707088
2019-12-28T17:30:00	0.2630	2.734		0.677854504	0.856940416	0.015292093	0.157765703	0.048624922
2019-12-28T17:35:00	0.2636	2.729		0.679856368	0.860007540	0.015377026	0.158641942	0.048894987
2019-12-28T17:40:00	0.2632	2.725		0.678594078	0.858073140	0.015323442	0.158089125	0.048724604
2019-12-28T17:45:00	0.2642	2.722		0.681900392	0.863142822	0.015464003	0.159539271	0.049171553
2019-12-28T17:50:00	0.2648	2.719		0.683900037	0.866213521	0.015549342	0.160419696	0.049442908
2019-12-28T17:55:00	0.2646	2.715		0.683291267	0.865278314	0.015523335	0.160151390	0.049360214
2019-12-28T18:00:00	0.2649	2.712		0.683986505	0.866346381	0.015553038	0.160457825	0.049454660
2019-12-28T18:05:00	0.2653	2.711		0.685333368	0.868416699	0.015610665	0.161052349	0.049637898
2019-12-28T18:10:00	0.2664	2.707		0.688959129	0.873997791	0.015766354	0.162658571	0.050132951
2019-12-28T18:15:00	0.2654	2.702		0.685745630	0.869050716	0.015628326	0.161234559	0.049694057
2019-12-28T18:20:00	0.2651	2.696		0.684811286	0.867613999	0.015588314	0.160821757	0.049566827
2019-12-28T18:25:00	0.2650	2.693		0.684528603	0.867179473	0.015576218	0.160696975	0.049528368
2019-12-28T18:30:00	0.2647	2.688		0.683593947	0.865743259	0.015536263	0.160284762	0.049401320
2019-12-28T18:35:00	0.2638	2.682		0.680375723	0.860803825	0.015399101	0.158869687	0.048965180
2019-12-28T18:40:00	0.2642	2.677		0.681723919	0.862871992	0.015456484	0.159461694	0.049147643
2019-12-28T18:45:00	0.2643	2.673		0.682093332	0.863438955	0.015472227	0.159624109	0.049197701
2019-12-28T18:50:00	0.2652	2.671		0.685070620	0.868012695	0.015599414	0.160936277	0.049602124
2019-12-28T18:55:00	0.2645	2.666		0.682832046	0.864573062	0.015503733	0.159949152	0.049297882
2019-12-28T19:00:00	0.2645	2.661		0.682875293	0.864639471	0.015505578	0.159968192	0.049303750
2019-12-28T19:05:00	0.2641	2.654		0.681614048	0.862703388	0.015451803	0.159413405	0.049132760
2019-12-28T19:10:00	0.2638	2.648		0.680678646	0.861268380	0.015411984	0.159002602	0.049006146
2019-12-28T19:15:00	0.2642	2.645		0.681700570	0.862836161	0.015455489	0.159451431	0.049144480
2019-12-28T19:20:00	0.2647	2.642		0.683374315	0.865405877	0.015526882	0.160187978	0.049371491
2019-12-28T19:25:00	0.2656	2.641		0.686350560	0.869981304	0.015654260	0.161502120	0.049776522
2019-12-28T19:30:00	0.2659	2.640		0.687370899	0.871551648	0.015698056	0.161953946	0.049915779
2019-12-28T19:35:00	0.2667	2.638		0.690018475	0.875630577	0.015811996	0.163129452	0.050278081
2019-12-28T19:40:00	0.2673	2.638		0.692013686	0.878708460	0.015898149	0.164018276	0.050552026
2019-12-28T19:45:00	0.2685	2.637		0.695957760	0.884802870	0.016069181	0.165782782	0.051095863
2019-12-28T19:50:00	0.2689	2.636		0.696975426	0.886377564	0.016113469	0.166239686	0.051236686
2019-12-28T19:55:00	0.2696	2.632		0.699291481	0.889964677	0.016214500	0.167282011	0.051557940
2019-12-28T20:00:00	0.2703	2.629		0.701606077	0.893554182	0.016315802	0.168327122	0.051880054
2019-12-28T20:05:00	0.2696	2.626		0.699377587	0.890098128	0.016218263	0.167320829	0.051569904
2019-12-28T20:10:00	0.2707	2.624		0.702989492	0.895701823	0.016376509	0.168953422	0.052073086
2019-12-28T20:15:00	0.2707	2.621		0.703032502	0.895768619	0.016378398	0.168972913	0.052079093
2019-12-28T20:20:00	0.2717	2.618		0.706316846	0.900874086	0.016523008	0.170464827	0.052538915
2019-12-28T20:25:00	0.2717	2.617		0.706359817	0.900940946	0.016524904	0.170484393	0.052544946
2019-12-28T20:30:00	0.2723	2.613		0.708022348	0.903528967	0.016598367	0.171242294	0.052778538
2019-12-28T20:35:00	0.2725	2.613		0.708712916	0.904604666	0.016628932	0.171557628	0.052875727
2019-12-28T20:40:00	0.2726	2.610		0.709079622	0.905176051	0.016645175	0.171725202	0.052927375
2019-12-28T20:45:00	0.2731	2.608		0.710740927	0.907766099	0.016718866	0.172485459	0.053161694
2019-12-28T20:50:00	0.2736	2.604		0.712401484	0.910357386	0.016792696	0.173247154	0.053396455
2019-12-28T20:55:00	0.2729	2.603		0.710179519	0.906890571	0.016693944	0.172228345	0.053082448
2019-12-28T21:00:00	0.2727	2.600		0.709575093	0.905948261	0.016667135	0.171951756	0.052997201
2019-12-28T21:05:00	0.2732	2.597		0.710912602	0.908033885	0.016726491	0.172564123	0.053185939
2019-12-28T21:10:00	0.2735	2.592		0.711926142	0.909615372	0.016771545	0.173028933	0.053329198
2019-12-28T21:15:00	0.2739	2.589		0.713262800	0.911702408	0.016831060	0.173642940	0.053518440
2019-12-28T21:20:00	0.2741	2.587		0.713952388	0.912779730	0.016861808	0.173960161	0.053616211
2019-12-28T21:25:00	0.2752	2.586		0.717550050	0.918406975	0.017022707	0.175620126	0.054127828
2019-12-28T21:30:00	0.2750	2.584		0.716946829	0.917462663	0.016995672	0.175341214	0.054041865
2019-12-28T21:35:00	0.2764	2.582		0.721509691	0.924613480	0.017200734	0.177456800	0.054693909
2019-12-28T21:40:00	0.2754	2.578		0.718324504	0.919619808	0.017057449	0.175978556	0.054238300
2019-12-28T21:45:00	0.2748	2.576		0.716106099	0.916147075	0.016958031	0.174952879	0.053922176
2019-12-28T21:50:00	0.2732	2.572		0.710975274	0.908131650	0.016729275	0.172592845	0.053194791
2019-12-28T21:55:00	0.2737	2.569		0.712635726	0.910723111	0.016803125	0.173354744	0.053429616
2019-12-28T22:00:00	0.2732	2.565		0.711061107	0.908265550	0.016733088	0.172632186	0.053206916
2019-12-28T22:05:00	0.2729	2.562		0.710087360	0.906746873	0.016689855	0.172186157	0.053069446
2019-12-28T22:10:00	0.2728	2.560		0.709760790	0.906237732	0.016675369	0.172036707	0.053023384
2019-12-28T22:15:00	0.2733	2.557		0.711375982	0.908756813	0.016747081	0.172776547	0.053251410
2019-12-28T22:20:00	0.2733	2.553		0.711373087	0.908752296	0.016746952	0.172775219	0.053251001
2019-12-28T22:25:00	0.2743	2.550		0.714604246	0.913798488	0.016890901	0.174260307	0.053708719
2019-12-28T22:30:00	0.2739	2.546		0.713308071	0.911773121	0.016833077	0.173663756	0.053524856
2019-12-28T22:35:00	0.2735	2.541		0.712011440	0.909748508	0.016775339	0.173068081	0.053341263
2019-12-28T22:40:00	0.2737	2.538		0.712655471	0.910753942	0.016804004	0.173363814	0.053432411
2019-12-28T22:45:00	0.2731	2.535		0.710711458	0.907720135	0.016717557	0.172471958	0.053157532
2019-12-28T22:50:00	0.2725	2.531		0.708766421	0.904688027	0.016631302	0.171582073	0.052883261
2019-12-28T22:55:00	0.2714	2.528		0.705200268	0.899137328	0.016473769	0.169956842	0.052382349
2019-12-28T23:00:00	0.2718	2.525		0.706493497	0.901148954	0.016530805	0.170545268	0.052563708
2019-12-28T23:05:00	0.2707	2.522		0.702925142	0.895601887	0.016373682	0.168924262	0.052064098
2019-12-28T23:10:00	0.2704	2.520		0.701949242	0.894086764	0.016330850	0.168482365	0.051927901
2019-12-28T23:15:00	0.2689	2.515		0.697077479	0.886535526	0.016117913	0.166285542	0.051250819
2019-12-28T23:20:00	0.2679	2.511		0.693825072	0.881505753	0.015976579	0.164827418	0.050801411
2019-12-28T23:25:00	0.2677	2.506		0.693171917	0.880496769	0.015948275	0.164535413	0.050711412
2019-12-28T23:30:00	0.2660	2.503		0.687637244	0.871961712	0.015709498	0.162071999	0.049952164
2019-12-28T23:35:00	0.2647	2.499		0.683398502	0.865443029	0.015527915	0.160198635	0.049374775
2019-12-28T23:40:00	0.2649	2.495		0.684047571	0.866440214	0.015555648	0.160484755	0.049462960
2019-12-28T23:45:00	0.2643	2.491		0.682088345	0.863431300	0.015472014	0.159621916	0.049197025
2019-12-28T23:50:00	0.2625	2.484		0.676210190	0.854423689	0.015222514	0.157047876	0.048403681
2019-12-28T23:55:00	0.2631	2.478		0.678166734	0.857418566	0.015305323	0.157902201	0.048666992
2019-12-29T00:00:00	0.2622	2.472		0.675224215	0.852915707	0.015180873	0.156618273	0.048271273
2019-12-29T00:05:00	0.2629	2.467		0.677507852	0.856409648	0.015277410	0.157614228	0.048578236
2019-12-29T00:10:00	0.2619	2.463		0.674237973	0.851408153	0.015139281	0.156189172	0.048139020
2019-12-29T00:15:00	0.2625	2.458		0.676195576	0.854401330	0.015221897	0.157041504	0.048401717
2019-12-29T00:20:00	0.2626	2.454		0.676519305	0.854896631	0.015235582	0.157182689	0.048445231
2019-12-29T00:25:00	0.2636	2.449		0.679781297	0.859892459	0.015373836	0.158609036	0.048884845
2019-12-29T00:30:00	0.2614	2.444		0.672591690	0.848893538	0.015069987	0.155474274	0.047918681
2019-12-29T00:35:00	0.2605	2.440		0.669644657	0.844397906	0.014946358	0.154198825	0.047525575
2019-12-29T00:40:00	0.2622	2.434		0.675200825	0.852879944	0.015179886	0.156608089	0.048268134
2019-12-29T00:45:00	0.2620	2.432		0.674544330	0.851876357	0.015152195	0.156322398	0.048180081
2019-12-29T00:50:00	0.2622	2.430		0.675194978	0.852871003	0.015179640	0.156605543	0.048267349
2019-12-29T00:55:00	0.2615	2.427		0.672904038	0.849370454	0.015083121	0.155609779	0.047960445
2019-12-29T01:00:00	0.2607	2.423		0.670284471	0.845373293	0.014973153	0.154475262	0.047610776
2019-12-29T01:05:00	0.2617	2.418		0.673552054	0.850360162	0.015110389	0.155891102	0.048047152
2019-12-29T01:10:00	0.2623	2.415		0.675510026	0.853352748	0.015192938	0.156742741	0.048309635
2019-12-29T01:15:00	0.2615	2.410		0.672892336	0.849352585	0.015082629	0.155604701	0.047958880
2019-12-29T01:20:00	0.2612	2.406		0.671908387	0.847850510	0.015041274	0.155178056	0.047827384
2019-12-29T01:25:00	0.2608	2.402		0.670597017	0.845849893	0.014986252	0.154610395	0.047652425
2019-12-29T01:30:00	0.2614	2.396		0.672556580	0.848839934	0.015068511	0.155459046	0.047913988
2019-12-29T01:35:00	0.2604	2.391		0.669282244	0.843845569	0.014931192	0.154042357	0.047477351
2019-12-29T01:40:00	0.2598	2.386		0.667315053	0.840849428	0.014849010	0.153194495	0.047216031
2019-12-29T01:45:00	0.2612	2.380		0.671893755	0.847828179	0.015040660	0.155171716	0.047825430
2019-12-29T01:50:00	0.2611	2.374		0.671563760	0.847324607	0.015026804	0.155028769	0.047781372
2019-12-29T01:55:00	0.2612	2.368		0.671887902	0.847819247	0.015040414	0.155169180	0.047824648
2019-12-29T02:00:00	0.2605	2.361		0.669594877	0.844322032	0.014944275	0.154177328	0.047518950
2019-12-29T02:05:00	0.2597	2.354		0.666972921	0.840328680	0.014834741	0.153047286	0.047170660
2019-12-29T02:10:00	0.2595	2.345		0.666314937	0.839327469	0.014807319	0.152764385	0.047083467
2019-12-29T02:15:00	0.2589	2.338		0.664346136	0.836333888	0.014725429	0.151919533	0.046823075
2019-12-29T02:20:00	0.2591	2.331		0.665326273	0.837823780	0.014766167	0.152339822	0.046952613
2019-12-29T02:25:00	0.2588	2.325		0.664340271	0.836324975	0.014725185	0.151917019	0.046822301
2019-12-29T02:30:00	0.2586	2.322		0.663681810	0.835324523	0.014697850	0.151635011	0.046735383
2019-12-29T02:35:00	0.2587	2.318		0.664006656	0.835818041	0.014711332	0.151774103	0.046778253
2019-12-29T02:40:00	0.2588	2.312		0.664331473	0.836311606	0.014724820	0.151913250	0.046821139
2019-12-29T02:45:00	0.2593	2.307		0.665966848	0.838797955	0.014792824	0.152614834	0.047037374
2019-12-29T02:50:00	0.2593	2.304		0.665963917	0.838793496	0.014792702	0.152613575	0.047036986
2019-12-29T02:55:00	0.2598	2.299		0.667598556	0.841281014	0.014860839	0.153316534	0.047253645
2019-12-29T03:00:00	0.2603	2.296		0.669232459	0.843769703	0.014929109	0.154020870	0.047470728
2019-12-29T03:05:00	0.2605	2.293		0.669884058	0.844762829	0.014956381	0.154302230	0.047557446
2019-12-29T03:10:00	0.2601	2.290		0.668571957	0.842763379	0.014901491	0.153735939	0.047382909
2019-12-29T03:15:00	0.2599	2.287		0.667914263	0.841761706	0.014874017	0.153452496	0.047295549
2019-12-29T03:20:00	0.2625	2.285		0.676414087	0.854735639	0.015231133	0.157136794	0.048431086
2019-12-29T03:25:00	0.2629	2.282		0.677717519	0.856730662	0.015286290	0.157705836	0.048606470
2019-12-29T03:30:00	0.2618	2.280		0.674120990	0.851229391	0.015134352	0.156138315	0.048123345
2019-12-29T03:35:00	0.2613	2.277		0.672483432	0.848728261	0.015065436	0.155427324	0.047904211
2019-12-29T03:40:00	0.2617	2.273		0.673788273	0.850721028	0.015120336	0.155993719	0.048078779
2019-12-29T03:45:00	0.2629	2.270		0.677705832	0.856712768	0.015285795	0.157700729	0.048604896
2019-12-29T03:50:00	0.2632	2.266		0.678682373	0.858208403	0.015327187	0.158127761	0.048736512
2019-12-29T03:55:00	0.2623	2.263		0.675740271	0.853704875	0.015202661	0.156843048	0.048340551
2019-12-29T04:00:00	0.2629	2.259		0.677697067	0.856699347	0.015285424	0.157696899	0.048603716
2019-12-29T04:05:00	0.2630	2.256		0.678063967	0.857261179	0.015300968	0.157857267	0.048653143
2019-12-29T04:10:00	0.2646	2.252		0.682998495	0.864828666	0.015510836	0.160022439	0.049320470
2019-12-29T04:15:00	0.2661	2.249		0.687926362	0.872406907	0.015721924	0.162200196	0.049991676
2019-12-29T04:20:00	0.2677	2.247		0.693172764	0.880498077	0.015948312	0.164535791	0.050711529
2019-12-29T04:25:00	0.2698	2.245		0.700034748	0.891116838	0.016246994	0.167617243	0.051661262
2019-12-29T04:30:00	0.2700	2.242		0.700723913	0.892185563	0.016277153	0.167928392	0.051757161
2019-12-29T04:35:00	0.2702	2.239		0.701412949	0.893254500	0.016307337	0.168239787	0.051853136
2019-12-29T04:40:00	0.2698	2.237		0.700155168	0.891303550	0.016252262	0.167671589	0.051678012
2019-12-29T04:45:00	0.2695	2.235		0.699221588	0.889856358	0.016211447	0.167250505	0.051548230
2019-12-29T04:50:00	0.2693	2.232		0.698287770	0.888409554	0.016170675	0.166829874	0.051418587
2019-12-29T04:55:00	0.2690	2.229		0.697353714	0.886963139	0.016129948	0.166409697	0.051289085
2019-12-29T05:00:00	0.2696	2.225		0.699342034	0.890043026	0.016216709	0.167304800	0.051564964
2019-12-29T05:05:00	0.2679	2.221		0.693859795	0.881559401	0.015978084	0.164842949	0.050806198
2019-12-29T05:10:00	0.2669	2.216		0.690647686	0.876600847	0.015839139	0.163409476	0.050364388
2019-12-29T05:15:00	0.2660	2.210		0.687758404	0.872148271	0.015714705	0.162125716	0.049968720
2019-12-29T05:20:00	0.2662	2.203		0.688449880	0.873213225	0.015744438	0.162432465	0.050063263
2019-12-29T05:25:00	0.2672	2.196		0.691744381	0.878292818	0.015886506	0.163898157	0.050515004
2019-12-29T05:30:00	0.2670	2.185		0.690808657	0.876849126	0.015846087	0.163481156	0.050386480
2019-12-29T05:35:00	0.2675	2.177		0.692475328	0.879421096	0.015918118	0.164224291	0.050615521
2019-12-29T05:40:00	0.2669	2.169		0.690563770	0.876471426	0.015835518	0.163372116	0.050352873
2019-12-29T05:45:00	0.2663	2.159		0.688651214	0.873523379	0.015753101	0.162521837	0.050090809
2019-12-29T05:50:00	0.2660	2.146		0.687714698	0.872080973	0.015712827	0.162106338	0.049962748
2019-12-29T05:55:00	0.2672	2.132		0.691660490	0.878163356	0.015882880	0.163860749	0.050503474
2019-12-29T06:00:00	0.2658	2.120		0.687143931	0.871202258	0.015688308	0.161853383	0.049884785
2019-12-29T06:05:00	0.2653	2.105		0.685555429	0.868758188	0.015620176	0.161150481	0.049668143
2019-12-29T06:10:00	0.2651	2.089		0.684618120	0.867317067	0.015580048	0.160736484	0.049540545
2019-12-29T06:15:00	0.2653	2.071		0.685310191	0.868381059	0.015609672	0.161042108	0.049634742
2019-12-29T06:20:00	0.2646	2.052		0.683068846	0.864936707	0.015513839	0.160053420	0.049330019
2019-12-29T06:25:00	0.2642	2.036		0.681804749	0.862996038	0.015459928	0.159497224	0.049158593
2019-12-29T06:30:00	0.2645	2.017		0.682823441	0.864559848	0.015503365	0.159945364	0.049296714
2019-12-29T06:35:00	0.2642	1.997		0.681885431	0.863119860	0.015463366	0.159532693	0.049169525
2019-12-29T06:40:00	0.2625	1.979		0.676376942	0.854678806	0.015229563	0.157120593	0.048426093
2019-12-29T06:45:00	0.2641	1.962		0.681639946	0.862743129	0.015452906	0.159424786	0.049136267
2019-12-29T06:50:00	0.2652	1.947		0.684940586	0.867812776	0.015593847	0.160878850	0.049584424
2019-12-29T06:55:00	0.2655	1.933		0.685958404	0.869377998	0.015637445	0.161328642	0.049723054
2019-12-29T07:00:00	0.2649	1.916		0.684043436	0.866433860	0.015555471	0.160482931	0.049462398
2019-12-29T07:05:00	0.2654	1.899		0.685713192	0.869000825	0.015626936	0.161220218	0.049689637
2019-12-29T07:10:00	0.2661	1.880		0.688033461	0.872571841	0.015726529	0.162247699	0.050006316
2019-12-29T07:15:00	0.2667	1.867		0.690026842	0.875643477	0.015812357	0.163133174	0.050279229
2019-12-29T07:20:00	0.2675	1.853		0.692669589	0.879721032	0.015926525	0.164311024	0.050642253
2019-12-29T07:25:00	0.2671	1.841		0.691408808	0.877774989	0.015872005	0.163748546	0.050468892
2019-12-29T07:30:00	0.2664	1.823		0.688845678	0.873822985	0.015761470	0.162608185	0.050117422
2019-12-29T07:35:00	0.2657	1.808		0.686606501	0.870375124	0.015665240	0.161615393	0.049811434
2019-12-29T07:40:00	0.2664	1.795		0.688926204	0.873947059	0.015764937	0.162643947	0.050128444
2019-12-29T07:45:00	0.2667	1.786		0.689942913	0.875514079	0.015808738	0.163095840	0.050267722
2019-12-29T07:50:00	0.2671	1.778		0.691284673	0.877583459	0.015866642	0.163693220	0.050451840
2019-12-29T07:55:00	0.2670	1.766		0.690999579	0.877143632	0.015854329	0.163566194	0.050412690
2019-12-29T08:00:00	0.2676	1.758		0.692991346	0.880217891	0.015940455	0.164454733	0.050686546
2019-12-29T08:05:00	0.2659	1.751		0.687499592	0.871749777	0.015703584	0.162010982	0.049933358
2019-12-29T08:10:00	0.2649	1.739		0.683955935	0.866299409	0.015551731	0.160444344	0.049450505
2019-12-29T08:15:00	0.2649	1.727		0.683996252	0.866361358	0.015553454	0.160462123	0.049455985
2019-12-29T08:20:00	0.2653	1.719		0.685340196	0.868427198	0.015610957	0.161055366	0.049638828
2019-12-29T08:25:00	0.2653	1.716		0.685380498	0.868489172	0.015612683	0.161073174	0.049644316
2019-12-29T08:30:00	0.2651	1.711		0.684769058	0.867549084	0.015586506	0.160803113	0.049561081
2019-12-29T08:35:00	0.2665	1.706		0.689369065	0.874629516	0.015784008	0.162840703	0.050189086
2019-12-29T08:40:00	0.2670	1.705		0.691036392	0.877200420	0.015855919	0.163582593	0.050417744
2019-12-29T08:45:00	0.2663	1.711		0.688798556	0.873750383	0.015759442	0.162587259	0.050110972
2019-12-29T08:50:00	0.2660	1.724		0.687862078	0.872307915	0.015719161	0.162171688	0.049982889
2019-12-29T08:55:00	0.2653	1.741		0.685296461	0.868359947	0.015609084	0.161036042	0.049632872
2019-12-29T09:00:00	0.2667	1.755		0.689895805	0.875441453	0.015806708	0.163074888	0.050261264
2019-12-29T09:05:00	0.2674	1.768		0.692213424	0.879016772	0.015906788	0.164107395	0.050579493
2019-12-29T09:10:00	0.2683	1.777		0.695179583	0.883599359	0.016035360	0.165433850	0.050988319
2019-12-29T09:15:00	0.2683	1.786		0.695219777	0.883661508	0.016037106	0.165451863	0.050993871
2019-12-29T09:20:00	0.2698	1.796		0.700131239	0.891266447	0.016251215	0.167660789	0.051674684
2019-12-29T09:25:00	0.2685	1.796		0.695950032	0.884790916	0.016068845	0.165779315	0.051094795
2019-12-29T09:30:00	0.2689	1.792		0.697289596	0.886863878	0.016127154	0.166380874	0.051280201
2019-12-29T09:35:00	0.2695	1.797		0.698953325	0.889440650	0.016199728	0.167129611	0.051510969
2019-12-29T09:40:00	0.2682	1.806		0.694770776	0.882967316	0.016017607	0.165250698	0.050931870
2019-12-29T09:45:00	0.2683	1.805		0.695135966	0.883531917	0.016033465	0.165414304	0.050982295
2019-12-29T09:50:00	0.2683	1.802		0.695176160	0.883594066	0.016035211	0.165432316	0.050987846
2019-12-29T09:55:00	0.2679	1.798		0.693916240	0.881646617	0.015980532	0.164868198	0.050813980
2019-12-29T10:00:00	0.2682	1.794		0.694931565	0.883215890	0.016024588	0.165322721	0.050954068
2019-12-29T10:05:00	0.2678	1.790		0.693438503	0.880908542	0.015959824	0.164654562	0.050748135
2019-12-29T10:10:00	0.2685	1.789		0.695845887	0.884629817	0.016064317	0.165732594	0.051080395
2019-12-29T10:15:00	0.2668	1.788		0.690450553	0.876296823	0.015830632	0.163321717	0.050337339
2019-12-29T10:20:00	0.2661	1.790		0.687978953	0.872487897	0.015724185	0.162223522	0.049998865
2019-12-29T10:25:00	0.2661	1.789		0.688111424	0.872691910	0.015729881	0.162282282	0.050016976
2019-12-29T10:30:00	0.2661	1.792		0.687918285	0.872394469	0.015721577	0.162196614	0.049990572
2019-12-29T10:35:00	0.2661	1.794		0.688050758	0.872598479	0.015727272	0.162255371	0.050008681
2019-12-29T10:40:00	0.2659	1.797		0.687531977	0.871799637	0.015704975	0.162025336	0.049937782
2019-12-29T10:45:00	0.2667	1.800		0.689943244	0.875514590	0.015808753	0.163095988	0.050267767
2019-12-29T10:50:00	0.2688	1.801		0.696903245	0.886265843	0.016110325	0.166207257	0.051226691
2019-12-29T10:55:00	0.2695	1.803		0.698983734	0.889487769	0.016201056	0.167143313	0.051515192
2019-12-29T11:00:00	0.2693	1.806		0.698466498	0.888686407	0.016178474	0.166910338	0.051443387
2019-12-29T11:05:00	0.2693	1.808		0.698273905	0.888388078	0.016170070	0.166823633	0.051416664
2019-12-29T11:10:00	0.2695	1.813		0.699055323	0.889598702	0.016204183	0.167175572	0.051525135
2019-12-29T11:15:00	0.2715	1.816		0.705674056	0.899874139	0.016494653	0.170172293	0.052448753
2019-12-29T11:20:00	0.2710	1.820		0.703861161	0.897055873	0.016414820	0.169348677	0.052194907
2019-12-29T11:25:00	0.2699	1.824		0.700425181	0.891722252	0.016264077	0.167793481	0.051715580
2019-12-29T11:30:00	0.2693	1.830		0.698285011	0.888405281	0.016170555	0.166828633	0.051418205
2019-12-29T11:35:00	0.2672	1.837		0.691592330	0.878058174	0.015879935	0.163830358	0.050494108
2019-12-29T11:40:00	0.2669	1.842		0.690748699	0.876756645	0.015843499	0.163454455	0.050378250
2019-12-29T11:45:00	0.2667	1.848		0.689904873	0.875455433	0.015807098	0.163078921	0.050262507
2019-12-29T11:50:00	0.2666	1.853		0.689711829	0.875157838	0.015798777	0.162993073	0.050236048
2019-12-29T11:55:00	0.2657	1.859		0.686588313	0.870347135	0.015664460	0.161607342	0.049808952
2019-12-29T12:00:00	0.2642	1.866		0.681831680	0.863037368	0.015461075	0.159509063	0.049162242
2019-12-29T12:05:00	0.2640	1.877		0.681312016	0.862239956	0.015438940	0.159280700	0.049091859
2019-12-29T12:10:00	0.2641	1.889		0.681444728	0.862443578	0.015444591	0.159339003	0.049109828
2019-12-29T12:15:00	0.2636	1.903		0.679946148	0.860145175	0.015380841	0.158681299	0.048907118
2019-12-29T12:20:00	0.2638	1.920		0.680405214	0.860849049	0.015400355	0.158882624	0.048969168
2019-12-29T12:25:00	0.2629	1.934		0.677600278	0.856551155	0.015281324	0.157654607	0.048590681
2019-12-29T12:30:00	0.2639	1.947		0.680996952	0.861756611	0.015425528	0.159142331	0.049049212
2019-12-29T12:35:00	0.2649	1.957		0.684064517	0.866466254	0.015556373	0.160492228	0.049465264
2019-12-29T12:40:00	0.2651	1.963		0.684848973	0.867671934	0.015589926	0.160838396	0.049571956
2019-12-29T12:45:00	0.2658	1.966		0.686936317	0.870882699	0.015679395	0.161761424	0.049856442
2019-12-29T12:50:00	0.2639	1.969		0.680875382	0.861570132	0.015420355	0.159088957	0.049032762
2019-12-29T12:55:00	0.2637	1.969		0.680355581	0.860772939	0.015398245	0.158860851	0.048962457
2019-12-29T13:00:00	0.2649	1.968		0.684075667	0.866483386	0.015556849	0.160497146	0.049466779
2019-12-29T13:05:00	0.2650	1.966		0.684534214	0.867188097	0.015576459	0.160699451	0.049529132
2019-12-29T13:10:00	0.2655	1.966		0.685970212	0.869396162	0.015637952	0.161333864	0.049724664
2019-12-29T13:15:00	0.2660	1.965		0.687731295	0.872106529	0.015713540	0.162113696	0.049965016
2019-12-29T13:20:00	0.2666	1.964		0.689816996	0.875319959	0.015803310	0.163039839	0.050250462
2019-12-29T13:25:00	0.2673	1.964		0.691901509	0.878535319	0.015893299	0.163968235	0.050536603
2019-12-29T13:30:00	0.2677	1.962		0.693334618	0.880748073	0.015955323	0.164608126	0.050733823
2019-12-29T13:35:00	0.2678	1.960		0.693466895	0.880952401	0.015961054	0.164667255	0.050752047
2019-12-29T13:40:00	0.2675	1.958		0.692623695	0.879650169	0.015924539	0.164290531	0.050635937
2019-12-29T13:45:00	0.2669	1.953		0.690478968	0.876340644	0.015831858	0.163334365	0.050341238
2019-12-29T13:50:00	0.2674	1.948		0.692237884	0.879054530	0.015907846	0.164118310	0.050582857
2019-12-29T13:55:00	0.2668	1.943		0.690418342	0.876247148	0.015829243	0.163307379	0.050332920
2019-12-29T14:00:00	0.2675	1.939		0.692502512	0.879463065	0.015919294	0.164236426	0.050619262
2019-12-29T14:05:00	0.2669	1.936		0.690683101	0.876655470	0.015840667	0.163425245	0.050369248
2019-12-29T14:10:00	0.2677	1.933		0.693092295	0.880373794	0.015944826	0.164499835	0.050700447
2019-12-29T14:15:00	0.2679	1.928		0.693874817	0.881582613	0.015978736	0.164849669	0.050808269
2019-12-29T14:20:00	0.2670	1.923		0.691080205	0.877268010	0.015857811	0.163602112	0.050423760
2019-12-29T14:25:00	0.2675	1.916		0.692513636	0.879480240	0.015919776	0.164241392	0.050620792
2019-12-29T14:30:00	0.2679	1.908		0.693946507	0.881693383	0.015981844	0.164881738	0.050818153
2019-12-29T14:35:00	0.2684	1.902		0.695378817	0.883907440	0.016044015	0.165523149	0.051015842
2019-12-29T14:40:00	0.2696	1.896		0.699408286	0.890145708	0.016219604	0.167334669	0.051574170
2019-12-29T14:45:00	0.2686	1.890		0.696293027	0.885321549	0.016083765	0.165933234	0.051142234
2019-12-29T14:50:00	0.2677	1.880		0.693175121	0.880501717	0.015948414	0.164536844	0.050711853
2019-12-29T14:55:00	0.2687	1.869		0.696557363	0.885730562	0.016095267	0.166051907	0.051178810
2019-12-29T15:00:00	0.2700	1.859		0.700585539	0.891970946	0.016271096	0.167865893	0.051737899
2019-12-29T15:05:00	0.2696	1.847		0.699419389	0.890162917	0.016220090	0.167339675	0.051575713
2019-12-29T15:10:00	0.2690	1.832		0.697603407	0.887349723	0.016140830	0.166521964	0.051323687
2019-12-29T15:15:00	0.2683	1.820		0.695136629	0.883532941	0.016033494	0.165414600	0.050982386
2019-12-29T15:20:00	0.2690	1.809		0.697542898	0.887256036	0.016138192	0.166494754	0.051315300
2019-12-29T15:25:00	0.2691	1.800		0.697675023	0.887460611	0.016143952	0.166554172	0.051333613
2019-12-29T15:30:00	0.2690	1.787		0.697482388	0.887162350	0.016135555	0.166467547	0.051306915
2019-12-29T15:35:00	0.2692	1.773		0.698263975	0.888372698	0.016169637	0.166819164	0.051415286
2019-12-29T15:40:00	0.2689	1.763		0.697097087	0.886565877	0.016118768	0.166294353	0.051253535
2019-12-29T15:45:00	0.2686	1.755		0.696254722	0.885262284	0.016082098	0.165916041	0.051136935
2019-12-29T15:50:00	0.2676	1.748		0.692811614	0.879940336	0.015932673	0.164374449	0.050661802
2019-12-29T15:55:00	0.2674	1.736		0.692293507	0.879140397	0.015910252	0.164143134	0.050590508
2019-12-29T16:00:00	0.2670	1.725		0.690799370	0.876834802	0.015845686	0.163477020	0.050385205
2019-12-29T16:05:00	0.2665	1.715		0.689491863	0.874818781	0.015789299	0.162895282	0.050205908
2019-12-29T16:10:00	0.2664	1.706		0.689160545	0.874308162	0.015775027	0.162748046	0.050160528
2019-12-29T16:15:00	0.2676	1.697		0.693058744	0.880321978	0.015943373	0.164484844	0.050695826
2019-12-29T16:20:00	0.2666	1.687		0.689799855	0.875293535	0.015802571	0.163032216	0.050248112
2019-12-29T16:25:00	0.2663	1.678		0.688817545	0.873779639	0.015760259	0.162595691	0.050113571
2019-12-29T16:30:00	0.2658	1.670		0.687183660	0.871263413	0.015690014	0.161870983	0.049890209
2019-12-29T16:35:00	0.2666	1.663		0.689782383	0.875266600	0.015801818	0.163024446	0.050245718
2019-12-29T16:40:00	0.2672	1.655		0.691728760	0.878268711	0.015885831	0.163891191	0.050512857
2019-12-29T16:45:00	0.2684	1.646		0.695624228	0.884286973	0.016054681	0.165633180	0.051049755
2019-12-29T16:50:00	0.2683	1.637		0.695293464	0.883775452	0.016040307	0.165484889	0.051004050
2019-12-29T16:55:00	0.2669	1.629		0.690735321	0.876736012	0.015842921	0.163448498	0.050376414
2019-12-29T17:00:00	0.2670	1.622		0.691054853	0.877228900	0.015856716	0.163590818	0.050420279
2019-12-29T17:05:00	0.2671	1.616		0.691374357	0.877721833	0.015870516	0.163733191	0.050464160
2019-12-29T17:10:00	0.2684	1.609		0.695595154	0.884242006	0.016053417	0.165620142	0.051045736
2019-12-29T17:15:00	0.2672	1.599		0.691688012	0.878205827	0.015884070	0.163873021	0.050507256
2019-12-29T17:20:00	0.2680	1.588		0.694283541	0.882214209	0.015996462	0.165032549	0.050864634
2019-12-29T17:25:00	0.2674	1.578		0.692326881	0.879191918	0.015911695	0.164158029	0.050595099
2019-12-29T17:30:00	0.2675	1.568		0.692646274	0.879685032	0.015925516	0.164300613	0.050639044
2019-12-29T17:35:00	0.2666	1.560		0.689712492	0.875158861	0.015798806	0.162993368	0.050236139
2019-12-29T17:40:00	0.2655	1.553		0.686124857	0.869634060	0.015644582	0.161402264	0.049745745
2019-12-29T17:45:00	0.2646	1.546		0.683185838	0.865116384	0.015518834	0.160104947	0.049345900
2019-12-29T17:50:00	0.2648	1.539		0.683832027	0.866109027	0.015546436	0.160389710	0.049433666
2019-12-29T17:55:00	0.2648	1.530		0.683826194	0.866100064	0.015546186	0.160387138	0.049432874
2019-12-29T18:00:00	0.2648	1.524		0.683820360	0.866091101	0.015545937	0.160384566	0.049432081
2019-12-29T18:05:00	0.2655	1.517		0.686095707	0.869589216	0.015643332	0.161389370	0.049741771
2019-12-29T18:10:00	0.2660	1.512		0.687718423	0.872086709	0.015712987	0.162107989	0.049963257
2019-12-29T18:15:00	0.2661	1.506		0.688038219	0.872579168	0.015726733	0.162249809	0.050006967
2019-12-29T18:20:00	0.2670	1.504		0.690961698	0.877085195	0.015852694	0.163549320	0.050407489
2019-12-29T18:25:00	0.2664	1.500		0.689003262	0.874065795	0.015768254	0.162678174	0.050138993
2019-12-29T18:30:00	0.2658	1.495		0.687043778	0.871048098	0.015684008	0.161809018	0.049871111
2019-12-29T18:35:00	0.2647	1.490		0.683453522	0.865527543	0.015530265	0.160222878	0.049382247
2019-12-29T18:40:00	0.2653	1.488		0.685403269	0.868524189	0.015613658	0.161083236	0.049647418
2019-12-29T18:45:00	0.2654	1.484		0.685723267	0.869016320	0.015627368	0.161224672	0.049691010
2019-12-29T18:50:00	0.2649	1.478		0.684087998	0.866502335	0.015557376	0.160502584	0.049468455
2019-12-29T18:55:00	0.2637	1.474		0.680168537	0.860486135	0.015390293	0.158778812	0.048937172
2019-12-29T19:00:00	0.2641	1.468		0.681467708	0.862478838	0.015445570	0.159349100	0.049112940
2019-12-29T19:05:00	0.2648	1.462		0.683744522	0.865974584	0.015542696	0.160351132	0.049421776
2019-12-29T19:10:00	0.2639	1.456		0.680803584	0.861460005	0.015417300	0.159057440	0.049023048
2019-12-29T19:15:00	0.2634	1.447		0.679166109	0.858949580	0.015347712	0.158339519	0.048801778
2019-12-29T19:20:00	0.2638	1.439		0.680465638	0.860941708	0.015402925	0.158909133	0.048977338
2019-12-29T19:25:00	0.2632	1.432		0.678501566	0.857931423	0.015319519	0.158048650	0.048712129
2019-12-29T19:30:00	0.2634	1.423		0.679148586	0.858922727	0.015346969	0.158331845	0.048799412
2019-12-29T19:35:00	0.2635	1.416		0.679469132	0.859413973	0.015360577	0.158472245	0.048842685
2019-12-29T19:40:00	0.2638	1.410		0.680442282	0.860905891	0.015401931	0.158898886	0.048974180
2019-12-29T19:45:00	0.2643	1.404		0.682067511	0.863399322	0.015471126	0.159612754	0.049194201
2019-12-29T19:50:00	0.2649	1.397		0.684017998	0.866394772	0.015554384	0.160471713	0.049458940
2019-12-29T19:55:00	0.2655	1.393		0.685967444	0.869391905	0.015637833	0.161332640	0.049724287
2019-12-29T20:00:00	0.2663	1.387		0.688567031	0.873393691	0.015749478	0.162484465	0.050079290
2019-12-29T20:05:00	0.2670	1.381		0.690839427	0.876896589	0.015847415	0.163494860	0.050390704
2019-12-29T20:10:00	0.2680	1.379		0.694085757	0.881908558	0.015987883	0.164944039	0.050837355
2019-12-29T20:15:00	0.2671	1.378		0.691153128	0.877380510	0.015860960	0.163634603	0.050433774
2019-12-29T20:20:00	0.2674	1.374		0.692123171	0.878877455	0.015902884	0.164067123	0.050567081
2019-12-29T20:25:00	0.2676	1.372		0.692767784	0.879872655	0.015930776	0.164354874	0.050655768
2019-12-29T20:30:00	0.2686	1.372		0.696012407	0.884887406	0.016071558	0.165807300	0.051103420
2019-12-29T20:35:00	0.2682	1.373		0.694706760	0.882868356	0.016014828	0.165222027	0.050923033
2019-12-29T20:40:00	0.2695	1.374		0.698923726	0.889394785	0.016198436	0.167116275	0.051506859
2019-12-29T20:45:00	0.2687	1.374		0.696644710	0.885865729	0.016099069	0.166091131	0.051190900
2019-12-29T20:50:00	0.2693	1.372		0.698587448	0.888873776	0.016183753	0.166964801	0.051460173
2019-12-29T20:55:00	0.2688	1.370		0.696957915	0.886350459	0.016112706	0.166231818	0.051234261
2019-12-29T21:00:00	0.2690	1.366		0.697601678	0.887347046	0.016140754	0.166521187	0.051323447
2019-12-29T21:05:00	0.2699	1.363		0.700517545	0.891865493	0.016268119	0.167835187	0.051728435
2019-12-29T21:10:00	0.2689	1.361		0.697265280	0.886826235	0.016126095	0.166369944	0.051276833
2019-12-29T21:15:00	0.2681	1.358		0.694660229	0.882796428	0.016012808	0.165201189	0.050916611
2019-12-29T21:20:00	0.2678	1.355		0.693679221	0.881280412	0.015970256	0.164762189	0.050781307
2019-12-29T21:25:00	0.2679	1.354		0.693998496	0.881773717	0.015984098	0.164904996	0.050825321
2019-12-29T21:30:00	0.2674	1.353		0.692366922	0.879253733	0.015913428	0.164175900	0.050600607
2019-12-29T21:35:00	0.2664	1.348		0.689107417	0.874226292	0.015772739	0.162724442	0.050153254
2019-12-29T21:40:00	0.2664	1.346		0.689101592	0.874217316	0.015772488	0.162721855	0.050152456
2019-12-29T21:45:00	0.2672	1.346		0.691698954	0.878222714	0.015884543	0.163877900	0.050508760
2019-12-29T21:50:00	0.2679	1.349		0.693969408	0.881728771	0.015982837	0.164891983	0.050821311
2019-12-29T21:55:00	0.2680	1.353		0.694288658	0.882222118	0.015996684	0.165034839	0.050865340
2019-12-29T22:00:00	0.2679	1.356		0.693957773	0.881710793	0.015982333	0.164886778	0.050819706
2019-12-29T22:05:00	0.2673	1.356		0.691810917	0.878395503	0.015889382	0.163927830	0.050524149
2019-12-29T22:10:00	0.2672	1.353		0.691615063	0.878093253	0.015880917	0.163840494	0.050497231
2019-12-29T22:15:00	0.2680	1.356		0.694345797	0.882310425	0.015999163	0.165060414	0.050873223
2019-12-29T22:20:00	0.2681	1.358		0.694475129	0.882510318	0.016004775	0.165118310	0.050891067
2019-12-29T22:25:00	0.2684	1.362		0.695579402	0.884217644	0.016052732	0.165613079	0.051043559
2019-12-29T22:30:00	0.2692	1.363		0.697982476	0.887936713	0.016157357	0.166692479	0.051376241
2019-12-29T22:35:00	0.2690	1.366		0.697462194	0.887131084	0.016134675	0.166458467	0.051304116
2019-12-29T22:40:00	0.2696	1.370		0.699539462	0.890349026	0.016225338	0.167393817	0.051592400
2019-12-29T22:45:00	0.2698	1.371		0.699993174	0.891052379	0.016245176	0.167598483	0.051655480
2019-12-29T22:50:00	0.2691	1.371		0.697849847	0.887731322	0.016151574	0.166632808	0.051357850
2019-12-29T22:55:00	0.2692	1.369		0.697979055	0.887931416	0.016157208	0.166690940	0.051375766
2019-12-29T23:00:00	0.2693	1.371		0.698432960	0.888634454	0.016177011	0.166895237	0.051438733
2019-12-29T23:05:00	0.2694	1.373		0.698886808	0.889337583	0.016196823	0.167099642	0.051501733
2019-12-29T23:10:00	0.2699	1.374		0.700314289	0.891550287	0.016259224	0.167743415	0.051700150
2019-12-29T23:15:00	0.2702	1.375		0.701416807	0.893260486	0.016307506	0.168241532	0.051853674
2019-12-29T23:20:00	0.2711	1.373		0.704140264	0.897489572	0.016427098	0.169475338	0.052233945
2019-12-29T23:25:00	0.2705	1.373		0.702323712	0.894668045	0.016347278	0.168651856	0.051980140
2019-12-29T23:30:00	0.2710	1.371		0.704074061	0.897386693	0.016424185	0.169445290	0.052224684
2019-12-29T23:35:00	0.2709	1.368		0.703554641	0.896579649	0.016401343	0.169209630	0.052152051
2019-12-29T23:40:00	0.2704	1.362		0.702062178	0.894262060	0.016335803	0.168533473	0.051943653
2019-12-29T23:45:00	0.2689	1.357		0.696997905	0.886412356	0.016114448	0.166249786	0.051239799
2019-12-29T23:50:00	0.2692	1.353		0.698101419	0.888120923	0.016162545	0.166746001	0.051392737
2019-12-29T23:55:00	0.2689	1.354		0.697256377	0.886812454	0.016125707	0.166365943	0.051275599
2019-12-30T00:00:00	0.2693	1.356		0.698359814	0.888521148	0.016173819	0.166862306	0.051428583
2019-12-30T00:05:00	0.2688	1.363		0.696865240	0.886207023	0.016108670	0.166190184	0.051221429
2019-12-30T00:10:00	0.2692	1.369		0.697968794	0.887915525	0.016156761	0.166686323	0.051374343
2019-12-30T00:15:00	0.2699	1.377		0.700370305	0.891637152	0.016261675	0.167768705	0.051707944
2019-12-30T00:20:00	0.2699	1.382		0.700499425	0.891837392	0.016267326	0.167827005	0.051725913
2019-12-30T00:25:00	0.2701	1.385		0.700953018	0.892540939	0.016287186	0.168031897	0.051789063
2019-12-30T00:30:00	0.2697	1.389		0.699784080	0.890728217	0.016236032	0.167504146	0.051626405
2019-12-30T00:35:00	0.2697	1.392		0.699588652	0.890425272	0.016227488	0.167416000	0.051599237
2019-12-30T00:40:00	0.2686	1.394		0.696145765	0.885093714	0.016077358	0.165867141	0.051121864
2019-12-30T00:45:00	0.2680	1.398		0.694325254	0.882278675	0.015998272	0.165051219	0.050870389
2019-12-30T00:50:00	0.2684	1.398		0.695429572	0.883985928	0.016046221	0.165545902	0.051022855
2019-12-30T00:55:00	0.2679	1.401		0.693933804	0.881673755	0.015981293	0.164876055	0.050816401
2019-12-30T01:00:00	0.2685	1.406		0.695688155	0.884385845	0.016057459	0.165661848	0.051058590
2019-12-30T01:05:00	0.2699	1.411		0.700363468	0.891626551	0.016261376	0.167765618	0.051706993
2019-12-30T01:10:00	0.2701	1.418		0.701141540	0.892833399	0.016295444	0.168117093	0.051815321
2019-12-30T01:15:00	0.2714	1.421		0.705161798	0.899077511	0.016472074	0.169939355	0.052376960
2019-12-30T01:20:00	0.2717	1.418		0.706262865	0.900790098	0.016520626	0.170440250	0.052531340
2019-12-30T01:25:00	0.2726	1.416		0.708982742	0.905025085	0.016640883	0.171680922	0.052913728
2019-12-30T01:30:00	0.2726	1.413		0.709111560	0.905225822	0.016646590	0.171739801	0.052931875
2019-12-30T01:35:00	0.2737	1.408		0.712799730	0.910979202	0.016810429	0.173430094	0.053452839
2019-12-30T01:40:00	0.2737	1.404		0.712604990	0.910675120	0.016801756	0.173340624	0.053425264
2019-12-30T01:45:00	0.2744	1.401		0.714996982	0.914412456	0.016908442	0.174441275	0.053764495
2019-12-30T01:50:00	0.2759	1.399		0.719647882	0.921693495	0.017116903	0.176591936	0.054427350
2019-12-30T01:55:00	0.2759	1.394		0.719776329	0.921894849	0.017122680	0.176651532	0.054445718
2019-12-30T02:00:00	0.2763	1.391		0.721195751	0.924120896	0.017186583	0.177310808	0.054648913
2019-12-30T02:05:00	0.2749	1.392		0.716480817	0.916733364	0.016974802	0.175125906	0.053975505
2019-12-30T02:10:00	0.2742	1.395		0.714347061	0.913396502	0.016879419	0.174141854	0.053672211
2019-12-30T02:15:00	0.2740	1.400		0.713505740	0.912081898	0.016841889	0.173754661	0.053552874
2019-12-30T02:20:00	0.2741	1.407		0.713957735	0.912788085	0.016862046	0.173962621	0.053616969
2019-12-30T02:25:00	0.2740	1.411		0.713763056	0.912483902	0.016853363	0.173873035	0.053589358
2019-12-30T02:30:00	0.2729	1.417		0.710009753	0.906625870	0.016686412	0.172150635	0.053058498
2019-12-30T02:35:00	0.2737	1.424		0.712726869	0.910865427	0.016807184	0.173396616	0.053442521
2019-12-30T02:40:00	0.2748	1.429		0.716088311	0.916119248	0.016957235	0.174944668	0.053919646
2019-12-30T02:45:00	0.2747	1.435		0.715893745	0.915814879	0.016948530	0.174854865	0.053891967
2019-12-30T02:50:00	0.2749	1.442		0.716668546	0.917027134	0.016983208	0.175212624	0.054002232
2019-12-30T02:55:00	0.2747	1.450		0.715827753	0.915711651	0.016945579	0.174824411	0.053882581
2019-12-30T03:00:00	0.2745	1.458		0.715309985	0.914901872	0.016922428	0.174585573	0.053808969
2019-12-30T03:05:00	0.2736	1.465		0.712528718	0.910556032	0.016798361	0.173305589	0.053414466
2019-12-30T03:10:00	0.2724	1.469		0.708450370	0.904195647	0.016617308	0.171437705	0.052838766
2019-12-30T03:15:00	0.2711	1.477		0.704367504	0.897842730	0.016437097	0.169578500	0.052265741
2019-12-30T03:20:00	0.2704	1.481		0.701902362	0.894014001	0.016328794	0.168461153	0.051921363
2019-12-30T03:25:00	0.2699	1.488		0.700409229	0.891697514	0.016263379	0.167786278	0.051713361
2019-12-30T03:30:00	0.2700	1.496		0.700862833	0.892401043	0.016283237	0.167991149	0.051776504
2019-12-30T03:35:00	0.2691	1.504		0.697745903	0.887570364	0.016147042	0.166586052	0.051343439
2019-12-30T03:40:00	0.2689	1.511		0.697225587	0.886764789	0.016124365	0.166352103	0.051271334
2019-12-30T03:45:00	0.2694	1.520		0.698653713	0.888976436	0.016186646	0.166994644	0.051469371
2019-12-30T03:50:00	0.2702	1.527		0.701379217	0.893202160	0.016305858	0.168224536	0.051848436
2019-12-30T03:55:00	0.2698	1.534		0.700210415	0.891389215	0.016254679	0.167696525	0.051685698
2019-12-30T04:00:00	0.2691	1.539		0.697742482	0.887565067	0.016146892	0.166584513	0.051342965
2019-12-30T04:05:00	0.2680	1.547		0.694251842	0.882165219	0.015995087	0.165018361	0.050860262
2019-12-30T04:10:00	0.2684	1.557		0.695635122	0.884303822	0.016055154	0.165638065	0.051051260
2019-12-30T04:15:00	0.2682	1.566		0.694743498	0.882925148	0.016016423	0.165238481	0.050928105
2019-12-30T04:20:00	0.2682	1.573		0.694826803	0.883053929	0.016020039	0.165275792	0.050939604
2019-12-30T04:25:00	0.2683	1.581		0.695235089	0.883685185	0.016037771	0.165458725	0.050995986
2019-12-30T04:30:00	0.2674	1.584		0.692392560	0.879293312	0.015914537	0.164187344	0.050604134
2019-12-30T04:35:00	0.2675	1.582		0.692475918	0.879422006	0.015918144	0.164224554	0.050615602
2019-12-30T04:40:00	0.2656	1.579		0.686375133	0.870019112	0.015655314	0.161512993	0.049779873
2019-12-30T04:45:00	0.2655	1.575		0.686132864	0.869646378	0.015644925	0.161405806	0.049746837
2019-12-30T04:50:00	0.2653	1.573		0.685564766	0.868772547	0.015620576	0.161154608	0.049669415
2019-12-30T04:55:00	0.2657	1.572		0.686625612	0.870404533	0.015666060	0.161623853	0.049814041
2019-12-30T05:00:00	0.2654	1.569		0.685731791	0.869029431	0.015627733	0.161228440	0.049692171
2019-12-30T05:05:00	0.2640	1.565		0.681251163	0.862146594	0.015436349	0.159253970	0.049083620
2019-12-30T05:10:00	0.2633	1.559		0.679050616	0.858772604	0.015342810	0.158288948	0.048786191
2019-12-30T05:15:00	0.2641	1.554		0.681418385	0.862403159	0.015443470	0.159327429	0.049106261
2019-12-30T05:20:00	0.2637	1.547		0.680196995	0.860529770	0.015391502	0.158791293	0.048941019
2019-12-30T05:25:00	0.2641	1.544		0.681585601	0.862659736	0.015450591	0.159400903	0.049128906
2019-12-30T05:30:00	0.2640	1.541		0.681343014	0.862287516	0.015440260	0.159294317	0.049096056
2019-12-30T05:35:00	0.2636	1.537		0.679795269	0.859913877	0.015374430	0.158615160	0.048886733
2019-12-30T05:40:00	0.2639	1.537		0.680857793	0.861543153	0.015419606	0.159081236	0.049030382
2019-12-30T05:45:00	0.2650	1.539		0.684528308	0.867179019	0.015576206	0.160696844	0.049528328
2019-12-30T05:50:00	0.2649	1.545		0.683959959	0.866305592	0.015551903	0.160446119	0.049451052
2019-12-30T05:55:00	0.2637	1.549		0.680129841	0.860426804	0.015388648	0.158761842	0.048931942
2019-12-30T06:00:00	0.2626	1.552		0.676622337	0.855054287	0.015239939	0.157227637	0.048459085
2019-12-30T06:05:00	0.2631	1.557		0.678338794	0.857682096	0.015312617	0.157977448	0.048690184
2019-12-30T06:10:00	0.2641	1.565		0.681359493	0.862312798	0.015440962	0.159301556	0.049098287
2019-12-30T06:15:00	0.2668	1.575		0.690239810	0.875971845	0.015821541	0.163227926	0.050308432
2019-12-30T06:20:00	0.2693	1.579		0.698449325	0.888659804	0.016177725	0.166902605	0.051441004
2019-12-30T06:25:00	0.2698	1.581		0.700155573	0.891304177	0.016252280	0.167671772	0.051678069
2019-12-30T06:30:00	0.2714	1.588		0.705103433	0.898986759	0.016469503	0.169912825	0.052368783
2019-12-30T06:35:00	0.2696	1.592		0.699348248	0.890052656	0.016216981	0.167307602	0.051565828
2019-12-30T06:40:00	0.2696	1.596		0.699431448	0.890181607	0.016220617	0.167345112	0.051577389
2019-12-30T06:45:00	0.2694	1.599		0.698865408	0.889304424	0.016195889	0.167090001	0.051498761
2019-12-30T06:50:00	0.2698	1.601		0.699922411	0.890942670	0.016242081	0.167566554	0.051645639
2019-12-30T06:55:00	0.2714	1.602		0.705194688	0.899128652	0.016473524	0.169954306	0.052381568
2019-12-30T07:00:00	0.2716	1.602		0.705925864	0.900265817	0.016505758	0.170286859	0.052484064
2019-12-30T07:05:00	0.2719	1.601		0.706980841	0.901907397	0.016552326	0.170767292	0.052632138
2019-12-30T07:10:00	0.2730	1.600		0.710301697	0.907081087	0.016699366	0.172284283	0.053099689
2019-12-30T07:15:00	0.2741	1.597		0.713942904	0.912764910	0.016861384	0.173955795	0.053614866
2019-12-30T07:20:00	0.2741	1.592		0.714025775	0.912894404	0.016865082	0.173993938	0.053626621
2019-12-30T07:25:00	0.2747	1.590		0.716047979	0.916056151	0.016955430	0.174926050	0.053913908
2019-12-30T07:30:00	0.2749	1.588		0.716453919	0.916691276	0.016973598	0.175113483	0.053971676
2019-12-30T07:35:00	0.2754	1.587		0.718151857	0.919349387	0.017049701	0.175898618	0.054213662
2019-12-30T07:40:00	0.2754	1.586		0.718234633	0.919479038	0.017053415	0.175936943	0.054225474
2019-12-30T07:45:00	0.2750	1.582		0.717025425	0.917585683	0.016999193	0.175377542	0.054053062
2019-12-30T07:50:00	0.2751	1.580		0.717108227	0.917715292	0.017002903	0.175415817	0.054064858
2019-12-30T07:55:00	0.2757	1.577		0.719128747	0.920879845	0.017093567	0.176351184	0.054353148
2019-12-30T08:00:00	0.2752	1.579		0.717596842	0.918480238	0.017024805	0.175641771	0.054134500
2019-12-30T08:05:00	0.2747	1.586		0.716064302	0.916081688	0.016956161	0.174933585	0.053916230
2019-12-30T08:10:00	0.2742	1.592		0.714207843	0.913178924	0.016873206	0.174077751	0.053652454
2019-12-30T08:15:00	0.2723	1.598		0.708143057	0.903716966	0.016603708	0.171297391	0.052795520
2019-12-30T08:20:00	0.2721	1.604		0.707578356	0.902837580	0.016578731	0.171039716	0.052716102
2019-12-30T08:25:00	0.2713	1.611		0.705069477	0.898933964	0.016468007	0.169897391	0.052364026
2019-12-30T08:30:00	0.2716	1.619		0.705800678	0.900071088	0.016500236	0.170229897	0.052466508
2019-12-30T08:35:00	0.2729	1.634		0.710093702	0.906756761	0.016690136	0.172189060	0.053070341
2019-12-30T08:40:00	0.2729	1.655		0.710176660	0.906886112	0.016693817	0.172227036	0.053082045
2019-12-30T08:45:00	0.2737	1.674		0.712847864	0.911054367	0.016812573	0.173452211	0.053459656
2019-12-30T08:50:00	0.2739	1.690		0.713254156	0.911688906	0.016830674	0.173638965	0.053517215
2019-12-30T08:55:00	0.2756	1.706		0.718830331	0.920412239	0.017080161	0.176212871	0.054310518
2019-12-30T09:00:00	0.2758	1.723		0.719558811	0.921553876	0.017112898	0.176550617	0.054414615
2019-12-30T09:05:00	0.2765	1.743		0.721577995	0.924720661	0.017203813	0.177488571	0.054703701
2019-12-30T09:10:00	0.2786	1.763		0.728430125	0.935493809	0.017514248	0.180691267	0.055690803
2019-12-30T09:15:00	0.2809	1.779		0.735912526	0.947304935	0.017856619	0.184223449	0.056779456
2019-12-30T09:20:00	0.2824	1.792		0.740812886	0.955066933	0.018082764	0.186556538	0.057498537
2019-12-30T09:25:00	0.2836	1.812		0.744424319	0.960800856	0.018250400	0.188286014	0.058031578
2019-12-30T09:30:00	0.2830	1.840		0.742581973	0.957874301	0.018164778	0.187402667	0.057759322
2019-12-30T09:35:00	0.2833	1.872		0.743626581	0.959533286	0.018213299	0.187903251	0.057913607
2019-12-30T09:40:00	0.2820	1.904		0.739536810	0.953043638	0.018023728	0.185947479	0.057310819
2019-12-30T09:45:00	0.2818	1.932		0.738655706	0.951647431	0.017983025	0.185527559	0.057181395
2019-12-30T09:50:00	0.2815	1.960		0.737774394	0.950251578	0.017942362	0.185108046	0.057052098
2019-12-30T09:55:00	0.2805	1.985		0.734642893	0.945297327	0.017798276	0.183621528	0.056593938
2019-12-30T10:00:00	0.2783	2.003		0.727645228	0.934257681	0.017478538	0.180322857	0.055577256
2019-12-30T10:05:00	0.2778	2.020		0.726022704	0.931704093	0.017404843	0.179562558	0.055342924
2019-12-30T10:10:00	0.2770	2.040		0.723432114	0.927631710	0.017287522	0.178352179	0.054969874
2019-12-30T10:15:00	0.2763	2.064		0.721162419	0.924068602	0.017185081	0.177295311	0.054644137
2019-12-30T10:20:00	0.2768	2.091		0.722763981	0.926582365	0.017257333	0.178040721	0.054873879
2019-12-30T10:25:00	0.2768	2.118		0.722752436	0.926564237	0.017256811	0.178035341	0.054872221
2019-12-30T10:30:00	0.2758	2.134		0.719513946	0.921483552	0.017110881	0.176529806	0.054408201
2019-12-30T10:35:00	0.2768	2.144		0.722729347	0.926527981	0.017255769	0.178024584	0.054868906
2019-12-30T10:40:00	0.2764	2.155		0.721427353	0.924484280	0.017197022	0.177418504	0.054682106
2019-12-30T10:45:00	0.2766	2.170		0.722061087	0.925478848	0.017225603	0.177713370	0.054772987
2019-12-30T10:50:00	0.2755	2.188		0.718499083	0.919893278	0.017065286	0.176059408	0.054263219
2019-12-30T10:55:00	0.2753	2.209		0.717841619	0.918863524	0.017035782	0.175755023	0.054169405
2019-12-30T11:00:00	0.2756	2.230		0.718798878	0.920362960	0.017078748	0.176198296	0.054306026
2019-12-30T11:05:00	0.2743	2.253		0.714587257	0.913771933	0.016890142	0.174252481	0.053706307
2019-12-30T11:10:00	0.2739	2.273		0.713282395	0.911733016	0.016831933	0.173651950	0.053521217
2019-12-30T11:15:00	0.2734	2.292		0.711653564	0.909189964	0.016759422	0.172903863	0.053290650
2019-12-30T11:20:00	0.2731	2.314		0.710671287	0.907657479	0.016715774	0.172453554	0.053151860
2019-12-30T11:25:00	0.2718	2.340		0.706450381	0.901081863	0.016528902	0.170525633	0.052557656
2019-12-30T11:30:00	0.2721	2.373		0.707410598	0.902576390	0.016571315	0.170963207	0.052692521
2019-12-30T11:35:00	0.2714	2.407		0.705131037	0.899029680	0.016470719	0.169925372	0.052372650
2019-12-30T11:40:00	0.2711	2.437		0.704147020	0.897500071	0.016427395	0.169478405	0.052234890
2019-12-30T11:45:00	0.2699	2.462		0.700243165	0.891439998	0.016256112	0.167711309	0.051690254
2019-12-30T11:50:00	0.2681	2.483		0.694385411	0.882371650	0.016000882	0.165078146	0.050878688
2019-12-30T11:55:00	0.2681	2.504		0.694373777	0.882353669	0.016000377	0.165072939	0.050877083
2019-12-30T12:00:00	0.2675	2.527		0.692736551	0.879824426	0.015929423	0.164340926	0.050651469
2019-12-30T12:05:00	0.2663	2.557		0.688820531	0.873784241	0.015760388	0.162597018	0.050113980
2019-12-30T12:10:00	0.2667	2.585		0.690110807	0.875772935	0.015815978	0.163170527	0.050290741
2019-12-30T12:15:00	0.2674	2.607		0.692376426	0.879268404	0.015913839	0.164180142	0.050601914
2019-12-30T12:20:00	0.2671	2.629		0.691388985	0.877744402	0.015871148	0.163739710	0.050466169
2019-12-30T12:25:00	0.2677	2.650		0.693328689	0.880738914	0.015955066	0.164605476	0.050733006
2019-12-30T12:30:00	0.2679	2.671		0.693967273	0.881725471	0.015982744	0.164891028	0.050821016
2019-12-30T12:35:00	0.2693	2.688		0.698503972	0.888744457	0.016180110	0.166927211	0.051448588
2019-12-30T12:40:00	0.2683	2.704		0.695244106	0.883699129	0.016038163	0.165462767	0.050997232
2019-12-30T12:45:00	0.2686	2.719		0.696207254	0.885188843	0.016080033	0.165894736	0.051130369
2019-12-30T12:50:00	0.2672	2.732		0.691644427	0.878138567	0.015882186	0.163853586	0.050501267
2019-12-30T12:55:00	0.2682	2.746		0.694884227	0.883142705	0.016022533	0.165301515	0.050947532
2019-12-30T13:00:00	0.2684	2.760		0.695522540	0.884129704	0.016050261	0.165587583	0.051035701
2019-12-30T13:05:00	0.2680	2.775		0.694210901	0.882101949	0.015993311	0.165000039	0.050854614
2019-12-30T13:10:00	0.2690	2.789		0.697448436	0.887109785	0.016134075	0.166452281	0.051302210
2019-12-30T13:15:00	0.2693	2.801		0.698411005	0.888600445	0.016176053	0.166885353	0.051435686
2019-12-30T13:20:00	0.2691	2.812		0.697749949	0.887576629	0.016147218	0.166587871	0.051344000
2019-12-30T13:25:00	0.2687	2.820		0.696439106	0.885547572	0.016090121	0.165998810	0.051162445
2019-12-30T13:30:00	0.2692	2.829		0.698051437	0.888043513	0.016160365	0.166723509	0.051385805
2019-12-30T13:35:00	0.2699	2.840		0.700312157	0.891546981	0.016259131	0.167742453	0.051699853
2019-12-30T13:40:00	0.2703	2.849		0.701598397	0.893542265	0.016315465	0.168323649	0.051878983
2019-12-30T13:45:00	0.2710	2.859		0.703856938	0.897049312	0.016414635	0.169346761	0.052194316
2019-12-30T13:50:00	0.2706	2.867		0.702548272	0.895016684	0.016357134	0.168753539	0.052011480
2019-12-30T13:55:00	0.2704	2.873		0.701887960	0.893991648	0.016328162	0.168454636	0.051919355
2019-12-30T14:00:00	0.2704	2.879		0.701876350	0.893973629	0.016327653	0.168449383	0.051917736
2019-12-30T14:05:00	0.2695	2.885		0.698944133	0.889426406	0.016199327	0.167125469	0.051509693
2019-12-30T14:10:00	0.2702	2.891		0.701204304	0.892930775	0.016298194	0.168145462	0.051824065
2019-12-30T14:15:00	0.2696	2.893		0.699245523	0.889893451	0.016212492	0.167261294	0.051551555
2019-12-30T14:20:00	0.2700	2.893		0.700856622	0.892391409	0.016282965	0.167988343	0.051775639
2019-12-30T14:25:00	0.2692	2.890		0.698248308	0.888348431	0.016168953	0.166812112	0.051413113
2019-12-30T14:30:00	0.2688	2.887		0.696937643	0.886319084	0.016111823	0.166222711	0.051231454
2019-12-30T14:35:00	0.2692	2.884		0.698225065	0.888312430	0.016167939	0.166801650	0.051409888
2019-12-30T14:40:00	0.2689	2.882		0.697239198	0.886785859	0.016124958	0.166358221	0.051273219
2019-12-30T14:45:00	0.2700	2.878		0.700798556	0.892301340	0.016280422	0.167962110	0.051767554
2019-12-30T14:50:00	0.2700	2.873		0.700786942	0.892283326	0.016279913	0.167956864	0.051765937
2019-12-30T14:55:00	0.2710	2.868		0.704018689	0.897300648	0.016421749	0.169420159	0.052216938
2019-12-30T15:00:00	0.2713	2.861		0.704979540	0.898794130	0.016464045	0.169856517	0.052351428
2019-12-30T15:05:00	0.2700	2.853		0.700752102	0.892229285	0.016278388	0.167941125	0.051761086
2019-12-30T15:10:00	0.2696	2.843		0.699442330	0.890198474	0.016221092	0.167350019	0.051578901
2019-12-30T15:15:00	0.2698	2.831		0.700079851	0.891186769	0.016248967	0.167637597	0.051667536
2019-12-30T15:20:00	0.2711	2.821		0.704284857	0.897714280	0.016433460	0.169540976	0.052254175
2019-12-30T15:25:00	0.2704	2.812		0.702003359	0.894170761	0.016333223	0.168506854	0.051935449
2019-12-30T15:30:00	0.2701	2.805		0.701018506	0.892642529	0.016290055	0.168061489	0.051798183
2019-12-30T15:35:00	0.2700	2.800		0.700682420	0.892121205	0.016275337	0.167909650	0.051751385
2019-12-30T15:40:00	0.2715	2.795		0.705534913	0.899657732	0.016488518	0.170109004	0.052429247
2019-12-30T15:45:00	0.2718	2.793		0.706495369	0.901151866	0.016530888	0.170546120	0.052563971
2019-12-30T15:50:00	0.2714	2.791		0.705187641	0.899117693	0.016473213	0.169951102	0.052380580
2019-12-30T15:55:00	0.2698	2.789		0.699986924	0.891042691	0.016244902	0.167595663	0.051654611
2019-12-30T16:00:00	0.2696	2.787		0.699326152	0.890018410	0.016216015	0.167297640	0.051562757
2019-12-30T16:05:00	0.2701	2.782		0.701166895	0.892872737	0.016296555	0.168128554	0.051818853
2019-12-30T16:10:00	0.2701	2.778		0.701060510	0.892707691	0.016291894	0.168080472	0.051804034
2019-12-30T16:15:00	0.2710	2.772		0.703873132	0.897074473	0.016415347	0.169354108	0.052196581
2019-12-30T16:20:00	0.2718	2.769		0.706683606	0.901444792	0.016539198	0.170631860	0.052590396
2019-12-30T16:25:00	0.2728	2.769		0.709815636	0.906323233	0.016677801	0.172061802	0.053031118
2019-12-30T16:30:00	0.2726	2.770		0.709062057	0.905148681	0.016644397	0.171717174	0.052924901
2019-12-30T16:35:00	0.2727	2.771		0.709603360	0.905992323	0.016668388	0.171964686	0.053001186
2019-12-30T16:40:00	0.2722	2.772		0.707878306	0.903304645	0.016591995	0.171176558	0.052758278
2019-12-30T16:45:00	0.2725	2.775		0.708743574	0.904652431	0.016630290	0.171571635	0.052880044
2019-12-30T16:50:00	0.2705	2.776		0.702480314	0.894911172	0.016354151	0.168722764	0.052001994
2019-12-30T16:55:00	0.2704	2.776		0.702049614	0.894242557	0.016335252	0.168527786	0.051941900
2019-12-30T17:00:00	0.2720	2.779		0.707129614	0.902138971	0.016558898	0.170835100	0.052653037
2019-12-30T17:05:00	0.2732	2.779		0.711232070	0.908532274	0.016740685	0.172710560	0.053231072
2019-12-30T17:10:00	0.2733	2.780		0.711449529	0.908871573	0.016750350	0.172810276	0.053261805
2019-12-30T17:15:00	0.2733	2.784		0.711343440	0.908706038	0.016745635	0.172761625	0.053246811
2019-12-30T17:20:00	0.2725	2.786		0.708647969	0.904503479	0.016626056	0.171527958	0.052866583
2019-12-30T17:25:00	0.2711	2.791		0.704330054	0.897784525	0.016435449	0.169561497	0.052260500
2019-12-30T17:30:00	0.2720	2.795		0.707140180	0.902155418	0.016559365	0.170839917	0.052654521
2019-12-30T17:35:00	0.2734	2.799		0.711566169	0.909053582	0.016755536	0.172863773	0.053278294
2019-12-30T17:40:00	0.2748	2.804		0.716309986	0.916466065	0.016967155	0.175047013	0.053951189
2019-12-30T17:45:00	0.2726	2.807		0.709088459	0.905189822	0.016645567	0.171729242	0.052928620
2019-12-30T17:50:00	0.2706	2.813		0.702501473	0.894944023	0.016355080	0.168732345	0.052004948
2019-12-30T17:55:00	0.2719	2.819		0.706933034	0.901832987	0.016550214	0.170745505	0.052625423
2019-12-30T18:00:00	0.2724	2.827		0.708446189	0.904189135	0.016617123	0.171435796	0.052838177
2019-12-30T18:05:00	0.2738	2.836		0.712870612	0.911089890	0.016813586	0.173462665	0.053462878
2019-12-30T18:10:00	0.2735	2.846		0.712117657	0.909914304	0.016780065	0.173116836	0.053356290
2019-12-30T18:15:00	0.2744	2.855		0.714921858	0.914295003	0.016905085	0.174406651	0.053753824
2019-12-30T18:20:00	0.2741	2.865		0.713846005	0.912613504	0.016857062	0.173911203	0.053601122
2019-12-30T18:25:00	0.2749	2.876		0.716648895	0.916996382	0.016982328	0.175203546	0.053999434
2019-12-30T18:30:00	0.2743	2.888		0.714603880	0.913797916	0.016890884	0.174260139	0.053708667
2019-12-30T18:35:00	0.2755	2.898		0.718375127	0.919699103	0.017059721	0.176001999	0.054245525
2019-12-30T18:40:00	0.2748	2.903		0.716331066	0.916499047	0.016968099	0.175056747	0.053954190
2019-12-30T18:45:00	0.2743	2.911		0.714609152	0.913806158	0.016891120	0.174262567	0.053709416
2019-12-30T18:50:00	0.2754	2.922		0.718057445	0.919201521	0.017045464	0.175854913	0.054200192
2019-12-30T18:55:00	0.2756	2.930		0.718920333	0.920553262	0.017084204	0.176254580	0.054323373
2019-12-30T19:00:00	0.2753	2.940		0.717845643	0.918869825	0.017035963	0.175756885	0.054169979
2019-12-30T19:05:00	0.2756	2.950		0.718708580	0.920221484	0.017074693	0.176156457	0.054293131
2019-12-30T19:10:00	0.2762	2.956		0.720862412	0.923597970	0.017171564	0.177155865	0.054601158
2019-12-30T19:15:00	0.2761	2.959		0.720433851	0.922925807	0.017152266	0.176956767	0.054539794
2019-12-30T19:20:00	0.2758	2.964		0.719359600	0.921241637	0.017103943	0.176458222	0.054386138
2019-12-30T19:25:00	0.2758	2.972		0.719576582	0.921581731	0.017113697	0.176558860	0.054417155
2019-12-30T19:30:00	0.2752	2.980		0.717533185	0.918380568	0.017021950	0.175612325	0.054125424
2019-12-30T19:35:00	0.2752	2.983		0.717427270	0.918214743	0.017017202	0.175563337	0.054110326
2019-12-30T19:40:00	0.2743	2.990		0.714736237	0.914004816	0.016896795	0.174321116	0.053727461
2019-12-30T19:45:00	0.2736	2.998		0.712366717	0.910303107	0.016791149	0.173231188	0.053391535
2019-12-30T19:50:00	0.2734	3.006		0.711613659	0.909127691	0.016757647	0.172885558	0.053285008
2019-12-30T19:55:00	0.2742	3.015		0.714418243	0.913507755	0.016882596	0.174174634	0.053682314
2019-12-30T20:00:00	0.2740	3.023		0.713665603	0.912331645	0.016849017	0.173828198	0.053575539
2019-12-30T20:05:00	0.2733	3.029		0.711295396	0.908631077	0.016743499	0.172739595	0.053240021
2019-12-30T20:10:00	0.2733	3.034		0.711512851	0.908970382	0.016753165	0.172839318	0.053270756
2019-12-30T20:15:00	0.2724	3.044		0.708493719	0.904263177	0.016619227	0.171457503	0.052844868
2019-12-30T20:20:00	0.2730	3.054		0.710329886	0.907125045	0.016700617	0.172297190	0.053103667
2019-12-30T20:25:00	0.2740	3.063		0.713782173	0.912513770	0.016854215	0.173881831	0.053592069
2019-12-30T20:30:00	0.2748	3.071		0.716262007	0.916390997	0.016965008	0.175024859	0.053944361
2019-12-30T20:35:00	0.2748	3.075		0.716156056	0.916225232	0.016960266	0.174975941	0.053929285
2019-12-30T20:40:00	0.2753	3.078		0.717988419	0.919093417	0.017042367	0.175822963	0.054190345
2019-12-30T20:45:00	0.2742	3.083		0.714328057	0.913366800	0.016878571	0.174133103	0.053669514
2019-12-30T20:50:00	0.2741	3.086		0.713898739	0.912695901	0.016859414	0.173935470	0.053608601
2019-12-30T20:55:00	0.2733	3.091		0.711528682	0.908995085	0.016753869	0.172846579	0.053272994
2019-12-30T21:00:00	0.2737	3.091		0.712716538	0.910849296	0.016806724	0.173391870	0.053441058
2019-12-30T21:05:00	0.2731	3.089		0.710669344	0.907654449	0.016715687	0.172452664	0.053151586
2019-12-30T21:10:00	0.2731	3.088		0.710886836	0.907993693	0.016725346	0.172552316	0.053182300
2019-12-30T21:15:00	0.2726	3.088		0.709162382	0.905305021	0.016648842	0.171763033	0.052939035
2019-12-30T21:20:00	0.2728	3.091		0.709703670	0.906148689	0.016672836	0.172010574	0.053015330
2019-12-30T21:25:00	0.2748	3.094		0.716389035	0.916589749	0.016970694	0.175083517	0.053962440
2019-12-30T21:30:00	0.2738	3.095		0.713050502	0.911370826	0.016821600	0.173545342	0.053488360
2019-12-30T21:35:00	0.2753	3.096		0.717792416	0.918786475	0.017033575	0.175732255	0.054162388
2019-12-30T21:40:00	0.2753	3.097		0.718009489	0.919126415	0.017043313	0.175832715	0.054193350
2019-12-30T21:45:00	0.2764	3.095		0.721454617	0.924527059	0.017198251	0.177431184	0.054686014
2019-12-30T21:50:00	0.2766	3.097		0.721994109	0.925373717	0.017222581	0.177682194	0.054763378
2019-12-30T21:55:00	0.2771	3.096		0.723823586	0.928246724	0.017305224	0.178534804	0.055026160
2019-12-30T22:00:00	0.2769	3.096		0.723072857	0.927067426	0.017271286	0.178184671	0.054918246
2019-12-30T22:05:00	0.2755	3.096		0.718466201	0.919841769	0.017063810	0.176044178	0.054258525
2019-12-30T22:10:00	0.2758	3.095		0.719346327	0.921220833	0.017103346	0.176452067	0.054384241
2019-12-30T22:15:00	0.2735	3.097		0.712148103	0.909961831	0.016781420	0.173130813	0.053360598
2019-12-30T22:20:00	0.2729	3.096		0.710117970	0.906794600	0.016691213	0.172200169	0.053073764
2019-12-30T22:25:00	0.2715	3.098		0.705495126	0.899595854	0.016486764	0.170090909	0.052423670
2019-12-30T22:30:00	0.2697	3.098		0.699892929	0.890896964	0.016240792	0.167553252	0.051641540
2019-12-30T22:35:00	0.2678	3.098		0.693632014	0.881207481	0.015968210	0.164741079	0.050774801
2019-12-30T22:40:00	0.2672	3.096		0.691591630	0.878057094	0.015879904	0.163830046	0.050494011
2019-12-30T22:45:00	0.2675	3.096		0.692478201	0.879425532	0.015918242	0.164225573	0.050615917
2019-12-30T22:50:00	0.2658	3.095		0.687181779	0.871260517	0.015689933	0.161870150	0.049889952
2019-12-30T22:55:00	0.2656	3.092		0.686441029	0.870120503	0.015658141	0.161542154	0.049788861
2019-12-30T23:00:00	0.2646	3.090		0.683092666	0.864973289	0.015514856	0.160063911	0.049333252
2019-12-30T23:05:00	0.2638	3.088		0.680393869	0.860831651	0.015399873	0.158877647	0.048967634
2019-12-30T23:10:00	0.2633	3.087		0.678998968	0.858693465	0.015340619	0.158266335	0.048779222
2019-12-30T23:15:00	0.2639	3.085		0.680867475	0.861558003	0.015420018	0.159085486	0.049031692
2019-12-30T23:20:00	0.2639	3.082		0.680778013	0.861420784	0.015416212	0.159046215	0.049019588
2019-12-30T23:25:00	0.2645	3.077		0.682971683	0.864787492	0.015509692	0.160010633	0.049316831
2019-12-30T23:30:00	0.2629	3.072		0.677661451	0.856644815	0.015283915	0.157681336	0.048598919
2019-12-30T23:35:00	0.2615	3.067		0.672997433	0.849513074	0.015087049	0.155650308	0.047972937
2019-12-30T23:40:00	0.2609	3.059		0.670945477	0.846381358	0.015000862	0.154761128	0.047698883
2019-12-30T23:45:00	0.2582	3.052		0.662339978	0.833286923	0.014642229	0.151061175	0.046558521
2019-12-30T23:50:00	0.2575	3.046		0.659953866	0.829667368	0.014543593	0.150043564	0.046244884
2019-12-30T23:55:00	0.2563	3.041		0.655924064	0.823565518	0.014377802	0.148333135	0.045717713
2019-12-31T00:00:00	0.2569	3.037		0.657804483	0.826411086	0.014455041	0.149129994	0.045963312
2019-12-31T00:05:00	0.2565	3.031		0.656729313	0.824783700	0.014410852	0.148674099	0.045822801
2019-12-31T00:10:00	0.2549	3.029		0.651380505	0.816702386	0.014192066	0.146416934	0.045127121
2019-12-31T00:15:00	0.2545	3.021		0.649974395	0.814581998	0.014134842	0.145826556	0.044945161
2019-12-31T00:20:00	0.2541	3.015		0.648896889	0.812958280	0.014091072	0.145374990	0.044805984
2019-12-31T00:25:00	0.2540	3.011		0.648477473	0.812326521	0.014074054	0.145199417	0.044751871
2019-12-31T00:30:00	0.2555	3.006		0.653321600	0.819632290	0.014271262	0.147233979	0.045378942
2019-12-31T00:35:00	0.2555	3.004		0.653231456	0.819496155	0.014267579	0.147195983	0.045367232
2019-12-31T00:40:00	0.2555	3.000		0.653470047	0.819856489	0.014277328	0.147296561	0.045398231
2019-12-31T00:45:00	0.2550	2.996		0.651735887	0.817238560	0.014206549	0.146566343	0.045173170
2019-12-31T00:50:00	0.2541	2.990		0.648684503	0.812638348	0.014082453	0.145286069	0.044778577
2019-12-31T00:55:00	0.2518	2.984		0.641015458	0.801111635	0.013773068	0.142094201	0.043794813
2019-12-31T01:00:00	0.2516	2.977		0.640595122	0.800481309	0.013756214	0.141920324	0.043741222
2019-12-31T01:05:00	0.2505	2.970		0.636873849	0.794907511	0.013607474	0.140385803	0.043268268
2019-12-31T01:10:00	0.2518	2.963		0.641073964	0.801199382	0.013775414	0.142118411	0.043802275
2019-12-31T01:15:00	0.2504	2.955		0.636692734	0.794636533	0.013600256	0.140311339	0.043245317
2019-12-31T01:20:00	0.2520	2.948		0.641882538	0.802412365	0.013807868	0.142453229	0.043905469
2019-12-31T01:25:00	0.2525	2.943		0.643440673	0.804751368	0.013870519	0.143099586	0.044104682
2019-12-31T01:30:00	0.2517	2.939		0.640712149	0.800656784	0.013760905	0.141968722	0.043756139
2019-12-31T01:35:00	0.2540	2.936		0.648530490	0.812406371	0.014076204	0.145221605	0.044758709
2019-12-31T01:40:00	0.2542	2.934		0.649098526	0.813262057	0.014099257	0.145459438	0.044832011
2019-12-31T01:45:00	0.2543	2.930		0.649337390	0.813621962	0.014108957	0.145559509	0.044862854
2019-12-31T01:50:00	0.2526	2.924		0.643647993	0.805062743	0.013878866	0.143185702	0.044131224
2019-12-31T01:55:00	0.2524	2.921		0.643227965	0.804431938	0.013861957	0.143011259	0.044077459
2019-12-31T02:00:00	0.2523	2.917		0.642807888	0.803801211	0.013845057	0.142836906	0.044023722
2019-12-31T02:05:00	0.2520	2.915		0.641728234	0.802180842	0.013801672	0.142389303	0.043885766
2019-12-31T02:10:00	0.2501	2.911		0.635696436	0.793146407	0.013560588	0.139902086	0.043119182
2019-12-31T02:15:00	0.2504	2.908		0.636596786	0.794492991	0.013596434	0.140271899	0.043233162
2019-12-31T02:20:00	0.2497	2.906		0.634193554	0.790900191	0.013500863	0.139285917	0.042929272
2019-12-31T02:25:00	0.2482	2.902		0.629142053	0.783364214	0.013301119	0.137225193	0.042294137
2019-12-31T02:30:00	0.2469	2.900		0.625077538	0.777316323	0.013141523	0.135578668	0.041786662
2019-12-31T02:35:00	0.2483	2.897		0.629622428	0.784079921	0.013320047	0.137420473	0.042354324
2019-12-31T02:40:00	0.2473	2.893		0.626220971	0.779016309	0.013186320	0.136040828	0.041929104
2019-12-31T02:45:00	0.2459	2.890		0.621489861	0.771989548	0.013001479	0.134133863	0.041341359
2019-12-31T02:50:00	0.2467	2.886		0.624382722	0.776283852	0.013114340	0.135298230	0.041700229
2019-12-31T02:55:00	0.2462	2.886		0.622634444	0.773687778	0.013046073	0.134593931	0.041483157
2019-12-31T03:00:00	0.2469	2.889		0.624863737	0.776998579	0.013133155	0.135492342	0.041760056
2019-12-31T03:05:00	0.2459	2.892		0.621789394	0.772433862	0.013013142	0.134254182	0.041378443
2019-12-31T03:10:00	0.2451	2.894		0.619044307	0.768364754	0.012906463	0.133153597	0.041039232
2019-12-31T03:15:00	0.2460	2.894		0.621939152	0.772656034	0.013018974	0.134314359	0.041396990
2019-12-31T03:20:00	0.2471	2.896		0.625494295	0.777935804	0.013157841	0.135747021	0.041838550
2019-12-31T03:25:00	0.2468	2.894		0.624740787	0.776815872	0.013128345	0.135442713	0.041744759
2019-12-31T03:30:00	0.2455	2.897		0.620339500	0.770283857	0.012956740	0.133672293	0.041199099
2019-12-31T03:35:00	0.2437	2.896		0.614271471	0.761304979	0.012722063	0.131251179	0.040452888
2019-12-31T03:40:00	0.2455	2.895		0.620489318	0.770505936	0.012962562	0.133732359	0.041217612
2019-12-31T03:45:00	0.2471	2.893		0.625702656	0.778245573	0.013166003	0.135831231	0.041864505
2019-12-31T03:50:00	0.2469	2.891		0.624949191	0.777125574	0.013136499	0.135526842	0.041770689
2019-12-31T03:55:00	0.2485	2.891		0.630156027	0.784875157	0.013341089	0.137637558	0.042421232
2019-12-31T04:00:00	0.2503	2.891		0.636346300	0.794118289	0.013586456	0.140168963	0.043201436
2019-12-31T04:05:00	0.2503	2.889		0.636317270	0.794074867	0.013585300	0.140157035	0.043197760
2019-12-31T04:10:00	0.2497	2.889		0.634305924	0.791068073	0.013505324	0.139331939	0.042943457
2019-12-31T04:15:00	0.2488	2.885		0.631301321	0.786582829	0.013386311	0.138104100	0.042565025
2019-12-31T04:20:00	0.2484	2.879		0.629948975	0.784566554	0.013332922	0.137553301	0.042395263
2019-12-31T04:25:00	0.2492	2.873		0.632565975	0.788469761	0.013436337	0.138620217	0.042724097
2019-12-31T04:30:00	0.2485	2.869		0.630221681	0.784973020	0.013343679	0.137664280	0.042429468
2019-12-31T04:35:00	0.2496	2.866		0.633830183	0.790357382	0.013486443	0.139137150	0.042883421
2019-12-31T04:40:00	0.2513	2.865		0.639415641	0.798713386	0.013708979	0.141433008	0.043591027
2019-12-31T04:45:00	0.2526	2.860		0.643674201	0.805102107	0.013879921	0.143196590	0.044134580
2019-12-31T04:50:00	0.2524	2.857		0.642985932	0.804068518	0.013852219	0.142910789	0.044046493
2019-12-31T04:55:00	0.2514	2.853		0.639988594	0.799572037	0.013731914	0.141669621	0.043663953
2019-12-31T05:00:00	0.2509	2.852		0.638309430	0.797056361	0.013664755	0.140976758	0.043450406
2019-12-31T05:05:00	0.2510	2.849		0.638610512	0.797507257	0.013676784	0.141100861	0.043488656
2019-12-31T05:10:00	0.2513	2.842		0.639571615	0.798947107	0.013715220	0.141497400	0.043610873
2019-12-31T05:15:00	0.2517	2.839		0.640862349	0.800882019	0.013766927	0.142030853	0.043775288
2019-12-31T05:20:00	0.2498	2.835		0.634560220	0.791448035	0.013515422	0.139436117	0.042975565
2019-12-31T05:25:00	0.2490	2.836		0.631886547	0.787455849	0.013409449	0.138342812	0.042638598
2019-12-31T05:30:00	0.2496	2.838		0.633841151	0.790373765	0.013486879	0.139141639	0.042884805
2019-12-31T05:35:00	0.2493	2.841		0.632820395	0.788849533	0.013446413	0.138724168	0.042756136
2019-12-31T05:40:00	0.2482	2.844		0.629152699	0.783380073	0.013301538	0.137229519	0.042295471
2019-12-31T05:45:00	0.2494	2.844		0.633092882	0.789256335	0.013457209	0.138835547	0.042790464
2019-12-31T05:50:00	0.2505	2.852		0.637028736	0.795139270	0.013613648	0.140449500	0.043287900
2019-12-31T05:55:00	0.2498	2.861		0.634687362	0.791638027	0.013520472	0.139488218	0.042991624
2019-12-31T06:00:00	0.2479	2.870		0.628374354	0.782220828	0.013270898	0.136913411	0.042198043
2019-12-31T06:05:00	0.2468	2.884		0.624702092	0.776758374	0.013126831	0.135427095	0.041739946
2019-12-31T06:10:00	0.2504	2.894		0.636582384	0.794471446	0.013595860	0.140265980	0.043231337
2019-12-31T06:15:00	0.2513	2.904		0.639524558	0.798876592	0.013713337	0.141477972	0.043604885
2019-12-31T06:20:00	0.2528	2.916		0.644442140	0.806255816	0.013910865	0.143515826	0.044232971
2019-12-31T06:25:00	0.2518	2.925		0.641116181	0.801262701	0.013777108	0.142135883	0.043807659
2019-12-31T06:30:00	0.2515	2.938		0.640097494	0.799735270	0.013736275	0.141714617	0.043677821
2019-12-31T06:35:00	0.2528	2.950		0.644355246	0.806125246	0.013907361	0.143479685	0.044221832
2019-12-31T06:40:00	0.2542	2.956		0.648937113	0.813018877	0.014092704	0.145391834	0.044811175
2019-12-31T06:45:00	0.2559	2.965		0.654499177	0.821411302	0.014319419	0.147730802	0.045532068
2019-12-31T06:50:00	0.2574	2.971		0.659724549	0.829319769	0.014534132	0.149945957	0.046214800
2019-12-31T06:55:00	0.2591	2.975		0.665270051	0.837738295	0.014763828	0.152315697	0.046945177
2019-12-31T07:00:00	0.2594	2.985		0.666224078	0.839189244	0.014803535	0.152725341	0.047071433
2019-12-31T07:05:00	0.2568	2.989		0.657668524	0.826205242	0.014449449	0.149072304	0.045945532
2019-12-31T07:10:00	0.2567	2.993		0.657311309	0.825664491	0.014434763	0.148920787	0.045898833
2019-12-31T07:15:00	0.2574	3.000		0.659580336	0.829101193	0.014528183	0.149884590	0.046195886
2019-12-31T07:20:00	0.2566	3.007		0.656925194	0.825080114	0.014418897	0.148757103	0.045848384
2019-12-31T07:25:00	0.2550	3.015		0.651637955	0.817090798	0.014202557	0.146525163	0.045160478
2019-12-31T07:30:00	0.2553	3.025		0.652595585	0.818536061	0.014241614	0.146928107	0.045284670
2019-12-31T07:35:00	0.2568	3.031		0.657495369	0.825943107	0.014442329	0.148998848	0.045922892
2019-12-31T07:40:00	0.2566	3.032		0.656809735	0.824905393	0.014414154	0.148708175	0.045833304
2019-12-31T07:45:00	0.2575	3.036		0.660063576	0.829833683	0.014548120	0.150090274	0.046259280
2019-12-31T07:50:00	0.2577	3.042		0.660690926	0.830784913	0.014574024	0.150357516	0.046341647
2019-12-31T07:55:00	0.2580	3.044		0.661646160	0.832233950	0.014613512	0.150764909	0.046467209
2019-12-31T08:00:00	0.2579	3.046		0.661289337	0.831692578	0.014598755	0.150612662	0.046420285
2019-12-31T08:05:00	0.2590	3.048		0.664866857	0.837125326	0.014747064	0.152142746	0.046891872
2019-12-31T08:10:00	0.2594	3.053		0.666148577	0.839074388	0.014800391	0.152692901	0.047061435
2019-12-31T08:15:00	0.2593	3.061		0.665792198	0.838532314	0.014785553	0.152539827	0.047014256
2019-12-31T08:20:00	0.2599	3.066		0.667728506	0.841478864	0.014866263	0.153372490	0.047270891
2019-12-31T08:25:00	0.2586	3.069		0.663440625	0.834958165	0.014687844	0.151531784	0.046703567
2019-12-31T08:30:00	0.2575	3.077		0.659804013	0.829440215	0.014537410	0.149979776	0.046225224
2019-12-31T08:35:00	0.2570	3.084		0.658134060	0.826910132	0.014468601	0.149269887	0.046006429
2019-12-31T08:40:00	0.2551	3.091		0.652190977	0.817925327	0.014225105	0.146757789	0.045232176
2019-12-31T08:45:00	0.2557	3.099		0.654134576	0.820860358	0.014304499	0.147576882	0.045484628
2019-12-31T08:50:00	0.2563	3.107		0.656077129	0.823797033	0.014384081	0.148397916	0.045737679
2019-12-31T08:55:00	0.2574	3.115		0.659659803	0.829221634	0.014531461	0.149918404	0.046206308
2019-12-31T09:00:00	0.2561	3.123		0.655362349	0.822716081	0.014354772	0.148095532	0.045644481
2019-12-31T09:05:00	0.2573	3.131		0.659273939	0.828636861	0.014515550	0.149754253	0.046155715
2019-12-31T09:10:00	0.2565	3.142		0.656618572	0.824616138	0.014406304	0.148627184	0.045808342
2019-12-31T09:15:00	0.2557	3.153		0.653961252	0.820598490	0.014297410	0.147503741	0.045462086
2019-12-31T09:20:00	0.2563	3.165		0.655903898	0.823535018	0.014376975	0.148324602	0.045715083
2019-12-31T09:25:00	0.2568	3.178		0.657517163	0.825976099	0.014443225	0.149008092	0.045925741
2019-12-31T09:30:00	0.2521	3.193		0.642022493	0.802622375	0.013813489	0.142511224	0.043923343
2019-12-31T09:35:00	0.2507	3.206		0.637373757	0.795655601	0.013627407	0.140591443	0.043331648
2019-12-31T09:40:00	0.2520	3.211		0.641964525	0.802535388	0.013811161	0.142487202	0.043915939
2019-12-31T09:45:00	0.2527	3.234		0.644243228	0.805956933	0.013902846	0.143433101	0.044207475
2019-12-31T09:50:00	0.2546	3.258		0.650470585	0.815330050	0.014155021	0.146034747	0.045009327
2019-12-31T09:55:00	0.2552	3.270		0.652415111	0.818263628	0.014234249	0.146852124	0.045261251
2019-12-31T10:00:00	0.2536	3.278		0.647121253	0.810284693	0.014019097	0.144632443	0.044577124
2019-12-31T10:05:00	0.2550	3.288		0.651597650	0.817029985	0.014200914	0.146508216	0.045155255
2019-12-31T10:10:00	0.2556	3.299		0.653768374	0.820307109	0.014289523	0.147422371	0.045437007
2019-12-31T10:15:00	0.2563	3.311		0.655937794	0.823586283	0.014378365	0.148338945	0.045719504
2019-12-31T10:20:00	0.2565	3.324		0.656792475	0.824879276	0.014413446	0.148700861	0.045831050
2019-12-31T10:25:00	0.2555	3.340		0.653375997	0.819714444	0.014273485	0.147256910	0.045386010
2019-12-31T10:30:00	0.2571	3.354		0.658501232	0.827466217	0.014483715	0.149425819	0.046054489
2019-12-31T10:35:00	0.2557	3.362		0.654100515	0.820808894	0.014303106	0.147562508	0.045480198
2019-12-31T10:40:00	0.2588	3.369		0.664144345	0.836027251	0.014717049	0.151833079	0.046796429
2019-12-31T10:45:00	0.2565	3.374		0.656795934	0.824884511	0.014413588	0.148702327	0.045831501
2019-12-31T10:50:00	0.2584	3.378		0.662900054	0.834137223	0.014665432	0.151300553	0.046632300
2019-12-31T10:55:00	0.2603	3.382		0.668993905	0.843406205	0.014919131	0.153917929	0.047439001
2019-12-31T11:00:00	0.2589	3.386		0.664605931	0.836728718	0.014736221	0.152030875	0.046857392
2019-12-31T11:05:00	0.2561	3.393		0.655287663	0.822603160	0.014351711	0.148063955	0.045634749
2019-12-31T11:10:00	0.2558	3.407		0.654171094	0.820915534	0.014305993	0.147592295	0.045489379
2019-12-31T11:15:00	0.2585	3.425		0.663231357	0.834640329	0.014679166	0.151442247	0.046675971
2019-12-31T11:20:00	0.2572	3.441		0.658836396	0.827973924	0.014497519	0.149568232	0.046098382
2019-12-31T11:25:00	0.2573	3.450		0.659362222	0.828770642	0.014519189	0.149791802	0.046167288
2019-12-31T11:30:00	0.2554	3.460		0.652990504	0.819132304	0.014257737	0.147094446	0.045335937
2019-12-31T11:35:00	0.2557	3.466		0.653845884	0.820424200	0.014292692	0.147455068	0.045447084
2019-12-31T11:40:00	0.2554	3.474		0.653057642	0.819233680	0.014260479	0.147122734	0.045344656
2019-12-31T11:45:00	0.2563	3.482		0.655884551	0.823505756	0.014376182	0.148316415	0.045712559
2019-12-31T11:50:00	0.2566	3.492		0.657067653	0.825295708	0.014424750	0.148817484	0.045866994
2019-12-31T11:55:00	0.2541	3.500		0.648717497	0.812688046	0.014083792	0.145299881	0.044782834
2019-12-31T12:00:00	0.2563	3.507		0.655820926	0.823409530	0.014373572	0.148289493	0.045704262
2019-12-31T12:05:00	0.2552	3.513		0.652403529	0.818246144	0.014233777	0.146847249	0.045259748
2019-12-31T12:10:00	0.2548	3.519		0.650957132	0.816063768	0.014174824	0.146239042	0.045072293
2019-12-31T12:15:00	0.2540	3.526		0.648522773	0.812394747	0.014075891	0.145218375	0.044757714
2019-12-31T12:20:00	0.2534	3.532		0.646416148	0.809223756	0.013990570	0.144338128	0.044486413
2019-12-31T12:25:00	0.2534	3.538		0.646285093	0.809026612	0.013985271	0.144283459	0.044469563
2019-12-31T12:30:00	0.2533	3.539		0.646154034	0.808829475	0.013979973	0.144228799	0.044452717
2019-12-31T12:35:00	0.2526	3.542		0.643716425	0.805165529	0.013881622	0.143214133	0.044139987
2019-12-31T12:40:00	0.2501	3.545		0.635665568	0.793100251	0.013559360	0.139889416	0.043115277
2019-12-31T12:45:00	0.2510	3.549		0.638506166	0.797350982	0.013672615	0.141057844	0.043475398
2019-12-31T12:50:00	0.2510	3.553		0.638374823	0.797154286	0.013667367	0.141003707	0.043458712
2019-12-31T12:55:00	0.2511	3.559		0.638903644	0.797946321	0.013688501	0.141221742	0.043525913
2019-12-31T13:00:00	0.2504	3.565		0.636461108	0.794290024	0.013591029	0.140216138	0.043215975
2019-12-31T13:05:00	0.2490	3.575		0.632033334	0.787674868	0.013415256	0.138402719	0.042657062
2019-12-31T13:10:00	0.2492	3.584		0.632563091	0.788465457	0.013436223	0.138619039	0.042723734
2019-12-31T13:15:00	0.2495	3.594		0.633423344	0.789749773	0.013470308	0.138970685	0.042832115
2019-12-31T13:20:00	0.2486	3.599		0.630646270	0.785605989	0.013360437	0.137837161	0.042482752
2019-12-31T13:25:00	0.2461	3.607		0.622234366	0.773094053	0.013030477	0.134433026	0.041433564
2019-12-31T13:30:00	0.2444	3.617		0.616792751	0.765031959	0.012819302	0.132254380	0.040762084
2019-12-31T13:35:00	0.2456	3.625		0.620643751	0.770734876	0.012968565	0.133794291	0.041236700
2019-12-31T13:40:00	0.2464	3.631		0.623164807	0.774475059	0.013066763	0.134807388	0.041548946
2019-12-31T13:45:00	0.2480	3.633		0.628664313	0.782652625	0.013282308	0.137031127	0.042234324
2019-12-31T13:50:00	0.2470	3.638		0.625220966	0.777529502	0.013147138	0.135636594	0.041804516
2019-12-31T13:55:00	0.2475	3.643		0.627076561	0.780289072	0.013219891	0.136387180	0.042035853
2019-12-31T14:00:00	0.2486	3.646		0.630585681	0.785515656	0.013358045	0.137812484	0.042475146
2019-12-31T14:05:00	0.2516	3.650		0.640365318	0.800136763	0.013747004	0.141825309	0.043711938
2019-12-31T14:10:00	0.2524	3.654		0.643202202	0.804393252	0.013860921	0.143000562	0.044074162
2019-12-31T14:15:00	0.2514	3.659		0.639772804	0.799248612	0.013723273	0.141580482	0.043636480
2019-12-31T14:20:00	0.2512	3.664		0.639311506	0.798557354	0.013704813	0.141390026	0.043577779
2019-12-31T14:25:00	0.2514	3.665		0.639840188	0.799349603	0.013725971	0.141608314	0.043645058
2019-12-31T14:30:00	0.2520	3.666		0.641688228	0.802120820	0.013800065	0.142372731	0.043880658
2019-12-31T14:35:00	0.2520	3.665		0.641886796	0.802418754	0.013808039	0.142454994	0.043906013
2019-12-31T14:40:00	0.2510	3.664		0.638456142	0.797276065	0.013670616	0.141037224	0.043469042
2019-12-31T14:45:00	0.2500	3.665		0.635352601	0.792632339	0.013546912	0.139760992	0.043075695
2019-12-31T14:50:00	0.2521	3.666		0.642152695	0.802817764	0.013818720	0.142565188	0.043939976
2019-12-31T14:55:00	0.2536	3.666		0.646964600	0.810048948	0.014012757	0.144567028	0.044556962
2019-12-31T15:00:00	0.2533	3.666		0.646174851	0.808860787	0.013980814	0.144237481	0.044455392
2019-12-31T15:05:00	0.2551	3.665		0.651968095	0.817588958	0.014216015	0.146664011	0.045203273
2019-12-31T15:10:00	0.2544	3.664		0.649863484	0.814414817	0.014130333	0.145780041	0.044930824
2019-12-31T15:15:00	0.2562	3.663		0.655650808	0.823152261	0.014366596	0.148217524	0.045682080
2019-12-31T15:20:00	0.2562	3.661		0.655520089	0.822954592	0.014361237	0.148162235	0.045665040
2019-12-31T15:25:00	0.2545	3.660		0.650128793	0.814814745	0.014141119	0.145891322	0.044965122
2019-12-31T15:30:00	0.2563	3.658		0.655915693	0.823552857	0.014377459	0.148329593	0.045716621
2019-12-31T15:35:00	0.2561	3.657		0.655456458	0.822858376	0.014358629	0.148135326	0.045656746
2019-12-31T15:40:00	0.2546	3.657		0.650394083	0.815214704	0.014151909	0.146002638	0.044999431
2019-12-31T15:45:00	0.2562	3.656		0.655523550	0.822959824	0.014361379	0.148163699	0.045665491
2019-12-31T15:50:00	0.2558	3.656		0.654407053	0.821272084	0.014315648	0.147691903	0.045520079
2019-12-31T15:55:00	0.2538	3.656		0.647697343	0.811151821	0.014042428	0.144873139	0.044651308
2019-12-31T16:00:00	0.2540	3.655		0.648553978	0.812441748	0.014077157	0.145231435	0.044761739
2019-12-31T16:05:00	0.2529	3.655		0.644703931	0.806649230	0.013921421	0.143624737	0.044266539
2019-12-31T16:10:00	0.2545	3.654		0.650074421	0.814732780	0.014138908	0.145868512	0.044958092
2019-12-31T16:15:00	0.2540	3.652		0.648530938	0.812407045	0.014076222	0.145221792	0.044758767
2019-12-31T16:20:00	0.2544	3.650		0.649620331	0.814048342	0.014120451	0.145678093	0.044899403
2019-12-31T16:25:00	0.2544	3.651		0.649722342	0.814202085	0.014124597	0.145720859	0.044912584
2019-12-31T16:30:00	0.2542	3.649		0.649166184	0.813363994	0.014102004	0.145487779	0.044840746
2019-12-31T16:35:00	0.2565	3.647		0.656501242	0.824438618	0.014401487	0.148577487	0.045793024
2019-12-31T16:40:00	0.2551	3.646		0.652002027	0.817640166	0.014217399	0.146678286	0.045207672
2019-12-31T16:45:00	0.2569	3.645		0.658018341	0.826734900	0.014463839	0.149220761	0.045991288
2019-12-31T16:50:00	0.2586	3.645		0.663369076	0.834849492	0.014684877	0.151501168	0.046694131
2019-12-31T16:55:00	0.2579	3.647		0.661175281	0.831519554	0.014594039	0.150564014	0.046405291
2019-12-31T17:00:00	0.2561	3.647		0.655367931	0.822724521	0.014355000	0.148097892	0.045645209
2019-12-31T17:05:00	0.2552	3.645		0.652511718	0.818409456	0.014238191	0.146892795	0.045273786
2019-12-31T17:10:00	0.2558	3.643		0.654257268	0.821045743	0.014309519	0.147628669	0.045500589
2019-12-31T17:15:00	0.2546	3.639		0.650413311	0.815243695	0.014152691	0.146010708	0.045001918
2019-12-31T17:20:00	0.2537	3.636		0.647553170	0.810934787	0.014036587	0.144812883	0.044632737
2019-12-31T17:25:00	0.2531	3.635		0.645349741	0.807619992	0.013947482	0.143893596	0.044349404
2019-12-31T17:30:00	0.2524	3.633		0.643144962	0.804307301	0.013858617	0.142976799	0.044066838
2019-12-31T17:35:00	0.2526	3.632		0.643906407	0.805450907	0.013889274	0.143293080	0.044164319
2019-12-31T17:40:00	0.2521	3.631		0.642030524	0.802634425	0.013813812	0.142514552	0.043924369
2019-12-31T17:45:00	0.2524	3.629		0.643121886	0.804272651	0.013857689	0.142967220	0.044063886
2019-12-31T17:50:00	0.2529	3.624		0.644871991	0.806901818	0.013928201	0.143694678	0.044288095
2019-12-31T17:55:00	0.2531	3.617		0.645303618	0.807550650	0.013945620	0.143874386	0.044343483
2019-12-31T18:00:00	0.2539	3.613		0.648040446	0.811668394	0.014056332	0.145016590	0.044695521
2019-12-31T18:05:00	0.2543	3.607		0.649459090	0.813805350	0.014113900	0.145610509	0.044878573
2019-12-31T18:10:00	0.2545	3.606		0.650219201	0.814951039	0.014144796	0.145929252	0.044976813
2019-12-31T18:15:00	0.2557	3.602		0.653938469	0.820564070	0.014296478	0.147494129	0.045459123
2019-12-31T18:20:00	0.2562	3.599		0.655683329	0.823201441	0.014367930	0.148231281	0.045686320
2019-12-31T18:25:00	0.2561	3.599		0.655456644	0.822858657	0.014358636	0.148135405	0.045656770
2019-12-31T18:30:00	0.2571	3.597		0.658514059	0.827485645	0.014484243	0.149431268	0.046056168
2019-12-31T18:35:00	0.2567	3.596		0.657302569	0.825651261	0.014434404	0.148917081	0.045897691
2019-12-31T18:40:00	0.2592	3.597		0.665604143	0.838246316	0.014777727	0.152459085	0.046989371
2019-12-31T18:45:00	0.2580	3.599		0.661444256	0.831927607	0.014605161	0.150678752	0.046440655
2019-12-31T18:50:00	0.2555	3.599		0.653336940	0.819655457	0.014271889	0.147240445	0.045380935
2019-12-31T18:55:00	0.2573	3.596		0.659351033	0.828753687	0.014518728	0.149787043	0.046165821
2019-12-31T19:00:00	0.2591	3.595		0.665027487	0.837369512	0.014753742	0.152211636	0.046913104
2019-12-31T19:05:00	0.2593	3.595		0.665784331	0.838520350	0.014785226	0.152536449	0.047013215
2019-12-31T19:10:00	0.2578	3.597		0.660968631	0.831206096	0.014585498	0.150475894	0.046378132
2019-12-31T19:15:00	0.2586	3.598		0.663365808	0.834844529	0.014684741	0.151499770	0.046693700
2019-12-31T19:20:00	0.2582	3.599		0.662155941	0.833007579	0.014634609	0.150982560	0.046534291
2019-12-31T19:25:00	0.2578	3.599		0.660945670	0.831171269	0.014584549	0.150466104	0.046375115
2019-12-31T19:30:00	0.2576	3.599		0.660391237	0.830330463	0.014561646	0.150229822	0.046302290
2019-12-31T19:35:00	0.2582	3.600		0.662132987	0.832972739	0.014633658	0.150972756	0.046531270
2019-12-31T19:40:00	0.2581	3.602		0.661906706	0.832629318	0.014624292	0.150876129	0.046501488
2019-12-31T19:45:00	0.2587	3.605		0.663975509	0.835770718	0.014710039	0.151760764	0.046774141
2019-12-31T19:50:00	0.2587	3.607		0.663749343	0.835427115	0.014700652	0.151663922	0.046744294
2019-12-31T19:55:00	0.2583	3.606		0.662539604	0.833589961	0.014650497	0.151146473	0.046584811
2019-12-31T20:00:00	0.2583	3.608		0.662641251	0.833744278	0.014654707	0.151189915	0.046598200
2019-12-31T20:05:00	0.2572	3.609		0.658806208	0.827928192	0.014496276	0.149555402	0.046094427
2019-12-31T20:10:00	0.2566	3.610		0.656938064	0.825099590	0.014419426	0.148762557	0.045850065
2019-12-31T20:15:00	0.2578	3.611		0.660978477	0.831221030	0.014585905	0.150480092	0.046379426
2019-12-31T20:20:00	0.2579	3.612		0.661080168	0.831375278	0.014590108	0.150523452	0.046392790
2019-12-31T20:25:00	0.2584	3.613		0.662821587	0.834018079	0.014662180	0.151267004	0.046621960
2019-12-31T20:30:00	0.2590	3.616		0.664889868	0.837160306	0.014748021	0.152152614	0.046894913
2019-12-31T20:35:00	0.2595	3.618		0.666629458	0.839806008	0.014820424	0.152899579	0.047125135
2019-12-31T20:40:00	0.2587	3.619		0.663782125	0.835476916	0.014702013	0.151677957	0.046748619
2019-12-31T20:45:00	0.2584	3.620		0.662900277	0.834137561	0.014665441	0.151300649	0.046632329
2019-12-31T20:50:00	0.2586	3.620		0.663657566	0.835287694	0.014696844	0.151624633	0.046732184
2019-12-31T20:55:00	0.2587	3.621		0.663759182	0.835442061	0.014701061	0.151668134	0.046745592
2019-12-31T21:00:00	0.2584	3.621		0.662877327	0.834102714	0.014664490	0.151290836	0.046629305
2019-12-31T21:05:00	0.2572	3.618		0.659042534	0.828286232	0.014506012	0.149655857	0.046125389
2019-12-31T21:10:00	0.2574	3.619		0.659472470	0.828937717	0.014523735	0.149838699	0.046181742
2019-12-31T21:15:00	0.2581	3.619		0.661870638	0.832574583	0.014622800	0.150860730	0.046496742
2019-12-31T21:20:00	0.2577	3.620		0.660660271	0.830738424	0.014572757	0.150344451	0.046337620
2019-12-31T21:25:00	0.2570	3.621		0.658136551	0.826913905	0.014468703	0.149270944	0.046006755
2019-12-31T21:30:00	0.2572	3.621		0.658894837	0.828062461	0.014499927	0.149593071	0.046106037
2019-12-31T21:35:00	0.2585	3.622		0.663260914	0.834685218	0.014680391	0.151454892	0.046679868
2019-12-31T21:40:00	0.2594	3.624		0.665984176	0.838824310	0.014793545	0.152622277	0.047039668
2019-12-31T21:45:00	0.2602	3.623		0.668705394	0.842966650	0.014907069	0.153793480	0.047400644
2019-12-31T21:50:00	0.2605	3.623		0.669788729	0.844617512	0.014952390	0.154261050	0.047544754
2019-12-31T21:55:00	0.2591	3.622		0.665306011	0.837792971	0.014765324	0.152331127	0.046949933
2019-12-31T22:00:00	0.2592	3.622		0.665407580	0.837947411	0.014769549	0.152374714	0.046963367
2019-12-31T22:05:00	0.2594	3.622		0.666297612	0.839301111	0.014806598	0.152756939	0.047081172
2019-12-31T22:10:00	0.2603	3.621		0.669151757	0.843646727	0.014925733	0.153986041	0.047459993
2019-12-31T22:15:00	0.2592	3.623		0.665456898	0.838022404	0.014771601	0.152395881	0.046969891
2019-12-31T22:20:00	0.2582	3.623		0.662086224	0.832901765	0.014631723	0.150952785	0.046525114
2019-12-31T22:25:00	0.2592	3.623		0.665598985	0.838238472	0.014777512	0.152456871	0.046988688
2019-12-31T22:30:00	0.2595	3.622		0.666488969	0.839592246	0.014814570	0.152839183	0.047106521
2019-12-31T22:35:00	0.2601	3.625		0.668360983	0.842442023	0.014892675	0.153644987	0.047354877
2019-12-31T22:40:00	0.2598	3.627		0.667613465	0.841303712	0.014861461	0.153322953	0.047255623
2019-12-31T22:45:00	0.2595	3.627		0.666538273	0.839667262	0.014816624	0.152860377	0.047113053
2019-12-31T22:50:00	0.2593	3.627		0.665790379	0.838529549	0.014785478	0.152539046	0.047014016
2019-12-31T22:55:00	0.2594	3.627		0.666025212	0.838886730	0.014795254	0.152639904	0.047045101
2019-12-31T23:00:00	0.2600	3.627		0.668224863	0.842234706	0.014886989	0.153586319	0.047336795
2019-12-31T23:05:00	0.2600	3.625		0.668132160	0.842093524	0.014883117	0.153546371	0.047324483
2019-12-31T23:10:00	0.2602	3.623		0.668694197	0.842949593	0.014906601	0.153788651	0.047399156
2019-12-31T23:15:00	0.2598	3.623		0.667619325	0.841312633	0.014861706	0.153325476	0.047256401
2019-12-31T23:20:00	0.2594	3.622		0.666216584	0.839177843	0.014803223	0.152722121	0.047070441
2019-12-31T23:25:00	0.2583	3.621		0.662518732	0.833558275	0.014649632	0.151137553	0.046582062
2019-12-31T23:30:00	0.2584	3.619		0.662753776	0.833915120	0.014659370	0.151238015	0.046613025
2019-12-31T23:35:00	0.2583	3.615		0.662660934	0.833774161	0.014655523	0.151198328	0.046600793
2019-12-31T23:40:00	0.2582	3.614		0.662240180	0.833135438	0.014638096	0.151018541	0.046545381
2019-12-31T23:45:00	0.2584	3.613		0.662803131	0.833990055	0.014661415	0.151259114	0.046619528
2019-12-31T23:50:00	0.2588	3.611		0.664021580	0.835840716	0.014711952	0.151780495	0.046780223
2019-12-31T23:55:00	0.2589	3.610		0.664584254	0.836695772	0.014735320	0.152021583	0.046854528
2020-01-01T00:00:00	0.2582	3.609		0.662196686	0.833069422	0.014636296	0.150999963	0.046539655
2020-01-01T00:05:00	0.2578	3.610		0.660791845	0.830937964	0.014578193	0.150400529	0.046354904
2020-01-01T00:10:00	0.2572	3.611		0.659058259	0.828310057	0.014506660	0.149662542	0.046127449
2020-01-01T00:15:00	0.2565	3.611		0.656667042	0.824689477	0.014408294	0.148647718	0.045814670
2020-01-01T00:20:00	0.2575	3.612		0.659856938	0.829520438	0.014539593	0.150002303	0.046232167
2020-01-01T00:25:00	0.2578	3.613		0.660748334	0.830871976	0.014576395	0.150381983	0.046349188
2020-01-01T00:30:00	0.2568	3.610		0.657701622	0.826255351	0.014450810	0.149086347	0.045949860
2020-01-01T00:35:00	0.2565	3.611		0.656623482	0.824623567	0.014406506	0.148629264	0.045808983
2020-01-01T00:40:00	0.2546	3.609		0.650284675	0.815049750	0.014147459	0.145956725	0.044985280
2020-01-01T00:45:00	0.2542	3.609		0.649204317	0.813421450	0.014103553	0.145503754	0.044845670
2020-01-01T00:50:00	0.2543	3.608		0.649440230	0.813776929	0.014113134	0.145602604	0.044876137
2020-01-01T00:55:00	0.2542	3.605		0.649017932	0.813140634	0.014095985	0.145425681	0.044821607
2020-01-01T01:00:00	0.2540	3.602		0.648266405	0.812008649	0.014065493	0.145111103	0.044724651
2020-01-01T01:05:00	0.2556	3.599		0.653765321	0.820302498	0.014289398	0.147421084	0.045436610
2020-01-01T01:10:00	0.2551	3.596		0.652028361	0.817679906	0.014218473	0.146689365	0.045211087
2020-01-01T01:15:00	0.2546	3.594		0.650290563	0.815058627	0.014147698	0.145959196	0.044986042
2020-01-01T01:20:00	0.2551	3.584		0.652170976	0.817895140	0.014224289	0.146749372	0.045229582
2020-01-01T01:25:00	0.2549	3.574		0.651420106	0.816762126	0.014193680	0.146433579	0.045132251
2020-01-01T01:30:00	0.2545	3.568		0.650011067	0.814637277	0.014136333	0.145841937	0.044949901
2020-01-01T01:35:00	0.2549	3.558		0.651233835	0.816481131	0.014186092	0.146355294	0.045108123
2020-01-01T01:40:00	0.2550	3.545		0.651798503	0.817333043	0.014209101	0.146592677	0.045181287
2020-01-01T01:45:00	0.2540	3.535		0.648415060	0.812232522	0.014071522	0.145173300	0.044743821
2020-01-01T01:50:00	0.2528	3.520		0.644369392	0.806146502	0.013907932	0.143485568	0.044223646
2020-01-01T01:55:00	0.2531	3.507		0.645594078	0.807987363	0.013957348	0.143995385	0.044380776
2020-01-01T02:00:00	0.2532	3.494		0.645830227	0.808342472	0.013966887	0.144093798	0.044411108
2020-01-01T02:05:00	0.2534	3.482		0.646395742	0.809193059	0.013989744	0.144329615	0.044483789
2020-01-01T02:10:00	0.2543	3.470		0.649265636	0.813513842	0.014106043	0.145529444	0.044853588
2020-01-01T02:15:00	0.2543	3.463		0.649501544	0.813869327	0.014115625	0.145628302	0.044884057
2020-01-01T02:20:00	0.2532	3.456		0.645786535	0.808276767	0.013965122	0.144075587	0.044405495
2020-01-01T02:25:00	0.2537	3.450		0.647340034	0.810613968	0.014027955	0.144723827	0.044605289
2020-01-01T02:30:00	0.2547	3.445		0.650867153	0.815928064	0.014171160	0.146201250	0.045060645
2020-01-01T02:35:00	0.2537	3.440		0.647482835	0.810828912	0.014033738	0.144783491	0.044623678
2020-01-01T02:40:00	0.2530	3.435		0.645083930	0.807220390	0.013936752	0.143782904	0.044315287
2020-01-01T02:45:00	0.2527	3.432		0.644002010	0.805594528	0.013893126	0.143332816	0.044176566
2020-01-01T02:50:00	0.2541	3.428		0.648849208	0.812886452	0.014089137	0.145355025	0.044799830
2020-01-01T02:55:00	0.2537	3.427		0.647439163	0.810763176	0.014031970	0.144765243	0.044618054
2020-01-01T03:00:00	0.2537	3.424		0.647345927	0.810622837	0.014028194	0.144726289	0.044606048
2020-01-01T03:05:00	0.2538	3.422		0.647911204	0.811473796	0.014051094	0.144962545	0.044678864
2020-01-01T03:10:00	0.2527	3.421		0.644194552	0.805883800	0.013900884	0.143412862	0.044201237
2020-01-01T03:15:00	0.2518	3.420		0.641133815	0.801289149	0.013777815	0.142143181	0.043809909
2020-01-01T03:20:00	0.2523	3.421		0.642689325	0.803623219	0.013840290	0.142787716	0.044008561
2020-01-01T03:25:00	0.2524	3.422		0.643255334	0.804473037	0.013863059	0.143022622	0.044080961
2020-01-01T03:30:00	0.2536	3.418		0.647115770	0.810276442	0.014018875	0.144630153	0.044576418
2020-01-01T03:35:00	0.2523	3.414		0.642738954	0.803697722	0.013842285	0.142808305	0.044014906
2020-01-01T03:40:00	0.2524	3.413		0.643304955	0.804547552	0.013865056	0.143043225	0.044087311
2020-01-01T03:45:00	0.2528	3.412		0.644530003	0.806387848	0.013914407	0.143552374	0.044244236
2020-01-01T03:50:00	0.2543	3.409		0.649376491	0.813680881	0.014110545	0.145575894	0.044867904
2020-01-01T03:55:00	0.2528	3.406		0.644343376	0.806107410	0.013906883	0.143474748	0.044220311
2020-01-01T04:00:00	0.2531	3.405		0.645568070	0.807948257	0.013956297	0.143984548	0.044377436
2020-01-01T04:05:00	0.2536	3.398		0.647025471	0.810140551	0.014015220	0.144592445	0.044564796
2020-01-01T04:10:00	0.2538	3.394		0.647823871	0.811342309	0.014047555	0.144926031	0.044667610
2020-01-01T04:15:00	0.2525	3.392		0.643351626	0.804617639	0.013866934	0.143062605	0.044093284
2020-01-01T04:20:00	0.2525	3.393		0.643491636	0.804827906	0.013872570	0.143120752	0.044111206
2020-01-01T04:25:00	0.2522	3.390		0.642642645	0.803553145	0.013838413	0.142768352	0.044002592
2020-01-01T04:30:00	0.2534	3.387		0.646407530	0.809210793	0.013990221	0.144334532	0.044485305
2020-01-01T04:35:00	0.2530	3.385		0.645229768	0.807439626	0.013942638	0.143843630	0.044334004
2020-01-01T04:40:00	0.2536	3.380		0.647016632	0.810127248	0.014014863	0.144588754	0.044563658
2020-01-01T04:45:00	0.2537	3.377		0.647485781	0.810833346	0.014033858	0.144784722	0.044624058
2020-01-01T04:50:00	0.2538	3.376		0.647625630	0.811043864	0.014039522	0.144843165	0.044642070
2020-01-01T04:55:00	0.2542	3.372		0.649082199	0.813237458	0.014098594	0.145452599	0.044829904
2020-01-01T05:00:00	0.2539	3.366		0.648234526	0.811960641	0.014064201	0.145097767	0.044720541
2020-01-01T05:05:00	0.2535	3.359		0.646728040	0.809692993	0.014003185	0.144468275	0.044526525
2020-01-01T05:10:00	0.2550	3.354		0.651804388	0.817341924	0.014209341	0.146595152	0.045182050
2020-01-01T05:15:00	0.2539	3.347		0.647995589	0.811600851	0.014054514	0.144997831	0.044689740
2020-01-01T05:20:00	0.2541	3.339		0.648793773	0.812802944	0.014086887	0.145331814	0.044792677
2020-01-01T05:25:00	0.2547	3.331		0.650578869	0.815493327	0.014159427	0.146080202	0.045023337
2020-01-01T05:30:00	0.2539	3.322		0.648085863	0.811736780	0.014058173	0.145035584	0.044701376
2020-01-01T05:35:00	0.2547	3.312		0.650858322	0.815914746	0.014170801	0.146197541	0.045059502
2020-01-01T05:40:00	0.2557	3.302		0.653957343	0.820592584	0.014297250	0.147502092	0.045461577
2020-01-01T05:45:00	0.2551	3.293		0.652124419	0.817824875	0.014222391	0.146729781	0.045223544
2020-01-01T05:50:00	0.2569	3.285		0.657849889	0.826479833	0.014456909	0.149149262	0.045969251
2020-01-01T05:55:00	0.2572	3.280		0.658974133	0.828182597	0.014503194	0.149626778	0.046116426
2020-01-01T06:00:00	0.2565	3.273		0.656486920	0.824416950	0.014400899	0.148571421	0.045791155
2020-01-01T06:05:00	0.2575	3.263		0.659909267	0.829599762	0.014541752	0.150024579	0.046239032
2020-01-01T06:10:00	0.2586	3.257		0.663656192	0.835285607	0.014696787	0.151624045	0.046732003
2020-01-01T06:15:00	0.2580	3.252		0.661500203	0.832012491	0.014607475	0.150702624	0.046448012
2020-01-01T06:20:00	0.2579	3.247		0.661311517	0.831726226	0.014599672	0.150622123	0.046423201
2020-01-01T06:25:00	0.2577	3.242		0.660466710	0.830444903	0.014564763	0.150261974	0.046312200
2020-01-01T06:30:00	0.2580	3.236		0.661590141	0.832148950	0.014611195	0.150741002	0.046459841
2020-01-01T06:35:00	0.2575	3.229		0.659761085	0.829375146	0.014535639	0.149961506	0.046219593
2020-01-01T06:40:00	0.2572	3.222		0.658915916	0.828094396	0.014500795	0.149602031	0.046108799
2020-01-01T06:45:00	0.2563	3.215		0.656100196	0.823831924	0.014385028	0.148407679	0.045740688
2020-01-01T06:50:00	0.2565	3.207		0.656568166	0.824539872	0.014404235	0.148605833	0.045801761
2020-01-01T06:55:00	0.2569	3.200		0.658021130	0.826739123	0.014463954	0.149221945	0.045991653
2020-01-01T07:00:00	0.2578	3.194		0.660785974	0.830929060	0.014577950	0.150398026	0.046354132
2020-01-01T07:05:00	0.2578	3.186		0.660925309	0.831140386	0.014583708	0.150457423	0.046372439
2020-01-01T07:10:00	0.2587	3.179		0.664015714	0.835831804	0.014711708	0.151777983	0.046779448
2020-01-01T07:15:00	0.2592	3.174		0.665465693	0.838035777	0.014771967	0.152399656	0.046971054
2020-01-01T07:20:00	0.2583	3.169		0.662655066	0.833765252	0.014655280	0.151195820	0.046600020
2020-01-01T07:25:00	0.2591	3.165		0.665088723	0.837462608	0.014756288	0.152237903	0.046921200
2020-01-01T07:30:00	0.2601	3.160		0.668502956	0.842658272	0.014898608	0.153706189	0.047373740
2020-01-01T07:35:00	0.2614	3.157		0.672568024	0.848857406	0.015068992	0.155464010	0.047915518
2020-01-01T07:40:00	0.2615	3.156		0.673033872	0.849568720	0.015088582	0.155666122	0.047977811
2020-01-01T07:45:00	0.2616	3.156		0.673499661	0.850280130	0.015108184	0.155868347	0.048040138
2020-01-01T07:50:00	0.2615	3.155		0.672984657	0.849493564	0.015086512	0.155644763	0.047971228
2020-01-01T07:55:00	0.2608	3.153		0.670834206	0.846211638	0.014996196	0.154712987	0.047684045
2020-01-01T08:00:00	0.2606	3.153		0.669991615	0.844926795	0.014960886	0.154348699	0.047571768
2020-01-01T08:05:00	0.2609	3.146		0.671112099	0.846635523	0.015007851	0.154833231	0.047721106
2020-01-01T08:10:00	0.2611	3.149		0.671578134	0.847346540	0.015027408	0.155034994	0.047783291
2020-01-01T08:15:00	0.2616	3.152		0.673352033	0.850054634	0.015101970	0.155804239	0.048020379
2020-01-01T08:20:00	0.2614	3.154		0.672837008	0.849268101	0.015080302	0.155580694	0.047951481
2020-01-01T08:25:00	0.2617	3.159		0.673629734	0.850478827	0.015113660	0.155924844	0.048057551
2020-01-01T08:30:00	0.2616	3.167		0.673441677	0.850191560	0.015105743	0.155843166	0.048032377
2020-01-01T08:35:00	0.2615	3.170		0.672926665	0.849405006	0.015084073	0.155619597	0.047963471
2020-01-01T08:40:00	0.2613	3.173		0.672411580	0.848618569	0.015062416	0.155396166	0.047894607
2020-01-01T08:45:00	0.2606	3.180		0.669933575	0.844838314	0.014958455	0.154323622	0.047564039
2020-01-01T08:50:00	0.2596	3.181		0.666798912	0.840063866	0.014827486	0.152972444	0.047147593
2020-01-01T08:55:00	0.2593	3.180		0.665955383	0.838780516	0.014792346	0.152609910	0.047035856
2020-01-01T09:00:00	0.2603	3.180		0.669041506	0.843478733	0.014921122	0.153938467	0.047445330
2020-01-01T09:05:00	0.2618	3.181		0.674086672	0.851176952	0.015132906	0.156123398	0.048118747
2020-01-01T09:10:00	0.2625	3.184		0.676186030	0.854386727	0.015221493	0.157037341	0.048400434
2020-01-01T09:15:00	0.2621	3.185		0.675017920	0.852600299	0.015172168	0.156528465	0.048243593
2020-01-01T09:20:00	0.2619	3.185		0.674176298	0.851313907	0.015136682	0.156162359	0.048130756
2020-01-01T09:25:00	0.2616	3.190		0.673334481	0.850027826	0.015101231	0.155796618	0.048018031
2020-01-01T09:30:00	0.2609	3.195		0.671184237	0.846745569	0.015010877	0.154864453	0.047730729
2020-01-01T09:35:00	0.2613	3.202		0.672304354	0.848454885	0.015057909	0.155349675	0.047880279
2020-01-01T09:40:00	0.2611	3.203		0.671789181	0.847668589	0.015036268	0.155126409	0.047811466
2020-01-01T09:45:00	0.2615	3.192		0.672909111	0.849378202	0.015083334	0.155611980	0.047961124
2020-01-01T09:50:00	0.2604	3.175		0.669449758	0.844100856	0.014938201	0.154114669	0.047499638
2020-01-01T09:55:00	0.2597	3.161		0.666969731	0.840323825	0.014834608	0.153045914	0.047170237
2020-01-01T10:00:00	0.2596	3.152		0.666781329	0.840037109	0.014826753	0.152964882	0.047145262
2020-01-01T10:05:00	0.2597	3.147		0.667242060	0.840738318	0.014845965	0.153163082	0.047206349
2020-01-01T10:10:00	0.2611	3.144		0.671629776	0.847425340	0.015029576	0.155057360	0.047790184
2020-01-01T10:15:00	0.2623	3.140		0.675685505	0.853621114	0.015200348	0.156819186	0.048333196
2020-01-01T10:20:00	0.2632	3.139		0.678431089	0.857823467	0.015316530	0.158017819	0.048702626
2020-01-01T10:25:00	0.2630	3.138		0.677910939	0.857026834	0.015294484	0.157790370	0.048632524
2020-01-01T10:30:00	0.2631	3.137		0.678370262	0.857730295	0.015313951	0.157991212	0.048694426
2020-01-01T10:35:00	0.2633	3.135		0.678829527	0.858433850	0.015333429	0.158192162	0.048756361
2020-01-01T10:40:00	0.2626	3.135		0.676676683	0.855137448	0.015242237	0.157251349	0.048466393
2020-01-01T10:45:00	0.2635	3.134		0.679421520	0.859341000	0.015358556	0.158451387	0.048836256
2020-01-01T10:50:00	0.2638	3.132		0.680533267	0.861045420	0.015405801	0.158938806	0.048986484
2020-01-01T10:55:00	0.2646	3.129		0.683275203	0.865253642	0.015522649	0.160144313	0.049358033
2020-01-01T11:00:00	0.2637	3.128		0.680146177	0.860451851	0.015389342	0.158769006	0.048934150
2020-01-01T11:05:00	0.2647	3.131		0.683540481	0.865661124	0.015533979	0.160261198	0.049394058
2020-01-01T11:10:00	0.2644	3.132		0.682368890	0.863861948	0.015483975	0.159745317	0.049235058
2020-01-01T11:15:00	0.2624	3.131		0.675973684	0.854061892	0.015212521	0.156944770	0.048371902
2020-01-01T11:20:00	0.2619	3.133		0.674472852	0.851767110	0.015149181	0.156291309	0.048170499
2020-01-01T11:25:00	0.2628	3.133		0.677219350	0.855967996	0.015265197	0.157488221	0.048539399
2020-01-01T11:30:00	0.2613	3.135		0.672450469	0.848677938	0.015064050	0.155413029	0.047899805
2020-01-01T11:35:00	0.2605	3.138		0.669639393	0.844389883	0.014946138	0.154196552	0.047524875
2020-01-01T11:40:00	0.2603	3.141		0.669117985	0.843595266	0.014924321	0.153971467	0.047455502
2020-01-01T11:45:00	0.2600	3.140		0.668269137	0.842302135	0.014888838	0.153605400	0.047342676
2020-01-01T11:50:00	0.2617	3.141		0.673636435	0.850489064	0.015113942	0.155927755	0.048058448
2020-01-01T11:55:00	0.2606	3.139		0.670171919	0.845201685	0.014968438	0.154426615	0.047595782
2020-01-01T12:00:00	0.2593	3.140		0.665721400	0.838424640	0.014782607	0.152509427	0.047004887
2020-01-01T12:05:00	0.2591	3.141		0.665199428	0.837630919	0.014760891	0.152285396	0.046935838
2020-01-01T12:10:00	0.2597	3.143		0.666970584	0.840325123	0.014834643	0.153046281	0.047170350
2020-01-01T12:15:00	0.2594	3.147		0.666121233	0.839032792	0.014799252	0.152681153	0.047057814
2020-01-01T12:20:00	0.2593	3.154		0.665926925	0.838737229	0.014791161	0.152597686	0.047032089
2020-01-01T12:25:00	0.2588	3.163		0.664094193	0.835951045	0.014714966	0.151811596	0.046789808
2020-01-01T12:30:00	0.2584	3.170		0.662916319	0.834161920	0.014666106	0.151307508	0.046634444
2020-01-01T12:35:00	0.2574	3.179		0.659441544	0.828890850	0.014522460	0.149825543	0.046177687
2020-01-01T12:40:00	0.2572	3.186		0.658918667	0.828098563	0.014500909	0.149603200	0.046109159
2020-01-01T12:45:00	0.2569	3.191		0.658067425	0.826809227	0.014465859	0.149241597	0.045997710
2020-01-01T12:50:00	0.2568	3.192		0.657544349	0.826017254	0.014444343	0.149019624	0.045929295
2020-01-01T12:55:00	0.2566	3.189		0.657021197	0.825225400	0.014422841	0.148797792	0.045860925
2020-01-01T13:00:00	0.2562	3.185		0.655512498	0.822943113	0.014360926	0.148159025	0.045664050
2020-01-01T13:05:00	0.2559	3.177		0.654660454	0.821655041	0.014326021	0.147798913	0.045553060
2020-01-01T13:10:00	0.2556	3.169		0.653808209	0.820367285	0.014291151	0.147439175	0.045442186
2020-01-01T13:15:00	0.2553	3.159		0.652626979	0.818583454	0.014242895	0.146941327	0.045288744
2020-01-01T13:20:00	0.2556	3.150		0.653746967	0.820274772	0.014288647	0.147413342	0.045434224
2020-01-01T13:25:00	0.2561	3.139		0.655195187	0.822463347	0.014347922	0.148024862	0.045622700
2020-01-01T13:30:00	0.2557	3.128		0.654014411	0.820678804	0.014299584	0.147526172	0.045468999
2020-01-01T13:35:00	0.2547	3.118		0.650860036	0.815917331	0.014170871	0.146198261	0.045059724
2020-01-01T13:40:00	0.2545	3.105		0.650006893	0.814630985	0.014136163	0.145840187	0.044949362
2020-01-01T13:45:00	0.2548	3.093		0.651127694	0.816321027	0.014181769	0.146310695	0.045094377
2020-01-01T13:50:00	0.2538	3.079		0.647641554	0.811067836	0.014040168	0.144849821	0.044644121
2020-01-01T13:55:00	0.2545	3.066		0.650079452	0.814740364	0.014139113	0.145870623	0.044958743
2020-01-01T14:00:00	0.2546	3.053		0.650542315	0.815438208	0.014157940	0.146064857	0.045018607
2020-01-01T14:05:00	0.2550	3.039		0.651662951	0.817128511	0.014203576	0.146535673	0.045163718
2020-01-01T14:10:00	0.2551	3.025		0.652125611	0.817826674	0.014222439	0.146730283	0.045223698
2020-01-01T14:15:00	0.2561	3.010		0.655217664	0.822497330	0.014348843	0.148034363	0.045625628
2020-01-01T14:20:00	0.2559	2.995		0.654694175	0.821706007	0.014327401	0.147813157	0.045557450
2020-01-01T14:25:00	0.2565	2.979		0.656470477	0.824392073	0.014400224	0.148564457	0.045789008
2020-01-01T14:30:00	0.2560	2.962		0.654961549	0.822110148	0.014338350	0.147926117	0.045592266
2020-01-01T14:35:00	0.2560	2.945		0.655095228	0.822312231	0.014343826	0.147982611	0.045609678
2020-01-01T14:40:00	0.2571	2.925		0.658513018	0.827484069	0.014484200	0.149430826	0.046056032
2020-01-01T14:45:00	0.2570	2.908		0.658318301	0.827189152	0.014476184	0.149348121	0.046030541
2020-01-01T14:50:00	0.2572	2.890		0.658780110	0.827888655	0.014495200	0.149544311	0.046091009
2020-01-01T14:55:00	0.2580	2.872		0.661538504	0.832070602	0.014609059	0.150718967	0.046453049
2020-01-01T15:00:00	0.2573	2.853		0.659375380	0.828790582	0.014519732	0.149797399	0.046169013
2020-01-01T15:05:00	0.2568	2.832		0.657539328	0.826009653	0.014444137	0.149017495	0.045928639
2020-01-01T15:10:00	0.2571	2.813		0.658657794	0.827703366	0.014490162	0.149492334	0.046074989
2020-01-01T15:15:00	0.2574	2.791		0.659447752	0.828900257	0.014522716	0.149828184	0.046178501
2020-01-01T15:20:00	0.2577	2.768		0.660565628	0.830594901	0.014568848	0.150304121	0.046325190
2020-01-01T15:25:00	0.2587	2.747		0.663978256	0.835774892	0.014710153	0.151761940	0.046774504
2020-01-01T15:30:00	0.2586	2.727		0.663456034	0.834981569	0.014688484	0.151538378	0.046705600
2020-01-01T15:35:00	0.2593	2.705		0.665883290	0.838670861	0.014789345	0.152578946	0.047026313
2020-01-01T15:40:00	0.2597	2.681		0.666999183	0.840368649	0.014835836	0.153058583	0.047174142
2020-01-01T15:45:00	0.2609	2.660		0.671060079	0.846556169	0.015005669	0.154810719	0.047714167
2020-01-01T15:50:00	0.2619	2.638		0.674462857	0.851751834	0.015148760	0.156286962	0.048169159
2020-01-01T15:55:00	0.2624	2.616		0.675902826	0.853953506	0.015209527	0.156913886	0.048362384
2020-01-01T16:00:00	0.2618	2.593		0.674075122	0.851159302	0.015132419	0.156118377	0.048117200
2020-01-01T16:05:00	0.2629	2.574		0.677613778	0.856571823	0.015281896	0.157660506	0.048592499
2020-01-01T16:10:00	0.2622	2.554		0.675272253	0.852989158	0.015182901	0.156639189	0.048277719
2020-01-01T16:15:00	0.2616	2.531		0.673256165	0.849908210	0.015097935	0.155762615	0.048007551
2020-01-01T16:20:00	0.2622	2.511		0.675162187	0.852820867	0.015178256	0.156591267	0.048262949
2020-01-01T16:25:00	0.2615	2.492		0.673146039	0.849740018	0.015093301	0.155714808	0.047992816
2020-01-01T16:30:00	0.2619	2.473		0.674398521	0.851653508	0.015146048	0.156258982	0.048160536
2020-01-01T16:35:00	0.2621	2.452		0.674997083	0.852568442	0.015171289	0.156519396	0.048240798
2020-01-01T16:40:00	0.2625	2.434		0.676248928	0.854482953	0.015224152	0.157064767	0.048408887
2020-01-01T16:45:00	0.2616	2.415		0.673252722	0.849902951	0.015097790	0.155761120	0.048007090
2020-01-01T16:50:00	0.2618	2.395		0.673851472	0.850817583	0.015122998	0.156021179	0.048087243
2020-01-01T16:55:00	0.2614	2.375		0.672815640	0.849235472	0.015079403	0.155571423	0.047948623
2020-01-01T17:00:00	0.2614	2.354		0.672760570	0.849151386	0.015077087	0.155547531	0.047941260
2020-01-01T17:05:00	0.2616	2.334		0.673359401	0.850065889	0.015102280	0.155807438	0.048021366
2020-01-01T17:10:00	0.2610	2.313		0.671342253	0.846986639	0.015017507	0.154932856	0.047751811
2020-01-01T17:15:00	0.2615	2.292		0.672922332	0.849398390	0.015083890	0.155617717	0.047962892
2020-01-01T17:20:00	0.2619	2.273		0.674174891	0.851311757	0.015136623	0.156161747	0.048130567
2020-01-01T17:25:00	0.2624	2.252		0.676080432	0.854225184	0.015217031	0.156991303	0.048386244
2020-01-01T17:30:00	0.2626	2.234		0.676678717	0.855140562	0.015242323	0.157252236	0.048466666
2020-01-01T17:35:00	0.2628	2.215		0.677276904	0.856056097	0.015267633	0.157513354	0.048547146
2020-01-01T17:40:00	0.2624	2.196		0.675915369	0.853972692	0.015210057	0.156919353	0.048364069
2020-01-01T17:45:00	0.2624	2.176		0.675860347	0.853888531	0.015207733	0.156895373	0.048356678
2020-01-01T17:50:00	0.2620	2.153		0.674498282	0.851805977	0.015150253	0.156302369	0.048173908
2020-01-01T17:55:00	0.2619	2.130		0.674443238	0.851721850	0.015147933	0.156278429	0.048166530
2020-01-01T18:00:00	0.2621	2.107		0.675041792	0.852636796	0.015173176	0.156538856	0.048246796
2020-01-01T18:05:00	0.2625	2.082		0.676293623	0.854551331	0.015226041	0.157084257	0.048414894
2020-01-01T18:10:00	0.2628	2.060		0.677218462	0.855966637	0.015265159	0.157487834	0.048539280
2020-01-01T18:15:00	0.2627	2.041		0.676836865	0.855382579	0.015249012	0.157321248	0.048487937
2020-01-01T18:20:00	0.2634	2.023		0.679067437	0.858798379	0.015343524	0.158296313	0.048788461
2020-01-01T18:25:00	0.2632	2.003		0.678686033	0.858214011	0.015327342	0.158129363	0.048737005
2020-01-01T18:30:00	0.2635	1.984		0.679610266	0.859630292	0.015366571	0.158534082	0.048861744
2020-01-01T18:35:00	0.2631	1.967		0.678249603	0.857545487	0.015308836	0.157938440	0.048678161
2020-01-01T18:40:00	0.2630	1.949		0.677868114	0.856961256	0.015292669	0.157771651	0.048626755
2020-01-01T18:45:00	0.2623	1.932		0.675526752	0.853378328	0.015193644	0.156750027	0.048311881
2020-01-01T18:50:00	0.2623	1.913		0.675471724	0.853294176	0.015191321	0.156726058	0.048304493
2020-01-01T18:55:00	0.2618	1.894		0.674109514	0.851211855	0.015133868	0.156133327	0.048121808
2020-01-01T19:00:00	0.2619	1.875		0.674381308	0.851627201	0.015145322	0.156251497	0.048158229
2020-01-01T19:05:00	0.2610	1.857		0.671383562	0.847049664	0.015019241	0.154950740	0.047757323
2020-01-01T19:10:00	0.2614	1.840		0.672636652	0.848962183	0.015071877	0.155493776	0.047924692
2020-01-01T19:15:00	0.2618	1.822		0.673889309	0.850875393	0.015124591	0.156037621	0.048092310
2020-01-01T19:20:00	0.2610	1.804		0.671545385	0.847296569	0.015026033	0.155020812	0.047778920
2020-01-01T19:25:00	0.2606	1.786		0.670181703	0.845216602	0.014968848	0.154430843	0.047597086
2020-01-01T19:30:00	0.2608	1.766		0.670780959	0.846130426	0.014993963	0.154689953	0.047676946
2020-01-01T19:35:00	0.2608	1.747		0.670725859	0.846046389	0.014991653	0.154666119	0.047669600
2020-01-01T19:40:00	0.2603	1.725		0.669034573	0.843468170	0.014920832	0.153935476	0.047444409
2020-01-01T19:45:00	0.2596	1.703		0.666687514	0.839894349	0.014822843	0.152924541	0.047132829
2020-01-01T19:50:00	0.2595	1.684		0.666632351	0.839810411	0.014820544	0.152900823	0.047125519
2020-01-01T19:55:00	0.2590	1.666		0.664939156	0.837235231	0.014750070	0.152173751	0.046901428
2020-01-01T20:00:00	0.2596	1.650		0.666849546	0.840140921	0.014829597	0.152994220	0.047154304
2020-01-01T20:05:00	0.2598	1.633		0.667449353	0.841053868	0.014854613	0.153252300	0.047233847
2020-01-01T20:10:00	0.2592	1.617		0.665428918	0.837979857	0.014770437	0.152383872	0.046966189
2020-01-01T20:15:00	0.2598	1.604		0.667339050	0.840885956	0.014850011	0.153204823	0.047219214
2020-01-01T20:20:00	0.2595	1.592		0.666628901	0.839805161	0.014820400	0.152899340	0.047125061
2020-01-01T20:25:00	0.2595	1.577		0.666573738	0.839721225	0.014818102	0.152875624	0.047117752
2020-01-01T20:30:00	0.2590	1.560		0.664880516	0.837146088	0.014747632	0.152148603	0.046893677
2020-01-01T20:35:00	0.2596	1.547		0.666790936	0.840051729	0.014827154	0.152969014	0.047146536
2020-01-01T20:40:00	0.2594	1.533		0.666080680	0.838971105	0.014797563	0.152663732	0.047052445
2020-01-01T20:45:00	0.2599	1.519		0.667663050	0.841379204	0.014863530	0.153344303	0.047262204
2020-01-01T20:50:00	0.2595	1.503		0.666625451	0.839799912	0.014820257	0.152897857	0.047124604
2020-01-01T20:55:00	0.2594	1.486		0.666242740	0.839217634	0.014804312	0.152733360	0.047073905
2020-01-01T21:00:00	0.2587	1.469		0.663893873	0.835646686	0.014706651	0.151725804	0.046763366
2020-01-01T21:05:00	0.2583	1.455		0.662527311	0.833571299	0.014649987	0.151141220	0.046583192
2020-01-01T21:10:00	0.2575	1.439		0.659847906	0.829506748	0.014539221	0.149998459	0.046230982
2020-01-01T21:15:00	0.2571	1.426		0.658479816	0.827433779	0.014482833	0.149416722	0.046051685
2020-01-01T21:20:00	0.2569	1.413		0.658096243	0.826852866	0.014467045	0.149253832	0.046001480
2020-01-01T21:25:00	0.2575	1.398		0.660010245	0.829752835	0.014545919	0.150067567	0.046252282
2020-01-01T21:30:00	0.2570	1.386		0.658313951	0.827182564	0.014476005	0.149346273	0.046029972
2020-01-01T21:35:00	0.2571	1.374		0.658586931	0.827596025	0.014487244	0.149462226	0.046065710
2020-01-01T21:40:00	0.2569	1.364		0.657875064	0.826517952	0.014457944	0.149159947	0.045972544
2020-01-01T21:45:00	0.2571	1.355		0.658476358	0.827428542	0.014482691	0.149415253	0.046051232
2020-01-01T21:50:00	0.2568	1.347		0.657764470	0.826350503	0.014453395	0.149113014	0.045958079
2020-01-01T21:55:00	0.2564	1.338		0.656395591	0.824278777	0.014397150	0.148532743	0.045779234
2020-01-01T22:00:00	0.2567	1.327		0.657325516	0.825685996	0.014435347	0.148926812	0.045900690
2020-01-01T22:05:00	0.2567	1.318		0.657180166	0.825465995	0.014429373	0.148865181	0.045881695
2020-01-01T22:10:00	0.2565	1.309		0.656706399	0.824749028	0.014409911	0.148664391	0.045819809
2020-01-01T22:15:00	0.2569	1.297		0.657874544	0.826517163	0.014457923	0.149159726	0.045972476
2020-01-01T22:20:00	0.2571	1.283		0.658714082	0.827788632	0.014492481	0.149516252	0.046082361
2020-01-01T22:25:00	0.2575	1.270		0.659881579	0.829557790	0.014540610	0.150012792	0.046235399
2020-01-01T22:30:00	0.2570	1.259		0.658423488	0.827348463	0.014480514	0.149392795	0.046044310
2020-01-01T22:35:00	0.2567	1.247		0.657293196	0.825637075	0.014434018	0.148913106	0.045896466
2020-01-01T22:40:00	0.2572	1.235		0.658789404	0.827902735	0.014495583	0.149548261	0.046092226
2020-01-01T22:45:00	0.2576	1.228		0.660284993	0.830169372	0.014557260	0.150184566	0.046288342
2020-01-01T22:50:00	0.2577	1.222		0.660467862	0.830446649	0.014564811	0.150262465	0.046312351
2020-01-01T22:55:00	0.2575	1.219		0.659994525	0.829729003	0.014545270	0.150060874	0.046250219
2020-01-01T23:00:00	0.2582	1.216		0.662145541	0.832991794	0.014634178	0.150978118	0.046532922
2020-01-01T23:05:00	0.2588	1.212		0.664295281	0.836256606	0.014723317	0.151897742	0.046816359
2020-01-01T23:10:00	0.2586	1.209		0.663494648	0.835040221	0.014690085	0.151554902	0.046710693
2020-01-01T23:15:00	0.2588	1.204		0.664332884	0.836313749	0.014724878	0.151913854	0.046821325
2020-01-01T23:20:00	0.2586	1.195		0.663532259	0.835097351	0.014691646	0.151570999	0.046715654
2020-01-01T23:25:00	0.2583	1.185		0.662403563	0.833383442	0.014644862	0.151088341	0.046566894
2020-01-01T23:30:00	0.2583	1.175		0.662586324	0.833660889	0.014652432	0.151166440	0.046590965
2020-01-01T23:35:00	0.2582	1.170		0.662113264	0.832942805	0.014632842	0.150964333	0.046528674
2020-01-01T23:40:00	0.2589	1.165		0.664590750	0.836705644	0.014735590	0.152024368	0.046855387
2020-01-01T23:45:00	0.2591	1.159		0.665101082	0.837481397	0.014756802	0.152243205	0.046922834
2020-01-01T23:50:00	0.2583	1.151		0.662661565	0.833775119	0.014655549	0.151198598	0.046600876
2020-01-01T23:55:00	0.2579	1.143		0.661204594	0.831564021	0.014595251	0.150576516	0.046409145
2020-01-02T00:00:00	0.2572	1.136		0.659090675	0.828359172	0.014507996	0.149676324	0.046131697
2020-01-02T00:05:00	0.2576	1.127		0.660258051	0.830128522	0.014556148	0.150173090	0.046284805
2020-01-02T00:10:00	0.2571	1.116		0.658471860	0.827421728	0.014482506	0.149413342	0.046050643
2020-01-02T00:15:00	0.2571	1.108		0.658654820	0.827698860	0.014490040	0.149491071	0.046074600
2020-01-02T00:20:00	0.2575	1.102		0.659822336	0.829467989	0.014538166	0.149987575	0.046227627
2020-01-02T00:25:00	0.2572	1.097		0.659020713	0.828253170	0.014505113	0.149646580	0.046122529
2020-01-02T00:30:00	0.2577	1.090		0.660516206	0.830519958	0.014566807	0.150283063	0.046318699
2020-01-02T00:35:00	0.2575	1.084		0.660042876	0.829802302	0.014547266	0.150081460	0.046256564
2020-01-02T00:40:00	0.2571	1.078		0.658584849	0.827592871	0.014487158	0.149461342	0.046065437
2020-01-02T00:45:00	0.2579	1.070		0.661392766	0.831849489	0.014603032	0.150656784	0.046433884
2020-01-02T00:50:00	0.2584	1.059		0.662887280	0.834117826	0.014664902	0.151295091	0.046630617
2020-01-02T00:55:00	0.2590	1.052		0.664708893	0.836885214	0.014740499	0.152075014	0.046870996
2020-01-02T01:00:00	0.2597	1.046		0.667184606	0.840650867	0.014843568	0.153138359	0.047198729
2020-01-02T01:05:00	0.2607	1.041		0.670313080	0.845416917	0.014974352	0.154487629	0.047614588
2020-01-02T01:10:00	0.2605	1.034		0.669841027	0.844697232	0.014954580	0.154283641	0.047551717
2020-01-02T01:15:00	0.2598	1.028		0.667404698	0.840985890	0.014852750	0.153233079	0.047227923
2020-01-02T01:20:00	0.2595	1.019		0.666604751	0.839768414	0.014819394	0.152888957	0.047121861
2020-01-02T01:25:00	0.2602	1.010		0.668751850	0.843037422	0.014909011	0.153813515	0.047406819
2020-01-02T01:30:00	0.2596	1.006		0.666642330	0.839825595	0.014820960	0.152905114	0.047126841
2020-01-02T01:35:00	0.2596	0.998		0.666824878	0.840103381	0.014828569	0.152983611	0.047151035
2020-01-02T01:40:00	0.2601	0.994		0.668317155	0.842375269	0.014890844	0.153626096	0.047349055
2020-01-02T01:45:00	0.2595	0.988		0.666534934	0.839662182	0.014816485	0.152858942	0.047112610
2020-01-02T01:50:00	0.2593	0.981		0.665734795	0.838445012	0.014783164	0.152515179	0.047006659
2020-01-02T01:55:00	0.2591	0.973		0.665262146	0.837726276	0.014763500	0.152312305	0.046944132
2020-01-02T02:00:00	0.2581	0.965		0.661838989	0.832526556	0.014621490	0.150847218	0.046492578
2020-01-02T02:05:00	0.2583	0.959		0.662677609	0.833799477	0.014656214	0.151205456	0.046602990
2020-01-02T02:10:00	0.2584	0.951		0.662860357	0.834076946	0.014663786	0.151283580	0.046627069
2020-01-02T02:15:00	0.2582	0.947		0.662059406	0.832861063	0.014630612	0.150941332	0.046521584
2020-01-02T02:20:00	0.2580	0.943		0.661586277	0.832143088	0.014611035	0.150739353	0.046459333
2020-01-02T02:25:00	0.2579	0.938		0.661113086	0.831425211	0.014591468	0.150537490	0.046397116
2020-01-02T02:30:00	0.2573	0.934		0.659327318	0.828717749	0.014517751	0.149776956	0.046162712
2020-01-02T02:35:00	0.2578	0.927		0.660822684	0.830984737	0.014579467	0.150413675	0.046358955
2020-01-02T02:40:00	0.2582	0.920		0.662317434	0.833252702	0.014641295	0.151051543	0.046555553
2020-01-02T02:45:00	0.2587	0.914		0.663811566	0.835521643	0.014703235	0.151690562	0.046752504
2020-01-02T02:50:00	0.2599	0.908		0.667925314	0.841778534	0.014874479	0.153457256	0.047297017
2020-01-02T02:55:00	0.2610	0.901		0.671380265	0.847044633	0.015019103	0.154949313	0.047756883
2020-01-02T03:00:00	0.2618	0.892		0.673851435	0.850817526	0.015122996	0.156021163	0.048087238
2020-01-02T03:05:00	0.2625	0.886		0.676320927	0.854593105	0.015227195	0.157096164	0.048418563
2020-01-02T03:10:00	0.2634	0.878		0.679115165	0.858871515	0.015345550	0.158317211	0.048794902
2020-01-02T03:15:00	0.2630	0.870		0.677991300	0.857149895	0.015297889	0.157825498	0.048643351
2020-01-02T03:20:00	0.2621	0.863		0.674906922	0.852430606	0.015167486	0.156480155	0.048228704
2020-01-02T03:25:00	0.2605	0.857		0.669857039	0.844721640	0.014955250	0.154290558	0.047553848
2020-01-02T03:30:00	0.2598	0.848		0.667420720	0.841010280	0.014853418	0.153239975	0.047230049
2020-01-02T03:35:00	0.2597	0.838		0.667275775	0.840789638	0.014847371	0.153177591	0.047210821
2020-01-02T03:40:00	0.2596	0.830		0.666803326	0.840070583	0.014827670	0.152974342	0.047148178
2020-01-02T03:45:00	0.2598	0.821		0.667313347	0.840846831	0.014848938	0.153193761	0.047215805
2020-01-02T03:50:00	0.2602	0.808		0.668805423	0.843119038	0.014911250	0.153836621	0.047413941
2020-01-02T03:55:00	0.2598	0.799		0.667350919	0.840904023	0.014850506	0.153209931	0.047220789
2020-01-02T04:00:00	0.2596	0.792		0.666878480	0.840184953	0.014830803	0.153006664	0.047158140
2020-01-02T04:05:00	0.2604	0.784		0.669488791	0.844160344	0.014939835	0.154131521	0.047504832
2020-01-02T04:10:00	0.2615	0.778		0.673078199	0.849636413	0.015090447	0.155685361	0.047983740
2020-01-02T04:15:00	0.2615	0.770		0.673069422	0.849623010	0.015090078	0.155681552	0.047982566
2020-01-02T04:20:00	0.2619	0.762		0.674368204	0.851607175	0.015144770	0.156245798	0.048156472
2020-01-02T04:25:00	0.2619	0.754		0.674359431	0.851593767	0.015144400	0.156241983	0.048155297
2020-01-02T04:30:00	0.2622	0.748		0.675331022	0.853079020	0.015185381	0.156664780	0.048285607
2020-01-02T04:35:00	0.2617	0.741		0.673688159	0.850568081	0.015116120	0.155950224	0.048065374
2020-01-02T04:40:00	0.2624	0.734		0.675966913	0.854051535	0.015212234	0.156941819	0.048370993
2020-01-02T04:45:00	0.2613	0.728		0.672362801	0.848544105	0.015060366	0.155375015	0.047888089
2020-01-02T04:50:00	0.2614	0.722		0.672681020	0.849029924	0.015073742	0.155513021	0.047930623
2020-01-02T04:55:00	0.2615	0.717		0.672999211	0.849515788	0.015087124	0.155651079	0.047973174
2020-01-02T05:00:00	0.2616	0.711		0.673317374	0.850001697	0.015100511	0.155789190	0.048015741
2020-01-02T05:05:00	0.2618	0.707		0.673962391	0.850987054	0.015127670	0.156069381	0.048102099
2020-01-02T05:10:00	0.2619	0.701		0.674280470	0.851473097	0.015141072	0.156207649	0.048144715
2020-01-02T05:15:00	0.2619	0.693		0.674271697	0.851459690	0.015140702	0.156203835	0.048143539
2020-01-02T05:20:00	0.2613	0.682		0.672301354	0.848450305	0.015057783	0.155348374	0.047879878
2020-01-02T05:25:00	0.2609	0.675		0.670984271	0.846440532	0.015002489	0.154777914	0.047704056
2020-01-02T05:30:00	0.2605	0.672		0.669666711	0.844431521	0.014947282	0.154208350	0.047528511
2020-01-02T05:35:00	0.2603	0.664		0.669003358	0.843420608	0.014919527	0.153922008	0.047440258
2020-01-02T05:40:00	0.2602	0.656		0.668667243	0.842908531	0.014905474	0.153777027	0.047395573
2020-01-02T05:45:00	0.2604	0.649		0.669313086	0.843892570	0.014932483	0.154055670	0.047481454
2020-01-02T05:50:00	0.2607	0.643		0.670286027	0.845375666	0.014973218	0.154475935	0.047610983
2020-01-02T05:55:00	0.2598	0.634		0.667331261	0.840874100	0.014849686	0.153201471	0.047218181
2020-01-02T06:00:00	0.2595	0.628		0.666339943	0.839365511	0.014808361	0.152775131	0.047086779
2020-01-02T06:05:00	0.2597	0.623		0.666986200	0.840348890	0.014835294	0.153052998	0.047172421
2020-01-02T06:10:00	0.2594	0.616		0.665994787	0.838840451	0.014793987	0.152626835	0.047041073
2020-01-02T06:15:00	0.2588	0.609		0.664019946	0.835838234	0.014711884	0.151779795	0.046780007
2020-01-02T06:20:00	0.2573	0.605		0.659419539	0.828857502	0.014521553	0.149816182	0.046174802
2020-01-02T06:25:00	0.2578	0.599		0.661051263	0.831331432	0.014588913	0.150511126	0.046388991
2020-01-02T06:30:00	0.2579	0.593		0.661370475	0.831815671	0.014602110	0.150647275	0.046430953
2020-01-02T06:35:00	0.2577	0.588		0.660705603	0.830807172	0.014574630	0.150363771	0.046343575
2020-01-02T06:40:00	0.2565	0.583		0.656757881	0.824826929	0.014412025	0.148686203	0.045826532
2020-01-02T06:45:00	0.2573	0.578		0.659375492	0.828790751	0.014519737	0.149797446	0.046169028
2020-01-02T06:50:00	0.2569	0.572		0.658053704	0.826788449	0.014465294	0.149235772	0.045995914
2020-01-02T06:55:00	0.2572	0.566		0.659029672	0.828266744	0.014505482	0.149650389	0.046123703
2020-01-02T07:00:00	0.2574	0.561		0.659677235	0.829248054	0.014532180	0.149925822	0.046208594
2020-01-02T07:05:00	0.2574	0.556		0.659668426	0.829234703	0.014531817	0.149922073	0.046207439
2020-01-02T07:10:00	0.2571	0.548		0.658675008	0.827729441	0.014490871	0.149499649	0.046077244
2020-01-02T07:15:00	0.2569	0.541		0.658009640	0.826721724	0.014463481	0.149217067	0.045990149
2020-01-02T07:20:00	0.2579	0.533		0.661282427	0.831682095	0.014598469	0.150609715	0.046419377
2020-01-02T07:25:00	0.2584	0.528		0.662913311	0.834157353	0.014665981	0.151306222	0.046634047
2020-01-02T07:30:00	0.2582	0.523		0.662248722	0.833148405	0.014638450	0.151022190	0.046546506
2020-01-02T07:35:00	0.2582	0.520		0.662239920	0.833135043	0.014638086	0.151018430	0.046545347
2020-01-02T07:40:00	0.2583	0.518		0.662559028	0.833619449	0.014651301	0.151154774	0.046587369
2020-01-02T07:45:00	0.2582	0.513		0.662222314	0.833108321	0.014637357	0.151010910	0.046543029
2020-01-02T07:50:00	0.2584	0.511		0.662869306	0.834090535	0.014664157	0.151287407	0.046628248
2020-01-02T07:55:00	0.2591	0.507		0.665154857	0.837563154	0.014759038	0.152266274	0.046929944
2020-01-02T08:00:00	0.2592	0.506		0.665473708	0.838047966	0.014772300	0.152403096	0.046972114
2020-01-02T08:05:00	0.2590	0.504		0.664809589	0.837038273	0.014744684	0.152118188	0.046884303
2020-01-02T08:10:00	0.2603	0.502		0.669058299	0.843504321	0.014921825	0.153945713	0.047447564
2020-01-02T08:15:00	0.2607	0.500		0.670358515	0.845486195	0.014976256	0.154507270	0.047620641
2020-01-02T08:20:00	0.2607	0.499		0.670349732	0.845472803	0.014975888	0.154503473	0.047619471
2020-01-02T08:25:00	0.2595	0.495		0.666412509	0.839475914	0.014811384	0.152806319	0.047096391
2020-01-02T08:30:00	0.2594	0.494		0.666076154	0.838964219	0.014797375	0.152661787	0.047051845
2020-01-02T08:35:00	0.2593	0.496		0.665739767	0.838452574	0.014783371	0.152517314	0.047007317
2020-01-02T08:40:00	0.2601	0.500		0.668350897	0.842426662	0.014892254	0.153640639	0.047353537
2020-01-02T08:45:00	0.2602	0.505		0.668669468	0.842911920	0.014905567	0.153777986	0.047395869
2020-01-02T08:50:00	0.2601	0.512		0.668333322	0.842399893	0.014891520	0.153633064	0.047351202
2020-01-02T08:55:00	0.2594	0.521		0.666032187	0.838897340	0.014795544	0.152642900	0.047046024
2020-01-02T09:00:00	0.2593	0.529		0.665695797	0.838385701	0.014781541	0.152498434	0.047001498
2020-01-02T09:05:00	0.2593	0.540		0.665687002	0.838372327	0.014781175	0.152494658	0.047000335
2020-01-02T09:10:00	0.2601	0.553		0.668298170	0.842346354	0.014890051	0.153617913	0.047346533
2020-01-02T09:15:00	0.2608	0.567		0.670580304	0.845824406	0.014985551	0.154603167	0.047650198
2020-01-02T09:20:00	0.2606	0.582		0.669917119	0.844813227	0.014957766	0.154316513	0.047561848
2020-01-02T09:25:00	0.2610	0.600		0.671544126	0.847294647	0.015025980	0.155020266	0.047778752
2020-01-02T09:30:00	0.2619	0.621		0.674477923	0.851774860	0.015149395	0.156293514	0.048171179
2020-01-02T09:35:00	0.2620	0.644		0.674795957	0.852260976	0.015162805	0.156431867	0.048213821
2020-01-02T09:40:00	0.2627	0.661		0.677074018	0.855745541	0.015259046	0.157424766	0.048519842
2020-01-02T09:45:00	0.2627	0.670		0.677065251	0.855732123	0.015258675	0.157420938	0.048518662
2020-01-02T09:50:00	0.2619	0.666		0.674442831	0.851721228	0.015147916	0.156278252	0.048166475
2020-01-02T09:55:00	0.2616	0.665		0.673453452	0.850209545	0.015106239	0.155848279	0.048033953
2020-01-02T10:00:00	0.2610	0.668		0.671482665	0.847200869	0.015023400	0.154993651	0.047770548
2020-01-02T10:05:00	0.2605	0.674		0.669699069	0.844480843	0.014948636	0.154222324	0.047532818
2020-01-02T10:10:00	0.2599	0.682		0.667914597	0.841762215	0.014874031	0.153452639	0.047295594
2020-01-02T10:15:00	0.2604	0.692		0.669403497	0.844030353	0.014936265	0.154094698	0.047493482
2020-01-02T10:20:00	0.2605	0.703		0.669910225	0.844802718	0.014957477	0.154313535	0.047560930
2020-01-02T10:25:00	0.2604	0.715		0.669435191	0.844078654	0.014937592	0.154108380	0.047497699
2020-01-02T10:30:00	0.2603	0.727		0.668960094	0.843354690	0.014917718	0.153903342	0.047434505
2020-01-02T10:35:00	0.2609	0.741		0.671102874	0.846621450	0.015007464	0.154829239	0.047719875
2020-01-02T10:40:00	0.2605	0.756		0.669646362	0.844400505	0.014946430	0.154199561	0.047525802
2020-01-02T10:45:00	0.2592	0.770		0.665569225	0.838193215	0.014776274	0.152444096	0.046984751
2020-01-02T10:50:00	0.2590	0.784		0.664765941	0.836971926	0.014742870	0.152099473	0.046878535
2020-01-02T10:55:00	0.2578	0.798		0.661011359	0.831270905	0.014587264	0.150494112	0.046383747
2020-01-02T11:00:00	0.2570	0.812		0.658237876	0.827067350	0.014472873	0.149313967	0.046020015
2020-01-02T11:05:00	0.2552	0.827		0.652504195	0.818398100	0.014237884	0.146889628	0.045272810
2020-01-02T11:10:00	0.2547	0.840		0.650711221	0.815692907	0.014164813	0.146135769	0.045040463
2020-01-02T11:15:00	0.2545	0.854		0.649904628	0.814476835	0.014132006	0.145797296	0.044936143
2020-01-02T11:20:00	0.2542	0.867		0.649097855	0.813261046	0.014099230	0.145459157	0.044831925
2020-01-02T11:25:00	0.2543	0.881		0.649278347	0.813532994	0.014106559	0.145534770	0.044855229
2020-01-02T11:30:00	0.2537	0.894		0.647483767	0.810830315	0.014033776	0.144783881	0.044623798
2020-01-02T11:35:00	0.2531	0.907		0.645358846	0.807633681	0.013947849	0.143897389	0.044350573
2020-01-02T11:40:00	0.2533	0.919		0.646198355	0.808896140	0.013981764	0.144247283	0.044458413
2020-01-02T11:45:00	0.2529	0.931		0.644731773	0.806691075	0.013922544	0.143636323	0.044270110
2020-01-02T11:50:00	0.2526	0.946		0.643923840	0.805477096	0.013889976	0.143300326	0.044166552
2020-01-02T11:55:00	0.2524	0.960		0.643115725	0.804263401	0.013857441	0.142964663	0.044063097
2020-01-02T12:00:00	0.2530	0.975		0.645273877	0.807505937	0.013944419	0.143861999	0.044339665
2020-01-02T12:05:00	0.2531	0.990		0.645454560	0.807777586	0.013951714	0.143937258	0.044362861
2020-01-02T12:10:00	0.2528	1.006		0.644317247	0.806068150	0.013905830	0.143463882	0.044216962
2020-01-02T12:15:00	0.2532	1.025		0.645815899	0.808320926	0.013966308	0.144087826	0.044409267
2020-01-02T12:20:00	0.2528	1.046		0.644349161	0.806116104	0.013907116	0.143477154	0.044221052
2020-01-02T12:25:00	0.2517	1.069		0.640903149	0.800943204	0.013768564	0.142047732	0.043780490
2020-01-02T12:30:00	0.2506	1.092		0.637123625	0.795281263	0.013617431	0.140488530	0.043299929
2020-01-02T12:35:00	0.2496	1.116		0.634001186	0.790612814	0.013493228	0.139207150	0.042904996
2020-01-02T12:40:00	0.2501	1.139		0.635504148	0.792858905	0.013552939	0.139823171	0.043094859
2020-01-02T12:45:00	0.2504	1.160		0.636676237	0.794611854	0.013599599	0.140304558	0.043243227
2020-01-02T12:50:00	0.2493	1.177		0.632892254	0.788956807	0.013449260	0.138753536	0.042765187
2020-01-02T12:55:00	0.2491	1.192		0.632412318	0.788240425	0.013430254	0.138557455	0.042704753
2020-01-02T13:00:00	0.2485	1.200		0.630278453	0.785057646	0.013345919	0.137687390	0.042436591
2020-01-02T13:05:00	0.2491	1.207		0.632113674	0.787794748	0.013418434	0.138435514	0.042667170
2020-01-02T13:10:00	0.2494	1.213		0.633286872	0.789545985	0.013464898	0.138914868	0.042814912
2020-01-02T13:15:00	0.2484	1.218		0.629830210	0.784389556	0.013328239	0.137504984	0.042380372
2020-01-02T13:20:00	0.2482	1.221		0.629349864	0.783673805	0.013309306	0.137309653	0.042320169
2020-01-02T13:25:00	0.2476	1.223		0.627214170	0.780493835	0.013225295	0.136442928	0.042053035
2020-01-02T13:30:00	0.2478	1.226		0.628057937	0.781749712	0.013258453	0.136785012	0.042158469
2020-01-02T13:35:00	0.2477	1.228		0.627577352	0.781034327	0.013239562	0.136590116	0.042098400
2020-01-02T13:40:00	0.2478	1.229		0.628089996	0.781797441	0.013259713	0.136798019	0.042162478
2020-01-02T13:45:00	0.2477	1.230		0.627609415	0.781082049	0.013240822	0.136603115	0.042102407
2020-01-02T13:50:00	0.2474	1.231		0.626466427	0.779381383	0.013195946	0.136140144	0.041959715
2020-01-02T13:55:00	0.2471	1.232		0.625654366	0.778173777	0.013164112	0.135811712	0.041858489
2020-01-02T14:00:00	0.2468	1.230		0.624510751	0.776474068	0.013119347	0.135349882	0.041716148
2020-01-02T14:05:00	0.2472	1.227		0.626017706	0.778714026	0.013178350	0.135958611	0.041903764
2020-01-02T14:10:00	0.2469	1.226		0.624874208	0.777014139	0.013133565	0.135496569	0.041761359
2020-01-02T14:15:00	0.2475	1.226		0.627043368	0.780239682	0.013218588	0.136373734	0.042031709
2020-01-02T14:20:00	0.2481	1.224		0.628880249	0.782974235	0.013290809	0.137118826	0.042261354
2020-01-02T14:25:00	0.2476	1.221		0.627406567	0.780780148	0.013232852	0.136520891	0.042077065
2020-01-02T14:30:00	0.2481	1.218		0.628912301	0.783021976	0.013292071	0.137131846	0.042265367
2020-01-02T14:35:00	0.2479	1.214		0.628431830	0.782306414	0.013273160	0.136936740	0.042205233
2020-01-02T14:40:00	0.2489	1.210		0.631591155	0.787015158	0.013397767	0.138222296	0.042601454
2020-01-02T14:45:00	0.2481	1.205		0.628794888	0.782847096	0.013287448	0.137084155	0.042250668
2020-01-02T14:50:00	0.2488	1.202		0.631292442	0.786569586	0.013385960	0.138100480	0.042563909
2020-01-02T14:55:00	0.2479	1.200		0.628164912	0.781908979	0.013262660	0.136828415	0.042171846
2020-01-02T15:00:00	0.2482	1.196		0.629339406	0.783658225	0.013308894	0.137305402	0.042318859
2020-01-02T15:05:00	0.2478	1.191		0.627865913	0.781463847	0.013250903	0.136707122	0.042134463
2020-01-02T15:10:00	0.2488	1.186		0.631356502	0.786665134	0.013388492	0.138126599	0.042571959
2020-01-02T15:15:00	0.2498	1.181		0.634513247	0.791377846	0.013513556	0.139416870	0.042969633
2020-01-02T15:20:00	0.2488	1.180		0.631388532	0.786712909	0.013389757	0.138139660	0.042575985
2020-01-02T15:25:00	0.2487	1.178		0.630908394	0.785996837	0.013370787	0.137943947	0.042515664
2020-01-02T15:30:00	0.2494	1.173		0.633404474	0.789721594	0.013469560	0.138962967	0.042829736
2020-01-02T15:35:00	0.2491	1.168		0.632263336	0.788018085	0.013424357	0.138496616	0.042686002
2020-01-02T15:40:00	0.2494	1.164		0.633105913	0.789275790	0.013457726	0.138840874	0.042792106
2020-01-02T15:45:00	0.2497	1.161		0.634278786	0.791027528	0.013504247	0.139320824	0.042940031
2020-01-02T15:50:00	0.2511	1.158		0.638753473	0.797721381	0.013682498	0.141159809	0.043506824
2020-01-02T15:55:00	0.2515	1.154		0.640254446	0.799970549	0.013742562	0.141779480	0.043697813
2020-01-02T16:00:00	0.2529	1.148		0.644721696	0.806675930	0.013922138	0.143632130	0.044268817
2020-01-02T16:05:00	0.2534	1.142		0.646558388	0.809437745	0.013996322	0.144397475	0.044504704
2020-01-02T16:10:00	0.2544	1.135		0.649710639	0.814184447	0.014124121	0.145715953	0.044911072
2020-01-02T16:15:00	0.2545	1.128		0.649899933	0.814469757	0.014131815	0.145795326	0.044935536
2020-01-02T16:20:00	0.2540	1.118		0.648443694	0.812275647	0.014072684	0.145185282	0.044747514
2020-01-02T16:25:00	0.2536	1.107		0.646986867	0.810082457	0.014013658	0.144576326	0.044559828
2020-01-02T16:30:00	0.2529	1.098		0.644870498	0.806899575	0.013928140	0.143694056	0.044287904
2020-01-02T16:35:00	0.2525	1.088		0.643412223	0.804708642	0.013869374	0.143087770	0.044101040
2020-01-02T16:40:00	0.2518	1.077		0.641293749	0.801529037	0.013784232	0.142209380	0.043830312
2020-01-02T16:45:00	0.2518	1.065		0.641153653	0.801318903	0.013778611	0.142151391	0.043812439
2020-01-02T16:50:00	0.2520	1.060		0.641673212	0.802098290	0.013799463	0.142366511	0.043878741
2020-01-02T16:55:00	0.2507	1.053		0.637573200	0.795954116	0.013635363	0.140673528	0.043356948
2020-01-02T17:00:00	0.2512	1.048		0.639083526	0.798215792	0.013695694	0.141295949	0.043548784
2020-01-02T17:05:00	0.2516	1.047		0.640593217	0.800478452	0.013756138	0.141919536	0.043740979
2020-01-02T17:10:00	0.2501	1.047		0.635501005	0.792854206	0.013552814	0.139821881	0.043094462
2020-01-02T17:15:00	0.2508	1.038		0.638002751	0.796597162	0.013652508	0.140850405	0.043411463
2020-01-02T17:20:00	0.2506	1.033		0.637202167	0.795398800	0.013620563	0.140520841	0.043309888
2020-01-02T17:25:00	0.2499	1.034		0.634749602	0.791731040	0.013522945	0.139513727	0.042999486
2020-01-02T17:30:00	0.2504	1.029		0.636591399	0.794484933	0.013596219	0.140269685	0.043232479
2020-01-02T17:35:00	0.2502	1.025		0.635790500	0.793287058	0.013564331	0.139940699	0.043131082
2020-01-02T17:40:00	0.2499	1.020		0.634989422	0.792089460	0.013532474	0.139612040	0.043029787
2020-01-02T17:45:00	0.2501	1.017		0.635509873	0.792867465	0.013553166	0.139825520	0.043095583
2020-01-02T17:50:00	0.2491	1.016		0.632394903	0.788214434	0.013429565	0.138550342	0.042702561
2020-01-02T17:55:00	0.2487	1.012		0.630931549	0.786031365	0.013371702	0.137953382	0.042518572
2020-01-02T18:00:00	0.2486	1.007		0.630460230	0.785328626	0.013353093	0.137761397	0.042459400
2020-01-02T18:05:00	0.2485	1.004		0.630319711	0.785119147	0.013347547	0.137704185	0.042441767
2020-01-02T18:10:00	0.2492	1.001		0.632494447	0.788363001	0.013433505	0.138590999	0.042715092
2020-01-02T18:15:00	0.2491	0.997		0.632354007	0.788153399	0.013427946	0.138533641	0.042697414
2020-01-02T18:20:00	0.2498	0.995		0.634527508	0.791399154	0.013514123	0.139422713	0.042971434
2020-01-02T18:25:00	0.2496	0.993		0.634056663	0.790695687	0.013495430	0.139229863	0.042911996
2020-01-02T18:30:00	0.2506	0.989		0.637219895	0.795425330	0.013621270	0.140528134	0.043312136
2020-01-02T18:35:00	0.2503	0.984		0.636088838	0.793733207	0.013576205	0.140063200	0.043168839
2020-01-02T18:40:00	0.2498	0.980		0.634626992	0.791547812	0.013518074	0.139463478	0.042983998
2020-01-02T18:45:00	0.2498	0.977		0.634486636	0.791338082	0.013512500	0.139405967	0.042966273
2020-01-02T18:50:00	0.2504	0.971		0.636658844	0.794585831	0.013598906	0.140297408	0.043241024
2020-01-02T18:55:00	0.2499	0.961		0.634866819	0.791906220	0.013527602	0.139561775	0.043014295
2020-01-02T19:00:00	0.2501	0.955		0.635717651	0.793178128	0.013561432	0.139910794	0.043121866
2020-01-02T19:05:00	0.2492	0.948		0.632602862	0.788524819	0.013437798	0.138635286	0.042728741
2020-01-02T19:10:00	0.2496	0.942		0.633784773	0.790289555	0.013484642	0.139118565	0.042877693
2020-01-02T19:15:00	0.2506	0.937		0.637278463	0.795512982	0.013623606	0.140552231	0.043319563
2020-01-02T19:20:00	0.2506	0.931		0.637138211	0.795303091	0.013618013	0.140494530	0.043301779
2020-01-02T19:25:00	0.2511	0.926		0.638978783	0.798058879	0.013691505	0.141252737	0.043535465
2020-01-02T19:30:00	0.2514	0.920		0.639828640	0.799332295	0.013725509	0.141603544	0.043643588
2020-01-02T19:35:00	0.2532	0.914		0.645623257	0.808031238	0.013958526	0.144007543	0.044384523
2020-01-02T19:40:00	0.2537	0.907		0.647459489	0.810793770	0.014032793	0.144773736	0.044620671
2020-01-02T19:45:00	0.2537	0.899		0.647319633	0.810583263	0.014027129	0.144715305	0.044602662
2020-01-02T19:50:00	0.2542	0.894		0.649155001	0.813347145	0.014101550	0.145483094	0.044839303
2020-01-02T19:55:00	0.2537	0.889		0.647369199	0.810657865	0.014029136	0.144736012	0.044609044
2020-01-02T20:00:00	0.2532	0.884		0.645911937	0.808465355	0.013970188	0.144127858	0.044421606
2020-01-02T20:05:00	0.2535	0.881		0.646760157	0.809741317	0.014004484	0.144481680	0.044530657
2020-01-02T20:10:00	0.2533	0.875		0.645961521	0.808539927	0.013972192	0.144148529	0.044427977
2020-01-02T20:15:00	0.2538	0.871		0.647797581	0.811302728	0.014046489	0.144915041	0.044664223
2020-01-02T20:20:00	0.2534	0.865		0.646340492	0.809109947	0.013987510	0.144306567	0.044476685
2020-01-02T20:25:00	0.2536	0.859		0.647188612	0.810386067	0.014021824	0.144660576	0.044585794
2020-01-02T20:30:00	0.2530	0.853		0.645072361	0.807202999	0.013936285	0.143778087	0.044313803
2020-01-02T20:35:00	0.2528	0.847		0.644602897	0.806497392	0.013917347	0.143582700	0.044253582
2020-01-02T20:40:00	0.2530	0.842		0.645121957	0.807277554	0.013938287	0.143798737	0.044320167
2020-01-02T20:45:00	0.2522	0.837		0.642345075	0.803106489	0.013826451	0.142644943	0.043964557
2020-01-02T20:50:00	0.2521	0.832		0.642205021	0.802896292	0.013820823	0.142586879	0.043946661
2020-01-02T20:55:00	0.2516	0.826		0.640415764	0.800212393	0.013749026	0.141846164	0.043718365
2020-01-02T21:00:00	0.2512	0.821		0.639285714	0.798518711	0.013703781	0.141379381	0.043574498
2020-01-02T21:05:00	0.2522	0.815		0.642444342	0.803255482	0.013830440	0.142686105	0.043977243
2020-01-02T21:10:00	0.2515	0.808		0.640325297	0.800076764	0.013745401	0.141808765	0.043706839
2020-01-02T21:15:00	0.2515	0.802		0.640185164	0.799866689	0.013739787	0.141750846	0.043688987
2020-01-02T21:20:00	0.2521	0.796		0.642024174	0.802624897	0.013813557	0.142511921	0.043923558
2020-01-02T21:25:00	0.2513	0.790		0.639574904	0.798952036	0.013715352	0.141498758	0.043611292
2020-01-02T21:30:00	0.2507	0.786		0.637454164	0.795775945	0.013630614	0.140624533	0.043341847
2020-01-02T21:35:00	0.2511	0.779		0.638964540	0.798037543	0.013690936	0.141246861	0.043533654
2020-01-02T21:40:00	0.2516	0.775		0.640474281	0.800300126	0.013751371	0.141870357	0.043725822
2020-01-02T21:45:00	0.2516	0.769		0.640664061	0.800584677	0.013758977	0.141948833	0.043750009
2020-01-02T21:50:00	0.2512	0.764		0.639204078	0.798396399	0.013700515	0.141345691	0.043564115
2020-01-02T21:55:00	0.2515	0.759		0.640053882	0.799669898	0.013734528	0.141696596	0.043672267
2020-01-02T22:00:00	0.2511	0.753		0.638923718	0.797976392	0.013689304	0.141230023	0.043528465
2020-01-02T22:05:00	0.2515	0.748		0.640228923	0.799932287	0.013741540	0.141768931	0.043694561
2020-01-02T22:10:00	0.2525	0.742		0.643511984	0.804858466	0.013873390	0.143129204	0.044113811
2020-01-02T22:15:00	0.2533	0.734		0.646133328	0.808798331	0.013979136	0.144220165	0.044450055
2020-01-02T22:20:00	0.2536	0.728		0.647106632	0.810262690	0.014018506	0.144626337	0.044575242
2020-01-02T22:25:00	0.2532	0.722		0.645774446	0.808258588	0.013964633	0.144070549	0.044403942
2020-01-02T22:30:00	0.2542	0.718		0.649052452	0.813192640	0.014097387	0.145440139	0.044826063
2020-01-02T22:35:00	0.2561	0.713		0.655285690	0.822600178	0.014351630	0.148063121	0.045634492
2020-01-02T22:40:00	0.2556	0.706		0.653627832	0.820094813	0.014283777	0.147363095	0.045418737
2020-01-02T22:45:00	0.2573	0.701		0.659196843	0.828520039	0.014512372	0.149721467	0.046145610
2020-01-02T22:50:00	0.2553	0.696		0.652612158	0.818561079	0.014242290	0.146935085	0.045286820
2020-01-02T22:55:00	0.2554	0.690		0.652926233	0.819035259	0.014255113	0.147067369	0.045327591
2020-01-02T23:00:00	0.2550	0.686		0.651596197	0.817027793	0.014200855	0.146507605	0.045155067
2020-01-02T23:05:00	0.2546	0.677		0.650265670	0.815021097	0.014146686	0.145948750	0.044982822
2020-01-02T23:10:00	0.2552	0.670		0.652224497	0.817975919	0.014226473	0.146771895	0.045236523
2020-01-02T23:15:00	0.2563	0.666		0.655825168	0.823415945	0.014373746	0.148291288	0.045704815
2020-01-02T23:20:00	0.2577	0.664		0.660734734	0.830851351	0.014575833	0.150376187	0.046347401
2020-01-02T23:25:00	0.2575	0.659		0.660063873	0.829834134	0.014548132	0.150090400	0.046259319
2020-01-02T23:30:00	0.2570	0.653		0.658408206	0.827325318	0.014479885	0.149386304	0.046042310
2020-01-02T23:35:00	0.2569	0.648		0.658065231	0.826805904	0.014465768	0.149240666	0.045997423
2020-01-02T23:40:00	0.2576	0.643		0.660347945	0.830264820	0.014559859	0.150211380	0.046296606
2020-01-02T23:45:00	0.2579	0.637		0.661317424	0.831735187	0.014599916	0.150624643	0.046423978
2020-01-02T23:50:00	0.2583	0.631		0.662614549	0.833703739	0.014653601	0.151178503	0.046594683
2020-01-02T23:55:00	0.2588	0.627		0.664238968	0.836171034	0.014720978	0.151873615	0.046808923
2020-01-03T00:00:00	0.2590	0.622		0.664879736	0.837144904	0.014747600	0.152148269	0.046893574
2020-01-03T00:05:00	0.2592	0.617		0.665520391	0.838118953	0.014774242	0.152423133	0.046978290
2020-01-03T00:10:00	0.2598	0.612		0.667470975	0.841086784	0.014855515	0.153261608	0.047236716
2020-01-03T00:15:00	0.2598	0.607		0.667456325	0.841064482	0.014854904	0.153255302	0.047234772
2020-01-03T00:20:00	0.2599	0.601		0.667769115	0.841540694	0.014867958	0.153389978	0.047276281
2020-01-03T00:25:00	0.2599	0.596		0.667754466	0.841518390	0.014867346	0.153383670	0.047274337
2020-01-03T00:30:00	0.2588	0.591		0.664136327	0.836015067	0.014716716	0.151829644	0.046795371
2020-01-03T00:35:00	0.2587	0.580		0.663793894	0.835494796	0.014702501	0.151682995	0.046750172
2020-01-03T00:40:00	0.2583	0.572		0.662467851	0.833481035	0.014647525	0.151115811	0.046575361
2020-01-03T00:45:00	0.2588	0.566		0.664092337	0.835948225	0.014714889	0.151810801	0.046789563
2020-01-03T00:50:00	0.2589	0.558		0.664405416	0.836423976	0.014727891	0.151944935	0.046830905
2020-01-03T00:55:00	0.2577	0.552		0.660455859	0.830428449	0.014564315	0.150257351	0.046310775
2020-01-03T01:00:00	0.2582	0.548		0.662081247	0.832894211	0.014631517	0.150950659	0.046524459
2020-01-03T01:05:00	0.2587	0.544		0.663705905	0.835361126	0.014698850	0.151645326	0.046738562
2020-01-03T01:10:00	0.2584	0.540		0.662707727	0.833845204	0.014657462	0.151218330	0.046606958
2020-01-03T01:15:00	0.2591	0.535		0.665315177	0.837806908	0.014765705	0.152335061	0.046951145
2020-01-03T01:20:00	0.2605	0.529		0.669884688	0.844763789	0.014956408	0.154302502	0.047557530
2020-01-03T01:25:00	0.2628	0.522		0.677388681	0.856227207	0.015272365	0.157562172	0.048562192
2020-01-03T01:30:00	0.2621	0.517		0.675087427	0.852706564	0.015175101	0.156558721	0.048252918
2020-01-03T01:35:00	0.2627	0.512		0.677032884	0.855682583	0.015257306	0.157406808	0.048514307
2020-01-03T01:40:00	0.2625	0.506		0.676365028	0.854660579	0.015229059	0.157115397	0.048424491
2020-01-03T01:45:00	0.2633	0.502		0.678962699	0.858637893	0.015339080	0.158250457	0.048774328
2020-01-03T01:50:00	0.2631	0.495		0.678295197	0.857615320	0.015310769	0.157958380	0.048684307
2020-01-03T01:55:00	0.2646	0.490		0.683174500	0.865098972	0.015518350	0.160099954	0.049344361
2020-01-03T02:00:00	0.2646	0.484		0.683159914	0.865076569	0.015517727	0.160093529	0.049342380
2020-01-03T02:05:00	0.2632	0.473		0.678577846	0.858048274	0.015322753	0.158082023	0.048722415
2020-01-03T02:10:00	0.2636	0.464		0.679868824	0.860026635	0.015377555	0.158647402	0.048896670
2020-01-03T02:15:00	0.2636	0.456		0.679854224	0.860004253	0.015376935	0.158641002	0.048894698
2020-01-03T02:20:00	0.2628	0.449		0.677227968	0.855981188	0.015265562	0.157491985	0.048540559
2020-01-03T02:25:00	0.2625	0.443		0.676233500	0.854459349	0.015223500	0.157058040	0.048406813
2020-01-03T02:30:00	0.2613	0.440		0.672296798	0.848443350	0.015057592	0.155346399	0.047879269
2020-01-03T02:35:00	0.2606	0.434		0.669992319	0.844927869	0.014960915	0.154349003	0.047571862
2020-01-03T02:40:00	0.2601	0.428		0.668341182	0.842411865	0.014891848	0.153636452	0.047352247
2020-01-03T02:45:00	0.2592	0.426		0.665378969	0.837903905	0.014768359	0.152362436	0.046959582
2020-01-03T02:50:00	0.2597	0.424		0.667002150	0.840373165	0.014835960	0.153059860	0.047174535
2020-01-03T02:55:00	0.2580	0.419		0.661415799	0.831884433	0.014603984	0.150666611	0.046436913
2020-01-03T03:00:00	0.2583	0.416		0.662384992	0.833355253	0.014644093	0.151080407	0.046564449
2020-01-03T03:05:00	0.2592	0.413		0.665647966	0.838312961	0.014779551	0.152477899	0.046995169
2020-01-03T03:10:00	0.2601	0.408		0.668580670	0.842776651	0.014901855	0.153739696	0.047384067
2020-01-03T03:15:00	0.2601	0.401		0.668566024	0.842754342	0.014901243	0.153733381	0.047382121
2020-01-03T03:20:00	0.2599	0.397		0.667896611	0.841734828	0.014873280	0.153444892	0.047293206
2020-01-03T03:25:00	0.2588	0.396		0.664278614	0.836231278	0.014722624	0.151890601	0.046814158
2020-01-03T03:30:00	0.2587	0.396		0.663936195	0.835710986	0.014708407	0.151743927	0.046768952
2020-01-03T03:35:00	0.2589	0.393		0.664577016	0.836684771	0.014735020	0.152018481	0.046853572
2020-01-03T03:40:00	0.2588	0.389		0.664234625	0.836164434	0.014720798	0.151871755	0.046808350
2020-01-03T03:45:00	0.2595	0.385		0.666513454	0.839629500	0.014815590	0.152849708	0.047109765
2020-01-03T03:50:00	0.2588	0.381		0.664205299	0.836119872	0.014719580	0.151859191	0.046804477
2020-01-03T03:55:00	0.2587	0.380		0.663862873	0.835599590	0.014705364	0.151712530	0.046759275
2020-01-03T04:00:00	0.2598	0.379		0.667451986	0.841057876	0.014854723	0.153253434	0.047234197
2020-01-03T04:05:00	0.2597	0.380		0.667162092	0.840616598	0.014842629	0.153128671	0.047195744
2020-01-03T04:10:00	0.2592	0.383		0.665561914	0.838182098	0.014775970	0.152440957	0.046983784
2020-01-03T04:15:00	0.2580	0.394		0.661665923	0.832263937	0.014614330	0.150773344	0.046469809
2020-01-03T04:20:00	0.2579	0.403		0.661375565	0.831823393	0.014602320	0.150649446	0.046431622
2020-01-03T04:25:00	0.2578	0.410		0.660757140	0.830885331	0.014576759	0.150385737	0.046350345
2020-01-03T04:30:00	0.2576	0.415		0.660138610	0.829947436	0.014551217	0.150122224	0.046269127
2020-01-03T04:35:00	0.2578	0.419		0.660832419	0.830999501	0.014579869	0.150417824	0.046360234
2020-01-03T04:40:00	0.2576	0.417		0.660213902	0.830061586	0.014554325	0.150154288	0.046279010
2020-01-03T04:45:00	0.2585	0.415		0.663203286	0.834597697	0.014678002	0.151430239	0.046672270
2020-01-03T04:50:00	0.2574	0.415		0.659632930	0.829180904	0.014530353	0.149906969	0.046202784
2020-01-03T04:55:00	0.2577	0.422		0.660654920	0.830730309	0.014572536	0.150342171	0.046336917
2020-01-03T05:00:00	0.2574	0.426		0.659708233	0.829295038	0.014533459	0.149939013	0.046212660
2020-01-03T05:05:00	0.2579	0.430		0.661386264	0.831839625	0.014602763	0.150654011	0.046433029
2020-01-03T05:10:00	0.2575	0.440		0.659783534	0.829409173	0.014536565	0.149971060	0.046222537
2020-01-03T05:15:00	0.2581	0.454		0.661789511	0.832451472	0.014619443	0.150826096	0.046486068
2020-01-03T05:20:00	0.2586	0.470		0.663466578	0.834997585	0.014688921	0.151542890	0.046706990
2020-01-03T05:25:00	0.2591	0.483		0.665142870	0.837544929	0.014758539	0.152261131	0.046928359
2020-01-03T05:30:00	0.2595	0.493		0.666490861	0.839595125	0.014814648	0.152839997	0.047106771
2020-01-03T05:35:00	0.2600	0.500		0.668165756	0.842144688	0.014884520	0.153560848	0.047328945
2020-01-03T05:40:00	0.2593	0.508		0.665910896	0.838712849	0.014790494	0.152590802	0.047029967
2020-01-03T05:45:00	0.2595	0.514		0.666603601	0.839766664	0.014819346	0.152888462	0.047121709
2020-01-03T05:50:00	0.2596	0.519		0.666641180	0.839823845	0.014820912	0.152904619	0.047126689
2020-01-03T05:55:00	0.2601	0.530		0.668316005	0.842373519	0.014890796	0.153625600	0.047348902
2020-01-03T06:00:00	0.2612	0.543		0.671952875	0.847918406	0.015043143	0.155197333	0.047833325
2020-01-03T06:05:00	0.2614	0.555		0.672644429	0.848974057	0.015072204	0.155497149	0.047925732
2020-01-03T06:10:00	0.2612	0.566		0.672027922	0.848032946	0.015046295	0.155229854	0.047843349
2020-01-03T06:15:00	0.2611	0.571		0.671738393	0.847591085	0.015034136	0.155104408	0.047804685
2020-01-03T06:20:00	0.2607	0.573		0.670467428	0.845652275	0.014980820	0.154554358	0.047635154
2020-01-03T06:25:00	0.2601	0.574		0.668541368	0.842716784	0.014900213	0.153722750	0.047378845
2020-01-03T06:30:00	0.2604	0.577		0.669560849	0.844270169	0.014942851	0.154162635	0.047514421
2020-01-03T06:35:00	0.2614	0.582		0.672542543	0.848818504	0.015067921	0.155452958	0.047912112
2020-01-03T06:40:00	0.2611	0.587		0.671598954	0.847378308	0.015028282	0.155044011	0.047786070
2020-01-03T06:45:00	0.2620	0.592		0.674578977	0.851929313	0.015153655	0.156337468	0.048184726
2020-01-03T06:50:00	0.2626	0.598		0.676576796	0.854984601	0.015238013	0.157207769	0.048452961
2020-01-03T06:55:00	0.2632	0.605		0.678573520	0.858041647	0.015322570	0.158080130	0.048721831
2020-01-03T07:00:00	0.2622	0.616		0.675345011	0.853100411	0.015185972	0.156670872	0.048287484
2020-01-03T07:05:00	0.2626	0.633		0.676689224	0.855156639	0.015242767	0.157256821	0.048468079
2020-01-03T07:10:00	0.2615	0.653		0.673132116	0.849718754	0.015092716	0.155708764	0.047990953
2020-01-03T07:15:00	0.2619	0.672		0.674477146	0.851773672	0.015149362	0.156293176	0.048171075
2020-01-03T07:20:00	0.2625	0.688		0.676148364	0.854329105	0.015219902	0.157020919	0.048395372
2020-01-03T07:25:00	0.2616	0.707		0.673244649	0.849890622	0.015097451	0.155757615	0.048006010
2020-01-03T07:30:00	0.2610	0.730		0.671320061	0.846952781	0.015016576	0.154923248	0.047748850
2020-01-03T07:35:00	0.2607	0.756		0.670376154	0.845513093	0.014976995	0.154514896	0.047622992
2020-01-03T07:40:00	0.2611	0.776		0.671722204	0.847566381	0.015033456	0.155097395	0.047802523
2020-01-03T07:45:00	0.2621	0.797		0.675028913	0.852617104	0.015172632	0.156533250	0.048245068
2020-01-03T07:50:00	0.2627	0.818		0.677026485	0.855672788	0.015257035	0.157404015	0.048513446
2020-01-03T07:55:00	0.2635	0.844		0.679675730	0.859730636	0.015369352	0.158562770	0.048870586
2020-01-03T08:00:00	0.2620	0.867		0.674814612	0.852289493	0.015163592	0.156439985	0.048216323
2020-01-03T08:05:00	0.2613	0.891		0.672236869	0.848351870	0.015055074	0.155320418	0.047871261
2020-01-03T08:10:00	0.2629	0.916		0.677502933	0.856402117	0.015277202	0.157612079	0.048577573
2020-01-03T08:15:00	0.2633	0.943		0.678846349	0.858459624	0.015334143	0.158199526	0.048758630
2020-01-03T08:20:00	0.2620	0.968		0.674637795	0.852019214	0.015156135	0.156363055	0.048192612
2020-01-03T08:25:00	0.2638	0.991		0.680553001	0.861075684	0.015406640	0.158947465	0.048989152
2020-01-03T08:30:00	0.2632	1.015		0.678632273	0.858131651	0.015325062	0.158105838	0.048729755
2020-01-03T08:35:00	0.2639	1.040		0.680954126	0.861690918	0.015423706	0.159123528	0.049043417
2020-01-03T08:40:00	0.2640	1.063		0.681317779	0.862248799	0.015439186	0.159283232	0.049092639
2020-01-03T08:45:00	0.2640	1.085		0.681028988	0.861805754	0.015426892	0.159156397	0.049053547
2020-01-03T08:50:00	0.2646	1.108		0.683023275	0.864866721	0.015511894	0.160033352	0.049323833
2020-01-03T08:55:00	0.2631	1.132		0.678166623	0.857418396	0.015305319	0.157902152	0.048666977
2020-01-03T09:00:00	0.2636	1.157		0.679836150	0.859976545	0.015376167	0.158633079	0.048892256
2020-01-03T09:05:00	0.2638	1.180		0.680526208	0.861034595	0.015405501	0.158935709	0.048985529
2020-01-03T09:10:00	0.2643	1.203		0.682194655	0.863594483	0.015476546	0.159668672	0.049211435
2020-01-03T09:15:00	0.2646	1.225		0.683210321	0.865153988	0.015519879	0.160115732	0.049349224
2020-01-03T09:20:00	0.2639	1.247		0.680964768	0.861707242	0.015424158	0.159128200	0.049044857
2020-01-03T09:25:00	0.2639	1.270		0.681002199	0.861764660	0.015425752	0.159144635	0.049049922
2020-01-03T09:30:00	0.2630	1.298		0.677775842	0.856819965	0.015288760	0.157731323	0.048614326
2020-01-03T09:35:00	0.2629	1.325		0.677486770	0.856377372	0.015276518	0.157605018	0.048575397
2020-01-03T09:40:00	0.2641	1.350		0.681440701	0.862437398	0.015444420	0.159337234	0.049109283
2020-01-03T09:45:00	0.2645	1.373		0.682782668	0.864497239	0.015501626	0.159927414	0.049291182
2020-01-03T09:50:00	0.2644	1.396		0.682493992	0.864054008	0.015489310	0.159800361	0.049252023
2020-01-03T09:55:00	0.2644	1.419		0.682531408	0.864111451	0.015490906	0.159816825	0.049257098
2020-01-03T10:00:00	0.2648	1.443		0.683872974	0.866171939	0.015548185	0.160407763	0.049439230
2020-01-03T10:05:00	0.2652	1.465		0.685214047	0.868233222	0.015605555	0.160999632	0.049621650
2020-01-03T10:10:00	0.2653	1.487		0.685577276	0.868791788	0.015621112	0.161160137	0.049671119
2020-01-03T10:15:00	0.2663	1.508		0.688545902	0.873361142	0.015748569	0.162475086	0.050076400
2020-01-03T10:20:00	0.2655	1.529		0.685977850	0.869407912	0.015638279	0.161337242	0.049725705
2020-01-03T10:25:00	0.2648	1.548		0.683733999	0.865958417	0.015542247	0.160346494	0.049420347
2020-01-03T10:30:00	0.2645	1.566		0.682793304	0.864513572	0.015502079	0.159932096	0.049292625
2020-01-03T10:35:00	0.2660	1.582		0.687718534	0.872086879	0.015712992	0.162108038	0.049963272
2020-01-03T10:40:00	0.2664	1.599		0.689058198	0.874150446	0.015770620	0.162702577	0.050146514
2020-01-03T10:45:00	0.2669	1.619		0.690722755	0.876716630	0.015842379	0.163442902	0.050374690
2020-01-03T10:50:00	0.2676	1.638		0.693036941	0.880288306	0.015942429	0.164475103	0.050692824
2020-01-03T10:55:00	0.2669	1.655		0.690472040	0.876329958	0.015831560	0.163331281	0.050340287
2020-01-03T11:00:00	0.2660	1.674		0.687579705	0.871873121	0.015707026	0.162046492	0.049944303
2020-01-03T11:05:00	0.2667	1.692		0.689895879	0.875441567	0.015806711	0.163074921	0.050261274
2020-01-03T11:10:00	0.2657	1.709		0.686677374	0.870484186	0.015668281	0.161646767	0.049821103
2020-01-03T11:15:00	0.2649	1.727		0.684108008	0.866533084	0.015558232	0.160511410	0.049471175
2020-01-03T11:20:00	0.2639	1.745		0.680884399	0.861583962	0.015420738	0.159092915	0.049033982
2020-01-03T11:25:00	0.2630	1.760		0.677984458	0.857139418	0.015297599	0.157822507	0.048642430
2020-01-03T11:30:00	0.2635	1.772		0.679654069	0.859697433	0.015368432	0.158553277	0.048867660
2020-01-03T11:35:00	0.2634	1.786		0.679365145	0.859254601	0.015356162	0.158426692	0.048828645
2020-01-03T11:40:00	0.2644	1.798		0.682338823	0.863815792	0.015482693	0.159732089	0.049230981
2020-01-03T11:45:00	0.2637	1.811		0.680092733	0.860369911	0.015387071	0.158745570	0.048926926
2020-01-03T11:50:00	0.2630	1.824		0.677845259	0.856926259	0.015291701	0.157761662	0.048623676
2020-01-03T11:55:00	0.2631	1.837		0.678209223	0.857483640	0.015307124	0.157920781	0.048672718
2020-01-03T12:00:00	0.2621	1.849		0.674980391	0.852542923	0.015170585	0.156512130	0.048238559
2020-01-03T12:05:00	0.2622	1.861		0.675344641	0.853099845	0.015185956	0.156670711	0.048287435
2020-01-03T12:10:00	0.2613	1.873		0.672440284	0.848662389	0.015063622	0.155408613	0.047898444
2020-01-03T12:15:00	0.2616	1.887		0.673458672	0.850217520	0.015106458	0.155850546	0.048034652
2020-01-03T12:20:00	0.2607	1.897		0.670552808	0.845782475	0.014984398	0.154591277	0.047646533
2020-01-03T12:25:00	0.2591	1.910		0.665024184	0.837364491	0.014753605	0.152210219	0.046912668
2020-01-03T12:30:00	0.2595	1.926		0.666372219	0.839414617	0.014809706	0.152789002	0.047091054
2020-01-03T12:35:00	0.2584	1.941		0.662804987	0.833992875	0.014661492	0.151259908	0.046619773
2020-01-03T12:40:00	0.2588	1.954		0.664153848	0.836041691	0.014717443	0.151837150	0.046797684
2020-01-03T12:45:00	0.2582	1.966		0.662224432	0.833111535	0.014637444	0.151011814	0.046543308
2020-01-03T12:50:00	0.2575	1.979		0.659965870	0.829685566	0.014544088	0.150048675	0.046246459
2020-01-03T12:55:00	0.2564	1.995		0.656392317	0.824273825	0.014397016	0.148531356	0.045778807
2020-01-03T13:00:00	0.2558	2.008		0.654458755	0.821350215	0.014317764	0.147713733	0.045526807
2020-01-03T13:05:00	0.2547	2.020		0.650879746	0.815947057	0.014171673	0.146206539	0.045062275
2020-01-03T13:10:00	0.2557	2.034		0.653876857	0.820470991	0.014293958	0.147468135	0.045451111
2020-01-03T13:15:00	0.2558	2.047		0.654243234	0.821024538	0.014308945	0.147622745	0.045498764
2020-01-03T13:20:00	0.2550	2.058		0.651650807	0.817110188	0.014203081	0.146530567	0.045162144
2020-01-03T13:25:00	0.2546	2.069		0.650372769	0.815182566	0.014151042	0.145993693	0.044996674
2020-01-03T13:30:00	0.2543	2.083		0.649423382	0.813751540	0.014112450	0.145595544	0.044873961
2020-01-03T13:35:00	0.2547	2.098		0.650777246	0.815792475	0.014167501	0.146163493	0.045049008
2020-01-03T13:40:00	0.2534	2.112		0.646535932	0.809403959	0.013995414	0.144388104	0.044501816
2020-01-03T13:45:00	0.2519	2.129		0.641630068	0.802033561	0.013797730	0.142348641	0.043873234
2020-01-03T13:50:00	0.2527	2.150		0.643975767	0.805555103	0.013892068	0.143321908	0.044173204
2020-01-03T13:55:00	0.2516	2.169		0.640386319	0.800168248	0.013747846	0.141833991	0.043714613
2020-01-03T14:00:00	0.2515	2.190		0.640094242	0.799730396	0.013736145	0.141713273	0.043677407
2020-01-03T14:05:00	0.2521	2.211		0.642111200	0.802755492	0.013817053	0.142547989	0.043934675
2020-01-03T14:10:00	0.2525	2.229		0.643467816	0.804792132	0.013871611	0.143110859	0.044108157
2020-01-03T14:15:00	0.2535	2.247		0.646800442	0.809801932	0.014006114	0.144498496	0.044535840
2020-01-03T14:20:00	0.2539	2.264		0.648155292	0.811841326	0.014060988	0.145064623	0.044710326
2020-01-03T14:25:00	0.2526	2.277		0.643910886	0.805457637	0.013889455	0.143294942	0.044164893
2020-01-03T14:30:00	0.2528	2.287		0.644607824	0.806504795	0.013917545	0.143584749	0.044254214
2020-01-03T14:35:00	0.2534	2.296		0.646292890	0.809038340	0.013985586	0.144286711	0.044470566
2020-01-03T14:40:00	0.2524	2.306		0.643035445	0.804142859	0.013854211	0.142931340	0.044052827
2020-01-03T14:45:00	0.2522	2.316		0.642413868	0.803209741	0.013829216	0.142673468	0.043973348
2020-01-03T14:50:00	0.2509	2.326		0.638162675	0.796836610	0.013658894	0.140916287	0.043431768
2020-01-03T14:55:00	0.2532	2.334		0.645785267	0.808274860	0.013965071	0.144075058	0.044405332
2020-01-03T15:00:00	0.2552	2.340		0.652405428	0.818249011	0.014233854	0.146848048	0.045259995
2020-01-03T15:05:00	0.2550	2.346		0.651785466	0.817313371	0.014208570	0.146587194	0.045179597
2020-01-03T15:10:00	0.2551	2.351		0.652152055	0.817866584	0.014223518	0.146741410	0.045227128
2020-01-03T15:15:00	0.2554	2.355		0.653176163	0.819412654	0.014265320	0.147172679	0.045360049
2020-01-03T15:20:00	0.2554	2.359		0.652885122	0.818973187	0.014253434	0.147050050	0.045322254
2020-01-03T15:25:00	0.2548	2.362		0.650949680	0.816052530	0.014174520	0.146235912	0.045071328
2020-01-03T15:30:00	0.2547	2.366		0.650658460	0.815613344	0.014162666	0.146113616	0.045033635
2020-01-03T15:35:00	0.2561	2.370		0.655298901	0.822620151	0.014352171	0.148068706	0.045636213
2020-01-03T15:40:00	0.2561	2.373		0.655336598	0.822677146	0.014353716	0.148084644	0.045641126
2020-01-03T15:45:00	0.2573	2.380		0.659314717	0.828698653	0.014517231	0.149771596	0.046161061
2020-01-03T15:50:00	0.2578	2.386		0.660992931	0.831242953	0.014586502	0.150486254	0.046381325
2020-01-03T15:55:00	0.2581	2.391		0.662014536	0.832792965	0.014628755	0.150922171	0.046515679
2020-01-03T16:00:00	0.2579	2.394		0.661068205	0.831357131	0.014589613	0.150518351	0.046391218
2020-01-03T16:05:00	0.2589	2.400		0.664587817	0.836701188	0.014735468	0.152023111	0.046854999
2020-01-03T16:10:00	0.2574	2.406		0.659581749	0.829103333	0.014528242	0.149885191	0.046196072
2020-01-03T16:15:00	0.2563	2.410		0.655882988	0.823503392	0.014376117	0.148315753	0.045712356
2020-01-03T16:20:00	0.2561	2.417		0.655467324	0.822874806	0.014359074	0.148139921	0.045658162
2020-01-03T16:25:00	0.2561	2.421		0.655380174	0.822743032	0.014355502	0.148103069	0.045646804
2020-01-03T16:30:00	0.2551	2.428		0.652005975	0.817646124	0.014217560	0.146679947	0.045208184
2020-01-03T16:35:00	0.2562	2.435		0.655534415	0.822976254	0.014361824	0.148168294	0.045666907
2020-01-03T16:40:00	0.2565	2.441		0.656761192	0.824831938	0.014412161	0.148687606	0.045826964
2020-01-03T16:45:00	0.2570	2.452		0.658315847	0.827185436	0.014476083	0.149347078	0.046030220
2020-01-03T16:50:00	0.2574	2.464		0.659541680	0.829042607	0.014526589	0.149868143	0.046190817
2020-01-03T16:55:00	0.2572	2.482		0.658798215	0.827916083	0.014495946	0.149552005	0.046093380
2020-01-03T17:00:00	0.2549	2.498		0.651482541	0.816856319	0.014196224	0.146459824	0.045140340
2020-01-03T17:05:00	0.2549	2.513		0.651395295	0.816724697	0.014192669	0.146423150	0.045129037
2020-01-03T17:10:00	0.2544	2.522		0.649663081	0.814112771	0.014122188	0.145696014	0.044904927
2020-01-03T17:15:00	0.2533	2.530		0.645954134	0.808528817	0.013971893	0.144145450	0.044427027
2020-01-03T17:20:00	0.2543	2.547		0.649488499	0.813849667	0.014115095	0.145622834	0.044882372
2020-01-03T17:25:00	0.2556	2.563		0.653676864	0.820168877	0.014285781	0.147383774	0.045425111
2020-01-03T17:30:00	0.2534	2.578		0.646350789	0.809125436	0.013987927	0.144310862	0.044478009
2020-01-03T17:35:00	0.2533	2.587		0.646263418	0.808994008	0.013984394	0.144274418	0.044466777
2020-01-03T17:40:00	0.2541	2.606		0.648810176	0.812827654	0.014087553	0.145338682	0.044794793
2020-01-03T17:45:00	0.2538	2.621		0.647735268	0.811208916	0.014043964	0.144888992	0.044656194
2020-01-03T17:50:00	0.2543	2.633		0.649293816	0.813556303	0.014107187	0.145541251	0.044857227
2020-01-03T17:55:00	0.2545	2.646		0.650193711	0.814912611	0.014143759	0.145918557	0.044973516
2020-01-03T18:00:00	0.2538	2.658		0.647802503	0.811310139	0.014046689	0.144917099	0.044664857
2020-01-03T18:05:00	0.2531	2.663		0.645409707	0.807710149	0.013949903	0.143918574	0.044357102
2020-01-03T18:10:00	0.2521	2.672		0.642026154	0.802627867	0.013813636	0.142512741	0.043923811
2020-01-03T18:15:00	0.2514	2.676		0.639959482	0.799528401	0.013730748	0.141657594	0.043660246
2020-01-03T18:20:00	0.2506	2.674		0.637231265	0.795442346	0.013621724	0.140532812	0.043313577
2020-01-03T18:25:00	0.2504	2.673		0.636483179	0.794323040	0.013591908	0.140225208	0.043218771
2020-01-03T18:30:00	0.2498	2.673		0.634413311	0.791228522	0.013509588	0.139375928	0.042957014
2020-01-03T18:35:00	0.2479	2.672		0.628372142	0.782217534	0.013270811	0.136912513	0.042197766
2020-01-03T18:40:00	0.2488	2.677		0.631262397	0.786524774	0.013384773	0.138088231	0.042560134
2020-01-03T18:45:00	0.2504	2.678		0.636463016	0.794292878	0.013591105	0.140216922	0.043216217
2020-01-03T18:50:00	0.2485	2.681		0.630425307	0.785276563	0.013351714	0.137747177	0.042455018
2020-01-03T18:55:00	0.2479	2.694		0.628351933	0.782187443	0.013270016	0.136904310	0.042195238
2020-01-03T19:00:00	0.2481	2.707		0.628926133	0.783042580	0.013292616	0.137137465	0.042267099
2020-01-03T19:05:00	0.2476	2.718		0.627183041	0.780447513	0.013224072	0.136430316	0.042049148
2020-01-03T19:10:00	0.2470	2.725		0.625439098	0.777853749	0.013155679	0.135724717	0.041831676
2020-01-03T19:15:00	0.2456	2.723		0.620709919	0.770832972	0.012971137	0.133820830	0.041244879
2020-01-03T19:20:00	0.2458	2.716		0.621285349	0.771686228	0.012993519	0.134051744	0.041316050
2020-01-03T19:25:00	0.2457	2.711		0.620865658	0.771063877	0.012977193	0.133883306	0.041264135
2020-01-03T19:30:00	0.2463	2.714		0.623099023	0.774377395	0.013064196	0.134780902	0.041540783
2020-01-03T19:35:00	0.2448	2.721		0.618034767	0.766869886	0.012867345	0.132750022	0.040914846
2020-01-03T19:40:00	0.2439	2.729		0.614957498	0.762318541	0.012748483	0.131523754	0.040536898
2020-01-03T19:45:00	0.2433	2.737		0.612875109	0.759243163	0.012668373	0.130697272	0.040282169
2020-01-03T19:50:00	0.2426	2.745		0.610791499	0.756169632	0.012588477	0.129872998	0.040028119
2020-01-03T19:55:00	0.2434	2.749		0.613363629	0.759964307	0.012687143	0.130890920	0.040341853
2020-01-03T20:00:00	0.2423	2.760		0.609616830	0.754438486	0.012543549	0.129409486	0.039885260
2020-01-03T20:05:00	0.2415	2.781		0.606865306	0.750388015	0.012438635	0.128327108	0.039551661
2020-01-03T20:10:00	0.2429	2.806		0.611769045	0.757611155	0.012625929	0.130259379	0.040147206
2020-01-03T20:15:00	0.2408	2.836		0.604689770	0.747189941	0.012356005	0.127474625	0.039288917
2020-01-03T20:20:00	0.2401	2.858		0.602267898	0.743634414	0.012264352	0.126529056	0.038997484
2020-01-03T20:25:00	0.2405	2.883		0.603846409	0.745951253	0.012324049	0.127144941	0.039187306
2020-01-03T20:30:00	0.2381	2.899		0.595749175	0.734088725	0.012019401	0.124001945	0.038218604
2020-01-03T20:35:00	0.2394	2.910		0.600001024	0.740310888	0.012178882	0.125647285	0.038725714
2020-01-03T20:40:00	0.2398	2.929		0.601247002	0.742137118	0.012225822	0.126131554	0.038874970
2020-01-03T20:45:00	0.2394	2.948		0.600157674	0.740540418	0.012184779	0.125708117	0.038744463
2020-01-03T20:50:00	0.2380	2.968		0.595394683	0.733570643	0.012006153	0.123865271	0.038176479
2020-01-03T20:55:00	0.2392	2.992		0.599313232	0.739303347	0.012153011	0.125380374	0.038643449
2020-01-03T21:00:00	0.2392	3.007		0.599224702	0.739173688	0.012149683	0.125346040	0.038632867
2020-01-03T21:05:00	0.2394	3.026		0.600137304	0.740510570	0.012184012	0.125700206	0.038742024
2020-01-03T21:10:00	0.2402	3.043		0.602717171	0.744293616	0.012281327	0.126704192	0.039051462
2020-01-03T21:15:00	0.2414	3.056		0.606627624	0.750038425	0.012429594	0.128233830	0.039522912
2020-01-03T21:20:00	0.2407	3.066		0.604207076	0.746480910	0.012337710	0.127285878	0.039230744
2020-01-03T21:25:00	0.2428	3.078		0.611443465	0.757130954	0.012613449	0.130130626	0.040107523
2020-01-03T21:30:00	0.2432	3.093		0.612685429	0.758963215	0.012661089	0.130622124	0.040259007
2020-01-03T21:35:00	0.2436	3.114		0.613926959	0.760796133	0.012708806	0.131114406	0.040410733
2020-01-03T21:40:00	0.2435	3.135		0.613838793	0.760665927	0.012705414	0.131079415	0.040399949
2020-01-03T21:45:00	0.2441	3.158		0.615744382	0.763481600	0.012778823	0.131836761	0.040633370
2020-01-03T21:50:00	0.2452	3.180		0.619308676	0.768756357	0.012916717	0.133259386	0.041071837
2020-01-03T21:55:00	0.2443	3.198		0.616232508	0.764203340	0.012797662	0.132031122	0.040693274
2020-01-03T22:00:00	0.2449	3.213		0.618468778	0.767512439	0.012884154	0.132923445	0.040968297
2020-01-03T22:05:00	0.2450	3.231		0.618674579	0.767817182	0.012892129	0.133005720	0.040993655
2020-01-03T22:10:00	0.2445	3.253		0.616888367	0.765173405	0.012822998	0.132292503	0.040773834
2020-01-03T22:15:00	0.2445	3.276		0.617094260	0.765478010	0.012830956	0.132374613	0.040799141
2020-01-03T22:20:00	0.2447	3.297		0.617632179	0.766273997	0.012851762	0.132589259	0.040865297
2020-01-03T22:25:00	0.2455	3.309		0.620161303	0.770019737	0.012949816	0.133600867	0.041177085
2020-01-03T22:30:00	0.2445	3.318		0.617047771	0.765409230	0.012829159	0.132356071	0.040793426
2020-01-03T22:35:00	0.2434	3.327		0.613266713	0.759821226	0.012683419	0.130852491	0.040330009
2020-01-03T22:40:00	0.2442	3.342		0.616131119	0.764053410	0.012793748	0.131990739	0.040680828
2020-01-03T22:45:00	0.2440	3.358		0.615340482	0.762884547	0.012763245	0.131676049	0.040583837
2020-01-03T22:50:00	0.2430	3.368		0.611890183	0.757789846	0.012630574	0.130307301	0.040161976
2020-01-03T22:55:00	0.2416	3.381		0.607437739	0.751230160	0.012460424	0.128551902	0.039620945
2020-01-03T23:00:00	0.2430	3.393		0.611969998	0.757907587	0.012633635	0.130338881	0.040171709
2020-01-03T23:05:00	0.2436	3.405		0.614170816	0.761156301	0.012718189	0.131211211	0.040440569
2020-01-03T23:10:00	0.2424	3.414		0.610053980	0.755082592	0.012560259	0.129581881	0.039938394
2020-01-03T23:15:00	0.2440	3.427		0.615247459	0.762747058	0.012759659	0.131639050	0.040572434
2020-01-03T23:20:00	0.2434	3.439		0.613459525	0.760105891	0.012690830	0.130928950	0.040353574
2020-01-03T23:25:00	0.2433	3.446		0.613000766	0.759428637	0.012673200	0.130747068	0.040297516
2020-01-03T23:30:00	0.2431	3.454		0.612209433	0.758260828	0.012642820	0.130433639	0.040200914
2020-01-03T23:35:00	0.2434	3.465		0.613412989	0.760037183	0.012689041	0.130910495	0.040347886
2020-01-03T23:40:00	0.2424	3.473		0.609960818	0.754945312	0.012556697	0.129545132	0.039927068
2020-01-03T23:45:00	0.2429	3.482		0.611830330	0.757701555	0.012628279	0.130283623	0.040154678
2020-01-03T23:50:00	0.2432	3.491		0.612701546	0.758987002	0.012661708	0.130628509	0.040260975
2020-01-03T23:55:00	0.2448	3.500		0.617891163	0.766657315	0.012861785	0.132692666	0.040897168
2020-01-04T00:00:00	0.2473	3.511		0.626386861	0.779263036	0.013192825	0.136107946	0.041949791
2020-01-04T00:05:00	0.2489	3.529		0.631556617	0.786963636	0.013396402	0.138208208	0.042597112
2020-01-04T00:10:00	0.2509	3.540		0.638039695	0.796652474	0.013653983	0.140865623	0.043416153
2020-01-04T00:15:00	0.2516	3.552		0.640554431	0.800420298	0.013754583	0.141903497	0.043736036
2020-01-04T00:20:00	0.2536	3.559		0.647021294	0.810134264	0.014015051	0.144590701	0.044564258
2020-01-04T00:25:00	0.2553	3.563		0.652819062	0.818873446	0.014250737	0.147022223	0.045313677
2020-01-04T00:30:00	0.2551	3.565		0.652036480	0.817692160	0.014218804	0.146692781	0.045212140
2020-01-04T00:35:00	0.2568	3.567		0.657497861	0.825946879	0.014442432	0.148999905	0.045923218
2020-01-04T00:40:00	0.2583	3.566		0.662623128	0.833716763	0.014653957	0.151182169	0.046595813
2020-01-04T00:45:00	0.2608	3.566		0.670686803	0.845986823	0.014990015	0.154649226	0.047664393
2020-01-04T00:50:00	0.2624	3.564		0.676120170	0.854285975	0.015218710	0.157008627	0.048391584
2020-01-04T00:55:00	0.2646	3.559		0.683176015	0.865101298	0.015518414	0.160100621	0.049344566
2020-01-04T01:00:00	0.2645	3.552		0.682726050	0.864410302	0.015499210	0.159902491	0.049283501
2020-01-04T01:05:00	0.2643	3.543		0.682276030	0.863719397	0.015480015	0.159704466	0.049222467
2020-01-04T01:10:00	0.2627	3.538		0.676930233	0.855525474	0.015252962	0.157361999	0.048500496
2020-01-04T01:15:00	0.2648	3.533		0.683658527	0.865842470	0.015539022	0.160313226	0.049410093
2020-01-04T01:20:00	0.2650	3.527		0.684512545	0.867154792	0.015575532	0.160689888	0.049526184
2020-01-04T01:25:00	0.2661	3.523		0.687972204	0.872477503	0.015723895	0.162220528	0.049997942
2020-01-04T01:30:00	0.2662	3.518		0.688499661	0.873289910	0.015746580	0.162454561	0.050070073
2020-01-04T01:35:00	0.2660	3.512		0.687724730	0.872096420	0.015713258	0.162110786	0.049964118
2020-01-04T01:40:00	0.2649	3.505		0.684017112	0.866393411	0.015554346	0.160471322	0.049458820
2020-01-04T01:45:00	0.2648	3.500		0.683893243	0.866203083	0.015549052	0.160416700	0.049441985
2020-01-04T01:50:00	0.2642	3.494		0.681812914	0.863008567	0.015460276	0.159500813	0.049159700
2020-01-04T01:55:00	0.2643	3.487		0.682015130	0.863318923	0.015468893	0.159589720	0.049187102
2020-01-04T02:00:00	0.2628	3.479		0.677322140	0.856125344	0.015269548	0.157533110	0.048553234
2020-01-04T02:05:00	0.2620	3.470		0.674584493	0.851937743	0.015153888	0.156339868	0.048185466
2020-01-04T02:10:00	0.2630	3.462		0.678053575	0.857245265	0.015300528	0.157852724	0.048651743
2020-01-04T02:15:00	0.2620	3.453		0.674662928	0.852057630	0.015157195	0.156373988	0.048195982
2020-01-04T02:20:00	0.2615	3.444		0.672904297	0.849370850	0.015083132	0.155609891	0.047960480
2020-01-04T02:25:00	0.2603	3.436		0.669181562	0.843692143	0.014926980	0.153998903	0.047463958
2020-01-04T02:30:00	0.2606	3.427		0.670038980	0.844999005	0.014962869	0.154369165	0.047578076
2020-01-04T02:35:00	0.2606	3.422		0.669914635	0.844809442	0.014957662	0.154315440	0.047561517
2020-01-04T02:40:00	0.2604	3.417		0.669463029	0.844121081	0.014938757	0.154120399	0.047501404
2020-01-04T02:45:00	0.2594	3.409		0.666064355	0.838946272	0.014796883	0.152656718	0.047050283
2020-01-04T02:50:00	0.2595	3.404		0.666594995	0.839753569	0.014818988	0.152884762	0.047120569
2020-01-04T02:55:00	0.2599	3.399		0.667780463	0.841557973	0.014868431	0.153394866	0.047277787
2020-01-04T03:00:00	0.2598	3.395		0.667328591	0.840870035	0.014849574	0.153200321	0.047217827
2020-01-04T03:05:00	0.2574	3.389		0.659664375	0.829228563	0.014531650	0.149920349	0.046206908
2020-01-04T03:10:00	0.2572	3.383		0.658883275	0.828044945	0.014499450	0.149588157	0.046104523
2020-01-04T03:15:00	0.2561	3.377		0.655474654	0.822885890	0.014359375	0.148143021	0.045659118
2020-01-04T03:20:00	0.2550	3.371		0.651733950	0.817235638	0.014206470	0.146565529	0.045172919
2020-01-04T03:25:00	0.2552	3.367		0.652266695	0.818039609	0.014228194	0.146789654	0.045241997
2020-01-04T03:30:00	0.2536	3.363		0.647205731	0.810411831	0.014022517	0.144667726	0.044587998
2020-01-04T03:35:00	0.2532	3.357		0.645763141	0.808241587	0.013964177	0.144065837	0.044402490
2020-01-04T03:40:00	0.2529	3.352		0.644649514	0.806567449	0.013919227	0.143602095	0.044259560
2020-01-04T03:45:00	0.2519	3.347		0.641557226	0.801924280	0.013794806	0.142318473	0.043863936
2020-01-04T03:50:00	0.2520	3.342		0.641761703	0.802231058	0.013803016	0.142403167	0.043890039
2020-01-04T03:55:00	0.2521	3.337		0.642295926	0.803032723	0.013824475	0.142624565	0.043958276
2020-01-04T04:00:00	0.2518	3.331		0.641181224	0.801360257	0.013779717	0.142162802	0.043815956
2020-01-04T04:05:00	0.2534	3.326		0.646443082	0.809264275	0.013991659	0.144349364	0.044489876
2020-01-04T04:10:00	0.2547	3.321		0.650710476	0.815691783	0.014164783	0.146135456	0.045040367
2020-01-04T04:15:00	0.2544	3.315		0.649711646	0.814185964	0.014124162	0.145716375	0.044911202
2020-01-04T04:20:00	0.2545	3.312		0.650028918	0.814664186	0.014137058	0.145849425	0.044952209
2020-01-04T04:25:00	0.2554	3.307		0.652977248	0.819112288	0.014257196	0.147088861	0.045334216
2020-01-04T04:30:00	0.2564	3.302		0.656251654	0.824061030	0.014391243	0.148471796	0.045760450
2020-01-04T04:35:00	0.2565	3.299		0.656568352	0.824540154	0.014404242	0.148605911	0.045801785
2020-01-04T04:40:00	0.2568	3.295		0.657541783	0.826013369	0.014444238	0.149018536	0.045928960
2020-01-04T04:45:00	0.2580	3.291		0.661468106	0.831963793	0.014606147	0.150688928	0.046443791
2020-01-04T04:50:00	0.2576	3.285		0.660144147	0.829955831	0.014551446	0.150124582	0.046269854
2020-01-04T04:55:00	0.2587	3.280		0.663739876	0.835412732	0.014700260	0.151659869	0.046743044
2020-01-04T05:00:00	0.2586	3.276		0.663400339	0.834896976	0.014686174	0.151514545	0.046698254
2020-01-04T05:05:00	0.2590	3.273		0.664699651	0.836871166	0.014740115	0.152071052	0.046869775
2020-01-04T05:10:00	0.2602	3.268		0.668618228	0.842833865	0.014903425	0.153755891	0.047389059
2020-01-04T05:15:00	0.2615	3.264		0.672859561	0.849302539	0.015081250	0.155590480	0.047954497
2020-01-04T05:20:00	0.2618	3.259		0.674155493	0.851282114	0.015135805	0.156153314	0.048127968
2020-01-04T05:25:00	0.2623	3.254		0.675777682	0.853762093	0.015204241	0.156859350	0.048345575
2020-01-04T05:30:00	0.2627	3.247		0.677072575	0.855743333	0.015258985	0.157424136	0.048519648
2020-01-04T05:35:00	0.2628	3.242		0.677387460	0.856225339	0.015272313	0.157561639	0.048562027
2020-01-04T05:40:00	0.2641	3.236		0.681618592	0.862710361	0.015451997	0.159415402	0.049133375
2020-01-04T05:45:00	0.2642	3.232		0.681933085	0.863192999	0.015465396	0.159553645	0.049175983
2020-01-04T05:50:00	0.2655	3.224		0.686158952	0.869686511	0.015646043	0.161417346	0.049750394
2020-01-04T05:55:00	0.2661	3.216		0.688101429	0.872676518	0.015729451	0.162277849	0.050015609
2020-01-04T06:00:00	0.2659	3.211		0.687438510	0.871655737	0.015700960	0.161983910	0.049925014
2020-01-04T06:05:00	0.2672	3.205		0.691658022	0.878159547	0.015882774	0.163859648	0.050503135
2020-01-04T06:10:00	0.2671	3.201		0.691321078	0.877639627	0.015868215	0.163709444	0.050456841
2020-01-04T06:15:00	0.2674	3.194		0.692285256	0.879127659	0.015909895	0.164139451	0.050589373
2020-01-04T06:20:00	0.2685	3.188		0.695849420	0.884635282	0.016064470	0.165734179	0.051080884
2020-01-04T06:25:00	0.2705	3.181		0.702330361	0.894678368	0.016347570	0.168654867	0.051981068
2020-01-04T06:30:00	0.2716	3.176		0.705884796	0.900201934	0.016503946	0.170268172	0.052478304
2020-01-04T06:35:00	0.2711	3.168		0.704252693	0.897664294	0.016432045	0.169526374	0.052249675
2020-01-04T06:40:00	0.2724	3.160		0.708452937	0.904199647	0.016617422	0.171438878	0.052839127
2020-01-04T06:45:00	0.2725	3.153		0.708765137	0.904686027	0.016631245	0.171581487	0.052883081
2020-01-04T06:50:00	0.2727	3.147		0.709401046	0.905676978	0.016659419	0.171872155	0.052972667
2020-01-04T06:55:00	0.2745	3.138		0.715211840	0.914748403	0.016918042	0.174540320	0.053795022
2020-01-04T07:00:00	0.2738	3.130		0.712937096	0.911193717	0.016816547	0.173493218	0.053472295
2020-01-04T07:05:00	0.2750	3.125		0.716804415	0.917239769	0.016989293	0.175275401	0.054021581
2020-01-04T07:10:00	0.2748	3.119		0.716146650	0.916210517	0.016959845	0.174971599	0.053927946
2020-01-04T07:15:00	0.2752	3.110		0.717427380	0.918214914	0.017017207	0.175563388	0.054110341
2020-01-04T07:20:00	0.2756	3.106		0.718707666	0.920220051	0.017074652	0.176156033	0.054293000
2020-01-04T07:25:00	0.2758	3.102		0.719341865	0.921213841	0.017103145	0.176449998	0.054383603
2020-01-04T07:30:00	0.2760	3.093		0.719975956	0.922207813	0.017131660	0.176744173	0.054474271
2020-01-04T07:35:00	0.2760	3.083		0.719964403	0.922189700	0.017131140	0.176738811	0.054472618
2020-01-04T07:40:00	0.2770	3.074		0.723501916	0.927741361	0.017290678	0.178384735	0.054979908
2020-01-04T07:45:00	0.2765	3.066		0.721877578	0.925190817	0.017217324	0.177627960	0.054746662
2020-01-04T07:50:00	0.2762	3.057		0.720898013	0.923653815	0.017173168	0.177172410	0.054606257
2020-01-04T07:55:00	0.2768	3.054		0.722822251	0.926673866	0.017259965	0.178067872	0.054882248
2020-01-04T08:00:00	0.2770	3.051		0.723455747	0.927668834	0.017288591	0.178363201	0.054973271
2020-01-04T08:05:00	0.2779	3.051		0.726345506	0.932211947	0.017419492	0.179713684	0.055389503
2020-01-04T08:10:00	0.2780	3.046		0.726656201	0.932700839	0.017433597	0.179859205	0.055434354
2020-01-04T08:15:00	0.2782	3.045		0.727289042	0.933696905	0.017462346	0.180155805	0.055525769
2020-01-04T08:20:00	0.2777	3.046		0.725666362	0.931143578	0.017388680	0.179395809	0.055291531
2020-01-04T08:25:00	0.2779	3.041		0.726299372	0.932139361	0.017417398	0.179692081	0.055382845
2020-01-04T08:30:00	0.2773	3.040		0.724353860	0.929080012	0.017329217	0.178782339	0.055102453
2020-01-04T08:35:00	0.2781	3.038		0.726920743	0.933117175	0.017445612	0.179983159	0.055472558
2020-01-04T08:40:00	0.2776	3.037		0.725297902	0.930564119	0.017371976	0.179223476	0.055238416
2020-01-04T08:45:00	0.2789	3.040		0.729474330	0.937139157	0.017561815	0.181182010	0.055842055
2020-01-04T08:50:00	0.2784	3.048		0.727852605	0.934584224	0.017487969	0.180420155	0.055607244
2020-01-04T08:55:00	0.2792	3.053		0.730417072	0.938625452	0.017604820	0.181625678	0.055978798
2020-01-04T09:00:00	0.2801	3.063		0.733301425	0.943177671	0.017736742	0.182986693	0.056398276
2020-01-04T09:05:00	0.2794	3.074		0.731037755	0.939604425	0.017633163	0.181918097	0.056068924
2020-01-04T09:10:00	0.2800	3.083		0.732956747	0.942633299	0.017720949	0.182823768	0.056348061
2020-01-04T09:15:00	0.2805	3.089		0.734553234	0.945155608	0.017794159	0.183579061	0.056580850
2020-01-04T09:20:00	0.2813	3.097		0.737113091	0.949204632	0.017911883	0.184793593	0.056955180
2020-01-04T09:25:00	0.2814	3.104		0.737422887	0.949695041	0.017926158	0.184940868	0.057000572
2020-01-04T09:30:00	0.2813	3.108		0.737090090	0.949168226	0.017910823	0.184782662	0.056951811
2020-01-04T09:35:00	0.2816	3.113		0.738042404	0.950675989	0.017954723	0.185235568	0.057091401
2020-01-04T09:40:00	0.2809	3.116		0.735781614	0.947097864	0.017850599	0.184161336	0.056760312
2020-01-04T09:45:00	0.2804	3.120		0.734162635	0.944538289	0.017776233	0.183394116	0.056523848
2020-01-04T09:50:00	0.2802	3.127		0.733507940	0.943503882	0.017746207	0.183084348	0.056428374
2020-01-04T09:55:00	0.2789	3.136		0.729312996	0.936884880	0.017554461	0.181106141	0.055818672
2020-01-04T10:00:00	0.2792	3.141		0.730589187	0.938896886	0.017612677	0.181706740	0.056003782
2020-01-04T10:05:00	0.2779	3.146		0.726177247	0.931947218	0.017411855	0.179634901	0.055365221
2020-01-04T10:10:00	0.2775	3.151		0.724985049	0.930072204	0.017357800	0.179077220	0.055193338
2020-01-04T10:15:00	0.2757	3.155		0.719275240	0.921109422	0.017100151	0.176419103	0.054374081
2020-01-04T10:20:00	0.2761	3.157		0.720340851	0.922779965	0.017148080	0.176913578	0.054526483
2020-01-04T10:25:00	0.2751	3.157		0.717209065	0.917873141	0.017007422	0.175462436	0.054079227
2020-01-04T10:30:00	0.2741	3.161		0.714074625	0.912970740	0.016867261	0.174016423	0.053633552
2020-01-04T10:35:00	0.2741	3.163		0.713848641	0.912617623	0.016857180	0.173912416	0.053601496
2020-01-04T10:40:00	0.2722	3.162		0.707797754	0.903179207	0.016588433	0.171139804	0.052746950
2020-01-04T10:45:00	0.2702	3.162		0.701412508	0.893253815	0.016307317	0.168239588	0.051853075
2020-01-04T10:50:00	0.2694	3.160		0.698913945	0.889379630	0.016198009	0.167111868	0.051505501
2020-01-04T10:55:00	0.2698	3.160		0.699985454	0.891040411	0.016244838	0.167594999	0.051654407
2020-01-04T11:00:00	0.2678	3.163		0.693586611	0.881137338	0.015966242	0.164720778	0.050768543
2020-01-04T11:05:00	0.2686	3.163		0.696284417	0.885308227	0.016083390	0.165929369	0.051141043
2020-01-04T11:10:00	0.2656	3.160		0.686297465	0.869899614	0.015651983	0.161478627	0.049769281
2020-01-04T11:15:00	0.2659	3.159		0.687372669	0.871554374	0.015698132	0.161954731	0.049916021
2020-01-04T11:20:00	0.2649	3.156		0.684212672	0.866693922	0.015562707	0.160557577	0.049485405
2020-01-04T11:25:00	0.2620	3.156		0.674519456	0.851838338	0.015151146	0.156311578	0.048176747
2020-01-04T11:30:00	0.2610	3.158		0.671348292	0.846995852	0.015017761	0.154935470	0.047752617
2020-01-04T11:35:00	0.2589	3.161		0.664571300	0.836676083	0.014734782	0.152016031	0.046852817
2020-01-04T11:40:00	0.2586	3.164		0.663686710	0.835331968	0.014698054	0.151637109	0.046736030
2020-01-04T11:45:00	0.2584	3.162		0.662801905	0.833988195	0.014661364	0.151258590	0.046619366
2020-01-04T11:50:00	0.2577	3.156		0.660604831	0.830654350	0.014570467	0.150320826	0.046330338
2020-01-04T11:55:00	0.2562	3.157		0.655779290	0.823346562	0.014371865	0.148271877	0.045698833
2020-01-04T12:00:00	0.2564	3.164		0.656206675	0.823992989	0.014389397	0.148452754	0.045754580
2020-01-04T12:05:00	0.2545	3.177		0.650059365	0.814710083	0.014138296	0.145862197	0.044956146
2020-01-04T12:10:00	0.2532	3.200		0.645878581	0.808415191	0.013968841	0.144113954	0.044417320
2020-01-04T12:15:00	0.2528	3.232		0.644330349	0.806087836	0.013906358	0.143469330	0.044218641
2020-01-04T12:20:00	0.2526	3.260		0.643770407	0.805246615	0.013883796	0.143236564	0.044146900
2020-01-04T12:25:00	0.2531	3.293		0.645517249	0.807871841	0.013954245	0.143963374	0.044370910
2020-01-04T12:30:00	0.2539	3.329		0.647921757	0.811489684	0.014051522	0.144966958	0.044680224
2020-01-04T12:35:00	0.2515	3.336		0.640110947	0.799755436	0.013736814	0.141720176	0.043679535
2020-01-04T12:40:00	0.2512	3.324		0.639220338	0.798420760	0.013701166	0.141352401	0.043566183
2020-01-04T12:45:00	0.2518	3.319		0.641299240	0.801537274	0.013784452	0.142211653	0.043831013
2020-01-04T12:50:00	0.2496	3.315		0.633804539	0.790319079	0.013485426	0.139126654	0.042880186
2020-01-04T12:55:00	0.2482	3.313		0.629273848	0.783560554	0.013306311	0.137278755	0.042310646
2020-01-04T13:00:00	0.2476	3.314		0.627387328	0.780751516	0.013232096	0.136513094	0.042074661
2020-01-04T13:05:00	0.2468	3.316		0.624505797	0.776466707	0.013119153	0.135347883	0.041715532
2020-01-04T13:10:00	0.2453	3.320		0.619631470	0.769234585	0.012929243	0.133388614	0.041111666
2020-01-04T13:15:00	0.2437	3.324		0.614418158	0.761521665	0.012727710	0.131309436	0.040470844
2020-01-04T13:20:00	0.2439	3.322		0.614850502	0.762160435	0.012744361	0.131481222	0.040523790
2020-01-04T13:25:00	0.2434	3.319		0.613288778	0.759853800	0.012684267	0.130861240	0.040332705
2020-01-04T13:30:00	0.2428	3.312		0.611393776	0.757057675	0.012611545	0.130110982	0.040101468
2020-01-04T13:35:00	0.2429	3.303		0.611826488	0.757695888	0.012628131	0.130282103	0.040154209
2020-01-04T13:40:00	0.2413	3.289		0.606268636	0.749510506	0.012415945	0.128093012	0.039479510
2020-01-04T13:45:00	0.2417	3.277		0.607700973	0.751617515	0.012470451	0.128655342	0.039652826
2020-01-04T13:50:00	0.2403	3.272		0.603136934	0.744909673	0.012297199	0.126867936	0.039101930
2020-01-04T13:55:00	0.2402	3.265		0.602570491	0.744078379	0.012275784	0.126646999	0.039033835
2020-01-04T14:00:00	0.2405	3.258		0.603671007	0.745693706	0.012317408	0.127076429	0.039166190
2020-01-04T14:05:00	0.2405	3.251		0.603771356	0.745841048	0.012321207	0.127115623	0.039178270
2020-01-04T14:10:00	0.2400	3.245		0.601871262	0.743052584	0.012249375	0.126374543	0.038949862
2020-01-04T14:15:00	0.2425	3.242		0.610299158	0.755443913	0.012569636	0.129678622	0.039968211
2020-01-04T14:20:00	0.2426	3.235		0.610732004	0.756081925	0.012586200	0.129849502	0.040020877
2020-01-04T14:25:00	0.2410	3.226		0.605505611	0.748388776	0.012386959	0.127793969	0.039387342
2020-01-04T14:30:00	0.2407	3.219		0.604273060	0.746577822	0.012340210	0.127311671	0.039238693
2020-01-04T14:35:00	0.2404	3.213		0.603373454	0.745256861	0.012306147	0.126960248	0.039130381
2020-01-04T14:40:00	0.2401	3.208		0.602473620	0.743936242	0.012272123	0.126609235	0.039022196
2020-01-04T14:45:00	0.2408	3.201		0.604574047	0.747019938	0.012351618	0.127429361	0.039274967
2020-01-04T14:50:00	0.2418	3.201		0.608005177	0.752065229	0.012482043	0.128774935	0.039689686
2020-01-04T14:55:00	0.2415	3.198		0.607106519	0.750742846	0.012447814	0.128421808	0.039580848
2020-01-04T15:00:00	0.2421	3.196		0.608871376	0.753340488	0.012515081	0.129115781	0.039794738
2020-01-04T15:05:00	0.2420	3.193		0.608638729	0.752997912	0.012506203	0.129024190	0.039766508
2020-01-04T15:10:00	0.2408	3.190		0.604742422	0.747267293	0.012358001	0.127495222	0.039295266
2020-01-04T15:15:00	0.2402	3.188		0.602842848	0.744478048	0.012286078	0.126753205	0.039066569
2020-01-04T15:20:00	0.2418	3.189		0.607940696	0.751970321	0.012479585	0.128749581	0.039681871
2020-01-04T15:25:00	0.2405	3.189		0.603710309	0.745751412	0.012318896	0.127091779	0.039170920
2020-01-04T15:30:00	0.2396	3.188		0.600809520	0.741495753	0.012209330	0.125961411	0.038822530
2020-01-04T15:35:00	0.2386	3.187		0.597238538	0.736266541	0.012075142	0.124577017	0.038395846
2020-01-04T15:40:00	0.2381	3.185		0.595669032	0.733971587	0.012016405	0.123971039	0.038209078
2020-01-04T15:45:00	0.2377	3.185		0.594433047	0.732165761	0.011970254	0.123494901	0.038062328
2020-01-04T15:50:00	0.2391	3.186		0.598875511	0.738662339	0.012136561	0.125210660	0.038591141
2020-01-04T15:55:00	0.2379	3.185		0.594968436	0.732947831	0.011990234	0.123701033	0.038125860
2020-01-04T16:00:00	0.2388	3.187		0.598075043	0.737490531	0.012106508	0.124900607	0.038495580
2020-01-04T16:05:00	0.2381	3.189		0.595669561	0.733972362	0.012016425	0.123971244	0.038209141
2020-01-04T16:10:00	0.2386	3.190		0.597271935	0.736315398	0.012076394	0.124589928	0.038399826
2020-01-04T16:15:00	0.2388	3.188		0.597872090	0.737193513	0.012098894	0.124822057	0.038471370
2020-01-04T16:20:00	0.2381	3.187		0.595800560	0.734163831	0.012021322	0.124021763	0.038224712
2020-01-04T16:25:00	0.2383	3.184		0.596400964	0.735041574	0.012043779	0.124253445	0.038296119
2020-01-04T16:30:00	0.2389	3.177		0.598336857	0.737873743	0.012116333	0.125001974	0.038526822
2020-01-04T16:35:00	0.2370	3.174		0.591920535	0.728498805	0.011876717	0.122529904	0.037764906
2020-01-04T16:40:00	0.2371	3.173		0.592187200	0.728887746	0.011886627	0.122632139	0.037796416
2020-01-04T16:45:00	0.2371	3.174		0.592453844	0.729276717	0.011896540	0.122734411	0.037827937
2020-01-04T16:50:00	0.2375	3.174		0.593723423	0.731129546	0.011943797	0.123221957	0.037978204
2020-01-04T16:55:00	0.2366	3.175		0.590645912	0.726640533	0.011829409	0.122041836	0.037614479
2020-01-04T17:00:00	0.2371	3.177		0.592250567	0.728980179	0.011888982	0.122656440	0.037803906
2020-01-04T17:05:00	0.2374	3.178		0.593185913	0.730344939	0.011923778	0.123015420	0.037914547
2020-01-04T17:10:00	0.2370	3.180		0.592115043	0.728782497	0.011883945	0.122604471	0.037787889
2020-01-04T17:15:00	0.2354	3.181		0.586692340	0.720885236	0.011683287	0.120534320	0.037149848
2020-01-04T17:20:00	0.2367	3.182		0.590976063	0.727121730	0.011841654	0.122168159	0.037653413
2020-01-04T17:25:00	0.2384	3.185		0.596590837	0.735319215	0.012050885	0.124326759	0.038318715
2020-01-04T17:30:00	0.2414	3.183		0.606529166	0.749893624	0.012425850	0.128195201	0.039511006
2020-01-04T17:35:00	0.2399	3.177		0.601795639	0.742941667	0.012246521	0.126345095	0.038940785
2020-01-04T17:40:00	0.2406	3.171		0.604061892	0.746267688	0.012332210	0.127229135	0.039213255
2020-01-04T17:45:00	0.2408	3.163		0.604660896	0.747147523	0.012354910	0.127463331	0.039285436
2020-01-04T17:50:00	0.2419	3.150		0.608257171	0.752436161	0.012491650	0.128874046	0.039720233
2020-01-04T17:55:00	0.2412	3.139		0.606191711	0.749397395	0.012413021	0.128062847	0.039470213
2020-01-04T18:00:00	0.2417	3.128		0.607789330	0.751747546	0.012473817	0.128690072	0.039663530
2020-01-04T18:05:00	0.2439	3.121		0.615039239	0.762439334	0.012751633	0.131556251	0.040546914
2020-01-04T18:10:00	0.2422	3.115		0.609318795	0.753999447	0.012532163	0.129292021	0.039849056
2020-01-04T18:15:00	0.2417	3.112		0.607586933	0.751449694	0.012466107	0.128610524	0.039639013
2020-01-04T18:20:00	0.2442	3.111		0.616166145	0.764105203	0.012795100	0.132004689	0.040685127
2020-01-04T18:25:00	0.2443	3.106		0.616430990	0.764496872	0.012805327	0.132110195	0.040717645
2020-01-04T18:30:00	0.2433	3.099		0.613040718	0.759487609	0.012674735	0.130762903	0.040302397
2020-01-04T18:35:00	0.2436	3.092		0.613970590	0.760860570	0.012710484	0.131131723	0.040416071
2020-01-04T18:40:00	0.2438	3.088		0.614567924	0.761742921	0.012733477	0.131368931	0.040489180
2020-01-04T18:45:00	0.2445	3.087		0.617158124	0.765572500	0.012833426	0.132400087	0.040806993
2020-01-04T18:50:00	0.2458	3.083		0.621405188	0.771863961	0.012998183	0.134099860	0.041330879
2020-01-04T18:55:00	0.2458	3.079		0.621337981	0.771764285	0.012995568	0.134072875	0.041322562
2020-01-04T19:00:00	0.2446	3.070		0.617288331	0.765765159	0.012838461	0.132452032	0.040823003
2020-01-04T19:05:00	0.2468	3.054		0.624518934	0.776486225	0.013119667	0.135353183	0.041717166
2020-01-04T19:10:00	0.2479	3.038		0.628426244	0.782298096	0.013272940	0.136934473	0.042204534
2020-01-04T19:15:00	0.2475	3.026		0.627034816	0.780226958	0.013218252	0.136370270	0.042030642
2020-01-04T19:20:00	0.2474	3.019		0.626636544	0.779634432	0.013202620	0.136208999	0.041980936
2020-01-04T19:25:00	0.2478	3.015		0.627893962	0.781505601	0.013252006	0.136718498	0.042137969
2020-01-04T19:30:00	0.2467	3.008		0.624183181	0.775987417	0.013106539	0.135217748	0.041675423
2020-01-04T19:35:00	0.2458	2.999		0.621463678	0.771950712	0.013000460	0.134123348	0.041338118
2020-01-04T19:40:00	0.2474	2.991		0.626699300	0.779727788	0.013205083	0.136234404	0.041988766
2020-01-04T19:45:00	0.2469	2.984		0.624975874	0.777165229	0.013137544	0.135537616	0.041774010
2020-01-04T19:50:00	0.2477	2.980		0.627558526	0.781006307	0.013238822	0.136582485	0.042096048
2020-01-04T19:55:00	0.2467	2.972		0.624178827	0.775980948	0.013106369	0.135215992	0.041674882
2020-01-04T20:00:00	0.2468	2.967		0.624774452	0.776865899	0.013129662	0.135456301	0.041748947
2020-01-04T20:05:00	0.2473	2.962		0.626363752	0.779228666	0.013191919	0.136098596	0.041946909
2020-01-04T20:10:00	0.2463	2.953		0.622982921	0.774205038	0.013059666	0.134734164	0.041526378
2020-01-04T20:15:00	0.2463	2.947		0.622915744	0.774105316	0.013057045	0.134707125	0.041518044
2020-01-04T20:20:00	0.2467	2.936		0.624174472	0.775974480	0.013106199	0.135214236	0.041674341
2020-01-04T20:25:00	0.2466	2.932		0.624107318	0.775874724	0.013103574	0.135187156	0.041665995
2020-01-04T20:30:00	0.2463	2.929		0.623045741	0.774298295	0.013062117	0.134759452	0.041534172
2020-01-04T20:35:00	0.2456	2.922		0.620657128	0.770754707	0.012969085	0.133799656	0.041238353
2020-01-04T20:40:00	0.2454	2.918		0.619926349	0.769671533	0.012940691	0.133506722	0.041148068
2020-01-04T20:45:00	0.2440	2.910		0.615210655	0.762692664	0.012758240	0.131624413	0.040567922
2020-01-04T20:50:00	0.2448	2.904		0.618132380	0.767014388	0.012871124	0.132789016	0.040926864
2020-01-04T20:55:00	0.2438	2.899		0.614743729	0.762002667	0.012740248	0.131438787	0.040510711
2020-01-04T21:00:00	0.2439	2.896		0.615008680	0.762394175	0.012750456	0.131544101	0.040543170
2020-01-04T21:05:00	0.2453	2.886		0.619590164	0.769173384	0.012927639	0.133372073	0.041106568
2020-01-04T21:10:00	0.2449	2.878		0.618195285	0.767107515	0.012873560	0.132814148	0.040934610
2020-01-04T21:15:00	0.2440	2.866		0.615471207	0.763077773	0.012768286	0.131728054	0.040599866
2020-01-04T21:20:00	0.2435	2.857		0.613742342	0.760523494	0.012701704	0.131041143	0.040388153
2020-01-04T21:25:00	0.2432	2.842		0.612677671	0.758951767	0.012660791	0.130619051	0.040258060
2020-01-04T21:30:00	0.2434	2.826		0.613275223	0.759833789	0.012683746	0.130855865	0.040331049
2020-01-04T21:35:00	0.2433	2.814		0.612875410	0.759243608	0.012668385	0.130697392	0.040282205
2020-01-04T21:40:00	0.2441	2.799		0.615799052	0.763562425	0.012780932	0.131858522	0.040640077
2020-01-04T21:45:00	0.2450	2.783		0.618720294	0.767884881	0.012893901	0.133024000	0.040999289
2020-01-04T21:50:00	0.2458	2.775		0.621307477	0.771719044	0.012994380	0.134060628	0.041318788
2020-01-04T21:55:00	0.2437	2.766		0.614268008	0.761299864	0.012721930	0.131249804	0.040452464
2020-01-04T22:00:00	0.2425	2.751		0.610210299	0.755312955	0.012566238	0.129643556	0.039957403
2020-01-04T22:05:00	0.2430	2.737		0.612176816	0.758212706	0.012641568	0.130420729	0.040196935
2020-01-04T22:10:00	0.2433	2.722		0.613145057	0.759641631	0.012678744	0.130804261	0.040315144
2020-01-04T22:15:00	0.2428	2.698		0.611453222	0.757145343	0.012613823	0.130134483	0.040108712
2020-01-04T22:20:00	0.2424	2.681		0.610093324	0.755140570	0.012561764	0.129597403	0.039943178
2020-01-04T22:25:00	0.2432	2.667		0.612724932	0.759021516	0.012662606	0.130637773	0.040263830
2020-01-04T22:30:00	0.2437	2.655		0.614357745	0.761432421	0.012725384	0.131285441	0.040463448
2020-01-04T22:35:00	0.2442	2.641		0.615989808	0.763844460	0.012788293	0.131934466	0.040663484
2020-01-04T22:40:00	0.2435	2.631		0.613634594	0.760364387	0.012697561	0.130998394	0.040374977
2020-01-04T22:45:00	0.2436	2.621		0.613937763	0.760812089	0.012709221	0.131118694	0.040412055
2020-01-04T22:50:00	0.2438	2.611		0.614573231	0.761750761	0.012733681	0.131371039	0.040489830
2020-01-04T22:55:00	0.2437	2.602		0.614211696	0.761216683	0.012719762	0.131227442	0.040445572
2020-01-04T23:00:00	0.2433	2.592		0.612852854	0.759210316	0.012667519	0.130688454	0.040279451
2020-01-04T23:05:00	0.2443	2.584		0.616478954	0.764567809	0.012807179	0.132129307	0.040723536
2020-01-04T23:10:00	0.2462	2.583		0.622754725	0.773866305	0.013050764	0.134642325	0.041498072
2020-01-04T23:15:00	0.2457	2.575		0.621067451	0.771363093	0.012985042	0.133964280	0.041289092
2020-01-04T23:20:00	0.2460	2.570		0.622033277	0.772795683	0.013022641	0.134352189	0.041408649
2020-01-04T23:25:00	0.2445	2.568		0.617026407	0.765377623	0.012828333	0.132347550	0.040790800
2020-01-04T23:30:00	0.2452	2.564		0.619321042	0.768774677	0.012917197	0.133264336	0.041073363
2020-01-04T23:35:00	0.2461	2.555		0.622277444	0.773157975	0.013032156	0.134450346	0.041438902
2020-01-04T23:40:00	0.2468	2.548		0.624568703	0.776560172	0.013121613	0.135373265	0.041723355
2020-01-04T23:45:00	0.2469	2.546		0.624870943	0.777009287	0.013133437	0.135495251	0.041760952
2020-01-04T23:50:00	0.2456	2.539		0.620531628	0.770568657	0.012964206	0.133749325	0.041222841
2020-01-04T23:55:00	0.2460	2.530		0.621829248	0.772492984	0.013014694	0.134270195	0.041383378
2020-01-05T00:00:00	0.2459	2.521		0.621800100	0.772449743	0.013013558	0.134258483	0.041379768
2020-01-05T00:05:00	0.2453	2.512		0.619780566	0.769455505	0.012935030	0.133448325	0.041130070
2020-01-05T00:10:00	0.2457	2.507		0.621078459	0.771379416	0.012985470	0.133968698	0.041290454
2020-01-05T00:15:00	0.2452	2.505		0.619390392	0.768877413	0.012919887	0.133292094	0.041081918
2020-01-05T00:20:00	0.2450	2.501		0.618697437	0.767851032	0.012893015	0.133014860	0.040996472
2020-01-05T00:25:00	0.2445	2.491		0.617008240	0.765350745	0.012827631	0.132340305	0.040788567
2020-01-05T00:30:00	0.2448	2.488		0.617975168	0.766781661	0.012865037	0.132726216	0.040907509
2020-01-05T00:35:00	0.2445	2.479		0.616949865	0.765264384	0.012825375	0.132317025	0.040781392
2020-01-05T00:40:00	0.2453	2.464		0.619576407	0.769153002	0.012927106	0.133366565	0.041104871
2020-01-05T00:45:00	0.2451	2.455		0.618883488	0.768126566	0.012900227	0.133089265	0.041019404
2020-01-05T00:50:00	0.2448	2.447		0.617858448	0.766608891	0.012860519	0.132679601	0.040893142
2020-01-05T00:55:00	0.2450	2.436		0.618825144	0.768040157	0.012897965	0.133065930	0.041012212
2020-01-05T01:00:00	0.2453	2.428		0.619791578	0.769471822	0.012935458	0.133452735	0.041131429
2020-01-05T01:05:00	0.2457	2.422		0.621089467	0.771395740	0.012985898	0.133973116	0.041291815
2020-01-05T01:10:00	0.2458	2.412		0.621392002	0.771844404	0.012997670	0.134094566	0.041329247
2020-01-05T01:15:00	0.2470	2.397		0.625340747	0.777707548	0.013151828	0.135684981	0.041819429
2020-01-05T01:20:00	0.2470	2.381		0.625311627	0.777664263	0.013150687	0.135673217	0.041815803
2020-01-05T01:25:00	0.2467	2.371		0.624288433	0.776143774	0.013110654	0.135260197	0.041688506
2020-01-05T01:30:00	0.2464	2.368		0.623264945	0.774623732	0.013070672	0.134847711	0.041561374
2020-01-05T01:35:00	0.2469	2.363		0.624892935	0.777041970	0.013134298	0.135504130	0.041763689
2020-01-05T01:40:00	0.2482	2.362		0.629168780	0.783404028	0.013302172	0.137236054	0.042297485
2020-01-05T01:45:00	0.2483	2.356		0.629470631	0.783853739	0.013314065	0.137358749	0.042335301
2020-01-05T01:50:00	0.2478	2.354		0.627786528	0.781345677	0.013247782	0.136674928	0.042124540
2020-01-05T01:55:00	0.2473	2.350		0.626432853	0.779331444	0.013194629	0.136126557	0.041955527
2020-01-05T02:00:00	0.2487	2.347		0.631037651	0.786189590	0.013375893	0.137996620	0.042531899
2020-01-05T02:05:00	0.2486	2.345		0.630677781	0.785652972	0.013361681	0.137849996	0.042486707
2020-01-05T02:10:00	0.2497	2.341		0.634285823	0.791038042	0.013504526	0.139323706	0.042940919
2020-01-05T02:15:00	0.2505	2.346		0.636899658	0.794946128	0.013608503	0.140396416	0.043271539
2020-01-05T02:20:00	0.2505	2.348		0.636870632	0.794902698	0.013607346	0.140384480	0.043267860
2020-01-05T02:25:00	0.2506	2.348		0.637171835	0.795353408	0.013619354	0.140508362	0.043306042
2020-01-05T02:30:00	0.2503	2.349		0.636152027	0.793827713	0.013578720	0.140089154	0.043176838
2020-01-05T02:35:00	0.2495	2.349		0.633479541	0.789833694	0.013472536	0.138993673	0.042839200
2020-01-05T02:40:00	0.2500	2.345		0.635102889	0.792259058	0.013536984	0.139658568	0.043044127
2020-01-05T02:45:00	0.2503	2.345		0.636064931	0.793697453	0.013575253	0.140053382	0.043165812
2020-01-05T02:50:00	0.2501	2.341		0.635705566	0.793160058	0.013560951	0.139905834	0.043120337
2020-01-05T02:55:00	0.2491	2.343		0.632371497	0.788179501	0.013428638	0.138540783	0.042699615
2020-01-05T03:00:00	0.2489	2.344		0.631681056	0.787149272	0.013401322	0.138258968	0.042612757
2020-01-05T03:05:00	0.2491	2.340		0.632313372	0.788092756	0.013426337	0.138517047	0.042692299
2020-01-05T03:10:00	0.2494	2.337		0.633276164	0.789529996	0.013464473	0.138910489	0.042813562
2020-01-05T03:15:00	0.2484	2.335		0.629939831	0.784552926	0.013332562	0.137549581	0.042394117
2020-01-05T03:20:00	0.2482	2.332		0.629248921	0.783523419	0.013305329	0.137268624	0.042307523
2020-01-05T03:25:00	0.2467	2.328		0.624252173	0.776089907	0.013109236	0.135245572	0.041683999
2020-01-05T03:30:00	0.2475	2.327		0.626873345	0.779986714	0.013211913	0.136304874	0.042010486
2020-01-05T03:35:00	0.2487	2.322		0.630816038	0.785859121	0.013367140	0.137906317	0.042504066
2020-01-05T03:40:00	0.2477	2.315		0.627477409	0.780885580	0.013235635	0.136549604	0.042085914
2020-01-05T03:45:00	0.2471	2.305		0.625792367	0.778378958	0.013169519	0.135867497	0.041875682
2020-01-05T03:50:00	0.2468	2.294		0.624769311	0.776858258	0.013129461	0.135454226	0.041748308
2020-01-05T03:55:00	0.2469	2.281		0.625071534	0.777307399	0.013141288	0.135576243	0.041785915
2020-01-05T04:00:00	0.2480	2.272		0.628685232	0.782683780	0.013283132	0.137039622	0.042236942
2020-01-05T04:05:00	0.2481	2.268		0.628978240	0.783120194	0.013294667	0.137158633	0.042273623
2020-01-05T04:10:00	0.2474	2.265		0.626622703	0.779613842	0.013202077	0.136203396	0.041979210
2020-01-05T04:15:00	0.2478	2.256		0.627909223	0.781528320	0.013252605	0.136724688	0.042139877
2020-01-05T04:20:00	0.2487	2.253		0.630849647	0.785909235	0.013368467	0.137920010	0.042508287
2020-01-05T04:25:00	0.2494	2.252		0.633126544	0.789306594	0.013458543	0.138849309	0.042794706
2020-01-05T04:30:00	0.2501	2.247		0.635401995	0.792706182	0.013548876	0.139781256	0.043081941
2020-01-05T04:35:00	0.2506	2.240		0.637345820	0.795613788	0.013626292	0.140579947	0.043328105
2020-01-05T04:40:00	0.2500	2.237		0.635326182	0.792592845	0.013545861	0.139750154	0.043072355
2020-01-05T04:45:00	0.2495	2.230		0.633635960	0.790067295	0.013478739	0.139057668	0.042858924
2020-01-05T04:50:00	0.2491	2.225		0.632275620	0.788036417	0.013424843	0.138501632	0.042687548
2020-01-05T04:55:00	0.2499	2.215		0.634882051	0.791928985	0.013528207	0.139568020	0.043016219
2020-01-05T05:00:00	0.2501	2.206		0.635504934	0.792860080	0.013552970	0.139823493	0.043094959
2020-01-05T05:05:00	0.2497	2.198		0.634145304	0.790828108	0.013498948	0.139266158	0.042923183
2020-01-05T05:10:00	0.2496	2.191		0.633776874	0.790277757	0.013484329	0.139115332	0.042876696
2020-01-05T05:15:00	0.2497	2.176		0.634069465	0.790714812	0.013495938	0.139235105	0.042913612
2020-01-05T05:20:00	0.2495	2.162		0.633701027	0.790164473	0.013481320	0.139084292	0.042867130
2020-01-05T05:25:00	0.2513	2.147		0.639607832	0.799001380	0.013716670	0.141512354	0.043615482
2020-01-05T05:30:00	0.2510	2.134		0.638579855	0.797461343	0.013675559	0.141088222	0.043484760
2020-01-05T05:35:00	0.2504	2.122		0.636560912	0.794439325	0.013595004	0.140257155	0.043228617
2020-01-05T05:40:00	0.2506	2.111		0.637183504	0.795370871	0.013619819	0.140513163	0.043307521
2020-01-05T05:45:00	0.2515	2.105		0.640116328	0.799763503	0.013737029	0.141722400	0.043680220
2020-01-05T05:50:00	0.2512	2.100		0.639088497	0.798223240	0.013695893	0.141298000	0.043549416
2020-01-05T05:55:00	0.2508	2.094		0.637730226	0.796189168	0.013641629	0.140738174	0.043376872
2020-01-05T06:00:00	0.2505	2.090		0.637031952	0.795144083	0.013613777	0.140450823	0.043288308
2020-01-05T06:05:00	0.2511	2.085		0.638974895	0.798053055	0.013691350	0.141251133	0.043534971
2020-01-05T06:10:00	0.2517	2.080		0.640916786	0.800963656	0.013769110	0.142053374	0.043782229
2020-01-05T06:15:00	0.2514	2.074		0.639889184	0.799423038	0.013727933	0.141628553	0.043651296
2020-01-05T06:20:00	0.2514	2.071		0.639851326	0.799366296	0.013726417	0.141612914	0.043646476
2020-01-05T06:25:00	0.2521	2.065		0.642122517	0.802772475	0.013817508	0.142552679	0.043936120
2020-01-05T06:30:00	0.2525	2.061		0.643403487	0.804695521	0.013869022	0.143084142	0.044099922
2020-01-05T06:35:00	0.2533	2.060		0.646001853	0.808600585	0.013973822	0.144165344	0.044433159
2020-01-05T06:40:00	0.2545	2.059		0.649914766	0.814492115	0.014132418	0.145801547	0.044937453
2020-01-05T06:45:00	0.2556	2.057		0.653823435	0.820390287	0.014291774	0.147445598	0.045444165
2020-01-05T06:50:00	0.2568	2.053		0.657727877	0.826295101	0.014451890	0.149097487	0.045953293
2020-01-05T06:55:00	0.2574	2.048		0.659659691	0.829221465	0.014531456	0.149918356	0.046206293
2020-01-05T07:00:00	0.2578	2.039		0.660934449	0.831154250	0.014584085	0.150461320	0.046373640
2020-01-05T07:05:00	0.2576	2.030		0.660240659	0.830102154	0.014555430	0.150165683	0.046282522
2020-01-05T07:10:00	0.2565	2.021		0.656592011	0.824575951	0.014405214	0.148615933	0.045804874
2020-01-05T07:15:00	0.2563	2.009		0.655897387	0.823525170	0.014376708	0.148321846	0.045714234
2020-01-05T07:20:00	0.2567	1.996		0.657173471	0.825455862	0.014429098	0.148862343	0.045880820
2020-01-05T07:25:00	0.2575	1.984		0.659761940	0.829376442	0.014535674	0.149961870	0.046219705
2020-01-05T07:30:00	0.2587	1.976		0.663987760	0.835789331	0.014710548	0.151766010	0.046775758
2020-01-05T07:35:00	0.2591	1.964		0.665260995	0.837724527	0.014763452	0.152311812	0.046943980
2020-01-05T07:40:00	0.2607	1.953		0.670462092	0.845644137	0.014980596	0.154552051	0.047634443
2020-01-05T07:45:00	0.2598	1.942		0.667478689	0.841098528	0.014855837	0.153264929	0.047237740
2020-01-05T07:50:00	0.2596	1.929		0.666786151	0.840044447	0.014826954	0.152966956	0.047145901
2020-01-05T07:55:00	0.2602	1.919		0.668713143	0.842978455	0.014907393	0.153796821	0.047401674
2020-01-05T08:00:00	0.2601	1.910		0.668348227	0.842422596	0.014892142	0.153639489	0.047353183
2020-01-05T08:05:00	0.2608	1.899		0.670601575	0.845856844	0.014986443	0.154612366	0.047653033
2020-01-05T08:10:00	0.2597	1.892		0.667290833	0.840812560	0.014847999	0.153184072	0.047212819
2020-01-05T08:15:00	0.2596	1.885		0.666925775	0.840256929	0.014832775	0.153027006	0.047164410
2020-01-05T08:20:00	0.2613	1.881		0.672451506	0.848679521	0.015064094	0.155413479	0.047899944
2020-01-05T08:25:00	0.2615	1.883		0.673067941	0.849620748	0.015090016	0.155680909	0.047982368
2020-01-05T08:30:00	0.2617	1.890		0.673684272	0.850562142	0.015115956	0.155948535	0.048064853
2020-01-05T08:35:00	0.2619	1.900		0.674300497	0.851503703	0.015141916	0.156216357	0.048147398
2020-01-05T08:40:00	0.2625	1.912		0.676223510	0.854444066	0.015223077	0.157053684	0.048405471
2020-01-05T08:45:00	0.2628	1.922		0.677165901	0.855886181	0.015262935	0.157464882	0.048532206
2020-01-05T08:50:00	0.2620	1.932		0.674514829	0.851831266	0.015150951	0.156309566	0.048176126
2020-01-05T08:55:00	0.2638	1.946		0.680681639	0.861272970	0.015412112	0.159003916	0.049006551
2020-01-05T09:00:00	0.2640	1.960		0.681296682	0.862216431	0.015438287	0.159273964	0.049089783
2020-01-05T09:05:00	0.2640	1.975		0.681259254	0.862159008	0.015436694	0.159257524	0.049084716
2020-01-05T09:10:00	0.2636	1.993		0.679916727	0.860100071	0.015379591	0.158668401	0.048903142
2020-01-05T09:15:00	0.2639	2.009		0.680858163	0.861543720	0.015419622	0.159081398	0.049030432
2020-01-05T09:20:00	0.2634	2.028		0.679189104	0.858984818	0.015348688	0.158349589	0.048804881
2020-01-05T09:25:00	0.2631	2.050		0.678172318	0.857427118	0.015305560	0.157904643	0.048667744
2020-01-05T09:30:00	0.2630	2.068		0.677808350	0.856869742	0.015290138	0.157745530	0.048618704
2020-01-05T09:35:00	0.2627	2.085		0.676791178	0.855312662	0.015247080	0.157301310	0.048481791
2020-01-05T09:40:00	0.2624	2.103		0.676100412	0.854255749	0.015217875	0.157000013	0.048388929
2020-01-05T09:45:00	0.2631	2.124		0.678348963	0.857697672	0.015313048	0.157981895	0.048691554
2020-01-05T09:50:00	0.2625	2.142		0.676352116	0.854640824	0.015228513	0.157109766	0.048422756
2020-01-05T09:55:00	0.2634	2.159		0.679253355	0.859083280	0.015351416	0.158377727	0.048813554
2020-01-05T10:00:00	0.2624	2.181		0.675950484	0.854026405	0.015211540	0.156934658	0.048368786
2020-01-05T10:05:00	0.2614	2.204		0.672540321	0.848815111	0.015067827	0.155451995	0.047911815
2020-01-05T10:10:00	0.2618	2.228		0.674033177	0.851095211	0.015130652	0.156100145	0.048111581
2020-01-05T10:15:00	0.2621	2.250		0.674871908	0.852377080	0.015166009	0.156464918	0.048224007
2020-01-05T10:20:00	0.2615	2.269		0.673095826	0.849663332	0.015091189	0.155693012	0.047986098
2020-01-05T10:25:00	0.2611	2.287		0.671645965	0.847450043	0.015030255	0.155064372	0.047792345
2020-01-05T10:30:00	0.2610	2.304		0.671504115	0.847233598	0.015024301	0.155002940	0.047773411
2020-01-05T10:35:00	0.2605	2.320		0.669726386	0.844522482	0.014949780	0.154234123	0.047536455
2020-01-05T10:40:00	0.2602	2.337		0.668602545	0.842809974	0.014902770	0.153749128	0.047386975
2020-01-05T10:45:00	0.2594	2.354		0.666168315	0.839104414	0.014801213	0.152701382	0.047064049
2020-01-05T10:50:00	0.2602	2.374		0.668645961	0.842876112	0.014904584	0.153767850	0.047392745
2020-01-05T10:55:00	0.2603	2.391		0.669158652	0.843657233	0.014926022	0.153989016	0.047460910
2020-01-05T11:00:00	0.2596	2.406		0.666724795	0.839951080	0.014824397	0.152940572	0.047137770
2020-01-05T11:05:00	0.2597	2.421		0.667237757	0.840731769	0.014845785	0.153161230	0.047205779
2020-01-05T11:10:00	0.2596	2.434		0.666768234	0.840017182	0.014826208	0.152959251	0.047143527
2020-01-05T11:15:00	0.2595	2.447		0.666626193	0.839801041	0.014820288	0.152898176	0.047124703
2020-01-05T11:20:00	0.2600	2.461		0.668121481	0.842077260	0.014882671	0.153541770	0.047323065
2020-01-05T11:25:00	0.2592	2.476		0.665359301	0.837873999	0.014767541	0.152353995	0.046956981
2020-01-05T11:30:00	0.2596	2.491		0.666855111	0.840149389	0.014829829	0.152996613	0.047155042
2020-01-05T11:35:00	0.2604	2.511		0.669332288	0.843921832	0.014933286	0.154063958	0.047484008
2020-01-05T11:40:00	0.2583	2.532		0.662638503	0.833740106	0.014654594	0.151188741	0.046597838
2020-01-05T11:45:00	0.2594	2.548		0.666101421	0.839002654	0.014798427	0.152672642	0.047055191
2020-01-05T11:50:00	0.2584	2.560		0.663009861	0.834303961	0.014669983	0.151347508	0.046646772
2020-01-05T11:55:00	0.2577	2.576		0.660571871	0.830604368	0.014569106	0.150306781	0.046326010
2020-01-05T12:00:00	0.2577	2.590		0.660429587	0.830388612	0.014563230	0.150246159	0.046307325
2020-01-05T12:05:00	0.2579	2.598		0.661271468	0.831665469	0.014598016	0.150605040	0.046417936
2020-01-05T12:10:00	0.2572	2.614		0.658832306	0.827967729	0.014497351	0.149566494	0.046097846
2020-01-05T12:15:00	0.2570	2.629		0.658361692	0.827254869	0.014477970	0.149366549	0.046036221
2020-01-05T12:20:00	0.2577	2.640		0.660516615	0.830520578	0.014566824	0.150283237	0.046318753
2020-01-05T12:25:00	0.2575	2.655		0.660046220	0.829807372	0.014547404	0.150082884	0.046257002
2020-01-05T12:30:00	0.2574	2.666		0.659575765	0.829094264	0.014527995	0.149882645	0.046195287
2020-01-05T12:35:00	0.2565	2.676		0.656478624	0.824404399	0.014400558	0.148567907	0.045790072
2020-01-05T12:40:00	0.2566	2.686		0.656993040	0.825182788	0.014421684	0.148785857	0.045857246
2020-01-05T12:45:00	0.2563	2.695		0.655865240	0.823476550	0.014375390	0.148308244	0.045710041
2020-01-05T12:50:00	0.2565	2.702		0.656708184	0.824751730	0.014409984	0.148665148	0.045820042
2020-01-05T12:55:00	0.2556	2.712		0.653608584	0.820065739	0.014282990	0.147354978	0.045416235
2020-01-05T13:00:00	0.2557	2.719		0.654123408	0.820843485	0.014304042	0.147572169	0.045483176
2020-01-05T13:05:00	0.2558	2.725		0.654309530	0.821124714	0.014311657	0.147650730	0.045507389
2020-01-05T13:10:00	0.2557	2.734		0.654166999	0.820909347	0.014305826	0.147590567	0.045488846
2020-01-05T13:15:00	0.2563	2.739		0.655995947	0.823674240	0.014380751	0.148363556	0.045727089
2020-01-05T13:20:00	0.2568	2.741		0.657495630	0.825943501	0.014442340	0.148998959	0.045922926
2020-01-05T13:25:00	0.2568	2.747		0.657681577	0.826225004	0.014449986	0.149077842	0.045947239
2020-01-05T13:30:00	0.2564	2.754		0.656225537	0.824021522	0.014390171	0.148460739	0.045757042
2020-01-05T13:35:00	0.2569	2.763		0.658053444	0.826788055	0.014465283	0.149235662	0.045995880
2020-01-05T13:40:00	0.2571	2.768		0.658567635	0.827566797	0.014486449	0.149454028	0.046063183
2020-01-05T13:45:00	0.2582	2.773		0.662362374	0.833320919	0.014643156	0.151070743	0.046561470
2020-01-05T13:50:00	0.2588	2.771		0.664187184	0.836092345	0.014718828	0.151851430	0.046802086
2020-01-05T13:55:00	0.2584	2.774		0.662733760	0.833884729	0.014658540	0.151229458	0.046610388
2020-01-05T14:00:00	0.2582	2.774		0.662263653	0.833171068	0.014639068	0.151028569	0.046548472
2020-01-05T14:05:00	0.2589	2.775		0.664416255	0.836440448	0.014728341	0.151949580	0.046832336
2020-01-05T14:10:00	0.2594	2.776		0.666240032	0.839213513	0.014804199	0.152732196	0.047073546
2020-01-05T14:15:00	0.2596	2.775		0.666753062	0.839994094	0.014825575	0.152952727	0.047141516
2020-01-05T14:20:00	0.2596	2.776		0.666938535	0.840276348	0.014833307	0.153032495	0.047166101
2020-01-05T14:25:00	0.2598	2.777		0.667451467	0.841057086	0.014854701	0.153253210	0.047234128
2020-01-05T14:30:00	0.2606	2.777		0.669928237	0.844830178	0.014958231	0.154321317	0.047563329
2020-01-05T14:35:00	0.2599	2.771		0.667822332	0.841621723	0.014870179	0.153412898	0.047283345
2020-01-05T14:40:00	0.2591	2.763		0.665059924	0.837418825	0.014755091	0.152225549	0.046917393
2020-01-05T14:45:00	0.2585	2.760		0.663279034	0.834712737	0.014681143	0.151462644	0.046682258
2020-01-05T14:50:00	0.2591	2.761		0.665103382	0.837484895	0.014756898	0.152244192	0.046923138
2020-01-05T14:55:00	0.2585	2.762		0.663322514	0.834778774	0.014682946	0.151481246	0.046687991
2020-01-05T15:00:00	0.2580	2.759		0.661540770	0.832074041	0.014609153	0.150719934	0.046453347
2020-01-05T15:05:00	0.2577	2.752		0.660414388	0.830365566	0.014562602	0.150239684	0.046305330
2020-01-05T15:10:00	0.2568	2.744		0.657646322	0.826171630	0.014448536	0.149062884	0.045942629
2020-01-05T15:15:00	0.2562	2.736		0.655533262	0.822974510	0.014361777	0.148167806	0.045666757
2020-01-05T15:20:00	0.2576	2.731		0.660315614	0.830215800	0.014558524	0.150197608	0.046292362
2020-01-05T15:25:00	0.2582	2.723		0.662141456	0.832985593	0.014634009	0.150976373	0.046532384
2020-01-05T15:30:00	0.2581	2.714		0.661999233	0.832769739	0.014628122	0.150915636	0.046513665
2020-01-05T15:35:00	0.2577	2.703		0.660544931	0.830563515	0.014567993	0.150295302	0.046322472
2020-01-05T15:40:00	0.2582	2.696		0.662370656	0.833333491	0.014643499	0.151074282	0.046562561
2020-01-05T15:45:00	0.2586	2.688		0.663539908	0.835108969	0.014691963	0.151574272	0.046716663
2020-01-05T15:50:00	0.2583	2.677		0.662414147	0.833399510	0.014645300	0.151092864	0.046568288
2020-01-05T15:55:00	0.2579	2.662		0.661288037	0.831690606	0.014598701	0.150612108	0.046420114
2020-01-05T16:00:00	0.2587	2.647		0.663769020	0.835457007	0.014701469	0.151672346	0.046746890
2020-01-05T16:05:00	0.2602	2.630		0.668673694	0.842918359	0.014905744	0.153779809	0.047396431
2020-01-05T16:10:00	0.2605	2.611		0.669646806	0.844401183	0.014946448	0.154199754	0.047525862
2020-01-05T16:15:00	0.2612	2.594		0.671928094	0.847880585	0.015042102	0.155186594	0.047830016
2020-01-05T16:20:00	0.2585	2.576		0.663078186	0.834407717	0.014672815	0.151376729	0.046655778
2020-01-05T16:25:00	0.2591	2.555		0.665035949	0.837382376	0.014754094	0.152215266	0.046914223
2020-01-05T16:30:00	0.2593	2.535		0.665682438	0.838365386	0.014780985	0.152492699	0.046999731
2020-01-05T16:35:00	0.2599	2.513		0.667638795	0.841342277	0.014862518	0.153333860	0.047258985
2020-01-05T16:40:00	0.2614	2.492		0.672538247	0.848811945	0.015067740	0.155451095	0.047911537
2020-01-05T16:45:00	0.2622	2.469		0.675144497	0.852793819	0.015177509	0.156583565	0.048260576
2020-01-05T16:50:00	0.2634	2.448		0.679381152	0.859279132	0.015356842	0.158433703	0.048830806
2020-01-05T16:55:00	0.2639	2.429		0.681003935	0.861767324	0.015425825	0.159145397	0.049050157
2020-01-05T17:00:00	0.2646	2.408		0.683278120	0.865258122	0.015522774	0.160145598	0.049358429
2020-01-05T17:05:00	0.2648	2.386		0.683921377	0.866246310	0.015550254	0.160429106	0.049445808
2020-01-05T17:10:00	0.2650	2.364		0.684564521	0.867234681	0.015577755	0.160712827	0.049533254
2020-01-05T17:15:00	0.2639	2.341		0.680968906	0.861713590	0.015424335	0.159130017	0.049045417
2020-01-05T17:20:00	0.2640	2.319		0.681286374	0.862200615	0.015437848	0.159269436	0.049088387
2020-01-05T17:25:00	0.2654	2.301		0.685841723	0.869198518	0.015632444	0.161277045	0.049707152
2020-01-05T17:30:00	0.2665	2.282		0.689415073	0.874700426	0.015785990	0.162861151	0.050195388
2020-01-05T17:35:00	0.2673	2.261		0.692009302	0.878701693	0.015897960	0.164016320	0.050551423
2020-01-05T17:40:00	0.2663	2.241		0.688746566	0.873670283	0.015757204	0.162564174	0.050103857
2020-01-05T17:45:00	0.2656	2.221		0.686458296	0.870147072	0.015658882	0.161549796	0.049791216
2020-01-05T17:50:00	0.2655	2.200		0.686123787	0.869632414	0.015644536	0.161401791	0.049745599
2020-01-05T17:55:00	0.2654	2.183		0.685789248	0.869117806	0.015630195	0.161253843	0.049700001
2020-01-05T18:00:00	0.2647	2.166		0.683499125	0.865597595	0.015532213	0.160242973	0.049388441
2020-01-05T18:05:00	0.2643	2.150		0.682186086	0.863581328	0.015476181	0.159664903	0.049210274
2020-01-05T18:10:00	0.2641	2.133		0.681525011	0.862566764	0.015448011	0.159374278	0.049120700
2020-01-05T18:15:00	0.2637	2.115		0.680211261	0.860551644	0.015392109	0.158797549	0.048942947
2020-01-05T18:20:00	0.2646	2.095		0.683138089	0.865043050	0.015516795	0.160083916	0.049339418
2020-01-05T18:25:00	0.2648	2.080		0.683781370	0.866031197	0.015544271	0.160367377	0.049426783
2020-01-05T18:30:00	0.2649	2.065		0.684098594	0.866518617	0.015557829	0.160507258	0.049469896
2020-01-05T18:35:00	0.2655	2.047		0.686045082	0.869511335	0.015641161	0.161366977	0.049734870
2020-01-05T18:40:00	0.2653	2.031		0.685384705	0.868495642	0.015612863	0.161075033	0.049644889
2020-01-05T18:45:00	0.2667	2.017		0.689934951	0.875501804	0.015808395	0.163092299	0.050266630
2020-01-05T18:50:00	0.2664	2.005		0.688949764	0.873983361	0.015765951	0.162654412	0.050131669
2020-01-05T18:55:00	0.2673	1.997		0.691869605	0.878486079	0.015891920	0.163954005	0.050532217
2020-01-05T19:00:00	0.2679	1.989		0.693811964	0.881485500	0.015976010	0.164821555	0.050799604
2020-01-05T19:05:00	0.2682	1.977		0.694778396	0.882979096	0.016017938	0.165254111	0.050932922
2020-01-05T19:10:00	0.2693	1.971		0.698343044	0.888495172	0.016173087	0.166854757	0.051426256
2020-01-05T19:15:00	0.2693	1.958		0.698334328	0.888481671	0.016172707	0.166850833	0.051425047
2020-01-05T19:20:00	0.2689	1.946		0.697026600	0.886456772	0.016115697	0.166262680	0.051243773
2020-01-05T19:25:00	0.2694	1.933		0.698641578	0.888957635	0.016186116	0.166989179	0.051467687
2020-01-05T19:30:00	0.2687	1.922		0.696359481	0.885424369	0.016086656	0.165963064	0.051151428
2020-01-05T19:35:00	0.2679	1.910		0.693750877	0.881391118	0.015973362	0.164794234	0.050791183
2020-01-05T19:40:00	0.2684	1.894		0.695367297	0.883889625	0.016043515	0.165517985	0.051014250
2020-01-05T19:45:00	0.2682	1.885		0.694708600	0.882871201	0.016014908	0.165222851	0.050923287
2020-01-05T19:50:00	0.2693	1.875		0.698273316	0.888387167	0.016170045	0.166823368	0.051416582
2020-01-05T19:55:00	0.2687	1.866		0.696640737	0.885859580	0.016098896	0.166089346	0.051190350
2020-01-05T20:00:00	0.2684	1.860		0.695657351	0.884338202	0.016056120	0.165648033	0.051054333
2020-01-05T20:05:00	0.2686	1.853		0.696298436	0.885329918	0.016084000	0.165935662	0.051142983
2020-01-05T20:10:00	0.2687	1.851		0.696614577	0.885819098	0.016097758	0.166077599	0.051186729
2020-01-05T20:15:00	0.2683	1.851		0.695306236	0.883795201	0.016040862	0.165490614	0.051005814
2020-01-05T20:20:00	0.2691	1.850		0.697896301	0.887803259	0.016153599	0.166653707	0.051364291
2020-01-05T20:25:00	0.2686	1.852		0.696263553	0.885275947	0.016082482	0.165920005	0.051138157
2020-01-05T20:30:00	0.2677	1.855		0.693329757	0.880740564	0.015955112	0.164605953	0.050733153
2020-01-05T20:35:00	0.2670	1.856		0.691044351	0.877212699	0.015856263	0.163586139	0.050418837
2020-01-05T20:40:00	0.2677	1.858		0.693312302	0.880713601	0.015954356	0.164598151	0.050730749
2020-01-05T20:45:00	0.2674	1.861		0.692328023	0.879193681	0.015911745	0.164158539	0.050595256
2020-01-05T20:50:00	0.2682	1.864		0.694920191	0.883198305	0.016024094	0.165317626	0.050952498
2020-01-05T20:55:00	0.2679	1.868		0.693936344	0.881677681	0.015981403	0.164877192	0.050816752
2020-01-05T21:00:00	0.2681	1.872		0.694577730	0.882668905	0.016009227	0.165164247	0.050905225
2020-01-05T21:05:00	0.2691	1.875		0.697817847	0.887681770	0.016150178	0.166618413	0.051353413
2020-01-05T21:10:00	0.2702	1.879		0.701379548	0.893202673	0.016305873	0.168224685	0.051848482
2020-01-05T21:15:00	0.2696	1.881		0.699423764	0.890169698	0.016220281	0.167341648	0.051576321
2020-01-05T21:20:00	0.2697	1.884		0.699739636	0.890659318	0.016234088	0.167484098	0.051620225
2020-01-05T21:25:00	0.2702	1.885		0.701353422	0.893162135	0.016304728	0.168212873	0.051844841
2020-01-05T21:30:00	0.2705	1.890		0.702317871	0.894658977	0.016347022	0.168649212	0.051979325
2020-01-05T21:35:00	0.2696	1.893		0.699388911	0.890115678	0.016218758	0.167325934	0.051571478
2020-01-05T21:40:00	0.2692	1.896		0.698081558	0.888090164	0.016161679	0.166737064	0.051389982
2020-01-05T21:45:00	0.2693	1.898		0.698397545	0.888579595	0.016175465	0.166879293	0.051433819
2020-01-05T21:50:00	0.2686	1.901		0.696115296	0.885046576	0.016076033	0.165853468	0.051117650
2020-01-05T21:55:00	0.2683	1.902		0.695131770	0.883525429	0.016033283	0.165412423	0.050981715
2020-01-05T22:00:00	0.2681	1.901		0.694473031	0.882507074	0.016004684	0.165117371	0.050890777
2020-01-05T22:05:00	0.2670	1.903		0.690936124	0.877045746	0.015851590	0.163537928	0.050403978
2020-01-05T22:10:00	0.2667	1.902		0.690000193	0.875602390	0.015811208	0.163121319	0.050275575
2020-01-05T22:15:00	0.2660	1.901		0.687761723	0.872153382	0.015714848	0.162127188	0.049969174
2020-01-05T22:20:00	0.2652	1.900		0.685196036	0.868205528	0.015604784	0.160991675	0.049619198
2020-01-05T22:25:00	0.2662	1.892		0.688493467	0.873280366	0.015746313	0.162451811	0.050069226
2020-01-05T22:30:00	0.2663	1.886		0.688533734	0.873342397	0.015748046	0.162469685	0.050074735
2020-01-05T22:35:00	0.2667	1.888		0.689876011	0.875410938	0.015805854	0.163066084	0.050258551
2020-01-05T22:40:00	0.2666	1.892		0.689590807	0.874971289	0.015793562	0.162939266	0.050219464
2020-01-05T22:45:00	0.2671	1.892		0.691258033	0.877542357	0.015865491	0.163681348	0.050448181
2020-01-05T22:50:00	0.2662	1.894		0.688369233	0.873088998	0.015740969	0.162396673	0.050052232
2020-01-05T22:55:00	0.2670	1.897		0.691013177	0.877164607	0.015854917	0.163572251	0.050414556
2020-01-05T23:00:00	0.2662	1.900		0.688449770	0.873213054	0.015744433	0.162432416	0.050063248
2020-01-05T23:05:00	0.2656	1.899		0.686536107	0.870266802	0.015662220	0.161584234	0.049801830
2020-01-05T23:10:00	0.2658	1.902		0.686902120	0.870830066	0.015677927	0.161746279	0.049851774
2020-01-05T23:15:00	0.2658	1.907		0.686942404	0.870892068	0.015679656	0.161764119	0.049857273
2020-01-05T23:20:00	0.2653	1.912		0.685353814	0.868448140	0.015611540	0.161061383	0.049640682
2020-01-05T23:25:00	0.2638	1.917		0.680503185	0.860999288	0.015404521	0.158925607	0.048982416
2020-01-05T23:30:00	0.2634	1.923		0.679238198	0.859060052	0.015350772	0.158371089	0.048811508
2020-01-05T23:35:00	0.2636	1.929		0.679931290	0.860122396	0.015380209	0.158674785	0.048905110
2020-01-05T23:40:00	0.2622	1.935		0.675400189	0.853184786	0.015188301	0.156694902	0.048294891
2020-01-05T23:45:00	0.2625	1.943		0.676420672	0.854745715	0.015231412	0.157139666	0.048431971
2020-01-05T23:50:00	0.2623	1.951		0.675481013	0.853308380	0.015191713	0.156730103	0.048305740
2020-01-05T23:55:00	0.2610	1.958		0.671271489	0.846878679	0.015014538	0.154902221	0.047742369
2020-01-06T00:00:00	0.2605	1.966		0.669676051	0.844445759	0.014947673	0.154212383	0.047529754
2020-01-06T00:05:00	0.2607	1.974		0.670370966	0.845505182	0.014976778	0.154512653	0.047622300
2020-01-06T00:10:00	0.2606	1.980		0.670084233	0.845067996	0.014964765	0.154388720	0.047584103
2020-01-06T00:15:00	0.2610	1.987		0.671433318	0.847125577	0.015021329	0.154972283	0.047763963
2020-01-06T00:20:00	0.2610	1.994		0.671473773	0.847187303	0.015023027	0.154989801	0.047769362
2020-01-06T00:25:00	0.2609	2.001		0.671187127	0.846749978	0.015010998	0.154865704	0.047731114
2020-01-06T00:30:00	0.2604	2.007		0.669264377	0.843818341	0.014930445	0.154034645	0.047474974
2020-01-06T00:35:00	0.2606	2.013		0.669959370	0.844877639	0.014959535	0.154334767	0.047567474
2020-01-06T00:40:00	0.2609	2.018		0.670981381	0.846436123	0.015002368	0.154776664	0.047703671
2020-01-06T00:45:00	0.2608	2.023		0.670694696	0.845998861	0.014990346	0.154652640	0.047665446
2020-01-06T00:50:00	0.2614	2.030		0.672697574	0.849055200	0.015074438	0.155520202	0.047932837
2020-01-06T00:55:00	0.2619	2.036		0.674372535	0.851613794	0.015144952	0.156247682	0.048157053
2020-01-06T01:00:00	0.2618	2.043		0.674086117	0.851176103	0.015132882	0.156123156	0.048118673
2020-01-06T01:05:00	0.2617	2.050		0.673799676	0.850738449	0.015120816	0.155998673	0.048080306
2020-01-06T01:10:00	0.2614	2.056		0.672532358	0.848802954	0.015067492	0.155448541	0.047910750
2020-01-06T01:15:00	0.2624	2.061		0.675841253	0.853859327	0.015206926	0.156887052	0.048354113
2020-01-06T01:20:00	0.2624	2.066		0.675881660	0.853921131	0.015208633	0.156904662	0.048359541
2020-01-06T01:25:00	0.2622	2.072		0.675268626	0.852983612	0.015182748	0.156637610	0.048277233
2020-01-06T01:30:00	0.2627	2.077		0.676942404	0.855544100	0.015253477	0.157367312	0.048502134
2020-01-06T01:35:00	0.2628	2.082		0.677309380	0.856105810	0.015269008	0.157527537	0.048551517
2020-01-06T01:40:00	0.2622	2.087		0.675389864	0.853168998	0.015187865	0.156690405	0.048293505
2020-01-06T01:45:00	0.2634	2.092		0.679348991	0.859229843	0.015355476	0.158419615	0.048826464
2020-01-06T01:50:00	0.2639	2.097		0.680694647	0.861292921	0.015412665	0.159009625	0.049008311
2020-01-06T01:55:00	0.2642	2.103		0.681713648	0.862856231	0.015456046	0.159457179	0.049146251
2020-01-06T02:00:00	0.2650	2.107		0.684362409	0.866924040	0.015569110	0.160623637	0.049505765
2020-01-06T02:05:00	0.2651	2.112		0.684728639	0.867486951	0.015584777	0.160785270	0.049555582
2020-01-06T02:10:00	0.2650	2.117		0.684443033	0.867047953	0.015572558	0.160659213	0.049516730
2020-01-06T02:15:00	0.2647	2.123		0.683505439	0.865607294	0.015532482	0.160245756	0.049389298
2020-01-06T02:20:00	0.2645	2.128		0.682893685	0.864667714	0.015506363	0.159976290	0.049306246
2020-01-06T02:25:00	0.2640	2.133		0.681303333	0.862226634	0.015438570	0.159276886	0.049090683
2020-01-06T02:30:00	0.2640	2.137		0.681343679	0.862288536	0.015440288	0.159294609	0.049096146
2020-01-06T02:35:00	0.2636	2.142		0.679752651	0.859848546	0.015372619	0.158596481	0.048880976
2020-01-06T02:40:00	0.2628	2.146		0.677181325	0.855909791	0.015263587	0.157471617	0.048534282
2020-01-06T02:45:00	0.2626	2.150		0.676568509	0.854971920	0.015237662	0.157204154	0.048451847
2020-01-06T02:50:00	0.2625	2.155		0.676282264	0.854533953	0.015225561	0.157079304	0.048413367
2020-01-06T02:55:00	0.2619	2.160		0.674362207	0.851598010	0.015144517	0.156243190	0.048155669
2020-01-06T03:00:00	0.2618	2.165		0.674075788	0.851160321	0.015132447	0.156118667	0.048117289
2020-01-06T03:05:00	0.2616	2.170		0.673462449	0.850223289	0.015106617	0.155852186	0.048035157
2020-01-06T03:10:00	0.2619	2.175		0.674483476	0.851783347	0.015149629	0.156295929	0.048171923
2020-01-06T03:15:00	0.2608	2.179		0.670599981	0.845854414	0.014986376	0.154611677	0.047652820
2020-01-06T03:20:00	0.2612	2.184		0.671948875	0.847912301	0.015042975	0.155195599	0.047832791
2020-01-06T03:25:00	0.2612	2.189		0.671989325	0.847974036	0.015044674	0.155213127	0.047838193
2020-01-06T03:30:00	0.2609	2.194		0.671048519	0.846538535	0.015005184	0.154805716	0.047712625
2020-01-06T03:35:00	0.2609	2.199		0.671088979	0.846600255	0.015006881	0.154823226	0.047718022
2020-01-06T03:40:00	0.2613	2.204		0.672437691	0.848658431	0.015063513	0.155407488	0.047898097
2020-01-06T03:45:00	0.2612	2.209		0.672151121	0.848220985	0.015051471	0.155283249	0.047859805
2020-01-06T03:50:00	0.2608	2.214		0.670883228	0.846286409	0.014998251	0.154734196	0.047690582
2020-01-06T03:55:00	0.2613	2.219		0.672232016	0.848344464	0.015054870	0.155318315	0.047870613
2020-01-06T04:00:00	0.2613	2.222		0.672272463	0.848406204	0.015056569	0.155335849	0.047876017
2020-01-06T04:05:00	0.2621	2.227		0.675017698	0.852599959	0.015172159	0.156528369	0.048243563
2020-01-06T04:10:00	0.2623	2.231		0.675474462	0.853298364	0.015191437	0.156727250	0.048304861
2020-01-06T04:15:00	0.2624	2.236		0.675931169	0.853996860	0.015210724	0.156926240	0.048366191
2020-01-06T04:20:00	0.2622	2.239		0.675407739	0.853196331	0.015188620	0.156698190	0.048295904
2020-01-06T04:25:00	0.2624	2.243		0.675864454	0.853894813	0.015207906	0.156897163	0.048357230
2020-01-06T04:30:00	0.2631	2.249		0.678280517	0.857592835	0.015310147	0.157951959	0.048682328
2020-01-06T04:35:00	0.2633	2.254		0.678736872	0.858291896	0.015329499	0.158151611	0.048743862
2020-01-06T04:40:00	0.2630	2.258		0.677887345	0.856990704	0.015293484	0.157780057	0.048629346
2020-01-06T04:45:00	0.2633	2.262		0.678996639	0.858689896	0.015340520	0.158265315	0.048778907
2020-01-06T04:50:00	0.2638	2.263		0.680431897	0.860889966	0.015401490	0.158894330	0.048972776
2020-01-06T04:55:00	0.2642	2.262		0.681866590	0.863090946	0.015462563	0.159524410	0.049166972
2020-01-06T05:00:00	0.2641	2.263		0.681670203	0.862789560	0.015454195	0.159438084	0.049140366
2020-01-06T05:05:00	0.2641	2.260		0.681473804	0.862488192	0.015445830	0.159351778	0.049113766
2020-01-06T05:10:00	0.2644	2.254		0.682582008	0.864189139	0.015493065	0.159839093	0.049263961
2020-01-06T05:15:00	0.2649	2.253		0.684015857	0.866391482	0.015554293	0.160470768	0.049458649
2020-01-06T05:20:00	0.2648	2.255		0.683819585	0.866089910	0.015545904	0.160384224	0.049431976
2020-01-06T05:25:00	0.2652	2.253		0.685252948	0.868293037	0.015607221	0.161016818	0.049626947
2020-01-06T05:30:00	0.2658	2.251		0.687011463	0.870998358	0.015682621	0.161794705	0.049866699
2020-01-06T05:35:00	0.2663	2.252		0.688769132	0.873705049	0.015758176	0.162574193	0.050106945
2020-01-06T05:40:00	0.2662	2.253		0.688247540	0.872901555	0.015735735	0.162342672	0.050035588
2020-01-06T05:45:00	0.2669	2.254		0.690655425	0.876612783	0.015839473	0.163412922	0.050365450
2020-01-06T05:50:00	0.2663	2.254		0.688832183	0.873802193	0.015760890	0.162602192	0.050115575
2020-01-06T05:55:00	0.2668	2.256		0.690263582	0.876008502	0.015822567	0.163238504	0.050311692
2020-01-06T06:00:00	0.2671	2.258		0.691369125	0.877713760	0.015870290	0.163730859	0.050463441
2020-01-06T06:05:00	0.2670	2.260		0.690847903	0.876909663	0.015847781	0.163498635	0.050391867
2020-01-06T06:10:00	0.2678	2.263		0.693579209	0.881125904	0.015965921	0.164717468	0.050767523
2020-01-06T06:15:00	0.2683	2.265		0.695333730	0.883837717	0.016042056	0.165502938	0.051009613
2020-01-06T06:20:00	0.2688	2.268		0.696762593	0.886048160	0.016104201	0.166144075	0.051207217
2020-01-06T06:25:00	0.2687	2.273		0.696567003	0.885745479	0.016095687	0.166056235	0.051180144
2020-01-06T06:30:00	0.2689	2.276		0.697021082	0.886448230	0.016115457	0.166260200	0.051243008
2020-01-06T06:35:00	0.2691	2.279		0.697799861	0.887653918	0.016149394	0.166610323	0.051350920
2020-01-06T06:40:00	0.2694	2.282		0.698903134	0.889362879	0.016197536	0.167106998	0.051504000
2020-01-06T06:45:00	0.2690	2.285		0.697408782	0.887048392	0.016132347	0.166434453	0.051296715
2020-01-06T06:50:00	0.2692	2.289		0.698187479	0.888254214	0.016166300	0.166784732	0.051404674
2020-01-06T06:55:00	0.2699	2.293		0.700264337	0.891472828	0.016257038	0.167720866	0.051693200
2020-01-06T07:00:00	0.2700	2.296		0.700717959	0.892176328	0.016276893	0.167925703	0.051756332
2020-01-06T07:05:00	0.2704	2.300		0.702144729	0.894390199	0.016339425	0.168570835	0.051955168
2020-01-06T07:10:00	0.2710	2.304		0.703895164	0.897108707	0.016416316	0.169364105	0.052199662
2020-01-06T07:15:00	0.2719	2.309		0.706940739	0.901844979	0.016550554	0.170749016	0.052626505
2020-01-06T07:20:00	0.2725	2.314		0.708688896	0.904567242	0.016627869	0.171546655	0.052872345
2020-01-06T07:25:00	0.2728	2.318		0.709788910	0.906281568	0.016676616	0.172049573	0.053027349
2020-01-06T07:30:00	0.2730	2.324		0.710564992	0.907491695	0.016711054	0.172404862	0.053136853
2020-01-06T07:35:00	0.2732	2.330		0.711017347	0.908197284	0.016731144	0.172612129	0.053200735
2020-01-06T07:40:00	0.2732	2.335		0.711146095	0.908398138	0.016736864	0.172671144	0.053218924
2020-01-06T07:45:00	0.2732	2.340		0.710951268	0.908094202	0.016728208	0.172581843	0.053191400
2020-01-06T07:50:00	0.2732	2.345		0.711080017	0.908295052	0.016733928	0.172640854	0.053209588
2020-01-06T07:55:00	0.2730	2.351		0.710561583	0.907486379	0.016710903	0.172403301	0.053136372
2020-01-06T08:00:00	0.2734	2.355		0.711661039	0.909201629	0.016759754	0.172907293	0.053291707
2020-01-06T08:05:00	0.2730	2.361		0.710495496	0.907383309	0.016707968	0.172373031	0.053127042
2020-01-06T08:10:00	0.2729	2.367		0.709976979	0.906574772	0.016684958	0.172135635	0.053053875
2020-01-06T08:15:00	0.2734	2.373		0.711723698	0.909299415	0.016762540	0.172936039	0.053300567
2020-01-06T08:20:00	0.2743	2.379		0.714762817	0.914046368	0.016897982	0.174333363	0.053731236
2020-01-06T08:25:00	0.2748	2.389		0.716184163	0.916269206	0.016961524	0.174988918	0.053933284
2020-01-06T08:30:00	0.2741	2.398		0.714050237	0.912932629	0.016866173	0.174005197	0.053630092
2020-01-06T08:35:00	0.2745	2.406		0.715148654	0.914649603	0.016915218	0.174511190	0.053786044
2020-01-06T08:40:00	0.2746	2.413		0.715600449	0.915356123	0.016935413	0.174719538	0.053850258
2020-01-06T08:45:00	0.2744	2.419		0.715082649	0.914546397	0.016912269	0.174480762	0.053776665
2020-01-06T08:50:00	0.2744	2.426		0.714888029	0.914242116	0.016903574	0.174391061	0.053749019
2020-01-06T08:55:00	0.2746	2.434		0.715663041	0.915454020	0.016938212	0.174748413	0.053859158
2020-01-06T09:00:00	0.2752	2.442		0.717407074	0.918183125	0.017016297	0.175553997	0.054107447
2020-01-06T09:05:00	0.2753	2.451		0.717858593	0.918890105	0.017036543	0.175762878	0.054171826
2020-01-06T09:10:00	0.2751	2.460		0.717341109	0.918079852	0.017013340	0.175523491	0.054098045
2020-01-06T09:15:00	0.2757	2.468		0.719084351	0.920810275	0.017091573	0.176330604	0.054346805
2020-01-06T09:20:00	0.2752	2.477		0.717598159	0.918482300	0.017024864	0.175642380	0.054134687
2020-01-06T09:25:00	0.2743	2.486		0.714495355	0.913628281	0.016886039	0.174210149	0.053693260
2020-01-06T09:30:00	0.2742	2.496		0.714300705	0.913324051	0.016877350	0.174120508	0.053665632
2020-01-06T09:35:00	0.2739	2.507		0.713459372	0.912009465	0.016839822	0.173733335	0.053546301
2020-01-06T09:40:00	0.2733	2.519		0.711323871	0.908675504	0.016744765	0.172752651	0.053244045
2020-01-06T09:45:00	0.2726	2.530		0.709187133	0.905343593	0.016649939	0.171774348	0.052942522
2020-01-06T09:50:00	0.2728	2.541		0.709639657	0.906048902	0.016669997	0.171981290	0.053006304
2020-01-06T09:55:00	0.2721	2.552		0.707501943	0.902718607	0.016575353	0.171004864	0.052705360
2020-01-06T10:00:00	0.2720	2.563		0.707306923	0.902414988	0.016566733	0.170915934	0.052677951
2020-01-06T10:05:00	0.2723	2.573		0.708129376	0.903695658	0.016603102	0.171291146	0.052793595
2020-01-06T10:10:00	0.2725	2.585		0.708951646	0.904976631	0.016639506	0.171666711	0.052909348
2020-01-06T10:15:00	0.2721	2.597		0.707507225	0.902726831	0.016575587	0.171007273	0.052706102
2020-01-06T10:20:00	0.2717	2.608		0.706062239	0.900477967	0.016511774	0.170348923	0.052503193
2020-01-06T10:25:00	0.2715	2.618		0.705588978	0.899741816	0.016490902	0.170133594	0.052436826
2020-01-06T10:30:00	0.2722	2.629		0.707707517	0.903038692	0.016584442	0.171098634	0.052734261
2020-01-06T10:35:00	0.2709	2.639		0.703669731	0.896758449	0.016406403	0.169261832	0.052168140
2020-01-06T10:40:00	0.2712	2.650		0.704492996	0.898037779	0.016442621	0.169635485	0.052283304
2020-01-06T10:45:00	0.2708	2.662		0.703371091	0.896294517	0.016393275	0.169126396	0.052126398
2020-01-06T10:50:00	0.2704	2.672		0.701924479	0.894048329	0.016329764	0.168471160	0.051924448
2020-01-06T10:55:00	0.2692	2.684		0.698205058	0.888281442	0.016167066	0.166792645	0.051407113
2020-01-06T11:00:00	0.2686	2.695		0.696106685	0.885033255	0.016075658	0.165849604	0.051116459
2020-01-06T11:05:00	0.2686	2.707		0.696281951	0.885304413	0.016083283	0.165928263	0.051140702
2020-01-06T11:10:00	0.2682	2.717		0.694832545	0.883062806	0.016020289	0.165278364	0.050940397
2020-01-06T11:15:00	0.2677	2.728		0.693382566	0.880822135	0.015957400	0.164629557	0.050740428
2020-01-06T11:20:00	0.2673	2.738		0.691932013	0.878582399	0.015894618	0.163981842	0.050540796
2020-01-06T11:25:00	0.2672	2.749		0.691456927	0.877849237	0.015874084	0.163769995	0.050475503
2020-01-06T11:30:00	0.2671	2.761		0.691307113	0.877618080	0.015867611	0.163703221	0.050454923
2020-01-06T11:35:00	0.2668	2.773		0.690181169	0.875881425	0.015819012	0.163201833	0.050300390
2020-01-06T11:40:00	0.2666	2.782		0.689705857	0.875148633	0.015798520	0.162990418	0.050235230
2020-01-06T11:45:00	0.2661	2.793		0.687928243	0.872409804	0.015722005	0.162201031	0.049991933
2020-01-06T11:50:00	0.2661	2.802		0.688103900	0.872680324	0.015729557	0.162278945	0.050015947
2020-01-06T11:55:00	0.2658	2.811		0.686976971	0.870945270	0.015681140	0.161779428	0.049861991
2020-01-06T12:00:00	0.2649	2.819		0.684220314	0.866705666	0.015563034	0.160560948	0.049486444
2020-01-06T12:05:00	0.2642	2.828		0.681787756	0.862969958	0.015459204	0.159489754	0.049156291
2020-01-06T12:10:00	0.2642	2.836		0.681963709	0.863240000	0.015466702	0.159567109	0.049180133
2020-01-06T12:15:00	0.2634	2.843		0.679203263	0.859006515	0.015349289	0.158355789	0.048806792
2020-01-06T12:20:00	0.2631	2.852		0.678400065	0.857775946	0.015315215	0.158004248	0.048698444
2020-01-06T12:25:00	0.2641	2.861		0.681513078	0.862548453	0.015447502	0.159369035	0.049119084
2020-01-06T12:30:00	0.2644	2.869		0.682341335	0.863819647	0.015482800	0.159733194	0.049231322
2020-01-06T12:35:00	0.2646	2.875		0.683169404	0.865091145	0.015518132	0.160097709	0.049343669
2020-01-06T12:40:00	0.2643	2.880		0.682040951	0.863358556	0.015469994	0.159601074	0.049190601
2020-01-06T12:45:00	0.2642	2.889		0.681890750	0.863128025	0.015463592	0.159535032	0.049170246
2020-01-06T12:50:00	0.2643	2.896		0.682066698	0.863398075	0.015471091	0.159612397	0.049194091
2020-01-06T12:55:00	0.2637	2.904		0.680285362	0.860665265	0.015395259	0.158830050	0.048952964
2020-01-06T13:00:00	0.2645	2.911		0.682744664	0.864438884	0.015500004	0.159910685	0.049286026
2020-01-06T13:05:00	0.2639	2.917		0.680963659	0.861705541	0.015424111	0.159127713	0.049044707
2020-01-06T13:10:00	0.2642	2.923		0.681792041	0.862976535	0.015459386	0.159491638	0.049156872
2020-01-06T13:15:00	0.2645	2.930		0.682946312	0.864748530	0.015508609	0.159999461	0.049313388
2020-01-06T13:20:00	0.2648	2.937		0.683774244	0.866020249	0.015543966	0.160364235	0.049425815
2020-01-06T13:25:00	0.2648	2.943		0.683950102	0.866290445	0.015551482	0.160441772	0.049449712
2020-01-06T13:30:00	0.2655	2.948		0.686081169	0.869566850	0.015642708	0.161382939	0.049739789
2020-01-06T13:35:00	0.2656	2.953		0.686256915	0.869837226	0.015650244	0.161460685	0.049763751
2020-01-06T13:40:00	0.2655	2.955		0.686106888	0.869606415	0.015643811	0.161394315	0.049743295
2020-01-06T13:45:00	0.2659	2.957		0.687259796	0.871380613	0.015693284	0.161904716	0.049900606
2020-01-06T13:50:00	0.2662	2.961		0.688412341	0.873155399	0.015742823	0.162415804	0.050058128
2020-01-06T13:55:00	0.2659	2.964		0.687285506	0.871420191	0.015694388	0.161916107	0.049904117
2020-01-06T14:00:00	0.2659	2.966		0.687461195	0.871690661	0.015701934	0.161993963	0.049928113
2020-01-06T14:05:00	0.2656	2.969		0.686334067	0.869955928	0.015653553	0.161494822	0.049774272
2020-01-06T14:10:00	0.2655	2.971		0.686184042	0.869725112	0.015647119	0.161428446	0.049753815
2020-01-06T14:15:00	0.2652	2.972		0.685056521	0.867991017	0.015598810	0.160930050	0.049600204
2020-01-06T14:20:00	0.2651	2.974		0.684906444	0.867760286	0.015592386	0.160863773	0.049579777
2020-01-06T14:25:00	0.2652	2.975		0.685082246	0.868030571	0.015599912	0.160941412	0.049603706
2020-01-06T14:30:00	0.2655	2.977		0.686235478	0.869804245	0.015649325	0.161451201	0.049760828
2020-01-06T14:35:00	0.2656	2.976		0.686411217	0.870074633	0.015656862	0.161528961	0.049784795
2020-01-06T14:40:00	0.2645	2.978		0.682676005	0.864333461	0.015497075	0.159880463	0.049276711
2020-01-06T14:45:00	0.2651	2.979		0.684807816	0.867608665	0.015588165	0.160820225	0.049566355
2020-01-06T14:50:00	0.2646	2.980		0.683027817	0.864873697	0.015512088	0.160035352	0.049324450
2020-01-06T14:55:00	0.2653	2.981		0.685485273	0.868650296	0.015617171	0.161119475	0.049658587
2020-01-06T15:00:00	0.2655	2.980		0.685986854	0.869421762	0.015638665	0.161341224	0.049726932
2020-01-06T15:05:00	0.2650	2.980		0.684533365	0.867186792	0.015576422	0.160699076	0.049529016
2020-01-06T15:10:00	0.2654	2.981		0.685686770	0.868960186	0.015625804	0.161208537	0.049686037
2020-01-06T15:15:00	0.2652	2.981		0.685210873	0.868228342	0.015605419	0.160998230	0.049621218
2020-01-06T15:20:00	0.2651	2.979		0.684734914	0.867496597	0.015585045	0.160788040	0.049556435
2020-01-06T15:25:00	0.2648	2.978		0.683932934	0.866264066	0.015550748	0.160434201	0.049447379
2020-01-06T15:30:00	0.2658	2.976		0.687041233	0.871044180	0.015683899	0.161807891	0.049870763
2020-01-06T15:35:00	0.2655	2.975		0.685913975	0.869309657	0.015635541	0.161308994	0.049716999
2020-01-06T15:40:00	0.2653	2.975		0.685438108	0.868577764	0.015615151	0.161098631	0.049652163
2020-01-06T15:45:00	0.2657	2.974		0.686591227	0.870351620	0.015664585	0.161608632	0.049809350
2020-01-06T15:50:00	0.2653	2.973		0.685463831	0.868617322	0.015616253	0.161109999	0.049655666
2020-01-06T15:55:00	0.2652	2.972		0.684987905	0.867885524	0.015595873	0.160899746	0.049590864
2020-01-06T16:00:00	0.2660	2.970		0.687769690	0.872165649	0.015715190	0.162130720	0.049970262
2020-01-06T16:05:00	0.2662	2.970		0.688265131	0.872928648	0.015736491	0.162350478	0.050037994
2020-01-06T16:10:00	0.2674	2.968		0.692339737	0.879211765	0.015912252	0.164163767	0.050596867
2020-01-06T16:15:00	0.2672	2.966		0.691533601	0.877967548	0.015877397	0.163804175	0.050486038
2020-01-06T16:20:00	0.2677	2.964		0.693329316	0.880739881	0.015955093	0.164605756	0.050733093
2020-01-06T16:25:00	0.2679	2.963		0.693824005	0.881504103	0.015976532	0.164826941	0.050801264
2020-01-06T16:30:00	0.2675	2.961		0.692693015	0.879757203	0.015927539	0.164321484	0.050645477
2020-01-06T16:35:00	0.2678	2.959		0.693512926	0.881023508	0.015963049	0.164687833	0.050758390
2020-01-06T16:40:00	0.2682	2.958		0.694982694	0.883294938	0.016026808	0.165345627	0.050961128
2020-01-06T16:45:00	0.2690	2.958		0.697426328	0.887075557	0.016133112	0.166442342	0.051299146
2020-01-06T16:50:00	0.2692	2.957		0.698245182	0.888343589	0.016168817	0.166810705	0.051412679
2020-01-06T16:55:00	0.2692	2.955		0.698089834	0.888102980	0.016162040	0.166740788	0.051391130
2020-01-06T17:00:00	0.2690	2.952		0.697609734	0.887359519	0.016141105	0.166524810	0.051324564
2020-01-06T17:05:00	0.2692	2.950		0.698103846	0.888124683	0.016162651	0.166747093	0.051393074
2020-01-06T17:10:00	0.2701	2.948		0.700869889	0.892411989	0.016283546	0.167994337	0.051777486
2020-01-06T17:15:00	0.2703	2.943		0.701687976	0.893681278	0.016319393	0.168364165	0.051891471
2020-01-06T17:20:00	0.2715	2.939		0.705423662	0.899484715	0.016483614	0.170058410	0.052413654
2020-01-06T17:25:00	0.2716	2.933		0.705916725	0.900251602	0.016505355	0.170282701	0.052482782
2020-01-06T17:30:00	0.2713	2.929		0.704789453	0.898498608	0.016455673	0.169770145	0.052324807
2020-01-06T17:35:00	0.2717	2.925		0.706254719	0.900777423	0.016520266	0.170436541	0.052530197
2020-01-06T17:40:00	0.2719	2.920		0.706747671	0.901544493	0.016542027	0.170661045	0.052599392
2020-01-06T17:45:00	0.2722	2.914		0.707888319	0.903320239	0.016592438	0.171181128	0.052759686
2020-01-06T17:50:00	0.2726	2.907		0.709028615	0.905096568	0.016642915	0.171701889	0.052920190
2020-01-06T17:55:00	0.2722	2.898		0.707902295	0.903342003	0.016593057	0.171187505	0.052761652
2020-01-06T18:00:00	0.2717	2.882		0.706127672	0.900579763	0.016514660	0.170378706	0.052512372
2020-01-06T18:05:00	0.2712	2.861		0.704676343	0.898322775	0.016450692	0.169718760	0.052308970
2020-01-06T18:10:00	0.2720	2.842		0.707113545	0.902113957	0.016558188	0.170827775	0.052650779
2020-01-06T18:15:00	0.2713	2.822		0.705014451	0.898848408	0.016465583	0.169872383	0.052356318
2020-01-06T18:20:00	0.2712	2.800		0.704535254	0.898103462	0.016444481	0.169654677	0.052289219
2020-01-06T18:25:00	0.2714	2.780		0.705352527	0.899374092	0.016480479	0.170026065	0.052403684
2020-01-06T18:30:00	0.2716	2.758		0.705845600	0.900140964	0.016502218	0.170250337	0.052472807
2020-01-06T18:35:00	0.2720	2.737		0.707310445	0.902420471	0.016566889	0.170917539	0.052678446
2020-01-06T18:40:00	0.2716	2.718		0.705859583	0.900162714	0.016502834	0.170256699	0.052474768
2020-01-06T18:45:00	0.2717	2.698		0.706352588	0.900929698	0.016524585	0.170481101	0.052543931
2020-01-06T18:50:00	0.2710	2.679		0.703928873	0.897161085	0.016417799	0.169379401	0.052204376
2020-01-06T18:55:00	0.2707	2.659		0.703125278	0.895912710	0.016382474	0.169014962	0.052092053
2020-01-06T19:00:00	0.2700	2.639		0.700699436	0.892147598	0.016276082	0.167917336	0.051753754
2020-01-06T19:05:00	0.2694	2.618		0.698596678	0.888888075	0.016184156	0.166968958	0.051461454
2020-01-06T19:10:00	0.2689	2.598		0.697142374	0.886635977	0.016120740	0.166314705	0.051259807
2020-01-06T19:15:00	0.2683	2.578		0.695037577	0.883379791	0.016029192	0.165370217	0.050968707
2020-01-06T19:20:00	0.2689	2.559		0.697156390	0.886657673	0.016121351	0.166321004	0.051261749
2020-01-06T19:25:00	0.2682	2.541		0.694726601	0.882899028	0.016015689	0.165230913	0.050925772
2020-01-06T19:30:00	0.2675	2.519		0.692620417	0.879645108	0.015924397	0.164289067	0.050635486
2020-01-06T19:35:00	0.2688	2.499		0.696690186	0.885936104	0.016101049	0.166111554	0.051197194
2020-01-06T19:40:00	0.2684	2.477		0.695560080	0.884187761	0.016051892	0.165604415	0.051040889
2020-01-06T19:45:00	0.2692	2.454		0.698003330	0.887969010	0.016158267	0.166701862	0.051379133
2020-01-06T19:50:00	0.2687	2.433		0.696548790	0.885717296	0.016094894	0.166048057	0.051177624
2020-01-06T19:55:00	0.2682	2.410		0.694768677	0.882964072	0.016017516	0.165249758	0.050931580
2020-01-06T20:00:00	0.2680	2.388		0.694288143	0.882221321	0.015996662	0.165034608	0.050865269
2020-01-06T20:05:00	0.2680	2.368		0.694132627	0.881980986	0.015989916	0.164965011	0.050843818
2020-01-06T20:10:00	0.2674	2.349		0.692351340	0.879229678	0.015912754	0.164168946	0.050598463
2020-01-06T20:15:00	0.2658	2.329		0.686988222	0.870962587	0.015681623	0.161784411	0.049863527
2020-01-06T20:20:00	0.2660	2.309		0.687809412	0.872226814	0.015716897	0.162148333	0.049975691
2020-01-06T20:25:00	0.2662	2.288		0.688304847	0.872989822	0.015738199	0.162368101	0.050043426
2020-01-06T20:30:00	0.2657	2.268		0.686846451	0.870744389	0.015675537	0.161721627	0.049844176
2020-01-06T20:35:00	0.2663	2.249		0.688644466	0.873512984	0.015752810	0.162518841	0.050089885
2020-01-06T20:40:00	0.2660	2.232		0.687837515	0.872270091	0.015718105	0.162160795	0.049979532
2020-01-06T20:45:00	0.2658	2.215		0.687030387	0.871027486	0.015683433	0.161803087	0.049869283
2020-01-06T20:50:00	0.2662	2.200		0.688502759	0.873294681	0.015746713	0.162455936	0.050070497
2020-01-06T20:55:00	0.2663	2.184		0.688672563	0.873556270	0.015754020	0.162531316	0.050093730
2020-01-06T21:00:00	0.2669	2.171		0.690469681	0.876326321	0.015831458	0.163330231	0.050339964
2020-01-06T21:05:00	0.2665	2.157		0.689337655	0.874581107	0.015782655	0.162826744	0.050184784
2020-01-06T21:10:00	0.2665	2.144		0.689181928	0.874341114	0.015775948	0.162757546	0.050163456
2020-01-06T21:15:00	0.2670	2.132		0.690978796	0.877111571	0.015853432	0.163556936	0.050409836
2020-01-06T21:20:00	0.2669	2.121		0.690497764	0.876369630	0.015832669	0.163342732	0.050343816
2020-01-06T21:25:00	0.2670	2.109		0.690992836	0.877133229	0.015854038	0.163563190	0.050411764
2020-01-06T21:30:00	0.2677	2.098		0.693113987	0.880407296	0.015945766	0.164509527	0.050703434
2020-01-06T21:35:00	0.2678	2.088		0.693608705	0.881171471	0.015967200	0.164730657	0.050771588
2020-01-06T21:40:00	0.2682	2.076		0.694753437	0.882940513	0.016016854	0.165242932	0.050929477
2020-01-06T21:45:00	0.2677	2.063		0.693297608	0.880690905	0.015953720	0.164591584	0.050728725
2020-01-06T21:50:00	0.2668	2.049		0.690214489	0.875932801	0.015820449	0.163216659	0.050304959
2020-01-06T21:55:00	0.2666	2.037		0.689733356	0.875191023	0.015799705	0.163002645	0.050238998
2020-01-06T22:00:00	0.2674	2.025		0.692180491	0.878965935	0.015905363	0.164092699	0.050574964
2020-01-06T22:05:00	0.2672	2.013		0.691532864	0.877966411	0.015877365	0.163803847	0.050485936
2020-01-06T22:10:00	0.2663	2.002		0.688606929	0.873455155	0.015751195	0.162502177	0.050084749
2020-01-06T22:15:00	0.2651	1.993		0.684701065	0.867444565	0.015583597	0.160773097	0.049551830
2020-01-06T22:20:00	0.2651	1.982		0.684703981	0.867449047	0.015583722	0.160774384	0.049552227
2020-01-06T22:25:00	0.2645	1.969		0.682750943	0.864448525	0.015500272	0.159913448	0.049286878
2020-01-06T22:30:00	0.2630	1.956		0.677859386	0.856947891	0.015292300	0.157767836	0.048625579
2020-01-06T22:35:00	0.2626	1.945		0.676556005	0.854952786	0.015237134	0.157198699	0.048450166
2020-01-06T22:40:00	0.2622	1.934		0.675252157	0.852958430	0.015182053	0.156630439	0.048275022
2020-01-06T22:45:00	0.2610	1.923		0.671331954	0.846970925	0.015017075	0.154928397	0.047750437
2020-01-06T22:50:00	0.2600	1.911		0.668062372	0.841987245	0.014880202	0.153516302	0.047315215
2020-01-06T22:55:00	0.2590	1.898		0.664789843	0.837008259	0.014743864	0.152109722	0.046881694
2020-01-06T23:00:00	0.2589	1.885		0.664465067	0.836514629	0.014730369	0.151970499	0.046838784
2020-01-06T23:05:00	0.2590	1.875		0.664795708	0.837017173	0.014744107	0.152112236	0.046882469
2020-01-06T23:10:00	0.2578	1.862		0.660864188	0.831047684	0.014581182	0.150431367	0.046364408
2020-01-06T23:15:00	0.2574	1.851		0.659554690	0.829062323	0.014527126	0.149873678	0.046192523
2020-01-06T23:20:00	0.2575	1.840		0.659885779	0.829564156	0.014540783	0.150014580	0.046235950
2020-01-06T23:25:00	0.2553	1.829		0.652662470	0.818637032	0.014244344	0.146956272	0.045293350
2020-01-06T23:30:00	0.2547	1.818		0.650692106	0.815664082	0.014164035	0.146127743	0.045037990
2020-01-06T23:35:00	0.2554	1.808		0.652997133	0.819142312	0.014258008	0.147097239	0.045336798
2020-01-06T23:40:00	0.2555	1.798		0.653328823	0.819643198	0.014271557	0.147237024	0.045379881
2020-01-06T23:45:00	0.2560	1.788		0.654975058	0.822130570	0.014338904	0.147931826	0.045594025
2020-01-06T23:50:00	0.2546	1.778		0.650374893	0.815185769	0.014151129	0.145994584	0.044996949
2020-01-06T23:55:00	0.2542	1.766		0.649061585	0.813206400	0.014097757	0.145443964	0.044827242
2020-01-07T00:00:00	0.2537	1.756		0.647418540	0.810732133	0.014031134	0.144756626	0.044615398
2020-01-07T00:05:00	0.2528	1.745		0.644456809	0.806277859	0.013911456	0.143521927	0.044234852
2020-01-07T00:10:00	0.2529	1.735		0.644789287	0.806777514	0.013924864	0.143660257	0.044277486
2020-01-07T00:15:00	0.2515	1.722		0.640176083	0.799853076	0.013739423	0.141747093	0.043687831
2020-01-07T00:20:00	0.2510	1.710		0.638528972	0.797385137	0.013673526	0.141067246	0.043478295
2020-01-07T00:25:00	0.2507	1.696		0.637541525	0.795906704	0.013634099	0.140660490	0.043352929
2020-01-07T00:30:00	0.2501	1.684		0.635562857	0.792946681	0.013555274	0.139847263	0.043102285
2020-01-07T00:35:00	0.2502	1.672		0.635896159	0.793445058	0.013568535	0.139984077	0.043144452
2020-01-07T00:40:00	0.2505	1.662		0.636889970	0.794931632	0.013608117	0.140392432	0.043270311
2020-01-07T00:45:00	0.2499	1.649		0.634910943	0.791972165	0.013529355	0.139579864	0.043019870
2020-01-07T00:50:00	0.2497	1.636		0.634252996	0.790988997	0.013503223	0.139310261	0.042936775
2020-01-07T00:55:00	0.2506	1.626		0.637229058	0.795439043	0.013621636	0.140531904	0.043313298
2020-01-07T01:00:00	0.2498	1.617		0.634589377	0.791491604	0.013516580	0.139448064	0.042979248
2020-01-07T01:05:00	0.2496	1.607		0.633931371	0.790508526	0.013490458	0.139178569	0.042896187
2020-01-07T01:10:00	0.2487	1.596		0.630958487	0.786071535	0.013372766	0.137964359	0.042521955
2020-01-07T01:15:00	0.2467	1.583		0.624339594	0.776219779	0.013112654	0.135280833	0.041694867
2020-01-07T01:20:00	0.2459	1.571		0.621690379	0.772286979	0.013009286	0.134214403	0.041366182
2020-01-07T01:25:00	0.2466	1.562		0.624014110	0.775736274	0.013099931	0.135149575	0.041654412
2020-01-07T01:30:00	0.2464	1.551		0.623354155	0.774756188	0.013074154	0.134883638	0.041572447
2020-01-07T01:35:00	0.2458	1.542		0.621367621	0.771808245	0.012996721	0.134084776	0.041326230
2020-01-07T01:40:00	0.2469	1.531		0.625017156	0.777226581	0.013139159	0.135554284	0.041779147
2020-01-07T01:45:00	0.2468	1.522		0.624688768	0.776738575	0.013126310	0.135421718	0.041738289
2020-01-07T01:50:00	0.2450	1.511		0.618722136	0.767887609	0.012893972	0.133024737	0.040999516
2020-01-07T01:55:00	0.2447	1.502		0.617729202	0.766417592	0.012855516	0.132627993	0.040877236
2020-01-07T02:00:00	0.2444	1.490		0.616735990	0.764947995	0.012817109	0.132231752	0.040755110
2020-01-07T02:05:00	0.2441	1.480		0.615742501	0.763478819	0.012778750	0.131836013	0.040633139
2020-01-07T02:10:00	0.2436	1.470		0.614084087	0.761028199	0.012714851	0.131176777	0.040429957
2020-01-07T02:15:00	0.2445	1.462		0.617076996	0.765452468	0.012830289	0.132367727	0.040797019
2020-01-07T02:20:00	0.2432	1.451		0.612760368	0.759073814	0.012663967	0.130651811	0.040268157
2020-01-07T02:25:00	0.2430	1.441		0.612098324	0.758096902	0.012638557	0.130389662	0.040187360
2020-01-07T02:30:00	0.2434	1.432		0.613431212	0.760064088	0.012689741	0.130917722	0.040350113
2020-01-07T02:35:00	0.2435	1.423		0.613766587	0.760559296	0.012702637	0.131050763	0.040391118
2020-01-07T02:40:00	0.2436	1.414		0.614101930	0.761054553	0.012715538	0.131183861	0.040432140
2020-01-07T02:45:00	0.2452	1.402		0.619418582	0.768919177	0.012920981	0.133303379	0.041085396
2020-01-07T02:50:00	0.2453	1.393		0.619753393	0.769415240	0.012933976	0.133437441	0.041126715
2020-01-07T02:55:00	0.2450	1.383		0.618760746	0.767944786	0.012895469	0.133040176	0.041004274
2020-01-07T03:00:00	0.2436	1.374		0.614113825	0.761072122	0.012715996	0.131188583	0.040433595
2020-01-07T03:05:00	0.2441	1.363		0.615778170	0.763531552	0.012780127	0.131850210	0.040637515
2020-01-07T03:10:00	0.2448	1.353		0.618105758	0.766974978	0.012870093	0.132778380	0.040923586
2020-01-07T03:15:00	0.2440	1.344		0.615451903	0.763049239	0.012767542	0.131720374	0.040597499
2020-01-07T03:20:00	0.2443	1.333		0.616451417	0.764527083	0.012806116	0.132118334	0.040720154
2020-01-07T03:25:00	0.2448	1.322		0.618114670	0.766988170	0.012870438	0.132781941	0.040924684
2020-01-07T03:30:00	0.2445	1.313		0.617121566	0.765518410	0.012832012	0.132385504	0.040802498
2020-01-07T03:35:00	0.2445	1.302		0.617124537	0.765522806	0.012832127	0.132386689	0.040802863
2020-01-07T03:40:00	0.2435	1.290		0.613805250	0.760616392	0.012704124	0.131066105	0.040395846
2020-01-07T03:45:00	0.2435	1.280		0.613808224	0.760620784	0.012704238	0.131067285	0.040396210
2020-01-07T03:50:00	0.2448	1.268		0.618129522	0.767010157	0.012871014	0.132787874	0.040926512
2020-01-07T03:55:00	0.2449	1.259		0.618464454	0.767506037	0.012883987	0.132921717	0.040967764
2020-01-07T04:00:00	0.2453	1.249		0.619794960	0.769476834	0.012935589	0.133454090	0.041131847
2020-01-07T04:05:00	0.2457	1.238		0.621139810	0.771470394	0.012987857	0.133993321	0.041298043
2020-01-07T04:10:00	0.2459	1.230		0.621489297	0.771988712	0.013001457	0.134133636	0.041341289
2020-01-07T04:15:00	0.2462	1.221		0.622501953	0.773491144	0.013040907	0.134540634	0.041466730
2020-01-07T04:20:00	0.2452	1.209		0.619202525	0.768599111	0.012912599	0.133216904	0.041058744
2020-01-07T04:25:00	0.2445	1.203		0.616896454	0.765185368	0.012823310	0.132295727	0.040774828
2020-01-07T04:30:00	0.2453	1.195		0.619570018	0.769143536	0.012926858	0.133364007	0.041104082
2020-01-07T04:35:00	0.2468	1.184		0.624561984	0.776550190	0.013121350	0.135370554	0.041722519
2020-01-07T04:40:00	0.2457	1.176		0.620932761	0.771163372	0.012979803	0.133910230	0.041272433
2020-01-07T04:45:00	0.2449	1.170		0.618295864	0.767256421	0.012877456	0.132854337	0.040946997
2020-01-07T04:50:00	0.2443	1.162		0.616321368	0.764334749	0.012801093	0.132066520	0.040704184
2020-01-07T04:55:00	0.2430	1.153		0.612018700	0.757979434	0.012635503	0.130358152	0.040177649
2020-01-07T05:00:00	0.2435	1.144		0.613698897	0.760459339	0.012700034	0.131023905	0.040382840
2020-01-07T05:05:00	0.2429	1.138		0.611721846	0.757541536	0.012624119	0.130240710	0.040141452
2020-01-07T05:10:00	0.2419	1.132		0.608412401	0.752664684	0.012497569	0.128935118	0.039739056
2020-01-07T05:15:00	0.2414	1.125		0.606765460	0.750241152	0.012434837	0.128287919	0.039539583
2020-01-07T05:20:00	0.2407	1.119		0.604451300	0.746839627	0.012346965	0.127381358	0.039260172
2020-01-07T05:25:00	0.2415	1.114		0.607134241	0.750783629	0.012448870	0.128432694	0.039584203
2020-01-07T05:30:00	0.2411	1.108		0.605819851	0.748850684	0.012398892	0.127917082	0.039425287
2020-01-07T05:35:00	0.2394	1.105		0.600170032	0.740558526	0.012185244	0.125712917	0.038745942
2020-01-07T05:40:00	0.2402	1.100		0.602856216	0.744497667	0.012286584	0.126758419	0.039068176
2020-01-07T05:45:00	0.2399	1.098		0.601540238	0.742567104	0.012236883	0.126245665	0.038910140
2020-01-07T05:50:00	0.2398	1.094		0.601224598	0.742104270	0.012224977	0.126122838	0.038872284
2020-01-07T05:55:00	0.2413	1.093		0.606242379	0.749471896	0.012414947	0.128082715	0.039476337
2020-01-07T06:00:00	0.2412	1.091		0.605927157	0.749008434	0.012402968	0.127959136	0.039438248
2020-01-07T06:05:00	0.2406	1.089		0.603945771	0.746097161	0.012327812	0.127183761	0.039199270
2020-01-07T06:10:00	0.2403	1.087		0.602963612	0.744655282	0.012290644	0.126800312	0.039081088
2020-01-07T06:15:00	0.2406	1.083		0.603981559	0.746149715	0.012329167	0.127197744	0.039203580
2020-01-07T06:20:00	0.2408	1.082		0.604665992	0.747155008	0.012355103	0.127465324	0.039286051
2020-01-07T06:25:00	0.2403	1.078		0.603017309	0.744734092	0.012292675	0.126821261	0.039087544
2020-01-07T06:30:00	0.2405	1.074		0.603701928	0.745739106	0.012318579	0.127088505	0.039169912
2020-01-07T06:35:00	0.2425	1.070		0.610380102	0.755563211	0.012572733	0.129710568	0.039978057
2020-01-07T06:40:00	0.2411	1.068		0.605737106	0.748729046	0.012395749	0.127884658	0.039415294
2020-01-07T06:45:00	0.2424	1.066		0.610083111	0.755125520	0.012561373	0.129593373	0.039941936
2020-01-07T06:50:00	0.2415	1.063		0.607105161	0.750740848	0.012447763	0.128421274	0.039580684
2020-01-07T06:55:00	0.2421	1.061		0.609120519	0.753707405	0.012524592	0.129213904	0.039824980
2020-01-07T07:00:00	0.2425	1.059		0.610469409	0.755694843	0.012576150	0.129745820	0.039988922
2020-01-07T07:05:00	0.2440	1.060		0.615474142	0.763082111	0.012768399	0.131729222	0.040600225
2020-01-07T07:10:00	0.2437	1.062		0.614495168	0.761635434	0.012730675	0.131340027	0.040480272
2020-01-07T07:15:00	0.2439	1.067		0.615177577	0.762643777	0.012756965	0.131611258	0.040563868
2020-01-07T07:20:00	0.2436	1.075		0.613866161	0.760706345	0.012706467	0.131090277	0.040403296
2020-01-07T07:25:00	0.2431	1.084		0.612221749	0.758279000	0.012643292	0.130438514	0.040202417
2020-01-07T07:30:00	0.2435	1.092		0.613569462	0.760268214	0.012695056	0.130972556	0.040367014
2020-01-07T07:35:00	0.2432	1.103		0.612589963	0.758822330	0.012657424	0.130584310	0.040247353
2020-01-07T07:40:00	0.2433	1.116		0.612940291	0.759339373	0.012670877	0.130723102	0.040290130
2020-01-07T07:45:00	0.2435	1.125		0.613622998	0.760347265	0.012697115	0.130993793	0.040373559
2020-01-07T07:50:00	0.2455	1.132		0.620282569	0.770199473	0.012954527	0.133649472	0.041192065
2020-01-07T07:55:00	0.2458	1.140		0.621295568	0.771701382	0.012993917	0.134055847	0.041317314
2020-01-07T08:00:00	0.2466	1.146		0.623965835	0.775664569	0.013098045	0.135130113	0.041648413
2020-01-07T08:05:00	0.2464	1.160		0.623320702	0.774706517	0.013072848	0.134870165	0.041568295
2020-01-07T08:10:00	0.2455	1.169		0.620353817	0.770305079	0.012957296	0.133678033	0.041200868
2020-01-07T08:15:00	0.2460	1.172		0.622030085	0.772790946	0.013022517	0.134350905	0.041408254
2020-01-07T08:20:00	0.2479	1.176		0.628342972	0.782174100	0.013269664	0.136900673	0.042194117
2020-01-07T08:25:00	0.2479	1.180		0.628360744	0.782200563	0.013270363	0.136907887	0.042196340
2020-01-07T08:30:00	0.2480	1.186		0.628709526	0.782719960	0.013284088	0.137049487	0.042239983
2020-01-07T08:35:00	0.2479	1.200		0.628396288	0.782253488	0.013271761	0.136922313	0.042200787
2020-01-07T08:40:00	0.2480	1.210		0.628745066	0.782772891	0.013285487	0.137063920	0.042244431
2020-01-07T08:45:00	0.2487	1.222		0.631079012	0.786251273	0.013377527	0.138013477	0.042537094
2020-01-07T08:50:00	0.2484	1.237		0.629773431	0.784304941	0.013326000	0.137481888	0.042373253
2020-01-07T08:55:00	0.2491	1.252		0.632106707	0.787784353	0.013418159	0.138432670	0.042666293
2020-01-07T09:00:00	0.2494	1.267		0.633116359	0.789291388	0.013458140	0.138845145	0.042793422
2020-01-07T09:05:00	0.2499	1.279		0.634786654	0.791786412	0.013524417	0.139528914	0.043004166
2020-01-07T09:10:00	0.2496	1.296		0.633812962	0.790331660	0.013485760	0.139130102	0.042881249
2020-01-07T09:15:00	0.2520	1.317		0.641754456	0.802220185	0.013802725	0.142400165	0.043889114
2020-01-07T09:20:00	0.2518	1.341		0.641112520	0.801257209	0.013776961	0.142134367	0.043807192
2020-01-07T09:25:00	0.2513	1.362		0.639480603	0.798810727	0.013711578	0.141459825	0.043599292
2020-01-07T09:30:00	0.2515	1.386		0.640158258	0.799826355	0.013738709	0.141739727	0.043685560
2020-01-07T09:35:00	0.2510	1.397		0.638525906	0.797380545	0.013673403	0.141065982	0.043477906
2020-01-07T09:40:00	0.2513	1.413		0.639533753	0.798890370	0.013713705	0.141481768	0.043606055
2020-01-07T09:45:00	0.2510	1.437		0.638561349	0.797433626	0.013674820	0.141080593	0.043482409
2020-01-07T09:50:00	0.2506	1.467		0.637258492	0.795483093	0.013622809	0.140544014	0.043317030
2020-01-07T09:55:00	0.2495	1.495		0.633642137	0.790076521	0.013478984	0.139060195	0.042859703
2020-01-07T10:00:00	0.2490	1.526		0.632006816	0.787635300	0.013414207	0.138391896	0.042653726
2020-01-07T10:05:00	0.2498	1.547		0.634426299	0.791247928	0.013510104	0.139381248	0.042958654
2020-01-07T10:10:00	0.2502	1.559		0.635853282	0.793380940	0.013566829	0.139966473	0.043139026
2020-01-07T10:15:00	0.2502	1.591		0.635958641	0.793538495	0.013571022	0.140009733	0.043152359
2020-01-07T10:20:00	0.2497	1.625		0.634081556	0.790732874	0.013496418	0.139240055	0.042915137
2020-01-07T10:25:00	0.2496	1.653		0.633856463	0.790396635	0.013487486	0.139147906	0.042886736
2020-01-07T10:30:00	0.2482	1.679		0.629331759	0.783646833	0.013308592	0.137302294	0.042317901
2020-01-07T10:35:00	0.2471	1.705		0.625463976	0.777890732	0.013156654	0.135734770	0.041834774
2020-01-07T10:40:00	0.2482	1.730		0.629211924	0.783468302	0.013303871	0.137253588	0.042302889
2020-01-07T10:45:00	0.2478	1.753		0.627993480	0.781653752	0.013255918	0.136758864	0.042150410
2020-01-07T10:50:00	0.2471	1.774		0.625780961	0.778361999	0.013169072	0.135862885	0.041874261
2020-01-07T10:55:00	0.2485	1.794		0.630190353	0.784926322	0.013342443	0.137651529	0.042425538
2020-01-07T11:00:00	0.2482	1.813		0.629303197	0.783604280	0.013307467	0.137290684	0.042314322
2020-01-07T11:05:00	0.2475	1.831		0.627091489	0.780311283	0.013220477	0.136393227	0.042037717
2020-01-07T11:10:00	0.2477	1.849		0.627528225	0.780961209	0.013237631	0.136570202	0.042092262
2020-01-07T11:15:00	0.2475	1.867		0.626971579	0.780132868	0.013215769	0.136344657	0.042022747
2020-01-07T11:20:00	0.2484	1.884		0.630056269	0.784726467	0.013337154	0.137596959	0.042408719
2020-01-07T11:25:00	0.2483	1.901		0.629500016	0.783897523	0.013315223	0.137370697	0.042338983
2020-01-07T11:30:00	0.2472	1.916		0.625963680	0.778633688	0.013176233	0.135936763	0.041897031
2020-01-07T11:35:00	0.2482	1.930		0.629380187	0.783718984	0.013310501	0.137321980	0.042323968
2020-01-07T11:40:00	0.2477	1.947		0.627499648	0.780918678	0.013236509	0.136558618	0.042088692
2020-01-07T11:45:00	0.2475	1.964		0.626942998	0.780090344	0.013214647	0.136333082	0.042019180
2020-01-07T11:50:00	0.2468	1.981		0.624729828	0.776799588	0.013127916	0.135438289	0.041743396
2020-01-07T11:55:00	0.2464	1.999		0.623178362	0.774495183	0.013067292	0.134812846	0.041550628
2020-01-07T12:00:00	0.2464	2.018		0.623284094	0.774652163	0.013071419	0.134855422	0.041563751
2020-01-07T12:05:00	0.2461	2.032		0.622395221	0.773332750	0.013036746	0.134497707	0.041453500
2020-01-07T12:10:00	0.2458	2.046		0.621174448	0.771521761	0.012989204	0.134007225	0.041302328
2020-01-07T12:15:00	0.2467	2.060		0.624264147	0.776107695	0.013109704	0.135250402	0.041685487
2020-01-07T12:20:00	0.2468	2.074		0.624701229	0.776757091	0.013126797	0.135426747	0.041739839
2020-01-07T12:25:00	0.2466	2.087		0.623812709	0.775437138	0.013092062	0.135068389	0.041629389
2020-01-07T12:30:00	0.2468	2.100		0.624581239	0.776578799	0.013122104	0.135378323	0.041724914
2020-01-07T12:35:00	0.2469	2.114		0.625018281	0.777228254	0.013139203	0.135554739	0.041779287
2020-01-07T12:40:00	0.2463	2.126		0.623135445	0.774431466	0.013065617	0.134795566	0.041545303
2020-01-07T12:45:00	0.2460	2.139		0.621914925	0.772620091	0.013018031	0.134304623	0.041393989
2020-01-07T12:50:00	0.2459	2.151		0.621689064	0.772285029	0.013009235	0.134213874	0.041366020
2020-01-07T12:55:00	0.2463	2.165		0.623121139	0.774410228	0.013065059	0.134789806	0.041543527
2020-01-07T13:00:00	0.2454	2.176		0.619910301	0.769647752	0.012940068	0.133500293	0.041146087
2020-01-07T13:05:00	0.2458	2.188		0.621343090	0.771771862	0.012995766	0.134074927	0.041323195
2020-01-07T13:10:00	0.2452	2.201		0.619458312	0.768978036	0.012922523	0.133319283	0.041090298
2020-01-07T13:15:00	0.2449	2.215		0.618236532	0.767168580	0.012875158	0.132830629	0.040939690
2020-01-07T13:20:00	0.2440	2.231		0.615353540	0.762903847	0.012763749	0.131681244	0.040585438
2020-01-07T13:25:00	0.2442	2.247		0.616123895	0.764042728	0.012793469	0.131987862	0.040679941
2020-01-07T13:30:00	0.2451	2.265		0.618886082	0.768130407	0.012900328	0.133090303	0.041019724
2020-01-07T13:35:00	0.2461	2.280		0.622309368	0.773205347	0.013033400	0.134463183	0.041442859
2020-01-07T13:40:00	0.2468	2.292		0.624735420	0.776807897	0.013128135	0.135440546	0.041744092
2020-01-07T13:45:00	0.2465	2.305		0.623515448	0.774995687	0.013080452	0.134948608	0.041592472
2020-01-07T13:50:00	0.2458	2.317		0.621300151	0.771708180	0.012994095	0.134057687	0.041317881
2020-01-07T13:55:00	0.2454	2.329		0.620079003	0.769897762	0.012946619	0.133567886	0.041166920
2020-01-07T14:00:00	0.2456	2.340		0.620516598	0.770546376	0.012963622	0.133743298	0.041220983
2020-01-07T14:05:00	0.2453	2.349		0.619627035	0.769228014	0.012929071	0.133386838	0.041111119
2020-01-07T14:10:00	0.2460	2.357		0.622054912	0.772827782	0.013023484	0.134360884	0.041411329
2020-01-07T14:15:00	0.2454	2.365		0.619838707	0.769541659	0.012937288	0.133471613	0.041137247
2020-01-07T14:20:00	0.2448	2.375		0.617953132	0.766749044	0.012864184	0.132717415	0.040904796
2020-01-07T14:25:00	0.2446	2.384		0.617394990	0.765922986	0.012842586	0.132494591	0.040836120
2020-01-07T14:30:00	0.2452	2.393		0.619492553	0.769028766	0.012923851	0.133332992	0.041094523
2020-01-07T14:35:00	0.2452	2.401		0.619266539	0.768693937	0.012915082	0.133242522	0.041066639
2020-01-07T14:40:00	0.2462	2.409		0.622689459	0.773769432	0.013048218	0.134616065	0.041489979
2020-01-07T14:45:00	0.2463	2.416		0.623126733	0.774418534	0.013065277	0.134792059	0.041544222
2020-01-07T14:50:00	0.2465	2.423		0.623563954	0.775067717	0.013082346	0.134968150	0.041598495
2020-01-07T14:55:00	0.2462	2.430		0.622675151	0.773748197	0.013047661	0.134610308	0.041488204
2020-01-07T15:00:00	0.2460	2.436		0.622117748	0.772921014	0.013025932	0.134386143	0.041419114
2020-01-07T15:05:00	0.2461	2.443		0.622223512	0.773077947	0.013030054	0.134428662	0.041432219
2020-01-07T15:10:00	0.2456	2.450		0.620670955	0.770775206	0.012969622	0.133805202	0.041240063
2020-01-07T15:15:00	0.2461	2.457		0.622435030	0.773391826	0.013038298	0.134513717	0.041458434
2020-01-07T15:20:00	0.2463	2.463		0.622872336	0.774040880	0.013055351	0.134689654	0.041512660
2020-01-07T15:25:00	0.2464	2.468		0.623309588	0.774690016	0.013072414	0.134865689	0.041566915
2020-01-07T15:30:00	0.2456	2.473		0.620762446	0.770910849	0.012973179	0.133841900	0.041251373
2020-01-07T15:35:00	0.2449	2.478		0.618213484	0.767134457	0.012874265	0.132821420	0.040936851
2020-01-07T15:40:00	0.2453	2.483		0.619646955	0.769257528	0.012929844	0.133394814	0.041113577
2020-01-07T15:45:00	0.2453	2.489		0.619752792	0.769414349	0.012933952	0.133437200	0.041126641
2020-01-07T15:50:00	0.2453	2.492		0.619526794	0.769079496	0.012925180	0.133346701	0.041098748
2020-01-07T15:55:00	0.2453	2.496		0.619632635	0.769236311	0.012929288	0.133389080	0.041111810
2020-01-07T16:00:00	0.2447	2.501		0.617746951	0.766443862	0.012856203	0.132635080	0.040879420
2020-01-07T16:05:00	0.2451	2.505		0.618880857	0.768122668	0.012900125	0.133088213	0.041019080
2020-01-07T16:10:00	0.2469	2.509		0.624987958	0.777183188	0.013138017	0.135542495	0.041775513
2020-01-07T16:15:00	0.2469	2.512		0.625125723	0.777387939	0.013143409	0.135598127	0.041792660
2020-01-07T16:20:00	0.2471	2.514		0.625594781	0.778085191	0.013161777	0.135787629	0.041851066
2020-01-07T16:25:00	0.2473	2.517		0.626395001	0.779275144	0.013193145	0.136111240	0.041950806
2020-01-07T16:30:00	0.2467	2.520		0.624213586	0.776032583	0.013107728	0.135230010	0.041679202
2020-01-07T16:35:00	0.2474	2.523		0.626670417	0.779684821	0.013203949	0.136222711	0.041985163
2020-01-07T16:40:00	0.2481	2.526		0.628794588	0.782846649	0.013287437	0.137084033	0.042250630
2020-01-07T16:45:00	0.2482	2.529		0.629263165	0.783544639	0.013305890	0.137274413	0.042309307
2020-01-07T16:50:00	0.2496	2.531		0.634030796	0.790657047	0.013494403	0.139219272	0.042908732
2020-01-07T16:55:00	0.2507	2.534		0.637471591	0.795802030	0.013631309	0.140631706	0.043344058
2020-01-07T17:00:00	0.2514	2.537		0.639919344	0.799468241	0.013729141	0.141641012	0.043655135
2020-01-07T17:05:00	0.2532	2.541		0.645661279	0.808088411	0.013960062	0.144023387	0.044389406
2020-01-07T17:10:00	0.2536	2.543		0.647115696	0.810276330	0.014018872	0.144630122	0.044576408
2020-01-07T17:15:00	0.2551	2.546		0.652188556	0.817921673	0.014225006	0.146756770	0.045231862
2020-01-07T17:20:00	0.2559	2.549		0.654626323	0.821603457	0.014324623	0.147784498	0.045548617
2020-01-07T17:25:00	0.2562	2.552		0.655748631	0.823300195	0.014370607	0.148258906	0.045694835
2020-01-07T17:30:00	0.2580	2.554		0.661465431	0.831959734	0.014606037	0.150687787	0.046443439
2020-01-07T17:35:00	0.2577	2.557		0.660617725	0.830673903	0.014571000	0.150326320	0.046332032
2020-01-07T17:40:00	0.2584	2.559		0.662721950	0.833866799	0.014658051	0.151224410	0.046608832
2020-01-07T17:45:00	0.2581	2.561		0.661874538	0.832580502	0.014622961	0.150862395	0.046497255
2020-01-07T17:50:00	0.2588	2.563		0.664305786	0.836272570	0.014723753	0.151902243	0.046817747
2020-01-07T17:55:00	0.2595	2.565		0.666407872	0.839468859	0.014811191	0.152804325	0.047095777
2020-01-07T18:00:00	0.2596	2.569		0.666871580	0.840174453	0.014830516	0.153003697	0.047157225
2020-01-07T18:05:00	0.2594	2.571		0.666025138	0.838886617	0.014795250	0.152639872	0.047045091
2020-01-07T18:10:00	0.2587	2.572		0.663867625	0.835606810	0.014705561	0.151714565	0.046759902
2020-01-07T18:15:00	0.2586	2.575		0.663676129	0.835315894	0.014697614	0.151632579	0.046734634
2020-01-07T18:20:00	0.2576	2.577		0.660205020	0.830048120	0.014553958	0.150150505	0.046277844
2020-01-07T18:25:00	0.2579	2.580		0.661325597	0.831747587	0.014600254	0.150628130	0.046425052
2020-01-07T18:30:00	0.2580	2.584		0.661461976	0.831954493	0.014605894	0.150686313	0.046442985
2020-01-07T18:35:00	0.2584	2.587		0.662910043	0.834152391	0.014665846	0.151304825	0.046633616
2020-01-07T18:40:00	0.2589	2.590		0.664357532	0.836351206	0.014725902	0.151924416	0.046824580
2020-01-07T18:45:00	0.2580	2.596		0.661543110	0.832077592	0.014609249	0.150720933	0.046453655
2020-01-07T18:50:00	0.2573	2.598		0.659382926	0.828802017	0.014520043	0.149800608	0.046170002
2020-01-07T18:55:00	0.2583	2.601		0.662471714	0.833486898	0.014647685	0.151117461	0.046575869
2020-01-07T19:00:00	0.2594	2.605		0.666213059	0.839172481	0.014803076	0.152720606	0.047069974
2020-01-07T19:05:00	0.2585	2.609		0.663072245	0.834398695	0.014672569	0.151374188	0.046654995
2020-01-07T19:10:00	0.2591	2.612		0.665175046	0.837593848	0.014759877	0.152274935	0.046932614
2020-01-07T19:15:00	0.2588	2.616		0.664328207	0.836306642	0.014724684	0.151911850	0.046820708
2020-01-07T19:20:00	0.2594	2.620		0.666102719	0.839004629	0.014798481	0.152673199	0.047055363
2020-01-07T19:25:00	0.2593	2.623		0.665911341	0.838713526	0.014790513	0.152590993	0.047030026
2020-01-07T19:30:00	0.2593	2.625		0.665719953	0.838422439	0.014782546	0.152508806	0.047004695
2020-01-07T19:35:00	0.2592	2.628		0.665528554	0.838131368	0.014774582	0.152426637	0.046979370
2020-01-07T19:40:00	0.2609	2.631		0.670902829	0.846316306	0.014999073	0.154742676	0.047693196
2020-01-07T19:45:00	0.2615	2.634		0.673001099	0.849518673	0.015087204	0.155651899	0.047973427
2020-01-07T19:50:00	0.2622	2.638		0.675424910	0.853222588	0.015189345	0.156705668	0.048298209
2020-01-07T19:55:00	0.2610	2.643		0.671310873	0.846938763	0.015016191	0.154919271	0.047747624
2020-01-07T20:00:00	0.2601	2.646		0.668501843	0.842656578	0.014898561	0.153705710	0.047373592
2020-01-07T20:05:00	0.2613	2.649		0.672236980	0.848352040	0.015055078	0.155320467	0.047871276
2020-01-07T20:10:00	0.2609	2.652		0.671064674	0.846563178	0.015005862	0.154812707	0.047714780
2020-01-07T20:15:00	0.2605	2.655		0.669891990	0.844774920	0.014956714	0.154305657	0.047558502
2020-01-07T20:20:00	0.2620	2.656		0.674606258	0.851971010	0.015154806	0.156349335	0.048188384
2020-01-07T20:25:00	0.2602	2.659		0.668855028	0.843194613	0.014913324	0.153858018	0.047420535
2020-01-07T20:30:00	0.2604	2.661		0.669318424	0.843900704	0.014932706	0.154057974	0.047482164
2020-01-07T20:35:00	0.2608	2.663		0.670763358	0.846103581	0.014993225	0.154682340	0.047674599
2020-01-07T20:40:00	0.2610	2.665		0.671226511	0.846810061	0.015012651	0.154882752	0.047736368
2020-01-07T20:45:00	0.2612	2.666		0.672016662	0.848015759	0.015045822	0.155224974	0.047841844
2020-01-07T20:50:00	0.2624	2.666		0.676074882	0.854216694	0.015216796	0.156988884	0.048385499
2020-01-07T20:55:00	0.2626	2.667		0.676537359	0.854924256	0.015236345	0.157190564	0.048447659
2020-01-07T21:00:00	0.2626	2.669		0.676673168	0.855132070	0.015242088	0.157249815	0.048465920
2020-01-07T21:05:00	0.2630	2.670		0.677788675	0.856839615	0.015289304	0.157736932	0.048616054
2020-01-07T21:10:00	0.2631	2.671		0.678250935	0.857547526	0.015308893	0.157939022	0.048678340
2020-01-07T21:15:00	0.2630	2.673		0.678060195	0.857255402	0.015300808	0.157855618	0.048652635
2020-01-07T21:20:00	0.2631	2.674		0.678195947	0.857463308	0.015306562	0.157914975	0.048670929
2020-01-07T21:25:00	0.2634	2.676		0.679310988	0.859171602	0.015353863	0.158402970	0.048821334
2020-01-07T21:30:00	0.2633	2.678		0.678793885	0.858379243	0.015331917	0.158176563	0.048751553
2020-01-07T21:35:00	0.2623	2.679		0.675663931	0.853588119	0.015199437	0.156809787	0.048330299
2020-01-07T21:40:00	0.2611	2.675		0.671550164	0.847303861	0.015026234	0.155022881	0.047779558
2020-01-07T21:45:00	0.2617	2.670		0.673648061	0.850506824	0.015114432	0.155932805	0.048060005
2020-01-07T21:50:00	0.2628	2.671		0.677377918	0.856210730	0.015271909	0.157557471	0.048560743
2020-01-07T21:55:00	0.2632	2.669		0.678493209	0.857918622	0.015319164	0.158044994	0.048711002
2020-01-07T22:00:00	0.2625	2.663		0.676343089	0.854627012	0.015228132	0.157105829	0.048421542
2020-01-07T22:05:00	0.2642	2.659		0.681692664	0.862824029	0.015455152	0.159447956	0.049143409
2020-01-07T22:10:00	0.2646	2.659		0.683123945	0.865021327	0.015516191	0.160077687	0.049337498
2020-01-07T22:15:00	0.2646	2.660		0.683250757	0.865216094	0.015521606	0.160133544	0.049354714
2020-01-07T22:20:00	0.2654	2.662		0.685659018	0.868917504	0.015624615	0.161196269	0.049682256
2020-01-07T22:25:00	0.2667	2.663		0.690018807	0.875631088	0.015812011	0.163129599	0.050278127
2020-01-07T22:30:00	0.2673	2.663		0.691772123	0.878335632	0.015887705	0.163910529	0.050518817
2020-01-07T22:35:00	0.2674	2.664		0.692223886	0.879032921	0.015907240	0.164112064	0.050580932
2020-01-07T22:40:00	0.2675	2.665		0.692675593	0.879730302	0.015926785	0.164313704	0.050643080
2020-01-07T22:45:00	0.2678	2.667		0.693452386	0.880929988	0.015960426	0.164660768	0.050750048
2020-01-07T22:50:00	0.2676	2.670		0.692928551	0.880120916	0.015937736	0.164426681	0.050677900
2020-01-07T22:55:00	0.2681	2.673		0.694680475	0.882827726	0.016013687	0.165210256	0.050919405
2020-01-07T23:00:00	0.2682	2.677		0.694806888	0.883023142	0.016019175	0.165266872	0.050936855
2020-01-07T23:05:00	0.2691	2.679		0.697857093	0.887742543	0.016151890	0.166636068	0.051358855
2020-01-07T23:10:00	0.2684	2.684		0.695384669	0.883916489	0.016044270	0.165525772	0.051016651
2020-01-07T23:15:00	0.2687	2.688		0.696485762	0.885619765	0.016092151	0.166019757	0.051168902
2020-01-07T23:20:00	0.2688	2.692		0.696936944	0.886318002	0.016111793	0.166222397	0.051231357
2020-01-07T23:25:00	0.2679	2.693		0.693813768	0.881488287	0.015976089	0.164822362	0.050799853
2020-01-07T23:30:00	0.2674	2.692		0.692314431	0.879172697	0.015911157	0.164152472	0.050593386
2020-01-07T23:35:00	0.2678	2.688		0.693416445	0.880874468	0.015958868	0.164644702	0.050745096
2020-01-07T23:40:00	0.2684	2.685		0.695493097	0.884084169	0.016048981	0.165574382	0.051031632
2020-01-07T23:45:00	0.2679	2.676		0.693994446	0.881767459	0.015983923	0.164903185	0.050824763
2020-01-07T23:50:00	0.2685	2.661		0.695745861	0.884475099	0.016059968	0.165687728	0.051066567
2020-01-07T23:55:00	0.2675	2.643		0.692621670	0.879647041	0.015924451	0.164289626	0.050635658
2020-01-08T00:00:00	0.2682	2.625		0.694698771	0.882856008	0.016014481	0.165218450	0.050921931
2020-01-08T00:05:00	0.2678	2.605		0.693524931	0.881042053	0.015963569	0.164693200	0.050760044
2020-01-08T00:10:00	0.2671	2.585		0.691374910	0.877722685	0.015870540	0.163733437	0.050464235
2020-01-08T00:15:00	0.2669	2.567		0.690525405	0.876412258	0.015833862	0.163355037	0.050347609
2020-01-08T00:20:00	0.2665	2.547		0.689350226	0.874600482	0.015783197	0.162832331	0.050186506
2020-01-08T00:25:00	0.2674	2.526		0.692404973	0.879312477	0.015915074	0.164192885	0.050605842
2020-01-08T00:30:00	0.2684	2.507		0.695457175	0.884028617	0.016047420	0.165558277	0.051026669
2020-01-08T00:35:00	0.2693	2.487		0.698506840	0.888748901	0.016180235	0.166928503	0.051448986
2020-01-08T00:40:00	0.2692	2.470		0.697983726	0.887938650	0.016157412	0.166693041	0.051376414
2020-01-08T00:45:00	0.2694	2.452		0.698759397	0.889140171	0.016191260	0.167042245	0.051484042
2020-01-08T00:50:00	0.2701	2.435		0.701157488	0.892858142	0.016296143	0.168124301	0.051817543
2020-01-08T00:55:00	0.2697	2.416		0.699661148	0.890537649	0.016230657	0.167448696	0.051609314
2020-01-08T01:00:00	0.2680	2.398		0.694265611	0.882186499	0.015995684	0.165024524	0.050862161
2020-01-08T01:05:00	0.2653	2.380		0.685279484	0.868333841	0.015608357	0.161028541	0.049630560
2020-01-08T01:10:00	0.2633	2.358		0.678883543	0.858516610	0.015335721	0.158215806	0.048763648
2020-01-08T01:15:00	0.2626	2.336		0.676724886	0.855211213	0.015244276	0.157272382	0.048472875
2020-01-08T01:20:00	0.2610	2.317		0.671295349	0.846915080	0.015015539	0.154912550	0.047745552
2020-01-08T01:25:00	0.2633	2.298		0.678938002	0.858600052	0.015338032	0.158239645	0.048770996
2020-01-08T01:30:00	0.2630	2.286		0.677759089	0.856794312	0.015288051	0.157724002	0.048612069
2020-01-08T01:35:00	0.2616	2.269		0.673312005	0.849993496	0.015100285	0.155786859	0.048015023
2020-01-08T01:40:00	0.2594	2.254		0.666239920	0.839213344	0.014804195	0.152732148	0.047073531
2020-01-08T01:45:00	0.2600	2.237		0.668004709	0.841899434	0.014877794	0.153491458	0.047307558
2020-01-08T01:50:00	0.2604	2.226		0.669441381	0.844088089	0.014937851	0.154111053	0.047498523
2020-01-08T01:55:00	0.2618	2.216		0.674147460	0.851269839	0.015135467	0.156149822	0.048126892
2020-01-08T02:00:00	0.2640	2.207		0.681131745	0.861963389	0.015431265	0.159201521	0.049067455
2020-01-08T02:05:00	0.2639	2.197		0.680932398	0.861657590	0.015422781	0.159113988	0.049040477
2020-01-08T02:10:00	0.2640	2.187		0.681059287	0.861852234	0.015428181	0.159169702	0.049057648
2020-01-08T02:15:00	0.2634	2.175		0.679228328	0.859044926	0.015350353	0.158366766	0.048810175
2020-01-08T02:20:00	0.2625	2.164		0.676416640	0.854739545	0.015231241	0.157137907	0.048431429
2020-01-08T02:25:00	0.2634	2.155		0.679155832	0.858933831	0.015347276	0.158335018	0.048800390
2020-01-08T02:30:00	0.2637	2.144		0.680261820	0.860629167	0.015394258	0.158819724	0.048949781
2020-01-08T02:35:00	0.2635	2.133		0.679409727	0.859322927	0.015358055	0.158446221	0.048834664
2020-01-08T02:40:00	0.2631	2.123		0.678230966	0.857516942	0.015308046	0.157930289	0.048675649
2020-01-08T02:45:00	0.2647	2.113		0.683577775	0.865718414	0.015535572	0.160277634	0.049399123
2020-01-08T02:50:00	0.2650	2.101		0.684356502	0.866914962	0.015568857	0.160621031	0.049504962
2020-01-08T02:55:00	0.2645	2.091		0.682853282	0.864605671	0.015504639	0.159958501	0.049300764
2020-01-08T03:00:00	0.2647	2.080		0.683306148	0.865301172	0.015523971	0.160157946	0.049362234
2020-01-08T03:05:00	0.2644	2.070		0.682454767	0.863993786	0.015487637	0.159783101	0.049246704
2020-01-08T03:10:00	0.2653	2.061		0.685515277	0.868696438	0.015618456	0.161132735	0.049662674
2020-01-08T03:15:00	0.2644	2.052		0.682382335	0.863882589	0.015484548	0.159751232	0.049236881
2020-01-08T03:20:00	0.2638	2.044		0.680552040	0.861074210	0.015406599	0.158947044	0.048989022
2020-01-08T03:25:00	0.2628	2.036		0.677414831	0.856267240	0.015273472	0.157573594	0.048565712
2020-01-08T03:30:00	0.2627	2.029		0.676888691	0.855461895	0.015251205	0.157343867	0.048494908
2020-01-08T03:35:00	0.2620	2.026		0.674728851	0.852158397	0.015159975	0.156402669	0.048204822
2020-01-08T03:40:00	0.2628	2.025		0.677142745	0.855850737	0.015261955	0.157454772	0.048529090
2020-01-08T03:45:00	0.2622	2.029		0.675309816	0.853046595	0.015184486	0.156655546	0.048282761
2020-01-08T03:50:00	0.2622	2.037		0.675436900	0.853240924	0.015189851	0.156710890	0.048299818
2020-01-08T03:55:00	0.2628	2.043		0.677197230	0.855934137	0.015264261	0.157478563	0.048536422
2020-01-08T04:00:00	0.2611	2.045		0.671768399	0.847636875	0.015035396	0.155117406	0.047808691
2020-01-08T04:05:00	0.2599	2.046		0.667884930	0.841717040	0.014872793	0.153439860	0.047291655
2020-01-08T04:10:00	0.2591	2.051		0.665308126	0.837796187	0.014765412	0.152332035	0.046950213
2020-01-08T04:15:00	0.2589	2.055		0.664368519	0.836367903	0.014726358	0.151929124	0.046826032
2020-01-08T04:20:00	0.2581	2.060		0.661789214	0.832451021	0.014619430	0.150825969	0.046486029
2020-01-08T04:25:00	0.2570	2.067		0.658223337	0.827045333	0.014472275	0.149307794	0.046018112
2020-01-08T04:30:00	0.2568	2.075		0.657610249	0.826117018	0.014447053	0.149047580	0.045937912
2020-01-08T04:35:00	0.2561	2.086		0.655354683	0.822704491	0.014354457	0.148092291	0.045643482
2020-01-08T04:40:00	0.2554	2.094		0.653097708	0.819294181	0.014262116	0.147139617	0.045349859
2020-01-08T04:45:00	0.2561	2.099		0.655441834	0.822836263	0.014358029	0.148129142	0.045654840
2020-01-08T04:50:00	0.2556	2.105		0.653513645	0.819922339	0.014279110	0.147314944	0.045403896
2020-01-08T04:55:00	0.2540	2.111		0.648293996	0.812050200	0.014066612	0.145122646	0.044728209
2020-01-08T05:00:00	0.2544	2.119		0.649654174	0.814099346	0.014121826	0.145692280	0.044903776
2020-01-08T05:05:00	0.2532	2.128		0.645746873	0.808217123	0.013963520	0.144059057	0.044400400
2020-01-08T05:10:00	0.2528	2.135		0.644472635	0.806301640	0.013912094	0.143528510	0.044236881
2020-01-08T05:15:00	0.2526	2.144		0.643857204	0.805376996	0.013887292	0.143272632	0.044158017
2020-01-08T05:20:00	0.2527	2.155		0.644230499	0.805937809	0.013902333	0.143427809	0.044205844
2020-01-08T05:25:00	0.2531	2.163		0.645592212	0.807984558	0.013957272	0.143994607	0.044380536
2020-01-08T05:30:00	0.2538	2.172		0.647611981	0.811023317	0.014038970	0.144837461	0.044640312
2020-01-08T05:35:00	0.2540	2.182		0.648314093	0.812080465	0.014067427	0.145131054	0.044730800
2020-01-08T05:40:00	0.2546	2.193		0.650332337	0.815121608	0.014149397	0.145976725	0.044991444
2020-01-08T05:45:00	0.2550	2.202		0.651691745	0.817171957	0.014204749	0.146547781	0.045167449
2020-01-08T05:50:00	0.2537	2.209		0.647457400	0.810790626	0.014032708	0.144772863	0.044620403
2020-01-08T05:55:00	0.2551	2.217		0.652107845	0.817799861	0.014221715	0.146722807	0.045221394
2020-01-08T06:00:00	0.2550	2.223		0.651822603	0.817369409	0.014210084	0.146602813	0.045184411
2020-01-08T06:05:00	0.2547	2.229		0.650879485	0.815946663	0.014171663	0.146206430	0.045062242
2020-01-08T06:10:00	0.2559	2.237		0.654539786	0.821472672	0.014321081	0.147747951	0.045537353
2020-01-08T06:15:00	0.2564	2.246		0.656226095	0.824022367	0.014390194	0.148460975	0.045757114
2020-01-08T06:20:00	0.2584	2.256		0.662833025	0.834035446	0.014662654	0.151271894	0.046623467
2020-01-08T06:25:00	0.2583	2.264		0.662548629	0.833603662	0.014650870	0.151150330	0.046586000
2020-01-08T06:30:00	0.2587	2.272		0.663903451	0.835661238	0.014707048	0.151729906	0.046764630
2020-01-08T06:35:00	0.2589	2.280		0.664602405	0.836723358	0.014736074	0.152029364	0.046856926
2020-01-08T06:40:00	0.2594	2.289		0.666284033	0.839280453	0.014806032	0.152751104	0.047079374
2020-01-08T06:45:00	0.2590	2.298		0.664689333	0.836855483	0.014739687	0.152066628	0.046868412
2020-01-08T06:50:00	0.2586	2.306		0.663421763	0.834929516	0.014687062	0.151523712	0.046701080
2020-01-08T06:55:00	0.2585	2.314		0.663137413	0.834497659	0.014675271	0.151402062	0.046663586
2020-01-08T07:00:00	0.2591	2.322		0.665147398	0.837551813	0.014758728	0.152263074	0.046928958
2020-01-08T07:05:00	0.2592	2.330		0.665518498	0.838116075	0.014774163	0.152422321	0.046978040
2020-01-08T07:10:00	0.2606	2.342		0.670145791	0.845161849	0.014967343	0.154415323	0.047592302
2020-01-08T07:15:00	0.2616	2.350		0.673459783	0.850219217	0.015106505	0.155851029	0.048034801
2020-01-08T07:20:00	0.2613	2.362		0.672522284	0.848787575	0.015067069	0.155444172	0.047909404
2020-01-08T07:25:00	0.2603	2.371		0.668966953	0.843365140	0.014918004	0.153906301	0.047435417
2020-01-08T07:30:00	0.2600	2.382		0.668028294	0.841935349	0.014878779	0.153501619	0.047310690
2020-01-08T07:35:00	0.2593	2.392		0.665779211	0.838512562	0.014785013	0.152534250	0.047012537
2020-01-08T07:40:00	0.2628	2.401		0.677270616	0.856046471	0.015267367	0.157510608	0.048546299
2020-01-08T07:45:00	0.2673	2.413		0.691979904	0.878656318	0.015896689	0.164003205	0.050547381
2020-01-08T07:50:00	0.2681	2.425		0.694624152	0.882740661	0.016011242	0.165185034	0.050911632
2020-01-08T07:55:00	0.2679	2.437		0.694017163	0.881802562	0.015984908	0.164913348	0.050827896
2020-01-08T08:00:00	0.2691	2.450		0.697634342	0.887397620	0.016142178	0.166535876	0.051327974
2020-01-08T08:05:00	0.2686	2.467		0.696053291	0.884950652	0.016073336	0.165825644	0.051109074
2020-01-08T08:10:00	0.2683	2.483		0.695121574	0.883509664	0.016032840	0.165407854	0.050980307
2020-01-08T08:15:00	0.2680	2.497		0.694189621	0.882069062	0.015992388	0.164990515	0.050851679
2020-01-08T08:20:00	0.2681	2.511		0.694557777	0.882638064	0.016008361	0.165155313	0.050902472
2020-01-08T08:25:00	0.2681	2.523		0.694600886	0.882704698	0.016010232	0.165174616	0.050908421
2020-01-08T08:30:00	0.2693	2.534		0.698542180	0.888803647	0.016181778	0.166944416	0.051453890
2020-01-08T08:35:00	0.2709	2.547		0.703776335	0.896924076	0.016411090	0.169310191	0.052183045
2020-01-08T08:40:00	0.2702	2.561		0.701224736	0.892962474	0.016299089	0.168154698	0.051826911
2020-01-08T08:45:00	0.2686	2.574		0.696073125	0.884981336	0.016074199	0.165834544	0.051111817
2020-01-08T08:50:00	0.2690	2.587		0.697415550	0.887058871	0.016132642	0.166437496	0.051297653
2020-01-08T08:55:00	0.2685	2.600		0.695834405	0.884612057	0.016063817	0.165727444	0.051078808
2020-01-08T09:00:00	0.2683	2.612		0.695227617	0.883673631	0.016037446	0.165455377	0.050994954
2020-01-08T09:05:00	0.2675	2.624		0.692670068	0.879721771	0.015926546	0.164311237	0.050642319
2020-01-08T09:10:00	0.2668	2.637		0.690436143	0.876274600	0.015830011	0.163315303	0.050335362
2020-01-08T09:15:00	0.2661	2.651		0.687875245	0.872328190	0.015719727	0.162177527	0.049984689
2020-01-08T09:20:00	0.2660	2.673		0.687592799	0.871893281	0.015707589	0.162052296	0.049946092
2020-01-08T09:25:00	0.2655	2.701		0.686007407	0.869453379	0.015639546	0.161350314	0.049729734
2020-01-08T09:30:00	0.2648	2.730		0.683769407	0.866012818	0.015543760	0.160362103	0.049425158
2020-01-08T09:35:00	0.2642	2.753		0.681856210	0.863075014	0.015462120	0.159519846	0.049165566
2020-01-08T09:40:00	0.2642	2.778		0.681899468	0.863141405	0.015463964	0.159538865	0.049171427
2020-01-08T09:45:00	0.2630	2.804		0.678026802	0.857204263	0.015299393	0.157841019	0.048648135
2020-01-08T09:50:00	0.2633	2.828		0.679049470	0.858770848	0.015342762	0.158288446	0.048786036
2020-01-08T09:55:00	0.2626	2.852		0.676480570	0.854837362	0.015233944	0.157165792	0.048440023
2020-01-08T10:00:00	0.2614	2.883		0.672602134	0.848909483	0.015070426	0.155478804	0.047920077
2020-01-08T10:05:00	0.2602	2.914		0.668864445	0.843208960	0.014913718	0.153862080	0.047421787
2020-01-08T10:10:00	0.2607	2.946		0.670361739	0.845491111	0.014976391	0.154508664	0.047621071
2020-01-08T10:15:00	0.2607	2.973		0.670549955	0.845778123	0.014984279	0.154590043	0.047646153
2020-01-08T10:20:00	0.2615	2.994		0.673027540	0.849559050	0.015088316	0.155663374	0.047976964
2020-01-08T10:25:00	0.2615	3.014		0.672888669	0.849346986	0.015082475	0.155603110	0.047958390
2020-01-08T10:30:00	0.2609	3.034		0.671114545	0.846639254	0.015007954	0.154834290	0.047721432
2020-01-08T10:35:00	0.2607	3.053		0.670321270	0.845429405	0.014974695	0.154491170	0.047615679
2020-01-08T10:40:00	0.2593	3.075		0.665926108	0.838735988	0.014791127	0.152597336	0.047031981
2020-01-08T10:45:00	0.2596	3.100		0.666769644	0.840019327	0.014826266	0.152959857	0.047143714
2020-01-08T10:50:00	0.2591	3.123		0.665320187	0.837814526	0.014765914	0.152337210	0.046951808
2020-01-08T10:55:00	0.2575	3.147		0.659934689	0.829638297	0.014542801	0.150035400	0.046242368
2020-01-08T11:00:00	0.2571	3.170		0.658482493	0.827437834	0.014482944	0.149417859	0.046052035
2020-01-08T11:05:00	0.2563	3.192		0.656044389	0.823747510	0.014382738	0.148384058	0.045733408
2020-01-08T11:10:00	0.2561	3.211		0.655247807	0.822542902	0.014350078	0.148047106	0.045629556
2020-01-08T11:15:00	0.2559	3.227		0.654779667	0.821835223	0.014330902	0.147849270	0.045568581
2020-01-08T11:20:00	0.2547	3.243		0.650694566	0.815667791	0.014164136	0.146128775	0.045038308
2020-01-08T11:25:00	0.2548	3.259		0.650883807	0.815953182	0.014171838	0.146208245	0.045062801
2020-01-08T11:30:00	0.2533	3.277		0.646135567	0.808801698	0.013979226	0.144221098	0.044450343
2020-01-08T11:35:00	0.2524	3.293		0.643029807	0.804134394	0.013853984	0.142928999	0.044052106
2020-01-08T11:40:00	0.2521	3.311		0.642230343	0.802934295	0.013821840	0.142597376	0.043949896
2020-01-08T11:45:00	0.2516	3.333		0.640441099	0.800250377	0.013750041	0.141856638	0.043721593
2020-01-08T11:50:00	0.2515	3.356		0.640300970	0.800040294	0.013744426	0.141798710	0.043703740
2020-01-08T11:55:00	0.2511	3.381		0.638840840	0.797852245	0.013685990	0.141195839	0.043517929
2020-01-08T12:00:00	0.2500	3.403		0.635068011	0.792206925	0.013535598	0.139644265	0.043039719
2020-01-08T12:05:00	0.2501	3.428		0.635588451	0.792984947	0.013556292	0.139857766	0.043105522
2020-01-08T12:10:00	0.2477	3.450		0.627510411	0.780934696	0.013236931	0.136562981	0.042090037
2020-01-08T12:15:00	0.2465	3.470		0.623725613	0.775307787	0.013088660	0.135033288	0.041618571
2020-01-08T12:20:00	0.2458	3.491		0.621263786	0.771654248	0.012992680	0.134043087	0.041313381
2020-01-08T12:25:00	0.2463	3.508		0.623112540	0.774397462	0.013064724	0.134786344	0.041542460
2020-01-08T12:30:00	0.2473	3.527		0.626285460	0.779112220	0.013188848	0.136066918	0.041937146
2020-01-08T12:35:00	0.2470	3.548		0.625150941	0.777425421	0.013144396	0.135608312	0.041795799
2020-01-08T12:40:00	0.2487	3.572		0.630969314	0.786087682	0.013373193	0.137968771	0.042523315
2020-01-08T12:45:00	0.2494	3.595		0.633143655	0.789332142	0.013459221	0.138856306	0.042796862
2020-01-08T12:50:00	0.2494	3.615		0.633333824	0.789616094	0.013466759	0.138934070	0.042820830
2020-01-08T12:55:00	0.2485	3.635		0.630216960	0.784965981	0.013343493	0.137662358	0.042428876
2020-01-08T13:00:00	0.2490	3.648		0.632061088	0.787716281	0.013416354	0.138414048	0.042660554
2020-01-08T13:05:00	0.2503	3.657		0.636217122	0.793925073	0.013581312	0.140115893	0.043185079
2020-01-08T13:10:00	0.2495	3.669		0.633433341	0.789764701	0.013470704	0.138974774	0.042833375
2020-01-08T13:15:00	0.2484	3.684		0.629985702	0.784621291	0.013334371	0.137568245	0.042399869
2020-01-08T13:20:00	0.2495	3.699		0.633483098	0.789839006	0.013472677	0.138995128	0.042839648
2020-01-08T13:25:00	0.2481	3.712		0.629042754	0.783216293	0.013297208	0.137184844	0.042281701
2020-01-08T13:30:00	0.2497	3.728		0.634193891	0.790900695	0.013500877	0.139286055	0.042929315
2020-01-08T13:35:00	0.2502	3.741		0.636035974	0.793654146	0.013574100	0.140041490	0.043162147
2020-01-08T13:40:00	0.2500	3.753		0.635234950	0.792456464	0.013542234	0.139712731	0.043060820
2020-01-08T13:45:00	0.2502	3.766		0.635755367	0.793234523	0.013562933	0.139926276	0.043126637
2020-01-08T13:50:00	0.2510	3.777		0.638587034	0.797472093	0.013675846	0.141091182	0.043485672
2020-01-08T13:55:00	0.2510	3.792		0.638446832	0.797262123	0.013670244	0.141033387	0.043467859
2020-01-08T14:00:00	0.2505	3.806		0.636985947	0.795075243	0.013611943	0.140431902	0.043282476
2020-01-08T14:05:00	0.2510	3.817		0.638496520	0.797336536	0.013672229	0.141053868	0.043474172
2020-01-08T14:10:00	0.2522	3.831		0.642645109	0.803556845	0.013838512	0.142769374	0.044002908
2020-01-08T14:15:00	0.2530	3.843		0.645141885	0.807307511	0.013939091	0.143807035	0.044322725
2020-01-08T14:20:00	0.2529	3.858		0.644672430	0.806601889	0.013920151	0.143611630	0.044262499
2020-01-08T14:25:00	0.2528	3.872		0.644532466	0.806391550	0.013914507	0.143553399	0.044244552
2020-01-08T14:30:00	0.2524	3.884		0.643074055	0.804200831	0.013855764	0.142947365	0.044057766
2020-01-08T14:35:00	0.2510	3.895		0.638645580	0.797559780	0.013678186	0.141115320	0.043493112
2020-01-08T14:40:00	0.2499	3.906		0.634872545	0.791914777	0.013527829	0.139564123	0.043015018
2020-01-08T14:45:00	0.2502	3.917		0.635723376	0.793186688	0.013561660	0.139913144	0.043122590
2020-01-08T14:50:00	0.2516	3.930		0.640535038	0.800391221	0.013753806	0.141895478	0.043733564
2020-01-08T14:55:00	0.2519	3.943		0.641384528	0.801665208	0.013787875	0.142246962	0.043841895
2020-01-08T15:00:00	0.2536	3.954		0.647176639	0.810368048	0.014021340	0.144655575	0.044584253
2020-01-08T15:05:00	0.2540	3.964		0.648353764	0.812140209	0.014069036	0.145147652	0.044735916
2020-01-08T15:10:00	0.2539	3.975		0.648213944	0.811929647	0.014063366	0.145089157	0.044717887
2020-01-08T15:15:00	0.2532	3.982		0.645768887	0.808250228	0.013964409	0.144068232	0.044403228
2020-01-08T15:20:00	0.2540	3.986		0.648263497	0.812004269	0.014065376	0.145109887	0.044724276
2020-01-08T15:25:00	0.2552	3.988		0.652400847	0.818242097	0.014233667	0.146846120	0.045259400
2020-01-08T15:30:00	0.2559	3.993		0.654562267	0.821506648	0.014322001	0.147757445	0.045540279
2020-01-08T15:35:00	0.2564	3.998		0.656393954	0.824276301	0.014397083	0.148532050	0.045779020
2020-01-08T15:40:00	0.2565	4.005		0.656582897	0.824562161	0.014404839	0.148612072	0.045803684
2020-01-08T15:45:00	0.2566	4.011		0.657100236	0.825345020	0.014426089	0.148831296	0.045871251
2020-01-08T15:50:00	0.2564	4.020		0.656303887	0.824140046	0.014393386	0.148493912	0.045767266
2020-01-08T15:55:00	0.2573	4.027		0.659119448	0.828402768	0.014509182	0.149688558	0.046135467
2020-01-08T16:00:00	0.2574	4.032		0.659636424	0.829186200	0.014530497	0.149908456	0.046203242
2020-01-08T16:05:00	0.2573	4.037		0.659122385	0.828407218	0.014509303	0.149689806	0.046135852
2020-01-08T16:10:00	0.2564	4.042		0.656309765	0.824148938	0.014393627	0.148496400	0.045768033
2020-01-08T16:15:00	0.2569	4.045		0.658094087	0.826849600	0.014466956	0.149252916	0.046001198
2020-01-08T16:20:00	0.2574	4.048		0.659549374	0.829054268	0.014526907	0.149871417	0.046191826
2020-01-08T16:25:00	0.2578	4.053		0.661004077	0.831259860	0.014586963	0.150491007	0.046382790
2020-01-08T16:30:00	0.2578	4.058		0.660818300	0.830978087	0.014579286	0.150411806	0.046358379
2020-01-08T16:35:00	0.2573	4.063		0.659319995	0.828706652	0.014517449	0.149773841	0.046161752
2020-01-08T16:40:00	0.2564	4.068		0.656179070	0.823951231	0.014388264	0.148441067	0.045750979
2020-01-08T16:45:00	0.2575	4.075		0.659932793	0.829635424	0.014542723	0.150034594	0.046242119
2020-01-08T16:50:00	0.2574	4.080		0.659746961	0.829353739	0.014535056	0.149955495	0.046217740
2020-01-08T16:55:00	0.2573	4.083		0.659232938	0.828574732	0.014513860	0.149736817	0.046150341
2020-01-08T17:00:00	0.2572	4.091		0.659047070	0.828293104	0.014506199	0.149657785	0.046125983
2020-01-08T17:05:00	0.2563	4.098		0.655905907	0.823538057	0.014377057	0.148325452	0.045715345
2020-01-08T17:10:00	0.2554	4.102		0.653090782	0.819283723	0.014261833	0.147136699	0.045348960
2020-01-08T17:15:00	0.2548	4.110		0.650931423	0.816024995	0.014173777	0.146228244	0.045068965
2020-01-08T17:20:00	0.2552	4.117		0.652389600	0.818225120	0.014233208	0.146841385	0.045257941
2020-01-08T17:25:00	0.2563	4.124		0.655818768	0.823406266	0.014373484	0.148288580	0.045703981
2020-01-08T17:30:00	0.2569	4.134		0.657931662	0.826603649	0.014460273	0.149183968	0.045979948
2020-01-08T17:35:00	0.2569	4.148		0.658074044	0.826819249	0.014466131	0.149244407	0.045998576
2020-01-08T17:40:00	0.2571	4.158		0.658544695	0.827532050	0.014485505	0.149444283	0.046060179
2020-01-08T17:45:00	0.2565	4.165		0.656717037	0.824765126	0.014410347	0.148668898	0.045821198
2020-01-08T17:50:00	0.2560	4.171		0.654888454	0.821999659	0.014335357	0.147895232	0.045582747
2020-01-08T17:55:00	0.2552	4.177		0.652401368	0.818242884	0.014233688	0.146846339	0.045259468
2020-01-08T18:00:00	0.2542	4.186		0.648925295	0.813001074	0.014092225	0.145386886	0.044809650
2020-01-08T18:05:00	0.2539	4.203		0.648080531	0.811728751	0.014057957	0.145033354	0.044700688
2020-01-08T18:10:00	0.2536	4.214		0.647235568	0.810456737	0.014023725	0.144680189	0.044591839
2020-01-08T18:15:00	0.2529	4.219		0.644743194	0.806708239	0.013923005	0.143641076	0.044271575
2020-01-08T18:20:00	0.2536	4.226		0.647191894	0.810391006	0.014021957	0.144661946	0.044586217
2020-01-08T18:25:00	0.2544	4.229		0.649638930	0.814076372	0.014121207	0.145685889	0.044901806
2020-01-08T18:30:00	0.2548	4.234		0.651097628	0.816275677	0.014180544	0.146298063	0.045090484
2020-01-08T18:35:00	0.2550	4.241		0.651569190	0.816987046	0.014199755	0.146496250	0.045151567
2020-01-08T18:40:00	0.2562	4.246		0.655656241	0.823160477	0.014366819	0.148219822	0.045682789
2020-01-08T18:45:00	0.2564	4.253		0.656455671	0.824369672	0.014399616	0.148558186	0.045787076
2020-01-08T18:50:00	0.2565	4.260		0.656598112	0.824585181	0.014405464	0.148618517	0.045805670
2020-01-08T18:55:00	0.2566	4.268		0.657068955	0.825297678	0.014424803	0.148818036	0.045867164
2020-01-08T19:00:00	0.2564	4.277		0.656226095	0.824022367	0.014390194	0.148460975	0.045757114
2020-01-08T19:05:00	0.2571	4.288		0.658667015	0.827717333	0.014490542	0.149496252	0.046076197
2020-01-08T19:10:00	0.2578	4.296		0.660778245	0.830917339	0.014577631	0.150394732	0.046353117
2020-01-08T19:15:00	0.2576	4.306		0.660264368	0.830138101	0.014556408	0.150175781	0.046285634
2020-01-08T19:20:00	0.2572	4.319		0.659094058	0.828364298	0.014508136	0.149677763	0.046132140
2020-01-08T19:25:00	0.2576	4.331		0.660220851	0.830072123	0.014554612	0.150157247	0.046279922
2020-01-08T19:30:00	0.2575	4.343		0.660035034	0.829790414	0.014546942	0.150078121	0.046255534
2020-01-08T19:35:00	0.2574	4.359		0.659521051	0.829011342	0.014525739	0.149859367	0.046188112
2020-01-08T19:40:00	0.2573	4.367		0.659335198	0.828729691	0.014518075	0.149780307	0.046163745
2020-01-08T19:45:00	0.2570	4.373		0.658164587	0.826956362	0.014469857	0.149282848	0.046010424
2020-01-08T19:50:00	0.2554	4.377		0.653050641	0.819223110	0.014260193	0.147119785	0.045343746
2020-01-08T19:55:00	0.2549	4.380		0.651220200	0.816460563	0.014185536	0.146349564	0.045106357
2020-01-08T20:00:00	0.2554	4.382		0.653007038	0.819157268	0.014258412	0.147101412	0.045338084
2020-01-08T20:05:00	0.2552	4.389		0.652492054	0.818379773	0.014237389	0.146884516	0.045271234
2020-01-08T20:10:00	0.2554	4.399		0.652963433	0.819091428	0.014256632	0.147083041	0.045332422
2020-01-08T20:15:00	0.2543	4.405		0.649487902	0.813848769	0.014115071	0.145622584	0.044882295
2020-01-08T20:20:00	0.2559	4.409		0.654563309	0.821508223	0.014322044	0.147757885	0.045540415
2020-01-08T20:25:00	0.2556	4.410		0.653719864	0.820233831	0.014287539	0.147401910	0.045430700
2020-01-08T20:30:00	0.2547	4.417		0.650574063	0.815486079	0.014159232	0.146078184	0.045022715
2020-01-08T20:35:00	0.2545	4.422		0.650058732	0.814709128	0.014138271	0.145861931	0.044956064
2020-01-08T20:40:00	0.2542	4.426		0.649214233	0.813436390	0.014103955	0.145507908	0.044846950
2020-01-08T20:45:00	0.2554	4.429		0.652975200	0.819109195	0.014257112	0.147087998	0.045333950
2020-01-08T20:50:00	0.2554	4.429		0.653117778	0.819324488	0.014262935	0.147148075	0.045352466
2020-01-08T20:55:00	0.2549	4.430		0.651287370	0.816561888	0.014188272	0.146377791	0.045115057
2020-01-08T21:00:00	0.2536	4.436		0.647151688	0.810330496	0.014020329	0.144645154	0.044581041
2020-01-08T21:05:00	0.2547	4.442		0.650585837	0.815503834	0.014159711	0.146083127	0.045024238
2020-01-08T21:10:00	0.2541	4.447		0.648754144	0.812743249	0.014085279	0.145315223	0.044787563
2020-01-08T21:15:00	0.2534	4.452		0.646592185	0.809488591	0.013997689	0.144411577	0.044509051
2020-01-08T21:20:00	0.2534	4.460		0.646405665	0.809207987	0.013990146	0.144333754	0.044485065
2020-01-08T21:25:00	0.2524	4.466		0.643253467	0.804470233	0.013862984	0.143021847	0.044080722
2020-01-08T21:30:00	0.2529	4.472		0.644714754	0.806665497	0.013921858	0.143629241	0.044267927
2020-01-08T21:35:00	0.2539	4.480		0.648151228	0.811835206	0.014060823	0.145062923	0.044709802
2020-01-08T21:40:00	0.2545	4.484		0.649939586	0.814529529	0.014133427	0.145811957	0.044940661
2020-01-08T21:45:00	0.2538	4.488		0.647778339	0.811273759	0.014045710	0.144906997	0.044661744
2020-01-08T21:50:00	0.2539	4.489		0.647921123	0.811488730	0.014051496	0.144966693	0.044680143
2020-01-08T21:55:00	0.2536	4.491		0.647076123	0.810216775	0.014017271	0.144613596	0.044571315
2020-01-08T22:00:00	0.2527	4.495		0.644254090	0.805973254	0.013903284	0.143437618	0.044208867
2020-01-08T22:05:00	0.2531	4.498		0.645560309	0.807936587	0.013955984	0.143981315	0.044376439
2020-01-08T22:10:00	0.2529	4.503		0.644889569	0.806928239	0.013928910	0.143701994	0.044290350
2020-01-08T22:15:00	0.2543	4.505		0.649487902	0.813848769	0.014115071	0.145622584	0.044882295
2020-01-08T22:20:00	0.2535	4.507		0.646842480	0.809865187	0.014007815	0.144516044	0.044541248
2020-01-08T22:25:00	0.2542	4.508		0.649135244	0.813317378	0.014100748	0.145474818	0.044836752
2020-01-08T22:30:00	0.2541	4.511		0.648794332	0.812803787	0.014086910	0.145332049	0.044792749
2020-01-08T22:35:00	0.2556	4.515		0.653716402	0.820228601	0.014287398	0.147400450	0.045430250
2020-01-08T22:40:00	0.2561	4.518		0.655347762	0.822694026	0.014354174	0.148089364	0.045642580
2020-01-08T22:45:00	0.2566	4.520		0.656978385	0.825160609	0.014421082	0.148779646	0.045855332
2020-01-08T22:50:00	0.2577	4.521		0.660577259	0.830612538	0.014569329	0.150309077	0.046326717
2020-01-08T22:55:00	0.2579	4.523		0.661221610	0.831589834	0.014595955	0.150583773	0.046411381
2020-01-08T23:00:00	0.2590	4.526		0.664816270	0.837048428	0.014744962	0.152121053	0.046885186
2020-01-08T23:05:00	0.2605	4.528		0.669716601	0.844507567	0.014949370	0.154229896	0.047535152
2020-01-08T23:10:00	0.2607	4.530		0.670359330	0.845487438	0.014976290	0.154507623	0.047620750
2020-01-08T23:15:00	0.2607	4.532		0.670347619	0.845469582	0.014975799	0.154502560	0.047619190
2020-01-08T23:20:00	0.2605	4.534		0.669681463	0.844454007	0.014947899	0.154214721	0.047530475
2020-01-08T23:25:00	0.2604	4.537		0.669342482	0.843937367	0.014933712	0.154068358	0.047485364
2020-01-08T23:30:00	0.2608	4.537		0.670639668	0.845914939	0.014988039	0.154628840	0.047658110
2020-01-08T23:35:00	0.2620	4.537		0.674551845	0.851887842	0.015152511	0.156325666	0.048181089
2020-01-08T23:40:00	0.2622	4.538		0.675193719	0.852869079	0.015179586	0.156604995	0.048267180
2020-01-08T23:45:00	0.2626	4.540		0.676488820	0.854849986	0.015234293	0.157169391	0.048441133
2020-01-08T23:50:00	0.2637	4.541		0.680068414	0.860332624	0.015386037	0.158734906	0.048923640
2020-01-08T23:55:00	0.2631	4.543		0.678098284	0.857313735	0.015302422	0.157872271	0.048657767
2020-01-09T00:00:00	0.2633	4.543		0.678739534	0.858295975	0.015329611	0.158152776	0.048744221
2020-01-09T00:05:00	0.2625	4.544		0.676442057	0.854778434	0.015232316	0.157148993	0.048434846
2020-01-09T00:10:00	0.2621	4.545		0.675123549	0.852761792	0.015176625	0.156574446	0.048257765
2020-01-09T00:15:00	0.2631	4.547		0.678378027	0.857742190	0.015314280	0.157994608	0.048695473
2020-01-09T00:20:00	0.2637	4.548		0.680324648	0.860725506	0.015396929	0.158847282	0.048958275
2020-01-09T00:25:00	0.2640	4.548		0.681291731	0.862208835	0.015438077	0.159271789	0.049089112
2020-01-09T00:30:00	0.2642	4.549		0.681932420	0.863191978	0.015465368	0.159553352	0.049175893
2020-01-09T00:35:00	0.2634	4.550		0.679310582	0.859170979	0.015353845	0.158402792	0.048821279
2020-01-09T00:40:00	0.2638	4.549		0.680604220	0.861154235	0.015408819	0.158969941	0.048996080
2020-01-09T00:45:00	0.2642	4.549		0.681897400	0.863138230	0.015463876	0.159537955	0.049171147
2020-01-09T00:50:00	0.2649	4.547		0.684168112	0.866625445	0.015560802	0.160537921	0.049479346
2020-01-09T00:55:00	0.2651	4.548		0.684808296	0.867609403	0.015588186	0.160820437	0.049566420
2020-01-09T01:00:00	0.2658	4.548		0.687077200	0.871099541	0.015685443	0.161823822	0.049875674
2020-01-09T01:05:00	0.2655	4.548		0.686088327	0.869577863	0.015643015	0.161386105	0.049740765
2020-01-09T01:10:00	0.2657	4.548		0.686728175	0.870562365	0.015670461	0.161669258	0.049828035
2020-01-09T01:15:00	0.2662	4.549		0.688344784	0.873051338	0.015739917	0.162385823	0.050048888
2020-01-09T01:20:00	0.2661	4.548		0.688007535	0.872531914	0.015725414	0.162236199	0.050002772
2020-01-09T01:25:00	0.2660	4.548		0.687670254	0.872012540	0.015710917	0.162086633	0.049956675
2020-01-09T01:30:00	0.2662	4.548		0.688309825	0.872997490	0.015738413	0.162370310	0.050044106
2020-01-09T01:35:00	0.2652	4.548		0.685040871	0.867966956	0.015598140	0.160923138	0.049598074
2020-01-09T01:40:00	0.2658	4.547		0.686983943	0.870956001	0.015681439	0.161782516	0.049862943
2020-01-09T01:45:00	0.2661	4.546		0.687949264	0.872442177	0.015722909	0.162210354	0.049994806
2020-01-09T01:50:00	0.2670	4.546		0.690866992	0.876939107	0.015848605	0.163507136	0.050394487
2020-01-09T01:55:00	0.2669	4.546		0.690529975	0.876419306	0.015834059	0.163357071	0.050348236
2020-01-09T02:00:00	0.2675	4.546		0.692470134	0.879413077	0.015917893	0.164221972	0.050614807
2020-01-09T02:05:00	0.2671	4.547		0.691157402	0.877387104	0.015861145	0.163636507	0.050434361
2020-01-09T02:10:00	0.2678	4.548		0.693422374	0.880883627	0.015959125	0.164647352	0.050745913
2020-01-09T02:15:00	0.2683	4.551		0.695036031	0.883377401	0.016029125	0.165369524	0.050968493
2020-01-09T02:20:00	0.2684	4.553		0.695349373	0.883861907	0.016042736	0.165509950	0.051011774
2020-01-09T02:25:00	0.2685	4.554		0.695987604	0.884849037	0.016070479	0.165796172	0.051099990
2020-01-09T02:30:00	0.2681	4.556		0.694676132	0.882821011	0.016013498	0.165208311	0.050918806
2020-01-09T02:35:00	0.2689	4.557		0.697263735	0.886823843	0.016126027	0.166369250	0.051276619
2020-01-09T02:40:00	0.2691	4.557		0.697901634	0.887811518	0.016153832	0.166656106	0.051365030
2020-01-09T02:45:00	0.2691	4.556		0.697890011	0.887793520	0.016153325	0.166650877	0.051363419
2020-01-09T02:50:00	0.2683	4.558		0.695279588	0.883753995	0.016039704	0.165478670	0.051002133
2020-01-09T02:55:00	0.2684	4.559		0.695592909	0.884238534	0.016053319	0.165619135	0.051045426
2020-01-09T03:00:00	0.2682	4.561		0.694931345	0.883215549	0.016024578	0.165322622	0.050954038
2020-01-09T03:05:00	0.2679	4.562		0.693944592	0.881690425	0.015981761	0.164880881	0.050817889
2020-01-09T03:10:00	0.2686	4.563		0.696207842	0.885189754	0.016080059	0.165895000	0.051130450
2020-01-09T03:15:00	0.2684	4.564		0.695546389	0.884166587	0.016051297	0.165598276	0.051038997
2020-01-09T03:20:00	0.2681	4.565		0.694559802	0.882641194	0.016008449	0.165156220	0.050902751
2020-01-09T03:25:00	0.2682	4.565		0.694873184	0.883125633	0.016022053	0.165296568	0.050946008
2020-01-09T03:30:00	0.2687	4.567		0.696486203	0.885620449	0.016092170	0.166019955	0.051168963
2020-01-09T03:35:00	0.2687	4.568		0.696474576	0.885602457	0.016091664	0.166014735	0.051167354
2020-01-09T03:40:00	0.2687	4.569		0.696462949	0.885584466	0.016091158	0.166009515	0.051165745
2020-01-09T03:45:00	0.2684	4.569		0.695476608	0.884058669	0.016048265	0.165566989	0.051029354
2020-01-09T03:50:00	0.2691	4.568		0.697738914	0.887559542	0.016146737	0.166582908	0.051342470
2020-01-09T03:55:00	0.2700	4.568		0.700648865	0.892069161	0.016273868	0.167894494	0.051746714
2020-01-09T04:00:00	0.2697	4.569		0.699663648	0.890541525	0.016230766	0.167449823	0.051609662
2020-01-09T04:05:00	0.2702	4.569		0.701268758	0.893030775	0.016301018	0.168174598	0.051833044
2020-01-09T04:10:00	0.2700	4.569		0.700602409	0.891997110	0.016271834	0.167873512	0.051740247
2020-01-09T04:15:00	0.2693	4.568		0.698312814	0.888448347	0.016171768	0.166841148	0.051422062
2020-01-09T04:20:00	0.2686	4.567		0.696021791	0.884901922	0.016071966	0.165811510	0.051104718
2020-01-09T04:25:00	0.2698	4.567		0.699901090	0.890909616	0.016241148	0.167556934	0.051642674
2020-01-09T04:30:00	0.2711	4.566		0.704424670	0.897931580	0.016439613	0.169604458	0.052273741
2020-01-09T04:35:00	0.2710	4.565		0.704083094	0.897400729	0.016424582	0.169449389	0.052225947
2020-01-09T04:40:00	0.2699	4.562		0.700497881	0.891834998	0.016267259	0.167826308	0.051725698
2020-01-09T04:45:00	0.2705	4.564		0.702426975	0.894828360	0.016351810	0.168698611	0.051994550
2020-01-09T04:50:00	0.2711	4.565		0.704355058	0.897823385	0.016436549	0.169572849	0.052263999
2020-01-09T04:55:00	0.2717	4.564		0.706282131	0.900820073	0.016521476	0.170449022	0.052534044
2020-01-09T05:00:00	0.2712	4.563		0.704644403	0.898273125	0.016449286	0.169704252	0.052304499
2020-01-09T05:05:00	0.2732	4.562		0.711104096	0.908332616	0.016734998	0.172651892	0.053212990
2020-01-09T05:10:00	0.2744	4.561		0.714967548	0.914366437	0.016907127	0.174427708	0.053760314
2020-01-09T05:15:00	0.2745	4.561		0.715273414	0.914844685	0.016920794	0.174568710	0.053803772
2020-01-09T05:20:00	0.2749	4.561		0.716548664	0.916839532	0.016977840	0.175157244	0.053985164
2020-01-09T05:25:00	0.2755	4.560		0.718469383	0.919846753	0.017063952	0.176045652	0.054258980
2020-01-09T05:30:00	0.2754	4.559		0.718129104	0.919313752	0.017048680	0.175888085	0.054210416
2020-01-09T05:35:00	0.2751	4.559		0.717142767	0.917769359	0.017004451	0.175431784	0.054069780
2020-01-09T05:40:00	0.2757	4.559		0.719063178	0.920777095	0.017090621	0.176320788	0.054343779
2020-01-09T05:45:00	0.2751	4.558		0.717108080	0.917715063	0.017002897	0.175415749	0.054064838
2020-01-09T05:50:00	0.2743	4.558		0.714505461	0.913644077	0.016886490	0.174214804	0.053694695
2020-01-09T05:55:00	0.2751	4.558		0.717073394	0.917660768	0.017001342	0.175399715	0.054059896
2020-01-09T06:00:00	0.2746	4.558		0.715440449	0.915105894	0.016928260	0.174645738	0.053827513
2020-01-09T06:05:00	0.2750	4.557		0.717038707	0.917606473	0.016999788	0.175383681	0.054054954
2020-01-09T06:10:00	0.2751	4.558		0.717344402	0.918085007	0.017013487	0.175525014	0.054098514
2020-01-09T06:15:00	0.2753	4.558		0.717973055	0.919069356	0.017041678	0.175815852	0.054188153
2020-01-09T06:20:00	0.2747	4.558		0.716017382	0.916008285	0.016954061	0.174911927	0.053909555
2020-01-09T06:25:00	0.2746	4.558		0.715676877	0.915475661	0.016938831	0.174754797	0.053861126
2020-01-09T06:30:00	0.2745	4.557		0.715336341	0.914943088	0.016923606	0.174597727	0.053812715
2020-01-09T06:35:00	0.2742	4.557		0.714349258	0.913399936	0.016879517	0.174142866	0.053672523
2020-01-09T06:40:00	0.2750	4.559		0.716917300	0.917416446	0.016994349	0.175327567	0.054037659
2020-01-09T06:45:00	0.2750	4.558		0.716899956	0.917389299	0.016993572	0.175319552	0.054035188
2020-01-09T06:50:00	0.2757	4.558		0.719143374	0.920902768	0.017094225	0.176357965	0.054355238
2020-01-09T06:55:00	0.2756	4.559		0.718803157	0.920369664	0.017078940	0.176200279	0.054306637
2020-01-09T07:00:00	0.2759	4.560		0.719754391	0.921860458	0.017121693	0.176641353	0.054442580
2020-01-09T07:05:00	0.2758	4.562		0.719414231	0.921327260	0.017106398	0.176483558	0.054393946
2020-01-09T07:10:00	0.2759	4.562		0.719719730	0.921806122	0.017120134	0.176625270	0.054437624
2020-01-09T07:15:00	0.2756	4.562		0.718733816	0.920261021	0.017075826	0.176168149	0.054296734
2020-01-09T07:20:00	0.2760	4.564		0.720007874	0.922257855	0.017133095	0.176758988	0.054478837
2020-01-09T07:25:00	0.2767	4.562		0.722249411	0.925774467	0.017234101	0.177801045	0.054800009
2020-01-09T07:30:00	0.2764	4.563		0.721264170	0.924228240	0.017189666	0.177342619	0.054658718
2020-01-09T07:35:00	0.2761	4.564		0.720601421	0.923188608	0.017159811	0.177034602	0.054563784
2020-01-09T07:40:00	0.2772	4.566		0.724132556	0.928732219	0.017319202	0.178679011	0.055070606
2020-01-09T07:45:00	0.2776	4.567		0.725404760	0.930732158	0.017376820	0.179273446	0.055253817
2020-01-09T07:50:00	0.2768	4.568		0.722807967	0.926651436	0.017259319	0.178061216	0.054880196
2020-01-09T07:55:00	0.2781	4.571		0.726981430	0.933212691	0.017448368	0.180011600	0.055481324
2020-01-09T08:00:00	0.2790	4.573		0.729862687	0.937751331	0.017579524	0.181364706	0.055898364
2020-01-09T08:05:00	0.2792	4.576		0.730489222	0.938739233	0.017608113	0.181659657	0.055989270
2020-01-09T08:10:00	0.2800	4.578		0.733046117	0.942774436	0.017725043	0.182866004	0.056361078
2020-01-09T08:15:00	0.2807	4.582		0.735279802	0.946304263	0.017827531	0.183923349	0.056686962
2020-01-09T08:20:00	0.2814	4.587		0.737512150	0.949836359	0.017930272	0.184983314	0.057013654
2020-01-09T08:25:00	0.2807	4.595		0.735245285	0.946249683	0.017825945	0.183906985	0.056681919
2020-01-09T08:30:00	0.2816	4.604		0.738120155	0.950799125	0.017958310	0.185272571	0.057102806
2020-01-09T08:35:00	0.2827	4.611		0.741634706	0.956370739	0.018120838	0.186949348	0.057619605
2020-01-09T08:40:00	0.2840	4.616		0.745787138	0.962967614	0.018313875	0.188940874	0.058233412
2020-01-09T08:45:00	0.2839	4.620		0.745449349	0.962430406	0.018298131	0.188778446	0.058183351
2020-01-09T08:50:00	0.2836	4.625		0.744470229	0.960873822	0.018252537	0.188308055	0.058038371
2020-01-09T08:55:00	0.2818	4.631		0.738676332	0.951680107	0.017983978	0.185537383	0.057184423
2020-01-09T09:00:00	0.2821	4.638		0.739622494	0.953179451	0.018027689	0.185988342	0.057323413
2020-01-09T09:05:00	0.2819	4.645		0.738963010	0.952134311	0.017997216	0.185673958	0.057226517
2020-01-09T09:10:00	0.2820	4.650		0.739588017	0.953124802	0.018026095	0.185971900	0.057318346
2020-01-09T09:15:00	0.2820	4.657		0.739570779	0.953097478	0.018025298	0.185963678	0.057315812
2020-01-09T09:20:00	0.2821	4.666		0.739874626	0.953579125	0.018039346	0.186108612	0.057360482
2020-01-09T09:25:00	0.2830	4.673		0.742745932	0.958134628	0.018172389	0.187481191	0.057783524
2020-01-09T09:30:00	0.2839	4.678		0.745615034	0.962693893	0.018305853	0.188858107	0.058207903
2020-01-09T09:35:00	0.2839	4.685		0.745597823	0.962666522	0.018305050	0.188849832	0.058205352
2020-01-09T09:40:00	0.2838	4.691		0.745260016	0.962129344	0.018289310	0.188687438	0.058155301
2020-01-09T09:45:00	0.2840	4.697		0.745883971	0.963121631	0.018318390	0.188987450	0.058247767
2020-01-09T09:50:00	0.2841	4.703		0.746187305	0.963604153	0.018332536	0.189133392	0.058292748
2020-01-09T09:55:00	0.2841	4.709		0.746170097	0.963576777	0.018331733	0.189125112	0.058290196
2020-01-09T10:00:00	0.2840	4.714		0.745832342	0.963039511	0.018315983	0.188962616	0.058240113
2020-01-09T10:05:00	0.2833	4.720		0.743530852	0.959381216	0.018208850	0.187857347	0.057899459
2020-01-09T10:10:00	0.2828	4.726		0.741869801	0.956743822	0.018131738	0.187061799	0.057654263
2020-01-09T10:15:00	0.2817	4.732		0.738602449	0.951563061	0.017980567	0.185502193	0.057173578
2020-01-09T10:20:00	0.2814	4.736		0.737581797	0.949946628	0.017933483	0.185016436	0.057023862
2020-01-09T10:25:00	0.2811	4.742		0.736560866	0.948330669	0.017886452	0.184531227	0.056874316
2020-01-09T10:30:00	0.2806	4.748		0.734896708	0.945698560	0.017809931	0.183741775	0.056631000
2020-01-09T10:35:00	0.2804	4.755		0.734196616	0.944591989	0.017777792	0.183410202	0.056528806
2020-01-09T10:40:00	0.2806	4.761		0.734782657	0.945518260	0.017804693	0.183687737	0.056614345
2020-01-09T10:45:00	0.2803	4.768		0.734082544	0.944411726	0.017772558	0.183356206	0.056512163
2020-01-09T10:50:00	0.2797	4.774		0.732095550	0.941273614	0.017681524	0.182417027	0.056222699
2020-01-09T10:55:00	0.2800	4.782		0.733003600	0.942707291	0.017723096	0.182845910	0.056354885
2020-01-09T11:00:00	0.2799	4.792		0.732624863	0.942109233	0.017705750	0.182666963	0.056299732
2020-01-09T11:05:00	0.2794	4.802		0.730958945	0.939480103	0.017629563	0.181880954	0.056057476
2020-01-09T11:10:00	0.2785	4.811		0.728326199	0.935330106	0.017509517	0.180642463	0.055675762
2020-01-09T11:15:00	0.2777	4.823		0.725691587	0.931183252	0.017389824	0.179407610	0.055295168
2020-01-09T11:20:00	0.2776	4.834		0.725312104	0.930586451	0.017372620	0.179230117	0.055240463
2020-01-09T11:25:00	0.2765	4.842		0.721707544	0.924923962	0.017209655	0.177548840	0.054722277
2020-01-09T11:30:00	0.2762	4.848		0.720682243	0.923315369	0.017163450	0.177072149	0.054575356
2020-01-09T11:35:00	0.2760	4.855		0.719979466	0.922213316	0.017131817	0.176745802	0.054474773
2020-01-09T11:40:00	0.2750	4.864		0.717015875	0.917570735	0.016998765	0.175373127	0.054051701
2020-01-09T11:45:00	0.2734	4.872		0.711786026	0.909396688	0.016765312	0.172964637	0.053309381
2020-01-09T11:50:00	0.2731	4.883		0.710757970	0.907792683	0.016719623	0.172493267	0.053164100
2020-01-09T11:55:00	0.2721	4.891		0.707463094	0.902658121	0.016573636	0.170987147	0.052699899
2020-01-09T12:00:00	0.2716	4.901		0.705785813	0.900047967	0.016499581	0.170223135	0.052464423
2020-01-09T12:05:00	0.2719	4.912		0.707024281	0.901975012	0.016554245	0.170787089	0.052638240
2020-01-09T12:10:00	0.2720	4.922		0.707290745	0.902389802	0.016566018	0.170908557	0.052675677
2020-01-09T12:15:00	0.2719	4.933		0.706909369	0.901796153	0.016549169	0.170734721	0.052622099
2020-01-09T12:20:00	0.2712	4.945		0.704583606	0.898178620	0.016446609	0.169676637	0.052295987
2020-01-09T12:25:00	0.2717	4.954		0.706146498	0.900609052	0.016515491	0.170387276	0.052515013
2020-01-09T12:30:00	0.2715	4.960		0.705440950	0.899511600	0.016484376	0.170066272	0.052416077
2020-01-09T12:35:00	0.2708	4.966		0.703438518	0.896399258	0.016396238	0.169156970	0.052135821
2020-01-09T12:40:00	0.2704	4.971		0.702083781	0.894295591	0.016336751	0.168543249	0.051946666
2020-01-09T12:45:00	0.2699	4.975		0.700404046	0.891689477	0.016263152	0.167783938	0.051712639
2020-01-09T12:50:00	0.2695	4.981		0.699048190	0.889587648	0.016203872	0.167172357	0.051524144
2020-01-09T12:55:00	0.2690	4.986		0.697367067	0.886983811	0.016130530	0.166415700	0.051290935
2020-01-09T13:00:00	0.2695	4.991		0.698933028	0.889409200	0.016198842	0.167120466	0.051508151
2020-01-09T13:05:00	0.2697	4.995		0.699849258	0.890829259	0.016238882	0.167533549	0.051635467
2020-01-09T13:10:00	0.2697	5.000		0.699791690	0.890740014	0.016236364	0.167507579	0.051627463
2020-01-09T13:15:00	0.2701	5.006		0.701032176	0.892663736	0.016290653	0.168067667	0.051800087
2020-01-09T13:20:00	0.2702	5.010		0.701299074	0.893077811	0.016302346	0.168188303	0.051837268
2020-01-09T13:25:00	0.2699	5.017		0.700268086	0.891478642	0.016257202	0.167722558	0.051693721
2020-01-09T13:30:00	0.2706	5.023		0.702805841	0.895416623	0.016368443	0.168870208	0.052047438
2020-01-09T13:35:00	0.2707	5.026		0.703072610	0.895830910	0.016380160	0.168991090	0.052084695
2020-01-09T13:40:00	0.2709	5.029		0.703663598	0.896748922	0.016406133	0.169259050	0.052167283
2020-01-09T13:45:00	0.2706	5.032		0.702633273	0.895148663	0.016360866	0.168792037	0.052023345
2020-01-09T13:50:00	0.2704	5.035		0.701927051	0.894052321	0.016329876	0.168472324	0.051924806
2020-01-09T13:55:00	0.2705	5.035		0.702193884	0.894466503	0.016341582	0.168593084	0.051962026
2020-01-09T14:00:00	0.2705	5.036		0.702460698	0.894880716	0.016353290	0.168713881	0.051999257
2020-01-09T14:05:00	0.2708	5.036		0.703376049	0.896302218	0.016393493	0.169128644	0.052127091
2020-01-09T14:10:00	0.2703	5.036		0.701696905	0.893695134	0.016319784	0.168368204	0.051892716
2020-01-09T14:15:00	0.2696	5.036		0.699367844	0.890083027	0.016217837	0.167316436	0.051568551
2020-01-09T14:20:00	0.2701	5.037		0.700932953	0.892509813	0.016286307	0.168022831	0.051786268
2020-01-09T14:25:00	0.2699	5.038		0.700226404	0.891414008	0.016255378	0.167703743	0.051687922
2020-01-09T14:30:00	0.2697	5.040		0.699844295	0.890821565	0.016238665	0.167531310	0.051634777
2020-01-09T14:35:00	0.2687	5.043		0.696539628	0.885703119	0.016094496	0.166043943	0.051176356
2020-01-09T14:40:00	0.2688	5.045		0.696806853	0.886116658	0.016106128	0.166163955	0.051213345
2020-01-09T14:45:00	0.2689	5.046		0.697074058	0.886530230	0.016117764	0.166284005	0.051250345
2020-01-09T14:50:00	0.2686	5.047		0.696041883	0.884933005	0.016072840	0.165820526	0.051107496
2020-01-09T14:55:00	0.2689	5.047		0.697283636	0.886854652	0.016126894	0.166378195	0.051279376
2020-01-09T15:00:00	0.2704	5.044		0.702094692	0.894312528	0.016337230	0.168548187	0.051948188
2020-01-09T15:05:00	0.2702	5.041		0.701388367	0.893216356	0.016306259	0.168228673	0.051849711
2020-01-09T15:10:00	0.2691	5.039		0.697760358	0.887592747	0.016147672	0.166592553	0.051345443
2020-01-09T15:15:00	0.2698	5.038		0.699975308	0.891024681	0.016244394	0.167590421	0.051652996
2020-01-09T15:20:00	0.2703	5.037		0.701540159	0.893451891	0.016312912	0.168297310	0.051870866
2020-01-09T15:25:00	0.2702	5.034		0.701482617	0.893362602	0.016310390	0.168271289	0.051862846
2020-01-09T15:30:00	0.2715	5.031		0.705640142	0.899821392	0.016493158	0.170156866	0.052443999
2020-01-09T15:35:00	0.2714	5.029		0.705258595	0.899228026	0.016476340	0.169983358	0.052390522
2020-01-09T15:40:00	0.2725	5.026		0.708764367	0.904684827	0.016631211	0.171581135	0.052882972
2020-01-09T15:45:00	0.2735	5.022		0.711943326	0.909642193	0.016772309	0.173036820	0.053331628
2020-01-09T15:50:00	0.2732	5.017		0.710915314	0.908038116	0.016726611	0.172565366	0.053186322
2020-01-09T15:55:00	0.2738	5.015		0.713122368	0.911483068	0.016824802	0.173578377	0.053498542
2020-01-09T16:00:00	0.2743	5.011		0.714681647	0.913919479	0.016894357	0.174295965	0.053719709
2020-01-09T16:05:00	0.2741	5.008		0.713983516	0.912828369	0.016863196	0.173974487	0.053620626
2020-01-09T16:10:00	0.2739	5.007		0.713285252	0.911737478	0.016832060	0.173653263	0.053521622
2020-01-09T16:15:00	0.2748	5.007		0.716142990	0.916204791	0.016959682	0.174969910	0.053927425
2020-01-09T16:20:00	0.2746	5.006		0.715445135	0.915113222	0.016928469	0.174647899	0.053828179
2020-01-09T16:25:00	0.2746	5.006		0.715716774	0.915538064	0.016940615	0.174773204	0.053866799
2020-01-09T16:30:00	0.2734	5.005		0.711785147	0.909395315	0.016765273	0.172964233	0.053309256
2020-01-09T16:35:00	0.2728	5.005		0.709791953	0.906286312	0.016676751	0.172050965	0.053027778
2020-01-09T16:40:00	0.2731	5.001		0.710711275	0.907719850	0.016717549	0.172471874	0.053157507
2020-01-09T16:45:00	0.2735	4.999		0.711953879	0.909658664	0.016772778	0.173041663	0.053333121
2020-01-09T16:50:00	0.2738	4.996		0.712872663	0.911093094	0.016813677	0.173463607	0.053463168
2020-01-09T16:55:00	0.2734	4.994		0.711850699	0.909497622	0.016768189	0.172994312	0.053318527
2020-01-09T17:00:00	0.2725	4.990		0.708886372	0.904874923	0.016636614	0.171636882	0.052900154
2020-01-09T17:05:00	0.2719	4.989		0.706891610	0.901768514	0.016548384	0.170726629	0.052619605
2020-01-09T17:10:00	0.2735	4.987		0.712019427	0.909760976	0.016775694	0.173071747	0.053342393
2020-01-09T17:15:00	0.2731	4.985		0.710673633	0.907661138	0.016715878	0.172454629	0.053152191
2020-01-09T17:20:00	0.2738	4.983		0.712886619	0.911114889	0.016814299	0.173470021	0.053465145
2020-01-09T17:25:00	0.2727	4.982		0.709599437	0.905986208	0.016668214	0.171962892	0.053000633
2020-01-09T17:30:00	0.2723	4.983		0.708252759	0.903887833	0.016608562	0.171347473	0.052810955
2020-01-09T17:35:00	0.2726	4.984		0.709172466	0.905320736	0.016649289	0.171767643	0.052940456
2020-01-09T17:40:00	0.2730	4.986		0.710415588	0.907258691	0.016704421	0.172336435	0.053115763
2020-01-09T17:45:00	0.2725	4.987		0.708745445	0.904655345	0.016630373	0.171572489	0.052880308
2020-01-09T17:50:00	0.2726	4.989		0.709017578	0.905079369	0.016642426	0.171696844	0.052918635
2020-01-09T17:55:00	0.2728	4.988		0.709937093	0.906512587	0.016683189	0.172117381	0.053048248
2020-01-09T18:00:00	0.2734	4.988		0.711827028	0.909460680	0.016767136	0.172983450	0.053315179
2020-01-09T18:05:00	0.2731	4.987		0.710804774	0.907865688	0.016721702	0.172514713	0.053170710
2020-01-09T18:10:00	0.2738	4.989		0.713017682	0.911319569	0.016820137	0.173530256	0.053483710
2020-01-09T18:15:00	0.2741	4.991		0.713936202	0.912754438	0.016861086	0.173952711	0.053613915
2020-01-09T18:20:00	0.2734	4.990		0.711620658	0.909138613	0.016757958	0.172888768	0.053285997
2020-01-09T18:25:00	0.2735	4.992		0.711892579	0.909562988	0.016770052	0.173013531	0.053324450
2020-01-09T18:30:00	0.2740	4.993		0.713781514	0.912512740	0.016854186	0.173881527	0.053591975
2020-01-09T18:35:00	0.2746	4.994		0.715669483	0.915464096	0.016938500	0.174751385	0.053860074
2020-01-09T18:40:00	0.2752	4.995		0.717556489	0.918417056	0.017022995	0.175623105	0.054128746
2020-01-09T18:45:00	0.2746	4.995		0.715566407	0.915302882	0.016933891	0.174703835	0.053845419
2020-01-09T18:50:00	0.2747	4.996		0.715838038	0.915727739	0.016946039	0.174829157	0.053884044
2020-01-09T18:55:00	0.2745	4.996		0.715140125	0.914636266	0.016914837	0.174507257	0.053784832
2020-01-09T19:00:00	0.2751	4.996		0.717350439	0.918094458	0.017013758	0.175527806	0.054099374
2020-01-09T19:05:00	0.2738	4.996		0.713097168	0.911443708	0.016823679	0.173566793	0.053494971
2020-01-09T19:10:00	0.2752	4.995		0.717570428	0.918438880	0.017023620	0.175629552	0.054130734
2020-01-09T19:15:00	0.2745	4.993		0.715257160	0.914819269	0.016920067	0.174561216	0.053801462
2020-01-09T19:20:00	0.2740	4.994		0.713589207	0.912212291	0.016845610	0.173793053	0.053564707
2020-01-09T19:25:00	0.2736	4.993		0.712243984	0.910111504	0.016785686	0.173174832	0.053374165
2020-01-09T19:30:00	0.2739	4.992		0.713486072	0.912051174	0.016841012	0.173745615	0.053550086
2020-01-09T19:35:00	0.2737	4.990		0.712787715	0.910960439	0.016809894	0.173424573	0.053451138
2020-01-09T19:40:00	0.2731	4.989		0.710795062	0.907850538	0.016721270	0.172510262	0.053169338
2020-01-09T19:45:00	0.2736	4.991		0.712361112	0.910294356	0.016790899	0.173228614	0.053390741
2020-01-09T19:50:00	0.2735	4.991		0.711986049	0.909708876	0.016774209	0.173056427	0.053337672
2020-01-09T19:55:00	0.2732	4.990		0.710963839	0.908113812	0.016728767	0.172587605	0.053193176
2020-01-09T20:00:00	0.2737	4.995		0.712529817	0.910557748	0.016798410	0.173306094	0.053414621
2020-01-09T20:05:00	0.2740	5.000		0.713771809	0.912497577	0.016853753	0.173877062	0.053590599
2020-01-09T20:10:00	0.2735	5.003		0.712103184	0.909891714	0.016779421	0.173110193	0.053354243
2020-01-09T20:15:00	0.2733	5.008		0.711404565	0.908801413	0.016748352	0.172789655	0.053255450
2020-01-09T20:20:00	0.2728	5.013		0.709734870	0.906197325	0.016674219	0.172024848	0.053019729
2020-01-09T20:25:00	0.2736	5.019		0.712271902	0.910155086	0.016786929	0.173187651	0.053378116
2020-01-09T20:30:00	0.2725	5.026		0.708660401	0.904522848	0.016626607	0.171533638	0.052868333
2020-01-09T20:35:00	0.2728	5.031		0.709903696	0.906460518	0.016681707	0.172102097	0.053043538
2020-01-09T20:40:00	0.2722	5.039		0.707909484	0.903353199	0.016593375	0.171190786	0.052762663
2020-01-09T20:45:00	0.2715	5.044		0.705590153	0.899743643	0.016490954	0.170134128	0.052436991
2020-01-09T20:50:00	0.2716	5.050		0.705862519	0.900167281	0.016502964	0.170258035	0.052475180
2020-01-09T20:55:00	0.2716	5.053		0.705810844	0.900086901	0.016500685	0.170234523	0.052467933
2020-01-09T21:00:00	0.2719	5.055		0.706731159	0.901518797	0.016541298	0.170653523	0.052597073
2020-01-09T21:05:00	0.2716	5.056		0.706031522	0.900430181	0.016510418	0.170334943	0.052498884
2020-01-09T21:10:00	0.2713	5.058		0.705007659	0.898837849	0.016465284	0.169869296	0.052355367
2020-01-09T21:15:00	0.2711	5.061		0.704307694	0.897749773	0.016434465	0.169551345	0.052257371
2020-01-09T21:20:00	0.2712	5.063		0.704580155	0.898173256	0.016446457	0.169675070	0.052295504
2020-01-09T21:25:00	0.2718	5.066		0.706472838	0.901116807	0.016529893	0.170535860	0.052560808
2020-01-09T21:30:00	0.2714	5.068		0.705125017	0.899020320	0.016470454	0.169922636	0.052371807
2020-01-09T21:35:00	0.2709	5.070		0.703776702	0.896924646	0.016411106	0.169310358	0.052183097
2020-01-09T21:40:00	0.2707	5.073		0.703076503	0.895836956	0.016380331	0.168992855	0.052085239
2020-01-09T21:45:00	0.2711	5.074		0.704321683	0.897771515	0.016435080	0.169557696	0.052259329
2020-01-09T21:50:00	0.2709	5.075		0.703621587	0.896683654	0.016404286	0.169239994	0.052161410
2020-01-09T21:55:00	0.2710	5.077		0.703894099	0.897107052	0.016416269	0.169363622	0.052199513
2020-01-09T22:00:00	0.2714	5.078		0.705139003	0.899042066	0.016471070	0.169928993	0.052373766
2020-01-09T22:05:00	0.2701	5.080		0.701018138	0.892641959	0.016290038	0.168061323	0.051798132
2020-01-09T22:10:00	0.2699	5.082		0.700463957	0.891782386	0.016265774	0.167810989	0.051720977
2020-01-09T22:15:00	0.2702	5.084		0.701207685	0.892936020	0.016298342	0.168146991	0.051824536
2020-01-09T22:20:00	0.2686	5.088		0.696107863	0.885035077	0.016075710	0.165850132	0.051116621
2020-01-09T22:25:00	0.2689	5.093		0.697177285	0.886690018	0.016122261	0.166330394	0.051264643
2020-01-09T22:30:00	0.2685	5.097		0.695972774	0.884826096	0.016069834	0.165789518	0.051097940
2020-01-09T22:35:00	0.2690	5.103		0.697367030	0.886983754	0.016130528	0.166415683	0.051290930
2020-01-09T22:40:00	0.2692	5.108		0.698111386	0.888136360	0.016162980	0.166750486	0.051394119
2020-01-09T22:45:00	0.2691	5.112		0.697881515	0.887780362	0.016152955	0.166647055	0.051362241
2020-01-09T22:50:00	0.2683	5.117		0.695052669	0.883403125	0.016029847	0.165376979	0.050970791
2020-01-09T22:55:00	0.2677	5.121		0.693197218	0.880535846	0.015949371	0.164546719	0.050714897
2020-01-09T23:00:00	0.2677	5.126		0.693292195	0.880682544	0.015953485	0.164589164	0.050727979
2020-01-09T23:05:00	0.2668	5.133		0.690459804	0.876311089	0.015831032	0.163325835	0.050338608
2020-01-09T23:10:00	0.2673	5.137		0.691856158	0.878465325	0.015891338	0.163948008	0.050530368
2020-01-09T23:15:00	0.2675	5.141		0.692601632	0.879616103	0.015923584	0.164280680	0.050632901
2020-01-09T23:20:00	0.2665	5.147		0.689443238	0.874743836	0.015787204	0.162873669	0.050199247
2020-01-09T23:25:00	0.2672	5.151		0.691490640	0.877901257	0.015875540	0.163785023	0.050480135
2020-01-09T23:30:00	0.2666	5.154		0.689633384	0.875036918	0.015795397	0.162958195	0.050225298
2020-01-09T23:35:00	0.2668	5.155		0.690379311	0.876186960	0.015827559	0.163290008	0.050327566
2020-01-09T23:40:00	0.2661	5.156		0.687870303	0.872320580	0.015719515	0.162175335	0.049984013
2020-01-09T23:45:00	0.2664	5.158		0.688942132	0.873971601	0.015765623	0.162651022	0.050130625
2020-01-09T23:50:00	0.2669	5.158		0.690664454	0.876626709	0.015839863	0.163416942	0.050366689
2020-01-09T23:55:00	0.2663	5.158		0.688806778	0.873763051	0.015759796	0.162590910	0.050112098
2020-01-10T00:00:00	0.2661	5.158		0.687925145	0.872405033	0.015721872	0.162199657	0.049991509
2020-01-10T00:05:00	0.2663	5.159		0.688671420	0.873554509	0.015753970	0.162530808	0.050093574
2020-01-10T00:10:00	0.2659	5.161		0.687464109	0.871695147	0.015702060	0.161995255	0.049928511
2020-01-10T00:15:00	0.2654	5.162		0.685604807	0.868834128	0.015622292	0.161172306	0.049674870
2020-01-10T00:20:00	0.2659	5.164		0.687328701	0.871486686	0.015696243	0.161935247	0.049910016
2020-01-10T00:25:00	0.2654	5.166		0.685795153	0.869126887	0.015630448	0.161256454	0.049700805
2020-01-10T00:30:00	0.2649	5.169		0.684260961	0.866768130	0.015564772	0.160578879	0.049491970
2020-01-10T00:35:00	0.2653	5.172		0.685333848	0.868417437	0.015610685	0.161052561	0.049637963
2020-01-10T00:40:00	0.2654	5.174		0.685754855	0.869064906	0.015628721	0.161238637	0.049695314
2020-01-10T00:45:00	0.2644	5.175		0.682590540	0.864202239	0.015493429	0.159842848	0.049265118
2020-01-10T00:50:00	0.2637	5.177		0.680076175	0.860344524	0.015386367	0.158738310	0.048924689
2020-01-10T00:55:00	0.2643	5.179		0.682128830	0.863493443	0.015473740	0.159639721	0.049202512
2020-01-10T01:00:00	0.2652	5.178		0.685158057	0.868147133	0.015603157	0.160974899	0.049614027
2020-01-10T01:05:00	0.2643	5.178		0.682319357	0.863785909	0.015481863	0.159723526	0.049228342
2020-01-10T01:10:00	0.2642	5.181		0.681762339	0.862930953	0.015458121	0.159478581	0.049152848
2020-01-10T01:15:00	0.2650	5.185		0.684465958	0.867083188	0.015573539	0.160669329	0.049519848
2020-01-10T01:20:00	0.2646	5.187		0.683257256	0.865226077	0.015521883	0.160136407	0.049355596
2020-01-10T01:25:00	0.2644	5.192		0.682374283	0.863870227	0.015484205	0.159747690	0.049235789
2020-01-10T01:30:00	0.2638	5.197		0.680512387	0.861013399	0.015404913	0.158929645	0.048983660
2020-01-10T01:35:00	0.2648	5.198		0.683868949	0.866165755	0.015548013	0.160405989	0.049438684
2020-01-10T01:40:00	0.2643	5.198		0.682007816	0.863307697	0.015468581	0.159586504	0.049186110
2020-01-10T01:45:00	0.2657	5.199		0.686666158	0.870466927	0.015667800	0.161641802	0.049819573
2020-01-10T01:50:00	0.2651	5.199		0.684806450	0.867606565	0.015588107	0.160819622	0.049566169
2020-01-10T01:55:00	0.2650	5.200		0.684575743	0.867251929	0.015578235	0.160717780	0.049534781
2020-01-10T02:00:00	0.2666	5.201		0.689556302	0.874918104	0.015792075	0.162923927	0.050214737
2020-01-10T02:05:00	0.2667	5.200		0.689976824	0.875566360	0.015810201	0.163110924	0.050272371
2020-01-10T02:10:00	0.2662	5.199		0.688444386	0.873204761	0.015744202	0.162430027	0.050062512
2020-01-10T02:15:00	0.2656	5.200		0.686259830	0.869841711	0.015650369	0.161461975	0.049764149
2020-01-10T02:20:00	0.2641	5.202		0.681465344	0.862475210	0.015445469	0.159348061	0.049112620
2020-01-10T02:25:00	0.2644	5.207		0.682539053	0.864123189	0.015491232	0.159820190	0.049258135
2020-01-10T02:30:00	0.2642	5.209		0.681982068	0.863268179	0.015467484	0.159575182	0.049182621
2020-01-10T02:35:00	0.2634	5.208		0.679140896	0.858910944	0.015346642	0.158328478	0.048798375
2020-01-10T02:40:00	0.2638	5.211		0.680541581	0.861058172	0.015406154	0.158942455	0.048987608
2020-01-10T02:45:00	0.2646	5.211		0.683246104	0.865208948	0.015521407	0.160131494	0.049354082
2020-01-10T02:50:00	0.2646	5.211		0.683015298	0.864854471	0.015511554	0.160029839	0.049322751
2020-01-10T02:55:00	0.2647	5.213		0.683436573	0.865501508	0.015529541	0.160215410	0.049379945
2020-01-10T03:00:00	0.2657	5.213		0.686790449	0.870658202	0.015673134	0.161696830	0.049836533
2020-01-10T03:05:00	0.2658	5.212		0.687211289	0.871305943	0.015691201	0.161883224	0.049893982
2020-01-10T03:10:00	0.2668	5.210		0.690236308	0.875966446	0.015821390	0.163226368	0.050307952
2020-01-10T03:15:00	0.2670	5.210		0.690982112	0.877116687	0.015853575	0.163558413	0.050410291
2020-01-10T03:20:00	0.2677	5.208		0.693353805	0.880777709	0.015956154	0.164616702	0.050736466
2020-01-10T03:25:00	0.2667	5.207		0.689870629	0.875402641	0.015805622	0.163063691	0.050257813
2020-01-10T03:30:00	0.2666	5.206		0.689640241	0.875047487	0.015795692	0.162961244	0.050226238
2020-01-10T03:35:00	0.2665	5.207		0.689409838	0.874692357	0.015785765	0.162858824	0.050194671
2020-01-10T03:40:00	0.2667	5.207		0.689830377	0.875340587	0.015803887	0.163045789	0.050252296
2020-01-10T03:45:00	0.2676	5.209		0.692853233	0.880004604	0.015934475	0.164393038	0.050667531
2020-01-10T03:50:00	0.2676	5.211		0.692948219	0.880151288	0.015938587	0.164435467	0.050680608
2020-01-10T03:55:00	0.2668	5.210		0.690440971	0.876282046	0.015830219	0.163317452	0.050336025
2020-01-10T04:00:00	0.2670	5.209		0.690861391	0.876930467	0.015848363	0.163504642	0.050393718
2020-01-10T04:05:00	0.2664	5.207		0.689150812	0.874293163	0.015774608	0.162743721	0.050159195
2020-01-10T04:10:00	0.2663	5.205		0.688741847	0.873663011	0.015757001	0.162562078	0.050103211
2020-01-10T04:15:00	0.2661	5.204		0.688007240	0.872531459	0.015725401	0.162236068	0.050002732
2020-01-10T04:20:00	0.2670	5.203		0.690853173	0.876917791	0.015848008	0.163500982	0.050392590
2020-01-10T04:25:00	0.2660	5.201		0.687840318	0.872274407	0.015718226	0.162162038	0.049979915
2020-01-10T04:30:00	0.2671	5.201		0.691337069	0.877664300	0.015868905	0.163716571	0.050459037
2020-01-10T04:35:00	0.2672	5.200		0.691578993	0.878037593	0.015879358	0.163824412	0.050492275
2020-01-10T04:40:00	0.2669	5.198		0.690519582	0.876403278	0.015833611	0.163352444	0.050346810
2020-01-10T04:45:00	0.2663	5.197		0.688808843	0.873766232	0.015759885	0.162591827	0.050112380
2020-01-10T04:50:00	0.2664	5.195		0.689050934	0.874139254	0.015770307	0.162699350	0.050145520
2020-01-10T04:55:00	0.2664	5.193		0.688967498	0.874010687	0.015766715	0.162662289	0.050134097
2020-01-10T05:00:00	0.2660	5.191		0.687581697	0.871876188	0.015707112	0.162047375	0.049944575
2020-01-10T05:05:00	0.2657	5.188		0.686846857	0.870745013	0.015675555	0.161721807	0.049844231
2020-01-10T05:10:00	0.2657	5.186		0.686763371	0.870616529	0.015671971	0.161684840	0.049832838
2020-01-10T05:15:00	0.2652	5.184		0.685050873	0.867982335	0.015598568	0.160927556	0.049599436
2020-01-10T05:20:00	0.2652	5.180		0.684967346	0.867853917	0.015594993	0.160890667	0.049588066
2020-01-10T05:25:00	0.2657	5.176		0.686838630	0.870732352	0.015675201	0.161718164	0.049843109
2020-01-10T05:30:00	0.2659	5.172		0.687406531	0.871606503	0.015699586	0.161969737	0.049920646
2020-01-10T05:35:00	0.2655	5.167		0.686020137	0.869472963	0.015640092	0.161355945	0.049731469
2020-01-10T05:40:00	0.2652	5.161		0.684959115	0.867841262	0.015594641	0.160887032	0.049586946
2020-01-10T05:45:00	0.2651	5.158		0.684875586	0.867712847	0.015591065	0.160850147	0.049575578
2020-01-10T05:50:00	0.2636	5.154		0.679900316	0.860074912	0.015378893	0.158661207	0.048900925
2020-01-10T05:55:00	0.2637	5.152		0.680142998	0.860446978	0.015389207	0.158767612	0.048933720
2020-01-10T06:00:00	0.2630	5.149		0.677774400	0.856817757	0.015288699	0.157730693	0.048614131
2020-01-10T06:05:00	0.2629	5.146		0.677690706	0.856689607	0.015285154	0.157694119	0.048602859
2020-01-10T06:10:00	0.2634	5.144		0.679239344	0.859061808	0.015350821	0.158371591	0.048811662
2020-01-10T06:15:00	0.2627	5.141		0.676870158	0.855433532	0.015250421	0.157335779	0.048492415
2020-01-10T06:20:00	0.2636	5.138		0.679724781	0.859805824	0.015371435	0.158584266	0.048877211
2020-01-10T06:25:00	0.2650	5.135		0.684533217	0.867186565	0.015576416	0.160699011	0.049528996
2020-01-10T06:30:00	0.2652	5.132		0.685101476	0.868060137	0.015600735	0.160949906	0.049606324
2020-01-10T06:35:00	0.2655	5.130		0.685995451	0.869434988	0.015639034	0.161345027	0.049728104
2020-01-10T06:40:00	0.2659	5.128		0.687214904	0.871311508	0.015691356	0.161884826	0.049894475
2020-01-10T06:45:00	0.2670	5.127		0.691037608	0.877202296	0.015855972	0.163583135	0.050417911
2020-01-10T06:50:00	0.2662	5.125		0.688350500	0.873060142	0.015740163	0.162388360	0.050049670
2020-01-10T06:55:00	0.2653	5.123		0.685335583	0.868420104	0.015610759	0.161053327	0.049638200
2020-01-10T07:00:00	0.2659	5.121		0.687532346	0.871800204	0.015704991	0.162025499	0.049937832
2020-01-10T07:05:00	0.2644	5.119		0.682560697	0.864156419	0.015492156	0.159829715	0.049261070
2020-01-10T07:10:00	0.2648	5.116		0.683781296	0.866031084	0.015544268	0.160367344	0.049426773
2020-01-10T07:15:00	0.2649	5.114		0.684023721	0.866403566	0.015554629	0.160474236	0.049459718
2020-01-10T07:20:00	0.2656	5.113		0.686547028	0.870283607	0.015662688	0.161589068	0.049803320
2020-01-10T07:25:00	0.2665	5.113		0.689394097	0.874668096	0.015785087	0.162851828	0.050192515
2020-01-10T07:30:00	0.2673	5.112		0.691913703	0.878554140	0.015893826	0.163973675	0.050538279
2020-01-10T07:35:00	0.2681	5.113		0.694431577	0.882443003	0.016002885	0.165098813	0.050885057
2020-01-10T07:40:00	0.2675	5.114		0.692722665	0.879802985	0.015928822	0.164334725	0.050649558
2020-01-10T07:45:00	0.2683	5.115		0.695239984	0.883692754	0.016037984	0.165460919	0.050996662
2020-01-10T07:50:00	0.2681	5.116		0.694506679	0.882559083	0.016006144	0.165132435	0.050895420
2020-01-10T07:55:00	0.2684	5.116		0.695398361	0.883937662	0.016044865	0.165531910	0.051018542
2020-01-10T08:00:00	0.2696	5.117		0.699537146	0.890345436	0.016225236	0.167392773	0.051592078
2020-01-10T08:05:00	0.2694	5.117		0.698804699	0.889210361	0.016193238	0.167062652	0.051490332
2020-01-10T08:10:00	0.2699	5.119		0.700344429	0.891597026	0.016260543	0.167757022	0.051704343
2020-01-10T08:15:00	0.2700	5.120		0.700585760	0.891971288	0.016271105	0.167865993	0.051737929
2020-01-10T08:20:00	0.2704	5.122		0.702124744	0.894359176	0.016338548	0.168561789	0.051952380
2020-01-10T08:25:00	0.2710	5.125		0.703987294	0.897251863	0.016420368	0.169405912	0.052212547
2020-01-10T08:30:00	0.2712	5.128		0.704552547	0.898130341	0.016445242	0.169662530	0.052291640
2020-01-10T08:35:00	0.2730	5.134		0.710299608	0.907077829	0.016699273	0.172283326	0.053099394
2020-01-10T08:40:00	0.2730	5.142		0.710540287	0.907453165	0.016709957	0.172393546	0.053133365
2020-01-10T08:45:00	0.2744	5.151		0.714985340	0.914394255	0.016907921	0.174435909	0.053762841
2020-01-10T08:50:00	0.2747	5.160		0.715872077	0.915780985	0.016947561	0.174844865	0.053888885
2020-01-10T08:55:00	0.2747	5.170		0.715789247	0.915651422	0.016943856	0.174806643	0.053877105
2020-01-10T09:00:00	0.2739	5.181		0.713443550	0.911984749	0.016839116	0.173726058	0.053544058
2020-01-10T09:05:00	0.2732	5.191		0.711096363	0.908320552	0.016734655	0.172648347	0.053211897
2020-01-10T09:10:00	0.2747	5.203		0.715863915	0.915768217	0.016947196	0.174841098	0.053887725
2020-01-10T09:15:00	0.2758	5.216		0.719334150	0.921201749	0.017102799	0.176446420	0.054382500
2020-01-10T09:20:00	0.2751	5.227		0.717313742	0.918037009	0.017012113	0.175510836	0.054094144
2020-01-10T09:25:00	0.2744	5.239		0.714969012	0.914368726	0.016907192	0.174428383	0.053760522
2020-01-10T09:30:00	0.2738	5.248		0.712946217	0.911207961	0.016816954	0.173497410	0.053473587
2020-01-10T09:35:00	0.2739	5.259		0.713186724	0.911583583	0.016827669	0.173607963	0.053507660
2020-01-10T09:40:00	0.2742	5.272		0.714397189	0.913474848	0.016881657	0.174164938	0.053679325
2020-01-10T09:45:00	0.2719	5.286		0.706871174	0.901736706	0.016547482	0.170717316	0.052616735
2020-01-10T09:50:00	0.2722	5.302		0.707759862	0.903120202	0.016586757	0.171122515	0.052741621
2020-01-10T09:55:00	0.2723	5.313		0.708000707	0.903495264	0.016597410	0.171232417	0.052775494
2020-01-10T10:00:00	0.2711	5.323		0.704353626	0.897821160	0.016436486	0.169572199	0.052263799
2020-01-10T10:05:00	0.2714	5.331		0.705380570	0.899417702	0.016481715	0.170038816	0.052407614
2020-01-10T10:10:00	0.2714	5.342		0.705111068	0.898998631	0.016469839	0.169916295	0.052369852
2020-01-10T10:15:00	0.2706	5.359		0.702572002	0.895053528	0.016358176	0.168764286	0.052014792
2020-01-10T10:20:00	0.2708	5.378		0.703275199	0.896145567	0.016389061	0.169082921	0.052112998
2020-01-10T10:25:00	0.2706	5.397		0.702681246	0.895223152	0.016362972	0.168813766	0.052030042
2020-01-10T10:30:00	0.2708	5.411		0.703384422	0.896315225	0.016393861	0.169132441	0.052128261
2020-01-10T10:35:00	0.2713	5.426		0.705059896	0.898919067	0.016467585	0.169893037	0.052362684
2020-01-10T10:40:00	0.2707	5.441		0.702845106	0.895477598	0.016370167	0.168887998	0.052052921
2020-01-10T10:45:00	0.2714	5.459		0.705169066	0.899088812	0.016472395	0.169942658	0.052377978
2020-01-10T10:50:00	0.2717	5.475		0.706195783	0.900685729	0.016517666	0.170409711	0.052521928
2020-01-10T10:55:00	0.2707	5.492		0.703008959	0.895732055	0.016377364	0.168962244	0.052075804
2020-01-10T11:00:00	0.2710	5.507		0.704036278	0.897327979	0.016422523	0.169428142	0.052219399
2020-01-10T11:05:00	0.2696	5.522		0.699549462	0.890364526	0.016225775	0.167398326	0.051593790
2020-01-10T11:10:00	0.2693	5.539		0.698305569	0.888437124	0.016171452	0.166837887	0.051421057
2020-01-10T11:15:00	0.2695	5.557		0.699009583	0.889527823	0.016202185	0.167154960	0.051518782
2020-01-10T11:20:00	0.2691	5.575		0.697765507	0.887600721	0.016147896	0.166594870	0.051346157
2020-01-10T11:25:00	0.2688	5.592		0.696845851	0.886177015	0.016107826	0.166181474	0.051218744
2020-01-10T11:30:00	0.2684	5.607		0.695601042	0.884251113	0.016053673	0.165622783	0.051046550
2020-01-10T11:35:00	0.2668	5.622		0.690453170	0.876300858	0.015830745	0.163322882	0.050337698
2020-01-10T11:40:00	0.2663	5.638		0.688555121	0.873375343	0.015748966	0.162479178	0.050077661
2020-01-10T11:45:00	0.2678	5.654		0.693490058	0.880988182	0.015962058	0.164677610	0.050755239
2020-01-10T11:50:00	0.2664	5.668		0.688990321	0.874045854	0.015767697	0.162672426	0.050137222
2020-01-10T11:55:00	0.2658	5.679		0.687091513	0.871121572	0.015686057	0.161830162	0.049877628
2020-01-10T12:00:00	0.2667	5.692		0.690076381	0.875719855	0.015814493	0.163155212	0.050286021
2020-01-10T12:05:00	0.2657	5.703		0.686875521	0.870789129	0.015676785	0.161734500	0.049848144
2020-01-10T12:10:00	0.2666	5.709		0.689535105	0.874885431	0.015791162	0.162914504	0.050211832
2020-01-10T12:15:00	0.2660	5.717		0.687636580	0.871960690	0.015709470	0.162071705	0.049952073
2020-01-10T12:20:00	0.2654	5.730		0.685737068	0.869037548	0.015627959	0.161230773	0.049692890
2020-01-10T12:25:00	0.2668	5.743		0.690350416	0.876142402	0.015826312	0.163277148	0.050323603
2020-01-10T12:30:00	0.2684	5.759		0.695607888	0.884261701	0.016053970	0.165625852	0.051047496
2020-01-10T12:35:00	0.2678	5.771		0.693712508	0.881331839	0.015971699	0.164777075	0.050785895
2020-01-10T12:40:00	0.2669	5.784		0.690514828	0.876395946	0.015833406	0.163350328	0.050346158
2020-01-10T12:45:00	0.2657	5.795		0.686662948	0.870461988	0.015667662	0.161640381	0.049819135
2020-01-10T12:50:00	0.2639	5.804		0.680850033	0.861531251	0.015419276	0.159077829	0.049029332
2020-01-10T12:55:00	0.2645	5.810		0.682861924	0.864618941	0.015505008	0.159962306	0.049301936
2020-01-10T13:00:00	0.2650	5.814		0.684546802	0.867207446	0.015576997	0.160705007	0.049530844
2020-01-10T13:05:00	0.2650	5.814		0.684601694	0.867291818	0.015579345	0.160729234	0.049538311
2020-01-10T13:10:00	0.2651	5.811		0.684656584	0.867376191	0.015581694	0.160753462	0.049545778
2020-01-10T13:15:00	0.2650	5.809		0.684385555	0.866959614	0.015570100	0.160633850	0.049508913
2020-01-10T13:20:00	0.2655	5.810		0.686069730	0.869549254	0.015642218	0.161377879	0.049738230
2020-01-10T13:25:00	0.2679	5.818		0.693934945	0.881675519	0.015981343	0.164876566	0.050816559
2020-01-10T13:30:00	0.2678	5.825		0.693664602	0.881257827	0.015969623	0.164755652	0.050779292
2020-01-10T13:35:00	0.2673	5.830		0.692093480	0.878831623	0.015901600	0.164053875	0.050562998
2020-01-10T13:40:00	0.2667	5.837		0.689870850	0.875402982	0.015805632	0.163063789	0.050257843
2020-01-10T13:45:00	0.2676	5.841		0.692853454	0.880004946	0.015934484	0.164393137	0.050667561
2020-01-10T13:50:00	0.2665	5.846		0.689329544	0.874568607	0.015782306	0.162823140	0.050183673
2020-01-10T13:55:00	0.2670	5.848		0.691011445	0.877161936	0.015854842	0.163571480	0.050414319
2020-01-10T14:00:00	0.2679	5.846		0.693993120	0.881765411	0.015983865	0.164902591	0.050824580
2020-01-10T14:05:00	0.2670	5.844		0.690795685	0.876829118	0.015845527	0.163475379	0.050384699
2020-01-10T14:10:00	0.2675	5.846		0.692476912	0.879423541	0.015918187	0.164224998	0.050615739
2020-01-10T14:15:00	0.2676	5.848		0.692856879	0.880010235	0.015934633	0.164394667	0.050668033
2020-01-10T14:20:00	0.2688	5.845		0.696811672	0.886124117	0.016106338	0.166166120	0.051214012
2020-01-10T14:25:00	0.2681	5.840		0.694591903	0.882690813	0.016009842	0.165170594	0.050907181
2020-01-10T14:30:00	0.2691	5.832		0.697895418	0.887801892	0.016153561	0.166653310	0.051364169
2020-01-10T14:35:00	0.2686	5.822		0.696001220	0.884870100	0.016071071	0.165802281	0.051101873
2020-01-10T14:40:00	0.2686	5.812		0.696055940	0.884954751	0.016073451	0.165826833	0.051109440
2020-01-10T14:45:00	0.2687	5.803		0.696435537	0.885542050	0.016089965	0.165997208	0.051161952
2020-01-10T14:50:00	0.2706	5.793		0.702657370	0.895186079	0.016361924	0.168802951	0.052026709
2020-01-10T14:55:00	0.2701	5.784		0.701090092	0.892753584	0.016293190	0.168093841	0.051808154
2020-01-10T15:00:00	0.2698	5.775		0.700171268	0.891328514	0.016252966	0.167678856	0.051680252
2020-01-10T15:05:00	0.2700	5.766		0.700550440	0.891916509	0.016269559	0.167850042	0.051733013
2020-01-10T15:10:00	0.2697	5.757		0.699631481	0.890491661	0.016229360	0.167435315	0.051605190
2020-01-10T15:15:00	0.2711	5.747		0.704227395	0.897624978	0.016430931	0.169514890	0.052246135
2020-01-10T15:20:00	0.2708	5.739		0.703309354	0.896198620	0.016390562	0.169098405	0.052117771
2020-01-10T15:25:00	0.2697	5.731		0.699795477	0.890745883	0.016236530	0.167509287	0.051627989
2020-01-10T15:30:00	0.2703	5.722		0.701796989	0.893850460	0.016324173	0.168413479	0.051906670
2020-01-10T15:35:00	0.2694	5.714		0.698606350	0.888903058	0.016184579	0.166973313	0.051462797
2020-01-10T15:40:00	0.2693	5.707		0.698336351	0.888484804	0.016172795	0.166851744	0.051425328
2020-01-10T15:45:00	0.2697	5.699		0.699689566	0.890581700	0.016231899	0.167461513	0.051613265
2020-01-10T15:50:00	0.2699	5.690		0.700393314	0.891672833	0.016262682	0.167779093	0.051711146
2020-01-10T15:55:00	0.2696	5.679		0.699474316	0.890248050	0.016222490	0.167364441	0.051583346
2020-01-10T16:00:00	0.2692	5.663		0.698230398	0.888320690	0.016168172	0.166804050	0.051410628
2020-01-10T16:05:00	0.2681	5.643		0.694453004	0.882476120	0.016003815	0.165108405	0.050888014
2020-01-10T16:10:00	0.2680	5.624		0.694249080	0.882160952	0.015994967	0.165017125	0.050859881
2020-01-10T16:15:00	0.2664	5.603		0.689165780	0.874316229	0.015775252	0.162750372	0.050161245
2020-01-10T16:20:00	0.2662	5.582		0.688310452	0.872998456	0.015738440	0.162370588	0.050044192
2020-01-10T16:25:00	0.2657	5.562		0.686803546	0.870678358	0.015673696	0.161702629	0.049838321
2020-01-10T16:30:00	0.2651	5.543		0.684644255	0.867357240	0.015581166	0.160748020	0.049544101
2020-01-10T16:35:00	0.2630	5.524		0.677915377	0.857033630	0.015294672	0.157792310	0.048633122
2020-01-10T16:40:00	0.2637	5.504		0.680321839	0.860721199	0.015396810	0.158846050	0.048957895
2020-01-10T16:45:00	0.2631	5.483		0.678158709	0.857406276	0.015304983	0.157898692	0.048665910
2020-01-10T16:50:00	0.2627	5.460		0.676974216	0.855592789	0.015254823	0.157381198	0.048506414
2020-01-10T16:55:00	0.2627	5.438		0.677095916	0.855779059	0.015259973	0.157434326	0.048522788
2020-01-10T17:00:00	0.2608	5.417		0.670680244	0.845976820	0.014989740	0.154646389	0.047663519
2020-01-10T17:05:00	0.2598	5.397		0.667529166	0.841175373	0.014857943	0.153286659	0.047244437
2020-01-10T17:10:00	0.2593	5.376		0.665686038	0.838370860	0.014781135	0.152494244	0.047000207
2020-01-10T17:15:00	0.2588	5.354		0.664169737	0.836065833	0.014718103	0.151843956	0.046799782
2020-01-10T17:20:00	0.2581	5.333		0.661996967	0.832766301	0.014628028	0.150914669	0.046513367
2020-01-10T17:25:00	0.2573	5.312		0.659166547	0.828474133	0.014511123	0.149708584	0.046141640
2020-01-10T17:30:00	0.2571	5.293		0.658632401	0.827664901	0.014489117	0.149481545	0.046071664
2020-01-10T17:35:00	0.2551	5.274		0.652183937	0.817914702	0.014224818	0.146754826	0.045231263
2020-01-10T17:40:00	0.2536	5.254		0.647041398	0.810164518	0.014015865	0.144599095	0.044566846
2020-01-10T17:45:00	0.2529	5.235		0.644858294	0.806881232	0.013927648	0.143688977	0.044286338
2020-01-10T17:50:00	0.2535	5.214		0.646628182	0.809542750	0.013999145	0.144426599	0.044513681
2020-01-10T17:55:00	0.2518	5.196		0.641147862	0.801310218	0.013778379	0.142148994	0.043811701
2020-01-10T18:00:00	0.2509	5.179		0.638301017	0.797043763	0.013664419	0.140973291	0.043449337
2020-01-10T18:05:00	0.2501	5.163		0.635451912	0.792780809	0.013550861	0.139801737	0.043088253
2020-01-10T18:10:00	0.2504	5.147		0.636565962	0.794446879	0.013595206	0.140259230	0.043229257
2020-01-10T18:15:00	0.2494	5.132		0.633384930	0.789692410	0.013468785	0.138954973	0.042827272
2020-01-10T18:20:00	0.2485	5.118		0.630201071	0.784942298	0.013342866	0.137655891	0.042426883
2020-01-10T18:25:00	0.2494	5.105		0.633300726	0.789566671	0.013465447	0.138920534	0.042816658
2020-01-10T18:30:00	0.2490	5.100		0.631770730	0.787283055	0.013404868	0.138295554	0.042624033
2020-01-10T18:35:00	0.2492	5.094		0.632555302	0.788453831	0.013435915	0.138615857	0.042722753
2020-01-10T18:40:00	0.2503	5.080		0.636313566	0.794069327	0.013585152	0.140155514	0.043197291
2020-01-10T18:45:00	0.2489	5.079		0.631479000	0.786847854	0.013393333	0.138176552	0.042587355
2020-01-10T18:50:00	0.2499	5.084		0.634907987	0.791967747	0.013529238	0.139578652	0.043019496
2020-01-10T18:55:00	0.2500	5.081		0.635361507	0.792645653	0.013547266	0.139764646	0.043076821
2020-01-10T19:00:00	0.2490	5.084		0.631848716	0.787399406	0.013407952	0.138327374	0.042633840
2020-01-10T19:05:00	0.2504	5.088		0.636598656	0.794495789	0.013596508	0.140272668	0.043233399
2020-01-10T19:10:00	0.2516	5.093		0.640352688	0.800117828	0.013746498	0.141820088	0.043710328
2020-01-10T19:15:00	0.2510	5.095		0.638495623	0.797335192	0.013672193	0.141053498	0.043474058
2020-01-10T19:20:00	0.2518	5.086		0.641258296	0.801475858	0.013782809	0.142194704	0.043825789
2020-01-10T19:25:00	0.2516	5.084		0.640391588	0.800176147	0.013748057	0.141836169	0.043715285
2020-01-10T19:30:00	0.2507	5.080		0.637544142	0.795910623	0.013634204	0.140661568	0.043353261
2020-01-10T19:35:00	0.2516	5.068		0.640637457	0.800544787	0.013757911	0.141937831	0.043746618
2020-01-10T19:40:00	0.2503	5.059		0.636139045	0.793808297	0.013578203	0.140083821	0.043175194
2020-01-10T19:45:00	0.2503	5.052		0.636262127	0.793992387	0.013583104	0.140134381	0.043190777
2020-01-10T19:50:00	0.2499	5.050		0.634733396	0.791706822	0.013522301	0.139507085	0.042997439
2020-01-10T19:55:00	0.2478	5.043		0.627910836	0.781530721	0.013252669	0.136725342	0.042140078
2020-01-10T20:00:00	0.2478	5.034		0.628034202	0.781714376	0.013257519	0.136775383	0.042155502
2020-01-10T20:05:00	0.2476	5.022		0.627164288	0.780419608	0.013223336	0.136422718	0.042046807
2020-01-10T20:10:00	0.2474	5.011		0.626625366	0.779617804	0.013202182	0.136204474	0.041979542
2020-01-10T20:15:00	0.2469	4.999		0.625092511	0.777338577	0.013142109	0.135584714	0.041788526
2020-01-10T20:20:00	0.2464	4.990		0.623227511	0.774568154	0.013069211	0.134832636	0.041556728
2020-01-10T20:25:00	0.2466	4.985		0.624013960	0.775736051	0.013099925	0.135149515	0.041654393
2020-01-10T20:30:00	0.2453	4.977		0.619494583	0.769031773	0.012923930	0.133333804	0.041094773
2020-01-10T20:35:00	0.2441	4.963		0.615633948	0.763318341	0.012774563	0.131792810	0.040619824
2020-01-10T20:40:00	0.2434	4.957		0.613431589	0.760064644	0.012689756	0.130917871	0.040350159
2020-01-10T20:45:00	0.2421	4.956		0.608898745	0.753380793	0.012516125	0.129126558	0.039798059
2020-01-10T20:50:00	0.2405	4.957		0.603693509	0.745726744	0.012318260	0.127085217	0.039168898
2020-01-10T20:55:00	0.2401	4.958		0.602484195	0.743951758	0.012272523	0.126613357	0.039023466
2020-01-10T21:00:00	0.2400	4.959		0.601941520	0.743155637	0.012252027	0.126401906	0.038958295
2020-01-10T21:05:00	0.2405	4.959		0.603732810	0.745784450	0.012319748	0.127100567	0.039173629
2020-01-10T21:10:00	0.2406	4.961		0.604190316	0.746456294	0.012337075	0.127279327	0.039228725
2020-01-10T21:15:00	0.2394	4.962		0.599979331	0.740279103	0.012178066	0.125638862	0.038723118
2020-01-10T21:20:00	0.2391	4.962		0.599102525	0.738994763	0.012145091	0.125298664	0.038618265
2020-01-10T21:25:00	0.2403	4.962		0.602896245	0.744556412	0.012288097	0.126774033	0.039072988
2020-01-10T21:30:00	0.2402	4.964		0.602687072	0.744249448	0.012280190	0.126692455	0.039047845
2020-01-10T21:35:00	0.2446	4.965		0.617451214	0.766006187	0.012844761	0.132517029	0.040843035
2020-01-10T21:40:00	0.2456	4.957		0.620561951	0.770613609	0.012965385	0.133761485	0.041226589
2020-01-10T21:45:00	0.2454	4.945		0.620022031	0.769813329	0.012944407	0.133545057	0.041159884
2020-01-10T21:50:00	0.2460	4.931		0.622135851	0.772947875	0.013026638	0.134393420	0.041421357
2020-01-10T21:55:00	0.2463	4.919		0.622922541	0.774115405	0.013057310	0.134709861	0.041518887
2020-01-10T22:00:00	0.2460	4.906		0.622051381	0.772822543	0.013023347	0.134359465	0.041410892
2020-01-10T22:05:00	0.2467	4.896		0.624248945	0.776085111	0.013109110	0.135244270	0.041683598
2020-01-10T22:10:00	0.2491	4.887		0.632401869	0.788224830	0.013429840	0.138553187	0.042703438
2020-01-10T22:15:00	0.2489	4.870		0.631617788	0.787054889	0.013398820	0.138233160	0.042604802
2020-01-10T22:20:00	0.2499	4.861		0.634800913	0.791807722	0.013524983	0.139534759	0.043005968
2020-01-10T22:25:00	0.2506	4.851		0.637320875	0.795576454	0.013625297	0.140569682	0.043324941
2020-01-10T22:30:00	0.2517	4.841		0.640828835	0.800831761	0.013765584	0.142016988	0.043771015
2020-01-10T22:35:00	0.2524	4.828		0.643014908	0.804112024	0.013853385	0.142922815	0.044050200
2020-01-10T22:40:00	0.2524	4.816		0.643222252	0.804423360	0.013861727	0.143008887	0.044076728
2020-01-10T22:45:00	0.2530	4.802		0.645077399	0.807210572	0.013936489	0.143780185	0.044314449
2020-01-10T22:50:00	0.2534	4.785		0.646602257	0.809503744	0.013998096	0.144415780	0.044510346
2020-01-10T22:55:00	0.2546	4.770		0.650430192	0.815269146	0.014153378	0.146017793	0.045004102
2020-01-10T23:00:00	0.2544	4.753		0.649650036	0.814093111	0.014121658	0.145690546	0.044903241
2020-01-10T23:05:00	0.2547	4.734		0.650844015	0.815893169	0.014170219	0.146191533	0.045057650
2020-01-10T23:10:00	0.2565	4.724		0.656638585	0.824646419	0.014407126	0.148635662	0.045810955
2020-01-10T23:15:00	0.2564	4.713		0.656188259	0.823965132	0.014388641	0.148444957	0.045752178
2020-01-10T23:20:00	0.2548	4.703		0.651135741	0.816333165	0.014182097	0.146314076	0.045095419
2020-01-10T23:25:00	0.2544	4.687		0.649697669	0.814164899	0.014123594	0.145710515	0.044909396
2020-01-10T23:30:00	0.2537	4.668		0.647271298	0.810510513	0.014025172	0.144695113	0.044596439
2020-01-10T23:35:00	0.2537	4.649		0.647478397	0.810822231	0.014033559	0.144781637	0.044623107
2020-01-10T23:40:00	0.2524	4.625		0.643073047	0.804199317	0.013855724	0.142946947	0.044057637
2020-01-10T23:45:00	0.2528	4.607		0.644598754	0.806491166	0.013917180	0.143580976	0.044253051
2020-01-10T23:50:00	0.2515	4.586		0.640189872	0.799873747	0.013739975	0.141752792	0.043689587
2020-01-10T23:55:00	0.2497	4.559		0.634123481	0.790795506	0.013498082	0.139257222	0.042920428
2020-01-11T00:00:00	0.2507	4.532		0.637634567	0.796045975	0.013637812	0.140698791	0.043364734
2020-01-11T00:05:00	0.2508	4.507		0.637842222	0.796356829	0.013646099	0.140784291	0.043391086
2020-01-11T00:10:00	0.2520	4.484		0.641679487	0.802107706	0.013799714	0.142369110	0.043879543
2020-01-11T00:15:00	0.2524	4.465		0.643205786	0.804398634	0.013861065	0.143002051	0.044074621
2020-01-11T00:20:00	0.2525	4.448		0.643413119	0.804709988	0.013869410	0.143088142	0.044101155
2020-01-11T00:25:00	0.2519	4.438		0.641642171	0.802051719	0.013798216	0.142353654	0.043874779
2020-01-11T00:30:00	0.2530	4.429		0.645145916	0.807313569	0.013939254	0.143808713	0.044323242
2020-01-11T00:35:00	0.2518	4.414		0.641067576	0.801189801	0.013775158	0.142115768	0.043801460
2020-01-11T00:40:00	0.2521	4.397		0.642264404	0.802985414	0.013823209	0.142611497	0.043954248
2020-01-11T00:45:00	0.2513	4.380		0.639503029	0.798844331	0.013712476	0.141469084	0.043602146
2020-01-11T00:50:00	0.2514	4.364		0.639710576	0.799155353	0.013720782	0.141554782	0.043628559
2020-01-11T00:55:00	0.2526	4.347		0.643875459	0.805404418	0.013888027	0.143280218	0.044160355
2020-01-11T01:00:00	0.2530	4.333		0.645071353	0.807201485	0.013936245	0.143777668	0.044313674
2020-01-11T01:05:00	0.2533	4.319		0.646266850	0.808999170	0.013984533	0.144275850	0.044467218
2020-01-11T01:10:00	0.2537	4.307		0.647461950	0.810797475	0.014032892	0.144774764	0.044620988
2020-01-11T01:15:00	0.2530	4.297		0.645034072	0.807145443	0.013934740	0.143762146	0.044308890
2020-01-11T01:20:00	0.2526	4.287		0.643923168	0.805476087	0.013889949	0.143300046	0.044166466
2020-01-11T01:25:00	0.2530	4.276		0.645119047	0.807273178	0.013938169	0.143797525	0.044319794
2020-01-11T01:30:00	0.2537	4.265		0.647302515	0.810557497	0.014026436	0.144708153	0.044600458
2020-01-11T01:35:00	0.2537	4.257		0.647509612	0.810869218	0.014034823	0.144794680	0.044627127
2020-01-11T01:40:00	0.2544	4.244		0.649691631	0.814155799	0.014123349	0.145707983	0.044908616
2020-01-11T01:45:00	0.2540	4.231		0.648252982	0.811988435	0.014064949	0.145105488	0.044722921
2020-01-11T01:50:00	0.2529	4.219		0.644837245	0.806849594	0.013926799	0.143680216	0.044283638
2020-01-11T01:55:00	0.2533	4.210		0.646032819	0.808647159	0.013975073	0.144178255	0.044437138
2020-01-11T02:00:00	0.2525	4.204		0.643603976	0.804996631	0.013877094	0.143167416	0.044125588
2020-01-11T02:05:00	0.2529	4.200		0.644799961	0.806793557	0.013925295	0.143664699	0.044278856
2020-01-11T02:10:00	0.2522	4.194		0.642370284	0.803144326	0.013827464	0.142655396	0.043967778
2020-01-11T02:15:00	0.2519	4.187		0.641588380	0.801971018	0.013796057	0.142331375	0.043867912
2020-01-11T02:20:00	0.2527	4.181		0.644103583	0.805747125	0.013897218	0.143375041	0.044189580
2020-01-11T02:25:00	0.2516	4.172		0.640353996	0.800119789	0.013746551	0.141820629	0.043710495
2020-01-11T02:30:00	0.2516	4.159		0.640561493	0.800430886	0.013754866	0.141906417	0.043736936
2020-01-11T02:35:00	0.2515	4.149		0.640109153	0.799752748	0.013736742	0.141719435	0.043679306
2020-01-11T02:40:00	0.2523	4.143		0.642955089	0.804022209	0.013850978	0.142897989	0.044042548
2020-01-11T02:45:00	0.2521	4.137		0.642173311	0.802848704	0.013819548	0.142573734	0.043942610
2020-01-11T02:50:00	0.2531	4.126		0.645347092	0.807616008	0.013947375	0.143892493	0.044349064
2020-01-11T02:55:00	0.2523	4.113		0.642917785	0.803966202	0.013849478	0.142882508	0.044037777
2020-01-11T03:00:00	0.2532	4.105		0.645761499	0.808239118	0.013964110	0.144065153	0.044402279
2020-01-11T03:05:00	0.2543	4.094		0.649261237	0.813507214	0.014105864	0.145527601	0.044853020
2020-01-11T03:10:00	0.2538	4.085		0.647822417	0.811340119	0.014047496	0.144925423	0.044667423
2020-01-11T03:15:00	0.2528	4.075		0.644406270	0.806201916	0.013909418	0.143500906	0.044228373
2020-01-11T03:20:00	0.2530	4.067		0.645272534	0.807503917	0.013944365	0.143861440	0.044339493
2020-01-11T03:25:00	0.2526	4.064		0.643832117	0.805339311	0.013886282	0.143262207	0.044154803
2020-01-11T03:30:00	0.2521	4.058		0.642061375	0.802680722	0.013815051	0.142527338	0.043928310
2020-01-11T03:35:00	0.2515	4.048		0.640289760	0.800023488	0.013743977	0.141794076	0.043702311
2020-01-11T03:40:00	0.2511	4.043		0.638847344	0.797861989	0.013686250	0.141198522	0.043518756
2020-01-11T03:45:00	0.2518	4.040		0.641034624	0.801140380	0.013773836	0.142102132	0.043797257
2020-01-11T03:50:00	0.2513	4.035		0.639592508	0.798978416	0.013716057	0.141506027	0.043613532
2020-01-11T03:55:00	0.2507	4.027		0.637489505	0.795828842	0.013632024	0.140639079	0.043346330
2020-01-11T04:00:00	0.2509	4.021		0.638357437	0.797128251	0.013666673	0.140996542	0.043456504
2020-01-11T04:05:00	0.2505	4.014		0.636855670	0.794880312	0.013606750	0.140378328	0.043265964
2020-01-11T04:10:00	0.2498	4.005		0.634692452	0.791645634	0.013520674	0.139490304	0.042992266
2020-01-11T04:15:00	0.2498	3.993		0.634511226	0.791374826	0.013513476	0.139416042	0.042969378
2020-01-11T04:20:00	0.2503	3.989		0.636312295	0.794067425	0.013585102	0.140154991	0.043197129
2020-01-11T04:25:00	0.2492	3.980		0.632495907	0.788365181	0.013433563	0.138591595	0.042715276
2020-01-11T04:30:00	0.2480	3.976		0.628675448	0.782669208	0.013282747	0.137035649	0.042235718
2020-01-11T04:35:00	0.2484	3.974		0.629817730	0.784370957	0.013327747	0.137499907	0.042378807
2020-01-11T04:40:00	0.2496	3.969		0.633935488	0.790514677	0.013490621	0.139180254	0.042896706
2020-01-11T04:45:00	0.2504	3.962		0.636397476	0.794194839	0.013588494	0.140189990	0.043207916
2020-01-11T04:50:00	0.2500	3.958		0.635225296	0.792442031	0.013541850	0.139708771	0.043059600
2020-01-11T04:55:00	0.2503	3.952		0.636365491	0.794146995	0.013587220	0.140176848	0.043203866
2020-01-11T05:00:00	0.2505	3.944		0.636844898	0.794864194	0.013606320	0.140373899	0.043264599
2020-01-11T05:05:00	0.2516	3.938		0.640624715	0.800525682	0.013757400	0.141932562	0.043744994
2020-01-11T05:10:00	0.2530	3.936		0.645059598	0.807183814	0.013935770	0.143772774	0.044312165
2020-01-11T05:15:00	0.2539	3.934		0.648172444	0.811867154	0.014061684	0.145071798	0.044712537
2020-01-11T05:20:00	0.2555	3.932		0.653255584	0.819532592	0.014268565	0.147206153	0.045370366
2020-01-11T05:25:00	0.2555	3.926		0.653404034	0.819756787	0.014274630	0.147268730	0.045389653
2020-01-11T05:30:00	0.2563	3.923		0.655852738	0.823457643	0.014374877	0.148302954	0.045708411
2020-01-11T05:35:00	0.2574	3.920		0.659612673	0.829150202	0.014529517	0.149898349	0.046200127
2020-01-11T05:40:00	0.2578	3.914		0.660745176	0.830867186	0.014576265	0.150380637	0.046348773
2020-01-11T05:45:00	0.2594	3.909		0.666138263	0.839058698	0.014799961	0.152688470	0.047060069
2020-01-11T05:50:00	0.2596	3.902		0.666941243	0.840280469	0.014833420	0.153033660	0.047166460
2020-01-11T05:55:00	0.2603	3.899		0.669053517	0.843497035	0.014921625	0.153943649	0.047446928
2020-01-11T06:00:00	0.2612	3.893		0.672145787	0.848212844	0.015051247	0.155280937	0.047859093
2020-01-11T06:05:00	0.2615	3.891		0.672947440	0.849436731	0.015084947	0.155628612	0.047966250
2020-01-11T06:10:00	0.2620	3.885		0.674729443	0.852159302	0.015160000	0.156402927	0.048204901
2020-01-11T06:15:00	0.2619	3.876		0.674223387	0.851385864	0.015138666	0.156182831	0.048137065
2020-01-11T06:20:00	0.2610	3.874		0.671428316	0.847117946	0.015021119	0.154970118	0.047763295
2020-01-11T06:25:00	0.2614	3.873		0.672557135	0.848840782	0.015068534	0.155459287	0.047914062
2020-01-11T06:30:00	0.2613	3.871		0.672377801	0.848567004	0.015060996	0.155381519	0.047890093
2020-01-11T06:35:00	0.2615	3.871		0.673179403	0.849790973	0.015094705	0.155729291	0.047997280
2020-01-11T06:40:00	0.2600	3.868		0.668092483	0.842033100	0.014881460	0.153529275	0.047319214
2020-01-11T06:45:00	0.2603	3.865		0.669222339	0.843754282	0.014928686	0.154016502	0.047469382
2020-01-11T06:50:00	0.2603	3.861		0.669042840	0.843480766	0.014921178	0.153939043	0.047445508
2020-01-11T06:55:00	0.2609	3.857		0.671153893	0.846699279	0.015009604	0.154851320	0.047726681
2020-01-11T07:00:00	0.2609	3.854		0.670974489	0.846425611	0.015002079	0.154773682	0.047702752
2020-01-11T07:05:00	0.2603	3.850		0.669158948	0.843657685	0.014926034	0.153989144	0.047460950
2020-01-11T07:10:00	0.2622	3.845		0.675193127	0.852868174	0.015179561	0.156604737	0.048267101
2020-01-11T07:15:00	0.2609	3.844		0.671090536	0.846602629	0.015006946	0.154823899	0.047718229
2020-01-11T07:20:00	0.2612	3.843		0.671892421	0.847826144	0.015040604	0.155171138	0.047825252
2020-01-11T07:25:00	0.2608	3.840		0.670731714	0.846055318	0.014991898	0.154668652	0.047670381
2020-01-11T07:30:00	0.2607	3.839		0.670552289	0.845781684	0.014984377	0.154591053	0.047646464
2020-01-11T07:35:00	0.2603	3.838		0.669063860	0.843512794	0.014922057	0.153948112	0.047448303
2020-01-11T07:40:00	0.2608	3.836		0.670847768	0.846232323	0.014996764	0.154718854	0.047685854
2020-01-11T07:45:00	0.2609	3.835		0.670995498	0.846457657	0.015002960	0.154782772	0.047705554
2020-01-11T07:50:00	0.2609	3.836		0.671143222	0.846683001	0.015009157	0.154846701	0.047725257
2020-01-11T07:55:00	0.2616	3.838		0.673253055	0.849903460	0.015097804	0.155761265	0.048007134
2020-01-11T08:00:00	0.2615	3.841		0.673073755	0.849629627	0.015090260	0.155683432	0.047983146
2020-01-11T08:05:00	0.2615	3.842		0.672894446	0.849355808	0.015082718	0.155605617	0.047959162
2020-01-11T08:10:00	0.2615	3.841		0.673042093	0.849581275	0.015088928	0.155669690	0.047978910
2020-01-11T08:15:00	0.2614	3.844		0.672535802	0.848808213	0.015067637	0.155450035	0.047911211
2020-01-11T08:20:00	0.2618	3.849		0.673991157	0.851031007	0.015128882	0.156081883	0.048105952
2020-01-11T08:25:00	0.2612	3.853		0.672177123	0.848260674	0.015052563	0.155294520	0.047863279
2020-01-11T08:30:00	0.2628	3.857		0.677226711	0.855979263	0.015265508	0.157491435	0.048540390
2020-01-11T08:35:00	0.2626	3.861		0.676721002	0.855205268	0.015244111	0.157270687	0.048472353
2020-01-11T08:40:00	0.2637	3.865		0.680133093	0.860431791	0.015388786	0.158763269	0.048932381
2020-01-11T08:45:00	0.2637	3.869		0.680280447	0.860657728	0.015395050	0.158827894	0.048952299
2020-01-11T08:50:00	0.2637	3.876		0.680101493	0.860383341	0.015387443	0.158749411	0.048928110
2020-01-11T08:55:00	0.2648	3.886		0.683836421	0.866115778	0.015546623	0.160391647	0.049434263
2020-01-11T09:00:00	0.2663	3.890		0.688544353	0.873358756	0.015748503	0.162474399	0.050076188
2020-01-11T09:05:00	0.2650	3.896		0.684456766	0.867069060	0.015573146	0.160665273	0.049518597
2020-01-11T09:10:00	0.2665	3.901		0.689489393	0.874814974	0.015789192	0.162894185	0.050205570
2020-01-11T09:15:00	0.2679	3.906		0.693864986	0.881567423	0.015978309	0.164845271	0.050806914
2020-01-11T09:20:00	0.2688	3.909		0.696936319	0.886317034	0.016111766	0.166222116	0.051231270
2020-01-11T09:25:00	0.2698	3.914		0.700005084	0.891070845	0.016245697	0.167603857	0.051657137
2020-01-11T09:30:00	0.2704	3.921		0.702098329	0.894318174	0.016337389	0.168549834	0.051948696
2020-01-11T09:35:00	0.2706	3.931		0.702569137	0.895049080	0.016358050	0.168762989	0.052014392
2020-01-11T09:40:00	0.2703	3.942		0.701742538	0.893765954	0.016321785	0.168388846	0.051899078
2020-01-11T09:45:00	0.2705	3.957		0.702213392	0.894496785	0.016342437	0.168601914	0.051964747
2020-01-11T09:50:00	0.2704	3.970		0.702035506	0.894220659	0.016334633	0.168521402	0.051939933
2020-01-11T09:55:00	0.2701	3.976		0.700884332	0.892434392	0.016284178	0.168000863	0.051779497
2020-01-11T10:00:00	0.2703	3.985		0.701679709	0.893668449	0.016319030	0.168360426	0.051890318
2020-01-11T10:05:00	0.2706	3.992		0.702555141	0.895027350	0.016357436	0.168756650	0.052012439
2020-01-11T10:10:00	0.2708	3.995		0.703430365	0.896386593	0.016395880	0.169153273	0.052134682
2020-01-11T10:15:00	0.2714	4.004		0.705277756	0.899257821	0.016477184	0.169992069	0.052393207
2020-01-11T10:20:00	0.2709	4.015		0.703559378	0.896587009	0.016401551	0.169211779	0.052152714
2020-01-11T10:25:00	0.2705	4.023		0.702164568	0.894420994	0.016340295	0.168579814	0.051957936
2020-01-11T10:30:00	0.2714	4.029		0.705309140	0.899306624	0.016478567	0.170006338	0.052397604
2020-01-11T10:35:00	0.2724	4.034		0.708451030	0.904196676	0.016617337	0.171438007	0.052838859
2020-01-11T10:40:00	0.2721	4.037		0.707381983	0.902531842	0.016570051	0.170950158	0.052688499
2020-01-11T10:45:00	0.2720	4.043		0.707284471	0.902380036	0.016565741	0.170905697	0.052674796
2020-01-11T10:50:00	0.2731	4.049		0.710748294	0.907777590	0.016719193	0.172488834	0.053162734
2020-01-11T10:55:00	0.2737	4.056		0.712592022	0.910654871	0.016801179	0.173334667	0.053423428
2020-01-11T11:00:00	0.2740	4.064		0.713788216	0.912523211	0.016854485	0.173884611	0.053592926
2020-01-11T11:05:00	0.2738	4.076		0.713044129	0.911360872	0.016821316	0.173542412	0.053487457
2020-01-11T11:10:00	0.2751	4.089		0.717148694	0.917778637	0.017004716	0.175434525	0.054070624
2020-01-11T11:15:00	0.2751	4.093		0.717374476	0.918132090	0.017014836	0.175538921	0.054102800
2020-01-11T11:20:00	0.2744	4.093		0.715015324	0.914441133	0.016909261	0.174449729	0.053767101
2020-01-11T11:25:00	0.2740	4.100		0.713624842	0.912267963	0.016847199	0.173809446	0.053569759
2020-01-11T11:30:00	0.2750	4.110		0.716759663	0.917169729	0.016987288	0.175254722	0.054015207
2020-01-11T11:35:00	0.2758	4.120		0.719569013	0.921569867	0.017113357	0.176555349	0.054416073
2020-01-11T11:40:00	0.2763	4.131		0.721085665	0.923948187	0.017181622	0.177259630	0.054633139
2020-01-11T11:45:00	0.2771	4.142		0.723569269	0.927847170	0.017293723	0.178416152	0.054989591
2020-01-11T11:50:00	0.2754	4.152		0.718308740	0.919595114	0.017056741	0.175971256	0.054236050
2020-01-11T11:55:00	0.2709	4.164		0.703650158	0.896728040	0.016405542	0.169252953	0.052165404
2020-01-11T12:00:00	0.2700	4.170		0.700633282	0.892044992	0.016273186	0.167887456	0.051744544
2020-01-11T12:05:00	0.2686	4.166		0.696314663	0.885355025	0.016084706	0.165942946	0.051145228
2020-01-11T12:10:00	0.2687	4.166		0.696541726	0.885706364	0.016094587	0.166044885	0.051176646
2020-01-11T12:15:00	0.2700	4.158		0.700664705	0.892093730	0.016274561	0.167901648	0.051748919
2020-01-11T12:20:00	0.2710	4.151		0.703810560	0.896977251	0.016412595	0.169325718	0.052187831
2020-01-11T12:25:00	0.2711	4.168		0.704361336	0.897833143	0.016436826	0.169575700	0.052264878
2020-01-11T12:30:00	0.2702	4.183		0.701345044	0.893149136	0.016304361	0.168209085	0.051843674
2020-01-11T12:35:00	0.2707	4.186		0.702869201	0.895515015	0.016371225	0.168898915	0.052056286
2020-01-11T12:40:00	0.2704	4.184		0.702122907	0.894356325	0.016338468	0.168560958	0.051952124
2020-01-11T12:45:00	0.2695	4.182		0.699104777	0.889675336	0.016206343	0.167197858	0.051532004
2020-01-11T12:50:00	0.2694	4.189		0.698682396	0.889020873	0.016187898	0.167007562	0.051473353
2020-01-11T12:55:00	0.2697	4.198		0.699883114	0.890881747	0.016240362	0.167548824	0.051640175
2020-01-11T13:00:00	0.2692	4.206		0.698162213	0.888215081	0.016165197	0.166773361	0.051401170
2020-01-11T13:05:00	0.2680	4.215		0.694165763	0.882032193	0.015991353	0.164979839	0.050848389
2020-01-11T13:10:00	0.2675	4.214		0.692442177	0.879369914	0.015916684	0.164209492	0.050610960
2020-01-11T13:15:00	0.2667	4.194		0.690066982	0.875705364	0.015814088	0.163151030	0.050284732
2020-01-11T13:20:00	0.2675	4.193		0.692571576	0.879569697	0.015922283	0.164267260	0.050628765
2020-01-11T13:25:00	0.2663	4.199		0.688569022	0.873396759	0.015749564	0.162485349	0.050079563
2020-01-11T13:30:00	0.2664	4.208		0.689122091	0.874248904	0.015773371	0.162730961	0.050155263
2020-01-11T13:35:00	0.2669	4.220		0.690651334	0.876606474	0.015839296	0.163411101	0.050364888
2020-01-11T13:40:00	0.2675	4.229		0.692505164	0.879467160	0.015919409	0.164237610	0.050619626
2020-01-11T13:45:00	0.2665	4.229		0.689479108	0.874799121	0.015788749	0.162889613	0.050204161
2020-01-11T13:50:00	0.2666	4.227		0.689706594	0.875149769	0.015798552	0.162990746	0.050235331
2020-01-11T13:55:00	0.2668	4.226		0.690259491	0.876002193	0.015822390	0.163236684	0.050311131
2020-01-11T14:00:00	0.2674	4.221		0.692113520	0.878862557	0.015902467	0.164062816	0.050565753
2020-01-11T14:05:00	0.2679	4.211		0.693966610	0.881724447	0.015982716	0.164890731	0.050820925
2020-01-11T14:10:00	0.2683	4.208		0.695168872	0.883582797	0.016034894	0.165429050	0.050986840
2020-01-11T14:15:00	0.2690	4.204		0.697345216	0.886949984	0.016129577	0.166405877	0.051287907
2020-01-11T14:20:00	0.2684	4.201		0.695623124	0.884285266	0.016054633	0.165632685	0.051049602
2020-01-11T14:25:00	0.2691	4.198		0.697799199	0.887652893	0.016149365	0.166610025	0.051350828
2020-01-11T14:30:00	0.2695	4.197		0.699000206	0.889513294	0.016201776	0.167150735	0.051517480
2020-01-11T14:35:00	0.2697	4.195		0.699876277	0.890871147	0.016240063	0.167545739	0.051639224
2020-01-11T14:40:00	0.2696	4.189		0.699453985	0.890216538	0.016221602	0.167355274	0.051580521
2020-01-11T14:45:00	0.2705	4.182		0.702276542	0.894594818	0.016345208	0.168630502	0.051973558
2020-01-11T14:50:00	0.2717	4.177		0.706069101	0.900488643	0.016512076	0.170352047	0.052504155
2020-01-11T14:55:00	0.2724	4.173		0.708562813	0.904370815	0.016622286	0.171489061	0.052854594
2020-01-11T15:00:00	0.2724	4.167		0.708465333	0.904218957	0.016617971	0.171444539	0.052840872
2020-01-11T15:05:00	0.2731	4.161		0.710633828	0.907599054	0.016714110	0.172436394	0.053146571
2020-01-11T15:10:00	0.2733	4.157		0.711507135	0.908961462	0.016752911	0.172836696	0.053269948
2020-01-11T15:15:00	0.2733	4.152		0.711409732	0.908809475	0.016748581	0.172792025	0.053256180
2020-01-11T15:20:00	0.2726	4.145		0.709046766	0.905124853	0.016643719	0.171710185	0.052922747
2020-01-11T15:25:00	0.2725	4.137		0.708949299	0.904972974	0.016639402	0.171665639	0.052909017
2020-01-11T15:30:00	0.2725	4.131		0.708851829	0.904821099	0.016635084	0.171621097	0.052895289
2020-01-11T15:35:00	0.2729	4.125		0.710049235	0.906687429	0.016688163	0.172168706	0.053064067
2020-01-11T15:40:00	0.2730	4.119		0.710275451	0.907040160	0.016698201	0.172272265	0.053095985
2020-01-11T15:45:00	0.2723	4.113		0.708235595	0.903861097	0.016607802	0.171339636	0.052808540
2020-01-11T15:50:00	0.2733	4.103		0.711374992	0.908755269	0.016747037	0.172776093	0.053251270
2020-01-11T15:55:00	0.2729	4.094		0.709983138	0.906584375	0.016685231	0.172138454	0.053054743
2020-01-11T16:00:00	0.2736	4.088		0.712474206	0.910470921	0.016795934	0.173280552	0.053406749
2020-01-11T16:05:00	0.2737	4.081		0.712694485	0.910814861	0.016805742	0.173381738	0.053437936
2020-01-11T16:10:00	0.2741	4.073		0.713884860	0.912674214	0.016858795	0.173929083	0.053606633
2020-01-11T16:15:00	0.2741	4.066		0.714105055	0.913018293	0.016868619	0.174030431	0.053637869
2020-01-11T16:20:00	0.2742	4.058		0.714325238	0.913362394	0.016878445	0.174131805	0.053669113
2020-01-11T16:25:00	0.2733	4.050		0.711311301	0.908655892	0.016744206	0.172746888	0.053242268
2020-01-11T16:30:00	0.2730	4.043		0.710560923	0.907485350	0.016710873	0.172402998	0.053136278
2020-01-11T16:35:00	0.2713	4.035		0.704951934	0.898751211	0.016462829	0.169843972	0.052347562
2020-01-11T16:40:00	0.2702	4.027		0.701281509	0.893050559	0.016301577	0.168180362	0.051834821
2020-01-11T16:45:00	0.2694	4.013		0.698906223	0.889367665	0.016197671	0.167108389	0.051504428
2020-01-11T16:50:00	0.2691	3.999		0.697828587	0.887698401	0.016150647	0.166623245	0.051354902
2020-01-11T16:55:00	0.2702	3.989		0.701295510	0.893072281	0.016302190	0.168186692	0.051836772
2020-01-11T17:00:00	0.2688	3.984		0.696647028	0.885869316	0.016099170	0.166092172	0.051191220
2020-01-11T17:05:00	0.2688	3.976		0.696868257	0.886211692	0.016108802	0.166191539	0.051221846
2020-01-11T17:10:00	0.2681	3.967		0.694490113	0.882533477	0.016005425	0.165125018	0.050893134
2020-01-11T17:15:00	0.2684	3.958		0.695361445	0.883880575	0.016043261	0.165515361	0.051013442
2020-01-11T17:20:00	0.2683	3.948		0.695257798	0.883720301	0.016038757	0.165468904	0.050999123
2020-01-11T17:25:00	0.2690	3.934		0.697428278	0.887078576	0.016133197	0.166443218	0.051299416
2020-01-11T17:30:00	0.2693	3.915		0.698298913	0.888426814	0.016171161	0.166834890	0.051420133
2020-01-11T17:35:00	0.2691	3.896		0.697870628	0.887763503	0.016152480	0.166642157	0.051360731
2020-01-11T17:40:00	0.2681	3.876		0.694518165	0.882576836	0.016006642	0.165137578	0.050897005
2020-01-11T17:45:00	0.2678	3.854		0.693439240	0.880909680	0.015959856	0.164654891	0.050748237
2020-01-11T17:50:00	0.2688	3.834		0.696910308	0.886276776	0.016110633	0.166210430	0.051227669
2020-01-11T17:55:00	0.2699	3.812		0.700378097	0.891649236	0.016262016	0.167772223	0.051709028
2020-01-11T18:00:00	0.2707	3.790		0.702869863	0.895516042	0.016371254	0.168899215	0.052056378
2020-01-11T18:05:00	0.2723	3.768		0.708275462	0.903923195	0.016609567	0.171357838	0.052814150
2020-01-11T18:10:00	0.2729	3.746		0.710114634	0.906789399	0.016691065	0.172198642	0.053073294
2020-01-11T18:15:00	0.2726	3.725		0.709040276	0.905114739	0.016643432	0.171707218	0.052921832
2020-01-11T18:20:00	0.2735	3.703		0.712173200	0.910001007	0.016782536	0.173142335	0.053364149
2020-01-11T18:25:00	0.2744	3.682		0.714980252	0.914386298	0.016907694	0.174433563	0.053762118
2020-01-11T18:30:00	0.2739	3.660		0.713260602	0.911698975	0.016830962	0.173641929	0.053518129
2020-01-11T18:35:00	0.2742	3.638		0.714450794	0.913558632	0.016884049	0.174189626	0.053686934
2020-01-11T18:40:00	0.2755	3.616		0.718548020	0.919969942	0.017067483	0.176082075	0.054270206
2020-01-11T18:45:00	0.2754	3.594		0.718122081	0.919302753	0.017048365	0.175884834	0.054209414
2020-01-11T18:50:00	0.2764	3.572		0.721569991	0.924708102	0.017203453	0.177484848	0.054702554
2020-01-11T18:55:00	0.2755	3.547		0.718561955	0.919991772	0.017068109	0.176088530	0.054272195
2020-01-11T19:00:00	0.2762	3.524		0.720718760	0.923372645	0.017165094	0.177089115	0.054580585
2020-01-11T19:05:00	0.2764	3.499		0.721261246	0.924223653	0.017189535	0.177341260	0.054658299
2020-01-11T19:10:00	0.2769	3.476		0.723093971	0.927100587	0.017272240	0.178194514	0.054921280
2020-01-11T19:15:00	0.2763	3.449		0.721055402	0.923900711	0.017180259	0.177245562	0.054628804
2020-01-11T19:20:00	0.2770	3.419		0.723210756	0.927284010	0.017277517	0.178248958	0.054938060
2020-01-11T19:25:00	0.2763	3.395		0.721172250	0.924084026	0.017185524	0.177299882	0.054645546
2020-01-11T19:30:00	0.2757	3.373		0.719132623	0.920885920	0.017093742	0.176352981	0.054353701
2020-01-11T19:35:00	0.2760	3.348		0.719998149	0.922242607	0.017132658	0.176754474	0.054477445
2020-01-11T19:40:00	0.2763	3.324		0.721186175	0.924105873	0.017186151	0.177306356	0.054647541
2020-01-11T19:45:00	0.2771	3.302		0.723663941	0.927995902	0.017298004	0.178460317	0.055003203
2020-01-11T19:50:00	0.2765	3.280		0.721625685	0.924795500	0.017205964	0.177510757	0.054710539
2020-01-11T19:55:00	0.2761	3.255		0.720554668	0.923115282	0.017157705	0.177012883	0.054557090
2020-01-11T20:00:00	0.2768	3.231		0.722710313	0.926498094	0.017254909	0.178015715	0.054866172
2020-01-11T20:05:00	0.2768	3.209		0.722607432	0.926336553	0.017250263	0.177967785	0.054851400
2020-01-11T20:10:00	0.2768	3.188		0.722827110	0.926681496	0.017260184	0.178070137	0.054882945
2020-01-11T20:15:00	0.2782	3.168		0.727237264	0.933615395	0.017459993	0.180131528	0.055518286
2020-01-11T20:20:00	0.2777	3.148		0.725523298	0.930918573	0.017382193	0.179328885	0.055270904
2020-01-11T20:25:00	0.2775	3.123		0.725098160	0.930250044	0.017362924	0.179130091	0.055209634
2020-01-11T20:30:00	0.2767	3.096		0.722415583	0.926035340	0.017241602	0.177878425	0.054823858
2020-01-11T20:35:00	0.2741	3.070		0.713915804	0.912722566	0.016860176	0.173943324	0.053611022
2020-01-11T20:40:00	0.2745	3.043		0.715428992	0.915087976	0.016927748	0.174640454	0.053825884
2020-01-11T20:45:00	0.2737	3.021		0.712739397	0.910884990	0.016807742	0.173402372	0.053444295
2020-01-11T20:50:00	0.2734	3.001		0.711665803	0.909209063	0.016759966	0.172909478	0.053292380
2020-01-11T20:55:00	0.2738	2.983		0.712856509	0.911067867	0.016812958	0.173456184	0.053460880
2020-01-11T21:00:00	0.2748	2.965		0.716309327	0.916465034	0.016967126	0.175046709	0.053951096
2020-01-11T21:05:00	0.2755	2.946		0.718467445	0.919843717	0.017063865	0.176044754	0.054258703
2020-01-11T21:10:00	0.2760	2.929		0.719978771	0.922212227	0.017131786	0.176745480	0.054474673
2020-01-11T21:15:00	0.2756	2.911		0.718907277	0.920532804	0.017083617	0.176248529	0.054321508
2020-01-11T21:20:00	0.2754	2.895		0.718158441	0.919359700	0.017049996	0.175901667	0.054214602
2020-01-11T21:25:00	0.2765	2.878		0.721606317	0.924765106	0.017205090	0.177501746	0.054707762
2020-01-11T21:30:00	0.2774	2.859		0.724728621	0.929669072	0.017346185	0.178957390	0.055156406
2020-01-11T21:35:00	0.2761	2.843		0.720432353	0.922923457	0.017152199	0.176956071	0.054539580
2020-01-11T21:40:00	0.2758	2.822		0.719360990	0.921243815	0.017104005	0.176458867	0.054386336
2020-01-11T21:45:00	0.2754	2.800		0.718289317	0.919564691	0.017055870	0.175962263	0.054233278
2020-01-11T21:50:00	0.2744	2.781		0.714955393	0.914347433	0.016906584	0.174422106	0.053758587
2020-01-11T21:55:00	0.2746	2.761		0.715498725	0.915197031	0.016930865	0.174672616	0.053835797
2020-01-11T22:00:00	0.2741	2.743		0.714102639	0.913014516	0.016868511	0.174029319	0.053637526
2020-01-11T22:05:00	0.2737	2.725		0.712751815	0.910904381	0.016808295	0.173408078	0.053446054
2020-01-11T22:10:00	0.2741	2.708		0.713987947	0.912835293	0.016863394	0.173976526	0.053621255
2020-01-11T22:15:00	0.2743	2.693		0.714577188	0.913756194	0.016889692	0.174247843	0.053704878
2020-01-11T22:20:00	0.2739	2.677		0.713226539	0.911645770	0.016829444	0.173626268	0.053513302
2020-01-11T22:25:00	0.2748	2.661		0.716401660	0.916609505	0.016971259	0.175089348	0.053964237
2020-01-11T22:30:00	0.2735	2.648		0.712141508	0.909951536	0.016781126	0.173127786	0.053359665
2020-01-11T22:35:00	0.2736	2.631		0.712407603	0.910366937	0.016792969	0.173249964	0.053397321
2020-01-11T22:40:00	0.2741	2.616		0.713967183	0.912802848	0.016862468	0.173966970	0.053618310
2020-01-11T22:45:00	0.2740	2.603		0.713586496	0.912208057	0.016845489	0.173791807	0.053564323
2020-01-11T22:50:00	0.2735	2.589		0.711911999	0.909593297	0.016770915	0.173022443	0.053327197
2020-01-11T22:55:00	0.2732	2.575		0.711207553	0.908494023	0.016739595	0.172699320	0.053227608
2020-01-11T23:00:00	0.2729	2.560		0.710179336	0.906890285	0.016693936	0.172228261	0.053082423
2020-01-11T23:05:00	0.2727	2.545		0.709474559	0.905791558	0.016662678	0.171905775	0.052983029
2020-01-11T23:10:00	0.2714	2.530		0.705206398	0.899146860	0.016474039	0.169959629	0.052383208
2020-01-11T23:15:00	0.2713	2.516		0.704824806	0.898553568	0.016457230	0.169786207	0.052329758
2020-01-11T23:20:00	0.2712	2.503		0.704443175	0.897960341	0.016440428	0.169612860	0.052276331
2020-01-11T23:25:00	0.2707	2.489		0.703088807	0.895856066	0.016380871	0.168998431	0.052086958
2020-01-11T23:30:00	0.2695	2.475		0.699137868	0.889726616	0.016207789	0.167212772	0.051536600
2020-01-11T23:35:00	0.2710	2.461		0.703946499	0.897188472	0.016418574	0.169387399	0.052206841
2020-01-11T23:40:00	0.2707	2.446		0.702916253	0.895588084	0.016373292	0.168920234	0.052062857
2020-01-11T23:45:00	0.2702	2.433		0.701236899	0.892981345	0.016299622	0.168160196	0.051828606
2020-01-11T23:50:00	0.2706	2.420		0.702801212	0.895409436	0.016368240	0.168868112	0.052046792
2020-01-11T23:55:00	0.2704	2.406		0.702095023	0.894313041	0.016337244	0.168548337	0.051948234
2020-01-12T00:00:00	0.2705	2.392		0.702361843	0.894727243	0.016348952	0.168669120	0.051985461
2020-01-12T00:05:00	0.2711	2.380		0.704249866	0.897659900	0.016431920	0.169525091	0.052249279
2020-01-12T00:10:00	0.2711	2.368		0.704192367	0.897570541	0.016429390	0.169498989	0.052241234
2020-01-12T00:15:00	0.2709	2.356		0.703486444	0.896473707	0.016398345	0.169178703	0.052142519
2020-01-12T00:20:00	0.2700	2.344		0.700834057	0.892356407	0.016281976	0.167978149	0.051772497
2020-01-12T00:25:00	0.2695	2.332		0.699153752	0.889751231	0.016208483	0.167219930	0.051538807
2020-01-12T00:30:00	0.2706	2.320		0.702665341	0.895198455	0.016362274	0.168806562	0.052027822
2020-01-12T00:35:00	0.2707	2.308		0.702932120	0.895612725	0.016373989	0.168927424	0.052065073
2020-01-12T00:40:00	0.2712	2.295		0.704495713	0.898042002	0.016442740	0.169636719	0.052283684
2020-01-12T00:45:00	0.2717	2.283		0.706058642	0.900472372	0.016511615	0.170347287	0.052502688
2020-01-12T00:50:00	0.2721	2.271		0.707620908	0.902903836	0.016580613	0.171059126	0.052722084
2020-01-12T00:55:00	0.2721	2.258		0.707563462	0.902814390	0.016578073	0.171032923	0.052714008
2020-01-12T01:00:00	0.2730	2.246		0.710419840	0.907265322	0.016704610	0.172338382	0.053116363
2020-01-12T01:05:00	0.2734	2.235		0.711656752	0.909194939	0.016759563	0.172905326	0.053291101
2020-01-12T01:10:00	0.2743	2.224		0.714509964	0.913651117	0.016886691	0.174216878	0.053695334
2020-01-12T01:15:00	0.2732	2.213		0.711218438	0.908511004	0.016740079	0.172704310	0.053229146
2020-01-12T01:20:00	0.2721	2.201		0.707600109	0.902871450	0.016579693	0.171049638	0.052719160
2020-01-12T01:25:00	0.2714	2.188		0.705274783	0.899253197	0.016477053	0.169990717	0.052392790
2020-01-12T01:30:00	0.2706	2.180		0.702623686	0.895133777	0.016360445	0.168787695	0.052022007
2020-01-12T01:35:00	0.2701	2.174		0.700944198	0.892527257	0.016286800	0.168027912	0.051787834
2020-01-12T01:40:00	0.2689	2.166		0.696990952	0.886401594	0.016114145	0.166246662	0.051238836
2020-01-12T01:45:00	0.2688	2.159		0.696933339	0.886312422	0.016111636	0.166220777	0.051230858
2020-01-12T01:50:00	0.2693	2.153		0.698499485	0.888737507	0.016179914	0.166925191	0.051447965
2020-01-12T01:55:00	0.2692	2.148		0.698117197	0.888145360	0.016163234	0.166753102	0.051394925
2020-01-12T02:00:00	0.2689	2.144		0.697085315	0.886547655	0.016118255	0.166289063	0.051251904
2020-01-12T02:05:00	0.2686	2.140		0.696053144	0.884950425	0.016073330	0.165825578	0.051109054
2020-01-12T02:10:00	0.2693	2.136		0.698593810	0.888883632	0.016184031	0.166967666	0.051461056
2020-01-12T02:15:00	0.2697	2.131		0.699834701	0.890806691	0.016238245	0.167526982	0.051633443
2020-01-12T02:20:00	0.2683	2.125		0.695230377	0.883677900	0.016037566	0.165456614	0.050995335
2020-01-12T02:25:00	0.2691	2.121		0.697771613	0.887610176	0.016148163	0.166597616	0.051347003
2020-01-12T02:30:00	0.2691	2.115		0.697714013	0.887520983	0.016145651	0.166571708	0.051339018
2020-01-12T02:35:00	0.2685	2.107		0.695707366	0.884415559	0.016058294	0.165670463	0.051061246
2020-01-12T02:40:00	0.2698	2.098		0.700195969	0.891366815	0.016254047	0.167690005	0.051683688
2020-01-12T02:45:00	0.2694	2.087		0.698840036	0.889265112	0.016194781	0.167078571	0.051495238
2020-01-12T02:50:00	0.2702	2.075		0.701378776	0.893201475	0.016305839	0.168224336	0.051848374
2020-01-12T02:55:00	0.2700	2.066		0.700672313	0.892105529	0.016274894	0.167905085	0.051749978
2020-01-12T03:00:00	0.2705	2.056		0.702236867	0.894533226	0.016343467	0.168612541	0.051968023
2020-01-12T03:05:00	0.2709	2.045		0.703476528	0.896458304	0.016397909	0.169174206	0.052141133
2020-01-12T03:10:00	0.2701	2.034		0.701148595	0.892844345	0.016295753	0.168120282	0.051816304
2020-01-12T03:15:00	0.2698	2.024		0.700117565	0.891245245	0.016250617	0.167654618	0.051672781
2020-01-12T03:20:00	0.2701	2.012		0.701033499	0.892665789	0.016290711	0.168068265	0.051800272
2020-01-12T03:25:00	0.2694	2.002		0.698704018	0.889054372	0.016188842	0.167017301	0.051476354
2020-01-12T03:30:00	0.2693	1.990		0.698321751	0.888462189	0.016172158	0.166845171	0.051423302
2020-01-12T03:35:00	0.2697	1.979		0.699887305	0.890888244	0.016240546	0.167550715	0.051640757
2020-01-12T03:40:00	0.2695	1.967		0.699180555	0.889792769	0.016209654	0.167232011	0.051542530
2020-01-12T03:45:00	0.2696	1.955		0.699447588	0.890206623	0.016221322	0.167352389	0.051579632
2020-01-12T03:50:00	0.2691	1.942		0.697766648	0.887602486	0.016147946	0.166595383	0.051346315
2020-01-12T03:55:00	0.2691	1.930		0.697709047	0.887513294	0.016145435	0.166569475	0.051338330
2020-01-12T04:00:00	0.2687	1.921		0.696352195	0.885413096	0.016086339	0.165959794	0.051150420
2020-01-12T04:05:00	0.2691	1.913		0.697682895	0.887472800	0.016144295	0.166557712	0.051334705
2020-01-12T04:10:00	0.2693	1.904		0.698363786	0.888527300	0.016173992	0.166864094	0.051429134
2020-01-12T04:15:00	0.2675	1.893		0.692546161	0.879530456	0.015921183	0.164255913	0.050625268
2020-01-12T04:20:00	0.2690	1.881		0.697452482	0.887116049	0.016134252	0.166454100	0.051302770
2020-01-12T04:25:00	0.2693	1.872		0.698458114	0.888673419	0.016178108	0.166906563	0.051442224
2020-01-12T04:30:00	0.2696	1.863		0.699463470	0.890231240	0.016222016	0.167359551	0.051581839
2020-01-12T04:35:00	0.2699	1.854		0.700468551	0.891789511	0.016265975	0.167813064	0.051721616
2020-01-12T04:40:00	0.2701	1.843		0.701148926	0.892844858	0.016295768	0.168120431	0.051816350
2020-01-12T04:45:00	0.2704	1.833		0.702153546	0.894403886	0.016339812	0.168574825	0.051956398
2020-01-12T04:50:00	0.2710	1.824		0.703806373	0.896970746	0.016412411	0.169323819	0.052187245
2020-01-12T04:55:00	0.2710	1.815		0.703837770	0.897019529	0.016413792	0.169338064	0.052191636
2020-01-12T05:00:00	0.2712	1.807		0.704517522	0.898075899	0.016443700	0.169646623	0.052286737
2020-01-12T05:05:00	0.2703	1.794		0.701630437	0.893591986	0.016316870	0.168338140	0.051883450
2020-01-12T05:10:00	0.2706	1.785		0.702634926	0.895151230	0.016360938	0.168792786	0.052023576
2020-01-12T05:15:00	0.2706	1.777		0.702666333	0.895199995	0.016362317	0.168807011	0.052027960
2020-01-12T05:20:00	0.2709	1.771		0.703670539	0.896759704	0.016406438	0.169262198	0.052168253
2020-01-12T05:25:00	0.2712	1.761		0.704674471	0.898319864	0.016450610	0.169717910	0.052308708
2020-01-12T05:30:00	0.2715	1.751		0.705678130	0.899880475	0.016494832	0.170174146	0.052449325
2020-01-12T05:35:00	0.2712	1.741		0.704737249	0.898417454	0.016453374	0.169746428	0.052317498
2020-01-12T05:40:00	0.2710	1.732		0.703796128	0.896954828	0.016411960	0.169319171	0.052185813
2020-01-12T05:45:00	0.2719	1.723		0.706744259	0.901539183	0.016541877	0.170659491	0.052598912
2020-01-12T05:50:00	0.2726	1.715		0.709042586	0.905118339	0.016643534	0.171708274	0.052922158
2020-01-12T05:55:00	0.2725	1.709		0.708750175	0.904662716	0.016630582	0.171574651	0.052880974
2020-01-12T06:00:00	0.2723	1.703		0.708133924	0.903702742	0.016603304	0.171293222	0.052794235
2020-01-12T06:05:00	0.2726	1.694		0.709136641	0.905264907	0.016647701	0.171751266	0.052935408
2020-01-12T06:10:00	0.2712	1.684		0.704632839	0.898255148	0.016448777	0.169698999	0.052302880
2020-01-12T06:15:00	0.2707	1.678		0.703043190	0.895785218	0.016378868	0.168977757	0.052080586
2020-01-12T06:20:00	0.2715	1.671		0.705667890	0.899864548	0.016494381	0.170169488	0.052447889
2020-01-12T06:25:00	0.2716	1.660		0.706023301	0.900417393	0.016510056	0.170331202	0.052497731
2020-01-12T06:30:00	0.2710	1.648		0.703785883	0.896938910	0.016411510	0.169314523	0.052184380
2020-01-12T06:35:00	0.2703	1.637		0.701547103	0.893462668	0.016313217	0.168300451	0.051871834
2020-01-12T06:40:00	0.2707	1.626		0.702875923	0.895525454	0.016371521	0.168901961	0.052057225
2020-01-12T06:45:00	0.2707	1.614		0.702907328	0.895574223	0.016372900	0.168916190	0.052061610
2020-01-12T06:50:00	0.2705	1.605		0.702290098	0.894615862	0.016345803	0.168636638	0.051975450
2020-01-12T06:55:00	0.2710	1.594		0.703942864	0.897182824	0.016418414	0.169385749	0.052206333
2020-01-12T07:00:00	0.2717	1.583		0.706242939	0.900759095	0.016519746	0.170431179	0.052528544
2020-01-12T07:05:00	0.2712	1.572		0.704653985	0.898288020	0.016449708	0.169708604	0.052305840
2020-01-12T07:10:00	0.2726	1.560		0.709220463	0.905395537	0.016651416	0.171789586	0.052947219
2020-01-12T07:15:00	0.2718	1.550		0.706661040	0.901409674	0.016538202	0.170621580	0.052587228
2020-01-12T07:20:00	0.2723	1.539		0.708311846	0.903979867	0.016611177	0.171374450	0.052819270
2020-01-12T07:25:00	0.2731	1.531		0.710609196	0.907560638	0.016713017	0.172425110	0.053143094
2020-01-12T07:30:00	0.2736	1.521		0.712258236	0.910133753	0.016786321	0.173181376	0.053376182
2020-01-12T07:35:00	0.2740	1.512		0.713583200	0.912202908	0.016845342	0.173790290	0.053563855
2020-01-12T07:40:00	0.2757	1.503		0.719107390	0.920846378	0.017092608	0.176341284	0.054350096
2020-01-12T07:45:00	0.2763	1.495		0.721075358	0.923932018	0.017181158	0.177254838	0.054631663
2020-01-12T07:50:00	0.2767	1.489		0.722397169	0.926006430	0.017240770	0.177869850	0.054821215
2020-01-12T07:55:00	0.2774	1.484		0.724685790	0.929601743	0.017344245	0.178937379	0.055150238
2020-01-12T08:00:00	0.2771	1.479		0.723749736	0.928130693	0.017301884	0.178500345	0.055015540
2020-01-12T08:05:00	0.2774	1.477		0.724748229	0.929699895	0.017347073	0.178966551	0.055159229
2020-01-12T08:10:00	0.2777	1.475		0.725746453	0.931269548	0.017392312	0.179433280	0.055303079
2020-01-12T08:15:00	0.2780	1.472		0.726422188	0.932332601	0.017422972	0.179749593	0.055400570
2020-01-12T08:20:00	0.2787	1.469		0.728708329	0.935932079	0.017526914	0.180821944	0.055731079
2020-01-12T08:25:00	0.2785	1.466		0.728095392	0.934966575	0.017499014	0.180534103	0.055642364
2020-01-12T08:30:00	0.2782	1.464		0.727160198	0.933494081	0.017456491	0.180095397	0.055507151
2020-01-12T08:35:00	0.2782	1.464		0.727191397	0.933543192	0.017457908	0.180110024	0.055511659
2020-01-12T08:40:00	0.2788	1.465		0.729155082	0.936636017	0.017547265	0.181031898	0.055795789
2020-01-12T08:45:00	0.2792	1.469		0.730474019	0.938715257	0.017607419	0.181652497	0.055987064
2020-01-12T08:50:00	0.2796	1.475		0.731792489	0.940795287	0.017667662	0.182274008	0.056178620
2020-01-12T08:55:00	0.2794	1.479		0.731180061	0.939828925	0.017639665	0.181985176	0.056089599
2020-01-12T09:00:00	0.2797	1.484		0.732176559	0.941401485	0.017685231	0.182455267	0.056234485
2020-01-12T09:05:00	0.2799	1.493		0.732529435	0.941958563	0.017701381	0.182621889	0.056285840
2020-01-12T09:10:00	0.2806	1.501		0.734811826	0.945564371	0.017806033	0.183701557	0.056618604
2020-01-12T09:15:00	0.2809	1.510		0.735807352	0.947138575	0.017851782	0.184173547	0.056764076
2020-01-12T09:20:00	0.2809	1.527		0.735838479	0.947187809	0.017853214	0.184188315	0.056768627
2020-01-12T09:25:00	0.2816	1.546		0.738118845	0.950797050	0.017958249	0.185271947	0.057102614
2020-01-12T09:30:00	0.2825	1.562		0.741039816	0.955426895	0.018093273	0.186664961	0.057531954
2020-01-12T09:35:00	0.2827	1.581		0.741712782	0.956494635	0.018124458	0.186986690	0.057631114
2020-01-12T09:40:00	0.2825	1.597		0.741101982	0.955525511	0.018096152	0.186694668	0.057541110
2020-01-12T09:45:00	0.2831	1.605		0.743058350	0.958630736	0.018186897	0.187630862	0.057829654
2020-01-12T09:50:00	0.2829	1.606		0.742447770	0.957661237	0.018158550	0.187338408	0.057739517
2020-01-12T09:55:00	0.2821	1.610		0.739911173	0.953637064	0.018041037	0.186126049	0.057365856
2020-01-12T10:00:00	0.2818	1.618		0.738657780	0.951650716	0.017983121	0.185528546	0.057181700
2020-01-12T10:05:00	0.2805	1.625		0.734480143	0.945040082	0.017790804	0.183544446	0.056570181
2020-01-12T10:10:00	0.2790	1.630		0.729653964	0.937422300	0.017570005	0.181266503	0.055868097
2020-01-12T10:15:00	0.2776	1.638		0.725143870	0.930321916	0.017364996	0.179151460	0.055216220
2020-01-12T10:20:00	0.2769	1.649		0.722886767	0.926775179	0.017262879	0.178097937	0.054891514
2020-01-12T10:25:00	0.2751	1.664		0.717076467	0.917665579	0.017001480	0.175401136	0.054060333
2020-01-12T10:30:00	0.2735	1.680		0.711904084	0.909580945	0.016770563	0.173018811	0.053326078
2020-01-12T10:35:00	0.2733	1.696		0.711257027	0.908571212	0.016741794	0.172722002	0.053234599
2020-01-12T10:40:00	0.2733	1.712		0.711257027	0.908571212	0.016741794	0.172722002	0.053234599
2020-01-12T10:45:00	0.2730	1.727		0.710286228	0.907056965	0.016698680	0.172277200	0.053097506
2020-01-12T10:50:00	0.2722	1.741		0.707696182	0.903021042	0.016583941	0.171093463	0.052732667
2020-01-12T10:55:00	0.2708	1.758		0.703159215	0.895965418	0.016383965	0.169030344	0.052096794
2020-01-12T11:00:00	0.2694	1.774		0.698616646	0.888919010	0.016185028	0.166977950	0.051464226
2020-01-12T11:05:00	0.2684	1.792		0.695368512	0.883891503	0.016043568	0.165518529	0.051014418
2020-01-12T11:10:00	0.2674	1.810		0.692117498	0.878868698	0.015902639	0.164064592	0.050566300
2020-01-12T11:15:00	0.2673	1.826		0.691792238	0.878366676	0.015888575	0.163919500	0.050521582
2020-01-12T11:20:00	0.2659	1.842		0.687235561	0.871343306	0.015692243	0.161893978	0.049897296
2020-01-12T11:25:00	0.2659	1.855		0.687235561	0.871343306	0.015692243	0.161893978	0.049897296
2020-01-12T11:30:00	0.2657	1.865		0.686584144	0.870340720	0.015664281	0.161605497	0.049808384
2020-01-12T11:35:00	0.2645	1.879		0.682673198	0.864329152	0.015496955	0.159879228	0.049276331
2020-01-12T11:40:00	0.2637	1.894		0.680063572	0.860325201	0.015385831	0.158732783	0.048922985
2020-01-12T11:45:00	0.2626	1.909		0.676472283	0.854824682	0.015233594	0.157162177	0.048438909
2020-01-12T11:50:00	0.2620	1.926		0.674511904	0.851826797	0.015150827	0.156308294	0.048175734
2020-01-12T11:55:00	0.2616	1.937		0.673204398	0.849829147	0.015095757	0.155740141	0.048000624
2020-01-12T12:00:00	0.2626	1.950		0.676472283	0.854824682	0.015233594	0.157162177	0.048438909
2020-01-12T12:05:00	0.2605	1.964		0.669606330	0.844339489	0.014944754	0.154182274	0.047520474
2020-01-12T12:10:00	0.2590	1.984		0.664694121	0.836862760	0.014739885	0.152068681	0.046869044
2020-01-12T12:15:00	0.2590	2.007		0.664694121	0.836862760	0.014739885	0.152068681	0.046869044
2020-01-12T12:20:00	0.2590	2.033		0.664694121	0.836862760	0.014739885	0.152068681	0.046869044
2020-01-12T12:25:00	0.2584	2.056		0.662727372	0.833875031	0.014658276	0.151226727	0.046609546
2020-01-12T12:30:00	0.2574	2.080		0.659447083	0.828899243	0.014522688	0.149827899	0.046178414
2020-01-12T12:35:00	0.2564	2.101		0.656163816	0.823928157	0.014387638	0.148434610	0.045748988
2020-01-12T12:40:00	0.2556	2.124		0.653535053	0.819954674	0.014279985	0.147323971	0.045406679
2020-01-12T12:45:00	0.2562	2.145		0.655506805	0.822934504	0.014360693	0.148156617	0.045663308
2020-01-12T12:50:00	0.2564	2.167		0.656163816	0.823928157	0.014387638	0.148434610	0.045748988
2020-01-12T12:55:00	0.2548	2.186		0.650904374	0.815984200	0.014172676	0.146216883	0.045065463
2020-01-12T13:00:00	0.2553	2.202		0.652548773	0.818465393	0.014239704	0.146908396	0.045278595
2020-01-12T13:05:00	0.2548	2.216		0.650904374	0.815984200	0.014172676	0.146216883	0.045065463
2020-01-12T13:10:00	0.2539	2.229		0.647942564	0.811521013	0.014052365	0.144975658	0.044682906
2020-01-12T13:15:00	0.2532	2.240		0.645637249	0.808052278	0.013959091	0.144013373	0.044386320
2020-01-12T13:20:00	0.2529	2.252		0.644648805	0.806566383	0.013919198	0.143601800	0.044259469
2020-01-12T13:25:00	0.2520	2.263		0.641681841	0.802111236	0.013799809	0.142370085	0.043879843
2020-01-12T13:30:00	0.2508	2.274		0.637722073	0.796176965	0.013641304	0.140734817	0.043375837
2020-01-12T13:35:00	0.2501	2.285		0.635410190	0.792718433	0.013549202	0.139784619	0.043082977
2020-01-12T13:40:00	0.2499	2.292		0.634749378	0.791730704	0.013522936	0.139513635	0.042999457
2020-01-12T13:45:00	0.2509	2.298		0.638052221	0.796671229	0.013654483	0.140870783	0.043417743
2020-01-12T13:50:00	0.2504	2.305		0.636401179	0.794200379	0.013588642	0.140191512	0.043208385
2020-01-12T13:55:00	0.2496	2.313		0.633757931	0.790249464	0.013483577	0.139107579	0.042874307
2020-01-12T14:00:00	0.2492	2.321		0.632435575	0.788275135	0.013431175	0.138566953	0.042707681
2020-01-12T14:05:00	0.2492	2.328		0.632435575	0.788275135	0.013431175	0.138566953	0.042707681
2020-01-12T14:10:00	0.2486	2.335		0.630451125	0.785315052	0.013352733	0.137757689	0.042458258
2020-01-12T14:15:00	0.2487	2.340		0.630781943	0.785808281	0.013365793	0.137892427	0.042499785
2020-01-12T14:20:00	0.2482	2.343		0.629127546	0.783342603	0.013300548	0.137219298	0.042292320
2020-01-12T14:25:00	0.2477	2.347		0.627472384	0.780878101	0.013235437	0.136547567	0.042085286
2020-01-12T14:30:00	0.2484	2.350		0.629789397	0.784328733	0.013326630	0.137488382	0.042375255
2020-01-12T14:35:00	0.2478	2.349		0.627803478	0.781370907	0.013248449	0.136681801	0.042126659
2020-01-12T14:40:00	0.2468	2.349		0.624491159	0.776444958	0.013118581	0.135341977	0.041713712
2020-01-12T14:45:00	0.2464	2.346		0.623165370	0.774475895	0.013066785	0.134807615	0.041549016
2020-01-12T14:50:00	0.2462	2.344		0.622502291	0.773491645	0.013040920	0.134540770	0.041466772
2020-01-12T14:55:00	0.2465	2.340		0.623496863	0.774968090	0.013079726	0.134941121	0.041590164
2020-01-12T15:00:00	0.2489	2.334		0.631443487	0.786794882	0.013391930	0.138162070	0.042582892
2020-01-12T15:05:00	0.2511	2.331		0.638712425	0.797659898	0.013680857	0.141142882	0.043501607
2020-01-12T15:10:00	0.2529	2.330		0.644648805	0.806566383	0.013919198	0.143601800	0.044259469
2020-01-12T15:15:00	0.2539	2.327		0.647942564	0.811521013	0.014052365	0.144975658	0.044682906
2020-01-12T15:20:00	0.2543	2.323		0.649259224	0.813504181	0.014105783	0.145526758	0.044852760
2020-01-12T15:25:00	0.2559	2.320		0.654521063	0.821444378	0.014320314	0.147740044	0.045534917
2020-01-12T15:30:00	0.2572	2.317		0.658790668	0.827904650	0.014495635	0.149548798	0.046092392
2020-01-12T15:35:00	0.2569	2.313		0.657805822	0.826413113	0.014455096	0.149130562	0.045963487
2020-01-12T15:40:00	0.2572	2.308		0.658790668	0.827904650	0.014495635	0.149548798	0.046092392
2020-01-12T15:45:00	0.2584	2.302		0.662727372	0.833875031	0.014658276	0.151226727	0.046609546
2020-01-12T15:50:00	0.2584	2.298		0.662727372	0.833875031	0.014658276	0.151226727	0.046609546
2020-01-12T15:55:00	0.2596	2.292		0.666659803	0.839852182	0.014821688	0.152912626	0.047129156
2020-01-12T16:00:00	0.2594	2.287		0.666004694	0.838855520	0.014794399	0.152631090	0.047042384
2020-01-12T16:05:00	0.2597	2.280		0.666993174	0.840359503	0.014835585	0.153055998	0.047173345
2020-01-12T16:10:00	0.2592	2.273		0.665361193	0.837876877	0.014767619	0.152354807	0.046957231
2020-01-12T16:15:00	0.2596	2.268		0.666677386	0.839878939	0.014822421	0.152920186	0.047131487
2020-01-12T16:20:00	0.2583	2.261		0.662422950	0.833412872	0.014645665	0.151096625	0.046569447
2020-01-12T16:25:00	0.2569	2.255		0.657835200	0.826457593	0.014456305	0.149143029	0.045967330
2020-01-12T16:30:00	0.2590	2.248		0.664729307	0.836916243	0.014741348	0.152083767	0.046873694
2020-01-12T16:35:00	0.2596	2.242		0.666700831	0.839914614	0.014823398	0.152930267	0.047134594
2020-01-12T16:40:00	0.2588	2.234		0.664085580	0.835937959	0.014714609	0.151807907	0.046788671
2020-01-12T16:45:00	0.2596	2.223		0.666712554	0.839932452	0.014823887	0.152935308	0.047136147
2020-01-12T16:50:00	0.2608	2.213		0.670646523	0.845925394	0.014988327	0.154631805	0.047659024
2020-01-12T16:55:00	0.2590	2.207		0.664758629	0.836960812	0.014742566	0.152096338	0.046877569
2020-01-12T17:00:00	0.2592	2.199		0.665419826	0.837966032	0.014770058	0.152379970	0.046964987
2020-01-12T17:05:00	0.2583	2.189		0.662475762	0.833493043	0.014647852	0.151119191	0.046576402
2020-01-12T17:10:00	0.2586	2.180		0.663465205	0.834995499	0.014688864	0.151542302	0.046706809
2020-01-12T17:15:00	0.2565	2.170		0.656580442	0.824558446	0.014404739	0.148611032	0.045803363
2020-01-12T17:20:00	0.2562	2.159		0.655600873	0.823076749	0.014364549	0.148196402	0.045675570
2020-01-12T17:25:00	0.2565	2.151		0.656592197	0.824576232	0.014405221	0.148616012	0.045804898
2020-01-12T17:30:00	0.2565	2.141		0.656598075	0.824585125	0.014405463	0.148618502	0.045805666
2020-01-12T17:35:00	0.2559	2.132		0.654632800	0.821613245	0.014324888	0.147787233	0.045549461
2020-01-12T17:40:00	0.2560	2.119		0.654967280	0.822118812	0.014338585	0.147928539	0.045593012
2020-01-12T17:45:00	0.2569	2.112		0.657929208	0.826599933	0.014460172	0.149182926	0.045979627
2020-01-12T17:50:00	0.2562	2.105		0.655636148	0.823130091	0.014365995	0.148211323	0.045680169
2020-01-12T17:55:00	0.2542	2.097		0.649065573	0.813212409	0.014097919	0.145445635	0.044827757
2020-01-12T18:00:00	0.2540	2.087		0.648413159	0.812229658	0.014071445	0.145172504	0.044743576
2020-01-12T18:05:00	0.2543	2.081		0.649406460	0.813726040	0.014111762	0.145588452	0.044871775
2020-01-12T18:10:00	0.2533	2.084		0.646119935	0.808778185	0.013978594	0.144214579	0.044448334
2020-01-12T18:15:00	0.2545	2.089		0.650076359	0.814735701	0.014138987	0.145869325	0.044958343
2020-01-12T18:20:00	0.2545	2.094		0.650082247	0.814744577	0.014139227	0.145871795	0.044959104
2020-01-12T18:25:00	0.2534	2.099		0.646466994	0.809300248	0.013992626	0.144359341	0.044492951
2020-01-12T18:30:00	0.2549	2.102		0.651409898	0.816746728	0.014193264	0.146429288	0.045130929
2020-01-12T18:35:00	0.2550	2.109		0.651744678	0.817251825	0.014206907	0.146570040	0.045174310
2020-01-12T18:40:00	0.2548	2.117		0.651092748	0.816268315	0.014180346	0.146296013	0.045089852
2020-01-12T18:45:00	0.2548	2.123		0.651098634	0.816277194	0.014180585	0.146298486	0.045090614
2020-01-12T18:50:00	0.2558	2.130		0.654392388	0.821249922	0.014315048	0.147685711	0.045518171
2020-01-12T18:55:00	0.2562	2.138		0.655712575	0.823245669	0.014369129	0.148243653	0.045690134
2020-01-12T19:00:00	0.2559	2.145		0.654732771	0.821764342	0.014328981	0.147829460	0.045562475
2020-01-12T19:05:00	0.2567	2.153		0.657366539	0.825748091	0.014437033	0.148944208	0.045906051
2020-01-12T19:10:00	0.2561	2.161		0.655401682	0.822775553	0.014356384	0.148112163	0.045649607
2020-01-12T19:15:00	0.2560	2.168		0.655079002	0.822287701	0.014343162	0.147975753	0.045607564
2020-01-12T19:20:00	0.2564	2.175		0.656398939	0.824283843	0.014397287	0.148534161	0.045779671
2020-01-12T19:25:00	0.2568	2.182		0.657718394	0.826280743	0.014451500	0.149093463	0.045952053
2020-01-12T19:30:00	0.2575	2.188		0.660021878	0.829770469	0.014546399	0.150072520	0.046253808
2020-01-12T19:35:00	0.2574	2.194		0.659699610	0.829281968	0.014533103	0.149935344	0.046211529
2020-01-12T19:40:00	0.2578	2.197		0.661017861	0.831280768	0.014587533	0.150496884	0.046384601
2020-01-12T19:45:00	0.2588	2.205		0.664302594	0.836267719	0.014723620	0.151900875	0.046817325
2020-01-12T19:50:00	0.2587	2.216		0.663980707	0.835778614	0.014710255	0.151762990	0.046774827
2020-01-12T19:55:00	0.2593	2.230		0.665952638	0.838776339	0.014792232	0.152608730	0.047035493
2020-01-12T20:00:00	0.2597	2.255		0.667268616	0.840778742	0.014847073	0.153174510	0.047209872
2020-01-12T20:05:00	0.2593	2.272		0.665964362	0.838794173	0.014792720	0.152613766	0.047037045
2020-01-12T20:10:00	0.2601	2.287		0.668589976	0.842790827	0.014902244	0.153743709	0.047385304
2020-01-12T20:15:00	0.2602	2.306		0.668923170	0.843298431	0.014916173	0.153887412	0.047429595
2020-01-12T20:20:00	0.2603	2.323		0.669256333	0.843806083	0.014930108	0.154031173	0.047473904
2020-01-12T20:25:00	0.2613	2.338		0.672206607	0.848305678	0.015053802	0.155307300	0.047867218
2020-01-12T20:30:00	0.2610	2.356		0.671231254	0.846817296	0.015012850	0.154884804	0.047737001
2020-01-12T20:35:00	0.2621	2.373		0.674833563	0.852318462	0.015164391	0.156448231	0.048218864
2020-01-12T20:40:00	0.2614	2.393		0.672551173	0.848831678	0.015068283	0.155456701	0.047913265
2020-01-12T20:45:00	0.2614	2.412		0.672557024	0.848840612	0.015068529	0.155459239	0.047914047
2020-01-12T20:50:00	0.2616	2.433		0.673216803	0.849848093	0.015096279	0.155745526	0.048002284
2020-01-12T20:55:00	0.2614	2.454		0.672568728	0.848858480	0.015069021	0.155464315	0.047915612
2020-01-12T21:00:00	0.2613	2.472		0.672247573	0.848368210	0.015055523	0.155325059	0.047872692
2020-01-12T21:05:00	0.2614	2.486		0.672580431	0.848876348	0.015069513	0.155469391	0.047917176
2020-01-12T21:10:00	0.2622	2.497		0.675201269	0.852880623	0.015179905	0.156608282	0.048268194
2020-01-12T21:15:00	0.2639	2.505		0.680757726	0.861389668	0.015415349	0.159037311	0.049016844
2020-01-12T21:20:00	0.2624	2.514		0.675866415	0.853897813	0.015207989	0.156898018	0.048357493
2020-01-12T21:25:00	0.2613	2.516		0.672276834	0.848412876	0.015056753	0.155337744	0.047876601
2020-01-12T21:30:00	0.2621	2.514		0.674897891	0.852416800	0.015167105	0.156476225	0.048227492
2020-01-12T21:35:00	0.2619	2.513		0.674250115	0.851426709	0.015139793	0.156194451	0.048140647
2020-01-12T21:40:00	0.2598	2.511		0.667385820	0.840957152	0.014851962	0.153224953	0.047225419
2020-01-12T21:45:00	0.2595	2.509		0.666409170	0.839470834	0.014811245	0.152804883	0.047095949
2020-01-12T21:50:00	0.2580	2.504		0.661498494	0.832009898	0.014607404	0.150701894	0.046447787
2020-01-12T21:55:00	0.2571	2.502		0.658551239	0.827541961	0.014485774	0.149447063	0.046061036
2020-01-12T22:00:00	0.2564	2.497		0.656258574	0.824071498	0.014391527	0.148474726	0.045761353
2020-01-12T22:05:00	0.2579	2.495		0.661367986	0.831811895	0.014602007	0.150646213	0.046430626
2020-01-12T22:10:00	0.2581	2.492		0.661881707	0.832591381	0.014623258	0.150865456	0.046498199
2020-01-12T22:15:00	0.2587	2.488		0.663706759	0.835362424	0.014698885	0.151645691	0.046738675
2020-01-12T22:20:00	0.2588	2.485		0.664220148	0.836142435	0.014720196	0.151865552	0.046806438
2020-01-12T22:25:00	0.2603	2.481		0.668991050	0.843401855	0.014919012	0.153916697	0.047438621
2020-01-12T22:30:00	0.2605	2.477		0.669830946	0.844681864	0.014954157	0.154279286	0.047550374
2020-01-12T22:35:00	0.2621	2.470		0.674921283	0.852452560	0.015168092	0.156486405	0.048230630
2020-01-12T22:40:00	0.2614	2.466		0.672818269	0.849239487	0.015079514	0.155572564	0.047948975
2020-01-12T22:45:00	0.2614	2.461		0.672676464	0.849022969	0.015073551	0.155511045	0.047930014
2020-01-12T22:50:00	0.2618	2.455		0.673842401	0.850803725	0.015122616	0.156017238	0.048086028
2020-01-12T22:55:00	0.2620	2.447		0.674681176	0.852085523	0.015157965	0.156381927	0.048198429
2020-01-12T23:00:00	0.2609	2.440		0.670942698	0.846377119	0.015000745	0.154759926	0.047698512
2020-01-12T23:05:00	0.2603	2.434		0.669164694	0.843666441	0.014926275	0.153991624	0.047461714
2020-01-12T23:10:00	0.2596	2.425		0.666730842	0.839960281	0.014824649	0.152943172	0.047138571
2020-01-12T23:15:00	0.2601	2.418		0.668553455	0.842735196	0.014900718	0.153727962	0.047380451
2020-01-12T23:20:00	0.2610	2.411		0.671356591	0.847008514	0.015018109	0.154939063	0.047753724
2020-01-12T23:25:00	0.2618	2.404		0.674157566	0.851285282	0.015135893	0.156154215	0.048128246
2020-01-12T23:30:00	0.2627	2.397		0.676956386	0.855565501	0.015254069	0.157373415	0.048504015
2020-01-12T23:35:00	0.2635	2.392		0.679426695	0.859348932	0.015358775	0.158453654	0.048836955
2020-01-12T23:40:00	0.2644	2.384		0.682547585	0.864136288	0.015491596	0.159823944	0.049259292
2020-01-12T23:45:00	0.2648	2.377		0.683710368	0.865922113	0.015541237	0.160336077	0.049417136
2020-01-12T23:50:00	0.2648	2.368		0.683894979	0.866205749	0.015549126	0.160417466	0.049442221
2020-01-12T23:55:00	0.2659	2.360		0.687337738	0.871500598	0.015696631	0.161939252	0.049911250
2020-01-13T00:00:00	0.2641	2.351		0.681655684	0.862767280	0.015453577	0.159431703	0.049138399
2020-01-13T00:05:00	0.2640	2.343		0.681188018	0.862049719	0.015433661	0.159226235	0.049075072
2020-01-13T00:10:00	0.2642	2.336		0.681698945	0.862833667	0.015455420	0.159450717	0.049144259
2020-01-13T00:15:00	0.2633	2.328		0.678947060	0.858613930	0.015338416	0.158243611	0.048772218
2020-01-13T00:20:00	0.2645	2.321		0.682720584	0.864401909	0.015498977	0.159900085	0.049282759
2020-01-13T00:25:00	0.2642	2.316		0.681926916	0.863183530	0.015465134	0.159550932	0.049175147
2020-01-13T00:30:00	0.2651	2.311		0.684719780	0.867473333	0.015584398	0.160781359	0.049554376
2020-01-13T00:35:00	0.2649	2.307		0.684252506	0.866755138	0.015564410	0.160575149	0.049490821
2020-01-13T00:40:00	0.2667	2.308		0.689973691	0.875561530	0.015810065	0.163109530	0.050271941
2020-01-13T00:45:00	0.2675	2.315		0.692435215	0.879359166	0.015916382	0.164206384	0.050610002
2020-01-13T00:50:00	0.2668	2.324		0.690342271	0.876129841	0.015825961	0.163273523	0.050322485
2020-01-13T00:55:00	0.2674	2.331		0.692153121	0.878923685	0.015904179	0.164080486	0.050571199
2020-01-13T01:00:00	0.2674	2.338		0.692337306	0.879208012	0.015912146	0.164162682	0.050596533
2020-01-13T01:05:00	0.2680	2.344		0.694147170	0.882003460	0.015990546	0.164971519	0.050845824
2020-01-13T01:10:00	0.2685	2.348		0.695956141	0.884800365	0.016069111	0.165782055	0.051095639
2020-01-13T01:15:00	0.2690	2.353		0.697439461	0.887095889	0.016133684	0.166448246	0.051300966
2020-01-13T01:20:00	0.2689	2.361		0.696973808	0.886375058	0.016113398	0.166238959	0.051236462
2020-01-13T01:25:00	0.2684	2.371		0.695533397	0.884146495	0.016050733	0.165592451	0.051037202
2020-01-13T01:30:00	0.2696	2.380		0.699289863	0.889962170	0.016214430	0.167281282	0.051557716
2020-01-13T01:35:00	0.2683	2.390		0.695251541	0.883710626	0.016038486	0.165466099	0.050998259
2020-01-13T01:40:00	0.2684	2.401		0.695435571	0.883995206	0.016046481	0.165548591	0.051023684
2020-01-13T01:45:00	0.2685	2.413		0.695944512	0.884782377	0.016068605	0.165776838	0.051094032
2020-01-13T01:50:00	0.2679	2.423		0.693853572	0.881549787	0.015977814	0.164840166	0.050805340
2020-01-13T01:55:00	0.2680	2.435		0.694362732	0.882336599	0.015999898	0.165067995	0.050875559
2020-01-13T02:00:00	0.2691	2.446		0.697795668	0.887647425	0.016149211	0.166608437	0.051350338
2020-01-13T02:05:00	0.2684	2.458		0.695380841	0.883910570	0.016044103	0.165524056	0.051016122
2020-01-13T02:10:00	0.2677	2.471		0.693289580	0.880678505	0.015953372	0.164587996	0.050727619
2020-01-13T02:15:00	0.2684	2.484		0.695423941	0.883977220	0.016045976	0.165543377	0.051022077
2020-01-13T02:20:00	0.2680	2.496		0.694307987	0.882251990	0.015997522	0.165043490	0.050868007
2020-01-13T02:25:00	0.2669	2.508		0.690589568	0.876511212	0.015836631	0.163383601	0.050356413
2020-01-13T02:30:00	0.2668	2.521		0.690448452	0.876293583	0.015830542	0.163320782	0.050337051
2020-01-13T02:35:00	0.2668	2.533		0.690307331	0.876075963	0.015824454	0.163257973	0.050317693
2020-01-13T02:40:00	0.2662	2.545		0.688213170	0.872848617	0.015734256	0.162327423	0.050030888
2020-01-13T02:45:00	0.2659	2.556		0.687420695	0.871628309	0.015700195	0.161976014	0.049922581
2020-01-13T02:50:00	0.2649	2.566		0.684021247	0.866399765	0.015554523	0.160473146	0.049459382
2020-01-13T02:55:00	0.2656	2.575		0.686486779	0.870190899	0.015660104	0.161562402	0.049795101
2020-01-13T03:00:00	0.2664	2.585		0.688950649	0.873984725	0.015765989	0.162654805	0.050131790
2020-01-13T03:05:00	0.2661	2.598		0.688158333	0.872764157	0.015731898	0.162303093	0.050023390
2020-01-13T03:10:00	0.2666	2.610		0.689644812	0.875054533	0.015795889	0.162963276	0.050226864
2020-01-13T03:15:00	0.2654	2.619		0.685595839	0.868820336	0.015621908	0.161168342	0.049673648
2020-01-13T03:20:00	0.2660	2.632		0.687734689	0.872111754	0.015713686	0.162115201	0.049965479
2020-01-13T03:25:00	0.2664	2.643		0.688895822	0.873900247	0.015763629	0.162630454	0.050124285
2020-01-13T03:30:00	0.2657	2.654		0.686800853	0.870674213	0.015673580	0.161701436	0.049837953
2020-01-13T03:35:00	0.2649	2.666		0.684052814	0.866448270	0.015555872	0.160487067	0.049463673
2020-01-13T03:40:00	0.2655	2.676		0.686192566	0.869738225	0.015647485	0.161432216	0.049754977
2020-01-13T03:45:00	0.2659	2.687		0.687354189	0.871525924	0.015697338	0.161946542	0.049913497
2020-01-13T03:50:00	0.2653	2.699		0.685584178	0.868802401	0.015621408	0.161163188	0.049672060
2020-01-13T03:55:00	0.2668	2.711		0.690327197	0.876106596	0.015825311	0.163266814	0.050320418
2020-01-13T04:00:00	0.2665	2.724		0.689209690	0.874383896	0.015777143	0.162769881	0.050167258
2020-01-13T04:05:00	0.2663	2.738		0.688693986	0.873589275	0.015754942	0.162540827	0.050096662
2020-01-13T04:10:00	0.2656	2.750		0.686549869	0.870287978	0.015662810	0.161590325	0.049803708
2020-01-13T04:15:00	0.2659	2.761		0.687336705	0.871499008	0.015696587	0.161938794	0.049911109
2020-01-13T04:20:00	0.2640	2.772		0.681279354	0.862189845	0.015437550	0.159266352	0.049087437
2020-01-13T04:25:00	0.2648	2.781		0.683697666	0.865902599	0.015540694	0.160330478	0.049415410
2020-01-13T04:30:00	0.2651	2.790		0.684811027	0.867613602	0.015588302	0.160821643	0.049566792
2020-01-13T04:35:00	0.2644	2.799		0.682338528	0.863815338	0.015482680	0.159731959	0.049230941
2020-01-13T04:40:00	0.2644	2.808		0.682474121	0.864023500	0.015488463	0.159791617	0.049249328
2020-01-13T04:45:00	0.2650	2.816		0.684565739	0.867236553	0.015577807	0.160713365	0.049533420
2020-01-13T04:50:00	0.2661	2.821		0.687958853	0.872456943	0.015723321	0.162214607	0.049996117
2020-01-13T04:55:00	0.2662	2.825		0.688419827	0.873166930	0.015743145	0.162419127	0.050059152
2020-01-13T05:00:00	0.2647	2.833		0.683342484	0.865356984	0.015525523	0.160173954	0.049367168
2020-01-13T05:05:00	0.2651	2.839		0.684781867	0.867568774	0.015587055	0.160808768	0.049562824
2020-01-13T05:10:00	0.2662	2.846		0.688500362	0.873290989	0.015746610	0.162454872	0.050070169
2020-01-13T05:15:00	0.2666	2.854		0.689612262	0.875004359	0.015794486	0.162948805	0.050222404
2020-01-13T05:20:00	0.2665	2.861		0.689422115	0.874711278	0.015786294	0.162864280	0.050196353
2020-01-13T05:25:00	0.2661	2.867		0.687929718	0.872412075	0.015722069	0.162201685	0.049992135
2020-01-13T05:30:00	0.2661	2.873		0.688065104	0.872620573	0.015727889	0.162261735	0.050010643
2020-01-13T05:35:00	0.2667	2.879		0.689828091	0.875337064	0.015803789	0.163044773	0.050251982
2020-01-13T05:40:00	0.2662	2.886		0.688335860	0.873037592	0.015739533	0.162381863	0.050047667
2020-01-13T05:45:00	0.2668	2.893		0.690424128	0.876256072	0.015829492	0.163309955	0.050333714
2020-01-13T05:50:00	0.2671	2.899		0.691210132	0.877468453	0.015863422	0.163660003	0.050441602
2020-01-13T05:55:00	0.2669	2.905		0.690694710	0.876673374	0.015841168	0.163430414	0.050370841
2020-01-13T06:00:00	0.2672	2.911		0.691480656	0.877885850	0.015875109	0.163780572	0.050478763
2020-01-13T06:05:00	0.2671	2.917		0.691290605	0.877592612	0.015866898	0.163695864	0.050452655
2020-01-13T06:10:00	0.2670	2.923		0.691100546	0.877299389	0.015858689	0.163611175	0.050426553
2020-01-13T06:15:00	0.2672	2.929		0.691561124	0.878010018	0.015878586	0.163816445	0.050489819
2020-01-13T06:20:00	0.2676	2.936		0.692997276	0.880227048	0.015940712	0.164457382	0.050687362
2020-01-13T06:25:00	0.2669	2.943		0.690530307	0.876419817	0.015834074	0.163357219	0.050348281
2020-01-13T06:30:00	0.2666	2.949		0.689689342	0.875123176	0.015797808	0.162983075	0.050232967
2020-01-13T06:35:00	0.2674	2.955		0.692102100	0.878844929	0.015901973	0.164057721	0.050564183
2020-01-13T06:40:00	0.2676	2.960		0.692887743	0.880057897	0.015935969	0.164408453	0.050672282
2020-01-13T06:45:00	0.2682	2.966		0.694973418	0.883280596	0.016026406	0.165341471	0.050959847
2020-01-13T06:50:00	0.2681	2.973		0.694458526	0.882484655	0.016004054	0.165110877	0.050888776
2020-01-13T06:55:00	0.2678	2.979		0.693618463	0.881186546	0.015967623	0.164735020	0.050772933
2020-01-13T07:00:00	0.2687	2.988		0.696353520	0.885415146	0.016086397	0.165960388	0.051150603
2020-01-13T07:05:00	0.2690	2.994		0.697463040	0.887132394	0.016134712	0.166458847	0.051304233
2020-01-13T07:10:00	0.2685	3.002		0.695973915	0.884827861	0.016069884	0.165790030	0.051098097
2020-01-13T07:15:00	0.2683	3.010		0.695134199	0.883529185	0.016033388	0.165413512	0.050982051
2020-01-13T07:20:00	0.2681	3.016		0.694619329	0.882733207	0.016011033	0.165182874	0.050910966
2020-01-13T07:25:00	0.2687	3.024		0.696379166	0.885454828	0.016087513	0.165971901	0.051154152
2020-01-13T07:30:00	0.2691	3.032		0.697813434	0.887674935	0.016149986	0.166616428	0.051352801
2020-01-13T07:35:00	0.2704	3.041		0.701843136	0.893922080	0.016326196	0.168434356	0.051913104
2020-01-13T07:40:00	0.2705	3.049		0.702302368	0.894634910	0.016346342	0.168642193	0.051977162
2020-01-13T07:45:00	0.2706	3.057		0.702761542	0.895347835	0.016366498	0.168850140	0.052041253
2020-01-13T07:50:00	0.2712	3.068		0.704517485	0.898075842	0.016443699	0.169646607	0.052286732
2020-01-13T07:55:00	0.2713	3.077		0.704976383	0.898789222	0.016463906	0.169855083	0.052350986
2020-01-13T08:00:00	0.2720	3.087		0.707055210	0.902023154	0.016555611	0.170801186	0.052642584
2020-01-13T08:05:00	0.2718	3.097		0.706542007	0.901224439	0.016532946	0.170567361	0.052570517
2020-01-13T08:10:00	0.2714	3.108		0.705380643	0.899417816	0.016481718	0.170038849	0.052407625
2020-01-13T08:15:00	0.2716	3.119		0.705839434	0.900131373	0.016501946	0.170247531	0.052471943
2020-01-13T08:20:00	0.2714	3.133		0.705326062	0.899332937	0.016479313	0.170014031	0.052399976
2020-01-13T08:25:00	0.2711	3.147		0.704164315	0.897526946	0.016428156	0.169486255	0.052237310
2020-01-13T08:30:00	0.2718	3.159		0.706567583	0.901264238	0.016534076	0.170579010	0.052574108
2020-01-13T08:35:00	0.2713	3.173		0.705082142	0.898953655	0.016468565	0.169903148	0.052365800
2020-01-13T08:40:00	0.2730	3.186		0.710398653	0.907232282	0.016703670	0.172328679	0.053113373
2020-01-13T08:45:00	0.2727	3.199		0.709562224	0.905928201	0.016666564	0.171945870	0.052995387
2020-01-13T08:50:00	0.2722	3.211		0.707754139	0.903111291	0.016586504	0.171119905	0.052740816
2020-01-13T08:55:00	0.2725	3.224		0.708860226	0.904834184	0.016635456	0.171624934	0.052896472
2020-01-13T09:00:00	0.2721	3.238		0.707375710	0.902522075	0.016569773	0.170947298	0.052687617
2020-01-13T09:05:00	0.2717	3.253		0.706214609	0.900715018	0.016518496	0.170418281	0.052524569
2020-01-13T09:10:00	0.2715	3.268		0.705701289	0.899916497	0.016495854	0.170184681	0.052452572
2020-01-13T09:15:00	0.2718	3.284		0.706484030	0.901134222	0.016530387	0.170540957	0.052562379
2020-01-13T09:20:00	0.2724	3.300		0.708562006	0.904369558	0.016622250	0.171488692	0.052854480
2020-01-13T09:25:00	0.2717	3.313		0.706105470	0.900545222	0.016513681	0.170368600	0.052509257
2020-01-13T09:30:00	0.2713	3.327		0.704943968	0.898738826	0.016462478	0.169840352	0.052346446
2020-01-13T09:35:00	0.2719	3.343		0.707022813	0.901972728	0.016554180	0.170786421	0.052638033
2020-01-13T09:40:00	0.2727	3.357		0.709424218	0.905713095	0.016660446	0.171882752	0.052975934
2020-01-13T09:45:00	0.2717	3.376		0.706320332	0.900879510	0.016523162	0.170466415	0.052539405
2020-01-13T09:50:00	0.2700	3.393		0.700618801	0.892022533	0.016272552	0.167880915	0.051742529
2020-01-13T09:55:00	0.2702	3.411		0.701402624	0.893238478	0.016306884	0.168235119	0.051851697
2020-01-13T10:00:00	0.2699	3.428		0.700239637	0.891434526	0.016255957	0.167709716	0.051689763
2020-01-13T10:05:00	0.2700	3.445		0.700552535	0.891919758	0.016269651	0.167850988	0.051733305
2020-01-13T10:10:00	0.2692	3.464		0.698268719	0.888380046	0.016169844	0.166821299	0.051415945
2020-01-13T10:15:00	0.2695	3.480		0.699231073	0.889871058	0.016211861	0.167254781	0.051549548
2020-01-13T10:20:00	0.2685	3.500		0.695971854	0.884824673	0.016069794	0.165789105	0.051097812
2020-01-13T10:25:00	0.2682	3.520		0.694985381	0.883299092	0.016026925	0.165346831	0.050961499
2020-01-13T10:30:00	0.2679	3.542		0.693998643	0.881773945	0.015984105	0.164905062	0.050825342
2020-01-13T10:35:00	0.2674	3.562		0.692361249	0.879244975	0.015913182	0.164173368	0.050599827
2020-01-13T10:40:00	0.2684	3.578		0.695600417	0.884250146	0.016053646	0.165622502	0.051046464
2020-01-13T10:45:00	0.2675	3.594		0.692663180	0.879711136	0.015926248	0.164308162	0.050641371
2020-01-13T10:50:00	0.2673	3.613		0.692001087	0.878689013	0.015897605	0.164012655	0.050550293
2020-01-13T10:55:00	0.2673	3.631		0.691989446	0.878671045	0.015897101	0.164007462	0.050548693
2020-01-13T11:00:00	0.2670	3.651		0.691001901	0.877147213	0.015854430	0.163567228	0.050413008
2020-01-13T11:05:00	0.2666	3.672		0.689688642	0.875122096	0.015797778	0.162982764	0.050232871
2020-01-13T11:10:00	0.2666	3.693		0.689676993	0.875104140	0.015797276	0.162977584	0.050231274
2020-01-13T11:15:00	0.2661	3.712		0.688037665	0.872578316	0.015726710	0.162249564	0.050006891
2020-01-13T11:20:00	0.2659	3.729		0.687374735	0.871557554	0.015698220	0.161955646	0.049916303
2020-01-13T11:25:00	0.2665	3.748		0.689316567	0.874548607	0.015781747	0.162817373	0.050181896
2020-01-13T11:30:00	0.2655	3.764		0.686048513	0.869516614	0.015641308	0.161368495	0.049735337
2020-01-13T11:35:00	0.2655	3.780		0.686036853	0.869498677	0.015640808	0.161363338	0.049733748
2020-01-13T11:40:00	0.2659	3.794		0.687328111	0.871485777	0.015696218	0.161934986	0.049909935
2020-01-13T11:45:00	0.2654	3.812		0.685687729	0.868961662	0.015625845	0.161208961	0.049686168
2020-01-13T11:50:00	0.2655	3.833		0.686001872	0.869444865	0.015639309	0.161347866	0.049728979
2020-01-13T11:55:00	0.2651	3.859		0.684686816	0.867422662	0.015582987	0.160766807	0.049549891
2020-01-13T12:00:00	0.2650	3.884		0.684349229	0.866903785	0.015568546	0.160617822	0.049503973
2020-01-13T12:05:00	0.2650	3.908		0.684337564	0.866885856	0.015568047	0.160612675	0.049502386
2020-01-13T12:10:00	0.2651	3.930		0.684651822	0.867368872	0.015581490	0.160751360	0.049545130
2020-01-13T12:15:00	0.2659	3.947		0.687246517	0.871360171	0.015692713	0.161898832	0.049898792
2020-01-13T12:20:00	0.2661	3.965		0.687886162	0.872345001	0.015720196	0.162182368	0.049986181
2020-01-13T12:25:00	0.2659	3.986		0.687223204	0.871324284	0.015691712	0.161888503	0.049895609
2020-01-13T12:30:00	0.2663	4.005		0.688839594	0.873813611	0.015761209	0.162605483	0.050116589
2020-01-13T12:35:00	0.2658	4.022		0.687199891	0.871288397	0.015690711	0.161878174	0.049892425
2020-01-13T12:40:00	0.2667	4.039		0.690118216	0.875784358	0.015816297	0.163173823	0.050291757
2020-01-13T12:45:00	0.2671	4.054		0.691408034	0.877773795	0.015871971	0.163748201	0.050468786
2020-01-13T12:50:00	0.2668	4.065		0.690420332	0.876250218	0.015829329	0.163308265	0.050333193
2020-01-13T12:55:00	0.2672	4.078		0.691710044	0.878239828	0.015885022	0.163882845	0.050510284
2020-01-13T13:00:00	0.2668	4.089		0.690397039	0.876214298	0.015828324	0.163297898	0.050329998
2020-01-13T13:05:00	0.2671	4.101		0.691361461	0.877701935	0.015869959	0.163727443	0.050462388
2020-01-13T13:10:00	0.2671	4.113		0.691349818	0.877683970	0.015869456	0.163722253	0.050460789
2020-01-13T13:15:00	0.2677	4.124		0.693289543	0.880678448	0.015953370	0.164587979	0.050727614
2020-01-13T13:20:00	0.2686	4.131		0.696203022	0.885182296	0.016079849	0.165892837	0.051129783
2020-01-13T13:25:00	0.2697	4.136		0.699763384	0.890696132	0.016235127	0.167494810	0.051623527
2020-01-13T13:30:00	0.2687	4.138		0.696504637	0.885648973	0.016092973	0.166028232	0.051171514
2020-01-13T13:35:00	0.2689	4.143		0.697142668	0.886636432	0.016120753	0.166314837	0.051259848
2020-01-13T13:40:00	0.2693	4.148		0.698430018	0.888629896	0.016176882	0.166893913	0.051438325
2020-01-13T13:45:00	0.2689	4.154		0.697119418	0.886600443	0.016119740	0.166304388	0.051256628
2020-01-13T13:50:00	0.2686	4.159		0.696133254	0.885074358	0.016076814	0.165861526	0.051120133
2020-01-13T13:55:00	0.2693	4.160		0.698395155	0.888575892	0.016175361	0.166878217	0.051433487
2020-01-13T14:00:00	0.2699	4.156		0.700331160	0.891576449	0.016259962	0.167751032	0.051702497
2020-01-13T14:05:00	0.2703	4.150		0.701617393	0.893571744	0.016316298	0.168332240	0.051881631
2020-01-13T14:10:00	0.2705	4.144		0.702254537	0.894560658	0.016344243	0.168620540	0.051970488
2020-01-13T14:15:00	0.2709	4.140		0.703540098	0.896557057	0.016400704	0.169203035	0.052150019
2020-01-13T14:20:00	0.2704	4.136		0.701906954	0.894021129	0.016328995	0.168463231	0.051922004
2020-01-13T14:25:00	0.2707	4.132		0.702868357	0.895513704	0.016371188	0.168898532	0.052056168
2020-01-13T14:30:00	0.2703	4.129		0.701559339	0.893481655	0.016313753	0.168305985	0.051873539
2020-01-13T14:35:00	0.2699	4.124		0.700249855	0.891450371	0.016256404	0.167714328	0.051691185
2020-01-13T14:40:00	0.2699	4.121		0.700238240	0.891432361	0.016255896	0.167709085	0.051689569
2020-01-13T14:45:00	0.2701	4.117		0.700875622	0.892420882	0.016283797	0.167996928	0.051778285
2020-01-13T14:50:00	0.2693	4.112		0.698592008	0.888880840	0.016183953	0.166966855	0.051460806
2020-01-13T14:55:00	0.2698	4.107		0.700203394	0.891378328	0.016254372	0.167693357	0.051684721
2020-01-13T15:00:00	0.2705	4.101		0.702462792	0.894883967	0.016353382	0.168714829	0.051999549
2020-01-13T15:05:00	0.2712	4.093		0.704720802	0.898391886	0.016452650	0.169738956	0.052315195
2020-01-13T15:10:00	0.2709	4.086		0.703736676	0.896862457	0.016409346	0.169292199	0.052177500
2020-01-13T15:15:00	0.2703	4.079		0.701779243	0.893822918	0.016323394	0.168405451	0.051904195
2020-01-13T15:20:00	0.2696	4.070		0.699496190	0.890281955	0.016223446	0.167374305	0.051586386
2020-01-13T15:25:00	0.2702	4.060		0.701431616	0.893283464	0.016308155	0.168248228	0.051855738
2020-01-13T15:30:00	0.2708	4.050		0.703366023	0.896286644	0.016393052	0.169124098	0.052125690
2020-01-13T15:35:00	0.2699	4.039		0.700434994	0.891737471	0.016264506	0.167797912	0.051716946
2020-01-13T15:40:00	0.2700	4.027		0.700747875	0.892222730	0.016278203	0.167939216	0.051760497
2020-01-13T15:45:00	0.2701	4.017		0.701060730	0.892708033	0.016291904	0.168080571	0.051804064
2020-01-13T15:50:00	0.2699	4.009		0.700400150	0.891683435	0.016262981	0.167782179	0.051712097
2020-01-13T15:55:00	0.2704	3.998		0.702010744	0.894182224	0.016333547	0.168510196	0.051936479
2020-01-13T16:00:00	0.2711	3.985		0.704269032	0.897689686	0.016432764	0.169533792	0.052251961
2020-01-13T16:05:00	0.2702	3.973		0.701295694	0.893072566	0.016302198	0.168186775	0.051836797
2020-01-13T16:10:00	0.2711	3.962		0.704159835	0.897519985	0.016427959	0.169484221	0.052236683
2020-01-13T16:15:00	0.2704	3.954		0.702159608	0.894413296	0.016340078	0.168577569	0.051957244
2020-01-13T16:20:00	0.2690	3.946		0.697561106	0.887284227	0.016138986	0.166502942	0.051317824
2020-01-13T16:25:00	0.2681	3.939		0.694582332	0.882676018	0.016009427	0.165166308	0.050905860
2020-01-13T16:30:00	0.2678	3.930		0.693552365	0.881084433	0.015964758	0.164705466	0.050763824
2020-01-13T16:35:00	0.2686	3.920		0.696097670	0.885019308	0.016075266	0.165845558	0.051115212
2020-01-13T16:40:00	0.2700	3.909		0.700588700	0.891975848	0.016271234	0.167867321	0.051738339
2020-01-13T16:45:00	0.2696	3.897		0.699560417	0.890381508	0.016226254	0.167403267	0.051595313
2020-01-13T16:50:00	0.2689	3.886		0.697232907	0.886776121	0.016124684	0.166355394	0.051272348
2020-01-13T16:55:00	0.2695	3.873		0.699126470	0.889708953	0.016207291	0.167207635	0.051535017
2020-01-13T17:00:00	0.2693	3.860		0.698422479	0.888618218	0.016176553	0.166890519	0.051437279
2020-01-13T17:05:00	0.2702	3.849		0.701288859	0.893061961	0.016301899	0.168183685	0.051835845
2020-01-13T17:10:00	0.2700	3.839		0.700585282	0.891970547	0.016271084	0.167865777	0.051737863
2020-01-13T17:15:00	0.2704	3.826		0.702152775	0.894402688	0.016339778	0.168574476	0.051956291
2020-01-13T17:20:00	0.2710	3.813		0.704043805	0.897339676	0.016422854	0.169431558	0.052220452
2020-01-13T17:25:00	0.2720	3.803		0.707229734	0.902294825	0.016563322	0.170880741	0.052667104
2020-01-13T17:30:00	0.2728	3.791		0.709765593	0.906245219	0.016675582	0.172038905	0.053024061
2020-01-13T17:35:00	0.2740	3.780		0.713593345	0.912218757	0.016845795	0.173794957	0.053565294
2020-01-13T17:40:00	0.2733	3.768		0.711274691	0.908598771	0.016742579	0.172730101	0.053237095
2020-01-13T17:45:00	0.2740	3.755		0.713807772	0.912553766	0.016855357	0.173893609	0.053595699
2020-01-13T17:50:00	0.2738	3.743		0.713106581	0.911458411	0.016824098	0.173571120	0.053496305
2020-01-13T17:55:00	0.2750	3.728		0.716930875	0.917437693	0.016994957	0.175333841	0.054039593
2020-01-13T18:00:00	0.2745	3.713		0.715260785	0.914824936	0.016920229	0.174562887	0.053801977
2020-01-13T18:05:00	0.2759	3.696		0.719728541	0.921819935	0.017120531	0.176629358	0.054438884
2020-01-13T18:10:00	0.2753	3.676		0.717736737	0.918699288	0.017031078	0.175706492	0.054154447
2020-01-13T18:15:00	0.2747	3.655		0.716067011	0.916085925	0.016956282	0.174934835	0.053916615
2020-01-13T18:20:00	0.2748	3.636		0.716335714	0.916506319	0.016968307	0.175058893	0.053954851
2020-01-13T18:25:00	0.2761	3.623		0.720479437	0.922997296	0.017154318	0.176977939	0.054546320
2020-01-13T18:30:00	0.2763	3.615		0.721070533	0.923924449	0.017180940	0.177252596	0.054630971
2020-01-13T18:35:00	0.2770	3.610		0.723274425	0.927384015	0.017280395	0.178278645	0.054947210
2020-01-13T18:40:00	0.2760	3.604		0.719993578	0.922235442	0.017132452	0.176752352	0.054476792
2020-01-13T18:45:00	0.2755	3.598		0.718647795	0.920126252	0.017071963	0.176128295	0.054284451
2020-01-13T18:50:00	0.2760	3.594		0.720207635	0.922571069	0.017142084	0.176851721	0.054507418
2020-01-13T18:55:00	0.2753	3.593		0.717893126	0.918944183	0.017038092	0.175778859	0.054176752
2020-01-13T19:00:00	0.2753	3.592		0.717838729	0.918858998	0.017035652	0.175753686	0.054168993
2020-01-13T19:05:00	0.2748	3.591		0.716169048	0.916245559	0.016960848	0.174981940	0.053931133
2020-01-13T19:10:00	0.2745	3.591		0.715145103	0.914644050	0.016915060	0.174509553	0.053785539
2020-01-13T19:15:00	0.2743	3.589		0.714767431	0.914053580	0.016898188	0.174335488	0.053731891
2020-01-13T19:20:00	0.2730	3.588		0.710508288	0.907403260	0.016708536	0.172378890	0.053128848
2020-01-13T19:25:00	0.2735	3.586		0.712071565	0.909842358	0.016778014	0.173095679	0.053349769
2020-01-13T19:30:00	0.2743	3.583		0.714604100	0.913798259	0.016890894	0.174260240	0.053708698
2020-01-13T19:35:00	0.2733	3.580		0.711315552	0.908662525	0.016744395	0.172748837	0.053242869
2020-01-13T19:40:00	0.2734	3.578		0.711584601	0.909082345	0.016756355	0.172872228	0.053280900
2020-01-13T19:45:00	0.2733	3.576		0.711530111	0.908997315	0.016753933	0.172847234	0.053273196
2020-01-13T19:50:00	0.2734	3.573		0.711799144	0.909417161	0.016765896	0.172970656	0.053311236
2020-01-13T19:55:00	0.2728	3.568		0.709803061	0.906303630	0.016677244	0.172056048	0.053029345
2020-01-13T20:00:00	0.2719	3.565		0.706834189	0.901679144	0.016545848	0.170700464	0.052611541
2020-01-13T20:05:00	0.2720	3.557		0.707103565	0.902098423	0.016557747	0.170823226	0.052649377
2020-01-13T20:10:00	0.2709	3.550		0.703484094	0.896470056	0.016398242	0.169177637	0.052142191
2020-01-13T20:15:00	0.2703	3.545		0.701807901	0.893867395	0.016324651	0.168418416	0.051908191
2020-01-13T20:20:00	0.2696	3.541		0.699481816	0.890259675	0.016222818	0.167367823	0.051584388
2020-01-13T20:25:00	0.2694	3.536		0.698777893	0.889168828	0.016192068	0.167050577	0.051486610
2020-01-13T20:30:00	0.2696	3.531		0.699372476	0.890090207	0.016218040	0.167318525	0.051569194
2020-01-13T20:35:00	0.2694	3.528		0.698668533	0.888999395	0.016187293	0.167001318	0.051471428
2020-01-13T20:40:00	0.2701	3.523		0.700885839	0.892436730	0.016284244	0.168001544	0.051779707
2020-01-13T20:45:00	0.2701	3.516		0.701155651	0.892855291	0.016296062	0.168123471	0.051817287
2020-01-13T20:50:00	0.2714	3.510		0.705316445	0.899317982	0.016478889	0.170009659	0.052398628
2020-01-13T20:55:00	0.2705	3.504		0.702343953	0.894699469	0.016348167	0.168661020	0.051982965
2020-01-13T21:00:00	0.2704	3.500		0.701964967	0.894111170	0.016331539	0.168489481	0.051930094
2020-01-13T21:05:00	0.2708	3.497		0.703207622	0.896040603	0.016386092	0.169052286	0.052103556
2020-01-13T21:10:00	0.2693	3.491		0.698285747	0.888406421	0.016170587	0.166828964	0.051418307
2020-01-13T21:15:00	0.2678	3.483		0.693682388	0.881285304	0.015970393	0.164763605	0.050781743
2020-01-13T21:20:00	0.2673	3.473		0.692001713	0.878689980	0.015897632	0.164012935	0.050550379
2020-01-13T21:25:00	0.2661	3.464		0.688041722	0.872584564	0.015726884	0.162251363	0.050007446
2020-01-13T21:30:00	0.2661	3.450		0.687986882	0.872500108	0.015724526	0.162227038	0.049999949
2020-01-13T21:35:00	0.2668	3.440		0.690210655	0.875926890	0.015820284	0.163214953	0.050304434
2020-01-13T21:40:00	0.2676	3.427		0.692758282	0.879857982	0.015930364	0.164350630	0.050654460
2020-01-13T21:45:00	0.2693	3.414		0.698552329	0.888819371	0.016182221	0.166948986	0.051455299
2020-01-13T21:50:00	0.2700	3.406		0.700769706	0.892256591	0.016279159	0.167949078	0.051763537
2020-01-13T21:55:00	0.2705	3.404		0.702337120	0.894688861	0.016347867	0.168657927	0.051982011
2020-01-13T22:00:00	0.2718	3.399		0.706496580	0.901153750	0.016530941	0.170546672	0.052564141
2020-01-13T22:05:00	0.2709	3.395		0.703708657	0.896818925	0.016408114	0.169279489	0.052173582
2020-01-13T22:10:00	0.2708	3.388		0.703189184	0.896011967	0.016385281	0.169043928	0.052100980
2020-01-13T22:15:00	0.2703	3.376		0.701696574	0.893694621	0.016319770	0.168368054	0.051892670
2020-01-13T22:20:00	0.2708	3.363		0.703447222	0.896412778	0.016396621	0.169160917	0.052137037
2020-01-13T22:25:00	0.2700	3.349		0.700656987	0.892081759	0.016274223	0.167898162	0.051747844
2020-01-13T22:30:00	0.2692	3.337		0.698189355	0.888257119	0.016166381	0.166785577	0.051404935
2020-01-13T22:35:00	0.2687	3.323		0.696369857	0.885440424	0.016087107	0.165967722	0.051152864
2020-01-13T22:40:00	0.2694	3.308		0.698772414	0.889160339	0.016191828	0.167048109	0.051485849
2020-01-13T22:45:00	0.2701	3.295		0.701173400	0.892882828	0.016296840	0.168131493	0.051819759
2020-01-13T22:50:00	0.2699	3.279		0.700329065	0.891573200	0.016259870	0.167750086	0.051702206
2020-01-13T22:55:00	0.2709	3.266		0.703701826	0.896808314	0.016407814	0.169276390	0.052172628
2020-01-13T23:00:00	0.2710	3.251		0.703830830	0.897008745	0.016413487	0.169334915	0.052190665
2020-01-13T23:05:00	0.2710	3.236		0.703959828	0.897209184	0.016419160	0.169393448	0.052208706
2020-01-13T23:10:00	0.2708	3.220		0.703440391	0.896402167	0.016396321	0.169157819	0.052136083
2020-01-13T23:15:00	0.2708	3.207		0.703245157	0.896098904	0.016387741	0.169069301	0.052108801
2020-01-13T23:20:00	0.2720	3.193		0.707263120	0.902346796	0.016564797	0.170895962	0.052671795
2020-01-13T23:25:00	0.2719	3.177		0.706744148	0.901539011	0.016541872	0.170659440	0.052598897
2020-01-13T23:30:00	0.2706	3.159		0.702659390	0.895189216	0.016362012	0.168803866	0.052026991
2020-01-13T23:35:00	0.2716	3.141		0.706030017	0.900427840	0.016510352	0.170334258	0.052498673
2020-01-13T23:40:00	0.2707	3.124		0.702917465	0.895589966	0.016373345	0.168920784	0.052063026
2020-01-13T23:45:00	0.2715	3.109		0.705639812	0.899820878	0.016493143	0.170156716	0.052443952
2020-01-13T23:50:00	0.2714	3.093		0.705120612	0.899013471	0.016470260	0.169920633	0.052371189
2020-01-13T23:55:00	0.2719	3.077		0.706869633	0.901734308	0.016547413	0.170716614	0.052616518
2020-01-14T00:00:00	0.2709	3.063		0.703757791	0.896895263	0.016410275	0.169301778	0.052180452
2020-01-14T00:05:00	0.2706	3.048		0.702589744	0.895081076	0.016358955	0.168772322	0.052017269
2020-01-14T00:10:00	0.2704	3.033		0.702070114	0.894274377	0.016336152	0.168537064	0.051944760
2020-01-14T00:15:00	0.2693	3.018		0.698304870	0.888436042	0.016171421	0.166837572	0.051420960
2020-01-14T00:20:00	0.2691	3.002		0.697784634	0.887630338	0.016148730	0.166603473	0.051348808
2020-01-14T00:25:00	0.2683	2.988		0.695315069	0.883808861	0.016041246	0.165494574	0.051007035
2020-01-14T00:30:00	0.2689	2.972		0.697068760	0.886522030	0.016117534	0.166281624	0.051249611
2020-01-14T00:35:00	0.2694	2.957		0.698821614	0.889236569	0.016193977	0.167070272	0.051492680
2020-01-14T00:40:00	0.2714	2.941		0.705113784	0.899002854	0.016469959	0.169917530	0.052370233
2020-01-14T00:45:00	0.2709	2.929		0.703621955	0.896684224	0.016404302	0.169240161	0.052161461
2020-01-14T00:50:00	0.2702	2.917		0.701480743	0.893359694	0.016310308	0.168270442	0.051862584
2020-01-14T00:55:00	0.2707	2.906		0.702907217	0.895574052	0.016372895	0.168916140	0.052061595
2020-01-14T01:00:00	0.2712	2.894		0.704657290	0.898293156	0.016449853	0.169710105	0.052306303
2020-01-14T01:05:00	0.2715	2.884		0.705434453	0.899501497	0.016484090	0.170063318	0.052415166
2020-01-14T01:10:00	0.2722	2.875		0.707831097	0.903231130	0.016589907	0.171155017	0.052751639
2020-01-14T01:15:00	0.2715	2.867		0.705692334	0.899902568	0.016495459	0.170180607	0.052451316
2020-01-14T01:20:00	0.2717	2.856		0.706145287	0.900607168	0.016515438	0.170386725	0.052514843
2020-01-14T01:25:00	0.2712	2.843		0.704653875	0.898287849	0.016449703	0.169708554	0.052305825
2020-01-14T01:30:00	0.2710	2.832		0.703810339	0.896976908	0.016412585	0.169325618	0.052187800
2020-01-14T01:35:00	0.2698	2.821		0.700046879	0.891135646	0.016247525	0.167622717	0.051662949
2020-01-14T01:40:00	0.2688	2.811		0.696929255	0.886306101	0.016111458	0.166218942	0.051230292
2020-01-14T01:45:00	0.2673	2.802		0.691857889	0.878467998	0.015891413	0.163948780	0.050530606
2020-01-14T01:50:00	0.2661	2.792		0.688082142	0.872646813	0.015728622	0.162269293	0.050012972
2020-01-14T01:55:00	0.2650	2.785		0.684302493	0.866831957	0.015566548	0.160597202	0.049497617
2020-01-14T02:00:00	0.2651	2.777		0.684758095	0.867532232	0.015586037	0.160798274	0.049559590
2020-01-14T02:05:00	0.2646	2.770		0.683257958	0.865227154	0.015521913	0.160136716	0.049355691
2020-01-14T02:10:00	0.2646	2.765		0.683061645	0.864925648	0.015513532	0.160050249	0.049329041
2020-01-14T02:15:00	0.2636	2.759		0.679929515	0.860119677	0.015380134	0.158674008	0.048904870
2020-01-14T02:20:00	0.2644	2.754		0.682342886	0.863822029	0.015482866	0.159733877	0.049231532
2020-01-14T02:25:00	0.2639	2.749		0.680841756	0.861518554	0.015418924	0.159074196	0.049028212
2020-01-14T02:30:00	0.2636	2.745		0.679992719	0.860216573	0.015382820	0.158701717	0.048913411
2020-01-14T02:35:00	0.2633	2.740		0.678817067	0.858414760	0.015332901	0.158186709	0.048754680
2020-01-14T02:40:00	0.2635	2.735		0.679599731	0.859614144	0.015366124	0.158529466	0.048860321
2020-01-14T02:45:00	0.2630	2.730		0.677770960	0.856812490	0.015288554	0.157729190	0.048613668
2020-01-14T02:50:00	0.2632	2.726		0.678553849	0.858011513	0.015321736	0.158071524	0.048719179
2020-01-14T02:55:00	0.2631	2.720		0.678357283	0.857710415	0.015313401	0.157985535	0.048692676
2020-01-14T03:00:00	0.2635	2.717		0.679466434	0.859409837	0.015360463	0.158471063	0.048842321
2020-01-14T03:05:00	0.2644	2.716		0.682532368	0.864112925	0.015490947	0.159817248	0.049257228
2020-01-14T03:10:00	0.2646	2.713		0.682988191	0.864812843	0.015510397	0.160017902	0.049319072
2020-01-14T03:15:00	0.2646	2.710		0.683117926	0.865012083	0.015515934	0.160075036	0.049336681
2020-01-14T03:20:00	0.2652	2.705		0.685203344	0.868216765	0.015605096	0.160994904	0.049620193
2020-01-14T03:25:00	0.2666	2.701		0.689566587	0.874933957	0.015792518	0.162928499	0.050216146
2020-01-14T03:30:00	0.2658	2.695		0.687091476	0.871121515	0.015686056	0.161830146	0.049877623
2020-01-14T03:35:00	0.2654	2.687		0.685592296	0.868814888	0.015621756	0.161166776	0.049673166
2020-01-14T03:40:00	0.2664	2.679		0.688978633	0.874027845	0.015767194	0.162667234	0.050135621
2020-01-14T03:45:00	0.2666	2.670		0.689759123	0.875230744	0.015800816	0.163014103	0.050242530
2020-01-14T03:50:00	0.2665	2.664		0.689237672	0.874427020	0.015778349	0.162782314	0.050171090
2020-01-14T03:55:00	0.2666	2.658		0.689692660	0.875128290	0.015797951	0.162984550	0.050233421
2020-01-14T04:00:00	0.2670	2.653		0.690798375	0.876833267	0.015845643	0.163476577	0.050385069
2020-01-14T04:05:00	0.2672	2.649		0.691495099	0.877908137	0.015875733	0.163787011	0.050480747
2020-01-14T04:10:00	0.2676	2.643		0.692842110	0.879987428	0.015933993	0.164388070	0.050666000
2020-01-14T04:15:00	0.2668	2.639		0.690285807	0.876042772	0.015823525	0.163248395	0.050314741
2020-01-14T04:20:00	0.2659	2.635		0.687402067	0.871599632	0.015699394	0.161967759	0.049920036
2020-01-14T04:25:00	0.2657	2.632		0.686796795	0.870667968	0.015673406	0.161699640	0.049837399
2020-01-14T04:30:00	0.2650	2.629		0.684562195	0.867231106	0.015577656	0.160711800	0.049532938
2020-01-14T04:35:00	0.2656	2.628		0.686237544	0.869807424	0.015649414	0.161452115	0.049761110
2020-01-14T04:40:00	0.2650	2.626		0.684328556	0.866872013	0.015567662	0.160608701	0.049501161
2020-01-14T04:45:00	0.2650	2.623		0.684374702	0.866942933	0.015569636	0.160629061	0.049507437
2020-01-14T04:50:00	0.2651	2.620		0.684746763	0.867514812	0.015585552	0.160793271	0.049558048
2020-01-14T04:55:00	0.2656	2.616		0.686422027	0.870091266	0.015657326	0.161533745	0.049786269
2020-01-14T05:00:00	0.2658	2.613		0.687119585	0.871164782	0.015687263	0.161842598	0.049881460
2020-01-14T05:05:00	0.2654	2.609		0.685862720	0.869230815	0.015633344	0.161286329	0.049710013
2020-01-14T05:10:00	0.2650	2.604		0.684605422	0.867297548	0.015579505	0.160730879	0.049538818
2020-01-14T05:15:00	0.2651	2.599		0.684651564	0.867368474	0.015581479	0.160751246	0.049545095
2020-01-14T05:20:00	0.2645	2.594		0.682741746	0.864434404	0.015499880	0.159909400	0.049285630
2020-01-14T05:25:00	0.2641	2.589		0.681483373	0.862502874	0.015446237	0.159355983	0.049115062
2020-01-14T05:30:00	0.2650	2.584		0.684464075	0.867080294	0.015573458	0.160668498	0.049519592
2020-01-14T05:35:00	0.2649	2.581		0.684184282	0.866650294	0.015561493	0.160545053	0.049481545
2020-01-14T05:40:00	0.2653	2.579		0.685533988	0.868725213	0.015619258	0.161141004	0.049665222
2020-01-14T05:45:00	0.2661	2.576		0.688185807	0.872806472	0.015733080	0.162315282	0.050027146
2020-01-14T05:50:00	0.2666	2.571		0.689534036	0.874883784	0.015791116	0.162914029	0.050211686
2020-01-14T05:55:00	0.2665	2.568		0.689254631	0.874453155	0.015779079	0.162789850	0.050173413
2020-01-14T06:00:00	0.2659	2.564		0.687347218	0.871515192	0.015697038	0.161943452	0.049912545
2020-01-14T06:05:00	0.2666	2.562		0.689672275	0.875096866	0.015797073	0.162975486	0.050230628
2020-01-14T06:10:00	0.2668	2.562		0.690369213	0.876171387	0.015827123	0.163285513	0.050326181
2020-01-14T06:15:00	0.2666	2.562		0.689764431	0.875238926	0.015801045	0.163016463	0.050243257
2020-01-14T06:20:00	0.2671	2.563		0.691437400	0.877819106	0.015873240	0.163761291	0.050472820
2020-01-14T06:25:00	0.2675	2.564		0.692459231	0.879396244	0.015917422	0.164217105	0.050613307
2020-01-14T06:30:00	0.2677	2.567		0.693155639	0.880471628	0.015947570	0.164528139	0.050709170
2020-01-14T06:35:00	0.2669	2.573		0.690599555	0.876526615	0.015837062	0.163388047	0.050357783
2020-01-14T06:40:00	0.2673	2.577		0.691946896	0.878605371	0.015895261	0.163988481	0.050542842
2020-01-14T06:45:00	0.2671	2.576		0.691342375	0.877672486	0.015869135	0.163718936	0.050459766
2020-01-14T06:50:00	0.2668	2.579		0.690412371	0.876237941	0.015828985	0.163304722	0.050332101
2020-01-14T06:55:00	0.2665	2.580		0.689482131	0.874803780	0.015788879	0.162890956	0.050204575
2020-01-14T07:00:00	0.2661	2.582		0.687900471	0.872367037	0.015720811	0.162188714	0.049988137
2020-01-14T07:05:00	0.2665	2.584		0.689248806	0.874444178	0.015778828	0.162787262	0.050172615
2020-01-14T07:10:00	0.2661	2.587		0.687992672	0.872509025	0.015724775	0.162229607	0.050000740
2020-01-14T07:15:00	0.2674	2.587		0.692269232	0.879102923	0.015909202	0.164132300	0.050587169
2020-01-14T07:20:00	0.2678	2.588		0.693615959	0.881182677	0.015967514	0.164733900	0.050772588
2020-01-14T07:25:00	0.2683	2.586		0.695287170	0.883765719	0.016040033	0.165482068	0.051003181
2020-01-14T07:30:00	0.2679	2.586		0.694033106	0.881827198	0.015985599	0.164920481	0.050830094
2020-01-14T07:35:00	0.2677	2.586		0.693103785	0.880391541	0.015945324	0.164504969	0.050702029
2020-01-14T07:40:00	0.2679	2.588		0.693800071	0.881467124	0.015975495	0.164816236	0.050797965
2020-01-14T07:45:00	0.2678	2.591		0.693520991	0.881035966	0.015963398	0.164691439	0.050759501
2020-01-14T07:50:00	0.2686	2.594		0.696167034	0.885126619	0.016078283	0.165876686	0.051124806
2020-01-14T07:55:00	0.2678	2.598		0.693613050	0.881178183	0.015967388	0.164732600	0.050772187
2020-01-14T08:00:00	0.2675	2.606		0.692683623	0.879742700	0.015927133	0.164317290	0.050644185
2020-01-14T08:05:00	0.2672	2.620		0.691753960	0.878307601	0.015886920	0.163902429	0.050516320
2020-01-14T08:10:00	0.2684	2.636		0.695376278	0.883903512	0.016043905	0.165522010	0.051015491
2020-01-14T08:15:00	0.2693	2.644		0.698345692	0.888499273	0.016173202	0.166855949	0.051426624
2020-01-14T08:20:00	0.2687	2.646		0.696443006	0.885553607	0.016090291	0.166000561	0.051162985
2020-01-14T08:25:00	0.2691	2.652		0.697788202	0.887635863	0.016148886	0.166605078	0.051349303
2020-01-14T08:30:00	0.2698	2.658		0.700106648	0.891228318	0.016250139	0.167649691	0.051671263
2020-01-14T08:35:00	0.2692	2.666		0.698204875	0.888281158	0.016167058	0.166792562	0.051407087
2020-01-14T08:40:00	0.2686	2.685		0.696302116	0.885335611	0.016084160	0.165937314	0.051143492
2020-01-14T08:45:00	0.2698	2.708		0.699919948	0.890938852	0.016241973	0.167565442	0.051645297
2020-01-14T08:50:00	0.2702	2.726		0.701263871	0.893023192	0.016300804	0.168172389	0.051832363
2020-01-14T08:55:00	0.2713	2.742		0.704876825	0.898634439	0.016459521	0.169809842	0.052337043
2020-01-14T09:00:00	0.2719	2.760		0.706866881	0.901730025	0.016547292	0.170715360	0.052616132
2020-01-14T09:05:00	0.2725	2.777		0.708855862	0.904827385	0.016635263	0.171622940	0.052895857
2020-01-14T09:10:00	0.2720	2.788		0.707282527	0.902377009	0.016565655	0.170904810	0.052674522
2020-01-14T09:15:00	0.2710	2.800		0.704087941	0.897408261	0.016424796	0.169451589	0.052226625
2020-01-14T09:20:00	0.2708	2.808		0.703161161	0.895968442	0.016384050	0.169031226	0.052097065
2020-01-14T09:25:00	0.2711	2.816		0.704179736	0.897550912	0.016428834	0.169493255	0.052239467
2020-01-14T09:30:00	0.2723	2.827		0.708113678	0.903671208	0.016602408	0.171283980	0.052791386
2020-01-14T09:35:00	0.2714	2.847		0.705243913	0.899205194	0.016475693	0.169976683	0.052388464
2020-01-14T09:40:00	0.2696	2.879		0.699451705	0.890213005	0.016221502	0.167354246	0.051580204
2020-01-14T09:45:00	0.2687	2.913		0.696575171	0.885758119	0.016096042	0.166059903	0.051181275
2020-01-14T09:50:00	0.2706	2.934		0.702788063	0.895389017	0.016367662	0.168862154	0.052044956
2020-01-14T09:55:00	0.2683	2.933		0.695042583	0.883387531	0.016029409	0.165372460	0.050969398
2020-01-14T10:00:00	0.2686	2.923		0.696063410	0.884966308	0.016073776	0.165830185	0.051110474
2020-01-14T10:05:00		2.922						
2020-01-14T10:10:00		2.929						
2020-01-14T10:15:00		2.937						
2020-01-14T10:20:00		2.948						
2020-01-14T10:25:00		2.961						
2020-01-14T10:30:00		2.983						
2020-01-14T10:35:00		3.014						
2020-01-14T10:40:00		3.036						
2020-01-14T10:45:00		3.050						
2020-01-14T10:50:00		5.467						
2020-01-14T10:55:00								
2020-01-14T11:00:00	0.1248	9.402		0.267418294	0.233775394	0.002243976	0.023150685	0.007135266
2020-01-14T11:05:00	0.2886	6.831		0.760501934	0.986467351	0.019006766	0.196089306	0.060436629
2020-01-14T11:10:00	0.2614	3.271		0.672671872	0.849015958	0.015073358	0.155509053	0.047929400
2020-01-14T11:15:00	0.2594	3.226		0.666178555	0.839119991	0.014801639	0.152705781	0.047065405
2020-01-14T11:20:00	0.2581	3.231		0.661969963	0.832725318	0.014626910	0.150903138	0.046509813
2020-01-14T11:25:00	0.2564	3.248		0.656442911	0.824350368	0.014399092	0.148552782	0.045785410
2020-01-14T11:30:00	0.2559	3.272		0.654524078	0.821448934	0.014320438	0.147741318	0.045535309
2020-01-14T11:35:00	0.2545	3.300		0.649972867	0.814579695	0.014134780	0.145825915	0.044944963
2020-01-14T11:40:00	0.2531	3.331		0.645415902	0.807719462	0.013950153	0.143921154	0.044357898
2020-01-14T11:45:00	0.2525	3.364		0.643491188	0.804827234	0.013872552	0.143120566	0.044111148
2020-01-14T11:50:00	0.2541	3.401		0.648813942	0.812833326	0.014087705	0.145340259	0.044795279
2020-01-14T11:55:00	0.2527	3.425		0.644255508	0.805975385	0.013903341	0.143438208	0.044209049
2020-01-14T12:00:00	0.2511	3.444		0.638701209	0.797643099	0.013680409	0.141138257	0.043500182
2020-01-14T12:05:00	0.2515	3.464		0.640073875	0.799699867	0.013735329	0.141704857	0.043674813
2020-01-14T12:10:00	0.2512	3.488		0.639136532	0.798295202	0.013697814	0.141317819	0.043555524
2020-01-14T12:15:00	0.2496	3.510		0.633904829	0.790468880	0.013489405	0.139167704	0.042892838
2020-01-14T12:20:00	0.2499	3.537		0.634948929	0.792028939	0.013530865	0.139595438	0.043024670
2020-01-14T12:25:00	0.2517	3.559		0.640944135	0.801004670	0.013770207	0.142064689	0.043785717
2020-01-14T12:30:00	0.2518	3.580		0.641326586	0.801578293	0.013785550	0.142222974	0.043834502
2020-01-14T12:35:00	0.2503	3.597		0.636098079	0.793747028	0.013576572	0.140066996	0.043170008
2020-01-14T12:40:00	0.2507	3.610		0.637471741	0.795802253	0.013631315	0.140631767	0.043344077
2020-01-14T12:45:00	0.2518	3.624		0.641154550	0.801320248	0.013778647	0.142151762	0.043812554
2020-01-14T12:50:00	0.2509	3.637		0.638237343	0.796948416	0.013661876	0.140947052	0.043441250
2020-01-14T12:55:00	0.2506	3.650		0.637299520	0.795544494	0.013624446	0.140560895	0.043322233
2020-01-14T13:00:00	0.2521	3.667		0.642301715	0.803041411	0.013824708	0.142626965	0.043959016
2020-01-14T13:05:00	0.2516	3.680		0.640375333	0.800151777	0.013747406	0.141829449	0.043713214
2020-01-14T13:10:00	0.2522	3.693		0.642406884	0.803199259	0.013828935	0.142670572	0.043972456
2020-01-14T13:15:00	0.2536	3.699		0.647072691	0.810211611	0.014017132	0.144612163	0.044570873
2020-01-14T13:20:00	0.2535	3.703		0.646795891	0.809795085	0.014005930	0.144496596	0.044535254
2020-01-14T13:25:00	0.2541	3.704		0.648823821	0.812848208	0.014088106	0.145344395	0.044796554
2020-01-14T13:30:00	0.2547	3.707		0.650850610	0.815903115	0.014170487	0.146194302	0.045058504
2020-01-14T13:35:00	0.2565	3.708		0.656490975	0.824423084	0.014401065	0.148573138	0.045791684
2020-01-14T13:40:00	0.2570	3.710		0.658185187	0.826987558	0.014470705	0.149291595	0.046013119
2020-01-14T13:45:00	0.2567	3.709		0.657252544	0.825575544	0.014432348	0.148895869	0.045891153
2020-01-14T13:50:00	0.2570	3.708		0.658289894	0.827146130	0.014475015	0.149336057	0.046026823
2020-01-14T13:55:00	0.2563	3.708		0.656043570	0.823746272	0.014382705	0.148383711	0.045733301
2020-01-14T14:00:00	0.2548	3.706		0.651165360	0.816377841	0.014183303	0.146326521	0.045099255
2020-01-14T14:05:00	0.2553	3.704		0.652533281	0.818442006	0.014239071	0.146901873	0.045276584
2020-01-14T14:10:00	0.2547	3.702		0.650612368	0.815543840	0.014160790	0.146094265	0.045027671
2020-01-14T14:15:00	0.2546	3.700		0.650335840	0.815126889	0.014149540	0.145978195	0.044991898
2020-01-14T14:20:00	0.2544	3.698		0.649730244	0.814213994	0.014124918	0.145724172	0.044913605
2020-01-14T14:25:00	0.2534	3.698		0.646490645	0.809335828	0.013993582	0.144369208	0.044495992
2020-01-14T14:30:00	0.2525	3.694		0.643577767	0.804957267	0.013876038	0.143156529	0.044122233
2020-01-14T14:35:00	0.2531	3.690		0.645607510	0.808007561	0.013957890	0.144000982	0.044382501
2020-01-14T14:40:00	0.2535	3.687		0.646648214	0.809572888	0.013999955	0.144434959	0.044516257
2020-01-14T14:45:00	0.2538	3.682		0.647688616	0.811138684	0.014042074	0.144869491	0.044650184
2020-01-14T14:50:00	0.2529	3.676		0.644776709	0.806758611	0.013924357	0.143655023	0.044275873
2020-01-14T14:55:00	0.2535	3.669		0.646805776	0.809809958	0.014006330	0.144500722	0.044536526
2020-01-14T15:00:00	0.2553	3.659		0.652781264	0.818816379	0.014249193	0.147006303	0.045308770
2020-01-14T15:05:00	0.2550	3.649		0.651847225	0.817406562	0.014211087	0.146613168	0.045187602
2020-01-14T15:10:00	0.2547	3.637		0.650583974	0.815501025	0.014159635	0.146082345	0.045023997
2020-01-14T15:15:00	0.2557	3.621		0.653924732	0.820543317	0.014295916	0.147488333	0.045457337
2020-01-14T15:20:00	0.2567	3.605		0.657262401	0.825590462	0.014432753	0.148900048	0.045892441
2020-01-14T15:25:00	0.2558	3.590		0.654358217	0.821198286	0.014313650	0.147671285	0.045513724
2020-01-14T15:30:00	0.2563	3.574		0.656053430	0.823761185	0.014383109	0.148387884	0.045734587
2020-01-14T15:35:00	0.2567	3.559		0.657419500	0.825828258	0.014439210	0.148966669	0.045912974
2020-01-14T15:40:00	0.2564	3.544		0.656158198	0.823919659	0.014387408	0.148432232	0.045748255
2020-01-14T15:45:00	0.2557	3.531		0.653910548	0.820521889	0.014295336	0.147482349	0.045455492
2020-01-14T15:50:00	0.2562	3.519		0.655605971	0.823084457	0.014364758	0.148198559	0.045676235
2020-01-14T15:55:00	0.2557	3.508		0.654015379	0.820680266	0.014299624	0.147526581	0.045469125
2020-01-14T16:00:00	0.2550	3.498		0.651766394	0.817284593	0.014207792	0.146579173	0.045177125
2020-01-14T16:05:00	0.2556	3.491		0.653646038	0.820122313	0.014284521	0.147370773	0.045421104
2020-01-14T16:10:00	0.2557	3.480		0.653881660	0.820478246	0.014294155	0.147470161	0.045451736
2020-01-14T16:15:00	0.2565	3.469		0.656745606	0.824808354	0.014411521	0.148681002	0.045824929
2020-01-14T16:20:00	0.2563	3.456		0.655995686	0.823673846	0.014380740	0.148363445	0.045727055
2020-01-14T16:25:00	0.2571	3.444		0.658529712	0.827509354	0.014484888	0.149437918	0.046058218
2020-01-14T16:30:00	0.2577	3.429		0.660733917	0.830850111	0.014575800	0.150375838	0.046347294
2020-01-14T16:35:00	0.2572	3.418		0.659000304	0.828222248	0.014504272	0.149637903	0.046119855
2020-01-14T16:40:00	0.2574	3.406		0.659563759	0.829076068	0.014527500	0.149877537	0.046193712
2020-01-14T16:45:00	0.2580	3.395		0.661439352	0.831920167	0.014604958	0.150676660	0.046440010
2020-01-14T16:50:00	0.2583	3.383		0.662658260	0.833770101	0.014655412	0.151197185	0.046600441
2020-01-14T16:55:00	0.2593	3.374		0.665842883	0.838609403	0.014787663	0.152561593	0.047020965
2020-01-14T17:00:00	0.2598	3.364		0.667387785	0.840960144	0.014852044	0.153225799	0.047225679
2020-01-14T17:05:00	0.2604	3.355		0.669259335	0.843810658	0.014930234	0.154032469	0.047474303
2020-01-14T17:10:00	0.2606	3.347		0.670148423	0.845165861	0.014967454	0.154416460	0.047592653
2020-01-14T17:15:00	0.2600	3.340		0.668091927	0.842032253	0.014881436	0.153529035	0.047319140
2020-01-14T17:20:00	0.2618	3.334		0.673887717	0.850872960	0.015124524	0.156036929	0.048092097
2020-01-14T17:25:00	0.2611	3.329		0.671833337	0.847735974	0.015038123	0.155145539	0.047817362
2020-01-14T17:30:00	0.2618	3.326		0.674029475	0.851089554	0.015130496	0.156098536	0.048111085
2020-01-14T17:35:00	0.2624	3.320		0.675897608	0.853945525	0.015209307	0.156911613	0.048361683
2020-01-14T17:40:00	0.2628	3.315		0.677111674	0.855803178	0.015260640	0.157441206	0.048524909
2020-01-14T17:45:00	0.2633	3.312		0.678978227	0.858661685	0.015339739	0.158257255	0.048776423
2020-01-14T17:50:00	0.2629	3.309		0.677579863	0.856519897	0.015280460	0.157645688	0.048587932
2020-01-14T17:55:00	0.2628	3.308		0.677160833	0.855878424	0.015262720	0.157462670	0.048531524
2020-01-14T18:00:00	0.2633	3.305		0.679027361	0.858736971	0.015341824	0.158278766	0.048783053
2020-01-14T18:05:00	0.2625	3.305		0.676322629	0.854595709	0.015227267	0.157096906	0.048418792
2020-01-14T18:10:00	0.2632	3.304		0.678516060	0.857953626	0.015320133	0.158054991	0.048714083
2020-01-14T18:15:00	0.2630	3.303		0.677770627	0.856811980	0.015288540	0.157729044	0.048613623
2020-01-14T18:20:00	0.2629	3.303		0.677678168	0.856670410	0.015284623	0.157688640	0.048601170
2020-01-14T18:25:00	0.2628	3.301		0.677259150	0.856028919	0.015266881	0.157505601	0.048544756
2020-01-14T18:30:00	0.2616	3.299		0.673245612	0.849892092	0.015097491	0.155758033	0.048006139
2020-01-14T18:35:00	0.2622	3.296		0.675440897	0.853247036	0.015190020	0.156712631	0.048300355
2020-01-14T18:40:00	0.2631	3.291		0.678287876	0.857604106	0.015310458	0.157955178	0.048683320
2020-01-14T18:45:00	0.2629	3.284		0.677542396	0.856462536	0.015278873	0.157629319	0.048582887
2020-01-14T18:50:00	0.2635	3.277		0.679408729	0.859321397	0.015358012	0.158445784	0.048834529
2020-01-14T18:55:00	0.2622	3.270		0.675397562	0.853180768	0.015188190	0.156693758	0.048294538
2020-01-14T19:00:00	0.2635	3.263		0.679550272	0.859538336	0.015364023	0.158507795	0.048853642
2020-01-14T19:05:00	0.2617	3.256		0.673578379	0.850400377	0.015111498	0.155902537	0.048050676
2020-01-14T19:10:00	0.2620	3.250		0.674793218	0.852256789	0.015162690	0.156430676	0.048213453
2020-01-14T19:15:00	0.2618	3.246		0.674047023	0.851116367	0.015131235	0.156106164	0.048113436
2020-01-14T19:20:00	0.2609	3.243		0.671011467	0.846482016	0.015003630	0.154789683	0.047707683
2020-01-14T19:25:00	0.2601	3.239		0.668300766	0.842350308	0.014890160	0.153619032	0.047346878
2020-01-14T19:30:00	0.2605	3.237		0.669844622	0.844702713	0.014954730	0.154285194	0.047552195
2020-01-14T19:35:00	0.2606	3.235		0.670079192	0.845060311	0.014964554	0.154386542	0.047583432
2020-01-14T19:40:00	0.2603	3.232		0.669004730	0.843422698	0.014919584	0.153922599	0.047440440
2020-01-14T19:45:00	0.2600	3.226		0.668257345	0.842284176	0.014888346	0.153600318	0.047341110
2020-01-14T19:50:00	0.2595	3.217		0.666527329	0.839650611	0.014816168	0.152855673	0.047111603
2020-01-14T19:55:00	0.2597	3.209		0.667089614	0.840506284	0.014839607	0.153097487	0.047186132
2020-01-14T20:00:00	0.2588	3.203		0.664048234	0.835881215	0.014713058	0.151791911	0.046783741
2020-01-14T20:05:00	0.2575	3.195		0.660020057	0.829767709	0.014546324	0.150071744	0.046253569
2020-01-14T20:10:00	0.2574	3.187		0.659598995	0.829129472	0.014528953	0.149892529	0.046198333
2020-01-14T20:15:00	0.2559	3.179		0.654580133	0.821533648	0.014322732	0.147764990	0.045542605
2020-01-14T20:20:00	0.2561	3.172		0.655472831	0.822883133	0.014359300	0.148142250	0.045658880
2020-01-14T20:25:00	0.2547	3.166		0.650777209	0.815792419	0.014167499	0.146163477	0.045049003
2020-01-14T20:30:00	0.2553	3.164		0.652657368	0.818629330	0.014244136	0.146954123	0.045292688
2020-01-14T20:35:00	0.2555	3.162		0.653221813	0.819481592	0.014267185	0.147191919	0.045365979
2020-01-14T20:40:00	0.2536	3.157		0.647206328	0.810412730	0.014022541	0.144667975	0.044588075
2020-01-14T20:45:00	0.2535	3.152		0.646783769	0.809776844	0.014005439	0.144491536	0.044533695
2020-01-14T20:50:00	0.2535	3.147		0.646690515	0.809636532	0.014001667	0.144452613	0.044521698
2020-01-14T20:55:00	0.2533	3.145		0.646267895	0.809000742	0.013984575	0.144276286	0.044467352
2020-01-14T21:00:00	0.2521	3.144		0.642219811	0.802918488	0.013821417	0.142593010	0.043948550
2020-01-14T21:05:00	0.2511	3.143		0.638827344	0.797832030	0.013685451	0.141190273	0.043516213
2020-01-14T21:10:00	0.2516	3.142		0.640383852	0.800164550	0.013747747	0.141832971	0.043714299
2020-01-14T21:15:00	0.2516	3.141		0.640620344	0.800519127	0.013757225	0.141930754	0.043744437
2020-01-14T21:20:00	0.2515	3.138		0.640197010	0.799884447	0.013740261	0.141755742	0.043690496
2020-01-14T21:25:00	0.2512	3.137		0.639113617	0.798260873	0.013696897	0.141308364	0.043552610
2020-01-14T21:30:00	0.2510	3.135		0.638360017	0.797132114	0.013666776	0.140997605	0.043456831
2020-01-14T21:35:00	0.2503	3.133		0.636285322	0.794027080	0.013584028	0.140143910	0.043193714
2020-01-14T21:40:00	0.2497	3.133		0.634209426	0.790923902	0.013501493	0.139292417	0.042931276
2020-01-14T21:45:00	0.2505	3.132		0.636758829	0.794735420	0.013602890	0.140338511	0.043253692
2020-01-14T21:50:00	0.2518	3.131		0.641285978	0.801517381	0.013783920	0.142206163	0.043829321
2020-01-14T21:55:00	0.2529	3.129		0.644819032	0.806822221	0.013926064	0.143672636	0.044281302
2020-01-14T22:00:00	0.2535	3.129		0.646702302	0.809654268	0.014002143	0.144457533	0.044523215
2020-01-14T22:05:00	0.2539	3.128		0.647978697	0.811575417	0.014053829	0.144990767	0.044687563
2020-01-14T22:10:00	0.2550	3.125		0.651557642	0.816969623	0.014199284	0.146491395	0.045150071
2020-01-14T22:15:00	0.2563	3.119		0.656118613	0.823859781	0.014385783	0.148415475	0.045743091
2020-01-14T22:20:00	0.2568	3.113		0.657720030	0.826283221	0.014451567	0.149094157	0.045952267
2020-01-14T22:25:00	0.2572	3.105		0.658992534	0.828210477	0.014503952	0.149634600	0.046118837
2020-01-14T22:30:00	0.2566	3.096		0.656982067	0.825166182	0.014421233	0.148781207	0.045855813
2020-01-14T22:35:00	0.2554	3.087		0.652998436	0.819144280	0.014258061	0.147097788	0.045336967
2020-01-14T22:40:00	0.2554	3.078		0.652957773	0.819082882	0.014256401	0.147080656	0.045331687
2020-01-14T22:45:00	0.2541	3.068		0.648640548	0.812572140	0.014080669	0.145267669	0.044772907
2020-01-14T22:50:00	0.2547	3.058		0.650574286	0.815486416	0.014159241	0.146078278	0.045022744
2020-01-14T22:55:00	0.2541	3.053		0.648888277	0.812945307	0.014090722	0.145371384	0.044804872
2020-01-14T23:00:00	0.2533	3.049		0.646213464	0.808918867	0.013982375	0.144253584	0.044460356
2020-01-14T23:05:00	0.2543	3.048		0.649465091	0.813814393	0.014114144	0.145613024	0.044879348
2020-01-14T23:10:00	0.2530	3.050		0.645143677	0.807310203	0.013939164	0.143807780	0.044322955
2020-01-14T23:15:00	0.2530	3.052		0.645102925	0.807248944	0.013937519	0.143790813	0.044317725
2020-01-14T23:20:00	0.2541	3.052		0.648684727	0.812638685	0.014082462	0.145286163	0.044778606
2020-01-14T23:25:00	0.2543	3.053		0.649302277	0.813569053	0.014107531	0.145544796	0.044858320
2020-01-14T23:30:00	0.2550	3.055		0.651564570	0.816980077	0.014199566	0.146494308	0.045150969
2020-01-14T23:35:00	0.2567	3.057		0.657439211	0.825858096	0.014440020	0.148975029	0.045915551
2020-01-14T23:40:00	0.2565	3.060		0.656741811	0.824802613	0.014411365	0.148679395	0.045824433
2020-01-14T23:45:00	0.2558	3.061		0.654401470	0.821263647	0.014315420	0.147689546	0.045519352
2020-01-14T23:50:00	0.2566	3.057		0.656988985	0.825176652	0.014421518	0.148784139	0.045856717
2020-01-14T23:55:00	0.2560	3.047		0.654977403	0.822134114	0.014339000	0.147932817	0.045594331
2020-01-15T00:00:00	0.2540	3.039		0.648359022	0.812148126	0.014069249	0.145149852	0.044736594
2020-01-15T00:05:00	0.2542	3.032		0.648976628	0.813078407	0.014094309	0.145408383	0.044816276
2020-01-15T00:10:00	0.2526	3.027		0.643665913	0.805089659	0.013879588	0.143193147	0.044133519
2020-01-15T00:15:00	0.2533	3.026		0.646261142	0.808990584	0.013984302	0.144273469	0.044466484
2020-01-15T00:20:00	0.2534	3.024		0.646549771	0.809424781	0.013995974	0.144393879	0.044503596
2020-01-15T00:25:00	0.2531	3.023		0.645520831	0.807877227	0.013954390	0.143964867	0.044371370
2020-01-15T00:30:00	0.2529	3.022		0.644821122	0.806825362	0.013926148	0.143673506	0.044281570
2020-01-15T00:35:00	0.2522	3.021		0.642473024	0.803298533	0.013831593	0.142697999	0.043980909
2020-01-15T00:40:00	0.2518	3.018		0.641113081	0.801258050	0.013776984	0.142134599	0.043807264
2020-01-15T00:45:00	0.2513	3.015		0.639422631	0.798723860	0.013709259	0.141435894	0.043591916
2020-01-15T00:50:00	0.2517	3.013		0.640701612	0.800640984	0.013760483	0.141964364	0.043754796
2020-01-15T00:55:00	0.2504	3.010		0.636699916	0.794647278	0.013600543	0.140314291	0.043246227
2020-01-15T01:00:00	0.2506	3.009		0.637319528	0.795574439	0.013625244	0.140569128	0.043324770
2020-01-15T01:05:00	0.2510	3.010		0.638599259	0.797490403	0.013676334	0.141096222	0.043487226
2020-01-15T01:10:00	0.2512	3.014		0.639218544	0.798418072	0.013701094	0.141351660	0.043565955
2020-01-15T01:15:00	0.2513	3.022		0.639507738	0.798851388	0.013712664	0.141471028	0.043602745
2020-01-15T01:20:00	0.2513	3.032		0.639466923	0.798790228	0.013711031	0.141454178	0.043597551
2020-01-15T01:25:00	0.2522	3.041		0.642394933	0.803181322	0.013828455	0.142665616	0.043970928
2020-01-15T01:30:00	0.2509	3.050		0.638065009	0.796690376	0.013654994	0.140876051	0.043419367
2020-01-15T01:35:00	0.2499	3.056		0.635051732	0.792182593	0.013534951	0.139637590	0.043037661
2020-01-15T01:40:00	0.2503	3.064		0.636332271	0.794097305	0.013585897	0.140163199	0.043199659
2020-01-15T01:45:00	0.2502	3.073		0.635961110	0.793542188	0.013571120	0.140010747	0.043152672
2020-01-15T01:50:00	0.2499	3.081		0.634929131	0.791999349	0.013530078	0.139587321	0.043022168
2020-01-15T01:55:00	0.2494	3.088		0.633235764	0.789469672	0.013462872	0.138893968	0.042808470
2020-01-15T02:00:00	0.2497	3.096		0.634186480	0.790889622	0.013500582	0.139283020	0.042928379
2020-01-15T02:05:00	0.2496	3.101		0.633815096	0.790334847	0.013485845	0.139130975	0.042881518
2020-01-15T02:10:00	0.2501	3.106		0.635426467	0.792742768	0.013549849	0.139791297	0.043085035
2020-01-15T02:15:00	0.2505	3.108		0.637037114	0.795151807	0.013613982	0.140452946	0.043288962
2020-01-15T02:20:00	0.2505	3.110		0.636996270	0.795090690	0.013612354	0.140436147	0.043283784
2020-01-15T02:25:00	0.2519	3.115		0.641575716	0.801952020	0.013795548	0.142326131	0.043866296
2020-01-15T02:30:00	0.2515	3.119		0.640215433	0.799912064	0.013740999	0.141763356	0.043692843
2020-01-15T02:35:00	0.2529	3.124		0.644790779	0.806779758	0.013924924	0.143660878	0.044277678
2020-01-15T02:40:00	0.2537	3.128		0.647385198	0.810681947	0.014029784	0.144742696	0.044611105
2020-01-15T02:45:00	0.2545	3.130		0.649977749	0.814587054	0.014134978	0.145827963	0.044945594
2020-01-15T02:50:00	0.2547	3.131		0.650595078	0.815517769	0.014160087	0.146087006	0.045025434
2020-01-15T02:55:00	0.2541	3.125		0.648579927	0.812480832	0.014078210	0.145242296	0.044765086
2020-01-15T03:00:00	0.2550	3.118		0.651829420	0.817379695	0.014210361	0.146605680	0.045185294
2020-01-15T03:05:00	0.2546	3.112		0.650473007	0.815333703	0.014155120	0.146035764	0.045009641
2020-01-15T03:10:00	0.2541	3.106		0.648786951	0.812792668	0.014086610	0.145328958	0.044791796
2020-01-15T03:15:00	0.2537	3.102		0.647429392	0.810748468	0.014031574	0.144761161	0.044616796
2020-01-15T03:20:00	0.2532	3.097		0.645741910	0.808209661	0.013963319	0.144056989	0.044399763
2020-01-15T03:25:00	0.2528	3.092		0.644383203	0.806167254	0.013908489	0.143491312	0.044225416
2020-01-15T03:30:00	0.2520	3.092		0.641705038	0.802146039	0.013800740	0.142379694	0.043882804
2020-01-15T03:35:00	0.2525	3.092		0.643312871	0.804559439	0.013865374	0.143046512	0.044088324
2020-01-15T03:40:00	0.2511	3.091		0.638984053	0.798066775	0.013691716	0.141254911	0.043536135
2020-01-15T03:45:00	0.2501	3.090		0.635641209	0.793063830	0.013558391	0.139879419	0.043112195
2020-01-15T03:50:00	0.2511	3.087		0.638902410	0.797944473	0.013688452	0.141221234	0.043525756
2020-01-15T03:55:00	0.2512	3.087		0.639191630	0.798377750	0.013700017	0.141340554	0.043562532
2020-01-15T04:00:00	0.2515	3.087		0.640140768	0.799800139	0.013738008	0.141732499	0.043683333
2020-01-15T04:05:00	0.2512	3.087		0.639153764	0.798321019	0.013698503	0.141324929	0.043557716
2020-01-15T04:10:00	0.2505	3.087		0.636845758	0.794865481	0.013606355	0.140374252	0.043264708
2020-01-15T04:15:00	0.2496	3.088		0.633875293	0.790424761	0.013488233	0.139155614	0.042889112
2020-01-15T04:20:00	0.2503	3.090		0.636191122	0.793886185	0.013580277	0.140105212	0.043181787
2020-01-15T04:25:00	0.2506	3.094		0.637184850	0.795372886	0.013619873	0.140513717	0.043307692
2020-01-15T04:30:00	0.2507	3.099		0.637518002	0.795871495	0.013633161	0.140650808	0.043349945
2020-01-15T04:35:00	0.2503	3.102		0.636199988	0.793899446	0.013580630	0.140108854	0.043182910
2020-01-15T04:40:00	0.2507	3.107		0.637523910	0.795880339	0.013633397	0.140653240	0.043350695
2020-01-15T04:45:00	0.2504	3.111		0.636536186	0.794402335	0.013594019	0.140246992	0.043225485
2020-01-15T04:50:00	0.2495	3.118		0.633565464	0.789962011	0.013475943	0.139028824	0.042850034
2020-01-15T04:55:00	0.2498	3.125		0.634559921	0.791447588	0.013515410	0.139435994	0.042975528
2020-01-15T05:00:00	0.2503	3.134		0.636214765	0.793921548	0.013581218	0.140114925	0.043184781
2020-01-15T05:05:00	0.2499	3.140		0.634896273	0.791950239	0.013528772	0.139573850	0.043018016
2020-01-15T05:10:00	0.2507	3.145		0.637541637	0.795906872	0.013634104	0.140660536	0.043352943
2020-01-15T05:15:00	0.2504	3.149		0.636553917	0.794428860	0.013594726	0.140254280	0.043227731
2020-01-15T05:20:00	0.2501	3.153		0.635565926	0.792951269	0.013555396	0.139848522	0.043102673
2020-01-15T05:25:00	0.2499	3.156		0.634908099	0.791967914	0.013529242	0.139578698	0.043019510
2020-01-15T05:30:00	0.2500	3.159		0.635241462	0.792466197	0.013542493	0.139715401	0.043061644
2020-01-15T05:35:00	0.2506	3.162		0.637226215	0.795434789	0.013621522	0.140530735	0.043312937
2020-01-15T05:40:00	0.2510	3.163		0.638549759	0.797416269	0.013674356	0.141075815	0.043480936
2020-01-15T05:45:00	0.2517	3.164		0.640862573	0.800882356	0.013766936	0.142030945	0.043775317
2020-01-15T05:50:00	0.2511	3.164		0.638885737	0.797919498	0.013687785	0.141214357	0.043523636
2020-01-15T05:55:00	0.2506	3.166		0.637238034	0.795452476	0.013621994	0.140535597	0.043314436
2020-01-15T06:00:00	0.2521	3.164		0.642190679	0.802874768	0.013820246	0.142580933	0.043944828
2020-01-15T06:05:00	0.2519	3.160		0.641534065	0.801889534	0.013793877	0.142308882	0.043860979
2020-01-15T06:10:00	0.2507	3.156		0.637577089	0.795959938	0.013635518	0.140675129	0.043357441
2020-01-15T06:15:00	0.2510	3.154		0.638570434	0.797447233	0.013675183	0.141084338	0.043483563
2020-01-15T06:20:00	0.2510	3.154		0.638573388	0.797451656	0.013675301	0.141085556	0.043483938
2020-01-15T06:25:00	0.2513	3.155		0.639566457	0.798939378	0.013715014	0.141495271	0.043610217
2020-01-15T06:30:00	0.2512	3.157		0.639239401	0.798449322	0.013701928	0.141360268	0.043568607
2020-01-15T06:35:00	0.2511	3.157		0.638912316	0.797959313	0.013688848	0.141225320	0.043527015
2020-01-15T06:40:00	0.2517	3.157		0.640895041	0.800931046	0.013768238	0.142044378	0.043779457
2020-01-15T06:45:00	0.2520	3.156		0.641887469	0.802419763	0.013808066	0.142455272	0.043906098
2020-01-15T06:50:00	0.2514	3.157		0.639911197	0.799456030	0.013728814	0.141637646	0.043654098
2020-01-15T06:55:00	0.2522	3.159		0.642552869	0.803418382	0.013834803	0.142731114	0.043991115
2020-01-15T07:00:00	0.2512	3.160		0.639257119	0.798475868	0.013702637	0.141367580	0.043570861
2020-01-15T07:05:00	0.2512	3.162		0.639260072	0.798480292	0.013702755	0.141368798	0.043571237
2020-01-15T07:10:00	0.2509	3.166		0.638272826	0.797001548	0.013663293	0.140961673	0.043445757
2020-01-15T07:15:00	0.2514	3.174		0.639925959	0.799478156	0.013729405	0.141643745	0.043655978
2020-01-15T07:20:00	0.2525	3.184		0.643556636	0.804925529	0.013875187	0.143147751	0.044119527
2020-01-15T07:25:00	0.2518	3.193		0.641251459	0.801465604	0.013782535	0.142191874	0.043824917
2020-01-15T07:30:00	0.2517	3.204		0.640924557	0.800975310	0.013769422	0.142056589	0.043783220
2020-01-15T07:35:00	0.2524	3.219		0.643235843	0.804443769	0.013862274	0.143014530	0.044078467
2020-01-15T07:40:00	0.2527	3.232		0.644227625	0.805933490	0.013902217	0.143426613	0.044205475
2020-01-15T07:45:00	0.2544	3.246		0.649828823	0.814362574	0.014128924	0.145765506	0.044926345
2020-01-15T07:50:00	0.2539	3.261		0.648186128	0.811887760	0.014062238	0.145077522	0.044714301
2020-01-15T07:55:00	0.2538	3.281		0.647859856	0.811396486	0.014049013	0.144941076	0.044672247
2020-01-15T08:00:00	0.2540	3.300		0.648521207	0.812392389	0.014075828	0.145217720	0.044757512
2020-01-15T08:05:00	0.2532	3.321		0.645889812	0.808432081	0.013969294	0.144118635	0.044418763
2020-01-15T08:10:00	0.2528	3.341		0.644574867	0.806455268	0.013916216	0.143571038	0.044249988
2020-01-15T08:15:00	0.2528	3.357		0.644577815	0.806459699	0.013916335	0.143572265	0.044250366
2020-01-15T08:20:00	0.2544	3.363		0.649849433	0.814393639	0.014129762	0.145774149	0.044929008
2020-01-15T08:25:00	0.2541	3.368		0.648865090	0.812910376	0.014089781	0.145361675	0.044801880
2020-01-15T08:30:00	0.2548	3.383		0.651171284	0.816386776	0.014183544	0.146329010	0.045100022
2020-01-15T08:35:00	0.2553	3.406		0.652818503	0.818872602	0.014250714	0.147021988	0.045313604
2020-01-15T08:40:00	0.2544	3.421		0.649861210	0.814411391	0.014130241	0.145779088	0.044930531
2020-01-15T08:45:00	0.2538	3.437		0.647889315	0.811440839	0.014050207	0.144953393	0.044676043
2020-01-15T08:50:00	0.2525	3.449		0.643609726	0.805005266	0.013877325	0.143169805	0.044126324
2020-01-15T08:55:00	0.2530	3.461		0.645260406	0.807485684	0.013943875	0.143856389	0.044337936
2020-01-15T09:00:00	0.2523	3.476		0.642956321	0.804024059	0.013851028	0.142898500	0.044042706
2020-01-15T09:05:00	0.2522	3.491		0.642629574	0.803533525	0.013837887	0.142762930	0.044000921
2020-01-15T09:10:00	0.2528	3.509		0.644610250	0.806508441	0.013917643	0.143585759	0.044254525
2020-01-15T09:15:00	0.2543	3.529		0.649552757	0.813946504	0.014117706	0.145649767	0.044890673
2020-01-15T09:20:00	0.2566	3.557		0.657116564	0.825369733	0.014426759	0.148838218	0.045873384
2020-01-15T09:25:00	0.2573	3.586		0.659417495	0.828854404	0.014521468	0.149815313	0.046174534
2020-01-15T09:30:00	0.2572	3.610		0.659092237	0.828361538	0.014508061	0.149676988	0.046131901
2020-01-15T09:35:00	0.2591	3.628		0.665325790	0.837823046	0.014766147	0.152339615	0.046952549
2020-01-15T09:40:00	0.2594	3.635		0.665983953	0.838823972	0.014793536	0.152622181	0.047039638
2020-01-15T09:45:00	0.2593	3.642		0.665659284	0.838330172	0.014780022	0.152482758	0.046996667
2020-01-15T09:50:00	0.2604	3.643		0.669264191	0.843818059	0.014930437	0.154034565	0.047474949
2020-01-15T09:55:00	0.2587	3.641		0.663698925	0.835350523	0.014698560	0.151642338	0.046737641
2020-01-15T10:00:00	0.2578	3.645		0.660750526	0.830875301	0.014576486	0.150382917	0.046349476
2020-01-15T10:05:00	0.2575	3.654		0.660007309	0.829748384	0.014545798	0.150066317	0.046251896
2020-01-15T10:10:00	0.2558	3.664		0.654337670	0.821167237	0.014312809	0.147662610	0.045511051
2020-01-15T10:15:00	0.2549	3.677		0.651291431	0.816568013	0.014188438	0.146379498	0.045115583
2020-01-15T10:20:00	0.2537	3.686		0.647584161	0.810981438	0.014037843	0.144825834	0.044636729
2020-01-15T10:25:00	0.2529	3.684		0.644861727	0.806886392	0.013927787	0.143690406	0.044286779
2020-01-15T10:30:00	0.2521	3.689		0.642137232	0.802794559	0.013818099	0.142558779	0.043938000
2020-01-15T10:35:00	0.2509	3.699		0.638090398	0.796728389	0.013656007	0.140886510	0.043422591
2020-01-15T10:40:00	0.2497	3.705		0.634369481	0.791163033	0.013507847	0.139357973	0.042951481
2020-01-15T10:45:00	0.2487	3.714		0.630975496	0.786096900	0.013373438	0.137971290	0.042524092
2020-01-15T10:50:00	0.2489	3.722		0.631549275	0.786952684	0.013396112	0.138205214	0.042596189
2020-01-15T10:55:00	0.2475	3.730		0.626828184	0.779919526	0.013210141	0.136286587	0.042004850
2020-01-15T11:00:00	0.2479	3.744		0.628395838	0.782252818	0.013271743	0.136922131	0.042200730
2020-01-15T11:05:00	0.2470	3.754		0.625327501	0.777687858	0.013151309	0.135679630	0.041817780
2020-01-15T11:10:00	0.2472	3.766		0.625902187	0.778542249	0.013173822	0.135911898	0.041889367
2020-01-15T11:15:00	0.2468	3.780		0.624489019	0.776441779	0.013118497	0.135341114	0.041713446
2020-01-15T11:20:00	0.2471	3.789		0.625726444	0.778280941	0.013166936	0.135840847	0.041867468
2020-01-15T11:25:00	0.2466	3.798		0.623981789	0.775688266	0.013098668	0.135136545	0.041650396
2020-01-15T11:30:00	0.2460	3.806		0.621904671	0.772604878	0.013017631	0.134300502	0.041392719
2020-01-15T11:35:00	0.2455	3.818		0.620158146	0.770015058	0.012949694	0.133599602	0.041176695
2020-01-15T11:40:00	0.2448	3.825		0.618078798	0.766935067	0.012869049	0.132767610	0.040920267
2020-01-15T11:45:00	0.2454	3.831		0.619982120	0.769754182	0.012942857	0.133529066	0.041154955
2020-01-15T11:50:00	0.2452	3.842		0.619230416	0.768640427	0.012913681	0.133228065	0.041062184
2020-01-15T11:55:00	0.2476	3.849		0.627429819	0.780814752	0.013233765	0.136530315	0.042079969
2020-01-15T12:00:00	0.2477	3.848		0.627673092	0.781176826	0.013243324	0.136628931	0.042110364
2020-01-15T12:05:00	0.2481	3.841		0.628909414	0.783017676	0.013291957	0.137130673	0.042265005
2020-01-15T12:10:00	0.2488	3.841		0.631137757	0.786338881	0.013379848	0.138037421	0.042544474
2020-01-15T12:15:00	0.2474	3.842		0.626747313	0.779799215	0.013206967	0.136253843	0.041994758
2020-01-15T12:20:00	0.2459	3.847		0.621688238	0.772283803	0.013009202	0.134213542	0.041365917
2020-01-15T12:25:00	0.2438	3.854		0.614628710	0.761832727	0.012735818	0.131393082	0.040496624
2020-01-15T12:30:00	0.2432	3.858		0.612546128	0.758757641	0.012655741	0.130566949	0.040242002
2020-01-15T12:35:00	0.2426	3.867		0.610795003	0.756174798	0.012588611	0.129874382	0.040028546
2020-01-15T12:40:00	0.2396	3.878		0.600712563	0.741353632	0.012205677	0.125923719	0.038810913
2020-01-15T12:45:00	0.2367	3.881		0.590935861	0.727063131	0.011840162	0.122152773	0.037648671
2020-01-15T12:50:00	0.2358	3.876		0.587834943	0.722547210	0.011725422	0.120969014	0.037283825
2020-01-15T12:55:00	0.2352	3.870		0.586071536	0.719982701	0.011660427	0.120298476	0.037077159
2020-01-15T13:00:00	0.2336	3.857		0.580618491	0.712068744	0.011460612	0.118237020	0.036441798
2020-01-15T13:05:00	0.2323	3.847		0.576164942	0.705623663	0.011298731	0.116566923	0.035927058
2020-01-15T13:10:00	0.2318	3.846		0.574731762	0.703553094	0.011246887	0.116032056	0.035762207
2020-01-15T13:15:00	0.2316	3.843		0.573970368	0.702453771	0.011219393	0.115748412	0.035674785
2020-01-15T13:20:00	0.2317	3.840		0.574217344	0.702810310	0.011228308	0.115840380	0.035703130
2020-01-15T13:25:00	0.2313	3.838		0.572783367	0.700740903	0.011176600	0.115306922	0.035538713
2020-01-15T13:30:00	0.2313	3.835		0.573030427	0.701097320	0.011185500	0.115398742	0.035567013
2020-01-15T13:35:00	0.2315	3.828		0.573613674	0.701938931	0.011206525	0.115615654	0.035633867
2020-01-15T13:40:00	0.2316	3.820		0.573860675	0.702295434	0.011215435	0.115707577	0.035662199
2020-01-15T13:45:00	0.2314	3.813		0.573099092	0.701196387	0.011187974	0.115424268	0.035574880
2020-01-15T13:50:00	0.2311	3.808		0.572337343	0.700097582	0.011160542	0.115141251	0.035487652
2020-01-15T13:55:00	0.2313	3.805		0.572920705	0.700939025	0.011181547	0.115357959	0.035554443
2020-01-15T14:00:00	0.2318	3.805		0.574512421	0.703236354	0.011238963	0.115950308	0.035737011
2020-01-15T14:05:00	0.2321	3.801		0.575431451	0.704563749	0.011272182	0.116293026	0.035842640
2020-01-15T14:10:00	0.2326	3.792		0.577357872	0.707348433	0.011341977	0.117013087	0.036064570
2020-01-15T14:15:00	0.2316	3.779		0.573908802	0.702364901	0.011217172	0.115725492	0.035667721
2020-01-15T14:20:00	0.2329	3.762		0.578187096	0.708548042	0.011372088	0.117323734	0.036160314
2020-01-15T14:25:00	0.2317	3.745		0.574402746	0.703077992	0.011235002	0.115909443	0.035724416
2020-01-15T14:30:00	0.2326	3.729		0.577337370	0.707318781	0.011341233	0.117005412	0.036062204
2020-01-15T14:35:00	0.2326	3.711		0.577248286	0.707189941	0.011338001	0.116972064	0.036051926
2020-01-15T14:40:00	0.2327	3.692		0.577495031	0.707546817	0.011346955	0.117064441	0.036080398
2020-01-15T14:45:00	0.2329	3.672		0.578413280	0.708875353	0.011380308	0.117408541	0.036186453
2020-01-15T14:50:00	0.2326	3.652		0.577316868	0.707289129	0.011340489	0.116997736	0.036059839
2020-01-15T14:55:00	0.2319	3.632		0.574876103	0.703761552	0.011252103	0.116085868	0.035778792
2020-01-15T15:00:00	0.2324	3.609		0.576466931	0.706060176	0.011309671	0.116679787	0.035961844
2020-01-15T15:05:00	0.2330	3.585		0.578728498	0.709331577	0.011391769	0.117526784	0.036222896
2020-01-15T15:10:00	0.2331	3.560		0.578975140	0.709688605	0.011400741	0.117619345	0.036251424
2020-01-15T15:15:00	0.2335	3.531		0.580228572	0.711503803	0.011446392	0.118090314	0.036396582
2020-01-15T15:20:00	0.2328	3.505		0.577789833	0.707973264	0.011357657	0.117174857	0.036114429
2020-01-15T15:25:00	0.2329	3.479		0.578372288	0.708816031	0.011378818	0.117393169	0.036181715
2020-01-15T15:30:00	0.2325	3.454		0.576940010	0.706744143	0.011326819	0.116856705	0.036016371
2020-01-15T15:35:00	0.2325	3.430		0.576850916	0.706615318	0.011323589	0.116823376	0.036006099
2020-01-15T15:40:00	0.2328	3.409		0.577769333	0.707943608	0.011356913	0.117167177	0.036112062
2020-01-15T15:45:00	0.2331	3.388		0.579023196	0.709758175	0.011402490	0.117637384	0.036256984
2020-01-15T15:50:00	0.2339	3.367		0.581618555	0.713518277	0.011497125	0.118613717	0.036557900
2020-01-15T15:55:00	0.2348	3.349		0.584547156	0.717767892	0.011604391	0.119720367	0.036898980
2020-01-15T16:00:00	0.2346	3.334		0.584123087	0.717152096	0.011588827	0.119559796	0.036849490
2020-01-15T16:05:00	0.2346	3.317		0.583945260	0.716893915	0.011582304	0.119492495	0.036828748
2020-01-15T16:10:00	0.2352	3.299		0.586113159	0.720043203	0.011661959	0.120314282	0.037082030
2020-01-15T16:15:00	0.2348	3.281		0.584595136	0.717837574	0.011606153	0.119738542	0.036904581
2020-01-15T16:20:00	0.2346	3.262		0.584082162	0.717092675	0.011587326	0.119544306	0.036844716
2020-01-15T16:25:00	0.2353	3.243		0.586249977	0.720242088	0.011666995	0.120366242	0.037098045
2020-01-15T16:30:00	0.2353	3.225		0.586407238	0.720470711	0.011672786	0.120425980	0.037116457
2020-01-15T16:35:00	0.2356	3.207		0.587234330	0.721673452	0.011703264	0.120740415	0.037213369
2020-01-15T16:40:00	0.2346	3.187		0.584041236	0.717033256	0.011585825	0.119528816	0.036839942
2020-01-15T16:45:00	0.2331	3.169		0.578831689	0.709480945	0.011395523	0.117565505	0.036234830
2020-01-15T16:50:00	0.2334	3.155		0.579996158	0.711167127	0.011437920	0.118002913	0.036369644
2020-01-15T16:55:00	0.2320	3.140		0.575116660	0.704109003	0.011260798	0.116175578	0.035806441
2020-01-15T17:00:00	0.2319	3.122		0.574938376	0.703851491	0.011254353	0.116109088	0.035785948
2020-01-15T17:05:00	0.2327	3.105		0.577447677	0.707478323	0.011345236	0.117046709	0.036074933
2020-01-15T17:10:00	0.2329	3.086		0.578276879	0.708677962	0.011375351	0.117357395	0.036170689
2020-01-15T17:15:00	0.2338	3.070		0.581454734	0.713280771	0.011491140	0.118551968	0.036538868
2020-01-15T17:20:00	0.2336	3.044		0.580605799	0.712050352	0.011460149	0.118232243	0.036440326
2020-01-15T17:25:00	0.2339	3.023		0.581769679	0.713737395	0.011502648	0.118670695	0.036575461
2020-01-15T17:30:00	0.2349	3.000		0.584944377	0.718344838	0.011618980	0.119870873	0.036945367
2020-01-15T17:35:00	0.2358	2.976		0.588116213	0.722956498	0.011735806	0.121076143	0.037316843
2020-01-15T17:40:00	0.2370	2.954		0.591954135	0.728547808	0.011877966	0.122542783	0.037768876
2020-01-15T17:45:00	0.2364	2.934		0.590104029	0.725850933	0.011809327	0.121834646	0.037550621
2020-01-15T17:50:00	0.2369	2.916		0.591599261	0.728030292	0.011864784	0.122406790	0.037726962
2020-01-15T17:55:00	0.2360	2.903		0.588744884	0.723871542	0.011759032	0.121315766	0.037390697
2020-01-15T18:00:00	0.2361	2.885		0.588902034	0.724100329	0.011764842	0.121375703	0.037409171
2020-01-15T18:05:00	0.2372	2.872		0.592739100	0.729692905	0.011907150	0.122843869	0.037861674
2020-01-15T18:10:00	0.2392	2.855		0.599242998	0.739200484	0.012150371	0.125353135	0.038635054
2020-01-15T18:15:00	0.2405	2.841		0.603735566	0.745788497	0.012319852	0.127101644	0.039173961
2020-01-15T18:20:00	0.2417	2.825		0.607556574	0.751405021	0.012464950	0.128598594	0.039635336
2020-01-15T18:25:00	0.2424	2.797		0.610042787	0.755066098	0.012559831	0.129577465	0.039937033
2020-01-15T18:30:00	0.2431	2.776		0.612194744	0.758239156	0.012642256	0.130427825	0.040199122
2020-01-15T18:35:00	0.2439	2.764		0.615009998	0.762396122	0.012750507	0.131544625	0.040543331
2020-01-15T18:40:00	0.2439	2.747		0.615165986	0.762626647	0.012756518	0.131606649	0.040562447
2020-01-15T18:45:00	0.2435	2.725		0.613660383	0.760402468	0.012698552	0.131008625	0.040378130
2020-01-15T18:50:00	0.2428	2.697		0.611489009	0.757198123	0.012615194	0.130148633	0.040113073
2020-01-15T18:55:00	0.2421	2.672		0.608983490	0.753505595	0.012519360	0.129159932	0.039808345
2020-01-15T19:00:00	0.2412	2.651		0.606143118	0.749325947	0.012411174	0.128043794	0.039464341
2020-01-15T19:05:00	0.2400	2.632		0.601966752	0.743192647	0.012252980	0.126411733	0.038961324
2020-01-15T19:10:00	0.2405	2.619		0.603790308	0.745868876	0.012321925	0.127123026	0.039180551
2020-01-15T19:15:00	0.2412	2.612		0.605946060	0.749036224	0.012403686	0.127966545	0.039440532
2020-01-15T19:20:00	0.2399	2.606		0.601769461	0.742903273	0.012245533	0.126334902	0.038937644
2020-01-15T19:25:00	0.2403	2.598		0.602926379	0.744600637	0.012289236	0.126785788	0.039076611
2020-01-15T19:30:00	0.2389	2.594		0.598412403	0.737984328	0.012119169	0.125031231	0.038535840
2020-01-15T19:35:00	0.2381	2.588		0.595563533	0.733817400	0.012012463	0.123930361	0.038196541
2020-01-15T19:40:00	0.2375	2.584		0.593715320	0.731117718	0.011943496	0.123218842	0.037977244
2020-01-15T19:45:00	0.2362	2.579		0.589189549	0.724518961	0.011775475	0.121485401	0.037442980
2020-01-15T19:50:00	0.2347	2.575		0.584322809	0.717442096	0.011596156	0.119635406	0.036872794
2020-01-15T19:55:00	0.2333	2.577		0.579449325	0.710375159	0.011418000	0.117797404	0.036306304
2020-01-15T20:00:00	0.2358	2.585		0.587987242	0.722768818	0.011731044	0.121027015	0.037301701
2020-01-15T20:05:00	0.2371	2.592		0.592494142	0.729335507	0.011898039	0.122749871	0.037832702
2020-01-15T20:10:00	0.2377	2.599		0.594322590	0.732004442	0.011966134	0.123452395	0.038049227
2020-01-15T20:15:00	0.2387	2.608		0.597819903	0.737117144	0.012096936	0.124801864	0.038465146
2020-01-15T20:20:00	0.2385	2.610		0.596974903	0.735880906	0.012065266	0.124475122	0.038364442
2020-01-15T20:25:00	0.2365	2.608		0.590446396	0.726349782	0.011822013	0.121965530	0.037590961
2020-01-15T20:30:00	0.2365	2.608		0.590268888	0.726091130	0.011815435	0.121897661	0.037570043
2020-01-15T20:35:00	0.2357	2.609		0.587748286	0.722421125	0.011722223	0.120936018	0.037273655
2020-01-15T20:40:00	0.2346	2.614		0.583885312	0.716806884	0.011580105	0.119469812	0.036821756
2020-01-15T20:45:00	0.2338	2.619		0.581360131	0.713143627	0.011487684	0.118516317	0.036527880
2020-01-15T20:50:00	0.2346	2.624		0.583864848	0.716777175	0.011579355	0.119462069	0.036819370
2020-01-15T20:55:00	0.2344	2.627		0.583351767	0.716032434	0.011560546	0.119268022	0.036759563
2020-01-15T21:00:00	0.2350	2.628		0.585184966	0.718694346	0.011627820	0.119962078	0.036973478
2020-01-15T21:05:00	0.2334	2.633		0.579977115	0.711139544	0.011437226	0.117995754	0.036367437
2020-01-15T21:10:00	0.2340	2.634		0.581812075	0.713798869	0.011504197	0.118686682	0.036580388
2020-01-15T21:15:00	0.2332	2.637		0.579285403	0.710137802	0.011412032	0.117735835	0.036287328
2020-01-15T21:20:00	0.2338	2.644		0.581456178	0.713282864	0.011491192	0.118552512	0.036539036
2020-01-15T21:25:00	0.2345	2.654		0.583625612	0.716429895	0.011570583	0.119371570	0.036791477
2020-01-15T21:30:00	0.2338	2.655		0.581435700	0.713253177	0.011490444	0.118544795	0.036536657
2020-01-15T21:35:00	0.2356	2.652		0.587290770	0.721755547	0.011705345	0.120761887	0.037219987
2020-01-15T21:40:00	0.2356	2.648		0.587447985	0.721984238	0.011711144	0.120821709	0.037238424
2020-01-15T21:45:00	0.2328	2.642		0.577881071	0.708105260	0.011360971	0.117209041	0.036124965
2020-01-15T21:50:00	0.2339	2.638		0.581730170	0.713680108	0.011501204	0.118655798	0.036570869
2020-01-15T21:55:00	0.2343	2.634		0.582893678	0.715367699	0.011543766	0.119094910	0.036706208
2020-01-15T22:00:00	0.2339	2.630		0.581709694	0.713650419	0.011500455	0.118648077	0.036568490
2020-01-15T22:05:00	0.2337	2.626		0.581012319	0.712639475	0.011474984	0.118385292	0.036487497
2020-01-15T22:10:00	0.2328	2.621		0.577965196	0.708226970	0.011364026	0.117240564	0.036134680
2020-01-15T22:15:00	0.2329	2.616		0.578274446	0.708674441	0.011375262	0.117356482	0.036170408
2020-01-15T22:20:00	0.2321	2.611		0.575560960	0.704750860	0.011276867	0.116341362	0.035857538
2020-01-15T22:25:00	0.2325	2.607		0.576878192	0.706654757	0.011324578	0.116833579	0.036009244
2020-01-15T22:30:00	0.2312	2.604		0.572482545	0.700306996	0.011165768	0.115195172	0.035504271
2020-01-15T22:35:00	0.2312	2.599		0.572455997	0.700268705	0.011164812	0.115185312	0.035501232
2020-01-15T22:40:00	0.2300	2.596		0.568391498	0.694413474	0.011018991	0.113680899	0.035037557
2020-01-15T22:45:00	0.2300	2.595		0.568364918	0.694375228	0.011018041	0.113671094	0.035034535
2020-01-15T22:50:00	0.2295	2.593		0.566991297	0.692399537	0.010968982	0.113164969	0.034878543
2020-01-15T22:55:00	0.2287	2.592		0.564269046	0.688488702	0.010872088	0.112165324	0.034570442
2020-01-15T23:00:00	0.2285	2.590		0.563568189	0.687482828	0.010847212	0.111908691	0.034491345
2020-01-15T23:05:00	0.2275	2.588		0.560168363	0.682609125	0.010726955	0.110668015	0.034108957
2020-01-15T23:10:00	0.2276	2.587		0.560479191	0.683054305	0.010737921	0.110781151	0.034143827
2020-01-15T23:15:00	0.2274	2.587		0.559777572	0.682049530	0.010713175	0.110525856	0.034065142
2020-01-15T23:20:00	0.2279	2.587		0.561438141	0.684428256	0.010771789	0.111130564	0.034251519
2020-01-15T23:25:00	0.2270	2.587		0.558373910	0.680040589	0.010663757	0.110016010	0.033908003
2020-01-15T23:30:00	0.2272	2.587		0.559022510	0.680968672	0.010686577	0.110251450	0.033980568
2020-01-15T23:35:00	0.2268	2.588		0.557645206	0.678998295	0.010638147	0.109751798	0.033826570
2020-01-15T23:40:00	0.2264	2.585		0.556267357	0.677028701	0.010589808	0.109253102	0.033672867
2020-01-15T23:45:00	0.2264	2.586		0.556240685	0.676990589	0.010588874	0.109243459	0.033669895
2020-01-15T23:50:00	0.2253	2.584		0.552495483	0.671644902	0.010458053	0.107893808	0.033253920
2020-01-15T23:55:00	0.2262	2.581		0.555849453	0.676431627	0.010575169	0.109102074	0.033626319
2020-01-16T00:00:00	0.2257	2.583		0.554132839	0.673980553	0.010515145	0.108482813	0.033435456
2020-01-16T00:05:00	0.2266	2.589		0.557147471	0.678286618	0.010620672	0.109571516	0.033771005
2020-01-16T00:10:00	0.2257	2.595		0.554079461	0.673904376	0.010513281	0.108463585	0.033429530
2020-01-16T00:15:00	0.2255	2.596		0.553376552	0.672901452	0.010488755	0.108210552	0.033351543
2020-01-16T00:20:00	0.2256	2.597		0.553687986	0.673345763	0.010499618	0.108322625	0.033386085
2020-01-16T00:25:00	0.2242	2.597		0.548924451	0.666558543	0.010334084	0.106614840	0.032859729
2020-01-16T00:30:00	0.2243	2.593		0.549236285	0.667002283	0.010344880	0.106726216	0.032894056
2020-01-16T00:35:00	0.2256	2.595		0.553607909	0.673231512	0.010496824	0.108293803	0.033377202
2020-01-16T00:40:00	0.2258	2.598		0.554257397	0.674158322	0.010519495	0.108527686	0.033449287
2020-01-16T00:45:00	0.2256	2.602		0.553554523	0.673155347	0.010494962	0.108274590	0.033371280
2020-01-16T00:50:00	0.2253	2.603		0.552513297	0.671670301	0.010458674	0.107900208	0.033255892
2020-01-16T00:55:00	0.2235	2.604		0.546731926	0.663440826	0.010258341	0.105833411	0.032618885
2020-01-16T01:00:00	0.2237	2.605		0.547382700	0.664365800	0.010280793	0.106065048	0.032690278
2020-01-16T01:05:00	0.2244	2.604		0.549726259	0.667699678	0.010361854	0.106901336	0.032948030
2020-01-16T01:10:00	0.2242	2.601		0.549022468	0.666698012	0.010337477	0.106649842	0.032870517
2020-01-16T01:15:00	0.2249	2.606		0.551364920	0.670033465	0.010418725	0.107488061	0.033128864
2020-01-16T01:20:00	0.2241	2.613		0.548630422	0.666140212	0.010323910	0.106509878	0.032827379
2020-01-16T01:25:00	0.2248	2.623		0.550973139	0.669475289	0.010405113	0.107347635	0.033085584
2020-01-16T01:30:00	0.2244	2.635		0.549592643	0.667509479	0.010357224	0.106853567	0.032933307
2020-01-16T01:35:00	0.2240	2.647		0.548211599	0.665544452	0.010309427	0.106360457	0.032781326
2020-01-16T01:40:00	0.2236	2.661		0.546830004	0.663580207	0.010261723	0.105868305	0.032629640
2020-01-16T01:45:00	0.2240	2.675		0.548158130	0.665468405	0.010307579	0.106341388	0.032775449
2020-01-16T01:50:00	0.2236	2.688		0.546776514	0.663504190	0.010259878	0.105849274	0.032623774
2020-01-16T01:55:00	0.2240	2.701		0.548104660	0.665392359	0.010305730	0.106322322	0.032769572
2020-01-16T02:00:00	0.2229	2.713		0.544689677	0.660540343	0.010188043	0.105108157	0.032395355
2020-01-16T02:05:00	0.2227	2.726		0.543984864	0.659540130	0.010163838	0.104858445	0.032318391
2020-01-16T02:10:00	0.2220	2.738		0.541583850	0.656135865	0.010081602	0.104010031	0.032056902
2020-01-16T02:15:00	0.2215	2.752		0.539860164	0.653694851	0.010022773	0.103403101	0.031869840
2020-01-16T02:20:00	0.2212	2.766		0.538814817	0.652215657	0.009987180	0.103035896	0.031756664
2020-01-16T02:25:00	0.2213	2.779		0.539127562	0.652658106	0.009997822	0.103145687	0.031790502
2020-01-16T02:30:00	0.2215	2.793		0.539779767	0.653581055	0.010020033	0.103374836	0.031861129
2020-01-16T02:35:00	0.2207	2.805		0.537036109	0.649700788	0.009926764	0.102412593	0.031564556
2020-01-16T02:40:00	0.2211	2.817		0.538367995	0.651583664	0.009971986	0.102879139	0.031708350
2020-01-16T02:45:00	0.2209	2.829		0.537661893	0.650585273	0.009947998	0.102631666	0.031632076
2020-01-16T02:50:00	0.2203	2.842		0.535596385	0.647667090	0.009877997	0.101909475	0.031409490
2020-01-16T02:55:00	0.2206	2.854		0.536589057	0.649069119	0.009911608	0.102256235	0.031516365
2020-01-16T03:00:00	0.2211	2.867		0.538260752	0.651432002	0.009968341	0.102841534	0.031696759
2020-01-16T03:05:00	0.2207	2.875		0.537214921	0.649953489	0.009932829	0.102475167	0.031583842
2020-01-16T03:10:00	0.2211	2.882		0.538546738	0.651836462	0.009978063	0.102941833	0.031727673
2020-01-16T03:15:00	0.2217	2.890		0.540556899	0.654681247	0.010046532	0.103648214	0.031945386
2020-01-16T03:20:00	0.2217	2.896		0.540530106	0.654643307	0.010045617	0.103638782	0.031942479
2020-01-16T03:25:00	0.2211	2.902		0.538466311	0.651722709	0.009975328	0.102913621	0.031718977
2020-01-16T03:30:00	0.2204	2.906		0.536061463	0.648323857	0.009893737	0.102071863	0.031459539
2020-01-16T03:35:00	0.2207	2.911		0.537054002	0.649726074	0.009927371	0.102418854	0.031566486
2020-01-16T03:40:00	0.2202	2.917		0.535328056	0.647288246	0.009868922	0.101815845	0.031380632
2020-01-16T03:45:00	0.2196	2.923		0.533261152	0.644372026	0.009799155	0.101096073	0.031158792
2020-01-16T03:50:00	0.2192	2.928		0.531873574	0.642416230	0.009752458	0.100614311	0.031010308
2020-01-16T03:55:00	0.2189	2.935		0.530825807	0.640940438	0.009717271	0.100251298	0.030898424
2020-01-16T04:00:00	0.2186	2.942		0.529777722	0.639465091	0.009682138	0.099888835	0.030786709
2020-01-16T04:05:00	0.2197	2.948		0.533674277	0.644954632	0.009813080	0.101239733	0.031203069
2020-01-16T04:10:00	0.2213	2.951		0.539264465	0.652851813	0.010002482	0.103193766	0.031805321
2020-01-16T04:15:00	0.2212	2.952		0.538738703	0.652107989	0.009984591	0.103009185	0.031748431
2020-01-16T04:20:00	0.2209	2.954		0.537873219	0.650884034	0.009955174	0.102705700	0.031654894
2020-01-16T04:25:00	0.2213	2.955		0.539045379	0.652541831	0.009995025	0.103116830	0.031781609
2020-01-16T04:30:00	0.2217	2.957		0.540556553	0.654680757	0.010046520	0.103648092	0.031945349
2020-01-16T04:35:00	0.2225	2.957		0.543084659	0.658263227	0.010132966	0.104539944	0.032220226
2020-01-16T04:40:00	0.2220	2.958		0.541541731	0.656076189	0.010080163	0.103995179	0.032052324
2020-01-16T04:45:00	0.2221	2.958		0.541694948	0.656293280	0.010085400	0.104049211	0.032068977
2020-01-16T04:50:00	0.2220	2.955		0.541508873	0.656029635	0.010079040	0.103983594	0.032048753
2020-01-16T04:55:00	0.2224	2.953		0.542679802	0.657689170	0.010119097	0.104396861	0.032176127
2020-01-16T05:00:00	0.2228	2.951		0.544189392	0.659830337	0.010170859	0.104930878	0.032340716
2020-01-16T05:05:00	0.2239	2.944		0.548069755	0.665342717	0.010304524	0.106309876	0.032765736
2020-01-16T05:10:00	0.2246	2.938		0.550253960	0.668450992	0.010380151	0.107090103	0.033006210
2020-01-16T05:15:00	0.2256	2.934		0.553789469	0.673490560	0.010503159	0.108359158	0.033397345
2020-01-16T05:20:00	0.2261	2.934		0.555294236	0.675638593	0.010555736	0.108901586	0.033564526
2020-01-16T05:25:00	0.2268	2.931		0.557811637	0.679236310	0.010643993	0.109812114	0.033845160
2020-01-16T05:30:00	0.2276	2.924		0.560327220	0.682836637	0.010732559	0.110725829	0.034126776
2020-01-16T05:35:00	0.2280	2.919		0.561829166	0.684988721	0.010785615	0.111273202	0.034295482
2020-01-16T05:40:00	0.2286	2.914		0.563667627	0.687625517	0.010850740	0.111945084	0.034502562
2020-01-16T05:45:00	0.2290	2.908		0.565168136	0.689779674	0.010904041	0.112494982	0.034672046
2020-01-16T05:50:00	0.2297	2.903		0.567678423	0.693387641	0.010993509	0.113418004	0.034956530
2020-01-16T05:55:00	0.2299	2.899		0.568167221	0.694090783	0.011010973	0.113598180	0.035012062
2020-01-16T06:00:00	0.2300	2.899		0.568655951	0.694794024	0.011028449	0.113778476	0.035067631
2020-01-16T06:05:00	0.2306	2.898		0.570490824	0.697436013	0.011094186	0.114456674	0.035276659
2020-01-16T06:10:00	0.2311	2.893		0.572324735	0.700079399	0.011160088	0.115136570	0.035486209
2020-01-16T06:15:00	0.2316	2.887		0.573821534	0.702238937	0.011214023	0.115693008	0.035657709
2020-01-16T06:20:00	0.2312	2.883		0.572628465	0.700517462	0.011171022	0.115249372	0.035520976
2020-01-16T06:25:00	0.2326	2.873		0.577149081	0.707046472	0.011334402	0.116934935	0.036040482
2020-01-16T06:30:00	0.2337	2.861		0.580992978	0.712611443	0.011474278	0.118378008	0.036485252
2020-01-16T06:35:00	0.2353	2.847		0.586172880	0.720130014	0.011664157	0.120336961	0.037089020
2020-01-16T06:40:00	0.2364	2.836		0.590006930	0.725709471	0.011805730	0.121797539	0.037539184
2020-01-16T06:45:00	0.2377	2.830		0.594505270	0.732271247	0.011972948	0.123522697	0.038070895
2020-01-16T06:50:00	0.2382	2.823		0.595992660	0.734444632	0.012028505	0.124095866	0.038247551
2020-01-16T06:55:00	0.2400	2.812		0.602151151	0.743463144	0.012259942	0.126483567	0.038983464
2020-01-16T07:00:00	0.2398	2.802		0.601301216	0.742216609	0.012227867	0.126152647	0.038881471
2020-01-16T07:05:00	0.2399	2.788		0.601785364	0.742926598	0.012246133	0.126341094	0.038939552
2020-01-16T07:10:00	0.2396	2.777		0.600601736	0.741191189	0.012201502	0.125880642	0.038797636
2020-01-16T07:15:00	0.2402	2.767		0.602753462	0.744346872	0.012282699	0.126718344	0.039055824
2020-01-16T07:20:00	0.2406	2.753		0.603904094	0.746035959	0.012326233	0.127167477	0.039194251
2020-01-16T07:25:00	0.2403	2.740		0.603054579	0.744788794	0.012294084	0.126835802	0.039092026
2020-01-16T07:30:00	0.2406	2.727		0.603871816	0.745988561	0.012325011	0.127154867	0.039190365
2020-01-16T07:35:00	0.2403	2.712		0.603022293	0.744741408	0.012292863	0.126823205	0.039088144
2020-01-16T07:40:00	0.2410	2.699		0.605505724	0.748388942	0.012386963	0.127794013	0.039387356
2020-01-16T07:45:00	0.2419	2.694		0.608320327	0.752529135	0.012494058	0.128898892	0.039727890
2020-01-16T07:50:00	0.2418	2.703		0.608137756	0.752260377	0.012487097	0.128827074	0.039705755
2020-01-16T07:55:00	0.2423	2.712		0.609619430	0.754442317	0.012543649	0.129410511	0.039885576
2020-01-16T08:00:00	0.2431	2.716		0.612430774	0.758587419	0.012651313	0.130521268	0.040227922
2020-01-16T08:05:00	0.2438	2.724		0.614575339	0.761753875	0.012733762	0.131371877	0.040490088
2020-01-16T08:10:00	0.2437	2.731		0.614393089	0.761484633	0.012726745	0.131299479	0.040467775
2020-01-16T08:15:00	0.2435	2.738		0.613546082	0.760233692	0.012694157	0.130963282	0.040364155
2020-01-16T08:20:00	0.2440	2.745		0.615357754	0.762910077	0.012763911	0.131682920	0.040585955
2020-01-16T08:25:00	0.2430	2.756		0.612184010	0.758223319	0.012641844	0.130423576	0.040197813
2020-01-16T08:30:00	0.2426	2.769		0.610671190	0.755992275	0.012583872	0.129825486	0.040013476
2020-01-16T08:35:00	0.2423	2.781		0.609823295	0.754742675	0.012551440	0.129490893	0.039910351
2020-01-16T08:40:00	0.2413	2.795		0.606311531	0.749573580	0.012417575	0.128109834	0.039484695
2020-01-16T08:45:00	0.2413	2.802		0.606461942	0.749794763	0.012423294	0.128168829	0.039502878
2020-01-16T08:50:00	0.2408	2.805		0.604613452	0.747077825	0.012353111	0.127444773	0.039279717
2020-01-16T08:55:00	0.2408	2.807		0.604763935	0.747298899	0.012358817	0.127503638	0.039297860
2020-01-16T09:00:00	0.2403	2.813		0.602914559	0.744583291	0.012288790	0.126781177	0.039075190
2020-01-16T09:05:00	0.2412	2.818		0.606064342	0.749210122	0.012408180	0.128012910	0.039454822
2020-01-16T09:10:00	0.2421	2.831		0.608878501	0.753350981	0.012515353	0.129118587	0.039795602
2020-01-16T09:15:00	0.2404	2.855		0.603366205	0.745246219	0.012305872	0.126957418	0.039129509
2020-01-16T09:20:00	0.2410	2.883		0.605516252	0.748404416	0.012387363	0.127798137	0.039388627
2020-01-16T09:25:00	0.2410	2.924		0.605333537	0.748135876	0.012380427	0.127726580	0.039366572
2020-01-16T09:30:00	0.2407	2.952		0.604484365	0.746888197	0.012348218	0.127394288	0.039264157
2020-01-16T09:35:00	0.2404	2.967		0.603301639	0.745151438	0.012303430	0.126932215	0.039121741
2020-01-16T09:40:00	0.2403	2.988		0.603118810	0.744883069	0.012296514	0.126860864	0.039099750
2020-01-16T09:45:00	0.2399	3.009		0.601602116	0.742657847	0.012239218	0.126269751	0.038917564
2020-01-16T09:50:00	0.2400	3.018		0.602086224	0.743367898	0.012257491	0.126458271	0.038975667
2020-01-16T09:55:00	0.2399	3.020		0.601569818	0.742610481	0.012237999	0.126257178	0.038913689
2020-01-16T10:00:00	0.2396	3.012		0.600719743	0.741364155	0.012205947	0.125926510	0.038811773
2020-01-16T10:05:00	0.2385	3.006		0.597139705	0.736121966	0.012071439	0.124538813	0.038384072
2020-01-16T10:10:00	0.2379	3.006		0.594892930	0.732837521	0.011987415	0.123671952	0.038116897
2020-01-16T10:15:00	0.2372	3.004		0.592644724	0.729555203	0.011903639	0.122807650	0.037850510
2020-01-16T10:20:00	0.2375	3.007		0.593739362	0.731152817	0.011944391	0.123228084	0.037980092
2020-01-16T10:25:00	0.2379	3.012		0.595167810	0.733239127	0.011997679	0.123777840	0.038149532
2020-01-16T10:30:00	0.2384	3.018		0.596595680	0.735326296	0.012051066	0.124328629	0.038319291
2020-01-16T10:35:00	0.2383	3.024		0.596353258	0.734971820	0.012041994	0.124235029	0.038290442
2020-01-16T10:40:00	0.2379	3.032		0.595108544	0.733152533	0.011995465	0.123755006	0.038142495
2020-01-16T10:45:00	0.2373	3.041		0.592860475	0.729870011	0.011911666	0.122890458	0.037876033
2020-01-16T10:50:00	0.2370	3.048		0.591948983	0.728540294	0.011877774	0.122540809	0.037768267
2020-01-16T10:55:00	0.2362	3.057		0.589364231	0.724773337	0.011781937	0.121552073	0.037463529
2020-01-16T11:00:00	0.2365	3.064		0.590459887	0.726369441	0.011822513	0.121970689	0.037592551
2020-01-16T11:05:00	0.2363	3.074		0.589547774	0.725040644	0.011788729	0.121622148	0.037485127
2020-01-16T11:10:00	0.2365	3.086		0.590308794	0.726149276	0.011816913	0.121912917	0.037574745
2020-01-16T11:15:00	0.2368	3.098		0.591404157	0.727745814	0.011857540	0.122332056	0.037703928
2020-01-16T11:20:00	0.2367	3.108		0.591161378	0.727391868	0.011848529	0.122239094	0.037675276
2020-01-16T11:25:00	0.2366	3.119		0.590584031	0.726550351	0.011827115	0.122018167	0.037607184
2020-01-16T11:30:00	0.2364	3.128		0.590006589	0.725708974	0.011805717	0.121797408	0.037539144
2020-01-16T11:35:00	0.2359	3.138		0.588424875	0.723405721	0.011747206	0.121193762	0.037353094
2020-01-16T11:40:00	0.2363	3.147		0.589520823	0.725001392	0.011787732	0.121611857	0.037481955
2020-01-16T11:45:00	0.2356	3.156		0.587269188	0.721724154	0.011704549	0.120753677	0.037217456
2020-01-16T11:50:00	0.2365	3.165		0.590373598	0.726243702	0.011819315	0.121937694	0.037582381
2020-01-16T11:55:00	0.2362	3.173		0.589461462	0.724914939	0.011785535	0.121589192	0.037474970
2020-01-16T12:00:00	0.2355	3.183		0.586874884	0.721150682	0.011690013	0.120603713	0.037171236
2020-01-16T12:05:00	0.2348	3.194		0.584621555	0.717875944	0.011607123	0.119748550	0.036907666
2020-01-16T12:10:00	0.2344	3.208		0.583372689	0.716062799	0.011561313	0.119275932	0.036762001
2020-01-16T12:15:00	0.2343	3.224		0.583129357	0.715709671	0.011552398	0.119183957	0.036733653
2020-01-16T12:20:00	0.2347	3.242		0.584226955	0.717302909	0.011592639	0.119599115	0.036861609
2020-01-16T12:25:00	0.2345	3.262		0.583648469	0.716463073	0.011571421	0.119380215	0.036794142
2020-01-16T12:30:00	0.2341	3.287		0.582399257	0.714650437	0.011525670	0.118908212	0.036648666
2020-01-16T12:35:00	0.2341	3.313		0.582155857	0.714297408	0.011516767	0.118816357	0.036620355
2020-01-16T12:40:00	0.2338	3.340		0.581241588	0.712971789	0.011483355	0.118471652	0.036514114
2020-01-16T12:45:00	0.2330	3.365		0.578648955	0.709216444	0.011388877	0.117496940	0.036213698
2020-01-16T12:50:00	0.2330	3.386		0.578741008	0.709349684	0.011392224	0.117531477	0.036224343
2020-01-16T12:55:00	0.2333	3.400		0.579504370	0.710454867	0.011420005	0.117818082	0.036312677
2020-01-16T13:00:00	0.2328	3.411		0.577917923	0.708158577	0.011362309	0.117222849	0.036129221
2020-01-16T13:05:00	0.2324	3.418		0.576666671	0.706348932	0.011316909	0.116754467	0.035984861
2020-01-16T13:10:00	0.2317	3.423		0.574406781	0.703083818	0.011235148	0.115910947	0.035724880
2020-01-16T13:15:00	0.2316	3.425		0.573826674	0.702246356	0.011214208	0.115694921	0.035658298
2020-01-16T13:20:00	0.2311	3.427		0.572237656	0.699953821	0.011156954	0.115104240	0.035476245
2020-01-16T13:25:00	0.2308	3.428		0.571320798	0.698631987	0.011123987	0.114764121	0.035371417
2020-01-16T13:30:00	0.2317	3.428		0.574103205	0.702645531	0.011224187	0.115797873	0.035690029
2020-01-16T13:35:00	0.2317	3.428		0.574195377	0.702778596	0.011227515	0.115832198	0.035700608
2020-01-16T13:40:00	0.2321	3.427		0.575631782	0.704853189	0.011279430	0.116367800	0.035865686
2020-01-16T13:45:00	0.2317	3.430		0.574379714	0.703044737	0.011234170	0.115900863	0.035721772
2020-01-16T13:50:00	0.2317	3.435		0.574135757	0.702692523	0.011225362	0.115809995	0.035693765
2020-01-16T13:55:00	0.2324	3.442		0.576580042	0.706223693	0.011313770	0.116722075	0.035974877
2020-01-16T14:00:00	0.2329	3.451		0.578351222	0.708785544	0.011378052	0.117385270	0.036179280
2020-01-16T14:05:00	0.2328	3.451		0.577771767	0.707947129	0.011357001	0.117168089	0.036112343
2020-01-16T14:10:00	0.2314	3.448		0.573159758	0.701283917	0.011190160	0.115446823	0.035581832
2020-01-16T14:15:00	0.2313	3.445		0.572915716	0.700931828	0.011181367	0.115356105	0.035553872
2020-01-16T14:20:00	0.2324	3.444		0.576704677	0.706403881	0.011318287	0.116768680	0.035989241
2020-01-16T14:25:00	0.2331	3.442		0.578811500	0.709451721	0.011394788	0.117557929	0.036232495
2020-01-16T14:30:00	0.2338	3.440		0.581252531	0.712987651	0.011483754	0.118475775	0.036515384
2020-01-16T14:35:00	0.2349	3.435		0.585032508	0.718472862	0.011622218	0.119904278	0.036955663
2020-01-16T14:40:00	0.2352	3.429		0.586129512	0.720066974	0.011662561	0.120320491	0.037083944
2020-01-16T14:45:00	0.2348	3.424		0.584546055	0.717766293	0.011604351	0.119719950	0.036898851
2020-01-16T14:50:00	0.2349	3.417		0.584973071	0.718386520	0.011620034	0.119881749	0.036948719
2020-01-16T14:55:00	0.2350	3.409		0.585400036	0.719006823	0.011635726	0.120043639	0.036998616
2020-01-16T15:00:00	0.2355	3.400		0.586831866	0.721088126	0.011688428	0.120587359	0.037166195
2020-01-16T15:05:00	0.2362	3.390		0.589267338	0.724632237	0.011778352	0.121515089	0.037452131
2020-01-16T15:10:00	0.2364	3.379		0.590028419	0.725740778	0.011806526	0.121805750	0.037541715
2020-01-16T15:15:00	0.2367	3.370		0.591123869	0.727337187	0.011847138	0.122224734	0.037670850
2020-01-16T15:20:00	0.2373	3.359		0.592887741	0.729909798	0.011912680	0.122900925	0.037879259
2020-01-16T15:25:00	0.2373	3.347		0.592979422	0.730043586	0.011916092	0.122936124	0.037890107
2020-01-16T15:30:00	0.2373	3.335		0.593071101	0.730177377	0.011919504	0.122971327	0.037900957
2020-01-16T15:35:00	0.2372	3.322		0.592828437	0.729823261	0.011910474	0.122878160	0.037872242
2020-01-16T15:40:00	0.2371	3.310		0.592251363	0.728981340	0.011889012	0.122656745	0.037804000
2020-01-16T15:45:00	0.2362	3.296		0.589332161	0.724726634	0.011780751	0.121539831	0.037459756
2020-01-16T15:50:00	0.2362	3.282		0.589423935	0.724860285	0.011784146	0.121574865	0.037470554
2020-01-16T15:55:00	0.2365	3.269		0.590184982	0.725968877	0.011812326	0.121865587	0.037560157
2020-01-16T16:00:00	0.2369	3.255		0.591614869	0.728053051	0.011865364	0.122412770	0.037728805
2020-01-16T16:05:00	0.2373	3.241		0.593088520	0.730202798	0.011920153	0.122978016	0.037903019
2020-01-16T16:10:00	0.2374	3.227		0.593224537	0.730401310	0.011925216	0.123030255	0.037919120
2020-01-16T16:15:00	0.2375	3.214		0.593694838	0.731087815	0.011942732	0.123210969	0.037974817
2020-01-16T16:20:00	0.2372	3.202		0.592827907	0.729822487	0.011910454	0.122877956	0.037872179
2020-01-16T16:25:00	0.2378	3.189		0.594635252	0.732461104	0.011977798	0.123572732	0.038086316
2020-01-16T16:30:00	0.2375	3.178		0.593768552	0.731195433	0.011945479	0.123239306	0.037983551
2020-01-16T16:35:00	0.2377	3.167		0.594238780	0.731882046	0.011963008	0.123420149	0.038039289
2020-01-16T16:40:00	0.2382	3.155		0.596045403	0.734521735	0.012030477	0.124116216	0.038253823
2020-01-16T16:45:00	0.2378	3.146		0.594844901	0.732767356	0.011985622	0.123653455	0.038111196
2020-01-16T16:50:00	0.2383	3.137		0.596317204	0.734919104	0.012040645	0.124221111	0.038286153
2020-01-16T16:55:00	0.2382	3.128		0.596119068	0.734629427	0.012033232	0.124144641	0.038262584
2020-01-16T17:00:00	0.2386	3.117		0.597256920	0.736293432	0.012075831	0.124584123	0.038398037
2020-01-16T17:05:00	0.2381	3.106		0.595722764	0.734050121	0.012018414	0.123991760	0.038215465
2020-01-16T17:10:00	0.2390	3.095		0.598530218	0.738156797	0.012123592	0.125076866	0.038549905
2020-01-16T17:15:00	0.2398	3.086		0.601335444	0.742266797	0.012229158	0.126165965	0.038885576
2020-01-16T17:20:00	0.2396	3.076		0.600804004	0.741487666	0.012209123	0.125959266	0.038821869
2020-01-16T17:25:00	0.2392	3.066		0.599271386	0.739242061	0.012151438	0.125364145	0.038638447
2020-01-16T17:30:00	0.2387	3.055		0.597738105	0.736997447	0.012093869	0.124770215	0.038455392
2020-01-16T17:35:00	0.2398	3.044		0.601211149	0.742084549	0.012224470	0.126117606	0.038870671
2020-01-16T17:40:00	0.2395	3.034		0.600346060	0.740816478	0.012191872	0.125781293	0.038767016
2020-01-16T17:45:00	0.2399	3.024		0.601816075	0.742971640	0.012247292	0.126353052	0.038943238
2020-01-16T17:50:00	0.2404	3.015		0.603285478	0.745127716	0.012302818	0.126925908	0.039119797
2020-01-16T17:55:00	0.2403	3.005		0.603087733	0.744837456	0.012295338	0.126848738	0.039096013
2020-01-16T18:00:00	0.2405	2.997		0.603556724	0.745525915	0.012313082	0.127031800	0.039152434
2020-01-16T18:05:00	0.2405	2.988		0.603692338	0.745725026	0.012318216	0.127084760	0.039168757
2020-01-16T18:10:00	0.2405	2.978		0.603827948	0.745924145	0.012323350	0.127137729	0.039185083
2020-01-16T18:15:00	0.2417	2.971		0.607628001	0.751510129	0.012467671	0.128626663	0.039643987
2020-01-16T18:20:00	0.2418	2.965		0.608096392	0.752199490	0.012485520	0.128810806	0.039700741
2020-01-16T18:25:00	0.2412	2.957		0.605900746	0.748969606	0.012401965	0.127948784	0.039435058
2020-01-16T18:30:00	0.2410	2.951		0.605369990	0.748189450	0.012381810	0.127740855	0.039370972
2020-01-16T18:35:00	0.2409	2.945		0.605172361	0.747899015	0.012374310	0.127663476	0.039347123
2020-01-16T18:40:00	0.2423	2.938		0.609636580	0.754467582	0.012544304	0.129417272	0.039887660
2020-01-16T18:45:00	0.2434	2.932		0.613430422	0.760062920	0.012689711	0.130917408	0.040350017
2020-01-16T18:50:00	0.2431	2.927		0.612235797	0.758299727	0.012643831	0.130444075	0.040204131
2020-01-16T18:55:00	0.2434	2.921		0.613368486	0.759971478	0.012687330	0.130892846	0.040342446
2020-01-16T19:00:00	0.2435	2.915		0.613836120	0.760661980	0.012705311	0.131078355	0.040399622
2020-01-16T19:05:00	0.2432	2.909		0.612641632	0.758898580	0.012659408	0.130604775	0.040253660
2020-01-16T19:10:00	0.2432	2.902		0.612776900	0.759098213	0.012664602	0.130658361	0.040270176
2020-01-16T19:15:00	0.2434	2.895		0.613244612	0.759788597	0.012682569	0.130843728	0.040327308
2020-01-16T19:20:00	0.2430	2.889		0.612049925	0.758025498	0.012636700	0.130370508	0.040181457
2020-01-16T19:25:00	0.2435	2.881		0.613847489	0.760678769	0.012705749	0.131082866	0.040401013
2020-01-16T19:30:00	0.2434	2.874		0.613317920	0.759896824	0.012685387	0.130872795	0.040336266
2020-01-16T19:35:00	0.2430	2.869		0.612123258	0.758133688	0.012639513	0.130399530	0.040190402
2020-01-16T19:40:00	0.2443	2.865		0.616246616	0.764224203	0.012798207	0.132036742	0.040695006
2020-01-16T19:45:00	0.2445	2.859		0.617045966	0.765406559	0.012829089	0.132355351	0.040793204
2020-01-16T19:50:00	0.2436	2.854		0.613858858	0.760695559	0.012706186	0.131087378	0.040402403
2020-01-16T19:55:00	0.2437	2.849		0.614326428	0.761386159	0.012724178	0.131273004	0.040459615
2020-01-16T20:00:00	0.2440	2.844		0.615458451	0.763058917	0.012767794	0.131722979	0.040598301
2020-01-16T20:05:00	0.2436	2.838		0.613932154	0.760803805	0.012709006	0.131116468	0.040411369
2020-01-16T20:10:00	0.2429	2.832		0.611740116	0.757568483	0.012624820	0.130247936	0.040143679
2020-01-16T20:15:00	0.2430	2.825		0.611875418	0.757768065	0.012630008	0.130301460	0.040160175
2020-01-16T20:20:00	0.2428	2.818		0.611345555	0.756986563	0.012609697	0.130091920	0.040095593
2020-01-16T20:25:00	0.2431	2.811		0.612478528	0.758657886	0.012653146	0.130540178	0.040233751
2020-01-16T20:30:00	0.2428	2.805		0.611283583	0.756895176	0.012607323	0.130067424	0.040088043
2020-01-16T20:35:00	0.2430	2.799		0.612084049	0.758075842	0.012638009	0.130384013	0.040185619
2020-01-16T20:40:00	0.2428	2.793		0.611221610	0.756803790	0.012604948	0.130042929	0.040080494
2020-01-16T20:45:00	0.2423	2.787		0.609693492	0.754551430	0.012546479	0.129439710	0.039894576
2020-01-16T20:50:00	0.2419	2.781		0.608497610	0.752790135	0.012500819	0.128968649	0.039749390
2020-01-16T20:55:00	0.2418	2.774		0.607967243	0.752009394	0.012480597	0.128760019	0.039685088
2020-01-16T21:00:00	0.2412	2.767		0.606104636	0.749269365	0.012409712	0.128028707	0.039459691
2020-01-16T21:05:00	0.2406	2.762		0.603907756	0.746041336	0.012326372	0.127168908	0.039194692
2020-01-16T21:10:00	0.2399	2.755		0.601709513	0.742815351	0.012243270	0.126311560	0.038930450
2020-01-16T21:15:00	0.2399	2.750		0.601845198	0.743014356	0.012248391	0.126364393	0.038946733
2020-01-16T21:20:00	0.2391	2.747		0.598978189	0.738812688	0.012140419	0.125250460	0.038603408
2020-01-16T21:25:00	0.2388	2.745		0.598112554	0.737545432	0.012107915	0.124915127	0.038500055
2020-01-16T21:30:00	0.2390	2.743		0.598582205	0.738232905	0.012125544	0.125097005	0.038556112
2020-01-16T21:35:00	0.2396	2.742		0.600720234	0.741364875	0.012205966	0.125926701	0.038811832
2020-01-16T21:40:00	0.2399	2.740		0.601856606	0.743031088	0.012248822	0.126368836	0.038948102
2020-01-16T21:45:00	0.2405	2.740		0.603659341	0.745676578	0.012316967	0.127071873	0.039164785
2020-01-16T21:50:00	0.2409	2.740		0.605127981	0.747833799	0.012372626	0.127646102	0.039341768
2020-01-16T21:55:00	0.2414	2.737		0.606596012	0.749991933	0.012428392	0.128221427	0.039519089
2020-01-16T22:00:00	0.2414	2.739		0.606731510	0.750191219	0.012433545	0.128274596	0.039535476
2020-01-16T22:05:00	0.2414	2.742		0.606716610	0.750169303	0.012432979	0.128268749	0.039533674
2020-01-16T22:10:00	0.2412	2.748		0.606035554	0.749167798	0.012407087	0.128001625	0.039451344
2020-01-16T22:15:00	0.2417	2.752		0.607685813	0.751595205	0.012469873	0.128649384	0.039650990
2020-01-16T22:20:00	0.2420	2.755		0.608669644	0.753043432	0.012507382	0.129036359	0.039770259
2020-01-16T22:25:00	0.2421	2.757		0.608987599	0.753511646	0.012519517	0.129161550	0.039808844
2020-01-16T22:30:00	0.2417	2.761		0.607641125	0.751529442	0.012468171	0.128631821	0.039645576
2020-01-16T22:35:00	0.2417	2.762		0.607626229	0.751507521	0.012467603	0.128625967	0.039643772
2020-01-16T22:40:00	0.2416	2.760		0.607278356	0.750995653	0.012454356	0.128489292	0.039601648
2020-01-16T22:45:00	0.2418	2.759		0.607929383	0.751953671	0.012479154	0.128745133	0.039680500
2020-01-16T22:50:00	0.2419	2.757		0.608247405	0.752421785	0.012491277	0.128870204	0.039719049
2020-01-16T22:55:00	0.2425	2.756		0.610229367	0.755341057	0.012566967	0.129651080	0.039959722
2020-01-16T23:00:00	0.2431	2.757		0.612210224	0.758261995	0.012642850	0.130433952	0.040201011
2020-01-16T23:05:00	0.2439	2.756		0.614854604	0.762166496	0.012744519	0.131482853	0.040524292
2020-01-16T23:10:00	0.2435	2.753		0.613842746	0.760671764	0.012705566	0.131080984	0.040400432
2020-01-16T23:15:00	0.2446	2.748		0.617482166	0.766051990	0.012845958	0.132529381	0.040846842
2020-01-16T23:20:00	0.2445	2.740		0.617135256	0.765538666	0.012832542	0.132390965	0.040804181
2020-01-16T23:25:00	0.2452	2.732		0.619444141	0.768957043	0.012921973	0.133313611	0.041088550
2020-01-16T23:30:00	0.2449	2.724		0.618433587	0.767460332	0.012882791	0.132909379	0.040963961
2020-01-16T23:35:00	0.2446	2.717		0.617422745	0.765964058	0.012843659	0.132505667	0.040839533
2020-01-16T23:40:00	0.2450	2.708		0.618735821	0.767907874	0.012894503	0.133030209	0.041001202
2020-01-16T23:45:00	0.2451	2.700		0.619052878	0.768377448	0.012906795	0.133157026	0.041040289
2020-01-16T23:50:00	0.2448	2.692		0.618042212	0.766880907	0.012867633	0.132752995	0.040915762
2020-01-16T23:55:00	0.2461	2.685		0.622340577	0.773251659	0.013034616	0.134475732	0.041446727
2020-01-17T00:00:00	0.2452	2.678		0.619340212	0.768803075	0.012917940	0.133272009	0.041075727
2020-01-17T00:05:00	0.2457	2.670		0.620984308	0.771239805	0.012981807	0.133930914	0.041278808
2020-01-17T00:10:00	0.2451	2.662		0.618978635	0.768267484	0.012903916	0.133127324	0.041031134
2020-01-17T00:15:00	0.2448	2.654		0.617967948	0.766770974	0.012864758	0.132723332	0.040906620
2020-01-17T00:20:00	0.2458	2.647		0.621271487	0.771665669	0.012992980	0.134046179	0.041314334
2020-01-17T00:25:00	0.2456	2.639		0.620593214	0.770659954	0.012966600	0.133774022	0.041230453
2020-01-17T00:30:00	0.2461	2.634		0.622236732	0.773097564	0.013030569	0.134433977	0.041433857
2020-01-17T00:35:00	0.2457	2.627		0.620895265	0.771107775	0.012978344	0.133895185	0.041267796
2020-01-17T00:40:00	0.2454	2.619		0.619885121	0.769610438	0.012939090	0.133490206	0.041142978
2020-01-17T00:45:00	0.2449	2.612		0.618210814	0.767130504	0.012874162	0.132820353	0.040936523
2020-01-17T00:50:00	0.2443	2.605		0.616203578	0.764160558	0.012796545	0.132019598	0.040689722
2020-01-17T00:55:00	0.2439	2.596		0.614859836	0.762174226	0.012744721	0.131484932	0.040524933
2020-01-17T01:00:00	0.2439	2.586		0.615177238	0.762643276	0.012756952	0.131611123	0.040563826
2020-01-17T01:05:00	0.2431	2.578		0.612503346	0.758694509	0.012654099	0.130550006	0.040236780
2020-01-17T01:10:00	0.2429	2.569		0.611823399	0.757691332	0.012628013	0.130280881	0.040153833
2020-01-17T01:15:00	0.2425	2.561		0.610478000	0.755707506	0.012576479	0.129749211	0.039989967
2020-01-17T01:20:00	0.2420	2.552		0.608799257	0.753234288	0.012512328	0.129087385	0.039785986
2020-01-17T01:25:00	0.2414	2.544		0.606786697	0.750272389	0.012435645	0.128296254	0.039542152
2020-01-17T01:30:00	0.2409	2.537		0.605106205	0.747801801	0.012371800	0.127637579	0.039339141
2020-01-17T01:35:00	0.2399	2.530		0.601757751	0.742886099	0.012245091	0.126330342	0.038936238
2020-01-17T01:40:00	0.2397	2.523		0.601075741	0.741886024	0.012219365	0.126064934	0.038854437
2020-01-17T01:45:00	0.2397	2.514		0.601060817	0.741864144	0.012218802	0.126059130	0.038852648
2020-01-17T01:50:00	0.2394	2.507		0.600045015	0.740375344	0.012180538	0.125664367	0.038730978
2020-01-17T01:55:00	0.2390	2.498		0.598695137	0.738398242	0.012129785	0.125140760	0.038569597
2020-01-17T02:00:00	0.2389	2.488		0.598346385	0.737887690	0.012116691	0.125005664	0.038527960
2020-01-17T02:05:00	0.2382	2.479		0.595993833	0.734446347	0.012028549	0.124096318	0.038247691
2020-01-17T02:10:00	0.2382	2.470		0.595978887	0.734424500	0.012027990	0.124090552	0.038245913
2020-01-17T02:15:00	0.2378	2.461		0.594627454	0.732449714	0.011977507	0.123569730	0.038085391
2020-01-17T02:20:00	0.2376	2.453		0.593944067	0.731451693	0.011952020	0.123306790	0.038004350
2020-01-17T02:25:00	0.2380	2.444		0.595265865	0.733382403	0.012001341	0.123815624	0.038161178
2020-01-17T02:30:00	0.2384	2.436		0.596587168	0.735313849	0.012050748	0.124325342	0.038318278
2020-01-17T02:35:00	0.2381	2.432		0.595570080	0.733826967	0.012012707	0.123932885	0.038197319
2020-01-17T02:40:00	0.2374	2.428		0.593215676	0.730388377	0.011924886	0.123026852	0.037918071
2020-01-17T02:45:00	0.2376	2.424		0.593869296	0.731342521	0.011949233	0.123278039	0.037995489
2020-01-17T02:50:00	0.2376	2.420		0.593854342	0.731320687	0.011948676	0.123272289	0.037993717
2020-01-17T02:55:00	0.2376	2.417		0.594173631	0.731786906	0.011960579	0.123395085	0.038031564
2020-01-17T03:00:00	0.2382	2.413		0.596163486	0.734694363	0.012034894	0.124161781	0.038267867
2020-01-17T03:05:00	0.2378	2.409		0.594812124	0.732719473	0.011984399	0.123640832	0.038107305
2020-01-17T03:10:00	0.2382	2.405		0.596133597	0.734650667	0.012033776	0.124150247	0.038264312
2020-01-17T03:15:00	0.2383	2.401		0.596452680	0.735117192	0.012045714	0.124273412	0.038302272
2020-01-17T03:20:00	0.2376	2.396		0.594098866	0.731677727	0.011957791	0.123366325	0.038022700
2020-01-17T03:25:00	0.2370	2.392		0.592077923	0.728728354	0.011882566	0.122590239	0.037783502
2020-01-17T03:30:00	0.2372	2.391		0.592731753	0.729682185	0.011906876	0.122841049	0.037860804
2020-01-17T03:35:00	0.2380	2.389		0.595390710	0.733564836	0.012006005	0.123863739	0.038176007
2020-01-17T03:40:00	0.2385	2.388		0.597045938	0.735984809	0.012067927	0.124502573	0.038372902
2020-01-17T03:45:00	0.2378	2.388		0.594692519	0.732544756	0.011979935	0.123594779	0.038093111
2020-01-17T03:50:00	0.2382	2.387		0.596014037	0.734475883	0.012029304	0.124104114	0.038250093
2020-01-17T03:55:00	0.2376	2.385		0.593994191	0.731524881	0.011953889	0.123326066	0.038010291
2020-01-17T04:00:00	0.2382	2.383		0.595984146	0.734432188	0.012028186	0.124092581	0.038246539
2020-01-17T04:05:00	0.2394	2.378		0.600019883	0.740338520	0.012179592	0.125654608	0.038727971
2020-01-17T04:10:00	0.2397	2.373		0.601050087	0.741848413	0.012218398	0.126054957	0.038851362
2020-01-17T04:15:00	0.2397	2.369		0.601079406	0.741891397	0.012219503	0.126066360	0.038854876
2020-01-17T04:20:00	0.2394	2.364		0.600107864	0.740467433	0.012182904	0.125688773	0.038738500
2020-01-17T04:25:00	0.2398	2.358		0.601471597	0.742466445	0.012234293	0.126218949	0.038901906
2020-01-17T04:30:00	0.2389	2.351		0.598497815	0.738109362	0.012122376	0.125064314	0.038546036
2020-01-17T04:35:00	0.2389	2.346		0.598193323	0.737663648	0.012110946	0.124946396	0.038509693
2020-01-17T04:40:00	0.2394	2.342		0.599891497	0.740150417	0.012174761	0.125604762	0.038712607
2020-01-17T04:45:00	0.2414	2.345		0.606588241	0.749980504	0.012428096	0.128218378	0.039518149
2020-01-17T04:50:00	0.2418	2.345		0.607949482	0.751983253	0.012479920	0.128753035	0.039682936
2020-01-17T04:55:00	0.2430	2.343		0.611971618	0.757909977	0.012633697	0.130339522	0.040171906
2020-01-17T05:00:00	0.2433	2.340		0.612998356	0.759425079	0.012673107	0.130746113	0.040297222
2020-01-17T05:05:00	0.2428	2.335		0.611364919	0.757015119	0.012610439	0.130099574	0.040097952
2020-01-17T05:10:00	0.2430	2.329		0.612059303	0.758039334	0.012637060	0.130374220	0.040182601
2020-01-17T05:15:00	0.2432	2.322		0.612753552	0.759063755	0.012663705	0.130649111	0.040267325
2020-01-17T05:20:00	0.2440	2.314		0.615441593	0.763033999	0.012767144	0.131716272	0.040596234
2020-01-17T05:25:00	0.2442	2.305		0.616135182	0.764059418	0.012793905	0.131992357	0.040681326
2020-01-17T05:30:00	0.2443	2.296		0.616496521	0.764593792	0.012807858	0.132136308	0.040725693
2020-01-17T05:35:00	0.2443	2.288		0.616193571	0.764145760	0.012796159	0.132015612	0.040688494
2020-01-17T05:40:00	0.2450	2.281		0.618547092	0.767628399	0.012887189	0.132954750	0.040977945
2020-01-17T05:45:00	0.2447	2.273		0.617580320	0.766197248	0.012849755	0.132568558	0.040858917
2020-01-17T05:50:00	0.2451	2.266		0.618937359	0.768206350	0.012902316	0.133110813	0.041026045
2020-01-17T05:55:00	0.2457	2.260		0.620957370	0.771199862	0.012980760	0.133920104	0.041275477
2020-01-17T06:00:00	0.2462	2.254		0.622644696	0.773702994	0.013046473	0.134598055	0.041484428
2020-01-17T06:05:00	0.2464	2.247		0.623336884	0.774730544	0.013073480	0.134876682	0.041570303
2020-01-17T06:10:00	0.2468	2.243		0.624691733	0.776742981	0.013126426	0.135422914	0.041738657
2020-01-17T06:15:00	0.2480	2.237		0.628695017	0.782698353	0.013283517	0.137043595	0.042238167
2020-01-17T06:20:00	0.2481	2.231		0.629055087	0.783234664	0.013297694	0.137189855	0.042283246
2020-01-17T06:25:00	0.2474	2.223		0.626766706	0.779828064	0.013207728	0.136261694	0.041997178
2020-01-17T06:30:00	0.2478	2.213		0.627789191	0.781349640	0.013247887	0.136676008	0.042124873
2020-01-17T06:35:00	0.2482	2.204		0.629142353	0.783364660	0.013301131	0.137225315	0.042294175
2020-01-17T06:40:00	0.2481	2.196		0.628840474	0.782914992	0.013289243	0.137102670	0.042256374
2020-01-17T06:45:00	0.2481	2.187		0.628869565	0.782958321	0.013290388	0.137114486	0.042260016
2020-01-17T06:50:00	0.2495	2.178		0.633529336	0.789908056	0.013474511	0.139014043	0.042845478
2020-01-17T06:55:00	0.2493	2.171		0.632897234	0.788964242	0.013449457	0.138755572	0.042765815
2020-01-17T07:00:00	0.2492	2.161		0.632595672	0.788514087	0.013437513	0.138632348	0.042727836
2020-01-17T07:05:00	0.2488	2.151		0.631301958	0.786583779	0.013386336	0.138104360	0.042565105
2020-01-17T07:10:00	0.2485	2.143		0.630338634	0.785147356	0.013348294	0.137711889	0.042444142
2020-01-17T07:15:00	0.2483	2.137		0.629705969	0.784204410	0.013323341	0.137454448	0.042364796
2020-01-17T07:20:00	0.2484	2.134		0.630065937	0.784740877	0.013337535	0.137600894	0.042409932
2020-01-17T07:25:00	0.2494	2.127		0.633402153	0.789718128	0.013469468	0.138962017	0.042829443
2020-01-17T07:30:00	0.2495	2.122		0.633431207	0.789761514	0.013470620	0.138973901	0.042833106
2020-01-17T07:35:00	0.2497	2.117		0.634121310	0.790792262	0.013497996	0.139256333	0.042920154
2020-01-17T07:40:00	0.2485	2.114		0.630182259	0.784914257	0.013342124	0.137648234	0.042424523
2020-01-17T07:45:00	0.2485	2.108		0.630211338	0.784957603	0.013343271	0.137660070	0.042428171
2020-01-17T07:50:00	0.2474	2.102		0.626599183	0.779578855	0.013201154	0.136193876	0.041976275
2020-01-17T07:55:00	0.2477	2.097		0.627621716	0.781100357	0.013241305	0.136608102	0.042103944
2020-01-17T08:00:00	0.2468	2.092		0.624669740	0.776710300	0.013125565	0.135414038	0.041735922
2020-01-17T08:05:00	0.2472	2.091		0.626024084	0.778723511	0.013178600	0.135961191	0.041904559
2020-01-17T08:10:00	0.2471	2.091		0.625721941	0.778274247	0.013166759	0.135839027	0.041866907
2020-01-17T08:15:00	0.2469	2.096		0.625088459	0.777332554	0.013141950	0.135583078	0.041788021
2020-01-17T08:20:00	0.2470	2.104		0.625448892	0.777868308	0.013156063	0.135728675	0.041832896
2020-01-17T08:25:00	0.2466	2.111		0.623821156	0.775449683	0.013092392	0.135071794	0.041630439
2020-01-17T08:30:00	0.2463	2.118		0.622855813	0.774016354	0.013054707	0.134683005	0.041510610
2020-01-17T08:35:00	0.2467	2.125		0.624210846	0.776028513	0.013107621	0.135228905	0.041678862
2020-01-17T08:40:00	0.2462	2.131		0.622582545	0.773610751	0.013044049	0.134573052	0.041476722
2020-01-17T08:45:00	0.2465	2.141		0.623606228	0.775130493	0.013083997	0.134985182	0.041603744
2020-01-17T08:50:00	0.2458	2.153		0.621314351	0.771729240	0.012994648	0.134063388	0.041319638
2020-01-17T08:55:00	0.2453	2.165		0.619684727	0.769313496	0.012931310	0.133409941	0.041118239
2020-01-17T09:00:00	0.2467	2.179		0.624356485	0.776244873	0.013113314	0.135287646	0.041696967
2020-01-17T09:05:00	0.2467	2.192		0.624385612	0.776288146	0.013114453	0.135299396	0.041700588
2020-01-17T09:10:00	0.2464	2.205		0.623420423	0.774854584	0.013076741	0.134910329	0.041580674
2020-01-17T09:15:00	0.2449	2.220		0.618473853	0.767519954	0.012884351	0.132925474	0.040968922
2020-01-17T09:20:00	0.2463	2.237		0.622815671	0.773956769	0.013053141	0.134666850	0.041505631
2020-01-17T09:25:00	0.2489	2.258		0.631454426	0.786811198	0.013392362	0.138166530	0.042584267
2020-01-17T09:30:00	0.2491	2.279		0.632144910	0.787841359	0.013419670	0.138448265	0.042671100
2020-01-17T09:35:00	0.2504	2.303		0.636470161	0.794303566	0.013591389	0.140219858	0.043217122
2020-01-17T09:40:00	0.2510	2.332		0.638480294	0.797312235	0.013671581	0.141047180	0.043472111
2020-01-17T09:45:00	0.2508	2.358		0.637849065	0.796367074	0.013646372	0.140787109	0.043391954
2020-01-17T09:50:00	0.2525	2.378		0.643486223	0.804819776	0.013872353	0.143118504	0.044110513
2020-01-17T09:55:00	0.2532	2.390		0.645821869	0.808329903	0.013966549	0.144090314	0.044410034
2020-01-17T10:00:00	0.2531	2.391		0.645521390	0.807878069	0.013954412	0.143965100	0.044371442
2020-01-17T10:05:00	0.2528	2.392		0.644477412	0.806308819	0.013912287	0.143530497	0.044237493
2020-01-17T10:10:00	0.2528	2.397		0.644421910	0.806225417	0.013910049	0.143507411	0.044230378
2020-01-17T10:15:00	0.2530	2.401		0.645025451	0.807132485	0.013934392	0.143758557	0.044307784
2020-01-17T10:20:00	0.2541	2.410		0.648592603	0.812499924	0.014078724	0.145247601	0.044766721
2020-01-17T10:25:00	0.2543	2.424		0.649524541	0.813903983	0.014116559	0.145637941	0.044887028
2020-01-17T10:30:00	0.2530	2.445		0.645188458	0.807377523	0.013940971	0.143826427	0.044328702
2020-01-17T10:35:00	0.2511	2.463		0.638867345	0.797891947	0.013687050	0.141206771	0.043521298
2020-01-17T10:40:00	0.2482	2.475		0.629227143	0.783490974	0.013304471	0.137259773	0.042304795
2020-01-17T10:45:00	0.2466	2.485		0.623872248	0.775525567	0.013094388	0.135092387	0.041636786
2020-01-17T10:50:00	0.2460	2.496		0.621827182	0.772489920	0.013014613	0.134269365	0.041383122
2020-01-17T10:55:00	0.2460	2.501		0.622102950	0.772899057	0.013025356	0.134380194	0.041417281
2020-01-17T11:00:00	0.2476	2.500		0.627348961	0.780694420	0.013230589	0.136497546	0.042069869
2020-01-17T11:05:00	0.2479	2.498		0.628286432	0.782089912	0.013267439	0.136877727	0.042187045
2020-01-17T11:10:00	0.2492	2.497		0.632531597	0.788418449	0.013434976	0.138606173	0.042719769
2020-01-17T11:15:00	0.2488	2.503		0.631153079	0.786361733	0.013380453	0.138043667	0.042546399
2020-01-17T11:20:00	0.2498	2.517		0.634403580	0.791213981	0.013509201	0.139371941	0.042955786
2020-01-17T11:25:00	0.2490	2.531		0.632033859	0.787675650	0.013415276	0.138402934	0.042657128
2020-01-17T11:30:00	0.2480	2.545		0.628669712	0.782660665	0.013282521	0.137033319	0.042235000
2020-01-17T11:35:00	0.2463	2.558		0.622982471	0.774204369	0.013059648	0.134733983	0.041526322
2020-01-17T11:40:00	0.2457	2.567		0.620936894	0.771169500	0.012979963	0.133911888	0.041272944
2020-01-17T11:45:00	0.2433	2.572		0.612910807	0.759295853	0.012669744	0.130711418	0.040286528
2020-01-17T11:50:00	0.2419	2.577		0.608197181	0.752347852	0.012489362	0.128850448	0.039712959
2020-01-17T11:55:00	0.2448	2.580		0.618114444	0.766987836	0.012870430	0.132781850	0.040924656
2020-01-17T12:00:00	0.2439	2.588		0.615069421	0.762483937	0.012752797	0.131568251	0.040550613
2020-01-17T12:05:00	0.2423	2.598		0.609693191	0.754550986	0.012546467	0.129439591	0.039894539
2020-01-17T12:10:00	0.2417	2.607		0.607639956	0.751527721	0.012468126	0.128631361	0.039645435
2020-01-17T12:15:00	0.2432	2.617		0.612574824	0.758799989	0.012656843	0.130578314	0.040245505
2020-01-17T12:20:00	0.2422	2.625		0.609192254	0.753813060	0.012527331	0.129242163	0.039833690
2020-01-17T12:25:00	0.2408	2.633		0.604806924	0.747362057	0.012360447	0.127520457	0.039303043
2020-01-17T12:30:00	0.2404	2.641		0.603417630	0.745321712	0.012307818	0.126977493	0.039135697
2020-01-17T12:35:00	0.2387	2.647		0.597689811	0.736926781	0.012092058	0.124751532	0.038449634
2020-01-17T12:40:00	0.2386	2.656		0.597299659	0.736355955	0.012077433	0.124600646	0.038403129
2020-01-17T12:45:00	0.2385	2.664		0.596909463	0.735785194	0.012062815	0.124449837	0.038356648
2020-01-17T12:50:00	0.2379	2.674		0.595182947	0.733261246	0.011998244	0.123783673	0.038151330
2020-01-17T12:55:00	0.2394	2.685		0.600135188	0.740507469	0.012183932	0.125699384	0.038741771
2020-01-17T13:00:00	0.2413	2.695		0.606413051	0.749722865	0.012421435	0.128149651	0.039496967
2020-01-17T13:05:00	0.2401	2.705		0.602357749	0.743766236	0.012267746	0.126564072	0.039008276
2020-01-17T13:10:00	0.2391	2.723		0.598965411	0.738793977	0.012139938	0.125245507	0.038601882
2020-01-17T13:15:00	0.2388	2.741		0.597907712	0.737245643	0.012100230	0.124835843	0.038475619
2020-01-17T13:20:00	0.2384	2.761		0.596849697	0.735697781	0.012060577	0.124426746	0.038349532
2020-01-17T13:25:00	0.2378	2.775		0.594788998	0.732685690	0.011983536	0.123631927	0.038104561
2020-01-17T13:30:00	0.2371	2.786		0.592392714	0.729187538	0.011894267	0.122710961	0.037820710
2020-01-17T13:35:00	0.2375	2.797		0.593673749	0.731057027	0.011941947	0.123202863	0.037972319
2020-01-17T13:40:00	0.2370	2.812		0.591945649	0.728535433	0.011877651	0.122539531	0.037767873
2020-01-17T13:45:00	0.2369	2.811		0.591554862	0.727965551	0.011863135	0.122389781	0.037721719
2020-01-17T13:50:00	0.2372	2.805		0.592836201	0.729834589	0.011910762	0.122881140	0.037873161
2020-01-17T13:55:00	0.2357	2.802		0.587760915	0.722439499	0.011722689	0.120940826	0.037275137
2020-01-17T14:00:00	0.2362	2.796		0.589378333	0.724793873	0.011782459	0.121557456	0.037465189
2020-01-17T14:05:00	0.2346	2.792		0.583962876	0.716919490	0.011582950	0.119499162	0.036830802
2020-01-17T14:10:00	0.2344	2.787		0.583235950	0.715864354	0.011556303	0.119224243	0.036746070
2020-01-17T14:15:00	0.2361	2.777		0.588874509	0.724060256	0.011763824	0.121365204	0.037405935
2020-01-17T14:20:00	0.2362	2.766		0.589487542	0.724952921	0.011786500	0.121599149	0.037478039
2020-01-17T14:25:00	0.2364	2.749		0.590100467	0.725845743	0.011809195	0.121833284	0.037550201
2020-01-17T14:30:00	0.2350	2.740		0.585356317	0.718943301	0.011634119	0.120027058	0.036993505
2020-01-17T14:35:00	0.2342	2.729		0.582618295	0.714968173	0.011533685	0.118990905	0.036674152
2020-01-17T14:40:00	0.2336	2.716		0.580549251	0.711968415	0.011458086	0.118210962	0.036433767
2020-01-17T14:45:00	0.2338	2.704		0.581163736	0.712858941	0.011480512	0.118442323	0.036505074
2020-01-17T14:50:00	0.2334	2.690		0.580100679	0.711318532	0.011441730	0.118042215	0.036381757
2020-01-17T14:55:00	0.2321	2.675		0.575679009	0.704921427	0.011281139	0.116385431	0.035871120
2020-01-17T15:00:00	0.2330	2.661		0.578645077	0.709210830	0.011388736	0.117495485	0.036213250
2020-01-17T15:05:00	0.2344	2.648		0.583285353	0.715936049	0.011558113	0.119242917	0.036751825
2020-01-17T15:10:00	0.2337	2.633		0.580881225	0.712449481	0.011470199	0.118335926	0.036472282
2020-01-17T15:15:00	0.2351	2.618		0.585518552	0.719179033	0.011640084	0.120088597	0.037012472
2020-01-17T15:20:00	0.2351	2.603		0.585797161	0.719583912	0.011650331	0.120194316	0.037045056
2020-01-17T15:25:00	0.2342	2.585		0.582724182	0.715121786	0.011537561	0.119030890	0.036686476
2020-01-17T15:30:00	0.2355	2.564		0.587024190	0.721367816	0.011695516	0.120660487	0.037188734
2020-01-17T15:35:00	0.2365	2.546		0.590315312	0.726158774	0.011817155	0.121915409	0.037575513
2020-01-17T15:40:00	0.2375	2.532		0.593603365	0.730954276	0.011939324	0.123175810	0.037963981
2020-01-17T15:45:00	0.2379	2.516		0.594883960	0.732824417	0.011987080	0.123668497	0.038115832
2020-01-17T15:50:00	0.2365	2.495		0.590480843	0.726399979	0.011823290	0.121978703	0.037595021
2020-01-17T15:55:00	0.2371	2.478		0.592431422	0.729244007	0.011895706	0.122725809	0.037825286
2020-01-17T16:00:00	0.2379	2.461		0.595049277	0.733065940	0.011993252	0.123732173	0.038135458
2020-01-17T16:05:00	0.2377	2.446		0.594197632	0.731821954	0.011961474	0.123404318	0.038034409
2020-01-17T16:10:00	0.2389	2.435		0.598356821	0.737902966	0.012117082	0.125009706	0.038529205
2020-01-17T16:15:00	0.2400	2.421		0.602177666	0.743502040	0.012260944	0.126493897	0.038986648
2020-01-17T16:20:00	0.2387	2.405		0.597656758	0.736878416	0.012090818	0.124738745	0.038445693
2020-01-17T16:25:00	0.2370	2.388		0.592126937	0.728799845	0.011884387	0.122609032	0.037789294
2020-01-17T16:30:00	0.2367	2.377		0.590940067	0.727069262	0.011840318	0.122154383	0.037649167
2020-01-17T16:35:00	0.2358	2.368		0.588079164	0.722902582	0.011734438	0.121062029	0.037312493
2020-01-17T16:40:00	0.2340	2.357		0.581863550	0.713873509	0.011506079	0.118706093	0.036586371
2020-01-17T16:45:00	0.2354	2.345		0.586707249	0.720906915	0.011683836	0.120539987	0.037151595
2020-01-17T16:50:00	0.2357	2.331		0.587528278	0.722101043	0.011714105	0.120852267	0.037247842
2020-01-17T16:55:00	0.2349	2.318		0.584999715	0.718425225	0.011621013	0.119891848	0.036951832
2020-01-17T17:00:00	0.2348	2.307		0.584480802	0.717671529	0.011601955	0.119695236	0.036891234
2020-01-17T17:05:00	0.2352	2.296		0.585972428	0.719838646	0.011656780	0.120260847	0.037065561
2020-01-17T17:10:00	0.2338	2.283		0.581430684	0.713245907	0.011490261	0.118542905	0.036536075
2020-01-17T17:15:00	0.2329	2.273		0.578226303	0.708604775	0.011373513	0.117338433	0.036164844
2020-01-17T17:20:00	0.2328	2.262		0.578042168	0.708338339	0.011366822	0.117269410	0.036143571
2020-01-17T17:25:00	0.2339	2.254		0.581549676	0.713418415	0.011494608	0.118587753	0.036549897
2020-01-17T17:30:00	0.2336	2.246		0.580694760	0.712179261	0.011463394	0.118265727	0.036450646
2020-01-17T17:35:00	0.2334	2.238		0.579839635	0.710940413	0.011432217	0.117944071	0.036351508
2020-01-17T17:40:00	0.2322	2.229		0.575961939	0.705330274	0.011291380	0.116491086	0.035903684
2020-01-17T17:45:00	0.2330	2.220		0.578464500	0.708949480	0.011382170	0.117427751	0.036192373
2020-01-17T17:50:00	0.2329	2.214		0.578280378	0.708683025	0.011375478	0.117358706	0.036171093
2020-01-17T17:55:00	0.2308	2.207		0.571374636	0.698709587	0.011125921	0.114784079	0.035377568
2020-01-17T18:00:00	0.2308	2.201		0.571190141	0.698443676	0.011119293	0.114715694	0.035356491
2020-01-17T18:05:00	0.2314	2.196		0.573359915	0.701572728	0.011197375	0.115521254	0.035604772
2020-01-17T18:10:00	0.2312	2.190		0.572503000	0.700336497	0.011166504	0.115202768	0.035506612
2020-01-17T18:15:00	0.2308	2.181		0.571309481	0.698615676	0.011123580	0.114759926	0.035370124
2020-01-17T18:20:00	0.2317	2.170		0.574151518	0.702715278	0.011225931	0.115815864	0.035695574
2020-01-17T18:25:00	0.2310	2.162		0.571949664	0.699538547	0.011146594	0.114997351	0.035443300
2020-01-17T18:30:00	0.2303	2.150		0.569409847	0.695879204	0.011055434	0.114056880	0.035153438
2020-01-17T18:35:00	0.2305	2.139		0.570234932	0.697067394	0.011085007	0.114361970	0.035247470
2020-01-17T18:40:00	0.2308	2.130		0.571059823	0.698255866	0.011114612	0.114667403	0.035341607
2020-01-17T18:45:00	0.2309	2.118		0.571548149	0.698959694	0.011132157	0.114848412	0.035397396
2020-01-17T18:50:00	0.2319	2.108		0.575062155	0.704030275	0.011258828	0.116155249	0.035800176
2020-01-17T18:55:00	0.2312	2.099		0.572524597	0.700367646	0.011167282	0.115210790	0.035509084
2020-01-17T19:00:00	0.2306	2.090		0.570658206	0.697677161	0.011100193	0.114518644	0.035295758
2020-01-17T19:05:00	0.2313	2.082		0.572828309	0.700805734	0.011178219	0.115323622	0.035543860
2020-01-17T19:10:00	0.2324	2.073		0.576676943	0.706363783	0.011317282	0.116758308	0.035986045
2020-01-17T19:15:00	0.2325	2.063		0.576828623	0.706583085	0.011322780	0.116815037	0.036003529
2020-01-17T19:20:00	0.2320	2.055		0.575300567	0.704374665	0.011267448	0.116244186	0.035827587
2020-01-17T19:25:00	0.2328	2.046		0.577803600	0.707993181	0.011358157	0.117180015	0.036116019
2020-01-17T19:30:00	0.2329	2.039		0.578290987	0.708698378	0.011375863	0.117362684	0.036172319
2020-01-17T19:35:00	0.2331	2.031		0.578778307	0.709403674	0.011393581	0.117545473	0.036228656
2020-01-17T19:40:00	0.2330	2.026		0.578594201	0.709137195	0.011386886	0.117476400	0.036207367
2020-01-17T19:45:00	0.2315	2.024		0.573706735	0.702073242	0.011209882	0.115650283	0.035644540
2020-01-17T19:50:00	0.2315	2.021		0.573522363	0.701807152	0.011203232	0.115581681	0.035623397
2020-01-17T19:55:00	0.2314	2.019		0.573337981	0.701541077	0.011196584	0.115513096	0.035602258
2020-01-17T20:00:00	0.2322	2.017		0.575842415	0.705157548	0.011287053	0.116446446	0.035889926
2020-01-17T20:05:00	0.2308	2.017		0.571287534	0.698584043	0.011122792	0.114751791	0.035367616
2020-01-17T20:10:00	0.2312	2.015		0.572448493	0.700257883	0.011164542	0.115182525	0.035500373
2020-01-17T20:15:00	0.2305	2.010		0.570245566	0.697082712	0.011085388	0.114365904	0.035248682
2020-01-17T20:20:00	0.2296	2.005		0.567030934	0.692456526	0.010970396	0.113179558	0.034883039
2020-01-17T20:25:00	0.2300	2.001		0.568530000	0.694612772	0.011023944	0.113731998	0.035053306
2020-01-17T20:30:00	0.2306	1.995		0.570701423	0.697739427	0.011101744	0.114534646	0.035300690
2020-01-17T20:35:00	0.2301	1.990		0.568834059	0.695050356	0.011034821	0.113844218	0.035087894
2020-01-17T20:40:00	0.2296	1.984		0.567302510	0.692847021	0.010980087	0.113279538	0.034913854
2020-01-17T20:45:00	0.2295	1.980		0.566780971	0.692097160	0.010961481	0.113087574	0.034854689
2020-01-17T20:50:00	0.2298	1.975		0.567943426	0.693768827	0.011002975	0.113515669	0.034986632
2020-01-17T20:55:00	0.2298	1.970		0.567758750	0.693503179	0.010996378	0.113447603	0.034965653
2020-01-17T21:00:00	0.2294	1.962		0.566563611	0.691784711	0.010953731	0.113007619	0.034830046
2020-01-17T21:05:00	0.2297	1.955		0.567389368	0.692971926	0.010983188	0.113311524	0.034923712
2020-01-17T21:10:00	0.2289	1.948		0.564846236	0.689317392	0.010892595	0.112376898	0.034635651
2020-01-17T21:15:00	0.2313	1.946		0.572741243	0.700680138	0.011175083	0.115291270	0.035533889
2020-01-17T21:20:00	0.2318	1.946		0.574573976	0.703325239	0.011241186	0.115973247	0.035744081
2020-01-17T21:25:00	0.2318	1.943		0.574725747	0.703544408	0.011246669	0.116029814	0.035761516
2020-01-17T21:30:00	0.2323	1.939		0.576221521	0.705705441	0.011300780	0.116588065	0.035933574
2020-01-17T21:35:00	0.2330	1.937		0.578723898	0.709324918	0.011391602	0.117525058	0.036222364
2020-01-17T21:40:00	0.2326	1.938		0.577196668	0.707115290	0.011336128	0.116952744	0.036045972
2020-01-17T21:45:00	0.2327	1.940		0.577684139	0.707820364	0.011353820	0.117135264	0.036102226
2020-01-17T21:50:00	0.2340	1.945		0.581862866	0.713872518	0.011506054	0.118705836	0.036586291
2020-01-17T21:55:00	0.2335	1.946		0.580337001	0.711660890	0.011450345	0.118131101	0.036409153
2020-01-17T22:00:00	0.2336	1.950		0.580488523	0.711880423	0.011455871	0.118188110	0.036426723
2020-01-17T22:05:00	0.2323	1.955		0.576281639	0.705792335	0.011302958	0.116610531	0.035940498
2020-01-17T22:10:00	0.2318	1.960		0.574423265	0.703107619	0.011235743	0.115917088	0.035726772
2020-01-17T22:15:00	0.2314	1.958		0.573236418	0.701394527	0.011192923	0.115475327	0.035590617
2020-01-17T22:20:00	0.2309	1.953		0.571712814	0.699197071	0.011138076	0.114909481	0.035416218
2020-01-17T22:25:00	0.2305	1.952		0.570188547	0.697000580	0.011083343	0.114344807	0.035242180
2020-01-17T22:30:00	0.2317	1.954		0.574382226	0.703048365	0.011234261	0.115901799	0.035722060
2020-01-17T22:35:00	0.2314	1.961		0.573195365	0.701335293	0.011191444	0.115460062	0.035585912
2020-01-17T22:40:00	0.2313	1.970		0.573016984	0.701077924	0.011185016	0.115393745	0.035565473
2020-01-17T22:45:00	0.2298	1.976		0.567791017	0.693549592	0.010997530	0.113459495	0.034969318
2020-01-17T22:50:00	0.2295	1.986		0.566938764	0.692324010	0.010967108	0.113145636	0.034872584
2020-01-17T22:55:00	0.2282	1.998		0.562378300	0.685776020	0.010805046	0.111473673	0.034357269
2020-01-17T23:00:00	0.2298	2.011		0.567928551	0.693747430	0.011002444	0.113510186	0.034984942
2020-01-17T23:05:00	0.2295	2.023		0.566739499	0.692037543	0.010960002	0.113072316	0.034849986
2020-01-17T23:10:00	0.2288	2.036		0.564539003	0.688876254	0.010881677	0.112264254	0.034600933
2020-01-17T23:15:00	0.2286	2.047		0.563685957	0.687651820	0.010851390	0.111951793	0.034504630
2020-01-17T23:20:00	0.2280	2.060		0.561820875	0.684976837	0.010785322	0.111270177	0.034294549
2020-01-17T23:25:00	0.2271	2.071		0.558604515	0.680370522	0.010671868	0.110099690	0.033933794
2020-01-17T23:30:00	0.2269	2.084		0.558087717	0.679631184	0.010653695	0.109912205	0.033876009
2020-01-17T23:35:00	0.2267	2.096		0.557233091	0.678409025	0.010623677	0.109602517	0.033780560
2020-01-17T23:40:00	0.2262	2.107		0.555702485	0.676221684	0.010570024	0.109048986	0.033609957
2020-01-17T23:45:00	0.2255	2.116		0.553495009	0.673070441	0.010492886	0.108253173	0.033364679
2020-01-17T23:50:00	0.2262	2.127		0.555681856	0.676192217	0.010569301	0.109041535	0.033607660
2020-01-17T23:55:00	0.2260	2.140		0.555164624	0.675453501	0.010551202	0.108854810	0.033550110
2020-01-18T00:00:00	0.2269	2.153		0.558025871	0.679542720	0.010651521	0.109889779	0.033869097
2020-01-18T00:05:00	0.2263	2.166		0.556157758	0.676872099	0.010585968	0.109213483	0.033660656
2020-01-18T00:10:00	0.2261	2.180		0.555302657	0.675650619	0.010556031	0.108904625	0.033565463
2020-01-18T00:15:00	0.2256	2.192		0.553771202	0.673464496	0.010502522	0.108352581	0.033395318
2020-01-18T00:20:00	0.2254	2.203		0.552915514	0.672243857	0.010472684	0.108044751	0.033300441
2020-01-18T00:25:00	0.2254	2.216		0.553074282	0.672470293	0.010478217	0.108101833	0.033318035
2020-01-18T00:30:00	0.2256	2.230		0.553571182	0.673179114	0.010495543	0.108280585	0.033373128
2020-01-18T00:35:00	0.2264	2.244		0.556433739	0.677266457	0.010595640	0.109313261	0.033691409
2020-01-18T00:40:00	0.2263	2.258		0.555916619	0.676527581	0.010577522	0.109126340	0.033633798
2020-01-18T00:45:00	0.2270	2.271		0.558439613	0.680134587	0.010666067	0.110039849	0.033915350
2020-01-18T00:50:00	0.2277	2.283		0.560623358	0.683260815	0.010743009	0.110833646	0.034160006
2020-01-18T00:55:00	0.2281	2.297		0.562131212	0.685421736	0.010796301	0.111383446	0.034329460
2020-01-18T01:00:00	0.2284	2.311		0.562964052	0.686616092	0.010825793	0.111687713	0.034423238
2020-01-18T01:05:00	0.2286	2.325		0.563796694	0.687810735	0.010855319	0.111992330	0.034517124
2020-01-18T01:10:00	0.2287	2.339		0.564292068	0.688521750	0.010872905	0.112173759	0.034573042
2020-01-18T01:15:00	0.2286	2.354		0.563776113	0.687781198	0.010854589	0.111984795	0.034514801
2020-01-18T01:20:00	0.2288	2.368		0.564608561	0.688976121	0.010884148	0.112289752	0.034608792
2020-01-18T01:25:00	0.2290	2.382		0.565103819	0.689687302	0.010901754	0.112471383	0.034664773
2020-01-18T01:30:00	0.2293	2.396		0.566272861	0.691366825	0.010943368	0.112900712	0.034797096
2020-01-18T01:35:00	0.2291	2.409		0.565420238	0.690141779	0.010913009	0.112587506	0.034700563
2020-01-18T01:40:00	0.2290	2.423		0.565241459	0.689884986	0.010906649	0.112521888	0.034680339
2020-01-18T01:45:00	0.2283	2.437		0.562702797	0.686241370	0.010816537	0.111592222	0.034393806
2020-01-18T01:50:00	0.2289	2.449		0.564883874	0.689371440	0.010893933	0.112390702	0.034639906
2020-01-18T01:55:00	0.2285	2.462		0.563356625	0.687179270	0.010839709	0.111831281	0.034467487
2020-01-18T02:00:00	0.2281	2.474		0.562166015	0.685471635	0.010797533	0.111396153	0.034333376
2020-01-18T02:05:00	0.2278	2.485		0.560974998	0.683764586	0.010755425	0.110961739	0.034199485
2020-01-18T02:10:00	0.2276	2.497		0.560458551	0.683024742	0.010737193	0.110773637	0.034141511
2020-01-18T02:15:00	0.2269	2.508		0.557916403	0.679386148	0.010647674	0.109850091	0.033856865
2020-01-18T02:20:00	0.2259	2.519		0.554696434	0.674785018	0.010534833	0.108685930	0.033498059
2020-01-18T02:25:00	0.2253	2.530		0.552826532	0.672116959	0.010469584	0.108012765	0.033290583
2020-01-18T02:30:00	0.2256	2.540		0.553661601	0.673308116	0.010498698	0.108313128	0.033383158
2020-01-18T02:35:00	0.2257	2.551		0.554158417	0.674017057	0.010516038	0.108492027	0.033438296
2020-01-18T02:40:00	0.2257	2.561		0.553979060	0.673761096	0.010509776	0.108427425	0.033418385
2020-01-18T02:45:00	0.2259	2.571		0.554813851	0.674952649	0.010538937	0.108728271	0.033511109
2020-01-18T02:50:00	0.2260	2.579		0.554972532	0.675179210	0.010544485	0.108785505	0.033528749
2020-01-18T02:55:00	0.2256	2.589		0.553779052	0.673475697	0.010502796	0.108355408	0.033396189
2020-01-18T03:00:00	0.2262	2.599		0.555627813	0.676115022	0.010567410	0.109022018	0.033601645
2020-01-18T03:05:00	0.2264	2.608		0.556462209	0.677307141	0.010596638	0.109323556	0.033694582
2020-01-18T03:10:00	0.2264	2.617		0.556282970	0.677051010	0.010590356	0.109258746	0.033674607
2020-01-18T03:15:00	0.2260	2.627		0.555089940	0.675346854	0.010548590	0.108827862	0.033541804
2020-01-18T03:20:00	0.2266	2.635		0.556938004	0.677987176	0.010613322	0.109495691	0.033747635
2020-01-18T03:25:00	0.2267	2.644		0.557434353	0.678696787	0.010630742	0.109675408	0.033803026
2020-01-18T03:30:00	0.2265	2.652		0.556579566	0.677474858	0.010600752	0.109366001	0.033707664
2020-01-18T03:35:00	0.2259	2.660		0.554710676	0.674805350	0.010535331	0.108691065	0.033499642
2020-01-18T03:40:00	0.2261	2.667		0.555207343	0.675514505	0.010552697	0.108870226	0.033554861
2020-01-18T03:45:00	0.2258	2.673		0.554352009	0.674293360	0.010522799	0.108561778	0.033459794
2020-01-18T03:50:00	0.2251	2.677		0.552143675	0.671143344	0.010445807	0.107767465	0.033214979
2020-01-18T03:55:00	0.2248	2.681		0.550949224	0.669441220	0.010404283	0.107339066	0.033082943
2020-01-18T04:00:00	0.2250	2.686		0.551784743	0.670631733	0.010433320	0.107638640	0.033175274
2020-01-18T04:05:00	0.2252	2.690		0.552275775	0.671331661	0.010450404	0.107814897	0.033229598
2020-01-18T04:10:00	0.2254	2.695		0.553104923	0.672513997	0.010479285	0.108112852	0.033321431
2020-01-18T04:15:00	0.2254	2.699		0.552919460	0.672249484	0.010472822	0.108046169	0.033300879
2020-01-18T04:20:00	0.2255	2.703		0.553410331	0.672949640	0.010489933	0.108222705	0.033355289
2020-01-18T04:25:00	0.2259	2.707		0.554577252	0.674614878	0.010530668	0.108642961	0.033484816
2020-01-18T04:30:00	0.2255	2.711		0.553377586	0.672902927	0.010488791	0.108210924	0.033351658
2020-01-18T04:35:00	0.2254	2.713		0.552853959	0.672156071	0.010470539	0.108022623	0.033293622
2020-01-18T04:40:00	0.2252	2.716		0.552330253	0.671409328	0.010452301	0.107834461	0.033235628
2020-01-18T04:45:00	0.2259	2.721		0.554849799	0.675003973	0.010540194	0.108741236	0.033515105
2020-01-18T04:50:00	0.2261	2.724		0.555340399	0.675704519	0.010557351	0.108918248	0.033569662
2020-01-18T04:55:00	0.2265	2.729		0.556844495	0.677853513	0.010610042	0.109461850	0.033737205
2020-01-18T05:00:00	0.2261	2.734		0.555307671	0.675657780	0.010556206	0.108906435	0.033566021
2020-01-18T05:05:00	0.2262	2.737		0.555798206	0.676358420	0.010573375	0.109083561	0.033620613
2020-01-18T05:10:00	0.2265	2.737		0.556626516	0.677541957	0.010602398	0.109382984	0.033712898
2020-01-18T05:15:00	0.2273	2.737		0.559480522	0.681624252	0.010702707	0.110417860	0.034031857
2020-01-18T05:20:00	0.2268	2.737		0.557607145	0.678943867	0.010636810	0.109738007	0.033822319
2020-01-18T05:25:00	0.2270	2.737		0.558435024	0.680128022	0.010665906	0.110038184	0.033914837
2020-01-18T05:30:00	0.2276	2.737		0.560275275	0.682762240	0.010730726	0.110706923	0.034120949
2020-01-18T05:35:00	0.2279	2.737		0.561439899	0.684430775	0.010771851	0.111131205	0.034251717
2020-01-18T05:40:00	0.2298	2.737		0.567995943	0.693844376	0.011004852	0.113535029	0.034992598
2020-01-18T05:45:00	0.2299	2.738		0.568148000	0.694063130	0.011010286	0.113591092	0.035009878
2020-01-18T05:50:00	0.2301	2.741		0.568973383	0.695250887	0.011039807	0.113895657	0.035103748
2020-01-18T05:55:00	0.2301	2.741		0.568788761	0.694985161	0.011033201	0.113827496	0.035082740
2020-01-18T06:00:00	0.2315	2.744		0.573650533	0.701992128	0.011207855	0.115629369	0.035638094
2020-01-18T06:05:00	0.2323	2.748		0.576154744	0.705608924	0.011298362	0.116563113	0.035925884
2020-01-18T06:10:00	0.2329	2.750		0.578321447	0.708742456	0.011376970	0.117374105	0.036175839
2020-01-18T06:15:00	0.2335	2.754		0.580151267	0.711391814	0.011443574	0.118061240	0.036387621
2020-01-18T06:20:00	0.2331	2.759		0.578960350	0.709667195	0.011400203	0.117613793	0.036249713
2020-01-18T06:25:00	0.2337	2.766		0.580789837	0.712317040	0.011466864	0.118301518	0.036461677
2020-01-18T06:30:00	0.2343	2.771		0.582953682	0.715454760	0.011545964	0.119117578	0.036713195
2020-01-18T06:35:00	0.2347	2.777		0.584445955	0.717620923	0.011600676	0.119682038	0.036887166
2020-01-18T06:40:00	0.2356	2.783		0.587277381	0.721736071	0.011704851	0.120756794	0.037218417
2020-01-18T06:45:00	0.2362	2.788		0.589437240	0.724879662	0.011784639	0.121579944	0.037472120
2020-01-18T06:50:00	0.2373	2.793		0.592933412	0.729976443	0.011914380	0.122918459	0.037884663
2020-01-18T06:55:00	0.2370	2.795		0.592081256	0.728733216	0.011882689	0.122591517	0.037783896
2020-01-18T07:00:00	0.2381	2.797		0.595574810	0.733833880	0.012012884	0.123934709	0.038197881
2020-01-18T07:05:00	0.2384	2.799		0.596727779	0.735519476	0.012056012	0.124379649	0.038335016
2020-01-18T07:10:00	0.2387	2.798		0.597546478	0.736717057	0.012086684	0.124696089	0.038432546
2020-01-18T07:15:00	0.2383	2.796		0.596361430	0.734983768	0.012042299	0.124238183	0.038291415
2020-01-18T07:20:00	0.2387	2.798		0.597848039	0.737158317	0.012097992	0.124812751	0.038468502
2020-01-18T07:25:00	0.2387	2.804		0.597664927	0.736890369	0.012091125	0.124741905	0.038446667
2020-01-18T07:30:00	0.2389	2.810		0.598483410	0.738088274	0.012121835	0.125058734	0.038544316
2020-01-18T07:35:00	0.2382	2.815		0.595962693	0.734400827	0.012027384	0.124084305	0.038243988
2020-01-18T07:40:00	0.2393	2.822		0.599786125	0.739996041	0.012170796	0.125563858	0.038700001
2020-01-18T07:45:00	0.2388	2.828		0.597934145	0.737284327	0.012101222	0.124846072	0.038478772
2020-01-18T07:50:00	0.2387	2.835		0.597751038	0.737016372	0.012094354	0.124775219	0.038456934
2020-01-18T07:55:00	0.2391	2.844		0.598903298	0.738703026	0.012137605	0.125221430	0.038594461
2020-01-18T08:00:00	0.2380	2.852		0.595380682	0.733550182	0.012005630	0.123859874	0.038174816
2020-01-18T08:05:00	0.2388	2.859		0.597869480	0.737189694	0.012098796	0.124821048	0.038471059
2020-01-18T08:10:00	0.2394	2.869		0.600022869	0.740342894	0.012179705	0.125655767	0.038728328
2020-01-18T08:15:00	0.2404	2.877		0.603508585	0.745455241	0.012311260	0.127013004	0.039146641
2020-01-18T08:20:00	0.2407	2.886		0.604325717	0.746655165	0.012342205	0.127332257	0.039245038
2020-01-18T08:25:00	0.2402	2.896		0.602809541	0.744429169	0.012284819	0.126740215	0.039062565
2020-01-18T08:30:00	0.2399	2.907		0.601626255	0.742693248	0.012240128	0.126279148	0.038920460
2020-01-18T08:35:00	0.2395	2.918		0.600442574	0.740957919	0.012195506	0.125818791	0.038778573
2020-01-18T08:40:00	0.2393	2.929		0.599592228	0.739711998	0.012163502	0.125488609	0.038676808
2020-01-18T08:45:00	0.2391	2.938		0.599075458	0.738955126	0.012144074	0.125288169	0.038615031
2020-01-18T08:50:00	0.2395	2.949		0.600227286	0.740642423	0.012187400	0.125735154	0.038752796
2020-01-18T08:55:00	0.2402	2.960		0.602712677	0.744287021	0.012281158	0.126702439	0.039050922
2020-01-18T09:00:00	0.2403	2.972		0.602863240	0.744507975	0.012286849	0.126761159	0.039069020
2020-01-18T09:05:00	0.2398	2.983		0.601346438	0.742282917	0.012229572	0.126170243	0.038886894
2020-01-18T09:10:00	0.2393	2.995		0.599828985	0.740058832	0.012172409	0.125580495	0.038705128
2020-01-18T09:15:00	0.2396	3.008		0.600646967	0.741257484	0.012203205	0.125898222	0.038803055
2020-01-18T09:20:00	0.2395	3.022		0.600464000	0.740989320	0.012196313	0.125827116	0.038781139
2020-01-18T09:25:00	0.2393	3.037		0.599613659	0.739743391	0.012164308	0.125496925	0.038679371
2020-01-18T09:30:00	0.2392	3.051		0.599430639	0.739475307	0.012157425	0.125425916	0.038657485
2020-01-18T09:35:00	0.2394	3.063		0.599915043	0.740184914	0.012175647	0.125613903	0.038715425
2020-01-18T09:40:00	0.2386	3.077		0.597395348	0.736495944	0.012081019	0.124637643	0.038414532
2020-01-18T09:45:00	0.2386	3.091		0.597212213	0.736228032	0.012074156	0.124566840	0.038392710
2020-01-18T09:50:00	0.2377	3.105		0.594356394	0.732053810	0.011967394	0.123465403	0.038053236
2020-01-18T09:55:00	0.2371	3.122		0.592501565	0.729346337	0.011898315	0.122752719	0.037833580
2020-01-18T10:00:00	0.2369	3.139		0.591649305	0.728103265	0.011866643	0.122425963	0.037732871
2020-01-18T10:05:00	0.2369	3.157		0.591604944	0.728038578	0.011864995	0.122408967	0.037727633
2020-01-18T10:10:00	0.2365	3.174		0.590222425	0.726023432	0.011813713	0.121879899	0.037564569
2020-01-18T10:15:00	0.2357	3.188		0.587500173	0.722060158	0.011713069	0.120841570	0.037244546
2020-01-18T10:20:00	0.2350	3.206		0.585445993	0.719073600	0.011637416	0.120061072	0.037003988
2020-01-18T10:25:00	0.2353	3.222		0.586406593	0.720469773	0.011672762	0.120425735	0.037116381
2020-01-18T10:30:00	0.2353	3.239		0.586362166	0.720405184	0.011671126	0.120408857	0.037111179
2020-01-18T10:35:00	0.2356	3.256		0.587322517	0.721801725	0.011706516	0.120773966	0.037223709
2020-01-18T10:40:00	0.2354	3.275		0.586608273	0.720762998	0.011680190	0.120502369	0.037140000
2020-01-18T10:45:00	0.2350	3.290		0.585223791	0.718750753	0.011629247	0.119976800	0.036978015
2020-01-18T10:50:00	0.2347	3.305		0.584173958	0.717225959	0.011590694	0.119579052	0.036855425
2020-01-18T10:55:00	0.2348	3.322		0.584799804	0.718134837	0.011613669	0.119816083	0.036928481
2020-01-18T11:00:00	0.2343	3.339		0.583079344	0.715637098	0.011550566	0.119165058	0.036727828
2020-01-18T11:05:00	0.2337	3.354		0.581022578	0.712654344	0.011475358	0.118389155	0.036488687
2020-01-18T11:10:00	0.2332	3.367		0.579300268	0.710159324	0.011412574	0.117741417	0.036289048
2020-01-18T11:15:00	0.2329	3.380		0.578248663	0.708637132	0.011374325	0.117346816	0.036167428
2020-01-18T11:20:00	0.2330	3.396		0.578539865	0.709058553	0.011384910	0.117456018	0.036201085
2020-01-18T11:25:00	0.2327	3.413		0.577488033	0.707536694	0.011346701	0.117061820	0.036079590
2020-01-18T11:30:00	0.2330	3.430		0.578450811	0.708929668	0.011381672	0.117422617	0.036190791
2020-01-18T11:35:00	0.2327	3.442		0.577734761	0.707893595	0.011355658	0.117154226	0.036108070
2020-01-18T11:40:00	0.2324	3.453		0.576682688	0.706372089	0.011317490	0.116760457	0.035986707
2020-01-18T11:45:00	0.2315	3.466		0.573613750	0.701939041	0.011206528	0.115615682	0.035633876
2020-01-18T11:50:00	0.2325	3.477		0.576929473	0.706728906	0.011326437	0.116852763	0.036015156
2020-01-18T11:55:00	0.2321	3.488		0.575541170	0.704722268	0.011276151	0.116333976	0.035855261
2020-01-18T12:00:00	0.2313	3.500		0.572807514	0.700775736	0.011177470	0.115315895	0.035541479
2020-01-18T12:05:00	0.2305	3.512		0.570071722	0.696832314	0.011079154	0.114301587	0.035228859
2020-01-18T12:10:00	0.2298	3.526		0.568007309	0.693860726	0.011005258	0.113539219	0.034993890
2020-01-18T12:15:00	0.2297	3.537		0.567625900	0.693312099	0.010991633	0.113398652	0.034950566
2020-01-18T12:20:00	0.2300	3.550		0.568591393	0.694701120	0.011026140	0.113754652	0.035060288
2020-01-18T12:25:00	0.2305	3.561		0.570229711	0.697059873	0.011084819	0.114360038	0.035246874
2020-01-18T12:30:00	0.2290	3.569		0.565133669	0.689730171	0.010902815	0.112482335	0.034668148
2020-01-18T12:35:00	0.2286	3.574		0.563740677	0.687730345	0.010853332	0.111971823	0.034510803
2020-01-18T12:40:00	0.2286	3.580		0.563695961	0.687666177	0.010851745	0.111955455	0.034505758
2020-01-18T12:45:00	0.2281	3.586		0.561965101	0.685183590	0.010790424	0.111322811	0.034310771
2020-01-18T12:50:00	0.2279	3.592		0.561583032	0.684635918	0.010776911	0.111183407	0.034267806
2020-01-18T12:55:00	0.2275	3.602		0.560188622	0.682638138	0.010727669	0.110675387	0.034111229
2020-01-18T13:00:00	0.2272	3.609		0.559131254	0.681124309	0.010690406	0.110290949	0.033992741
2020-01-18T13:05:00	0.2272	3.614		0.559086480	0.681060226	0.010688830	0.110274684	0.033987729
2020-01-18T13:10:00	0.2268	3.623		0.557691070	0.679063883	0.010639758	0.109768418	0.033831692
2020-01-18T13:15:00	0.2269	3.631		0.557983989	0.679482815	0.010650049	0.109874593	0.033864417
2020-01-18T13:20:00	0.2273	3.636		0.559289739	0.681351151	0.010695987	0.110348527	0.034010488
2020-01-18T13:25:00	0.2269	3.641		0.558232098	0.679837715	0.010658770	0.109964567	0.033892148
2020-01-18T13:30:00	0.2268	3.647		0.557849620	0.679290632	0.010645328	0.109825882	0.033849403
2020-01-18T13:35:00	0.2270	3.651		0.558480189	0.680192640	0.010667494	0.110054572	0.033919888
2020-01-18T13:40:00	0.2277	3.654		0.560798169	0.683511243	0.010749181	0.110897315	0.034179630
2020-01-18T13:45:00	0.2288	3.659		0.564463146	0.688767346	0.010878982	0.112236450	0.034592364
2020-01-18T13:50:00	0.2284	3.663		0.563069886	0.686767907	0.010829544	0.111726408	0.034435164
2020-01-18T13:55:00	0.2286	3.667		0.563699513	0.687671273	0.010851871	0.111956755	0.034506159
2020-01-18T14:00:00	0.2277	3.669		0.560619154	0.683254792	0.010742861	0.110832115	0.034159534
2020-01-18T14:05:00	0.2259	3.671		0.554833108	0.674980142	0.010539610	0.108735216	0.033513250
2020-01-18T14:10:00	0.2247	3.673		0.550729839	0.669128719	0.010396665	0.107260476	0.033058720
2020-01-18T14:15:00	0.2249	3.675		0.551361701	0.670028878	0.010418613	0.107486906	0.033128508
2020-01-18T14:20:00	0.2254	3.675		0.553008133	0.672375948	0.010475912	0.108078048	0.033310704
2020-01-18T14:25:00	0.2254	3.677		0.552963279	0.672311978	0.010474348	0.108061922	0.033305734
2020-01-18T14:30:00	0.2251	3.676		0.551903714	0.670801299	0.010437458	0.107681332	0.033188432
2020-01-18T14:35:00	0.2247	3.675		0.550505420	0.668809087	0.010388875	0.107180113	0.033033952
2020-01-18T14:40:00	0.2246	3.674		0.550460534	0.668745163	0.010387318	0.107164043	0.033028999
2020-01-18T14:45:00	0.2240	3.673		0.548384465	0.665790331	0.010315404	0.106422116	0.032800330
2020-01-18T14:50:00	0.2243	3.671		0.549355305	0.667171670	0.010349002	0.106768742	0.032907163
2020-01-18T14:55:00	0.2250	3.670		0.551679370	0.670481559	0.010429656	0.107600836	0.033163623
2020-01-18T15:00:00	0.2252	3.667		0.552311059	0.671381964	0.010451633	0.107827568	0.033233504
2020-01-18T15:05:00	0.2247	3.662		0.550574529	0.668907513	0.010391274	0.107204857	0.033041578
2020-01-18T15:10:00	0.2249	3.658		0.551206419	0.669807631	0.010413217	0.107431238	0.033111351
2020-01-18T15:15:00	0.2250	3.654		0.551499885	0.670225781	0.010423416	0.107536457	0.033143781
2020-01-18T15:20:00	0.2244	3.650		0.549762949	0.667751908	0.010363126	0.106914455	0.032952074
2020-01-18T15:25:00	0.2245	3.646		0.550056537	0.668169884	0.010373304	0.107019462	0.032984437
2020-01-18T15:30:00	0.2252	3.641		0.552380133	0.671480441	0.010454037	0.107852375	0.033241149
2020-01-18T15:35:00	0.2263	3.636		0.556053972	0.676723812	0.010582332	0.109175972	0.033649095
2020-01-18T15:40:00	0.2268	3.629		0.557698185	0.679074058	0.010640008	0.109770996	0.033832487
2020-01-18T15:45:00	0.2270	3.623		0.558328782	0.679976027	0.010662170	0.109999639	0.033902957
2020-01-18T15:50:00	0.2265	3.615		0.556595254	0.677497279	0.010601302	0.109371676	0.033709413
2020-01-18T15:55:00	0.2267	3.607		0.557226051	0.678398961	0.010623430	0.109599968	0.033779775
2020-01-18T16:00:00	0.2268	3.597		0.557856734	0.679300807	0.010645577	0.109828460	0.033850198
2020-01-18T16:05:00	0.2269	3.587		0.558152661	0.679724081	0.010655978	0.109935756	0.033883268
2020-01-18T16:10:00	0.2266	3.580		0.557097697	0.678215461	0.010618925	0.109553496	0.033765451
2020-01-18T16:15:00	0.2270	3.575		0.558406800	0.680087642	0.010664913	0.110027943	0.033911681
2020-01-18T16:20:00	0.2272	3.569		0.559040290	0.680994119	0.010687203	0.110257907	0.033982558
2020-01-18T16:25:00	0.2274	3.562		0.559673665	0.681900761	0.010709513	0.110488074	0.034053497
2020-01-18T16:30:00	0.2278	3.554		0.560981800	0.683774332	0.010755665	0.110964217	0.034200249
2020-01-18T16:35:00	0.2280	3.547		0.561614822	0.684681482	0.010778035	0.111195002	0.034271380
2020-01-18T16:40:00	0.2284	3.540		0.563259431	0.687039825	0.010836263	0.111795727	0.034456529
2020-01-18T16:45:00	0.2277	3.532		0.560856604	0.683594959	0.010751244	0.110918602	0.034186191
2020-01-18T16:50:00	0.2268	3.525		0.557776753	0.679186419	0.010642767	0.109799470	0.033841263
2020-01-18T16:55:00	0.2265	3.518		0.556721675	0.677677963	0.010605735	0.109417410	0.033723508
2020-01-18T17:00:00	0.2267	3.511		0.557355472	0.678583999	0.010627973	0.109646837	0.033794220
2020-01-18T17:05:00	0.2271	3.505		0.558664478	0.680456320	0.010673977	0.110121454	0.033940502
2020-01-18T17:10:00	0.2267	3.498		0.557271921	0.678464541	0.010625040	0.109616578	0.033784894
2020-01-18T17:15:00	0.2266	3.490		0.556892360	0.677921930	0.010611721	0.109479171	0.033742544
2020-01-18T17:20:00	0.2270	3.483		0.558539198	0.680277066	0.010669570	0.110075985	0.033926488
2020-01-18T17:25:00	0.2277	3.477		0.560860158	0.683600051	0.010751370	0.110919897	0.034186590
2020-01-18T17:30:00	0.2270	3.470		0.558455676	0.680157568	0.010666632	0.110045677	0.033917146
2020-01-18T17:35:00	0.2269	3.465		0.558076243	0.679614771	0.010653291	0.109908044	0.033874727
2020-01-18T17:40:00	0.2267	3.459		0.557359029	0.678589086	0.010628098	0.109648125	0.033794617
2020-01-18T17:45:00	0.2265	3.451		0.556641668	0.677563613	0.010602929	0.109388465	0.033714587
2020-01-18T17:50:00	0.2264	3.446		0.556262038	0.677021100	0.010589622	0.109251179	0.033672274
2020-01-18T17:55:00	0.2256	3.439		0.553516264	0.673100764	0.010493628	0.108260822	0.033367037
2020-01-18T18:00:00	0.2255	3.432		0.553474443	0.673041101	0.010492169	0.108245773	0.033362399
2020-01-18T18:05:00	0.2254	3.422		0.553094467	0.672499083	0.010478921	0.108109092	0.033320272
2020-01-18T18:10:00	0.2260	3.414		0.555081097	0.675334228	0.010548281	0.108824672	0.033540821
2020-01-18T18:15:00	0.2255	3.405		0.553348976	0.672862115	0.010487793	0.108200632	0.033348485
2020-01-18T18:20:00	0.2260	3.397		0.554997492	0.675214848	0.010545357	0.108794509	0.033531524
2020-01-18T18:25:00	0.2263	3.390		0.555969510	0.676603142	0.010579374	0.109145451	0.033639688
2020-01-18T18:30:00	0.2256	3.381		0.553561647	0.673165509	0.010495211	0.108277153	0.033372070
2020-01-18T18:35:00	0.2259	3.376		0.554534066	0.674553229	0.010529159	0.108627393	0.033480018
2020-01-18T18:40:00	0.2258	3.370		0.554492257	0.674493548	0.010527698	0.108612323	0.033475373
2020-01-18T18:45:00	0.2255	3.362		0.553436183	0.672986519	0.010490835	0.108232007	0.033358156
2020-01-18T18:50:00	0.2259	3.354		0.554746664	0.674856726	0.010536589	0.108704042	0.033503641
2020-01-18T18:55:00	0.2254	3.345		0.553014376	0.672384853	0.010476129	0.108080293	0.033311396
2020-01-18T19:00:00	0.2245	3.337		0.549927573	0.667986272	0.010368832	0.106973329	0.032970219
2020-01-18T19:05:00	0.2246	3.327		0.550224175	0.668408579	0.010379118	0.107079444	0.033002924
2020-01-18T19:10:00	0.2247	3.314		0.550520752	0.668830923	0.010389408	0.107185602	0.033035644
2020-01-18T19:15:00	0.2247	3.301		0.550478895	0.668771311	0.010387955	0.107170616	0.033031025
2020-01-18T19:20:00	0.2236	3.286		0.547051093	0.663894429	0.010269349	0.105946984	0.032653889
2020-01-18T19:25:00	0.2228	3.271		0.544298025	0.659984493	0.010174589	0.104969360	0.032352576
2020-01-18T19:30:00	0.2234	3.261		0.546289693	0.662812459	0.010243098	0.105676149	0.032570416
2020-01-18T19:35:00	0.2239	3.252		0.547941561	0.665160410	0.010300094	0.106264173	0.032751650
2020-01-18T19:40:00	0.2237	3.241		0.547222253	0.664137717	0.010275255	0.106007914	0.032672669
2020-01-18T19:45:00	0.2232	3.223		0.545486207	0.661671200	0.010215432	0.105390725	0.032482445
2020-01-18T19:50:00	0.2222	3.201		0.542053466	0.656801336	0.010097660	0.104175699	0.032107962
2020-01-18T19:55:00	0.2229	3.177		0.544385460	0.660108572	0.010177592	0.105000338	0.032362124
2020-01-18T20:00:00	0.2230	3.154		0.545021510	0.661011393	0.010199448	0.105225828	0.032431622
2020-01-18T20:05:00	0.2237	3.136		0.547351509	0.664321459	0.010279716	0.106053940	0.032686854
2020-01-18T20:10:00	0.2241	3.124		0.548664287	0.666188389	0.010325082	0.106521964	0.032831104
2020-01-18T20:15:00	0.2243	3.115		0.549299553	0.667092324	0.010347071	0.106748821	0.032901023
2020-01-18T20:20:00	0.2236	3.104		0.546887062	0.663661297	0.010263691	0.105888607	0.032635897
2020-01-18T20:25:00	0.2241	3.094		0.548538646	0.666009652	0.010320736	0.106477126	0.032817284
2020-01-18T20:30:00	0.2244	3.086		0.549512472	0.667395364	0.010354446	0.106824909	0.032924475
2020-01-18T20:35:00	0.2239	3.077		0.547777572	0.664927217	0.010294429	0.106205723	0.032733635
2020-01-18T20:40:00	0.2229	3.070		0.544686107	0.660535274	0.010187920	0.105106892	0.032394965
2020-01-18T20:45:00	0.2231	3.062		0.545322102	0.661438173	0.010209786	0.105332478	0.032464493
2020-01-18T20:50:00	0.2228	3.056		0.544263235	0.659935123	0.010173394	0.104957035	0.032348778
2020-01-18T20:55:00	0.2224	3.051		0.542864892	0.657951597	0.010125437	0.104462263	0.032196284
2020-01-18T21:00:00	0.2234	3.049		0.546213014	0.662703523	0.010240456	0.105648894	0.032562015
2020-01-18T21:05:00	0.2233	3.045		0.545832243	0.662162639	0.010227342	0.105513600	0.032520316
2020-01-18T21:10:00	0.2231	3.040		0.545112497	0.661140567	0.010202577	0.105258104	0.032441570
2020-01-18T21:15:00	0.2232	3.035		0.545409511	0.661562289	0.010212793	0.105363501	0.032474054
2020-01-18T21:20:00	0.2230	3.031		0.545028651	0.661021530	0.010199694	0.105228361	0.032432403
2020-01-18T21:25:00	0.2227	3.020		0.543969695	0.659518608	0.010163318	0.104853074	0.032316736
2020-01-18T21:30:00	0.2232	3.014		0.545622668	0.661864990	0.010220128	0.105439173	0.032497377
2020-01-18T21:35:00	0.2227	3.011		0.543885821	0.659399610	0.010160439	0.104823379	0.032307584
2020-01-18T21:40:00	0.2226	3.006		0.543504794	0.658859089	0.010147369	0.104688531	0.032266022
2020-01-18T21:45:00	0.2224	3.001		0.542784565	0.657837703	0.010122685	0.104433877	0.032187535
2020-01-18T21:50:00	0.2231	2.996		0.545116067	0.661145636	0.010202700	0.105259371	0.032441960
2020-01-18T21:55:00	0.2230	2.991		0.544735175	0.660604923	0.010189606	0.105124287	0.032400326
2020-01-18T22:00:00	0.2226	2.987		0.543676129	0.659102128	0.010153245	0.104749157	0.032284707
2020-01-18T22:05:00	0.2224	2.983		0.542962005	0.658089298	0.010128763	0.104496586	0.032206863
2020-01-18T22:10:00	0.2220	2.979		0.541569208	0.656115120	0.010081102	0.104004868	0.032055310
2020-01-18T22:15:00	0.2219	2.975		0.541193999	0.655583561	0.010068281	0.103872603	0.032014545
2020-01-18T22:20:00	0.2217	2.970		0.540479363	0.654571456	0.010043886	0.103620922	0.031936975
2020-01-18T22:25:00	0.2217	2.967		0.540443458	0.654520617	0.010042661	0.103608285	0.031933080
2020-01-18T22:30:00	0.2216	2.963		0.540068126	0.653989231	0.010029862	0.103476232	0.031892380
2020-01-18T22:35:00	0.2225	2.959		0.543085889	0.658264970	0.010133008	0.104540379	0.032220360
2020-01-18T22:40:00	0.2221	2.957		0.541693142	0.656290721	0.010085338	0.104048574	0.032068781
2020-01-18T22:45:00	0.2220	2.954		0.541317946	0.655759144	0.010072516	0.103916286	0.032028009
2020-01-18T22:50:00	0.2214	2.951		0.539585014	0.653305420	0.010013398	0.103306384	0.031840031
2020-01-18T22:55:00	0.2206	2.948		0.536832082	0.649412484	0.009919846	0.102341219	0.031542558
2020-01-18T23:00:00	0.2205	2.944		0.536456358	0.648881651	0.009907112	0.102209847	0.031502067
2020-01-18T23:05:00	0.2206	2.941		0.536760196	0.649310913	0.009917409	0.102316078	0.031534809
2020-01-18T23:10:00	0.2208	2.938		0.537403728	0.650220343	0.009939235	0.102541260	0.031604212
2020-01-18T23:15:00	0.2200	2.937		0.534649057	0.646329855	0.009845975	0.101579109	0.031307668
2020-01-18T23:20:00	0.2202	2.934		0.535292983	0.647238732	0.009867736	0.101803610	0.031376861
2020-01-18T23:25:00	0.2200	2.932		0.534577126	0.646228348	0.009843546	0.101554046	0.031299943
2020-01-18T23:30:00	0.2205	2.929		0.536240673	0.648576976	0.009899806	0.102134470	0.031478836
2020-01-18T23:35:00	0.2206	2.927		0.536884302	0.649486271	0.009921616	0.102359485	0.031548187
2020-01-18T23:40:00	0.2204	2.926		0.536168774	0.648475423	0.009897371	0.102109350	0.031471093
2020-01-18T23:45:00	0.2202	2.924		0.535453099	0.647464782	0.009873150	0.101859472	0.031394079
2020-01-18T23:50:00	0.2202	2.921		0.535417142	0.647414017	0.009871934	0.101846926	0.031390212
2020-01-18T23:55:00	0.2204	2.919		0.536060925	0.648323096	0.009893719	0.102071674	0.031459481
2020-01-19T00:00:00	0.2204	2.915		0.536024974	0.648272321	0.009892502	0.102059117	0.031455611
2020-01-19T00:05:00	0.2195	2.913		0.532929075	0.643903820	0.009787969	0.100980672	0.031123224
2020-01-19T00:10:00	0.2191	2.909		0.531532229	0.641935343	0.009740988	0.100495975	0.030973836
2020-01-19T00:15:00	0.2185	2.906		0.529453910	0.639009454	0.009671297	0.099776983	0.030752235
2020-01-19T00:20:00	0.2185	2.901		0.529417890	0.638958776	0.009670091	0.099764545	0.030748402
2020-01-19T00:25:00	0.2185	2.895		0.529722348	0.639387168	0.009680284	0.099869703	0.030780812
2020-01-19T00:30:00	0.2184	2.891		0.529345850	0.638857422	0.009667680	0.099739671	0.030740735
2020-01-19T00:35:00	0.2184	2.890		0.529309829	0.638806745	0.009666474	0.099727235	0.030736902
2020-01-19T00:40:00	0.2186	2.890		0.529954752	0.639714225	0.009688068	0.099950011	0.030805564
2020-01-19T00:45:00	0.2193	2.891		0.532301007	0.643018532	0.009766831	0.100762591	0.031056009
2020-01-19T00:50:00	0.2190	2.894		0.531244235	0.641529691	0.009731316	0.100396189	0.030943080
2020-01-19T00:55:00	0.2189	2.894		0.530867903	0.640999713	0.009718684	0.100265870	0.030902915
2020-01-19T01:00:00	0.2185	2.895		0.529470222	0.639032406	0.009671843	0.099782616	0.030753971
2020-01-19T01:05:00	0.2194	2.895		0.532497250	0.643295109	0.009773433	0.100830706	0.031077003
2020-01-19T01:10:00	0.2192	2.895		0.532121054	0.642764939	0.009760778	0.100700151	0.031036764
2020-01-19T01:15:00	0.2192	2.898		0.532085062	0.642714222	0.009759568	0.100687664	0.031032916
2020-01-19T01:20:00	0.2188	2.899		0.530687875	0.640746225	0.009712644	0.100203559	0.030883710
2020-01-19T01:25:00	0.2182	2.898		0.528609046	0.637821048	0.009643038	0.099485446	0.030662381
2020-01-19T01:30:00	0.2183	2.895		0.528913576	0.638249340	0.009653219	0.099590481	0.030694753
2020-01-19T01:35:00	0.2175	2.894		0.526152115	0.634368364	0.009561097	0.098640071	0.030401828
2020-01-19T01:40:00	0.2171	2.894		0.524752520	0.632403730	0.009514576	0.098160122	0.030253903
2020-01-19T01:45:00	0.2169	2.895		0.524034471	0.631396411	0.009490753	0.097914345	0.030178152
2020-01-19T01:50:00	0.2169	2.894		0.523998394	0.631345812	0.009489557	0.097902005	0.030174349
2020-01-19T01:55:00	0.2168	2.894		0.523962317	0.631295214	0.009488360	0.097889666	0.030170546
2020-01-19T02:00:00	0.2162	2.894		0.521879423	0.628375704	0.009419434	0.097178564	0.029951377
2020-01-19T02:05:00	0.2154	2.892		0.519112309	0.624502593	0.009328256	0.096237894	0.029661453
2020-01-19T02:10:00	0.2157	2.890		0.520100577	0.625885152	0.009360769	0.096573325	0.029764837
2020-01-19T02:15:00	0.2160	2.889		0.521088560	0.627268105	0.009393329	0.096909245	0.029868370
2020-01-19T02:20:00	0.2162	2.890		0.521735025	0.628173437	0.009414665	0.097129363	0.029936213
2020-01-19T02:25:00	0.2157	2.891		0.519992222	0.625733529	0.009357201	0.096536520	0.029753493
2020-01-19T02:30:00	0.2157	2.893		0.519956104	0.625682989	0.009356012	0.096524252	0.029749712
2020-01-19T02:35:00	0.2159	2.895		0.520602781	0.626588026	0.009377312	0.096744004	0.029817442
2020-01-19T02:40:00	0.2158	2.895		0.520225284	0.626059670	0.009364875	0.096615694	0.029777895
2020-01-19T02:45:00	0.2156	2.894		0.519847745	0.625531372	0.009352445	0.096487455	0.029738371
2020-01-19T02:50:00	0.2162	2.892		0.521859673	0.628348038	0.009418782	0.097171834	0.029949303
2020-01-19T02:55:00	0.2160	2.892		0.521141020	0.627341558	0.009395060	0.096927098	0.029873873
2020-01-19T03:00:00	0.2168	2.893		0.523834346	0.631115740	0.009484118	0.097845901	0.030157057
2020-01-19T03:05:00	0.2164	2.895		0.522433808	0.629152419	0.009437755	0.097367577	0.030009633
2020-01-19T03:10:00	0.2171	2.898		0.524785190	0.632449572	0.009515660	0.098171312	0.030257352
2020-01-19T03:15:00	0.2172	2.900		0.525090058	0.632877392	0.009525785	0.098275763	0.030289545
2020-01-19T03:20:00	0.2175	2.901		0.526076609	0.634262335	0.009558584	0.098614149	0.030393838
2020-01-19T03:25:00	0.2175	2.902		0.526040555	0.634211707	0.009557384	0.098601771	0.030390024
2020-01-19T03:30:00	0.2182	2.903		0.528730051	0.637991221	0.009647083	0.099527175	0.030675242
2020-01-19T03:35:00	0.2185	2.903		0.529715561	0.639377617	0.009680056	0.099867358	0.030780090
2020-01-19T03:40:00	0.2181	2.902		0.528317413	0.637410964	0.009633293	0.099384912	0.030631395
2020-01-19T03:45:00	0.2180	2.904		0.527940761	0.636881432	0.009620715	0.099255145	0.030591400
2020-01-19T03:50:00	0.2177	2.905		0.526882652	0.635394462	0.009585424	0.098891054	0.030479183
2020-01-19T03:55:00	0.2176	2.906		0.526505843	0.634865149	0.009572872	0.098761557	0.030439271
2020-01-19T04:00:00	0.2178	2.907		0.527151291	0.635771896	0.009594378	0.098983427	0.030507654
2020-01-19T04:05:00	0.2180	2.910		0.527802713	0.636687381	0.009616107	0.099207605	0.030576747
2020-01-19T04:10:00	0.2174	2.911		0.525728243	0.633773200	0.009546995	0.098494593	0.030356990
2020-01-19T04:15:00	0.2175	2.910		0.526039126	0.634209701	0.009557337	0.098601281	0.030389872
2020-01-19T04:20:00	0.2176	2.909		0.526690760	0.635124892	0.009579031	0.098825096	0.030458854
2020-01-19T04:25:00	0.2165	2.908		0.522910364	0.629820292	0.009453518	0.097530203	0.030059756
2020-01-19T04:30:00	0.2165	2.907		0.522880381	0.629778267	0.009452526	0.097519967	0.030056601
2020-01-19T04:35:00	0.2161	2.905		0.521485561	0.627824038	0.009406429	0.097044392	0.029910024
2020-01-19T04:40:00	0.2155	2.904		0.519407276	0.624915160	0.009337954	0.096337948	0.029692291
2020-01-19T04:45:00	0.2153	2.903		0.518694221	0.623917938	0.009314518	0.096096165	0.029617771
2020-01-19T04:50:00	0.2151	2.902		0.517981019	0.622920921	0.009291107	0.095854637	0.029543330
2020-01-19T04:55:00	0.2151	2.901		0.517950992	0.622878955	0.009290122	0.095844475	0.029540198
2020-01-19T05:00:00	0.2148	2.902		0.516895919	0.621404804	0.009255545	0.095487749	0.029430251
2020-01-19T05:05:00	0.2150	2.902		0.517549288	0.622317586	0.009276949	0.095708578	0.029498313
2020-01-19T05:10:00	0.2149	2.903		0.517177570	0.621798238	0.009264769	0.095582911	0.029459581
2020-01-19T05:15:00	0.2149	2.902		0.517147536	0.621756282	0.009263785	0.095572761	0.029456453
2020-01-19T05:20:00	0.2147	2.902		0.516775774	0.621236994	0.009251611	0.095447169	0.029417745
2020-01-19T05:25:00	0.2147	2.902		0.516745738	0.621195043	0.009250628	0.095437026	0.029414618
2020-01-19T05:30:00	0.2146	2.902		0.516373932	0.620675815	0.009238462	0.095311508	0.029375932
2020-01-19T05:35:00	0.2147	2.902		0.516685663	0.621111141	0.009248662	0.095416739	0.029408366
2020-01-19T05:40:00	0.2143	2.903		0.515288324	0.619160399	0.009202984	0.094945493	0.029263123
2020-01-19T05:45:00	0.2146	2.903		0.516283810	0.620549976	0.009235514	0.095281097	0.029366559
2020-01-19T05:50:00	0.2137	2.903		0.513176214	0.616214806	0.009134157	0.094235409	0.029044268
2020-01-19T05:55:00	0.2133	2.904		0.511777444	0.614266038	0.009088717	0.093766616	0.028899782
2020-01-19T06:00:00	0.2138	2.905		0.513458170	0.616607819	0.009143330	0.094330047	0.029073437
2020-01-19T06:05:00	0.2136	2.906		0.512743878	0.615612306	0.009120100	0.094090388	0.028999571
2020-01-19T06:10:00	0.2136	2.907		0.512713806	0.615570403	0.009119122	0.094080305	0.028996464
2020-01-19T06:15:00	0.2140	2.908		0.514394073	0.617912817	0.009173812	0.094644523	0.029170361
2020-01-19T06:20:00	0.2139	2.909		0.514022013	0.617393941	0.009161688	0.094519443	0.029131810
2020-01-19T06:25:00	0.2139	2.910		0.513991952	0.617352023	0.009160708	0.094509341	0.029128697
2020-01-19T06:30:00	0.2138	2.909		0.513619848	0.616833207	0.009148592	0.094384336	0.029090169
2020-01-19T06:35:00	0.2142	2.909		0.514957761	0.618699151	0.009192195	0.094834182	0.029228816
2020-01-19T06:40:00	0.2145	2.911		0.515953343	0.620088595	0.009224709	0.095169622	0.029332202
2020-01-19T06:45:00	0.2151	2.910		0.517973667	0.622910646	0.009290866	0.095852149	0.029542563
2020-01-19T06:50:00	0.2149	2.910		0.517260315	0.621913836	0.009267479	0.095610878	0.029468201
2020-01-19T06:55:00	0.2146	2.908		0.516205029	0.620439978	0.009232938	0.095254516	0.029358367
2020-01-19T07:00:00	0.2147	2.907		0.516516775	0.620875283	0.009243135	0.095359721	0.029390792
2020-01-19T07:05:00	0.2155	2.908		0.519219839	0.624652987	0.009331791	0.096274363	0.029672694
2020-01-19T07:10:00	0.2154	2.909		0.518848302	0.624133389	0.009319580	0.096148385	0.029633866
2020-01-19T07:15:00	0.2155	2.910		0.519501299	0.625046685	0.009341046	0.096369852	0.029702124
2020-01-19T07:20:00	0.2152	2.912		0.518446702	0.623571874	0.009306390	0.096012308	0.029591926
2020-01-19T07:25:00	0.2152	2.914		0.518416680	0.623529903	0.009305404	0.096002139	0.029588792
2020-01-19T07:30:00	0.2150	2.917		0.517703420	0.622532966	0.009282003	0.095760710	0.029514381
2020-01-19T07:35:00	0.2149	2.918		0.517331719	0.622013595	0.009269819	0.095635014	0.029475640
2020-01-19T07:40:00	0.2145	2.917		0.515934643	0.620062490	0.009224098	0.095163316	0.029330258
2020-01-19T07:45:00	0.2146	2.919		0.516246414	0.620497760	0.009234291	0.095268478	0.029362670
2020-01-19T07:50:00	0.2146	2.918		0.516216372	0.620455815	0.009233309	0.095258343	0.029359546
2020-01-19T07:55:00	0.2151	2.920		0.517894925	0.622800594	0.009288283	0.095825501	0.029534350
2020-01-19T08:00:00	0.2155	2.927		0.519231173	0.624668838	0.009332163	0.096278207	0.029673878
2020-01-19T08:05:00	0.2160	2.930		0.520908252	0.627015655	0.009387383	0.096847896	0.029849462
2020-01-19T08:10:00	0.2159	2.932		0.520878251	0.626973654	0.009386393	0.096837690	0.029846316
2020-01-19T08:15:00	0.2157	2.934		0.520165502	0.625976009	0.009362907	0.096595382	0.029771635
2020-01-19T08:20:00	0.2161	2.937		0.521500868	0.627845476	0.009406934	0.097049605	0.029911631
2020-01-19T08:25:00	0.2155	2.938		0.519422592	0.624936585	0.009338458	0.096343145	0.029693893
2020-01-19T08:30:00	0.2151	2.941		0.518026367	0.622984304	0.009292595	0.095869985	0.029548061
2020-01-19T08:35:00	0.2150	2.942		0.517654701	0.622464884	0.009280405	0.095744230	0.029509301
2020-01-19T08:40:00	0.2156	2.949		0.519674024	0.625288319	0.009346729	0.096428475	0.029720193
2020-01-19T08:45:00	0.2156	2.955		0.519644012	0.625246333	0.009345741	0.096418288	0.029717053
2020-01-19T08:50:00	0.2158	2.956		0.520296858	0.626159839	0.009367233	0.096640015	0.029785391
2020-01-19T08:55:00	0.2163	2.961		0.521973418	0.628507376	0.009422539	0.097210598	0.029961250
2020-01-19T09:00:00	0.2165	2.964		0.522625821	0.629421496	0.009444105	0.097433086	0.030029823
2020-01-19T09:05:00	0.2166	2.969		0.523278101	0.630335787	0.009465691	0.097655787	0.030098462
2020-01-19T09:10:00	0.2169	2.976		0.524271275	0.631728567	0.009498606	0.097995366	0.030203123
2020-01-19T09:15:00	0.2174	2.988		0.525945899	0.634078795	0.009554235	0.098569281	0.030380010
2020-01-19T09:20:00	0.2175	2.999		0.526256763	0.634515324	0.009564580	0.098676004	0.030412903
2020-01-19T09:25:00	0.2183	3.012		0.528952185	0.638303645	0.009654510	0.099603801	0.030698859
2020-01-19T09:30:00	0.2176	3.019		0.526537647	0.634909821	0.009573931	0.098772484	0.030442639
2020-01-19T09:35:00	0.2178	3.026		0.527189186	0.635825144	0.009595641	0.098996462	0.030511671
2020-01-19T09:40:00	0.2181	3.029		0.528181232	0.637219495	0.009628745	0.099337984	0.030616932
2020-01-19T09:45:00	0.2181	3.035		0.528151295	0.637177405	0.009627745	0.099327669	0.030613752
2020-01-19T09:50:00	0.2180	3.035		0.527780721	0.636656468	0.009615373	0.099200033	0.030574414
2020-01-19T09:55:00	0.2180	3.038		0.527750780	0.636614383	0.009614374	0.099189724	0.030571236
2020-01-19T10:00:00	0.2183	3.045		0.528742665	0.638008960	0.009647504	0.099531525	0.030676583
2020-01-19T10:05:00	0.2181	3.056		0.528323933	0.637420131	0.009633511	0.099387159	0.030632088
2020-01-19T10:10:00	0.2180	3.069		0.527905150	0.636831373	0.009619526	0.099242881	0.030587620
2020-01-19T10:15:00	0.2179	3.080		0.527486317	0.636242686	0.009605550	0.099098690	0.030543179
2020-01-19T10:20:00	0.2175	3.086		0.526045110	0.634218103	0.009557536	0.098603335	0.030390506
2020-01-19T10:25:00	0.2179	3.091		0.527670641	0.636501743	0.009611700	0.099162134	0.030562733
2020-01-19T10:30:00	0.2179	3.091		0.527592467	0.636391871	0.009609091	0.099135224	0.030554439
2020-01-19T10:35:00	0.2171	3.089		0.524787777	0.632453202	0.009515746	0.098172198	0.030257625
2020-01-19T10:40:00	0.2171	3.088		0.524709538	0.632343422	0.009513149	0.098145402	0.030249366
2020-01-19T10:45:00	0.2170	3.092		0.524631298	0.632233644	0.009510552	0.098118608	0.030241108
2020-01-19T10:50:00	0.2164	3.098		0.522506611	0.629254438	0.009440162	0.097392413	0.030017288
2020-01-19T10:55:00	0.2162	3.105		0.521745886	0.628188650	0.009415024	0.097133064	0.029937354
2020-01-19T11:00:00	0.2160	3.112		0.520984992	0.627123096	0.009389913	0.096874004	0.029857509
2020-01-19T11:05:00	0.2150	3.121		0.517491627	0.622237017	0.009275059	0.095689079	0.029492303
2020-01-19T11:10:00	0.2145	3.130		0.516046223	0.620218260	0.009227745	0.095200946	0.029341856
2020-01-19T11:15:00	0.2143	3.138		0.515284065	0.619154455	0.009202845	0.094944058	0.029262681
2020-01-19T11:20:00	0.2136	3.148		0.512811462	0.615706481	0.009122296	0.094113051	0.029006556
2020-01-19T11:25:00	0.2133	3.159		0.511706351	0.614167033	0.009086410	0.093742821	0.028892448
2020-01-19T11:30:00	0.2133	3.170		0.511970055	0.614534290	0.009094967	0.093831100	0.028919656
2020-01-19T11:35:00	0.2129	3.176		0.510522321	0.612518743	0.009048040	0.093346961	0.028770440
2020-01-19T11:40:00	0.2120	3.180		0.507360975	0.608123376	0.008945989	0.092294123	0.028445945
2020-01-19T11:45:00	0.2116	3.191		0.505911288	0.606110505	0.008899386	0.091813322	0.028297758
2020-01-19T11:50:00	0.2111	3.205		0.504460987	0.604098476	0.008852884	0.091333572	0.028149894
2020-01-19T11:55:00	0.2101	3.217		0.500950716	0.599235625	0.008740835	0.090177586	0.027793608
2020-01-19T12:00:00	0.2103	3.228		0.501558536	0.600076941	0.008760186	0.090377225	0.027855138
2020-01-19T12:05:00	0.2095	3.239		0.498732451	0.596167729	0.008670394	0.089450862	0.027569624
2020-01-19T12:10:00	0.2084	3.252		0.494872352	0.590838577	0.008548494	0.088193237	0.027182012
2020-01-19T12:15:00	0.2075	3.260		0.492040714	0.586936894	0.008459618	0.087276318	0.026899409
2020-01-19T12:20:00	0.2076	3.272		0.492305942	0.587302075	0.008467923	0.087362000	0.026925817
2020-01-19T12:25:00	0.2078	3.279		0.492915306	0.588141298	0.008487019	0.087559013	0.026986538
2020-01-19T12:30:00	0.2079	3.288		0.493180465	0.588506571	0.008495336	0.087644810	0.027012982
2020-01-19T12:35:00	0.2072	3.304		0.491036147	0.585554258	0.008428199	0.086952171	0.026799504
2020-01-19T12:40:00	0.2074	3.323		0.491645739	0.586393174	0.008447258	0.087148799	0.026860106
2020-01-19T12:45:00	0.2075	3.322		0.491910997	0.586758313	0.008455558	0.087234428	0.026886498
2020-01-19T12:50:00	0.2081	3.318		0.493896873	0.589493748	0.008517825	0.087876827	0.027084491
2020-01-19T12:55:00	0.2081	3.315		0.494161955	0.589859125	0.008526154	0.087962754	0.027110975
2020-01-19T13:00:00	0.2084	3.315		0.495114922	0.591173110	0.008556129	0.088272006	0.027206289
2020-01-19T13:05:00	0.2081	3.319		0.494004069	0.589641496	0.008521192	0.087911570	0.027095200
2020-01-19T13:10:00	0.2078	3.320		0.492892854	0.588110372	0.008486315	0.087551750	0.026984300
2020-01-19T13:15:00	0.2077	3.316		0.492469715	0.587527597	0.008473053	0.087414927	0.026942130
2020-01-19T13:20:00	0.2080	3.320		0.493767227	0.589315072	0.008513753	0.087834817	0.027071544
2020-01-19T13:25:00	0.2076	3.323		0.492311750	0.587310074	0.008468105	0.087363877	0.026926395
2020-01-19T13:30:00	0.2074	3.322		0.491544278	0.586253523	0.008444084	0.087116056	0.026850015
2020-01-19T13:35:00	0.2078	3.325		0.492842142	0.588040521	0.008484725	0.087535347	0.026979244
2020-01-19T13:40:00	0.2083	3.329		0.494827475	0.590776690	0.008547082	0.088178668	0.027177522
2020-01-19T13:45:00	0.2080	3.331		0.493716528	0.589245203	0.008512161	0.087818392	0.027066481
2020-01-19T13:50:00	0.2075	3.333		0.491916807	0.586766311	0.008455739	0.087236304	0.026887076
2020-01-19T13:55:00	0.2074	3.336		0.491493546	0.586183699	0.008442497	0.087099687	0.026844970
2020-01-19T14:00:00	0.2074	3.339		0.491414542	0.586074967	0.008440027	0.087074199	0.026837114
2020-01-19T14:05:00	0.2076	3.338		0.492368278	0.587387913	0.008469875	0.087382144	0.026932025
2020-01-19T14:10:00	0.2077	3.334		0.492633480	0.587753129	0.008478185	0.087467869	0.026958447
2020-01-19T14:15:00	0.2080	3.328		0.493586875	0.589066535	0.008508090	0.087776393	0.027053537
2020-01-19T14:20:00	0.2086	3.325		0.495571773	0.591803292	0.008570518	0.088420452	0.027252042
2020-01-19T14:25:00	0.2081	3.322		0.494117069	0.589797251	0.008524743	0.087948201	0.027106490
2020-01-19T14:30:00	0.2082	3.316		0.494382134	0.590162651	0.008533075	0.088034157	0.027132982
2020-01-19T14:35:00	0.2085	3.316		0.495335039	0.591476720	0.008563060	0.088343514	0.027228329
2020-01-19T14:40:00	0.2088	3.314		0.496287678	0.592791150	0.008593090	0.088653323	0.027323815
2020-01-19T14:45:00	0.2093	3.309		0.498271003	0.595530037	0.008655777	0.089300055	0.027523144
2020-01-19T14:50:00	0.2101	3.302		0.500939905	0.599220665	0.008740491	0.090174037	0.027792514
2020-01-19T14:55:00	0.2098	3.293		0.499830950	0.597686476	0.008705242	0.089810374	0.027680429
2020-01-19T15:00:00	0.2101	3.290		0.500782333	0.599002610	0.008735478	0.090122319	0.027776574
2020-01-19T15:05:00	0.2108	3.286		0.503106177	0.602220455	0.008809554	0.090886542	0.028012115
2020-01-19T15:10:00	0.2110	3.283		0.504056648	0.603537831	0.008839941	0.091200043	0.028108739
2020-01-19T15:15:00	0.2109	3.278		0.503634892	0.602953178	0.008826451	0.091060866	0.028065843
2020-01-19T15:20:00	0.2106	3.274		0.502526812	0.601417797	0.008791057	0.090695710	0.027953299
2020-01-19T15:25:00	0.2107	3.268		0.502791225	0.601784083	0.008799496	0.090782778	0.027980134
2020-01-19T15:30:00	0.2098	3.264		0.499966161	0.597873482	0.008709536	0.089854675	0.027694083
2020-01-19T15:35:00	0.2104	3.260		0.501947349	0.600615273	0.008772576	0.090505046	0.027894534
2020-01-19T15:40:00	0.2108	3.255		0.503241259	0.602407637	0.008813869	0.090931064	0.028025837
2020-01-19T15:45:00	0.2108	3.253		0.503162527	0.602298536	0.008811354	0.090905113	0.028017839
2020-01-19T15:50:00	0.2112	3.248		0.504798936	0.604567167	0.008863709	0.091445251	0.028184314
2020-01-19T15:55:00	0.2108	3.245		0.503348162	0.602555783	0.008817285	0.090966307	0.028036699
2020-01-19T16:00:00	0.2115	3.241		0.505670261	0.605776007	0.008891649	0.091733505	0.028273157
2020-01-19T16:05:00	0.2121	3.236		0.507596565	0.608450650	0.008953574	0.092372377	0.028470064
2020-01-19T16:10:00	0.2125	3.230		0.509179298	0.610650491	0.009004616	0.092898959	0.028632361
2020-01-19T16:15:00	0.2131	3.225		0.511103628	0.613327840	0.009066868	0.093541206	0.028830308
2020-01-19T16:20:00	0.2126	3.221		0.509603978	0.611241097	0.009018336	0.093040506	0.028675988
2020-01-19T16:25:00	0.2136	3.216		0.512896870	0.615825497	0.009125073	0.094141694	0.029015385
2020-01-19T16:30:00	0.2134	3.213		0.512082500	0.614690907	0.009098617	0.093868755	0.028931262
2020-01-19T16:35:00	0.2134	3.208		0.512294667	0.614986448	0.009105506	0.093939825	0.028953166
2020-01-19T16:40:00	0.2136	3.204		0.512848974	0.615758753	0.009123516	0.094125631	0.029010434
2020-01-19T16:45:00	0.2137	3.200		0.513061093	0.616054359	0.009130412	0.094196782	0.029032363
2020-01-19T16:50:00	0.2136	3.197		0.512931087	0.615873181	0.009126185	0.094153171	0.029018922
2020-01-19T16:55:00	0.2131	3.194		0.511089942	0.613308788	0.009066425	0.093536631	0.028828898
2020-01-19T17:00:00	0.2132	3.191		0.511644444	0.614080824	0.009084402	0.093722102	0.028886062
2020-01-19T17:05:00	0.2134	3.187		0.512198856	0.614852983	0.009102395	0.093907728	0.028943274
2020-01-19T17:10:00	0.2136	3.184		0.512753179	0.615625266	0.009120402	0.094093507	0.029000533
2020-01-19T17:15:00	0.2133	3.180		0.511938775	0.614490723	0.009093952	0.093820626	0.028916428
2020-01-19T17:20:00	0.2143	3.177		0.515229425	0.619078208	0.009201061	0.094925655	0.029257009
2020-01-19T17:25:00	0.2148	3.173		0.516808637	0.621282892	0.009252687	0.095458268	0.029421165
2020-01-19T17:30:00	0.2151	3.171		0.518045520	0.623011074	0.009293223	0.095876468	0.029550059
2020-01-19T17:35:00	0.2146	3.168		0.516207120	0.620442897	0.009233006	0.095255221	0.029358584
2020-01-19T17:40:00	0.2143	3.166		0.515393536	0.619307223	0.009206420	0.094980934	0.029274046
2020-01-19T17:45:00	0.2135	3.163		0.512527360	0.615310625	0.009113064	0.094017803	0.028977200
2020-01-19T17:50:00	0.2136	3.160		0.512739499	0.615606204	0.009119957	0.094088920	0.028999119
2020-01-19T17:55:00	0.2138	3.156		0.513635810	0.616855460	0.009149111	0.094389696	0.029091821
2020-01-19T18:00:00	0.2145	3.153		0.515899488	0.620013414	0.009222949	0.095151461	0.029326604
2020-01-19T18:05:00	0.2143	3.152		0.515427728	0.619354941	0.009207536	0.094992453	0.029277597
2020-01-19T18:10:00	0.2142	3.151		0.514955902	0.618696557	0.009192134	0.094833557	0.029228623
2020-01-19T18:15:00	0.2149	3.150		0.517218710	0.621855712	0.009266116	0.095596815	0.029463867
2020-01-19T18:20:00	0.2148	3.148		0.517088862	0.621674317	0.009261863	0.095552934	0.029450342
2020-01-19T18:25:00	0.2145	3.146		0.515933675	0.620061139	0.009224066	0.095162989	0.029330158
2020-01-19T18:30:00	0.2143	3.145		0.515120026	0.618925555	0.009197490	0.094888813	0.029245654
2020-01-19T18:35:00	0.2146	3.143		0.516357519	0.620652896	0.009237925	0.095305969	0.029374225
2020-01-19T18:40:00	0.2152	3.141		0.518277824	0.623335788	0.009300846	0.095955114	0.029574298
2020-01-19T18:45:00	0.2152	3.138		0.518489608	0.623631858	0.009307798	0.096026841	0.029596405
2020-01-19T18:50:00	0.2153	3.137		0.518701378	0.623927945	0.009314753	0.096098590	0.029618519
2020-01-19T18:55:00	0.2145	3.133		0.515837966	0.619927533	0.009220938	0.095130718	0.029320211
2020-01-19T19:00:00	0.2148	3.133		0.517075200	0.621655231	0.009261416	0.095548317	0.029448919
2020-01-19T19:05:00	0.2144	3.131		0.515578161	0.619564893	0.009212449	0.095043143	0.029293220
2020-01-19T19:10:00	0.2146	3.129		0.516131937	0.620337928	0.009230548	0.095229858	0.029350767
2020-01-19T19:15:00	0.2143	3.127		0.515318335	0.619202279	0.009203964	0.094955601	0.029266239
2020-01-19T19:20:00	0.2149	3.126		0.517239222	0.621884369	0.009266788	0.095603748	0.029466004
2020-01-19T19:25:00	0.2151	3.125		0.518134358	0.623135246	0.009296138	0.095906540	0.029559327
2020-01-19T19:30:00	0.2148	3.124		0.516979523	0.621521582	0.009258282	0.095515991	0.029438956
2020-01-19T19:35:00	0.2147	3.124		0.516507911	0.620862903	0.009242845	0.095356728	0.029389870
2020-01-19T19:40:00	0.2147	3.122		0.516719804	0.621158822	0.009249779	0.095428268	0.029411919
2020-01-19T19:45:00	0.2147	3.122		0.516589937	0.620977452	0.009245529	0.095384419	0.029398404
2020-01-19T19:50:00	0.2146	3.121		0.516118271	0.620318848	0.009230101	0.095225248	0.029349346
2020-01-19T19:55:00	0.2144	3.120		0.515646541	0.619660333	0.009214683	0.095066188	0.029300322
2020-01-19T20:00:00	0.2149	3.120		0.517225560	0.621865283	0.009266341	0.095599131	0.029464581
2020-01-19T20:05:00	0.2147	3.119		0.516753982	0.621206558	0.009250898	0.095439810	0.029415476
2020-01-19T20:10:00	0.2148	3.119		0.516965860	0.621502497	0.009257835	0.095511375	0.029437533
2020-01-19T20:15:00	0.2151	3.119		0.517861067	0.622753276	0.009287172	0.095814045	0.029530819
2020-01-19T20:20:00	0.2151	3.118		0.518072876	0.623049310	0.009294120	0.095885728	0.029552912
2020-01-19T20:25:00	0.2155	3.117		0.519309304	0.624778121	0.009334732	0.096304710	0.029682047
2020-01-19T20:30:00	0.2152	3.118		0.518496455	0.623641431	0.009308023	0.096029161	0.029597120
2020-01-19T20:35:00	0.2156	3.117		0.519732731	0.625370454	0.009348660	0.096448405	0.029726335
2020-01-19T20:40:00	0.2151	3.117		0.517895234	0.622801027	0.009288293	0.095825606	0.029534382
2020-01-19T20:45:00	0.2149	3.117		0.517423748	0.622142175	0.009272835	0.095666127	0.029485230
2020-01-19T20:50:00	0.2147	3.117		0.516610452	0.621006103	0.009246200	0.095391345	0.029400539
2020-01-19T20:55:00	0.2152	3.119		0.518189029	0.623211665	0.009297932	0.095925049	0.029565032
2020-01-19T21:00:00	0.2138	3.122		0.513615315	0.616826888	0.009148444	0.094382813	0.029089700
2020-01-19T21:05:00	0.2138	3.122		0.513485330	0.616645680	0.009144214	0.094339166	0.029076247
2020-01-19T21:10:00	0.2132	3.123		0.511644483	0.614080878	0.009084403	0.093722115	0.028886066
2020-01-19T21:15:00	0.2131	3.124		0.511172136	0.613423211	0.009069088	0.093564112	0.028837368
2020-01-19T21:20:00	0.2135	3.126		0.512411054	0.615148588	0.009109286	0.093978823	0.028965186
2020-01-19T21:25:00	0.2138	3.126		0.513649524	0.616874581	0.009149558	0.094394302	0.029093241
2020-01-19T21:30:00	0.2134	3.126		0.512150989	0.614786306	0.009100841	0.093891694	0.028938332
2020-01-19T21:35:00	0.2137	3.126		0.513047453	0.616035350	0.009129969	0.094192206	0.029030953
2020-01-19T21:40:00	0.2132	3.127		0.511548654	0.613947437	0.009081295	0.093690049	0.028876183
2020-01-19T21:45:00	0.2127	3.127		0.509706765	0.611384066	0.009021658	0.093074782	0.028686552
2020-01-19T21:50:00	0.2124	3.129		0.508891636	0.610250519	0.008995328	0.092803142	0.028602830
2020-01-19T21:55:00	0.2129	3.129		0.510473771	0.612451180	0.009046468	0.093330747	0.028765443
2020-01-19T22:00:00	0.2127	3.129		0.509658824	0.611317383	0.009020108	0.093058794	0.028681624
2020-01-19T22:05:00	0.2131	3.131		0.511086026	0.613303336	0.009066298	0.093535322	0.028828495
2020-01-19T22:10:00	0.2135	3.132		0.512512633	0.615290107	0.009112586	0.094012866	0.028975678
2020-01-19T22:15:00	0.2132	3.132		0.511543614	0.613940420	0.009081132	0.093688363	0.028875663
2020-01-19T22:20:00	0.2138	3.133		0.513654212	0.616881116	0.009149711	0.094395877	0.029093726
2020-01-19T22:25:00	0.2127	3.132		0.509947198	0.611718522	0.009029432	0.093154981	0.028711270
2020-01-19T22:30:00	0.2136	3.131		0.512743142	0.615611280	0.009120076	0.094090141	0.028999495
2020-01-19T22:35:00	0.2143	3.128		0.515194921	0.619030061	0.009199935	0.094914034	0.029253427
2020-01-19T22:40:00	0.2147	3.127		0.516619820	0.621019185	0.009246507	0.095394508	0.029401514
2020-01-19T22:45:00	0.2157	3.127		0.520093229	0.625874870	0.009360527	0.096570829	0.029764067
2020-01-19T22:50:00	0.2160	3.128		0.521174806	0.627388867	0.009396174	0.096938597	0.029877417
2020-01-19T22:55:00	0.2174	3.127		0.526007201	0.634164873	0.009556275	0.098590323	0.030386495
2020-01-19T23:00:00	0.2175	3.127		0.526064604	0.634245477	0.009558184	0.098610027	0.030392568
2020-01-19T23:05:00	0.2185	3.126		0.529528493	0.639114393	0.009673793	0.099802740	0.030760174
2020-01-19T23:10:00	0.2178	3.124		0.527201689	0.635842712	0.009596058	0.099000762	0.030512996
2020-01-19T23:15:00	0.2191	3.125		0.531685390	0.642151104	0.009746134	0.100549063	0.030990198
2020-01-19T23:20:00	0.2192	3.127		0.532082943	0.642711236	0.009759497	0.100686929	0.031032689
2020-01-19T23:25:00	0.2187	3.129		0.530098304	0.639916266	0.009692878	0.099999633	0.030820858
2020-01-19T23:30:00	0.2185	3.130		0.529474735	0.639038754	0.009671994	0.099784175	0.030754452
2020-01-19T23:35:00	0.2179	3.131		0.527488593	0.636245886	0.009605626	0.099099474	0.030543420
2020-01-19T23:40:00	0.2184	3.131		0.529248932	0.638721074	0.009664437	0.099706212	0.030730423
2020-01-19T23:45:00	0.2176	3.133		0.526581185	0.634970975	0.009575381	0.098787443	0.030447249
2020-01-19T23:50:00	0.2189	3.135		0.531065692	0.641278239	0.009725322	0.100334351	0.030924021
2020-01-19T23:55:00	0.2192	3.136		0.531803589	0.642317627	0.009750106	0.100590043	0.031002828
2020-01-20T00:00:00	0.2194	3.138		0.532541329	0.643357237	0.009774916	0.100846009	0.031081719
2020-01-20T00:05:00	0.2179	3.138		0.527492182	0.636250929	0.009605746	0.099100709	0.030543801
2020-01-20T00:10:00	0.2175	3.139		0.526186586	0.634416772	0.009562244	0.098651907	0.030405476
2020-01-20T00:15:00	0.2181	3.142		0.528288210	0.637369903	0.009632318	0.099374848	0.030628293
2020-01-20T00:20:00	0.2179	3.143		0.527664313	0.636492849	0.009611489	0.099159955	0.030562061
2020-01-20T00:25:00	0.2179	3.142		0.527381012	0.636094699	0.009602038	0.099062454	0.030532010
2020-01-20T00:30:00	0.2174	3.140		0.525734535	0.633782035	0.009547205	0.098496752	0.030357655
2020-01-20T00:35:00	0.2171	3.138		0.524769241	0.632427193	0.009515131	0.098165849	0.030255668
2020-01-20T00:40:00	0.2169	3.135		0.524144706	0.631551028	0.009494408	0.097952057	0.030189775
2020-01-20T00:45:00	0.2167	3.136		0.523520057	0.630675021	0.009473704	0.097738460	0.030123943
2020-01-20T00:50:00	0.2169	3.136		0.524259572	0.631712151	0.009498218	0.097991361	0.030201889
2020-01-20T00:55:00	0.2181	3.135		0.528065918	0.637057376	0.009624894	0.099298256	0.030604687
2020-01-20T01:00:00	0.2180	3.133		0.527782650	0.636659179	0.009615438	0.099200697	0.030574618
2020-01-20T01:05:00	0.2172	3.133		0.525113766	0.632910666	0.009526572	0.098283888	0.030292049
2020-01-20T01:10:00	0.2168	3.131		0.523807268	0.631077766	0.009483221	0.097836642	0.030154203
2020-01-20T01:15:00	0.2184	3.129		0.529317041	0.638816891	0.009666716	0.099729725	0.030737670
2020-01-20T01:20:00	0.2185	3.126		0.529714867	0.639376641	0.009680033	0.099867118	0.030780016
2020-01-20T01:25:00	0.2182	3.125		0.528410114	0.637541308	0.009636390	0.099416863	0.030641243
2020-01-20T01:30:00	0.2192	3.123		0.531871647	0.642413515	0.009752393	0.100613643	0.031010102
2020-01-20T01:35:00	0.2199	3.123		0.534309835	0.645851191	0.009834521	0.101460942	0.031271248
2020-01-20T01:40:00	0.2191	3.122		0.531646002	0.642095615	0.009744810	0.100535409	0.030985990
2020-01-20T01:45:00	0.2184	3.123		0.529320627	0.638821937	0.009666836	0.099730963	0.030738051
2020-01-20T01:50:00	0.2192	3.121		0.532100862	0.642736485	0.009760099	0.100693145	0.031034605
2020-01-20T01:55:00	0.2184	3.118		0.529094815	0.638504271	0.009659281	0.099653018	0.030714028
2020-01-20T02:00:00	0.2174	3.114		0.525745307	0.633797157	0.009547563	0.098500447	0.030358794
2020-01-20T02:05:00	0.2170	3.112		0.524439048	0.631963924	0.009504172	0.098052788	0.030220821
2020-01-20T02:10:00	0.2169	3.110		0.524155482	0.631566143	0.009494765	0.097955744	0.030190912
2020-01-20T02:15:00	0.2161	3.110		0.521483783	0.627821548	0.009406370	0.097043787	0.029909838
2020-01-20T02:20:00	0.2164	3.109		0.522564922	0.629336152	0.009442090	0.097412307	0.030023419
2020-01-20T02:25:00	0.2161	3.108		0.521257455	0.627504599	0.009398901	0.096966729	0.029886088
2020-01-20T02:30:00	0.2160	3.108		0.520973627	0.627107183	0.009389538	0.096870137	0.029856317
2020-01-20T02:35:00	0.2158	3.106		0.520348401	0.626231976	0.009368931	0.096657532	0.029790790
2020-01-20T02:40:00	0.2163	3.104		0.522112395	0.628702077	0.009427131	0.097257972	0.029975852
2020-01-20T02:45:00	0.2164	3.104		0.522511055	0.629260665	0.009440309	0.097393929	0.030017755
2020-01-20T02:50:00	0.2170	3.103		0.524614923	0.632210670	0.009510008	0.098113001	0.030239380
2020-01-20T02:55:00	0.2169	3.103		0.523990360	0.631334544	0.009489290	0.097899257	0.030173502
2020-01-20T03:00:00	0.2172	3.102		0.525070712	0.632850242	0.009525142	0.098269133	0.030287501
2020-01-20T03:05:00	0.2169	3.102		0.524105232	0.631495660	0.009493099	0.097938552	0.030185613
2020-01-20T03:10:00	0.2169	3.100		0.524162666	0.631576220	0.009495004	0.097958202	0.030191669
2020-01-20T03:15:00	0.2164	3.100		0.522514649	0.629265701	0.009440428	0.097395155	0.030018133
2020-01-20T03:20:00	0.2159	3.098		0.520865841	0.626956280	0.009385984	0.096833468	0.029845015
2020-01-20T03:25:00	0.2169	3.097		0.523993952	0.631339582	0.009489409	0.097900486	0.030173881
2020-01-20T03:30:00	0.2162	3.096		0.521663403	0.628073119	0.009412300	0.097104964	0.029928693
2020-01-20T03:35:00	0.2158	3.096		0.520355593	0.626242042	0.009369168	0.096659976	0.029791543
2020-01-20T03:40:00	0.2164	3.096		0.522460781	0.629190215	0.009438647	0.097376778	0.030012469
2020-01-20T03:45:00	0.2167	3.096		0.523541613	0.630705246	0.009474418	0.097745827	0.030126213
2020-01-20T03:50:00	0.2167	3.096		0.523599057	0.630785793	0.009476321	0.097765461	0.030132265
2020-01-20T03:55:00	0.2166	3.095		0.522974309	0.629909923	0.009455634	0.097552035	0.030066484
2020-01-20T04:00:00	0.2165	3.090		0.522690622	0.629512311	0.009446248	0.097455199	0.030036639
2020-01-20T04:05:00	0.2177	3.086		0.526987238	0.635541398	0.009588909	0.098927011	0.030490266
2020-01-20T04:10:00	0.2178	3.084		0.527192389	0.635829644	0.009595748	0.098997563	0.030512010
2020-01-20T04:15:00	0.2179	3.081		0.527397528	0.636117908	0.009602589	0.099068136	0.030533762
2020-01-20T04:20:00	0.2169	3.079		0.524194260	0.631620537	0.009496051	0.097969012	0.030195001
2020-01-20T04:25:00	0.2175	3.076		0.526104094	0.634300930	0.009559499	0.098623584	0.030396746
2020-01-20T04:30:00	0.2187	3.073		0.530396456	0.640335950	0.009702871	0.100102734	0.030852635
2020-01-20T04:35:00	0.2191	3.069		0.531622377	0.642062334	0.009744016	0.100527220	0.030983466
2020-01-20T04:40:00	0.2189	3.065		0.530806340	0.640913026	0.009716618	0.100244559	0.030896347
2020-01-20T04:45:00	0.2193	3.062		0.532372331	0.643119049	0.009769230	0.100787345	0.031063638
2020-01-20T04:50:00	0.2196	3.059		0.533257454	0.644366812	0.009799030	0.101094788	0.031158395
2020-01-20T04:55:00	0.2198	3.057		0.534142349	0.645614893	0.009828868	0.101402624	0.031253274
2020-01-20T05:00:00	0.2198	3.054		0.534007053	0.645424025	0.009824303	0.101355527	0.031238758
2020-01-20T05:05:00	0.2199	3.051		0.534211786	0.645712856	0.009831212	0.101426800	0.031260725
2020-01-20T05:10:00	0.2205	3.048		0.536455896	0.648880998	0.009907096	0.102209685	0.031502018
2020-01-20T05:15:00	0.2199	3.047		0.534281222	0.645810820	0.009833555	0.101450978	0.031268177
2020-01-20T05:20:00	0.2207	3.044		0.537204802	0.649939187	0.009932486	0.102471626	0.031582750
2020-01-20T05:25:00	0.2209	3.041		0.537749033	0.650708463	0.009950957	0.102662190	0.031641484
2020-01-20T05:30:00	0.2211	3.039		0.538293179	0.651477859	0.009969443	0.102852904	0.031700264
2020-01-20T05:35:00	0.2206	3.034		0.536799256	0.649366102	0.009918733	0.102329738	0.031539019
2020-01-20T05:40:00	0.2198	3.030		0.533944775	0.645336174	0.009822202	0.101333851	0.031232077
2020-01-20T05:45:00	0.2185	3.028		0.529726359	0.639392811	0.009680418	0.099871089	0.030781239
2020-01-20T05:50:00	0.2178	3.023		0.527206745	0.635849816	0.009596227	0.099002501	0.030513532
2020-01-20T05:55:00	0.2177	3.017		0.526730436	0.635180627	0.009580353	0.098838732	0.030463057
2020-01-20T06:00:00	0.2171	3.011		0.524890574	0.632597449	0.009519159	0.098207411	0.030268478
2020-01-20T06:05:00	0.2178	3.006		0.527140755	0.635757093	0.009594027	0.098979804	0.030506537
2020-01-20T06:10:00	0.2169	3.002		0.524278266	0.631738373	0.009498838	0.097997758	0.030203861
2020-01-20T06:15:00	0.2174	2.998		0.525847226	0.633940251	0.009550953	0.098535418	0.030369573
2020-01-20T06:20:00	0.2171	2.994		0.524688878	0.632314433	0.009512463	0.098138326	0.030247185
2020-01-20T06:25:00	0.2168	2.988		0.523871197	0.631167420	0.009485340	0.097858503	0.030160941
2020-01-20T06:30:00	0.2156	2.984		0.519640415	0.625241301	0.009345623	0.096417067	0.029716677
2020-01-20T06:35:00	0.2156	2.976		0.519846005	0.625528937	0.009352388	0.096486864	0.029738189
2020-01-20T06:40:00	0.2154	2.968		0.519027171	0.624383525	0.009325457	0.096209024	0.029652556
2020-01-20T06:45:00	0.2160	2.960		0.520939876	0.627059930	0.009388425	0.096858654	0.029852778
2020-01-20T06:50:00	0.2162	2.953		0.521827941	0.628303588	0.009417734	0.097161021	0.029945970
2020-01-20T06:55:00	0.2167	2.944		0.523398019	0.630503911	0.009469662	0.097696757	0.030111089
2020-01-20T07:00:00	0.2169	2.935		0.524285449	0.631748451	0.009499076	0.098000216	0.030204618
2020-01-20T07:05:00	0.2174	2.927		0.525854406	0.633950332	0.009551192	0.098537882	0.030370332
2020-01-20T07:10:00	0.2175	2.921		0.526059624	0.634238484	0.009558019	0.098608318	0.030392041
2020-01-20T07:15:00	0.2173	2.919		0.525583157	0.633569516	0.009542171	0.098444822	0.030341650
2020-01-20T07:20:00	0.2183	2.917		0.528854678	0.638166499	0.009651250	0.099570162	0.030688491
2020-01-20T07:25:00	0.2170	2.913		0.524630023	0.632231856	0.009510509	0.098118172	0.030240973
2020-01-20T07:30:00	0.2171	2.903		0.524835314	0.632519906	0.009517324	0.098188481	0.030262644
2020-01-20T07:35:00	0.2164	2.899		0.522312117	0.628981904	0.009433732	0.097326072	0.029996841
2020-01-20T07:40:00	0.2171	2.899		0.524904939	0.632617607	0.009519636	0.098212333	0.030269995
2020-01-20T07:45:00	0.2172	2.896		0.525110214	0.632905680	0.009526454	0.098282671	0.030291674
2020-01-20T07:50:00	0.2176	2.884		0.526678795	0.635108085	0.009578632	0.098820984	0.030457587
2020-01-20T07:55:00	0.2177	2.871		0.526883964	0.635396306	0.009585468	0.098891505	0.030479322
2020-01-20T08:00:00	0.2188	2.855		0.530494652	0.640474188	0.009706164	0.100136702	0.030863104
2020-01-20T08:05:00	0.2205	2.841		0.536480951	0.648916393	0.009907945	0.102218443	0.031504717
2020-01-20T08:10:00	0.2213	2.835		0.539063146	0.652566969	0.009995630	0.103123068	0.031783531
2020-01-20T08:15:00	0.2217	2.836		0.540625400	0.654778248	0.010048869	0.103672328	0.031952818
2020-01-20T08:20:00	0.2224	2.843		0.542865353	0.657952251	0.010125452	0.104462426	0.032196334
2020-01-20T08:25:00	0.2222	2.856		0.542051967	0.656799212	0.010097609	0.104175170	0.032107799
2020-01-20T08:30:00	0.2223	2.864		0.542595437	0.657569563	0.010116208	0.104367058	0.032166941
2020-01-20T08:35:00	0.2218	2.874		0.540764013	0.654974542	0.010053600	0.103721133	0.031967861
2020-01-20T08:40:00	0.2216	2.886		0.540289570	0.654302732	0.010037412	0.103554133	0.031916389
2020-01-20T08:45:00	0.2207	2.896		0.537098254	0.649788609	0.009928872	0.102434338	0.031571258
2020-01-20T08:50:00	0.2212	2.907		0.538661395	0.651998636	0.009981962	0.102982058	0.031740070
2020-01-20T08:55:00	0.2214	2.921		0.539544909	0.653248663	0.010012032	0.103292290	0.031835687
2020-01-20T09:00:00	0.2224	2.934		0.542803235	0.657864175	0.010123325	0.104440474	0.032189568
2020-01-20T09:05:00	0.2238	2.950		0.547752369	0.664891380	0.010293558	0.106196741	0.032730867
2020-01-20T09:10:00	0.2244	2.963		0.549649234	0.667590033	0.010359185	0.106873797	0.032939542
2020-01-20T09:15:00	0.2241	2.981		0.548498836	0.665953020	0.010319359	0.106462921	0.032812906
2020-01-20T09:20:00	0.2246	2.997		0.550395293	0.668652253	0.010385054	0.107140688	0.033021801
2020-01-20T09:25:00	0.2244	3.012		0.549583672	0.667496709	0.010356913	0.106850360	0.032932319
2020-01-20T09:30:00	0.2251	3.028		0.551817848	0.670678916	0.010434472	0.107650519	0.033178935
2020-01-20T09:35:00	0.2254	3.043		0.553036209	0.672415991	0.010476890	0.108088143	0.033313815
2020-01-20T09:40:00	0.2248	3.058		0.550871919	0.669331100	0.010401598	0.107311370	0.033074406
2020-01-20T09:45:00	0.2243	3.071		0.549383411	0.667211671	0.010349975	0.106778785	0.032910259
2020-01-20T09:50:00	0.2234	3.084		0.546200464	0.662685694	0.010240023	0.105644433	0.032560640
2020-01-20T09:55:00	0.2237	3.100		0.547082057	0.663938440	0.010270418	0.105958005	0.032657286
2020-01-20T10:00:00	0.2228	3.114		0.544236048	0.659896543	0.010172461	0.104947404	0.032345809
2020-01-20T10:05:00	0.2231	3.128		0.545153997	0.661199487	0.010204004	0.105272827	0.032446108
2020-01-20T10:10:00	0.2229	3.143		0.544377012	0.660096584	0.010177302	0.104997345	0.032361201
2020-01-20T10:15:00	0.2224	3.162		0.542921593	0.658031995	0.010127379	0.104482302	0.032202460
2020-01-20T10:20:00	0.2223	3.178		0.542483330	0.657410636	0.010112370	0.104327461	0.032154737
2020-01-20T10:25:00	0.2229	3.192		0.544418943	0.660156091	0.010178742	0.105012202	0.032365781
2020-01-20T10:30:00	0.2239	3.207		0.548047200	0.665310641	0.010303745	0.106301834	0.032763258
2020-01-20T10:35:00	0.2236	3.225		0.546932109	0.663725318	0.010265245	0.105904637	0.032640838
2020-01-20T10:40:00	0.2245	3.244		0.549880840	0.667919738	0.010367212	0.106956615	0.032965067
2020-01-20T10:45:00	0.2258	3.264		0.554517641	0.674529783	0.010528585	0.108621473	0.033478193
2020-01-20T10:50:00	0.2251	3.278		0.552051800	0.671012378	0.010442610	0.107734483	0.033204814
2020-01-20T10:55:00	0.2259	3.292		0.554658188	0.674730417	0.010533496	0.108672140	0.033493809
2020-01-20T11:00:00	0.2259	3.303		0.554559449	0.674589464	0.010530046	0.108636543	0.033482838
2020-01-20T11:05:00	0.2259	3.315		0.554798729	0.674931060	0.010538408	0.108722817	0.033509428
2020-01-20T11:10:00	0.2256	3.325		0.553685804	0.673342648	0.010499542	0.108321840	0.033385843
2020-01-20T11:15:00	0.2249	3.329		0.551219372	0.669826087	0.010413667	0.107435881	0.033112782
2020-01-20T11:20:00	0.2247	3.339		0.550782157	0.669203239	0.010398481	0.107279215	0.033064496
2020-01-20T11:25:00	0.2259	3.358		0.554741801	0.674849785	0.010536419	0.108702289	0.033503101
2020-01-20T11:30:00	0.2265	3.375		0.556670595	0.677604956	0.010603943	0.109398930	0.033717813
2020-01-20T11:35:00	0.2258	3.389		0.554206280	0.674085366	0.010517709	0.108509270	0.033443611
2020-01-20T11:40:00	0.2257	3.400		0.554107529	0.673944431	0.010514261	0.108473695	0.033432646
2020-01-20T11:45:00	0.2257	3.404		0.554008775	0.673803501	0.010510814	0.108438126	0.033421684
2020-01-20T11:50:00	0.2258	3.410		0.554248093	0.674145042	0.010519170	0.108524334	0.033448254
2020-01-20T11:55:00	0.2266	3.421		0.557190625	0.678348313	0.010622187	0.109587141	0.033775821
2020-01-20T12:00:00	0.2263	3.434		0.556078464	0.676758806	0.010583190	0.109184824	0.033651823
2020-01-20T12:05:00	0.2261	3.455		0.555303920	0.675652423	0.010556075	0.108905081	0.033565604
2020-01-20T12:10:00	0.2261	3.466		0.555205200	0.675511444	0.010552622	0.108869453	0.033554623
2020-01-20T12:15:00	0.2262	3.483		0.555782361	0.676335785	0.010572820	0.109077837	0.033618849
2020-01-20T12:20:00	0.2265	3.495		0.556697264	0.677643072	0.010604879	0.109408578	0.033720786
2020-01-20T12:25:00	0.2265	3.497		0.556598583	0.677502036	0.010601418	0.109372880	0.033709784
2020-01-20T12:30:00	0.2264	3.501		0.556499900	0.677361004	0.010597959	0.109337187	0.033698783
2020-01-20T12:35:00	0.2256	3.508		0.553697369	0.673359149	0.010499946	0.108326003	0.033387126
2020-01-20T12:40:00	0.2257	3.519		0.553936708	0.673700660	0.010508298	0.108412173	0.033413685
2020-01-20T12:45:00	0.2246	3.527		0.550455321	0.668737739	0.010387137	0.107162177	0.033028424
2020-01-20T12:50:00	0.2243	3.526		0.549341003	0.667151315	0.010348506	0.106763631	0.032905588
2020-01-20T12:55:00	0.2235	3.525		0.546532690	0.663157713	0.010251472	0.105762547	0.032597044
2020-01-20T13:00:00	0.2245	3.524		0.549820266	0.667833503	0.010365112	0.106934951	0.032958391
2020-01-20T13:05:00	0.2245	3.517		0.550059872	0.668174632	0.010373419	0.107020655	0.032984805
2020-01-20T13:10:00	0.2244	3.507		0.549622511	0.667551993	0.010358259	0.106864244	0.032936598
2020-01-20T13:15:00	0.2246	3.494		0.550200600	0.668375009	0.010378300	0.107071007	0.033000324
2020-01-20T13:20:00	0.2241	3.486		0.548747623	0.666306951	0.010327965	0.106551710	0.032840272
2020-01-20T13:25:00	0.2243	3.490		0.549325857	0.667129759	0.010347982	0.106758219	0.032903920
2020-01-20T13:30:00	0.2243	3.499		0.549226967	0.666989022	0.010344557	0.106722887	0.032893030
2020-01-20T13:35:00	0.2242	3.507		0.548789501	0.666366533	0.010329414	0.106566659	0.032844879
2020-01-20T13:40:00	0.2246	3.514		0.550383181	0.668635004	0.010384634	0.107136352	0.033020464
2020-01-20T13:45:00	0.2243	3.522		0.549268839	0.667048613	0.010346007	0.106737847	0.032897641
2020-01-20T13:50:00	0.2237	3.527		0.547138036	0.664018008	0.010272349	0.105977932	0.032663428
2020-01-20T13:55:00	0.2239	3.527		0.548055217	0.665322042	0.010304022	0.106304692	0.032764139
2020-01-20T14:00:00	0.2240	3.528		0.548294946	0.665662998	0.010312308	0.106390183	0.032790488
2020-01-20T14:05:00	0.2241	3.526		0.548534657	0.666003978	0.010320598	0.106475703	0.032816846
2020-01-20T14:10:00	0.2240	3.523		0.548097104	0.665381612	0.010305469	0.106319627	0.032768742
2020-01-20T14:15:00	0.2231	3.522		0.545287783	0.661389443	0.010208605	0.105320299	0.032460739
2020-01-20T14:20:00	0.2228	3.522		0.544171804	0.659805381	0.010170255	0.104924648	0.032338796
2020-01-20T14:25:00	0.2226	3.521		0.543394599	0.658702789	0.010143590	0.104649549	0.032254007
2020-01-20T14:30:00	0.2212	3.516		0.538884083	0.652313643	0.009989537	0.103060207	0.031764157
2020-01-20T14:35:00	0.2209	3.507		0.537766038	0.650732503	0.009951535	0.102668147	0.031643320
2020-01-20T14:40:00	0.2211	3.494		0.538346108	0.651552711	0.009971242	0.102871464	0.031705984
2020-01-20T14:45:00	0.2208	3.474		0.537567594	0.650451970	0.009944797	0.102598639	0.031621897
2020-01-20T14:50:00	0.2199	3.451		0.534409730	0.645992139	0.009837893	0.101495733	0.031281971
2020-01-20T14:55:00	0.2195	3.430		0.532950110	0.643933475	0.009788677	0.100987980	0.031125476
2020-01-20T15:00:00	0.2189	3.407		0.530809231	0.640917097	0.009716715	0.100245560	0.030896655
2020-01-20T15:05:00	0.2199	3.382		0.534451782	0.646051476	0.009839313	0.101510380	0.031286485
2020-01-20T15:10:00	0.2201	3.359		0.535032409	0.646870900	0.009858927	0.101712732	0.031348852
2020-01-20T15:15:00	0.2205	3.334		0.536292632	0.648650371	0.009901566	0.102152626	0.031484431
2020-01-20T15:20:00	0.2201	3.309		0.535173748	0.647070411	0.009863704	0.101762020	0.031364043
2020-01-20T15:25:00	0.2200	3.282		0.534734503	0.646450438	0.009848861	0.101608885	0.031316845
2020-01-20T15:30:00	0.2199	3.252		0.534295201	0.645830544	0.009834027	0.101455846	0.031269677
2020-01-20T15:35:00	0.2198	3.219		0.533855844	0.645210728	0.009819203	0.101302903	0.031222539
2020-01-20T15:40:00	0.2202	3.188		0.535456410	0.647469457	0.009873262	0.101860627	0.031394435
2020-01-20T15:45:00	0.2200	3.159		0.534677244	0.646369632	0.009846927	0.101588931	0.031310695
2020-01-20T15:50:00	0.2209	3.129		0.537636423	0.650549268	0.009947134	0.102622745	0.031629327
2020-01-20T15:55:00	0.2200	3.101		0.534818598	0.646569123	0.009851702	0.101638194	0.031325879
2020-01-20T16:00:00	0.2199	3.071		0.534379308	0.645949213	0.009836866	0.101485137	0.031278705
2020-01-20T16:05:00	0.2202	3.039		0.535296833	0.647244168	0.009867866	0.101804953	0.031377275
2020-01-20T16:10:00	0.2205	3.012		0.536553920	0.649019478	0.009910418	0.102243951	0.031512579
2020-01-20T16:15:00	0.2210	2.984		0.538150197	0.651275666	0.009964584	0.102802774	0.031684813
2020-01-20T16:20:00	0.2211	2.957		0.538387573	0.651611353	0.009972651	0.102886005	0.031710466
2020-01-20T16:25:00	0.2206	2.931		0.536586825	0.649065965	0.009911533	0.102255455	0.031516124
2020-01-20T16:30:00	0.2215	2.903		0.539880811	0.653724076	0.010023477	0.103410361	0.031872077
2020-01-20T16:35:00	0.2224	2.877		0.542832508	0.657905680	0.010124327	0.104450818	0.032192757
2020-01-20T16:40:00	0.2228	2.852		0.544086860	0.659684850	0.010167339	0.104894564	0.032329523
2020-01-20T16:45:00	0.2227	2.826		0.543984787	0.659540021	0.010163836	0.104858418	0.032318383
2020-01-20T16:50:00	0.2230	2.797		0.544899769	0.660838566	0.010195263	0.105182650	0.032418314
2020-01-20T16:55:00	0.2235	2.768		0.546492204	0.663100187	0.010250076	0.105748150	0.032592607
2020-01-20T17:00:00	0.2236	2.741		0.547067784	0.663918152	0.010269925	0.105952924	0.032655720
2020-01-20T17:05:00	0.2231	2.715		0.545271545	0.661366386	0.010208047	0.105314536	0.032458963
2020-01-20T17:10:00	0.2245	2.690		0.549911471	0.667963348	0.010368274	0.106967570	0.032968444
2020-01-20T17:15:00	0.2249	2.667		0.551163267	0.669746152	0.010411718	0.107415771	0.033106584
2020-01-20T17:20:00	0.2248	2.645		0.551061402	0.669601027	0.010408179	0.107379263	0.033095332
2020-01-20T17:25:00	0.2257	2.619		0.554003605	0.673796123	0.010510633	0.108436264	0.033421110
2020-01-20T17:30:00	0.2269	2.595		0.557956565	0.679443590	0.010649085	0.109864651	0.033861352
2020-01-20T17:35:00	0.2272	2.570		0.559205469	0.681230532	0.010693019	0.110317910	0.034001051
2020-01-20T17:40:00	0.2275	2.543		0.560116454	0.682534786	0.010725124	0.110649126	0.034103135
2020-01-20T17:45:00	0.2277	2.516		0.560689783	0.683355969	0.010745354	0.110857837	0.034167462
2020-01-20T17:50:00	0.2279	2.492		0.561600379	0.684660781	0.010777525	0.111189734	0.034269756
2020-01-20T17:55:00	0.2282	2.468		0.562510738	0.685965935	0.010809736	0.111522049	0.034372179
2020-01-20T18:00:00	0.2285	2.445		0.563420860	0.687271431	0.010841987	0.111854781	0.034474730
2020-01-20T18:05:00	0.2286	2.420		0.563656515	0.687609571	0.010850346	0.111941016	0.034501308
2020-01-20T18:10:00	0.2284	2.397		0.563217842	0.686980159	0.010834788	0.111780516	0.034451841
2020-01-20T18:15:00	0.2287	2.379		0.564127779	0.688285921	0.010867071	0.112113572	0.034554492
2020-01-20T18:20:00	0.2281	2.363		0.562003039	0.685237977	0.010791766	0.111336657	0.034315039
2020-01-20T18:25:00	0.2279	2.344		0.561564157	0.684608864	0.010776244	0.111176522	0.034265684
2020-01-20T18:30:00	0.2283	2.327		0.562811770	0.686397665	0.010820398	0.111632048	0.034406081
2020-01-20T18:35:00	0.2287	2.312		0.564058937	0.688187110	0.010864627	0.112088357	0.034546720
2020-01-20T18:40:00	0.2284	2.298		0.563283148	0.687073851	0.010837104	0.111804402	0.034459203
2020-01-20T18:45:00	0.2290	2.285		0.565204206	0.689831480	0.010905324	0.112508218	0.034676125
2020-01-20T18:50:00	0.2291	2.275		0.565439741	0.690169794	0.010913703	0.112594665	0.034702769
2020-01-20T18:55:00	0.2291	2.263		0.565338293	0.690024071	0.010910094	0.112557427	0.034691292
2020-01-20T19:00:00	0.2302	2.254		0.569278433	0.695690009	0.011050728	0.114008325	0.035138473
2020-01-20T19:05:00	0.2300	2.243		0.568503802	0.694575074	0.011023007	0.113722331	0.035050327
2020-01-20T19:10:00	0.2300	2.227		0.568402442	0.694429222	0.011019382	0.113684936	0.035038802
2020-01-20T19:15:00	0.2303	2.209		0.569647615	0.696221552	0.011063952	0.114144756	0.035180522
2020-01-20T19:20:00	0.2308	2.190		0.571228779	0.698499361	0.011120681	0.114730014	0.035360904
2020-01-20T19:25:00	0.2314	2.168		0.573145477	0.701263312	0.011189646	0.115441513	0.035580195
2020-01-20T19:30:00	0.2322	2.145		0.576069130	0.705485187	0.011295261	0.116531127	0.035916025
2020-01-20T19:35:00	0.2316	2.122		0.573951635	0.702426731	0.011218717	0.115741438	0.035672635
2020-01-20T19:40:00	0.2320	2.099		0.575194837	0.704221929	0.011263625	0.116204740	0.035815429
2020-01-20T19:45:00	0.2324	2.074		0.576437597	0.706017771	0.011308608	0.116668822	0.035958464
2020-01-20T19:50:00	0.2317	2.053		0.574320325	0.702958990	0.011232026	0.115878739	0.035714953
2020-01-20T19:55:00	0.2330	2.031		0.578586102	0.709125473	0.011386591	0.117473362	0.036206431
2020-01-20T20:00:00	0.2326	2.010		0.577141891	0.707036075	0.011334141	0.116932244	0.036039653
2020-01-20T20:05:00	0.2325	1.986		0.577040781	0.706889859	0.011330474	0.116894408	0.036027992
2020-01-20T20:10:00	0.2333	1.965		0.579625593	0.710630418	0.011424419	0.117863629	0.036326715
2020-01-20T20:15:00	0.2332	1.944		0.579188917	0.709998101	0.011408520	0.117699602	0.036276160
2020-01-20T20:20:00	0.2332	1.921		0.579423513	0.710337782	0.011417060	0.117787708	0.036303315
2020-01-20T20:25:00	0.2327	1.900		0.577643861	0.707762099	0.011352357	0.117120178	0.036097576
2020-01-20T20:30:00	0.2323	1.879		0.576199262	0.705673268	0.011299974	0.116579747	0.035931010
2020-01-20T20:35:00	0.2324	1.859		0.576434059	0.706012656	0.011308480	0.116667499	0.035958056
2020-01-20T20:40:00	0.2325	1.839		0.577004719	0.706837711	0.011329166	0.116880914	0.036023833
2020-01-20T20:45:00	0.2317	1.818		0.574215593	0.702807782	0.011228244	0.115839728	0.035702929
2020-01-20T20:50:00	0.2321	1.797		0.575458700	0.704603117	0.011273168	0.116303195	0.035845774
2020-01-20T20:55:00	0.2317	1.777		0.574349334	0.703000874	0.011233073	0.115889545	0.035718283
2020-01-20T21:00:00	0.2321	1.760		0.575592394	0.704796278	0.011278005	0.116353096	0.035861154
2020-01-20T21:05:00	0.2318	1.746		0.574483071	0.703193973	0.011237903	0.115939372	0.035733640
2020-01-20T21:10:00	0.2311	1.728		0.572364617	0.700136915	0.011161523	0.115151378	0.035490773
2020-01-20T21:15:00	0.2314	1.710		0.573272177	0.701446124	0.011194212	0.115488624	0.035594716
2020-01-20T21:20:00	0.2312	1.691		0.572498429	0.700329904	0.011166340	0.115201071	0.035506089
2020-01-20T21:25:00	0.2312	1.671		0.572397185	0.700183884	0.011162696	0.115163472	0.035494500
2020-01-20T21:30:00	0.2315	1.654		0.573640938	0.701978279	0.011207508	0.115625798	0.035636994
2020-01-20T21:35:00	0.2314	1.638		0.573203515	0.701347052	0.011191737	0.115463092	0.035586846
2020-01-20T21:40:00	0.2306	1.623		0.570411360	0.697321537	0.011091335	0.114427261	0.035267593
2020-01-20T21:45:00	0.2312	1.604		0.572664801	0.700569874	0.011172330	0.115262870	0.035525136
2020-01-20T21:50:00	0.2305	1.585		0.570208748	0.697029677	0.011084067	0.114352281	0.035244484
2020-01-20T21:55:00	0.2303	1.568		0.569434323	0.695914443	0.011056311	0.114065924	0.035156226
2020-01-20T22:00:00	0.2300	1.549		0.568659726	0.694799457	0.011028584	0.113779869	0.035068061
2020-01-20T22:05:00	0.2298	1.533		0.567926606	0.693744632	0.011002374	0.113509469	0.034984721
2020-01-20T22:10:00	0.2304	1.519		0.569886739	0.696565899	0.011072522	0.114233168	0.035207772
2020-01-20T22:15:00	0.2310	1.504		0.571845775	0.699388761	0.011142857	0.114958805	0.035431420
2020-01-20T22:20:00	0.2315	1.490		0.573467529	0.701728021	0.011201255	0.115561282	0.035617110
2020-01-20T22:25:00	0.2317	1.480		0.574080247	0.702612388	0.011223359	0.115789324	0.035687394
2020-01-20T22:30:00	0.2319	1.464		0.575028927	0.703982280	0.011257626	0.116142856	0.035796356
2020-01-20T22:35:00	0.2319	1.446		0.574969321	0.703896187	0.011255472	0.116120627	0.035789505
2020-01-20T22:40:00	0.2325	1.431		0.576925517	0.706723186	0.011326294	0.116851282	0.036014700
2020-01-20T22:45:00	0.2317	1.415		0.574177902	0.702753367	0.011226884	0.115825690	0.035698603
2020-01-20T22:50:00	0.2314	1.396		0.573109717	0.701211717	0.011188357	0.115428218	0.035576098
2020-01-20T22:55:00	0.2306	1.378		0.570695592	0.697731026	0.011101535	0.114532487	0.035300025
2020-01-20T23:00:00	0.2314	1.365		0.573326671	0.701524757	0.011196177	0.115508890	0.035600962
2020-01-20T23:05:00	0.2313	1.349		0.572930798	0.700953585	0.011181911	0.115361710	0.035555599
2020-01-20T23:10:00	0.2313	1.331		0.572871156	0.700867544	0.011179762	0.115339545	0.035548768
2020-01-20T23:15:00	0.2317	1.315		0.574156316	0.702722203	0.011226105	0.115817651	0.035696125
2020-01-20T23:20:00	0.2322	1.301		0.575777000	0.705063021	0.011284685	0.116422019	0.035882397
2020-01-20T23:25:00	0.2329	1.289		0.578404268	0.708862311	0.011379981	0.117405162	0.036185411
2020-01-20T23:30:00	0.2329	1.276		0.578344719	0.708776134	0.011377816	0.117382831	0.036178529
2020-01-20T23:35:00	0.2323	1.261		0.576270148	0.705775726	0.011302541	0.116606236	0.035939175
2020-01-20T23:40:00	0.2322	1.242		0.575874608	0.705204069	0.011288218	0.116458469	0.035893631
2020-01-20T23:45:00	0.2328	1.226		0.577830299	0.708031806	0.011359127	0.117190018	0.036119102
2020-01-20T23:50:00	0.2321	1.212		0.575419425	0.704546374	0.011271747	0.116288537	0.035841257
2020-01-20T23:55:00	0.2325	1.197		0.577039526	0.706888044	0.011330428	0.116893938	0.036027847
2020-01-21T00:00:00	0.2323	1.180		0.576308159	0.705830668	0.011303918	0.116620442	0.035943553
2020-01-21T00:05:00	0.2323	1.162		0.576248574	0.705744543	0.011301760	0.116598174	0.035936690
2020-01-21T00:10:00	0.2324	1.147		0.576524914	0.706143996	0.011311772	0.116701464	0.035968524
2020-01-21T00:15:00	0.2328	1.132		0.577808735	0.708000609	0.011358344	0.117181939	0.036116612
2020-01-21T00:20:00	0.2330	1.115		0.578756406	0.709371973	0.011392784	0.117537255	0.036226124
2020-01-21T00:25:00	0.2335	1.101		0.580374968	0.711715896	0.011451730	0.118145384	0.036413555
2020-01-21T00:30:00	0.2329	1.088		0.578301597	0.708713731	0.011376249	0.117366662	0.036173545
2020-01-21T00:35:00	0.2330	1.070		0.578577775	0.709113421	0.011386288	0.117470238	0.036205468
2020-01-21T00:40:00	0.2324	1.054		0.576503342	0.706112811	0.011310990	0.116693399	0.035966039
2020-01-21T00:45:00	0.2318	1.039		0.574427681	0.703113995	0.011235902	0.115918734	0.035727279
2020-01-21T00:50:00	0.2317	1.024		0.574368065	0.703027917	0.011233750	0.115896523	0.035720434
2020-01-21T00:55:00	0.2309	1.011		0.571618443	0.699061025	0.011134684	0.114874480	0.035405430
2020-01-21T01:00:00	0.2312	0.998		0.572567790	0.700429945	0.011168837	0.115226833	0.035514029
2020-01-21T01:05:00	0.2311	0.987		0.572171831	0.699858898	0.011154586	0.115079805	0.035468713
2020-01-21T01:10:00	0.2310	0.978		0.571775828	0.699287917	0.011140342	0.114932856	0.035423422
2020-01-21T01:15:00	0.2300	0.966		0.568687524	0.694839462	0.011029579	0.113790128	0.035071223
2020-01-21T01:20:00	0.2294	0.951		0.566607221	0.691847396	0.010955285	0.113023658	0.034834989
2020-01-21T01:25:00	0.2294	0.938		0.566547472	0.691761512	0.010953155	0.113001683	0.034828216
2020-01-21T01:30:00	0.2288	0.926		0.564465894	0.688771292	0.010879079	0.112237458	0.034592674
2020-01-21T01:35:00	0.2285	0.913		0.563394738	0.687233953	0.010841061	0.111845224	0.034471784
2020-01-21T01:40:00	0.2284	0.902		0.562997739	0.686664414	0.010826987	0.111700029	0.034427034
2020-01-21T01:45:00	0.2278	0.888		0.561251439	0.684160697	0.010765191	0.111062491	0.034230539
2020-01-21T01:50:00	0.2279	0.873		0.561528966	0.684558427	0.010775000	0.111163687	0.034261728
2020-01-21T01:55:00	0.2283	0.861		0.562818302	0.686407033	0.010820629	0.111634435	0.034406817
2020-01-21T02:00:00	0.2286	0.847		0.563770041	0.687772485	0.010854374	0.111982572	0.034514116
2020-01-21T02:05:00	0.2285	0.835		0.563373085	0.687202885	0.010840293	0.111837302	0.034469343
2020-01-21T02:10:00	0.2281	0.820		0.561964299	0.685182440	0.010790395	0.111322518	0.034310681
2020-01-21T02:15:00	0.2276	0.804		0.560554944	0.683162815	0.010740594	0.110808733	0.034152328
2020-01-21T02:20:00	0.2271	0.791		0.558807420	0.680660860	0.010679007	0.110173344	0.033956495
2020-01-21T02:25:00	0.2262	0.774		0.555707614	0.676229010	0.010570203	0.109050838	0.033610527
2020-01-21T02:30:00	0.2254	0.760		0.552943246	0.672283407	0.010473650	0.108054720	0.033303514
2020-01-21T02:35:00	0.2256	0.750		0.553559578	0.673162559	0.010495139	0.108276409	0.033371841
2020-01-21T02:40:00	0.2254	0.739		0.553161457	0.672594633	0.010481256	0.108133182	0.033327697
2020-01-21T02:45:00	0.2247	0.730		0.550733480	0.669133906	0.010396791	0.107261780	0.033059122
2020-01-21T02:50:00	0.2246	0.719		0.550335035	0.668566442	0.010382963	0.107119119	0.033015153
2020-01-21T02:55:00	0.2256	0.706		0.553657809	0.673302707	0.010498565	0.108311763	0.033382737
2020-01-21T03:00:00	0.2262	0.692		0.555625976	0.676112397	0.010567345	0.109021354	0.033601440
2020-01-21T03:05:00	0.2260	0.683		0.554890111	0.675061528	0.010541603	0.108755775	0.033519586
2020-01-21T03:10:00	0.2254	0.672		0.553139740	0.672563657	0.010480499	0.108125372	0.033325290
2020-01-21T03:15:00	0.2263	0.660		0.556121976	0.676820974	0.010584715	0.109200550	0.033656670
2020-01-21T03:20:00	0.2265	0.652		0.556737746	0.677700932	0.010606298	0.109423224	0.033725300
2020-01-21T03:25:00	0.2271	0.643		0.558704172	0.680513117	0.010675374	0.110135862	0.033944942
2020-01-21T03:30:00	0.2268	0.633		0.557631244	0.678978329	0.010637656	0.109746739	0.033825011
2020-01-21T03:35:00	0.2272	0.623		0.558922021	0.680824860	0.010683040	0.110214956	0.033969320
2020-01-21T03:40:00	0.2274	0.611		0.559874825	0.682188780	0.010716604	0.110561225	0.034076043
2020-01-21T03:45:00	0.2279	0.598		0.561502143	0.684519983	0.010774052	0.111153904	0.034258713
2020-01-21T03:50:00	0.2291	0.586		0.565488289	0.690239533	0.010915431	0.112612488	0.034708262
2020-01-21T03:55:00	0.2288	0.572		0.564417447	0.688701739	0.010877358	0.112219702	0.034587202
2020-01-21T04:00:00	0.2292	0.558		0.565705716	0.690551885	0.010923169	0.112692325	0.034732869
2020-01-21T04:05:00	0.2292	0.545		0.565941217	0.690890249	0.010931554	0.112778832	0.034759531
2020-01-21T04:10:00	0.2284	0.528		0.563143254	0.686873155	0.010832144	0.111753237	0.034443433
2020-01-21T04:15:00	0.2285	0.513		0.563378928	0.687211268	0.010840500	0.111839440	0.034470002
2020-01-21T04:20:00	0.2278	0.499		0.561253732	0.684163982	0.010765272	0.111063327	0.034230796
2020-01-21T04:25:00	0.2276	0.490		0.560477318	0.683051623	0.010737855	0.110780469	0.034143617
2020-01-21T04:30:00	0.2271	0.480		0.558687996	0.680489971	0.010674805	0.110129990	0.033943133
2020-01-21T04:35:00	0.2276	0.474		0.560274129	0.682760598	0.010730686	0.110706505	0.034120820
2020-01-21T04:40:00	0.2276	0.463		0.560509997	0.683098432	0.010739008	0.110792367	0.034147284
2020-01-21T04:45:00	0.2277	0.452		0.560745849	0.683436288	0.010747333	0.110878257	0.034173756
2020-01-21T04:50:00	0.2274	0.441		0.559631803	0.681840827	0.010708038	0.110472854	0.034048806
2020-01-21T04:55:00	0.2267	0.430		0.557504320	0.678796832	0.010633199	0.109700753	0.033810838
2020-01-21T05:00:00	0.2265	0.418		0.556727070	0.677685674	0.010605924	0.109419362	0.033724110
2020-01-21T05:05:00	0.2263	0.410		0.555949647	0.676574765	0.010578678	0.109138274	0.033637476
2020-01-21T05:10:00	0.2261	0.397		0.555510002	0.675946749	0.010563286	0.108979477	0.033588533
2020-01-21T05:15:00	0.2263	0.390		0.556084090	0.676766843	0.010583387	0.109186857	0.033652450
2020-01-21T05:20:00	0.2265	0.379		0.556658083	0.677587073	0.010603505	0.109394403	0.033716418
2020-01-21T05:25:00	0.2261	0.368		0.555204779	0.675510843	0.010552607	0.108869301	0.033554576
2020-01-21T05:30:00	0.2267	0.357		0.557468055	0.678744976	0.010631926	0.109687616	0.033806789
2020-01-21T05:35:00	0.2269	0.346		0.558041820	0.679565533	0.010652082	0.109895562	0.033870879
2020-01-21T05:40:00	0.2265	0.334		0.556589094	0.677488474	0.010601086	0.109369447	0.033708726
2020-01-21T05:45:00	0.2264	0.325		0.556487387	0.677343123	0.010597520	0.109332662	0.033697388
2020-01-21T05:50:00	0.2266	0.316		0.557061314	0.678163448	0.010617649	0.109540324	0.033761392
2020-01-21T05:55:00	0.2266	0.307		0.556959621	0.678018076	0.010614081	0.109503515	0.033750047
2020-01-21T06:00:00	0.2266	0.293		0.557195714	0.678355588	0.010622365	0.109588983	0.033776389
2020-01-21T06:05:00	0.2272	0.281		0.559120128	0.681108384	0.010690014	0.110286907	0.033991496
2020-01-21T06:10:00	0.2272	0.273		0.559018495	0.680962926	0.010686436	0.110249991	0.033980118
2020-01-21T06:15:00	0.2271	0.262		0.558579237	0.680334354	0.010670978	0.110090516	0.033930966
2020-01-21T06:20:00	0.2268	0.253		0.557802228	0.679222852	0.010643662	0.109808704	0.033844109
2020-01-21T06:25:00	0.2273	0.243		0.559388764	0.681492899	0.010699475	0.110384511	0.034021578
2020-01-21T06:30:00	0.2268	0.235		0.557598882	0.678932051	0.010636520	0.109735013	0.033821397
2020-01-21T06:35:00	0.2274	0.225		0.559860604	0.682168417	0.010716102	0.110556053	0.034074449
2020-01-21T06:40:00	0.2286	0.215		0.563806928	0.687825421	0.010855683	0.111996076	0.034518278
2020-01-21T06:45:00	0.2276	0.204		0.560332380	0.682844027	0.010732741	0.110727707	0.034127355
2020-01-21T06:50:00	0.2279	0.193		0.561580434	0.684632194	0.010776819	0.111182459	0.034267514
2020-01-21T06:55:00	0.2277	0.184		0.560804093	0.683519730	0.010749390	0.110899473	0.034180295
2020-01-21T07:00:00	0.2275	0.174		0.560027579	0.682407514	0.010721990	0.110616791	0.034093169
2020-01-21T07:05:00	0.2274	0.164		0.559925973	0.682262018	0.010718407	0.110579829	0.034081777
2020-01-21T07:10:00	0.2283	0.158		0.562860698	0.686467844	0.010822131	0.111649931	0.034411593
2020-01-21T07:15:00	0.2285	0.153		0.563433576	0.687289677	0.010842438	0.111859434	0.034476164
2020-01-21T07:20:00	0.2280	0.145		0.561645771	0.684725841	0.010779129	0.111206292	0.034274859
2020-01-21T07:25:00	0.2278	0.138		0.561206845	0.684096793	0.010763615	0.111046235	0.034225528
2020-01-21T07:30:00	0.2274	0.132		0.559755437	0.682017838	0.010712395	0.110517807	0.034062662
2020-01-21T07:35:00	0.2276	0.124		0.560328826	0.682838936	0.010732615	0.110726413	0.034126956
2020-01-21T07:40:00	0.2283	0.118		0.562926011	0.686561526	0.010824445	0.111673806	0.034418952
2020-01-21T07:45:00	0.2288	0.115		0.564510218	0.688834927	0.010880654	0.112253703	0.034597681
2020-01-21T07:50:00	0.2292	0.110		0.565756779	0.690625248	0.010924987	0.112711079	0.034738649
2020-01-21T07:55:00	0.2286	0.103		0.563970163	0.688059694	0.010861476	0.112055845	0.034536700
2020-01-21T08:00:00	0.2291	0.096		0.565553897	0.690333779	0.010917766	0.112636575	0.034715686
2020-01-21T08:05:00	0.2292	0.096		0.565789408	0.690672127	0.010926149	0.112723064	0.034742343
2020-01-21T08:10:00	0.2287	0.095		0.564002809	0.688106550	0.010862635	0.112067801	0.034540385
2020-01-21T08:15:00	0.2283	0.092		0.562889803	0.686509590	0.010823162	0.111660570	0.034414872
2020-01-21T08:20:00	0.2285	0.089		0.563462676	0.687331430	0.010843470	0.111870081	0.034479445
2020-01-21T08:25:00	0.2277	0.090		0.560662724	0.683317206	0.010744399	0.110847982	0.034164425
2020-01-21T08:30:00	0.2275	0.091		0.560223673	0.682688337	0.010728906	0.110688143	0.034115161
2020-01-21T08:35:00	0.2275	0.094		0.560122073	0.682542833	0.010725322	0.110651171	0.034103766
2020-01-21T08:40:00	0.2270	0.097		0.558332568	0.679981444	0.010662303	0.110001012	0.033903380
2020-01-21T08:45:00	0.2270	0.098		0.558568568	0.680319088	0.010670603	0.110086644	0.033929773
2020-01-21T08:50:00	0.2269	0.102		0.558129254	0.679690598	0.010655155	0.109927267	0.033880651
2020-01-21T08:55:00	0.2271	0.110		0.558702910	0.680511312	0.010675329	0.110135404	0.033944801
2020-01-21T09:00:00	0.2268	0.119		0.557588210	0.678916790	0.010636145	0.109731146	0.033820205
2020-01-21T09:05:00	0.2269	0.127		0.558161955	0.679737375	0.010656304	0.109939127	0.033884307
2020-01-21T09:10:00	0.2260	0.135		0.555019771	0.675246660	0.010546137	0.108802546	0.033534001
2020-01-21T09:15:00	0.2262	0.150		0.555593940	0.676066639	0.010566224	0.109009785	0.033597875
2020-01-21T09:20:00	0.2273	0.166		0.559545095	0.681716693	0.010704983	0.110441332	0.034039091
2020-01-21T09:25:00	0.2284	0.185		0.563154597	0.686889427	0.010832547	0.111757385	0.034444712
2020-01-21T09:30:00	0.2290	0.205		0.565075726	0.689646955	0.010900755	0.112461076	0.034661596
2020-01-21T09:35:00	0.2291	0.228		0.565648240	0.690469313	0.010921123	0.112671218	0.034726364
2020-01-21T09:40:00	0.2286	0.256		0.563861569	0.687903840	0.010857622	0.112016081	0.034524444
2020-01-21T09:45:00	0.2298	0.288		0.567803375	0.693567368	0.010997972	0.113464049	0.034970722
2020-01-21T09:50:00	0.2300	0.318		0.568375443	0.694390373	0.011018417	0.113674977	0.035035732
2020-01-21T09:55:00	0.2299	0.339		0.568274079	0.694244526	0.011014793	0.113637588	0.035024208
2020-01-21T10:00:00	0.2304	0.350		0.569855863	0.696521434	0.011071415	0.114221751	0.035204253
2020-01-21T10:05:00	0.2307	0.349		0.570710416	0.697752385	0.011102067	0.114537977	0.035301717
2020-01-21T10:10:00	0.2306	0.351		0.570555461	0.697529132	0.011096506	0.114480603	0.035284034
2020-01-21T10:15:00	0.2310	0.361		0.571746226	0.699245240	0.011139278	0.114921875	0.035420038
2020-01-21T10:20:00	0.2310	0.365		0.571927682	0.699506854	0.011145803	0.114989194	0.035440786
2020-01-21T10:25:00	0.2318	0.375		0.574462666	0.703164510	0.011237166	0.115931769	0.035731297
2020-01-21T10:30:00	0.2315	0.388		0.573635569	0.701970530	0.011207315	0.115623801	0.035636378
2020-01-21T10:35:00	0.2317	0.401		0.574153079	0.702717531	0.011225988	0.115816446	0.035695753
2020-01-21T10:40:00	0.2323	0.418		0.576350544	0.705891935	0.011305454	0.116636283	0.035948435
2020-01-21T10:45:00	0.2320	0.433		0.575187872	0.704211868	0.011263373	0.116202142	0.035814629
2020-01-21T10:50:00	0.2314	0.450		0.573352451	0.701561958	0.011197106	0.115518478	0.035603917
2020-01-21T10:55:00	0.2312	0.468		0.572525092	0.700368360	0.011167300	0.115210974	0.035509141
2020-01-21T11:00:00	0.2310	0.482		0.572033893	0.699659995	0.011149623	0.115028607	0.035452934
2020-01-21T11:05:00	0.2307	0.499		0.570869786	0.697982018	0.011107788	0.114597001	0.035319909
2020-01-21T11:10:00	0.2303	0.519		0.569368712	0.695819981	0.011053961	0.114041680	0.035148753
2020-01-21T11:15:00	0.2301	0.541		0.568877069	0.695112260	0.011036360	0.113860096	0.035092787
2020-01-21T11:20:00	0.2300	0.563		0.568385358	0.694404639	0.011018771	0.113678634	0.035036859
2020-01-21T11:25:00	0.2299	0.582		0.568230299	0.694181536	0.011013228	0.113621442	0.035019232
2020-01-21T11:30:00	0.2291	0.601		0.565380430	0.690084597	0.010911593	0.112572893	0.034696059
2020-01-21T11:35:00	0.2285	0.617		0.563539854	0.687442170	0.010846207	0.111898321	0.034488149
2020-01-21T11:40:00	0.2279	0.635		0.561360955	0.684317638	0.010769061	0.111102419	0.034242845
2020-01-21T11:45:00	0.2271	0.651		0.558843097	0.680711915	0.010680262	0.110186298	0.033960487
2020-01-21T11:50:00	0.2263	0.667		0.555985545	0.676626051	0.010579936	0.109151245	0.033641474
2020-01-21T11:55:00	0.2260	0.683		0.555154059	0.675438414	0.010550833	0.108850998	0.033548935
2020-01-21T12:00:00	0.2253	0.697		0.552631707	0.671839138	0.010462797	0.107942750	0.033269004
2020-01-21T12:05:00	0.2254	0.713		0.553152341	0.672581631	0.010480938	0.108129904	0.033326687
2020-01-21T12:10:00	0.2256	0.729		0.553672898	0.673324235	0.010499092	0.108317194	0.033384411
2020-01-21T12:15:00	0.2259	0.745		0.554531424	0.674549458	0.010529067	0.108626441	0.033479724
2020-01-21T12:20:00	0.2256	0.765		0.553699590	0.673362318	0.010500023	0.108326802	0.033387372
2020-01-21T12:25:00	0.2258	0.788		0.554220065	0.674105039	0.010518191	0.108514236	0.033445141
2020-01-21T12:30:00	0.2260	0.814		0.555078456	0.675330456	0.010548189	0.108823719	0.033540527
2020-01-21T12:35:00	0.2250	0.845		0.551541232	0.670284700	0.010424853	0.107551286	0.033148351
2020-01-21T12:40:00	0.2251	0.877		0.552062030	0.671026960	0.010442966	0.107738155	0.033205946
2020-01-21T12:45:00	0.2246	0.908		0.550214400	0.668394660	0.010378779	0.107075946	0.033001846
2020-01-21T12:50:00	0.2241	0.936		0.548704402	0.666245460	0.010326470	0.106536282	0.032835517
2020-01-21T12:55:00	0.2240	0.959		0.548209834	0.665541943	0.010309366	0.106359827	0.032781132
2020-01-21T13:00:00	0.2236	0.978		0.547037741	0.663875451	0.010268889	0.105942231	0.032652425
2020-01-21T13:05:00	0.2229	0.991		0.544509485	0.660284589	0.010181852	0.105044287	0.032375670
2020-01-21T13:10:00	0.2223	1.000		0.542657828	0.657658016	0.010118345	0.104389098	0.032173734
2020-01-21T13:15:00	0.2213	1.006		0.539107910	0.652630302	0.009997153	0.103138786	0.031788376
2020-01-21T13:20:00	0.2214	1.010		0.539291076	0.652889466	0.010003388	0.103203113	0.031808202
2020-01-21T13:25:00	0.2211	1.012		0.538455579	0.651707532	0.009974963	0.102909857	0.031717817
2020-01-21T13:30:00	0.2204	1.013		0.535921046	0.648125545	0.009888984	0.102022821	0.031444424
2020-01-21T13:35:00	0.2201	1.015		0.535084733	0.646944758	0.009860695	0.101730977	0.031354475
2020-01-21T13:40:00	0.2203	1.014		0.535608010	0.647683505	0.009878390	0.101913533	0.031410741
2020-01-21T13:45:00	0.2199	1.015		0.534431642	0.646023057	0.009838633	0.101503365	0.031284323
2020-01-21T13:50:00	0.2203	1.015		0.535634842	0.647721391	0.009879298	0.101922898	0.031413627
2020-01-21T13:55:00	0.2206	1.015		0.536837623	0.649420314	0.009920034	0.102343157	0.031543155
2020-01-21T14:00:00	0.2207	1.014		0.537020909	0.649679309	0.009926248	0.102407275	0.031562917
2020-01-21T14:05:00	0.2206	1.013		0.536864445	0.649458213	0.009920943	0.102352539	0.031546047
2020-01-21T14:10:00	0.2206	1.010		0.536707974	0.649237128	0.009915639	0.102297815	0.031529180
2020-01-21T14:15:00	0.2209	1.008		0.537910382	0.650936576	0.009956437	0.102718721	0.031658908
2020-01-21T14:20:00	0.2206	1.007		0.536734797	0.649275026	0.009916548	0.102307195	0.031532071
2020-01-21T14:25:00	0.2200	1.003		0.534539004	0.646174552	0.009842258	0.101540764	0.031295850
2020-01-21T14:30:00	0.2197	1.000		0.533702356	0.644994235	0.009814026	0.101249501	0.031206080
2020-01-21T14:35:00	0.2201	0.995		0.534905811	0.646692212	0.009854649	0.101668595	0.031335248
2020-01-21T14:40:00	0.2204	0.992		0.536108845	0.648390778	0.009895341	0.102088414	0.031464641
2020-01-21T14:45:00	0.2203	0.987		0.535612476	0.647689810	0.009878542	0.101915092	0.031411221
2020-01-21T14:50:00	0.2211	0.984		0.538513660	0.651789677	0.009976938	0.102930229	0.031724096
2020-01-21T14:55:00	0.2202	0.979		0.535299413	0.647247809	0.009867953	0.101805853	0.031377553
2020-01-21T15:00:00	0.2201	0.975		0.535142870	0.647026824	0.009862661	0.101751252	0.031360724
2020-01-21T15:05:00	0.2198	0.971		0.533966344	0.645366598	0.009822930	0.101341358	0.031234391
2020-01-21T15:10:00	0.2203	0.966		0.535849487	0.648024490	0.009886562	0.101997833	0.031436723
2020-01-21T15:15:00	0.2208	0.959		0.537391916	0.650203648	0.009938835	0.102537124	0.031602938
2020-01-21T15:20:00	0.2210	0.954		0.538254482	0.651423135	0.009968128	0.102839335	0.031696082
2020-01-21T15:25:00	0.2212	0.947		0.538777279	0.652162557	0.009985903	0.103022722	0.031752604
2020-01-21T15:30:00	0.2223	0.939		0.542354315	0.657227751	0.010107954	0.104281901	0.032140695
2020-01-21T15:35:00	0.2230	0.932		0.544910903	0.660854371	0.010195646	0.105186598	0.032419531
2020-01-21T15:40:00	0.2230	0.924		0.544754795	0.660632772	0.010190280	0.105131243	0.032402470
2020-01-21T15:45:00	0.2226	0.915		0.543581533	0.658967940	0.010150000	0.104715682	0.032274390
2020-01-21T15:50:00	0.2216	0.907		0.540032563	0.653938887	0.010028649	0.103463724	0.031888525
2020-01-21T15:55:00	0.2218	0.895		0.540894471	0.655159303	0.010058053	0.103767078	0.031982021
2020-01-21T16:00:00	0.2208	0.883		0.537342743	0.650134146	0.009937166	0.102519909	0.031597632
2020-01-21T16:05:00	0.2214	0.872		0.539512455	0.653202735	0.010010927	0.103280886	0.031832172
2020-01-21T16:10:00	0.2226	0.861		0.543376816	0.658677566	0.010142980	0.104643258	0.032252068
2020-01-21T16:15:00	0.2229	0.852		0.544525880	0.660307859	0.010182415	0.105050098	0.032377460
2020-01-21T16:20:00	0.2232	0.842		0.545674564	0.661938692	0.010221914	0.105457601	0.032503057
2020-01-21T16:25:00	0.2226	0.832		0.543433393	0.658757812	0.010144920	0.104663271	0.032258237
2020-01-21T16:30:00	0.2241	0.817		0.548648064	0.666165310	0.010324520	0.106516174	0.032829319
2020-01-21T16:35:00	0.2248	0.805		0.550810711	0.669243912	0.010399473	0.107289443	0.033067648
2020-01-21T16:40:00	0.2248	0.795		0.550942325	0.669431393	0.010404043	0.107336594	0.033082181
2020-01-21T16:45:00	0.2252	0.783		0.552427139	0.671547459	0.010455674	0.107869258	0.033246353
2020-01-21T16:50:00	0.2253	0.774		0.552558692	0.671735027	0.010460254	0.107916516	0.033260918
2020-01-21T16:55:00	0.2250	0.760		0.551675462	0.670475988	0.010429520	0.107599434	0.033163191
2020-01-21T17:00:00	0.2235	0.751		0.546728894	0.663436518	0.010258236	0.105832333	0.032618553
2020-01-21T17:05:00	0.2224	0.738		0.542792940	0.657849577	0.010122972	0.104436836	0.032188447
2020-01-21T17:10:00	0.2217	0.725		0.540549903	0.654671340	0.010046293	0.103645751	0.031944627
2020-01-21T17:15:00	0.2222	0.715		0.542039172	0.656781078	0.010097171	0.104170655	0.032106407
2020-01-21T17:20:00	0.2238	0.707		0.547594662	0.664667146	0.010288111	0.106140549	0.032713548
2020-01-21T17:25:00	0.2230	0.698		0.545015790	0.661003272	0.010199252	0.105223799	0.032430997
2020-01-21T17:30:00	0.2230	0.686		0.544808662	0.660709235	0.010192132	0.105150343	0.032408357
2020-01-21T17:35:00	0.2246	0.679		0.550359721	0.668601596	0.010383820	0.107127955	0.033017876
2020-01-21T17:40:00	0.2265	0.674		0.556577653	0.677472123	0.010600685	0.109365309	0.033707450
2020-01-21T17:45:00	0.2276	0.665		0.560423082	0.682973938	0.010735941	0.110760724	0.034137531
2020-01-21T17:50:00	0.2287	0.656		0.564264273	0.688481851	0.010871918	0.112163575	0.034569903
2020-01-21T17:55:00	0.2297	0.646		0.567427742	0.693027111	0.010984558	0.113325657	0.034928068
2020-01-21T18:00:00	0.2299	0.631		0.568232206	0.694184280	0.011013296	0.113622145	0.035019449
2020-01-21T18:05:00	0.2298	0.616		0.567689713	0.693403880	0.010993912	0.113422164	0.034957813
2020-01-21T18:10:00	0.2291	0.605		0.565462680	0.690202744	0.010914520	0.112603086	0.034705365
2020-01-21T18:15:00	0.2289	0.593		0.564919757	0.689422968	0.010895209	0.112403863	0.034643962
2020-01-21T18:20:00	0.2296	0.584		0.567072326	0.692516039	0.010971873	0.113194793	0.034887735
2020-01-21T18:25:00	0.2296	0.579		0.567203327	0.692704401	0.010976548	0.113243019	0.034902598
2020-01-21T18:30:00	0.2294	0.569		0.566660675	0.691924233	0.010957191	0.113043320	0.034841049
2020-01-21T18:35:00	0.2298	0.559		0.567802078	0.693565502	0.010997926	0.113463571	0.034970574
2020-01-21T18:40:00	0.2302	0.547		0.569279730	0.695691876	0.011050775	0.114008804	0.035138621
2020-01-21T18:45:00	0.2300	0.538		0.568400726	0.694426753	0.011019321	0.113684303	0.035038606
2020-01-21T18:50:00	0.2302	0.529		0.569204966	0.695584246	0.011048098	0.113981185	0.035130108
2020-01-21T18:55:00	0.2306	0.517		0.570682025	0.697711479	0.011101048	0.114527464	0.035298477
2020-01-21T19:00:00	0.2306	0.505		0.570476417	0.697415259	0.011093669	0.114451342	0.035275015
2020-01-21T19:05:00	0.2298	0.496		0.567914440	0.693727130	0.011001940	0.113504984	0.034983338
2020-01-21T19:10:00	0.2300	0.484		0.568382116	0.694399975	0.011018656	0.113677438	0.035036491
2020-01-21T19:15:00	0.2304	0.472		0.569859523	0.696526704	0.011071546	0.114223104	0.035204670
2020-01-21T19:20:00	0.2302	0.464		0.569317282	0.695745938	0.011052119	0.114022678	0.035142897
2020-01-21T19:25:00	0.2300	0.454		0.568438288	0.694480802	0.011020664	0.113698161	0.035042877
2020-01-21T19:30:00	0.2291	0.443		0.565537867	0.690310752	0.010917195	0.112630690	0.034713872
2020-01-21T19:35:00	0.2293	0.432		0.566005862	0.690983137	0.010933857	0.112802584	0.034766852
2020-01-21T19:40:00	0.2290	0.424		0.565126034	0.689719207	0.010902544	0.112479534	0.034667285
2020-01-21T19:45:00	0.2290	0.414		0.565257109	0.689907463	0.010907206	0.112527631	0.034682109
2020-01-21T19:50:00	0.2294	0.404		0.566398970	0.691548069	0.010947862	0.112947075	0.034811385
2020-01-21T19:55:00	0.2293	0.391		0.566193111	0.691252215	0.010940527	0.112871397	0.034788061
2020-01-21T20:00:00	0.2303	0.383		0.569691416	0.696284623	0.011065522	0.114160948	0.035185513
2020-01-21T20:05:00	0.2282	0.370		0.562410312	0.685821923	0.010806180	0.111485365	0.034360872
2020-01-21T20:10:00	0.2283	0.353		0.562878726	0.686493702	0.010822770	0.111656521	0.034413624
2020-01-21T20:15:00	0.2279	0.342		0.561323431	0.684263864	0.010767735	0.111088738	0.034238628
2020-01-21T20:20:00	0.2284	0.337		0.563141038	0.686869977	0.010832066	0.111752427	0.034443183
2020-01-21T20:25:00	0.2289	0.329		0.564957700	0.689477456	0.010896558	0.112417780	0.034648252
2020-01-21T20:30:00	0.2286	0.317		0.563740486	0.687730071	0.010853325	0.111971753	0.034510782
2020-01-21T20:35:00	0.2290	0.299		0.565219856	0.689853957	0.010905881	0.112513960	0.034677895
2020-01-21T20:40:00	0.2286	0.290		0.563665603	0.687622613	0.010850668	0.111944343	0.034502334
2020-01-21T20:45:00	0.2287	0.275		0.564133849	0.688294635	0.010867287	0.112115795	0.034555177
2020-01-21T20:50:00	0.2277	0.262		0.560892451	0.683646318	0.010752510	0.110931662	0.034190216
2020-01-21T20:55:00	0.2278	0.254		0.561023684	0.683834344	0.010757145	0.110979480	0.034204953
2020-01-21T21:00:00	0.2281	0.243		0.562166932	0.685472949	0.010797565	0.111396487	0.034333479
2020-01-21T21:05:00	0.2277	0.232		0.560611319	0.683243569	0.010742584	0.110829261	0.034158655
2020-01-21T21:10:00	0.2276	0.218		0.560405118	0.682948207	0.010735307	0.110754184	0.034135515
2020-01-21T21:15:00	0.2278	0.210		0.561211201	0.684103036	0.010763769	0.111047823	0.034226018
2020-01-21T21:20:00	0.2270	0.201		0.558304764	0.679941667	0.010661325	0.109990926	0.033900272
2020-01-21T21:25:00	0.2254	0.187		0.553029467	0.672406376	0.010476655	0.108085719	0.033313068
2020-01-21T21:30:00	0.2242	0.173		0.549100657	0.666809274	0.010340184	0.106677768	0.032879124
2020-01-21T21:35:00	0.2247	0.163		0.550586258	0.668924218	0.010391681	0.107209057	0.033042873
2020-01-21T21:40:00	0.2274	0.155		0.559842751	0.682142855	0.010715473	0.110549560	0.034072448
2020-01-21T21:45:00	0.2273	0.150		0.559298953	0.681364341	0.010696312	0.110351875	0.034011520
2020-01-21T21:50:00	0.2277	0.145		0.560780207	0.683485510	0.010748546	0.110890772	0.034177613
2020-01-21T21:55:00	0.2285	0.134		0.563609698	0.687542391	0.010848685	0.111923882	0.034496027
2020-01-21T22:00:00	0.2291	0.129		0.565426116	0.690150222	0.010913218	0.112589663	0.034701228
2020-01-21T22:05:00	0.2299	0.121		0.568108833	0.694006781	0.011008886	0.113576650	0.035005426
2020-01-21T22:10:00	0.2290	0.109		0.565065000	0.689631551	0.010900373	0.112457141	0.034660383
2020-01-21T22:15:00	0.2303	0.101		0.569431349	0.695910161	0.011056205	0.114064825	0.035155887
2020-01-21T22:20:00	0.2302	0.091		0.569082695	0.695408234	0.011043720	0.113936024	0.035116189
2020-01-21T22:25:00	0.2316	0.084		0.573780222	0.702179308	0.011212533	0.115677632	0.035652970
2020-01-21T22:30:00	0.2307	0.076		0.570741323	0.697796916	0.011103176	0.114549422	0.035305244
2020-01-21T22:35:00	0.2311	0.066		0.572074882	0.699719099	0.011151098	0.115043820	0.035457623
2020-01-21T22:40:00	0.2324	0.054		0.576432499	0.706010401	0.011308423	0.116666916	0.035957876
2020-01-21T22:45:00	0.2318	0.042		0.574740479	0.703565682	0.011247202	0.116035306	0.035763208
2020-01-21T22:50:00	0.2305	0.025		0.570356668	0.697242751	0.011089373	0.114407019	0.035261354
2020-01-21T22:55:00	0.2296	0.008		0.567314793	0.692864684	0.010980526	0.113284061	0.034915248
2020-01-21T23:00:00	0.2305	-0.002		0.570332580	0.697208052	0.011088509	0.114398104	0.035258607
2020-01-21T23:05:00	0.2302	-0.009		0.569310877	0.695736718	0.011051890	0.114020312	0.035142167
2020-01-21T23:10:00	0.2306	-0.018		0.570644982	0.697658108	0.011099718	0.114513747	0.035294249
2020-01-21T23:15:00	0.2298	-0.030		0.567940108	0.693764054	0.011002857	0.113514446	0.034986255
2020-01-21T23:20:00	0.2313	-0.040		0.572975434	0.701017980	0.011183519	0.115378300	0.035560713
2020-01-21T23:25:00	0.2322	-0.052		0.575988347	0.705368438	0.011292336	0.116500950	0.035906724
2020-01-21T23:30:00	0.2326	-0.060		0.577319911	0.707293530	0.011340600	0.116998876	0.036060190
2020-01-21T23:35:00	0.2326	-0.068		0.577307891	0.707276146	0.011340163	0.116994376	0.036058803
2020-01-21T23:40:00	0.2328	-0.076		0.577967477	0.708230272	0.011364109	0.117241419	0.036134944
2020-01-21T23:45:00	0.2323	-0.082		0.576276198	0.705784470	0.011302761	0.116608497	0.035939871
2020-01-21T23:50:00	0.2323	-0.094		0.576264175	0.705767091	0.011302325	0.116604004	0.035938486
2020-01-21T23:55:00	0.2314	-0.102		0.573227431	0.701381560	0.011192599	0.115471985	0.035589587
2020-01-22T00:00:00	0.2314	-0.111		0.573215397	0.701364196	0.011192166	0.115467510	0.035588208
2020-01-22T00:05:00	0.2310	-0.121		0.571858194	0.699406667	0.011143304	0.114963412	0.035432840
2020-01-22T00:10:00	0.2312	-0.130		0.572518807	0.700359295	0.011167074	0.115208639	0.035508422
2020-01-22T00:15:00	0.2325	-0.139		0.576875872	0.706651402	0.011324493	0.116832711	0.036008976
2020-01-22T00:20:00	0.2339	-0.150		0.581562973	0.713437693	0.011495094	0.118592765	0.036551442
2020-01-22T00:25:00	0.2324	-0.159		0.576515935	0.706131016	0.011311446	0.116698107	0.035967490
2020-01-22T00:30:00	0.2333	-0.173		0.579525809	0.710485914	0.011420785	0.117826137	0.036315160
2020-01-22T00:35:00	0.2313	-0.183		0.572794908	0.700757550	0.011177016	0.115311210	0.035540035
2020-01-22T00:40:00	0.2314	-0.191		0.573119124	0.701225289	0.011188696	0.115431715	0.035577176
2020-01-22T00:45:00	0.2320	-0.203		0.575123929	0.704119504	0.011261061	0.116178290	0.035807277
2020-01-22T00:50:00	0.2319	-0.209		0.574775841	0.703616752	0.011248479	0.116048488	0.035767271
2020-01-22T00:55:00	0.2324	-0.222		0.576443799	0.706026736	0.011308832	0.116671140	0.035959178
2020-01-22T01:00:00	0.2321	-0.230		0.575423878	0.704552807	0.011271908	0.116290199	0.035841769
2020-01-22T01:05:00	0.2319	-0.237		0.575075819	0.704050012	0.011259322	0.116160345	0.035801746
2020-01-22T01:10:00	0.2315	-0.249		0.573719338	0.702091432	0.011210336	0.115654973	0.035645986
2020-01-22T01:15:00	0.2319	-0.257		0.575051764	0.704015266	0.011258452	0.116151373	0.035798981
2020-01-22T01:20:00	0.2341	-0.265		0.582425085	0.714687901	0.011526615	0.118917962	0.036651671
2020-01-22T01:25:00	0.2336	-0.270		0.580735953	0.712238954	0.011464897	0.118281233	0.036455425
2020-01-22T01:30:00	0.2341	-0.280		0.582401080	0.714653081	0.011525737	0.118908901	0.036648878
2020-01-22T01:35:00	0.2326	-0.288		0.577355248	0.707344637	0.011341882	0.117012104	0.036064267
2020-01-22T01:40:00	0.2324	-0.300		0.576671503	0.706355918	0.011317084	0.116756274	0.035985418
2020-01-22T01:45:00	0.2324	-0.315		0.576659481	0.706338537	0.011316649	0.116751778	0.035984032
2020-01-22T01:50:00	0.2312	-0.325		0.572614372	0.700497134	0.011170514	0.115244136	0.035519362
2020-01-22T01:55:00	0.2300	-0.332		0.568564586	0.694662543	0.011025181	0.113744760	0.035057240
2020-01-22T02:00:00	0.2304	-0.340		0.569898975	0.696583521	0.011072961	0.114237693	0.035209167
2020-01-22T02:05:00	0.2271	-0.350		0.558763215	0.680597604	0.010677451	0.110157296	0.033951548
2020-01-22T02:10:00	0.2265	-0.372		0.556724813	0.677682447	0.010605845	0.109418545	0.033723858
2020-01-22T02:15:00	0.2269	-0.381		0.558063736	0.679596881	0.010652852	0.109903509	0.033873329
2020-01-22T02:20:00	0.2278	-0.384		0.561089528	0.683928688	0.010759471	0.111003475	0.034212349
2020-01-22T02:25:00	0.2286	-0.389		0.563775578	0.687780431	0.010854570	0.111984599	0.034514741
2020-01-22T02:30:00	0.2280	-0.395		0.561740106	0.684861058	0.010782465	0.111240707	0.034285466
2020-01-22T02:35:00	0.2267	-0.406		0.557339940	0.678561792	0.010627428	0.109641211	0.033792486
2020-01-22T02:40:00	0.2279	-0.417		0.561378608	0.684342938	0.010769685	0.111108856	0.034244828
2020-01-22T02:45:00	0.2267	-0.420		0.557315762	0.678527223	0.010626579	0.109632455	0.033789787
2020-01-22T02:50:00	0.2274	-0.422		0.559667204	0.681891510	0.010709286	0.110485724	0.034052773
2020-01-22T02:55:00	0.2264	-0.426		0.556278148	0.677044121	0.010590187	0.109257003	0.033674069
2020-01-22T03:00:00	0.2258	-0.430		0.554238291	0.674131052	0.010518827	0.108520802	0.033447165
2020-01-22T03:05:00	0.2264	-0.437		0.556253963	0.677009563	0.010589339	0.109248260	0.033671375
2020-01-22T03:10:00	0.2280	-0.445		0.561643517	0.684722610	0.010779050	0.111205469	0.034274606
2020-01-22T03:15:00	0.2293	-0.451		0.566014143	0.690995036	0.010934152	0.112805626	0.034767790
2020-01-22T03:20:00	0.2305	-0.456		0.570042792	0.696790646	0.011078116	0.114290885	0.035225561
2020-01-22T03:25:00	0.2301	-0.463		0.569021004	0.695319434	0.011041512	0.113913242	0.035109167
2020-01-22T03:30:00	0.2289	-0.473		0.564967052	0.689490887	0.010896890	0.112421210	0.034649309
2020-01-22T03:35:00	0.2285	-0.485		0.563606643	0.687538007	0.010848576	0.111922764	0.034495683
2020-01-22T03:40:00	0.2292	-0.490		0.565953849	0.690908398	0.010932004	0.112783473	0.034760962
2020-01-22T03:45:00	0.2293	-0.496		0.566278700	0.691375216	0.010943576	0.112902858	0.034797757
2020-01-22T03:50:00	0.2301	-0.508		0.568960762	0.695232722	0.011039356	0.113890997	0.035102311
2020-01-22T03:55:00	0.2300	-0.515		0.568612061	0.694730862	0.011026879	0.113762279	0.035062639
2020-01-22T04:00:00	0.2268	-0.523		0.557809916	0.679233848	0.010643933	0.109811490	0.033844968
2020-01-22T04:05:00	0.2269	-0.534		0.558096782	0.679644150	0.010654013	0.109915492	0.033877022
2020-01-22T04:10:00	0.2278	-0.542		0.561083834	0.683920530	0.010759270	0.111001400	0.034211710
2020-01-22T04:15:00	0.2289	-0.545		0.564742479	0.689168405	0.010888907	0.112338850	0.034623925
2020-01-22T04:20:00	0.2279	-0.548		0.561319648	0.684258442	0.010767601	0.111087358	0.034238203
2020-01-22T04:25:00	0.2268	-0.555		0.557893454	0.679353324	0.010646868	0.109841771	0.033854301
2020-01-22T04:30:00	0.2267	-0.559		0.557504894	0.678797652	0.010633219	0.109700961	0.033810902
2020-01-22T04:35:00	0.2252	-0.562		0.552384156	0.671486176	0.010454177	0.107853820	0.033241595
2020-01-22T04:40:00	0.2242	-0.565		0.548949147	0.666593682	0.010334939	0.106623659	0.032862447
2020-01-22T04:45:00	0.2226	-0.570		0.543476679	0.658819210	0.010146404	0.104678584	0.032262956
2020-01-22T04:50:00	0.2206	-0.578		0.536636701	0.649136430	0.009913223	0.102272893	0.031521499
2020-01-22T04:55:00	0.2208	-0.587		0.537265058	0.650024348	0.009934530	0.102492716	0.031589250
2020-01-22T05:00:00	0.2197	-0.594		0.533815018	0.645153141	0.009817826	0.101288697	0.031218160
2020-01-22T05:05:00	0.2189	-0.597		0.531042255	0.641245234	0.009724535	0.100326235	0.030921520
2020-01-22T05:10:00	0.2180	-0.598		0.527926640	0.636861582	0.009620244	0.099250282	0.030589901
2020-01-22T05:15:00	0.2169	-0.602		0.524126243	0.631525132	0.009493796	0.097945740	0.030187828
2020-01-22T05:20:00	0.2175	-0.603		0.526120423	0.634323860	0.009560042	0.098629190	0.030398474
2020-01-22T05:25:00	0.2174	-0.608		0.525728281	0.633773254	0.009546997	0.098494606	0.030356994
2020-01-22T05:30:00	0.2198	-0.609		0.533847949	0.645199591	0.009818936	0.101300156	0.031221692
2020-01-22T05:35:00	0.2184	-0.609		0.529373154	0.638895836	0.009668594	0.099749098	0.030743641
2020-01-22T05:40:00	0.2146	-0.615		0.516358486	0.620654247	0.009237957	0.095306296	0.029374326
2020-01-22T05:45:00	0.2159	-0.626		0.520747459	0.626790551	0.009382081	0.096793203	0.029832605
2020-01-22T05:50:00	0.2142	-0.628		0.514888128	0.618602000	0.009189923	0.094810743	0.029221592
2020-01-22T05:55:00	0.2124	-0.626		0.508676232	0.609951060	0.008988377	0.092731425	0.028580726
2020-01-22T06:00:00	0.2121	-0.624		0.507596837	0.608451028	0.008953583	0.092372468	0.028470092
2020-01-22T06:05:00	0.2100	-0.624		0.500685033	0.598867973	0.008732384	0.090090391	0.027766733
2020-01-22T06:10:00	0.2088	-0.628		0.496510523	0.593098731	0.008600122	0.088725873	0.027346176
2020-01-22T06:15:00	0.2081	-0.633		0.494051452	0.589706805	0.008522681	0.087926929	0.027099933
2020-01-22T06:20:00	0.2069	-0.635		0.489868797	0.583948591	0.008391761	0.086576252	0.026683642
2020-01-22T06:25:00	0.2046	-0.639		0.481885263	0.572996616	0.008144663	0.084026988	0.025897934
2020-01-22T06:30:00	0.2018	-0.646		0.472152054	0.559713207	0.007848358	0.080970059	0.024955759
2020-01-22T06:35:00	0.2024	-0.647		0.474176850	0.562470335	0.007909551	0.081601379	0.025150338
2020-01-22T06:40:00	0.2030	-0.644		0.476546255	0.565700855	0.007981457	0.082343222	0.025378981
2020-01-22T06:45:00	0.2031	-0.640		0.476839994	0.566101659	0.007990394	0.082435420	0.025407397
2020-01-22T06:50:00	0.2025	-0.638		0.474712633	0.563200447	0.007925783	0.081768839	0.025201950
2020-01-22T06:55:00	0.2016	-0.638		0.471545143	0.558887423	0.007830061	0.080781299	0.024897581
2020-01-22T07:00:00	0.2038	-0.637		0.479103511	0.569192512	0.008059425	0.083147601	0.025626898
2020-01-22T07:05:00	0.2070	-0.635		0.490091049	0.584254209	0.008398692	0.086647760	0.026705681
2020-01-22T07:10:00	0.2087	-0.630		0.495889496	0.592241658	0.008580532	0.088523764	0.027283884
2020-01-22T07:15:00	0.2092	-0.625		0.497900181	0.595017707	0.008644039	0.089178958	0.027485821
2020-01-22T07:20:00	0.2116	-0.622		0.506085903	0.606352866	0.008904993	0.091871168	0.028315586
2020-01-22T07:25:00	0.2131	-0.619		0.511172718	0.613424021	0.009069107	0.093564306	0.028837428
2020-01-22T07:30:00	0.2163	-0.613		0.522057632	0.628625354	0.009425321	0.097239303	0.029970098
2020-01-22T07:35:00	0.2198	-0.607		0.533928484	0.645313192	0.009821653	0.101328182	0.031230330
2020-01-22T07:40:00	0.2205	-0.602		0.536256838	0.648599810	0.009900353	0.102140119	0.031480577
2020-01-22T07:45:00	0.2223	-0.596		0.542656291	0.657655837	0.010118292	0.104388555	0.032173566
2020-01-22T07:50:00	0.2250	-0.592		0.551751407	0.670584223	0.010432161	0.107626680	0.033171588
2020-01-22T07:55:00	0.2251	-0.586		0.552038773	0.670993809	0.010442157	0.107729807	0.033203373
2020-01-22T08:00:00	0.2257	-0.580		0.554016931	0.673815140	0.010511098	0.108441064	0.033422589
2020-01-22T08:05:00	0.2254	-0.569		0.552951635	0.672295371	0.010473943	0.108057736	0.033304444
2020-01-22T08:10:00	0.2251	-0.558		0.551886012	0.670776069	0.010436842	0.107674979	0.033186474
2020-01-22T08:15:00	0.2247	-0.548		0.550481654	0.668775241	0.010388051	0.107171604	0.033031329
2020-01-22T08:20:00	0.2240	-0.538		0.548399539	0.665811771	0.010315925	0.106427494	0.032801987
2020-01-22T08:25:00	0.2230	-0.529		0.544960583	0.660924897	0.010197354	0.105204218	0.032424962
2020-01-22T08:30:00	0.2237	-0.521		0.547281530	0.664221979	0.010277301	0.106029020	0.032679174
2020-01-22T08:35:00	0.2235	-0.511		0.546552990	0.663186558	0.010252172	0.105769766	0.032599269
2020-01-22T08:40:00	0.2234	-0.502		0.546163160	0.662632699	0.010238738	0.105631175	0.032556554
2020-01-22T08:45:00	0.2222	-0.490		0.542043552	0.656787286	0.010097321	0.104172200	0.032106884
2020-01-22T08:50:00	0.2203	-0.479		0.535540642	0.647588383	0.009876111	0.101890021	0.031403494
2020-01-22T08:55:00	0.2197	-0.461		0.533789597	0.645117284	0.009816968	0.101279853	0.031215434
2020-01-22T09:00:00	0.2203	-0.437		0.535778197	0.647923817	0.009884149	0.101972942	0.031429051
2020-01-22T09:05:00	0.2190	-0.400		0.531305906	0.641616552	0.009733386	0.100417553	0.030949665
2020-01-22T09:10:00	0.2149	-0.364		0.517273628	0.621932436	0.009267916	0.095615378	0.029469588
2020-01-22T09:15:00	0.2145	-0.332		0.515855118	0.619951476	0.009221499	0.095136501	0.029321993
2020-01-22T09:20:00	0.2132	-0.302		0.511356834	0.613680351	0.009075075	0.093625879	0.028856405
2020-01-22T09:25:00	0.2119	-0.255		0.507195353	0.607893326	0.008940659	0.092239130	0.028428996
2020-01-22T09:30:00	0.2105	-0.203		0.502342492	0.601162495	0.008785176	0.090635041	0.027934600
2020-01-22T09:35:00	0.2143	-0.163		0.515307415	0.619187040	0.009203608	0.094951923	0.029265105
2020-01-22T09:40:00	0.2155	-0.121		0.519356260	0.624843800	0.009336276	0.096320639	0.029686957
2020-01-22T09:45:00	0.2155	-0.077		0.519304856	0.624771899	0.009334586	0.096303201	0.029681582
2020-01-22T09:50:00	0.2156	-0.034		0.519594934	0.625177673	0.009344126	0.096401630	0.029711919
2020-01-22T09:55:00	0.2152	0.011		0.518177383	0.623195386	0.009297550	0.095921106	0.029563816
2020-01-22T10:00:00	0.2163	0.049		0.522222847	0.628856825	0.009430781	0.097295630	0.029987458
2020-01-22T10:05:00	0.2157	0.086		0.520084451	0.625862587	0.009360238	0.096567847	0.029763148
2020-01-22T10:10:00	0.2156	0.122		0.519652443	0.625258128	0.009346019	0.096421150	0.029717935
2020-01-22T10:15:00	0.2154	0.157		0.518878862	0.624176123	0.009320584	0.096158744	0.029637059
2020-01-22T10:20:00	0.2137	0.189		0.513319191	0.616414090	0.009138808	0.094283393	0.029059057
2020-01-22T10:25:00	0.2132	0.225		0.511517525	0.613904091	0.009080286	0.093679634	0.028872973
2020-01-22T10:30:00	0.2132	0.257		0.511426732	0.613777673	0.009077342	0.093649260	0.028863611
2020-01-22T10:35:00	0.2132	0.284		0.511335937	0.613651258	0.009074398	0.093618889	0.028854251
2020-01-22T10:40:00	0.2134	0.310		0.512271877	0.614954701	0.009104766	0.093932190	0.028950813
2020-01-22T10:45:00	0.2146	0.334		0.516285088	0.620551760	0.009235556	0.095281528	0.029366692
2020-01-22T10:50:00	0.2147	0.361		0.516536208	0.620902419	0.009243771	0.095366280	0.029392814
2020-01-22T10:55:00	0.2158	0.395		0.520544437	0.626506358	0.009375390	0.096724168	0.029811328
2020-01-22T11:00:00	0.2167	0.424		0.523524925	0.630681846	0.009473865	0.097740124	0.030124455
2020-01-22T11:05:00	0.2160	0.444		0.521046036	0.627208564	0.009391926	0.096894774	0.029863910
2020-01-22T11:10:00	0.2155	0.469		0.519248424	0.624692967	0.009332730	0.096284058	0.029675682
2020-01-22T11:15:00	0.2156	0.498		0.519840784	0.625521633	0.009352216	0.096485091	0.029737642
2020-01-22T11:20:00	0.2142	0.528		0.514966591	0.618711470	0.009192483	0.094837155	0.029229732
2020-01-22T11:25:00	0.2136	0.557		0.512823669	0.615723491	0.009122693	0.094117145	0.029007818
2020-01-22T11:30:00	0.2126	0.589		0.509309718	0.610831851	0.009008828	0.092942417	0.028645756
2020-01-22T11:35:00	0.2126	0.620		0.509561350	0.611181807	0.009016958	0.093026293	0.028671607
2020-01-22T11:40:00	0.2119	0.646		0.507072344	0.607722481	0.008936701	0.092198297	0.028416410
2020-01-22T11:45:00	0.2119	0.671		0.506981434	0.607596224	0.008933776	0.092168124	0.028407111
2020-01-22T11:50:00	0.2118	0.696		0.506547771	0.606994044	0.008919832	0.092024263	0.028362772
2020-01-22T11:55:00	0.2110	0.723		0.504056570	0.603537724	0.008839939	0.091200017	0.028108731
2020-01-22T12:00:00	0.2099	0.755		0.500190205	0.598183381	0.008716653	0.089928105	0.027716715
2020-01-22T12:05:00	0.2107	0.793		0.502845325	0.601859035	0.008801223	0.090800598	0.027985626
2020-01-22T12:10:00	0.2100	0.825		0.500694794	0.598881479	0.008732694	0.090093594	0.027767721
2020-01-22T12:15:00	0.2112	0.853		0.504721599	0.604459903	0.008861231	0.091419688	0.028176436
2020-01-22T12:20:00	0.2102	0.878		0.501199309	0.599579679	0.008748747	0.090259210	0.027818765
2020-01-22T12:25:00	0.2097	0.908		0.499391243	0.597078436	0.008691285	0.089666382	0.027636050
2020-01-22T12:30:00	0.2096	0.939		0.499300128	0.596952458	0.008688394	0.089636559	0.027626858
2020-01-22T12:35:00	0.2086	0.966		0.495772232	0.592079859	0.008576835	0.088485627	0.027272130
2020-01-22T12:40:00	0.2091	0.990		0.497399889	0.594326675	0.008628216	0.089015710	0.027435506
2020-01-22T12:45:00	0.2100	1.009		0.500400583	0.598474413	0.008723339	0.089997084	0.027737975
2020-01-22T12:50:00	0.2095	1.024		0.498935643	0.596448582	0.008676835	0.089517307	0.027590103
2020-01-22T12:55:00	0.2097	1.037		0.499531529	0.597272411	0.008695736	0.089712309	0.027650205
2020-01-22T13:00:00	0.2110	1.049		0.503902755	0.603324482	0.008835017	0.091149247	0.028093083
2020-01-22T13:05:00	0.2099	1.061		0.500036215	0.597970377	0.008711761	0.089877632	0.027701159
2020-01-22T13:10:00	0.2105	1.074		0.502348284	0.601170517	0.008785361	0.090636947	0.027935187
2020-01-22T13:15:00	0.2104	1.085		0.501914033	0.600569141	0.008771514	0.090494090	0.027891157
2020-01-22T13:20:00	0.2119	1.097		0.506967731	0.607577195	0.008933336	0.092163577	0.028405709
2020-01-22T13:25:00	0.2118	1.107		0.506534066	0.606975017	0.008919392	0.092019719	0.028361371
2020-01-22T13:30:00	0.2121	1.117		0.507813977	0.608752712	0.008960577	0.092444623	0.028492331
2020-01-22T13:35:00	0.2118	1.125		0.506694984	0.607198446	0.008924564	0.092073086	0.028377819
2020-01-22T13:40:00	0.2119	1.135		0.506946808	0.607548138	0.008932663	0.092156633	0.028403569
2020-01-22T13:45:00	0.2112	1.144		0.504798858	0.604567059	0.008863706	0.091445225	0.028184307
2020-01-22T13:50:00	0.2102	1.155		0.501276647	0.599686727	0.008751209	0.090284611	0.027826594
2020-01-22T13:55:00	0.2090	1.167		0.497063425	0.593862047	0.008617582	0.088906004	0.027401694
2020-01-22T14:00:00	0.2098	1.180		0.499720980	0.597534392	0.008701750	0.089774351	0.027669327
2020-01-22T14:05:00	0.2093	1.190		0.498255748	0.595508957	0.008655294	0.089295071	0.027521608
2020-01-22T14:10:00	0.2094	1.202		0.498508195	0.595857800	0.008663289	0.089377556	0.027547031
2020-01-22T14:15:00	0.2083	1.215		0.494635531	0.590512017	0.008541043	0.088116369	0.027158321
2020-01-22T14:20:00	0.2076	1.225		0.492135610	0.587067547	0.008462589	0.087306969	0.026908856
2020-01-22T14:25:00	0.2072	1.234		0.491011460	0.585520290	0.008427427	0.086944213	0.026797051
2020-01-22T14:30:00	0.2079	1.242		0.493329659	0.588712120	0.008500017	0.087693103	0.027027866
2020-01-22T14:35:00	0.2060	1.248		0.486694053	0.579587308	0.008293061	0.085557983	0.026369801
2020-01-22T14:40:00	0.2048	1.256		0.482462718	0.573787072	0.008162413	0.084210112	0.025954374
2020-01-22T14:45:00	0.2046	1.263		0.482025921	0.573189133	0.008148985	0.084071576	0.025911676
2020-01-22T14:50:00	0.2035	1.273		0.478134412	0.567868698	0.008029834	0.082842318	0.025532807
2020-01-22T14:55:00	0.2017	1.279		0.471815274	0.559254936	0.007838202	0.080865288	0.024923467
2020-01-22T15:00:00	0.2025	1.285		0.474838659	0.563372217	0.007929603	0.081808253	0.025214098
2020-01-22T15:05:00	0.2019	1.291		0.472670316	0.560418606	0.007863998	0.081131420	0.025005492
2020-01-22T15:10:00	0.2029	1.294		0.476038811	0.565008614	0.007966030	0.082184066	0.025329927
2020-01-22T15:15:00	0.2023	1.298		0.473871238	0.562053980	0.007900300	0.081505936	0.025120921
2020-01-22T15:20:00	0.2032	1.302		0.477238537	0.566645577	0.008002527	0.082560596	0.025445977
2020-01-22T15:25:00	0.2035	1.305		0.478183895	0.567936275	0.008031344	0.082857893	0.025537607
2020-01-22T15:30:00	0.2017	1.308		0.471864850	0.559322391	0.007839697	0.080880706	0.024928219
2020-01-22T15:35:00	0.2024	1.312		0.474196172	0.562496663	0.007910136	0.081607416	0.025152198
2020-01-22T15:40:00	0.2019	1.313		0.472719880	0.560486077	0.007865495	0.081146860	0.025010250
2020-01-22T15:45:00	0.2025	1.316		0.474704638	0.563189551	0.007925540	0.081766339	0.025201180
2020-01-22T15:50:00	0.2035	1.320		0.478071108	0.567782250	0.008027903	0.082822396	0.025526667
2020-01-22T15:55:00	0.2029	1.323		0.475904837	0.564825885	0.007961960	0.082142071	0.025316984
2020-01-22T16:00:00	0.2047	1.325		0.482378421	0.573671664	0.008159821	0.084183367	0.025946131
2020-01-22T16:05:00	0.2061	1.328		0.486970045	0.579966130	0.008301619	0.085646268	0.026397012
2020-01-22T16:10:00	0.2067	1.332		0.489144673	0.582953119	0.008369198	0.086343469	0.026611896
2020-01-22T16:15:00	0.2072	1.335		0.490973591	0.585468185	0.008426244	0.086932006	0.026793288
2020-01-22T16:20:00	0.2073	1.338		0.491080334	0.585615057	0.008429579	0.086966417	0.026803894
2020-01-22T16:25:00	0.2063	1.341		0.487742182	0.581026275	0.008325582	0.085893499	0.026473211
2020-01-22T16:30:00	0.2076	1.346		0.492326565	0.587330473	0.008468569	0.087368664	0.026927871
2020-01-22T16:35:00	0.2074	1.349		0.491744818	0.586529554	0.008450357	0.087180778	0.026869962
2020-01-22T16:40:00	0.2081	1.354		0.493916395	0.589520655	0.008518438	0.087883154	0.027086441
2020-01-22T16:45:00	0.2083	1.357		0.494711032	0.590616123	0.008543418	0.088140871	0.027165873
2020-01-22T16:50:00	0.2073	1.361		0.491376443	0.586022534	0.008438835	0.087061909	0.026833326
2020-01-22T16:55:00	0.2074	1.366		0.491483174	0.586169423	0.008442173	0.087096341	0.026843938
2020-01-22T17:00:00	0.2069	1.369		0.489868095	0.583947625	0.008391739	0.086576026	0.026683572
2020-01-22T17:05:00	0.2071	1.374		0.490663678	0.585041815	0.008416564	0.086832138	0.026762508
2020-01-22T17:10:00	0.2070	1.378		0.490081647	0.584241280	0.008398399	0.086644735	0.026704749
2020-01-22T17:15:00	0.2068	1.381		0.489499517	0.583440879	0.008380251	0.086457501	0.026647041
2020-01-22T17:20:00	0.2080	1.384		0.493737493	0.589274095	0.008512819	0.087825184	0.027068575
2020-01-22T17:25:00	0.2092	1.388		0.497626553	0.594639732	0.008635383	0.089089653	0.027458296
2020-01-22T17:30:00	0.2103	1.392		0.501511180	0.600011383	0.008758678	0.090361663	0.027850342
2020-01-22T17:35:00	0.2109	1.396		0.503676546	0.603010913	0.008827783	0.091074606	0.028070078
2020-01-22T17:40:00	0.2131	1.402		0.511321554	0.613631232	0.009073932	0.093614079	0.028852768
2020-01-22T17:45:00	0.2112	1.406		0.504575233	0.604256910	0.008856543	0.091371318	0.028161528
2020-01-22T17:50:00	0.2125	1.410		0.509137053	0.610591747	0.009003251	0.092884884	0.028628023
2020-01-22T17:55:00	0.2117	1.414		0.506502154	0.606930710	0.008918366	0.092009137	0.028358110
2020-01-22T18:00:00	0.2117	1.420		0.506265634	0.606602353	0.008910766	0.091930728	0.028333943
2020-01-22T18:05:00	0.2118	1.425		0.506714666	0.607225776	0.008925197	0.092079615	0.028379832
2020-01-22T18:10:00	0.2117	1.430		0.506478161	0.606897399	0.008917595	0.092001181	0.028355658
2020-01-22T18:15:00	0.2125	1.434		0.508982923	0.610377438	0.008998275	0.092833543	0.028612199
2020-01-22T18:20:00	0.2116	1.439		0.506005101	0.606240711	0.008902398	0.091844398	0.028307335
2020-01-22T18:25:00	0.2115	1.443		0.505768546	0.605912401	0.008894804	0.091766049	0.028283187
2020-01-22T18:30:00	0.2122	1.448		0.507931216	0.608915613	0.008964354	0.092483592	0.028504341
2020-01-22T18:35:00	0.2114	1.452		0.505295388	0.605255848	0.008879623	0.091609433	0.028234917
2020-01-22T18:40:00	0.2114	1.457		0.505401683	0.605403328	0.008883032	0.091644605	0.028245757
2020-01-22T18:45:00	0.2127	1.461		0.509619959	0.611263324	0.009018852	0.093045835	0.028677630
2020-01-22T18:50:00	0.2127	1.467		0.509726120	0.611410988	0.009022284	0.093081236	0.028688541
2020-01-22T18:55:00	0.2123	1.472		0.508462251	0.609653616	0.008981474	0.092660209	0.028558776
2020-01-22T19:00:00	0.2132	1.477		0.511650142	0.614088759	0.009084587	0.093724009	0.028886650
2020-01-22T19:05:00	0.2137	1.483		0.513124951	0.616143358	0.009132489	0.094218208	0.029038967
2020-01-22T19:10:00	0.2132	1.487		0.511520083	0.613907654	0.009080369	0.093680490	0.028873237
2020-01-22T19:15:00	0.2143	1.492		0.515388966	0.619300847	0.009206270	0.094979395	0.029273572
2020-01-22T19:20:00	0.2142	1.497		0.514811135	0.618494586	0.009187411	0.094784830	0.029213605
2020-01-22T19:25:00	0.2149	1.501		0.517309814	0.621982991	0.009269101	0.095627609	0.029473358
2020-01-22T19:30:00	0.2146	1.506		0.516390540	0.620699005	0.009239005	0.095317113	0.029377660
2020-01-22T19:35:00	0.2139	1.510		0.513761217	0.617030302	0.009153194	0.094431818	0.029104803
2020-01-22T19:40:00	0.2138	1.513		0.513525198	0.616701257	0.009145511	0.094352552	0.029080373
2020-01-22T19:45:00	0.2136	1.517		0.512947052	0.615895429	0.009126704	0.094158526	0.029020572
2020-01-22T19:50:00	0.2145	1.521		0.515788949	0.619859110	0.009219336	0.095114192	0.029315118
2020-01-22T19:55:00	0.2144	1.526		0.515553070	0.619529873	0.009211630	0.095034687	0.029290614
2020-01-22T20:00:00	0.2150	1.530		0.517709573	0.622541564	0.009282204	0.095762791	0.029515022
2020-01-22T20:05:00	0.2156	1.533		0.519864722	0.625555126	0.009353004	0.096493220	0.029740147
2020-01-22T20:10:00	0.2153	1.535		0.518604586	0.623792610	0.009311574	0.096065793	0.029608410
2020-01-22T20:15:00	0.2163	1.539		0.522124299	0.628718753	0.009427524	0.097262030	0.029977102
2020-01-22T20:20:00	0.2159	1.542		0.520864991	0.626955089	0.009385956	0.096833179	0.029844926
2020-01-22T20:25:00	0.2159	1.544		0.520629459	0.626625369	0.009378192	0.096753075	0.029820237
2020-01-22T20:30:00	0.2165	1.546		0.522782779	0.629641469	0.009449297	0.097486651	0.030046333
2020-01-22T20:35:00	0.2156	1.549		0.519816923	0.625488247	0.009351431	0.096476989	0.029735145
2020-01-22T20:40:00	0.2157	1.550		0.519922769	0.625636346	0.009354915	0.096512931	0.029746223
2020-01-22T20:45:00	0.2159	1.550		0.520711387	0.626740054	0.009380892	0.096780935	0.029828824
2020-01-22T20:50:00	0.2155	1.553		0.519451561	0.624977108	0.009339410	0.096352974	0.029696922
2020-01-22T20:55:00	0.2154	1.553		0.518874414	0.624169902	0.009320438	0.096157236	0.029636594
2020-01-22T21:00:00	0.2170	1.555		0.524440361	0.631965766	0.009504215	0.098053237	0.030220960
2020-01-22T21:05:00	0.2170	1.555		0.524546065	0.632114061	0.009507723	0.098089424	0.030232113
2020-01-22T21:10:00	0.2161	1.556		0.521240446	0.627480781	0.009398340	0.096960939	0.029884303
2020-01-22T21:15:00	0.2156	1.558		0.519639371	0.625239840	0.009345588	0.096416713	0.029716567
2020-01-22T21:20:00	0.2164	1.560		0.522475735	0.629211171	0.009439141	0.097381880	0.030014041
2020-01-22T21:25:00	0.2176	1.562		0.526673083	0.635100061	0.009578442	0.098819021	0.030456982
2020-01-22T21:30:00	0.2177	1.564		0.526778718	0.635248452	0.009581961	0.098855327	0.030468172
2020-01-22T21:35:00	0.2163	1.565		0.522110656	0.628699640	0.009427073	0.097257379	0.029975669
2020-01-22T21:40:00	0.2162	1.566		0.521875210	0.628369802	0.009419295	0.097177129	0.029950935
2020-01-22T21:45:00	0.2172	1.566		0.525050672	0.632822117	0.009524476	0.098262266	0.030285385
2020-01-22T21:50:00	0.2163	1.568		0.522086772	0.628666179	0.009426284	0.097249237	0.029973159
2020-01-22T21:55:00	0.2161	1.568		0.521510067	0.627858360	0.009407238	0.097052738	0.029912596
2020-01-22T22:00:00	0.2165	1.571		0.522639500	0.629440666	0.009444557	0.097437754	0.030031262
2020-01-22T22:05:00	0.2165	1.572		0.522929296	0.629846829	0.009454145	0.097536666	0.030061748
2020-01-22T22:10:00	0.2177	1.573		0.526969177	0.635516023	0.009588308	0.098920801	0.030488352
2020-01-22T22:15:00	0.2178	1.574		0.527258609	0.635922694	0.009597956	0.099020342	0.030519031
2020-01-22T22:20:00	0.2189	1.575		0.530953095	0.641119676	0.009721543	0.100295363	0.030912005
2020-01-22T22:25:00	0.2185	1.576		0.529540216	0.639130888	0.009674186	0.099806789	0.030761422
2020-01-22T22:30:00	0.2177	1.577		0.526764013	0.635227795	0.009581471	0.098850272	0.030466614
2020-01-22T22:35:00	0.2180	1.579		0.527734845	0.636591985	0.009613842	0.099184237	0.030569545
2020-01-22T22:40:00	0.2195	1.581		0.533129866	0.644186911	0.009794732	0.101050442	0.031144728
2020-01-22T22:45:00	0.2198	1.583		0.534098907	0.645553606	0.009827403	0.101387500	0.031248612
2020-01-22T22:50:00	0.2194	1.584		0.532687316	0.643563013	0.009779830	0.100896699	0.031097343
2020-01-22T22:55:00	0.2202	1.585		0.535356430	0.647328303	0.009869881	0.101825744	0.031383683
2020-01-22T23:00:00	0.2206	1.585		0.536664641	0.649175904	0.009914170	0.102282663	0.031524510
2020-01-22T23:05:00	0.2200	1.587		0.534574200	0.646224218	0.009843447	0.101553027	0.031299629
2020-01-22T23:10:00	0.2213	1.588		0.538940041	0.652392806	0.009991440	0.103079850	0.031770211
2020-01-22T23:15:00	0.2226	1.590		0.543639489	0.659050152	0.010151988	0.104736191	0.032280711
2020-01-22T23:20:00	0.2232	1.591		0.545622438	0.661864663	0.010220120	0.105439091	0.032497352
2020-01-22T23:25:00	0.2224	1.593		0.542859130	0.657943427	0.010125239	0.104460226	0.032195656
2020-01-22T23:30:00	0.2237	1.594		0.547214541	0.664126755	0.010274989	0.106005169	0.032671823
2020-01-22T23:35:00	0.2238	1.596		0.547502283	0.664535806	0.010284922	0.106107640	0.032703405
2020-01-22T23:40:00	0.2227	1.597		0.543723368	0.659169142	0.010154865	0.104765875	0.032289860
2020-01-22T23:45:00	0.2234	1.598		0.546383985	0.662946425	0.010246347	0.105709670	0.032580747
2020-01-22T23:50:00	0.2247	1.600		0.550734975	0.669136035	0.010396843	0.107262316	0.033059287
2020-01-22T23:55:00	0.2251	1.602		0.552037394	0.670991843	0.010442109	0.107729311	0.033203220
2020-01-23T00:00:00	0.2246	1.603		0.550294670	0.668508962	0.010381563	0.107104672	0.033010700
2020-01-23T00:05:00	0.2245	1.604		0.549905261	0.667954506	0.010368059	0.106965349	0.032967759
2020-01-23T00:10:00	0.2242	1.605		0.548838703	0.666436537	0.010331117	0.106584225	0.032850293
2020-01-23T00:15:00	0.2245	1.607		0.549803358	0.667809434	0.010364526	0.106928905	0.032956527
2020-01-23T00:20:00	0.2254	1.609		0.553135718	0.672557921	0.010480358	0.108123926	0.033324844
2020-01-23T00:25:00	0.2253	1.610		0.552746627	0.672003010	0.010466800	0.107984046	0.033281732
2020-01-23T00:30:00	0.2255	1.610		0.553372071	0.672895060	0.010488599	0.108208940	0.033351046
2020-01-23T00:35:00	0.2246	1.613		0.550276501	0.668483088	0.010380933	0.107098169	0.033008696
2020-01-23T00:40:00	0.2246	1.614		0.550225555	0.668410544	0.010379166	0.107079938	0.033003077
2020-01-23T00:45:00	0.2248	1.615		0.550851453	0.669301946	0.010400887	0.107304038	0.033072147
2020-01-23T00:50:00	0.2245	1.617		0.550123662	0.668265459	0.010375632	0.107043478	0.032991839
2020-01-23T00:55:00	0.2241	1.617		0.548718591	0.666265648	0.010326960	0.106541347	0.032837078
2020-01-23T01:00:00	0.2243	1.619		0.549344761	0.667156663	0.010348636	0.106764974	0.032906002
2020-01-23T01:05:00	0.2236	1.621		0.546923207	0.663712667	0.010264938	0.105901469	0.032639861
2020-01-23T01:10:00	0.2239	1.623		0.547888395	0.665084805	0.010298257	0.106245221	0.032745809
2020-01-23T01:15:00	0.2235	1.625		0.546482419	0.663086283	0.010249739	0.105744670	0.032591534
2020-01-23T01:20:00	0.2241	1.627		0.548463743	0.665903100	0.010318145	0.106450400	0.032809047
2020-01-23T01:25:00	0.2237	1.629		0.547396742	0.664385762	0.010281278	0.106070049	0.032691819
2020-01-23T01:30:00	0.2236	1.630		0.547007007	0.663831769	0.010267828	0.105931292	0.032649053
2020-01-23T01:35:00	0.2243	1.632		0.549326586	0.667130796	0.010348007	0.106758480	0.032904000
2020-01-23T01:40:00	0.2240	1.633		0.548259850	0.665613081	0.010311095	0.106377666	0.032786630
2020-01-23T01:45:00	0.2239	1.633		0.547870212	0.665058950	0.010297629	0.106238740	0.032743812
2020-01-23T01:50:00	0.2239	1.634		0.547819232	0.664986456	0.010295868	0.106220570	0.032738211
2020-01-23T01:55:00	0.2229	1.636		0.544379700	0.660100398	0.010177394	0.104998297	0.032361495
2020-01-23T02:00:00	0.2229	1.637		0.544667677	0.660509115	0.010187287	0.105100358	0.032392951
2020-01-23T02:05:00	0.2230	1.637		0.544955630	0.660917866	0.010197183	0.105202461	0.032424420
2020-01-23T02:10:00	0.2229	1.638		0.544565621	0.660364262	0.010183780	0.105064183	0.032381802
2020-01-23T02:15:00	0.2218	1.640		0.540783501	0.655002141	0.010054265	0.103727996	0.031969976
2020-01-23T02:20:00	0.2216	1.643		0.540053594	0.653968658	0.010029366	0.103471121	0.031890804
2020-01-23T02:25:00	0.2212	1.644		0.538644434	0.651974644	0.009981385	0.102976107	0.031738236
2020-01-23T02:30:00	0.2205	1.644		0.536555190	0.649021272	0.009910461	0.102244395	0.031512716
2020-01-23T02:35:00	0.2211	1.646		0.538542200	0.651830043	0.009977908	0.102940240	0.031727182
2020-01-23T02:40:00	0.2203	1.647		0.535773231	0.647916805	0.009883981	0.101971208	0.031428517
2020-01-23T02:45:00	0.2208	1.648		0.537421004	0.650244762	0.009939822	0.102547308	0.031606076
2020-01-23T02:50:00	0.2211	1.649		0.538388843	0.651613148	0.009972694	0.102886451	0.031710603
2020-01-23T02:55:00	0.2210	1.650		0.537998093	0.651060591	0.009959416	0.102749459	0.031668381
2020-01-23T03:00:00	0.2213	1.649		0.538965770	0.652429205	0.009992316	0.103088882	0.031772994
2020-01-23T03:05:00	0.2208	1.650		0.537556167	0.650435817	0.009944409	0.102594637	0.031620664
2020-01-23T03:10:00	0.2207	1.652		0.537165323	0.649883393	0.009931147	0.102457809	0.031578492
2020-01-23T03:15:00	0.2202	1.654		0.535415102	0.647411136	0.009871865	0.101846214	0.031389992
2020-01-23T03:20:00	0.2195	1.656		0.532983781	0.643980946	0.009789811	0.100999679	0.031129082
2020-01-23T03:25:00	0.2192	1.657		0.531911996	0.642470365	0.009753750	0.100627636	0.031014415
2020-01-23T03:30:00	0.2192	1.658		0.531860780	0.642398203	0.009752028	0.100609874	0.031008940
2020-01-23T03:35:00	0.2192	1.657		0.531809563	0.642326043	0.009750306	0.100592115	0.031003467
2020-01-23T03:40:00	0.2190	1.659		0.531418068	0.641774533	0.009737153	0.100456413	0.030961642
2020-01-23T03:45:00	0.2192	1.662		0.532047375	0.642661116	0.009758301	0.100674591	0.031028887
2020-01-23T03:50:00	0.2196	1.663		0.533356840	0.644506956	0.009802379	0.101129339	0.031169044
2020-01-23T03:55:00	0.2191	1.664		0.531604686	0.642037413	0.009743422	0.100521088	0.030981576
2020-01-23T04:00:00	0.2190	1.666		0.531213168	0.641485936	0.009730272	0.100385427	0.030939764
2020-01-23T04:05:00	0.2198	1.667		0.533976665	0.645381159	0.009823278	0.101344950	0.031235498
2020-01-23T04:10:00	0.2203	1.669		0.535718492	0.647839508	0.009882128	0.101952098	0.031422627
2020-01-23T04:15:00	0.2208	1.672		0.537459441	0.650299092	0.009941126	0.102560766	0.031610224
2020-01-23T04:20:00	0.2207	1.673		0.537161744	0.649878335	0.009931025	0.102456556	0.031578106
2020-01-23T04:25:00	0.2204	1.675		0.536184440	0.648497549	0.009897901	0.102114823	0.031472780
2020-01-23T04:30:00	0.2203	1.674		0.535546763	0.647597026	0.009876318	0.101892157	0.031404152
2020-01-23T04:35:00	0.2207	1.674		0.536948065	0.649576372	0.009923778	0.102381790	0.031555062
2020-01-23T04:40:00	0.2208	1.675		0.537329815	0.650115873	0.009936727	0.102515384	0.031596237
2020-01-23T04:45:00	0.2214	1.676		0.539409477	0.653057008	0.010007420	0.103244705	0.031821021
2020-01-23T04:50:00	0.2224	1.677		0.542844839	0.657923164	0.010124750	0.104455176	0.032194100
2020-01-23T04:55:00	0.2232	1.680		0.545599061	0.661831464	0.010219315	0.105430791	0.032494794
2020-01-23T05:00:00	0.2235	1.680		0.546657520	0.663335093	0.010255775	0.105806944	0.032610728
2020-01-23T05:05:00	0.2244	1.681		0.549747230	0.667729531	0.010362581	0.106908835	0.032950341
2020-01-23T05:10:00	0.2250	1.683		0.551481146	0.670199079	0.010422764	0.107529737	0.033141709
2020-01-23T05:15:00	0.2243	1.684		0.549153919	0.666885069	0.010342028	0.106696793	0.032884988
2020-01-23T05:20:00	0.2249	1.686		0.551226500	0.669836242	0.010413915	0.107438436	0.033113570
2020-01-23T05:25:00	0.2251	1.687		0.551944980	0.670860116	0.010438894	0.107696141	0.033192997
2020-01-23T05:30:00	0.2258	1.689		0.554353962	0.674296148	0.010522867	0.108562481	0.033460011
2020-01-23T05:35:00	0.2260	1.691		0.555071795	0.675320945	0.010547956	0.108821315	0.033539786
2020-01-23T05:40:00	0.2261	1.692		0.555451555	0.675863271	0.010561241	0.108958375	0.033582029
2020-01-23T05:45:00	0.2265	1.694		0.556844840	0.677854005	0.010610054	0.109461975	0.033737244
2020-01-23T05:50:00	0.2267	1.697		0.557562159	0.678879538	0.010635230	0.109721708	0.033817296
2020-01-23T05:55:00	0.2272	1.698		0.558954600	0.680871484	0.010684187	0.110226787	0.033972966
2020-01-23T06:00:00	0.2270	1.698		0.558321095	0.679965030	0.010661899	0.109996850	0.033902097
2020-01-23T06:05:00	0.2271	1.700		0.558700501	0.680507864	0.010675244	0.110134530	0.033944532
2020-01-23T06:10:00	0.2275	1.701		0.560092487	0.682500463	0.010724279	0.110640406	0.034100448
2020-01-23T06:15:00	0.2278	1.701		0.561146544	0.684010386	0.010761485	0.111024255	0.034218754
2020-01-23T06:20:00	0.2290	1.703		0.565234551	0.689875063	0.010906403	0.112519353	0.034679557
2020-01-23T06:25:00	0.2292	1.704		0.565950147	0.690903080	0.010931872	0.112782113	0.034760542
2020-01-23T06:30:00	0.2292	1.705		0.565991819	0.690962958	0.010933357	0.112797424	0.034765261
2020-01-23T06:35:00	0.2291	1.706		0.565359590	0.690054663	0.010910852	0.112565244	0.034693701
2020-01-23T06:40:00	0.2294	1.707		0.566412058	0.691566879	0.010948329	0.112951887	0.034812869
2020-01-23T06:45:00	0.2296	1.708		0.567127413	0.692595244	0.010973839	0.113215071	0.034893984
2020-01-23T06:50:00	0.2302	1.710		0.569189334	0.695561743	0.011047538	0.113975411	0.035128329
2020-01-23T06:55:00	0.2310	1.711		0.571922806	0.699499823	0.011145628	0.114987385	0.035440229
2020-01-23T07:00:00	0.2317	1.713		0.574318041	0.702955692	0.011231943	0.115877888	0.035714690
2020-01-23T07:05:00	0.2328	1.714		0.578054946	0.708356827	0.011367287	0.117274200	0.036145047
2020-01-23T07:10:00	0.2328	1.715		0.578096474	0.708416915	0.011368795	0.117289765	0.036149845
2020-01-23T07:15:00	0.2336	1.715		0.580487497	0.711878936	0.011455834	0.118187724	0.036426604
2020-01-23T07:20:00	0.2338	1.718		0.581199984	0.712911482	0.011481835	0.118455978	0.036509283
2020-01-23T07:25:00	0.2343	1.721		0.582918364	0.715403515	0.011544670	0.119104236	0.036709082
2020-01-23T07:30:00	0.2346	1.726		0.583965572	0.716923403	0.011583049	0.119500182	0.036831117
2020-01-23T07:35:00	0.2345	1.728		0.583671820	0.716496968	0.011572277	0.119389047	0.036796864
2020-01-23T07:40:00	0.2351	1.732		0.585724038	0.719477643	0.011647641	0.120166565	0.037036502
2020-01-23T07:45:00	0.2347	1.735		0.584425115	0.717590659	0.011599911	0.119674146	0.036884734
2020-01-23T07:50:00	0.2345	1.741		0.583796203	0.716677525	0.011576838	0.119436098	0.036811365
2020-01-23T07:55:00	0.2344	1.746		0.583167179	0.715764556	0.011553783	0.119198251	0.036738059
2020-01-23T08:00:00	0.2351	1.751		0.585554755	0.719231640	0.011641415	0.120102331	0.037016705
2020-01-23T08:05:00	0.2355	1.757		0.586936109	0.721239719	0.011692270	0.120626993	0.037178411
2020-01-23T08:10:00	0.2346	1.762		0.583962041	0.716918277	0.011582920	0.119498846	0.036830705
2020-01-23T08:15:00	0.2347	1.767		0.584338677	0.717465138	0.011596739	0.119641414	0.036874646
2020-01-23T08:20:00	0.2344	1.773		0.583374512	0.716065444	0.011561380	0.119276621	0.036762213
2020-01-23T08:25:00	0.2349	1.781		0.585091829	0.718559039	0.011624398	0.119926767	0.036962594
2020-01-23T08:30:00	0.2344	1.788		0.583457442	0.716185804	0.011564419	0.119307975	0.036771877
2020-01-23T08:35:00	0.2345	1.795		0.583498906	0.716245985	0.011565938	0.119323654	0.036776709
2020-01-23T08:40:00	0.2339	1.804		0.581528363	0.713387515	0.011493829	0.118579719	0.036547421
2020-01-23T08:45:00	0.2344	1.813		0.583246582	0.715879784	0.011556692	0.119228262	0.036747308
2020-01-23T08:50:00	0.2352	1.824		0.585969127	0.719833847	0.011656658	0.120259594	0.037065175
2020-01-23T08:55:00	0.2351	1.836		0.585675542	0.719407166	0.011645857	0.120148162	0.037030830
2020-01-23T09:00:00	0.2337	1.849		0.581023414	0.712655556	0.011475389	0.118389470	0.036488784
2020-01-23T09:05:00	0.2337	1.863		0.581064907	0.712715695	0.011476903	0.118405097	0.036493601
2020-01-23T09:10:00	0.2328	1.878		0.578085864	0.708401563	0.011368410	0.117285788	0.036148619
2020-01-23T09:15:00	0.2339	1.896		0.581483342	0.713322246	0.011492185	0.118562750	0.036542191
2020-01-23T09:20:00	0.2345	1.913		0.583536838	0.716301042	0.011567329	0.119337998	0.036781130
2020-01-23T09:25:00	0.2350	1.930		0.585254077	0.718794754	0.011630360	0.119988284	0.036981554
2020-01-23T09:30:00	0.2355	1.949		0.586970477	0.721289700	0.011693537	0.120640061	0.037182438
2020-01-23T09:35:00	0.2359	1.967		0.588351276	0.723298599	0.011744487	0.121165711	0.037344449
2020-01-23T09:40:00	0.2360	1.982		0.588727443	0.723846152	0.011758387	0.121309115	0.037388648
2020-01-23T09:45:00	0.2359	1.998		0.588434089	0.723419132	0.011747547	0.121197274	0.037354177
2020-01-23T09:50:00	0.2351	2.012		0.585796326	0.719582698	0.011650300	0.120194000	0.037044958
2020-01-23T09:55:00	0.2344	2.030		0.583156584	0.715749182	0.011553395	0.119194247	0.036736825
2020-01-23T10:00:00	0.2340	2.045		0.581856712	0.713863594	0.011505829	0.118703515	0.036585576
2020-01-23T10:05:00	0.2345	2.058		0.583755616	0.716618606	0.011575349	0.119420744	0.036806633
2020-01-23T10:10:00	0.2344	2.078		0.583307453	0.715968122	0.011558922	0.119251271	0.036754400
2020-01-23T10:15:00	0.2347	2.100		0.584200191	0.717264048	0.011591656	0.119588983	0.036858486
2020-01-23T10:20:00	0.2337	2.118		0.581069315	0.712722083	0.011477064	0.118406758	0.036494113
2020-01-23T10:25:00	0.2336	2.136		0.580620809	0.712072103	0.011460696	0.118237893	0.036442067
2020-01-23T10:30:00	0.2338	2.154		0.581178782	0.712880750	0.011481061	0.118447991	0.036506821
2020-01-23T10:35:00	0.2335	2.172		0.580394768	0.711744583	0.011452452	0.118152834	0.036415851
2020-01-23T10:40:00	0.2338	2.190		0.581288246	0.713039422	0.011485058	0.118489231	0.036519532
2020-01-23T10:45:00	0.2341	2.206		0.582181497	0.714334594	0.011517704	0.118826032	0.036623337
2020-01-23T10:50:00	0.2343	2.227		0.583074521	0.715630100	0.011550389	0.119163236	0.036727267
2020-01-23T10:55:00	0.2353	2.245		0.586312920	0.720333591	0.011669313	0.120390150	0.037105413
2020-01-23T11:00:00	0.2350	2.259		0.585194985	0.718708903	0.011628189	0.119965877	0.036974648
2020-01-23T11:05:00	0.2344	2.280		0.583406256	0.716111516	0.011562543	0.119288623	0.036765912
2020-01-23T11:10:00	0.2336	2.295		0.580610207	0.712056739	0.011460310	0.118233902	0.036440837
2020-01-23T11:15:00	0.2337	2.308		0.580832701	0.712379157	0.011468428	0.118317656	0.036466651
2020-01-23T11:20:00	0.2331	2.318		0.579041749	0.709785035	0.011403165	0.117644349	0.036259131
2020-01-23T11:25:00	0.2341	2.336		0.582283865	0.714483065	0.011521449	0.118864661	0.036635243
2020-01-23T11:30:00	0.2344	2.354		0.583176863	0.715778608	0.011554138	0.119201911	0.036739187
2020-01-23T11:35:00	0.2344	2.369		0.583399194	0.716101265	0.011562284	0.119285953	0.036765089
2020-01-23T11:40:00	0.2338	2.383		0.581274112	0.713018934	0.011484542	0.118483906	0.036517890
2020-01-23T11:45:00	0.2337	2.396		0.580825633	0.712368915	0.011468170	0.118314995	0.036465830
2020-01-23T11:50:00	0.2337	2.413		0.581048113	0.712691353	0.011476290	0.118398772	0.036491651
2020-01-23T11:55:00	0.2336	2.425		0.580599604	0.712041376	0.011459923	0.118229912	0.036439607
2020-01-23T12:00:00	0.2325	2.433		0.576793814	0.706532755	0.011321518	0.116802017	0.035999516
2020-01-23T12:05:00	0.2315	2.445		0.573656321	0.702000481	0.011208063	0.115631522	0.035638758
2020-01-23T12:10:00	0.2309	2.457		0.571525327	0.698926796	0.011131337	0.114839949	0.035394788
2020-01-23T12:15:00	0.2308	2.471		0.571075599	0.698278601	0.011115179	0.114673248	0.035343409
2020-01-23T12:20:00	0.2304	2.487		0.569952798	0.696661034	0.011074890	0.114257599	0.035215302
2020-01-23T12:25:00	0.2309	2.505		0.571521784	0.698921688	0.011131209	0.114838635	0.035394383
2020-01-23T12:30:00	0.2308	2.516		0.571072055	0.698273494	0.011115051	0.114671935	0.035343004
2020-01-23T12:35:00	0.2306	2.524		0.570622268	0.697625384	0.011098903	0.114505337	0.035291657
2020-01-23T12:40:00	0.2307	2.537		0.570845397	0.697946875	0.011106912	0.114587967	0.035317124
2020-01-23T12:45:00	0.2305	2.542		0.570059068	0.696814088	0.011078700	0.114296906	0.035227416
2020-01-23T12:50:00	0.2309	2.541		0.571628006	0.699074811	0.011135028	0.114878026	0.035406523
2020-01-23T12:55:00	0.2302	2.550		0.569159177	0.695518330	0.011046458	0.113964272	0.035124895
2020-01-23T13:00:00	0.2295	2.556		0.566688603	0.691964379	0.010958187	0.113053593	0.034844215
2020-01-23T13:05:00	0.2296	2.562		0.567248799	0.692769786	0.010978170	0.113259761	0.034907758
2020-01-23T13:10:00	0.2278	2.569		0.561067479	0.683897094	0.010758692	0.110995439	0.034209872
2020-01-23T13:15:00	0.2270	2.565		0.558253516	0.679868353	0.010659523	0.109972336	0.033894542
2020-01-23T13:20:00	0.2264	2.553		0.556450959	0.677291064	0.010596243	0.109319488	0.033693328
2020-01-23T13:25:00	0.2264	2.540		0.556337156	0.677128439	0.010592254	0.109278337	0.033680645
2020-01-23T13:30:00	0.2269	2.529		0.557912272	0.679380240	0.010647529	0.109848593	0.033856403
2020-01-23T13:35:00	0.2269	2.518		0.558136215	0.679700555	0.010655399	0.109929792	0.033881429
2020-01-23T13:40:00	0.2272	2.508		0.559035396	0.680987114	0.010687031	0.110256130	0.033982010
2020-01-23T13:45:00	0.2273	2.499		0.559259266	0.681307533	0.010694914	0.110337455	0.034007075
2020-01-23T13:50:00	0.2285	2.490		0.563531376	0.687430005	0.010845907	0.111895219	0.034487193
2020-01-23T13:55:00	0.2295	2.477		0.566787876	0.692107087	0.010961727	0.113090114	0.034855472
2020-01-23T14:00:00	0.2304	2.462		0.569704796	0.696303890	0.011066001	0.114165895	0.035187037
2020-01-23T14:05:00	0.2312	2.455		0.572619286	0.700504222	0.011170691	0.115245962	0.035519925
2020-01-23T14:10:00	0.2321	2.449		0.575531352	0.704708082	0.011275796	0.116330311	0.035854132
2020-01-23T14:15:00	0.2325	2.440		0.576761971	0.706486716	0.011320364	0.116790107	0.035995845
2020-01-23T14:20:00	0.2324	2.426		0.576648828	0.706323136	0.011316263	0.116747795	0.035982804
2020-01-23T14:25:00	0.2315	2.408		0.573511205	0.701791051	0.011202830	0.115577530	0.035622117
2020-01-23T14:30:00	0.2313	2.389		0.573061732	0.701142485	0.011186628	0.115410379	0.035570600
2020-01-23T14:35:00	0.2314	2.367		0.573284705	0.701464202	0.011194664	0.115493283	0.035596152
2020-01-23T14:40:00	0.2305	2.347		0.570144066	0.696936512	0.011081748	0.114328350	0.035237108
2020-01-23T14:45:00	0.2303	2.326		0.569694161	0.696288575	0.011065620	0.114161963	0.035185826
2020-01-23T14:50:00	0.2299	2.306		0.568234227	0.694187188	0.011013368	0.113622890	0.035019678
2020-01-23T14:55:00	0.2292	2.286		0.565762999	0.690634185	0.010925209	0.112713364	0.034739353
2020-01-23T15:00:00	0.2282	2.264		0.562615592	0.686116305	0.010813449	0.111560357	0.034383985
2020-01-23T15:05:00	0.2277	2.242		0.560815291	0.683535772	0.010749785	0.110903552	0.034181552
2020-01-23T15:10:00	0.2279	2.220		0.561376430	0.684339816	0.010769608	0.111108062	0.034244584
2020-01-23T15:15:00	0.2287	2.197		0.564297871	0.688530081	0.010873111	0.112175885	0.034573697
2020-01-23T15:20:00	0.2288	2.173		0.564521404	0.688850986	0.010881052	0.112257803	0.034598945
2020-01-23T15:25:00	0.2285	2.149		0.563396495	0.687236473	0.010841123	0.111845867	0.034471982
2020-01-23T15:30:00	0.2291	2.124		0.565642401	0.690460924	0.010920916	0.112669073	0.034725703
2020-01-23T15:35:00	0.2299	2.096		0.568223587	0.694171879	0.011012988	0.113618966	0.035018469
2020-01-23T15:40:00	0.2293	2.068		0.566089280	0.691103005	0.010936828	0.112833237	0.034776299
2020-01-23T15:45:00	0.2291	2.045		0.565638852	0.690455825	0.010920789	0.112667770	0.034725301
2020-01-23T15:50:00	0.2291	2.022		0.565525349	0.690292769	0.010916750	0.112626093	0.034712456
2020-01-23T15:55:00	0.2298	1.997		0.567769887	0.693519199	0.010996776	0.113451708	0.034966918
2020-01-23T16:00:00	0.2295	1.967		0.566982866	0.692387415	0.010968682	0.113161866	0.034877586
2020-01-23T16:05:00	0.2298	1.940		0.567933471	0.693754507	0.011002620	0.113511999	0.034985501
2020-01-23T16:10:00	0.2294	1.912		0.566526525	0.691731404	0.010952408	0.112993979	0.034825842
2020-01-23T16:15:00	0.2288	1.885		0.564444935	0.688741202	0.010878335	0.112229776	0.034590307
2020-01-23T16:20:00	0.2293	1.857		0.566070124	0.691075478	0.010936146	0.112826197	0.034774130
2020-01-23T16:25:00	0.2291	1.832		0.565336461	0.690021440	0.010910029	0.112556754	0.034691085
2020-01-23T16:30:00	0.2298	1.806		0.567971573	0.693809317	0.011003981	0.113526044	0.034989829
2020-01-23T16:35:00	0.2291	1.781		0.565553897	0.690333779	0.010917766	0.112636575	0.034715686
2020-01-23T16:40:00	0.2282	1.756		0.562460086	0.685893298	0.010807942	0.111503546	0.034366476
2020-01-23T16:45:00	0.2282	1.731		0.562400265	0.685807517	0.010805824	0.111481695	0.034359741
2020-01-23T16:50:00	0.2284	1.708		0.563014926	0.686689068	0.010827596	0.111706313	0.034428971
2020-01-23T16:55:00	0.2284	1.685		0.563292313	0.687087000	0.010837429	0.111807755	0.034460236
2020-01-23T17:00:00	0.2295	1.663		0.566939604	0.692325216	0.010967138	0.113145945	0.034872679
2020-01-23T17:05:00	0.2297	1.640		0.567553466	0.693207922	0.010989047	0.113371967	0.034942341
2020-01-23T17:10:00	0.2290	1.618		0.565135501	0.689732803	0.010902880	0.112483007	0.034668355
2020-01-23T17:15:00	0.2288	1.596		0.564401641	0.688679049	0.010876797	0.112213910	0.034585417
2020-01-23T17:20:00	0.2286	1.574		0.563667627	0.687625517	0.010850740	0.111945084	0.034502562
2020-01-23T17:25:00	0.2289	1.552		0.564956173	0.689475264	0.010896504	0.112417220	0.034648079
2020-01-23T17:30:00	0.2293	1.531		0.566244243	0.691325697	0.010942348	0.112890192	0.034793854
2020-01-23T17:35:00	0.2295	1.512		0.566858228	0.692208225	0.010964236	0.113116000	0.034863450
2020-01-23T17:40:00	0.2303	1.492		0.569492193	0.695997764	0.011058384	0.114087310	0.035162817
2020-01-23T17:45:00	0.2297	1.470		0.567412370	0.693005004	0.010984009	0.113319996	0.034926323
2020-01-23T17:50:00	0.2296	1.447		0.567015827	0.692434806	0.010969857	0.113173998	0.034881325
2020-01-23T17:55:00	0.2294	1.422		0.566619240	0.691864672	0.010955714	0.113028079	0.034836352
2020-01-23T18:00:00	0.2283	1.399		0.562851990	0.686455353	0.010821823	0.111646748	0.034410612
2020-01-23T18:05:00	0.2275	1.376		0.560093289	0.682501613	0.010724307	0.110640698	0.034100538
2020-01-23T18:10:00	0.2270	1.353		0.558345533	0.679999991	0.010662759	0.110005715	0.033904830
2020-01-23T18:15:00	0.2263	1.331		0.555921173	0.676534087	0.010577681	0.109127986	0.033634305
2020-01-23T18:20:00	0.2260	1.310		0.555185371	0.675483128	0.010551928	0.108862297	0.033552417
2020-01-23T18:25:00	0.2254	1.287		0.553096995	0.672502689	0.010479009	0.108110001	0.033320552
2020-01-23T18:30:00	0.2257	1.268		0.554051394	0.673864321	0.010512301	0.108453476	0.033426415
2020-01-23T18:35:00	0.2254	1.246		0.552977030	0.672331589	0.010474828	0.108066866	0.033307258
2020-01-23T18:40:00	0.2251	1.220		0.551902335	0.670799333	0.010437410	0.107680837	0.033188280
2020-01-23T18:45:00	0.2247	1.198		0.550488899	0.668785559	0.010388302	0.107174198	0.033032129
2020-01-23T18:50:00	0.2250	1.179		0.551782329	0.670628293	0.010433236	0.107637774	0.033175007
2020-01-23T18:55:00	0.2242	1.160		0.549014837	0.666687153	0.010337213	0.106647117	0.032869677
2020-01-23T19:00:00	0.2236	1.141		0.546922747	0.663712012	0.010264922	0.105901306	0.032639811
2020-01-23T19:05:00	0.2234	1.122		0.546185036	0.662663776	0.010239492	0.105638950	0.032558950
2020-01-23T19:10:00	0.2237	1.104		0.547141336	0.664022698	0.010272463	0.105979107	0.032663790
2020-01-23T19:15:00	0.2234	1.087		0.546064832	0.662493017	0.010235351	0.105596232	0.032545784
2020-01-23T19:20:00	0.2237	1.072		0.547359911	0.664333403	0.010280006	0.106056932	0.032687776
2020-01-23T19:25:00	0.2231	1.055		0.545266823	0.661359682	0.010207884	0.105312861	0.032458446
2020-01-23T19:30:00	0.2228	1.038		0.544189737	0.659830827	0.010170871	0.104931000	0.032340753
2020-01-23T19:35:00	0.2228	1.023		0.544129601	0.659745496	0.010168806	0.104909701	0.032334189
2020-01-23T19:40:00	0.2226	1.006		0.543391296	0.658698104	0.010143477	0.104648380	0.032253647
2020-01-23T19:45:00	0.2229	0.988		0.544687374	0.660537073	0.010187963	0.105107341	0.032395103
2020-01-23T19:50:00	0.2226	0.971		0.543610108	0.659008474	0.010150980	0.104725794	0.032277507
2020-01-23T19:55:00	0.2230	0.953		0.544906104	0.660847558	0.010195481	0.105184896	0.032419007
2020-01-23T20:00:00	0.2223	0.933		0.542472342	0.657395059	0.010111994	0.104323580	0.032153541
2020-01-23T20:05:00	0.2226	0.912		0.543429667	0.658752528	0.010144792	0.104661953	0.032257830
2020-01-23T20:10:00	0.2233	0.893		0.545742542	0.662035236	0.010224254	0.105481741	0.032510497
2020-01-23T20:15:00	0.2239	0.878		0.548053875	0.665320133	0.010303975	0.106304214	0.032763991
2020-01-23T20:20:00	0.2246	0.862		0.550363669	0.668607218	0.010383957	0.107129368	0.033018312
2020-01-23T20:25:00	0.2244	0.847		0.549626690	0.667557942	0.010358403	0.106865738	0.032937058
2020-01-23T20:30:00	0.2251	0.833		0.551935439	0.670846518	0.010438562	0.107692717	0.033191941
2020-01-23T20:35:00	0.2251	0.819		0.551875437	0.670760996	0.010436475	0.107671184	0.033185305
2020-01-23T20:40:00	0.2256	0.802		0.553844612	0.673569244	0.010505084	0.108379011	0.033403464
2020-01-23T20:45:00	0.2252	0.787		0.552431966	0.671554341	0.010455842	0.107870992	0.033246887
2020-01-23T20:50:00	0.2254	0.772		0.553048389	0.672433363	0.010477315	0.108092523	0.033315165
2020-01-23T20:55:00	0.2260	0.758		0.555016900	0.675242561	0.010546036	0.108801511	0.033533682
2020-01-23T21:00:00	0.2257	0.741		0.553942835	0.673709403	0.010508512	0.108414379	0.033414365
2020-01-23T21:05:00	0.2260	0.727		0.554897002	0.675071367	0.010541844	0.108758260	0.033520352
2020-01-23T21:10:00	0.2260	0.713		0.555175036	0.675468369	0.010551567	0.108858567	0.033551268
2020-01-23T21:15:00	0.2262	0.701		0.555790973	0.676348086	0.010573122	0.109080948	0.033619808
2020-01-23T21:20:00	0.2262	0.688		0.555731037	0.676262469	0.010571023	0.109059298	0.033613135
2020-01-23T21:25:00	0.2259	0.675		0.554657193	0.674728996	0.010533462	0.108671781	0.033493698
2020-01-23T21:30:00	0.2259	0.662		0.554597238	0.674643407	0.010531366	0.108650166	0.033487036
2020-01-23T21:35:00	0.2265	0.650		0.556564873	0.677453859	0.010600237	0.109360687	0.033706026
2020-01-23T21:40:00	0.2259	0.640		0.554815344	0.674954781	0.010538989	0.108728809	0.033511275
2020-01-23T21:45:00	0.2261	0.628		0.555431345	0.675834407	0.010560534	0.108951078	0.033579780
2020-01-23T21:50:00	0.2263	0.617		0.556047236	0.676714189	0.010582096	0.109173538	0.033648345
2020-01-23T21:55:00	0.2258	0.605		0.554297448	0.674215485	0.010520893	0.108542117	0.033453735
2020-01-23T22:00:00	0.2257	0.593		0.553899411	0.673647438	0.010506996	0.108398742	0.033409545
2020-01-23T22:05:00	0.2257	0.580		0.553887310	0.673630170	0.010506574	0.108394385	0.033408202
2020-01-23T22:10:00	0.2267	0.566		0.557254514	0.678439654	0.010624429	0.109610275	0.033782951
2020-01-23T22:15:00	0.2258	0.552		0.554201188	0.674078098	0.010517532	0.108507435	0.033443045
2020-01-23T22:20:00	0.2265	0.538		0.556554733	0.677439367	0.010599881	0.109357019	0.033704895
2020-01-23T22:25:00	0.2264	0.526		0.556542641	0.677422087	0.010599457	0.109352646	0.033703547
2020-01-23T22:30:00	0.2261	0.514		0.555516892	0.675956590	0.010563527	0.108981964	0.033589300
2020-01-23T22:35:00	0.2259	0.502		0.554828858	0.674974075	0.010539462	0.108733683	0.033512777
2020-01-23T22:40:00	0.2263	0.492		0.556168511	0.676887463	0.010586345	0.109217370	0.033661854
2020-01-23T22:45:00	0.2272	0.482		0.559195949	0.681216905	0.010692684	0.110314451	0.033999985
2020-01-23T22:50:00	0.2267	0.472		0.557495560	0.678784305	0.010632891	0.109697580	0.033809859
2020-01-23T22:55:00	0.2261	0.463		0.555456416	0.675870214	0.010561411	0.108960130	0.033582570
2020-01-23T23:00:00	0.2257	0.455		0.554092289	0.673922682	0.010513729	0.108468206	0.033430954
2020-01-23T23:05:00	0.2261	0.446		0.555432225	0.675835664	0.010560564	0.108951396	0.033579878
2020-01-23T23:10:00	0.2265	0.436		0.556771646	0.677749385	0.010607487	0.109435489	0.033729081
2020-01-23T23:15:00	0.2265	0.427		0.556759555	0.677732104	0.010607063	0.109431115	0.033727732
2020-01-23T23:20:00	0.2260	0.418		0.555057976	0.675301212	0.010547473	0.108816330	0.033538250
2020-01-23T23:25:00	0.2267	0.408		0.557410942	0.678663311	0.010629920	0.109666928	0.033800412
2020-01-23T23:30:00	0.2259	0.396		0.554695784	0.674784089	0.010534810	0.108685695	0.033497987
2020-01-23T23:35:00	0.2273	0.385		0.559412697	0.681527160	0.010700318	0.110393209	0.034024259
2020-01-23T23:40:00	0.2276	0.372		0.560413144	0.682959704	0.010735590	0.110757106	0.034136416
2020-01-23T23:45:00	0.2281	0.359		0.562087966	0.685359734	0.010794771	0.111367659	0.034324594
2020-01-23T23:50:00	0.2276	0.344		0.560388988	0.682925105	0.010734738	0.110748313	0.034133706
2020-01-23T23:55:00	0.2267	0.328		0.557338410	0.678559604	0.010627374	0.109640657	0.033792315
2020-01-24T00:00:00	0.2261	0.317		0.555299174	0.675645645	0.010555909	0.108903368	0.033565076
2020-01-24T00:05:00	0.2254	0.305		0.552920570	0.672251068	0.010472860	0.108046568	0.033301002
2020-01-24T00:10:00	0.2259	0.293		0.554598999	0.674645921	0.010531428	0.108650801	0.033487232
2020-01-24T00:15:00	0.2257	0.281		0.553910784	0.673663667	0.010507393	0.108402838	0.033410807
2020-01-24T00:20:00	0.2259	0.272		0.554574802	0.674611380	0.010530582	0.108642078	0.033484544
2020-01-24T00:25:00	0.2257	0.263		0.553886582	0.673629132	0.010506548	0.108394123	0.033408121
2020-01-24T00:30:00	0.2255	0.254		0.553198226	0.672647079	0.010482537	0.108146406	0.033331773
2020-01-24T00:35:00	0.2257	0.245		0.553862381	0.673594598	0.010505704	0.108385409	0.033405436
2020-01-24T00:40:00	0.2252	0.238		0.552159383	0.671165736	0.010446354	0.107773105	0.033216718
2020-01-24T00:45:00	0.2254	0.229		0.553161917	0.672595288	0.010481272	0.108133348	0.033327748
2020-01-24T00:50:00	0.2257	0.221		0.554164161	0.674025254	0.010516239	0.108494096	0.033438934
2020-01-24T00:55:00	0.2254	0.213		0.553137710	0.672560761	0.010480428	0.108124642	0.033325065
2020-01-24T01:00:00	0.2253	0.202		0.552787423	0.672061186	0.010468221	0.107998708	0.033286251
2020-01-24T01:05:00	0.2256	0.192		0.553789775	0.673490997	0.010503170	0.108359268	0.033397379
2020-01-24T01:10:00	0.2256	0.179		0.553777674	0.673473730	0.010502748	0.108354911	0.033396036
2020-01-24T01:15:00	0.2255	0.167		0.553427451	0.672974063	0.010490530	0.108228865	0.033357187
2020-01-24T01:20:00	0.2255	0.154		0.553415348	0.672956798	0.010490108	0.108224510	0.033355845
2020-01-24T01:25:00	0.2263	0.142		0.556107319	0.676800033	0.010584201	0.109195253	0.033655037
2020-01-24T01:30:00	0.2266	0.130		0.557108716	0.678231213	0.010619312	0.109557485	0.033766681
2020-01-24T01:35:00	0.2264	0.117		0.556420997	0.677248247	0.010595193	0.109308653	0.033689988
2020-01-24T01:40:00	0.2270	0.102		0.558435407	0.680128569	0.010665919	0.110038322	0.033914880
2020-01-24T01:45:00	0.2271	0.088		0.558760958	0.680594375	0.010677372	0.110156477	0.033951296
2020-01-24T01:50:00	0.2261	0.076		0.555371021	0.675748252	0.010558423	0.108929302	0.033573069
2020-01-24T01:55:00	0.2254	0.064		0.552992467	0.672353605	0.010475366	0.108072416	0.033308968
2020-01-24T02:00:00	0.2253	0.054		0.552642165	0.671854050	0.010463161	0.107946508	0.033270162
2020-01-24T02:05:00	0.2250	0.045		0.551615264	0.670390200	0.010427427	0.107577840	0.033156535
2020-01-24T02:10:00	0.2249	0.035		0.551264823	0.669890844	0.010415246	0.107452174	0.033117804
2020-01-24T02:15:00	0.2250	0.024		0.551591047	0.670355688	0.010426585	0.107569153	0.033153858
2020-01-24T02:20:00	0.2239	0.017		0.547855444	0.665037949	0.010297119	0.106233477	0.032742189
2020-01-24T02:25:00	0.2232	0.006		0.545471736	0.661650650	0.010214934	0.105385588	0.032480862
2020-01-24T02:30:00	0.2234	-0.005		0.546137370	0.662596061	0.010237850	0.105622009	0.032553729
2020-01-24T02:35:00	0.2235	-0.016		0.546464075	0.663060219	0.010249107	0.105738147	0.032589524
2020-01-24T02:40:00	0.2230	-0.027		0.544757444	0.660636533	0.010190371	0.105132183	0.032402760
2020-01-24T02:45:00	0.2226	-0.037		0.543389107	0.658694999	0.010143402	0.104647606	0.032253408
2020-01-24T02:50:00	0.2222	-0.049		0.542020228	0.656754231	0.010096523	0.104163969	0.032104347
2020-01-24T02:55:00	0.2217	-0.060		0.540311406	0.654333648	0.010038157	0.103561816	0.031918757
2020-01-24T03:00:00	0.2221	-0.071		0.541656673	0.656239047	0.010084091	0.104035712	0.032064817
2020-01-24T03:05:00	0.2218	-0.082		0.540965886	0.655260451	0.010060491	0.103792233	0.031989774
2020-01-24T03:10:00	0.2218	-0.094		0.540953740	0.655243248	0.010060076	0.103787954	0.031988455
2020-01-24T03:15:00	0.2220	-0.105		0.541620243	0.656187429	0.010082846	0.104022865	0.032060857
2020-01-24T03:20:00	0.2223	-0.116		0.542625826	0.657612645	0.010117249	0.104377792	0.032170249
2020-01-24T03:25:00	0.2224	-0.127		0.542952862	0.658076334	0.010128450	0.104493354	0.032205867
2020-01-24T03:30:00	0.2221	-0.136		0.541923089	0.656616568	0.010093201	0.104129692	0.032093782
2020-01-24T03:35:00	0.2223	-0.146		0.542589405	0.657561012	0.010116002	0.104364927	0.032166284
2020-01-24T03:40:00	0.2228	-0.157		0.544272835	0.659948746	0.010173724	0.104960436	0.032349826
2020-01-24T03:45:00	0.2228	-0.165		0.544260701	0.659931527	0.010173307	0.104956137	0.032348501
2020-01-24T03:50:00	0.2229	-0.174		0.544587583	0.660395434	0.010184535	0.105071967	0.032384201
2020-01-24T03:55:00	0.2229	-0.183		0.544575450	0.660378213	0.010184118	0.105067667	0.032382875
2020-01-24T04:00:00	0.2234	-0.194		0.546257916	0.662767314	0.010242003	0.105664854	0.032566934
2020-01-24T04:05:00	0.2231	-0.204		0.545382179	0.661523479	0.010211852	0.105353800	0.032471064
2020-01-24T04:10:00	0.2230	-0.213		0.544845213	0.660761120	0.010193388	0.105163303	0.032412351
2020-01-24T04:15:00	0.2229	-0.220		0.544647174	0.660480013	0.010186582	0.105093090	0.032390711
2020-01-24T04:20:00	0.2226	-0.229		0.543431933	0.658755742	0.010144870	0.104662755	0.032258078
2020-01-24T04:25:00	0.2228	-0.237		0.544251062	0.659917849	0.010172976	0.104952723	0.032347449
2020-01-24T04:30:00	0.2235	-0.245		0.546425546	0.663005475	0.010247779	0.105724447	0.032585301
2020-01-24T04:35:00	0.2240	-0.255		0.548260042	0.665613354	0.010311102	0.106377734	0.032786651
2020-01-24T04:40:00	0.2244	-0.264		0.549755090	0.667740720	0.010362853	0.106911645	0.032951207
2020-01-24T04:45:00	0.2246	-0.273		0.550234295	0.668422990	0.010379469	0.107083065	0.033004041
2020-01-24T04:50:00	0.2244	-0.282		0.549698079	0.667659563	0.010360877	0.106891261	0.032944925
2020-01-24T04:55:00	0.2248	-0.290		0.550854136	0.669305768	0.010400981	0.107304999	0.033072443
2020-01-24T05:00:00	0.2254	-0.298		0.553024488	0.672399275	0.010476482	0.108083929	0.033312517
2020-01-24T05:05:00	0.2251	-0.305		0.552150456	0.671153010	0.010446043	0.107769900	0.033215730
2020-01-24T05:10:00	0.2253	-0.312		0.552629332	0.671835751	0.010462714	0.107941897	0.033268741
2020-01-24T05:15:00	0.2244	-0.320		0.549724802	0.667697604	0.010361803	0.106900815	0.032947869
2020-01-24T05:20:00	0.2244	-0.327		0.549527041	0.667416102	0.010354951	0.106830117	0.032926080
2020-01-24T05:25:00	0.2239	-0.335		0.547974857	0.665207759	0.010301245	0.106276042	0.032755308
2020-01-24T05:30:00	0.2247	-0.343		0.550485449	0.668780646	0.010388182	0.107172963	0.033031748
2020-01-24T05:35:00	0.2246	-0.351		0.550287732	0.668499082	0.010381322	0.107102189	0.033009935
2020-01-24T05:40:00	0.2255	-0.359		0.553472988	0.673039025	0.010492118	0.108245249	0.033362237
2020-01-24T05:45:00	0.2252	-0.366		0.552260833	0.671310360	0.010449884	0.107809531	0.033227945
2020-01-24T05:50:00	0.2251	-0.376		0.552063217	0.671028653	0.010443007	0.107738581	0.033206077
2020-01-24T05:55:00	0.2250	-0.383		0.551527283	0.670264824	0.010424368	0.107546284	0.033146809
2020-01-24T06:00:00	0.2248	-0.392		0.550991267	0.669501113	0.010405743	0.107354131	0.033087586
2020-01-24T06:05:00	0.2239	-0.400		0.548085366	0.665364920	0.010305064	0.106315442	0.032767452
2020-01-24T06:10:00	0.2236	-0.409		0.546871330	0.663638938	0.010263148	0.105883009	0.032634172
2020-01-24T06:15:00	0.2236	-0.415		0.547012187	0.663839131	0.010268007	0.105933136	0.032649621
2020-01-24T06:20:00	0.2243	-0.421		0.549184941	0.666929215	0.010343102	0.106707874	0.032888403
2020-01-24T06:25:00	0.2244	-0.426		0.549664225	0.667611372	0.010359704	0.106879157	0.032941194
2020-01-24T06:30:00	0.2245	-0.433		0.549804969	0.667811726	0.010364582	0.106929481	0.032956705
2020-01-24T06:35:00	0.2246	-0.439		0.550284167	0.668494006	0.010381199	0.107100913	0.033009542
2020-01-24T06:40:00	0.2245	-0.443		0.550086439	0.668212458	0.010374341	0.107030160	0.032987735
2020-01-24T06:45:00	0.2247	-0.446		0.550565598	0.668894793	0.010390964	0.107201659	0.033040593
2020-01-24T06:50:00	0.2247	-0.448		0.550706306	0.669095199	0.010395848	0.107252048	0.033056123
2020-01-24T06:55:00	0.2250	-0.451		0.551523720	0.670259745	0.010424244	0.107545006	0.033146415
2020-01-24T07:00:00	0.2239	-0.453		0.547940986	0.665159592	0.010300074	0.106263968	0.032751587
2020-01-24T07:05:00	0.2234	-0.456		0.546388091	0.662952259	0.010246488	0.105711130	0.032581197
2020-01-24T07:10:00	0.2241	-0.458		0.548561236	0.666041787	0.010321517	0.106485187	0.032819769
2020-01-24T07:15:00	0.2244	-0.459		0.549717671	0.667687452	0.010361556	0.106898265	0.032947084
2020-01-24T07:20:00	0.2245	-0.458		0.549858412	0.667887809	0.010366434	0.106948594	0.032962595
2020-01-24T07:25:00	0.2253	-0.459		0.552705869	0.671944889	0.010465380	0.107969399	0.033277217
2020-01-24T07:30:00	0.2253	-0.460		0.552508278	0.671663146	0.010458499	0.107898405	0.033255336
2020-01-24T07:35:00	0.2254	-0.457		0.552987104	0.672345957	0.010475179	0.108070488	0.033308374
2020-01-24T07:40:00	0.2260	-0.455		0.555156126	0.675441366	0.010550905	0.108851744	0.033549165
2020-01-24T07:45:00	0.2266	-0.453		0.556986020	0.678055813	0.010615007	0.109513070	0.033752992
2020-01-24T07:50:00	0.2267	-0.450		0.557464230	0.678739506	0.010631791	0.109686230	0.033806361
2020-01-24T07:55:00	0.2263	-0.447		0.555915586	0.676526104	0.010577485	0.109125967	0.033633683
2020-01-24T08:00:00	0.2259	-0.446		0.554704283	0.674796222	0.010535107	0.108688760	0.033498931
2020-01-24T08:05:00	0.2256	-0.441		0.553830673	0.673549354	0.010504597	0.108373992	0.033401917
2020-01-24T08:10:00	0.2259	-0.436		0.554647353	0.674714950	0.010533118	0.108668234	0.033492605
2020-01-24T08:15:00	0.2245	-0.430		0.550052588	0.668164262	0.010373167	0.107018049	0.032984002
2020-01-24T08:20:00	0.2239	-0.422		0.547823336	0.664992292	0.010296010	0.106222033	0.032738662
2020-01-24T08:25:00	0.2241	-0.414		0.548641429	0.666155871	0.010324291	0.106513806	0.032828590
2020-01-24T08:30:00	0.2245	-0.405		0.549797838	0.667801575	0.010364335	0.106926931	0.032955919
2020-01-24T08:35:00	0.2240	-0.396		0.548245774	0.665593059	0.010310608	0.106372645	0.032785082
2020-01-24T08:40:00	0.2240	-0.386		0.548386575	0.665793331	0.010315476	0.106422869	0.032800562
2020-01-24T08:45:00	0.2233	-0.373		0.545817388	0.662141541	0.010226830	0.105508324	0.032518690
2020-01-24T08:50:00	0.2227	-0.360		0.543924494	0.659454477	0.010161766	0.104837071	0.032311803
2020-01-24T08:55:00	0.2235	-0.347		0.546438018	0.663023196	0.010248209	0.105728882	0.032586668
2020-01-24T09:00:00	0.2236	-0.330		0.546917682	0.663704814	0.010264747	0.105899503	0.032639255
2020-01-24T09:05:00	0.2235	-0.311		0.546719761	0.663423540	0.010257921	0.105829084	0.032617551
2020-01-24T09:10:00	0.2242	-0.291		0.548892698	0.666513363	0.010332985	0.106603503	0.032856235
2020-01-24T09:15:00	0.2247	-0.268		0.550725891	0.669123096	0.010396528	0.107259062	0.033058285
2020-01-24T09:20:00	0.2252	-0.241		0.552219878	0.671251975	0.010448459	0.107794825	0.033223412
2020-01-24T09:25:00	0.2251	-0.213		0.552022260	0.670970270	0.010441582	0.107723879	0.033201546
2020-01-24T09:30:00	0.2257	-0.184		0.553853803	0.673582358	0.010505404	0.108382320	0.033404484
2020-01-24T09:35:00	0.2263	-0.154		0.556022284	0.676678540	0.010581222	0.109164521	0.033645566
2020-01-24T09:40:00	0.2269	-0.115		0.558189416	0.679776657	0.010657270	0.109949086	0.033887376
2020-01-24T09:45:00	0.2273	-0.073		0.559342654	0.681426896	0.010697851	0.110367755	0.034016414
2020-01-24T09:50:00	0.2273	-0.032		0.559483007	0.681627809	0.010702795	0.110418763	0.034032135
2020-01-24T09:55:00	0.2274	-0.002		0.559623354	0.681828731	0.010707740	0.110469782	0.034047860
2020-01-24T10:00:00	0.2270	0.021		0.558413340	0.680096999	0.010665143	0.110030316	0.033912412
2020-01-24T10:05:00	0.2267	0.037		0.557253749	0.678438561	0.010624402	0.109609998	0.033782866
2020-01-24T10:10:00	0.2267	0.041		0.557445026	0.678712048	0.010631117	0.109679274	0.033804217
2020-01-24T10:15:00	0.2265	0.052		0.556622957	0.677536871	0.010602273	0.109381697	0.033712501
2020-01-24T10:20:00	0.2255	0.068		0.553434536	0.672984170	0.010490777	0.108231414	0.033357973
2020-01-24T10:25:00	0.2254	0.080		0.552949720	0.672292640	0.010473876	0.108057047	0.033304231
2020-01-24T10:30:00	0.2245	0.091		0.550096406	0.668226650	0.010374686	0.107033726	0.032988834
2020-01-24T10:35:00	0.2250	0.107		0.551641589	0.670427715	0.010428342	0.107587283	0.033159445
2020-01-24T10:40:00	0.2246	0.123		0.550141296	0.668290567	0.010376243	0.107049787	0.032993784
2020-01-24T10:45:00	0.2242	0.139		0.548978943	0.666636080	0.010335970	0.106634299	0.032865727
2020-01-24T10:50:00	0.2238	0.156		0.547477500	0.664500572	0.010284066	0.106098812	0.032700684
2020-01-24T10:55:00	0.2237	0.174		0.547330600	0.664291735	0.010278995	0.106046494	0.032684559
2020-01-24T11:00:00	0.2230	0.190		0.544811657	0.660713486	0.010192234	0.105151404	0.032408684
2020-01-24T11:05:00	0.2222	0.206		0.542290881	0.657137836	0.010105783	0.104259504	0.032133792
2020-01-24T11:10:00	0.2214	0.222		0.539428781	0.653084325	0.010008077	0.103251487	0.031823111
2020-01-24T11:15:00	0.2206	0.243		0.536564311	0.649034158	0.009910770	0.102247584	0.031513698
2020-01-24T11:20:00	0.2200	0.261		0.534717522	0.646426474	0.009848288	0.101602967	0.031315021
2020-01-24T11:25:00	0.2196	0.278		0.533209878	0.644299728	0.009797427	0.101078251	0.031153299
2020-01-24T11:30:00	0.2190	0.294		0.531361294	0.641694565	0.009735246	0.100436742	0.030955579
2020-01-24T11:35:00	0.2191	0.307		0.531554005	0.641966018	0.009741719	0.100503522	0.030976162
2020-01-24T11:40:00	0.2194	0.323		0.532767339	0.643675816	0.009782523	0.100924491	0.031105908
2020-01-24T11:45:00	0.2191	0.340		0.531599137	0.642029595	0.009743236	0.100519165	0.030980983
2020-01-24T11:50:00	0.2184	0.355		0.529409213	0.638946568	0.009669800	0.099761549	0.030747478
2020-01-24T11:55:00	0.2179	0.374		0.527558589	0.636344257	0.009607961	0.099123564	0.030550845
2020-01-24T12:00:00	0.2179	0.392		0.527410840	0.636136616	0.009603033	0.099072717	0.030535174
2020-01-24T12:05:00	0.2170	0.410		0.524536371	0.632100462	0.009507401	0.098086106	0.030231090
2020-01-24T12:10:00	0.2164	0.425		0.522341951	0.629023707	0.009434718	0.097336247	0.029999977
2020-01-24T12:15:00	0.2157	0.443		0.520146129	0.625948898	0.009362269	0.096588800	0.029769606
2020-01-24T12:20:00	0.2155	0.462		0.519315145	0.624786290	0.009334924	0.096306691	0.029682658
2020-01-24T12:25:00	0.2143	0.484		0.515408405	0.619327975	0.009206905	0.094985943	0.029275590
2020-01-24T12:30:00	0.2139	0.509		0.513892276	0.617213036	0.009157462	0.094475847	0.029118374
2020-01-24T12:35:00	0.2136	0.536		0.512717643	0.615575749	0.009119247	0.094081592	0.028996860
2020-01-24T12:40:00	0.2130	0.566		0.510858004	0.612985932	0.009058910	0.093459106	0.028805004
2020-01-24T12:45:00	0.2120	0.599		0.507284317	0.608016895	0.008943522	0.092268668	0.028438099
2020-01-24T12:50:00	0.2118	0.632		0.506792967	0.607334503	0.008927715	0.092105589	0.028387837
2020-01-24T12:55:00	0.2113	0.661		0.504930105	0.604749107	0.008867912	0.091488616	0.028197680
2020-01-24T13:00:00	0.2111	0.688		0.504438417	0.604067178	0.008852161	0.091326116	0.028147596
2020-01-24T13:05:00	0.2106	0.708		0.502574270	0.601483536	0.008792571	0.090711335	0.027958114
2020-01-24T13:10:00	0.2111	0.723		0.504140915	0.603654663	0.008842638	0.091227863	0.028117313
2020-01-24T13:15:00	0.2116	0.734		0.506049676	0.606302582	0.008903829	0.091859166	0.028311887
2020-01-24T13:20:00	0.2117	0.740		0.506243813	0.606572062	0.008910065	0.091923496	0.028331714
2020-01-24T13:25:00	0.2120	0.747		0.507466119	0.608269433	0.008949374	0.092329044	0.028456708
2020-01-24T13:30:00	0.2109	0.749		0.503545833	0.602829739	0.008823603	0.091031490	0.028056789
2020-01-24T13:35:00	0.2110	0.751		0.504083144	0.603574566	0.008840789	0.091208790	0.028111435
2020-01-24T13:40:00	0.2107	0.752		0.502905138	0.601941903	0.008803133	0.090820301	0.027991699
2020-01-24T13:45:00	0.2101	0.751		0.500696816	0.598884277	0.008732758	0.090094257	0.027767925
2020-01-24T13:50:00	0.2103	0.752		0.501577859	0.600103692	0.008760802	0.090383575	0.027857096
2020-01-24T13:55:00	0.2103	0.751		0.501428987	0.599897600	0.008756060	0.090334656	0.027842018
2020-01-24T14:00:00	0.2098	0.750		0.499906647	0.597791168	0.008707646	0.089835174	0.027688073
2020-01-24T14:05:00	0.2093	0.749		0.498040023	0.595210900	0.008648465	0.089224615	0.027499893
2020-01-24T14:10:00	0.2092	0.746		0.497890996	0.595005018	0.008643748	0.089175959	0.027484897
2020-01-24T14:15:00	0.2087	0.743		0.496023267	0.592426248	0.008584750	0.088567279	0.027297296
2020-01-24T14:20:00	0.2081	0.742		0.494154513	0.589848866	0.008525920	0.087960341	0.027110231
2020-01-24T14:25:00	0.2085	0.740		0.495381157	0.591540335	0.008564513	0.088358499	0.027232948
2020-01-24T14:30:00	0.2094	0.736		0.498325759	0.595605697	0.008657511	0.089317943	0.027528658
2020-01-24T14:35:00	0.2104	0.733		0.501954347	0.600624963	0.008772799	0.090507347	0.027895243
2020-01-24T14:40:00	0.2120	0.730		0.507292972	0.608028918	0.008943801	0.092271542	0.028438985
2020-01-24T14:45:00	0.2126	0.727		0.509542459	0.611155533	0.009016348	0.093019995	0.028669666
2020-01-24T14:50:00	0.2132	0.722		0.511448209	0.613807577	0.009078038	0.093656444	0.028865826
2020-01-24T14:55:00	0.2136	0.717		0.513010796	0.615984263	0.009128777	0.094179909	0.029027163
2020-01-24T15:00:00	0.2136	0.711		0.512862421	0.615777491	0.009123953	0.094130140	0.029011823
2020-01-24T15:05:00	0.2145	0.706		0.515792008	0.619863380	0.009219436	0.095115223	0.029315436
2020-01-24T15:10:00	0.2148	0.700		0.517010912	0.621565428	0.009259310	0.095526596	0.029442225
2020-01-24T15:15:00	0.2141	0.693		0.514469720	0.618018328	0.009176278	0.094669964	0.029178202
2020-01-24T15:20:00	0.2138	0.685		0.513637359	0.616857621	0.009149162	0.094390217	0.029091981
2020-01-24T15:25:00	0.2132	0.675		0.511435959	0.613790520	0.009077641	0.093652346	0.028864563
2020-01-24T15:30:00	0.2132	0.665		0.511629791	0.614060419	0.009083927	0.093717199	0.028884551
2020-01-24T15:35:00	0.2141	0.656		0.514560431	0.618144857	0.009179235	0.094700476	0.029187607
2020-01-24T15:40:00	0.2145	0.647		0.515779773	0.619846301	0.009219036	0.095111098	0.029314164
2020-01-24T15:45:00	0.2142	0.637		0.514947731	0.618685156	0.009191868	0.094830806	0.029227775
2020-01-24T15:50:00	0.2138	0.623		0.513431398	0.616570499	0.009142459	0.094321059	0.029070666
2020-01-24T15:55:00	0.2142	0.609		0.514993081	0.618748429	0.009193348	0.094846072	0.029232481
2020-01-24T16:00:00	0.2142	0.600		0.514844791	0.618541539	0.009188509	0.094796157	0.029217096
2020-01-24T16:05:00	0.2145	0.587		0.515870450	0.619972879	0.009222000	0.095141670	0.029323587
2020-01-24T16:10:00	0.2138	0.577		0.513476768	0.616633744	0.009143935	0.094336291	0.029075361
2020-01-24T16:15:00	0.2138	0.564		0.513476768	0.616633744	0.009143935	0.094336291	0.029075361
2020-01-24T16:20:00	0.2122	0.551		0.507999205	0.609010088	0.008966545	0.092506196	0.028511308
2020-01-24T16:25:00	0.2129	0.538		0.510396717	0.612343957	0.009043974	0.093305017	0.028757512
2020-01-24T16:30:00	0.2131	0.526		0.511081412	0.613296914	0.009066148	0.093533779	0.028828019
2020-01-24T16:35:00	0.2131	0.518		0.511081412	0.613296914	0.009066148	0.093533779	0.028828019
2020-01-24T16:40:00	0.2115	0.508		0.505600012	0.605678523	0.008889395	0.091710249	0.028265989
2020-01-24T16:45:00	0.2120	0.494		0.507313893	0.608057977	0.008944474	0.092278489	0.028441126
2020-01-24T16:50:00	0.2114	0.482		0.505257133	0.605202774	0.008878396	0.091596777	0.028231016
2020-01-24T16:55:00	0.2123	0.473		0.508341810	0.609486214	0.008977590	0.092620137	0.028546426
2020-01-24T17:00:00	0.2112	0.465		0.504571271	0.604251415	0.008856416	0.091370009	0.028161124
2020-01-24T17:05:00	0.2104	0.454		0.501826445	0.600447862	0.008768722	0.090465290	0.027882281
2020-01-24T17:10:00	0.2112	0.442		0.504571271	0.604251415	0.008856416	0.091370009	0.028161124
2020-01-24T17:15:00	0.2110	0.434		0.503885271	0.603300245	0.008834458	0.091143476	0.028091305
2020-01-24T17:20:00	0.2108	0.425		0.503199134	0.602349263	0.008812523	0.090917179	0.028021558
2020-01-24T17:25:00	0.2088	0.416		0.496330161	0.592849784	0.008594430	0.088667151	0.027328077
2020-01-24T17:30:00	0.2078	0.407		0.492890476	0.588107097	0.008486241	0.087550981	0.026984063
2020-01-24T17:35:00	0.2087	0.394		0.495986349	0.592375304	0.008583585	0.088555269	0.027293594
2020-01-24T17:40:00	0.2091	0.386		0.497361389	0.594273507	0.008626999	0.089003153	0.027431636
2020-01-24T17:45:00	0.2088	0.377		0.496330161	0.592849784	0.008594430	0.088667151	0.027328077
2020-01-24T17:50:00	0.2111	0.364		0.504228288	0.603775807	0.008845434	0.091256713	0.028126205
2020-01-24T17:55:00	0.2115	0.354		0.505600012	0.605678523	0.008889395	0.091710249	0.028265989
2020-01-24T18:00:00	0.2123	0.343		0.508341810	0.609486214	0.008977590	0.092620137	0.028546426
2020-01-24T18:05:00	0.2134	0.330		0.512108198	0.614726702	0.009099451	0.093877362	0.028933915
2020-01-24T18:10:00	0.2139	0.323		0.513818825	0.617110622	0.009155070	0.094451170	0.029110768
2020-01-24T18:15:00	0.2136	0.313		0.512792551	0.615680129	0.009121682	0.094106709	0.029004602
2020-01-24T18:20:00	0.2143	0.302		0.515186711	0.619018605	0.009199667	0.094911270	0.029252575
2020-01-24T18:25:00	0.2140	0.289		0.514160848	0.617587547	0.009166211	0.094566107	0.029146193
2020-01-24T18:30:00	0.2150	0.276		0.517579202	0.622359385	0.009277930	0.095718694	0.029501431
2020-01-24T18:35:00	0.2146	0.266		0.516212269	0.620450086	0.009233174	0.095256958	0.029359120
2020-01-24T18:40:00	0.2141	0.256		0.514502836	0.618064520	0.009177357	0.094681103	0.029181635
2020-01-24T18:45:00	0.2136	0.243		0.512792551	0.615680129	0.009121682	0.094106709	0.029004602
2020-01-24T18:50:00	0.2126	0.232		0.509369418	0.610914874	0.009010756	0.092962313	0.028651888
2020-01-24T18:55:00	0.2107	0.220		0.502856013	0.601873842	0.008801564	0.090804118	0.027986711
2020-01-24T19:00:00	0.2090	0.208		0.497017681	0.593798885	0.008616137	0.088891094	0.027397098
2020-01-24T19:05:00	0.2094	0.201		0.498392306	0.595697653	0.008659618	0.089339686	0.027535359
2020-01-24T19:10:00	0.2093	0.194		0.498048702	0.595222890	0.008648739	0.089227449	0.027500766
2020-01-24T19:15:00	0.2078	0.188		0.492890476	0.588107097	0.008486241	0.087550981	0.026984063
2020-01-24T19:20:00	0.2064	0.178		0.488069068	0.581475234	0.008335738	0.085998272	0.026505503
2020-01-24T19:25:00	0.2079	0.168		0.493234601	0.588581154	0.008497034	0.087662332	0.027018382
2020-01-24T19:30:00	0.2090	0.160		0.497017681	0.593798885	0.008616137	0.088891094	0.027397098
2020-01-24T19:35:00	0.2094	0.154		0.498392306	0.595697653	0.008659618	0.089339686	0.027535359
2020-01-24T19:40:00	0.2095	0.147		0.498735875	0.596172462	0.008670503	0.089451981	0.027569969
2020-01-24T19:45:00	0.2102	0.138		0.501139894	0.599497444	0.008746856	0.090239698	0.027812751
2020-01-24T19:50:00	0.2105	0.126		0.502169669	0.600923142	0.008779664	0.090578174	0.027917073
2020-01-24T19:55:00	0.2105	0.114		0.502169669	0.600923142	0.008779664	0.090578174	0.027917073
2020-01-24T20:00:00	0.2103	0.106		0.501483187	0.599972630	0.008757786	0.090352464	0.027847507
2020-01-24T20:05:00	0.2100	0.099		0.500453204	0.598547214	0.008725012	0.090014342	0.027743294
2020-01-24T20:10:00	0.2106	0.093		0.502512858	0.601398468	0.008790611	0.090691117	0.027951883
2020-01-24T20:15:00	0.2104	0.086		0.501826445	0.600447862	0.008768722	0.090465290	0.027882281
2020-01-24T20:20:00	0.2094	0.079		0.498392306	0.595697653	0.008659618	0.089339686	0.027535359
2020-01-24T20:25:00	0.2087	0.069		0.495986349	0.592375304	0.008583585	0.088555269	0.027293594
2020-01-24T20:30:00	0.2093	0.060		0.498048702	0.595222890	0.008648739	0.089227449	0.027500766
2020-01-24T20:35:00	0.2097	0.051		0.499422911	0.597122222	0.008692290	0.089676749	0.027639245
2020-01-24T20:40:00	0.2115	0.045		0.505600012	0.605678523	0.008889395	0.091710249	0.028265989
2020-01-24T20:45:00	0.2121	0.034		0.507656567	0.608534009	0.008955507	0.092392313	0.028476208
2020-01-24T20:50:00	0.2130	0.025		0.510739082	0.612820412	0.009055058	0.093419369	0.028792757
2020-01-24T20:55:00	0.2139	0.018		0.513818825	0.617110622	0.009155070	0.094451170	0.029110768
2020-01-24T21:00:00	0.2153	0.011		0.518604044	0.623791853	0.009311556	0.096065610	0.029608354
2020-01-24T21:05:00	0.2153	0.005		0.518604044	0.623791853	0.009311556	0.096065610	0.029608354
2020-01-24T21:10:00	0.2156	0.000		0.519628581	0.625224745	0.009345233	0.096413050	0.029715438
2020-01-24T21:15:00	0.2163	-0.008		0.522017979	0.628569803	0.009424011	0.097225787	0.029965932
2020-01-24T21:20:00	0.2167	-0.016		0.523382604	0.630482300	0.009469151	0.097691490	0.030109466
2020-01-24T21:25:00	0.2170	-0.024		0.524405718	0.631917166	0.009503066	0.098041379	0.030217305
2020-01-24T21:30:00	0.2175	-0.031		0.526110232	0.634309549	0.009559703	0.098625691	0.030397396
2020-01-24T21:35:00	0.2172	-0.040		0.525087625	0.632873978	0.009525704	0.098274929	0.030289288
2020-01-24T21:40:00	0.2171	-0.053		0.524746689	0.632395548	0.009514382	0.098158125	0.030253287
2020-01-24T21:45:00	0.2182	-0.061		0.528495135	0.637660861	0.009639231	0.099446172	0.030650276
2020-01-24T21:50:00	0.2181	-0.069		0.528154536	0.637181961	0.009627853	0.099328786	0.030614096
2020-01-24T21:55:00	0.2179	-0.076		0.527473236	0.636224303	0.009605114	0.099094188	0.030541791
2020-01-24T22:00:00	0.2186	-0.087		0.529857196	0.639576931	0.009684800	0.099916296	0.030795173
2020-01-24T22:05:00	0.2187	-0.095		0.530294017	0.640191745	0.009699437	0.100067304	0.030841715
2020-01-24T22:10:00	0.2195	-0.107		0.533112492	0.644162414	0.009794146	0.101044404	0.031142867
2020-01-24T22:15:00	0.2187	-0.121		0.530146385	0.639983940	0.009694489	0.100016256	0.030825981
2020-01-24T22:20:00	0.2180	-0.133		0.527859083	0.636766617	0.009617989	0.099227016	0.030582730
2020-01-24T22:25:00	0.2183	-0.143		0.528977294	0.638338963	0.009655350	0.099612465	0.030701529
2020-01-24T22:30:00	0.2188	-0.148		0.530775924	0.640870199	0.009715598	0.100234032	0.030893102
2020-01-24T22:35:00	0.2195	-0.158		0.532913780	0.643882257	0.009787454	0.100975358	0.031121586
2020-01-24T22:40:00	0.2194	-0.171		0.532669940	0.643538519	0.009779245	0.100890665	0.031095483
2020-01-24T22:45:00	0.2192	-0.179		0.532085872	0.642715362	0.009759595	0.100687945	0.031033003
2020-01-24T22:50:00	0.2192	-0.187		0.531841973	0.642371706	0.009751396	0.100603353	0.031006930
2020-01-24T22:55:00	0.2189	-0.197		0.530917438	0.641069465	0.009720346	0.100283018	0.030908200
2020-01-24T23:00:00	0.2185	-0.205		0.529652204	0.639288463	0.009677935	0.099845471	0.030773344
2020-01-24T23:05:00	0.2190	-0.213		0.531450482	0.641820192	0.009738242	0.100467646	0.030965104
2020-01-24T23:10:00	0.2186	-0.219		0.529845011	0.639559783	0.009684392	0.099912086	0.030793875
2020-01-24T23:15:00	0.2184	-0.224		0.529260464	0.638737297	0.009664823	0.099710193	0.030731650
2020-01-24T23:20:00	0.2185	-0.231		0.529697360	0.639352005	0.009679447	0.099861070	0.030778152
2020-01-24T23:25:00	0.2183	-0.239		0.528772250	0.638050568	0.009648494	0.099541729	0.030679728
2020-01-24T23:30:00	0.2186	-0.249		0.529890165	0.639623328	0.009685904	0.099927690	0.030798684
2020-01-24T23:35:00	0.2183	-0.257		0.528965106	0.638321819	0.009654942	0.099608259	0.030700233
2020-01-24T23:40:00	0.2180	-0.262		0.528039799	0.637020657	0.009624022	0.099289258	0.030601914
2020-01-24T23:45:00	0.2184	-0.269		0.529157951	0.638593085	0.009661393	0.099674808	0.030720744
2020-01-24T23:50:00	0.2176	-0.277		0.526529233	0.634898003	0.009573651	0.098769593	0.030441748
2020-01-24T23:55:00	0.2167	-0.287		0.523557452	0.630727454	0.009474943	0.097751241	0.030127882
2020-01-25T00:00:00	0.2159	-0.300		0.520583101	0.626560478	0.009376664	0.096737313	0.029815379
2020-01-25T00:05:00	0.2155	-0.310		0.519314062	0.624784775	0.009334888	0.096306324	0.029682544
2020-01-25T00:10:00	0.2146	-0.322		0.516336033	0.620622895	0.009237222	0.095298719	0.029371991
2020-01-25T00:15:00	0.2142	-0.329		0.515065422	0.618849365	0.009195708	0.094870428	0.029239987
2020-01-25T00:20:00	0.2146	-0.337		0.516187802	0.620415925	0.009232374	0.095248704	0.029356576
2020-01-25T00:25:00	0.2145	-0.343		0.515942774	0.620073840	0.009224363	0.095166057	0.029331103
2020-01-25T00:30:00	0.2143	-0.352		0.515355858	0.619254643	0.009205189	0.094968241	0.029270134
2020-01-25T00:35:00	0.2142	-0.360		0.514768843	0.618435585	0.009186032	0.094770597	0.029209218
2020-01-25T00:40:00	0.2152	-0.364		0.518283318	0.623343468	0.009301026	0.095956974	0.029574871
2020-01-25T00:45:00	0.2145	-0.370		0.515988110	0.620137131	0.009225845	0.095181346	0.029335815
2020-01-25T00:50:00	0.2146	-0.375		0.516426696	0.620749493	0.009240188	0.095329316	0.029381421
2020-01-25T00:55:00	0.2155	-0.383		0.519256546	0.624704328	0.009332997	0.096286813	0.029676531
2020-01-25T01:00:00	0.2141	-0.391		0.514569069	0.618156905	0.009179517	0.094703382	0.029188502
2020-01-25T01:05:00	0.2146	-0.400		0.516375249	0.620677653	0.009238505	0.095311952	0.029376069
2020-01-25T01:10:00	0.2152	-0.411		0.518180478	0.623199713	0.009297651	0.095922154	0.029564139
2020-01-25T01:15:00	0.2157	-0.418		0.519984759	0.625723085	0.009356955	0.096533985	0.029752712
2020-01-25T01:20:00	0.2166	-0.426		0.523152809	0.630160140	0.009461543	0.097612990	0.030085271
2020-01-25T01:25:00	0.2158	-0.435		0.520519498	0.626471450	0.009374568	0.096715689	0.029808715
2020-01-25T01:30:00	0.2167	-0.444		0.523345980	0.630430952	0.009467939	0.097678977	0.030105609
2020-01-25T01:35:00	0.2163	-0.452		0.522077961	0.628653834	0.009425993	0.097246233	0.029972233
2020-01-25T01:40:00	0.2150	-0.459		0.517736003	0.622578498	0.009283071	0.095771732	0.029517778
2020-01-25T01:45:00	0.2140	-0.469		0.514072643	0.617464544	0.009163337	0.094536459	0.029137055
2020-01-25T01:50:00	0.2129	-0.482		0.510405365	0.612355990	0.009044254	0.093307905	0.028758402
2020-01-25T01:55:00	0.2124	-0.489		0.508790027	0.610109255	0.008992049	0.092769308	0.028592402
2020-01-25T02:00:00	0.2113	-0.495		0.505117082	0.605008478	0.008873906	0.091550449	0.028216737
2020-01-25T02:05:00	0.2109	-0.500		0.503499244	0.602765166	0.008822114	0.091016125	0.028052054
2020-01-25T02:10:00	0.2098	-0.507		0.499820603	0.597672166	0.008704913	0.089806984	0.027679385
2020-01-25T02:15:00	0.2092	-0.515		0.497856628	0.594957541	0.008642661	0.089164740	0.027481439
2020-01-25T02:20:00	0.2093	-0.525		0.497953931	0.595091961	0.008645740	0.089196505	0.027491229
2020-01-25T02:25:00	0.2080	-0.534		0.493581224	0.589058749	0.008507912	0.087774563	0.027052973
2020-01-25T02:30:00	0.2078	-0.541		0.492990455	0.588244815	0.008489376	0.087583325	0.026994031
2020-01-25T02:35:00	0.2079	-0.545		0.493432002	0.588853131	0.008503228	0.087726239	0.027038079
2020-01-25T02:40:00	0.2086	-0.550		0.495593272	0.591832952	0.008571195	0.088427441	0.027254196
2020-01-25T02:45:00	0.2096	-0.555		0.499127500	0.596713799	0.008682918	0.089580069	0.027609447
2020-01-25T02:50:00	0.2104	-0.561		0.501971685	0.600648972	0.008773351	0.090513049	0.027897001
2020-01-25T02:55:00	0.2103	-0.568		0.501725637	0.600308286	0.008765510	0.090432148	0.027872066
2020-01-25T03:00:00	0.2093	-0.573		0.498045082	0.595217890	0.008648625	0.089226267	0.027500402
2020-01-25T03:05:00	0.2093	-0.583		0.498142380	0.595352317	0.008651705	0.089258042	0.027510195
2020-01-25T03:10:00	0.2091	-0.591		0.497552401	0.594537313	0.008633038	0.089065459	0.027450840
2020-01-25T03:15:00	0.2082	-0.599		0.494211362	0.589927230	0.008527706	0.087978774	0.027115913
2020-01-25T03:20:00	0.2070	-0.608		0.490178276	0.584374166	0.008401413	0.086675834	0.026714334
2020-01-25T03:25:00	0.2067	-0.612		0.489242421	0.583087471	0.008372242	0.086374874	0.026621575
2020-01-25T03:30:00	0.2070	-0.615		0.490373319	0.584642416	0.008407499	0.086738622	0.026733686
2020-01-25T03:35:00	0.2072	-0.622		0.490815206	0.585250273	0.008421296	0.086880960	0.026777556
2020-01-25T03:40:00	0.2076	-0.630		0.492289802	0.587279851	0.008467417	0.087356784	0.026924209
2020-01-25T03:45:00	0.2082	-0.638		0.494451797	0.590258692	0.008535265	0.088056755	0.027139947
2020-01-25T03:50:00	0.2074	-0.647		0.491452017	0.586126542	0.008441198	0.087086288	0.026840840
2020-01-25T03:55:00	0.2070	-0.656		0.490172112	0.584365689	0.008401221	0.086673850	0.026713722
2020-01-25T04:00:00	0.2079	-0.663		0.493367892	0.588764797	0.008501216	0.087705481	0.027031681
2020-01-25T04:05:00	0.2071	-0.667		0.490665862	0.585044820	0.008416632	0.086832841	0.026762725
2020-01-25T04:10:00	0.2074	-0.672		0.491750628	0.586537551	0.008450539	0.087182653	0.026870540
2020-01-25T04:15:00	0.2073	-0.677		0.491113873	0.585661207	0.008430628	0.086977230	0.026807227
2020-01-25T04:20:00	0.2081	-0.681		0.493919123	0.589524415	0.008518524	0.087884038	0.027086714
2020-01-25T04:25:00	0.2090	-0.686		0.497065800	0.593865326	0.008617657	0.088906778	0.027401932
2020-01-25T04:30:00	0.2087	-0.694		0.496086237	0.592513145	0.008586735	0.088587767	0.027303610
2020-01-25T04:35:00	0.2090	-0.698		0.497169277	0.594008210	0.008620927	0.088940510	0.027412329
2020-01-25T04:40:00	0.2084	-0.703		0.495158160	0.591232746	0.008557490	0.088286050	0.027210618
2020-01-25T04:45:00	0.2077	-0.708		0.492457552	0.587510847	0.008472672	0.087410996	0.026940918
2020-01-25T04:50:00	0.2069	-0.714		0.489754799	0.583791846	0.008388207	0.086539584	0.026672340
2020-01-25T04:55:00	0.2066	-0.720		0.488773128	0.582442511	0.008357632	0.086224151	0.026575121
2020-01-25T05:00:00	0.2064	-0.725		0.488135815	0.581566919	0.008337812	0.086019673	0.026512099
2020-01-25T05:05:00	0.2055	-0.731		0.485084704	0.577379557	0.008243249	0.085044083	0.026211412
2020-01-25T05:10:00	0.2057	-0.739		0.485826413	0.578396796	0.008266188	0.085280736	0.026284351
2020-01-25T05:15:00	0.2052	-0.747		0.484153619	0.576103211	0.008214499	0.084747468	0.026119993
2020-01-25T05:20:00	0.2056	-0.755		0.485240466	0.577593144	0.008248064	0.085093754	0.026226721
2020-01-25T05:25:00	0.2053	-0.757		0.484257489	0.576245564	0.008217703	0.084780532	0.026130183
2020-01-25T05:30:00	0.2046	-0.758		0.481893475	0.573007855	0.008144915	0.084029591	0.025898736
2020-01-25T05:35:00	0.2040	-0.760		0.479873292	0.570244587	0.008082968	0.083390492	0.025701760
2020-01-25T05:40:00	0.2037	-0.763		0.478888758	0.568899089	0.008052863	0.083079903	0.025606033
2020-01-25T05:45:00	0.2029	-0.764		0.476175168	0.565194608	0.007970174	0.082226818	0.025343104
2020-01-25T05:50:00	0.2027	-0.767		0.475535482	0.564322190	0.007950743	0.082026351	0.025281318
2020-01-25T05:55:00	0.2030	-0.769		0.476279284	0.565336634	0.007973339	0.082259469	0.025353167
2020-01-25T06:00:00	0.2031	-0.770		0.476677148	0.565879449	0.007985439	0.082384300	0.025391641
2020-01-25T06:05:00	0.2028	-0.772		0.475691684	0.564535191	0.007955486	0.082075279	0.025296398
2020-01-25T06:10:00	0.2032	-0.774		0.477127011	0.566493357	0.007999131	0.082525558	0.025435178
2020-01-25T06:15:00	0.2034	-0.775		0.477870462	0.567508266	0.008021784	0.082759266	0.025507209
2020-01-25T06:20:00	0.2029	-0.776		0.476193735	0.565219936	0.007970739	0.082232640	0.025344898
2020-01-25T06:25:00	0.2030	-0.780		0.476245793	0.565290948	0.007972321	0.082248966	0.025349930
2020-01-25T06:30:00	0.2030	-0.780		0.476297850	0.565361962	0.007973903	0.082265292	0.025354962
2020-01-25T06:35:00	0.2028	-0.783		0.475658187	0.564489512	0.007954469	0.082064786	0.025293164
2020-01-25T06:40:00	0.2032	-0.787		0.477093529	0.566447659	0.007998111	0.082515040	0.025431937
2020-01-25T06:45:00	0.2033	-0.787		0.477491298	0.566990602	0.008010227	0.082640033	0.025470461
2020-01-25T06:50:00	0.2032	-0.789		0.477197616	0.566589723	0.008001281	0.082547739	0.025442015
2020-01-25T06:55:00	0.2028	-0.790		0.475866446	0.564773526	0.007960794	0.082130039	0.025313276
2020-01-25T07:00:00	0.2035	-0.791		0.477993083	0.567675702	0.008025523	0.082797843	0.025519099
2020-01-25T07:05:00	0.2037	-0.790		0.478736344	0.568690865	0.008048207	0.083031872	0.025591229
2020-01-25T07:10:00	0.2041	-0.791		0.480170381	0.570650750	0.008092063	0.083484327	0.025730680
2020-01-25T07:15:00	0.2038	-0.791		0.479185933	0.569305137	0.008061944	0.083173591	0.025634909
2020-01-25T07:20:00	0.2033	-0.790		0.477509858	0.567015938	0.008010792	0.082645867	0.025472259
2020-01-25T07:25:00	0.2030	-0.788		0.476524635	0.565671357	0.007980800	0.082336438	0.025376890
2020-01-25T07:30:00	0.2025	-0.785		0.474501245	0.562912362	0.007919377	0.081702749	0.025181581
2020-01-25T07:35:00	0.2022	-0.783		0.473515146	0.561568947	0.007889527	0.081394797	0.025086667
2020-01-25T07:40:00	0.2019	-0.781		0.472528759	0.560225913	0.007859725	0.081087330	0.024991903
2020-01-25T07:45:00	0.2019	-0.778		0.472580873	0.560296851	0.007861298	0.081103560	0.024996905
2020-01-25T07:50:00	0.2015	-0.775		0.471247884	0.558483069	0.007821108	0.080688926	0.024869110
2020-01-25T07:55:00	0.2019	-0.771		0.472685099	0.560438729	0.007864445	0.081136025	0.025006911
2020-01-25T08:00:00	0.2020	-0.769		0.473083387	0.560980982	0.007876475	0.081260143	0.025045165
2020-01-25T08:05:00	0.2029	-0.764		0.475903584	0.564824175	0.007961922	0.082141678	0.025316863
2020-01-25T08:10:00	0.2031	-0.760		0.476647304	0.565838728	0.007984531	0.082374933	0.025388754
2020-01-25T08:15:00	0.2038	-0.756		0.479119009	0.569213689	0.008059899	0.083152488	0.025628404
2020-01-25T08:20:00	0.2039	-0.750		0.479516540	0.569756948	0.008072053	0.083277882	0.025667052
2020-01-25T08:25:00	0.2043	-0.745		0.480950247	0.571717273	0.008115963	0.083730894	0.025806675
2020-01-25T08:30:00	0.2046	-0.740		0.482038121	0.573205832	0.008149360	0.084075444	0.025912868
2020-01-25T08:35:00	0.2050	-0.732		0.483470762	0.575167582	0.008193445	0.084530257	0.026053046
2020-01-25T08:40:00	0.2059	-0.725		0.486282326	0.579022292	0.008280303	0.085426364	0.026329235
2020-01-25T08:45:00	0.2060	-0.717		0.486679019	0.579566674	0.008292595	0.085553175	0.026368319
2020-01-25T08:50:00	0.2077	-0.709		0.492586897	0.587688974	0.008476725	0.087452808	0.026953805
2020-01-25T08:55:00	0.2088	-0.694		0.496422446	0.592977158	0.008597342	0.088697194	0.027337337
2020-01-25T09:00:00	0.2099	-0.677		0.500253681	0.598271189	0.008718670	0.089948915	0.027723129
2020-01-25T09:05:00	0.2106	-0.657		0.502708285	0.601669182	0.008796848	0.090755462	0.027971715
2020-01-25T09:10:00	0.2113	-0.641		0.504818202	0.604593889	0.008864326	0.091451620	0.028186277
2020-01-25T09:15:00	0.2114	-0.625		0.505212741	0.605141187	0.008876973	0.091582091	0.028226490
2020-01-25T09:20:00	0.2118	-0.608		0.506635665	0.607116081	0.008922657	0.092053411	0.028371755
2020-01-25T09:25:00	0.2110	-0.585		0.503944133	0.603381845	0.008836341	0.091162903	0.028097292
2020-01-25T09:30:00	0.2111	-0.564		0.504338774	0.603929005	0.008848971	0.091293202	0.028137451
2020-01-25T09:35:00	0.2114	-0.546		0.505419198	0.605427630	0.008883594	0.091650401	0.028247544
2020-01-25T09:40:00	0.2111	-0.523		0.504442030	0.604072188	0.008852277	0.091327309	0.028147964
2020-01-25T09:45:00	0.2110	-0.499		0.503807642	0.603192632	0.008831975	0.091117859	0.028083409
2020-01-25T09:50:00	0.2109	-0.474		0.503516224	0.602788701	0.008822657	0.091021725	0.028053780
2020-01-25T09:55:00	0.2107	-0.450		0.502881664	0.601909380	0.008802384	0.090812568	0.027989315
2020-01-25T10:00:00	0.2105	-0.430		0.502246986	0.601030220	0.008782130	0.090603612	0.027924913
2020-01-25T10:05:00	0.2101	-0.406		0.500919451	0.599192358	0.008739840	0.090167323	0.027790445
2020-01-25T10:10:00	0.2102	-0.394		0.501308298	0.599730537	0.008752217	0.090295007	0.027829798
2020-01-25T10:15:00	0.2098	-0.389		0.499980398	0.597893173	0.008709988	0.089859340	0.027695521
2020-01-25T10:20:00	0.2097	-0.376		0.499339033	0.597006248	0.008689628	0.089649292	0.027630783
2020-01-25T10:25:00	0.2092	-0.368		0.497666723	0.594695217	0.008636653	0.089102760	0.027462336
2020-01-25T10:30:00	0.2085	-0.362		0.495305865	0.591436477	0.008562141	0.088334034	0.027225407
2020-01-25T10:35:00	0.2090	-0.350		0.497070511	0.593871831	0.008617806	0.088908313	0.027402406
2020-01-25T10:40:00	0.2086	-0.331		0.495740959	0.592036710	0.008575849	0.088475457	0.027268995
2020-01-25T10:45:00	0.2086	-0.310		0.495786564	0.592099633	0.008577287	0.088490288	0.027273566
2020-01-25T10:50:00	0.2087	-0.290		0.496175997	0.592637017	0.008589567	0.088616975	0.027312612
2020-01-25T10:55:00	0.2090	-0.269		0.497252858	0.594123627	0.008623568	0.088967761	0.027420728
2020-01-25T11:00:00	0.2090	-0.250		0.496954729	0.593711965	0.008614148	0.088870577	0.027390775
2020-01-25T11:05:00	0.2094	-0.231		0.498374949	0.595673669	0.008659069	0.089334015	0.027533611
2020-01-25T11:10:00	0.2097	-0.209		0.499451116	0.597161221	0.008693185	0.089685982	0.027642091
2020-01-25T11:15:00	0.2100	-0.179		0.500526943	0.598649235	0.008727356	0.090038528	0.027750749
2020-01-25T11:20:00	0.2098	-0.144		0.499885681	0.597762171	0.008706980	0.089828305	0.027685956
2020-01-25T11:25:00	0.2101	-0.115		0.500961371	0.599250371	0.008741174	0.090181084	0.027794686
2020-01-25T11:30:00	0.2095	-0.085		0.498946343	0.596463373	0.008677174	0.089520807	0.027591182
2020-01-25T11:35:00	0.2095	-0.062		0.498648362	0.596051510	0.008667730	0.089423371	0.027561151
2020-01-25T11:40:00	0.2093	-0.042		0.498006746	0.595164926	0.008647411	0.089213750	0.027496544
2020-01-25T11:45:00	0.2094	-0.027		0.498395925	0.595702654	0.008659733	0.089340868	0.027535723
2020-01-25T11:50:00	0.2104	-0.010		0.501875585	0.600515903	0.008770288	0.090481447	0.027887261
2020-01-25T11:55:00	0.2104	0.014		0.501921108	0.600578938	0.008771739	0.090496417	0.027891875
2020-01-25T12:00:00	0.2110	0.038		0.504025373	0.603494471	0.008838940	0.091189718	0.028105557
2020-01-25T12:05:00	0.2109	0.057		0.503727835	0.603082005	0.008829423	0.091091527	0.028075293
2020-01-25T12:10:00	0.2114	0.081		0.505488131	0.605523276	0.008885805	0.091673215	0.028254575
2020-01-25T12:15:00	0.2119	0.105		0.506904806	0.607489809	0.008931312	0.092142696	0.028399274
2020-01-25T12:20:00	0.2114	0.129		0.505236199	0.605173731	0.008877725	0.091589851	0.028228882
2020-01-25T12:25:00	0.2110	0.155		0.503909826	0.603334285	0.008835244	0.091151580	0.028093802
2020-01-25T12:30:00	0.2103	0.180		0.501553287	0.600069675	0.008760019	0.090375500	0.027854607
2020-01-25T12:35:00	0.2102	0.204		0.501255534	0.599657503	0.008750537	0.090277676	0.027824457
2020-01-25T12:40:00	0.2094	0.223		0.498553608	0.595920558	0.008664728	0.089392398	0.027551605
2020-01-25T12:45:00	0.2090	0.243		0.497224634	0.594084652	0.008622676	0.088958558	0.027417892
2020-01-25T12:50:00	0.2085	0.258		0.495207396	0.591300655	0.008559041	0.088302043	0.027215547
2020-01-25T12:55:00	0.2086	0.270		0.495596895	0.591837949	0.008571309	0.088428618	0.027254559
2020-01-25T13:00:00	0.2088	0.282		0.496330161	0.592849784	0.008594430	0.088667151	0.027328077
2020-01-25T13:05:00	0.2088	0.290		0.496375759	0.592912718	0.008595869	0.088681995	0.027332652
2020-01-25T13:10:00	0.2088	0.296		0.496421356	0.592975653	0.008597308	0.088696840	0.027337227
2020-01-25T13:15:00	0.2090	0.301		0.497154445	0.593987728	0.008620458	0.088935674	0.027410839
2020-01-25T13:20:00	0.2091	0.305		0.497543721	0.594525324	0.008632763	0.089062628	0.027449967
2020-01-25T13:25:00	0.2094	0.308		0.498620150	0.596012520	0.008666836	0.089414148	0.027558309
2020-01-25T13:30:00	0.2095	0.310		0.498665717	0.596075496	0.008668280	0.089429044	0.027562900
2020-01-25T13:35:00	0.2091	0.313		0.497336787	0.594239531	0.008626221	0.088995130	0.027429163
2020-01-25T13:40:00	0.2087	0.313		0.496007339	0.592404269	0.008584247	0.088562097	0.027295699
2020-01-25T13:45:00	0.2085	0.314		0.495365226	0.591518359	0.008564011	0.088353322	0.027231352
2020-01-25T13:50:00	0.2091	0.312		0.497473538	0.594428391	0.008630544	0.089039732	0.027442910
2020-01-25T13:55:00	0.2094	0.311		0.498549989	0.595915557	0.008664613	0.089391215	0.027551241
2020-01-25T14:00:00	0.2100	0.308		0.500656332	0.598828260	0.008731471	0.090080974	0.027763831
2020-01-25T14:05:00	0.2096	0.307		0.498984668	0.596516350	0.008678389	0.089533343	0.027595046
2020-01-25T14:10:00	0.2092	0.307		0.497655863	0.594680216	0.008636310	0.089099217	0.027461244
2020-01-25T14:15:00	0.2086	0.306		0.495638880	0.591895873	0.008572632	0.088442268	0.027258766
2020-01-25T14:20:00	0.2080	0.307		0.493620702	0.589113148	0.008509152	0.087787350	0.027056914
2020-01-25T14:25:00	0.2075	0.305		0.491945581	0.586805923	0.008456640	0.087245595	0.026889940
2020-01-25T14:30:00	0.2074	0.304		0.491646987	0.586394891	0.008447297	0.087149201	0.026860230
2020-01-25T14:35:00	0.2075	0.302		0.492036893	0.586931634	0.008459498	0.087275084	0.026899028
2020-01-25T14:40:00	0.2070	0.300		0.490360992	0.584625462	0.008407115	0.086734654	0.026732463
2020-01-25T14:45:00	0.2075	0.297		0.491783966	0.586583442	0.008451582	0.087193415	0.026873857
2020-01-25T14:50:00	0.2079	0.293		0.493206344	0.588542225	0.008496147	0.087653186	0.027015563
2020-01-25T14:55:00	0.2083	0.290		0.494628129	0.590501811	0.008540810	0.088113967	0.027157580
2020-01-25T15:00:00	0.2077	0.285		0.492609351	0.587719897	0.008477429	0.087460067	0.026956042
2020-01-25T15:05:00	0.2072	0.280		0.490933732	0.585413344	0.008424999	0.086919158	0.026789329
2020-01-25T15:10:00	0.2076	0.273		0.492356466	0.587371647	0.008469505	0.087378326	0.026930849
2020-01-25T15:15:00	0.2072	0.266		0.491025071	0.585539018	0.008427853	0.086948601	0.026798403
2020-01-25T15:20:00	0.2074	0.258		0.491415049	0.586075665	0.008440042	0.087074362	0.026837164
2020-01-25T15:25:00	0.2074	0.251		0.491460713	0.586138510	0.008441470	0.087089094	0.026841705
2020-01-25T15:30:00	0.2074	0.242		0.491506375	0.586201356	0.008442898	0.087103827	0.026846245
2020-01-25T15:35:00	0.2077	0.231		0.492584714	0.587685967	0.008476656	0.087452102	0.026953587
2020-01-25T15:40:00	0.2078	0.223		0.492974513	0.588222855	0.008488876	0.087578167	0.026992442
2020-01-25T15:45:00	0.2074	0.212		0.491643360	0.586389900	0.008447183	0.087148031	0.026859869
2020-01-25T15:50:00	0.2076	0.200		0.492377479	0.587400582	0.008470164	0.087385117	0.026932942
2020-01-25T15:55:00	0.2075	0.186		0.492078922	0.586989498	0.008460814	0.087288658	0.026903212
2020-01-25T16:00:00	0.2075	0.173		0.491780340	0.586578450	0.008451469	0.087192245	0.026873497
2020-01-25T16:05:00	0.2075	0.162		0.491923474	0.586775489	0.008455948	0.087238457	0.026887740
2020-01-25T16:10:00	0.2081	0.148		0.494131330	0.589816909	0.008525191	0.087952825	0.027107915
2020-01-25T16:15:00	0.2081	0.134		0.493930345	0.589539882	0.008518876	0.087887675	0.027087835
2020-01-25T16:20:00	0.2087	0.121		0.496136900	0.592583061	0.008588333	0.088604252	0.027308691
2020-01-25T16:25:00	0.2084	0.107		0.494904374	0.590882736	0.008549502	0.088203633	0.027185216
2020-01-25T16:30:00	0.2093	0.092		0.498141290	0.595350812	0.008651670	0.089257686	0.027510086
2020-01-25T16:35:00	0.2093	0.076		0.498284157	0.595548212	0.008656193	0.089304352	0.027524469
2020-01-25T16:40:00	0.2096	0.063		0.499114116	0.596695296	0.008682494	0.089575690	0.027608098
2020-01-25T16:45:00	0.2097	0.049		0.499600425	0.597367680	0.008697923	0.089734869	0.027657158
2020-01-25T16:50:00	0.2098	0.034		0.499743231	0.597565163	0.008702456	0.089781639	0.027671573
2020-01-25T16:55:00	0.2097	0.020		0.499542577	0.597287688	0.008696087	0.089715927	0.027651320
2020-01-25T17:00:00	0.2094	0.006		0.498311282	0.595585693	0.008657052	0.089313214	0.027527200
2020-01-25T17:05:00	0.2100	-0.009		0.500515003	0.598632715	0.008726977	0.090034611	0.027749542
2020-01-25T17:10:00	0.2103	-0.022		0.501687692	0.600255751	0.008764301	0.090419674	0.027868222
2020-01-25T17:15:00	0.2102	-0.036		0.501143860	0.599502934	0.008746982	0.090241000	0.027813153
2020-01-25T17:20:00	0.2100	-0.050		0.500599941	0.598750235	0.008729678	0.090062474	0.027758129
2020-01-25T17:25:00	0.2100	-0.065		0.500399338	0.598472691	0.008723300	0.089996676	0.027737849
2020-01-25T17:30:00	0.2097	-0.080		0.499511844	0.597245191	0.008695112	0.089705864	0.027648219
2020-01-25T17:35:00	0.2097	-0.092		0.499654654	0.597442670	0.008699644	0.089752628	0.027662632
2020-01-25T17:40:00	0.2102	-0.105		0.501170962	0.599540445	0.008747845	0.090249900	0.027815896
2020-01-25T17:45:00	0.2105	-0.118		0.502343425	0.601163787	0.008785206	0.090635348	0.027934694
2020-01-25T17:50:00	0.2103	-0.131		0.501456437	0.599935599	0.008756934	0.090343675	0.027844798
2020-01-25T17:55:00	0.2101	-0.144		0.500912568	0.599182833	0.008739621	0.090165063	0.027789748
2020-01-25T18:00:00	0.2109	-0.159		0.503457705	0.602707596	0.008820786	0.091002426	0.028047832
2020-01-25T18:05:00	0.2106	-0.172		0.502571006	0.601479013	0.008792467	0.090710260	0.027957783
2020-01-25T18:10:00	0.2106	-0.184		0.502713687	0.601676666	0.008797021	0.090757242	0.027972263
2020-01-25T18:15:00	0.2108	-0.196		0.503199483	0.602349747	0.008812535	0.090917294	0.028021593
2020-01-25T18:20:00	0.2110	-0.208		0.504028248	0.603498457	0.008839032	0.091190667	0.028105849
2020-01-25T18:25:00	0.2105	-0.220		0.502112215	0.600843575	0.008777832	0.090559272	0.027911247
2020-01-25T18:30:00	0.2105	-0.232		0.502254916	0.601041202	0.008782383	0.090606222	0.027925717
2020-01-25T18:35:00	0.2101	-0.245		0.501024600	0.599337876	0.008743186	0.090201841	0.027801083
2020-01-25T18:40:00	0.2098	-0.258		0.499793840	0.597635153	0.008704063	0.089798217	0.027676683
2020-01-25T18:45:00	0.2107	-0.272		0.503026120	0.602109527	0.008806997	0.090860161	0.028003984
2020-01-25T18:50:00	0.2107	-0.282		0.502825660	0.601831789	0.008800595	0.090794120	0.027983630
2020-01-25T18:55:00	0.2101	-0.291		0.500908952	0.599177828	0.008739506	0.090163876	0.027789382
2020-01-25T19:00:00	0.2100	-0.301		0.500364996	0.598425180	0.008722208	0.089985414	0.027734378
2020-01-25T19:05:00	0.2098	-0.314		0.499820953	0.597672650	0.008704924	0.089807099	0.027679420
2020-01-25T19:10:00	0.2094	-0.326		0.498589759	0.595970519	0.008665873	0.089404214	0.027555247
2020-01-25T19:15:00	0.2099	-0.336		0.500106540	0.598067650	0.008713995	0.089900681	0.027708263
2020-01-25T19:20:00	0.2092	-0.346		0.497844679	0.594941034	0.008642283	0.089160840	0.027480237
2020-01-25T19:25:00	0.2096	-0.354		0.499018286	0.596562821	0.008679455	0.089544339	0.027598435
2020-01-25T19:30:00	0.2091	-0.366		0.497443136	0.594386403	0.008629583	0.089029816	0.027439854
2020-01-25T19:35:00	0.2089	-0.380		0.496898627	0.593634507	0.008612376	0.088852295	0.027385140
2020-01-25T19:40:00	0.2101	-0.390		0.500820405	0.599055293	0.008736689	0.090134814	0.027780425
2020-01-25T19:45:00	0.2104	-0.398		0.501992988	0.600678471	0.008774031	0.090520056	0.027899160
2020-01-25T19:50:00	0.2100	-0.406		0.500419212	0.598500187	0.008723932	0.090003193	0.027739858
2020-01-25T19:55:00	0.2099	-0.412		0.500218598	0.598222657	0.008717556	0.089937413	0.027719584
2020-01-25T20:00:00	0.2104	-0.420		0.501734656	0.600320774	0.008765797	0.090435113	0.027872980
2020-01-25T20:05:00	0.2102	-0.430		0.501190832	0.599567947	0.008748477	0.090256426	0.027817907
2020-01-25T20:10:00	0.2106	-0.437		0.502706458	0.601666651	0.008796790	0.090754861	0.027971530
2020-01-25T20:15:00	0.2117	-0.445		0.506278796	0.606620624	0.008911189	0.091935091	0.028335288
2020-01-25T20:20:00	0.2120	-0.454		0.507449507	0.608246357	0.008948839	0.092323527	0.028455008
2020-01-25T20:25:00	0.2124	-0.463		0.508619819	0.609872639	0.008986557	0.092712647	0.028574938
2020-01-25T20:30:00	0.2126	-0.472		0.509447270	0.611023145	0.009013272	0.092988262	0.028659886
2020-01-25T20:35:00	0.2127	-0.480		0.509932111	0.611697534	0.009028944	0.093149948	0.028709719
2020-01-25T20:40:00	0.2132	-0.489		0.511443867	0.613801531	0.009077897	0.093654992	0.028865378
2020-01-25T20:45:00	0.2137	-0.499		0.513297067	0.616383252	0.009138088	0.094275967	0.029056769
2020-01-25T20:50:00	0.2141	-0.512		0.514465381	0.618012277	0.009176136	0.094668505	0.029177753
2020-01-25T20:55:00	0.2144	-0.523		0.515633298	0.619641850	0.009214251	0.095061725	0.029298947
2020-01-25T21:00:00	0.2145	-0.531		0.515775437	0.619840248	0.009218895	0.095109637	0.029313714
2020-01-25T21:05:00	0.2141	-0.539		0.514549974	0.618130270	0.009178894	0.094696958	0.029186522
2020-01-25T21:10:00	0.2143	-0.550		0.515375994	0.619282743	0.009205847	0.094975025	0.029272225
2020-01-25T21:15:00	0.2145	-0.562		0.515859997	0.619958286	0.009221658	0.095138145	0.029322500
2020-01-25T21:20:00	0.2146	-0.573		0.516343931	0.620633922	0.009237481	0.095301384	0.029372812
2020-01-25T21:25:00	0.2154	-0.584		0.518877624	0.624174392	0.009320543	0.096158325	0.029636930
2020-01-25T21:30:00	0.2158	-0.593		0.520385444	0.626283821	0.009370151	0.096670122	0.029794670
2020-01-25T21:35:00	0.2155	-0.604		0.519503117	0.625049228	0.009341106	0.096370469	0.029702315
2020-01-25T21:40:00	0.2155	-0.615		0.519303618	0.624770168	0.009334545	0.096302781	0.029681452
2020-01-25T21:45:00	0.2169	-0.624		0.524222996	0.631660845	0.009497004	0.097978845	0.030198032
2020-01-25T21:50:00	0.2170	-0.635		0.524364779	0.631859735	0.009501708	0.098027366	0.030212986
2020-01-25T21:55:00	0.2169	-0.645		0.524165563	0.631580283	0.009495100	0.097959193	0.030191975
2020-01-25T22:00:00	0.2170	-0.653		0.524307348	0.631779170	0.009499802	0.098007711	0.030206928
2020-01-25T22:05:00	0.2176	-0.661		0.526590911	0.634984637	0.009575705	0.098790785	0.030448279
2020-01-25T22:10:00	0.2173	-0.669		0.525465825	0.633404809	0.009538271	0.098404582	0.030329248
2020-01-25T22:15:00	0.2185	-0.676		0.529451480	0.639006036	0.009671215	0.099776144	0.030751977
2020-01-25T22:20:00	0.2185	-0.682		0.529689455	0.639340881	0.009679182	0.099858339	0.030777310
2020-01-25T22:25:00	0.2186	-0.686		0.529927413	0.639675750	0.009687152	0.099940563	0.030802652
2020-01-25T22:30:00	0.2192	-0.692		0.531867023	0.642406999	0.009752238	0.100612039	0.031009608
2020-01-25T22:35:00	0.2193	-0.700		0.532445040	0.643221524	0.009771676	0.100812582	0.031071417
2020-01-25T22:40:00	0.2194	-0.709		0.532682809	0.643556659	0.009779678	0.100895134	0.031096860
2020-01-25T22:45:00	0.2196	-0.717		0.533260690	0.644371375	0.009799139	0.101095913	0.031158742
2020-01-25T22:50:00	0.2199	-0.722		0.534518517	0.646145644	0.009841567	0.101533628	0.031293650
2020-01-25T22:55:00	0.2193	-0.726		0.532375568	0.643123611	0.009769339	0.100788468	0.031063985
2020-01-25T23:00:00	0.2185	-0.733		0.529550397	0.639145213	0.009674526	0.099810305	0.030762505
2020-01-25T23:05:00	0.2189	-0.740		0.530809578	0.640917585	0.009716727	0.100245680	0.030896692
2020-01-25T23:10:00	0.2180	-0.744		0.527983124	0.636940983	0.009622129	0.099269736	0.030595897
2020-01-25T23:15:00	0.2179	-0.748		0.527539913	0.636318010	0.009607338	0.099117136	0.030548864
2020-01-25T23:20:00	0.2178	-0.753		0.527096646	0.635695117	0.009592556	0.098964634	0.030501861
2020-01-25T23:25:00	0.2182	-0.756		0.528697303	0.637945164	0.009645988	0.099515881	0.030671761
2020-01-25T23:30:00	0.2178	-0.762		0.527232214	0.635885604	0.009597076	0.099011262	0.030516233
2020-01-25T23:35:00	0.2177	-0.768		0.526788907	0.635262766	0.009582301	0.098858829	0.030469251
2020-01-25T23:40:00	0.2169	-0.773		0.524300165	0.631769093	0.009499564	0.098005252	0.030206171
2020-01-25T23:45:00	0.2161	-0.780		0.521468359	0.627799948	0.009405861	0.097038535	0.029908219
2020-01-25T23:50:00	0.2155	-0.786		0.519317272	0.624789266	0.009334994	0.096307413	0.029682880
2020-01-25T23:55:00	0.2146	-0.792		0.516139564	0.620348576	0.009230797	0.095232431	0.029351560
2020-01-26T00:00:00	0.2137	-0.795		0.513301019	0.616388761	0.009138216	0.094277294	0.029057178
2020-01-26T00:05:00	0.2126	-0.796		0.509432840	0.611003076	0.009012805	0.092983453	0.028658403
2020-01-26T00:10:00	0.2119	-0.798		0.506931475	0.607526844	0.008932169	0.092151545	0.028402001
2020-01-26T00:15:00	0.2109	-0.800		0.503742250	0.603101987	0.008829884	0.091096283	0.028076759
2020-01-26T00:20:00	0.2099	-0.801		0.500206658	0.598206140	0.008717176	0.089933499	0.027718378
2020-01-26T00:25:00	0.2102	-0.802		0.501133361	0.599488403	0.008746648	0.090237553	0.027812090
2020-01-26T00:30:00	0.2100	-0.802		0.500686666	0.598870233	0.008732435	0.090090927	0.027766899
2020-01-26T00:35:00	0.2100	-0.804		0.500583296	0.598727204	0.008729148	0.090057013	0.027756446
2020-01-26T00:40:00	0.2104	-0.803		0.501853153	0.600484843	0.008769573	0.090474071	0.027884987
2020-01-26T00:45:00	0.2104	-0.803		0.501749819	0.600341767	0.008766280	0.090440097	0.027874516
2020-01-26T00:50:00	0.2104	-0.803		0.501989723	0.600673949	0.008773926	0.090518982	0.027898829
2020-01-26T00:55:00	0.2101	-0.802		0.500856531	0.599105286	0.008737839	0.090146671	0.027784079
2020-01-26T01:00:00	0.2098	-0.803		0.499722964	0.597537135	0.008701813	0.089775001	0.027669527
2020-01-26T01:05:00	0.2099	-0.801		0.500306422	0.598344148	0.008720346	0.089966207	0.027728459
2020-01-26T01:10:00	0.2095	-0.800		0.498829146	0.596301377	0.008673459	0.089482479	0.027579369
2020-01-26T01:15:00	0.2096	-0.800		0.499069255	0.596633280	0.008681071	0.089561013	0.027603574
2020-01-26T01:20:00	0.2099	-0.799		0.500339676	0.598390152	0.008721403	0.089977111	0.027731819
2020-01-26T01:25:00	0.2099	-0.800		0.500236295	0.598247138	0.008718118	0.089943215	0.027721372
2020-01-26T01:30:00	0.2097	-0.799		0.499446020	0.597154174	0.008693023	0.089684314	0.027641576
2020-01-26T01:35:00	0.2100	-0.797		0.500372930	0.598436157	0.008722460	0.089988016	0.027735180
2020-01-26T01:40:00	0.2097	-0.795		0.499582686	0.597343150	0.008697360	0.089729060	0.027655368
2020-01-26T01:45:00	0.2097	-0.794		0.499479282	0.597200167	0.008694078	0.089695203	0.027644933
2020-01-26T01:50:00	0.2092	-0.792		0.497658004	0.594683173	0.008636378	0.089099915	0.027461459
2020-01-26T01:55:00	0.2085	-0.791		0.495491890	0.591693089	0.008568001	0.088394486	0.027244039
2020-01-26T02:00:00	0.2083	-0.789		0.494700513	0.590601619	0.008543087	0.088137458	0.027164820
2020-01-26T02:05:00	0.2076	-0.788		0.492188321	0.587140121	0.008464239	0.087323997	0.026914104
2020-01-26T02:10:00	0.2070	-0.786		0.490363138	0.584628413	0.008407182	0.086735344	0.026732676
2020-01-26T02:15:00	0.2065	-0.785		0.488536974	0.582118026	0.008350285	0.086148354	0.026551759
2020-01-26T02:20:00	0.2067	-0.783		0.489122353	0.582922442	0.008368503	0.086336299	0.026609686
2020-01-26T02:25:00	0.2054	-0.781		0.484536728	0.576628298	0.008226322	0.084869452	0.026157589
2020-01-26T02:30:00	0.2053	-0.780		0.484432866	0.576485934	0.008223116	0.084836373	0.026147394
2020-01-26T02:35:00	0.2053	-0.778		0.484329001	0.576343574	0.008219910	0.084803300	0.026137201
2020-01-26T02:40:00	0.2051	-0.776		0.483535020	0.575255610	0.008195425	0.084550685	0.026059342
2020-01-26T02:45:00	0.2052	-0.774		0.484121261	0.576058868	0.008213500	0.084737169	0.026116818
2020-01-26T02:50:00	0.2051	-0.774		0.483672327	0.575443721	0.008199656	0.084594344	0.026072798
2020-01-26T02:55:00	0.2053	-0.774		0.484258544	0.576247010	0.008217736	0.084780868	0.026130287
2020-01-26T03:00:00	0.2049	-0.771		0.483119431	0.574686344	0.008182623	0.084418609	0.026018635
2020-01-26T03:05:00	0.2048	-0.770		0.482670364	0.574071375	0.008168800	0.084276009	0.025974684
2020-01-26T03:10:00	0.2049	-0.768		0.482911617	0.574401736	0.008176225	0.084352604	0.025998292
2020-01-26T03:15:00	0.2054	-0.767		0.484533094	0.576623317	0.008226210	0.084868295	0.026157233
2020-01-26T03:20:00	0.2054	-0.767		0.484774215	0.576953856	0.008233656	0.084945113	0.026180909
2020-01-26T03:25:00	0.2054	-0.765		0.484670360	0.576811482	0.008230449	0.084912022	0.026170710
2020-01-26T03:30:00	0.2056	-0.765		0.485256405	0.577615002	0.008248557	0.085098838	0.026228288
2020-01-26T03:35:00	0.2055	-0.764		0.485152565	0.577472608	0.008245347	0.085065721	0.026218081
2020-01-26T03:40:00	0.2062	-0.765		0.487462426	0.580642115	0.008316896	0.085803883	0.026445590
2020-01-26T03:45:00	0.2069	-0.766		0.489770717	0.583813732	0.008388703	0.086544704	0.026673918
2020-01-26T03:50:00	0.2068	-0.766		0.489667015	0.583671153	0.008385471	0.086511354	0.026663639
2020-01-26T03:55:00	0.2070	-0.765		0.490252198	0.584475831	0.008403720	0.086699628	0.026721667
2020-01-26T04:00:00	0.2074	-0.764		0.491525912	0.586228245	0.008443509	0.087110130	0.026848188
2020-01-26T04:05:00	0.2076	-0.764		0.492360598	0.587377337	0.008469635	0.087379662	0.026931260
2020-01-26T04:10:00	0.2081	-0.764		0.493883234	0.589474951	0.008517396	0.087872407	0.027083129
2020-01-26T04:15:00	0.2077	-0.762		0.492652971	0.587779972	0.008478796	0.087474171	0.026960389
2020-01-26T04:20:00	0.2080	-0.763		0.493487382	0.588929438	0.008504966	0.087744171	0.027043606
2020-01-26T04:25:00	0.2081	-0.763		0.493977573	0.589604975	0.008520360	0.087902982	0.027092553
2020-01-26T04:30:00	0.2084	-0.762		0.495155589	0.591229200	0.008557409	0.088285215	0.027210361
2020-01-26T04:35:00	0.2076	-0.763		0.492205163	0.587163311	0.008464767	0.087329438	0.026915781
2020-01-26T04:40:00	0.2079	-0.763		0.493383793	0.588786706	0.008501715	0.087710629	0.027033268
2020-01-26T04:45:00	0.2082	-0.763		0.494218024	0.589936414	0.008527916	0.087980934	0.027116578
2020-01-26T04:50:00	0.2076	-0.764		0.492299548	0.587293272	0.008467723	0.087359934	0.026925180
2020-01-26T04:55:00	0.2073	-0.764		0.491068712	0.585599066	0.008429216	0.086962670	0.026802739
2020-01-26T05:00:00	0.2072	-0.763		0.490870628	0.585326523	0.008423027	0.086898820	0.026783060
2020-01-26T05:05:00	0.2074	-0.763		0.491705476	0.586475399	0.008449126	0.087168079	0.026866048
2020-01-26T05:10:00	0.2073	-0.763		0.491163129	0.585728984	0.008432167	0.086993112	0.026812122
2020-01-26T05:15:00	0.2074	-0.763		0.491653654	0.586404069	0.008447505	0.087151353	0.026860893
2020-01-26T05:20:00	0.2075	-0.763		0.491799874	0.586605341	0.008452080	0.087198551	0.026875440
2020-01-26T05:25:00	0.2076	-0.762		0.492290308	0.587280549	0.008467433	0.087356948	0.026924260
2020-01-26T05:30:00	0.2082	-0.760		0.494501004	0.590326534	0.008536812	0.088072718	0.027144867
2020-01-26T05:35:00	0.2083	-0.760		0.494647102	0.590527971	0.008541407	0.088120124	0.027159478
2020-01-26T05:40:00	0.2086	-0.760		0.495824887	0.592152509	0.008578495	0.088502750	0.027277407
2020-01-26T05:45:00	0.2087	-0.758		0.495970927	0.592354023	0.008583099	0.088550252	0.027292048
2020-01-26T05:50:00	0.2086	-0.759		0.495773128	0.592081095	0.008576863	0.088485918	0.027272219
2020-01-26T05:55:00	0.2091	-0.758		0.497294239	0.594180772	0.008624876	0.088981255	0.027424887
2020-01-26T06:00:00	0.2089	-0.757		0.496752782	0.593433154	0.008607770	0.088804776	0.027370494
2020-01-26T06:05:00	0.2089	-0.756		0.496898783	0.593634722	0.008612381	0.088852345	0.027385156
2020-01-26T06:10:00	0.2091	-0.756		0.497388483	0.594310924	0.008627855	0.089011990	0.027434360
2020-01-26T06:15:00	0.2089	-0.755		0.496847041	0.593563286	0.008610747	0.088835486	0.027379959
2020-01-26T06:20:00	0.2091	-0.755		0.497336748	0.594239477	0.008626220	0.088995117	0.027429159
2020-01-26T06:25:00	0.2091	-0.755		0.497482724	0.594441079	0.008630835	0.089042729	0.027443834
2020-01-26T06:30:00	0.2089	-0.753		0.496597547	0.593218857	0.008602869	0.088754212	0.027354910
2020-01-26T06:35:00	0.2084	-0.752		0.495024355	0.591048202	0.008553278	0.088242592	0.027197224
2020-01-26T06:40:00	0.2086	-0.750		0.495858184	0.592198454	0.008579545	0.088513580	0.027280745
2020-01-26T06:45:00	0.2082	-0.749		0.494284651	0.590028261	0.008530010	0.088002540	0.027123238
2020-01-26T06:50:00	0.2083	-0.748		0.494774727	0.590703953	0.008545422	0.088161546	0.027172245
2020-01-26T06:55:00	0.2083	-0.747		0.494576859	0.590431119	0.008539198	0.088097330	0.027152453
2020-01-26T07:00:00	0.2081	-0.745		0.494034969	0.589684087	0.008522163	0.087921586	0.027098287
2020-01-26T07:05:00	0.2084	-0.744		0.494869041	0.590834011	0.008548390	0.088192162	0.027181681
2020-01-26T07:10:00	0.2087	-0.742		0.496046749	0.592458653	0.008585490	0.088574919	0.027299650
2020-01-26T07:15:00	0.2082	-0.739		0.494473303	0.590288342	0.008535941	0.088063732	0.027142097
2020-01-26T07:20:00	0.2083	-0.736		0.494619402	0.590489778	0.008540536	0.088111135	0.027156707
2020-01-26T07:25:00	0.2082	-0.731		0.494421524	0.590216956	0.008534313	0.088046934	0.027136920
2020-01-26T07:30:00	0.2081	-0.726		0.493879610	0.589469957	0.008517282	0.087871233	0.027082767
2020-01-26T07:35:00	0.2078	-0.723		0.492993495	0.588249003	0.008489471	0.087584308	0.026994334
2020-01-26T07:40:00	0.2075	-0.717		0.491762911	0.586554458	0.008450923	0.087186618	0.026871762
2020-01-26T07:45:00	0.2073	-0.710		0.491220573	0.585808032	0.008433962	0.087011636	0.026817831
2020-01-26T07:50:00	0.2073	-0.704		0.491366811	0.586009278	0.008438534	0.087058801	0.026832368
2020-01-26T07:55:00	0.2082	-0.698		0.494266183	0.590002802	0.008529429	0.087996551	0.027121392
2020-01-26T08:00:00	0.2086	-0.691		0.495787966	0.592101568	0.008577331	0.088490744	0.027273707
2020-01-26T08:05:00	0.2092	-0.683		0.497652749	0.594675915	0.008636211	0.089098201	0.027460931
2020-01-26T08:10:00	0.2094	-0.674		0.498485936	0.595827039	0.008662584	0.089370282	0.027544789
2020-01-26T08:15:00	0.2092	-0.666		0.497944668	0.595079164	0.008645447	0.089193481	0.027490297
2020-01-26T08:20:00	0.2100	-0.656		0.500495091	0.598605166	0.008726344	0.090028080	0.027747529
2020-01-26T08:25:00	0.2101	-0.647		0.500984275	0.599282068	0.008741903	0.090188603	0.027797003
2020-01-26T08:30:00	0.2104	-0.638		0.501816648	0.600434297	0.008768410	0.090462068	0.027881288
2020-01-26T08:35:00	0.2101	-0.629		0.500932595	0.599210547	0.008740259	0.090171637	0.027791774
2020-01-26T08:40:00	0.2107	-0.618		0.502794567	0.601788714	0.008799603	0.090783879	0.027980473
2020-01-26T08:45:00	0.2105	-0.608		0.502253983	0.601039910	0.008782353	0.090605915	0.027925623
2020-01-26T08:50:00	0.2116	-0.596		0.506172683	0.606473323	0.008907780	0.091899923	0.028324449
2020-01-26T08:55:00	0.2122	-0.582		0.508031803	0.609055385	0.008967596	0.092517034	0.028514648
2020-01-26T09:00:00	0.2131	-0.568		0.511259369	0.613544655	0.009071916	0.093593282	0.028846358
2020-01-26T09:05:00	0.2139	-0.552		0.513799880	0.617084209	0.009154453	0.094444806	0.029108806
2020-01-26T09:10:00	0.2148	-0.534		0.517022020	0.621580945	0.009259674	0.095530349	0.029443381
2020-01-26T09:15:00	0.2153	-0.517		0.518533711	0.623693519	0.009309247	0.096041782	0.029601010
2020-01-26T09:20:00	0.2154	-0.498		0.519020324	0.624373950	0.009325232	0.096206703	0.029651840
2020-01-26T09:25:00	0.2156	-0.476		0.519848325	0.625532184	0.009352464	0.096487652	0.029738431
2020-01-26T09:30:00	0.2157	-0.454		0.519993344	0.625735098	0.009357238	0.096536900	0.029753610
2020-01-26T09:35:00	0.2159	-0.432		0.520821110	0.626893657	0.009384509	0.096818253	0.029840326
2020-01-26T09:40:00	0.2158	-0.408		0.520283363	0.626140952	0.009366788	0.096635429	0.029783978
2020-01-26T09:45:00	0.2161	-0.385		0.521452357	0.627777537	0.009405333	0.097033085	0.029906539
2020-01-26T09:50:00	0.2167	-0.362		0.523303213	0.630370993	0.009466522	0.097664366	0.030101106
2020-01-26T09:55:00	0.2168	-0.336		0.523789152	0.631052360	0.009482620	0.097830448	0.030152294
2020-01-26T10:00:00	0.2172	-0.309		0.525297870	0.633169058	0.009532689	0.098346994	0.030311499
2020-01-26T10:05:00	0.2175	-0.293		0.526166514	0.634388584	0.009561576	0.098645015	0.030403352
2020-01-26T10:10:00	0.2185	-0.267		0.529419201	0.638960621	0.009670135	0.099764998	0.030748541
2020-01-26T10:15:00	0.2189	-0.241		0.530967551	0.641140032	0.009722028	0.100300368	0.030913548
2020-01-26T10:20:00	0.2194	-0.218		0.532515205	0.643320416	0.009774037	0.100836939	0.031078924
2020-01-26T10:25:00	0.2201	-0.197		0.535082115	0.646941062	0.009860607	0.101730064	0.031354194
2020-01-26T10:30:00	0.2208	-0.173		0.537307422	0.650084223	0.009935967	0.102507545	0.031593821
2020-01-26T10:35:00	0.2211	-0.151		0.538512660	0.651788262	0.009976904	0.102929878	0.031723988
2020-01-26T10:40:00	0.2219	-0.127		0.541075121	0.655415171	0.010064221	0.103830715	0.032001635
2020-01-26T10:45:00	0.2225	-0.102		0.543296577	0.658563764	0.010140230	0.104614879	0.032243322
2020-01-26T10:50:00	0.2222	-0.077		0.542125856	0.656903934	0.010100137	0.104201248	0.032115837
2020-01-26T10:55:00	0.2220	-0.051		0.541633385	0.656206051	0.010083295	0.104027500	0.032062286
2020-01-26T11:00:00	0.2226	-0.026		0.543515395	0.658874125	0.010147732	0.104692282	0.032267178
2020-01-26T11:05:00	0.2225	-0.001		0.543023121	0.658175962	0.010130857	0.104518189	0.032213521
2020-01-26T11:10:00	0.2223	0.026		0.542530778	0.657477899	0.010113995	0.104344219	0.032159902
2020-01-26T11:15:00	0.2224	0.053		0.542716798	0.657741622	0.010120364	0.104409932	0.032180155
2020-01-26T11:20:00	0.2216	0.081		0.540188423	0.654159531	0.010033963	0.103518547	0.031905422
2020-01-26T11:25:00	0.2212	0.112		0.538677088	0.652020833	0.009982495	0.102987564	0.031741768
2020-01-26T11:30:00	0.2206	0.139		0.536825347	0.649402968	0.009919617	0.102338864	0.031541832
2020-01-26T11:35:00	0.2204	0.166		0.535992294	0.648226168	0.009891395	0.102047703	0.031452093
2020-01-26T11:40:00	0.2203	0.196		0.535838825	0.648009432	0.009886201	0.101994110	0.031435575
2020-01-26T11:45:00	0.2208	0.223		0.537384298	0.650192880	0.009938576	0.102534457	0.031602115
2020-01-26T11:50:00	0.2214	0.251		0.539608123	0.653338126	0.010014185	0.103314505	0.031842534
2020-01-26T11:55:00	0.2217	0.276		0.540473174	0.654562692	0.010043675	0.103618744	0.031936303
2020-01-26T12:00:00	0.2226	0.299		0.543373320	0.658672609	0.010142860	0.104642022	0.032251687
2020-01-26T12:05:00	0.2227	0.320		0.543898379	0.659417427	0.010160870	0.104827825	0.032308954
2020-01-26T12:10:00	0.2226	0.338		0.543406160	0.658719187	0.010143986	0.104653638	0.032255268
2020-01-26T12:15:00	0.2231	0.356		0.545287207	0.661388625	0.010208585	0.105320094	0.032460676
2020-01-26T12:20:00	0.2230	0.373		0.544795186	0.660690106	0.010191668	0.105145564	0.032406884
2020-01-26T12:25:00	0.2221	0.391		0.541929084	0.656625063	0.010093406	0.104131807	0.032094434
2020-01-26T12:30:00	0.2237	0.407		0.547200038	0.664106140	0.010274489	0.106000005	0.032670231
2020-01-26T12:35:00	0.2243	0.421		0.549417574	0.667260295	0.010351158	0.106790993	0.032914021
2020-01-26T12:40:00	0.2252	0.436		0.552310255	0.671380817	0.010451605	0.107827279	0.033233415
2020-01-26T12:45:00	0.2261	0.445		0.555200530	0.675504775	0.010552458	0.108867767	0.033554103
2020-01-26T12:50:00	0.2269	0.455		0.558088406	0.679632169	0.010653719	0.109912454	0.033876086
2020-01-26T12:55:00	0.2271	0.465		0.558611246	0.680380153	0.010672104	0.110102133	0.033934547
2020-01-26T13:00:00	0.2270	0.479		0.558458773	0.680161999	0.010666741	0.110046801	0.033917493
2020-01-26T13:05:00	0.2263	0.495		0.555941840	0.676563611	0.010578405	0.109135453	0.033636606
2020-01-26T13:10:00	0.2259	0.510		0.554775376	0.674897719	0.010537592	0.108714396	0.033506833
2020-01-26T13:15:00	0.2259	0.523		0.554622736	0.674679807	0.010532257	0.108659358	0.033489870
2020-01-26T13:20:00	0.2261	0.534		0.555484051	0.675909684	0.010562378	0.108970107	0.033585645
2020-01-26T13:25:00	0.2252	0.546		0.552288532	0.671349849	0.010450849	0.107819478	0.033231010
2020-01-26T13:30:00	0.2250	0.556		0.551797502	0.670649918	0.010433764	0.107643219	0.033176685
2020-01-26T13:35:00	0.2246	0.568		0.550291220	0.668504049	0.010381443	0.107103438	0.033010320
2020-01-26T13:40:00	0.2238	0.581		0.547429659	0.664432558	0.010282414	0.106081772	0.032695432
2020-01-26T13:45:00	0.2227	0.596		0.543887665	0.659402225	0.010160503	0.104824032	0.032307785
2020-01-26T13:50:00	0.2215	0.609		0.539663147	0.653415999	0.010016060	0.103333844	0.031848494
2020-01-26T13:55:00	0.2215	0.622		0.539849321	0.653679504	0.010022403	0.103399289	0.031868665
2020-01-26T14:00:00	0.2204	0.634		0.535959730	0.648180178	0.009890293	0.102036330	0.031448588
2020-01-26T14:05:00	0.2208	0.644		0.537505150	0.650363701	0.009942678	0.102576771	0.031615157
2020-01-26T14:10:00	0.2215	0.655		0.539728897	0.653509057	0.010018300	0.103356954	0.031855617
2020-01-26T14:15:00	0.2218	0.664		0.540933292	0.655214286	0.010059378	0.103780751	0.031986236
2020-01-26T14:20:00	0.2222	0.672		0.542137268	0.656920108	0.010100527	0.104205276	0.032117078
2020-01-26T14:25:00	0.2221	0.682		0.541984071	0.656702988	0.010095287	0.104151210	0.032100414
2020-01-26T14:30:00	0.2216	0.690		0.540134100	0.654082626	0.010032111	0.103499437	0.031899532
2020-01-26T14:35:00	0.2212	0.697		0.538622741	0.651943961	0.009980647	0.102968496	0.031735890
2020-01-26T14:40:00	0.2199	0.703		0.534391785	0.645966818	0.009837288	0.101489482	0.031280044
2020-01-26T14:45:00	0.2194	0.704		0.532537745	0.643352186	0.009774796	0.100844765	0.031081336
2020-01-26T14:50:00	0.2198	0.712		0.534084696	0.645533557	0.009826923	0.101382553	0.031247088
2020-01-26T14:55:00	0.2202	0.720		0.535291058	0.647236015	0.009867671	0.101802938	0.031376654
2020-01-26T15:00:00	0.2204	0.725		0.536157189	0.648459059	0.009896978	0.102105302	0.031469846
2020-01-26T15:05:00	0.2204	0.730		0.536003726	0.648242313	0.009891782	0.102051696	0.031453324
2020-01-26T15:10:00	0.2200	0.734		0.534830535	0.646585969	0.009852105	0.101642355	0.031327161
2020-01-26T15:15:00	0.2199	0.741		0.534337024	0.645889552	0.009835439	0.101470410	0.031274166
2020-01-26T15:20:00	0.2202	0.745		0.535203394	0.647112260	0.009864707	0.101772360	0.031367230
2020-01-26T15:25:00	0.2196	0.749		0.533349790	0.644497016	0.009802142	0.101126888	0.031168289
2020-01-26T15:30:00	0.2195	0.750		0.532856067	0.643800896	0.009785511	0.100955310	0.031115407
2020-01-26T15:35:00	0.2195	0.752		0.533042609	0.644063885	0.009791793	0.101020119	0.031135382
2020-01-26T15:40:00	0.2200	0.753		0.534589333	0.646245573	0.009843958	0.101558299	0.031301254
2020-01-26T15:45:00	0.2204	0.755		0.536135365	0.648428234	0.009896239	0.102097678	0.031467496
2020-01-26T15:50:00	0.2205	0.757		0.536321729	0.648691472	0.009902551	0.102162794	0.031487565
2020-01-26T15:55:00	0.2199	0.758		0.534468726	0.646075384	0.009839885	0.101516282	0.031288304
2020-01-26T16:00:00	0.2195	0.760		0.532954887	0.643940210	0.009788838	0.100989640	0.031125988
2020-01-26T16:05:00	0.2190	0.762		0.531250711	0.641538812	0.009731533	0.100398432	0.030943772
2020-01-26T16:10:00	0.2191	0.762		0.531587960	0.642013850	0.009742860	0.100515291	0.030979789
2020-01-26T16:15:00	0.2188	0.763		0.530563932	0.640571722	0.009708487	0.100160671	0.030870491
2020-01-26T16:20:00	0.2181	0.764		0.528177413	0.637214125	0.009628617	0.099336668	0.030616526
2020-01-26T16:25:00	0.2198	0.765		0.533959950	0.645357580	0.009822714	0.101339133	0.031233705
2020-01-26T16:30:00	0.2189	0.765		0.530895157	0.641038090	0.009719598	0.100275305	0.030905823
2020-01-26T16:35:00	0.2180	0.766		0.527827638	0.636722416	0.009616939	0.099216188	0.030579393
2020-01-26T16:40:00	0.2177	0.767		0.526802492	0.635281850	0.009582753	0.098863498	0.030470690
2020-01-26T16:45:00	0.2171	0.766		0.524754335	0.632406277	0.009514636	0.098160744	0.030254095
2020-01-26T16:50:00	0.2184	0.763		0.529180822	0.638625259	0.009662158	0.099682702	0.030723177
2020-01-26T16:55:00	0.2177	0.761		0.526793345	0.635269001	0.009582448	0.098860354	0.030469721
2020-01-26T17:00:00	0.2175	0.757		0.526108727	0.634307435	0.009559653	0.098625174	0.030397237
2020-01-26T17:05:00	0.2177	0.753		0.526787247	0.635260434	0.009582245	0.098858258	0.030469075
2020-01-26T17:10:00	0.2175	0.747		0.526102627	0.634298871	0.009559450	0.098623081	0.030396591
2020-01-26T17:15:00	0.2177	0.742		0.526781149	0.635251868	0.009582042	0.098856162	0.030468429
2020-01-26T17:20:00	0.2179	0.737		0.527459538	0.636205052	0.009604657	0.099089474	0.030540338
2020-01-26T17:25:00	0.2185	0.734		0.529499994	0.639074294	0.009672839	0.099792898	0.030757140
2020-01-26T17:30:00	0.2186	0.730		0.529837414	0.639549093	0.009684137	0.099909461	0.030793066
2020-01-26T17:35:00	0.2188	0.728		0.530515201	0.640503117	0.009706853	0.100143811	0.030865295
2020-01-26T17:40:00	0.2188	0.724		0.530512156	0.640498829	0.009706751	0.100142757	0.030864970
2020-01-26T17:45:00	0.2191	0.720		0.531530109	0.641932357	0.009740917	0.100495240	0.030973609
2020-01-26T17:50:00	0.2201	0.718		0.534928220	0.646723841	0.009855406	0.101676407	0.031337656
2020-01-26T17:55:00	0.2205	0.715		0.536284704	0.648639171	0.009901297	0.102149856	0.031483578
2020-01-26T18:00:00	0.2211	0.715		0.538319951	0.651515720	0.009970353	0.102862291	0.031703157
2020-01-26T18:05:00	0.2210	0.717		0.537977281	0.651031165	0.009958709	0.102742165	0.031666133
2020-01-26T18:10:00	0.2214	0.720		0.539332569	0.652948179	0.010004801	0.103217688	0.031812694
2020-01-26T18:15:00	0.2215	0.722		0.539669030	0.653424325	0.010016260	0.103335911	0.031849131
2020-01-26T18:20:00	0.2224	0.725		0.542719987	0.657746143	0.010120473	0.104411059	0.032180502
2020-01-26T18:25:00	0.2230	0.728		0.544751455	0.660628031	0.010190166	0.105130059	0.032402105
2020-01-26T18:30:00	0.2230	0.731		0.544748421	0.660623725	0.010190061	0.105128984	0.032401774
2020-01-26T18:35:00	0.2235	0.735		0.546439899	0.663025868	0.010248274	0.105729551	0.032586874
2020-01-26T18:40:00	0.2233	0.739		0.545759162	0.662058841	0.010224826	0.105487644	0.032512316
2020-01-26T18:45:00	0.2234	0.745		0.546094999	0.662535870	0.010236390	0.105606952	0.032549088
2020-01-26T18:50:00	0.2241	0.749		0.548463129	0.665902227	0.010318124	0.106450181	0.032808980
2020-01-26T18:55:00	0.2248	0.753		0.550829645	0.669270882	0.010400130	0.107296226	0.033069739
2020-01-26T19:00:00	0.2244	0.758		0.549472788	0.667338880	0.010353071	0.106810726	0.032920103
2020-01-26T19:05:00	0.2241	0.762		0.548454039	0.665889297	0.010317809	0.106446938	0.032807980
2020-01-26T19:10:00	0.2241	0.766		0.548451009	0.665884987	0.010317705	0.106445857	0.032807647
2020-01-26T19:15:00	0.2244	0.771		0.549463701	0.667325946	0.010352756	0.106807478	0.032919102
2020-01-26T19:20:00	0.2247	0.777		0.550476096	0.668767326	0.010387858	0.107169615	0.033030716
2020-01-26T19:25:00	0.2247	0.781		0.550473068	0.668763013	0.010387753	0.107168530	0.033030382
2020-01-26T19:30:00	0.2253	0.786		0.552500003	0.671651347	0.010458211	0.107895432	0.033254420
2020-01-26T19:35:00	0.2255	0.791		0.553173369	0.672611623	0.010481671	0.108137466	0.033329017
2020-01-26T19:40:00	0.2256	0.796		0.553508490	0.673089673	0.010493356	0.108258024	0.033366174
2020-01-26T19:45:00	0.2258	0.801		0.554519708	0.674532734	0.010528657	0.108622218	0.033478422
2020-01-26T19:50:00	0.2259	0.806		0.554854699	0.675010969	0.010540365	0.108743003	0.033515650
2020-01-26T19:55:00	0.2264	0.814		0.556541264	0.677420118	0.010599409	0.109352147	0.033703394
2020-01-26T20:00:00	0.2260	0.819		0.555186634	0.675484932	0.010551972	0.108862753	0.033552558
2020-01-26T20:05:00	0.2260	0.824		0.555183610	0.675480614	0.010551867	0.108861662	0.033552221
2020-01-26T20:10:00	0.2256	0.828		0.553828452	0.673546185	0.010504520	0.108373193	0.033401671
2020-01-26T20:15:00	0.2257	0.832		0.554163510	0.674024325	0.010516216	0.108493861	0.033438862
2020-01-26T20:20:00	0.2258	0.838		0.554498536	0.674502511	0.010527918	0.108614586	0.033476070
2020-01-26T20:25:00	0.2259	0.840		0.554833529	0.674980743	0.010539625	0.108735368	0.033513296
2020-01-26T20:30:00	0.2254	0.843		0.553140085	0.672564149	0.010480511	0.108125496	0.033325328
2020-01-26T20:35:00	0.2256	0.845		0.553813326	0.673524602	0.010503992	0.108367747	0.033399992
2020-01-26T20:40:00	0.2251	0.848		0.552119385	0.671108718	0.010444962	0.107758744	0.033212292
2020-01-26T20:45:00	0.2254	0.850		0.553131007	0.672551201	0.010480194	0.108122232	0.033324322
2020-01-26T20:50:00	0.2251	0.855		0.552113331	0.671100088	0.010444751	0.107756571	0.033211622
2020-01-26T20:55:00	0.2243	0.858		0.549403119	0.667239721	0.010350658	0.106785828	0.032912429
2020-01-26T21:00:00	0.2248	0.862		0.551092330	0.669645088	0.010409253	0.107390347	0.033098748
2020-01-26T21:05:00	0.2243	0.866		0.549397061	0.667231099	0.010350448	0.106783663	0.032911762
2020-01-26T21:10:00	0.2243	0.870		0.549394032	0.667226787	0.010350343	0.106782580	0.032911428
2020-01-26T21:15:00	0.2240	0.872		0.548375260	0.665777237	0.010315085	0.106418833	0.032799318
2020-01-26T21:20:00	0.2243	0.877		0.549387974	0.667218165	0.010350133	0.106780415	0.032910761
2020-01-26T21:25:00	0.2240	0.881		0.548369200	0.665768618	0.010314876	0.106416671	0.032798651
2020-01-26T21:30:00	0.2242	0.885		0.549043367	0.666727751	0.010338200	0.106657306	0.032872818
2020-01-26T21:35:00	0.2237	0.888		0.547347097	0.664315187	0.010279564	0.106052369	0.032686370
2020-01-26T21:40:00	0.2245	0.889		0.550052857	0.668164644	0.010373176	0.107018145	0.032984032
2020-01-26T21:45:00	0.2243	0.888		0.549372828	0.667196609	0.010349609	0.106775003	0.032909093
2020-01-26T21:50:00	0.2239	0.889		0.548015401	0.665265419	0.010302646	0.106290497	0.032759763
2020-01-26T21:55:00	0.2230	0.889		0.544963040	0.660928385	0.010197438	0.105205089	0.032425230
2020-01-26T22:00:00	0.2232	0.888		0.545637868	0.661886577	0.010220651	0.105444570	0.032499041
2020-01-26T22:05:00	0.2235	0.889		0.546600382	0.663253900	0.010253805	0.105786621	0.032604464
2020-01-26T22:10:00	0.2233	0.893		0.545868667	0.662214375	0.010228596	0.105526539	0.032524304
2020-01-26T22:15:00	0.2237	0.899		0.547169882	0.664063273	0.010273448	0.105989269	0.032666922
2020-01-26T22:20:00	0.2236	0.905		0.546777090	0.663505008	0.010259898	0.105849479	0.032623837
2020-01-26T22:25:00	0.2232	0.911		0.545706538	0.661984102	0.010223014	0.105468955	0.032506556
2020-01-26T22:30:00	0.2235	0.917		0.546669032	0.663351451	0.010256172	0.105811039	0.032611990
2020-01-26T22:35:00	0.2230	0.923		0.544920578	0.660868105	0.010195978	0.105190030	0.032420589
2020-01-26T22:40:00	0.2235	0.928		0.546560972	0.663197899	0.010252447	0.105772605	0.032600144
2020-01-26T22:45:00	0.2234	0.934		0.546168111	0.662639732	0.010238909	0.105632934	0.032557096
2020-01-26T22:50:00	0.2227	0.941		0.543741304	0.659194585	0.010155481	0.104772223	0.032291817
2020-01-26T22:55:00	0.2220	0.945		0.541652100	0.656232568	0.010083935	0.104034100	0.032064320
2020-01-26T23:00:00	0.2222	0.948		0.542276512	0.657117468	0.010105292	0.104254430	0.032132228
2020-01-26T23:05:00	0.2222	0.953		0.542222413	0.657040788	0.010103440	0.104235332	0.032126342
2020-01-26T23:10:00	0.2219	0.956		0.541150453	0.655521877	0.010066794	0.103857258	0.032009816
2020-01-26T23:15:00	0.2213	0.957		0.539059685	0.652562072	0.009995512	0.103121853	0.031783157
2020-01-26T23:20:00	0.2215	0.961		0.539684564	0.653446311	0.010016790	0.103341371	0.031850814
2020-01-26T23:25:00	0.2217	0.966		0.540309330	0.654330709	0.010038086	0.103561085	0.031918532
2020-01-26T23:30:00	0.2216	0.972		0.540255201	0.654254073	0.010036240	0.103542040	0.031912662
2020-01-26T23:35:00	0.2210	0.979		0.538163892	0.651295031	0.009965049	0.102807575	0.031686293
2020-01-26T23:40:00	0.2205	0.983		0.536411136	0.648817768	0.009905580	0.102194040	0.031497196
2020-01-26T23:45:00	0.2203	0.989		0.535677264	0.647781292	0.009880733	0.101937706	0.031418191
2020-01-26T23:50:00	0.2198	0.995		0.533923246	0.645305804	0.009821476	0.101326359	0.031229768
2020-01-26T23:55:00	0.2203	0.999		0.535568860	0.647628225	0.009877066	0.101899869	0.031406529
2020-01-27T00:00:00	0.2198	1.005		0.534154827	0.645632496	0.009829290	0.101406968	0.031254612
2020-01-27T00:05:00	0.2197	1.010		0.533760556	0.645076322	0.009815989	0.101269748	0.031212320
2020-01-27T00:10:00	0.2199	1.014		0.534386393	0.645959211	0.009837106	0.101487605	0.031279465
2020-01-27T00:15:00	0.2201	1.019		0.535012118	0.646842260	0.009858241	0.101705657	0.031346671
2020-01-27T00:20:00	0.2204	1.024		0.535977591	0.648205402	0.009890898	0.102042568	0.031450510
2020-01-27T00:25:00	0.2206	1.030		0.536603027	0.649088855	0.009912082	0.102261120	0.031517870
2020-01-27T00:30:00	0.2210	1.033		0.538247366	0.651413071	0.009967886	0.102836840	0.031695313
2020-01-27T00:35:00	0.2205	1.036		0.536494652	0.648935748	0.009908409	0.102223232	0.031506193
2020-01-27T00:40:00	0.2203	1.040		0.535760798	0.647899247	0.009883560	0.101966867	0.031427179
2020-01-27T00:45:00	0.2195	1.043		0.532986555	0.643984856	0.009789905	0.101000642	0.031129379
2020-01-27T00:50:00	0.2203	1.045		0.535652396	0.647746177	0.009879892	0.101929025	0.031415516
2020-01-27T00:55:00	0.2205	1.047		0.536277891	0.648629548	0.009901066	0.102147475	0.031482844
2020-01-27T01:00:00	0.2214	1.049		0.539280732	0.652874829	0.010003036	0.103199479	0.031807082
2020-01-27T01:05:00	0.2214	1.051		0.539566096	0.653278647	0.010012754	0.103299736	0.031837982
2020-01-27T01:10:00	0.2217	1.053		0.540530298	0.654643579	0.010045624	0.103638850	0.031942500
2020-01-27T01:15:00	0.2218	1.054		0.540815558	0.655047542	0.010055359	0.103739285	0.031973455
2020-01-27T01:20:00	0.2215	1.056		0.539743162	0.653529247	0.010018786	0.103361969	0.031857163
2020-01-27T01:25:00	0.2213	1.059		0.539009997	0.652491775	0.009993821	0.103104408	0.031777780
2020-01-27T01:30:00	0.2215	1.061		0.539634886	0.653376001	0.010015097	0.103323911	0.031845433
2020-01-27T01:35:00	0.2216	1.064		0.540259661	0.654260386	0.010036392	0.103543609	0.031913146
2020-01-27T01:40:00	0.2212	1.066		0.538847546	0.652261957	0.009988294	0.103047383	0.031760204
2020-01-27T01:45:00	0.2211	1.069		0.538453810	0.651705029	0.009974903	0.102909236	0.031717626
2020-01-27T01:50:00	0.2212	1.071		0.538739242	0.652108750	0.009984609	0.103009374	0.031748489
2020-01-27T01:55:00	0.2209	1.074		0.537666202	0.650591364	0.009948145	0.102633175	0.031632541
2020-01-27T02:00:00	0.2201	1.076		0.534893489	0.646674822	0.009854232	0.101664299	0.031333924
2020-01-27T02:05:00	0.2198	1.078		0.534159295	0.645638799	0.009829440	0.101408524	0.031255092
2020-01-27T02:10:00	0.2198	1.078		0.534105069	0.645562299	0.009827610	0.101389646	0.031249273
2020-01-27T02:15:00	0.2190	1.077		0.531329495	0.641649776	0.009734178	0.100425725	0.030952184
2020-01-27T02:20:00	0.2189	1.076		0.530934900	0.641094055	0.009720932	0.100289064	0.030910063
2020-01-27T02:25:00	0.2188	1.075		0.530540260	0.640538396	0.009707693	0.100152481	0.030867967
2020-01-27T02:30:00	0.2189	1.069		0.530826347	0.640941197	0.009717290	0.100251485	0.030898481
2020-01-27T02:35:00	0.2185	1.065		0.529750845	0.639427269	0.009681238	0.099879549	0.030783847
2020-01-27T02:40:00	0.2186	1.060		0.530036997	0.639829978	0.009690823	0.099978439	0.030814326
2020-01-27T02:45:00	0.2188	1.056		0.530663511	0.640711921	0.009711827	0.100195127	0.030881111
2020-01-27T02:50:00	0.2185	1.051		0.529587958	0.639198063	0.009675784	0.099823279	0.030766504
2020-01-27T02:55:00	0.2181	1.045		0.528171472	0.637205772	0.009628419	0.099334621	0.030615895
2020-01-27T03:00:00	0.2183	1.039		0.528798324	0.638087241	0.009649365	0.099550723	0.030682500
2020-01-27T03:05:00	0.2183	1.035		0.528744015	0.638010858	0.009647550	0.099531991	0.030676726
2020-01-27T03:10:00	0.2179	1.031		0.527667863	0.636497838	0.009611607	0.099161177	0.030562438
2020-01-27T03:15:00	0.2190	1.023		0.531358865	0.641691145	0.009735165	0.100435901	0.030955320
2020-01-27T03:20:00	0.2198	1.015		0.534025963	0.645450702	0.009824941	0.101362109	0.031240786
2020-01-27T03:25:00	0.2196	1.008		0.533291584	0.644414939	0.009800180	0.101106652	0.031162052
2020-01-27T03:30:00	0.2198	0.999		0.533917507	0.645297708	0.009821283	0.101324362	0.031229152
2020-01-27T03:35:00	0.2202	0.991		0.535223221	0.647140250	0.009865377	0.101779276	0.031369361
2020-01-27T03:40:00	0.2194	0.982		0.532788722	0.643705959	0.009783243	0.100931917	0.031108197
2020-01-27T03:45:00	0.2202	0.975		0.535454716	0.647467065	0.009873205	0.101860036	0.031394252
2020-01-27T03:50:00	0.2204	0.969		0.536080247	0.648350386	0.009894373	0.102078424	0.031461562
2020-01-27T03:55:00	0.2206	0.964		0.536705665	0.649233866	0.009915560	0.102297008	0.031528931
2020-01-27T04:00:00	0.2203	0.959		0.535631993	0.647717369	0.009879202	0.101921904	0.031413321
2020-01-27T04:05:00	0.2204	0.954		0.536203300	0.648524188	0.009898540	0.102121412	0.031474811
2020-01-27T04:10:00	0.2205	0.949		0.536434728	0.648851095	0.009906379	0.102202286	0.031499737
2020-01-27T04:15:00	0.2206	0.944		0.536666142	0.649178025	0.009914221	0.102283187	0.031524672
2020-01-27T04:20:00	0.2202	0.937		0.535538255	0.647585013	0.009876031	0.101889188	0.031403237
2020-01-27T04:25:00	0.2199	0.932		0.534410000	0.645992520	0.009837903	0.101495827	0.031281999
2020-01-27T04:30:00	0.2204	0.927		0.536001186	0.648238725	0.009891696	0.102050809	0.031453050
2020-01-27T04:35:00	0.2204	0.922		0.535892792	0.648085645	0.009888027	0.102012954	0.031441383
2020-01-27T04:40:00	0.2207	0.919		0.537143582	0.649852668	0.009930409	0.102450200	0.031576147
2020-01-27T04:45:00	0.2202	0.912		0.535336102	0.647299606	0.009869194	0.101818652	0.031381497
2020-01-27T04:50:00	0.2200	0.904		0.534547783	0.646186941	0.009842555	0.101543823	0.031296793
2020-01-27T04:55:00	0.2195	0.899		0.533079091	0.644115322	0.009793021	0.101032797	0.031139289
2020-01-27T05:00:00	0.2197	0.896		0.533650820	0.644921547	0.009812289	0.101231573	0.031200554
2020-01-27T05:05:00	0.2209	0.897		0.537620957	0.650527404	0.009946609	0.102617328	0.031627657
2020-01-27T05:10:00	0.2210	0.901		0.538191935	0.651334686	0.009966002	0.102817406	0.031689323
2020-01-27T05:15:00	0.2219	0.908		0.541139000	0.655505653	0.010066403	0.103853222	0.032008572
2020-01-27T05:20:00	0.2227	0.914		0.543744492	0.659199107	0.010155590	0.104773351	0.032292164
2020-01-27T05:25:00	0.2227	0.919		0.543975417	0.659526726	0.010163514	0.104855100	0.032317360
2020-01-27T05:30:00	0.2222	0.925		0.542171503	0.656968630	0.010101698	0.104217360	0.032120803
2020-01-27T05:35:00	0.2232	0.933		0.545454116	0.661625630	0.010214327	0.105379334	0.032478934
2020-01-27T05:40:00	0.2239	0.941		0.548056368	0.665323679	0.010304061	0.106305103	0.032764265
2020-01-27T05:45:00	0.2236	0.949		0.546932186	0.663725427	0.010265247	0.105904665	0.032640846
2020-01-27T05:50:00	0.2241	0.956		0.548517629	0.665979754	0.010320009	0.106469627	0.032814973
2020-01-27T05:55:00	0.2246	0.964		0.550440793	0.668717049	0.010386633	0.107156976	0.033026821
2020-01-27T06:00:00	0.2249	0.969		0.551348020	0.670009385	0.010418137	0.107482001	0.033126997
2020-01-27T06:05:00	0.2250	0.972		0.551578440	0.670337723	0.010426146	0.107564631	0.033152464
2020-01-27T06:10:00	0.2252	0.974		0.552485369	0.671630482	0.010457701	0.107890175	0.033252800
2020-01-27T06:15:00	0.2247	0.976		0.550685876	0.669066101	0.010395139	0.107244731	0.033053868
2020-01-27T06:20:00	0.2250	0.977		0.551593039	0.670358528	0.010426654	0.107569868	0.033154078
2020-01-27T06:25:00	0.2255	0.977		0.553176356	0.672615884	0.010481775	0.108138541	0.033329348
2020-01-27T06:30:00	0.2257	0.978		0.554082869	0.673909239	0.010513400	0.108464813	0.033429909
2020-01-27T06:35:00	0.2252	0.977		0.552284203	0.671343677	0.010450698	0.107817923	0.033230531
2020-01-27T06:40:00	0.2254	0.976		0.552852771	0.672154378	0.010470498	0.108022197	0.033293490
2020-01-27T06:45:00	0.2252	0.975		0.552406682	0.671518292	0.010454961	0.107861910	0.033244088
2020-01-27T06:50:00	0.2256	0.972		0.553651529	0.673293746	0.010498346	0.108309503	0.033382041
2020-01-27T06:55:00	0.2262	0.968		0.555571855	0.676035094	0.010565451	0.109001810	0.033595417
2020-01-27T07:00:00	0.2267	0.965		0.557491123	0.678777960	0.010632736	0.109695972	0.033809364
2020-01-27T07:05:00	0.2272	0.962		0.559071759	0.681039157	0.010688311	0.110269337	0.033986081
2020-01-27T07:10:00	0.2281	0.956		0.562001167	0.685235293	0.010791699	0.111335974	0.034314829
2020-01-27T07:15:00	0.2281	0.950		0.562230882	0.685564641	0.010799828	0.111419837	0.034340676
2020-01-27T07:20:00	0.2292	0.946		0.565831578	0.690732716	0.010927650	0.112738554	0.034747117
2020-01-27T07:25:00	0.2295	0.944		0.566734806	0.692030797	0.010959834	0.113070590	0.034849454
2020-01-27T07:30:00	0.2294	0.943		0.566627367	0.691876354	0.010956003	0.113031068	0.034837273
2020-01-27T07:35:00	0.2298	0.941		0.567867146	0.693659099	0.011000250	0.113487552	0.034977966
2020-01-27T07:40:00	0.2291	0.940		0.565401689	0.690115134	0.010912349	0.112580697	0.034698464
2020-01-27T07:45:00	0.2297	0.939		0.567652333	0.693350117	0.010992577	0.113408391	0.034953568
2020-01-27T07:50:00	0.2298	0.940		0.567881677	0.693680002	0.011000769	0.113492908	0.034979616
2020-01-27T07:55:00	0.2295	0.940		0.566763878	0.692072589	0.010960871	0.113081285	0.034852750
2020-01-27T08:00:00	0.2302	0.937		0.569350260	0.695793415	0.011053300	0.114034862	0.035146652
2020-01-27T08:05:00	0.2301	0.941		0.568906276	0.695154298	0.011037406	0.113870879	0.035096111
2020-01-27T08:10:00	0.2305	0.946		0.570145248	0.696938214	0.011081790	0.114328787	0.035237243
2020-01-27T08:15:00	0.2308	0.947		0.571047363	0.698237910	0.011114164	0.114662786	0.035340184
2020-01-27T08:20:00	0.2304	0.953		0.569930575	0.696629029	0.011074093	0.114249380	0.035212768
2020-01-27T08:25:00	0.2303	0.960		0.569486665	0.695989805	0.011058186	0.114085267	0.035162187
2020-01-27T08:30:00	0.2311	0.968		0.572071035	0.699713551	0.011150959	0.115042392	0.035457182
2020-01-27T08:35:00	0.2307	0.981		0.570954574	0.698104196	0.011110832	0.114628409	0.035329589
2020-01-27T08:40:00	0.2307	0.989		0.570847264	0.697949566	0.011106979	0.114588659	0.035317337
2020-01-27T08:45:00	0.2313	0.995		0.572758154	0.700704532	0.011175692	0.115297554	0.035535826
2020-01-27T08:50:00	0.2311	1.003		0.572314603	0.700064786	0.011159723	0.115132808	0.035485050
2020-01-27T08:55:00	0.2314	1.014		0.573216158	0.701365295	0.011192193	0.115467794	0.035588295
2020-01-27T09:00:00	0.2318	1.029		0.574453606	0.703151428	0.011236839	0.115928393	0.035730257
2020-01-27T09:05:00	0.2317	1.047		0.574346403	0.702996641	0.011232967	0.115888453	0.035717947
2020-01-27T09:10:00	0.2319	1.069		0.574911389	0.703812514	0.011253378	0.116099025	0.035782847
2020-01-27T09:15:00	0.2312	1.093		0.572450892	0.700261344	0.011164629	0.115183416	0.035500648
2020-01-27T09:20:00	0.2311	1.121		0.572343628	0.700106646	0.011160768	0.115143585	0.035488371
2020-01-27T09:25:00	0.2303	1.151		0.569544764	0.696073456	0.011060267	0.114106739	0.035168805
2020-01-27T09:30:00	0.2302	1.180		0.569100805	0.695434303	0.011044368	0.113942713	0.035118251
2020-01-27T09:35:00	0.2302	1.210		0.569330054	0.695764325	0.011052577	0.114027397	0.035144351
2020-01-27T09:40:00	0.2301	1.247		0.568886068	0.695125212	0.011036682	0.113863418	0.035093811
2020-01-27T09:45:00	0.2302	1.291		0.569115331	0.695455213	0.011044888	0.113948078	0.035119904
2020-01-27T09:50:00	0.2299	1.337		0.568334638	0.694331661	0.011016958	0.113659925	0.035031093
2020-01-27T09:55:00	0.2297	1.379		0.567553771	0.693208361	0.010989057	0.113372080	0.034942376
2020-01-27T10:00:00	0.2297	1.417		0.567446357	0.693053881	0.010985222	0.113332513	0.034930181
2020-01-27T10:05:00	0.2297	1.445		0.567622010	0.693306503	0.010991494	0.113397219	0.034950124
2020-01-27T10:10:00	0.2299	1.462		0.568134385	0.694043542	0.011009799	0.113586072	0.035008330
2020-01-27T10:15:00	0.2299	1.483		0.568310003	0.694296214	0.011016077	0.113650838	0.035028292
2020-01-27T10:20:00	0.2290	1.510		0.565117179	0.689706489	0.010902229	0.112476285	0.034666283
2020-01-27T10:25:00	0.2296	1.541		0.567314297	0.692863971	0.010980508	0.113283878	0.034915192
2020-01-27T10:30:00	0.2297	1.570		0.567489956	0.693116583	0.010986779	0.113348572	0.034935131
2020-01-27T10:35:00	0.2295	1.606		0.566992022	0.692400579	0.010969008	0.113165236	0.034878625
2020-01-27T10:40:00	0.2285	1.642		0.563460843	0.687328800	0.010843405	0.111869410	0.034479239
2020-01-27T10:45:00	0.2285	1.674		0.563636696	0.687581132	0.010849643	0.111933763	0.034499073
2020-01-27T10:50:00	0.2289	1.702		0.564823790	0.689285160	0.010891797	0.112368667	0.034633114
2020-01-27T10:55:00	0.2295	1.732		0.566684254	0.691958127	0.010958032	0.113051993	0.034843722
2020-01-27T11:00:00	0.2297	1.765		0.567533555	0.693179286	0.010988336	0.113364632	0.034940081
2020-01-27T11:05:00	0.2305	1.802		0.570065700	0.696823640	0.011078938	0.114299359	0.035228173
2020-01-27T11:10:00	0.2307	1.838		0.570914181	0.698045990	0.011109382	0.114613446	0.035324977
2020-01-27T11:15:00	0.2316	1.869		0.573780070	0.702179088	0.011212527	0.115677575	0.035652952
2020-01-27T11:20:00	0.2315	1.894		0.573619233	0.701946955	0.011206726	0.115617722	0.035634505
2020-01-27T11:25:00	0.2321	1.919		0.575475027	0.704626705	0.011273759	0.116309288	0.035847652
2020-01-27T11:30:00	0.2329	1.945		0.578337190	0.708765238	0.011377542	0.117380008	0.036177658
2020-01-27T11:35:00	0.2337	1.970		0.580861542	0.712420955	0.011469480	0.118328515	0.036469997
2020-01-27T11:40:00	0.2344	1.991		0.583384081	0.716079332	0.011561730	0.119280239	0.036763328
2020-01-27T11:45:00	0.2358	2.011		0.587914317	0.722662703	0.011728352	0.120999240	0.037293141
2020-01-27T11:50:00	0.2352	2.027		0.586079542	0.719994338	0.011660722	0.120301516	0.037078096
2020-01-27T11:55:00	0.2352	2.039		0.585919268	0.719761380	0.011654824	0.120240666	0.037059341
2020-01-27T12:00:00	0.2351	2.050		0.585758987	0.719528433	0.011648927	0.120179828	0.037040590
2020-01-27T12:05:00	0.2352	2.058		0.585933725	0.719782392	0.011655355	0.120246154	0.037061032
2020-01-27T12:10:00	0.2347	2.065		0.584433086	0.717602235	0.011600204	0.119677165	0.036885664
2020-01-27T12:15:00	0.2340	2.071		0.581925774	0.713963740	0.011508353	0.118729561	0.036593604
2020-01-27T12:20:00	0.2339	2.079		0.581765310	0.713731061	0.011502488	0.118669048	0.036574953
2020-01-27T12:25:00	0.2331	2.093		0.578920429	0.709609404	0.011398751	0.117598809	0.036245095
2020-01-27T12:30:00	0.2330	2.109		0.578759828	0.709376926	0.011392909	0.117538539	0.036226519
2020-01-27T12:35:00	0.2321	2.129		0.575576525	0.704773349	0.011277431	0.116347173	0.035859329
2020-01-27T12:40:00	0.2325	2.151		0.577095445	0.706968908	0.011332456	0.116914863	0.036034296
2020-01-27T12:45:00	0.2326	2.177		0.577270614	0.707222233	0.011338811	0.116980422	0.036054502
2020-01-27T12:50:00	0.2323	2.208		0.576102235	0.705533032	0.011296460	0.116543495	0.035919837
2020-01-27T12:55:00	0.2316	2.239		0.573925136	0.702388479	0.011217761	0.115731573	0.035669595
2020-01-27T13:00:00	0.2324	2.264		0.576452664	0.706039551	0.011309154	0.116674454	0.035960200
2020-01-27T13:05:00	0.2321	2.285		0.575620023	0.704836198	0.011279004	0.116363410	0.035864333
2020-01-27T13:10:00	0.2326	2.303		0.577138924	0.707031784	0.011334033	0.116931134	0.036039311
2020-01-27T13:15:00	0.2326	2.319		0.577314091	0.707285113	0.011340388	0.116996697	0.036059518
2020-01-27T13:20:00	0.2331	2.334		0.578832259	0.709481771	0.011395543	0.117565719	0.036234896
2020-01-27T13:25:00	0.2329	2.343		0.578335935	0.708763422	0.011377497	0.117379537	0.036177513
2020-01-27T13:30:00	0.2322	2.356		0.575824263	0.705131318	0.011286396	0.116439667	0.035887836
2020-01-27T13:35:00	0.2320	2.367		0.575327513	0.704413592	0.011268423	0.116254240	0.035830686
2020-01-27T13:40:00	0.2318	2.375		0.574494605	0.703210629	0.011238319	0.115943670	0.035734965
2020-01-27T13:45:00	0.2318	2.376		0.574669905	0.703463765	0.011244652	0.116008999	0.035755100
2020-01-27T13:50:00	0.2316	2.375		0.573836840	0.702261030	0.011214575	0.115698705	0.035659465
2020-01-27T13:55:00	0.2320	2.374		0.575356514	0.704455488	0.011269472	0.116265061	0.035834021
2020-01-27T14:00:00	0.2328	2.372		0.577883011	0.708108066	0.011361041	0.117209768	0.036125189
2020-01-27T14:05:00	0.2342	2.370		0.582755667	0.715167463	0.011538714	0.119042781	0.036690141
2020-01-27T14:10:00	0.2359	2.365		0.588291213	0.723211181	0.011742269	0.121142822	0.037337394
2020-01-27T14:15:00	0.2362	2.357		0.589469991	0.724927360	0.011785851	0.121592448	0.037475974
2020-01-27T14:20:00	0.2375	2.348		0.593658150	0.731034255	0.011941366	0.123196867	0.037970471
2020-01-27T14:25:00	0.2376	2.341		0.594166742	0.731776845	0.011960322	0.123392435	0.038030747
2020-01-27T14:30:00	0.2379	2.333		0.595009424	0.733007715	0.011991764	0.123716822	0.038130726
2020-01-27T14:35:00	0.2375	2.321		0.593846921	0.731309853	0.011948400	0.123269436	0.037992837
2020-01-27T14:40:00	0.2379	2.308		0.595023844	0.733028782	0.011992303	0.123722376	0.038132438
2020-01-27T14:45:00	0.2387	2.296		0.597536267	0.736702117	0.012086301	0.124692139	0.038431328
2020-01-27T14:50:00	0.2394	2.285		0.600046905	0.740378112	0.012180609	0.125665101	0.038731204
2020-01-27T14:55:00	0.2394	2.272		0.599887264	0.740144215	0.012174601	0.125603119	0.038712101
2020-01-27T15:00:00	0.2395	2.259		0.600394960	0.740888139	0.012193713	0.125800291	0.038772871
2020-01-27T15:05:00	0.2388	2.245		0.597898977	0.737232860	0.012099902	0.124832462	0.038474577
2020-01-27T15:10:00	0.2387	2.230		0.597739239	0.736999107	0.012093911	0.124770654	0.038455527
2020-01-27T15:15:00	0.2377	2.215		0.594238856	0.731882156	0.011963011	0.123420178	0.038039298
2020-01-27T15:20:00	0.2379	2.199		0.595081522	0.733113051	0.011994456	0.123744595	0.038139286
2020-01-27T15:25:00	0.2394	2.183		0.599930463	0.740207506	0.012176227	0.125619889	0.038717270
2020-01-27T15:30:00	0.2385	2.167		0.597100217	0.736064204	0.012069960	0.124523551	0.038379368
2020-01-27T15:35:00	0.2385	2.153		0.596940443	0.735830505	0.012063975	0.124461807	0.038360338
2020-01-27T15:40:00	0.2374	2.138		0.593439268	0.730714733	0.011933212	0.123112749	0.037944545
2020-01-27T15:45:00	0.2364	2.123		0.589934615	0.725604123	0.011803052	0.121769907	0.037530668
2020-01-27T15:50:00	0.2362	2.106		0.589439855	0.724883471	0.011784735	0.121580943	0.037472427
2020-01-27T15:55:00	0.2353	2.091		0.586266215	0.720265694	0.011667593	0.120372410	0.037099946
2020-01-27T16:00:00	0.2353	2.076		0.586440928	0.720519691	0.011674027	0.120438780	0.037120402
2020-01-27T16:05:00	0.2330	2.063		0.578751844	0.709365369	0.011392618	0.117535543	0.036225596
2020-01-27T16:10:00	0.2334	2.050		0.580117859	0.711343418	0.011442356	0.118048676	0.036383748
2020-01-27T16:15:00	0.2332	2.038		0.579134514	0.709919336	0.011406540	0.117679175	0.036269865
2020-01-27T16:20:00	0.2340	2.031		0.581842238	0.713842606	0.011505300	0.118698056	0.036583894
2020-01-27T16:25:00	0.2343	2.030		0.582871766	0.715335905	0.011542964	0.119086633	0.036703657
2020-01-27T16:30:00	0.2351	2.029		0.585576613	0.719263403	0.011642219	0.120110624	0.037019261
2020-01-27T16:35:00	0.2366	2.022		0.590622114	0.726605851	0.011828527	0.122032733	0.037611674
2020-01-27T16:40:00	0.2380	2.013		0.595326301	0.733470716	0.012003599	0.123838915	0.038168356
2020-01-27T16:45:00	0.2392	2.005		0.599356816	0.739367181	0.012154650	0.125397279	0.038648659
2020-01-27T16:50:00	0.2382	1.997		0.596041241	0.734515651	0.012030322	0.124114610	0.038253328
2020-01-27T16:55:00	0.2393	1.988		0.599737255	0.739924447	0.012168957	0.125544890	0.038694154
2020-01-27T17:00:00	0.2391	1.978		0.599093150	0.738981034	0.012144739	0.125295029	0.038617145
2020-01-27T17:05:00	0.2389	1.967		0.598448927	0.738037795	0.012120540	0.125045378	0.038540200
2020-01-27T17:10:00	0.2387	1.959		0.597804587	0.737094732	0.012096362	0.124795938	0.038463320
2020-01-27T17:15:00	0.2381	1.954		0.595824095	0.734198232	0.012022202	0.124030841	0.038227510
2020-01-27T17:20:00	0.2379	1.951		0.595179277	0.733255882	0.011998107	0.123782258	0.038150894
2020-01-27T17:25:00	0.2379	1.948		0.594868518	0.732801858	0.011986504	0.123662550	0.038113999
2020-01-27T17:30:00	0.2373	1.946		0.592886378	0.729907809	0.011912629	0.122900402	0.037879097
2020-01-27T17:35:00	0.2380	1.943		0.595249440	0.733358404	0.012000728	0.123809295	0.038159227
2020-01-27T17:40:00	0.2387	1.945		0.597610922	0.736811349	0.012089100	0.124721015	0.038440228
2020-01-27T17:45:00	0.2387	1.951		0.597634294	0.736845547	0.012089976	0.124730056	0.038443014
2020-01-27T17:50:00	0.2382	1.953		0.595987779	0.734437497	0.012028322	0.124093983	0.038246971
2020-01-27T17:55:00	0.2386	1.956		0.597347126	0.736425396	0.012079211	0.124618998	0.038408785
2020-01-27T18:00:00	0.2397	1.963		0.601041775	0.741836227	0.012218084	0.126051724	0.038850365
2020-01-27T18:05:00	0.2405	1.974		0.603732735	0.745784339	0.012319745	0.127100538	0.039173620
2020-01-27T18:10:00	0.2398	1.982		0.601422033	0.742393764	0.012232424	0.126199660	0.038895961
2020-01-27T18:15:00	0.2409	1.984		0.605112432	0.747810951	0.012372036	0.127640016	0.039339893
2020-01-27T18:20:00	0.2407	1.986		0.604469305	0.746866074	0.012347647	0.127388399	0.039262342
2020-01-27T18:25:00	0.2409	1.989		0.605159077	0.747879495	0.012373806	0.127658275	0.039345520
2020-01-27T18:30:00	0.2408	1.989		0.604849194	0.747424163	0.012362050	0.127536996	0.039308141
2020-01-27T18:35:00	0.2409	1.993		0.604872519	0.747458432	0.012362935	0.127546122	0.039310954
2020-01-27T18:40:00	0.2421	1.995		0.608892186	0.753371133	0.012515875	0.129123975	0.039797263
2020-01-27T18:45:00	0.2412	1.995		0.605918668	0.748995954	0.012402646	0.127955809	0.039437223
2020-01-27T18:50:00	0.2413	1.996		0.606275088	0.749519992	0.012416190	0.128095542	0.039480290
2020-01-27T18:55:00	0.2413	1.995		0.606298403	0.749554275	0.012417076	0.128104685	0.039483108
2020-01-27T19:00:00	0.2409	1.997		0.604989138	0.747629781	0.012367359	0.127591758	0.039325019
2020-01-27T19:05:00	0.2411	2.000		0.605678809	0.748643353	0.012393535	0.127861817	0.039408254
2020-01-27T19:10:00	0.2411	2.003		0.605702128	0.748677630	0.012394421	0.127870953	0.039411070
2020-01-27T19:15:00	0.2418	2.008		0.608056648	0.752140989	0.012484005	0.128795176	0.039695924
2020-01-27T19:20:00	0.2419	2.012		0.608412853	0.752665350	0.012497587	0.128935296	0.039739110
2020-01-27T19:25:00	0.2436	2.018		0.614090674	0.761037928	0.012715105	0.131179392	0.040430763
2020-01-27T19:30:00	0.2442	2.025		0.616107492	0.764018473	0.012792836	0.131981329	0.040677927
2020-01-27T19:35:00	0.2442	2.035		0.616130743	0.764052853	0.012793733	0.131990589	0.040680781
2020-01-27T19:40:00	0.2440	2.045		0.615489607	0.763104972	0.012768996	0.131735375	0.040602122
2020-01-27T19:45:00	0.2430	2.054		0.611856547	0.757740227	0.012629284	0.130293994	0.040157874
2020-01-27T19:50:00	0.2421	2.058		0.608885513	0.753361307	0.012515620	0.129121348	0.039796453
2020-01-27T19:55:00	0.2419	2.065		0.608243069	0.752415402	0.012491112	0.128868499	0.039718523
2020-01-27T20:00:00	0.2408	2.071		0.604602582	0.747061856	0.012352699	0.127440521	0.039278406
2020-01-27T20:05:00	0.2411	2.075		0.605625492	0.748564982	0.012391510	0.127840929	0.039401816
2020-01-27T20:10:00	0.2409	2.080		0.604982458	0.747619965	0.012367105	0.127589144	0.039324213
2020-01-27T20:15:00	0.2411	2.087		0.605672130	0.748633535	0.012393281	0.127859200	0.039407447
2020-01-27T20:20:00	0.2402	2.093		0.602695909	0.744262416	0.012280524	0.126695901	0.039048907
2020-01-27T20:25:00	0.2395	2.099		0.600384530	0.740872854	0.012193320	0.125796239	0.038771623
2020-01-27T20:30:00	0.2393	2.102		0.599740543	0.739929265	0.012169081	0.125546166	0.038694548
2020-01-27T20:35:00	0.2397	2.106		0.601098448	0.741919314	0.012220221	0.126073766	0.038857159
2020-01-27T20:40:00	0.2398	2.112		0.601455353	0.742442624	0.012233681	0.126212627	0.038899957
2020-01-27T20:45:00	0.2402	2.116		0.602812600	0.744433657	0.012284935	0.126741408	0.039062933
2020-01-27T20:50:00	0.2396	2.122		0.600834911	0.741532973	0.012210287	0.125971283	0.038825573
2020-01-27T20:55:00	0.2400	2.128		0.602192396	0.743523650	0.012261500	0.126499636	0.038988417
2020-01-27T21:00:00	0.2418	2.131		0.607880173	0.751881243	0.012477279	0.128725785	0.039674537
2020-01-27T21:05:00	0.2422	2.137		0.609234962	0.753875966	0.012528962	0.129258989	0.039838876
2020-01-27T21:10:00	0.2417	2.141		0.607593834	0.751459850	0.012466369	0.128613236	0.039639848
2020-01-27T21:15:00	0.2412	2.145		0.605951946	0.749044877	0.012403910	0.127968852	0.039441243
2020-01-27T21:20:00	0.2411	2.150		0.605642132	0.748589441	0.012392142	0.127847448	0.039403825
2020-01-27T21:25:00	0.2411	2.152		0.605665452	0.748623718	0.012393028	0.127856584	0.039406641
2020-01-27T21:30:00	0.2412	2.154		0.606021897	0.749147718	0.012406568	0.127996271	0.039449694
2020-01-27T21:35:00	0.2421	2.160		0.609041921	0.753591648	0.012521591	0.129182945	0.039815438
2020-01-27T21:40:00	0.2429	2.165		0.611726819	0.757548870	0.012624310	0.130242677	0.040142058
2020-01-27T21:45:00	0.2439	2.172		0.615074275	0.762491111	0.012752984	0.131570181	0.040551208
2020-01-27T21:50:00	0.2441	2.179		0.615761991	0.763507633	0.012779502	0.131843770	0.040635530
2020-01-27T21:55:00	0.2438	2.190		0.614788516	0.762068843	0.012741973	0.131456586	0.040516196
2020-01-27T22:00:00	0.2440	2.197		0.615476287	0.763085282	0.012768482	0.131730075	0.040600488
2020-01-27T22:05:00	0.2439	2.203		0.615029153	0.762424429	0.012751245	0.131552241	0.040545678
2020-01-27T22:10:00	0.2432	2.209		0.612587553	0.758818773	0.012657331	0.130583356	0.040247058
2020-01-27T22:15:00	0.2421	2.215		0.609145964	0.753744881	0.012525563	0.129223927	0.039828069
2020-01-27T22:20:00	0.2419	2.219		0.608365158	0.752595133	0.012495767	0.128916530	0.039733326
2020-01-27T22:25:00	0.2419	2.223		0.608250045	0.752425671	0.012491378	0.128871243	0.039719369
2020-01-27T22:30:00	0.2422	2.225		0.609466327	0.754216769	0.012537799	0.129350161	0.039866976
2020-01-27T22:35:00	0.2434	2.229		0.613342582	0.759933234	0.012686334	0.130882574	0.040339280
2020-01-27T22:40:00	0.2428	2.233		0.611232460	0.756819789	0.012605364	0.130047218	0.040081815
2020-01-27T22:45:00	0.2425	2.238		0.610452113	0.755669349	0.012575488	0.129738992	0.039986817
2020-01-27T22:50:00	0.2424	2.241		0.610004347	0.755009453	0.012558362	0.129562302	0.039932360
2020-01-27T22:55:00	0.2427	2.245		0.610887389	0.756311000	0.012592148	0.129910873	0.040039793
2020-01-27T23:00:00	0.2421	2.248		0.609108644	0.753689916	0.012524138	0.129209226	0.039823538
2020-01-27T23:05:00	0.2421	2.251		0.608993556	0.753520418	0.012519744	0.129163896	0.039809567
2020-01-27T23:10:00	0.2421	2.255		0.608878463	0.753350925	0.012515351	0.129118572	0.039795598
2020-01-27T23:15:00	0.2414	2.257		0.606765686	0.750241485	0.012434845	0.128288008	0.039539610
2020-01-27T23:20:00	0.2411	2.258		0.605651226	0.748602808	0.012392488	0.127851010	0.039404923
2020-01-27T23:25:00	0.2406	2.257		0.603869853	0.745985678	0.012324937	0.127154100	0.039190128
2020-01-27T23:30:00	0.2395	2.255		0.600419787	0.740924524	0.012194648	0.125809937	0.038775845
2020-01-27T23:35:00	0.2391	2.255		0.598969569	0.738800067	0.012140095	0.125247119	0.038602378
2020-01-27T23:40:00	0.2384	2.255		0.596850870	0.735699496	0.012060621	0.124427199	0.038349671
2020-01-27T23:45:00	0.2384	2.255		0.596735382	0.735530596	0.012056296	0.124382586	0.038335921
2020-01-27T23:50:00	0.2389	2.257		0.598289479	0.737804393	0.012114555	0.124983628	0.038521168
2020-01-27T23:55:00	0.2396	2.257		0.600843828	0.741546044	0.012210623	0.125974750	0.038826641
2020-01-28T00:00:00	0.2409	2.258		0.605062730	0.747737916	0.012370150	0.127620561	0.039333896
2020-01-28T00:05:00	0.2413	2.258		0.606280105	0.749527370	0.012416381	0.128097510	0.039480897
2020-01-28T00:10:00	0.2414	2.257		0.606831056	0.750337636	0.012437332	0.128313665	0.039547518
2020-01-28T00:15:00	0.2411	2.257		0.605716617	0.748698928	0.012394971	0.127876630	0.039412819
2020-01-28T00:20:00	0.2413	2.258		0.606267656	0.749509063	0.012415907	0.128092627	0.039479392
2020-01-28T00:25:00	0.2401	2.260		0.602486499	0.743955138	0.012272610	0.126614255	0.039023743
2020-01-28T00:30:00	0.2396	2.262		0.600703532	0.741340395	0.012205337	0.125920209	0.038809831
2020-01-28T00:35:00	0.2396	2.263		0.600588170	0.741171306	0.012200990	0.125875370	0.038796011
2020-01-28T00:40:00	0.2403	2.260		0.603140861	0.744915437	0.012297348	0.126869469	0.039102402
2020-01-28T00:45:00	0.2398	2.253		0.601358225	0.742300200	0.012230017	0.126174830	0.038888308
2020-01-28T00:50:00	0.2389	2.244		0.598239567	0.737731336	0.012112681	0.124964301	0.038515211
2020-01-28T00:55:00	0.2390	2.236		0.598791771	0.738539727	0.012133415	0.125178206	0.038581139
2020-01-28T01:00:00	0.2388	2.223		0.598008679	0.737393405	0.012104018	0.124874919	0.038487663
2020-01-28T01:05:00	0.2382	2.212		0.595889403	0.734293693	0.012024644	0.124056032	0.038235274
2020-01-28T01:10:00	0.2383	2.202		0.596441974	0.735101537	0.012045313	0.124269278	0.038300998
2020-01-28T01:15:00	0.2388	2.191		0.597996200	0.737375142	0.012103549	0.124870089	0.038486174
2020-01-28T01:20:00	0.2369	2.181		0.591531374	0.727931303	0.011862263	0.122380784	0.037718946
2020-01-28T01:25:00	0.2363	2.169		0.589742867	0.725324805	0.011795951	0.121696655	0.037508091
2020-01-28T01:30:00	0.2361	2.157		0.588957765	0.724181469	0.011766902	0.121396963	0.037415723
2020-01-28T01:35:00	0.2364	2.147		0.589846077	0.725475146	0.011799773	0.121736080	0.037520242
2020-01-28T01:40:00	0.2362	2.137		0.589395694	0.724819157	0.011783101	0.121564084	0.037467231
2020-01-28T01:45:00	0.2350	2.129		0.585261363	0.718805340	0.011630628	0.119991047	0.036982406
2020-01-28T01:50:00	0.2354	2.118		0.586820524	0.721071632	0.011688010	0.120583046	0.037164866
2020-01-28T01:55:00	0.2358	2.108		0.588044201	0.722851703	0.011733147	0.121048711	0.037308388
2020-01-28T02:00:00	0.2361	2.098		0.588932743	0.724145039	0.011765977	0.121387417	0.037412781
2020-01-28T02:05:00	0.2362	2.092		0.589486404	0.724951264	0.011786458	0.121598715	0.037477905
2020-01-28T02:10:00	0.2355	2.088		0.587027111	0.721372064	0.011695624	0.120661598	0.037189076
2020-01-28T02:15:00	0.2351	2.087		0.585571376	0.719255793	0.011642026	0.120108637	0.037018649
2020-01-28T02:20:00	0.2344	2.088		0.583444608	0.716167177	0.011563948	0.119303123	0.036770381
2020-01-28T02:25:00	0.2355	2.090		0.587014593	0.721353859	0.011695163	0.120656837	0.037187609
2020-01-28T02:30:00	0.2364	2.095		0.589911760	0.725570829	0.011802205	0.121761175	0.037527977
2020-01-28T02:35:00	0.2367	2.097		0.591134364	0.727352487	0.011847527	0.122228752	0.037672088
2020-01-28T02:40:00	0.2359	2.100		0.588341455	0.723284305	0.011744125	0.121161968	0.037343295
2020-01-28T02:45:00	0.2354	2.105		0.586551329	0.720680203	0.011678093	0.120480729	0.037133331
2020-01-28T02:50:00	0.2342	2.109		0.582748983	0.715157766	0.011538469	0.119040256	0.036689363
2020-01-28T02:55:00	0.2341	2.112		0.582297691	0.714503118	0.011521954	0.118869879	0.036636851
2020-01-28T03:00:00	0.2351	2.112		0.585533807	0.719201201	0.011640645	0.120094384	0.037014256
2020-01-28T03:05:00	0.2344	2.109		0.583407016	0.716112618	0.011562571	0.119288910	0.036766001
2020-01-28T03:10:00	0.2348	2.107		0.584631880	0.717890939	0.011607502	0.119752461	0.036908871
2020-01-28T03:15:00	0.2337	2.107		0.580827457	0.712371558	0.011468236	0.118315681	0.036466042
2020-01-28T03:20:00	0.2333	2.109		0.579704773	0.710745088	0.011427303	0.117893383	0.036335886
2020-01-28T03:25:00	0.2333	2.109		0.579588721	0.710577020	0.011423076	0.117849774	0.036322445
2020-01-28T03:30:00	0.2331	2.111		0.578801348	0.709437026	0.011394419	0.117554119	0.036231321
2020-01-28T03:35:00	0.2333	2.121		0.579692229	0.710726921	0.011426846	0.117888669	0.036334433
2020-01-28T03:40:00	0.2319	2.127		0.574874390	0.703759078	0.011252041	0.116085229	0.035778595
2020-01-28T03:45:00	0.2308	2.133		0.571059366	0.698255207	0.011114596	0.114667233	0.035341555
2020-01-28T03:50:00	0.2303	2.137		0.569596990	0.696148656	0.011062138	0.114126043	0.035174755
2020-01-28T03:55:00	0.2294	2.142		0.566450023	0.691621446	0.010949682	0.112965847	0.034817171
2020-01-28T04:00:00	0.2294	2.147		0.566333532	0.691454019	0.010945530	0.112923016	0.034803970
2020-01-28T04:05:00	0.2303	2.153		0.569393797	0.695856097	0.011054860	0.114050949	0.035151610
2020-01-28T04:10:00	0.2302	2.161		0.569086774	0.695414106	0.011043866	0.113937531	0.035116654
2020-01-28T04:15:00	0.2292	2.167		0.565748535	0.690613404	0.010924694	0.112708051	0.034737716
2020-01-28T04:20:00	0.2297	2.175		0.567462454	0.693077031	0.010985797	0.113338442	0.034932009
2020-01-28T04:25:00	0.2304	2.180		0.569848697	0.696511114	0.011071158	0.114219101	0.035203436
2020-01-28T04:30:00	0.2298	2.187		0.567858412	0.693646535	0.010999938	0.113484333	0.034976974
2020-01-28T04:35:00	0.2302	2.197		0.569234704	0.695627056	0.011049162	0.113992171	0.035133494
2020-01-28T04:40:00	0.2303	2.205		0.569600879	0.696154255	0.011062278	0.114127480	0.035175198
2020-01-28T04:45:00	0.2298	2.214		0.567947202	0.693774258	0.011003110	0.113517061	0.034987061
2020-01-28T04:50:00	0.2301	2.222		0.568986842	0.695270260	0.011040289	0.113900627	0.035105279
2020-01-28T04:55:00	0.2302	2.230		0.569353043	0.695797422	0.011053400	0.114035890	0.035146969
2020-01-28T05:00:00	0.2305	2.237		0.570055752	0.696809311	0.011078581	0.114295679	0.035227038
2020-01-28T05:05:00	0.2320	2.243		0.575129600	0.704127695	0.011261266	0.116180405	0.035807929
2020-01-28T05:10:00	0.2320	2.250		0.575159136	0.704170359	0.011262334	0.116191422	0.035811325
2020-01-28T05:15:00	0.2327	2.257		0.577540141	0.707612066	0.011348592	0.117081333	0.036085604
2020-01-28T05:20:00	0.2337	2.265		0.580926140	0.712514574	0.011471838	0.118352838	0.036477494
2020-01-28T05:25:00	0.2349	2.270		0.584979144	0.718395342	0.011620257	0.119884051	0.036949429
2020-01-28T05:30:00	0.2356	2.277		0.587353505	0.721846801	0.011707659	0.120785757	0.037227343
2020-01-28T05:35:00	0.2375	2.281		0.593739778	0.731153425	0.011944407	0.123228244	0.037980142
2020-01-28T05:40:00	0.2376	2.287		0.594103408	0.731684361	0.011957960	0.123368073	0.038023238
2020-01-28T05:45:00	0.2381	2.291		0.595803549	0.734168200	0.012021434	0.124022916	0.038225067
2020-01-28T05:50:00	0.2388	2.294		0.598170635	0.737630441	0.012110095	0.124937613	0.038506986
2020-01-28T05:55:00	0.2384	2.296		0.596530347	0.735230760	0.012048621	0.124303400	0.038311515
2020-01-28T06:00:00	0.2383	2.300		0.596225685	0.734785298	0.012037221	0.124185786	0.038275265
2020-01-28T06:05:00	0.2387	2.302		0.597590916	0.736782076	0.012088350	0.124713276	0.038437843
2020-01-28T06:10:00	0.2382	2.303		0.595950358	0.734382796	0.012026923	0.124079546	0.038242521
2020-01-28T06:15:00	0.2390	2.305		0.598651167	0.738333867	0.012128134	0.125123723	0.038564347
2020-01-28T06:20:00	0.2388	2.305		0.598012838	0.737399493	0.012104174	0.124876529	0.038488159
2020-01-28T06:25:00	0.2387	2.304		0.597708304	0.736953841	0.012092751	0.124758686	0.038451839
2020-01-28T06:30:00	0.2383	2.301		0.596401835	0.735042846	0.012043811	0.124253781	0.038296222
2020-01-28T06:35:00	0.2381	2.296		0.595763100	0.734109077	0.012019922	0.124007316	0.038220259
2020-01-28T06:40:00	0.2389	2.289		0.598464051	0.738059935	0.012121108	0.125051236	0.038542005
2020-01-28T06:45:00	0.2384	2.285		0.596823899	0.735660051	0.012059611	0.124416779	0.038346460
2020-01-28T06:50:00	0.2394	2.277		0.600191422	0.740589870	0.012186049	0.125721224	0.038748502
2020-01-28T06:55:00	0.2402	2.270		0.602555574	0.744056490	0.012275220	0.126641183	0.039032043
2020-01-28T07:00:00	0.2404	2.258		0.603251685	0.745078109	0.012301540	0.126912718	0.039115732
2020-01-28T07:05:00	0.2422	2.246		0.609276540	0.753937206	0.012530550	0.129275371	0.039843925
2020-01-28T07:10:00	0.2426	2.236		0.610636750	0.755941508	0.012582554	0.129811887	0.040009284
2020-01-28T07:15:00	0.2421	2.224		0.609002226	0.753533187	0.012520075	0.129167310	0.039810620
2020-01-28T07:20:00	0.2406	2.218		0.604035543	0.746228992	0.012331212	0.127218838	0.039210082
2020-01-28T07:25:00	0.2412	2.209		0.606064040	0.749209678	0.012408169	0.128012792	0.039454786
2020-01-28T07:30:00	0.2416	2.201		0.607425482	0.751212125	0.012459958	0.128547087	0.039619461
2020-01-28T07:35:00	0.2417	2.189		0.607787708	0.751745159	0.012473755	0.128689435	0.039663334
2020-01-28T07:40:00	0.2404	2.178		0.603486083	0.745422205	0.012310409	0.127004218	0.039143933
2020-01-28T07:45:00	0.2412	2.166		0.606181148	0.749381863	0.012412619	0.128058705	0.039468937
2020-01-28T07:50:00	0.2416	2.157		0.607209562	0.750894440	0.012451737	0.128462273	0.039593320
2020-01-28T07:55:00	0.2408	2.151		0.604573859	0.747019660	0.012351610	0.127429287	0.039274944
2020-01-28T08:00:00	0.2412	2.149		0.605935873	0.749021247	0.012403299	0.127962552	0.039439301
2020-01-28T08:05:00	0.2409	2.148		0.604965663	0.747595289	0.012366468	0.127582572	0.039322188
2020-01-28T08:10:00	0.2398	2.149		0.601327775	0.742255552	0.012228868	0.126162981	0.038884656
2020-01-28T08:15:00	0.2388	2.151		0.598020023	0.737410008	0.012104443	0.124879310	0.038489016
2020-01-28T08:20:00	0.2391	2.155		0.599050810	0.738919031	0.012143147	0.125278613	0.038612085
2020-01-28T08:25:00	0.2395	2.162		0.600414950	0.740917435	0.012194466	0.125808058	0.038775265
2020-01-28T08:30:00	0.2407	2.173		0.604445638	0.746831310	0.012346750	0.127379145	0.039259489
2020-01-28T08:35:00	0.2412	2.185		0.606140817	0.749322563	0.012411087	0.128042892	0.039464063
2020-01-28T08:40:00	0.2411	2.198		0.605836981	0.748875866	0.012399543	0.127923795	0.039427356
2020-01-28T08:45:00	0.2418	2.213		0.607864448	0.751858100	0.012476680	0.128719603	0.039672632
2020-01-28T08:50:00	0.2442	2.233		0.615875168	0.763674959	0.012783869	0.131888823	0.040649416
2020-01-28T08:55:00	0.2452	2.253		0.619224665	0.768631907	0.012913458	0.133225764	0.041061474
2020-01-28T09:00:00	0.2454	2.278		0.619917517	0.769658445	0.012940348	0.133503184	0.041146978
2020-01-28T09:05:00	0.2471	2.312		0.625582961	0.778067619	0.013161314	0.135782853	0.041849594
2020-01-28T09:10:00	0.2473	2.350		0.626274580	0.779096040	0.013188422	0.136062516	0.041935789
2020-01-28T09:15:00	0.2452	2.381		0.619341340	0.768804746	0.012917984	0.133272460	0.041075866
2020-01-28T09:20:00	0.2436	2.408		0.614056757	0.760987834	0.012713800	0.131165928	0.040426613
2020-01-28T09:25:00	0.2446	2.434		0.617407965	0.765942186	0.012843088	0.132499769	0.040837716
2020-01-28T09:30:00	0.2431	2.464		0.612453031	0.758620262	0.012652168	0.130530082	0.040230639
2020-01-28T09:35:00	0.2432	2.494		0.612814745	0.759154070	0.012666055	0.130673355	0.040274797
2020-01-28T09:40:00	0.2434	2.525		0.613508847	0.760178713	0.012692726	0.130948512	0.040359603
2020-01-28T09:45:00	0.2439	2.551		0.614867438	0.762185460	0.012745013	0.131487954	0.040525864
2020-01-28T09:50:00	0.2426	2.575		0.610574389	0.755849583	0.012580167	0.129787264	0.040001695
2020-01-28T09:55:00	0.2436	2.597		0.613928879	0.760798968	0.012708880	0.131115168	0.040410968
2020-01-28T10:00:00	0.2445	2.621		0.616948135	0.765261824	0.012825308	0.132316335	0.040781180
2020-01-28T10:05:00	0.2438	2.644		0.614825813	0.762123954	0.012743410	0.131471410	0.040520765
2020-01-28T10:10:00	0.2419	2.667		0.608377298	0.752613006	0.012496231	0.128921306	0.039734799
2020-01-28T10:15:00	0.2411	2.692		0.605583608	0.748503417	0.012389920	0.127824521	0.039396759
2020-01-28T10:20:00	0.2389	2.713		0.598450666	0.738040341	0.012120605	0.125046052	0.038540408
2020-01-28T10:25:00	0.2376	2.741		0.593978291	0.731501664	0.011953296	0.123319951	0.038008407
2020-01-28T10:30:00	0.2367	2.771		0.591173199	0.727409101	0.011848968	0.122243620	0.037676671
2020-01-28T10:35:00	0.2356	2.795		0.587361394	0.721858277	0.011707950	0.120788759	0.037228269
2020-01-28T10:40:00	0.2332	2.812		0.579184659	0.709991936	0.011408365	0.117698003	0.036275668
2020-01-28T10:45:00	0.2321	2.827		0.575695830	0.704945732	0.011281748	0.116391711	0.035873056
2020-01-28T10:50:00	0.2312	2.843		0.572539832	0.700389621	0.011167831	0.115216449	0.035510828
2020-01-28T10:55:00	0.2302	2.862		0.569044377	0.695353077	0.011042348	0.113921873	0.035111828
2020-01-28T11:00:00	0.2279	2.881		0.561499507	0.684516205	0.010773958	0.111152943	0.034258416
2020-01-28T11:05:00	0.2261	2.897		0.555290370	0.675633072	0.010555601	0.108900191	0.033564096
2020-01-28T11:10:00	0.2245	2.909		0.550085672	0.668211367	0.010374314	0.107029885	0.032987650
2020-01-28T11:15:00	0.2224	2.937		0.542838731	0.657914504	0.010124540	0.104453017	0.032193434
2020-01-28T11:20:00	0.2202	2.976		0.535236697	0.647159272	0.009865833	0.101783976	0.031370810
2020-01-28T11:25:00	0.2178	2.978		0.527277209	0.635948830	0.009598576	0.099026741	0.030521003
2020-01-28T11:30:00	0.2168	2.968		0.523735844	0.630977605	0.009480854	0.097812221	0.030146677
2020-01-28T11:35:00	0.2169	2.980		0.524285256	0.631748180	0.009499070	0.098000150	0.030204598
2020-01-28T11:40:00	0.2164	3.010		0.522447140	0.629171100	0.009438196	0.097372125	0.030011035
2020-01-28T11:45:00	0.2173	3.026		0.525383817	0.633289696	0.009535545	0.098376461	0.030320581
2020-01-28T11:50:00	0.2162	3.047		0.521840503	0.628321184	0.009418148	0.097165302	0.029947290
2020-01-28T11:55:00	0.2129	3.072		0.510427857	0.612387288	0.009044982	0.093315415	0.028760717
2020-01-28T12:00:00	0.2115	3.101		0.505840695	0.606012530	0.008897119	0.091789941	0.028290551
2020-01-28T12:05:00	0.2102	3.127		0.501247368	0.599646200	0.008750277	0.090274994	0.027823630
2020-01-28T12:10:00	0.2089	3.150		0.496647852	0.593288299	0.008604457	0.088770596	0.027359960
2020-01-28T12:15:00	0.2068	3.172		0.489631666	0.583622555	0.008384369	0.086499987	0.026660136
2020-01-28T12:20:00	0.2069	3.188		0.489842151	0.583911952	0.008390930	0.086567680	0.026681000
2020-01-28T12:25:00	0.2051	3.200		0.483502149	0.575210579	0.008194412	0.084540235	0.026056121
2020-01-28T12:30:00	0.2042	3.210		0.480605931	0.571246336	0.008105407	0.083621988	0.025773109
2020-01-28T12:35:00	0.2038	3.220		0.479089695	0.569173634	0.008059003	0.083143245	0.025625556
2020-01-28T12:40:00	0.2021	3.231		0.473421844	0.561441877	0.007886706	0.081365690	0.025077696
2020-01-28T12:45:00	0.2023	3.242		0.473979422	0.562201359	0.007903574	0.081539716	0.025131332
2020-01-28T12:50:00	0.2078	3.251		0.492825966	0.588018240	0.008484218	0.087530115	0.026977631
2020-01-28T12:55:00	0.2134	3.254		0.512253157	0.614928624	0.009104158	0.093925918	0.028948880
2020-01-28T13:00:00	0.2127	3.259		0.509723754	0.611407697	0.009022207	0.093080447	0.028688298
2020-01-28T13:05:00	0.2108	3.255		0.503420673	0.602656273	0.008819603	0.090990215	0.028044068
2020-01-28T13:10:00	0.2089	3.245		0.496762204	0.593446162	0.008608067	0.088807846	0.027371440
2020-01-28T13:15:00	0.2053	3.233		0.484230408	0.576208449	0.008216868	0.084771911	0.026127526
2020-01-28T13:20:00	0.2022	3.222		0.473729339	0.561860687	0.007896006	0.081461639	0.025107268
2020-01-28T13:25:00	0.2026	3.212		0.474978866	0.563563328	0.007933854	0.081852113	0.025227616
2020-01-28T13:30:00	0.2031	3.204		0.476919534	0.566210202	0.007992815	0.082460395	0.025415095
2020-01-28T13:35:00	0.2029	3.201		0.476093417	0.565083096	0.007967690	0.082201185	0.025335204
2020-01-28T13:40:00	0.2042	3.211		0.480452147	0.571036029	0.008100694	0.083573370	0.025758124
2020-01-28T13:45:00	0.2056	3.214		0.485495131	0.577942395	0.008255938	0.085174995	0.026251761
2020-01-28T13:50:00	0.2061	3.204		0.487085075	0.580124036	0.008305186	0.085683077	0.026408356
2020-01-28T13:55:00	0.2049	3.202		0.482811537	0.574264685	0.008173145	0.084320825	0.025988497
2020-01-28T14:00:00	0.2053	3.210		0.484402738	0.576444640	0.008222186	0.084826779	0.026144437
2020-01-28T14:05:00	0.2078	3.197		0.492883031	0.588096842	0.008486007	0.087548573	0.026983320
2020-01-28T14:10:00	0.2139	3.188		0.514020424	0.617391726	0.009161636	0.094518909	0.029131646
2020-01-28T14:15:00	0.2163	3.178		0.522086386	0.628665637	0.009426271	0.097249105	0.029973119
2020-01-28T14:20:00	0.2150	3.164		0.517514807	0.622269407	0.009275819	0.095696918	0.029494719
2020-01-28T14:25:00	0.2155	3.154		0.519431410	0.624948920	0.009338748	0.096346137	0.029694815
2020-01-28T14:30:00	0.2166	3.145		0.523052974	0.630020190	0.009458238	0.097578895	0.030074763
2020-01-28T14:35:00	0.2166	3.138		0.523261411	0.630312389	0.009465138	0.097650085	0.030096705
2020-01-28T14:40:00	0.2221	3.130		0.541839128	0.656497585	0.010090330	0.104100070	0.032084653
2020-01-28T14:45:00	0.2206	3.105		0.536614188	0.649104623	0.009912460	0.102265022	0.031519073
2020-01-28T14:50:00	0.2226	3.083		0.543610377	0.659008855	0.010150990	0.104725889	0.032277536
2020-01-28T14:55:00	0.2202	3.061		0.535330289	0.647291399	0.009868997	0.101816624	0.031380872
2020-01-28T15:00:00	0.2192	3.039		0.532137431	0.642788017	0.009761329	0.100705832	0.031038516
2020-01-28T15:05:00	0.2194	3.020		0.532685506	0.643560460	0.009779769	0.100896070	0.031097149
2020-01-28T15:10:00	0.2196	2.996		0.533233493	0.644333026	0.009798223	0.101086459	0.031155828
2020-01-28T15:15:00	0.2179	2.972		0.527654860	0.636479562	0.009611173	0.099156701	0.030561058
2020-01-28T15:20:00	0.2186	2.950		0.529906283	0.639646012	0.009686444	0.099933260	0.030800401
2020-01-28T15:25:00	0.2189	2.925		0.530795083	0.640897176	0.009716241	0.100240663	0.030895146
2020-01-28T15:30:00	0.2197	2.905		0.533724658	0.645025690	0.009814778	0.101257259	0.031208471
2020-01-28T15:35:00	0.2204	2.886		0.535972125	0.648197682	0.009890713	0.102040659	0.031449922
2020-01-28T15:40:00	0.2208	2.870		0.537538815	0.650411289	0.009943820	0.102588560	0.031618791
2020-01-28T15:45:00	0.2198	2.857		0.534007977	0.645425329	0.009824335	0.101355848	0.031238857
2020-01-28T15:50:00	0.2188	2.832		0.530473525	0.640444445	0.009705455	0.100129393	0.030860851
2020-01-28T15:55:00	0.2200	2.806		0.534763497	0.646491358	0.009849841	0.101618990	0.031319960
2020-01-28T16:00:00	0.2195	2.781		0.532930963	0.643906481	0.009788033	0.100981328	0.031123426
2020-01-28T16:05:00	0.2199	2.756		0.534495990	0.646113856	0.009840806	0.101525780	0.031291231
2020-01-28T16:10:00	0.2193	2.730		0.532320081	0.643045412	0.009767472	0.100769210	0.031058049
2020-01-28T16:15:00	0.2183	2.706		0.528780851	0.638062666	0.009648781	0.099544696	0.030680642
2020-01-28T16:20:00	0.2183	2.683		0.528985895	0.638351061	0.009655638	0.099615432	0.030702444
2020-01-28T16:25:00	0.2175	2.655		0.526124939	0.634330202	0.009560192	0.098630741	0.030398952
2020-01-28T16:30:00	0.2186	2.634		0.530076866	0.639886092	0.009692159	0.099992222	0.030818574
2020-01-28T16:35:00	0.2188	2.612		0.530622222	0.640653789	0.009710442	0.100180840	0.030876708
2020-01-28T16:40:00	0.2167	2.589		0.523331261	0.630410316	0.009467451	0.097673948	0.030104059
2020-01-28T16:45:00	0.2195	2.566		0.533073467	0.644107392	0.009792832	0.101030842	0.031138687
2020-01-28T16:50:00	0.2201	2.547		0.534978389	0.646794653	0.009857101	0.101693897	0.031343047
2020-01-28T16:55:00	0.2213	2.532		0.539259735	0.652845120	0.010002321	0.103192105	0.031804809
2020-01-28T17:00:00	0.2238	2.521		0.547602642	0.664678491	0.010288387	0.106143392	0.032714424
2020-01-28T17:05:00	0.2222	2.505		0.542044129	0.656788103	0.010097341	0.104172404	0.032106947
2020-01-28T17:10:00	0.2230	2.482		0.544961159	0.660925714	0.010197373	0.105204422	0.032425025
2020-01-28T17:15:00	0.2215	2.461		0.539737895	0.653521791	0.010018607	0.103360117	0.031856592
2020-01-28T17:20:00	0.2205	2.441		0.536546069	0.649008386	0.009910152	0.102241206	0.031511733
2020-01-28T17:25:00	0.2207	2.423		0.537090404	0.649777516	0.009928605	0.102431591	0.031570411
2020-01-28T17:30:00	0.2202	2.405		0.535256062	0.647186610	0.009866487	0.101790731	0.031372892
2020-01-28T17:35:00	0.2203	2.385		0.535800600	0.647955454	0.009884907	0.101980764	0.031431462
2020-01-28T17:40:00	0.2197	2.366		0.533625514	0.644885856	0.009811435	0.101222771	0.031197841
2020-01-28T17:45:00	0.2213	2.346		0.539266888	0.652855241	0.010002565	0.103194617	0.031805583
2020-01-28T17:50:00	0.2229	2.325		0.544560092	0.660356415	0.010183590	0.105062223	0.032381198
2020-01-28T17:55:00	0.2235	2.304		0.546458703	0.663052586	0.010248922	0.105736237	0.032588935
2020-01-28T18:00:00	0.2226	2.291		0.543612182	0.659011416	0.010151052	0.104726527	0.032277733
2020-01-28T18:05:00	0.2227	2.273		0.543816348	0.659301047	0.010158055	0.104798786	0.032300003
2020-01-28T18:10:00	0.2230	2.255		0.545037520	0.661034121	0.010199999	0.105231507	0.032433372
2020-01-28T18:15:00	0.2238	2.238		0.547613345	0.664693709	0.010288757	0.106147205	0.032715599
2020-01-28T18:20:00	0.2221	2.218		0.541715584	0.656322521	0.010086105	0.104056490	0.032071221
2020-01-28T18:25:00	0.2220	2.201		0.541580584	0.656131237	0.010081491	0.104008879	0.032056547
2020-01-28T18:30:00	0.2214	2.185		0.539409131	0.653056519	0.010007408	0.103244584	0.031820983
2020-01-28T18:35:00	0.2229	2.169		0.544702117	0.660558000	0.010188470	0.105112568	0.032396714
2020-01-28T18:40:00	0.2225	2.152		0.543210959	0.658442338	0.010137295	0.104584601	0.032233990
2020-01-28T18:45:00	0.2223	2.136		0.542397654	0.657289184	0.010109438	0.104297204	0.032145411
2020-01-28T18:50:00	0.2233	2.119		0.545992178	0.662389813	0.010232849	0.105570417	0.032537828
2020-01-28T18:55:00	0.2247	2.101		0.550598371	0.668941468	0.010392101	0.107213394	0.033044209
2020-01-28T19:00:00	0.2249	2.082		0.551140503	0.669713719	0.010410927	0.107407612	0.033104069
2020-01-28T19:05:00	0.2256	2.066		0.553711806	0.673379749	0.010500449	0.108331200	0.033388728
2020-01-28T19:10:00	0.2248	2.053		0.550871230	0.669330117	0.010401574	0.107311123	0.033074330
2020-01-28T19:15:00	0.2250	2.040		0.551751637	0.670584550	0.010432169	0.107626762	0.033171613
2020-01-28T19:20:00	0.2255	2.034		0.553308187	0.672803930	0.010486371	0.108185958	0.033343963
2020-01-28T19:25:00	0.2256	2.035		0.553511783	0.673094372	0.010493471	0.108259209	0.033366540
2020-01-28T19:30:00	0.2261	2.032		0.555405508	0.675797507	0.010559630	0.108941751	0.033576906
2020-01-28T19:35:00	0.2254	2.019		0.552904521	0.672228179	0.010472301	0.108040799	0.033299223
2020-01-28T19:40:00	0.2243	2.004		0.549386287	0.667215764	0.010350075	0.106779812	0.032910575
2020-01-28T19:45:00	0.2250	1.991		0.551620590	0.670397790	0.010427612	0.107579750	0.033157124
2020-01-28T19:50:00	0.2242	1.979		0.548778303	0.666350601	0.010329026	0.106562662	0.032843647
2020-01-28T19:55:00	0.2248	1.967		0.551012997	0.669532070	0.010406498	0.107361917	0.033089986
2020-01-28T20:00:00	0.2254	1.955		0.552908083	0.672233259	0.010472425	0.108042079	0.033299618
2020-01-28T20:05:00	0.2241	1.943		0.548712724	0.666257300	0.010326757	0.106539253	0.032836432
2020-01-28T20:10:00	0.2240	1.931		0.548239368	0.665583949	0.010310387	0.106370360	0.032784378
2020-01-28T20:15:00	0.2239	1.918		0.547765949	0.664910690	0.010294027	0.106201581	0.032732359
2020-01-28T20:20:00	0.2237	1.906		0.547292464	0.664237523	0.010277678	0.106032914	0.032680374
2020-01-28T20:25:00	0.2234	1.893		0.546141284	0.662601622	0.010237985	0.105623400	0.032554158
2020-01-28T20:30:00	0.2238	1.881		0.547700350	0.664817416	0.010291761	0.106178205	0.032725154
2020-01-28T20:35:00	0.2234	1.866		0.546210481	0.662699924	0.010240368	0.105647993	0.032561738
2020-01-28T20:40:00	0.2219	1.852		0.540989102	0.655293333	0.010061284	0.103800411	0.031992295
2020-01-28T20:45:00	0.2220	1.838		0.541532738	0.656063448	0.010079855	0.103992008	0.032051347
2020-01-28T20:50:00	0.2220	1.821		0.541397731	0.655872173	0.010075242	0.103944410	0.032036677
2020-01-28T20:55:00	0.2223	1.811		0.542619755	0.657604040	0.010117041	0.104375648	0.032169588
2020-01-28T21:00:00	0.2217	1.798		0.540448955	0.654528400	0.010042849	0.103610220	0.031933676
2020-01-28T21:05:00	0.2218	1.788		0.540653308	0.654817767	0.010049821	0.103682154	0.031955847
2020-01-28T21:10:00	0.2214	1.776		0.539499919	0.653184995	0.010010500	0.103276482	0.031830815
2020-01-28T21:15:00	0.2219	1.767		0.541061976	0.655396552	0.010063772	0.103826084	0.032000207
2020-01-28T21:20:00	0.2222	1.758		0.542284119	0.657128251	0.010105552	0.104257116	0.032133056
2020-01-28T21:25:00	0.2224	1.751		0.542827552	0.657898653	0.010124158	0.104449067	0.032192217
2020-01-28T21:30:00	0.2217	1.740		0.540317481	0.654342248	0.010038364	0.103563953	0.031919416
2020-01-28T21:35:00	0.2219	1.734		0.541200571	0.655592871	0.010068506	0.103874919	0.032015259
2020-01-28T21:40:00	0.2236	1.728		0.546829621	0.663579662	0.010261710	0.105868168	0.032629598
2020-01-28T21:45:00	0.2232	1.717		0.545678287	0.661943979	0.010222042	0.105458923	0.032503464
2020-01-28T21:50:00	0.2222	1.702		0.542152714	0.656942000	0.010101056	0.104210728	0.032118759
2020-01-28T21:55:00	0.2228	1.691		0.544052644	0.659636301	0.010166165	0.104882447	0.032325789
2020-01-28T22:00:00	0.2223	1.679		0.542561206	0.657521035	0.010115036	0.104354966	0.032163214
2020-01-28T22:05:00	0.2224	1.667		0.542957510	0.658082925	0.010128609	0.104494997	0.032206373
2020-01-28T22:10:00	0.2233	1.660		0.545726804	0.662012885	0.010223712	0.105476152	0.032508774
2020-01-28T22:15:00	0.2234	1.656		0.546122747	0.662575288	0.010237346	0.105616813	0.032552127
2020-01-28T22:20:00	0.2238	1.652		0.547534931	0.664582222	0.010286049	0.106119270	0.032706989
2020-01-28T22:25:00	0.2240	1.645		0.548269324	0.665626556	0.010311422	0.106381045	0.032787671
2020-01-28T22:30:00	0.2244	1.636		0.549680634	0.667634731	0.010360273	0.106885024	0.032943002
2020-01-28T22:35:00	0.2250	1.630		0.551768037	0.670607923	0.010432739	0.107632646	0.033173427
2020-01-28T22:40:00	0.2244	1.621		0.549456147	0.667315195	0.010352495	0.106804779	0.032918270
2020-01-28T22:45:00	0.2251	1.608		0.551881989	0.670770334	0.010436702	0.107673535	0.033186029
2020-01-28T22:50:00	0.2264	1.595		0.556333865	0.677123736	0.010592139	0.109277147	0.033680278
2020-01-28T22:55:00	0.2260	1.583		0.555039103	0.675274264	0.010546813	0.108809521	0.033536151
2020-01-28T23:00:00	0.2268	1.575		0.557798785	0.679217929	0.010643542	0.109807456	0.033843724
2020-01-28T23:05:00	0.2264	1.568		0.556504568	0.677367676	0.010598122	0.109338875	0.033699303
2020-01-28T23:10:00	0.2251	1.562		0.551828577	0.670694207	0.010434845	0.107654369	0.033180122
2020-01-28T23:15:00	0.2255	1.557		0.553238442	0.672704443	0.010483939	0.108160871	0.033336231
2020-01-28T23:20:00	0.2247	1.549		0.550589133	0.668928312	0.010391781	0.107210087	0.033043190
2020-01-28T23:25:00	0.2239	1.541		0.547937802	0.665155064	0.010299964	0.106262833	0.032751237
2020-01-28T23:30:00	0.2227	1.532		0.543928449	0.659460089	0.010161902	0.104838471	0.032312235
2020-01-28T23:35:00	0.2228	1.524		0.544324598	0.660022201	0.010175502	0.104978774	0.032355478
2020-01-28T23:40:00	0.2228	1.512		0.544042660	0.659622134	0.010165822	0.104878911	0.032324699
2020-01-28T23:45:00	0.2224	1.502		0.542743306	0.657779204	0.010121272	0.104419298	0.032183042
2020-01-28T23:50:00	0.2222	1.491		0.542122014	0.656898488	0.010100005	0.104199892	0.032115419
2020-01-28T23:55:00	0.2212	1.481		0.538785125	0.652173656	0.009986170	0.103025476	0.031753452
2020-01-29T00:00:00	0.2211	1.471		0.538502736	0.651774227	0.009976566	0.102926397	0.031722915
2020-01-29T00:05:00	0.2215	1.465		0.539918028	0.653776758	0.010024745	0.103423447	0.031876111
2020-01-29T00:10:00	0.2205	1.462		0.536239210	0.648574911	0.009899756	0.102133959	0.031478678
2020-01-29T00:15:00	0.2206	1.455		0.536636239	0.649135778	0.009913207	0.102272732	0.031521449
2020-01-29T00:20:00	0.2192	1.446		0.531933346	0.642500446	0.009754467	0.100635040	0.031016697
2020-01-29T00:25:00	0.2194	1.442		0.532671057	0.643540094	0.009779282	0.100891053	0.031095602
2020-01-29T00:30:00	0.2176	1.438		0.526599943	0.634997323	0.009576006	0.098793888	0.030449236
2020-01-29T00:35:00	0.2185	1.435		0.529722849	0.639387873	0.009680301	0.099869876	0.030780866
2020-01-29T00:40:00	0.2175	1.432		0.526033143	0.634201299	0.009557138	0.098599227	0.030389239
2020-01-29T00:45:00	0.2179	1.431		0.527453557	0.636196646	0.009604457	0.099087416	0.030539704
2020-01-29T00:50:00	0.2165	1.430		0.522738111	0.629578866	0.009447819	0.097471406	0.030041634
2020-01-29T00:55:00	0.2154	1.425		0.519040903	0.624402729	0.009325909	0.096213680	0.029653991
2020-01-29T01:00:00	0.2162	1.421		0.521829449	0.628305700	0.009417783	0.097161535	0.029946129
2020-01-29T01:05:00	0.2163	1.422		0.522228141	0.628864243	0.009430956	0.097297436	0.029988015
2020-01-29T01:10:00	0.2161	1.423		0.521261862	0.627510770	0.009399046	0.096968229	0.029886550
2020-01-29T01:15:00	0.2148	1.427		0.516879663	0.621382097	0.009255012	0.095482257	0.029428559
2020-01-29T01:20:00	0.2137	1.431		0.513176137	0.616214698	0.009134154	0.094235383	0.029044260
2020-01-29T01:25:00	0.2142	1.435		0.514943819	0.618679699	0.009191740	0.094829489	0.029227370
2020-01-29T01:30:00	0.2150	1.438		0.517735693	0.622578065	0.009283061	0.095771627	0.029517746
2020-01-29T01:35:00	0.2145	1.440		0.516084589	0.620271823	0.009228999	0.095213886	0.029345845
2020-01-29T01:40:00	0.2138	1.446		0.513406601	0.616535933	0.009141652	0.094312735	0.029068101
2020-01-29T01:45:00	0.2138	1.450		0.513464214	0.616616245	0.009143526	0.094332077	0.029074062
2020-01-29T01:50:00	0.2144	1.455		0.515573630	0.619558570	0.009212301	0.095041616	0.029292749
2020-01-29T01:55:00	0.2147	1.461		0.516656632	0.621070596	0.009247712	0.095406937	0.029405345
2020-01-29T02:00:00	0.2148	1.462		0.517055925	0.621628306	0.009260784	0.095541805	0.029446912
2020-01-29T02:05:00	0.2150	1.457		0.517796833	0.622663506	0.009285066	0.095792311	0.029524121
2020-01-29T02:10:00	0.2142	1.450		0.514778254	0.618448714	0.009186339	0.094773764	0.029210195
2020-01-29T02:15:00	0.2141	1.440		0.514493889	0.618052040	0.009177066	0.094678093	0.029180708
2020-01-29T02:20:00	0.2130	1.431		0.510787783	0.612888195	0.009056636	0.093435641	0.028797772
2020-01-29T02:25:00	0.2129	1.425		0.510503087	0.612491977	0.009047417	0.093340538	0.028768460
2020-01-29T02:30:00	0.2132	1.416		0.511587691	0.614001795	0.009082561	0.093703111	0.028880209
2020-01-29T02:35:00	0.2129	1.404		0.510618411	0.612652468	0.009051151	0.093379056	0.028780332
2020-01-29T02:40:00	0.2136	1.394		0.512729578	0.615592381	0.009119635	0.094085594	0.028998094
2020-01-29T02:45:00	0.2136	1.384		0.512787203	0.615672677	0.009121508	0.094104916	0.029004049
2020-01-29T02:50:00	0.2128	1.370		0.510106636	0.611940337	0.009034588	0.093208183	0.028727667
2020-01-29T02:55:00	0.2141	1.358		0.514612681	0.618217740	0.009180939	0.094718053	0.029193024
2020-01-29T03:00:00	0.2131	1.346		0.511249017	0.613530243	0.009071580	0.093589820	0.028845291
2020-01-29T03:05:00	0.2150	1.337		0.517804030	0.622673565	0.009285302	0.095794746	0.029524871
2020-01-29T03:10:00	0.2144	1.325		0.515469277	0.619412927	0.009208893	0.095006452	0.029281911
2020-01-29T03:15:00	0.2140	1.318		0.514159104	0.617585116	0.009166154	0.094565521	0.029146012
2020-01-29T03:20:00	0.2132	1.312		0.511479611	0.613851300	0.009079056	0.093666949	0.028869063
2020-01-29T03:25:00	0.2143	1.304		0.515300135	0.619176881	0.009203370	0.094949471	0.029264349
2020-01-29T03:30:00	0.2153	1.296		0.518774880	0.624030720	0.009317168	0.096123500	0.029626196
2020-01-29T03:35:00	0.2152	1.289		0.518490846	0.623633589	0.009307839	0.096027260	0.029596534
2020-01-29T03:40:00	0.2149	1.280		0.517181827	0.621804186	0.009264908	0.095584350	0.029460025
2020-01-29T03:45:00	0.2159	1.270		0.520654668	0.626660657	0.009379023	0.096761647	0.029822879
2020-01-29T03:50:00	0.2170	1.258		0.524465001	0.632000333	0.009505033	0.098061672	0.030223560
2020-01-29T03:55:00	0.2188	1.251		0.530654528	0.640699274	0.009711526	0.100192019	0.030880153
2020-01-29T04:00:00	0.2193	1.243		0.532413252	0.643176721	0.009770607	0.100801548	0.031068016
2020-01-29T04:05:00	0.2192	1.233		0.532133385	0.642782315	0.009761193	0.100704429	0.031038083
2020-01-29T04:10:00	0.2192	1.226		0.531853496	0.642387941	0.009751783	0.100607349	0.031008162
2020-01-29T04:15:00	0.2193	1.218		0.532254074	0.642952390	0.009765252	0.100746304	0.031050989
2020-01-29T04:20:00	0.2197	1.209		0.533674971	0.644955609	0.009813103	0.101239974	0.031203143
2020-01-29T04:25:00	0.2195	1.197		0.533055091	0.644081483	0.009792213	0.101024456	0.031136719
2020-01-29T04:30:00	0.2203	1.188		0.535835360	0.648004540	0.009886083	0.101992900	0.031435202
2020-01-29T04:35:00	0.2194	1.189		0.532495439	0.643292557	0.009773372	0.100830077	0.031076809
2020-01-29T04:40:00	0.2191	1.193		0.531535081	0.641939361	0.009741084	0.100496963	0.030974140
2020-01-29T04:45:00	0.2188	1.188		0.530574456	0.640586539	0.009708840	0.100164312	0.030871614
2020-01-29T04:50:00	0.2181	1.182		0.528251407	0.637318158	0.009631089	0.099362165	0.030624384
2020-01-29T04:55:00	0.2178	1.173		0.527289866	0.635966616	0.009598998	0.099031095	0.030522345
2020-01-29T05:00:00	0.2182	1.163		0.528712809	0.637966972	0.009646506	0.099521229	0.030673409
2020-01-29T05:05:00	0.2177	1.154		0.526729278	0.635179000	0.009580314	0.098838334	0.030462934
2020-01-29T05:10:00	0.2171	1.144		0.524744603	0.632392622	0.009514313	0.098157411	0.030253067
2020-01-29T05:15:00	0.2184	1.134		0.529234547	0.638700836	0.009663955	0.099701246	0.030728892
2020-01-29T05:20:00	0.2199	1.133		0.534398716	0.645976599	0.009837522	0.101491897	0.031280788
2020-01-29T05:25:00	0.2204	1.130		0.536158575	0.648461016	0.009897025	0.102105787	0.031469995
2020-01-29T05:30:00	0.2200	1.122		0.534859298	0.646626564	0.009853077	0.101652381	0.031330251
2020-01-29T05:35:00	0.2195	1.117		0.532879299	0.643833647	0.009786293	0.100963380	0.031117894
2020-01-29T05:40:00	0.2190	1.113		0.531238492	0.641521602	0.009731123	0.100394199	0.030942467
2020-01-29T05:45:00	0.2181	1.108		0.528234741	0.637294726	0.009630532	0.099356422	0.030622614
2020-01-29T05:50:00	0.2183	1.101		0.528976291	0.638337552	0.009655316	0.099612119	0.030701422
2020-01-29T05:55:00	0.2186	1.092		0.530058127	0.639859718	0.009691531	0.099985744	0.030816577
2020-01-29T06:00:00	0.2197	1.086		0.533521051	0.644738530	0.009807914	0.101186438	0.031186643
2020-01-29T06:05:00	0.2194	1.080		0.532560979	0.643384934	0.009775578	0.100852831	0.031083822
2020-01-29T06:10:00	0.2200	1.077		0.534661765	0.646347787	0.009846404	0.101583537	0.031309033
2020-01-29T06:15:00	0.2202	1.076		0.535401935	0.647392548	0.009871420	0.101841620	0.031388576
2020-01-29T06:20:00	0.2197	1.075		0.533762327	0.645078821	0.009816049	0.101270365	0.031212510
2020-01-29T06:25:00	0.2202	1.072		0.535522510	0.647562782	0.009875498	0.101883693	0.031401544
2020-01-29T06:30:00	0.2200	1.066		0.534562994	0.646208405	0.009843068	0.101549123	0.031298426
2020-01-29T06:35:00	0.2207	1.061		0.537002323	0.649653044	0.009925618	0.102400773	0.031560913
2020-01-29T06:40:00	0.2209	1.060		0.537741993	0.650698509	0.009950718	0.102659724	0.031640724
2020-01-29T06:45:00	0.2211	1.056		0.538481504	0.651744198	0.009975845	0.102918950	0.031720620
2020-01-29T06:50:00	0.2217	1.052		0.540578695	0.654712110	0.010047275	0.103655886	0.031947751
2020-01-29T06:55:00	0.2227	1.051		0.543692029	0.659124684	0.010153790	0.104754784	0.032286442
2020-01-29T07:00:00	0.2237	1.048		0.547141336	0.664022698	0.010272463	0.105979107	0.032663790
2020-01-29T07:05:00	0.2234	1.049		0.546185036	0.662663776	0.010239492	0.105638950	0.032558950
2020-01-29T07:10:00	0.2242	1.051		0.548954784	0.666601703	0.010335134	0.106625672	0.032863068
2020-01-29T07:15:00	0.2244	1.052		0.549691906	0.667650776	0.010360663	0.106889054	0.032944244
2020-01-29T07:20:00	0.2241	1.057		0.548736309	0.666290855	0.010327573	0.106547672	0.032839027
2020-01-29T07:25:00	0.2238	1.059		0.547441744	0.664449739	0.010282831	0.106086076	0.032696759
2020-01-29T07:30:00	0.2248	1.067		0.550887327	0.669353047	0.010402133	0.107316890	0.033076108
2020-01-29T07:35:00	0.2259	1.069		0.554667529	0.674743753	0.010533823	0.108675508	0.033494847
2020-01-29T07:40:00	0.2262	1.074		0.555741371	0.676277231	0.010571385	0.109063031	0.033614285
2020-01-29T07:45:00	0.2258	1.086		0.554449413	0.674432392	0.010526202	0.108596881	0.033470613
2020-01-29T07:50:00	0.2256	1.094		0.553833239	0.673553015	0.010504687	0.108374916	0.033402202
2020-01-29T07:55:00	0.2252	1.103		0.552202331	0.671226960	0.010447848	0.107788525	0.033221470
2020-01-29T08:00:00	0.2249	1.120		0.551247425	0.669866055	0.010414642	0.107445937	0.033115881
2020-01-29T08:05:00	0.2242	1.133		0.548938218	0.666578131	0.010334561	0.106619756	0.032861244
2020-01-29T08:10:00	0.2237	1.146		0.547305010	0.664255357	0.010278111	0.106037381	0.032681751
2020-01-29T08:15:00	0.2237	1.156		0.547365091	0.664340766	0.010280185	0.106058776	0.032688345
2020-01-29T08:20:00	0.2240	1.171		0.548102550	0.665389359	0.010305658	0.106321569	0.032769340
2020-01-29T08:25:00	0.2244	1.198		0.549516958	0.667401749	0.010354601	0.106826513	0.032924969
2020-01-29T08:30:00	0.2237	1.217		0.547206599	0.664115466	0.010274715	0.106002341	0.032670951
2020-01-29T08:35:00	0.2240	1.238		0.548282749	0.665645650	0.010311887	0.106385833	0.032789147
2020-01-29T08:40:00	0.2240	1.262		0.548342813	0.665731083	0.010313963	0.106407258	0.032795750
2020-01-29T08:45:00	0.2243	1.282		0.549418610	0.667261768	0.010351194	0.106791363	0.032914135
2020-01-29T08:50:00	0.2243	1.298		0.549140115	0.666865424	0.010341550	0.106691862	0.032883468
2020-01-29T08:55:00	0.2238	1.323		0.547507002	0.664542515	0.010285084	0.106109321	0.032703923
2020-01-29T09:00:00	0.2249	1.347		0.551290882	0.669927973	0.010416152	0.107461516	0.033120683
2020-01-29T09:05:00	0.2249	1.368		0.551350894	0.670013480	0.010418237	0.107483032	0.033127314
2020-01-29T09:10:00	0.2248	1.395		0.551072554	0.669616915	0.010408566	0.107383260	0.033096563
2020-01-29T09:15:00	0.2246	1.419		0.550455781	0.668738394	0.010387153	0.107162342	0.033028474
2020-01-29T09:20:00	0.2250	1.448		0.551530924	0.670270011	0.010424495	0.107547589	0.033147211
2020-01-29T09:25:00	0.2241	1.478		0.548544744	0.666018327	0.010320946	0.106479302	0.032817955
2020-01-29T09:30:00	0.2239	1.501		0.547927522	0.665140445	0.010299609	0.106259168	0.032750108
2020-01-29T09:35:00	0.2252	1.525		0.552387489	0.671490928	0.010454293	0.107855017	0.033241964
2020-01-29T09:40:00	0.2248	1.550		0.551094284	0.669647873	0.010409321	0.107391047	0.033098964
2020-01-29T09:45:00	0.2254	1.570		0.552845685	0.672144272	0.010470251	0.108019649	0.033292705
2020-01-29T09:50:00	0.2257	1.590		0.553920089	0.673676945	0.010507718	0.108406188	0.033411840
2020-01-29T09:55:00	0.2266	1.612		0.557021486	0.678106513	0.010616251	0.109525907	0.033756948
2020-01-29T10:00:00	0.2260	1.633		0.555054109	0.675295691	0.010547337	0.108814935	0.033537820
2020-01-29T10:05:00	0.2250	1.652		0.551780566	0.670625781	0.010433175	0.107637142	0.033174812
2020-01-29T10:10:00	0.2253	1.670		0.552564975	0.671743985	0.010460473	0.107918773	0.033261614
2020-01-29T10:15:00	0.2253	1.692		0.552672849	0.671897803	0.010464230	0.107957533	0.033273560
2020-01-29T10:20:00	0.2248	1.713		0.551089302	0.669640775	0.010409148	0.107389262	0.033098413
2020-01-29T10:25:00	0.2248	1.735		0.550858850	0.669312483	0.010401144	0.107306688	0.033072963
2020-01-29T10:30:00	0.2268	1.760		0.557727753	0.679116344	0.010641046	0.109781712	0.033835790
2020-01-29T10:35:00	0.2257	1.794		0.554118672	0.673960333	0.010514650	0.108477709	0.033433883
2020-01-29T10:40:00	0.2250	1.811		0.551520961	0.670255814	0.010424148	0.107544016	0.033146110
2020-01-29T10:45:00	0.2244	1.835		0.549598394	0.667517665	0.010357423	0.106855623	0.032933941
2020-01-29T10:50:00	0.2243	1.862		0.549367843	0.667189515	0.010349436	0.106773222	0.032908544
2020-01-29T10:55:00	0.2250	1.887		0.551506361	0.670235009	0.010423641	0.107538780	0.033144496
2020-01-29T11:00:00	0.2263	1.912		0.556009579	0.676660388	0.010580777	0.109159930	0.033644150
2020-01-29T11:05:00	0.2254	1.931		0.553075124	0.672471495	0.010478246	0.108102136	0.033318128
2020-01-29T11:10:00	0.2249	1.949		0.551153418	0.669732119	0.010411375	0.107412241	0.033105496
2020-01-29T11:15:00	0.2245	1.967		0.549907676	0.667957944	0.010368142	0.106966213	0.032968026
2020-01-29T11:20:00	0.2244	1.983		0.549677146	0.667629764	0.010360152	0.106883776	0.032942618
2020-01-29T11:25:00	0.2270	2.009		0.558574801	0.680328007	0.010670822	0.110088906	0.033930470
2020-01-29T11:30:00	0.2247	2.033		0.550569968	0.668901016	0.010391116	0.107203224	0.033041075
2020-01-29T11:35:00	0.2235	2.046		0.546614657	0.663274184	0.010254298	0.105791698	0.032606029
2020-01-29T11:40:00	0.2239	2.072		0.548077618	0.665353900	0.010304796	0.106312679	0.032766600
2020-01-29T11:45:00	0.2247	2.091		0.550555364	0.668880217	0.010390609	0.107197995	0.033039463
2020-01-29T11:50:00	0.2236	2.100		0.546938824	0.663734862	0.010265476	0.105907027	0.032641574
2020-01-29T11:55:00	0.2230	2.110		0.545013717	0.661000329	0.010199180	0.105223064	0.032430770
2020-01-29T12:00:00	0.2220	2.132		0.541391390	0.655863190	0.010075025	0.103942175	0.032035988
2020-01-29T12:05:00	0.2222	2.159		0.542178150	0.656978051	0.010101926	0.104219707	0.032121526
2020-01-29T12:10:00	0.2225	2.179		0.543303875	0.658574114	0.010140480	0.104617460	0.032244117
2020-01-29T12:15:00	0.2203	2.203		0.535603583	0.647677254	0.009878241	0.101911988	0.031410264
2020-01-29T12:20:00	0.2201	2.222		0.535032178	0.646870574	0.009858919	0.101712652	0.031348827
2020-01-29T12:25:00	0.2199	2.247		0.534460678	0.646064028	0.009839614	0.101513479	0.031287440
2020-01-29T12:30:00	0.2198	2.274		0.533889083	0.645257614	0.009820324	0.101314470	0.031226104
2020-01-29T12:35:00	0.2204	2.295		0.536037176	0.648289554	0.009892915	0.102063379	0.031456925
2020-01-29T12:40:00	0.2202	2.318		0.535465842	0.647482773	0.009873581	0.101863918	0.031395449
2020-01-29T12:45:00	0.2194	2.331		0.532513934	0.643318624	0.009773994	0.100836498	0.031078788
2020-01-29T12:50:00	0.2199	2.338		0.534322890	0.645869611	0.009834962	0.101465488	0.031272649
2020-01-29T12:55:00	0.2195	2.341		0.533071078	0.644104024	0.009792752	0.101030012	0.031138431
2020-01-29T13:00:00	0.2187	2.340		0.530117120	0.639942750	0.009693508	0.100006138	0.030822863
2020-01-29T13:05:00	0.2201	2.338		0.534988169	0.646808457	0.009857432	0.101697307	0.031344098
2020-01-29T13:10:00	0.2198	2.337		0.534076647	0.645522202	0.009826651	0.101379751	0.031246224
2020-01-29T13:15:00	0.2200	2.340		0.534525102	0.646154935	0.009841789	0.101535922	0.031294357
2020-01-29T13:20:00	0.2189	2.348		0.530891765	0.641033313	0.009719485	0.100274130	0.030905461
2020-01-29T13:25:00	0.2200	2.357		0.534741973	0.646460981	0.009849113	0.101611488	0.031317647
2020-01-29T13:30:00	0.2198	2.370		0.534170425	0.645654501	0.009829816	0.101412399	0.031256286
2020-01-29T13:35:00	0.2195	2.381		0.532918557	0.643888992	0.009787615	0.100977018	0.031122098
2020-01-29T13:40:00	0.2202	2.388		0.535407171	0.647399939	0.009871597	0.101843447	0.031389139
2020-01-29T13:45:00	0.2200	2.400		0.534835733	0.646593306	0.009852281	0.101644167	0.031327719
2020-01-29T13:50:00	0.2211	2.412		0.538341954	0.651546836	0.009971101	0.102870007	0.031705535
2020-01-29T13:55:00	0.2221	2.420		0.541844623	0.656505372	0.010090517	0.104102008	0.032085250
2020-01-29T14:00:00	0.2228	2.425		0.544326825	0.660025362	0.010175578	0.104979563	0.032355721
2020-01-29T14:05:00	0.2221	2.433		0.541721771	0.656331288	0.010086317	0.104058672	0.032071893
2020-01-29T14:10:00	0.2213	2.439		0.539114756	0.652639987	0.009997386	0.103141190	0.031789116
2020-01-29T14:15:00	0.2220	2.440		0.541598914	0.656157209	0.010082117	0.104015343	0.032058539
2020-01-29T14:20:00	0.2218	2.443		0.540689133	0.654868501	0.010051044	0.103694767	0.031959734
2020-01-29T14:25:00	0.2222	2.446		0.542154597	0.656944668	0.010101120	0.104211393	0.032118963
2020-01-29T14:30:00	0.2225	2.446		0.543280329	0.658540720	0.010139673	0.104609132	0.032241551
2020-01-29T14:35:00	0.2226	2.441		0.543388492	0.658694127	0.010143381	0.104647388	0.032253341
2020-01-29T14:40:00	0.2228	2.440		0.544174799	0.659809631	0.010170358	0.104925709	0.032339123
2020-01-29T14:45:00	0.2224	2.443		0.542926548	0.658039022	0.010127549	0.104484053	0.032203000
2020-01-29T14:50:00	0.2220	2.440		0.541338546	0.655788327	0.010073219	0.103923547	0.032030247
2020-01-29T14:55:00	0.2223	2.438		0.542464543	0.657384003	0.010111727	0.104320826	0.032152692
2020-01-29T15:00:00	0.2219	2.435		0.541215676	0.655614267	0.010069022	0.103880242	0.032016899
2020-01-29T15:05:00	0.2210	2.431		0.537929040	0.650962956	0.009957070	0.102725260	0.031660923
2020-01-29T15:10:00	0.2218	2.422		0.540753442	0.654959572	0.010053239	0.103717411	0.031966713
2020-01-29T15:15:00	0.2221	2.419		0.541879630	0.656554980	0.010091715	0.104114359	0.032089057
2020-01-29T15:20:00	0.2212	2.413		0.538933196	0.652383121	0.009991208	0.103077447	0.031769470
2020-01-29T15:25:00	0.2197	2.399		0.533604521	0.644856249	0.009810728	0.101215469	0.031195591
2020-01-29T15:30:00	0.2203	2.376		0.535752791	0.647887941	0.009883289	0.101964072	0.031426317
2020-01-29T15:35:00	0.2189	2.354		0.531099921	0.641326444	0.009726471	0.100346205	0.030927675
2020-01-29T15:40:00	0.2191	2.328		0.531548764	0.641958634	0.009741543	0.100501705	0.030975602
2020-01-29T15:45:00	0.2194	2.312		0.532677954	0.643549816	0.009779514	0.100893448	0.031096341
2020-01-29T15:50:00	0.2201	2.304		0.535166741	0.647060520	0.009863468	0.101759577	0.031363290
2020-01-29T15:55:00	0.2201	2.298		0.534935227	0.646733731	0.009855643	0.101678850	0.031338409
2020-01-29T16:00:00	0.2195	2.289		0.533003429	0.644008646	0.009790473	0.101006505	0.031131186
2020-01-29T16:05:00	0.2196	2.282		0.533316700	0.644450355	0.009801027	0.101115384	0.031164743
2020-01-29T16:10:00	0.2190	2.274		0.531248591	0.641535826	0.009731462	0.100397698	0.030943545
2020-01-29T16:15:00	0.2184	2.266		0.529179241	0.638623034	0.009662105	0.099682156	0.030723009
2020-01-29T16:20:00	0.2181	2.259		0.528130655	0.637148388	0.009627056	0.099320558	0.030611561
2020-01-29T16:25:00	0.2179	2.251		0.527422455	0.636152939	0.009603420	0.099076714	0.030536405
2020-01-29T16:30:00	0.2178	2.246		0.527054852	0.635636394	0.009591163	0.098950261	0.030497431
2020-01-29T16:35:00	0.2174	2.240		0.526005619	0.634162650	0.009556222	0.098589779	0.030386327
2020-01-29T16:40:00	0.2162	2.234		0.521886303	0.628385341	0.009419661	0.097180909	0.029952100
2020-01-29T16:45:00	0.2171	2.229		0.524929151	0.632651583	0.009520440	0.098220628	0.030272551
2020-01-29T16:50:00	0.2165	2.225		0.522856000	0.629744094	0.009451719	0.097511644	0.030054036
2020-01-29T16:55:00	0.2163	2.221		0.522146714	0.628750157	0.009428265	0.097269672	0.029979458
2020-01-29T17:00:00	0.2172	2.216		0.525189332	0.633016720	0.009529082	0.098309787	0.030300031
2020-01-29T17:05:00	0.2169	2.211		0.524139530	0.631543768	0.009494236	0.097950286	0.030189230
2020-01-29T17:10:00	0.2172	2.209		0.525135506	0.632941175	0.009527294	0.098291339	0.030294345
2020-01-29T17:15:00	0.2169	2.209		0.524085687	0.631468247	0.009492451	0.097931866	0.030183552
2020-01-29T17:20:00	0.2169	2.207		0.524058766	0.631430487	0.009491558	0.097922656	0.030180714
2020-01-29T17:25:00	0.2171	2.207		0.524713825	0.632349436	0.009513291	0.098146870	0.030249818
2020-01-29T17:30:00	0.2164	2.209		0.522299365	0.628964036	0.009433310	0.097321723	0.029995500
2020-01-29T17:35:00	0.2168	2.210		0.523636953	0.630838932	0.009477577	0.097778415	0.030136257
2020-01-29T17:40:00	0.2168	2.211		0.523951077	0.631279449	0.009487988	0.097885821	0.030169361
2020-01-29T17:45:00	0.2159	2.209		0.520853470	0.626938960	0.009385576	0.096829260	0.029843718
2020-01-29T17:50:00	0.2156	2.206		0.519802343	0.625467848	0.009350951	0.096472039	0.029733619
2020-01-29T17:55:00	0.2161	2.202		0.521482198	0.627819328	0.009406318	0.097043247	0.029909671
2020-01-29T18:00:00	0.2158	2.201		0.520431264	0.626347951	0.009371661	0.096685695	0.029799470
2020-01-29T18:05:00	0.2156	2.200		0.519721477	0.625354709	0.009348290	0.096444584	0.029725158
2020-01-29T18:10:00	0.2159	2.200		0.520718733	0.626750338	0.009381134	0.096783433	0.029829594
2020-01-29T18:15:00	0.2159	2.199		0.520691785	0.626712614	0.009380246	0.096774269	0.029826769
2020-01-29T18:20:00	0.2161	2.198		0.521347485	0.627630672	0.009401872	0.096997378	0.029895534
2020-01-29T18:25:00	0.2164	2.195		0.522344270	0.629026955	0.009434795	0.097337038	0.030000220
2020-01-29T18:30:00	0.2181	2.190		0.528112754	0.637123221	0.009626458	0.099314391	0.030609660
2020-01-29T18:35:00	0.2196	2.185		0.533191426	0.644273710	0.009796806	0.101071837	0.031151322
2020-01-29T18:40:00	0.2199	2.173		0.534184790	0.645674768	0.009830301	0.101417400	0.031257828
2020-01-29T18:45:00	0.2204	2.166		0.536197488	0.648515979	0.009898343	0.102119382	0.031474185
2020-01-29T18:50:00	0.2201	2.155		0.535151033	0.647038345	0.009862937	0.101754098	0.031361601
2020-01-29T18:55:00	0.2210	2.152		0.538182202	0.651320924	0.009965671	0.102813994	0.031688271
2020-01-29T19:00:00	0.2211	2.149		0.538495005	0.651763292	0.009976304	0.102923685	0.031722079
2020-01-29T19:05:00	0.2210	2.123		0.538128579	0.651245096	0.009963849	0.102795195	0.031682478
2020-01-29T19:10:00	0.2197	2.109		0.533683676	0.644967887	0.009813396	0.101243002	0.031204077
2020-01-29T19:15:00	0.2186	2.098		0.529913994	0.639656865	0.009686703	0.099935925	0.030801223
2020-01-29T19:20:00	0.2183	2.096		0.528865632	0.638181906	0.009651616	0.099573941	0.030689656
2020-01-29T19:25:00	0.2183	2.095		0.528838748	0.638144094	0.009650717	0.099564667	0.030686797
2020-01-29T19:30:00	0.2178	2.090		0.527108686	0.635712034	0.009592958	0.098968775	0.030503138
2020-01-29T19:35:00	0.2177	2.086		0.526741049	0.635195536	0.009580706	0.098842380	0.030464181
2020-01-29T19:40:00	0.2181	2.083		0.528076913	0.637072834	0.009625261	0.099302043	0.030605854
2020-01-29T19:45:00	0.2179	2.080		0.527709379	0.636556192	0.009612992	0.099175470	0.030566843
2020-01-29T19:50:00	0.2168	2.076		0.523933155	0.631254313	0.009487394	0.097879691	0.030167471
2020-01-29T19:55:00	0.2171	2.076		0.524929190	0.632651637	0.009520442	0.098220641	0.030272555
2020-01-29T20:00:00	0.2184	2.075		0.529331619	0.638837400	0.009667204	0.099734758	0.030739221
2020-01-29T20:05:00	0.2170	2.073		0.524534402	0.632097698	0.009507336	0.098085431	0.030230882
2020-01-29T20:10:00	0.2180	2.073		0.527915567	0.636846016	0.009619874	0.099246468	0.030588725
2020-01-29T20:15:00	0.2180	2.066		0.527888676	0.636808215	0.009618976	0.099237207	0.030585871
2020-01-29T20:20:00	0.2177	2.063		0.526839697	0.635334117	0.009583993	0.098876287	0.030474632
2020-01-29T20:25:00	0.2178	2.059		0.527153529	0.635775041	0.009594452	0.098984197	0.030507891
2020-01-29T20:30:00	0.2177	2.056		0.526785896	0.635258537	0.009582200	0.098857794	0.030468932
2020-01-29T20:35:00	0.2180	2.054		0.527781107	0.636657010	0.009615386	0.099200166	0.030574454
2020-01-29T20:40:00	0.2190	2.052		0.531159089	0.641409772	0.009728457	0.100366696	0.030933991
2020-01-29T20:45:00	0.2191	2.048		0.531472528	0.641851246	0.009738982	0.100475285	0.030967459
2020-01-29T20:50:00	0.2180	2.046		0.528041072	0.637022447	0.009624064	0.099289697	0.030602049
2020-01-29T20:55:00	0.2190	2.043		0.531418800	0.641775565	0.009737178	0.100456667	0.030961720
2020-01-29T21:00:00	0.2178	2.040		0.527305958	0.635989228	0.009599535	0.099036631	0.030524051
2020-01-29T21:05:00	0.2179	2.035		0.527619747	0.636430212	0.009610002	0.099144614	0.030557333
2020-01-29T21:10:00	0.2170	2.030		0.524525442	0.632085128	0.009507038	0.098082364	0.030229937
2020-01-29T21:15:00	0.2173	2.024		0.525521306	0.633482691	0.009540115	0.098423608	0.030335112
2020-01-29T21:20:00	0.2157	2.011		0.520035998	0.625794784	0.009358642	0.096551388	0.029758076
2020-01-29T21:25:00	0.2164	2.004		0.522398178	0.629102493	0.009436577	0.097355424	0.030005887
2020-01-29T21:30:00	0.2161	1.999		0.521347524	0.627630726	0.009401873	0.096997391	0.029895538
2020-01-29T21:35:00	0.2163	1.990		0.522003100	0.628548958	0.009423520	0.097220715	0.029964369
2020-01-29T21:40:00	0.2151	1.980		0.517878982	0.622778314	0.009287760	0.095820107	0.029532688
2020-01-29T21:45:00	0.2162	1.967		0.521607976	0.627995486	0.009410470	0.097086084	0.029922874
2020-01-29T21:50:00	0.2157	1.960		0.519874274	0.625568491	0.009353319	0.096496463	0.029741147
2020-01-29T21:55:00	0.2150	1.955		0.517798071	0.622665237	0.009285106	0.095792730	0.029524250
2020-01-29T22:00:00	0.2138	1.951		0.513668896	0.616901587	0.009150189	0.094400808	0.029095246
2020-01-29T22:05:00	0.2144	1.942		0.515523951	0.619489233	0.009210679	0.095024875	0.029287589
2020-01-29T22:10:00	0.2149	1.934		0.517378004	0.622078263	0.009271336	0.095650662	0.029480463
2020-01-29T22:15:00	0.2163	1.923		0.521961978	0.628491350	0.009422161	0.097206699	0.029960049
2020-01-29T22:20:00	0.2169	1.916		0.524153589	0.631563488	0.009494703	0.097955096	0.030190712
2020-01-29T22:25:00	0.2180	1.913		0.528047361	0.637031288	0.009624274	0.099291863	0.030602716
2020-01-29T22:30:00	0.2187	1.912		0.530235103	0.640108818	0.009697462	0.100046931	0.030835436
2020-01-29T22:35:00	0.2198	1.911		0.534122015	0.645586205	0.009828182	0.101395545	0.031251092
2020-01-29T22:40:00	0.2209	1.910		0.537664893	0.650589515	0.009948100	0.102632717	0.031632400
2020-01-29T22:45:00	0.2219	1.910		0.541204145	0.655597934	0.010068628	0.103876179	0.032015647
2020-01-29T22:50:00	0.2233	1.909		0.545756590	0.662055189	0.010224737	0.105486730	0.032512035
2020-01-29T22:55:00	0.2244	1.909		0.549626115	0.667557124	0.010358383	0.106865532	0.032936995
2020-01-29T23:00:00	0.2254	1.909		0.553153184	0.672582832	0.010480967	0.108130207	0.033326780
2020-01-29T23:05:00	0.2258	1.909		0.554311117	0.674234994	0.010521371	0.108547042	0.033455253
2020-01-29T23:10:00	0.2256	1.906		0.553778555	0.673474987	0.010502778	0.108355228	0.033396134
2020-01-29T23:15:00	0.2266	1.900		0.556963638	0.678023819	0.010614222	0.109504969	0.033750495
2020-01-29T23:20:00	0.2269	1.894		0.558120304	0.679677796	0.010654840	0.109924022	0.033879651
2020-01-29T23:25:00	0.2286	1.886		0.563662243	0.687617791	0.010850549	0.111943113	0.034501955
2020-01-29T23:30:00	0.2285	1.880		0.563468290	0.687339485	0.010843669	0.111872135	0.034480078
2020-01-29T23:35:00	0.2286	1.875		0.563948628	0.688028786	0.010860712	0.112047959	0.034534269
2020-01-29T23:40:00	0.2293	1.873		0.566113855	0.691138319	0.010937703	0.112842268	0.034779083
2020-01-29T23:45:00	0.2298	1.875		0.567941023	0.693765370	0.011002890	0.113514783	0.034986359
2020-01-29T23:50:00	0.2301	1.876		0.568757418	0.694940051	0.011032079	0.113815926	0.035079174
2020-01-29T23:55:00	0.2311	1.874		0.572265197	0.699993538	0.011157945	0.115114465	0.035479396
2020-01-30T00:00:00	0.2312	1.868		0.572408041	0.700199541	0.011163086	0.115167503	0.035495743
2020-01-30T00:05:00	0.2324	1.863		0.576584037	0.706229468	0.011313914	0.116723569	0.035975337
2020-01-30T00:10:00	0.2321	1.865		0.575718891	0.704979054	0.011282582	0.116400321	0.035875710
2020-01-30T00:15:00	0.2323	1.860		0.576197550	0.705670793	0.011299912	0.116579108	0.035930813
2020-01-30T00:20:00	0.2330	1.853		0.578690932	0.709277202	0.011390403	0.117512689	0.036218552
2020-01-30T00:25:00	0.2324	1.851		0.576482911	0.706083276	0.011310250	0.116685761	0.035963685
2020-01-30T00:30:00	0.2329	1.853		0.578304677	0.708718188	0.011376361	0.117367817	0.036173901
2020-01-30T00:35:00	0.2335	1.852		0.580125498	0.711354484	0.011442634	0.118051549	0.036384634
2020-01-30T00:40:00	0.2337	1.849		0.580939059	0.712533298	0.011472310	0.118357703	0.036478994
2020-01-30T00:45:00	0.2348	1.848		0.584769818	0.718091282	0.011612568	0.119804721	0.036924979
2020-01-30T00:50:00	0.2347	1.847		0.584241874	0.717324573	0.011593186	0.119604763	0.036863349
2020-01-30T00:55:00	0.2356	1.843		0.587399361	0.721913505	0.011709350	0.120803205	0.037232721
2020-01-30T01:00:00	0.2356	1.843		0.587206717	0.721633288	0.011702246	0.120729911	0.037210131
2020-01-30T01:05:00	0.2369	1.846		0.591699651	0.728176681	0.011868512	0.122445253	0.037738816
2020-01-30T01:10:00	0.2369	1.846		0.591841706	0.728383841	0.011873789	0.122499691	0.037755594
2020-01-30T01:15:00	0.2364	1.846		0.589976571	0.725665245	0.011804605	0.121785938	0.037535609
2020-01-30T01:20:00	0.2372	1.840		0.592794581	0.729773859	0.011909214	0.122865164	0.037868237
2020-01-30T01:25:00	0.2371	1.834		0.592267839	0.729005374	0.011889624	0.122663064	0.037805948
2020-01-30T01:30:00	0.2366	1.822		0.590737499	0.726774013	0.011832805	0.122076873	0.037625278
2020-01-30T01:35:00	0.2367	1.808		0.590879594	0.726981116	0.011838075	0.122131241	0.037642035
2020-01-30T01:40:00	0.2372	1.798		0.592693920	0.729626982	0.011905469	0.122826529	0.037856329
2020-01-30T01:45:00	0.2373	1.787		0.593170275	0.730322114	0.011923196	0.123009414	0.037912696
2020-01-30T01:50:00	0.2376	1.773		0.593980827	0.731505367	0.011953391	0.123320927	0.038008707
2020-01-30T01:55:00	0.2377	1.757		0.594457008	0.732200757	0.011971148	0.123504122	0.038065170
2020-01-30T02:00:00	0.2388	1.741		0.597939251	0.737291798	0.012101413	0.124848048	0.038479381
2020-01-30T02:05:00	0.2389	1.726		0.598414898	0.737987981	0.012119263	0.125032198	0.038536138
2020-01-30T02:10:00	0.2382	1.714		0.595885165	0.734287499	0.012024485	0.124054397	0.038234770
2020-01-30T02:15:00	0.2385	1.703		0.597029069	0.735960133	0.012067295	0.124496054	0.038370893
2020-01-30T02:20:00	0.2379	1.692		0.595166674	0.733237468	0.011997636	0.123777402	0.038149398
2020-01-30T02:25:00	0.2384	1.681		0.596644820	0.735398157	0.012052906	0.124347607	0.038325140
2020-01-30T02:30:00	0.2384	1.669		0.596786677	0.735605613	0.012058217	0.124402400	0.038342028
2020-01-30T02:35:00	0.2395	1.657		0.600266626	0.740700071	0.012188881	0.125750435	0.038757505
2020-01-30T02:40:00	0.2390	1.648		0.598739749	0.738463559	0.012131461	0.125158046	0.038574925
2020-01-30T02:45:00	0.2389	1.640		0.598213893	0.737693756	0.012111718	0.124954360	0.038512147
2020-01-30T02:50:00	0.2392	1.629		0.599357043	0.739367513	0.012154658	0.125397367	0.038648686
2020-01-30T02:55:00	0.2394	1.620		0.600166177	0.740552878	0.012185099	0.125711420	0.038745480
2020-01-30T03:00:00	0.2393	1.614		0.599640533	0.739782758	0.012165319	0.125507353	0.038682585
2020-01-30T03:05:00	0.2379	1.608		0.595107408	0.733150874	0.011995423	0.123754568	0.038142360
2020-01-30T03:10:00	0.2379	1.602		0.594915185	0.732870033	0.011988246	0.123680523	0.038119538
2020-01-30T03:15:00	0.2379	1.594		0.595057111	0.733077386	0.011993545	0.123735191	0.038136388
2020-01-30T03:20:00	0.2362	1.586		0.589179541	0.724504388	0.011775104	0.121481582	0.037441803
2020-01-30T03:25:00	0.2364	1.579		0.589991012	0.725686281	0.011805140	0.121791456	0.037537310
2020-01-30T03:30:00	0.2355	1.571		0.587120348	0.721507667	0.011699061	0.120697058	0.037200005
2020-01-30T03:35:00	0.2366	1.561		0.590609837	0.726587959	0.011828072	0.122028037	0.037610226
2020-01-30T03:40:00	0.2358	1.553		0.588074500	0.722895795	0.011734265	0.121060253	0.037311946
2020-01-30T03:45:00	0.2355	1.544		0.586877274	0.721154158	0.011690101	0.120604622	0.037171516
2020-01-30T03:50:00	0.2345	1.536		0.583668858	0.716492669	0.011572168	0.119387927	0.036796519
2020-01-30T03:55:00	0.2345	1.526		0.583476010	0.716212753	0.011565099	0.119314996	0.036774041
2020-01-30T04:00:00	0.2341	1.520		0.582277217	0.714473424	0.011521205	0.118862152	0.036634470
2020-01-30T04:05:00	0.2336	1.517		0.580641520	0.712102113	0.011461452	0.118245688	0.036444469
2020-01-30T04:10:00	0.2324	1.511		0.576654573	0.706331442	0.011316471	0.116749943	0.035983466
2020-01-30T04:15:00	0.2332	1.505		0.579382229	0.710278002	0.011415557	0.117772201	0.036298536
2020-01-30T04:20:00	0.2333	1.500		0.579759357	0.710824142	0.011429292	0.117913897	0.036342208
2020-01-30T04:25:00	0.2324	1.499		0.576443304	0.706026021	0.011308815	0.116670955	0.035959121
2020-01-30T04:30:00	0.2328	1.501		0.577828245	0.708028835	0.011359052	0.117189248	0.036118864
2020-01-30T04:35:00	0.2320	1.501		0.575182505	0.704204116	0.011263179	0.116200140	0.035814012
2020-01-30T04:40:00	0.2325	1.502		0.576903833	0.706691832	0.011325507	0.116843171	0.036012200
2020-01-30T04:45:00	0.2323	1.504		0.576273573	0.705780675	0.011302665	0.116607516	0.035939569
2020-01-30T04:50:00	0.2316	1.506		0.573962829	0.702442889	0.011219121	0.115745605	0.035673920
2020-01-30T04:55:00	0.2316	1.509		0.574004406	0.702502906	0.011220622	0.115761085	0.035678691
2020-01-30T05:00:00	0.2331	1.513		0.579084558	0.709847011	0.011404722	0.117660420	0.036264084
2020-01-30T05:05:00	0.2336	1.516		0.580468457	0.711851350	0.011455139	0.118180559	0.036424396
2020-01-30T05:10:00	0.2328	1.520		0.577824708	0.708023718	0.011358924	0.117187923	0.036118456
2020-01-30T05:15:00	0.2338	1.528		0.581222439	0.712944031	0.011482655	0.118464438	0.036511890
2020-01-30T05:20:00	0.2342	1.535		0.582605496	0.714949605	0.011533217	0.118986072	0.036672663
2020-01-30T05:25:00	0.2340	1.545		0.581976259	0.714036950	0.011510199	0.118748603	0.036599473
2020-01-30T05:30:00	0.2331	1.553		0.578997989	0.709721684	0.011401572	0.117627922	0.036254068
2020-01-30T05:35:00	0.2318	1.562		0.574673102	0.703468382	0.011244767	0.116010191	0.035755468
2020-01-30T05:40:00	0.2318	1.571		0.574714670	0.703528411	0.011246269	0.116025685	0.035760243
2020-01-30T05:45:00	0.2322	1.579		0.575764328	0.705044710	0.011284227	0.116417287	0.035880938
2020-01-30T05:50:00	0.2320	1.587		0.575133863	0.704133853	0.011261420	0.116181995	0.035808419
2020-01-30T05:55:00	0.2313	1.593		0.572822368	0.700797163	0.011178005	0.115321414	0.035543180
2020-01-30T06:00:00	0.2324	1.600		0.576560867	0.706195972	0.011313075	0.116714906	0.035972667
2020-01-30T06:05:00	0.2323	1.608		0.576266495	0.705770446	0.011302409	0.116604871	0.035938754
2020-01-30T06:10:00	0.2325	1.616		0.576979840	0.706801736	0.011328263	0.116871606	0.036020964
2020-01-30T06:15:00	0.2330	1.624		0.578700286	0.709290741	0.011390743	0.117516198	0.036219634
2020-01-30T06:20:00	0.2335	1.631		0.580419889	0.711780979	0.011453368	0.118162285	0.036418764
2020-01-30T06:25:00	0.2333	1.636		0.579454647	0.710382865	0.011418194	0.117799403	0.036306920
2020-01-30T06:30:00	0.2333	1.642		0.579496159	0.710442977	0.011419706	0.117814998	0.036311726
2020-01-30T06:35:00	0.2331	1.648		0.578866364	0.709531140	0.011396784	0.117578518	0.036238841
2020-01-30T06:40:00	0.2325	1.656		0.576893219	0.706676485	0.011325122	0.116839200	0.036010976
2020-01-30T06:45:00	0.2320	1.662		0.575255010	0.704308853	0.011265801	0.116227188	0.035822348
2020-01-30T06:50:00	0.2317	1.667		0.574288346	0.702912819	0.011230871	0.115866826	0.035711281
2020-01-30T06:55:00	0.2311	1.673		0.572312622	0.700061930	0.011159652	0.115132072	0.035484823
2020-01-30T07:00:00	0.2318	1.678		0.574707590	0.703518186	0.011246013	0.116023046	0.035759430
2020-01-30T07:05:00	0.2319	1.684		0.574749158	0.703578216	0.011247515	0.116038541	0.035764205
2020-01-30T07:10:00	0.2324	1.693		0.576470698	0.706065621	0.011309807	0.116681195	0.035962278
2020-01-30T07:15:00	0.2324	1.702		0.576512245	0.706125681	0.011311313	0.116696727	0.035967065
2020-01-30T07:20:00	0.2334	1.710		0.579911246	0.711044134	0.011434826	0.117970990	0.036359805
2020-01-30T07:25:00	0.2307	1.718		0.570880342	0.697997228	0.011108167	0.114600911	0.035321114
2020-01-30T07:30:00	0.2321	1.728		0.575629042	0.704849230	0.011279331	0.116366777	0.035865371
2020-01-30T07:35:00	0.2324	1.741		0.576678427	0.706365928	0.011317335	0.116758863	0.035986216
2020-01-30T07:40:00	0.2314	1.754		0.573359458	0.701572069	0.011197359	0.115521084	0.035604720
2020-01-30T07:45:00	0.2323	1.768		0.576089678	0.705514884	0.011296005	0.116538804	0.035918391
2020-01-30T07:50:00	0.2334	1.783		0.579824697	0.710918777	0.011431672	0.117938456	0.036349777
2020-01-30T07:55:00	0.2338	1.801		0.581208305	0.712923543	0.011482139	0.118459113	0.036510249
2020-01-30T08:00:00	0.2332	1.824		0.579236476	0.710066960	0.011410251	0.117717461	0.036281665
2020-01-30T08:05:00	0.2343	1.848		0.582968151	0.715475754	0.011546493	0.119123045	0.036714879
2020-01-30T08:10:00	0.2342	1.871		0.582674316	0.715049442	0.011535736	0.119012059	0.036680672
2020-01-30T08:15:00	0.2336	1.892		0.580703310	0.712191651	0.011463706	0.118268946	0.036451638
2020-01-30T08:20:00	0.2337	1.912		0.581080296	0.712737999	0.011477465	0.118410894	0.036495387
2020-01-30T08:25:00	0.2326	1.932		0.577429686	0.707452300	0.011344583	0.117039973	0.036072856
2020-01-30T08:30:00	0.2329	1.951		0.578142793	0.708483936	0.011370478	0.117307127	0.036155196
2020-01-30T08:35:00	0.2343	1.974		0.582881678	0.715350287	0.011543327	0.119090377	0.036704811
2020-01-30T08:40:00	0.2333	1.997		0.579568574	0.710547844	0.011422343	0.117842204	0.036320112
2020-01-30T08:45:00	0.2335	2.025		0.580281248	0.711580116	0.011448312	0.118110128	0.036402689
2020-01-30T08:50:00	0.2325	2.051		0.576965688	0.706781273	0.011327750	0.116866312	0.036019332
2020-01-30T08:55:00	0.2333	2.079		0.579693103	0.710728187	0.011426878	0.117888997	0.036334534
2020-01-30T09:00:00	0.2317	2.106		0.574360869	0.703017528	0.011233490	0.115893842	0.035719608
2020-01-30T09:05:00	0.2324	2.130		0.576754439	0.706475826	0.011320091	0.116787290	0.035994977
2020-01-30T09:10:00	0.2343	2.154		0.582836674	0.715284992	0.011541679	0.119073377	0.036699571
2020-01-30T09:15:00	0.2341	2.175		0.582207479	0.714372276	0.011518655	0.118835835	0.036626359
2020-01-30T09:20:00	0.2354	2.194		0.586605958	0.720759634	0.011680105	0.120501489	0.037139729
2020-01-30T09:25:00	0.2356	2.217		0.587317207	0.721794001	0.011706320	0.120771946	0.037223087
2020-01-30T09:30:00	0.2366	2.245		0.590705783	0.726727789	0.011831629	0.122064739	0.037621538
2020-01-30T09:35:00	0.2358	2.273		0.588069722	0.722888842	0.011734089	0.121058432	0.037311385
2020-01-30T09:40:00	0.2362	2.302		0.589450090	0.724898377	0.011785114	0.121584850	0.037473632
2020-01-30T09:45:00	0.2370	2.333		0.592167844	0.728859514	0.011885908	0.122624717	0.037794129
2020-01-30T09:50:00	0.2373	2.361		0.592877971	0.729895541	0.011912317	0.122897175	0.037878103
2020-01-30T09:55:00	0.2367	2.387		0.590912672	0.727029331	0.011839302	0.122143899	0.037645936
2020-01-30T10:00:00	0.2378	2.417		0.594631996	0.732456349	0.011977676	0.123571478	0.038085930
2020-01-30T10:05:00	0.2382	2.448		0.596104388	0.734607966	0.012032683	0.124138976	0.038260838
2020-01-30T10:10:00	0.2382	2.473		0.595906241	0.734318306	0.012025273	0.124062527	0.038237276
2020-01-30T10:15:00	0.2374	2.502		0.593368727	0.730611767	0.011930585	0.123085646	0.037936192
2020-01-30T10:20:00	0.2371	2.537		0.592501716	0.729346558	0.011898320	0.122752777	0.037833598
2020-01-30T10:25:00	0.2374	2.566		0.593306440	0.730520851	0.011928266	0.123061717	0.037928816
2020-01-30T10:30:00	0.2362	2.595		0.589428597	0.724867075	0.011784319	0.121576645	0.037471103
2020-01-30T10:35:00	0.2354	2.624		0.586551480	0.720680424	0.011678098	0.120480787	0.037133348
2020-01-30T10:40:00	0.2362	2.652		0.589366240	0.724776263	0.011782011	0.121552840	0.037463766
2020-01-30T10:45:00	0.2348	2.677		0.584478753	0.717668552	0.011601880	0.119694459	0.036890995
2020-01-30T10:50:00	0.2343	2.701		0.582939023	0.715433491	0.011545427	0.119112040	0.036711488
2020-01-30T10:55:00	0.2347	2.720		0.584416308	0.717577870	0.011599588	0.119670811	0.036883706
2020-01-30T11:00:00	0.2356	2.736		0.587232775	0.721671190	0.011703206	0.120739824	0.037213186
2020-01-30T11:05:00	0.2354	2.752		0.586699206	0.720895220	0.011683540	0.120536930	0.037150652
2020-01-30T11:10:00	0.2358	2.769		0.587840101	0.722554714	0.011725612	0.120970978	0.037284430
2020-01-30T11:15:00	0.2371	2.787		0.592326243	0.729090571	0.011891796	0.122685464	0.037812852
2020-01-30T11:20:00	0.2370	2.807		0.592127884	0.728801226	0.011884422	0.122609395	0.037789406
2020-01-30T11:25:00	0.2360	2.830		0.588583518	0.723636639	0.011753068	0.121254237	0.037371734
2020-01-30T11:30:00	0.2367	2.854		0.591062148	0.727247214	0.011844847	0.122201108	0.037663568
2020-01-30T11:35:00	0.2371	2.879		0.592201631	0.728908796	0.011887163	0.122637673	0.037798122
2020-01-30T11:40:00	0.2364	2.905		0.589996090	0.725693680	0.011805328	0.121793397	0.037537908
2020-01-30T11:45:00	0.2368	2.933		0.591470418	0.727842424	0.011860000	0.122357435	0.037711750
2020-01-30T11:50:00	0.2386	2.962		0.597287934	0.736338803	0.012076993	0.124596113	0.038401732
2020-01-30T11:55:00	0.2382	2.989		0.596087854	0.734583794	0.012032065	0.124132596	0.038258872
2020-01-30T12:00:00	0.2379	3.008		0.594887367	0.732829393	0.011987207	0.123669809	0.038116236
2020-01-30T12:05:00	0.2384	3.024		0.596693657	0.735469576	0.012054734	0.124366469	0.038330954
2020-01-30T12:10:00	0.2400	3.042		0.602169130	0.743489518	0.012260621	0.126490571	0.038985623
2020-01-30T12:15:00	0.2402	3.056		0.602638242	0.744177795	0.012278344	0.126673415	0.039041977
2020-01-30T12:20:00	0.2414	3.071		0.606772627	0.750251694	0.012435109	0.128290732	0.039540450
2020-01-30T12:25:00	0.2403	3.089		0.602909537	0.744575920	0.012288600	0.126779218	0.039074586
2020-01-30T12:30:00	0.2390	3.102		0.598708445	0.738417727	0.012130285	0.125145916	0.038571187
2020-01-30T12:35:00	0.2390	3.115		0.598844246	0.738616560	0.012135386	0.125198542	0.038587407
2020-01-30T12:40:00	0.2383	3.131		0.596308843	0.734906880	0.012040332	0.124217883	0.038285158
2020-01-30T12:45:00	0.2380	3.148		0.595442554	0.733640598	0.012007942	0.123883723	0.038182167
2020-01-30T12:50:00	0.2369	3.155		0.591567060	0.727983338	0.011863588	0.122394454	0.037723160
2020-01-30T12:55:00	0.2366	3.166		0.590699606	0.726718787	0.011831400	0.122062376	0.037620810
2020-01-30T13:00:00	0.2364	3.179		0.590166563	0.725942041	0.011811643	0.121858547	0.037557988
2020-01-30T13:05:00	0.2374	3.189		0.593312763	0.730530081	0.011928501	0.123064146	0.037929565
2020-01-30T13:10:00	0.2364	3.195		0.590104219	0.725851210	0.011809334	0.121834718	0.037550643
2020-01-30T13:15:00	0.2370	3.207		0.591912959	0.728487756	0.011876436	0.122527000	0.037764011
2020-01-30T13:20:00	0.2353	3.217		0.586359131	0.720400771	0.011671014	0.120407704	0.037110824
2020-01-30T13:25:00	0.2348	3.223		0.584485092	0.717677759	0.011602113	0.119696860	0.036891735
2020-01-30T13:30:00	0.2332	3.226		0.579255180	0.710094042	0.011410932	0.117724485	0.036283830
2020-01-30T13:35:00	0.2336	3.225		0.580734015	0.712236145	0.011464827	0.118280504	0.036455200
2020-01-30T13:40:00	0.2340	3.224		0.581876845	0.713892789	0.011506565	0.118711108	0.036587916
2020-01-30T13:45:00	0.2348	3.227		0.584695346	0.717983116	0.011609833	0.119776505	0.036916282
2020-01-30T13:50:00	0.2354	3.234		0.586506865	0.720615556	0.011676455	0.120463833	0.037128123
2020-01-30T13:55:00	0.2364	3.237		0.589990974	0.725686226	0.011805139	0.121791441	0.037537305
2020-01-30T14:00:00	0.2365	3.246		0.590461706	0.726372092	0.011822581	0.121971384	0.037592765
2020-01-30T14:05:00	0.2365	3.254		0.590263241	0.726082902	0.011815225	0.121895502	0.037569378
2020-01-30T14:10:00	0.2368	3.260		0.591402982	0.727744102	0.011857497	0.122331607	0.037703789
2020-01-30T14:15:00	0.2354	3.261		0.586518323	0.720632214	0.011676877	0.120468187	0.037129465
2020-01-30T14:20:00	0.2379	3.265		0.595018205	0.733020543	0.011992092	0.123720204	0.038131768
2020-01-30T14:25:00	0.2395	3.270		0.600496271	0.741036616	0.012197529	0.125839656	0.038785004
2020-01-30T14:30:00	0.2398	3.274		0.601299176	0.742213618	0.012227790	0.126151854	0.038881226
2020-01-30T14:35:00	0.2417	3.278		0.607766515	0.751713969	0.012472948	0.128681104	0.039660766
2020-01-30T14:40:00	0.2433	3.280		0.612892468	0.759268786	0.012669040	0.130704151	0.040284289
2020-01-30T14:45:00	0.2435	3.281		0.613692572	0.760449999	0.012699790	0.131021395	0.040382067
2020-01-30T14:50:00	0.2419	3.281		0.608505754	0.752802125	0.012501130	0.128971853	0.039750378
2020-01-30T14:55:00	0.2419	3.281		0.608308299	0.752511428	0.012493599	0.128894160	0.039726432
2020-01-30T15:00:00	0.2416	3.279		0.607444942	0.751240759	0.012460699	0.128554732	0.039621817
2020-01-30T15:05:00	0.2424	3.277		0.609910392	0.754871009	0.012554769	0.129525243	0.039920938
2020-01-30T15:10:00	0.2420	3.274		0.608714583	0.753109604	0.012509097	0.129054049	0.039775711
2020-01-30T15:15:00	0.2426	3.269		0.610846509	0.756250730	0.012590583	0.129894726	0.040034816
2020-01-30T15:20:00	0.2424	3.262		0.609983770	0.754979132	0.012557575	0.129554185	0.039929858
2020-01-30T15:25:00	0.2424	3.252		0.610119139	0.755178612	0.012562751	0.129607587	0.039946317
2020-01-30T15:30:00	0.2419	3.239		0.608257661	0.752436883	0.012491668	0.128874239	0.039720292
2020-01-30T15:35:00	0.2423	3.223		0.609724398	0.754596964	0.012547660	0.129451896	0.039898331
2020-01-30T15:40:00	0.2427	3.207		0.610857888	0.756267506	0.012591019	0.129899220	0.040036201
2020-01-30T15:45:00	0.2428	3.188		0.611325852	0.756957508	0.012608942	0.130084131	0.040093193
2020-01-30T15:50:00	0.2413	3.170		0.606468657	0.749804638	0.012423549	0.128171463	0.039503690
2020-01-30T15:55:00	0.2404	3.150		0.603272036	0.745107984	0.012302310	0.126920661	0.039118180
2020-01-30T16:00:00	0.2386	3.131		0.597402156	0.736505904	0.012081274	0.124640276	0.038415344
2020-01-30T16:05:00	0.2383	3.112		0.596420637	0.735070338	0.012044515	0.124261040	0.038298459
2020-01-30T16:10:00	0.2381	3.093		0.595772938	0.734123457	0.012020289	0.124011110	0.038221428
2020-01-30T16:15:00	0.2375	3.074		0.593788315	0.731224287	0.011946216	0.123246904	0.037985893
2020-01-30T16:20:00	0.2366	3.058		0.590799074	0.726863757	0.011835089	0.122100431	0.037632539
2020-01-30T16:25:00	0.2369	3.041		0.591822993	0.728356551	0.011873094	0.122492519	0.037753384
2020-01-30T16:30:00	0.2365	3.025		0.590505361	0.726435708	0.011824199	0.121988079	0.037597911
2020-01-30T16:35:00	0.2372	3.010		0.592532659	0.729391701	0.011899471	0.122764649	0.037837257
2020-01-30T16:40:00	0.2373	2.996		0.592887438	0.729909356	0.011912669	0.122900809	0.037879223
2020-01-30T16:45:00	0.2372	2.980		0.592573486	0.729451266	0.011900989	0.122780314	0.037842085
2020-01-30T16:50:00	0.2366	2.967		0.590587062	0.726554769	0.011827228	0.122019326	0.037607541
2020-01-30T16:55:00	0.2369	2.953		0.591611043	0.728047472	0.011865222	0.122411304	0.037728353
2020-01-30T17:00:00	0.2380	2.939		0.595308704	0.733445001	0.012002941	0.123832133	0.038166266
2020-01-30T17:05:00	0.2378	2.927		0.594660801	0.732498423	0.011978751	0.123582568	0.038089348
2020-01-30T17:10:00	0.2364	2.912		0.589999577	0.725698760	0.011805458	0.121794729	0.037538318
2020-01-30T17:15:00	0.2381	2.899		0.595703995	0.734022689	0.012017712	0.123984522	0.038213234
2020-01-30T17:20:00	0.2395	2.884		0.600398436	0.740893234	0.012193844	0.125801642	0.038773288
2020-01-30T17:25:00	0.2404	2.867		0.603420273	0.745325592	0.012307918	0.126978525	0.039136015
2020-01-30T17:30:00	0.2403	2.849		0.603107255	0.744866109	0.012296077	0.126856355	0.039098361
2020-01-30T17:35:00	0.2411	2.833		0.605793666	0.748812190	0.012397897	0.127906820	0.039422124
2020-01-30T17:40:00	0.2424	2.815		0.610142051	0.755212378	0.012563627	0.129616627	0.039949103
2020-01-30T17:45:00	0.2434	2.798		0.613488026	0.760147972	0.012691925	0.130940254	0.040357058
2020-01-30T17:50:00	0.2440	2.781		0.615502213	0.763123605	0.012769482	0.131740390	0.040603668
2020-01-30T17:55:00	0.2460	2.764		0.621829097	0.772492762	0.013014688	0.134270135	0.041383359
2020-01-30T18:00:00	0.2457	2.745		0.620854311	0.771047053	0.012976752	0.133878754	0.041262732
2020-01-30T18:05:00	0.2461	2.722		0.622201203	0.773044843	0.013029184	0.134419692	0.041429455
2020-01-30T18:10:00	0.2462	2.697		0.622553027	0.773566943	0.013042898	0.134561178	0.041473062
2020-01-30T18:15:00	0.2451	2.676		0.618924201	0.768186863	0.012901806	0.133105550	0.041024423
2020-01-30T18:20:00	0.2466	2.651		0.623919511	0.775595764	0.013096235	0.135111439	0.041642658
2020-01-30T18:25:00	0.2464	2.628		0.623276810	0.774641348	0.013071135	0.134852489	0.041562847
2020-01-30T18:30:00	0.2464	2.606		0.623297048	0.774671396	0.013071925	0.134860639	0.041565359
2020-01-30T18:35:00	0.2470	2.583		0.625305698	0.777655450	0.013150455	0.135670822	0.041815065
2020-01-30T18:40:00	0.2469	2.559		0.624994601	0.777193060	0.013138277	0.135545177	0.041776340
2020-01-30T18:45:00	0.2466	2.535		0.624020680	0.775746032	0.013100188	0.135152224	0.041655228
2020-01-30T18:50:00	0.2459	2.511		0.621720167	0.772331166	0.013010446	0.134226369	0.041369871
2020-01-30T18:55:00	0.2467	2.489		0.624392556	0.776298462	0.013114725	0.135302197	0.041701451
2020-01-30T19:00:00	0.2470	2.468		0.625406827	0.777805777	0.013154415	0.135711679	0.041827657
2020-01-30T19:05:00	0.2456	2.447		0.620785854	0.770945554	0.012974090	0.133851290	0.041254268
2020-01-30T19:10:00	0.2464	2.427		0.623458944	0.774911783	0.013078245	0.134925846	0.041585456
2020-01-30T19:15:00	0.2471	2.409		0.625467503	0.777895976	0.013156792	0.135736195	0.041835214
2020-01-30T19:20:00	0.2476	2.391		0.627143810	0.780389136	0.013222532	0.136414422	0.042044250
2020-01-30T19:25:00	0.2461	2.373		0.622193503	0.773033419	0.013028884	0.134416597	0.041428501
2020-01-30T19:30:00	0.2456	2.354		0.620555376	0.770603861	0.012965129	0.133758848	0.041225776
2020-01-30T19:35:00	0.2442	2.337		0.615928105	0.763753228	0.012785912	0.131909898	0.040655912
2020-01-30T19:40:00	0.2446	2.320		0.617276860	0.765748185	0.012838017	0.132447456	0.040821592
2020-01-30T19:45:00	0.2463	2.305		0.622937599	0.774137757	0.013057897	0.134715921	0.041520755
2020-01-30T19:50:00	0.2454	2.290		0.619972837	0.769740425	0.012942496	0.133525347	0.041153809
2020-01-30T19:55:00	0.2452	2.276		0.619329424	0.768787094	0.012917522	0.133267691	0.041074397
2020-01-30T20:00:00	0.2461	2.263		0.622335206	0.773243690	0.013034407	0.134473573	0.041446061
2020-01-30T20:05:00	0.2461	2.250		0.622355449	0.773273729	0.013035196	0.134481713	0.041448570
2020-01-30T20:10:00	0.2472	2.236		0.626021232	0.778719271	0.013178489	0.135960038	0.041904204
2020-01-30T20:15:00	0.2460	2.223		0.622064339	0.772841769	0.013023851	0.134364674	0.041412497
2020-01-30T20:20:00	0.2466	2.213		0.624073684	0.775824764	0.013102259	0.135173595	0.041661815
2020-01-30T20:25:00	0.2459	2.203		0.621773205	0.772409846	0.013012511	0.134247678	0.041376438
2020-01-30T20:30:00	0.2460	2.192		0.622125072	0.772931881	0.013026218	0.134389087	0.041420022
2020-01-30T20:35:00	0.2468	2.182		0.624797158	0.776899640	0.013130550	0.135465466	0.041751772
2020-01-30T20:40:00	0.2479	2.174		0.628129404	0.781856113	0.013261263	0.136814007	0.042167406
2020-01-30T20:45:00	0.2486	2.165		0.630466188	0.785337508	0.013353328	0.137763823	0.042460148
2020-01-30T20:50:00	0.2486	2.159		0.630486385	0.785367618	0.013354125	0.137772047	0.042462683
2020-01-30T20:55:00	0.2470	2.152		0.625209408	0.777512322	0.013146685	0.135631926	0.041803077
2020-01-30T21:00:00	0.2462	2.145		0.622578113	0.773604174	0.013043877	0.134571269	0.041476172
2020-01-30T21:05:00	0.2438	2.138		0.614631984	0.761837565	0.012735944	0.131394383	0.040497025
2020-01-30T21:10:00	0.2440	2.129		0.615316812	0.762849563	0.012762333	0.131666635	0.040580935
2020-01-30T21:15:00	0.2452	2.124		0.619321719	0.768775679	0.012917223	0.133264607	0.041073446
2020-01-30T21:20:00	0.2443	2.121		0.616353946	0.764382929	0.012802351	0.132079499	0.040708184
2020-01-30T21:25:00	0.2431	2.116		0.612386296	0.758521788	0.012649606	0.130503657	0.040222494
2020-01-30T21:30:00	0.2436	2.112		0.614068766	0.761005570	0.012714262	0.131170695	0.040428082
2020-01-30T21:35:00	0.2447	2.109		0.617743078	0.766438129	0.012856053	0.132633533	0.040878943
2020-01-30T21:40:00	0.2438	2.110		0.614773988	0.762047378	0.012741413	0.131450812	0.040514417
2020-01-30T21:45:00	0.2448	2.111		0.618115610	0.766989561	0.012870475	0.132782316	0.040924799
2020-01-30T21:50:00	0.2445	2.117		0.617139807	0.765545399	0.012832717	0.132392780	0.040804741
2020-01-30T21:55:00	0.2441	2.125		0.615831561	0.763610487	0.012782187	0.131871463	0.040644066
2020-01-30T22:00:00	0.2426	2.140		0.610532827	0.755788319	0.012578577	0.129770856	0.039996638
2020-01-30T22:05:00	0.2405	2.159		0.603639860	0.745647975	0.012316229	0.127064265	0.039162440
2020-01-30T22:10:00	0.2401	2.177		0.602406659	0.743837995	0.012269594	0.126583135	0.039014151
2020-01-30T22:15:00	0.2379	2.196		0.595163722	0.733233155	0.011997526	0.123776265	0.038149047
2020-01-30T22:20:00	0.2360	2.219		0.588575480	0.723624938	0.011752771	0.121251173	0.037370789
2020-01-30T22:25:00	0.2358	2.242		0.588006696	0.722797127	0.011731762	0.121034425	0.037303985
2020-01-30T22:30:00	0.2346	2.259		0.584087553	0.717100503	0.011587524	0.119546346	0.036845345
2020-01-30T22:35:00	0.2344	2.280		0.583182787	0.715787205	0.011554355	0.119204150	0.036739877
2020-01-30T22:40:00	0.2344	2.302		0.583283720	0.715933679	0.011558053	0.119242299	0.036751635
2020-01-30T22:45:00	0.2319	2.323		0.574993300	0.703930821	0.011256339	0.116129570	0.035792261
2020-01-30T22:50:00	0.2316	2.343		0.573750028	0.702135727	0.011211443	0.115666394	0.035649506
2020-01-30T22:55:00	0.2300	2.364		0.568468452	0.694524206	0.011021743	0.113709289	0.035046307
2020-01-30T23:00:00	0.2284	2.382		0.563178886	0.686924273	0.010833408	0.111766268	0.034447449
2020-01-30T23:05:00	0.2256	2.396		0.553826461	0.673543344	0.010504450	0.108372476	0.033401450
2020-01-30T23:10:00	0.2258	2.416		0.554266318	0.674171055	0.010519806	0.108530901	0.033450278
2020-01-30T23:15:00	0.2266	2.430		0.557071414	0.678177887	0.010618003	0.109543981	0.033762519
2020-01-30T23:20:00	0.2272	2.448		0.559199161	0.681221502	0.010692797	0.110315618	0.034000345
2020-01-30T23:25:00	0.2260	2.467		0.554909635	0.675089404	0.010542286	0.108762817	0.033521756
2020-01-30T23:30:00	0.2258	2.488		0.554335354	0.674269588	0.010522217	0.108555776	0.033457944
2020-01-30T23:35:00	0.2237	2.505		0.547331022	0.664292335	0.010279009	0.106046644	0.032684606
2020-01-30T23:40:00	0.2225	2.523		0.543026809	0.658181192	0.010130984	0.104519493	0.032213923
2020-01-30T23:45:00	0.2206	2.541		0.536679188	0.649196457	0.009914663	0.102287749	0.031526078
2020-01-30T23:50:00	0.2193	2.560		0.532361696	0.643104061	0.009768872	0.100783653	0.031062501
2020-01-30T23:55:00	0.2174	2.577		0.525994424	0.634146931	0.009555849	0.098585937	0.030385143
2020-01-31T00:00:00	0.2172	2.593		0.525074419	0.632855445	0.009525265	0.098270404	0.030287893
2020-01-31T00:05:00	0.2183	2.611		0.528925031	0.638265452	0.009653602	0.099594433	0.030695971
2020-01-31T00:10:00	0.2186	2.634		0.530048989	0.639846856	0.009691225	0.099982585	0.030815604
2020-01-31T00:15:00	0.2202	2.659		0.535253983	0.647183675	0.009866417	0.101790006	0.031372668
2020-01-31T00:20:00	0.2196	2.686		0.533316277	0.644449757	0.009801012	0.101115237	0.031164698
2020-01-31T00:25:00	0.2191	2.724		0.531717763	0.642196711	0.009747221	0.100560286	0.030993657
2020-01-31T00:30:00	0.2192	2.756		0.531820199	0.642341029	0.009750664	0.100595803	0.031004603
2020-01-31T00:35:00	0.2197	2.777		0.533623434	0.644882923	0.009811365	0.101222047	0.031197618
2020-01-31T00:40:00	0.2197	2.794		0.533725813	0.645027319	0.009814817	0.101257661	0.031208595
2020-01-31T00:45:00	0.2203	2.813		0.535867926	0.648050528	0.009887186	0.102004271	0.031438707
2020-01-31T00:50:00	0.2211	2.839		0.538348339	0.651555866	0.009971318	0.102872246	0.031706225
2020-01-31T00:55:00	0.2207	2.870		0.537091905	0.649779637	0.009928656	0.102432117	0.031570573
2020-01-31T01:00:00	0.2183	2.900		0.529031137	0.638414699	0.009657151	0.099631044	0.030707255
2020-01-31T01:05:00	0.2184	2.916		0.529133653	0.638558905	0.009660580	0.099666422	0.030718159
2020-01-31T01:10:00	0.2178	2.934		0.527192505	0.635829807	0.009595752	0.098997603	0.030512023
2020-01-31T01:15:00	0.2183	2.947		0.528998160	0.638368313	0.009656048	0.099619665	0.030703748
2020-01-31T01:20:00	0.2173	2.966		0.525352890	0.633246285	0.009534517	0.098365857	0.030317312
2020-01-31T01:25:00	0.2162	2.991		0.521703756	0.628129639	0.009413632	0.097118711	0.029932930
2020-01-31T01:30:00	0.2149	3.013		0.517367439	0.622063501	0.009270990	0.095647090	0.029479362
2020-01-31T01:35:00	0.2150	3.030		0.517811963	0.622684651	0.009285562	0.095797430	0.029525698
2020-01-31T01:40:00	0.2134	3.043		0.512102152	0.614718279	0.009099255	0.093875336	0.028933290
2020-01-31T01:45:00	0.2121	3.045		0.507753668	0.608668918	0.008958634	0.092424579	0.028486153
2020-01-31T01:50:00	0.2147	3.062		0.516753789	0.621206287	0.009250892	0.095439744	0.029415456
2020-01-31T01:55:00	0.2155	3.076		0.519247998	0.624692372	0.009332716	0.096283914	0.029675637
2020-01-31T02:00:00	0.2145	3.093		0.515934217	0.620061895	0.009224084	0.095163172	0.029330214
2020-01-31T02:05:00	0.2113	3.119		0.505081427	0.604959017	0.008872763	0.091538656	0.028213103
2020-01-31T02:10:00	0.2111	3.155		0.504155795	0.603675293	0.008843114	0.091232776	0.028118828
2020-01-31T02:15:00	0.2136	3.190		0.512823243	0.615722897	0.009122679	0.094117002	0.029007774
2020-01-31T02:20:00	0.2137	3.217		0.513268355	0.616343233	0.009137154	0.094266331	0.029053799
2020-01-31T02:25:00	0.2135	3.250		0.512687105	0.615533199	0.009118255	0.094071353	0.028993705
2020-01-31T02:30:00	0.2142	3.288		0.514842351	0.618538135	0.009188430	0.094795336	0.029216843
2020-01-31T02:35:00	0.2145	3.323		0.515970920	0.620113133	0.009225284	0.095175549	0.029334029
2020-01-31T02:40:00	0.2134	3.354		0.512311798	0.615010313	0.009106062	0.093945565	0.028954935
2020-01-31T02:45:00	0.2140	3.382		0.514125287	0.617537957	0.009165052	0.094554154	0.029142508
2020-01-31T02:50:00	0.2138	3.416		0.513544182	0.616727722	0.009146129	0.094358927	0.029082338
2020-01-31T02:55:00	0.2158	3.446		0.520481490	0.626418251	0.009373316	0.096702768	0.029804732
2020-01-31T03:00:00	0.2175	3.479		0.526041790	0.634213441	0.009557425	0.098602196	0.030390154
2020-01-31T03:05:00	0.2188	3.511		0.530572143	0.640583283	0.009708762	0.100163512	0.030871367
2020-01-31T03:10:00	0.2188	3.547		0.530674614	0.640727553	0.009712199	0.100198969	0.030882295
2020-01-31T03:15:00	0.2190	3.586		0.531457728	0.641830398	0.009738485	0.100470156	0.030965878
2020-01-31T03:20:00	0.2173	3.615		0.525429686	0.633354081	0.009537070	0.098392189	0.030325428
2020-01-31T03:25:00	0.2196	3.650		0.533363542	0.644516408	0.009802605	0.101131669	0.031169763
2020-01-31T03:30:00	0.2196	3.676		0.533465930	0.644660794	0.009806056	0.101167270	0.031180735
2020-01-31T03:35:00	0.2193	3.707		0.532207718	0.642887064	0.009763693	0.100730219	0.031046032
2020-01-31T03:40:00	0.2199	3.736		0.534350772	0.645908950	0.009835903	0.101475198	0.031275642
2020-01-31T03:45:00	0.2173	3.759		0.525601920	0.633595857	0.009542795	0.098451258	0.030343634
2020-01-31T03:50:00	0.2163	3.784		0.521953050	0.628478843	0.009421866	0.097203656	0.029959111
2020-01-31T03:55:00	0.2165	3.815		0.522738150	0.629578920	0.009447820	0.097471419	0.030041638
2020-01-31T04:00:00	0.2173	3.843		0.525568910	0.633549517	0.009541698	0.098439936	0.030340144
2020-01-31T04:05:00	0.2149	3.860		0.517203074	0.621833869	0.009265604	0.095591531	0.029462238
2020-01-31T04:10:00	0.2149	3.874		0.517369606	0.622066529	0.009271061	0.095647823	0.029479588
2020-01-31T04:15:00	0.2153	3.886		0.518560986	0.623731651	0.009310142	0.096051022	0.029603858
2020-01-31T04:20:00	0.2160	3.908		0.521117477	0.627308593	0.009394283	0.096919086	0.029871403
2020-01-31T04:25:00	0.2157	3.933		0.519918360	0.625630177	0.009354770	0.096511434	0.029745761
2020-01-31T04:30:00	0.2169	3.962		0.524179313	0.631599570	0.009495556	0.097963898	0.030193425
2020-01-31T04:35:00	0.2194	3.991		0.532519636	0.643326662	0.009774186	0.100838478	0.031079398
2020-01-31T04:40:00	0.2186	4.020		0.529963003	0.639725838	0.009688344	0.099952863	0.030806443
2020-01-31T04:45:00	0.2182	4.039		0.528426393	0.637564199	0.009636934	0.099422475	0.030642972
2020-01-31T04:50:00	0.2178	4.069		0.527229821	0.635882242	0.009596996	0.099010439	0.030515979
2020-01-31T04:55:00	0.2187	4.091		0.530120320	0.639947254	0.009693615	0.100007244	0.030823204
2020-01-31T05:00:00	0.2175	4.121		0.526198939	0.634434119	0.009562655	0.098656148	0.030406783
2020-01-31T05:05:00	0.2176	4.142		0.526365035	0.634667383	0.009568184	0.098713189	0.030424363
2020-01-31T05:10:00	0.2172	4.146		0.525167747	0.632986426	0.009528365	0.098302389	0.030297751
2020-01-31T05:15:00	0.2176	4.154		0.526356428	0.634655294	0.009567897	0.098710232	0.030423452
2020-01-31T05:20:00	0.2176	4.170		0.526522517	0.634888570	0.009573427	0.098767286	0.030441037
2020-01-31T05:25:00	0.2178	4.177		0.527370053	0.636079298	0.009601672	0.099058683	0.030530848
2020-01-31T05:30:00	0.2166	4.182		0.523104437	0.630092331	0.009459941	0.097596470	0.030080180
2020-01-31T05:35:00	0.2161	4.190		0.521564762	0.627934962	0.009409043	0.097071365	0.029918337
2020-01-31T05:40:00	0.2145	4.194		0.515924886	0.620048870	0.009223779	0.095160026	0.029329244
2020-01-31T05:45:00	0.2161	4.203		0.521556142	0.627922889	0.009408759	0.097068429	0.029917433
2020-01-31T05:50:00	0.2166	4.211		0.523087206	0.630068176	0.009459371	0.097590585	0.030078366
2020-01-31T05:55:00	0.2170	4.218		0.524617588	0.632214409	0.009510097	0.098113914	0.030239661
2020-01-31T06:00:00	0.2166	4.231		0.523078590	0.630056098	0.009459086	0.097587643	0.030077459
2020-01-31T06:05:00	0.2167	4.243		0.523585923	0.630767376	0.009475886	0.097760972	0.030130881
2020-01-31T06:10:00	0.2158	4.264		0.520339933	0.626220125	0.009368652	0.096654654	0.029789903
2020-01-31T06:15:00	0.2149	4.268		0.517432571	0.622154503	0.009273124	0.095669111	0.029486149
2020-01-31T06:20:00	0.2159	4.272		0.520672685	0.626685878	0.009379616	0.096767774	0.029824768
2020-01-31T06:25:00	0.2156	4.269		0.519814873	0.625485380	0.009351363	0.096476293	0.029734931
2020-01-31T06:30:00	0.2162	4.276		0.521687986	0.628107551	0.009413112	0.097113338	0.029931274
2020-01-31T06:35:00	0.2171	4.289		0.524924092	0.632644484	0.009520272	0.098218895	0.030272017
2020-01-31T06:40:00	0.2202	4.293		0.535302685	0.647252429	0.009868064	0.101806994	0.031377904
2020-01-31T06:45:00	0.2203	4.318		0.535808222	0.647966217	0.009885165	0.101983425	0.031432282
2020-01-31T06:50:00	0.2203	4.342		0.535633995	0.647720195	0.009879270	0.101922603	0.031413536
2020-01-31T06:55:00	0.2205	4.362		0.536479296	0.648914055	0.009907889	0.102217864	0.031504539
2020-01-31T07:00:00	0.2213	4.388		0.539022535	0.652509512	0.009994248	0.103108810	0.031779137
2020-01-31T07:05:00	0.2213	4.408		0.539188015	0.652743641	0.009999880	0.103166916	0.031797045
2020-01-31T07:10:00	0.2217	4.431		0.540371878	0.654419266	0.010040220	0.103583095	0.031925316
2020-01-31T07:15:00	0.2227	4.444		0.543929602	0.659461724	0.010161942	0.104838879	0.032312361
2020-01-31T07:20:00	0.2234	4.463		0.546128542	0.662583521	0.010237546	0.105618872	0.032552762
2020-01-31T07:25:00	0.2247	4.479		0.550695727	0.669080132	0.010395481	0.107248259	0.033054955
2020-01-31T07:30:00	0.2250	4.503		0.551537361	0.670279185	0.010424718	0.107549898	0.033147923
2020-01-31T07:35:00	0.2243	4.525		0.549333296	0.667140346	0.010348239	0.106760877	0.032904739
2020-01-31T07:40:00	0.2242	4.543		0.548821178	0.666411602	0.010330510	0.106577968	0.032848365
2020-01-31T07:45:00	0.2237	4.558		0.547292924	0.664238177	0.010277694	0.106033078	0.032680424
2020-01-31T07:50:00	0.2234	4.563		0.546102867	0.662547047	0.010236661	0.105609748	0.032549950
2020-01-31T07:55:00	0.2243	4.578		0.549316195	0.667116007	0.010347647	0.106754767	0.032902856
2020-01-31T08:00:00	0.2240	4.598		0.548126831	0.665423890	0.010306497	0.106330227	0.032772009
2020-01-31T08:05:00	0.2241	4.617		0.548630499	0.666140322	0.010323913	0.106509905	0.032827387
2020-01-31T08:10:00	0.2243	4.638		0.549134094	0.666856857	0.010341341	0.106689711	0.032882805
2020-01-31T08:15:00	0.2242	4.653		0.548960536	0.666609888	0.010335333	0.106627726	0.032863701
2020-01-31T08:20:00	0.2239	4.677		0.547771051	0.664917945	0.010294203	0.106203399	0.032732919
2020-01-31T08:25:00	0.2254	4.689		0.553012499	0.672382176	0.010476064	0.108079618	0.033311188
2020-01-31T08:30:00	0.2250	4.704		0.551486090	0.670206123	0.010422936	0.107531510	0.033142256
2020-01-31T08:35:00	0.2248	4.723		0.550974289	0.669476926	0.010405153	0.107348047	0.033085711
2020-01-31T08:40:00	0.2251	4.735		0.552154134	0.671158254	0.010446171	0.107771220	0.033216137
2020-01-31T08:45:00	0.2245	4.755		0.549950460	0.668018856	0.010369626	0.106981516	0.032972742
2020-01-31T08:50:00	0.2245	4.784		0.550115420	0.668253723	0.010375346	0.107040529	0.032990930
2020-01-31T08:55:00	0.2261	4.812		0.555353336	0.675722997	0.010557804	0.108922918	0.033571101
2020-01-31T09:00:00	0.2262	4.830		0.555855959	0.676440922	0.010575397	0.109104424	0.033627043
2020-01-31T09:05:00	0.2274	4.838		0.559735405	0.681989157	0.010711689	0.110510523	0.034060416
2020-01-31T09:10:00	0.2272	4.863		0.559224816	0.681258224	0.010693701	0.110324938	0.034003217
2020-01-31T09:15:00	0.2269	4.870		0.558038837	0.679561266	0.010651977	0.109894480	0.033870546
2020-01-31T09:20:00	0.2269	4.878		0.558203414	0.679796682	0.010657762	0.109954163	0.033888941
2020-01-31T09:25:00	0.2266	4.898		0.557017086	0.678100223	0.010616097	0.109524315	0.033756457
2020-01-31T09:30:00	0.2259	4.909		0.554816493	0.674956421	0.010539029	0.108729224	0.033511403
2020-01-31T09:35:00	0.2270	4.924		0.558359454	0.680019907	0.010663248	0.110010766	0.033906386
2020-01-31T09:40:00	0.2263	4.933		0.556159709	0.676874887	0.010586037	0.109214188	0.033660874
2020-01-31T09:45:00	0.2262	4.942		0.555648596	0.676144708	0.010568137	0.109029523	0.033603958
2020-01-31T09:50:00	0.2250	4.954		0.551756043	0.670590830	0.010432322	0.107628343	0.033172101
2020-01-31T09:55:00	0.2258	4.974		0.554288105	0.674202150	0.010520567	0.108538751	0.033452697
2020-01-31T10:00:00	0.2250	4.990		0.551747499	0.670578653	0.010432025	0.107625278	0.033171156
2020-01-31T10:05:00	0.2250	5.012		0.551558935	0.670309928	0.010425468	0.107557636	0.033150308
2020-01-31T10:10:00	0.2265	5.029		0.556779566	0.677760706	0.010607765	0.109438355	0.033729964
2020-01-31T10:15:00	0.2270	5.043		0.558280020	0.679906269	0.010660455	0.109981950	0.033897505
2020-01-31T10:20:00	0.2272	5.060		0.559104719	0.681086330	0.010689472	0.110281309	0.033989771
2020-01-31T10:25:00	0.2262	5.086		0.555538862	0.675987969	0.010564296	0.108989897	0.033591745
2020-01-31T10:30:00	0.2262	5.121		0.555688439	0.676201620	0.010569532	0.109043913	0.033608393
2020-01-31T10:35:00	0.2275	5.134		0.560227993	0.682694523	0.010729058	0.110689715	0.034115645
2020-01-31T10:40:00	0.2283	5.152		0.562738816	0.686293030	0.010817813	0.111605385	0.034397863
2020-01-31T10:45:00	0.2275	5.179		0.560189272	0.682639068	0.010727692	0.110675623	0.034111302
2020-01-31T10:50:00	0.2285	5.213		0.563374536	0.687204967	0.010840344	0.111837833	0.034469506
2020-01-31T10:55:00	0.2271	5.251		0.558800345	0.680650737	0.010678758	0.110170776	0.033955703
2020-01-31T11:00:00	0.2262	5.271		0.555572123	0.676035477	0.010565460	0.109001907	0.033595446
2020-01-31T11:05:00	0.2272	5.282		0.559099213	0.681078449	0.010689278	0.110279309	0.033989154
2020-01-31T11:10:00	0.2273	5.284		0.559586193	0.681775531	0.010706431	0.110456272	0.034043696
2020-01-31T11:15:00	0.2252	5.302		0.552302095	0.671369183	0.010451321	0.107824348	0.033232511
2020-01-31T11:20:00	0.2255	5.313		0.553466362	0.673029573	0.010491887	0.108242865	0.033361502
2020-01-31T11:25:00	0.2263	5.322		0.555982062	0.676621075	0.010579814	0.109149987	0.033641086
2020-01-31T11:30:00	0.2265	5.339		0.556807305	0.677800355	0.010608738	0.109448392	0.033733058
2020-01-31T11:35:00	0.2277	5.364		0.560670597	0.683328485	0.010744677	0.110850849	0.034165308
2020-01-31T11:40:00	0.2261	5.387		0.555417029	0.675813962	0.010560033	0.108945910	0.033578188
2020-01-31T11:45:00	0.2252	5.405		0.552185666	0.671203202	0.010447268	0.107782541	0.033219626
2020-01-31T11:50:00	0.2251	5.429		0.551997126	0.670934444	0.010440708	0.107714857	0.033198765
2020-01-31T11:55:00	0.2250	5.443		0.551808576	0.670665700	0.010434149	0.107647192	0.033177910
2020-01-31T12:00:00	0.2255	5.473		0.553311174	0.672808192	0.010486475	0.108187033	0.033344294
2020-01-31T12:05:00	0.2264	5.505		0.556502731	0.677365051	0.010598058	0.109338211	0.033699099
2020-01-31T12:10:00	0.2272	5.539		0.559016239	0.680959697	0.010686357	0.110249172	0.033979866
2020-01-31T12:15:00	0.2274	5.569		0.559840764	0.682140009	0.010715403	0.110548837	0.034072225
2020-01-31T12:20:00	0.2286	5.594		0.563700696	0.687672972	0.010851913	0.111957188	0.034506293
2020-01-31T12:25:00	0.2284	5.621		0.563175602	0.686919561	0.010833291	0.111765067	0.034447079
2020-01-31T12:30:00	0.2286	5.652		0.563662014	0.687617462	0.010850541	0.111943029	0.034501929
2020-01-31T12:35:00	0.2289	5.679		0.564822492	0.689283296	0.010891751	0.112368191	0.034632968
2020-01-31T12:40:00	0.2292	5.700		0.565982584	0.690949688	0.010933028	0.112794030	0.034764216
2020-01-31T12:45:00	0.2288	5.733		0.564446767	0.688743833	0.010878400	0.112230448	0.034590514
2020-01-31T12:50:00	0.2297	5.761		0.567628151	0.693315336	0.010991713	0.113399482	0.034950822
2020-01-31T12:55:00	0.2294	5.792		0.566429953	0.691592600	0.010948966	0.112958467	0.034814897
2020-01-31T13:00:00	0.2293	5.824		0.566242183	0.691322736	0.010942275	0.112889435	0.034793620
2020-01-31T13:05:00	0.2288	5.851		0.564369419	0.688632790	0.010875652	0.112202102	0.034581777
2020-01-31T13:10:00	0.2304	5.864		0.569907476	0.696595762	0.011073265	0.114240837	0.035210135
2020-01-31T13:15:00	0.2302	5.869		0.569046702	0.695356425	0.011042432	0.113922732	0.035112092
2020-01-31T13:20:00	0.2295	5.871		0.566838618	0.692180034	0.010963536	0.113108784	0.034861226
2020-01-31T13:25:00	0.2290	5.871		0.565303178	0.689973634	0.010908845	0.112544539	0.034687320
2020-01-31T13:30:00	0.2294	5.870		0.566463111	0.691640256	0.010950148	0.112970659	0.034818654
2020-01-31T13:35:00	0.2301	5.872		0.568969455	0.695245235	0.011039667	0.113894207	0.035103301
2020-01-31T13:40:00	0.2311	5.874		0.572146728	0.699822699	0.011153683	0.115070486	0.035465841
2020-01-31T13:45:00	0.2306	5.873		0.570613617	0.697612920	0.011098593	0.114502134	0.035290670
2020-01-31T13:50:00	0.2299	5.873		0.568069818	0.693950652	0.011007492	0.113562264	0.035000993
2020-01-31T13:55:00	0.2308	5.865		0.571247907	0.698526929	0.011121368	0.114737103	0.035363089
2020-01-31T14:00:00	0.2316	5.853		0.573750827	0.702136881	0.011211472	0.115666692	0.035649598
2020-01-31T14:05:00	0.2318	5.839		0.574571883	0.703322216	0.011241111	0.115972467	0.035743841
2020-01-31T14:10:00	0.2322	5.832		0.576064716	0.705478808	0.011295101	0.116529478	0.035915517
2020-01-31T14:15:00	0.2320	5.832		0.575205456	0.704237269	0.011264009	0.116208701	0.035816650
2020-01-31T14:20:00	0.2318	5.828		0.574682086	0.703481355	0.011245092	0.116013539	0.035756500
2020-01-31T14:25:00	0.2321	5.820		0.575502923	0.704667008	0.011274768	0.116319700	0.035850861
2020-01-31T14:30:00	0.2317	5.810		0.574307419	0.702940356	0.011231560	0.115873931	0.035713471
2020-01-31T14:35:00	0.2315	5.801		0.573447727	0.701699446	0.011200541	0.115553916	0.035614839
2020-01-31T14:40:00	0.2312	5.798		0.572587825	0.700458842	0.011169558	0.115234275	0.035516323
2020-01-31T14:45:00	0.2318	5.791		0.574417631	0.703099484	0.011235539	0.115914989	0.035726125
2020-01-31T14:50:00	0.2316	5.780		0.573894143	0.702343742	0.011216643	0.115720035	0.035666039
2020-01-31T14:55:00	0.2331	5.764		0.579081517	0.709842608	0.011404612	0.117659278	0.036263732
2020-01-31T15:00:00	0.2325	5.744		0.576879752	0.706657013	0.011324634	0.116834162	0.036009424
2020-01-31T15:05:00	0.2330	5.721		0.578707320	0.709300922	0.011390999	0.117518838	0.036220447
2020-01-31T15:10:00	0.2327	5.700		0.577512908	0.707572675	0.011347604	0.117071135	0.036082461
2020-01-31T15:15:00	0.2329	5.680		0.578333083	0.708759295	0.011377393	0.117378468	0.036177184
2020-01-31T15:20:00	0.2326	5.659		0.577138544	0.707031234	0.011334020	0.116930991	0.036039267
2020-01-31T15:25:00	0.2321	5.637		0.575607617	0.704818272	0.011278556	0.116358779	0.035862906
2020-01-31T15:30:00	0.2315	5.613		0.573403669	0.701635867	0.011198952	0.115537528	0.035609788
2020-01-31T15:35:00	0.2317	5.586		0.574224806	0.702821083	0.011228577	0.115843159	0.035703987
2020-01-31T15:40:00	0.2310	5.560		0.572019988	0.699639946	0.011149123	0.115023447	0.035451344
2020-01-31T15:45:00	0.2308	5.534		0.571159734	0.698399853	0.011118201	0.114704425	0.035353018
2020-01-31T15:50:00	0.2309	5.507		0.571645036	0.699099362	0.011135640	0.114884342	0.035408470
2020-01-31T15:55:00	0.2307	5.483		0.570784691	0.697859403	0.011104733	0.114565483	0.035310195
2020-01-31T16:00:00	0.2306	5.458		0.570597154	0.697589200	0.011098002	0.114496039	0.035288791
2020-01-31T16:05:00	0.2299	5.434		0.568339367	0.694338465	0.011017127	0.113661669	0.035031630
2020-01-31T16:10:00	0.2311	5.411		0.572139300	0.699811987	0.011153415	0.115067729	0.035464992
2020-01-31T16:15:00	0.2319	5.385		0.574927071	0.703835164	0.011253945	0.116104872	0.035784649
2020-01-31T16:20:00	0.2317	5.357		0.574353065	0.703006260	0.011233208	0.115890935	0.035718712
2020-01-31T16:25:00	0.2321	5.330		0.575459424	0.704604161	0.011273194	0.116303465	0.035845857
2020-01-31T16:30:00	0.2318	5.304		0.574549423	0.703289784	0.011240299	0.115964097	0.035741261
2020-01-31T16:35:00	0.2310	5.278		0.571957854	0.699550357	0.011146888	0.115000390	0.035444237
2020-01-31T16:40:00	0.2296	5.253		0.567007396	0.692422684	0.010969557	0.113170894	0.034880369
2020-01-31T16:45:00	0.2297	5.227		0.567442581	0.693048451	0.010985087	0.113331122	0.034929753
2020-01-31T16:50:00	0.2295	5.201		0.566867346	0.692221334	0.010964561	0.113119355	0.034864484
2020-01-31T16:55:00	0.2298	5.176		0.567976073	0.693815791	0.011004142	0.113527703	0.034990341
2020-01-31T17:00:00	0.2298	5.151		0.567737695	0.693472895	0.010995626	0.113439845	0.034963262
2020-01-31T17:05:00	0.2294	5.128		0.566488827	0.691677220	0.010951065	0.112980116	0.034821569
2020-01-31T17:10:00	0.2297	5.103		0.567597674	0.693271503	0.010990625	0.113388253	0.034947361
2020-01-31T17:15:00	0.2287	5.081		0.563989751	0.688087807	0.010862171	0.112063018	0.034538911
2020-01-31T17:20:00	0.2278	5.060		0.561052957	0.683876287	0.010758179	0.110990147	0.034208241
2020-01-31T17:25:00	0.2276	5.040		0.560476668	0.683050692	0.010737832	0.110780233	0.034143544
2020-01-31T17:30:00	0.2277	5.018		0.560912668	0.683675282	0.010753224	0.110939028	0.034192486
2020-01-31T17:35:00	0.2263	4.999		0.555946509	0.676570282	0.010578568	0.109137140	0.033637126
2020-01-31T17:40:00	0.2261	4.979		0.555369375	0.675745902	0.010558365	0.108928708	0.033572886
2020-01-31T17:45:00	0.2266	4.960		0.557157380	0.678300783	0.010621020	0.109575103	0.033772111
2020-01-31T17:50:00	0.2261	4.945		0.555228856	0.675545226	0.010553449	0.108877990	0.033557254
2020-01-31T17:55:00	0.2270	4.933		0.558367830	0.680031889	0.010663543	0.110013804	0.033907323
2020-01-31T18:00:00	0.2269	4.919		0.558128795	0.679689942	0.010655139	0.109927101	0.033880600
2020-01-31T18:05:00	0.2270	4.913		0.558565088	0.680314109	0.010670481	0.110085381	0.033929383
2020-01-31T18:10:00	0.2277	4.903		0.560688904	0.683354710	0.010745323	0.110857517	0.034167363
2020-01-31T18:15:00	0.2278	4.891		0.561124876	0.683979338	0.010760719	0.111016358	0.034216320
2020-01-31T18:20:00	0.2278	4.878		0.561223429	0.684120559	0.010764201	0.111052281	0.034227391
2020-01-31T18:25:00	0.2287	4.869		0.564019915	0.688131101	0.010863242	0.112074065	0.034542315
2020-01-31T18:30:00	0.2293	4.860		0.566140414	0.691176485	0.010938649	0.112852029	0.034782091
2020-01-31T18:35:00	0.2286	4.849		0.563879745	0.687929925	0.010858267	0.112022736	0.034526495
2020-01-31T18:40:00	0.2291	4.839		0.565326422	0.690007021	0.010909672	0.112553070	0.034689949
2020-01-31T18:45:00	0.2300	4.830		0.568456326	0.694506757	0.011021309	0.113704815	0.035044928
2020-01-31T18:50:00	0.2295	4.819		0.566870894	0.692226435	0.010964688	0.113120660	0.034864886
2020-01-31T18:55:00	0.2299	4.811		0.568316333	0.694305323	0.011016304	0.113653173	0.035029012
2020-01-31T19:00:00	0.2295	4.805		0.566730838	0.692025093	0.010959693	0.113069130	0.034849004
2020-01-31T19:05:00	0.2295	4.799		0.566829233	0.692166541	0.010963202	0.113105331	0.034860161
2020-01-31T19:10:00	0.2287	4.794		0.564231935	0.688435430	0.010870770	0.112151727	0.034566252
2020-01-31T19:15:00	0.2296	4.797		0.567026013	0.692449450	0.010970221	0.113177747	0.034882481
2020-01-31T19:20:00	0.2288	4.791		0.564428862	0.688718127	0.010877764	0.112223886	0.034588491
2020-01-31T19:25:00	0.2287	4.785		0.564190242	0.688375582	0.010869289	0.112136453	0.034561544
2020-01-31T19:30:00	0.2295	4.779		0.566984354	0.692389554	0.010968735	0.113162414	0.034877755
2020-01-31T19:35:00	0.2288	4.777		0.564387172	0.688658276	0.010876283	0.112208607	0.034583783
2020-01-31T19:40:00	0.2305	4.773		0.570211073	0.697033026	0.011084151	0.114353141	0.035244749
2020-01-31T19:45:00	0.2297	4.761		0.567616288	0.693298275	0.010991290	0.113395111	0.034949475
2020-01-31T19:50:00	0.2309	4.747		0.571417006	0.698770657	0.011127444	0.114799786	0.035382409
2020-01-31T19:55:00	0.2310	4.746		0.571851642	0.699397220	0.011143068	0.114960981	0.035432091
2020-01-31T20:00:00	0.2315	4.750		0.573631228	0.701964265	0.011207158	0.115622185	0.035635880
2020-01-31T20:05:00	0.2313	4.746		0.573057010	0.701135672	0.011186458	0.115408624	0.035570059
2020-01-31T20:10:00	0.2321	4.744		0.575508061	0.704674431	0.011274954	0.116321618	0.035851452
2020-01-31T20:15:00	0.2321	4.741		0.575606209	0.704816238	0.011278505	0.116358253	0.035862744
2020-01-31T20:20:00	0.2321	4.740		0.575704354	0.704958049	0.011282056	0.116394894	0.035874037
2020-01-31T20:25:00	0.2315	4.745		0.573449860	0.701702523	0.011200618	0.115554710	0.035615084
2020-01-31T20:30:00	0.2313	4.742		0.572875612	0.700873973	0.011179923	0.115341201	0.035549278
2020-01-31T20:35:00	0.2315	4.741		0.573646268	0.701985973	0.011207701	0.115627782	0.035637605
2020-01-31T20:40:00	0.2311	4.736		0.572063187	0.699702236	0.011150677	0.115039480	0.035456285
2020-01-31T20:45:00	0.2304	4.725		0.569806347	0.696450126	0.011069641	0.114203441	0.035198610
2020-01-31T20:50:00	0.2293	4.714		0.566200705	0.691263127	0.010940797	0.112874188	0.034788921
2020-01-31T20:55:00	0.2300	4.706		0.568656561	0.694794902	0.011028471	0.113778701	0.035067701
2020-01-31T21:00:00	0.2294	4.698		0.566397520	0.691545985	0.010947810	0.112946542	0.034811221
2020-01-31T21:05:00	0.2298	4.692		0.567843156	0.693624590	0.010999393	0.113478710	0.034975240
2020-01-31T21:10:00	0.2302	4.683		0.569288193	0.695704060	0.011051078	0.114011931	0.035139584
2020-01-31T21:15:00	0.2296	4.683		0.567029561	0.692454552	0.010970347	0.113179052	0.034882883
2020-01-31T21:20:00	0.2283	4.691		0.562746646	0.686304260	0.010818091	0.111608246	0.034398745
2020-01-31T21:25:00	0.2291	4.699		0.565541913	0.690316563	0.010917339	0.112632175	0.034714330
2020-01-31T21:30:00	0.2287	4.714		0.564292259	0.688522024	0.010872912	0.112173829	0.034573063
2020-01-31T21:35:00	0.2296	4.724		0.567086289	0.692536115	0.010972371	0.113199933	0.034889319
2020-01-31T21:40:00	0.2294	4.719		0.566510996	0.691709083	0.010951855	0.112988268	0.034824082
2020-01-31T21:45:00	0.2292	4.715		0.565935607	0.690882188	0.010931355	0.112776771	0.034758896
2020-01-31T21:50:00	0.2285	4.716		0.563337645	0.687152038	0.010839036	0.111824337	0.034465347
2020-01-31T21:55:00	0.2280	4.722		0.561749887	0.684875079	0.010782811	0.111244275	0.034286566
2020-01-31T22:00:00	0.2282	4.727		0.562523000	0.685983519	0.010810170	0.111526528	0.034373559
2020-01-31T22:05:00	0.2279	4.732		0.561352701	0.684305810	0.010768769	0.111099409	0.034241917
2020-01-31T22:10:00	0.2285	4.733		0.563555205	0.687464197	0.010846752	0.111903939	0.034489881
2020-01-31T22:15:00	0.2290	4.739		0.565082367	0.689656493	0.010900991	0.112463513	0.034662347
2020-01-31T22:20:00	0.2294	4.741		0.566608862	0.691849755	0.010955344	0.113024262	0.034835175
2020-01-31T22:25:00	0.2298	4.746		0.567797959	0.693559577	0.010997778	0.113462053	0.034970107
2020-01-31T22:30:00	0.2290	4.756		0.565281727	0.689942824	0.010908082	0.112536666	0.034684893
2020-01-31T22:35:00	0.2299	4.764		0.568155246	0.694073555	0.011010545	0.113593764	0.035010701
2020-01-31T22:40:00	0.2303	4.758		0.569680399	0.696268759	0.011065127	0.114156875	0.035184258
2020-01-31T22:45:00	0.2299	4.760		0.568175802	0.694103129	0.011011280	0.113601344	0.035013038
2020-01-31T22:50:00	0.2309	4.764		0.571383362	0.698722163	0.011126235	0.114787313	0.035378565
2020-01-31T22:55:00	0.2311	4.766		0.572234533	0.699949317	0.011156842	0.115103081	0.035475887
2020-01-31T23:00:00	0.2325	4.769		0.576782172	0.706515924	0.011321096	0.116797663	0.035998174
2020-01-31T23:05:00	0.2323	4.775		0.576288564	0.705802344	0.011303209	0.116613118	0.035941296
2020-01-31T23:10:00	0.2333	4.776		0.579488708	0.710432188	0.011419434	0.117812198	0.036310864
2020-01-31T23:15:00	0.2341	4.775		0.582350601	0.714579862	0.011523890	0.118889848	0.036643006
2020-01-31T23:20:00	0.2341	4.775		0.582193158	0.714351507	0.011518131	0.118830432	0.036624693
2020-01-31T23:25:00	0.2336	4.771		0.580693924	0.712178050	0.011463364	0.118265412	0.036450549
2020-01-31T23:30:00	0.2345	4.764		0.583554836	0.716327165	0.011567988	0.119344804	0.036783228
2020-01-31T23:35:00	0.2355	4.759		0.587083288	0.721453768	0.011697695	0.120682963	0.037195661
2020-01-31T23:40:00	0.2367	4.753		0.590942757	0.727073183	0.011840418	0.122155413	0.037649485
2020-01-31T23:45:00	0.2362	4.749		0.589447247	0.724894237	0.011785009	0.121583765	0.037473297
2020-01-31T23:50:00	0.2365	4.746		0.590294052	0.726127795	0.011816367	0.121907281	0.037573008
2020-01-31T23:55:00	0.2369	4.740		0.591809621	0.728337050	0.011872597	0.122487394	0.037751804
2020-02-01T00:00:00	0.2364	4.738		0.589979869	0.725670048	0.011804728	0.121787198	0.037535997
2020-02-01T00:05:00	0.2365	4.739		0.590491984	0.726416214	0.011823703	0.121982963	0.037596334
2020-02-01T00:10:00	0.2368	4.733		0.591338538	0.727650144	0.011855104	0.122306927	0.037696183
2020-02-01T00:15:00	0.2355	4.727		0.586830159	0.721085643	0.011688365	0.120586710	0.037165995
2020-02-01T00:20:00	0.2370	4.722		0.592027885	0.728655372	0.011880706	0.122571055	0.037777590
2020-02-01T00:25:00	0.2387	4.721		0.597551886	0.736724970	0.012086887	0.124698180	0.038433190
2020-02-01T00:30:00	0.2395	4.727		0.600399154	0.740894286	0.012193871	0.125801921	0.038773374
2020-02-01T00:35:00	0.2399	4.727		0.601576882	0.742620840	0.012238265	0.126259928	0.038914536
2020-02-01T00:40:00	0.2394	4.728		0.600085869	0.740435204	0.012182076	0.125680231	0.038735868
2020-02-01T00:45:00	0.2404	4.726		0.603264485	0.745096899	0.012302024	0.126917714	0.039117272
2020-02-01T00:50:00	0.2409	4.724		0.605107715	0.747804019	0.012371857	0.127638169	0.039339323
2020-02-01T00:55:00	0.2423	4.716		0.609613174	0.754433100	0.012543410	0.129408045	0.039884816
2020-02-01T01:00:00	0.2425	4.709		0.610455165	0.755673848	0.012575605	0.129740197	0.039987189
2020-02-01T01:05:00	0.2426	4.703		0.610631663	0.755934009	0.012582359	0.129809878	0.040008665
2020-02-01T01:10:00	0.2432	4.699		0.612803561	0.759137563	0.012665626	0.130668924	0.040273431
2020-02-01T01:15:00	0.2419	4.695		0.608322476	0.752532299	0.012494140	0.128899737	0.039728151
2020-02-01T01:20:00	0.2420	4.694		0.608831943	0.753282419	0.012513576	0.129100254	0.039789952
2020-02-01T01:25:00	0.2422	4.690		0.609341336	0.754032650	0.012533024	0.129300903	0.039851794
2020-02-01T01:30:00	0.2417	4.685		0.607853588	0.751842116	0.012476266	0.128715333	0.039671316
2020-02-01T01:35:00	0.2432	4.682		0.612688065	0.758967106	0.012661190	0.130623168	0.040259329
2020-02-01T01:40:00	0.2418	4.683		0.607873913	0.751872030	0.012477040	0.128723324	0.039673779
2020-02-01T01:45:00	0.2413	4.689		0.606385549	0.749682423	0.012420389	0.128138864	0.039493642
2020-02-01T01:50:00	0.2414	4.693		0.606562250	0.749942279	0.012427108	0.128208180	0.039515006
2020-02-01T01:55:00	0.2421	4.694		0.609069478	0.753632232	0.012522643	0.129193798	0.039818783
2020-02-01T02:00:00	0.2410	4.690		0.605250101	0.748013257	0.012377260	0.127693911	0.039356503
2020-02-01T02:05:00	0.2415	4.685		0.607092299	0.750721927	0.012447273	0.128416224	0.039579127
2020-02-01T02:10:00	0.2408	4.685		0.604604016	0.747063963	0.012352754	0.127441082	0.039278579
2020-02-01T02:15:00	0.2401	4.692		0.602447448	0.743897840	0.012271135	0.126599033	0.039019052
2020-02-01T02:20:00	0.2404	4.692		0.603291142	0.745136029	0.012303032	0.126928118	0.039120479
2020-02-01T02:25:00	0.2423	4.688		0.609796008	0.754702471	0.012550397	0.129480133	0.039907034
2020-02-01T02:30:00	0.2416	4.699		0.607309622	0.751041655	0.012455546	0.128501573	0.039605433
2020-02-01T02:35:00	0.2421	4.708		0.609150751	0.753751932	0.012525746	0.129225813	0.039828651
2020-02-01T02:40:00	0.2408	4.712		0.604665048	0.747153622	0.012355068	0.127464955	0.039285937
2020-02-01T02:45:00	0.2407	4.718		0.604508598	0.746923793	0.012349136	0.127403765	0.039267078
2020-02-01T02:50:00	0.2401	4.728		0.602351971	0.743757758	0.012267528	0.126561820	0.039007582
2020-02-01T02:55:00	0.2404	4.729		0.603529049	0.745485284	0.012312035	0.127020994	0.039149104
2020-02-01T03:00:00	0.2407	4.732		0.604372486	0.746723859	0.012343978	0.127350542	0.039250674
2020-02-01T03:05:00	0.2412	4.746		0.605882032	0.748942094	0.012401254	0.127941450	0.039432797
2020-02-01T03:10:00	0.2413	4.753		0.606391849	0.749691687	0.012420629	0.128141335	0.039494404
2020-02-01T03:15:00	0.2417	4.765		0.607567586	0.751421226	0.012465370	0.128602921	0.039636669
2020-02-01T03:20:00	0.2432	4.770		0.612734949	0.759036299	0.012662991	0.130641741	0.040265053
2020-02-01T03:25:00	0.2436	4.776		0.613908588	0.760769002	0.012708099	0.131107115	0.040408486
2020-02-01T03:30:00	0.2448	4.778		0.618070940	0.766923433	0.012868745	0.132764471	0.040919299
2020-02-01T03:35:00	0.2446	4.783		0.617251022	0.765709954	0.012837018	0.132437147	0.040818415
2020-02-01T03:40:00	0.2463	4.786		0.623067444	0.774330514	0.013062964	0.134768189	0.041536865
2020-02-01T03:45:00	0.2449	4.796		0.618267326	0.767214170	0.012876350	0.132842934	0.040943482
2020-02-01T03:50:00	0.2443	4.803		0.616451191	0.764526749	0.012806107	0.132118245	0.040720126
2020-02-01T03:55:00	0.2439	4.808		0.614966417	0.762331721	0.012748827	0.131527300	0.040537991
2020-02-01T04:00:00	0.2441	4.820		0.615807142	0.763574385	0.012781244	0.131861743	0.040641070
2020-02-01T04:05:00	0.2443	4.823		0.616462552	0.764543551	0.012806546	0.132122771	0.040721521
2020-02-01T04:10:00	0.2439	4.825		0.615124854	0.762565858	0.012754933	0.131590293	0.040557406
2020-02-01T04:15:00	0.2425	4.828		0.610461270	0.755682846	0.012575838	0.129742607	0.039987931
2020-02-01T04:20:00	0.2427	4.830		0.611117666	0.756650520	0.012600967	0.130001852	0.040067833
2020-02-01T04:25:00	0.2431	4.830		0.612439021	0.758599589	0.012651630	0.130524534	0.040228929
2020-02-01T04:30:00	0.2424	4.831		0.610101766	0.755153010	0.012562087	0.129600733	0.039944205
2020-02-01T04:35:00	0.2407	4.836		0.604431936	0.746811184	0.012346231	0.127373787	0.039257838
2020-02-01T04:40:00	0.2415	4.842		0.607088075	0.750715712	0.012447113	0.128414565	0.039578616
2020-02-01T04:45:00	0.2423	4.850		0.609742225	0.754623230	0.012548341	0.129458925	0.039900498
2020-02-01T04:50:00	0.2419	4.854		0.608401994	0.752649364	0.012497172	0.128931024	0.039737794
2020-02-01T04:55:00	0.2416	4.858		0.607394254	0.751166177	0.012458769	0.128534819	0.039615679
2020-02-01T05:00:00	0.2429	4.865		0.611711450	0.757526201	0.012623721	0.130236598	0.040140184
2020-02-01T05:05:00	0.2420	4.874		0.608708061	0.753100000	0.012508848	0.129051482	0.039774920
2020-02-01T05:10:00	0.2414	4.876		0.606701408	0.750146944	0.012432400	0.128262783	0.039531835
2020-02-01T05:15:00	0.2410	4.875		0.605360028	0.748174808	0.012381432	0.127736953	0.039369770
2020-02-01T05:20:00	0.2408	4.875		0.604684675	0.747182456	0.012355812	0.127472632	0.039288303
2020-02-01T05:25:00	0.2406	4.882		0.604009193	0.746190296	0.012330214	0.127208542	0.039206908
2020-02-01T05:30:00	0.2392	4.888		0.599330960	0.739329312	0.012153678	0.125387251	0.038645568
2020-02-01T05:35:00	0.2385	4.896		0.596985040	0.735895733	0.012065645	0.124479040	0.038365649
2020-02-01T05:40:00	0.2396	4.894		0.600647760	0.741258647	0.012203235	0.125898530	0.038803150
2020-02-01T05:45:00	0.2392	4.899		0.599304084	0.739289949	0.012152667	0.125376826	0.038642356
2020-02-01T05:50:00	0.2396	4.901		0.600629849	0.741232395	0.012202561	0.125891568	0.038801004
2020-02-01T05:55:00	0.2389	4.899		0.598284791	0.737797530	0.012114379	0.124981812	0.038520608
2020-02-01T06:00:00	0.2386	4.901		0.597274167	0.736318662	0.012076477	0.124590790	0.038400092
2020-02-01T06:05:00	0.2377	4.902		0.594258503	0.731910848	0.011963744	0.123427737	0.038041627
2020-02-01T06:10:00	0.2368	4.902		0.591240260	0.727506864	0.011851457	0.122269295	0.037684584
2020-02-01T06:15:00	0.2359	4.897		0.588219432	0.723106712	0.011739617	0.121115469	0.037328964
2020-02-01T06:20:00	0.2369	4.894		0.591556794	0.727968369	0.011863207	0.122390521	0.037721947
2020-02-01T06:25:00	0.2376	4.888		0.593888377	0.731370380	0.011949945	0.123285376	0.037997750
2020-02-01T06:30:00	0.2384	4.884		0.596552440	0.735263066	0.012049448	0.124311931	0.038314145
2020-02-01T06:35:00	0.2388	4.878		0.597879237	0.737203972	0.012099162	0.124824823	0.038472223
2020-02-01T06:40:00	0.2393	4.872		0.599539273	0.739634429	0.012161510	0.125468062	0.038670475
2020-02-01T06:45:00	0.2389	4.868		0.598195176	0.737666360	0.012111015	0.124947114	0.038509914
2020-02-01T06:50:00	0.2396	4.864		0.600855995	0.741563879	0.012211082	0.125979480	0.038828099
2020-02-01T06:55:00	0.2391	4.861		0.599178659	0.739106258	0.012147952	0.125328185	0.038627364
2020-02-01T07:00:00	0.2402	4.858		0.602839110	0.744472562	0.012285937	0.126751747	0.039066119
2020-02-01T07:05:00	0.2410	4.855		0.605496442	0.748375299	0.012386611	0.127790378	0.039386235
2020-02-01T07:10:00	0.2413	4.854		0.606486840	0.749831378	0.012424240	0.128178596	0.039505888
2020-02-01T07:15:00	0.2409	4.857		0.605145378	0.747859364	0.012373286	0.127652913	0.039343867
2020-02-01T07:20:00	0.2421	4.860		0.609132506	0.753725060	0.012525049	0.129218626	0.039826435
2020-02-01T07:25:00	0.2423	4.869		0.609789148	0.754692365	0.012550135	0.129477428	0.039906201
2020-02-01T07:30:00	0.2420	4.880		0.608781802	0.753208585	0.012511662	0.129080513	0.039783868
2020-02-01T07:35:00	0.2420	4.893		0.608772867	0.753195428	0.012511321	0.129076995	0.039782783
2020-02-01T07:40:00	0.2428	4.913		0.611425759	0.757104842	0.012612770	0.130123626	0.040105365
2020-02-01T07:45:00	0.2428	4.923		0.611416831	0.757091675	0.012612428	0.130120096	0.040104277
2020-02-01T07:50:00	0.2436	4.931		0.614067749	0.761004069	0.012714223	0.131170291	0.040427958
2020-02-01T07:55:00	0.2436	4.940		0.614058828	0.760990892	0.012713879	0.131166750	0.040426866
2020-02-01T08:00:00	0.2454	4.947		0.620027330	0.769821182	0.012944612	0.133547181	0.041160538
2020-02-01T08:05:00	0.2459	4.963		0.621677044	0.772267198	0.013008766	0.134209046	0.041364531
2020-02-01T08:10:00	0.2455	4.981		0.620341303	0.770286531	0.012956810	0.133673016	0.041199322
2020-02-01T08:15:00	0.2476	5.002		0.627292818	0.780610869	0.013228384	0.136474795	0.042062857
2020-02-01T08:20:00	0.2483	5.020		0.629601064	0.784048088	0.013319205	0.137411785	0.042351647
2020-02-01T08:25:00	0.2472	5.043		0.625950286	0.778613771	0.013175708	0.135931347	0.041895361
2020-02-01T08:30:00	0.2475	5.067		0.626935009	0.780078458	0.013214334	0.136329846	0.042018183
2020-02-01T08:35:00	0.2479	5.103		0.628250513	0.782036430	0.013266026	0.136863150	0.042182552
2020-02-01T08:40:00	0.2490	5.129		0.631881190	0.787447858	0.013409237	0.138340626	0.042637924
2020-02-01T08:45:00	0.2491	5.150		0.632203000	0.787928045	0.013421969	0.138471981	0.042678409
2020-02-01T08:50:00	0.2495	5.178		0.633516569	0.789888990	0.013474004	0.139008820	0.042843868
2020-02-01T08:55:00	0.2479	5.199		0.628214968	0.781983506	0.013264628	0.136848726	0.042178106
2020-02-01T09:00:00	0.2494	5.228		0.633168255	0.789368872	0.013460196	0.138866364	0.042799962
2020-02-01T09:05:00	0.2496	5.247		0.633820487	0.790342899	0.013486059	0.139133182	0.042882198
2020-02-01T09:10:00	0.2502	5.268		0.635794204	0.793292597	0.013564478	0.139942219	0.043131551
2020-02-01T09:15:00	0.2492	5.289		0.632480403	0.788342040	0.013432949	0.138585262	0.042713324
2020-02-01T09:20:00	0.2477	5.318		0.627508386	0.780931682	0.013236852	0.136562160	0.042089784
2020-02-01T09:25:00	0.2491	5.340		0.632131989	0.787822078	0.013419159	0.138442990	0.042669474
2020-02-01T09:30:00	0.2484	5.368		0.629807611	0.784355877	0.013327348	0.137495791	0.042377538
2020-02-01T09:35:00	0.2495	5.403		0.633436710	0.789769733	0.013470838	0.138976152	0.042833800
2020-02-01T09:40:00	0.2500	5.442		0.635080248	0.792225216	0.013536084	0.139649283	0.043041265
2020-02-01T09:45:00	0.2513	5.485		0.639364097	0.798636154	0.013706917	0.141411732	0.043584469
2020-02-01T09:50:00	0.2517	5.516		0.640675046	0.800601149	0.013759418	0.141953376	0.043751409
2020-02-01T09:55:00	0.2536	5.533		0.647257983	0.810490473	0.014024633	0.144689551	0.044594725
2020-02-01T10:00:00	0.2532	5.553		0.645931748	0.808495150	0.013970989	0.144136117	0.044424151
2020-02-01T10:05:00	0.2528	5.566		0.644374693	0.806154467	0.013908145	0.143487773	0.044224325
2020-02-01T10:10:00	0.2520	5.576		0.641827743	0.802330145	0.013805667	0.142430526	0.043898471
2020-02-01T10:15:00	0.2531	5.588		0.645543891	0.807911900	0.013955321	0.143974474	0.044374331
2020-02-01T10:20:00	0.2529	5.603		0.644645782	0.806561840	0.013919076	0.143600542	0.044259082
2020-02-01T10:25:00	0.2509	5.620		0.638139717	0.796802234	0.013657977	0.140906828	0.043428853
2020-02-01T10:30:00	0.2503	5.646		0.636248996	0.793972747	0.013582581	0.140128987	0.043189115
2020-02-01T10:35:00	0.2499	5.683		0.635018163	0.792132418	0.013533616	0.139623825	0.043033419
2020-02-01T10:40:00	0.2490	5.710		0.631803206	0.787331506	0.013406153	0.138308804	0.042628117
2020-02-01T10:45:00	0.2483	5.733		0.629578239	0.784014076	0.013318306	0.137402503	0.042348786
2020-02-01T10:50:00	0.2478	5.758		0.628014066	0.781684399	0.013256728	0.136767215	0.042152984
2020-02-01T10:55:00	0.2473	5.776		0.626449208	0.779355771	0.013195271	0.136133176	0.041957567
2020-02-01T11:00:00	0.2471	5.797		0.625546302	0.778013119	0.013159878	0.135768037	0.041845028
2020-02-01T11:05:00	0.2466	5.821		0.623980363	0.775686147	0.013098612	0.135135970	0.041650218
2020-02-01T11:10:00	0.2464	5.838		0.623408333	0.774836633	0.013076269	0.134905460	0.041579173
2020-02-01T11:15:00	0.2465	5.855		0.623499229	0.774971602	0.013079818	0.134942074	0.041590458
2020-02-01T11:20:00	0.2456	5.878		0.620605651	0.770678392	0.012967084	0.133779010	0.041231990
2020-02-01T11:25:00	0.2437	5.894		0.614388008	0.761477126	0.012726549	0.131297461	0.040467153
2020-02-01T11:30:00	0.2445	5.901		0.617136685	0.765540780	0.012832597	0.132391535	0.040804357
2020-02-01T11:35:00	0.2428	5.913		0.611245608	0.756839177	0.012605868	0.130052414	0.040083417
2020-02-01T11:40:00	0.2427	5.933		0.611004187	0.756483201	0.012596621	0.129957014	0.040054014
2020-02-01T11:45:00	0.2434	5.950		0.613423080	0.760052081	0.012689429	0.130914496	0.040349119
2020-02-01T11:50:00	0.2419	5.973		0.608524605	0.752829880	0.012501849	0.128979272	0.039752664
2020-02-01T11:55:00	0.2408	6.007		0.604619227	0.747086308	0.012353330	0.127447032	0.039280413
2020-02-01T12:00:00	0.2398	6.044		0.601376698	0.742327289	0.012230714	0.126182018	0.038890523
2020-02-01T12:05:00	0.2391	6.067		0.599132616	0.739038829	0.012146222	0.125310331	0.038621861
2020-02-01T12:10:00	0.2407	6.084		0.604226856	0.746509961	0.012338459	0.127293610	0.039233127
2020-02-01T12:15:00	0.2406	6.097		0.603984957	0.746154705	0.012329296	0.127199072	0.039203989
2020-02-01T12:20:00	0.2416	6.115		0.607407718	0.751185988	0.012459281	0.128540108	0.039617310
2020-02-01T12:25:00	0.2399	6.137		0.601833979	0.742997901	0.012247968	0.126360025	0.038945387
2020-02-01T12:30:00	0.2397	6.156		0.600924799	0.741664741	0.012213675	0.126006233	0.038836345
2020-02-01T12:35:00	0.2379	6.176		0.595006699	0.733003733	0.011991663	0.123715772	0.038130402
2020-02-01T12:40:00	0.2375	6.192		0.593761510	0.731185152	0.011945217	0.123236599	0.037982717
2020-02-01T12:45:00	0.2366	6.205		0.590508999	0.726441009	0.011824334	0.121989470	0.037598339
2020-02-01T12:50:00	0.2363	6.225		0.589596899	0.725112194	0.011790548	0.121640906	0.037490909
2020-02-01T12:55:00	0.2342	6.231		0.582653921	0.715019854	0.011534989	0.119004357	0.036678299
2020-02-01T13:00:00	0.2340	6.238		0.582075176	0.714180399	0.011513816	0.118785918	0.036610973
2020-02-01T13:05:00	0.2337	6.248		0.580825405	0.712368584	0.011468162	0.118314909	0.036465804
2020-02-01T13:10:00	0.2333	6.251		0.579575189	0.710557423	0.011422584	0.117844689	0.036320878
2020-02-01T13:15:00	0.2346	6.256		0.584027417	0.717013192	0.011585318	0.119523586	0.036838330
2020-02-01T13:20:00	0.2332	6.261		0.579423627	0.710337947	0.011417065	0.117787751	0.036303329
2020-02-01T13:25:00	0.2344	6.263		0.583205571	0.715820269	0.011555190	0.119212761	0.036742531
2020-02-01T13:30:00	0.2331	6.264		0.578936397	0.709632520	0.011399332	0.117604803	0.036246942
2020-02-01T13:35:00	0.2322	6.272		0.576006117	0.705394119	0.011292980	0.116507588	0.035908770
2020-02-01T13:40:00	0.2331	6.278		0.578784809	0.709413085	0.011393817	0.117547913	0.036229408
2020-02-01T13:45:00	0.2320	6.290		0.575182391	0.704203951	0.011263175	0.116200097	0.035813998
2020-02-01T13:50:00	0.2322	6.302		0.575946528	0.705308002	0.011290822	0.116485330	0.035901910
2020-02-01T13:55:00	0.2303	6.310		0.569649674	0.696224516	0.011064026	0.114145517	0.035180757
2020-02-01T14:00:00	0.2320	6.328		0.575122787	0.704117854	0.011261020	0.116177864	0.035807146
2020-02-01T14:05:00	0.2333	6.344		0.579580662	0.710565350	0.011422783	0.117846746	0.036321512
2020-02-01T14:10:00	0.2329	6.364		0.578330003	0.708754838	0.011377281	0.117377313	0.036176828
2020-02-01T14:15:00	0.2315	6.385		0.573718729	0.702090553	0.011210314	0.115654746	0.035645916
2020-02-01T14:20:00	0.2322	6.391		0.575827346	0.705135772	0.011286508	0.116440819	0.035888191
2020-02-01T14:25:00	0.2321	6.388		0.575583489	0.704783411	0.011277683	0.116349772	0.035860130
2020-02-01T14:30:00	0.2326	6.382		0.577355172	0.707344527	0.011341879	0.117012076	0.036064258
2020-02-01T14:35:00	0.2317	6.378		0.574087443	0.702622776	0.011223619	0.115792003	0.035688220
2020-02-01T14:40:00	0.2305	6.384		0.570143685	0.696935963	0.011081734	0.114328209	0.035237064
2020-02-01T14:45:00	0.2306	6.393		0.570572458	0.697553621	0.011097116	0.114486895	0.035285973
2020-02-01T14:50:00	0.2316	6.397		0.574027821	0.702536707	0.011221467	0.115769803	0.035681378
2020-02-01T14:55:00	0.2321	6.397		0.575464295	0.704611199	0.011273370	0.116305283	0.035846418
2020-02-01T15:00:00	0.2315	6.396		0.573539841	0.701832376	0.011203862	0.115588183	0.035625401
2020-02-01T15:05:00	0.2313	6.399		0.572959590	0.700995123	0.011182948	0.115372412	0.035558898
2020-02-01T15:10:00	0.2302	6.402		0.569351175	0.695794733	0.011053333	0.114035200	0.035146756
2020-02-01T15:15:00	0.2310	6.406		0.571798801	0.699321037	0.011141168	0.114941378	0.035426049
2020-02-01T15:20:00	0.2297	6.401		0.567515704	0.693153612	0.010987698	0.113358057	0.034938054
2020-02-01T15:25:00	0.2299	6.404		0.568281516	0.694255226	0.011015059	0.113640331	0.035025054
2020-02-01T15:30:00	0.2309	6.399		0.571402756	0.698750117	0.011126932	0.114794503	0.035380781
2020-02-01T15:35:00	0.2313	6.391		0.572840307	0.700823041	0.011178651	0.115328080	0.035545234
2020-02-01T15:40:00	0.2313	6.385		0.572932512	0.700956058	0.011181972	0.115362347	0.035555796
2020-02-01T15:45:00	0.2330	6.373		0.578736217	0.709342749	0.011392050	0.117529680	0.036223789
2020-02-01T15:50:00	0.2330	6.371		0.578492563	0.708990093	0.011383190	0.117438275	0.036195617
2020-02-01T15:55:00	0.2333	6.369		0.579591610	0.710581204	0.011423182	0.117850860	0.036322779
2020-02-01T16:00:00	0.2337	6.355		0.581025808	0.712659025	0.011475476	0.118390372	0.036489062
2020-02-01T16:05:00	0.2328	6.341		0.578020225	0.708306590	0.011366025	0.117261187	0.036141037
2020-02-01T16:10:00	0.2325	6.337		0.577027809	0.706871101	0.011330003	0.116889554	0.036026496
2020-02-01T16:15:00	0.2321	6.330		0.575699141	0.704950516	0.011281867	0.116392947	0.035873437
2020-02-01T16:20:00	0.2314	6.320		0.573361476	0.701574981	0.011197431	0.115521835	0.035604951
2020-02-01T16:25:00	0.2316	6.312		0.574048875	0.702567100	0.011222227	0.115777642	0.035683794
2020-02-01T16:30:00	0.2322	6.304		0.576080203	0.705501191	0.011295662	0.116535264	0.035917300
2020-02-01T16:35:00	0.2315	6.298		0.573406601	0.701640098	0.011199058	0.115538619	0.035610124
2020-02-01T16:40:00	0.2323	6.292		0.576110263	0.705544636	0.011296751	0.116546494	0.035920761
2020-02-01T16:45:00	0.2312	6.287		0.572427924	0.700228217	0.011163802	0.115174887	0.035498019
2020-02-01T16:50:00	0.2298	6.278		0.567731593	0.693464118	0.010995408	0.113437596	0.034962569
2020-02-01T16:55:00	0.2286	6.271		0.563703293	0.687676698	0.010852005	0.111958138	0.034506586
2020-02-01T17:00:00	0.2278	6.258		0.561020207	0.683829361	0.010757022	0.110978212	0.034204563
2020-02-01T17:05:00	0.2282	6.248		0.562384641	0.685785113	0.010805271	0.111475989	0.034357982
2020-02-01T17:10:00	0.2280	6.238		0.561725129	0.684839590	0.010781936	0.111235242	0.034283782
2020-02-01T17:15:00	0.2287	6.229		0.564100746	0.688247120	0.010866112	0.112103670	0.034551440
2020-02-01T17:20:00	0.2283	6.226		0.562767158	0.686333679	0.010818817	0.111615742	0.034401056
2020-02-01T17:25:00	0.2286	6.228		0.563793792	0.687806570	0.010855216	0.111991267	0.034516796
2020-02-01T17:30:00	0.2299	6.224		0.568188845	0.694121894	0.011011746	0.113606154	0.035014520
2020-02-01T17:35:00	0.2307	6.223		0.570896537	0.698020565	0.011108748	0.114606910	0.035322963
2020-02-01T17:40:00	0.2304	6.221		0.569902101	0.696588022	0.011073073	0.114238849	0.035209523
2020-02-01T17:45:00	0.2300	6.210		0.568570725	0.694671378	0.011025401	0.113747025	0.035057938
2020-02-01T17:50:00	0.2296	6.201		0.567238843	0.692755469	0.010977815	0.113256095	0.034906628
2020-02-01T17:55:00	0.2303	6.190		0.569610714	0.696168417	0.011062630	0.114131116	0.035176318
2020-02-01T18:00:00	0.2301	6.180		0.568952565	0.695220922	0.011039062	0.113887970	0.035101378
2020-02-01T18:05:00	0.2301	6.171		0.568967625	0.695242600	0.011039601	0.113893531	0.035103092
2020-02-01T18:10:00	0.2295	6.164		0.566962303	0.692357852	0.010967948	0.113154298	0.034875254
2020-02-01T18:15:00	0.2283	6.153		0.562933115	0.686571716	0.010824697	0.111676403	0.034419752
2020-02-01T18:20:00	0.2298	6.146		0.568002770	0.693854197	0.011005096	0.113537545	0.034993374
2020-02-01T18:25:00	0.2299	6.140		0.568017835	0.693875869	0.011005634	0.113543099	0.034995086
2020-02-01T18:30:00	0.2305	6.130		0.570052664	0.696804865	0.011078470	0.114294537	0.035226686
2020-02-01T18:35:00	0.2300	6.123		0.568384671	0.694403652	0.011018747	0.113678381	0.035036781
2020-02-01T18:40:00	0.2308	6.117		0.571092213	0.698302544	0.011115775	0.114679404	0.035345306
2020-02-01T18:45:00	0.2321	6.108		0.575478110	0.704631159	0.011273870	0.116310439	0.035848007
2020-02-01T18:50:00	0.2325	6.098		0.576836916	0.706595076	0.011323081	0.116818139	0.036004485
2020-02-01T18:55:00	0.2320	6.091		0.575172153	0.704189162	0.011262804	0.116196278	0.035812821
2020-02-01T19:00:00	0.2315	6.079		0.573506598	0.701784402	0.011202664	0.115575816	0.035621589
2020-02-01T19:05:00	0.2321	6.070		0.575538240	0.704718034	0.011276045	0.116332882	0.035854924
2020-02-01T19:10:00	0.2326	6.062		0.577232880	0.707167661	0.011337442	0.116966298	0.036050149
2020-02-01T19:15:00	0.2305	6.058		0.570188166	0.697000031	0.011083329	0.114344666	0.035242136
2020-02-01T19:20:00	0.2304	6.057		0.569866689	0.696537024	0.011071803	0.114225754	0.035205487
2020-02-01T19:25:00	0.2304	6.048		0.569881746	0.696558708	0.011072343	0.114231322	0.035207203
2020-02-01T19:30:00	0.2298	6.045		0.567876948	0.693673199	0.011000600	0.113491165	0.034979079
2020-02-01T19:35:00	0.2292	6.039		0.565871000	0.690789357	0.010929054	0.112753035	0.034751580
2020-02-01T19:40:00	0.2300	6.034		0.568580487	0.694685426	0.011025750	0.113750627	0.035059048
2020-02-01T19:45:00	0.2298	6.018		0.567922144	0.693738212	0.011002215	0.113507824	0.034984214
2020-02-01T19:50:00	0.2295	6.003		0.566926861	0.692306897	0.010966684	0.113141255	0.034871234
2020-02-01T19:55:00	0.2305	5.992		0.570308607	0.697173519	0.011087649	0.114389232	0.035255872
2020-02-01T20:00:00	0.2299	5.985		0.568304054	0.694287654	0.011015865	0.113648644	0.035027616
2020-02-01T20:05:00	0.2293	5.977		0.566298351	0.691403457	0.010944276	0.112910082	0.034799984
2020-02-01T20:10:00	0.2292	5.963		0.565976516	0.690940969	0.010932812	0.112791801	0.034763529
2020-02-01T20:15:00	0.2300	5.947		0.568685922	0.694837157	0.011029521	0.113789537	0.035071041
2020-02-01T20:20:00	0.2299	5.936		0.568027599	0.693889915	0.011005983	0.113546699	0.034996195
2020-02-01T20:25:00	0.2311	5.931		0.572081016	0.699727943	0.011151318	0.115046096	0.035458324
2020-02-01T20:30:00	0.2307	5.920		0.570750469	0.697810094	0.011103505	0.114552809	0.035306288
2020-02-01T20:35:00	0.2311	5.913		0.572111110	0.699771338	0.011152401	0.115057266	0.035461767
2020-02-01T20:40:00	0.2306	5.901		0.570444098	0.697368700	0.011092510	0.114439379	0.035271328
2020-02-01T20:45:00	0.2308	5.886		0.571132070	0.698359984	0.011117207	0.114694174	0.035349858
2020-02-01T20:50:00	0.2290	5.873		0.565086223	0.689662030	0.010901128	0.112464928	0.034662783
2020-02-01T20:55:00	0.2305	5.865		0.570152757	0.696949029	0.011082060	0.114331565	0.035238099
2020-02-01T21:00:00	0.2295	5.854		0.566801000	0.692125955	0.010962195	0.113094943	0.034856960
2020-02-01T21:05:00	0.2299	5.844		0.568163178	0.694084967	0.011010829	0.113596689	0.035011603
2020-02-01T21:10:00	0.2289	5.827		0.564809513	0.689264659	0.010891290	0.112363431	0.034631501
2020-02-01T21:15:00	0.2306	5.810		0.570549477	0.697520512	0.011096291	0.114478387	0.035283351
2020-02-01T21:20:00	0.2290	5.799		0.565176686	0.689791954	0.010904345	0.112498119	0.034673013
2020-02-01T21:25:00	0.2257	5.787		0.554053040	0.673866670	0.010512359	0.108454069	0.033426597
2020-02-01T21:30:00	0.2251	5.767		0.552039118	0.670994300	0.010442169	0.107729930	0.033203411
2020-02-01T21:35:00	0.2253	5.754		0.552730730	0.671980341	0.010466246	0.107978333	0.033279971
2020-02-01T21:40:00	0.2256	5.752		0.553760326	0.673448978	0.010502142	0.108348666	0.033394111
2020-02-01T21:45:00	0.2262	5.748		0.555803488	0.676365964	0.010573560	0.109085469	0.033621201
2020-02-01T21:50:00	0.2237	5.733		0.547360679	0.664334494	0.010280033	0.106057205	0.032687861
2020-02-01T21:55:00	0.2240	5.717		0.548391868	0.665800860	0.010315659	0.106424757	0.032801144
2020-02-01T22:00:00	0.2235	5.699		0.546713468	0.663414597	0.010257704	0.105826845	0.032616862
2020-02-01T22:05:00	0.2232	5.683		0.545418148	0.661574554	0.010213090	0.105366566	0.032474999
2020-02-01T22:10:00	0.2237	5.669		0.547172414	0.664066873	0.010273535	0.105990170	0.032667200
2020-02-01T22:15:00	0.2244	5.652		0.549602880	0.667524051	0.010357578	0.106857226	0.032934435
2020-02-01T22:20:00	0.2237	5.638		0.547292579	0.664237686	0.010277682	0.106032955	0.032680386
2020-02-01T22:25:00	0.2238	5.613		0.547691374	0.664804653	0.010291451	0.106175006	0.032724168
2020-02-01T22:30:00	0.2235	5.594		0.546735226	0.663445515	0.010258455	0.105834585	0.032619247
2020-02-01T22:35:00	0.2221	5.573		0.541709820	0.656314353	0.010085908	0.104054457	0.032070594
2020-02-01T22:40:00	0.2217	5.550		0.540412627	0.654476963	0.010041610	0.103597435	0.031929736
2020-02-01T22:45:00	0.2200	5.528		0.534698153	0.646399140	0.009847633	0.101596217	0.031312941
2020-02-01T22:50:00	0.2214	5.508		0.539514685	0.653205891	0.010011003	0.103281670	0.031832414
2020-02-01T22:55:00	0.2225	5.489		0.543307293	0.658578963	0.010140597	0.104618669	0.032244490
2020-02-01T23:00:00	0.2228	5.471		0.544045617	0.659626330	0.010165923	0.104879958	0.032325022
2020-02-01T23:05:00	0.2223	5.456		0.542410102	0.657306830	0.010109864	0.104301600	0.032146766
2020-02-01T23:10:00	0.2230	5.443		0.544843907	0.660759267	0.010193343	0.105162840	0.032412209
2020-02-01T23:15:00	0.2237	5.432		0.547276005	0.664214125	0.010277110	0.106027053	0.032678567
2020-02-01T23:20:00	0.2262	5.424		0.555794073	0.676352515	0.010573230	0.109082068	0.033620153
2020-02-01T23:25:00	0.2246	5.417		0.550443361	0.668720707	0.010386722	0.107157895	0.033027104
2020-02-01T23:30:00	0.2243	5.409		0.549149433	0.666878684	0.010341872	0.106695190	0.032884494
2020-02-01T23:35:00	0.2239	5.400		0.547855022	0.665037348	0.010297104	0.106233326	0.032742143
2020-02-01T23:40:00	0.2236	5.393		0.546898919	0.663678147	0.010264100	0.105892826	0.032637197
2020-02-01T23:45:00	0.2232	5.390		0.545603668	0.661838006	0.010219474	0.105432427	0.032495298
2020-02-01T23:50:00	0.2266	5.391		0.557167135	0.678314731	0.010621362	0.109578636	0.033773200
2020-02-01T23:55:00	0.2291	5.389		0.565324094	0.690003677	0.010909589	0.112552215	0.034689686
2020-02-02T00:00:00	0.2273	5.382		0.559312947	0.681384371	0.010696804	0.110356960	0.034013087
2020-02-02T00:05:00	0.2285	5.364		0.563421203	0.687271924	0.010841999	0.111854907	0.034474769
2020-02-02T00:10:00	0.2307	5.338		0.570890745	0.698012219	0.011108540	0.114604764	0.035322301
2020-02-02T00:15:00	0.2303	5.314		0.569604386	0.696159305	0.011062403	0.114128776	0.035175597
2020-02-02T00:20:00	0.2315	5.294		0.573700566	0.702064339	0.011209659	0.115647987	0.035643833
2020-02-02T00:25:00	0.2315	5.277		0.573424004	0.701665211	0.011199686	0.115545092	0.035612119
2020-02-02T00:30:00	0.2312	5.261		0.572474889	0.700295953	0.011165493	0.115192328	0.035503394
2020-02-02T00:35:00	0.2326	5.241		0.577239461	0.707177178	0.011337681	0.116968761	0.036050908
2020-02-02T00:40:00	0.2341	5.214		0.582332939	0.714554244	0.011523244	0.118883182	0.036640951
2020-02-02T00:45:00	0.2359	5.194		0.588423510	0.723403734	0.011747156	0.121193242	0.037352934
2020-02-02T00:50:00	0.2346	5.184		0.584128212	0.717159537	0.011589015	0.119561736	0.036850088
2020-02-02T00:55:00	0.2359	5.169		0.588207487	0.723089329	0.011739176	0.121110918	0.037327561
2020-02-02T01:00:00	0.2351	5.147		0.585587542	0.719279285	0.011642621	0.120114771	0.037020539
2020-02-02T01:05:00	0.2354	5.129		0.586651938	0.720826489	0.011681799	0.120518964	0.037145115
2020-02-02T01:10:00	0.2362	5.110		0.589389818	0.724810600	0.011782884	0.121561841	0.037466540
2020-02-02T01:15:00	0.2357	5.088		0.587775402	0.722460578	0.011723224	0.120946342	0.037276837
2020-02-02T01:20:00	0.2370	5.063		0.591850457	0.728396603	0.011874114	0.122503044	0.037756628
2020-02-02T01:25:00	0.2368	5.048		0.591240829	0.727507693	0.011851478	0.122269512	0.037684651
2020-02-02T01:30:00	0.2354	5.036		0.586614039	0.720771383	0.011680403	0.120504560	0.037140676
2020-02-02T01:35:00	0.2367	5.016		0.591024979	0.727193033	0.011843468	0.122186881	0.037659183
2020-02-02T01:40:00	0.2350	4.987		0.585392863	0.718996401	0.011635462	0.120040919	0.036997777
2020-02-02T01:45:00	0.2364	4.963		0.590139958	0.725903279	0.011810658	0.121848378	0.037554853
2020-02-02T01:50:00	0.2350	4.943		0.585176654	0.718682271	0.011627515	0.119958927	0.036972506
2020-02-02T01:55:00	0.2344	4.919		0.583225051	0.715848539	0.011555903	0.119220124	0.036744800
2020-02-02T02:00:00	0.2331	4.897		0.578923395	0.709613697	0.011398859	0.117599922	0.036245438
2020-02-02T02:05:00	0.2335	4.876		0.580325372	0.711644041	0.011449921	0.118126726	0.036407804
2020-02-02T02:10:00	0.2337	4.853		0.581055902	0.712702643	0.011476575	0.118401706	0.036492556
2020-02-02T02:15:00	0.2329	4.828		0.578430620	0.708900447	0.011380938	0.117415044	0.036188457
2020-02-02T02:20:00	0.2335	4.803		0.580168370	0.711416590	0.011444197	0.118067672	0.036389603
2020-02-02T02:25:00	0.2357	4.777		0.587602348	0.722208801	0.011716838	0.120880460	0.037256532
2020-02-02T02:30:00	0.2368	4.755		0.591343123	0.727656828	0.011855275	0.122308682	0.037696724
2020-02-02T02:35:00	0.2350	4.733		0.585376468	0.718972580	0.011634859	0.120034701	0.036995860
2020-02-02T02:40:00	0.2344	4.713		0.583424976	0.716138685	0.011563229	0.119295700	0.036768093
2020-02-02T02:45:00	0.2337	4.687		0.580801465	0.712333891	0.011467288	0.118305896	0.036463026
2020-02-02T02:50:00	0.2335	4.663		0.580189919	0.711447808	0.011444983	0.118075777	0.036392101
2020-02-02T02:55:00	0.2346	4.643		0.583938578	0.716884214	0.011582059	0.119489967	0.036827968
2020-02-02T03:00:00	0.2354	4.625		0.586678569	0.720865212	0.011682780	0.120529086	0.037148235
2020-02-02T03:05:00	0.2358	4.608		0.588077458	0.722900099	0.011734375	0.121061379	0.037312293
2020-02-02T03:10:00	0.2363	4.590		0.589810448	0.725423246	0.011798453	0.121722470	0.037516047
2020-02-02T03:15:00	0.2352	4.580		0.585851878	0.719663435	0.011652344	0.120215085	0.037051457
2020-02-02T03:20:00	0.2367	4.574		0.590932906	0.727058823	0.011840053	0.122151642	0.037648323
2020-02-02T03:25:00	0.2365	4.564		0.590323119	0.726170149	0.011817444	0.121918394	0.037576433
2020-02-02T03:30:00	0.2374	4.553		0.593392468	0.730646420	0.011931469	0.123094768	0.037939003
2020-02-02T03:35:00	0.2365	4.547		0.590441811	0.726343100	0.011821843	0.121963776	0.037590420
2020-02-02T03:40:00	0.2368	4.531		0.591504741	0.727892470	0.011861274	0.122370582	0.037715802
2020-02-02T03:45:00	0.2374	4.516		0.593236048	0.730418111	0.011925645	0.123034677	0.037920482
2020-02-02T03:50:00	0.2368	4.501		0.591288907	0.727577786	0.011853262	0.122287922	0.037690325
2020-02-02T03:55:00	0.2368	4.484		0.591348237	0.727664285	0.011855464	0.122310641	0.037697327
2020-02-02T04:00:00	0.2353	4.471		0.586386637	0.720440760	0.011672027	0.120418154	0.037114044
2020-02-02T04:05:00	0.2349	4.465		0.585090957	0.718557771	0.011624365	0.119926436	0.036962492
2020-02-02T04:10:00	0.2347	4.458		0.584465163	0.717648817	0.011601381	0.119689312	0.036889408
2020-02-02T04:15:00	0.2357	4.451		0.587524637	0.722095746	0.011713971	0.120850881	0.037247415
2020-02-02T04:20:00	0.2350	4.434		0.585224284	0.718751470	0.011629265	0.119976987	0.036978073
2020-02-02T04:25:00	0.2373	4.414		0.592967001	0.730025460	0.011915630	0.122931355	0.037888638
2020-02-02T04:30:00	0.2372	4.399		0.592676991	0.729602282	0.011904839	0.122820032	0.037854327
2020-02-02T04:35:00	0.2373	4.384		0.593055689	0.730154885	0.011918930	0.122965409	0.037899133
2020-02-02T04:40:00	0.2386	4.369		0.597443645	0.736566604	0.012082829	0.124656320	0.038420288
2020-02-02T04:45:00	0.2391	4.357		0.599157112	0.739074703	0.012147142	0.125319829	0.038624789
2020-02-02T04:50:00	0.2400	4.353		0.601870393	0.743051310	0.012249342	0.126374205	0.038949757
2020-02-02T04:55:00	0.2406	4.340		0.603915042	0.746052035	0.012326648	0.127171754	0.039195570
2020-02-02T05:00:00	0.2412	4.326		0.605958511	0.749054529	0.012404159	0.127971425	0.039442036
2020-02-02T05:05:00	0.2424	4.321		0.609997789	0.754999790	0.012558111	0.129559715	0.039931562
2020-02-02T05:10:00	0.2423	4.317		0.609709171	0.754574530	0.012547078	0.129445892	0.039896481
2020-02-02T05:15:00	0.2431	4.309		0.612414391	0.758563245	0.012650685	0.130514781	0.040225923
2020-02-02T05:20:00	0.2433	4.302		0.613123444	0.759609726	0.012677913	0.130795693	0.040312503
2020-02-02T05:25:00	0.2438	4.290		0.614829351	0.762129181	0.012743546	0.131472816	0.040521199
2020-02-02T05:30:00	0.2437	4.280		0.614208798	0.761212402	0.012719651	0.131226292	0.040445218
2020-02-02T05:35:00	0.2434	4.276		0.613255719	0.759804995	0.012682996	0.130848132	0.040328665
2020-02-02T05:40:00	0.2428	4.268		0.611304680	0.756926286	0.012608131	0.130075762	0.040090613
2020-02-02T05:45:00	0.2435	4.254		0.613676308	0.760425983	0.012699165	0.131014943	0.040380078
2020-02-02T05:50:00	0.2439	4.242		0.615049701	0.762454795	0.012752037	0.131560410	0.040548196
2020-02-02T05:55:00	0.2450	4.230		0.618746761	0.767924075	0.012894927	0.133034584	0.041002551
2020-02-02T06:00:00	0.2456	4.217		0.620781721	0.770939426	0.012973929	0.133849632	0.041253757
2020-02-02T06:05:00	0.2465	4.206		0.623478542	0.774940884	0.013079011	0.134933741	0.041587889
2020-02-02T06:10:00	0.2457	4.198		0.620869716	0.771069893	0.012977351	0.133884934	0.041264637
2020-02-02T06:15:00	0.2465	4.189		0.623566470	0.775071452	0.013082444	0.134969163	0.041598807
2020-02-02T06:20:00	0.2462	4.184		0.622615892	0.773660244	0.013045350	0.134586467	0.041480856
2020-02-02T06:25:00	0.2464	4.180		0.623322917	0.774709806	0.013072935	0.134871057	0.041568570
2020-02-02T06:30:00	0.2468	4.178		0.624692597	0.776744264	0.013126459	0.135423263	0.041738765
2020-02-02T06:35:00	0.2469	4.175		0.625067893	0.777301989	0.013141145	0.135574773	0.041785462
2020-02-02T06:40:00	0.2483	4.171		0.629747421	0.784266180	0.013324975	0.137471308	0.042369992
2020-02-02T06:45:00	0.2485	4.164		0.630122187	0.784824718	0.013339754	0.137623785	0.042416987
2020-02-02T06:50:00	0.2467	4.156		0.624205628	0.776020762	0.013107417	0.135226801	0.041678213
2020-02-02T06:55:00	0.2471	4.146		0.625574969	0.778055738	0.013161001	0.135779623	0.041848598
2020-02-02T07:00:00	0.2471	4.138		0.625618908	0.778121061	0.013162722	0.135797380	0.041854072
2020-02-02T07:05:00	0.2466	4.130		0.624006077	0.775724342	0.013099617	0.135146337	0.041653413
2020-02-02T07:10:00	0.2470	4.122		0.625375495	0.777759200	0.013153188	0.135699019	0.041823756
2020-02-02T07:15:00	0.2484	4.115		0.630054620	0.784724009	0.013337089	0.137596288	0.042408512
2020-02-02T07:20:00	0.2486	4.116		0.630429354	0.785282596	0.013351874	0.137748825	0.042455526
2020-02-02T07:25:00	0.2492	4.125		0.632457671	0.788308112	0.013432049	0.138575977	0.042710462
2020-02-02T07:30:00	0.2494	4.131		0.633162751	0.789360654	0.013459978	0.138864113	0.042799268
2020-02-02T07:35:00	0.2496	4.134		0.633867693	0.790413410	0.013487932	0.139152503	0.042888153
2020-02-02T07:40:00	0.2495	4.132		0.633581001	0.789985215	0.013476560	0.139035181	0.042851993
2020-02-02T07:45:00	0.2510	4.123		0.638579519	0.797460839	0.013675546	0.141088084	0.043484718
2020-02-02T07:50:00	0.2504	4.117		0.636642273	0.794561040	0.013598246	0.140290596	0.043238924
2020-02-02T07:55:00	0.2512	4.115		0.639327167	0.798580820	0.013705439	0.141396490	0.043579771
2020-02-02T08:00:00	0.2502	4.114		0.635738979	0.793210018	0.013562281	0.139919549	0.043124564
2020-02-02T08:05:00	0.2493	4.115		0.632808487	0.788831757	0.013445942	0.138719302	0.042754636
2020-02-02T08:10:00	0.2498	4.115		0.634505013	0.791365542	0.013513229	0.139413497	0.042968594
2020-02-02T08:15:00	0.2501	4.114		0.635540070	0.792912611	0.013554368	0.139837911	0.043099402
2020-02-02T08:20:00	0.2509	4.112		0.638225789	0.796931116	0.013661414	0.140942292	0.043439783
2020-02-02T08:25:00	0.2505	4.110		0.636948881	0.795019779	0.013610465	0.140416658	0.043277778
2020-02-02T08:30:00	0.2522	4.108		0.642602201	0.803492434	0.013836786	0.142751575	0.043997422
2020-02-02T08:35:00	0.2519	4.107		0.641656664	0.802073463	0.013798798	0.142359657	0.043876629
2020-02-02T08:40:00	0.2504	4.117		0.636419772	0.794228190	0.013589382	0.140199152	0.043210740
2020-02-02T08:45:00	0.2503	4.119		0.636133283	0.793799680	0.013577974	0.140081455	0.043174465
2020-02-02T08:50:00	0.2517	4.127		0.640798384	0.800786097	0.013764363	0.142004391	0.043767133
2020-02-02T08:55:00	0.2532	4.149		0.645786871	0.808277272	0.013965135	0.144075727	0.044405538
2020-02-02T09:00:00	0.2528	4.163		0.644512647	0.806361767	0.013913707	0.143545154	0.044242011
2020-02-02T09:05:00	0.2525	4.181		0.643567613	0.804942015	0.013875629	0.143152311	0.044120932
2020-02-02T09:10:00	0.2523	4.216		0.642952027	0.804017612	0.013850855	0.142896718	0.044042156
2020-02-02T09:15:00	0.2528	4.248		0.644314224	0.806063607	0.013905708	0.143462625	0.044216574
2020-02-02T09:20:00	0.2531	4.260		0.645346457	0.807615055	0.013947349	0.143892228	0.044348982
2020-02-02T09:25:00	0.2557	4.283		0.653945914	0.820575318	0.014296783	0.147497270	0.045460091
2020-02-02T09:30:00	0.2534	4.308		0.646422079	0.809232679	0.013990809	0.144340602	0.044487175
2020-02-02T09:35:00	0.2539	4.342		0.648112188	0.811776420	0.014059241	0.145046594	0.044704769
2020-02-02T09:40:00	0.2541	4.371		0.648814203	0.812833719	0.014087716	0.145340368	0.044795313
2020-02-02T09:45:00	0.2549	4.396		0.651490029	0.816867616	0.014196529	0.146462971	0.045141310
2020-02-02T09:50:00	0.2551	4.418		0.652191386	0.817925945	0.014225122	0.146757961	0.045232229
2020-02-02T09:55:00	0.2554	4.444		0.652892607	0.818984488	0.014253740	0.147053203	0.045323225
2020-02-02T10:00:00	0.2549	4.482		0.651291990	0.816568856	0.014188461	0.146379732	0.045115655
2020-02-02T10:05:00	0.2546	4.516		0.650383538	0.815198803	0.014151480	0.145998213	0.044998067
2020-02-02T10:10:00	0.2550	4.552		0.651777718	0.817301680	0.014208254	0.146583935	0.045178592
2020-02-02T10:15:00	0.2545	4.580		0.650211412	0.814939297	0.014144479	0.145925984	0.044975806
2020-02-02T10:20:00	0.2547	4.604		0.650618851	0.815553616	0.014161054	0.146096987	0.045028510
2020-02-02T10:25:00	0.2555	4.626		0.653328116	0.819642130	0.014271528	0.147236726	0.045379789
2020-02-02T10:30:00	0.2554	4.644		0.653077749	0.819264043	0.014261300	0.147131207	0.045347267
2020-02-02T10:35:00	0.2546	4.666		0.650525175	0.815412362	0.014157243	0.146057661	0.045016390
2020-02-02T10:40:00	0.2557	4.687		0.653891934	0.820493769	0.014294575	0.147474496	0.045453072
2020-02-02T10:45:00	0.2551	4.703		0.651997706	0.817633645	0.014217223	0.146676468	0.045207112
2020-02-02T10:50:00	0.2538	4.717		0.647798551	0.811304188	0.014046529	0.144915446	0.044664348
2020-02-02T10:55:00	0.2541	4.734		0.648864605	0.812909646	0.014089761	0.145361472	0.044801817
2020-02-02T11:00:00	0.2525	4.746		0.643343450	0.804605360	0.013866605	0.143059210	0.044092238
2020-02-02T11:05:00	0.2512	4.756		0.639134177	0.798291674	0.013697720	0.141316847	0.043555225
2020-02-02T11:10:00	0.2505	4.773		0.636901939	0.794949542	0.013608594	0.140397354	0.043271828
2020-02-02T11:15:00	0.2501	4.786		0.635659506	0.793091188	0.013559119	0.139886928	0.043114510
2020-02-02T11:20:00	0.2514	4.803		0.639700223	0.799139838	0.013720368	0.141550507	0.043627241
2020-02-02T11:25:00	0.2507	4.825		0.637468338	0.795797160	0.013631180	0.140630367	0.043343645
2020-02-02T11:30:00	0.2504	4.858		0.636556386	0.794432553	0.013594824	0.140255294	0.043228044
2020-02-02T11:35:00	0.2501	4.888		0.635644203	0.793068306	0.013558510	0.139880647	0.043112574
2020-02-02T11:40:00	0.2504	4.916		0.636383597	0.794174079	0.013587941	0.140184287	0.043206159
2020-02-02T11:45:00	0.2493	4.940		0.632827435	0.788860043	0.013446692	0.138727045	0.042757023
2020-02-02T11:50:00	0.2488	4.957		0.631252844	0.786510526	0.013384395	0.138084336	0.042558933
2020-02-02T11:55:00	0.2489	4.968		0.631662439	0.787121499	0.013400586	0.138251374	0.042610416
2020-02-02T12:00:00	0.2513	4.974		0.639669650	0.799094021	0.013719144	0.141537881	0.043623350
2020-02-02T12:05:00	0.2493	4.985		0.632812119	0.788837180	0.013446086	0.138720786	0.042755094
2020-02-02T12:10:00	0.2496	5.004		0.633882630	0.790435721	0.013488524	0.139158617	0.042890037
2020-02-02T12:15:00	0.2483	5.020		0.629662231	0.784139233	0.013321616	0.137436660	0.042359313
2020-02-02T12:20:00	0.2498	5.035		0.634701172	0.791658665	0.013521021	0.139493878	0.042993368
2020-02-02T12:25:00	0.2465	5.044		0.623527537	0.775013638	0.013080924	0.134953478	0.041593973
2020-02-02T12:30:00	0.2455	5.057		0.620290348	0.770211002	0.012954830	0.133652590	0.041193026
2020-02-02T12:35:00	0.2452	5.066		0.619374004	0.768853135	0.012919251	0.133285534	0.041079896
2020-02-02T12:40:00	0.2452	5.080		0.619453125	0.768970351	0.012922321	0.133317207	0.041089658
2020-02-02T12:45:00	0.2448	5.090		0.617872624	0.766629874	0.012861067	0.132685262	0.040894886
2020-02-02T12:50:00	0.2460	5.097		0.621933480	0.772647619	0.013018753	0.134312080	0.041396287
2020-02-02T12:55:00	0.2462	5.105		0.622675714	0.773749033	0.013047682	0.134610535	0.041488274
2020-02-02T13:00:00	0.2454	5.115		0.620101401	0.769930957	0.012947489	0.133576862	0.041169686
2020-02-02T13:05:00	0.2458	5.122		0.621175726	0.771523655	0.012989254	0.134007738	0.041302486
2020-02-02T13:10:00	0.2443	5.122		0.616276035	0.764267709	0.012799343	0.132048461	0.040698618
2020-02-02T13:15:00	0.2438	5.123		0.614694123	0.761929374	0.012738337	0.131419074	0.040504635
2020-02-02T13:20:00	0.2439	5.123		0.615105624	0.762537439	0.012754192	0.131582646	0.040555049
2020-02-02T13:25:00	0.2442	5.121		0.615849282	0.763636687	0.012782870	0.131878518	0.040646240
2020-02-02T13:30:00	0.2451	5.119		0.618916871	0.768176006	0.012901521	0.133102618	0.041023520
2020-02-02T13:35:00	0.2454	5.114		0.619991553	0.769768161	0.012943223	0.133532846	0.041156120
2020-02-02T13:40:00	0.2447	5.109		0.617747327	0.766444419	0.012856218	0.132635230	0.040879466
2020-02-02T13:45:00	0.2444	5.105		0.616830328	0.765087546	0.012820755	0.132269362	0.040766702
2020-02-02T13:50:00	0.2436	5.101		0.613919430	0.760785013	0.012708516	0.131111418	0.040409812
2020-02-02T13:55:00	0.2446	5.097		0.617320750	0.765813130	0.012839714	0.132464967	0.040826989
2020-02-02T14:00:00	0.2442	5.095		0.616071488	0.763965234	0.012791446	0.131966991	0.040673508
2020-02-02T14:05:00	0.2431	5.094		0.612495023	0.758682227	0.012653779	0.130546710	0.040235764
2020-02-02T14:10:00	0.2417	5.093		0.607583350	0.751444422	0.012465970	0.128609116	0.039638579
2020-02-02T14:15:00	0.2408	5.092		0.604664860	0.747153345	0.012355060	0.127464881	0.039285914
2020-02-02T14:20:00	0.2404	5.090		0.603411136	0.745312178	0.012307573	0.126974958	0.039134915
2020-02-02T14:25:00	0.2382	5.088		0.596149336	0.734673676	0.012034365	0.124156321	0.038266184
2020-02-02T14:30:00	0.2380	5.086		0.595226734	0.733325225	0.011999879	0.123800545	0.038156530
2020-02-02T14:35:00	0.2367	5.082		0.590960149	0.727098533	0.011841063	0.122162069	0.037651536
2020-02-02T14:40:00	0.2350	5.078		0.585348385	0.718931776	0.011633827	0.120024049	0.036992578
2020-02-02T14:45:00	0.2346	5.073		0.584087781	0.717100833	0.011587532	0.119546432	0.036845371
2020-02-02T14:50:00	0.2354	5.070		0.586513163	0.720624713	0.011676687	0.120466226	0.037128861
2020-02-02T14:55:00	0.2362	5.065		0.589271584	0.724638419	0.011778509	0.121516709	0.037452630
2020-02-02T15:00:00	0.2354	5.061		0.586672879	0.720856938	0.011682570	0.120526923	0.037147568
2020-02-02T15:05:00	0.2370	5.055		0.592107581	0.728771613	0.011883668	0.122601610	0.037787007
2020-02-02T15:10:00	0.2369	5.047		0.591518417	0.727912411	0.011861782	0.122375821	0.037717416
2020-02-02T15:15:00	0.2362	5.040		0.589256080	0.724615841	0.011777936	0.121510792	0.037450806
2020-02-02T15:20:00	0.2340	5.032		0.581965053	0.714020699	0.011509789	0.118744376	0.036598170
2020-02-02T15:25:00	0.2348	5.024		0.584727040	0.718029150	0.011610997	0.119788513	0.036919983
2020-02-02T15:30:00	0.2357	5.016		0.587821708	0.722527952	0.011724933	0.120963974	0.037282271
2020-02-02T15:35:00	0.2361	5.009		0.588905863	0.724105904	0.011764983	0.121377164	0.037409621
2020-02-02T15:40:00	0.2345	5.002		0.583626067	0.716430556	0.011570600	0.119371742	0.036791530
2020-02-02T15:45:00	0.2340	4.994		0.582029478	0.714114127	0.011512145	0.118768679	0.036605660
2020-02-02T15:50:00	0.2341	4.987		0.582444798	0.714716495	0.011527336	0.118925403	0.036653964
2020-02-02T15:55:00	0.2343	4.981		0.582860069	0.715318934	0.011542536	0.119082214	0.036702295
2020-02-02T16:00:00	0.2340	4.974		0.581933979	0.713975638	0.011508653	0.118732656	0.036594558
2020-02-02T16:05:00	0.2340	4.968		0.581895498	0.713919836	0.011507247	0.118718142	0.036590084
2020-02-02T16:10:00	0.2344	4.962		0.583198356	0.715809799	0.011554925	0.119210034	0.036741690
2020-02-02T16:15:00	0.2328	4.956		0.577791392	0.707975520	0.011357714	0.117175441	0.036114609
2020-02-02T16:20:00	0.2333	4.950		0.579767035	0.710835262	0.011429572	0.117916783	0.036343098
2020-02-02T16:25:00	0.2351	4.944		0.585764186	0.719535988	0.011649118	0.120181801	0.037041198
2020-02-02T16:30:00	0.2338	4.938		0.581367654	0.713154532	0.011487959	0.118519152	0.036528754
2020-02-02T16:35:00	0.2335	4.931		0.580322673	0.711640132	0.011449823	0.118125711	0.036407491
2020-02-02T16:40:00	0.2330	4.924		0.578606027	0.709154311	0.011387316	0.117480836	0.036208735
2020-02-02T16:45:00	0.2338	4.918		0.581252189	0.712987155	0.011483742	0.118475646	0.036515345
2020-02-02T16:50:00	0.2324	4.911		0.576514109	0.706128376	0.011311380	0.116697424	0.035967279
2020-02-02T16:55:00	0.2320	4.905		0.575131656	0.704130664	0.011261340	0.116181172	0.035808165
2020-02-02T17:00:00	0.2315	4.898		0.573412466	0.701648561	0.011199270	0.115540800	0.035610797
2020-02-02T17:05:00	0.2329	4.892		0.578413432	0.708875573	0.011380314	0.117408598	0.036186470
2020-02-02T17:10:00	0.2310	4.886		0.571990197	0.699596991	0.011148051	0.115012392	0.035447936
2020-02-02T17:15:00	0.2319	4.880		0.574977428	0.703907896	0.011255765	0.116123650	0.035790437
2020-02-02T17:20:00	0.2306	4.874		0.570567351	0.697546263	0.011096932	0.114485005	0.035285390
2020-02-02T17:25:00	0.2308	4.869		0.571201649	0.698460261	0.011119706	0.114719959	0.035357805
2020-02-02T17:30:00	0.2320	4.864		0.575197805	0.704226218	0.011263732	0.116205847	0.035815771
2020-02-02T17:35:00	0.2308	4.859		0.571124449	0.698349001	0.011116933	0.114691350	0.035348988
2020-02-02T17:40:00	0.2299	4.852		0.568056660	0.693931723	0.011007022	0.113557413	0.034999498
2020-02-02T17:45:00	0.2300	4.847		0.568354736	0.694360578	0.011017677	0.113667338	0.035033378
2020-02-02T17:50:00	0.2311	4.841		0.572354142	0.700121808	0.011161146	0.115147489	0.035489574
2020-02-02T17:55:00	0.2316	4.835		0.573996715	0.702491804	0.011220344	0.115758221	0.035677808
2020-02-02T18:00:00	0.2308	4.829		0.571267873	0.698555706	0.011122085	0.114744503	0.035365370
2020-02-02T18:05:00	0.2323	4.823		0.576271898	0.705778256	0.011302605	0.116606890	0.035939376
2020-02-02T18:10:00	0.2334	4.816		0.579926715	0.711066541	0.011435390	0.117976806	0.036361597
2020-02-02T18:15:00	0.2326	4.810		0.577202488	0.707123707	0.011336339	0.116954923	0.036046643
2020-02-02T18:20:00	0.2335	4.805		0.580185283	0.711441091	0.011444814	0.118074033	0.036391564
2020-02-02T18:25:00	0.2349	4.799		0.584841518	0.718195427	0.011615201	0.119831891	0.036933352
2020-02-02T18:30:00	0.2349	4.794		0.585138170	0.718626362	0.011626100	0.119944336	0.036968009
2020-02-02T18:35:00	0.2352	4.789		0.586104850	0.720031125	0.011661653	0.120311126	0.037081058
2020-02-02T18:40:00	0.2372	4.784		0.592760005	0.729723408	0.011907927	0.122851893	0.037864146
2020-02-02T18:45:00	0.2383	4.780		0.596397749	0.735036872	0.012043658	0.124252204	0.038295736
2020-02-02T18:50:00	0.2391	4.775		0.599030585	0.738889415	0.012142387	0.125270772	0.038609669
2020-02-02T18:55:00	0.2398	4.771		0.601327926	0.742255773	0.012228874	0.126163040	0.038884674
2020-02-02T19:00:00	0.2397	4.766		0.600956084	0.741710603	0.012214854	0.126018399	0.038840094
2020-02-02T19:05:00	0.2386	4.757		0.597246405	0.736278050	0.012075437	0.124580058	0.038396784
2020-02-02T19:10:00	0.2392	4.749		0.599211169	0.739153869	0.012149174	0.125340792	0.038631249
2020-02-02T19:15:00	0.2394	4.745		0.600174000	0.740564341	0.012185393	0.125714458	0.038746417
2020-02-02T19:20:00	0.2403	4.741		0.603137425	0.744910393	0.012297218	0.126868128	0.039101989
2020-02-02T19:25:00	0.2412	4.738		0.606098373	0.749260157	0.012409474	0.128026251	0.039458934
2020-02-02T19:30:00	0.2420	4.737		0.608724008	0.753123482	0.012509457	0.129057760	0.039776855
2020-02-02T19:35:00	0.2425	4.744		0.610349729	0.755518446	0.012571571	0.129698580	0.039974362
2020-02-02T19:40:00	0.2435	4.757		0.613637079	0.760368056	0.012697656	0.130999379	0.040375281
2020-02-02T19:45:00	0.2434	4.769		0.613266525	0.759820948	0.012683411	0.130852417	0.040329986
2020-02-02T19:50:00	0.2433	4.780		0.612895933	0.759273899	0.012669173	0.130705524	0.040284712
2020-02-02T19:55:00	0.2432	4.785		0.612525302	0.758726908	0.012654942	0.130558701	0.040239460
2020-02-02T20:00:00	0.2422	4.784		0.609493352	0.754256580	0.012538831	0.129360813	0.039870259
2020-02-02T20:05:00	0.2449	4.778		0.618429113	0.767453708	0.012882618	0.132907590	0.040963410
2020-02-02T20:10:00	0.2449	4.784		0.618391026	0.767397315	0.012881142	0.132892368	0.040958718
2020-02-02T20:15:00	0.2457	4.787		0.621007602	0.771274346	0.012982713	0.133940261	0.041281689
2020-02-02T20:20:00	0.2451	4.789		0.618978710	0.768267595	0.012903919	0.133127355	0.041031144
2020-02-02T20:25:00	0.2448	4.794		0.617944785	0.766736687	0.012863861	0.132714081	0.040903769
2020-02-02T20:30:00	0.2440	4.800		0.615249717	0.762750395	0.012759746	0.131639948	0.040572710
2020-02-02T20:35:00	0.2435	4.805		0.613549960	0.760239418	0.012694306	0.130964820	0.040364629
2020-02-02T20:40:00	0.2451	4.805		0.619158281	0.768533574	0.012910883	0.133199199	0.041053287
2020-02-02T20:45:00	0.2459	4.806		0.621774294	0.772411462	0.013012553	0.134248115	0.041376573
2020-02-02T20:50:00	0.2458	4.813		0.621404587	0.771863069	0.012998160	0.134099619	0.041330805
2020-02-02T20:55:00	0.2448	4.821		0.618048228	0.766889813	0.012867866	0.132755399	0.040916503
2020-02-02T21:00:00	0.2468	4.833		0.624643730	0.776671653	0.013124548	0.135403541	0.041732686
2020-02-02T21:05:00	0.2480	4.850		0.628579997	0.782527057	0.013278990	0.136996891	0.042223772
2020-02-02T21:10:00	0.2445	4.862		0.616937829	0.765246577	0.012824909	0.132312226	0.040779913
2020-02-02T21:15:00	0.2438	4.866		0.614574323	0.761752374	0.012733723	0.131371473	0.040489964
2020-02-02T21:20:00	0.2415	4.868		0.606884770	0.750416645	0.012439376	0.128334748	0.039554016
2020-02-02T21:25:00	0.2412	4.869		0.606180431	0.749380809	0.012412592	0.128058424	0.039468850
2020-02-02T21:30:00	0.2414	4.865		0.606808348	0.750304236	0.012436468	0.128304752	0.039544771
2020-02-02T21:35:00	0.2422	4.860		0.609433459	0.754168351	0.012536543	0.129337207	0.039862983
2020-02-02T21:40:00	0.2421	4.856		0.609062466	0.753621905	0.012522375	0.129191037	0.039817932
2020-02-02T21:45:00	0.2424	4.855		0.610022625	0.755036387	0.012559060	0.129569512	0.039934582
2020-02-02T21:50:00	0.2425	4.857		0.610317171	0.755470461	0.012570325	0.129685730	0.039970402
2020-02-02T21:55:00	0.2416	4.864		0.607283334	0.751002978	0.012454545	0.128491248	0.039602250
2020-02-02T22:00:00	0.2417	4.867		0.607578108	0.751436709	0.012465770	0.128607056	0.039637944
2020-02-02T22:05:00	0.2401	4.868		0.602441480	0.743889085	0.012270909	0.126596707	0.039018335
2020-02-02T22:10:00	0.2402	4.874		0.602636279	0.744174913	0.012278270	0.126672649	0.039041741
2020-02-02T22:15:00	0.2415	4.876		0.607162755	0.750825578	0.012449955	0.128443891	0.039587655
2020-02-02T22:20:00	0.2404	4.881		0.603359220	0.745235965	0.012305608	0.126954691	0.039128669
2020-02-02T22:25:00	0.2404	4.883		0.603220609	0.745032494	0.012300364	0.126900590	0.039111994
2020-02-02T22:30:00	0.2399	4.884		0.601748194	0.742872082	0.012244730	0.126326621	0.038935091
2020-02-02T22:35:00	0.2399	4.881		0.601609521	0.742668706	0.012239497	0.126272633	0.038918452
2020-02-02T22:40:00	0.2400	4.880		0.602137856	0.743443640	0.012259440	0.126478387	0.038981867
2020-02-02T22:45:00	0.2410	4.878		0.605332518	0.748134378	0.012380388	0.127726181	0.039366449
2020-02-02T22:50:00	0.2413	4.879		0.606526488	0.749889685	0.012425748	0.128194150	0.039510682
2020-02-02T22:55:00	0.2410	4.877		0.605388632	0.748216847	0.012382518	0.127748155	0.039373222
2020-02-02T23:00:00	0.2407	4.873		0.604250411	0.746544557	0.012339352	0.127302817	0.039235965
2020-02-02T23:05:00	0.2417	4.870		0.607776131	0.751728121	0.012473314	0.128684884	0.039661931
2020-02-02T23:10:00	0.2417	4.868		0.607637693	0.751524392	0.012468040	0.128630472	0.039645161
2020-02-02T23:15:00	0.2413	4.870		0.606500194	0.749851017	0.012424748	0.128183835	0.039507503
2020-02-02T23:20:00	0.2426	4.873		0.610689087	0.756018659	0.012584557	0.129832554	0.040015654
2020-02-02T23:25:00	0.2435	4.874		0.613543672	0.760230134	0.012694065	0.130962326	0.040363861
2020-02-02T23:30:00	0.2446	4.879		0.617392245	0.765918923	0.012842480	0.132493496	0.040835782
2020-02-02T23:35:00	0.2448	4.888		0.617918237	0.766697390	0.012862833	0.132703478	0.040900501
2020-02-02T23:40:00	0.2469	4.895		0.625076938	0.777315430	0.013141499	0.135578425	0.041786587
2020-02-02T23:45:00	0.2454	4.902		0.619965547	0.769729621	0.012942213	0.133522426	0.041152908
2020-02-02T23:50:00	0.2463	4.906		0.622812705	0.773952365	0.013053025	0.134665657	0.041505263
2020-02-02T23:55:00	0.2473	4.912		0.626320086	0.779163719	0.013190206	0.136080927	0.041941463
2020-02-03T00:00:00	0.2466	4.918		0.623863013	0.775511851	0.013094027	0.135088665	0.041635639
2020-02-03T00:05:00	0.2463	4.929		0.623062225	0.774322766	0.013062760	0.134766088	0.041536217
2020-02-03T00:10:00	0.2457	4.937		0.620934639	0.771166157	0.012979876	0.133910984	0.041272666
2020-02-03T00:15:00	0.2470	4.942		0.625437897	0.777851964	0.013155632	0.135724232	0.041831526
2020-02-03T00:20:00	0.2481	4.945		0.628942703	0.783067260	0.013293268	0.137144196	0.042269173
2020-02-03T00:25:00	0.2479	4.947		0.628143052	0.781876433	0.013261800	0.136819545	0.042169113
2020-02-03T00:30:00	0.2470	4.950		0.625355944	0.777730139	0.013152423	0.135691121	0.041821321
2020-02-03T00:35:00	0.2465	4.952		0.623561214	0.775063647	0.013082239	0.134967046	0.041598154
2020-02-03T00:40:00	0.2471	4.949		0.625743028	0.778305598	0.013167585	0.135847551	0.041869534
2020-02-03T00:45:00	0.2473	4.949		0.626267790	0.779085941	0.013188156	0.136059769	0.041934942
2020-02-03T00:50:00	0.2492	4.948		0.632417973	0.788248865	0.013430478	0.138559764	0.042705465
2020-02-03T00:55:00	0.2500	4.950		0.635255233	0.792486783	0.013543040	0.139721050	0.043063385
2020-02-03T01:00:00	0.2511	4.955		0.638750445	0.797716845	0.013682377	0.141158560	0.043506439
2020-02-03T01:05:00	0.2503	4.958		0.636301895	0.794051869	0.013584688	0.140150718	0.043195813
2020-02-03T01:10:00	0.2521	4.961		0.642105149	0.802746412	0.013816810	0.142545481	0.043933902
2020-02-03T01:15:00	0.2529	4.962		0.644934764	0.806996170	0.013930733	0.143720806	0.044296148
2020-02-03T01:20:00	0.2529	4.963		0.644797759	0.806790247	0.013925206	0.143663783	0.044278573
2020-02-03T01:25:00	0.2522	4.964		0.642353329	0.803118877	0.013826782	0.142648365	0.043965612
2020-02-03T01:30:00	0.2503	4.963		0.636275820	0.794012867	0.013583649	0.140140006	0.043192511
2020-02-03T01:35:00	0.2509	4.962		0.638119787	0.796772394	0.013657181	0.140898617	0.043426322
2020-02-03T01:40:00	0.2518	4.959		0.641282392	0.801512002	0.013783776	0.142204679	0.043828863
2020-02-03T01:45:00	0.2526	4.955		0.643783063	0.805265626	0.013884306	0.143241822	0.044148521
2020-02-03T01:50:00	0.2506	4.953		0.637047587	0.795167478	0.013614400	0.140457253	0.043290290
2020-02-03T01:55:00	0.2509	4.949		0.638230987	0.796938898	0.013661622	0.140944433	0.043440443
2020-02-03T02:00:00	0.2528	4.946		0.644360695	0.806133434	0.013907581	0.143481951	0.044222531
2020-02-03T02:05:00	0.2525	4.944		0.643564476	0.804937305	0.013875503	0.143151008	0.044120531
2020-02-03T02:10:00	0.2525	4.941		0.643427419	0.804731463	0.013869985	0.143094081	0.044102985
2020-02-03T02:15:00	0.2503	4.939		0.636361002	0.794140280	0.013587042	0.140175003	0.043203297
2020-02-03T02:20:00	0.2493	4.935		0.632919140	0.788996944	0.013450325	0.138764525	0.042768574
2020-02-03T02:25:00	0.2496	4.929		0.633773392	0.790272557	0.013484190	0.139113907	0.042876257
2020-02-03T02:30:00	0.2479	4.921		0.628343422	0.782174770	0.013269681	0.136900856	0.042194173
2020-02-03T02:35:00	0.2485	4.914		0.630191477	0.784927998	0.013342488	0.137651986	0.042425679
2020-02-03T02:40:00	0.2494	4.908		0.633361081	0.789656795	0.013467840	0.138945218	0.042824266
2020-02-03T02:45:00	0.2497	4.904		0.634215227	0.790932570	0.013501724	0.139294793	0.042932008
2020-02-03T02:50:00	0.2481	4.900		0.628785928	0.782833751	0.013287096	0.137080516	0.042249546
2020-02-03T02:55:00	0.2479	4.897		0.628317289	0.782135858	0.013268653	0.136890250	0.042190904
2020-02-03T03:00:00	0.2465	4.891		0.623542029	0.775035158	0.013081490	0.134959317	0.041595772
2020-02-03T03:05:00	0.2464	4.882		0.623404203	0.774830500	0.013076108	0.134903796	0.041578660
2020-02-03T03:10:00	0.2474	4.875		0.626579827	0.779550062	0.013200395	0.136186041	0.041973860
2020-02-03T03:15:00	0.2484	4.871		0.630083513	0.784767074	0.013338229	0.137608046	0.042412136
2020-02-03T03:20:00	0.2505	4.869		0.636887688	0.794928219	0.013608026	0.140391494	0.043270022
2020-02-03T03:25:00	0.2552	4.868		0.652238799	0.817997505	0.014227056	0.146777914	0.045238379
2020-02-03T03:30:00	0.2577	4.730		0.660641952	0.830710643	0.014572001	0.150336644	0.046335214
2020-02-03T03:35:00	0.2588	4.686		0.664112643	0.835979079	0.014715732	0.151819499	0.046792244
2020-02-03T03:40:00	0.2559	4.675		0.654787222	0.821846643	0.014331211	0.147852462	0.045569565
2020-02-03T03:45:00	0.2554	4.670		0.653007149	0.819157437	0.014258417	0.147101459	0.045338098
2020-02-03T03:50:00	0.2552	4.660		0.652212839	0.817958324	0.014225997	0.146766989	0.045235011
2020-02-03T03:55:00	0.2553	4.631		0.652733747	0.818744640	0.014247254	0.146986289	0.045302602
2020-02-03T04:00:00	0.2586	4.612		0.663431194	0.834943840	0.014687453	0.151527748	0.046702324
2020-02-03T04:05:00	0.2584	4.597		0.662737882	0.833890987	0.014658711	0.151231220	0.046610931
2020-02-03T04:10:00	0.2579	4.582		0.661388493	0.831843007	0.014602855	0.150654961	0.046433322
2020-02-03T04:15:00	0.2572	4.571		0.659054096	0.828303749	0.014506489	0.149660772	0.046126903
2020-02-03T04:20:00	0.2565	4.563		0.656718190	0.824766871	0.014410395	0.148669387	0.045821349
2020-02-03T04:25:00	0.2554	4.560		0.653065983	0.819246275	0.014260820	0.147126249	0.045345739
2020-02-03T04:30:00	0.2541	4.558		0.648751833	0.812739767	0.014085185	0.145314255	0.044787265
2020-02-03T04:35:00	0.2527	4.560		0.644102949	0.805746172	0.013897193	0.143374777	0.044189499
2020-02-03T04:40:00	0.2516	4.564		0.640437923	0.800245615	0.013749914	0.141855325	0.043721189
2020-02-03T04:45:00	0.2508	4.566		0.637759768	0.796233392	0.013642808	0.140750337	0.043380621
2020-02-03T04:50:00	0.2518	4.565		0.641021996	0.801121441	0.013773330	0.142096906	0.043795646
2020-02-03T04:55:00	0.2514	4.563		0.639994424	0.799580776	0.013732147	0.141672030	0.043664695
2020-02-03T05:00:00	0.2530	4.563		0.645232007	0.807442992	0.013942729	0.143844563	0.044334291
2020-02-03T05:05:00	0.2518	4.563		0.641238309	0.801445879	0.013782007	0.142186431	0.043823239
2020-02-03T05:10:00	0.2534	4.563		0.646474082	0.809310911	0.013992912	0.144362298	0.044493862
2020-02-03T05:15:00	0.2535	4.563		0.646765640	0.809749567	0.014004706	0.144483969	0.044531362
2020-02-03T05:20:00	0.2533	4.565		0.646069121	0.808701758	0.013976540	0.144193391	0.044441803
2020-02-03T05:25:00	0.2535	4.569		0.646690067	0.809635859	0.014001648	0.144452426	0.044521641
2020-02-03T05:30:00	0.2544	4.573		0.649615150	0.814040534	0.014120241	0.145675921	0.044898734
2020-02-03T05:35:00	0.2506	4.578		0.637050728	0.795172179	0.013614525	0.140458545	0.043290688
2020-02-03T05:40:00	0.2508	4.584		0.638003387	0.796598114	0.013652533	0.140850667	0.043411544
2020-02-03T05:45:00	0.2538	4.586		0.647856090	0.811390816	0.014048860	0.144939501	0.044671762
2020-02-03T05:50:00	0.2552	4.589		0.652424682	0.818278076	0.014234640	0.146856154	0.045262493
2020-02-03T05:55:00	0.2527	4.592		0.644157075	0.805827492	0.013899374	0.143397280	0.044196434
2020-02-03T06:00:00	0.2572	4.595		0.658919708	0.828100140	0.014500951	0.149603643	0.046109296
2020-02-03T06:05:00	0.2571	4.597		0.658553804	0.827545847	0.014485880	0.149448153	0.046061372
2020-02-03T06:10:00	0.2604	4.594		0.669332622	0.843922341	0.014933300	0.154064102	0.047484053
2020-02-03T06:15:00	0.2593	4.590		0.665693125	0.838381638	0.014781430	0.152497287	0.047001145
2020-02-03T06:20:00	0.2598	4.586		0.667293244	0.840816230	0.014848100	0.153185109	0.047213138
2020-02-03T06:25:00	0.2645	4.580		0.682940403	0.864739455	0.015508357	0.159996859	0.049312586
2020-02-03T06:30:00	0.2585	4.568		0.663286275	0.834723734	0.014681443	0.151465741	0.046683212
2020-02-03T06:35:00	0.2586	4.565		0.663576479	0.835164520	0.014693480	0.151589925	0.046721487
2020-02-03T06:40:00	0.2614	4.563		0.672705870	0.849067867	0.015074787	0.155523801	0.047933946
2020-02-03T06:45:00	0.2617	4.563		0.673649172	0.850508521	0.015114478	0.155933287	0.048060154
2020-02-03T06:50:00	0.2616	4.560		0.673284752	0.849951871	0.015099138	0.155775026	0.048011376
2020-02-03T06:55:00	0.2594	4.559		0.666047622	0.838920818	0.014796187	0.152649530	0.047048068
2020-02-03T07:00:00	0.2594	4.557		0.666010037	0.838863647	0.014794622	0.152633385	0.047043092
2020-02-03T07:05:00	0.2589	4.555		0.664661866	0.836813735	0.014738545	0.152054853	0.046864783
2020-02-03T07:10:00	0.2576	4.553		0.660361545	0.830285442	0.014560420	0.150217173	0.046298392
2020-02-03T07:15:00	0.2573	4.553		0.659339473	0.828736168	0.014518252	0.149782126	0.046164306
2020-02-03T07:20:00	0.2580	4.554		0.661598425	0.832161519	0.014611537	0.150744537	0.046460930
2020-02-03T07:25:00	0.2566	4.555		0.656966073	0.825141977	0.014420576	0.148774428	0.045853723
2020-02-03T07:30:00	0.2583	4.561		0.662506996	0.833540459	0.014649146	0.151132538	0.046580516
2020-02-03T07:35:00	0.2599	4.572		0.667712040	0.841453794	0.014865575	0.153365399	0.047268706
2020-02-03T07:40:00	0.2635	4.581		0.679442997	0.859373917	0.015359468	0.158460795	0.048839156
2020-02-03T07:45:00	0.2661	4.588		0.687881552	0.872337902	0.015719998	0.162180324	0.049985551
2020-02-03T07:50:00	0.2656	4.590		0.686541457	0.870275034	0.015662449	0.161586602	0.049802560
2020-02-03T07:55:00	0.2675	4.595		0.692688006	0.879749468	0.015927322	0.164319247	0.050644788
2020-02-03T08:00:00	0.2671	4.602		0.691349670	0.877683742	0.015869450	0.163722188	0.050460768
2020-02-03T08:05:00	0.2673	4.613		0.691962921	0.878630105	0.015895954	0.163995629	0.050545046
2020-02-03T08:10:00	0.2670	4.619		0.690949684	0.877066664	0.015852175	0.163543968	0.050405839
2020-02-03T08:15:00	0.2678	4.627		0.693514252	0.881025556	0.015963106	0.164688426	0.050758572
2020-02-03T08:20:00	0.2698	4.634		0.699973691	0.891022174	0.016244324	0.167589692	0.051652771
2020-02-03T08:25:00	0.2692	4.640		0.697988618	0.887946226	0.016157625	0.166695242	0.051377093
2020-02-03T08:30:00	0.2689	4.646		0.696977045	0.886380069	0.016113539	0.166240414	0.051236910
2020-02-03T08:35:00	0.2696	4.651		0.699537403	0.890345835	0.016225248	0.167392889	0.051592114
2020-02-03T08:40:00	0.2689	4.653		0.697227316	0.886767465	0.016124441	0.166352881	0.051271573
2020-02-03T08:45:00	0.2715	4.656		0.705625057	0.899797930	0.016492492	0.170150005	0.052441884
2020-02-03T08:50:00	0.2709	4.659		0.703643034	0.896716972	0.016405229	0.169249722	0.052164408
2020-02-03T08:55:00	0.2697	4.653		0.699713020	0.890618058	0.016232925	0.167472092	0.051616525
2020-02-03T09:00:00	0.2703	4.652		0.701622721	0.893580012	0.016316532	0.168334650	0.051882374
2020-02-03T09:05:00	0.2706	4.672		0.702558594	0.895032711	0.016357587	0.168758214	0.052012921
2020-02-03T09:10:00	0.2709	4.692		0.703494230	0.896485801	0.016398687	0.169182233	0.052143607
2020-02-03T09:15:00	0.2693	4.712		0.698590169	0.888877992	0.016183872	0.166966027	0.051460551
2020-02-03T09:20:00	0.2691	4.744		0.697903510	0.887814423	0.016153914	0.166656950	0.051365291
2020-02-03T09:25:00	0.2700	4.776		0.700787714	0.892284523	0.016279947	0.167957213	0.051766044
2020-02-03T09:30:00	0.2716	4.804		0.705938525	0.900285513	0.016506316	0.170292621	0.052485840
2020-02-03T09:35:00	0.2703	4.815		0.701686580	0.893679112	0.016319331	0.168363534	0.051891276
2020-02-03T09:40:00	0.2705	4.823		0.702298107	0.894628295	0.016346155	0.168640264	0.051976567
2020-02-03T09:45:00	0.2705	4.833		0.702260892	0.894570524	0.016344522	0.168623417	0.051971375
2020-02-03T09:50:00	0.2727	4.842		0.709352500	0.905601316	0.016657267	0.171849956	0.052965826
2020-02-03T09:55:00	0.2724	4.860		0.708344047	0.904030027	0.016612602	0.171389153	0.052823802
2020-02-03T10:00:00	0.2714	4.891		0.705391398	0.899434541	0.016482192	0.170043739	0.052409132
2020-02-03T10:05:00	0.2727	4.917		0.709415712	0.905699836	0.016660069	0.171878862	0.052974735
2020-02-03T10:10:00	0.2725	4.934		0.708905735	0.904905093	0.016637472	0.171645730	0.052902881
2020-02-03T10:15:00	0.2720	4.961		0.707100227	0.902093226	0.016557600	0.170821705	0.052648908
2020-02-03T10:20:00	0.2742	4.987		0.714356948	0.913411954	0.016879860	0.174146407	0.053673614
2020-02-03T10:25:00	0.2761	4.998		0.720308608	0.922729403	0.017146628	0.176898605	0.054521868
2020-02-03T10:30:00	0.2756	4.999		0.718831574	0.920414188	0.017080217	0.176213447	0.054310696
2020-02-03T10:35:00	0.2812	5.015		0.737006241	0.949035508	0.017906961	0.184742812	0.056939529
2020-02-03T10:40:00	0.2807	5.029		0.735214372	0.946200804	0.017824524	0.183892331	0.056677402
2020-02-03T10:45:00	0.2817	5.037		0.738564143	0.951502378	0.017978799	0.185483950	0.057167955
2020-02-03T10:50:00	0.2808	5.047		0.735487445	0.946632618	0.017837074	0.184021805	0.056717307
2020-02-03T10:55:00	0.2788	5.075		0.729189656	0.936690502	0.017548840	0.181048151	0.055800799
2020-02-03T11:00:00	0.2790	5.113		0.729648385	0.937413506	0.017569751	0.181263879	0.055867288
2020-02-03T11:05:00	0.2797	5.153		0.732038045	0.941182846	0.017678893	0.182389885	0.056214334
2020-02-03T11:10:00	0.2820	5.184		0.739567287	0.953091945	0.018025137	0.185962013	0.057315299
2020-02-03T11:15:00	0.2833	5.216		0.743554721	0.959419132	0.018209959	0.187868792	0.057902986
2020-02-03T11:20:00	0.2830	5.240		0.742728599	0.958107106	0.018171585	0.187472889	0.057780965
2020-02-03T11:25:00	0.2811	5.266		0.736443044	0.948144236	0.017881028	0.184475274	0.056857071
2020-02-03T11:30:00	0.2842	5.296		0.746528295	0.964146673	0.018348445	0.189297524	0.058343335
2020-02-03T11:35:00	0.2843	5.318		0.746664421	0.964363280	0.018354798	0.189363069	0.058363537
2020-02-03T11:40:00	0.2844	5.342		0.747121006	0.965089928	0.018376116	0.189583001	0.058431322
2020-02-03T11:45:00	0.2841	5.371		0.746295672	0.963776555	0.018337591	0.189185545	0.058308822
2020-02-03T11:50:00	0.2850	5.404		0.748995002	0.968074293	0.018463751	0.190487119	0.058709980
2020-02-03T11:55:00	0.2846	5.435		0.747849706	0.966250025	0.018410166	0.189934292	0.058539593
2020-02-03T12:00:00	0.2852	5.465		0.749587323	0.969018218	0.018491497	0.190773366	0.058798204
2020-02-03T12:05:00	0.2849	5.501		0.748762532	0.967703912	0.018452868	0.190374837	0.058675374
2020-02-03T12:10:00	0.2872	5.533		0.756258206	0.979670389	0.018805520	0.194013087	0.059796718
2020-02-03T12:15:00	0.2870	5.563		0.755434880	0.978353559	0.018766610	0.193611655	0.059672992
2020-02-03T12:20:00	0.2870	5.601		0.755570683	0.978570721	0.018773025	0.193677838	0.059693391
2020-02-03T12:25:00	0.2865	5.638		0.753787687	0.975720834	0.018688893	0.192809865	0.059425873
2020-02-03T12:30:00	0.2858	5.659		0.751683797	0.972361659	0.018589880	0.191788368	0.059111038
2020-02-03T12:35:00	0.2867	5.678		0.754379252	0.976666061	0.018716784	0.193097610	0.059514559
2020-02-03T12:40:00	0.2868	5.704		0.754834898	0.977394323	0.018738282	0.193319400	0.059582917
2020-02-03T12:45:00	0.2890	5.724		0.761999307	0.988869430	0.019078050	0.196824722	0.060663291
2020-02-03T12:50:00	0.2896	5.741		0.763730392	0.991648908	0.019160638	0.197676768	0.060925900
2020-02-03T12:55:00	0.2875	5.743		0.757160409	0.981114065	0.018848208	0.194453491	0.059932455
2020-02-03T13:00:00	0.2894	5.742		0.763044234	0.990546875	0.019127879	0.197338802	0.060821735
2020-02-03T13:05:00	0.2885	5.744		0.760306921	0.986154659	0.018997493	0.195993637	0.060407142
2020-02-03T13:10:00	0.2885	5.743		0.760123220	0.985860136	0.018988760	0.195903540	0.060379374
2020-02-03T13:15:00	0.2888	5.741		0.761216724	0.987613765	0.019040777	0.196440182	0.060544772
2020-02-03T13:20:00	0.2894	5.740		0.763267257	0.990905025	0.019138523	0.197448618	0.060855582
2020-02-03T13:25:00	0.2904	5.744		0.766273260	0.995736635	0.019282303	0.198931968	0.061312764
2020-02-03T13:30:00	0.2929	5.753		0.774370517	1.008791506	0.019672487	0.202957421	0.062553448
2020-02-03T13:35:00	0.2942	5.761		0.778321244	1.015182307	0.019864392	0.204937268	0.063163656
2020-02-03T13:40:00	0.2932	5.774		0.775276936	1.010256523	0.019716427	0.203410742	0.062693166
2020-02-03T13:45:00	0.2921	5.783		0.771593487	1.004307638	0.019538195	0.201571957	0.062126435
2020-02-03T13:50:00	0.2936	5.790		0.776501111	1.012236282	0.019775855	0.204023847	0.062882131
2020-02-03T13:55:00	0.2941	5.790		0.778225566	1.015027371	0.019859732	0.204889197	0.063148841
2020-02-03T14:00:00	0.2964	5.791		0.785345798	1.026579836	0.020208092	0.208483165	0.064256536
2020-02-03T14:05:00	0.2973	5.788		0.788334333	1.031442198	0.020355284	0.210001712	0.064724567
2020-02-03T14:10:00	0.2975	5.786		0.788785905	1.032177605	0.020377575	0.210231685	0.064795447
2020-02-03T14:15:00	0.2981	5.779		0.790821570	1.035495046	0.020478226	0.211270086	0.065115492
2020-02-03T14:20:00	0.2976	5.775		0.789055121	1.032616123	0.020390871	0.210368855	0.064837724
2020-02-03T14:25:00	0.2989	5.772		0.793307184	1.039550791	0.020601489	0.212541765	0.065507436
2020-02-03T14:30:00	0.2990	5.771		0.793758167	1.040287249	0.020623897	0.212772939	0.065578686
2020-02-03T14:35:00	0.3021	5.768		0.803376066	1.056036821	0.021104916	0.217735528	0.067108204
2020-02-03T14:40:00	0.3030	5.765		0.806350525	1.060924430	0.021254897	0.219282855	0.067585106
2020-02-03T14:45:00	0.3027	5.763		0.805222439	1.059069829	0.021197948	0.218695319	0.067404021
2020-02-03T14:50:00	0.3053	5.758		0.813552289	1.072791358	0.021620425	0.223053937	0.068747390
2020-02-03T14:55:00	0.3070	5.752		0.818720764	1.081336748	0.021884845	0.225781911	0.069588178
2020-02-03T15:00:00	0.3096	5.745		0.827021487	1.095111514	0.022313182	0.230200989	0.070950181
2020-02-03T15:05:00	0.3116	5.738		0.833425257	1.105781077	0.022646733	0.233642173	0.072010787
2020-02-03T15:10:00	0.3123	5.730		0.835437419	1.109141314	0.022752099	0.234729213	0.072345823
2020-02-03T15:15:00	0.3117	5.722		0.833691363	1.106225253	0.022660653	0.233785775	0.072055046
2020-02-03T15:20:00	0.3127	5.713		0.836642535	1.111155578	0.022815333	0.235381582	0.072546889
2020-02-03T15:25:00	0.3111	5.704		0.831764235	1.103010005	0.022559956	0.232746911	0.071734858
2020-02-03T15:30:00	0.3129	5.695		0.837534351	1.112647034	0.022862189	0.235864988	0.072695880
2020-02-03T15:35:00	0.3163	5.685		0.847980230	1.130170532	0.023414943	0.241567651	0.074453496
2020-02-03T15:40:00	0.3125	5.676		0.836235270	1.110474715	0.022793952	0.235161005	0.072478905
2020-02-03T15:45:00	0.3146	5.667		0.842623860	1.121172509	0.023130601	0.238634146	0.073549362
2020-02-03T15:50:00	0.3174	5.657		0.851497333	1.136093079	0.023602685	0.243504554	0.075050468
2020-02-03T15:55:00	0.3144	5.648		0.841951697	1.120045211	0.023095054	0.238267413	0.073436331
2020-02-03T16:00:00	0.3133	5.634		0.838644633	1.114504863	0.022920597	0.236467573	0.072881603
2020-02-03T16:05:00	0.3138	5.619		0.840230458	1.117160362	0.023004163	0.237329711	0.073147322
2020-02-03T16:10:00	0.3167	5.607		0.849310700	1.132409616	0.023485866	0.242299355	0.074679014
2020-02-03T16:15:00	0.3199	5.592		0.859303567	1.149278674	0.024022327	0.247833915	0.076384819
2020-02-03T16:20:00	0.3205	5.579		0.861192083	1.152476981	0.024124459	0.248887599	0.076709575
2020-02-03T16:25:00	0.3223	5.564		0.866808702	1.162008391	0.024429622	0.252035907	0.077679914
2020-02-03T16:30:00	0.3233	5.550		0.869935235	1.167326690	0.024600410	0.253797891	0.078222975
2020-02-03T16:35:00	0.3258	5.537		0.877398448	1.180058172	0.025010745	0.258031248	0.079527737
2020-02-03T16:40:00	0.3257	5.519		0.877110351	1.179565754	0.024994836	0.257867113	0.079477149
2020-02-03T16:45:00	0.3282	5.501		0.884869223	1.192854036	0.025425256	0.262307682	0.080845775
2020-02-03T16:50:00	0.3285	5.485		0.885818307	1.194483310	0.025478185	0.262853743	0.081014076
2020-02-03T16:55:00	0.3311	5.469		0.893868657	1.208336746	0.025929597	0.267510870	0.082449448
2020-02-03T17:00:00	0.3324	5.452		0.897898510	1.215294087	0.026157216	0.269859181	0.083173220
2020-02-03T17:05:00	0.3334	5.435		0.901000598	1.220659965	0.026333185	0.271674618	0.083732756
2020-02-03T17:10:00	0.3328	5.421		0.899174137	1.217499538	0.026229498	0.270604899	0.083403058
2020-02-03T17:15:00	0.3349	5.402		0.905659976	1.228736403	0.026598725	0.274414141	0.084577103
2020-02-03T17:20:00	0.3359	5.385		0.908756041	1.234114217	0.026775990	0.276242953	0.085140761
2020-02-03T17:25:00	0.3373	5.368		0.913077916	1.241636189	0.027024535	0.278807146	0.085931070
2020-02-03T17:30:00	0.3384	5.353		0.916475010	1.247560870	0.027220795	0.280831924	0.086555126
2020-02-03T17:35:00	0.3401	5.340		0.921707721	1.256708055	0.027524653	0.283966774	0.087521318
2020-02-03T17:40:00	0.3389	5.325		0.918051363	1.250313762	0.027312134	0.281774255	0.086845562
2020-02-03T17:45:00	0.3401	5.312		0.921444253	1.256246881	0.027509309	0.283808470	0.087472527
2020-02-03T17:50:00	0.3394	5.299		0.919320582	1.252531975	0.027385801	0.282534263	0.087079804
2020-02-03T17:55:00	0.3402	5.288		0.921793492	1.256858204	0.027529650	0.284018320	0.087537205
2020-02-03T18:00:00	0.3407	5.280		0.923346327	1.259577734	0.027620192	0.284952434	0.087825108
2020-02-03T18:05:00	0.3415	5.271		0.925816766	1.263908949	0.027764581	0.286442064	0.088284226
2020-02-03T18:10:00	0.3422	5.263		0.927979834	1.267705974	0.027891350	0.287749918	0.088687319
2020-02-03T18:15:00	0.3432	5.254		0.931058752	1.273118242	0.028072350	0.289617263	0.089262853
2020-02-03T18:20:00	0.3439	5.245		0.933219014	1.276920964	0.028199736	0.290931479	0.089667907
2020-02-03T18:25:00	0.3443	5.235		0.934462093	1.279111149	0.028273184	0.291689227	0.089901452
2020-02-03T18:30:00	0.3462	5.222		0.940281464	1.289383652	0.028618446	0.295251234	0.090999298
2020-02-03T18:35:00	0.3476	5.211		0.944569695	1.296973748	0.028874369	0.297891540	0.091813066
2020-02-03T18:40:00	0.3488	5.200		0.948244766	1.303492357	0.029094715	0.300164806	0.092513708
2020-02-03T18:45:00	0.3482	5.190		0.946439615	1.300288901	0.028986366	0.299046994	0.092169188
2020-02-03T18:50:00	0.3494	5.177		0.950112997	1.306810994	0.029207088	0.301324144	0.092871027
2020-02-03T18:55:00	0.3507	5.163		0.954086986	1.313881167	0.029446931	0.303798562	0.093633667
2020-02-03T19:00:00	0.3508	5.148		0.954108259	1.313919053	0.029448218	0.303811838	0.093637759
2020-02-03T19:05:00	0.3507	5.132		0.953825617	1.313415702	0.029431123	0.303635470	0.093583401
2020-02-03T19:10:00	0.3504	5.118		0.952935016	1.311830146	0.029377293	0.303080115	0.093412235
2020-02-03T19:15:00	0.3518	5.106		0.957209943	1.319447736	0.029636185	0.305751060	0.094235446
2020-02-03T19:20:00	0.3517	5.094		0.956927516	1.318943939	0.029619042	0.305574195	0.094180935
2020-02-03T19:25:00	0.3526	5.081		0.959681099	1.323859033	0.029786423	0.307301030	0.094713162
2020-02-03T19:30:00	0.3510	5.069		0.954843635	1.315229023	0.029492722	0.304270981	0.093779271
2020-02-03T19:35:00	0.3557	5.058		0.969120896	1.340763447	0.030364265	0.313262526	0.096550553
2020-02-03T19:40:00	0.3552	5.047		0.967627859	1.338084146	0.030272455	0.312315338	0.096258620
2020-02-03T19:45:00	0.3553	5.035		0.967951950	1.338665558	0.030292371	0.312520805	0.096321947
2020-02-03T19:50:00	0.3586	5.022		0.977955946	1.356661596	0.030910761	0.318900626	0.098288270
2020-02-03T19:55:00	0.3577	5.011		0.975256930	1.351796997	0.030743229	0.317172228	0.097755561
2020-02-03T20:00:00	0.3598	5.003		0.981622323	1.363280843	0.031139162	0.321256997	0.099014526
2020-02-03T20:05:00	0.3606	4.993		0.984057727	1.367684787	0.031291403	0.322827641	0.099498614
2020-02-03T20:10:00	0.3613	4.983		0.985888616	1.370999312	0.031406132	0.324011270	0.099863420
2020-02-03T20:15:00	0.3627	4.971		0.990129426	1.378688903	0.031672784	0.326762270	0.100711305
2020-02-03T20:20:00	0.3633	4.963		0.991957632	1.382009176	0.031788130	0.327952280	0.101078078
2020-02-03T20:25:00	0.3631	4.954		0.991376427	1.380953282	0.031751435	0.327573698	0.100961395
2020-02-03T20:30:00	0.3628	4.947		0.990493924	1.379350627	0.031695762	0.326999332	0.100784370
2020-02-03T20:35:00	0.3626	4.939		0.989912514	1.378295173	0.031659114	0.326621240	0.100667838
2020-02-03T20:40:00	0.3605	4.930		0.983602134	1.366860507	0.031262892	0.322533490	0.099407954
2020-02-03T20:45:00	0.3602	4.921		0.982717971	1.365261405	0.031207601	0.321963068	0.099232144
2020-02-03T20:50:00	0.3637	4.912		0.993288367	1.384427984	0.031872239	0.328820017	0.101345523
2020-02-03T20:55:00	0.3652	4.903		0.997822328	1.392681856	0.032159753	0.331786243	0.102259742
2020-02-03T21:00:00	0.3638	4.897		0.993631519	1.385051988	0.031893949	0.329043988	0.101414553
2020-02-03T21:05:00	0.3636	4.890		0.993050548	1.383995588	0.031857199	0.328664846	0.101297698
2020-02-03T21:10:00	0.3637	4.884		0.993372649	1.384581236	0.031877571	0.328875019	0.101362475
2020-02-03T21:15:00	0.3655	4.881		0.998808490	1.394479727	0.032222482	0.332433412	0.102459206
2020-02-03T21:20:00	0.3648	4.877		0.996423851	1.390133892	0.032070915	0.330869717	0.101977260
2020-02-03T21:25:00	0.3639	4.871		0.993736862	1.385243572	0.031900615	0.329112761	0.101435749
2020-02-03T21:30:00	0.3650	4.866		0.997067505	1.391306369	0.032111786	0.331291373	0.102107219
2020-02-03T21:35:00	0.3623	4.860		0.988960380	1.376567431	0.031599150	0.326002600	0.100477168
2020-02-03T21:40:00	0.3632	4.853		0.991692621	1.381527681	0.031771395	0.327779628	0.101024865
2020-02-03T21:45:00	0.3640	4.844		0.994122110	1.385944298	0.031925000	0.329364340	0.101513288
2020-02-03T21:50:00	0.3605	4.837		0.983596085	1.366849564	0.031262513	0.322529585	0.099406751
2020-02-03T21:55:00	0.3598	4.828		0.981504567	1.363068048	0.031131812	0.321181163	0.098991154
2020-02-03T22:00:00	0.3600	4.819		0.982129416	1.364197353	0.031170827	0.321583675	0.099115212
2020-02-03T22:05:00	0.3586	4.811		0.978019051	1.356775416	0.030914684	0.318941100	0.098300744
2020-02-03T22:10:00	0.3575	4.803		0.974509418	1.350450938	0.030696921	0.316694472	0.097608312
2020-02-03T22:15:00	0.3560	4.794		0.970088728	1.342501384	0.030423863	0.313877385	0.096740059
2020-02-03T22:20:00	0.3543	4.784		0.964754034	1.332932936	0.030096178	0.310496718	0.095698104
2020-02-03T22:25:00	0.3528	4.773		0.960322816	1.325005517	0.029825506	0.307704251	0.094837439
2020-02-03T22:30:00	0.3538	4.764		0.963474052	1.330641144	0.030017851	0.309688640	0.095449047
2020-02-03T22:35:00	0.3521	4.753		0.958130732	1.321090775	0.029692116	0.306328087	0.094413291
2020-02-03T22:40:00	0.3509	4.742		0.954604031	1.314802146	0.029478218	0.304121338	0.093733150
2020-02-03T22:45:00	0.3528	4.734		0.960188019	1.324764658	0.029817294	0.307619527	0.094811326
2020-02-03T22:50:00	0.3505	4.727		0.953320867	1.312516993	0.029400608	0.303320651	0.093486371
2020-02-03T22:55:00	0.3490	4.720		0.948877221	1.304615451	0.029132729	0.300556997	0.092634586
2020-02-03T23:00:00	0.3484	4.714		0.946865012	1.301043543	0.029011879	0.299310204	0.092250312
2020-02-03T23:05:00	0.3465	4.708		0.941195006	1.290999152	0.028672860	0.295812607	0.091172318
2020-02-03T23:10:00	0.3472	4.702		0.943142341	1.294445432	0.028789042	0.297011242	0.091541749
2020-02-03T23:15:00	0.3450	4.695		0.936551571	1.282795884	0.028396882	0.292965401	0.090294782
2020-02-03T23:20:00	0.3435	4.691		0.932089521	1.274932163	0.028133092	0.290243926	0.089455997
2020-02-03T23:25:00	0.3434	4.685		0.931597222	1.274065702	0.028104072	0.289944534	0.089363721
2020-02-03T23:30:00	0.3393	4.680		0.919167576	1.252264487	0.027376915	0.282442583	0.087051547
2020-02-03T23:35:00	0.3410	4.676		0.924494429	1.261589894	0.027687243	0.285644180	0.088038310
2020-02-03T23:40:00	0.3398	4.671		0.920631917	1.254825375	0.027462029	0.283320689	0.087322188
2020-02-03T23:45:00	0.3402	4.667		0.921976583	1.257178740	0.027540317	0.284128370	0.087571123
2020-02-03T23:50:00	0.3378	4.664		0.914430536	1.243993926	0.027102585	0.279612373	0.086179249
2020-02-03T23:55:00	0.3370	4.661		0.912094020	1.239922242	0.026967840	0.278222235	0.085750795
2020-02-04T00:00:00	0.3346	4.658		0.904836978	1.227308372	0.026551714	0.273929141	0.084427622
2020-02-04T00:05:00	0.3349	4.654		0.905571838	1.228583440	0.026593688	0.274362178	0.084561088
2020-02-04T00:10:00	0.3338	4.650		0.902306753	1.222921980	0.026407474	0.272441043	0.083968975
2020-02-04T00:15:00	0.3342	4.646		0.903349842	1.224729555	0.026466884	0.273053968	0.084157885
2020-02-04T00:20:00	0.3333	4.641		0.900698897	1.220137701	0.026316042	0.271497757	0.083678245
2020-02-04T00:25:00	0.3338	4.637		0.902358110	1.223010953	0.026410398	0.272471203	0.083978271
2020-02-04T00:30:00	0.3351	4.632		0.906169953	1.229621611	0.026627879	0.274714914	0.084669805
2020-02-04T00:35:00	0.3339	4.629		0.902597559	1.223425818	0.026424030	0.272611846	0.084021618
2020-02-04T00:40:00	0.3329	4.624		0.899330038	1.217769181	0.026238340	0.270696116	0.083431172
2020-02-04T00:45:00	0.3301	4.621		0.890815026	1.203074838	0.025757852	0.265739009	0.081903344
2020-02-04T00:50:00	0.3302	4.617		0.891243801	1.203813166	0.025781929	0.265987411	0.081979903
2020-02-04T00:55:00	0.3306	4.613		0.892289792	1.205615022	0.025840718	0.266593923	0.082166836
2020-02-04T01:00:00	0.3298	4.609		0.889940270	1.201569083	0.025708770	0.265232637	0.081747275
2020-02-04T01:05:00	0.3295	4.605		0.889133921	1.200181708	0.025663572	0.264766338	0.081603557
2020-02-04T01:10:00	0.3262	4.600		0.878739433	1.182351200	0.025084872	0.258795996	0.079763439
2020-02-04T01:15:00	0.3244	4.595		0.873282143	1.173029825	0.024783963	0.255691576	0.078806627
2020-02-04T01:20:00	0.3241	4.591		0.872162220	1.171120327	0.024722460	0.255057057	0.078611062
2020-02-04T01:25:00	0.3233	4.587		0.869800706	1.167097668	0.024593047	0.253721937	0.078199565
2020-02-04T01:30:00	0.3234	4.583		0.870231766	1.167831562	0.024616642	0.253965355	0.078274589
2020-02-04T01:35:00	0.3198	4.578		0.858853681	1.148517249	0.023998031	0.247583266	0.076307567
2020-02-04T01:40:00	0.3200	4.573		0.859597131	1.149775625	0.024038187	0.247997545	0.076435252
2020-02-04T01:45:00	0.3166	4.569		0.848812198	1.131570484	0.023459279	0.242025057	0.074594473
2020-02-04T01:50:00	0.3137	4.564		0.839874330	1.116563818	0.022985382	0.237135951	0.073087603
2020-02-04T01:55:00	0.3108	4.559		0.830915863	1.101595641	0.022515705	0.232290378	0.071594151
2020-02-04T02:00:00	0.3108	4.554		0.830724309	1.101276381	0.022505720	0.232187365	0.071562401
2020-02-04T02:05:00	0.3113	4.548		0.832413319	1.104092569	0.022593845	0.233096532	0.071842615
2020-02-04T02:10:00	0.3111	4.544		0.831595051	1.102727898	0.022551128	0.232655829	0.071706786
2020-02-04T02:15:00	0.3106	4.539		0.830149589	1.100318707	0.022475777	0.231878445	0.071467189
2020-02-04T02:20:00	0.3088	4.535		0.824623944	1.091126457	0.022188998	0.228919801	0.070555306
2020-02-04T02:25:00	0.3118	4.529		0.833840623	1.106474421	0.022668462	0.233866343	0.072079878
2020-02-04T02:30:00	0.3107	4.524		0.830515417	1.100928263	0.022494834	0.232075057	0.071527786
2020-02-04T02:35:00	0.3123	4.519		0.835650054	1.109496621	0.022763249	0.234844247	0.072381278
2020-02-04T02:40:00	0.3108	4.512		0.830759283	1.101334669	0.022507543	0.232206171	0.071568197
2020-02-04T02:45:00	0.3103	4.505		0.829313509	1.098926057	0.022432255	0.231429443	0.071328802
2020-02-04T02:50:00	0.3090	4.499		0.825042673	1.091822070	0.022210659	0.229143278	0.070624184
2020-02-04T02:55:00	0.3051	4.492		0.812901631	1.071717291	0.021587261	0.222711792	0.068641937
2020-02-04T03:00:00	0.3037	4.484		0.808612559	1.064646724	0.021369342	0.220463563	0.067949011
2020-02-04T03:05:00	0.3031	4.475		0.806527574	1.061215606	0.021263843	0.219375145	0.067613550
2020-02-04T03:10:00	0.3015	4.463		0.801599676	1.053121671	0.021015620	0.216814281	0.066824267
2020-02-04T03:15:00	0.3019	4.450		0.802669994	1.054877779	0.021069399	0.217369101	0.066995268
2020-02-04T03:20:00	0.3047	4.436		0.811624247	1.069609778	0.021522234	0.222040920	0.068435168
2020-02-04T03:25:00	0.3055	4.425		0.814266240	1.073970342	0.021656846	0.223429692	0.068863201
2020-02-04T03:30:00	0.3025	4.416		0.804616876	1.058074741	0.021167411	0.218380279	0.067306923
2020-02-04T03:35:00	0.3047	4.408		0.811676808	1.069696467	0.021524908	0.222068503	0.068443669
2020-02-04T03:40:00	0.3046	4.399		0.811169225	1.068859409	0.021499096	0.221802212	0.068361596
2020-02-04T03:45:00	0.3042	4.387		0.810031275	1.066983650	0.021441291	0.221205847	0.068177790
2020-02-04T03:50:00	0.3035	4.376		0.807947061	1.063551134	0.021335637	0.220115837	0.067841839
2020-02-04T03:55:00	0.3036	4.364		0.808069712	1.063753021	0.021341847	0.220179900	0.067861584
2020-02-04T04:00:00	0.3041	4.352		0.809768673	1.066550951	0.021427963	0.221068349	0.068135412
2020-02-04T04:05:00	0.3032	4.339		0.807000902	1.061994186	0.021287768	0.219621978	0.067689626
2020-02-04T04:10:00	0.3034	4.325		0.807386367	1.062628388	0.021307263	0.219823103	0.067751615
2020-02-04T04:15:00	0.3046	4.310		0.811239207	1.068974803	0.021502654	0.221838916	0.068372909
2020-02-04T04:20:00	0.3025	4.297		0.804686977	1.058189918	0.021170945	0.218416736	0.067318159
2020-02-04T04:25:00	0.3037	4.283		0.808542529	1.064531416	0.021365794	0.220426958	0.067937729
2020-02-04T04:30:00	0.3042	4.266		0.810188699	1.067243073	0.021449283	0.221288296	0.068203202
2020-02-04T04:35:00	0.3039	4.250		0.808997861	1.065281219	0.021388869	0.220665022	0.068011103
2020-02-04T04:40:00	0.3047	4.234		0.811589099	1.069551809	0.021520446	0.222022476	0.068429483
2020-02-04T04:45:00	0.3067	4.213		0.817954773	1.080068759	0.021845546	0.225376472	0.069463218
2020-02-04T04:50:00	0.3062	4.196		0.816451701	1.077582177	0.021768544	0.224582051	0.069218369
2020-02-04T04:55:00	0.3058	4.174		0.814948042	1.075096669	0.021691659	0.223788849	0.068973897
2020-02-04T05:00:00	0.3076	4.147		0.820679610	1.084581757	0.021985518	0.226820534	0.069908292
2020-02-04T05:05:00	0.3093	4.113		0.826088820	1.093560669	0.022264828	0.229702131	0.070796428
2020-02-04T05:10:00	0.3086	4.079		0.823960888	1.090025286	0.022154721	0.228566169	0.070446313
2020-02-04T05:15:00	0.3105	4.043		0.829992658	1.100057260	0.022467604	0.231794132	0.071441203
2020-02-04T05:20:00	0.3133	4.003		0.838518732	1.114294138	0.022913970	0.236399201	0.072860530
2020-02-04T05:25:00	0.3135	3.965		0.839213880	1.115457816	0.022950575	0.236776848	0.072976924
2020-02-04T05:30:00	0.3131	3.936		0.838031960	1.113479541	0.022888356	0.236134952	0.072779086
2020-02-04T05:35:00	0.3197	3.915		0.858697902	1.148253640	0.023989622	0.247496509	0.076280828
2020-02-04T05:40:00	0.3210	3.881		0.862500142	1.154694169	0.024195340	0.249618863	0.076934958
2020-02-04T05:45:00	0.3229	3.852		0.868472606	1.164837608	0.024520431	0.252972771	0.077968665
2020-02-04T05:50:00	0.3239	3.819		0.871645007	1.170238854	0.024694084	0.254764311	0.078520835
2020-02-04T05:55:00	0.3250	3.781		0.875124815	1.176174147	0.024885341	0.256737480	0.079128985
2020-02-04T06:00:00	0.3285	3.742		0.886026791	1.194841323	0.025489821	0.262973780	0.081051073
2020-02-04T06:05:00	0.3276	3.706		0.883003342	1.189653343	0.025321376	0.261235968	0.080515463
2020-02-04T06:10:00	0.3316	3.667		0.895425800	1.211023289	0.026017419	0.268416912	0.082728699
2020-02-04T06:15:00	0.3341	3.628		0.903195806	1.224462562	0.026458107	0.272963408	0.084129973
2020-02-04T06:20:00	0.3372	3.600		0.912793296	1.241140287	0.027008128	0.278637873	0.085878898
2020-02-04T06:25:00	0.3412	3.566		0.924817469	1.262156277	0.027706125	0.285838984	0.088098351
2020-02-04T06:30:00	0.3350	3.532		0.905862094	1.229087206	0.026610277	0.274533324	0.084613837
2020-02-04T06:35:00	0.3383	3.505		0.916066796	1.246848357	0.027197169	0.280588184	0.086480003
2020-02-04T06:40:00	0.3402	3.476		0.921959340	1.257148550	0.027539312	0.284118005	0.087567928
2020-02-04T06:45:00	0.3380	3.446		0.915282669	1.245480147	0.027151820	0.280120320	0.086335803
2020-02-04T06:50:00	0.3424	3.422		0.928522905	1.268659964	0.027923228	0.288078797	0.088788683
2020-02-04T06:55:00	0.3454	3.394		0.937755092	1.284920122	0.028468269	0.293701882	0.090521772
2020-02-04T07:00:00	0.3495	3.371		0.950313726	1.307167756	0.029219176	0.301448856	0.092909465
2020-02-04T07:05:00	0.3466	3.345		0.941550414	1.291627866	0.028694044	0.296031167	0.091239681
2020-02-04T07:10:00	0.3502	3.318		0.952273507	1.310652932	0.029337345	0.302667984	0.093285212
2020-02-04T07:15:00	0.3505	3.295		0.953253044	1.312396252	0.029396509	0.303278363	0.093473337
2020-02-04T07:20:00	0.3501	3.272		0.952104522	1.310352276	0.029327146	0.302562754	0.093252779
2020-02-04T07:25:00	0.3511	3.249		0.955211412	1.315884356	0.029514994	0.304500753	0.093850089
2020-02-04T07:30:00	0.3504	3.217		0.953151616	1.312215695	0.029390380	0.303215128	0.093453847
2020-02-04T07:35:00	0.3464	3.191		0.940737207	1.290189487	0.028645584	0.295531214	0.091085590
2020-02-04T07:40:00	0.3490	3.169		0.948724605	1.304344406	0.029123554	0.300462333	0.092605409
2020-02-04T07:45:00	0.3501	3.149		0.952138134	1.310412075	0.029329174	0.302583683	0.093259230
2020-02-04T07:50:00	0.3509	3.135		0.954637312	1.314861436	0.029480232	0.304142121	0.093739555
2020-02-04T07:55:00	0.3513	3.118		0.955616282	1.316605934	0.029539523	0.304753812	0.093928085
2020-02-04T08:00:00	0.3509	3.094		0.954468426	1.314560576	0.029470010	0.304036665	0.093707053
2020-02-04T08:05:00	0.3549	3.081		0.966672795	1.336371364	0.030213808	0.311710289	0.096072138
2020-02-04T08:10:00	0.3547	3.068		0.966134107	1.335405680	0.030180758	0.311369312	0.095967046
2020-02-04T08:15:00	0.3536	3.059		0.962866970	1.329554716	0.029980742	0.309305792	0.095331049
2020-02-04T08:20:00	0.3545	3.045		0.965359600	1.334017736	0.030133274	0.310879436	0.095816061
2020-02-04T08:25:00	0.3547	3.033		0.966032999	1.335224458	0.030174556	0.311305336	0.095947328
2020-02-04T08:30:00	0.3577	3.018		0.975180702	1.351659708	0.030738505	0.317123490	0.097740539
2020-02-04T08:35:00	0.3579	3.015		0.975852493	1.352869820	0.030780153	0.317553159	0.097872968
2020-02-04T08:40:00	0.3580	3.011		0.975919635	1.352990788	0.030784317	0.317596121	0.097886209
2020-02-04T08:45:00	0.3599	3.009		0.981726229	1.363468620	0.031145649	0.321323919	0.099035153
2020-02-04T08:50:00	0.3592	3.002		0.979679704	1.359772058	0.031018026	0.320007261	0.098629346
2020-02-04T08:55:00	0.3602	2.998		0.982765792	1.365347874	0.031210590	0.321993905	0.099241649
2020-02-04T09:00:00	0.3594	2.996		0.980417831	1.361104850	0.031064022	0.320481793	0.098775601
2020-02-04T09:05:00	0.3569	2.996		0.972626526	1.347062734	0.030580450	0.315492864	0.097237965
2020-02-04T09:10:00	0.3592	2.997		0.979646010	1.359711231	0.031015928	0.319985608	0.098622672
2020-02-04T09:15:00	0.3606	2.995		0.983939118	1.367470174	0.031283979	0.322751047	0.099475007
2020-02-04T09:20:00	0.3569	2.992		0.972828107	1.347425312	0.030592907	0.315621384	0.097277576
2020-02-04T09:25:00	0.3593	2.991		0.979847248	1.360074537	0.031028463	0.320114937	0.098662533
2020-02-04T09:30:00	0.3598	2.990		0.981424044	1.362922543	0.031126786	0.321129312	0.098975173
2020-02-04T09:35:00	0.3580	2.993		0.976053608	1.353232177	0.030792627	0.317681854	0.097912633
2020-02-04T09:40:00	0.3619	3.000		0.987892741	1.374631122	0.031531987	0.325309701	0.100263609
2020-02-04T09:45:00	0.3589	3.010		0.978907436	1.358378178	0.030969944	0.319511205	0.098476456
2020-02-04T09:50:00	0.3588	3.018		0.978370349	1.357409113	0.030936529	0.319166470	0.098370206
2020-02-04T09:55:00	0.3600	3.030		0.982061144	1.364073945	0.031166563	0.321539682	0.099101653
2020-02-04T10:00:00	0.3589	3.035		0.978806642	1.358196293	0.030963672	0.319446493	0.098456512
2020-02-04T10:05:00	0.3599	3.046		0.981842543	1.363678834	0.031152911	0.321398843	0.099058245
2020-02-04T10:10:00	0.3621	3.061		0.988494267	1.375721938	0.031569818	0.325699990	0.100383900
2020-02-04T10:15:00	0.3623	3.074		0.989113146	1.376844581	0.031608766	0.326101814	0.100507746
2020-02-04T10:20:00	0.3623	3.080		0.989129323	1.376873931	0.031609785	0.326112321	0.100510985
2020-02-04T10:25:00	0.3639	3.082		0.993963904	1.385656520	0.031914985	0.329261014	0.101481442
2020-02-04T10:30:00	0.3622	3.086		0.988860342	1.376385952	0.031592853	0.325937640	0.100457146
2020-02-04T10:35:00	0.3662	3.087		1.000912841	1.398319286	0.032356571	0.333816783	0.102885574
2020-02-04T10:40:00	0.3660	3.091		1.000327986	1.397251745	0.032319273	0.333431981	0.102766975
2020-02-04T10:45:00	0.3657	3.091		0.999141891	1.395087761	0.032243706	0.332652368	0.102526691
2020-02-04T10:50:00	0.3666	3.090		1.001862545	1.400053489	0.032417190	0.334442171	0.103078325
2020-02-04T10:55:00	0.3662	3.097		1.000676887	1.397888558	0.032341521	0.333661508	0.102837717
2020-02-04T11:00:00	0.3709	3.103		1.014792132	1.423749699	0.033248880	0.343022561	0.105722885
2020-02-04T11:05:00	0.3696	3.094		1.010913228	1.416623905	0.032998115	0.340435466	0.104925517
2020-02-04T11:10:00	0.3701	3.091		1.012427814	1.419404573	0.033095902	0.341444318	0.105236455
2020-02-04T11:15:00	0.3713	3.098		1.016038083	1.426041666	0.033329657	0.343855930	0.105979737
2020-02-04T11:20:00	0.3759	3.104		1.029803366	1.451463012	0.034229521	0.353139656	0.108841072
2020-02-04T11:25:00	0.3735	3.101		1.022651524	1.438232353	0.033760288	0.348298667	0.107349032
2020-02-04T11:30:00	0.3771	3.093		1.033414759	1.458162761	0.034467868	0.355598637	0.109598954
2020-02-04T11:35:00	0.3728	3.099		1.020590706	1.434429081	0.033625762	0.346910783	0.106921273
2020-02-04T11:40:00	0.3725	3.108		1.019709483	1.432804021	0.033568330	0.346318274	0.106738656
2020-02-04T11:45:00	0.3733	3.115		1.022117850	1.437247056	0.033725421	0.347938955	0.107238165
2020-02-04T11:50:00	0.3726	3.122		1.020040713	1.433414752	0.033589911	0.346540916	0.106807276
2020-02-04T11:55:00	0.3717	3.131		1.017364005	1.428482385	0.033415742	0.344744051	0.106253465
2020-02-04T12:00:00	0.3721	3.142		1.018577067	1.430716836	0.033494610	0.345557717	0.106504244
2020-02-04T12:05:00	0.3693	3.150		1.010207021	1.415328117	0.032952576	0.339965647	0.104780714
2020-02-04T12:10:00	0.3686	3.155		1.008123969	1.411508807	0.032818460	0.338581999	0.104354260
2020-02-04T12:15:00	0.3707	3.165		1.014134821	1.422541158	0.033206310	0.342583374	0.105587523
2020-02-04T12:20:00	0.3668	3.179		1.002453206	1.401132500	0.032454923	0.334831461	0.103198308
2020-02-04T12:25:00	0.3712	3.185		1.015664316	1.425353953	0.033305413	0.343605811	0.105902648
2020-02-04T12:30:00	0.3646	3.189		0.995872302	1.389129508	0.032035916	0.330508641	0.101865973
2020-02-04T12:35:00	0.3615	3.193		0.986552041	1.372201125	0.031447762	0.324440765	0.099995795
2020-02-04T12:40:00	0.3600	3.196		0.982043059	1.364041255	0.031165433	0.321528029	0.099098061
2020-02-04T12:45:00	0.3610	3.205		0.985076582	1.369528862	0.031355218	0.323486006	0.099701529
2020-02-04T12:50:00	0.3601	3.214		0.982377298	1.364645460	0.031186312	0.321743433	0.099164451
2020-02-04T12:55:00	0.3619	3.222		0.987822652	1.374504045	0.031527581	0.325264242	0.100249598
2020-02-04T13:00:00	0.3659	3.224		0.999878159	1.396430895	0.032290602	0.333136191	0.102675809
2020-02-04T13:05:00	0.3646	3.205		0.995985357	1.389335361	0.032043088	0.330582635	0.101888779
2020-02-04T13:10:00	0.3646	3.189		0.996001508	1.389364769	0.032044113	0.330593206	0.101892037
2020-02-04T13:15:00	0.3634	3.178		0.992406169	1.382824269	0.031816466	0.328244614	0.101168178
2020-02-04T13:20:00	0.3611	3.171		0.985491534	1.370280189	0.031381229	0.323754358	0.099784237
2020-02-04T13:25:00	0.3651	3.167		0.997553808	1.392192479	0.032142684	0.331610150	0.102205469
2020-02-04T13:30:00	0.3620	3.175		0.988237329	1.375255961	0.031553656	0.325533248	0.100332509
2020-02-04T13:35:00	0.3594	3.187		0.980409931	1.361090582	0.031063530	0.320476711	0.098774035
2020-02-04T13:40:00	0.3610	3.193		0.985254702	1.369851352	0.031366382	0.323601182	0.099737027
2020-02-04T13:45:00	0.3601	3.192		0.982555535	1.364967702	0.031197449	0.321858333	0.099199864
2020-02-04T13:50:00	0.3610	3.202		0.984985469	1.369363912	0.031349508	0.323427100	0.099683373
2020-02-04T13:55:00	0.3585	3.222		0.977454091	1.355756546	0.030879571	0.318578846	0.098189094
2020-02-04T14:00:00	0.3605	3.245		0.983509451	1.366692844	0.031257093	0.322473668	0.099389516
2020-02-04T14:05:00	0.3598	3.260		0.981412965	1.362902525	0.031126095	0.321122179	0.098972974
2020-02-04T14:10:00	0.3649	3.267		0.996796892	1.390813374	0.032094599	0.331114058	0.102052569
2020-02-04T14:15:00	0.3604	3.263		0.983256305	1.366234949	0.031241259	0.322310308	0.099339167
2020-02-04T14:20:00	0.3623	3.260		0.989001849	1.376642662	0.031601760	0.326029530	0.100485468
2020-02-04T14:25:00	0.3615	3.255		0.986606648	1.372300065	0.031451190	0.324476130	0.100006695
2020-02-04T14:30:00	0.3622	3.258		0.988732860	1.376154700	0.031584830	0.325854869	0.100431635
2020-02-04T14:35:00	0.3610	3.265		0.985131208	1.369627760	0.031358642	0.323521326	0.099712415
2020-02-04T14:40:00	0.3617	3.263		0.987258178	1.373480773	0.031492107	0.324898263	0.100136800
2020-02-04T14:45:00	0.3582	3.256		0.976709716	1.354414578	0.030833342	0.318101905	0.098042097
2020-02-04T14:50:00	0.3588	3.250		0.978538938	1.357713269	0.030947016	0.319274659	0.098403551
2020-02-04T14:55:00	0.3590	3.243		0.979159310	1.358832727	0.030985621	0.319672945	0.098526306
2020-02-04T15:00:00	0.3606	3.241		0.984005548	1.367590371	0.031288137	0.322793944	0.099488228
2020-02-04T15:05:00	0.3611	3.239		0.985529963	1.370349778	0.031383639	0.323779216	0.099791899
2020-02-04T15:10:00	0.3627	3.240		0.990368744	1.379123355	0.031687869	0.326917906	0.100759274
2020-02-04T15:15:00	0.3589	3.243		0.978922114	1.358404664	0.030970858	0.319520629	0.098479361
2020-02-04T15:20:00	0.3555	3.243		0.968352269	1.339383859	0.030316981	0.312774705	0.096400202
2020-02-04T15:25:00	0.3585	3.238		0.977443925	1.355738217	0.030878940	0.318572330	0.098187086
2020-02-04T15:30:00	0.3583	3.231		0.976855747	1.354677803	0.030842408	0.318195439	0.098070925
2020-02-04T15:35:00	0.3576	3.227		0.974755875	1.350894680	0.030712184	0.316851945	0.097656847
2020-02-04T15:40:00	0.3553	3.220		0.967811572	1.338413711	0.030283743	0.312431799	0.096294515
2020-02-04T15:45:00	0.3514	3.220		0.955998164	1.317286683	0.029562670	0.304992612	0.094001685
2020-02-04T15:50:00	0.3577	3.220		0.975106938	1.351526862	0.030733934	0.317076332	0.097726005
2020-02-04T15:55:00	0.3553	3.219		0.967860355	1.338501229	0.030286741	0.312462728	0.096304047
2020-02-04T16:00:00	0.3527	3.218		0.959994064	1.324418125	0.029805480	0.307497644	0.094773760
2020-02-04T16:05:00	0.3583	3.215		0.976878339	1.354718528	0.030843811	0.318209911	0.098075385
2020-02-04T16:10:00	0.3573	3.210		0.974082638	1.349682665	0.030670499	0.316421888	0.097524299
2020-02-04T16:15:00	0.3548	3.207		0.966440059	1.335954115	0.030199526	0.311562947	0.096026726
2020-02-04T16:20:00	0.3574	3.200		0.974235441	1.349957716	0.030679958	0.316519468	0.097554374
2020-02-04T16:25:00	0.3569	3.192		0.972648250	1.347101807	0.030581792	0.315506713	0.097242233
2020-02-04T16:30:00	0.3587	3.185		0.978317619	1.357313987	0.030933250	0.319132636	0.098359778
2020-02-04T16:35:00	0.3601	3.175		0.982470417	1.364813810	0.031192130	0.321803459	0.099182952
2020-02-04T16:40:00	0.3583	3.162		0.976959464	1.354864769	0.030848848	0.318261881	0.098091403
2020-02-04T16:45:00	0.3615	3.155		0.986544460	1.372187389	0.031447286	0.324435855	0.099994281
2020-02-04T16:50:00	0.3642	3.152		0.994903847	1.387366635	0.031974515	0.329875173	0.101670732
2020-02-04T16:55:00	0.3627	3.149		0.990313266	1.379022637	0.031684372	0.326881823	0.100748153
2020-02-04T17:00:00	0.3664	3.145		1.001369906	1.399153800	0.032385737	0.334117681	0.102978314
2020-02-04T17:05:00	0.3651	3.141		0.997387966	1.391890268	0.032132145	0.331501420	0.102171957
2020-02-04T17:10:00	0.3665	3.135		1.001822124	1.399979660	0.032414608	0.334415540	0.103070117
2020-02-04T17:15:00	0.3666	3.128		1.002048214	1.400392630	0.032429048	0.334564513	0.103116032
2020-02-04T17:20:00	0.3649	3.127		0.996864036	1.390935688	0.032098863	0.331158048	0.102066127
2020-02-04T17:25:00	0.3676	3.121		1.004902531	1.405610462	0.032611661	0.336448492	0.103696693
2020-02-04T17:30:00	0.3655	3.116		0.998820135	1.394500963	0.032223224	0.332441058	0.102461563
2020-02-04T17:35:00	0.3670	3.112		1.003252767	1.402593659	0.032506042	0.335358841	0.103360852
2020-02-04T17:40:00	0.3685	3.109		1.007680691	1.410696588	0.032789960	0.338287969	0.104263637
2020-02-04T17:45:00	0.3691	3.105		1.009406040	1.413859012	0.032900968	0.339433224	0.104616616
2020-02-04T17:50:00	0.3656	3.099		0.999123914	1.395054974	0.032242561	0.332640560	0.102523051
2020-02-04T17:55:00	0.3662	3.090		1.000852807	1.398209691	0.032352742	0.333777272	0.102873397
2020-02-04T18:00:00	0.3657	3.085		0.999275795	1.395331997	0.032252232	0.332740331	0.102553802
2020-02-04T18:05:00	0.3659	3.079		0.999802588	1.396293010	0.032285787	0.333086512	0.102660498
2020-02-04T18:10:00	0.3633	3.075		0.991906371	1.381916035	0.031784893	0.327918880	0.101067783
2020-02-04T18:15:00	0.3650	3.069		0.997248687	1.391636481	0.032123296	0.331410120	0.102143818
2020-02-04T18:20:00	0.3639	3.065		0.993864805	1.385476271	0.031908712	0.329196300	0.101461497
2020-02-04T18:25:00	0.3639	3.062		0.993790351	1.385340854	0.031904000	0.329147685	0.101446513
2020-02-04T18:30:00	0.3660	3.057		1.000031953	1.396711519	0.032300403	0.333237303	0.102706973
2020-02-04T18:35:00	0.3665	3.050		1.001760470	1.399867053	0.032410671	0.334374922	0.103057598
2020-02-04T18:40:00	0.3641	3.044		0.994469896	1.386577008	0.031947023	0.329591549	0.101583316
2020-02-04T18:45:00	0.3620	3.039		0.988070808	1.374953996	0.031543183	0.325425209	0.100299210
2020-02-04T18:50:00	0.3672	3.034		1.003639991	1.403301513	0.032530815	0.335614419	0.103439623
2020-02-04T18:55:00	0.3628	3.026		0.990633532	1.379604110	0.031704565	0.327090157	0.100812363
2020-02-04T19:00:00	0.3634	3.022		0.992365962	1.382751196	0.031813925	0.328218403	0.101160099
2020-02-04T19:05:00	0.3645	3.016		0.995602225	1.388637798	0.032018786	0.330331914	0.101811504
2020-02-04T19:10:00	0.3615	3.010		0.986492107	1.372092535	0.031444000	0.324401950	0.099983832
2020-02-04T19:15:00	0.3627	3.003		0.990335477	1.379062961	0.031685772	0.326896270	0.100752605
2020-02-04T19:20:00	0.3632	2.998		0.991766908	1.381662645	0.031776086	0.327828020	0.101039779
2020-02-04T19:25:00	0.3616	2.992		0.986871370	1.372779747	0.031467811	0.324647609	0.100059546
2020-02-04T19:30:00	0.3603	2.989		0.982875479	1.365546220	0.031217447	0.322064643	0.099263451
2020-02-04T19:35:00	0.3596	2.983		0.980989704	1.362137802	0.031099685	0.320849714	0.098888998
2020-02-04T19:40:00	0.3588	2.978		0.978498905	1.357641041	0.030944526	0.319248966	0.098395632
2020-02-04T19:45:00	0.3593	2.975		0.979934438	1.360231957	0.031033896	0.320170981	0.098679806
2020-02-04T19:50:00	0.3585	2.971		0.977443001	1.355736551	0.030878882	0.318571738	0.098186903
2020-02-04T19:55:00	0.3593	2.967		0.980087024	1.360507468	0.031043404	0.320269072	0.098710038
2020-02-04T20:00:00	0.3568	2.966		0.972455604	1.346755332	0.030569889	0.315383914	0.097204385
2020-02-04T20:05:00	0.3584	2.963		0.977218748	1.355332210	0.030864951	0.318428012	0.098142606
2020-02-04T20:10:00	0.3575	2.955		0.974423278	1.350295858	0.030691587	0.316639444	0.097591352
2020-02-04T20:15:00	0.3556	2.945		0.968901538	1.340369670	0.030350767	0.313123263	0.096507631
2020-02-04T20:20:00	0.3572	2.938		0.973668797	1.348937851	0.030644891	0.316157694	0.097442872
2020-02-04T20:25:00	0.3591	2.929		0.979336762	1.359153005	0.030996669	0.319786923	0.098561435
2020-02-04T20:30:00	0.3577	2.914		0.975031221	1.351390504	0.030729242	0.317027929	0.097711087
2020-02-04T20:35:00	0.3575	2.899		0.974654054	1.350711346	0.030705878	0.316786882	0.097636794
2020-02-04T20:40:00	0.3561	2.882		0.970343611	1.342959224	0.030439569	0.314039424	0.096790000
2020-02-04T20:45:00	0.3585	2.871		0.977527299	1.355888555	0.030884120	0.318625774	0.098203558
2020-02-04T20:50:00	0.3568	2.866		0.972312295	1.346497615	0.030561037	0.315292581	0.097176236
2020-02-04T20:55:00	0.3557	2.861		0.969210714	1.340924696	0.030369793	0.313319558	0.096568131
2020-02-04T21:00:00	0.3565	2.854		0.971557427	1.345140426	0.030514429	0.314811741	0.097028036
2020-02-04T21:05:00	0.3567	2.822		0.972087762	1.346093866	0.030547169	0.315149513	0.097132141
2020-02-04T21:10:00	0.3550	2.809		0.966865850	1.336717513	0.030225658	0.311832539	0.096109817
2020-02-04T21:15:00	0.3541	2.800		0.964366479	1.332238860	0.030072450	0.310251922	0.095622655
2020-02-04T21:20:00	0.3547	2.801		0.966109980	1.335362435	0.030179278	0.311354045	0.095962341
2020-02-04T21:25:00	0.3519	2.796		0.957541670	1.320039570	0.029656328	0.305958872	0.094299496
2020-02-04T21:30:00	0.3534	2.789		0.962018842	1.328037498	0.029928942	0.308771378	0.095166337
2020-02-04T21:35:00	0.3541	2.781		0.964369673	1.332244579	0.030072645	0.310253938	0.095623277
2020-02-04T21:40:00	0.3540	2.773		0.963991525	1.331567486	0.030049504	0.310015188	0.095549692
2020-02-04T21:45:00	0.3526	2.768		0.959669858	1.323838954	0.029785738	0.307293970	0.094710986
2020-02-04T21:50:00	0.3523	2.761		0.958684193	1.322078745	0.029725763	0.306675216	0.094520280
2020-02-04T21:55:00	0.3516	2.747		0.956787275	1.318693804	0.029610531	0.305486394	0.094153873
2020-02-04T22:00:00	0.3511	2.742		0.955193311	1.315852100	0.029513898	0.304489442	0.093846603
2020-02-04T22:05:00	0.3496	2.743		0.950493810	1.307487856	0.029230024	0.301560766	0.092943957
2020-02-04T22:10:00	0.3476	2.751		0.944570592	1.296975338	0.028874422	0.297892094	0.091813236
2020-02-04T22:15:00	0.3450	2.756		0.936502723	1.282709695	0.028393987	0.292935531	0.090285576
2020-02-04T22:20:00	0.3472	2.750		0.943376961	1.294860889	0.028803058	0.297155840	0.091586316
2020-02-04T22:25:00	0.3454	2.742		0.937748491	1.284908467	0.028467877	0.293697840	0.090520527
2020-02-04T22:30:00	0.3437	2.740		0.932723254	1.276047886	0.028170474	0.290629584	0.089574860
2020-02-04T22:35:00	0.3421	2.742		0.927691762	1.267200043	0.027874449	0.287575549	0.088633577
2020-02-04T22:40:00	0.3398	2.744		0.920815929	1.255147323	0.027472735	0.283431141	0.087356230
2020-02-04T22:45:00	0.3418	2.744		0.926799111	1.265632803	0.027822113	0.287035606	0.088467162
2020-02-04T22:50:00	0.3415	2.745		0.925740681	1.263775471	0.027760128	0.286396122	0.088270066
2020-02-04T22:55:00	0.3415	2.745		0.925906262	1.264065963	0.027769820	0.286496111	0.088300884
2020-02-04T23:00:00	0.3381	2.743		0.915347100	1.245592551	0.027155545	0.280158748	0.086347647
2020-02-04T23:05:00	0.3428	2.732		0.929907740	1.271093897	0.028004609	0.288918391	0.089047454
2020-02-04T23:10:00	0.3407	2.715		0.923341922	1.259570017	0.027619935	0.284949782	0.087824290
2020-02-04T23:15:00	0.3401	2.707		0.921669935	1.256641911	0.027522452	0.283944067	0.087514319
2020-02-04T23:20:00	0.3389	2.706		0.917851353	1.249964342	0.027300536	0.281654593	0.086808681
2020-02-04T23:25:00	0.3399	2.703		0.921082352	1.255613515	0.027488240	0.283591103	0.087405532
2020-02-04T23:30:00	0.3381	2.698		0.915422687	1.245724419	0.027159915	0.280203832	0.086361542
2020-02-04T23:35:00	0.3356	2.693		0.907911049	1.232645594	0.026727545	0.275743155	0.084986718
2020-02-04T23:40:00	0.3366	2.683		0.910842900	1.237744097	0.026895843	0.277479451	0.085521862
2020-02-04T23:45:00	0.3357	2.674		0.908243678	1.233223634	0.026746609	0.275939839	0.085047338
2020-02-04T23:50:00	0.3347	2.671		0.905027570	1.227639022	0.026562597	0.274041416	0.084462226
2020-02-04T23:55:00	0.3328	2.666		0.899037074	1.217262494	0.026221727	0.270524719	0.083378346
2020-02-05T00:00:00	0.3339	2.665		0.902591110	1.223414643	0.026423663	0.272608057	0.084020451
2020-02-05T00:05:00	0.3321	2.662		0.896905211	1.213577806	0.026101009	0.269279300	0.082994495
2020-02-05T00:10:00	0.3312	2.660		0.894296893	1.209075358	0.025953733	0.267759875	0.082526194
2020-02-05T00:15:00	0.3291	2.658		0.887672329	1.197668482	0.025581758	0.263922280	0.081343410
2020-02-05T00:20:00	0.3291	2.656		0.887839494	1.197955824	0.025591108	0.264018741	0.081373140
2020-02-05T00:25:00	0.3271	2.653		0.881513586	1.187100156	0.025238605	0.260382033	0.080252272
2020-02-05T00:30:00	0.3275	2.651		0.882918555	1.189507976	0.025316661	0.261187326	0.080500471
2020-02-05T00:35:00	0.3263	2.650		0.879062658	1.182904150	0.025102757	0.258980514	0.079820310
2020-02-05T00:40:00	0.3243	2.648		0.873032803	1.172604594	0.024770262	0.255550231	0.078763063
2020-02-05T00:45:00	0.3262	2.646		0.878778435	1.182417916	0.025087029	0.258818257	0.079770300
2020-02-05T00:50:00	0.3254	2.646		0.876158157	1.177938803	0.024942293	0.257325038	0.079310076
2020-02-05T00:55:00	0.3221	2.643		0.866087342	1.160782619	0.024390311	0.251630339	0.077554914
2020-02-05T01:00:00	0.3220	2.642		0.865634080	1.160012658	0.024365628	0.251375687	0.077476428
2020-02-05T01:05:00	0.3224	2.635		0.867044717	1.162409544	0.024442491	0.252168679	0.077720836
2020-02-05T01:10:00	0.3212	2.631		0.863173251	1.155835717	0.024231859	0.249995623	0.077051079
2020-02-05T01:15:00	0.3208	2.625		0.862097749	1.154011937	0.024173523	0.249393782	0.076865586
2020-02-05T01:20:00	0.3211	2.615		0.862887879	1.155351694	0.024216373	0.249835853	0.077001836
2020-02-05T01:25:00	0.3194	2.610		0.857767226	1.146679209	0.023939416	0.246978538	0.076121184
2020-02-05T01:30:00	0.3193	2.606		0.857313002	1.145911083	0.023914933	0.246725955	0.076043336
2020-02-05T01:35:00	0.3183	2.599		0.854366793	1.140933425	0.023756467	0.245091089	0.075539454
2020-02-05T01:40:00	0.3165	2.593		0.848610920	1.131231736	0.023448549	0.241914353	0.074560353
2020-02-05T01:45:00	0.3154	2.580		0.845345838	1.125741813	0.023274859	0.240122426	0.074008064
2020-02-05T01:50:00	0.3177	2.562		0.852379328	1.137580068	0.023649895	0.243991609	0.075200584
2020-02-05T01:55:00	0.3161	2.545		0.847244891	1.128933704	0.023375795	0.241163766	0.074329015
2020-02-05T02:00:00	0.3139	2.535		0.840540512	1.117679822	0.023020521	0.237498473	0.073199336
2020-02-05T02:05:00	0.3147	2.524		0.842897867	1.121632171	0.023145100	0.238783734	0.073595466
2020-02-05T02:10:00	0.3119	2.506		0.834307241	1.107253504	0.022692885	0.234118312	0.072157537
2020-02-05T02:15:00	0.3146	2.487		0.842611010	1.121150955	0.023129921	0.238627133	0.073547200
2020-02-05T02:20:00	0.3124	2.454		0.835898632	1.109912042	0.022776288	0.234978766	0.072422738
2020-02-05T02:25:00	0.3116	2.446		0.833249475	1.105487702	0.022637541	0.233547341	0.071981559
2020-02-05T02:30:00	0.3142	2.438		0.841555504	1.119380940	0.023074115	0.238051394	0.073369752
2020-02-05T02:35:00	0.3128	2.431		0.837032779	1.111808125	0.022835830	0.235593045	0.072612065
2020-02-05T02:40:00	0.3117	2.419		0.833757958	1.106336421	0.022664137	0.233821720	0.072066125
2020-02-05T02:45:00	0.3108	2.400		0.830793866	1.101392307	0.022509346	0.232224768	0.071573929
2020-02-05T02:50:00	0.3098	2.380		0.827513767	1.095930398	0.022338728	0.230464535	0.071031408
2020-02-05T02:55:00	0.3119	2.362		0.834266375	1.107185264	0.022690746	0.234096238	0.072150734
2020-02-05T03:00:00	0.3110	2.351		0.831302672	1.102240428	0.022535875	0.232498470	0.071658286
2020-02-05T03:05:00	0.3115	2.331		0.833039087	1.105136608	0.022626542	0.233433866	0.071946585
2020-02-05T03:10:00	0.3120	2.308		0.834461550	1.107511187	0.022700965	0.234201670	0.072183229
2020-02-05T03:15:00	0.3114	2.298		0.832751501	1.104656751	0.022611512	0.233278804	0.071898793
2020-02-05T03:20:00	0.3099	2.279		0.827904788	1.096581000	0.022359030	0.230673989	0.071095964
2020-02-05T03:25:00	0.3120	2.273		0.834656715	1.107837129	0.022711186	0.234307122	0.072215731
2020-02-05T03:30:00	0.3122	2.254		0.835139300	1.108643234	0.022736471	0.234567985	0.072296131
2020-02-05T03:35:00	0.3131	2.236		0.838125768	1.113636509	0.022893291	0.236185864	0.072794777
2020-02-05T03:40:00	0.3114	2.217		0.832659159	1.104502690	0.022606687	0.233229026	0.071883451
2020-02-05T03:45:00	0.3126	2.186		0.836586697	1.111062219	0.022812401	0.235351333	0.072537566
2020-02-05T03:50:00	0.3105	2.155		0.829863884	1.099842739	0.022460899	0.231724959	0.071419883
2020-02-05T03:55:00	0.3103	2.138		0.829092783	1.098558502	0.022420773	0.231310985	0.071292292
2020-02-05T04:00:00	0.3115	2.128		0.833023934	1.105111323	0.022625750	0.233425695	0.071944066
2020-02-05T04:05:00	0.3113	2.122		0.832516846	1.104265269	0.022599253	0.233152322	0.071859810
2020-02-05T04:10:00	0.3117	2.114		0.833576301	1.106033187	0.022654633	0.233723677	0.072035907
2020-02-05T04:15:00	0.3138	2.106		0.840268499	1.117224091	0.023006170	0.237350413	0.073153702
2020-02-05T04:20:00	0.3152	2.100		0.844450930	1.124238812	0.023227377	0.239632562	0.073857083
2020-02-05T04:25:00	0.3154	2.096		0.845194826	1.125488137	0.023266842	0.240039725	0.073982574
2020-02-05T04:30:00	0.3168	2.094		0.849683951	1.133038062	0.023505785	0.242504846	0.074742349
2020-02-05T04:35:00	0.3171	2.089		0.850426850	1.134289264	0.023545456	0.242914129	0.074868494
2020-02-05T04:40:00	0.3153	2.074		0.844927702	1.125039461	0.023252667	0.239893474	0.073937499
2020-02-05T04:45:00	0.3178	2.062		0.852535746	1.137843855	0.023658273	0.244078043	0.075227223
2020-02-05T04:50:00	0.3155	2.039		0.845478380	1.125964480	0.023281896	0.240195024	0.074030439
2020-02-05T04:55:00	0.3178	2.036		0.852773646	1.138245096	0.023671018	0.244209533	0.075267750
2020-02-05T05:00:00	0.3172	2.037		0.850710023	1.134766323	0.023560587	0.243070237	0.074916608
2020-02-05T05:05:00	0.3178	2.038		0.852699820	1.138120576	0.023667063	0.244168725	0.075255172
2020-02-05T05:10:00	0.3171	2.037		0.850636159	1.134641877	0.023556640	0.243029511	0.074904056
2020-02-05T05:15:00	0.3206	2.035		0.861344698	1.152735585	0.024132723	0.248972856	0.076735852
2020-02-05T05:20:00	0.3202	2.033		0.860219078	1.150828734	0.024071808	0.248344410	0.076542159
2020-02-05T05:25:00	0.3215	2.035		0.864069412	1.157356191	0.024280527	0.250497717	0.077205829
2020-02-05T05:30:00	0.3224	2.035		0.866984316	1.162306876	0.024439198	0.252134696	0.077710362
2020-02-05T05:35:00	0.3215	2.035		0.864306613	1.157758762	0.024293417	0.250630707	0.077246818
2020-02-05T05:40:00	0.3213	2.033		0.863492721	1.156377662	0.024249202	0.250174549	0.077106226
2020-02-05T05:45:00	0.3232	2.028		0.869513178	1.166608237	0.024577316	0.253559642	0.078149544
2020-02-05T05:50:00	0.3285	2.026		0.886047586	1.194877036	0.025490981	0.262985755	0.081054764
2020-02-05T05:55:00	0.3265	2.024		0.879669440	1.183942448	0.025136351	0.259327102	0.079927131
2020-02-05T06:00:00	0.3275	2.021		0.882882187	1.189445626	0.025314639	0.261166464	0.080494041
2020-02-05T06:05:00	0.3282	2.016		0.884855776	1.192830957	0.025424507	0.262299950	0.080843392
2020-02-05T06:10:00	0.3262	2.013		0.878785379	1.182429796	0.025087414	0.258822220	0.079771522
2020-02-05T06:15:00	0.3285	2.014		0.886019124	1.194828157	0.025489393	0.262969365	0.081049712
2020-02-05T06:20:00	0.3295	2.013		0.888917868	1.199810078	0.025651469	0.264641475	0.081565073
2020-02-05T06:25:00	0.3299	2.013		0.890270975	1.202138257	0.025727319	0.265424010	0.081806258
2020-02-05T06:30:00	0.3304	2.014		0.891623621	1.204467338	0.025803268	0.266207559	0.082047755
2020-02-05T06:35:00	0.3303	2.019		0.891432736	1.204138557	0.025792543	0.266096908	0.082013651
2020-02-05T06:40:00	0.3305	2.019		0.892167801	1.205404825	0.025833858	0.266523148	0.082145023
2020-02-05T06:45:00	0.3306	1.871		0.892285562	1.205607734	0.025840480	0.266591469	0.082166080
2020-02-05T06:50:00	0.3317	1.894		0.895796455	1.211663113	0.026038348	0.268632833	0.082795248
2020-02-05T06:55:00	0.3308	1.892		0.893138205	1.207077271	0.025888457	0.267086434	0.082318633
2020-02-05T07:00:00	0.3320	1.880		0.896648346	1.213134127	0.026086485	0.269129456	0.082948312
2020-02-05T07:05:00	0.3324	1.878		0.897998824	1.215467467	0.026162897	0.269917782	0.083191282
2020-02-05T07:10:00	0.3320	1.875		0.896575337	1.213008032	0.026082357	0.269086874	0.082935188
2020-02-05T07:15:00	0.3315	1.881		0.895151340	1.210549599	0.026001927	0.268257091	0.082679441
2020-02-05T07:20:00	0.3308	1.877		0.893109794	1.207028292	0.025886857	0.267069932	0.082313547
2020-02-05T07:25:00	0.3302	1.886		0.891067198	1.203509046	0.025772011	0.265885085	0.081948365
2020-02-05T07:30:00	0.3300	1.894		0.890567558	1.202648790	0.025743961	0.265595703	0.081859175
2020-02-05T07:35:00	0.3295	1.896		0.889141407	1.200194585	0.025663991	0.264770665	0.081604890
2020-02-05T07:40:00	0.3298	1.896		0.889876895	1.201460022	0.025705216	0.265195972	0.081735974
2020-02-05T07:45:00	0.3308	1.900		0.893081382	1.206979314	0.025885258	0.267053432	0.082308461
2020-02-05T07:50:00	0.3303	1.912		0.891347465	1.203991695	0.025787752	0.266047486	0.081998419
2020-02-05T07:55:00	0.3297	1.922		0.889612790	1.201005561	0.025690408	0.265043206	0.081688890
2020-02-05T08:00:00	0.3301	1.924		0.890965660	1.203334203	0.025766309	0.265826261	0.081930235
2020-02-05T08:05:00	0.3309	1.927		0.893243777	1.207259271	0.025894400	0.267147754	0.082337532
2020-02-05T08:10:00	0.3318	1.935		0.896137254	1.212251512	0.026057599	0.268831446	0.082856462
2020-02-05T08:15:00	0.3290	1.953		0.887304135	1.197035678	0.025561171	0.263709886	0.081277948
2020-02-05T08:20:00	0.3317	1.970		0.895755909	1.211593116	0.026036058	0.268609209	0.082787967
2020-02-05T08:25:00	0.3308	1.984		0.893097632	1.207007328	0.025886172	0.267062869	0.082311370
2020-02-05T08:30:00	0.3298	1.995		0.889820026	1.201362157	0.025702027	0.265163073	0.081725834
2020-02-05T08:35:00	0.3319	2.007		0.896417163	1.212734863	0.026073417	0.268994634	0.082906759
2020-02-05T08:40:00	0.3310	2.020		0.893759328	1.208148205	0.025923437	0.267447320	0.082429861
2020-02-05T08:45:00	0.3312	2.031		0.894185515	1.208883239	0.025947454	0.267695100	0.082506230
2020-02-05T08:50:00	0.3317	2.041		0.895845172	1.211747218	0.026041099	0.268661220	0.082803997
2020-02-05T08:55:00	0.3318	2.047		0.895962825	1.211950341	0.026047745	0.268729781	0.082825128
2020-02-05T09:00:00	0.3316	2.057		0.895463799	1.211088878	0.026019564	0.268439044	0.082735520
2020-02-05T09:05:00	0.3306	2.069		0.892496748	1.205971652	0.025852358	0.266714016	0.082203850
2020-02-05T09:10:00	0.3309	2.080		0.893231616	1.207238305	0.025893716	0.267140690	0.082335355
2020-02-05T09:15:00	0.3314	2.090		0.894891672	1.210101502	0.025987276	0.268105932	0.082632852
2020-02-05T09:20:00	0.3307	2.102		0.892541416	1.206048630	0.025854871	0.266739941	0.082211840
2020-02-05T09:25:00	0.3315	2.113		0.895127029	1.210507645	0.026000555	0.268242937	0.082675078
2020-02-05T09:30:00	0.3300	2.123		0.890616339	1.202732769	0.025746699	0.265623948	0.081867881
2020-02-05T09:35:00	0.3302	2.133		0.891042863	1.203467141	0.025770644	0.265870986	0.081944020
2020-02-05T09:40:00	0.3307	2.146		0.892703833	1.206328543	0.025864009	0.266834214	0.082240896
2020-02-05T09:45:00	0.3310	2.163		0.893747169	1.208127237	0.025922752	0.267440252	0.082427683
2020-02-05T09:50:00	0.3287	2.178		0.886454333	1.195575632	0.025513690	0.263220037	0.081126972
2020-02-05T09:55:00	0.3277	2.187		0.883480536	1.190471604	0.025347921	0.261509825	0.080599868
2020-02-05T10:00:00	0.3301	2.189		0.890705718	1.202886644	0.025751716	0.265675705	0.081883832
2020-02-05T10:05:00	0.3302	2.192		0.891019961	1.203427705	0.025769358	0.265857718	0.081939931
2020-02-05T10:10:00	0.3316	2.199		0.895345015	1.210883854	0.026012858	0.268369865	0.082714199
2020-02-05T10:15:00	0.3318	2.216		0.895967225	1.211957938	0.026047993	0.268732345	0.082825919
2020-02-05T10:20:00	0.3322	2.238		0.897205838	1.214097150	0.026118013	0.269454730	0.083048565
2020-02-05T10:25:00	0.3327	2.257		0.898752184	1.216769850	0.026205577	0.270358103	0.083326993
2020-02-05T10:30:00	0.3316	2.271		0.895367088	1.210921953	0.026014104	0.268382719	0.082718161
2020-02-05T10:35:00	0.3308	2.297		0.892904896	1.206675094	0.025875324	0.266950946	0.082276874
2020-02-05T10:40:00	0.3334	2.285		0.900924878	1.220528881	0.026328882	0.271630224	0.083719073
2020-02-05T10:45:00	0.3334	2.147		0.900930389	1.220538421	0.026329195	0.271633455	0.083720069
2020-02-05T10:50:00	0.3338	2.092		0.902167460	1.222680676	0.026399546	0.272359252	0.083943767
2020-02-05T10:55:00	0.3367	2.100		0.911090434	1.238174928	0.026910079	0.277626324	0.085567129
2020-02-05T11:00:00	0.3354	2.122		0.907100912	1.231238174	0.026681144	0.275264446	0.084839176
2020-02-05T11:05:00	0.3353	2.145		0.906798940	1.230713726	0.026663860	0.275086129	0.084784217
2020-02-05T11:10:00	0.3374	2.167		0.913256433	1.241947261	0.027034829	0.278913344	0.085963801
2020-02-05T11:15:00	0.3362	2.193		0.909576354	1.235540584	0.026823067	0.276728635	0.085290453
2020-02-05T11:20:00	0.3359	2.211		0.908659930	1.233947140	0.026770477	0.276186080	0.085123232
2020-02-05T11:25:00	0.3383	2.221		0.916034864	1.246792629	0.027195322	0.280569122	0.086474128
2020-02-05T11:30:00	0.3393	2.237		0.919106956	1.252158515	0.027373394	0.282406264	0.087040353
2020-02-05T11:35:00	0.3387	2.254		0.917272764	1.248953752	0.027266998	0.281308595	0.086702041
2020-02-05T11:40:00	0.3405	2.272		0.922794753	1.258611486	0.027588012	0.284620437	0.087722783
2020-02-05T11:45:00	0.3374	2.285		0.913294889	1.242014277	0.027037046	0.278936224	0.085970853
2020-02-05T11:50:00	0.3379	2.298		0.914835024	1.244699316	0.027125949	0.279853420	0.086253542
2020-02-05T11:55:00	0.3361	2.322		0.909313063	1.235082703	0.026807952	0.276572697	0.085242391
2020-02-05T12:00:00	0.3369	2.344		0.911776146	1.239368699	0.026949537	0.278033410	0.085692597
2020-02-05T12:05:00	0.3383	2.359		0.916078784	1.246869279	0.027197863	0.280595339	0.086482209
2020-02-05T12:10:00	0.3388	2.369		0.917617850	1.249556458	0.027286998	0.281514929	0.086765635
2020-02-05T12:15:00	0.3405	2.381		0.922833118	1.258678685	0.027590250	0.284643522	0.087729898
2020-02-05T12:20:00	0.3399	2.394		0.921000626	1.255470502	0.027483483	0.283542029	0.087390407
2020-02-05T12:25:00	0.3407	2.407		0.923456550	1.259770856	0.027626626	0.285018804	0.087845563
2020-02-05T12:30:00	0.3401	2.429		0.921624342	1.256562101	0.027519797	0.283916670	0.087505875
2020-02-05T12:35:00	0.3398	2.444		0.920710666	1.254963151	0.027466610	0.283367955	0.087336756
2020-02-05T12:40:00	0.3393	2.452		0.919183756	1.252292771	0.027377854	0.282452276	0.087054535
2020-02-05T12:45:00	0.3389	2.446		0.917962907	1.250159224	0.027307004	0.281721330	0.086829250
2020-02-05T12:50:00	0.3379	2.440		0.914900922	1.244814252	0.027129757	0.279892702	0.086265649
2020-02-05T12:55:00	0.3372	2.433		0.912757790	1.241078430	0.027006081	0.278616761	0.085872392
2020-02-05T13:00:00	0.3368	2.428		0.911534984	1.238948805	0.026935656	0.277890202	0.085648459
2020-02-05T13:05:00	0.3354	2.425		0.907238465	1.231477096	0.026689019	0.275345693	0.084864217
2020-02-05T13:10:00	0.3380	2.424		0.915229739	1.245387812	0.027148760	0.280088754	0.086326074
2020-02-05T13:15:00	0.3371	2.433		0.912472730	1.240581847	0.026989655	0.278447291	0.085820159
2020-02-05T13:20:00	0.3379	2.437		0.914933871	1.244871721	0.027131661	0.279912344	0.086271703
2020-02-05T13:25:00	0.3365	2.440		0.910640999	1.237392733	0.026884234	0.277359688	0.085484949
2020-02-05T13:30:00	0.3353	2.440		0.906958513	1.230990854	0.026672993	0.275180350	0.084813257
2020-02-05T13:35:00	0.3333	2.439		0.900809814	1.220329695	0.026322344	0.271562771	0.083698283
2020-02-05T13:40:00	0.3362	2.437		0.909735816	1.235817931	0.026832223	0.276823103	0.085319569
2020-02-05T13:45:00	0.3341	2.439		0.903283648	1.224614817	0.026463112	0.273015049	0.084145890
2020-02-05T13:50:00	0.3356	2.441		0.907902832	1.232631316	0.026727074	0.275738298	0.084985221
2020-02-05T13:55:00	0.3375	2.444		0.913744688	1.242798217	0.027062994	0.279203919	0.086053360
2020-02-05T14:00:00	0.3370	2.450		0.912215125	1.240133158	0.026974815	0.278294193	0.085772973
2020-02-05T14:05:00	0.3370	2.455		0.912220620	1.240142728	0.026975131	0.278297458	0.085773979
2020-02-05T14:10:00	0.3352	2.452		0.906695050	1.230533316	0.026657915	0.275024796	0.084765313
2020-02-05T14:15:00	0.3360	2.454		0.909159744	1.234816101	0.026799152	0.276481914	0.085214411
2020-02-05T14:20:00	0.3368	2.465		0.911622921	1.239101909	0.026940718	0.277942417	0.085664552
2020-02-05T14:25:00	0.3366	2.475		0.910706966	1.237507531	0.026888027	0.277398815	0.085497009
2020-02-05T14:30:00	0.3376	2.488		0.913783139	1.242865242	0.027065213	0.279226810	0.086060415
2020-02-05T14:35:00	0.3367	2.491		0.911025134	1.238061268	0.026906323	0.277587574	0.085555186
2020-02-05T14:40:00	0.3390	2.488		0.918089113	1.250379717	0.027314324	0.281796843	0.086852524
2020-02-05T14:45:00	0.3383	2.486		0.915947684	1.246640484	0.027190278	0.280517085	0.086458090
2020-02-05T14:50:00	0.3384	2.492		0.916259946	1.247185470	0.027208347	0.280703497	0.086515544
2020-02-05T14:55:00	0.3376	2.493		0.913810604	1.242913117	0.027066798	0.279243161	0.086065454
2020-02-05T15:00:00	0.3366	2.488		0.910745447	1.237574498	0.026890239	0.277421641	0.085504044
2020-02-05T15:05:00	0.3381	2.479		0.915356032	1.245608133	0.027156061	0.280164075	0.086349289
2020-02-05T15:10:00	0.3381	2.465		0.915361523	1.245617712	0.027156378	0.280167350	0.086350298
2020-02-05T15:15:00	0.3389	2.456		0.917820894	1.249911133	0.027298769	0.281636372	0.086803065
2020-02-05T15:20:00	0.3393	2.451		0.919052757	1.252063772	0.027370247	0.282373795	0.087030346
2020-02-05T15:25:00	0.3401	2.444		0.921509870	1.256361731	0.027513130	0.283847891	0.087484677
2020-02-05T15:30:00	0.3379	2.435		0.914769784	1.244585534	0.027122180	0.279814534	0.086241557
2020-02-05T15:35:00	0.3394	2.426		0.919375749	1.252628424	0.027389006	0.282567323	0.087089993
2020-02-05T15:40:00	0.3397	2.418		0.920300696	1.254245949	0.027442764	0.283121936	0.087260930
2020-02-05T15:45:00	0.3407	2.413		0.923369530	1.259618388	0.027621547	0.284966405	0.087829414
2020-02-05T15:50:00	0.3403	2.412		0.922149952	1.257482283	0.027550419	0.284232599	0.087603247
2020-02-05T15:55:00	0.3395	2.409		0.919704200	1.253202719	0.027408089	0.282764198	0.087150672
2020-02-05T16:00:00	0.3387	2.404		0.917256959	1.248926151	0.027266082	0.281299147	0.086699129
2020-02-05T16:05:00	0.3386	2.397		0.917037109	1.248542235	0.027253345	0.281167740	0.086658628
2020-02-05T16:10:00	0.3409	2.392		0.924171744	1.261024232	0.027668388	0.285449663	0.087978358
2020-02-05T16:15:00	0.3398	2.386		0.920582946	1.254739700	0.027459180	0.283291298	0.087313129
2020-02-05T16:20:00	0.3410	2.385		0.924345122	1.261328149	0.027678518	0.285554167	0.088010568
2020-02-05T16:25:00	0.3417	2.378		0.926574202	1.265238045	0.027808935	0.286899654	0.088425260
2020-02-05T16:30:00	0.3405	2.367		0.922681286	1.258412750	0.027581395	0.284552167	0.087701741
2020-02-05T16:35:00	0.3422	2.355		0.927971138	1.267690701	0.027890840	0.287744653	0.088685697
2020-02-05T16:40:00	0.3412	2.344		0.924997961	1.262472774	0.027716678	0.285947860	0.088131907
2020-02-05T16:45:00	0.3411	2.332		0.924778534	1.262088007	0.027703849	0.285815501	0.088091113
2020-02-05T16:50:00	0.3420	2.320		0.927313305	1.266535489	0.027852253	0.287346561	0.088563001
2020-02-05T16:55:00	0.3426	2.308		0.929234984	1.269911262	0.027965058	0.288510344	0.088921690
2020-02-05T17:00:00	0.3439	2.295		0.933294577	1.277054057	0.028204198	0.290977509	0.089682094
2020-02-05T17:05:00	0.3445	2.283		0.934908081	1.279897293	0.028299561	0.291961358	0.089985326
2020-02-05T17:10:00	0.3439	2.269		0.933162099	1.276820720	0.028196376	0.290896812	0.089657223
2020-02-05T17:15:00	0.3435	2.257		0.932026533	1.274821290	0.028129378	0.290205610	0.089444188
2020-02-05T17:20:00	0.3437	2.244		0.932724119	1.276049410	0.028170525	0.290630111	0.089575023
2020-02-05T17:25:00	0.3421	2.231		0.927613738	1.267063025	0.027869872	0.287528332	0.088619024
2020-02-05T17:30:00	0.3433	2.217		0.931369361	1.273664737	0.028090646	0.289806019	0.089321030
2020-02-05T17:35:00	0.3417	2.204		0.926563251	1.265218824	0.027808293	0.286893035	0.088423220
2020-02-05T17:40:00	0.3429	2.192		0.930014148	1.271280989	0.028010868	0.288982960	0.089067355
2020-02-05T17:45:00	0.3430	2.181		0.930406408	1.271970777	0.028033946	0.289221056	0.089140738
2020-02-05T17:50:00	0.3432	2.172		0.931104274	1.273198328	0.028075031	0.289644922	0.089271378
2020-02-05T17:55:00	0.3433	2.163		0.931496428	1.273888331	0.028098133	0.289883258	0.089344836
2020-02-05T18:00:00	0.3439	2.156		0.933110650	1.276730105	0.028193338	0.290865475	0.089647564
2020-02-05T18:05:00	0.3419	2.147		0.927083054	1.266131244	0.027838754	0.287207295	0.088520078
2020-02-05T18:10:00	0.3414	2.138		0.925639742	1.263598398	0.027754221	0.286335178	0.088251283
2020-02-05T18:15:00	0.3431	2.126		0.930925716	1.272884201	0.028064516	0.289536438	0.089237942
2020-02-05T18:20:00	0.3422	2.116		0.927954717	1.267661859	0.027889876	0.287734712	0.088682633
2020-02-05T18:25:00	0.3444	2.106		0.934764727	1.279644582	0.028291081	0.291873871	0.089958362
2020-02-05T18:30:00	0.3419	2.094		0.927210257	1.266354564	0.027846211	0.287284228	0.088543789
2020-02-05T18:35:00	0.3424	2.084		0.928520376	1.268655521	0.027923080	0.288077265	0.088788211
2020-02-05T18:40:00	0.3449	2.074		0.936245267	1.282255470	0.028378730	0.292778128	0.090237062
2020-02-05T18:45:00	0.3466	2.063		0.941517405	1.291569469	0.028692077	0.296010864	0.091233423
2020-02-05T18:50:00	0.3467	2.052		0.941908553	1.292261531	0.028715401	0.296251498	0.091307589
2020-02-05T18:55:00	0.3476	2.042		0.944432617	1.296730854	0.028866168	0.297806936	0.091786990
2020-02-05T19:00:00	0.3449	2.029		0.936285752	1.282326892	0.028381129	0.292802876	0.090244690
2020-02-05T19:05:00	0.3460	2.017		0.939728363	1.288405934	0.028585530	0.294911643	0.090894632
2020-02-05T19:10:00	0.3457	2.008		0.938594638	1.286402744	0.028518126	0.294216246	0.090680304
2020-02-05T19:15:00	0.3450	1.998		0.936545037	1.282784355	0.028396495	0.292961406	0.090293551
2020-02-05T19:20:00	0.3445	1.989		0.935105103	1.280244642	0.028311218	0.292081621	0.090022392
2020-02-05T19:25:00	0.3429	1.984		0.930303439	1.271789692	0.028027887	0.289158545	0.089121472
2020-02-05T19:30:00	0.3440	1.977		0.933445699	1.277320252	0.028213122	0.291069578	0.089710471
2020-02-05T19:35:00	0.3459	1.969		0.939331547	1.287704658	0.028561928	0.294668142	0.090819583
2020-02-05T19:40:00	0.3465	1.962		0.941247526	1.291092054	0.028675990	0.295844899	0.091182271
2020-02-05T19:45:00	0.3466	1.953		0.941333851	1.291244754	0.028681135	0.295897980	0.091198631
2020-02-05T19:50:00	0.3463	1.949		0.940505509	1.289779778	0.028631786	0.295388855	0.091041714
2020-02-05T19:55:00	0.3461	1.941		0.939981971	1.288854201	0.028600620	0.295067325	0.090942615
2020-02-05T20:00:00	0.3430	1.936		0.930603649	1.272317679	0.028045555	0.289340820	0.089177651
2020-02-05T20:05:00	0.3411	1.929		0.924572305	1.261726424	0.027691794	0.285691135	0.088052782
2020-02-05T20:10:00	0.3412	1.922		0.924965095	1.262415139	0.027714756	0.285928032	0.088125796
2020-02-05T20:15:00	0.3427	1.915		0.929640514	1.270624091	0.027988895	0.288756271	0.088997487
2020-02-05T20:20:00	0.3416	1.910		0.926056586	1.264329711	0.027778620	0.286586903	0.088328867
2020-02-05T20:25:00	0.3430	1.905		0.930425070	1.272003597	0.028035045	0.289232386	0.089144230
2020-02-05T20:30:00	0.3441	1.897		0.933872669	1.278072461	0.028238344	0.291329792	0.089790671
2020-02-05T20:35:00	0.3423	1.891		0.928457922	1.268545796	0.027919413	0.288039432	0.088776550
2020-02-05T20:40:00	0.3429	1.883		0.930073358	1.271385101	0.028014351	0.289018892	0.089078430
2020-02-05T20:45:00	0.3431	1.877		0.930771281	1.272612534	0.028055423	0.289442627	0.089209029
2020-02-05T20:50:00	0.3423	1.870		0.928411886	1.268464918	0.027916710	0.288011547	0.088767956
2020-02-05T20:55:00	0.3432	1.866		0.930944376	1.272917026	0.028065615	0.289547773	0.089241436
2020-02-05T21:00:00	0.3434	1.861		0.931642148	1.274144765	0.028106720	0.289971849	0.089372140
2020-02-05T21:05:00	0.3433	1.858		0.931423082	1.273759266	0.028093811	0.289838673	0.089331094
2020-02-05T21:10:00	0.3433	1.855		0.931509616	1.273911538	0.028098910	0.289891275	0.089347306
2020-02-05T21:15:00	0.3426	1.852		0.929150652	1.269763045	0.027960102	0.288459217	0.088905932
2020-02-05T21:20:00	0.3439	1.851		0.933210330	1.276905668	0.028199223	0.290926189	0.089666277
2020-02-05T21:25:00	0.3433	1.850		0.931463615	1.273830590	0.028096200	0.289863311	0.089338688
2020-02-05T21:30:00	0.3433	1.851		0.931244539	1.273445110	0.028083293	0.289730157	0.089297648
2020-02-05T21:35:00	0.3419	1.849		0.927050204	1.266073575	0.027836829	0.287187429	0.088513955
2020-02-05T21:40:00	0.3416	1.848		0.926218931	1.264614573	0.027788126	0.286684973	0.088359093
2020-02-05T21:45:00	0.3421	1.848		0.927835264	1.267452060	0.027882867	0.287662402	0.088660346
2020-02-05T21:50:00	0.3423	1.849		0.928227736	1.268141418	0.027905899	0.287900019	0.088733582
2020-02-05T21:55:00	0.3413	1.852		0.925254748	1.262923108	0.027731696	0.286102797	0.088179661
2020-02-05T22:00:00	0.3414	1.851		0.925647472	1.263611958	0.027754673	0.286339845	0.088252721
2020-02-05T22:05:00	0.3398	1.852		0.920603909	1.254776374	0.027460399	0.283303879	0.087317007
2020-02-05T22:10:00	0.3401	1.852		0.921685618	1.256669364	0.027523366	0.283953492	0.087517224
2020-02-05T22:15:00	0.3425	1.851		0.928887671	1.269300888	0.027944651	0.288299814	0.088856803
2020-02-05T22:20:00	0.3430	1.853		0.930578549	1.272273532	0.028044077	0.289325578	0.089172953
2020-02-05T22:25:00	0.3429	1.851		0.930129347	1.271483552	0.028017644	0.289052873	0.089088903
2020-02-05T22:30:00	0.3425	1.852		0.929068570	1.269618789	0.027955279	0.288409458	0.088890596
2020-02-05T22:35:00	0.3437	1.852		0.932592903	1.275818365	0.028162783	0.290550236	0.089550404
2020-02-05T22:40:00	0.3442	1.854		0.934282231	1.278794160	0.028262550	0.291579519	0.089867640
2020-02-05T22:45:00	0.3429	1.855		0.930166673	1.271549187	0.028019840	0.289075527	0.089095885
2020-02-05T22:50:00	0.3428	1.856		0.929717425	1.270759300	0.027993417	0.288802926	0.089011867
2020-02-05T22:55:00	0.3443	1.856		0.934462888	1.279112552	0.028273231	0.291689712	0.089901602
2020-02-05T23:00:00	0.3450	1.856		0.936456674	1.282628448	0.028391258	0.292907375	0.090276898
2020-02-05T23:05:00	0.3454	1.855		0.937839279	1.285068765	0.028473266	0.293753438	0.090537663
2020-02-05T23:10:00	0.3457	1.855		0.938611327	1.286432224	0.028519117	0.294226476	0.090683457
2020-02-05T23:15:00	0.3459	1.853		0.939383229	1.287795984	0.028565001	0.294699849	0.090829356
2020-02-05T23:20:00	0.3457	1.854		0.938629951	1.286465121	0.028520224	0.294237892	0.090686976
2020-02-05T23:25:00	0.3442	1.851		0.934213431	1.278672916	0.028258483	0.291537561	0.089854708
2020-02-05T23:30:00	0.3449	1.848		0.936207341	1.282188562	0.028376483	0.292754944	0.090229917
2020-02-05T23:35:00	0.3440	1.844		0.933621239	1.277629486	0.028223490	0.291176544	0.089743439
2020-02-05T23:40:00	0.3450	1.837		0.936531209	1.282759956	0.028395676	0.292952950	0.090290944
2020-02-05T23:45:00	0.3461	1.831		0.940049049	1.288972775	0.028604612	0.295108510	0.090955309
2020-02-05T23:50:00	0.3456	1.827		0.938380751	1.286024961	0.028505419	0.294085156	0.090639901
2020-02-05T23:55:00	0.3466	1.822		0.941592157	1.291701718	0.028696533	0.296056843	0.091247594
2020-02-06T00:00:00	0.3489	1.817		0.948454584	1.303864904	0.029107323	0.300294885	0.092553800
2020-02-06T00:05:00	0.3471	1.811		0.943134679	1.294431865	0.028788585	0.297006520	0.091540294
2020-02-06T00:10:00	0.3467	1.808		0.941772489	1.292020776	0.028707286	0.296167779	0.091281786
2020-02-06T00:15:00	0.3476	1.804		0.944371995	1.296623440	0.028862542	0.297769524	0.091775459
2020-02-06T00:20:00	0.3477	1.803		0.944838215	1.297449600	0.028890437	0.298057309	0.091864157
2020-02-06T00:25:00	0.3466	1.802		0.941343139	1.291261185	0.028681688	0.295903691	0.091200391
2020-02-06T00:30:00	0.3458	1.798		0.939065358	1.287234316	0.028546101	0.294504861	0.090769258
2020-02-06T00:35:00	0.3436	1.795		0.932205665	1.275136613	0.028139941	0.290314584	0.089477774
2020-02-06T00:40:00	0.3455	1.791		0.938168788	1.285650618	0.028492830	0.293955277	0.090599871
2020-02-06T00:45:00	0.3458	1.784		0.938940773	1.287014205	0.028538695	0.294428458	0.090745710
2020-02-06T00:50:00	0.3476	1.778		0.944589396	1.297008658	0.028875547	0.297903700	0.091816814
2020-02-06T00:55:00	0.3475	1.774		0.944141745	1.296215506	0.028848771	0.297627455	0.091731672
2020-02-06T01:00:00	0.3480	1.767		0.945826268	1.299201145	0.028949603	0.298667721	0.092052292
2020-02-06T01:05:00	0.3475	1.762		0.944160344	1.296248455	0.028849883	0.297638930	0.091735209
2020-02-06T01:10:00	0.3454	1.756		0.937919559	1.285210516	0.028478032	0.293802606	0.090552817
2020-02-06T01:15:00	0.3471	1.750		0.942960172	1.294122888	0.028778162	0.296898997	0.091507154
2020-02-06T01:20:00	0.3463	1.744		0.940683299	1.290094156	0.028642374	0.295498088	0.091075381
2020-02-06T01:25:00	0.3465	1.742		0.941149943	1.290919445	0.028670174	0.295784902	0.091163779
2020-02-06T01:30:00	0.3464	1.738		0.940701913	1.290127073	0.028643482	0.295509526	0.091078906
2020-02-06T01:35:00	0.3456	1.738		0.938423771	1.286100943	0.028507975	0.294111520	0.090648027
2020-02-06T01:40:00	0.3443	1.738		0.934312427	1.278847377	0.028264335	0.291597936	0.089873316
2020-02-06T01:45:00	0.3445	1.738		0.935085148	1.280209461	0.028310038	0.292069440	0.090018638
2020-02-06T01:50:00	0.3418	1.737		0.926689153	1.265439800	0.027815670	0.286969135	0.088446674
2020-02-06T01:55:00	0.3423	1.737		0.928380952	1.268410574	0.027914894	0.287992811	0.088762181
2020-02-06T02:00:00	0.3426	1.735		0.929154808	1.269770350	0.027960346	0.288461736	0.088906709
2020-02-06T02:05:00	0.3422	1.732		0.928093775	1.267906106	0.027898037	0.287818902	0.088708581
2020-02-06T02:10:00	0.3427	1.728		0.929479242	1.270340593	0.027979414	0.288658456	0.088967340
2020-02-06T02:15:00	0.3430	1.722		0.930558572	1.272238396	0.028042902	0.289313447	0.089169214
2020-02-06T02:20:00	0.3426	1.714		0.929192143	1.269835966	0.027962540	0.288484370	0.088913685
2020-02-06T02:25:00	0.3439	1.706		0.933327341	1.277111768	0.028206132	0.290997469	0.089688246
2020-02-06T02:30:00	0.3425	1.697		0.928905024	1.269331381	0.027945670	0.288310330	0.088860044
2020-02-06T02:35:00	0.3425	1.690		0.929067254	1.269616476	0.027955201	0.288408660	0.088890350
2020-02-06T02:40:00	0.3399	1.682		0.920965124	1.255408379	0.027481417	0.283520712	0.087383837
2020-02-06T02:45:00	0.3406	1.674		0.923271826	1.259447207	0.027615845	0.284907579	0.087811283
2020-02-06T02:50:00	0.3409	1.664		0.924046664	1.260804996	0.027661082	0.285374284	0.087955126
2020-02-06T02:55:00	0.3401	1.658		0.921452755	1.256261761	0.027509804	0.283813577	0.087474101
2020-02-06T03:00:00	0.3385	1.653		0.916710663	1.247972260	0.027234439	0.280972684	0.086598510
2020-02-06T03:05:00	0.3384	1.647		0.916259911	1.247185410	0.027208345	0.280703476	0.086515537
2020-02-06T03:10:00	0.3399	1.638		0.921021240	1.255506573	0.027484683	0.283554406	0.087394222
2020-02-06T03:15:00	0.3389	1.630		0.917812141	1.249895844	0.027298262	0.281631137	0.086801452
2020-02-06T03:20:00	0.3410	1.622		0.924408888	1.261439933	0.027682244	0.285592608	0.088022415
2020-02-06T03:25:00	0.3401	1.615		0.921508864	1.256359970	0.027513071	0.283847287	0.087484490
2020-02-06T03:30:00	0.3402	1.613		0.921977728	1.257180744	0.027540383	0.284129059	0.087571335
2020-02-06T03:35:00	0.3415	1.610		0.925814305	1.263904631	0.027764437	0.286440578	0.088283768
2020-02-06T03:40:00	0.3415	1.611		0.925976659	1.264189474	0.027773941	0.286538627	0.088313988
2020-02-06T03:45:00	0.3396	1.610		0.920014192	1.253744832	0.027426106	0.282950079	0.087207962
2020-02-06T03:50:00	0.3422	1.610		0.928136905	1.267981865	0.027900568	0.287845017	0.088716630
2020-02-06T03:55:00	0.3418	1.611		0.926769655	1.265581100	0.027820386	0.287017799	0.088461673
2020-02-06T04:00:00	0.3410	1.612		0.924483645	1.261570989	0.027686613	0.285637678	0.088036306
2020-02-06T04:05:00	0.3398	1.611		0.920545323	1.254673880	0.027456991	0.283268720	0.087306170
2020-02-06T04:10:00	0.3410	1.611		0.924264190	1.261186279	0.027673789	0.285505383	0.087995532
2020-02-06T04:15:00	0.3406	1.612		0.923082759	1.259115980	0.027604813	0.284793763	0.087776204
2020-02-06T04:20:00	0.3400	1.614		0.921288275	1.255973886	0.027500227	0.283714774	0.087443649
2020-02-06T04:25:00	0.3407	1.619		0.923475694	1.259804401	0.027627743	0.285030333	0.087849117
2020-02-06T04:30:00	0.3407	1.621		0.923519047	1.259880364	0.027630274	0.285056440	0.087857163
2020-02-06T04:35:00	0.3395	1.626		0.919886275	1.253521121	0.027418670	0.282873368	0.087184319
2020-02-06T04:40:00	0.3402	1.630		0.921768129	1.256813803	0.027528172	0.284003077	0.087532507
2020-02-06T04:45:00	0.3398	1.632		0.920585965	1.254744982	0.027459356	0.283293110	0.087313688
2020-02-06T04:50:00	0.3374	1.634		0.913268359	1.241968044	0.027035516	0.278920440	0.085965988
2020-02-06T04:55:00	0.3364	1.634		0.910240785	1.236696363	0.026861231	0.277122373	0.085411807
2020-02-06T05:00:00	0.3365	1.635		0.910591487	1.237306575	0.026881388	0.277330323	0.085475899
2020-02-06T05:05:00	0.3355	1.636		0.907561888	1.232038934	0.026707541	0.275536779	0.084923111
2020-02-06T05:10:00	0.3335	1.641		0.901452200	1.221441875	0.026358857	0.271939474	0.083814387
2020-02-06T05:15:00	0.3338	1.648		0.902111533	1.222583795	0.026396363	0.272326416	0.083933646
2020-02-06T05:20:00	0.3350	1.650		0.905847533	1.229061932	0.026609445	0.274524736	0.084611190
2020-02-06T05:25:00	0.3337	1.653		0.901890849	1.222201541	0.026383807	0.272196869	0.083893719
2020-02-06T05:30:00	0.3350	1.659		0.905934619	1.229213093	0.026614423	0.274576097	0.084627020
2020-02-06T05:35:00	0.3358	1.663		0.908437798	1.233561021	0.026757739	0.276054659	0.085082727
2020-02-06T05:40:00	0.3342	1.668		0.903560581	1.225094869	0.026478896	0.273177892	0.084196080
2020-02-06T05:45:00	0.3346	1.676		0.904834887	1.227304745	0.026551595	0.273927910	0.084427242
2020-02-06T05:50:00	0.3335	1.681		0.901185130	1.220979444	0.026343674	0.271782825	0.083766106
2020-02-06T05:55:00	0.3359	1.687		0.908611856	1.233863572	0.026767720	0.276157635	0.085114465
2020-02-06T06:00:00	0.3387	1.695		0.917251749	1.248917052	0.027265781	0.281296032	0.086698169
2020-02-06T06:05:00	0.3380	1.699		0.915147824	1.245244917	0.027144025	0.280039907	0.086311019
2020-02-06T06:10:00	0.3399	1.704		0.921017041	1.255499226	0.027484438	0.283551885	0.087393445
2020-02-06T06:15:00	0.3386	1.708		0.917075320	1.248608959	0.027255559	0.281190577	0.086665667
2020-02-06T06:20:00	0.3409	1.712		0.924166542	1.261015115	0.027668085	0.285446528	0.087977392
2020-02-06T06:25:00	0.3430	1.717		0.930328333	1.271833471	0.028029352	0.289173657	0.089126130
2020-02-06T06:30:00	0.3395	1.723		0.919658341	1.253122530	0.027405424	0.282736705	0.087142199
2020-02-06T06:35:00	0.3388	1.729		0.917555678	1.249447864	0.027283394	0.281477749	0.086754176
2020-02-06T06:40:00	0.3390	1.736		0.918212364	1.250595060	0.027321473	0.281870599	0.086875256
2020-02-06T06:45:00	0.3389	1.741		0.917949154	1.250135197	0.027306207	0.281713102	0.086826714
2020-02-06T06:50:00	0.3387	1.748		0.917379263	1.249139744	0.027273170	0.281372264	0.086721664
2020-02-06T06:55:00	0.3392	1.755		0.918955747	1.251894199	0.027364614	0.282315683	0.087012435
2020-02-06T07:00:00	0.3391	1.762		0.918385999	1.250898459	0.027331546	0.281974524	0.086907287
2020-02-06T07:05:00	0.3411	1.770		0.924556633	1.261698948	0.027690878	0.285681685	0.088049870
2020-02-06T07:10:00	0.3399	1.779		0.920924798	1.255337815	0.027479070	0.283496500	0.087376375
2020-02-06T07:15:00	0.3413	1.786		0.925255511	1.262924446	0.027731741	0.286103257	0.088179802
2020-02-06T07:20:00	0.3398	1.794		0.920705148	1.254953496	0.027466289	0.283364643	0.087335735
2020-02-06T07:25:00	0.3383	1.804		0.916149630	1.246992927	0.027201963	0.280637634	0.086495244
2020-02-06T07:30:00	0.3419	1.814		0.927221483	1.266374275	0.027846869	0.287291018	0.088545882
2020-02-06T07:35:00	0.3402	1.824		0.921754423	1.256789810	0.027527374	0.283994840	0.087529968
2020-02-06T07:40:00	0.3403	1.833		0.922104121	1.257402037	0.027547749	0.284205043	0.087594755
2020-02-06T07:45:00	0.3419	1.843		0.927045492	1.266065302	0.027836552	0.287184579	0.088513076
2020-02-06T07:50:00	0.3409	1.851		0.924028285	1.260772783	0.027660009	0.285363209	0.087951713
2020-02-06T07:55:00	0.3404	1.862		0.922540515	1.258166208	0.027573186	0.284467481	0.087675640
2020-02-06T08:00:00	0.3405	1.874		0.922890145	1.258778573	0.027593576	0.284677838	0.087740474
2020-02-06T08:05:00	0.3426	1.885		0.929359660	1.270130398	0.027972385	0.288585939	0.088944989
2020-02-06T08:10:00	0.3430	1.891		0.930320127	1.271819040	0.028028869	0.289168676	0.089124594
2020-02-06T08:15:00	0.3432	1.898		0.930974736	1.272970435	0.028067402	0.289566217	0.089247120
2020-02-06T08:20:00	0.3428	1.911		0.929795270	1.270896156	0.027997995	0.288850152	0.089026422
2020-02-06T08:25:00	0.3423	1.924		0.928309627	1.268285275	0.027910706	0.287949613	0.088748867
2020-02-06T08:30:00	0.3438	1.934		0.932937925	1.276425912	0.028183143	0.290760287	0.089615144
2020-02-06T08:35:00	0.3437	1.945		0.932675675	1.275964107	0.028167666	0.290600620	0.089565933
2020-02-06T08:40:00	0.3446	1.959		0.935467581	1.280883786	0.028332672	0.292302952	0.090090609
2020-02-06T08:45:00	0.3445	1.972		0.935205494	1.280421647	0.028317159	0.292142911	0.090041283
2020-02-06T08:50:00	0.3440	1.984		0.933416395	1.277268633	0.028211391	0.291051724	0.089704968
2020-02-06T08:55:00	0.3451	1.993		0.936818237	1.283266437	0.028412691	0.293128495	0.090345049
2020-02-06T09:00:00	0.3450	2.006		0.936556238	1.282804118	0.028397159	0.292968255	0.090295662
2020-02-06T09:05:00	0.3469	2.018		0.942394422	1.293121386	0.028744388	0.296550557	0.091399762
2020-02-06T09:10:00	0.3470	2.029		0.942742338	1.293737239	0.028765156	0.296764808	0.091465796
2020-02-06T09:15:00	0.3450	2.039		0.936685874	1.283032864	0.028404844	0.293047535	0.090320096
2020-02-06T09:20:00	0.3472	2.048		0.943438082	1.294969128	0.028806710	0.297193515	0.091597928
2020-02-06T09:25:00	0.3474	2.055		0.943785909	1.295585165	0.028827497	0.297407971	0.091664025
2020-02-06T09:30:00	0.3485	2.067		0.947179066	1.301600774	0.029030722	0.299504605	0.092310228
2020-02-06T09:35:00	0.3501	2.078		0.952089955	1.310326359	0.029326266	0.302553684	0.093249984
2020-02-06T09:40:00	0.3489	2.087		0.948482745	1.303914909	0.029109015	0.300312346	0.092559182
2020-02-06T09:45:00	0.3485	2.098		0.947308364	1.301830215	0.029038482	0.299584661	0.092334902
2020-02-06T09:50:00	0.3487	2.107		0.947960234	1.302987218	0.029077621	0.299988459	0.092459357
2020-02-06T09:55:00	0.3478	2.118		0.945263159	1.298202796	0.028915875	0.298319750	0.091945044
2020-02-06T10:00:00	0.3466	2.131		0.941345038	1.291264544	0.028681802	0.295904859	0.091200751
2020-02-06T10:05:00	0.3454	2.143		0.937682342	1.284791679	0.028463951	0.293657335	0.090508042
2020-02-06T10:10:00	0.3458	2.159		0.938899970	1.286942118	0.028536270	0.294403437	0.090737999
2020-02-06T10:15:00	0.3451	2.176		0.936761372	1.283166089	0.028409320	0.293093712	0.090334329
2020-02-06T10:20:00	0.3444	2.195		0.934621644	1.279392369	0.028282619	0.291786565	0.089931453
2020-02-06T10:25:00	0.3440	2.209		0.933397263	1.277234932	0.028210261	0.291040067	0.089701375
2020-02-06T10:30:00	0.3416	2.223		0.926056863	1.264330197	0.027778636	0.286587070	0.088328918
2020-02-06T10:35:00	0.3411	2.244		0.924523762	1.261641321	0.027688957	0.285661866	0.088043761
2020-02-06T10:40:00	0.3407	2.269		0.923296313	1.259490108	0.027617274	0.284922321	0.087815827
2020-02-06T10:45:00	0.3406	2.296		0.922987337	1.258948823	0.027599246	0.284736330	0.087758502
2020-02-06T10:50:00	0.3380	2.321		0.915014261	1.245011939	0.027136306	0.279960270	0.086286474
2020-02-06T10:55:00	0.3368	2.351		0.911327552	1.238587683	0.026923720	0.277767056	0.085610504
2020-02-06T11:00:00	0.3388	2.378		0.917462869	1.249285764	0.027278015	0.281422252	0.086737071
2020-02-06T11:05:00	0.3392	2.404		0.918686613	1.251423800	0.027348991	0.282154500	0.086962757
2020-02-06T11:10:00	0.3418	2.425		0.926952901	1.265902761	0.027831125	0.287128590	0.088495820
2020-02-06T11:15:00	0.3393	2.436		0.919294231	1.252485906	0.027384271	0.282518472	0.087074937
2020-02-06T11:20:00	0.3413	2.449		0.925417403	1.263208391	0.027741211	0.286200962	0.088209916
2020-02-06T11:25:00	0.3425	2.460		0.929085749	1.269648979	0.027956288	0.288419871	0.088893805
2020-02-06T11:30:00	0.3398	2.478		0.920818358	1.255151573	0.027472876	0.283432599	0.087356680
2020-02-06T11:35:00	0.3412	2.502		0.925103112	1.262657172	0.027722827	0.286011299	0.088151460
2020-02-06T11:40:00	0.3410	2.524		0.924488153	1.261578892	0.027686876	0.285640396	0.088037144
2020-02-06T11:45:00	0.3412	2.550		0.925097634	1.262647566	0.027722507	0.286007994	0.088150441
2020-02-06T11:50:00	0.3385	2.573		0.916822041	1.248166714	0.027240888	0.281039225	0.086619019
2020-02-06T11:55:00	0.3378	2.594		0.914671697	1.244414471	0.027116514	0.279756075	0.086223539
2020-02-06T12:00:00	0.3411	2.617		0.924783319	1.262096396	0.027704129	0.285818387	0.088092003
2020-02-06T12:05:00	0.3418	2.639		0.926922788	1.265849900	0.027829360	0.287110382	0.088490208
2020-02-06T12:10:00	0.3421	2.664		0.927837793	1.267456502	0.027883016	0.287663933	0.088660818
2020-02-06T12:15:00	0.3418	2.687		0.926917313	1.265840289	0.027829040	0.287107071	0.088489188
2020-02-06T12:20:00	0.3410	2.708		0.924466239	1.261540474	0.027685595	0.285627184	0.088033072
2020-02-06T12:25:00	0.3427	2.721		0.929664443	1.270666157	0.027990302	0.288770786	0.089001961
2020-02-06T12:30:00	0.3415	2.736		0.925991147	1.264214894	0.027774789	0.286547377	0.088316685
2020-02-06T12:35:00	0.3418	2.754		0.926906363	1.265821067	0.027828398	0.287100450	0.088487147
2020-02-06T12:40:00	0.3417	2.772		0.926597664	1.265279222	0.027810309	0.286913834	0.088429630
2020-02-06T12:45:00	0.3395	2.794		0.919857880	1.253471463	0.027417020	0.282856341	0.087179071
2020-02-06T12:50:00	0.3400	2.811		0.921387276	1.256147156	0.027505991	0.283774242	0.087461977
2020-02-06T12:55:00	0.3385	2.829		0.916786363	1.248104423	0.027238822	0.281017909	0.086612449
2020-02-06T13:00:00	0.3365	2.843		0.910644513	1.237398848	0.026884436	0.277361772	0.085485592
2020-02-06T13:05:00	0.3361	2.857		0.909412813	1.235256167	0.026813678	0.276631770	0.085260598
2020-02-06T13:10:00	0.3346	2.865		0.904798127	1.227240974	0.026549496	0.273906258	0.084420569
2020-02-06T13:15:00	0.3359	2.881		0.908792696	1.234177939	0.026778093	0.276264645	0.085147447
2020-02-06T13:20:00	0.3331	2.901		0.900175348	1.219231604	0.026286308	0.271190997	0.083583699
2020-02-06T13:25:00	0.3361	2.919		0.909401815	1.235237041	0.026813046	0.276625256	0.085258591
2020-02-06T13:30:00	0.3351	2.935		0.906325024	1.229890827	0.026636747	0.274806408	0.084698004
2020-02-06T13:35:00	0.3350	2.948		0.906014738	1.229352165	0.026619004	0.274623352	0.084641584
2020-02-06T13:40:00	0.3341	2.960		0.903243109	1.224544549	0.026460802	0.272991216	0.084138544
2020-02-06T13:45:00	0.3334	2.974		0.901085454	1.220806871	0.026338008	0.271724374	0.083748091
2020-02-06T13:50:00	0.3335	2.989		0.901390613	1.221335232	0.026355356	0.271903346	0.083803252
2020-02-06T13:55:00	0.3329	3.003		0.899540013	1.218132385	0.026250251	0.270818997	0.083469045
2020-02-06T14:00:00	0.3314	3.016		0.894913888	1.210139837	0.025988529	0.268118863	0.082636837
2020-02-06T14:05:00	0.3326	3.027		0.898610255	1.216524447	0.026197533	0.270275119	0.083301416
2020-02-06T14:10:00	0.3335	3.037		0.901379593	1.221316149	0.026354729	0.271896881	0.083801259
2020-02-06T14:15:00	0.3329	3.045		0.899528988	1.218113312	0.026249625	0.270812544	0.083467056
2020-02-06T14:20:00	0.3330	3.057		0.899834266	1.218641438	0.026266947	0.270991252	0.083522136
2020-02-06T14:25:00	0.3320	3.066		0.896750088	1.213309858	0.026092237	0.269188802	0.082966603
2020-02-06T14:30:00	0.3317	3.065		0.895822438	1.211707969	0.026039815	0.268647972	0.082799914
2020-02-06T14:35:00	0.3335	3.065		0.901365818	1.221292297	0.026353946	0.271888801	0.083798769
2020-02-06T14:40:00	0.3309	3.069		0.893349485	1.207441518	0.025900352	0.267209162	0.082356459
2020-02-06T14:45:00	0.3314	3.072		0.894889052	1.210096981	0.025987128	0.268104407	0.082632382
2020-02-06T14:50:00	0.3331	3.073		0.900125741	1.219145765	0.026283492	0.271161941	0.083574744
2020-02-06T14:55:00	0.3328	3.074		0.899198877	1.217542325	0.026230901	0.270619373	0.083407519
2020-02-06T15:00:00	0.3331	3.072		0.900120230	1.219136227	0.026283179	0.271158713	0.083573749
2020-02-06T15:05:00	0.3353	3.073		0.906887747	1.230867953	0.026668943	0.275138564	0.084800378
2020-02-06T15:10:00	0.3358	3.077		0.908422097	1.233533732	0.026756839	0.276045371	0.085079864
2020-02-06T15:15:00	0.3351	3.080		0.906267239	1.229790504	0.026633442	0.274772312	0.084687495
2020-02-06T15:20:00	0.3362	3.080		0.909645854	1.235661460	0.026827057	0.276769806	0.085303142
2020-02-06T15:25:00	0.3370	3.077		0.912100489	1.239933508	0.026968213	0.278226078	0.085751979
2020-02-06T15:30:00	0.3387	3.075		0.917314690	1.249026972	0.027269428	0.281333659	0.086709766
2020-02-06T15:35:00	0.3392	3.072		0.918845054	1.251700718	0.027358188	0.282249383	0.086992001
2020-02-06T15:40:00	0.3400	3.070		0.921294070	1.255984028	0.027500565	0.283718254	0.087444721
2020-02-06T15:45:00	0.3402	3.069		0.921904035	1.257051726	0.027536090	0.284084761	0.087557682
2020-02-06T15:50:00	0.3401	3.066		0.921594952	1.256510656	0.027518085	0.283899011	0.087500432
2020-02-06T15:55:00	0.3392	3.061		0.918834082	1.251681541	0.027357551	0.282242812	0.086989976
2020-02-06T16:00:00	0.3388	3.057		0.917604895	1.249533829	0.027286247	0.281507181	0.086763247
2020-02-06T16:05:00	0.3395	3.056		0.919620744	1.253056788	0.027403239	0.282714167	0.087135252
2020-02-06T16:10:00	0.3372	3.052		0.912741585	1.241050199	0.027005147	0.278607125	0.085869422
2020-02-06T16:15:00	0.3388	3.048		0.917520805	1.249386954	0.027281373	0.281456895	0.086747749
2020-02-06T16:20:00	0.3391	3.043		0.918617061	1.251302246	0.027344954	0.282112854	0.086949921
2020-02-06T16:25:00	0.3386	3.039		0.916953598	1.248396416	0.027248508	0.281117834	0.086643247
2020-02-06T16:30:00	0.3382	3.036		0.915903068	1.246562624	0.027187697	0.280490456	0.086449883
2020-02-06T16:35:00	0.3372	3.031		0.912703611	1.240984042	0.027002959	0.278584546	0.085862463
2020-02-06T16:40:00	0.3363	3.025		0.909808863	1.235944987	0.026836419	0.276866384	0.085332908
2020-02-06T16:45:00	0.3369	3.018		0.911828634	1.239460095	0.026952559	0.278064584	0.085702205
2020-02-06T16:50:00	0.3368	3.017		0.911391074	1.238698264	0.026927375	0.277804763	0.085622126
2020-02-06T16:55:00	0.3382	3.016		0.915865123	1.246496407	0.027185502	0.280467810	0.086442903
2020-02-06T17:00:00	0.3388	3.015		0.917575198	1.249481959	0.027284526	0.281489422	0.086757774
2020-02-06T17:05:00	0.3386	3.014		0.917138264	1.248718874	0.027259205	0.281228198	0.086677262
2020-02-06T17:10:00	0.3368	3.010		0.911483536	1.238859234	0.026932696	0.277859656	0.085639044
2020-02-06T17:15:00	0.3379	3.010		0.914730160	1.244516429	0.027119891	0.279790917	0.086234278
2020-02-06T17:20:00	0.3386	3.008		0.917054165	1.248572018	0.027254333	0.281177934	0.086661770
2020-02-06T17:25:00	0.3385	3.005		0.916617175	1.247809047	0.027229026	0.280916837	0.086581297
2020-02-06T17:30:00	0.3382	3.004		0.915873359	1.246510778	0.027185978	0.280472725	0.086444418
2020-02-06T17:35:00	0.3391	3.000		0.918503303	1.251103444	0.027338353	0.282044745	0.086928930
2020-02-06T17:40:00	0.3381	2.995		0.915612740	1.246056013	0.027170904	0.280317210	0.086396487
2020-02-06T17:45:00	0.3379	2.992		0.914868738	1.244758117	0.027127897	0.279873516	0.086259736
2020-02-06T17:50:00	0.3374	2.989		0.913203720	1.241855404	0.027031789	0.278881983	0.085954136
2020-02-06T17:55:00	0.3377	2.990		0.914301156	1.243768330	0.027095114	0.279535296	0.086155493
2020-02-06T18:00:00	0.3365	2.988		0.910486061	1.237123124	0.026875328	0.277267801	0.085456629
2020-02-06T18:05:00	0.3373	2.984		0.913119538	1.241708714	0.027026935	0.278831904	0.085938701
2020-02-06T18:10:00	0.3386	2.982		0.916978297	1.248439542	0.027249939	0.281132594	0.086647796
2020-02-06T18:15:00	0.3389	2.979		0.917768067	1.249818853	0.027295707	0.281604773	0.086793326
2020-02-06T18:20:00	0.3395	2.973		0.919783835	1.253341976	0.027412717	0.282811943	0.087165387
2020-02-06T18:25:00	0.3364	2.970		0.910140847	1.236522495	0.026855489	0.277063131	0.085393548
2020-02-06T18:30:00	0.3368	2.967		0.911546255	1.238968428	0.026936305	0.277896894	0.085650522
2020-02-06T18:35:00	0.3373	2.966		0.912951169	1.241415345	0.027017228	0.278731758	0.085907835
2020-02-06T18:40:00	0.3355	2.963		0.907597961	1.232101606	0.026709608	0.275558097	0.084929682
2020-02-06T18:45:00	0.3374	2.960		0.913304381	1.242030818	0.027037594	0.278941872	0.085972594
2020-02-06T18:50:00	0.3399	2.959		0.920841576	1.255192198	0.027474227	0.283446537	0.087360976
2020-02-06T18:55:00	0.3406	2.958		0.923162050	1.259254885	0.027609439	0.284841492	0.087790914
2020-02-06T19:00:00	0.3397	2.957		0.920274837	1.254200717	0.027441260	0.283106422	0.087256149
2020-02-06T19:05:00	0.3383	2.955		0.916158664	1.247008694	0.027202485	0.280643027	0.086496906
2020-02-06T19:10:00	0.3400	2.952		0.921240213	1.255889773	0.027497429	0.283685907	0.087434752
2020-02-06T19:15:00	0.3412	2.951		0.925091186	1.262636257	0.027722130	0.286004103	0.088149242
2020-02-06T19:20:00	0.3401	2.951		0.921592697	1.256506709	0.027517954	0.283897656	0.087500015
2020-02-06T19:25:00	0.3412	2.950		0.924831164	1.262180290	0.027706926	0.285847245	0.088100897
2020-02-06T19:30:00	0.3397	2.950		0.920413223	1.254442789	0.027449308	0.283189451	0.087281739
2020-02-06T19:35:00	0.3413	2.943		0.925183334	1.262797860	0.027727519	0.286059703	0.088166379
2020-02-06T19:40:00	0.3387	2.942		0.917393782	1.249165102	0.027274011	0.281380944	0.086724340
2020-02-06T19:45:00	0.3385	2.939		0.916650110	1.247866544	0.027230932	0.280936510	0.086587361
2020-02-06T19:50:00	0.3375	2.935		0.913758212	1.242821791	0.027063774	0.279211970	0.086055841
2020-02-06T19:55:00	0.3386	2.933		0.917002996	1.248482670	0.027251369	0.281147354	0.086652345
2020-02-06T20:00:00	0.3387	2.929		0.917179428	1.248790756	0.027261590	0.281252802	0.086684845
2020-02-06T20:05:00	0.3387	2.931		0.917355851	1.249098857	0.027271813	0.281358267	0.086717350
2020-02-06T20:10:00	0.3371	2.927		0.912315602	1.240308159	0.026980602	0.278353902	0.085791376
2020-02-06T20:15:00	0.3390	2.924		0.918321929	1.250786503	0.027327829	0.281936174	0.086895467
2020-02-06T20:20:00	0.3396	2.921		0.920030958	1.253774154	0.027427081	0.282960134	0.087211061
2020-02-06T20:25:00	0.3417	2.920		0.926637760	1.265349596	0.027812658	0.286938069	0.088437100
2020-02-06T20:30:00	0.3406	2.918		0.923140614	1.259217333	0.027608188	0.284828588	0.087786937
2020-02-06T20:35:00	0.3394	2.918		0.919333914	1.252555283	0.027386576	0.282542252	0.087082266
2020-02-06T20:40:00	0.3383	2.917		0.916137191	1.246971217	0.027201243	0.280630207	0.086492955
2020-02-06T20:45:00	0.3384	2.915		0.916313661	1.247279227	0.027211455	0.280735570	0.086525429
2020-02-06T20:50:00	0.3365	2.915		0.910657769	1.237421917	0.026885198	0.277369634	0.085488015
2020-02-06T20:55:00	0.3367	2.914		0.911141644	1.238264065	0.026913025	0.277656714	0.085576496
2020-02-06T21:00:00	0.3367	2.915		0.911318334	1.238571635	0.026923190	0.277761584	0.085608818
2020-02-06T21:05:00	0.3394	2.912		0.919472333	1.252797290	0.027394616	0.282625208	0.087107834
2020-02-06T21:10:00	0.3395	2.910		0.919648656	1.253105593	0.027404861	0.282730899	0.087140409
2020-02-06T21:15:00	0.3399	2.909		0.921050738	1.255558192	0.027486400	0.283572119	0.087399681
2020-02-06T21:20:00	0.3389	2.907		0.917855381	1.249971380	0.027300769	0.281657003	0.086809424
2020-02-06T21:25:00	0.3384	2.907		0.916498357	1.247601626	0.027222147	0.280845868	0.086559424
2020-02-06T21:30:00	0.3383	2.903		0.916061306	1.246838776	0.027196852	0.280584906	0.086478993
2020-02-06T21:35:00	0.3382	2.903		0.915624208	1.246076022	0.027171567	0.280324052	0.086398595
2020-02-06T21:40:00	0.3395	2.902		0.919787063	1.253347622	0.027412904	0.282813879	0.087165984
2020-02-06T21:45:00	0.3392	2.901		0.918737274	1.251512342	0.027351932	0.282184837	0.086972107
2020-02-06T21:50:00	0.3404	2.900		0.922590643	1.258253997	0.027576109	0.284497635	0.087684934
2020-02-06T21:55:00	0.3401	2.898		0.921541585	1.256417244	0.027514977	0.283866946	0.087490550
2020-02-06T22:00:00	0.3415	2.895		0.926004353	1.264238064	0.027775562	0.286555353	0.088319143
2020-02-06T22:05:00	0.3422	2.893		0.927929392	1.267617380	0.027888390	0.287719381	0.088677908
2020-02-06T22:10:00	0.3412	2.891		0.924958924	1.262404318	0.027714396	0.285924310	0.088124649
2020-02-06T22:15:00	0.3405	2.892		0.922905130	1.258804821	0.027594450	0.284686856	0.087743254
2020-02-06T22:20:00	0.3413	2.891		0.925137745	1.262717909	0.027724853	0.286032195	0.088157900
2020-02-06T22:25:00	0.3393	2.888		0.919100949	1.252148015	0.027373046	0.282402665	0.087039244
2020-02-06T22:30:00	0.3371	2.885		0.912441012	1.240526600	0.026987827	0.278428438	0.085814349
2020-02-06T22:35:00	0.3386	2.883		0.917133749	1.248710988	0.027258944	0.281225498	0.086676430
2020-02-06T22:40:00	0.3361	2.880		0.909241538	1.234958328	0.026803847	0.276530344	0.085229338
2020-02-06T22:45:00	0.3372	2.878		0.912710079	1.240995310	0.027003331	0.278588392	0.085863648
2020-02-06T22:50:00	0.3357	2.873		0.908191735	1.233133361	0.026743632	0.275909120	0.085037870
2020-02-06T22:55:00	0.3377	2.868		0.914117332	1.243447831	0.027084501	0.279425805	0.086121747
2020-02-06T23:00:00	0.3367	2.865		0.911136634	1.238255345	0.026912736	0.277653741	0.085575580
2020-02-06T23:05:00	0.3359	2.860		0.908768433	1.234135760	0.026776701	0.276250287	0.085143021
2020-02-06T23:10:00	0.3368	2.857		0.911623200	1.239102394	0.026940734	0.277942582	0.085664603
2020-02-06T23:15:00	0.3380	2.855		0.915089680	1.245143492	0.027140665	0.280005237	0.086300333
2020-02-06T23:20:00	0.3370	2.853		0.912109706	1.239949560	0.026968743	0.278231555	0.085753667
2020-02-06T23:25:00	0.3366	2.851		0.910970931	1.237966926	0.026903206	0.277555412	0.085545274
2020-02-06T23:30:00	0.3381	2.851		0.915358569	1.245612558	0.027156208	0.280165588	0.086349755
2020-02-06T23:35:00	0.3369	2.852		0.911764632	1.239348651	0.026948875	0.278026572	0.085690490
2020-02-06T23:40:00	0.3365	2.852		0.910625759	1.237366214	0.026883358	0.277350649	0.085482164
2020-02-06T23:45:00	0.3377	2.852		0.914093102	1.243405588	0.027083102	0.279411374	0.086117299
2020-02-06T23:50:00	0.3372	2.851		0.912647865	1.240886929	0.026999746	0.278551403	0.085852248
2020-02-06T23:55:00	0.3369	2.848		0.911816355	1.239438714	0.026951852	0.278057291	0.085699958
2020-02-07T00:00:00	0.3346	2.845		0.904836664	1.227307828	0.026551696	0.273928956	0.084427565
2020-02-07T00:05:00	0.3350	2.844		0.905849309	1.229065015	0.026609546	0.274525784	0.084611513
2020-02-07T00:10:00	0.3365	2.842		0.910549769	1.237233981	0.026878990	0.277305581	0.085468273
2020-02-07T00:15:00	0.3358	2.841		0.908488589	1.233649304	0.026760651	0.276084705	0.085091987
2020-02-07T00:20:00	0.3345	2.840		0.904273164	1.226330429	0.026519535	0.273597156	0.084325301
2020-02-07T00:25:00	0.3354	2.840		0.907131139	1.231290676	0.026682875	0.275282299	0.084844678
2020-02-07T00:30:00	0.3361	2.838		0.909372544	1.235186139	0.026811366	0.276607922	0.085253248
2020-02-07T00:35:00	0.3351	2.836		0.906388311	1.230000706	0.026640367	0.274843753	0.084709514
2020-02-07T00:40:00	0.3344	2.835		0.904017295	1.225886720	0.026504939	0.273446569	0.084278888
2020-02-07T00:45:00	0.3344	2.836		0.904107175	1.226042576	0.026510066	0.273499461	0.084295190
2020-02-07T00:50:00	0.3341	2.836		0.903273888	1.224597899	0.026462556	0.273009311	0.084144121
2020-02-07T00:55:00	0.3333	2.834		0.900593069	1.219954527	0.026310030	0.271435734	0.083659130
2020-02-07T01:00:00	0.3342	2.834		0.903453679	1.224909550	0.026472803	0.273115025	0.084176703
2020-02-07T01:05:00	0.3349	2.833		0.905697147	1.228800915	0.026600849	0.274436057	0.084583858
2020-02-07T01:10:00	0.3357	2.832		0.908246742	1.233228959	0.026746785	0.275941651	0.085047897
2020-02-07T01:15:00	0.3342	2.830		0.903415616	1.224843569	0.026470633	0.273092643	0.084169805
2020-02-07T01:20:00	0.3343	2.831		0.903813237	1.225532900	0.026493301	0.273326507	0.084241884
2020-02-07T01:25:00	0.3331	2.831		0.900208907	1.219289676	0.026288214	0.271210654	0.083589757
2020-02-07T01:30:00	0.3325	2.831		0.898142380	1.215715602	0.026171027	0.270001657	0.083217133
2020-02-07T01:35:00	0.3355	2.832		0.907466096	1.231872519	0.026702055	0.275480176	0.084905666
2020-02-07T01:40:00	0.3337	2.833		0.902018365	1.222422411	0.026391062	0.272271720	0.083916788
2020-02-07T01:45:00	0.3336	2.831		0.901492548	1.221511745	0.026361152	0.271963144	0.083821682
2020-02-07T01:50:00	0.3344	2.828		0.904044828	1.225934461	0.026506509	0.273462770	0.084283882
2020-02-07T01:55:00	0.3347	2.827		0.905057673	1.227691251	0.026564316	0.274059152	0.084467692
2020-02-07T02:00:00	0.3335	2.827		0.901454467	1.221445801	0.026358986	0.271940803	0.083814797
2020-02-07T02:05:00	0.3329	2.826		0.899388587	1.217870451	0.026241661	0.270730376	0.083441731
2020-02-07T02:10:00	0.3331	2.826		0.900094624	1.219091920	0.026281725	0.271143716	0.083569126
2020-02-07T02:15:00	0.3340	2.826		0.902955591	1.224046236	0.026444421	0.272822214	0.084086456
2020-02-07T02:20:00	0.3345	2.826		0.904276405	1.226336049	0.026519720	0.273599063	0.084325889
2020-02-07T02:25:00	0.3327	2.826		0.898824316	1.216894576	0.026209665	0.270400284	0.083339993
2020-02-07T02:30:00	0.3317	2.825		0.895832181	1.211724790	0.026040365	0.268653650	0.082801664
2020-02-07T02:35:00	0.3342	2.824		0.903622936	1.225202968	0.026482451	0.273214566	0.084207383
2020-02-07T02:40:00	0.3337	2.825		0.901866057	1.222158600	0.026382396	0.272182318	0.083889234
2020-02-07T02:45:00	0.3341	2.823		0.903187231	1.224447699	0.026457618	0.272958367	0.084128420
2020-02-07T02:50:00	0.3341	2.820		0.903277130	1.224603518	0.026462741	0.273011217	0.084144709
2020-02-07T02:55:00	0.3346	2.821		0.904597837	1.226893543	0.026538063	0.273788303	0.084384214
2020-02-07T03:00:00	0.3336	2.821		0.901610034	1.221715197	0.026367833	0.272032074	0.083842927
2020-02-07T03:05:00	0.3348	2.821		0.905392804	1.228272749	0.026583459	0.274256642	0.084528561
2020-02-07T03:10:00	0.3339	2.821		0.902405596	1.223093223	0.026413101	0.272499092	0.083986866
2020-02-07T03:15:00	0.3339	2.820		0.902495513	1.223249008	0.026418220	0.272551903	0.084003143
2020-02-07T03:20:00	0.3338	2.819		0.902277605	1.222871483	0.026405815	0.272423927	0.083963700
2020-02-07T03:25:00	0.3334	2.815		0.901136025	1.220894425	0.026340882	0.271754028	0.083757231
2020-02-07T03:30:00	0.3329	2.814		0.899378049	1.217852224	0.026241063	0.270724210	0.083439831
2020-02-07T03:35:00	0.3328	2.814		0.899159971	1.217475037	0.026228695	0.270596611	0.083400504
2020-02-07T03:40:00	0.3330	2.813		0.899866048	1.218696426	0.026268751	0.271009861	0.083527871
2020-02-07T03:45:00	0.3333	2.815		0.900572001	1.219918061	0.026308834	0.271423388	0.083655324
2020-02-07T03:50:00	0.3338	2.813		0.902201456	1.222739567	0.026401481	0.272379213	0.083949919
2020-02-07T03:55:00	0.3326	2.813		0.898595668	1.216499226	0.026196706	0.270266590	0.083298788
2020-02-07T04:00:00	0.3323	2.811		0.897761228	1.215056828	0.026149444	0.269778995	0.083148506
2020-02-07T04:05:00	0.3332	2.811		0.900536666	1.219856904	0.026306827	0.271402681	0.083648942
2020-02-07T04:10:00	0.3343	2.813		0.903925636	1.225727785	0.026499711	0.273392636	0.084262266
2020-02-07T04:15:00	0.3329	2.813		0.899618166	1.218267581	0.026254685	0.270864742	0.083483144
2020-02-07T04:20:00	0.3320	2.814		0.896847604	1.213478296	0.026097751	0.269245690	0.082984137
2020-02-07T04:25:00	0.3323	2.812		0.897775015	1.215080656	0.026150225	0.269787048	0.083150988
2020-02-07T04:30:00	0.3315	2.813		0.895311554	1.210826104	0.026010970	0.268350379	0.082708193
2020-02-07T04:35:00	0.3334	2.813		0.901169087	1.220951667	0.026342762	0.271773417	0.083763207
2020-02-07T04:40:00	0.3329	2.813		0.899323897	1.217758559	0.026237992	0.270692522	0.083430064
2020-02-07T04:45:00	0.3323	2.814		0.897477852	1.214567138	0.026133405	0.269613519	0.083097505
2020-02-07T04:50:00	0.3339	2.815		0.902408839	1.223098841	0.026413285	0.272500996	0.083987453
2020-02-07T04:55:00	0.3333	2.816		0.900564223	1.219904598	0.026308392	0.271418830	0.083653919
2020-02-07T05:00:00	0.3345	2.817		0.904260862	1.226309095	0.026518833	0.273589915	0.084323069
2020-02-07T05:05:00	0.3338	2.818		0.902109267	1.222579869	0.026396235	0.272325085	0.083933236
2020-02-07T05:10:00	0.3346	2.819		0.904574037	1.226852261	0.026536704	0.273774288	0.084379895
2020-02-07T05:15:00	0.3343	2.821		0.903653713	1.225256324	0.026484206	0.273232668	0.084212962
2020-02-07T05:20:00	0.3337	2.822		0.901809672	1.222060942	0.026379189	0.272149225	0.083879034
2020-02-07T05:25:00	0.3341	2.823		0.903043717	1.224198964	0.026449441	0.272874008	0.084102419
2020-02-07T05:30:00	0.3326	2.824		0.898427174	1.216207919	0.026187159	0.270168094	0.083268430
2020-02-07T05:35:00	0.3350	2.824		0.905818236	1.229011082	0.026607770	0.274507460	0.084605865
2020-02-07T05:40:00	0.3332	2.825		0.900281047	1.219414515	0.026292310	0.271252913	0.083602782
2020-02-07T05:45:00	0.3345	2.826		0.904285640	1.226352065	0.026520247	0.273604499	0.084327564
2020-02-07T05:50:00	0.3339	2.829		0.902441891	1.223156105	0.026415167	0.272520408	0.083993436
2020-02-07T05:55:00	0.3347	2.830		0.904906456	1.227428903	0.026555681	0.273970067	0.084440235
2020-02-07T06:00:00	0.3335	2.830		0.901215925	1.221032762	0.026345424	0.271800886	0.083771673
2020-02-07T06:05:00	0.3350	2.831		0.905834748	1.229039742	0.026608714	0.274517197	0.084608866
2020-02-07T06:10:00	0.3350	2.832		0.905837500	1.229044518	0.026608871	0.274518820	0.084609366
2020-02-07T06:15:00	0.3357	2.832		0.907992590	1.232787285	0.026732218	0.275791363	0.085001577
2020-02-07T06:20:00	0.3346	2.834		0.904612577	1.226919110	0.026538904	0.273796982	0.084386889
2020-02-07T06:25:00	0.3357	2.835		0.907998091	1.232796845	0.026732533	0.275794616	0.085002579
2020-02-07T06:30:00	0.3363	2.836		0.909844777	1.236007457	0.026838481	0.276887664	0.085339467
2020-02-07T06:35:00	0.3368	2.838		0.911383490	1.238685062	0.026926939	0.277800262	0.085620739
2020-02-07T06:40:00	0.3366	2.842		0.910771924	1.237620575	0.026891762	0.277437347	0.085508885
2020-02-07T06:45:00	0.3361	2.845		0.909238475	1.234953002	0.026803671	0.276528530	0.085228779
2020-02-07T06:50:00	0.3377	2.847		0.914154980	1.243513469	0.027086674	0.279448227	0.086128658
2020-02-07T06:55:00	0.3360	2.849		0.908936665	1.234428233	0.026786352	0.276349854	0.085173709
2020-02-07T07:00:00	0.3366	2.850		0.910782918	1.237639709	0.026892394	0.277443869	0.085510895
2020-02-07T07:05:00	0.3365	2.852		0.910478475	1.237109925	0.026874892	0.277263303	0.085455243
2020-02-07T07:10:00	0.3382	2.854		0.915700275	1.246208750	0.027175967	0.280369438	0.086412584
2020-02-07T07:15:00	0.3373	2.855		0.912940842	1.241397351	0.027016632	0.278725616	0.085905942
2020-02-07T07:20:00	0.3378	2.859		0.914478366	1.244077330	0.027105347	0.279640871	0.086188032
2020-02-07T07:25:00	0.3385	2.862		0.916628813	1.247829365	0.027229699	0.280923789	0.086583440
2020-02-07T07:30:00	0.3385	2.866		0.916631558	1.247834157	0.027229858	0.280925428	0.086583945
2020-02-07T07:35:00	0.3396	2.869		0.920006937	1.253732143	0.027425684	0.282945728	0.087206621
2020-02-07T07:40:00	0.3406	2.871		0.923073255	1.259099331	0.027604258	0.284788043	0.087774441
2020-02-07T07:45:00	0.3410	2.873		0.924300772	1.261250406	0.027675927	0.285527433	0.088002328
2020-02-07T07:50:00	0.3386	2.877		0.916949256	1.248388834	0.027248256	0.281115239	0.086642447
2020-02-07T07:55:00	0.3403	2.881		0.922162650	1.257504517	0.027551159	0.284240233	0.087605600
2020-02-07T08:00:00	0.3414	2.885		0.925533392	1.263411843	0.027747998	0.286270975	0.088231495
2020-02-07T08:05:00	0.3401	2.889		0.921555465	1.256441538	0.027515785	0.283875285	0.087493120
2020-02-07T08:10:00	0.3410	2.894		0.924314469	1.261274415	0.027676727	0.285535690	0.088004873
2020-02-07T08:15:00	0.3427	2.899		0.929518340	1.270409320	0.027981712	0.288682168	0.088974648
2020-02-07T08:20:00	0.3421	2.904		0.927686149	1.267190186	0.027874119	0.287572152	0.088632530
2020-02-07T08:25:00	0.3412	2.909		0.924934932	1.262362247	0.027712993	0.285909837	0.088120188
2020-02-07T08:30:00	0.3415	2.914		0.925855864	1.263977543	0.027766870	0.286465675	0.088291503
2020-02-07T08:35:00	0.3430	2.920		0.930446432	1.272041167	0.028036302	0.289245356	0.089148228
2020-02-07T08:40:00	0.3432	2.925		0.931060483	1.273121287	0.028072452	0.289618314	0.089263177
2020-02-07T08:45:00	0.3424	2.931		0.928617399	1.268825985	0.027928777	0.288136043	0.088806327
2020-02-07T08:50:00	0.3419	2.937		0.927090746	1.266144749	0.027839205	0.287211947	0.088521511
2020-02-07T08:55:00	0.3420	2.945		0.927399408	1.266686670	0.027857302	0.287398649	0.088579055
2020-02-07T09:00:00	0.3386	2.952		0.916987676	1.248455920	0.027250482	0.281138199	0.086649523
2020-02-07T09:05:00	0.3410	2.960		0.924344601	1.261327237	0.027678488	0.285553854	0.088010471
2020-02-07T09:10:00	0.3421	2.966		0.927713520	1.267238252	0.027875725	0.287588717	0.088637636
2020-02-07T09:15:00	0.3403	2.973		0.922206502	1.257581301	0.027553715	0.284266601	0.087613727
2020-02-07T09:20:00	0.3411	2.985		0.924658951	1.261878337	0.027696858	0.285743383	0.088068886
2020-02-07T09:25:00	0.3414	2.993		0.925579947	1.263493506	0.027750722	0.286299079	0.088240157
2020-02-07T09:30:00	0.3405	3.005		0.922827291	1.258668477	0.027589910	0.284640015	0.087728817
2020-02-07T09:35:00	0.3412	3.016		0.924973277	1.262429487	0.027715235	0.285932968	0.088127318
2020-02-07T09:40:00	0.3409	3.027		0.924057622	1.260824202	0.027661722	0.285380888	0.087957161
2020-02-07T09:45:00	0.3407	3.039		0.923447983	1.259755846	0.027626126	0.285013645	0.087843973
2020-02-07T09:50:00	0.3398	3.049		0.920693868	1.254933762	0.027465633	0.283357872	0.087333648
2020-02-07T09:55:00	0.3412	3.058		0.924984232	1.262448699	0.027715875	0.285939577	0.088129355
2020-02-07T10:00:00	0.3421	3.070		0.927740890	1.267286319	0.027877331	0.287605282	0.088642741
2020-02-07T10:05:00	0.3421	3.082		0.927781460	1.267357567	0.027879711	0.287629836	0.088650309
2020-02-07T10:10:00	0.3417	3.095		0.926598322	1.265280378	0.027810348	0.286914232	0.088429753
2020-02-07T10:15:00	0.3416	3.107		0.926332922	1.264814605	0.027794802	0.286753845	0.088380320
2020-02-07T10:20:00	0.3407	3.120		0.923312441	1.259518365	0.027618215	0.284932032	0.087818819
2020-02-07T10:25:00	0.3404	3.132		0.922434292	1.257980183	0.027566993	0.284403588	0.087655948
2020-02-07T10:30:00	0.3394	3.141		0.919410883	1.252689851	0.027391047	0.282588379	0.087096483
2020-02-07T10:35:00	0.3402	3.155		0.921902925	1.257049782	0.027536025	0.284084094	0.087557477
2020-02-07T10:40:00	0.3408	3.168		0.923781096	1.260339563	0.027645573	0.285214277	0.087905810
2020-02-07T10:45:00	0.3407	3.177		0.923515510	1.259874165	0.027630067	0.285054310	0.087856507
2020-02-07T10:50:00	0.3406	3.188		0.923249906	1.259408803	0.027614566	0.284894382	0.087807215
2020-02-07T10:55:00	0.3403	3.198		0.922065437	1.257334306	0.027545494	0.284181786	0.087587586
2020-02-07T11:00:00	0.3406	3.209		0.923024903	1.259014628	0.027601437	0.284758940	0.087765471
2020-02-07T11:05:00	0.3398	3.219		0.920614841	1.254795501	0.027461035	0.283310441	0.087319029
2020-02-07T11:10:00	0.3413	3.228		0.925249236	1.262913441	0.027731374	0.286099471	0.088178635
2020-02-07T11:15:00	0.3400	3.239		0.921308922	1.256010022	0.027501429	0.283727175	0.087447471
2020-02-07T11:20:00	0.3387	3.253		0.917364744	1.249114387	0.027272328	0.281363583	0.086718989
2020-02-07T11:25:00	0.3391	3.270		0.918631923	1.251328219	0.027345817	0.282121752	0.086952664
2020-02-07T11:30:00	0.3395	3.288		0.919898703	1.253542854	0.027419393	0.282880820	0.087186616
2020-02-07T11:35:00	0.3379	3.305		0.914725816	1.244508852	0.027119640	0.279788328	0.086233480
2020-02-07T11:40:00	0.3386	3.322		0.916914065	1.248327389	0.027246218	0.281094211	0.086635966
2020-02-07T11:45:00	0.3401	3.337		0.921552724	1.256436740	0.027515626	0.283873638	0.087492612
2020-02-07T11:50:00	0.3395	3.352		0.919754814	1.253291227	0.027411030	0.282794543	0.087160025
2020-02-07T11:55:00	0.3395	3.365		0.919795464	1.253362313	0.027413392	0.282818916	0.087167537
2020-02-07T12:00:00	0.3387	3.375		0.917383466	1.249147085	0.027273413	0.281374777	0.086722439
2020-02-07T12:05:00	0.3397	3.385		0.920489686	1.254576549	0.027453755	0.283235332	0.087295880
2020-02-07T12:10:00	0.3386	3.396		0.916851430	1.248218028	0.027242591	0.281056785	0.086624431
2020-02-07T12:15:00	0.3386	3.407		0.916892110	1.248289055	0.027244947	0.281081092	0.086631922
2020-02-07T12:20:00	0.3401	3.415		0.921530794	1.256398355	0.027514349	0.283860462	0.087488551
2020-02-07T12:25:00	0.3397	3.422		0.920345818	1.254324878	0.027445388	0.283149008	0.087269274
2020-02-07T12:30:00	0.3382	3.430		0.915787148	1.246360338	0.027180991	0.280421277	0.086428561
2020-02-07T12:35:00	0.3389	3.438		0.917974819	1.250180035	0.027307695	0.281728457	0.086831447
2020-02-07T12:40:00	0.3396	3.444		0.920161299	1.254002124	0.027434658	0.283038313	0.087235157
2020-02-07T12:45:00	0.3393	3.448		0.919282462	1.252465329	0.027383587	0.282511420	0.087072763
2020-02-07T12:50:00	0.3398	3.453		0.920549036	1.254680377	0.027457207	0.283270948	0.087306857
2020-02-07T12:55:00	0.3393	3.463		0.919057236	1.252071602	0.027370507	0.282376478	0.087031173
2020-02-07T13:00:00	0.3397	3.475		0.920323882	1.254286506	0.027444112	0.283135847	0.087265218
2020-02-07T13:05:00	0.3403	3.486		0.922202790	1.257574801	0.027553499	0.284264369	0.087613039
2020-02-07T13:10:00	0.3400	3.495		0.921324398	1.256037108	0.027502330	0.283736472	0.087450336
2020-02-07T13:15:00	0.3387	3.508		0.917380235	1.249141443	0.027273226	0.281372845	0.086721844
2020-02-07T13:20:00	0.3381	3.521		0.915580457	1.245999685	0.027169037	0.280297950	0.086390550
2020-02-07T13:25:00	0.3390	3.534		0.918074874	1.250354840	0.027313498	0.281788323	0.086849898
2020-02-07T13:30:00	0.3390	3.548		0.918115542	1.250425892	0.027315857	0.281812658	0.086857398
2020-02-07T13:35:00	0.3398	3.561		0.920608386	1.254784207	0.027460660	0.283306566	0.087317835
2020-02-07T13:40:00	0.3377	3.571		0.914208932	1.243607533	0.027089789	0.279480361	0.086138562
2020-02-07T13:45:00	0.3373	3.583		0.913021793	1.241538398	0.027021299	0.278773763	0.085920781
2020-02-07T13:50:00	0.3389	3.595		0.917971589	1.250174392	0.027307508	0.281726525	0.086830851
2020-02-07T13:55:00	0.3377	3.605		0.914331050	1.243820455	0.027096840	0.279553104	0.086160982
2020-02-07T14:00:00	0.3382	3.615		0.915905987	1.246567717	0.027187866	0.280492198	0.086450420
2020-02-07T14:05:00	0.3375	3.622		0.913491650	1.242357181	0.027048395	0.279053308	0.086006940
2020-02-07T14:10:00	0.3382	3.628		0.915680572	1.246174370	0.027174827	0.280357682	0.086408960
2020-02-07T14:15:00	0.3403	3.636		0.922158937	1.257498017	0.027550943	0.284238001	0.087604912
2020-02-07T14:20:00	0.3387	3.642		0.917295655	1.248993728	0.027268325	0.281322279	0.086706259
2020-02-07T14:25:00	0.3380	3.648		0.915189008	1.245316758	0.027146406	0.280064465	0.086318588
2020-02-07T14:30:00	0.3380	3.654		0.915229705	1.245387751	0.027148758	0.280088734	0.086326068
2020-02-07T14:35:00	0.3378	3.659		0.914656682	1.244388285	0.027115646	0.279747126	0.086220781
2020-02-07T14:40:00	0.3378	3.662		0.914390492	1.243924101	0.027100273	0.279588516	0.086171896
2020-02-07T14:45:00	0.3391	3.666		0.918418919	1.250955985	0.027333456	0.281994230	0.086913360
2020-02-07T14:50:00	0.3390	3.669		0.918152979	1.250491301	0.027318028	0.281835061	0.086864303
2020-02-07T14:55:00	0.3377	3.671		0.914205699	1.243601896	0.027089603	0.279478436	0.086137968
2020-02-07T15:00:00	0.3382	3.672		0.915780685	1.246349060	0.027180617	0.280417420	0.086427372
2020-02-07T15:05:00	0.3360	3.673		0.909066219	1.234653483	0.026793785	0.276426544	0.085197346
2020-02-07T15:10:00	0.3369	3.675		0.911871799	1.239535259	0.026955044	0.278090223	0.085710108
2020-02-07T15:15:00	0.3380	3.676		0.915289133	1.245491423	0.027152194	0.280124175	0.086336991
2020-02-07T15:20:00	0.3374	3.676		0.913181432	1.241816565	0.027030504	0.278868724	0.085950049
2020-02-07T15:25:00	0.3383	3.676		0.915984134	1.246704094	0.027192387	0.280538841	0.086464795
2020-02-07T15:30:00	0.3373	3.677		0.912955864	1.241423524	0.027017498	0.278734550	0.085908695
2020-02-07T15:35:00	0.3390	3.678		0.918212364	1.250595060	0.027321473	0.281870599	0.086875256
2020-02-07T15:40:00	0.3393	3.679		0.919172750	1.252273530	0.027377215	0.282445682	0.087052502
2020-02-07T15:45:00	0.3395	3.678		0.919826429	1.253416462	0.027415192	0.282837482	0.087173259
2020-02-07T15:50:00	0.3391	3.678		0.918640951	1.251343997	0.027346341	0.282127158	0.086954330
2020-02-07T15:55:00	0.3395	3.678		0.919907728	1.253558638	0.027419917	0.282886232	0.087188284
2020-02-07T16:00:00	0.3402	3.678		0.921786830	1.256846541	0.027529262	0.284014317	0.087535971
2020-02-07T16:05:00	0.3385	3.677		0.916830760	1.248181938	0.027241393	0.281044435	0.086620624
2020-02-07T16:10:00	0.3392	3.676		0.918925574	1.251841458	0.027362863	0.282297610	0.087006865
2020-02-07T16:15:00	0.3415	3.675		0.925918671	1.264087734	0.027770546	0.286503605	0.088303193
2020-02-07T16:20:00	0.3408	3.674		0.923724359	1.260240136	0.027642260	0.285180100	0.087895276
2020-02-07T16:25:00	0.3415	3.672		0.925815587	1.263906881	0.027764512	0.286441353	0.088284007
2020-02-07T16:30:00	0.3425	3.672		0.928823248	1.269187682	0.027940867	0.288260772	0.088844769
2020-02-07T16:35:00	0.3429	3.669		0.930300496	1.271784516	0.028027714	0.289156758	0.089120921
2020-02-07T16:40:00	0.3441	3.667		0.933915703	1.278148284	0.028240887	0.291356026	0.089798757
2020-02-07T16:45:00	0.3425	3.665		0.928974537	1.269453537	0.027949754	0.288352461	0.088873029
2020-02-07T16:50:00	0.3430	3.663		0.930451729	1.272050483	0.028036613	0.289248572	0.089149219
2020-02-07T16:55:00	0.3437	3.661		0.932539474	1.275724292	0.028159630	0.290517715	0.089540381
2020-02-07T17:00:00	0.3454	3.657		0.937678644	1.284785150	0.028463731	0.293655070	0.090507345
2020-02-07T17:05:00	0.3450	3.654		0.936711731	1.283078492	0.028406377	0.293063350	0.090324971
2020-02-07T17:10:00	0.3440	3.652		0.933607055	1.277604498	0.028222652	0.291167900	0.089740775
2020-02-07T17:15:00	0.3459	3.649		0.939354935	1.287745986	0.028563318	0.294682490	0.090824005
2020-02-07T17:20:00	0.3449	3.646		0.936252285	1.282267851	0.028379146	0.292782418	0.090238385
2020-02-07T17:25:00	0.3466	3.643		0.941386750	1.291338331	0.028684288	0.295930510	0.091208657
2020-02-07T17:30:00	0.3456	3.639		0.938285656	1.285857010	0.028499771	0.294026883	0.090621941
2020-02-07T17:35:00	0.3460	3.636		0.939759452	1.288460882	0.028587380	0.294930725	0.090900514
2020-02-07T17:40:00	0.3460	3.634		0.939708087	1.288370096	0.028584324	0.294899197	0.090890797
2020-02-07T17:45:00	0.3470	3.630		0.942705439	1.293671917	0.028762953	0.296742081	0.091458791
2020-02-07T17:50:00	0.3452	3.626		0.937164696	1.283877892	0.028433237	0.293340467	0.090410381
2020-02-07T17:55:00	0.3458	3.622		0.938943952	1.287019821	0.028538884	0.294430407	0.090746311
2020-02-07T18:00:00	0.3460	3.619		0.939502618	1.288006965	0.028572101	0.294773103	0.090851933
2020-02-07T18:05:00	0.3461	3.615		0.940061207	1.288994268	0.028605336	0.295115975	0.090957610
2020-02-07T18:10:00	0.3461	3.612		0.940009845	1.288903474	0.028602279	0.295084439	0.090947890
2020-02-07T18:15:00	0.3451	3.608		0.936907697	1.283424312	0.028417996	0.293183221	0.090361916
2020-02-07T18:20:00	0.3471	3.605		0.942955651	1.294114883	0.028777892	0.296896211	0.091506296
2020-02-07T18:25:00	0.3462	3.602		0.940160716	1.289170181	0.028611258	0.295177079	0.090976442
2020-02-07T18:30:00	0.3469	3.598		0.942243462	1.292854204	0.028735380	0.296457621	0.091371118
2020-02-07T18:35:00	0.3469	3.594		0.942496912	1.293302793	0.028750505	0.296613663	0.091419211
2020-02-07T18:40:00	0.3470	3.590		0.942750346	1.293751415	0.028765634	0.296769741	0.091467316
2020-02-07T18:45:00	0.3463	3.585		0.940565153	1.289885241	0.028635337	0.295425497	0.091053007
2020-02-07T18:50:00	0.3446	3.580		0.935326805	1.280635547	0.028324339	0.292216983	0.090064112
2020-02-07T18:55:00	0.3455	3.576		0.938022300	1.285391935	0.028484132	0.293865538	0.090572213
2020-02-07T19:00:00	0.3459	3.573		0.939191182	1.287456633	0.028553581	0.294582036	0.090793044
2020-02-07T19:05:00	0.3472	3.568		0.943407918	1.294915711	0.028804908	0.297174922	0.091592197
2020-02-07T19:10:00	0.3476	3.565		0.944575250	1.296983592	0.028874701	0.297894969	0.091814123
2020-02-07T19:15:00	0.3476	3.560		0.944523946	1.296892681	0.028871632	0.297863302	0.091804363
2020-02-07T19:20:00	0.3471	3.558		0.942949231	1.294103517	0.028777509	0.296892256	0.091505077
2020-02-07T19:25:00	0.3480	3.554		0.945639666	1.298870281	0.028938424	0.298552386	0.092016745
2020-02-07T19:30:00	0.3448	3.549		0.935831340	1.281525315	0.028354210	0.292525160	0.090159095
2020-02-07T19:35:00	0.3465	3.545		0.941271214	1.291133954	0.028677401	0.295859464	0.091186760
2020-02-07T19:40:00	0.3468	3.542		0.942134371	1.292661140	0.028728872	0.296390471	0.091350422
2020-02-07T19:45:00	0.3463	3.537		0.940558729	1.289873882	0.028634955	0.295421551	0.091051791
2020-02-07T19:50:00	0.3457	3.534		0.938677426	1.286548982	0.028523045	0.294266994	0.090695946
2020-02-07T19:55:00	0.3467	3.530		0.941675540	1.291849241	0.028701505	0.296108136	0.091263403
2020-02-07T20:00:00	0.3462	3.527		0.940099719	1.289062349	0.028607628	0.295139623	0.090964898
2020-02-07T20:05:00	0.3468	3.525		0.942182496	1.292746307	0.028731743	0.296420093	0.091359551
2020-02-07T20:10:00	0.3458	3.520		0.939082010	1.287263738	0.028547091	0.294515074	0.090772406
2020-02-07T20:15:00	0.3473	3.516		0.943603561	1.295262195	0.028816598	0.297295532	0.091629370
2020-02-07T20:20:00	0.3447	3.512		0.935622459	1.281156916	0.028341841	0.292397550	0.090119765
2020-02-07T20:25:00	0.3456	3.506		0.938317757	1.285913705	0.028501678	0.294046554	0.090628004
2020-02-07T20:30:00	0.3457	3.498		0.938571453	1.286361791	0.028516748	0.294202034	0.090675924
2020-02-07T20:35:00	0.3436	3.489		0.932414030	1.275503433	0.028152230	0.290441370	0.089516851
2020-02-07T20:40:00	0.3457	3.479		0.938773756	1.286719149	0.028528769	0.294326051	0.090714147
2020-02-07T20:45:00	0.3445	3.467		0.935060041	1.280165195	0.028308552	0.292054113	0.090013914
2020-02-07T20:50:00	0.3461	3.454		0.939891058	1.288693500	0.028595210	0.295011511	0.090925413
2020-02-07T20:55:00	0.3450	3.439		0.936483605	1.282675964	0.028392854	0.292923842	0.090281973
2020-02-07T21:00:00	0.3424	3.424		0.928488439	1.268599411	0.027921204	0.288057918	0.088782248
2020-02-07T21:05:00	0.3434	3.406		0.931799700	1.274422042	0.028116006	0.290067651	0.089401667
2020-02-07T21:10:00	0.3439	3.389		0.933275860	1.277021088	0.028203093	0.290966107	0.089678580
2020-02-07T21:15:00	0.3450	3.372		0.936583202	1.282851697	0.028398757	0.292984745	0.090300744
2020-02-07T21:20:00	0.3429	3.354		0.930117055	1.271461937	0.028016921	0.289045413	0.089086603
2020-02-07T21:25:00	0.3430	3.337		0.930371266	1.271908974	0.028031878	0.289199721	0.089134163
2020-02-07T21:30:00	0.3410	3.319		0.924201322	1.261076079	0.027670116	0.285467490	0.087983853
2020-02-07T21:35:00	0.3411	3.302		0.924762030	1.262059070	0.027702884	0.285805547	0.088088045
2020-02-07T21:40:00	0.3406	3.284		0.923179600	1.259285632	0.027610463	0.284852057	0.087794170
2020-02-07T21:45:00	0.3415	3.265		0.925883213	1.264025524	0.027768470	0.286482191	0.088296593
2020-02-07T21:50:00	0.3415	3.247		0.925831670	1.263935097	0.027765453	0.286451065	0.088287000
2020-02-07T21:55:00	0.3416	3.229		0.926086151	1.264381586	0.027780351	0.286604761	0.088334371
2020-02-07T22:00:00	0.3427	3.211		0.929705132	1.270737688	0.027992694	0.288795469	0.089009568
2020-02-07T22:05:00	0.3417	3.196		0.926551745	1.265198631	0.027807619	0.286886081	0.088421076
2020-02-07T22:10:00	0.3438	3.180		0.932877442	1.276319400	0.028179573	0.290723459	0.089603793
2020-02-07T22:15:00	0.3433	3.166		0.931254923	1.273463381	0.028083905	0.289736468	0.089299593
2020-02-07T22:20:00	0.3436	3.152		0.932382505	1.275447931	0.028150371	0.290422186	0.089510938
2020-02-07T22:25:00	0.3419	3.140		0.927090227	1.266143836	0.027839175	0.287211633	0.088521415
2020-02-07T22:30:00	0.3429	3.126		0.930053656	1.271350457	0.028013192	0.289006936	0.089074744
2020-02-07T22:35:00	0.3432	3.112		0.931181572	1.273334325	0.028079584	0.289691892	0.089285855
2020-02-07T22:40:00	0.3412	3.099		0.924969533	1.262422921	0.027715016	0.285930709	0.088126622
2020-02-07T22:45:00	0.3416	3.085		0.926098871	1.264403905	0.027781096	0.286612445	0.088336739
2020-02-07T22:50:00	0.3418	3.072		0.926921957	1.265848440	0.027829312	0.287109879	0.088490053
2020-02-07T22:55:00	0.3415	3.061		0.925909139	1.264071011	0.027769988	0.286497848	0.088301419
2020-02-07T23:00:00	0.3430	3.048		0.930402150	1.271963288	0.028033696	0.289218471	0.089139942
2020-02-07T23:05:00	0.3423	3.039		0.928472817	1.268571964	0.027920287	0.288048455	0.088779331
2020-02-07T23:10:00	0.3428	3.028		0.929906909	1.271092435	0.028004560	0.288917886	0.089047299
2020-02-07T23:15:00	0.3416	3.017		0.926141711	1.264479073	0.027783604	0.286638323	0.088344715
2020-02-07T23:20:00	0.3416	3.004		0.926046847	1.264312622	0.027778050	0.286581020	0.088327054
2020-02-07T23:25:00	0.3411	2.991		0.924727706	1.261998886	0.027700877	0.285784846	0.088081665
2020-02-07T23:30:00	0.3413	2.979		0.925245007	1.262906023	0.027731126	0.286096918	0.088177849
2020-02-07T23:35:00	0.3414	2.966		0.925456193	1.263276431	0.027743481	0.286224375	0.088217132
2020-02-07T23:40:00	0.3430	2.953		0.930561100	1.272242841	0.028043050	0.289314982	0.089169687
2020-02-07T23:45:00	0.3416	2.941		0.926184549	1.264554243	0.027786113	0.286664202	0.088352691
2020-02-07T23:50:00	0.3411	2.927		0.924559337	1.261703689	0.027691036	0.285683316	0.088050372
2020-02-07T23:55:00	0.3407	2.914		0.923545926	1.259927461	0.027631843	0.285072627	0.087862152
2020-02-08T00:00:00	0.3412	2.900		0.924981771	1.262444382	0.027715731	0.285938092	0.088128897
2020-02-08T00:05:00	0.3393	2.888		0.919066715	1.252088171	0.027371058	0.282382156	0.087032923
2020-02-08T00:10:00	0.3394	2.877		0.919584744	1.252993840	0.027401147	0.282692587	0.087128601
2020-02-08T00:15:00	0.3397	2.863		0.920409162	1.254435685	0.027449072	0.283187014	0.087280988
2020-02-08T00:20:00	0.3367	2.851		0.911110090	1.238209142	0.026911210	0.277637988	0.085570724
2020-02-08T00:25:00	0.3365	2.841		0.910400500	1.236974247	0.026870410	0.277217065	0.085440992
2020-02-08T00:30:00	0.3377	2.829		0.914297088	1.243761239	0.027094879	0.279532873	0.086154746
2020-02-08T00:35:00	0.3377	2.817		0.914201945	1.243595351	0.027089386	0.279476200	0.086137279
2020-02-08T00:40:00	0.3382	2.807		0.915641131	1.246105550	0.027172546	0.280334149	0.086401707
2020-02-08T00:45:00	0.3385	2.794		0.916773092	1.248081253	0.027238054	0.281009980	0.086610005
2020-02-08T00:50:00	0.3390	2.781		0.918211357	1.250593301	0.027321414	0.281869996	0.086875070
2020-02-08T00:55:00	0.3389	2.769		0.917809675	1.249891536	0.027298119	0.281629662	0.086800997
2020-02-08T01:00:00	0.3390	2.757		0.918327867	1.250796880	0.027328173	0.281939728	0.086896562
2020-02-08T01:05:00	0.3390	2.743		0.918232819	1.250630800	0.027322659	0.281882841	0.086879029
2020-02-08T01:10:00	0.3389	2.732		0.917831139	1.249929031	0.027299364	0.281642501	0.086804954
2020-02-08T01:15:00	0.3391	2.721		0.918655917	1.251370153	0.027347210	0.282136120	0.086957092
2020-02-08T01:20:00	0.3407	2.708		0.923463243	1.259782585	0.027627016	0.285022835	0.087846806
2020-02-08T01:25:00	0.3404	2.697		0.922449556	1.258006914	0.027567883	0.284412769	0.087658778
2020-02-08T01:30:00	0.3381	2.687		0.915610447	1.246052011	0.027170772	0.280315842	0.086396065
2020-02-08T01:35:00	0.3395	2.677		0.919808482	1.253385077	0.027414149	0.282826721	0.087169942
2020-02-08T01:40:00	0.3389	2.667		0.917874067	1.250004022	0.027301853	0.281668181	0.086812869
2020-02-08T01:45:00	0.3395	2.657		0.919618453	1.253052782	0.027403106	0.282712794	0.087134829
2020-02-08T01:50:00	0.3394	2.649		0.919523436	1.252886641	0.027397585	0.282655837	0.087117274
2020-02-08T01:55:00	0.3396	2.640		0.920041406	1.253792428	0.027427688	0.282966400	0.087212993
2020-02-08T02:00:00	0.3383	2.630		0.915960193	1.246662314	0.027191002	0.280524551	0.086460391
2020-02-08T02:05:00	0.3388	2.618		0.917705411	1.249709404	0.027292074	0.281567297	0.086781775
2020-02-08T02:10:00	0.3365	2.606		0.910551022	1.237236161	0.026879062	0.277306324	0.085468502
2020-02-08T02:15:00	0.3379	2.596		0.914754352	1.244558619	0.027121289	0.279805336	0.086238722
2020-02-08T02:20:00	0.3384	2.587		0.916500094	1.247604658	0.027222247	0.280846905	0.086559744
2020-02-08T02:25:00	0.3386	2.578		0.917018454	1.248509662	0.027252265	0.281156592	0.086655192
2020-02-08T02:30:00	0.3373	2.567		0.912934165	1.241385718	0.027016248	0.278721645	0.085904718
2020-02-08T02:35:00	0.3368	2.558		0.911610712	1.239080651	0.026940015	0.277935167	0.085662318
2020-02-08T02:40:00	0.3375	2.547		0.913664794	1.242658959	0.027058384	0.279156360	0.086038701
2020-02-08T02:45:00	0.3401	2.539		0.921542834	1.256419430	0.027515050	0.283867697	0.087490781
2020-02-08T02:50:00	0.3396	2.532		0.919915747	1.253572662	0.027420383	0.282891041	0.087189766
2020-02-08T02:55:00	0.3399	2.524		0.921046504	1.255550783	0.027486153	0.283569576	0.087398897
2020-02-08T03:00:00	0.3405	2.516		0.922789515	1.258602312	0.027587707	0.284617285	0.087721811
2020-02-08T03:05:00	0.3404	2.508		0.922388291	1.257899627	0.027564312	0.284375922	0.087647421
2020-02-08T03:10:00	0.3393	2.498		0.919229168	1.252372161	0.027380492	0.282479486	0.087062921
2020-02-08T03:15:00	0.3395	2.488		0.919747177	1.253277872	0.027410586	0.282789964	0.087158613
2020-02-08T03:20:00	0.3389	2.479		0.917812732	1.249896876	0.027298296	0.281631490	0.086801560
2020-02-08T03:25:00	0.3403	2.470		0.922314778	1.257770898	0.027560026	0.284331711	0.087633795
2020-02-08T03:30:00	0.3401	2.462		0.921607166	1.256532036	0.027518796	0.283906350	0.087502694
2020-02-08T03:35:00	0.3413	2.452		0.925186835	1.262804001	0.027727724	0.286061816	0.088167030
2020-02-08T03:40:00	0.3400	2.441		0.921417222	1.256199569	0.027507735	0.283792231	0.087467522
2020-02-08T03:45:00	0.3402	2.433		0.921934949	1.257105848	0.027537891	0.284103343	0.087563410
2020-02-08T03:50:00	0.3431	2.422		0.930713916	1.272511629	0.028052046	0.289407786	0.089198290
2020-02-08T03:55:00	0.3432	2.413		0.931230450	1.273420322	0.028082463	0.289721595	0.089295009
2020-02-08T04:00:00	0.3435	2.404		0.932052490	1.274866979	0.028130909	0.290221399	0.089449054
2020-02-08T04:05:00	0.3422	2.394		0.928032215	1.267797977	0.027894424	0.287781630	0.088697093
2020-02-08T04:10:00	0.3433	2.383		0.931349319	1.273629472	0.028089466	0.289793838	0.089317275
2020-02-08T04:15:00	0.3422	2.372		0.927940132	1.267636242	0.027889020	0.287725883	0.088679911
2020-02-08T04:20:00	0.3432	2.364		0.930951680	1.272929875	0.028066045	0.289552211	0.089242803
2020-02-08T04:25:00	0.3426	2.352		0.929377149	1.270161138	0.027973413	0.288596544	0.088948258
2020-02-08T04:30:00	0.3419	2.343		0.927190194	1.266319341	0.027845035	0.287272093	0.088540049
2020-02-08T04:35:00	0.3415	2.334		0.925920231	1.264090471	0.027770637	0.286504547	0.088303484
2020-02-08T04:40:00	0.3395	2.326		0.919748947	1.253280967	0.027410689	0.282791025	0.087158940
2020-02-08T04:45:00	0.3397	2.318		0.920315760	1.254272299	0.027443640	0.283130974	0.087263716
2020-02-08T04:50:00	0.3379	2.311		0.914749660	1.244550436	0.027121018	0.279802539	0.086237860
2020-02-08T04:55:00	0.3385	2.305		0.916544321	1.247681864	0.027224808	0.280873320	0.086567885
2020-02-08T05:00:00	0.3397	2.299		0.920483820	1.254566287	0.027453414	0.283231812	0.087294795
2020-02-08T05:05:00	0.3388	2.292		0.917678771	1.249662871	0.027290530	0.281551364	0.086776865
2020-02-08T05:10:00	0.3388	2.282		0.917632612	1.249582242	0.027287854	0.281523757	0.086768356
2020-02-08T05:15:00	0.3393	2.275		0.919119455	1.252180364	0.027374120	0.282413752	0.087042661
2020-02-08T05:20:00	0.3376	2.267		0.913858650	1.242996870	0.027069570	0.279271766	0.086074271
2020-02-08T05:25:00	0.3382	2.260		0.915653711	1.246127500	0.027173274	0.280341654	0.086404021
2020-02-08T05:30:00	0.3368	2.251		0.911617008	1.239091613	0.026940377	0.277938905	0.085663470
2020-02-08T05:35:00	0.3374	2.245		0.913413072	1.242220235	0.027043863	0.279006546	0.085992527
2020-02-08T05:40:00	0.3376	2.239		0.913980780	1.243209771	0.027076619	0.279344485	0.086096683
2020-02-08T05:45:00	0.3392	2.233		0.918842589	1.251696409	0.027358045	0.282247907	0.086991546
2020-02-08T05:50:00	0.3368	2.226		0.911432087	1.238769665	0.026929735	0.277829111	0.085629630
2020-02-08T05:55:00	0.3372	2.221		0.912614202	1.240828286	0.026997806	0.278531390	0.085846079
2020-02-08T06:00:00	0.3378	2.217		0.914409819	1.243957801	0.027101389	0.279600030	0.086175445
2020-02-08T06:05:00	0.3377	2.214		0.914363622	1.243877248	0.027098721	0.279572508	0.086166962
2020-02-08T06:10:00	0.3375	2.209		0.913703559	1.242726527	0.027060621	0.279179436	0.086045813
2020-02-08T06:15:00	0.3369	2.202		0.911815173	1.239436655	0.026951784	0.278056589	0.085699741
2020-02-08T06:20:00	0.3382	2.196		0.915759314	1.246311769	0.027179381	0.280404667	0.086423442
2020-02-08T06:25:00	0.3364	2.191		0.910186885	1.236602587	0.026858134	0.277090420	0.085401959
2020-02-08T06:30:00	0.3365	2.187		0.910447856	1.237056647	0.026873132	0.277245146	0.085449646
2020-02-08T06:35:00	0.3360	2.181		0.908865273	1.234304114	0.026782256	0.276307598	0.085160685
2020-02-08T06:40:00	0.3346	2.177		0.904821716	1.227281896	0.026550843	0.273920152	0.084424851
2020-02-08T06:45:00	0.3340	2.172		0.902929132	1.224000382	0.026442914	0.272806665	0.084081663
2020-02-08T06:50:00	0.3338	2.169		0.902267179	1.222853423	0.026405222	0.272417805	0.083961813
2020-02-08T06:55:00	0.3353	2.164		0.906835752	1.230777654	0.026665967	0.275107863	0.084790915
2020-02-08T07:00:00	0.3337	2.160		0.901866650	1.222159627	0.026382430	0.272182666	0.083889341
2020-02-08T07:05:00	0.3368	2.157		0.911352878	1.238631770	0.026925177	0.277782089	0.085615138
2020-02-08T07:10:00	0.3391	2.155		0.918671230	1.251396916	0.027348098	0.282145289	0.086959918
2020-02-08T07:15:00	0.3411	2.151		0.924752010	1.262041501	0.027702298	0.285799504	0.088086183
2020-02-08T07:20:00	0.3413	2.149		0.925318119	1.263034253	0.027735403	0.286141040	0.088191448
2020-02-08T07:25:00	0.3413	2.146		0.925272047	1.262953448	0.027732708	0.286113236	0.088182878
2020-02-08T07:30:00	0.3427	2.146		0.929508782	1.270392519	0.027981150	0.288676372	0.088972861
2020-02-08T07:35:00	0.3414	2.145		0.925485971	1.263328662	0.027745223	0.286242350	0.088222672
2020-02-08T07:40:00	0.3432	2.145		0.930945241	1.272918548	0.028065666	0.289548299	0.089241598
2020-02-08T07:45:00	0.3441	2.145		0.933954550	1.278216733	0.028243183	0.291379709	0.089806056
2020-02-08T07:50:00	0.3447	2.147		0.935740680	1.281365414	0.028348841	0.292469770	0.090142023
2020-02-08T07:55:00	0.3445	2.146		0.935084111	1.280207632	0.028309976	0.292068806	0.090018443
2020-02-08T08:00:00	0.3429	2.145		0.930149845	1.271519596	0.028018850	0.289065314	0.089092737
2020-02-08T08:05:00	0.3438	2.145		0.932854259	1.276278575	0.028178205	0.290709343	0.089599443
2020-02-08T08:10:00	0.3438	2.147		0.932808272	1.276197595	0.028175491	0.290681344	0.089590813
2020-02-08T08:15:00	0.3431	2.149		0.930928832	1.272889682	0.028064699	0.289538330	0.089238525
2020-02-08T08:20:00	0.3424	2.152		0.928742718	1.269046178	0.027936137	0.288211973	0.088829729
2020-02-08T08:25:00	0.3427	2.157		0.929614023	1.270577520	0.027987338	0.288740202	0.088992535
2020-02-08T08:30:00	0.3448	2.163		0.935983612	1.281793898	0.028363229	0.292618205	0.090187773
2020-02-08T08:35:00	0.3441	2.172		0.933800231	1.277944831	0.028234064	0.291285636	0.089777062
2020-02-08T08:40:00	0.3458	2.180		0.938943261	1.287018600	0.028538843	0.294429984	0.090746180
2020-02-08T08:45:00	0.3443	2.195		0.934319103	1.278859142	0.028264730	0.291602008	0.089874571
2020-02-08T08:50:00	0.3442	2.209		0.934273134	1.278778128	0.028262012	0.291573971	0.089865930
2020-02-08T08:55:00	0.3450	2.225		0.936669592	1.283004133	0.028403878	0.293037577	0.090317027
2020-02-08T09:00:00	0.3468	2.239		0.942113796	1.292624728	0.028727644	0.296377807	0.091346519
2020-02-08T09:05:00	0.3469	2.253		0.942372709	1.293082954	0.028743093	0.296537189	0.091395641
2020-02-08T09:10:00	0.3451	2.267		0.936836972	1.283299500	0.028413802	0.293139956	0.090348581
2020-02-08T09:15:00	0.3444	2.283		0.934654052	1.279449493	0.028284535	0.291806338	0.089937547
2020-02-08T09:20:00	0.3442	2.300		0.933997306	1.278292070	0.028245709	0.291405776	0.089814090
2020-02-08T09:25:00	0.3454	2.317		0.937919801	1.285210943	0.028478046	0.293802755	0.090552862
2020-02-08T09:30:00	0.3452	2.331		0.937263585	1.284052438	0.028439103	0.293400985	0.090429033
2020-02-08T09:35:00	0.3469	2.348		0.942402224	1.293135194	0.028744854	0.296555360	0.091401242
2020-02-08T09:40:00	0.3474	2.360		0.943879978	1.295751791	0.028833120	0.297465985	0.091681906
2020-02-08T09:45:00	0.3474	2.373		0.943834117	1.295670555	0.028830379	0.297437701	0.091673188
2020-02-08T09:50:00	0.3474	2.387		0.943788255	1.295589321	0.028827637	0.297409418	0.091664471
2020-02-08T09:55:00	0.3471	2.401		0.943132988	1.294428871	0.028788484	0.297005478	0.091539973
2020-02-08T10:00:00	0.3476	2.414		0.944610476	1.297046013	0.028876809	0.297916713	0.091820824
2020-02-08T10:05:00	0.3462	2.430		0.940165483	1.289178607	0.028611542	0.295180006	0.090977345
2020-02-08T10:10:00	0.3458	2.441		0.939072337	1.287246647	0.028546516	0.294509141	0.090770578
2020-02-08T10:15:00	0.3481	2.453		0.945904080	1.299339122	0.028954266	0.298715822	0.092067117
2020-02-08T10:20:00	0.3480	2.463		0.945726173	1.299023662	0.028943606	0.298605851	0.092033223
2020-02-08T10:25:00	0.3474	2.473		0.944025253	1.296009134	0.028841806	0.297555592	0.091709523
2020-02-08T10:30:00	0.3475	2.482		0.944151925	1.296233539	0.028849380	0.297633735	0.091733608
2020-02-08T10:35:00	0.3476	2.494		0.944583220	1.296997714	0.028875178	0.297899888	0.091815639
2020-02-08T10:40:00	0.3464	2.503		0.940748051	1.290208663	0.028646230	0.295537878	0.091087644
2020-02-08T10:45:00	0.3442	2.513		0.934161580	1.278581543	0.028255418	0.291505941	0.089844962
2020-02-08T10:50:00	0.3432	2.524		0.931233496	1.273425681	0.028082643	0.289723446	0.089295580
2020-02-08T10:55:00	0.3436	2.537		0.932277301	1.275262722	0.028144166	0.290358170	0.089491208
2020-02-08T11:00:00	0.3438	2.554		0.933015361	1.276562285	0.028187713	0.290807443	0.089629678
2020-02-08T11:05:00	0.3448	2.571		0.935890742	1.281630088	0.028357728	0.292561455	0.090170282
2020-02-08T11:10:00	0.3441	2.594		0.933880280	1.278085870	0.028238794	0.291334432	0.089792101
2020-02-08T11:15:00	0.3432	2.624		0.930951992	1.272930423	0.028066063	0.289552400	0.089242862
2020-02-08T11:20:00	0.3433	2.653		0.931384695	1.273691719	0.028091550	0.289815340	0.089323902
2020-02-08T11:25:00	0.3449	2.684		0.936398422	1.282525671	0.028387806	0.292871758	0.090265920
2020-02-08T11:30:00	0.3446	2.720		0.935304259	1.280595791	0.028323004	0.292203215	0.090059869
2020-02-08T11:35:00	0.3460	2.754		0.939703216	1.288361487	0.028584034	0.294896208	0.090889875
2020-02-08T11:40:00	0.3465	2.785		0.941049733	1.290742200	0.028664203	0.295723296	0.091144792
2020-02-08T11:45:00	0.3460	2.811		0.939651850	1.288270703	0.028580978	0.294864682	0.090880159
2020-02-08T11:50:00	0.3481	2.831		0.946178133	1.299825126	0.028970690	0.298885269	0.092119343
2020-02-08T11:55:00	0.3473	2.848		0.943563426	1.295191112	0.028814200	0.297270787	0.091621744
2020-02-08T12:00:00	0.3467	2.861		0.941861599	1.292178448	0.028712601	0.296222606	0.091298684
2020-02-08T12:05:00	0.3452	2.870		0.937108424	1.283778571	0.028429900	0.293306033	0.090399768
2020-02-08T12:10:00	0.3469	2.871		0.942419864	1.293166416	0.028745907	0.296566221	0.091404590
2020-02-08T12:15:00	0.3449	2.872		0.936141375	1.282072191	0.028372575	0.292714623	0.090217490
2020-02-08T12:20:00	0.3452	2.876		0.937183914	1.283911812	0.028434377	0.293352228	0.090414006
2020-02-08T12:25:00	0.3444	2.878		0.934868758	1.279827971	0.028297235	0.291937359	0.089977929
2020-02-08T12:30:00	0.3452	2.878		0.937132516	1.283821093	0.028431328	0.293320775	0.090404312
2020-02-08T12:35:00	0.3437	2.873		0.932679308	1.275970505	0.028167881	0.290602832	0.089566615
2020-02-08T12:40:00	0.3437	2.872		0.932500820	1.275656236	0.028157350	0.290494190	0.089533130
2020-02-08T12:45:00	0.3419	2.871		0.927124808	1.266204548	0.027841202	0.287232547	0.088527861
2020-02-08T12:50:00	0.3409	2.869		0.924191613	1.261059060	0.027669549	0.285461638	0.087982049
2020-02-08T12:55:00	0.3405	2.868		0.922787885	1.258599456	0.027587612	0.284616304	0.087721509
2020-02-08T13:00:00	0.3394	2.868		0.919545029	1.252924397	0.027398840	0.282668781	0.087121263
2020-02-08T13:05:00	0.3383	2.870		0.915992786	1.246719193	0.027192887	0.280544005	0.086466387
2020-02-08T13:10:00	0.3391	2.870		0.918573759	1.251226572	0.027342441	0.282086928	0.086941931
2020-02-08T13:15:00	0.3382	2.871		0.915634320	1.246093666	0.027172152	0.280330085	0.086400455
2020-02-08T13:20:00	0.3383	2.872		0.916068672	1.246851632	0.027197278	0.280589304	0.086480348
2020-02-08T13:25:00	0.3379	2.871		0.914968975	1.244932948	0.027133689	0.279933271	0.086278153
2020-02-08T13:30:00	0.3387	2.872		0.917243933	1.248903403	0.027265328	0.281291360	0.086696729
2020-02-08T13:35:00	0.3389	2.872		0.917984752	1.250197388	0.027308271	0.281734400	0.086833278
2020-02-08T13:40:00	0.3396	2.872		0.919951536	1.253635252	0.027422464	0.282912503	0.087196381
2020-02-08T13:45:00	0.3395	2.873		0.919772483	1.253322126	0.027412057	0.282805137	0.087163290
2020-02-08T13:50:00	0.3386	2.870		0.917140626	1.248722998	0.027259342	0.281229609	0.086677697
2020-02-08T13:55:00	0.3389	2.870		0.917881464	1.250016945	0.027302282	0.281672606	0.086814233
2020-02-08T14:00:00	0.3384	2.869		0.916475531	1.247561780	0.027220825	0.280832235	0.086555222
2020-02-08T14:05:00	0.3383	2.867		0.915989554	1.246713554	0.027192700	0.280542077	0.086465793
2020-02-08T14:10:00	0.3386	2.864		0.917037317	1.248542599	0.027253357	0.281167865	0.086658667
2020-02-08T14:15:00	0.3391	2.860		0.918391416	1.250907926	0.027331861	0.281977767	0.086908286
2020-02-08T14:20:00	0.3396	2.855		0.920051542	1.253810155	0.027428277	0.282972479	0.087214866
2020-02-08T14:25:00	0.3398	2.849		0.920791843	1.255105181	0.027471333	0.283416682	0.087351774
2020-02-08T14:30:00	0.3396	2.840		0.919999925	1.253719880	0.027425277	0.282941522	0.087205325
2020-02-08T14:35:00	0.3404	2.832		0.922578328	1.258232429	0.027575391	0.284490227	0.087682651
2020-02-08T14:40:00	0.3379	2.825		0.914734783	1.244524491	0.027120158	0.279793673	0.086235127
2020-02-08T14:45:00	0.3377	2.818		0.914248596	1.243676688	0.027092079	0.279503987	0.086145843
2020-02-08T14:50:00	0.3373	2.812		0.913148399	1.241759004	0.027028599	0.278849073	0.085943992
2020-02-08T14:55:00	0.3379	2.806		0.914810694	1.244656882	0.027124544	0.279838917	0.086249072
2020-02-08T15:00:00	0.3366	2.801		0.910947099	1.237925448	0.026901835	0.277541272	0.085540915
2020-02-08T15:05:00	0.3365	2.797		0.910460452	1.237078563	0.026873856	0.277252615	0.085451949
2020-02-08T15:10:00	0.3372	2.791		0.912737969	1.241043898	0.027004939	0.278604975	0.085868759
2020-02-08T15:15:00	0.3379	2.788		0.914707324	1.244476603	0.027118572	0.279777307	0.086230083
2020-02-08T15:20:00	0.3385	2.783		0.916675714	1.247911244	0.027232415	0.280951805	0.086592075
2020-02-08T15:25:00	0.3379	2.778		0.914962510	1.244921673	0.027133316	0.279929417	0.086276965
2020-02-08T15:30:00	0.3376	2.773		0.913862509	1.243003597	0.027069793	0.279274064	0.086074979
2020-02-08T15:35:00	0.3383	2.767		0.916138095	1.246972794	0.027201295	0.280630747	0.086493122
2020-02-08T15:40:00	0.3371	2.765		0.912275780	1.240238800	0.026978309	0.278330237	0.085784082
2020-02-08T15:45:00	0.3375	2.759		0.913631487	1.242600905	0.027056462	0.279136535	0.086032591
2020-02-08T15:50:00	0.3386	2.753		0.917134165	1.248711716	0.027258968	0.281225748	0.086676507
2020-02-08T15:55:00	0.3389	2.745		0.917875004	1.250005660	0.027301907	0.281668742	0.086813042
2020-02-08T16:00:00	0.3379	2.735		0.914935053	1.244873782	0.027131729	0.279913048	0.086271920
2020-02-08T16:05:00	0.3382	2.724		0.915809352	1.246399085	0.027182276	0.280434527	0.086432645
2020-02-08T16:10:00	0.3389	2.714		0.917910186	1.250067122	0.027303947	0.281689789	0.086819529
2020-02-08T16:15:00	0.3390	2.705		0.918170656	1.250522186	0.027319053	0.281845639	0.086867563
2020-02-08T16:20:00	0.3398	2.697		0.920576698	1.254728770	0.027458817	0.283287549	0.087311974
2020-02-08T16:25:00	0.3407	2.687		0.923287538	1.259474734	0.027616762	0.284917038	0.087814198
2020-02-08T16:30:00	0.3425	2.675		0.929055582	1.269595964	0.027954516	0.288401585	0.088888169
2020-02-08T16:35:00	0.3424	2.663		0.928703751	1.268977709	0.027933848	0.288188362	0.088822452
2020-02-08T16:40:00	0.3413	2.651		0.925292327	1.262989016	0.027733894	0.286125475	0.088186650
2020-02-08T16:45:00	0.3431	2.638		0.930751859	1.272578371	0.028054280	0.289430831	0.089205393
2020-02-08T16:50:00	0.3426	2.623		0.929177251	1.269809792	0.027961665	0.288475342	0.088910902
2020-02-08T16:55:00	0.3417	2.611		0.926378254	1.264894157	0.027797457	0.286781237	0.088388762
2020-02-08T17:00:00	0.3436	2.599		0.932447425	1.275562227	0.028154200	0.290461693	0.089523115
2020-02-08T17:05:00	0.3422	2.587		0.928121697	1.267955152	0.027899675	0.287835808	0.088713792
2020-02-08T17:10:00	0.3431	2.575		0.930827468	1.272711371	0.028058731	0.289476756	0.089219547
2020-02-08T17:15:00	0.3432	2.565		0.931087104	1.273168120	0.028074020	0.289634489	0.089268162
2020-02-08T17:20:00	0.3439	2.554		0.933179987	1.276852225	0.028197432	0.290907707	0.089660581
2020-02-08T17:25:00	0.3437	2.546		0.932523002	1.275695290	0.028158659	0.290507690	0.089537291
2020-02-08T17:30:00	0.3440	2.541		0.933393492	1.277228289	0.028210039	0.291037770	0.089700667
2020-02-08T17:35:00	0.3432	2.534		0.931208711	1.273382074	0.028081183	0.289708384	0.089290938
2020-02-08T17:40:00	0.3450	2.528		0.936660258	1.282987663	0.028403325	0.293031869	0.090315268
2020-02-08T17:45:00	0.3427	2.523		0.929588258	1.270532228	0.027985823	0.288724575	0.088987718
2020-02-08T17:50:00	0.3423	2.517		0.928319050	1.268301827	0.027911260	0.287955319	0.088750626
2020-02-08T17:55:00	0.3447	2.513		0.935606657	1.281129047	0.028340905	0.292387897	0.090116790
2020-02-08T18:00:00	0.3436	2.507		0.932201062	1.275128510	0.028139670	0.290311783	0.089476911
2020-02-08T18:05:00	0.3446	2.504		0.935209437	1.280428598	0.028317393	0.292145318	0.090042024
2020-02-08T18:10:00	0.3435	2.499		0.932109074	1.274966583	0.028134245	0.290255821	0.089459663
2020-02-08T18:15:00	0.3438	2.492		0.932979654	1.276499400	0.028185606	0.290785698	0.089622976
2020-02-08T18:20:00	0.3449	2.487		0.936292701	1.282339151	0.028381541	0.292807124	0.090245999
2020-02-08T18:25:00	0.3446	2.481		0.935330920	1.280642804	0.028324582	0.292219495	0.090064886
2020-02-08T18:30:00	0.3446	2.473		0.935284962	1.280561767	0.028321862	0.292191433	0.090056237
2020-02-08T18:35:00	0.3455	2.464		0.937985946	1.285327739	0.028481973	0.293843269	0.090565349
2020-02-08T18:40:00	0.3452	2.454		0.937329740	1.284169213	0.028443028	0.293441475	0.090441512
2020-02-08T18:45:00	0.3449	2.445		0.936368206	1.282472362	0.028386015	0.292853285	0.090260226
2020-02-08T18:50:00	0.3470	2.438		0.942727185	1.293710413	0.028764251	0.296755475	0.091462919
2020-02-08T18:55:00	0.3431	2.431		0.930778240	1.272624775	0.028055833	0.289446854	0.089210331
2020-02-08T19:00:00	0.3470	2.424		0.942635436	1.293547998	0.028758774	0.296698967	0.091445503
2020-02-08T19:05:00	0.3452	2.416		0.937100059	1.283763807	0.028429403	0.293300914	0.090398190
2020-02-08T19:10:00	0.3487	2.406		0.947721466	1.302563383	0.029063282	0.299840520	0.092413760
2020-02-08T19:15:00	0.3480	2.394		0.945848929	1.299241327	0.028950961	0.298681729	0.092056609
2020-02-08T19:20:00	0.3486	2.383		0.947629830	1.302400735	0.029057779	0.299783754	0.092396264
2020-02-08T19:25:00	0.3476	2.373		0.944538954	1.296919275	0.028872530	0.297872566	0.091807218
2020-02-08T19:30:00	0.3484	2.364		0.946929356	1.301157702	0.029015739	0.299350028	0.092262586
2020-02-08T19:35:00	0.3469	2.355		0.942314299	1.292979576	0.028739607	0.296501229	0.091384558
2020-02-08T19:40:00	0.3478	2.346		0.945010606	1.297755135	0.028900755	0.298163760	0.091896967
2020-02-08T19:45:00	0.3478	2.336		0.944964758	1.297673874	0.028898010	0.298135447	0.091888240
2020-02-08T19:50:00	0.3479	2.327		0.945528046	1.298672382	0.028931738	0.298483407	0.091995485
2020-02-08T19:55:00	0.3474	2.316		0.943959172	1.295892075	0.028837855	0.297514831	0.091696960
2020-02-08T20:00:00	0.3472	2.306		0.943303933	1.294731568	0.028798695	0.297110828	0.091572443
2020-02-08T20:05:00	0.3474	2.296		0.943867452	1.295729602	0.028832371	0.297458260	0.091679525
2020-02-08T20:10:00	0.3501	2.289		0.952039468	1.310236539	0.029323219	0.302522249	0.093240295
2020-02-08T20:15:00	0.3494	2.282		0.949864707	1.306369754	0.029192140	0.301169922	0.092823495
2020-02-08T20:20:00	0.3478	2.272		0.945252983	1.298184757	0.028915266	0.298313464	0.091943107
2020-02-08T20:25:00	0.3486	2.264		0.947642965	1.302424049	0.029058568	0.299791890	0.092398772
2020-02-08T20:30:00	0.3495	2.256		0.950335742	1.307206888	0.029220502	0.301462536	0.092913681
2020-02-08T20:35:00	0.3495	2.249		0.950289954	1.307125502	0.029217745	0.301434085	0.092904912
2020-02-08T20:40:00	0.3483	2.242		0.946592213	1.300559585	0.028995516	0.299141397	0.092198284
2020-02-08T20:45:00	0.3477	2.236		0.944719155	1.297238602	0.028883312	0.297983802	0.091841502
2020-02-08T20:50:00	0.3442	2.228		0.933997929	1.278293167	0.028245746	0.291406156	0.089814207
2020-02-08T20:55:00	0.3451	2.225		0.937004968	1.283595979	0.028423764	0.293242731	0.090380258
2020-02-08T21:00:00	0.3454	2.219		0.937874495	1.285130944	0.028475357	0.293775006	0.090544310
2020-02-08T21:05:00	0.3501	2.213		0.952144126	1.310422736	0.029329536	0.302587414	0.093260380
2020-02-08T21:10:00	0.3487	2.206		0.947839370	1.302772665	0.029070362	0.299913567	0.092436274
2020-02-08T21:15:00	0.3489	2.198		0.948402260	1.303771994	0.029104178	0.300262443	0.092543801
2020-02-08T21:20:00	0.3470	2.190		0.942569989	1.293432146	0.028754867	0.296658663	0.091433081
2020-02-08T21:25:00	0.3459	2.185		0.939475258	1.287958615	0.028570474	0.294756315	0.090846759
2020-02-08T21:30:00	0.3481	2.181		0.946133884	1.299746650	0.028968038	0.298857906	0.092110909
2020-02-08T21:35:00	0.3463	2.176		0.940603280	1.289952660	0.028637608	0.295448922	0.091060227
2020-02-08T21:40:00	0.3472	2.172		0.943300723	1.294725884	0.028798503	0.297108849	0.091571833
2020-02-08T21:45:00	0.3448	2.168		0.935935068	1.281708272	0.028360354	0.292588541	0.090178630
2020-02-08T21:50:00	0.3437	2.164		0.932529750	1.275707171	0.028159057	0.290511797	0.089538557
2020-02-08T21:55:00	0.3419	2.159		0.926980519	1.265951243	0.027832744	0.287145290	0.088500967
2020-02-08T22:00:00	0.3441	2.156		0.933965135	1.278235384	0.028243808	0.291386163	0.089808045
2020-02-08T22:05:00	0.3438	2.153		0.932910832	1.276378201	0.028181544	0.290743790	0.089610060
2020-02-08T22:10:00	0.3440	2.152		0.933383839	1.277211286	0.028209469	0.291031889	0.089698855
2020-02-08T22:15:00	0.3440	2.150		0.933551356	1.277506376	0.028219362	0.291133958	0.089730313
2020-02-08T22:20:00	0.3415	2.149		0.925769763	1.263826490	0.027761830	0.286413682	0.088275479
2020-02-08T22:25:00	0.3426	2.148		0.929302448	1.270029838	0.027969022	0.288551248	0.088934297
2020-02-08T22:30:00	0.3437	2.146		0.932526532	1.275701505	0.028158867	0.290509838	0.089537954
2020-02-08T22:35:00	0.3432	2.143		0.931166237	1.273307344	0.028078681	0.289682573	0.089282983
2020-02-08T22:40:00	0.3448	2.142		0.935915464	1.281673693	0.028359192	0.292576561	0.090174938
2020-02-08T22:45:00	0.3439	2.142		0.933334642	1.277124627	0.028206564	0.291001916	0.089689617
2020-02-08T22:50:00	0.3456	2.140		0.938386418	1.286034970	0.028505756	0.294088629	0.090640972
2020-02-08T22:55:00	0.3452	2.139		0.937333266	1.284175436	0.028443237	0.293443633	0.090442178
2020-02-08T23:00:00	0.3443	2.137		0.934447981	1.279086277	0.028272350	0.291680618	0.089898799
2020-02-08T23:05:00	0.3455	2.136		0.937973090	1.285305039	0.028481210	0.293835394	0.090562922
2020-02-08T23:10:00	0.3437	2.135		0.932644878	1.275909880	0.028165849	0.290581873	0.089560155
2020-02-08T23:15:00	0.3466	2.134		0.941357469	1.291286534	0.028682542	0.295912503	0.091203107
2020-02-08T23:20:00	0.3460	2.133		0.939695167	1.288347262	0.028583555	0.294891268	0.090888353
2020-02-08T23:25:00	0.3449	2.131		0.936201117	1.282177583	0.028376114	0.292751140	0.090228745
2020-02-08T23:30:00	0.3454	2.130		0.937894400	1.285166092	0.028476538	0.293787197	0.090548067
2020-02-08T23:35:00	0.3447	2.132		0.935620142	1.281152830	0.028341704	0.292396135	0.090119328
2020-02-08T23:40:00	0.3448	2.131		0.936092833	1.281986561	0.028369699	0.292684954	0.090208345
2020-02-08T23:45:00	0.3444	2.131		0.934733738	1.279589956	0.028289248	0.291854961	0.089952533
2020-02-08T23:50:00	0.3457	2.128		0.938563679	1.286348059	0.028516286	0.294197269	0.090674455
2020-02-08T23:55:00	0.3419	2.126		0.927122210	1.266199985	0.027841049	0.287230975	0.088527376
2020-02-09T00:00:00	0.3442	2.125		0.934014637	1.278322608	0.028246734	0.291416342	0.089817347
2020-02-09T00:05:00	0.3441	2.124		0.933876717	1.278079592	0.028238583	0.291332260	0.089791432
2020-02-09T00:10:00	0.3431	2.122		0.930683312	1.272457798	0.028050244	0.289389199	0.089192562
2020-02-09T00:15:00	0.3434	2.119		0.931767789	1.274365879	0.028114125	0.290048245	0.089395686
2020-02-09T00:20:00	0.3434	2.117		0.931629792	1.274123020	0.028105992	0.289964337	0.089369825
2020-02-09T00:25:00	0.3425	2.116		0.929046231	1.269579530	0.027953966	0.288395917	0.088886422
2020-02-09T00:30:00	0.3432	2.115		0.931048160	1.273099606	0.028071726	0.289610826	0.089260869
2020-02-09T00:35:00	0.3414	2.113		0.925710802	1.263723054	0.027758379	0.286378081	0.088264506
2020-02-09T00:40:00	0.3431	2.110		0.930772112	1.272613996	0.028055472	0.289443132	0.089209184
2020-02-09T00:45:00	0.3442	2.106		0.933995023	1.278288047	0.028245574	0.291404384	0.089813661
2020-02-09T00:50:00	0.3431	2.104		0.930801712	1.272666063	0.028057215	0.289461111	0.089214726
2020-02-09T00:55:00	0.3450	2.102		0.936467149	1.282646930	0.028391879	0.292913780	0.090278872
2020-02-09T01:00:00	0.3443	2.100		0.934497476	1.279173513	0.028275276	0.291710811	0.089908105
2020-02-09T01:05:00	0.3466	2.098		0.941377358	1.291321717	0.028683728	0.295924734	0.091206877
2020-02-09T01:10:00	0.3444	2.095		0.934832410	1.279763894	0.028295085	0.291915175	0.089971092
2020-02-09T01:15:00	0.3463	2.092		0.940492212	1.289756267	0.028630994	0.295380686	0.091039196
2020-02-09T01:20:00	0.3462	2.091		0.940354512	1.289512801	0.028622795	0.295296100	0.091013126
2020-02-09T01:25:00	0.3461	2.088		0.939911852	1.288730255	0.028596447	0.295024276	0.090929347
2020-02-09T01:30:00	0.3459	2.086		0.939469144	1.287947809	0.028570110	0.294752563	0.090845603
2020-02-09T01:35:00	0.3446	2.083		0.935364325	1.280701707	0.028326560	0.292239894	0.090071174
2020-02-09T01:40:00	0.3467	2.079		0.941633107	1.291774166	0.028698975	0.296082032	0.091255358
2020-02-09T01:45:00	0.3443	2.076		0.934477865	1.279138948	0.028274117	0.291698848	0.089904418
2020-02-09T01:50:00	0.3464	2.073		0.940748017	1.290208602	0.028646228	0.295537857	0.091087638
2020-02-09T01:55:00	0.3435	2.070		0.932063703	1.274886717	0.028131570	0.290228220	0.089451156
2020-02-09T02:00:00	0.3444	2.066		0.934674907	1.279486254	0.028285769	0.291819063	0.089941469
2020-02-09T02:05:00	0.3432	2.062		0.931176518	1.273325433	0.028079286	0.289688821	0.089284908
2020-02-09T02:10:00	0.3420	2.060		0.927369194	1.266633619	0.027855530	0.287380370	0.088573421
2020-02-09T02:15:00	0.3430	2.056		0.930594821	1.272302152	0.028045035	0.289335459	0.089175998
2020-02-09T02:20:00	0.3409	2.051		0.924032377	1.260779955	0.027660248	0.285365675	0.087952472
2020-02-09T02:25:00	0.3431	2.048		0.930624422	1.272354216	0.028046778	0.289353435	0.089181539
2020-02-09T02:30:00	0.3419	2.047		0.927122522	1.266200533	0.027841068	0.287231164	0.088527434
2020-02-09T02:35:00	0.3430	2.045		0.930348345	1.271868665	0.028030530	0.289185806	0.089129874
2020-02-09T02:40:00	0.3429	2.042		0.930210300	1.271625904	0.028022407	0.289102008	0.089104046
2020-02-09T02:45:00	0.3432	2.040		0.930989275	1.272996013	0.028068259	0.289575051	0.089249843
2020-02-09T02:50:00	0.3410	2.038		0.924427474	1.261472515	0.027683330	0.285603813	0.088025869
2020-02-09T02:55:00	0.3433	2.039		0.931324500	1.273585802	0.028088003	0.289778753	0.089312626
2020-02-09T03:00:00	0.3433	2.041		0.931492102	1.273880718	0.028097878	0.289880628	0.089344025
2020-02-09T03:05:00	0.3425	2.046		0.928908453	1.269337407	0.027945872	0.288312408	0.088860684
2020-02-09T03:10:00	0.3445	2.049		0.935187235	1.280389453	0.028316079	0.292131763	0.090037847
2020-02-09T03:15:00	0.3453	2.055		0.937491287	1.284454385	0.028452613	0.293540361	0.090471990
2020-02-09T03:20:00	0.3479	2.058		0.945279890	1.298232454	0.028916877	0.298330086	0.091948230
2020-02-09T03:25:00	0.3492	2.063		0.949404163	1.305551466	0.029164423	0.300883979	0.092735364
2020-02-09T03:30:00	0.3493	2.069		0.949571019	1.305847911	0.029174463	0.300987559	0.092767289
2020-02-09T03:35:00	0.3492	2.077		0.949433627	1.305603811	0.029166196	0.300902268	0.092741001
2020-02-09T03:40:00	0.3496	2.083		0.950513102	1.307522151	0.029231186	0.301572757	0.092947652
2020-02-09T03:45:00	0.3483	2.086		0.946723908	1.300793209	0.029003415	0.299222883	0.092223398
2020-02-09T03:50:00	0.3485	2.091		0.947195306	1.301629592	0.029031696	0.299514660	0.092313327
2020-02-09T03:55:00	0.3491	2.096		0.949188294	1.305167983	0.029151437	0.300750002	0.092694072
2020-02-09T04:00:00	0.3485	2.102		0.947224786	1.301681904	0.029033466	0.299532912	0.092318952
2020-02-09T04:05:00	0.3485	2.105		0.947248818	1.301724549	0.029034908	0.299547792	0.092323539
2020-02-09T04:10:00	0.3491	2.104		0.949098931	1.305009246	0.029146062	0.300694550	0.092676981
2020-02-09T04:15:00	0.3478	2.102		0.945165431	1.298029561	0.028910023	0.298259383	0.091926438
2020-02-09T04:20:00	0.3475	2.101		0.944275659	1.296452756	0.028856780	0.297710079	0.091757138
2020-02-09T04:25:00	0.3473	2.099		0.943690388	1.295415976	0.028821787	0.297349068	0.091645871
2020-02-09T04:30:00	0.3484	2.097		0.947064557	1.301397588	0.029023851	0.299433715	0.092288379
2020-02-09T04:35:00	0.3494	2.095		0.950131740	1.306844306	0.029208217	0.301335788	0.092874616
2020-02-09T04:40:00	0.3506	2.093		0.953500576	1.312836939	0.029411470	0.303432717	0.093520910
2020-02-09T04:45:00	0.3509	2.093		0.954436314	1.314503374	0.029468067	0.304016616	0.093700874
2020-02-09T04:50:00	0.3525	2.093		0.959319466	1.323213115	0.029764410	0.307073930	0.094643167
2020-02-09T04:55:00	0.3515	2.093		0.956307146	1.317837580	0.029581405	0.305185902	0.094061259
2020-02-09T05:00:00	0.3506	2.092		0.953596556	1.313007828	0.029417273	0.303492579	0.093539360
2020-02-09T05:05:00	0.3512	2.090		0.955443789	1.316298490	0.029529071	0.304645983	0.093894851
2020-02-09T05:10:00	0.3509	2.087		0.954556260	1.314717044	0.029475326	0.304091508	0.093723956
2020-02-09T05:15:00	0.3520	2.085		0.957921446	1.320717257	0.029679398	0.306196881	0.094372852
2020-02-09T05:20:00	0.3505	2.083		0.953388586	1.312637553	0.029404701	0.303362878	0.093499385
2020-02-09T05:25:00	0.3525	2.081		0.959487189	1.323512672	0.029774618	0.307179246	0.094675627
2020-02-09T05:30:00	0.3506	2.081		0.953740521	1.313264172	0.029425977	0.303582382	0.093567039
2020-02-09T05:35:00	0.3515	2.079		0.956498970	1.318179639	0.029593040	0.305305936	0.094098255
2020-02-09T05:40:00	0.3532	2.078		0.961379659	1.326894512	0.029889936	0.308368965	0.095042310
2020-02-09T05:45:00	0.3538	2.075		0.963223379	1.330192499	0.030002525	0.309530524	0.095400314
2020-02-09T05:50:00	0.3539	2.073		0.963550531	1.330778037	0.030022528	0.309736890	0.095463918
2020-02-09T05:55:00	0.3550	2.071		0.966908330	1.336793686	0.030228266	0.311859443	0.096118109
2020-02-09T06:00:00	0.3545	2.070		0.965417200	1.334120937	0.030136804	0.310915853	0.095827285
2020-02-09T06:05:00	0.3572	2.070		0.973615698	1.348842297	0.030641606	0.316123804	0.097432427
2020-02-09T06:10:00	0.3589	2.069		0.978778175	1.358144927	0.030961900	0.319428218	0.098450879
2020-02-09T06:15:00	0.3607	2.067		0.984235891	1.368007183	0.031302557	0.322942712	0.099534080
2020-02-09T06:20:00	0.3611	2.067		0.985466257	1.370234415	0.031379644	0.323738007	0.099779198
2020-02-09T06:25:00	0.3611	2.066		0.985490066	1.370277529	0.031381137	0.323753408	0.099783945
2020-02-09T06:30:00	0.3615	2.065		0.986720058	1.372505559	0.031458310	0.324549588	0.100029335
2020-02-09T06:35:00	0.3600	2.062		0.982218882	1.364359078	0.031176415	0.321641330	0.099132982
2020-02-09T06:40:00	0.3603	2.060		0.983148097	1.366039239	0.031234492	0.322240494	0.099317650
2020-02-09T06:45:00	0.3599	2.059		0.981662840	1.363354063	0.031141692	0.321283091	0.099022569
2020-02-09T06:50:00	0.3622	2.061		0.988623839	1.375956951	0.031577970	0.325784095	0.100409822
2020-02-09T06:55:00	0.3636	2.062		0.992864546	1.383657441	0.031845438	0.328543513	0.101260302
2020-02-09T07:00:00	0.3631	2.060		0.991382772	1.380964806	0.031751835	0.327577830	0.100962668
2020-02-09T07:05:00	0.3599	2.058		0.981758163	1.363526333	0.031147643	0.321344488	0.099041492
2020-02-09T07:10:00	0.3616	2.058		0.986910469	1.372850601	0.031470267	0.324672940	0.100067353
2020-02-09T07:15:00	0.3626	2.059		0.989948035	1.378359647	0.031661352	0.326644333	0.100674956
2020-02-09T07:20:00	0.3636	2.059		0.992983377	1.383873469	0.031852951	0.328621026	0.101284192
2020-02-09T07:25:00	0.3634	2.057		0.992405009	1.382822161	0.031816393	0.328243858	0.101167945
2020-02-09T07:30:00	0.3631	2.059		0.991525420	1.381223931	0.031760839	0.327670725	0.100991300
2020-02-09T07:35:00	0.3653	2.061		0.998169226	1.393314179	0.032181811	0.332013813	0.102329882
2020-02-09T07:40:00	0.3663	2.063		1.001198568	1.398840946	0.032374802	0.334004867	0.102943544
2020-02-09T07:45:00	0.3653	2.064		0.998216698	1.393400720	0.032184830	0.332044963	0.102339482
2020-02-09T07:50:00	0.3683	2.068		1.006950625	1.409359299	0.032743051	0.337804026	0.104114481
2020-02-09T07:55:00	0.3686	2.071		1.007874323	1.411051357	0.032802407	0.338416389	0.104303218
2020-02-09T08:00:00	0.3698	2.076		1.011496092	1.417693740	0.033035727	0.340823506	0.105045115
2020-02-09T08:05:00	0.3691	2.081		1.009421256	1.413886914	0.032901948	0.339443334	0.104619732
2020-02-09T08:10:00	0.3686	2.086		1.007945365	1.411181529	0.032806975	0.338463512	0.104317742
2020-02-09T08:15:00	0.3689	2.090		1.008868843	1.412874067	0.032866382	0.339076407	0.104506642
2020-02-09T08:20:00	0.3679	2.094		1.005892457	1.407421922	0.032675130	0.337103290	0.103898508
2020-02-09T08:25:00	0.3687	2.100		1.008316357	1.411861379	0.032830833	0.338709657	0.104393606
2020-02-09T08:30:00	0.3664	2.107		1.001435751	1.399274037	0.032389940	0.334161042	0.102991678
2020-02-09T08:35:00	0.3686	2.118		1.008063767	1.411398488	0.032814588	0.338542058	0.104341950
2020-02-09T08:40:00	0.3679	2.131		1.005987225	1.407595387	0.032681209	0.337166013	0.103917840
2020-02-09T08:45:00	0.3689	2.148		1.009010893	1.413134487	0.032875526	0.339170739	0.104535716
2020-02-09T08:50:00	0.3697	2.166		1.011133258	1.417027728	0.033012310	0.340581921	0.104970656
2020-02-09T08:55:00	0.3699	2.187		1.011756350	1.418171543	0.033052529	0.340996853	0.105098542
2020-02-09T09:00:00	0.3724	2.212		1.019265600	1.431985742	0.033539422	0.346020039	0.106646736
2020-02-09T09:05:00	0.3704	2.238		1.013301848	1.421010240	0.033152408	0.342027277	0.105416128
2020-02-09T09:10:00	0.3716	2.260		1.016918925	1.427662905	0.033386831	0.344445784	0.106161536
2020-02-09T09:15:00	0.3709	2.284		1.014846776	1.423850187	0.033252420	0.343059086	0.105734142
2020-02-09T09:20:00	0.3727	2.308		1.020257419	1.433814380	0.033604034	0.346686623	0.106852184
2020-02-09T09:25:00	0.3702	2.334		1.012797254	1.420083173	0.033119779	0.341690657	0.105312379
2020-02-09T09:30:00	0.3682	2.362		1.006824273	1.409127908	0.032734937	0.337720310	0.104088680
2020-02-09T09:35:00	0.3668	2.386		1.002645210	1.401483322	0.032467195	0.334958062	0.103237328
2020-02-09T09:40:00	0.3668	2.403		1.002668921	1.401526647	0.032468710	0.334973698	0.103242147
2020-02-09T09:45:00	0.3646	2.416		0.996079806	1.389507343	0.032049081	0.330644459	0.101907833
2020-02-09T09:50:00	0.3629	2.429		0.990986456	1.380244988	0.031726826	0.327319820	0.100883147
2020-02-09T09:55:00	0.3621	2.446		0.988298638	1.375367144	0.031557512	0.325573030	0.100344770
2020-02-09T10:00:00	0.3616	2.469		0.986815230	1.372678016	0.031464286	0.324611239	0.100048337
2020-02-09T10:05:00	0.3620	2.502		0.988071320	1.374954924	0.031543216	0.325425541	0.100299312
2020-02-09T10:10:00	0.3641	2.530		0.994446173	1.386533846	0.031945521	0.329576048	0.101578539
2020-02-09T10:15:00	0.3651	2.552		0.997504659	1.392102912	0.032139561	0.331577925	0.102195537
2020-02-09T10:20:00	0.3661	2.576		1.000560896	1.397676839	0.032334124	0.333585193	0.102814196
2020-02-09T10:25:00	0.3699	2.597		1.012014216	1.418645019	0.033069182	0.341168656	0.105151493
2020-02-09T10:30:00	0.3708	2.619		1.014460894	1.423140629	0.033227423	0.342801202	0.105654660
2020-02-09T10:35:00	0.3725	2.641		1.019599202	1.432600706	0.033561147	0.346244166	0.106715815
2020-02-09T10:40:00	0.3746	2.658		1.025926130	1.444284126	0.033974677	0.350510483	0.108030735
2020-02-09T10:45:00	0.3736	2.677		1.022988107	1.438853913	0.033782289	0.348525643	0.107418988
2020-02-09T10:50:00	0.3743	2.698		1.025129669	1.442811239	0.033922462	0.349971783	0.107864703
2020-02-09T10:55:00	0.3741	2.722		1.024581995	1.441798787	0.033886583	0.349601629	0.107750617
2020-02-09T11:00:00	0.3744	2.749		1.025229349	1.442995542	0.033928994	0.350039178	0.107885474
2020-02-09T11:05:00	0.3766	2.777		1.031846100	1.455251081	0.034364223	0.354529350	0.109269389
2020-02-09T11:10:00	0.3769	2.810		1.032790547	1.457003839	0.034426603	0.355172919	0.109467743
2020-02-09T11:15:00	0.3785	2.846		1.037608701	1.465959091	0.034745846	0.358466492	0.110482854
2020-02-09T11:20:00	0.3787	2.884		1.038254059	1.467160295	0.034788735	0.358908962	0.110619228
2020-02-09T11:25:00	0.3768	2.924		1.032641598	1.456727353	0.034416761	0.355071377	0.109436447
2020-02-09T11:30:00	0.3757	2.969		1.029111384	1.450180708	0.034183959	0.352669599	0.108696195
2020-02-09T11:35:00	0.3782	3.011		1.036615929	1.464112037	0.034679929	0.357786439	0.110273255
2020-02-09T11:40:00	0.3770	3.055		1.033089037	1.457557974	0.034446332	0.355376456	0.109530475
2020-02-09T11:45:00	0.3784	3.095		1.037311137	1.465405372	0.034726082	0.358262582	0.110420007
2020-02-09T11:50:00	0.3761	3.126		1.030504156	1.452762111	0.034275698	0.353616061	0.108987904
2020-02-09T11:55:00	0.3765	3.149		1.031747184	1.455067558	0.034357693	0.354461985	0.109248626
2020-02-09T12:00:00	0.3754	3.166		1.028216221	1.448522581	0.034125070	0.352062052	0.108508944
2020-02-09T12:05:00	0.3756	3.172		1.028863017	1.449720576	0.034167614	0.352500972	0.108644223
2020-02-09T12:10:00	0.3756	3.177		1.028912813	1.449812825	0.034170890	0.352534777	0.108654642
2020-02-09T12:15:00	0.3775	3.183		1.034629686	1.460419497	0.034548263	0.356428064	0.109854591
2020-02-09T12:20:00	0.3796	3.187		1.040934125	1.472153013	0.034967165	0.360749797	0.111186591
2020-02-09T12:25:00	0.3806	3.192		1.043958935	1.477796334	0.035169174	0.362833886	0.111828928
2020-02-09T12:30:00	0.3775	3.201		1.034480802	1.460142867	0.034538405	0.356326362	0.109823245
2020-02-09T12:35:00	0.3798	3.215		1.041380689	1.472985597	0.034996947	0.361057047	0.111281288
2020-02-09T12:40:00	0.3767	3.227		1.032195023	1.455898531	0.034387261	0.354767037	0.109342646
2020-02-09T12:45:00	0.3736	3.244		1.022989326	1.438856163	0.033782368	0.348526465	0.107419241
2020-02-09T12:50:00	0.3762	3.256		1.030803112	1.453316449	0.034295408	0.353819406	0.109050577
2020-02-09T12:55:00	0.3760	3.267		1.030256176	1.452302360	0.034259354	0.353447439	0.108935933
2020-02-09T13:00:00	0.3725	3.272		1.019550820	1.432511512	0.033557996	0.346211656	0.106705795
2020-02-09T13:05:00	0.3749	3.279		1.026773785	1.445852357	0.034030299	0.351084326	0.108207599
2020-02-09T13:10:00	0.3737	3.290		1.023238649	1.439316652	0.033798670	0.348694651	0.107471078
2020-02-09T13:15:00	0.3726	3.302		1.019999653	1.433339040	0.033587235	0.346513313	0.106798768
2020-02-09T13:20:00	0.3732	3.318		1.021843775	1.436741151	0.033707523	0.347754303	0.107181253
2020-02-09T13:25:00	0.3733	3.331		1.022192613	1.437385071	0.033730305	0.347989335	0.107253693
2020-02-09T13:30:00	0.3735	3.343		1.022541422	1.438029055	0.033753093	0.348224438	0.107326154
2020-02-09T13:35:00	0.3728	3.352		1.020498334	1.434258703	0.033619739	0.346848648	0.106902122
2020-02-09T13:40:00	0.3752	3.355		1.027719672	1.447603147	0.034092429	0.351725302	0.108405154
2020-02-09T13:45:00	0.3729	3.360		1.020897175	1.434994415	0.033645748	0.347116979	0.106984824
2020-02-09T13:50:00	0.3749	3.364		1.026923550	1.446129507	0.034040132	0.351185769	0.108238865
2020-02-09T13:55:00	0.3731	3.365		1.021594979	1.436281971	0.033691280	0.347586730	0.107129606
2020-02-09T14:00:00	0.3744	3.363		1.025231176	1.442998921	0.033929114	0.350040413	0.107885855
2020-02-09T14:05:00	0.3740	3.362		1.024085931	1.440881994	0.033854104	0.349266549	0.107647342
2020-02-09T14:10:00	0.3714	3.360		1.016359533	1.426633226	0.033350516	0.344071121	0.106046061
2020-02-09T14:15:00	0.3716	3.360		1.017008155	1.427827180	0.033392626	0.344505569	0.106179962
2020-02-09T14:20:00	0.3712	3.362		1.015860665	1.425715209	0.033318148	0.343737191	0.105943141
2020-02-09T14:25:00	0.3707	3.365		1.014413369	1.423053249	0.033224346	0.342769449	0.105644873
2020-02-09T14:30:00	0.3694	3.367		1.010268244	1.415440434	0.032956522	0.340006363	0.104793263
2020-02-09T14:35:00	0.3693	3.371		1.010018455	1.414982206	0.032940422	0.339840262	0.104742069
2020-02-09T14:40:00	0.3692	3.371		1.009768650	1.414524010	0.032924326	0.339674197	0.104690887
2020-02-09T14:45:00	0.3693	3.372		1.010118495	1.415165718	0.032946870	0.339906779	0.104762571
2020-02-09T14:50:00	0.3682	3.372		1.006869336	1.409210431	0.032737831	0.337750166	0.104097881
2020-02-09T14:55:00	0.3693	3.373		1.010218532	1.415349234	0.032953318	0.339973302	0.104783074
2020-02-09T15:00:00	0.3690	3.377		1.009069179	1.413241349	0.032879278	0.339209449	0.104547647
2020-02-09T15:05:00	0.3701	3.380		1.012416614	1.419384003	0.033095178	0.341436852	0.105234154
2020-02-09T15:10:00	0.3674	3.382		1.004368426	1.404633497	0.032577446	0.336095502	0.103587898
2020-02-09T15:15:00	0.3654	3.385		0.998409783	1.393752732	0.032197113	0.332171674	0.102378536
2020-02-09T15:20:00	0.3659	3.388		0.999962920	1.396585553	0.032296004	0.333191915	0.102692984
2020-02-09T15:25:00	0.3676	3.393		1.005119071	1.406006626	0.032625538	0.336591663	0.103740820
2020-02-09T15:30:00	0.3700	3.398		1.012067267	1.418742436	0.033072609	0.341204008	0.105162389
2020-02-09T15:35:00	0.3704	3.404		1.013315760	1.421035803	0.033153307	0.342036560	0.105418990
2020-02-09T15:40:00	0.3727	3.410		1.020250373	1.433801385	0.033603575	0.346681885	0.106850724
2020-02-09T15:45:00	0.3740	3.414		1.024186550	1.441067931	0.033860690	0.349334500	0.107668285
2020-02-09T15:50:00	0.3750	3.417		1.027223369	1.446684407	0.034059822	0.351388901	0.108301472
2020-02-09T15:55:00	0.3748	3.418		1.026675968	1.445671352	0.034023878	0.351018078	0.108187181
2020-02-09T16:00:00	0.3750	3.419		1.027024405	1.446316159	0.034046755	0.351254093	0.108259923
2020-02-09T16:05:00	0.3745	3.420		1.025789727	1.444031832	0.033965731	0.350418190	0.108002289
2020-02-09T16:10:00	0.3738	3.418		1.023658249	1.440091772	0.033826116	0.348977806	0.107558349
2020-02-09T16:15:00	0.3735	3.416		1.022721504	1.438361574	0.033764861	0.348345851	0.107363574
2020-02-09T16:20:00	0.3686	3.418		1.008009000	1.411298132	0.032811067	0.338505725	0.104330752
2020-02-09T16:25:00	0.3700	3.421		1.012166138	1.418923998	0.033078995	0.341269897	0.105182697
2020-02-09T16:30:00	0.3732	3.423		1.021704293	1.436483714	0.033698416	0.347660351	0.107152297
2020-02-09T16:35:00	0.3716	3.426		1.016877666	1.427586948	0.033384152	0.344418142	0.106153016
2020-02-09T16:40:00	0.3697	3.428		1.011146363	1.417051780	0.033013156	0.340590645	0.104973345
2020-02-09T16:45:00	0.3721	3.431		1.018592927	1.430746060	0.033495642	0.345568362	0.106507525
2020-02-09T16:50:00	0.3705	3.437		1.013762716	1.421857185	0.033182224	0.342334892	0.105510938
2020-02-09T16:55:00	0.3745	3.443		1.025687522	1.443842806	0.033959029	0.350349047	0.107980979
2020-02-09T17:00:00	0.3778	3.446		1.035493112	1.462024185	0.034605464	0.357018191	0.110036474
2020-02-09T17:05:00	0.3783	3.447		1.036942897	1.464720257	0.034701631	0.358010332	0.110342261
2020-02-09T17:10:00	0.3781	3.448		1.036307057	1.463537576	0.034659436	0.357575010	0.110208091
2020-02-09T17:15:00	0.3779	3.451		1.035671122	1.462355110	0.034617263	0.357139925	0.110073994
2020-02-09T17:20:00	0.3773	3.456		1.034140881	1.459511365	0.034515905	0.356094225	0.109751699
2020-02-09T17:25:00	0.3763	3.463		1.031118773	1.453901854	0.034316227	0.354034185	0.109116774
2020-02-09T17:30:00	0.3753	3.471		1.028094499	1.448297172	0.034117066	0.351979485	0.108483496
2020-02-09T17:35:00	0.3756	3.479		1.028949932	1.449881590	0.034173333	0.352559977	0.108662409
2020-02-09T17:40:00	0.3768	3.487		1.032490009	1.456445990	0.034406746	0.354968053	0.109404601
2020-02-09T17:45:00	0.3789	3.495		1.038707988	1.468005432	0.034818919	0.359220370	0.110715207
2020-02-09T17:50:00	0.3791	3.503		1.039263545	1.469040055	0.034855882	0.359601707	0.110832739
2020-02-09T17:55:00	0.3775	3.508		1.034457000	1.460098645	0.034536830	0.356310104	0.109818235
2020-02-09T18:00:00	0.3782	3.514		1.036800978	1.464456249	0.034692211	0.357913142	0.110312306
2020-02-09T18:05:00	0.3771	3.520		1.033482635	1.458288805	0.034472357	0.355644947	0.109613227
2020-02-09T18:10:00	0.3780	3.526		1.036125125	1.463199250	0.034647368	0.357450508	0.110169718
2020-02-09T18:15:00	0.3786	3.532		1.037872544	1.466450132	0.034763377	0.358647350	0.110538596
2020-02-09T18:20:00	0.3815	3.537		1.046461182	1.482471438	0.035336787	0.364563117	0.112361893
2020-02-09T18:25:00	0.3802	3.544		1.042555423	1.475176728	0.035075359	0.361866016	0.111530620
2020-02-09T18:30:00	0.3790	3.549		1.038943838	1.468444623	0.034834608	0.359382231	0.110765094
2020-02-09T18:35:00	0.3802	3.554		1.042773066	1.475582824	0.035089898	0.362016007	0.111576849
2020-02-09T18:40:00	0.3799	3.561		1.041840551	1.473843179	0.035027630	0.361373603	0.111378854
2020-02-09T18:45:00	0.3780	3.567		1.036143147	1.463232761	0.034648563	0.357462840	0.110173519
2020-02-09T18:50:00	0.3797	3.574		1.041165503	1.472584375	0.034982594	0.360908973	0.111235651
2020-02-09T18:55:00	0.3773	3.580		1.033976886	1.459206738	0.034505052	0.355982262	0.109717191
2020-02-09T19:00:00	0.3739	3.584		1.023788731	1.440332843	0.033834654	0.349065885	0.107585496
2020-02-09T19:05:00	0.3756	3.587		1.028825796	1.449651625	0.034165165	0.352475706	0.108636436
2020-02-09T19:10:00	0.3766	3.591		1.031769481	1.455108925	0.034359165	0.354477169	0.109253306
2020-02-09T19:15:00	0.3778	3.596		1.035605204	1.462232564	0.034612894	0.357094844	0.110060099
2020-02-09T19:20:00	0.3795	3.601		1.040628198	1.471582746	0.034946771	0.360539395	0.111121743
2020-02-09T19:25:00	0.3829	3.605		1.050696225	1.490397908	0.035621510	0.367500549	0.113267238
2020-02-09T19:30:00	0.3828	3.607		1.050359417	1.489766887	0.035598818	0.367266445	0.113195085
2020-02-09T19:35:00	0.3796	3.610		1.040805992	1.471914155	0.034958623	0.360661665	0.111159428
2020-02-09T19:40:00	0.3804	3.612		1.043146459	1.476279642	0.035114848	0.362273418	0.111656186
2020-02-09T19:45:00	0.3836	3.616		1.052614957	1.493994825	0.035750937	0.368835824	0.113678783
2020-02-09T19:50:00	0.3838	3.618		1.053465455	1.495590343	0.035808393	0.369428585	0.113861478
2020-02-09T19:55:00	0.3812	3.621		1.045703127	1.481054474	0.035285961	0.364038751	0.112200279
2020-02-09T20:00:00	0.3816	3.624		1.046852226	1.483202601	0.035363022	0.364833781	0.112445315
2020-02-09T20:05:00	0.3817	3.626		1.047109537	1.483683794	0.035380291	0.365011943	0.112500226
2020-02-09T20:10:00	0.3772	3.629		1.033674811	1.458645690	0.034485067	0.355776082	0.109653644
2020-02-09T20:15:00	0.3786	3.631		1.037806660	1.466327509	0.034758999	0.358602184	0.110524676
2020-02-09T20:20:00	0.3752	3.635		1.027627761	1.447432987	0.034086389	0.351662989	0.108385949
2020-02-09T20:25:00	0.3747	3.638		1.026094599	1.444595752	0.033985728	0.350624490	0.108065873
2020-02-09T20:30:00	0.3761	3.642		1.030532238	1.452814178	0.034277549	0.353635159	0.108993790
2020-02-09T20:35:00	0.3760	3.644		1.030193823	1.452186769	0.034255245	0.353405048	0.108922868
2020-02-09T20:40:00	0.3771	3.647		1.033434717	1.458199821	0.034469188	0.355612254	0.109603150
2020-02-09T20:45:00	0.3782	3.650		1.036673125	1.464218425	0.034683725	0.357825598	0.110285325
2020-02-09T20:50:00	0.3781	3.652		1.036335202	1.463589918	0.034661303	0.357594273	0.110214028
2020-02-09T20:55:00	0.3786	3.655		1.037784699	1.466286636	0.034757540	0.358587129	0.110520036
2020-02-09T21:00:00	0.3743	3.657		1.024917815	1.442419564	0.033908580	0.349828572	0.107820563
2020-02-09T21:05:00	0.3735	3.660		1.022785896	1.438480482	0.033769070	0.348389272	0.107376957
2020-02-09T21:10:00	0.3691	3.664		1.009573136	1.414165437	0.032911730	0.339544256	0.104650837
2020-02-09T21:15:00	0.3680	3.666		1.006233211	1.408045684	0.032696993	0.337328853	0.103968029
2020-02-09T21:20:00	0.3708	3.668		1.014587083	1.423372649	0.033235596	0.342885522	0.105680648
2020-02-09T21:25:00	0.3713	3.670		1.016044085	1.426052711	0.033330047	0.343859947	0.105980975
2020-02-09T21:30:00	0.3702	3.673		1.012709326	1.419921652	0.033114095	0.341632018	0.105294306
2020-02-09T21:35:00	0.3734	3.675		1.022246247	1.437484084	0.033733808	0.348025479	0.107264833
2020-02-09T21:40:00	0.3757	3.678		1.029374744	1.450668683	0.034201295	0.352848455	0.108751321
2020-02-09T21:45:00	0.3772	3.682		1.033808934	1.458894788	0.034493940	0.355867619	0.109681856
2020-02-09T21:50:00	0.3766	3.686		1.031979774	1.455499109	0.034373048	0.354620398	0.109297451
2020-02-09T21:55:00	0.3753	3.691		1.028060619	1.448234434	0.034114839	0.351956505	0.108476413
2020-02-09T22:00:00	0.3750	3.695		1.027124852	1.446502064	0.034053351	0.351322147	0.108280898
2020-02-09T22:05:00	0.3750	3.698		1.027277919	1.446785377	0.034063405	0.351425867	0.108312865
2020-02-09T22:10:00	0.3793	3.700		1.039952585	1.470323685	0.034901757	0.360074991	0.110978609
2020-02-09T22:15:00	0.3794	3.703		1.040402860	1.471162760	0.034931754	0.360384463	0.111073992
2020-02-09T22:20:00	0.3763	3.707		1.031019908	1.453718494	0.034309706	0.353966908	0.109096039
2020-02-09T22:25:00	0.3750	3.710		1.026994406	1.446260638	0.034044785	0.351233769	0.108253659
2020-02-09T22:30:00	0.3737	3.714		1.023263936	1.439363359	0.033800324	0.348711712	0.107476336
2020-02-09T22:35:00	0.3739	3.716		1.023715994	1.440198455	0.033829894	0.349016783	0.107570362
2020-02-09T22:40:00	0.3745	3.719		1.025661776	1.443795191	0.033957341	0.350331630	0.107975611
2020-02-09T22:45:00	0.3759	3.721		1.029696088	1.451264186	0.034222455	0.353066760	0.108818604
2020-02-09T22:50:00	0.3791	3.723		1.039387239	1.469270454	0.034864115	0.359686644	0.110858917
2020-02-09T22:55:00	0.3815	3.725		1.046381931	1.482323276	0.035331471	0.364508277	0.112344991
2020-02-09T23:00:00	0.3809	3.728		1.044750543	1.479274687	0.035222151	0.363380436	0.111997379
2020-02-09T23:05:00	0.3837	3.731		1.052923720	1.494573977	0.035771789	0.369050956	0.113745089
2020-02-09T23:10:00	0.3791	3.736		1.039402279	1.469298470	0.034865116	0.359696972	0.110862100
2020-02-09T23:15:00	0.3776	3.741		1.034788693	1.460714959	0.034558793	0.356536699	0.109888073
2020-02-09T23:20:00	0.3770	3.750		1.033152833	1.457676419	0.034450549	0.355419966	0.109543885
2020-02-09T23:25:00	0.3733	3.766		1.021960328	1.436956284	0.033715134	0.347832821	0.107205454
2020-02-09T23:30:00	0.3711	3.777		1.015531445	1.425109509	0.033296797	0.343516920	0.105875251
2020-02-09T23:35:00	0.3664	3.790		1.001288406	1.399004983	0.032380536	0.334064017	0.102961774
2020-02-09T23:40:00	0.3706	3.795		1.014041628	1.422369846	0.033200277	0.342521133	0.105568340
2020-02-09T23:45:00	0.3679	3.797		1.005800236	1.407253128	0.032669214	0.337042259	0.103879697
2020-02-09T23:50:00	0.3685	3.803		1.007754353	1.410831546	0.032794695	0.338336819	0.104278694
2020-02-09T23:55:00	0.3693	3.815		1.010007384	1.414961899	0.032939709	0.339832902	0.104739801
2020-02-10T00:00:00	0.3660	3.827		1.000255690	1.397119805	0.032314664	0.333384431	0.102752320
2020-02-10T00:05:00	0.3669	3.843		1.002813121	1.401790151	0.032477928	0.335068798	0.103271458
2020-02-10T00:10:00	0.3618	3.854		0.987622246	1.374140716	0.031514984	0.325134281	0.100209543
2020-02-10T00:15:00	0.3659	3.865		0.999816272	1.396317978	0.032286659	0.333095508	0.102663270
2020-02-10T00:20:00	0.3629	3.874		0.990944325	1.380168476	0.031724169	0.327292399	0.100874696
2020-02-10T00:25:00	0.3583	3.883		0.976918833	1.354791525	0.030846325	0.318235852	0.098083380
2020-02-10T00:30:00	0.3620	3.886		0.988240299	1.375261347	0.031553842	0.325535175	0.100333103
2020-02-10T00:35:00	0.3640	3.898		0.994117065	1.385935121	0.031924681	0.329361045	0.101512273
2020-02-10T00:40:00	0.3617	3.908		0.987343641	1.373635680	0.031497476	0.324953658	0.100153873
2020-02-10T00:45:00	0.3576	3.916		0.974818035	1.351006607	0.030716035	0.316891669	0.097669090
2020-02-10T00:50:00	0.3594	3.923		0.980411949	1.361094226	0.031063656	0.320478009	0.098774435
2020-02-10T00:55:00	0.3620	3.935		0.988108633	1.375022584	0.031545562	0.325449747	0.100306773
2020-02-10T01:00:00	0.3632	3.941		0.991878233	1.381864910	0.031783116	0.327900547	0.101062133
2020-02-10T01:05:00	0.3604	3.947		0.983291029	1.366297755	0.031243431	0.322332714	0.099346073
2020-02-10T01:10:00	0.3596	3.952		0.981031081	1.362212553	0.031102266	0.320876344	0.098897206
2020-02-10T01:15:00	0.3566	3.958		0.971816125	1.345605483	0.030530397	0.314976482	0.097078811
2020-02-10T01:20:00	0.3544	3.967		0.965309037	1.333927144	0.030130176	0.310847470	0.095806209
2020-02-10T01:25:00	0.3560	3.980		0.970007810	1.342356045	0.030418878	0.313825952	0.096724206
2020-02-10T01:30:00	0.3534	3.989		0.962284842	1.328513271	0.029945183	0.308938931	0.095217979
2020-02-10T01:35:00	0.3506	3.997		0.953635560	1.313077277	0.029419631	0.303516908	0.093546859
2020-02-10T01:40:00	0.3501	3.997		0.951967388	1.310108306	0.029318870	0.302477373	0.093226464
2020-02-10T01:45:00	0.3491	4.002		0.949081595	1.304978454	0.029145020	0.300683794	0.092673665
2020-02-10T01:50:00	0.3483	4.008		0.946498240	1.300392891	0.028989881	0.299083260	0.092180365
2020-02-10T01:55:00	0.3478	4.022		0.945131727	1.297969820	0.028908006	0.298238565	0.091920022
2020-02-10T02:00:00	0.3467	4.034		0.941631449	1.291771234	0.028698876	0.296081013	0.091255044
2020-02-10T02:05:00	0.3485	4.040		0.947270885	1.301763707	0.029036232	0.299561455	0.092327750
2020-02-10T02:10:00	0.3480	4.049		0.945600103	1.298800135	0.028936054	0.298527936	0.092009209
2020-02-10T02:15:00	0.3460	4.050		0.939661073	1.288287004	0.028581527	0.294870343	0.090881903
2020-02-10T02:20:00	0.3465	4.045		0.941037129	1.290719907	0.028663452	0.295715548	0.091142404
2020-02-10T02:25:00	0.3475	4.047		0.944240982	1.296391318	0.028854706	0.297688682	0.091750543
2020-02-10T02:30:00	0.3457	4.051		0.938605039	1.286421115	0.028518744	0.294222621	0.090682269
2020-02-10T02:35:00	0.3449	4.054		0.936320255	1.282387763	0.028383174	0.292823969	0.090251191
2020-02-10T02:40:00	0.3474	4.064		0.943795536	1.295602218	0.028828072	0.297413909	0.091665855
2020-02-10T02:45:00	0.3448	4.078		0.936022716	1.281862875	0.028365545	0.292642102	0.090195138
2020-02-10T02:50:00	0.3446	4.087		0.935263349	1.280523657	0.028320583	0.292178236	0.090052170
2020-02-10T02:55:00	0.3456	4.096		0.938471767	1.286185714	0.028510826	0.294140935	0.090657093
2020-02-10T03:00:00	0.3458	4.105		0.938933207	1.287000837	0.028538246	0.294423818	0.090744280
2020-02-10T03:05:00	0.3470	4.121		0.942748275	1.293747749	0.028765510	0.296768465	0.091466923
2020-02-10T03:10:00	0.3465	4.130		0.941075632	1.290788007	0.028665746	0.295739217	0.091149699
2020-02-10T03:15:00	0.3503	4.134		0.952800423	1.311590592	0.029369162	0.302996235	0.093386382
2020-02-10T03:20:00	0.3501	4.141		0.952044186	1.310244933	0.029323504	0.302525187	0.093241201
2020-02-10T03:25:00	0.3484	4.157		0.947027973	1.301332675	0.029021655	0.299411069	0.092281399
2020-02-10T03:30:00	0.3481	4.164		0.945966162	1.299449213	0.028957986	0.298754203	0.092078947
2020-02-10T03:35:00	0.3464	4.168		0.940942441	1.290552440	0.028657810	0.295657346	0.091124465
2020-02-10T03:40:00	0.3490	4.180		0.948713541	1.304324757	0.029122888	0.300455471	0.092603294
2020-02-10T03:45:00	0.3512	4.182		0.955558544	1.316503021	0.029536024	0.304717717	0.093916960
2020-02-10T03:50:00	0.3511	4.189		0.955106661	1.315697689	0.029508650	0.304435299	0.093829916
2020-02-10T03:55:00	0.3538	4.191		0.963457293	1.330611147	0.030016827	0.309678068	0.095445788
2020-02-10T04:00:00	0.3551	4.203		0.967249497	1.337405500	0.030249214	0.312075560	0.096184718
2020-02-10T04:05:00	0.3523	4.221		0.958860916	1.322394270	0.029736511	0.306786102	0.094554456
2020-02-10T04:10:00	0.3560	4.249		0.969876177	1.342119629	0.030410769	0.313742294	0.096698422
2020-02-10T04:15:00	0.3662	4.272		1.000741518	1.398006535	0.032345643	0.333704036	0.102850825
2020-02-10T04:20:00	0.3945	4.285		1.085031622	1.555307806	0.037978394	0.391816085	0.120761523
2020-02-10T04:25:00	0.3918	4.289		1.076875113	1.539783668	0.037410649	0.385958771	0.118956242
2020-02-10T04:30:00	0.3931	4.277		1.080809420	1.547263609	0.037683888	0.388777722	0.119825070
2020-02-10T04:35:00	0.3960	4.271		1.089451056	1.563746546	0.038288071	0.395010971	0.121746218
2020-02-10T04:40:00	0.3969	4.264		1.091903661	1.568437994	0.038460555	0.396790453	0.122294671
2020-02-10T04:45:00	0.3962	4.252		1.089943548	1.564688130	0.038322671	0.395367928	0.121856235
2020-02-10T04:50:00	0.3928	4.247		1.080027195	1.545775225	0.037629471	0.388216314	0.119652038
2020-02-10T04:55:00	0.3914	4.228		1.075700650	1.537553712	0.037329304	0.385119547	0.118697585
2020-02-10T05:00:00	0.3941	4.209		1.083763229	1.552889405	0.037889782	0.390901899	0.120479762
2020-02-10T05:05:00	0.3939	4.198		1.083273137	1.551955388	0.037855576	0.390548998	0.120370994
2020-02-10T05:10:00	0.3945	4.192		1.084845579	1.554952986	0.037965389	0.391681919	0.120720171
2020-02-10T05:15:00	0.3912	4.186		1.075212751	1.536627734	0.037295541	0.384771223	0.118590228
2020-02-10T05:20:00	0.3813	4.182		1.045983571	1.481578617	0.035304759	0.364232691	0.112260053
2020-02-10T05:25:00	0.3900	4.177		1.071571941	1.529725249	0.037044150	0.382177665	0.117790868
2020-02-10T05:30:00	0.3794	4.175		1.040234556	1.470849107	0.034920540	0.360268771	0.111038334
2020-02-10T05:35:00	0.3808	4.173		1.044500095	1.478806902	0.035205385	0.363207469	0.111944069
2020-02-10T05:40:00	0.3821	4.173		1.048167161	1.485662315	0.035451323	0.365744765	0.112726089
2020-02-10T05:45:00	0.3796	4.175		1.040832995	1.471964489	0.034960423	0.360680236	0.111165152
2020-02-10T05:50:00	0.3755	4.174		1.028713050	1.449442771	0.034157747	0.352399176	0.108612849
2020-02-10T05:55:00	0.3801	4.173		1.042223799	1.474558043	0.035053213	0.361637542	0.111460203
2020-02-10T06:00:00	0.3741	4.169		1.024434684	1.441526513	0.033876936	0.349502105	0.107719943
2020-02-10T06:05:00	0.3761	4.165		1.030506724	1.452766872	0.034275868	0.353617807	0.108988442
2020-02-10T06:10:00	0.3775	4.161		1.034484009	1.460148826	0.034538618	0.356328552	0.109823920
2020-02-10T06:15:00	0.3796	4.156		1.040839265	1.471976178	0.034960841	0.360684549	0.111166481
2020-02-10T06:20:00	0.3781	4.154		1.036472818	1.463845857	0.034670433	0.357688467	0.110243060
2020-02-10T06:25:00	0.3754	4.151		1.028222882	1.448534916	0.034125508	0.352066571	0.108510336
2020-02-10T06:30:00	0.3801	4.149		1.042330288	1.474756700	0.035060324	0.361710899	0.111482812
2020-02-10T06:35:00	0.3728	4.147		1.020655673	1.434548916	0.033629998	0.346954488	0.106934743
2020-02-10T06:40:00	0.3683	4.146		1.006977471	1.409408466	0.032744776	0.337821815	0.104119964
2020-02-10T06:45:00	0.3686	4.142		1.007978525	1.411242289	0.032809107	0.338485509	0.104324521
2020-02-10T06:50:00	0.3691	4.141		1.009579080	1.414176337	0.032912113	0.339548206	0.104652055
2020-02-10T06:55:00	0.3774	4.139		1.034195341	1.459612534	0.034519509	0.356131412	0.109763160
2020-02-10T07:00:00	0.3818	4.136		1.047391470	1.484211106	0.035399218	0.365207211	0.112560409
2020-02-10T07:05:00	0.3801	4.131		1.042436775	1.474955362	0.035067435	0.361784263	0.111505423
2020-02-10T07:10:00	0.3825	4.125		1.049374234	1.487921745	0.035532492	0.366582167	0.112984184
2020-02-10T07:15:00	0.3849	4.122		1.056596938	1.501471022	0.036020397	0.371615796	0.114535597
2020-02-10T07:20:00	0.3848	4.120		1.056400288	1.501101449	0.036007063	0.371478227	0.114493197
2020-02-10T07:25:00	0.3861	4.118		1.060057127	1.507980106	0.036255489	0.374041197	0.115283129
2020-02-10T07:30:00	0.3879	4.118		1.065486689	1.518217407	0.036626152	0.377865259	0.116461743
2020-02-10T07:35:00	0.3903	4.115		1.072682251	1.531828872	0.037120711	0.382967535	0.118034314
2020-02-10T07:40:00	0.3971	4.116		1.092529002	1.569635122	0.038504604	0.397244905	0.122434738
2020-02-10T07:45:00	0.3982	4.113		1.095861469	1.576021157	0.038739837	0.399671757	0.123182717
2020-02-10T07:50:00	0.3972	4.110		1.093021144	1.570577529	0.038539292	0.397602769	0.122545035
2020-02-10T07:55:00	0.4017	4.112		1.106037982	1.595590323	0.039463300	0.407135588	0.125483142
2020-02-10T08:00:00	0.4005	4.115		1.102617572	1.589001552	0.039219276	0.404618038	0.124707209
2020-02-10T08:05:00	0.3974	4.116		1.093612261	1.571709778	0.038580979	0.398032848	0.122677589
2020-02-10T08:10:00	0.3984	4.119		1.096356328	1.576970394	0.038774839	0.400032863	0.123294013
2020-02-10T08:15:00	0.3977	4.123		1.094398226	1.573215784	0.038636448	0.398605109	0.122853966
2020-02-10T08:20:00	0.3973	4.126		1.093321358	1.571152528	0.038560460	0.397821162	0.122612346
2020-02-10T08:25:00	0.4012	4.126		1.104578157	1.592776833	0.039359044	0.406059999	0.125151635
2020-02-10T08:30:00	0.3937	4.132		1.082627896	1.550726047	0.037810568	0.390084658	0.120227880
2020-02-10T08:35:00	0.3953	4.133		1.087440281	1.559904666	0.038146993	0.393555494	0.121297626
2020-02-10T08:40:00	0.3988	4.135		1.097537573	1.579237228	0.038858462	0.400895594	0.123559915
2020-02-10T08:45:00	0.3988	4.144		1.097636511	1.579427155	0.038865471	0.400967903	0.123582202
2020-02-10T08:50:00	0.4019	4.163		1.106830969	1.597119514	0.039519999	0.407720545	0.125663432
2020-02-10T08:55:00	0.4008	4.169		1.103411181	1.590529259	0.039275817	0.405201361	0.124886995
2020-02-10T09:00:00	0.4058	4.168		1.118151486	1.619017807	0.040334564	0.416124259	0.128253538
2020-02-10T09:05:00	0.3977	4.180		1.094506524	1.573423344	0.038644094	0.398683998	0.122878280
2020-02-10T09:10:00	0.4009	4.184		1.103707588	1.591100007	0.039296946	0.405419352	0.124954182
2020-02-10T09:15:00	0.4033	4.191		1.110839948	1.604859924	0.039807365	0.410685249	0.126577182
2020-02-10T09:20:00	0.4025	4.189		1.108595375	1.600524215	0.039646325	0.409023822	0.126065114
2020-02-10T09:25:00	0.4005	4.182		1.102537289	1.588847042	0.039213559	0.404559055	0.124689030
2020-02-10T09:30:00	0.4057	4.174		1.117865295	1.618462636	0.040313852	0.415910584	0.128187681
2020-02-10T09:35:00	0.3994	4.168		1.099506631	1.583018955	0.038998089	0.402336094	0.124003892
2020-02-10T09:40:00	0.4045	4.176		1.114260093	1.611476013	0.040053475	0.413224321	0.127359749
2020-02-10T09:45:00	0.4056	4.192		1.117576005	1.617901537	0.040292923	0.415694660	0.128121131
2020-02-10T09:50:00	0.4021	4.196		1.107429473	1.598274077	0.039562824	0.408162360	0.125799604
2020-02-10T09:55:00	0.4008	4.208		1.103423540	1.590553056	0.039276698	0.405210449	0.124889796
2020-02-10T10:00:00	0.3991	4.224		1.098533040	1.581148620	0.038929015	0.401623473	0.123784255
2020-02-10T10:05:00	0.4037	4.246		1.112124208	1.607342898	0.039899676	0.411637606	0.126870708
2020-02-10T10:10:00	0.3993	4.273		1.099035011	1.582112824	0.038964620	0.401990801	0.123897469
2020-02-10T10:15:00	0.3993	4.273		1.099139170	1.582312926	0.038972010	0.402067045	0.123920968
2020-02-10T10:20:00	0.3955	4.268		1.087777459	1.560548616	0.038170629	0.393799341	0.121372781
2020-02-10T10:25:00	0.3961	4.277		1.089647800	1.564122667	0.038301891	0.395153548	0.121790161
2020-02-10T10:30:00	0.3989	4.283		1.097983409	1.580093155	0.038890052	0.401221492	0.123660361
2020-02-10T10:35:00	0.4073	4.287		1.122395778	1.627260676	0.040642441	0.419300575	0.129232509
2020-02-10T10:40:00	0.4200	4.283		1.159435240	1.699957107	0.043387131	0.447617035	0.137959917
2020-02-10T10:45:00	0.4154	4.272		1.146195431	1.673814273	0.042394061	0.437371716	0.134802210
2020-02-10T10:50:00	0.4244	4.264		1.172076920	1.725083061	0.044347866	0.457528760	0.141014807
2020-02-10T10:55:00	0.4198	4.249		1.158874547	1.698846420	0.043344804	0.447180353	0.137825328
2020-02-10T11:00:00	0.4222	4.238		1.165923715	1.712833199	0.043878705	0.452688513	0.139522996
2020-02-10T11:05:00	0.4197	4.235		1.158500712	1.698106061	0.043316596	0.446889339	0.137735634
2020-02-10T11:10:00	0.4249	4.235		1.173641718	1.728204354	0.044467641	0.458764460	0.141395662
2020-02-10T11:15:00	0.4216	4.240		1.164206701	1.709421747	0.043748308	0.451343231	0.139108367
2020-02-10T11:20:00	0.4213	4.259		1.163151929	1.707327539	0.043668317	0.450517973	0.138854015
2020-02-10T11:25:00	0.4149	4.280		1.144695644	1.670863912	0.042282411	0.436219837	0.134447190
2020-02-10T11:30:00	0.4172	4.287		1.151186931	1.683649685	0.042766884	0.441218059	0.135987691
2020-02-10T11:35:00	0.4147	4.282		1.144029995	1.669555179	0.042232912	0.435709166	0.134289797
2020-02-10T11:40:00	0.4162	4.283		1.148490334	1.678333128	0.042565235	0.439137686	0.135346500
2020-02-10T11:45:00	0.4322	4.267		1.194520238	1.770087038	0.046083869	0.475438786	0.146534851
2020-02-10T11:50:00	0.4290	4.245		1.185416782	1.751771195	0.045375010	0.468125617	0.144280861
2020-02-10T11:55:00	0.4305	4.222		1.189836193	1.760652428	0.045718333	0.471667616	0.145372540
2020-02-10T12:00:00	0.4282	4.199		1.183028805	1.746980539	0.045190130	0.466218238	0.143692989
2020-02-10T12:05:00	0.4239	4.179		1.170725386	1.722389149	0.044244567	0.456463039	0.140686342
2020-02-10T12:10:00	0.4249	4.161		1.173715882	1.728352350	0.044473323	0.458823075	0.141413728
2020-02-10T12:15:00	0.4288	4.154		1.184775649	1.750484416	0.045325329	0.467613069	0.144122889
2020-02-10T12:20:00	0.4276	4.153		1.181420548	1.743757370	0.045065865	0.464936221	0.143297859
2020-02-10T12:25:00	0.4229	4.145		1.167956566	1.716876006	0.044033381	0.454284276	0.140014826
2020-02-10T12:30:00	0.4250	4.138		1.173836838	1.728593732	0.044482590	0.458918680	0.141443194
2020-02-10T12:35:00	0.4294	4.143		1.186623944	1.754195144	0.045468639	0.469091563	0.144578575
2020-02-10T12:40:00	0.4243	4.154		1.172020393	1.724970353	0.044343543	0.457484158	0.141001061
2020-02-10T12:45:00	0.4283	4.157		1.183372413	1.747669516	0.045216705	0.466492412	0.143777492
2020-02-10T12:50:00	0.4280	4.159		1.182610272	1.746141491	0.045157772	0.465884408	0.143590099
2020-02-10T12:55:00	0.4350	4.152		1.202550226	1.786312776	0.046714492	0.481944801	0.148540068
2020-02-10T13:00:00	0.4325	4.145		1.195474568	1.772011976	0.046158553	0.476209285	0.146772327
2020-02-10T13:05:00	0.4343	4.131		1.200745261	1.782659888	0.046572304	0.480477873	0.148087947
2020-02-10T13:10:00	0.4425	4.115		1.224033961	1.830045927	0.048426484	0.499607113	0.153983764
2020-02-10T13:15:00	0.4358	4.096		1.204964796	1.791204554	0.046905100	0.483911269	0.149146153
2020-02-10T13:20:00	0.4415	4.075		1.221380415	1.824618813	0.048213067	0.497405323	0.153305151
2020-02-10T13:25:00	0.4423	4.053		1.223481192	1.828914795	0.048381981	0.499147979	0.153842255
2020-02-10T13:30:00	0.4570	4.030		1.265371623	1.915522187	0.051823239	0.534650806	0.164784571
2020-02-10T13:35:00	0.4454	4.001		1.232527615	1.847465757	0.049113341	0.506693285	0.156167791
2020-02-10T13:40:00	0.4434	3.979		1.226639726	1.835382313	0.048636599	0.501774829	0.154651875
2020-02-10T13:45:00	0.4394	3.963		1.215312038	1.812234570	0.047727086	0.492391548	0.151759857
2020-02-10T13:50:00	0.4475	3.955		1.238527276	1.859815068	0.049601954	0.511734218	0.157721456
2020-02-10T13:55:00	0.4453	3.948		1.232076978	1.846539683	0.049076756	0.506315846	0.156051461
2020-02-10T14:00:00	0.4447	3.941		1.230467576	1.843234004	0.048946228	0.504969214	0.155636416
2020-02-10T14:05:00	0.4293	3.928		1.186159080	1.753261534	0.045432570	0.468719450	0.144463887
2020-02-10T14:10:00	0.4516	3.917		1.250018032	1.883569895	0.050545741	0.521471092	0.160722455
2020-02-10T14:15:00	0.4498	3.901		1.245005129	1.873190065	0.050132718	0.517210006	0.159409147
2020-02-10T14:20:00	0.4435	3.878		1.226878842	1.835872349	0.048655907	0.501974024	0.154713269
2020-02-10T14:25:00	0.4467	3.861		1.236102390	1.854819404	0.049404128	0.509693279	0.157092419
2020-02-10T14:30:00	0.4453	3.850		1.232214702	1.846822688	0.049087935	0.506431181	0.156087008
2020-02-10T14:35:00	0.4428	3.839		1.224899221	1.831817137	0.048496195	0.500326303	0.154205426
2020-02-10T14:40:00	0.4507	3.830		1.247498354	1.878349367	0.050337889	0.519326725	0.160061540
2020-02-10T14:45:00	0.4418	3.827		1.222246173	1.826388700	0.048282637	0.498123060	0.153526365
2020-02-10T14:50:00	0.4403	3.827		1.217774976	1.817256368	0.047923979	0.494422859	0.152385927
2020-02-10T14:55:00	0.4445	3.816		1.229869357	1.842005948	0.048897763	0.504469206	0.155482309
2020-02-10T15:00:00	0.4371	3.805		1.208819499	1.799026232	0.047210338	0.487060353	0.150116731
2020-02-10T15:05:00	0.4422	3.790		1.223222686	1.828385921	0.048361177	0.498933347	0.153776103
2020-02-10T15:10:00	0.4410	3.772		1.219895753	1.821585472	0.048093901	0.496175915	0.152926236
2020-02-10T15:15:00	0.4393	3.755		1.215136188	1.811876258	0.047713046	0.492246703	0.151715215
2020-02-10T15:20:00	0.4349	3.733		1.202345810	1.785898914	0.046698376	0.481778536	0.148488824
2020-02-10T15:25:00	0.4411	3.708		1.220199890	1.822206677	0.048118299	0.496427616	0.153003813
2020-02-10T15:30:00	0.4430	3.688		1.225442217	1.832929056	0.048539972	0.500777944	0.154344626
2020-02-10T15:35:00	0.4461	3.668		1.234383741	1.851282349	0.049264200	0.508249665	0.156647483
2020-02-10T15:40:00	0.4440	3.648		1.228498217	1.839192582	0.048786785	0.503324270	0.155129428
2020-02-10T15:45:00	0.4453	3.625		1.232021190	1.846425052	0.049072228	0.506269131	0.156037063
2020-02-10T15:50:00	0.4363	3.604		1.206397323	1.794109569	0.047018400	0.485080166	0.149506418
2020-02-10T15:55:00	0.4341	3.582		1.200188798	1.781534386	0.046528519	0.480026154	0.147948723
2020-02-10T16:00:00	0.4322	3.567		1.194546603	1.770140206	0.046085932	0.475460063	0.146541409
2020-02-10T16:05:00	0.4352	3.553		1.203215464	1.787659918	0.046766961	0.482486113	0.148706906
2020-02-10T16:10:00	0.4367	3.534		1.207571473	1.796492177	0.047111385	0.486039471	0.149802085
2020-02-10T16:15:00	0.4364	3.514		1.206767217	1.794860014	0.047047682	0.485382257	0.149599526
2020-02-10T16:20:00	0.4459	3.497		1.233970171	1.850431656	0.049230563	0.507902639	0.156540526
2020-02-10T16:25:00	0.4495	3.482		1.243986830	1.871084705	0.050049062	0.516346950	0.159143145
2020-02-10T16:30:00	0.4463	3.470		1.234935207	1.852416960	0.049309073	0.508712617	0.156790169
2020-02-10T16:35:00	0.4436	3.458		1.227292756	1.836720749	0.048689340	0.502318945	0.154819577
2020-02-10T16:40:00	0.4404	3.444		1.218208361	1.818140656	0.047958674	0.494780803	0.152496249
2020-02-10T16:45:00	0.4492	3.434		1.243354121	1.869777098	0.049997126	0.515811127	0.158977999
2020-02-10T16:50:00	0.4518	3.425		1.250512369	1.884594880	0.050586579	0.521892409	0.160852309
2020-02-10T16:55:00	0.4548	3.416		1.259076824	1.902392750	0.051297198	0.529223736	0.163111895
2020-02-10T17:00:00	0.4557	3.406		1.261681508	1.907820540	0.051514480	0.531465394	0.163802796
2020-02-10T17:05:00	0.4522	3.391		1.251812794	1.887292446	0.050694102	0.523001705	0.161194205
2020-02-10T17:10:00	0.4523	3.377		1.252151586	1.887995512	0.050722136	0.523290931	0.161283347
2020-02-10T17:15:00	0.4564	3.362		1.263545110	1.911708313	0.051670275	0.533072700	0.164298183
2020-02-10T17:20:00	0.4542	3.347		1.257367210	1.898833956	0.051154878	0.527755444	0.162659353
2020-02-10T17:25:00	0.4534	3.330		1.255153637	1.894230573	0.050970952	0.525857913	0.162074516
2020-02-10T17:30:00	0.4534	3.313		1.255208570	1.894344751	0.050975511	0.525904954	0.162089014
2020-02-10T17:35:00	0.4539	3.296		1.256681398	1.897407190	0.051097852	0.527167116	0.162478025
2020-02-10T17:40:00	0.4579	3.280		1.267781073	1.920558532	0.052025432	0.536736795	0.165427493
2020-02-10T17:45:00	0.4661	3.267		1.290973842	1.969344128	0.053995622	0.557062879	0.171692190
2020-02-10T17:50:00	0.4584	3.252		1.269304729	1.923746442	0.052153533	0.538058389	0.165834821
2020-02-10T17:55:00	0.4652	3.240		1.288548913	1.964217246	0.053787592	0.554916670	0.171030707
2020-02-10T18:00:00	0.4622	3.229		1.280147230	1.946501234	0.053070511	0.547518682	0.168750575
2020-02-10T18:05:00	0.4659	3.218		1.290347423	1.968019142	0.053941837	0.556507989	0.171521167
2020-02-10T18:10:00	0.4712	3.203		1.305299035	1.999755690	0.055234309	0.569842187	0.175630896
2020-02-10T18:15:00	0.4724	3.191		1.308719841	2.007049458	0.055532579	0.572919377	0.176579316
2020-02-10T18:20:00	0.4708	3.177		1.304285078	1.997596096	0.055146083	0.568931976	0.175350360
2020-02-10T18:25:00	0.4729	3.166		1.310230431	2.010274186	0.055664596	0.574281372	0.176999096
2020-02-10T18:30:00	0.4657	3.157		1.290056998	1.967404981	0.053916912	0.556250838	0.171441910
2020-02-10T18:35:00	0.4682	3.148		1.296863550	1.981821808	0.054502878	0.562296143	0.173305132
2020-02-10T18:40:00	0.4651	3.140		1.288194929	1.963469349	0.053757264	0.554603784	0.170934272
2020-02-10T18:45:00	0.4665	3.128		1.292190864	1.971919503	0.054100208	0.558141873	0.172024746
2020-02-10T18:50:00	0.4626	3.120		1.281257773	1.948838759	0.053164968	0.548493177	0.169050924
2020-02-10T18:55:00	0.4652	3.114		1.288640204	1.964410146	0.053795415	0.554997379	0.171055582
2020-02-10T19:00:00	0.4642	3.103		1.285595941	1.957982192	0.053534906	0.552309752	0.170227229
2020-02-10T19:05:00	0.4600	3.094		1.273800171	1.933166126	0.052532575	0.541968889	0.167040075
2020-02-10T19:10:00	0.4592	3.084		1.271594330	1.928541430	0.052346382	0.540047973	0.166448030
2020-02-10T19:15:00	0.4688	3.074		1.298704472	1.985729302	0.054662007	0.563937854	0.173811123
2020-02-10T19:20:00	0.4631	3.066		1.282713564	1.951904914	0.053288941	0.549772182	0.169445126
2020-02-10T19:25:00	0.4666	3.057		1.292345479	1.972246800	0.054113504	0.558279042	0.172067023
2020-02-10T19:30:00	0.4670	3.048		1.293525442	1.974745413	0.054215035	0.559326517	0.172389865
2020-02-10T19:35:00	0.4684	3.038		1.297516908	1.983208205	0.054559323	0.562878473	0.173484612
2020-02-10T19:40:00	0.4689	3.032		1.298976610	1.986307234	0.054685554	0.564180785	0.173885997
2020-02-10T19:45:00	0.4512	3.026		1.249029778	1.881521553	0.050464158	0.520629419	0.160463043
2020-02-10T19:50:00	0.4607	3.020		1.275704752	1.937163256	0.052693654	0.543630712	0.167552265
2020-02-10T19:55:00	0.4595	3.017		1.272369574	1.930166209	0.052411775	0.540722619	0.166655963
2020-02-10T20:00:00	0.4531	3.016		1.254303830	1.892464639	0.050900445	0.525130510	0.161850323
2020-02-10T20:05:00	0.4552	3.013		1.260312200	1.904966227	0.051400185	0.530286234	0.163439367
2020-02-10T20:10:00	0.4602	3.009		1.274511420	1.934658379	0.052592694	0.542589129	0.167231239
2020-02-10T20:15:00	0.4536	3.007		1.255603200	1.895165084	0.051008274	0.526242963	0.162193192
2020-02-10T20:20:00	0.4566	3.004		1.264158355	1.912988424	0.051721602	0.533602235	0.164461391
2020-02-10T20:25:00	0.4515	3.002		1.249753765	1.883022055	0.050523918	0.521245943	0.160653062
2020-02-10T20:30:00	0.4568	3.001		1.264834131	1.914399512	0.051778198	0.534186126	0.164641352
2020-02-10T20:35:00	0.4514	3.001		1.249579799	1.882661450	0.050509554	0.521097759	0.160607390
2020-02-10T20:40:00	0.4566	3.000		1.264094582	1.912855282	0.051716263	0.533547152	0.164444414
2020-02-10T20:45:00	0.4540	3.000		1.256783423	1.897619414	0.051106333	0.527254615	0.162504993
2020-02-10T20:50:00	0.4574	3.000		1.266468344	1.917813862	0.051915215	0.535599700	0.165077029
2020-02-10T20:55:00	0.4570	3.000		1.265391241	1.915563168	0.051824884	0.534667771	0.164789800
2020-02-10T21:00:00	0.4511	2.999		1.248718844	1.880877289	0.050438506	0.520364769	0.160381475
2020-02-10T21:05:00	0.4531	3.001		1.254450728	1.892769847	0.050912629	0.525256207	0.161889064
2020-02-10T21:10:00	0.4572	3.002		1.265838670	1.916497961	0.051862396	0.535054777	0.164909079
2020-02-10T21:15:00	0.4553	3.003		1.260513781	1.905386300	0.051417001	0.530459725	0.163492839
2020-02-10T21:20:00	0.4579	3.005		1.267928703	1.920867311	0.052037836	0.536864763	0.165466934
2020-02-10T21:25:00	0.4529	3.007		1.253819437	1.891458384	0.050860282	0.524716154	0.161722615
2020-02-10T21:30:00	0.4502	3.012		1.246208022	1.875678451	0.050231644	0.518230611	0.159723707
2020-02-10T21:35:00	0.4545	3.014		1.258182945	1.900531643	0.051222756	0.528455732	0.162875189
2020-02-10T21:40:00	0.4562	3.016		1.263053879	1.910683179	0.051629181	0.532648748	0.164167517
2020-02-10T21:45:00	0.4524	3.016		1.252336739	1.888379795	0.050737461	0.523449037	0.161332077
2020-02-10T21:50:00	0.4541	3.018		1.257213756	1.898514668	0.051142115	0.527623769	0.162618770
2020-02-10T21:55:00	0.4479	3.019		1.239658456	1.862147545	0.049694397	0.512687937	0.158015401
2020-02-10T22:00:00	0.4528	3.022		1.253352927	1.890489506	0.050821619	0.524317278	0.161599677
2020-02-10T22:05:00	0.4476	3.024		1.238592980	1.859950512	0.049607321	0.511789585	0.157738521
2020-02-10T22:10:00	0.4454	3.029		1.232344544	1.847089515	0.049098476	0.506539930	0.156120526
2020-02-10T22:15:00	0.4365	3.032		1.206925373	1.795180924	0.047060205	0.485511456	0.149639346
2020-02-10T22:20:00	0.4453	3.035		1.232095219	1.846577165	0.049078237	0.506331120	0.156056169
2020-02-10T22:25:00	0.4441	3.038		1.228691359	1.839588763	0.048802409	0.503485456	0.155179107
2020-02-10T22:30:00	0.4420	3.041		1.222715143	1.827347742	0.048320346	0.498512103	0.153646272
2020-02-10T22:35:00	0.4433	3.046		1.226444559	1.834982387	0.048620843	0.501612279	0.154601776
2020-02-10T22:40:00	0.4454	3.049		1.232451656	1.847309645	0.049107173	0.506629653	0.156148179
2020-02-10T22:45:00	0.4375	3.054		1.209898141	1.801217635	0.047295959	0.487943693	0.150388985
2020-02-10T22:50:00	0.4412	3.060		1.220501223	1.822822249	0.048142478	0.496677072	0.153080697
2020-02-10T22:55:00	0.4385	3.065		1.212797267	1.807113462	0.047526540	0.490322557	0.151122174
2020-02-10T23:00:00	0.4348	3.071		1.202212257	1.785628544	0.046687849	0.481669928	0.148455350
2020-02-10T23:05:00	0.4301	3.074		1.188726033	1.758419596	0.045631948	0.470776392	0.145097856
2020-02-10T23:10:00	0.4290	3.078		1.185577703	1.752094236	0.045387485	0.468254315	0.144320528
2020-02-10T23:15:00	0.4261	3.080		1.176948983	1.734809454	0.044721413	0.461382570	0.142202589
2020-02-10T23:20:00	0.4211	3.082		1.162518861	1.706071145	0.043620347	0.450023081	0.138701484
2020-02-10T23:25:00	0.4179	3.084		1.153265681	1.687753076	0.042922709	0.442825681	0.136483176
2020-02-10T23:30:00	0.4111	3.084		1.133518054	1.648946275	0.041455686	0.427690673	0.131818419
2020-02-10T23:35:00	0.4103	3.081		1.131205116	1.644426496	0.041285798	0.425937965	0.131278217
2020-02-10T23:40:00	0.4172	3.079		1.151289535	1.683852119	0.042774568	0.441297328	0.136012122
2020-02-10T23:45:00	0.4167	3.078		1.149856688	1.681026094	0.042667340	0.440191086	0.135671168
2020-02-10T23:50:00	0.4148	3.080		1.144356693	1.670197445	0.042257202	0.435959758	0.134367032
2020-02-10T23:55:00	0.4159	3.084		1.147570450	1.676521165	0.042496574	0.438429320	0.135128175
2020-02-11T00:00:00	0.4127	3.084		1.138286124	1.658280522	0.041807186	0.431317030	0.132936098
2020-02-11T00:05:00	0.4135	3.087		1.140631800	1.662880874	0.041980741	0.433107562	0.133487957
2020-02-11T00:10:00	0.4125	3.091		1.137740528	1.657211282	0.041766877	0.430901176	0.132807927
2020-02-11T00:15:00	0.4082	3.096		1.125226138	1.632767484	0.040848507	0.421426521	0.129887747
2020-02-11T00:20:00	0.4103	3.103		1.131369420	1.644747392	0.041297853	0.426062334	0.131316549
2020-02-11T00:25:00	0.4033	3.107		1.110937822	1.605049095	0.039814396	0.410757783	0.126599538
2020-02-11T00:30:00	0.3992	3.112		1.098933943	1.581918669	0.038957450	0.401916827	0.123874669
2020-02-11T00:35:00	0.4000	3.117		1.101007249	1.585903573	0.039104692	0.403435900	0.124342863
2020-02-11T00:40:00	0.3971	3.123		1.092506121	1.569591311	0.038502992	0.397228272	0.122429611
2020-02-11T00:45:00	0.3962	3.125		1.089877161	1.564561193	0.038318006	0.395319800	0.121841402
2020-02-11T00:50:00	0.3952	3.128		1.086952174	1.558972665	0.038112792	0.393202650	0.121188875
2020-02-11T00:55:00	0.3942	3.131		1.084025207	1.553388780	0.037908075	0.391090617	0.120537926
2020-02-11T01:00:00	0.3951	3.132		1.086694608	1.558480960	0.038094752	0.393016534	0.121131513
2020-02-11T01:05:00	0.3910	3.138		1.074623359	1.535509446	0.037254778	0.384350682	0.118460613
2020-02-11T01:10:00	0.3811	3.142		1.045308609	1.480317257	0.035259525	0.363766023	0.112116221
2020-02-11T01:15:00	0.3923	3.147		1.078497304	1.542865952	0.037523172	0.387119650	0.119314036
2020-02-11T01:20:00	0.3873	3.152		1.063739541	1.514920062	0.036506643	0.376632302	0.116081733
2020-02-11T01:25:00	0.3869	3.157		1.062573787	1.512721625	0.036427027	0.375810918	0.115828575
2020-02-11T01:30:00	0.3902	3.162		1.072352959	1.531204861	0.037097995	0.382733181	0.117962083
2020-02-11T01:35:00	0.3785	3.168		1.037664601	1.466063122	0.034749560	0.358504806	0.110494663
2020-02-11T01:40:00	0.3866	3.173		1.061741003	1.511151931	0.036370212	0.375224772	0.115647919
2020-02-11T01:45:00	0.3920	3.179		1.077723048	1.541394486	0.037469442	0.386565324	0.119143187
2020-02-11T01:50:00	0.3930	3.185		1.080691227	1.547038678	0.037675662	0.388692864	0.119798916
2020-02-11T01:55:00	0.3899	3.189		1.071263583	1.529141242	0.037022903	0.381958467	0.117723309
2020-02-11T02:00:00	0.3895	3.191		1.070099874	1.526938096	0.036942783	0.381131886	0.117468549
2020-02-11T02:05:00	0.3968	3.195		1.091642893	1.567938903	0.038442195	0.396601034	0.122236290
2020-02-11T02:10:00	0.3881	3.195		1.065996606	1.519180323	0.036661074	0.378225541	0.116572785
2020-02-11T02:15:00	0.3880	3.190		1.065719251	1.518656540	0.036642077	0.378029551	0.116512379
2020-02-11T02:20:00	0.3858	3.186		1.059223113	1.506410145	0.036198744	0.373455772	0.115102696
2020-02-11T02:25:00	0.3964	3.181		1.090539949	1.565828695	0.038364594	0.395800446	0.121989541
2020-02-11T02:30:00	0.3893	3.173		1.069619743	1.526029494	0.036909756	0.380791150	0.117363531
2020-02-11T02:35:00	0.3859	3.171		1.059575131	1.507072705	0.036222689	0.373702802	0.115178833
2020-02-11T02:40:00	0.3843	3.170		1.054849915	1.498189073	0.035902034	0.370394662	0.114159232
2020-02-11T02:45:00	0.3829	3.169		1.050713378	1.490430046	0.035622666	0.367512473	0.113270914
2020-02-11T02:50:00	0.3881	3.172		1.066144861	1.519460332	0.036671231	0.378330328	0.116605081
2020-02-11T02:55:00	0.3920	3.170		1.077686719	1.541325458	0.037466922	0.386539325	0.119135174
2020-02-11T03:00:00	0.3923	3.166		1.078590330	1.543042786	0.037529631	0.387186282	0.119334573
2020-02-11T03:05:00	0.3885	3.166		1.067383749	1.521801057	0.036756170	0.379206626	0.116875165
2020-02-11T03:10:00	0.3926	3.163		1.079512225	1.544795691	0.037593671	0.387846972	0.119538203
2020-02-11T03:15:00	0.3938	3.161		1.082773910	1.551004203	0.037820750	0.390189707	0.120260257
2020-02-11T03:20:00	0.3975	3.158		1.093683485	1.571846227	0.038586004	0.398084687	0.122693567
2020-02-11T03:25:00	0.3968	3.156		1.091643525	1.567940115	0.038442239	0.396601494	0.122236432
2020-02-11T03:30:00	0.4016	3.150		1.105756907	1.595048450	0.039443214	0.406928367	0.125419275
2020-02-11T03:35:00	0.4000	3.141		1.101082041	1.586047405	0.039110010	0.403490762	0.124359771
2020-02-11T03:40:00	0.3993	3.136		1.099045554	1.582133077	0.038965368	0.401998517	0.123899847
2020-02-11T03:45:00	0.3987	3.128		1.097301862	1.578784783	0.038841767	0.400723355	0.123506830
2020-02-11T03:50:00	0.4006	3.123		1.102897719	1.589540768	0.039239230	0.404823898	0.124770657
2020-02-11T03:55:00	0.3955	3.115		1.087928867	1.560837815	0.038181245	0.393908867	0.121406539
2020-02-11T04:00:00	0.4003	3.104		1.102054299	1.587917623	0.039179174	0.404204312	0.124579695
2020-02-11T04:05:00	0.4083	3.098		1.125431557	1.633167460	0.040863487	0.421581058	0.129935376
2020-02-11T04:10:00	0.4071	3.094		1.121894364	1.626285945	0.040605999	0.418924601	0.129116631
2020-02-11T04:15:00	0.4004	3.089		1.102246717	1.588287866	0.039192870	0.404345617	0.124623246
2020-02-11T04:20:00	0.4043	3.081		1.113641011	1.610277573	0.040008862	0.412764052	0.127217890
2020-02-11T04:25:00	0.4100	3.077		1.130256539	1.642574397	0.041216241	0.425220356	0.131057043
2020-02-11T04:30:00	0.3962	3.073		1.090099113	1.564985600	0.038333603	0.395480719	0.121890999
2020-02-11T04:35:00	0.4027	3.059		1.109148348	1.601591897	0.039685964	0.409432770	0.126191156
2020-02-11T04:40:00	0.4078	3.046		1.124029501	1.630438309	0.040761312	0.420526940	0.129610487
2020-02-11T04:45:00	0.4061	3.032		1.119030010	1.620722528	0.040398180	0.416780575	0.128455821
2020-02-11T04:50:00	0.4041	3.017		1.113146883	1.609321295	0.039973274	0.412396895	0.127104728
2020-02-11T04:55:00	0.4046	3.001		1.114576444	1.612088563	0.040076284	0.413459634	0.127432275
2020-02-11T05:00:00	0.3990	2.979		1.098127509	1.580369844	0.038900265	0.401326860	0.123692836
2020-02-11T05:05:00	0.4061	2.970		1.118895868	1.620462183	0.040388463	0.416680323	0.128424922
2020-02-11T05:10:00	0.4100	2.958		1.130247029	1.642555833	0.041215544	0.425213165	0.131054827
2020-02-11T05:15:00	0.4175	2.945		1.152315404	1.685876720	0.042851435	0.442090352	0.136256540
2020-02-11T05:20:00	0.4136	2.923		1.140954070	1.663513342	0.042004618	0.433353899	0.133563880
2020-02-11T05:25:00	0.4162	2.902		1.148475997	1.678304879	0.042564165	0.439126640	0.135343095
2020-02-11T05:30:00	0.4185	2.901		1.155115585	1.691408374	0.043061658	0.444259187	0.136924996
2020-02-11T05:35:00	0.4209	2.896		1.162034781	1.705110704	0.043583688	0.449644871	0.138584916
2020-02-11T05:40:00	0.4203	2.886		1.160264455	1.701600291	0.043449774	0.448263305	0.138159104
2020-02-11T05:45:00	0.4157	2.877		1.146890757	1.675182871	0.042445882	0.437906345	0.134966988
2020-02-11T05:50:00	0.4190	2.867		1.156431885	1.694011391	0.043160686	0.445280842	0.137239880
2020-02-11T05:55:00	0.4194	2.856		1.157847526	1.696812796	0.043267336	0.446381127	0.137578998
2020-02-11T06:00:00	0.4183	2.849		1.154626072	1.690440792	0.043024865	0.443879597	0.136808003
2020-02-11T06:05:00	0.4232	2.836		1.168777495	1.718509797	0.044095934	0.454929624	0.140213728
2020-02-11T06:10:00	0.4169	2.827		1.150498456	1.682291609	0.042715348	0.440686369	0.135823819
2020-02-11T06:15:00	0.4154	2.817		1.146109853	1.673645863	0.042387686	0.437305941	0.134781938
2020-02-11T06:20:00	0.4152	2.807		1.145495488	1.672437075	0.042341933	0.436833920	0.134636457
2020-02-11T06:25:00	0.4209	2.793		1.161992127	1.705026088	0.043580458	0.449611555	0.138574648
2020-02-11T06:30:00	0.4180	2.784		1.153556522	1.688327533	0.042944538	0.443050877	0.136552583
2020-02-11T06:35:00	0.4215	2.773		1.163662173	1.708340468	0.043707002	0.450917080	0.138977023
2020-02-11T06:40:00	0.4169	2.765		1.150588881	1.682469952	0.042722115	0.440756180	0.135845335
2020-02-11T06:45:00	0.4155	2.755		1.146490847	1.674395675	0.042416074	0.437598811	0.134872204
2020-02-11T06:50:00	0.4202	2.743		1.160088883	1.701252317	0.043436506	0.448126423	0.138116916
2020-02-11T06:55:00	0.4184	2.733		1.154840017	1.690863650	0.043040943	0.444045476	0.136859128
2020-02-11T07:00:00	0.4176	2.725		1.152486715	1.686214913	0.042864279	0.442222861	0.136297381
2020-02-11T07:05:00	0.4065	2.716		1.120136863	1.622871395	0.040478413	0.417608321	0.128710940
2020-02-11T07:10:00	0.4201	2.706		1.159666373	1.700415054	0.043404587	0.447797120	0.138015421
2020-02-11T07:15:00	0.4204	2.691		1.160501908	1.702070958	0.043467721	0.448448469	0.138216174
2020-02-11T07:20:00	0.4240	2.682		1.170880812	1.722698854	0.044256439	0.456585522	0.140724092
2020-02-11T07:25:00	0.4139	2.676		1.141864754	1.665301154	0.042072134	0.434050446	0.133778563
2020-02-11T07:30:00	0.4167	2.669		1.149965667	1.681240962	0.042675490	0.440275167	0.135697082
2020-02-11T07:35:00	0.4201	2.664		1.159789840	1.700659703	0.043413913	0.447893335	0.138045076
2020-02-11T07:40:00	0.4184	2.660		1.154830560	1.690844957	0.043040232	0.444038142	0.136856868
2020-02-11T07:45:00	0.4186	2.658		1.155377116	1.691925420	0.043081323	0.444462067	0.136987526
2020-02-11T07:50:00	0.4176	2.650		1.152443970	1.686130525	0.042861074	0.442189796	0.136287190
2020-02-11T07:55:00	0.4146	2.641		1.143699619	1.668905790	0.042208357	0.435455838	0.134211718
2020-02-11T08:00:00	0.4195	2.626		1.157885658	1.696888283	0.043270211	0.446410786	0.137588140
2020-02-11T08:05:00	0.4118	2.617		1.135778204	1.653368047	0.041622089	0.429407415	0.132347536
2020-02-11T08:10:00	0.4157	2.605		1.147086126	1.675567500	0.042460450	0.438056630	0.135013308
2020-02-11T08:15:00	0.4179	2.599		1.153437777	1.688092982	0.042935625	0.442958926	0.136524243
2020-02-11T08:20:00	0.4195	2.595		1.158042416	1.697198619	0.043282030	0.446532726	0.137625723
2020-02-11T08:25:00	0.4168	2.579		1.150179835	1.681663263	0.042691510	0.440440434	0.135748019
2020-02-11T08:30:00	0.4188	2.571		1.155947408	1.693053123	0.043124222	0.444904653	0.137123935
2020-02-11T08:35:00	0.4145	2.567		1.143432825	1.668381457	0.042188534	0.435251326	0.134148686
2020-02-11T08:40:00	0.4203	2.566		1.160226671	1.701525404	0.043446918	0.448233845	0.138150024
2020-02-11T08:45:00	0.4246	2.560		1.172628115	1.726182245	0.044390035	0.457963809	0.141148894
2020-02-11T08:50:00	0.4237	2.555		1.170284144	1.721510053	0.044210872	0.456115421	0.140579203
2020-02-11T08:55:00	0.4185	2.549		1.155201352	1.691577927	0.043068106	0.444325714	0.136945500
2020-02-11T09:00:00	0.4241	2.544		1.171373427	1.723680612	0.044294080	0.456973856	0.140843780
2020-02-11T09:05:00	0.4199	2.543		1.159191694	1.699474624	0.043368743	0.447427325	0.137901447
2020-02-11T09:10:00	0.4248	2.558		1.173328730	1.727579841	0.044443669	0.458517142	0.141319436
2020-02-11T09:15:00	0.4294	2.574		1.186557915	1.754062521	0.045463514	0.469038697	0.144562282
2020-02-11T09:20:00	0.4198	2.588		1.158802335	1.698703398	0.043339354	0.447124130	0.137807999
2020-02-11T09:25:00	0.4270	2.581		1.179577145	1.740066147	0.044923677	0.463469297	0.142845739
2020-02-11T09:30:00	0.4241	2.596		1.171174569	1.723284267	0.044278883	0.456817070	0.140795458
2020-02-11T09:35:00	0.4165	2.615		1.149423345	1.680171809	0.042634942	0.439856838	0.135568149
2020-02-11T09:40:00	0.4220	2.617		1.165327043	1.711647364	0.043833366	0.452220755	0.139378829
2020-02-11T09:45:00	0.4199	2.637		1.159215479	1.699521740	0.043370538	0.447445850	0.137907156
2020-02-11T09:50:00	0.4237	2.651		1.170175267	1.721293164	0.044202561	0.456029670	0.140552773
2020-02-11T09:55:00	0.4217	2.659		1.164359633	1.709725479	0.043759913	0.451462958	0.139145268
2020-02-11T10:00:00	0.4234	2.679		1.169242060	1.719434661	0.044131356	0.455295064	0.140326361
2020-02-11T10:05:00	0.4221	2.705		1.165660277	1.712309594	0.043858684	0.452481958	0.139459334
2020-02-11T10:10:00	0.4210	2.725		1.162365080	1.705766009	0.043608699	0.449902912	0.138664447
2020-02-11T10:15:00	0.4216	2.743		1.163988846	1.708989111	0.043731779	0.451172707	0.139055810
2020-02-11T10:20:00	0.4177	2.761		1.152867788	1.686967312	0.042892857	0.442517703	0.136388254
2020-02-11T10:25:00	0.4170	2.774		1.150724070	1.682736599	0.042732232	0.440860563	0.135877507
2020-02-11T10:30:00	0.4150	2.789		1.144803367	1.671075748	0.042290424	0.436302512	0.134472672
2020-02-11T10:35:00	0.4149	2.805		1.144690345	1.670853492	0.042282017	0.436215771	0.134445937
2020-02-11T10:40:00	0.4122	2.812		1.136724277	1.655220463	0.041691858	0.430127209	0.132569383
2020-02-11T10:45:00	0.4108	2.829		1.132824884	1.647591172	0.041404729	0.427164961	0.131656390
2020-02-11T10:50:00	0.4161	2.856		1.148127600	1.677618522	0.042538153	0.438858279	0.135260384
2020-02-11T10:55:00	0.4167	2.873		1.149756550	1.680828668	0.042659853	0.440113835	0.135647358
2020-02-11T11:00:00	0.4216	2.902		1.164133363	1.709276100	0.043742744	0.451285822	0.139090673
2020-02-11T11:05:00	0.4160	2.932		1.147788779	1.676951148	0.042512865	0.438597387	0.135179974
2020-02-11T11:10:00	0.4195	2.956		1.158117757	1.697347783	0.043287711	0.446591339	0.137643788
2020-02-11T11:15:00	0.4122	2.982		1.136805025	1.655378610	0.041697816	0.430188676	0.132588328
2020-02-11T11:20:00	0.4110	2.993		1.133197057	1.648318686	0.041432084	0.427447176	0.131743371
2020-02-11T11:25:00	0.4131	3.005		1.139488823	1.660638576	0.041896121	0.432234552	0.133218887
2020-02-11T11:30:00	0.4102	3.023		1.130930436	1.643890090	0.041265649	0.425730094	0.131214150
2020-02-11T11:35:00	0.4061	3.064		1.119141572	1.620939061	0.040406263	0.416863963	0.128481522
2020-02-11T11:40:00	0.4100	3.093		1.130412162	1.642878189	0.041227647	0.425338038	0.131093314
2020-02-11T11:45:00	0.4081	3.095		1.124756125	1.631852465	0.040814246	0.421073052	0.129778804
2020-02-11T11:50:00	0.4043	3.103		1.113828644	1.610640759	0.040022380	0.412903520	0.127260875
2020-02-11T11:55:00	0.4060	3.121		1.118686833	1.620056522	0.040373323	0.416524127	0.128376781
2020-02-11T12:00:00	0.4020	3.136		1.106864996	1.597185145	0.039522433	0.407745656	0.125671171
2020-02-11T12:05:00	0.4007	3.137		1.103232336	1.590184928	0.039263071	0.405069863	0.124846466
2020-02-11T12:10:00	0.4022	3.142		1.107516238	1.598441483	0.039569034	0.408226433	0.125819351
2020-02-11T12:15:00	0.4023	3.147		1.107988335	1.599352488	0.039602836	0.408575162	0.125926833
2020-02-11T12:20:00	0.4071	3.163		1.121917158	1.626330251	0.040607655	0.418941689	0.129121897
2020-02-11T12:25:00	0.4026	3.179		1.108639410	1.600609226	0.039649480	0.409056379	0.126075149
2020-02-11T12:30:00	0.4016	3.181		1.105887801	1.595300785	0.039452567	0.407024860	0.125449015
2020-02-11T12:35:00	0.4030	3.188		1.109876215	1.602997726	0.039738174	0.409971419	0.126357173
2020-02-11T12:40:00	0.3980	3.196		1.095386458	1.575110219	0.038706256	0.399325312	0.123075939
2020-02-11T12:45:00	0.3987	3.196		1.097328811	1.578836508	0.038843676	0.400743045	0.123512898
2020-02-11T12:50:00	0.4008	3.203		1.103378854	1.590467019	0.039273513	0.405177591	0.124879668
2020-02-11T12:55:00	0.3992	3.206		1.098862472	1.581781377	0.038952380	0.401864520	0.123858548
2020-02-11T13:00:00	0.4016	3.219		1.105789980	1.595112205	0.039445577	0.406952746	0.125426789
2020-02-11T13:05:00	0.4073	3.226		1.122647175	1.627749477	0.040660720	0.419489153	0.129290631
2020-02-11T13:10:00	0.4040	3.227		1.112885361	1.608815273	0.039954446	0.412202650	0.127044860
2020-02-11T13:15:00	0.4095	3.215		1.128840559	1.639811356	0.041112536	0.424150456	0.130727290
2020-02-11T13:20:00	0.4058	3.214		1.118215590	1.619142170	0.040339204	0.416172128	0.128268292
2020-02-11T13:25:00	0.4043	3.216		1.113714527	1.610419869	0.040014158	0.412818694	0.127234731
2020-02-11T13:30:00	0.4083	3.226		1.125290899	1.632893576	0.040853229	0.421475237	0.129902761
2020-02-11T13:35:00	0.4060	3.228		1.118751458	1.620181931	0.040378003	0.416572413	0.128391663
2020-02-11T13:40:00	0.4045	3.231		1.114250946	1.611458303	0.040052816	0.413217519	0.127357652
2020-02-11T13:45:00	0.4023	3.230		1.107988037	1.599351911	0.039602815	0.408574941	0.125926765
2020-02-11T13:50:00	0.4049	3.225		1.115486166	1.613850608	0.040141916	0.414136747	0.127640968
2020-02-11T13:55:00	0.3993	3.222		1.098960150	1.581969012	0.038959309	0.401936007	0.123880581
2020-02-11T14:00:00	0.4038	3.225		1.112332296	1.607745368	0.039914645	0.411792037	0.126918305
2020-02-11T14:05:00	0.3952	3.232		1.086970082	1.559006856	0.038114047	0.393215592	0.121192864
2020-02-11T14:10:00	0.3972	3.239		1.093034565	1.570603232	0.038540238	0.397612531	0.122548044
2020-02-11T14:15:00	0.4026	3.249		1.108769255	1.600859910	0.039658786	0.409152388	0.126104740
2020-02-11T14:20:00	0.4031	3.254		1.110119938	1.603468579	0.039755666	0.410151875	0.126412791
2020-02-11T14:25:00	0.4047	3.246		1.114982239	1.612874448	0.040105552	0.413761591	0.127525341
2020-02-11T14:30:00	0.4030	3.246		1.109892105	1.603028423	0.039739315	0.409983183	0.126360799
2020-02-11T14:35:00	0.4030	3.247		1.110071075	1.603374175	0.039752159	0.410115693	0.126401639
2020-02-11T14:40:00	0.3990	3.247		1.098225869	1.580558717	0.038907237	0.401398790	0.123715005
2020-02-11T14:45:00	0.4003	3.241		1.101927876	1.587674386	0.039170176	0.404111488	0.124551085
2020-02-11T14:50:00	0.3979	3.237		1.095059491	1.574483319	0.038683151	0.399086942	0.123002472
2020-02-11T14:55:00	0.3980	3.229		1.095239071	1.574827619	0.038695840	0.399217852	0.123042819
2020-02-11T15:00:00	0.4046	3.229		1.114478254	1.611898426	0.040069204	0.413386588	0.127409761
2020-02-11T15:05:00	0.4022	3.224		1.107629620	1.598660256	0.039577151	0.408310171	0.125845160
2020-02-11T15:10:00	0.4028	3.221		1.109273599	1.601833775	0.039694945	0.409525431	0.126219715
2020-02-11T15:15:00	0.4003	3.217		1.102123391	1.588050563	0.039184091	0.404255048	0.124595332
2020-02-11T15:20:00	0.4046	3.223		1.114608224	1.612150103	0.040078576	0.413483277	0.127439562
2020-02-11T15:25:00	0.4097	3.226		1.129390955	1.640885121	0.041152828	0.424566144	0.130855409
2020-02-11T15:30:00	0.4015	3.204		1.105594032	1.594734485	0.039431577	0.406808315	0.125382274
2020-02-11T15:35:00	0.4082	3.161		1.125079688	1.632482352	0.040837830	0.421316366	0.129853796
2020-02-11T15:40:00	0.4099	3.143		1.130217014	1.642497242	0.041213344	0.425190470	0.131047832
2020-02-11T15:45:00	0.4136	3.124		1.140877746	1.663363543	0.041998962	0.433295551	0.133545897
2020-02-11T15:50:00	0.4023	3.091		1.107775991	1.598942700	0.039587630	0.408418286	0.125878482
2020-02-11T15:55:00	0.4086	3.061		1.126376677	1.635008272	0.040932446	0.422292498	0.130154649
2020-02-11T16:00:00	0.4125	3.029		1.137628809	1.656992377	0.041758627	0.430816052	0.132781691
2020-02-11T16:05:00	0.4075	2.987		1.123189283	1.628803732	0.040700152	0.419895965	0.129416015
2020-02-11T16:10:00	0.4053	2.954		1.116605307	1.616019405	0.040222742	0.414970612	0.127897973
2020-02-11T16:15:00	0.4056	2.934		1.117619817	1.617986509	0.040296092	0.415727357	0.128131209
2020-02-11T16:20:00	0.4012	2.925		1.104580747	1.592781824	0.039359229	0.406061907	0.125152223
2020-02-11T16:25:00	0.4021	2.923		1.107356781	1.598133829	0.039557621	0.408108684	0.125783060
2020-02-11T16:30:00	0.4062	2.931		1.119200828	1.621054077	0.040410556	0.416908257	0.128495174
2020-02-11T16:35:00	0.4047	2.940		1.114951920	1.612815724	0.040103365	0.413739026	0.127518386
2020-02-11T16:40:00	0.4022	2.950		1.107476474	1.598364760	0.039566188	0.408197068	0.125810301
2020-02-11T16:45:00	0.4126	2.956		1.137985415	1.657691166	0.041784967	0.431087800	0.132865447
2020-02-11T16:50:00	0.4113	2.929		1.134045894	1.649978489	0.041494514	0.428091247	0.131941880
2020-02-11T16:55:00	0.4124	2.889		1.137385550	1.656515770	0.041740664	0.430630736	0.132724575
2020-02-11T17:00:00	0.4068	2.880		1.121192745	1.624922441	0.040555037	0.418398836	0.128954585
2020-02-11T17:05:00	0.4122	2.856		1.136785605	1.655340574	0.041696383	0.430173892	0.132583771
2020-02-11T17:10:00	0.4102	2.832		1.131096467	1.644214314	0.041277827	0.425855736	0.131252874
2020-02-11T17:15:00	0.4076	2.822		1.123356499	1.629128982	0.040712320	0.420021495	0.129454704
2020-02-11T17:20:00	0.4081	2.810		1.124953268	1.632236234	0.040828615	0.421221290	0.129824493
2020-02-11T17:25:00	0.4059	2.795		1.118371937	1.619445506	0.040350522	0.416288894	0.128304280
2020-02-11T17:30:00	0.4075	2.786		1.123183759	1.628792989	0.040699750	0.419891820	0.129414737
2020-02-11T17:35:00	0.4069	2.780		1.121276392	1.625084972	0.040561110	0.418461498	0.128973898
2020-02-11T17:40:00	0.4059	2.774		1.118491329	1.619677160	0.040359166	0.416378073	0.128331766
2020-02-11T17:45:00	0.4048	2.771		1.115119450	1.613140216	0.040115452	0.413863721	0.127556818
2020-02-11T17:50:00	0.4006	2.763		1.102953075	1.589647324	0.039243173	0.404864582	0.124783196
2020-02-11T17:55:00	0.4111	2.751		1.133493340	1.648897952	0.041453869	0.427671923	0.131812640
2020-02-11T18:00:00	0.4064	2.742		1.119916997	1.622444447	0.040462468	0.417443822	0.128660240
2020-02-11T18:05:00	0.4051	2.732		1.115961280	1.614771186	0.040176218	0.414490633	0.127750039
2020-02-11T18:10:00	0.4046	2.722		1.114635960	1.612203815	0.040080576	0.413503913	0.127445922
2020-02-11T18:15:00	0.4048	2.706		1.115065872	1.613036436	0.040111586	0.413823839	0.127544526
2020-02-11T18:20:00	0.4024	2.693		1.108176675	1.599715988	0.039616326	0.408714332	0.125969727
2020-02-11T18:25:00	0.4038	2.682		1.112414289	1.607903964	0.039920544	0.411852896	0.126937062
2020-02-11T18:30:00	0.4026	2.671		1.108744766	1.600812629	0.039657031	0.409134280	0.126099159
2020-02-11T18:35:00	0.4058	2.664		1.118247012	1.619203131	0.040341478	0.416195594	0.128275524
2020-02-11T18:40:00	0.4044	2.663		1.113997179	1.610967008	0.040034525	0.413028816	0.127299492
2020-02-11T18:45:00	0.4117	2.664		1.135443254	1.652712428	0.041597404	0.429152745	0.132269044
2020-02-11T18:50:00	0.4096	2.656		1.129169206	1.640452476	0.041136592	0.424398639	0.130803782
2020-02-11T18:55:00	0.4049	2.653		1.115579496	1.614031427	0.040148653	0.414206250	0.127662389
2020-02-11T19:00:00	0.4102	2.643		1.130900722	1.643832068	0.041263470	0.425707611	0.131207220
2020-02-11T19:05:00	0.4041	2.633		1.113220905	1.609464533	0.039978604	0.412451884	0.127121676
2020-02-11T19:10:00	0.4019	2.640		1.106621921	1.596716327	0.039505047	0.407566291	0.125615889
2020-02-11T19:15:00	0.4068	2.638		1.121098045	1.624738441	0.040548161	0.418327901	0.128932722
2020-02-11T19:20:00	0.4077	2.636		1.123571662	1.629547533	0.040727979	0.420183051	0.129504497
2020-02-11T19:25:00	0.4039	2.629		1.112599786	1.608262791	0.039933892	0.411990600	0.126979504
2020-02-11T19:30:00	0.4109	2.623		1.132887355	1.647713279	0.041409320	0.427212325	0.131670988
2020-02-11T19:35:00	0.4067	2.614		1.120770217	1.624101550	0.040524364	0.418082396	0.128857055
2020-02-11T19:40:00	0.4031	2.608		1.110084211	1.603399555	0.039753101	0.410125420	0.126404637
2020-02-11T19:45:00	0.4055	2.600		1.117244967	1.617259567	0.040268981	0.415447655	0.128045002
2020-02-11T19:50:00	0.4057	2.591		1.117966985	1.618659893	0.040321211	0.415986500	0.128211079
2020-02-11T19:55:00	0.4048	2.580		1.115179821	1.613257155	0.040119808	0.413908660	0.127570669
2020-02-11T20:00:00	0.4041	2.566		1.113268970	1.609557546	0.039982065	0.412487593	0.127132682
2020-02-11T20:05:00	0.4065	2.559		1.120132329	1.622862590	0.040478084	0.417604929	0.128709895
2020-02-11T20:10:00	0.4040	2.551		1.112958425	1.608956640	0.039959705	0.412256913	0.127061584
2020-02-11T20:15:00	0.4066	2.539		1.120406690	1.623395428	0.040497986	0.417810252	0.128773178
2020-02-11T20:20:00	0.4063	2.528		1.119667232	1.621959495	0.040444359	0.417256998	0.128602659
2020-02-11T20:25:00	0.4046	2.518		1.114541118	1.612020157	0.040073737	0.413433354	0.127424175
2020-02-11T20:30:00	0.3996	2.508		1.100025315	1.584015762	0.039034917	0.402716043	0.124120995
2020-02-11T20:35:00	0.4030	2.500		1.109839424	1.602926656	0.039735534	0.409944183	0.126348779
2020-02-11T20:40:00	0.3997	2.488		1.100300941	1.584545569	0.039054495	0.402918030	0.124183250
2020-02-11T20:45:00	0.4057	2.473		1.117722639	1.618185935	0.040303531	0.415804098	0.128154861
2020-02-11T20:50:00	0.4026	2.465		1.108787339	1.600894825	0.039660083	0.409165761	0.126108861
2020-02-11T20:55:00	0.4070	2.458		1.121503965	1.625527195	0.040577637	0.418632004	0.129026449
2020-02-11T21:00:00	0.4069	2.450		1.121348986	1.625226033	0.040566382	0.418515884	0.128990660
2020-02-11T21:05:00	0.4096	2.440		1.129366284	1.640836983	0.041151022	0.424547506	0.130849664
2020-02-11T21:10:00	0.3992	2.428		1.098779227	1.581621473	0.038946475	0.401803601	0.123839772
2020-02-11T21:15:00	0.4021	2.418		1.107424063	1.598263639	0.039562437	0.408158365	0.125798372
2020-02-11T21:20:00	0.4014	2.410		1.105216623	1.594007075	0.039404621	0.406530214	0.125296560
2020-02-11T21:25:00	0.4041	2.404		1.113263434	1.609546833	0.039981666	0.412483480	0.127131415
2020-02-11T21:30:00	0.3976	2.393		1.094042552	1.572534193	0.038611341	0.398346084	0.122774132
2020-02-11T21:35:00	0.3995	2.385		1.099762041	1.583509767	0.039016221	0.402523162	0.124061548
2020-02-11T21:40:00	0.3963	2.376		1.090201420	1.565181244	0.038340794	0.395554907	0.121913864
2020-02-11T21:45:00	0.4036	2.366		1.111764108	1.606646520	0.039873780	0.411370441	0.126788365
2020-02-11T21:50:00	0.4025	2.356		1.108387043	1.600122043	0.039631397	0.408869812	0.126017647
2020-02-11T21:55:00	0.3979	2.348		1.095026437	1.574419950	0.038680816	0.399062849	0.122995046
2020-02-11T22:00:00	0.3994	2.344		1.099276847	1.582577439	0.038981780	0.402167838	0.123952033
2020-02-11T22:05:00	0.4018	2.336		1.106450081	1.596384934	0.039492759	0.407439518	0.125576816
2020-02-11T22:10:00	0.4029	2.330		1.109512612	1.602295384	0.039712088	0.409702288	0.126274224
2020-02-11T22:15:00	0.3981	2.329		1.095562530	1.575447849	0.038718702	0.399453708	0.123115512
2020-02-11T22:20:00	0.4029	2.325		1.109777156	1.602806369	0.039731066	0.409898088	0.126334572
2020-02-11T22:25:00	0.4072	2.321		1.122193625	1.626867667	0.040627747	0.419148972	0.129185784
2020-02-11T22:30:00	0.4001	2.316		1.101539812	1.586927849	0.039142566	0.403826634	0.124463291
2020-02-11T22:35:00	0.3996	2.308		1.099911302	1.583796629	0.039026820	0.402632508	0.124095249
2020-02-11T22:40:00	0.4058	2.305		1.118206418	1.619124376	0.040338540	0.416165279	0.128266181
2020-02-11T22:45:00	0.4057	2.309		1.117753734	1.618246246	0.040305781	0.415827308	0.128162015
2020-02-11T22:50:00	0.3991	2.307		1.098547408	1.581176216	0.038930034	0.401633985	0.123787495
2020-02-11T22:55:00	0.4050	2.303		1.115678358	1.614222971	0.040155790	0.414279879	0.127685082
2020-02-11T23:00:00	0.3999	2.297		1.100867598	1.585635032	0.039094764	0.403333477	0.124311295
2020-02-11T23:05:00	0.4023	2.293		1.107745190	1.598883264	0.039585425	0.408395534	0.125871470
2020-02-11T23:10:00	0.4075	2.291		1.123088507	1.628607728	0.040692820	0.419820323	0.129392701
2020-02-11T23:15:00	0.4073	2.290		1.122636325	1.627728380	0.040659931	0.419481013	0.129288122
2020-02-11T23:20:00	0.4045	2.290		1.114291046	1.611535944	0.040055707	0.413247342	0.127366844
2020-02-11T23:25:00	0.4075	2.291		1.123192094	1.628809200	0.040700357	0.419898076	0.129416665
2020-02-11T23:30:00	0.4047	2.285		1.114847873	1.612614209	0.040095860	0.413661593	0.127494521
2020-02-11T23:35:00	0.3985	2.275		1.096803983	1.577829290	0.038806517	0.400359685	0.123394743
2020-02-11T23:40:00	0.4020	2.269		1.106913198	1.597278119	0.039525881	0.407781230	0.125682135
2020-02-11T23:45:00	0.4026	2.261		1.108803698	1.600926410	0.039661255	0.409177858	0.126112590
2020-02-11T23:50:00	0.4081	2.267		1.124727163	1.631796088	0.040812135	0.421051277	0.129772093
2020-02-11T23:55:00	0.4026	2.268		1.108775327	1.600871634	0.039659222	0.409156879	0.126106124
2020-02-12T00:00:00	0.4079	2.268		1.124406979	1.631172892	0.040788806	0.420810592	0.129697911
2020-02-12T00:05:00	0.4034	2.261		1.111090084	1.605343407	0.039825335	0.410870640	0.126634322
2020-02-12T00:10:00	0.4041	2.256		1.113271456	1.609562357	0.039982244	0.412489440	0.127133251
2020-02-12T00:15:00	0.4063	2.254		1.119545124	1.621722429	0.040435508	0.417165679	0.128574514
2020-02-12T00:20:00	0.4012	2.249		1.104747480	1.593103058	0.039371128	0.406184671	0.125190061
2020-02-12T00:25:00	0.4054	2.245		1.116885784	1.616563140	0.040243013	0.415179747	0.127962430
2020-02-12T00:30:00	0.4074	2.242		1.122862273	1.628167750	0.040676363	0.419650541	0.129340372
2020-02-12T00:35:00	0.4120	2.238		1.136115437	1.654028248	0.041646950	0.429663909	0.132426590
2020-02-12T00:40:00	0.4053	2.232		1.116697090	1.616197327	0.040229375	0.415039043	0.127919064
2020-02-12T00:45:00	0.4019	2.225		1.106582149	1.596639624	0.039502203	0.407536948	0.125606845
2020-02-12T00:50:00	0.4048	2.216		1.115206328	1.613308501	0.040121720	0.413928393	0.127576751
2020-02-12T00:55:00	0.4089	2.210		1.127315746	1.636838178	0.041001030	0.423000071	0.130372730
2020-02-12T01:00:00	0.4048	2.209		1.115177998	1.613253625	0.040119676	0.413907304	0.127570251
2020-02-12T01:05:00	0.4083	2.212		1.125536742	1.633372285	0.040871158	0.421660202	0.129959769
2020-02-12T01:10:00	0.4108	2.214		1.132667168	1.647282915	0.041393140	0.427045399	0.131619539
2020-02-12T01:15:00	0.4096	2.215		1.129300922	1.640709456	0.041146236	0.424498130	0.130834446
2020-02-12T01:20:00	0.4028	2.215		1.109266566	1.601820191	0.039694441	0.409520227	0.126218111
2020-02-12T01:25:00	0.4073	2.219		1.122560709	1.627581351	0.040654433	0.419424287	0.129270639
2020-02-12T01:30:00	0.4056	2.219		1.117432744	1.617623703	0.040282561	0.415587755	0.128088182
2020-02-12T01:35:00	0.4074	2.224		1.122824467	1.628094231	0.040673613	0.419622172	0.129331629
2020-02-12T01:40:00	0.3990	2.228		1.098063942	1.580247785	0.038895759	0.401280377	0.123678509
2020-02-12T01:45:00	0.4075	2.230		1.123088209	1.628607149	0.040692798	0.419820100	0.129392632
2020-02-12T01:50:00	0.4092	2.238		1.128181342	1.638525688	0.041064308	0.423652892	0.130573936
2020-02-12T01:55:00	0.4073	2.239		1.122475863	1.627416381	0.040648264	0.419360643	0.129251023
2020-02-12T02:00:00	0.4000	2.237		1.101236476	1.586344411	0.039120991	0.403604055	0.124394689
2020-02-12T02:05:00	0.4065	2.235		1.120110518	1.622820234	0.040476502	0.417588609	0.128704865
2020-02-12T02:10:00	0.4012	2.233		1.104728349	1.593066199	0.039369763	0.406170584	0.125185719
2020-02-12T02:15:00	0.4033	2.233		1.110721441	1.604630887	0.039798853	0.410597433	0.126550117
2020-02-12T02:20:00	0.4056	2.237		1.117583555	1.617916181	0.040293469	0.415700295	0.128122868
2020-02-12T02:25:00	0.4012	2.240		1.104539130	1.592701646	0.039356259	0.406031267	0.125142780
2020-02-12T02:30:00	0.4076	2.237		1.123398964	1.629211584	0.040715410	0.420053377	0.129464530
2020-02-12T02:35:00	0.4019	2.224		1.106856132	1.597168049	0.039521799	0.407739115	0.125669155
2020-02-12T02:40:00	0.3988	2.213		1.097599584	1.579356267	0.038862855	0.400940914	0.123573884
2020-02-12T02:45:00	0.4009	2.210		1.103895781	1.591462427	0.039310365	0.405557793	0.124996851
2020-02-12T02:50:00	0.4085	2.209		1.125969587	1.634215274	0.040902735	0.421985975	0.130060176
2020-02-12T02:55:00	0.4030	2.211		1.110022278	1.603279901	0.039748656	0.410079561	0.126390503
2020-02-12T03:00:00	0.4046	2.217		1.114545459	1.612028563	0.040074050	0.413436583	0.127425170
2020-02-12T03:05:00	0.4102	2.215		1.131031165	1.644086789	0.041273037	0.425806316	0.131237642
2020-02-12T03:10:00	0.4026	2.216		1.108661543	1.600651956	0.039651067	0.409072744	0.126080193
2020-02-12T03:15:00	0.4053	2.215		1.116696792	1.616196750	0.040229353	0.415038820	0.127918995
2020-02-12T03:20:00	0.4031	2.215		1.110097812	1.603425831	0.039754078	0.410135491	0.126407741
2020-02-12T03:25:00	0.4046	2.210		1.114620916	1.612174681	0.040079491	0.413492720	0.127442472
2020-02-12T03:30:00	0.4048	2.211		1.115338131	1.613563824	0.040131232	0.414026520	0.127606995
2020-02-12T03:35:00	0.3948	2.210		1.085825251	1.556821794	0.038033898	0.392388713	0.120938012
2020-02-12T03:40:00	0.4094	2.203		1.128745627	1.639626183	0.041105589	0.424078782	0.130705199
2020-02-12T03:45:00	0.4043	2.204		1.113686420	1.610365465	0.040012133	0.412797802	0.127228292
2020-02-12T03:50:00	0.4084	2.200		1.125800024	1.633885018	0.040890363	0.421858339	0.130020837
2020-02-12T03:55:00	0.4069	2.196		1.121260146	1.625053404	0.040559931	0.418449327	0.128970147
2020-02-12T04:00:00	0.4066	2.190		1.120515603	1.623606968	0.040505888	0.417891776	0.128798304
2020-02-12T04:05:00	0.4053	2.187		1.116555191	1.615922258	0.040219120	0.414933251	0.127886458
2020-02-12T04:10:00	0.4020	2.188		1.107026131	1.597495958	0.039533961	0.407864583	0.125707826
2020-02-12T04:15:00	0.4039	2.190		1.112430668	1.607935645	0.039921723	0.411865053	0.126940809
2020-02-12T04:20:00	0.4064	2.192		1.119874599	1.622362119	0.040459393	0.417412104	0.128650464
2020-02-12T04:25:00	0.3987	2.193		1.097447781	1.579064867	0.038852102	0.400829976	0.123539692
2020-02-12T04:30:00	0.4051	2.195		1.116045689	1.614934760	0.040182314	0.414553523	0.127769422
2020-02-12T04:35:00	0.4053	2.195		1.116762672	1.616324464	0.040234114	0.415087942	0.127934135
2020-02-12T04:40:00	0.4012	2.199		1.104595627	1.592810491	0.039360291	0.406072862	0.125155600
2020-02-12T04:45:00	0.4058	2.198		1.118196286	1.619104720	0.040337806	0.416157713	0.128263849
2020-02-12T04:50:00	0.4021	2.192		1.107205683	1.597842326	0.039546808	0.407997126	0.125748677
2020-02-12T04:55:00	0.4028	2.197		1.109388993	1.602056630	0.039703221	0.409610811	0.126246030
2020-02-12T05:00:00	0.4050	2.199		1.115668220	1.614203329	0.040155058	0.414272329	0.127682755
2020-02-12T05:05:00	0.4067	2.201		1.120769953	1.624101036	0.040524345	0.418082197	0.128856994
2020-02-12T05:10:00	0.4061	2.201		1.119148590	1.620952683	0.040406771	0.416869208	0.128483139
2020-02-12T05:15:00	0.4041	2.203		1.113138695	1.609305452	0.039972684	0.412390813	0.127102854
2020-02-12T05:20:00	0.4007	2.197		1.103308852	1.590332240	0.039268524	0.405126119	0.124863804
2020-02-12T05:25:00	0.4047	2.193		1.114866065	1.612649441	0.040097172	0.413675131	0.127498693
2020-02-12T05:30:00	0.3990	2.187		1.098290864	1.580683528	0.038911844	0.401446325	0.123729656
2020-02-12T05:35:00	0.4018	2.179		1.106345200	1.596182688	0.039485261	0.407362154	0.125552972
2020-02-12T05:40:00	0.4014	2.182		1.105304926	1.594177256	0.039410927	0.406595272	0.125316612
2020-02-12T05:45:00	0.4024	2.182		1.108075255	1.599520240	0.039609062	0.408639386	0.125946627
2020-02-12T05:50:00	0.4000	2.181		1.101169764	1.586216108	0.039116247	0.403555112	0.124379605
2020-02-12T05:55:00	0.3939	2.168		1.083068927	1.551566274	0.037841328	0.390402006	0.120325690
2020-02-12T06:00:00	0.4065	2.165		1.120176049	1.622947494	0.040481255	0.417637644	0.128719978
2020-02-12T06:05:00	0.4041	2.165		1.113289655	1.609597574	0.039983554	0.412502960	0.127137419
2020-02-12T06:10:00	0.4024	2.161		1.108150823	1.599666090	0.039614474	0.408695227	0.125963838
2020-02-12T06:15:00	0.4044	2.158		1.114139227	1.611242006	0.040044763	0.413134437	0.127332046
2020-02-12T06:20:00	0.4044	2.159		1.113978751	1.610931335	0.040033197	0.413015115	0.127295270
2020-02-12T06:25:00	0.4045	2.151		1.114403491	1.611753662	0.040063813	0.413330976	0.127392621
2020-02-12T06:30:00	0.4043	2.141		1.113657783	1.610310035	0.040010070	0.412776517	0.127221731
2020-02-12T06:35:00	0.4026	2.140		1.108812359	1.600943131	0.039661876	0.409184263	0.126114564
2020-02-12T06:40:00	0.4051	2.134		1.115969959	1.614788005	0.040176845	0.414497100	0.127752032
2020-02-12T06:45:00	0.4034	2.128		1.111127096	1.605414952	0.039827994	0.410898076	0.126642778
2020-02-12T06:50:00	0.4032	2.120		1.110380829	1.603972666	0.039774394	0.410345094	0.126472343
2020-02-12T06:55:00	0.4068	2.120		1.121043050	1.624631592	0.040544168	0.418286710	0.128920026
2020-02-12T07:00:00	0.4070	2.119		1.121759217	1.626023266	0.040596179	0.418823298	0.129085408
2020-02-12T07:05:00	0.4011	2.119		1.104330470	1.592299681	0.039341371	0.405877669	0.125095439
2020-02-12T07:10:00	0.4016	2.128		1.105928941	1.595380098	0.039455507	0.407055191	0.125458363
2020-02-12T07:15:00	0.4009	2.131		1.103715495	1.591115233	0.039297510	0.405425168	0.124955974
2020-02-12T07:20:00	0.4106	2.130		1.132205869	1.646381442	0.041359255	0.426695807	0.131511792
2020-02-12T07:25:00	0.4006	2.129		1.102807074	1.589366290	0.039232773	0.404757283	0.124750126
2020-02-12T07:30:00	0.4049	2.134		1.115535830	1.613946826	0.040145501	0.414173731	0.127652366
2020-02-12T07:35:00	0.4017	2.136		1.106004546	1.595525859	0.039460910	0.407110935	0.125475544
2020-02-12T07:40:00	0.4065	2.149		1.120185283	1.622965426	0.040481925	0.417644553	0.128722107
2020-02-12T07:45:00	0.4021	2.161		1.107441688	1.598297645	0.039563698	0.408171380	0.125802384
2020-02-12T07:50:00	0.4068	2.168		1.121033520	1.624613077	0.040543476	0.418279573	0.128917827
2020-02-12T07:55:00	0.4035	2.168		1.111514209	1.606163330	0.039855815	0.411185096	0.126731240
2020-02-12T08:00:00	0.4036	2.164		1.111646422	1.606418962	0.039865319	0.411283150	0.126761461
2020-02-12T08:05:00	0.4104	2.168		1.131641729	1.645279286	0.041317837	0.426268504	0.131380093
2020-02-12T08:10:00	0.4035	2.182		1.111325283	1.605798074	0.039842236	0.411045005	0.126688062
2020-02-12T08:15:00	0.4056	2.188		1.117601736	1.617951441	0.040294784	0.415713863	0.128127050
2020-02-12T08:20:00	0.4125	2.198		1.137570064	1.656877275	0.041754288	0.430771296	0.132767897
2020-02-12T08:25:00	0.4037	2.208		1.112014689	1.607131092	0.039891799	0.411556341	0.126845661
2020-02-12T08:30:00	0.4043	2.214		1.113610352	1.610218231	0.040006653	0.412741265	0.127210866
2020-02-12T08:35:00	0.4027	2.225		1.109057833	1.601417110	0.039679474	0.409365814	0.126170520
2020-02-12T08:40:00	0.4072	2.236		1.122352609	1.627176748	0.040639303	0.419268198	0.129222531
2020-02-12T08:45:00	0.4035	2.255		1.111372441	1.605889242	0.039845625	0.411079970	0.126698839
2020-02-12T08:50:00	0.4056	2.262		1.117648826	1.618042771	0.040298191	0.415749007	0.128137882
2020-02-12T08:55:00	0.4074	2.271		1.122748259	1.627946036	0.040668071	0.419564991	0.129314005
2020-02-12T09:00:00	0.4040	2.284		1.112939994	1.608920978	0.039958378	0.412243224	0.127057365
2020-02-12T09:05:00	0.4044	2.303		1.113950116	1.610875901	0.040031134	0.412993825	0.127288708
2020-02-12T09:10:00	0.4064	2.322		1.119930601	1.622470861	0.040463454	0.417453999	0.128663377
2020-02-12T09:15:00	0.4026	2.340		1.108651389	1.600632353	0.039650339	0.409065236	0.126077879
2020-02-12T09:20:00	0.4047	2.357		1.114931674	1.612776512	0.040101905	0.413723958	0.127513742
2020-02-12T09:25:00	0.4027	2.366		1.108915985	1.601143213	0.039669304	0.409260899	0.126138184
2020-02-12T09:30:00	0.4017	2.361		1.106117802	1.595744219	0.039469005	0.407194447	0.125501283
2020-02-12T09:35:00	0.4051	2.377		1.116205493	1.615244457	0.040193856	0.414672602	0.127806123
2020-02-12T09:40:00	0.4045	2.387		1.114289853	1.611533634	0.040055621	0.413246455	0.127366571
2020-02-12T09:45:00	0.4091	2.417		1.127860517	1.637900142	0.041040848	0.423410862	0.130499340
2020-02-12T09:50:00	0.4072	2.446		1.122154622	1.626791846	0.040624912	0.419119725	0.129176770
2020-02-12T09:55:00	0.4094	2.455		1.128707277	1.639551381	0.041102783	0.424049830	0.130696276
2020-02-12T10:00:00	0.4072	2.469		1.122126338	1.626736862	0.040622856	0.419098517	0.129170233
2020-02-12T10:05:00	0.4080	2.490		1.124514107	1.631381390	0.040796611	0.420891112	0.129722728
2020-02-12T10:10:00	0.4038	2.508		1.112288332	1.607660332	0.039911482	0.411759406	0.126908248
2020-02-12T10:15:00	0.4005	2.519		1.102669509	1.589101513	0.039222975	0.404656198	0.124718970
2020-02-12T10:20:00	0.4068	2.543		1.121165149	1.624868822	0.040553033	0.418378165	0.128948214
2020-02-12T10:25:00	0.4045	2.567		1.114200074	1.611359810	0.040049149	0.413179686	0.127345992
2020-02-12T10:30:00	0.3998	2.583		1.100478044	1.584886035	0.039067078	0.403047847	0.124223261
2020-02-12T10:35:00	0.4078	2.611		1.123948981	1.630281635	0.040755448	0.420466449	0.129591843
2020-02-12T10:40:00	0.4014	2.651		1.105275934	1.594121382	0.039408857	0.406573912	0.125310028
2020-02-12T10:45:00	0.4058	2.672		1.118209696	1.619130736	0.040338777	0.416167727	0.128266935
2020-02-12T10:50:00	0.4034	2.677		1.111239920	1.605633052	0.039836102	0.410981716	0.126668556
2020-02-12T10:55:00	0.4049	2.698		1.115389122	1.613662605	0.040134912	0.414064486	0.127618696
2020-02-12T11:00:00	0.4036	2.719		1.111636574	1.606399919	0.039864611	0.411275845	0.126759210
2020-02-12T11:05:00	0.3986	2.735		1.097025281	1.578253958	0.038822183	0.400521306	0.123444556
2020-02-12T11:10:00	0.4037	2.751		1.112033191	1.607166874	0.039893130	0.411570070	0.126849893
2020-02-12T11:15:00	0.4018	2.748		1.106519402	1.596518616	0.039497716	0.407490656	0.125592578
2020-02-12T11:20:00	0.3970	2.761		1.092184999	1.568976529	0.038480369	0.396994872	0.122357675
2020-02-12T11:25:00	0.4019	2.765		1.106623382	1.596719144	0.039505152	0.407567369	0.125616221
2020-02-12T11:30:00	0.4033	2.782		1.110776964	1.604738193	0.039802841	0.410638575	0.126562797
2020-02-12T11:35:00	0.4007	2.808		1.103208680	1.590139385	0.039261385	0.405052472	0.124841106
2020-02-12T11:40:00	0.4023	2.823		1.107951596	1.599281583	0.039600205	0.408548016	0.125918466
2020-02-12T11:45:00	0.3995	2.846		1.099791301	1.583566001	0.039018299	0.402544597	0.124068154
2020-02-12T11:50:00	0.3965	2.832		1.090733211	1.566198367	0.038378185	0.395940661	0.122032757
2020-02-12T11:55:00	0.3929	2.843		1.080181881	1.546069507	0.037640228	0.388327296	0.119686244
2020-02-12T12:00:00	0.3968	2.853		1.091720012	1.568086497	0.038447624	0.396657047	0.122253554
2020-02-12T12:05:00	0.3946	2.879		1.085296826	1.555813661	0.037996936	0.392007384	0.120820483
2020-02-12T12:10:00	0.3954	2.926		1.087704837	1.560409912	0.038165537	0.393746814	0.121356592
2020-02-12T12:15:00	0.3955	2.944		1.088051430	1.561071935	0.038189840	0.393997541	0.121433868
2020-02-12T12:20:00	0.3990	2.949		1.098100466	1.580317916	0.038898348	0.401307084	0.123686741
2020-02-12T12:25:00	0.3938	2.970		1.082854125	1.551157022	0.037826345	0.390247425	0.120278046
2020-02-12T12:30:00	0.3912	2.975		1.075236928	1.536673614	0.037297214	0.384788479	0.118595546
2020-02-12T12:35:00	0.3928	2.974		1.080010527	1.545743516	0.037628312	0.388204356	0.119648353
2020-02-12T12:40:00	0.3939	2.986		1.083305647	1.552017338	0.037857844	0.390572401	0.120378207
2020-02-12T12:45:00	0.3866	2.997		1.061495678	1.510689654	0.036353485	0.375052203	0.115594731
2020-02-12T12:50:00	0.3929	2.992		1.080167451	1.546042055	0.037639225	0.388316943	0.119683053
2020-02-12T12:55:00	0.3966	2.985		1.091117343	1.566933247	0.038405207	0.396219440	0.122118680
2020-02-12T13:00:00	0.3868	2.994		1.062245597	1.512102946	0.036404630	0.375579862	0.115757361
2020-02-12T13:05:00	0.3980	3.012		1.095337862	1.575017039	0.038702822	0.399289879	0.123065019
2020-02-12T13:10:00	0.3953	3.029		1.087448251	1.559919885	0.038147552	0.393561257	0.121299402
2020-02-12T13:15:00	0.3910	3.046		1.074527205	1.535327038	0.037248131	0.384282099	0.118439475
2020-02-12T13:20:00	0.3930	3.051		1.080481283	1.546639172	0.037661055	0.388542160	0.119752467
2020-02-12T13:25:00	0.3954	3.052		1.087604905	1.560219055	0.038158532	0.393674540	0.121334316
2020-02-12T13:30:00	0.3963	3.055		1.090305857	1.565380973	0.038348136	0.395630647	0.121937208
2020-02-12T13:35:00	0.3888	3.060		1.068235701	1.523411588	0.036814645	0.379809910	0.117061103
2020-02-12T13:40:00	0.3936	3.069		1.082459343	1.550404980	0.037798816	0.389963413	0.120190511
2020-02-12T13:45:00	0.3947	3.078		1.085458062	1.556121240	0.038008212	0.392123715	0.120856337
2020-02-12T13:50:00	0.3968	3.071		1.091691230	1.568031412	0.038445597	0.396636142	0.122247111
2020-02-12T13:55:00	0.3910	3.078		1.074650918	1.535561727	0.037256684	0.384370339	0.118466672
2020-02-12T14:00:00	0.3985	3.078		1.096792603	1.577807454	0.038805712	0.400351375	0.123392182
2020-02-12T14:05:00	0.3964	3.086		1.090671135	1.566079624	0.038373819	0.395895620	0.122018875
2020-02-12T14:10:00	0.3910	3.085		1.074512756	1.535299629	0.037247132	0.384271794	0.118436299
2020-02-12T14:15:00	0.3985	3.086		1.096655147	1.577543703	0.038795983	0.400251006	0.123361247
2020-02-12T14:20:00	0.3929	3.087		1.080224267	1.546150150	0.037643176	0.388357710	0.119695618
2020-02-12T14:25:00	0.3921	3.077		1.077916750	1.541762560	0.037482880	0.386703961	0.119185917
2020-02-12T14:30:00	0.3910	3.075		1.074722255	1.535697062	0.037261616	0.384421227	0.118482356
2020-02-12T14:35:00	0.3897	3.069		1.070934350	1.528517800	0.037000226	0.381724509	0.117651201
2020-02-12T14:40:00	0.3924	3.073		1.078663807	1.543182466	0.037534733	0.387238917	0.119350795
2020-02-12T14:45:00	0.3917	3.075		1.076650609	1.539357297	0.037395092	0.385798268	0.118906773
2020-02-12T14:50:00	0.3943	3.070		1.084369826	1.554045785	0.037932145	0.391338946	0.120614464
2020-02-12T14:55:00	0.3917	3.069		1.076755308	1.539556132	0.037402347	0.385873115	0.118929842
2020-02-12T15:00:00	0.3923	3.066		1.078578100	1.543019539	0.037528782	0.387177522	0.119331873
2020-02-12T15:05:00	0.3922	3.061		1.078335407	1.542558219	0.037511933	0.387003702	0.119278300
2020-02-12T15:10:00	0.3972	3.063		1.092819892	1.570192119	0.038525105	0.397456405	0.122499924
2020-02-12T15:15:00	0.3943	3.057		1.084336490	1.553982226	0.037929816	0.391314921	0.120607059
2020-02-12T15:20:00	0.3924	3.055		1.078787401	1.543417431	0.037543315	0.387327462	0.119378085
2020-02-12T15:25:00	0.3925	3.052		1.079134710	1.544077779	0.037567439	0.387576342	0.119454793
2020-02-12T15:30:00	0.3925	3.039		1.079187030	1.544177265	0.037571074	0.387613842	0.119466351
2020-02-12T15:35:00	0.3947	3.034		1.085429239	1.556066253	0.038006196	0.392102917	0.120849927
2020-02-12T15:40:00	0.3977	3.032		1.094308736	1.573044279	0.038630130	0.398539927	0.122833876
2020-02-12T15:45:00	0.3842	3.029		1.054495526	1.497523681	0.035878050	0.370147231	0.114082971
2020-02-12T15:50:00	0.3962	3.024		1.090001735	1.564799393	0.038326760	0.395410114	0.121869237
2020-02-12T15:55:00	0.3927	3.015		1.079743561	1.545235688	0.037609751	0.388012864	0.119589333
2020-02-12T16:00:00	0.3958	3.007		1.088929041	1.562748777	0.038251417	0.394632819	0.121629668
2020-02-12T16:05:00	0.3890	3.012		1.068668229	1.524229510	0.036844353	0.380116402	0.117155567
2020-02-12T16:10:00	0.3888	3.012		1.068171123	1.523289485	0.036810211	0.379764162	0.117047003
2020-02-12T16:15:00	0.3957	3.011		1.088622023	1.562162074	0.038229869	0.394410510	0.121561150
2020-02-12T16:20:00	0.3900	3.007		1.071611400	1.529799989	0.037046869	0.382205720	0.117799515
2020-02-12T16:25:00	0.3914	2.999		1.075840446	1.537819071	0.037338981	0.385219384	0.118728355
2020-02-12T16:30:00	0.3911	2.983		1.075048924	1.536316861	0.037284208	0.384654303	0.118554192
2020-02-12T16:35:00	0.3964	2.975		1.090468773	1.565692559	0.038359590	0.395748814	0.121973628
2020-02-12T16:40:00	0.3933	2.965		1.081432894	1.548450358	0.037727293	0.389225528	0.119963088
2020-02-12T16:45:00	0.3917	2.955		1.076807355	1.539654980	0.037405953	0.385910325	0.118941310
2020-02-12T16:50:00	0.3929	2.946		1.080146675	1.546002529	0.037637780	0.388302036	0.119678459
2020-02-12T16:55:00	0.3972	2.932		1.092902852	1.570350987	0.038530953	0.397516735	0.122518518
2020-02-12T17:00:00	0.3951	2.919		1.086817573	1.558715698	0.038103364	0.393105382	0.121158896
2020-02-12T17:05:00	0.3992	2.903		1.098673297	1.581418005	0.038938962	0.401726090	0.123815882
2020-02-12T17:10:00	0.3952	2.888		1.087005399	1.559074283	0.038116521	0.393241117	0.121200731
2020-02-12T17:15:00	0.3938	2.875		1.082975297	1.551387879	0.037834796	0.390334621	0.120304921
2020-02-12T17:20:00	0.3984	2.864		1.096310805	1.576883061	0.038771618	0.399999636	0.123283773
2020-02-12T17:25:00	0.3957	2.851		1.088464638	1.561861352	0.038218825	0.394296577	0.121526034
2020-02-12T17:30:00	0.3911	2.836		1.074997959	1.536220156	0.037280683	0.384617934	0.118542983
2020-02-12T17:35:00	0.3920	2.824		1.077453501	1.540882352	0.037450747	0.386372449	0.119083741
2020-02-12T17:40:00	0.3948	2.813		1.085802067	1.556777558	0.038032276	0.392371978	0.120932854
2020-02-12T17:45:00	0.3951	2.800		1.086779454	1.558642927	0.038100694	0.393077837	0.121150407
2020-02-12T17:50:00	0.3970	2.791		1.092464254	1.569511152	0.038500042	0.397197837	0.122420231
2020-02-12T17:55:00	0.3942	2.784		1.084021870	1.553382418	0.037907842	0.391088213	0.120537185
2020-02-12T18:00:00	0.3960	2.779		1.089416026	1.563679582	0.038285611	0.394985589	0.121738395
2020-02-12T18:05:00	0.3984	2.771		1.096566568	1.577373748	0.038789715	0.400186335	0.123341315
2020-02-12T18:10:00	0.3948	2.761		1.085776648	1.556729057	0.038030497	0.392353630	0.120927199
2020-02-12T18:15:00	0.3940	2.751		1.083513818	1.552414048	0.037872372	0.390722282	0.120424402
2020-02-12T18:20:00	0.4001	2.740		1.101545463	1.586938718	0.039142968	0.403830781	0.124464569
2020-02-12T18:25:00	0.3958	2.731		1.088708163	1.562326677	0.038235914	0.394472876	0.121580372
2020-02-12T18:30:00	0.3981	2.724		1.095566024	1.575454551	0.038718949	0.399456257	0.123116298
2020-02-12T18:35:00	0.3993	2.714		1.099184531	1.582400074	0.038975229	0.402100252	0.123931203
2020-02-12T18:40:00	0.3944	2.703		1.084572973	1.554433134	0.037946338	0.391485375	0.120659595
2020-02-12T18:45:00	0.4023	2.694		1.107877916	1.599139392	0.039594929	0.408493582	0.125901689
2020-02-12T18:50:00	0.4009	2.684		1.103867146	1.591407279	0.039308323	0.405536726	0.124990358
2020-02-12T18:55:00	0.3965	2.675		1.090742540	1.566216214	0.038378841	0.395947430	0.122034843
2020-02-12T19:00:00	0.3911	2.668		1.074921510	1.536075102	0.037275396	0.384563384	0.118526170
2020-02-12T19:05:00	0.3935	2.664		1.082096042	1.549713044	0.037773492	0.389702154	0.120109989
2020-02-12T19:10:00	0.4000	2.657		1.101014130	1.585916806	0.039105181	0.403440947	0.124344418
2020-02-12T19:15:00	0.3969	2.645		1.092000230	1.568622836	0.038467355	0.396860612	0.122316295
2020-02-12T19:20:00	0.3939	2.637		1.083262256	1.551934653	0.037854817	0.390541165	0.120368580
2020-02-12T19:25:00	0.3981	2.625		1.095421573	1.575177553	0.038708738	0.399350917	0.123083831
2020-02-12T19:30:00	0.3966	2.617		1.091105149	1.566909916	0.038404349	0.396210589	0.122115951
2020-02-12T19:35:00	0.3939	2.606		1.083249539	1.551910421	0.037853929	0.390532010	0.120365758
2020-02-12T19:40:00	0.3947	2.597		1.085700389	1.556583558	0.038025162	0.392298589	0.120910235
2020-02-12T19:45:00	0.3967	2.585		1.091386606	1.567448456	0.038424155	0.396414921	0.122178929
2020-02-12T19:50:00	0.3897	2.575		1.070841828	1.528342618	0.036993854	0.381658776	0.117630942
2020-02-12T19:55:00	0.3912	2.565		1.075366874	1.536920218	0.037306205	0.384881236	0.118624135
2020-02-12T20:00:00	0.3929	2.553		1.080182081	1.546069889	0.037640242	0.388327440	0.119686288
2020-02-12T20:05:00	0.4020	2.544		1.107028986	1.597501465	0.039534165	0.407866690	0.125708475
2020-02-12T20:10:00	0.3958	2.534		1.088913574	1.562719218	0.038250331	0.394621618	0.121626215
2020-02-12T20:15:00	0.3925	2.525		1.078989576	1.543801816	0.037557357	0.387472328	0.119422735
2020-02-12T20:20:00	0.3956	2.516		1.088218332	1.561390773	0.038201546	0.394118311	0.121471091
2020-02-12T20:25:00	0.3952	2.506		1.087134658	1.559321076	0.038125576	0.393334543	0.121229526
2020-02-12T20:30:00	0.3932	2.500		1.081041255	1.547704849	0.037700024	0.388944201	0.119876380
2020-02-12T20:35:00	0.3948	2.491		1.085850136	1.556869277	0.038035639	0.392406676	0.120943548
2020-02-12T20:40:00	0.3983	2.483		1.096239690	1.576746638	0.038766587	0.399947734	0.123267776
2020-02-12T20:45:00	0.3893	2.476		1.069514167	1.525829732	0.036902496	0.380716249	0.117340445
2020-02-12T20:50:00	0.3984	2.471		1.096427108	1.577106183	0.038779846	0.400084528	0.123309937
2020-02-12T20:55:00	0.3903	2.464		1.072657959	1.531782835	0.037119035	0.382950244	0.118028984
2020-02-12T21:00:00	0.3972	2.459		1.092793614	1.570141800	0.038523253	0.397437296	0.122494035
2020-02-12T21:05:00	0.3969	2.451		1.092005193	1.568632336	0.038467705	0.396864219	0.122317406
2020-02-12T21:10:00	0.3899	2.442		1.071463367	1.529519608	0.037036668	0.382100476	0.117767078
2020-02-12T21:15:00	0.3899	2.436		1.071262111	1.529138453	0.037022802	0.381957420	0.117722986
2020-02-12T21:20:00	0.3939	2.431		1.083160519	1.551740794	0.037847718	0.390467930	0.120346008
2020-02-12T21:25:00	0.3925	2.427		1.079126826	1.544062786	0.037566891	0.387570691	0.119453051
2020-02-12T21:30:00	0.3847	2.426		1.055854895	1.500076660	0.035970095	0.371096841	0.114375651
2020-02-12T21:35:00	0.3958	2.421		1.088743499	1.562394201	0.038238394	0.394498461	0.121588257
2020-02-12T21:40:00	0.3960	2.416		1.089425959	1.563698568	0.038286308	0.394992786	0.121740613
2020-02-12T21:45:00	0.3962	2.409		1.090108310	1.565003189	0.038334250	0.395487389	0.121893054
2020-02-12T21:50:00	0.3957	2.403		1.088436467	1.561807528	0.038216849	0.394276186	0.121519750
2020-02-12T21:55:00	0.3930	2.397		1.080576003	1.546819410	0.037667645	0.388610148	0.119773422
2020-02-12T22:00:00	0.3982	2.390		1.095976187	1.576241187	0.038747949	0.399755452	0.123208513
2020-02-12T22:05:00	0.3923	2.384		1.078396624	1.542674578	0.037516183	0.387047543	0.119291812
2020-02-12T22:10:00	0.3966	2.379		1.091150061	1.566995845	0.038407509	0.396243190	0.122125999
2020-02-12T22:15:00	0.3928	2.367		1.080043796	1.545806807	0.037630625	0.388228224	0.119655709
2020-02-12T22:20:00	0.3936	2.361		1.082193798	1.549899215	0.037780305	0.389772443	0.120131652
2020-02-12T22:25:00	0.3917	2.353		1.076675815	1.539405164	0.037396838	0.385816286	0.118912326
2020-02-12T22:30:00	0.3945	2.346		1.085017976	1.555281780	0.037977440	0.391806243	0.120758489
2020-02-12T22:35:00	0.3936	2.341		1.082452099	1.550391181	0.037798311	0.389958202	0.120188905
2020-02-12T22:40:00	0.3905	2.336		1.073096097	1.532613264	0.037149271	0.383262183	0.118125127
2020-02-12T22:45:00	0.3943	2.330		1.084392350	1.554088731	0.037933718	0.391355180	0.120619467
2020-02-12T22:50:00	0.3921	2.323		1.077992110	1.541905769	0.037488109	0.386757906	0.119202543
2020-02-12T22:55:00	0.3935	2.317		1.081912210	1.549362970	0.037760682	0.389569994	0.120069256
2020-02-12T23:00:00	0.3963	2.310		1.090244275	1.565263200	0.038343807	0.395585985	0.121923442
2020-02-12T23:05:00	0.3952	2.304		1.087092672	1.559240912	0.038122635	0.393304195	0.121220173
2020-02-12T23:10:00	0.3971	2.298		1.092475112	1.569531941	0.038500807	0.397205730	0.122422664
2020-02-12T23:15:00	0.3938	2.291		1.082846114	1.551141759	0.037825786	0.390241660	0.120276270
2020-02-12T23:20:00	0.3949	2.287		1.086172861	1.557485119	0.038058224	0.392639676	0.121015361
2020-02-12T23:25:00	0.3968	2.282		1.091850563	1.568336362	0.038456816	0.396751879	0.122282782
2020-02-12T23:30:00	0.4056	2.277		1.117448540	1.617654337	0.040283703	0.415599542	0.128091815
2020-02-12T23:35:00	0.3953	2.277		1.087314266	1.559664028	0.038138162	0.393464383	0.121269544
2020-02-12T23:40:00	0.3947	2.275		1.085633437	1.556455819	0.038020479	0.392250269	0.120895342
2020-02-12T23:45:00	0.3883	2.272		1.066532665	1.520192879	0.036697807	0.378604507	0.116689586
2020-02-12T23:50:00	0.3950	2.266		1.086394502	1.557908125	0.038073739	0.392799742	0.121064695
2020-02-12T23:55:00	0.3983	2.263		1.096187277	1.576646093	0.038762880	0.399909483	0.123255987
2020-02-13T00:00:00	0.4011	2.262		1.104491998	1.592610846	0.039352896	0.405996569	0.125132086
2020-02-13T00:05:00	0.3982	2.256		1.095771277	1.575848177	0.038733460	0.399605963	0.123162439
2020-02-13T00:10:00	0.3989	2.255		1.097913486	1.579958902	0.038885096	0.401170370	0.123644604
2020-02-13T00:15:00	0.3971	2.252		1.092709586	1.569980896	0.038517330	0.397376197	0.122475203
2020-02-13T00:20:00	0.3958	2.250		1.088676894	1.562266925	0.038233720	0.394450237	0.121573394
2020-02-13T00:25:00	0.3988	2.245		1.097583449	1.579325293	0.038861712	0.400929122	0.123570249
2020-02-13T00:30:00	0.3985	2.245		1.096788011	1.577798643	0.038805387	0.400348022	0.123391148
2020-02-13T00:35:00	0.3993	2.248		1.099223340	1.582474635	0.038977983	0.402128664	0.123939960
2020-02-13T00:40:00	0.3985	2.248		1.096665861	1.577564261	0.038796741	0.400258829	0.123363658
2020-02-13T00:45:00	0.4061	2.245		1.119021767	1.620706529	0.040397583	0.416774415	0.128453922
2020-02-13T00:50:00	0.4012	2.244		1.104762094	1.593131215	0.039372171	0.406195432	0.125193377
2020-02-13T00:55:00	0.4014	2.242		1.105140971	1.593861283	0.039399219	0.406474482	0.125279383
2020-02-13T01:00:00	0.4039	2.246		1.112550620	1.608167679	0.039930354	0.411954099	0.126968254
2020-02-13T01:05:00	0.4009	2.246		1.103846018	1.591366590	0.039306817	0.405521183	0.124985567
2020-02-13T01:10:00	0.4002	2.243		1.101584716	1.587014225	0.039145760	0.403859589	0.124473448
2020-02-13T01:15:00	0.4011	2.243		1.104310640	1.592261482	0.039339956	0.405863073	0.125090941
2020-02-13T01:20:00	0.4008	2.243		1.103516431	1.590731914	0.039283319	0.405278759	0.124910849
2020-02-13T01:25:00	0.3976	2.245		1.094205893	1.572847194	0.038622870	0.398465028	0.122810791
2020-02-13T01:30:00	0.3959	2.245		1.088997542	1.562879694	0.038256226	0.394682430	0.121644958
2020-02-13T01:35:00	0.4017	2.242		1.106119262	1.595747036	0.039469109	0.407195524	0.125501615
2020-02-13T01:40:00	0.4009	2.237		1.103859140	1.591391861	0.039307752	0.405530836	0.124988542
2020-02-13T01:45:00	0.3978	2.235		1.094549337	1.573505400	0.038647117	0.398715187	0.122887893
2020-02-13T01:50:00	0.3958	2.229		1.088752800	1.562411974	0.038239047	0.394505196	0.121590333
2020-02-13T01:55:00	0.3992	2.227		1.098833904	1.581726500	0.038950353	0.401843613	0.123852104
2020-02-13T02:00:00	0.3991	2.222		1.098626035	1.581327229	0.038935610	0.401691510	0.123805224
2020-02-13T02:05:00	0.3979	2.219		1.094892753	1.574163669	0.038671372	0.398965416	0.122965016
2020-02-13T02:10:00	0.4000	2.214		1.101146063	1.586170527	0.039114562	0.403537725	0.124374246
2020-02-13T02:15:00	0.4002	2.209		1.101818699	1.587464342	0.039162407	0.404031337	0.124526382
2020-02-13T02:20:00	0.3988	2.206		1.097500745	1.579166533	0.038855854	0.400868680	0.123551620
2020-02-13T02:25:00	0.3960	2.202		1.089354564	1.563562093	0.038281294	0.394941056	0.121724669
2020-02-13T02:30:00	0.4005	2.196		1.102662630	1.589088274	0.039222485	0.404651144	0.124717413
2020-02-13T02:35:00	0.3974	2.191		1.093644260	1.571771081	0.038583236	0.398056138	0.122684767
2020-02-13T02:40:00	0.3950	2.187		1.086374357	1.557869674	0.038072328	0.392785191	0.121060211
2020-02-13T02:45:00	0.3978	2.185		1.094697845	1.573790050	0.038657605	0.398823386	0.122921241
2020-02-13T02:50:00	0.3999	2.178		1.100951436	1.585796245	0.039100724	0.403394964	0.124330246
2020-02-13T02:55:00	0.3987	2.173		1.097220150	1.578627952	0.038835981	0.400663657	0.123488430
2020-02-13T03:00:00	0.3971	2.168		1.092603575	1.569777906	0.038509859	0.397299119	0.122451447
2020-02-13T03:05:00	0.3979	2.161		1.095041250	1.574448348	0.038681863	0.399073646	0.122998374
2020-02-13T03:10:00	0.3978	2.155		1.094539283	1.573486130	0.038646408	0.398707862	0.122885635
2020-02-13T03:15:00	0.3947	2.152		1.085504000	1.556208877	0.038011425	0.392156862	0.120866554
2020-02-13T03:20:00	0.3943	2.147		1.084411737	1.554125696	0.037935073	0.391369154	0.120623774
2020-02-13T03:25:00	0.3960	2.142		1.089503251	1.563846324	0.038291737	0.395048793	0.121757875
2020-02-13T03:30:00	0.3931	2.137		1.080752311	1.547154924	0.037679913	0.388736719	0.119812432
2020-02-13T03:35:00	0.3983	2.133		1.096143982	1.576563042	0.038759817	0.399877888	0.123246249
2020-02-13T03:40:00	0.3899	2.128		1.071478930	1.529549084	0.037037740	0.382111540	0.117770488
2020-02-13T03:45:00	0.3963	2.120		1.090141302	1.565066279	0.038336569	0.395511312	0.121900427
2020-02-13T03:50:00	0.3945	2.114		1.084928058	1.555110286	0.037971154	0.391741396	0.120738503
2020-02-13T03:55:00	0.3940	2.107		1.083540986	1.552465825	0.037874268	0.390741845	0.120430432
2020-02-13T04:00:00	0.3896	2.102		1.070642116	1.527964509	0.036980104	0.381516912	0.117587218
2020-02-13T04:05:00	0.3982	2.097		1.095969697	1.576228739	0.038747491	0.399750717	0.123207053
2020-02-13T04:10:00	0.3989	2.092		1.098010254	1.580144698	0.038891954	0.401241120	0.123666410
2020-02-13T04:15:00	0.3983	2.086		1.096231970	1.576731827	0.038766041	0.399942099	0.123266039
2020-02-13T04:20:00	0.3973	2.081		1.093277068	1.571067694	0.038557337	0.397788939	0.122602414
2020-02-13T04:25:00	0.4012	2.076		1.104712706	1.593036059	0.039368646	0.406159065	0.125182169
2020-02-13T04:30:00	0.3995	2.067		1.099709005	1.583407845	0.039012456	0.402484313	0.124049574
2020-02-13T04:35:00	0.3992	2.060		1.098812419	1.581685230	0.038948829	0.401827890	0.123847258
2020-02-13T04:40:00	0.3970	2.054		1.092331790	1.569257545	0.038490709	0.397101554	0.122390555
2020-02-13T04:45:00	0.3990	2.047		1.098193570	1.580496695	0.038904947	0.401375170	0.123707725
2020-02-13T04:50:00	0.3983	2.040		1.096121552	1.576520016	0.038758231	0.399861520	0.123241204
2020-02-13T04:55:00	0.3974	2.033		1.093460585	1.571419219	0.038570280	0.397922468	0.122643569
2020-02-13T05:00:00	0.3994	2.025		1.099320843	1.582661970	0.038984902	0.402200050	0.123961962
2020-02-13T05:05:00	0.4037	2.017		1.111911832	1.606932181	0.039884403	0.411480029	0.126822141
2020-02-13T05:10:00	0.4039	2.010		1.112481593	1.608034153	0.039925387	0.411902856	0.126952461
2020-02-13T05:15:00	0.4075	2.002		1.122991168	1.628418418	0.040685739	0.419747268	0.129370185
2020-02-13T05:20:00	0.4024	1.995		1.108057134	1.599485267	0.039607764	0.408625996	0.125942501
2020-02-13T05:25:00	0.4075	1.989		1.122959813	1.628357439	0.040683458	0.419723737	0.129362932
2020-02-13T05:30:00	0.4069	1.982		1.121483782	1.625487973	0.040576171	0.418616881	0.129021788
2020-02-13T05:35:00	0.4037	1.975		1.112110282	1.607315965	0.039898675	0.411627272	0.126867523
2020-02-13T05:40:00	0.4068	1.968		1.121160285	1.624859371	0.040552680	0.418374521	0.128947091
2020-02-13T05:45:00	0.4077	1.960		1.123773090	1.629939409	0.040742642	0.420334327	0.129551122
2020-02-13T05:50:00	0.4068	1.951		1.121128917	1.624798423	0.040550402	0.418351025	0.128939849
2020-02-13T05:55:00	0.4111	1.944		1.133657527	1.649218992	0.041465944	0.427796496	0.131851035
2020-02-13T06:00:00	0.4076	1.933		1.123434086	1.629279905	0.040717966	0.420079747	0.129472658
2020-02-13T06:05:00	0.4150	1.924		1.144972993	1.671409339	0.042303045	0.436432716	0.134512802
2020-02-13T06:10:00	0.4140	1.916		1.142050729	1.665666351	0.042085929	0.434192771	0.133822429
2020-02-13T06:15:00	0.4126	1.909		1.137962572	1.657646400	0.041783279	0.431070390	0.132860081
2020-02-13T06:20:00	0.4170	1.902		1.150733865	1.682755919	0.042732965	0.440868127	0.135879838
2020-02-13T06:25:00	0.4150	1.896		1.144910593	1.671286619	0.042298402	0.436384816	0.134498038
2020-02-13T06:30:00	0.4130	1.889		1.139079677	1.659836228	0.041865854	0.431922293	0.133122646
2020-02-13T06:35:00	0.4162	1.883		1.148364943	1.678086085	0.042555872	0.439041087	0.135316727
2020-02-13T06:40:00	0.4154	1.875		1.146025951	1.673480760	0.042381436	0.437241461	0.134762065
2020-02-13T06:45:00	0.4170	1.867		1.150655966	1.682602269	0.042727135	0.440807977	0.135861300
2020-02-13T06:50:00	0.4098	1.861		1.129696642	1.641481614	0.041175216	0.424797116	0.130926597
2020-02-13T06:55:00	0.4165	1.854		1.149173564	1.679679480	0.042616274	0.439664243	0.135508790
2020-02-13T07:00:00	0.4181	1.849		1.153800309	1.688809116	0.042962839	0.443239692	0.136610778
2020-02-13T07:05:00	0.4208	1.842		1.161897245	1.704837869	0.043573275	0.449537449	0.138551808
2020-02-13T07:10:00	0.4207	1.836		1.161592224	1.704232855	0.043550189	0.449299267	0.138478398
2020-02-13T07:15:00	0.4191	1.832		1.156942437	1.695021487	0.043199132	0.445677478	0.137362127
2020-02-13T07:20:00	0.4198	1.826		1.158954959	1.699005692	0.043350873	0.447242965	0.137844625
2020-02-13T07:25:00	0.4201	1.822		1.159808307	1.700696297	0.043415308	0.447907727	0.138049512
2020-02-13T07:30:00	0.4194	1.817		1.157765059	1.696649547	0.043261119	0.446316987	0.137559230
2020-02-13T07:35:00	0.4218	1.814		1.164697821	1.710397227	0.043785583	0.451727785	0.139226891
2020-02-13T07:40:00	0.4202	1.811		1.160051262	1.701177759	0.043433663	0.448097095	0.138107877
2020-02-13T07:45:00	0.4203	1.809		1.160325295	1.701720880	0.043454372	0.448310743	0.138173725
2020-02-13T07:50:00	0.4154	1.808		1.146098106	1.673622749	0.042386811	0.437296914	0.134779156
2020-02-13T07:55:00	0.4187	1.808		1.155658627	1.692482042	0.043102496	0.444680507	0.137054851
2020-02-13T08:00:00	0.4205	1.809		1.160857768	1.702776432	0.043494627	0.448726051	0.138301727
2020-02-13T08:05:00	0.4162	1.811		1.148374710	1.678105327	0.042556601	0.439048611	0.135319046
2020-02-13T08:10:00	0.4178	1.814		1.153002285	1.687232900	0.042902947	0.442621792	0.136420335
2020-02-13T08:15:00	0.4158	1.819		1.147181982	1.675756228	0.042467598	0.438130377	0.135036037
2020-02-13T08:20:00	0.4199	1.826		1.159058007	1.699209806	0.043358651	0.447323210	0.137869358
2020-02-13T08:25:00	0.4193	1.836		1.157304193	1.695737358	0.043226385	0.445958642	0.137448785
2020-02-13T08:30:00	0.4154	1.847		1.145973338	1.673377233	0.042377517	0.437201031	0.134749604
2020-02-13T08:35:00	0.4108	1.862		1.132865673	1.647670899	0.041407727	0.427195886	0.131665921
2020-02-13T08:40:00	0.4115	1.875		1.134889126	1.651628042	0.041556585	0.428731622	0.132139250
2020-02-13T08:45:00	0.4148	1.890		1.144473772	1.670427640	0.042265908	0.436049583	0.134394716
2020-02-13T08:50:00	0.4152	1.908		1.145620434	1.672682881	0.042351236	0.436929893	0.134666036
2020-02-13T08:55:00	0.4089	1.927		1.127263605	1.636736550	0.040997220	0.422960765	0.130360616
2020-02-13T09:00:00	0.4140	1.944		1.142101510	1.665766077	0.042089696	0.434231638	0.133834408
2020-02-13T09:05:00	0.4127	1.961		1.138304417	1.658316377	0.041808538	0.431330977	0.132940396
2020-02-13T09:10:00	0.4173	1.983		1.151655035	1.684573331	0.042801945	0.441579775	0.136099175
2020-02-13T09:15:00	0.4161	2.004		1.148156475	1.677675403	0.042540308	0.438880517	0.135267238
2020-02-13T09:20:00	0.4131	2.029		1.139421437	1.660506417	0.041891135	0.432183114	0.133203033
2020-02-13T09:25:00	0.4177	2.055		1.152768704	1.686771664	0.042885425	0.442441029	0.136364622
2020-02-13T09:30:00	0.4127	2.077		1.138226300	1.658163267	0.041802765	0.431271421	0.132922040
2020-02-13T09:35:00	0.4186	2.097		1.155347369	1.691866605	0.043079086	0.444438988	0.136980412
2020-02-13T09:40:00	0.4150	2.120		1.144883342	1.671233027	0.042296374	0.436363898	0.134491591
2020-02-13T09:45:00	0.4211	2.145		1.162557773	1.706148358	0.043623295	0.450053490	0.138710857
2020-02-13T09:50:00	0.4126	2.171		1.137872780	1.657470437	0.041776646	0.431001957	0.132838989
2020-02-13T09:55:00	0.4153	2.201		1.145708194	1.672855540	0.042357771	0.436997310	0.134686815
2020-02-13T10:00:00	0.4166	2.229		1.149467795	1.680259429	0.042638265	0.439891117	0.135578714
2020-02-13T10:05:00	0.4168	2.256		1.150145615	1.681595784	0.042688950	0.440414025	0.135739880
2020-02-13T10:10:00	0.4168	2.284		1.150242917	1.681787657	0.042696228	0.440489119	0.135763024
2020-02-13T10:15:00	0.4190	2.312		1.156430671	1.694008988	0.043160595	0.445279899	0.137239589
2020-02-13T10:20:00	0.4187	2.336		1.155658299	1.692481393	0.043102471	0.444680252	0.137054772
2020-02-13T10:25:00	0.4169	2.364		1.150534810	1.682363308	0.042718068	0.440714435	0.135832469
2020-02-13T10:30:00	0.4193	2.391		1.157301731	1.695732487	0.043226199	0.445956729	0.137448195
2020-02-13T10:35:00	0.4130	2.417		1.139106436	1.659888698	0.041867833	0.431942712	0.133128939
2020-02-13T10:40:00	0.4138	2.441		1.141530956	1.664645761	0.042047379	0.433795061	0.133699851
2020-02-13T10:45:00	0.4165	2.468		1.149182540	1.679697172	0.042616945	0.439671163	0.135510923
2020-02-13T10:50:00	0.4170	2.494		1.150731071	1.682750409	0.042732756	0.440865969	0.135879173
2020-02-13T10:55:00	0.4178	2.526		1.153149260	1.687523150	0.042913974	0.442735556	0.136455398
2020-02-13T11:00:00	0.4224	2.554		1.166278850	1.713539170	0.043905704	0.452967054	0.139608845
2020-02-13T11:05:00	0.4198	2.581		1.158850793	1.698799374	0.043343011	0.447161859	0.137819628
2020-02-13T11:10:00	0.4108	2.604		1.132801849	1.647546148	0.041403037	0.427147498	0.131651007
2020-02-13T11:15:00	0.4171	2.625		1.150927324	1.683137531	0.042747447	0.441017527	0.135925885
2020-02-13T11:20:00	0.4141	2.646		1.142310822	1.666177155	0.042105227	0.434391864	0.133883791
2020-02-13T11:25:00	0.4175	2.665		1.152282416	1.685811600	0.042848962	0.442064838	0.136248677
2020-02-13T11:30:00	0.4171	2.690		1.150929000	1.683140837	0.042747572	0.441018822	0.135926284
2020-02-13T11:35:00	0.4130	2.710		1.139113159	1.659901880	0.041868330	0.431947842	0.133130520
2020-02-13T11:40:00	0.4157	2.727		1.147059350	1.675514781	0.042458453	0.438036031	0.135006959
2020-02-13T11:45:00	0.4146	2.745		1.143670221	1.668848010	0.042206172	0.435433301	0.134204772
2020-02-13T11:50:00	0.4157	2.768		1.146963656	1.675326384	0.042451318	0.437962418	0.134984271
2020-02-13T11:55:00	0.4136	2.786		1.140957727	1.663520518	0.042004889	0.433356694	0.133564742
2020-02-13T12:00:00	0.4074	2.803		1.122695071	1.627842610	0.040664203	0.419525086	0.129301706
2020-02-13T12:05:00	0.4148	2.821		1.144350604	1.670185473	0.042256749	0.435955087	0.134365592
2020-02-13T12:10:00	0.4097	2.831		1.129602355	1.641297621	0.041168310	0.424725867	0.130904637
2020-02-13T12:15:00	0.4121	2.843		1.136401237	1.654587848	0.041668027	0.429881353	0.132493608
2020-02-13T12:20:00	0.4121	2.860		1.136498840	1.654778976	0.041675226	0.429955628	0.132516500
2020-02-13T12:25:00	0.4131	2.880		1.139506683	1.660673603	0.041897442	0.432248185	0.133223089
2020-02-13T12:30:00	0.4129	2.901		1.138731366	1.659153310	0.041840097	0.431656567	0.133040746
2020-02-13T12:35:00	0.4094	2.918		1.128633119	1.639406740	0.041097356	0.423993848	0.130679022
2020-02-13T12:40:00	0.4090	2.932		1.127564186	1.637322444	0.041019186	0.423187381	0.130430461
2020-02-13T12:45:00	0.4128	2.950		1.138442058	1.658586169	0.041818710	0.431435926	0.132972742
2020-02-13T12:50:00	0.4139	2.968		1.141739373	1.665054962	0.042062834	0.433954508	0.133748994
2020-02-13T12:55:00	0.4100	2.986		1.130482063	1.643014652	0.041232772	0.425390904	0.131109608
2020-02-13T13:00:00	0.4110	3.004		1.133202666	1.648329653	0.041432497	0.427451431	0.131744682
2020-02-13T13:05:00	0.4072	3.020		1.122215624	1.626910434	0.040629346	0.419165468	0.129190868
2020-02-13T13:10:00	0.4088	3.034		1.126984086	1.636191792	0.040976800	0.422750092	0.130295684
2020-02-13T13:15:00	0.4078	3.044		1.123871503	1.630130884	0.040749807	0.420408247	0.129573905
2020-02-13T13:20:00	0.4040	3.058		1.112861094	1.608768323	0.039952699	0.412184628	0.127039306
2020-02-13T13:25:00	0.4067	3.066		1.120854667	1.624265605	0.040530494	0.418145630	0.128876544
2020-02-13T13:30:00	0.4072	3.078		1.122121078	1.626726637	0.040622474	0.419094573	0.129169018
2020-02-13T13:35:00	0.4085	3.087		1.126014274	1.634302314	0.040905996	0.422019616	0.130070544
2020-02-13T13:40:00	0.4122	3.095		1.136895960	1.655556715	0.041704526	0.430257904	0.132609665
2020-02-13T13:45:00	0.4063	3.105		1.119493288	1.621621797	0.040431750	0.417126916	0.128562567
2020-02-13T13:50:00	0.4062	3.111		1.119299012	1.621244661	0.040417671	0.416981657	0.128517797
2020-02-13T13:55:00	0.4030	3.118		1.110034751	1.603303998	0.039749552	0.410088796	0.126393350
2020-02-13T14:00:00	0.4011	3.125		1.104271478	1.592186045	0.039337162	0.405834249	0.125082057
2020-02-13T14:05:00	0.4045	3.136		1.114329390	1.611610184	0.040058471	0.413275860	0.127375634
2020-02-13T14:10:00	0.4037	3.139		1.112086144	1.607269282	0.039896939	0.411609361	0.126862003
2020-02-13T14:15:00	0.3969	3.147		1.091938371	1.568504432	0.038462999	0.396815670	0.122302443
2020-02-13T14:20:00	0.4065	3.153		1.120179094	1.622953407	0.040481476	0.417639922	0.128720680
2020-02-13T14:25:00	0.4023	3.161		1.107987472	1.599350822	0.039602774	0.408574524	0.125926636
2020-02-13T14:30:00	0.4035	3.170		1.111307673	1.605764031	0.039840970	0.411031948	0.126684038
2020-02-13T14:35:00	0.4010	3.173		1.104079913	1.591817061	0.039323497	0.405693273	0.125038607
2020-02-13T14:40:00	0.4007	3.176		1.103298320	1.590311963	0.039267773	0.405118376	0.124861418
2020-02-13T14:45:00	0.4020	3.180		1.106915189	1.597281960	0.039526024	0.407782700	0.125682588
2020-02-13T14:50:00	0.4000	3.184		1.101147792	1.586173852	0.039114685	0.403538993	0.124374637
2020-02-13T14:55:00	0.4031	3.186		1.110334391	1.603882934	0.039771060	0.410310697	0.126461742
2020-02-13T15:00:00	0.4077	3.188		1.123591339	1.629585813	0.040729411	0.420197827	0.129509051
2020-02-13T15:05:00	0.4019	3.188		1.106722047	1.596909434	0.039512208	0.407640169	0.125638659
2020-02-13T15:10:00	0.4064	3.189		1.119989912	1.622586031	0.040467755	0.417498371	0.128677053
2020-02-13T15:15:00	0.4046	3.191		1.114532337	1.612003152	0.040073103	0.413426821	0.127422161
2020-02-13T15:20:00	0.4046	3.192		1.114630426	1.612193098	0.040080177	0.413499795	0.127444653
2020-02-13T15:25:00	0.4040	3.189		1.112972746	1.608984349	0.039960736	0.412267549	0.127064863
2020-02-13T15:30:00	0.3979	3.190		1.094886894	1.574152438	0.038670958	0.398961146	0.122963700
2020-02-13T15:35:00	0.4025	3.191		1.108483711	1.600308648	0.039638323	0.408941270	0.126039671
2020-02-13T15:40:00	0.4034	3.189		1.111217966	1.605590611	0.039834524	0.410965440	0.126663540
2020-02-13T15:45:00	0.4053	3.188		1.116583313	1.615976771	0.040221152	0.414954216	0.127892919
2020-02-13T15:50:00	0.4087	3.188		1.126613041	1.635468778	0.040949702	0.422470530	0.130209520
2020-02-13T15:55:00	0.4080	3.183		1.124667982	1.631680892	0.040807823	0.421006784	0.129758380
2020-02-13T16:00:00	0.4149	3.183		1.144570639	1.670618106	0.042273113	0.436123909	0.134417624
2020-02-13T16:05:00	0.4149	3.182		1.144778946	1.671027724	0.042288608	0.436283769	0.134466895
2020-02-13T16:10:00	0.4136	3.184		1.140917407	1.663441384	0.042001901	0.433325870	0.133555242
2020-02-13T16:15:00	0.4158	3.181		1.147228955	1.675848715	0.042471101	0.438166519	0.135047177
2020-02-13T16:20:00	0.4193	3.181		1.157300123	1.695729304	0.043226078	0.445955479	0.137447810
2020-02-13T16:25:00	0.4206	3.182		1.161273050	1.703599868	0.043526038	0.449050111	0.138401605
2020-02-13T16:30:00	0.4130	3.181		1.139133459	1.659941686	0.041869831	0.431963332	0.133135294
2020-02-13T16:35:00	0.4124	3.180		1.137304978	1.656357921	0.041734715	0.430569366	0.132705660
2020-02-13T16:40:00	0.4080	3.181		1.124688414	1.631720664	0.040809312	0.421022145	0.129763114
2020-02-13T16:45:00	0.4110	3.181		1.133354424	1.648626345	0.041443654	0.427566539	0.131780160
2020-02-13T16:50:00	0.4052	3.174		1.116341805	1.615508649	0.040203703	0.414774191	0.127837434
2020-02-13T16:55:00	0.4072	3.171		1.122104438	1.626694290	0.040621264	0.419082096	0.129165172
2020-02-13T17:00:00	0.4040	3.166		1.112957795	1.608955422	0.039959660	0.412256445	0.127061440
2020-02-13T17:05:00	0.4066	3.162		1.120478339	1.623534589	0.040503184	0.417863882	0.128789707
2020-02-13T17:10:00	0.4014	3.159		1.105175243	1.593927331	0.039401667	0.406499730	0.125287165
2020-02-13T17:15:00	0.4022	3.153		1.107730354	1.598854635	0.039584363	0.408384575	0.125868092
2020-02-13T17:20:00	0.3955	3.148		1.087969077	1.560914623	0.038184065	0.393937958	0.121415504
2020-02-13T17:25:00	0.4013	3.144		1.104926163	1.593447346	0.039383883	0.406316258	0.125230617
2020-02-13T17:30:00	0.3963	3.139		1.090156798	1.565095912	0.038337658	0.395522549	0.121903891
2020-02-13T17:35:00	0.3969	3.132		1.092132604	1.568876228	0.038476678	0.396956797	0.122345940
2020-02-13T17:40:00	0.3909	3.129		1.074367499	1.535024092	0.037237091	0.384168203	0.118404371
2020-02-13T17:45:00	0.3938	3.123		1.082839304	1.551128786	0.037825311	0.390236760	0.120274759
2020-02-13T17:50:00	0.3908	3.114		1.074200261	1.534706887	0.037225533	0.384048957	0.118367618
2020-02-13T17:55:00	0.3850	3.106		1.056953840	1.502141863	0.036044605	0.371865546	0.114612573
2020-02-13T18:00:00	0.3885	3.102		1.067235168	1.521520253	0.036745977	0.379101470	0.116842755
2020-02-13T18:05:00	0.3824	3.094		1.049069520	1.487351241	0.035511991	0.366370670	0.112918999
2020-02-13T18:10:00	0.3787	3.087		1.038277772	1.467204439	0.034790311	0.358925226	0.110624240
2020-02-13T18:15:00	0.3813	3.079		1.045929598	1.481477737	0.035301141	0.364195362	0.112248547
2020-02-13T18:20:00	0.3889	3.075		1.068378955	1.523682465	0.036824483	0.379911405	0.117092385
2020-02-13T18:25:00	0.3826	3.068		1.049624193	1.488389802	0.035549313	0.366755712	0.113037672
2020-02-13T18:30:00	0.3846	3.060		1.055772964	1.499922738	0.035964544	0.371039568	0.114357998
2020-02-13T18:35:00	0.3840	3.054		1.053909057	1.496422811	0.035838381	0.369737973	0.113956834
2020-02-13T18:40:00	0.3782	3.045		1.036580228	1.464045633	0.034677560	0.357761997	0.110265722
2020-02-13T18:45:00	0.3836	3.037		1.052850741	1.494437082	0.035766860	0.369000101	0.113729415
2020-02-13T18:50:00	0.3792	3.027		1.039687591	1.469829966	0.034884110	0.359892931	0.110922497
2020-02-13T18:55:00	0.3836	3.021		1.052682661	1.494121811	0.035755509	0.368882991	0.113693320
2020-02-13T19:00:00	0.3726	3.014		1.019823419	1.433014088	0.033575753	0.346394849	0.106762257
2020-02-13T19:05:00	0.3827	3.008		1.050139405	1.489354745	0.035584000	0.367113568	0.113147967
2020-02-13T19:10:00	0.3785	3.004		1.037563595	1.465875151	0.034742850	0.358435579	0.110473326
2020-02-13T19:15:00	0.3773	3.001		1.033903345	1.459070141	0.034500186	0.355932061	0.109701718
2020-02-13T19:20:00	0.3741	2.996		1.024566936	1.441770953	0.033885597	0.349591454	0.107747481
2020-02-13T19:25:00	0.3719	2.992		1.017903910	1.429476711	0.033450831	0.345106059	0.106365039
2020-02-13T19:30:00	0.3739	2.987		1.023800104	1.440353855	0.033835398	0.349073562	0.107587862
2020-02-13T19:35:00	0.3729	2.984		1.020726025	1.434678689	0.033634586	0.347001819	0.106949331
2020-02-13T19:40:00	0.3717	2.981		1.017350412	1.428457354	0.033414859	0.344734939	0.106250656
2020-02-13T19:45:00	0.3733	2.979		1.022051720	1.437124983	0.033721102	0.347894396	0.107224432
2020-02-13T19:50:00	0.3727	2.976		1.020172899	1.433658512	0.033598525	0.346629790	0.106834668
2020-02-13T19:55:00	0.3769	2.974		1.032929798	1.457262342	0.034435806	0.355267864	0.109497006
2020-02-13T20:00:00	0.3754	2.969		1.028370094	1.448807548	0.034135188	0.352166443	0.108541118
2020-02-13T20:05:00	0.3712	2.964		1.015729191	1.425473309	0.033309621	0.343649216	0.105916026
2020-02-13T20:10:00	0.3714	2.962		1.016243197	1.426419122	0.033342966	0.343993232	0.106022055
2020-02-13T20:15:00	0.3734	2.960		1.022440663	1.437843017	0.033746509	0.348156515	0.107305219
2020-02-13T20:20:00	0.3761	2.958		1.030419571	1.452605285	0.034270123	0.353558540	0.108970176
2020-02-13T20:25:00	0.3718	2.958		1.017485565	1.428706232	0.033423641	0.344825538	0.106278580
2020-02-13T20:30:00	0.3736	2.956		1.023083471	1.439030039	0.033788523	0.348589968	0.107438813
2020-02-13T20:35:00	0.3762	2.956		1.030762834	1.453241757	0.034292752	0.353792005	0.109042132
2020-02-13T20:40:00	0.3778	2.956		1.035449199	1.461942555	0.034602553	0.356988164	0.110027219
2020-02-13T20:45:00	0.3819	2.956		1.047565851	1.484537298	0.035410928	0.365328018	0.112597643
2020-02-13T20:50:00	0.3743	2.958		1.025135522	1.442822061	0.033922845	0.349975741	0.107865922
2020-02-13T20:55:00	0.3789	2.957		1.038770856	1.468122497	0.034823101	0.359263511	0.110728503
2020-02-13T21:00:00	0.3800	2.958		1.041960867	1.474067587	0.035035661	0.361456452	0.111404389
2020-02-13T21:05:00	0.3852	2.960		1.057617960	1.503390487	0.036089676	0.372330535	0.114755887
2020-02-13T21:10:00	0.3810	2.959		1.045064289	1.479860786	0.035243160	0.363597186	0.112064184
2020-02-13T21:15:00	0.3838	2.961		1.053297466	1.495275143	0.035797040	0.369311461	0.113825379
2020-02-13T21:20:00	0.3754	2.962		1.028211724	1.448514254	0.034124774	0.352059002	0.108508003
2020-02-13T21:25:00	0.3805	2.962		1.043622132	1.477167528	0.035146648	0.362601490	0.111757301
2020-02-13T21:30:00	0.3810	2.962		1.045024853	1.479787112	0.035240519	0.363569937	0.112055786
2020-02-13T21:35:00	0.3832	2.961		1.051477164	1.491861449	0.035674155	0.368043682	0.113434637
2020-02-13T21:40:00	0.3805	2.960		1.043666904	1.477251110	0.035149642	0.362632378	0.111766821
2020-02-13T21:45:00	0.3861	2.961		1.060206662	1.508261664	0.036265668	0.374146216	0.115315497
2020-02-13T21:50:00	0.3866	2.961		1.061603934	1.510893638	0.036360866	0.375128348	0.115618200
2020-02-13T21:55:00	0.3854	2.962		1.057964334	1.504041884	0.036113196	0.372573185	0.114830674
2020-02-13T22:00:00	0.3845	2.963		1.055508215	1.499425402	0.035946608	0.370854530	0.114300968
2020-02-13T22:05:00	0.3846	2.963		1.055613431	1.499623045	0.035953735	0.370928061	0.114323631
2020-02-13T22:10:00	0.3894	2.963		1.069931332	1.526619120	0.036931188	0.381012257	0.117431678
2020-02-13T22:15:00	0.3917	2.964		1.076829618	1.539697262	0.037407496	0.385926242	0.118946216
2020-02-13T22:20:00	0.3856	2.966		1.058597413	1.505232761	0.036156206	0.373016915	0.114967436
2020-02-13T22:25:00	0.3834	2.965		1.052177137	1.493173758	0.035721380	0.368530895	0.113584801
2020-02-13T22:30:00	0.3800	2.962		1.042178237	1.474473050	0.035050171	0.361606158	0.111450530
2020-02-13T22:35:00	0.3797	2.958		1.041093502	1.472450137	0.034977792	0.360859436	0.111220383
2020-02-13T22:40:00	0.3767	2.959		1.032261500	1.456021898	0.034391652	0.354812332	0.109356606
2020-02-13T22:45:00	0.3827	2.962		1.049926210	1.488955419	0.035569644	0.366965462	0.113102319
2020-02-13T22:50:00	0.3774	2.963		1.034262024	1.459736411	0.034523923	0.356176946	0.109777194
2020-02-13T22:55:00	0.3791	2.968		1.039432190	1.469354186	0.034867107	0.359717513	0.110868431
2020-02-13T23:00:00	0.3788	2.971		1.038346752	1.467332855	0.034794897	0.358972539	0.110638823
2020-02-13T23:05:00	0.3783	2.974		1.036963142	1.464757919	0.034702975	0.358024198	0.110346535
2020-02-13T23:10:00	0.3737	2.976		1.023343350	1.439510048	0.033805518	0.348765293	0.107492851
2020-02-13T23:15:00	0.3781	2.979		1.036280735	1.463488624	0.034657690	0.357556996	0.110202539
2020-02-13T23:20:00	0.3843	2.981		1.054818802	1.498130650	0.035899928	0.370372935	0.114152536
2020-02-13T23:25:00	0.3805	2.981		1.043636550	1.477194445	0.035147612	0.362611437	0.111760367
2020-02-13T23:30:00	0.3753	2.980		1.027949036	1.448027818	0.034107504	0.351880829	0.108453089
2020-02-13T23:35:00	0.3771	2.980		1.033425092	1.458181950	0.034468551	0.355605687	0.109601126
2020-02-13T23:40:00	0.3782	2.980		1.036809177	1.464471501	0.034692755	0.357918757	0.110314037
2020-02-13T23:45:00	0.3815	2.980		1.046437144	1.482426498	0.035335175	0.364546483	0.112356766
2020-02-13T23:50:00	0.3784	2.978		1.037318424	1.465418932	0.034726566	0.358267575	0.110421546
2020-02-13T23:55:00	0.3775	2.972		1.034742409	1.460628954	0.034555728	0.356505075	0.109878327
2020-02-14T00:00:00	0.3788	2.967		1.038423251	1.467475277	0.034799983	0.359025014	0.110654996
2020-02-14T00:05:00	0.3764	2.961		1.031375825	1.454378639	0.034333185	0.354209141	0.109170697
2020-02-14T00:10:00	0.3761	2.955		1.030288315	1.452361941	0.034261472	0.353469290	0.108942668
2020-02-14T00:15:00	0.3746	2.947		1.025916286	1.444265917	0.033974032	0.350503821	0.108028682
2020-02-14T00:20:00	0.3782	2.939		1.036760891	1.464381681	0.034689550	0.357885693	0.110303846
2020-02-14T00:25:00	0.3806	2.932		1.043712955	1.477337082	0.035152722	0.362664150	0.111776613
2020-02-14T00:30:00	0.3725	2.924		1.019658459	1.432709952	0.033565007	0.346283986	0.106728087
2020-02-14T00:35:00	0.3740	2.918		1.024248991	1.441183324	0.033864778	0.349376672	0.107681283
2020-02-14T00:40:00	0.3760	2.911		1.030028256	1.451879853	0.034244336	0.353292499	0.108888179
2020-02-14T00:45:00	0.3828	2.906		1.050375764	1.489797510	0.035599919	0.367277805	0.113198587
2020-02-14T00:50:00	0.3771	2.902		1.033520828	1.458359729	0.034474882	0.355671007	0.109621258
2020-02-14T00:55:00	0.3695	2.899		1.010607148	1.416062234	0.032978373	0.340231795	0.104862743
2020-02-14T01:00:00	0.3762	2.896		1.030749993	1.453217946	0.034291906	0.353783270	0.109039440
2020-02-14T01:05:00	0.3743	2.895		1.025183671	1.442911085	0.033926001	0.350008294	0.107875955
2020-02-14T01:10:00	0.3746	2.893		1.025887057	1.444211853	0.033972115	0.350484044	0.108022586
2020-02-14T01:15:00	0.3716	2.893		1.017023106	1.427854705	0.033393597	0.344515587	0.106183050
2020-02-14T01:20:00	0.3775	2.894		1.034453455	1.460092058	0.034536595	0.356307683	0.109817488
2020-02-14T01:25:00	0.3697	2.895		1.011245154	1.417233108	0.033019531	0.340656414	0.104993615
2020-02-14T01:30:00	0.3781	2.895		1.036452942	1.463808890	0.034669114	0.357674862	0.110238866
2020-02-14T01:35:00	0.3735	2.895		1.022532585	1.438012739	0.033752516	0.348218481	0.107324318
2020-02-14T01:40:00	0.3697	2.895		1.011264402	1.417268439	0.033020773	0.340669229	0.104997565
2020-02-14T01:45:00	0.3731	2.893		1.021548855	1.436196851	0.033688270	0.347555669	0.107120033
2020-02-14T01:50:00	0.3720	2.893		1.018065549	1.429774451	0.033461340	0.345214481	0.106398456
2020-02-14T01:55:00	0.3715	2.894		1.016675262	1.427214354	0.033371010	0.344282558	0.106111228
2020-02-14T02:00:00	0.3755	2.895		1.028737763	1.449488549	0.034159373	0.352415950	0.108618018
2020-02-14T02:05:00	0.3721	2.897		1.018383997	1.430361108	0.033482050	0.345428141	0.106464308
2020-02-14T02:10:00	0.3709	2.898		1.014898061	1.423944502	0.033255743	0.343093368	0.105744708
2020-02-14T02:15:00	0.3701	2.900		1.012607923	1.419735386	0.033107541	0.341564400	0.105273465
2020-02-14T02:20:00	0.3676	2.898		1.004916709	1.405636399	0.032612569	0.336457865	0.103699582
2020-02-14T02:25:00	0.3700	2.897		1.012221223	1.419025159	0.033082554	0.341306611	0.105194012
2020-02-14T02:30:00	0.3628	2.893		0.990696580	1.379718590	0.031708542	0.327131178	0.100825006
2020-02-14T02:35:00	0.3691	2.888		1.009436302	1.413914504	0.032902917	0.339453331	0.104622813
2020-02-14T02:40:00	0.3585	2.887		0.977636339	1.356085186	0.030890896	0.318695678	0.098225103
2020-02-14T02:45:00	0.3694	2.886		1.010248686	1.415404552	0.032955261	0.339993355	0.104789254
2020-02-14T02:50:00	0.3713	2.883		1.016047239	1.426058514	0.033330251	0.343862058	0.105981626
2020-02-14T02:55:00	0.3695	2.879		1.010761158	1.416344839	0.032988306	0.340334268	0.104894327
2020-02-14T03:00:00	0.3706	2.871		1.013863990	1.422043325	0.033188778	0.342402509	0.105531779
2020-02-14T03:05:00	0.3680	2.864		1.006175089	1.407939283	0.032693264	0.337290373	0.103956169
2020-02-14T03:10:00	0.3687	2.856		1.008381617	1.411980983	0.032835031	0.338752966	0.104406954
2020-02-14T03:15:00	0.3651	2.851		0.997375909	1.391868296	0.032131379	0.331493515	0.102169521
2020-02-14T03:20:00	0.3714	2.849		1.016385065	1.426680216	0.033352173	0.344088217	0.106051330
2020-02-14T03:25:00	0.3699	2.848		1.011998535	1.418616224	0.033068169	0.341158207	0.105148273
2020-02-14T03:30:00	0.3785	2.849		1.037499697	1.465756243	0.034738605	0.358391789	0.110459830
2020-02-14T03:35:00	0.3712	2.848		1.015805526	1.425613756	0.033314572	0.343700294	0.105931769
2020-02-14T03:40:00	0.3672	2.849		1.003918730	1.403811141	0.032548654	0.335798461	0.103496347
2020-02-14T03:45:00	0.3704	2.850		1.013322580	1.421048335	0.033153748	0.342041112	0.105420392
2020-02-14T03:50:00	0.3695	2.854		1.010731823	1.416291009	0.032986414	0.340314748	0.104888310
2020-02-14T03:55:00	0.3714	2.856		1.016230346	1.426395472	0.033342132	0.343984629	0.106019403
2020-02-14T04:00:00	0.3708	2.859		1.014539966	1.423286015	0.033232545	0.342854037	0.105670944
2020-02-14T04:05:00	0.3713	2.862		1.016106343	1.426167275	0.033334086	0.343901619	0.105993819
2020-02-14T04:10:00	0.3718	2.864		1.017672134	1.429049821	0.033435765	0.344950626	0.106317133
2020-02-14T04:15:00	0.3752	2.865		1.027605442	1.447391668	0.034084922	0.351647859	0.108381285
2020-02-14T04:20:00	0.3744	2.867		1.025285278	1.443098957	0.033932660	0.350076995	0.107897130
2020-02-14T04:25:00	0.3751	2.870		1.027444846	1.447094369	0.034074370	0.351538998	0.108347733
2020-02-14T04:30:00	0.3747	2.872		1.026319383	1.445011589	0.034000476	0.350776639	0.108112767
2020-02-14T04:35:00	0.3726	2.876		1.020112057	1.433546314	0.033594560	0.346588882	0.106822060
2020-02-14T04:40:00	0.3700	2.879		1.012097916	1.418798718	0.033074588	0.341224432	0.105168684
2020-02-14T04:45:00	0.3751	2.883		1.027422222	1.447052489	0.034072884	0.351523664	0.108343007
2020-02-14T04:50:00	0.3708	2.886		1.014632978	1.423457039	0.033238569	0.342916192	0.105690101
2020-02-14T04:55:00	0.3731	2.889		1.021584617	1.436262847	0.033690604	0.347579751	0.107127455
2020-02-14T05:00:00	0.3760	2.893		1.030017002	1.451858992	0.034243594	0.353284849	0.108885822
2020-02-14T05:05:00	0.3703	2.898		1.013043349	1.420535281	0.033135690	0.341854806	0.105362971
2020-02-14T05:10:00	0.3701	2.901		1.012513338	1.419561656	0.033101429	0.341501336	0.105254028
2020-02-14T05:15:00	0.3718	2.906		1.017673252	1.429051881	0.033435838	0.344951376	0.106317364
2020-02-14T05:20:00	0.3687	2.912		1.008154952	1.411565586	0.032820452	0.338602556	0.104360596
2020-02-14T05:25:00	0.3704	2.917		1.013320239	1.421044033	0.033153597	0.342039549	0.105419911
2020-02-14T05:30:00	0.3695	2.923		1.010692404	1.416218675	0.032983871	0.340288519	0.104880226
2020-02-14T05:35:00	0.3709	2.927		1.014956265	1.424051543	0.033259514	0.343132278	0.105756700
2020-02-14T05:40:00	0.3712	2.929		1.015923739	1.425831264	0.033322239	0.343779401	0.105956150
2020-02-14T05:45:00	0.3693	2.930		1.010000830	1.414949877	0.032939286	0.339828544	0.104738458
2020-02-14T05:50:00	0.3724	2.931		1.019354034	1.432148752	0.033545181	0.346079445	0.106665046
2020-02-14T05:55:00	0.3682	2.933		1.006840178	1.409157033	0.032735958	0.337730848	0.104091927
2020-02-14T06:00:00	0.3718	2.935		1.017697048	1.429095705	0.033437384	0.344967331	0.106322282
2020-02-14T06:05:00	0.3694	2.940		1.010277922	1.415458188	0.032957146	0.340012799	0.104795247
2020-02-14T06:10:00	0.3699	2.940		1.011845894	1.418335950	0.033058312	0.341056506	0.105116927
2020-02-14T06:15:00	0.3705	2.943		1.013712842	1.421765520	0.033178997	0.342301594	0.105500676
2020-02-14T06:20:00	0.3711	2.947		1.015578958	1.425196917	0.033299878	0.343548705	0.105885047
2020-02-14T06:25:00	0.3696	2.951		1.010854764	1.416516614	0.032994343	0.340396558	0.104913525
2020-02-14T06:30:00	0.3707	2.955		1.014220005	1.422697756	0.033211825	0.342640273	0.105605060
2020-02-14T06:35:00	0.3719	2.962		1.017881811	1.429436006	0.033449395	0.345091237	0.106360471
2020-02-14T06:40:00	0.3704	2.969		1.013459797	1.421300482	0.033162625	0.342132685	0.105448616
2020-02-14T06:45:00	0.3642	2.976		0.994914481	1.387385986	0.031975188	0.329882125	0.101672875
2020-02-14T06:50:00	0.3710	2.984		1.015095769	1.424308111	0.033268555	0.343225546	0.105785447
2020-02-14T06:55:00	0.3712	2.993		1.015763814	1.425537012	0.033311866	0.343672383	0.105923166
2020-02-14T07:00:00	0.3699	3.002		1.011938966	1.418506843	0.033064322	0.341118516	0.105136039
2020-02-14T07:05:00	0.3736	3.012		1.023081542	1.439026475	0.033788397	0.348588666	0.107438412
2020-02-14T07:10:00	0.3744	3.021		1.025242240	1.443019378	0.033929839	0.350047894	0.107888161
2020-02-14T07:15:00	0.3767	3.030		1.032176376	1.455863929	0.034386030	0.354754332	0.109338731
2020-02-14T07:20:00	0.3769	3.041		1.032841715	1.457098825	0.034429985	0.355207805	0.109478495
2020-02-14T07:25:00	0.3741	3.051		1.024553061	1.441745307	0.033884688	0.349582080	0.107744592
2020-02-14T07:30:00	0.3714	3.060		1.016248046	1.426428046	0.033343281	0.343996479	0.106023056
2020-02-14T07:35:00	0.3672	3.073		1.003724880	1.403456710	0.032536247	0.335670462	0.103456896
2020-02-14T07:40:00	0.3737	3.089		1.023266068	1.439367298	0.033800463	0.348713151	0.107476780
2020-02-14T07:45:00	0.3722	3.104		1.018849728	1.431219273	0.033512352	0.345740756	0.106560659
2020-02-14T07:50:00	0.3731	3.119		1.021311624	1.435759081	0.033672787	0.347395936	0.107070801
2020-02-14T07:55:00	0.3762	3.134		1.030639698	1.453013427	0.034284634	0.353708245	0.109016316
2020-02-14T08:00:00	0.3758	3.150		1.029515088	1.450928751	0.034210535	0.352943788	0.108780703
2020-02-14T08:05:00	0.3752	3.167		1.027793119	1.447739129	0.034097256	0.351775100	0.108420502
2020-02-14T08:10:00	0.3724	3.188		1.019494510	1.432407703	0.033554328	0.346173820	0.106694133
2020-02-14T08:15:00	0.3753	3.206		1.027931081	1.447994572	0.034106324	0.351868652	0.108449336
2020-02-14T08:20:00	0.3742	3.220		1.024714885	1.442044426	0.033895287	0.349691424	0.107778293
2020-02-14T08:25:00	0.3748	3.235		1.026576119	1.445486596	0.034017324	0.350950462	0.108166341
2020-02-14T08:30:00	0.3759	3.249		1.029928791	1.451695485	0.034237783	0.353224894	0.108867343
2020-02-14T08:35:00	0.3741	3.263		1.024324427	1.441322737	0.033869717	0.349427625	0.107696987
2020-02-14T08:40:00	0.3754	3.277		1.028275966	1.448633223	0.034128998	0.352102582	0.108521435
2020-02-14T08:45:00	0.3712	3.290		1.015788740	1.425582871	0.033313483	0.343689061	0.105928307
2020-02-14T08:50:00	0.3764	3.302		1.031397921	1.454419626	0.034334643	0.354224182	0.109175333
2020-02-14T08:55:00	0.3778	3.313		1.035342840	1.461744852	0.034595505	0.356915445	0.110004806
2020-02-14T09:00:00	0.3732	3.322		1.021680825	1.436440402	0.033696884	0.347644545	0.107147425
2020-02-14T09:05:00	0.3707	3.332		1.014268754	1.422787376	0.033214981	0.342672837	0.105615096
2020-02-14T09:10:00	0.3756	3.343		1.028988267	1.449952611	0.034175856	0.352586004	0.108670431
2020-02-14T09:15:00	0.3755	3.355		1.028758757	1.449527439	0.034160754	0.352430200	0.108622410
2020-02-14T09:20:00	0.3744	3.365		1.025244473	1.443023507	0.033929985	0.350049404	0.107888626
2020-02-14T09:25:00	0.3738	3.377		1.023520757	1.439837765	0.033817122	0.348885009	0.107529748
2020-02-14T09:30:00	0.3717	3.387		1.017309293	1.428381637	0.033412187	0.344707377	0.106242161
2020-02-14T09:35:00	0.3692	3.396		1.009889479	1.414745629	0.032932111	0.339754516	0.104715642
2020-02-14T09:40:00	0.3730	3.405		1.021037497	1.435253293	0.033654901	0.347211413	0.107013929
2020-02-14T09:45:00	0.3726	3.413		1.019910317	1.433174313	0.033581414	0.346453259	0.106780259
2020-02-14T09:50:00	0.3705	3.424		1.013693503	1.421729977	0.033177745	0.342288684	0.105496697
2020-02-14T09:55:00	0.3683	3.436		1.007167432	1.409756379	0.032756978	0.337947701	0.104158764
2020-02-14T10:00:00	0.3752	3.450		1.027588399	1.447360116	0.034083802	0.351636305	0.108377724
2020-02-14T10:05:00	0.3718	3.463		1.017615832	1.428946131	0.033432106	0.344912875	0.106305498
2020-02-14T10:10:00	0.3754	3.474		1.028267817	1.448618132	0.034128462	0.352097054	0.108519732
2020-02-14T10:15:00	0.3733	3.484		1.022184995	1.437371007	0.033729807	0.347984201	0.107252110
2020-02-14T10:20:00	0.3761	3.494		1.030439206	1.452641687	0.034271417	0.353571891	0.108974291
2020-02-14T10:25:00	0.3741	3.503		1.024359521	1.441387597	0.033872015	0.349451330	0.107704294
2020-02-14T10:30:00	0.3686	3.514		1.008084933	1.411437274	0.032815949	0.338556100	0.104346278
2020-02-14T10:35:00	0.3752	3.527		1.027727315	1.447617296	0.034092931	0.351730483	0.108406751
2020-02-14T10:40:00	0.3745	3.540		1.025528747	1.443549173	0.033948619	0.350241647	0.107947877
2020-02-14T10:45:00	0.3738	3.551		1.023627888	1.440035679	0.033824130	0.348957313	0.107552033
2020-02-14T10:50:00	0.3719	3.562		1.017837612	1.429354597	0.033446521	0.345061595	0.106351335
2020-02-14T10:55:00	0.3729	3.571		1.020720843	1.434669129	0.033634248	0.346998332	0.106948256
2020-02-14T11:00:00	0.3749	3.586		1.026888138	1.446063974	0.034037807	0.351161782	0.108231472
2020-02-14T11:05:00	0.3744	3.600		1.025286632	1.443101460	0.033932748	0.350077910	0.107897412
2020-02-14T11:10:00	0.3720	3.613		1.018301913	1.430209881	0.033476711	0.345373061	0.106447332
2020-02-14T11:15:00	0.3738	3.627		1.023576303	1.439940380	0.033820755	0.348922497	0.107541302
2020-02-14T11:20:00	0.3744	3.641		1.025260849	1.443053787	0.033931059	0.350060477	0.107892039
2020-02-14T11:25:00	0.3718	3.652		1.017677591	1.429059872	0.033436120	0.344954285	0.106318261
2020-02-14T11:30:00	0.3738	3.662		1.023550510	1.439892730	0.033819068	0.348905089	0.107535937
2020-02-14T11:35:00	0.3720	3.672		1.018059381	1.429763089	0.033460939	0.345210343	0.106397180
2020-02-14T11:40:00	0.3714	3.682		1.016454505	1.426808021	0.033356680	0.344134714	0.106065661
2020-02-14T11:45:00	0.3722	3.694		1.018740340	1.431017694	0.033505233	0.345667317	0.106538024
2020-02-14T11:50:00	0.3725	3.707		1.019529509	1.432472224	0.033556608	0.346197336	0.106701381
2020-02-14T11:55:00	0.3687	3.721		1.008338167	1.411901351	0.032832236	0.338724131	0.104398067
2020-02-14T12:00:00	0.3711	3.733		1.015422072	1.424908308	0.033289706	0.343443760	0.105852702
2020-02-14T12:05:00	0.3721	3.743		1.018606177	1.430770475	0.033496504	0.345577256	0.106510267
2020-02-14T12:10:00	0.3741	3.753		1.024477799	1.441606199	0.033879759	0.349531232	0.107728920
2020-02-14T12:15:00	0.3717	3.760		1.017192440	1.428166477	0.033404596	0.344629061	0.106218023
2020-02-14T12:20:00	0.3756	3.765		1.029039515	1.450047557	0.034179228	0.352620800	0.108681155
2020-02-14T12:25:00	0.3734	3.769		1.022359979	1.437694053	0.033741238	0.348102131	0.107288457
2020-02-14T12:30:00	0.3739	3.775		1.023746186	1.440254236	0.033831870	0.349037164	0.107576644
2020-02-14T12:35:00	0.3710	3.784		1.015261959	1.424613786	0.033279326	0.343336675	0.105819698
2020-02-14T12:40:00	0.3736	3.793		1.022932012	1.438750315	0.033778621	0.348487809	0.107407327
2020-02-14T12:45:00	0.3706	3.799		1.013847094	1.422012270	0.033187685	0.342391228	0.105528302
2020-02-14T12:50:00	0.3693	3.807		1.010142469	1.415209696	0.032948415	0.339922721	0.104767484
2020-02-14T12:55:00	0.3720	3.813		1.018121134	1.429876844	0.033464955	0.345251770	0.106409948
2020-02-14T13:00:00	0.3731	3.819		1.021602192	1.436295283	0.033691751	0.347591588	0.107131103
2020-02-14T13:05:00	0.3766	3.825		1.031945858	1.455436177	0.034370809	0.354597296	0.109290330
2020-02-14T13:10:00	0.3740	3.832		1.024075845	1.440863357	0.033853444	0.349259738	0.107645243
2020-02-14T13:15:00	0.3690	3.839		1.009299768	1.413664141	0.032894125	0.339362619	0.104594855
2020-02-14T13:20:00	0.3757	3.849		1.029234936	1.450409628	0.034192091	0.352753501	0.108722055
2020-02-14T13:25:00	0.3737	3.857		1.023153512	1.439159401	0.033793103	0.348637215	0.107453376
2020-02-14T13:30:00	0.3770	3.862		1.033195216	1.457755111	0.034453351	0.355448874	0.109552795
2020-02-14T13:35:00	0.3760	3.868		1.030104433	1.452021062	0.034249355	0.353344280	0.108904139
2020-02-14T13:40:00	0.3734	3.876		1.022230976	1.437455892	0.033732811	0.348015188	0.107261661
2020-02-14T13:45:00	0.3736	3.882		1.023019489	1.438911871	0.033784340	0.348546810	0.107425512
2020-02-14T13:50:00	0.3736	3.889		1.022911260	1.438711990	0.033777265	0.348473813	0.107403014
2020-02-14T13:55:00	0.3724	3.895		1.019513788	1.432443243	0.033555584	0.346186773	0.106698126
2020-02-14T14:00:00	0.3725	3.901		1.019704604	1.432795026	0.033568012	0.346314996	0.106737645
2020-02-14T14:05:00	0.3754	3.908		1.028262205	1.448607738	0.034128093	0.352093246	0.108518558
2020-02-14T14:10:00	0.3815	3.914		1.046622236	1.482772554	0.035347591	0.364674578	0.112396247
2020-02-14T14:15:00	0.3691	3.918		1.009496110	1.414024181	0.032906769	0.339493071	0.104635062
2020-02-14T14:20:00	0.3735	3.925		1.022560754	1.438064750	0.033754356	0.348237471	0.107330171
2020-02-14T14:25:00	0.3664	3.936		1.001475020	1.399345746	0.032392447	0.334186902	0.102999649
2020-02-14T14:30:00	0.3739	3.943		1.023838689	1.440425147	0.033837923	0.349099611	0.107595890
2020-02-14T14:35:00	0.3720	3.947		1.018048704	1.429743422	0.033460245	0.345203181	0.106394973
2020-02-14T14:40:00	0.3748	3.950		1.026609673	1.445548682	0.034019527	0.350973184	0.108173344
2020-02-14T14:45:00	0.3709	3.954		1.014838330	1.423834656	0.033251873	0.343053441	0.105732402
2020-02-14T14:50:00	0.3690	3.959		1.009035892	1.413180320	0.032877135	0.339187342	0.104540833
2020-02-14T14:55:00	0.3744	3.963		1.025389184	1.443291090	0.033939470	0.350147259	0.107918786
2020-02-14T15:00:00	0.3655	3.968		0.998609498	1.394116871	0.032209819	0.332302766	0.102418940
2020-02-14T15:05:00	0.3698	3.971		1.011708149	1.418083047	0.033049417	0.340964745	0.105088646
2020-02-14T15:10:00	0.3708	3.973		1.014595597	1.423388304	0.033236148	0.342891212	0.105682402
2020-02-14T15:15:00	0.3720	3.974		1.018079581	1.429800299	0.033462253	0.345223894	0.106401357
2020-02-14T15:20:00	0.3727	3.977		1.020364532	1.434011922	0.033611016	0.346758655	0.106874385
2020-02-14T15:25:00	0.3727	3.979		1.020256233	1.433812193	0.033603957	0.346685826	0.106851938
2020-02-14T15:30:00	0.3700	3.979		1.012064620	1.418737574	0.033072438	0.341202244	0.105161845
2020-02-14T15:35:00	0.3681	3.980		1.006558406	1.408641068	0.032717866	0.337544196	0.104034399
2020-02-14T15:40:00	0.3709	3.980		1.014843384	1.423843950	0.033252200	0.343056819	0.105733443
2020-02-14T15:45:00	0.3736	3.979		1.022813116	1.438530746	0.033770849	0.348407627	0.107382614
2020-02-14T15:50:00	0.3676	3.977		1.005031899	1.405847138	0.032619951	0.336534023	0.103723054
2020-02-14T15:55:00	0.3720	3.976		1.018110457	1.429857177	0.033464261	0.345244608	0.106407741
2020-02-14T16:00:00	0.3720	3.976		1.018301337	1.430208819	0.033476674	0.345372674	0.106447212
2020-02-14T16:05:00	0.3713	3.974		1.016089795	1.426136824	0.033333012	0.343890543	0.105990405
2020-02-14T16:10:00	0.3755	3.970		1.028528999	1.449101857	0.034145639	0.352274266	0.108574350
2020-02-14T16:15:00	0.3720	3.967		1.018251415	1.430116848	0.033473427	0.345339177	0.106436888
2020-02-14T16:20:00	0.3719	3.961		1.017835782	1.429351225	0.033446402	0.345060367	0.106350956
2020-02-14T16:25:00	0.3736	3.956		1.023102733	1.439065614	0.033789783	0.348602961	0.107442818
2020-02-14T16:30:00	0.3763	3.951		1.031048831	1.453772135	0.034311613	0.353986589	0.109102105
2020-02-14T16:35:00	0.3730	3.945		1.021076446	1.435325153	0.033657442	0.347237627	0.107022009
2020-02-14T16:40:00	0.3690	3.941		1.009281495	1.413630635	0.032892948	0.339350480	0.104591114
2020-02-14T16:45:00	0.3749	3.937		1.026820460	1.445938730	0.034033364	0.351115939	0.108217343
2020-02-14T16:50:00	0.3755	3.932		1.028495697	1.449040176	0.034143449	0.352251668	0.108567385
2020-02-14T16:55:00	0.3773	3.925		1.034047455	1.459337820	0.034509722	0.356030439	0.109732039
2020-02-14T17:00:00	0.3738	3.920		1.023484504	1.439770795	0.033814750	0.348860543	0.107522208
2020-02-14T17:05:00	0.3735	3.915		1.022770492	1.438452036	0.033768063	0.348378884	0.107373756
2020-02-14T17:10:00	0.3770	3.908		1.033103289	1.457584434	0.034447274	0.355386176	0.109533471
2020-02-14T17:15:00	0.3778	3.901		1.035372105	1.461799249	0.034597444	0.356935453	0.110010973
2020-02-14T17:20:00	0.3777	3.894		1.035256192	1.461583795	0.034589763	0.356856208	0.109986549
2020-02-14T17:25:00	0.3746	3.889		1.025891184	1.444219487	0.033972385	0.350486836	0.108023447
2020-02-14T17:30:00	0.3792	3.883		1.039790300	1.470021318	0.034890949	0.359963489	0.110944243
2020-02-14T17:35:00	0.3794	3.877		1.040269890	1.470914953	0.034922894	0.360293058	0.111045819
2020-02-14T17:40:00	0.3798	3.872		1.041344656	1.472918411	0.034994543	0.361032250	0.111273646
2020-02-14T17:45:00	0.3822	3.867		1.048662461	1.486589259	0.035484616	0.366088245	0.112831952
2020-02-14T17:50:00	0.3761	3.861		1.030385575	1.452542256	0.034267882	0.353535422	0.108963051
2020-02-14T17:55:00	0.3808	3.856		1.044567323	1.478932463	0.035209885	0.363253894	0.111958378
2020-02-14T18:00:00	0.3879	3.851		1.065513233	1.518267528	0.036627969	0.377884009	0.116467522
2020-02-14T18:05:00	0.3834	3.843		1.052060976	1.492955946	0.035713541	0.368450016	0.113559873
2020-02-14T18:10:00	0.3841	3.838		1.054319681	1.497193565	0.035866153	0.370024493	0.114045143
2020-02-14T18:15:00	0.3789	3.832		1.038748056	1.468080042	0.034821584	0.359247865	0.110723681
2020-02-14T18:20:00	0.3868	3.826		1.062092376	1.511814144	0.036394177	0.375472018	0.115724123
2020-02-14T18:25:00	0.3842	3.820		1.054566863	1.497657612	0.035882877	0.370197030	0.114098320
2020-02-14T18:30:00	0.3834	3.814		1.052077383	1.492986711	0.035714648	0.368461439	0.113563394
2020-02-14T18:35:00	0.3850	3.809		1.057005423	1.502238830	0.036048105	0.371901651	0.114623701
2020-02-14T18:40:00	0.3825	3.804		1.049470923	1.488102790	0.035538998	0.366649291	0.113004872
2020-02-14T18:45:00	0.3801	3.799		1.042220598	1.474552071	0.035053000	0.361635336	0.111459523
2020-02-14T18:50:00	0.3831	3.793		1.051318648	1.491564328	0.035663465	0.367933399	0.113400647
2020-02-14T18:55:00	0.3848	3.789		1.056247564	1.500814451	0.035996709	0.371371406	0.114460274
2020-02-14T19:00:00	0.3849	3.784		1.056725301	1.501712282	0.036029103	0.371705610	0.114563279
2020-02-14T19:05:00	0.3840	3.780		1.053940378	1.496481597	0.035840499	0.369759824	0.113963569
2020-02-14T19:10:00	0.3845	3.776		1.055308324	1.499049949	0.035933070	0.370714857	0.114257919
2020-02-14T19:15:00	0.3874	3.771		1.064082503	1.515567090	0.036530084	0.376874147	0.116156272
2020-02-14T19:20:00	0.3831	3.766		1.051219580	1.491378650	0.035656786	0.367864485	0.113379407
2020-02-14T19:25:00	0.3843	3.760		1.054962204	1.498399928	0.035909635	0.370473080	0.114183401
2020-02-14T19:30:00	0.3852	3.755		1.057515848	1.503198478	0.036082744	0.372259020	0.114733845
2020-02-14T19:35:00	0.3846	3.750		1.055621326	1.499637874	0.035954270	0.370933578	0.114325331
2020-02-14T19:40:00	0.3882	3.744		1.066466285	1.520067480	0.036693257	0.378557569	0.116675119
2020-02-14T19:45:00	0.3871	3.739		1.063095587	1.513705497	0.036462651	0.376178448	0.115941851
2020-02-14T19:50:00	0.3889	3.733		1.068306676	1.523545790	0.036819519	0.379860194	0.117076601
2020-02-14T19:55:00	0.3864	3.727		1.061088327	1.509922192	0.036325720	0.374765760	0.115506447
2020-02-14T20:00:00	0.3841	3.720		1.054154481	1.496883461	0.035854979	0.369909208	0.114009610
2020-02-14T20:05:00	0.3867	3.714		1.062042666	1.511720450	0.036390786	0.375437033	0.115713340
2020-02-14T20:10:00	0.3866	3.709		1.061631308	1.510945220	0.036362732	0.375147603	0.115624135
2020-02-14T20:15:00	0.3888	3.703		1.068027293	1.523017547	0.036800336	0.379662281	0.117015602
2020-02-14T20:20:00	0.3855	3.699		1.058437918	1.504932701	0.036145368	0.372905096	0.114932972
2020-02-14T20:25:00	0.3839	3.692		1.053577443	1.495800484	0.035815962	0.369506677	0.113885547
2020-02-14T20:30:00	0.3847	3.687		1.056131917	1.500597145	0.035988869	0.371290530	0.114435347
2020-02-14T20:35:00	0.3890	3.683		1.068750081	1.524384314	0.036849977	0.380174419	0.117173448
2020-02-14T20:40:00	0.3846	3.678		1.055604630	1.499606511	0.035953139	0.370921910	0.114321735
2020-02-14T20:45:00	0.3880	3.672		1.065857897	1.518918363	0.036651572	0.378127517	0.116542573
2020-02-14T20:50:00	0.3845	3.666		1.055373902	1.499173120	0.035937511	0.370760677	0.114272041
2020-02-14T20:55:00	0.3849	3.662		1.056741388	1.501742519	0.036030194	0.371716867	0.114566748
2020-02-14T21:00:00	0.3867	3.656		1.061960216	1.511565055	0.036385162	0.375379012	0.115695457
2020-02-14T21:05:00	0.3863	3.651		1.060660200	1.509115764	0.036296553	0.374464843	0.115413701
2020-02-14T21:10:00	0.3836	3.647		1.052835379	1.494408265	0.035765822	0.368989397	0.113726116
2020-02-14T21:15:00	0.3841	3.643		1.054203679	1.496975809	0.035858307	0.369943538	0.114020191
2020-02-14T21:20:00	0.3863	3.639		1.060610775	1.509022677	0.036293186	0.374430112	0.115402997
2020-02-14T21:25:00	0.3853	3.636		1.057828386	1.503786205	0.036103964	0.372477937	0.114801318
2020-02-14T21:30:00	0.3816	3.633		1.046730231	1.482974482	0.035354836	0.364749329	0.112419286
2020-02-14T21:35:00	0.3843	3.630		1.054928806	1.498337213	0.035907374	0.370449755	0.114176212
2020-02-14T21:40:00	0.3879	3.628		1.065479617	1.518204055	0.036625668	0.377860263	0.116460203
2020-02-14T21:45:00	0.3852	3.625		1.057367160	1.502918903	0.036072652	0.372154896	0.114701753
2020-02-14T21:50:00	0.3873	3.624		1.063769517	1.514976609	0.036508691	0.376653436	0.116088247
2020-02-14T21:55:00	0.3839	3.622		1.053577141	1.495799916	0.035815942	0.369506466	0.113885482
2020-02-14T22:00:00	0.3837	3.620		1.053164966	1.495026551	0.035788087	0.369219095	0.113796911
2020-02-14T22:05:00	0.3898	3.618		1.071140609	1.528908364	0.037014432	0.381871070	0.117696373
2020-02-14T22:10:00	0.3860	3.615		1.059806772	1.507508763	0.036238450	0.373865408	0.115228950
2020-02-14T22:15:00	0.3884	3.612		1.066823169	1.520741725	0.036717722	0.378809969	0.116752912
2020-02-14T22:20:00	0.3895	3.610		1.070282571	1.527283891	0.036955355	0.381261588	0.117508524
2020-02-14T22:25:00	0.3910	3.609		1.074625132	1.535512809	0.037254901	0.384351946	0.118461003
2020-02-14T22:30:00	0.3900	3.607		1.071582316	1.529744901	0.037044865	0.382185041	0.117793141
2020-02-14T22:35:00	0.3893	3.604		1.069719992	1.526219187	0.036916651	0.380862280	0.117385454
2020-02-14T22:40:00	0.3907	3.600		1.073767789	1.533886726	0.037195652	0.383740687	0.118272607
2020-02-14T22:45:00	0.3936	3.596		1.082235497	1.549978632	0.037783211	0.389802428	0.120140894
2020-02-14T22:50:00	0.3919	3.592		1.077427866	1.540833649	0.037448969	0.386354109	0.119078089
2020-02-14T22:55:00	0.3919	3.588		1.077339026	1.540664874	0.037442809	0.386290554	0.119058500
2020-02-14T23:00:00	0.3899	3.584		1.071344047	1.529293625	0.037028447	0.382015658	0.117740936
2020-02-14T23:05:00	0.3940	3.579		1.083354211	1.552109882	0.037861233	0.390607364	0.120388983
2020-02-14T23:10:00	0.3933	3.575		1.081496973	1.548572350	0.037731756	0.389271568	0.119977278
2020-02-14T23:15:00	0.3901	3.571		1.071963639	1.530467233	0.037071149	0.382456210	0.117876718
2020-02-14T23:20:00	0.3910	3.566		1.074533124	1.535338268	0.037248540	0.384286321	0.118440776
2020-02-14T23:25:00	0.3912	3.560		1.075330024	1.536850284	0.037303655	0.384854931	0.118616027
2020-02-14T23:30:00	0.3928	3.556		1.079962426	1.545652013	0.037624967	0.388169850	0.119637718
2020-02-14T23:35:00	0.3951	3.552		1.086651585	1.558398833	0.038091739	0.392985450	0.121121932
2020-02-14T23:40:00	0.3962	3.549		1.090095114	1.564977953	0.038333322	0.395477820	0.121890105
2020-02-14T23:45:00	0.3970	3.545		1.092359769	1.569311110	0.038492681	0.397121889	0.122396823
2020-02-14T23:50:00	0.3958	3.542		1.088740832	1.562389105	0.038238207	0.394496530	0.121587662
2020-02-14T23:55:00	0.3948	3.538		1.085707962	1.556598006	0.038025692	0.392304055	0.120911920
2020-02-15T00:00:00	0.3951	3.533		1.086797263	1.558676925	0.038101941	0.393090706	0.121154373
2020-02-15T00:05:00	0.3905	3.528		1.073142234	1.532700720	0.037152456	0.383295039	0.118135254
2020-02-15T00:10:00	0.3959	3.521		1.088975042	1.562836692	0.038254646	0.394666134	0.121639936
2020-02-15T00:15:00	0.3923	3.516		1.078573289	1.543010392	0.037528448	0.387174076	0.119330810
2020-02-15T00:20:00	0.3979	3.512		1.094974076	1.574319568	0.038677117	0.399024685	0.122983283
2020-02-15T00:25:00	0.3960	3.507		1.089297835	1.563453654	0.038277310	0.394899955	0.121712001
2020-02-15T00:30:00	0.3947	3.502		1.085676338	1.556537669	0.038023480	0.392281230	0.120904885
2020-02-15T00:35:00	0.3965	3.497		1.090886048	1.566490741	0.038388935	0.396051567	0.122066939
2020-02-15T00:40:00	0.3988	3.492		1.097558365	1.579277141	0.038859935	0.400910789	0.123564599
2020-02-15T00:45:00	0.3970	3.485		1.092473680	1.569529199	0.038500706	0.397204689	0.122422343
2020-02-15T00:50:00	0.4001	3.478		1.101491850	1.586835593	0.039139154	0.403791436	0.124452442
2020-02-15T00:55:00	0.3978	3.471		1.094648609	1.573695676	0.038654128	0.398787512	0.122910184
2020-02-15T01:00:00	0.4000	3.464		1.101021675	1.585931317	0.039105718	0.403446482	0.124346124
2020-02-15T01:05:00	0.3993	3.457		1.099171993	1.582375987	0.038974339	0.402091074	0.123928374
2020-02-15T01:10:00	0.3945	3.450		1.084966928	1.555184419	0.037973871	0.391769428	0.120747142
2020-02-15T01:15:00	0.4008	3.445		1.103397360	1.590502649	0.039274832	0.405191198	0.124883862
2020-02-15T01:20:00	0.3980	3.442		1.095381798	1.575101284	0.038705927	0.399321914	0.123074892
2020-02-15T01:25:00	0.3970	3.435		1.092353574	1.569299249	0.038492244	0.397117386	0.122395435
2020-02-15T01:30:00	0.3966	3.428		1.091088557	1.566878171	0.038403182	0.396198545	0.122112239
2020-02-15T01:35:00	0.3984	3.420		1.096585569	1.577410203	0.038791059	0.400200207	0.123345590
2020-02-15T01:40:00	0.3990	3.409		1.098259530	1.580623358	0.038909623	0.401423409	0.123722593
2020-02-15T01:45:00	0.3993	3.398		1.099052072	1.582145599	0.038965830	0.402003289	0.123901318
2020-02-15T01:50:00	0.3937	3.388		1.082489289	1.550462019	0.037800903	0.389984952	0.120197150
2020-02-15T01:55:00	0.3975	3.377		1.093880636	1.572223949	0.038599914	0.398228198	0.122737798
2020-02-15T02:00:00	0.3950	3.367		1.086436461	1.557988209	0.038076676	0.392830048	0.121074036
2020-02-15T02:05:00	0.3991	3.358		1.098404819	1.580902368	0.038919923	0.401529676	0.123755346
2020-02-15T02:10:00	0.3976	3.351		1.094203063	1.572841771	0.038622670	0.398462967	0.122810156
2020-02-15T02:15:00	0.3952	3.343		1.087053888	1.559166861	0.038119918	0.393276162	0.121211533
2020-02-15T02:20:00	0.3986	3.332		1.096964692	1.578137684	0.038817894	0.400477052	0.123430917
2020-02-15T02:25:00	0.3996	3.321		1.100106508	1.584171824	0.039040684	0.402775538	0.124139332
2020-02-15T02:30:00	0.3961	3.311		1.089731487	1.564282666	0.038307770	0.395214204	0.121808856
2020-02-15T02:35:00	0.3938	3.300		1.082869647	1.551186594	0.037827427	0.390258594	0.120281489
2020-02-15T02:40:00	0.4007	3.288		1.103069433	1.589871315	0.039251463	0.404950108	0.124809556
2020-02-15T02:45:00	0.3983	3.276		1.096228675	1.576725507	0.038765808	0.399939695	0.123265298
2020-02-15T02:50:00	0.3981	3.262		1.095552545	1.575428702	0.038717996	0.399446426	0.123113268
2020-02-15T02:55:00	0.3969	3.248		1.091936273	1.568500415	0.038462851	0.396814146	0.122301973
2020-02-15T03:00:00	0.3922	3.234		1.078297513	1.542486194	0.037509303	0.386976566	0.119269936
2020-02-15T03:05:00	0.3974	3.220		1.093523520	1.571539779	0.038574719	0.397968266	0.122657685
2020-02-15T03:10:00	0.4023	3.206		1.107817279	1.599022375	0.039590587	0.408448786	0.125887883
2020-02-15T03:15:00	0.3969	3.191		1.092170310	1.568948408	0.038479334	0.396984197	0.122354385
2020-02-15T03:20:00	0.3982	3.175		1.095903303	1.576101393	0.038742795	0.399702277	0.123192124
2020-02-15T03:25:00	0.3921	3.160		1.077853387	1.541642153	0.037478484	0.386658607	0.119171938
2020-02-15T03:30:00	0.3978	3.145		1.094550835	1.573508271	0.038647223	0.398716278	0.122888229
2020-02-15T03:35:00	0.3992	3.128		1.098869091	1.581794090	0.038952849	0.401869364	0.123860041
2020-02-15T03:40:00	0.3983	3.113		1.096137126	1.576549892	0.038759332	0.399872885	0.123244707
2020-02-15T03:45:00	0.3963	3.097		1.090168195	1.565117707	0.038338459	0.395530813	0.121906438
2020-02-15T03:50:00	0.3971	3.082		1.092726872	1.570013995	0.038518549	0.397388765	0.122479077
2020-02-15T03:55:00	0.3960	3.065		1.089402527	1.563653777	0.038284663	0.394975808	0.121735380
2020-02-15T04:00:00	0.3993	3.051		1.099014359	1.582073149	0.038963155	0.401975684	0.123892810
2020-02-15T04:05:00	0.4009	3.036		1.103704565	1.591094186	0.039296731	0.405417129	0.124953496
2020-02-15T04:10:00	0.3949	3.022		1.086065089	1.557279450	0.038050681	0.392561858	0.120991377
2020-02-15T04:15:00	0.3938	3.007		1.082819075	1.551090247	0.037823900	0.390222204	0.120270273
2020-02-15T04:20:00	0.3957	2.993		1.088409930	1.561756826	0.038214987	0.394256978	0.121513830
2020-02-15T04:25:00	0.3945	2.979		1.084871104	1.555001664	0.037967173	0.391700325	0.120725844
2020-02-15T04:30:00	0.3990	2.965		1.098101863	1.580320599	0.038898447	0.401308106	0.123687056
2020-02-15T04:35:00	0.3963	2.953		1.090159831	1.565101711	0.038337871	0.395524748	0.121904568
2020-02-15T04:40:00	0.3948	2.939		1.085738952	1.556657135	0.038027860	0.392326422	0.120918814
2020-02-15T04:45:00	0.3983	2.925		1.096029801	1.576344023	0.038751741	0.399794570	0.123220569
2020-02-15T04:50:00	0.3966	2.913		1.091026619	1.566759670	0.038398824	0.396153588	0.122098383
2020-02-15T04:55:00	0.3960	2.899		1.089256004	1.563373695	0.038274373	0.394869649	0.121702661
2020-02-15T05:00:00	0.3914	2.887		1.075692358	1.537537972	0.037328730	0.385113626	0.118695760
2020-02-15T05:05:00	0.3947	2.876		1.085418063	1.556044933	0.038005414	0.392094854	0.120847442
2020-02-15T05:10:00	0.3958	2.864		1.088651592	1.562218576	0.038231944	0.394431918	0.121567748
2020-02-15T05:15:00	0.3942	2.851		1.084229172	1.553777618	0.037922320	0.391237581	0.120583222
2020-02-15T05:20:00	0.3965	2.838		1.090995034	1.566699242	0.038396602	0.396130663	0.122091318
2020-02-15T05:25:00	0.3955	2.828		1.088047096	1.561063655	0.038189536	0.393994404	0.121432902
2020-02-15T05:30:00	0.3950	2.816		1.086569739	1.558242602	0.038086008	0.392926322	0.121103708
2020-02-15T05:35:00	0.3925	2.804		1.079196485	1.544195244	0.037571731	0.387620619	0.119468439
2020-02-15T05:40:00	0.3950	2.792		1.086559200	1.558222484	0.038085270	0.392918708	0.121101362
2020-02-15T05:45:00	0.3965	2.781		1.090968712	1.566648885	0.038394750	0.396111560	0.122085430
2020-02-15T05:50:00	0.3948	2.769		1.085959682	1.557078307	0.038043304	0.392485756	0.120967922
2020-02-15T05:55:00	0.3903	2.758		1.072681080	1.531826652	0.037120630	0.382966701	0.118034057
2020-02-15T06:00:00	0.3942	2.749		1.084181719	1.553687150	0.037919005	0.391203387	0.120572683
2020-02-15T06:05:00	0.3933	2.739		1.081523953	1.548623716	0.037733635	0.389290955	0.119983253
2020-02-15T06:10:00	0.3943	2.728		1.084465795	1.554228768	0.037938850	0.391408117	0.120635783
2020-02-15T06:15:00	0.3946	2.719		1.085344267	1.555904158	0.038000254	0.392041610	0.120831032
2020-02-15T06:20:00	0.3946	2.709		1.085338996	1.555894103	0.037999885	0.392037807	0.120829860
2020-02-15T06:25:00	0.3957	2.702		1.088572584	1.562067607	0.038226400	0.394374719	0.121550118
2020-02-15T06:30:00	0.3931	2.694		1.080907906	1.547451046	0.037690742	0.388848439	0.119846865
2020-02-15T06:35:00	0.3963	2.685		1.090327684	1.565422717	0.038349670	0.395646477	0.121942087
2020-02-15T06:40:00	0.3968	2.677		1.091793233	1.568226635	0.038452779	0.396710233	0.122269947
2020-02-15T06:45:00	0.3963	2.671		1.090317154	1.565402578	0.038348930	0.395638840	0.121939733
2020-02-15T06:50:00	0.3949	2.665		1.086190940	1.557519620	0.038059489	0.392652731	0.121019385
2020-02-15T06:55:00	0.3931	2.657		1.080881523	1.547400834	0.037688906	0.388829494	0.119841026
2020-02-15T07:00:00	0.3961	2.650		1.089712890	1.564247110	0.038306464	0.395200725	0.121804701
2020-02-15T07:05:00	0.3940	2.645		1.083523864	1.552433194	0.037873073	0.390729516	0.120426632
2020-02-15T07:10:00	0.3947	2.639		1.085580829	1.556355450	0.038016799	0.392212303	0.120883641
2020-02-15T07:15:00	0.3898	2.638		1.071119120	1.528867671	0.037012952	0.381855799	0.117691666
2020-02-15T07:20:00	0.3941	2.635		1.083802710	1.552964659	0.037892539	0.390930336	0.120488526
2020-02-15T07:25:00	0.3957	2.636		1.088509377	1.561946835	0.038221965	0.394328962	0.121536016
2020-02-15T07:30:00	0.3982	2.638		1.095856277	1.576011199	0.038739470	0.399667970	0.123181550
2020-02-15T07:35:00	0.3967	2.641		1.091441209	1.567552943	0.038427998	0.396454570	0.122191149
2020-02-15T07:40:00	0.3988	2.644		1.097608433	1.579373254	0.038863482	0.400947381	0.123575877
2020-02-15T07:45:00	0.3958	2.649		1.088782635	1.562468988	0.038241141	0.394526799	0.121596991
2020-02-15T07:50:00	0.3939	2.653		1.083181714	1.551781181	0.037849197	0.390483187	0.120350711
2020-02-15T07:55:00	0.3947	2.660		1.085533391	1.556264948	0.038013480	0.392178071	0.120873090
2020-02-15T08:00:00	0.3950	2.667		1.086411646	1.557940846	0.038074939	0.392812124	0.121068512
2020-02-15T08:05:00	0.3974	2.674		1.093468110	1.571433635	0.038570811	0.397927944	0.122645257
2020-02-15T08:10:00	0.3979	2.680		1.094932599	1.574240054	0.038674187	0.398994456	0.122973966
2020-02-15T08:15:00	0.3977	2.687		1.094339499	1.573103233	0.038632301	0.398562333	0.122840782
2020-02-15T08:20:00	0.3973	2.692		1.093158316	1.570840243	0.038548963	0.397702548	0.122575788
2020-02-15T08:25:00	0.4007	2.699		1.103138277	1.590003845	0.039256368	0.405000714	0.124825154
2020-02-15T08:30:00	0.3996	2.709		1.099905018	1.583784551	0.039026374	0.402627904	0.124093830
2020-02-15T08:35:00	0.3995	2.721		1.099606190	1.583210266	0.039005156	0.402409007	0.124026364
2020-02-15T08:40:00	0.3989	2.731		1.097839071	1.579816030	0.038879823	0.401115967	0.123627837
2020-02-15T08:45:00	0.4021	2.740		1.107222213	1.597874216	0.039547991	0.408009330	0.125752438
2020-02-15T08:50:00	0.3971	2.750		1.092538661	1.569653615	0.038505285	0.397251927	0.122436902
2020-02-15T08:55:00	0.3984	2.770		1.096354531	1.576966946	0.038774712	0.400031551	0.123293609
2020-02-15T09:00:00	0.3978	2.790		1.094586090	1.573575843	0.038649713	0.398741962	0.122896145
2020-02-15T09:05:00	0.3992	2.805		1.098693818	1.581457421	0.038940417	0.401741105	0.123820510
2020-02-15T09:10:00	0.3950	2.822		1.086337867	1.557800031	0.038069774	0.392758837	0.121052088
2020-02-15T09:15:00	0.3967	2.840		1.091335933	1.567351492	0.038420589	0.396378129	0.122167589
2020-02-15T09:20:00	0.3956	2.860		1.088093873	1.561153012	0.038192817	0.394028250	0.121443333
2020-02-15T09:25:00	0.3951	2.886		1.086616532	1.558331922	0.038089284	0.392960126	0.121114127
2020-02-15T09:30:00	0.3952	2.912		1.086905718	1.558883973	0.038109538	0.393169077	0.121178528
2020-02-15T09:35:00	0.3988	2.946		1.097487537	1.579141181	0.038854918	0.400859028	0.123548646
2020-02-15T09:40:00	0.3944	2.977		1.084538971	1.554368299	0.037943962	0.391460864	0.120652040
2020-02-15T09:45:00	0.3999	3.002		1.100706834	1.585325912	0.039083337	0.403215587	0.124274960
2020-02-15T09:50:00	0.3965	3.032		1.090710753	1.566155408	0.038376606	0.395924366	0.122027735
2020-02-15T09:55:00	0.3944	3.068		1.084817752	1.554899917	0.037963444	0.391661853	0.120713987
2020-02-15T10:00:00	0.3991	3.106		1.098636013	1.581346394	0.038936318	0.401698810	0.123807475
2020-02-15T10:05:00	0.3979	3.138		1.095061289	1.574486765	0.038683278	0.399088253	0.123002875
2020-02-15T10:10:00	0.4002	3.168		1.101766121	1.587363191	0.039158666	0.403992739	0.124514486
2020-02-15T10:15:00	0.3939	3.196		1.083190393	1.551797717	0.037849802	0.390489434	0.120352636
2020-02-15T10:20:00	0.3994	3.227		1.099319080	1.582658583	0.038984777	0.402198760	0.123961564
2020-02-15T10:25:00	0.3977	3.257		1.094275443	1.572980476	0.038627779	0.398515679	0.122826403
2020-02-15T10:30:00	0.3940	3.289		1.083630866	1.552637124	0.037880542	0.390806570	0.120450380
2020-02-15T10:35:00	0.3967	3.321		1.091530059	1.567722969	0.038434252	0.396519089	0.122211034
2020-02-15T10:40:00	0.3957	3.348		1.088538180	1.562001870	0.038223986	0.394349813	0.121542442
2020-02-15T10:45:00	0.3991	3.375		1.098484546	1.581055484	0.038925576	0.401587997	0.123773321
2020-02-15T10:50:00	0.3948	3.405		1.085789157	1.556752926	0.038031373	0.392362659	0.120929982
2020-02-15T10:55:00	0.3974	3.429		1.093390423	1.571284820	0.038565331	0.397871414	0.122627834
2020-02-15T11:00:00	0.3959	3.457		1.089222839	1.563310303	0.038272044	0.394845623	0.121695256
2020-02-15T11:05:00	0.3947	3.490		1.085640343	1.556468994	0.038020962	0.392255253	0.120896878
2020-02-15T11:10:00	0.3962	3.527		1.090006501	1.564808506	0.038327095	0.395413569	0.121870302
2020-02-15T11:15:00	0.3933	3.561		1.081415630	1.548417493	0.037726091	0.389213124	0.119959265
2020-02-15T11:20:00	0.3949	3.593		1.086080566	1.557308985	0.038051764	0.392573033	0.120994821
2020-02-15T11:25:00	0.3911	3.617		1.074825261	1.535892488	0.037268739	0.384494712	0.118505005
2020-02-15T11:30:00	0.3951	3.636		1.086864797	1.558805852	0.038106672	0.393139506	0.121169414
2020-02-15T11:35:00	0.3952	3.658		1.087109647	1.559273321	0.038123824	0.393316464	0.121223954
2020-02-15T11:40:00	0.3947	3.682		1.085587634	1.556368434	0.038017275	0.392217215	0.120885155
2020-02-15T11:45:00	0.3909	3.706		1.074331042	1.534954940	0.037234571	0.384142206	0.118396359
2020-02-15T11:50:00	0.3900	3.726		1.071622712	1.529821416	0.037047649	0.382213763	0.117801994
2020-02-15T11:55:00	0.3965	3.741		1.090737376	1.566206335	0.038378478	0.395943683	0.122033688
2020-02-15T12:00:00	0.3912	3.761		1.075362929	1.536912729	0.037305932	0.384878419	0.118623267
2020-02-15T12:05:00	0.3916	3.784		1.076493991	1.539059882	0.037384241	0.385686321	0.118872270
2020-02-15T12:10:00	0.3925	3.810		1.079099897	1.544011582	0.037565020	0.387551391	0.119447103
2020-02-15T12:15:00	0.3899	3.832		1.071373869	1.529350104	0.037030501	0.382036856	0.117747469
2020-02-15T12:20:00	0.3912	3.849		1.075164028	1.536535276	0.037292170	0.384736448	0.118579510
2020-02-15T12:25:00	0.3943	3.860		1.084257370	1.553831378	0.037924289	0.391257901	0.120589485
2020-02-15T12:30:00	0.3901	3.875		1.072111019	1.530746449	0.037081311	0.382561046	0.117909030
2020-02-15T12:35:00	0.3904	3.891		1.072947547	1.532331686	0.037139018	0.383156404	0.118092525
2020-02-15T12:40:00	0.3926	3.905		1.079391758	1.544566586	0.037585299	0.387760600	0.119511583
2020-02-15T12:45:00	0.3899	3.919		1.071370756	1.529344209	0.037030287	0.382034643	0.117746787
2020-02-15T12:50:00	0.3876	3.930		1.064518836	1.516390436	0.036559921	0.377181962	0.116251144
2020-02-15T12:55:00	0.3910	3.940		1.074520649	1.535314602	0.037247678	0.384277423	0.118438034
2020-02-15T13:00:00	0.3874	3.950		1.064123138	1.515643759	0.036532862	0.376902807	0.116165106
2020-02-15T13:05:00	0.3893	3.964		1.069693809	1.526169641	0.036914850	0.380843701	0.117379727
2020-02-15T13:10:00	0.3894	3.974		1.069939635	1.526634834	0.036931759	0.381018150	0.117433494
2020-02-15T13:15:00	0.3853	3.983		1.057752672	1.503643815	0.036098822	0.372424896	0.114784970
2020-02-15T13:20:00	0.3858	3.992		1.059184748	1.506337942	0.036196135	0.373428855	0.115094400
2020-02-15T13:25:00	0.3888	4.003		1.068016206	1.522996586	0.036799575	0.379654429	0.117013182
2020-02-15T13:30:00	0.3862	4.016		1.060566450	1.508939197	0.036290167	0.374398967	0.115393398
2020-02-15T13:35:00	0.3864	4.027		1.061109027	1.509961189	0.036327131	0.374780313	0.115510932
2020-02-15T13:40:00	0.3839	4.038		1.053647216	1.495931416	0.035820678	0.369555336	0.113900544
2020-02-15T13:45:00	0.3814	4.050		1.046172319	1.481931426	0.035317414	0.364363252	0.112300293
2020-02-15T13:50:00	0.3855	4.064		1.058292484	1.504659115	0.036135486	0.372803150	0.114901552
2020-02-15T13:55:00	0.3785	4.077		1.037442783	1.465650333	0.034734825	0.358352786	0.110447809
2020-02-15T14:00:00	0.3827	4.090		1.050181821	1.489434197	0.035586856	0.367143038	0.113157050
2020-02-15T14:05:00	0.3844	4.105		1.055177465	1.498804180	0.035924209	0.370623437	0.114229743
2020-02-15T14:10:00	0.3833	4.119		1.051863310	1.492585336	0.035700203	0.368312411	0.113517462
2020-02-15T14:15:00	0.3846	4.134		1.055670775	1.499730766	0.035957620	0.370968140	0.114335983
2020-02-15T14:20:00	0.3811	4.146		1.045227249	1.480165244	0.035254075	0.363709794	0.112098891
2020-02-15T14:25:00	0.3788	4.156		1.038333158	1.467307548	0.034793993	0.358963215	0.110635949
2020-02-15T14:30:00	0.3846	4.162		1.055817507	1.500006420	0.035967562	0.371070705	0.114367595
2020-02-15T14:35:00	0.3803	4.167		1.042995178	1.475997309	0.035104738	0.362169115	0.111624039
2020-02-15T14:40:00	0.3798	4.169		1.041457403	1.473128646	0.035002064	0.361109844	0.111297561
2020-02-15T14:45:00	0.3800	4.170		1.042002421	1.474145095	0.035038434	0.361485068	0.111413209
2020-02-15T14:50:00	0.3802	4.169		1.042547369	1.475161702	0.035074821	0.361860466	0.111528910
2020-02-15T14:55:00	0.3779	4.169		1.035648913	1.462313822	0.034615791	0.357124736	0.110069312
2020-02-15T15:00:00	0.3785	4.167		1.037684202	1.466099600	0.034750862	0.358518241	0.110498804
2020-02-15T15:05:00	0.3772	4.165		1.033760141	1.458804166	0.034490712	0.355834317	0.109671592
2020-02-15T15:10:00	0.3805	4.162		1.043536866	1.477008355	0.035140947	0.362542669	0.111739172
2020-02-15T15:15:00	0.3759	4.159		1.029782174	1.451423735	0.034228125	0.353125256	0.108836633
2020-02-15T15:20:00	0.3830	4.158		1.050866368	1.490716718	0.035632976	0.367618842	0.113303697
2020-02-15T15:25:00	0.3778	4.159		1.035347768	1.461754012	0.034595831	0.356918814	0.110005845
2020-02-15T15:30:00	0.3791	4.159		1.039467800	1.469420520	0.034869477	0.359741968	0.110875968
2020-02-15T15:35:00	0.3804	4.161		1.043286380	1.476540795	0.035124201	0.362369904	0.111685924
2020-02-15T15:40:00	0.3812	4.163		1.045615310	1.480890361	0.035280075	0.363978033	0.112181565
2020-02-15T15:45:00	0.3800	4.164		1.041996153	1.474133403	0.035038016	0.361480751	0.111411878
2020-02-15T15:50:00	0.3788	4.164		1.038373904	1.467383406	0.034796702	0.358991164	0.110644563
2020-02-15T15:55:00	0.3787	4.163		1.038025930	1.466735632	0.034773570	0.358752517	0.110571010
2020-02-15T16:00:00	0.3775	4.161		1.034698354	1.460547090	0.034552810	0.356474976	0.109869050
2020-02-15T16:05:00	0.3764	4.155		1.031405049	1.454432850	0.034335113	0.354229035	0.109176829
2020-02-15T16:10:00	0.3799	4.149		1.041819184	1.473803327	0.035026204	0.361358891	0.111374320
2020-02-15T16:15:00	0.3776	4.140		1.034956403	1.461026620	0.034569901	0.356651300	0.109923394
2020-02-15T16:20:00	0.3766	4.130		1.031961566	1.455465324	0.034371846	0.354607996	0.109293628
2020-02-15T16:25:00	0.3774	4.122		1.034333601	1.459869384	0.034528661	0.356225826	0.109792259
2020-02-15T16:30:00	0.3778	4.113		1.035512452	1.462060138	0.034606746	0.357031416	0.110040550
2020-02-15T16:35:00	0.3811	4.102		1.045321910	1.480342111	0.035260416	0.363775217	0.112119055
2020-02-15T16:40:00	0.3838	4.090		1.053328590	1.495333541	0.035799143	0.369333160	0.113832067
2020-02-15T16:45:00	0.3840	4.076		1.053908788	1.496422307	0.035838363	0.369737786	0.113956776
2020-02-15T16:50:00	0.3830	4.066		1.050927307	1.490830911	0.035637083	0.367661216	0.113316757
2020-02-15T16:55:00	0.3841	4.055		1.054178946	1.496929383	0.035856634	0.369926279	0.114014872
2020-02-15T17:00:00	0.3825	4.044		1.049415850	1.487999668	0.035535292	0.366611057	0.112993088
2020-02-15T17:05:00	0.3848	4.034		1.056228788	1.500779169	0.035995436	0.371358275	0.114456227
2020-02-15T17:10:00	0.3879	4.024		1.065398876	1.518051609	0.036620140	0.377803234	0.116442626
2020-02-15T17:15:00	0.3832	4.014		1.051454702	1.491819345	0.035672640	0.368028054	0.113429820
2020-02-15T17:20:00	0.3852	4.003		1.057375051	1.502933740	0.036073187	0.372160422	0.114703456
2020-02-15T17:25:00	0.3879	3.992		1.065359158	1.517976621	0.036617421	0.377775183	0.116433980
2020-02-15T17:30:00	0.3863	3.986		1.060608527	1.509018443	0.036293033	0.374428533	0.115402510
2020-02-15T17:35:00	0.3881	3.977		1.066220360	1.519602936	0.036676404	0.378383698	0.116621530
2020-02-15T17:40:00	0.3846	3.968		1.055839342	1.500047441	0.035969041	0.371085969	0.114372299
2020-02-15T17:45:00	0.3898	3.958		1.071220640	1.529059918	0.037019945	0.381927946	0.117713902
2020-02-15T17:50:00	0.3910	3.947		1.074752187	1.535753849	0.037263686	0.384442580	0.118488937
2020-02-15T17:55:00	0.3921	3.936		1.077985794	1.541893766	0.037487670	0.386753385	0.119201149
2020-02-15T18:00:00	0.3916	3.924		1.076497067	1.539065723	0.037384454	0.385688519	0.118872947
2020-02-15T18:05:00	0.3934	3.913		1.081793413	1.549136760	0.037752405	0.389484603	0.120042937
2020-02-15T18:10:00	0.3952	3.904		1.087083268	1.559222956	0.038121976	0.393297398	0.121218078
2020-02-15T18:15:00	0.3970	3.893		1.092366663	1.569324310	0.038493166	0.397126901	0.122398368
2020-02-15T18:20:00	0.3915	3.881		1.076149077	1.538404981	0.037360351	0.385439851	0.118796305
2020-02-15T18:25:00	0.3902	3.868		1.072296809	1.531098466	0.037094123	0.382693227	0.117949769
2020-02-15T18:30:00	0.3923	3.860		1.078483470	1.542839656	0.037522212	0.387109742	0.119310982
2020-02-15T18:35:00	0.3873	3.851		1.063693873	1.514833915	0.036503522	0.376600105	0.116071810
2020-02-15T18:40:00	0.3852	3.840		1.057459302	1.503092152	0.036078906	0.372219419	0.114721640
2020-02-15T18:45:00	0.3864	3.832		1.061002201	1.509759950	0.036319852	0.374705214	0.115487786
2020-02-15T18:50:00	0.3852	3.829		1.057432774	1.503042273	0.036077105	0.372200843	0.114715914
2020-02-15T18:55:00	0.3828	3.823		1.050298235	1.489652271	0.035594697	0.367223928	0.113181981
2020-02-15T19:00:00	0.3861	3.817		1.060073671	1.508011256	0.036256615	0.374052815	0.115286710
2020-02-15T19:05:00	0.3842	3.814		1.054427212	1.497395430	0.035873428	0.370099546	0.114068274
2020-02-15T19:10:00	0.3829	3.808		1.050555337	1.490133935	0.035612017	0.367402612	0.113237053
2020-02-15T19:15:00	0.3849	3.803		1.056476934	1.501245488	0.036012259	0.371531842	0.114509722
2020-02-15T19:20:00	0.3810	3.796		1.044882935	1.479521992	0.035231015	0.363471889	0.112025566
2020-02-15T19:25:00	0.3830	3.792		1.050812424	1.490615635	0.035629340	0.367581334	0.113292137
2020-02-15T19:30:00	0.3794	3.787		1.040393757	1.471145795	0.034931147	0.360378206	0.111072063
2020-02-15T19:35:00	0.3837	3.784		1.053160664	1.495018480	0.035787796	0.369216096	0.113795987
2020-02-15T19:40:00	0.3839	3.781		1.053740884	1.496107194	0.035827011	0.369620665	0.113920679
2020-02-15T19:45:00	0.3823	3.781		1.048977298	1.487178593	0.035505788	0.366306673	0.112899274
2020-02-15T19:50:00	0.3811	3.780		1.045397779	1.480483873	0.035265499	0.363827656	0.112135217
2020-02-15T19:55:00	0.3792	3.778		1.039731797	1.469912323	0.034887053	0.359923298	0.110931856
2020-02-15T20:00:00	0.3793	3.774		1.040016176	1.470442173	0.034905992	0.360118687	0.110992077
2020-02-15T20:05:00	0.3800	3.772		1.042086168	1.474301307	0.035044025	0.361542744	0.111430985
2020-02-15T20:10:00	0.3819	3.770		1.047722421	1.484830198	0.035421444	0.365436505	0.112631080
2020-02-15T20:15:00	0.3817	3.766		1.047114788	1.483693614	0.035380644	0.365015580	0.112501347
2020-02-15T20:20:00	0.3818	3.761		1.047398673	1.484224579	0.035399702	0.365212201	0.112561947
2020-02-15T20:25:00	0.3788	3.756		1.038460860	1.467545297	0.034802484	0.359050814	0.110662948
2020-02-15T20:30:00	0.3780	3.750		1.036064480	1.463086478	0.034643346	0.357409012	0.110156928
2020-02-15T20:35:00	0.3790	3.745		1.039029770	1.468604656	0.034840325	0.359441215	0.110783273
2020-02-15T20:40:00	0.3857	3.739		1.058919539	1.505838860	0.036178102	0.373242813	0.115037060
2020-02-15T20:45:00	0.3829	3.735		1.050599867	1.490217367	0.035615017	0.367433565	0.113246593
2020-02-15T20:50:00	0.3817	3.731		1.047021715	1.483519552	0.035374397	0.364951130	0.112481483
2020-02-15T20:55:00	0.3866	3.726		1.061546267	1.510784976	0.036356934	0.375087785	0.115605698
2020-02-15T21:00:00	0.3846	3.720		1.055605167	1.499607521	0.035953176	0.370922285	0.114321851
2020-02-15T21:05:00	0.3872	3.716		1.063296523	1.514084440	0.036476375	0.376320032	0.115985489
2020-02-15T21:10:00	0.3893	3.710		1.069496153	1.525795647	0.036901257	0.380703469	0.117336507
2020-02-15T21:15:00	0.3926	3.703		1.079227923	1.544255026	0.037573915	0.387643153	0.119475385
2020-02-15T21:20:00	0.3942	3.698		1.084226302	1.553772147	0.037922119	0.391235513	0.120582585
2020-02-15T21:25:00	0.3909	3.696		1.074479410	1.535236375	0.037244827	0.384248012	0.118428969
2020-02-15T21:30:00	0.3882	3.692		1.066485821	1.520104384	0.036694596	0.378571382	0.116679377
2020-02-15T21:35:00	0.3911	3.686		1.075043540	1.536306645	0.037283836	0.384650461	0.118553008
2020-02-15T21:40:00	0.3912	3.681		1.075325577	1.536841844	0.037303347	0.384851756	0.118615049
2020-02-15T21:45:00	0.3886	3.674		1.067629339	1.522265249	0.036773021	0.379380477	0.116928748
2020-02-15T21:50:00	0.3940	3.667		1.083557907	1.552498074	0.037875449	0.390754030	0.120434187
2020-02-15T21:55:00	0.3920	3.659		1.077647215	1.541250399	0.037464182	0.386511056	0.119126461
2020-02-15T22:00:00	0.3929	3.654		1.080288899	1.546273117	0.037647672	0.388404089	0.119709912
2020-02-15T22:05:00	0.3937	3.649		1.082639513	1.550748177	0.037811378	0.390093015	0.120230456
2020-02-15T22:10:00	0.3925	3.642		1.079093315	1.543999067	0.037564563	0.387546674	0.119445649
2020-02-15T22:15:00	0.3906	3.638		1.073477153	1.533335654	0.037175579	0.383533600	0.118208780
2020-02-15T22:20:00	0.3906	3.635		1.073469224	1.533320621	0.037175032	0.383527951	0.118207039
2020-02-15T22:25:00	0.3917	3.629		1.076709076	1.539468331	0.037399143	0.385840064	0.118919655
2020-02-15T22:30:00	0.3890	3.622		1.068724929	1.524336745	0.036848249	0.380156591	0.117167953
2020-02-15T22:35:00	0.3868	3.617		1.062206856	1.512029922	0.036401987	0.375552593	0.115748956
2020-02-15T22:40:00	0.3925	3.615		1.079045806	1.543908731	0.037561263	0.387512625	0.119435154
2020-02-15T22:45:00	0.3971	3.612		1.092585790	1.569743852	0.038508606	0.397286189	0.122447462
2020-02-15T22:50:00	0.3937	3.607		1.082568307	1.550612537	0.037806413	0.390041791	0.120214668
2020-02-15T22:55:00	0.3914	3.602		1.075776015	1.537696767	0.037334521	0.385173368	0.118714173
2020-02-15T23:00:00	0.3913	3.600		1.075472875	1.537121391	0.037313540	0.384956910	0.118647458
2020-02-15T23:05:00	0.3894	3.600		1.069851980	1.526468953	0.036925729	0.380955941	0.117414321
2020-02-15T23:10:00	0.3906	3.599		1.073389938	1.533170303	0.037169557	0.383471469	0.118189631
2020-02-15T23:15:00	0.3894	3.600		1.069836110	1.526438919	0.036924638	0.380944678	0.117410850
2020-02-15T23:20:00	0.3935	3.600		1.081931308	1.549399337	0.037762013	0.389583723	0.120073487
2020-02-15T23:25:00	0.3956	3.601		1.088109443	1.561182756	0.038193909	0.394039516	0.121446806
2020-02-15T23:30:00	0.3929	3.601		1.080146408	1.546002020	0.037637761	0.388301844	0.119678399
2020-02-15T23:35:00	0.3958	3.604		1.088682328	1.562277308	0.038234101	0.394454171	0.121574606
2020-02-15T23:40:00	0.3941	3.605		1.083668012	1.552707922	0.037883135	0.390833321	0.120458625
2020-02-15T23:45:00	0.3977	3.608		1.094255101	1.572941493	0.038626343	0.398500864	0.122821837
2020-02-15T23:50:00	0.3992	3.610		1.098654173	1.581381273	0.038937605	0.401712097	0.123811570
2020-02-15T23:55:00	0.3929	3.611		1.080106827	1.545926718	0.037635009	0.388273445	0.119669647
2020-02-16T00:00:00	0.3920	3.611		1.077738990	1.541424777	0.037470548	0.386576732	0.119146703
2020-02-16T00:05:00	0.3961	3.613		1.089812073	1.564436743	0.038313432	0.395272617	0.121826860
2020-02-16T00:10:00	0.3943	3.615		1.084504469	1.554302509	0.037941552	0.391435993	0.120644375
2020-02-16T00:15:00	0.3963	3.615		1.090384733	1.565531825	0.038353681	0.395687855	0.121954840
2020-02-16T00:20:00	0.3981	3.614		1.095669367	1.575652733	0.038726255	0.399531629	0.123139528
2020-02-16T00:25:00	0.3989	3.614		1.098011651	1.580147380	0.038892053	0.401242142	0.123666725
2020-02-16T00:30:00	0.4004	3.612		1.102406926	1.588596162	0.039204276	0.404463289	0.124659514
2020-02-16T00:35:00	0.3994	3.610		1.099464101	1.582937230	0.038995070	0.402304949	0.123994292
2020-02-16T00:40:00	0.3964	3.609		1.090639446	1.566019010	0.038371591	0.395872630	0.122011789
2020-02-16T00:45:00	0.3978	3.606		1.094748279	1.573886723	0.038661167	0.398860135	0.122932567
2020-02-16T00:50:00	0.3979	3.605		1.095034293	1.574435010	0.038681371	0.399068575	0.122996811
2020-02-16T00:55:00	0.3973	3.606		1.093262682	1.571040139	0.038556323	0.397778473	0.122599188
2020-02-16T01:00:00	0.3932	3.607		1.081183415	1.547975442	0.037709921	0.389046306	0.119907850
2020-02-16T01:05:00	0.3946	3.607		1.085301230	1.555822062	0.037997244	0.392010561	0.120821462
2020-02-16T01:10:00	0.3928	3.609		1.079988080	1.545700815	0.037626751	0.388188253	0.119643390
2020-02-16T01:15:00	0.3935	3.612		1.082044092	1.549614111	0.037769872	0.389664803	0.120098477
2020-02-16T01:20:00	0.3926	3.614		1.079382370	1.544548733	0.037584647	0.387753870	0.119509509
2020-02-16T01:25:00	0.3880	3.614		1.065784905	1.518780520	0.036646573	0.378075940	0.116526676
2020-02-16T01:30:00	0.3900	3.614		1.071690752	1.529950295	0.037052338	0.382262142	0.117816905
2020-02-16T01:35:00	0.3895	3.617		1.070205134	1.527137320	0.036950026	0.381206610	0.117491579
2020-02-16T01:40:00	0.3922	3.617		1.078170696	1.542245165	0.037500501	0.386885760	0.119241949
2020-02-16T01:45:00	0.3929	3.617		1.080227574	1.546156441	0.037643406	0.388360083	0.119696349
2020-02-16T01:50:00	0.3946	3.614		1.085230068	1.555686319	0.037992268	0.391959225	0.120805640
2020-02-16T01:55:00	0.3939	3.614		1.083159751	1.551739331	0.037847665	0.390467378	0.120345838
2020-02-16T02:00:00	0.3945	3.616		1.084919684	1.555094314	0.037970569	0.391735357	0.120736641
2020-02-16T02:05:00	0.3932	3.618		1.081080527	1.547779600	0.037702758	0.388972406	0.119885073
2020-02-16T02:10:00	0.3936	3.619		1.082251823	1.550009725	0.037784349	0.389814167	0.120144512
2020-02-16T02:15:00	0.3943	3.623		1.084306757	1.553925538	0.037927739	0.391293493	0.120600455
2020-02-16T02:20:00	0.3959	3.626		1.089010243	1.562903966	0.038257117	0.394691628	0.121647793
2020-02-16T02:25:00	0.3894	3.630		1.069830184	1.526427705	0.036924230	0.380940473	0.117409553
2020-02-16T02:30:00	0.3958	3.634		1.088700129	1.562311325	0.038235350	0.394467059	0.121578579
2020-02-16T02:35:00	0.3922	3.637		1.078083576	1.542079593	0.037494456	0.386823386	0.119222724
2020-02-16T02:40:00	0.3918	3.639		1.076895303	1.539822015	0.037412048	0.385973207	0.118960691
2020-02-16T02:45:00	0.3878	3.642		1.065065974	1.517423131	0.036597354	0.377568150	0.116370171
2020-02-16T02:50:00	0.3892	3.645		1.069199233	1.525233903	0.036880844	0.380492869	0.117271597
2020-02-16T02:55:00	0.3891	3.648		1.068895628	1.524659602	0.036859978	0.380277595	0.117205248
2020-02-16T03:00:00	0.3909	3.652		1.074206617	1.534718940	0.037225972	0.384053488	0.118369015
2020-02-16T03:05:00	0.3890	3.655		1.068879754	1.524629577	0.036858887	0.380266342	0.117201780
2020-02-16T03:10:00	0.3891	3.657		1.069167487	1.525173848	0.036878662	0.380470356	0.117264659
2020-02-16T03:15:00	0.3878	3.661		1.065314245	1.517891826	0.036614346	0.377743463	0.116424204
2020-02-16T03:20:00	0.3898	3.663		1.071220740	1.529060108	0.037019952	0.381928017	0.117713924
2020-02-16T03:25:00	0.3874	3.665		1.064114488	1.515627438	0.036532271	0.376896706	0.116163225
2020-02-16T03:30:00	0.3850	3.669		1.056996423	1.502221911	0.036047494	0.371895351	0.114621759
2020-02-16T03:35:00	0.3888	3.671		1.068240726	1.523421088	0.036814990	0.379813470	0.117062200
2020-02-16T03:40:00	0.3883	3.673		1.066753912	1.520610872	0.036712974	0.378760981	0.116737813
2020-02-16T03:45:00	0.3877	3.673		1.064970644	1.517243179	0.036590830	0.377500847	0.116349427
2020-02-16T03:50:00	0.3865	3.672		1.061409829	1.510527899	0.036347633	0.374991825	0.115576122
2020-02-16T03:55:00	0.3897	3.671		1.070869679	1.528395350	0.036995772	0.381678562	0.117637040
2020-02-16T04:00:00	0.3931	3.669		1.080898489	1.547433122	0.037690087	0.388841677	0.119844781
2020-02-16T04:05:00	0.3880	3.665		1.065826629	1.518859314	0.036649431	0.378105422	0.116535763
2020-02-16T04:10:00	0.3873	3.661		1.063746951	1.514934041	0.036507149	0.376637526	0.116083343
2020-02-16T04:15:00	0.3889	3.656		1.068472937	1.523860185	0.036830938	0.379977999	0.117112910
2020-02-16T04:20:00	0.3909	3.652		1.074375091	1.535038494	0.037237616	0.384173617	0.118406040
2020-02-16T04:25:00	0.3877	3.647		1.064907089	1.517123214	0.036586481	0.377455981	0.116335599
2020-02-16T04:30:00	0.3894	3.641		1.069927415	1.526611707	0.036930918	0.381009477	0.117430821
2020-02-16T04:35:00	0.3879	3.636		1.065483069	1.518210573	0.036625904	0.377862702	0.116460954
2020-02-16T04:40:00	0.3834	3.630		1.052138204	1.493100754	0.035718753	0.368503786	0.113576446
2020-02-16T04:45:00	0.3898	3.628		1.071085882	1.528804731	0.037010662	0.381832180	0.117684386
2020-02-16T04:50:00	0.3930	3.626		1.080524469	1.546721346	0.037664059	0.388573157	0.119762021
2020-02-16T04:55:00	0.3957	3.622		1.088471005	1.561873518	0.038219272	0.394301186	0.121527455
2020-02-16T05:00:00	0.3964	3.619		1.090522988	1.565796254	0.038363402	0.395788142	0.121985749
2020-02-16T05:05:00	0.3936	3.615		1.082269651	1.550043679	0.037785592	0.389826988	0.120148464
2020-02-16T05:10:00	0.3970	3.610		1.092272035	1.569143148	0.038486500	0.397058124	0.122377170
2020-02-16T05:15:00	0.3959	3.606		1.089028043	1.562937986	0.038258367	0.394704521	0.121651767
2020-02-16T05:20:00	0.3959	3.602		1.089020143	1.562922887	0.038257812	0.394698799	0.121650003
2020-02-16T05:25:00	0.3910	3.597		1.074567339	1.535403173	0.037250905	0.384310724	0.118448297
2020-02-16T05:30:00	0.3962	3.593		1.089887159	1.564580310	0.038318708	0.395327048	0.121843636
2020-02-16T05:35:00	0.3956	3.588		1.088113444	1.561190399	0.038194189	0.394042411	0.121447698
2020-02-16T05:40:00	0.3979	3.582		1.094870616	1.574121233	0.038669808	0.398949284	0.122960044
2020-02-16T05:45:00	0.3952	3.575		1.086920025	1.558911287	0.038110540	0.393179416	0.121181715
2020-02-16T05:50:00	0.3969	3.571		1.091914787	1.568459290	0.038461338	0.396798536	0.122297162
2020-02-16T05:55:00	0.3954	3.565		1.087493067	1.560005470	0.038150693	0.393593663	0.121309390
2020-02-16T06:00:00	0.3913	3.559		1.075397638	1.536978602	0.037308333	0.384903197	0.118630904
2020-02-16T06:05:00	0.3982	3.553		1.095712801	1.575736029	0.038729325	0.399563309	0.123149292
2020-02-16T06:10:00	0.3942	3.548		1.084229672	1.553778573	0.037922355	0.391237942	0.120583333
2020-02-16T06:15:00	0.3960	3.543		1.089521816	1.563881814	0.038293041	0.395062246	0.121762021
2020-02-16T06:20:00	0.3974	3.538		1.093631707	1.571747032	0.038582351	0.398047001	0.122681952
2020-02-16T06:25:00	0.3953	3.534		1.087445650	1.559914918	0.038147369	0.393559376	0.121298822
2020-02-16T06:30:00	0.3948	3.531		1.085965452	1.557089318	0.038043708	0.392489923	0.120969206
2020-02-16T06:35:00	0.3984	3.529		1.096546936	1.577336080	0.038788325	0.400172002	0.123336897
2020-02-16T06:40:00	0.3931	3.528		1.080940067	1.547512256	0.037692981	0.388871533	0.119853983
2020-02-16T06:45:00	0.3965	3.527		1.090945522	1.566604520	0.038393119	0.396094729	0.122080242
2020-02-16T06:50:00	0.3948	3.526		1.085933830	1.557028977	0.038041495	0.392467093	0.120962170
2020-02-16T06:55:00	0.3957	3.528		1.088575718	1.562073595	0.038226620	0.394376987	0.121550818
2020-02-16T07:00:00	0.3958	3.533		1.088862139	1.562620921	0.038246721	0.394584370	0.121614735
2020-02-16T07:05:00	0.3922	3.537		1.078245984	1.542388257	0.037505727	0.386939668	0.119258564
2020-02-16T07:10:00	0.3914	3.538		1.075877124	1.537888697	0.037341520	0.385245581	0.118736430
2020-02-16T07:15:00	0.3959	3.542		1.089132742	1.563138094	0.038265718	0.394780357	0.121675140
2020-02-16T07:20:00	0.3933	3.545		1.081466420	1.548514183	0.037729628	0.389249615	0.119970512
2020-02-16T07:25:00	0.3934	3.553		1.081753312	1.549060405	0.037749611	0.389455781	0.120034054
2020-02-16T07:30:00	0.3964	3.562		1.090580268	1.565905815	0.038367429	0.395829696	0.121998557
2020-02-16T07:35:00	0.3986	3.569		1.097039854	1.578281926	0.038823215	0.400531950	0.123447837
2020-02-16T07:40:00	0.3908	3.575		1.074058004	1.534437083	0.037215702	0.383947539	0.118336360
2020-02-16T07:45:00	0.4005	3.579		1.102601920	1.588971430	0.039218161	0.404606539	0.124703665
2020-02-16T07:50:00	0.3980	3.584		1.095253284	1.574854870	0.038696845	0.399228214	0.123046013
2020-02-16T07:55:00	0.4005	3.590		1.102586170	1.588941116	0.039217039	0.404594967	0.124700098
2020-02-16T08:00:00	0.4064	3.598		1.119853747	1.622321631	0.040457882	0.417396506	0.128645657
2020-02-16T08:05:00	0.3978	3.607		1.094641818	1.573682659	0.038653648	0.398782564	0.122908659
2020-02-16T08:10:00	0.3973	3.615		1.093164077	1.570851277	0.038549369	0.397706739	0.122577079
2020-02-16T08:15:00	0.3938	3.622		1.082853224	1.551155305	0.037826282	0.390246776	0.120277846
2020-02-16T08:20:00	0.3996	3.630		1.099905517	1.583785510	0.039026409	0.402628269	0.124093943
2020-02-16T08:25:00	0.3978	3.638		1.094610259	1.573622168	0.038651420	0.398759571	0.122901572
2020-02-16T08:30:00	0.3952	3.644		1.086953641	1.558975466	0.038112895	0.393203710	0.121189202
2020-02-16T08:35:00	0.3956	3.653		1.088123346	1.561209315	0.038194884	0.394049576	0.121449906
2020-02-16T08:40:00	0.3989	3.662		1.097818546	1.579776624	0.038878369	0.401100963	0.123623212
2020-02-16T08:45:00	0.4020	3.671		1.106906027	1.597264288	0.039525368	0.407775938	0.125680504
2020-02-16T08:50:00	0.4044	3.682		1.113926750	1.610830668	0.040029450	0.412976453	0.127283354
2020-02-16T08:55:00	0.4043	3.692		1.113626262	1.610249025	0.040007799	0.412753090	0.127214511
2020-02-16T09:00:00	0.4064	3.703		1.119759613	1.622138857	0.040451056	0.417326093	0.128623955
2020-02-16T09:05:00	0.4004	3.714		1.102182512	1.588164321	0.039188300	0.404298464	0.124608713
2020-02-16T09:10:00	0.4011	3.727		1.104228030	1.592102355	0.039334063	0.405802273	0.125072202
2020-02-16T09:15:00	0.3985	3.745		1.096882142	1.577979271	0.038812050	0.400416763	0.123412335
2020-02-16T09:20:00	0.3988	3.763		1.097755473	1.579655534	0.038873900	0.401054856	0.123609002
2020-02-16T09:25:00	0.3953	3.783		1.087455553	1.559933831	0.038148063	0.393566537	0.121301029
2020-02-16T09:30:00	0.3932	3.807		1.081260655	1.548122471	0.037715299	0.389101788	0.119924950
2020-02-16T09:35:00	0.3960	3.838		1.089500118	1.563840335	0.038291517	0.395046523	0.121757175
2020-02-16T09:40:00	0.3903	3.873		1.072686233	1.531836418	0.037120986	0.382970369	0.118035187
2020-02-16T09:45:00	0.3956	3.900		1.088307081	1.561560326	0.038207772	0.394182538	0.121490887
2020-02-16T09:50:00	0.3946	3.934		1.085354676	1.555924014	0.038000981	0.392049120	0.120833346
2020-02-16T09:55:00	0.3974	3.967		1.093586355	1.571660150	0.038579151	0.398013994	0.122671778
2020-02-16T10:00:00	0.3975	3.992		1.093872445	1.572208255	0.038599336	0.398222235	0.122735960
2020-02-16T10:05:00	0.3952	4.013		1.086964946	1.558997051	0.038113687	0.393211881	0.121191720
2020-02-16T10:10:00	0.3890	4.035		1.068825099	1.524526200	0.036855131	0.380227596	0.117189838
2020-02-16T10:15:00	0.3963	4.058		1.090215283	1.565207756	0.038341769	0.395564960	0.121916962
2020-02-16T10:20:00	0.3942	4.084		1.084185923	1.553695166	0.037919299	0.391206417	0.120573617
2020-02-16T10:25:00	0.3960	4.103		1.089345232	1.563544253	0.038280639	0.394934294	0.121722585
2020-02-16T10:30:00	0.4016	4.119		1.105946572	1.595414090	0.039456767	0.407068190	0.125462370
2020-02-16T10:35:00	0.4003	4.129		1.101993481	1.587800607	0.039174845	0.404159656	0.124565931
2020-02-16T10:40:00	0.3967	4.137		1.091570802	1.567800939	0.038437120	0.396548678	0.122220154
2020-02-16T10:45:00	0.3979	4.144		1.094958297	1.574289319	0.038676002	0.399013185	0.122979739
2020-02-16T10:50:00	0.4012	4.152		1.104799093	1.593202503	0.039374812	0.406222678	0.125201775
2020-02-16T10:55:00	0.3990	4.162		1.098202651	1.580514133	0.038905591	0.401381810	0.123709772
2020-02-16T11:00:00	0.3986	4.173		1.096887233	1.577989040	0.038812410	0.400420480	0.123413481
2020-02-16T11:05:00	0.3988	4.184		1.097627928	1.579410678	0.038864863	0.400961630	0.123580268
2020-02-16T11:10:00	0.3958	4.196		1.088666627	1.562247305	0.038232999	0.394442803	0.121571103
2020-02-16T11:15:00	0.3914	4.208		1.075850844	1.537838810	0.037339701	0.385226811	0.118730644
2020-02-16T11:20:00	0.3951	4.219		1.086618567	1.558335805	0.038089427	0.392961596	0.121114580
2020-02-16T11:25:00	0.3921	4.233		1.077929483	1.541786756	0.037483763	0.386713076	0.119188726
2020-02-16T11:30:00	0.3968	4.246		1.091634264	1.567922391	0.038441587	0.396594768	0.122234359
2020-02-16T11:35:00	0.4012	4.258		1.104709418	1.593029723	0.039368412	0.406156644	0.125181422
2020-02-16T11:40:00	0.4013	4.271		1.104862363	1.593324412	0.039379328	0.406269271	0.125216135
2020-02-16T11:45:00	0.4018	4.285		1.106481156	1.596444860	0.039494981	0.407462441	0.125583882
2020-02-16T11:50:00	0.4020	4.298		1.106927140	1.597305012	0.039526879	0.407791520	0.125685307
2020-02-16T11:55:00	0.4014	4.313		1.105321165	1.594208553	0.039412087	0.406607237	0.125320299
2020-02-16T12:00:00	0.3967	4.328		1.091378210	1.567432391	0.038423564	0.396408826	0.122177050
2020-02-16T12:05:00	0.3979	4.342		1.095059757	1.574483830	0.038683170	0.399087136	0.123002531
2020-02-16T12:10:00	0.4000	4.355		1.101086695	1.586056355	0.039110341	0.403494175	0.124360823
2020-02-16T12:15:00	0.3978	4.369		1.094778539	1.573944728	0.038663304	0.398882184	0.122939363
2020-02-16T12:20:00	0.3958	4.383		1.088755533	1.562417198	0.038239239	0.394507175	0.121590943
2020-02-16T12:25:00	0.3983	4.398		1.096260522	1.576786600	0.038768061	0.399962937	0.123272462
2020-02-16T12:30:00	0.3948	4.416		1.085824050	1.556819503	0.038033814	0.392387846	0.120937745
2020-02-16T12:35:00	0.3998	4.434		1.100678111	1.585270686	0.039081296	0.403194526	0.124268469
2020-02-16T12:40:00	0.3959	4.450		1.089075242	1.563028196	0.038261681	0.394738708	0.121662303
2020-02-16T12:45:00	0.3918	4.464		1.077146100	1.540298384	0.037429433	0.386152556	0.119015968
2020-02-16T12:50:00	0.3921	4.477		1.077890182	1.541712073	0.037481036	0.386684944	0.119180055
2020-02-16T12:55:00	0.3930	4.489		1.080403830	1.546491794	0.037655666	0.388486569	0.119735333
2020-02-16T13:00:00	0.3931	4.505		1.080852502	1.547345600	0.037686886	0.388808656	0.119834604
2020-02-16T13:05:00	0.3930	4.522		1.080416555	1.546516007	0.037656552	0.388495702	0.119738148
2020-02-16T13:10:00	0.3926	4.535		1.079390689	1.544564553	0.037585225	0.387759834	0.119511347
2020-02-16T13:15:00	0.3908	4.550		1.073936883	1.534207382	0.037207334	0.383861202	0.118309750
2020-02-16T13:20:00	0.3955	4.566		1.087948706	1.560875709	0.038182636	0.393923219	0.121410962
2020-02-16T13:25:00	0.3909	4.582		1.074244948	1.534791643	0.037228621	0.384080818	0.118377438
2020-02-16T13:30:00	0.3932	4.604		1.081185519	1.547979447	0.037710068	0.389047817	0.119908315
2020-02-16T13:35:00	0.3958	4.623		1.088703630	1.562318013	0.038235596	0.394469594	0.121579360
2020-02-16T13:40:00	0.3942	4.634		1.084145578	1.553618250	0.037916481	0.391177345	0.120564657
2020-02-16T13:45:00	0.3932	4.649		1.081057184	1.547735169	0.037701133	0.388955641	0.119879906
2020-02-16T13:50:00	0.3934	4.666		1.081800592	1.549150429	0.037752905	0.389489762	0.120044527
2020-02-16T13:55:00	0.3928	4.686		1.079890374	1.545514951	0.037619957	0.388118165	0.119621788
2020-02-16T14:00:00	0.3946	4.701		1.085349371	1.555913895	0.038000610	0.392045293	0.120832167
2020-02-16T14:05:00	0.3940	4.711		1.083440724	1.552274748	0.037867271	0.390669651	0.120408181
2020-02-16T14:10:00	0.3966	4.718		1.091249078	1.567185300	0.038414476	0.396315071	0.122148154
2020-02-16T14:15:00	0.3967	4.726		1.091402497	1.567478864	0.038425273	0.396426460	0.122182485
2020-02-16T14:20:00	0.3988	4.738		1.097728228	1.579603228	0.038871969	0.401034941	0.123602864
2020-02-16T14:25:00	0.3983	4.751		1.096118856	1.576514846	0.038758040	0.399859553	0.123240598
2020-02-16T14:30:00	0.3995	4.762		1.099796389	1.583575778	0.039018660	0.402548323	0.124069303
2020-02-16T14:35:00	0.4014	4.770		1.105230404	1.594033636	0.039405606	0.406540368	0.125299690
2020-02-16T14:40:00	0.4010	4.776		1.104210392	1.592068380	0.039332804	0.405789292	0.125068201
2020-02-16T14:45:00	0.4011	4.782		1.104363354	1.592363026	0.039343717	0.405901873	0.125102899
2020-02-16T14:50:00	0.3991	4.790		1.098353629	1.580804062	0.038916294	0.401492233	0.123743805
2020-02-16T14:55:00	0.3969	4.800		1.092041501	1.568701836	0.038470262	0.396890599	0.122325537
2020-02-16T15:00:00	0.3954	4.807		1.087486965	1.559993817	0.038150265	0.393589251	0.121308030
2020-02-16T15:05:00	0.3961	4.812		1.089700792	1.564223980	0.038305614	0.395191956	0.121801999
2020-02-16T15:10:00	0.3937	4.816		1.082491893	1.550466979	0.037801085	0.389986825	0.120197727
2020-02-16T15:15:00	0.3957	4.820		1.088536314	1.561998303	0.038223855	0.394348462	0.121542026
2020-02-16T15:20:00	0.3917	4.824		1.076605680	1.539271976	0.037391979	0.385766152	0.118896875
2020-02-16T15:25:00	0.3913	4.830		1.075578906	1.537322634	0.037320878	0.385032614	0.118670791
2020-02-16T15:30:00	0.3920	4.836		1.077503769	1.540977855	0.037454233	0.386408414	0.119094826
2020-02-16T15:35:00	0.3904	4.842		1.072933863	1.532305749	0.037138074	0.383146660	0.118089522
2020-02-16T15:40:00	0.3921	4.847		1.077811579	1.541562708	0.037475583	0.386628684	0.119162715
2020-02-16T15:45:00	0.3911	4.847		1.075013911	1.536250424	0.037281786	0.384629317	0.118546491
2020-02-16T15:50:00	0.3934	4.849		1.081658451	1.548879788	0.037743003	0.389387605	0.120013042
2020-02-16T15:55:00	0.3904	4.856		1.072959358	1.532354073	0.037139833	0.383164813	0.118095117
2020-02-16T16:00:00	0.3937	4.859		1.082555488	1.550588118	0.037805519	0.390032570	0.120211826
2020-02-16T16:05:00	0.3878	4.858		1.065211680	1.517698194	0.036607326	0.377671033	0.116401880
2020-02-16T16:10:00	0.3944	4.860		1.084779748	1.554827441	0.037960788	0.391634451	0.120705541
2020-02-16T16:15:00	0.3960	4.861		1.089277036	1.563413897	0.038275850	0.394884886	0.121707357
2020-02-16T16:20:00	0.3955	4.861		1.087886089	1.560756104	0.038178245	0.393877921	0.121397000
2020-02-16T16:25:00	0.3962	4.861		1.090026930	1.564847569	0.038328530	0.395428381	0.121874867
2020-02-16T16:30:00	0.3898	4.861		1.071235903	1.529088822	0.037020996	0.381938794	0.117717246
2020-02-16T16:35:00	0.3892	4.861		1.069247856	1.525325887	0.036884186	0.380527352	0.117282225
2020-02-16T16:40:00	0.3905	4.862		1.073170638	1.532754565	0.037154417	0.383315268	0.118141488
2020-02-16T16:45:00	0.3880	4.865		1.065860812	1.518923869	0.036651772	0.378129577	0.116543208
2020-02-16T16:50:00	0.3932	4.866		1.081005488	1.547636773	0.037697535	0.388918515	0.119868463
2020-02-16T16:55:00	0.3889	4.866		1.068389439	1.523702289	0.036825203	0.379918833	0.117094674
2020-02-16T17:00:00	0.3913	4.865		1.075561652	1.537289886	0.037319683	0.385020294	0.118666994
2020-02-16T17:05:00	0.3882	4.869		1.066481197	1.520095649	0.036694279	0.378568113	0.116678369
2020-02-16T17:10:00	0.3873	4.870		1.063602905	1.514662318	0.036497306	0.376535976	0.116052045
2020-02-16T17:15:00	0.3903	4.868		1.072556039	1.531589685	0.037112004	0.382877701	0.118006626
2020-02-16T17:20:00	0.3912	4.864		1.075295013	1.536783842	0.037301232	0.384829939	0.118608325
2020-02-16T17:25:00	0.3906	4.861		1.073604208	1.533576552	0.037184354	0.383624123	0.118236680
2020-02-16T17:30:00	0.3930	4.860		1.080472867	1.546623156	0.037660469	0.388536118	0.119750605
2020-02-16T17:35:00	0.3903	4.859		1.072584648	1.531643901	0.037113977	0.382898063	0.118012902
2020-02-16T17:40:00	0.3904	4.856		1.072961064	1.532357307	0.037139951	0.383166028	0.118095491
2020-02-16T17:45:00	0.3910	4.855		1.074518776	1.535311049	0.037247548	0.384276087	0.118437622
2020-02-16T17:50:00	0.3948	4.853		1.085806036	1.556785132	0.038032553	0.392374843	0.120933737
2020-02-16T17:55:00	0.3917	4.847		1.076747185	1.539540705	0.037401784	0.385867307	0.118928052
2020-02-16T18:00:00	0.3897	4.841		1.070921396	1.528493272	0.036999334	0.381715305	0.117648364
2020-02-16T18:05:00	0.3900	4.837		1.071593461	1.529766010	0.037045633	0.382192965	0.117795584
2020-02-16T18:10:00	0.3902	4.833		1.072265421	1.531038992	0.037091958	0.382670894	0.117942886
2020-02-16T18:15:00	0.3951	4.830		1.086798764	1.558679790	0.038102047	0.393091790	0.121154707
2020-02-16T18:20:00	0.3901	4.822		1.072132001	1.530786203	0.037082757	0.382575972	0.117913630
2020-02-16T18:25:00	0.3873	4.817		1.063636402	1.514725504	0.036499595	0.376559589	0.116059323
2020-02-16T18:30:00	0.3827	4.811		1.050078186	1.489240074	0.035579877	0.367071036	0.113134858
2020-02-16T18:35:00	0.3920	4.805		1.077689660	1.541331046	0.037467126	0.386541430	0.119135823
2020-02-16T18:40:00	0.3908	4.803		1.073932969	1.534199960	0.037207063	0.383858412	0.118308891
2020-02-16T18:45:00	0.3890	4.800		1.068694787	1.524279738	0.036846178	0.380135226	0.117161368
2020-02-16T18:50:00	0.3857	4.800		1.059007082	1.506003596	0.036184054	0.373304218	0.115055986
2020-02-16T18:55:00	0.3875	4.798		1.064419437	1.516202857	0.036553123	0.377111828	0.116229528
2020-02-16T19:00:00	0.3882	4.793		1.066276121	1.519708261	0.036680225	0.378423117	0.116633680
2020-02-16T19:05:00	0.3872	4.791		1.063397692	1.514275247	0.036483285	0.376391330	0.116007463
2020-02-16T19:10:00	0.3852	4.789		1.057553725	1.503269700	0.036085315	0.372285546	0.114742021
2020-02-16T19:15:00	0.3878	4.786		1.065040030	1.517374157	0.036595578	0.377549833	0.116364525
2020-02-16T19:20:00	0.3875	4.784		1.064233272	1.515851565	0.036540392	0.376980492	0.116189049
2020-02-16T19:25:00	0.3851	4.780		1.057204664	1.502613392	0.036061624	0.372041124	0.114666688
2020-02-16T19:30:00	0.3882	4.776		1.066467023	1.520068873	0.036693308	0.378558090	0.116675280
2020-02-16T19:35:00	0.3851	4.772		1.057070774	1.502361682	0.036052539	0.371947395	0.114637799
2020-02-16T19:40:00	0.3856	4.769		1.058634272	1.505302110	0.036158711	0.373042760	0.114975402
2020-02-16T19:45:00	0.3856	4.767		1.058715544	1.505455021	0.036164235	0.373099748	0.114992966
2020-02-16T19:50:00	0.3850	4.766		1.057018184	1.502262819	0.036048970	0.371910583	0.114626454
2020-02-16T19:55:00	0.3820	4.766		1.047898236	1.485159128	0.035433254	0.365558349	0.112668633
2020-02-16T20:00:00	0.3842	4.763		1.054511554	1.497553772	0.035879135	0.370158420	0.114086420
2020-02-16T20:05:00	0.3820	4.759		1.048061188	1.485464020	0.035444202	0.365671299	0.112703446
2020-02-16T20:10:00	0.3863	4.754		1.060603393	1.509008774	0.036292684	0.374424925	0.115401398
2020-02-16T20:15:00	0.3859	4.751		1.059499480	1.506930307	0.036217542	0.373649706	0.115162468
2020-02-16T20:20:00	0.3837	4.747		1.053056664	1.494823371	0.035780770	0.369143607	0.113773645
2020-02-16T20:25:00	0.3832	4.741		1.051653934	1.492192811	0.035686078	0.368166687	0.113472548
2020-02-16T20:30:00	0.3839	4.735		1.053516172	1.495685511	0.035811821	0.369463951	0.113872378
2020-02-16T20:35:00	0.3808	4.732		1.044388710	1.478598876	0.035197930	0.363130557	0.111920364
2020-02-16T20:40:00	0.3800	4.725		1.042090583	1.474309542	0.035044320	0.361545785	0.111431922
2020-02-16T20:45:00	0.3813	4.722		1.046038384	1.481681072	0.035308434	0.364270604	0.112271738
2020-02-16T20:50:00	0.3803	4.717		1.042848778	1.475724106	0.035094956	0.362068193	0.111592933
2020-02-16T20:55:00	0.3754	4.712		1.028328507	1.448730528	0.034132453	0.352138228	0.108532422
2020-02-16T21:00:00	0.3784	4.708		1.037356076	1.465488992	0.034729066	0.358293373	0.110429497
2020-02-16T21:05:00	0.3806	4.704		1.043688396	1.477291234	0.035151079	0.362647206	0.111771391
2020-02-16T21:10:00	0.3792	4.699		1.039603965	1.469674175	0.034878542	0.359835489	0.110904792
2020-02-16T21:15:00	0.3790	4.696		1.039090137	1.468717083	0.034844342	0.359482655	0.110796045
2020-02-16T21:20:00	0.3796	4.693		1.040957890	1.472197317	0.034968750	0.360766144	0.111191629
2020-02-16T21:25:00	0.3763	4.687		1.030908437	1.453511766	0.034302354	0.353891061	0.109072662
2020-02-16T21:30:00	0.3782	4.683		1.036654600	1.464183966	0.034682496	0.357812915	0.110281415
2020-02-16T21:35:00	0.3808	4.677		1.044475104	1.478760226	0.035203712	0.363190211	0.111938750
2020-02-16T21:40:00	0.3777	4.672		1.035328157	1.461717559	0.034594532	0.356905406	0.110001712
2020-02-16T21:45:00	0.3765	4.666		1.031533940	1.454671947	0.034343619	0.354316783	0.109203874
2020-02-16T21:50:00	0.3769	4.660		1.032808684	1.457037507	0.034427802	0.355185284	0.109471554
2020-02-16T21:55:00	0.3770	4.655		1.033188631	1.457742884	0.034452916	0.355444382	0.109551411
2020-02-16T22:00:00	0.3743	4.650		1.024913552	1.442411682	0.033908301	0.349825690	0.107819675
2020-02-16T22:05:00	0.3750	4.646		1.027025690	1.446318537	0.034046839	0.351254963	0.108260191
2020-02-16T22:10:00	0.3763	4.641		1.030927122	1.453546419	0.034303586	0.353903774	0.109076580
2020-02-16T22:15:00	0.3717	4.635		1.017203017	1.428185952	0.033405283	0.344636149	0.106220208
2020-02-16T22:20:00	0.3747	4.630		1.026193918	1.444779480	0.033992244	0.350691711	0.108086591
2020-02-16T22:25:00	0.3704	4.625		1.013353152	1.421104513	0.033155726	0.342061513	0.105426680
2020-02-16T22:30:00	0.3689	4.622		1.008878524	1.412891814	0.032867005	0.339082835	0.104508623
2020-02-16T22:35:00	0.3665	4.618		1.001696229	1.399749726	0.032406569	0.334332603	0.103044555
2020-02-16T22:40:00	0.3649	4.617		0.996908321	1.391016364	0.032101675	0.331187064	0.102075070
2020-02-16T22:45:00	0.3645	4.611		0.995726634	1.388864293	0.032026676	0.330413315	0.101836593
2020-02-16T22:50:00	0.3639	4.607		0.993942700	1.385617953	0.031913642	0.329247166	0.101477174
2020-02-16T22:55:00	0.3653	4.602		0.998175764	1.393326099	0.032182227	0.332018104	0.102331204
2020-02-16T23:00:00	0.3631	4.599		0.991577300	1.381318177	0.031764114	0.327704514	0.101001714
2020-02-16T23:05:00	0.3604	4.597		0.983459896	1.366603204	0.031253993	0.322441686	0.099379659
2020-02-16T23:10:00	0.3635	4.592		0.992523752	1.383037975	0.031823896	0.328321273	0.101191805
2020-02-16T23:15:00	0.3610	4.586		0.985011502	1.369411040	0.031351140	0.323443930	0.099688560
2020-02-16T23:20:00	0.3638	4.582		0.993469987	1.384758237	0.031883728	0.328938547	0.101382055
2020-02-16T23:25:00	0.3619	4.579		0.987768403	1.374405691	0.031524171	0.325229060	0.100238755
2020-02-16T23:30:00	0.3647	4.576		0.996221271	1.389764954	0.032058058	0.330737070	0.101936377
2020-02-16T23:35:00	0.3605	4.573		0.983589489	1.366837632	0.031262101	0.322525328	0.099405438
2020-02-16T23:40:00	0.3622	4.569		0.988737297	1.376162749	0.031585109	0.325857750	0.100432523
2020-02-16T23:45:00	0.3634	4.567		0.992373533	1.382764955	0.031814404	0.328223338	0.101161621
2020-02-16T23:50:00	0.3604	4.570		0.983352548	1.366409028	0.031247278	0.322372410	0.099358308
2020-02-16T23:55:00	0.3611	4.572		0.985485830	1.370269859	0.031380872	0.323750668	0.099783100
2020-02-17T00:00:00	0.3586	4.574		0.977960772	1.356670299	0.030911061	0.318903720	0.098289224
2020-02-17T00:05:00	0.3599	4.576		0.981908357	1.363797785	0.031157021	0.321441242	0.099071312
2020-02-17T00:10:00	0.3604	4.572		0.983438946	1.366565308	0.031252683	0.322428165	0.099375492
2020-02-17T00:15:00	0.3576	4.570		0.975003174	1.351339994	0.030727505	0.317010000	0.097705561
2020-02-17T00:20:00	0.3595	4.569		0.980463661	1.361187618	0.031066879	0.320511269	0.098784686
2020-02-17T00:25:00	0.3592	4.568		0.979579304	1.359590813	0.031011773	0.319942746	0.098609461
2020-02-17T00:30:00	0.3628	4.566		0.990459431	1.379288001	0.031693587	0.326976894	0.100777454
2020-02-17T00:35:00	0.3621	4.563		0.988371859	1.375499934	0.031562117	0.325620546	0.100359415
2020-02-17T00:40:00	0.3617	4.561		0.987187737	1.373353100	0.031487682	0.324852609	0.100122729
2020-02-17T00:45:00	0.3630	4.562		0.991126525	1.380499375	0.031735664	0.327410995	0.100911248
2020-02-17T00:50:00	0.3589	4.564		0.978781254	1.358150483	0.030962092	0.319430195	0.098451488
2020-02-17T00:55:00	0.3590	4.565		0.979104947	1.358734615	0.030982237	0.319638032	0.098515546
2020-02-17T01:00:00	0.3570	4.566		0.973081004	1.347880244	0.030608540	0.315782663	0.097327284
2020-02-17T01:05:00	0.3556	4.565		0.968865492	1.340304966	0.030348549	0.313100382	0.096500579
2020-02-17T01:10:00	0.3601	4.565		0.982491064	1.364851139	0.031193421	0.321816770	0.099187054
2020-02-17T01:15:00	0.3537	4.565		0.963151461	1.330063794	0.029998129	0.309485169	0.095386335
2020-02-17T01:20:00	0.3528	4.564		0.960443174	1.325220591	0.029832840	0.307779911	0.094860758
2020-02-17T01:25:00	0.3545	4.564		0.965619993	1.334484307	0.030149234	0.311044087	0.095866808
2020-02-17T01:30:00	0.3544	4.568		0.965035544	1.333437184	0.030113420	0.310674599	0.095752929
2020-02-17T01:35:00	0.3520	4.571		0.957776562	1.320458705	0.029670596	0.306106069	0.094344863
2020-02-17T01:40:00	0.3539	4.573		0.963563204	1.330800719	0.030023303	0.309744885	0.095466382
2020-02-17T01:45:00	0.3522	4.573		0.958427243	1.321620034	0.029710139	0.306514030	0.094470601
2020-02-17T01:50:00	0.3527	4.573		0.959966601	1.324369060	0.029803808	0.307480388	0.094768442
2020-02-17T01:55:00	0.3537	4.574		0.963021874	1.329831898	0.029990209	0.309403455	0.095361150
2020-02-17T02:00:00	0.3507	4.577		0.953936218	1.313612661	0.029437812	0.303704479	0.093604670
2020-02-17T02:05:00	0.3524	4.580		0.959121276	1.322859178	0.029752350	0.306949509	0.094604820
2020-02-17T02:10:00	0.3526	4.581		0.959750019	1.323982145	0.029790619	0.307344321	0.094726505
2020-02-17T02:15:00	0.3521	4.582		0.958254043	1.321310869	0.029699611	0.306405408	0.094437123
2020-02-17T02:20:00	0.3549	4.586		0.966767608	1.336541360	0.030219627	0.311770325	0.096090642
2020-02-17T02:25:00	0.3562	4.594		0.970725939	1.343646108	0.030463137	0.314282573	0.096864941
2020-02-17T02:30:00	0.3576	4.607		0.974982832	1.351303362	0.030726244	0.316996997	0.097701553
2020-02-17T02:35:00	0.3616	4.623		0.987081134	1.373159893	0.031480986	0.324783524	0.100101436
2020-02-17T02:40:00	0.3630	4.630		0.991020024	1.380305951	0.031728944	0.327341669	0.100889881
2020-02-17T02:45:00	0.3684	4.634		1.007273963	1.409951506	0.032763822	0.338018310	0.104180526
2020-02-17T02:50:00	0.3696	4.642		1.010894045	1.416588702	0.032996877	0.340422700	0.104921582
2020-02-17T02:55:00	0.3699	4.653		1.011814666	1.418278613	0.033056295	0.341035702	0.105110515
2020-02-17T03:00:00	0.3701	4.653		1.012435450	1.419418598	0.033096395	0.341449409	0.105238024
2020-02-17T03:05:00	0.3701	4.660		1.012456899	1.419457993	0.033097781	0.341463709	0.105242431
2020-02-17T03:10:00	0.3728	4.664		1.020560864	1.434374037	0.033623816	0.346890709	0.106915085
2020-02-17T03:15:00	0.3730	4.667		1.021180354	1.435516868	0.033664221	0.347307567	0.107043565
2020-02-17T03:20:00	0.3757	4.674		1.029267522	1.450470006	0.034194236	0.352775631	0.108728876
2020-02-17T03:25:00	0.3757	4.679		1.029288886	1.450509591	0.034195643	0.352790140	0.108733347
2020-02-17T03:30:00	0.3732	4.684		1.021842556	1.436738901	0.033707444	0.347753482	0.107181000
2020-02-17T03:35:00	0.3763	4.696		1.031121881	1.453907619	0.034316432	0.354036300	0.109117426
2020-02-17T03:40:00	0.3768	4.700		1.032634539	1.456714250	0.034416294	0.355066565	0.109434964
2020-02-17T03:45:00	0.3756	4.699		1.029075889	1.450114946	0.034181622	0.352645497	0.108688767
2020-02-17T03:50:00	0.3696	4.700		1.010851776	1.416511131	0.032994151	0.340394569	0.104912912
2020-02-17T03:55:00	0.3698	4.704		1.011472703	1.417650803	0.033034217	0.340807930	0.105040314
2020-02-17T04:00:00	0.3715	4.706		1.016586160	1.427050345	0.033365226	0.344222881	0.106092835
2020-02-17T04:05:00	0.3724	4.709		1.019242423	1.431943022	0.033537913	0.346004471	0.106641938
2020-02-17T04:10:00	0.3723	4.714		1.019205422	1.431874822	0.033535505	0.345979618	0.106634278
2020-02-17T04:15:00	0.3692	4.716		1.009884080	1.414735726	0.032931763	0.339750927	0.104714535
2020-02-17T04:20:00	0.3715	4.717		1.016737408	1.427328751	0.033375045	0.344324185	0.106124058
2020-02-17T04:25:00	0.3655	4.729		0.998701334	1.394284326	0.032215663	0.332363056	0.102437522
2020-02-17T04:30:00	0.3683	4.736		1.007073438	1.409584225	0.032750940	0.337885409	0.104139564
2020-02-17T04:35:00	0.3675	4.740		1.004635385	1.405121774	0.032594545	0.336271909	0.103642268
2020-02-17T04:40:00	0.3687	4.746		1.008199186	1.411646646	0.032823297	0.338631905	0.104369642
2020-02-17T04:45:00	0.3659	4.751		0.999754997	1.396206181	0.032282755	0.333055230	0.102650856
2020-02-17T04:50:00	0.3674	4.759		1.004523993	1.404918026	0.032587409	0.336198295	0.103619580
2020-02-17T04:55:00	0.3656	4.764		0.999079482	1.394973937	0.032239732	0.332611376	0.102514056
2020-02-17T05:00:00	0.3679	4.772		1.005950549	1.407528253	0.032678856	0.337141738	0.103910358
2020-02-17T05:05:00	0.3617	4.778		0.987264734	1.373492655	0.031492519	0.324902512	0.100138110
2020-02-17T05:10:00	0.3609	4.782		0.984815025	1.369055362	0.031338829	0.323316920	0.099649415
2020-02-17T05:15:00	0.3541	4.784		0.964214751	1.331967166	0.030063163	0.310156113	0.095593126
2020-02-17T05:20:00	0.3613	4.790		0.985946817	1.371104728	0.031409783	0.324048936	0.099875029
2020-02-17T05:25:00	0.3634	4.794		0.992237462	1.382517667	0.031805806	0.328134642	0.101134283
2020-02-17T05:30:00	0.3617	4.796		0.987379765	1.373701159	0.031499746	0.324977075	0.100161091
2020-02-17T05:35:00	0.3690	4.796		1.009290700	1.413647513	0.032893541	0.339356595	0.104592998
2020-02-17T05:40:00	0.3671	4.794		1.003552142	1.403140910	0.032525194	0.335556426	0.103421749
2020-02-17T05:45:00	0.3678	4.798		1.005616468	1.406916797	0.032657428	0.336920661	0.103842220
2020-02-17T05:50:00	0.3687	4.805		1.008279701	1.411794200	0.032828476	0.338685332	0.104386109
2020-02-17T05:55:00	0.3748	4.812		1.026499404	1.445344654	0.034012289	0.350898518	0.108150331
2020-02-17T06:00:00	0.3690	4.825		1.009105251	1.413307484	0.032881600	0.339233408	0.104555031
2020-02-17T06:05:00	0.3671	4.834		1.003366438	1.402801437	0.032513313	0.335433856	0.103383972
2020-02-17T06:10:00	0.3728	4.842		1.020710410	1.434649885	0.033633567	0.346991313	0.106946093
2020-02-17T06:15:00	0.3737	4.847		1.023364066	1.439548315	0.033806873	0.348779272	0.107497159
2020-02-17T06:20:00	0.3689	4.851		1.008956886	1.413035474	0.032872049	0.339134872	0.104524661
2020-02-17T06:25:00	0.3744	4.850		1.025381707	1.443277263	0.033938980	0.350142202	0.107917227
2020-02-17T06:30:00	0.3747	4.847		1.026240837	1.444866278	0.033995322	0.350723469	0.108096379
2020-02-17T06:35:00	0.3708	4.847		1.014539864	1.423285828	0.033232538	0.342853969	0.105670923
2020-02-17T06:40:00	0.3751	4.853		1.027361451	1.446939996	0.034068892	0.351482476	0.108330313
2020-02-17T06:45:00	0.3719	4.851		1.017758975	1.429209761	0.033441410	0.345008859	0.106335081
2020-02-17T06:50:00	0.3734	4.849		1.022208561	1.437414512	0.033731346	0.348000082	0.107257005
2020-02-17T06:55:00	0.3740	4.852		1.024263713	1.441210531	0.033865742	0.349386615	0.107684348
2020-02-17T07:00:00	0.3731	4.856		1.021536664	1.436174352	0.033687474	0.347547459	0.107117502
2020-02-17T07:05:00	0.3746	4.859		1.025982253	1.444387937	0.033978358	0.350548460	0.108042440
2020-02-17T07:10:00	0.3740	4.860		1.024152841	1.441005639	0.033858484	0.349311734	0.107661269
2020-02-17T07:15:00	0.3709	4.865		1.014842502	1.423842328	0.033252143	0.343056229	0.105733262
2020-02-17T07:20:00	0.3736	4.870		1.022883499	1.438660724	0.033775450	0.348455091	0.107397243
2020-02-17T07:25:00	0.3721	4.878		1.018360612	1.430318025	0.033480529	0.345412449	0.106459471
2020-02-17T07:30:00	0.3737	4.883		1.023108454	1.439076181	0.033790157	0.348606820	0.107444008
2020-02-17T07:35:00	0.3750	4.891		1.027253806	1.446740745	0.034061821	0.351409527	0.108307829
2020-02-17T07:40:00	0.3742	4.891		1.024827467	1.442252541	0.033902661	0.349767508	0.107801743
2020-02-17T07:45:00	0.3741	4.889		1.024491741	1.441631969	0.033880672	0.349540651	0.107731823
2020-02-17T07:50:00	0.3691	4.887		1.009488774	1.414010728	0.032906297	0.339488196	0.104633559
2020-02-17T07:55:00	0.3714	4.887		1.016342749	1.426602336	0.033349426	0.344059884	0.106042598
2020-02-17T08:00:00	0.3736	4.891		1.022886648	1.438666538	0.033775656	0.348457215	0.107397898
2020-02-17T08:05:00	0.3761	4.895		1.030315587	1.452412501	0.034263269	0.353487833	0.108948383
2020-02-17T08:10:00	0.3740	4.900		1.024008155	1.440738276	0.033849013	0.349214030	0.107631155
2020-02-17T08:15:00	0.3757	4.905		1.029346553	1.450616445	0.034199439	0.352829307	0.108745419
2020-02-17T08:20:00	0.3767	4.912		1.032293016	1.456080385	0.034393733	0.354833806	0.109363225
2020-02-17T08:25:00	0.3720	4.920		1.018215727	1.430051102	0.033471106	0.345315232	0.106429508
2020-02-17T08:30:00	0.3771	4.929		1.033412023	1.458157682	0.034467687	0.355596771	0.109598378
2020-02-17T08:35:00	0.3734	4.937		1.022328930	1.437636731	0.033739209	0.348081204	0.107282008
2020-02-17T08:40:00	0.3791	4.943		1.039297234	1.469102805	0.034858124	0.359624839	0.110839868
2020-02-17T08:45:00	0.3769	4.947		1.032705028	1.456845093	0.034420952	0.355114617	0.109449774
2020-02-17T08:50:00	0.3736	4.953		1.022815858	1.438535810	0.033771029	0.348409476	0.107383184
2020-02-17T08:55:00	0.3712	4.961		1.015898408	1.425784655	0.033320596	0.343762449	0.105950925
2020-02-17T09:00:00	0.3702	4.966		1.012866313	1.420210037	0.033124244	0.341736716	0.105326575
2020-02-17T09:05:00	0.3685	4.973		1.007732675	1.410791830	0.032793301	0.338322443	0.104274263
2020-02-17T09:10:00	0.3733	4.980		1.022070107	1.437158923	0.033722303	0.347906785	0.107228250
2020-02-17T09:15:00	0.3688	4.991		1.008558333	1.412304877	0.032846400	0.338870257	0.104443104
2020-02-17T09:20:00	0.3682	5.003		1.006721300	1.408939341	0.032728325	0.337652093	0.104067654
2020-02-17T09:25:00	0.3712	5.017		1.015676220	1.425375853	0.033306185	0.343613775	0.105905103
2020-02-17T09:30:00	0.3642	5.030		0.994627367	1.386863525	0.031956998	0.329694454	0.101615033
2020-02-17T09:35:00	0.3671	5.039		1.003608260	1.403243501	0.032528784	0.335593471	0.103433167
2020-02-17T09:40:00	0.3720	5.042		1.018259041	1.430130897	0.033473923	0.345344294	0.106438465
2020-02-17T09:45:00	0.3664	5.044		1.001431464	1.399266208	0.032389666	0.334158218	0.102990808
2020-02-17T09:50:00	0.3716	5.047		1.016987916	1.427789918	0.033391312	0.344492008	0.106175783
2020-02-17T09:55:00	0.3687	5.048		1.008261560	1.411760954	0.032827309	0.338673294	0.104382398
2020-02-17T10:00:00	0.3668	5.047		1.002521586	1.401257436	0.032459293	0.334876545	0.103212204
2020-02-17T10:05:00	0.3698	5.048		1.011480137	1.417664451	0.033034697	0.340812881	0.105041840
2020-02-17T10:10:00	0.3663	5.049		1.000934452	1.398358739	0.032357950	0.333831006	0.102889958
2020-02-17T10:15:00	0.3679	5.048		1.005996845	1.407612995	0.032681827	0.337172380	0.103919802
2020-02-17T10:20:00	0.3681	5.049		1.006554531	1.408633974	0.032717618	0.337541630	0.104033608
2020-02-17T10:25:00	0.3691	5.052		1.009511665	1.414052706	0.032907771	0.339503407	0.104638247
2020-02-17T10:30:00	0.3654	5.053		0.998359725	1.393661468	0.032193928	0.332138821	0.102368410
2020-02-17T10:35:00	0.3647	5.053		0.996212003	1.389748078	0.032057469	0.330731003	0.101934507
2020-02-17T10:40:00	0.3650	5.055		0.997071763	1.391314127	0.032112056	0.331294164	0.102108079
2020-02-17T10:45:00	0.3650	5.058		0.997029183	1.391236551	0.032109351	0.331266260	0.102099479
2020-02-17T10:50:00	0.3682	5.062		1.006899752	1.409266131	0.032739784	0.337770318	0.104104092
2020-02-17T10:55:00	0.3674	5.066		1.004456224	1.404794075	0.032583069	0.336153514	0.103605778
2020-02-17T11:00:00	0.3660	5.069		1.000208513	1.397033711	0.032311657	0.333353405	0.102742757
2020-02-17T11:05:00	0.3662	5.073		1.000766975	1.398053006	0.032347267	0.333720788	0.102855988
2020-02-17T11:10:00	0.3655	5.077		0.998620497	1.394136926	0.032210519	0.332309987	0.102421165
2020-02-17T11:15:00	0.3645	5.081		0.995570432	1.388579919	0.032016770	0.330311113	0.101805093
2020-02-17T11:20:00	0.3673	5.083		1.003943453	1.403856348	0.032550236	0.335814788	0.103501379
2020-02-17T11:25:00	0.3677	5.083		1.005401960	1.406524246	0.032643673	0.336778755	0.103798483
2020-02-17T11:30:00	0.3642	5.085		0.994840864	1.387252018	0.031970524	0.329834000	0.101658042
2020-02-17T11:35:00	0.3642	5.087		0.994798261	1.387174491	0.031967824	0.329806151	0.101649459
2020-02-17T11:40:00	0.3644	5.091		0.995357450	1.388192214	0.032003265	0.330171790	0.101762152
2020-02-17T11:45:00	0.3614	5.093		0.986278692	1.371705895	0.031430605	0.324263762	0.099941241
2020-02-17T11:50:00	0.3623	5.093		0.988948947	1.376546688	0.031598430	0.325995175	0.100474879
2020-02-17T11:55:00	0.3567	5.094		0.971996533	1.345929835	0.030541536	0.315091395	0.097114228
2020-02-17T12:00:00	0.3590	5.096		0.979209293	1.358922936	0.030988733	0.319705047	0.098536200
2020-02-17T12:05:00	0.3580	5.099		0.976144884	1.353396645	0.030798289	0.317740272	0.097930638
2020-02-17T12:10:00	0.3632	5.100		0.991790715	1.381705899	0.031777589	0.327843529	0.101044560
2020-02-17T12:15:00	0.3597	5.099		0.981194877	1.362508475	0.031112485	0.320981774	0.098929700
2020-02-17T12:20:00	0.3643	5.101		0.995016656	1.387571934	0.031981663	0.329948926	0.101693464
2020-02-17T12:25:00	0.3675	5.106		1.004591794	1.405042040	0.032591752	0.336243101	0.103633389
2020-02-17T12:30:00	0.3640	5.115		0.994028639	1.385774271	0.031919083	0.329303291	0.101494472
2020-02-17T12:35:00	0.3622	5.125		0.988866315	1.376396788	0.031593229	0.325941519	0.100458342
2020-02-17T12:40:00	0.3618	5.135		0.987618080	1.374133165	0.031514722	0.325131580	0.100208711
2020-02-17T12:45:00	0.3603	5.145		0.983051336	1.365864243	0.031228441	0.322178073	0.099298411
2020-02-17T12:50:00	0.3612	5.156		0.985723674	1.370700580	0.031395786	0.323904538	0.099830524
2020-02-17T12:55:00	0.3613	5.164		0.985982544	1.371169439	0.031412024	0.324072059	0.099882156
2020-02-17T13:00:00	0.3639	5.171		0.993772965	1.385309233	0.031902899	0.329136333	0.101443014
2020-02-17T13:05:00	0.3630	5.175		0.991020535	1.380306880	0.031728977	0.327342002	0.100889984
2020-02-17T13:10:00	0.3599	5.175		0.981932255	1.363840978	0.031158513	0.321456638	0.099076058
2020-02-17T13:15:00	0.3483	5.176		0.946724322	1.300793943	0.029003440	0.299223139	0.092223477
2020-02-17T13:20:00	0.3593	5.177		0.980035239	1.360413962	0.031040177	0.320235780	0.098699777
2020-02-17T13:25:00	0.3567	5.179		0.972133170	1.346175513	0.030549973	0.315178443	0.097141057
2020-02-17T13:30:00	0.3568	5.180		0.972392894	1.346642556	0.030566015	0.315343946	0.097192067
2020-02-17T13:35:00	0.3536	5.181		0.962656895	1.329178849	0.029967907	0.309173373	0.095290236
2020-02-17T13:40:00	0.3540	5.184		0.963826870	1.331272706	0.030039430	0.309911263	0.095517661
2020-02-17T13:45:00	0.3590	5.187		0.979217401	1.358937570	0.030989238	0.319710254	0.098537805
2020-02-17T13:50:00	0.3595	5.192		0.980684626	1.361586713	0.031080657	0.320653409	0.098828495
2020-02-17T13:55:00	0.3583	5.199		0.977016936	1.354968375	0.030852417	0.318298700	0.098102751
2020-02-17T14:00:00	0.3558	5.208		0.969411846	1.341285812	0.030382174	0.313447294	0.096607500
2020-02-17T14:05:00	0.3556	5.217		0.968763387	1.340121694	0.030342267	0.313035574	0.096480604
2020-02-17T14:10:00	0.3530	5.222		0.960839588	1.325929060	0.029857001	0.308029180	0.094937585
2020-02-17T14:15:00	0.3553	5.230		0.967769067	1.338337457	0.030281131	0.312404851	0.096286209
2020-02-17T14:20:00	0.3551	5.237		0.967423277	1.337717183	0.030259887	0.312185676	0.096218657
2020-02-17T14:25:00	0.3532	5.242		0.961620859	1.327325780	0.029904652	0.308520783	0.095089102
2020-02-17T14:30:00	0.3499	5.247		0.951555094	1.309374922	0.029293996	0.302220758	0.093147373
2020-02-17T14:35:00	0.3514	5.251		0.956070965	1.317416475	0.029567083	0.305038148	0.094015720
2020-02-17T14:40:00	0.3473	5.254		0.943554660	1.295175587	0.028813676	0.297265383	0.091620078
2020-02-17T14:45:00	0.3511	5.255		0.955073555	1.315638698	0.029506645	0.304414614	0.093823541
2020-02-17T14:50:00	0.3491	5.257		0.948949287	1.304743448	0.029137063	0.300601705	0.092648365
2020-02-17T14:55:00	0.3471	5.257		0.943120529	1.294406809	0.028787739	0.296997800	0.091537607
2020-02-17T15:00:00	0.3517	5.257		0.957070847	1.319199606	0.029627741	0.305663947	0.094208597
2020-02-17T15:05:00	0.3546	5.255		0.965825317	1.334852249	0.030161821	0.311173950	0.095906834
2020-02-17T15:10:00	0.3535	5.252		0.962447634	1.328804480	0.029955125	0.309041499	0.095249591
2020-02-17T15:15:00	0.3505	5.250		0.953295907	1.312472558	0.029399099	0.303305088	0.093481574
2020-02-17T15:20:00	0.3537	5.246		0.962968294	1.329736020	0.029986934	0.309369672	0.095350738
2020-02-17T15:25:00	0.3513	5.241		0.955640884	1.316649786	0.029541014	0.304769193	0.093932825
2020-02-17T15:30:00	0.3519	5.237		0.957723876	1.320364689	0.029667395	0.306073049	0.094334686
2020-02-17T15:35:00	0.3521	5.235		0.958288120	1.321371694	0.029701682	0.306426778	0.094443709
2020-02-17T15:40:00	0.3571	5.230		0.973396923	1.348448631	0.030628074	0.315984198	0.097389399
2020-02-17T15:45:00	0.3548	5.224		0.966391157	1.335866449	0.030196526	0.311531992	0.096017186
2020-02-17T15:50:00	0.3554	5.221		0.968165836	1.339049319	0.030305518	0.312656446	0.096363753
2020-02-17T15:55:00	0.3536	5.217		0.962667750	1.329198269	0.029968570	0.309180215	0.095292345
2020-02-17T16:00:00	0.3585	5.213		0.977458300	1.355764137	0.030879833	0.318581544	0.098189926
2020-02-17T16:05:00	0.3578	5.210		0.975347915	1.351960873	0.030748868	0.317230407	0.097773492
2020-02-17T16:10:00	0.3602	5.206		0.982602947	1.365053425	0.031200412	0.321888901	0.099209286
2020-02-17T16:15:00	0.3626	5.201		0.989845257	1.378173101	0.031654876	0.326577519	0.100654363
2020-02-17T16:20:00	0.3620	5.195		0.988042610	1.374902865	0.031541410	0.325406916	0.100293572
2020-02-17T16:25:00	0.3586	5.189		0.977787504	1.356357800	0.030900291	0.318792604	0.098254976
2020-02-17T16:30:00	0.3557	5.183		0.969021096	1.340584286	0.030358123	0.313199162	0.096531023
2020-02-17T16:35:00	0.3575	5.178		0.974473284	1.350385884	0.030694683	0.316671388	0.097601197
2020-02-17T16:40:00	0.3539	5.172		0.963577936	1.330827090	0.030024204	0.309754180	0.095469247
2020-02-17T16:45:00	0.3551	5.164		0.967220161	1.337352887	0.030247412	0.312056973	0.096178990
2020-02-17T16:50:00	0.3515	5.156		0.956305494	1.317834636	0.029581305	0.305184869	0.094060940
2020-02-17T16:55:00	0.3537	5.148		0.962987769	1.329770868	0.029988124	0.309381951	0.095354522
2020-02-17T17:00:00	0.3530	5.141		0.960869931	1.325983296	0.029858851	0.308048265	0.094943467
2020-02-17T17:05:00	0.3510	5.133		0.954802819	1.315156301	0.029490251	0.304245486	0.093771414
2020-02-17T17:10:00	0.3548	5.123		0.966338375	1.335771831	0.030193288	0.311498584	0.096006889
2020-02-17T17:15:00	0.3564	5.115		0.971188888	1.344478021	0.030491689	0.314577137	0.096955729
2020-02-17T17:20:00	0.3594	5.106		0.980263479	1.360826102	0.031054401	0.320382528	0.098745007
2020-02-17T17:25:00	0.3544	5.096		0.965142478	1.333628748	0.030119971	0.310742184	0.095773759
2020-02-17T17:30:00	0.3540	5.087		0.963935382	1.331466970	0.030046069	0.309979750	0.095538769
2020-02-17T17:35:00	0.3556	5.078		0.968788734	1.340167189	0.030343826	0.313051661	0.096485562
2020-02-17T17:40:00	0.3554	5.070		0.968188476	1.339089943	0.030306910	0.312670806	0.096368179
2020-02-17T17:45:00	0.3520	5.062		0.957883687	1.320649872	0.029677104	0.306173212	0.094365557
2020-02-17T17:50:00	0.3571	5.053		0.973344711	1.348354687	0.030624845	0.315950885	0.097379131
2020-02-17T17:55:00	0.3574	5.045		0.974257465	1.349997362	0.030681321	0.316533534	0.097558709
2020-02-17T18:00:00	0.3554	5.036		0.968210155	1.339128843	0.030308243	0.312684557	0.096372417
2020-02-17T18:05:00	0.3572	5.027		0.973663419	1.348928172	0.030644558	0.316154261	0.097441814
2020-02-17T18:10:00	0.3573	5.019		0.973971277	1.349482227	0.030663607	0.316350783	0.097502384
2020-02-17T18:15:00	0.3612	5.011		0.985754791	1.370756935	0.031397738	0.323924672	0.099836730
2020-02-17T18:20:00	0.3545	5.002		0.965505211	1.334278632	0.030142198	0.310971502	0.095844437
2020-02-17T18:25:00	0.3561	4.994		0.970356707	1.342982751	0.030440376	0.314047751	0.096792567
2020-02-17T18:30:00	0.3579	4.985		0.975807126	1.352788086	0.030777339	0.317524133	0.097864022
2020-02-17T18:35:00	0.3589	4.977		0.978834424	1.358246425	0.030965401	0.319464329	0.098462009
2020-02-17T18:40:00	0.3534	4.966		0.962191917	1.328347057	0.029939509	0.308880392	0.095199937
2020-02-17T18:45:00	0.3569	4.956		0.972799256	1.347373417	0.030591124	0.315602988	0.097271906
2020-02-17T18:50:00	0.3577	4.948		0.975224124	1.351737912	0.030741196	0.317151252	0.097749096
2020-02-17T18:55:00	0.3572	4.940		0.973717545	1.349025577	0.030647907	0.316188808	0.097452461
2020-02-17T19:00:00	0.3548	4.930		0.966457664	1.335985676	0.030200607	0.311574091	0.096030161
2020-02-17T19:05:00	0.3546	4.918		0.965857065	1.334909147	0.030163768	0.311194033	0.095913023
2020-02-17T19:10:00	0.3578	4.905		0.975548096	1.352321450	0.030761278	0.317358430	0.097812950
2020-02-17T19:15:00	0.3573	4.893		0.974041636	1.349608864	0.030667962	0.316395707	0.097516230
2020-02-17T19:20:00	0.3556	4.880		0.968902533	1.340371455	0.030350828	0.313123895	0.096507825
2020-02-17T19:25:00	0.3551	4.868		0.967393634	1.337664014	0.030258066	0.312166891	0.096212868
2020-02-17T19:30:00	0.3528	4.857		0.960425990	1.325189883	0.029831793	0.307769108	0.094857428
2020-02-17T19:35:00	0.3558	4.845		0.969524358	1.341487837	0.030389102	0.313518761	0.096629527
2020-02-17T19:40:00	0.3542	4.831		0.964682726	1.332805220	0.030091811	0.310451669	0.095684219
2020-02-17T19:45:00	0.3560	4.818		0.970140673	1.342594686	0.030427063	0.313910405	0.096750235
2020-02-17T19:50:00	0.3528	4.804		0.960447710	1.325228698	0.029833116	0.307782763	0.094861637
2020-02-17T19:55:00	0.3537	4.793		0.963183127	1.330120464	0.030000065	0.309505139	0.095392490
2020-02-17T20:00:00	0.3543	4.780		0.965007531	1.333387004	0.030111704	0.310656896	0.095747472
2020-02-17T20:05:00	0.3511	4.768		0.955302396	1.316046498	0.029520505	0.304557611	0.093867614
2020-02-17T20:10:00	0.3500	4.757		0.951660419	1.309562257	0.029300349	0.302286301	0.093167574
2020-02-17T20:15:00	0.3503	4.747		0.952578019	1.311194787	0.029355731	0.302857660	0.093343672
2020-02-17T20:20:00	0.3504	4.739		0.952887466	1.311745514	0.029374420	0.303050480	0.093403101
2020-02-17T20:25:00	0.3494	4.727		0.949851820	1.306346854	0.029191364	0.301161919	0.092821028
2020-02-17T20:30:00	0.3530	4.715		0.960794570	1.325848597	0.029854257	0.308000867	0.094928858
2020-02-17T20:35:00	0.3533	4.707		0.961710120	1.327485394	0.029910099	0.308576977	0.095106421
2020-02-17T20:40:00	0.3524	4.699		0.958984583	1.322615086	0.029744034	0.306863712	0.094578376
2020-02-17T20:45:00	0.3537	4.691		0.962934153	1.329674929	0.029984848	0.309348147	0.095344103
2020-02-17T20:50:00	0.3517	4.684		0.956870106	1.318841540	0.029615558	0.305538251	0.094169856
2020-02-17T20:55:00	0.3539	4.678		0.963551459	1.330779696	0.030022585	0.309737475	0.095464098
2020-02-17T21:00:00	0.3535	4.672		0.962343893	1.328618901	0.029948789	0.308976134	0.095229445
2020-02-17T21:05:00	0.3525	4.663		0.959315272	1.323205625	0.029764155	0.307071296	0.094642356
2020-02-17T21:10:00	0.3528	4.655		0.960231153	1.324841730	0.029819922	0.307646637	0.094819681
2020-02-17T21:15:00	0.3557	4.647		0.969027166	1.340595184	0.030358497	0.313203016	0.096532211
2020-02-17T21:20:00	0.3518	4.642		0.957206400	1.319441416	0.029635970	0.305748841	0.094234762
2020-02-17T21:25:00	0.3524	4.635		0.959033471	1.322702383	0.029747008	0.306894396	0.094587833
2020-02-17T21:30:00	0.3546	4.628		0.965711295	1.334647916	0.030154831	0.311101830	0.095884605
2020-02-17T21:35:00	0.3549	4.620		0.966625748	1.336287014	0.030210921	0.311680501	0.096062957
2020-02-17T21:40:00	0.3538	4.612		0.963297081	1.330324403	0.030007031	0.309577009	0.095414641
2020-02-17T21:45:00	0.3514	4.607		0.956018704	1.317323302	0.029563915	0.305005459	0.094005645
2020-02-17T21:50:00	0.3477	4.602		0.944769422	1.297327684	0.028886320	0.298014835	0.091851066
2020-02-17T21:55:00	0.3481	4.596		0.945993099	1.299496980	0.028959600	0.298770857	0.092084080
2020-02-17T22:00:00	0.3495	4.589		0.950259462	1.307071307	0.029215908	0.301415139	0.092899073
2020-02-17T22:05:00	0.3499	4.583		0.951610650	1.309473735	0.029297347	0.302255329	0.093158028
2020-02-17T22:10:00	0.3516	4.578		0.956607642	1.318373435	0.029599632	0.305373950	0.094119217
2020-02-17T22:15:00	0.3474	4.573		0.943966315	1.295904728	0.028838282	0.297519237	0.091698318
2020-02-17T22:20:00	0.3443	4.567		0.934340548	1.278896936	0.028265998	0.291615088	0.089878602
2020-02-17T22:25:00	0.3446	4.558		0.935391747	1.280750062	0.028328183	0.292256640	0.090076335
2020-02-17T22:30:00	0.3491	4.548		0.948937776	1.304723003	0.029136371	0.300594563	0.092646164
2020-02-17T22:35:00	0.3524	4.538		0.959101370	1.322823632	0.029751139	0.306937014	0.094600969
2020-02-17T22:40:00	0.3515	4.529		0.956503098	1.318187000	0.029593290	0.305308520	0.094099051
2020-02-17T22:45:00	0.3520	4.524		0.957852220	1.320593718	0.029675192	0.306153489	0.094359479
2020-02-17T22:50:00	0.3537	4.517		0.963144832	1.330051932	0.029997724	0.309480989	0.095385046
2020-02-17T22:55:00	0.3484	4.507		0.946872081	1.301056084	0.029012303	0.299314579	0.092251660
2020-02-17T23:00:00	0.3532	4.498		0.961593579	1.327277000	0.029902988	0.308503610	0.095083809
2020-02-17T23:05:00	0.3549	4.489		0.966578391	1.336202111	0.030208015	0.311650518	0.096053716
2020-02-17T23:10:00	0.3541	4.479		0.964288023	1.332098370	0.030067648	0.310202379	0.095607386
2020-02-17T23:15:00	0.3549	4.469		0.966543629	1.336139788	0.030205881	0.311628510	0.096046933
2020-02-17T23:20:00	0.3491	4.458		0.949067500	1.304953416	0.029144172	0.300675048	0.092670970
2020-02-17T23:25:00	0.3558	4.448		0.969537595	1.341511605	0.030389917	0.313527170	0.096632119
2020-02-17T23:30:00	0.3533	4.435		0.961792508	1.327632723	0.029915127	0.308628850	0.095122409
2020-02-17T23:35:00	0.3555	4.423		0.968594466	1.339818510	0.030331876	0.312928372	0.096447563
2020-02-17T23:40:00	0.3586	4.413		0.977803110	1.356385945	0.030901261	0.318802611	0.098258061
2020-02-17T23:45:00	0.3607	4.402		0.984276997	1.368081570	0.031305131	0.322969265	0.099542264
2020-02-17T23:50:00	0.3599	4.392		0.981694603	1.363411465	0.031143675	0.321303549	0.099028874
2020-02-17T23:55:00	0.3561	4.382		0.970341588	1.342955590	0.030439445	0.314038138	0.096789604
2020-02-18T00:00:00	0.3507	4.373		0.953793602	1.313358694	0.029429187	0.303615497	0.093577245
2020-02-18T00:05:00	0.3584	4.362		0.977263175	1.355412311	0.030867711	0.318456483	0.098151381
2020-02-18T00:10:00	0.3602	4.349		0.982832651	1.365468772	0.031214769	0.322037022	0.099254938
2020-02-18T00:15:00	0.3592	4.337		0.979645360	1.359710058	0.031015887	0.319985191	0.098622543
2020-02-18T00:20:00	0.3597	4.323		0.981288809	1.362678189	0.031118346	0.321042243	0.098948337
2020-02-18T00:25:00	0.3587	4.309		0.978100325	1.356922013	0.030919738	0.318993232	0.098316812
2020-02-18T00:30:00	0.3594	4.298		0.980348368	1.360979402	0.031059692	0.320437119	0.098761832
2020-02-18T00:35:00	0.3584	4.285		0.977159157	1.355224773	0.030861250	0.318389826	0.098130836
2020-02-18T00:40:00	0.3593	4.275		0.980011741	1.360371533	0.031038712	0.320220673	0.098695121
2020-02-18T00:45:00	0.3553	4.263		0.967745498	1.338295176	0.030279683	0.312389910	0.096281604
2020-02-18T00:50:00	0.3592	4.250		0.979675086	1.359763722	0.031017739	0.320004293	0.098628431
2020-02-18T00:55:00	0.3603	4.236		0.983129503	1.366005611	0.031233329	0.322228499	0.099313953
2020-02-18T01:00:00	0.3587	4.224		0.978130062	1.356975654	0.030921587	0.319012308	0.098322692
2020-02-18T01:05:00	0.3566	4.213		0.971914384	1.345782137	0.030536464	0.315039066	0.097098100
2020-02-18T01:10:00	0.3595	4.199		0.980511747	1.361274464	0.031069877	0.320542198	0.098794218
2020-02-18T01:15:00	0.3584	4.187		0.977322662	1.355519566	0.030871406	0.318494606	0.098163131
2020-02-18T01:20:00	0.3597	4.174		0.981080973	1.362302687	0.031105378	0.320908456	0.098907103
2020-02-18T01:25:00	0.3561	4.161		0.970331714	1.342937852	0.030438836	0.314031860	0.096787669
2020-02-18T01:30:00	0.3587	4.149		0.978328192	1.357333061	0.030933907	0.319139420	0.098361869
2020-02-18T01:35:00	0.3613	4.138		0.986007648	1.371214910	0.031413599	0.324088306	0.099887164
2020-02-18T01:40:00	0.3604	4.131		0.983426335	1.366542496	0.031251894	0.322420027	0.099372984
2020-02-18T01:45:00	0.3560	4.124		0.969959533	1.342269335	0.030415903	0.313795269	0.096714749
2020-02-18T01:50:00	0.3568	4.120		0.972514577	1.346861393	0.030573533	0.315421503	0.097215970
2020-02-18T01:55:00	0.3539	4.113		0.963562482	1.330799428	0.030023259	0.309744430	0.095466242
2020-02-18T02:00:00	0.3535	4.109		0.962483737	1.328869065	0.029957330	0.309064249	0.095256603
2020-02-18T02:05:00	0.3522	4.105		0.958369958	1.321517775	0.029706657	0.306478101	0.094459527
2020-02-18T02:10:00	0.3535	4.097		0.962448940	1.328806815	0.029955204	0.309042322	0.095249845
2020-02-18T02:15:00	0.3524	4.087		0.959245794	1.323081545	0.029759927	0.307027677	0.094628912
2020-02-18T02:20:00	0.3521	4.076		0.958165910	1.321153562	0.029694254	0.306350144	0.094420090
2020-02-18T02:25:00	0.3543	4.070		0.964973888	1.333326738	0.030109643	0.310635635	0.095740920
2020-02-18T02:30:00	0.3537	4.068		0.962985880	1.329767488	0.029988009	0.309380760	0.095354155
2020-02-18T02:35:00	0.3519	4.069		0.957658224	1.320247539	0.029663407	0.306031906	0.094322006
2020-02-18T02:40:00	0.3527	4.068		0.959917484	1.324281310	0.029800816	0.307449527	0.094758930
2020-02-18T02:45:00	0.3512	4.068		0.955497330	1.316393916	0.029532315	0.304679451	0.093905166
2020-02-18T02:50:00	0.3454	4.066		0.937668553	1.284767333	0.028463133	0.293648891	0.090505440
2020-02-18T02:55:00	0.3538	4.065		0.963353748	1.330425823	0.030010496	0.309612751	0.095425657
2020-02-18T03:00:00	0.3523	4.067		0.958937310	1.322530676	0.029741158	0.306834044	0.094569232
2020-02-18T03:05:00	0.3503	4.070		0.952692442	1.311398416	0.029362641	0.302928950	0.093365644
2020-02-18T03:10:00	0.3504	4.072		0.953130993	1.312178984	0.029389133	0.303202272	0.093449885
2020-02-18T03:15:00	0.3566	4.073		0.971765641	1.345514724	0.030527281	0.314944329	0.097068901
2020-02-18T03:20:00	0.3538	4.072		0.963418382	1.330541504	0.030014448	0.309653522	0.095438223
2020-02-18T03:25:00	0.3547	4.073		0.965977501	1.335124991	0.030171153	0.311270224	0.095936506
2020-02-18T03:30:00	0.3563	4.072		0.970956991	1.344061281	0.030477385	0.314429567	0.096910246
2020-02-18T03:35:00	0.3559	4.070		0.969577442	1.341583156	0.030392370	0.313552483	0.096639920
2020-02-18T03:40:00	0.3541	4.069		0.964258357	1.332045249	0.030065832	0.310183647	0.095601612
2020-02-18T03:45:00	0.3531	4.064		0.961360005	1.326859373	0.029888738	0.308356596	0.095038498
2020-02-18T03:50:00	0.3565	4.053		0.971492819	1.345024291	0.030510442	0.314770606	0.097015358
2020-02-18T03:55:00	0.3556	4.044		0.968902395	1.340371209	0.030350819	0.313123807	0.096507798
2020-02-18T04:00:00	0.3540	4.036		0.963885625	1.331377891	0.030043024	0.309948345	0.095529090
2020-02-18T04:05:00	0.3594	4.028		0.980235535	1.360775640	0.031052659	0.320364560	0.098739469
2020-02-18T04:10:00	0.3554	4.023		0.968149610	1.339020205	0.030304521	0.312646155	0.096360581
2020-02-18T04:15:00	0.3539	4.019		0.963614990	1.330893417	0.030026470	0.309777560	0.095476452
2020-02-18T04:20:00	0.3561	4.016		0.970290777	1.342864315	0.030436313	0.314005832	0.096779647
2020-02-18T04:25:00	0.3556	4.018		0.968787808	1.340165527	0.030343769	0.313051073	0.096485381
2020-02-18T04:30:00	0.3475	4.013		0.944196747	1.296312948	0.028852060	0.297661389	0.091742131
2020-02-18T04:35:00	0.3560	4.005		0.970020565	1.342378954	0.030419663	0.313834059	0.096726705
2020-02-18T04:40:00	0.3560	3.994		0.970031400	1.342398414	0.030420331	0.313840946	0.096728828
2020-02-18T04:45:00	0.3557	3.983		0.969133962	1.340786904	0.030365069	0.313270822	0.096553110
2020-02-18T04:50:00	0.3504	3.973		0.953065404	1.312062233	0.029385170	0.303161386	0.093437283
2020-02-18T04:55:00	0.3553	3.963		0.967944300	1.338651833	0.030291901	0.312515954	0.096320452
2020-02-18T05:00:00	0.3531	3.953		0.961286405	1.326727788	0.029884248	0.308310279	0.095024222
2020-02-18T05:05:00	0.3529	3.943		0.960690477	1.325662553	0.029847912	0.307935405	0.094908682
2020-02-18T05:10:00	0.3522	3.934		0.958576883	1.321887166	0.029719237	0.306607894	0.094499531
2020-02-18T05:15:00	0.3532	3.925		0.961622337	1.327328422	0.029904742	0.308521713	0.095089388
2020-02-18T05:20:00	0.3542	3.916		0.964665526	1.332774413	0.030090758	0.310440803	0.095680870
2020-02-18T05:25:00	0.3516	3.907		0.956787653	1.318694479	0.029610554	0.305486630	0.094153946
2020-02-18T05:30:00	0.3504	3.901		0.953152442	1.312217166	0.029390430	0.303215644	0.093454006
2020-02-18T05:35:00	0.3541	3.897		0.964394943	1.332289831	0.030074192	0.310269897	0.095628196
2020-02-18T05:40:00	0.3520	3.888		0.958034894	1.320919725	0.029686292	0.306268000	0.094394772
2020-02-18T05:45:00	0.3519	3.882		0.957438492	1.319855479	0.029650062	0.305894227	0.094279572
2020-02-18T05:50:00	0.3500	3.874		0.951675814	1.309589641	0.029301278	0.302295882	0.093170527
2020-02-18T05:55:00	0.3514	3.866		0.955941670	1.317185967	0.029559245	0.304957278	0.093990795
2020-02-18T06:00:00	0.3491	3.860		0.948959902	1.304762302	0.029137701	0.300608290	0.092650395
2020-02-18T06:05:00	0.3533	3.850		0.961730906	1.327522564	0.029911367	0.308590064	0.095110455
2020-02-18T06:10:00	0.3516	3.841		0.956581773	1.318327301	0.029598063	0.305357758	0.094114227
2020-02-18T06:15:00	0.3512	3.832		0.955377583	1.316180496	0.029525060	0.304604602	0.093882097
2020-02-18T06:20:00	0.3525	3.825		0.959336070	1.323242769	0.029765420	0.307084355	0.094646381
2020-02-18T06:25:00	0.3521	3.820		0.958132692	1.321094273	0.029692235	0.306329316	0.094413670
2020-02-18T06:30:00	0.3549	3.814		0.966635665	1.336304794	0.030211529	0.311686780	0.096064893
2020-02-18T06:35:00	0.3507	3.810		0.953901761	1.313551298	0.029435728	0.303682979	0.093598043
2020-02-18T06:40:00	0.3523	3.807		0.958772452	1.322236322	0.029731130	0.306730592	0.094537347
2020-02-18T06:45:00	0.3551	3.803		0.967274098	1.337449621	0.030250724	0.312091147	0.096189523
2020-02-18T06:50:00	0.3523	3.797		0.958794181	1.322275118	0.029732452	0.306744227	0.094541550
2020-02-18T06:55:00	0.3563	3.791		0.970929293	1.344011508	0.030475677	0.314411944	0.096904815
2020-02-18T07:00:00	0.3464	3.784		0.940866744	1.290418567	0.028653301	0.295610821	0.091110126
2020-02-18T07:05:00	0.3579	3.779		0.975790623	1.352758353	0.030776316	0.317513574	0.097860767
2020-02-18T07:10:00	0.3553	3.774		0.967934112	1.338633554	0.030291274	0.312509494	0.096318461
2020-02-18T07:15:00	0.3546	3.770		0.965824253	1.334850343	0.030161756	0.311173277	0.095906626
2020-02-18T07:20:00	0.3547	3.767		0.966138122	1.335412878	0.030181004	0.311371853	0.095967829
2020-02-18T07:25:00	0.3539	3.764		0.963724160	1.331088837	0.030033147	0.309846445	0.095497684
2020-02-18T07:30:00	0.3555	3.761		0.968583181	1.339798257	0.030331182	0.312921211	0.096445356
2020-02-18T07:35:00	0.3551	3.759		0.967382518	1.337644076	0.030257383	0.312159847	0.096210696
2020-02-18T07:40:00	0.3497	3.758		0.951002940	1.308393005	0.029260703	0.301877283	0.093041510
2020-02-18T07:45:00	0.3575	3.757		0.974667822	1.350736135	0.030706731	0.316795679	0.097639505
2020-02-18T07:50:00	0.3566	3.759		0.971956298	1.345857495	0.030539052	0.315065765	0.097106329
2020-02-18T07:55:00	0.3551	3.758		0.967425885	1.337721860	0.030260047	0.312187329	0.096219167
2020-02-18T08:00:00	0.3496	3.759		0.950742337	1.307929665	0.029244997	0.301715247	0.092991569
2020-02-18T08:05:00	0.3594	3.761		0.980150369	1.360621850	0.031047351	0.320309799	0.098722591
2020-02-18T08:10:00	0.3543	3.762		0.964731272	1.332892167	0.030094784	0.310482337	0.095693672
2020-02-18T08:15:00	0.3544	3.764		0.965045225	1.333454526	0.030114013	0.310680717	0.095754814
2020-02-18T08:20:00	0.3564	3.767		0.971113441	1.344342431	0.030487035	0.314529121	0.096940930
2020-02-18T08:25:00	0.3557	3.772		0.969005217	1.340555781	0.030357146	0.313189081	0.096527916
2020-02-18T08:30:00	0.3531	3.778		0.961135696	1.326458360	0.029875056	0.308215450	0.094994995
2020-02-18T08:35:00	0.3509	3.786		0.954466705	1.314557511	0.029469906	0.304035591	0.093706722
2020-02-18T08:40:00	0.3533	3.796		0.961764129	1.327581975	0.029913395	0.308610982	0.095116902
2020-02-18T08:45:00	0.3535	3.806		0.962381611	1.328686373	0.029951092	0.308999899	0.095236770
2020-02-18T08:50:00	0.3561	3.815		0.970270411	1.342827731	0.030435058	0.313992884	0.096775656
2020-02-18T08:55:00	0.3527	3.823		0.959976294	1.324386377	0.029804398	0.307486479	0.094770319
2020-02-18T09:00:00	0.3499	3.836		0.951481214	1.309243521	0.029289540	0.302174787	0.093133204
2020-02-18T09:05:00	0.3519	3.852		0.957569562	1.320089337	0.029658022	0.305976348	0.094304882
2020-02-18T09:10:00	0.3567	3.873		0.972129571	1.346169043	0.030549751	0.315176151	0.097140351
2020-02-18T09:15:00	0.3494	3.895		0.949993092	1.306597901	0.029199869	0.301249661	0.092848071
2020-02-18T09:20:00	0.3533	3.906		0.961850982	1.327737294	0.029918696	0.308665669	0.095133757
2020-02-18T09:25:00	0.3551	3.917		0.967318118	1.337528571	0.030253428	0.312119039	0.096198119
2020-02-18T09:30:00	0.3564	3.929		0.971265087	1.344614969	0.030496390	0.314625635	0.096970676
2020-02-18T09:35:00	0.3589	3.952		0.978834800	1.358247104	0.030965424	0.319464570	0.098462083
2020-02-18T09:40:00	0.3556	3.967		0.968864977	1.340304043	0.030348517	0.313100055	0.096500478
2020-02-18T09:45:00	0.3583	3.982		0.977043566	1.355016383	0.030854071	0.318315762	0.098108009
2020-02-18T09:50:00	0.3549	3.996		0.966766441	1.336539268	0.030219556	0.311769586	0.096090414
2020-02-18T09:55:00	0.3526	4.020		0.959803160	1.324077076	0.029793854	0.307377704	0.094736794
2020-02-18T10:00:00	0.3531	4.047		0.961331143	1.326807771	0.029886977	0.308338432	0.095032899
2020-02-18T10:05:00	0.3534	4.085		0.962112320	1.328204688	0.029934649	0.308830254	0.095184483
2020-02-18T10:10:00	0.3504	4.132		0.953177748	1.312262213	0.029391959	0.303231419	0.093458868
2020-02-18T10:15:00	0.3549	4.170		0.966705051	1.336429198	0.030215788	0.311730713	0.096078433
2020-02-18T10:20:00	0.3522	4.180		0.958387735	1.321549508	0.029707737	0.306489251	0.094462964
2020-02-18T10:25:00	0.3576	4.189		0.974922626	1.351194944	0.030722514	0.316958515	0.097689693
2020-02-18T10:30:00	0.3564	4.201		0.971164105	1.344433481	0.030490160	0.314561364	0.096950867
2020-02-18T10:35:00	0.3553	4.225		0.968007936	1.338766005	0.030295812	0.312556307	0.096332889
2020-02-18T10:40:00	0.3590	4.215		0.979070735	1.358672871	0.030980108	0.319616062	0.098508774
2020-02-18T10:45:00	0.3575	4.227		0.974408892	1.350269960	0.030690696	0.316630255	0.097588520
2020-02-18T10:50:00	0.3547	4.232		0.966107200	1.335357452	0.030179107	0.311352286	0.095961798
2020-02-18T10:55:00	0.3562	4.254		0.970521340	1.343278512	0.030450524	0.314152441	0.096824833
2020-02-18T11:00:00	0.3571	4.263		0.973418643	1.348487713	0.030629418	0.315998057	0.097393670
2020-02-18T11:05:00	0.3590	4.271		0.979033375	1.358605448	0.030977782	0.319592070	0.098501380
2020-02-18T11:10:00	0.3596	4.272		0.981019044	1.362190807	0.031101515	0.320868597	0.098894818
2020-02-18T11:15:00	0.3569	4.290		0.972730693	1.347250091	0.030586887	0.315559273	0.097258433
2020-02-18T11:20:00	0.3574	4.318		0.974114596	1.349740190	0.030672477	0.316442295	0.097530589
2020-02-18T11:25:00	0.3561	4.354		0.970355336	1.342980287	0.030440292	0.314046879	0.096792298
2020-02-18T11:30:00	0.3568	4.382		0.972345193	1.346556774	0.030563069	0.315313546	0.097182697
2020-02-18T11:35:00	0.3563	4.401		0.971006251	1.344149801	0.030480424	0.314460911	0.096919907
2020-02-18T11:40:00	0.3593	4.399		0.979947573	1.360255672	0.031034714	0.320179424	0.098682408
2020-02-18T11:45:00	0.3547	4.383		0.966206556	1.335535541	0.030185201	0.311415159	0.095981176
2020-02-18T11:50:00	0.3546	4.368		0.965774828	1.334761769	0.030158726	0.311142014	0.095896991
2020-02-18T11:55:00	0.3546	4.387		0.965646114	1.334531113	0.030150835	0.311060606	0.095871900
2020-02-18T12:00:00	0.3545	4.416		0.965517396	1.334300466	0.030142945	0.310979207	0.095846812
2020-02-18T12:05:00	0.3545	4.467		0.965388675	1.334069828	0.030135056	0.310897818	0.095821727
2020-02-18T12:10:00	0.3546	4.484		0.965866058	1.334925262	0.030164319	0.311199722	0.095914777
2020-02-18T12:15:00	0.3554	4.500		0.968160965	1.339040578	0.030305219	0.312653357	0.096362801
2020-02-18T12:20:00	0.3519	4.517		0.957721709	1.320360823	0.029667264	0.306071691	0.094334268
2020-02-18T12:25:00	0.3521	4.542		0.958199988	1.321214385	0.029696325	0.306371512	0.094426675
2020-02-18T12:30:00	0.3543	4.587		0.964745005	1.332916763	0.030095625	0.310491013	0.095696346
2020-02-18T12:35:00	0.3552	4.631		0.967646385	1.338117379	0.030273593	0.312327081	0.096262240
2020-02-18T12:40:00	0.3516	4.650		0.956598422	1.318356994	0.029599073	0.305368179	0.094117439
2020-02-18T12:45:00	0.3544	4.667		0.965268084	1.333853774	0.030127666	0.310821581	0.095798230
2020-02-18T12:50:00	0.3548	4.676		0.966351519	1.335795393	0.030194094	0.311506904	0.096009453
2020-02-18T12:55:00	0.3556	4.672		0.968948970	1.340454814	0.030353685	0.313153373	0.096516911
2020-02-18T13:00:00	0.3534	4.673		0.962153029	1.328277500	0.029937134	0.308855896	0.095192387
2020-02-18T13:05:00	0.3512	4.683		0.955345788	1.316123830	0.029523134	0.304584730	0.093875972
2020-02-18T13:10:00	0.3550	4.694		0.967048671	1.337045345	0.030236882	0.311948334	0.096145506
2020-02-18T13:15:00	0.3535	4.714		0.962373161	1.328671256	0.029950576	0.308994574	0.095235129
2020-02-18T13:20:00	0.3513	4.717		0.955870071	1.317058327	0.029554904	0.304912501	0.093976994
2020-02-18T13:25:00	0.3542	4.724		0.964541275	1.332551886	0.030083150	0.310362317	0.095656680
2020-02-18T13:30:00	0.3524	4.728		0.958952368	1.322557564	0.029742074	0.306843494	0.094572145
2020-02-18T13:35:00	0.3542	4.737		0.964586904	1.332633603	0.030085944	0.310391138	0.095665563
2020-02-18T13:40:00	0.3520	4.743		0.957783715	1.320471470	0.029671030	0.306110552	0.094346245
2020-02-18T13:45:00	0.3531	4.743		0.961296816	1.326746402	0.029884883	0.308316831	0.095026242
2020-02-18T13:50:00	0.3560	4.747		0.969956549	1.342263978	0.030415720	0.313793373	0.096714165
2020-02-18T13:55:00	0.3547	4.743		0.966193480	1.335512103	0.030184399	0.311406884	0.095978626
2020-02-18T14:00:00	0.3466	4.752		0.941446346	1.291443759	0.028687840	0.295967161	0.091219953
2020-02-18T14:05:00	0.3525	4.766		0.959264049	1.323114146	0.029761037	0.307039137	0.094632444
2020-02-18T14:10:00	0.3544	4.775		0.965201248	1.333734034	0.030123571	0.310779332	0.095785208
2020-02-18T14:15:00	0.3540	4.773		0.963859974	1.331331969	0.030041455	0.309932155	0.095524100
2020-02-18T14:20:00	0.3528	4.775		0.960394749	1.325134057	0.029829889	0.307749469	0.094851375
2020-02-18T14:25:00	0.3517	4.794		0.956926587	1.318942282	0.029618986	0.305573614	0.094180755
2020-02-18T14:30:00	0.3548	4.797		0.966504610	1.336069837	0.030203487	0.311603809	0.096039320
2020-02-18T14:35:00	0.3555	4.792		0.968496333	1.339642393	0.030325840	0.312866105	0.096428372
2020-02-18T14:40:00	0.3502	4.781		0.952285250	1.310673826	0.029338054	0.302675297	0.093287466
2020-02-18T14:45:00	0.3556	4.771		0.968844742	1.340267721	0.030347272	0.313087211	0.096496519
2020-02-18T14:50:00	0.3524	4.765		0.959014356	1.322668250	0.029745845	0.306882398	0.094584136
2020-02-18T14:55:00	0.3554	4.768		0.968284660	1.339262536	0.030312824	0.312731816	0.096386983
2020-02-18T15:00:00	0.3529	4.769		0.960577447	1.325460546	0.029841023	0.307864331	0.094886777
2020-02-18T15:05:00	0.3545	4.761		0.965603689	1.334455091	0.030148234	0.311033776	0.095863630
2020-02-18T15:10:00	0.3556	4.758		0.968807289	1.340200494	0.030344968	0.313063438	0.096489192
2020-02-18T15:15:00	0.3557	4.754		0.968981484	1.340513178	0.030355686	0.313174014	0.096523273
2020-02-18T15:20:00	0.3664	4.740		1.001427584	1.399259124	0.032389419	0.334155663	0.102990021
2020-02-18T15:25:00	0.3659	4.701		0.999797481	1.396283694	0.032285462	0.333083156	0.102659463
2020-02-18T15:30:00	0.3630	4.682		0.991245543	1.380715543	0.031743174	0.327488478	0.100935129
2020-02-18T15:35:00	0.3601	4.678		0.982374119	1.364639713	0.031186114	0.321741384	0.099163819
2020-02-18T15:40:00	0.3582	4.675		0.976809432	1.354594318	0.030839533	0.318165773	0.098061781
2020-02-18T15:45:00	0.3616	4.656		0.986944309	1.372911926	0.031472392	0.324694866	0.100074111
2020-02-18T15:50:00	0.3565	4.636		0.971411311	1.344877785	0.030505412	0.314718715	0.096999364
2020-02-18T15:55:00	0.3568	4.615		0.972493126	1.346822814	0.030572208	0.315407830	0.097211756
2020-02-18T16:00:00	0.3573	4.601		0.973877110	1.349312744	0.030657780	0.316290664	0.097483854
2020-02-18T16:05:00	0.3544	4.589		0.965174610	1.333686311	0.030121939	0.310762494	0.095780019
2020-02-18T16:10:00	0.3555	4.579		0.968584793	1.339801151	0.030331281	0.312922234	0.096445672
2020-02-18T16:15:00	0.3549	4.571		0.966542084	1.336137020	0.030205787	0.311627533	0.096046632
2020-02-18T16:20:00	0.3577	4.559		0.975094336	1.351504166	0.030733153	0.317068275	0.097723522
2020-02-18T16:25:00	0.3546	4.543		0.965788386	1.334786065	0.030159557	0.311150590	0.095899634
2020-02-18T16:30:00	0.3571	4.523		0.973434882	1.348516932	0.030630422	0.316008418	0.097396864
2020-02-18T16:35:00	0.3558	4.504		0.969275667	1.341041310	0.030373791	0.313360806	0.096580844
2020-02-18T16:40:00	0.3566	4.483		0.971774758	1.345531113	0.030527844	0.314950135	0.097070690
2020-02-18T16:45:00	0.3566	4.468		0.971852317	1.345670549	0.030532632	0.314999533	0.097085915
2020-02-18T16:50:00	0.3587	4.458		0.978279259	1.357244788	0.030930864	0.319108024	0.098352192
2020-02-18T16:55:00	0.3583	4.446		0.976845854	1.354659970	0.030841794	0.318189102	0.098068972
2020-02-18T17:00:00	0.3597	4.432		0.981152202	1.362431374	0.031109822	0.320954303	0.098921233
2020-02-18T17:05:00	0.3635	4.415		0.992686002	1.383332886	0.031834151	0.328427070	0.101224413
2020-02-18T17:10:00	0.3631	4.399		0.991558745	1.381284469	0.031762943	0.327692428	0.100997989
2020-02-18T17:15:00	0.3640	4.383		0.994044388	1.385802919	0.031920080	0.329313577	0.101497643
2020-02-18T17:20:00	0.3601	4.365		0.982367282	1.364627352	0.031185686	0.321736977	0.099162461
2020-02-18T17:25:00	0.3655	4.347		0.998710596	1.394301215	0.032216252	0.332369137	0.102439396
2020-02-18T17:30:00	0.3621	4.328		0.988553763	1.375829847	0.031573561	0.325738607	0.100395802
2020-02-18T17:35:00	0.3644	4.310		0.995255692	1.388006992	0.031996814	0.330105236	0.101741640
2020-02-18T17:40:00	0.3621	4.290		0.988406882	1.375563451	0.031564320	0.325643275	0.100366420
2020-02-18T17:45:00	0.3637	4.270		0.993303301	1.384455138	0.031873184	0.328829762	0.101348526
2020-02-18T17:50:00	0.3639	4.251		0.993982449	1.385690252	0.031916159	0.329273124	0.101485175
2020-02-18T17:55:00	0.3608	4.232		0.984417396	1.368335656	0.031313922	0.323059966	0.099570219
2020-02-18T18:00:00	0.3646	4.212		0.995942118	1.389256630	0.032040345	0.330554334	0.101880056
2020-02-18T18:05:00	0.3617	4.194		0.987286074	1.373531335	0.031493860	0.324916344	0.100142373
2020-02-18T18:10:00	0.3631	4.176		0.991581564	1.381325923	0.031764384	0.327707291	0.101002570
2020-02-18T18:15:00	0.3653	4.156		0.997977935	1.392965481	0.032169647	0.331888313	0.102291201
2020-02-18T18:20:00	0.3633	4.136		0.992037064	1.382153508	0.031793147	0.328004039	0.101094030
2020-02-18T18:25:00	0.3618	4.116		0.987595137	1.374091572	0.031513280	0.325116704	0.100204126
2020-02-18T18:30:00	0.3635	4.096		0.992793586	1.383528448	0.031840952	0.328497232	0.101246037
2020-02-18T18:35:00	0.3639	4.074		0.993773817	1.385310783	0.031902953	0.329136889	0.101443186
2020-02-18T18:40:00	0.3670	4.055		1.003170998	1.402444202	0.032500812	0.335304886	0.103344222
2020-02-18T18:45:00	0.3658	4.035		0.999642760	1.396001412	0.032275604	0.332981460	0.102628120
2020-02-18T18:50:00	0.3652	4.016		0.997916054	1.392852688	0.032165712	0.331847720	0.102278690
2020-02-18T18:55:00	0.3645	3.996		0.995586959	1.388610006	0.032017818	0.330321926	0.101808426
2020-02-18T19:00:00	0.3620	3.975		0.988135943	1.375072106	0.031547279	0.325467466	0.100312234
2020-02-18T19:05:00	0.3684	3.956		1.007457692	1.410288058	0.032775627	0.338140106	0.104218065
2020-02-18T19:10:00	0.3634	3.938		0.992206632	1.382461641	0.031803859	0.328114547	0.101128090
2020-02-18T19:15:00	0.3644	3.922		0.995293689	1.388076155	0.031999223	0.330130087	0.101749299
2020-02-18T19:20:00	0.3622	3.904		0.988746308	1.376179094	0.031585676	0.325863600	0.100434326
2020-02-18T19:25:00	0.3631	3.887		0.991534800	1.381240971	0.031761431	0.327676834	0.100993182
2020-02-18T19:30:00	0.3621	3.869		0.988298058	1.375366091	0.031557475	0.325572654	0.100344654
2020-02-18T19:35:00	0.3638	3.851		0.993495626	1.384804859	0.031885350	0.328955282	0.101387213
2020-02-18T19:40:00	0.3663	3.836		1.001091065	1.398644666	0.032367942	0.333934094	0.102921731
2020-02-18T19:45:00	0.3615	3.819		0.986721185	1.372507601	0.031458381	0.324550318	0.100029560
2020-02-18T19:50:00	0.3670	3.804		1.003047389	1.402218282	0.032492907	0.335223332	0.103319087
2020-02-18T19:55:00	0.3661	3.790		1.000420668	1.397420897	0.032325182	0.333492944	0.102785764
2020-02-18T20:00:00	0.3645	3.775		0.995686868	1.388791895	0.032024154	0.330387295	0.101828573
2020-02-18T20:05:00	0.3683	3.761		1.007180413	1.409780155	0.032757812	0.337956305	0.104161415
2020-02-18T20:10:00	0.3673	3.748		1.003955832	1.403878983	0.032551029	0.335822963	0.103503899
2020-02-18T20:15:00	0.3650	3.735		0.997121360	1.391404489	0.032115207	0.331326667	0.102118097
2020-02-18T20:20:00	0.3649	3.720		0.996897693	1.390997001	0.032101000	0.331180100	0.102072923
2020-02-18T20:25:00	0.3661	3.707		1.000582305	1.397715915	0.032335489	0.333599277	0.102818537
2020-02-18T20:30:00	0.3662	3.692		1.000659325	1.397856502	0.032340401	0.333649953	0.102834156
2020-02-18T20:35:00	0.3657	3.682		0.999233646	1.395255118	0.032249548	0.332712642	0.102545267
2020-02-18T20:40:00	0.3625	3.671		0.989680712	1.377874465	0.031644509	0.326470568	0.100621400
2020-02-18T20:45:00	0.3651	3.658		0.997583848	1.392247224	0.032144594	0.331629848	0.102211540
2020-02-18T20:50:00	0.3673	3.645		1.003970999	1.403906717	0.032552000	0.335832980	0.103506986
2020-02-18T20:55:00	0.3604	3.630		0.983279135	1.366276243	0.031242687	0.322325040	0.099343708
2020-02-18T21:00:00	0.3640	3.616		0.994205148	1.386095354	0.031930258	0.329418581	0.101530006
2020-02-18T21:05:00	0.3624	3.603		0.989464253	1.377481651	0.031630875	0.326329905	0.100578046
2020-02-18T21:10:00	0.3655	3.587		0.998570544	1.394045842	0.032207340	0.332277194	0.102411058
2020-02-18T21:15:00	0.3683	3.574		1.007056923	1.409553977	0.032749879	0.337874464	0.104136191
2020-02-18T21:20:00	0.3674	3.561		1.004432728	1.404751101	0.032581564	0.336137988	0.103600993
2020-02-18T21:25:00	0.3648	3.547		0.996696805	1.390631055	0.032088243	0.331048491	0.102032360
2020-02-18T21:30:00	0.3634	3.532		0.992259868	1.382558385	0.031807222	0.328149246	0.101138784
2020-02-18T21:35:00	0.3648	3.520		0.996550212	1.390364039	0.032078936	0.330952472	0.102002766
2020-02-18T21:40:00	0.3663	3.508		1.001136599	1.398727800	0.032370848	0.333964069	0.102930970
2020-02-18T21:45:00	0.3678	3.497		1.005717939	1.407102504	0.032663935	0.336987801	0.103862913
2020-02-18T21:50:00	0.3676	3.488		1.004894405	1.405595596	0.032611140	0.336443120	0.103695037
2020-02-18T21:55:00	0.3629	3.472		0.990838910	1.379977044	0.031717519	0.327223794	0.100853551
2020-02-18T22:00:00	0.3660	3.460		1.000242722	1.397096139	0.032313837	0.333375902	0.102749691
2020-02-18T22:05:00	0.3637	3.447		0.993391367	1.384615272	0.031878755	0.328887235	0.101366240
2020-02-18T22:10:00	0.3641	3.436		0.994360686	1.386378315	0.031940107	0.329520192	0.101561323
2020-02-18T22:15:00	0.3657	3.424		0.999239332	1.395265488	0.032249910	0.332716377	0.102546419
2020-02-18T22:20:00	0.3618	3.415		0.987566082	1.374038901	0.031511454	0.325097865	0.100198319
2020-02-18T22:25:00	0.3646	3.405		0.996064167	1.389478865	0.032048089	0.330634221	0.101904678
2020-02-18T22:30:00	0.3642	3.395		0.994626140	1.386861293	0.031956920	0.329693652	0.101614785
2020-02-18T22:35:00	0.3642	3.383		0.994692501	1.386982043	0.031961124	0.329737023	0.101628153
2020-02-18T22:40:00	0.3656	3.372		0.998969576	1.394773491	0.032232736	0.332539193	0.102491809
2020-02-18T22:45:00	0.3627	3.367		0.990309069	1.379015018	0.031684107	0.326879094	0.100747311
2020-02-18T22:50:00	0.3624	3.361		0.989471693	1.377495151	0.031631343	0.326334739	0.100579536
2020-02-18T22:55:00	0.3632	3.354		0.991646677	1.381444214	0.031768494	0.327749701	0.101015641
2020-02-18T23:00:00	0.3641	3.347		0.994422449	1.386490684	0.031944018	0.329560547	0.101573761
2020-02-18T23:05:00	0.3639	3.341		0.993886895	1.385516450	0.031910110	0.329210725	0.101465943
2020-02-18T23:10:00	0.3635	3.333		0.992749189	1.383447743	0.031838145	0.328468277	0.101237113
2020-02-18T23:15:00	0.3677	3.326		1.005140694	1.406046188	0.032626924	0.336605962	0.103745226
2020-02-18T23:20:00	0.3633	3.322		0.991978710	1.382047474	0.031789461	0.327966014	0.101082311
2020-02-18T23:25:00	0.3619	3.318		0.987827363	1.374512587	0.031527877	0.325267298	0.100250540
2020-02-18T23:30:00	0.3668	3.312		1.002637012	1.401468341	0.032466671	0.334952655	0.103235661
2020-02-18T23:35:00	0.3669	3.306		1.003003578	1.402138211	0.032490105	0.335194429	0.103310178
2020-02-18T23:40:00	0.3694	3.300		1.010271199	1.415445854	0.032956713	0.340008328	0.104793869
2020-02-18T23:45:00	0.3646	3.294		0.995922288	1.389220522	0.032039087	0.330541355	0.101876056
2020-02-18T23:50:00	0.3667	3.288		1.002301237	1.400854852	0.032445213	0.334731277	0.103167431
2020-02-18T23:55:00	0.3662	3.281		1.000865365	1.398232617	0.032353543	0.333785537	0.102875944
2020-02-19T00:00:00	0.3671	3.274		1.003334705	1.402743430	0.032511283	0.335412913	0.103377517
2020-02-19T00:05:00	0.3663	3.270		1.000997887	1.398474550	0.032361997	0.333872759	0.102902827
2020-02-19T00:10:00	0.3659	3.266		0.999862126	1.396401641	0.032289581	0.333125651	0.102672561
2020-02-19T00:15:00	0.3689	3.257		1.008934977	1.412995309	0.032870639	0.339120323	0.104520177
2020-02-19T00:20:00	0.3653	3.249		0.998191055	1.393353973	0.032183200	0.332028137	0.102334296
2020-02-19T00:25:00	0.3671	3.242		1.003365520	1.402799758	0.032513254	0.335433250	0.103383785
2020-02-19T00:30:00	0.3664	3.235		1.001329174	1.399079422	0.032383137	0.334090860	0.102970048
2020-02-19T00:35:00	0.3648	3.231		0.996585643	1.390428573	0.032081186	0.330975678	0.102009918
2020-02-19T00:40:00	0.3672	3.229		1.003864453	1.403711899	0.032545180	0.335762619	0.103485300
2020-02-19T00:45:00	0.3646	3.225		0.996116706	1.389574537	0.032051422	0.330668614	0.101915278
2020-02-19T00:50:00	0.3658	3.223		0.999490687	1.395723987	0.032265917	0.332881522	0.102597318
2020-02-19T00:55:00	0.3658	3.221		0.999556971	1.395844905	0.032270139	0.332925080	0.102610743
2020-02-19T01:00:00	0.3631	3.218		0.991500042	1.381177830	0.031759237	0.327654197	0.100986206
2020-02-19T01:05:00	0.3655	3.217		0.998787753	1.394441913	0.032221163	0.332419796	0.102455010
2020-02-19T01:10:00	0.3635	3.214		0.992536199	1.383060598	0.031824683	0.328329388	0.101194306
2020-02-19T01:15:00	0.3648	3.211		0.996514713	1.390299381	0.032076683	0.330929222	0.101995600
2020-02-19T01:20:00	0.3657	3.207		0.999287235	1.395352863	0.032252960	0.332747846	0.102556118
2020-02-19T01:25:00	0.3687	3.206		1.008361336	1.411943813	0.032833727	0.338739506	0.104402806
2020-02-19T01:30:00	0.3676	3.202		1.005126924	1.406020996	0.032626042	0.336596856	0.103742420
2020-02-19T01:35:00	0.3686	3.202		1.007893723	1.411086903	0.032803655	0.338429257	0.104307184
2020-02-19T01:40:00	0.3676	3.200		1.004959140	1.405714026	0.032615288	0.336485918	0.103708228
2020-02-19T01:45:00	0.3665	3.198		1.001722089	1.399796955	0.032408221	0.334349638	0.103049805
2020-02-19T01:50:00	0.3690	3.196		1.009291820	1.413649568	0.032893613	0.339357339	0.104593228
2020-02-19T01:55:00	0.3694	3.196		1.010257446	1.415420624	0.032955826	0.339999182	0.104791050
2020-02-19T02:00:00	0.3679	3.196		1.005824201	1.407296990	0.032670751	0.337058118	0.103884585
2020-02-19T02:05:00	0.3695	3.197		1.010689451	1.416213254	0.032983681	0.340286554	0.104879621
2020-02-19T02:10:00	0.3691	3.197		1.009556325	1.414134607	0.032910648	0.339533084	0.104647394
2020-02-19T02:15:00	0.3679	3.195		1.006022746	1.407660407	0.032683488	0.337189525	0.103925086
2020-02-19T02:20:00	0.3682	3.194		1.006689082	1.408880345	0.032726256	0.337630751	0.104061076
2020-02-19T02:25:00	0.3682	3.195		1.006755251	1.409001511	0.032730505	0.337674584	0.104074586
2020-02-19T02:30:00	0.3671	3.193		1.003519593	1.403081407	0.032523111	0.335534941	0.103415128
2020-02-19T02:35:00	0.3665	3.193		1.001783743	1.399909560	0.032412158	0.334390254	0.103062324
2020-02-19T02:40:00	0.3648	3.193		0.996439182	1.390161814	0.032071888	0.330879757	0.101980355
2020-02-19T02:45:00	0.3668	3.194		1.002516993	1.401249045	0.032459000	0.334873517	0.103211270
2020-02-19T02:50:00	0.3653	3.196		0.998075505	1.393143335	0.032175851	0.331952323	0.102310930
2020-02-19T02:55:00	0.3676	3.196		1.005051550	1.405883091	0.032621211	0.336547016	0.103727059
2020-02-19T03:00:00	0.3645	3.195		0.995802075	1.389001645	0.032031461	0.330462682	0.101851808
2020-02-19T03:05:00	0.3663	3.196		1.000979510	1.398440999	0.032360825	0.333860663	0.102899099
2020-02-19T03:10:00	0.3638	3.195		0.993527400	1.384862641	0.031887361	0.328976022	0.101393605
2020-02-19T03:15:00	0.3644	3.195		0.995399400	1.388268574	0.032005925	0.330199229	0.101770609
2020-02-19T03:20:00	0.3624	3.195		0.989444050	1.377444991	0.031629602	0.326316778	0.100574000
2020-02-19T03:25:00	0.3636	3.194		0.992823457	1.383582747	0.031842840	0.328516714	0.101252042
2020-02-19T03:30:00	0.3652	3.191		0.997703907	1.392466026	0.032152225	0.331708578	0.102235805
2020-02-19T03:35:00	0.3615	3.189		0.986629391	1.372341274	0.031452618	0.324490861	0.100011235
2020-02-19T03:40:00	0.3651	3.187		0.997535824	1.392159706	0.032141542	0.331598359	0.102201835
2020-02-19T03:45:00	0.3660	3.186		1.000307666	1.397214660	0.032317977	0.333418615	0.102762855
2020-02-19T03:50:00	0.3673	3.183		1.003978515	1.403920459	0.032552481	0.335837943	0.103508516
2020-02-19T03:55:00	0.3657	3.182		0.999238004	1.395263066	0.032249825	0.332715504	0.102546150
2020-02-19T04:00:00	0.3652	3.184		0.997801076	1.392643122	0.032158402	0.331772304	0.102255446
2020-02-19T04:05:00	0.3669	3.184		1.002737025	1.401651094	0.032473064	0.335018610	0.103255989
2020-02-19T04:10:00	0.3615	3.184		0.986614946	1.372315100	0.031451711	0.324481505	0.100008351
2020-02-19T04:15:00	0.3649	3.183		0.996981357	1.391149418	0.032106314	0.331234920	0.102089819
2020-02-19T04:20:00	0.3631	3.180		0.991390958	1.380979677	0.031752352	0.327583160	0.100964312
2020-02-19T04:25:00	0.3601	3.180		0.982474417	1.364821041	0.031192380	0.321806038	0.099183746
2020-02-19T04:30:00	0.3600	3.181		0.981998956	1.363961539	0.031162679	0.321499613	0.099089303
2020-02-19T04:35:00	0.3616	3.182		0.986953733	1.372929006	0.031472984	0.324700972	0.100075993
2020-02-19T04:40:00	0.3603	3.183		0.983160743	1.366062110	0.031235283	0.322248653	0.099320164
2020-02-19T04:45:00	0.3586	3.180		0.977853794	1.356477354	0.030904411	0.318835113	0.098268078
2020-02-19T04:50:00	0.3609	3.177		0.984925512	1.369255371	0.031345751	0.323388340	0.099671427
2020-02-19T04:55:00	0.3603	3.175		0.982941721	1.365666010	0.031221588	0.322107368	0.099276619
2020-02-19T05:00:00	0.3589	3.173		0.978842977	1.358261860	0.030965933	0.319469820	0.098463701
2020-02-19T05:05:00	0.3603	3.170		0.982896296	1.365583863	0.031218748	0.322078069	0.099267589
2020-02-19T05:10:00	0.3604	3.164		0.983326231	1.366361428	0.031245632	0.322355429	0.099353074
2020-02-19T05:15:00	0.3589	3.161		0.978925809	1.358411332	0.030971088	0.319523001	0.098480092
2020-02-19T05:20:00	0.3562	3.160		0.970587678	1.343397695	0.030454613	0.314194631	0.096837837
2020-02-19T05:25:00	0.3540	3.157		0.964051994	1.331675749	0.030053203	0.310053359	0.095561457
2020-02-19T05:30:00	0.3543	3.155		0.964787026	1.332992029	0.030098198	0.310517562	0.095704528
2020-02-19T05:35:00	0.3535	3.152		0.962490229	1.328880679	0.029957726	0.309068340	0.095257864
2020-02-19T05:40:00	0.3547	3.149		0.965953682	1.335082301	0.030169692	0.311255155	0.095931862
2020-02-19T05:45:00	0.3534	3.150		0.962141281	1.328256486	0.029936417	0.308848495	0.095190106
2020-02-19T05:50:00	0.3533	3.150		0.961966795	1.327944412	0.029925765	0.308738599	0.095156235
2020-02-19T05:55:00	0.3525	3.148		0.959364912	1.323294281	0.029767176	0.307102464	0.094651962
2020-02-19T06:00:00	0.3504	3.147		0.953115259	1.312150976	0.029388183	0.303192463	0.093446862
2020-02-19T06:05:00	0.3510	3.146		0.954763930	1.315087013	0.029487897	0.304221196	0.093763927
2020-02-19T06:10:00	0.3501	3.145		0.952157453	1.310446447	0.029330340	0.302595713	0.093262938
2020-02-19T06:15:00	0.3496	3.145		0.950461942	1.307431208	0.029228104	0.301540960	0.092937853
2020-02-19T06:20:00	0.3473	3.147		0.943589274	1.295236891	0.028815744	0.297286723	0.091626655
2020-02-19T06:25:00	0.3496	3.150		0.950720323	1.307890530	0.029243671	0.301701562	0.092987352
2020-02-19T06:30:00	0.3484	3.151		0.946893667	1.301094382	0.029013598	0.299327939	0.092255778
2020-02-19T06:35:00	0.3450	3.152		0.936659014	1.282985467	0.028403251	0.293031108	0.090315033
2020-02-19T06:40:00	0.3431	3.152		0.930679988	1.272451952	0.028050049	0.289387180	0.089191939
2020-02-19T06:45:00	0.3423	3.154		0.928363840	1.268380512	0.027913889	0.287982447	0.088758987
2020-02-19T06:50:00	0.3444	3.156		0.934605700	1.279364265	0.028281676	0.291776837	0.089928455
2020-02-19T06:55:00	0.3444	3.161		0.934735398	1.279592883	0.028289347	0.291855974	0.089952846
2020-02-19T07:00:00	0.3424	3.164		0.928753525	1.269065167	0.027936771	0.288218521	0.088831747
2020-02-19T07:05:00	0.3445	3.168		0.934994783	1.280050143	0.028304691	0.292014278	0.090001636
2020-02-19T07:10:00	0.3444	3.173		0.934819129	1.279740483	0.028294299	0.291907070	0.089968594
2020-02-19T07:15:00	0.3432	3.182		0.930977436	1.272975185	0.028067561	0.289567858	0.089247626
2020-02-19T07:20:00	0.3406	3.191		0.923152997	1.259239026	0.027608911	0.284836042	0.087789235
2020-02-19T07:25:00	0.3405	3.199		0.922670567	1.258393977	0.027580770	0.284545718	0.087699754
2020-02-19T07:30:00	0.3412	3.206		0.924943912	1.262377993	0.027713518	0.285915254	0.088121858
2020-02-19T07:35:00	0.3424	3.219		0.928745316	1.269050743	0.027936289	0.288213547	0.088830214
2020-02-19T07:40:00	0.3388	3.229		0.917544667	1.249428632	0.027282756	0.281471164	0.086752147
2020-02-19T07:45:00	0.3403	3.239		0.922272072	1.257696115	0.027557537	0.284306029	0.087625879
2020-02-19T07:50:00	0.3420	3.248		0.927299861	1.266511885	0.027851465	0.287338428	0.088560494
2020-02-19T07:55:00	0.3415	3.261		0.925899954	1.264054896	0.027769450	0.286492301	0.088299710
2020-02-19T08:00:00	0.3398	3.276		0.920824293	1.255161957	0.027473222	0.283436162	0.087357778
2020-02-19T08:05:00	0.3368	3.288		0.911444715	1.238791648	0.026930462	0.277836608	0.085631941
2020-02-19T08:10:00	0.3369	3.300		0.911882269	1.239553490	0.026955647	0.278096442	0.085712024
2020-02-19T08:15:00	0.3393	3.308		0.919069458	1.252092966	0.027371217	0.282383799	0.087033429
2020-02-19T08:20:00	0.3379	3.319		0.914905858	1.244822860	0.027130042	0.279895644	0.086266556
2020-02-19T08:25:00	0.3362	3.335		0.909509010	1.235423462	0.026819200	0.276688745	0.085278158
2020-02-19T08:30:00	0.3350	3.354		0.905950608	1.229240847	0.026615337	0.274585527	0.084629926
2020-02-19T08:35:00	0.3343	3.375		0.903927867	1.225731653	0.026499838	0.273393948	0.084262670
2020-02-19T08:40:00	0.3345	3.393		0.904366244	1.226491857	0.026524846	0.273651948	0.084342188
2020-02-19T08:45:00	0.3347	3.407		0.905112201	1.227785856	0.026567430	0.274091279	0.084477594
2020-02-19T08:50:00	0.3343	3.418		0.903704530	1.225344426	0.026487103	0.273262559	0.084222175
2020-02-19T08:55:00	0.3355	3.432		0.907526093	1.231976747	0.026705491	0.275515627	0.084916592
2020-02-19T09:00:00	0.3339	3.446		0.902427108	1.223130493	0.026414325	0.272511726	0.083990760
2020-02-19T09:05:00	0.3343	3.463		0.903788910	1.225490721	0.026491914	0.273312196	0.084237473
2020-02-19T09:10:00	0.3356	3.482		0.907917804	1.232657331	0.026727932	0.275747148	0.084987949
2020-02-19T09:15:00	0.3360	3.497		0.908970429	1.234486936	0.026788289	0.276369840	0.085179869
2020-02-19T09:20:00	0.3370	3.512		0.912172867	1.240059560	0.026972381	0.278269083	0.085765234
2020-02-19T09:25:00	0.3308	3.530		0.892911327	1.206686178	0.025875686	0.266954680	0.082278025
2020-02-19T09:30:00	0.3378	3.546		0.914582506	1.244258930	0.027111362	0.279702923	0.086207157
2020-02-19T09:35:00	0.3373	3.564		0.912871155	1.241275936	0.027012615	0.278684173	0.085893169
2020-02-19T09:40:00	0.3355	3.582		0.907471563	1.231882016	0.026702368	0.275483406	0.084906661
2020-02-19T09:45:00	0.3360	3.598		0.909138965	1.234779970	0.026797960	0.276469612	0.085210619
2020-02-19T09:50:00	0.3372	3.614		0.912648317	1.240887716	0.026999772	0.278551672	0.085852330
2020-02-19T09:55:00	0.3420	3.626		0.927489043	1.266844060	0.027862558	0.287452879	0.088595769
2020-02-19T10:00:00	0.3367	3.642		0.911066603	1.238133448	0.026908708	0.277612182	0.085562771
2020-02-19T10:05:00	0.3350	3.658		0.905814474	1.229004552	0.026607555	0.274505241	0.084605181
2020-02-19T10:10:00	0.3374	3.678		0.913469154	1.242317976	0.027047098	0.279039920	0.086002813
2020-02-19T10:15:00	0.3368	3.700		0.911599894	1.239061816	0.026939392	0.277928743	0.085660338
2020-02-19T10:20:00	0.3362	3.726		0.909729761	1.235807399	0.026831876	0.276819516	0.085318463
2020-02-19T10:25:00	0.3338	3.745		0.902321640	1.222947772	0.026408322	0.272449786	0.083971670
2020-02-19T10:30:00	0.3331	3.758		0.900139172	1.219169005	0.026284254	0.271169808	0.083577168
2020-02-19T10:35:00	0.3345	3.775		0.904421791	1.226588196	0.026528016	0.273684649	0.084352267
2020-02-19T10:40:00	0.3261	3.798		0.878466095	1.181883669	0.025069752	0.258640013	0.079715364
2020-02-19T10:45:00	0.3347	3.819		0.904983006	1.227561707	0.026560052	0.274015162	0.084454134
2020-02-19T10:50:00	0.3314	3.837		0.894791314	1.209928336	0.025981614	0.268047524	0.082614850
2020-02-19T10:55:00	0.3327	3.858		0.898771587	1.216803399	0.026206676	0.270369449	0.083330490
2020-02-19T11:00:00	0.3375	3.870		0.913506322	1.242382753	0.027049242	0.279062040	0.086009631
2020-02-19T11:05:00	0.3336	3.886		0.901489445	1.221506370	0.026360975	0.271961323	0.083821121
2020-02-19T11:10:00	0.3376	3.904		0.914066264	1.243358800	0.027081553	0.279395391	0.086112373
2020-02-19T11:15:00	0.3343	3.927		0.903897755	1.225679441	0.026498121	0.273376231	0.084257209
2020-02-19T11:20:00	0.3348	3.954		0.905408970	1.228300800	0.026584382	0.274266170	0.084531497
2020-02-19T11:25:00	0.3361	3.984		0.909378670	1.235196792	0.026811718	0.276611549	0.085254366
2020-02-19T11:30:00	0.3360	4.004		0.909044360	1.234615477	0.026792531	0.276413604	0.085193357
2020-02-19T11:35:00	0.3353	4.017		0.906865563	1.230829426	0.026667673	0.275125465	0.084796340
2020-02-19T11:40:00	0.3364	4.025		0.910219420	1.236659191	0.026860004	0.277109707	0.085407903
2020-02-19T11:45:00	0.3381	4.035		0.915411844	1.245705503	0.027159288	0.280197365	0.086359549
2020-02-19T11:50:00	0.3418	4.046		0.926721486	1.265496551	0.027817564	0.286988679	0.088452698
2020-02-19T11:55:00	0.3391	4.055		0.918425031	1.250966665	0.027333811	0.281997889	0.086914488
2020-02-19T12:00:00	0.3411	4.063		0.924525357	1.261644117	0.027689050	0.285662827	0.088044058
2020-02-19T12:05:00	0.3367	4.075		0.911313150	1.238562611	0.026922891	0.277758507	0.085607869
2020-02-19T12:10:00	0.3414	4.093		0.925695897	1.263696906	0.027757507	0.286369082	0.088261732
2020-02-19T12:15:00	0.3393	4.104		0.919236945	1.252385756	0.027380943	0.282484146	0.087064357
2020-02-19T12:20:00	0.3389	4.113		0.917983675	1.250195507	0.027308209	0.281733756	0.086833080
2020-02-19T12:25:00	0.3401	4.113		0.921634612	1.256580079	0.027520395	0.283922842	0.087507777
2020-02-19T12:30:00	0.3427	4.124		0.929564987	1.270491319	0.027984455	0.288710460	0.088983368
2020-02-19T12:35:00	0.3401	4.146		0.921580760	1.256485815	0.027517259	0.283890484	0.087497804
2020-02-19T12:40:00	0.3393	4.168		0.919102234	1.252150260	0.027373120	0.282403435	0.087039481
2020-02-19T12:45:00	0.3364	4.184		0.910175610	1.236582972	0.026857486	0.277083737	0.085399899
2020-02-19T12:50:00	0.3351	4.193		0.906152642	1.229591558	0.026626889	0.274704701	0.084666657
2020-02-19T12:55:00	0.3366	4.204		0.910736018	1.237558089	0.026889697	0.277416048	0.085502320
2020-02-19T13:00:00	0.3346	4.218		0.904560587	1.226828930	0.026535937	0.273766368	0.084377453
2020-02-19T13:05:00	0.3356	4.239		0.907916376	1.232654850	0.026727850	0.275746304	0.084987689
2020-02-19T13:10:00	0.3368	4.248		0.911576483	1.239021057	0.026938045	0.277914842	0.085656053
2020-02-19T13:15:00	0.3346	4.249		0.904787116	1.227221873	0.026548868	0.273899772	0.084418570
2020-02-19T13:20:00	0.3381	4.247		0.915513110	1.245882180	0.027165143	0.280257772	0.086378167
2020-02-19T13:25:00	0.3389	4.244		0.917939950	1.250119119	0.027305673	0.281707596	0.086825017
2020-02-19T13:30:00	0.3326	4.257		0.898548310	1.216417347	0.026194023	0.270238904	0.083290255
2020-02-19T13:35:00	0.3353	4.269		0.906831921	1.230771002	0.026665748	0.275105602	0.084790218
2020-02-19T13:40:00	0.3332	4.265		0.900342476	1.219520823	0.026295798	0.271288901	0.083613874
2020-02-19T13:45:00	0.3397	4.268		0.920284521	1.254217656	0.027441823	0.283112232	0.087257940
2020-02-19T13:50:00	0.3397	4.263		0.920257586	1.254170542	0.027440257	0.283096073	0.087252959
2020-02-19T13:55:00	0.3372	4.259		0.912561898	1.240737173	0.026994792	0.278500296	0.085836496
2020-02-19T14:00:00	0.3366	4.257		0.910999389	1.238016459	0.026904842	0.277572298	0.085550478
2020-02-19T14:05:00	0.3369	4.248		0.911893782	1.239573539	0.026956310	0.278103280	0.085714132
2020-02-19T14:10:00	0.3344	4.237		0.904181998	1.226172329	0.026514334	0.273543497	0.084308762
2020-02-19T14:15:00	0.3352	4.225		0.906615712	1.230395548	0.026653376	0.274977963	0.084750879
2020-02-19T14:20:00	0.3361	4.217		0.909355246	1.235156059	0.026810373	0.276597678	0.085250091
2020-02-19T14:25:00	0.3359	4.204		0.908713608	1.234040451	0.026773556	0.276217843	0.085133022
2020-02-19T14:30:00	0.3356	4.193		0.907764466	1.232390896	0.026719146	0.275656505	0.084960012
2020-02-19T14:35:00	0.3347	4.185		0.904969766	1.227538737	0.026559296	0.274007362	0.084451730
2020-02-19T14:40:00	0.3371	4.180		0.912319010	1.240314095	0.026980799	0.278355928	0.085792000
2020-02-19T14:45:00	0.3355	4.181		0.907375979	1.231715968	0.026696894	0.275426931	0.084889255
2020-02-19T14:50:00	0.3369	4.172		0.911650854	1.239150542	0.026942325	0.277959003	0.085669664
2020-02-19T14:55:00	0.3385	4.161		0.916841425	1.248200559	0.027242011	0.281050807	0.086622588
2020-02-19T15:00:00	0.3339	4.145		0.902680533	1.223569590	0.026428755	0.272660591	0.084036642
2020-02-19T15:05:00	0.3360	4.136		0.909112164	1.234733370	0.026796422	0.276453744	0.085205729
2020-02-19T15:10:00	0.3386	4.125		0.917067261	1.248594887	0.027255092	0.281185761	0.086664182
2020-02-19T15:15:00	0.3397	4.106		0.920412599	1.254441696	0.027449272	0.283189076	0.087281623
2020-02-19T15:20:00	0.3387	4.094		0.917320039	1.249036314	0.027269738	0.281336857	0.086710752
2020-02-19T15:25:00	0.3383	4.074		0.916066171	1.246847266	0.027197133	0.280587810	0.086479888
2020-02-19T15:30:00	0.3368	4.058		0.911434905	1.238774570	0.026929897	0.277830784	0.085630146
2020-02-19T15:35:00	0.3416	4.038		0.926123237	1.264446658	0.027782523	0.286627164	0.088341275
2020-02-19T15:40:00	0.3399	4.022		0.920890787	1.255278305	0.027477091	0.283476081	0.087370081
2020-02-19T15:45:00	0.3387	4.008		0.917185263	1.248800947	0.027261928	0.281256290	0.086685920
2020-02-19T15:50:00	0.3382	3.996		0.915624555	1.246076628	0.027171587	0.280324259	0.086398659
2020-02-19T15:55:00	0.3379	3.989		0.914983920	1.244959016	0.027134553	0.279942181	0.086280899
2020-02-19T16:00:00	0.3395	3.984		0.919863712	1.253481661	0.027417359	0.282859837	0.087180149
2020-02-19T16:05:00	0.3423	3.974		0.928314477	1.268293795	0.027910991	0.287952550	0.088749772
2020-02-19T16:10:00	0.3429	3.963		0.930027479	1.271304429	0.028011652	0.288991050	0.089069848
2020-02-19T16:15:00	0.3393	3.946		0.919191324	1.252306002	0.027378294	0.282456811	0.087055932
2020-02-19T16:20:00	0.3456	3.929		0.938335622	1.285945257	0.028502739	0.294057501	0.090631378
2020-02-19T16:25:00	0.3371	3.917		0.912504551	1.240637277	0.026991488	0.278466206	0.085825989
2020-02-19T16:30:00	0.3413	3.904		0.925258111	1.262929006	0.027731893	0.286104826	0.088180286
2020-02-19T16:35:00	0.3428	3.896		0.929724974	1.270772571	0.027993861	0.288807506	0.089013278
2020-02-19T16:40:00	0.3410	3.887		0.924402300	1.261428384	0.027681859	0.285588636	0.088021191
2020-02-19T16:45:00	0.3399	3.878		0.920911437	1.255314436	0.027478293	0.283488478	0.087373902
2020-02-19T16:50:00	0.3426	3.865		0.929360007	1.270131006	0.027972405	0.288586149	0.088945054
2020-02-19T16:55:00	0.3442	3.850		0.934127751	1.278521928	0.028253419	0.291485312	0.089838604
2020-02-19T17:00:00	0.3466	3.840		0.941329500	1.291237058	0.028680875	0.295895304	0.091197806
2020-02-19T17:05:00	0.3418	3.835		0.926853898	1.265728972	0.027825323	0.287068729	0.088477370
2020-02-19T17:10:00	0.3454	3.829		0.937731833	1.284879056	0.028466888	0.293687639	0.090517383
2020-02-19T17:15:00	0.3493	3.821		0.949797722	1.306250723	0.029188107	0.301128323	0.092810674
2020-02-19T17:20:00	0.3468	3.815		0.942063669	1.292536019	0.028724654	0.296346956	0.091337010
2020-02-19T17:25:00	0.3479	3.808		0.945293964	1.298257403	0.028917719	0.298338780	0.091950909
2020-02-19T17:30:00	0.3493	3.802		0.949738799	1.306146023	0.029184561	0.301091733	0.092799396
2020-02-19T17:35:00	0.3494	3.795		0.949921974	1.306471519	0.029195587	0.301205489	0.092834457
2020-02-19T17:40:00	0.3511	3.788		0.955273318	1.315994678	0.029518744	0.304539439	0.093862013
2020-02-19T17:45:00	0.3460	3.780		0.939627704	1.288228028	0.028579542	0.294849864	0.090875591
2020-02-19T17:50:00	0.3470	3.775		0.942555180	1.293405933	0.028753983	0.296649543	0.091430270
2020-02-19T17:55:00	0.3489	3.768		0.948524900	1.303989764	0.029111549	0.300338485	0.092567238
2020-02-19T18:00:00	0.3444	3.764		0.934685802	1.279505458	0.028286413	0.291825711	0.089943518
2020-02-19T18:05:00	0.3478	3.757		0.945238184	1.298158524	0.028914379	0.298304322	0.091940289
2020-02-19T18:10:00	0.3488	3.746		0.948161622	1.303344740	0.029089719	0.300113269	0.092497824
2020-02-19T18:15:00	0.3504	3.742		0.952907333	1.311780874	0.029375620	0.303062861	0.093406917
2020-02-19T18:20:00	0.3531	3.739		0.961289601	1.326733501	0.029884443	0.308312290	0.095024842
2020-02-19T18:25:00	0.3526	3.731		0.959651709	1.323806534	0.029784633	0.307282570	0.094707472
2020-02-19T18:30:00	0.3511	3.726		0.955279719	1.316006085	0.029519132	0.304543439	0.093863246
2020-02-19T18:35:00	0.3526	3.716		0.959713685	1.323917242	0.029788407	0.307321499	0.094719471
2020-02-19T18:40:00	0.3499	3.710		0.951390282	1.309081801	0.029284056	0.302118211	0.093115767
2020-02-19T18:45:00	0.3472	3.700		0.943354563	1.294821225	0.028801720	0.297142034	0.091582061
2020-02-19T18:50:00	0.3490	3.689		0.948714541	1.304326533	0.029122948	0.300456091	0.092603485
2020-02-19T18:55:00	0.3505	3.681		0.953459609	1.312764000	0.029408994	0.303407168	0.093513036
2020-02-19T19:00:00	0.3500	3.674		0.951818573	1.309843577	0.029309890	0.302384735	0.093197912
2020-02-19T19:05:00	0.3499	3.668		0.951393486	1.309087498	0.029284250	0.302120204	0.093116381
2020-02-19T19:10:00	0.3499	3.660		0.951576587	1.309413148	0.029295292	0.302234132	0.093151495
2020-02-19T19:15:00	0.3513	3.654		0.955710801	1.316774412	0.029545251	0.304812907	0.093946298
2020-02-19T19:20:00	0.3510	3.650		0.954982291	1.315476075	0.029501118	0.304357596	0.093805967
2020-02-19T19:25:00	0.3521	3.642		0.958202360	1.321218620	0.029696469	0.306373000	0.094427134
2020-02-19T19:30:00	0.3505	3.633		0.953220922	1.312339069	0.029394568	0.303258336	0.093467164
2020-02-19T19:35:00	0.3517	3.623		0.957049797	1.319162056	0.029626464	0.305650765	0.094204534
2020-02-19T19:40:00	0.3518	3.615		0.957232644	1.319488233	0.029637563	0.305765279	0.094239828
2020-02-19T19:45:00	0.3481	3.605		0.946164613	1.299801149	0.028969880	0.298876909	0.092116766
2020-02-19T19:50:00	0.3507	3.604		0.953952947	1.313642453	0.029438824	0.303714917	0.093607887
2020-02-19T19:55:00	0.3522	3.602		0.958388354	1.321550613	0.029707775	0.306489639	0.094463083
2020-02-19T20:00:00	0.3471	3.595		0.943059472	1.294298703	0.028784093	0.296960179	0.091526011
2020-02-19T20:05:00	0.3498	3.589		0.951157881	1.308668514	0.029270044	0.301973644	0.093071210
2020-02-19T20:10:00	0.3508	3.589		0.954380969	1.314404788	0.029464718	0.303982063	0.093690224
2020-02-19T20:15:00	0.3512	3.582		0.955475446	1.316354911	0.029530989	0.304665771	0.093900949
2020-02-19T20:20:00	0.3507	3.577		0.953835221	1.313432805	0.029431704	0.303641462	0.093585248
2020-02-19T20:25:00	0.3453	3.572		0.937573821	1.284600088	0.028457510	0.293590889	0.090487563
2020-02-19T20:30:00	0.3450	3.569		0.936536844	1.282769899	0.028396010	0.292956396	0.090292006
2020-02-19T20:35:00	0.3512	3.564		0.955599525	1.316576066	0.029538507	0.304743336	0.093924856
2020-02-19T20:40:00	0.3466	3.558		0.941479701	1.291502766	0.028689829	0.295987674	0.091226276
2020-02-19T20:45:00	0.3499	3.552		0.951406299	1.309110285	0.029285022	0.302128176	0.093118838
2020-02-19T20:50:00	0.3501	3.547		0.952197539	1.310517766	0.029332760	0.302620674	0.093270631
2020-02-19T20:55:00	0.3482	3.542		0.946295391	1.300033092	0.028977719	0.298957787	0.092141693
2020-02-19T21:00:00	0.3472	3.534		0.943432836	1.294959838	0.028806396	0.297190281	0.091596931
2020-02-19T21:05:00	0.3489	3.532		0.948488398	1.303924946	0.029109355	0.300315851	0.092560262
2020-02-19T21:10:00	0.3493	3.527		0.949584458	1.305871789	0.029175272	0.300995903	0.092769860
2020-02-19T21:15:00	0.3485	3.524		0.947333085	1.301874086	0.029039965	0.299599969	0.092339620
2020-02-19T21:20:00	0.3474	3.518		0.943861965	1.295719883	0.028832043	0.297454876	0.091678482
2020-02-19T21:25:00	0.3437	3.511		0.932757407	1.276108025	0.028172489	0.290650376	0.089581269
2020-02-19T21:30:00	0.3496	3.504		0.950621313	1.307714514	0.029237705	0.301640015	0.092968382
2020-02-19T21:35:00	0.3482	3.495		0.946239625	1.299934185	0.028974376	0.298923297	0.092131063
2020-02-19T21:40:00	0.3473	3.486		0.943681726	1.295400635	0.028821270	0.297343727	0.091644224
2020-02-19T21:45:00	0.3496	3.480		0.950562402	1.307609788	0.029234156	0.301603398	0.092957096
2020-02-19T21:50:00	0.3476	3.476		0.944657881	1.297130018	0.028879645	0.297945975	0.091829843
2020-02-19T21:55:00	0.3487	3.471		0.947886116	1.302855646	0.029073170	0.299942532	0.092445201
2020-02-19T22:00:00	0.3415	3.462		0.925790353	1.263862611	0.027763035	0.286426115	0.088279310
2020-02-19T22:05:00	0.3454	3.454		0.937926816	1.285223330	0.028478463	0.293807051	0.090554187
2020-02-19T22:10:00	0.3445	3.448		0.935093379	1.280223972	0.028310525	0.292074464	0.090020186
2020-02-19T22:15:00	0.3506	3.430		0.953589843	1.312995876	0.029416867	0.303488392	0.093538070
2020-02-19T22:20:00	0.3499	3.419		0.951375575	1.309055644	0.029283169	0.302109061	0.093112947
2020-02-19T22:25:00	0.3491	3.410		0.949160103	1.305117906	0.029149741	0.300732508	0.092688680
2020-02-19T22:30:00	0.3464	3.400		0.940850065	1.290389069	0.028652307	0.295600570	0.091106966
2020-02-19T22:35:00	0.3448	3.390		0.935882340	1.281615268	0.028357231	0.292556321	0.090168699
2020-02-19T22:40:00	0.3477	3.380		0.944943886	1.297636882	0.028896761	0.298122558	0.091884268
2020-02-19T22:45:00	0.3480	3.361		0.945771323	1.299103718	0.028946311	0.298633758	0.092041824
2020-02-19T22:50:00	0.3469	3.349		0.942333838	1.293014157	0.028740773	0.296513258	0.091388266
2020-02-19T22:55:00	0.3465	3.337		0.941028185	1.290704089	0.028662919	0.295710051	0.091140709
2020-02-19T23:00:00	0.3469	3.323		0.942466017	1.293248108	0.028748661	0.296594639	0.091413348
2020-02-19T23:05:00	0.3479	3.312		0.945426391	1.298492163	0.028925650	0.298420595	0.091976126
2020-02-19T23:10:00	0.3489	3.299		0.948384611	1.303740658	0.029103118	0.300251501	0.092540429
2020-02-19T23:15:00	0.3507	3.290		0.954076763	1.313862960	0.029446313	0.303792182	0.093631701
2020-02-19T23:20:00	0.3503	3.277		0.952774874	1.311545121	0.029367619	0.302980315	0.093381475
2020-02-19T23:25:00	0.3479	3.271		0.945385998	1.298420554	0.028923231	0.298395638	0.091968434
2020-02-19T23:30:00	0.3473	3.270		0.943471972	1.295029146	0.028808735	0.297214407	0.091604367
2020-02-19T23:35:00	0.3500	3.265		0.951908530	1.310003601	0.029315318	0.302440732	0.093215171
2020-02-19T23:40:00	0.3478	3.260		0.945127277	1.297961932	0.028907739	0.298235817	0.091919175
2020-02-19T23:45:00	0.3500	3.259		0.951736328	1.309697279	0.029304928	0.302333544	0.093182135
2020-02-19T23:50:00	0.3492	3.255		0.949521052	1.305759135	0.029171456	0.300956539	0.092757728
2020-02-19T23:55:00	0.3512	3.252		0.955515429	1.316426176	0.029533412	0.304690765	0.093908653
2020-02-20T00:00:00	0.3443	3.250		0.934412597	1.279023915	0.028270257	0.291659034	0.089892147
2020-02-20T00:05:00	0.3513	3.248		0.955647181	1.316661009	0.029541395	0.304773130	0.093934039
2020-02-20T00:10:00	0.3521	3.244		0.958294413	1.321382926	0.029702064	0.306430724	0.094444925
2020-02-20T00:15:00	0.3522	3.239		0.958512035	1.321771399	0.029715294	0.306567215	0.094486993
2020-02-20T00:20:00	0.3499	3.236		0.951437677	1.309166091	0.029286915	0.302147698	0.093124855
2020-02-20T00:25:00	0.3527	3.234		0.960161245	1.324716819	0.029815663	0.307602701	0.094806140
2020-02-20T00:30:00	0.3547	3.234		0.966140044	1.335416322	0.030181122	0.311373069	0.095968204
2020-02-20T00:35:00	0.3547	3.230		0.966054243	1.335262535	0.030175859	0.311318778	0.095951471
2020-02-20T00:40:00	0.3523	3.223		0.958689384	1.322088014	0.029726079	0.306678473	0.094521284
2020-02-20T00:45:00	0.3506	3.223		0.953743412	1.313269321	0.029426152	0.303584186	0.093567595
2020-02-20T00:50:00	0.3503	3.223		0.952745434	1.311492726	0.029365841	0.302961970	0.093375821
2020-02-20T00:55:00	0.3521	3.220		0.958127913	1.321085742	0.029691945	0.306326319	0.094412747
2020-02-20T01:00:00	0.3553	3.216		0.967746013	1.338296100	0.030279715	0.312390236	0.096281705
2020-02-20T01:05:00	0.3571	3.216		0.973411311	1.348474521	0.030628964	0.315993379	0.097392228
2020-02-20T01:10:00	0.3529	3.215		0.960601710	1.325503907	0.029842501	0.307879586	0.094891479
2020-02-20T01:15:00	0.3558	3.214		0.969305777	1.341095369	0.030375645	0.313379927	0.096586737
2020-02-20T01:20:00	0.3573	3.213		0.974061743	1.349645056	0.030669206	0.316408546	0.097520187
2020-02-20T01:25:00	0.3555	3.211		0.968528678	1.339700441	0.030327830	0.312886628	0.096434697
2020-02-20T01:30:00	0.3567	3.208		0.972075424	1.346071683	0.030546407	0.315141653	0.097129718
2020-02-20T01:35:00	0.3567	3.208		0.971989747	1.345917634	0.030541117	0.315087072	0.097112896
2020-02-20T01:40:00	0.3554	3.207		0.968271420	1.339238776	0.030312010	0.312723417	0.096384394
2020-02-20T01:45:00	0.3551	3.203		0.967276980	1.337454790	0.030250901	0.312092973	0.096190085
2020-02-20T01:50:00	0.3552	3.197		0.967494125	1.337844261	0.030264239	0.312230576	0.096232496
2020-02-20T01:55:00	0.3577	3.195		0.975276689	1.351832584	0.030744454	0.317184862	0.097759455
2020-02-20T02:00:00	0.3557	3.187		0.969139724	1.340797248	0.030365424	0.313274481	0.096554237
2020-02-20T02:05:00	0.3532	3.177		0.961477069	1.327068675	0.029895879	0.308430272	0.095061205
2020-02-20T02:10:00	0.3516	3.165		0.956534472	1.318242948	0.029595193	0.305328155	0.094105103
2020-02-20T02:15:00	0.3544	3.154		0.965247179	1.333816320	0.030126386	0.310808366	0.095794157
2020-02-20T02:20:00	0.3547	3.145		0.966070511	1.335291693	0.030176857	0.311329072	0.095954643
2020-02-20T02:25:00	0.3588	3.135		0.978389922	1.357444423	0.030937747	0.319179030	0.098374077
2020-02-20T02:30:00	0.3565	3.127		0.971652436	1.345311214	0.030520293	0.314872237	0.097046682
2020-02-20T02:35:00	0.3559	3.120		0.969750678	1.341894246	0.030403039	0.313662546	0.096673843
2020-02-20T02:40:00	0.3532	3.111		0.961482497	1.327078381	0.029896210	0.308433689	0.095062258
2020-02-20T02:45:00	0.3552	3.101		0.967459371	1.337781922	0.030262104	0.312208550	0.096225707
2020-02-20T02:50:00	0.3509	3.090		0.954631117	1.314850399	0.029479857	0.304138252	0.093738363
2020-02-20T02:55:00	0.3532	3.083		0.961528160	1.327160027	0.029898996	0.308462431	0.095071117
2020-02-20T03:00:00	0.3555	3.080		0.968413600	1.339493919	0.030320752	0.312813613	0.096412194
2020-02-20T03:05:00	0.3527	3.076		0.960142719	1.324683719	0.029814535	0.307591058	0.094802551
2020-02-20T03:10:00	0.3522	3.069		0.958539199	1.321819891	0.029716946	0.306584255	0.094492245
2020-02-20T03:15:00	0.3489	3.063		0.948422735	1.303808350	0.029105409	0.300275137	0.092547714
2020-02-20T03:20:00	0.3534	3.055		0.962008708	1.328019373	0.029928323	0.308764995	0.095164370
2020-02-20T03:25:00	0.3523	3.045		0.958888455	1.322443442	0.029738186	0.306803384	0.094559783
2020-02-20T03:30:00	0.3517	3.034		0.956980763	1.319038915	0.029622274	0.305607536	0.094191211
2020-02-20T03:35:00	0.3494	3.026		0.949903747	1.306439128	0.029194490	0.301194168	0.092830968
2020-02-20T03:40:00	0.3511	3.021		0.955289973	1.316024360	0.029519753	0.304549848	0.093865221
2020-02-20T03:45:00	0.3510	3.015		0.954900110	1.315329645	0.029496142	0.304306257	0.093790144
2020-02-20T03:50:00	0.3524	3.006		0.959065788	1.322760091	0.029748974	0.306914680	0.094594085
2020-02-20T03:55:00	0.3509	2.996		0.954424164	1.314481731	0.029467332	0.304009030	0.093698536
2020-02-20T04:00:00	0.3539	2.985		0.963747786	1.331131131	0.030034593	0.309861354	0.095502279
2020-02-20T04:05:00	0.3522	2.974		0.958455954	1.321671286	0.029711885	0.306532039	0.094476151
2020-02-20T04:10:00	0.3538	2.962		0.963479375	1.330650672	0.030018177	0.309691998	0.095450082
2020-02-20T04:15:00	0.3538	2.947		0.963345163	1.330410456	0.030009971	0.309607336	0.095423988
2020-02-20T04:20:00	0.3513	2.932		0.955623198	1.316618261	0.029539942	0.304758136	0.093929417
2020-02-20T04:25:00	0.3525	2.916		0.959436244	1.323421680	0.029771517	0.307147254	0.094665767
2020-02-20T04:30:00	0.3497	2.899		0.950794527	1.308022453	0.029248142	0.301747694	0.093001570
2020-02-20T04:35:00	0.3513	2.881		0.955827372	1.316982210	0.029552316	0.304885799	0.093968764
2020-02-20T04:40:00	0.3483	2.863		0.946569108	1.300518599	0.028994131	0.299127103	0.092193878
2020-02-20T04:45:00	0.3485	2.846		0.947347669	1.301899967	0.029040841	0.299609000	0.092342404
2020-02-20T04:50:00	0.3519	2.830		0.957550062	1.320054543	0.029656838	0.305964130	0.094301116
2020-02-20T04:55:00	0.3541	2.814		0.964393844	1.332287864	0.030074125	0.310269203	0.095627982
2020-02-20T05:00:00	0.3521	2.796		0.958192148	1.321200391	0.029695849	0.306366596	0.094425160
2020-02-20T05:05:00	0.3527	2.779		0.959879021	1.324212597	0.029798474	0.307425362	0.094751482
2020-02-20T05:10:00	0.3488	2.763		0.948195921	1.303405634	0.029091780	0.300134529	0.092504377
2020-02-20T05:15:00	0.3490	2.747		0.948669872	1.304247205	0.029120263	0.300428387	0.092594946
2020-02-20T05:20:00	0.3523	2.731		0.958868961	1.322408635	0.029737000	0.306791151	0.094556012
2020-02-20T05:25:00	0.3534	2.715		0.962072401	1.328133289	0.029932212	0.308805110	0.095176734
2020-02-20T05:30:00	0.3525	2.699		0.959510840	1.323554915	0.029776058	0.307194098	0.094680204
2020-02-20T05:35:00	0.3502	2.680		0.952389729	1.310859729	0.029344362	0.302740369	0.093307522
2020-02-20T05:40:00	0.3510	2.663		0.954990619	1.315490915	0.029501622	0.304362799	0.093807570
2020-02-20T05:45:00	0.3526	2.645		0.959714820	1.323919269	0.029788476	0.307322211	0.094719690
2020-02-20T05:50:00	0.3506	2.627		0.953506016	1.312846623	0.029411799	0.303436110	0.093521956
2020-02-20T05:55:00	0.3474	2.610		0.943937812	1.295854238	0.028836578	0.297501656	0.091692900
2020-02-20T06:00:00	0.3459	2.592		0.939230256	1.287525674	0.028555905	0.294606003	0.090800431
2020-02-20T06:05:00	0.3484	2.577		0.947018249	1.301315423	0.029021072	0.299405050	0.092279544
2020-02-20T06:10:00	0.3496	2.561		0.950535186	1.307561407	0.029232516	0.301586482	0.092951883
2020-02-20T06:15:00	0.3479	2.547		0.945530736	1.298677152	0.028931899	0.298485070	0.091995997
2020-02-20T06:20:00	0.3497	2.533		0.950874242	1.308164179	0.029252946	0.301797256	0.093016845
2020-02-20T06:25:00	0.3500	2.517		0.951956057	1.310088149	0.029318186	0.302470319	0.093224290
2020-02-20T06:30:00	0.3482	2.503		0.946344432	1.300120073	0.028980659	0.298988118	0.092151042
2020-02-20T06:35:00	0.3485	2.493		0.947123036	1.301501352	0.029027360	0.299469917	0.092299537
2020-02-20T06:40:00	0.3535	2.487		0.962485042	1.328871400	0.029957409	0.309065071	0.095256857
2020-02-20T06:45:00	0.3485	2.481		0.947157965	1.301563330	0.029029455	0.299491541	0.092306202
2020-02-20T06:50:00	0.3521	2.479		0.958271718	1.321342417	0.029700685	0.306416492	0.094440539
2020-02-20T06:55:00	0.3492	2.477		0.949323282	1.305407780	0.029159557	0.300833777	0.092719892
2020-02-20T07:00:00	0.3486	2.476		0.947666961	1.302466638	0.029060009	0.299806754	0.092403353
2020-02-20T07:05:00	0.3522	2.479		0.958475760	1.321706642	0.029713089	0.306544461	0.094479980
2020-02-20T07:10:00	0.3514	2.488		0.956215702	1.317674533	0.029575860	0.305128690	0.094043626
2020-02-20T07:15:00	0.3513	2.495		0.955777482	1.316893276	0.029549292	0.304854602	0.093959149
2020-02-20T07:20:00	0.3524	2.501		0.958983345	1.322612876	0.029743958	0.306862935	0.094578137
2020-02-20T07:25:00	0.3541	2.509		0.964309277	1.332136428	0.030068949	0.310215800	0.095611522
2020-02-20T07:30:00	0.3503	2.519		0.952638863	1.311303065	0.029359405	0.302895568	0.093355356
2020-02-20T07:35:00	0.3514	2.529		0.956150955	1.317559089	0.029571933	0.305088185	0.094031141
2020-02-20T07:40:00	0.3541	2.540		0.964209875	1.331958436	0.030062865	0.310153035	0.095592177
2020-02-20T07:45:00	0.3527	2.552		0.960132648	1.324665726	0.029813921	0.307584729	0.094800601
2020-02-20T07:50:00	0.3511	2.565		0.955139972	1.315757049	0.029510667	0.304456113	0.093836331
2020-02-20T07:55:00	0.3523	2.582		0.958649913	1.322017545	0.029723678	0.306653709	0.094513651
2020-02-20T08:00:00	0.3557	2.598		0.969126966	1.340774345	0.030364639	0.313266380	0.096551741
2020-02-20T08:05:00	0.3547	2.616		0.965963807	1.335100448	0.030170313	0.311261560	0.095933836
2020-02-20T08:10:00	0.3526	2.634		0.959764490	1.324007996	0.029791500	0.307353412	0.094729307
2020-02-20T08:15:00	0.3509	2.653		0.954467497	1.314558921	0.029469954	0.304036085	0.093706874
2020-02-20T08:20:00	0.3501	2.673		0.952205218	1.310531430	0.029333223	0.302625457	0.093272105
2020-02-20T08:25:00	0.3516	2.694		0.956628935	1.318411410	0.029600924	0.305387277	0.094123325
2020-02-20T08:30:00	0.3533	2.712		0.961957931	1.327928560	0.029925224	0.308733017	0.095154514
2020-02-20T08:35:00	0.3542	2.733		0.964552742	1.332572423	0.030083852	0.310369560	0.095658913
2020-02-20T08:40:00	0.3512	2.759		0.955314268	1.316067656	0.029521224	0.304565031	0.093869900
2020-02-20T08:45:00	0.3518	2.781		0.957306007	1.319619114	0.029642018	0.305811232	0.094253992
2020-02-20T08:50:00	0.3519	2.809		0.957475258	1.319921076	0.029652295	0.305917261	0.094286671
2020-02-20T08:55:00	0.3493	2.835		0.949742176	1.306152023	0.029184764	0.301093830	0.092800043
2020-02-20T09:00:00	0.3520	2.863		0.957813738	1.320525045	0.029672854	0.306129369	0.094352045
2020-02-20T09:05:00	0.3490	2.891		0.948864296	1.304592496	0.029131952	0.300548980	0.092632115
2020-02-20T09:10:00	0.3494	2.916		0.949946645	1.306515361	0.029197072	0.301220812	0.092839180
2020-02-20T09:15:00	0.3522	2.940		0.958624985	1.321973041	0.029722162	0.306638071	0.094508831
2020-02-20T09:20:00	0.3534	2.968		0.962131936	1.328239773	0.029935846	0.308842609	0.095188292
2020-02-20T09:25:00	0.3494	2.999		0.949846893	1.306338098	0.029191067	0.301158858	0.092820085
2020-02-20T09:30:00	0.3523	3.033		0.958829010	1.322337303	0.029734570	0.306766081	0.094548285
2020-02-20T09:35:00	0.3531	3.066		0.961122432	1.326434649	0.029874248	0.308207105	0.094992423
2020-02-20T09:40:00	0.3493	3.100		0.949747138	1.306160840	0.029185063	0.301096911	0.092800992
2020-02-20T09:45:00	0.3534	3.133		0.962067282	1.328124134	0.029931899	0.308801886	0.095175740
2020-02-20T09:50:00	0.3517	3.168		0.957076970	1.319210527	0.029628113	0.305667781	0.094209779
2020-02-20T09:55:00	0.3523	3.203		0.958764303	1.322221773	0.029730635	0.306725479	0.094535772
2020-02-20T10:00:00	0.3489	3.239		0.948599868	1.304122890	0.029116055	0.300384973	0.092581566
2020-02-20T10:05:00	0.3504	3.275		0.953105412	1.312133448	0.029387588	0.303186325	0.093444970
2020-02-20T10:10:00	0.3542	3.316		0.964583848	1.332628131	0.030085757	0.310389208	0.095664968
2020-02-20T10:15:00	0.3526	3.352		0.959674396	1.323847059	0.029786014	0.307296820	0.094711864
2020-02-20T10:20:00	0.3522	3.396		0.958403690	1.321577988	0.029708707	0.306499257	0.094466048
2020-02-20T10:25:00	0.3543	3.434		0.964717539	1.332867571	0.030093943	0.310473661	0.095690998
2020-02-20T10:30:00	0.3522	3.472		0.958594144	1.321917980	0.029720287	0.306618722	0.094502868
2020-02-20T10:35:00	0.3542	3.503		0.964604585	1.332665270	0.030087027	0.310402307	0.095669006
2020-02-20T10:40:00	0.3539	3.549		0.963638617	1.330935710	0.030027915	0.309792467	0.095481047
2020-02-20T10:45:00	0.3548	3.582		0.966310028	1.335721017	0.030191549	0.311480643	0.096001359
2020-02-20T10:50:00	0.3553	3.618		0.967768312	1.338336103	0.030281085	0.312404373	0.096286062
2020-02-20T10:55:00	0.3563	3.647		0.971042381	1.344214729	0.030482652	0.314483901	0.096926993
2020-02-20T11:00:00	0.3530	3.681		0.960986218	1.326191155	0.029865941	0.308121412	0.094966012
2020-02-20T11:05:00	0.3526	3.725		0.959715920	1.323921234	0.029788543	0.307322902	0.094719903
2020-02-20T11:10:00	0.3549	3.770		0.966633743	1.336301349	0.030211411	0.311685563	0.096064518
2020-02-20T11:15:00	0.3535	3.809		0.962333381	1.328600098	0.029948147	0.308969511	0.095227404
2020-02-20T11:20:00	0.3543	3.839		0.965005643	1.333383622	0.030111588	0.310655703	0.095747105
2020-02-20T11:25:00	0.3515	3.862		0.956453561	1.318098662	0.029590285	0.305277519	0.094089496
2020-02-20T11:30:00	0.3507	3.886		0.953966372	1.313666361	0.029439636	0.303723294	0.093610469
2020-02-20T11:35:00	0.3525	3.905		0.959376635	1.323315217	0.029767889	0.307109825	0.094654231
2020-02-20T11:40:00	0.3551	3.922		0.967203932	1.337323782	0.030246415	0.312046691	0.096175821
2020-02-20T11:45:00	0.3529	3.940		0.960477438	1.325281823	0.029834928	0.307801453	0.094867397
2020-02-20T11:50:00	0.3541	3.966		0.964363664	1.332233819	0.030072278	0.310250144	0.095622107
2020-02-20T11:55:00	0.3547	3.993		0.966125664	1.335390547	0.030180240	0.311363970	0.095965399
2020-02-20T12:00:00	0.3544	4.021		0.965160055	1.333660235	0.030121047	0.310753294	0.095777183
2020-02-20T12:05:00	0.3563	4.045		0.970858230	1.343883813	0.030471295	0.314366731	0.096890880
2020-02-20T12:10:00	0.3553	4.061		0.967774041	1.338346381	0.030281437	0.312408005	0.096287181
2020-02-20T12:15:00	0.3534	4.072		0.962261860	1.328472163	0.029943779	0.308924452	0.095213516
2020-02-20T12:20:00	0.3544	4.082		0.965237258	1.333798547	0.030125778	0.310802095	0.095792224
2020-02-20T12:25:00	0.3532	4.096		0.961542179	1.327185093	0.029899851	0.308471255	0.095073837
2020-02-20T12:30:00	0.3560	4.111		0.969970848	1.342289658	0.030416600	0.313802460	0.096716966
2020-02-20T12:35:00	0.3565	4.127		0.971427832	1.344907480	0.030506432	0.314729232	0.097002606
2020-02-20T12:40:00	0.3539	4.146		0.963798815	1.331222482	0.030037714	0.309893557	0.095512204
2020-02-20T12:45:00	0.3570	4.163		0.973130444	1.347969187	0.030611596	0.315814198	0.097337003
2020-02-20T12:50:00	0.3579	4.179		0.975795690	1.352767483	0.030776630	0.317516816	0.097861766
2020-02-20T12:55:00	0.3542	4.199		0.964538837	1.332547520	0.030083001	0.310360777	0.095656206
2020-02-20T13:00:00	0.3583	4.217		0.976892100	1.354743333	0.030844665	0.318218726	0.098078102
2020-02-20T13:05:00	0.3575	4.233		0.974417284	1.350285067	0.030691216	0.316635615	0.097590172
2020-02-20T13:10:00	0.3552	4.245		0.967702614	1.338218247	0.030277048	0.312362725	0.096273225
2020-02-20T13:15:00	0.3565	4.257		0.971582002	1.345184602	0.030515946	0.314827388	0.097032859
2020-02-20T13:20:00	0.3573	4.268		0.973945826	1.349436419	0.030662032	0.316334534	0.097497376
2020-02-20T13:25:00	0.3561	4.279		0.970258583	1.342806484	0.030434329	0.313985363	0.096773338
2020-02-20T13:30:00	0.3567	4.294		0.972018055	1.345968532	0.030542865	0.315105105	0.097118454
2020-02-20T13:35:00	0.3570	4.311		0.973171831	1.348043647	0.030614155	0.315840598	0.097345140
2020-02-20T13:40:00	0.3558	4.326		0.969483894	1.341415179	0.030386610	0.313493057	0.096621605
2020-02-20T13:45:00	0.3572	4.342		0.973664069	1.348929343	0.030644599	0.316154676	0.097441942
2020-02-20T13:50:00	0.3548	4.354		0.966342219	1.335778722	0.030193524	0.311501017	0.096007639
2020-02-20T13:55:00	0.3583	4.367		0.976877141	1.354716368	0.030843737	0.318209144	0.098075149
2020-02-20T14:00:00	0.3530	4.381		0.961074978	1.326349818	0.029871354	0.308177249	0.094983221
2020-02-20T14:05:00	0.3546	4.393		0.965869833	1.334932029	0.030164551	0.311202110	0.095915513
2020-02-20T14:10:00	0.3534	4.402		0.962175325	1.328317379	0.029938496	0.308869940	0.095196715
2020-02-20T14:15:00	0.3531	4.408		0.961208783	1.326589018	0.029879514	0.308261436	0.095009168
2020-02-20T14:20:00	0.3542	4.415		0.964488092	1.332456642	0.030079894	0.310328726	0.095646327
2020-02-20T14:25:00	0.3548	4.424		0.966250039	1.335613483	0.030187869	0.311442676	0.095989658
2020-02-20T14:30:00	0.3523	4.430		0.958914928	1.322490711	0.029739796	0.306819998	0.094564903
2020-02-20T14:35:00	0.3542	4.435		0.964621786	1.332696076	0.030088080	0.310413172	0.095672354
2020-02-20T14:40:00	0.3547	4.441		0.966080670	1.335309901	0.030177480	0.311335499	0.095956625
2020-02-20T14:45:00	0.3543	4.444		0.964811951	1.333036672	0.030099725	0.310533310	0.095709382
2020-02-20T14:50:00	0.3537	4.445		0.962936386	1.329678924	0.029984984	0.309349555	0.095344537
2020-02-20T14:55:00	0.3522	4.447		0.958632137	1.321985809	0.029722597	0.306642557	0.094510214
2020-02-20T15:00:00	0.3549	4.450		0.966763833	1.336534592	0.030219396	0.311767934	0.096089905
2020-02-20T15:05:00	0.3530	4.454		0.960946907	1.326120885	0.029863544	0.308096683	0.094958390
2020-02-20T15:10:00	0.3550	4.460		0.966953899	1.336875397	0.030231063	0.311888304	0.096127004
2020-02-20T15:15:00	0.3544	4.464		0.965079314	1.333515593	0.030116101	0.310702262	0.095761455
2020-02-20T15:20:00	0.3532	4.469		0.961384092	1.326902437	0.029890207	0.308371754	0.095043170
2020-02-20T15:25:00	0.3565	4.470		0.971629129	1.345269318	0.030518855	0.314857397	0.097042107
2020-02-20T15:30:00	0.3567	4.468		0.972177926	1.346255991	0.030552737	0.315206960	0.097149846
2020-02-20T15:35:00	0.3530	4.469		0.960911134	1.326056943	0.029861363	0.308074181	0.094951455
2020-02-20T15:40:00	0.3524	4.468		0.959033780	1.322702936	0.029747027	0.306894590	0.094587893
2020-02-20T15:45:00	0.3537	4.465		0.962921376	1.329652066	0.029984067	0.309340092	0.095341621
2020-02-20T15:50:00	0.3554	4.459		0.968319820	1.339325628	0.030314986	0.312754119	0.096393857
2020-02-20T15:55:00	0.3550	4.455		0.967051793	1.337050944	0.030237073	0.311950311	0.096146116
2020-02-20T16:00:00	0.3571	4.454		0.973352351	1.348368433	0.030625318	0.315955760	0.097380634
2020-02-20T16:05:00	0.3544	4.451		0.965069736	1.333498435	0.030115514	0.310696208	0.095759589
2020-02-20T16:10:00	0.3564	4.448		0.971322364	1.344717913	0.030499924	0.314662093	0.096981913
2020-02-20T16:15:00	0.3593	4.443		0.979982154	1.360318111	0.031036869	0.320201653	0.098689259
2020-02-20T16:20:00	0.3603	4.440		0.982893937	1.365579598	0.031218601	0.322076548	0.099267120
2020-02-20T16:25:00	0.3586	4.435		0.977955433	1.356660670	0.030910729	0.318900296	0.098288168
2020-02-20T16:30:00	0.3598	4.429		0.981472461	1.363010031	0.031129808	0.321160488	0.098984782
2020-02-20T16:35:00	0.3612	4.426		0.985589707	1.370457967	0.031387385	0.323817865	0.099803811
2020-02-20T16:40:00	0.3606	4.419		0.983974486	1.367534168	0.031286193	0.322773885	0.099482046
2020-02-20T16:45:00	0.3608	4.412		0.984470834	1.368432370	0.031317269	0.323094492	0.099580860
2020-02-20T16:50:00	0.3600	4.407		0.982251564	1.364418158	0.031178457	0.321662393	0.099139473
2020-02-20T16:55:00	0.3636	4.395		0.992996334	1.383897025	0.031853771	0.328629479	0.101286797
2020-02-20T17:00:00	0.3606	4.383		0.983848083	1.367305464	0.031278282	0.322692266	0.099456890
2020-02-20T17:05:00	0.3605	4.370		0.983741052	1.367111823	0.031271584	0.322623165	0.099435593
2020-02-20T17:10:00	0.3612	4.357		0.985745569	1.370740233	0.031397159	0.323918705	0.099834891
2020-02-20T17:15:00	0.3637	4.344		0.993171250	1.384215037	0.031864832	0.328743596	0.101321969
2020-02-20T17:20:00	0.3601	4.331		0.982514617	1.364893722	0.031194892	0.321831954	0.099191734
2020-02-20T17:25:00	0.3629	4.316		0.990849793	1.379996807	0.031718205	0.327230876	0.100855734
2020-02-20T17:30:00	0.3625	4.302		0.989537932	1.377615352	0.031635515	0.326377780	0.100592801
2020-02-20T17:35:00	0.3608	4.290		0.984607366	1.368679482	0.031325820	0.323182713	0.099608051
2020-02-20T17:40:00	0.3603	4.277		0.982991761	1.365756503	0.031224716	0.322139644	0.099286567
2020-02-20T17:45:00	0.3680	4.266		1.006057008	1.407723125	0.032685687	0.337212204	0.103932076
2020-02-20T17:50:00	0.3634	4.252		0.992423663	1.382856064	0.031817571	0.328256019	0.101171693
2020-02-20T17:55:00	0.3632	4.243		0.991714621	1.381567650	0.031772784	0.327793958	0.101029281
2020-02-20T18:00:00	0.3610	4.234		0.984977270	1.369349069	0.031348995	0.323421799	0.099681740
2020-02-20T18:05:00	0.3651	4.222		0.997519679	1.392130285	0.032140515	0.331587773	0.102198572
2020-02-20T18:10:00	0.3660	4.210		1.000118652	1.396869724	0.032305929	0.333294311	0.102724544
2020-02-20T18:15:00	0.3694	4.200		1.010517612	1.415897947	0.032972599	0.340172229	0.104844385
2020-02-20T18:20:00	0.3669	4.189		1.002909796	1.401966821	0.032484109	0.335132565	0.103291111
2020-02-20T18:25:00	0.3660	4.176		1.000099351	1.396834505	0.032304699	0.333281620	0.102720632
2020-02-20T18:30:00	0.3690	4.166		1.009299055	1.413662833	0.032894079	0.339362145	0.104594709
2020-02-20T18:35:00	0.3684	4.156		1.007393029	1.410169606	0.032771472	0.338097238	0.104204852
2020-02-20T18:40:00	0.3677	4.145		1.005185979	1.406129045	0.032629827	0.336635908	0.103754456
2020-02-20T18:45:00	0.3705	4.138		1.013775439	1.421880569	0.033183048	0.342343386	0.105513556
2020-02-20T18:50:00	0.3695	4.132		1.010672542	1.416182228	0.032982590	0.340275303	0.104876153
2020-02-20T18:55:00	0.3700	4.126		1.012064823	1.418737948	0.033072451	0.341202379	0.105161887
2020-02-20T19:00:00	0.3686	4.120		1.008060879	1.411393196	0.032814403	0.338540142	0.104341360
2020-02-20T19:05:00	0.3671	4.115		1.003452557	1.402958860	0.032518822	0.335490694	0.103401490
2020-02-20T19:10:00	0.3710	4.109		1.015041230	1.424207803	0.033265020	0.343189081	0.105774208
2020-02-20T19:15:00	0.3704	4.105		1.013437403	1.421259330	0.033161176	0.342117739	0.105444010
2020-02-20T19:20:00	0.3713	4.102		1.016026486	1.426020326	0.033328905	0.343848168	0.105977345
2020-02-20T19:25:00	0.3704	4.099		1.013524434	1.421419264	0.033166806	0.342175826	0.105461913
2020-02-20T19:30:00	0.3683	4.096		1.007122372	1.409673849	0.032754083	0.337917838	0.104149559
2020-02-20T19:35:00	0.3678	4.093		1.005515504	1.406732027	0.032650953	0.336853865	0.103821633
2020-02-20T19:40:00	0.3635	4.089		0.992783663	1.383510410	0.031840325	0.328490760	0.101244043
2020-02-20T19:45:00	0.3710	4.085		1.015195992	1.424492450	0.033275050	0.343292562	0.105806102
2020-02-20T19:50:00	0.3719	4.081		1.017783990	1.429255833	0.033443036	0.345025634	0.106340251
2020-02-20T19:55:00	0.3714	4.078		1.016480579	1.426856010	0.033358372	0.344152174	0.106071043
2020-02-20T20:00:00	0.3713	4.075		1.016075011	1.426109618	0.033332053	0.343880647	0.105987355
2020-02-20T20:05:00	0.3694	4.072		1.010276496	1.415455572	0.032957054	0.340011851	0.104794954
2020-02-20T20:10:00	0.3705	4.068		1.013766279	1.421863733	0.033182455	0.342337270	0.105511671
2020-02-20T20:15:00	0.3731	4.067		1.021441265	1.435998304	0.033681247	0.347483221	0.107097703
2020-02-20T20:20:00	0.3695	4.064		1.010557032	1.415970278	0.032975141	0.340198454	0.104852467
2020-02-20T20:25:00	0.3733	4.060		1.022126078	1.437262245	0.033725959	0.347944500	0.107239874
2020-02-20T20:30:00	0.3707	4.056		1.014239851	1.422734240	0.033213110	0.342653529	0.105609146
2020-02-20T20:35:00	0.3713	4.053		1.015930352	1.425843431	0.033322668	0.343783827	0.105957514
2020-02-20T20:40:00	0.3722	4.051		1.018817095	1.431159136	0.033510228	0.345718846	0.106553906
2020-02-20T20:45:00	0.3718	4.047		1.017514005	1.428758606	0.033425489	0.344844604	0.106284456
2020-02-20T20:50:00	0.3675	4.045		1.004818788	1.405457265	0.032606295	0.336393133	0.103679631
2020-02-20T20:55:00	0.3699	4.043		1.011910861	1.418455238	0.033062507	0.341099790	0.105130268
2020-02-20T21:00:00	0.3717	4.041		1.017195491	1.428172095	0.033404794	0.344631105	0.106218654
2020-02-20T21:05:00	0.3708	4.039		1.014694137	1.423569498	0.033242531	0.342957065	0.105702698
2020-02-20T21:10:00	0.3717	4.036		1.017282444	1.428332200	0.033410443	0.344689382	0.106236615
2020-02-20T21:15:00	0.3718	4.033		1.017475565	1.428687817	0.033422991	0.344818834	0.106276513
2020-02-20T21:20:00	0.3702	4.030		1.012877613	1.420230797	0.033124974	0.341744253	0.105328898
2020-02-20T21:25:00	0.3671	4.026		1.003472760	1.402995792	0.032520115	0.335504028	0.103405600
2020-02-20T21:30:00	0.3684	4.024		1.007268254	1.409941049	0.032763455	0.338014526	0.104179360
2020-02-20T21:35:00	0.3645	4.023		0.995745341	1.388898351	0.032027863	0.330425556	0.101840366
2020-02-20T21:40:00	0.3689	4.021		1.008855188	1.412849034	0.032865503	0.339067340	0.104503847
2020-02-20T21:45:00	0.3658	4.018		0.999441255	1.395633812	0.032262769	0.332849041	0.102587307
2020-02-20T21:50:00	0.3663	4.016		1.001137756	1.398729912	0.032370922	0.333964831	0.102931204
2020-02-20T21:55:00	0.3644	4.013		0.995318430	1.388121189	0.032000792	0.330146268	0.101754286
2020-02-20T22:00:00	0.3630	4.009		0.991298347	1.380811455	0.031746507	0.327522858	0.100945726
2020-02-20T22:05:00	0.3634	4.008		0.992359278	1.382739048	0.031813503	0.328214046	0.101158756
2020-02-20T22:10:00	0.3622	4.005		0.988600902	1.375915346	0.031576527	0.325769205	0.100405233
2020-02-20T22:15:00	0.3608	4.003		0.984537461	1.368552957	0.031321442	0.323137541	0.099594129
2020-02-20T22:20:00	0.3548	4.001		0.966253471	1.335619635	0.030188079	0.311444848	0.095990327
2020-02-20T22:25:00	0.3576	3.998		0.974887009	1.351130808	0.030720308	0.316935751	0.097682676
2020-02-20T22:30:00	0.3567	3.996		0.972020522	1.345972968	0.030543017	0.315106677	0.097118938
2020-02-20T22:35:00	0.3517	3.994		0.957022520	1.319113401	0.029624808	0.305633684	0.094199270
2020-02-20T22:40:00	0.3533	3.992		0.961733998	1.327528093	0.029911556	0.308592011	0.095111055
2020-02-20T22:45:00	0.3480	3.992		0.945784672	1.299127387	0.028947111	0.298642008	0.092044367
2020-02-20T22:50:00	0.3485	3.989		0.947161861	1.301570244	0.029029689	0.299493953	0.092306945
2020-02-20T22:55:00	0.3482	3.987		0.946407784	1.300232441	0.028984457	0.299027304	0.092163119
2020-02-20T23:00:00	0.3445	3.985		0.934980776	1.280025450	0.028303862	0.292005728	0.089999001
2020-02-20T23:05:00	0.3419	3.982		0.927194214	1.266326398	0.027845271	0.287274524	0.088540798
2020-02-20T23:10:00	0.3410	3.977		0.924293941	1.261238431	0.027675528	0.285523316	0.088001059
2020-02-20T23:15:00	0.3392	3.975		0.918939879	1.251866463	0.027363693	0.282306179	0.087009506
2020-02-20T23:20:00	0.3396	3.973		0.920019780	1.253754606	0.027426431	0.282953430	0.087208995
2020-02-20T23:25:00	0.3372	3.973		0.912818298	1.241183847	0.027009569	0.278652740	0.085883481
2020-02-20T23:30:00	0.3342	3.971		0.903450228	1.224903568	0.026472606	0.273112996	0.084176078
2020-02-20T23:35:00	0.3331	3.970		0.900224744	1.219317083	0.026289113	0.271219931	0.083592617
2020-02-20T23:40:00	0.3309	3.971		0.893296020	1.207349339	0.025897342	0.267178102	0.082346886
2020-02-20T23:45:00	0.3272	3.970		0.882025863	1.187977881	0.025267050	0.260675499	0.080342720
2020-02-20T23:50:00	0.3238	3.968		0.871344050	1.169726054	0.024677581	0.254594053	0.078468360
2020-02-20T23:55:00	0.3243	3.967		0.872747091	1.172117403	0.024754569	0.255388321	0.078713161
2020-02-21T00:00:00	0.3165	3.966		0.848644991	1.131289075	0.023450365	0.241933091	0.074566128
2020-02-21T00:05:00	0.3207	3.966		0.861580760	1.153135632	0.024145509	0.249104763	0.076776507
2020-02-21T00:10:00	0.3175	3.965		0.851778664	1.136567307	0.023617738	0.243659852	0.075098333
2020-02-21T00:15:00	0.3157	3.965		0.846013383	1.126863434	0.023310312	0.240488190	0.074120796
2020-02-21T00:20:00	0.3165	3.965		0.848673902	1.131337730	0.023451906	0.241948991	0.074571029
2020-02-21T00:25:00	0.3165	3.966		0.848525104	1.131087320	0.023443974	0.241867163	0.074545809
2020-02-21T00:30:00	0.3120	3.966		0.834620996	1.107777472	0.022709315	0.234287820	0.072209782
2020-02-21T00:35:00	0.3172	3.964		0.850723341	1.134788761	0.023561299	0.243077580	0.074918871
2020-02-21T00:40:00	0.3117	3.965		0.833695869	1.106232775	0.022660888	0.233788207	0.072055796
2020-02-21T00:45:00	0.3119	3.965		0.834172969	1.107029299	0.022685856	0.234045791	0.072135186
2020-02-21T00:50:00	0.3112	3.964		0.832143824	1.103643050	0.022579771	0.232951337	0.071797864
2020-02-21T00:55:00	0.3104	3.964		0.829486486	1.099214131	0.022441256	0.231522298	0.071357421
2020-02-21T01:00:00	0.3097	3.965		0.827454883	1.095832436	0.022335671	0.230433002	0.071021689
2020-02-21T01:05:00	0.3065	3.965		0.817251662	1.078905324	0.021809507	0.225004666	0.069348623
2020-02-21T01:10:00	0.3078	3.966		0.821503501	1.085947647	0.022027936	0.227258157	0.070043171
2020-02-21T01:15:00	0.3053	3.967		0.813489376	1.072687487	0.021617217	0.223020841	0.068737189
2020-02-21T01:20:00	0.3031	3.968		0.806720513	1.061532949	0.021273593	0.219475741	0.067644555
2020-02-21T01:25:00	0.3016	3.969		0.801835257	1.053508108	0.021027451	0.216936332	0.066861884
2020-02-21T01:30:00	0.2997	3.969		0.795994872	1.043942496	0.020735224	0.213921484	0.065932679
2020-02-21T01:35:00	0.3003	3.968		0.797741636	1.046800201	0.020822392	0.214820777	0.066209850
2020-02-21T01:40:00	0.2994	3.968		0.794743986	1.041897730	0.020672924	0.213278742	0.065734580
2020-02-21T01:45:00	0.2996	3.969		0.795542326	1.043202577	0.020712673	0.213688831	0.065860973
2020-02-21T01:50:00	0.2992	3.970		0.794125719	1.040887598	0.020642168	0.212961446	0.065636786
2020-02-21T01:55:00	0.2989	3.970		0.793341747	1.039607227	0.020603206	0.212559478	0.065512895
2020-02-21T02:00:00	0.3021	3.971		0.803307514	1.055924271	0.021101466	0.217699937	0.067097235
2020-02-21T02:05:00	0.2977	3.970		0.789555885	1.033431973	0.020415614	0.210624129	0.064916402
2020-02-21T02:10:00	0.2980	3.969		0.790355312	1.034734876	0.020455149	0.211032001	0.065042112
2020-02-21T02:15:00	0.3009	3.968		0.799696861	1.050002200	0.020920197	0.215829820	0.066520847
2020-02-21T02:20:00	0.3007	3.966		0.798914032	1.048719777	0.020881008	0.215425513	0.066396235
2020-02-21T02:25:00	0.3015	3.963		0.801607189	1.053133994	0.021015998	0.216818172	0.066825466
2020-02-21T02:30:00	0.3016	3.959		0.801772437	1.053405056	0.021024296	0.216903782	0.066851852
2020-02-21T02:35:00	0.3025	3.956		0.804779205	1.058341455	0.021175595	0.218464706	0.067332944
2020-02-21T02:40:00	0.3034	3.952		0.807468242	1.062763114	0.021311405	0.219865836	0.067764786
2020-02-21T02:45:00	0.3017	3.947		0.802268137	1.054218317	0.021049198	0.217160700	0.066931037
2020-02-21T02:50:00	0.3048	3.945		0.811895714	1.070057539	0.021536044	0.222183400	0.068479082
2020-02-21T02:55:00	0.3010	3.942		0.800071430	1.050616010	0.020938963	0.216023419	0.066580516
2020-02-21T03:00:00	0.3025	3.940		0.804657950	1.058142226	0.021169482	0.218401640	0.067313507
2020-02-21T03:05:00	0.3008	3.937		0.799454025	1.049604330	0.020908037	0.215704359	0.066482178
2020-02-21T03:10:00	0.3024	3.936		0.804356941	1.057647707	0.021154311	0.218245126	0.067265267
2020-02-21T03:15:00	0.3039	3.934		0.809253590	1.065702413	0.021401835	0.220798788	0.068052331
2020-02-21T03:20:00	0.3037	3.931		0.808472712	1.064416464	0.021362257	0.220390467	0.067926482
2020-02-21T03:25:00	0.3057	3.928		0.814938309	1.075080587	0.021691162	0.223783719	0.068972316
2020-02-21T03:30:00	0.3060	3.924		0.815732453	1.076393025	0.021731749	0.224202447	0.069101371
2020-02-21T03:35:00	0.3106	3.920		0.830032468	1.100123582	0.022469677	0.231815519	0.071447794
2020-02-21T03:40:00	0.3115	3.914		0.833017263	1.105100191	0.022625402	0.233422097	0.071942957
2020-02-21T03:45:00	0.3113	3.909		0.832241182	1.103805436	0.022584855	0.233003785	0.071814029
2020-02-21T03:50:00	0.3134	3.902		0.838979969	1.115066200	0.022938254	0.236649736	0.072937747
2020-02-21T03:55:00	0.3111	3.896		0.831628917	1.102784365	0.022552895	0.232674059	0.071712405
2020-02-21T04:00:00	0.3158	3.887		0.846494950	1.127672824	0.023335906	0.240752243	0.074202179
2020-02-21T04:05:00	0.3148	3.878		0.843305391	1.122315941	0.023166674	0.239006307	0.073664065
2020-02-21T04:10:00	0.3191	3.866		0.856652852	1.144795061	0.023879376	0.246359115	0.075930272
2020-02-21T04:15:00	0.3206	3.843		0.861255392	1.152584253	0.024127887	0.248922964	0.076720475
2020-02-21T04:20:00	0.3219	3.821		0.865541844	1.159856000	0.024360606	0.251323885	0.077460462
2020-02-21T04:25:00	0.3242	3.806		0.872615925	1.171893767	0.024747366	0.255314010	0.078690257
2020-02-21T04:30:00	0.3289	3.792		0.887100548	1.196685834	0.025549791	0.263592487	0.081241764
2020-02-21T04:35:00	0.3270	3.776		0.881159505	1.186493625	0.025218954	0.260179300	0.080189787
2020-02-21T04:40:00	0.3276	3.764		0.883259796	1.190093067	0.025335640	0.261383125	0.080560818
2020-02-21T04:45:00	0.3268	3.750		0.880719051	1.185739299	0.025194522	0.259927235	0.080112098
2020-02-21T04:50:00	0.3305	3.736		0.892089082	1.205269194	0.025829431	0.266477483	0.082130948
2020-02-21T04:55:00	0.3331	3.718		0.900040028	1.218997450	0.026278626	0.271111741	0.083559272
2020-02-21T05:00:00	0.3318	3.700		0.895968692	1.211960470	0.026048076	0.268733200	0.082826182
2020-02-21T05:05:00	0.3331	3.684		0.900217697	1.219304889	0.026288713	0.271215803	0.083591345
2020-02-21T05:10:00	0.3366	3.673		0.910917944	1.237874705	0.026900158	0.277523974	0.085535584
2020-02-21T05:15:00	0.3350	3.665		0.905935142	1.229214000	0.026614453	0.274576405	0.084627115
2020-02-21T05:20:00	0.3374	3.651		0.913244646	1.241926720	0.027034149	0.278906331	0.085961640
2020-02-21T05:25:00	0.3374	3.640		0.913179693	1.241813536	0.027030403	0.278867689	0.085949730
2020-02-21T05:30:00	0.3347	3.629		0.905124744	1.227807618	0.026568146	0.274098670	0.084479872
2020-02-21T05:35:00	0.3330	3.623		0.899826695	1.218628340	0.026266518	0.270986820	0.083520770
2020-02-21T05:40:00	0.3343	3.616		0.903763885	1.225447333	0.026490487	0.273297474	0.084232936
2020-02-21T05:45:00	0.3363	3.609		0.909848536	1.236013995	0.026838697	0.276889891	0.085340154
2020-02-21T05:50:00	0.3365	3.599		0.910705192	1.237504443	0.026887925	0.277397763	0.085496685
2020-02-21T05:55:00	0.3387	3.592		0.917392705	1.249163221	0.027273949	0.281380301	0.086724141
2020-02-21T06:00:00	0.3383	3.581		0.916100917	1.246907907	0.027199144	0.280608552	0.086486281
2020-02-21T06:05:00	0.3392	3.574		0.918796060	1.251615086	0.027355344	0.282220041	0.086982958
2020-02-21T06:10:00	0.3389	3.561		0.917811377	1.249894509	0.027298218	0.281630680	0.086801311
2020-02-21T06:15:00	0.3418	3.548		0.926935402	1.265872042	0.027830100	0.287118009	0.088492559
2020-02-21T06:20:00	0.3412	3.538		0.925034537	1.262536914	0.027718817	0.285969926	0.088138708
2020-02-21T06:25:00	0.3411	3.526		0.924663667	1.261886605	0.027697134	0.285746227	0.088069762
2020-02-21T06:30:00	0.3403	3.512		0.922149154	1.257480886	0.027550373	0.284232119	0.087603099
2020-02-21T06:35:00	0.3362	3.499		0.909505704	1.235417712	0.026819010	0.276686787	0.085277555
2020-02-21T06:40:00	0.3403	3.487		0.922325845	1.257790277	0.027560671	0.284338367	0.087635846
2020-02-21T06:45:00	0.3433	3.479		0.931439662	1.273788441	0.028094788	0.289848751	0.089334200
2020-02-21T06:50:00	0.3442	3.468		0.934124568	1.278516320	0.028253231	0.291483372	0.089838006
2020-02-21T06:55:00	0.3417	3.454		0.926417521	1.264963067	0.027799757	0.286804964	0.088396075
2020-02-21T07:00:00	0.3413	3.447		0.925128628	1.262701919	0.027724320	0.286026694	0.088156205
2020-02-21T07:05:00	0.3449	3.442		0.936373323	1.282481389	0.028386318	0.292856413	0.090261191
2020-02-21T07:10:00	0.3436	3.433		0.932338693	1.275370800	0.028147787	0.290395526	0.089502721
2020-02-21T07:15:00	0.3480	3.425		0.945695682	1.298969599	0.028941780	0.298587005	0.092027415
2020-02-21T07:20:00	0.3473	3.416		0.943498925	1.295076880	0.028810345	0.297231022	0.091609488
2020-02-21T07:25:00	0.3491	3.409		0.949219689	1.305223753	0.029153326	0.300769485	0.092700076
2020-02-21T07:30:00	0.3479	3.407		0.945502382	1.298626883	0.028930201	0.298467549	0.091990597
2020-02-21T07:35:00	0.3493	3.405		0.949699448	1.306076101	0.029182192	0.301067298	0.092791865
2020-02-21T07:40:00	0.3467	3.407		0.941717179	1.291922913	0.028703988	0.296133751	0.091271298
2020-02-21T07:45:00	0.3480	3.404		0.945613624	1.298824108	0.028936864	0.298536292	0.092011784
2020-02-21T07:50:00	0.3481	3.403		0.946158233	1.299789833	0.028969497	0.298872963	0.092115550
2020-02-21T07:55:00	0.3498	3.405		0.951267074	1.308862689	0.029276627	0.302041563	0.093092143
2020-02-21T08:00:00	0.3497	3.406		0.950898597	1.308207481	0.029254414	0.301812400	0.093021513
2020-02-21T08:05:00	0.3436	3.406		0.932238680	1.275194732	0.028141888	0.290334671	0.089483965
2020-02-21T08:10:00	0.3487	3.404		0.947727224	1.302573602	0.029063627	0.299844087	0.092414860
2020-02-21T08:15:00	0.3480	3.405		0.945836098	1.299218575	0.028950192	0.298673797	0.092054165
2020-02-21T08:20:00	0.3462	3.408		0.940286472	1.289392506	0.028618744	0.295254310	0.091000246
2020-02-21T08:25:00	0.3514	3.408		0.956048189	1.317375868	0.029565702	0.305023901	0.094011329
2020-02-21T08:30:00	0.3456	3.408		0.938327329	1.285930610	0.028502246	0.294052419	0.090629811
2020-02-21T08:35:00	0.3460	3.409		0.939482962	1.287972229	0.028570932	0.294761042	0.090848216
2020-02-21T08:40:00	0.3465	3.418		0.941248044	1.291092970	0.028676021	0.295845217	0.091182369
2020-02-21T08:45:00	0.3463	3.421		0.940573752	1.289900446	0.028635850	0.295430781	0.091054636
2020-02-21T08:50:00	0.3480	3.421		0.945689612	1.298958835	0.028941416	0.298583253	0.092026259
2020-02-21T08:55:00	0.3484	3.414		0.946843150	1.301004756	0.029010567	0.299296674	0.092246142
2020-02-21T09:00:00	0.3465	3.413		0.941294902	1.291175855	0.028678813	0.295874029	0.091191249
2020-02-21T09:05:00	0.3454	3.416		0.937875462	1.285132653	0.028475414	0.293775598	0.090544493
2020-02-21T09:10:00	0.3487	3.421		0.947867569	1.302822723	0.029072056	0.299931040	0.092441659
2020-02-21T09:15:00	0.3469	3.427		0.942320720	1.292990940	0.028739990	0.296505182	0.091385777
2020-02-21T09:20:00	0.3437	3.433		0.932491165	1.275639237	0.028156780	0.290488314	0.089531319
2020-02-21T09:25:00	0.3501	3.434		0.952237589	1.310589025	0.029335177	0.302645615	0.093278318
2020-02-21T09:30:00	0.3417	3.435		0.926552507	1.265199969	0.027807664	0.286886542	0.088421218
2020-02-21T09:35:00	0.3478	3.441		0.945109684	1.297930747	0.028906686	0.298224950	0.091915826
2020-02-21T09:40:00	0.3452	3.448		0.937118379	1.283796141	0.028430490	0.293312124	0.090401645
2020-02-21T09:45:00	0.3442	3.454		0.934000835	1.278298287	0.028245918	0.291407927	0.089814753
2020-02-21T09:50:00	0.3486	3.463		0.947656756	1.302448525	0.029059396	0.299800433	0.092401405
2020-02-21T09:55:00	0.3465	3.472		0.941195109	1.290999336	0.028672866	0.295812670	0.091172338
2020-02-21T10:00:00	0.3426	3.484		0.929222967	1.269890140	0.027964351	0.288503057	0.088919444
2020-02-21T10:05:00	0.3458	3.501		0.939004102	1.287126091	0.028542460	0.294467294	0.090757680
2020-02-21T10:10:00	0.3441	3.519		0.933823374	1.277985606	0.028235432	0.291299743	0.089781410
2020-02-21T10:15:00	0.3444	3.540		0.934747745	1.279614647	0.028290077	0.291863509	0.089955168
2020-02-21T10:20:00	0.3445	3.558		0.935061286	1.280167390	0.028308626	0.292054873	0.090014148
2020-02-21T10:25:00	0.3411	3.581		0.924674831	1.261906179	0.027697787	0.285752959	0.088071837
2020-02-21T10:30:00	0.3427	3.602		0.929577973	1.270514148	0.027985218	0.288718337	0.088985795
2020-02-21T10:35:00	0.3444	3.618		0.934780532	1.279672444	0.028292016	0.291883516	0.089961334
2020-02-21T10:40:00	0.3445	3.639		0.935094071	1.280225192	0.028310566	0.292074886	0.090020317
2020-02-21T10:45:00	0.3432	3.659		0.931131033	1.273245406	0.028076607	0.289661181	0.089276389
2020-02-21T10:50:00	0.3403	3.684		0.922266244	1.257685910	0.027557197	0.284302525	0.087624799
2020-02-21T10:55:00	0.3420	3.704		0.927478233	1.266825078	0.027861924	0.287446339	0.088593753
2020-02-21T11:00:00	0.3423	3.727		0.928404057	1.268451165	0.027916250	0.288006806	0.088766495
2020-02-21T11:05:00	0.3462	3.753		0.940322289	1.289455828	0.028620877	0.295276308	0.091007026
2020-02-21T11:10:00	0.3456	3.769		0.938500446	1.286236370	0.028512530	0.294158512	0.090662510
2020-02-21T11:15:00	0.3453	3.786		0.937593314	1.284634501	0.028458667	0.293602824	0.090491242
2020-02-21T11:20:00	0.3400	3.792		0.921396575	1.256163433	0.027506533	0.283779828	0.087463699
2020-02-21T11:25:00	0.3452	3.799		0.937304543	1.284124736	0.028441533	0.293426053	0.090436759
2020-02-21T11:30:00	0.3451	3.808		0.937007561	1.283600554	0.028423918	0.293244317	0.090380747
2020-02-21T11:35:00	0.3450	3.826		0.936710556	1.283076418	0.028406307	0.293062631	0.090324749
2020-02-21T11:40:00	0.3438	3.845		0.933054598	1.276631387	0.028190030	0.290831338	0.089637043
2020-02-21T11:45:00	0.3437	3.869		0.932757303	1.276107843	0.028172483	0.290650313	0.089581249
2020-02-21T11:50:00	0.3470	3.895		0.942529912	1.293361206	0.028752475	0.296633983	0.091425475
2020-02-21T11:55:00	0.3446	3.914		0.935217010	1.280441951	0.028317841	0.292149942	0.090043450
2020-02-21T12:00:00	0.3453	3.926		0.937361884	1.284225953	0.028444935	0.293461150	0.090447576
2020-02-21T12:05:00	0.3429	3.926		0.930039632	1.271325799	0.028012367	0.288998425	0.089072121
2020-02-21T12:10:00	0.3456	3.932		0.938293638	1.285871107	0.028500245	0.294031774	0.090623448
2020-02-21T12:15:00	0.3446	3.943		0.935249793	1.280499755	0.028319781	0.292169959	0.090049619
2020-02-21T12:20:00	0.3437	3.955		0.932509195	1.275670980	0.028157844	0.290499286	0.089534701
2020-02-21T12:25:00	0.3405	3.968		0.922728741	1.258495865	0.027584162	0.284580718	0.087710541
2020-02-21T12:30:00	0.3435	3.989		0.931914503	1.274624100	0.028122773	0.290137469	0.089423186
2020-02-21T12:35:00	0.3431	4.008		0.930700241	1.272487576	0.028051241	0.289399480	0.089195730
2020-02-21T12:40:00	0.3430	4.014		0.930402773	1.271964384	0.028033732	0.289218849	0.089140058
2020-02-21T12:45:00	0.3423	4.014		0.928270622	1.268216754	0.027908417	0.287925990	0.088741586
2020-02-21T12:50:00	0.3417	4.012		0.926443340	1.265008379	0.027801269	0.286820567	0.088400884
2020-02-21T12:55:00	0.3449	4.021		0.936231196	1.282230646	0.028377896	0.292769526	0.090234411
2020-02-21T13:00:00	0.3429	4.035		0.930129901	1.271484526	0.028017677	0.289053209	0.089089006
2020-02-21T13:05:00	0.3406	4.048		0.923100761	1.259147516	0.027605863	0.284804599	0.087779543
2020-02-21T13:10:00	0.3408	4.068		0.923721411	1.260234970	0.027642088	0.285178324	0.087894729
2020-02-21T13:15:00	0.3403	4.080		0.922198384	1.257567086	0.027553242	0.284261720	0.087612223
2020-02-21T13:20:00	0.3366	4.085		0.910857234	1.237769044	0.026896667	0.277487955	0.085524483
2020-02-21T13:25:00	0.3407	4.095		0.923439867	1.259741626	0.027625652	0.285008758	0.087842467
2020-02-21T13:30:00	0.3415	4.093		0.925897042	1.264049787	0.027769280	0.286490543	0.088299168
2020-02-21T13:35:00	0.3404	4.099		0.922537567	1.258161044	0.027573014	0.284465708	0.087675094
2020-02-21T13:40:00	0.3415	4.110		0.925913472	1.264078612	0.027770242	0.286500465	0.088302226
2020-02-21T13:45:00	0.3432	4.121		0.931120751	1.273227318	0.028076002	0.289654934	0.089274464
2020-02-21T13:50:00	0.3415	4.126		0.925929901	1.264107437	0.027771203	0.286510387	0.088305284
2020-02-21T13:55:00	0.3430	4.130		0.930525855	1.272180853	0.028040976	0.289293580	0.089163091
2020-02-21T14:00:00	0.3413	4.136		0.925334239	1.263062526	0.027736346	0.286150769	0.088194446
2020-02-21T14:05:00	0.3427	4.139		0.929625139	1.270597061	0.027987991	0.288746945	0.088994613
2020-02-21T14:10:00	0.3412	4.145		0.925044591	1.262554545	0.027719405	0.285975991	0.088140578
2020-02-21T14:15:00	0.3410	4.155		0.924440580	1.261495492	0.027684096	0.285611714	0.088028304
2020-02-21T14:20:00	0.3412	4.161		0.925061024	1.262583363	0.027720366	0.285985906	0.088143634
2020-02-21T14:25:00	0.3414	4.167		0.925681373	1.263671428	0.027756657	0.286360313	0.088259029
2020-02-21T14:30:00	0.3411	4.164		0.924771357	1.262075423	0.027703429	0.285811172	0.088089779
2020-02-21T14:35:00	0.3402	4.168		0.922023630	1.257261109	0.027543058	0.284156652	0.087579840
2020-02-21T14:40:00	0.3433	4.174		0.931516608	1.273923842	0.028099322	0.289895526	0.089348616
2020-02-21T14:45:00	0.3431	4.177		0.930913565	1.272862825	0.028063800	0.289529056	0.089235667
2020-02-21T14:50:00	0.3406	4.178		0.923273387	1.259449942	0.027615936	0.284908518	0.087811572
2020-02-21T14:55:00	0.3399	4.174		0.920831060	1.255173798	0.027473615	0.283440225	0.087359030
2020-02-21T15:00:00	0.3410	4.175		0.924208396	1.261088479	0.027670530	0.285471754	0.087985167
2020-02-21T15:05:00	0.3398	4.178		0.920541088	1.254666472	0.027456745	0.283266178	0.087305387
2020-02-21T15:10:00	0.3388	4.187		0.917483814	1.249322345	0.027279229	0.281434776	0.086740931
2020-02-21T15:15:00	0.3405	4.191		0.922701996	1.258449022	0.027582603	0.284564626	0.087705582
2020-02-21T15:20:00	0.3422	4.185		0.927913422	1.267589329	0.027887453	0.287709713	0.088674928
2020-02-21T15:25:00	0.3385	4.174		0.916588409	1.247758829	0.027227360	0.280899654	0.086576001
2020-02-21T15:30:00	0.3382	4.174		0.915676333	1.246166973	0.027174582	0.280355152	0.086408181
2020-02-21T15:35:00	0.3422	4.179		0.927938053	1.267632591	0.027888898	0.287724624	0.088679524
2020-02-21T15:40:00	0.3406	4.184		0.923049357	1.259057465	0.027602864	0.284773658	0.087770007
2020-02-21T15:45:00	0.3427	4.181		0.929483536	1.270348141	0.027979666	0.288661061	0.088968142
2020-02-21T15:50:00	0.3419	4.177		0.927044972	1.266064390	0.027836522	0.287184265	0.088512980
2020-02-21T15:55:00	0.3420	4.169		0.927359111	1.266615916	0.027854939	0.287374271	0.088571541
2020-02-21T16:00:00	0.3435	4.159		0.931953438	1.274692631	0.028125069	0.290161150	0.089430484
2020-02-21T16:05:00	0.3435	4.149		0.932083222	1.274921075	0.028132721	0.290240094	0.089454816
2020-02-21T16:10:00	0.3435	4.137		0.931907442	1.274611673	0.028122357	0.290133175	0.089421862
2020-02-21T16:15:00	0.3449	4.125		0.936312822	1.282374649	0.028382733	0.292819425	0.090249791
2020-02-21T16:20:00	0.3450	4.110		0.936442466	1.282603379	0.028390416	0.292898687	0.090274220
2020-02-21T16:25:00	0.3444	4.094		0.934740378	1.279601662	0.028289641	0.291859013	0.089953782
2020-02-21T16:30:00	0.3437	4.076		0.932732078	1.276063424	0.028170994	0.290634956	0.089576516
2020-02-21T16:35:00	0.3435	4.055		0.931945236	1.274678194	0.028124585	0.290156161	0.089428947
2020-02-21T16:40:00	0.3449	4.035		0.936350575	1.282441254	0.028384970	0.292842505	0.090256904
2020-02-21T16:45:00	0.3450	4.016		0.936480217	1.282669986	0.028392653	0.292921770	0.090281334
2020-02-21T16:50:00	0.3447	3.996		0.935694104	1.281283270	0.028346083	0.292441316	0.090133254
2020-02-21T16:55:00	0.3459	3.975		0.939180404	1.287437587	0.028552941	0.294575424	0.090791007
2020-02-21T17:00:00	0.3454	3.953		0.937784606	1.284972232	0.028470021	0.293719956	0.090527343
2020-02-21T17:05:00	0.3481	3.932		0.946144024	1.299764633	0.028968646	0.298864177	0.092112842
2020-02-21T17:10:00	0.3487	3.910		0.947795518	1.302694826	0.029067729	0.299886398	0.092427900
2020-02-21T17:15:00	0.3499	3.887		0.951575553	1.309411310	0.029295230	0.302233489	0.093151296
2020-02-21T17:20:00	0.3482	3.864		0.946227520	1.299912715	0.028973650	0.298915811	0.092128756
2020-02-21T17:25:00	0.3496	3.843		0.950617386	1.307707532	0.029237469	0.301637574	0.092967630
2020-02-21T17:30:00	0.3494	3.825		0.950138218	1.306855818	0.029208607	0.301339812	0.092875857
2020-02-21T17:35:00	0.3401	3.805		0.921572190	1.256470813	0.027516759	0.283885334	0.087496217
2020-02-21T17:40:00	0.3472	3.785		0.943394424	1.294891815	0.028804101	0.297166604	0.091589633
2020-02-21T17:45:00	0.3490	3.765		0.948700375	1.304301375	0.029122097	0.300447305	0.092600777
2020-02-21T17:50:00	0.3485	3.743		0.947307846	1.301829298	0.029038451	0.299584341	0.092334803
2020-02-21T17:55:00	0.3450	3.722		0.936463831	1.282641074	0.028391682	0.292911750	0.090278246
2020-02-21T18:00:00	0.3494	3.701		0.950000844	1.306611679	0.029200335	0.301254476	0.092849555
2020-02-21T18:05:00	0.3445	3.679		0.935196780	1.280406281	0.028316643	0.292137591	0.090039643
2020-02-21T18:10:00	0.3474	3.658		0.943866209	1.295727401	0.028832297	0.297457494	0.091679288
2020-02-21T18:15:00	0.3463	3.636		0.940642962	1.290022827	0.028639971	0.295473303	0.091067742
2020-02-21T18:20:00	0.3481	3.615		0.945952504	1.299424993	0.028957167	0.298745759	0.092076344
2020-02-21T18:25:00	0.3478	3.592		0.945168225	1.298034514	0.028910191	0.298261109	0.091926970
2020-02-21T18:30:00	0.3484	3.569		0.946820116	1.300963890	0.029009185	0.299282419	0.092241748
2020-02-21T18:35:00	0.3448	3.546		0.935974795	1.281778346	0.028362707	0.292612817	0.090186112
2020-02-21T18:40:00	0.3463	3.523		0.940680674	1.290089515	0.028642217	0.295496476	0.091074884
2020-02-21T18:45:00	0.3458	3.502		0.938980367	1.287084156	0.028541049	0.294452738	0.090753194
2020-02-21T18:50:00	0.3479	3.481		0.945510454	1.298641194	0.028930684	0.298472537	0.091992135
2020-02-21T18:55:00	0.3462	3.459		0.940154430	1.289159068	0.028610884	0.295173219	0.090975253
2020-02-21T19:00:00	0.3462	3.437		0.940283951	1.289388048	0.028618594	0.295252761	0.090999769
2020-02-21T19:05:00	0.3479	3.416		0.945289411	1.298249331	0.028917447	0.298335967	0.091950043
2020-02-21T19:10:00	0.3464	3.394		0.940847889	1.290385221	0.028652177	0.295599233	0.091106554
2020-02-21T19:15:00	0.3489	3.374		0.948592423	1.304109669	0.029115608	0.300380356	0.092580143
2020-02-21T19:20:00	0.3493	3.354		0.949634493	1.305960688	0.029178283	0.301026967	0.092779435
2020-02-21T19:25:00	0.3461	3.334		0.940016719	1.288915625	0.028602688	0.295088659	0.090949191
2020-02-21T19:30:00	0.3463	3.315		0.940451183	1.289683721	0.028628551	0.295355481	0.091031428
2020-02-21T19:35:00	0.3477	3.298		0.944847288	1.297465681	0.028890980	0.298062911	0.091865884
2020-02-21T19:40:00	0.3462	3.282		0.940100341	1.289063448	0.028607665	0.295140004	0.090965016
2020-02-21T19:45:00	0.3473	3.268		0.943582855	1.295225522	0.028815361	0.297282766	0.091625436
2020-02-21T19:50:00	0.3471	3.254		0.943102857	1.294375520	0.028786684	0.296986911	0.091534250
2020-02-21T19:55:00	0.3451	3.240		0.936828158	1.283283944	0.028413279	0.293134564	0.090346919
2020-02-21T20:00:00	0.3475	3.229		0.944275728	1.296452878	0.028856784	0.297710121	0.091757151
2020-02-21T20:05:00	0.3474	3.219		0.943795812	1.295602707	0.028828089	0.297414079	0.091665908
2020-02-21T20:10:00	0.3474	3.212		0.943925217	1.295831927	0.028835825	0.297493888	0.091690505
2020-02-21T20:15:00	0.3467	3.207		0.941616637	1.291745028	0.028697993	0.296071901	0.091252235
2020-02-21T20:20:00	0.3471	3.206		0.942965246	1.294131871	0.028778465	0.296902123	0.091508118
2020-02-21T20:25:00	0.3421	3.201		0.927829547	1.267442020	0.027882532	0.287658942	0.088659280
2020-02-21T20:30:00	0.3456	3.198		0.938345678	1.285963016	0.028503336	0.294063663	0.090633277
2020-02-21T20:35:00	0.3448	3.199		0.936033918	1.281882636	0.028366209	0.292648948	0.090197248
2020-02-21T20:40:00	0.3453	3.198		0.937384385	1.284265672	0.028446270	0.293474922	0.090451821
2020-02-21T20:45:00	0.3446	3.198		0.935377396	1.280724756	0.028327333	0.292247876	0.090073634
2020-02-21T20:50:00	0.3487	3.203		0.948005049	1.303066774	0.029080313	0.300016231	0.092467916
2020-02-21T20:55:00	0.3471	3.204		0.942957066	1.294117388	0.028777977	0.296897083	0.091506564
2020-02-21T21:00:00	0.3430	3.206		0.930573321	1.272264337	0.028043770	0.289322403	0.089171975
2020-02-21T21:05:00	0.3459	3.207		0.939252642	1.287565230	0.028557236	0.294619736	0.090804664
2020-02-21T21:10:00	0.3460	3.209		0.939687188	1.288333159	0.028583080	0.294886371	0.090886843
2020-02-21T21:15:00	0.3383	3.212		0.915958421	1.246659221	0.027190899	0.280523494	0.086460065
2020-02-21T21:20:00	0.3413	3.214		0.925281407	1.262969864	0.027733256	0.286118885	0.088184619
2020-02-21T21:25:00	0.3411	3.214		0.924799233	1.262124300	0.027705059	0.285827985	0.088094961
2020-02-21T21:30:00	0.3446	3.216		0.935323243	1.280629267	0.028324128	0.292214808	0.090063442
2020-02-21T21:35:00	0.3453	3.215		0.937589477	1.284627728	0.028458440	0.293600475	0.090490518
2020-02-21T21:40:00	0.3447	3.216		0.935582590	1.281086605	0.028339481	0.292373197	0.090112259
2020-02-21T21:45:00	0.3429	3.214		0.930213416	1.271631384	0.028022590	0.289103899	0.089104629
2020-02-21T21:50:00	0.3455	3.213		0.937978274	1.285314192	0.028481518	0.293838569	0.090563901
2020-02-21T21:55:00	0.3434	3.212		0.931695624	1.274238875	0.028109872	0.290004364	0.089382161
2020-02-21T22:00:00	0.3446	3.209		0.935490680	1.280924520	0.028334039	0.292317059	0.090094957
2020-02-21T22:05:00	0.3438	3.212		0.932855400	1.276280585	0.028178272	0.290710038	0.089599657
2020-02-21T22:10:00	0.3432	3.214		0.931135394	1.273253080	0.028076864	0.289663831	0.089277206
2020-02-21T22:15:00	0.3452	3.216		0.937051425	1.283677971	0.028426519	0.293271156	0.090389018
2020-02-21T22:20:00	0.3476	3.218		0.944482232	1.296818767	0.028869136	0.297837557	0.091796427
2020-02-21T22:25:00	0.3452	3.218		0.937277895	1.284077697	0.028439952	0.293409743	0.090431732
2020-02-21T22:30:00	0.3460	3.220		0.939526661	1.288049456	0.028573531	0.294787857	0.090856480
2020-02-21T22:35:00	0.3479	3.223		0.945430462	1.298499379	0.028925893	0.298423110	0.091976901
2020-02-21T22:40:00	0.3499	3.226		0.951629800	1.309507796	0.029298502	0.302267246	0.093161701
2020-02-21T22:45:00	0.3514	3.231		0.955997544	1.317285579	0.029562632	0.304992224	0.094001566
2020-02-21T22:50:00	0.3478	3.234		0.945160360	1.298020573	0.028909720	0.298256251	0.091925473
2020-02-21T22:55:00	0.3526	3.236		0.959562815	1.323647751	0.029779222	0.307226739	0.094690265
2020-02-21T23:00:00	0.3548	3.237		0.966346783	1.335786904	0.030193804	0.311503906	0.096008529
2020-02-21T23:05:00	0.3560	3.240		0.970093460	1.342509882	0.030424154	0.313880393	0.096740986
2020-02-21T23:10:00	0.3537	3.243		0.962934256	1.329675114	0.029984854	0.309348212	0.095344123
2020-02-21T23:15:00	0.3576	3.245		0.974856153	1.351075244	0.030718396	0.316916030	0.097676598
2020-02-21T23:20:00	0.3585	3.247		0.977688701	1.356179615	0.030894150	0.318729251	0.098235451
2020-02-21T23:25:00	0.3527	3.248		0.959934979	1.324312566	0.029801882	0.307460520	0.094762318
2020-02-21T23:30:00	0.3591	3.249		0.979423381	1.359309353	0.031002063	0.319842567	0.098578585
2020-02-21T23:35:00	0.3571	3.252		0.973490484	1.348616981	0.030633861	0.316043898	0.097407799
2020-02-21T23:40:00	0.3561	3.257		0.970274286	1.342834691	0.030435297	0.313995347	0.096776415
2020-02-21T23:45:00	0.3551	3.261		0.967358501	1.337601000	0.030255908	0.312144628	0.096206006
2020-02-21T23:50:00	0.3545	3.263		0.965349954	1.334000454	0.030132683	0.310873338	0.095814182
2020-02-21T23:55:00	0.3516	3.265		0.956664161	1.318474231	0.029603061	0.305409326	0.094130120
2020-02-22T00:00:00	0.3550	3.266		0.967089846	1.337119183	0.030239410	0.311974416	0.096153545
2020-02-22T00:05:00	0.3543	3.265		0.964778066	1.332975980	0.030097649	0.310511901	0.095702783
2020-02-22T00:10:00	0.3562	3.267		0.970645478	1.343501543	0.030458177	0.314231394	0.096849167
2020-02-22T00:15:00	0.3557	3.269		0.969244151	1.340984726	0.030371851	0.313340791	0.096574675
2020-02-22T00:20:00	0.3528	3.272		0.960263185	1.324898966	0.029821873	0.307666770	0.094825887
2020-02-22T00:25:00	0.3509	3.272		0.954606372	1.314806315	0.029478359	0.304122799	0.093733600
2020-02-22T00:30:00	0.3539	3.273		0.963521547	1.330726156	0.030020756	0.309718604	0.095458282
2020-02-22T00:35:00	0.3517	3.276		0.956958267	1.318998789	0.029620908	0.305593450	0.094186869
2020-02-22T00:40:00	0.3524	3.278		0.959196187	1.322992953	0.029756908	0.306996534	0.094619313
2020-02-22T00:45:00	0.3543	3.279		0.964768487	1.332958824	0.030097063	0.310505849	0.095700918
2020-02-22T00:50:00	0.3511	3.282		0.955170083	1.315810706	0.029512491	0.304474927	0.093842130
2020-02-22T00:55:00	0.3529	3.286		0.960747868	1.325765125	0.029851410	0.307971496	0.094919806
2020-02-22T01:00:00	0.3538	3.289		0.963286950	1.330306271	0.030006412	0.309570619	0.095412671
2020-02-22T01:05:00	0.3542	3.294		0.964612138	1.332678797	0.030087489	0.310407078	0.095670476
2020-02-22T01:10:00	0.3548	3.297		0.966239915	1.335595336	0.030187248	0.311436269	0.095987683
2020-02-22T01:15:00	0.3582	3.298		0.976641320	1.354291299	0.030829096	0.318058102	0.098028596
2020-02-22T01:20:00	0.3550	3.301		0.967070699	1.337084848	0.030238234	0.311962288	0.096149807
2020-02-22T01:25:00	0.3568	3.304		0.972329772	1.346529043	0.030562116	0.315303719	0.097179668
2020-02-22T01:30:00	0.3504	3.308		0.953033143	1.312004808	0.029383221	0.303141276	0.093431085
2020-02-22T01:35:00	0.3489	3.310		0.948583737	1.304094245	0.029115085	0.300374970	0.092578483
2020-02-22T01:40:00	0.3524	3.311		0.959030033	1.322696244	0.029746799	0.306892238	0.094587168
2020-02-22T01:45:00	0.3513	3.317		0.955802462	1.316937804	0.029550806	0.304870222	0.093963963
2020-02-22T01:50:00	0.3550	3.321		0.966836305	1.336664537	0.030223844	0.311813828	0.096104050
2020-02-22T01:55:00	0.3557	3.325		0.969068835	1.340669987	0.030361061	0.313229471	0.096540365
2020-02-22T02:00:00	0.3546	3.326		0.965849171	1.334894999	0.030163284	0.311189040	0.095911484
2020-02-22T02:05:00	0.3547	3.330		0.965961610	1.335096511	0.030170179	0.311260170	0.095933407
2020-02-22T02:10:00	0.3543	3.335		0.964861800	1.333125960	0.030102777	0.310564806	0.095719089
2020-02-22T02:15:00	0.3539	3.340		0.963761694	1.331156028	0.030035443	0.309870131	0.095504984
2020-02-22T02:20:00	0.3561	3.344		0.970236023	1.342765959	0.030432939	0.313971021	0.096768918
2020-02-22T02:25:00	0.3528	3.347		0.960347011	1.325048752	0.029826981	0.307719461	0.094842126
2020-02-22T02:30:00	0.3512	3.347		0.955601796	1.316580114	0.029538645	0.304744756	0.093925293
2020-02-22T02:35:00	0.3553	3.350		0.967847902	1.338478887	0.030285976	0.312454833	0.096301614
2020-02-22T02:40:00	0.3541	3.353		0.964324144	1.332163051	0.030069859	0.310225188	0.095614416
2020-02-22T02:45:00	0.3588	3.357		0.978357346	1.357385656	0.030935721	0.319158127	0.098367634
2020-02-22T02:50:00	0.3569	3.363		0.972725450	1.347240661	0.030586563	0.315555930	0.097257402
2020-02-22T02:55:00	0.3541	3.366		0.964358445	1.332224473	0.030071958	0.310246848	0.095621092
2020-02-22T03:00:00	0.3574	3.369		0.974159811	1.349821576	0.030675276	0.316471168	0.097539488
2020-02-22T03:05:00	0.3557	3.372		0.969127789	1.340775822	0.030364689	0.313266903	0.096551902
2020-02-22T03:10:00	0.3560	3.375		0.970148387	1.342608543	0.030427539	0.313915309	0.096751747
2020-02-22T03:15:00	0.3576	3.380		0.974798822	1.350972011	0.030714845	0.316879391	0.097665306
2020-02-22T03:20:00	0.3573	3.383		0.974003819	1.349540798	0.030665621	0.316371561	0.097508788
2020-02-22T03:25:00	0.3620	3.385		0.988004136	1.374833102	0.031538991	0.325381957	0.100285879
2020-02-22T03:30:00	0.3630	3.387		0.991128879	1.380503650	0.031735812	0.327412527	0.100911721
2020-02-22T03:35:00	0.3637	3.383		0.993348306	1.384536971	0.031876031	0.328859132	0.101357578
2020-02-22T03:40:00	0.3631	3.377		0.991352379	1.380909599	0.031749917	0.327558039	0.100956569
2020-02-22T03:45:00	0.3619	3.370		0.987848667	1.374551211	0.031529216	0.325281114	0.100254799
2020-02-22T03:50:00	0.3631	3.363		0.991575868	1.381315575	0.031764024	0.327703581	0.101001426
2020-02-22T03:55:00	0.3608	3.358		0.984453921	1.368401760	0.031316210	0.323083564	0.099577492
2020-02-22T04:00:00	0.3641	3.350		0.994508651	1.386647520	0.031949478	0.329616873	0.101591121
2020-02-22T04:05:00	0.3606	3.340		0.984034423	1.367642618	0.031289945	0.322812591	0.099493976
2020-02-22T04:10:00	0.3617	3.329		0.987122178	1.373234279	0.031483564	0.324810122	0.100109634
2020-02-22T04:15:00	0.3596	3.315		0.980858387	1.361900582	0.031091494	0.320765209	0.098862953
2020-02-22T04:20:00	0.3544	3.302		0.965200287	1.333732312	0.030123512	0.310778724	0.095785021
2020-02-22T04:25:00	0.3543	3.289		0.964969459	1.333318805	0.030109372	0.310632836	0.095740057
2020-02-22T04:30:00	0.3544	3.278		0.965041723	1.333448254	0.030113798	0.310678505	0.095754132
2020-02-22T04:35:00	0.3541	3.267		0.964204621	1.331949029	0.030062543	0.310149718	0.095591155
2020-02-22T04:40:00	0.3550	3.254		0.967004339	1.336965847	0.030234160	0.311920252	0.096136851
2020-02-22T04:45:00	0.3521	3.244		0.958281793	1.321360401	0.029701297	0.306422810	0.094442486
2020-02-22T04:50:00	0.3561	3.232		0.970177051	1.342660029	0.030429305	0.313933530	0.096757363
2020-02-22T04:55:00	0.3540	3.222		0.963887410	1.331381088	0.030043134	0.309949472	0.095529437
2020-02-22T05:00:00	0.3536	3.210		0.962746821	1.329339739	0.029973401	0.309230053	0.095307706
2020-02-22T05:05:00	0.3540	3.198		0.964031975	1.331639907	0.030051978	0.310040722	0.095557562
2020-02-22T05:10:00	0.3556	3.186		0.968951989	1.340460232	0.030353871	0.313155289	0.096517502
2020-02-22T05:15:00	0.3577	3.173		0.975075707	1.351470616	0.030731999	0.317056366	0.097719851
2020-02-22T05:20:00	0.3604	3.161		0.983303128	1.366319639	0.031244187	0.322340521	0.099348479
2020-02-22T05:25:00	0.3569	3.151		0.972800421	1.347375512	0.030591196	0.315603731	0.097272135
2020-02-22T05:30:00	0.3560	3.144		0.970149005	1.342609651	0.030427577	0.313915701	0.096751868
2020-02-22T05:35:00	0.3585	3.139		0.977479828	1.355802956	0.030881171	0.318595344	0.098194179
2020-02-22T05:40:00	0.3580	3.132		0.976040735	1.353208982	0.030791828	0.317673616	0.097910094
2020-02-22T05:45:00	0.3564	3.123		0.971273519	1.344630124	0.030496910	0.314631003	0.096972331
2020-02-22T05:50:00	0.3530	3.114		0.961043399	1.326293368	0.029869428	0.308157382	0.094977098
2020-02-22T05:55:00	0.3523	3.104		0.958687940	1.322085436	0.029725991	0.306677567	0.094521005
2020-02-22T06:00:00	0.3518	3.092		0.957242240	1.319505352	0.029638146	0.305771289	0.094241681
2020-02-22T06:05:00	0.3479	3.082		0.945454435	1.298541880	0.028927329	0.298437923	0.091981466
2020-02-22T06:10:00	0.3501	3.073		0.952221541	1.310560473	0.029334209	0.302635622	0.093275238
2020-02-22T06:15:00	0.3529	3.063		0.960494863	1.325312961	0.029835990	0.307812407	0.094870773
2020-02-22T06:20:00	0.3537	3.052		0.962993882	1.329781808	0.029988498	0.309385806	0.095355710
2020-02-22T06:25:00	0.3527	3.040		0.960032664	1.324487086	0.029807831	0.307521898	0.094781236
2020-02-22T06:30:00	0.3523	3.023		0.958890999	1.322447985	0.029738341	0.306804981	0.094560275
2020-02-22T06:35:00	0.3510	3.009		0.954711549	1.314993691	0.029484726	0.304188482	0.093753844
2020-02-22T06:40:00	0.3494	2.997		0.949919424	1.306466988	0.029195433	0.301203905	0.092833969
2020-02-22T06:45:00	0.3520	2.983		0.957893797	1.320667915	0.029677718	0.306179549	0.094367511
2020-02-22T06:50:00	0.3501	2.969		0.952193372	1.310510353	0.029332508	0.302618080	0.093269831
2020-02-22T06:55:00	0.3494	2.957		0.950137012	1.306853674	0.029208534	0.301339062	0.092875626
2020-02-22T07:00:00	0.3467	2.947		0.941683136	1.291862680	0.028701958	0.296112808	0.091264843
2020-02-22T07:05:00	0.3475	2.941		0.944193711	1.296307568	0.028851879	0.297659516	0.091741554
2020-02-22T07:10:00	0.3459	2.940		0.939389170	1.287806484	0.028565354	0.294703494	0.090830479
2020-02-22T07:15:00	0.3500	2.935		0.951947723	1.310073322	0.029317683	0.302465131	0.093222691
2020-02-22T07:20:00	0.3516	2.935		0.956578573	1.318321596	0.029597869	0.305355756	0.094113610
2020-02-22T07:25:00	0.3482	2.935		0.946311566	1.300061780	0.028978689	0.298967790	0.092144777
2020-02-22T07:30:00	0.3462	2.938		0.940289961	1.289398673	0.028618952	0.295256452	0.091000906
2020-02-22T07:35:00	0.3518	2.948		0.957403170	1.319792460	0.029647917	0.305872098	0.094272751
2020-02-22T07:40:00	0.3523	2.962		0.958690003	1.322089119	0.029726116	0.306678861	0.094521404
2020-02-22T07:45:00	0.3550	2.981		0.966950261	1.336868875	0.030230840	0.311886000	0.096126294
2020-02-22T07:50:00	0.3545	2.996		0.965507476	1.334282692	0.030142337	0.310972934	0.095844879
2020-02-22T07:55:00	0.3557	3.007		0.969214761	1.340931961	0.030370042	0.313322128	0.096568923
2020-02-22T08:00:00	0.3559	3.016		0.969589718	1.341605200	0.030393126	0.313560282	0.096642324
2020-02-22T08:05:00	0.3565	3.025		0.971478012	1.344997676	0.030509528	0.314761178	0.097012452
2020-02-22T08:10:00	0.3616	3.037		0.986954587	1.372930553	0.031473037	0.324701525	0.100076163
2020-02-22T08:15:00	0.3622	3.053		0.988834949	1.376339887	0.031591255	0.325921152	0.100452064
2020-02-22T08:20:00	0.3566	3.065		0.971694456	1.345386752	0.030522887	0.314898996	0.097054929
2020-02-22T08:25:00	0.3568	3.081		0.972371751	1.346604534	0.030564709	0.315330471	0.097187914
2020-02-22T08:30:00	0.3608	3.103		0.984528031	1.368535889	0.031320851	0.323131448	0.099592250
2020-02-22T08:35:00	0.3607	3.128		0.984298284	1.368120094	0.031306464	0.322983016	0.099546502
2020-02-22T08:40:00	0.3621	3.146		0.988290104	1.375351667	0.031556975	0.325567493	0.100343063
2020-02-22T08:45:00	0.3625	3.164		0.989567314	1.377668673	0.031637366	0.326396873	0.100598686
2020-02-22T08:50:00	0.3601	3.194		0.982401877	1.364689896	0.031187848	0.321759277	0.099169334
2020-02-22T08:55:00	0.3604	3.229		0.983379171	1.366457185	0.031248944	0.322389591	0.099363603
2020-02-22T09:00:00	0.3589	3.261		0.978922525	1.358405405	0.030970883	0.319520893	0.098479442
2020-02-22T09:05:00	0.3616	3.294		0.986840807	1.372724364	0.031465892	0.324627809	0.100053443
2020-02-22T09:10:00	0.3601	3.329		0.982387896	1.364664619	0.031186974	0.321750264	0.099166556
2020-02-22T09:15:00	0.3662	3.346		1.000829631	1.398167382	0.032351263	0.333762020	0.102868696
2020-02-22T09:20:00	0.3665	3.358		1.001802593	1.399943989	0.032413361	0.334402673	0.103066151
2020-02-22T09:25:00	0.3687	3.384		1.008177918	1.411607672	0.032821929	0.338617794	0.104365293
2020-02-22T09:30:00	0.3695	3.418		1.010648300	1.416137744	0.032981027	0.340259174	0.104871182
2020-02-22T09:35:00	0.3716	3.458		1.017010155	1.427830862	0.033392756	0.344506910	0.106180375
2020-02-22T09:40:00	0.3657	3.491		0.999384707	1.395530659	0.032259168	0.332811885	0.102575855
2020-02-22T09:45:00	0.3709	3.513		1.014757737	1.423686451	0.033246651	0.342999572	0.105715799
2020-02-22T09:50:00	0.3624	3.541		0.989295973	1.377176298	0.031620277	0.326220573	0.100544349
2020-02-22T09:55:00	0.3699	3.566		1.011904785	1.418444082	0.033062115	0.341095742	0.105129020
2020-02-22T10:00:00	0.3663	3.625		1.001173896	1.398795898	0.032373228	0.333988624	0.102938537
2020-02-22T10:05:00	0.3652	3.666		0.997652035	1.392371491	0.032148928	0.331674561	0.102225321
2020-02-22T10:10:00	0.3641	3.689		0.994428142	1.386501040	0.031944379	0.329564266	0.101574907
2020-02-22T10:15:00	0.3654	3.701		0.998423676	1.393778063	0.032197996	0.332180793	0.102381347
2020-02-22T10:20:00	0.3648	3.732		0.996704538	1.390645141	0.032088734	0.331053557	0.102033921
2020-02-22T10:25:00	0.3632	3.767		0.991673452	1.381492857	0.031770185	0.327767142	0.101021016
2020-02-22T10:30:00	0.3638	3.799		0.993565141	1.384931274	0.031889749	0.329000657	0.101401198
2020-02-22T10:35:00	0.3626	3.836		0.990036821	1.378520805	0.031666947	0.326702057	0.100692747
2020-02-22T10:40:00	0.3649	3.867		0.996744430	1.390717808	0.032091267	0.331079690	0.102041976
2020-02-22T10:45:00	0.3634	3.903		0.992315627	1.382659717	0.031810745	0.328185591	0.101149986
2020-02-22T10:50:00	0.3609	3.940		0.984866818	1.369149119	0.031342074	0.323350399	0.099659733
2020-02-22T10:55:00	0.3623	3.985		0.989172906	1.376953005	0.031612529	0.326140629	0.100519709
2020-02-22T11:00:00	0.3640	4.036		0.994076500	1.385861331	0.031922112	0.329334550	0.101504107
2020-02-22T11:05:00	0.3580	4.084		0.976064564	1.353251918	0.030793306	0.317688866	0.097914794
2020-02-22T11:10:00	0.3565	4.125		0.971613535	1.345241284	0.030517892	0.314847466	0.097039047
2020-02-22T11:15:00	0.3578	4.149		0.975328842	1.351926518	0.030747686	0.317218210	0.097769733
2020-02-22T11:20:00	0.3554	4.167		0.968152149	1.339024760	0.030304677	0.312647765	0.096361078
2020-02-22T11:25:00	0.3577	4.180		0.975197722	1.351690360	0.030739560	0.317134371	0.097743893
2020-02-22T11:30:00	0.3548	4.194		0.966506155	1.336072606	0.030203582	0.311604787	0.096039622
2020-02-22T11:35:00	0.3526	4.212		0.959617506	1.323745440	0.029782551	0.307261088	0.094700851
2020-02-22T11:40:00	0.3505	4.229		0.953325205	1.312524716	0.029400870	0.303323356	0.093487204
2020-02-22T11:45:00	0.3486	4.252		0.947632002	1.302404590	0.029057910	0.299785099	0.092396679
2020-02-22T11:50:00	0.3486	4.283		0.947413798	1.302017323	0.029044810	0.299649951	0.092355025
2020-02-22T11:55:00	0.3490	4.305		0.948717402	1.304331613	0.029123120	0.300457865	0.092604032
2020-02-22T12:00:00	0.3440	4.323		0.933559970	1.277521551	0.028219871	0.291139207	0.089731931
2020-02-22T12:05:00	0.3446	4.338		0.935478681	1.280903361	0.028333329	0.292309731	0.090092698
2020-02-22T12:10:00	0.3471	4.353		0.942885583	1.293990832	0.028773708	0.296853045	0.091492992
2020-02-22T12:15:00	0.3458	4.368		0.939008352	1.287133599	0.028542712	0.294469900	0.090758483
2020-02-22T12:20:00	0.3452	4.385		0.937264138	1.284053415	0.028439136	0.293401324	0.090429137
2020-02-22T12:25:00	0.3442	4.405		0.933992394	1.278283415	0.028245419	0.291402781	0.089813167
2020-02-22T12:30:00	0.3444	4.426		0.934689641	1.279512225	0.028286640	0.291828053	0.089944240
2020-02-22T12:35:00	0.3407	4.444		0.923462168	1.259780701	0.027626954	0.285022187	0.087846606
2020-02-22T12:40:00	0.3419	4.464		0.927221657	1.266374579	0.027846880	0.287291123	0.088545914
2020-02-22T12:45:00	0.3437	4.482		0.932505561	1.275664583	0.028157630	0.290497075	0.089534020
2020-02-22T12:50:00	0.3407	4.503		0.923416075	1.259699939	0.027624263	0.284994431	0.087838052
2020-02-22T12:55:00	0.3419	4.520		0.927175606	1.266293730	0.027844180	0.287263270	0.088537330
2020-02-22T13:00:00	0.3381	4.536		0.915313529	1.245533984	0.027153604	0.280138725	0.086341476
2020-02-22T13:05:00	0.3406	4.551		0.923063751	1.259082682	0.027603704	0.284782322	0.087772677
2020-02-22T13:10:00	0.3419	4.569		0.927129556	1.266212882	0.027841480	0.287235418	0.088528745
2020-02-22T13:15:00	0.3389	4.583		0.918027921	1.250272807	0.027310775	0.281760228	0.086841239
2020-02-22T13:20:00	0.3383	4.596		0.915967837	1.246675654	0.027191444	0.280529114	0.086461797
2020-02-22T13:25:00	0.3366	4.607		0.910836115	1.237732289	0.026895453	0.277475427	0.085520621
2020-02-22T13:30:00	0.3376	4.619		0.913993608	1.243232134	0.027077359	0.279352124	0.086099038
2020-02-22T13:35:00	0.3385	4.629		0.916841912	1.248201408	0.027242039	0.281051098	0.086622678
2020-02-22T13:40:00	0.3380	4.637		0.915088081	1.245140703	0.027140573	0.280004283	0.086300040
2020-02-22T13:45:00	0.3387	4.645		0.917322297	1.249040257	0.027269869	0.281338207	0.086711168
2020-02-22T13:50:00	0.3393	4.650		0.919248750	1.252406393	0.027381629	0.282491219	0.087066537
2020-02-22T13:55:00	0.3372	4.655		0.912586311	1.240779700	0.026996199	0.278514809	0.085840969
2020-02-22T14:00:00	0.3363	4.660		0.909908983	1.236119142	0.026842169	0.276925711	0.085351194
2020-02-22T14:05:00	0.3337	4.666		0.901999746	1.222390159	0.026390002	0.272260790	0.083913420
2020-02-22T14:10:00	0.3353	4.671		0.907009463	1.231079341	0.026675909	0.275210438	0.084822530
2020-02-22T14:15:00	0.3359	4.676		0.908633544	1.233901271	0.026768964	0.276170467	0.085118420
2020-02-22T14:20:00	0.3362	4.683		0.909642478	1.235655589	0.026826864	0.276767806	0.085302526
2020-02-22T14:25:00	0.3353	4.690		0.906963180	1.230998958	0.026673260	0.275183106	0.084814106
2020-02-22T14:30:00	0.3350	4.696		0.905820187	1.229014468	0.026607882	0.274508610	0.084606220
2020-02-22T14:35:00	0.3354	4.702		0.907137303	1.231301382	0.026683228	0.275285939	0.084845800
2020-02-22T14:40:00	0.3381	4.709		0.915517002	1.245888971	0.027165368	0.280260094	0.086378883
2020-02-22T14:45:00	0.3366	4.716		0.910999076	1.238015914	0.026904824	0.277572112	0.085550421
2020-02-22T14:50:00	0.3383	4.724		0.915997546	1.246727501	0.027193163	0.280546847	0.086467263
2020-02-22T14:55:00	0.3329	4.731		0.899484258	1.218035938	0.026247088	0.270786365	0.083458988
2020-02-22T15:00:00	0.3335	4.742		0.901419314	1.221384930	0.026356988	0.271920182	0.083808441
2020-02-22T15:05:00	0.3302	4.751		0.891024332	1.203435231	0.025769604	0.265860250	0.081940711
2020-02-22T15:10:00	0.3304	4.761		0.891729093	1.204649019	0.025809195	0.266268710	0.082066602
2020-02-22T15:15:00	0.3351	4.771		0.906296393	1.229841119	0.026635109	0.274789514	0.084692797
2020-02-22T15:20:00	0.3363	4.778		0.910071982	1.236402691	0.026851533	0.277022312	0.085380967
2020-02-22T15:25:00	0.3323	4.787		0.897542746	1.214679272	0.026137077	0.269651409	0.083109183
2020-02-22T15:30:00	0.3376	4.797		0.913930927	1.243122864	0.027073742	0.279314801	0.086087534
2020-02-22T15:35:00	0.3364	4.805		0.910332961	1.236856735	0.026866528	0.277177021	0.085428650
2020-02-22T15:40:00	0.3375	4.813		0.913490850	1.242355788	0.027048349	0.279052832	0.086006793
2020-02-22T15:45:00	0.3339	4.820		0.902511725	1.223277097	0.026419143	0.272561425	0.084006078
2020-02-22T15:50:00	0.3341	4.827		0.903214455	1.224494885	0.026459169	0.272974371	0.084133352
2020-02-22T15:55:00	0.3364	4.831		0.910373707	1.236927630	0.026868870	0.277201179	0.085436096
2020-02-22T16:00:00	0.3363	4.836		0.909846239	1.236010000	0.026838565	0.276888530	0.085339734
2020-02-22T16:05:00	0.3367	4.841		0.911162030	1.238299551	0.026914197	0.277668813	0.085580225
2020-02-22T16:10:00	0.3383	4.847		0.916160297	1.247011545	0.027202580	0.280644002	0.086497207
2020-02-22T16:15:00	0.3382	4.853		0.915633590	1.246092393	0.027172110	0.280329650	0.086400321
2020-02-22T16:20:00	0.3381	4.857		0.915413651	1.245708656	0.027159392	0.280198443	0.086359881
2020-02-22T16:25:00	0.3417	4.862		0.926530848	1.265161955	0.027806395	0.286873451	0.088417184
2020-02-22T16:30:00	0.3433	4.867		0.931510066	1.273912330	0.028098937	0.289891549	0.089347391
2020-02-22T16:35:00	0.3423	4.871		0.928233660	1.268151824	0.027906247	0.287903606	0.088734687
2020-02-22T16:40:00	0.3415	4.876		0.925872779	1.264007219	0.027767860	0.286475890	0.088294651
2020-02-22T16:45:00	0.3397	4.880		0.920447272	1.254502352	0.027451288	0.283209881	0.087288036
2020-02-22T16:50:00	0.3392	4.885		0.918695016	1.251438486	0.027349479	0.282159532	0.086964308
2020-02-22T16:55:00	0.3433	4.889		0.931331527	1.273598166	0.028088417	0.289783024	0.089313942
2020-02-22T17:00:00	0.3406	4.890		0.923158200	1.259248140	0.027609214	0.284839174	0.087790200
2020-02-22T17:05:00	0.3415	4.891		0.926000020	1.264230462	0.027775308	0.286552737	0.088318336
2020-02-22T17:10:00	0.3388	4.893		0.917509204	1.249366692	0.027280701	0.281449958	0.086745611
2020-02-22T17:15:00	0.3400	4.895		0.921274255	1.255949351	0.027499411	0.283706353	0.087441053
2020-02-22T17:20:00	0.3412	4.898		0.925035785	1.262539103	0.027718890	0.285970679	0.088138940
2020-02-22T17:25:00	0.3388	4.901		0.917463043	1.249286067	0.027278025	0.281422356	0.086737103
2020-02-22T17:30:00	0.3439	4.905		0.933159331	1.276815845	0.028196212	0.290895126	0.089656703
2020-02-22T17:35:00	0.3424	4.907		0.928661181	1.268902912	0.027931348	0.288162569	0.088814502
2020-02-22T17:40:00	0.3437	4.907		0.932721351	1.276044535	0.028170361	0.290628426	0.089574503
2020-02-22T17:45:00	0.3445	4.908		0.934945812	1.279963810	0.028301794	0.291984387	0.089992424
2020-02-22T17:50:00	0.3447	4.909		0.935642895	1.281192956	0.028343051	0.292410033	0.090123612
2020-02-22T17:55:00	0.3482	4.908		0.946400162	1.300218923	0.028984000	0.299022590	0.092161666
2020-02-22T18:00:00	0.3460	4.907		0.939782423	1.288501482	0.028588746	0.294944825	0.090904859
2020-02-22T18:05:00	0.3474	4.906		0.943831460	1.295665849	0.028830220	0.297436062	0.091672683
2020-02-22T18:10:00	0.3487	4.904		0.947876464	1.302838511	0.029072590	0.299936551	0.092443358
2020-02-22T18:15:00	0.3494	4.903		0.950092634	1.306774804	0.029205862	0.301311494	0.092867129
2020-02-22T18:20:00	0.3495	4.902		0.950178771	1.306927892	0.029211049	0.301365005	0.092883622
2020-02-22T18:25:00	0.3495	4.901		0.950264906	1.307080983	0.029216236	0.301418521	0.092900116
2020-02-22T18:30:00	0.3498	4.901		0.951263492	1.308856318	0.029276411	0.302039335	0.093091456
2020-02-22T18:35:00	0.3495	4.901		0.950437170	1.307387176	0.029226612	0.301525566	0.092933108
2020-02-22T18:40:00	0.3469	4.899		0.942302355	1.292958436	0.028738894	0.296493876	0.091382292
2020-02-22T18:45:00	0.3472	4.898		0.943302898	1.294729734	0.028798633	0.297110190	0.091572246
2020-02-22T18:50:00	0.3500	4.896		0.951912009	1.310009789	0.029315528	0.302442898	0.093215838
2020-02-22T18:55:00	0.3494	4.897		0.949869117	1.306377591	0.029192405	0.301172661	0.092824339
2020-02-22T19:00:00	0.3483	4.896		0.946607524	1.300586746	0.028996435	0.299150870	0.092201204
2020-02-22T19:05:00	0.3449	4.894		0.936328933	1.282403072	0.028383688	0.292829274	0.090252826
2020-02-22T19:10:00	0.3463	4.890		0.940686338	1.290099530	0.028642555	0.295499956	0.091075956
2020-02-22T19:15:00	0.3490	4.888		0.948692413	1.304287236	0.029121618	0.300442367	0.092599255
2020-02-22T19:20:00	0.3515	4.886		0.956379046	1.317965789	0.029585766	0.305230891	0.094075125
2020-02-22T19:25:00	0.3480	4.882		0.945820646	1.299191176	0.028949266	0.298664245	0.092051221
2020-02-22T19:30:00	0.3475	4.876		0.944079359	1.296104984	0.028845041	0.297588968	0.091719810
2020-02-22T19:35:00	0.3473	4.870		0.943556282	1.295178460	0.028813773	0.297266383	0.091620386
2020-02-22T19:40:00	0.3437	4.865		0.932658961	1.275934678	0.028166680	0.290590446	0.089562798
2020-02-22T19:45:00	0.3486	4.858		0.947687749	1.302503537	0.029061257	0.299819633	0.092407323
2020-02-22T19:50:00	0.3486	4.852		0.947469548	1.302116264	0.029048157	0.299684478	0.092365667
2020-02-22T19:55:00	0.3479	4.847		0.945424425	1.298488677	0.028925532	0.298419381	0.091975751
2020-02-22T20:00:00	0.3511	4.844		0.955244516	1.315943350	0.029516999	0.304521440	0.093856465
2020-02-22T20:05:00	0.3533	4.840		0.961705654	1.327477407	0.029909826	0.308574165	0.095105555
2020-02-22T20:10:00	0.3518	4.837		0.957239007	1.319499585	0.029637950	0.305769264	0.094241057
2020-02-22T20:15:00	0.3552	4.834		0.967636607	1.338099839	0.030272993	0.312320883	0.096260329
2020-02-22T20:20:00	0.3542	4.832		0.964692305	1.332822375	0.030092398	0.310457720	0.095686084
2020-02-22T20:25:00	0.3544	4.830		0.965081236	1.333519037	0.030116219	0.310703477	0.095761829
2020-02-22T20:30:00	0.3530	4.828		0.960921684	1.326075800	0.029862007	0.308080817	0.094953500
2020-02-22T20:35:00	0.3532	4.827		0.961614331	1.327314107	0.029904254	0.308516674	0.095087835
2020-02-22T20:40:00	0.3505	4.825		0.953197854	1.312298005	0.029393174	0.303243955	0.093462732
2020-02-22T20:45:00	0.3518	4.823		0.957233573	1.319489890	0.029637620	0.305765860	0.094240008
2020-02-22T20:50:00	0.3512	4.822		0.955497158	1.316393610	0.029532305	0.304679343	0.093905133
2020-02-22T20:55:00	0.3527	4.821		0.960137563	1.324674507	0.029814221	0.307587818	0.094801553
2020-02-22T21:00:00	0.3524	4.820		0.959009508	1.322659594	0.029745550	0.306879356	0.094583198
2020-02-22T21:05:00	0.3536	4.819		0.962736241	1.329320811	0.029972755	0.309223385	0.095305650
2020-02-22T21:10:00	0.3537	4.819		0.963125358	1.330017083	0.029996534	0.309468709	0.095381262
2020-02-22T21:15:00	0.3536	4.818		0.962604719	1.329085501	0.029964720	0.309140489	0.095280101
2020-02-22T21:20:00	0.3537	4.819		0.962993848	1.329781746	0.029988496	0.309385784	0.095355703
2020-02-22T21:25:00	0.3546	4.818		0.965807950	1.334821125	0.030160756	0.311162965	0.095903448
2020-02-22T21:30:00	0.3528	4.818		0.960435578	1.325207018	0.029832377	0.307775136	0.094859286
2020-02-22T21:35:00	0.3543	4.819		0.964767286	1.332956671	0.030096989	0.310505090	0.095700684
2020-02-22T21:40:00	0.3517	4.821		0.956964734	1.319010324	0.029621301	0.305597499	0.094188117
2020-02-22T21:45:00	0.3501	4.821		0.952188860	1.310502326	0.029332236	0.302615270	0.093268965
2020-02-22T21:50:00	0.3513	4.822		0.955618037	1.316609062	0.029539629	0.304754910	0.093928423
2020-02-22T21:55:00	0.3505	4.822		0.953273046	1.312431861	0.029397718	0.303290835	0.093477181
2020-02-22T22:00:00	0.3521	4.819		0.958219588	1.321249370	0.029697516	0.306383802	0.094430463
2020-02-22T22:05:00	0.3519	4.815		0.957477941	1.319925863	0.029652458	0.305918942	0.094287189
2020-02-22T22:10:00	0.3510	4.811		0.954913497	1.315353498	0.029496952	0.304314620	0.093792721
2020-02-22T22:15:00	0.3501	4.807		0.952043394	1.310243523	0.029323456	0.302524694	0.093241049
2020-02-22T22:20:00	0.3485	4.802		0.947345221	1.301895623	0.029040694	0.299607484	0.092341936
2020-02-22T22:25:00	0.3476	4.798		0.944469777	1.296796697	0.028868391	0.297829869	0.091794058
2020-02-22T22:30:00	0.3492	4.794		0.949510439	1.305740278	0.029170818	0.300949950	0.092755697
2020-02-22T22:35:00	0.3492	4.791		0.949375767	1.305501019	0.029162715	0.300866353	0.092729932
2020-02-22T22:40:00	0.3491	4.784		0.948936811	1.304721289	0.029136312	0.300593965	0.092645979
2020-02-22T22:45:00	0.3464	4.775		0.940882595	1.290446599	0.028654245	0.295620563	0.091113128
2020-02-22T22:50:00	0.3469	4.769		0.942271873	1.292904486	0.028737075	0.296475110	0.091376508
2020-02-22T22:55:00	0.3484	4.762		0.947010836	1.301302269	0.029020627	0.299400461	0.092278130
2020-02-22T23:00:00	0.3476	4.763		0.944439794	1.296743570	0.028866597	0.297811365	0.091788355
2020-02-22T23:05:00	0.3465	4.764		0.941257437	1.291109583	0.028676580	0.295850992	0.091184149
2020-02-22T23:10:00	0.3458	4.764		0.938987795	1.287097280	0.028541490	0.294457294	0.090754598
2020-02-22T23:15:00	0.3440	4.762		0.933663652	1.277704207	0.028225995	0.291202392	0.089751405
2020-02-22T23:20:00	0.3446	4.765		0.935360729	1.280695365	0.028326347	0.292237698	0.090070497
2020-02-22T23:25:00	0.3485	4.764		0.947115623	1.301488198	0.029026915	0.299465328	0.092298122
2020-02-22T23:30:00	0.3436	4.760		0.932341531	1.275375796	0.028147954	0.290397252	0.089503253
2020-02-22T23:35:00	0.3470	4.757		0.942581622	1.293452738	0.028755561	0.296665826	0.091435289
2020-02-22T23:40:00	0.3425	4.759		0.929014298	1.269523411	0.027952090	0.288376561	0.088880457
2020-02-22T23:45:00	0.3489	4.761		0.948402984	1.303773280	0.029104222	0.300262892	0.092543939
2020-02-22T23:50:00	0.3454	4.768		0.937907498	1.285189219	0.028477316	0.293795219	0.090550540
2020-02-22T23:55:00	0.3469	4.770		0.942346784	1.293037069	0.028741546	0.296521228	0.091390722
2020-02-23T00:00:00	0.3475	4.773		0.944344875	1.296575389	0.028860920	0.297752789	0.091770301
2020-02-23T00:05:00	0.3460	4.776		0.939637790	1.288245855	0.028580142	0.294856054	0.090877499
2020-02-23T00:10:00	0.3472	4.784		0.943161117	1.294478677	0.028790164	0.297022812	0.091545315
2020-02-23T00:15:00	0.3467	4.790		0.941807118	1.292082048	0.028709351	0.296189085	0.091288353
2020-02-23T00:20:00	0.3477	4.795		0.944719397	1.297239030	0.028883326	0.297983951	0.091841548
2020-02-23T00:25:00	0.3463	4.798		0.940622620	1.289986858	0.028638760	0.295460805	0.091063890
2020-02-23T00:30:00	0.3480	4.806		0.945668054	1.298920612	0.028940125	0.298569930	0.092022152
2020-02-23T00:35:00	0.3455	4.810		0.938217581	1.285736786	0.028495728	0.293985172	0.090609085
2020-02-23T00:40:00	0.3476	4.814		0.944484682	1.296823107	0.028869283	0.297839068	0.091796893
2020-02-23T00:45:00	0.3414	4.820		0.925724424	1.263746952	0.027759176	0.286386306	0.088267041
2020-02-23T00:50:00	0.3467	4.829		0.941777116	1.292028962	0.028707562	0.296170626	0.091282663
2020-02-23T00:55:00	0.3490	4.833		0.948647399	1.304207296	0.029118912	0.300414450	0.092590651
2020-02-23T01:00:00	0.3492	4.835		0.949425563	1.305589485	0.029165711	0.300897262	0.092739459
2020-02-23T01:05:00	0.3491	4.838		0.948986612	1.304809743	0.029139307	0.300624862	0.092655502
2020-02-23T01:10:00	0.3493	4.842		0.949764711	1.306192066	0.029186120	0.301107824	0.092804356
2020-02-23T01:15:00	0.3493	4.846		0.949630048	1.305952790	0.029178016	0.301024207	0.092778584
2020-02-23T01:20:00	0.3517	4.850		0.957094512	1.319241819	0.029629178	0.305678767	0.094213165
2020-02-23T01:25:00	0.3510	4.849		0.954833690	1.315211302	0.029492120	0.304264768	0.093777357
2020-02-23T01:30:00	0.3500	4.850		0.951963530	1.310101444	0.029318637	0.302474972	0.093225724
2020-02-23T01:35:00	0.3552	4.853		0.967610293	1.338052637	0.030271376	0.312304204	0.096255189
2020-02-23T01:40:00	0.3530	4.854		0.960806701	1.325870279	0.029854997	0.308008496	0.094931210
2020-02-23T01:45:00	0.3503	4.856		0.952775941	1.311547021	0.029367684	0.302980980	0.093381680
2020-02-23T01:50:00	0.3522	4.856		0.958413558	1.321595604	0.029709307	0.306505447	0.094467955
2020-02-23T01:55:00	0.3516	4.856		0.956760926	1.318646809	0.029608932	0.305469898	0.094148789
2020-02-23T02:00:00	0.3497	4.860		0.950851782	1.308124246	0.029251593	0.301783291	0.093012541
2020-02-23T02:05:00	0.3496	4.861		0.950717154	1.307884895	0.029243480	0.301699592	0.092986744
2020-02-23T02:10:00	0.3523	4.859		0.958786789	1.322261920	0.029732002	0.306739588	0.094540120
2020-02-23T02:15:00	0.3501	4.859		0.951968490	1.310110266	0.029318936	0.302478059	0.093226675
2020-02-23T02:20:00	0.3496	4.862		0.950617420	1.307707593	0.029237471	0.301637595	0.092967636
2020-02-23T02:25:00	0.3534	4.866		0.962025095	1.328048681	0.029929324	0.308775316	0.095167551
2020-02-23T02:30:00	0.3510	4.867		0.954908370	1.315344362	0.029496642	0.304311417	0.093791734
2020-02-23T02:35:00	0.3513	4.870		0.955685339	1.316729026	0.029543708	0.304796988	0.093941392
2020-02-23T02:40:00	0.3519	4.878		0.957676898	1.320280861	0.029664542	0.306043608	0.094325612
2020-02-23T02:45:00	0.3556	4.883		0.968762118	1.340119417	0.030342189	0.313034769	0.096480356
2020-02-23T02:50:00	0.3516	4.883		0.956800725	1.318717792	0.029611348	0.305494814	0.094156468
2020-02-23T02:55:00	0.3551	4.884		0.967282504	1.337464697	0.030251241	0.312096473	0.096191164
2020-02-23T03:00:00	0.3539	4.881		0.963511553	1.330708268	0.030020145	0.309712299	0.095456338
2020-02-23T03:05:00	0.3537	4.879		0.963074115	1.329925381	0.029993402	0.309436395	0.095371302
2020-02-23T03:10:00	0.3557	4.878		0.969000381	1.340547101	0.030356849	0.313186011	0.096526970
2020-02-23T03:15:00	0.3599	4.875		0.981866646	1.363722397	0.031154416	0.321414371	0.099063031
2020-02-23T03:20:00	0.3604	4.871		0.983242087	1.366209233	0.031240370	0.322301135	0.099336340
2020-02-23T03:25:00	0.3584	4.869		0.977370990	1.355606705	0.030874408	0.318525581	0.098172677
2020-02-23T03:30:00	0.3560	4.865		0.969978151	1.342302775	0.030417050	0.313807102	0.096718396
2020-02-23T03:35:00	0.3508	4.862		0.954375324	1.314394733	0.029464376	0.303978539	0.093689138
2020-02-23T03:40:00	0.3541	4.860		0.964257053	1.332042913	0.030065752	0.310182823	0.095601358
2020-02-23T03:45:00	0.3527	4.855		0.959876409	1.324207930	0.029798315	0.307423721	0.094750977
2020-02-23T03:50:00	0.3535	4.851		0.962472539	1.328849032	0.029956646	0.309057192	0.095254428
2020-02-23T03:55:00	0.3528	4.850		0.960214690	1.324812313	0.029818919	0.307636290	0.094816492
2020-02-23T04:00:00	0.3563	4.849		0.970990414	1.344121341	0.030479447	0.314450834	0.096916801
2020-02-23T04:05:00	0.3567	4.848		0.972085397	1.346089614	0.030547023	0.315148007	0.097131676
2020-02-23T04:10:00	0.3579	4.847		0.975901626	1.352958341	0.030783200	0.317584597	0.097882657
2020-02-23T04:15:00	0.3597	4.845		0.981224113	1.362561298	0.031114309	0.321000594	0.098935501
2020-02-23T04:20:00	0.3632	4.845		0.991662333	1.381472656	0.031769483	0.327759899	0.101018784
2020-02-23T04:25:00	0.3592	4.843		0.979785848	1.359963684	0.031024638	0.320075475	0.098650370
2020-02-23T04:30:00	0.3588	4.842		0.978462361	1.357575110	0.030942252	0.319225514	0.098388404
2020-02-23T04:35:00	0.3591	4.839		0.979253322	1.359002404	0.030991474	0.319733326	0.098544916
2020-02-23T04:40:00	0.3626	4.837		0.989997786	1.378449949	0.031664487	0.326676677	0.100684925
2020-02-23T04:45:00	0.3604	4.836		0.983249537	1.366222709	0.031240836	0.322305942	0.099337822
2020-02-23T04:50:00	0.3612	4.835		0.985849371	1.370928231	0.031403670	0.323985873	0.099855593
2020-02-23T04:55:00	0.3615	4.835		0.986638919	1.372358538	0.031453216	0.324497032	0.100013137
2020-02-23T05:00:00	0.3626	4.833		0.989839217	1.378162138	0.031654495	0.326573593	0.100653153
2020-02-23T05:05:00	0.3626	4.832		0.990025527	1.378500304	0.031666235	0.326694713	0.100690483
2020-02-23T05:10:00	0.3646	4.829		0.995931590	1.389237459	0.032039677	0.330547443	0.101877932
2020-02-23T05:15:00	0.3633	4.828		0.992205132	1.382458914	0.031803764	0.328113569	0.101127789
2020-02-23T05:20:00	0.3630	4.824		0.991186802	1.380608852	0.031739467	0.327450235	0.100923343
2020-02-23T05:25:00	0.3674	4.824		1.004302934	1.404513719	0.032573252	0.336052233	0.103574562
2020-02-23T05:30:00	0.3659	4.823		0.999982936	1.396622076	0.032297279	0.333205075	0.102697040
2020-02-23T05:35:00	0.3655	4.824		0.998665887	1.394219691	0.032213407	0.332339785	0.102430349
2020-02-23T05:40:00	0.3655	4.828		0.998551168	1.394010515	0.032206108	0.332264476	0.102407138
2020-02-23T05:45:00	0.3651	4.830		0.997534393	1.392157099	0.032141451	0.331597421	0.102201546
2020-02-23T05:50:00	0.3651	4.831		0.997419643	1.391947990	0.032134158	0.331522187	0.102178358
2020-02-23T05:55:00	0.3658	4.828		0.999710062	1.396124198	0.032279892	0.333025694	0.102641753
2020-02-23T06:00:00	0.3643	4.828		0.995084408	1.387695241	0.031985957	0.329993226	0.101707117
2020-02-23T06:05:00	0.3638	4.831		0.993464805	1.384748813	0.031883400	0.328935165	0.101381012
2020-02-23T06:10:00	0.3682	4.831		1.006873822	1.409218646	0.032738119	0.337753138	0.104098797
2020-02-23T06:15:00	0.3703	4.831		1.013055667	1.420557912	0.033136487	0.341863023	0.105365504
2020-02-23T06:20:00	0.3722	4.831		1.018630035	1.430814435	0.033498056	0.345593270	0.106515202
2020-02-23T06:25:00	0.3730	4.832		1.021207889	1.435567672	0.033666018	0.347326102	0.107049278
2020-02-23T06:30:00	0.3730	4.832		1.021093787	1.435357147	0.033658574	0.347249299	0.107025606
2020-02-23T06:35:00	0.3780	4.832		1.036202880	1.463343841	0.034652525	0.357503715	0.110186117
2020-02-23T06:40:00	0.3782	4.835		1.036685070	1.464240644	0.034684518	0.357833777	0.110287845
2020-02-23T06:45:00	0.3797	4.839		1.041037984	1.472346632	0.034974090	0.360821241	0.111208611
2020-02-23T06:50:00	0.3807	4.845		1.044197019	1.478240899	0.035185103	0.362998217	0.111879576
2020-02-23T06:55:00	0.3790	4.850		1.039024677	1.468595172	0.034839987	0.359437719	0.110782196
2020-02-23T07:00:00	0.3805	4.860		1.043672630	1.477261801	0.035150025	0.362636329	0.111768039
2020-02-23T07:05:00	0.3821	4.870		1.048315498	1.485939899	0.035461292	0.365847614	0.112757788
2020-02-23T07:10:00	0.3829	4.874		1.050578376	1.490177100	0.035613569	0.367418626	0.113241989
2020-02-23T07:15:00	0.3821	4.881		1.048385862	1.486071580	0.035466022	0.365896407	0.112772826
2020-02-23T07:20:00	0.3833	4.887		1.051836311	1.492534717	0.035698381	0.368293618	0.113511670
2020-02-23T07:25:00	0.3818	4.897		1.047267672	1.483979552	0.035390907	0.365121461	0.112533980
2020-02-23T07:30:00	0.3820	4.907		1.048045741	1.485435117	0.035443164	0.365660591	0.112700146
2020-02-23T07:35:00	0.3837	4.921		1.052980629	1.494680733	0.035775633	0.369090615	0.113757312
2020-02-23T07:40:00	0.3835	4.934		1.052570582	1.493911597	0.035747940	0.368804911	0.113669255
2020-02-23T07:45:00	0.3820	4.944		1.048002732	1.485354643	0.035440274	0.365630778	0.112690957
2020-02-23T07:50:00	0.3825	4.955		1.049374773	1.487922753	0.035532528	0.366582541	0.112984299
2020-02-23T07:55:00	0.3844	4.965		1.055198094	1.498842922	0.035925605	0.370637848	0.114234184
2020-02-23T08:00:00	0.3846	4.970		1.055678132	1.499744586	0.035958119	0.370973282	0.114337568
2020-02-23T08:05:00	0.3840	4.979		1.053784978	1.496189944	0.035829992	0.369651420	0.113930158
2020-02-23T08:10:00	0.3868	4.992		1.062268338	1.512145812	0.036406182	0.375595870	0.115762295
2020-02-23T08:15:00	0.3870	5.004		1.062747582	1.513049292	0.036438890	0.375933308	0.115866296
2020-02-23T08:20:00	0.3850	5.018		1.057004785	1.502237630	0.036048061	0.371901204	0.114623563
2020-02-23T08:25:00	0.3872	5.031		1.063409864	1.514298205	0.036484117	0.376399909	0.116010107
2020-02-23T08:30:00	0.3869	5.045		1.062408605	1.512410223	0.036415753	0.375694614	0.115792729
2020-02-23T08:35:00	0.3855	5.056		1.058444129	1.504944385	0.036145790	0.372909449	0.114934314
2020-02-23T08:40:00	0.3851	5.069		1.057145225	1.502501646	0.036057590	0.371999512	0.114653862
2020-02-23T08:45:00	0.3842	5.087		1.054659435	1.497831417	0.035889142	0.370261659	0.114118239
2020-02-23T08:50:00	0.3859	5.106		1.059586676	1.507094438	0.036223474	0.373710906	0.115181331
2020-02-23T08:55:00	0.3865	5.122		1.061251211	1.510229052	0.036336821	0.374880283	0.115541744
2020-02-23T09:00:00	0.3873	5.138		1.063803281	1.515040304	0.036510999	0.376677242	0.116095584
2020-02-23T09:05:00	0.3875	5.157		1.064282354	1.515944178	0.036543748	0.377015115	0.116199720
2020-02-23T09:10:00	0.3896	5.174		1.070380997	1.527470199	0.036962129	0.381331473	0.117530064
2020-02-23T09:15:00	0.3843	5.195		1.054870209	1.498227180	0.035903407	0.370408834	0.114163600
2020-02-23T09:20:00	0.3860	5.216		1.059797207	1.507490756	0.036237799	0.373858693	0.115226880
2020-02-23T09:25:00	0.3858	5.234		1.059387815	1.506720128	0.036209946	0.373571340	0.115138315
2020-02-23T09:30:00	0.3856	5.255		1.058682008	1.505391923	0.036161956	0.373076232	0.114985718
2020-02-23T09:35:00	0.3878	5.271		1.065084577	1.517458249	0.036598627	0.377581285	0.116374219
2020-02-23T09:40:00	0.3841	5.287		1.054304189	1.497164484	0.035865105	0.370013682	0.114041810
2020-02-23T09:45:00	0.3857	5.298		1.058935484	1.505868864	0.036179186	0.373253997	0.115040507
2020-02-23T09:50:00	0.3832	5.307		1.051406582	1.491729149	0.035669395	0.367994575	0.113419502
2020-02-23T09:55:00	0.3846	5.315		1.055744444	1.499869159	0.035962611	0.371019632	0.114351854
2020-02-23T10:00:00	0.3855	5.323		1.058299803	1.504672883	0.036135983	0.372808280	0.114903133
2020-02-23T10:05:00	0.3868	5.332		1.062342497	1.512285604	0.036411242	0.375648074	0.115778385
2020-02-23T10:10:00	0.3841	5.342		1.054234226	1.497033149	0.035860373	0.369964855	0.114026761
2020-02-23T10:15:00	0.3825	5.350		1.049379112	1.487930879	0.035532820	0.366585553	0.112985228
2020-02-23T10:20:00	0.3831	5.358		1.051352510	1.491627798	0.035665749	0.367956956	0.113407907
2020-02-23T10:25:00	0.3823	5.365		1.048871312	1.486980190	0.035498660	0.366233134	0.112876609
2020-02-23T10:30:00	0.3828	5.375		1.050251044	1.489563869	0.035591519	0.367191137	0.113171874
2020-02-23T10:35:00	0.3803	5.389		1.043012227	1.476029126	0.035105878	0.362180869	0.111627661
2020-02-23T10:40:00	0.3814	5.401		1.046177773	1.481941622	0.035317780	0.364367025	0.112301456
2020-02-23T10:45:00	0.3783	5.411		1.036847138	1.464542116	0.034695275	0.357944752	0.110322049
2020-02-23T10:50:00	0.3775	5.427		1.034655513	1.460467485	0.034549973	0.356445707	0.109860029
2020-02-23T10:55:00	0.3756	5.443		1.028882591	1.449756837	0.034168902	0.352514260	0.108648319
2020-02-23T11:00:00	0.3738	5.454		1.023699476	1.440167938	0.033828814	0.349005634	0.107566926
2020-02-23T11:05:00	0.3724	5.461		1.019407501	1.432247310	0.033548662	0.346115363	0.106676116
2020-02-23T11:10:00	0.3707	5.463		1.014212678	1.422684285	0.033211350	0.342635378	0.105603551
2020-02-23T11:15:00	0.3702	5.464		1.012908155	1.420286904	0.033126949	0.341764624	0.105335176
2020-02-23T11:20:00	0.3648	5.464		0.996591059	1.390438440	0.032081529	0.330979226	0.102011012
2020-02-23T11:25:00	0.3666	5.466		1.001895107	1.400112963	0.032419269	0.334463625	0.103084937
2020-02-23T11:30:00	0.3638	5.469		0.993669566	1.385121181	0.031896356	0.329068826	0.101422208
2020-02-23T11:35:00	0.3637	5.472		0.993261773	1.384379629	0.031870557	0.328802663	0.101340174
2020-02-23T11:40:00	0.3609	5.476		0.984717449	1.368878737	0.031332716	0.323253854	0.099629977
2020-02-23T11:45:00	0.3602	5.482		0.982800110	1.365409930	0.031212735	0.322016036	0.099248470
2020-02-23T11:50:00	0.3608	5.489		0.984503430	1.368491365	0.031319310	0.323115553	0.099587351
2020-02-23T11:55:00	0.3607	5.493		0.984094734	1.367751750	0.031293720	0.322851541	0.099505980
2020-02-23T12:00:00	0.3585	5.499		0.977647119	1.356104627	0.030891566	0.318702590	0.098227234
2020-02-23T12:05:00	0.3575	5.508		0.974517090	1.350464750	0.030697396	0.316699374	0.097609823
2020-02-23T12:10:00	0.3550	5.518		0.966842791	1.336676166	0.030224242	0.311817936	0.096105316
2020-02-23T12:15:00	0.3546	5.530		0.965826312	1.334854033	0.030161882	0.311174580	0.095907028
2020-02-23T12:20:00	0.3517	5.544		0.956921118	1.318932527	0.029618654	0.305570189	0.094179700
2020-02-23T12:25:00	0.3529	5.559		0.960759621	1.325786131	0.029852127	0.307978887	0.094922084
2020-02-23T12:30:00	0.3506	5.572		0.953667403	1.313133976	0.029421556	0.303536771	0.093552981
2020-02-23T12:35:00	0.3479	5.593		0.945344776	1.298347478	0.028920762	0.298370171	0.091960584
2020-02-23T12:40:00	0.3482	5.623		0.946454823	1.300315877	0.028987278	0.299056402	0.092172087
2020-02-23T12:45:00	0.3457	5.642		0.938727561	1.286637544	0.028526024	0.294297729	0.090705418
2020-02-23T12:50:00	0.3487	5.660		0.947760975	1.302633510	0.029065654	0.299864996	0.092421304
2020-02-23T12:55:00	0.3480	5.676		0.945826268	1.299201145	0.028949603	0.298667721	0.092052292
2020-02-23T13:00:00	0.3492	5.694		0.949370977	1.305492510	0.029162427	0.300863380	0.092729016
2020-02-23T13:05:00	0.3501	5.716		0.952000518	1.310167245	0.029320869	0.302497999	0.093232821
2020-02-23T13:10:00	0.3485	5.738		0.947329051	1.301866927	0.029039723	0.299597471	0.092338850
2020-02-23T13:15:00	0.3475	5.755		0.944175733	1.296275719	0.028850804	0.297648424	0.091738135
2020-02-23T13:20:00	0.3486	5.769		0.947417487	1.302023870	0.029045032	0.299652236	0.092355729
2020-02-23T13:25:00	0.3470	5.781		0.942740751	1.293734428	0.028765061	0.296763830	0.091465495
2020-02-23T13:30:00	0.3457	5.797		0.938668788	1.286533723	0.028522531	0.294261699	0.090694313
2020-02-23T13:35:00	0.3471	5.820		0.943134024	1.294430704	0.028788545	0.297006116	0.091540170
2020-02-23T13:40:00	0.3461	5.836		0.939977446	1.288846202	0.028600351	0.295064547	0.090941759
2020-02-23T13:45:00	0.3471	5.857		0.942917821	1.294047907	0.028775633	0.296872906	0.091499113
2020-02-23T13:50:00	0.3503	5.873		0.952854033	1.311686008	0.029372401	0.303029644	0.093396679
2020-02-23T13:55:00	0.3483	5.880		0.946661526	1.300682544	0.028999673	0.299184283	0.092211502
2020-02-23T14:00:00	0.3482	5.889		0.946249040	1.299950883	0.028974941	0.298929120	0.092132858
2020-02-23T14:05:00	0.3517	5.910		0.957088286	1.319230714	0.029628800	0.305674868	0.094211963
2020-02-23T14:10:00	0.3528	5.929		0.960319791	1.325000113	0.029825322	0.307702350	0.094836853
2020-02-23T14:15:00	0.3515	5.949		0.956265380	1.317763110	0.029578872	0.305159771	0.094053205
2020-02-23T14:20:00	0.3513	5.960		0.955853865	1.317029438	0.029553922	0.304902366	0.093973871
2020-02-23T14:25:00	0.3552	5.979		0.967576500	1.337992019	0.030269300	0.312282784	0.096248587
2020-02-23T14:30:00	0.3530	6.001		0.960799518	1.325857442	0.029854559	0.308003979	0.094929818
2020-02-23T14:35:00	0.3563	6.016		0.970995042	1.344129657	0.030479732	0.314453778	0.096917708
2020-02-23T14:40:00	0.3560	6.033		0.969979591	1.342305361	0.030417139	0.313808017	0.096718679
2020-02-23T14:45:00	0.3564	6.050		0.971082968	1.344287666	0.030485155	0.314509729	0.096934953
2020-02-23T14:50:00	0.3564	6.065		0.971278249	1.344638626	0.030497202	0.314634013	0.096973259
2020-02-23T14:55:00	0.3576	6.074		0.974800980	1.350975896	0.030714978	0.316880769	0.097665731
2020-02-23T15:00:00	0.3525	6.094		0.959546728	1.323619016	0.029778242	0.307216636	0.094687151
2020-02-23T15:05:00	0.3598	6.104		0.981535545	1.363124027	0.031133745	0.321201111	0.098997302
2020-02-23T15:10:00	0.3563	6.118		0.970848803	1.343866873	0.030470713	0.314360733	0.096889031
2020-02-23T15:15:00	0.3600	6.123		0.982226950	1.364373663	0.031176919	0.321646530	0.099134584
2020-02-23T15:20:00	0.3582	6.132		0.976683220	1.354366821	0.030831697	0.318084936	0.098036867
2020-02-23T15:25:00	0.3626	6.144		0.989853345	1.378187779	0.031655385	0.326582776	0.100655983
2020-02-23T15:30:00	0.3588	6.153		0.978584002	1.357794573	0.030949819	0.319303580	0.098412464
2020-02-23T15:35:00	0.3644	6.158		0.995360142	1.388197114	0.032003436	0.330173551	0.101762695
2020-02-23T15:40:00	0.3642	6.164		0.994651601	1.386907620	0.031958533	0.329710292	0.101619914
2020-02-23T15:45:00	0.3652	6.178		0.997853797	1.392739213	0.032161754	0.331806884	0.102266104
2020-02-23T15:50:00	0.3624	6.195		0.989318941	1.377217973	0.031621724	0.326235494	0.100548948
2020-02-23T15:55:00	0.3672	6.209		1.003650296	1.403320352	0.032531474	0.335621222	0.103441720
2020-02-23T16:00:00	0.3691	6.211		1.009545118	1.414114054	0.032909926	0.339525637	0.104645099
2020-02-23T16:05:00	0.3635	6.225		0.992725387	1.383404478	0.031836641	0.328452754	0.101232329
2020-02-23T16:10:00	0.3649	6.232		0.996944022	1.391081401	0.032103942	0.331210456	0.102082279
2020-02-23T16:15:00	0.3632	6.234		0.991833826	1.381784226	0.031780311	0.327871615	0.101053216
2020-02-23T16:20:00	0.3621	6.235		0.988525944	1.375779390	0.031571811	0.325720550	0.100390237
2020-02-23T16:25:00	0.3604	6.246		0.983405351	1.366504539	0.031250581	0.322406485	0.099368810
2020-02-23T16:30:00	0.3573	6.246		0.974046568	1.349617743	0.030668267	0.316398856	0.097517200
2020-02-23T16:35:00	0.3577	6.245		0.975261998	1.351806125	0.030743543	0.317175468	0.097756560
2020-02-23T16:40:00	0.3548	6.255		0.966490678	1.336044859	0.030202632	0.311594989	0.096036602
2020-02-23T16:45:00	0.3531	6.268		0.961342585	1.326828228	0.029887675	0.308345633	0.095035119
2020-02-23T16:50:00	0.3530	6.279		0.961045117	1.326296439	0.029869533	0.308158463	0.094977431
2020-02-23T16:55:00	0.3502	6.284		0.952547303	1.311140127	0.029353876	0.302838525	0.093337775
2020-02-23T17:00:00	0.3533	6.296		0.961967001	1.327944781	0.029925777	0.308738729	0.095156275
2020-02-23T17:05:00	0.3507	6.303		0.954078966	1.313866883	0.029446446	0.303793557	0.093632125
2020-02-23T17:10:00	0.3480	6.301		0.945871141	1.299280714	0.028952292	0.298695459	0.092060841
2020-02-23T17:15:00	0.3454	6.304		0.937951837	1.285267510	0.028479948	0.293822376	0.090558910
2020-02-23T17:20:00	0.3435	6.309		0.931850889	1.274512136	0.028119023	0.290098781	0.089411262
2020-02-23T17:25:00	0.3387	6.321		0.917162511	1.248761214	0.027260610	0.281242690	0.086681728
2020-02-23T17:30:00	0.3359	6.318		0.908571928	1.233794166	0.026765430	0.276134011	0.085107184
2020-02-23T17:35:00	0.3325	6.314		0.898114354	1.215667157	0.026169439	0.269985281	0.083212086
2020-02-23T17:40:00	0.3288	6.309		0.886702233	1.196001480	0.025527536	0.263362881	0.081170998
2020-02-23T17:45:00	0.3279	6.314		0.883925902	1.191235480	0.025372709	0.261765559	0.080678688
2020-02-23T17:50:00	0.3303	6.319		0.891347185	1.203991214	0.025787737	0.266047324	0.081998369
2020-02-23T17:55:00	0.3291	6.323		0.887647308	1.197625475	0.025580359	0.263907843	0.081338960
2020-02-23T18:00:00	0.3231	6.324		0.869071667	1.165856844	0.024553171	0.253310543	0.078072770
2020-02-23T18:05:00	0.3222	6.328		0.866282903	1.161114879	0.024400965	0.251740253	0.077588791
2020-02-23T18:10:00	0.3208	6.326		0.861937521	1.153740321	0.024164839	0.249304188	0.076837972
2020-02-23T18:15:00	0.3213	6.331		0.863498214	1.156386980	0.024249500	0.250177626	0.077107174
2020-02-23T18:20:00	0.3199	6.337		0.859149745	1.149018312	0.024014018	0.247748199	0.076358401
2020-02-23T18:25:00	0.3182	6.339		0.853861665	1.140080803	0.023729356	0.244811391	0.075453248
2020-02-23T18:30:00	0.3157	6.342		0.846069192	1.126957224	0.023313277	0.240518783	0.074130225
2020-02-23T18:35:00	0.3146	6.347		0.842638975	1.121197864	0.023131401	0.238642397	0.073551904
2020-02-23T18:40:00	0.3162	6.345		0.847642310	1.129602094	0.023396948	0.241382002	0.074396277
2020-02-23T18:45:00	0.3177	6.344		0.852327493	1.137492658	0.023647119	0.243962970	0.075191757
2020-02-23T18:50:00	0.3177	6.348		0.852333566	1.137502899	0.023647445	0.243966326	0.075192791
2020-02-23T18:55:00	0.3194	6.347		0.857635841	1.146457008	0.023932333	0.246905464	0.076098662
2020-02-23T19:00:00	0.3198	6.346		0.858887028	1.148573683	0.023999832	0.247601841	0.076313292
2020-02-23T19:05:00	0.3222	6.349		0.866355523	1.161238271	0.024404921	0.251781076	0.077601373
2020-02-23T19:10:00	0.3221	6.350		0.866050924	1.160720748	0.024388327	0.251609873	0.077548607
2020-02-23T19:15:00	0.3231	6.352		0.869162378	1.166011207	0.024558131	0.253361711	0.078088540
2020-02-23T19:20:00	0.3197	6.346		0.858600039	1.148088048	0.023984340	0.247442015	0.076264032
2020-02-23T19:25:00	0.3177	6.338		0.852376079	1.137574590	0.023649721	0.243989814	0.075200030
2020-02-23T19:30:00	0.3205	6.333		0.861101400	1.152323328	0.024119550	0.248836946	0.076693963
2020-02-23T19:35:00	0.3205	6.327		0.861107459	1.152333595	0.024119878	0.248840331	0.076695007
2020-02-23T19:40:00	0.3177	6.319		0.852394299	1.137605315	0.023650697	0.243999881	0.075203133
2020-02-23T19:45:00	0.3173	6.310		0.851153183	1.135513055	0.023584278	0.243314652	0.074991939
2020-02-23T19:50:00	0.3235	6.299		0.870446171	1.168196658	0.024628382	0.254086477	0.078311920
2020-02-23T19:55:00	0.3219	6.291		0.865484025	1.159757800	0.024357459	0.251291415	0.077450455
2020-02-23T20:00:00	0.3199	6.281		0.859270999	1.149223546	0.024020567	0.247815765	0.076379225
2020-02-23T20:05:00	0.3225	6.270		0.867359932	1.162945393	0.024459685	0.252346066	0.077775508
2020-02-23T20:10:00	0.3243	6.258		0.872952086	1.172466950	0.024765828	0.255504484	0.078748963
2020-02-23T20:15:00	0.3235	6.245		0.870476397	1.168248132	0.024630037	0.254103555	0.078317183
2020-02-23T20:20:00	0.3242	6.232		0.872654039	1.171958749	0.024749459	0.255335602	0.078696912
2020-02-23T20:25:00	0.3236	6.218		0.870798789	1.168797199	0.024647697	0.254285747	0.078373337
2020-02-23T20:30:00	0.3252	6.204		0.875766320	1.177269540	0.024920689	0.257102152	0.079241380
2020-02-23T20:35:00	0.3220	6.189		0.865843141	1.160367768	0.024377011	0.251493124	0.077512623
2020-02-23T20:40:00	0.3260	6.174		0.878256791	1.181525712	0.025058178	0.258520607	0.079678562
2020-02-23T20:45:00	0.3284	6.159		0.885688694	1.194260758	0.025470954	0.262779133	0.080991081
2020-02-23T20:50:00	0.3292	6.143		0.888166911	1.198518700	0.025609426	0.264207730	0.081431388
2020-02-23T20:55:00	0.3310	6.127		0.893729733	1.208097170	0.025921770	0.267430118	0.082424560
2020-02-23T21:00:00	0.3309	6.107		0.893427236	1.207575570	0.025904731	0.267254333	0.082370381
2020-02-23T21:05:00	0.3338	6.084		0.902370243	1.223031974	0.026411088	0.272478329	0.083980467
2020-02-23T21:10:00	0.3329	6.056		0.899604838	1.218244525	0.026253928	0.270856941	0.083480740
2020-02-23T21:15:00	0.3372	6.032		0.912834642	1.241212322	0.027010511	0.278662459	0.085886476
2020-02-23T21:20:00	0.3428	6.006		0.929997181	1.271251156	0.028009870	0.288972664	0.089064181
2020-02-23T21:25:00	0.3443	5.982		0.934586262	1.279330004	0.028280526	0.291764977	0.089924800
2020-02-23T21:30:00	0.3478	5.952		0.945266023	1.298207871	0.028916046	0.298321519	0.091945589
2020-02-23T21:35:00	0.3487	5.927		0.947707745	1.302539028	0.029062458	0.299832020	0.092411140
2020-02-23T21:40:00	0.3499	5.901		0.951364621	1.309036165	0.029282509	0.302102247	0.093110846
2020-02-23T21:45:00	0.3567	5.871		0.971997801	1.345932115	0.030541614	0.315092203	0.097114477
2020-02-23T21:50:00	0.3522	5.842		0.958364972	1.321508875	0.029706354	0.306474974	0.094458564
2020-02-23T21:55:00	0.3526	5.817		0.959585056	1.323687477	0.029780575	0.307240707	0.094694570
2020-02-23T22:00:00	0.3557	5.789		0.968988583	1.340525922	0.030356123	0.313178521	0.096524662
2020-02-23T22:05:00	0.3573	5.766		0.973892319	1.349340117	0.030658721	0.316300374	0.097486847
2020-02-23T22:10:00	0.3554	5.739		0.968203775	1.339117395	0.030307851	0.312680510	0.096371170
2020-02-23T22:15:00	0.3585	5.714		0.977643423	1.356097961	0.030891336	0.318700220	0.098226503
2020-02-23T22:20:00	0.3579	5.685		0.975891765	1.352940575	0.030782588	0.317578287	0.097880712
2020-02-23T22:25:00	0.3598	5.653		0.981391116	1.362863045	0.031124731	0.321108111	0.098968638
2020-02-23T22:30:00	0.3615	5.624		0.986581650	1.372254771	0.031449621	0.324459940	0.100001705
2020-02-23T22:35:00	0.3595	5.593		0.980608669	1.361449519	0.031075921	0.320604544	0.098813434
2020-02-23T22:40:00	0.3680	5.561		1.006256358	1.408088059	0.032698479	0.337344178	0.103972752
2020-02-23T22:45:00	0.3657	5.527		0.999410002	1.395576802	0.032260779	0.332828505	0.102580978
2020-02-23T22:50:00	0.3671	5.491		1.003377050	1.402820835	0.032513992	0.335440859	0.103386131
2020-02-23T22:55:00	0.3676	5.459		1.004939557	1.405678198	0.032614033	0.336472970	0.103704237
2020-02-23T23:00:00	0.3681	5.431		1.006501478	1.408536835	0.032714212	0.337506493	0.104022779
2020-02-23T23:05:00	0.3665	5.399		1.001758939	1.399864257	0.032410574	0.334373913	0.103057287
2020-02-23T23:10:00	0.3741	5.363		1.024589102	1.441811923	0.033887048	0.349606431	0.107752097
2020-02-23T23:15:00	0.3710	5.330		1.015078471	1.424276297	0.033267434	0.343213980	0.105781882
2020-02-23T23:20:00	0.3710	5.293		1.015139623	1.424388771	0.033271397	0.343254869	0.105794484
2020-02-23T23:25:00	0.3746	5.260		1.025967030	1.444359778	0.033977360	0.350538159	0.108039265
2020-02-23T23:30:00	0.3728	5.234		1.020648424	1.434535546	0.033629525	0.346949612	0.106933240
2020-02-23T23:35:00	0.3727	5.205		1.020410431	1.434096576	0.033614008	0.346789525	0.106883900
2020-02-23T23:40:00	0.3704	5.176		1.013287665	1.420984178	0.033151490	0.342017812	0.105413211
2020-02-23T23:45:00	0.3708	5.140		1.014546988	1.423298926	0.033232999	0.342858729	0.105672390
2020-02-23T23:50:00	0.3756	5.105		1.028959059	1.449898500	0.034173934	0.352566174	0.108664319
2020-02-23T23:55:00	0.3723	5.073		1.019159171	1.431789572	0.033532493	0.345948553	0.106624704
2020-02-24T00:00:00	0.3766	5.043		1.031766238	1.455102908	0.034358951	0.354474960	0.109252625
2020-02-24T00:05:00	0.3751	5.012		1.027350798	1.446920277	0.034068192	0.351475257	0.108328088
2020-02-24T00:10:00	0.3733	4.983		1.022033943	1.437092168	0.033719941	0.347882419	0.107220740
2020-02-24T00:15:00	0.3797	4.957		1.041184817	1.472620386	0.034983882	0.360922263	0.111239747
2020-02-24T00:20:00	0.3763	4.936		1.031115022	1.453894898	0.034315979	0.354031632	0.109115987
2020-02-24T00:25:00	0.3687	4.917		1.008143028	1.411543733	0.032819685	0.338594644	0.104358158
2020-02-24T00:30:00	0.3781	4.891		1.036305033	1.463533811	0.034659302	0.357573625	0.110207664
2020-02-24T00:35:00	0.3761	4.868		1.030402776	1.452574146	0.034269016	0.353547119	0.108966656
2020-02-24T00:40:00	0.3816	4.843		1.046841825	1.483183150	0.035362324	0.364826580	0.112443095
2020-02-24T00:45:00	0.3798	4.812		1.041549452	1.473300295	0.035008205	0.361173201	0.111317088
2020-02-24T00:50:00	0.3812	4.783		1.045476947	1.480631804	0.035270804	0.363882380	0.112152083
2020-02-24T00:55:00	0.3857	4.754		1.058895203	1.505793066	0.036176448	0.373225744	0.115031799
2020-02-24T01:00:00	0.3871	4.722		1.063102831	1.513719157	0.036463146	0.376183552	0.115943424
2020-02-24T01:05:00	0.3790	4.689		1.039113609	1.468760798	0.034845904	0.359498768	0.110801012
2020-02-24T01:10:00	0.3841	4.660		1.054332417	1.497217473	0.035867015	0.370033382	0.114047882
2020-02-24T01:15:00	0.3848	4.630		1.056172728	1.500673829	0.035991636	0.371319070	0.114444143
2020-02-24T01:20:00	0.3846	4.602		1.055640138	1.499673214	0.035955545	0.370946727	0.114329384
2020-02-24T01:25:00	0.3787	4.575		1.038165717	1.466995839	0.034782862	0.358848374	0.110600554
2020-02-24T01:30:00	0.3842	4.550		1.054574759	1.497672437	0.035883412	0.370202543	0.114100019
2020-02-24T01:35:00	0.3847	4.526		1.056118414	1.500571773	0.035987954	0.371281088	0.114432437
2020-02-24T01:40:00	0.3878	4.500		1.065066477	1.517424080	0.036597388	0.377568505	0.116370280
2020-02-24T01:45:00	0.3838	4.475		1.053272963	1.495229170	0.035795384	0.369294379	0.113820114
2020-02-24T01:50:00	0.3840	4.456		1.053927036	1.496456556	0.035839597	0.369750516	0.113960700
2020-02-24T01:55:00	0.3875	4.429		1.064359897	1.516090502	0.036549051	0.377069821	0.116216581
2020-02-24T02:00:00	0.3863	4.406		1.060867021	1.509505315	0.036310641	0.374610194	0.115458500
2020-02-24T02:05:00	0.3871	4.384		1.063000616	1.513526405	0.036456166	0.376111539	0.115921229
2020-02-24T02:10:00	0.3834	4.360		1.052092009	1.493014134	0.035715635	0.368471622	0.113566532
2020-02-24T02:15:00	0.3834	4.342		1.052152628	1.493127800	0.035719726	0.368513829	0.113579541
2020-02-24T02:20:00	0.3859	4.315		1.059627655	1.507171577	0.036226262	0.373739669	0.115190196
2020-02-24T02:25:00	0.3890	4.290		1.068864081	1.524599932	0.036857810	0.380255231	0.117198355
2020-02-24T02:30:00	0.3852	4.273		1.057377536	1.502938412	0.036073356	0.372162162	0.114703993
2020-02-24T02:35:00	0.3885	4.252		1.067210443	1.521473528	0.036744281	0.379083973	0.116837362
2020-02-24T02:40:00	0.3899	4.233		1.071409916	1.529418374	0.037032985	0.382062480	0.117755367
2020-02-24T02:45:00	0.3871	4.214		1.063188243	1.513880231	0.036468979	0.376243732	0.115961972
2020-02-24T02:50:00	0.3849	4.193		1.056730238	1.501721562	0.036029437	0.371709064	0.114564344
2020-02-24T02:55:00	0.3872	4.178		1.063309165	1.514108283	0.036477238	0.376328941	0.115988235
2020-02-24T03:00:00	0.3848	4.164		1.056258279	1.500834586	0.035997435	0.371378900	0.114462584
2020-02-24T03:05:00	0.3842	4.143		1.054539175	1.497605629	0.035881004	0.370177701	0.114092363
2020-02-24T03:10:00	0.3854	4.117		1.058158293	1.504406696	0.036126370	0.372709100	0.114872564
2020-02-24T03:15:00	0.3811	4.098		1.045453813	1.480588576	0.035269254	0.363866388	0.112147155
2020-02-24T03:20:00	0.3844	4.077		1.055017574	1.498503906	0.035913383	0.370511752	0.114195320
2020-02-24T03:25:00	0.3809	4.056		1.044683251	1.479148993	0.035217646	0.363333957	0.111983054
2020-02-24T03:30:00	0.3814	4.038		1.046230497	1.482040180	0.035321315	0.364403501	0.112312698
2020-02-24T03:35:00	0.3832	4.020		1.051638298	1.492163501	0.035685023	0.368155806	0.113469195
2020-02-24T03:40:00	0.3833	4.006		1.051995783	1.492833710	0.035709141	0.368404629	0.113545885
2020-02-24T03:45:00	0.3825	3.989		1.049383957	1.487939950	0.035533146	0.366588916	0.112986264
2020-02-24T03:50:00	0.3790	3.970		1.039035908	1.468616087	0.034840734	0.359445428	0.110784572
2020-02-24T03:55:00	0.3795	3.959		1.040585215	1.471502630	0.034943906	0.360509839	0.111112634
2020-02-24T04:00:00	0.3799	3.945		1.041836406	1.473835448	0.035027354	0.361370749	0.111377974
2020-02-24T04:05:00	0.3819	3.936		1.047691323	1.484772020	0.035419355	0.365414956	0.112624438
2020-02-24T04:10:00	0.3822	3.919		1.048490581	1.486267562	0.035473061	0.365969029	0.112795209
2020-02-24T04:15:00	0.3816	3.906		1.046912718	1.483315720	0.035367082	0.364875661	0.112458222
2020-02-24T04:20:00	0.3798	3.891		1.041467414	1.473147312	0.035002732	0.361116734	0.111299685
2020-02-24T04:25:00	0.3827	3.877		1.049996581	1.489087223	0.035574382	0.367014345	0.113117386
2020-02-24T04:30:00	0.3833	3.859		1.051982973	1.492809692	0.035708277	0.368395711	0.113543136
2020-02-24T04:35:00	0.3900	3.838		1.071734193	1.530032582	0.037055332	0.382293032	0.117826425
2020-02-24T04:40:00	0.3872	3.824		1.063360906	1.514205868	0.036480773	0.376365405	0.115999473
2020-02-24T04:45:00	0.3903	3.813		1.072437385	1.531364837	0.037103819	0.382793257	0.117980600
2020-02-24T04:50:00	0.3862	3.797		1.060511856	1.508836381	0.036286449	0.374360609	0.115381575
2020-02-24T04:55:00	0.3870	3.786		1.062789470	1.513128271	0.036441749	0.375962810	0.115875389
2020-02-24T05:00:00	0.3877	3.778		1.064769921	1.516864309	0.036577096	0.377359158	0.116305757
2020-02-24T05:05:00	0.3882	3.765		1.066453619	1.520043553	0.036692389	0.378548612	0.116672359
2020-02-24T05:10:00	0.3896	3.755		1.070501850	1.527698971	0.036970448	0.381417293	0.117556514
2020-02-24T05:15:00	0.3908	3.745		1.073955648	1.534242969	0.037208630	0.383874577	0.118313873
2020-02-24T05:20:00	0.3917	3.733		1.076816448	1.539672248	0.037406583	0.385916826	0.118943314
2020-02-24T05:25:00	0.3902	3.722		1.072295571	1.531096120	0.037094037	0.382692346	0.117949498
2020-02-24T05:30:00	0.3895	3.715		1.070135329	1.527005200	0.036945223	0.381157055	0.117476306
2020-02-24T05:35:00	0.3885	3.706		1.067382476	1.521798651	0.036756082	0.379205725	0.116874887
2020-02-24T05:40:00	0.3904	3.692		1.072907096	1.532255016	0.037136226	0.383127603	0.118083648
2020-02-24T05:45:00	0.3936	3.678		1.082258233	1.550021933	0.037784796	0.389818777	0.120145933
2020-02-24T05:50:00	0.3928	3.668		1.080102985	1.545919410	0.037634741	0.388270689	0.119668797
2020-02-24T05:55:00	0.3932	3.662		1.081191062	1.547989999	0.037710454	0.389051798	0.119909543
2020-02-24T06:00:00	0.3951	3.653		1.086698010	1.558487454	0.038094990	0.393018992	0.121132270
2020-02-24T06:05:00	0.3946	3.646		1.085134149	1.555503360	0.037985561	0.391890034	0.120784315
2020-02-24T06:10:00	0.3953	3.637		1.087398766	1.559825386	0.038144083	0.393525477	0.121288374
2020-02-24T06:15:00	0.4010	3.630		1.104056926	1.591772786	0.039321858	0.405676358	0.125033393
2020-02-24T06:20:00	0.3999	3.621		1.100738615	1.585387019	0.039085596	0.403238891	0.124282142
2020-02-24T06:25:00	0.4001	3.612		1.101528080	1.586905281	0.039141731	0.403818024	0.124460637
2020-02-24T06:30:00	0.4010	3.608		1.104077455	1.591812326	0.039323322	0.405691464	0.125038049
2020-02-24T06:35:00	0.3990	3.607		1.098116798	1.580349277	0.038899505	0.401319027	0.123690422
2020-02-24T06:40:00	0.4011	3.600		1.104482166	1.592591906	0.039352194	0.405989332	0.125129855
2020-02-24T06:45:00	0.4025	3.599		1.108494993	1.600330429	0.039639131	0.408949611	0.126042242
2020-02-24T06:50:00	0.4026	3.604		1.108697149	1.600720697	0.039653618	0.409099071	0.126088307
2020-02-24T06:55:00	0.4055	3.604		1.117386876	1.617534754	0.040279244	0.415553531	0.128077634
2020-02-24T07:00:00	0.4001	3.604		1.101478190	1.586809317	0.039138182	0.403781411	0.124449352
2020-02-24T07:05:00	0.3999	3.605		1.100800248	1.585505527	0.039089977	0.403284086	0.124296072
2020-02-24T07:10:00	0.4056	3.601		1.117407343	1.617574444	0.040280724	0.415568802	0.128082341
2020-02-24T07:15:00	0.4042	3.601		1.113513896	1.610031547	0.039999705	0.412669583	0.127188773
2020-02-24T07:20:00	0.4073	3.602		1.122486150	1.627436383	0.040649012	0.419368359	0.129253401
2020-02-24T07:25:00	0.4050	3.605		1.115673123	1.614212829	0.040155412	0.414275981	0.127683881
2020-02-24T07:30:00	0.4058	3.608		1.118214265	1.619139600	0.040339108	0.416171139	0.128267987
2020-02-24T07:35:00	0.4096	3.607		1.129218650	1.640548939	0.041140212	0.424435985	0.130815293
2020-02-24T07:40:00	0.4054	3.608		1.116863461	1.616519860	0.040241399	0.415163099	0.127957299
2020-02-24T07:45:00	0.4037	3.615		1.112091382	1.607279414	0.039897315	0.411613248	0.126863201
2020-02-24T07:50:00	0.4052	3.624		1.116389703	1.615601487	0.040207163	0.414809892	0.127848437
2020-02-24T07:55:00	0.4088	3.633		1.126815157	1.635862601	0.040964462	0.422622800	0.130256451
2020-02-24T08:00:00	0.4053	3.644		1.116793276	1.616383795	0.040236326	0.415110763	0.127941169
2020-02-24T08:05:00	0.4088	3.655		1.126926026	1.636078647	0.040972559	0.422706340	0.130282199
2020-02-24T08:10:00	0.4058	3.670		1.118073939	1.618867368	0.040328951	0.416066354	0.128235691
2020-02-24T08:15:00	0.4087	3.683		1.126453352	1.635157650	0.040938043	0.422350245	0.130172447
2020-02-24T08:20:00	0.4083	3.697		1.125487422	1.633276245	0.040867561	0.421623091	0.129948332
2020-02-24T08:25:00	0.4069	3.708		1.121309017	1.625148365	0.040563479	0.418485939	0.128981431
2020-02-24T08:30:00	0.4034	3.714		1.110981733	1.605133970	0.039817551	0.410790329	0.126609569
2020-02-24T08:35:00	0.4078	3.726		1.124048349	1.630474985	0.040762684	0.420541101	0.129614851
2020-02-24T08:40:00	0.4073	3.740		1.122497827	1.627459086	0.040649861	0.419377118	0.129256101
2020-02-24T08:45:00	0.4071	3.753		1.121823135	1.626147499	0.040600823	0.418871208	0.129100174
2020-02-24T08:50:00	0.4115	3.765		1.134857625	1.651566405	0.041554265	0.428707689	0.132131873
2020-02-24T08:55:00	0.4085	3.777		1.126021479	1.634316349	0.040906521	0.422025041	0.130072216
2020-02-24T09:00:00	0.4079	3.788		1.124179722	1.630730627	0.040772252	0.420639809	0.129645274
2020-02-24T09:05:00	0.4080	3.800		1.124673073	1.631690803	0.040808194	0.421010612	0.129759559
2020-02-24T09:10:00	0.4048	3.813		1.115231410	1.613357087	0.040123530	0.413947066	0.127582506
2020-02-24T09:15:00	0.4067	3.826		1.120695496	1.623956399	0.040518941	0.418026449	0.128839811
2020-02-24T09:20:00	0.4069	3.834		1.121481367	1.625483280	0.040575996	0.418615071	0.129021231
2020-02-24T09:25:00	0.4041	3.849		1.113203667	1.609431177	0.039977362	0.412439078	0.127117729
2020-02-24T09:30:00	0.4049	3.864		1.115453730	1.613787769	0.040139575	0.414112594	0.127633523
2020-02-24T09:35:00	0.4028	3.878		1.109215669	1.601721901	0.039690791	0.409482573	0.126206506
2020-02-24T09:40:00	0.4031	3.893		1.110296477	1.603809675	0.039768338	0.410282616	0.126453087
2020-02-24T09:45:00	0.4045	3.907		1.114303971	1.611560968	0.040056638	0.413256955	0.127369807
2020-02-24T09:50:00	0.4046	3.924		1.114505859	1.611951880	0.040071194	0.413407123	0.127416090
2020-02-24T09:55:00	0.4018	3.939		1.106508081	1.596496784	0.039496907	0.407482304	0.125590004
2020-02-24T10:00:00	0.4069	3.951		1.121341145	1.625210795	0.040565812	0.418510009	0.128988849
2020-02-24T10:05:00	0.4071	3.966		1.121806064	1.626114318	0.040599583	0.418858412	0.129096230
2020-02-24T10:10:00	0.4087	3.989		1.126649757	1.635540316	0.040952383	0.422498188	0.130218045
2020-02-24T10:15:00	0.4045	4.016		1.114258535	1.611472997	0.040053363	0.413223163	0.127359392
2020-02-24T10:20:00	0.4076	4.036		1.123492523	1.629393581	0.040722219	0.420123625	0.129486181
2020-02-24T10:25:00	0.4093	4.057		1.128334362	1.638824084	0.041075500	0.423768358	0.130609524
2020-02-24T10:30:00	0.4077	4.094		1.123545999	1.629497610	0.040726111	0.420163780	0.129498558
2020-02-24T10:35:00	0.4062	4.112		1.119336981	1.621318364	0.040420422	0.417010044	0.128526546
2020-02-24T10:40:00	0.4081	4.124		1.124767234	1.631874088	0.040815056	0.421081404	0.129781378
2020-02-24T10:45:00	0.4111	4.127		1.133687915	1.649278415	0.041468179	0.427819555	0.131858142
2020-02-24T10:50:00	0.4082	4.139		1.125112582	1.632546393	0.040840228	0.421341106	0.129861421
2020-02-24T10:55:00	0.4117	4.157		1.135488769	1.652801510	0.041600757	0.429187345	0.132279708
2020-02-24T11:00:00	0.4106	4.183		1.132165469	1.646302504	0.041356288	0.426665199	0.131502358
2020-02-24T11:05:00	0.4090	4.206		1.127381269	1.636965891	0.041005818	0.423049467	0.130387954
2020-02-24T11:10:00	0.4121	4.231		1.136587803	1.654953191	0.041681789	0.430023333	0.132537368
2020-02-24T11:15:00	0.4119	4.260		1.135886605	1.653580253	0.041630079	0.429489853	0.132372944
2020-02-24T11:20:00	0.4118	4.282		1.135767683	1.653347453	0.041621313	0.429399414	0.132345070
2020-02-24T11:25:00	0.4091	4.302		1.127779837	1.637742847	0.041034949	0.423350009	0.130480584
2020-02-24T11:30:00	0.4066	4.321		1.120361913	1.623308461	0.040494737	0.417776739	0.128762848
2020-02-24T11:35:00	0.4066	4.334		1.120534764	1.623644185	0.040507278	0.417906119	0.128802725
2020-02-24T11:40:00	0.4092	4.353		1.128005818	1.638183438	0.041051472	0.423520467	0.130533121
2020-02-24T11:45:00	0.4057	4.375		1.117957879	1.618642229	0.040320552	0.415979702	0.128208984
2020-02-24T11:50:00	0.4086	4.396		1.126308793	1.634876025	0.040927490	0.422241375	0.130138892
2020-02-24T11:55:00	0.4089	4.425		1.127064947	1.636349374	0.040982707	0.422811030	0.130314466
2020-02-24T12:00:00	0.4095	4.455		1.128987611	1.640098210	0.041123299	0.424261494	0.130761513
2020-02-24T12:05:00	0.4101	4.477		1.130617934	1.643279915	0.041242733	0.425493672	0.131141282
2020-02-24T12:10:00	0.4119	4.493		1.136034313	1.653869423	0.041640969	0.429602199	0.132407570
2020-02-24T12:15:00	0.4112	4.510		1.133876773	1.649647736	0.041482071	0.427962879	0.131902316
2020-02-24T12:20:00	0.4114	4.542		1.134340372	1.650554475	0.041516184	0.428314819	0.132010787
2020-02-24T12:25:00	0.4142	4.564		1.142660367	1.666863741	0.042131170	0.434659512	0.133966283
2020-02-24T12:30:00	0.4107	4.579		1.132354393	1.646671665	0.041370163	0.426808347	0.131546478
2020-02-24T12:35:00	0.4146	4.586		1.143876332	1.669253124	0.042221490	0.435591329	0.134253478
2020-02-24T12:40:00	0.4049	4.596		1.115474305	1.613827629	0.040141060	0.414127915	0.127638245
2020-02-24T12:45:00	0.4153	4.603		1.145673051	1.672786398	0.042355154	0.436970312	0.134678494
2020-02-24T12:50:00	0.4152	4.610		1.145554391	1.672552953	0.042346319	0.436879163	0.134650401
2020-02-24T12:55:00	0.4146	4.615		1.143692146	1.668891102	0.042207802	0.435450109	0.134209953
2020-02-24T13:00:00	0.4156	4.624		1.146769564	1.674944294	0.042436848	0.437813133	0.134938260
2020-02-24T13:05:00	0.4182	4.633		1.154196509	1.689591907	0.042992592	0.443546650	0.136705385
2020-02-24T13:10:00	0.4125	4.640		1.137809687	1.657346801	0.041771986	0.430953876	0.132824170
2020-02-24T13:15:00	0.4155	4.648		1.146413664	1.674243764	0.042410322	0.437539471	0.134853914
2020-02-24T13:20:00	0.4120	4.660		1.136116426	1.654030185	0.041647023	0.429664661	0.132426821
2020-02-24T13:25:00	0.4086	4.681		1.126378792	1.635012393	0.040932600	0.422294091	0.130155140
2020-02-24T13:30:00	0.4118	4.705		1.135587415	1.652994590	0.041608027	0.429262343	0.132302823
2020-02-24T13:35:00	0.4123	4.725		1.137215304	1.656182249	0.041728096	0.430501070	0.132684611
2020-02-24T13:40:00	0.4083	4.741		1.125437573	1.633179176	0.040863925	0.421585585	0.129936772
2020-02-24T13:45:00	0.4101	4.756		1.130568803	1.643183994	0.041239131	0.425456510	0.131129828
2020-02-24T13:50:00	0.4113	4.764		1.134237938	1.650354107	0.041508645	0.428237041	0.131986815
2020-02-24T13:55:00	0.4063	4.773		1.119530725	1.621694476	0.040434464	0.417154911	0.128571195
2020-02-24T14:00:00	0.4087	4.785		1.126711721	1.635661051	0.040956908	0.422544869	0.130232432
2020-02-24T14:05:00	0.4102	4.799		1.130967083	1.643961651	0.041268337	0.425757824	0.131222696
2020-02-24T14:10:00	0.4103	4.813		1.131139518	1.644298387	0.041280985	0.425888317	0.131262915
2020-02-24T14:15:00	0.4129	4.826		1.138883626	1.659451824	0.041851355	0.431772714	0.133076544
2020-02-24T14:20:00	0.4126	4.836		1.137891767	1.657507645	0.041778049	0.431016427	0.132843449
2020-02-24T14:25:00	0.4116	4.844		1.135152741	1.652143879	0.041576000	0.428931933	0.132200987
2020-02-24T14:30:00	0.4148	4.847		1.144343132	1.670170783	0.042256193	0.435949355	0.134363825
2020-02-24T14:35:00	0.4137	4.849		1.141026473	1.663655450	0.042009983	0.433409254	0.133580941
2020-02-24T14:40:00	0.4131	4.844		1.139453268	1.660568845	0.041893490	0.432207411	0.133210522
2020-02-24T14:45:00	0.4125	4.841		1.137588459	1.656913317	0.041755647	0.430785310	0.132772216
2020-02-24T14:50:00	0.4147	4.841		1.144158966	1.669808713	0.042242500	0.435808083	0.134320284
2020-02-24T14:55:00	0.4151	4.837		1.145202639	1.671861014	0.042320134	0.436609026	0.134567142
2020-02-24T15:00:00	0.4190	4.829		1.156691337	1.694524668	0.043180221	0.445482378	0.137301995
2020-02-24T15:05:00	0.4187	4.821		1.155703442	1.692570662	0.043105867	0.444715287	0.137065571
2020-02-24T15:10:00	0.4193	4.814		1.157323983	1.695776525	0.043227876	0.445974027	0.137453526
2020-02-24T15:15:00	0.4184	4.810		1.154886844	1.690956209	0.043044463	0.444081787	0.136870320
2020-02-24T15:20:00	0.4182	4.805		1.154188528	1.689576137	0.042991993	0.443540466	0.136703479
2020-02-24T15:25:00	0.4134	4.803		1.140420267	1.662465789	0.041965072	0.432945916	0.133438136
2020-02-24T15:30:00	0.4170	4.798		1.150760685	1.682808822	0.042734973	0.440888837	0.135886221
2020-02-24T15:35:00	0.4164	4.799		1.148900620	1.679141569	0.042595880	0.439453844	0.135443943
2020-02-24T15:40:00	0.4175	4.798		1.152264542	1.685776316	0.042847622	0.442051015	0.136244416
2020-02-24T15:45:00	0.4156	4.792		1.146630701	1.674670951	0.042426497	0.437706346	0.134905347
2020-02-24T15:50:00	0.4155	4.781		1.146512067	1.674437442	0.042417655	0.437615127	0.134877232
2020-02-24T15:55:00	0.4157	4.772		1.146974347	1.675347432	0.042452115	0.437970641	0.134986805
2020-02-24T16:00:00	0.4173	4.769		1.151500452	1.684268288	0.042790365	0.441460305	0.136062353
2020-02-24T16:05:00	0.4137	4.764		1.141022158	1.663646980	0.042009664	0.433405954	0.133579924
2020-02-24T16:10:00	0.4127	4.751		1.138383093	1.658470589	0.041814352	0.431390964	0.132958885
2020-02-24T16:15:00	0.4079	4.740		1.124371964	1.631104746	0.040786255	0.420784276	0.129689800
2020-02-24T16:20:00	0.4130	4.729		1.139214361	1.660100328	0.041875815	0.432025069	0.133154322
2020-02-24T16:25:00	0.4095	4.717		1.128998577	1.640119602	0.041124102	0.424269775	0.130764065
2020-02-24T16:30:00	0.4096	4.705		1.129269315	1.640647788	0.041143922	0.424474255	0.130827088
2020-02-24T16:35:00	0.4090	4.693		1.127498468	1.637194338	0.041014383	0.423137828	0.130415188
2020-02-24T16:40:00	0.4058	4.676		1.118132580	1.618981129	0.040333195	0.416110141	0.128249187
2020-02-24T16:45:00	0.4095	4.662		1.128915077	1.639956714	0.041117990	0.424206722	0.130744632
2020-02-24T16:50:00	0.4026	4.649		1.108725686	1.600775792	0.039655664	0.409120172	0.126094810
2020-02-24T16:55:00	0.4030	4.639		1.109876447	1.602998175	0.039738191	0.409971591	0.126357226
2020-02-24T17:00:00	0.4043	4.625		1.113661462	1.610317157	0.040010335	0.412779252	0.127222574
2020-02-24T17:05:00	0.4011	4.609		1.104265931	1.592175360	0.039336766	0.405830166	0.125080799
2020-02-24T17:10:00	0.3987	4.594		1.097200720	1.578590660	0.038834605	0.400649462	0.123484055
2020-02-24T17:15:00	0.3961	4.579		1.089535514	1.563908002	0.038294003	0.395072173	0.121765081
2020-02-24T17:20:00	0.3977	4.566		1.094514115	1.573437892	0.038644630	0.398689527	0.122879984
2020-02-24T17:25:00	0.3953	4.550		1.087433012	1.559890784	0.038146483	0.393550238	0.121296006
2020-02-24T17:30:00	0.3931	4.536		1.080930048	1.547493187	0.037692283	0.388864339	0.119851766
2020-02-24T17:35:00	0.3919	4.519		1.077369241	1.540722275	0.037444904	0.386312169	0.119065162
2020-02-24T17:40:00	0.3941	4.505		1.083835383	1.553026936	0.037894820	0.390953871	0.120495780
2020-02-24T17:45:00	0.3952	4.495		1.087054288	1.559167625	0.038119946	0.393276452	0.121211622
2020-02-24T17:50:00	0.3929	4.484		1.080255865	1.546210267	0.037645374	0.388380384	0.119702606
2020-02-24T17:55:00	0.3927	4.471		1.079644915	1.545048058	0.037602893	0.387942119	0.119567529
2020-02-24T18:00:00	0.3934	4.455		1.081687902	1.548935861	0.037745055	0.389408770	0.120019565
2020-02-24T18:05:00	0.3944	4.444		1.084613815	1.554511014	0.037949192	0.391514818	0.120668669
2020-02-24T18:10:00	0.3937	4.433		1.082530017	1.550539599	0.037803743	0.390014248	0.120206179
2020-02-24T18:15:00	0.3935	4.418		1.081919389	1.549376639	0.037761182	0.389575154	0.120070846
2020-02-24T18:20:00	0.3947	4.406		1.085434276	1.556075863	0.038006548	0.392106552	0.120851047
2020-02-24T18:25:00	0.3957	4.395		1.088357656	1.561656951	0.038211320	0.394219142	0.121502168
2020-02-24T18:30:00	0.3925	4.385		1.079202164	1.544206044	0.037572125	0.387624690	0.119469694
2020-02-24T18:35:00	0.3966	4.376		1.091258007	1.567202385	0.038415105	0.396321553	0.122150152
2020-02-24T18:40:00	0.3938	4.369		1.082992888	1.551421395	0.037836024	0.390347281	0.120308823
2020-02-24T18:45:00	0.3930	4.361		1.080613443	1.546890656	0.037670250	0.388637024	0.119781705
2020-02-24T18:50:00	0.3933	4.351		1.081476871	1.548534081	0.037730356	0.389257125	0.119972826
2020-02-24T18:55:00	0.3950	4.346		1.086464745	1.558042194	0.038078656	0.392850478	0.121080333
2020-02-24T19:00:00	0.3929	4.340		1.080255230	1.546209059	0.037645330	0.388379928	0.119702466
2020-02-24T19:05:00	0.3929	4.332		1.080234121	1.546168896	0.037643862	0.388364781	0.119697797
2020-02-24T19:10:00	0.3961	4.324		1.089639567	1.564106928	0.038301313	0.395147582	0.121788322
2020-02-24T19:15:00	0.3884	4.319		1.066900767	1.520888345	0.036723043	0.378864863	0.116769830
2020-02-24T19:20:00	0.3939	4.309		1.083118829	1.551661356	0.037844809	0.390437923	0.120336760
2020-02-24T19:25:00	0.3890	4.301		1.068632962	1.524162813	0.036841931	0.380091407	0.117147863
2020-02-24T19:30:00	0.3938	4.292		1.082781922	1.551019466	0.037821309	0.390195471	0.120262034
2020-02-24T19:35:00	0.3938	4.287		1.082760824	1.550979274	0.037819838	0.390180292	0.120257355
2020-02-24T19:40:00	0.3910	4.281		1.074774695	1.535796551	0.037265242	0.384458637	0.118493886
2020-02-24T19:45:00	0.3953	4.271		1.087431745	1.559888364	0.038146395	0.393549322	0.121295723
2020-02-24T19:50:00	0.3951	4.264		1.086821809	1.558723784	0.038103661	0.393108442	0.121159840
2020-02-24T19:55:00	0.3923	4.259		1.078548194	1.542962690	0.037526705	0.387156101	0.119325270
2020-02-24T20:00:00	0.3975	4.253		1.093840780	1.572147586	0.038597102	0.398199184	0.122728856
2020-02-24T20:05:00	0.3950	4.248		1.086464111	1.558040984	0.038078612	0.392850020	0.121080191
2020-02-24T20:10:00	0.3971	4.245		1.092622626	1.569814384	0.038511202	0.397312970	0.122455716
2020-02-24T20:15:00	0.3955	4.243		1.087894092	1.560771389	0.038178807	0.393883710	0.121398785
2020-02-24T20:20:00	0.3931	4.241		1.080802139	1.547249753	0.037683381	0.388772495	0.119823459
2020-02-24T20:25:00	0.3980	4.238		1.095205219	1.574762714	0.038693448	0.399193173	0.123035213
2020-02-24T20:30:00	0.3963	4.236		1.090185291	1.565150400	0.038339661	0.395543210	0.121910259
2020-02-24T20:35:00	0.3928	4.235		1.079854131	1.545446008	0.037617437	0.388092168	0.119613775
2020-02-24T20:40:00	0.3941	4.232		1.083665375	1.552702897	0.037882951	0.390831423	0.120458040
2020-02-24T20:45:00	0.3946	4.231		1.085117367	1.555471351	0.037984388	0.391877930	0.120780584
2020-02-24T20:50:00	0.3934	4.230		1.081854815	1.549253679	0.037756683	0.389528737	0.120056540
2020-02-24T20:55:00	0.3894	4.230		1.070025916	1.526798122	0.036937695	0.381079389	0.117452369
2020-02-24T21:00:00	0.3921	4.229		1.077978609	1.541880112	0.037487172	0.386748241	0.119199564
2020-02-24T21:05:00	0.3913	4.228		1.075596394	1.537355826	0.037322088	0.385045101	0.118674640
2020-02-24T21:10:00	0.3911	4.228		1.074984783	1.536195156	0.037279772	0.384608532	0.118540085
2020-02-24T21:15:00	0.3903	4.227		1.072600909	1.531674718	0.037115099	0.382909637	0.118016469
2020-02-24T21:20:00	0.3905	4.224		1.073170571	1.532754438	0.037154412	0.383315220	0.118141474
2020-02-24T21:25:00	0.3897	4.223		1.070785692	1.528236332	0.036989989	0.381618897	0.117618650
2020-02-24T21:30:00	0.3913	4.221		1.075490731	1.537155280	0.037314775	0.384969658	0.118651387
2020-02-24T21:35:00	0.3904	4.219		1.072811739	1.532074282	0.037129646	0.383059713	0.118062724
2020-02-24T21:40:00	0.3917	4.218		1.076629214	1.539316668	0.037393609	0.385782975	0.118902059
2020-02-24T21:45:00	0.3889	4.217		1.068335983	1.523601207	0.036821532	0.379880958	0.117083001
2020-02-24T21:50:00	0.3919	4.216		1.077177219	1.540357496	0.037431590	0.386174813	0.119022828
2020-02-24T21:55:00	0.3881	4.216		1.065927235	1.519049310	0.036656322	0.378176516	0.116557675
2020-02-24T22:00:00	0.3926	4.215		1.079495221	1.544763351	0.037592489	0.387834779	0.119534446
2020-02-24T22:05:00	0.3929	4.214		1.080160671	1.546029155	0.037638753	0.388312078	0.119681554
2020-02-24T22:10:00	0.3886	4.214		1.067536847	1.522090421	0.036766674	0.379314997	0.116908566
2020-02-24T22:15:00	0.3939	4.214		1.083259786	1.551929947	0.037854644	0.390539386	0.120368032
2020-02-24T22:20:00	0.3942	4.216		1.084219294	1.553758787	0.037921630	0.391230463	0.120581028
2020-02-24T22:25:00	0.3926	4.218		1.079283315	1.544360360	0.037577764	0.387682859	0.119487622
2020-02-24T22:30:00	0.3915	4.222		1.076113136	1.538336746	0.037357862	0.385414173	0.118788391
2020-02-24T22:35:00	0.3913	4.226		1.075598400	1.537359634	0.037322227	0.385046533	0.118675081
2020-02-24T22:40:00	0.3912	4.229		1.075378846	1.536942937	0.037307033	0.384889782	0.118626769
2020-02-24T22:45:00	0.3901	4.236		1.071910328	1.530366239	0.037067474	0.382418293	0.117865032
2020-02-24T22:50:00	0.3898	4.243		1.071099573	1.528830655	0.037011605	0.381841908	0.117687384
2020-02-24T22:55:00	0.3879	4.253		1.065556737	1.518349670	0.036630948	0.377914740	0.116476993
2020-02-24T23:00:00	0.3902	4.255		1.072137522	1.530796664	0.037083138	0.382579900	0.117914841
2020-02-24T23:05:00	0.3884	4.265		1.066891855	1.520871505	0.036722432	0.378858558	0.116767887
2020-02-24T23:10:00	0.3884	4.278		1.066967676	1.521014773	0.036727631	0.378912198	0.116784419
2020-02-24T23:15:00	0.3855	4.290		1.058456516	1.504967689	0.036146631	0.372918134	0.114936991
2020-02-24T23:20:00	0.3861	4.299		1.060014205	1.507899293	0.036252567	0.374011055	0.115273840
2020-02-24T23:25:00	0.3894	4.312		1.069856467	1.526477443	0.036926038	0.380959125	0.117415302
2020-02-24T23:30:00	0.3891	4.315		1.069045324	1.524942755	0.036870265	0.380383729	0.117237960
2020-02-24T23:35:00	0.3855	4.324		1.058464003	1.504981773	0.036147140	0.372923382	0.114938608
2020-02-24T23:40:00	0.3890	4.337		1.068605533	1.524110938	0.036840046	0.380071966	0.117141871
2020-02-24T23:45:00	0.3863	4.344		1.060690164	1.509172198	0.036298594	0.374485899	0.115420191
2020-02-24T23:50:00	0.3886	4.357		1.067574199	1.522161023	0.036769237	0.379341440	0.116916716
2020-02-24T23:55:00	0.3863	4.367		1.060842025	1.509458231	0.036308938	0.374592625	0.115453085
2020-02-25T00:00:00	0.3884	4.379		1.066838447	1.520770593	0.036718770	0.378820777	0.116756243
2020-02-25T00:05:00	0.3887	4.388		1.067801623	1.522590918	0.036784845	0.379502462	0.116966345
2020-02-25T00:10:00	0.3897	4.402		1.070833895	1.528327597	0.036993308	0.381653140	0.117629204
2020-02-25T00:15:00	0.3893	4.416		1.069727325	1.526233063	0.036917155	0.380867483	0.117387057
2020-02-25T00:20:00	0.3881	4.425		1.065958368	1.519108107	0.036658455	0.378198518	0.116564456
2020-02-25T00:25:00	0.3879	4.436		1.065442414	1.518133812	0.036623121	0.377833985	0.116452104
2020-02-25T00:30:00	0.3869	4.440		1.062558125	1.512692097	0.036425958	0.375799889	0.115825176
2020-02-25T00:35:00	0.3902	4.454		1.072394553	1.531283676	0.037100864	0.382762778	0.117971205
2020-02-25T00:40:00	0.3906	4.462		1.073356483	1.533106878	0.037167247	0.383447638	0.118182286
2020-02-25T00:45:00	0.3860	4.472		1.059823787	1.507540795	0.036239608	0.373877354	0.115232632
2020-02-25T00:50:00	0.3874	4.485		1.064045925	1.515498077	0.036527584	0.376848349	0.116148321
2020-02-25T00:55:00	0.3899	4.493		1.071515613	1.529618561	0.037040268	0.382137618	0.117778525
2020-02-25T01:00:00	0.3892	4.511		1.069226759	1.525285977	0.036882736	0.380512390	0.117277614
2020-02-25T01:05:00	0.3881	4.524		1.066049152	1.519279565	0.036664674	0.378262679	0.116584231
2020-02-25T01:10:00	0.3922	4.533		1.078238532	1.542374094	0.037505209	0.386934332	0.119256919
2020-02-25T01:15:00	0.3890	4.545		1.068862775	1.524597461	0.036857720	0.380254305	0.117198070
2020-02-25T01:20:00	0.3886	4.560		1.067459930	1.521945041	0.036761396	0.379260549	0.116891785
2020-02-25T01:25:00	0.3873	4.572		1.063688978	1.514824680	0.036503187	0.376596654	0.116070746
2020-02-25T01:30:00	0.3881	4.585		1.066132462	1.519436913	0.036670381	0.378321564	0.116602380
2020-02-25T01:35:00	0.3895	4.597		1.070348389	1.527408476	0.036959885	0.381308320	0.117522927
2020-02-25T01:40:00	0.3889	4.606		1.068354639	1.523636484	0.036822813	0.379894176	0.117087075
2020-02-25T01:45:00	0.3867	4.613		1.061919863	1.511489003	0.036382410	0.375350616	0.115686705
2020-02-25T01:50:00	0.3908	4.623		1.074120955	1.534556473	0.037220052	0.383992416	0.118350192
2020-02-25T01:55:00	0.3894	4.633		1.070060267	1.526863135	0.036940058	0.381103772	0.117459884
2020-02-25T02:00:00	0.3878	4.640		1.065108007	1.517502479	0.036600230	0.377597828	0.116379318
2020-02-25T02:05:00	0.3900	4.643		1.071689481	1.529947886	0.037052250	0.382261238	0.117816626
2020-02-25T02:10:00	0.3856	4.642		1.058744313	1.505509150	0.036166191	0.373119922	0.114999184
2020-02-25T02:15:00	0.3876	4.649		1.064447698	1.516256189	0.036555055	0.377131768	0.116235673
2020-02-25T02:20:00	0.3881	4.657		1.066003208	1.519192791	0.036661526	0.378230207	0.116574223
2020-02-25T02:25:00	0.3908	4.662		1.074060178	1.534441207	0.037215852	0.383949089	0.118336838
2020-02-25T02:30:00	0.3870	4.667		1.062899102	1.513334987	0.036449234	0.376040030	0.115899189
2020-02-25T02:35:00	0.3893	4.664		1.069483964	1.525772586	0.036900419	0.380694823	0.117333842
2020-02-25T02:40:00	0.3890	4.665		1.068672750	1.524238061	0.036844664	0.380119606	0.117156554
2020-02-25T02:45:00	0.3895	4.665		1.070226728	1.527178193	0.036951512	0.381221941	0.117496305
2020-02-25T02:50:00	0.3912	4.672		1.075324440	1.536839686	0.037303268	0.384850945	0.118614799
2020-02-25T02:55:00	0.3877	4.680		1.064758624	1.516842988	0.036576323	0.377351185	0.116303300
2020-02-25T03:00:00	0.3898	4.686		1.071045113	1.528727530	0.037007854	0.381803209	0.117675457
2020-02-25T03:05:00	0.3883	4.689		1.066685693	1.520481983	0.036708297	0.378712730	0.116722941
2020-02-25T03:10:00	0.3905	4.698		1.073264749	1.532932970	0.037160914	0.383382296	0.118162147
2020-02-25T03:15:00	0.3883	4.708		1.066541511	1.520209591	0.036698413	0.378610763	0.116691514
2020-02-25T03:20:00	0.3908	4.714		1.074006860	1.534340089	0.037212168	0.383911081	0.118325124
2020-02-25T03:25:00	0.3916	4.716		1.076444480	1.538965868	0.037380811	0.385650936	0.118861364
2020-02-25T03:30:00	0.3874	4.722		1.064105737	1.515610928	0.036531673	0.376890534	0.116161323
2020-02-25T03:35:00	0.3914	4.722		1.075710246	1.537571927	0.037329968	0.385126400	0.118699697
2020-02-25T03:40:00	0.3906	4.731		1.073423626	1.533234172	0.037171883	0.383495467	0.118197028
2020-02-25T03:45:00	0.3927	4.737		1.079697462	1.545148004	0.037606546	0.387979803	0.119579143
2020-02-25T03:50:00	0.3921	4.745		1.078003105	1.541926663	0.037488872	0.386765777	0.119204969
2020-02-25T03:55:00	0.3931	4.752		1.080733341	1.547118823	0.037678593	0.388723099	0.119808234
2020-02-25T04:00:00	0.3930	4.766		1.080514048	1.546701518	0.037663334	0.388565677	0.119759715
2020-02-25T04:05:00	0.3946	4.771		1.085135617	1.555506160	0.037985664	0.391891093	0.120784641
2020-02-25T04:10:00	0.3938	4.781		1.082979169	1.551395256	0.037835067	0.390337407	0.120305780
2020-02-25T04:15:00	0.3919	4.792		1.077281871	1.540556297	0.037438846	0.386249669	0.119045899
2020-02-25T04:20:00	0.3904	4.802		1.072758840	1.531974024	0.037125996	0.383022055	0.118051117
2020-02-25T04:25:00	0.3906	4.807		1.073550784	1.533475257	0.037180664	0.383586058	0.118224948
2020-02-25T04:30:00	0.3920	4.817		1.077589697	1.541141113	0.037460192	0.386469897	0.119113776
2020-02-25T04:35:00	0.3920	4.823		1.077495580	1.540962297	0.037453665	0.386402555	0.119093020
2020-02-25T04:40:00	0.3912	4.827		1.075335308	1.536860311	0.037304020	0.384858702	0.118617190
2020-02-25T04:45:00	0.3957	4.833		1.088506610	1.561941548	0.038221770	0.394326959	0.121535398
2020-02-25T04:50:00	0.3904	4.839		1.072784336	1.532022345	0.037127755	0.383040205	0.118056711
2020-02-25T04:55:00	0.3928	4.843		1.080069215	1.545855165	0.037632393	0.388246461	0.119661330
2020-02-25T05:00:00	0.3938	4.859		1.082923324	1.551288858	0.037831171	0.390297219	0.120293393
2020-02-25T05:05:00	0.3913	4.870		1.075454952	1.537087375	0.037312299	0.384944114	0.118643514
2020-02-25T05:10:00	0.3931	4.873		1.080966583	1.547562724	0.037694826	0.388890575	0.119859852
2020-02-25T05:15:00	0.3910	4.877		1.074676102	1.535609503	0.037258425	0.384388303	0.118472208
2020-02-25T05:20:00	0.3930	4.879		1.080483621	1.546643621	0.037661217	0.388543838	0.119752984
2020-02-25T05:25:00	0.3914	4.879		1.075963954	1.538053531	0.037347532	0.385307602	0.118755545
2020-02-25T05:30:00	0.3930	4.882		1.080590398	1.546846803	0.037668646	0.388620481	0.119776607
2020-02-25T05:35:00	0.3924	4.885		1.078726690	1.543302012	0.037539099	0.387283966	0.119364680
2020-02-25T05:40:00	0.3901	4.889		1.071842024	1.530236844	0.037062765	0.382369714	0.117850060
2020-02-25T05:45:00	0.3921	4.894		1.077948432	1.541822765	0.037485078	0.386726639	0.119192906
2020-02-25T05:50:00	0.3932	4.897		1.081098794	1.547814369	0.037704030	0.388985526	0.119889117
2020-02-25T05:55:00	0.3913	4.903		1.075399009	1.536981204	0.037308428	0.384904176	0.118631205
2020-02-25T06:00:00	0.3929	4.908		1.080320963	1.546334125	0.037649902	0.388427099	0.119717004
2020-02-25T06:05:00	0.3953	4.912		1.087298727	1.559634355	0.038137073	0.393453148	0.121266081
2020-02-25T06:10:00	0.3945	4.916		1.084848782	1.554959095	0.037965613	0.391684229	0.120720883
2020-02-25T06:15:00	0.3943	4.923		1.084460222	1.554218142	0.037938460	0.391404100	0.120634545
2020-02-25T06:20:00	0.3945	4.927		1.084955451	1.555162529	0.037973069	0.391761150	0.120744591
2020-02-25T06:25:00	0.3959	4.930		1.088983709	1.562853255	0.038255255	0.394672411	0.121641870
2020-02-25T06:30:00	0.3946	4.933		1.085356677	1.555927832	0.038001121	0.392050564	0.120833791
2020-02-25T06:35:00	0.3974	4.938		1.093502475	1.571499464	0.038573235	0.397952951	0.122652964
2020-02-25T06:40:00	0.3938	4.943		1.082811631	1.551076065	0.037823381	0.390216848	0.120268622
2020-02-25T06:45:00	0.3924	4.947		1.078884430	1.543601902	0.037550054	0.387396983	0.119399513
2020-02-25T06:50:00	0.3970	4.954		1.092339018	1.569271383	0.038491219	0.397106807	0.122392175
2020-02-25T06:55:00	0.3945	4.961		1.084886919	1.555031826	0.037968278	0.391711729	0.120729359
2020-02-25T07:00:00	0.3977	4.963		1.094503495	1.573417537	0.038643880	0.398681791	0.122877600
2020-02-25T07:05:00	0.3914	4.966		1.075852081	1.537841159	0.037339787	0.385227695	0.118730917
2020-02-25T07:10:00	0.3947	4.972		1.085488754	1.556179792	0.038010358	0.392145861	0.120863163
2020-02-25T07:15:00	0.3974	4.976		1.093634304	1.571752008	0.038582534	0.398048891	0.122682534
2020-02-25T07:20:00	0.3930	4.985		1.080585422	1.546837333	0.037668300	0.388616909	0.119775506
2020-02-25T07:25:00	0.3945	4.991		1.084912343	1.555080314	0.037970056	0.391730063	0.120735010
2020-02-25T07:30:00	0.3957	4.999		1.088646325	1.562208511	0.038231574	0.394428104	0.121566572
2020-02-25T07:35:00	0.3947	5.011		1.085608117	1.556407512	0.038018707	0.392231996	0.120889711
2020-02-25T07:40:00	0.3973	5.021		1.093165443	1.570853892	0.038549466	0.397707732	0.122577385
2020-02-25T07:45:00	0.3971	5.029		1.092483572	1.569548139	0.038501403	0.397211880	0.122424559
2020-02-25T07:50:00	0.3967	5.035		1.091507472	1.567679745	0.038432662	0.396502687	0.122205979
2020-02-25T07:55:00	0.3972	5.046		1.092884102	1.570315080	0.038529631	0.397503099	0.122514316
2020-02-25T08:00:00	0.3988	5.058		1.097492494	1.579150696	0.038855269	0.400862651	0.123549762
2020-02-25T08:05:00	0.3985	5.071		1.096811303	1.577843337	0.038807035	0.400365030	0.123396391
2020-02-25T08:10:00	0.3964	5.081		1.090543847	1.565836152	0.038364868	0.395803274	0.121990413
2020-02-25T08:15:00	0.3966	5.082		1.091038381	1.566782172	0.038399651	0.396162125	0.122101014
2020-02-25T08:20:00	0.3965	5.088		1.090944556	1.566602672	0.038393051	0.396094028	0.122080026
2020-02-25T08:25:00	0.3954	5.097		1.087613575	1.560235612	0.038159140	0.393680809	0.121336249
2020-02-25T08:30:00	0.3974	5.100		1.093403742	1.571310334	0.038566271	0.397881106	0.122630821
2020-02-25T08:35:00	0.3965	5.107		1.090957251	1.566626958	0.038393944	0.396103241	0.122082866
2020-02-25T08:40:00	0.3927	5.119		1.079670270	1.545096284	0.037604656	0.387960302	0.119573133
2020-02-25T08:45:00	0.3945	5.140		1.084881948	1.555022345	0.037967931	0.391708144	0.120728254
2020-02-25T08:50:00	0.3925	5.154		1.079187164	1.544177519	0.037571083	0.387613938	0.119466380
2020-02-25T08:55:00	0.3923	5.168		1.078503085	1.542876941	0.037523573	0.387123791	0.119315312
2020-02-25T09:00:00	0.3912	5.183		1.075162490	1.536532357	0.037292064	0.384735350	0.118579171
2020-02-25T09:05:00	0.3969	5.200		1.092159151	1.568927047	0.038478548	0.396976089	0.122351886
2020-02-25T09:10:00	0.3947	5.221		1.085590437	1.556373780	0.038017471	0.392219237	0.120885778
2020-02-25T09:15:00	0.3929	5.246		1.080191501	1.546087809	0.037640897	0.388334199	0.119688371
2020-02-25T09:20:00	0.3942	5.273		1.084224199	1.553768139	0.037921972	0.391233998	0.120582118
2020-02-25T09:25:00	0.3904	5.303		1.072919576	1.532278670	0.037137088	0.383136488	0.118086387
2020-02-25T09:30:00	0.3928	5.339		1.079909314	1.545550979	0.037621274	0.388131751	0.119625975
2020-02-25T09:35:00	0.3906	5.366		1.073321924	1.533041361	0.037164861	0.383423021	0.118174699
2020-02-25T09:40:00	0.3928	5.392		1.080016105	1.545754128	0.037628700	0.388208358	0.119649586
2020-02-25T09:45:00	0.3924	5.409		1.078742194	1.543331486	0.037540176	0.387295073	0.119368103
2020-02-25T09:50:00	0.3906	5.430		1.073334671	1.533065525	0.037165741	0.383432100	0.118177497
2020-02-25T09:55:00	0.3904	5.450		1.072945071	1.532326994	0.037138847	0.383154641	0.118091982
2020-02-25T10:00:00	0.3936	5.469		1.082293488	1.550089079	0.037787254	0.389844130	0.120153747
2020-02-25T10:05:00	0.3914	5.488		1.075843054	1.537824022	0.037339162	0.385221247	0.118728930
2020-02-25T10:10:00	0.3929	5.502		1.080307904	1.546309277	0.037648994	0.388417727	0.119714116
2020-02-25T10:15:00	0.3933	5.513		1.081526424	1.548628421	0.037733807	0.389292730	0.119983800
2020-02-25T10:20:00	0.3934	5.528		1.081860324	1.549264169	0.037757067	0.389532697	0.120057760
2020-02-25T10:25:00	0.3931	5.544		1.080720116	1.547093654	0.037677673	0.388713604	0.119805308
2020-02-25T10:30:00	0.3925	5.557		1.078989676	1.543802006	0.037557364	0.387472400	0.119422757
2020-02-25T10:35:00	0.3922	5.570		1.078143761	1.542193975	0.037498632	0.386866476	0.119236005
2020-02-25T10:40:00	0.3893	5.582		1.069618203	1.526026579	0.036909650	0.380790057	0.117363194
2020-02-25T10:45:00	0.3933	5.598		1.081466219	1.548513802	0.037729614	0.389249471	0.119970467
2020-02-25T10:50:00	0.3951	5.610		1.086808702	1.558698763	0.038102743	0.393098971	0.121156921
2020-02-25T10:55:00	0.3923	5.621		1.078595308	1.543052251	0.037529976	0.387189849	0.119335672
2020-02-25T11:00:00	0.3921	5.636		1.077749317	1.541444399	0.037471264	0.386584123	0.119148981
2020-02-25T11:05:00	0.3924	5.656		1.078673563	1.543201014	0.037535410	0.387245906	0.119352949
2020-02-25T11:10:00	0.3896	5.674		1.070444638	1.527590668	0.036966510	0.381376664	0.117543992
2020-02-25T11:15:00	0.3926	5.695		1.079341780	1.544471541	0.037581826	0.387724771	0.119500540
2020-02-25T11:20:00	0.3948	5.716		1.085865113	1.556897856	0.038036687	0.392417487	0.120946881
2020-02-25T11:25:00	0.3902	5.736		1.072335258	1.531171319	0.037096775	0.382720585	0.117958201
2020-02-25T11:30:00	0.3899	5.760		1.071488034	1.529566327	0.037038368	0.382118012	0.117772482
2020-02-25T11:35:00	0.3919	5.789		1.077433113	1.540843619	0.037449333	0.386357863	0.119079246
2020-02-25T11:40:00	0.3893	5.815		1.069497459	1.525798118	0.036901347	0.380704396	0.117336792
2020-02-25T11:45:00	0.3868	5.835		1.062139437	1.511902844	0.036397388	0.375505140	0.115734331
2020-02-25T11:50:00	0.3872	5.849		1.063363119	1.514210042	0.036480924	0.376366965	0.115999954
2020-02-25T11:55:00	0.3868	5.861		1.062217992	1.512050913	0.036402747	0.375560431	0.115751372
2020-02-25T12:00:00	0.3872	5.868		1.063441652	1.514358162	0.036486289	0.376422313	0.116017013
2020-02-25T12:05:00	0.3881	5.877		1.066144559	1.519459762	0.036671210	0.378330115	0.116605016
2020-02-25T12:10:00	0.3868	5.891		1.062335822	1.512273022	0.036410787	0.375643375	0.115776936
2020-02-25T12:15:00	0.3818	5.900		1.047245760	1.483938568	0.035389436	0.365106284	0.112529303
2020-02-25T12:20:00	0.3855	5.904		1.058266600	1.504610424	0.036133728	0.372785008	0.114895960
2020-02-25T12:25:00	0.3842	5.913		1.054450834	1.497439778	0.035875026	0.370116035	0.114073356
2020-02-25T12:30:00	0.3857	5.922		1.058938001	1.505873601	0.036179358	0.373255762	0.115041051
2020-02-25T12:35:00	0.3882	5.929		1.066380000	1.519904484	0.036687343	0.378496559	0.116656315
2020-02-25T12:40:00	0.3846	5.935		1.055755395	1.499889733	0.035963353	0.371027287	0.114354213
2020-02-25T12:45:00	0.3854	5.943		1.058166754	1.504422610	0.036126945	0.372715029	0.114874392
2020-02-25T12:50:00	0.3862	5.951		1.060576751	1.508958598	0.036290869	0.374406205	0.115395629
2020-02-25T12:55:00	0.3846	5.971		1.055576814	1.499554260	0.035951255	0.370902470	0.114315743
2020-02-25T13:00:00	0.3868	5.985		1.062136317	1.511896964	0.036397175	0.375502944	0.115733654
2020-02-25T13:05:00	0.3819	5.997		1.047639896	1.484675813	0.035415901	0.365379321	0.112613455
2020-02-25T13:10:00	0.3814	6.008		1.046193294	1.481970635	0.035318821	0.364377763	0.112304765
2020-02-25T13:15:00	0.3815	6.025		1.046529960	1.482600028	0.035341401	0.364610714	0.112376563
2020-02-25T13:20:00	0.3792	6.042		1.039727616	1.469904533	0.034886775	0.359920426	0.110930971
2020-02-25T13:25:00	0.3833	6.069		1.051955504	1.492758188	0.035706423	0.368376588	0.113537242
2020-02-25T13:30:00	0.3760	6.087		1.030269356	1.452326794	0.034260223	0.353456400	0.108938695
2020-02-25T13:35:00	0.3802	6.102		1.042524523	1.475119075	0.035073295	0.361844724	0.111524058
2020-02-25T13:40:00	0.3824	6.106		1.049104141	1.487416055	0.035514320	0.366394696	0.112926404
2020-02-25T13:45:00	0.3813	6.105		1.045874749	1.481375223	0.035297464	0.364157429	0.112236856
2020-02-25T13:50:00	0.3817	6.101		1.047103108	1.483671770	0.035379860	0.365007491	0.112498854
2020-02-25T13:55:00	0.3787	6.103		1.038217495	1.467092226	0.034786304	0.358883884	0.110611499
2020-02-25T14:00:00	0.3835	6.112		1.052527921	1.493831587	0.035745060	0.368775194	0.113660096
2020-02-25T14:05:00	0.3803	6.104		1.043058757	1.476115963	0.035108987	0.362212948	0.111637548
2020-02-25T14:10:00	0.3783	6.094		1.036846699	1.464541300	0.034695245	0.357944452	0.110321956
2020-02-25T14:15:00	0.3832	6.093		1.051458636	1.491826719	0.035672906	0.368030791	0.113430664
2020-02-25T14:20:00	0.3782	6.096		1.036627807	1.464134131	0.034680718	0.357794571	0.110275762
2020-02-25T14:25:00	0.3774	6.092		1.034283261	1.459775863	0.034525328	0.356191448	0.109781664
2020-02-25T14:30:00	0.3768	6.090		1.032533885	1.456527426	0.034409644	0.354997957	0.109413818
2020-02-25T14:35:00	0.3769	6.085		1.032871639	1.457154375	0.034431962	0.355228208	0.109484784
2020-02-25T14:40:00	0.3776	6.077		1.034997992	1.461103910	0.034572656	0.356679722	0.109932154
2020-02-25T14:45:00	0.3792	6.075		1.039803450	1.470045818	0.034891825	0.359972523	0.110947028
2020-02-25T14:50:00	0.3746	6.075		1.025827820	1.444102288	0.033968230	0.350443963	0.108010233
2020-02-25T14:55:00	0.3776	6.070		1.034818536	1.460770415	0.034560770	0.356557089	0.109894358
2020-02-25T15:00:00	0.3782	6.069		1.036645995	1.464167961	0.034681925	0.357807023	0.110279600
2020-02-25T15:05:00	0.3797	6.068		1.041151986	1.472559174	0.034981693	0.360899673	0.111232784
2020-02-25T15:10:00	0.3891	6.053		1.069074827	1.524998564	0.036872293	0.380404649	0.117244407
2020-02-25T15:15:00	0.3855	6.048		1.058456919	1.504968447	0.036146659	0.372918416	0.114937078
2020-02-25T15:20:00	0.3849	6.047		1.056717476	1.501697574	0.036028572	0.371700134	0.114561591
2020-02-25T15:25:00	0.3832	6.043		1.051416132	1.491747049	0.035670039	0.368001219	0.113421550
2020-02-25T15:30:00	0.3830	6.024		1.050861693	1.490707958	0.035632661	0.367615592	0.113302696
2020-02-25T15:35:00	0.3812	6.006		1.045553048	1.480774012	0.035275903	0.363934989	0.112168298
2020-02-25T15:40:00	0.3801	5.992		1.042320954	1.474739285	0.035059701	0.361704468	0.111480830
2020-02-25T15:45:00	0.3837	5.976		1.053057773	1.494825452	0.035780845	0.369144380	0.113773883
2020-02-25T15:50:00	0.3875	5.959		1.064359629	1.516089996	0.036549033	0.377069632	0.116216522
2020-02-25T15:55:00	0.3850	5.948		1.056992762	1.502215030	0.036047246	0.371892789	0.114620969
2020-02-25T16:00:00	0.3851	5.936		1.057328576	1.502846359	0.036070033	0.372127880	0.114693427
2020-02-25T16:05:00	0.3862	5.928		1.060577992	1.508960936	0.036290954	0.374407077	0.115395897
2020-02-25T16:10:00	0.3857	5.916		1.059085863	1.506151848	0.036189411	0.373359482	0.115073018
2020-02-25T16:15:00	0.3834	5.902		1.052253590	1.493317121	0.035726540	0.368584131	0.113601209
2020-02-25T16:20:00	0.3843	5.889		1.054913620	1.498308695	0.035906346	0.370439149	0.114172943
2020-02-25T16:25:00	0.3855	5.878		1.058461284	1.504976657	0.036146955	0.372921476	0.114938021
2020-02-25T16:30:00	0.3871	5.867		1.063190456	1.513884405	0.036469130	0.376245291	0.115962453
2020-02-25T16:35:00	0.3870	5.855		1.062883776	1.513306088	0.036448188	0.376029234	0.115895862
2020-02-25T16:40:00	0.3862	5.846		1.060503769	1.508821152	0.036285899	0.374354927	0.115379824
2020-02-25T16:45:00	0.3873	5.838		1.063750774	1.514941251	0.036507410	0.376640221	0.116084174
2020-02-25T16:50:00	0.3873	5.829		1.063740178	1.514921264	0.036506686	0.376632751	0.116081872
2020-02-25T16:55:00	0.3878	5.821		1.065209502	1.517694081	0.036607177	0.377669494	0.116401406
2020-02-25T17:00:00	0.3887	5.812		1.067861483	1.522704079	0.036788954	0.379544852	0.116979409
2020-02-25T17:05:00	0.3905	5.801		1.073171107	1.532755453	0.037154449	0.383315602	0.118141591
2020-02-25T17:10:00	0.3898	5.786		1.071092343	1.528816964	0.037011107	0.381836770	0.117685801
2020-02-25T17:15:00	0.3920	5.769		1.077578467	1.541119777	0.037459413	0.386461862	0.119111299
2020-02-25T17:20:00	0.3950	5.750		1.086411313	1.557940209	0.038074915	0.392811884	0.121068437
2020-02-25T17:25:00	0.3916	5.734		1.076376850	1.538837449	0.037376126	0.385602604	0.118846467
2020-02-25T17:30:00	0.3916	5.714		1.076366285	1.538817389	0.037375394	0.385595054	0.118844141
2020-02-25T17:35:00	0.3919	5.694		1.077241127	1.540478896	0.037436021	0.386220524	0.119036916
2020-02-25T17:40:00	0.3911	5.674		1.074869072	1.535975609	0.037271769	0.384525969	0.118514638
2020-02-25T17:45:00	0.3915	5.654		1.076039415	1.538196787	0.037352757	0.385361507	0.118772159
2020-02-25T17:50:00	0.3905	5.631		1.073075956	1.532575085	0.037147881	0.383247840	0.118120706
2020-02-25T17:55:00	0.3916	5.608		1.076313463	1.538717094	0.037371736	0.385557308	0.118832507
2020-02-25T18:00:00	0.3908	5.585		1.073940897	1.534214994	0.037207611	0.383864063	0.118310632
2020-02-25T18:05:00	0.3901	5.564		1.071862505	1.530275643	0.037064177	0.382384281	0.117854549
2020-02-25T18:10:00	0.3911	5.543		1.074805663	1.535855306	0.037267384	0.384480731	0.118500695
2020-02-25T18:15:00	0.3904	5.522		1.072727690	1.531914986	0.037123846	0.382999880	0.118044283
2020-02-25T18:20:00	0.3932	5.498		1.081275648	1.548151013	0.037716343	0.389112559	0.119928270
2020-02-25T18:25:00	0.3927	5.475		1.079790696	1.545325343	0.037613027	0.388046669	0.119599752
2020-02-25T18:30:00	0.3914	5.450		1.075944328	1.538016273	0.037346173	0.385293583	0.118751224
2020-02-25T18:35:00	0.3937	5.425		1.082717895	1.550897493	0.037816844	0.390149405	0.120247836
2020-02-25T18:40:00	0.3935	5.401		1.082117844	1.549754563	0.037775011	0.389717829	0.120114820
2020-02-25T18:45:00	0.3972	5.373		1.093000130	1.570537284	0.038537810	0.397587485	0.122540324
2020-02-25T18:50:00	0.3957	5.345		1.088576885	1.562075824	0.038226701	0.394377832	0.121551078
2020-02-25T18:55:00	0.3951	5.320		1.086799998	1.558682145	0.038102133	0.393092682	0.121154982
2020-02-25T19:00:00	0.3961	5.292		1.089732987	1.564285533	0.038307876	0.395215291	0.121809191
2020-02-25T19:05:00	0.3971	5.262		1.092663991	1.569893590	0.038514117	0.397343045	0.122464985
2020-02-25T19:10:00	0.3957	5.234		1.088534747	1.561995309	0.038223745	0.394347327	0.121541676
2020-02-25T19:15:00	0.3958	5.206		1.088818537	1.562537596	0.038243661	0.394552796	0.121605004
2020-02-25T19:20:00	0.3956	5.177		1.088219332	1.561392684	0.038201616	0.394119034	0.121471314
2020-02-25T19:25:00	0.3977	5.148		1.094385875	1.573192112	0.038635576	0.398596112	0.122851193
2020-02-25T19:30:00	0.4005	5.120		1.102597833	1.588963564	0.039217870	0.404603536	0.124702739
2020-02-25T19:35:00	0.3971	5.092		1.092600844	1.569772677	0.038509667	0.397297134	0.122450835
2020-02-25T19:40:00	0.4000	5.065		1.101109665	1.586100528	0.039111974	0.403511024	0.124366017
2020-02-25T19:45:00	0.3970	5.038		1.092285725	1.569169356	0.038487464	0.397068074	0.122380237
2020-02-25T19:50:00	0.4009	5.009		1.103729215	1.591141654	0.039298488	0.405435260	0.124959085
2020-02-25T19:55:00	0.3987	4.980		1.097261173	1.578706686	0.038838886	0.400693627	0.123497667
2020-02-25T20:00:00	0.4015	4.952		1.105467712	1.594491004	0.039422554	0.406715222	0.125353581
2020-02-25T20:05:00	0.3989	4.926		1.097827594	1.579793996	0.038879010	0.401107577	0.123625251
2020-02-25T20:10:00	0.3998	4.901		1.100459626	1.584850627	0.039065770	0.403034345	0.124219099
2020-02-25T20:15:00	0.3986	4.873		1.096925364	1.578062213	0.038815109	0.400448328	0.123422064
2020-02-25T20:20:00	0.4002	4.848		1.101612569	1.587067803	0.039147741	0.403880031	0.124479748
2020-02-25T20:25:00	0.3979	4.822		1.094847481	1.574076883	0.038668174	0.398932423	0.122954847
2020-02-25T20:30:00	0.3982	4.797		1.095718592	1.575747135	0.038729735	0.399567533	0.123150594
2020-02-25T20:35:00	0.3972	4.773		1.092768603	1.570093905	0.038521490	0.397419109	0.122488429
2020-02-25T20:40:00	0.3994	4.751		1.099515909	1.583036782	0.038998747	0.402342889	0.124005986
2020-02-25T20:45:00	0.4000	4.727		1.101266592	1.586402331	0.039123133	0.403626149	0.124401499
2020-02-25T20:50:00	0.3956	4.703		1.088324050	1.561592746	0.038208962	0.394194820	0.121494672
2020-02-25T20:55:00	0.3874	4.679		1.064109090	1.515617254	0.036531902	0.376892899	0.116162052
2020-02-25T21:00:00	0.3939	4.653		1.083296134	1.551999211	0.037857181	0.390565553	0.120376097
2020-02-25T21:05:00	0.3957	4.627		1.088586786	1.562094743	0.038227396	0.394385000	0.121553287
2020-02-25T21:10:00	0.3956	4.603		1.088281910	1.561512237	0.038206006	0.394164321	0.121485272
2020-02-25T21:15:00	0.3972	4.580		1.092978450	1.570495764	0.038536282	0.397571717	0.122535464
2020-02-25T21:20:00	0.3967	4.556		1.091497511	1.567660683	0.038431961	0.396495453	0.122203749
2020-02-25T21:25:00	0.3960	4.531		1.089427558	1.563701627	0.038286421	0.394993945	0.121740970
2020-02-25T21:30:00	0.3986	4.506		1.097061414	1.578323302	0.038824741	0.400547699	0.123452691
2020-02-25T21:35:00	0.3983	4.482		1.096169540	1.576612068	0.038761625	0.399896539	0.123251997
2020-02-25T21:40:00	0.3963	4.461		1.090278698	1.565329033	0.038346227	0.395610950	0.121931137
2020-02-25T21:45:00	0.3958	4.440		1.088796836	1.562496125	0.038242137	0.394537082	0.121600160
2020-02-25T21:50:00	0.3970	4.420		1.092316668	1.569228595	0.038489644	0.397090563	0.122387168
2020-02-25T21:55:00	0.3959	4.397		1.089070076	1.563018321	0.038261318	0.394734965	0.121661150
2020-02-25T22:00:00	0.3971	4.376		1.092589686	1.569751313	0.038508881	0.397289022	0.122448335
2020-02-25T22:05:00	0.3954	4.355		1.087749251	1.560494739	0.038168651	0.393778937	0.121366493
2020-02-25T22:10:00	0.3963	4.333		1.090265069	1.565302967	0.038345268	0.395601065	0.121928090
2020-02-25T22:15:00	0.3976	4.310		1.093955451	1.572367299	0.038605194	0.398282667	0.122754586
2020-02-25T22:20:00	0.3974	4.287		1.093528715	1.571549730	0.038575086	0.397972046	0.122658850
2020-02-25T22:25:00	0.3979	4.266		1.094865723	1.574111853	0.038669463	0.398945717	0.122958945
2020-02-25T22:30:00	0.3979	4.246		1.095026903	1.574420843	0.038680849	0.399063189	0.122995150
2020-02-25T22:35:00	0.3927	4.227		1.079584216	1.544932611	0.037598674	0.387898592	0.119554113
2020-02-25T22:40:00	0.3938	4.207		1.082989016	1.551414018	0.037835753	0.390344494	0.120307964
2020-02-25T22:45:00	0.3999	4.189		1.100796691	1.585498688	0.039089724	0.403281478	0.124295268
2020-02-25T22:50:00	0.3988	4.177		1.097728029	1.579602845	0.038871955	0.401034795	0.123602819
2020-02-25T22:55:00	0.3957	4.166		1.088480507	1.561891672	0.038219939	0.394308064	0.121529575
2020-02-25T23:00:00	0.3931	4.154		1.080982646	1.547593297	0.037695945	0.388902110	0.119863407
2020-02-25T23:05:00	0.3943	4.144		1.084386343	1.554077278	0.037933299	0.391350851	0.120618133
2020-02-25T23:10:00	0.3902	4.134		1.072156697	1.530832994	0.037084460	0.382593542	0.117919045
2020-02-25T23:15:00	0.3913	4.124		1.075567370	1.537300738	0.037320079	0.385024377	0.118668252
2020-02-25T23:20:00	0.3894	4.113		1.069821043	1.526410407	0.036923601	0.380933986	0.117407554
2020-02-25T23:25:00	0.3913	4.097		1.075595959	1.537355001	0.037322058	0.385044790	0.118674544
2020-02-25T23:30:00	0.3936	4.082		1.082247516	1.550001522	0.037784049	0.389811070	0.120143558
2020-02-25T23:35:00	0.3887	4.071		1.067942078	1.522856442	0.036794486	0.379601928	0.116997001
2020-02-25T23:40:00	0.3896	4.064		1.070469478	1.527637690	0.036968219	0.381394304	0.117549429
2020-02-25T23:45:00	0.3927	4.057		1.079784148	1.545312889	0.037612572	0.388041973	0.119598305
2020-02-25T23:50:00	0.3898	4.047		1.071089196	1.528811006	0.037010890	0.381834535	0.117685112
2020-02-25T23:55:00	0.3905	4.033		1.073023998	1.532476596	0.037144295	0.383210840	0.118109303
2020-02-26T00:00:00	0.3906	4.017		1.073481368	1.533343645	0.037175870	0.383536603	0.118209706
2020-02-26T00:05:00	0.3893	4.002		1.069506432	1.525815097	0.036901964	0.380710762	0.117338754
2020-02-26T00:10:00	0.3896	3.988		1.070555346	1.527800242	0.036974130	0.381455285	0.117568223
2020-02-26T00:15:00	0.3862	3.979		1.060360587	1.508551512	0.036276148	0.374254337	0.115348821
2020-02-26T00:20:00	0.3894	3.971		1.069992803	1.526735455	0.036935417	0.381055886	0.117445125
2020-02-26T00:25:00	0.3867	3.959		1.061870352	1.511395693	0.036379033	0.375315778	0.115675968
2020-02-26T00:30:00	0.3859	3.942		1.059662895	1.507237914	0.036228660	0.373764406	0.115197820
2020-02-26T00:35:00	0.3884	3.926		1.066930821	1.520945133	0.036725104	0.378886124	0.116776383
2020-02-26T00:40:00	0.3827	3.911		1.050198975	1.489466331	0.035588012	0.367154957	0.113160724
2020-02-26T00:45:00	0.3871	3.899		1.063112187	1.513736801	0.036463785	0.376190144	0.115945456
2020-02-26T00:50:00	0.3847	3.888		1.055866484	1.500098433	0.035970880	0.371104943	0.114378148
2020-02-26T00:55:00	0.3866	3.877		1.061660224	1.510999710	0.036364704	0.375167945	0.115630404
2020-02-26T01:00:00	0.3843	3.867		1.054708728	1.497923968	0.035892478	0.370296075	0.114128846
2020-02-26T01:05:00	0.3766	3.856		1.031967816	1.455476920	0.034372258	0.354612252	0.109294940
2020-02-26T01:10:00	0.3794	3.845		1.040176296	1.470740539	0.034916658	0.360228727	0.111025992
2020-02-26T01:15:00	0.3821	3.833		1.048368902	1.486039840	0.035464882	0.365884646	0.112769201
2020-02-26T01:20:00	0.3815	3.820		1.046451688	1.482453688	0.035336150	0.364556547	0.112359868
2020-02-26T01:25:00	0.3815	3.808		1.046614695	1.482758455	0.035347085	0.364669359	0.112394638
2020-02-26T01:30:00	0.3808	3.797		1.044399319	1.478618690	0.035198640	0.363137883	0.111922622
2020-02-26T01:35:00	0.3824	3.787		1.049317647	1.487815792	0.035528684	0.366542885	0.112972077
2020-02-26T01:40:00	0.3819	3.780		1.047698021	1.484784549	0.035419805	0.365419597	0.112625869
2020-02-26T01:45:00	0.3776	3.777		1.034766716	1.460674121	0.034557338	0.356521683	0.109883445
2020-02-26T01:50:00	0.3801	3.770		1.042374770	1.474839685	0.035063294	0.361741544	0.111492257
2020-02-26T01:55:00	0.3804	3.762		1.043132914	1.476254363	0.035113943	0.362264079	0.111653307
2020-02-26T02:00:00	0.3832	3.755		1.051616711	1.492123033	0.035683567	0.368140783	0.113464565
2020-02-26T02:05:00	0.3842	3.754		1.054450465	1.497439084	0.035875001	0.370115777	0.114073277
2020-02-26T02:10:00	0.3924	3.752		1.078870999	1.543576366	0.037549121	0.387387359	0.119396546
2020-02-26T02:15:00	0.3927	3.749		1.079622700	1.545005806	0.037601349	0.387926189	0.119562619
2020-02-26T02:20:00	0.3924	3.749		1.078899566	1.543630679	0.037551105	0.387407828	0.119402855
2020-02-26T02:25:00	0.3894	3.744		1.069907225	1.526573499	0.036929529	0.380995148	0.117426405
2020-02-26T02:30:00	0.3901	3.739		1.071842559	1.530237858	0.037062802	0.382370095	0.117850177
2020-02-26T02:35:00	0.3914	3.733		1.075843923	1.537825672	0.037339222	0.385221868	0.118729121
2020-02-26T02:40:00	0.3904	3.724		1.072757502	1.531971488	0.037125903	0.383021102	0.118050823
2020-02-26T02:45:00	0.3887	3.724		1.067894746	1.522766962	0.036791237	0.379568408	0.116986670
2020-02-26T02:50:00	0.3892	3.725		1.069239719	1.525310493	0.036883627	0.380521581	0.117280447
2020-02-26T02:55:00	0.3865	3.720		1.061412043	1.510532071	0.036347784	0.374993382	0.115576602
2020-02-26T03:00:00	0.3912	3.715		1.075177338	1.536560532	0.037293091	0.384745947	0.118582438
2020-02-26T03:05:00	0.3882	3.706		1.066473054	1.520080267	0.036693721	0.378562355	0.116676594
2020-02-26T03:10:00	0.3879	3.700		1.065451798	1.518151531	0.036623763	0.377840614	0.116454147
2020-02-26T03:15:00	0.3873	3.695		1.063838285	1.515106340	0.036513391	0.376701924	0.116103191
2020-02-26T03:20:00	0.3909	3.692		1.074348702	1.534988438	0.037235792	0.384154799	0.118400240
2020-02-26T03:25:00	0.3881	3.687		1.065938629	1.519070829	0.036657102	0.378184568	0.116560157
2020-02-26T03:30:00	0.3850	3.681		1.056919048	1.502076461	0.036042245	0.371841195	0.114605068
2020-02-26T03:35:00	0.3917	3.678		1.076605780	1.539272166	0.037391986	0.385766224	0.118896897
2020-02-26T03:40:00	0.3894	3.680		1.069974121	1.526700098	0.036934131	0.381042626	0.117441038
2020-02-26T03:45:00	0.3901	3.684		1.071909425	1.530364527	0.037067411	0.382417650	0.117864834
2020-02-26T03:50:00	0.3905	3.685		1.073253140	1.532910963	0.037160112	0.383374028	0.118159599
2020-02-26T03:55:00	0.3890	3.684		1.068686649	1.524264347	0.036845619	0.380129458	0.117159591
2020-02-26T04:00:00	0.3935	3.686		1.082133936	1.549785210	0.037776133	0.389729400	0.120118386
2020-02-26T04:05:00	0.3916	3.689		1.076534943	1.539137647	0.037387078	0.385715591	0.118881291
2020-02-26T04:10:00	0.3910	3.690		1.074768942	1.535785638	0.037264845	0.384454533	0.118492621
2020-02-26T04:15:00	0.3890	3.689		1.068864684	1.524601072	0.036857851	0.380255658	0.117198487
2020-02-26T04:20:00	0.3897	3.691		1.070939237	1.528527054	0.037000562	0.381727981	0.117652271
2020-02-26T04:25:00	0.3885	3.691		1.067396613	1.521825371	0.036757052	0.379215732	0.116877971
2020-02-26T04:30:00	0.3852	3.693		1.057629980	1.503413092	0.036090492	0.372338955	0.114758482
2020-02-26T04:35:00	0.3872	3.695		1.063264264	1.514023600	0.036474171	0.376297300	0.115978482
2020-02-26T04:40:00	0.3879	3.696		1.065341528	1.517943336	0.036616214	0.377762731	0.116430143
2020-02-26T04:45:00	0.3857	3.697		1.058831558	1.505673308	0.036172121	0.373181106	0.115018041
2020-02-26T04:50:00	0.3844	3.697		1.054982262	1.498437595	0.035910992	0.370487089	0.114187719
2020-02-26T04:55:00	0.3851	3.699		1.057063554	1.502348109	0.036052049	0.371942341	0.114636242
2020-02-26T05:00:00	0.3843	3.701		1.054696228	1.497900499	0.035891632	0.370287347	0.114126157
2020-02-26T05:05:00	0.3829	3.699		1.050546256	1.490116921	0.035611405	0.367396300	0.113235108
2020-02-26T05:10:00	0.3826	3.696		1.049660626	1.488458029	0.035551765	0.366781011	0.113045470
2020-02-26T05:15:00	0.3830	3.693		1.050853824	1.490693212	0.035632130	0.367610120	0.113301009
2020-02-26T05:20:00	0.3845	3.690		1.055310742	1.499054492	0.035933234	0.370716547	0.114258440
2020-02-26T05:25:00	0.3820	3.686		1.047894130	1.485151446	0.035432978	0.365555503	0.112667756
2020-02-26T05:30:00	0.3816	3.683		1.046710739	1.482938036	0.035353529	0.364735837	0.112415127
2020-02-26T05:35:00	0.3811	3.676		1.045229707	1.480169837	0.035254240	0.363711493	0.112099415
2020-02-26T05:40:00	0.3793	3.670		1.039879856	1.470188174	0.034896913	0.360025018	0.110963207
2020-02-26T05:45:00	0.3813	3.664		1.045834950	1.481300839	0.035294796	0.364129906	0.112228373
2020-02-26T05:50:00	0.3818	3.659		1.047326408	1.484089410	0.035394850	0.365162143	0.112546519
2020-02-26T05:55:00	0.3821	3.653		1.048223158	1.485767100	0.035455086	0.365783589	0.112738054
2020-02-26T06:00:00	0.3840	3.645		1.053869871	1.496349267	0.035835732	0.369710637	0.113948409
2020-02-26T06:05:00	0.3827	3.637		1.050016091	1.489123766	0.035575696	0.367027898	0.113121563
2020-02-26T06:10:00	0.3834	3.634		1.052099809	1.493028760	0.035716161	0.368477053	0.113568206
2020-02-26T06:15:00	0.3830	3.630		1.050917588	1.490812698	0.035636428	0.367654457	0.113314674
2020-02-26T06:20:00	0.3765	3.625		1.031578806	1.454755179	0.034346580	0.354347330	0.109213288
2020-02-26T06:25:00	0.3807	3.620		1.044093474	1.478047546	0.035178175	0.362926743	0.111857547
2020-02-26T06:30:00	0.3796	3.612		1.040826118	1.471951670	0.034959964	0.360675507	0.111163694
2020-02-26T06:35:00	0.3812	3.605		1.045590863	1.480844677	0.035278437	0.363961132	0.112176356
2020-02-26T06:40:00	0.3793	3.598		1.039943785	1.470307288	0.034901171	0.360068944	0.110976745
2020-02-26T06:45:00	0.3802	3.599		1.042627500	1.475311210	0.035080174	0.361915685	0.111545929
2020-02-26T06:50:00	0.3836	3.606		1.052735943	1.494221750	0.035759107	0.368920113	0.113704762
2020-02-26T06:55:00	0.3805	3.613		1.043530566	1.476996595	0.035140526	0.362538324	0.111737832
2020-02-26T07:00:00	0.3753	3.614		1.028040635	1.448197431	0.034113525	0.351942952	0.108472236
2020-02-26T07:05:00	0.3788	3.613		1.038481705	1.467584106	0.034803870	0.359065114	0.110667355
2020-02-26T07:10:00	0.3791	3.614		1.039380326	1.469257577	0.034863654	0.359681896	0.110857454
2020-02-26T07:15:00	0.3791	3.617		1.039385654	1.469267502	0.034864009	0.359685555	0.110858581
2020-02-26T07:20:00	0.3803	3.622		1.042962260	1.475935877	0.035102539	0.362146421	0.111617044
2020-02-26T07:25:00	0.3802	3.625		1.042670092	1.475390681	0.035083019	0.361945037	0.111554976
2020-02-26T07:30:00	0.3804	3.629		1.043270377	1.476510925	0.035123131	0.362358868	0.111682522
2020-02-26T07:35:00	0.3792	3.632		1.039704687	1.469861816	0.034885248	0.359904675	0.110926116
2020-02-26T07:40:00	0.3816	3.633		1.046849029	1.483196621	0.035362808	0.364831567	0.112444632
2020-02-26T07:45:00	0.3804	3.637		1.043286346	1.476540732	0.035124198	0.362369881	0.111685917
2020-02-26T07:50:00	0.3778	3.640		1.035550694	1.462131229	0.034609280	0.357057567	0.110048610
2020-02-26T07:55:00	0.3802	3.644		1.042702036	1.475450285	0.035085153	0.361967052	0.111561761
2020-02-26T08:00:00	0.3862	3.643		1.060519943	1.508851611	0.036287000	0.374366290	0.115383326
2020-02-26T08:05:00	0.3869	3.629		1.062598539	1.512768289	0.036428716	0.375828347	0.115833947
2020-02-26T08:10:00	0.3883	3.631		1.066747412	1.520598590	0.036712528	0.378756383	0.116736396
2020-02-26T08:15:00	0.3903	3.628		1.072665153	1.531796468	0.037119532	0.382955364	0.118030563
2020-02-26T08:20:00	0.3893	3.627		1.069715238	1.526210190	0.036916324	0.380858906	0.117384414
2020-02-26T08:25:00	0.3862	3.620		1.060546451	1.508901534	0.036288805	0.374384915	0.115389067
2020-02-26T08:30:00	0.3853	3.628		1.057884626	1.503891974	0.036107783	0.372517338	0.114813461
2020-02-26T08:35:00	0.3857	3.629		1.059075525	1.506132393	0.036188708	0.373352229	0.115070783
2020-02-26T08:40:00	0.3874	3.642		1.064115930	1.515630158	0.036532370	0.376897723	0.116163539
2020-02-26T08:45:00	0.3853	3.651		1.057900541	1.503921905	0.036108863	0.372528488	0.114816898
2020-02-26T08:50:00	0.3866	3.652		1.061757809	1.511183602	0.036371358	0.375236595	0.115651563
2020-02-26T08:55:00	0.3879	3.660		1.065611601	1.518453266	0.036634705	0.377953498	0.116488939
2020-02-26T09:00:00	0.3869	3.664		1.062656829	1.512878185	0.036432695	0.375869394	0.115846598
2020-02-26T09:05:00	0.3865	3.664		1.061477529	1.510655457	0.036352248	0.375039438	0.115590797
2020-02-26T09:10:00	0.3894	3.665		1.070063749	1.526869724	0.036940298	0.381106243	0.117460645
2020-02-26T09:15:00	0.3915	3.660		1.075976927	1.538078158	0.037348430	0.385316869	0.118758401
2020-02-26T09:20:00	0.3899	3.657		1.071256555	1.529127931	0.037022419	0.381953471	0.117721769
2020-02-26T09:25:00	0.3888	3.651		1.068009942	1.522984743	0.036799145	0.379649992	0.117011815
2020-02-26T09:30:00	0.3863	3.649		1.060615372	1.509031335	0.036293499	0.374433343	0.115403993
2020-02-26T09:35:00	0.3872	3.658		1.063286094	1.514064771	0.036475662	0.376312683	0.115983224
2020-02-26T09:40:00	0.3909	3.665		1.074231836	1.534766774	0.037227715	0.384071469	0.118374557
2020-02-26T09:45:00	0.3906	3.673		1.073351097	1.533096667	0.037166875	0.383443801	0.118181103
2020-02-26T09:50:00	0.3891	3.683		1.068923525	1.524712367	0.036861895	0.380297373	0.117211344
2020-02-26T09:55:00	0.3884	3.698		1.066858584	1.520808641	0.036720150	0.378835022	0.116760633
2020-02-26T10:00:00	0.3894	3.723		1.069821043	1.526410407	0.036923601	0.380933986	0.117407554
2020-02-26T10:05:00	0.3878	3.743		1.065107136	1.517500834	0.036600171	0.377597213	0.116379128
2020-02-26T10:10:00	0.3851	3.760		1.057127863	1.502469006	0.036056412	0.371987358	0.114650116
2020-02-26T10:15:00	0.3862	3.782		1.060406592	1.508638147	0.036279281	0.374286655	0.115358782
2020-02-26T10:20:00	0.3862	3.811		1.060425149	1.508673092	0.036280545	0.374299691	0.115362800
2020-02-26T10:25:00	0.3857	3.841		1.058962136	1.505919017	0.036180998	0.373272691	0.115046269
2020-02-26T10:30:00	0.3822	3.873		1.048595332	1.486463614	0.035480103	0.366041681	0.112817601
2020-02-26T10:35:00	0.3821	3.882		1.048316844	1.485942418	0.035461383	0.365848547	0.112758075
2020-02-26T10:40:00	0.3814	3.894		1.046255209	1.482086376	0.035322973	0.364420598	0.112317967
2020-02-26T10:45:00	0.3817	3.920		1.047165481	1.483788422	0.035384047	0.365050685	0.112512167
2020-02-26T10:50:00	0.3795	3.956		1.040640975	1.471606561	0.034947623	0.360548181	0.111124451
2020-02-26T10:55:00	0.3819	3.988		1.047797036	1.484969790	0.035426456	0.365488212	0.112647016
2020-02-26T11:00:00	0.3792	4.018		1.039785242	1.470011895	0.034890612	0.359960014	0.110943172
2020-02-26T11:05:00	0.3799	4.061		1.041887296	1.473930364	0.035030750	0.361405790	0.111388775
2020-02-26T11:10:00	0.3770	4.083		1.032969853	1.457336703	0.034438454	0.355295178	0.109505424
2020-02-26T11:15:00	0.3791	4.116		1.039245739	1.469006891	0.034854697	0.359589482	0.110828971
2020-02-26T11:20:00	0.3794	4.157		1.040157516	1.470705543	0.034915407	0.360215820	0.111022014
2020-02-26T11:25:00	0.3762	4.201		1.030639765	1.453013553	0.034284638	0.353708291	0.109016331
2020-02-26T11:30:00	0.3745	4.246		1.025583489	1.443650407	0.033952208	0.350278674	0.107959289
2020-02-26T11:35:00	0.3770	4.266		1.033063235	1.457510070	0.034444626	0.355358859	0.109525052
2020-02-26T11:40:00	0.3755	4.271		1.028606894	1.449246136	0.034150763	0.352327128	0.108590643
2020-02-26T11:45:00	0.3749	4.290		1.026834260	1.445964267	0.034034270	0.351125286	0.108220223
2020-02-26T11:50:00	0.3760	4.330		1.030136472	1.452080453	0.034251466	0.353366060	0.108910851
2020-02-26T11:55:00	0.3732	4.365		1.021792134	1.436645838	0.033704151	0.347719517	0.107170532
2020-02-26T12:00:00	0.3738	4.399		1.023604329	1.439992156	0.033822589	0.348941412	0.107547132
2020-02-26T12:05:00	0.3708	4.434		1.014648073	1.423484795	0.033239547	0.342926280	0.105693210
2020-02-26T12:10:00	0.3731	4.441		1.021549329	1.436197726	0.033688301	0.347555988	0.107120131
2020-02-26T12:15:00	0.3733	4.458		1.022165999	1.437335940	0.033728566	0.347971400	0.107248165
2020-02-26T12:20:00	0.3713	4.483		1.016201490	1.426342369	0.033340260	0.343965311	0.106013450
2020-02-26T12:25:00	0.3670	4.499		1.003327324	1.402729939	0.032510811	0.335408042	0.103376016
2020-02-26T12:30:00	0.3696	4.518		1.010846819	1.416502034	0.032993831	0.340391270	0.104911895
2020-02-26T12:35:00	0.3719	4.523		1.017754332	1.429201208	0.033441108	0.345005745	0.106334121
2020-02-26T12:40:00	0.3685	4.518		1.007585757	1.410522665	0.032783858	0.338225017	0.104244235
2020-02-26T12:45:00	0.3675	4.542		1.004603559	1.405063560	0.032592506	0.336250876	0.103635786
2020-02-26T12:50:00	0.3676	4.565		1.004922557	1.405647098	0.032612944	0.336461731	0.103700773
2020-02-26T12:55:00	0.3645	4.584		0.995625294	1.388679796	0.032020249	0.330347007	0.101816156
2020-02-26T13:00:00	0.3651	4.591		0.997448868	1.392001244	0.032136015	0.331541346	0.102184263
2020-02-26T13:05:00	0.3653	4.610		0.998069103	1.393131664	0.032175444	0.331948122	0.102309635
2020-02-26T13:10:00	0.3661	4.642		1.000492655	1.397552283	0.032329772	0.333540298	0.102800359
2020-02-26T13:15:00	0.3684	4.670		1.007417290	1.410214048	0.032773031	0.338113322	0.104209809
2020-02-26T13:20:00	0.3656	4.680		0.999027525	1.394879178	0.032236425	0.332577251	0.102503539
2020-02-26T13:25:00	0.3606	4.676		0.983988701	1.367559889	0.031287083	0.322783065	0.099484875
2020-02-26T13:30:00	0.3664	4.689		1.001469337	1.399335368	0.032392084	0.334183160	0.102998495
2020-02-26T13:35:00	0.3645	4.703		0.995776042	1.388954248	0.032029810	0.330445646	0.101846557
2020-02-26T13:40:00	0.3662	4.712		1.000906069	1.398306923	0.032356139	0.333812325	0.102884201
2020-02-26T13:45:00	0.3654	4.713		0.998520419	1.393954450	0.032204151	0.332244292	0.102400917
2020-02-26T13:50:00	0.3640	4.724		0.994027139	1.385771543	0.031918988	0.329302311	0.101494170
2020-02-26T13:55:00	0.3645	4.729		0.995550565	1.388543753	0.032015510	0.330298116	0.101801087
2020-02-26T14:00:00	0.3672	4.725		1.003684680	1.403383215	0.032533674	0.335643922	0.103448716
2020-02-26T14:05:00	0.3640	4.724		0.994083693	1.385874414	0.031922568	0.329339247	0.101505555
2020-02-26T14:10:00	0.3629	4.726		0.990790603	1.379889322	0.031714472	0.327192358	0.100843863
2020-02-26T14:15:00	0.3653	4.732		0.998032084	1.393064185	0.032173090	0.331923836	0.102302150
2020-02-26T14:20:00	0.3634	4.721		0.992334076	1.382693247	0.031811911	0.328197617	0.101153693
2020-02-26T14:25:00	0.3614	4.701		0.986326711	1.371792885	0.031433619	0.324294852	0.099950823
2020-02-26T14:30:00	0.3667	4.658		1.002295929	1.400845156	0.032444874	0.334727779	0.103166352
2020-02-26T14:35:00	0.3692	4.574		1.009817281	1.414613205	0.032927459	0.339706523	0.104700849
2020-02-26T14:40:00	0.3650	4.535		0.997224128	1.391591733	0.032121735	0.331394023	0.102138856
2020-02-26T14:45:00	0.3671	4.527		1.003553673	1.403143708	0.032525292	0.335557437	0.103422061
2020-02-26T14:50:00	0.3676	4.533		1.005073615	1.405923460	0.032622625	0.336561606	0.103731556
2020-02-26T14:55:00	0.3671	4.513		1.003591288	1.403212475	0.032527698	0.335582268	0.103429714
2020-02-26T15:00:00	0.3682	4.509		1.006911850	1.409288287	0.032740561	0.337778334	0.104106563
2020-02-26T15:05:00	0.3652	4.517		0.997919732	1.392859392	0.032165946	0.331850133	0.102279434
2020-02-26T15:10:00	0.3672	4.522		1.003647712	1.403315627	0.032531309	0.335619515	0.103441194
2020-02-26T15:15:00	0.3636	4.520		0.992842586	1.383617522	0.031844050	0.328529190	0.101255887
2020-02-26T15:20:00	0.3657	4.519		0.999178798	1.395155076	0.032246056	0.332676611	0.102534162
2020-02-26T15:25:00	0.3634	4.520		0.992278147	1.382591605	0.031808377	0.328161161	0.101142457
2020-02-26T15:30:00	0.3632	4.513		0.991694770	1.381531585	0.031771531	0.327781028	0.101025296
2020-02-26T15:35:00	0.3633	4.506		0.992014759	1.382112978	0.031791738	0.327989504	0.101089551
2020-02-26T15:40:00	0.3644	4.501		0.995344568	1.388168766	0.032002449	0.330163364	0.101759555
2020-02-26T15:45:00	0.3656	4.471		0.998972333	1.394778521	0.032232911	0.332541004	0.102492367
2020-02-26T15:50:00	0.3661	4.441		1.000493948	1.397554644	0.032329854	0.333541149	0.102800621
2020-02-26T15:55:00	0.3684	4.436		1.007418582	1.410216414	0.032773114	0.338114178	0.104210073
2020-02-26T16:00:00	0.3663	4.432		1.001132549	1.398720406	0.032370589	0.333961403	0.102930148
2020-02-26T16:05:00	0.3649	4.420		0.996807044	1.390831867	0.032095243	0.331120709	0.102054618
2020-02-26T16:10:00	0.3629	4.413		0.990971343	1.380217543	0.031725873	0.327309984	0.100880116
2020-02-26T16:15:00	0.3671	4.409		1.003485412	1.403018921	0.032520924	0.335512379	0.103408174
2020-02-26T16:20:00	0.3680	4.403		1.006070400	1.407747640	0.032686546	0.337221069	0.103934809
2020-02-26T16:25:00	0.3679	4.389		1.005953676	1.407533977	0.032679057	0.337143808	0.103910996
2020-02-26T16:30:00	0.3657	4.378		0.999229118	1.395246858	0.032249260	0.332709667	0.102544351
2020-02-26T16:35:00	0.3704	4.367		1.013516223	1.421404174	0.033166275	0.342170345	0.105460224
2020-02-26T16:40:00	0.3717	4.321		1.017292377	1.428350489	0.033411088	0.344696039	0.106238667
2020-02-26T16:45:00	0.3688	4.238		1.008487097	1.412174309	0.032841817	0.338822973	0.104428531
2020-02-26T16:50:00	0.3751	4.224		1.027522490	1.447238102	0.034079472	0.351591627	0.108363954
2020-02-26T16:55:00	0.3726	4.227		1.019935286	1.433220351	0.033583041	0.346470043	0.106785432
2020-02-26T17:00:00	0.3732	4.218		1.021613266	1.436315719	0.033692474	0.347599045	0.107133402
2020-02-26T17:05:00	0.3735	4.191		1.022692794	1.438308560	0.033762985	0.348326493	0.107357608
2020-02-26T17:10:00	0.3740	4.172		1.024070870	1.440854163	0.033853118	0.349256378	0.107644208
2020-02-26T17:15:00	0.3803	4.147		1.043036082	1.476073645	0.035107472	0.362197315	0.111632730
2020-02-26T17:20:00	0.3763	4.129		1.031004263	1.453689480	0.034308674	0.353956262	0.109092758
2020-02-26T17:25:00	0.3805	4.106		1.043399614	1.476752152	0.035131770	0.362447998	0.111709993
2020-02-26T17:30:00	0.3816	4.081		1.046851924	1.483202035	0.035363002	0.364833572	0.112445250
2020-02-26T17:35:00	0.3800	4.055		1.041978190	1.474099898	0.035036817	0.361468381	0.111408066
2020-02-26T17:40:00	0.3791	4.018		1.039481323	1.469445709	0.034870377	0.359751255	0.110878831
2020-02-26T17:45:00	0.3805	3.976		1.043531745	1.476998796	0.035140604	0.362539137	0.111738083
2020-02-26T17:50:00	0.3853	3.967		1.057669703	1.503487789	0.036093189	0.372366778	0.114767057
2020-02-26T17:55:00	0.3822	3.953		1.048651222	1.486568223	0.035483861	0.366080449	0.112829550
2020-02-26T18:00:00	0.3831	3.937		1.051208651	1.491358167	0.035656049	0.367856883	0.113377064
2020-02-26T18:05:00	0.3817	3.924		1.047231555	1.483912001	0.035388482	0.365096446	0.112526271
2020-02-26T18:10:00	0.3826	3.914		1.049789837	1.488700010	0.035560463	0.366870743	0.113073126
2020-02-26T18:15:00	0.3818	3.897		1.047297562	1.484035456	0.035392913	0.365142163	0.112540361
2020-02-26T18:20:00	0.3804	3.871		1.043316803	1.476597579	0.035126234	0.362390885	0.111692390
2020-02-26T18:25:00	0.3838	3.855		1.053302877	1.495285297	0.035797406	0.369315234	0.113826542
2020-02-26T18:30:00	0.3842	3.839		1.054374354	1.497296200	0.035869852	0.370062652	0.114056903
2020-02-26T18:35:00	0.3828	3.815		1.050400217	1.489843319	0.035601567	0.367294799	0.113203824
2020-02-26T18:40:00	0.3818	3.807		1.047313987	1.484066179	0.035394016	0.365153540	0.112543867
2020-02-26T18:45:00	0.3798	3.794		1.041548138	1.473297844	0.035008118	0.361172296	0.111316809
2020-02-26T18:50:00	0.3837	3.780		1.053022512	1.494759303	0.035778463	0.369119805	0.113766309
2020-02-26T18:55:00	0.3814	3.767		1.046075521	1.481750488	0.035310924	0.364296292	0.112279655
2020-02-26T19:00:00	0.3785	3.750		1.037628133	1.465995254	0.034747137	0.358479811	0.110486959
2020-02-26T19:05:00	0.3799	3.728		1.041680326	1.473544358	0.035016938	0.361263291	0.111344855
2020-02-26T19:10:00	0.3816	3.712		1.046917633	1.483324910	0.035367411	0.364879064	0.112459271
2020-02-26T19:15:00	0.3812	3.699		1.045613020	1.480886082	0.035279922	0.363976450	0.112181077
2020-02-26T19:20:00	0.3833	3.685		1.051736179	1.492346995	0.035691626	0.368223925	0.113490190
2020-02-26T19:25:00	0.3814	3.674		1.046273591	1.482120740	0.035324205	0.364433316	0.112321887
2020-02-26T19:30:00	0.3820	3.662		1.047941145	1.485239411	0.035436137	0.365588090	0.112677800
2020-02-26T19:35:00	0.3793	3.651		1.040092882	1.470585103	0.034911102	0.360171400	0.111008323
2020-02-26T19:40:00	0.3831	3.635		1.051274293	1.491481195	0.035660475	0.367902544	0.113391137
2020-02-26T19:45:00	0.3821	3.620		1.048188698	1.485702617	0.035452770	0.365759697	0.112730691
2020-02-26T19:50:00	0.3804	3.605		1.043316500	1.476597013	0.035126214	0.362390676	0.111692326
2020-02-26T19:55:00	0.3794	3.589		1.040225116	1.470831515	0.034919911	0.360262282	0.111036334
2020-02-26T20:00:00	0.3810	3.574		1.044869565	1.479497016	0.035230120	0.363462652	0.112022719
2020-02-26T20:05:00	0.3800	3.558		1.042076867	1.474283956	0.035043404	0.361536338	0.111429011
2020-02-26T20:10:00	0.3823	3.542		1.048799307	1.486845405	0.035493818	0.366183177	0.112861211
2020-02-26T20:15:00	0.3831	3.528		1.051356646	1.491635550	0.035666028	0.367959834	0.113408794
2020-02-26T20:20:00	0.3804	3.516		1.043217245	1.476411758	0.035119580	0.362322229	0.111671230
2020-02-26T20:25:00	0.3791	3.503		1.039232654	1.468982520	0.034853826	0.359580498	0.110826202
2020-02-26T20:30:00	0.3791	3.490		1.039414587	1.469321397	0.034865935	0.359705424	0.110864705
2020-02-26T20:35:00	0.3806	3.482		1.043762509	1.477429597	0.035156036	0.362698341	0.111787151
2020-02-26T20:40:00	0.3822	3.468		1.048700181	1.486659860	0.035487152	0.366114410	0.112840017
2020-02-26T20:45:00	0.3786	3.455		1.037875984	1.466456536	0.034763605	0.358649709	0.110539323
2020-02-26T20:50:00	0.3813	3.441		1.045794377	1.481225009	0.035292077	0.364101848	0.112219726
2020-02-26T20:55:00	0.3798	3.426		1.041514635	1.473235368	0.035005882	0.361149235	0.111309702
2020-02-26T21:00:00	0.3801	3.416		1.042291568	1.474684466	0.035057738	0.361684225	0.111474591
2020-02-26T21:05:00	0.3795	3.402		1.040687902	1.471694031	0.034950751	0.360580451	0.111134397
2020-02-26T21:10:00	0.3774	3.391		1.034316888	1.459838336	0.034527554	0.356214412	0.109788741
2020-02-26T21:15:00	0.3744	3.376		1.025248534	1.443031015	0.033930251	0.350052149	0.107889472
2020-02-26T21:20:00	0.3774	3.363		1.034383096	1.459961338	0.034531937	0.356259628	0.109802677
2020-02-26T21:25:00	0.3812	3.353		1.045579549	1.480823534	0.035277679	0.363953310	0.112173945
2020-02-26T21:30:00	0.3805	3.346		1.043382264	1.476719765	0.035130610	0.362436032	0.111706305
2020-02-26T21:35:00	0.3790	3.339		1.039100086	1.468735612	0.034845004	0.359489484	0.110798150
2020-02-26T21:40:00	0.3768	3.329		1.032428466	1.456331767	0.034402680	0.354926110	0.109391674
2020-02-26T21:45:00	0.3801	3.322		1.042440178	1.474961712	0.035067662	0.361786608	0.111506146
2020-02-26T21:50:00	0.3784	3.315		1.037263497	1.465316731	0.034722918	0.358229943	0.110409947
2020-02-26T21:55:00	0.3809	3.305		1.044588340	1.478971718	0.035211292	0.363268408	0.111962851
2020-02-26T22:00:00	0.3802	3.294		1.042688052	1.475424193	0.035084218	0.361957414	0.111558790
2020-02-26T22:05:00	0.3785	3.289		1.037719860	1.466165963	0.034753232	0.358542683	0.110506337
2020-02-26T22:10:00	0.3803	3.284		1.042872499	1.475768371	0.035096541	0.362084544	0.111597973
2020-02-26T22:15:00	0.3816	3.279		1.046830211	1.483161433	0.035361545	0.364818540	0.112440617
2020-02-26T22:20:00	0.3823	3.275		1.049002263	1.487225329	0.035507468	0.366323997	0.112904613
2020-02-26T22:25:00	0.3769	3.266		1.032724956	1.456882083	0.034422269	0.355128202	0.109453961
2020-02-26T22:30:00	0.3811	3.263		1.045323089	1.480344313	0.035260495	0.363776031	0.112119306
2020-02-26T22:35:00	0.3797	3.259		1.041250884	1.472743566	0.034988288	0.360967722	0.111253757
2020-02-26T22:40:00	0.3803	3.255		1.042830852	1.475690656	0.035093758	0.362055837	0.111589125
2020-02-26T22:45:00	0.3770	3.248		1.033094711	1.457568508	0.034446707	0.355380325	0.109531668
2020-02-26T22:50:00	0.3849	3.242		1.056677275	1.501622014	0.036025845	0.371672005	0.114552921
2020-02-26T22:55:00	0.3800	3.235		1.041917460	1.473986624	0.035032763	0.361426561	0.111395176
2020-02-26T23:00:00	0.3807	3.232		1.044092025	1.478044842	0.035178078	0.362925743	0.111857239
2020-02-26T23:05:00	0.3813	3.228		1.045968217	1.481549920	0.035303730	0.364222072	0.112256780
2020-02-26T23:10:00	0.3846	3.226		1.055562201	1.499526810	0.035950265	0.370892257	0.114312596
2020-02-26T23:15:00	0.3803	3.223		1.042881428	1.475785033	0.035097138	0.362090699	0.111599870
2020-02-26T23:20:00	0.3819	3.221		1.047730667	1.484845624	0.035421998	0.365442219	0.112632841
2020-02-26T23:25:00	0.3834	3.218		1.052277561	1.493362072	0.035728158	0.368600824	0.113606354
2020-02-26T23:30:00	0.3814	3.218		1.046131715	1.481855526	0.035314692	0.364335163	0.112291636
2020-02-26T23:35:00	0.3815	3.219		1.046521106	1.482583474	0.035340807	0.364604587	0.112374675
2020-02-26T23:40:00	0.3813	3.222		1.046018755	1.481644382	0.035307118	0.364257027	0.112267553
2020-02-26T23:45:00	0.3825	3.221		1.049379516	1.487931635	0.035532847	0.366585834	0.112985314
2020-02-26T23:50:00	0.3812	3.218		1.045608508	1.480877650	0.035279619	0.363973331	0.112180115
2020-02-26T23:55:00	0.3840	3.215		1.054016631	1.496624716	0.035845656	0.369813023	0.113979965
2020-02-27T00:00:00	0.3819	3.213		1.047576150	1.484556564	0.035411620	0.365335154	0.112599842
2020-02-27T00:05:00	0.3802	3.205		1.042613685	1.475285433	0.035079251	0.361906164	0.111542995
2020-02-27T00:10:00	0.3836	3.202		1.052808856	1.494358515	0.035764031	0.368970916	0.113720420
2020-02-27T00:15:00	0.3857	3.203		1.058832464	1.505675014	0.036172183	0.373181742	0.115018237
2020-02-27T00:20:00	0.3804	3.209		1.043187832	1.476356861	0.035117614	0.362301947	0.111664979
2020-02-27T00:25:00	0.3821	3.213		1.048333837	1.485974220	0.035462525	0.365860331	0.112761707
2020-02-27T00:30:00	0.3873	3.213		1.063847137	1.515123038	0.036513996	0.376708165	0.116105115
2020-02-27T00:35:00	0.3863	3.211		1.060681440	1.509155767	0.036297999	0.374479768	0.115418301
2020-02-27T00:40:00	0.3889	3.209		1.068468583	1.523851951	0.036830639	0.379974914	0.117111959
2020-02-27T00:45:00	0.3845	3.212		1.055529581	1.499465536	0.035948055	0.370869461	0.114305570
2020-02-27T00:50:00	0.3885	3.217		1.067173188	1.521403123	0.036741726	0.379057609	0.116829237
2020-02-27T00:55:00	0.3859	3.217		1.059567411	1.507058175	0.036222164	0.373697384	0.115177163
2020-02-27T01:00:00	0.3871	3.214		1.063213594	1.513928041	0.036470710	0.376261595	0.115967478
2020-02-27T01:05:00	0.3859	3.210		1.059454808	1.506846222	0.036214503	0.373618354	0.115152805
2020-02-27T01:10:00	0.3853	3.212		1.057768352	1.503673303	0.036099887	0.372435880	0.114788355
2020-02-27T01:15:00	0.3835	3.213		1.052520962	1.493818535	0.035744590	0.368770347	0.113658602
2020-02-27T01:20:00	0.3809	3.213		1.044591641	1.478977882	0.035211513	0.363270687	0.111963554
2020-02-27T01:25:00	0.3819	3.213		1.047656388	1.484706665	0.035417009	0.365390748	0.112616977
2020-02-27T01:30:00	0.3824	3.212		1.049233975	1.487659132	0.035523055	0.366484806	0.112954177
2020-02-27T01:35:00	0.3785	3.212		1.037427972	1.465622773	0.034733841	0.358342637	0.110444681
2020-02-27T01:40:00	0.3816	3.215		1.046744033	1.483000289	0.035355762	0.364758883	0.112422230
2020-02-27T01:45:00	0.3825	3.212		1.049510216	1.488176369	0.035541642	0.366676572	0.113013281
2020-02-27T01:50:00	0.3819	3.215		1.047819820	1.485012417	0.035427986	0.365504002	0.112651883
2020-02-27T01:55:00	0.3873	3.213		1.063631037	1.514715384	0.036499228	0.376555807	0.116058157
2020-02-27T02:00:00	0.3835	3.216		1.052458634	1.493701642	0.035740382	0.368726933	0.113645222
2020-02-27T02:05:00	0.3824	3.213		1.049284474	1.487753682	0.035526452	0.366519859	0.112964980
2020-02-27T02:10:00	0.3837	3.208		1.052939451	1.494603487	0.035772852	0.369061919	0.113748468
2020-02-27T02:15:00	0.3791	3.207		1.039357732	1.469215492	0.034862151	0.359666381	0.110852672
2020-02-27T02:20:00	0.3797	3.211		1.041236019	1.472715850	0.034987297	0.360957493	0.111250605
2020-02-27T02:25:00	0.3812	3.209		1.045492571	1.480661000	0.035271851	0.363893181	0.112155412
2020-02-27T02:30:00	0.3803	3.209		1.042908215	1.475835021	0.035098927	0.362109164	0.111605561
2020-02-27T02:35:00	0.3812	3.207		1.045676896	1.481005454	0.035284203	0.364020614	0.112194689
2020-02-27T02:40:00	0.3799	3.205		1.041605031	1.473403941	0.035011914	0.361211458	0.111328879
2020-02-27T02:45:00	0.3811	3.200		1.045266616	1.480238796	0.035256712	0.363737001	0.112107276
2020-02-27T02:50:00	0.3838	3.195		1.053378671	1.495427507	0.035802527	0.369368076	0.113842828
2020-02-27T02:55:00	0.3820	3.180		1.048125869	1.485585049	0.035448548	0.365716138	0.112717266
2020-02-27T03:00:00	0.3817	3.171		1.047029356	1.483533842	0.035374910	0.364956421	0.112483113
2020-02-27T03:05:00	0.3816	3.174		1.046824286	1.483150355	0.035361147	0.364814439	0.112439353
2020-02-27T03:10:00	0.3814	3.183		1.046321971	1.482211182	0.035327450	0.364466789	0.112332204
2020-02-27T03:15:00	0.3825	3.178		1.049385471	1.487942785	0.035533248	0.366589967	0.112986588
2020-02-27T03:20:00	0.3817	3.177		1.047100684	1.483667237	0.035379697	0.365005813	0.112498336
2020-02-27T03:25:00	0.3854	3.168		1.058174475	1.504437135	0.036127469	0.372720441	0.114876060
2020-02-27T03:30:00	0.3817	3.168		1.046987751	1.483456035	0.035372117	0.364927612	0.112474234
2020-02-27T03:35:00	0.3831	3.171		1.051238546	1.491414197	0.035658064	0.367877678	0.113383473
2020-02-27T03:40:00	0.3824	3.170		1.049251806	1.487692517	0.035524254	0.366497183	0.112957991
2020-02-27T03:45:00	0.3845	3.161		1.055280439	1.498997576	0.035931181	0.370695375	0.114251915
2020-02-27T03:50:00	0.3818	3.158		1.047356263	1.484145253	0.035396855	0.365182823	0.112552893
2020-02-27T03:55:00	0.3840	3.157		1.053981042	1.496557918	0.035843249	0.369788193	0.113972313
2020-02-27T04:00:00	0.3814	3.152		1.046351699	1.482266757	0.035329444	0.364487358	0.112338544
2020-02-27T04:05:00	0.3847	3.148		1.056057515	1.500457348	0.035983826	0.371238504	0.114419312
2020-02-27T04:10:00	0.3819	3.145		1.047653426	1.484701124	0.035416810	0.365388696	0.112616345
2020-02-27T04:15:00	0.3829	3.141		1.050531861	1.490089951	0.035610435	0.367386294	0.113232024
2020-02-27T04:20:00	0.3849	3.139		1.056671364	1.501610904	0.036025444	0.371667869	0.114551647
2020-02-27T04:25:00	0.3851	3.137		1.057172460	1.502552847	0.036059438	0.372018578	0.114659739
2020-02-27T04:30:00	0.3867	3.131		1.061821846	1.511304281	0.036375725	0.375281650	0.115665449
2020-02-27T04:35:00	0.3856	3.121		1.058767274	1.505552352	0.036167751	0.373136024	0.115004147
2020-02-27T04:40:00	0.3814	3.118		1.046209017	1.482000027	0.035319875	0.364388640	0.112308118
2020-02-27T04:45:00	0.3853	3.114		1.057694248	1.503533946	0.036094856	0.372383970	0.114772356
2020-02-27T04:50:00	0.3852	3.107		1.057602346	1.503361127	0.036088616	0.372319599	0.114752516
2020-02-27T04:55:00	0.3862	3.100		1.060474073	1.508765226	0.036283876	0.374334063	0.115373394
2020-02-27T05:00:00	0.3857	3.094		1.058900640	1.505803299	0.036176818	0.373229558	0.115032974
2020-02-27T05:05:00	0.3840	3.090		1.054064116	1.496713844	0.035848867	0.369846154	0.113990177
2020-02-27T05:10:00	0.3869	3.086		1.062568119	1.512710939	0.036426640	0.375806927	0.115827345
2020-02-27T05:15:00	0.3873	3.078		1.063660645	1.514771234	0.036501251	0.376576679	0.116064590
2020-02-27T05:20:00	0.3886	3.072		1.067415742	1.521861525	0.036758365	0.379229272	0.116882145
2020-02-27T05:25:00	0.3879	3.066		1.065548961	1.518334988	0.036630416	0.377909247	0.116475300
2020-02-27T05:30:00	0.3871	3.061		1.063089249	1.513693545	0.036462218	0.376173983	0.115940475
2020-02-27T05:35:00	0.3901	3.056		1.071870838	1.530291429	0.037064751	0.382390207	0.117856376
2020-02-27T05:40:00	0.3895	3.052		1.070301587	1.527319885	0.036956664	0.381275089	0.117512685
2020-02-27T05:45:00	0.3915	3.051		1.076117650	1.538345315	0.037358174	0.385417398	0.118789385
2020-02-27T05:50:00	0.3911	3.044		1.074845227	1.535930368	0.037270120	0.384508957	0.118509395
2020-02-27T05:55:00	0.3881	3.036		1.066182158	1.519530779	0.036673786	0.378356693	0.116613207
2020-02-27T06:00:00	0.3926	3.030		1.079384074	1.544551973	0.037584765	0.387755092	0.119509885
2020-02-27T06:05:00	0.3899	3.028		1.071321220	1.529250395	0.037026874	0.381999433	0.117735935
2020-02-27T06:10:00	0.3921	3.022		1.078021151	1.541960958	0.037490124	0.386778695	0.119208950
2020-02-27T06:15:00	0.3901	3.015		1.072024479	1.530582494	0.037075344	0.382499486	0.117890056
2020-02-27T06:20:00	0.3902	3.009		1.072228343	1.530968740	0.037089401	0.382644514	0.117934755
2020-02-27T06:25:00	0.3941	3.005		1.083644115	1.552662377	0.037881467	0.390816112	0.120453321
2020-02-27T06:30:00	0.3942	2.997		1.084142074	1.553611570	0.037916236	0.391174820	0.120563879
2020-02-27T06:35:00	0.3966	2.990		1.091116311	1.566931270	0.038405134	0.396218691	0.122118448
2020-02-27T06:40:00	0.3948	2.986		1.085726910	1.556634158	0.038027018	0.392317731	0.120916135
2020-02-27T06:45:00	0.3981	2.981		1.095638115	1.575592799	0.038724045	0.399508835	0.123132503
2020-02-27T06:50:00	0.3959	2.973		1.089077309	1.563032146	0.038261826	0.394740205	0.121662765
2020-02-27T06:55:00	0.3998	2.974		1.100448754	1.584829727	0.039064997	0.403026376	0.124216643
2020-02-27T07:00:00	0.3974	2.967		1.093601239	1.571688664	0.038580201	0.398024827	0.122675117
2020-02-27T07:05:00	0.3957	2.962		1.088509277	1.561946643	0.038221958	0.394328890	0.121535994
2020-02-27T07:10:00	0.4010	2.957		1.103990190	1.591644252	0.039317098	0.405627253	0.125018259
2020-02-27T07:15:00	0.4037	2.957		1.112103816	1.607303461	0.039898210	0.411622475	0.126866044
2020-02-27T07:20:00	0.4023	2.953		1.107912632	1.599206388	0.039597415	0.408519229	0.125909594
2020-02-27T07:25:00	0.4044	2.950		1.113971128	1.610916578	0.040032648	0.413009448	0.127293523
2020-02-27T07:30:00	0.4026	2.953		1.108902945	1.601118034	0.039668369	0.409251254	0.126135211
2020-02-27T07:35:00	0.4035	2.959		1.111448018	1.606035356	0.039851057	0.411136011	0.126716111
2020-02-27T07:40:00	0.4045	2.966		1.114284219	1.611522725	0.040055215	0.413242265	0.127365279
2020-02-27T07:45:00	0.4037	2.970		1.111852047	1.606816569	0.039880103	0.411435676	0.126808471
2020-02-27T07:50:00	0.4036	2.978		1.111761289	1.606641070	0.039873578	0.411368351	0.126787721
2020-02-27T07:55:00	0.4046	2.977		1.114597288	1.612128927	0.040077787	0.413475141	0.127437054
2020-02-27T08:00:00	0.4046	2.974		1.114506588	1.611953291	0.040071247	0.413407666	0.127416258
2020-02-27T08:05:00	0.4064	2.970		1.119971576	1.622550426	0.040466426	0.417484653	0.128672825
2020-02-27T08:10:00	0.4061	2.972		1.119004222	1.620672475	0.040396312	0.416761301	0.128449881
2020-02-27T08:15:00	0.4053	2.978		1.116574668	1.615960012	0.040220528	0.414947771	0.127890933
2020-02-27T08:20:00	0.4041	2.983		1.113265854	1.609551516	0.039981840	0.412485278	0.127131969
2020-02-27T08:25:00	0.4069	2.989		1.121362320	1.625251943	0.040567350	0.418525874	0.128993739
2020-02-27T08:30:00	0.4093	3.002		1.128277377	1.638712957	0.041071331	0.423725356	0.130596270
2020-02-27T08:35:00	0.4089	3.015		1.127311847	1.636830579	0.041000745	0.422997132	0.130371824
2020-02-27T08:40:00	0.4060	3.026		1.118752848	1.620184629	0.040378104	0.416573452	0.128391984
2020-02-27T08:45:00	0.4073	3.031		1.122460580	1.627386668	0.040647153	0.419349180	0.129247490
2020-02-27T08:50:00	0.4064	3.035		1.119740713	1.622102162	0.040449686	0.417311957	0.128619598
2020-02-27T08:55:00	0.4051	3.045		1.116141824	1.615121065	0.040189257	0.414625156	0.127791500
2020-02-27T09:00:00	0.4073	3.060		1.122481023	1.627426414	0.040648639	0.419364513	0.129252216
2020-02-27T09:05:00	0.4070	3.079		1.121514221	1.625547127	0.040578382	0.418639690	0.129028818
2020-02-27T09:10:00	0.4075	3.101		1.123176053	1.628778001	0.040699189	0.419886035	0.129412954
2020-02-27T09:15:00	0.4087	3.123		1.126588289	1.635420550	0.040947895	0.422451883	0.130203773
2020-02-27T09:20:00	0.4046	3.146		1.114518286	1.611975943	0.040072090	0.413416368	0.127418940
2020-02-27T09:25:00	0.4063	3.175		1.119691031	1.622005700	0.040446084	0.417274797	0.128608145
2020-02-27T09:30:00	0.4077	3.208		1.123689954	1.629777663	0.040736590	0.420271886	0.129531877
2020-02-27T09:35:00	0.4080	3.240		1.124475290	1.631305841	0.040793783	0.420861935	0.129713736
2020-02-27T09:40:00	0.4059	3.274		1.118542383	1.619776222	0.040362862	0.416416211	0.128343520
2020-02-27T09:45:00	0.4082	3.305		1.125170005	1.632658192	0.040844415	0.421384298	0.129874733
2020-02-27T09:50:00	0.4076	3.332		1.123327892	1.629073336	0.040710238	0.420000018	0.129448085
2020-02-27T09:55:00	0.4067	3.349		1.120900729	1.624355091	0.040533837	0.418180124	0.128887176
2020-02-27T10:00:00	0.4061	3.375		1.119056825	1.620774572	0.040400123	0.416800617	0.128461998
2020-02-27T10:05:00	0.4068	3.398		1.121084015	1.624711182	0.040547142	0.418317392	0.128929483
2020-02-27T10:10:00	0.4060	3.424		1.118727919	1.620136251	0.040376298	0.416554825	0.128386243
2020-02-27T10:15:00	0.4076	3.454		1.123383982	1.629182442	0.040714320	0.420042129	0.129461064
2020-02-27T10:20:00	0.4103	3.470		1.131242487	1.644499481	0.041288540	0.425966251	0.131286935
2020-02-27T10:25:00	0.4061	3.485		1.118965290	1.620596916	0.040393491	0.416732205	0.128440913
2020-02-27T10:30:00	0.4068	3.515		1.120992522	1.624533423	0.040540500	0.418248867	0.128908363
2020-02-27T10:35:00	0.4057	3.557		1.117759363	1.618257165	0.040306188	0.415831510	0.128163310
2020-02-27T10:40:00	0.4014	3.579		1.105151133	1.593880867	0.039399945	0.406481968	0.125281690
2020-02-27T10:45:00	0.4079	3.590		1.124150161	1.630673102	0.040770099	0.420617597	0.129638428
2020-02-27T10:50:00	0.4072	3.599		1.122087798	1.626661943	0.040620055	0.419069620	0.129161327
2020-02-27T10:55:00	0.4077	3.631		1.123821636	1.630033859	0.040746176	0.420370789	0.129562360
2020-02-27T11:00:00	0.4062	3.654		1.119421689	1.621482802	0.040426561	0.417073379	0.128546066
2020-02-27T11:05:00	0.4075	3.702		1.123201090	1.628826697	0.040701011	0.419904828	0.129418746
2020-02-27T11:10:00	0.4064	3.749		1.119969557	1.622546506	0.040466279	0.417483143	0.128672359
2020-02-27T11:15:00	0.4112	3.768		1.133955561	1.649801819	0.041487867	0.428022678	0.131920746
2020-02-27T11:20:00	0.4048	3.781		1.115254901	1.613402593	0.040125225	0.413964554	0.127587896
2020-02-27T11:25:00	0.4029	3.795		1.109674877	1.602608802	0.039723728	0.409822380	0.126311238
2020-02-27T11:30:00	0.4045	3.822		1.114340558	1.611631808	0.040059276	0.413284167	0.127378194
2020-02-27T11:35:00	0.4078	3.852		1.123967301	1.630317280	0.040756782	0.420480211	0.129596085
2020-02-27T11:40:00	0.4036	3.887		1.111669734	1.606464037	0.039866995	0.411300440	0.126766790
2020-02-27T11:45:00	0.4025	3.918		1.108429686	1.600204359	0.039634452	0.408901333	0.126027362
2020-02-27T11:50:00	0.4004	3.940		1.102254161	1.588302190	0.039193400	0.404351084	0.124624931
2020-02-27T11:55:00	0.4031	3.971		1.110150589	1.603527799	0.039757866	0.410174573	0.126419787
2020-02-27T12:00:00	0.3984	4.005		1.096345280	1.576949199	0.038774057	0.400024799	0.123291528
2020-02-27T12:05:00	0.4040	4.034		1.112749007	1.608551469	0.039944631	0.412101395	0.127013652
2020-02-27T12:10:00	0.4039	4.057		1.112437962	1.607949754	0.039922247	0.411870468	0.126942478
2020-02-27T12:15:00	0.4016	4.081		1.105974962	1.595468822	0.039458796	0.407089122	0.125468821
2020-02-27T12:20:00	0.4029	4.097		1.109765976	1.602784773	0.039730264	0.409889812	0.126332021
2020-02-27T12:25:00	0.4046	4.089		1.114724140	1.612374580	0.040086935	0.413569521	0.127466143
2020-02-27T12:30:00	0.4036	4.096		1.111779129	1.606675567	0.039874860	0.411381584	0.126791799
2020-02-27T12:35:00	0.4031	4.112		1.110296709	1.603810124	0.039768355	0.410282788	0.126453140
2020-02-27T12:40:00	0.3985	4.129		1.096785649	1.577794110	0.038805220	0.400346297	0.123390617
2020-02-27T12:45:00	0.4011	4.151		1.104398729	1.592431171	0.039346241	0.405927912	0.125110925
2020-02-27T12:50:00	0.4021	4.174		1.107312003	1.598047440	0.039554416	0.408075622	0.125772870
2020-02-27T12:55:00	0.4016	4.189		1.105828066	1.595185627	0.039448298	0.406980823	0.125435442
2020-02-27T13:00:00	0.4013	4.195		1.104930115	1.593454962	0.039384165	0.406319169	0.125231514
2020-02-27T13:05:00	0.4017	4.215		1.106084499	1.595680010	0.039466624	0.407169889	0.125493714
2020-02-27T13:10:00	0.3989	4.238		1.097850215	1.579837426	0.038880613	0.401124114	0.123630348
2020-02-27T13:15:00	0.4018	4.244		1.106340917	1.596174429	0.039484954	0.407358995	0.125551999
2020-02-27T13:20:00	0.3987	4.249		1.097225973	1.578639127	0.038836393	0.400667910	0.123489741
2020-02-27T13:25:00	0.3970	4.263		1.092211014	1.569026329	0.038482201	0.397013777	0.122363502
2020-02-27T13:30:00	0.4003	4.278		1.101886599	1.587594972	0.039167239	0.404081184	0.124541745
2020-02-27T13:35:00	0.4008	4.288		1.103628455	1.590947624	0.039291305	0.405361148	0.124936243
2020-02-27T13:40:00	0.3958	4.298		1.088919574	1.562730685	0.038250753	0.394625963	0.121627554
2020-02-27T13:45:00	0.3939	4.308		1.083305647	1.552017338	0.037857844	0.390572401	0.120378207
2020-02-27T13:50:00	0.3966	4.320		1.091236551	1.567161331	0.038413595	0.396305977	0.122145351
2020-02-27T13:55:00	0.3958	4.325		1.088864272	1.562624998	0.038246871	0.394585915	0.121615211
2020-02-27T14:00:00	0.3961	4.329		1.089728687	1.564277314	0.038307574	0.395212175	0.121808231
2020-02-27T14:05:00	0.3935	4.331		1.082052873	1.549630833	0.037770484	0.389671116	0.120100423
2020-02-27T14:10:00	0.3961	4.333		1.089691827	1.564206839	0.038304984	0.395185458	0.121799996
2020-02-27T14:15:00	0.3966	4.340		1.091144430	1.566985072	0.038407113	0.396239102	0.122124740
2020-02-27T14:20:00	0.3967	4.349		1.091420154	1.567512652	0.038426516	0.396439281	0.122186437
2020-02-27T14:25:00	0.4010	4.359		1.104031348	1.591723522	0.039320033	0.405657537	0.125027593
2020-02-27T14:30:00	0.3945	4.363		1.084907372	1.555070833	0.037969708	0.391726478	0.120733905
2020-02-27T14:35:00	0.3981	4.374		1.095480918	1.575291350	0.038712933	0.399394192	0.123097169
2020-02-27T14:40:00	0.4002	4.380		1.101629287	1.587099962	0.039148931	0.403892302	0.124483530
2020-02-27T14:45:00	0.3971	4.390		1.092504455	1.569588123	0.038502875	0.397227061	0.122429238
2020-02-27T14:50:00	0.3977	4.401		1.094250074	1.572931859	0.038625988	0.398497203	0.122820708
2020-02-27T14:55:00	0.3957	4.406		1.088643058	1.562202269	0.038231345	0.394425739	0.121565843
2020-02-27T15:00:00	0.3978	4.412		1.094801109	1.573987992	0.038664899	0.398898631	0.122944432
2020-02-27T15:05:00	0.3930	4.409		1.080651984	1.546963999	0.037672932	0.388664692	0.119790233
2020-02-27T15:10:00	0.3962	4.408		1.090059156	1.564909192	0.038330795	0.395451747	0.121882069
2020-02-27T15:15:00	0.3922	4.409		1.078255408	1.542406168	0.037506381	0.386946416	0.119260643
2020-02-27T15:20:00	0.3943	4.407		1.084428255	1.554157190	0.037936227	0.391381059	0.120627443
2020-02-27T15:25:00	0.3950	4.402		1.086471615	1.558055308	0.038079137	0.392855441	0.121081862
2020-02-27T15:30:00	0.3948	4.396		1.085864179	1.556896074	0.038036622	0.392416813	0.120946673
2020-02-27T15:35:00	0.3948	4.388		1.085845732	1.556860875	0.038035331	0.392403497	0.120942569
2020-02-27T15:40:00	0.3905	4.382		1.073144375	1.532704779	0.037152604	0.383296564	0.118135724
2020-02-27T15:45:00	0.3942	4.373		1.084041359	1.553419571	0.037909203	0.391102254	0.120541513
2020-02-27T15:50:00	0.3919	4.365		1.077240826	1.540478325	0.037436000	0.386220309	0.119036850
2020-02-27T15:55:00	0.3936	4.357		1.082236232	1.549980030	0.037783263	0.389802956	0.120141057
2020-02-27T16:00:00	0.3967	4.349		1.091345828	1.567370426	0.038421285	0.396385313	0.122169803
2020-02-27T16:05:00	0.3919	4.340		1.077347683	1.540681320	0.037443409	0.386296746	0.119060409
2020-02-27T16:10:00	0.3881	4.330		1.065967651	1.519125639	0.036659090	0.378205078	0.116566478
2020-02-27T16:15:00	0.3827	4.320		1.050104927	1.489290163	0.035581678	0.367089614	0.113140584
2020-02-27T16:20:00	0.3862	4.308		1.060334748	1.508502856	0.036274389	0.374236186	0.115343227
2020-02-27T16:25:00	0.3854	4.298		1.058108402	1.504312855	0.036122981	0.372674137	0.114861788
2020-02-27T16:30:00	0.3853	4.287		1.057659999	1.503469541	0.036092530	0.372359981	0.114764962
2020-02-27T16:35:00	0.3835	4.275		1.052465122	1.493713811	0.035740820	0.368731452	0.113646615
2020-02-27T16:40:00	0.3800	4.264		1.041911292	1.473975120	0.035032352	0.361422314	0.111393867
2020-02-27T16:45:00	0.3743	4.252		1.025062165	1.442686433	0.033918038	0.349926148	0.107850637
2020-02-27T16:50:00	0.3801	4.239		1.042201322	1.474516112	0.035051713	0.361622059	0.111455430
2020-02-27T16:55:00	0.3808	4.226		1.044428488	1.478673166	0.035200592	0.363158023	0.111928830
2020-02-27T17:00:00	0.3787	4.214		1.038026267	1.466736260	0.034773593	0.358752748	0.110571081
2020-02-27T17:05:00	0.3770	4.201		1.033105484	1.457588510	0.034447419	0.355387673	0.109533932
2020-02-27T17:10:00	0.3725	4.189		1.019812002	1.432993037	0.033575009	0.346387176	0.106759892
2020-02-27T17:15:00	0.3743	4.177		1.025039528	1.442644581	0.033916555	0.349910845	0.107845921
2020-02-27T17:20:00	0.3739	4.163		1.023990014	1.440704755	0.033847826	0.349201780	0.107627380
2020-02-27T17:25:00	0.3748	4.151		1.026525449	1.445392844	0.034013999	0.350916153	0.108155766
2020-02-27T17:30:00	0.3729	4.137		1.020993196	1.435171560	0.033652011	0.347181597	0.107004740
2020-02-27T17:35:00	0.3751	4.125		1.027413734	1.447036776	0.034072326	0.351517911	0.108341234
2020-02-27T17:40:00	0.3733	4.113		1.022181609	1.437364756	0.033729586	0.347981919	0.107251407
2020-02-27T17:45:00	0.3736	4.101		1.022925140	1.438737624	0.033778172	0.348483174	0.107405899
2020-02-27T17:50:00	0.3717	4.088		1.017388141	1.428526829	0.033417310	0.344760229	0.106258451
2020-02-27T17:55:00	0.3698	4.075		1.011544126	1.417781919	0.033038828	0.340855496	0.105054974
2020-02-27T18:00:00	0.3705	4.063		1.013787551	1.421902831	0.033183832	0.342351473	0.105516049
2020-02-27T18:05:00	0.3675	4.051		1.004637561	1.405125755	0.032594684	0.336273348	0.103642712
2020-02-27T18:10:00	0.3643	4.039		0.995166575	1.387844788	0.031991165	0.330046956	0.101723677
2020-02-27T18:15:00	0.3681	4.027		1.006430819	1.408407463	0.032709676	0.337459699	0.104008357
2020-02-27T18:20:00	0.3613	4.016		0.986122475	1.371422906	0.031420803	0.324162631	0.099910071
2020-02-27T18:25:00	0.3621	4.005		0.988379642	1.375514049	0.031562607	0.325625597	0.100360971
2020-02-27T18:30:00	0.3613	3.995		0.986114859	1.371409109	0.031420325	0.324157701	0.099908552
2020-02-27T18:35:00	0.3555	3.983		0.968432774	1.339528329	0.030321932	0.312825778	0.096415943
2020-02-27T18:40:00	0.3544	3.971		0.965247865	1.333817550	0.030126428	0.310808800	0.095794291
2020-02-27T18:45:00	0.3588	3.959		0.978406825	1.357474919	0.030938798	0.319189876	0.098377420
2020-02-27T18:50:00	0.3588	3.948		0.978554062	1.357740555	0.030947957	0.319284365	0.098406542
2020-02-27T18:55:00	0.3577	3.937		0.975074645	1.351468704	0.030731933	0.317055687	0.097719642
2020-02-27T19:00:00	0.3563	3.926		0.970987020	1.344115243	0.030479237	0.314448674	0.096916135
2020-02-27T19:05:00	0.3590	3.915		0.978995741	1.358537531	0.030975440	0.319567904	0.098493932
2020-02-27T19:10:00	0.3553	3.901		0.967951710	1.338665127	0.030292356	0.312520653	0.096321900
2020-02-27T19:15:00	0.3535	3.886		0.962340801	1.328613371	0.029948600	0.308974186	0.095228845
2020-02-27T19:20:00	0.3529	3.877		0.960668518	1.325623306	0.029846573	0.307921596	0.094904426
2020-02-27T19:25:00	0.3548	3.863		0.966274062	1.335656546	0.030189342	0.311457880	0.095994344
2020-02-27T19:30:00	0.3551	3.853		0.967330607	1.337550971	0.030254195	0.312126953	0.096200558
2020-02-27T19:35:00	0.3542	3.842		0.964447990	1.332384826	0.030077439	0.310303398	0.095638521
2020-02-27T19:40:00	0.3543	3.833		0.964898842	1.333192311	0.030105046	0.310588213	0.095726303
2020-02-27T19:45:00	0.3533	3.824		0.961711185	1.327487298	0.029910164	0.308577648	0.095106628
2020-02-27T19:50:00	0.3557	3.816		0.969132453	1.340784195	0.030364976	0.313269864	0.096552815
2020-02-27T19:55:00	0.3504	3.806		0.952897176	1.311762796	0.029375007	0.303056531	0.093404966
2020-02-27T20:00:00	0.3503	3.798		0.952741336	1.311485434	0.029365594	0.302959416	0.093375034
2020-02-27T20:05:00	0.3543	3.789		0.964728148	1.332886571	0.030094593	0.310480363	0.095693063
2020-02-27T20:10:00	0.3549	3.780		0.966694105	1.336409571	0.030215116	0.311723782	0.096076297
2020-02-27T20:15:00	0.3536	3.771		0.962598123	1.329073701	0.029964317	0.309136333	0.095278820
2020-02-27T20:20:00	0.3458	3.764		0.939022586	1.287158748	0.028543558	0.294478630	0.090761174
2020-02-27T20:25:00	0.3528	3.754		0.960466991	1.325263152	0.029834291	0.307794884	0.094865373
2020-02-27T20:30:00	0.3486	3.745		0.947546880	1.302253511	0.029052799	0.299732374	0.092380429
2020-02-27T20:35:00	0.3508	3.737		0.954386166	1.314414045	0.029465032	0.303985308	0.093691224
2020-02-27T20:40:00	0.3553	3.730		0.967882860	1.338541603	0.030288124	0.312476997	0.096308445
2020-02-27T20:45:00	0.3508	3.722		0.954378490	1.314400373	0.029464568	0.303980516	0.093689747
2020-02-27T20:50:00	0.3554	3.713		0.968178082	1.339071292	0.030306271	0.312664213	0.096366147
2020-02-27T20:55:00	0.3554	3.704		0.968325685	1.339336154	0.030315346	0.312757840	0.096395004
2020-02-27T21:00:00	0.3532	3.695		0.961502048	1.327113337	0.029897403	0.308445994	0.095066051
2020-02-27T21:05:00	0.3559	3.685		0.969832013	1.342040313	0.030408048	0.313714229	0.096689772
2020-02-27T21:10:00	0.3537	3.674		0.963010884	1.329812231	0.029989537	0.309396525	0.095359014
2020-02-27T21:15:00	0.3529	3.660		0.960732094	1.325736933	0.029850449	0.307961576	0.094916749
2020-02-27T21:20:00	0.3536	3.648		0.962699969	1.329255914	0.029970539	0.309200522	0.095298604
2020-02-27T21:25:00	0.3571	3.633		0.973448003	1.348540542	0.030631234	0.316016791	0.097399444
2020-02-27T21:30:00	0.3559	3.617		0.969661523	1.341734142	0.030397548	0.313605900	0.096656384
2020-02-27T21:35:00	0.3591	3.603		0.979485402	1.359421305	0.031005925	0.319882412	0.098590866
2020-02-27T21:40:00	0.3524	3.589		0.959043819	1.322720862	0.029747637	0.306900891	0.094589835
2020-02-27T21:45:00	0.3556	3.576		0.968893101	1.340354525	0.030350247	0.313117908	0.096505980
2020-02-27T21:50:00	0.3597	3.563		0.981134796	1.362399928	0.031108737	0.320943100	0.098917780
2020-02-27T21:55:00	0.3486	3.552		0.947633726	1.302407649	0.029058013	0.299786167	0.092397008
2020-02-27T22:00:00	0.3604	3.537		0.983240002	1.366205462	0.031240239	0.322299790	0.099335925
2020-02-27T22:05:00	0.3529	3.521		0.960707351	1.325692710	0.029848940	0.307946016	0.094911953
2020-02-27T22:10:00	0.3559	3.506		0.969658026	1.341727861	0.030397333	0.313603678	0.096655699
2020-02-27T22:15:00	0.3596	3.492		0.981005297	1.362165972	0.031100657	0.320859750	0.098892091
2020-02-27T22:20:00	0.3525	3.479		0.959370997	1.323305148	0.029767546	0.307106285	0.094653140
2020-02-27T22:25:00	0.3574	3.466		0.974377141	1.350212800	0.030688730	0.316609973	0.097582269
2020-02-27T22:30:00	0.3562	3.452		0.970605059	1.343428923	0.030455685	0.314205686	0.096841244
2020-02-27T22:35:00	0.3503	3.438		0.952869527	1.311713585	0.029373337	0.303039300	0.093399655
2020-02-27T22:40:00	0.3540	3.423		0.963960105	1.331511234	0.030047581	0.309995356	0.095543579
2020-02-27T22:45:00	0.3575	3.408		0.974415982	1.350282724	0.030691135	0.316634784	0.097589915
2020-02-27T22:50:00	0.3522	3.393		0.958518843	1.321783553	0.029715708	0.306571486	0.094488309
2020-02-27T22:55:00	0.3630	3.377		0.991034010	1.380331352	0.031729827	0.327350773	0.100892687
2020-02-27T23:00:00	0.3537	3.363		0.963089433	1.329952793	0.029994338	0.309446055	0.095374279
2020-02-27T23:05:00	0.3534	3.347		0.962037703	1.328071231	0.029930093	0.308783256	0.095169998
2020-02-27T23:10:00	0.3548	3.333		0.966443148	1.335959652	0.030199716	0.311564902	0.096027329
2020-02-27T23:15:00	0.3591	3.319		0.979309770	1.359104286	0.030994989	0.319769584	0.098556091
2020-02-27T23:20:00	0.3587	3.305		0.978262184	1.357213985	0.030929802	0.319097069	0.098348816
2020-02-27T23:25:00	0.3582	3.288		0.976609894	1.354234659	0.030827146	0.318037978	0.098022393
2020-02-27T23:30:00	0.3575	3.278		0.974654568	1.350712271	0.030705910	0.316787210	0.097636895
2020-02-27T23:35:00	0.3595	3.265		0.980556549	1.361355382	0.031072671	0.320571017	0.098803101
2020-02-27T23:40:00	0.3623	3.253		0.989162906	1.376934862	0.031611899	0.326134134	0.100517708
2020-02-27T23:45:00	0.3621	3.244		0.988419205	1.375585800	0.031565096	0.325651272	0.100368885
2020-02-27T23:50:00	0.3560	3.235		0.970155176	1.342620737	0.030427957	0.313919624	0.096753077
2020-02-27T23:55:00	0.3569	3.227		0.972737169	1.347261739	0.030587287	0.315563402	0.097259705
2020-02-28T00:00:00	0.3584	3.205		0.977131158	1.355174294	0.030859511	0.318371885	0.098125307
2020-02-28T00:05:00	0.3544	3.200		0.965186522	1.333707651	0.030122669	0.310770023	0.095782339
2020-02-28T00:10:00	0.3635	3.183		0.992534153	1.383056879	0.031824554	0.328328054	0.101193895
2020-02-28T00:15:00	0.3616	3.179		0.986970124	1.372958709	0.031474013	0.324711592	0.100079266
2020-02-28T00:20:00	0.3600	3.174		0.982002341	1.363967657	0.031162890	0.321501793	0.099089975
2020-02-28T00:25:00	0.3629	3.168		0.990906901	1.380100514	0.031721808	0.327268042	0.100867189
2020-02-28T00:30:00	0.3609	3.164		0.984737436	1.368914915	0.031333968	0.323266772	0.099633959
2020-02-28T00:35:00	0.3609	3.161		0.984897942	1.369205461	0.031344024	0.323370517	0.099665934
2020-02-28T00:40:00	0.3621	3.156		0.988374965	1.375505567	0.031562313	0.325622562	0.100360036
2020-02-28T00:45:00	0.3603	3.152		0.983107116	1.365965123	0.031231929	0.322214057	0.099309502
2020-02-28T00:50:00	0.3580	3.151		0.976019234	1.353170240	0.030790494	0.317659856	0.097905853
2020-02-28T00:55:00	0.3615	3.148		0.986746080	1.372552710	0.031459944	0.324566444	0.100034530
2020-02-28T01:00:00	0.3624	3.147		0.989317712	1.377215743	0.031621646	0.326234696	0.100548702
2020-02-28T01:05:00	0.3600	3.142		0.982240488	1.364398135	0.031177765	0.321655255	0.099137273
2020-02-28T01:10:00	0.3571	3.139		0.973336625	1.348340139	0.030624345	0.315945727	0.097377541
2020-02-28T01:15:00	0.3617	3.136		0.987086290	1.373169238	0.031481309	0.324786865	0.100102466
2020-02-28T01:20:00	0.3583	3.131		0.976984213	1.354909383	0.030850385	0.318277736	0.098096289
2020-02-28T01:25:00	0.3617	3.125		0.987105651	1.373204326	0.031482525	0.324799412	0.100106333
2020-02-28T01:30:00	0.3590	3.117		0.979118564	1.358759189	0.030983085	0.319646777	0.098518241
2020-02-28T01:35:00	0.3596	3.107		0.980789239	1.361775675	0.031087181	0.320720716	0.098849239
2020-02-28T01:40:00	0.3580	3.092		0.976116297	1.353345133	0.030796516	0.317721975	0.097924998
2020-02-28T01:45:00	0.3627	3.082		0.990157985	1.378740746	0.031674584	0.326780841	0.100717029
2020-02-28T01:50:00	0.3569	3.078		0.972809330	1.347391537	0.030591747	0.315609412	0.097273886
2020-02-28T01:55:00	0.3600	3.073		0.982035571	1.364027722	0.031164966	0.321523204	0.099096574
2020-02-28T02:00:00	0.3595	3.063		0.980686746	1.361590542	0.031080789	0.320654773	0.098828915
2020-02-28T02:05:00	0.3619	3.054		0.987785986	1.374437567	0.031525276	0.325240462	0.100242269
2020-02-28T02:10:00	0.3627	3.049		0.990356973	1.379101985	0.031687127	0.326910250	0.100756914
2020-02-28T02:15:00	0.3606	3.045		0.983884989	1.367372238	0.031280591	0.322716096	0.099464235
2020-02-28T02:20:00	0.3620	3.040		0.988267130	1.375310005	0.031555530	0.325552585	0.100338468
2020-02-28T02:25:00	0.3620	3.032		0.988126111	1.375054278	0.031546661	0.325461087	0.100310268
2020-02-28T02:30:00	0.3636	3.013		0.993105887	1.384096199	0.031860698	0.328700950	0.101308825
2020-02-28T02:35:00	0.3657	3.000		0.999282230	1.395343734	0.032252642	0.332744558	0.102555104
2020-02-28T02:40:00	0.3638	2.979		0.993426245	1.384678694	0.031880961	0.328909998	0.101373256
2020-02-28T02:45:00	0.3634	2.945		0.992382229	1.382780760	0.031814953	0.328229007	0.101163368
2020-02-28T02:50:00	0.3620	2.893		0.988023800	1.374868757	0.031540228	0.325394713	0.100289811
2020-02-28T02:55:00	0.3644	2.870		0.995411361	1.388290348	0.032006683	0.330207053	0.101773021
2020-02-28T03:00:00	0.3647	2.862		0.996173128	1.389677284	0.032055002	0.330705551	0.101926663
2020-02-28T03:05:00	0.3638	2.852		0.993625076	1.385040270	0.031893541	0.329039781	0.101413256
2020-02-28T03:10:00	0.3622	2.843		0.988665277	1.376032112	0.031580577	0.325810994	0.100418113
2020-02-28T03:15:00	0.3640	2.835		0.994246359	1.386170325	0.031932867	0.329445502	0.101538303
2020-02-28T03:20:00	0.3676	2.831		1.004926195	1.405653753	0.032613177	0.336464137	0.103701515
2020-02-28T03:25:00	0.3651	2.826		0.997574857	1.392230838	0.032144022	0.331623952	0.102209723
2020-02-28T03:30:00	0.3659	2.821		0.999839250	1.396359903	0.032288123	0.333110613	0.102667926
2020-02-28T03:35:00	0.3585	2.819		0.977699482	1.356199057	0.030894820	0.318736163	0.098237581
2020-02-28T03:40:00	0.3635	2.816		0.992639115	1.383247659	0.031831188	0.328396494	0.101214989
2020-02-28T03:45:00	0.3666	2.813		1.002121703	1.400526874	0.032433743	0.334612944	0.103130959
2020-02-28T03:50:00	0.3641	2.813		0.994464477	1.386567148	0.031946680	0.329588008	0.101582225
2020-02-28T03:55:00	0.3670	2.810		1.003042049	1.402208522	0.032492566	0.335219809	0.103318001
2020-02-28T04:00:00	0.3649	2.807		0.996890607	1.390984093	0.032100550	0.331175458	0.102071492
2020-02-28T04:05:00	0.3673	2.807		1.004078972	1.404104153	0.032558912	0.335904290	0.103528964
2020-02-28T04:10:00	0.3676	2.805		1.004955911	1.405708117	0.032615081	0.336483782	0.103707570
2020-02-28T04:15:00	0.3656	2.801		0.998924223	1.394690781	0.032229849	0.332509409	0.102482629
2020-02-28T04:20:00	0.3680	2.796		1.006109081	1.407818447	0.032689028	0.337246675	0.103942701
2020-02-28T04:25:00	0.3688	2.790		1.008485501	1.412171383	0.032841714	0.338821914	0.104428204
2020-02-28T04:30:00	0.3685	2.785		1.007561938	1.410479030	0.032782327	0.338209224	0.104239367
2020-02-28T04:35:00	0.3662	2.780		1.000632642	1.397807796	0.032338699	0.333632396	0.102828745
2020-02-28T04:40:00	0.3684	2.776		1.007514572	1.410392258	0.032779283	0.338177818	0.104229688
2020-02-28T04:45:00	0.3674	2.773		1.004489820	1.404855522	0.032585220	0.336175713	0.103612620
2020-02-28T04:50:00	0.3686	2.774		1.008067164	1.411404714	0.032814807	0.338544312	0.104342645
2020-02-28T04:55:00	0.3708	2.776		1.014637388	1.423465148	0.033238855	0.342919139	0.105691009
2020-02-28T05:00:00	0.3685	2.777		1.007719832	1.410768299	0.032792476	0.338313926	0.104271638
2020-02-28T05:05:00	0.3690	2.782		1.009195803	1.413473510	0.032887430	0.339293555	0.104573569
2020-02-28T05:10:00	0.3659	2.789		0.999865530	1.396407852	0.032289797	0.333127888	0.102673251
2020-02-28T05:15:00	0.3713	2.795		1.016040016	1.426045223	0.033329783	0.343857223	0.105980136
2020-02-28T05:20:00	0.3716	2.798		1.016914450	1.427654666	0.033386541	0.344442786	0.106160612
2020-02-28T05:25:00	0.3696	2.799		1.010900021	1.416599668	0.032997263	0.340426676	0.104922808
2020-02-28T05:30:00	0.3709	2.800		1.014771373	1.423711526	0.033247535	0.343008686	0.105718608
2020-02-28T05:35:00	0.3662	2.803		1.000648468	1.397836684	0.032339708	0.333642809	0.102831954
2020-02-28T05:40:00	0.3678	2.805		1.005730007	1.407124591	0.032664709	0.336995786	0.103865374
2020-02-28T05:45:00	0.3706	2.806		1.014101439	1.422479792	0.033204148	0.342561078	0.105580651
2020-02-28T05:50:00	0.3685	2.793		1.007782995	1.410884023	0.032796536	0.338355815	0.104284548
2020-02-28T05:55:00	0.3702	2.787		1.012855861	1.420190836	0.033123568	0.341729744	0.105324426
2020-02-28T06:00:00	0.3673	2.787		1.004134300	1.404205329	0.032562454	0.335940835	0.103540228
2020-02-28T06:05:00	0.3713	2.787		1.016103053	1.426161222	0.033333872	0.343899417	0.105993140
2020-02-28T06:10:00	0.3722	2.779		1.018773008	1.431077892	0.033507359	0.345689248	0.106544783
2020-02-28T06:15:00	0.3689	2.770		1.008864359	1.412865847	0.032866094	0.339073430	0.104505724
2020-02-28T06:20:00	0.3713	2.762		1.016032149	1.426030747	0.033329272	0.343851958	0.105978513
2020-02-28T06:25:00	0.3735	2.763		1.022589905	1.438118575	0.033756261	0.348257124	0.107336228
2020-02-28T06:30:00	0.3727	2.760		1.020174254	1.433661010	0.033598613	0.346630701	0.106834949
2020-02-28T06:35:00	0.3714	2.760		1.016260625	1.426451197	0.033344097	0.344004901	0.106025651
2020-02-28T06:40:00	0.3739	2.761		1.023714640	1.440195953	0.033829806	0.349015869	0.107570081
2020-02-28T06:45:00	0.3772	2.760		1.033839425	1.458951420	0.034495957	0.355888430	0.109688271
2020-02-28T06:50:00	0.3718	2.759		1.017686336	1.429075978	0.033436688	0.344960149	0.106320068
2020-02-28T06:55:00	0.3749	2.753		1.026929875	1.446141212	0.034040547	0.351190053	0.108240185
2020-02-28T07:00:00	0.3749	2.753		1.026906301	1.446097586	0.034039000	0.351174084	0.108235263
2020-02-28T07:05:00	0.3735	2.739		1.022700039	1.438321938	0.033763459	0.348331378	0.107359114
2020-02-28T07:10:00	0.3754	2.720		1.028351972	1.448773985	0.034133996	0.352154148	0.108537328
2020-02-28T07:15:00	0.3756	2.699		1.028925389	1.449836123	0.034171718	0.352543315	0.108657274
2020-02-28T07:20:00	0.3740	2.688		1.024123566	1.440951540	0.033856567	0.349291964	0.107655176
2020-02-28T07:25:00	0.3741	2.675		1.024398778	1.441460150	0.033874585	0.349477849	0.107712467
2020-02-28T07:30:00	0.3766	2.675		1.031838398	1.455236790	0.034363714	0.354524104	0.109267772
2020-02-28T07:35:00	0.3772	2.678		1.033604068	1.458514309	0.034480388	0.355727805	0.109638764
2020-02-28T07:40:00	0.3823	2.677		1.048758493	1.486769007	0.035491073	0.366154862	0.112852485
2020-02-28T07:45:00	0.3785	2.672		1.037431076	1.465628549	0.034734047	0.358344764	0.110445337
2020-02-28T07:50:00	0.3746	2.659		1.026073253	1.444556266	0.033984328	0.350610043	0.108061420
2020-02-28T07:55:00	0.3770	2.656		1.033211764	1.457785836	0.034454445	0.355460161	0.109556274
2020-02-28T08:00:00	0.3789	2.659		1.038849641	1.468269207	0.034828342	0.359317580	0.110745168
2020-02-28T08:05:00	0.3771	2.666		1.033462847	1.458252057	0.034471048	0.355631446	0.109609065
2020-02-28T08:10:00	0.3793	2.672		1.039993552	1.470400017	0.034904485	0.360103141	0.110987285
2020-02-28T08:15:00	0.3755	2.671		1.028642629	1.449312328	0.034153114	0.352351380	0.108598117
2020-02-28T08:20:00	0.3817	2.676		1.047085167	1.483638216	0.035378656	0.364995067	0.112495024
2020-02-28T08:25:00	0.3775	2.683		1.034561153	1.460292158	0.034543725	0.356381247	0.109840161
2020-02-28T08:30:00	0.3780	2.697		1.036027727	1.463018138	0.034640908	0.357383865	0.110149178
2020-02-28T08:35:00	0.3798	2.712		1.041364274	1.472954989	0.034995852	0.361045750	0.111277807
2020-02-28T08:40:00	0.3837	2.726		1.052931148	1.494587912	0.035772291	0.369056133	0.113746684
2020-02-28T08:45:00	0.3823	2.745		1.048750686	1.486754396	0.035490549	0.366149446	0.112850815
2020-02-28T08:50:00	0.3788	2.765		1.038614562	1.467831472	0.034812705	0.359156264	0.110695449
2020-02-28T08:55:00	0.3819	2.776		1.047812450	1.484998628	0.035427491	0.365498894	0.112650309
2020-02-28T09:00:00	0.3794	2.790		1.040353907	1.471071528	0.034928492	0.360350811	0.111063620
2020-02-28T09:05:00	0.3797	2.808		1.041223311	1.472692157	0.034986449	0.360948749	0.111247910
2020-02-28T09:10:00	0.3808	2.824		1.044472207	1.478754816	0.035203519	0.363188211	0.111938134
2020-02-28T09:15:00	0.3821	2.836		1.048312873	1.485934987	0.035461116	0.365845794	0.112757227
2020-02-28T09:20:00	0.3823	2.852		1.048883593	1.487003179	0.035499486	0.366241654	0.112879235
2020-02-28T09:25:00	0.3807	2.866		1.044104388	1.478067925	0.035178905	0.362934276	0.111859869
2020-02-28T09:30:00	0.3791	2.881		1.039319794	1.469144827	0.034859626	0.359640330	0.110844643
2020-02-28T09:35:00	0.3791	2.901		1.039296290	1.469101046	0.034858061	0.359624191	0.110839668
2020-02-28T09:40:00	0.3795	2.927		1.040463578	1.471275922	0.034935800	0.360426207	0.111086857
2020-02-28T09:45:00	0.3793	2.954		1.039844722	1.470122713	0.034894573	0.360000878	0.110955767
2020-02-28T09:50:00	0.3816	2.974		1.046662835	1.482848465	0.035350315	0.364702679	0.112404908
2020-02-28T09:55:00	0.3783	2.989		1.037117540	1.465045166	0.034713226	0.358129953	0.110379130
2020-02-28T10:00:00	0.3792	3.003		1.039774216	1.469991352	0.034889878	0.359952439	0.110940838
2020-02-28T10:05:00	0.3799	3.028		1.041604863	1.473403626	0.035011902	0.361211342	0.111328844
2020-02-28T10:10:00	0.3803	3.045		1.042839781	1.475707318	0.035094355	0.362061992	0.111591022
2020-02-28T10:15:00	0.3796	3.067		1.040801644	1.471906048	0.034958333	0.360658674	0.111158506
2020-02-28T10:20:00	0.3818	3.095		1.047389249	1.484206951	0.035399069	0.365205672	0.112559935
2020-02-28T10:25:00	0.3848	3.112		1.056339696	1.500987582	0.036002954	0.371435844	0.114480135
2020-02-28T10:30:00	0.3843	3.129		1.054901356	1.498285666	0.035905516	0.370430585	0.114170304
2020-02-28T10:35:00	0.3838	3.153		1.053462530	1.495584856	0.035808195	0.369426546	0.113860849
2020-02-28T10:40:00	0.3824	3.187		1.049053707	1.487321636	0.035510928	0.366359696	0.112915616
2020-02-28T10:45:00	0.3878	3.215		1.065109113	1.517504567	0.036600306	0.377598609	0.116379559
2020-02-28T10:50:00	0.3896	3.218		1.070477211	1.527652329	0.036968752	0.381399796	0.117551121
2020-02-28T10:55:00	0.3854	3.226		1.058089903	1.504278059	0.036121725	0.372661173	0.114857793
2020-02-28T11:00:00	0.3855	3.254		1.058430935	1.504919564	0.036144893	0.372900200	0.114931463
2020-02-28T11:05:00	0.3830	3.292		1.051059137	1.491077959	0.035645969	0.367752892	0.113345013
2020-02-28T11:10:00	0.3858	3.333		1.059409262	1.506760495	0.036211405	0.373586391	0.115142954
2020-02-28T11:15:00	0.3861	3.361		1.060046489	1.507960076	0.036254765	0.374033726	0.115280827
2020-02-28T11:20:00	0.3852	3.384		1.057423674	1.503025163	0.036076487	0.372194470	0.114713950
2020-02-28T11:25:00	0.3901	3.412		1.071970667	1.530480547	0.037071634	0.382461209	0.117878259
2020-02-28T11:30:00	0.3859	3.442		1.059587683	1.507096333	0.036223543	0.373711612	0.115181548
2020-02-28T11:35:00	0.3864	3.464		1.061113624	1.509969848	0.036327444	0.374783544	0.115511928
2020-02-28T11:40:00	0.3871	3.490		1.063231200	1.513961243	0.036471913	0.376274001	0.115971301
2020-02-28T11:45:00	0.3852	3.531		1.057350336	1.502887272	0.036071510	0.372143116	0.114698123
2020-02-28T11:50:00	0.3896	3.565		1.070419965	1.527543963	0.036964811	0.381359144	0.117538592
2020-02-28T11:55:00	0.3876	3.588		1.064548974	1.516447312	0.036561982	0.377203229	0.116257698
2020-02-28T12:00:00	0.3894	3.603		1.069917772	1.526593459	0.036930255	0.381002633	0.117428712
2020-02-28T12:05:00	0.3868	3.623		1.062269646	1.512148278	0.036406271	0.375596790	0.115762579
2020-02-28T12:10:00	0.3877	3.648		1.064978588	1.517258175	0.036591374	0.377506455	0.116351156
2020-02-28T12:15:00	0.3887	3.673		1.067981570	1.522931105	0.036797197	0.379629898	0.117005621
2020-02-28T12:20:00	0.3844	3.696		1.054993786	1.498459236	0.035911773	0.370495138	0.114190200
2020-02-28T12:25:00	0.3874	3.727		1.063928309	1.515276176	0.036519544	0.376765404	0.116122757
2020-02-28T12:30:00	0.3867	3.742		1.061900240	1.511452020	0.036381072	0.375336808	0.115682450
2020-02-28T12:35:00	0.3869	3.766		1.062537096	1.512652451	0.036424522	0.375785082	0.115820612
2020-02-28T12:40:00	0.3876	3.782		1.064653968	1.516645463	0.036569164	0.377277322	0.116280535
2020-02-28T12:45:00	0.3860	3.795		1.059960410	1.507798009	0.036248906	0.373973280	0.115262197
2020-02-28T12:50:00	0.3895	3.803		1.070067130	1.526876124	0.036940531	0.381108644	0.117461385
2020-02-28T12:55:00	0.3897	3.808		1.070702774	1.528079346	0.036984280	0.381559997	0.117600497
2020-02-28T13:00:00	0.3871	3.821		1.063056049	1.513630938	0.036459951	0.376150592	0.115933266
2020-02-28T13:05:00	0.3870	3.831		1.062804529	1.513156663	0.036442777	0.375973415	0.115878658
2020-02-28T13:10:00	0.3871	3.830		1.063145185	1.513799029	0.036466038	0.376213393	0.115952621
2020-02-28T13:15:00	0.3911	3.838		1.075016318	1.536254993	0.037281953	0.384631035	0.118547021
2020-02-28T13:20:00	0.3829	3.834		1.050781281	1.490557279	0.035627241	0.367559682	0.113285464
2020-02-28T13:25:00	0.3910	3.835		1.074514662	1.535303246	0.037247264	0.384273153	0.118436718
2020-02-28T13:30:00	0.3892	3.852		1.069240623	1.525312204	0.036883689	0.380522222	0.117280644
2020-02-28T13:35:00	0.3898	3.861		1.071058669	1.528753200	0.037008788	0.381812842	0.117678426
2020-02-28T13:40:00	0.3878	3.895		1.065188553	1.517654532	0.036605743	0.377654701	0.116396847
2020-02-28T13:45:00	0.3885	3.923		1.067304115	1.521650555	0.036750707	0.379150265	0.116857794
2020-02-28T13:50:00	0.3904	3.934		1.072964878	1.532364537	0.037140214	0.383168744	0.118096328
2020-02-28T13:55:00	0.3918	3.945		1.077142891	1.540292289	0.037429210	0.386150261	0.119015261
2020-02-28T14:00:00	0.3874	3.949		1.063886868	1.515197994	0.036516712	0.376736181	0.116113750
2020-02-28T14:05:00	0.3890	3.943		1.068665148	1.524223682	0.036844142	0.380114218	0.117154894
2020-02-28T14:10:00	0.3933	3.944		1.081405613	1.548398422	0.037725393	0.389205927	0.119957047
2020-02-28T14:15:00	0.3944	3.939		1.084691761	1.554659650	0.037954639	0.391571012	0.120685989
2020-02-28T14:20:00	0.3923	3.938		1.078545221	1.542957037	0.037526499	0.387153971	0.119324614
2020-02-28T14:25:00	0.3925	3.941		1.079179613	1.544163162	0.037570558	0.387608526	0.119464712
2020-02-28T14:30:00	0.3918	3.941		1.076863614	1.539761828	0.037409852	0.385950549	0.118953708
2020-02-28T14:35:00	0.3895	3.938		1.070114739	1.526966230	0.036943806	0.381142439	0.117471801
2020-02-28T14:40:00	0.3941	3.951		1.083734994	1.552835590	0.037887811	0.390881563	0.120473494
2020-02-28T14:45:00	0.3868	3.965		1.062215409	1.512046044	0.036402571	0.375558613	0.115750812
2020-02-28T14:50:00	0.3916	3.962		1.076451033	1.538978310	0.037381265	0.385655619	0.118862807
2020-02-28T14:55:00	0.3919	3.954		1.077380839	1.540744309	0.037445708	0.386320466	0.119067719
2020-02-28T15:00:00	0.3935	3.951		1.082144153	1.549804666	0.037776845	0.389736746	0.120120650
2020-02-28T15:05:00	0.3899	3.950		1.071268336	1.529150243	0.037023231	0.381961845	0.117724350
2020-02-28T15:10:00	0.3916	3.948		1.076333589	1.538755307	0.037373130	0.385571689	0.118836939
2020-02-28T15:15:00	0.3930	3.939		1.080508337	1.546690650	0.037662937	0.388561577	0.119758452
2020-02-28T15:20:00	0.3884	3.933		1.066966906	1.521013317	0.036727578	0.378911652	0.116784251
2020-02-28T15:25:00	0.3903	3.931		1.072628113	1.531726272	0.037116976	0.382928999	0.118022437
2020-02-28T15:30:00	0.3918	3.922		1.077101577	1.540213812	0.037426346	0.386120714	0.119006154
2020-02-28T15:35:00	0.3916	3.910		1.076555736	1.539177133	0.037388519	0.385730453	0.118885872
2020-02-28T15:40:00	0.3939	3.908		1.083088554	1.551603671	0.037842697	0.390416132	0.120330044
2020-02-28T15:45:00	0.3890	3.910		1.068668262	1.524229573	0.036844356	0.380116426	0.117155574
2020-02-28T15:50:00	0.3869	3.908		1.062498760	1.512580180	0.036421906	0.375758089	0.115812292
2020-02-28T15:55:00	0.3913	3.904		1.075552725	1.537272941	0.037319066	0.385013920	0.118665029
2020-02-28T16:00:00	0.3909	3.901		1.074416130	1.535116338	0.037240452	0.384202883	0.118415060
2020-02-28T16:05:00	0.3908	3.896		1.074102324	1.534521138	0.037218765	0.383979134	0.118346098
2020-02-28T16:10:00	0.3942	3.889		1.084113074	1.553556286	0.037914211	0.391153925	0.120557439
2020-02-28T16:15:00	0.3925	3.882		1.079082891	1.543979246	0.037563839	0.387539203	0.119443346
2020-02-28T16:20:00	0.3924	3.874		1.078769425	1.543383256	0.037542067	0.387314583	0.119374116
2020-02-28T16:25:00	0.3947	3.864		1.085530655	1.556259729	0.038013289	0.392176097	0.120872482
2020-02-28T16:30:00	0.3962	3.851		1.089928051	1.564658498	0.038321582	0.395356693	0.121852772
2020-02-28T16:35:00	0.3929	3.837		1.080188762	1.546082598	0.037640707	0.388332233	0.119687766
2020-02-28T16:40:00	0.3997	3.822		1.100177460	1.584308205	0.039045724	0.402827532	0.124155358
2020-02-28T16:45:00	0.3999	3.809		1.100746128	1.585401465	0.039086130	0.403244400	0.124283840
2020-02-28T16:50:00	0.3998	3.796		1.100434226	1.584801796	0.039063965	0.403015726	0.124213361
2020-02-28T16:55:00	0.4038	3.782		1.112141251	1.607375860	0.039900902	0.411650253	0.126874606
2020-02-28T17:00:00	0.3990	3.767		1.098342254	1.580782216	0.038915488	0.401483913	0.123741241
2020-02-28T17:05:00	0.4033	3.751		1.110933444	1.605040633	0.039814081	0.410754539	0.126598538
2020-02-28T17:10:00	0.4022	3.735		1.107692849	1.598782263	0.039581678	0.408356872	0.125859554
2020-02-28T17:15:00	0.4088	3.717		1.126972653	1.636169511	0.040975965	0.422741476	0.130293028
2020-02-28T17:20:00	0.4015	3.698		1.105604359	1.594754391	0.039432315	0.406815927	0.125384620
2020-02-28T17:25:00	0.4072	3.679		1.122265509	1.627007414	0.040632972	0.419202877	0.129202398
2020-02-28T17:30:00	0.4030	3.661		1.109963163	1.603165697	0.039744414	0.410035792	0.126377013
2020-02-28T17:35:00	0.4086	3.641		1.126315998	1.634890060	0.040928016	0.422246800	0.130140565
2020-02-28T17:40:00	0.4092	3.620		1.128048172	1.638266019	0.041054569	0.423552419	0.130542969
2020-02-28T17:45:00	0.4099	3.597		1.130071225	1.642212673	0.041202660	0.425080245	0.131013860
2020-02-28T17:50:00	0.4096	3.576		1.129178223	1.640470067	0.041137252	0.424405450	0.130805881
2020-02-28T17:55:00	0.4107	3.557		1.132366506	1.646695335	0.041371053	0.426817526	0.131549307
2020-02-28T18:00:00	0.4129	3.536		1.138754403	1.659198474	0.041841800	0.431674139	0.133046162
2020-02-28T18:05:00	0.4106	3.516		1.132038592	1.646054601	0.041346971	0.426569079	0.131472733
2020-02-28T18:10:00	0.4090	3.496		1.127355133	1.636914947	0.041003908	0.423029763	0.130381881
2020-02-28T18:15:00	0.4088	3.477		1.126753360	1.635742185	0.040959949	0.422576240	0.130242101
2020-02-28T18:20:00	0.4116	3.457		1.135188331	1.652213525	0.041578622	0.428958980	0.132209324
2020-02-28T18:25:00	0.4105	3.437		1.131965579	1.645911952	0.041341610	0.426513771	0.131455687
2020-02-28T18:30:00	0.4141	3.418		1.142426243	1.666403854	0.042113792	0.434480231	0.133911027
2020-02-28T18:35:00	0.4107	3.401		1.132511889	1.646979444	0.041381732	0.426927704	0.131583265
2020-02-28T18:40:00	0.4130	3.383		1.139190535	1.660053607	0.041874053	0.432006887	0.133148718
2020-02-28T18:45:00	0.4125	3.366		1.137717320	1.657165808	0.041765163	0.430883492	0.132802477
2020-02-28T18:50:00	0.4124	3.348		1.137408034	1.656559819	0.041742324	0.430647863	0.132729854
2020-02-28T18:55:00	0.4148	3.329		1.144369925	1.670223461	0.042258185	0.435969910	0.134370160
2020-02-28T19:00:00	0.4102	3.312		1.130963418	1.643954495	0.041268068	0.425755051	0.131221842
2020-02-28T19:05:00	0.4165	3.294		1.149271183	1.679871884	0.042623569	0.439739507	0.135531987
2020-02-28T19:10:00	0.4151	3.279		1.145187073	1.671830397	0.042318976	0.436597074	0.134563458
2020-02-28T19:15:00	0.4095	3.263		1.128867711	1.639864319	0.041114523	0.424170957	0.130733608
2020-02-28T19:20:00	0.4085	3.247		1.125932172	1.634142397	0.040900005	0.421957809	0.130051495
2020-02-28T19:25:00	0.4128	3.233		1.138444563	1.658591079	0.041818895	0.431437836	0.132973331
2020-02-28T19:30:00	0.4049	3.218		1.115377294	1.613639691	0.040134058	0.414055679	0.127615982
2020-02-28T19:35:00	0.4080	3.202		1.124417957	1.631194257	0.040789606	0.420818843	0.129700454
2020-02-28T19:40:00	0.4043	3.187		1.113877763	1.610735841	0.040025920	0.412940035	0.127272129
2020-02-28T19:45:00	0.4081	3.172		1.124965202	1.632259468	0.040829485	0.421230265	0.129827259
2020-02-28T19:50:00	0.4098	3.156		1.129906244	1.641890670	0.041190571	0.424955531	0.130975422
2020-02-28T19:55:00	0.4113	3.141		1.134259249	1.650395793	0.041510214	0.428253223	0.131991802
2020-02-28T20:00:00	0.4109	3.124		1.133075753	1.648081549	0.041423167	0.427355181	0.131715017
2020-02-28T20:05:00	0.4145	3.109		1.143533796	1.668579888	0.042196036	0.435328720	0.134172539
2020-02-28T20:10:00	0.4138	3.095		1.141480465	1.664546633	0.042043636	0.433756438	0.133687947
2020-02-28T20:15:00	0.4075	3.080		1.123103787	1.628637446	0.040693932	0.419831792	0.129396236
2020-02-28T20:20:00	0.4153	3.066		1.145803915	1.673043870	0.042364899	0.437070850	0.134709481
2020-02-28T20:25:00	0.4136	3.052		1.140844179	1.663297664	0.041996475	0.433269891	0.133537988
2020-02-28T20:30:00	0.4132	3.042		1.139662442	1.660979098	0.041908968	0.432367097	0.133259738
2020-02-28T20:35:00	0.4129	3.031		1.138771376	1.659231749	0.041843055	0.431687085	0.133050152
2020-02-28T20:40:00	0.4091	3.019		1.127682139	1.637552384	0.041027808	0.423276329	0.130457875
2020-02-28T20:45:00	0.4126	3.010		1.137861902	1.657449120	0.041775843	0.430993667	0.132836434
2020-02-28T20:50:00	0.4102	3.003		1.130853245	1.643739362	0.041259988	0.425671689	0.131196149
2020-02-28T20:55:00	0.4081	2.996		1.124709243	1.631761208	0.040810829	0.421037805	0.129767940
2020-02-28T21:00:00	0.4065	2.987		1.120310186	1.623207998	0.040490985	0.417738025	0.128750916
2020-02-28T21:05:00	0.4089	2.982		1.127299060	1.636805655	0.040999811	0.422987492	0.130368853
2020-02-28T21:10:00	0.4104	2.977		1.131654636	1.645304499	0.041318784	0.426278277	0.131383105
2020-02-28T21:15:00	0.4082	2.969		1.125219890	1.632755319	0.040848052	0.421421821	0.129886298
2020-02-28T21:20:00	0.4090	2.962		1.127535969	1.637267440	0.041017124	0.423166105	0.130423903
2020-02-28T21:25:00	0.4110	2.959		1.133348220	1.648614216	0.041443198	0.427561833	0.131778709
2020-02-28T21:30:00	0.4079	2.953		1.124289335	1.630943938	0.040780236	0.420722178	0.129670661
2020-02-28T21:35:00	0.4074	2.951		1.122811137	1.628068309	0.040672644	0.419612170	0.129328546
2020-02-28T21:40:00	0.4064	2.946		1.119871554	1.622356207	0.040459173	0.417409826	0.128649762
2020-02-28T21:45:00	0.4094	2.941		1.128611351	1.639364283	0.041095763	0.423977416	0.130673957
2020-02-28T21:50:00	0.4088	2.938		1.126842850	1.635916564	0.040966484	0.422643665	0.130262882
2020-02-28T21:55:00	0.4059	2.932		1.118355249	1.619413129	0.040349314	0.416276430	0.128300439
2020-02-28T22:00:00	0.4049	2.927		1.115412679	1.613708241	0.040136612	0.414082027	0.127624102
2020-02-28T22:05:00	0.4082	2.924		1.125029239	1.632384135	0.040834153	0.421278424	0.129842102
2020-02-28T22:10:00	0.4086	2.920		1.126170509	1.634606643	0.040917397	0.422137245	0.130106799
2020-02-28T22:15:00	0.4080	2.915		1.124685108	1.631714228	0.040809071	0.421019659	0.129762348
2020-02-28T22:20:00	0.4067	2.911		1.120862542	1.624280905	0.040531065	0.418151528	0.128878362
2020-02-28T22:25:00	0.4057	2.908		1.117913806	1.618556735	0.040317363	0.415946798	0.128198843
2020-02-28T22:30:00	0.4045	2.906		1.114377940	1.611704189	0.040061971	0.413311971	0.127386764
2020-02-28T22:35:00	0.4035	2.900		1.111424837	1.605990541	0.039849391	0.411118822	0.126710814
2020-02-28T22:40:00	0.4056	2.892		1.117542955	1.617837440	0.040290532	0.415669996	0.128113530
2020-02-28T22:45:00	0.4052	2.891		1.116347105	1.615518921	0.040204086	0.414778141	0.127838651
2020-02-28T22:50:00	0.4062	2.890		1.119244591	1.621139023	0.040413727	0.416940972	0.128505257
2020-02-28T22:55:00	0.4039	2.890		1.112491075	1.608052495	0.039926069	0.411909895	0.126954630
2020-02-28T23:00:00	0.4043	2.889		1.113635609	1.610267116	0.040008473	0.412760037	0.127216652
2020-02-28T23:05:00	0.4068	2.887		1.120919425	1.624391413	0.040535194	0.418194125	0.128891491
2020-02-28T23:10:00	0.4056	2.884		1.117678364	1.618100062	0.040300328	0.415771053	0.128144676
2020-02-28T23:15:00	0.4065	2.880		1.120282783	1.623154778	0.040488997	0.417717517	0.128744595
2020-02-28T23:20:00	0.4024	2.877		1.108260007	1.599876832	0.039622295	0.408775918	0.125988708
2020-02-28T23:25:00	0.4073	2.874		1.122567490	1.627594536	0.040654926	0.419429374	0.129272207
2020-02-28T23:30:00	0.4025	2.874		1.108500568	1.600341191	0.039639531	0.408953732	0.126043512
2020-02-28T23:35:00	0.4099	2.869		1.130102001	1.642272744	0.041204915	0.425103512	0.131021031
2020-02-28T23:40:00	0.4036	2.866		1.111669834	1.606464230	0.039867002	0.411300514	0.126766813
2020-02-28T23:45:00	0.4126	2.862		1.137914709	1.657552604	0.041779743	0.431033912	0.132848838
2020-02-28T23:50:00	0.4086	2.860		1.126231918	1.634726267	0.040921879	0.422183485	0.130121050
2020-02-28T23:55:00	0.4131	2.860		1.139317570	1.660302723	0.041883450	0.432103837	0.133178599
2020-02-29T00:00:00	0.4068	2.859		1.120924025	1.624400348	0.040535528	0.418197570	0.128892552
2020-02-29T00:05:00	0.4139	2.857		1.141883230	1.665337433	0.042073504	0.434064584	0.133782921
2020-02-29T00:10:00	0.4100	2.857		1.130502469	1.643054489	0.041234268	0.425406337	0.131114365
2020-02-29T00:15:00	0.4096	2.858		1.129310137	1.640727435	0.041146911	0.424505091	0.130836592
2020-02-29T00:20:00	0.4139	2.858		1.141805177	1.665184168	0.042067715	0.434004858	0.133764512
2020-02-29T00:25:00	0.4155	2.859		1.146429193	1.674274327	0.042411479	0.437551410	0.134857594
2020-02-29T00:30:00	0.4130	2.863		1.139135337	1.659945369	0.041869970	0.431964765	0.133135736
2020-02-29T00:35:00	0.4132	2.859		1.139691174	1.661035454	0.041911094	0.432389034	0.133266500
2020-02-29T00:40:00	0.4130	2.858		1.139083269	1.659843271	0.041866119	0.431925034	0.133123490
2020-02-29T00:45:00	0.4127	2.860		1.138184275	1.658080899	0.041799660	0.431239383	0.132912166
2020-02-29T00:50:00	0.4161	2.859		1.148041795	1.677449502	0.042531748	0.438792201	0.135240018
2020-02-29T00:55:00	0.4152	2.860		1.145401702	1.672252580	0.042334951	0.436761890	0.134614256
2020-02-29T01:00:00	0.4167	2.859		1.150021979	1.681351996	0.042679702	0.440318618	0.135710475
2020-02-29T01:05:00	0.4156	2.857		1.146802198	1.675008535	0.042439280	0.437838232	0.134945995
2020-02-29T01:10:00	0.4162	2.854		1.148518582	1.678388783	0.042567345	0.439159449	0.135353207
2020-02-29T01:15:00	0.4127	2.852		1.138319052	1.658345061	0.041809619	0.431342135	0.132943835
2020-02-29T01:20:00	0.4126	2.850		1.138001995	1.657723659	0.041786192	0.431100437	0.132869342
2020-02-29T01:25:00	0.4107	2.848		1.132442944	1.646844708	0.041376668	0.426875452	0.131567160
2020-02-29T01:30:00	0.4073	2.850		1.122498290	1.627459987	0.040649894	0.419377465	0.129256208
2020-02-29T01:35:00	0.4108	2.854		1.132682184	1.647312263	0.041394244	0.427056782	0.131623048
2020-02-29T01:40:00	0.4100	2.853		1.130324462	1.642706986	0.041221219	0.425271717	0.131072873
2020-02-29T01:45:00	0.4112	2.857		1.133795411	1.649488623	0.041476086	0.427901130	0.131883284
2020-02-29T01:50:00	0.4083	2.856		1.125313378	1.632937345	0.040854869	0.421492148	0.129907973
2020-02-29T01:55:00	0.4105	2.858		1.131703656	1.645400256	0.041322382	0.426315397	0.131394546
2020-02-29T02:00:00	0.4093	2.860		1.128470530	1.639089636	0.041085461	0.423871123	0.130641197
2020-02-29T02:05:00	0.4145	2.858		1.143584660	1.668679851	0.042199815	0.435367709	0.134184556
2020-02-29T02:10:00	0.4104	2.860		1.131625422	1.645247432	0.041316640	0.426256156	0.131376287
2020-02-29T02:15:00	0.4094	2.864		1.128683890	1.639505766	0.041101071	0.424032175	0.130690834
2020-02-29T02:20:00	0.4096	2.862		1.129241043	1.640592628	0.041141852	0.424452899	0.130820506
2020-02-29T02:25:00	0.4092	2.862		1.128048370	1.638266406	0.041054583	0.423552568	0.130543015
2020-02-29T02:30:00	0.4034	2.854		1.111071877	1.605308212	0.039824027	0.410857144	0.126630162
2020-02-29T02:35:00	0.4027	2.848		1.108995487	1.601296722	0.039675004	0.409319699	0.126156306
2020-02-29T02:40:00	0.4027	2.847		1.108969274	1.601246107	0.039673124	0.409300311	0.126150331
2020-02-29T02:45:00	0.4012	2.840		1.104546503	1.592715851	0.039356785	0.406036695	0.125144453
2020-02-29T02:50:00	0.4023	2.833		1.107744858	1.598882623	0.039585401	0.408395289	0.125871394
2020-02-29T02:55:00	0.4038	2.825		1.112404741	1.607885494	0.039919857	0.411845808	0.126934878
2020-02-29T03:00:00	0.4029	2.820		1.109743218	1.602740812	0.039728631	0.409872966	0.126326829
2020-02-29T03:05:00	0.4013	2.805		1.105028022	1.593643624	0.039391155	0.406391282	0.125253740
2020-02-29T03:10:00	0.4050	2.782		1.115837512	1.614531352	0.040167281	0.414398429	0.127721620
2020-02-29T03:15:00	0.4044	2.757		1.114056007	1.611080894	0.040038765	0.413072557	0.127312974
2020-02-29T03:20:00	0.4034	2.729		1.111102687	1.605367768	0.039826241	0.410879982	0.126637201
2020-02-29T03:25:00	0.4004	2.708		1.102283239	1.588358144	0.039195470	0.404372440	0.124631513
2020-02-29T03:30:00	0.3980	2.689		1.095209547	1.574771011	0.038693754	0.399196328	0.123036185
2020-02-29T03:35:00	0.4009	2.686		1.103697522	1.591080623	0.039296229	0.405411948	0.124951900
2020-02-29T03:40:00	0.4017	2.685		1.106017130	1.595550121	0.039461809	0.407120214	0.125478404
2020-02-29T03:45:00	0.4005	2.679		1.102471626	1.588720673	0.039208883	0.404510817	0.124674162
2020-02-29T03:50:00	0.3999	2.673		1.100978162	1.585847640	0.039102624	0.403414566	0.124336287
2020-02-29T03:55:00	0.4037	2.661		1.112090421	1.607277554	0.039897246	0.411612535	0.126862981
2020-02-29T04:00:00	0.4004	2.649		1.102392869	1.588569111	0.039203275	0.404452964	0.124656332
2020-02-29T04:05:00	0.4056	2.644		1.117439003	1.617635841	0.040283014	0.415592425	0.128089622
2020-02-29T04:10:00	0.4015	2.640		1.105543425	1.594636938	0.039427962	0.406771018	0.125370778
2020-02-29T04:15:00	0.4046	2.636		1.114731264	1.612388377	0.040087449	0.413574822	0.127467777
2020-02-29T04:20:00	0.4020	2.636		1.106933514	1.597317306	0.039527335	0.407796224	0.125686757
2020-02-29T04:25:00	0.4051	2.636		1.116118436	1.615075740	0.040187568	0.414607729	0.127786129
2020-02-29T04:30:00	0.4045	2.632		1.114471792	1.611885913	0.040068738	0.413381781	0.127408280
2020-02-29T04:35:00	0.4123	2.629		1.137051415	1.655861208	0.041715998	0.430376266	0.132646145
2020-02-29T04:40:00	0.4045	2.624		1.114396333	1.611739802	0.040063297	0.413325652	0.127390980
2020-02-29T04:45:00	0.4089	2.623		1.127068020	1.636355363	0.040982931	0.422813346	0.130315180
2020-02-29T04:50:00	0.4069	2.622		1.121337571	1.625203851	0.040565553	0.418507332	0.128988024
2020-02-29T04:55:00	0.4043	2.624		1.113844222	1.610670913	0.040023503	0.412915101	0.127264444
2020-02-29T05:00:00	0.4038	2.624		1.112196722	1.607483145	0.039904892	0.411691418	0.126887293
2020-02-29T05:05:00	0.4027	2.626		1.109084112	1.601467854	0.039681358	0.409385252	0.126176511
2020-02-29T05:10:00	0.4063	2.629		1.119725951	1.622073500	0.040448616	0.417300915	0.128616195
2020-02-29T05:15:00	0.4000	2.628		1.101091681	1.586065944	0.039110695	0.403497833	0.124361951
2020-02-29T05:20:00	0.4041	2.622		1.113216562	1.609456130	0.039978291	0.412448658	0.127120682
2020-02-29T05:25:00	0.4017	2.620		1.106002454	1.595521826	0.039460761	0.407109392	0.125475069
2020-02-29T05:30:00	0.4014	2.620		1.105231700	1.594036132	0.039405698	0.406541322	0.125299984
2020-02-29T05:35:00	0.4019	2.625		1.106806237	1.597071811	0.039518230	0.407702294	0.125657807
2020-02-29T05:40:00	0.3945	2.627		1.084877343	1.555013564	0.037967609	0.391704824	0.120727231
2020-02-29T05:45:00	0.4035	2.627		1.111417807	1.605976949	0.039848886	0.411113609	0.126709207
2020-02-29T05:50:00	0.3965	2.629		1.090983306	1.566676804	0.038395777	0.396122151	0.122088694
2020-02-29T05:55:00	0.4024	2.632		1.108120357	1.599607288	0.039612292	0.408672714	0.125956899
2020-02-29T06:00:00	0.4032	2.633		1.110572483	1.604343016	0.039788156	0.410487068	0.126516101
2020-02-29T06:05:00	0.4016	2.634		1.105700026	1.594938801	0.039439150	0.406886439	0.125406352
2020-02-29T06:10:00	0.4095	2.638		1.128907942	1.639942797	0.041117468	0.424201335	0.130742971
2020-02-29T06:15:00	0.4019	2.642		1.106796975	1.597053947	0.039517567	0.407695459	0.125655700
2020-02-29T06:20:00	0.4064	2.645		1.119782849	1.622183972	0.040452741	0.417343473	0.128629312
2020-02-29T06:25:00	0.4070	2.646		1.121644281	1.625799885	0.040587830	0.418737155	0.129058858
2020-02-29T06:30:00	0.4063	2.650		1.119707481	1.622037640	0.040447277	0.417287101	0.128611937
2020-02-29T06:35:00	0.4054	2.651		1.116892640	1.616576432	0.040243509	0.415184860	0.127964006
2020-02-29T06:40:00	0.4066	2.654		1.120508752	1.623593662	0.040505391	0.417886648	0.128796723
2020-02-29T06:45:00	0.4080	2.655		1.124413824	1.631186213	0.040789305	0.420815736	0.129699497
2020-02-29T06:50:00	0.4132	2.658		1.139675787	1.661005272	0.041909956	0.432377285	0.133262879
2020-02-29T06:55:00	0.4070	2.661		1.121710384	1.625928357	0.040592632	0.418786697	0.129074127
2020-02-29T07:00:00	0.4106	2.665		1.132030307	1.646038414	0.041346363	0.426562803	0.131470798
2020-02-29T07:05:00	0.4058	2.667		1.118128341	1.618972906	0.040332889	0.416106976	0.128248211
2020-02-29T07:10:00	0.4094	2.671		1.128748303	1.639631402	0.041105785	0.424080802	0.130705822
2020-02-29T07:15:00	0.4081	2.675		1.124771796	1.631882970	0.040815388	0.421084835	0.129782436
2020-02-29T07:20:00	0.4098	2.680		1.129839504	1.641760417	0.041185682	0.424905086	0.130959874
2020-02-29T07:25:00	0.4130	2.687		1.139267712	1.660204950	0.041879762	0.432065785	0.133166871
2020-02-29T07:30:00	0.4144	2.695		1.143156236	1.667837949	0.042167989	0.435039365	0.134083357
2020-02-29T07:35:00	0.4158	2.701		1.147331781	1.676051182	0.042478770	0.438245640	0.135071563
2020-02-29T07:40:00	0.4152	2.708		1.145406210	1.672261449	0.042335287	0.436765352	0.134615323
2020-02-29T07:45:00	0.4093	2.711		1.128339218	1.638833554	0.041075855	0.423772023	0.130610653
2020-02-29T07:50:00	0.4127	2.717		1.138352671	1.658410958	0.041812104	0.431367768	0.132951736
2020-02-29T07:55:00	0.4165	2.727		1.149214499	1.679760161	0.042619333	0.439695803	0.135518517
2020-02-29T08:00:00	0.4111	2.739		1.133619021	1.649143699	0.041463112	0.427767279	0.131842030
2020-02-29T08:05:00	0.4169	2.752		1.150590886	1.682473906	0.042722265	0.440757728	0.135845812
2020-02-29T08:10:00	0.4162	2.766		1.148376387	1.678108631	0.042556727	0.439049903	0.135319444
2020-02-29T08:15:00	0.4179	2.776		1.153417181	1.688052301	0.042934079	0.442942978	0.136519328
2020-02-29T08:20:00	0.4181	2.783		1.153814794	1.688837732	0.042963927	0.443250912	0.136614236
2020-02-29T08:25:00	0.4156	2.794		1.146666824	1.674742054	0.042429189	0.437734123	0.134913908
2020-02-29T08:30:00	0.4187	2.808		1.155769532	1.692701353	0.043110839	0.444766581	0.137081380
2020-02-29T08:35:00	0.4151	2.825		1.145139354	1.671736539	0.042315425	0.436560435	0.134552166
2020-02-29T08:40:00	0.4143	2.841		1.142922137	1.667377997	0.042150604	0.434860013	0.134028079
2020-02-29T08:45:00	0.4169	2.857		1.150581715	1.682455819	0.042721578	0.440750648	0.135843630
2020-02-29T08:50:00	0.4157	2.868		1.146915232	1.675231054	0.042447707	0.437925170	0.134972791
2020-02-29T08:55:00	0.4146	2.880		1.143827052	1.669156259	0.042217827	0.435553542	0.134241832
2020-02-29T09:00:00	0.4114	2.890		1.134333445	1.650540923	0.041515674	0.428309559	0.132009166
2020-02-29T09:05:00	0.4136	2.905		1.140844640	1.663298569	0.041996509	0.433270244	0.133538097
2020-02-29T09:10:00	0.4112	2.924		1.133967042	1.649824273	0.041488712	0.428031393	0.131923432
2020-02-29T09:15:00	0.4133	2.944		1.139897009	1.661439207	0.041926329	0.432546208	0.133314942
2020-02-29T09:20:00	0.4124	2.965		1.137386111	1.656516868	0.041740705	0.430631163	0.132724707
2020-02-29T09:25:00	0.4166	2.986		1.149701845	1.680720818	0.042655762	0.440071635	0.135634352
2020-02-29T09:30:00	0.4158	3.021		1.147196489	1.675784790	0.042468680	0.438141539	0.135039477
2020-02-29T09:35:00	0.4157	3.052		1.147013822	1.675425148	0.042455058	0.438001007	0.134996164
2020-02-29T09:40:00	0.4178	3.066		1.153216439	1.687655823	0.042919014	0.442787560	0.136471426
2020-02-29T09:45:00	0.4166	3.079		1.149552126	1.680425666	0.042644569	0.439956155	0.135598760
2020-02-29T09:50:00	0.4170	3.104		1.150820735	1.682927272	0.042739468	0.440935209	0.135900514
2020-02-29T09:55:00	0.4164	3.135		1.148896674	1.679133793	0.042595585	0.439450803	0.135443005
2020-02-29T10:00:00	0.4155	3.164		1.146390864	1.674198890	0.042408623	0.437521943	0.134848512
2020-02-29T10:05:00	0.4119	3.193		1.136031972	1.653864839	0.041640796	0.429600418	0.132407021
2020-02-29T10:10:00	0.4129	3.222		1.138762181	1.659213722	0.041842375	0.431680071	0.133047990
2020-02-29T10:15:00	0.4095	3.245		1.128968685	1.640061289	0.041121914	0.424247202	0.130757108
2020-02-29T10:20:00	0.4063	3.272		1.119445655	1.621529326	0.040428298	0.417091299	0.128551589
2020-02-29T10:25:00	0.4081	3.301		1.124814016	1.631965154	0.040818465	0.421116579	0.129792219
2020-02-29T10:30:00	0.4112	3.331		1.133964271	1.649818853	0.041488508	0.428029289	0.131922784
2020-02-29T10:35:00	0.4151	3.358		1.145130008	1.671718155	0.042314729	0.436553259	0.134549954
2020-02-29T10:40:00	0.4142	3.387		1.142624673	1.666793624	0.042128520	0.434632176	0.133957858
2020-02-29T10:45:00	0.4127	3.415		1.138372249	1.658449334	0.041813551	0.431382696	0.132956336
2020-02-29T10:50:00	0.4135	3.445		1.140519330	1.662660173	0.041972410	0.433021613	0.133461466
2020-02-29T10:55:00	0.4083	3.487		1.125479489	1.633260796	0.040866982	0.421617122	0.129946492
2020-02-29T11:00:00	0.4056	3.537		1.117411085	1.617581701	0.040280994	0.415571594	0.128083201
2020-02-29T11:05:00	0.4050	3.589		1.115767543	1.614395776	0.040162229	0.414346308	0.127705556
2020-02-29T11:10:00	0.4051	3.634		1.116171174	1.615177946	0.040191377	0.414647027	0.127798241
2020-02-29T11:15:00	0.4100	3.678		1.130298277	1.642655871	0.041219300	0.425251916	0.131066771
2020-02-29T11:20:00	0.4131	3.714		1.139437188	1.660537308	0.041892300	0.432195137	0.133206739
2020-02-29T11:25:00	0.4123	3.744		1.137219722	1.656190904	0.041728422	0.430504434	0.132685648
2020-02-29T11:30:00	0.4118	3.775		1.135583556	1.652987037	0.041607742	0.429259409	0.132301919
2020-02-29T11:35:00	0.4092	3.805		1.128117053	1.638400329	0.041059606	0.423604386	0.130558986
2020-02-29T11:40:00	0.4118	3.842		1.135513670	1.652850247	0.041602592	0.429206276	0.132285543
2020-02-29T11:45:00	0.4140	3.886		1.142025733	1.665617265	0.042084075	0.434173640	0.133816532
2020-02-29T11:50:00	0.4101	3.931		1.130782194	1.643600629	0.041254777	0.425617933	0.131179581
2020-02-29T11:55:00	0.4101	3.957		1.130601458	1.643247748	0.041241525	0.425481210	0.131137441
2020-02-29T12:00:00	0.4144	3.974		1.143229327	1.667981569	0.042173417	0.435095372	0.134100619
2020-02-29T12:05:00	0.4115	3.987		1.134902123	1.651653472	0.041557542	0.428741496	0.132142293
2020-02-29T12:10:00	0.4104	4.008		1.131516718	1.645035096	0.041308662	0.426173849	0.131350919
2020-02-29T12:15:00	0.4118	4.038		1.135705847	1.653226409	0.041616755	0.429352392	0.132330577
2020-02-29T12:20:00	0.4077	4.077		1.123570339	1.629544960	0.040727883	0.420182057	0.129504191
2020-02-29T12:25:00	0.4103	4.120		1.131266058	1.644545517	0.041290269	0.425984092	0.131292434
2020-02-29T12:30:00	0.4061	4.159		1.119118300	1.620893891	0.040404576	0.416846567	0.128476160
2020-02-29T12:35:00	0.4111	4.193		1.133527293	1.648964340	0.041456366	0.427697682	0.131820579
2020-02-29T12:40:00	0.4094	4.221		1.128682866	1.639503769	0.041100996	0.424031402	0.130690596
2020-02-29T12:45:00	0.4100	4.245		1.130251619	1.642564793	0.041215880	0.425216636	0.131055897
2020-02-29T12:50:00	0.4092	4.273		1.128029539	1.638229688	0.041053206	0.423538362	0.130538636
2020-02-29T12:55:00	0.4110	4.302		1.133387454	1.648690923	0.041446083	0.427591595	0.131787882
2020-02-29T13:00:00	0.4096	4.317		1.129126137	1.640368450	0.041133439	0.424366110	0.130793756
2020-02-29T13:05:00	0.4123	4.319		1.137103276	1.655962795	0.041719826	0.430415756	0.132658316
2020-02-29T13:10:00	0.4169	4.327		1.150583359	1.682459060	0.042721701	0.440751917	0.135844021
2020-02-29T13:15:00	0.4071	4.328		1.121870676	1.626239903	0.040604277	0.418906844	0.129111158
2020-02-29T13:20:00	0.4131	4.346		1.139472084	1.660605746	0.041894882	0.432221774	0.133214948
2020-02-29T13:25:00	0.4087	4.366		1.126471661	1.635193321	0.040939380	0.422364035	0.130176698
2020-02-29T13:30:00	0.4087	4.384		1.126582538	1.635409346	0.040947475	0.422447552	0.130202438
2020-02-29T13:35:00	0.4101	4.387		1.130776350	1.643589218	0.041254349	0.425613512	0.131178218
2020-02-29T13:40:00	0.4114	4.395		1.134383688	1.650639205	0.041519372	0.428347711	0.132020924
2020-02-29T13:45:00	0.4143	4.406		1.142932806	1.667398957	0.042151396	0.434868186	0.134030598
2020-02-29T13:50:00	0.4133	4.409		1.140135352	1.661906780	0.041943974	0.432728248	0.133371049
2020-02-29T13:55:00	0.4152	4.411		1.145478640	1.672403930	0.042340679	0.436820979	0.134632468
2020-02-29T14:00:00	0.4145	4.418		1.143554866	1.668621296	0.042197601	0.435344871	0.134177517
2020-02-29T14:05:00	0.4118	4.432		1.135519474	1.652861609	0.041603020	0.429210689	0.132286903
2020-02-29T14:10:00	0.4147	4.447		1.144066402	1.669626747	0.042235618	0.435737088	0.134298402
2020-02-29T14:15:00	0.4122	4.462		1.136905323	1.655575055	0.041705217	0.430265033	0.132611862
2020-02-29T14:20:00	0.4112	4.473		1.133812766	1.649522562	0.041477362	0.427914301	0.131887343
2020-02-29T14:25:00	0.4108	4.485		1.132758122	1.647460682	0.041399824	0.427114348	0.131640790
2020-02-29T14:30:00	0.4062	4.486		1.119153357	1.620961936	0.040407116	0.416872772	0.128484237
2020-02-29T14:35:00	0.4068	4.487		1.121017670	1.624582282	0.040542326	0.418267702	0.128914168
2020-02-29T14:40:00	0.4144	4.491		1.143275816	1.668072918	0.042176870	0.435130997	0.134111599
2020-02-29T14:45:00	0.4031	4.494		1.110124482	1.603477360	0.039755992	0.410155240	0.126413828
2020-02-29T14:50:00	0.4094	4.498		1.128647852	1.639435475	0.041098434	0.424004969	0.130682449
2020-02-29T14:55:00	0.4073	4.503		1.122630041	1.627716160	0.040659474	0.419476298	0.129286669
2020-02-29T15:00:00	0.4038	4.512		1.112215124	1.607518736	0.039906216	0.411705074	0.126891502
2020-02-29T15:05:00	0.4050	4.528		1.115837711	1.614531738	0.040167295	0.414398577	0.127721666
2020-02-29T15:10:00	0.4028	4.539		1.109216465	1.601723439	0.039690848	0.409483162	0.126206687
2020-02-29T15:15:00	0.4064	4.543		1.119860598	1.622334934	0.040458378	0.417401631	0.128647236
2020-02-29T15:20:00	0.4061	4.548		1.119094895	1.620848463	0.040402881	0.416829073	0.128470768
2020-02-29T15:25:00	0.4104	4.552		1.131464230	1.644932574	0.041304810	0.426134110	0.131338671
2020-02-29T15:30:00	0.4124	4.556		1.137400155	1.656544383	0.041741742	0.430641861	0.132728004
2020-02-29T15:35:00	0.4093	4.561		1.128478689	1.639105549	0.041086058	0.423877282	0.130643095
2020-02-29T15:40:00	0.4111	4.566		1.133544748	1.648998469	0.041457649	0.427710925	0.131824661
2020-02-29T15:45:00	0.4126	4.567		1.138022992	1.657764809	0.041787743	0.431116441	0.132874274
2020-02-29T15:50:00	0.4125	4.565		1.137551504	1.656840911	0.041752918	0.430757156	0.132763539
2020-02-29T15:55:00	0.4118	4.560		1.135624287	1.653066762	0.041610744	0.429290377	0.132311464
2020-02-29T16:00:00	0.4143	4.555		1.143008370	1.667547419	0.042157007	0.434926075	0.134048440
2020-02-29T16:05:00	0.4141	4.549		1.142272689	1.666102259	0.042102397	0.434362670	0.133874793
2020-02-29T16:10:00	0.4162	4.544		1.148510493	1.678372844	0.042566741	0.439153216	0.135351286
2020-02-29T16:15:00	0.4149	4.536		1.144580315	1.670637133	0.042273832	0.436131335	0.134419913
2020-02-29T16:20:00	0.4143	4.529		1.142972876	1.667477683	0.042154372	0.434898883	0.134040059
2020-02-29T16:25:00	0.4148	4.523		1.144271968	1.670030871	0.042250902	0.435894762	0.134346999
2020-02-29T16:30:00	0.4141	4.517		1.142373686	1.666300626	0.042109892	0.434439992	0.133898625
2020-02-29T16:35:00	0.4139	4.513		1.141637900	1.664855726	0.042055309	0.433876873	0.133725066
2020-02-29T16:40:00	0.4138	4.505		1.141483626	1.664552841	0.042043870	0.433758857	0.133688692
2020-02-29T16:45:00	0.4160	4.497		1.147722538	1.676820686	0.042507922	0.438546392	0.135164257
2020-02-29T16:50:00	0.4067	4.489		1.120770714	1.624102514	0.040524400	0.418082767	0.128857169
2020-02-29T16:55:00	0.4094	4.479		1.128497419	1.639142078	0.041087428	0.423891419	0.130647452
2020-02-29T17:00:00	0.4111	4.468		1.133589523	1.649086020	0.041460942	0.427744898	0.131835132
2020-02-29T17:05:00	0.4078	4.460		1.124102612	1.630580574	0.040766636	0.420581870	0.129627417
2020-02-29T17:10:00	0.4101	4.452		1.130657588	1.643357336	0.041245640	0.425523668	0.131150527
2020-02-29T17:15:00	0.4076	4.444		1.123500857	1.629409793	0.040722825	0.420129883	0.129488110
2020-02-29T17:20:00	0.4039	4.437		1.112528804	1.608125479	0.039928784	0.411937903	0.126963263
2020-02-29T17:25:00	0.3980	4.430		1.095362260	1.575063821	0.038704546	0.399307668	0.123070501
2020-02-29T17:30:00	0.4037	4.422		1.111925460	1.606958535	0.039885383	0.411490139	0.126825257
2020-02-29T17:35:00	0.4029	4.414		1.109720294	1.602696530	0.039726987	0.409855997	0.126321599
2020-02-29T17:40:00	0.4056	4.405		1.117466456	1.617689082	0.040284999	0.415612911	0.128095935
2020-02-29T17:45:00	0.4011	4.395		1.104426929	1.592485496	0.039348253	0.405948670	0.125117323
2020-02-29T17:50:00	0.4010	4.386		1.103978065	1.591620900	0.039316233	0.405618332	0.125015509
2020-02-29T17:55:00	0.3973	4.377		1.093250827	1.571017432	0.038555487	0.397769848	0.122596530
2020-02-29T18:00:00	0.3991	4.365		1.098384064	1.580862509	0.038918452	0.401514494	0.123750667
2020-02-29T18:05:00	0.3980	4.353		1.095290497	1.574926221	0.038699475	0.399255345	0.123054375
2020-02-29T18:10:00	0.3932	4.341		1.081005021	1.547635883	0.037697502	0.388918179	0.119868360
2020-02-29T18:15:00	0.3973	4.331		1.093214929	1.570948674	0.038552955	0.397743731	0.122588481
2020-02-29T18:20:00	0.3990	4.320		1.098348207	1.580793650	0.038915910	0.401488267	0.123742583
2020-02-29T18:25:00	0.3957	4.310		1.088490141	1.561910081	0.038220615	0.394315038	0.121531724
2020-02-29T18:30:00	0.3955	4.301		1.088039628	1.561049389	0.038189012	0.393989001	0.121431236
2020-02-29T18:35:00	0.3858	4.294		1.059233720	1.506430107	0.036199466	0.373463214	0.115104990
2020-02-29T18:40:00	0.3843	4.286		1.054925480	1.498330967	0.035907149	0.370447432	0.114175496
2020-02-29T18:45:00	0.3862	4.275		1.060400854	1.508627341	0.036278890	0.374282624	0.115357540
2020-02-29T18:50:00	0.3932	4.267		1.081227862	1.548060049	0.037713016	0.389078232	0.119917690
2020-02-29T18:55:00	0.3919	4.259		1.077236782	1.540470642	0.037435719	0.386217416	0.119035959
2020-02-29T19:00:00	0.3939	4.253		1.083273204	1.551955515	0.037855581	0.390549046	0.120371009
2020-02-29T19:05:00	0.3892	4.246		1.069243503	1.525317652	0.036883887	0.380524264	0.117281274
2020-02-29T19:10:00	0.3968	4.236		1.091792900	1.568225997	0.038452756	0.396709991	0.122269872
2020-02-29T19:15:00	0.3888	4.227		1.068042668	1.523046615	0.036801391	0.379673171	0.117018959
2020-02-29T19:20:00	0.3861	4.217		1.060189413	1.508229186	0.036264494	0.374134101	0.115311764
2020-02-29T19:25:00	0.3883	4.208		1.066545666	1.520217440	0.036698698	0.378613701	0.116692420
2020-02-29T19:30:00	0.3879	4.198		1.065501067	1.518244556	0.036627136	0.377875415	0.116464873
2020-02-29T19:35:00	0.3888	4.189		1.068006559	1.522978347	0.036798912	0.379647596	0.117011076
2020-02-29T19:40:00	0.3896	4.181		1.070510588	1.527715512	0.036971049	0.381423498	0.117558426
2020-02-29T19:45:00	0.3907	4.175		1.073899251	1.534136018	0.037204734	0.383834380	0.118301484
2020-02-29T19:50:00	0.3905	4.168		1.073151836	1.532718922	0.037153119	0.383301877	0.118137361
2020-02-29T19:55:00	0.3905	4.163		1.073290510	1.532981806	0.037162692	0.383400645	0.118167802
2020-02-29T20:00:00	0.3929	4.158		1.080217253	1.546136805	0.037642688	0.388352677	0.119694067
2020-02-29T20:05:00	0.3910	4.154		1.074749110	1.535748012	0.037263473	0.384440385	0.118488260
2020-02-29T20:10:00	0.3973	4.154		1.093155519	1.570834885	0.038548766	0.397700513	0.122575160
2020-02-29T20:15:00	0.3947	4.153		1.085642511	1.556473131	0.038021113	0.392256818	0.120897361
2020-02-29T20:20:00	0.3937	4.152		1.082539831	1.550558294	0.037804427	0.390021307	0.120208355
2020-02-29T20:25:00	0.3958	4.148		1.088863172	1.562622896	0.038246794	0.394585118	0.121614966
2020-02-29T20:30:00	0.3952	4.146		1.086940735	1.558950826	0.038111991	0.393194383	0.121186328
2020-02-29T20:35:00	0.3922	4.144		1.078236928	1.542371045	0.037505098	0.386933184	0.119256565
2020-02-29T20:40:00	0.3952	4.144		1.086922759	1.558916508	0.038110732	0.393181393	0.121182324
2020-02-29T20:45:00	0.3995	4.143		1.099703219	1.583396726	0.039012045	0.402480075	0.124048268
2020-02-29T20:50:00	0.4013	4.141		1.104828851	1.593259842	0.039376936	0.406244592	0.125208529
2020-02-29T20:55:00	0.3978	4.137		1.094691587	1.573778054	0.038657163	0.398818826	0.122919835
2020-02-29T21:00:00	0.3976	4.137		1.093947760	1.572352562	0.038604651	0.398277067	0.122752860
2020-02-29T21:05:00	0.4011	4.138		1.104362125	1.592360659	0.039343629	0.405900968	0.125102620
2020-02-29T21:10:00	0.4010	4.140		1.104206539	1.592060958	0.039332529	0.405786456	0.125067327
2020-02-29T21:15:00	0.4044	4.143		1.114011264	1.610994276	0.040035540	0.413039289	0.127302720
2020-02-29T21:20:00	0.4022	4.147		1.107706524	1.598808650	0.039582657	0.408366972	0.125862667
2020-02-29T21:25:00	0.3990	4.148		1.098163367	1.580438699	0.038902806	0.401353082	0.123700918
2020-02-29T21:30:00	0.4087	4.153		1.126694966	1.635628404	0.040955684	0.422532246	0.130228542
2020-02-29T21:35:00	0.4059	4.153		1.118362633	1.619427454	0.040349848	0.416281945	0.128302138
2020-02-29T21:40:00	0.4088	4.154		1.126968918	1.636162234	0.040975692	0.422738662	0.130292161
2020-02-29T21:45:00	0.4104	4.159		1.131479910	1.644963201	0.041305961	0.426145981	0.131342330
2020-02-29T21:50:00	0.4086	4.166		1.126367556	1.634990502	0.040931780	0.422285628	0.130152532
2020-02-29T21:55:00	0.4112	4.163		1.133793167	1.649484236	0.041475921	0.427899427	0.131882759
2020-02-29T22:00:00	0.4003	4.166		1.102063571	1.587935463	0.039179834	0.404211121	0.124581793
2020-02-29T22:05:00	0.4012	4.172		1.104667270	1.592948518	0.039365403	0.406125610	0.125171857
2020-02-29T22:10:00	0.4071	4.172		1.121898367	1.626293726	0.040606289	0.418927602	0.129117556
2020-02-29T22:15:00	0.4062	4.171		1.119232607	1.621115763	0.040412859	0.416932014	0.128502496
2020-02-29T22:20:00	0.4087	4.172		1.126497174	1.635243028	0.040941243	0.422383252	0.130182620
2020-02-29T22:25:00	0.4079	4.170		1.124126155	1.630626388	0.040768351	0.420599559	0.129632869
2020-02-29T22:30:00	0.4094	4.168		1.128758708	1.639651698	0.041106546	0.424088658	0.130708243
2020-02-29T22:35:00	0.4125	4.162		1.137754208	1.657238088	0.041767888	0.430911600	0.132811140
2020-02-29T22:40:00	0.4089	4.159		1.127228117	1.636667383	0.040994627	0.422934015	0.130352371
2020-02-29T22:45:00	0.4103	4.155		1.131274509	1.644562022	0.041290889	0.425990489	0.131294406
2020-02-29T22:50:00	0.4052	4.151		1.116348198	1.615521040	0.040204165	0.414778956	0.127838903
2020-02-29T22:55:00	0.4114	4.146		1.134407474	1.650685733	0.041521123	0.428365773	0.132026491
2020-02-29T23:00:00	0.4141	4.145		1.142228660	1.666015787	0.042099130	0.434328965	0.133864405
2020-02-29T23:05:00	0.4090	4.145		1.127339438	1.636884356	0.041002761	0.423017931	0.130378235
2020-02-29T23:10:00	0.4116	4.145		1.135173125	1.652183769	0.041577502	0.428947424	0.132205762
2020-02-29T23:15:00	0.4128	4.143		1.138630318	1.658955212	0.041832626	0.431579495	0.133016992
2020-02-29T23:20:00	0.4102	4.140		1.131022152	1.644069188	0.041272376	0.425799496	0.131235540
2020-02-29T23:25:00	0.4091	4.136		1.127778548	1.637740335	0.041034855	0.423349038	0.130480285
2020-02-29T23:30:00	0.4084	4.130		1.125700068	1.633690349	0.040883071	0.421783109	0.129997651
2020-02-29T23:35:00	0.4117	4.123		1.135284246	1.652401231	0.041585688	0.429031878	0.132231792
2020-02-29T23:40:00	0.4112	4.116		1.133791946	1.649481848	0.041475831	0.427898501	0.131882474
2020-02-29T23:45:00	0.4144	4.112		1.143067932	1.667664445	0.042161431	0.434971707	0.134062505
2020-02-29T23:50:00	0.4136	4.109		1.140996630	1.663596874	0.042007772	0.433386436	0.133573909
2020-02-29T23:55:00	0.4081	4.104		1.124935845	1.632202316	0.040827345	0.421208188	0.129820454
2020-03-01T00:00:00	0.4135	4.100		1.140633842	1.662884882	0.041980892	0.433109123	0.133488438
2020-03-01T00:05:00	0.4159	4.097		1.147572949	1.676526088	0.042496761	0.438431244	0.135128768
2020-03-01T00:10:00	0.4182	4.094		1.154211288	1.689621110	0.042993702	0.443558103	0.136708915
2020-03-01T00:15:00	0.4171	4.088		1.150984610	1.683250540	0.042751735	0.441061773	0.135939522
2020-03-01T00:20:00	0.4160	4.083		1.147755593	1.676885787	0.042510388	0.438571838	0.135172100
2020-03-01T00:25:00	0.4223	4.079		1.165976879	1.712938875	0.043882746	0.452730205	0.139535846
2020-03-01T00:30:00	0.4187	4.080		1.155807354	1.692776147	0.043113685	0.444795937	0.137090428
2020-03-01T00:35:00	0.4163	4.077		1.148809273	1.678961562	0.042589056	0.439383443	0.135422244
2020-03-01T00:40:00	0.4218	4.070		1.164712566	1.710426517	0.043786702	0.451739334	0.139230450
2020-03-01T00:45:00	0.4222	4.062		1.165833797	1.712654471	0.043871871	0.452618004	0.139501265
2020-03-01T00:50:00	0.4219	4.056		1.164930288	1.710859045	0.043803233	0.451909877	0.139283013
2020-03-01T00:55:00	0.4233	4.049		1.168942547	1.718838360	0.044108517	0.455059439	0.140253739
2020-03-01T01:00:00	0.4222	4.043		1.165726482	1.712441176	0.043863715	0.452533862	0.139475331
2020-03-01T01:05:00	0.4177	4.034		1.152656640	1.686550398	0.042877021	0.442354320	0.136337898
2020-03-01T01:10:00	0.4166	4.023		1.149719105	1.680754845	0.042657053	0.440084949	0.135638455
2020-03-01T01:15:00	0.4209	4.011		1.162147069	1.705333469	0.043592190	0.449732585	0.138611950
2020-03-01T01:20:00	0.4159	4.001		1.147614985	1.676608870	0.042499897	0.438463600	0.135138740
2020-03-01T01:25:00	0.4213	3.991		1.163233150	1.707488760	0.043674473	0.450581489	0.138873591
2020-03-01T01:30:00	0.4223	3.981		1.166090280	1.713164297	0.043891367	0.452819142	0.139563257
2020-03-01T01:35:00	0.4183	3.972		1.154471493	1.690135298	0.043013250	0.443759769	0.136771070
2020-03-01T01:40:00	0.4180	3.962		1.153565686	1.688345635	0.042945225	0.443057974	0.136554771
2020-03-01T01:45:00	0.4170	3.953		1.150628751	1.682548590	0.042725098	0.440786963	0.135854823
2020-03-01T01:50:00	0.4183	3.943		1.154653854	1.690495700	0.043026952	0.443901135	0.136814641
2020-03-01T01:55:00	0.4195	3.932		1.158095936	1.697304580	0.043286066	0.446574362	0.137638556
2020-03-01T02:00:00	0.4137	3.921		1.141224703	1.664044548	0.042024675	0.433560828	0.133627658
2020-03-01T02:05:00	0.4160	3.910		1.147872516	1.677116074	0.042519114	0.438661856	0.135199844
2020-03-01T02:10:00	0.4147	3.899		1.144060016	1.669614194	0.042235144	0.435732190	0.134296893
2020-03-01T02:15:00	0.4153	3.888		1.145767522	1.672972267	0.042362188	0.437042889	0.134700863
2020-03-01T02:20:00	0.4156	3.876		1.146603066	1.674616555	0.042424437	0.437685096	0.134898797
2020-03-01T02:25:00	0.4198	3.865		1.158750037	1.698599820	0.043335408	0.447083415	0.137795451
2020-03-01T02:30:00	0.4179	3.855		1.153497002	1.688209964	0.042940070	0.443004786	0.136538377
2020-03-01T02:35:00	0.4139	3.847		1.141845323	1.665262999	0.042070692	0.434035577	0.133773980
2020-03-01T02:40:00	0.4119	3.838		1.135989991	1.653782651	0.041637701	0.429568487	0.132397179
2020-03-01T02:45:00	0.4131	3.830		1.139446546	1.660555661	0.041892992	0.432202280	0.133208940
2020-03-01T02:50:00	0.4103	3.819		1.131256880	1.644527592	0.041289596	0.425977146	0.131290293
2020-03-01T02:55:00	0.4122	3.811		1.136755369	1.655281358	0.041694152	0.430150877	0.132576678
2020-03-01T03:00:00	0.4122	3.801		1.136719364	1.655210841	0.041691495	0.430123469	0.132568230
2020-03-01T03:05:00	0.4122	3.789		1.136683358	1.655140326	0.041688839	0.430096062	0.132559783
2020-03-01T03:10:00	0.4128	3.777		1.138684698	1.659061820	0.041836647	0.431620971	0.133029775
2020-03-01T03:15:00	0.4114	3.765		1.134573045	1.651009632	0.041533311	0.428491515	0.132065246
2020-03-01T03:20:00	0.4166	3.752		1.149656476	1.680631377	0.042652370	0.440036640	0.135623566
2020-03-01T03:25:00	0.4126	3.742		1.137994710	1.657709383	0.041785654	0.431094885	0.132867630
2020-03-01T03:30:00	0.4156	3.730		1.146681036	1.674770029	0.042430248	0.437745052	0.134917276
2020-03-01T03:35:00	0.4146	3.719		1.143739551	1.668984275	0.042211324	0.435486453	0.134221154
2020-03-01T03:40:00	0.4156	3.707		1.146609185	1.674628600	0.042424893	0.437689801	0.134900248
2020-03-01T03:45:00	0.4161	3.695		1.148025351	1.677417111	0.042530520	0.438779538	0.135236115
2020-03-01T03:50:00	0.4089	3.685		1.127324866	1.636855954	0.041001697	0.423006946	0.130374849
2020-03-01T03:55:00	0.4139	3.675		1.141851449	1.665275028	0.042071147	0.434040265	0.133775425
2020-03-01T04:00:00	0.4127	3.666		1.138324787	1.658356302	0.041810043	0.431346508	0.132945183
2020-03-01T04:05:00	0.4136	3.658		1.140979039	1.663562349	0.042006468	0.433372988	0.133569764
2020-03-01T04:10:00	0.4153	3.648		1.145956360	1.673343824	0.042376252	0.437187984	0.134745583
2020-03-01T04:15:00	0.4123	3.638		1.136977529	1.655716483	0.041710545	0.430320007	0.132628806
2020-03-01T04:20:00	0.4124	3.630		1.137304615	1.656357210	0.041734689	0.430569090	0.132705575
2020-03-01T04:25:00	0.4146	3.620		1.143739551	1.668984275	0.042211324	0.435486453	0.134221154
2020-03-01T04:30:00	0.4147	3.611		1.144066139	1.669626230	0.042235599	0.435736886	0.134298340
2020-03-01T04:35:00	0.4186	3.601		1.155422132	1.692014422	0.043084708	0.444496993	0.136998290
2020-03-01T04:40:00	0.4167	3.592		1.149946731	1.681203627	0.042674074	0.440260557	0.135692580
2020-03-01T04:45:00	0.4196	3.582		1.158391745	1.697890283	0.043308376	0.446804534	0.137709497
2020-03-01T04:50:00	0.4151	3.574		1.145372250	1.672194643	0.042332759	0.436739271	0.134607285
2020-03-01T04:55:00	0.4197	3.565		1.158463406	1.698032185	0.043313782	0.446860304	0.137726685
2020-03-01T05:00:00	0.4189	3.556		1.156181118	1.693515358	0.043141810	0.445086102	0.137179859
2020-03-01T05:05:00	0.4214	3.549		1.163457040	1.707933210	0.043691447	0.450756602	0.138927563
2020-03-01T05:10:00	0.4235	3.540		1.169565414	1.720078528	0.044156021	0.455549525	0.140404788
2020-03-01T05:15:00	0.4210	3.533		1.162371013	1.705777782	0.043609149	0.449907548	0.138665876
2020-03-01T05:20:00	0.4231	3.525		1.168480865	1.717919373	0.044073326	0.454696376	0.140141839
2020-03-01T05:25:00	0.4222	3.516		1.165914477	1.712814838	0.043878003	0.452681270	0.139520764
2020-03-01T05:30:00	0.4263	3.506		1.177792156	1.736495158	0.044786246	0.462051439	0.142408741
2020-03-01T05:35:00	0.4202	3.499		1.159908580	1.700895001	0.043422883	0.447985878	0.138073599
2020-03-01T05:40:00	0.4218	3.492		1.164575538	1.710154320	0.043776300	0.451632018	0.139197374
2020-03-01T05:45:00	0.4222	3.487		1.165768347	1.712524383	0.043866897	0.452566686	0.139485448
2020-03-01T05:50:00	0.4197	3.480		1.158567843	1.698239000	0.043321661	0.446941589	0.137751739
2020-03-01T05:55:00	0.4203	3.474		1.160341432	1.701752865	0.043455591	0.448323326	0.138177603
2020-03-01T06:00:00	0.4244	3.469		1.172233836	1.725395950	0.044359869	0.457652587	0.141052972
2020-03-01T06:05:00	0.4258	3.465		1.176310960	1.733534370	0.044672391	0.460876819	0.142046712
2020-03-01T06:10:00	0.4241	3.462		1.171438795	1.723810905	0.044299076	0.457025400	0.140859667
2020-03-01T06:15:00	0.4248	3.460		1.173207302	1.727337581	0.044434371	0.458421213	0.141289870
2020-03-01T06:20:00	0.4186	3.457		1.155305406	1.691783642	0.043075930	0.444406433	0.136970379
2020-03-01T06:25:00	0.4252	3.454		1.174433525	1.729784707	0.044528321	0.459390481	0.141588608
2020-03-01T06:30:00	0.4220	3.450		1.165222599	1.711439828	0.043825432	0.452138906	0.139353602
2020-03-01T06:35:00	0.4267	3.446		1.178832720	1.738576486	0.044866332	0.462877675	0.142663395
2020-03-01T06:40:00	0.4269	3.441		1.179445109	1.739801889	0.044913503	0.463364331	0.142813387
2020-03-01T06:45:00	0.4176	3.437		1.152584886	1.686408730	0.042871640	0.442298806	0.136320788
2020-03-01T06:50:00	0.4227	3.434		1.167389964	1.715748765	0.043990237	0.453839171	0.139877640
2020-03-01T06:55:00	0.4247	3.432		1.172915510	1.726755486	0.044412031	0.458190742	0.141218836
2020-03-01T07:00:00	0.4255	3.431		1.175260693	1.731436311	0.044591762	0.460044992	0.141790334
2020-03-01T07:05:00	0.4289	3.432		1.185098380	1.751132097	0.045350334	0.467871032	0.144202396
2020-03-01T07:10:00	0.4267	3.437		1.178794015	1.738499048	0.044863351	0.462846926	0.142653918
2020-03-01T07:15:00	0.4230	3.440		1.168146924	1.717254790	0.044047881	0.454433872	0.140060933
2020-03-01T07:20:00	0.4258	3.445		1.176269194	1.733450913	0.044669183	0.460843722	0.142036511
2020-03-01T07:25:00	0.4263	3.451		1.177747364	1.736405592	0.044782800	0.462015893	0.142397785
2020-03-01T07:30:00	0.4277	3.460		1.181819508	1.744556697	0.045096673	0.465254058	0.143395819
2020-03-01T07:35:00	0.4252	3.472		1.174356038	1.729630024	0.044522381	0.459329196	0.141569719
2020-03-01T07:40:00	0.4274	3.480		1.180737906	1.742390050	0.045013180	0.464392679	0.143130334
2020-03-01T07:45:00	0.4313	3.494		1.192001636	1.765011307	0.045887109	0.473408849	0.145909205
2020-03-01T07:50:00	0.4271	3.509		1.179944364	1.740801191	0.044951981	0.463761303	0.142935738
2020-03-01T07:55:00	0.4282	3.526		1.183150294	1.747224127	0.045199525	0.466315167	0.143722863
2020-03-01T08:00:00	0.4247	3.549		1.173091039	1.727105637	0.044425469	0.458329374	0.141261564
2020-03-01T08:05:00	0.4289	3.573		1.185237818	1.751411966	0.045361139	0.467982512	0.144236755
2020-03-01T08:10:00	0.4309	3.601		1.191029181	1.763053239	0.045811271	0.472626433	0.145668057
2020-03-01T08:15:00	0.4287	3.624		1.184445066	1.749821085	0.045299725	0.467348916	0.144041475
2020-03-01T08:20:00	0.4284	3.652		1.183616545	1.748159103	0.045235592	0.466687268	0.143837548
2020-03-01T08:25:00	0.4269	3.681		1.179329006	1.739569537	0.044904558	0.463272043	0.142784943
2020-03-01T08:30:00	0.4261	3.707		1.177057304	1.735025974	0.044729739	0.461468468	0.142229063
2020-03-01T08:35:00	0.4308	3.738		1.190631814	1.762253403	0.045780302	0.472306938	0.145569585
2020-03-01T08:40:00	0.4293	3.774		1.186350920	1.753646790	0.045447453	0.468872993	0.144511210
2020-03-01T08:45:00	0.4302	3.803		1.188976883	1.758924014	0.045651459	0.470977685	0.145159897
2020-03-01T08:50:00	0.4301	3.831		1.188724729	1.758416975	0.045631846	0.470775346	0.145097534
2020-03-01T08:55:00	0.4232	3.864		1.168572891	1.718102535	0.044080339	0.454768731	0.140164139
2020-03-01T09:00:00	0.4308	3.896		1.190522058	1.762032510	0.045771751	0.472218713	0.145542394
2020-03-01T09:05:00	0.4288	3.926		1.184801288	1.750535867	0.045327316	0.467633560	0.144129205
2020-03-01T09:10:00	0.4262	3.957		1.177342751	1.735596601	0.044751683	0.461694867	0.142298842
2020-03-01T09:15:00	0.4254	3.983		1.175070048	1.731055589	0.044577136	0.459894093	0.141743826
2020-03-01T09:20:00	0.4267	4.023		1.178856238	1.738623537	0.044868143	0.462896358	0.142669153
2020-03-01T09:25:00	0.4321	4.076		1.194437527	1.769920250	0.046077400	0.475372043	0.146514280
2020-03-01T09:30:00	0.4248	4.110		1.173445118	1.727812061	0.044452583	0.458609100	0.141347779
2020-03-01T09:35:00	0.4286	4.132		1.184150966	1.749231052	0.045276954	0.467113988	0.143969068
2020-03-01T09:40:00	0.4262	4.186		1.177268352	1.735447866	0.044745963	0.461635852	0.142280653
2020-03-01T09:45:00	0.4290	4.216		1.185374219	1.751685756	0.045371711	0.468091580	0.144270371
2020-03-01T09:50:00	0.4263	4.248		1.177628180	1.736167275	0.044773633	0.461921316	0.142368636
2020-03-01T09:55:00	0.4293	4.292		1.186309246	1.753563097	0.045444220	0.468839636	0.144500929
2020-03-01T10:00:00	0.4292	4.337		1.186056944	1.753056439	0.045424648	0.468637716	0.144438695
2020-03-01T10:05:00	0.4286	4.388		1.184204176	1.749337798	0.045281073	0.467156487	0.143982166
2020-03-01T10:10:00	0.4273	4.423		1.180621379	1.742156697	0.045004190	0.464299935	0.143101749
2020-03-01T10:15:00	0.4255	4.451		1.175304431	1.731523661	0.044595118	0.460079615	0.141801006
2020-03-01T10:20:00	0.4257	4.501		1.176045026	1.733003022	0.044651967	0.460666112	0.141981770
2020-03-01T10:25:00	0.4293	4.529		1.186296366	1.753537229	0.045443220	0.468829326	0.144497751
2020-03-01T10:30:00	0.4254	4.590		1.174928922	1.730773782	0.044566310	0.459782407	0.141709403
2020-03-01T10:35:00	0.4215	4.639		1.163822071	1.708657949	0.043719129	0.451042192	0.139015584
2020-03-01T10:40:00	0.4267	4.687		1.178717811	1.738346591	0.044857484	0.462786391	0.142635260
2020-03-01T10:45:00	0.4256	4.734		1.175707854	1.732329443	0.044626080	0.460399042	0.141899456
2020-03-01T10:50:00	0.4242	4.777		1.171540641	1.724013916	0.044306861	0.457105716	0.140884421
2020-03-01T10:55:00	0.4217	4.832		1.164477466	1.709959520	0.043768856	0.451555220	0.139173704
2020-03-01T11:00:00	0.4243	4.889		1.171867788	1.724666092	0.044331873	0.457363758	0.140963952
2020-03-01T11:05:00	0.4251	4.941		1.174052614	1.729024376	0.044499124	0.459089262	0.141495769
2020-03-01T11:10:00	0.4256	4.982		1.175659250	1.732232355	0.044622349	0.460360552	0.141887593
2020-03-01T11:15:00	0.4229	5.017		1.167735356	1.716435876	0.044016534	0.454110470	0.139961257
2020-03-01T11:20:00	0.4194	5.062		1.157769752	1.696658836	0.043261472	0.446320637	0.137560355
2020-03-01T11:25:00	0.4263	5.113		1.177592045	1.736095024	0.044770854	0.461892645	0.142359799
2020-03-01T11:30:00	0.4249	5.160		1.173715293	1.728351176	0.044473278	0.458822609	0.141413584
2020-03-01T11:35:00	0.4209	5.194		1.162026552	1.705094380	0.043583065	0.449638444	0.138582935
2020-03-01T11:40:00	0.4229	5.224		1.167975753	1.716914183	0.044034843	0.454299353	0.140019473
2020-03-01T11:45:00	0.4218	5.250		1.164669315	1.710340600	0.043783419	0.451705459	0.139220009
2020-03-01T11:50:00	0.4155	5.286		1.146280778	1.673982233	0.042400420	0.437437317	0.134822429
2020-03-01T11:55:00	0.4189	5.328		1.156310459	1.693771195	0.043151545	0.445186539	0.137210815
2020-03-01T12:00:00	0.4159	5.374		1.147481082	1.676345177	0.042489907	0.438360538	0.135106975
2020-03-01T12:05:00	0.4155	5.403		1.146483806	1.674381818	0.042415549	0.437593398	0.134870535
2020-03-01T12:10:00	0.4176	5.418		1.152453728	1.686149790	0.042861805	0.442197344	0.136289516
2020-03-01T12:15:00	0.4195	5.428		1.158125961	1.697364025	0.043288330	0.446597722	0.137645755
2020-03-01T12:20:00	0.4205	5.437		1.160896595	1.702853414	0.043497564	0.448756344	0.138311064
2020-03-01T12:25:00	0.4170	5.448		1.150625530	1.682542237	0.042724857	0.440784476	0.135854056
2020-03-01T12:30:00	0.4196	5.462		1.158328451	1.697764952	0.043303602	0.446755278	0.137694315
2020-03-01T12:35:00	0.4173	5.480		1.151534530	1.684335534	0.042792917	0.441486641	0.136070470
2020-03-01T12:40:00	0.4147	5.504		1.144149025	1.669789171	0.042241761	0.435800458	0.134317934
2020-03-01T12:45:00	0.4141	5.533		1.142278847	1.666114354	0.042102854	0.434367384	0.133876246
2020-03-01T12:50:00	0.4174	5.538		1.152027439	1.685308301	0.042829850	0.441867664	0.136187905
2020-03-01T12:55:00	0.4135	5.541		1.140572600	1.662764704	0.041976355	0.433062321	0.133474013
2020-03-01T13:00:00	0.4137	5.540		1.141028153	1.663658747	0.042010108	0.433410538	0.133581337
2020-03-01T13:05:00	0.4134	5.557		1.140320312	1.662269665	0.041957670	0.432869545	0.133414598
2020-03-01T13:10:00	0.4154	5.556		1.146008018	1.673445474	0.042380100	0.437227681	0.134757817
2020-03-01T13:15:00	0.4133	5.559		1.140068008	1.661774662	0.041938988	0.432676808	0.133355194
2020-03-01T13:20:00	0.4136	5.566		1.140814465	1.663239349	0.041994273	0.433247178	0.133530988
2020-03-01T13:25:00	0.4146	5.580		1.143886537	1.669273183	0.042222248	0.435599154	0.134255890
2020-03-01T13:30:00	0.4138	5.596		1.141434682	1.664456753	0.042040241	0.433721420	0.133677154
2020-03-01T13:35:00	0.4177	5.603		1.152925773	1.687081811	0.042897207	0.442562577	0.136402084
2020-03-01T13:40:00	0.4138	5.609		1.141473251	1.664532472	0.042043101	0.433750921	0.133686246
2020-03-01T13:45:00	0.4185	5.602		1.154994123	1.691168267	0.043052527	0.444164982	0.136895961
2020-03-01T13:50:00	0.4241	5.596		1.171363678	1.723661178	0.044293335	0.456966168	0.140841411
2020-03-01T13:55:00	0.4243	5.601		1.171816100	1.724563044	0.044327920	0.457322983	0.140951385
2020-03-01T14:00:00	0.4186	5.607		1.155486650	1.692141987	0.043089561	0.444547053	0.137013719
2020-03-01T14:05:00	0.4280	5.610		1.182528389	1.745977357	0.045151443	0.465819112	0.143569974
2020-03-01T14:10:00	0.4283	5.612		1.183555888	1.748037456	0.045230899	0.466638850	0.143822626
2020-03-01T14:15:00	0.4295	5.609		1.186886681	1.754722908	0.045489032	0.469301954	0.144643420
2020-03-01T14:20:00	0.4261	5.609		1.176963459	1.734838388	0.044722525	0.461394049	0.142206127
2020-03-01T14:25:00	0.4355	5.616		1.204164011	1.789581555	0.046841835	0.483258575	0.148944986
2020-03-01T14:30:00	0.4283	5.627		1.183344220	1.747612982	0.045214524	0.466469913	0.143770557
2020-03-01T14:35:00	0.4323	5.624		1.195016044	1.771086993	0.046122661	0.475838995	0.146658200
2020-03-01T14:40:00	0.4276	5.617		1.181365346	1.743646784	0.045061603	0.464892254	0.143284308
2020-03-01T14:45:00	0.4194	5.614		1.157833186	1.696784407	0.043266255	0.446369973	0.137575561
2020-03-01T14:50:00	0.4253	5.605		1.174769713	1.730455890	0.044554099	0.459656430	0.141670576
2020-03-01T14:55:00	0.4252	5.591		1.174355874	1.729629697	0.044522368	0.459329066	0.141569679
2020-03-01T15:00:00	0.4247	5.571		1.173075832	1.727075299	0.044424305	0.458317362	0.141257862
2020-03-01T15:05:00	0.4245	5.551		1.172373051	1.725673563	0.044370519	0.457762462	0.141086836
2020-03-01T15:10:00	0.4278	5.532		1.182056412	1.745031418	0.045114972	0.465442852	0.143454007
2020-03-01T15:15:00	0.4229	5.515		1.167788302	1.716541215	0.044020566	0.454152067	0.139974078
2020-03-01T15:20:00	0.4212	5.499		1.163034979	1.707095408	0.043659453	0.450426525	0.138825829
2020-03-01T15:25:00	0.4244	5.483		1.172160858	1.725250429	0.044354286	0.457594995	0.141035222
2020-03-01T15:30:00	0.4263	5.470		1.177519774	1.735950523	0.044765296	0.461835303	0.142342126
2020-03-01T15:35:00	0.4243	5.458		1.171910348	1.724750945	0.044335127	0.457397335	0.140974301
2020-03-01T15:40:00	0.4243	5.447		1.171785087	1.724501216	0.044325549	0.457298519	0.140943845
2020-03-01T15:45:00	0.4223	5.436		1.166168500	1.713319791	0.043897314	0.452880493	0.139582166
2020-03-01T15:50:00	0.4250	5.421		1.173844751	1.728609524	0.044483196	0.458924935	0.141445122
2020-03-01T15:55:00	0.4253	5.405		1.174874230	1.730664575	0.044562115	0.459739128	0.141696064
2020-03-01T16:00:00	0.4186	5.386		1.155368251	1.691907892	0.043080656	0.444455189	0.136985406
2020-03-01T16:05:00	0.4243	5.364		1.171971455	1.724872780	0.044339800	0.457445546	0.140989160
2020-03-01T16:10:00	0.4264	5.340		1.177853772	1.736618372	0.044790985	0.462100340	0.142423813
2020-03-01T16:15:00	0.4298	5.315		1.187759590	1.756476834	0.045556823	0.470001347	0.144858980
2020-03-01T16:20:00	0.4300	5.289		1.188444531	1.757853618	0.045610058	0.470550562	0.145028253
2020-03-01T16:25:00	0.4291	5.260		1.185675349	1.752290267	0.045395055	0.468332419	0.144344600
2020-03-01T16:30:00	0.4288	5.230		1.184920871	1.750775846	0.045336580	0.467729136	0.144158662
2020-03-01T16:35:00	0.4325	5.201		1.195385952	1.771833194	0.046151615	0.476137708	0.146750266
2020-03-01T16:40:00	0.4297	5.176		1.187442982	1.755840589	0.045532228	0.469747603	0.144780774
2020-03-01T16:45:00	0.4348	5.149		1.202207773	1.785619466	0.046687495	0.481666281	0.148454226
2020-03-01T16:50:00	0.4333	5.124		1.197724207	1.776553276	0.046334886	0.478028474	0.147333018
2020-03-01T16:55:00	0.4300	5.096		1.188346684	1.757656909	0.045602451	0.470472081	0.145004065
2020-03-01T17:00:00	0.4335	5.068		1.198516757	1.778154404	0.046397102	0.478670344	0.147530849
2020-03-01T17:05:00	0.4325	5.038		1.195466399	1.771995496	0.046157914	0.476202687	0.146770293
2020-03-01T17:10:00	0.4321	5.011		1.194426167	1.769897342	0.046076512	0.475362876	0.146511455
2020-03-01T17:15:00	0.4406	4.982		1.218611884	1.818964186	0.047990992	0.495114220	0.152599011
2020-03-01T17:20:00	0.4373	4.953		1.209277221	1.799956010	0.047246660	0.487435084	0.150232227
2020-03-01T17:25:00	0.4320	4.924		1.194179003	1.769398973	0.046057182	0.475163461	0.146449993
2020-03-01T17:30:00	0.4373	4.896		1.209208470	1.799816341	0.047241203	0.487378787	0.150214876
2020-03-01T17:35:00	0.4409	4.867		1.219618044	1.821018329	0.048071630	0.495946150	0.152855420
2020-03-01T17:40:00	0.4403	4.838		1.217725589	1.817155610	0.047920026	0.494382079	0.152373358
2020-03-01T17:45:00	0.4345	4.809		1.201220726	1.783621815	0.046609734	0.480864038	0.148206967
2020-03-01T17:50:00	0.4405	4.782		1.218514682	1.818765795	0.047983206	0.495033893	0.152574253
2020-03-01T17:55:00	0.4398	4.756		1.216335766	1.814321146	0.047808867	0.493235272	0.152019901
2020-03-01T18:00:00	0.4376	4.730		1.210147957	1.801725340	0.047315802	0.488148411	0.150452081
2020-03-01T18:05:00	0.4432	4.704		1.226266904	1.834618380	0.048606504	0.501464342	0.154556180
2020-03-01T18:10:00	0.4406	4.677		1.218663334	1.819069199	0.047995114	0.495156740	0.152612116
2020-03-01T18:15:00	0.4479	4.651		1.239592896	1.862012326	0.049689037	0.512632634	0.157998356
2020-03-01T18:20:00	0.4414	4.623		1.220881147	1.823598499	0.048172974	0.496991693	0.153177667
2020-03-01T18:25:00	0.4455	4.595		1.232689600	1.847798692	0.049126496	0.506828999	0.156209620
2020-03-01T18:30:00	0.4422	4.567		1.223383478	1.828714874	0.048374116	0.499066842	0.153817248
2020-03-01T18:35:00	0.4414	4.540		1.220921148	1.823680235	0.048176185	0.497024825	0.153187878
2020-03-01T18:40:00	0.4488	4.513		1.242124943	1.867237955	0.049896318	0.514771112	0.158657456
2020-03-01T18:45:00	0.4423	4.485		1.223709022	1.829380966	0.048400321	0.499337186	0.153900570
2020-03-01T18:50:00	0.4389	4.458		1.213812416	1.809179949	0.047607436	0.491157140	0.151379401
2020-03-01T18:55:00	0.4427	4.429		1.224782588	1.831578342	0.048486795	0.500229324	0.154175536
2020-03-01T19:00:00	0.4447	4.400		1.230312070	1.842914737	0.048933627	0.504839210	0.155596347
2020-03-01T19:05:00	0.4378	4.372		1.210703533	1.802854669	0.047359950	0.488603872	0.150592459
2020-03-01T19:10:00	0.4447	4.345		1.230528776	1.843359659	0.048951188	0.505020383	0.155652187
2020-03-01T19:15:00	0.4466	4.317		1.235766589	1.854128073	0.049376769	0.509411026	0.157005426
2020-03-01T19:20:00	0.4449	4.291		1.231030585	1.844390112	0.048991867	0.505440059	0.155781535
2020-03-01T19:25:00	0.4441	4.264		1.228572335	1.839344611	0.048792780	0.503386121	0.155148491
2020-03-01T19:30:00	0.4459	4.238		1.233812362	1.850107096	0.049217731	0.507770258	0.156499725
2020-03-01T19:35:00	0.4415	4.215		1.221366856	1.824591101	0.048211978	0.497394087	0.153301688
2020-03-01T19:40:00	0.4454	4.192		1.232319073	1.847037171	0.049096409	0.506518596	0.156113951
2020-03-01T19:45:00	0.4451	4.170		1.231572248	1.845502692	0.049035799	0.505893296	0.155921227
2020-03-01T19:50:00	0.4356	4.149		1.204519569	1.790302104	0.046869919	0.483548315	0.149034287
2020-03-01T19:55:00	0.4417	4.128		1.221801100	1.825478732	0.048246864	0.497754006	0.153412619
2020-03-01T20:00:00	0.4463	4.109		1.235031709	1.852615540	0.049316928	0.508793655	0.156815146
2020-03-01T20:05:00	0.4430	4.088		1.225444868	1.832934485	0.048540186	0.500780150	0.154345306
2020-03-01T20:10:00	0.4409	4.070		1.219555145	1.820889886	0.048066587	0.495894119	0.152839384
2020-03-01T20:15:00	0.4394	4.052		1.215374638	1.812362132	0.047732084	0.492443116	0.151775751
2020-03-01T20:20:00	0.4428	4.034		1.224913901	1.831847194	0.048497378	0.500338510	0.154209188
2020-03-01T20:25:00	0.4437	4.017		1.227590943	1.837332053	0.048713434	0.502567516	0.154896189
2020-03-01T20:30:00	0.4459	4.002		1.233971914	1.850435240	0.049230704	0.507904101	0.156540977
2020-03-01T20:35:00	0.4432	3.986		1.226095642	1.834267503	0.048592683	0.501321753	0.154512233
2020-03-01T20:40:00	0.4477	3.972		1.239029380	1.860850237	0.049642975	0.512157422	0.157851891
2020-03-01T20:45:00	0.4426	3.956		1.224314346	1.830619800	0.048449068	0.499840098	0.154055573
2020-03-01T20:50:00	0.4457	3.943		1.233265249	1.848982068	0.049173260	0.507311461	0.156358319
2020-03-01T20:55:00	0.4388	3.929		1.213669312	1.808888575	0.047596027	0.491039439	0.151343124
2020-03-01T21:00:00	0.4389	3.916		1.213778059	1.809109992	0.047604697	0.491128880	0.151370691
2020-03-01T21:05:00	0.4477	3.902		1.239000915	1.860791546	0.049640649	0.512133425	0.157844495
2020-03-01T21:10:00	0.4437	3.888		1.227710769	1.837577728	0.048723118	0.502667424	0.154926982
2020-03-01T21:15:00	0.4392	3.874		1.214676556	1.810939858	0.047676361	0.491868230	0.151598566
2020-03-01T21:20:00	0.4435	3.859		1.227071631	1.836267488	0.048671478	0.502134661	0.154762779
2020-03-01T21:25:00	0.4434	3.844		1.226609343	1.835320051	0.048634146	0.501749522	0.154644075
2020-03-01T21:30:00	0.4450	3.831		1.231281453	1.844905359	0.049012211	0.505649943	0.155846223
2020-03-01T21:35:00	0.4479	3.817		1.239649786	1.862129662	0.049693688	0.512680623	0.158013147
2020-03-01T21:40:00	0.4444	3.803		1.229502157	1.841252323	0.048868028	0.504162435	0.155387759
2020-03-01T21:45:00	0.4389	3.791		1.213898245	1.809354713	0.047614279	0.491227740	0.151401160
2020-03-01T21:50:00	0.4471	3.778		1.237127772	1.856931125	0.049487723	0.510555719	0.157358231
2020-03-01T21:55:00	0.4476	3.764		1.238659360	1.860087355	0.049612743	0.511845526	0.157755762
2020-03-01T22:00:00	0.4463	3.753		1.235065876	1.852685851	0.049319709	0.508822349	0.156823990
2020-03-01T22:05:00	0.4392	3.740		1.214632126	1.810849354	0.047672816	0.491831655	0.151587293
2020-03-01T22:10:00	0.4429	3.730		1.225327668	1.832694462	0.048530735	0.500682647	0.154315254
2020-03-01T22:15:00	0.4416	3.719		1.221450893	1.824762865	0.048218728	0.497463728	0.153323152
2020-03-01T22:20:00	0.4392	3.708		1.214710582	1.811009173	0.047679077	0.491896243	0.151607199
2020-03-01T22:25:00	0.4428	3.699		1.225120482	1.832270187	0.048514031	0.500510310	0.154262138
2020-03-01T22:30:00	0.4424	3.690		1.223814200	1.829596193	0.048408789	0.499424548	0.153927496
2020-03-01T22:35:00	0.4377	3.680		1.210495362	1.802431480	0.047343405	0.488433184	0.150539851
2020-03-01T22:40:00	0.4399	3.671		1.216626858	1.814914648	0.047832137	0.493475335	0.152093891
2020-03-01T22:45:00	0.4385	3.662		1.212742737	1.807002487	0.047522197	0.490277749	0.151108364
2020-03-01T22:50:00	0.4319	3.655		1.193646480	1.768325428	0.046015553	0.474733980	0.146317623
2020-03-01T22:55:00	0.4379	3.647		1.210981879	1.803420587	0.047382077	0.488832154	0.150662817
2020-03-01T23:00:00	0.4370	3.641		1.208525705	1.798429554	0.047187033	0.486819917	0.150042626
2020-03-01T23:05:00	0.4343	3.634		1.200618487	1.782403449	0.046562327	0.480374940	0.148056222
2020-03-01T23:10:00	0.4260	3.628		1.176857422	1.734626445	0.044714376	0.461309972	0.142180213
2020-03-01T23:15:00	0.4302	3.624		1.188792975	1.758554200	0.045637154	0.470830105	0.145114411
2020-03-01T23:20:00	0.4246	3.622		1.172773041	1.726471306	0.044401127	0.458078237	0.141184162
2020-03-01T23:25:00	0.4236	3.622		1.169718196	1.720382786	0.044167677	0.455669784	0.140441853
2020-03-01T23:30:00	0.4230	3.623		1.168106849	1.717175044	0.044044829	0.454402376	0.140051226
2020-03-01T23:35:00	0.4234	3.625		1.169385721	1.719720708	0.044142313	0.455408107	0.140361201
2020-03-01T23:40:00	0.4216	3.627		1.164014505	1.709040065	0.043733726	0.451192790	0.139062000
2020-03-01T23:45:00	0.4221	3.631		1.165583785	1.712157573	0.043852872	0.452421992	0.139440852
2020-03-01T23:50:00	0.4202	3.634		1.159918421	1.700914501	0.043423626	0.447993548	0.138075962
2020-03-01T23:55:00	0.4155	3.638		1.146409913	1.674236382	0.042410042	0.437536588	0.134853026
2020-03-02T00:00:00	0.4214	3.645		1.163638052	1.708292577	0.043705172	0.450898208	0.138971207
2020-03-02T00:05:00	0.4250	3.650		1.173876763	1.728673411	0.044485649	0.458950240	0.141452921
2020-03-02T00:10:00	0.4248	3.655		1.173421965	1.727765865	0.044450809	0.458590806	0.141342140
2020-03-02T00:15:00	0.4233	3.661		1.168922710	1.718798869	0.044107005	0.455043836	0.140248929
2020-03-02T00:20:00	0.4229	3.669		1.167889281	1.716742127	0.044028256	0.454231406	0.139998531
2020-03-02T00:25:00	0.4204	3.675		1.160489806	1.702046969	0.043466807	0.448439031	0.138213265
2020-03-02T00:30:00	0.4240	3.684		1.171024584	1.722985360	0.044267423	0.456698839	0.140759018
2020-03-02T00:35:00	0.4224	3.691		1.166522927	1.714024443	0.043924265	0.453158547	0.139667865
2020-03-02T00:40:00	0.4194	3.696		1.157672712	1.696466749	0.043254158	0.446245170	0.137537095
2020-03-02T00:45:00	0.4168	3.702		1.150256296	1.681814040	0.042697229	0.440499445	0.135766207
2020-03-02T00:50:00	0.4154	3.709		1.146024174	1.673477264	0.042381304	0.437240096	0.134761644
2020-03-02T00:55:00	0.4167	3.717		1.149922371	1.681155597	0.042672252	0.440241762	0.135686787
2020-03-02T01:00:00	0.4140	3.726		1.141911520	1.665392985	0.042075602	0.434086233	0.133789593
2020-03-02T01:05:00	0.4150	3.736		1.144941694	1.671347785	0.042300716	0.436408690	0.134505396
2020-03-02T01:10:00	0.4183	3.748		1.154643411	1.690475061	0.043026168	0.443893039	0.136812146
2020-03-02T01:15:00	0.4208	3.759		1.161719507	1.704485312	0.043559822	0.449398650	0.138509028
2020-03-02T01:20:00	0.4311	3.771		1.191559797	1.764121531	0.045852643	0.473053261	0.145799609
2020-03-02T01:25:00	0.4267	3.783		1.178723070	1.738357112	0.044857889	0.462790569	0.142636548
2020-03-02T01:30:00	0.4258	3.798		1.176249389	1.733411341	0.044667661	0.460828029	0.142031674
2020-03-02T01:35:00	0.4263	3.811		1.177525949	1.735962870	0.044765771	0.461840202	0.142343636
2020-03-02T01:40:00	0.4279	3.822		1.182261417	1.745442262	0.045130811	0.465606260	0.143504371
2020-03-02T01:45:00	0.4224	3.834		1.166507403	1.713993576	0.043923084	0.453146366	0.139664111
2020-03-02T01:50:00	0.4215	3.843		1.163737649	1.708490325	0.043712726	0.450976134	0.138995224
2020-03-02T01:55:00	0.4189	3.852		1.156331304	1.693812428	0.043153114	0.445202727	0.137215804
2020-03-02T02:00:00	0.4137	3.858		1.141067286	1.663735557	0.042013008	0.433440458	0.133590559
2020-03-02T02:05:00	0.4165	3.864		1.149326255	1.679980434	0.042627685	0.439781970	0.135545074
2020-03-02T02:10:00	0.4148	3.869		1.144221475	1.669931601	0.042247147	0.435856029	0.134335061
2020-03-02T02:15:00	0.4146	3.874		1.143763649	1.669031638	0.042213115	0.435504929	0.134226849
2020-03-02T02:20:00	0.4098	3.881		1.129914302	1.641906396	0.041191162	0.424961622	0.130977299
2020-03-02T02:25:00	0.4124	3.887		1.137320934	1.656389180	0.041735893	0.430581519	0.132709406
2020-03-02T02:30:00	0.4096	3.891		1.129287249	1.640682778	0.041145235	0.424487802	0.130831263
2020-03-02T02:35:00	0.4119	3.897		1.135821505	1.653452812	0.041625280	0.429440344	0.132357685
2020-03-02T02:40:00	0.4130	3.902		1.139146805	1.659967856	0.041870819	0.431973516	0.133138433
2020-03-02T02:45:00	0.4122	3.908		1.136942218	1.655647319	0.041707939	0.430293122	0.132620519
2020-03-02T02:50:00	0.4141	3.913		1.142302359	1.666160533	0.042104599	0.434385384	0.133881794
2020-03-02T02:55:00	0.4134	3.918		1.140390221	1.662406835	0.041962847	0.432922959	0.133431060
2020-03-02T03:00:00	0.4144	3.921		1.143130752	1.667787877	0.042166096	0.435019839	0.134077339
2020-03-02T03:05:00	0.4162	3.924		1.148483429	1.678319521	0.042564720	0.439132365	0.135344860
2020-03-02T03:10:00	0.4138	3.929		1.141342490	1.664275768	0.042033407	0.433650907	0.133655421
2020-03-02T03:15:00	0.4136	3.932		1.140884367	1.663376538	0.041999453	0.433300613	0.133547457
2020-03-02T03:20:00	0.4147	3.935		1.144205872	1.669900928	0.042245987	0.435844061	0.134331373
2020-03-02T03:25:00	0.4139	3.937		1.141713025	1.665003229	0.042060880	0.433934349	0.133742781
2020-03-02T03:30:00	0.4146	3.939		1.143871493	1.669243612	0.042221130	0.435587618	0.134252334
2020-03-02T03:35:00	0.4133	3.940		1.139924191	1.661492529	0.041928341	0.432566967	0.133321340
2020-03-02T03:40:00	0.4112	3.942		1.133934775	1.649761168	0.041486338	0.428006902	0.131915884
2020-03-02T03:45:00	0.4116	3.942		1.134932272	1.651712463	0.041559762	0.428764402	0.132149353
2020-03-02T03:50:00	0.4053	3.943		1.116670758	1.616146281	0.040227472	0.415019410	0.127913013
2020-03-02T03:55:00	0.4118	3.944		1.135762044	1.653336414	0.041620897	0.429395126	0.132343748
2020-03-02T04:00:00	0.4103	3.944		1.131224594	1.644464536	0.041287227	0.425952707	0.131282761
2020-03-02T04:05:00	0.4117	3.946		1.135269932	1.652373216	0.041584634	0.429020998	0.132228438
2020-03-02T04:10:00	0.4064	3.951		1.119775368	1.622169448	0.040452199	0.417337878	0.128627587
2020-03-02T04:15:00	0.4121	3.953		1.136367800	1.654522375	0.041665561	0.429855911	0.132485766
2020-03-02T04:20:00	0.4097	3.955		1.129633168	1.641357749	0.041170567	0.424749150	0.130911813
2020-03-02T04:25:00	0.4093	3.954		1.128433234	1.639016901	0.041082732	0.423842975	0.130632521
2020-03-02T04:30:00	0.4064	3.951		1.119933480	1.622476452	0.040463663	0.417456153	0.128664041
2020-03-02T04:35:00	0.4102	3.946		1.130990490	1.644007361	0.041270054	0.425775537	0.131228156
2020-03-02T04:40:00	0.4041	3.944		1.113140054	1.609308082	0.039972782	0.412391822	0.127103165
2020-03-02T04:45:00	0.4074	3.941		1.122754213	1.627957613	0.040668504	0.419569459	0.129315382
2020-03-02T04:50:00	0.4070	3.937		1.121552402	1.625621327	0.040581156	0.418668301	0.129037636
2020-03-02T04:55:00	0.4090	3.935		1.127357347	1.636919262	0.041004070	0.423031432	0.130382396
2020-03-02T05:00:00	0.4055	3.935		1.117393798	1.617548177	0.040279744	0.415558695	0.128079226
2020-03-02T05:05:00	0.4089	3.930		1.127290403	1.636788781	0.040999178	0.422980966	0.130366842
2020-03-02T05:10:00	0.4059	3.926		1.118496130	1.619686475	0.040359513	0.416381659	0.128332871
2020-03-02T05:15:00	0.4040	3.924		1.112904986	1.608853245	0.039955858	0.412217225	0.127049352
2020-03-02T05:20:00	0.4118	3.919		1.135642360	1.653102138	0.041612076	0.429304119	0.132315699
2020-03-02T05:25:00	0.4044	3.915		1.114008447	1.610988823	0.040035337	0.413037194	0.127302075
2020-03-02T05:30:00	0.4066	3.910		1.120407782	1.623397549	0.040498065	0.417811070	0.128773429
2020-03-02T05:35:00	0.4068	3.906		1.120958604	1.624467528	0.040538038	0.418223466	0.128900534
2020-03-02T05:40:00	0.4081	3.901		1.124721476	1.631785019	0.040811721	0.421047002	0.129770775
2020-03-02T05:45:00	0.4044	3.898		1.114166767	1.611295326	0.040046748	0.413154918	0.127338358
2020-03-02T05:50:00	0.4119	3.898		1.136024255	1.653849731	0.041640227	0.429594549	0.132405212
2020-03-02T05:55:00	0.4108	3.898		1.132786932	1.647516993	0.041401941	0.427136189	0.131647522
2020-03-02T06:00:00	0.4057	3.896		1.117868374	1.618468610	0.040314075	0.415912883	0.128188390
2020-03-02T06:05:00	0.4063	3.896		1.119588652	1.621806934	0.040438663	0.417198230	0.128584546
2020-03-02T06:10:00	0.4078	3.898		1.123936647	1.630257636	0.040754550	0.420457183	0.129588987
2020-03-02T06:15:00	0.4043	3.899		1.113672698	1.610338905	0.040011145	0.412787603	0.127225148
2020-03-02T06:20:00	0.4119	3.904		1.135823814	1.653457332	0.041625451	0.429442100	0.132358226
2020-03-02T06:25:00	0.4129	3.907		1.138701177	1.659094126	0.041837865	0.431633540	0.133033649
2020-03-02T06:30:00	0.4126	3.910		1.138085785	1.657887871	0.041792382	0.431164305	0.132889026
2020-03-02T06:35:00	0.4136	3.913		1.140961680	1.663528277	0.042005182	0.433359716	0.133565673
2020-03-02T06:40:00	0.4204	3.912		1.160661263	1.702386856	0.043479769	0.448572759	0.138254481
2020-03-02T06:45:00	0.4171	3.914		1.151062602	1.683404399	0.042757575	0.441122015	0.135958089
2020-03-02T06:50:00	0.4125	3.914		1.137661181	1.657055806	0.041761017	0.430840717	0.132789293
2020-03-02T06:55:00	0.4104	3.921		1.131511469	1.645024844	0.041308277	0.426169875	0.131349694
2020-03-02T07:00:00	0.4172	3.929		1.151252891	1.683779821	0.042771823	0.441269017	0.136003397
2020-03-02T07:05:00	0.4144	3.941		1.143087621	1.667703131	0.042162893	0.434986792	0.134067154
2020-03-02T07:10:00	0.4146	3.943		1.143635622	1.668780008	0.042203601	0.435406776	0.134196597
2020-03-02T07:15:00	0.4124	3.944		1.137494209	1.656728653	0.041748687	0.430713508	0.132750086
2020-03-02T07:20:00	0.4140	3.949		1.142115375	1.665793305	0.042090725	0.434242250	0.133837679
2020-03-02T07:25:00	0.4147	3.958		1.144116865	1.669725948	0.042239370	0.435775791	0.134310331
2020-03-02T07:30:00	0.4146	3.966		1.143792882	1.669089095	0.042215288	0.435527342	0.134233757
2020-03-02T07:35:00	0.4101	3.979		1.130660956	1.643363912	0.041245887	0.425526216	0.131151312
2020-03-02T07:40:00	0.4136	3.986		1.140818715	1.663247689	0.041994588	0.433250426	0.133531989
2020-03-02T07:45:00	0.4075	3.988		1.123008136	1.628451417	0.040686973	0.419760002	0.129374109
2020-03-02T07:50:00	0.4126	4.004		1.137842552	1.657411203	0.041774413	0.430978921	0.132831889
2020-03-02T07:55:00	0.4109	4.013		1.133150067	1.648226823	0.041428630	0.427411538	0.131732387
2020-03-02T08:00:00	0.4114	4.017		1.134573143	1.651009825	0.041533318	0.428491590	0.132065270
2020-03-02T08:05:00	0.4124	4.022		1.137451320	1.656644623	0.041745520	0.430680835	0.132740016
2020-03-02T08:10:00	0.4106	4.035		1.132175635	1.646322367	0.041357034	0.426672901	0.131504732
2020-03-02T08:15:00	0.4185	4.049		1.155104257	1.691385979	0.043060806	0.444250400	0.136922288
2020-03-02T08:20:00	0.4147	4.063		1.144040694	1.669576209	0.042233707	0.435717371	0.134292325
2020-03-02T08:25:00	0.4090	4.071		1.127410181	1.637022245	0.041007931	0.423071264	0.130394672
2020-03-02T08:30:00	0.4125	4.097		1.137575405	1.656887739	0.041754683	0.430775365	0.132769151
2020-03-02T08:35:00	0.4189	4.131		1.156130726	1.693415688	0.043138018	0.445046975	0.137167800
2020-03-02T08:40:00	0.4167	4.157		1.150006562	1.681321596	0.042678549	0.440306722	0.135706808
2020-03-02T08:45:00	0.4140	4.188		1.142129766	1.665821568	0.042091793	0.434253265	0.133841074
2020-03-02T08:50:00	0.4150	4.214		1.145003040	1.671468435	0.042305281	0.436455782	0.134519911
2020-03-02T08:55:00	0.4163	4.217		1.148745514	1.678835922	0.042584294	0.439334306	0.135407100
2020-03-02T09:00:00	0.4145	4.228		1.143483262	1.668480575	0.042192281	0.435289984	0.134160601
2020-03-02T09:05:00	0.4135	4.259		1.140542259	1.662705166	0.041974108	0.433039134	0.133466867
2020-03-02T09:10:00	0.4141	4.311		1.142253720	1.666065006	0.042100990	0.434348149	0.133870318
2020-03-02T09:15:00	0.4169	4.325		1.150353924	1.682006567	0.042704533	0.440574799	0.135789432
2020-03-02T09:20:00	0.4183	4.329		1.154381870	1.689958187	0.043006516	0.443690302	0.136749660
2020-03-02T09:25:00	0.4108	4.348		1.132839702	1.647620134	0.041405818	0.427176195	0.131659852
2020-03-02T09:30:00	0.4141	4.373		1.142411029	1.666373972	0.042112663	0.434468583	0.133907437
2020-03-02T09:35:00	0.4103	4.390		1.131315742	1.644642553	0.041293914	0.426021701	0.131304026
2020-03-02T09:40:00	0.4156	4.405		1.146703308	1.674813870	0.042431909	0.437762179	0.134922555
2020-03-02T09:45:00	0.4069	4.425		1.121327645	1.625184563	0.040564832	0.418499895	0.128985732
2020-03-02T09:50:00	0.4112	4.451		1.133837907	1.649571728	0.041479212	0.427933381	0.131893224
2020-03-02T09:55:00	0.4115	4.479		1.134678309	1.651215569	0.041541061	0.428571469	0.132089889
2020-03-02T10:00:00	0.4135	4.509		1.140466027	1.662555579	0.041968462	0.432980881	0.133448913
2020-03-02T10:05:00	0.4065	4.542		1.120298768	1.623185823	0.040490156	0.417729480	0.128748283
2020-03-02T10:10:00	0.4175	4.564		1.152272624	1.685792271	0.042848228	0.442057266	0.136246343
2020-03-02T10:15:00	0.4165	4.582		1.149319252	1.679966630	0.042627162	0.439776571	0.135543410
2020-03-02T10:20:00	0.4136	4.615		1.140841379	1.663292169	0.041996268	0.433267751	0.133537329
2020-03-02T10:25:00	0.4163	4.637		1.148635650	1.678619444	0.042576088	0.439249648	0.135381008
2020-03-02T10:30:00	0.4145	4.661		1.143355062	1.668228641	0.042182757	0.435191727	0.134130317
2020-03-02T10:35:00	0.4166	4.673		1.149693856	1.680705068	0.042655165	0.440065473	0.135632453
2020-03-02T10:40:00	0.4176	4.661		1.152544080	1.686328167	0.042868580	0.442267238	0.136311058
2020-03-02T10:45:00	0.4141	4.667		1.142328243	1.666211370	0.042106520	0.434405200	0.133887902
2020-03-02T10:50:00	0.4202	4.687		1.159976970	1.701030528	0.043428050	0.448039184	0.138090028
2020-03-02T10:55:00	0.4150	4.712		1.144841084	1.671149921	0.042293230	0.436331462	0.134481594
2020-03-02T11:00:00	0.4176	4.744		1.152628352	1.686494548	0.042874900	0.442332435	0.136331152
2020-03-02T11:05:00	0.4144	4.787		1.143284837	1.668090645	0.042177540	0.435137910	0.134113730
2020-03-02T11:10:00	0.4229	4.821		1.167873172	1.716710075	0.044027030	0.454218748	0.139994629
2020-03-02T11:15:00	0.4188	4.848		1.155953613	1.693065394	0.043124689	0.444909470	0.137125419
2020-03-02T11:20:00	0.4183	4.854		1.154452675	1.690098110	0.043011836	0.443745183	0.136766575
2020-03-02T11:25:00	0.4208	4.874		1.161644259	1.704336061	0.043554126	0.449339894	0.138490919
2020-03-02T11:30:00	0.4219	4.890		1.165065438	1.711127559	0.043813496	0.452015760	0.139315647
2020-03-02T11:35:00	0.4144	4.901		1.143266169	1.668053963	0.042176154	0.435123604	0.134109321
2020-03-02T11:40:00	0.4197	4.901		1.158594321	1.698291436	0.043323659	0.446962199	0.137758091
2020-03-02T11:45:00	0.4194	4.915		1.157673795	1.696468893	0.043254239	0.446246012	0.137537355
2020-03-02T11:50:00	0.4177	4.943		1.152693995	1.686624153	0.042879822	0.442383222	0.136346805
2020-03-02T11:55:00	0.4177	4.976		1.152642545	1.686522570	0.042875964	0.442343415	0.136334537
2020-03-02T12:00:00	0.4178	5.013		1.153171204	1.687566488	0.042915620	0.442752543	0.136460634
2020-03-02T12:05:00	0.4193	5.032		1.157468224	1.696061999	0.043238745	0.446086165	0.137488088
2020-03-02T12:10:00	0.4114	5.052		1.134466755	1.650801700	0.041525487	0.428410791	0.132040367
2020-03-02T12:15:00	0.4067	5.076		1.120704431	1.623973755	0.040519590	0.418033139	0.128841873
2020-03-02T12:20:00	0.4105	5.103		1.131741253	1.645473703	0.041325142	0.426343870	0.131403321
2020-03-02T12:25:00	0.4066	5.120		1.120600785	1.623772424	0.040512068	0.417955542	0.128817957
2020-03-02T12:30:00	0.4016	5.142		1.105915493	1.595354173	0.039454546	0.407045277	0.125455307
2020-03-02T12:35:00	0.4028	5.170		1.109380035	1.602039329	0.039702578	0.409604183	0.126243987
2020-03-02T12:40:00	0.4005	5.196		1.102585472	1.588939773	0.039216990	0.404594454	0.124699940
2020-03-02T12:45:00	0.4011	5.210		1.104293401	1.592228274	0.039338726	0.405850384	0.125087030
2020-03-02T12:50:00	0.4051	5.212		1.115956543	1.614762006	0.040175876	0.414487104	0.127748951
2020-03-02T12:55:00	0.4026	5.215		1.108879253	1.601072290	0.039666671	0.409233733	0.126129811
2020-03-02T13:00:00	0.4070	5.226		1.121698772	1.625905788	0.040591788	0.418777994	0.129071445
2020-03-02T13:05:00	0.4055	5.237		1.117263149	1.617294824	0.040270296	0.415461220	0.128049183
2020-03-02T13:10:00	0.4040	5.245		1.112823036	1.608694691	0.039949959	0.412156366	0.127030595
2020-03-02T13:15:00	0.4049	5.256		1.115404628	1.613692644	0.040136031	0.414076032	0.127622255
2020-03-02T13:20:00	0.4029	5.267		1.109498279	1.602267702	0.039711060	0.409691681	0.126270955
2020-03-02T13:25:00	0.4047	5.280		1.115008316	1.612924956	0.040107434	0.413781000	0.127531323
2020-03-02T13:30:00	0.4018	5.290		1.106464124	1.596412016	0.039493763	0.407449877	0.125580009
2020-03-02T13:35:00	0.4037	5.294		1.111977983	1.607060106	0.039889160	0.411529107	0.126837268
2020-03-02T13:40:00	0.4025	5.296		1.108411567	1.600169383	0.039633154	0.408887940	0.126023234
2020-03-02T13:45:00	0.4019	5.295		1.106601271	1.596676503	0.039503571	0.407551056	0.125611194
2020-03-02T13:50:00	0.4017	5.293		1.106256155	1.596010984	0.039478895	0.407296478	0.125532730
2020-03-02T13:55:00	0.4026	5.288		1.108841625	1.600999638	0.039663974	0.409205906	0.126121234
2020-03-02T14:00:00	0.4049	5.283		1.115522710	1.613921408	0.040144554	0.414163961	0.127649355
2020-03-02T14:05:00	0.4031	5.275		1.110202304	1.603627717	0.039761578	0.410212870	0.126431591
2020-03-02T14:10:00	0.4071	5.269		1.121849735	1.626199199	0.040602756	0.418891146	0.129106320
2020-03-02T14:15:00	0.4035	5.266		1.111269768	1.605690751	0.039838246	0.411003844	0.126675376
2020-03-02T14:20:00	0.4059	5.260		1.118531821	1.619755729	0.040362098	0.416408321	0.128341089
2020-03-02T14:25:00	0.4132	5.257		1.139767717	1.661185590	0.041916759	0.432447478	0.133284513
2020-03-02T14:30:00	0.4076	5.257		1.123394797	1.629203478	0.040715107	0.420050249	0.129463566
2020-03-02T14:35:00	0.4083	5.254		1.125386501	1.633079726	0.040860201	0.421547159	0.129924928
2020-03-02T14:40:00	0.4075	5.252		1.122999205	1.628434049	0.040686324	0.419753300	0.129372044
2020-03-02T14:45:00	0.4082	5.246		1.125282965	1.632878128	0.040852651	0.421469269	0.129900922
2020-03-02T14:50:00	0.4062	5.240		1.119389911	1.621421113	0.040424258	0.417049619	0.128538743
2020-03-02T14:55:00	0.4098	5.241		1.129846934	1.641774918	0.041186226	0.424910702	0.130961605
2020-03-02T15:00:00	0.4091	5.242		1.127753769	1.637692026	0.041033044	0.423330349	0.130474525
2020-03-02T15:05:00	0.4090	5.242		1.127410313	1.637022503	0.041007941	0.423071364	0.130394703
2020-03-02T15:10:00	0.4103	5.243		1.131149422	1.644317729	0.041281712	0.425895812	0.131265226
2020-03-02T15:15:00	0.4101	5.243		1.130806230	1.643647561	0.041256540	0.425636118	0.131185185
2020-03-02T15:20:00	0.4116	5.244		1.135124936	1.652089466	0.041573952	0.428910802	0.132194475
2020-03-02T15:25:00	0.4082	5.245		1.125160683	1.632640042	0.040843735	0.421377285	0.129872572
2020-03-02T15:30:00	0.4115	5.240		1.134730396	1.651317475	0.041544896	0.428611035	0.132102083
2020-03-02T15:35:00	0.4107	5.229		1.132348155	1.646659475	0.041369705	0.426803620	0.131545021
2020-03-02T15:40:00	0.4089	5.216		1.127048094	1.636316531	0.040981476	0.422798329	0.130310551
2020-03-02T15:45:00	0.4116	5.204		1.135157887	1.652153948	0.041576380	0.428935843	0.132202193
2020-03-02T15:50:00	0.4077	5.191		1.123734102	1.629863554	0.040739804	0.420305043	0.129542096
2020-03-02T15:55:00	0.4127	5.180		1.138256855	1.658223154	0.041805023	0.431294715	0.132929220
2020-03-02T16:00:00	0.4077	5.168		1.123630527	1.629662051	0.040732264	0.420227256	0.129518122
2020-03-02T16:05:00	0.4072	5.155		1.122082471	1.626651590	0.040619668	0.419065626	0.129160096
2020-03-02T16:10:00	0.4116	5.144		1.135118801	1.652077461	0.041573500	0.428906139	0.132193038
2020-03-02T16:15:00	0.4109	5.134		1.132992098	1.647918021	0.041417019	0.427291745	0.131695466
2020-03-02T16:20:00	0.4091	5.123		1.127656732	1.637502853	0.041025950	0.423257168	0.130451970
2020-03-02T16:25:00	0.4102	5.110		1.131068108	1.644158933	0.041275747	0.425834274	0.131246259
2020-03-02T16:30:00	0.4050	5.096		1.115796730	1.614452330	0.040164336	0.414368050	0.127712257
2020-03-02T16:35:00	0.4129	5.080		1.138755985	1.659201575	0.041841917	0.431675345	0.133046534
2020-03-02T16:40:00	0.4079	5.063		1.124387141	1.631134282	0.040787361	0.420795682	0.129693316
2020-03-02T16:45:00	0.4047	5.045		1.114947480	1.612807125	0.040103045	0.413735721	0.127517367
2020-03-02T16:50:00	0.4059	5.026		1.118368725	1.619439274	0.040350289	0.416286495	0.128303541
2020-03-02T16:55:00	0.4101	5.007		1.130541563	1.643130812	0.041237134	0.425435906	0.131123478
2020-03-02T17:00:00	0.4108	4.987		1.132785381	1.647513961	0.041401827	0.427135013	0.131647159
2020-03-02T17:05:00	0.4102	4.967		1.130949056	1.643926451	0.041267015	0.425744184	0.131218492
2020-03-02T17:10:00	0.4146	4.947		1.143668641	1.668844904	0.042206055	0.435432089	0.134204399
2020-03-02T17:15:00	0.4099	4.925		1.130190498	1.642445484	0.041211400	0.425170421	0.131041653
2020-03-02T17:20:00	0.4074	4.904		1.122807995	1.628062199	0.040672415	0.419609813	0.129327819
2020-03-02T17:25:00	0.4140	4.884		1.141952523	1.665473500	0.042078644	0.434117611	0.133799264
2020-03-02T17:30:00	0.4069	4.862		1.121463831	1.625449202	0.040574722	0.418601932	0.129017181
2020-03-02T17:35:00	0.4046	4.841		1.114651833	1.612234554	0.040081721	0.413515722	0.127449562
2020-03-02T17:40:00	0.4073	4.821		1.122456313	1.627378371	0.040646842	0.419345979	0.129246503
2020-03-02T17:45:00	0.4092	4.800		1.127914039	1.638004492	0.041044761	0.423451233	0.130511783
2020-03-02T17:50:00	0.4059	4.778		1.118481959	1.619658979	0.040358487	0.416371074	0.128329609
2020-03-02T17:55:00	0.4056	4.759		1.117516893	1.617786895	0.040288647	0.415650547	0.128107535
2020-03-02T18:00:00	0.4077	4.742		1.123564750	1.629534087	0.040727476	0.420177861	0.129502897
2020-03-02T18:05:00	0.4076	4.724		1.123476847	1.629363087	0.040721078	0.420111855	0.129482554
2020-03-02T18:10:00	0.4034	4.708		1.111108093	1.605378218	0.039826629	0.410883989	0.126638436
2020-03-02T18:15:00	0.4075	4.690		1.123009029	1.628453153	0.040687038	0.419760672	0.129374316
2020-03-02T18:20:00	0.4081	4.675		1.124964806	1.632258696	0.040829456	0.421229967	0.129827167
2020-03-02T18:25:00	0.4076	4.656		1.123417219	1.629247095	0.040716738	0.420067084	0.129468755
2020-03-02T18:30:00	0.4075	4.640		1.123037307	1.628508151	0.040689095	0.419781896	0.129380857
2020-03-02T18:35:00	0.4087	4.623		1.126744041	1.635724027	0.040959268	0.422569218	0.130239937
2020-03-02T18:40:00	0.4073	4.605		1.122569442	1.627598331	0.040655068	0.419430838	0.129272658
2020-03-02T18:45:00	0.4037	4.587		1.111955004	1.607015669	0.039887507	0.411512059	0.126832013
2020-03-02T18:50:00	0.4016	4.570		1.105714570	1.594966837	0.039440189	0.406897159	0.125409656
2020-03-02T18:55:00	0.4061	4.555		1.119091784	1.620842423	0.040402655	0.416826747	0.128470052
2020-03-02T19:00:00	0.4063	4.539		1.119588321	1.621806291	0.040438639	0.417197982	0.128584470
2020-03-02T19:05:00	0.4068	4.524		1.120961351	1.624472864	0.040538237	0.418225523	0.128901168
2020-03-02T19:10:00	0.3983	4.508		1.096262918	1.576791197	0.038768230	0.399964686	0.123273001
2020-03-02T19:15:00	0.4055	4.493		1.117278052	1.617323723	0.040271374	0.415472338	0.128052610
2020-03-02T19:20:00	0.4077	4.479		1.123618225	1.629638118	0.040731368	0.420218018	0.129515274
2020-03-02T19:25:00	0.4078	4.466		1.124114251	1.630603223	0.040767484	0.420590615	0.129630112
2020-03-02T19:30:00	0.4057	4.453		1.117891123	1.618512737	0.040315721	0.415929865	0.128193624
2020-03-02T19:35:00	0.4087	4.440		1.126565287	1.635375734	0.040946215	0.422434557	0.130198433
2020-03-02T19:40:00	0.4027	4.432		1.108935197	1.601180309	0.039670681	0.409275108	0.126142563
2020-03-02T19:45:00	0.4060	4.420		1.118796417	1.620269179	0.040381259	0.416606007	0.128402017
2020-03-02T19:50:00	0.4035	4.409		1.111394726	1.605932326	0.039847227	0.411096494	0.126703932
2020-03-02T19:55:00	0.4048	4.397		1.115111299	1.613124427	0.040114864	0.413857653	0.127554948
2020-03-02T20:00:00	0.4022	4.387		1.107703370	1.598802565	0.039582431	0.408364643	0.125861949
2020-03-02T20:05:00	0.4044	4.377		1.114057399	1.611083589	0.040038865	0.413073592	0.127313293
2020-03-02T20:10:00	0.4077	4.368		1.123615150	1.629632134	0.040731144	0.420215708	0.129514562
2020-03-02T20:15:00	0.4032	4.357		1.110661142	1.604514353	0.039794523	0.410552754	0.126536346
2020-03-02T20:20:00	0.4106	4.347		1.132190323	1.646351066	0.041358113	0.426684029	0.131508162
2020-03-02T20:25:00	0.4096	4.339		1.129187471	1.640488110	0.041137929	0.424412435	0.130808034
2020-03-02T20:30:00	0.4078	4.333		1.123847495	1.630084173	0.040748059	0.420390214	0.129568347
2020-03-02T20:35:00	0.4060	4.326		1.118793338	1.620263204	0.040381036	0.416603706	0.128401308
2020-03-02T20:40:00	0.4055	4.322		1.117243576	1.617256870	0.040268881	0.415446618	0.128044682
2020-03-02T20:45:00	0.4086	4.318		1.126210832	1.634685190	0.040920340	0.422167607	0.130116157
2020-03-02T20:50:00	0.4073	4.315		1.122619853	1.627696350	0.040658733	0.419468655	0.129284313
2020-03-02T20:55:00	0.4056	4.313		1.117564282	1.617878802	0.040292075	0.415685911	0.128118435
2020-03-02T21:00:00	0.4067	4.312		1.120691326	1.623948299	0.040518639	0.418023327	0.128838849
2020-03-02T21:05:00	0.4076	4.312		1.123524172	1.629455149	0.040724522	0.420147390	0.129493506
2020-03-02T21:10:00	0.4011	4.313		1.104415769	1.592463996	0.039347456	0.405940454	0.125114790
2020-03-02T21:15:00	0.4050	4.315		1.115749918	1.614361625	0.040160956	0.414333180	0.127701510
2020-03-02T21:20:00	0.4031	4.317		1.110100698	1.603431407	0.039754285	0.410137628	0.126408400
2020-03-02T21:25:00	0.3991	4.318		1.098575048	1.581229300	0.038931994	0.401654206	0.123793727
2020-03-02T21:30:00	0.4058	4.320		1.118117613	1.618952094	0.040332112	0.416098965	0.128245742
2020-03-02T21:35:00	0.4055	4.322		1.117152467	1.617080204	0.040262293	0.415378651	0.128023734
2020-03-02T21:40:00	0.4086	4.323		1.126411710	1.635076522	0.040935003	0.422318882	0.130162781
2020-03-02T21:45:00	0.4017	4.325		1.106143500	1.595793768	0.039470842	0.407213398	0.125507124
2020-03-02T21:50:00	0.4021	4.327		1.107227691	1.597884782	0.039548383	0.408013374	0.125753684
2020-03-02T21:55:00	0.4034	4.329		1.111240617	1.605634398	0.039836152	0.410982233	0.126668715
2020-03-02T22:00:00	0.4022	4.329		1.107637354	1.598675179	0.039577705	0.408315882	0.125846920
2020-03-02T22:05:00	0.4047	4.331		1.114840914	1.612600732	0.040095358	0.413656415	0.127492924
2020-03-02T22:10:00	0.4086	4.331		1.126411710	1.635076522	0.040935003	0.422318882	0.130162781
2020-03-02T22:15:00	0.4051	4.332		1.116070733	1.614983294	0.040184122	0.414572184	0.127775173
2020-03-02T22:20:00	0.4034	4.331		1.110979246	1.605129163	0.039817372	0.410788485	0.126609001
2020-03-02T22:25:00	0.4028	4.330		1.109398349	1.602074700	0.039703892	0.409617734	0.126248164
2020-03-02T22:30:00	0.4076	4.329		1.123320086	1.629058154	0.040709670	0.419994158	0.129446279
2020-03-02T22:35:00	0.4041	4.329		1.113264495	1.609548886	0.039981743	0.412484268	0.127131657
2020-03-02T22:40:00	0.4028	4.327		1.109341615	1.601965129	0.039699823	0.409575755	0.126235225
2020-03-02T22:45:00	0.4035	4.327		1.111275140	1.605701137	0.039838633	0.411007828	0.126676604
2020-03-02T22:50:00	0.4019	4.325		1.106764308	1.596990942	0.039515231	0.407671353	0.125648270
2020-03-02T22:55:00	0.4033	4.326		1.110749302	1.604684732	0.039800854	0.410618078	0.126556479
2020-03-02T23:00:00	0.3997	4.325		1.100371224	1.584680680	0.039059489	0.402969545	0.124199127
2020-03-02T23:05:00	0.4005	4.325		1.102602120	1.588971814	0.039218175	0.404606685	0.124703710
2020-03-02T23:10:00	0.3969	4.325		1.091910490	1.568451065	0.038461036	0.396795414	0.122296200
2020-03-02T23:15:00	0.4027	4.325		1.109111585	1.601520905	0.039683328	0.409405575	0.126182774
2020-03-02T23:20:00	0.3972	4.324		1.092852763	1.570255066	0.038527422	0.397480309	0.122507291
2020-03-02T23:25:00	0.3998	4.324		1.100667839	1.585250935	0.039080566	0.403186994	0.124266147
2020-03-02T23:30:00	0.3957	4.323		1.088500009	1.561928935	0.038221307	0.394322181	0.121533926
2020-03-02T23:35:00	0.3913	4.322		1.075412284	1.537006398	0.037309347	0.384913653	0.118634126
2020-03-02T23:40:00	0.3957	4.320		1.088560116	1.562043784	0.038225525	0.394365693	0.121547337
2020-03-02T23:45:00	0.3946	4.319		1.085204045	1.555636681	0.037990448	0.391940452	0.120799854
2020-03-02T23:50:00	0.3983	4.318		1.096266013	1.576797134	0.038768449	0.399966945	0.123273697
2020-03-02T23:55:00	0.3970	4.317		1.092327793	1.569249893	0.038490428	0.397098649	0.122389660
2020-03-03T00:00:00	0.3982	4.315		1.095738361	1.575785049	0.038731132	0.399581953	0.123155039
2020-03-03T00:05:00	0.4009	4.316		1.103841566	1.591358017	0.039306499	0.405517908	0.124984558
2020-03-03T00:10:00	0.3984	4.317		1.096386012	1.577027339	0.038776939	0.400054529	0.123300691
2020-03-03T00:15:00	0.3986	4.316		1.097150448	1.578494175	0.038831045	0.400612736	0.123472736
2020-03-03T00:20:00	0.3882	4.317		1.066374337	1.519893786	0.036686955	0.378492555	0.116655081
2020-03-03T00:25:00	0.3942	4.316		1.083971678	1.553286739	0.037904337	0.391052053	0.120526041
2020-03-03T00:30:00	0.3960	4.316		1.089449223	1.563743041	0.038287942	0.395009643	0.121745808
2020-03-03T00:35:00	0.3921	4.316		1.077839952	1.541616624	0.037477552	0.386648992	0.119168974
2020-03-03T00:40:00	0.3948	4.316		1.085976660	1.557110706	0.038044492	0.392498014	0.120971700
2020-03-03T00:45:00	0.3918	4.314		1.077014937	1.540049243	0.037420340	0.386058754	0.118987057
2020-03-03T00:50:00	0.3942	4.313		1.083974782	1.553292655	0.037904553	0.391054289	0.120526730
2020-03-03T00:55:00	0.3910	4.310		1.074713626	1.535680692	0.037261020	0.384415071	0.118480458
2020-03-03T01:00:00	0.3892	4.309		1.069277692	1.525382333	0.036886237	0.380548512	0.117288747
2020-03-03T01:05:00	0.3889	4.306		1.068568692	1.524041266	0.036837516	0.380045857	0.117133824
2020-03-03T01:10:00	0.3908	4.303		1.074065831	1.534451928	0.037216243	0.383953119	0.118338080
2020-03-03T01:15:00	0.3880	4.302		1.065671090	1.518565598	0.036638779	0.377995525	0.116501892
2020-03-03T01:20:00	0.3907	4.302		1.073830811	1.534006233	0.037200006	0.383785601	0.118286450
2020-03-03T01:25:00	0.3892	4.303		1.069280807	1.525388224	0.036886452	0.380550721	0.117289428
2020-03-03T01:30:00	0.3880	4.304		1.065909674	1.519016146	0.036655119	0.378164106	0.116553850
2020-03-03T01:35:00	0.3884	4.307		1.066975349	1.521029271	0.036728157	0.378917626	0.116786092
2020-03-03T01:40:00	0.3894	4.308		1.069814815	1.526398622	0.036923173	0.380929567	0.117406192
2020-03-03T01:45:00	0.3912	4.308		1.075310362	1.536812970	0.037302294	0.384840895	0.118611701
2020-03-03T01:50:00	0.3935	4.310		1.081978185	1.549488603	0.037765279	0.389617422	0.120083873
2020-03-03T01:55:00	0.3916	4.311		1.076551424	1.539168943	0.037388220	0.385727371	0.118884922
2020-03-03T02:00:00	0.3916	4.312		1.076433983	1.538945935	0.037380084	0.385643434	0.118859052
2020-03-03T02:05:00	0.3902	4.312		1.072182197	1.530881307	0.037086219	0.382611683	0.117924636
2020-03-03T02:10:00	0.3922	4.314		1.078264831	1.542424078	0.037507035	0.386953164	0.119262723
2020-03-03T02:15:00	0.3918	4.315		1.076967104	1.539958389	0.037417025	0.386024548	0.118976515
2020-03-03T02:20:00	0.3920	4.317		1.077734979	1.541417156	0.037470269	0.386573862	0.119145819
2020-03-03T02:25:00	0.3885	4.318		1.067277381	1.521600030	0.036748873	0.379131344	0.116851962
2020-03-03T02:30:00	0.3851	4.319		1.057090722	1.502399182	0.036053892	0.371961358	0.114642103
2020-03-03T02:35:00	0.3857	4.319		1.059047765	1.506080153	0.036186820	0.373332756	0.115064781
2020-03-03T02:40:00	0.3896	4.320		1.070472591	1.527643583	0.036968434	0.381396515	0.117550110
2020-03-03T02:45:00	0.3833	4.321		1.051989832	1.492822552	0.035708740	0.368400486	0.113544608
2020-03-03T02:50:00	0.3831	4.321		1.051277958	1.491488065	0.035660722	0.367905093	0.113391923
2020-03-03T02:55:00	0.3856	4.324		1.058576062	1.505192592	0.036154755	0.373001945	0.114962822
2020-03-03T03:00:00	0.3880	4.326		1.065861717	1.518925578	0.036651834	0.378130217	0.116543405
2020-03-03T03:05:00	0.3886	4.327		1.067518991	1.522056672	0.036765449	0.379302357	0.116904670
2020-03-03T03:10:00	0.3898	4.328		1.071244739	1.529105556	0.037021605	0.381945074	0.117719181
2020-03-03T03:15:00	0.3901	4.328		1.072013636	1.530561952	0.037074596	0.382491773	0.117887679
2020-03-03T03:20:00	0.3866	4.331		1.061542074	1.510777075	0.036356648	0.375084835	0.115604789
2020-03-03T03:25:00	0.3895	4.335		1.070300850	1.527318491	0.036956613	0.381274566	0.117512524
2020-03-03T03:30:00	0.3860	4.339		1.059825096	1.507543259	0.036239697	0.373878273	0.115232915
2020-03-03T03:35:00	0.3888	4.343		1.068291671	1.523517417	0.036818489	0.379849562	0.117073324
2020-03-03T03:40:00	0.3868	4.343		1.062255357	1.512121344	0.036405296	0.375586732	0.115759479
2020-03-03T03:45:00	0.3939	4.344		1.083112487	1.551649272	0.037844367	0.390433358	0.120335353
2020-03-03T03:50:00	0.3890	4.346		1.068825802	1.524527531	0.036855180	0.380228095	0.117189991
2020-03-03T03:55:00	0.3944	4.348		1.084645915	1.554572224	0.037951435	0.391537959	0.120675801
2020-03-03T04:00:00	0.3914	4.351		1.075681424	1.537517219	0.037327973	0.385105818	0.118693353
2020-03-03T04:05:00	0.3913	4.353		1.075569243	1.537304292	0.037320209	0.385025714	0.118668664
2020-03-03T04:10:00	0.3914	4.356		1.075752276	1.537651705	0.037332877	0.385156415	0.118708948
2020-03-03T04:15:00	0.3901	4.358		1.072096060	1.530718109	0.037080279	0.382550404	0.117905750
2020-03-03T04:20:00	0.3891	4.361		1.069028111	1.524910195	0.036869082	0.380371524	0.117234198
2020-03-03T04:25:00	0.3872	4.364		1.063294209	1.514080076	0.036476217	0.376318402	0.115984986
2020-03-03T04:30:00	0.3904	4.365		1.072940989	1.532319257	0.037138566	0.383151735	0.118091086
2020-03-03T04:35:00	0.3898	4.365		1.071055924	1.528748003	0.037008599	0.381810892	0.117677825
2020-03-03T04:40:00	0.3872	4.367		1.063548820	1.514560299	0.036493610	0.376497850	0.116040294
2020-03-03T04:45:00	0.3893	4.368		1.069648974	1.526084804	0.036911766	0.380811890	0.117369923
2020-03-03T04:50:00	0.3939	4.368		1.083114356	1.551652834	0.037844497	0.390434703	0.120335767
2020-03-03T04:55:00	0.3909	4.369		1.074447269	1.535175405	0.037242605	0.384225089	0.118421904
2020-03-03T05:00:00	0.3914	4.371		1.075811323	1.537763790	0.037336965	0.385198585	0.118721945
2020-03-03T05:05:00	0.3946	4.373		1.085135550	1.555506033	0.037985659	0.391891045	0.120784626
2020-03-03T05:10:00	0.3907	4.374		1.073815290	1.533976800	0.037198933	0.383774539	0.118283040
2020-03-03T05:15:00	0.3930	4.375		1.080490702	1.546657094	0.037661710	0.388548920	0.119754551
2020-03-03T05:20:00	0.3932	4.375		1.081263226	1.548127366	0.037715478	0.389103635	0.119925519
2020-03-03T05:25:00	0.3886	4.377		1.067567265	1.522147916	0.036768761	0.379336531	0.116915203
2020-03-03T05:30:00	0.3946	4.378		1.085165010	1.555562224	0.037987719	0.391912295	0.120791176
2020-03-03T05:35:00	0.3902	4.381		1.072367884	1.531233140	0.037099025	0.382743800	0.117965356
2020-03-03T05:40:00	0.3888	4.383		1.068117363	1.523187840	0.036806520	0.379726080	0.117035266
2020-03-03T05:45:00	0.3944	4.384		1.084534600	1.554359964	0.037943657	0.391457713	0.120651069
2020-03-03T05:50:00	0.3942	4.386		1.084128025	1.553584787	0.037915255	0.391164697	0.120560759
2020-03-03T05:55:00	0.3880	4.388		1.065709431	1.518637997	0.036641404	0.378022613	0.116510241
2020-03-03T06:00:00	0.3902	4.389		1.072397431	1.531289129	0.037101063	0.382764826	0.117971837
2020-03-03T06:05:00	0.3958	4.391		1.088798403	1.562499119	0.038242247	0.394538216	0.121600510
2020-03-03T06:10:00	0.3948	4.392		1.085742322	1.556663563	0.038028096	0.392328854	0.120919563
2020-03-03T06:15:00	0.3886	4.392		1.067626425	1.522259740	0.036772821	0.379378414	0.116928112
2020-03-03T06:20:00	0.3987	4.395		1.097284063	1.578750620	0.038840507	0.400710350	0.123502822
2020-03-03T06:25:00	0.3907	4.398		1.073903901	1.534144835	0.037205055	0.383837694	0.118302505
2020-03-03T06:30:00	0.3907	4.403		1.073791673	1.533932017	0.037197302	0.383757709	0.118277853
2020-03-03T06:35:00	0.3922	4.407		1.078107403	1.542124876	0.037496109	0.386840444	0.119227982
2020-03-03T06:40:00	0.3969	4.411		1.092134669	1.568880181	0.038476824	0.396958298	0.122346403
2020-03-03T06:45:00	0.3952	4.416		1.087020373	1.559102871	0.038117570	0.393251939	0.121204067
2020-03-03T06:50:00	0.3984	4.421		1.096320489	1.576901638	0.038772303	0.400006704	0.123285951
2020-03-03T06:55:00	0.3972	4.427		1.092975686	1.570490470	0.038536087	0.397569706	0.122534845
2020-03-03T07:00:00	0.3983	4.433		1.096097192	1.576473289	0.038756508	0.399843744	0.123235725
2020-03-03T07:05:00	0.3928	4.438		1.080089658	1.545894055	0.037633815	0.388261127	0.119665850
2020-03-03T07:10:00	0.3948	4.442		1.085871918	1.556910840	0.038037163	0.392422400	0.120948395
2020-03-03T07:15:00	0.3891	4.449		1.068939432	1.524742456	0.036862988	0.380308651	0.117214820
2020-03-03T07:20:00	0.3936	4.458		1.082407030	1.550305337	0.037795169	0.389925787	0.120178914
2020-03-03T07:25:00	0.3988	4.466		1.097595426	1.579348284	0.038862561	0.400937875	0.123572947
2020-03-03T07:30:00	0.3947	4.474		1.085424234	1.556056707	0.038005846	0.392099307	0.120848814
2020-03-03T07:35:00	0.3909	4.484		1.074400043	1.535085822	0.037239340	0.384191410	0.118411524
2020-03-03T07:40:00	0.3939	4.495		1.083137955	1.551697799	0.037846144	0.390451689	0.120341003
2020-03-03T07:45:00	0.3987	4.502		1.097442691	1.579055097	0.038851742	0.400826257	0.123538545
2020-03-03T07:50:00	0.3966	4.507		1.091158190	1.567011399	0.038408081	0.396249091	0.122127818
2020-03-03T07:55:00	0.3954	4.516		1.087515008	1.560047371	0.038152231	0.393609529	0.121314280
2020-03-03T08:00:00	0.4010	4.521		1.104152195	1.591956283	0.039328653	0.405746463	0.125055001
2020-03-03T08:05:00	0.3953	4.527		1.087291257	1.559620092	0.038136549	0.393447748	0.121264417
2020-03-03T08:10:00	0.3972	4.531		1.092769868	1.570096328	0.038521579	0.397420029	0.122488713
2020-03-03T08:15:00	0.3979	4.536		1.095009926	1.574388297	0.038679650	0.399050815	0.122991337
2020-03-03T08:20:00	0.4001	4.541		1.101359296	1.586580632	0.039129726	0.403694168	0.124422463
2020-03-03T08:25:00	0.3952	4.545		1.087138159	1.559327761	0.038125822	0.393337074	0.121230306
2020-03-03T08:30:00	0.3972	4.549		1.092911011	1.570366613	0.038531528	0.397522669	0.122520347
2020-03-03T08:35:00	0.4011	4.551		1.104251913	1.592148359	0.039335766	0.405819850	0.125077619
2020-03-03T08:40:00	0.3998	4.553		1.100619701	1.585158382	0.039077145	0.403151700	0.124255269
2020-03-03T08:45:00	0.3974	4.557		1.093457888	1.571414052	0.038570090	0.397920505	0.122642964
2020-03-03T08:50:00	0.4002	4.561		1.101864032	1.587551556	0.039165633	0.404064616	0.124536639
2020-03-03T08:55:00	0.4022	4.567		1.107617373	1.598636624	0.039576274	0.408301125	0.125842372
2020-03-03T09:00:00	0.3939	4.574		1.083114389	1.551652897	0.037844500	0.390434727	0.120335775
2020-03-03T09:05:00	0.3926	4.580		1.079464419	1.544704772	0.037590348	0.387812695	0.119527639
2020-03-03T09:10:00	0.3944	4.585		1.084658361	1.554595957	0.037952305	0.391546932	0.120678567
2020-03-03T09:15:00	0.3934	4.591		1.081599350	1.548767263	0.037738886	0.389345133	0.119999951
2020-03-03T09:20:00	0.3961	4.598		1.089734253	1.564287955	0.038307965	0.395216209	0.121809474
2020-03-03T09:25:00	0.3972	4.600		1.092858091	1.570265271	0.038527797	0.397484184	0.122508486
2020-03-03T09:30:00	0.3976	4.608		1.094216347	1.572867228	0.038623608	0.398472641	0.122813138
2020-03-03T09:35:00	0.3960	4.612		1.089398794	1.563646641	0.038284401	0.394973103	0.121734546
2020-03-03T09:40:00	0.3927	4.615		1.079564707	1.544895506	0.037597318	0.387884603	0.119549802
2020-03-03T09:45:00	0.3971	4.618		1.092705190	1.569972478	0.038517020	0.397373000	0.122474218
2020-03-03T09:50:00	0.3965	4.623		1.090828739	1.566381108	0.038384904	0.396009979	0.122054121
2020-03-03T09:55:00	0.3980	4.629		1.095127496	1.574613698	0.038687956	0.399136513	0.123017750
2020-03-03T10:00:00	0.3878	4.632		1.065230082	1.517732933	0.036608585	0.377684027	0.116405885
2020-03-03T10:05:00	0.3991	4.636		1.098476364	1.581039770	0.038924996	0.401582012	0.123771476
2020-03-03T10:10:00	0.3901	4.637		1.071900790	1.530348170	0.037066816	0.382411509	0.117862941
2020-03-03T10:15:00	0.3960	4.639		1.089527815	1.563893283	0.038293463	0.395066594	0.121763361
2020-03-03T10:20:00	0.3914	4.639		1.075905210	1.537942012	0.037343465	0.385265642	0.118742612
2020-03-03T10:25:00	0.3955	4.643		1.087926400	1.560833102	0.038181072	0.393907082	0.121405988
2020-03-03T10:30:00	0.4002	4.645		1.101675320	1.587188514	0.039152206	0.403926089	0.124493943
2020-03-03T10:35:00	0.3970	4.645		1.092210081	1.569024544	0.038482136	0.397013099	0.122363293
2020-03-03T10:40:00	0.3979	4.645		1.095085122	1.574532458	0.038684962	0.399105625	0.123008230
2020-03-03T10:45:00	0.3935	4.649		1.082069633	1.549662751	0.037771652	0.389683167	0.120104136
2020-03-03T10:50:00	0.3972	4.652		1.092897723	1.570341165	0.038530591	0.397513005	0.122517369
2020-03-03T10:55:00	0.3970	4.655		1.092244755	1.569090923	0.038484578	0.397038298	0.122371060
2020-03-03T11:00:00	0.3954	4.657		1.087766356	1.560527409	0.038169850	0.393791310	0.121370306
2020-03-03T11:05:00	0.3998	4.657		1.100635326	1.585188424	0.039078255	0.403163156	0.124258800
2020-03-03T11:10:00	0.3954	4.654		1.087636516	1.560279426	0.038160748	0.393697400	0.121341362
2020-03-03T11:15:00	0.3921	4.654		1.077845466	1.541627102	0.037477934	0.386652938	0.119170191
2020-03-03T11:20:00	0.3949	4.655		1.086034401	1.557220888	0.038048533	0.392539701	0.120984548
2020-03-03T11:25:00	0.3963	4.656		1.090384833	1.565532016	0.038353688	0.395687928	0.121954862
2020-03-03T11:30:00	0.3895	4.656		1.070267003	1.527254425	0.036954284	0.381250535	0.117505117
2020-03-03T11:35:00	0.3898	4.661		1.071088493	1.528809675	0.037010842	0.381834035	0.117684958
2020-03-03T11:40:00	0.3920	4.664		1.077520112	1.541008906	0.037455366	0.386420108	0.119098430
2020-03-03T11:45:00	0.3914	4.666		1.075684132	1.537522359	0.037328161	0.385107752	0.118693949
2020-03-03T11:50:00	0.3889	4.668		1.068527999	1.523964311	0.036834720	0.380017019	0.117124936
2020-03-03T11:55:00	0.3894	4.670		1.069941075	1.526637559	0.036931858	0.381019172	0.117433809
2020-03-03T12:00:00	0.3901	4.672		1.071944664	1.530431286	0.037069841	0.382442714	0.117872559
2020-03-03T12:05:00	0.3915	4.675		1.076014139	1.538148802	0.037351007	0.385343451	0.118766594
2020-03-03T12:10:00	0.3856	4.674		1.058793592	1.505601871	0.036169540	0.373154481	0.115009835
2020-03-03T12:15:00	0.3926	4.673		1.079424865	1.544629548	0.037587600	0.387784336	0.119518898
2020-03-03T12:20:00	0.3881	4.672		1.066066109	1.519311591	0.036665835	0.378274664	0.116587925
2020-03-03T12:25:00	0.3904	4.672		1.072800664	1.532053292	0.037128882	0.383051829	0.118060294
2020-03-03T12:30:00	0.3958	4.670		1.088658426	1.562231635	0.038232424	0.394436865	0.121569273
2020-03-03T12:35:00	0.3895	4.670		1.070306374	1.527328947	0.036956993	0.381278488	0.117513733
2020-03-03T12:40:00	0.3878	4.670		1.065213289	1.517701231	0.036607436	0.377672169	0.116402230
2020-03-03T12:45:00	0.3909	4.671		1.074312278	1.534919349	0.037233274	0.384128826	0.118392235
2020-03-03T12:50:00	0.3896	4.678		1.070406406	1.527518297	0.036963878	0.381349516	0.117535624
2020-03-03T12:55:00	0.3891	4.681		1.069158747	1.525157314	0.036878061	0.380464158	0.117262748
2020-03-03T13:00:00	0.3893	4.684		1.069684835	1.526152661	0.036914233	0.380837334	0.117377765
2020-03-03T13:05:00	0.3871	4.688		1.063110879	1.513734335	0.036463695	0.376189222	0.115945172
2020-03-03T13:10:00	0.3813	4.688		1.045838183	1.481306881	0.035295013	0.364132141	0.112229062
2020-03-03T13:15:00	0.3912	4.690		1.075102698	1.536418897	0.037287928	0.384692678	0.118566019
2020-03-03T13:20:00	0.3924	4.691		1.078874206	1.543582464	0.037549344	0.387389657	0.119397255
2020-03-03T13:25:00	0.3912	4.692		1.075267726	1.536732059	0.037299345	0.384810462	0.118602322
2020-03-03T13:30:00	0.3915	4.690		1.076088262	1.538289521	0.037356139	0.385396403	0.118782914
2020-03-03T13:35:00	0.3816	4.690		1.046699428	1.482916886	0.035352770	0.364728007	0.112412714
2020-03-03T13:40:00	0.3881	4.691		1.066205649	1.519575149	0.036675396	0.378373298	0.116618325
2020-03-03T13:45:00	0.3879	4.686		1.065548626	1.518334355	0.036630393	0.377909010	0.116475227
2020-03-03T13:50:00	0.3901	4.684		1.071988537	1.530514402	0.037072866	0.382473920	0.117882177
2020-03-03T13:55:00	0.3906	4.680		1.073400476	1.533190281	0.037170285	0.383478976	0.118191945
2020-03-03T14:00:00	0.3903	4.673		1.072449130	1.531387093	0.037104629	0.382801616	0.117983176
2020-03-03T14:05:00	0.3914	4.665		1.075927778	1.537984855	0.037345027	0.385281762	0.118747581
2020-03-03T14:10:00	0.3905	4.656		1.073205065	1.532819825	0.037156793	0.383339786	0.118149045
2020-03-03T14:15:00	0.3876	4.655		1.064565165	1.516477869	0.036563090	0.377214654	0.116261220
2020-03-03T14:20:00	0.3830	4.652		1.050863005	1.490710416	0.035632749	0.367616504	0.113302977
2020-03-03T14:25:00	0.3954	4.649		1.087754152	1.560504101	0.038168995	0.393782483	0.121367586
2020-03-03T14:30:00	0.3959	4.646		1.089160941	1.563191992	0.038267698	0.394800784	0.121681436
2020-03-03T14:35:00	0.3862	4.642		1.060454409	1.508728195	0.036282537	0.374320248	0.115369136
2020-03-03T14:40:00	0.3916	4.640		1.076357660	1.538801012	0.037374797	0.385588890	0.118842241
2020-03-03T14:45:00	0.3891	4.638		1.068906981	1.524681075	0.036860758	0.380285644	0.117207729
2020-03-03T14:50:00	0.3933	4.634		1.081537343	1.548649209	0.037734567	0.389300576	0.119986218
2020-03-03T14:55:00	0.3937	4.628		1.082651431	1.550770879	0.037812209	0.390101589	0.120233098
2020-03-03T15:00:00	0.3931	4.620		1.080817636	1.547279244	0.037684459	0.388783621	0.119826888
2020-03-03T15:05:00	0.3923	4.612		1.078393049	1.542667782	0.037515935	0.387044982	0.119291022
2020-03-03T15:10:00	0.3910	4.606		1.074786166	1.535818314	0.037266036	0.384466820	0.118496408
2020-03-03T15:15:00	0.3884	4.602		1.067036963	1.521145698	0.036732382	0.378961219	0.116799528
2020-03-03T15:20:00	0.3940	4.595		1.083505307	1.552397828	0.037871778	0.390716154	0.120422513
2020-03-03T15:25:00	0.3881	4.589		1.066018958	1.519222538	0.036662605	0.378241339	0.116577654
2020-03-03T15:30:00	0.3907	4.587		1.073639735	1.533643914	0.037186807	0.383649437	0.118244482
2020-03-03T15:35:00	0.3885	4.579		1.067367634	1.521770602	0.036755064	0.379195221	0.116871650
2020-03-03T15:40:00	0.3874	4.575		1.064047501	1.515501050	0.036527692	0.376849460	0.116148664
2020-03-03T15:45:00	0.3887	4.571		1.067828723	1.522642147	0.036786705	0.379521652	0.116972259
2020-03-03T15:50:00	0.3896	4.568		1.070424484	1.527552518	0.036965122	0.381362353	0.117539581
2020-03-03T15:55:00	0.3880	4.563		1.065923348	1.519041968	0.036656056	0.378173769	0.116556828
2020-03-03T16:00:00	0.3816	4.554		1.046879190	1.483253023	0.035364832	0.364852449	0.112451068
2020-03-03T16:05:00	0.3929	4.547		1.080178374	1.546062835	0.037639984	0.388324780	0.119685468
2020-03-03T16:10:00	0.3885	4.541		1.067324518	1.521689114	0.036752106	0.379164705	0.116862244
2020-03-03T16:15:00	0.3919	4.533		1.077215590	1.540430387	0.037434250	0.386202259	0.119031287
2020-03-03T16:20:00	0.3953	4.523		1.087378425	1.559786543	0.038142658	0.393510769	0.121283841
2020-03-03T16:25:00	0.3923	4.518		1.078383124	1.542648918	0.037515246	0.387037875	0.119288832
2020-03-03T16:30:00	0.3913	4.514		1.075573088	1.537311591	0.037320475	0.385028460	0.118669511
2020-03-03T16:35:00	0.3949	4.508		1.086034301	1.557220698	0.038048526	0.392539629	0.120984526
2020-03-03T16:40:00	0.3933	4.504		1.081460710	1.548503312	0.037729230	0.389245513	0.119969247
2020-03-03T16:45:00	0.3941	4.499		1.083664908	1.552702006	0.037882918	0.390831086	0.120457936
2020-03-03T16:50:00	0.3967	4.494		1.091460165	1.567589217	0.038429332	0.396468334	0.122195391
2020-03-03T16:55:00	0.3900	4.487		1.071553901	1.529691081	0.037042907	0.382164839	0.117786915
2020-03-03T17:00:00	0.3899	4.484		1.071399775	1.529399167	0.037032286	0.382055271	0.117753145
2020-03-03T17:05:00	0.3898	4.480		1.071245643	1.529107267	0.037021667	0.381945716	0.117719379
2020-03-03T17:10:00	0.3948	4.474		1.085842563	1.556854828	0.038035109	0.392401210	0.120941864
2020-03-03T17:15:00	0.3974	4.467		1.093633904	1.571751242	0.038582506	0.398048601	0.122682445
2020-03-03T17:20:00	0.3973	4.459		1.093186556	1.570894330	0.038550954	0.397723091	0.122582119
2020-03-03T17:25:00	0.3946	4.456		1.085381699	1.555975563	0.038002871	0.392068617	0.120839355
2020-03-03T17:30:00	0.3993	4.451		1.099050276	1.582142149	0.038965703	0.402001974	0.123900913
2020-03-03T17:35:00	0.3969	4.444		1.092138333	1.568887195	0.038477082	0.396960960	0.122347223
2020-03-03T17:40:00	0.3952	4.439		1.086982355	1.559030286	0.038114906	0.393224462	0.121195598
2020-03-03T17:45:00	0.4007	4.432		1.103286725	1.590289639	0.039266947	0.405109850	0.124858790
2020-03-03T17:50:00	0.4002	4.425		1.101666745	1.587172019	0.039151596	0.403919795	0.124492004
2020-03-03T17:55:00	0.4014	4.417		1.105326943	1.594219690	0.039412500	0.406611495	0.125321612
2020-03-03T18:00:00	0.4008	4.409		1.103414403	1.590535464	0.039276046	0.405203730	0.124887725
2020-03-03T18:05:00	0.3909	4.397		1.074418639	1.535121097	0.037240626	0.384204672	0.118415611
2020-03-03T18:10:00	0.4015	4.388		1.105454562	1.594465658	0.039421615	0.406705532	0.125350595
2020-03-03T18:15:00	0.3989	4.376		1.097965446	1.580058665	0.038888778	0.401208359	0.123656313
2020-03-03T18:20:00	0.3991	4.366		1.098399630	1.580892403	0.038919556	0.401525881	0.123754176
2020-03-03T18:25:00	0.3983	4.354		1.096190239	1.576651775	0.038763089	0.399911644	0.123256653
2020-03-03T18:30:00	0.3992	4.342		1.098680614	1.581432060	0.038939481	0.401731444	0.123817532
2020-03-03T18:35:00	0.3988	4.331		1.097646391	1.579446122	0.038866171	0.400975124	0.123584428
2020-03-03T18:40:00	0.3984	4.317		1.096318126	1.576897106	0.038772136	0.400004980	0.123285420
2020-03-03T18:45:00	0.3972	4.306		1.092931692	1.570406219	0.038532986	0.397537710	0.122524983
2020-03-03T18:50:00	0.4004	4.295		1.102177627	1.588154921	0.039187952	0.404294876	0.124607607
2020-03-03T18:55:00	0.3944	4.283		1.084678147	1.554633689	0.037953687	0.391561197	0.120682964
2020-03-03T19:00:00	0.3974	4.272		1.093647690	1.571777652	0.038583478	0.398058634	0.122685537
2020-03-03T19:05:00	0.3995	4.259		1.099663916	1.583321196	0.039009254	0.402451287	0.124039395
2020-03-03T19:10:00	0.3996	4.247		1.100097930	1.584155336	0.039040074	0.402769252	0.124137395
2020-03-03T19:15:00	0.3965	4.235		1.090834870	1.566392836	0.038385335	0.396014428	0.122055493
2020-03-03T19:20:00	0.3938	4.222		1.083025767	1.551484040	0.037838317	0.390370943	0.120316116
2020-03-03T19:25:00	0.3970	4.209		1.092292820	1.569182938	0.038487964	0.397073230	0.122381826
2020-03-03T19:30:00	0.4000	4.193		1.101246648	1.586363973	0.039121715	0.403611517	0.124396989
2020-03-03T19:35:00	0.3966	4.178		1.091103650	1.566907047	0.038404243	0.396209500	0.122115616
2020-03-03T19:40:00	0.4011	4.162		1.104461008	1.592551146	0.039350684	0.405973756	0.125125054
2020-03-03T19:45:00	0.3985	4.146		1.096676409	1.577584500	0.038797488	0.400266531	0.123366032
2020-03-03T19:50:00	0.4005	4.130		1.102688449	1.589137967	0.039224324	0.404670115	0.124723260
2020-03-03T19:55:00	0.3982	4.115		1.095782293	1.575869304	0.038734239	0.399613999	0.123164916
2020-03-03T20:00:00	0.3982	4.100		1.095922872	1.576138927	0.038744179	0.399716554	0.123196524
2020-03-03T20:05:00	0.4007	4.087		1.103109503	1.589948454	0.039254318	0.404979563	0.124818634
2020-03-03T20:10:00	0.4008	4.072		1.103543175	1.590783410	0.039285225	0.405298427	0.124916911
2020-03-03T20:15:00	0.3977	4.059		1.094287462	1.573003509	0.038628628	0.398524433	0.122829101
2020-03-03T20:20:00	0.3978	4.044		1.094722014	1.573836377	0.038659312	0.398840996	0.122926668
2020-03-03T20:25:00	0.3956	4.029		1.088097540	1.561160018	0.038193074	0.394030904	0.121444151
2020-03-03T20:30:00	0.3978	4.014		1.094709330	1.573812065	0.038658416	0.398831754	0.122923820
2020-03-03T20:35:00	0.3987	3.999		1.097200554	1.578590341	0.038834593	0.400649340	0.123484018
2020-03-03T20:40:00	0.3958	3.982		1.088814337	1.562529570	0.038243366	0.394549754	0.121604066
2020-03-03T20:45:00	0.4025	3.965		1.108336003	1.600023522	0.039627740	0.408832087	0.126006020
2020-03-03T20:50:00	0.4002	3.948		1.101732253	1.587298038	0.039156256	0.403967879	0.124506824
2020-03-03T20:55:00	0.3948	3.932		1.085998376	1.557152143	0.038046012	0.392513692	0.120976532
2020-03-03T21:00:00	0.3951	3.915		1.086728227	1.558545135	0.038097106	0.393040823	0.121138999
2020-03-03T21:05:00	0.3995	3.900		1.099805466	1.583593224	0.039019305	0.402554973	0.124071352
2020-03-03T21:10:00	0.3976	3.884		1.094070719	1.572588166	0.038613329	0.398366594	0.122780453
2020-03-03T21:15:00	0.3966	3.868		1.091270867	1.567226991	0.038416010	0.396330890	0.122153029
2020-03-03T21:20:00	0.3911	3.852		1.074908367	1.536050165	0.037274487	0.384554006	0.118523280
2020-03-03T21:25:00	0.3942	3.837		1.084192831	1.553708336	0.037919781	0.391211394	0.120575151
2020-03-03T21:30:00	0.3973	3.822		1.093163378	1.570849938	0.038549320	0.397706230	0.122576922
2020-03-03T21:35:00	0.3979	3.806		1.095067746	1.574499146	0.038683735	0.399092960	0.123004326
2020-03-03T21:40:00	0.3975	3.790		1.093738692	1.571951995	0.038589899	0.398124871	0.122705952
2020-03-03T21:45:00	0.3921	3.774		1.077975701	1.541874587	0.037486970	0.386746160	0.119198923
2020-03-03T21:50:00	0.3973	3.759		1.093138002	1.570801336	0.038547531	0.397687770	0.122571233
2020-03-03T21:55:00	0.3914	3.744		1.075897085	1.537926589	0.037342902	0.385259838	0.118740824
2020-03-03T22:00:00	0.3974	3.729		1.093419327	1.571340187	0.038567370	0.397892446	0.122634316
2020-03-03T22:05:00	0.3958	3.716		1.088723264	1.562355534	0.038236974	0.394483810	0.121583741
2020-03-03T22:10:00	0.3955	3.701		1.087850747	1.560688597	0.038175767	0.393852354	0.121389121
2020-03-03T22:15:00	0.3935	3.686		1.081969671	1.549472390	0.037764686	0.389611301	0.120081987
2020-03-03T22:20:00	0.3981	3.673		1.095518928	1.575364238	0.038715620	0.399421911	0.123105712
2020-03-03T22:25:00	0.3978	3.660		1.094647777	1.573694081	0.038654069	0.398786906	0.122909997
2020-03-03T22:30:00	0.3970	3.648		1.092306309	1.569208763	0.038488914	0.397083034	0.122384848
2020-03-03T22:35:00	0.3985	3.634		1.096725756	1.577679184	0.038800980	0.400302562	0.123377137
2020-03-03T22:40:00	0.3929	3.622		1.080253393	1.546205564	0.037645202	0.388378610	0.119702060
2020-03-03T22:45:00	0.3966	3.610		1.091161422	1.567017582	0.038408308	0.396251437	0.122128541
2020-03-03T22:50:00	0.3920	3.598		1.077619609	1.541197946	0.037462267	0.386491302	0.119120373
2020-03-03T22:55:00	0.3938	3.588		1.082938311	1.551317413	0.037832217	0.390308005	0.120296718
2020-03-03T23:00:00	0.3916	3.576		1.076460260	1.538995830	0.037381904	0.385662213	0.118864840
2020-03-03T23:05:00	0.3959	3.566		1.089143975	1.563159564	0.038266507	0.394788494	0.121677648
2020-03-03T23:10:00	0.3944	3.555		1.084737874	1.554747586	0.037957861	0.391604258	0.120696236
2020-03-03T23:15:00	0.3972	3.544		1.092989140	1.570516237	0.038537036	0.397579492	0.122537861
2020-03-03T23:20:00	0.3950	3.533		1.086526147	1.558159395	0.038082956	0.392894832	0.121094003
2020-03-03T23:25:00	0.3944	3.523		1.084769505	1.554807907	0.037960072	0.391627065	0.120703265
2020-03-03T23:30:00	0.3985	3.512		1.096841415	1.577901120	0.038809167	0.400387020	0.123403168
2020-03-03T23:35:00	0.4004	3.502		1.102429988	1.588640543	0.039205918	0.404480230	0.124664735
2020-03-03T23:40:00	0.3970	3.493		1.092453662	1.569490874	0.038499296	0.397190138	0.122417858
2020-03-03T23:45:00	0.3963	3.483		1.090405227	1.565571020	0.038355122	0.395702720	0.121959421
2020-03-03T23:50:00	0.3970	3.473		1.092180636	1.568968175	0.038480062	0.396991701	0.122356698
2020-03-03T23:55:00	0.3984	3.461		1.096306412	1.576874634	0.038771307	0.399996430	0.123282784
2020-03-04T00:00:00	0.3966	3.451		1.091025187	1.566756929	0.038398723	0.396152548	0.122098063
2020-03-04T00:05:00	0.3976	3.440		1.093976361	1.572407363	0.038606669	0.398297890	0.122759278
2020-03-04T00:10:00	0.3969	3.430		1.091928645	1.568485814	0.038462314	0.396808604	0.122300265
2020-03-04T00:15:00	0.3994	3.420		1.099285526	1.582594115	0.038982396	0.402174192	0.123953992
2020-03-04T00:20:00	0.3980	3.410		1.095183617	1.574721296	0.038691922	0.399177424	0.123030359
2020-03-04T00:25:00	0.3970	3.400		1.092254315	1.569109224	0.038485252	0.397045246	0.122373201
2020-03-04T00:30:00	0.3954	3.391		1.087556989	1.560127545	0.038155173	0.393639888	0.121323636
2020-03-04T00:35:00	0.3958	3.381		1.088744966	1.562397004	0.038238497	0.394499523	0.121588584
2020-03-04T00:40:00	0.4009	3.371		1.103739879	1.591162190	0.039299249	0.405443104	0.124961502
2020-03-04T00:45:00	0.3931	3.363		1.080812125	1.547268757	0.037684076	0.388779664	0.119825668
2020-03-04T00:50:00	0.3975	3.355		1.093777084	1.572025548	0.038592607	0.398152816	0.122714565
2020-03-04T00:55:00	0.3963	3.347		1.090258437	1.565290285	0.038344802	0.395596256	0.121926608
2020-03-04T01:00:00	0.3976	3.339		1.094092094	1.572629125	0.038614837	0.398382158	0.122785250
2020-03-04T01:05:00	0.4002	3.332		1.101738768	1.587310570	0.039156720	0.403972661	0.124508297
2020-03-04T01:10:00	0.3990	3.325		1.098226567	1.580560058	0.038907286	0.401399301	0.123715163
2020-03-04T01:15:00	0.3994	3.315		1.099411627	1.582836402	0.038991345	0.402266523	0.123982449
2020-03-04T01:20:00	0.3931	3.305		1.080885998	1.547409351	0.037689217	0.388832708	0.119842017
2020-03-04T01:25:00	0.3972	3.297		1.092968726	1.570477140	0.038535596	0.397564644	0.122533284
2020-03-04T01:30:00	0.3945	3.286		1.085033090	1.555310606	0.037978496	0.391817144	0.120761849
2020-03-04T01:35:00	0.3908	3.278		1.074130689	1.534574934	0.037220725	0.383999355	0.118352331
2020-03-04T01:40:00	0.3957	3.267		1.088587586	1.562096272	0.038227452	0.394385579	0.121553466
2020-03-04T01:45:00	0.3931	3.255		1.080938764	1.547509777	0.037692890	0.388870598	0.119853695
2020-03-04T01:50:00	0.3936	3.244		1.082423322	1.550336368	0.037796304	0.389937504	0.120182526
2020-03-04T01:55:00	0.3945	3.234		1.085085805	1.555411151	0.037982181	0.391855164	0.120773567
2020-03-04T02:00:00	0.3979	3.223		1.095100101	1.574561176	0.038686021	0.399116544	0.123011595
2020-03-04T02:05:00	0.3949	3.213		1.086285001	1.557699133	0.038066073	0.392720657	0.121040320
2020-03-04T02:10:00	0.3926	3.202		1.079222076	1.544243908	0.037573509	0.387638963	0.119474093
2020-03-04T02:15:00	0.3913	3.193		1.075396334	1.536976127	0.037308243	0.384902266	0.118630617
2020-03-04T02:20:00	0.3935	3.184		1.081897085	1.549334169	0.037759628	0.389559122	0.120065905
2020-03-04T02:25:00	0.3960	3.176		1.089271003	1.563402366	0.038275426	0.394880516	0.121706010
2020-03-04T02:30:00	0.3965	3.168		1.090752703	1.566235654	0.038379556	0.395954804	0.122037116
2020-03-04T02:35:00	0.3892	3.163		1.069234327	1.525300294	0.036883256	0.380517757	0.117279268
2020-03-04T02:40:00	0.3957	3.160		1.088419665	1.561775425	0.038215670	0.394264024	0.121516001
2020-03-04T02:45:00	0.3943	3.160		1.084307458	1.553926874	0.037927788	0.391293998	0.120600610
2020-03-04T02:50:00	0.3940	3.156		1.083434048	1.552262027	0.037866805	0.390664845	0.120406699
2020-03-04T02:55:00	0.3938	3.153		1.082855194	1.551159057	0.037826419	0.390248193	0.120278283
2020-03-04T03:00:00	0.3930	3.147		1.080507335	1.546688743	0.037662867	0.388560858	0.119758230
2020-03-04T03:05:00	0.3936	3.141		1.082286811	1.550076362	0.037786788	0.389839328	0.120152267
2020-03-04T03:10:00	0.3939	3.136		1.083181547	1.551780863	0.037849185	0.390483067	0.120350674
2020-03-04T03:15:00	0.3938	3.130		1.082897387	1.551239443	0.037829362	0.390278555	0.120287641
2020-03-04T03:20:00	0.3963	3.127		1.090269601	1.565311635	0.038345587	0.395604352	0.121929103
2020-03-04T03:25:00	0.3981	3.126		1.095572781	1.575467508	0.038719426	0.399461184	0.123117817
2020-03-04T03:30:00	0.3947	3.123		1.085580662	1.556355132	0.038016787	0.392212183	0.120883604
2020-03-04T03:35:00	0.3904	3.123		1.072907598	1.532255967	0.037136261	0.383127960	0.118083758
2020-03-04T03:40:00	0.3927	3.119		1.079707049	1.545166240	0.037607212	0.387986678	0.119581262
2020-03-04T03:45:00	0.3935	3.117		1.082076444	1.549675721	0.037772126	0.389688063	0.120105646
2020-03-04T03:50:00	0.3959	3.114		1.089155774	1.563182117	0.038267335	0.394797041	0.121680282
2020-03-04T03:55:00	0.3925	3.111		1.079148809	1.544104588	0.037568418	0.387586447	0.119457907
2020-03-04T04:00:00	0.3928	3.107		1.080044197	1.545807569	0.037630653	0.388228512	0.119655798
2020-03-04T04:05:00	0.3962	3.101		1.090101279	1.564989742	0.038333756	0.395482290	0.121891483
2020-03-04T04:10:00	0.3951	3.095		1.086610796	1.558320971	0.038088883	0.392955982	0.121112850
2020-03-04T04:15:00	0.3980	3.090		1.095183484	1.574721040	0.038691912	0.399177327	0.123030329
2020-03-04T04:20:00	0.3944	3.083		1.084632468	1.554546582	0.037950495	0.391528264	0.120672814
2020-03-04T04:25:00	0.3972	3.079		1.092915041	1.570374330	0.038531812	0.397525600	0.122521251
2020-03-04T04:30:00	0.3965	3.077		1.090897943	1.566513497	0.038389772	0.396060199	0.122069600
2020-03-04T04:35:00	0.3947	3.075		1.085641277	1.556470776	0.038021027	0.392255927	0.120897086
2020-03-04T04:40:00	0.3945	3.069		1.085093879	1.555426551	0.037982746	0.391860988	0.120775362
2020-03-04T04:45:00	0.3909	3.061		1.074222872	1.534749772	0.037227095	0.384065078	0.118372587
2020-03-04T04:50:00	0.3971	3.056		1.092535097	1.569646792	0.038505034	0.397249336	0.122436104
2020-03-04T04:55:00	0.3975	3.051		1.093752810	1.571979043	0.038590895	0.398135147	0.122709119
2020-03-04T05:00:00	0.3974	3.045		1.093500444	1.571495573	0.038573091	0.397951473	0.122652509
2020-03-04T05:05:00	0.3985	3.042		1.096774802	1.577773295	0.038804452	0.400338375	0.123388175
2020-03-04T05:10:00	0.3968	3.040		1.091819383	1.568276685	0.038454620	0.396729229	0.122275801
2020-03-04T05:15:00	0.3923	3.033		1.078605867	1.543072323	0.037530710	0.387197412	0.119338003
2020-03-04T05:20:00	0.3983	3.027		1.096018186	1.576321745	0.038750920	0.399786096	0.123217957
2020-03-04T05:25:00	0.3988	3.022		1.097528657	1.579220113	0.038857831	0.400889078	0.123557907
2020-03-04T05:30:00	0.3979	3.014		1.094925941	1.574227292	0.038673716	0.398989604	0.122972471
2020-03-04T05:35:00	0.3946	3.006		1.085258059	1.555739712	0.037994225	0.391979417	0.120811863
2020-03-04T05:40:00	0.4002	2.999		1.101763495	1.587358140	0.039158479	0.403990812	0.124513892
2020-03-04T05:45:00	0.4019	2.994		1.106790601	1.597041653	0.039517112	0.407690755	0.125654250
2020-03-04T05:50:00	0.4008	2.987		1.103606828	1.590905978	0.039289763	0.405345241	0.124931340
2020-03-04T05:55:00	0.4006	2.980		1.102768330	1.589291717	0.039230013	0.404728812	0.124741351
2020-03-04T06:00:00	0.4006	2.974		1.102809865	1.589371663	0.039232971	0.404759334	0.124750758
2020-03-04T06:05:00	0.3967	2.969		1.091395068	1.567464648	0.038424750	0.396421066	0.122180822
2020-03-04T06:10:00	0.3985	2.963		1.096727952	1.577683398	0.038801136	0.400304165	0.123377631
2020-03-04T06:15:00	0.4003	2.957		1.102054299	1.587917623	0.039179174	0.404204312	0.124579695
2020-03-04T06:20:00	0.4007	2.951		1.103269348	1.590256185	0.039265708	0.405097075	0.124854853
2020-03-04T06:25:00	0.4013	2.944		1.105070532	1.593725541	0.039394190	0.406422594	0.125263391
2020-03-04T06:30:00	0.4046	2.940		1.114484815	1.611911132	0.040069677	0.413391469	0.127411266
2020-03-04T06:35:00	0.4032	2.936		1.110428163	1.604064130	0.039777793	0.410380155	0.126483149
2020-03-04T06:40:00	0.4023	2.931		1.107833144	1.599052990	0.039591723	0.408460506	0.125891495
2020-03-04T06:45:00	0.4063	2.927		1.119580079	1.621790290	0.040438041	0.417191818	0.128582570
2020-03-04T06:50:00	0.4027	2.924		1.109088060	1.601475479	0.039681641	0.409388173	0.126177411
2020-03-04T06:55:00	0.4029	2.920		1.109715384	1.602687046	0.039726634	0.409852363	0.126320479
2020-03-04T07:00:00	0.4009	2.916		1.103894884	1.591460700	0.039310301	0.405557133	0.124996647
2020-03-04T07:05:00	0.4043	2.912		1.113604352	1.610206619	0.040006221	0.412736806	0.127209492
2020-03-04T07:10:00	0.4038	2.910		1.112182332	1.607455313	0.039903857	0.411680739	0.126884002
2020-03-04T07:15:00	0.4047	2.907		1.114857615	1.612633076	0.040096562	0.413668843	0.127496755
2020-03-04T07:20:00	0.4042	2.906		1.113436001	1.609880792	0.039994094	0.412611699	0.127170933
2020-03-04T07:25:00	0.4040	2.905		1.112892090	1.608828294	0.039954930	0.412207647	0.127046400
2020-03-04T07:30:00	0.4063	2.904		1.119660215	1.621945871	0.040443850	0.417251749	0.128601041
2020-03-04T07:35:00	0.4036	2.905		1.111804065	1.606723785	0.039876653	0.411400081	0.126797501
2020-03-04T07:40:00	0.4022	2.906		1.107451878	1.598317305	0.039564428	0.408178905	0.125804703
2020-03-04T07:45:00	0.3978	2.909		1.094579898	1.573563975	0.038649276	0.398737451	0.122894755
2020-03-04T07:50:00	0.4043	2.913		1.113684597	1.610361937	0.040012002	0.412796447	0.127227874
2020-03-04T07:55:00	0.4047	2.918		1.114896417	1.612708227	0.040099361	0.413697719	0.127505655
2020-03-04T08:00:00	0.4045	2.925		1.114352687	1.611655293	0.040060151	0.413293188	0.127380974
2020-03-04T08:05:00	0.4020	2.933		1.107073202	1.597586759	0.039537328	0.407899328	0.125718534
2020-03-04T08:10:00	0.4002	2.942		1.101836082	1.587497783	0.039163644	0.404044097	0.124530315
2020-03-04T08:15:00	0.4016	2.953		1.105690563	1.594920558	0.039438474	0.406879463	0.125404202
2020-03-04T08:20:00	0.4037	2.963		1.111884344	1.606879023	0.039882426	0.411459635	0.126815856
2020-03-04T08:25:00	0.3990	2.979		1.098144507	1.580402483	0.038901470	0.401339290	0.123696667
2020-03-04T08:30:00	0.3999	2.998		1.100828405	1.585559668	0.039091978	0.403304735	0.124302436
2020-03-04T08:35:00	0.4023	3.016		1.107908251	1.599197934	0.039597101	0.408515993	0.125908596
2020-03-04T08:40:00	0.4016	3.035		1.105898094	1.595320630	0.039453303	0.407032449	0.125451354
2020-03-04T08:45:00	0.4020	3.053		1.107112074	1.597661744	0.039540110	0.407928022	0.125727378
2020-03-04T08:50:00	0.3989	3.077		1.097765021	1.579673863	0.038874576	0.401061835	0.123611153
2020-03-04T08:55:00	0.4018	3.102		1.106315751	1.596125901	0.039483155	0.407340433	0.125546278
2020-03-04T09:00:00	0.3991	3.131		1.098435552	1.580961391	0.038922103	0.401552157	0.123762275
2020-03-04T09:05:00	0.4050	3.155		1.115768769	1.614398151	0.040162317	0.414347222	0.127705838
2020-03-04T09:10:00	0.4000	3.183		1.101160822	1.586198911	0.039115611	0.403548552	0.124377583
2020-03-04T09:15:00	0.4004	3.214		1.102376121	1.588536880	0.039202083	0.404440662	0.124652540
2020-03-04T09:20:00	0.4044	3.249		1.114137702	1.611239054	0.040044653	0.413133304	0.127331697
2020-03-04T09:25:00	0.4062	3.287		1.119442874	1.621523928	0.040428097	0.417089219	0.128550948
2020-03-04T09:30:00	0.4039	3.331		1.112464585	1.608001253	0.039924163	0.411890230	0.126948569
2020-03-04T09:35:00	0.4051	3.374		1.116017233	1.614879614	0.040180259	0.414532321	0.127762887
2020-03-04T09:40:00	0.4064	3.399		1.119859241	1.622332299	0.040458280	0.417400616	0.128646924
2020-03-04T09:45:00	0.4062	3.434		1.119316126	1.621277882	0.040418911	0.416994452	0.128521740
2020-03-04T09:50:00	0.4001	3.496		1.101493213	1.586838214	0.039139251	0.403792436	0.124452751
2020-03-04T09:55:00	0.4035	3.544		1.111500812	1.606137427	0.039854852	0.411175160	0.126728178
2020-03-04T10:00:00	0.4013	3.576		1.105096303	1.593775204	0.039396030	0.406441578	0.125269242
2020-03-04T10:05:00	0.4023	3.596		1.107820034	1.599027691	0.039590784	0.408450821	0.125888510
2020-03-04T10:10:00	0.4027	3.648		1.109077576	1.601455232	0.039680889	0.409380417	0.126175020
2020-03-04T10:15:00	0.4030	3.698		1.110041883	1.603317777	0.039750063	0.410094077	0.126394977
2020-03-04T10:20:00	0.3993	3.722		1.098983896	1.582014627	0.038960993	0.401953387	0.123885938
2020-03-04T10:25:00	0.4064	3.756		1.119867085	1.622347531	0.040458849	0.417406484	0.128648732
2020-03-04T10:30:00	0.4015	3.794		1.105610170	1.594765593	0.039432730	0.406820210	0.125385940
2020-03-04T10:35:00	0.4036	3.856		1.111555362	1.606242897	0.039858773	0.411215615	0.126740646
2020-03-04T10:40:00	0.4001	3.906		1.101381699	1.586623721	0.039131319	0.403710606	0.124427530
2020-03-04T10:45:00	0.4007	3.937		1.103227818	1.590176228	0.039262749	0.405066541	0.124845442
2020-03-04T10:50:00	0.4032	3.957		1.110640710	1.604474867	0.039793055	0.410537616	0.126531680
2020-03-04T10:55:00	0.3974	3.978		1.093414565	1.571331065	0.038567034	0.397888981	0.122633248
2020-03-04T11:00:00	0.4007	4.021		1.103191536	1.590106379	0.039260163	0.405039868	0.124837221
2020-03-04T11:05:00	0.3974	4.061		1.093586321	1.571660086	0.038579149	0.398013970	0.122671771
2020-03-04T11:10:00	0.3990	4.105		1.098079742	1.580278124	0.038896879	0.401291931	0.123682070
2020-03-04T11:15:00	0.3978	4.157		1.094639921	1.573679022	0.038653514	0.398781182	0.122908233
2020-03-04T11:20:00	0.3964	4.197		1.090609024	1.565960819	0.038369452	0.395850558	0.122004986
2020-03-04T11:25:00	0.3928	4.209		1.080091228	1.545897041	0.037633924	0.388262253	0.119666197
2020-03-04T11:30:00	0.3985	4.211		1.096660537	1.577554046	0.038796365	0.400254942	0.123362460
2020-03-04T11:35:00	0.3996	4.222		1.099976704	1.583922331	0.039031465	0.402680426	0.124110018
2020-03-04T11:40:00	0.3994	4.251		1.099475307	1.582958764	0.038995865	0.402313155	0.123996822
2020-03-04T11:45:00	0.3972	4.292		1.092803306	1.570160359	0.038523936	0.397444344	0.122496207
2020-03-04T11:50:00	0.3875	4.311		1.064272866	1.515926275	0.036543100	0.377008422	0.116197657
2020-03-04T11:55:00	0.3938	4.326		1.082966418	1.551370962	0.037834177	0.390328231	0.120302952
2020-03-04T12:00:00	0.3874	4.378		1.064149792	1.515694049	0.036534685	0.376921607	0.116170900
2020-03-04T12:05:00	0.3918	4.442		1.076945410	1.539917184	0.037415521	0.386009036	0.118971734
2020-03-04T12:10:00	0.3940	4.512		1.083519358	1.552424607	0.037872759	0.390726272	0.120425632
2020-03-04T12:15:00	0.3953	4.558		1.087434446	1.559893522	0.038146584	0.393551275	0.121296325
2020-03-04T12:20:00	0.3945	4.574		1.084870003	1.554999565	0.037967096	0.391699531	0.120725599
2020-03-04T12:25:00	0.3906	4.584		1.073452196	1.533288337	0.037173856	0.383515820	0.118203300
2020-03-04T12:30:00	0.3911	4.610		1.075015014	1.536252518	0.037281863	0.384630105	0.118546734
2020-03-04T12:35:00	0.3953	4.650		1.087189615	1.559426010	0.038129427	0.393374269	0.121241770
2020-03-04T12:40:00	0.3897	4.671		1.070756535	1.528181130	0.036987981	0.381598185	0.117612267
2020-03-04T12:45:00	0.3869	4.693		1.062559634	1.512694942	0.036426061	0.375800952	0.115825503
2020-03-04T12:50:00	0.3917	4.713		1.076835903	1.539709197	0.037407932	0.385930736	0.118947601
2020-03-04T12:55:00	0.3942	4.733		1.083999344	1.553339477	0.037906268	0.391071984	0.120532183
2020-03-04T13:00:00	0.3939	4.746		1.083201408	1.551818706	0.037850571	0.390497363	0.120355080
2020-03-04T13:05:00	0.3934	4.755		1.081813780	1.549175542	0.037753824	0.389499242	0.120047449
2020-03-04T13:10:00	0.3956	4.760		1.088085971	1.561137918	0.038192263	0.394022533	0.121441571
2020-03-04T13:15:00	0.3959	4.773		1.089054943	1.562989398	0.038260256	0.394724004	0.121657772
2020-03-04T13:20:00	0.3930	4.792		1.080597979	1.546861230	0.037669174	0.388625924	0.119778284
2020-03-04T13:25:00	0.3935	4.808		1.082158208	1.549831435	0.037777825	0.389746852	0.120123765
2020-03-04T13:30:00	0.3938	4.838		1.082833796	1.551118292	0.037824927	0.390232797	0.120273538
2020-03-04T13:35:00	0.3925	4.871		1.079086867	1.543986806	0.037564115	0.387542052	0.119444224
2020-03-04T13:40:00	0.3939	4.875		1.083300674	1.552007861	0.037857497	0.390568821	0.120377104
2020-03-04T13:45:00	0.3938	4.867		1.082797344	1.551048847	0.037822384	0.390206568	0.120265454
2020-03-04T13:50:00	0.3942	4.855		1.084062150	1.553459204	0.037910654	0.391117233	0.120546130
2020-03-04T13:55:00	0.3926	4.836		1.079431513	1.544642191	0.037588062	0.387789102	0.119520368
2020-03-04T14:00:00	0.3960	4.830		1.089240038	1.563343177	0.038273252	0.394858083	0.121699096
2020-03-04T14:05:00	0.3864	4.834		1.060982138	1.509722156	0.036318485	0.374691110	0.115483439
2020-03-04T14:10:00	0.3914	4.847		1.075854087	1.537844967	0.037339925	0.385229128	0.118731358
2020-03-04T14:15:00	0.3939	4.859		1.083313858	1.552032985	0.037858417	0.390578313	0.120380029
2020-03-04T14:20:00	0.3907	4.860		1.073664389	1.533690662	0.037188510	0.383667004	0.118249897
2020-03-04T14:25:00	0.3978	4.851		1.094669316	1.573735365	0.038655590	0.398802599	0.122914834
2020-03-04T14:30:00	0.3928	4.849		1.080034577	1.545789268	0.037629984	0.388221610	0.119653671
2020-03-04T14:35:00	0.3942	4.849		1.083952822	1.553250796	0.037903020	0.391038469	0.120521854
2020-03-04T14:40:00	0.3918	4.839		1.076961722	1.539948167	0.037416652	0.386020700	0.118975329
2020-03-04T14:45:00	0.3908	4.815		1.074095735	1.534508641	0.037218309	0.383974437	0.118344650
2020-03-04T14:50:00	0.3923	4.792		1.078609443	1.543079119	0.037530958	0.387199973	0.119338792
2020-03-04T14:55:00	0.3910	4.777		1.074563560	1.535396003	0.037250644	0.384308028	0.118447467
2020-03-04T15:00:00	0.3925	4.780		1.079076777	1.543967621	0.037563414	0.387534821	0.119441996
2020-03-04T15:05:00	0.3911	4.789		1.075031334	1.536283484	0.037282991	0.384641750	0.118550323
2020-03-04T15:10:00	0.3956	4.791		1.088089072	1.561143841	0.038192480	0.394024776	0.121442263
2020-03-04T15:15:00	0.3913	4.792		1.075499057	1.537171082	0.037315351	0.384975602	0.118653219
2020-03-04T15:20:00	0.3907	4.777		1.073813617	1.533973629	0.037198818	0.383773347	0.118282673
2020-03-04T15:25:00	0.3891	4.770		1.069171941	1.525182274	0.036878968	0.380473514	0.117265632
2020-03-04T15:30:00	0.3870	4.766		1.062748991	1.513051948	0.036438986	0.375934300	0.115866602
2020-03-04T15:35:00	0.3864	4.762		1.061058534	1.509866067	0.036323690	0.374744814	0.115499991
2020-03-04T15:40:00	0.3938	4.758		1.083009077	1.551452240	0.037837153	0.390358932	0.120312414
2020-03-04T15:45:00	0.3884	4.752		1.066855837	1.520803450	0.036719962	0.378833078	0.116760034
2020-03-04T15:50:00	0.3851	4.748		1.057169269	1.502546849	0.036059222	0.372016345	0.114659050
2020-03-04T15:55:00	0.3889	4.741		1.068507434	1.523925422	0.036833308	0.380002445	0.117120444
2020-03-04T16:00:00	0.3898	4.738		1.070958752	1.528564005	0.037001906	0.381741847	0.117656545
2020-03-04T16:05:00	0.3928	4.735		1.079896587	1.545526770	0.037620389	0.388122622	0.119623161
2020-03-04T16:10:00	0.3879	4.736		1.065502173	1.518246644	0.036627212	0.377876196	0.116465114
2020-03-04T16:15:00	0.3931	4.735		1.080942972	1.547517786	0.037693183	0.388873620	0.119854626
2020-03-04T16:20:00	0.3927	4.734		1.079549340	1.544866279	0.037596250	0.387873584	0.119546406
2020-03-04T16:25:00	0.3927	4.732		1.079630216	1.545020102	0.037601872	0.387931579	0.119564280
2020-03-04T16:30:00	0.3922	4.731		1.078236160	1.542369584	0.037505045	0.386932634	0.119256396
2020-03-04T16:35:00	0.3947	4.725		1.085686545	1.556557145	0.038024194	0.392288598	0.120907156
2020-03-04T16:40:00	0.3945	4.723		1.084883649	1.555025590	0.037968050	0.391709371	0.120728632
2020-03-04T16:45:00	0.3934	4.723		1.081722861	1.549002424	0.037747490	0.389433895	0.120027309
2020-03-04T16:50:00	0.3961	4.722		1.089755783	1.564329118	0.038309477	0.395231815	0.121814284
2020-03-04T16:55:00	0.3944	4.718		1.084536803	1.554364163	0.037943811	0.391459301	0.120651558
2020-03-04T17:00:00	0.3919	4.713		1.077246274	1.540488675	0.037436378	0.386224206	0.119038051
2020-03-04T17:05:00	0.3939	4.706		1.083225140	1.551863927	0.037852227	0.390514446	0.120360345
2020-03-04T17:10:00	0.3917	4.694		1.076817885	1.539674978	0.037406683	0.385917854	0.118943630
2020-03-04T17:15:00	0.3929	4.686		1.080144003	1.545997445	0.037637594	0.388300119	0.119677868
2020-03-04T17:20:00	0.3963	4.679		1.090239876	1.565254788	0.038343497	0.395582795	0.121922459
2020-03-04T17:25:00	0.3956	4.671		1.088260573	1.561471473	0.038204509	0.394148880	0.121480513
2020-03-04T17:30:00	0.3933	4.666		1.081565993	1.548703754	0.037736563	0.389321163	0.119992563
2020-03-04T17:35:00	0.3948	4.658		1.085772111	1.556720401	0.038030180	0.392350356	0.120926190
2020-03-04T17:40:00	0.3965	4.652		1.090856761	1.566434713	0.038386875	0.396030313	0.122060389
2020-03-04T17:45:00	0.4028	4.641		1.109430797	1.602137367	0.039706219	0.409641744	0.126255564
2020-03-04T17:50:00	0.3953	4.631		1.087192249	1.559431040	0.038129612	0.393376174	0.121242357
2020-03-04T17:55:00	0.3986	4.621		1.096977967	1.578163161	0.038818833	0.400486748	0.123433905
2020-03-04T18:00:00	0.3988	4.610		1.097645992	1.579445356	0.038866143	0.400974832	0.123584338
2020-03-04T18:05:00	0.3965	4.599		1.090965913	1.566643531	0.038394553	0.396109528	0.122084804
2020-03-04T18:10:00	0.3990	4.584		1.098100765	1.580318491	0.038898369	0.401307303	0.123686808
2020-03-04T18:15:00	0.3996	4.569		1.099943022	1.583857595	0.039029073	0.402655748	0.124102412
2020-03-04T18:20:00	0.3977	4.551		1.094442371	1.573300389	0.038639565	0.398637265	0.122863877
2020-03-04T18:25:00	0.3977	4.534		1.094522970	1.573454864	0.038645256	0.398695978	0.122881973
2020-03-04T18:30:00	0.3970	4.521		1.092251550	1.569103931	0.038485057	0.397043237	0.122372582
2020-03-04T18:35:00	0.3963	4.506		1.090273166	1.565318454	0.038345838	0.395606938	0.121929900
2020-03-04T18:40:00	0.3930	4.491		1.080633983	1.546929742	0.037671679	0.388651769	0.119786250
2020-03-04T18:45:00	0.3950	4.474		1.086313686	1.557753879	0.038068081	0.392741373	0.121046705
2020-03-04T18:50:00	0.3985	4.459		1.096688987	1.577608634	0.038798378	0.400275715	0.123368863
2020-03-04T18:55:00	0.3998	4.442		1.100586955	1.585095424	0.039074818	0.403127691	0.124247870
2020-03-04T19:00:00	0.3996	4.423		1.100080375	1.584121592	0.039038828	0.402756388	0.124133430
2020-03-04T19:05:00	0.4010	4.404		1.103975308	1.591615590	0.039316037	0.405616304	0.125014884
2020-03-04T19:10:00	0.4075	4.383		1.123077791	1.628586886	0.040692040	0.419812280	0.129390222
2020-03-04T19:15:00	0.4048	4.366		1.115266564	1.613425185	0.040126067	0.413973237	0.127590572
2020-03-04T19:20:00	0.3998	4.349		1.100695864	1.585304819	0.039082558	0.403207543	0.124272481
2020-03-04T19:25:00	0.3923	4.330		1.078412396	1.542704557	0.037517278	0.387058838	0.119295293
2020-03-04T19:30:00	0.4000	4.309		1.101150318	1.586178710	0.039114865	0.403540847	0.124375208
2020-03-04T19:35:00	0.4041	4.286		1.113246694	1.609514439	0.039980461	0.412471043	0.127127581
2020-03-04T19:40:00	0.4033	4.266		1.110692187	1.604574351	0.039796752	0.410575757	0.126543436
2020-03-04T19:45:00	0.4044	4.245		1.113992472	1.610957897	0.040034186	0.413025317	0.127298414
2020-03-04T19:50:00	0.3969	4.225		1.092071380	1.568759031	0.038472366	0.396912310	0.122332229
2020-03-04T19:55:00	0.3966	4.204		1.091269668	1.567224696	0.038415925	0.396330019	0.122152761
2020-03-04T20:00:00	0.3998	4.184		1.100459193	1.584849796	0.039065739	0.403034029	0.124219002
2020-03-04T20:05:00	0.4028	4.161		1.109336439	1.601955133	0.039699452	0.409571925	0.126234045
2020-03-04T20:10:00	0.3931	4.139		1.080909910	1.547454860	0.037690882	0.388849878	0.119847309
2020-03-04T20:15:00	0.4011	4.119		1.104221354	1.592089494	0.039333586	0.405797359	0.125070687
2020-03-04T20:20:00	0.3996	4.099		1.099900529	1.583775924	0.039026055	0.402624615	0.124092817
2020-03-04T20:25:00	0.4016	4.078		1.105848254	1.595224546	0.039449741	0.406995706	0.125440029
2020-03-04T20:30:00	0.4030	4.054		1.110030936	1.603296628	0.039749278	0.410085971	0.126392479
2020-03-04T20:35:00	0.3978	4.033		1.094561022	1.573527796	0.038647943	0.398723699	0.122890517
2020-03-04T20:40:00	0.3987	4.012		1.097286092	1.578754515	0.038840651	0.400711833	0.123503279
2020-03-04T20:45:00	0.4005	3.995		1.102650668	1.589065250	0.039221633	0.404642355	0.124714704
2020-03-04T20:50:00	0.3956	3.975		1.088331985	1.561607906	0.038209519	0.394200562	0.121496442
2020-03-04T20:55:00	0.4042	3.957		1.113360061	1.609733825	0.039988625	0.412555271	0.127153541
2020-03-04T21:00:00	0.3989	3.936		1.097901976	1.579936804	0.038884281	0.401161955	0.123642011
2020-03-04T21:05:00	0.3959	3.914		1.089162741	1.563195433	0.038267824	0.394802087	0.121681838
2020-03-04T21:10:00	0.4003	3.892		1.101879320	1.587580969	0.039166721	0.404075840	0.124540098
2020-03-04T21:15:00	0.3984	3.871		1.096381120	1.577017955	0.038776593	0.400050959	0.123299591
2020-03-04T21:20:00	0.3941	3.849		1.083809986	1.552978527	0.037893047	0.390935577	0.120490141
2020-03-04T21:25:00	0.3975	3.828		1.093897317	1.572255910	0.038601091	0.398240343	0.122741541
2020-03-04T21:30:00	0.3975	3.807		1.093683951	1.571847121	0.038586037	0.398085026	0.122693671
2020-03-04T21:35:00	0.4005	3.786		1.102575005	1.588919628	0.039216244	0.404586764	0.124697570
2020-03-04T21:40:00	0.4001	3.766		1.101481779	1.586816221	0.039138438	0.403784046	0.124450164
2020-03-04T21:45:00	0.3999	3.745		1.100975303	1.585842142	0.039102421	0.403412469	0.124335641
2020-03-04T21:50:00	0.3978	3.725		1.094594279	1.573591540	0.038650291	0.398747929	0.122897984
2020-03-04T21:55:00	0.3959	3.707		1.089086842	1.563050367	0.038262495	0.394747110	0.121664893
2020-03-04T22:00:00	0.3964	3.688		1.090638747	1.566017672	0.038371542	0.395872122	0.122011633
2020-03-04T22:05:00	0.3982	3.672		1.095837241	1.575974688	0.038738124	0.399654082	0.123177270
2020-03-04T22:10:00	0.3996	3.653		1.099855409	1.583689206	0.039022851	0.402591559	0.124082629
2020-03-04T22:15:00	0.3960	3.636		1.089474521	1.563791401	0.038289719	0.395027974	0.121751458
2020-03-04T22:20:00	0.4003	3.620		1.102016146	1.587844216	0.039176458	0.404176298	0.124571060
2020-03-04T22:25:00	0.3955	3.604		1.087815137	1.560620580	0.038173270	0.393826595	0.121381181
2020-03-04T22:30:00	0.3973	3.588		1.093311035	1.571132755	0.038559732	0.397813652	0.122610031
2020-03-04T22:35:00	0.3988	3.574		1.097625267	1.579405569	0.038864675	0.400959684	0.123579669
2020-03-04T22:40:00	0.3941	3.559		1.083704524	1.552777512	0.037885684	0.390859617	0.120466730
2020-03-04T22:45:00	0.3949	3.543		1.086261753	1.557654763	0.038064446	0.392703868	0.121035146
2020-03-04T22:50:00	0.3976	3.528		1.094111904	1.572667086	0.038616236	0.398396583	0.122789696
2020-03-04T22:55:00	0.3983	3.514		1.096075394	1.576431476	0.038754966	0.399827838	0.123230823
2020-03-04T23:00:00	0.4043	3.501		1.113868483	1.610717877	0.040025251	0.412933136	0.127270003
2020-03-04T23:05:00	0.3958	3.487		1.088830171	1.562559829	0.038244477	0.394561220	0.121607600
2020-03-04T23:10:00	0.3978	3.474		1.094618715	1.573638376	0.038652017	0.398765731	0.122903471
2020-03-04T23:15:00	0.3989	3.462		1.098050670	1.580222301	0.038894818	0.401270672	0.123675518
2020-03-04T23:20:00	0.3978	3.451		1.094725143	1.573842375	0.038659533	0.398843276	0.122927371
2020-03-04T23:25:00	0.3931	3.439		1.080795059	1.547236278	0.037682888	0.388767411	0.119821892
2020-03-04T23:30:00	0.4002	3.430		1.101586179	1.587017038	0.039145864	0.403860663	0.124473779
2020-03-04T23:35:00	0.3997	3.419		1.100318595	1.584579506	0.039055750	0.402930969	0.124187238
2020-03-04T23:40:00	0.3967	3.409		1.091409760	1.567492762	0.038425784	0.396431734	0.122184110
2020-03-04T23:45:00	0.3972	3.401		1.092786421	1.570128024	0.038522746	0.397432065	0.122492422
2020-03-04T23:50:00	0.3992	3.392		1.098863337	1.581783038	0.038952441	0.401865153	0.123858743
2020-03-04T23:55:00	0.3962	3.384		1.089951513	1.564703360	0.038323230	0.395373702	0.121858015
2020-03-05T00:00:00	0.4016	3.373		1.105717858	1.594973174	0.039440424	0.406899582	0.125410403
2020-03-05T00:05:00	0.4042	3.363		1.113533022	1.610068563	0.040001083	0.412683795	0.127193154
2020-03-05T00:10:00	0.4023	3.354		1.107875692	1.599135101	0.039594770	0.408491939	0.125901183
2020-03-05T00:15:00	0.3970	3.342		1.092223671	1.569050560	0.038483093	0.397022975	0.122366337
2020-03-05T00:20:00	0.3990	3.329		1.098301374	1.580703713	0.038912590	0.401454013	0.123732026
2020-03-05T00:25:00	0.3972	3.316		1.092918271	1.570380516	0.038532040	0.397527949	0.122521975
2020-03-05T00:30:00	0.4021	3.305		1.107208770	1.597848281	0.039547029	0.407999405	0.125749379
2020-03-05T00:35:00	0.3992	3.293		1.098901351	1.581856060	0.038955138	0.401892973	0.123867317
2020-03-05T00:40:00	0.4029	3.282		1.109658786	1.602577722	0.039722574	0.409810471	0.126307567
2020-03-05T00:45:00	0.3976	3.270		1.094013186	1.572477923	0.038609268	0.398324702	0.122767542
2020-03-05T00:50:00	0.3991	3.257		1.098620381	1.581316370	0.038935209	0.401687373	0.123803949
2020-03-05T00:55:00	0.4024	3.245		1.108206643	1.599773830	0.039618473	0.408736479	0.125976552
2020-03-05T01:00:00	0.4028	3.233		1.109285079	1.601855945	0.039695768	0.409533925	0.126222333
2020-03-05T01:05:00	0.3911	3.220		1.075077149	1.536370417	0.037286161	0.384674445	0.118560400
2020-03-05T01:10:00	0.3996	3.207		1.100007427	1.583981380	0.039033647	0.402702936	0.124116956
2020-03-05T01:15:00	0.3971	3.194		1.092568504	1.569710754	0.038507388	0.397273622	0.122443589
2020-03-05T01:20:00	0.3980	3.181		1.095120506	1.574600296	0.038687462	0.399131418	0.123016179
2020-03-05T01:25:00	0.4039	3.169		1.112624784	1.608311149	0.039935691	0.412009160	0.126985224
2020-03-05T01:30:00	0.3964	3.157		1.090522288	1.565794916	0.038363352	0.395787634	0.121985593
2020-03-05T01:35:00	0.3990	3.145		1.098071061	1.580261454	0.038896264	0.401285582	0.123680114
2020-03-05T01:40:00	0.3992	3.132		1.098858382	1.581773519	0.038952089	0.401861526	0.123857625
2020-03-05T01:45:00	0.3976	3.119		1.094063927	1.572575151	0.038612849	0.398361648	0.122778929
2020-03-05T01:50:00	0.3938	3.107		1.082785059	1.551025444	0.037821528	0.390197729	0.120262730
2020-03-05T01:55:00	0.3976	3.095		1.094170369	1.572779119	0.038620362	0.398439157	0.122802818
2020-03-05T02:00:00	0.3946	3.082		1.085248884	1.555722211	0.037993584	0.391972799	0.120809823
2020-03-05T02:05:00	0.3973	3.070		1.093100870	1.570730219	0.038544913	0.397660760	0.122562908
2020-03-05T02:10:00	0.3967	3.058		1.091536688	1.567735656	0.038434718	0.396523904	0.122212518
2020-03-05T02:15:00	0.3950	3.048		1.086439663	1.557994321	0.038076900	0.392832361	0.121074749
2020-03-05T02:20:00	0.3982	3.038		1.095758963	1.575824560	0.038732589	0.399596981	0.123159670
2020-03-05T02:25:00	0.3976	3.028		1.094195739	1.572827735	0.038622153	0.398457633	0.122808512
2020-03-05T02:30:00	0.3915	3.017		1.076133397	1.538375211	0.037359265	0.385428648	0.118792853
2020-03-05T02:35:00	0.3951	3.008		1.086652919	1.558401379	0.038091833	0.392986414	0.121122229
2020-03-05T02:40:00	0.3951	2.997		1.086853458	1.558784205	0.038105877	0.393131312	0.121166889
2020-03-05T02:45:00	0.3968	2.987		1.091762386	1.568167596	0.038450607	0.396687826	0.122263041
2020-03-05T02:50:00	0.3961	2.978		1.089609238	1.564048944	0.038299182	0.395125601	0.121781548
2020-03-05T02:55:00	0.4015	2.967		1.105670008	1.594880936	0.039437005	0.406864313	0.125399533
2020-03-05T03:00:00	0.3975	2.958		1.093833388	1.572133424	0.038596580	0.398193803	0.122727197
2020-03-05T03:05:00	0.3983	2.950		1.096090835	1.576461096	0.038756058	0.399839106	0.123234296
2020-03-05T03:10:00	0.3958	2.941		1.088939508	1.562768781	0.038252152	0.394640400	0.121632004
2020-03-05T03:15:00	0.3996	2.932		1.100015140	1.583996206	0.039034194	0.402708588	0.124118698
2020-03-05T03:20:00	0.3977	2.922		1.094340231	1.573104637	0.038632353	0.398562866	0.122840946
2020-03-05T03:25:00	0.3968	2.913		1.091600151	1.567857106	0.038439186	0.396569992	0.122226723
2020-03-05T03:30:00	0.3975	2.905		1.093858760	1.572182036	0.038598370	0.398212273	0.122732890
2020-03-05T03:35:00	0.3950	2.898		1.086409278	1.557936326	0.038074773	0.392810414	0.121067985
2020-03-05T03:40:00	0.3965	2.889		1.090730379	1.566192950	0.038377986	0.395938606	0.122032124
2020-03-05T03:45:00	0.4002	2.880		1.101801450	1.587431158	0.039161180	0.404018674	0.124522479
2020-03-05T03:50:00	0.3977	2.873		1.094365600	1.573153256	0.038634144	0.398581344	0.122846641
2020-03-05T03:55:00	0.3954	2.866		1.087505838	1.560029859	0.038151588	0.393602898	0.121312236
2020-03-05T04:00:00	0.3962	2.859		1.090060822	1.564912378	0.038330912	0.395452955	0.121882441
2020-03-05T04:05:00	0.3982	2.851		1.095884067	1.576064499	0.038741435	0.399688243	0.123187798
2020-03-05T04:10:00	0.4010	2.845		1.104046429	1.591752569	0.039321109	0.405668634	0.125031013
2020-03-05T04:15:00	0.3966	2.838		1.091065268	1.566833613	0.038401543	0.396181641	0.122107029
2020-03-05T04:20:00	0.3984	2.831		1.096299591	1.576861547	0.038770825	0.399991451	0.123281250
2020-03-05T04:25:00	0.3956	2.826		1.088302047	1.561550708	0.038207419	0.394178895	0.121489764
2020-03-05T04:30:00	0.3995	2.820		1.099709204	1.583408228	0.039012470	0.402484459	0.124049619
2020-03-05T04:35:00	0.3977	2.815		1.094364202	1.573150576	0.038634046	0.398580326	0.122846327
2020-03-05T04:40:00	0.4021	2.809		1.107221085	1.597872039	0.039547910	0.408008497	0.125752181
2020-03-05T04:45:00	0.3985	2.802		1.096600343	1.577438550	0.038792105	0.400210993	0.123348915
2020-03-05T04:50:00	0.3997	2.797		1.100360585	1.584660228	0.039058733	0.402961747	0.124196724
2020-03-05T04:55:00	0.4010	2.790		1.104117582	1.591889615	0.039326184	0.405720992	0.125047150
2020-03-05T05:00:00	0.3982	2.782		1.095840602	1.575981135	0.038738362	0.399656535	0.123178025
2020-03-05T05:05:00	0.3990	2.776		1.098133330	1.580381022	0.038900677	0.401331117	0.123694148
2020-03-05T05:10:00	0.3980	2.769		1.095138114	1.574634056	0.038688707	0.399144254	0.123020135
2020-03-05T05:15:00	0.4002	2.763		1.101834952	1.587495609	0.039163564	0.404043267	0.124530059
2020-03-05T05:20:00	0.4035	2.756		1.111450372	1.606039909	0.039851226	0.411137757	0.126716650
2020-03-05T05:25:00	0.4016	2.749		1.105826605	1.595182810	0.039448194	0.406979746	0.125435110
2020-03-05T05:30:00	0.4013	2.743		1.104889763	1.593377207	0.039381284	0.406289450	0.125222354
2020-03-05T05:35:00	0.4003	2.736		1.101899195	1.587619205	0.039168135	0.404090431	0.124544595
2020-03-05T05:40:00	0.4009	2.730		1.103895449	1.591461787	0.039310342	0.405557549	0.124996775
2020-03-05T05:45:00	0.3949	2.723		1.086204515	1.557545528	0.038060439	0.392662534	0.121022406
2020-03-05T05:50:00	0.4026	2.717		1.108764211	1.600850172	0.039658425	0.409148659	0.126103590
2020-03-05T05:55:00	0.4045	2.711		1.114269936	1.611495070	0.040054185	0.413231642	0.127362005
2020-03-05T06:00:00	0.4030	2.705		1.109821543	1.602892114	0.039734251	0.409930946	0.126344699
2020-03-05T06:05:00	0.4008	2.701		1.103609087	1.590910328	0.039289924	0.405346902	0.124931852
2020-03-05T06:10:00	0.4045	2.698		1.114391130	1.611729727	0.040062922	0.413321782	0.127389787
2020-03-05T06:15:00	0.4041	2.695		1.113163458	1.609353368	0.039974467	0.412409207	0.127108523
2020-03-05T06:20:00	0.4006	2.692		1.102850569	1.589450011	0.039235871	0.404789247	0.124759977
2020-03-05T06:25:00	0.4033	2.688		1.110707080	1.604603132	0.039797822	0.410586792	0.126546837
2020-03-05T06:30:00	0.4061	2.686		1.119134091	1.620924540	0.040405721	0.416858370	0.128479798
2020-03-05T06:35:00	0.4095	2.685		1.129003300	1.640128816	0.041124447	0.424273342	0.130765165
2020-03-05T06:40:00	0.4055	2.684		1.117265898	1.617300154	0.040270495	0.415463270	0.128049815
2020-03-05T06:45:00	0.4053	2.684		1.116623955	1.616055554	0.040224089	0.414984515	0.127902258
2020-03-05T06:50:00	0.4025	2.683		1.108370682	1.600090463	0.039630224	0.408857719	0.126013920
2020-03-05T06:55:00	0.4039	2.683		1.112706241	1.608468732	0.039941553	0.412069639	0.127003865
2020-03-05T07:00:00	0.4039	2.685		1.112649085	1.608358161	0.039937440	0.412027202	0.126990785
2020-03-05T07:05:00	0.4078	2.686		1.123992862	1.630367017	0.040758644	0.420499414	0.129602003
2020-03-05T07:10:00	0.4039	2.687		1.112534772	1.608137023	0.039929213	0.411942334	0.126964628
2020-03-05T07:15:00	0.4095	2.690		1.128839370	1.639809037	0.041112449	0.424149559	0.130727013
2020-03-05T07:20:00	0.4033	2.692		1.110956594	1.605085379	0.039815744	0.410771696	0.126603826
2020-03-05T07:25:00	0.4046	2.694		1.114704489	1.612336525	0.040085518	0.413554900	0.127461637
2020-03-05T07:30:00	0.4069	2.698		1.121371419	1.625269624	0.040568011	0.418532691	0.128995840
2020-03-05T07:35:00	0.4035	2.703		1.111370683	1.605885844	0.039845499	0.411078667	0.126698437
2020-03-05T07:40:00	0.3986	2.711		1.096942798	1.578095670	0.038816344	0.400461062	0.123425989
2020-03-05T07:45:00	0.4065	2.720		1.120031582	1.622666947	0.040470777	0.417529547	0.128686661
2020-03-05T07:50:00	0.4071	2.729		1.122019582	1.626529341	0.040615098	0.419018475	0.129145563
2020-03-05T07:55:00	0.4081	2.743		1.124882452	1.632098376	0.040823453	0.421168038	0.129808080
2020-03-05T08:00:00	0.4073	2.758		1.122489657	1.627443201	0.040649267	0.419370989	0.129254212
2020-03-05T08:05:00	0.4046	2.775		1.114540025	1.612018039	0.040073658	0.413432540	0.127423924
2020-03-05T08:10:00	0.4081	2.792		1.124711458	1.631765519	0.040810991	0.421039470	0.129768454
2020-03-05T08:15:00	0.4110	2.809		1.133403028	1.648721374	0.041447228	0.427603409	0.131791524
2020-03-05T08:20:00	0.4094	2.830		1.128682338	1.639502738	0.041100958	0.424031003	0.130690473
2020-03-05T08:25:00	0.4056	2.854		1.117528881	1.617810145	0.040289514	0.415659493	0.128110293
2020-03-05T08:30:00	0.4076	2.876		1.123315622	1.629049470	0.040709345	0.419990807	0.129445245
2020-03-05T08:35:00	0.4101	2.898		1.130552591	1.643152343	0.041237942	0.425444247	0.131126049
2020-03-05T08:40:00	0.4074	2.920		1.122909571	1.628259732	0.040679804	0.419686034	0.129351312
2020-03-05T08:45:00	0.4070	2.943		1.121684281	1.625877624	0.040590735	0.418767133	0.129068097
2020-03-05T08:50:00	0.4082	2.970		1.125131161	1.632582565	0.040841583	0.421355081	0.129865728
2020-03-05T08:55:00	0.4073	2.995		1.122446456	1.627359205	0.040646126	0.419338585	0.129244225
2020-03-05T09:00:00	0.4058	3.025		1.118006356	1.618736266	0.040324060	0.416015895	0.128220139
2020-03-05T09:05:00	0.4085	3.055		1.126127576	1.634523011	0.040914264	0.422104919	0.130096835
2020-03-05T09:10:00	0.4086	3.085		1.126362400	1.634980458	0.040931404	0.422281745	0.130151335
2020-03-05T09:15:00	0.4074	3.118		1.122802438	1.628051393	0.040672011	0.419605643	0.129326534
2020-03-05T09:20:00	0.4058	3.153		1.118070363	1.618860431	0.040328692	0.416063684	0.128234868
2020-03-05T09:25:00	0.4028	3.191		1.109233984	1.601757270	0.039692104	0.409496122	0.126210682
2020-03-05T09:30:00	0.4073	3.233		1.122631364	1.627718733	0.040659570	0.419477291	0.129286975
2020-03-05T09:35:00	0.4051	3.280		1.116144606	1.615126457	0.040189458	0.414627230	0.127792139
2020-03-05T09:40:00	0.4072	3.324		1.122225250	1.626929148	0.040630045	0.419172687	0.129193093
2020-03-05T09:45:00	0.4081	3.367		1.124796096	1.631930272	0.040817159	0.421103106	0.129788067
2020-03-05T09:50:00	0.4057	3.410		1.117727838	1.618196019	0.040303907	0.415807979	0.128156057
2020-03-05T09:55:00	0.4074	3.449		1.122930310	1.628300062	0.040681312	0.419701596	0.129356108
2020-03-05T10:00:00	0.4063	3.490		1.119659818	1.621945100	0.040443822	0.417251452	0.128600950
2020-03-05T10:05:00	0.4064	3.530		1.119801781	1.622220732	0.040454114	0.417357634	0.128633676
2020-03-05T10:10:00	0.4060	3.572		1.118774699	1.620227033	0.040379686	0.416589779	0.128397016
2020-03-05T10:15:00	0.4085	3.615		1.125926057	1.634130487	0.040899559	0.421953206	0.130050076
2020-03-05T10:20:00	0.4063	3.661		1.119643201	1.621912839	0.040442617	0.417239025	0.128597120
2020-03-05T10:25:00	0.4087	3.707		1.126501372	1.635251206	0.040941549	0.422386413	0.130183595
2020-03-05T10:30:00	0.4088	3.750		1.126934882	1.636095906	0.040973206	0.422713013	0.130284256
2020-03-05T10:35:00	0.4049	3.802		1.115391177	1.613666585	0.040135060	0.414066016	0.127619167
2020-03-05T10:40:00	0.3969	3.855		1.092069115	1.568754695	0.038472207	0.396910664	0.122331721
2020-03-05T10:45:00	0.4051	3.908		1.115967872	1.614783961	0.040176694	0.414495545	0.127751552
2020-03-05T10:50:00	0.4050	3.966		1.115817469	1.614492515	0.040165833	0.414383498	0.127717019
2020-03-05T10:55:00	0.3942	4.028		1.083961399	1.553267145	0.037903619	0.391044648	0.120523758
2020-03-05T11:00:00	0.4042	4.086		1.113468552	1.609943788	0.039996439	0.412635886	0.127178388
2020-03-05T11:05:00	0.4074	4.147		1.122673306	1.627800288	0.040662620	0.419508757	0.129296673
2020-03-05T11:10:00	0.3989	4.199		1.097921969	1.579975189	0.038885697	0.401176571	0.123646516
2020-03-05T11:15:00	0.4080	4.246		1.124416899	1.631192197	0.040789529	0.420818047	0.129700209
2020-03-05T11:20:00	0.4077	4.292		1.123682877	1.629763895	0.040736074	0.420266571	0.129530239
2020-03-05T11:25:00	0.4081	4.335		1.124992411	1.632312437	0.040831468	0.421250727	0.129833565
2020-03-05T11:30:00	0.4083	4.381		1.125426070	1.633156775	0.040863086	0.421576929	0.129934104
2020-03-05T11:35:00	0.3983	4.431		1.096285448	1.576834416	0.038769824	0.399981129	0.123278068
2020-03-05T11:40:00	0.4107	4.479		1.132416804	1.646793627	0.041374747	0.426855643	0.131561055
2020-03-05T11:45:00	0.4067	4.525		1.120887493	1.624329376	0.040532876	0.418170212	0.128884121
2020-03-05T11:50:00	0.4031	4.564		1.110206549	1.603635921	0.039761883	0.410216015	0.126432560
2020-03-05T11:55:00	0.4103	4.594		1.131384375	1.644776601	0.041298950	0.426073655	0.131320039
2020-03-05T12:00:00	0.4062	4.614		1.119267862	1.621184195	0.040415413	0.416958370	0.128510619
2020-03-05T12:05:00								
2020-03-05T12:10:00	0.4304	8.103	165.0	1.189430444	1.759836213	0.045686749	0.471341771	0.145272111
2020-03-05T12:15:00	0.4003	5.676	160.0	1.102124288	1.588052289	0.039184155	0.404255706	0.124595535
2020-03-05T12:20:00	0.3943	5.682	160.0	1.084332152	1.553973955	0.037929513	0.391311794	0.120606095
2020-03-05T12:25:00	0.3949	5.699	159.0	1.086242574	1.557618161	0.038063103	0.392690017	0.121030877
2020-03-05T12:30:00	0.3980	5.709	158.0	1.095211045	1.574773883	0.038693860	0.399197420	0.123036522
2020-03-05T12:35:00	0.3972	5.720	158.0	1.093002195	1.570541238	0.038537956	0.397588987	0.122540787
2020-03-05T12:40:00	0.3974	5.729	157.0	1.093439040	1.571377949	0.038568760	0.397906790	0.122638737
2020-03-05T12:45:00	0.3975	5.738	156.0	1.093875841	1.572214762	0.038599576	0.398224708	0.122736722
2020-03-05T12:50:00	0.3922	5.747	156.0	1.078115524	1.542140309	0.037496673	0.386846258	0.119229774
2020-03-05T12:55:00	0.3902	5.754	156.0	1.072354097	1.531207017	0.037098074	0.382733990	0.117962333
2020-03-05T13:00:00	0.3944	5.763	156.0	1.084593261	1.554471819	0.037947756	0.391500000	0.120664102
2020-03-05T13:05:00	0.3929	5.774	157.0	1.080315219	1.546323194	0.037649502	0.388422976	0.119715734
2020-03-05T13:10:00	0.3921	5.785	155.0	1.077803691	1.541547721	0.037475036	0.386623039	0.119160975
2020-03-05T13:15:00	0.3942	5.787	157.0	1.084138770	1.553605272	0.037916006	0.391172440	0.120563145
2020-03-05T13:20:00	0.3966	5.790	158.0	1.091052940	1.566810028	0.038400676	0.396172693	0.122104271
2020-03-05T13:25:00	0.3952	5.794	159.0	1.087075731	1.559208566	0.038121448	0.393291950	0.121216399
2020-03-05T13:30:00	0.3931	5.803	154.0	1.080736581	1.547124988	0.037678819	0.388725425	0.119808951
2020-03-05T13:35:00	0.3937	5.813	158.0	1.082648593	1.550765474	0.037812011	0.390099547	0.120232469
2020-03-05T13:40:00	0.3965	5.830	157.0	1.090742041	1.566215258	0.038378806	0.395947068	0.122034732
2020-03-05T13:45:00	0.3936	5.846	158.0	1.082345469	1.550188083	0.037790877	0.389881512	0.120165268
2020-03-05T13:50:00	0.3959	5.860	158.0	1.088968209	1.562823632	0.038254167	0.394661185	0.121638410
2020-03-05T13:55:00	0.3926	5.876	158.0	1.079388517	1.544560423	0.037585074	0.387758277	0.119510867
2020-03-05T14:00:00	0.3952	5.890	157.0	1.086899214	1.558871558	0.038109082	0.393164378	0.121177080
2020-03-05T14:05:00	0.3940	5.898	157.0	1.083507576	1.552402153	0.037871937	0.390717788	0.120423017
2020-03-05T14:10:00	0.3936	5.904	157.0	1.082177138	1.549867487	0.037779144	0.389760463	0.120127960
2020-03-05T14:15:00	0.3968	5.907	156.0	1.091742298	1.568129150	0.038449193	0.396673235	0.122258543
2020-03-05T14:20:00	0.3956	5.907	151.0	1.088354455	1.561650836	0.038211095	0.394216826	0.121501454
2020-03-05T14:25:00	0.3921	5.906	155.0	1.077888310	1.541708516	0.037480907	0.386683604	0.119179642
2020-03-05T14:30:00	0.3983	5.903	156.0	1.096286180	1.576835820	0.038769876	0.399981663	0.123278233
2020-03-05T14:35:00	0.3986	5.900	155.0	1.097016463	1.578237038	0.038821559	0.400514866	0.123442571
2020-03-05T14:40:00	0.3974	5.893	158.0	1.093632739	1.571749010	0.038582424	0.398047752	0.122682183
2020-03-05T14:45:00	0.3933	5.882	155.0	1.081410822	1.548408338	0.037725756	0.389209669	0.119958200
2020-03-05T14:50:00	0.3977	5.872	153.0	1.094506258	1.573422833	0.038644076	0.398683804	0.122878220
2020-03-05T14:55:00	0.3895	5.867	153.0	1.070184678	1.527098603	0.036948619	0.381192088	0.117487104
2020-03-05T15:00:00	0.3946	5.868	152.0	1.085376494	1.555965635	0.038002507	0.392064862	0.120838198
2020-03-05T15:05:00	0.3934	5.874	153.0	1.081688870	1.548937705	0.037745122	0.389409466	0.120019779
2020-03-05T15:10:00	0.3950	5.884	151.0	1.086546159	1.558197592	0.038084357	0.392909288	0.121098458
2020-03-05T15:15:00	0.3985	5.888	151.0	1.096689287	1.577609209	0.038798399	0.400275933	0.123368930
2020-03-05T15:20:00	0.4026	5.891	150.0	1.108860008	1.601035131	0.039665291	0.409219500	0.126125424
2020-03-05T15:25:00	0.3991	5.900	149.0	1.098443269	1.580976211	0.038922650	0.401557802	0.123764014
2020-03-05T15:30:00	0.3962	5.907	153.0	1.090061622	1.564913908	0.038330968	0.395453535	0.121882620
2020-03-05T15:35:00	0.3982	5.912	152.0	1.095791146	1.575886283	0.038734865	0.399620457	0.123166906
2020-03-05T15:40:00	0.3892	5.920	148.0	1.069407819	1.525628519	0.036895184	0.380640809	0.117317194
2020-03-05T15:45:00	0.3964	5.927	147.0	1.090490399	1.565733922	0.038361110	0.395764501	0.121978463
2020-03-05T15:50:00	0.3947	5.928	147.0	1.085629167	1.556447673	0.038020180	0.392247188	0.120894393
2020-03-05T15:55:00	0.3938	5.930	153.0	1.082826018	1.551103475	0.037824384	0.390227200	0.120271813
2020-03-05T16:00:00	0.3960	5.933	152.0	1.089448023	1.563740748	0.038287858	0.395008774	0.121745540
2020-03-05T16:05:00	0.3969	5.934	148.0	1.091996599	1.568615886	0.038467100	0.396857974	0.122315482
2020-03-05T16:10:00	0.3971	5.929	151.0	1.092485704	1.569552220	0.038501553	0.397213430	0.122425037
2020-03-05T16:15:00	0.3972	5.923	149.0	1.092974754	1.570488684	0.038536021	0.397569028	0.122534636
2020-03-05T16:20:00	0.3973	5.920	149.0	1.093169739	1.570862120	0.038549769	0.397710857	0.122578349
2020-03-05T16:25:00	0.3950	5.916	154.0	1.086302812	1.557733126	0.038067320	0.392733520	0.121044285
2020-03-05T16:30:00	0.3968	5.913	149.0	1.091795365	1.568230715	0.038452929	0.396711782	0.122270424
2020-03-05T16:35:00	0.3987	5.909	149.0	1.097280968	1.578744681	0.038840288	0.400708090	0.123502125
2020-03-05T16:40:00	0.3983	5.899	149.0	1.096006871	1.576300041	0.038750120	0.399777840	0.123215413
2020-03-05T16:45:00	0.3952	5.889	147.0	1.087083902	1.559224166	0.038122020	0.393297856	0.121218219
2020-03-05T16:50:00	0.3967	5.882	147.0	1.091399066	1.567472298	0.038425032	0.396423969	0.122181717
2020-03-05T16:55:00	0.3938	5.876	146.0	1.082761325	1.550980228	0.037819872	0.390180652	0.120257466
2020-03-05T17:00:00	0.3921	5.867	145.0	1.077943720	1.541813810	0.037484751	0.386723266	0.119191866
2020-03-05T17:05:00	0.3975	5.857	150.0	1.093748448	1.571970686	0.038590587	0.398131972	0.122708140
2020-03-05T17:10:00	0.3944	5.846	145.0	1.084820822	1.554905771	0.037963659	0.391664067	0.120714669
2020-03-05T17:15:00	0.3906	5.834	145.0	1.073512480	1.533402632	0.037178019	0.383558768	0.118216537
2020-03-05T17:20:00	0.3910	5.821	145.0	1.074594296	1.535454311	0.037252769	0.384329951	0.118454224
2020-03-05T17:25:00	0.3927	5.808	149.0	1.079806830	1.545356033	0.037614149	0.388058241	0.119603319
2020-03-05T17:30:00	0.3930	5.796	144.0	1.080592201	1.546850235	0.037668772	0.388621776	0.119777006
2020-03-05T17:35:00	0.3955	5.780	149.0	1.087858649	1.560703690	0.038176321	0.393858070	0.121390882
2020-03-05T17:40:00	0.3894	5.765	144.0	1.070060033	1.526862691	0.036940042	0.381103605	0.117459832
2020-03-05T17:45:00	0.3913	5.751	144.0	1.075573289	1.537311972	0.037320489	0.385028603	0.118669555
2020-03-05T17:50:00	0.3880	5.734	145.0	1.065720323	1.518658565	0.036642150	0.378030309	0.116512613
2020-03-05T17:55:00	0.3895	5.718	145.0	1.070352507	1.527416270	0.036960168	0.381311244	0.117523829
2020-03-05T18:00:00	0.3844	5.700	145.0	1.055151528	1.498755469	0.035922452	0.370605319	0.114224159
2020-03-05T18:05:00	0.3861	5.683	145.0	1.060091457	1.508044745	0.036257826	0.374065306	0.115290560
2020-03-05T18:10:00	0.3843	5.668	145.0	1.054951687	1.498380179	0.035908923	0.370465735	0.114181137
2020-03-05T18:15:00	0.3817	5.652	144.0	1.047131854	1.483725531	0.035381789	0.365027398	0.112504989
2020-03-05T18:20:00	0.3850	5.639	144.0	1.056827935	1.501905195	0.036036064	0.371777430	0.114585415
2020-03-05T18:25:00	0.3822	5.625	148.0	1.048714481	1.486686627	0.035488114	0.366124330	0.112843074
2020-03-05T18:30:00	0.3821	5.612	144.0	1.048317315	1.485943300	0.035461414	0.365848874	0.112758176
2020-03-05T18:35:00	0.3843	5.600	144.0	1.054748712	1.497999044	0.035895184	0.370323993	0.114137451
2020-03-05T18:40:00	0.3860	5.587	144.0	1.059985412	1.507845081	0.036250608	0.373990836	0.115267608
2020-03-05T18:45:00	0.3829	5.576	145.0	1.050690373	1.490386943	0.035621115	0.367496481	0.113265984
2020-03-05T18:50:00	0.3844	5.567	144.0	1.055042235	1.498550218	0.035915053	0.370528977	0.114200629
2020-03-05T18:55:00	0.3856	5.558	144.0	1.058796949	1.505608188	0.036169769	0.373156835	0.115010561
2020-03-05T19:00:00	0.3838	5.548	144.0	1.053358874	1.495390362	0.035801190	0.369354273	0.113838574
2020-03-05T19:05:00	0.3819	5.538	144.0	1.047616707	1.484632432	0.035414344	0.365363254	0.112608503
2020-03-05T19:10:00	0.3865	5.529	144.0	1.061460386	1.510623156	0.036351079	0.375027381	0.115587081
2020-03-05T19:15:00	0.3841	5.522	144.0	1.054245920	1.497055101	0.035861164	0.369973016	0.114029277
2020-03-05T19:20:00	0.3860	5.516	143.0	1.059779554	1.507457524	0.036236598	0.373846300	0.115223060
2020-03-05T19:25:00	0.3856	5.509	148.0	1.058790705	1.505596439	0.036169344	0.373152456	0.115009211
2020-03-05T19:30:00	0.3826	5.501	144.0	1.049790073	1.488700451	0.035560479	0.366870907	0.113073176
2020-03-05T19:35:00	0.3833	5.494	142.0	1.051768593	1.492407761	0.035693813	0.368246485	0.113497143
2020-03-05T19:40:00	0.3813	5.488	143.0	1.046024277	1.481654703	0.035307488	0.364260846	0.112268730
2020-03-05T19:45:00	0.3836	5.482	143.0	1.052755945	1.494259267	0.035760458	0.368934049	0.113709057
2020-03-05T19:50:00	0.3834	5.474	143.0	1.052062321	1.492958468	0.035713631	0.368450952	0.113560162
2020-03-05T19:55:00	0.3796	5.466	144.0	1.040964599	1.472209822	0.034969197	0.360770759	0.111193052
2020-03-05T20:00:00	0.3851	5.460	144.0	1.057202448	1.502609225	0.036061473	0.372039572	0.114666209
2020-03-05T20:05:00	0.3816	5.452	144.0	1.046712625	1.482941561	0.035353655	0.364737142	0.112415529
2020-03-05T20:10:00	0.3813	5.444	144.0	1.046018015	1.481642998	0.035307068	0.364256514	0.112267395
2020-03-05T20:15:00	0.3812	5.436	145.0	1.045620596	1.480900240	0.035280430	0.363981688	0.112182691
2020-03-05T20:20:00	0.3809	5.429	144.0	1.044628453	1.479046641	0.035213977	0.363296111	0.111971390
2020-03-05T20:25:00	0.3873	5.422	144.0	1.063813675	1.515059912	0.036511709	0.376684571	0.116097843
2020-03-05T20:30:00	0.3845	5.414	143.0	1.055416904	1.499253890	0.035940423	0.370790723	0.114281302
2020-03-05T20:35:00	0.3834	5.403	145.0	1.052052941	1.492940880	0.035712998	0.368444421	0.113558149
2020-03-05T20:40:00	0.3936	5.395	146.0	1.082420017	1.550330073	0.037796074	0.389935127	0.120181793
2020-03-05T20:45:00	0.3945	5.392	145.0	1.084972734	1.555195491	0.037974277	0.391773614	0.120748433
2020-03-05T20:50:00	0.3932	5.386	143.0	1.081042223	1.547706692	0.037700092	0.388944896	0.119876594
2020-03-05T20:55:00	0.3943	5.378	144.0	1.084479676	1.554255236	0.037939819	0.391418122	0.120638867
2020-03-05T21:00:00	0.3814	5.371	144.0	1.046205751	1.481993922	0.035319656	0.364386381	0.112307421
2020-03-05T21:05:00	0.3965	5.367	144.0	1.090758068	1.566245916	0.038379933	0.395958697	0.122038316
2020-03-05T21:10:00	0.3904	5.363	144.0	1.072971436	1.532376966	0.037140667	0.383173413	0.118097767
2020-03-05T21:15:00	0.3922	5.357	143.0	1.078185934	1.542274126	0.037501559	0.386896671	0.119245311
2020-03-05T21:20:00	0.3942	5.352	144.0	1.083983458	1.553309196	0.037905159	0.391060540	0.120528656
2020-03-05T21:25:00	0.3931	5.344	144.0	1.080936694	1.547505836	0.037692746	0.388869111	0.119853237
2020-03-05T21:30:00	0.3913	5.339	144.0	1.075526643	1.537223439	0.037317261	0.384995298	0.118659290
2020-03-05T21:35:00	0.3963	5.336	143.0	1.090163463	1.565108658	0.038338126	0.395527382	0.121905380
2020-03-05T21:40:00	0.3939	5.331	144.0	1.083291762	1.551990879	0.037856875	0.390562406	0.120375126
2020-03-05T21:45:00	0.3899	5.327	145.0	1.071388428	1.529377679	0.037031504	0.382047205	0.117750659
2020-03-05T21:50:00	0.3948	5.325	138.0	1.085744757	1.556668210	0.038028266	0.392330612	0.120920105
2020-03-05T21:55:00	0.3899	5.320	142.0	1.071484854	1.529560305	0.037038149	0.382115752	0.117771786
2020-03-05T22:00:00	0.3940	5.315	141.0	1.083484080	1.552357374	0.037870297	0.390700869	0.120417802
2020-03-05T22:05:00	0.3948	5.309	141.0	1.085749560	1.556677375	0.038028602	0.392334079	0.120921173
2020-03-05T22:10:00	0.3929	5.305	141.0	1.080353462	1.546395959	0.037652163	0.388450421	0.119724192
2020-03-05T22:15:00	0.3948	5.302	142.0	1.085861477	1.556890918	0.038036433	0.392414863	0.120946072
2020-03-05T22:20:00	0.3916	5.298	142.0	1.076335161	1.538758291	0.037373239	0.385572812	0.118837285
2020-03-05T22:25:00	0.3942	5.296	143.0	1.084205979	1.553733402	0.037920700	0.391220869	0.120578071
2020-03-05T22:30:00	0.3944	5.294	143.0	1.084703873	1.554682747	0.037955485	0.391579744	0.120688680
2020-03-05T22:35:00	0.3950	5.291	142.0	1.086379793	1.557880051	0.038072709	0.392789118	0.121061421
2020-03-05T22:40:00	0.3946	5.289	141.0	1.085404952	1.556019922	0.038004497	0.392085394	0.120844526
2020-03-05T22:45:00	0.3917	5.285	141.0	1.076763130	1.539570987	0.037402889	0.385878707	0.118931565
2020-03-05T22:50:00	0.3879	5.281	141.0	1.065441509	1.518132103	0.036623059	0.377833346	0.116451907
2020-03-05T22:55:00	0.3922	5.277	141.0	1.078055639	1.542026499	0.037492517	0.386803385	0.119216560
2020-03-05T23:00:00	0.3867	5.272	141.0	1.062001575	1.511643005	0.036387983	0.375408117	0.115704427
2020-03-05T23:05:00	0.3904	5.269	142.0	1.072853730	1.532153868	0.037132544	0.383089608	0.118071938
2020-03-05T23:10:00	0.3881	5.266	141.0	1.065962289	1.519115512	0.036658723	0.378201289	0.116565310
2020-03-05T23:15:00	0.3852	5.262	141.0	1.057577700	1.503314782	0.036086943	0.372302337	0.114747196
2020-03-05T23:20:00	0.3836	5.260	142.0	1.052739675	1.494228749	0.035759359	0.368922713	0.113705563
2020-03-05T23:25:00	0.3782	5.257	143.0	1.036589946	1.464063709	0.034678205	0.357768650	0.110267773
2020-03-05T23:30:00	0.3867	5.254	143.0	1.062043035	1.511721145	0.036390811	0.375437293	0.115713420
2020-03-05T23:35:00	0.3863	5.252	142.0	1.060766431	1.509315845	0.036303789	0.374539496	0.115436710
2020-03-05T23:40:00	0.3825	5.250	143.0	1.049402360	1.487974408	0.035534384	0.366601692	0.112990202
2020-03-05T23:45:00	0.3833	5.247	142.0	1.051982772	1.492809314	0.035708263	0.368395570	0.113543093
2020-03-05T23:50:00	0.3807	5.245	143.0	1.044165457	1.478181962	0.035182991	0.362976430	0.111872861
2020-03-05T23:55:00	0.3832	5.243	142.0	1.051501846	1.491907714	0.035675820	0.368060856	0.113439930
2020-03-06T00:00:00	0.3769	5.242	141.0	1.032664396	1.456769672	0.034418267	0.355086918	0.109441237
2020-03-06T00:05:00	0.3803	5.240	140.0	1.042996526	1.475999825	0.035104828	0.362170044	0.111624325
2020-03-06T00:10:00	0.3838	5.237	141.0	1.053303550	1.495286558	0.035797451	0.369315702	0.113826686
2020-03-06T00:15:00	0.3827	5.237	141.0	1.049945888	1.488992276	0.035570969	0.366979131	0.113106532
2020-03-06T00:20:00	0.3794	5.236	141.0	1.040339207	1.471044133	0.034927512	0.360340706	0.111060505
2020-03-06T00:25:00	0.3845	5.233	141.0	1.055401115	1.499224232	0.035939354	0.370779690	0.114277902
2020-03-06T00:30:00	0.3828	5.230	146.0	1.050263657	1.489587497	0.035592368	0.367199901	0.113174576
2020-03-06T00:35:00	0.3826	5.227	141.0	1.049874608	1.488858773	0.035566170	0.366929620	0.113091272
2020-03-06T00:40:00	0.3788	5.224	142.0	1.038481367	1.467583478	0.034803848	0.359064882	0.110667284
2020-03-06T00:45:00	0.3815	5.221	142.0	1.046422095	1.482398364	0.035334165	0.364536069	0.112353557
2020-03-06T00:50:00	0.3798	5.217	142.0	1.041571360	1.473341150	0.035009667	0.361188281	0.111321736
2020-03-06T00:55:00	0.3813	5.215	141.0	1.045940541	1.481498190	0.035301874	0.364202930	0.112250880
2020-03-06T01:00:00	0.3817	5.212	142.0	1.047037334	1.483548762	0.035375445	0.364961945	0.112484816
2020-03-06T01:05:00	0.3761	5.208	142.0	1.030567484	1.452879528	0.034279873	0.353659129	0.109001178
2020-03-06T01:10:00	0.3839	5.207	142.0	1.053683379	1.495999279	0.035823123	0.369580557	0.113908317
2020-03-06T01:15:00	0.3859	5.204	143.0	1.059522035	1.506972761	0.036219076	0.373665536	0.115167347
2020-03-06T01:20:00	0.3763	5.201	142.0	1.030886710	1.453471474	0.034300921	0.353876279	0.109068106
2020-03-06T01:25:00	0.3844	5.201	146.0	1.055187544	1.498823109	0.035924891	0.370630478	0.114231913
2020-03-06T01:30:00	0.3808	5.197	141.0	1.044403361	1.478626239	0.035198911	0.363140673	0.111923482
2020-03-06T01:35:00	0.3817	5.194	142.0	1.046986808	1.483454272	0.035372054	0.364926960	0.112474033
2020-03-06T01:40:00	0.3815	5.190	143.0	1.046597459	1.482726228	0.035345929	0.364657429	0.112390961
2020-03-06T01:45:00	0.3850	5.187	143.0	1.056895774	1.502032713	0.036040666	0.371824907	0.114600047
2020-03-06T01:50:00	0.3793	5.181	144.0	1.039868864	1.470167694	0.034896181	0.360017466	0.110960879
2020-03-06T01:55:00	0.3830	5.175	148.0	1.051074304	1.491106382	0.035646992	0.367763440	0.113348264
2020-03-06T02:00:00	0.3840	5.172	144.0	1.053950427	1.496500457	0.035841179	0.369766834	0.113965729
2020-03-06T02:05:00	0.3805	5.170	144.0	1.043460559	1.476865914	0.035135845	0.362490034	0.111722949
2020-03-06T02:10:00	0.3811	5.167	144.0	1.045450008	1.480581465	0.035268999	0.363863758	0.112146344
2020-03-06T02:15:00	0.3789	5.164	143.0	1.038811901	1.468198929	0.034825831	0.359291679	0.110737185
2020-03-06T02:20:00	0.3789	5.162	144.0	1.038719590	1.468027036	0.034819691	0.359228331	0.110717661
2020-03-06T02:25:00	0.3854	5.160	144.0	1.057939354	1.503994902	0.036111499	0.372555682	0.114825279
2020-03-06T02:30:00	0.3774	5.156	143.0	1.034363818	1.459925523	0.034530661	0.356246462	0.109798619
2020-03-06T02:35:00	0.3794	5.151	146.0	1.040229061	1.470838866	0.034920174	0.360264994	0.111037170
2020-03-06T02:40:00	0.3835	5.147	145.0	1.052324124	1.493449390	0.035731302	0.368633251	0.113616348
2020-03-06T02:45:00	0.3796	5.145	145.0	1.040937462	1.472159234	0.034967388	0.360752092	0.111187298
2020-03-06T02:50:00	0.3826	5.141	144.0	1.049764709	1.488652948	0.035558772	0.366853291	0.113067747
2020-03-06T02:55:00	0.3815	5.136	145.0	1.046404252	1.482365005	0.035332968	0.364523722	0.112349751
2020-03-06T03:00:00	0.3794	5.134	144.0	1.040363010	1.471088492	0.034929098	0.360357068	0.111065548
2020-03-06T03:05:00	0.3789	5.132	144.0	1.038782121	1.468143473	0.034823850	0.359271242	0.110730886
2020-03-06T03:10:00	0.3834	5.130	144.0	1.052068844	1.492970698	0.035714072	0.368455493	0.113561561
2020-03-06T03:15:00	0.3801	5.127	144.0	1.042466968	1.475011693	0.035069451	0.361805066	0.111511835
2020-03-06T03:20:00	0.3802	5.124	147.0	1.042672248	1.475394705	0.035083163	0.361946523	0.111555434
2020-03-06T03:25:00	0.3840	5.122	142.0	1.053870307	1.496350087	0.035835761	0.369710942	0.113948503
2020-03-06T03:30:00	0.3813	5.120	144.0	1.045759190	1.481159249	0.035289718	0.364077517	0.112212226
2020-03-06T03:35:00	0.3851	5.118	144.0	1.057245633	1.502690415	0.036064404	0.372069806	0.114675528
2020-03-06T03:40:00	0.3798	5.115	147.0	1.041410653	1.473041471	0.034998945	0.361077669	0.111287644
2020-03-06T03:45:00	0.3810	5.112	148.0	1.044888054	1.479531555	0.035231358	0.363475425	0.112026656
2020-03-06T03:50:00	0.3848	5.108	156.0	1.056376844	1.501057392	0.036005473	0.371461828	0.114488143
2020-03-06T03:55:00	0.3818	5.105	155.0	1.047379084	1.484187938	0.035398387	0.365198631	0.112557765
2020-03-06T04:00:00	0.3880	5.103	156.0	1.065672297	1.518567876	0.036638861	0.377996378	0.116502155
2020-03-06T04:05:00	0.3874	5.100	151.0	1.064030201	1.515468409	0.036526509	0.376837259	0.116144903
2020-03-06T04:10:00	0.3847	5.098	156.0	1.055867694	1.500100705	0.035970962	0.371105789	0.114378408
2020-03-06T04:15:00	0.3861	5.096	155.0	1.060151593	1.508157974	0.036261920	0.374107539	0.115303577
2020-03-06T04:20:00	0.3831	5.094	155.0	1.051387920	1.491694167	0.035668137	0.367981590	0.113415500
2020-03-06T04:25:00	0.3839	5.092	156.0	1.053599659	1.495842172	0.035817464	0.369522170	0.113890322
2020-03-06T04:30:00	0.3846	5.091	151.0	1.055810252	1.499992788	0.035967070	0.371065633	0.114366032
2020-03-06T04:35:00	0.3789	5.091	154.0	1.038707988	1.468005432	0.034818919	0.359220370	0.110715207
2020-03-06T04:40:00	0.3839	5.091	154.0	1.053704923	1.496039708	0.035824580	0.369595583	0.113912948
2020-03-06T04:45:00	0.3812	5.090	153.0	1.045522608	1.480717129	0.035273863	0.363913945	0.112161812
2020-03-06T04:50:00	0.3830	5.088	153.0	1.051004757	1.490976050	0.035642303	0.367715074	0.113333357
2020-03-06T04:55:00	0.3825	5.088	154.0	1.049357009	1.487889493	0.035531333	0.366570209	0.112980499
2020-03-06T05:00:00	0.3805	5.087	153.0	1.043546501	1.477026341	0.035141591	0.362549316	0.111741220
2020-03-06T05:05:00	0.3829	5.088	154.0	1.050516221	1.490060650	0.035609381	0.367375424	0.113228673
2020-03-06T05:10:00	0.3793	5.086	150.0	1.039946887	1.470313068	0.034901377	0.360071075	0.110977402
2020-03-06T05:15:00	0.3800	5.085	155.0	1.042164589	1.474447590	0.035049260	0.361596757	0.111447632
2020-03-06T05:20:00	0.3785	5.084	157.0	1.037535830	1.465823482	0.034741006	0.358416550	0.110467462
2020-03-06T05:25:00	0.3787	5.084	152.0	1.038266000	1.467182524	0.034789528	0.358917152	0.110621752
2020-03-06T05:30:00	0.3810	5.085	153.0	1.044947058	1.479641779	0.035235309	0.363516188	0.112039220
2020-03-06T05:35:00	0.3780	5.084	158.0	1.036151955	1.463249141	0.034649147	0.357468867	0.110175376
2020-03-06T05:40:00	0.3799	5.085	153.0	1.041646218	1.473480749	0.035014662	0.361239810	0.111337618
2020-03-06T05:45:00	0.3767	5.086	158.0	1.032247820	1.455996510	0.034390748	0.354803010	0.109353733
2020-03-06T05:50:00	0.3779	5.086	159.0	1.035661705	1.462337603	0.034616639	0.357133485	0.110072009
2020-03-06T05:55:00	0.3779	5.086	158.0	1.035796271	1.462587783	0.034625560	0.357225524	0.110100376
2020-03-06T06:00:00	0.3796	5.087	158.0	1.040993386	1.472263490	0.034971116	0.360790562	0.111199155
2020-03-06T06:05:00	0.3767	5.088	157.0	1.032190057	1.455889316	0.034386933	0.354763653	0.109341603
2020-03-06T06:10:00	0.3826	5.089	157.0	1.049883825	1.488876036	0.035566791	0.366936022	0.113093246
2020-03-06T06:15:00	0.3797	5.092	158.0	1.041098963	1.472460318	0.034978157	0.360863193	0.111221541
2020-03-06T06:20:00	0.3810	5.095	155.0	1.045100424	1.479928295	0.035245580	0.363622154	0.112071879
2020-03-06T06:25:00	0.3784	5.096	156.0	1.037199393	1.465197457	0.034718661	0.358186025	0.110396412
2020-03-06T06:30:00	0.3790	5.099	156.0	1.039120793	1.468774177	0.034846382	0.359503699	0.110802532
2020-03-06T06:35:00	0.3795	5.101	156.0	1.040446047	1.471243249	0.034934632	0.360414154	0.111083143
2020-03-06T06:40:00	0.3796	5.105	160.0	1.040878099	1.472048570	0.034963430	0.360711260	0.111174713
2020-03-06T06:45:00	0.3781	5.109	155.0	1.036247933	1.463427623	0.034655514	0.357534547	0.110195620
2020-03-06T06:50:00	0.3787	5.112	157.0	1.038169765	1.467003374	0.034783131	0.358851150	0.110601410
2020-03-06T06:55:00	0.3778	5.116	156.0	1.035623127	1.462265883	0.034614082	0.357107101	0.110063877
2020-03-06T07:00:00	0.3804	5.120	156.0	1.043200838	1.476381134	0.035118483	0.362310914	0.111667742
2020-03-06T07:05:00	0.3798	5.126	160.0	1.041550059	1.473301426	0.035008246	0.361173618	0.111317217
2020-03-06T07:10:00	0.3766	5.131	155.0	1.031853194	1.455264244	0.034364691	0.354534181	0.109270878
2020-03-06T07:15:00	0.3690	5.135	157.0	1.009259317	1.413589968	0.032891520	0.339335746	0.104586573
2020-03-06T07:20:00	0.3820	5.141	161.0	1.047900053	1.485162528	0.035433376	0.365559608	0.112669022
2020-03-06T07:25:00	0.3767	5.148	161.0	1.032257244	1.456013999	0.034391371	0.354809431	0.109355713
2020-03-06T07:30:00	0.3733	5.156	160.0	1.021941095	1.436920782	0.033713878	0.347819864	0.107201460
2020-03-06T07:35:00	0.3800	5.164	160.0	1.042058736	1.474250137	0.035042194	0.361523851	0.111425162
2020-03-06T07:40:00	0.3781	5.173	161.0	1.036238214	1.463409548	0.034654869	0.357527895	0.110193570
2020-03-06T07:45:00	0.3792	5.181	160.0	1.039648880	1.469757849	0.034881532	0.359866340	0.110914301
2020-03-06T07:50:00	0.3823	5.194	161.0	1.049002128	1.487225077	0.035507458	0.366323903	0.112904585
2020-03-06T07:55:00	0.3824	5.210	158.0	1.049136272	1.487476209	0.035516482	0.366416995	0.112933276
2020-03-06T08:00:00	0.3802	5.227	158.0	1.042730508	1.475503414	0.035087055	0.361986675	0.111567809
2020-03-06T08:05:00	0.3750	5.246	158.0	1.027068541	1.446397844	0.034049653	0.351283995	0.108269139
2020-03-06T08:10:00	0.3769	5.264	162.0	1.032872821	1.457156569	0.034432040	0.355229014	0.109485032
2020-03-06T08:15:00	0.3771	5.283	162.0	1.033305647	1.457960156	0.034460653	0.355524201	0.109576012
2020-03-06T08:20:00	0.3869	5.300	162.0	1.062558930	1.512693614	0.036426012	0.375800456	0.115825350
2020-03-06T08:25:00	0.3833	5.324	161.0	1.051722629	1.492321591	0.035690712	0.368214494	0.113487283
2020-03-06T08:30:00	0.3847	5.348	162.0	1.056010691	1.500369369	0.035980653	0.371205764	0.114409222
2020-03-06T08:35:00	0.3810	5.366	157.0	1.045157708	1.480035317	0.035249417	0.363661738	0.112084079
2020-03-06T08:40:00	0.3811	5.383	157.0	1.045291973	1.480286175	0.035258411	0.363754526	0.112112678
2020-03-06T08:45:00	0.3825	5.406	157.0	1.049586515	1.488319245	0.035546777	0.366729549	0.113029609
2020-03-06T08:50:00	0.3785	5.433	157.0	1.037525810	1.465804836	0.034740340	0.358409684	0.110465345
2020-03-06T08:55:00	0.3834	5.458	156.0	1.052230089	1.493273052	0.035724954	0.368567767	0.113596165
2020-03-06T09:00:00	0.3818	5.484	152.0	1.047315132	1.484068319	0.035394093	0.365154333	0.112544112
2020-03-06T09:05:00	0.3796	5.508	156.0	1.040906618	1.472101734	0.034965331	0.360730876	0.111180759
2020-03-06T09:10:00	0.3762	5.532	151.0	1.030611617	1.452961359	0.034282782	0.353689146	0.109010430
2020-03-06T09:15:00	0.3784	5.555	156.0	1.037304760	1.465393507	0.034725658	0.358258213	0.110418661
2020-03-06T09:20:00	0.3795	5.580	156.0	1.040416918	1.471188961	0.034932691	0.360394128	0.111076970
2020-03-06T09:25:00	0.3796	5.606	150.0	1.040848973	1.471994276	0.034961488	0.360691227	0.111168539
2020-03-06T09:30:00	0.3770	5.630	156.0	1.033238173	1.457834871	0.034456191	0.355478175	0.109561826
2020-03-06T09:35:00	0.3765	5.653	155.0	1.031583502	1.454763891	0.034346890	0.354350527	0.109214274
2020-03-06T09:40:00	0.3747	5.677	157.0	1.026345869	1.445060590	0.034002214	0.350794569	0.108118293
2020-03-06T09:45:00	0.3769	5.701	155.0	1.032747585	1.456924089	0.034423764	0.355143629	0.109458716
2020-03-06T09:50:00	0.3768	5.721	155.0	1.032584043	1.456620524	0.034412958	0.355032145	0.109424355
2020-03-06T09:55:00	0.3767	5.740	155.0	1.032122261	1.455763507	0.034382456	0.354717464	0.109327367
2020-03-06T10:00:00	0.3761	5.761	150.0	1.030467153	1.452693503	0.034273259	0.353590896	0.108980148
2020-03-06T10:05:00	0.3760	5.782	150.0	1.030269288	1.452326668	0.034260218	0.353456354	0.108938681
2020-03-06T10:10:00	0.3751	5.804	154.0	1.027385056	1.446983691	0.034070442	0.351498474	0.108335244
2020-03-06T10:15:00	0.3740	5.826	155.0	1.024200053	1.441092886	0.033861574	0.349343620	0.107671096
2020-03-06T10:20:00	0.3718	5.848	151.0	1.017422718	1.428590500	0.033419557	0.344783407	0.106265595
2020-03-06T10:25:00	0.3743	5.870	150.0	1.024998890	1.442569450	0.033913892	0.349883374	0.107837454
2020-03-06T10:30:00	0.3731	5.892	155.0	1.021513094	1.436130855	0.033685936	0.347531587	0.107112610
2020-03-06T10:35:00	0.3746	5.918	158.0	1.025797575	1.444046349	0.033966246	0.350423501	0.108003926
2020-03-06T10:40:00	0.3752	5.944	157.0	1.027689915	1.447548054	0.034090473	0.351705126	0.108398936
2020-03-06T10:45:00	0.3724	5.971	157.0	1.019422748	1.432275416	0.033549655	0.346125607	0.106679274
2020-03-06T10:50:00	0.3742	5.997	157.0	1.024605785	1.441842760	0.033888141	0.349617703	0.107755572
2020-03-06T10:55:00	0.3696	6.026	152.0	1.010940490	1.416673938	0.032999873	0.340453610	0.104931109
2020-03-06T11:00:00	0.3634	6.055	156.0	0.992415786	1.382841747	0.031817074	0.328250883	0.101170110
2020-03-06T11:05:00	0.3694	6.086	157.0	1.010243117	1.415394336	0.032954902	0.339989652	0.104788113
2020-03-06T11:10:00	0.3725	6.116	152.0	1.019627425	1.432652736	0.033562985	0.346263131	0.106721660
2020-03-06T11:15:00	0.3709	6.146	157.0	1.014939476	1.424020665	0.033258426	0.343121054	0.105753241
2020-03-06T11:20:00	0.3720	6.175	154.0	1.018033859	1.429716076	0.033459280	0.345193223	0.106391904
2020-03-06T11:25:00	0.3680	6.205	157.0	1.006148034	1.407889754	0.032691527	0.337272461	0.103950648
2020-03-06T11:30:00	0.3720	6.240	158.0	1.018235452	1.430087441	0.033472389	0.345328467	0.106433587
2020-03-06T11:35:00	0.3676	6.284	158.0	1.004849525	1.405513493	0.032608264	0.336413451	0.103685893
2020-03-06T11:40:00	0.3658	6.335	153.0	0.999543864	1.395820994	0.032269305	0.332916466	0.102608088
2020-03-06T11:45:00	0.3686	6.375	158.0	1.008052419	1.411377694	0.032813859	0.338534530	0.104339630
2020-03-06T11:50:00	0.3695	6.389	158.0	1.010552381	1.415961743	0.032974841	0.340195359	0.104851514
2020-03-06T11:55:00	0.3676	6.412	158.0	1.004953803	1.405704260	0.032614946	0.336482389	0.103707140
2020-03-06T12:00:00	0.3665	6.435	156.0	1.001751691	1.399851020	0.032410111	0.334369139	0.103055816
2020-03-06T12:05:00	0.3668	6.447	160.0	1.002453649	1.401133308	0.032454952	0.334831753	0.103198398
2020-03-06T12:10:00	0.3684	6.452	159.0	1.007357724	1.410104934	0.032769204	0.338073834	0.104197639
2020-03-06T12:15:00	0.3666	6.458	156.0	1.002055257	1.400405495	0.032429498	0.334569154	0.103117463
2020-03-06T12:20:00	0.3647	6.462	158.0	0.996144440	1.389625042	0.032053182	0.330686770	0.101920874
2020-03-06T12:25:00	0.3671	6.466	157.0	1.003458951	1.402970549	0.032519231	0.335494914	0.103402791
2020-03-06T12:30:00	0.3597	6.481	157.0	0.981279611	1.362661570	0.031117772	0.321036321	0.098946512
2020-03-06T12:35:00	0.3671	6.494	157.0	1.003360962	1.402791427	0.032512963	0.335430242	0.103382858
2020-03-06T12:40:00	0.3640	6.509	158.0	0.994142733	1.385981814	0.031926306	0.329377811	0.101517440
2020-03-06T12:45:00	0.3652	6.525	158.0	0.997854001	1.392739586	0.032161767	0.331807018	0.102266145
2020-03-06T12:50:00	0.3679	6.546	158.0	1.005765801	1.407190103	0.032667005	0.337019472	0.103872674
2020-03-06T12:55:00	0.3655	6.568	159.0	0.998657885	1.394205100	0.032212898	0.332334531	0.102428730
2020-03-06T13:00:00	0.3650	6.586	159.0	0.997255738	1.391649329	0.032123744	0.331414742	0.102145242
2020-03-06T13:05:00	0.3661	6.598	155.0	1.000363248	1.397316100	0.032321521	0.333455174	0.102774123
2020-03-06T13:10:00	0.3624	6.614	160.0	0.989330885	1.377239646	0.031622476	0.326243254	0.100551339
2020-03-06T13:15:00	0.3632	6.638	158.0	0.991842114	1.381799285	0.031780835	0.327877015	0.101054880
2020-03-06T13:20:00	0.3616	6.659	160.0	0.986821309	1.372689030	0.031464668	0.324615177	0.100049550
2020-03-06T13:25:00	0.3637	6.668	159.0	0.993249260	1.384356877	0.031869766	0.328794498	0.101337657
2020-03-06T13:30:00	0.3606	6.679	159.0	0.984008521	1.367595751	0.031288323	0.322795864	0.099488820
2020-03-06T13:35:00	0.3617	6.697	159.0	0.987125968	1.373241148	0.031483802	0.324812578	0.100110391
2020-03-06T13:40:00	0.3603	6.710	160.0	0.983004852	1.365780177	0.031225535	0.322148088	0.099289169
2020-03-06T13:45:00	0.3495	6.725	160.0	0.950385974	1.307296174	0.029223528	0.301493751	0.092923302
2020-03-06T13:50:00	0.3573	6.742	156.0	0.973843026	1.349251401	0.030655671	0.316268905	0.097477148
2020-03-06T13:55:00	0.3635	6.753	160.0	0.992653505	1.383273816	0.031832097	0.328405878	0.101217881
2020-03-06T14:00:00	0.3612	6.752	160.0	0.985824676	1.370883504	0.031402121	0.323969893	0.099850667
2020-03-06T14:05:00	0.3599	6.753	160.0	0.981702261	1.363425306	0.031144153	0.321308482	0.099030395
2020-03-06T14:10:00	0.3631	6.750	160.0	0.991452220	1.381090959	0.031756219	0.327623054	0.100976607
2020-03-06T14:15:00	0.3630	6.752	160.0	0.991252501	1.380728183	0.031743613	0.327493008	0.100936526
2020-03-06T14:20:00	0.3569	6.748	160.0	0.972639444	1.347085968	0.030581248	0.315501099	0.097240503
2020-03-06T14:25:00	0.3639	6.740	159.0	0.993863953	1.385474721	0.031908658	0.329195743	0.101461325
2020-03-06T14:30:00	0.3643	6.735	159.0	0.995169062	1.387849316	0.031991323	0.330048583	0.101724179
2020-03-06T14:35:00	0.3645	6.733	160.0	0.995571284	1.388581470	0.032016824	0.330311671	0.101805265
2020-03-06T14:40:00	0.3638	6.730	159.0	0.993566130	1.384933072	0.031889811	0.329001302	0.101401397
2020-03-06T14:45:00	0.3608	6.734	159.0	0.984627763	1.368716401	0.031327098	0.323195894	0.099612113
2020-03-06T14:50:00	0.3629	6.737	159.0	0.990757920	1.379829974	0.031712410	0.327171091	0.100837308
2020-03-06T14:55:00	0.3595	6.736	160.0	0.980605865	1.361444454	0.031075746	0.320602740	0.098812878
2020-03-06T15:00:00	0.3531	6.736	160.0	0.961337843	1.326819750	0.029887386	0.308342649	0.095034199
2020-03-06T15:05:00	0.3605	6.731	160.0	0.983525787	1.366722395	0.031258115	0.322484212	0.099392766
2020-03-06T15:10:00	0.3623	6.725	155.0	0.989054955	1.376739008	0.031605103	0.326064020	0.100496098
2020-03-06T15:15:00	0.3581	6.721	160.0	0.976481417	1.354003103	0.030819171	0.317955709	0.097997037
2020-03-06T15:20:00	0.3629	6.714	160.0	0.990764266	1.379841497	0.031712811	0.327175220	0.100838580
2020-03-06T15:25:00	0.3583	6.709	160.0	0.976987259	1.354914875	0.030850574	0.318279687	0.098096891
2020-03-06T15:30:00	0.3605	6.707	160.0	0.983732235	1.367095872	0.031271032	0.322617474	0.099433839
2020-03-06T15:35:00	0.3587	6.706	160.0	0.978097348	1.356916643	0.030919552	0.318991322	0.098316224
2020-03-06T15:40:00	0.3608	6.700	160.0	0.984538862	1.368555492	0.031321530	0.323138447	0.099594407
2020-03-06T15:45:00	0.3566	6.695	159.0	0.971951534	1.345848930	0.030538757	0.315062730	0.097105393
2020-03-06T15:50:00	0.3547	6.686	159.0	0.965997476	1.335160792	0.030172378	0.311282862	0.095940401
2020-03-06T15:55:00	0.3577	6.680	159.0	0.975179949	1.351658351	0.030738458	0.317123008	0.097740391
2020-03-06T16:00:00	0.3570	6.670	160.0	0.973164876	1.348031135	0.030613725	0.315836161	0.097343772
2020-03-06T16:05:00	0.3548	6.659	160.0	0.966309102	1.335719356	0.030191492	0.311480057	0.096001178
2020-03-06T16:10:00	0.3571	6.650	161.0	0.973379484	1.348417254	0.030626996	0.315973072	0.097385969
2020-03-06T16:15:00	0.3518	6.641	156.0	0.957424459	1.319830443	0.029649210	0.305885436	0.094276862
2020-03-06T16:20:00	0.3568	6.634	161.0	0.972384053	1.346626657	0.030565469	0.315338312	0.097190330
2020-03-06T16:25:00	0.3561	6.622	161.0	0.970373027	1.343012068	0.030441382	0.314058128	0.096795765
2020-03-06T16:30:00	0.3514	6.613	162.0	0.955925396	1.317156955	0.029558258	0.304947100	0.093987658
2020-03-06T16:35:00	0.3571	6.602	162.0	0.973311033	1.348294093	0.030622763	0.315929399	0.097372509
2020-03-06T16:40:00	0.3624	6.591	162.0	0.989418455	1.377398546	0.031627991	0.326300148	0.100568874
2020-03-06T16:45:00	0.3592	6.582	162.0	0.979570547	1.359575004	0.031011228	0.319937119	0.098607727
2020-03-06T16:50:00	0.3589	6.572	162.0	0.978771537	1.358132950	0.030961487	0.319423957	0.098449566
2020-03-06T16:55:00	0.3614	6.560	162.0	0.986423668	1.371968540	0.031439704	0.324357632	0.099970172
2020-03-06T17:00:00	0.3616	6.546	161.0	0.986832134	1.372708646	0.031465348	0.324622190	0.100051712
2020-03-06T17:05:00	0.3521	6.537	156.0	0.958197925	1.321210703	0.029696200	0.306370218	0.094426277
2020-03-06T17:10:00	0.3595	6.526	161.0	0.980710138	1.361632794	0.031082248	0.320669823	0.098833554
2020-03-06T17:15:00	0.3597	6.516	162.0	0.981119169	1.362371694	0.031107762	0.320933041	0.098914680
2020-03-06T17:20:00	0.3604	6.507	157.0	0.983339048	1.366384610	0.031246434	0.322363699	0.099355623
2020-03-06T17:25:00	0.3603	6.496	156.0	0.983144337	1.366032439	0.031234257	0.322238069	0.099316902
2020-03-06T17:30:00	0.3639	6.482	161.0	0.993799351	1.385357223	0.031904569	0.329153561	0.101448324
2020-03-06T17:35:00	0.3577	6.469	161.0	0.975203201	1.351700228	0.030739899	0.317137875	0.097744973
2020-03-06T17:40:00	0.3588	6.456	161.0	0.978332709	1.357341210	0.030934188	0.319142319	0.098362762
2020-03-06T17:45:00	0.3601	6.444	157.0	0.982365402	1.364623953	0.031185569	0.321735765	0.099162088
2020-03-06T17:50:00	0.3593	6.430	162.0	0.980057267	1.360453736	0.031041549	0.320249941	0.098704142
2020-03-06T17:55:00	0.3567	6.416	161.0	0.972002839	1.345941173	0.030541925	0.315095412	0.097115466
2020-03-06T18:00:00	0.3602	6.399	161.0	0.982686592	1.365204665	0.031205640	0.321942834	0.099225908
2020-03-06T18:05:00	0.3574	6.385	162.0	0.974334909	1.350136773	0.030686116	0.316582998	0.097573954
2020-03-06T18:10:00	0.3613	6.373	160.0	0.985917409	1.371051463	0.031407938	0.324029904	0.099869163
2020-03-06T18:15:00	0.3580	6.359	161.0	0.976061141	1.353245749	0.030793094	0.317686675	0.097914118
2020-03-06T18:20:00	0.3597	6.349	161.0	0.981303820	1.362705312	0.031119283	0.321051907	0.098951316
2020-03-06T18:25:00	0.3600	6.335	161.0	0.982014648	1.363989903	0.031163659	0.321509723	0.099092419
2020-03-06T18:30:00	0.3606	6.319	162.0	0.983932352	1.367457932	0.031283556	0.322746678	0.099473661
2020-03-06T18:35:00	0.3586	6.307	162.0	0.978001016	1.356742887	0.030913563	0.318929532	0.098297179
2020-03-06T18:40:00	0.3586	6.297	162.0	0.977806053	1.356391253	0.030901444	0.318804498	0.098258642
2020-03-06T18:45:00	0.3600	6.284	162.0	0.982141108	1.364218487	0.031171557	0.321591209	0.099117534
2020-03-06T18:50:00	0.3557	6.270	162.0	0.969249089	1.340993593	0.030372155	0.313343927	0.096575642
2020-03-06T18:55:00	0.3587	6.256	157.0	0.978127598	1.356971209	0.030921433	0.319010727	0.098322204
2020-03-06T19:00:00	0.3579	6.245	161.0	0.975817090	1.352806036	0.030777957	0.317530508	0.097865986
2020-03-06T19:05:00	0.3589	6.231	161.0	0.978644051	1.357902918	0.030953555	0.319342122	0.098424344
2020-03-06T19:10:00	0.3545	6.215	156.0	0.965438001	1.334158208	0.030138079	0.310929005	0.095831339
2020-03-06T19:15:00	0.3600	6.204	162.0	0.982179875	1.364288566	0.031173979	0.321616192	0.099125234
2020-03-06T19:20:00	0.3609	6.195	162.0	0.984700844	1.368848681	0.031331676	0.323243123	0.099626670
2020-03-06T19:25:00	0.3600	6.181	162.0	0.982092186	1.364130056	0.031168502	0.321559684	0.099107818
2020-03-06T19:30:00	0.3606	6.169	162.0	0.984009853	1.367598162	0.031288407	0.322796724	0.099489085
2020-03-06T19:35:00	0.3602	6.153	158.0	0.982608143	1.365062820	0.031200737	0.321892251	0.099210318
2020-03-06T19:40:00	0.3630	6.140	157.0	0.991156817	1.380554392	0.031737575	0.327430714	0.100917326
2020-03-06T19:45:00	0.3637	6.126	161.0	0.993371320	1.384578818	0.031877486	0.328874151	0.101362207
2020-03-06T19:50:00	0.3621	6.118	161.0	0.988357761	1.375474366	0.031561231	0.325611397	0.100356595
2020-03-06T19:55:00	0.3601	6.102	162.0	0.982432780	1.364745765	0.031189779	0.321779197	0.099175474
2020-03-06T20:00:00	0.3629	6.085	162.0	0.990981816	1.380236563	0.031726534	0.327316800	0.100882217
2020-03-06T20:05:00	0.3636	6.072	162.0	0.992895370	1.383713478	0.031847387	0.328563619	0.101266498
2020-03-06T20:10:00	0.3655	6.057	162.0	0.998718087	1.394314875	0.032216729	0.332374055	0.102440912
2020-03-06T20:15:00	0.3624	6.041	162.0	0.989494933	1.377537324	0.031632807	0.326349839	0.100584190
2020-03-06T20:20:00	0.3656	6.025	162.0	0.998931373	1.394703821	0.032230304	0.332514104	0.102484076
2020-03-06T20:25:00	0.3641	6.010	162.0	0.994526443	1.386679892	0.031950605	0.329628500	0.101594705
2020-03-06T20:30:00	0.3650	5.996	161.0	0.997039913	1.391256100	0.032110033	0.331273292	0.102101646
2020-03-06T20:35:00	0.3645	5.978	162.0	0.995642604	1.388711310	0.032021347	0.330358333	0.101819647
2020-03-06T20:40:00	0.3611	5.965	162.0	0.985507931	1.370309880	0.031382257	0.323764964	0.099787506
2020-03-06T20:45:00	0.3635	5.948	163.0	0.992545508	1.383077519	0.031825271	0.328335458	0.101196177
2020-03-06T20:50:00	0.3626	5.935	162.0	0.989941791	1.378348313	0.031660959	0.326640273	0.100673704
2020-03-06T20:55:00	0.3627	5.922	162.0	0.990349910	1.379089162	0.031686682	0.326905656	0.100755498
2020-03-06T21:00:00	0.3644	5.910	165.0	0.995273651	1.388039682	0.031997953	0.330116981	0.101745260
2020-03-06T21:05:00	0.3604	5.899	157.0	0.983327975	1.366364580	0.031245741	0.322356554	0.099353420
2020-03-06T21:10:00	0.3639	5.885	158.0	0.993982517	1.385690376	0.031916163	0.329273169	0.101485188
2020-03-06T21:15:00	0.3606	5.868	162.0	0.983843777	1.367297673	0.031278012	0.322689486	0.099456034
2020-03-06T21:20:00	0.3617	5.851	162.0	0.987268216	1.373498968	0.031492738	0.324904769	0.100138805
2020-03-06T21:25:00	0.3616	5.840	157.0	0.987073690	1.373146402	0.031480518	0.324778700	0.100099950
2020-03-06T21:30:00	0.3623	5.826	161.0	0.988989050	1.376619442	0.031600954	0.326021219	0.100482906
2020-03-06T21:35:00	0.3575	5.807	161.0	0.974606790	1.350626248	0.030702951	0.316756683	0.097627486
2020-03-06T21:40:00	0.3616	5.792	161.0	0.986791566	1.372635133	0.031462800	0.324595909	0.100043612
2020-03-06T21:45:00	0.3575	5.779	156.0	0.974518939	1.350468080	0.030697510	0.316700555	0.097610187
2020-03-06T21:50:00	0.3594	5.765	161.0	0.980367555	1.361014053	0.031060888	0.320449458	0.098765635
2020-03-06T21:55:00	0.3590	5.753	157.0	0.978964607	1.358481347	0.030973502	0.319547913	0.098487770
2020-03-06T22:00:00	0.3592	5.739	163.0	0.979675839	1.359765080	0.031017786	0.320004777	0.098628580
2020-03-06T22:05:00	0.3596	5.729	158.0	0.980988131	1.362134960	0.031099587	0.320848702	0.098888686
2020-03-06T22:10:00	0.3594	5.716	162.0	0.980186693	1.360687442	0.031049615	0.320333154	0.098729789
2020-03-06T22:15:00	0.3575	5.705	162.0	0.974549662	1.350523392	0.030699413	0.316720183	0.097616236
2020-03-06T22:20:00	0.3587	5.696	163.0	0.978281244	1.357248368	0.030930988	0.319109298	0.098352585
2020-03-06T22:25:00	0.3597	5.688	163.0	0.981103815	1.362343956	0.031106804	0.320923158	0.098911634
2020-03-06T22:30:00	0.3552	5.677	162.0	0.967600070	1.338034297	0.030270748	0.312297723	0.096253191
2020-03-06T22:35:00	0.3595	5.660	163.0	0.980708770	1.361630324	0.031082163	0.320668942	0.098833282
2020-03-06T22:40:00	0.3594	5.645	163.0	0.980209267	1.360728206	0.031051022	0.320347669	0.098734263
2020-03-06T22:45:00	0.3607	5.632	163.0	0.984237429	1.368009966	0.031302653	0.322943706	0.099534386
2020-03-06T22:50:00	0.3523	5.618	159.0	0.958922732	1.322504647	0.029740271	0.306824895	0.094566413
2020-03-06T22:55:00	0.3597	5.601	163.0	0.981126384	1.362384730	0.031108212	0.320937685	0.098916111
2020-03-06T23:00:00	0.3547	5.591	158.0	0.966107921	1.335358744	0.030179151	0.311352742	0.095961939
2020-03-06T23:05:00	0.3530	5.579	163.0	0.961058346	1.326320088	0.029870339	0.308166786	0.094979996
2020-03-06T23:10:00	0.3582	5.569	163.0	0.976606539	1.354228612	0.030826937	0.318035829	0.098021731
2020-03-06T23:15:00	0.3587	5.560	163.0	0.978221942	1.357141392	0.030927300	0.319071251	0.098340858
2020-03-06T23:20:00	0.3580	5.553	163.0	0.976211063	1.353515896	0.030802395	0.317782631	0.097943693
2020-03-06T23:25:00	0.3598	5.550	163.0	0.981450851	1.362970983	0.031128459	0.321146573	0.098980493
2020-03-06T23:30:00	0.3553	5.541	163.0	0.967948245	1.338658911	0.030292143	0.312518456	0.096321223
2020-03-06T23:35:00	0.3574	5.532	163.0	0.974105930	1.349724591	0.030671941	0.316436761	0.097528883
2020-03-06T23:40:00	0.3499	5.520	163.0	0.951466265	1.309216935	0.029288639	0.302165486	0.093130337
2020-03-06T23:45:00	0.3554	5.512	163.0	0.968262432	1.339222649	0.030311457	0.312717716	0.096382637
2020-03-06T23:50:00	0.3486	5.506	163.0	0.947417142	1.302023259	0.029045011	0.299652023	0.092355664
2020-03-06T23:55:00	0.3559	5.492	158.0	0.969683058	1.341772813	0.030398874	0.313619582	0.096660601
2020-03-07T00:00:00	0.3542	5.484	159.0	0.964637888	1.332724914	0.030089066	0.310423344	0.095675489
2020-03-07T00:05:00	0.3562	5.476	163.0	0.970497856	1.343236321	0.030449076	0.314137507	0.096820230
2020-03-07T00:10:00	0.3570	5.468	163.0	0.973023271	1.347776385	0.030604971	0.315745842	0.097315935
2020-03-07T00:15:00	0.3585	5.461	162.0	0.977662828	1.356132956	0.030892542	0.318712662	0.098230338
2020-03-07T00:20:00	0.3600	5.454	162.0	0.981995332	1.363954989	0.031162452	0.321497278	0.099088583
2020-03-07T00:25:00	0.3608	5.444	163.0	0.984513715	1.368509978	0.031319955	0.323122198	0.099589399
2020-03-07T00:30:00	0.3581	5.430	161.0	0.976465292	1.353974044	0.030818171	0.317945385	0.097993855
2020-03-07T00:35:00	0.3567	5.425	162.0	0.972033648	1.345996568	0.030543828	0.315115039	0.097121515
2020-03-07T00:40:00	0.3605	5.417	161.0	0.983619905	1.366892655	0.031264003	0.322544961	0.099411489
2020-03-07T00:45:00	0.3580	5.410	163.0	0.976174328	1.353449700	0.030800116	0.317759117	0.097936446
2020-03-07T00:50:00	0.3573	5.404	162.0	0.973860016	1.349281980	0.030656722	0.316279752	0.097480491
2020-03-07T00:55:00	0.3590	5.395	162.0	0.979102792	1.358730725	0.030982103	0.319636648	0.098515119
2020-03-07T01:00:00	0.3590	5.383	162.0	0.979207240	1.358919232	0.030988605	0.319703728	0.098535794
2020-03-07T01:05:00	0.3565	5.372	162.0	0.971451071	1.344949251	0.030507866	0.314744027	0.097007166
2020-03-07T01:10:00	0.3575	5.367	162.0	0.974580726	1.350579321	0.030701337	0.316740030	0.097622353
2020-03-07T01:15:00	0.3527	5.356	162.0	0.960145228	1.324688202	0.029814688	0.307592635	0.094803037
2020-03-07T01:20:00	0.3596	5.347	162.0	0.980832910	1.361854560	0.031089905	0.320748815	0.098857900
2020-03-07T01:25:00	0.3519	5.341	163.0	0.957623213	1.320185068	0.029661281	0.306009967	0.094315244
2020-03-07T01:30:00	0.3559	5.339	162.0	0.969855638	1.342082742	0.030409504	0.313729242	0.096694399
2020-03-07T01:35:00	0.3526	5.336	163.0	0.959654562	1.323811630	0.029784807	0.307284362	0.094708025
2020-03-07T01:40:00	0.3555	5.328	163.0	0.968551111	1.339740700	0.030329209	0.312900861	0.096439084
2020-03-07T01:45:00	0.3531	5.321	163.0	0.961078174	1.326355531	0.029871549	0.308179260	0.094983841
2020-03-07T01:50:00	0.3501	5.309	162.0	0.952071565	1.310293641	0.029325156	0.302542233	0.093246455
2020-03-07T01:55:00	0.3547	5.300	162.0	0.966139049	1.335414539	0.030181061	0.311372439	0.095968010
2020-03-07T02:00:00	0.3571	5.291	162.0	0.973207018	1.348106951	0.030616331	0.315863043	0.097352057
2020-03-07T02:05:00	0.3507	5.286	161.0	0.953906855	1.313560371	0.029436036	0.303686157	0.093599023
2020-03-07T02:10:00	0.3555	5.281	161.0	0.968573749	1.339781329	0.030330602	0.312915226	0.096443512
2020-03-07T02:15:00	0.3547	5.271	163.0	0.965952138	1.335079533	0.030169598	0.311254177	0.095931560
2020-03-07T02:20:00	0.3531	5.264	163.0	0.961205760	1.326583613	0.029879329	0.308259533	0.095008582
2020-03-07T02:25:00	0.3513	5.254	163.0	0.955846365	1.317016067	0.029553467	0.304897676	0.093972425
2020-03-07T02:30:00	0.3494	5.247	163.0	0.949871529	1.306381877	0.029192550	0.301174159	0.092824801
2020-03-07T02:35:00	0.3532	5.240	162.0	0.961520464	1.327146266	0.029898527	0.308457586	0.095069624
2020-03-07T02:40:00	0.3551	5.231	161.0	0.967384885	1.337648322	0.030257529	0.312161347	0.096211159
2020-03-07T02:45:00	0.3556	5.224	161.0	0.968701102	1.340009899	0.030338435	0.312996044	0.096468420
2020-03-07T02:50:00	0.3495	5.218	160.0	0.950292296	1.307129666	0.029217886	0.301435540	0.092905361
2020-03-07T02:55:00	0.3530	5.212	159.0	0.961029963	1.326269350	0.029868609	0.308148930	0.094974493
2020-03-07T03:00:00	0.3510	5.206	161.0	0.954758870	1.315078000	0.029487591	0.304218037	0.093762953
2020-03-07T03:05:00	0.3502	5.200	162.0	0.952432429	1.310935710	0.029346940	0.302766966	0.093315719
2020-03-07T03:10:00	0.3528	5.191	161.0	0.960434479	1.325205053	0.029832310	0.307774445	0.094859073
2020-03-07T03:15:00	0.3530	5.182	161.0	0.960842818	1.325934834	0.029857198	0.308031212	0.094938211
2020-03-07T03:20:00	0.3543	5.175	162.0	0.964889985	1.333176446	0.030104504	0.310582616	0.095724579
2020-03-07T03:25:00	0.3553	5.172	162.0	0.968024642	1.338795979	0.030296839	0.312566901	0.096336154
2020-03-07T03:30:00	0.3516	5.166	162.0	0.956604305	1.318367484	0.029599430	0.305371861	0.094118573
2020-03-07T03:35:00	0.3536	5.158	162.0	0.962779040	1.329397385	0.029975370	0.309250362	0.095313965
2020-03-07T03:40:00	0.3544	5.152	161.0	0.965309208	1.333927452	0.030130186	0.310847578	0.095806243
2020-03-07T03:45:00	0.3553	5.146	161.0	0.967837816	1.338460793	0.030285356	0.312448438	0.096299643
2020-03-07T03:50:00	0.3497	5.139	157.0	0.950946101	1.308291943	0.029257277	0.301841938	0.093030617
2020-03-07T03:55:00	0.3520	5.134	162.0	0.958040327	1.320929422	0.029686622	0.306271406	0.094395822
2020-03-07T04:00:00	0.3565	5.130	162.0	0.971482159	1.345005130	0.030509784	0.314763819	0.097013266
2020-03-07T04:05:00	0.3537	5.125	162.0	0.962895719	1.329606157	0.029982499	0.309323916	0.095336635
2020-03-07T04:10:00	0.3540	5.122	162.0	0.964004196	1.331590171	0.030050279	0.310023186	0.095552157
2020-03-07T04:15:00	0.3572	5.115	162.0	0.973590073	1.348796185	0.030640021	0.316107451	0.097427386
2020-03-07T04:20:00	0.3560	5.102	162.0	0.970157439	1.342624801	0.030428097	0.313921063	0.096753520
2020-03-07T04:25:00	0.3549	5.090	158.0	0.966721934	1.336459468	0.030216824	0.311741403	0.096081728
2020-03-07T04:30:00	0.3506	5.084	162.0	0.953568877	1.312958547	0.029415599	0.303475316	0.093534040
2020-03-07T04:35:00	0.3569	5.076	162.0	0.972871108	1.347502662	0.030595565	0.315648804	0.097286027
2020-03-07T04:40:00	0.3562	5.070	158.0	0.970648770	1.343507456	0.030458380	0.314233487	0.096849813
2020-03-07T04:45:00	0.3525	5.060	158.0	0.959329848	1.323231656	0.029765042	0.307080448	0.094645176
2020-03-07T04:50:00	0.3548	5.053	162.0	0.966503478	1.336067807	0.030203418	0.311603092	0.096039099
2020-03-07T04:55:00	0.3564	5.046	162.0	0.971244212	1.344577451	0.030495102	0.314612349	0.096966581
2020-03-07T05:00:00	0.3583	5.038	162.0	0.976886246	1.354732781	0.030844302	0.318214976	0.098076946
2020-03-07T05:05:00	0.3537	5.033	163.0	0.963159394	1.330077992	0.029998614	0.309490172	0.095387877
2020-03-07T05:10:00	0.3532	5.027	163.0	0.961538537	1.327178581	0.029899629	0.308468962	0.095073130
2020-03-07T05:15:00	0.3532	5.019	163.0	0.961434119	1.326991883	0.029893259	0.308403240	0.095052874
2020-03-07T05:20:00	0.3540	5.016	163.0	0.964059102	1.331688476	0.030053638	0.310057846	0.095562840
2020-03-07T05:25:00	0.3552	5.014	162.0	0.967591218	1.338018420	0.030270204	0.312292113	0.096251462
2020-03-07T05:30:00	0.3541	5.008	162.0	0.964153563	1.331857607	0.030059419	0.310117481	0.095581220
2020-03-07T05:35:00	0.3552	5.001	162.0	0.967685598	1.338187722	0.030276003	0.312351938	0.096269901
2020-03-07T05:40:00	0.3553	4.998	162.0	0.967884232	1.338544065	0.030288209	0.312477867	0.096308713
2020-03-07T05:45:00	0.3526	4.990	162.0	0.959593753	1.323703012	0.029781105	0.307246169	0.094696253
2020-03-07T05:50:00	0.3532	4.984	163.0	0.961613266	1.327312203	0.029904189	0.308516003	0.095087628
2020-03-07T05:55:00	0.3529	4.978	162.0	0.960598685	1.325498503	0.029842317	0.307877685	0.094890893
2020-03-07T06:00:00	0.3559	4.971	162.0	0.969587043	1.341600397	0.030392962	0.313558583	0.096641800
2020-03-07T06:05:00	0.3580	4.966	158.0	0.976138277	1.353384738	0.030797879	0.317736043	0.097929334
2020-03-07T06:10:00	0.3520	4.962	162.0	0.957857069	1.320602371	0.029675487	0.306156528	0.094360415
2020-03-07T06:15:00	0.3506	4.958	163.0	0.953499475	1.312834977	0.029411404	0.303432030	0.093520699
2020-03-07T06:20:00	0.3563	4.955	162.0	0.970986506	1.344114319	0.030479206	0.314448347	0.096916034
2020-03-07T06:25:00	0.3578	4.950	163.0	0.975419757	1.352090274	0.030753322	0.317276349	0.097787652
2020-03-07T06:30:00	0.3520	4.948	158.0	0.957742653	1.320398196	0.029668536	0.306084817	0.094338313
2020-03-07T06:35:00	0.3512	4.947	164.0	0.955512092	1.316420227	0.029533210	0.304688678	0.093908010
2020-03-07T06:40:00	0.3555	4.945	158.0	0.968450439	1.339560030	0.030323018	0.312836986	0.096419397
2020-03-07T06:45:00	0.3542	4.945	159.0	0.964710398	1.332854781	0.030093506	0.310469150	0.095689607
2020-03-07T06:50:00	0.3562	4.942	158.0	0.970664094	1.343534989	0.030459324	0.314243235	0.096852817
2020-03-07T06:55:00	0.3584	4.940	162.0	0.977213613	1.355322953	0.030864632	0.318424722	0.098141592
2020-03-07T07:00:00	0.3547	4.936	162.0	0.966215822	1.335552150	0.030185770	0.311421023	0.095982984
2020-03-07T07:05:00	0.3556	4.935	158.0	0.968837745	1.340255162	0.030346842	0.313082770	0.096495150
2020-03-07T07:10:00	0.3530	4.935	162.0	0.960852612	1.325952339	0.029857795	0.308037372	0.094940110
2020-03-07T07:15:00	0.3536	4.933	161.0	0.962871504	1.329562828	0.029981019	0.309308650	0.095331930
2020-03-07T07:20:00	0.3548	4.933	160.0	0.966404644	1.335890626	0.030197353	0.311540529	0.096019817
2020-03-07T07:25:00	0.3578	4.931	161.0	0.975380309	1.352019220	0.030750876	0.317251122	0.097779877
2020-03-07T07:30:00	0.3580	4.929	161.0	0.976183161	1.353465617	0.030800664	0.317764771	0.097938188
2020-03-07T07:35:00	0.3567	4.931	161.0	0.972147597	1.346201456	0.030550864	0.315187636	0.097143890
2020-03-07T07:40:00	0.3579	4.931	162.0	0.975672768	1.352546036	0.030769007	0.317438177	0.097837529
2020-03-07T07:45:00	0.3562	4.933	162.0	0.970728784	1.343651220	0.030463313	0.314284383	0.096865499
2020-03-07T07:50:00	0.3577	4.933	162.0	0.975162313	1.351626589	0.030737365	0.317111733	0.097736916
2020-03-07T07:55:00	0.3568	4.931	163.0	0.972336146	1.346540505	0.030562510	0.315307781	0.097180920
2020-03-07T08:00:00	0.3533	4.934	158.0	0.961931959	1.327882110	0.029923638	0.308716661	0.095149473
2020-03-07T08:05:00	0.3574	4.934	158.0	0.974245306	1.349975473	0.030680568	0.316525768	0.097556316
2020-03-07T08:10:00	0.3569	4.933	158.0	0.972628821	1.347066863	0.030580592	0.315494327	0.097238416
2020-03-07T08:15:00	0.3595	4.932	163.0	0.980685207	1.361587763	0.031080693	0.320653783	0.098828610
2020-03-07T08:20:00	0.3582	4.933	159.0	0.976654054	1.354314252	0.030829887	0.318066258	0.098031110
2020-03-07T08:25:00	0.3537	4.936	163.0	0.962926425	1.329661101	0.029984376	0.309343275	0.095342602
2020-03-07T08:30:00	0.3593	4.932	162.0	0.980071427	1.360479305	0.031042432	0.320259045	0.098706948
2020-03-07T08:35:00	0.3558	4.931	162.0	0.969384068	1.341235938	0.030380464	0.313429651	0.096602062
2020-03-07T08:40:00	0.3590	4.930	163.0	0.978957422	1.358468381	0.030973055	0.319543300	0.098486348
2020-03-07T08:45:00	0.3588	4.930	163.0	0.978551359	1.357735678	0.030947789	0.319282630	0.098406007
2020-03-07T08:50:00	0.3573	4.932	163.0	0.973913284	1.349377849	0.030660018	0.316313758	0.097490972
2020-03-07T08:55:00	0.3559	4.931	162.0	0.969572744	1.341574720	0.030392081	0.313549498	0.096639001
2020-03-07T09:00:00	0.3574	4.933	162.0	0.974309940	1.350091824	0.030684570	0.316567049	0.097569039
2020-03-07T09:05:00	0.3576	4.936	163.0	0.974810638	1.350993286	0.030715577	0.316886941	0.097667633
2020-03-07T09:10:00	0.3592	4.938	161.0	0.979541812	1.359523133	0.031009438	0.319918656	0.098602037
2020-03-07T09:15:00	0.3571	4.937	162.0	0.973392743	1.348441110	0.030627816	0.315981531	0.097388577
2020-03-07T09:20:00	0.3604	4.941	162.0	0.983258560	1.366239029	0.031241400	0.322311764	0.099339616
2020-03-07T09:25:00	0.3553	4.944	162.0	0.968038912	1.338821583	0.030297716	0.312575950	0.096338944
2020-03-07T09:30:00	0.3589	4.946	162.0	0.978823886	1.358227409	0.030964745	0.319457563	0.098459924
2020-03-07T09:35:00	0.3572	4.945	162.0	0.973581234	1.348780280	0.030639474	0.316101810	0.097425648
2020-03-07T09:40:00	0.3625	4.944	162.0	0.989778307	1.378051588	0.031650658	0.326534000	0.100640950
2020-03-07T09:45:00	0.3614	4.944	157.0	0.986359121	1.371851601	0.031435653	0.324315837	0.099957291
2020-03-07T09:50:00	0.3597	4.946	160.0	0.981126042	1.362384112	0.031108190	0.320937465	0.098916044
2020-03-07T09:55:00	0.3591	4.948	158.0	0.979512256	1.359469780	0.031007597	0.319899666	0.098596184
2020-03-07T10:00:00	0.3593	4.949	158.0	0.980012322	1.360372583	0.031038749	0.320221047	0.098695237
2020-03-07T10:05:00	0.3587	4.950	157.0	0.978047796	1.356827265	0.030916472	0.318959538	0.098306427
2020-03-07T10:10:00	0.3589	4.951	157.0	0.978801954	1.358187835	0.030963380	0.319443484	0.098455584
2020-03-07T10:15:00	0.3552	4.953	159.0	0.967457209	1.337778045	0.030261971	0.312207180	0.096225285
2020-03-07T10:20:00	0.3595	4.952	159.0	0.980611816	1.361455202	0.031076117	0.320606568	0.098814058
2020-03-07T10:25:00	0.3583	4.954	159.0	0.976834626	1.354639731	0.030841097	0.318181911	0.098066755
2020-03-07T10:30:00	0.3590	4.956	159.0	0.979099576	1.358724921	0.030981903	0.319634583	0.098514483
2020-03-07T10:35:00	0.3607	4.959	159.0	0.984079426	1.367724050	0.031292762	0.322841654	0.099502933
2020-03-07T10:40:00	0.3561	4.962	158.0	0.970328319	1.342931755	0.030438627	0.314029702	0.096787004
2020-03-07T10:45:00	0.3609	4.964	159.0	0.984680550	1.368811947	0.031330404	0.323230007	0.099622627
2020-03-07T10:50:00	0.3568	4.965	160.0	0.972444467	1.346735304	0.030569201	0.315376815	0.097202197
2020-03-07T10:55:00	0.3608	4.968	153.0	0.984376667	1.368261946	0.031311372	0.323033653	0.099562109
2020-03-07T11:00:00	0.3597	4.967	154.0	0.981206777	1.362529975	0.031113228	0.320989434	0.098932061
2020-03-07T11:05:00	0.3597	4.972	154.0	0.981054710	1.362255241	0.031103740	0.320891553	0.098901893
2020-03-07T11:10:00	0.3575	4.977	153.0	0.974557299	1.350537143	0.030699886	0.316725063	0.097617740
2020-03-07T11:15:00	0.3605	4.983	154.0	0.983467107	1.366616248	0.031254444	0.322446340	0.099381093
2020-03-07T11:20:00	0.3601	4.985	155.0	0.982409774	1.364704172	0.031188341	0.321764367	0.099170903
2020-03-07T11:25:00	0.3585	4.993	155.0	0.977727853	1.356250222	0.030896583	0.318754354	0.098243188
2020-03-07T11:30:00	0.3579	5.001	156.0	0.975762238	1.352707216	0.030774555	0.317495414	0.097855170
2020-03-07T11:35:00	0.3554	5.013	156.0	0.968348016	1.339376226	0.030316719	0.312772006	0.096399370
2020-03-07T11:40:00	0.3516	5.027	156.0	0.956670593	1.318485703	0.029603452	0.305413352	0.094131361
2020-03-07T11:45:00	0.3570	5.046	156.0	0.973188517	1.348073666	0.030615187	0.315851241	0.097348420
2020-03-07T11:50:00	0.3561	5.060	156.0	0.970312720	1.342903732	0.030437665	0.314019783	0.096783947
2020-03-07T11:55:00	0.3572	5.083	152.0	0.973791230	1.349158185	0.030652466	0.316235842	0.097466958
2020-03-07T12:00:00	0.3540	5.103	155.0	0.963948774	1.331490946	0.030046888	0.309988203	0.095541375
2020-03-07T12:05:00	0.3514	5.124	151.0	0.956209406	1.317663307	0.029575478	0.305124752	0.094042412
2020-03-07T12:10:00	0.3561	5.140	152.0	0.970308263	1.342895725	0.030437391	0.314016949	0.096783073
2020-03-07T12:15:00	0.3530	5.152	155.0	0.961064257	1.326330653	0.029870700	0.308170505	0.094981142
2020-03-07T12:20:00	0.3516	5.169	155.0	0.956661649	1.318469752	0.029602909	0.305407754	0.094129636
2020-03-07T12:25:00	0.3555	5.188	156.0	0.968639706	1.339899707	0.030334659	0.312957081	0.096456412
2020-03-07T12:30:00	0.3536	5.205	155.0	0.962729200	1.329308212	0.029972324	0.309218946	0.095304282
2020-03-07T12:35:00	0.3532	5.224	155.0	0.961666521	1.327407429	0.029907438	0.308549529	0.095097961
2020-03-07T12:40:00	0.3466	5.243	157.0	0.941443066	1.291437956	0.028687645	0.295965143	0.091219332
2020-03-07T12:45:00	0.3526	5.251	153.0	0.959843823	1.324149718	0.029796331	0.307403249	0.094744667
2020-03-07T12:50:00	0.3519	5.258	153.0	0.957565985	1.320082955	0.029657805	0.305974107	0.094304191
2020-03-07T12:55:00	0.3510	5.267	152.0	0.954983048	1.315477424	0.029501164	0.304358069	0.093806113
2020-03-07T13:00:00	0.3534	5.284	152.0	0.962115927	1.328211139	0.029934869	0.308832526	0.095185184
2020-03-07T13:05:00	0.3504	5.301	153.0	0.953157366	1.312225931	0.029390727	0.303218713	0.093454952
2020-03-07T13:10:00	0.3516	5.311	156.0	0.956650469	1.318449814	0.029602231	0.305400756	0.094127479
2020-03-07T13:15:00	0.3507	5.313	156.0	0.954066953	1.313845488	0.029445720	0.303786060	0.093629814
2020-03-07T13:20:00	0.3534	5.306	154.0	0.962111461	1.328203151	0.029934596	0.308829713	0.095184317
2020-03-07T13:25:00	0.3531	5.319	152.0	0.961351999	1.326845060	0.029888249	0.308351558	0.095036945
2020-03-07T13:30:00	0.3505	5.328	152.0	0.953303756	1.312486532	0.029399574	0.303309982	0.093483082
2020-03-07T13:35:00	0.3481	5.319	153.0	0.946153198	1.299780903	0.028969195	0.298869850	0.092114590
2020-03-07T13:40:00	0.3511	5.326	152.0	0.955124899	1.315730190	0.029509754	0.304446695	0.093833428
2020-03-07T13:45:00	0.3512	5.330	151.0	0.955579499	1.316540371	0.029537294	0.304730817	0.093920997
2020-03-07T13:50:00	0.3443	5.329	153.0	0.934409657	1.279018733	0.028270084	0.291657241	0.089891594
2020-03-07T13:55:00	0.3461	5.332	153.0	0.940054161	1.288981812	0.028604916	0.295111649	0.090956276
2020-03-07T14:00:00	0.3500	5.329	155.0	0.951776934	1.309769508	0.029307378	0.302358818	0.093189924
2020-03-07T14:05:00	0.3487	5.332	155.0	0.947973058	1.303009983	0.029078392	0.299996406	0.092461806
2020-03-07T14:10:00	0.3473	5.336	152.0	0.943556282	1.295178460	0.028813773	0.297266383	0.091620386
2020-03-07T14:15:00	0.3512	5.353	153.0	0.955572789	1.316528412	0.029536887	0.304726622	0.093919704
2020-03-07T14:20:00	0.3494	5.376	153.0	0.949947575	1.306517014	0.029197128	0.301221389	0.092839358
2020-03-07T14:25:00	0.3515	5.396	157.0	0.956481838	1.318149088	0.029592001	0.305295215	0.094094950
2020-03-07T14:30:00	0.3475	5.409	158.0	0.944161138	1.296249861	0.028849931	0.297639419	0.091735360
2020-03-07T14:35:00	0.3448	5.418	159.0	0.936078796	1.281961799	0.028368867	0.292676375	0.090205701
2020-03-07T14:40:00	0.3459	5.414	158.0	0.939281593	1.287616386	0.028558957	0.294637496	0.090810138
2020-03-07T14:45:00	0.3509	5.415	153.0	0.954654590	1.314892215	0.029481278	0.304152910	0.093742881
2020-03-07T14:50:00	0.3456	5.424	154.0	0.938364199	1.285995728	0.028504436	0.294075013	0.090636775
2020-03-07T14:55:00	0.3467	5.421	154.0	0.941870023	1.292193354	0.028713103	0.296227790	0.091300282
2020-03-07T15:00:00	0.3476	5.416	159.0	0.944459046	1.296777683	0.028867749	0.297823247	0.091792017
2020-03-07T15:05:00	0.3474	5.406	159.0	0.944000960	1.295966100	0.028840353	0.297540607	0.091704905
2020-03-07T15:10:00	0.3490	5.397	153.0	0.948719332	1.304335041	0.029123236	0.300459062	0.092604401
2020-03-07T15:15:00	0.3471	5.385	153.0	0.943084634	1.294343253	0.028785595	0.296975682	0.091530789
2020-03-07T15:20:00	0.3485	5.373	153.0	0.947195272	1.301629530	0.029031694	0.299514638	0.092313320
2020-03-07T15:25:00	0.3485	5.368	158.0	0.947346359	1.301897642	0.029040762	0.299608189	0.092342154
2020-03-07T15:30:00	0.3457	5.362	158.0	0.938660288	1.286518709	0.028522026	0.294256488	0.090692708
2020-03-07T15:35:00	0.3506	5.358	154.0	0.953731708	1.313248479	0.029425444	0.303576885	0.093565344
2020-03-07T15:40:00	0.3491	5.350	153.0	0.949016907	1.304863551	0.029141129	0.300643657	0.092661295
2020-03-07T15:45:00	0.3483	5.340	151.0	0.946733011	1.300809359	0.029003961	0.299228516	0.092225135
2020-03-07T15:50:00	0.3453	5.332	157.0	0.937435365	1.284355665	0.028449295	0.293506128	0.090461439
2020-03-07T15:55:00	0.3483	5.325	158.0	0.946730770	1.300805383	0.029003826	0.299227129	0.092224707
2020-03-07T16:00:00	0.3478	5.316	157.0	0.945054798	1.297833463	0.028903400	0.298191052	0.091905378
2020-03-07T16:05:00	0.3485	5.314	156.0	0.947105555	1.301470333	0.029026311	0.299459095	0.092296201
2020-03-07T16:10:00	0.3494	5.313	156.0	0.950067998	1.306731022	0.029204379	0.301296190	0.092862412
2020-03-07T16:15:00	0.3487	5.314	154.0	0.947857262	1.302804425	0.029071437	0.299924653	0.092439691
2020-03-07T16:20:00	0.3497	5.314	157.0	0.950819159	1.308066245	0.029249627	0.301763008	0.093006290
2020-03-07T16:25:00	0.3520	5.314	156.0	0.958031696	1.320914017	0.029686097	0.306265995	0.094394154
2020-03-07T16:30:00	0.3506	5.313	156.0	0.953698282	1.313188959	0.029423423	0.303556033	0.093558917
2020-03-07T16:35:00	0.3552	5.312	156.0	0.967575093	1.337989495	0.030269213	0.312281893	0.096248312
2020-03-07T16:40:00	0.3552	5.309	155.0	0.967494743	1.337845368	0.030264277	0.312230967	0.096232616
2020-03-07T16:45:00	0.3526	5.305	155.0	0.959834439	1.324132954	0.029795759	0.307397354	0.094742850
2020-03-07T16:50:00	0.3546	5.304	157.0	0.965819139	1.334841178	0.030161443	0.311170042	0.095905629
2020-03-07T16:55:00	0.3559	5.299	157.0	0.969676405	1.341760867	0.030398465	0.313615356	0.096659298
2020-03-07T17:00:00	0.3581	5.293	157.0	0.976251359	1.353588509	0.030804895	0.317808424	0.097951643
2020-03-07T17:05:00	0.3611	5.284	156.0	0.985531022	1.370351696	0.031383705	0.323779901	0.099792110
2020-03-07T17:10:00	0.3569	5.271	156.0	0.972764581	1.347311045	0.030588981	0.315580879	0.097265092
2020-03-07T17:15:00	0.3595	5.259	152.0	0.980542595	1.361330180	0.031071801	0.320562041	0.098800334
2020-03-07T17:20:00	0.3600	5.248	156.0	0.981972016	1.363912845	0.031160996	0.321482255	0.099083953
2020-03-07T17:25:00	0.3601	5.238	158.0	0.982495611	1.364859359	0.031193705	0.321819701	0.099187957
2020-03-07T17:30:00	0.3632	5.229	157.0	0.991761280	1.381652420	0.031775730	0.327824354	0.101038650
2020-03-07T17:35:00	0.3626	5.219	156.0	0.989874160	1.378225559	0.031656697	0.326596307	0.100660154
2020-03-07T17:40:00	0.3615	5.206	157.0	0.986780365	1.372614837	0.031462097	0.324588653	0.100041375
2020-03-07T17:45:00	0.3661	5.194	157.0	1.000546397	1.397650375	0.032333199	0.333575654	0.102811256
2020-03-07T17:50:00	0.3634	5.181	156.0	0.992345126	1.382713328	0.031812609	0.328204820	0.101155913
2020-03-07T17:55:00	0.3625	5.168	156.0	0.989554483	1.377645388	0.031636558	0.326388535	0.100596116
2020-03-07T18:00:00	0.3620	5.155	156.0	0.988269179	1.375313719	0.031555659	0.325553914	0.100338878
2020-03-07T18:05:00	0.3626	5.142	155.0	0.989997205	1.378448896	0.031664451	0.326676300	0.100684808
2020-03-07T18:10:00	0.3628	5.127	156.0	0.990519786	1.379397581	0.031697393	0.327016156	0.100789555
2020-03-07T18:15:00	0.3686	5.112	154.0	1.007874662	1.411051979	0.032802429	0.338416614	0.104303287
2020-03-07T18:20:00	0.3658	5.098	149.0	0.999687832	1.396083642	0.032278476	0.333011083	0.102637250
2020-03-07T18:25:00	0.3672	5.082	154.0	1.003813916	1.403619497	0.032541945	0.335729249	0.103475015
2020-03-07T18:30:00	0.3698	5.066	155.0	1.011533976	1.417763286	0.033038173	0.340848736	0.105052891
2020-03-07T18:35:00	0.3645	5.049	155.0	0.995539286	1.388523220	0.032014795	0.330290737	0.101798813
2020-03-07T18:40:00	0.3655	5.033	155.0	0.998767698	1.394405341	0.032219886	0.332406628	0.102450951
2020-03-07T18:45:00	0.3659	5.016	155.0	0.999890312	1.396453069	0.032291377	0.333144180	0.102678272
2020-03-07T18:50:00	0.3659	4.999	155.0	0.999810587	1.396307606	0.032286297	0.333091771	0.102662119
2020-03-07T18:55:00	0.3684	4.982	155.0	1.007238045	1.409885716	0.032761514	0.337994503	0.104173188
2020-03-07T19:00:00	0.3703	4.966	155.0	1.013154616	1.420739712	0.033142885	0.341929037	0.105385850
2020-03-07T19:05:00	0.3699	4.948	155.0	1.011876579	1.418392290	0.033060293	0.341076949	0.105123228
2020-03-07T19:10:00	0.3683	4.931	155.0	1.006999288	1.409448422	0.032746177	0.337836272	0.104124420
2020-03-07T19:15:00	0.3644	4.913	155.0	0.995502551	1.388456347	0.032012465	0.330266705	0.101791406
2020-03-07T19:20:00	0.3689	4.895	149.0	1.008939903	1.413004338	0.032870956	0.339123594	0.104521185
2020-03-07T19:25:00	0.3704	4.878	153.0	1.013356444	1.421110561	0.033155939	0.342063710	0.105427357
2020-03-07T19:30:00	0.3702	4.861	148.0	1.012677765	1.419863677	0.033112055	0.341610972	0.105287819
2020-03-07T19:35:00	0.3726	4.844	153.0	1.020082415	1.433491652	0.033592628	0.346568953	0.106815917
2020-03-07T19:40:00	0.3720	4.826	152.0	1.018208067	1.430036992	0.033470608	0.345310093	0.106427924
2020-03-07T19:45:00	0.3713	4.809	152.0	1.016033506	1.426033243	0.033329360	0.343852866	0.105978793
2020-03-07T19:50:00	0.3688	4.792	148.0	1.008462571	1.412129355	0.032840239	0.338806694	0.104423514
2020-03-07T19:55:00	0.3680	4.776	152.0	1.006282937	1.408136718	0.032700185	0.337361776	0.103978176
2020-03-07T20:00:00	0.3725	4.760	147.0	1.019685699	1.432760172	0.033566781	0.346302291	0.106733729
2020-03-07T20:05:00	0.3693	4.743	146.0	1.010023175	1.414990864	0.032940726	0.339843400	0.104743037
2020-03-07T20:10:00	0.3701	4.728	146.0	1.012341540	1.419246122	0.033090327	0.341386807	0.105218729
2020-03-07T20:15:00	0.3696	4.712	146.0	1.011063254	1.416899245	0.033007794	0.340535322	0.104956293
2020-03-07T20:20:00	0.3730	4.696	151.0	1.021162811	1.435484498	0.033663077	0.347295758	0.107039926
2020-03-07T20:25:00	0.3717	4.678	147.0	1.017194339	1.428169973	0.033404719	0.344630333	0.106218416
2020-03-07T20:30:00	0.3720	4.661	147.0	1.018312013	1.430228487	0.033477368	0.345379837	0.106449420
2020-03-07T20:35:00	0.3703	4.644	147.0	1.013142638	1.420717704	0.033142111	0.341921046	0.105383387
2020-03-07T20:40:00	0.3725	4.627	152.0	1.019649176	1.432692837	0.033564402	0.346277747	0.106726165
2020-03-07T20:45:00	0.3697	4.609	146.0	1.011185676	1.417123937	0.033015693	0.340616816	0.104981411
2020-03-07T20:50:00	0.3702	4.591	151.0	1.012904218	1.420279673	0.033126694	0.341761998	0.105334367
2020-03-07T20:55:00	0.3738	4.574	146.0	1.023597086	1.439978774	0.033822115	0.348936523	0.107545625
2020-03-07T21:00:00	0.3711	4.557	150.0	1.015440997	1.424943120	0.033290933	0.343456418	0.105856604
2020-03-07T21:05:00	0.3674	4.540	145.0	1.004267772	1.404449416	0.032571000	0.336029004	0.103567402
2020-03-07T21:10:00	0.3713	4.523	144.0	1.016180365	1.426303493	0.033338889	0.343951170	0.106009091
2020-03-07T21:15:00	0.3724	4.510	145.0	1.019392864	1.432220328	0.033547709	0.346105530	0.106673086
2020-03-07T21:20:00	0.3733	4.497	144.0	1.022005026	1.437038789	0.033718053	0.347862935	0.107214735
2020-03-07T21:25:00	0.3708	4.484	146.0	1.014444883	1.423111191	0.033226386	0.342790504	0.105651363
2020-03-07T21:30:00	0.3684	4.475	145.0	1.007471113	1.410312645	0.032776490	0.338149005	0.104220807
2020-03-07T21:35:00	0.3621	4.467	143.0	0.988448117	1.375638236	0.031566914	0.325670037	0.100374668
2020-03-07T21:40:00	0.3702	4.459	150.0	1.012708681	1.419920467	0.033114054	0.341631588	0.105294173
2020-03-07T21:45:00	0.3683	4.451	147.0	1.007232370	1.409875322	0.032761150	0.337990741	0.104172029
2020-03-07T21:50:00	0.3703	4.443	145.0	1.013148949	1.420729300	0.033142519	0.341925257	0.105384685
2020-03-07T21:55:00	0.3698	4.436	147.0	1.011571214	1.417831649	0.033040576	0.340873537	0.105060535
2020-03-07T22:00:00	0.3712	4.432	152.0	1.015685579	1.425393073	0.033306792	0.343620037	0.105907033
2020-03-07T22:05:00	0.3731	4.427	152.0	1.021494874	1.436097233	0.033684746	0.347519319	0.107108829
2020-03-07T22:10:00	0.3673	4.420	152.0	1.003941617	1.403852990	0.032550119	0.335813575	0.103501005
2020-03-07T22:15:00	0.3706	4.415	151.0	1.013962818	1.422224980	0.033195175	0.342468502	0.105552118
2020-03-07T22:20:00	0.3678	4.412	151.0	1.005692206	1.407055408	0.032662285	0.336970774	0.103857665
2020-03-07T22:25:00	0.3716	4.409	149.0	1.016906686	1.427640374	0.033386037	0.344437585	0.106159009
2020-03-07T22:30:00	0.3710	4.405	151.0	1.015234860	1.424563941	0.033277570	0.343318553	0.105814112
2020-03-07T22:35:00	0.3707	4.401	149.0	1.014161452	1.422590114	0.033208034	0.342601162	0.105593005
2020-03-07T22:40:00	0.3712	4.398	151.0	1.015783280	1.425572826	0.033313129	0.343685408	0.105927181
2020-03-07T22:45:00	0.3709	4.393	147.0	1.015009483	1.424149416	0.033262963	0.343167856	0.105767666
2020-03-07T22:50:00	0.3717	4.387	151.0	1.017229629	1.428234951	0.033407012	0.344653984	0.106225705
2020-03-07T22:55:00	0.3709	4.381	150.0	1.014959047	1.424056658	0.033259695	0.343134137	0.105757274
2020-03-07T23:00:00	0.3702	4.375	152.0	1.012687233	1.419881069	0.033112667	0.341617286	0.105289765
2020-03-07T23:05:00	0.3677	4.372	151.0	1.005314658	1.406364496	0.032638076	0.336721010	0.103780686
2020-03-07T23:10:00	0.3738	4.366	146.0	1.023409595	1.439632416	0.033809850	0.348809993	0.107506628
2020-03-07T23:15:00	0.3688	4.362	150.0	1.008564550	1.412316272	0.032846800	0.338874384	0.104444376
2020-03-07T23:20:00	0.3716	4.358	151.0	1.017078399	1.427956505	0.033397189	0.344552637	0.106194469
2020-03-07T23:25:00	0.3723	4.356	152.0	1.018998285	1.431493050	0.033522021	0.345840506	0.106591403
2020-03-07T23:30:00	0.3717	4.355	151.0	1.017327293	1.428414783	0.033413357	0.344719443	0.106245880
2020-03-07T23:35:00	0.3722	4.354	153.0	1.018648707	1.430848842	0.033499271	0.345605804	0.106519065
2020-03-07T23:40:00	0.3707	4.353	152.0	1.014282832	1.422813258	0.033215893	0.342682241	0.105617995
2020-03-07T23:45:00	0.3736	4.354	151.0	1.023083979	1.439030976	0.033788557	0.348590310	0.107438919
2020-03-07T23:50:00	0.3743	4.355	151.0	1.025001123	1.442573578	0.033914039	0.349884884	0.107837919
2020-03-07T23:55:00	0.3744	4.354	152.0	1.025424067	1.443355594	0.033941757	0.350170849	0.107926057
2020-03-08T00:00:00	0.3736	4.355	150.0	1.022859022	1.438615522	0.033773850	0.348438585	0.107392156
2020-03-08T00:05:00	0.3753	4.356	153.0	1.028061396	1.448235874	0.034114890	0.351957033	0.108476576
2020-03-08T00:10:00	0.3760	4.358	153.0	1.029976276	1.451783503	0.034240911	0.353257168	0.108877290
2020-03-08T00:15:00	0.3713	4.358	153.0	1.016052732	1.426068622	0.033330608	0.343865735	0.105982759
2020-03-08T00:20:00	0.3710	4.360	152.0	1.015278985	1.424645103	0.033280430	0.343348061	0.105823207
2020-03-08T00:25:00	0.3745	4.361	153.0	1.025571850	1.443628884	0.033951445	0.350270802	0.107956863
2020-03-08T00:30:00	0.3753	4.363	154.0	1.028084964	1.448279515	0.034116440	0.351973018	0.108481502
2020-03-08T00:35:00	0.3734	4.365	153.0	1.022234430	1.437462268	0.033733036	0.348017515	0.107262378
2020-03-08T00:40:00	0.3704	4.366	150.0	1.013381044	1.421155765	0.033157530	0.342080126	0.105432417
2020-03-08T00:45:00	0.3716	4.368	152.0	1.017098875	1.427994205	0.033398518	0.344566358	0.106198698
2020-03-08T00:50:00	0.3751	4.368	151.0	1.027387288	1.446987822	0.034070589	0.351499987	0.108335710
2020-03-08T00:55:00	0.3737	4.368	154.0	1.023329370	1.439484224	0.033804603	0.348755860	0.107489943
2020-03-08T01:00:00	0.3747	4.368	155.0	1.026142500	1.444684361	0.033988870	0.350656909	0.108075865
2020-03-08T01:05:00	0.3766	4.369	150.0	1.031937379	1.455420444	0.034370249	0.354591520	0.109288550
2020-03-08T01:10:00	0.3716	4.370	154.0	1.017122504	1.428037709	0.033400053	0.344582192	0.106203578
2020-03-08T01:15:00	0.3720	4.371	149.0	1.018144757	1.429920361	0.033466491	0.345267618	0.106414833
2020-03-08T01:20:00	0.3712	4.371	152.0	1.015874670	1.425740978	0.033319056	0.343746564	0.105946029
2020-03-08T01:25:00	0.3717	4.372	153.0	1.017196542	1.428174030	0.033404863	0.344631810	0.106218871
2020-03-08T01:30:00	0.3712	4.374	152.0	1.015824245	1.425648197	0.033315786	0.343712820	0.105935629
2020-03-08T01:35:00	0.3726	4.376	149.0	1.019839037	1.433042884	0.033576770	0.346405347	0.106765492
2020-03-08T01:40:00	0.3720	4.378	154.0	1.018168380	1.429963879	0.033468027	0.345283466	0.106419718
2020-03-08T01:45:00	0.3757	4.379	149.0	1.029349595	1.450622083	0.034199639	0.352831373	0.108746056
2020-03-08T01:50:00	0.3721	4.382	155.0	1.018417209	1.430422299	0.033484211	0.345450429	0.106471177
2020-03-08T01:55:00	0.3724	4.383	155.0	1.019439147	1.432305646	0.033550723	0.346136624	0.106682669
2020-03-08T02:00:00	0.3684	4.384	153.0	1.007280997	1.409964390	0.032764274	0.338022973	0.104181963
2020-03-08T02:05:00	0.3706	4.385	155.0	1.014000646	1.422294513	0.033197624	0.342493763	0.105559904
2020-03-08T02:10:00	0.3712	4.388	155.0	1.015921942	1.425827957	0.033322123	0.343778199	0.105955780
2020-03-08T02:15:00	0.3725	4.390	156.0	1.019637521	1.432671350	0.033563643	0.346269915	0.106723751
2020-03-08T02:20:00	0.3732	4.391	156.0	1.021855221	1.436762277	0.033708270	0.347762013	0.107183630
2020-03-08T02:25:00	0.3699	4.394	156.0	1.011802446	1.418256176	0.033055506	0.341027561	0.105108006
2020-03-08T02:30:00	0.3692	4.394	156.0	1.009828760	1.414634258	0.032928198	0.339714153	0.104703201
2020-03-08T02:35:00	0.3677	4.392	156.0	1.005153511	1.406069639	0.032627746	0.336614437	0.103747839
2020-03-08T02:40:00	0.3713	4.392	156.0	1.016070060	1.426100508	0.033331732	0.343877333	0.105986334
2020-03-08T02:45:00	0.3728	4.392	152.0	1.020682771	1.434598901	0.033631765	0.346972718	0.106940362
2020-03-08T02:50:00	0.3724	4.392	156.0	1.019311613	1.432070556	0.033542418	0.346050947	0.106656263
2020-03-08T02:55:00	0.3725	4.394	157.0	1.019735130	1.432851305	0.033570001	0.346335511	0.106743968
2020-03-08T03:00:00	0.3743	4.395	157.0	1.024941366	1.442463103	0.033910123	0.349844491	0.107825470
2020-03-08T03:05:00	0.3686	4.394	157.0	1.008002545	1.411286303	0.032810651	0.338501443	0.104329432
2020-03-08T03:10:00	0.3719	4.392	157.0	1.018014032	1.429679553	0.033457991	0.345179923	0.106387805
2020-03-08T03:15:00	0.3722	4.386	151.0	1.018736884	1.431011324	0.033505008	0.345664996	0.106537309
2020-03-08T03:20:00	0.3722	4.378	157.0	1.018861284	1.431240567	0.033513104	0.345748514	0.106563050
2020-03-08T03:25:00	0.3718	4.370	157.0	1.017489531	1.428713536	0.033423898	0.344828197	0.106279399
2020-03-08T03:30:00	0.3729	4.364	157.0	1.020904694	1.435008286	0.033646238	0.347122039	0.106986384
2020-03-08T03:35:00	0.3683	4.357	157.0	1.006950965	1.409359921	0.032743073	0.337804251	0.104114551
2020-03-08T03:40:00	0.3719	4.349	156.0	1.017862830	1.429401045	0.033448161	0.345078507	0.106356547
2020-03-08T03:45:00	0.3730	4.341	157.0	1.021277690	1.435696465	0.033670573	0.347373091	0.107063760
2020-03-08T03:50:00	0.3723	4.334	158.0	1.019009298	1.431513347	0.033522737	0.345847901	0.106593682
2020-03-08T03:55:00	0.3695	4.325	157.0	1.010748664	1.416321911	0.032987500	0.340325954	0.104891764
2020-03-08T04:00:00	0.3708	4.316	157.0	1.014468832	1.423155224	0.033227938	0.342806506	0.105656294
2020-03-08T04:05:00	0.3725	4.306	157.0	1.019678923	1.432747679	0.033566340	0.346297737	0.106732326
2020-03-08T04:10:00	0.3680	4.298	157.0	1.006318625	1.408202054	0.032702475	0.337385406	0.103985459
2020-03-08T04:15:00	0.3715	4.289	157.0	1.016630813	1.427132536	0.033368124	0.344252787	0.106102052
2020-03-08T04:20:00	0.3687	4.279	158.0	1.008362797	1.411946490	0.032833821	0.338740476	0.104403104
2020-03-08T04:25:00	0.3712	4.269	158.0	1.015676898	1.425377101	0.033306229	0.343614229	0.105905242
2020-03-08T04:30:00	0.3701	4.257	158.0	1.012503971	1.419544451	0.033100823	0.341495091	0.105252104
2020-03-08T04:35:00	0.3689	4.248	158.0	1.009028760	1.413167243	0.032876676	0.339182604	0.104539373
2020-03-08T04:40:00	0.3661	4.237	158.0	1.000445175	1.397465624	0.032326745	0.333509064	0.102790733
2020-03-08T04:45:00	0.3678	4.227	158.0	1.005672762	1.407019822	0.032661038	0.336957908	0.103853700
2020-03-08T04:50:00	0.3699	4.217	152.0	1.011792976	1.418238788	0.033054894	0.341021252	0.105106062
2020-03-08T04:55:00	0.3708	4.206	156.0	1.014611167	1.423416933	0.033237156	0.342901616	0.105685608
2020-03-08T05:00:00	0.3651	4.196	156.0	0.997326962	1.391779107	0.032128269	0.331461429	0.102159631
2020-03-08T05:05:00	0.3721	4.184	155.0	1.018446965	1.430477122	0.033486146	0.345470398	0.106477332
2020-03-08T05:10:00	0.3714	4.172	153.0	1.016473730	1.426843404	0.033357927	0.344147588	0.106069629
2020-03-08T05:15:00	0.3715	4.160	158.0	1.016595518	1.427067569	0.033365833	0.344229149	0.106094767
2020-03-08T05:20:00	0.3739	4.149	157.0	1.023895280	1.440529709	0.033841626	0.349137817	0.107607666
2020-03-08T05:25:00	0.3741	4.138	157.0	1.024315661	1.441306537	0.033869143	0.349421704	0.107695163
2020-03-08T05:30:00	0.3729	4.128	157.0	1.020850230	1.434907812	0.033642686	0.347085390	0.106975088
2020-03-08T05:35:00	0.3731	4.116	158.0	1.021569919	1.436235723	0.033689645	0.347569854	0.107124404
2020-03-08T05:40:00	0.3752	4.105	157.0	1.027666988	1.447505608	0.034088966	0.351689583	0.108394145
2020-03-08T05:45:00	0.3742	4.094	156.0	1.024801885	1.442205250	0.033900986	0.349750219	0.107796414
2020-03-08T05:50:00	0.3696	4.084	157.0	1.010858464	1.416523405	0.032994582	0.340399020	0.104914284
2020-03-08T05:55:00	0.3728	4.072	156.0	1.020561406	1.434375037	0.033623851	0.346891073	0.106915198
2020-03-08T06:00:00	0.3764	4.063	157.0	1.031435321	1.454489004	0.034337111	0.354249643	0.109183180
2020-03-08T06:05:00	0.3759	4.052	156.0	1.029766593	1.451394857	0.034227099	0.353114668	0.108833370
2020-03-08T06:10:00	0.3738	4.043	156.0	1.023616887	1.440015356	0.033823410	0.348949888	0.107549744
2020-03-08T06:15:00	0.3752	4.034	150.0	1.027621573	1.447421530	0.034085982	0.351658794	0.108384656
2020-03-08T06:20:00	0.3724	4.026	150.0	1.019375211	1.432187788	0.033546560	0.346093671	0.106669431
2020-03-08T06:25:00	0.3767	4.018	157.0	1.032340306	1.456168148	0.034396857	0.354866031	0.109373157
2020-03-08T06:30:00	0.3762	4.011	157.0	1.030671935	1.453073203	0.034286759	0.353730173	0.109023075
2020-03-08T06:35:00	0.3747	4.004	152.0	1.026315865	1.445005081	0.034000245	0.350774258	0.108112033
2020-03-08T06:40:00	0.3760	3.997	157.0	1.030019604	1.451863816	0.034243766	0.353286618	0.108886367
2020-03-08T06:45:00	0.3750	3.992	157.0	1.027156102	1.446559903	0.034055404	0.351343321	0.108287424
2020-03-08T06:50:00	0.3735	3.986	157.0	1.022796391	1.438499862	0.033769756	0.348396349	0.107379138
2020-03-08T06:55:00	0.3794	3.981	158.0	1.040218440	1.470819075	0.034919466	0.360257694	0.111034920
2020-03-08T07:00:00	0.3759	3.975	158.0	1.029908411	1.451657710	0.034236440	0.353211044	0.108863074
2020-03-08T07:05:00	0.3760	3.971	157.0	1.030029811	1.451882735	0.034244438	0.353293556	0.108888505
2020-03-08T07:10:00	0.3754	3.966	152.0	1.028360526	1.448789827	0.034134559	0.352159951	0.108539117
2020-03-08T07:15:00	0.3805	3.962	158.0	1.043380748	1.476716935	0.035130509	0.362434986	0.111705983
2020-03-08T07:20:00	0.3721	3.957	153.0	1.018442390	1.430468692	0.033485849	0.345467328	0.106476386
2020-03-08T07:25:00	0.3767	3.954	158.0	1.032305142	1.456102890	0.034394534	0.354842069	0.109365772
2020-03-08T07:30:00	0.3753	3.951	158.0	1.027950760	1.448031011	0.034107617	0.351881998	0.108453449
2020-03-08T07:35:00	0.3781	3.950	158.0	1.036422807	1.463752844	0.034667115	0.357654235	0.110232509
2020-03-08T07:40:00	0.3729	3.948	158.0	1.020723993	1.434674940	0.033634453	0.347000452	0.106948909
2020-03-08T07:45:00	0.3739	3.949	158.0	1.023835034	1.440418393	0.033837683	0.349097143	0.107595130
2020-03-08T07:50:00	0.3756	3.952	153.0	1.029033532	1.450036471	0.034178835	0.352616737	0.108679903
2020-03-08T07:55:00	0.3771	3.957	158.0	1.033331245	1.458007687	0.034462345	0.355541664	0.109581394
2020-03-08T08:00:00	0.3785	3.964	159.0	1.037624590	1.465988661	0.034746902	0.358477383	0.110486211
2020-03-08T08:05:00	0.3737	3.971	159.0	1.023125956	1.439108506	0.033791301	0.348618626	0.107447646
2020-03-08T08:10:00	0.3745	3.978	159.0	1.025637857	1.443750955	0.033955773	0.350315450	0.107970624
2020-03-08T08:15:00	0.3761	3.988	159.0	1.030535786	1.452820757	0.034277783	0.353637572	0.108994534
2020-03-08T08:20:00	0.3770	4.001	159.0	1.033043275	1.457473014	0.034443307	0.355345247	0.109520856
2020-03-08T08:25:00	0.3757	4.017	158.0	1.029286587	1.450505332	0.034195491	0.352788579	0.108732866
2020-03-08T08:30:00	0.3745	4.036	159.0	1.025526548	1.443545106	0.033948475	0.350240160	0.107947419
2020-03-08T08:35:00	0.3737	4.059	159.0	1.023257775	1.439351979	0.033799921	0.348707555	0.107475055
2020-03-08T08:40:00	0.3739	4.079	159.0	1.023977052	1.440680802	0.033846978	0.349193028	0.107624682
2020-03-08T08:45:00	0.3728	4.097	159.0	1.020511341	1.434282694	0.033620587	0.346857397	0.106904818
2020-03-08T08:50:00	0.3737	4.121	159.0	1.023323683	1.439473719	0.033804231	0.348752023	0.107488761
2020-03-08T08:55:00	0.3745	4.148	159.0	1.025536766	1.443564002	0.033949145	0.350247071	0.107949549
2020-03-08T09:00:00	0.3739	4.176	160.0	1.023865699	1.440475051	0.033839690	0.349117845	0.107601511
2020-03-08T09:05:00	0.3769	4.208	160.0	1.032942361	1.457285666	0.034436637	0.355276431	0.109499646
2020-03-08T09:10:00	0.3704	4.240	160.0	1.013337815	1.421076330	0.033154734	0.342051278	0.105423526
2020-03-08T09:15:00	0.3753	4.271	154.0	1.028113062	1.448331546	0.034118287	0.351992076	0.108487376
2020-03-08T09:20:00	0.3712	4.305	159.0	1.015677983	1.425379097	0.033306300	0.343614955	0.105905466
2020-03-08T09:25:00	0.3712	4.344	160.0	1.015799795	1.425603211	0.033314200	0.343696459	0.105930587
2020-03-08T09:30:00	0.3722	4.389	159.0	1.018914485	1.431338612	0.033516566	0.345784236	0.106574060
2020-03-08T09:35:00	0.3740	4.437	156.0	1.024119065	1.440943222	0.033856273	0.349288924	0.107654239
2020-03-08T09:40:00	0.3659	4.490	161.0	0.999967482	1.396593876	0.032296294	0.333194914	0.102693908
2020-03-08T09:45:00	0.3694	4.545	156.0	1.010295341	1.415490146	0.032958269	0.340024384	0.104798817
2020-03-08T09:50:00	0.3744	4.598	161.0	1.025380015	1.443274135	0.033938869	0.350141058	0.107916875
2020-03-08T09:55:00	0.3724	4.646	161.0	1.019223889	1.431908859	0.033536707	0.345992022	0.106638101
2020-03-08T10:00:00	0.3689	4.691	161.0	1.008862219	1.412861924	0.032865956	0.339072009	0.104505286
2020-03-08T10:05:00	0.3706	4.735	161.0	1.013859206	1.422034532	0.033188469	0.342399315	0.105530794
2020-03-08T10:10:00	0.3711	4.787	163.0	1.015557898	1.425158173	0.033298513	0.343534616	0.105880705
2020-03-08T10:15:00	0.3714	4.840	158.0	1.016357905	1.426630230	0.033350410	0.344070032	0.106045725
2020-03-08T10:20:00	0.3697	4.902	163.0	1.011167343	1.417090289	0.033014510	0.340604612	0.104977649
2020-03-08T10:25:00	0.3700	4.973	165.0	1.012267857	1.419110801	0.033085567	0.341337693	0.105203592
2020-03-08T10:30:00	0.3724	5.041	164.0	1.019355356	1.432151188	0.033545267	0.346080332	0.106665319
2020-03-08T10:35:00	0.3710	5.111	165.0	1.015066973	1.424255150	0.033266689	0.343206293	0.105779513
2020-03-08T10:40:00	0.3709	5.155	165.0	1.014968781	1.424074560	0.033260325	0.343140645	0.105759279
2020-03-08T10:45:00	0.3723	5.208	165.0	1.019061075	1.431608772	0.033526108	0.345882672	0.106604399
2020-03-08T10:50:00	0.3708	5.272	165.0	1.014472903	1.423162708	0.033228201	0.342809226	0.105657133
2020-03-08T10:55:00	0.3728	5.334	165.0	1.020659602	1.434556164	0.033630254	0.346957131	0.106935558
2020-03-08T11:00:00	0.3729	5.386	165.0	1.020860595	1.434926932	0.033643362	0.347092364	0.106977237
2020-03-08T11:05:00	0.3710	5.427	164.0	1.015076741	1.424273115	0.033267322	0.343212824	0.105781526
2020-03-08T11:10:00	0.3755	5.465	163.0	1.028731272	1.449476526	0.034158946	0.352411544	0.108616660
2020-03-08T11:15:00	0.3734	5.492	164.0	1.022360419	1.437694865	0.033741267	0.348102428	0.107288549
2020-03-08T11:20:00	0.3706	5.504	163.0	1.013883633	1.422079431	0.033190050	0.342415626	0.105535821
2020-03-08T11:25:00	0.3707	5.515	162.0	1.014384467	1.423000111	0.033222474	0.342750139	0.105638922
2020-03-08T11:30:00	0.3751	5.532	161.0	1.027444136	1.447093054	0.034074324	0.351538517	0.108347585
2020-03-08T11:35:00	0.3734	5.558	161.0	1.022267273	1.437522901	0.033735182	0.348039650	0.107269200
2020-03-08T11:40:00	0.3728	5.582	161.0	1.020674235	1.434583156	0.033631208	0.346966976	0.106938592
2020-03-08T11:45:00	0.3688	5.603	161.0	1.008596550	1.412374926	0.032848859	0.338895626	0.104450923
2020-03-08T11:50:00	0.3707	5.626	155.0	1.014192934	1.422647988	0.033210072	0.342622190	0.105599486
2020-03-08T11:55:00	0.3733	5.650	164.0	1.022174126	1.437350942	0.033729097	0.347976877	0.107249853
2020-03-08T12:00:00	0.3736	5.672	165.0	1.022972873	1.438825778	0.033781293	0.348515368	0.107415821
2020-03-08T12:05:00	0.3715	5.698	165.0	1.016593280	1.427063450	0.033365688	0.344227650	0.106094305
2020-03-08T12:10:00	0.3711	5.724	163.0	1.015596966	1.425230046	0.033301046	0.343560752	0.105888760
2020-03-08T12:15:00	0.3692	5.744	164.0	1.009805837	1.414592214	0.032926721	0.339698915	0.104698505
2020-03-08T12:20:00	0.3678	5.762	164.0	1.005507652	1.406717657	0.032650450	0.336848670	0.103820032
2020-03-08T12:25:00	0.3675	5.778	163.0	1.004808894	1.405439165	0.032605661	0.336386592	0.103677615
2020-03-08T12:30:00	0.3707	5.790	163.0	1.014305799	1.422855480	0.033217380	0.342697583	0.105622723
2020-03-08T12:35:00	0.3722	5.801	163.0	1.018697947	1.430939574	0.033502475	0.345638857	0.106529253
2020-03-08T12:40:00	0.3623	5.810	163.0	0.989174476	1.376955853	0.031612627	0.326141649	0.100520024
2020-03-08T12:45:00	0.3695	5.818	158.0	1.010715017	1.416260168	0.032985330	0.340303565	0.104884864
2020-03-08T12:50:00	0.3695	5.829	159.0	1.010616723	1.416079803	0.032978990	0.340238165	0.104864707
2020-03-08T12:55:00	0.3709	5.841	163.0	1.015012739	1.424155404	0.033263174	0.343170033	0.105768337
2020-03-08T13:00:00	0.3645	5.857	163.0	0.995704553	1.388824092	0.032025276	0.330398867	0.101832140
2020-03-08T13:05:00	0.3659	5.873	164.0	0.999815762	1.396317047	0.032286626	0.333095172	0.102663167
2020-03-08T13:10:00	0.3694	5.890	163.0	1.010523316	1.415908414	0.032972967	0.340176024	0.104845554
2020-03-08T13:15:00	0.3671	5.907	164.0	1.003524185	1.403089801	0.032523405	0.335537972	0.103416062
2020-03-08T13:20:00	0.3646	5.927	164.0	0.995911657	1.389201165	0.032038413	0.330534397	0.101873911
2020-03-08T13:25:00	0.3675	5.949	164.0	1.004828479	1.405474991	0.032606916	0.336399538	0.103681605
2020-03-08T13:30:00	0.3670	5.971	164.0	1.003228788	1.402549828	0.032504508	0.335343018	0.103355975
2020-03-08T13:35:00	0.3684	5.990	164.0	1.007332579	1.410058874	0.032767588	0.338057165	0.104192501
2020-03-08T13:40:00	0.3661	6.007	165.0	1.000328088	1.397251931	0.032319279	0.333432048	0.102766995
2020-03-08T13:45:00	0.3693	6.026	165.0	1.010134998	1.415195992	0.032947933	0.339917753	0.104765953
2020-03-08T13:50:00	0.3639	6.047	165.0	0.993815101	1.385385869	0.031905566	0.329163845	0.101451494
2020-03-08T13:55:00	0.3658	6.065	164.0	0.999431348	1.395615740	0.032262138	0.332842531	0.102585301
2020-03-08T14:00:00	0.3664	6.084	165.0	1.001436364	1.399275156	0.032389979	0.334161445	0.102991803
2020-03-08T14:05:00	0.3624	6.099	164.0	0.989302764	1.377188621	0.031620705	0.326224985	0.100545709
2020-03-08T14:10:00	0.3673	6.114	165.0	1.003942501	1.403854607	0.032550175	0.335814159	0.103501185
2020-03-08T14:15:00	0.3660	6.132	165.0	1.000239352	1.397089989	0.032313622	0.333373686	0.102749008
2020-03-08T14:20:00	0.3669	6.149	165.0	1.002844689	1.401847839	0.032479946	0.335089619	0.103277875
2020-03-08T14:25:00	0.3651	6.169	166.0	0.997336568	1.391796609	0.032128879	0.331467725	0.102161572
2020-03-08T14:30:00	0.3695	6.187	165.0	1.010749241	1.416322970	0.032987537	0.340326338	0.104891882
2020-03-08T14:35:00	0.3627	6.205	166.0	0.990216434	1.378846848	0.031678268	0.326818849	0.100728743
2020-03-08T14:40:00	0.3643	6.220	166.0	0.994934930	1.387423200	0.031976484	0.329895494	0.101676995
2020-03-08T14:45:00	0.3644	6.236	166.0	0.995438043	1.388338919	0.032008375	0.330224507	0.101778400
2020-03-08T14:50:00	0.3659	6.251	166.0	0.999850075	1.396379654	0.032288813	0.333117729	0.102670119
2020-03-08T14:55:00	0.3590	6.263	166.0	0.978961117	1.358475049	0.030973285	0.319545672	0.098487080
2020-03-08T15:00:00	0.3637	6.275	166.0	0.993336339	1.384515211	0.031875274	0.328851322	0.101355171
2020-03-08T15:05:00	0.3656	6.286	167.0	0.998953232	1.394743686	0.032231695	0.332528459	0.102488501
2020-03-08T15:10:00	0.3665	6.294	169.0	1.001559374	1.399499791	0.032397832	0.334242458	0.103016772
2020-03-08T15:15:00	0.3648	6.301	167.0	0.996651155	1.390547902	0.032085345	0.331018588	0.102023144
2020-03-08T15:20:00	0.3652	6.308	167.0	0.997755506	1.392560067	0.032155505	0.331742417	0.102246235
2020-03-08T15:25:00	0.3680	6.311	167.0	1.006068225	1.407743657	0.032686406	0.337219629	0.103934365
2020-03-08T15:30:00	0.3649	6.315	166.0	0.996956830	1.391104735	0.032104756	0.331218849	0.102084866
2020-03-08T15:35:00	0.3654	6.317	168.0	0.998361768	1.393665193	0.032194058	0.332140162	0.102368824
2020-03-08T15:40:00	0.3663	6.318	168.0	1.000968280	1.398420496	0.032360108	0.333853271	0.102896821
2020-03-08T15:45:00	0.3662	6.318	167.0	1.000869756	1.398240631	0.032353823	0.333788426	0.102876835
2020-03-08T15:50:00	0.3623	6.317	167.0	0.989035842	1.376704333	0.031603900	0.326051607	0.100492272
2020-03-08T15:55:00	0.3639	6.313	168.0	0.993755681	1.385277797	0.031901806	0.329125048	0.101439536
2020-03-08T16:00:00	0.3648	6.306	168.0	0.996665872	1.390574709	0.032086279	0.331028229	0.102026115
2020-03-08T16:05:00	0.3605	6.297	169.0	0.983530469	1.366730865	0.031258408	0.322487233	0.099393697
2020-03-08T16:10:00	0.3652	6.285	168.0	0.997807410	1.392654667	0.032158805	0.331776459	0.102256727
2020-03-08T16:15:00	0.3637	6.273	169.0	0.993113252	1.384109589	0.031861164	0.328705755	0.101310306
2020-03-08T16:20:00	0.3637	6.265	168.0	0.993233031	1.384327368	0.031868739	0.328783908	0.101334394
2020-03-08T16:25:00	0.3621	6.259	168.0	0.988533692	1.375793443	0.031572298	0.325725579	0.100391787
2020-03-08T16:30:00	0.3619	6.252	169.0	0.987749421	1.374371276	0.031522978	0.325216749	0.100234961
2020-03-08T16:35:00	0.3653	6.246	168.0	0.998104929	1.393196972	0.032177722	0.331971627	0.102316880
2020-03-08T16:40:00	0.3650	6.238	169.0	0.997021723	1.391222959	0.032108878	0.331261371	0.102097972
2020-03-08T16:45:00	0.3652	6.227	168.0	0.997742836	1.392536976	0.032154700	0.331734108	0.102243674
2020-03-08T16:50:00	0.3642	6.215	168.0	0.994854463	1.387276765	0.031971385	0.329842889	0.101660782
2020-03-08T16:55:00	0.3625	6.200	168.0	0.989554414	1.377645264	0.031636554	0.326388491	0.100596103
2020-03-08T17:00:00	0.3645	6.184	156.0	0.995695660	1.388807901	0.032024712	0.330393048	0.101830346
2020-03-08T17:05:00	0.3642	6.167	162.0	0.994912743	1.387382823	0.031975078	0.329880989	0.101672524
2020-03-08T17:10:00	0.3648	6.151	168.0	0.996536687	1.390339404	0.032078078	0.330943614	0.102000036
2020-03-08T17:15:00	0.3705	6.136	168.0	1.013765668	1.421862610	0.033182415	0.342336862	0.105511546
2020-03-08T17:20:00	0.3657	6.119	168.0	0.999181521	1.395160044	0.032246229	0.332678400	0.102534714
2020-03-08T17:25:00	0.3694	6.102	168.0	1.010408108	1.415697034	0.032965539	0.340099387	0.104821934
2020-03-08T17:30:00	0.3700	6.084	168.0	1.012325691	1.419217013	0.033089303	0.341376242	0.105215473
2020-03-08T17:35:00	0.3682	6.068	168.0	1.006747808	1.408987882	0.032730027	0.337669653	0.104073067
2020-03-08T17:40:00	0.3722	6.051	168.0	1.018851761	1.431223020	0.033512484	0.345742121	0.106561079
2020-03-08T17:45:00	0.3698	6.033	167.0	1.011484686	1.417672801	0.033034991	0.340815910	0.105042773
2020-03-08T17:50:00	0.3687	6.014	166.0	1.008305894	1.411842203	0.032830160	0.338702713	0.104391466
2020-03-08T17:55:00	0.3682	5.994	166.0	1.006925307	1.409312933	0.032741425	0.337787251	0.104109311
2020-03-08T18:00:00	0.3687	5.976	166.0	1.008244641	1.411729948	0.032826221	0.338662067	0.104378938
2020-03-08T18:05:00	0.3685	5.957	165.0	1.007764070	1.410849349	0.032795319	0.338343264	0.104280680
2020-03-08T18:10:00	0.3698	5.937	165.0	1.011481529	1.417667006	0.033034787	0.340813808	0.105042125
2020-03-08T18:15:00	0.3697	5.919	166.0	1.011301066	1.417335737	0.033023139	0.340693640	0.105005089
2020-03-08T18:20:00	0.3683	5.899	165.0	1.007222176	1.409856649	0.032760495	0.337983985	0.104169947
2020-03-08T18:25:00	0.3726	5.881	166.0	1.019923022	1.433197738	0.033582242	0.346461799	0.106782891
2020-03-08T18:30:00	0.3676	5.865	165.0	1.005060220	1.405898952	0.032621766	0.336552749	0.103728826
2020-03-08T18:35:00	0.3661	5.850	165.0	1.000374242	1.397336165	0.032322222	0.333462406	0.102776352
2020-03-08T18:40:00	0.3702	5.836	167.0	1.012796270	1.420081365	0.033119716	0.341690001	0.105312177
2020-03-08T18:45:00	0.3695	5.823	167.0	1.010817688	1.416448576	0.032991952	0.340371885	0.104905921
2020-03-08T18:50:00	0.3691	5.811	167.0	1.009437932	1.413917493	0.032903022	0.339454414	0.104623147
2020-03-08T18:55:00	0.3716	5.798	167.0	1.017046803	1.427898333	0.033395136	0.344531465	0.106187944
2020-03-08T19:00:00	0.3684	5.787	167.0	1.007277123	1.409957294	0.032764025	0.338020405	0.104181172
2020-03-08T19:05:00	0.3704	5.774	167.0	1.013392309	1.421176465	0.033158259	0.342087644	0.105434734
2020-03-08T19:10:00	0.3702	5.761	167.0	1.012912329	1.420294573	0.033127219	0.341767408	0.105336034
2020-03-08T19:15:00	0.3686	5.748	167.0	1.007935207	1.411162915	0.032806322	0.338456774	0.104315665
2020-03-08T19:20:00	0.3695	5.736	166.0	1.010753315	1.416330447	0.032987800	0.340329049	0.104892718
2020-03-08T19:25:00	0.3687	5.724	167.0	1.008173910	1.411600326	0.032821671	0.338615134	0.104364473
2020-03-08T19:30:00	0.3701	5.711	167.0	1.012490328	1.419519392	0.033099942	0.341485995	0.105249300
2020-03-08T19:35:00	0.3718	5.699	167.0	1.017700200	1.429101511	0.033437589	0.344969445	0.106322933
2020-03-08T19:40:00	0.3713	5.686	167.0	1.016023333	1.426014523	0.033328700	0.343846057	0.105976694
2020-03-08T19:45:00	0.3708	5.674	167.0	1.014645291	1.423479680	0.033239367	0.342924421	0.105692637
2020-03-08T19:50:00	0.3742	5.662	167.0	1.024635598	1.441897867	0.033890094	0.349637848	0.107761780
2020-03-08T19:55:00	0.3680	5.649	167.0	1.006189977	1.407966536	0.032694219	0.337300229	0.103959206
2020-03-08T20:00:00	0.3720	5.638	167.0	1.018295542	1.430198142	0.033476297	0.345368785	0.106446014
2020-03-08T20:05:00	0.3731	5.627	167.0	1.021405706	1.435932686	0.033678927	0.347459278	0.107090324
2020-03-08T20:10:00	0.3720	5.614	167.0	1.018234435	1.430085567	0.033472323	0.345327785	0.106433377
2020-03-08T20:15:00	0.3723	5.600	167.0	1.018951896	1.431407556	0.033519001	0.345809356	0.106581802
2020-03-08T20:20:00	0.3719	5.587	167.0	1.017874083	1.429421772	0.033448892	0.345086054	0.106358873
2020-03-08T20:25:00	0.3694	5.574	167.0	1.010505286	1.415875333	0.032971805	0.340164030	0.104841858
2020-03-08T20:30:00	0.3724	5.561	167.0	1.019309004	1.432065747	0.033542249	0.346049195	0.106655723
2020-03-08T20:35:00	0.3705	5.548	167.0	1.013740425	1.421816217	0.033180782	0.342320010	0.105506352
2020-03-08T20:40:00	0.3702	5.536	167.0	1.012661272	1.419833381	0.033110989	0.341599974	0.105284429
2020-03-08T20:45:00	0.3703	5.524	167.0	1.013080099	1.420602800	0.033138066	0.341879322	0.105370527
2020-03-08T20:50:00	0.3693	5.511	167.0	1.010202335	1.415319520	0.032952273	0.339962531	0.104779754
2020-03-08T20:55:00	0.3724	5.497	167.0	1.019305853	1.432059939	0.033542043	0.346047078	0.106655070
2020-03-08T21:00:00	0.3694	5.481	167.0	1.010440908	1.415757214	0.032967654	0.340121205	0.104828659
2020-03-08T21:05:00	0.3719	5.466	167.0	1.017748705	1.429190845	0.033440742	0.345001971	0.106332958
2020-03-08T21:10:00	0.3707	5.449	167.0	1.014275166	1.422799163	0.033215396	0.342677120	0.105616416
2020-03-08T21:15:00	0.3712	5.433	168.0	1.015891592	1.425772113	0.033320154	0.343757888	0.105949520
2020-03-08T21:20:00	0.3694	5.416	168.0	1.010318465	1.415532570	0.032959760	0.340039764	0.104803558
2020-03-08T21:25:00	0.3727	5.401	168.0	1.020319072	1.433928082	0.033608053	0.346728083	0.106864963
2020-03-08T21:30:00	0.3717	5.384	168.0	1.017146980	1.428082775	0.033401643	0.344598595	0.106208634
2020-03-08T21:35:00	0.3709	5.368	168.0	1.014870994	1.423894725	0.033253989	0.343075275	0.105739132
2020-03-08T21:40:00	0.3701	5.351	168.0	1.012593771	1.419709392	0.033106627	0.341554964	0.105270557
2020-03-08T21:45:00	0.3724	5.335	168.0	1.019299551	1.432048322	0.033541633	0.346042845	0.106653765
2020-03-08T21:50:00	0.3713	5.320	169.0	1.016126688	1.426204714	0.033335406	0.343915238	0.105998016
2020-03-08T21:55:00	0.3732	5.306	169.0	1.021631045	1.436348530	0.033693635	0.347611018	0.107137092
2020-03-08T22:00:00	0.3677	5.291	169.0	1.005273794	1.406289723	0.032635456	0.336693983	0.103772356
2020-03-08T22:05:00	0.3730	5.276	169.0	1.021231325	1.435610915	0.033667547	0.347341879	0.107054140
2020-03-08T22:10:00	0.3715	5.262	169.0	1.016823082	1.427486464	0.033380608	0.344381575	0.106141746
2020-03-08T22:15:00	0.3699	5.249	168.0	1.011810864	1.418271632	0.033056049	0.341033169	0.105109735
2020-03-08T22:20:00	0.3705	5.236	168.0	1.013688074	1.421720000	0.033177394	0.342285060	0.105495580
2020-03-08T22:25:00	0.3679	5.226	167.0	1.005971997	1.407567513	0.032680232	0.337155934	0.103914733
2020-03-08T22:30:00	0.3714	5.215	168.0	1.016242654	1.426418124	0.033342931	0.343992869	0.106021943
2020-03-08T22:35:00	0.3668	5.204	168.0	1.002528492	1.401270054	0.032459735	0.334881099	0.103213607
2020-03-08T22:40:00	0.3690	5.192	168.0	1.009210645	1.413500725	0.032888386	0.339303414	0.104576608
2020-03-08T22:45:00	0.3666	5.180	168.0	1.002087102	1.400463667	0.032431532	0.334590141	0.103123931
2020-03-08T22:50:00	0.3692	5.168	168.0	1.009669587	1.414342323	0.032917944	0.339608355	0.104670593
2020-03-08T22:55:00	0.3690	5.157	168.0	1.009149406	1.413388442	0.032884443	0.339262736	0.104564070
2020-03-08T23:00:00	0.3663	5.144	168.0	1.001124484	1.398705680	0.032370075	0.333956094	0.102928511
2020-03-08T23:05:00	0.3706	5.132	168.0	1.014103644	1.422483846	0.033204291	0.342562551	0.105581105
2020-03-08T23:10:00	0.3695	5.122	168.0	1.010587319	1.416025850	0.032977094	0.340218603	0.104858678
2020-03-08T23:15:00	0.3682	5.111	168.0	1.006767995	1.409024849	0.032731323	0.337683026	0.104077188
2020-03-08T23:20:00	0.3665	5.102	168.0	1.001743695	1.399836416	0.032409600	0.334363871	0.103054192
2020-03-08T23:25:00	0.3688	5.094	168.0	1.008727026	1.412614093	0.032857255	0.338982245	0.104477620
2020-03-08T23:30:00	0.3686	5.087	168.0	1.007906769	1.411110808	0.032804493	0.338437911	0.104309851
2020-03-08T23:35:00	0.3662	5.079	168.0	1.000780997	1.398078602	0.032348161	0.333730015	0.102858832
2020-03-08T23:40:00	0.3672	5.072	168.0	1.003864385	1.403711774	0.032545175	0.335762574	0.103485286
2020-03-08T23:45:00	0.3657	5.064	168.0	0.999137192	1.395079192	0.032243407	0.332649282	0.102525739
2020-03-08T23:50:00	0.3674	5.058	168.0	1.004323914	1.404552090	0.032574595	0.336066094	0.103578834
2020-03-08T23:55:00	0.3688	5.049	168.0	1.008604533	1.412389558	0.032849373	0.338900925	0.104452556
2020-03-09T00:00:00	0.3649	5.041	168.0	0.996971035	1.391130614	0.032105658	0.331228156	0.102087735
2020-03-09T00:05:00	0.3581	5.034	168.0	0.976246805	1.353580304	0.030804613	0.317805510	0.097950745
2020-03-09T00:10:00	0.3643	5.026	168.0	0.995024835	1.387586820	0.031982182	0.329954274	0.101695112
2020-03-09T00:15:00	0.3653	5.019	168.0	0.998112490	1.393210753	0.032178203	0.331976588	0.102318408
2020-03-09T00:20:00	0.3678	5.013	168.0	1.005702200	1.407073699	0.032662926	0.336977386	0.103859703
2020-03-09T00:25:00	0.3645	5.008	168.0	0.995565150	1.388570304	0.032016435	0.330307658	0.101804028
2020-03-09T00:30:00	0.3655	5.003	168.0	0.998652403	1.394195103	0.032212549	0.332330932	0.102427621
2020-03-09T00:35:00	0.3614	5.000	168.0	0.986387979	1.371903883	0.031437464	0.324334523	0.099963050
2020-03-09T00:40:00	0.3615	4.996	168.0	0.986769471	1.372595097	0.031461413	0.324581596	0.100039200
2020-03-09T00:45:00	0.3623	4.992	168.0	0.988959356	1.376565573	0.031599085	0.326001936	0.100476963
2020-03-09T00:50:00	0.3620	4.988	168.0	0.988135192	1.375070744	0.031547232	0.325466978	0.100312084
2020-03-09T00:55:00	0.3628	4.983	168.0	0.990625583	1.379589676	0.031704064	0.327084985	0.100810769
2020-03-09T01:00:00	0.3599	4.979	168.0	0.981659250	1.363347575	0.031141467	0.321280779	0.099021856
2020-03-09T01:05:00	0.3653	4.974	168.0	0.998008041	1.393020358	0.032171561	0.331908063	0.102297288
2020-03-09T01:10:00	0.3613	4.970	168.0	0.986043271	1.371279436	0.031415834	0.324111364	0.099894270
2020-03-09T01:15:00	0.3602	4.966	168.0	0.982804930	1.365418645	0.031213037	0.322019144	0.099249428
2020-03-09T01:20:00	0.3592	4.963	168.0	0.979564048	1.359563272	0.031010823	0.319932943	0.098606440
2020-03-09T01:25:00	0.3628	4.959	168.0	0.990502556	1.379366299	0.031696306	0.327004947	0.100786101
2020-03-09T01:30:00	0.3603	4.956	168.0	0.983045081	1.365852931	0.031228050	0.322174038	0.099297167
2020-03-09T01:35:00	0.3598	4.953	168.0	0.981616032	1.363269474	0.031138770	0.321252945	0.099013278
2020-03-09T01:40:00	0.3577	4.952	168.0	0.975049646	1.351423683	0.030730384	0.317039706	0.097714716
2020-03-09T01:45:00	0.3561	4.950	168.0	0.970289406	1.342861851	0.030436229	0.314004960	0.096779378
2020-03-09T01:50:00	0.3557	4.949	168.0	0.969158723	1.340831357	0.030366593	0.313286545	0.096557956
2020-03-09T01:55:00	0.3531	4.947	168.0	0.961359112	1.326857776	0.029888683	0.308356034	0.095038324
2020-03-09T02:00:00	0.3566	4.946	168.0	0.971740862	1.345470177	0.030525751	0.314928548	0.097064037
2020-03-09T02:05:00	0.3580	4.945	167.0	0.976055252	1.353235138	0.030792729	0.317682906	0.097912957
2020-03-09T02:10:00	0.3581	4.943	167.0	0.976437700	1.353924316	0.030816458	0.317927718	0.097988410
2020-03-09T02:15:00	0.3540	4.943	167.0	0.964107002	1.331774240	0.030056569	0.310088086	0.095572160
2020-03-09T02:20:00	0.3600	4.942	167.0	0.982034819	1.364026362	0.031164919	0.321522720	0.099096425
2020-03-09T02:25:00	0.3578	4.941	167.0	0.975469100	1.352179154	0.030756380	0.317307906	0.097797378
2020-03-09T02:30:00	0.3564	4.939	167.0	0.971314651	1.344704051	0.030499448	0.314657184	0.096980400
2020-03-09T02:35:00	0.3597	4.939	167.0	0.981067534	1.362278408	0.031104540	0.320899806	0.098904437
2020-03-09T02:40:00	0.3565	4.939	167.0	0.971475201	1.344992624	0.030509355	0.314759389	0.097011901
2020-03-09T02:45:00	0.3573	4.939	167.0	0.973975662	1.349490119	0.030663879	0.316353583	0.097503247
2020-03-09T02:50:00	0.3588	4.939	167.0	0.978589818	1.357805068	0.030950181	0.319307314	0.098413615
2020-03-09T02:55:00	0.3558	4.939	167.0	0.969294494	1.341075112	0.030374950	0.313372762	0.096584529
2020-03-09T03:00:00	0.3544	4.939	167.0	0.965133793	1.333613189	0.030119439	0.310736695	0.095772067
2020-03-09T03:05:00	0.3580	4.938	167.0	0.976110613	1.353334892	0.030796163	0.317718337	0.097923877
2020-03-09T03:10:00	0.3568	4.938	167.0	0.972561934	1.346946563	0.030576459	0.315451689	0.097225274
2020-03-09T03:15:00	0.3534	4.937	167.0	0.962039867	1.328075102	0.029930226	0.308784619	0.095170419
2020-03-09T03:20:00	0.3550	4.936	167.0	0.966970403	1.336904993	0.030232076	0.311898758	0.096130226
2020-03-09T03:25:00	0.3609	4.935	167.0	0.984885779	1.369183444	0.031343262	0.323362655	0.099663511
2020-03-09T03:30:00	0.3556	4.934	168.0	0.968948353	1.340453706	0.030353647	0.313152982	0.096516790
2020-03-09T03:35:00	0.3569	4.934	167.0	0.972660654	1.347124117	0.030582559	0.315514621	0.097244670
2020-03-09T03:40:00	0.3557	4.934	168.0	0.969108995	1.340742083	0.030363533	0.313254970	0.096548224
2020-03-09T03:45:00	0.3561	4.934	168.0	0.970400283	1.343061032	0.030443062	0.314075459	0.096801107
2020-03-09T03:50:00	0.3611	4.934	168.0	0.985285823	1.369907700	0.031368333	0.323621307	0.099743230
2020-03-09T03:55:00	0.3573	4.934	168.0	0.973889065	1.349334260	0.030658520	0.316298296	0.097486207
2020-03-09T04:00:00	0.3594	4.935	168.0	0.980315534	1.360920107	0.031057646	0.320416004	0.098755324
2020-03-09T04:05:00	0.3580	4.936	168.0	0.976048404	1.353222800	0.030792304	0.317678524	0.097911606
2020-03-09T04:10:00	0.3562	4.937	168.0	0.970566285	1.343359261	0.030453295	0.314181026	0.096833643
2020-03-09T04:15:00	0.3557	4.937	168.0	0.969015128	1.340573574	0.030357756	0.313195373	0.096529856
2020-03-09T04:20:00	0.3570	4.936	168.0	0.972912225	1.347576623	0.030598106	0.315675023	0.097294108
2020-03-09T04:25:00	0.3582	4.936	168.0	0.976805633	1.354587468	0.030839297	0.318163339	0.098061031
2020-03-09T04:30:00	0.3473	4.933	168.0	0.943692182	1.295419155	0.028821895	0.297350175	0.091646212
2020-03-09T04:35:00	0.3565	4.933	168.0	0.971589714	1.345198464	0.030516422	0.314832299	0.097034372
2020-03-09T04:40:00	0.3529	4.930	167.0	0.960643740	1.325579023	0.029845063	0.307906015	0.094899624
2020-03-09T04:45:00	0.3519	4.928	167.0	0.957570869	1.320091669	0.029658102	0.305977167	0.094305135
2020-03-09T04:50:00	0.3556	4.926	167.0	0.968752961	1.340102980	0.030341625	0.313028956	0.096478564
2020-03-09T04:55:00	0.3562	4.925	167.0	0.970532036	1.343297729	0.030451183	0.314159244	0.096826930
2020-03-09T05:00:00	0.3559	4.923	168.0	0.969586426	1.341599289	0.030392924	0.313558190	0.096641680
2020-03-09T05:05:00	0.3526	4.921	167.0	0.959849185	1.324159297	0.029796657	0.307406618	0.094745705
2020-03-09T05:10:00	0.3546	4.920	168.0	0.965876766	1.334944454	0.030164976	0.311206496	0.095916864
2020-03-09T05:15:00	0.3519	4.919	168.0	0.957649179	1.320231399	0.029662858	0.306026238	0.094320259
2020-03-09T05:20:00	0.3541	4.919	168.0	0.964286341	1.332095357	0.030067545	0.310201317	0.095607058
2020-03-09T05:25:00	0.3517	4.919	168.0	0.956966729	1.319013883	0.029621422	0.305598748	0.094188502
2020-03-09T05:30:00	0.3498	4.920	168.0	0.951154884	1.308663185	0.029269863	0.301971780	0.093070635
2020-03-09T05:35:00	0.3500	4.921	168.0	0.951725479	1.309677981	0.029304274	0.302326792	0.093180053
2020-03-09T05:40:00	0.3497	4.922	168.0	0.950775511	1.307988645	0.029246997	0.301735872	0.092997926
2020-03-09T05:45:00	0.3558	4.923	168.0	0.969552169	1.341537774	0.030390814	0.313536428	0.096634972
2020-03-09T05:50:00	0.3535	4.924	168.0	0.962545259	1.328979125	0.029961088	0.309103017	0.095268552
2020-03-09T05:55:00	0.3498	4.927	168.0	0.951270932	1.308869549	0.029276860	0.302043963	0.093092883
2020-03-09T06:00:00	0.3550	4.931	162.0	0.967016966	1.336988490	0.030234935	0.311928251	0.096139316
2020-03-09T06:05:00	0.3479	4.935	168.0	0.945413283	1.298468925	0.028924865	0.298412497	0.091973630
2020-03-09T06:10:00	0.3493	4.940	168.0	0.949637181	1.305965464	0.029178445	0.301028636	0.092779949
2020-03-09T06:15:00	0.3511	4.945	163.0	0.955072213	1.315636306	0.029506563	0.304413776	0.093823282
2020-03-09T06:20:00	0.3465	4.951	168.0	0.941034159	1.290714655	0.028663275	0.295713723	0.091141841
2020-03-09T06:25:00	0.3522	4.956	168.0	0.958641489	1.322002506	0.029723166	0.306648424	0.094512023
2020-03-09T06:30:00	0.3513	4.961	168.0	0.955870897	1.317059799	0.029554954	0.304913017	0.093977153
2020-03-09T06:35:00	0.3511	4.969	168.0	0.955225727	1.315909867	0.029515861	0.304509698	0.093852846
2020-03-09T06:40:00	0.3528	4.979	169.0	0.960349898	1.325053911	0.029827157	0.307721275	0.094842686
2020-03-09T06:45:00	0.3501	4.990	168.0	0.952111169	1.310364101	0.029327547	0.302566893	0.093254055
2020-03-09T06:50:00	0.3522	5.000	169.0	0.958453754	1.321667358	0.029711751	0.306530658	0.094475726
2020-03-09T06:55:00	0.3516	5.011	168.0	0.956594294	1.318349632	0.029598823	0.305365596	0.094116642
2020-03-09T07:00:00	0.3500	5.023	168.0	0.951694275	1.309622477	0.029302391	0.302307371	0.093174068
2020-03-09T07:05:00	0.3435	5.035	169.0	0.932148320	1.275035666	0.028136559	0.290279696	0.089467021
2020-03-09T07:10:00	0.3493	5.047	169.0	0.949794104	1.306244294	0.029187890	0.301126076	0.092809981
2020-03-09T07:15:00	0.3481	5.059	168.0	0.946104086	1.299693804	0.028966252	0.298839480	0.092105230
2020-03-09T07:20:00	0.3533	5.069	168.0	0.961870016	1.327771332	0.029919857	0.308677654	0.095137451
2020-03-09T07:25:00	0.3508	5.083	168.0	0.954242189	1.314157594	0.029456321	0.303895431	0.093663523
2020-03-09T07:30:00	0.3515	5.096	168.0	0.956331330	1.317880705	0.029582872	0.305201034	0.094065923
2020-03-09T07:35:00	0.3483	5.108	168.0	0.946562418	1.300506732	0.028993730	0.299122964	0.092192602
2020-03-09T07:40:00	0.3468	5.122	169.0	0.941955126	1.292343943	0.028718179	0.296280157	0.091316422
2020-03-09T07:45:00	0.3506	5.140	169.0	0.953483983	1.312807395	0.029410467	0.303422369	0.093517721
2020-03-09T07:50:00	0.3497	5.154	169.0	0.951014032	1.308412728	0.029261372	0.301884180	0.093043636
2020-03-09T07:55:00	0.3491	5.173	169.0	0.949151177	1.305102051	0.029149205	0.300726970	0.092686973
2020-03-09T08:00:00	0.3496	5.190	169.0	0.950634646	1.307738215	0.029238509	0.301648302	0.092970936
2020-03-09T08:05:00	0.3511	5.206	169.0	0.955156972	1.315787342	0.029511697	0.304466735	0.093839605
2020-03-09T08:10:00	0.3461	5.218	169.0	0.939899521	1.288708458	0.028595714	0.295016706	0.090927014
2020-03-09T08:15:00	0.3461	5.229	169.0	0.939861801	1.288641786	0.028593469	0.294993551	0.090919877
2020-03-09T08:20:00	0.3460	5.243	169.0	0.939519096	1.288036086	0.028573081	0.294783214	0.090855050
2020-03-09T08:25:00	0.3455	5.263	169.0	0.937956087	1.285275016	0.028480201	0.293824980	0.090559712
2020-03-09T08:30:00	0.3449	5.285	169.0	0.936392476	1.282515180	0.028387453	0.292868122	0.090264800
2020-03-09T08:35:00	0.3481	5.305	169.0	0.946110501	1.299705181	0.028966636	0.298843447	0.092106453
2020-03-09T08:40:00	0.3456	5.323	170.0	0.938453073	1.286152697	0.028509715	0.294129478	0.090653562
2020-03-09T08:45:00	0.3455	5.343	169.0	0.938110249	1.285547241	0.028489354	0.293919414	0.090588818
2020-03-09T08:50:00	0.3465	5.354	169.0	0.941122422	1.290870767	0.028668534	0.295767982	0.091158564
2020-03-09T08:55:00	0.3440	5.367	169.0	0.933455559	1.277337621	0.028213704	0.291075585	0.089712322
2020-03-09T09:00:00	0.3419	5.381	170.0	0.926998088	1.265982085	0.027833774	0.287155913	0.088504241
2020-03-09T09:05:00	0.3482	5.393	170.0	0.946189031	1.299844454	0.028971343	0.298892009	0.092121420
2020-03-09T09:10:00	0.3473	5.407	170.0	0.943714648	1.295458945	0.028823237	0.297364028	0.091650481
2020-03-09T09:15:00	0.3462	5.420	170.0	0.940324050	1.289458943	0.028620981	0.295277390	0.091007359
2020-03-09T09:20:00	0.3484	5.433	170.0	0.946989458	1.301264337	0.029019345	0.299387228	0.092274051
2020-03-09T09:25:00	0.3444	5.446	170.0	0.934755942	1.279629096	0.028290562	0.291868510	0.089956710
2020-03-09T09:30:00	0.3470	5.459	170.0	0.942649727	1.293573295	0.028759627	0.296707768	0.091448216
2020-03-09T09:35:00	0.3419	5.471	170.0	0.927039150	1.266054170	0.027836181	0.287180744	0.088511895
2020-03-09T09:40:00	0.3466	5.484	170.0	0.941355086	1.291282319	0.028682400	0.295911038	0.091202656
2020-03-09T09:45:00	0.3454	5.499	170.0	0.937657390	1.284747625	0.028462470	0.293642056	0.090503333
2020-03-09T09:50:00	0.3451	5.517	170.0	0.937009324	1.283603666	0.028424022	0.293245396	0.090381079
2020-03-09T09:55:00	0.3476	5.535	171.0	0.944594123	1.297017034	0.028875830	0.297906618	0.091817713
2020-03-09T10:00:00	0.3468	5.555	171.0	0.942118767	1.292633525	0.028727941	0.296380867	0.091347462
2020-03-09T10:05:00	0.3442	5.574	171.0	0.934064656	1.278410747	0.028249690	0.291446840	0.089826747
2020-03-09T10:10:00	0.3446	5.592	171.0	0.935469932	1.280887933	0.028332811	0.292304388	0.090091051
2020-03-09T10:15:00	0.3446	5.611	171.0	0.935348453	1.280673719	0.028325620	0.292230201	0.090068186
2020-03-09T10:20:00	0.3448	5.632	171.0	0.935837564	1.281536292	0.028354579	0.292528962	0.090160267
2020-03-09T10:25:00	0.3457	5.656	172.0	0.938767779	1.286708589	0.028528414	0.294322386	0.090713018
2020-03-09T10:30:00	0.3456	5.682	171.0	0.938341324	1.285955327	0.028503077	0.294060995	0.090632455
2020-03-09T10:35:00	0.3435	5.709	171.0	0.932113435	1.274974258	0.028134502	0.290258474	0.089460481
2020-03-09T10:40:00	0.3393	5.743	171.0	0.919137683	1.252212229	0.027375179	0.282424673	0.087046027
2020-03-09T10:45:00	0.3456	5.778	171.0	0.938282235	1.285850968	0.028499568	0.294024787	0.090621295
2020-03-09T10:50:00	0.3461	5.803	171.0	0.939991021	1.288870198	0.028601159	0.295072881	0.090944328
2020-03-09T10:55:00	0.3473	5.818	171.0	0.943527673	1.295127792	0.028812063	0.297248745	0.091614950
2020-03-09T11:00:00	0.3453	5.834	171.0	0.937612910	1.284669097	0.028459830	0.293614822	0.090494940
2020-03-09T11:05:00	0.3471	5.856	172.0	0.942980467	1.294158821	0.028779374	0.296911501	0.091511008
2020-03-09T11:10:00	0.3460	5.884	172.0	0.939505623	1.288012277	0.028572280	0.294774947	0.090852502
2020-03-09T11:15:00	0.3472	5.901	172.0	0.943347419	1.294808574	0.028801293	0.297137630	0.091580703
2020-03-09T11:20:00	0.3443	5.913	172.0	0.934379703	1.278965942	0.028268313	0.291638970	0.089885963
2020-03-09T11:25:00	0.3482	5.925	172.0	0.946455547	1.300317162	0.028987321	0.299056850	0.092172225
2020-03-09T11:30:00	0.3460	5.947	172.0	0.939630191	1.288232424	0.028579690	0.294851390	0.090876062
2020-03-09T11:35:00	0.3470	5.960	172.0	0.942557666	1.293410332	0.028754131	0.296651074	0.091430742
2020-03-09T11:40:00	0.3490	5.969	172.0	0.948831692	1.304534589	0.029129992	0.300528755	0.092625881
2020-03-09T11:45:00	0.3475	5.981	172.0	0.944143436	1.296218501	0.028848872	0.297628499	0.091731994
2020-03-09T11:50:00	0.3483	5.995	172.0	0.946763219	1.300862949	0.029005773	0.299247209	0.092230896
2020-03-09T11:55:00	0.3454	6.006	172.0	0.937803061	1.285004816	0.028471116	0.293731258	0.090530826
2020-03-09T12:00:00	0.3441	6.016	172.0	0.933712950	1.277791057	0.028228908	0.291232437	0.089760666
2020-03-09T12:05:00	0.3473	6.026	172.0	0.943658535	1.295359561	0.028819884	0.297329428	0.091639817
2020-03-09T12:10:00	0.3455	6.036	173.0	0.938049082	1.285439228	0.028485722	0.293881944	0.090577269
2020-03-09T12:15:00	0.3413	6.046	172.0	0.925398510	1.263175254	0.027740106	0.286189559	0.088206401
2020-03-09T12:20:00	0.3458	6.056	172.0	0.939026594	1.287165828	0.028543797	0.294481088	0.090761931
2020-03-09T12:25:00	0.3456	6.067	172.0	0.938295089	1.285873671	0.028500331	0.294032664	0.090623723
2020-03-09T12:30:00	0.3424	6.090	173.0	0.928704582	1.268979170	0.027933897	0.288188866	0.088822607
2020-03-09T12:35:00	0.3399	6.112	172.0	0.920930073	1.255347046	0.027479377	0.283499667	0.087377351
2020-03-09T12:40:00	0.3448	6.137	173.0	0.936099782	1.281998820	0.028370111	0.292689202	0.090209655
2020-03-09T12:45:00	0.3409	6.163	173.0	0.924055472	1.260820434	0.027661597	0.285379592	0.087956762
2020-03-09T12:50:00	0.3404	6.192	173.0	0.922402480	1.257924474	0.027565139	0.284384455	0.087650051
2020-03-09T12:55:00	0.3400	6.218	173.0	0.921361597	1.256102214	0.027504496	0.283758817	0.087457223
2020-03-09T13:00:00	0.3416	6.244	173.0	0.926138799	1.264473965	0.027783434	0.286636564	0.088344173
2020-03-09T13:05:00	0.3403	6.264	173.0	0.922343157	1.257820591	0.027561681	0.284348777	0.087639055
2020-03-09T13:10:00	0.3407	6.278	173.0	0.923446318	1.259752930	0.027626028	0.285012643	0.087843665
2020-03-09T13:15:00	0.3426	6.292	173.0	0.929138496	1.269741681	0.027959388	0.288451847	0.088903661
2020-03-09T13:20:00	0.3387	6.301	174.0	0.917380027	1.249141079	0.027273214	0.281372721	0.086721805
2020-03-09T13:25:00	0.3421	6.310	173.0	0.927671771	1.267164936	0.027873276	0.287563451	0.088629848
2020-03-09T13:30:00	0.3307	6.317	173.0	0.892833531	1.206552085	0.025871307	0.266909510	0.082264103
2020-03-09T13:35:00	0.3418	6.325	174.0	0.926816473	1.265663277	0.027823130	0.287046102	0.088470397
2020-03-09T13:40:00	0.3405	6.338	174.0	0.922715212	1.258472170	0.027583373	0.284572578	0.087708032
2020-03-09T13:45:00	0.3413	6.354	174.0	0.925348903	1.263088245	0.027737204	0.286159619	0.088197174
2020-03-09T13:50:00	0.3387	6.369	174.0	0.917261232	1.248933612	0.027266330	0.281301701	0.086699916
2020-03-09T13:55:00	0.3401	6.382	174.0	0.921736971	1.256759258	0.027526357	0.283984352	0.087526735
2020-03-09T14:00:00	0.3398	6.398	174.0	0.920695916	1.254937344	0.027465752	0.283359101	0.087334027
2020-03-09T14:05:00	0.3380	6.407	174.0	0.915054439	1.245082020	0.027138628	0.279984224	0.086293857
2020-03-09T14:10:00	0.3397	6.413	174.0	0.920452062	1.254510731	0.027451567	0.283212755	0.087288922
2020-03-09T14:15:00	0.3382	6.423	174.0	0.915730750	1.246261927	0.027177729	0.280387623	0.086418188
2020-03-09T14:20:00	0.3378	6.437	174.0	0.914688138	1.244443143	0.027117464	0.279765873	0.086226559
2020-03-09T14:25:00	0.3310	6.454	174.0	0.893642868	1.207947379	0.025916876	0.267379634	0.082409000
2020-03-09T14:30:00	0.3363	6.469	174.0	0.909837783	1.235995290	0.026838080	0.276883519	0.085338190
2020-03-09T14:35:00	0.3372	6.484	174.0	0.912786967	1.241129260	0.027007763	0.278634109	0.085877739
2020-03-09T14:40:00	0.3371	6.500	174.0	0.912357754	1.240381577	0.026983031	0.278378953	0.085799097
2020-03-09T14:45:00	0.3359	6.512	175.0	0.908856396	1.234288682	0.026781747	0.276302345	0.085159066
2020-03-09T14:50:00	0.3345	6.522	174.0	0.904429074	1.226600828	0.026528431	0.273688937	0.084353588
2020-03-09T14:55:00	0.3344	6.531	174.0	0.903998964	1.225854932	0.026503893	0.273435782	0.084275564
2020-03-09T15:00:00	0.3378	6.546	175.0	0.914631933	1.244345126	0.027114217	0.279732378	0.086216235
2020-03-09T15:05:00	0.3339	6.559	174.0	0.902523021	1.223296668	0.026419786	0.272568060	0.084008123
2020-03-09T15:10:00	0.3367	6.568	175.0	0.911317499	1.238570181	0.026923142	0.277761088	0.085608665
2020-03-09T15:15:00	0.3333	6.571	174.0	0.900738590	1.220206408	0.026318297	0.271521022	0.083685416
2020-03-09T15:20:00	0.3378	6.570	175.0	0.914450384	1.244028536	0.027103731	0.279624199	0.086182894
2020-03-09T15:25:00	0.3367	6.570	175.0	0.911258012	1.238466627	0.026919719	0.277725779	0.085597782
2020-03-09T15:30:00	0.3346	6.569	175.0	0.904680386	1.227036732	0.026542775	0.273836914	0.084399196
2020-03-09T15:35:00	0.3336	6.567	174.0	0.901480203	1.221490367	0.026360450	0.271955902	0.083819450
2020-03-09T15:40:00	0.3356	6.565	175.0	0.907818469	1.232484727	0.026722240	0.275688426	0.084969850
2020-03-09T15:45:00	0.3360	6.564	174.0	0.908925631	1.234409049	0.026785719	0.276343323	0.085171696
2020-03-09T15:50:00	0.3348	6.559	175.0	0.905421268	1.228322141	0.026585085	0.274273419	0.084533731
2020-03-09T15:55:00	0.3388	6.554	174.0	0.917584055	1.249497429	0.027285039	0.281494719	0.086759406
2020-03-09T16:00:00	0.3376	6.551	174.0	0.913780323	1.242860333	0.027065050	0.279225134	0.086059898
2020-03-09T16:05:00	0.3377	6.549	174.0	0.914090008	1.243400194	0.027082924	0.279409532	0.086116731
2020-03-09T16:10:00	0.3389	6.546	174.0	0.917774180	1.249829531	0.027296061	0.281608430	0.086794453
2020-03-09T16:15:00	0.3421	6.541	174.0	0.927577602	1.266999568	0.027867752	0.287506465	0.088612285
2020-03-09T16:20:00	0.3395	6.538	174.0	0.919619113	1.253053935	0.027403144	0.282713189	0.087134951
2020-03-09T16:25:00	0.3412	6.533	174.0	0.924829049	1.262176582	0.027706802	0.285845969	0.088100504
2020-03-09T16:30:00	0.3392	6.524	174.0	0.918704982	1.251455903	0.027350057	0.282165499	0.086966147
2020-03-09T16:35:00	0.3389	6.511	174.0	0.917787899	1.249853496	0.027296856	0.281616636	0.086796982
2020-03-09T16:40:00	0.3380	6.497	174.0	0.915029901	1.245039220	0.027137210	0.279969595	0.086289348
2020-03-09T16:45:00	0.3429	6.483	174.0	0.930040463	1.271327261	0.028012416	0.288998930	0.089072277
2020-03-09T16:50:00	0.3416	6.465	174.0	0.926066984	1.264347955	0.027779229	0.286593184	0.088330803
2020-03-09T16:55:00	0.3440	6.445	174.0	0.933407365	1.277252727	0.028210858	0.291046222	0.089703272
2020-03-09T17:00:00	0.3432	6.425	174.0	0.930965700	1.272954540	0.028066870	0.289560728	0.089245429
2020-03-09T17:05:00	0.3441	6.406	174.0	0.933718277	1.277800443	0.028229222	0.291235684	0.089761666
2020-03-09T17:10:00	0.3469	6.384	174.0	0.942264140	1.292890801	0.028736614	0.296470350	0.091375041
2020-03-09T17:15:00	0.3476	6.360	174.0	0.944399839	1.296672776	0.028864207	0.297786707	0.091780755
2020-03-09T17:20:00	0.3489	6.335	174.0	0.948360827	1.303698427	0.029101688	0.300236755	0.092535884
2020-03-09T17:25:00	0.3436	6.311	174.0	0.932201754	1.275129729	0.028139710	0.290312205	0.089477041
2020-03-09T17:30:00	0.3459	6.287	174.0	0.939226006	1.287518165	0.028555652	0.294603397	0.090799628
2020-03-09T17:35:00	0.3470	6.265	173.0	0.942582554	1.293454387	0.028755617	0.296666400	0.091435466
2020-03-09T17:40:00	0.3489	6.244	173.0	0.948371720	1.303717767	0.029102343	0.300243508	0.092537965
2020-03-09T17:45:00	0.3495	6.224	173.0	0.950200029	1.306965674	0.029212329	0.301378213	0.092887692
2020-03-09T17:50:00	0.3472	6.203	173.0	0.943200221	1.294547919	0.028792500	0.297046910	0.091552743
2020-03-09T17:55:00	0.3464	6.181	173.0	0.940764455	1.290237672	0.028647207	0.295547958	0.091090751
2020-03-09T18:00:00	0.3449	6.159	172.0	0.936191057	1.282159835	0.028375518	0.292744990	0.090226849
2020-03-09T18:05:00	0.3479	6.136	173.0	0.945340878	1.298340568	0.028920529	0.298367763	0.091959842
2020-03-09T18:10:00	0.3517	6.114	173.0	0.956900445	1.318895653	0.029617399	0.305557246	0.094175711
2020-03-09T18:15:00	0.3489	6.090	173.0	0.948390781	1.303751613	0.029103489	0.300255326	0.092541608
2020-03-09T18:20:00	0.3507	6.067	173.0	0.953867785	1.313490795	0.029433673	0.303661780	0.093591510
2020-03-09T18:25:00	0.3520	6.044	173.0	0.957819584	1.320535478	0.029673210	0.306133033	0.094353174
2020-03-09T18:30:00	0.3501	6.021	172.0	0.952049283	1.310254000	0.029323812	0.302528360	0.093242179
2020-03-09T18:35:00	0.3521	5.997	172.0	0.958128635	1.321087031	0.029691989	0.306326772	0.094412886
2020-03-09T18:40:00	0.3520	5.974	172.0	0.957827735	1.320550023	0.029673705	0.306138141	0.094354748
2020-03-09T18:45:00	0.3496	5.950	172.0	0.950536874	1.307564408	0.029232618	0.301587531	0.092952206
2020-03-09T18:50:00	0.3501	5.927	172.0	0.952060166	1.310273361	0.029324469	0.302535136	0.093244267
2020-03-09T18:55:00	0.3505	5.901	173.0	0.953278934	1.312442342	0.029398074	0.303294505	0.093478312
2020-03-09T19:00:00	0.3518	5.876	172.0	0.957231302	1.319485840	0.029637482	0.305764439	0.094239570
2020-03-09T19:05:00	0.3489	5.852	172.0	0.948418012	1.303799965	0.029105125	0.300272209	0.092546811
2020-03-09T19:10:00	0.3523	5.826	172.0	0.958754814	1.322204830	0.029730058	0.306719525	0.094533936
2020-03-09T19:15:00	0.3533	5.802	172.0	0.961791993	1.327631802	0.029915095	0.308628525	0.095122309
2020-03-09T19:20:00	0.3526	5.776	172.0	0.959670821	1.323840674	0.029785797	0.307294574	0.094711172
2020-03-09T19:25:00	0.3526	5.750	172.0	0.959673536	1.323845524	0.029785962	0.307296280	0.094711698
2020-03-09T19:30:00	0.3542	5.724	172.0	0.964529224	1.332530304	0.030082413	0.310354705	0.095654334
2020-03-09T19:35:00	0.3508	5.698	172.0	0.954212485	1.314104686	0.029454524	0.303876890	0.093657809
2020-03-09T19:40:00	0.3534	5.672	172.0	0.962108885	1.328198543	0.029934439	0.308828090	0.095183817
2020-03-09T19:45:00	0.3557	5.646	171.0	0.969081799	1.340693260	0.030361859	0.313237702	0.096542902
2020-03-09T19:50:00	0.3536	5.620	166.0	0.962720888	1.329293340	0.029971817	0.309213707	0.095302668
2020-03-09T19:55:00	0.3538	5.594	171.0	0.963330086	1.330383472	0.030009049	0.309597826	0.095421057
2020-03-09T20:00:00	0.3511	5.569	172.0	0.955137666	1.315752940	0.029510527	0.304454672	0.093835887
2020-03-09T20:05:00	0.3555	5.545	171.0	0.968487004	1.339625649	0.030325267	0.312860185	0.096426547
2020-03-09T20:10:00	0.3526	5.520	171.0	0.959697977	1.323889181	0.029787450	0.307311631	0.094716429
2020-03-09T20:15:00	0.3570	5.495	171.0	0.973032488	1.347792965	0.030605541	0.315751720	0.097317747
2020-03-09T20:20:00	0.3581	5.470	171.0	0.976361391	1.353786795	0.030811723	0.317878863	0.097973353
2020-03-09T20:25:00	0.3550	5.445	170.0	0.966983374	1.336928251	0.030232873	0.311906973	0.096132758
2020-03-09T20:30:00	0.3523	5.421	171.0	0.958798273	1.322282423	0.029732701	0.306746794	0.094542341
2020-03-09T20:35:00	0.3549	5.397	171.0	0.966685835	1.336394743	0.030214608	0.311718545	0.096074683
2020-03-09T20:40:00	0.3564	5.374	171.0	0.971230604	1.344552994	0.030494263	0.314603687	0.096963912
2020-03-09T20:45:00	0.3580	5.350	170.0	0.976072644	1.353266477	0.030793808	0.317694037	0.097916388
2020-03-09T20:50:00	0.3574	5.325	171.0	0.974261267	1.350004206	0.030681556	0.316535962	0.097559458
2020-03-09T20:55:00	0.3573	5.302	170.0	0.973961549	1.349464717	0.030663005	0.316344572	0.097500469
2020-03-09T21:00:00	0.3565	5.277	170.0	0.971544060	1.345116398	0.030513604	0.314803230	0.097025413
2020-03-09T21:05:00	0.3575	5.253	170.0	0.974571787	1.350563227	0.030700783	0.316734319	0.097620593
2020-03-09T21:10:00	0.3586	5.230	170.0	0.977899446	1.356559691	0.030907249	0.318864390	0.098277102
2020-03-09T21:15:00	0.3535	5.205	170.0	0.962463745	1.328833300	0.029956109	0.309051651	0.095252720
2020-03-09T21:20:00	0.3527	5.182	169.0	0.960039469	1.324499245	0.029808246	0.307526175	0.094782554
2020-03-09T21:25:00	0.3563	5.158	169.0	0.970952329	1.344052903	0.030477098	0.314426601	0.096909332
2020-03-09T21:30:00	0.3567	5.136	169.0	0.972165486	1.346233622	0.030551969	0.315199034	0.097147403
2020-03-09T21:35:00	0.3566	5.113	169.0	0.971865615	1.345694456	0.030533453	0.315008002	0.097088526
2020-03-09T21:40:00	0.3561	5.091	169.0	0.970355096	1.342979856	0.030440277	0.314046727	0.096792251
2020-03-09T21:45:00	0.3569	5.069	169.0	0.972778698	1.347336437	0.030589854	0.315589880	0.097267866
2020-03-09T21:50:00	0.3549	5.047	169.0	0.966726498	1.336467651	0.030217104	0.311744293	0.096082619
2020-03-09T21:55:00	0.3571	5.024	168.0	0.973389111	1.348434576	0.030627591	0.315979214	0.097387863
2020-03-09T22:00:00	0.3504	5.002	169.0	0.953075596	1.312080374	0.029385786	0.303167739	0.093439241
2020-03-09T22:05:00	0.3567	4.980	168.0	0.972128063	1.346166332	0.030549658	0.315175190	0.097140055
2020-03-09T22:10:00	0.3545	4.961	169.0	0.965412360	1.334112265	0.030136508	0.310912793	0.095826342
2020-03-09T22:15:00	0.3561	4.940	169.0	0.970204857	1.342709976	0.030431018	0.313951207	0.096762811
2020-03-09T22:20:00	0.3542	4.918	168.0	0.964698656	1.332833751	0.030092787	0.310461732	0.095687321
2020-03-09T22:25:00	0.3585	4.897	169.0	0.977658516	1.356125179	0.030892274	0.318709897	0.098229486
2020-03-09T22:30:00	0.3600	4.877	168.0	0.982134954	1.364207364	0.031171173	0.321587244	0.099116312
2020-03-09T22:35:00	0.3586	4.858	168.0	0.977853486	1.356476798	0.030904392	0.318834915	0.098268017
2020-03-09T22:40:00	0.3543	4.837	169.0	0.964786717	1.332991476	0.030098179	0.310517367	0.095704468
2020-03-09T22:45:00	0.3594	4.818	169.0	0.980162854	1.360644394	0.031048129	0.320317826	0.098725065
2020-03-09T22:50:00	0.3610	4.797	169.0	0.985239842	1.369824446	0.031365451	0.323591572	0.099734065
2020-03-09T22:55:00	0.3576	4.778	168.0	0.974918722	1.351187914	0.030722272	0.316956020	0.097688924
2020-03-09T23:00:00	0.3560	4.759	168.0	0.970024337	1.342385728	0.030419896	0.313836457	0.096727444
2020-03-09T23:05:00	0.3597	4.740	168.0	0.981156408	1.362438972	0.031110085	0.320957011	0.098922068
2020-03-09T23:10:00	0.3594	4.721	168.0	0.980197023	1.360706095	0.031050259	0.320339796	0.098731836
2020-03-09T23:15:00	0.3581	4.702	168.0	0.976518081	1.354069182	0.030821447	0.317979185	0.098004273
2020-03-09T23:20:00	0.3615	4.683	168.0	0.986728254	1.372520410	0.031458825	0.324554897	0.100030971
2020-03-09T23:25:00	0.3616	4.663	168.0	0.986976270	1.372969848	0.031474399	0.324715574	0.100080494
2020-03-09T23:30:00	0.3609	4.645	168.0	0.984811847	1.369049611	0.031338630	0.323314866	0.099648782
2020-03-09T23:35:00	0.3626	4.627	168.0	0.989883134	1.378241847	0.031657262	0.326602141	0.100661952
2020-03-09T23:40:00	0.3637	4.609	168.0	0.993142404	1.384162592	0.031863008	0.328724775	0.101316168
2020-03-09T23:45:00	0.3585	4.590	167.0	0.977707490	1.356213499	0.030895318	0.318741298	0.098239164
2020-03-09T23:50:00	0.3610	4.571	168.0	0.985201103	1.369754307	0.031363022	0.323566521	0.099726344
2020-03-09T23:55:00	0.3640	4.554	168.0	0.994186229	1.386060938	0.031929060	0.329406223	0.101526197
2020-03-10T00:00:00	0.3608	4.537	167.0	0.984490822	1.368468546	0.031318521	0.323107406	0.099584841
2020-03-10T00:05:00	0.3615	4.520	168.0	0.986548456	1.372194628	0.031447537	0.324438442	0.099995079
2020-03-10T00:10:00	0.3601	4.504	167.0	0.982271563	1.364454311	0.031179706	0.321675282	0.099143446
2020-03-10T00:15:00	0.3613	4.489	167.0	0.986139962	1.371454582	0.031421900	0.324173951	0.099913560
2020-03-10T00:20:00	0.3561	4.473	168.0	0.970376113	1.343017611	0.030441572	0.314060090	0.096796370
2020-03-10T00:25:00	0.3566	4.460	166.0	0.971835661	1.345640604	0.030531603	0.314988924	0.097082645
2020-03-10T00:30:00	0.3597	4.445	167.0	0.981151791	1.362430632	0.031109797	0.320954039	0.098921152
2020-03-10T00:35:00	0.3599	4.432	167.0	0.981702022	1.363424873	0.031144138	0.321308328	0.099030347
2020-03-10T00:40:00	0.3616	4.416	167.0	0.987078607	1.373155314	0.031480827	0.324781887	0.100100932
2020-03-10T00:45:00	0.3617	4.401	166.0	0.987326603	1.373604797	0.031496406	0.324942614	0.100150470
2020-03-10T00:50:00	0.3615	4.386	166.0	0.986670166	1.372415155	0.031455178	0.324517271	0.100019375
2020-03-10T00:55:00	0.3637	4.371	166.0	0.993244589	1.384348384	0.031869470	0.328791450	0.101336718
2020-03-10T01:00:00	0.3588	4.355	167.0	0.978414319	1.357488438	0.030939264	0.319194685	0.098378902
2020-03-10T01:05:00	0.3590	4.340	166.0	0.978964915	1.358481902	0.030973521	0.319548111	0.098487831
2020-03-10T01:10:00	0.3618	4.325	166.0	0.987662157	1.374213071	0.031517493	0.325160161	0.100217519
2020-03-10T01:15:00	0.3616	4.310	166.0	0.987005773	1.373023315	0.031476252	0.324734691	0.100086386
2020-03-10T01:20:00	0.3580	4.297	166.0	0.976084559	1.353287945	0.030794547	0.317701662	0.097918738
2020-03-10T01:25:00	0.3619	4.282	166.0	0.987803192	1.374468764	0.031526358	0.325251621	0.100245708
2020-03-10T01:30:00	0.3586	4.270	167.0	0.977790653	1.356363478	0.030900486	0.318794623	0.098255599
2020-03-10T01:35:00	0.3626	4.255	166.0	0.989805742	1.378101382	0.031652386	0.326551833	0.100646446
2020-03-10T01:40:00	0.3613	4.242	166.0	0.986135351	1.371446230	0.031421611	0.324170966	0.099912640
2020-03-10T01:45:00	0.3647	4.227	166.0	0.996321847	1.389948117	0.032064441	0.330802922	0.101956673
2020-03-10T01:50:00	0.3625	4.213	166.0	0.989645427	1.377810429	0.031642286	0.326447636	0.100614332
2020-03-10T01:55:00	0.3636	4.198	165.0	0.992904884	1.383730772	0.031847988	0.328569824	0.101268411
2020-03-10T02:00:00	0.3645	4.183	161.0	0.995560107	1.388561123	0.032016115	0.330304358	0.101803011
2020-03-10T02:05:00	0.3645	4.167	165.0	0.995807595	1.389011695	0.032031812	0.330466295	0.101852921
2020-03-10T02:10:00	0.3632	4.153	165.0	0.991841398	1.381797983	0.031780790	0.327876548	0.101054736
2020-03-10T02:15:00	0.3627	4.139	165.0	0.990282046	1.378965960	0.031682404	0.326861519	0.100741895
2020-03-10T02:20:00	0.3595	4.126	165.0	0.980577479	1.361393185	0.031073976	0.320584480	0.098807250
2020-03-10T02:25:00	0.3632	4.113	165.0	0.991681161	1.381506861	0.031770672	0.327772163	0.101022564
2020-03-10T02:30:00	0.3648	4.101	165.0	0.996443271	1.390169260	0.032072148	0.330882434	0.101981180
2020-03-10T02:35:00	0.3626	4.088	165.0	0.990068315	1.378577973	0.031668932	0.326722534	0.100699058
2020-03-10T02:40:00	0.3634	4.075	165.0	0.992424277	1.382857179	0.031817610	0.328256419	0.101171816
2020-03-10T02:45:00	0.3649	4.064	165.0	0.996884782	1.390973481	0.032100180	0.331171641	0.102070316
2020-03-10T02:50:00	0.3652	4.051	165.0	0.997733640	1.392520216	0.032154115	0.331728077	0.102241815
2020-03-10T02:55:00	0.3662	4.039	164.0	1.000686281	1.397905705	0.032342120	0.333667689	0.102839622
2020-03-10T03:00:00	0.3680	4.025	165.0	1.006038347	1.407688966	0.032684489	0.337199852	0.103928269
2020-03-10T03:05:00	0.3649	4.014	164.0	0.996972159	1.391132662	0.032105730	0.331228893	0.102087962
2020-03-10T03:10:00	0.3633	4.002	164.0	0.992103842	1.382274851	0.031797365	0.328047556	0.101107443
2020-03-10T03:15:00	0.3653	3.990	165.0	0.998068354	1.393130299	0.032175396	0.331947631	0.102309484
2020-03-10T03:20:00	0.3660	3.980	160.0	1.000119264	1.396870843	0.032305968	0.333294714	0.102724668
2020-03-10T03:25:00	0.3678	3.968	164.0	1.005472059	1.406652522	0.032648167	0.336825124	0.103812775
2020-03-10T03:30:00	0.3672	3.957	164.0	1.003917811	1.403809462	0.032548595	0.335797855	0.103496160
2020-03-10T03:35:00	0.3627	3.945	164.0	0.990330871	1.379054599	0.031685482	0.326893274	0.100751682
2020-03-10T03:40:00	0.3660	3.935	164.0	1.000206573	1.397030170	0.032311533	0.333352129	0.102742364
2020-03-10T03:45:00	0.3641	3.925	164.0	0.994439322	1.386521381	0.031945087	0.329571571	0.101577159
2020-03-10T03:50:00	0.3619	3.915	164.0	0.987759868	1.374390216	0.031523634	0.325223524	0.100237049
2020-03-10T03:55:00	0.3636	3.906	164.0	0.992827549	1.383590186	0.031843099	0.328519382	0.101252864
2020-03-10T04:00:00	0.3622	3.897	164.0	0.988858499	1.376382609	0.031592737	0.325936444	0.100456777
2020-03-10T04:05:00	0.3656	3.887	160.0	0.999032939	1.394889051	0.032236769	0.332580807	0.102504635
2020-03-10T04:10:00	0.3647	3.878	164.0	0.996267845	1.389849772	0.032061013	0.330767564	0.101945776
2020-03-10T04:15:00	0.3656	3.869	159.0	0.998915540	1.394674947	0.032229296	0.332503707	0.102480872
2020-03-10T04:20:00	0.3626	3.862	164.0	0.989828400	1.378142506	0.031653814	0.326566562	0.100650986
2020-03-10T04:25:00	0.3605	3.857	164.0	0.983739583	1.367109164	0.031271492	0.322622217	0.099435300
2020-03-10T04:30:00	0.3642	3.851	159.0	0.994829412	1.387231179	0.031969798	0.329826514	0.101655735
2020-03-10T04:35:00	0.3679	3.845	160.0	1.005889704	1.407416882	0.032674953	0.337101468	0.103897946
2020-03-10T04:40:00	0.3674	3.838	159.0	1.004330239	1.404563658	0.032575000	0.336070273	0.103580122
2020-03-10T04:45:00	0.3628	3.831	163.0	0.990438039	1.379249162	0.031692238	0.326962979	0.100773166
2020-03-10T04:50:00	0.3643	3.824	163.0	0.995196190	1.387898690	0.031993043	0.330066322	0.101729646
2020-03-10T04:55:00	0.3680	3.818	164.0	1.006255508	1.408086503	0.032698424	0.337343615	0.103972578
2020-03-10T05:00:00	0.3630	3.813	158.0	0.991165209	1.380569634	0.031738105	0.327436177	0.100919010
2020-03-10T05:05:00	0.3670	3.808	159.0	1.003136270	1.402380727	0.032498591	0.335281972	0.103337160
2020-03-10T05:10:00	0.3667	3.803	163.0	1.002176581	1.400627124	0.032437248	0.334649113	0.103142107
2020-03-10T05:15:00	0.3665	3.800	159.0	1.001817530	1.399971270	0.032414315	0.334412513	0.103069184
2020-03-10T05:20:00	0.3708	3.796	158.0	1.014656621	1.423500513	0.033240101	0.342931992	0.105694971
2020-03-10T05:25:00	0.3704	3.795	158.0	1.013400011	1.421190619	0.033158757	0.342092784	0.105436319
2020-03-10T05:30:00	0.3675	3.793	163.0	1.004644668	1.405138754	0.032595139	0.336278044	0.103644159
2020-03-10T05:35:00	0.3676	3.791	164.0	1.004886245	1.405580668	0.032610617	0.336437726	0.103693375
2020-03-10T05:40:00	0.3683	3.792	159.0	1.007228462	1.409868164	0.032760899	0.337988151	0.104171231
2020-03-10T05:45:00	0.3662	3.795	158.0	1.000864651	1.398231312	0.032353497	0.333785067	0.102875799
2020-03-10T05:50:00	0.3640	3.797	159.0	0.994190149	1.386068070	0.031929308	0.329408783	0.101526986
2020-03-10T05:55:00	0.3669	3.800	158.0	1.002850166	1.401857847	0.032480297	0.335093232	0.103278988
2020-03-10T06:00:00	0.3668	3.801	159.0	1.002491172	1.401201867	0.032457350	0.334856493	0.103206023
2020-03-10T06:05:00	0.3661	3.802	159.0	1.000329449	1.397254416	0.032319366	0.333432943	0.102767271
2020-03-10T06:10:00	0.3638	3.804	164.0	0.993654088	1.385093032	0.031895377	0.329058721	0.101419094
2020-03-10T06:15:00	0.3661	3.809	159.0	1.000512600	1.397588687	0.032331044	0.333553419	0.102804403
2020-03-10T06:20:00	0.3669	3.816	163.0	1.002857275	1.401870839	0.032480751	0.335097921	0.103280434
2020-03-10T06:25:00	0.3677	3.829	164.0	1.005200632	1.406155855	0.032630766	0.336645598	0.103757443
2020-03-10T06:30:00	0.3660	3.844	159.0	1.000036038	1.396718972	0.032300663	0.333239989	0.102707801
2020-03-10T06:35:00	0.3664	3.854	163.0	1.001479783	1.399354445	0.032392751	0.334190039	0.103000616
2020-03-10T06:40:00	0.3621	3.864	158.0	0.988482252	1.375700145	0.031569062	0.325692191	0.100381496
2020-03-10T06:45:00	0.3648	3.875	164.0	0.996552631	1.390368445	0.032079090	0.330954056	0.102003254
2020-03-10T06:50:00	0.3667	3.888	159.0	1.002205024	1.400679083	0.032439066	0.334667859	0.103147884
2020-03-10T06:55:00	0.3681	3.903	163.0	1.006349622	1.408258804	0.032704464	0.337405931	0.103991785
2020-03-10T07:00:00	0.3661	3.917	159.0	1.000585504	1.397721754	0.032335693	0.333601382	0.102819186
2020-03-10T07:05:00	0.3624	3.935	164.0	0.989393406	1.377353093	0.031626413	0.326283873	0.100563858
2020-03-10T07:10:00	0.3635	3.960	164.0	0.992647674	1.383263217	0.031831729	0.328402076	0.101216709
2020-03-10T07:15:00	0.3646	3.992	164.0	0.995899390	1.389178830	0.032037634	0.330526369	0.101871437
2020-03-10T07:20:00	0.3671	4.015	164.0	1.003354840	1.402780236	0.032512571	0.335426201	0.103381613
2020-03-10T07:25:00	0.3651	4.031	164.0	0.997586573	1.392252190	0.032144767	0.331631635	0.102212091
2020-03-10T07:30:00	0.3673	4.051	164.0	1.004138381	1.404212792	0.032562715	0.335943530	0.103541059
2020-03-10T07:35:00	0.3704	4.082	164.0	1.013376972	1.421148282	0.033157267	0.342077409	0.105431580
2020-03-10T07:40:00	0.3644	4.113	165.0	0.995304799	1.388096377	0.031999927	0.330137353	0.101751538
2020-03-10T07:45:00	0.3672	4.148	165.0	1.003662234	1.403342177	0.032532238	0.335629103	0.103444149
2020-03-10T07:50:00	0.3629	4.172	164.0	0.990972742	1.380220083	0.031725961	0.327310894	0.100880396
2020-03-10T07:55:00	0.3665	4.199	164.0	1.001742878	1.399834925	0.032409548	0.334363333	0.103054027
2020-03-10T08:00:00	0.3648	4.229	165.0	0.996573991	1.390407351	0.032080446	0.330968047	0.102007566
2020-03-10T08:05:00	0.3662	4.258	165.0	1.000724195	1.397974913	0.032344538	0.333692636	0.102847311
2020-03-10T08:10:00	0.3634	4.282	165.0	0.992243259	1.382528203	0.031806173	0.328138420	0.101135448
2020-03-10T08:15:00	0.3669	4.307	165.0	1.003010109	1.402150147	0.032490523	0.335198737	0.103311506
2020-03-10T08:20:00	0.3631	4.332	164.0	0.991523408	1.381220275	0.031760712	0.327669414	0.100990896
2020-03-10T08:25:00	0.3651	4.360	166.0	0.997483371	1.392064120	0.032138208	0.331563968	0.102191235
2020-03-10T08:30:00	0.3610	4.390	165.0	0.985076582	1.369528862	0.031355218	0.323486006	0.099701529
2020-03-10T08:35:00	0.3640	4.419	165.0	0.994056592	1.385825118	0.031920852	0.329321547	0.101500099
2020-03-10T08:40:00	0.3643	4.452	166.0	0.995201540	1.387908429	0.031993382	0.330069821	0.101730725
2020-03-10T08:45:00	0.3635	4.486	160.0	0.992734969	1.383421896	0.031837247	0.328459003	0.101234255
2020-03-10T08:50:00	0.3652	4.520	166.0	0.997791199	1.392625120	0.032157774	0.331765826	0.102253450
2020-03-10T08:55:00	0.3665	4.552	166.0	1.001639779	1.399646631	0.032402965	0.334295418	0.103033095
2020-03-10T09:00:00	0.3674	4.578	166.0	1.004284061	1.404479204	0.032572043	0.336039765	0.103570719
2020-03-10T09:05:00	0.3668	4.601	166.0	1.002723996	1.401627286	0.032472231	0.335010018	0.103253341
2020-03-10T09:10:00	0.3650	4.623	166.0	0.997255602	1.391649080	0.032123735	0.331414652	0.102145215
2020-03-10T09:15:00	0.3663	4.649	165.0	1.001104678	1.398669519	0.032368811	0.333943055	0.102924493
2020-03-10T09:20:00	0.3667	4.676	166.0	1.002247687	1.400757023	0.032441791	0.334695980	0.103156551
2020-03-10T09:25:00	0.3691	4.700	167.0	1.009391946	1.413833166	0.032900061	0.339423859	0.104613730
2020-03-10T09:30:00	0.3666	4.732	167.0	1.002130379	1.400542723	0.032434297	0.334618662	0.103132721
2020-03-10T09:35:00	0.3644	4.768	167.0	0.995457910	1.388375084	0.032009635	0.330237503	0.101782406
2020-03-10T09:40:00	0.3642	4.804	166.0	0.994797375	1.387172879	0.031967768	0.329805572	0.101649280
2020-03-10T09:45:00	0.3637	4.830	162.0	0.993233747	1.384328670	0.031868785	0.328784375	0.101334538
2020-03-10T09:50:00	0.3658	4.849	167.0	0.999491845	1.395726098	0.032265991	0.332882283	0.102597553
2020-03-10T09:55:00	0.3659	4.873	167.0	0.999733721	1.396167364	0.032281399	0.333041245	0.102646546
2020-03-10T10:00:00	0.3641	4.913	168.0	0.994562335	1.386745196	0.031952878	0.329651954	0.101601934
2020-03-10T10:05:00	0.3600	4.956	168.0	0.982240351	1.364397888	0.031177756	0.321655166	0.099137246
2020-03-10T10:10:00	0.3599	4.993	163.0	0.981671285	1.363369325	0.031142219	0.321288530	0.099024245
2020-03-10T10:15:00	0.3594	5.023	168.0	0.980196304	1.360704798	0.031050214	0.320339334	0.098731694
2020-03-10T10:20:00	0.3594	5.054	168.0	0.980230952	1.360767364	0.031052373	0.320361613	0.098738560
2020-03-10T10:25:00	0.3619	5.084	168.0	0.987808040	1.374477553	0.031526663	0.325254765	0.100246678
2020-03-10T10:30:00	0.3601	5.112	168.0	0.982413500	1.364710908	0.031188574	0.321766769	0.099171643
2020-03-10T10:35:00	0.3568	5.138	168.0	0.972476233	1.346792432	0.030571164	0.315397062	0.097208438
2020-03-10T10:40:00	0.3578	5.167	168.0	0.975535256	1.352298320	0.030760482	0.317350217	0.097810419
2020-03-10T10:45:00	0.3528	5.196	169.0	0.960426196	1.325190252	0.029831805	0.307769238	0.094857468
2020-03-10T10:50:00	0.3547	5.224	169.0	0.966222171	1.335563531	0.030186159	0.311425041	0.095984222
2020-03-10T10:55:00	0.3569	5.252	169.0	0.972615081	1.347042150	0.030579743	0.315485568	0.097235716
2020-03-10T11:00:00	0.3577	5.275	168.0	0.975069337	1.351459145	0.030731604	0.317052294	0.097718596
2020-03-10T11:05:00	0.3583	5.303	169.0	0.976917738	1.354789550	0.030846257	0.318235150	0.098083164
2020-03-10T11:10:00	0.3545	5.332	169.0	0.965452144	1.334183547	0.030138946	0.310937947	0.095834095
2020-03-10T11:15:00	0.3584	5.365	169.0	0.977289290	1.355459397	0.030869333	0.318473219	0.098156539
2020-03-10T11:20:00	0.3522	5.393	169.0	0.958545422	1.321831001	0.029717324	0.306588159	0.094493448
2020-03-10T11:25:00	0.3531	5.419	169.0	0.961311488	1.326772633	0.029885778	0.308326064	0.095029087
2020-03-10T11:30:00	0.3562	5.445	169.0	0.970739891	1.343671178	0.030463998	0.314291449	0.096867677
2020-03-10T11:35:00	0.3570	5.468	170.0	0.972892763	1.347541615	0.030596903	0.315662613	0.097290283
2020-03-10T11:40:00	0.3523	5.490	170.0	0.958684743	1.322079727	0.029725796	0.306675561	0.094520386
2020-03-10T11:45:00	0.3493	5.510	170.0	0.949602549	1.305903932	0.029176361	0.301007135	0.092773322
2020-03-10T11:50:00	0.3551	5.532	170.0	0.967245242	1.337397869	0.030248952	0.312072864	0.096183888
2020-03-10T11:55:00	0.3530	5.555	170.0	0.960913574	1.326061304	0.029861512	0.308075716	0.094951928
2020-03-10T12:00:00	0.3563	5.583	171.0	0.970948250	1.344045573	0.030476846	0.314424005	0.096908532
2020-03-10T12:05:00	0.3539	5.616	171.0	0.963712827	1.331068551	0.030032454	0.309839294	0.095495480
2020-03-10T12:10:00	0.3530	5.645	171.0	0.961018004	1.326247974	0.029867880	0.308141407	0.094972174
2020-03-10T12:15:00	0.3494	5.669	171.0	0.950116201	1.306816689	0.029207281	0.301326134	0.092871641
2020-03-10T12:20:00	0.3475	5.698	171.0	0.944062554	1.296075214	0.028844036	0.297578602	0.091716615
2020-03-10T12:25:00	0.3450	5.730	171.0	0.936474029	1.282659068	0.028392287	0.292917986	0.090280168
2020-03-10T12:30:00	0.3463	5.767	172.0	0.940475013	1.289725856	0.028629970	0.295370120	0.091035940
2020-03-10T12:35:00	0.3491	5.799	171.0	0.949038860	1.304902546	0.029142449	0.300657278	0.092665493
2020-03-10T12:40:00	0.3478	5.825	171.0	0.945116204	1.297942304	0.028907076	0.298228977	0.091917067
2020-03-10T12:45:00	0.3474	5.845	171.0	0.943932671	1.295845130	0.028836270	0.297498485	0.091691922
2020-03-10T12:50:00	0.3489	5.856	171.0	0.948534999	1.304007698	0.029112156	0.300344747	0.092569168
2020-03-10T12:55:00	0.3507	5.861	171.0	0.954043959	1.313804537	0.029444329	0.303771711	0.093625391
2020-03-10T13:00:00	0.3520	5.864	171.0	0.958027707	1.320906898	0.029685855	0.306263494	0.094393383
2020-03-10T13:05:00	0.3496	5.870	171.0	0.950465214	1.307437026	0.029228301	0.301542994	0.092938479
2020-03-10T13:10:00	0.3473	5.876	171.0	0.943498097	1.295075413	0.028810296	0.297230512	0.091609330
2020-03-10T13:15:00	0.3493	5.885	172.0	0.949622398	1.305939198	0.029177555	0.301019458	0.092777120
2020-03-10T13:20:00	0.3485	5.890	172.0	0.947222683	1.301678172	0.029033339	0.299531610	0.092318551
2020-03-10T13:25:00	0.3470	5.896	171.0	0.942688801	1.293642465	0.028761959	0.296731834	0.091455633
2020-03-10T13:30:00	0.3462	5.907	171.0	0.940284987	1.289389880	0.028618656	0.295253398	0.090999965
2020-03-10T13:35:00	0.3465	5.921	171.0	0.941234681	1.291069332	0.028675224	0.295837001	0.091179837
2020-03-10T13:40:00	0.3467	5.946	172.0	0.941879345	1.292209848	0.028713659	0.296233526	0.091302050
2020-03-10T13:45:00	0.3500	5.969	172.0	0.951960844	1.310096665	0.029318475	0.302473299	0.093225208
2020-03-10T13:50:00	0.3500	5.994	171.0	0.951691657	1.309617822	0.029302234	0.302305742	0.093173566
2020-03-10T13:55:00	0.3473	6.014	171.0	0.943508036	1.295093015	0.028810890	0.297236639	0.091611219
2020-03-10T14:00:00	0.3478	6.029	171.0	0.945066182	1.297853641	0.028904082	0.298198083	0.091907545
2020-03-10T14:05:00	0.3487	6.039	172.0	0.947841404	1.302776276	0.029070484	0.299914827	0.092436662
2020-03-10T14:10:00	0.3513	6.047	172.0	0.955782265	1.316901801	0.029549582	0.304857592	0.093960071
2020-03-10T14:15:00	0.3469	6.058	172.0	0.942428942	1.293182486	0.028746449	0.296571811	0.091406312
2020-03-10T14:20:00	0.3447	6.074	172.0	0.935753301	1.281387673	0.028349589	0.292477480	0.090144400
2020-03-10T14:25:00	0.3436	6.088	173.0	0.932428876	1.275529570	0.028153106	0.290450405	0.089519636
2020-03-10T14:30:00	0.3503	6.103	172.0	0.952578845	1.311196257	0.029355780	0.302858175	0.093343831
2020-03-10T14:35:00	0.3479	6.117	173.0	0.945310798	1.298287244	0.028918727	0.298349180	0.091954115
2020-03-10T14:40:00	0.3469	6.134	173.0	0.942299007	1.292952509	0.028738695	0.296491814	0.091381657
2020-03-10T14:45:00	0.3511	6.148	173.0	0.955114851	1.315712284	0.029509146	0.304440416	0.093831493
2020-03-10T14:50:00	0.3502	6.156	173.0	0.952414350	1.310903541	0.029345848	0.302755705	0.093312249
2020-03-10T14:55:00	0.3500	6.163	173.0	0.951841131	1.309883705	0.029311251	0.302398777	0.093202240
2020-03-10T15:00:00	0.3488	6.170	173.0	0.948225531	1.303458206	0.029093559	0.300152883	0.092510034
2020-03-10T15:05:00	0.3459	6.177	173.0	0.939424960	1.287869729	0.028567483	0.294725453	0.090837247
2020-03-10T15:10:00	0.3490	6.183	173.0	0.948904000	1.304663013	0.029134340	0.300573610	0.092639706
2020-03-10T15:15:00	0.3464	6.189	172.0	0.940714760	1.290149791	0.028644247	0.295517421	0.091081339
2020-03-10T15:20:00	0.3499	6.190	173.0	0.951407401	1.309112245	0.029285089	0.302128862	0.093119049
2020-03-10T15:25:00	0.3466	6.190	173.0	0.941394484	1.291352013	0.028684749	0.295935266	0.091210123
2020-03-10T15:30:00	0.3497	6.194	173.0	0.950868937	1.308154747	0.029252627	0.301793958	0.093015829
2020-03-10T15:35:00	0.3520	6.197	173.0	0.957893144	1.320666749	0.029677679	0.306179140	0.094367385
2020-03-10T15:40:00	0.3482	6.200	172.0	0.946374056	1.300172617	0.028982435	0.299006442	0.092156689
2020-03-10T15:45:00	0.3486	6.203	173.0	0.947626727	1.302395228	0.029057593	0.299781832	0.092395672
2020-03-10T15:50:00	0.3502	6.206	173.0	0.952528915	1.311107405	0.029352765	0.302827070	0.093334244
2020-03-10T15:55:00	0.3523	6.208	173.0	0.958943223	1.322541235	0.029741518	0.306837755	0.094570376
2020-03-10T16:00:00	0.3509	6.210	173.0	0.954422374	1.314478543	0.029467224	0.304007913	0.093698191
2020-03-10T16:05:00	0.3480	6.211	173.0	0.945853516	1.299249461	0.028951236	0.298684564	0.092057483
2020-03-10T16:10:00	0.3515	6.212	173.0	0.956446680	1.318086393	0.029589868	0.305273213	0.094088169
2020-03-10T16:15:00	0.3527	6.211	173.0	0.960038713	1.324497894	0.029808200	0.307525699	0.094782407
2020-03-10T16:20:00	0.3579	6.209	173.0	0.975737619	1.352662865	0.030773029	0.317479664	0.097850316
2020-03-10T16:25:00	0.3522	6.207	173.0	0.958418853	1.321605057	0.029709629	0.306508768	0.094468979
2020-03-10T16:30:00	0.3571	6.205	173.0	0.973216577	1.348124149	0.030616922	0.315869141	0.097353937
2020-03-10T16:35:00	0.3563	6.204	173.0	0.971047626	1.344224154	0.030482975	0.314487239	0.096928021
2020-03-10T16:40:00	0.3532	6.201	174.0	0.961603646	1.327295001	0.029903602	0.308509947	0.095085762
2020-03-10T16:45:00	0.3516	6.198	174.0	0.956696049	1.318531102	0.029604996	0.305429286	0.094136272
2020-03-10T16:50:00	0.3551	6.193	174.0	0.967261162	1.337426422	0.030249930	0.312082951	0.096186997
2020-03-10T16:55:00	0.3526	6.189	174.0	0.959629812	1.323767421	0.029783300	0.307268817	0.094703234
2020-03-10T17:00:00	0.3537	6.183	174.0	0.962915812	1.329642110	0.029983727	0.309336584	0.095340539
2020-03-10T17:05:00	0.3536	6.179	174.0	0.962864738	1.329550721	0.029980606	0.309304385	0.095330615
2020-03-10T17:10:00	0.3560	6.173	174.0	0.970085402	1.342495410	0.030423658	0.313875271	0.096739407
2020-03-10T17:15:00	0.3566	6.167	174.0	0.971850364	1.345667037	0.030532511	0.314998288	0.097085532
2020-03-10T17:20:00	0.3559	6.162	174.0	0.969680692	1.341768564	0.030398729	0.313618079	0.096660138
2020-03-10T17:25:00	0.3545	6.159	174.0	0.965388949	1.334070320	0.030135073	0.310897992	0.095821780
2020-03-10T17:30:00	0.3555	6.156	174.0	0.968367499	1.339411189	0.030317918	0.312784366	0.096403179
2020-03-10T17:35:00	0.3554	6.153	174.0	0.968316493	1.339319657	0.030314781	0.312752009	0.096393207
2020-03-10T17:40:00	0.3506	6.149	173.0	0.953702585	1.313196622	0.029423683	0.303558717	0.093559745
2020-03-10T17:45:00	0.3534	6.148	174.0	0.962152823	1.328277132	0.029937122	0.308855766	0.095192347
2020-03-10T17:50:00	0.3537	6.146	174.0	0.963011571	1.329813460	0.029989579	0.309396958	0.095359147
2020-03-10T17:55:00	0.3530	6.144	174.0	0.960837217	1.325924822	0.029856857	0.308027689	0.094937125
2020-03-10T18:00:00	0.3546	6.143	173.0	0.965637773	1.334516167	0.030150324	0.311055331	0.095870274
2020-03-10T18:05:00	0.3563	6.139	173.0	0.971038062	1.344206967	0.030482386	0.314481153	0.096926146
2020-03-10T18:10:00	0.3579	6.138	173.0	0.975826711	1.352823370	0.030778554	0.317536663	0.097867884
2020-03-10T18:15:00	0.3535	6.135	173.0	0.962452924	1.328813943	0.029955448	0.309044833	0.095250619
2020-03-10T18:20:00	0.3536	6.131	174.0	0.962705122	1.329265132	0.029970853	0.309203770	0.095299605
2020-03-10T18:25:00	0.3535	6.132	173.0	0.962350763	1.328631191	0.029949208	0.308980463	0.095230779
2020-03-10T18:30:00	0.3527	6.131	173.0	0.959872593	1.324201114	0.029798082	0.307421324	0.094750238
2020-03-10T18:35:00	0.3549	6.130	173.0	0.966795574	1.336591504	0.030221344	0.311788034	0.096096100
2020-03-10T18:40:00	0.3517	6.126	173.0	0.957038102	1.319141195	0.029625754	0.305643441	0.094202277
2020-03-10T18:45:00	0.3573	6.123	173.0	0.973958397	1.349459045	0.030662810	0.316342560	0.097499849
2020-03-10T18:50:00	0.3548	6.121	173.0	0.966339508	1.335773862	0.030193357	0.311499301	0.096007110
2020-03-10T18:55:00	0.3572	6.119	173.0	0.973554068	1.348731395	0.030637794	0.316084473	0.097420304
2020-03-10T19:00:00	0.3545	6.118	173.0	0.965328328	1.333961708	0.030131358	0.310859666	0.095809968
2020-03-10T19:05:00	0.3536	6.118	173.0	0.962851960	1.329527859	0.029979825	0.309296330	0.095328133
2020-03-10T19:10:00	0.3537	6.120	173.0	0.963104133	1.329979099	0.029995236	0.309455324	0.095377136
2020-03-10T19:15:00	0.3533	6.119	173.0	0.961839920	1.327717510	0.029918021	0.308658703	0.095131610
2020-03-10T19:20:00	0.3555	6.118	173.0	0.968456751	1.339571356	0.030323406	0.312840990	0.096420631
2020-03-10T19:25:00	0.3526	6.118	173.0	0.959613828	1.323738870	0.029782327	0.307258778	0.094700139
2020-03-10T19:30:00	0.3508	6.117	173.0	0.954096074	1.313897351	0.029447481	0.303804234	0.093635415
2020-03-10T19:35:00	0.3519	6.116	173.0	0.957690173	1.320304549	0.029665348	0.306051927	0.094328176
2020-03-10T19:40:00	0.3513	6.114	173.0	0.955816775	1.316963319	0.029551674	0.304879172	0.093966722
2020-03-10T19:45:00	0.3529	6.115	173.0	0.960623223	1.325542355	0.029843813	0.307893114	0.094895648
2020-03-10T19:50:00	0.3556	6.123	173.0	0.968756391	1.340109136	0.030341836	0.313031133	0.096479235
2020-03-10T19:55:00	0.3541	6.125	173.0	0.964160533	1.331870087	0.030059845	0.310121882	0.095582576
2020-03-10T20:00:00	0.3538	6.127	173.0	0.963199887	1.330150458	0.030001089	0.309515709	0.095395747
2020-03-10T20:05:00	0.3561	6.128	173.0	0.970419962	1.343096385	0.030444275	0.314087973	0.096804964
2020-03-10T20:10:00	0.3537	6.132	173.0	0.963097745	1.329967667	0.029994846	0.309451296	0.095375895
2020-03-10T20:15:00	0.3571	6.141	173.0	0.973343923	1.348353269	0.030624797	0.315950383	0.097378976
2020-03-10T20:20:00	0.3521	6.144	173.0	0.958140808	1.321108757	0.029692728	0.306334404	0.094415239
2020-03-10T20:25:00	0.3535	6.149	173.0	0.962337984	1.328608332	0.029948428	0.308972412	0.095228298
2020-03-10T20:30:00	0.3539	6.148	173.0	0.963803107	1.331230166	0.030037977	0.309896266	0.095513039
2020-03-10T20:35:00	0.3527	6.156	173.0	0.960112164	1.324629125	0.029812673	0.307571856	0.094796633
2020-03-10T20:40:00	0.3537	6.164	173.0	0.963094550	1.329961951	0.029994651	0.309449282	0.095375274
2020-03-10T20:45:00	0.3542	6.167	173.0	0.964559403	1.332584351	0.030084260	0.310373767	0.095660209
2020-03-10T20:50:00	0.3575	6.166	173.0	0.974499554	1.350433179	0.030696310	0.316688171	0.097606370
2020-03-10T20:55:00	0.3552	6.166	173.0	0.967487538	1.337832445	0.030263834	0.312226401	0.096231209
2020-03-10T21:00:00	0.3560	6.168	173.0	0.970161862	1.342632746	0.030428369	0.313923875	0.096754387
2020-03-10T21:05:00	0.3565	6.177	173.0	0.971624194	1.345260446	0.030518550	0.314854254	0.097041139
2020-03-10T21:10:00	0.3573	6.185	173.0	0.973993406	1.349522055	0.030664977	0.316364912	0.097506738
2020-03-10T21:15:00	0.3580	6.191	173.0	0.976058984	1.353241862	0.030792960	0.317685294	0.097913693
2020-03-10T21:20:00	0.3576	6.196	173.0	0.974798754	1.350971887	0.030714840	0.316879347	0.097665292
2020-03-10T21:25:00	0.3564	6.207	173.0	0.971117692	1.344350070	0.030487297	0.314531826	0.096941764
2020-03-10T21:30:00	0.3566	6.218	173.0	0.971974565	1.345890337	0.030540179	0.315077401	0.097109915
2020-03-10T21:35:00	0.3534	6.227	173.0	0.962229431	1.328414157	0.029941799	0.308904023	0.095207220
2020-03-10T21:40:00	0.3561	6.233	173.0	0.970359416	1.342987617	0.030440543	0.314049474	0.096793098
2020-03-10T21:45:00	0.3529	6.229	173.0	0.960610439	1.325519508	0.029843033	0.307885075	0.094893170
2020-03-10T21:50:00	0.3556	6.233	173.0	0.968743632	1.340086235	0.030341052	0.313023036	0.096476740
2020-03-10T21:55:00	0.3553	6.234	174.0	0.967784059	1.338364352	0.030282053	0.312414356	0.096289139
2020-03-10T22:00:00	0.3560	6.244	174.0	0.970155485	1.342621291	0.030427976	0.313919821	0.096753137
2020-03-10T22:05:00	0.3554	6.252	173.0	0.968140657	1.339004140	0.030303970	0.312640477	0.096358831
2020-03-10T22:10:00	0.3461	6.258	173.0	0.939982247	1.288854689	0.028600637	0.295067495	0.090942667
2020-03-10T22:15:00	0.3528	6.269	173.0	0.960468468	1.325265793	0.029834381	0.307795813	0.094865659
2020-03-10T22:20:00	0.3487	6.278	174.0	0.947809653	1.302719916	0.029068577	0.299895155	0.092430599
2020-03-10T22:25:00	0.3476	6.290	174.0	0.944565486	1.296966290	0.028874117	0.297888942	0.091812265
2020-03-10T22:30:00	0.3489	6.301	174.0	0.948324496	1.303633918	0.029099505	0.300214232	0.092528942
2020-03-10T22:35:00	0.3485	6.301	174.0	0.947212236	1.301659633	0.029032712	0.299525141	0.092316558
2020-03-10T22:40:00	0.3445	6.317	174.0	0.935122740	1.280275738	0.028312262	0.292092388	0.090025711
2020-03-10T22:45:00	0.3516	6.322	174.0	0.956544654	1.318261107	0.029595811	0.305334527	0.094107067
2020-03-10T22:50:00	0.3434	6.337	174.0	0.931668488	1.274191119	0.028108272	0.289987864	0.089377076
2020-03-10T22:55:00	0.3481	6.352	174.0	0.946111053	1.299706159	0.028966669	0.298843788	0.092106558
2020-03-10T23:00:00	0.3404	6.360	174.0	0.922395923	1.257912992	0.027564757	0.284380512	0.087648836
2020-03-10T23:05:00	0.3421	6.371	174.0	0.927705309	1.267223832	0.027875243	0.287583747	0.088636104
2020-03-10T23:10:00	0.3447	6.387	174.0	0.935756171	1.281392735	0.028349759	0.292479233	0.090144940
2020-03-10T23:15:00	0.3446	6.402	174.0	0.935251142	1.280502133	0.028319861	0.292170782	0.090049873
2020-03-10T23:20:00	0.3403	6.419	175.0	0.922206988	1.257582152	0.027553744	0.284266893	0.087613817
2020-03-10T23:25:00	0.3414	6.427	175.0	0.925680784	1.263670394	0.027756622	0.286359957	0.088258920
2020-03-10T23:30:00	0.3399	6.435	174.0	0.920887074	1.255271807	0.027476875	0.283473852	0.087369394
2020-03-10T23:35:00	0.3399	6.448	175.0	0.920993026	1.255457203	0.027483041	0.283537465	0.087389000
2020-03-10T23:40:00	0.3397	6.458	176.0	0.920486146	1.254570355	0.027453549	0.283233208	0.087295225
2020-03-10T23:45:00	0.3385	6.475	176.0	0.916606544	1.247790488	0.027228410	0.280910486	0.086579340
2020-03-10T23:50:00	0.3330	6.490	175.0	0.899807054	1.218594357	0.026265403	0.270975319	0.083517225
2020-03-10T23:55:00	0.3350	6.505	175.0	0.906069147	1.229446615	0.026622114	0.274655447	0.084651476
2020-03-11T00:00:00	0.3358	6.524	175.0	0.908327649	1.233369575	0.026751423	0.275989504	0.085062645
2020-03-11T00:05:00	0.3381	6.544	175.0	0.915496985	1.245854047	0.027164211	0.280248153	0.086375202
2020-03-11T00:10:00	0.3414	6.565	175.0	0.925715100	1.263730594	0.027758631	0.286380676	0.088265306
2020-03-11T00:15:00	0.3339	6.568	175.0	0.902494885	1.223247921	0.026418184	0.272551534	0.084003030
2020-03-11T00:20:00	0.3360	6.580	175.0	0.909060093	1.234642832	0.026793434	0.276422918	0.085196228
2020-03-11T00:25:00	0.3340	6.599	175.0	0.903015550	1.224150149	0.026447836	0.272857453	0.084097317
2020-03-11T00:30:00	0.3341	6.611	176.0	0.903121976	1.224334598	0.026453900	0.272920007	0.084116597
2020-03-11T00:35:00	0.3329	6.625	176.0	0.899533558	1.218121219	0.026249884	0.270815219	0.083467881
2020-03-11T00:40:00	0.3367	6.639	175.0	0.911021237	1.238054486	0.026906099	0.277585262	0.085554474
2020-03-11T00:45:00	0.3342	6.648	176.0	0.903441236	1.224887979	0.026472093	0.273107708	0.084174448
2020-03-11T00:50:00	0.3338	6.664	176.0	0.902316515	1.222938892	0.026408030	0.272446776	0.083970742
2020-03-11T00:55:00	0.3356	6.674	176.0	0.907652524	1.232196401	0.026712733	0.275590342	0.084939620
2020-03-11T01:00:00	0.3300	6.689	176.0	0.890506502	1.202543682	0.025740535	0.265560352	0.081848280
2020-03-11T01:05:00	0.3337	6.703	176.0	0.902020179	1.222425552	0.026391165	0.272272785	0.083917117
2020-03-11T01:10:00	0.3315	6.703	176.0	0.895039881	1.210357252	0.025995638	0.268192202	0.082659441
2020-03-11T01:15:00	0.3298	6.703	176.0	0.889900504	1.201500649	0.025706540	0.265209630	0.081740184
2020-03-11T01:20:00	0.3291	6.709	176.0	0.887845198	1.197965629	0.025591427	0.264022033	0.081374155
2020-03-11T01:25:00	0.3297	6.732	176.0	0.889496453	1.200805394	0.025683887	0.264975929	0.081668155
2020-03-11T01:30:00	0.3323	6.745	176.0	0.897624360	1.214820303	0.026141697	0.269699065	0.083123871
2020-03-11T01:35:00	0.3321	6.759	176.0	0.897114511	1.213939370	0.026112847	0.269401430	0.083032137
2020-03-11T01:40:00	0.3206	6.763	176.0	0.861304678	1.152667769	0.024130556	0.248950498	0.076728961
2020-03-11T01:45:00	0.3297	6.773	176.0	0.889614784	1.201008991	0.025690520	0.265044359	0.081689245
2020-03-11T01:50:00	0.3331	6.779	176.0	0.900207162	1.219286658	0.026288115	0.271209632	0.083589443
2020-03-11T01:55:00	0.3264	6.792	176.0	0.879315264	1.183336357	0.025116739	0.259124769	0.079864770
2020-03-11T02:00:00	0.3278	6.803	176.0	0.883754508	1.190941490	0.025363168	0.261667127	0.080648350
2020-03-11T02:05:00	0.3251	6.815	176.0	0.875502499	1.176819011	0.024906149	0.256952145	0.079195147
2020-03-11T02:10:00	0.3264	6.823	176.0	0.879326837	1.183356159	0.025117380	0.259131379	0.079866808
2020-03-11T02:15:00	0.3252	6.838	176.0	0.875716829	1.177185018	0.024917961	0.257074008	0.079232706
2020-03-11T02:20:00	0.3282	6.848	177.0	0.885109868	1.193267068	0.025438671	0.262446079	0.080888430
2020-03-11T02:25:00	0.3244	6.859	176.0	0.873141195	1.172789442	0.024776218	0.255611671	0.078781999
2020-03-11T02:30:00	0.3229	6.858	177.0	0.868594240	1.165044528	0.024527077	0.253041333	0.077989796
2020-03-11T02:35:00	0.3209	6.866	177.0	0.862487604	1.154672910	0.024194660	0.249611849	0.076932796
2020-03-11T02:40:00	0.3203	6.874	176.0	0.860417962	1.151165568	0.024082565	0.248455386	0.076576363
2020-03-11T02:45:00	0.3191	6.882	177.0	0.856790549	1.145027812	0.023886790	0.246435607	0.075953848
2020-03-11T02:50:00	0.3229	6.892	177.0	0.868402733	1.164718747	0.024516614	0.252933390	0.077956527
2020-03-11T02:55:00	0.3229	6.905	176.0	0.868510092	1.164901376	0.024522479	0.252993900	0.077975177
2020-03-11T03:00:00	0.3187	6.917	177.0	0.855556402	1.142942328	0.023820382	0.245750490	0.075742688
2020-03-11T03:05:00	0.3219	6.923	177.0	0.865308344	1.159459443	0.024347897	0.251192770	0.077420051
2020-03-11T03:10:00	0.3210	6.939	177.0	0.862618369	1.154894643	0.024201752	0.249685016	0.076955347
2020-03-11T03:15:00	0.3200	6.947	177.0	0.859615387	1.149806533	0.024039174	0.248007723	0.076438389
2020-03-11T03:20:00	0.3201	6.958	177.0	0.859722987	1.149988702	0.024044989	0.248067714	0.076456879
2020-03-11T03:25:00	0.3205	6.967	177.0	0.861075011	1.152278618	0.024118121	0.248822208	0.076689421
2020-03-11T03:30:00	0.3183	6.973	177.0	0.854333512	1.140877243	0.023754680	0.245072656	0.075533773
2020-03-11T03:35:00	0.3213	6.981	176.0	0.863466807	1.156333697	0.024247795	0.250160033	0.077101752
2020-03-11T03:40:00	0.3176	6.985	177.0	0.852055595	1.137034192	0.023632561	0.243812775	0.075145465
2020-03-11T03:45:00	0.3262	6.985	177.0	0.878884074	1.182598629	0.025092874	0.258878557	0.079788886
2020-03-11T03:50:00	0.3363	6.998	176.0	0.909835451	1.235991234	0.026837946	0.276882138	0.085337764
2020-03-11T03:55:00	0.3347	6.992	176.0	0.905022761	1.227630680	0.026562322	0.274038583	0.084461353
2020-03-11T04:00:00	0.3351	6.986	175.0	0.906359402	1.229950513	0.026638713	0.274826693	0.084704256
2020-03-11T04:05:00	0.3379	6.980	175.0	0.914711009	1.244483029	0.027118785	0.279779503	0.086230760
2020-03-11T04:10:00	0.3360	6.971	175.0	0.908933323	1.234422424	0.026786160	0.276347876	0.085173099
2020-03-11T04:15:00	0.3364	6.962	175.0	0.910219663	1.236659615	0.026860018	0.277109852	0.085407948
2020-03-11T04:20:00	0.3338	6.954	175.0	0.902281231	1.222877765	0.026406021	0.272426056	0.083964356
2020-03-11T04:25:00	0.3409	6.948	175.0	0.924135021	1.260959865	0.027666243	0.285427531	0.087971537
2020-03-11T04:30:00	0.3406	6.943	175.0	0.923273491	1.259450124	0.027615942	0.284908581	0.087811592
2020-03-11T04:35:00	0.3387	6.938	175.0	0.917201451	1.248829214	0.027262866	0.281265966	0.086688902
2020-03-11T04:40:00	0.3427	6.932	175.0	0.929507293	1.270389901	0.027981063	0.288675468	0.088972583
2020-03-11T04:45:00	0.3421	6.925	175.0	0.927729353	1.267266058	0.027876654	0.287598299	0.088640589
2020-03-11T04:50:00	0.3401	6.917	175.0	0.921664036	1.256631585	0.027522109	0.283940523	0.087513227
2020-03-11T04:55:00	0.3419	6.911	175.0	0.927231532	1.266391917	0.027847459	0.287297096	0.088547755
2020-03-11T05:00:00	0.3439	6.904	176.0	0.933096845	1.276705791	0.028192523	0.290857067	0.089644973
2020-03-11T05:05:00	0.3460	6.895	175.0	0.939563693	1.288114901	0.028575734	0.294810581	0.090863484
2020-03-11T05:10:00	0.3471	6.885	175.0	0.942974013	1.294147393	0.028778989	0.296907524	0.091509782
2020-03-11T05:15:00	0.3455	6.875	175.0	0.938152131	1.285621203	0.028491841	0.293945073	0.090596726
2020-03-11T05:20:00	0.3430	6.866	175.0	0.930574394	1.272266224	0.028043833	0.289323055	0.089172175
2020-03-11T05:25:00	0.3471	6.857	174.0	0.942839607	1.293909437	0.028770963	0.296824723	0.091484262
2020-03-11T05:30:00	0.3445	6.849	174.0	0.934965317	1.279998197	0.028302948	0.291996293	0.089996093
2020-03-11T05:35:00	0.3455	6.839	174.0	0.938074413	1.285483959	0.028487226	0.293897461	0.090582052
2020-03-11T05:40:00	0.3478	6.830	174.0	0.945142525	1.297988959	0.028908652	0.298245235	0.091922078
2020-03-11T05:45:00	0.3427	6.821	174.0	0.929636359	1.270616785	0.027988651	0.288753751	0.088996710
2020-03-11T05:50:00	0.3502	6.813	173.0	0.952559046	1.311161023	0.029354585	0.302845840	0.093340029
2020-03-11T05:55:00	0.3446	6.805	173.0	0.935249759	1.280499694	0.028319779	0.292169938	0.090049612
2020-03-11T06:00:00	0.3491	6.798	173.0	0.949022559	1.304873591	0.029141469	0.300647164	0.092662376
2020-03-11T06:05:00	0.3517	6.791	173.0	0.956982861	1.319042658	0.029622401	0.305608850	0.094191616
2020-03-11T06:10:00	0.3481	6.783	173.0	0.946092049	1.299672458	0.028965530	0.298832038	0.092102936
2020-03-11T06:15:00	0.3493	6.774	173.0	0.949801133	1.306256785	0.029188313	0.301130441	0.092811326
2020-03-11T06:20:00	0.3485	6.766	173.0	0.947118899	1.301494011	0.029027111	0.299467356	0.092298747
2020-03-11T06:25:00	0.3519	6.758	173.0	0.957512849	1.319988147	0.029654578	0.305940814	0.094293930
2020-03-11T06:30:00	0.3485	6.750	172.0	0.947232337	1.301695303	0.029033919	0.299537587	0.092320393
2020-03-11T06:35:00	0.3522	6.744	173.0	0.958536826	1.321815656	0.029716802	0.306582766	0.094491786
2020-03-11T06:40:00	0.3552	6.737	172.0	0.967690401	1.338196338	0.030276298	0.312354982	0.096270839
2020-03-11T06:45:00	0.3591	6.732	172.0	0.979240699	1.358979619	0.030990688	0.319725218	0.098542417
2020-03-11T06:50:00	0.3584	6.726	172.0	0.977182124	1.355266180	0.030862676	0.318404543	0.098135372
2020-03-11T06:55:00	0.3564	6.721	172.0	0.971190087	1.344480177	0.030491763	0.314577900	0.096955964
2020-03-11T07:00:00	0.3535	6.717	172.0	0.962460653	1.328827770	0.029955920	0.309049703	0.095252120
2020-03-11T07:05:00	0.3574	6.713	172.0	0.974328059	1.350124441	0.030685691	0.316578622	0.097572606
2020-03-11T07:10:00	0.3555	6.709	172.0	0.968634699	1.339890719	0.030334351	0.312953903	0.096455432
2020-03-11T07:15:00	0.3583	6.707	172.0	0.976859238	1.354684097	0.030842625	0.318197676	0.098071614
2020-03-11T07:20:00	0.3551	6.704	172.0	0.967233165	1.337376209	0.030248211	0.312065212	0.096181529
2020-03-11T07:25:00	0.3553	6.704	172.0	0.967895415	1.338564129	0.030288896	0.312484958	0.096310899
2020-03-11T07:30:00	0.3567	6.706	172.0	0.972189955	1.346277620	0.030553480	0.315214624	0.097152208
2020-03-11T07:35:00	0.3570	6.703	172.0	0.973153913	1.348011410	0.030613047	0.315829168	0.097341617
2020-03-11T07:40:00	0.3579	6.704	172.0	0.975629488	1.352468068	0.030766324	0.317410492	0.097828996
2020-03-11T07:45:00	0.3605	6.703	172.0	0.983538363	1.366745146	0.031258902	0.322492329	0.099395268
2020-03-11T07:50:00	0.3613	6.704	172.0	0.986007716	1.371215034	0.031413603	0.324088351	0.099887177
2020-03-11T07:55:00	0.3649	6.705	172.0	0.996905494	1.391011213	0.032101496	0.331185211	0.102074499
2020-03-11T08:00:00	0.3656	6.706	172.0	0.999066306	1.394949905	0.032238894	0.332602722	0.102511389
2020-03-11T08:05:00	0.3631	6.712	172.0	0.991600460	1.381360251	0.031765577	0.327719598	0.101006363
2020-03-11T08:10:00	0.3627	6.715	172.0	0.990150581	1.378727305	0.031674117	0.326776026	0.100715545
2020-03-11T08:15:00	0.3664	6.717	172.0	1.001337953	1.399095453	0.032383698	0.334096641	0.102971829
2020-03-11T08:20:00	0.3651	6.719	172.0	0.997486402	1.392069644	0.032138401	0.331565955	0.102191848
2020-03-11T08:25:00	0.3678	6.721	172.0	1.005653861	1.406985231	0.032659826	0.336945402	0.103849845
2020-03-11T08:30:00	0.3689	6.722	172.0	1.009009874	1.413132619	0.032875460	0.339170062	0.104535507
2020-03-11T08:35:00	0.3654	6.725	172.0	0.998255860	1.393472114	0.032187321	0.332070661	0.102347403
2020-03-11T08:40:00	0.3662	6.726	172.0	1.000716469	1.397960810	0.032344045	0.333687553	0.102845745
2020-03-11T08:45:00	0.3631	6.728	172.0	0.991447036	1.381081541	0.031755891	0.327619678	0.100975566
2020-03-11T08:50:00	0.3635	6.733	172.0	0.992707587	1.383372122	0.031835516	0.328441146	0.101228751
2020-03-11T08:55:00	0.3667	6.736	172.0	1.002386527	1.401010674	0.032450662	0.334787502	0.103184759
2020-03-11T09:00:00	0.3590	6.750	172.0	0.978947877	1.358451155	0.030972461	0.319537171	0.098484459
2020-03-11T09:05:00	0.3623	6.766	173.0	0.988960312	1.376567307	0.031599145	0.326002556	0.100477154
2020-03-11T09:10:00	0.3614	6.784	173.0	0.986303555	1.371750937	0.031432166	0.324279860	0.099946202
2020-03-11T09:15:00	0.3612	6.796	173.0	0.985756635	1.370760276	0.031397853	0.323925866	0.099837098
2020-03-11T09:20:00	0.3640	6.810	173.0	0.994248132	1.386173550	0.031932979	0.329446660	0.101538660
2020-03-11T09:25:00	0.3663	6.824	173.0	1.001220313	1.398880650	0.032376190	0.334019183	0.102947956
2020-03-11T09:30:00	0.3655	6.827	173.0	0.998571395	1.394047395	0.032207395	0.332277753	0.102411231
2020-03-11T09:35:00	0.3712	6.832	173.0	1.015728648	1.425472311	0.033309585	0.343648853	0.105915914
2020-03-11T09:40:00	0.3680	6.839	173.0	1.006192492	1.407971141	0.032694380	0.337301894	0.103959720
2020-03-11T09:45:00	0.3657	6.844	173.0	0.999340652	1.395450300	0.032256362	0.332782941	0.102566934
2020-03-11T09:50:00	0.3669	6.851	174.0	1.003002081	1.402135476	0.032490010	0.335193442	0.103309874
2020-03-11T09:55:00	0.3682	6.856	174.0	1.006660296	1.408827635	0.032724408	0.337611683	0.104055200
2020-03-11T10:00:00	0.3668	6.860	174.0	1.002513319	1.401242332	0.032458765	0.334871095	0.103210524
2020-03-11T10:05:00	0.3696	6.869	174.0	1.011089973	1.416948283	0.033009518	0.340553107	0.104961775
2020-03-11T10:10:00	0.3617	6.883	174.0	0.987217580	1.373407189	0.031489557	0.324871950	0.100128690
2020-03-11T10:15:00	0.3645	6.895	175.0	0.995524940	1.388497103	0.032013885	0.330281351	0.101795920
2020-03-11T10:20:00	0.3683	6.903	175.0	1.007117309	1.409664576	0.032753758	0.337914482	0.104148525
2020-03-11T10:25:00	0.3707	6.918	175.0	1.014187200	1.422637449	0.033209701	0.342618360	0.105598306
2020-03-11T10:30:00	0.3686	6.933	175.0	1.008067810	1.411405896	0.032814848	0.338544740	0.104342777
2020-03-11T10:35:00	0.3643	6.941	175.0	0.995024529	1.387586262	0.031982162	0.329954074	0.101695050
2020-03-11T10:40:00	0.3627	6.963	175.0	0.990383346	1.379149866	0.031688790	0.326927404	0.100762201
2020-03-11T10:45:00	0.3705	6.983	174.0	1.013689024	1.421721746	0.033177456	0.342285694	0.105495775
2020-03-11T10:50:00	0.3686	7.002	174.0	1.007868886	1.411041396	0.032802058	0.338412783	0.104302106
2020-03-11T10:55:00	0.3617	7.020	174.0	0.987295327	1.373548107	0.031494441	0.324922342	0.100144221
2020-03-11T11:00:00	0.3695	7.040	175.0	1.010618251	1.416082607	0.032979089	0.340239182	0.104865020
2020-03-11T11:05:00	0.3682	7.058	175.0	1.006894654	1.409256796	0.032739457	0.337766940	0.104103051
2020-03-11T11:10:00	0.3643	7.088	175.0	0.995051452	1.387635262	0.031983869	0.329971678	0.101700476
2020-03-11T11:15:00	0.3638	7.125	175.0	0.993421540	1.384670139	0.031880663	0.328906927	0.101372309
2020-03-11T11:20:00	0.3653	7.159	176.0	0.998109970	1.393206159	0.032178043	0.331974934	0.102317899
2020-03-11T11:25:00	0.3666	7.180	176.0	1.001892010	1.400107308	0.032419072	0.334461585	0.103084309
2020-03-11T11:30:00	0.3654	7.193	176.0	0.998461270	1.393846606	0.032200388	0.332205468	0.102388952
2020-03-11T11:35:00	0.3689	7.208	176.0	1.008846051	1.412832283	0.032864915	0.339061272	0.104501977
2020-03-11T11:40:00	0.3640	7.233	176.0	0.994300728	1.386269234	0.031936310	0.329481020	0.101549250
2020-03-11T11:45:00	0.3665	7.270	177.0	1.001692792	1.399743449	0.032406350	0.334330339	0.103043857
2020-03-11T11:50:00	0.3644	7.301	177.0	0.995254158	1.388004201	0.031996717	0.330104233	0.101741330
2020-03-11T11:55:00	0.3651	7.323	177.0	0.997535483	1.392159085	0.032141520	0.331598136	0.102201766
2020-03-11T12:00:00	0.3627	7.350	177.0	0.990186749	1.378792961	0.031676397	0.326799545	0.100722794
2020-03-11T12:05:00	0.3593	7.371	177.0	0.980107991	1.360545327	0.031044710	0.320282552	0.098714193
2020-03-11T12:10:00	0.3632	7.394	177.0	0.991743442	1.381620012	0.031774604	0.327812733	0.101035068
2020-03-11T12:15:00	0.3622	7.419	177.0	0.988605680	1.375924014	0.031576827	0.325772307	0.100406189
2020-03-11T12:20:00	0.3668	7.435	177.0	1.002620819	1.401438753	0.032465636	0.334941978	0.103232370
2020-03-11T12:25:00	0.3653	7.450	178.0	0.997988118	1.392984042	0.032170294	0.331894993	0.102293260
2020-03-11T12:30:00	0.3620	7.473	178.0	0.988229751	1.375242218	0.031553179	0.325528331	0.100330993
2020-03-11T12:35:00	0.3586	7.500	178.0	0.977844075	1.356459825	0.030903807	0.318828880	0.098266157
2020-03-11T12:40:00	0.3616	7.522	178.0	0.987074783	1.373148382	0.031480587	0.324779408	0.100100168
2020-03-11T12:45:00	0.3634	7.545	178.0	0.992372612	1.382763282	0.031814346	0.328222738	0.101161436
2020-03-11T12:50:00	0.3598	7.570	179.0	0.981393612	1.362867555	0.031124887	0.321109718	0.098969134
2020-03-11T12:55:00	0.3605	7.590	179.0	0.983682581	1.367006040	0.031267925	0.322585419	0.099423959
2020-03-11T13:00:00	0.3589	7.608	179.0	0.978726579	1.358051826	0.030958690	0.319395096	0.098440671
2020-03-11T13:05:00	0.3586	7.625	180.0	0.977996738	1.356735171	0.030913297	0.318926789	0.098296334
2020-03-11T13:10:00	0.3602	7.653	179.0	0.982702658	1.365233715	0.031206644	0.321953193	0.099229101
2020-03-11T13:15:00	0.3559	7.676	179.0	0.969579122	1.341586173	0.030392474	0.313553550	0.096640249
2020-03-11T13:20:00	0.3600	7.691	179.0	0.982149860	1.364234308	0.031172104	0.321596849	0.099119272
2020-03-11T13:25:00	0.3599	7.705	179.0	0.981722502	1.363461885	0.031145416	0.321321519	0.099034413
2020-03-11T13:30:00	0.3577	7.718	179.0	0.975252718	1.351789411	0.030742968	0.317169535	0.097754731
2020-03-11T13:35:00	0.3556	7.736	179.0	0.968772751	1.340138501	0.030342843	0.313041517	0.096482436
2020-03-11T13:40:00	0.3563	7.750	179.0	0.971068742	1.344262101	0.030484278	0.314500676	0.096932163
2020-03-11T13:45:00	0.3524	7.767	180.0	0.959122238	1.322860897	0.029752408	0.306950113	0.094605006
2020-03-11T13:50:00	0.3583	7.774	179.0	0.976865947	1.354696191	0.030843042	0.318201974	0.098072939
2020-03-11T13:55:00	0.3576	7.786	179.0	0.974926496	1.351201913	0.030722754	0.316960989	0.097690455
2020-03-11T14:00:00	0.3628	7.804	179.0	0.990494334	1.379351370	0.031695788	0.326999599	0.100784452
2020-03-11T14:05:00	0.3638	7.821	179.0	0.993681361	1.385142633	0.031897102	0.329076526	0.101424581
2020-03-11T14:10:00	0.3639	7.842	179.0	0.993857203	1.385462444	0.031908231	0.329191336	0.101459967
2020-03-11T14:15:00	0.3625	7.863	180.0	0.989516023	1.377575595	0.031634135	0.326363543	0.100588414
2020-03-11T14:20:00	0.3631	7.894	180.0	0.991499360	1.381176591	0.031759194	0.327653753	0.100986069
2020-03-11T14:25:00	0.3586	7.916	179.0	0.977799551	1.356379526	0.030901040	0.318800328	0.098257357
2020-03-11T14:30:00	0.3683	7.936	180.0	1.007180481	1.409780280	0.032757816	0.337956350	0.104161429
2020-03-11T14:35:00	0.3648	7.947	180.0	0.996541422	1.390348029	0.032078378	0.330946715	0.102000992
2020-03-11T14:40:00	0.3665	7.954	180.0	1.001827193	1.399988920	0.032414932	0.334418880	0.103071147
2020-03-11T14:45:00	0.3664	7.959	180.0	1.001401859	1.399212147	0.032387777	0.334138722	0.102984799
2020-03-11T14:50:00	0.3669	7.961	180.0	1.002778900	1.401727615	0.032475740	0.335046228	0.103264501
2020-03-11T14:55:00	0.3701	7.965	180.0	1.012553724	1.419635835	0.033104039	0.341528263	0.105262327
2020-03-11T15:00:00	0.3665	7.970	180.0	1.001627972	1.399625068	0.032402211	0.334287641	0.103030698
2020-03-11T15:05:00	0.3668	7.977	180.0	1.002704606	1.401591854	0.032470991	0.334997231	0.103249400
2020-03-11T15:10:00	0.3677	7.983	180.0	1.005282021	1.406304777	0.032635983	0.336699425	0.103774033
2020-03-11T15:15:00	0.3663	7.985	180.0	1.000952761	1.398392165	0.032359118	0.333843057	0.102893672
2020-03-11T15:20:00	0.3645	7.984	180.0	0.995716548	1.388845929	0.032026037	0.330406715	0.101834559
2020-03-11T15:25:00	0.3648	7.984	180.0	0.996493931	1.390261530	0.032075363	0.330915611	0.101991405
2020-03-11T15:30:00	0.3692	7.989	180.0	1.009882959	1.414733670	0.032931691	0.339750182	0.104714306
2020-03-11T15:35:00	0.3696	7.991	180.0	1.010957466	1.416705092	0.033000968	0.340464908	0.104934591
2020-03-11T15:40:00	0.3652	7.992	180.0	0.997622540	1.392317737	0.032147053	0.331655219	0.102219360
2020-03-11T15:45:00	0.3657	7.988	180.0	0.999301432	1.395378759	0.032253864	0.332757173	0.102558992
2020-03-11T15:50:00	0.3675	7.987	180.0	1.004583702	1.405027238	0.032591234	0.336237753	0.103631741
2020-03-11T15:55:00	0.3713	7.983	180.0	1.016150966	1.426249392	0.033336981	0.343931490	0.106003025
2020-03-11T16:00:00	0.3673	7.982	180.0	1.004033811	1.404021571	0.032556021	0.335874462	0.103519771
2020-03-11T16:05:00	0.3651	7.979	180.0	0.997457621	1.392017196	0.032136572	0.331547085	0.102186032
2020-03-11T16:10:00	0.3664	7.979	180.0	1.001399647	1.399208108	0.032387636	0.334137266	0.102984350
2020-03-11T16:15:00	0.3706	7.977	180.0	1.014033350	1.422354630	0.033199741	0.342515604	0.105566636
2020-03-11T16:20:00	0.3704	7.971	180.0	1.013468619	1.421316694	0.033163195	0.342138573	0.105450431
2020-03-11T16:25:00	0.3728	7.965	180.0	1.020686463	1.434605711	0.033632006	0.346975202	0.106941127
2020-03-11T16:30:00	0.3702	7.958	180.0	1.012638568	1.419791677	0.033109522	0.341584834	0.105279763
2020-03-11T16:35:00	0.3702	7.950	180.0	1.012672946	1.419854825	0.033111744	0.341607758	0.105286829
2020-03-11T16:40:00	0.3719	7.943	180.0	1.017797853	1.429281367	0.033443937	0.345034931	0.106343117
2020-03-11T16:45:00	0.3726	7.933	180.0	1.019926477	1.433204110	0.033582467	0.346464122	0.106783607
2020-03-11T16:50:00	0.3720	7.922	180.0	1.018165770	1.429959071	0.033467857	0.345281716	0.106419178
2020-03-11T16:55:00	0.3683	7.911	180.0	1.007113843	1.409658227	0.032753535	0.337912185	0.104147817
2020-03-11T17:00:00	0.3771	7.901	180.0	1.033467541	1.458260774	0.034471358	0.355634648	0.109610053
2020-03-11T17:05:00	0.3749	7.891	180.0	1.026937417	1.446155170	0.034041043	0.351195163	0.108241760
2020-03-11T17:10:00	0.3748	7.879	179.0	1.026673059	1.445665969	0.034023687	0.351016108	0.108186574
2020-03-11T17:15:00	0.3752	7.867	180.0	1.027603109	1.447387348	0.034084769	0.351646277	0.108380798
2020-03-11T17:20:00	0.3736	7.852	180.0	1.022857668	1.438613021	0.033773761	0.348437671	0.107391874
2020-03-11T17:25:00	0.3765	7.839	179.0	1.031551103	1.454703786	0.034344751	0.354328468	0.109207475
2020-03-11T17:30:00	0.3798	7.827	179.0	1.041417192	1.473053664	0.034999382	0.361082169	0.111289031
2020-03-11T17:35:00	0.3811	7.818	179.0	1.045318206	1.480335190	0.035260168	0.363772656	0.112118266
2020-03-11T17:40:00	0.3798	7.803	180.0	1.041485480	1.473181001	0.035003937	0.361129168	0.111303517
2020-03-11T17:45:00	0.3783	7.786	179.0	1.037053534	1.464926085	0.034708976	0.358086110	0.110365617
2020-03-11T17:50:00	0.3768	7.770	179.0	1.032616941	1.456681587	0.034415132	0.355054570	0.109431267
2020-03-11T17:55:00	0.3781	7.755	179.0	1.036526067	1.463944897	0.034673966	0.357724919	0.110254294
2020-03-11T18:00:00	0.3808	7.738	179.0	1.044299383	1.478432057	0.035191952	0.363068884	0.111901356
2020-03-11T18:05:00	0.3816	7.724	179.0	1.046711918	1.482940239	0.035353608	0.364736652	0.112415379
2020-03-11T18:10:00	0.3796	7.709	179.0	1.040797531	1.471898382	0.034958059	0.360655845	0.111157634
2020-03-11T18:15:00	0.3779	7.693	178.0	1.035768933	1.462536956	0.034623748	0.357206825	0.110094613
2020-03-11T18:20:00	0.3770	7.676	178.0	1.033120412	1.457616224	0.034448406	0.355397853	0.109537070
2020-03-11T18:25:00	0.3800	7.659	179.0	1.042090313	1.474309039	0.035044302	0.361545599	0.111431865
2020-03-11T18:30:00	0.3848	7.644	179.0	1.056382420	1.501067869	0.036005851	0.371465728	0.114489345
2020-03-11T18:35:00	0.3797	7.628	178.0	1.041265884	1.472771534	0.034989289	0.360978043	0.111256939
2020-03-11T18:40:00	0.3838	7.611	178.0	1.053187285	1.495068424	0.035789595	0.369234653	0.113801706
2020-03-11T18:45:00	0.3837	7.596	178.0	1.052924560	1.494575553	0.035771846	0.369051541	0.113745269
2020-03-11T18:50:00	0.3841	7.582	178.0	1.054145576	1.496866745	0.035854377	0.369902993	0.114007695
2020-03-11T18:55:00	0.3836	7.568	178.0	1.052695873	1.494146591	0.035756401	0.368892195	0.113696157
2020-03-11T19:00:00	0.3834	7.554	178.0	1.052136288	1.493097161	0.035718623	0.368502451	0.113576034
2020-03-11T19:05:00	0.3818	7.538	178.0	1.047418296	1.484261283	0.035401020	0.365225794	0.112566137
2020-03-11T19:10:00	0.3846	7.523	178.0	1.055764936	1.499907655	0.035964000	0.371033956	0.114356269
2020-03-11T19:15:00	0.3864	7.508	178.0	1.061134156	1.510008528	0.036328843	0.374797980	0.115516377
2020-03-11T19:20:00	0.3867	7.493	178.0	1.062056687	1.511746876	0.036391743	0.375446901	0.115716381
2020-03-11T19:25:00	0.3856	7.476	178.0	1.058535408	1.505116108	0.036151993	0.372973442	0.114954037
2020-03-11T19:30:00	0.3842	7.460	178.0	1.054417903	1.497377956	0.035872798	0.370093049	0.114066272
2020-03-11T19:35:00	0.3842	7.444	178.0	1.054451943	1.497441860	0.035875102	0.370116809	0.114073595
2020-03-11T19:40:00	0.3866	7.427	178.0	1.061600277	1.510886748	0.036360616	0.375125775	0.115617407
2020-03-11T19:45:00	0.3864	7.409	177.0	1.061041859	1.509834656	0.036322554	0.374733092	0.115496378
2020-03-11T19:50:00	0.3872	7.392	178.0	1.063444938	1.514364360	0.036486513	0.376424629	0.116017727
2020-03-11T19:55:00	0.3845	7.376	177.0	1.055478013	1.499368673	0.035944562	0.370833425	0.114294463
2020-03-11T20:00:00	0.3890	7.359	178.0	1.068838461	1.524551474	0.036856050	0.380237069	0.117192757
2020-03-11T20:05:00	0.3851	7.344	176.0	1.057325319	1.502840235	0.036069812	0.372125599	0.114692724
2020-03-11T20:10:00	0.3871	7.325	177.0	1.062988677	1.513503892	0.036455350	0.376103129	0.115918637
2020-03-11T20:15:00	0.3880	7.309	177.0	1.065686574	1.518594836	0.036639839	0.378006465	0.116505264
2020-03-11T20:20:00	0.3896	7.294	177.0	1.070452271	1.527605117	0.036967035	0.381382085	0.117545662
2020-03-11T20:25:00	0.3829	7.280	177.0	1.050637133	1.490287188	0.035617528	0.367459470	0.113254577
2020-03-11T20:30:00	0.3852	7.265	177.0	1.057495399	1.503160026	0.036081356	0.372244698	0.114729431
2020-03-11T20:35:00	0.3900	7.250	177.0	1.071736101	1.530036195	0.037055464	0.382294389	0.117826843
2020-03-11T20:40:00	0.3853	7.237	177.0	1.057859881	1.503845435	0.036106102	0.372500001	0.114808118
2020-03-11T20:45:00	0.3883	7.223	177.0	1.066777836	1.520656072	0.036714614	0.378777903	0.116743028
2020-03-11T20:50:00	0.3877	7.210	177.0	1.065036477	1.517367449	0.036595335	0.377547325	0.116363752
2020-03-11T20:55:00	0.3929	7.197	177.0	1.080137022	1.545984164	0.037637108	0.388295110	0.119676324
2020-03-11T21:00:00	0.3877	7.185	177.0	1.064808437	1.516937007	0.036579731	0.377386344	0.116314136
2020-03-11T21:05:00	0.3889	7.174	177.0	1.068392420	1.523707926	0.036825408	0.379920946	0.117095325
2020-03-11T21:10:00	0.3886	7.163	177.0	1.067539125	1.522094727	0.036766830	0.379316610	0.116909063
2020-03-11T21:15:00	0.3831	7.152	177.0	1.051274730	1.491482014	0.035660504	0.367902848	0.113391231
2020-03-11T21:20:00	0.3875	7.141	177.0	1.064352321	1.516076205	0.036548533	0.377064475	0.116214933
2020-03-11T21:25:00	0.3901	7.130	177.0	1.072075111	1.530678419	0.037078835	0.382535502	0.117901157
2020-03-11T21:30:00	0.3907	7.119	176.0	1.073881389	1.534102144	0.037203500	0.383821648	0.118297560
2020-03-11T21:35:00	0.3890	7.108	176.0	1.068595988	1.524092887	0.036839391	0.380065202	0.117139786
2020-03-11T21:40:00	0.3883	7.098	177.0	1.066559538	1.520243647	0.036699649	0.378623511	0.116695443
2020-03-11T21:45:00	0.3883	7.091	177.0	1.066593482	1.520307772	0.036701975	0.378647515	0.116702842
2020-03-11T21:50:00	0.3902	7.086	176.0	1.072244607	1.530999555	0.037090523	0.382656085	0.117938322
2020-03-11T21:55:00	0.3872	7.087	176.0	1.063405974	1.514290869	0.036483851	0.376397167	0.116009262
2020-03-11T22:00:00	0.3889	7.088	176.0	1.068469923	1.523854485	0.036830731	0.379975863	0.117112251
2020-03-11T22:05:00	0.3878	7.091	176.0	1.065244562	1.517760269	0.036609577	0.377694252	0.116409037
2020-03-11T22:10:00	0.3858	7.089	176.0	1.059350559	1.506650006	0.036207412	0.373545197	0.115130257
2020-03-11T22:15:00	0.3960	7.094	176.0	1.089499618	1.563839379	0.038291482	0.395046161	0.121757063
2020-03-11T22:20:00	0.3928	7.088	176.0	1.080101315	1.545916232	0.037634625	0.388269491	0.119668428
2020-03-11T22:25:00	0.3910	7.081	176.0	1.074522990	1.535319044	0.037247839	0.384279093	0.118438549
2020-03-11T22:30:00	0.3861	7.070	176.0	1.060057966	1.507981686	0.036255546	0.374041786	0.115283311
2020-03-11T22:35:00	0.3904	7.064	176.0	1.072808092	1.532067370	0.037129394	0.383057117	0.118061924
2020-03-11T22:40:00	0.3856	7.057	177.0	1.058633668	1.505300973	0.036158670	0.373042336	0.114975271
2020-03-11T22:45:00	0.3914	7.049	176.0	1.075818345	1.537777118	0.037337451	0.385203600	0.118723490
2020-03-11T22:50:00	0.3893	7.041	176.0	1.069643249	1.526073970	0.036911373	0.380807827	0.117368671
2020-03-11T22:55:00	0.3913	7.038	176.0	1.075580311	1.537325299	0.037320975	0.385033617	0.118671100
2020-03-11T23:00:00	0.3898	7.035	176.0	1.071178366	1.528979862	0.037017033	0.381897902	0.117704642
2020-03-11T23:05:00	0.3891	7.031	176.0	1.069137851	1.525117785	0.036876625	0.380449339	0.117258181
2020-03-11T23:10:00	0.3886	7.023	176.0	1.067687929	1.522375999	0.036777042	0.379421959	0.116941533
2020-03-11T23:15:00	0.3908	7.017	176.0	1.073923034	1.534181120	0.037206377	0.383851331	0.118306708
2020-03-11T23:20:00	0.3865	7.010	176.0	1.061233598	1.510195869	0.036335620	0.374867898	0.115537927
2020-03-11T23:25:00	0.3884	6.998	176.0	1.066886494	1.520861376	0.036722064	0.378854765	0.116766718
2020-03-11T23:30:00	0.3850	6.987	176.0	1.056845600	1.501938400	0.036037262	0.371789793	0.114589225
2020-03-11T23:35:00	0.3861	6.977	176.0	1.060134680	1.508126128	0.036260768	0.374095661	0.115299916
2020-03-11T23:40:00	0.3896	6.967	176.0	1.070520698	1.527734650	0.036971745	0.381430678	0.117560639
2020-03-11T23:45:00	0.3869	6.958	176.0	1.062561646	1.512698736	0.036426198	0.375802369	0.115825940
2020-03-11T23:50:00	0.3838	6.951	176.0	1.053400922	1.495469256	0.035804031	0.369383590	0.113847610
2020-03-11T23:55:00	0.3888	6.947	176.0	1.068241429	1.523422418	0.036815039	0.379813968	0.117062354
2020-03-12T00:00:00	0.3914	6.943	176.0	1.075951951	1.538030744	0.037346701	0.385299028	0.118752903
2020-03-12T00:05:00	0.3923	6.939	176.0	1.078341421	1.542569652	0.037512351	0.387008010	0.119279627
2020-03-12T00:10:00	0.3894	6.936	176.0	1.069805675	1.526381325	0.036922544	0.380923080	0.117404193
2020-03-12T00:15:00	0.3888	6.932	176.0	1.068060253	1.523079863	0.036802599	0.379685627	0.117022798
2020-03-12T00:20:00	0.3946	6.926	176.0	1.085207348	1.555642981	0.037990679	0.391942835	0.120800588
2020-03-12T00:25:00	0.3843	6.919	176.0	1.054788864	1.498074436	0.035897901	0.370352030	0.114146092
2020-03-12T00:30:00	0.3906	6.914	176.0	1.073466012	1.533314533	0.037174810	0.383525663	0.118206334
2020-03-12T00:35:00	0.3769	6.909	176.0	1.032837257	1.457090549	0.034429690	0.355204765	0.109477558
2020-03-12T00:40:00	0.3871	6.907	176.0	1.063173152	1.513851772	0.036467948	0.376233099	0.115958695
2020-03-12T00:45:00	0.3858	6.906	176.0	1.059351163	1.506651143	0.036207453	0.373545621	0.115130388
2020-03-12T00:50:00	0.3865	6.903	176.0	1.061453710	1.510610577	0.036350624	0.375022686	0.115585634
2020-03-12T00:55:00	0.3881	6.899	176.0	1.066218819	1.519600024	0.036676298	0.378382608	0.116621195
2020-03-12T01:00:00	0.3870	6.897	176.0	1.062695666	1.512951408	0.036435346	0.375896745	0.115855027
2020-03-12T01:05:00	0.3901	6.890	176.0	1.071893762	1.530334857	0.037066332	0.382406511	0.117861401
2020-03-12T01:10:00	0.3890	6.881	176.0	1.068670975	1.524234704	0.036844542	0.380118348	0.117156167
2020-03-12T01:15:00	0.3816	6.875	176.0	1.046762245	1.483034343	0.035356984	0.364771490	0.112426116
2020-03-12T01:20:00	0.3859	6.878	176.0	1.059552040	1.507029240	0.036221118	0.373686595	0.115173838
2020-03-12T01:25:00	0.3873	6.875	176.0	1.063727236	1.514896849	0.036505802	0.376623626	0.116079059
2020-03-12T01:30:00	0.3880	6.873	176.0	1.065827634	1.518861213	0.036649500	0.378106133	0.116535982
2020-03-12T01:35:00	0.3872	6.872	176.0	1.063488530	1.514446580	0.036489491	0.376455354	0.116027196
2020-03-12T01:40:00	0.3847	6.868	175.0	1.056109546	1.500555111	0.035987353	0.371274887	0.114430526
2020-03-12T01:45:00	0.3839	6.858	175.0	1.053765115	1.496152669	0.035828649	0.369637566	0.113925888
2020-03-12T01:50:00	0.3867	6.858	176.0	1.061797895	1.511259145	0.036374092	0.375264798	0.115660255
2020-03-12T01:55:00	0.3842	6.865	176.0	1.054415988	1.497374360	0.035872669	0.370091712	0.114065860
2020-03-12T02:00:00	0.3825	6.867	175.0	1.049398188	1.487966597	0.035534104	0.366598796	0.112989309
2020-03-12T02:05:00	0.3841	6.867	175.0	1.054176762	1.496925283	0.035856486	0.369924755	0.114014402
2020-03-12T02:10:00	0.3860	6.868	175.0	1.059838990	1.507569416	0.036240642	0.373888028	0.115235921
2020-03-12T02:15:00	0.3847	6.869	176.0	1.056014016	1.500375617	0.035980878	0.371208089	0.114409938
2020-03-12T02:20:00	0.3872	6.868	176.0	1.063450505	1.514374859	0.036486893	0.376428552	0.116018936
2020-03-12T02:25:00	0.3838	6.872	175.0	1.053401527	1.495470391	0.035804072	0.369384011	0.113847740
2020-03-12T02:30:00	0.3865	6.885	176.0	1.061434990	1.510575306	0.036349348	0.375009520	0.115581576
2020-03-12T02:35:00	0.3858	6.889	175.0	1.059389828	1.506723918	0.036210083	0.373572754	0.115138751
2020-03-12T02:40:00	0.3828	6.887	175.0	1.050222285	1.489509996	0.035589582	0.367171154	0.113165715
2020-03-12T02:45:00	0.3890	6.887	176.0	1.068623652	1.524145205	0.036841291	0.380084808	0.117145829
2020-03-12T02:50:00	0.3897	6.881	175.0	1.070721654	1.528115091	0.036985580	0.381573408	0.117604630
2020-03-12T02:55:00	0.3899	6.888	176.0	1.071341336	1.529288491	0.037028260	0.382013731	0.117740342
2020-03-12T03:00:00	0.3877	6.888	176.0	1.064863848	1.517041594	0.036583522	0.377425456	0.116326191
2020-03-12T03:05:00	0.3871	6.888	176.0	1.063116412	1.513744769	0.036464073	0.376193121	0.115946373
2020-03-12T03:10:00	0.3879	6.894	176.0	1.065513032	1.518267148	0.036627956	0.377883867	0.116467478
2020-03-12T03:15:00	0.3775	6.901	176.0	1.034655513	1.460467485	0.034549973	0.356445707	0.109860029
2020-03-12T03:20:00	0.3826	6.905	176.0	1.049858394	1.488828406	0.035565078	0.366918358	0.113087802
2020-03-12T03:25:00	0.3835	6.901	176.0	1.052559286	1.493890412	0.035747178	0.368797043	0.113666830
2020-03-12T03:30:00	0.3875	6.905	176.0	1.064443876	1.516248976	0.036554794	0.377129071	0.116234842
2020-03-12T03:35:00	0.3896	6.902	176.0	1.070388128	1.527483697	0.036962620	0.381336537	0.117531624
2020-03-12T03:40:00	0.3842	6.900	175.0	1.054425968	1.497393096	0.035873344	0.370098678	0.114068007
2020-03-12T03:45:00	0.3890	6.892	176.0	1.068671578	1.524235844	0.036844583	0.380118776	0.117156298
2020-03-12T03:50:00	0.3889	6.890	176.0	1.068404511	1.523730790	0.036826238	0.379929513	0.117097966
2020-03-12T03:55:00	0.3885	6.895	176.0	1.067250143	1.521548555	0.036747004	0.379112068	0.116846021
2020-03-12T04:00:00	0.3895	6.892	176.0	1.070235667	1.527195112	0.036952127	0.381228287	0.117498260
2020-03-12T04:05:00	0.3876	6.885	176.0	1.064532044	1.516415363	0.036560824	0.377191283	0.116254017
2020-03-12T04:10:00	0.3833	6.877	176.0	1.051701882	1.492282699	0.035689312	0.368200056	0.113482833
2020-03-12T04:15:00	0.3870	6.869	176.0	1.062884212	1.513306910	0.036448218	0.376029541	0.115895957
2020-03-12T04:20:00	0.3844	6.859	176.0	1.055094849	1.498649025	0.035918615	0.370565727	0.114211956
2020-03-12T04:25:00	0.3817	6.850	176.0	1.046994045	1.483467807	0.035372540	0.364931971	0.112475578
2020-03-12T04:30:00	0.3866	6.842	176.0	1.061744256	1.511158062	0.036370434	0.375227061	0.115648624
2020-03-12T04:35:00	0.3822	6.833	176.0	1.048608623	1.486488491	0.035480997	0.366050901	0.112820443
2020-03-12T04:40:00	0.3782	6.826	177.0	1.036624163	1.464127352	0.034680476	0.357792076	0.110274993
2020-03-12T04:45:00	0.3754	6.817	176.0	1.028189443	1.448472991	0.034123309	0.352043887	0.108503345
2020-03-12T04:50:00	0.3821	6.812	176.0	1.048356249	1.486016162	0.035464031	0.365875872	0.112766497
2020-03-12T04:55:00	0.3719	6.800	176.0	1.017857949	1.429392055	0.033447843	0.345075234	0.106355538
2020-03-12T05:00:00	0.3806	6.792	176.0	1.043728923	1.477366893	0.035153790	0.362675167	0.111780009
2020-03-12T05:05:00	0.3789	6.779	176.0	1.038883098	1.468331510	0.034830567	0.359340541	0.110752245
2020-03-12T05:10:00	0.3772	6.772	176.0	1.033733600	1.458754873	0.034488956	0.355816203	0.109666009
2020-03-12T05:15:00	0.3716	6.769	176.0	1.016920383	1.427665589	0.033386926	0.344446761	0.106161837
2020-03-12T05:20:00	0.3752	6.765	176.0	1.027597699	1.447377332	0.034084413	0.351642609	0.108379667
2020-03-12T05:25:00	0.3760	6.755	176.0	1.030199434	1.452197169	0.034255615	0.353408862	0.108924044
2020-03-12T05:30:00	0.3750	6.753	176.0	1.027130027	1.446511641	0.034053691	0.351325653	0.108281978
2020-03-12T05:35:00	0.3743	6.748	176.0	1.024954732	1.442487813	0.033910999	0.349853525	0.107828254
2020-03-12T05:40:00	0.3721	6.742	176.0	1.018591537	1.430743499	0.033495551	0.345567429	0.106507238
2020-03-12T05:45:00	0.3742	6.739	176.0	1.024785541	1.442175037	0.033899915	0.349739173	0.107793010
2020-03-12T05:50:00	0.3740	6.738	176.0	1.024103361	1.440914203	0.033855245	0.349278319	0.107650970
2020-03-12T05:55:00	0.3730	6.735	176.0	1.021029504	1.435238546	0.033654380	0.347206033	0.107012271
2020-03-12T06:00:00	0.3747	6.729	176.0	1.026324051	1.445020225	0.034000782	0.350779799	0.108113741
2020-03-12T06:05:00	0.3713	6.732	176.0	1.016072739	1.426105437	0.033331906	0.343879126	0.105986886
2020-03-12T06:10:00	0.3634	6.728	176.0	0.992268905	1.382574809	0.031807793	0.328155136	0.101140600
2020-03-12T06:15:00	0.3740	6.722	176.0	1.024277927	1.441236800	0.033866672	0.349396216	0.107687307
2020-03-12T06:20:00	0.3729	6.719	176.0	1.020905168	1.435009161	0.033646269	0.347122358	0.106986482
2020-03-12T06:25:00	0.3750	6.717	176.0	1.027095767	1.446448232	0.034051441	0.351302440	0.108274824
2020-03-12T06:30:00	0.3702	6.716	176.0	1.012653636	1.419819355	0.033110496	0.341594882	0.105282860
2020-03-12T06:35:00	0.3733	6.718	176.0	1.022146157	1.437299311	0.033727270	0.347958030	0.107244044
2020-03-12T06:40:00	0.3745	6.720	176.0	1.025647465	1.443768724	0.033956403	0.350321950	0.107972627
2020-03-12T06:45:00	0.3704	6.717	176.0	1.013297946	1.421003070	0.033152155	0.342024673	0.105415326
2020-03-12T06:50:00	0.3705	6.719	176.0	1.013812251	1.421948228	0.033185430	0.342367964	0.105521131
2020-03-12T06:55:00	0.3685	6.723	176.0	1.007732098	1.410790772	0.032793264	0.338322060	0.104274145
2020-03-12T07:00:00	0.3708	6.727	176.0	1.014541187	1.423288260	0.033232624	0.342854853	0.105671195
2020-03-12T07:05:00	0.3715	6.739	176.0	1.016552357	1.426988125	0.033363031	0.344200243	0.106085858
2020-03-12T07:10:00	0.3669	6.748	176.0	1.002974835	1.402085681	0.032488268	0.335175467	0.103304334
2020-03-12T07:15:00	0.3698	6.756	176.0	1.011590292	1.417866672	0.033041808	0.340886243	0.105064451
2020-03-12T07:20:00	0.3659	6.765	176.0	0.999800307	1.396288849	0.032285642	0.333085013	0.102660036
2020-03-12T07:25:00	0.3674	6.766	176.0	1.004521375	1.404913237	0.032587242	0.336196565	0.103619046
2020-03-12T07:30:00	0.3669	6.767	176.0	1.002935002	1.402012885	0.032485721	0.335149191	0.103296236
2020-03-12T07:35:00	0.3714	6.771	176.0	1.016343122	1.426603022	0.033349451	0.344060133	0.106042675
2020-03-12T07:40:00	0.3731	6.782	176.0	1.021344577	1.435819886	0.033674937	0.347418121	0.107077639
2020-03-12T07:45:00	0.3689	6.798	176.0	1.008982361	1.413082178	0.032873689	0.339151790	0.104529876
2020-03-12T07:50:00	0.3704	6.815	176.0	1.013393496	1.421178647	0.033158336	0.342088437	0.105434979
2020-03-12T07:55:00	0.3663	6.829	176.0	1.001007722	1.398492505	0.032362625	0.333879233	0.102904822
2020-03-12T08:00:00	0.3663	6.848	177.0	1.001223104	1.398885745	0.032376368	0.334021020	0.102948522
2020-03-12T08:05:00	0.3681	6.864	176.0	1.006542738	1.408612380	0.032716861	0.337533819	0.104031201
2020-03-12T08:10:00	0.3644	6.877	176.0	0.995340240	1.388160888	0.032002174	0.330160533	0.101758683
2020-03-12T08:15:00	0.3681	6.890	176.0	1.006372802	1.408301242	0.032705952	0.337421280	0.103996515
2020-03-12T08:20:00	0.3676	6.896	176.0	1.005087316	1.405948528	0.032623503	0.336570666	0.103734348
2020-03-12T08:25:00	0.3629	6.908	176.0	0.990869989	1.380033482	0.031719479	0.327244020	0.100859785
2020-03-12T08:30:00	0.3648	6.942	177.0	0.996503675	1.390279276	0.032075982	0.330921993	0.101993372
2020-03-12T08:35:00	0.3678	6.970	177.0	1.005732794	1.407129692	0.032664888	0.336997630	0.103865943
2020-03-12T08:40:00	0.3635	6.994	177.0	0.992722114	1.383398527	0.031836434	0.328450620	0.101231671
2020-03-12T08:45:00	0.3660	7.007	177.0	1.000156843	1.396939418	0.032308363	0.333319426	0.102732284
2020-03-12T08:50:00	0.3641	7.027	177.0	0.994357686	1.386372857	0.031939917	0.329518232	0.101560719
2020-03-12T08:55:00	0.3688	7.057	177.0	1.008693193	1.412552074	0.032855078	0.338959783	0.104470697
2020-03-12T09:00:00	0.3681	7.086	177.0	1.006508310	1.408549343	0.032714650	0.337511017	0.104024173
2020-03-12T09:05:00	0.3694	7.113	177.0	1.010322506	1.415539983	0.032960020	0.340042451	0.104804386
2020-03-12T09:10:00	0.3677	7.163	178.0	1.005137872	1.406041025	0.032626743	0.336604096	0.103744651
2020-03-12T09:15:00	0.3667	7.193	178.0	1.002350431	1.400944727	0.032448356	0.334763706	0.103177425
2020-03-12T09:20:00	0.3677	7.214	178.0	1.005268048	1.406279210	0.032635088	0.336690183	0.103771184
2020-03-12T09:25:00	0.3634	7.246	179.0	0.992255912	1.382551196	0.031806972	0.328146667	0.101137990
2020-03-12T09:30:00	0.3651	7.277	178.0	0.997587016	1.392252997	0.032144795	0.331631925	0.102212180
2020-03-12T09:35:00	0.3624	7.320	178.0	0.989374500	1.377318786	0.031625222	0.326271589	0.100560073
2020-03-12T09:40:00	0.3638	7.368	179.0	0.993505444	1.384822714	0.031885972	0.328961690	0.101389188
2020-03-12T09:45:00	0.3663	7.404	179.0	1.000938774	1.398366629	0.032358226	0.333833851	0.102890835
2020-03-12T09:50:00	0.3713	7.430	179.0	1.016149949	1.426247520	0.033336915	0.343930809	0.106002815
2020-03-12T09:55:00	0.3671	7.480	179.0	1.003472080	1.402994549	0.032520071	0.335503579	0.103405462
2020-03-12T10:00:00	0.3690	7.546	179.0	1.009088744	1.413277219	0.032880537	0.339222444	0.104551652
2020-03-12T10:05:00	0.3715	7.591	179.0	1.016677296	1.427218099	0.033371142	0.344283921	0.106111648
2020-03-12T10:10:00	0.3693	7.669	180.0	1.010184915	1.415287563	0.032951151	0.339950947	0.104776183
2020-03-12T10:15:00	0.3727	7.742	180.0	1.020164904	1.433643768	0.033598004	0.346624415	0.106833011
2020-03-12T10:20:00	0.3674	7.785	180.0	1.004381382	1.404657192	0.032578275	0.336104062	0.103590536
2020-03-12T10:25:00	0.3644	7.799	181.0	0.995463601	1.388385443	0.032009996	0.330241225	0.101783553
2020-03-12T10:30:00	0.3669	7.826	181.0	1.002776621	1.401723450	0.032475595	0.335044725	0.103264038
2020-03-12T10:35:00	0.3624	7.878	181.0	0.989338188	1.377252898	0.031622936	0.326247998	0.100552802
2020-03-12T10:40:00	0.3712	7.908	181.0	1.015867583	1.425727937	0.033318597	0.343741821	0.105944568
2020-03-12T10:45:00	0.3695	7.933	181.0	1.010573228	1.415999995	0.032976186	0.340209228	0.104855788
2020-03-12T10:50:00	0.3618	7.983	181.0	0.987525009	1.373964444	0.031508873	0.325071235	0.100190112
2020-03-12T10:55:00	0.3638	8.024	182.0	0.993648190	1.385082306	0.031895003	0.329054871	0.101417907
2020-03-12T11:00:00	0.3649	8.065	182.0	0.996755706	1.390738348	0.032091983	0.331087077	0.102044252
2020-03-12T11:05:00	0.3631	8.086	182.0	0.991437007	1.381063324	0.031755258	0.327613147	0.100973554
2020-03-12T11:10:00	0.3609	8.115	182.0	0.984905116	1.369218449	0.031344473	0.323375155	0.099667363
2020-03-12T11:15:00	0.3596	8.160	182.0	0.980779082	1.361757328	0.031086548	0.320714181	0.098847225
2020-03-12T11:20:00	0.3592	8.188	183.0	0.979670194	1.359754891	0.031017434	0.320001150	0.098627462
2020-03-12T11:25:00	0.3585	8.207	182.0	0.977654614	1.356118143	0.030892032	0.318707396	0.098228715
2020-03-12T11:30:00	0.3558	8.233	183.0	0.969284583	1.341057318	0.030374340	0.313366468	0.096582589
2020-03-12T11:35:00	0.3572	8.262	182.0	0.973620494	1.348850928	0.030641903	0.316126865	0.097433370
2020-03-12T11:40:00	0.3556	8.314	184.0	0.968877564	1.340326637	0.030349291	0.313108045	0.096502940
2020-03-12T11:45:00	0.3548	8.378	183.0	0.966250725	1.335614714	0.030187911	0.311443111	0.095989791
2020-03-12T11:50:00	0.3542	8.427	184.0	0.964531696	1.332534731	0.030082564	0.310356266	0.095654815
2020-03-12T11:55:00	0.3537	8.467	184.0	0.963115192	1.329998890	0.029995912	0.309462298	0.095379286
2020-03-12T12:00:00	0.3523	8.519	184.0	0.958663666	1.322042098	0.029724515	0.306662338	0.094516311
2020-03-12T12:05:00	0.3486	8.559	184.0	0.947516058	1.302198808	0.029050949	0.299713283	0.092374545
2020-03-12T12:10:00	0.3503	8.599	184.0	0.952787201	1.311567060	0.029368364	0.302987996	0.093383843
2020-03-12T12:15:00	0.3492	8.617	184.0	0.949237299	1.305255036	0.029154385	0.300780414	0.092703445
2020-03-12T12:20:00	0.3564	8.616	184.0	0.971185288	1.344471552	0.030491467	0.314574846	0.096955023
2020-03-12T12:25:00	0.3504	8.607	184.0	0.953086234	1.312099311	0.029386429	0.303174370	0.093441285
2020-03-12T12:30:00	0.3562	8.601	184.0	0.970475777	1.343196656	0.030447715	0.314123466	0.096815903
2020-03-12T12:35:00	0.3608	8.590	184.0	0.984475037	1.368439977	0.031317532	0.323097207	0.099581697
2020-03-12T12:40:00	0.3620	8.584	184.0	0.988192269	1.375174247	0.031550822	0.325504011	0.100323497
2020-03-12T12:45:00	0.3581	8.583	184.0	0.976217979	1.353528358	0.030802824	0.317787058	0.097945057
2020-03-12T12:50:00	0.3619	8.585	184.0	0.987787112	1.374439610	0.031525347	0.325241193	0.100242494
2020-03-12T12:55:00	0.3602	8.595	184.0	0.982758682	1.365335018	0.031210146	0.321989320	0.099240236
2020-03-12T13:00:00	0.3593	8.610	184.0	0.980140690	1.360604372	0.031046748	0.320303576	0.098720673
2020-03-12T13:05:00	0.3596	8.626	184.0	0.980843614	1.361873896	0.031090572	0.320755703	0.098860023
2020-03-12T13:10:00	0.3592	8.643	184.0	0.979734743	1.359871421	0.031021455	0.320042631	0.098640247
2020-03-12T13:15:00	0.3577	8.645	184.0	0.975301207	1.351876745	0.030745973	0.317200539	0.097764287
2020-03-12T13:20:00	0.3590	8.655	185.0	0.979026704	1.358593408	0.030977367	0.319587786	0.098500060
2020-03-12T13:25:00	0.3592	8.662	184.0	0.979729817	1.359862529	0.031021148	0.320039465	0.098639271
2020-03-12T13:30:00	0.3633	8.662	184.0	0.992192547	1.382436046	0.031802969	0.328105367	0.101125261
2020-03-12T13:35:00	0.3584	8.653	184.0	0.977208993	1.355314622	0.030864345	0.318421761	0.098140679
2020-03-12T13:40:00	0.3611	8.651	184.0	0.985459151	1.370221549	0.031379199	0.323733411	0.099777781
2020-03-12T13:45:00	0.3641	8.649	184.0	0.994595771	1.386806035	0.031954996	0.329673805	0.101608668
2020-03-12T13:50:00	0.3653	8.644	184.0	0.998003273	1.393011667	0.032171258	0.331904935	0.102296324
2020-03-12T13:55:00	0.3634	8.636	183.0	0.992385094	1.382785966	0.031815134	0.328230875	0.101163943
2020-03-12T14:00:00	0.3676	8.623	183.0	1.005110095	1.405990205	0.032624963	0.336585728	0.103738990
2020-03-12T14:05:00	0.3706	8.607	183.0	1.013904193	1.422117221	0.033191381	0.342429354	0.105540053
2020-03-12T14:10:00	0.3629	8.586	182.0	0.990874458	1.380041598	0.031719761	0.327246928	0.100860681
2020-03-12T14:15:00	0.3698	8.565	182.0	1.011703736	1.418074945	0.033049132	0.340961805	0.105087740
2020-03-12T14:20:00	0.3676	8.550	182.0	1.004903449	1.405612141	0.032611720	0.336449099	0.103696880
2020-03-12T14:25:00	0.3701	8.544	182.0	1.012499593	1.419536410	0.033100540	0.341492172	0.105251204
2020-03-12T14:30:00	0.3708	8.539	182.0	1.014694748	1.423570621	0.033242571	0.342957473	0.105702824
2020-03-12T14:35:00	0.3652	8.532	182.0	0.997687866	1.392436790	0.032151205	0.331698058	0.102232563
2020-03-12T14:40:00	0.3645	8.523	182.0	0.995681042	1.388781287	0.032023785	0.330383483	0.101827398
2020-03-12T14:45:00	0.3656	8.517	182.0	0.999087654	1.394988840	0.032240253	0.332616743	0.102515711
2020-03-12T14:50:00	0.3655	8.510	182.0	0.998584981	1.394072168	0.032208259	0.332286672	0.102413979
2020-03-12T14:55:00	0.3637	8.499	182.0	0.993268626	1.384392090	0.031870991	0.328807135	0.101341552
2020-03-12T15:00:00	0.3656	8.490	182.0	0.999082751	1.394979898	0.032239940	0.332613523	0.102514718
2020-03-12T15:05:00	0.3611	8.481	182.0	0.985330744	1.369989037	0.031371149	0.323650359	0.099752184
2020-03-12T15:10:00	0.3672	8.467	182.0	1.003786301	1.403569007	0.032540178	0.335711015	0.103469395
2020-03-12T15:15:00	0.3658	8.453	181.0	0.999679015	1.396067556	0.032277914	0.333005288	0.102635464
2020-03-12T15:20:00	0.3653	8.435	182.0	0.997973848	1.392958032	0.032169387	0.331885632	0.102290375
2020-03-12T15:25:00	0.3682	8.413	182.0	1.006782982	1.409052294	0.032732285	0.337692955	0.104080248
2020-03-12T15:30:00	0.3659	8.393	182.0	0.999974664	1.396606982	0.032296752	0.333199636	0.102695364
2020-03-12T15:35:00	0.3606	8.375	182.0	0.983812611	1.367241287	0.031276062	0.322669364	0.099449832
2020-03-12T15:40:00	0.3628	8.353	181.0	0.990543770	1.379441129	0.031698905	0.327031759	0.100794364
2020-03-12T15:45:00	0.3574	8.327	182.0	0.974344774	1.350154531	0.030686726	0.316589298	0.097575896
2020-03-12T15:50:00	0.3587	8.309	182.0	0.978071135	1.356869361	0.030917923	0.318974508	0.098311041
2020-03-12T15:55:00	0.3628	8.289	182.0	0.990538857	1.379432209	0.031698595	0.327028563	0.100793379
2020-03-12T16:00:00	0.3625	8.267	182.0	0.989733877	1.377970953	0.031647859	0.326505122	0.100632050
2020-03-12T16:05:00	0.3624	8.242	182.0	0.989349962	1.377274262	0.031623677	0.326255648	0.100555159
2020-03-12T16:10:00	0.3641	8.221	181.0	0.994386557	1.386425383	0.031941745	0.329537095	0.101566533
2020-03-12T16:15:00	0.3652	8.201	181.0	0.997913874	1.392848715	0.032165573	0.331846290	0.102278250
2020-03-12T16:20:00	0.3649	8.181	182.0	0.996929237	1.391054468	0.032103003	0.331200769	0.102079293
2020-03-12T16:25:00	0.3638	8.159	181.0	0.993537015	1.384880125	0.031887969	0.328982297	0.101395539
2020-03-12T16:30:00	0.3654	8.130	181.0	0.998267882	1.393494029	0.032188086	0.332078549	0.102349834
2020-03-12T16:35:00	0.3641	8.097	181.0	0.994575832	1.386769755	0.031953733	0.329660774	0.101604652
2020-03-12T16:40:00	0.3654	8.064	181.0	0.998403653	1.393741557	0.032196723	0.332167652	0.102377296
2020-03-12T16:45:00	0.3698	8.033	181.0	1.011529291	1.417754686	0.033037870	0.340845616	0.105051929
2020-03-12T16:50:00	0.3655	8.006	181.0	0.998539420	1.393989094	0.032205360	0.332256764	0.102404762
2020-03-12T16:55:00	0.3658	7.979	181.0	0.999659406	1.396031782	0.032276665	0.332992401	0.102631492
2020-03-12T17:00:00	0.3663	7.948	181.0	1.001079563	1.398623665	0.032367208	0.333926522	0.102919397
2020-03-12T17:05:00	0.3658	7.914	181.0	0.999494568	1.395731067	0.032266165	0.332884073	0.102598104
2020-03-12T17:10:00	0.3653	7.878	180.0	0.998209649	1.393387869	0.032184382	0.332040337	0.102338057
2020-03-12T17:15:00	0.3630	7.841	180.0	0.991205939	1.380643610	0.031740675	0.327462693	0.100927182
2020-03-12T17:20:00	0.3626	7.803	180.0	0.989918451	1.378305949	0.031659488	0.326625100	0.100669028
2020-03-12T17:25:00	0.3660	7.766	180.0	1.000066572	1.396774689	0.032302609	0.333260066	0.102713989
2020-03-12T17:30:00	0.3681	7.729	180.0	1.006590795	1.408700373	0.032719946	0.337565648	0.104041011
2020-03-12T17:35:00	0.3686	7.695	180.0	1.008008592	1.411297385	0.032811040	0.338505455	0.104330669
2020-03-12T17:40:00	0.3682	7.658	180.0	1.006726295	1.408948489	0.032728646	0.337655402	0.104068674
2020-03-12T17:45:00	0.3701	7.621	179.0	1.012341269	1.419245624	0.033090310	0.341386626	0.105218674
2020-03-12T17:50:00	0.3698	7.585	180.0	1.011659744	1.417994178	0.033046292	0.340932502	0.105078708
2020-03-12T17:55:00	0.3679	7.550	180.0	1.005879268	1.407397782	0.032674284	0.337094561	0.103895818
2020-03-12T18:00:00	0.3709	7.517	180.0	1.014790911	1.423747454	0.033248800	0.343021745	0.105722633
2020-03-12T18:05:00	0.3655	7.483	180.0	0.998806038	1.394475256	0.032222326	0.332431802	0.102458710
2020-03-12T18:10:00	0.3686	7.448	180.0	1.008032748	1.411341648	0.032812594	0.338521480	0.104335608
2020-03-12T18:15:00	0.3737	7.413	180.0	1.023220877	1.439283826	0.033797508	0.348682661	0.107467383
2020-03-12T18:20:00	0.3730	7.381	179.0	1.021046235	1.435269414	0.033655471	0.347217294	0.107015742
2020-03-12T18:25:00	0.3736	7.347	179.0	1.023056965	1.438981083	0.033786790	0.348572088	0.107433303
2020-03-12T18:30:00	0.3719	7.312	179.0	1.017890759	1.429452488	0.033449976	0.345097239	0.106362321
2020-03-12T18:35:00	0.3726	7.275	179.0	1.019903000	1.433160820	0.033580937	0.346448340	0.106778743
2020-03-12T18:40:00	0.3666	7.235	179.0	1.001835393	1.400003897	0.032415456	0.334424282	0.103072812
2020-03-12T18:45:00	0.3712	7.196	180.0	1.015848559	1.425692934	0.033317363	0.343729090	0.105940644
2020-03-12T18:50:00	0.3695	7.156	179.0	1.010673459	1.416183910	0.032982649	0.340275913	0.104876341
2020-03-12T18:55:00	0.3727	7.120	178.0	1.020173136	1.433658949	0.033598541	0.346629950	0.106834717
2020-03-12T19:00:00	0.3646	7.084	179.0	0.996094627	1.389534333	0.032050021	0.330654161	0.101910824
2020-03-12T19:05:00	0.3700	7.047	178.0	1.012225195	1.419032451	0.033082811	0.341309257	0.105194828
2020-03-12T19:10:00	0.3686	7.009	178.0	1.007945603	1.411181964	0.032806990	0.338463670	0.104317790
2020-03-12T19:15:00	0.3699	6.974	178.0	1.011761170	1.418180393	0.033052841	0.341000064	0.105099532
2020-03-12T19:20:00	0.3680	6.940	178.0	1.006280932	1.408133047	0.032700056	0.337360448	0.103977767
2020-03-12T19:25:00	0.3672	6.906	177.0	1.003797218	1.403588967	0.032540876	0.335718223	0.103471617
2020-03-12T19:30:00	0.3686	6.874	177.0	1.007916554	1.411128737	0.032805122	0.338444401	0.104311851
2020-03-12T19:35:00	0.3671	6.842	177.0	1.003332256	1.402738954	0.032511126	0.335411297	0.103377019
2020-03-12T19:40:00	0.3695	6.808	177.0	1.010750769	1.416325774	0.032987635	0.340327354	0.104892196
2020-03-12T19:45:00	0.3725	6.776	177.0	1.019652056	1.432698146	0.033564589	0.346279682	0.106726761
2020-03-12T19:50:00	0.3688	6.746	176.0	1.008487403	1.412174869	0.032841837	0.338823176	0.104428594
2020-03-12T19:55:00	0.3704	6.714	177.0	1.013500920	1.421376053	0.033165285	0.342160132	0.105457076
2020-03-12T20:00:00	0.3705	6.681	176.0	1.013718338	1.421775622	0.033179353	0.342305264	0.105501807
2020-03-12T20:05:00	0.3618	6.650	176.0	0.987492847	1.373906141	0.031506852	0.325050383	0.100183685
2020-03-12T20:10:00	0.3663	6.619	176.0	1.000953374	1.398393283	0.032359157	0.333843460	0.102893797
2020-03-12T20:15:00	0.3663	6.590	176.0	1.001171446	1.398791425	0.032373071	0.333987010	0.102938040
2020-03-12T20:20:00	0.3724	6.564	176.0	1.019377007	1.432191098	0.033546676	0.346094877	0.106669802
2020-03-12T20:25:00	0.3663	6.539	176.0	1.001006668	1.398490579	0.032362557	0.333878539	0.102904608
2020-03-12T20:30:00	0.3704	6.509	176.0	1.013525044	1.421420386	0.033166846	0.342176234	0.105462038
2020-03-12T20:35:00	0.3709	6.484	176.0	1.014940493	1.424022537	0.033258492	0.343121734	0.105753451
2020-03-12T20:40:00	0.3732	6.460	176.0	1.021740561	1.436550650	0.033700784	0.347684779	0.107159825
2020-03-12T20:45:00	0.3642	6.436	176.0	0.994662951	1.386928272	0.031959252	0.329717710	0.101622200
2020-03-12T20:50:00	0.3678	6.410	176.0	1.005699991	1.407069655	0.032662784	0.336975924	0.103859253
2020-03-12T20:55:00	0.3643	6.384	176.0	0.995099744	1.387723153	0.031986929	0.330003254	0.101710208
2020-03-12T21:00:00	0.3630	6.361	176.0	0.991103703	1.380457926	0.031734224	0.327396139	0.100906670
2020-03-12T21:05:00	0.3634	6.338	176.0	0.992225696	1.382496286	0.031805063	0.328126973	0.101131920
2020-03-12T21:10:00	0.3654	6.314	176.0	0.998461577	1.393847164	0.032200408	0.332205669	0.102389014
2020-03-12T21:15:00	0.3658	6.292	176.0	0.999581584	1.395889807	0.032271707	0.332941255	0.102615728
2020-03-12T21:20:00	0.3625	6.270	175.0	0.989568338	1.377670531	0.031637431	0.326397538	0.100598891
2020-03-12T21:25:00	0.3617	6.250	176.0	0.987376077	1.373694475	0.031499515	0.324974684	0.100160354
2020-03-12T21:30:00	0.3630	6.232	176.0	0.991210544	1.380651975	0.031740966	0.327465692	0.100928106
2020-03-12T21:35:00	0.3589	6.216	176.0	0.978761068	1.358114058	0.030960836	0.319417236	0.098447494
2020-03-12T21:40:00	0.3668	6.200	175.0	1.002474741	1.401171845	0.032456300	0.334845659	0.103202684
2020-03-12T21:45:00	0.3648	6.183	176.0	0.996681509	1.390603192	0.032087272	0.331038471	0.102029272
2020-03-12T21:50:00	0.3661	6.165	176.0	1.000507392	1.397579182	0.032330712	0.333549993	0.102803347
2020-03-12T21:55:00	0.3674	6.148	175.0	1.004329763	1.404562787	0.032574970	0.336069958	0.103580025
2020-03-12T22:00:00	0.3688	6.133	175.0	1.008448574	1.412103702	0.032839339	0.338797405	0.104420650
2020-03-12T22:05:00	0.3634	6.119	175.0	0.992266109	1.382569727	0.031807616	0.328153314	0.101140038
2020-03-12T22:10:00	0.3703	6.106	176.0	1.013035307	1.420520505	0.033135170	0.341849441	0.105361318
2020-03-12T22:15:00	0.3670	6.094	175.0	1.003181951	1.402464220	0.032501512	0.335312113	0.103346450
2020-03-12T22:20:00	0.3681	6.082	175.0	1.006529211	1.408587613	0.032715992	0.337524860	0.104028440
2020-03-12T22:25:00	0.3655	6.071	175.0	0.998765382	1.394401119	0.032219739	0.332405108	0.102450483
2020-03-12T22:30:00	0.3687	6.063	175.0	1.008419529	1.412050468	0.032837470	0.338778127	0.104414709
2020-03-12T22:35:00	0.3680	6.054	174.0	1.006064554	1.407736938	0.032686171	0.337217199	0.103933616
2020-03-12T22:40:00	0.3663	6.045	175.0	1.001004932	1.398487411	0.032362447	0.333877396	0.102904256
2020-03-12T22:45:00	0.3630	6.036	174.0	0.991123045	1.380493055	0.031735444	0.327408730	0.100910550
2020-03-12T22:50:00	0.3640	6.027	175.0	0.994179071	1.386047916	0.031928606	0.329401547	0.101524756
2020-03-12T22:55:00	0.3621	6.020	175.0	0.988502254	1.375736424	0.031570320	0.325705174	0.100385498
2020-03-12T23:00:00	0.3644	6.014	175.0	0.995473313	1.388403123	0.032010612	0.330247578	0.101785511
2020-03-12T23:05:00	0.3634	6.008	174.0	0.992207792	1.382463748	0.031803932	0.328115303	0.101128323
2020-03-12T23:10:00	0.3643	6.002	175.0	0.994962126	1.387472695	0.031978208	0.329913275	0.101682475
2020-03-12T23:15:00	0.3611	5.995	175.0	0.985367432	1.370055468	0.031373449	0.323674087	0.099759497
2020-03-12T23:20:00	0.3615	5.989	175.0	0.986619044	1.372322526	0.031451968	0.324484159	0.100009169
2020-03-12T23:25:00	0.3629	5.983	175.0	0.990883362	1.380057767	0.031720323	0.327252723	0.100862467
2020-03-12T23:30:00	0.3669	5.977	175.0	1.002959085	1.402056898	0.032487261	0.335165078	0.103301132
2020-03-12T23:35:00	0.3654	5.972	175.0	0.998497025	1.393911796	0.032202663	0.332228936	0.102396185
2020-03-12T23:40:00	0.3647	5.967	175.0	0.996136433	1.389610461	0.032052674	0.330681529	0.101919259
2020-03-12T23:45:00	0.3646	5.961	174.0	0.995880888	1.389145142	0.032036461	0.330514260	0.101867705
2020-03-12T23:50:00	0.3670	5.955	175.0	1.003139909	1.402387379	0.032498824	0.335284373	0.103337900
2020-03-12T23:55:00	0.3673	5.950	175.0	1.004085943	1.404116901	0.032559358	0.335908894	0.103530384
2020-03-13T00:00:00	0.3636	5.943	174.0	0.993007381	1.383917109	0.031854469	0.328636686	0.101289018
2020-03-13T00:05:00	0.3684	5.933	175.0	1.007477637	1.410324596	0.032776909	0.338153330	0.104222140
2020-03-13T00:10:00	0.3652	5.919	175.0	0.997911831	1.392844990	0.032165443	0.331844950	0.102277836
2020-03-13T00:15:00	0.3662	5.905	174.0	1.000662389	1.397862093	0.032340596	0.333651968	0.102834777
2020-03-13T00:20:00	0.3590	5.889	174.0	0.979015927	1.358573959	0.030976696	0.319580866	0.098497927
2020-03-13T00:25:00	0.3649	5.875	174.0	0.996844721	1.390900502	0.032097636	0.331145393	0.102062226
2020-03-13T00:30:00	0.3649	5.862	174.0	0.996889994	1.390982976	0.032100511	0.331175056	0.102071369
2020-03-13T00:35:00	0.3586	5.848	174.0	0.977943935	1.356639931	0.030910015	0.318892922	0.098285896
2020-03-13T00:40:00	0.3655	5.836	174.0	0.998784689	1.394436325	0.032220968	0.332417784	0.102454390
2020-03-13T00:45:00	0.3629	5.823	174.0	0.990705177	1.379734201	0.031709084	0.327136772	0.100826730
2020-03-13T00:50:00	0.3594	5.808	174.0	0.980194765	1.360702018	0.031050118	0.320338345	0.098731389
2020-03-13T00:55:00	0.3627	5.794	174.0	0.990193403	1.378805039	0.031676816	0.326803872	0.100724127
2020-03-13T01:00:00	0.3592	5.780	174.0	0.979681688	1.359775640	0.031018150	0.320008536	0.098629739
2020-03-13T01:05:00	0.3615	5.764	174.0	0.986667605	1.372410515	0.031455017	0.324515612	0.100018863
2020-03-13T01:10:00	0.3624	5.747	173.0	0.989425622	1.377411551	0.031628442	0.326304804	0.100570310
2020-03-13T01:15:00	0.3637	5.729	174.0	0.993386048	1.384605600	0.031878418	0.328883763	0.101365170
2020-03-13T01:20:00	0.3634	5.713	173.0	0.992227128	1.382498889	0.031805154	0.328127906	0.101132207
2020-03-13T01:25:00	0.3617	5.697	173.0	0.987150621	1.373285829	0.031485350	0.324828554	0.100115315
2020-03-13T01:30:00	0.3588	5.680	173.0	0.978444191	1.357542330	0.030941122	0.319213854	0.098384810
2020-03-13T01:35:00	0.3625	5.662	173.0	0.989652388	1.377823062	0.031642725	0.326452160	0.100615726
2020-03-13T01:40:00	0.3636	5.645	173.0	0.993010552	1.383922874	0.031854670	0.328638754	0.101289656
2020-03-13T01:45:00	0.3612	5.632	173.0	0.985824573	1.370883319	0.031402115	0.323969827	0.099850647
2020-03-13T01:50:00	0.3667	5.618	173.0	1.002422894	1.401077119	0.032452986	0.334811477	0.103192149
2020-03-13T01:55:00	0.3601	5.606	173.0	0.982295048	1.364496767	0.031181174	0.321690419	0.099148111
2020-03-13T02:00:00	0.3649	5.595	173.0	0.996802615	1.390823799	0.032094962	0.331117808	0.102053724
2020-03-13T02:05:00	0.3635	5.584	173.0	0.992635023	1.383240221	0.031830929	0.328393826	0.101214166
2020-03-13T02:10:00	0.3623	5.573	173.0	0.989065945	1.376758946	0.031605795	0.326071157	0.100498297
2020-03-13T02:15:00	0.3635	5.561	173.0	0.992725660	1.383404974	0.031836658	0.328452932	0.101232384
2020-03-13T02:20:00	0.3614	5.553	173.0	0.986443851	1.372005107	0.031440971	0.324370702	0.099974201
2020-03-13T02:25:00	0.3604	5.546	173.0	0.983171201	1.366081026	0.031235937	0.322255400	0.099322244
2020-03-13T02:30:00	0.3574	5.542	173.0	0.974153954	1.349811033	0.030674914	0.316467428	0.097538335
2020-03-13T02:35:00	0.3585	5.536	173.0	0.977524732	1.355883927	0.030883961	0.318624129	0.098203051
2020-03-13T02:40:00	0.3606	5.531	173.0	0.983910926	1.367419166	0.031282215	0.322732843	0.099469397
2020-03-13T02:45:00	0.3586	5.529	173.0	0.977917858	1.356592898	0.030908393	0.318876197	0.098280741
2020-03-13T02:50:00	0.3635	5.526	173.0	0.992741823	1.383434354	0.031837680	0.328463473	0.101235632
2020-03-13T02:55:00	0.3625	5.524	172.0	0.989775440	1.378046386	0.031650477	0.326532137	0.100640376
2020-03-13T03:00:00	0.3558	5.522	173.0	0.969283040	1.341054547	0.030374245	0.313365488	0.096582287
2020-03-13T03:05:00	0.3565	5.520	173.0	0.971447506	1.344942843	0.030507646	0.314741757	0.097006466
2020-03-13T03:10:00	0.3597	5.518	173.0	0.981165435	1.362455282	0.031110648	0.320962822	0.098923859
2020-03-13T03:15:00	0.3541	5.514	173.0	0.964269448	1.332065108	0.030066511	0.310190650	0.095603771
2020-03-13T03:20:00	0.3579	5.513	173.0	0.975818528	1.352808627	0.030778046	0.317531428	0.097866270
2020-03-13T03:25:00	0.3551	5.511	173.0	0.967391026	1.337659337	0.030257906	0.312165239	0.096212358
2020-03-13T03:30:00	0.3570	5.510	173.0	0.973188003	1.348072741	0.030615155	0.315850913	0.097348319
2020-03-13T03:35:00	0.3587	5.512	172.0	0.978070519	1.356868250	0.030917884	0.318974113	0.098310919
2020-03-13T03:40:00	0.3743	5.513	173.0	1.024982783	1.442539672	0.033912837	0.349872487	0.107834098
2020-03-13T03:45:00	0.3690	5.502	173.0	1.009164249	1.413415656	0.032885399	0.339272595	0.104567109
2020-03-13T03:50:00	0.3667	5.490	173.0	1.002306544	1.400864548	0.032445552	0.334734776	0.103168509
2020-03-13T03:55:00	0.3636	5.484	172.0	0.993029886	1.383958022	0.031855892	0.328651366	0.101293543
2020-03-13T04:00:00	0.3610	5.475	173.0	0.985240764	1.369826116	0.031365508	0.323592169	0.099734249
2020-03-13T04:05:00	0.3570	5.461	172.0	0.973032934	1.347793766	0.030605568	0.315752004	0.097317834
2020-03-13T04:10:00	0.3628	5.449	173.0	0.990415691	1.379208588	0.031690829	0.326948443	0.100768685
2020-03-13T04:15:00	0.3616	5.437	173.0	0.986975451	1.372968363	0.031474348	0.324715043	0.100080330
2020-03-13T04:20:00	0.3612	5.425	173.0	0.985643950	1.370556199	0.031390786	0.323852957	0.099814627
2020-03-13T04:25:00	0.3650	5.415	172.0	0.997263879	1.391664162	0.032124261	0.331420078	0.102146887
2020-03-13T04:30:00	0.3637	5.406	172.0	0.993227303	1.384316953	0.031868377	0.328780170	0.101333242
2020-03-13T04:35:00	0.3634	5.396	172.0	0.992500017	1.382994836	0.031822396	0.328305798	0.101187035
2020-03-13T04:40:00	0.3631	5.391	172.0	0.991471459	1.381125906	0.031757433	0.327635582	0.100980468
2020-03-13T04:45:00	0.3651	5.379	172.0	0.997365179	1.391848745	0.032130697	0.331486482	0.102167353
2020-03-13T04:50:00	0.3633	5.364	172.0	0.992124441	1.382312283	0.031798666	0.328060980	0.101111580
2020-03-13T04:55:00	0.3654	5.353	172.0	0.998317907	1.393585229	0.032191268	0.332111378	0.102359952
2020-03-13T05:00:00	0.3637	5.350	172.0	0.993379400	1.384593511	0.031877998	0.328879425	0.101363833
2020-03-13T05:05:00	0.3657	5.345	172.0	0.999270416	1.395322185	0.032251889	0.332736797	0.102552712
2020-03-13T05:10:00	0.3668	5.341	172.0	1.002450723	1.401127963	0.032454765	0.334829824	0.103197804
2020-03-13T05:15:00	0.3682	5.334	172.0	1.006828963	1.409136496	0.032735238	0.337723418	0.104089637
2020-03-13T05:20:00	0.3635	5.323	172.0	0.992577665	1.383135967	0.031827304	0.328356426	0.101202639
2020-03-13T05:25:00	0.3639	5.315	172.0	0.993957632	1.385645111	0.031914588	0.329256917	0.101480180
2020-03-13T05:30:00	0.3693	5.302	172.0	1.010054009	1.415047425	0.032942713	0.339863901	0.104749355
2020-03-13T05:35:00	0.3678	5.290	172.0	1.005729701	1.407124031	0.032664690	0.336995583	0.103865312
2020-03-13T05:40:00	0.3676	5.280	171.0	1.005004598	1.405797189	0.032618201	0.336515972	0.103717491
2020-03-13T05:45:00	0.3690	5.267	172.0	1.009080286	1.413261712	0.032879993	0.339216826	0.104549920
2020-03-13T05:50:00	0.3629	5.252	171.0	0.990923003	1.380129756	0.031722823	0.327278522	0.100870419
2020-03-13T05:55:00	0.3687	5.242	171.0	1.008231052	1.411705045	0.032825347	0.338653050	0.104376159
2020-03-13T06:00:00	0.3703	5.232	171.0	1.013202461	1.420827621	0.033145979	0.341960960	0.105395689
2020-03-13T06:05:00	0.3703	5.218	171.0	1.013077893	1.420598748	0.033137924	0.341877851	0.105370074
2020-03-13T06:10:00	0.3661	5.207	172.0	1.000350825	1.397293427	0.032320729	0.333447003	0.102771605
2020-03-13T06:15:00	0.3649	5.195	172.0	0.996918813	1.391035478	0.032102341	0.331193939	0.102077188
2020-03-13T06:20:00	0.3711	5.186	171.0	1.015399926	1.424867570	0.033288270	0.343428948	0.105848137
2020-03-13T06:25:00	0.3700	5.171	172.0	1.012279940	1.419132990	0.033086347	0.341345746	0.105206074
2020-03-13T06:30:00	0.3738	5.161	173.0	1.023527154	1.439849584	0.033817540	0.348889326	0.107531079
2020-03-13T06:35:00	0.3716	5.154	171.0	1.017122097	1.428036960	0.033400027	0.344581920	0.106203494
2020-03-13T06:40:00	0.3695	5.146	172.0	1.010707242	1.416245901	0.032984828	0.340298392	0.104883269
2020-03-13T06:45:00	0.3691	5.141	171.0	1.009383319	1.413817347	0.032899505	0.339418128	0.104611963
2020-03-13T06:50:00	0.3679	5.131	171.0	1.005958740	1.407543248	0.032679382	0.337147160	0.103912029
2020-03-13T06:55:00	0.3724	5.120	171.0	1.019317509	1.432081424	0.033542802	0.346054908	0.106657483
2020-03-13T07:00:00	0.3688	5.119	171.0	1.008709362	1.412581713	0.032856118	0.338970517	0.104474006
2020-03-13T07:05:00	0.3698	5.116	171.0	1.011582790	1.417852900	0.033041324	0.340881246	0.105062911
2020-03-13T07:10:00	0.3693	5.113	171.0	1.009959333	1.414873758	0.032936612	0.339800955	0.104729954
2020-03-13T07:15:00	0.3695	5.106	171.0	1.010734064	1.416295121	0.032986558	0.340316239	0.104888770
2020-03-13T07:20:00	0.3707	5.100	170.0	1.014205180	1.422670502	0.033210865	0.342630370	0.105602008
2020-03-13T07:25:00	0.3704	5.093	170.0	1.013481546	1.421340450	0.033164032	0.342147201	0.105453090
2020-03-13T07:30:00	0.3697	5.085	171.0	1.011259412	1.417259279	0.033020451	0.340665907	0.104996541
2020-03-13T07:35:00	0.3747	5.078	171.0	1.026094937	1.444596378	0.033985750	0.350624719	0.108065944
2020-03-13T07:40:00	0.3702	5.072	171.0	1.012808249	1.420103371	0.033120490	0.341697990	0.105314639
2020-03-13T07:45:00	0.3741	5.078	171.0	1.024352854	1.441375275	0.033871578	0.349446827	0.107702906
2020-03-13T07:50:00	0.3725	5.085	171.0	1.019744175	1.432867983	0.033570590	0.346341590	0.106745842
2020-03-13T07:55:00	0.3671	5.092	170.0	1.003435483	1.402927649	0.032517730	0.335479425	0.103398017
2020-03-13T08:00:00	0.3719	5.098	171.0	1.017999457	1.429652706	0.033457043	0.345170147	0.106384791
2020-03-13T08:05:00	0.3705	5.100	171.0	1.013683358	1.421711333	0.033177089	0.342281911	0.105494609
2020-03-13T08:10:00	0.3692	5.102	171.0	1.009662659	1.414329617	0.032917497	0.339603751	0.104669174
2020-03-13T08:15:00	0.3690	5.110	171.0	1.009238123	1.413551107	0.032890155	0.339321667	0.104582233
2020-03-13T08:20:00	0.3708	5.116	171.0	1.014507842	1.423226949	0.033230464	0.342832572	0.105664328
2020-03-13T08:25:00	0.3757	5.134	171.0	1.029331916	1.450589324	0.034198475	0.352819366	0.108742355
2020-03-13T08:30:00	0.3724	5.152	171.0	1.019347427	1.432136573	0.033544750	0.346075006	0.106663678
2020-03-13T08:35:00	0.3737	5.171	172.0	1.023110316	1.439079620	0.033790279	0.348608076	0.107444395
2020-03-13T08:40:00	0.3752	5.190	172.0	1.027765593	1.447688167	0.034095447	0.351756437	0.108414750
2020-03-13T08:45:00	0.3738	5.211	172.0	1.023459523	1.439724647	0.033813116	0.348843685	0.107517012
2020-03-13T08:50:00	0.3757	5.253	171.0	1.029308356	1.450545668	0.034196924	0.352803364	0.108737423
2020-03-13T08:55:00	0.3748	5.291	171.0	1.026497341	1.445340836	0.034012154	0.350897121	0.108149900
2020-03-13T09:00:00	0.3759	5.309	172.0	1.029955457	1.451744913	0.034239540	0.353243018	0.108872929
2020-03-13T09:05:00	0.3725	5.319	172.0	1.019673333	1.432737373	0.033565975	0.346293981	0.106731168
2020-03-13T09:10:00	0.3781	5.334	171.0	1.036267337	1.463463709	0.034656801	0.357547827	0.110199713
2020-03-13T09:15:00	0.3739	5.351	172.0	1.023909360	1.440555725	0.033842547	0.349147323	0.107610596
2020-03-13T09:20:00	0.3760	5.367	172.0	1.030055969	1.451931224	0.034246162	0.353311336	0.108893985
2020-03-13T09:25:00	0.3706	5.395	172.0	1.014086952	1.422453163	0.033203211	0.342551403	0.105577669
2020-03-13T09:30:00	0.3739	5.440	172.0	1.023835440	1.440419143	0.033837710	0.349097417	0.107595214
2020-03-13T09:35:00	0.3746	5.472	172.0	1.025802548	1.444055547	0.033966572	0.350426865	0.108004963
2020-03-13T09:40:00	0.3709	5.522	172.0	1.014911357	1.423968954	0.033256604	0.343102257	0.105747448
2020-03-13T09:45:00	0.3733	5.553	172.0	1.021968117	1.436970660	0.033715643	0.347838068	0.107207071
2020-03-13T09:50:00	0.3712	5.541	172.0	1.015860089	1.425714148	0.033318111	0.343736806	0.105943022
2020-03-13T09:55:00	0.3714	5.585	172.0	1.016334374	1.426586922	0.033348883	0.344054276	0.106040869
2020-03-13T10:00:00	0.3727	5.631	172.0	1.020399050	1.434075585	0.033613266	0.346781870	0.106881540
2020-03-13T10:05:00	0.3694	5.665	173.0	1.010313746	1.415523910	0.032959455	0.340036624	0.104802590
2020-03-13T10:10:00	0.3693	5.702	173.0	1.010109564	1.415149335	0.032946294	0.339900841	0.104760740
2020-03-13T10:15:00	0.3749	5.699	173.0	1.026960686	1.446198233	0.034042571	0.351210926	0.108246618
2020-03-13T10:20:00	0.3713	5.707	173.0	1.015993085	1.425958865	0.033326738	0.343825812	0.105970455
2020-03-13T10:25:00	0.3687	5.764	173.0	1.008297367	1.411826576	0.032829612	0.338697055	0.104389722
2020-03-13T10:30:00	0.3683	5.824	173.0	1.007193122	1.409803433	0.032758628	0.337964728	0.104164011
2020-03-13T10:35:00	0.3688	5.869	173.0	1.008488694	1.412177236	0.032841920	0.338824033	0.104428858
2020-03-13T10:40:00	0.3642	5.924	174.0	0.994765132	1.387114207	0.031965725	0.329784496	0.101642785
2020-03-13T10:45:00	0.3663	5.982	174.0	1.001175427	1.398798694	0.032373326	0.333989632	0.102938848
2020-03-13T10:50:00	0.3677	6.039	174.0	1.005175235	1.406109388	0.032629138	0.336628804	0.103752267
2020-03-13T10:55:00	0.3701	6.094	176.0	1.012468574	1.419479436	0.033098536	0.341471492	0.105244830
2020-03-13T11:00:00	0.3635	6.146	175.0	0.992741210	1.383433239	0.031837641	0.328463073	0.101235509
2020-03-13T11:05:00	0.3665	6.213	175.0	1.001558727	1.399498610	0.032397791	0.334242032	0.103016640
2020-03-13T11:10:00	0.3654	6.273	175.0	0.998348623	1.393641229	0.032193222	0.332131536	0.102366165
2020-03-13T11:15:00	0.3624	6.342	176.0	0.989415179	1.377392601	0.031627784	0.326298019	0.100568218
2020-03-13T11:20:00	0.3624	6.401	176.0	0.989209970	1.377020252	0.031614862	0.326164705	0.100527130
2020-03-13T11:25:00	0.3530	6.446	176.0	0.960884914	1.326010077	0.029859765	0.308057689	0.094946372
2020-03-13T11:30:00	0.3630	6.480	176.0	0.991209623	1.380650302	0.031740908	0.327465092	0.100927922
2020-03-13T11:35:00	0.3629	6.515	176.0	0.990703301	1.379730794	0.031708965	0.327135551	0.100826354
2020-03-13T11:40:00	0.3631	6.568	176.0	0.991401737	1.380999256	0.031753032	0.327590179	0.100966475
2020-03-13T11:45:00	0.3652	6.616	177.0	0.997817219	1.392672545	0.032159428	0.331782892	0.102258710
2020-03-13T11:50:00	0.3619	6.645	177.0	0.987978498	1.374786615	0.031537379	0.325365326	0.100280753
2020-03-13T11:55:00	0.3623	6.653	177.0	0.988978742	1.376600743	0.031600305	0.326014525	0.100480843
2020-03-13T12:00:00	0.3623	6.693	177.0	0.989074853	1.376775107	0.031606355	0.326076943	0.100500081
2020-03-13T12:05:00	0.3638	6.720	177.0	0.993688350	1.385155343	0.031897545	0.329081089	0.101425988
2020-03-13T12:10:00	0.3575	6.729	177.0	0.974476126	1.350391002	0.030694859	0.316673204	0.097601757
2020-03-13T12:15:00	0.3619	6.718	177.0	0.987856348	1.374565139	0.031529699	0.325286096	0.100256334
2020-03-13T12:20:00	0.3604	6.721	177.0	0.983428830	1.366547009	0.031252050	0.322421637	0.099373480
2020-03-13T12:25:00	0.3635	6.712	177.0	0.992567231	1.383117001	0.031826644	0.328349622	0.101200542
2020-03-13T12:30:00	0.3649	6.729	177.0	0.996876095	1.390957657	0.032099628	0.331165949	0.102068562
2020-03-13T12:35:00	0.3546	6.726	177.0	0.965877453	1.334945684	0.030165018	0.311206930	0.095916998
2020-03-13T12:40:00	0.3603	6.725	177.0	0.982908532	1.365605991	0.031219513	0.322085961	0.099270021
2020-03-13T12:45:00	0.3589	6.715	177.0	0.978777799	1.358144248	0.030961877	0.319427977	0.098450805
2020-03-13T12:50:00	0.3590	6.715	177.0	0.979176210	1.358863229	0.030986674	0.319683799	0.098529652
2020-03-13T12:55:00	0.3585	6.731	177.0	0.977459875	1.355766976	0.030879931	0.318582553	0.098190237
2020-03-13T13:00:00	0.3567	6.752	177.0	0.972113567	1.346140266	0.030548763	0.315165954	0.097137208
2020-03-13T13:05:00	0.3605	6.787	177.0	0.983691500	1.367022176	0.031268483	0.322591177	0.099425734
2020-03-13T13:10:00	0.3581	6.839	178.0	0.976237938	1.353564325	0.030804062	0.317799834	0.097948995
2020-03-13T13:15:00	0.3579	6.845	178.0	0.975729778	1.352648739	0.030772542	0.317474648	0.097848770
2020-03-13T13:20:00	0.3597	6.844	178.0	0.981263984	1.362633335	0.031116797	0.321026261	0.098943411
2020-03-13T13:25:00	0.3633	6.837	178.0	0.991913056	1.381928181	0.031785315	0.327923235	0.101069126
2020-03-13T13:30:00	0.3600	6.834	178.0	0.982060289	1.364072400	0.031166509	0.321539131	0.099101483
2020-03-13T13:35:00	0.3563	6.835	178.0	0.970973514	1.344090972	0.030478404	0.314440080	0.096913487
2020-03-13T13:40:00	0.3598	6.833	178.0	0.981649129	1.363329285	0.031140836	0.321274261	0.099019847
2020-03-13T13:45:00	0.3609	6.840	177.0	0.984762957	1.368961112	0.031335567	0.323283267	0.099639042
2020-03-13T13:50:00	0.3571	6.865	178.0	0.973380992	1.348419967	0.030627089	0.315974034	0.097386266
2020-03-13T13:55:00	0.3578	6.885	178.0	0.975594220	1.352404536	0.030764137	0.317387932	0.097822043
2020-03-13T14:00:00	0.3583	6.903	177.0	0.976899699	1.354757031	0.030845137	0.318223594	0.098079602
2020-03-13T14:05:00	0.3549	6.905	177.0	0.966708002	1.336434489	0.030215969	0.311732581	0.096079009
2020-03-13T14:10:00	0.3525	6.912	178.0	0.959527065	1.323583896	0.029777045	0.307204287	0.094683345
2020-03-13T14:15:00	0.3553	6.920	178.0	0.967810028	1.338410941	0.030283649	0.312430820	0.096294213
2020-03-13T14:20:00	0.3529	6.916	178.0	0.960631024	1.325556298	0.029844288	0.307898019	0.094897160
2020-03-13T14:25:00	0.3560	6.897	177.0	0.970122809	1.342562600	0.030425963	0.313899049	0.096746736
2020-03-13T14:30:00	0.3553	6.870	177.0	0.967796958	1.338387493	0.030282845	0.312422534	0.096291659
2020-03-13T14:35:00	0.3583	6.853	177.0	0.976970007	1.354883775	0.030849503	0.318268635	0.098093484
2020-03-13T14:40:00	0.3515	6.850	178.0	0.956464707	1.318118538	0.029590961	0.305284494	0.094091646
2020-03-13T14:45:00	0.3531	6.857	177.0	0.961114873	1.326421135	0.029873787	0.308202349	0.094990957
2020-03-13T14:50:00	0.3576	6.858	177.0	0.974840913	1.351047801	0.030717452	0.316906290	0.097673596
2020-03-13T14:55:00	0.3583	6.862	177.0	0.977053356	1.355034031	0.030854679	0.318322034	0.098109943
2020-03-13T15:00:00	0.3566	6.866	177.0	0.971706520	1.345408440	0.030523631	0.314906678	0.097057297
2020-03-13T15:05:00	0.3569	6.857	177.0	0.972710716	1.347214160	0.030585652	0.315546537	0.097254507
2020-03-13T15:10:00	0.3556	6.838	177.0	0.968872557	1.340317649	0.030348983	0.313104867	0.096501961
2020-03-13T15:15:00	0.3543	6.827	177.0	0.964727701	1.332885772	0.030094565	0.310480081	0.095692976
2020-03-13T15:20:00	0.3553	6.817	177.0	0.967854352	1.338490458	0.030286372	0.312458922	0.096302874
2020-03-13T15:25:00	0.3552	6.806	177.0	0.967648066	1.338120394	0.030273697	0.312328146	0.096262568
2020-03-13T15:30:00	0.3496	6.788	177.0	0.950443234	1.307397954	0.029226977	0.301529334	0.092934269
2020-03-13T15:35:00	0.3482	6.766	177.0	0.946279631	1.300005139	0.028976774	0.298948039	0.092138689
2020-03-13T15:40:00	0.3549	6.756	177.0	0.966726189	1.336467098	0.030217085	0.311744098	0.096082559
2020-03-13T15:45:00	0.3481	6.748	177.0	0.946169373	1.299809589	0.028970165	0.298879852	0.092117673
2020-03-13T15:50:00	0.3496	6.741	177.0	0.950527124	1.307547076	0.029232031	0.301581471	0.092950338
2020-03-13T15:55:00	0.3506	6.731	177.0	0.953664649	1.313129072	0.029421390	0.303535053	0.093552451
2020-03-13T16:00:00	0.3502	6.724	177.0	0.952545685	1.311137247	0.029353778	0.302837517	0.093337464
2020-03-13T16:05:00	0.3477	6.712	177.0	0.944865435	1.297497842	0.028892066	0.298074116	0.091869337
2020-03-13T16:10:00	0.3447	6.698	177.0	0.935644485	1.281195761	0.028343145	0.292411005	0.090123912
2020-03-13T16:15:00	0.3472	6.690	177.0	0.943196873	1.294541991	0.028792300	0.297044847	0.091552107
2020-03-13T16:20:00	0.3479	6.686	176.0	0.945561298	1.298731335	0.028933730	0.298503955	0.092001818
2020-03-13T16:25:00	0.3467	6.680	177.0	0.941832460	1.292126888	0.028710863	0.296204677	0.091293158
2020-03-13T16:30:00	0.3458	6.669	176.0	0.939015400	1.287146051	0.028543131	0.294474223	0.090759815
2020-03-13T16:35:00	0.3522	6.659	177.0	0.958418509	1.321604443	0.029709608	0.306508552	0.094468913
2020-03-13T16:40:00	0.3506	6.646	176.0	0.953485807	1.312810644	0.029410578	0.303423507	0.093518072
2020-03-13T16:45:00	0.3489	6.634	177.0	0.948547132	1.304029242	0.029112885	0.300352271	0.092571487
2020-03-13T16:50:00	0.3472	6.626	177.0	0.943297755	1.294720628	0.028798326	0.297107020	0.091571269
2020-03-13T16:55:00	0.3445	6.607	176.0	0.934989353	1.280040571	0.028304370	0.292010964	0.090000615
2020-03-13T17:00:00	0.3470	6.599	177.0	0.942542961	1.293384303	0.028753254	0.296642018	0.091427951
2020-03-13T17:05:00	0.3443	6.587	176.0	0.934538393	1.279245631	0.028277696	0.291735773	0.089915799
2020-03-13T17:10:00	0.3462	6.578	177.0	0.940263608	1.289352083	0.028617383	0.295240267	0.090995918
2020-03-13T17:15:00	0.3507	6.571	176.0	0.953890367	1.313531008	0.029435039	0.303675869	0.093595852
2020-03-13T17:20:00	0.3493	6.555	176.0	0.949560716	1.305829604	0.029173843	0.300981162	0.092765317
2020-03-13T17:25:00	0.3475	6.543	176.0	0.944312648	1.296518290	0.028858992	0.297732902	0.091764172
2020-03-13T17:30:00	0.3511	6.537	176.0	0.955192382	1.315850444	0.029513841	0.304488861	0.093846424
2020-03-13T17:35:00	0.3496	6.525	176.0	0.950559956	1.307605440	0.029234009	0.301601878	0.092956628
2020-03-13T17:40:00	0.3534	6.518	177.0	0.962029733	1.328056976	0.029929607	0.308778237	0.095168451
2020-03-13T17:45:00	0.3587	6.508	176.0	0.978304171	1.357289727	0.030932413	0.319124008	0.098357118
2020-03-13T17:50:00	0.3611	6.498	176.0	0.985476709	1.370253343	0.031380300	0.323744768	0.099781282
2020-03-13T17:55:00	0.3607	6.491	176.0	0.984198236	1.367939042	0.031300200	0.322918390	0.099526584
2020-03-13T18:00:00	0.3608	6.478	176.0	0.984427988	1.368354825	0.031314586	0.323066809	0.099572328
2020-03-13T18:05:00	0.3558	6.468	176.0	0.969547471	1.341529339	0.030390525	0.313533443	0.096634052
2020-03-13T18:10:00	0.3545	6.456	176.0	0.965537442	1.334336385	0.030144174	0.310991883	0.095850719
2020-03-13T18:15:00	0.3546	6.442	176.0	0.965768238	1.334749959	0.030158322	0.311137846	0.095895706
2020-03-13T18:20:00	0.3554	6.430	175.0	0.968119629	1.338966410	0.030302678	0.312627140	0.096354721
2020-03-13T18:25:00	0.3534	6.415	175.0	0.962288827	1.328520399	0.029945426	0.308941441	0.095218753
2020-03-13T18:30:00	0.3553	6.400	175.0	0.967975209	1.338707288	0.030293800	0.312535554	0.096326493
2020-03-13T18:35:00	0.3521	6.387	175.0	0.958199300	1.321213158	0.029696283	0.306371081	0.094426542
2020-03-13T18:40:00	0.3538	6.374	175.0	0.963284958	1.330302706	0.030006290	0.309569362	0.095412284
2020-03-13T18:45:00	0.3499	6.360	175.0	0.951369616	1.309045047	0.029282810	0.302105354	0.093111804
2020-03-13T18:50:00	0.3566	6.346	175.0	0.971924734	1.345800745	0.030537103	0.315045659	0.097100132
2020-03-13T18:55:00	0.3573	6.334	175.0	0.973970181	1.349480254	0.030663539	0.316350084	0.097502168
2020-03-13T19:00:00	0.3579	6.320	175.0	0.975712316	1.352617280	0.030771460	0.317463477	0.097845327
2020-03-13T19:05:00	0.3620	6.300	175.0	0.988016460	1.374855448	0.031539766	0.325389952	0.100288343
2020-03-13T19:10:00	0.3611	6.283	175.0	0.985532594	1.370354541	0.031383804	0.323780918	0.099792423
2020-03-13T19:15:00	0.3618	6.261	176.0	0.987571306	1.374048371	0.031511783	0.325101252	0.100199363
2020-03-13T19:20:00	0.3575	6.240	174.0	0.974516919	1.350464442	0.030697385	0.316699264	0.097609789
2020-03-13T19:25:00	0.3591	6.222	174.0	0.979280383	1.359051245	0.030993159	0.319750708	0.098550274
2020-03-13T19:30:00	0.3550	6.205	174.0	0.967108580	1.337152780	0.030240560	0.311986284	0.096157203
2020-03-13T19:35:00	0.3586	6.193	174.0	0.977927953	1.356611107	0.030909021	0.318882672	0.098282736
2020-03-13T19:40:00	0.3580	6.180	175.0	0.976042618	1.353212375	0.030791945	0.317674821	0.097910465
2020-03-13T19:45:00	0.3517	6.165	174.0	0.956882111	1.318862952	0.029616286	0.305545767	0.094172173
2020-03-13T19:50:00	0.3593	6.150	174.0	0.980128411	1.360582199	0.031045983	0.320295681	0.098718239
2020-03-13T19:55:00	0.3536	6.136	174.0	0.962806965	1.329447349	0.029977076	0.309267965	0.095319390
2020-03-13T20:00:00	0.3538	6.123	174.0	0.963341144	1.330403264	0.030009725	0.309604801	0.095423207
2020-03-13T20:05:00	0.3466	6.110	173.0	0.941378117	1.291323061	0.028683773	0.295925201	0.091207021
2020-03-13T20:10:00	0.3560	6.096	174.0	0.970164913	1.342638227	0.030428557	0.313925814	0.096754985
2020-03-13T20:15:00	0.3580	6.083	174.0	0.976142693	1.353392697	0.030798153	0.317738869	0.097930205
2020-03-13T20:20:00	0.3604	6.071	174.0	0.983318986	1.366348322	0.031245179	0.322350753	0.099351633
2020-03-13T20:25:00	0.3580	6.060	174.0	0.975998554	1.353132980	0.030789212	0.317646622	0.097901774
2020-03-13T20:30:00	0.3573	6.044	174.0	0.973809900	1.349191784	0.030653621	0.316247759	0.097470631
2020-03-13T20:35:00	0.3578	6.026	174.0	0.975552103	1.352328667	0.030761526	0.317360993	0.097813740
2020-03-13T20:40:00	0.3600	6.019	173.0	0.982125792	1.364190802	0.031170601	0.321581340	0.099114492
2020-03-13T20:45:00	0.3587	6.002	173.0	0.978128009	1.356971950	0.030921459	0.319010991	0.098322286
2020-03-13T20:50:00	0.3622	5.984	173.0	0.988617183	1.375944878	0.031577551	0.325779774	0.100408490
2020-03-13T20:55:00	0.3550	5.968	173.0	0.967092488	1.337123921	0.030239572	0.311976090	0.096154061
2020-03-13T21:00:00	0.3604	5.954	173.0	0.983346943	1.366398890	0.031246928	0.322368793	0.099357193
2020-03-13T21:05:00	0.3587	5.941	173.0	0.978142005	1.356997196	0.030922329	0.319019969	0.098325053
2020-03-13T21:10:00	0.3614	5.928	173.0	0.986219539	1.371598736	0.031426893	0.324225466	0.099929438
2020-03-13T21:15:00	0.3571	5.911	173.0	0.973463351	1.348568158	0.030632183	0.316026584	0.097402462
2020-03-13T21:20:00	0.3564	5.896	173.0	0.971273347	1.344629816	0.030496900	0.314630893	0.096972297
2020-03-13T21:25:00	0.3586	5.882	173.0	0.977853862	1.356477477	0.030904415	0.318835156	0.098268092
2020-03-13T21:30:00	0.3600	5.866	172.0	0.982009828	1.363981190	0.031163358	0.321506617	0.099091462
2020-03-13T21:35:00	0.3600	5.852	173.0	0.982239702	1.364396714	0.031177716	0.321654748	0.099137117
2020-03-13T21:40:00	0.3580	5.835	172.0	0.976126636	1.353363763	0.030797157	0.317728592	0.097927038
2020-03-13T21:45:00	0.3608	5.818	173.0	0.984509785	1.368502867	0.031319708	0.323119659	0.099588617
2020-03-13T21:50:00	0.3578	5.802	172.0	0.975377878	1.352014841	0.030750726	0.317249567	0.097779398
2020-03-13T21:55:00	0.3563	5.781	172.0	0.971070901	1.344265982	0.030484411	0.314502050	0.096932586
2020-03-13T22:00:00	0.3568	5.766	172.0	0.972511733	1.346856278	0.030573357	0.315419690	0.097215412
2020-03-13T22:05:00	0.3563	5.756	172.0	0.971009576	1.344155776	0.030480629	0.314463027	0.096920559
2020-03-13T22:10:00	0.3518	5.750	172.0	0.957378407	1.319748279	0.029646414	0.305856585	0.094267970
2020-03-13T22:15:00	0.3545	5.745	172.0	0.965579902	1.334412468	0.030146776	0.311018733	0.095858994
2020-03-13T22:20:00	0.3585	5.738	172.0	0.977694999	1.356190971	0.030894541	0.318733288	0.098236695
2020-03-13T22:25:00	0.3592	5.732	172.0	0.979820396	1.360026058	0.031026791	0.320097679	0.098657213
2020-03-13T22:30:00	0.3547	5.725	172.0	0.966218499	1.335556949	0.030185934	0.311422717	0.095983506
2020-03-13T22:35:00	0.3585	5.720	172.0	0.977727443	1.356249481	0.030896558	0.318754091	0.098243107
2020-03-13T22:40:00	0.3561	5.715	172.0	0.970177359	1.342660583	0.030429324	0.313933726	0.096757423
2020-03-13T22:45:00	0.3582	5.707	172.0	0.976540264	1.354109162	0.030822824	0.317993389	0.098008651
2020-03-13T22:50:00	0.3534	5.704	172.0	0.962017640	1.328035348	0.029928869	0.308770620	0.095166104
2020-03-13T22:55:00	0.3615	5.699	172.0	0.986523935	1.372150202	0.031445998	0.324422563	0.099990185
2020-03-13T23:00:00	0.3580	5.697	172.0	0.975968185	1.353078262	0.030787328	0.317627188	0.097895784
2020-03-13T23:05:00	0.3618	5.693	172.0	0.987449964	1.373828406	0.031504157	0.325022582	0.100175116
2020-03-13T23:10:00	0.3559	5.687	172.0	0.969636903	1.341689930	0.030396032	0.313590258	0.096651563
2020-03-13T23:15:00	0.3573	5.683	172.0	0.973884098	1.349325321	0.030658212	0.316295125	0.097485229
2020-03-13T23:20:00	0.3579	5.678	172.0	0.975709166	1.352611605	0.030771264	0.317461461	0.097844706
2020-03-13T23:25:00	0.3591	5.674	172.0	0.979346067	1.359169800	0.030997249	0.319792900	0.098563278
2020-03-13T23:30:00	0.3556	5.671	172.0	0.968771893	1.340136962	0.030342790	0.313040973	0.096482268
2020-03-13T23:35:00	0.3573	5.666	172.0	0.973927397	1.349403249	0.030660892	0.316322768	0.097493749
2020-03-13T23:40:00	0.3599	5.655	172.0	0.981794096	1.363591275	0.031149886	0.321367635	0.099048626
2020-03-13T23:45:00	0.3533	5.651	172.0	0.961833736	1.327706451	0.029917643	0.308654809	0.095130410
2020-03-13T23:50:00	0.3562	5.650	173.0	0.970631731	1.343476844	0.030457329	0.314222650	0.096846472
2020-03-13T23:55:00	0.3583	5.647	173.0	0.976993934	1.354926908	0.030850989	0.318283964	0.098098209
2020-03-14T00:00:00	0.3607	5.640	173.0	0.984251473	1.368035380	0.031303533	0.322952777	0.099537182
2020-03-14T00:05:00	0.3565	5.637	173.0	0.971572165	1.345166919	0.030515339	0.314821125	0.097030928
2020-03-14T00:10:00	0.3577	5.632	173.0	0.975212721	1.351717374	0.030740489	0.317143961	0.097746849
2020-03-14T00:15:00	0.3575	5.627	173.0	0.974618812	1.350647892	0.030703695	0.316764364	0.097629853
2020-03-14T00:20:00	0.3548	5.623	173.0	0.966457081	1.335984630	0.030200571	0.311573722	0.096030047
2020-03-14T00:25:00	0.3569	5.621	173.0	0.972825743	1.347421059	0.030592761	0.315619877	0.097277111
2020-03-14T00:30:00	0.3588	5.615	173.0	0.978580409	1.357788091	0.030949596	0.319301274	0.098411754
2020-03-14T00:35:00	0.3583	5.614	173.0	0.977080465	1.355082904	0.030856363	0.318339404	0.098115296
2020-03-14T00:40:00	0.3590	5.612	172.0	0.979206180	1.358917317	0.030988539	0.319703047	0.098535584
2020-03-14T00:45:00	0.3599	5.608	172.0	0.981934545	1.363845119	0.031158656	0.321458114	0.099076513
2020-03-14T00:50:00	0.3567	5.604	173.0	0.972274805	1.346430198	0.030558721	0.315268691	0.097168872
2020-03-14T00:55:00	0.3575	5.599	172.0	0.974403001	1.350259354	0.030690331	0.316626492	0.097587360
2020-03-14T01:00:00	0.3573	5.595	172.0	0.973808975	1.349190120	0.030653564	0.316247169	0.097470449
2020-03-14T01:05:00	0.3532	5.593	172.0	0.961400756	1.326932232	0.029891223	0.308382242	0.095046402
2020-03-14T01:10:00	0.3584	5.589	172.0	0.977156179	1.355219404	0.030861065	0.318387917	0.098130248
2020-03-14T01:15:00	0.3547	5.583	172.0	0.965970362	1.335112197	0.030170715	0.311265707	0.095935114
2020-03-14T01:20:00	0.3546	5.580	173.0	0.965678173	1.334588561	0.030152800	0.311080881	0.095878149
2020-03-14T01:25:00	0.3531	5.580	173.0	0.961140816	1.326467513	0.029875369	0.308218671	0.094995988
2020-03-14T01:30:00	0.3527	5.577	172.0	0.959937970	1.324317908	0.029802064	0.307462399	0.094762897
2020-03-14T01:35:00	0.3548	5.575	172.0	0.966316755	1.335733074	0.030191961	0.311484900	0.096002671
2020-03-14T01:40:00	0.3535	5.572	172.0	0.962386730	1.328695529	0.029951405	0.309003124	0.095237764
2020-03-14T01:45:00	0.3557	5.569	172.0	0.969064514	1.340662230	0.030360795	0.313226728	0.096539520
2020-03-14T01:50:00	0.3550	5.567	172.0	0.966955237	1.336877797	0.030231145	0.311889152	0.096127266
2020-03-14T01:55:00	0.3536	5.566	173.0	0.962722571	1.329296351	0.029971919	0.309214768	0.095302995
2020-03-14T02:00:00	0.3567	5.566	172.0	0.972123848	1.346158752	0.030549398	0.315172505	0.097139227
2020-03-14T02:05:00	0.3496	5.564	172.0	0.950595716	1.307669010	0.029236163	0.301624105	0.092963478
2020-03-14T02:10:00	0.3515	5.561	172.0	0.956381661	1.317970451	0.029585924	0.305232527	0.094075629
2020-03-14T02:15:00	0.3471	5.557	172.0	0.943006250	1.294204470	0.028780914	0.296927386	0.091515904
2020-03-14T02:20:00	0.3556	5.549	172.0	0.968837574	1.340254854	0.030346831	0.313082661	0.096495117
2020-03-14T02:25:00	0.3562	5.457	171.0	0.970664882	1.343536406	0.030459373	0.314243736	0.096852971
2020-03-14T02:30:00	0.3506	5.471	172.0	0.953690639	1.313175351	0.029422961	0.303551265	0.093557448
2020-03-14T02:35:00	0.3556	5.448	172.0	0.968870088	1.340313216	0.030348831	0.313103299	0.096501478
2020-03-14T02:40:00	0.3516	5.456	172.0	0.956750606	1.318628404	0.029608306	0.305463438	0.094146798
2020-03-14T02:45:00	0.3549	5.455	172.0	0.966771554	1.336548435	0.030219870	0.311772824	0.096091412
2020-03-14T02:50:00	0.3562	5.455	172.0	0.970719048	1.343633727	0.030462713	0.314278190	0.096863590
2020-03-14T02:55:00	0.3535	5.448	172.0	0.962549553	1.328986807	0.029961350	0.309105723	0.095269386
2020-03-14T03:00:00	0.3518	5.444	172.0	0.957401450	1.319789392	0.029647813	0.305871021	0.094272419
2020-03-14T03:05:00	0.3547	5.440	172.0	0.966208958	1.335539847	0.030185349	0.311416679	0.095981645
2020-03-14T03:10:00	0.3518	5.434	172.0	0.957423187	1.319828173	0.029649133	0.305884638	0.094276616
2020-03-14T03:15:00	0.3494	5.429	171.0	0.949835556	1.306317953	0.029190385	0.301151818	0.092817915
2020-03-14T03:20:00	0.3469	5.427	171.0	0.942233761	1.292837035	0.028734801	0.296451649	0.091369277
2020-03-14T03:25:00	0.3498	5.422	170.0	0.951074038	1.308519427	0.029264989	0.301921498	0.093055138
2020-03-14T03:30:00	0.3521	5.411	171.0	0.958073924	1.320989384	0.029688664	0.306292470	0.094402314
2020-03-14T03:35:00	0.3522	5.399	171.0	0.958388388	1.321550675	0.029707777	0.306489661	0.094463090
2020-03-14T03:40:00	0.3468	5.388	171.0	0.941972595	1.292374856	0.028719221	0.296290907	0.091319735
2020-03-14T03:45:00	0.3551	5.380	171.0	0.967204618	1.337325012	0.030246457	0.312047126	0.096175955
2020-03-14T03:50:00	0.3508	5.375	171.0	0.954168599	1.314026521	0.029451868	0.303849498	0.093649366
2020-03-14T03:55:00	0.3540	5.370	171.0	0.963892699	1.331390555	0.030043457	0.309952810	0.095530466
2020-03-14T04:00:00	0.3533	5.362	171.0	0.961780758	1.327611711	0.029914410	0.308621452	0.095120129
2020-03-14T04:05:00	0.3482	5.355	171.0	0.946246385	1.299946174	0.028974781	0.298927478	0.092132352
2020-03-14T04:10:00	0.3562	5.348	171.0	0.970498576	1.343237615	0.030449121	0.314137964	0.096820371
2020-03-14T04:15:00	0.3510	5.343	171.0	0.954997364	1.315502933	0.029502031	0.304367013	0.093808869
2020-03-14T04:20:00	0.3562	5.337	171.0	0.970731801	1.343656641	0.030463499	0.314286302	0.096866091
2020-03-14T04:25:00	0.3561	5.329	166.0	0.970394386	1.343050439	0.030442699	0.314071710	0.096799951
2020-03-14T04:30:00	0.3515	5.318	171.0	0.956411728	1.318024066	0.029587748	0.305251341	0.094081428
2020-03-14T04:35:00	0.3554	5.306	170.0	0.968205456	1.339120411	0.030307954	0.312681576	0.096371498
2020-03-14T04:40:00	0.3537	5.297	171.0	0.963018818	1.329826428	0.029990022	0.309401528	0.095360556
2020-03-14T04:45:00	0.3526	5.289	170.0	0.959646965	1.323798061	0.029784344	0.307279590	0.094706554
2020-03-14T04:50:00	0.3569	5.283	170.0	0.972641705	1.347090036	0.030581388	0.315502541	0.097240947
2020-03-14T04:55:00	0.3555	5.275	170.0	0.968369317	1.339414451	0.030318029	0.312785520	0.096403535
2020-03-14T05:00:00	0.3525	5.265	171.0	0.959542499	1.323611464	0.029777985	0.307213980	0.094686332
2020-03-14T05:05:00	0.3542	5.255	171.0	0.964663981	1.332771646	0.030090663	0.310439827	0.095680570
2020-03-14T05:10:00	0.3557	5.247	171.0	0.969173538	1.340857955	0.030367505	0.313295952	0.096560855
2020-03-14T05:15:00	0.3492	5.238	172.0	0.949409952	1.305561752	0.029164772	0.300887572	0.092736472
2020-03-14T05:20:00	0.3546	5.228	170.0	0.965771979	1.334756663	0.030158551	0.311140212	0.095896435
2020-03-14T05:25:00	0.3545	5.216	171.0	0.965434157	1.334151319	0.030137843	0.310926574	0.095830590
2020-03-14T05:30:00	0.3474	5.202	170.0	0.943824800	1.295654052	0.028829822	0.297431955	0.091671417
2020-03-14T05:35:00	0.3514	5.187	170.0	0.955958666	1.317216268	0.029560275	0.304967908	0.093994071
2020-03-14T05:40:00	0.3549	5.170	170.0	0.966541947	1.336136773	0.030205778	0.311627446	0.096046605
2020-03-14T05:45:00	0.3540	5.155	170.0	0.964082588	1.331730527	0.030055075	0.310072673	0.095567409
2020-03-14T05:50:00	0.3578	5.138	170.0	0.975552000	1.352328482	0.030761520	0.317360927	0.097813720
2020-03-14T05:55:00	0.3575	5.123	170.0	0.974610249	1.350632476	0.030703165	0.316758893	0.097628167
2020-03-14T06:00:00	0.3560	5.108	171.0	0.970037194	1.342408822	0.030420688	0.313844629	0.096729963
2020-03-14T06:05:00	0.3580	5.093	170.0	0.976052547	1.353230265	0.030792561	0.317681175	0.097912423
2020-03-14T06:10:00	0.3564	5.078	170.0	0.971178467	1.344459293	0.030491046	0.314570505	0.096953685
2020-03-14T06:15:00	0.3584	5.064	170.0	0.977192152	1.355284261	0.030863299	0.318410969	0.098137353
2020-03-14T06:20:00	0.3562	5.051	170.0	0.970503684	1.343246792	0.030449436	0.314141213	0.096821373
2020-03-14T06:25:00	0.3589	5.039	170.0	0.978935628	1.358429052	0.030971699	0.319529306	0.098482035
2020-03-14T06:30:00	0.3599	5.029	170.0	0.981920596	1.363819907	0.031157785	0.321449127	0.099073743
2020-03-14T06:35:00	0.3573	5.020	169.0	0.974030263	1.349588395	0.030667258	0.316388445	0.097513992
2020-03-14T06:40:00	0.3553	5.011	169.0	0.967942448	1.338648510	0.030291787	0.312514780	0.096320090
2020-03-14T06:45:00	0.3581	5.001	169.0	0.976379638	1.353819679	0.030812855	0.317890545	0.097976953
2020-03-14T06:50:00	0.3584	4.991	169.0	0.977251640	1.355391514	0.030866994	0.318449091	0.098149102
2020-03-14T06:55:00	0.3622	4.982	169.0	0.988684494	1.376066969	0.031581787	0.325823470	0.100421958
2020-03-14T07:00:00	0.3636	4.974	169.0	0.992866830	1.383661594	0.031845582	0.328545003	0.101260761
2020-03-14T07:05:00	0.3635	4.965	169.0	0.992531220	1.383051549	0.031824368	0.328326142	0.101193306
2020-03-14T07:10:00	0.3593	4.957	169.0	0.980133883	1.360592081	0.031046324	0.320299199	0.098719324
2020-03-14T07:15:00	0.3638	4.950	169.0	0.993666293	1.385115229	0.031896149	0.329066689	0.101421549
2020-03-14T07:20:00	0.3643	4.941	169.0	0.995136482	1.387790018	0.031989258	0.330027278	0.101717612
2020-03-14T07:25:00	0.3630	4.934	169.0	0.991188507	1.380611950	0.031739575	0.327451345	0.100923685
2020-03-14T07:30:00	0.3624	4.926	169.0	0.989346481	1.377267946	0.031623458	0.326253386	0.100554462
2020-03-14T07:35:00	0.3625	4.922	169.0	0.989613212	1.377751967	0.031640257	0.326426700	0.100607879
2020-03-14T07:40:00	0.3635	4.919	169.0	0.992590487	1.383159272	0.031828114	0.328364786	0.101205216
2020-03-14T07:45:00	0.3654	4.918	169.0	0.998272479	1.393502411	0.032188378	0.332081566	0.102350764
2020-03-14T07:50:00	0.3625	4.916	169.0	0.989509505	1.377563767	0.031633725	0.326359308	0.100587108
2020-03-14T07:55:00	0.3654	4.916	169.0	0.998504142	1.393924772	0.032203116	0.332233608	0.102397625
2020-03-14T08:00:00	0.3612	4.917	169.0	0.985823139	1.370880721	0.031402025	0.323968898	0.099850361
2020-03-14T08:05:00	0.3599	4.917	169.0	0.981866270	1.363721718	0.031154393	0.321414128	0.099062956
2020-03-14T08:10:00	0.3637	4.917	169.0	0.993286390	1.384424389	0.031872114	0.328818727	0.101345125
2020-03-14T08:15:00	0.3625	4.922	169.0	0.989637953	1.377796866	0.031641816	0.326442779	0.100612835
2020-03-14T08:20:00	0.3669	4.920	169.0	1.002839110	1.401837644	0.032479590	0.335085940	0.103276741
2020-03-14T08:25:00	0.3569	4.917	169.0	0.972661785	1.347126151	0.030582629	0.315515342	0.097244893
2020-03-14T08:30:00	0.3613	4.914	169.0	0.985917102	1.371050906	0.031407918	0.324029705	0.099869102
2020-03-14T08:35:00	0.3604	4.909	169.0	0.983167544	1.366074412	0.031235708	0.322253041	0.099321517
2020-03-14T08:40:00	0.3630	4.906	169.0	0.991272525	1.380764553	0.031744877	0.327506045	0.100940544
2020-03-14T08:45:00	0.3610	4.909	169.0	0.985210122	1.369770635	0.031363588	0.323572353	0.099728142
2020-03-14T08:50:00	0.3592	4.928	169.0	0.979742884	1.359886119	0.031021962	0.320047863	0.098641860
2020-03-14T08:55:00	0.3631	4.950	169.0	0.991470026	1.381123303	0.031757343	0.327634649	0.100980181
2020-03-14T09:00:00	0.3597	4.980	169.0	0.981183388	1.362487717	0.031111768	0.320974378	0.098927420
2020-03-14T09:05:00	0.3599	5.013	169.0	0.981752521	1.363516137	0.031147291	0.321340855	0.099040372
2020-03-14T09:10:00	0.3567	5.031	169.0	0.972046808	1.346020230	0.030544640	0.315123423	0.097124099
2020-03-14T09:15:00	0.3585	5.033	169.0	0.977454912	1.355758027	0.030879622	0.318579372	0.098189257
2020-03-14T09:20:00	0.3615	5.042	169.0	0.986777257	1.372609206	0.031461902	0.324586640	0.100040755
2020-03-14T09:25:00	0.3608	5.082	170.0	0.984631624	1.368723389	0.031327340	0.323198389	0.099612882
2020-03-14T09:30:00	0.3624	5.127	170.0	0.989420708	1.377402633	0.031628132	0.326301611	0.100569326
2020-03-14T09:35:00	0.3589	5.155	170.0	0.978826897	1.358232842	0.030964932	0.319459496	0.098460519
2020-03-14T09:40:00	0.3580	5.211	170.0	0.976072610	1.353266415	0.030793806	0.317694015	0.097916381
2020-03-14T09:45:00	0.3601	5.232	170.0	0.982380990	1.364652135	0.031186543	0.321745813	0.099165184
2020-03-14T09:50:00	0.3591	5.244	171.0	0.979327046	1.359135469	0.030996064	0.319780682	0.098559512
2020-03-14T09:55:00	0.3614	5.323	172.0	0.986233576	1.371624165	0.031427774	0.324234554	0.099932238
2020-03-14T10:00:00	0.3572	5.426	171.0	0.973514842	1.348660811	0.030635368	0.316059441	0.097412589
2020-03-14T10:05:00	0.3595	5.472	171.0	0.980465747	1.361191386	0.031067010	0.320512611	0.098785099
2020-03-14T10:10:00	0.3563	5.490	171.0	0.970791725	1.343764312	0.030467194	0.314324422	0.096877840
2020-03-14T10:15:00	0.3606	5.514	171.0	0.983785956	1.367193062	0.031274394	0.322652155	0.099444528
2020-03-14T10:20:00	0.3586	5.529	171.0	0.977747224	1.356285155	0.030897787	0.318766775	0.098247016
2020-03-14T10:25:00	0.3610	5.570	172.0	0.984992644	1.369376900	0.031349958	0.323431738	0.099684803
2020-03-14T10:30:00	0.3579	5.662	172.0	0.975631577	1.352471831	0.030766453	0.317411828	0.097829408
2020-03-14T10:35:00	0.3612	5.760	172.0	0.985595855	1.370469102	0.031387771	0.323821843	0.099805037
2020-03-14T10:40:00	0.3620	5.810	173.0	0.988007823	1.374839787	0.031539223	0.325384349	0.100286616
2020-03-14T10:45:00	0.3599	5.850	173.0	0.981673405	1.363373155	0.031142351	0.321289896	0.099024666
2020-03-14T10:50:00	0.3616	5.926	173.0	0.986802015	1.372654068	0.031463456	0.324602678	0.100045698
2020-03-14T10:55:00	0.3563	5.971	173.0	0.970791725	1.343764312	0.030467194	0.314324422	0.096877840
2020-03-14T11:00:00	0.3550	6.016	173.0	0.966855144	1.336698316	0.030225001	0.311825759	0.096107727
2020-03-14T11:05:00	0.3576	6.118	174.0	0.974724538	1.350838254	0.030710243	0.316831920	0.097650675
2020-03-14T11:10:00	0.3555	6.195	174.0	0.968369660	1.339415067	0.030318050	0.312785737	0.096403602
2020-03-14T11:15:00	0.3605	6.248	175.0	0.983484229	1.366647220	0.031255515	0.322457390	0.099384499
2020-03-14T11:20:00	0.3609	6.278	175.0	0.984691005	1.368830870	0.031331059	0.323236764	0.099624710
2020-03-14T11:25:00	0.3618	6.298	175.0	0.987404963	1.373746834	0.031501329	0.324993409	0.100166125
2020-03-14T11:30:00	0.3612	6.321	175.0	0.985595855	1.370469102	0.031387771	0.323821843	0.099805037
2020-03-14T11:35:00	0.3601	6.360	175.0	0.982277101	1.364464322	0.031180052	0.321678852	0.099144546
2020-03-14T11:40:00	0.3564	6.410	175.0	0.971094382	1.344308180	0.030485860	0.314516993	0.096937192
2020-03-14T11:45:00	0.3590	6.467	175.0	0.978955677	1.358465232	0.030972946	0.319542179	0.098486003
2020-03-14T11:50:00	0.3574	6.525	176.0	0.974119734	1.349749438	0.030672795	0.316445576	0.097531600
2020-03-14T11:55:00	0.3548	6.578	176.0	0.966249181	1.335611945	0.030187816	0.311442133	0.095989490
2020-03-14T12:00:00	0.3539	6.607	176.0	0.963521238	1.330725603	0.030020737	0.309718409	0.095458222
2020-03-14T12:05:00	0.3549	6.635	177.0	0.966552173	1.336155107	0.030206406	0.311633920	0.096048601
2020-03-14T12:10:00	0.3587	6.650	176.0	0.978049370	1.356830104	0.030916569	0.318960547	0.098306738
2020-03-14T12:15:00	0.3537	6.676	176.0	0.962914782	1.329640266	0.029983664	0.309335934	0.095340339
2020-03-14T12:20:00	0.3558	6.691	176.0	0.969278102	1.341045681	0.030373941	0.313362352	0.096581320
2020-03-14T12:25:00	0.3577	6.699	176.0	0.975026906	1.351382733	0.030728975	0.317025170	0.097710236
2020-03-14T12:30:00	0.3543	6.703	176.0	0.964733881	1.332896840	0.030094944	0.310483986	0.095694180
2020-03-14T12:35:00	0.3541	6.702	176.0	0.964127604	1.331811128	0.030057830	0.310101093	0.095576168
2020-03-14T12:40:00	0.3551	6.694	176.0	0.967158092	1.337241572	0.030243600	0.312017650	0.096166870
2020-03-14T12:45:00	0.3450	6.683	176.0	0.936446303	1.282610149	0.028390643	0.292901033	0.090274943
2020-03-14T12:50:00	0.3548	6.660	176.0	0.966249181	1.335611945	0.030187816	0.311442133	0.095989490
2020-03-14T12:55:00	0.3509	6.624	176.0	0.954414940	1.314465300	0.029466774	0.304003272	0.093696761
2020-03-14T13:00:00	0.3526	6.602	176.0	0.959577665	1.323674276	0.029780126	0.307236066	0.094693139
2020-03-14T13:05:00	0.3501	6.579	176.0	0.951983161	1.310136366	0.029319821	0.302487193	0.093229491
2020-03-14T13:10:00	0.3543	6.564	176.0	0.964733881	1.332896840	0.030094944	0.310483986	0.095694180
2020-03-14T13:15:00	0.3535	6.561	176.0	0.962308236	1.328555118	0.029946611	0.308953669	0.095222521
2020-03-14T13:20:00	0.3510	6.557	175.0	0.954718810	1.315006628	0.029485165	0.304193017	0.093755242
2020-03-14T13:25:00	0.3530	6.548	176.0	0.960791477	1.325843069	0.029854069	0.307998922	0.094928259
2020-03-14T13:30:00	0.3534	6.548	176.0	0.962004929	1.328012614	0.029928093	0.308762615	0.095163637
2020-03-14T13:35:00	0.3506	6.555	176.0	0.953503193	1.312841597	0.029411628	0.303434349	0.093521413
2020-03-14T13:40:00	0.3519	6.562	176.0	0.957452627	1.319880699	0.029650921	0.305903083	0.094282301
2020-03-14T13:45:00	0.3511	6.563	175.0	0.955022658	1.315548004	0.029503562	0.304382815	0.093813740
2020-03-14T13:50:00	0.3437	6.563	176.0	0.932476389	1.275613222	0.028155909	0.290479321	0.089528548
2020-03-14T13:55:00	0.3526	6.570	176.0	0.959577665	1.323674276	0.029780126	0.307236066	0.094693139
2020-03-14T14:00:00	0.3539	6.560	176.0	0.963521238	1.330725603	0.030020737	0.309718409	0.095458222
2020-03-14T14:05:00	0.3515	6.558	175.0	0.956237824	1.317713975	0.029577201	0.305142530	0.094047891
2020-03-14T14:10:00	0.3494	6.548	176.0	0.949854163	1.306351017	0.029191505	0.301163374	0.092821477
2020-03-14T14:15:00	0.3496	6.533	175.0	0.950462562	1.307432310	0.029228141	0.301541346	0.092937971
2020-03-14T14:20:00	0.3461	6.533	175.0	0.939802423	1.288536833	0.028589936	0.294957101	0.090908643
2020-03-14T14:25:00	0.3482	6.530	175.0	0.946201861	1.299867208	0.028972112	0.298899943	0.092123865
2020-03-14T14:30:00	0.3416	6.523	175.0	0.926055200	1.264327278	0.027778539	0.286586065	0.088328609
2020-03-14T14:35:00	0.3481	6.514	175.0	0.945897354	1.299327196	0.028953863	0.298711664	0.092065836
2020-03-14T14:40:00	0.3506	6.507	175.0	0.953503193	1.312841597	0.029411628	0.303434349	0.093521413
2020-03-14T14:45:00	0.3506	6.501	175.0	0.953503193	1.312841597	0.029411628	0.303434349	0.093521413
2020-03-14T14:50:00	0.3524	6.480	175.0	0.958970624	1.322590162	0.029743185	0.306854952	0.094575676
2020-03-14T14:55:00	0.3505	6.461	175.0	0.953199232	1.312300457	0.029393257	0.303244813	0.093462996
2020-03-14T15:00:00	0.3495	6.442	175.0	0.950158374	1.306891640	0.029209821	0.301352334	0.092879716
2020-03-14T15:05:00	0.3507	6.434	175.0	0.953807131	1.313382785	0.029430005	0.303623938	0.093579846
2020-03-14T15:10:00	0.3523	6.418	175.0	0.958667070	1.322048175	0.029724722	0.306664473	0.094516969
2020-03-14T15:15:00	0.3497	6.406	175.0	0.950766727	1.307973027	0.029246467	0.301730410	0.092996243
2020-03-14T15:20:00	0.3492	6.387	175.0	0.949245674	1.305269912	0.029154889	0.300785611	0.092705047
2020-03-14T15:25:00	0.3526	6.365	175.0	0.959577665	1.323674276	0.029780126	0.307236066	0.094693139
2020-03-14T15:30:00	0.3523	6.350	174.0	0.958667070	1.322048175	0.029724722	0.306664473	0.094516969
2020-03-14T15:35:00	0.3557	6.337	175.0	0.968975310	1.340502096	0.030355306	0.313170095	0.096522065
2020-03-14T15:40:00	0.3529	6.326	175.0	0.960488058	1.325300800	0.029835575	0.307808129	0.094869455
2020-03-14T15:45:00	0.3528	6.316	175.0	0.960184616	1.324758579	0.029817087	0.307617389	0.094810667
2020-03-14T15:50:00	0.3493	6.308	176.0	0.949549930	1.305810441	0.029173194	0.300974466	0.092763254
2020-03-14T15:55:00	0.3505	6.299	174.0	0.953199232	1.312300457	0.029393257	0.303244813	0.093462996
2020-03-14T16:00:00	0.3515	6.290	175.0	0.956237824	1.317713975	0.029577201	0.305142530	0.094047891
2020-03-14T16:05:00	0.3540	6.282	175.0	0.963912993	1.331426888	0.030044699	0.309965619	0.095534414
2020-03-14T16:10:00	0.3535	6.272	175.0	0.962485420	1.328872076	0.029957433	0.309065309	0.095256930
2020-03-14T16:15:00	0.3536	6.264	175.0	0.962877274	1.329573153	0.029981372	0.309312288	0.095333051
2020-03-14T16:20:00	0.3538	6.254	174.0	0.963269091	1.330274309	0.030005320	0.309559355	0.095409200
2020-03-14T16:25:00	0.3512	6.242	175.0	0.955466396	1.316338782	0.029530441	0.304660114	0.093899206
2020-03-14T16:30:00	0.3480	6.230	175.0	0.945822026	1.299193622	0.028949349	0.298665098	0.092051484
2020-03-14T16:35:00	0.3527	6.217	174.0	0.959894729	1.324240659	0.029799431	0.307435231	0.094754524
2020-03-14T16:40:00	0.3512	6.202	174.0	0.955428820	1.316271812	0.029528164	0.304636627	0.093891967
2020-03-14T16:45:00	0.3523	6.189	174.0	0.958857993	1.322389052	0.029736333	0.306784269	0.094553891
2020-03-14T16:50:00	0.3560	6.176	174.0	0.970162445	1.342633793	0.030428405	0.313924245	0.096754501
2020-03-14T16:55:00	0.3539	6.162	174.0	0.963585869	1.330841290	0.030024689	0.309759185	0.095470789
2020-03-14T17:00:00	0.3565	6.148	174.0	0.971549921	1.345126934	0.030513966	0.314806962	0.097026563
2020-03-14T17:05:00	0.3548	6.133	174.0	0.966490781	1.336045044	0.030202639	0.311595055	0.096036622
2020-03-14T17:10:00	0.3537	6.120	174.0	0.962941916	1.329688819	0.029985322	0.309353041	0.095345612
2020-03-14T17:15:00	0.3568	6.104	173.0	0.972420240	1.346691734	0.030567705	0.315361374	0.097197438
2020-03-14T17:20:00	0.3550	6.088	174.0	0.967059239	1.337064297	0.030237530	0.311955028	0.096147569
2020-03-14T17:25:00	0.3571	6.069	173.0	0.973202016	1.348097952	0.030616022	0.315859852	0.097351074
2020-03-14T17:30:00	0.3583	6.052	173.0	0.976918594	1.354791093	0.030846310	0.318235698	0.098083333
2020-03-14T17:35:00	0.3604	6.029	173.0	0.983348447	1.366401610	0.031247022	0.322369764	0.099357492
2020-03-14T17:40:00	0.3598	6.006	173.0	0.981625742	1.363287022	0.031139376	0.321259199	0.099015205
2020-03-14T17:45:00	0.3617	5.980	173.0	0.987143963	1.373273762	0.031484932	0.324824239	0.100113985
2020-03-14T17:50:00	0.3601	5.952	173.0	0.982405774	1.364696941	0.031188091	0.321761789	0.099170108
2020-03-14T17:55:00	0.3626	5.924	173.0	0.990032317	1.378512629	0.031666663	0.326699128	0.100691844
2020-03-14T18:00:00	0.3646	5.896	172.0	0.995840204	1.389071067	0.032033880	0.330487635	0.101859499
2020-03-14T18:05:00	0.3600	5.866	173.0	0.982066614	1.364083832	0.031166904	0.321543207	0.099102739
2020-03-14T18:10:00	0.3613	5.837	173.0	0.986076777	1.371340127	0.031417936	0.324133051	0.099900954
2020-03-14T18:15:00	0.3652	5.806	172.0	0.997908357	1.392838658	0.032165223	0.331842671	0.102277134
2020-03-14T18:20:00	0.3637	5.775	172.0	0.993182467	1.384235433	0.031865541	0.328750915	0.101324225
2020-03-14T18:25:00	0.3672	5.743	172.0	1.003792966	1.403581194	0.032540604	0.335715416	0.103470752
2020-03-14T18:30:00	0.3661	5.710	172.0	1.000576519	1.397705354	0.032335120	0.333595470	0.102817364
2020-03-14T18:35:00	0.3627	5.678	172.0	0.990133794	1.378696832	0.031673059	0.326765110	0.100712180
2020-03-14T18:40:00	0.3640	5.646	172.0	0.994136154	1.385969846	0.031925889	0.329373514	0.101516116
2020-03-14T18:45:00	0.3624	5.615	171.0	0.989405965	1.377375881	0.031627204	0.326292032	0.100566373
2020-03-14T18:50:00	0.3651	5.583	171.0	0.997621110	1.392315130	0.032146962	0.331654281	0.102219071
2020-03-14T18:55:00	0.3598	5.550	171.0	0.981439054	1.362949667	0.031127723	0.321138978	0.098978152
2020-03-14T19:00:00	0.3638	5.519	171.0	0.993584881	1.384967172	0.031890998	0.329013542	0.101405169
2020-03-14T19:05:00	0.3667	5.488	171.0	1.002392548	1.401021676	0.032451047	0.334791471	0.103185983
2020-03-14T19:10:00	0.3591	5.458	171.0	0.979287944	1.359064891	0.030993630	0.319755564	0.098551770
2020-03-14T19:15:00	0.3659	5.427	171.0	0.999863964	1.396404995	0.032289698	0.333126859	0.102672933
2020-03-14T19:20:00	0.3682	5.398	171.0	1.006858495	1.409190578	0.032737135	0.337742983	0.104095668
2020-03-14T19:25:00	0.3699	5.369	171.0	1.011743994	1.418148858	0.033051732	0.340988622	0.105096005
2020-03-14T19:30:00	0.3619	5.340	171.0	0.987787317	1.374439981	0.031525360	0.325241326	0.100242535
2020-03-14T19:35:00	0.3685	5.311	171.0	1.007721429	1.410771225	0.032792578	0.338314985	0.104271964
2020-03-14T19:40:00	0.3666	5.282	170.0	1.002105611	1.400497477	0.032432715	0.334602339	0.103127690
2020-03-14T19:45:00	0.3675	5.253	170.0	1.004595705	1.405049193	0.032592003	0.336245685	0.103634186
2020-03-14T19:50:00	0.3710	5.225	170.0	1.015177237	1.424457952	0.033273835	0.343280020	0.105802236
2020-03-14T19:55:00	0.3621	5.196	170.0	0.988528913	1.375784776	0.031571997	0.325722477	0.100390831
2020-03-14T20:00:00	0.3700	5.168	170.0	1.012057085	1.418723738	0.033071951	0.341197222	0.105160298
2020-03-14T20:05:00	0.3692	5.142	169.0	1.009746610	1.414483587	0.032922906	0.339659548	0.104686371
2020-03-14T20:10:00	0.3672	5.113	170.0	1.003833267	1.403654878	0.032543184	0.335742026	0.103478953
2020-03-14T20:15:00	0.3680	5.087	169.0	1.006322330	1.408208837	0.032702713	0.337387859	0.103986215
2020-03-14T20:20:00	0.3643	5.060	169.0	0.994991436	1.387526036	0.031980065	0.329932437	0.101688381
2020-03-14T20:25:00	0.3635	5.034	169.0	0.992671476	1.383306481	0.031833233	0.328417597	0.101221493
2020-03-14T20:30:00	0.3694	5.006	169.0	1.010484303	1.415836832	0.032970452	0.340150071	0.104837555
2020-03-14T20:35:00	0.3661	4.980	169.0	1.000366958	1.397322871	0.032321758	0.333457614	0.102774875
2020-03-14T20:40:00	0.3665	4.954	169.0	1.001656588	1.399677329	0.032404038	0.334306491	0.103036507
2020-03-14T20:45:00	0.3669	4.928	168.0	1.002945819	1.402032654	0.032486412	0.335156327	0.103298435
2020-03-14T20:50:00	0.3618	4.904	168.0	0.987387516	1.373715208	0.031500233	0.324982099	0.100162639
2020-03-14T20:55:00	0.3697	4.879	168.0	1.011221865	1.417190361	0.033018028	0.340640909	0.104988836
2020-03-14T21:00:00	0.3668	4.854	168.0	1.002608334	1.401415941	0.032464838	0.334933745	0.103229833
2020-03-14T21:05:00	0.3679	4.830	168.0	1.005998544	1.407616106	0.032681936	0.337173505	0.103920149
2020-03-14T21:10:00	0.3695	4.805	168.0	1.010585282	1.416022112	0.032976963	0.340217247	0.104858260
2020-03-14T21:15:00	0.3658	4.779	168.0	0.999566571	1.395862418	0.032270751	0.332931389	0.102612687
2020-03-14T21:20:00	0.3657	4.756	167.0	0.999353794	1.395474271	0.032257199	0.332791575	0.102569595
2020-03-14T21:25:00	0.3658	4.731	168.0	0.999441595	1.395634433	0.032262791	0.332849264	0.102587376
2020-03-14T21:30:00	0.3648	4.706	167.0	0.996522583	1.390313715	0.032077182	0.330934376	0.101997189
2020-03-14T21:35:00	0.3636	4.683	167.0	0.992999471	1.383902728	0.031853969	0.328631525	0.101287428
2020-03-14T21:40:00	0.3659	4.660	167.0	1.000005538	1.396663319	0.032298720	0.333219936	0.102701620
2020-03-14T21:45:00	0.3628	4.638	167.0	0.990465163	1.379298407	0.031693948	0.326980623	0.100778604
2020-03-14T21:50:00	0.3630	4.617	167.0	0.991155555	1.380552100	0.031737496	0.327429893	0.100917073
2020-03-14T21:55:00	0.3630	4.593	167.0	0.991243530	1.380711888	0.031743047	0.327487167	0.100934725
2020-03-14T22:00:00	0.3607	4.570	167.0	0.984097195	1.367756202	0.031293874	0.322853130	0.099506470
2020-03-14T22:05:00	0.3599	4.548	167.0	0.981765719	1.363539988	0.031148115	0.321349356	0.099042992
2020-03-14T22:10:00	0.3646	4.524	167.0	0.996011525	1.389383009	0.032044749	0.330599763	0.101894058
2020-03-14T22:15:00	0.3609	4.502	168.0	0.984948675	1.369297303	0.031347203	0.323403313	0.099676042
2020-03-14T22:20:00	0.3656	4.480	168.0	0.998882956	1.394615524	0.032227222	0.332482309	0.102474277
2020-03-14T22:25:00	0.3625	4.459	166.0	0.989635906	1.377793150	0.031641687	0.326441448	0.100612425
2020-03-14T22:30:00	0.3641	4.438	166.0	0.994536260	1.386697753	0.031951227	0.329634914	0.101596682
2020-03-14T22:35:00	0.3636	4.416	166.0	0.992812818	1.383563408	0.031842168	0.328509775	0.101249903
2020-03-14T22:40:00	0.3667	4.394	166.0	1.002217544	1.400701955	0.032439865	0.334676111	0.103150428
2020-03-14T22:45:00	0.3635	4.374	166.0	0.992676863	1.383316275	0.031833574	0.328421110	0.101222576
2020-03-14T22:50:00	0.3612	4.353	166.0	0.985829184	1.370891670	0.031402404	0.323972811	0.099851567
2020-03-14T22:55:00	0.3626	4.332	166.0	0.989830311	1.378145974	0.031653934	0.326567804	0.100651369
2020-03-14T23:00:00	0.3645	4.310	166.0	0.995633097	1.388694002	0.032020744	0.330352113	0.101817729
2020-03-14T23:05:00	0.3662	4.288	166.0	1.000826874	1.398162350	0.032351087	0.333760205	0.102868137
2020-03-14T23:10:00	0.3640	4.268	166.0	0.994293604	1.386256274	0.031935859	0.329476366	0.101547816
2020-03-14T23:15:00	0.3663	4.249	166.0	1.000991660	1.398463180	0.032361600	0.333868660	0.102901564
2020-03-14T23:20:00	0.3657	4.235	165.0	0.999270893	1.395323055	0.032251920	0.332737110	0.102552809
2020-03-14T23:25:00	0.3703	4.220	165.0	1.013157365	1.420744762	0.033143063	0.341930871	0.105386415
2020-03-14T23:30:00	0.3638	4.204	166.0	0.993419801	1.384666977	0.031880553	0.328905792	0.101371959
2020-03-14T23:35:00	0.3649	4.193	166.0	0.996812120	1.390841113	0.032095566	0.331124035	0.102055643
2020-03-14T23:40:00	0.3705	4.184	166.0	1.013703376	1.421748123	0.033178384	0.342295275	0.105498728
2020-03-14T23:45:00	0.3679	4.174	166.0	1.005990012	1.407600489	0.032681388	0.337167858	0.103918408
2020-03-14T23:50:00	0.3680	4.164	166.0	1.006072304	1.407751124	0.032686668	0.337222329	0.103935197
2020-03-14T23:55:00	0.3690	4.155	168.0	1.009154467	1.413397721	0.032884769	0.339266098	0.104565106
2020-03-15T00:00:00	0.3692	4.143	167.0	1.009836401	1.414648273	0.032928691	0.339719232	0.104704767
2020-03-15T00:05:00	0.3679	4.131	166.0	1.006019075	1.407653687	0.032683253	0.337187095	0.103924337
2020-03-15T00:10:00	0.3713	4.119	165.0	1.015992916	1.425958553	0.033326727	0.343825699	0.105970420
2020-03-15T00:15:00	0.3688	4.107	165.0	1.008583709	1.412351390	0.032848033	0.338887102	0.104448296
2020-03-15T00:20:00	0.3688	4.100	165.0	1.008665949	1.412502136	0.032853325	0.338941696	0.104465123
2020-03-15T00:25:00	0.3687	4.092	165.0	1.008148328	1.411553445	0.032820026	0.338598161	0.104359242
2020-03-15T00:30:00	0.3692	4.079	165.0	1.009730037	1.414453191	0.032921838	0.339648532	0.104682976
2020-03-15T00:35:00	0.3692	4.068	165.0	1.009812255	1.414603987	0.032927135	0.339703182	0.104699820
2020-03-15T00:40:00	0.3670	4.056	165.0	1.003293073	1.402667331	0.032508620	0.335385439	0.103369050
2020-03-15T00:45:00	0.3644	4.047	165.0	0.995259543	1.388014001	0.031997059	0.330107754	0.101742416
2020-03-15T00:50:00	0.3707	4.036	165.0	1.014254201	1.422760621	0.033214039	0.342663115	0.105612100
2020-03-15T00:55:00	0.3673	4.027	165.0	1.004140625	1.404216896	0.032562859	0.335945013	0.103541516
2020-03-15T01:00:00	0.3694	4.015	165.0	1.010523112	1.415908040	0.032972954	0.340175888	0.104845512
2020-03-15T01:05:00	0.3652	4.005	165.0	0.997695018	1.392449825	0.032151660	0.331702748	0.102234008
2020-03-15T01:10:00	0.3700	3.996	164.0	1.012186095	1.418960647	0.033080285	0.341283198	0.105186796
2020-03-15T01:15:00	0.3684	3.985	164.0	1.007471011	1.410312458	0.032776483	0.338148937	0.104220787
2020-03-15T01:20:00	0.3666	3.976	165.0	1.001849480	1.400029625	0.032416355	0.334433563	0.103075672
2020-03-15T01:25:00	0.3623	3.964	164.0	0.988994579	1.376629473	0.031601302	0.326024809	0.100484013
2020-03-15T01:30:00	0.3612	3.953	165.0	0.985761247	1.370768627	0.031398143	0.323928850	0.099838017
2020-03-15T01:35:00	0.3644	3.940	164.0	0.995482821	1.388420430	0.032011214	0.330253798	0.101787428
2020-03-15T01:40:00	0.3660	3.924	164.0	1.000075762	1.396791460	0.032303195	0.333266109	0.102715851
2020-03-15T01:45:00	0.3598	3.913	164.0	0.981483539	1.363030050	0.031130499	0.321167622	0.098986980
2020-03-15T01:50:00	0.3635	3.902	164.0	0.992720750	1.383396048	0.031836348	0.328449730	0.101231397
2020-03-15T01:55:00	0.3672	3.891	164.0	1.003927606	1.403827371	0.032549222	0.335804323	0.103498154
2020-03-15T02:00:00	0.3686	3.879	164.0	1.007911356	1.411119213	0.032804788	0.338440953	0.104310789
2020-03-15T02:05:00	0.3686	3.865	163.0	1.007993610	1.411269930	0.032810077	0.338495516	0.104327605
2020-03-15T02:10:00	0.3641	3.854	164.0	0.994555893	1.386733475	0.031952470	0.329647744	0.101600636
2020-03-15T02:15:00	0.3672	3.843	163.0	1.003656418	1.403331545	0.032531866	0.335625263	0.103442966
2020-03-15T02:20:00	0.3656	3.835	164.0	0.998931680	1.394704380	0.032230323	0.332514306	0.102484138
2020-03-15T02:25:00	0.3652	3.824	164.0	0.997811497	1.392662116	0.032159064	0.331779140	0.102257553
2020-03-15T02:30:00	0.3669	3.817	164.0	1.003002557	1.402136346	0.032490040	0.335193756	0.103309971
2020-03-15T02:35:00	0.3693	3.809	164.0	1.009986466	1.414923528	0.032938361	0.339818994	0.104735514
2020-03-15T02:40:00	0.3705	3.801	163.0	1.013664901	1.421677411	0.033175895	0.342269590	0.105490812
2020-03-15T02:45:00	0.3709	3.795	163.0	1.014945072	1.424030958	0.033258789	0.343124795	0.105754394
2020-03-15T02:50:00	0.3675	3.787	163.0	1.004833171	1.405483575	0.032607216	0.336402640	0.103682561
2020-03-15T02:55:00	0.3669	3.782	163.0	1.002813665	1.401791146	0.032477963	0.335069157	0.103271568
2020-03-15T03:00:00	0.3666	3.774	163.0	1.001994933	1.400295305	0.032425645	0.334529403	0.103105211
2020-03-15T03:05:00	0.3713	3.768	164.0	1.016171752	1.426287644	0.033338330	0.343945404	0.106007314
2020-03-15T03:10:00	0.3714	3.760	163.0	1.016253844	1.426438716	0.033343657	0.344000360	0.106024252
2020-03-15T03:15:00	0.3733	3.753	163.0	1.022020026	1.437066478	0.033719032	0.347873042	0.107217850
2020-03-15T03:20:00	0.3638	3.744	158.0	0.993604518	1.385002884	0.031892240	0.329026361	0.101409120
2020-03-15T03:25:00	0.3717	3.737	159.0	1.017398074	1.428545119	0.033417956	0.344766887	0.106260503
2020-03-15T03:30:00	0.3693	3.728	159.0	1.009991356	1.414932498	0.032938676	0.339822245	0.104736516
2020-03-15T03:35:00	0.3722	3.720	158.0	1.018759148	1.431052351	0.033506457	0.345679943	0.106541916
2020-03-15T03:40:00	0.3673	3.713	163.0	1.004155316	1.404243760	0.032563800	0.335954717	0.103544506
2020-03-15T03:45:00	0.3694	3.707	163.0	1.010237989	1.415384929	0.032954572	0.339986242	0.104787062
2020-03-15T03:50:00	0.3705	3.700	163.0	1.013616654	1.421588742	0.033172773	0.342237383	0.105480885
2020-03-15T03:55:00	0.3713	3.694	158.0	1.016094542	1.426145560	0.033333320	0.343893720	0.105991384
2020-03-15T04:00:00	0.3721	3.687	157.0	1.018570967	1.430705596	0.033494213	0.345553622	0.106502982
2020-03-15T04:05:00	0.3700	3.679	158.0	1.012317308	1.419201617	0.033088762	0.341370654	0.105213751
2020-03-15T04:10:00	0.3735	3.671	158.0	1.022527439	1.438003237	0.033752179	0.348215012	0.107323248
2020-03-15T04:15:00	0.3714	3.663	163.0	1.016279681	1.426486267	0.033345333	0.344017658	0.106029583
2020-03-15T04:20:00	0.3702	3.655	157.0	1.012720084	1.419941413	0.033114791	0.341639192	0.105296517
2020-03-15T04:25:00	0.3696	3.646	158.0	1.010956345	1.416703035	0.033000896	0.340464163	0.104934361
2020-03-15T04:30:00	0.3717	3.637	158.0	1.017280715	1.428329017	0.033410331	0.344688223	0.106236258
2020-03-15T04:35:00	0.3698	3.628	159.0	1.011624577	1.417929614	0.033044021	0.340909078	0.105071489
2020-03-15T04:40:00	0.3678	3.618	162.0	1.005660660	1.406997674	0.032660262	0.336949901	0.103851232
2020-03-15T04:45:00	0.3725	3.607	163.0	1.019777377	1.432929198	0.033572753	0.346363904	0.106752719
2020-03-15T04:50:00	0.3728	3.596	162.0	1.020708954	1.434647198	0.033633472	0.346990333	0.106945791
2020-03-15T04:55:00	0.3710	3.582	162.0	1.015057442	1.424237621	0.033266071	0.343199920	0.105777549
2020-03-15T05:00:00	0.3687	3.570	157.0	1.008198676	1.411645712	0.032823264	0.338631567	0.104369538
2020-03-15T05:05:00	0.3664	3.561	163.0	1.001328629	1.399078428	0.032383103	0.334090501	0.102969937
2020-03-15T05:10:00	0.3665	3.551	162.0	1.001663530	1.399690007	0.032404482	0.334311063	0.103037916
2020-03-15T05:15:00	0.3699	3.543	162.0	1.011899660	1.418434671	0.033061784	0.341092327	0.105127968
2020-03-15T05:20:00	0.3716	3.532	162.0	1.017025513	1.427859136	0.033393754	0.344517200	0.106183547
2020-03-15T05:25:00	0.3737	3.522	163.0	1.023340743	1.439505233	0.033805347	0.348763535	0.107492309
2020-03-15T05:30:00	0.3650	3.511	163.0	0.997292832	1.391716917	0.032126100	0.331439056	0.102152736
2020-03-15T05:35:00	0.3727	3.501	162.0	1.020120560	1.433561994	0.033595114	0.346594599	0.106823822
2020-03-15T05:40:00	0.3687	3.491	162.0	1.008174046	1.411600575	0.032821680	0.338615224	0.104364501
2020-03-15T05:45:00	0.3729	3.483	163.0	1.020787332	1.434791781	0.033638584	0.347043068	0.106962044
2020-03-15T05:50:00	0.3740	3.475	163.0	1.024109859	1.440926211	0.033855670	0.349282707	0.107652323
2020-03-15T05:55:00	0.3711	3.468	163.0	1.015469722	1.424995962	0.033292795	0.343475632	0.105862526
2020-03-15T06:00:00	0.3713	3.461	162.0	1.016102884	1.426160910	0.033333861	0.343899304	0.105993105
2020-03-15T06:05:00	0.3747	3.454	162.0	1.026303823	1.444982802	0.033999455	0.350766106	0.108109520
2020-03-15T06:10:00	0.3705	3.449	162.0	1.013775880	1.421881380	0.033183076	0.342343680	0.105513647
2020-03-15T06:15:00	0.3736	3.443	157.0	1.023085909	1.439034540	0.033788683	0.348591612	0.107439320
2020-03-15T06:20:00	0.3706	3.437	162.0	1.013844617	1.422007718	0.033187525	0.342389574	0.105527792
2020-03-15T06:25:00	0.3663	3.431	163.0	1.000978829	1.398439756	0.032360781	0.333860215	0.102898961
2020-03-15T06:30:00	0.3712	3.427	162.0	1.015710200	1.425438369	0.033308389	0.343636510	0.105912110
2020-03-15T06:35:00	0.3729	3.424	162.0	1.020831398	1.434873071	0.033641458	0.347072718	0.106971182
2020-03-15T06:40:00	0.3719	3.420	162.0	1.017874219	1.429422021	0.033448901	0.345086145	0.106358901
2020-03-15T06:45:00	0.3718	3.419	162.0	1.017609290	1.428934082	0.033431681	0.344908488	0.106304146
2020-03-15T06:50:00	0.3750	3.421	161.0	1.027209435	1.446658617	0.034058906	0.351379459	0.108298562
2020-03-15T06:55:00	0.3754	3.420	162.0	1.028437883	1.448933097	0.034139646	0.352212438	0.108555294
2020-03-15T07:00:00	0.3727	3.420	163.0	1.020404842	1.434086268	0.033613644	0.346785766	0.106882741
2020-03-15T07:05:00	0.3713	3.426	163.0	1.015950664	1.425880807	0.033323986	0.343797421	0.105961704
2020-03-15T07:10:00	0.3730	3.433	163.0	1.021071569	1.435316155	0.033657124	0.347234345	0.107020997
2020-03-15T07:15:00	0.3728	3.439	157.0	1.020507785	1.434276134	0.033620355	0.346855005	0.106904081
2020-03-15T07:20:00	0.3731	3.445	162.0	1.021439199	1.435994492	0.033681113	0.347481830	0.107097275
2020-03-15T07:25:00	0.3678	3.455	163.0	1.005596513	1.406880278	0.032656148	0.336907459	0.103838151
2020-03-15T07:30:00	0.3763	3.462	163.0	1.031064847	1.453801839	0.034312670	0.353997487	0.109105464
2020-03-15T07:35:00	0.3733	3.471	163.0	1.022140062	1.437288060	0.033726872	0.347953923	0.107242778
2020-03-15T07:40:00	0.3737	3.482	163.0	1.023369990	1.439559258	0.033807260	0.348783269	0.107498391
2020-03-15T07:45:00	0.3783	3.494	162.0	1.036831650	1.464513305	0.034694247	0.357934146	0.110318780
2020-03-15T07:50:00	0.3736	3.510	163.0	1.022840809	1.438581887	0.033772659	0.348426302	0.107388370
2020-03-15T07:55:00	0.3760	3.523	162.0	1.030042586	1.451906416	0.034245280	0.353302239	0.108891181
2020-03-15T08:00:00	0.3749	3.537	163.0	1.026793267	1.445888408	0.034031578	0.351097521	0.108211666
2020-03-15T08:05:00	0.3719	3.546	162.0	1.017859407	1.429394739	0.033447938	0.345076211	0.106355840
2020-03-15T08:10:00	0.3692	3.565	163.0	1.009806074	1.414592650	0.032926737	0.339699073	0.104698553
2020-03-15T08:15:00	0.3726	3.578	163.0	1.020022317	1.433380832	0.033588712	0.346528549	0.106803464
2020-03-15T08:20:00	0.3742	3.596	162.0	1.024839514	1.442274811	0.033903451	0.349775650	0.107804252
2020-03-15T08:25:00	0.3738	3.620	162.0	1.023678592	1.440129354	0.033827447	0.348991537	0.107562581
2020-03-15T08:30:00	0.3674	3.644	162.0	1.004243153	1.404404391	0.032569424	0.336012740	0.103562390
2020-03-15T08:35:00	0.3722	3.665	162.0	1.018663855	1.430876755	0.033500257	0.345615972	0.106522199
2020-03-15T08:40:00	0.3692	3.683	158.0	1.009712649	1.414421301	0.032920718	0.339636976	0.104679414
2020-03-15T08:45:00	0.3668	3.707	164.0	1.002544753	1.401299766	0.032460774	0.334891821	0.103216912
2020-03-15T08:50:00	0.3717	3.734	158.0	1.017270613	1.428310416	0.033409674	0.344681453	0.106234171
2020-03-15T08:55:00	0.3736	3.763	158.0	1.022987735	1.438853225	0.033782264	0.348525392	0.107418911
2020-03-15T09:00:00	0.3710	3.790	163.0	1.015243712	1.424580223	0.033278144	0.343324473	0.105815937
2020-03-15T09:05:00	0.3688	3.815	163.0	1.008685176	1.412537379	0.032854562	0.338954460	0.104469057
2020-03-15T09:10:00	0.3742	3.849	159.0	1.024883537	1.442356195	0.033906335	0.349805404	0.107813423
2020-03-15T09:15:00	0.3716	3.886	163.0	1.016843695	1.427524411	0.033381946	0.344395384	0.106146002
2020-03-15T09:20:00	0.3694	3.921	164.0	1.010287667	1.415476067	0.032957774	0.340019280	0.104797244
2020-03-15T09:25:00	0.3713	3.968	163.0	1.016014313	1.425997926	0.033328115	0.343840020	0.105974833
2020-03-15T09:30:00	0.3719	4.019	164.0	1.017844595	1.429367457	0.033446975	0.345066277	0.106352778
2020-03-15T09:35:00	0.3723	4.071	164.0	1.019075781	1.431635876	0.033527065	0.345892548	0.106607443
2020-03-15T09:40:00	0.3712	4.123	165.0	1.015817971	1.425636654	0.033315379	0.343708622	0.105934335
2020-03-15T09:45:00	0.3676	4.176	165.0	1.005060016	1.405898579	0.032621753	0.336552614	0.103728784
2020-03-15T09:50:00	0.3673	4.219	165.0	1.004193845	1.404314219	0.032566266	0.335980167	0.103552351
2020-03-15T09:55:00	0.3691	4.266	165.0	1.009629003	1.414267894	0.032915329	0.339581383	0.104662280
2020-03-15T10:00:00	0.3701	4.311	165.0	1.012361123	1.419282088	0.033091593	0.341399861	0.105222753
2020-03-15T10:05:00	0.3672	4.359	165.0	1.003903868	1.403783968	0.032547703	0.335788647	0.103493322
2020-03-15T10:10:00	0.3736	4.412	166.0	1.023017932	1.438908995	0.033784238	0.348545760	0.107425188
2020-03-15T10:15:00	0.3704	4.465	166.0	1.013384064	1.421161314	0.033157726	0.342082142	0.105433038
2020-03-15T10:20:00	0.3724	4.517	167.0	1.019312901	1.432072930	0.033542502	0.346051812	0.106656529
2020-03-15T10:25:00	0.3716	4.574	167.0	1.016860545	1.427555430	0.033383040	0.344406672	0.106149481
2020-03-15T10:30:00	0.3672	4.634	162.0	1.003910976	1.403796964	0.032548157	0.335793341	0.103494769
2020-03-15T10:35:00	0.3717	4.702	168.0	1.017342276	1.428442373	0.033414330	0.344729486	0.106248975
2020-03-15T10:40:00	0.3749	4.772	162.0	1.026850461	1.445994248	0.034035333	0.351136260	0.108223605
2020-03-15T10:45:00	0.3703	4.843	168.0	1.013033067	1.420516390	0.033135025	0.341847947	0.105360857
2020-03-15T10:50:00	0.3712	4.909	168.0	1.015670149	1.425364685	0.033305792	0.343609713	0.105903851
2020-03-15T10:55:00	0.3710	4.991	169.0	1.015312256	1.424706302	0.033282587	0.343370312	0.105830065
2020-03-15T11:00:00	0.3687	5.079	168.0	1.008360928	1.411943066	0.032833701	0.338739236	0.104402722
2020-03-15T11:05:00	0.3624	5.158	169.0	0.989363101	1.377298103	0.031624505	0.326264184	0.100557790
2020-03-15T11:10:00	0.3734	5.235	169.0	1.022317520	1.437615665	0.033738464	0.348073514	0.107279637
2020-03-15T11:15:00	0.3711	5.294	170.0	1.015377814	1.424826894	0.033286837	0.343414158	0.105843579
2020-03-15T11:20:00	0.3706	5.348	170.0	1.014121420	1.422516524	0.033205442	0.342574424	0.105584764
2020-03-15T11:25:00	0.3725	5.404	170.0	1.019750104	1.432878914	0.033570976	0.346345575	0.106747070
2020-03-15T11:30:00	0.3775	5.452	171.0	1.034621483	1.460404254	0.034547720	0.356422459	0.109852864
2020-03-15T11:35:00	0.3734	5.495	171.0	1.022324596	1.437628730	0.033738926	0.348078283	0.107281107
2020-03-15T11:40:00	0.3707	5.551	171.0	1.014186997	1.422637075	0.033209688	0.342618224	0.105598264
2020-03-15T11:45:00	0.3729	5.599	171.0	1.021011892	1.435206053	0.033653231	0.347194180	0.107008618
2020-03-15T11:50:00	0.3721	5.647	171.0	1.018560529	1.430686364	0.033493534	0.345546617	0.106500823
2020-03-15T11:55:00	0.3737	5.699	171.0	1.023286751	1.439405502	0.033801816	0.348727105	0.107481081
2020-03-15T12:00:00	0.3715	5.750	171.0	1.016648003	1.427164177	0.033369240	0.344264300	0.106105601
2020-03-15T12:05:00	0.3727	5.782	172.0	1.020180182	1.433671943	0.033599000	0.346634688	0.106836177
2020-03-15T12:10:00	0.3681	5.808	172.0	1.006340751	1.408242563	0.032703895	0.337400057	0.103989974
2020-03-15T12:15:00	0.3709	5.838	172.0	1.014975599	1.424087099	0.033260767	0.343145203	0.105760684
2020-03-15T12:20:00	0.3739	5.856	172.0	1.023891523	1.440522767	0.033841380	0.349135281	0.107606884
2020-03-15T12:25:00	0.3715	5.875	172.0	1.016655089	1.427177221	0.033369700	0.344269046	0.106107064
2020-03-15T12:30:00	0.3705	5.888	172.0	1.013602098	1.421561992	0.033171831	0.342227666	0.105477890
2020-03-15T12:35:00	0.3717	5.897	172.0	1.017136844	1.428064112	0.033400985	0.344591802	0.106206540
2020-03-15T12:40:00	0.3712	5.908	172.0	1.015880978	1.425752583	0.033319466	0.343750785	0.105947330
2020-03-15T12:45:00	0.3714	5.910	172.0	1.016421277	1.426746864	0.033354523	0.344112464	0.106058803
2020-03-15T12:50:00	0.3702	5.909	172.0	1.012768918	1.420031119	0.033117947	0.341671759	0.105306554
2020-03-15T12:55:00	0.3671	5.907	172.0	1.003411709	1.402884190	0.032516209	0.335463733	0.103393181
2020-03-15T13:00:00	0.3733	5.907	172.0	1.021930124	1.436900531	0.033713162	0.347812472	0.107199182
2020-03-15T13:05:00	0.3713	5.907	172.0	1.016187452	1.426316535	0.033339349	0.343955914	0.106010553
2020-03-15T13:10:00	0.3712	5.910	172.0	1.015829603	1.425658056	0.033316133	0.343716405	0.105936734
2020-03-15T13:15:00	0.3718	5.915	172.0	1.017567190	1.428856550	0.033428945	0.344880261	0.106295446
2020-03-15T13:20:00	0.3704	5.916	172.0	1.013316710	1.421037549	0.033153369	0.342037194	0.105419185
2020-03-15T13:25:00	0.3669	5.913	172.0	1.002759544	1.401692245	0.032474503	0.335033462	0.103260567
2020-03-15T13:30:00	0.3663	5.925	172.0	1.001198908	1.398841567	0.032374824	0.334005091	0.102943613
2020-03-15T13:35:00	0.3714	5.933	172.0	1.016435450	1.426772949	0.033355443	0.344121955	0.106061728
2020-03-15T13:40:00	0.3677	5.949	172.0	1.005285896	1.406311868	0.032636232	0.336701988	0.103774823
2020-03-15T13:45:00	0.3719	5.961	172.0	1.017815106	1.429313143	0.033445058	0.345046501	0.106346683
2020-03-15T13:50:00	0.3703	5.967	172.0	1.012965708	1.420392638	0.033130670	0.341803013	0.105347008
2020-03-15T13:55:00	0.3683	5.988	172.0	1.007210724	1.409835674	0.032759759	0.337976394	0.104167607
2020-03-15T14:00:00	0.3731	6.000	172.0	1.021528536	1.436159353	0.033686943	0.347541986	0.107115815
2020-03-15T14:05:00	0.3716	6.005	172.0	1.016982763	1.427780431	0.033390977	0.344488556	0.106174718
2020-03-15T14:10:00	0.3680	6.008	173.0	1.006134778	1.407865487	0.032690677	0.337263686	0.103947943
2020-03-15T14:15:00	0.3743	6.011	172.0	1.024939945	1.442460475	0.033910030	0.349843530	0.107825174
2020-03-15T14:20:00	0.3712	6.013	173.0	1.015909327	1.425804746	0.033321305	0.343769756	0.105953178
2020-03-15T14:25:00	0.3706	6.017	172.0	1.014054079	1.422392733	0.033201083	0.342529448	0.105570902
2020-03-15T14:30:00	0.3684	6.027	172.0	1.007400674	1.410183611	0.032771964	0.338102306	0.104206414
2020-03-15T14:35:00	0.3714	6.035	172.0	1.016332712	1.426583865	0.033348775	0.344053164	0.106040527
2020-03-15T14:40:00	0.3694	6.043	172.0	1.010282574	1.415466723	0.032957446	0.340015893	0.104796200
2020-03-15T14:45:00	0.3691	6.052	172.0	1.009624384	1.414259423	0.032915032	0.339578314	0.104661334
2020-03-15T14:50:00	0.3720	6.049	172.0	1.018252466	1.430118784	0.033473495	0.345339882	0.106437106
2020-03-15T14:55:00	0.3705	6.050	172.0	1.013703138	1.421747686	0.033178369	0.342295116	0.105498679
2020-03-15T15:00:00	0.3642	6.047	172.0	0.994729720	1.387049768	0.031963482	0.329761350	0.101635651
2020-03-15T15:05:00	0.3719	6.047	172.0	1.017777923	1.429244659	0.033442641	0.345021565	0.106338997
2020-03-15T15:10:00	0.3713	6.047	172.0	1.016222886	1.426381744	0.033341648	0.343979635	0.106017864
2020-03-15T15:15:00	0.3679	6.046	172.0	1.005973187	1.407569691	0.032680309	0.337156721	0.103914976
2020-03-15T15:20:00	0.3680	6.043	172.0	1.006214687	1.408011772	0.032695805	0.337316589	0.103964249
2020-03-15T15:25:00	0.3684	6.038	172.0	1.007356297	1.410102320	0.032769112	0.338072887	0.104197347
2020-03-15T15:30:00	0.3700	6.037	172.0	1.012095167	1.418793669	0.033074411	0.341222600	0.105168119
2020-03-15T15:35:00	0.3690	6.035	172.0	1.009038848	1.413185738	0.032877325	0.339189304	0.104541438
2020-03-15T15:40:00	0.3704	6.036	172.0	1.013476253	1.421330723	0.033163689	0.342143668	0.105452001
2020-03-15T15:45:00	0.3685	6.032	172.0	1.007721973	1.410772221	0.032792613	0.338315345	0.104272075
2020-03-15T15:50:00	0.3697	6.031	172.0	1.011261686	1.417263454	0.033020598	0.340667421	0.104997008
2020-03-15T15:55:00	0.3694	6.031	172.0	1.010303864	1.415505782	0.032958818	0.340030053	0.104800565
2020-03-15T16:00:00	0.3710	6.025	172.0	1.015039398	1.424204435	0.033264901	0.343187856	0.105773830
2020-03-15T16:05:00	0.3700	6.017	172.0	1.012255876	1.419088798	0.033084793	0.341329707	0.105201131
2020-03-15T16:10:00	0.3691	6.010	172.0	1.009470502	1.413977221	0.032905120	0.339476055	0.104629817
2020-03-15T16:15:00	0.3686	6.006	172.0	1.007883326	1.411067854	0.032802986	0.338422361	0.104305058
2020-03-15T16:20:00	0.3663	6.003	172.0	1.001190979	1.398827090	0.032374318	0.333999870	0.102942004
2020-03-15T16:25:00	0.3682	5.996	172.0	1.006808029	1.409098160	0.032733894	0.337709548	0.104085363
2020-03-15T16:30:00	0.3696	5.986	172.0	1.010919033	1.416634560	0.032998489	0.340439330	0.104926708
2020-03-15T16:35:00	0.3697	5.975	172.0	1.011430949	1.417574154	0.033031522	0.340780125	0.105031744
2020-03-15T16:40:00	0.3648	5.964	172.0	0.996631089	1.390511352	0.032084071	0.331005445	0.102019093
2020-03-15T16:45:00	0.3569	5.951	172.0	0.972712498	1.347217365	0.030585762	0.315547673	0.097254857
2020-03-15T16:50:00	0.3645	5.936	172.0	0.995552882	1.388547971	0.032015657	0.330299632	0.101801554
2020-03-15T16:55:00	0.3644	5.923	172.0	0.995464998	1.388387987	0.032010084	0.330242139	0.101783835
2020-03-15T17:00:00	0.3641	5.907	172.0	0.994474396	1.386585194	0.031947308	0.329594489	0.101584222
2020-03-15T17:05:00	0.3634	5.891	172.0	0.992279341	1.382593774	0.031808452	0.328161939	0.101142697
2020-03-15T17:10:00	0.3612	5.879	172.0	0.985863375	1.370953595	0.031404548	0.323994936	0.099858386
2020-03-15T17:15:00	0.3598	5.862	172.0	0.981551137	1.363152201	0.031134719	0.321211152	0.099000397
2020-03-15T17:20:00	0.3647	5.844	171.0	0.996228971	1.389778977	0.032058546	0.330742111	0.101937931
2020-03-15T17:25:00	0.3604	5.828	171.0	0.983185727	1.366107298	0.031236845	0.322264772	0.099325133
2020-03-15T17:30:00	0.3579	5.812	171.0	0.975848829	1.352863219	0.030779925	0.317550815	0.097872245
2020-03-15T17:35:00	0.3566	5.799	171.0	0.971828703	1.345628096	0.030531174	0.314984493	0.097081280
2020-03-15T17:40:00	0.3564	5.782	171.0	0.971135071	1.344381303	0.030488369	0.314542887	0.096945172
2020-03-15T17:45:00	0.3547	5.762	171.0	0.966201408	1.335526313	0.030184886	0.311411901	0.095980172
2020-03-15T17:50:00	0.3541	5.746	171.0	0.964294410	1.332109806	0.030068039	0.310206412	0.095608629
2020-03-15T17:55:00	0.3519	5.729	166.0	0.957531008	1.320020547	0.029655681	0.305952191	0.094297437
2020-03-15T18:00:00	0.3512	5.704	170.0	0.955316160	1.316071028	0.029521339	0.304566213	0.093870265
2020-03-15T18:05:00	0.3554	5.686	171.0	0.968270905	1.339237853	0.030311978	0.312723091	0.096384294
2020-03-15T18:10:00	0.3548	5.667	171.0	0.966364869	1.335819324	0.030194913	0.311515353	0.096012057
2020-03-15T18:15:00	0.3565	5.644	171.0	0.971424164	1.344900888	0.030506205	0.314726898	0.097001886
2020-03-15T18:20:00	0.3538	5.626	171.0	0.963459868	1.330615758	0.030016984	0.309679693	0.095446289
2020-03-15T18:25:00	0.3554	5.610	171.0	0.968219897	1.339146324	0.030308842	0.312690736	0.096374322
2020-03-15T18:30:00	0.3584	5.590	171.0	0.977207350	1.355311660	0.030864243	0.318420708	0.098140355
2020-03-15T18:35:00	0.3535	5.568	171.0	0.962587647	1.329054958	0.029963677	0.309129730	0.095276785
2020-03-15T18:40:00	0.3504	5.548	170.0	0.953086510	1.312099801	0.029386446	0.303174542	0.093441338
2020-03-15T18:45:00	0.3526	5.525	171.0	0.959679964	1.323857007	0.029786353	0.307300318	0.094712942
2020-03-15T18:50:00	0.3562	5.501	170.0	0.970502655	1.343244944	0.030449372	0.314140559	0.096821171
2020-03-15T18:55:00	0.3537	5.481	170.0	0.963143080	1.330048797	0.029997617	0.309479885	0.095384706
2020-03-15T19:00:00	0.3520	5.465	170.0	0.957896170	1.320672150	0.029677863	0.306181037	0.094367969
2020-03-15T19:05:00	0.3559	5.445	170.0	0.969631930	1.341681001	0.030395726	0.313587099	0.096650589
2020-03-15T19:10:00	0.3554	5.422	170.0	0.968332271	1.339347972	0.030315751	0.312762018	0.096396292
2020-03-15T19:15:00	0.3578	5.397	169.0	0.975505945	1.352245521	0.030758664	0.317331470	0.097804641
2020-03-15T19:20:00	0.3566	5.374	169.0	0.971788090	1.345555081	0.030528667	0.314958626	0.097073307
2020-03-15T19:25:00	0.3579	5.354	169.0	0.975631645	1.352471954	0.030766458	0.317411872	0.097829421
2020-03-15T19:30:00	0.3564	5.328	169.0	0.971308687	1.344693332	0.030499080	0.314653388	0.096979230
2020-03-15T19:35:00	0.3600	5.308	169.0	0.982100835	1.364145691	0.031169042	0.321565258	0.099109535
2020-03-15T19:40:00	0.3555	5.283	169.0	0.968407186	1.339482408	0.030320358	0.312809544	0.096410939
2020-03-15T19:45:00	0.3614	5.259	169.0	0.986449794	1.372015873	0.031441344	0.324374550	0.099975386
2020-03-15T19:50:00	0.3588	5.237	169.0	0.978514542	1.357669253	0.030945498	0.319259001	0.098398725
2020-03-15T19:55:00	0.3597	5.213	169.0	0.981144371	1.362417226	0.031109334	0.320949263	0.098919680
2020-03-15T20:00:00	0.3577	5.190	169.0	0.975013448	1.351358496	0.030728141	0.317016567	0.097707585
2020-03-15T20:05:00	0.3591	5.172	168.0	0.979458103	1.359372029	0.031004225	0.319864874	0.098585461
2020-03-15T20:10:00	0.3561	5.146	169.0	0.970298731	1.342878604	0.030436803	0.314010889	0.096781206
2020-03-15T20:15:00	0.3566	5.119	168.0	0.971723588	1.345439123	0.030524685	0.314917548	0.097060647
2020-03-15T20:20:00	0.3541	5.097	168.0	0.964366205	1.332238369	0.030072433	0.310251748	0.095622602
2020-03-15T20:25:00	0.3554	5.078	168.0	0.968216707	1.339140600	0.030308646	0.312688712	0.096373698
2020-03-15T20:30:00	0.3552	5.060	169.0	0.967522464	1.337895092	0.030265980	0.312248536	0.096238031
2020-03-15T20:35:00	0.3574	5.038	168.0	0.974395157	1.350245234	0.030689846	0.316621481	0.097585816
2020-03-15T20:40:00	0.3529	5.009	168.0	0.960675769	1.325636265	0.029847015	0.307926155	0.094905832
2020-03-15T20:45:00	0.3547	4.987	167.0	0.966045114	1.335246173	0.030175299	0.311313002	0.095949691
2020-03-15T20:50:00	0.3557	4.965	167.0	0.968985736	1.340520812	0.030355947	0.313176714	0.096524105
2020-03-15T20:55:00	0.3577	4.942	168.0	0.975251348	1.351786944	0.030742883	0.317168659	0.097754461
2020-03-15T21:00:00	0.3568	4.923	168.0	0.972441006	1.346729079	0.030568988	0.315374609	0.097201518
2020-03-15T21:05:00	0.3603	4.900	168.0	0.982928425	1.365641965	0.031220757	0.322098792	0.099273976
2020-03-15T21:10:00	0.3554	4.875	167.0	0.968329081	1.339342248	0.030315555	0.312759995	0.096395668
2020-03-15T21:15:00	0.3607	4.856	167.0	0.984260801	1.368052260	0.031304117	0.322958803	0.099539040
2020-03-15T21:20:00	0.3537	4.840	167.0	0.963000236	1.329793178	0.029988886	0.309389812	0.095356945
2020-03-15T21:25:00	0.3613	4.821	167.0	0.985894320	1.371009643	0.031406489	0.324014962	0.099864558
2020-03-15T21:30:00	0.3588	4.801	167.0	0.978562240	1.357755310	0.030948465	0.319289613	0.098408160
2020-03-15T21:35:00	0.3605	4.781	167.0	0.983606577	1.366868544	0.031263170	0.322536357	0.099408838
2020-03-15T21:40:00	0.3573	4.761	167.0	0.973851589	1.349266814	0.030656201	0.316274372	0.097478833
2020-03-15T21:45:00	0.3607	4.740	168.0	0.984335426	1.368187309	0.031308789	0.323007009	0.099553897
2020-03-15T21:50:00	0.3632	4.720	161.0	0.991782495	1.381690964	0.031777070	0.327838174	0.101042909
2020-03-15T21:55:00	0.3606	4.702	166.0	0.983857480	1.367322466	0.031278870	0.322698334	0.099458760
2020-03-15T22:00:00	0.3630	4.685	167.0	0.991004229	1.380277266	0.031727948	0.327331388	0.100886713
2020-03-15T22:05:00	0.3574	4.668	167.0	0.974105793	1.349724344	0.030671933	0.316436674	0.097528856
2020-03-15T22:10:00	0.3604	4.650	166.0	0.983171270	1.366081150	0.031235941	0.322255444	0.099322258
2020-03-15T22:15:00	0.3630	4.630	166.0	0.991012314	1.380291949	0.031728458	0.327336651	0.100888335
2020-03-15T22:20:00	0.3611	4.611	166.0	0.985288453	1.369912463	0.031368498	0.323623008	0.099743754
2020-03-15T22:25:00	0.3589	4.589	166.0	0.978650484	1.357914524	0.030953955	0.319346251	0.098425616
2020-03-15T22:30:00	0.3643	4.567	166.0	0.994934009	1.387421526	0.031976426	0.329894892	0.101676810
2020-03-15T22:35:00	0.3625	4.555	166.0	0.989516876	1.377577143	0.031634189	0.326364098	0.100588585
2020-03-15T22:40:00	0.3675	4.536	166.0	1.004557214	1.404978789	0.032589537	0.336220248	0.103626346
2020-03-15T22:45:00	0.3701	4.517	166.0	1.012358069	1.419276478	0.033091395	0.341397825	0.105222125
2020-03-15T22:50:00	0.3632	4.501	165.0	0.991633511	1.381420295	0.031767663	0.327741126	0.101012998
2020-03-15T22:55:00	0.3640	4.484	166.0	0.994044661	1.385803415	0.031920097	0.329313755	0.101497697
2020-03-15T23:00:00	0.3639	4.472	166.0	0.993746374	1.385260871	0.031901217	0.329118971	0.101437663
2020-03-15T23:05:00	0.3647	4.457	166.0	0.996156297	1.389646633	0.032053934	0.330694533	0.101923267
2020-03-15T23:10:00	0.3645	4.445	166.0	0.995557312	1.388556036	0.032015938	0.330302530	0.101802448
2020-03-15T23:15:00	0.3630	4.429	166.0	0.991044654	1.380350682	0.031730498	0.327357701	0.100894823
2020-03-15T23:20:00	0.3621	4.412	166.0	0.988335778	1.375434498	0.031559848	0.325597131	0.100352198
2020-03-15T23:25:00	0.3617	4.397	165.0	0.987132763	1.373253463	0.031484228	0.324816981	0.100111748
2020-03-15T23:30:00	0.3602	4.380	166.0	0.982610911	1.365067826	0.031200910	0.321894037	0.099210868
2020-03-15T23:35:00	0.3606	4.370	166.0	0.983820642	1.367255816	0.031276564	0.322674549	0.099451430
2020-03-15T23:40:00	0.3608	4.359	165.0	0.984426724	1.368352537	0.031314507	0.323065992	0.099572076
2020-03-15T23:45:00	0.3612	4.343	166.0	0.985635923	1.370541662	0.031390283	0.323847764	0.099813026
2020-03-15T23:50:00	0.3621	4.329	165.0	0.988351958	1.375463842	0.031560865	0.325607631	0.100355434
2020-03-15T23:55:00	0.3573	4.315	165.0	0.973862894	1.349287159	0.030656900	0.316281589	0.097481057
2020-03-16T00:00:00	0.3590	4.299	165.0	0.979003918	1.358552288	0.030975949	0.319573155	0.098495550
2020-03-16T00:05:00	0.3632	4.284	164.0	0.991673930	1.381493724	0.031770215	0.327767453	0.101021112
2020-03-16T00:10:00	0.3581	4.271	165.0	0.976289840	1.353657853	0.030807283	0.317833057	0.097959235
2020-03-16T00:15:00	0.3638	4.258	165.0	0.993485773	1.384786942	0.031884727	0.328948850	0.101385230
2020-03-16T00:20:00	0.3618	4.239	164.0	0.987463894	1.373853657	0.031505033	0.325031613	0.100177900
2020-03-16T00:25:00	0.3567	4.228	165.0	0.972064081	1.346051286	0.030545707	0.315134427	0.097127491
2020-03-16T00:30:00	0.3605	4.215	165.0	0.983548616	1.366763692	0.031259543	0.322498946	0.099397307
2020-03-16T00:35:00	0.3609	4.199	165.0	0.984758072	1.368952268	0.031335261	0.323280109	0.099638069
2020-03-16T00:40:00	0.3592	4.183	165.0	0.979629624	1.359681651	0.031014907	0.319975079	0.098619427
2020-03-16T00:45:00	0.3622	4.169	164.0	0.988682992	1.376064245	0.031581692	0.325822495	0.100421657
2020-03-16T00:50:00	0.3597	4.158	164.0	0.981144850	1.362418091	0.031109364	0.320949571	0.098919775
2020-03-16T00:55:00	0.3625	4.146	164.0	0.989592362	1.377714128	0.031638944	0.326413151	0.100603703
2020-03-16T01:00:00	0.3533	4.136	164.0	0.961782613	1.327615029	0.029914523	0.308622620	0.095120489
2020-03-16T01:05:00	0.3596	4.125	164.0	0.980851035	1.361887301	0.031091035	0.320760478	0.098861495
2020-03-16T01:10:00	0.3605	4.112	164.0	0.983570215	1.366802764	0.031260895	0.322512887	0.099401604
2020-03-16T01:15:00	0.3594	4.099	163.0	0.980252534	1.360806337	0.031053719	0.320375491	0.098742838
2020-03-16T01:20:00	0.3609	4.085	164.0	0.984782363	1.368996239	0.031336783	0.323295809	0.099642908
2020-03-16T01:25:00	0.3622	4.074	164.0	0.988704564	1.376103374	0.031583049	0.325836499	0.100425974
2020-03-16T01:30:00	0.3596	4.067	164.0	0.980864543	1.361911702	0.031091878	0.320769170	0.098864174
2020-03-16T01:35:00	0.3615	4.054	164.0	0.986599920	1.372287875	0.031450768	0.324471773	0.100005352
2020-03-16T01:40:00	0.3605	4.043	164.0	0.983586413	1.366832068	0.031261908	0.322523343	0.099404827
2020-03-16T01:45:00	0.3598	4.034	164.0	0.981476461	1.363017260	0.031130057	0.321163064	0.098985576
2020-03-16T01:50:00	0.3624	4.021	164.0	0.989320715	1.377221193	0.031621835	0.326236647	0.100549303
2020-03-16T01:55:00	0.3625	4.011	163.0	0.989624713	1.377772837	0.031640982	0.326434174	0.100610183
2020-03-16T02:00:00	0.3619	4.002	164.0	0.987819272	1.374497917	0.031527369	0.325262050	0.100248923
2020-03-16T02:05:00	0.3627	3.992	160.0	0.990232641	1.378876270	0.031679289	0.326829389	0.100731992
2020-03-16T02:10:00	0.3610	3.980	158.0	0.985110984	1.369591145	0.031357374	0.323508249	0.099708384
2020-03-16T02:15:00	0.3591	3.973	163.0	0.979378943	1.359229141	0.030999296	0.319814019	0.098569787
2020-03-16T02:20:00	0.3611	3.963	164.0	0.985417989	1.370147013	0.031376618	0.323706787	0.099769575
2020-03-16T02:25:00	0.3625	3.957	159.0	0.989640888	1.377802192	0.031642001	0.326444686	0.100613423
2020-03-16T02:30:00	0.3603	3.952	163.0	0.983009910	1.365789325	0.031225851	0.322151351	0.099290175
2020-03-16T02:35:00	0.3666	3.944	158.0	1.001980779	1.400269451	0.032424741	0.334520076	0.103102336
2020-03-16T02:40:00	0.3640	3.936	158.0	0.994165845	1.386023856	0.031927769	0.329392907	0.101522093
2020-03-16T02:45:00	0.3560	3.929	158.0	0.970021354	1.342380370	0.030419712	0.313834561	0.096726860
2020-03-16T02:50:00	0.3626	3.927	163.0	0.989955645	1.378373459	0.031661832	0.326649280	0.100676480
2020-03-16T02:55:00	0.3612	3.918	163.0	0.985738464	1.370727366	0.031396714	0.323914108	0.099833474
2020-03-16T03:00:00	0.3617	3.915	157.0	0.987248754	1.373463692	0.031491515	0.324892155	0.100134917
2020-03-16T03:05:00	0.3611	3.911	163.0	0.985442277	1.370190993	0.031378141	0.323722496	0.099774417
2020-03-16T03:10:00	0.3625	3.906	158.0	0.989665151	1.377846224	0.031643529	0.326460455	0.100618283
2020-03-16T03:15:00	0.3600	3.902	158.0	0.982128800	1.364196240	0.031170788	0.321583278	0.099115090
2020-03-16T03:20:00	0.3653	3.894	158.0	0.998098016	1.393184370	0.032177282	0.331967092	0.102315482
2020-03-16T03:25:00	0.3647	3.888	163.0	0.996296260	1.389901520	0.032062817	0.330786169	0.101951510
2020-03-16T03:30:00	0.3656	3.878	158.0	0.999005326	1.394838691	0.032235012	0.332562672	0.102499045
2020-03-16T03:35:00	0.3623	3.871	164.0	0.989076013	1.376777212	0.031606428	0.326077696	0.100500313
2020-03-16T03:40:00	0.3624	3.865	158.0	0.989380029	1.377328818	0.031625571	0.326275181	0.100561180
2020-03-16T03:45:00	0.3635	3.856	164.0	0.992695789	1.383350676	0.031834770	0.328433452	0.101226380
2020-03-16T03:50:00	0.3627	3.844	162.0	0.990289246	1.378979030	0.031682858	0.326866201	0.100743338
2020-03-16T03:55:00	0.3661	3.836	162.0	1.000521551	1.397605025	0.032331615	0.333559308	0.102806218
2020-03-16T04:00:00	0.3634	3.828	162.0	0.992402793	1.382818133	0.031816253	0.328242413	0.101167499
2020-03-16T04:05:00	0.3633	3.823	162.0	0.992195037	1.382440570	0.031803126	0.328106990	0.101125761
2020-03-16T04:10:00	0.3624	3.815	161.0	0.989276315	1.377140630	0.031619040	0.326207802	0.100540413
2020-03-16T04:15:00	0.3610	3.804	162.0	0.985149245	1.369660417	0.031359772	0.323532989	0.099716009
2020-03-16T04:20:00	0.3621	3.799	163.0	0.988559122	1.375839567	0.031573898	0.325742085	0.100396874
2020-03-16T04:25:00	0.3616	3.792	162.0	0.986843983	1.372730119	0.031466092	0.324629866	0.100054078
2020-03-16T04:30:00	0.3621	3.784	162.0	0.988444601	1.375631860	0.031566693	0.325667755	0.100373965
2020-03-16T04:35:00	0.3629	3.775	157.0	0.990948282	1.380175662	0.031724418	0.327294974	0.100875490
2020-03-16T04:40:00	0.3612	3.768	163.0	0.985616726	1.370506897	0.031389079	0.323835345	0.099809198
2020-03-16T04:45:00	0.3642	3.762	162.0	0.994747614	1.387082329	0.031964615	0.329773045	0.101639255
2020-03-16T04:50:00	0.3615	3.753	163.0	0.986708311	1.372484273	0.031457573	0.324541979	0.100026990
2020-03-16T04:55:00	0.3609	3.747	163.0	0.984690766	1.368830437	0.031331044	0.323236609	0.099624662
2020-03-16T05:00:00	0.3632	3.741	162.0	0.991716258	1.381570624	0.031772888	0.327795025	0.101029610
2020-03-16T05:05:00	0.3620	3.733	162.0	0.988194454	1.375178209	0.031550959	0.325505428	0.100323934
2020-03-16T05:10:00	0.3638	3.727	163.0	0.993709317	1.385193474	0.031898872	0.329094777	0.101430206
2020-03-16T05:15:00	0.3602	3.717	157.0	0.982651111	1.365140510	0.031203422	0.321919956	0.099218857
2020-03-16T05:20:00	0.3591	3.709	162.0	0.979423620	1.359309785	0.031002078	0.319842721	0.098578633
2020-03-16T05:25:00	0.3584	3.700	163.0	0.977402512	1.355663543	0.030876367	0.318545785	0.098178905
2020-03-16T05:30:00	0.3609	3.691	163.0	0.984742048	1.368923264	0.031334257	0.323269753	0.099634877
2020-03-16T05:35:00	0.3605	3.684	163.0	0.983628824	1.366908791	0.031264562	0.322550718	0.099413264
2020-03-16T05:40:00	0.3591	3.676	162.0	0.979496109	1.359440633	0.031006592	0.319889292	0.098592986
2020-03-16T05:45:00	0.3633	3.665	163.0	0.991954154	1.382002855	0.031787911	0.327950013	0.101077379
2020-03-16T05:50:00	0.3636	3.660	162.0	0.992950745	1.383814146	0.031850888	0.328599740	0.101277631
2020-03-16T05:55:00	0.3608	3.654	162.0	0.984606307	1.368677565	0.031325754	0.323182029	0.099607840
2020-03-16T06:00:00	0.3614	3.648	162.0	0.986207791	1.371577453	0.031426156	0.324217860	0.099927093
2020-03-16T06:05:00	0.3658	3.636	162.0	0.999547506	1.395827639	0.032269537	0.332918860	0.102608826
2020-03-16T06:10:00	0.3625	3.632	162.0	0.989710195	1.377927973	0.031646367	0.326489730	0.100627306
2020-03-16T06:15:00	0.3622	3.630	162.0	0.988598307	1.375910641	0.031576363	0.325767521	0.100404714
2020-03-16T06:20:00	0.3649	3.624	162.0	0.996820432	1.390856255	0.032096094	0.331129480	0.102057322
2020-03-16T06:25:00	0.3637	3.619	162.0	0.993302960	1.384454518	0.031873162	0.328829540	0.101348458
2020-03-16T06:30:00	0.3634	3.619	162.0	0.992493129	1.382982316	0.031821961	0.328301307	0.101185651
2020-03-16T06:35:00	0.3664	3.619	162.0	1.001308484	1.399041643	0.032381817	0.334077236	0.102965849
2020-03-16T06:40:00	0.3643	3.616	162.0	0.995087646	1.387701134	0.031986163	0.329995343	0.101707770
2020-03-16T06:45:00	0.3641	3.615	162.0	0.994579104	1.386775708	0.031953940	0.329662913	0.101605311
2020-03-16T06:50:00	0.3647	3.615	162.0	0.996176740	1.389683860	0.032055232	0.330707916	0.101927391
2020-03-16T06:55:00	0.3634	3.613	161.0	0.992357641	1.382736073	0.031813400	0.328212979	0.101158428
2020-03-16T07:00:00	0.3641	3.616	162.0	0.994558040	1.386737382	0.031952606	0.329649147	0.101601069
2020-03-16T07:05:00	0.3626	3.622	162.0	0.989833724	1.378152167	0.031654149	0.326570022	0.100652052
2020-03-16T07:10:00	0.3651	3.627	162.0	0.997452001	1.392006955	0.032136214	0.331543401	0.102184896
2020-03-16T07:15:00	0.3669	3.633	162.0	1.002954595	1.402048692	0.032486973	0.335162116	0.103300219
2020-03-16T07:20:00	0.3723	3.639	162.0	1.018934343	1.431375207	0.033517859	0.345797569	0.106578169
2020-03-16T07:25:00	0.3629	3.645	162.0	0.990809742	1.379924077	0.031715679	0.327204813	0.100847701
2020-03-16T07:30:00	0.3683	3.652	162.0	1.007136033	1.409698870	0.032754961	0.337926891	0.104152350
2020-03-16T07:35:00	0.3660	3.659	162.0	1.000322914	1.397242489	0.032318950	0.333428645	0.102765947
2020-03-16T07:40:00	0.3641	3.671	162.0	0.994401555	1.386452669	0.031942695	0.329546894	0.101569553
2020-03-16T07:45:00	0.3709	3.686	162.0	1.014908440	1.423963589	0.033256415	0.343100307	0.105746847
2020-03-16T07:50:00	0.3700	3.700	162.0	1.012305259	1.419179490	0.033087983	0.341362623	0.105211276
2020-03-16T07:55:00	0.3690	3.714	162.0	1.009100734	1.413299201	0.032881309	0.339230407	0.104554106
2020-03-16T08:00:00	0.3690	3.726	163.0	1.009193697	1.413469649	0.032887295	0.339292156	0.104573138
2020-03-16T08:05:00	0.3679	3.739	162.0	1.005986783	1.407594578	0.032681181	0.337165721	0.103917750
2020-03-16T08:10:00	0.3701	3.755	162.0	1.012377177	1.419311571	0.033092630	0.341410562	0.105226051
2020-03-16T08:15:00	0.3701	3.781	162.0	1.012470067	1.419482179	0.033098632	0.341472487	0.105245137
2020-03-16T08:20:00	0.3654	3.805	162.0	0.998456299	1.393837541	0.032200072	0.332202205	0.102387946
2020-03-16T08:25:00	0.3647	3.831	163.0	0.996143656	1.389623615	0.032053132	0.330686257	0.101920716
2020-03-16T08:30:00	0.3668	3.864	162.0	1.002549141	1.401307784	0.032461054	0.334894714	0.103217803
2020-03-16T08:35:00	0.3671	3.899	162.0	1.003543197	1.403124557	0.032524621	0.335550522	0.103419930
2020-03-16T08:40:00	0.3650	3.932	162.0	0.997024959	1.391228855	0.032109083	0.331263492	0.102098625
2020-03-16T08:45:00	0.3630	3.969	158.0	0.991098893	1.380449191	0.031733920	0.327393007	0.100905704
2020-03-16T08:50:00	0.3643	4.006	163.0	0.995105708	1.387734008	0.031987307	0.330007154	0.101711410
2020-03-16T08:55:00	0.3616	4.033	163.0	0.987067100	1.373134458	0.031480104	0.324774430	0.100098633
2020-03-16T09:00:00	0.3646	4.059	159.0	0.995893973	1.389168966	0.032037291	0.330522823	0.101870344
2020-03-16T09:05:00	0.3599	4.096	163.0	0.981824115	1.363645528	0.031151761	0.321386972	0.099054586
2020-03-16T09:10:00	0.3636	4.145	163.0	0.993071177	1.384033093	0.031858503	0.328678304	0.101301845
2020-03-16T09:15:00	0.3641	4.196	164.0	0.994368457	1.386392454	0.031940599	0.329525270	0.101562888
2020-03-16T09:20:00	0.3565	4.243	164.0	0.971526922	1.345085593	0.030512547	0.314792319	0.097022050
2020-03-16T09:25:00	0.3596	4.290	164.0	0.980990900	1.362139964	0.031099759	0.320850485	0.098889235
2020-03-16T09:30:00	0.3609	4.341	164.0	0.984705867	1.368857772	0.031331990	0.323246369	0.099627670
2020-03-16T09:35:00	0.3577	4.393	165.0	0.975135533	1.351578359	0.030735706	0.317094612	0.097731639
2020-03-16T09:40:00	0.3626	4.450	165.0	0.990017508	1.378485748	0.031665730	0.326689500	0.100688877
2020-03-16T09:45:00	0.3628	4.509	165.0	0.990412143	1.379202146	0.031690605	0.326946135	0.100767974
2020-03-16T09:50:00	0.3596	4.565	166.0	0.980855036	1.361894529	0.031091285	0.320763053	0.098862288
2020-03-16T09:55:00	0.3603	4.619	165.0	0.983061556	1.365882725	0.031229080	0.322184665	0.099300443
2020-03-16T10:00:00	0.3566	4.678	166.0	0.971974770	1.345890707	0.030540192	0.315077532	0.097109955
2020-03-16T10:05:00	0.3621	4.739	166.0	0.988591344	1.375898011	0.031575925	0.325763001	0.100403321
2020-03-16T10:10:00	0.3576	4.797	166.0	0.974713339	1.350818089	0.030709550	0.316824764	0.097648469
2020-03-16T10:15:00	0.3560	4.864	166.0	0.969880532	1.342127450	0.030411037	0.313745062	0.096699275
2020-03-16T10:20:00	0.3611	4.938	167.0	0.985299282	1.369932070	0.031369177	0.323630012	0.099745913
2020-03-16T10:25:00	0.3618	5.002	168.0	0.987418074	1.373770600	0.031502153	0.325001909	0.100168745
2020-03-16T10:30:00	0.3569	5.064	162.0	0.972628616	1.347066493	0.030580579	0.315494196	0.097238375
2020-03-16T10:35:00	0.3583	5.132	167.0	0.976870021	1.354703534	0.030843294	0.318204583	0.098073743
2020-03-16T10:40:00	0.3571	5.204	167.0	0.973249878	1.348184063	0.030618981	0.315890385	0.097360484
2020-03-16T10:45:00	0.3526	5.284	168.0	0.959623453	1.323756062	0.029782913	0.307264823	0.094702003
2020-03-16T10:50:00	0.3540	5.373	168.0	0.963878311	1.331364797	0.030042577	0.309943729	0.095527667
2020-03-16T10:55:00	0.3551	5.450	169.0	0.967220058	1.337352703	0.030247406	0.312056908	0.096178970
2020-03-16T11:00:00	0.3545	5.522	169.0	0.965410197	1.334108390	0.030136375	0.310911426	0.095825921
2020-03-16T11:05:00	0.3536	5.592	169.0	0.962689836	1.329237784	0.029969920	0.309194135	0.095296635
2020-03-16T11:10:00	0.3553	5.661	170.0	0.967850269	1.338483134	0.030286122	0.312456333	0.096302076
2020-03-16T11:15:00	0.3518	5.733	170.0	0.957243685	1.319507929	0.029638234	0.305772194	0.094241960
2020-03-16T11:20:00	0.3533	5.795	170.0	0.961804361	1.327653920	0.029915850	0.308636313	0.095124709
2020-03-16T11:25:00	0.3579	5.858	171.0	0.975742105	1.352670946	0.030773307	0.317482534	0.097851200
2020-03-16T11:30:00	0.3555	5.919	171.0	0.968488513	1.339628358	0.030325359	0.312861143	0.096426843
2020-03-16T11:35:00	0.3506	5.976	171.0	0.953630637	1.313068511	0.029419333	0.303513837	0.093545912
2020-03-16T11:40:00	0.3574	6.033	171.0	0.974254657	1.349992306	0.030681147	0.316531740	0.097558157
2020-03-16T11:45:00	0.3539	6.091	172.0	0.963664648	1.330982305	0.030029507	0.309808892	0.095486109
2020-03-16T11:50:00	0.3533	6.148	172.0	0.961853216	1.327741287	0.029918832	0.308667075	0.095134190
2020-03-16T11:55:00	0.3533	6.210	172.0	0.961861358	1.327755849	0.029919329	0.308672202	0.095135770
2020-03-16T12:00:00	0.3522	6.265	172.0	0.958531531	1.321806203	0.029716480	0.306579445	0.094490762
2020-03-16T12:05:00	0.3545	6.315	172.0	0.965515955	1.334297883	0.030142857	0.310978296	0.095846531
2020-03-16T12:10:00	0.3526	6.353	172.0	0.959761946	1.324003452	0.029791345	0.307351814	0.094728814
2020-03-16T12:15:00	0.3517	6.386	173.0	0.957037827	1.319140704	0.029625737	0.305643269	0.094202224
2020-03-16T12:20:00	0.3511	6.414	173.0	0.955223456	1.315905819	0.029515724	0.304508279	0.093852409
2020-03-16T12:25:00	0.3513	6.441	173.0	0.955839208	1.317003310	0.029553034	0.304893201	0.093971045
2020-03-16T12:30:00	0.3516	6.465	173.0	0.956758586	1.318642637	0.029608791	0.305468434	0.094148338
2020-03-16T12:35:00	0.3554	6.489	173.0	0.968291349	1.339274539	0.030313235	0.312736059	0.096388291
2020-03-16T12:40:00	0.3527	6.507	173.0	0.960114295	1.324632933	0.029812803	0.307573195	0.094797046
2020-03-16T12:45:00	0.3483	6.522	173.0	0.946748426	1.300836705	0.029004885	0.299238054	0.092228075
2020-03-16T12:50:00	0.3449	6.534	173.0	0.936391957	1.282514265	0.028387423	0.292867805	0.090264702
2020-03-16T12:55:00	0.3508	6.544	173.0	0.954368991	1.314383452	0.029463993	0.303974585	0.093687919
2020-03-16T13:00:00	0.3499	6.551	173.0	0.951641269	1.309528196	0.029299194	0.302274384	0.093163901
2020-03-16T13:05:00	0.3550	6.556	174.0	0.967128549	1.337188592	0.030241786	0.311998934	0.096161102
2020-03-16T13:10:00	0.3522	6.564	174.0	0.958645615	1.322009872	0.029723417	0.306651013	0.094512820
2020-03-16T13:15:00	0.3507	6.570	174.0	0.953793809	1.313359062	0.029429200	0.303615626	0.093577285
2020-03-16T13:20:00	0.3496	6.580	174.0	0.950457394	1.307423124	0.029227830	0.301538134	0.092936981
2020-03-16T13:25:00	0.3485	6.588	174.0	0.947118244	1.301492848	0.029027072	0.299466950	0.092298622
2020-03-16T13:30:00	0.3503	6.599	174.0	0.952602398	1.311238172	0.029357203	0.302872849	0.093348353
2020-03-16T13:35:00	0.3488	6.614	174.0	0.948047761	1.303142598	0.029082879	0.300042700	0.092476074
2020-03-16T13:40:00	0.3477	6.629	174.0	0.944706631	1.297216408	0.028882562	0.297976070	0.091839119
2020-03-16T13:45:00	0.3499	6.648	174.0	0.951410639	1.309118004	0.029285284	0.302130876	0.093119670
2020-03-16T13:50:00	0.3461	6.667	174.0	0.939846361	1.288614494	0.028592550	0.294984072	0.090916956
2020-03-16T13:55:00	0.3457	6.685	174.0	0.938634477	1.286473116	0.028520493	0.294240666	0.090687831
2020-03-16T14:00:00	0.3490	6.700	174.0	0.948697273	1.304295866	0.029121910	0.300445381	0.092600184
2020-03-16T14:05:00	0.3453	6.716	175.0	0.937430423	1.284346940	0.028449001	0.293503103	0.090460507
2020-03-16T14:10:00	0.3459	6.733	174.0	0.939269121	1.287594349	0.028558216	0.294629845	0.090807780
2020-03-16T14:15:00	0.3468	6.746	174.0	0.942021515	1.292461424	0.028722139	0.296321013	0.091329014
2020-03-16T14:20:00	0.3460	6.755	175.0	0.939590500	1.288162276	0.028577329	0.294827032	0.090868554
2020-03-16T14:25:00	0.3441	6.762	174.0	0.933799712	1.277943917	0.028234034	0.291285320	0.089776964
2020-03-16T14:30:00	0.3448	6.770	174.0	0.935945337	1.281726385	0.028360962	0.292594816	0.090180564
2020-03-16T14:35:00	0.3450	6.778	174.0	0.936564016	1.282817843	0.028397620	0.292973012	0.090297128
2020-03-16T14:40:00	0.3448	6.784	174.0	0.935961726	1.281755293	0.028361933	0.292604830	0.090183650
2020-03-16T14:45:00	0.3449	6.793	175.0	0.936275173	1.282308228	0.028380502	0.292796409	0.090242697
2020-03-16T14:50:00	0.3424	6.800	174.0	0.928645144	1.268874734	0.027930406	0.288152853	0.088811508
2020-03-16T14:55:00	0.3449	6.808	175.0	0.936291560	1.282337139	0.028381473	0.292806427	0.090245784
2020-03-16T15:00:00	0.3462	6.812	175.0	0.940265922	1.289356174	0.028617521	0.295241689	0.090996356
2020-03-16T15:05:00	0.3412	6.815	174.0	0.924998308	1.262473382	0.027716698	0.285948069	0.088131972
2020-03-16T15:10:00	0.3470	6.817	175.0	0.942721076	1.293699598	0.028763886	0.296751712	0.091461760
2020-03-16T15:15:00	0.3434	6.820	174.0	0.931743180	1.274322570	0.028112675	0.290033281	0.089391074
2020-03-16T15:20:00	0.3451	6.821	175.0	0.936942956	1.283486536	0.028420086	0.293204791	0.090368564
2020-03-16T15:25:00	0.3460	6.820	175.0	0.939696929	1.288350376	0.028583660	0.294892349	0.090888686
2020-03-16T15:30:00	0.3399	6.818	175.0	0.921058234	1.255571309	0.027486836	0.283576620	0.087401068
2020-03-16T15:35:00	0.3505	6.817	174.0	0.953414372	1.312683461	0.029406259	0.303378958	0.093504341
2020-03-16T15:40:00	0.3439	6.816	174.0	0.933311807	1.277084406	0.028205215	0.290988005	0.089685329
2020-03-16T15:45:00	0.3453	6.816	175.0	0.937594247	1.284636148	0.028458723	0.293603395	0.090491418
2020-03-16T15:50:00	0.3392	6.817	175.0	0.918945817	1.251876841	0.027364038	0.282309735	0.087010602
2020-03-16T15:55:00	0.3431	6.816	174.0	0.930891963	1.272824824	0.028062528	0.289515933	0.089231622
2020-03-16T16:00:00	0.3474	6.814	175.0	0.944021699	1.296002838	0.028841593	0.297553399	0.091708847
2020-03-16T16:05:00	0.3444	6.814	175.0	0.934882558	1.279852298	0.028298051	0.291945780	0.089980525
2020-03-16T16:10:00	0.3450	6.813	175.0	0.936725144	1.283102160	0.028407172	0.293071554	0.090327499
2020-03-16T16:15:00	0.3432	6.812	175.0	0.930932986	1.272896990	0.028064944	0.289540854	0.089239303
2020-03-16T16:20:00	0.3448	6.809	174.0	0.935831271	1.281525193	0.028354206	0.292525117	0.090159082
2020-03-16T16:25:00	0.3451	6.805	175.0	0.936757915	1.283159989	0.028409115	0.293091598	0.090333677
2020-03-16T16:30:00	0.3434	6.800	174.0	0.931577042	1.274030191	0.028102883	0.289932266	0.089359940
2020-03-16T16:35:00	0.3431	6.795	174.0	0.930671091	1.272436302	0.028049525	0.289381777	0.089190274
2020-03-16T16:40:00	0.3456	6.792	175.0	0.938316410	1.285911325	0.028501598	0.294045728	0.090627749
2020-03-16T16:45:00	0.3476	6.785	175.0	0.944424474	1.296716426	0.028865681	0.297801911	0.091785441
2020-03-16T16:50:00	0.3470	6.780	175.0	0.942607200	1.293498015	0.028757088	0.296681578	0.091440144
2020-03-16T16:55:00	0.3458	6.776	174.0	0.938959292	1.287046922	0.028539796	0.294439814	0.090749210
2020-03-16T17:00:00	0.3437	6.771	174.0	0.932559337	1.275759264	0.028160802	0.290529805	0.089544107
2020-03-16T17:05:00	0.3457	6.763	175.0	0.938676078	1.286546601	0.028522965	0.294266168	0.090695691
2020-03-16T17:10:00	0.3462	6.754	175.0	0.940212007	1.289260856	0.028614312	0.295208577	0.090986150
2020-03-16T17:15:00	0.3489	6.745	174.0	0.948448069	1.303853336	0.029106931	0.300290845	0.092552555
2020-03-16T17:20:00	0.3483	6.734	175.0	0.946632594	1.300631219	0.028997938	0.299166382	0.092205984
2020-03-16T17:25:00	0.3487	6.723	174.0	0.947861157	1.302811340	0.029071671	0.299927067	0.092440435
2020-03-16T17:30:00	0.3422	6.711	174.0	0.928039594	1.267810938	0.027894857	0.287786097	0.088698470
2020-03-16T17:35:00	0.3469	6.697	174.0	0.942400601	1.293132323	0.028744757	0.296554362	0.091400934
2020-03-16T17:40:00	0.3405	6.684	174.0	0.922858475	1.258723099	0.027591729	0.284658780	0.087734601
2020-03-16T17:45:00	0.3468	6.670	174.0	0.942117628	1.292631509	0.028727873	0.296380166	0.091347246
2020-03-16T17:50:00	0.3490	6.655	174.0	0.948828624	1.304529141	0.029129807	0.300526852	0.092625295
2020-03-16T17:55:00	0.3458	6.639	174.0	0.939090302	1.287278388	0.028547584	0.294520160	0.090773974
2020-03-16T18:00:00	0.3506	6.623	173.0	0.953716251	1.313220957	0.029424510	0.303567242	0.093562372
2020-03-16T18:05:00	0.3464	6.607	174.0	0.940941888	1.290551463	0.028657777	0.295657006	0.091124361
2020-03-16T18:10:00	0.3502	6.592	173.0	0.952522097	1.311095273	0.029352354	0.302822823	0.093332935
2020-03-16T18:15:00	0.3501	6.575	173.0	0.952228945	1.310573646	0.029334655	0.302640232	0.093276659
2020-03-16T18:20:00	0.3515	6.557	173.0	0.956494223	1.318171173	0.029592752	0.305302965	0.094097339
2020-03-16T18:25:00	0.3510	6.538	173.0	0.954986180	1.315483004	0.029501353	0.304360025	0.093806716
2020-03-16T18:30:00	0.3525	6.519	173.0	0.959552090	1.323628595	0.029778569	0.307220004	0.094688189
2020-03-16T18:35:00	0.3515	6.500	173.0	0.956223099	1.317687721	0.029576308	0.305133318	0.094045052
2020-03-16T18:40:00	0.3515	6.480	173.0	0.956233970	1.317707105	0.029576967	0.305140119	0.094047148
2020-03-16T18:45:00	0.3485	6.460	172.0	0.947122278	1.301500006	0.029027314	0.299469447	0.092299392
2020-03-16T18:50:00	0.3501	6.441	173.0	0.952001069	1.310168225	0.029320902	0.302498342	0.093232927
2020-03-16T18:55:00	0.3523	6.420	173.0	0.958695814	1.322099493	0.029726470	0.306682507	0.094522527
2020-03-16T19:00:00	0.3547	6.400	172.0	0.965985704	1.335139693	0.030171656	0.311275414	0.095938106
2020-03-16T19:05:00	0.3550	6.380	172.0	0.966905517	1.336788640	0.030228093	0.311857661	0.096117560
2020-03-16T19:10:00	0.3549	6.359	172.0	0.966613394	1.336264865	0.030210163	0.311672679	0.096060547
2020-03-16T19:15:00	0.3534	6.342	172.0	0.962077073	1.328141645	0.029932497	0.308808053	0.095177641
2020-03-16T19:20:00	0.3533	6.325	172.0	0.961784606	1.327618592	0.029914645	0.308623874	0.095120875
2020-03-16T19:25:00	0.3514	6.306	172.0	0.956028062	1.317339986	0.029564482	0.305011312	0.094007449
2020-03-16T19:30:00	0.3496	6.285	172.0	0.950567570	1.307618975	0.029234467	0.301606610	0.092958086
2020-03-16T19:35:00	0.3494	6.264	172.0	0.949970075	1.306556998	0.029198483	0.301235364	0.092843665
2020-03-16T19:40:00	0.3552	6.243	172.0	0.967587273	1.338011342	0.030269961	0.312289612	0.096250691
2020-03-16T19:45:00	0.3511	6.224	172.0	0.955160172	1.315793045	0.029511891	0.304468735	0.093840221
2020-03-16T19:50:00	0.3574	6.203	172.0	0.974267433	1.350015305	0.030681938	0.316539900	0.097560671
2020-03-16T19:55:00	0.3554	6.184	172.0	0.968225557	1.339156480	0.030309190	0.312694326	0.096375428
2020-03-16T20:00:00	0.3583	6.163	172.0	0.977009885	1.354955663	0.030851979	0.318294183	0.098101358
2020-03-16T20:05:00	0.3570	6.144	171.0	0.973090083	1.347896578	0.030609101	0.315788454	0.097329068
2020-03-16T20:10:00	0.3583	6.124	172.0	0.977031518	1.354994662	0.030853323	0.318308043	0.098105630
2020-03-16T20:15:00	0.3562	6.108	171.0	0.970691040	1.343583403	0.030460986	0.314260374	0.096858099
2020-03-16T20:20:00	0.3497	6.091	171.0	0.950980583	1.308353254	0.029259356	0.301863380	0.093037225
2020-03-16T20:25:00	0.3480	6.075	172.0	0.945817852	1.299186222	0.028949099	0.298662518	0.092050689
2020-03-16T20:30:00	0.3459	6.057	171.0	0.939428725	1.287876383	0.028567707	0.294727763	0.090837959
2020-03-16T20:35:00	0.3515	6.039	172.0	0.956484006	1.318152953	0.029592132	0.305296571	0.094095368
2020-03-16T20:40:00	0.3540	6.023	170.0	0.964081009	1.331727699	0.030054979	0.310071676	0.095567102
2020-03-16T20:45:00	0.3526	6.005	171.0	0.959845370	1.324152481	0.029796425	0.307404221	0.094744966
2020-03-16T20:50:00	0.3506	5.988	171.0	0.953782174	1.313338343	0.029428496	0.303608367	0.093575047
2020-03-16T20:55:00	0.3541	5.972	171.0	0.964113560	1.331785982	0.030056971	0.310092226	0.095573436
2020-03-16T21:00:00	0.3575	5.955	171.0	0.974418962	1.350288088	0.030691320	0.316636687	0.097590502
2020-03-16T21:05:00	0.3562	5.936	171.0	0.970496690	1.343234227	0.030449004	0.314136765	0.096820002
2020-03-16T21:10:00	0.3546	5.917	171.0	0.965661629	1.334558915	0.030151786	0.311070418	0.095874924
2020-03-16T21:15:00	0.3559	5.899	171.0	0.969610190	1.341641961	0.030394387	0.313573287	0.096646333
2020-03-16T21:20:00	0.3569	5.881	172.0	0.972647462	1.347100390	0.030581744	0.315506211	0.097242078
2020-03-16T21:25:00	0.3529	5.861	172.0	0.960539162	1.325392127	0.029838690	0.307840259	0.094879358
2020-03-16T21:30:00	0.3534	5.845	171.0	0.962066870	1.328123397	0.029931874	0.308801626	0.095175660
2020-03-16T21:35:00	0.3520	5.827	171.0	0.957829145	1.320552539	0.029673790	0.306139025	0.094355021
2020-03-16T21:40:00	0.3564	5.808	170.0	0.971177850	1.344458184	0.030491008	0.314570112	0.096953564
2020-03-16T21:45:00	0.3573	5.789	170.0	0.973911537	1.349374704	0.030659910	0.316312642	0.097490628
2020-03-16T21:50:00	0.3505	5.771	170.0	0.953304824	1.312488432	0.029399638	0.303310648	0.093483287
2020-03-16T21:55:00	0.3532	5.753	170.0	0.961514486	1.327135576	0.029898162	0.308453823	0.095068464
2020-03-16T22:00:00	0.3549	5.735	170.0	0.966679109	1.336382685	0.030214196	0.311714286	0.096073370
2020-03-16T22:05:00	0.3531	5.716	170.0	0.961227407	1.326622313	0.029880650	0.308273155	0.095012780
2020-03-16T22:10:00	0.3556	5.697	170.0	0.968810204	1.340205727	0.030345147	0.313065289	0.096489762
2020-03-16T22:15:00	0.3556	5.679	170.0	0.968815623	1.340215454	0.030345481	0.313068728	0.096490823
2020-03-16T22:20:00	0.3552	5.661	170.0	0.967609607	1.338051406	0.030271334	0.312303769	0.096255055
2020-03-16T22:25:00	0.3553	5.643	170.0	0.967917920	1.338604503	0.030290279	0.312499227	0.096315297
2020-03-16T22:30:00	0.3547	5.626	170.0	0.966105655	1.335354684	0.030179013	0.311351309	0.095961497
2020-03-16T22:35:00	0.3576	5.607	170.0	0.974889098	1.351134570	0.030720437	0.316937086	0.097683088
2020-03-16T22:40:00	0.3545	5.590	170.0	0.965510428	1.334287981	0.030142518	0.310974801	0.095845454
2020-03-16T22:45:00	0.3572	5.572	170.0	0.973690276	1.348976504	0.030646220	0.316171403	0.097447097
2020-03-16T22:50:00	0.3559	5.553	169.0	0.969761891	1.341914382	0.030403729	0.313669671	0.096676039
2020-03-16T22:55:00	0.3516	5.537	169.0	0.956728591	1.318589139	0.029606970	0.305449657	0.094142551
2020-03-16T23:00:00	0.3588	5.519	169.0	0.978542942	1.357720492	0.030947265	0.319277228	0.098404342
2020-03-16T23:05:00	0.3534	5.500	169.0	0.962202567	1.328366105	0.029940159	0.308887100	0.095202004
2020-03-16T23:10:00	0.3546	5.482	169.0	0.965846014	1.334889340	0.030163090	0.311187042	0.095910869
2020-03-16T23:15:00	0.3531	5.465	169.0	0.961303414	1.326758196	0.029885286	0.308320982	0.095027521
2020-03-16T23:20:00	0.3541	5.449	169.0	0.964341415	1.332193977	0.030070916	0.310236094	0.095617777
2020-03-16T23:25:00	0.3559	5.432	168.0	0.969799815	1.341982489	0.030406065	0.313693769	0.096683466
2020-03-16T23:30:00	0.3577	5.413	169.0	0.975250971	1.351786266	0.030742860	0.317168418	0.097754387
2020-03-16T23:35:00	0.3509	5.396	169.0	0.954645572	1.314876151	0.029480732	0.304147279	0.093741145
2020-03-16T23:40:00	0.3561	5.378	169.0	0.970421505	1.343099157	0.030444370	0.314088954	0.096805266
2020-03-16T23:45:00	0.3561	5.361	168.0	0.970426922	1.343108888	0.030444704	0.314092399	0.096806328
2020-03-16T23:50:00	0.3537	5.344	169.0	0.963161215	1.330081250	0.029998725	0.309491320	0.095388231
2020-03-16T23:55:00	0.3550	5.327	168.0	0.967106761	1.337149519	0.030240448	0.311985132	0.096156848
2020-03-17T00:00:00	0.3558	5.311	169.0	0.969534989	1.341506925	0.030389756	0.313525514	0.096631608
2020-03-17T00:05:00	0.3537	5.292	168.0	0.963177494	1.330110384	0.029999721	0.309501587	0.095391395
2020-03-17T00:10:00	0.3537	5.275	168.0	0.963182921	1.330120095	0.030000052	0.309505009	0.095392450
2020-03-17T00:15:00	0.3549	5.259	168.0	0.966825496	1.336645156	0.030223181	0.311806983	0.096101940
2020-03-17T00:20:00	0.3497	5.244	168.0	0.951046550	1.308470548	0.029263332	0.301904403	0.093049869
2020-03-17T00:25:00	0.3544	5.227	168.0	0.965018173	1.333406067	0.030112356	0.310663621	0.095749545
2020-03-17T00:30:00	0.3520	5.211	168.0	0.957742860	1.320398564	0.029668549	0.306084946	0.094338353
2020-03-17T00:35:00	0.3544	5.195	168.0	0.965029021	1.333425500	0.030113020	0.310670477	0.095751658
2020-03-17T00:40:00	0.3499	5.179	168.0	0.951372440	1.309050070	0.029282980	0.302107111	0.093112346
2020-03-17T00:45:00	0.3537	5.163	168.0	0.962917667	1.329645429	0.029983840	0.309337753	0.095340900
2020-03-17T00:50:00	0.3541	5.148	167.0	0.964135914	1.331826006	0.030058339	0.310106339	0.095577785
2020-03-17T00:55:00	0.3538	5.134	167.0	0.963231759	1.330207497	0.030003038	0.309535809	0.095401943
2020-03-17T01:00:00	0.3532	5.119	167.0	0.961417421	1.326962027	0.029892240	0.308392730	0.095049635
2020-03-17T01:05:00	0.3511	5.103	168.0	0.955047298	1.315591909	0.029505055	0.304398209	0.093818484
2020-03-17T01:10:00	0.3486	5.087	168.0	0.947449793	1.302081203	0.029046971	0.299672243	0.092361896
2020-03-17T01:15:00	0.3540	5.073	167.0	0.963859870	1.331331784	0.030041449	0.309932090	0.095524080
2020-03-17T01:20:00	0.3497	5.058	167.0	0.950807721	1.308045911	0.029248938	0.301755897	0.093004098
2020-03-17T01:25:00	0.3526	5.044	167.0	0.959624003	1.323757045	0.029782946	0.307265168	0.094702109
2020-03-17T01:30:00	0.3531	5.031	167.0	0.961146623	1.326477894	0.029875723	0.308222325	0.094997114
2020-03-17T01:35:00	0.3508	5.019	167.0	0.954168323	1.314026030	0.029451852	0.303849326	0.093649313
2020-03-17T01:40:00	0.3484	5.008	168.0	0.946873633	1.301058837	0.029012396	0.299315539	0.092251956
2020-03-17T01:45:00	0.3498	4.996	167.0	0.951139074	1.308635070	0.029268910	0.301961946	0.093067604
2020-03-17T01:50:00	0.3503	4.985	168.0	0.952664861	1.311349331	0.029360975	0.302911765	0.093360348
2020-03-17T01:55:00	0.3511	4.973	162.0	0.955101671	1.315688797	0.029508347	0.304432181	0.093828955
2020-03-17T02:00:00	0.3464	4.961	166.0	0.940801994	1.290304056	0.028649443	0.295571027	0.091097861
2020-03-17T02:05:00	0.3539	4.948	162.0	0.963610938	1.330886164	0.030026223	0.309775003	0.095475664
2020-03-17T02:10:00	0.3507	4.938	166.0	0.953902484	1.313552586	0.029435772	0.303683430	0.093598182
2020-03-17T02:15:00	0.3442	4.926	167.0	0.934105024	1.278481881	0.028252075	0.291471454	0.089834333
2020-03-17T02:20:00	0.3518	4.916	167.0	0.957255104	1.319528301	0.029638927	0.305779347	0.094244164
2020-03-17T02:25:00	0.3491	4.904	166.0	0.949053197	1.304928011	0.029143312	0.300666173	0.092668235
2020-03-17T02:30:00	0.3509	4.894	166.0	0.954532030	1.314673880	0.029473860	0.304076378	0.093719293
2020-03-17T02:35:00	0.3542	4.884	167.0	0.964552983	1.332572853	0.030083867	0.310369712	0.095658959
2020-03-17T02:40:00	0.3512	4.873	167.0	0.955454421	1.316317440	0.029529715	0.304652629	0.093896899
2020-03-17T02:45:00	0.3529	4.863	167.0	0.960621264	1.325538855	0.029843693	0.307891882	0.094895268
2020-03-17T02:50:00	0.3507	4.854	166.0	0.953945994	1.313630070	0.029438403	0.303710579	0.093606550
2020-03-17T02:55:00	0.3493	4.847	166.0	0.949694382	1.306067100	0.029181887	0.301064153	0.092790896
2020-03-17T03:00:00	0.3546	4.838	166.0	0.965792436	1.334793323	0.030159805	0.311153151	0.095900423
2020-03-17T03:05:00	0.3487	4.830	167.0	0.947879463	1.302843835	0.029072770	0.299938409	0.092443931
2020-03-17T03:10:00	0.3511	4.823	166.0	0.955183228	1.315834132	0.029513287	0.304483142	0.093844661
2020-03-17T03:15:00	0.3511	4.816	166.0	0.955188665	1.315843821	0.029513616	0.304486539	0.093845708
2020-03-17T03:20:00	0.3516	4.808	166.0	0.956712939	1.318561225	0.029606021	0.305439859	0.094139531
2020-03-17T03:25:00	0.3521	4.800	166.0	0.958236644	1.321279812	0.029698553	0.306394497	0.094433760
2020-03-17T03:30:00	0.3573	4.793	166.0	0.973998784	1.349531735	0.030665310	0.316368346	0.097507797
2020-03-17T03:35:00	0.3478	4.785	166.0	0.945171916	1.298041057	0.028910412	0.298263389	0.091927673
2020-03-17T03:40:00	0.3533	4.778	166.0	0.961894477	1.327815078	0.029921350	0.308693057	0.095142198
2020-03-17T03:45:00	0.3502	4.771	166.0	0.952485975	1.311030994	0.029350173	0.302800321	0.093326000
2020-03-17T03:50:00	0.3524	4.762	166.0	0.959174494	1.322954214	0.029755588	0.306982916	0.094615116
2020-03-17T03:55:00	0.3496	4.753	166.0	0.950672300	1.307805155	0.029240777	0.301671709	0.092978150
2020-03-17T04:00:00	0.3524	4.745	165.0	0.959185358	1.322973614	0.029756249	0.306989736	0.094617218
2020-03-17T04:05:00	0.3524	4.736	160.0	0.959236478	1.323064907	0.029759360	0.307021828	0.094627109
2020-03-17T04:10:00	0.3491	4.730	166.0	0.948954871	1.304753365	0.029137398	0.300605169	0.092649432
2020-03-17T04:15:00	0.3505	4.727	166.0	0.953263888	1.312415558	0.029397164	0.303285125	0.093475421
2020-03-17T04:20:00	0.3525	4.725	166.0	0.959389835	1.323338793	0.029768693	0.307118113	0.094656785
2020-03-17T04:25:00	0.3456	4.722	165.0	0.938444918	1.286138293	0.028509231	0.294124480	0.090652021
2020-03-17T04:30:00	0.3478	4.720	166.0	0.945202377	1.298095051	0.028912235	0.298282204	0.091933472
2020-03-17T04:35:00	0.3459	4.717	166.0	0.939462787	1.287936576	0.028569732	0.294748663	0.090844401
2020-03-17T04:40:00	0.3486	4.713	165.0	0.947436346	1.302057340	0.029046164	0.299663916	0.092359329
2020-03-17T04:45:00	0.3506	4.710	166.0	0.953571046	1.312962409	0.029415730	0.303476669	0.093534457
2020-03-17T04:50:00	0.3495	4.708	166.0	0.950277516	1.307103396	0.029216995	0.301426357	0.092902531
2020-03-17T04:55:00	0.3496	4.706	166.0	0.950632923	1.307735153	0.029238405	0.301647232	0.092970606
2020-03-17T05:00:00	0.3469	4.703	165.0	0.942463531	1.293243708	0.028748513	0.296593109	0.091412877
2020-03-17T05:05:00	0.3498	4.701	165.0	0.951343645	1.308998859	0.029281244	0.302089197	0.093106824
2020-03-17T05:10:00	0.3517	4.699	166.0	0.956865118	1.318832644	0.029615255	0.305535128	0.094168894
2020-03-17T05:15:00	0.3515	4.697	166.0	0.956308831	1.317840586	0.029581507	0.305186957	0.094061584
2020-03-17T05:20:00	0.3500	4.694	166.0	0.951801387	1.309813006	0.029308853	0.302374038	0.093194615
2020-03-17T05:25:00	0.3508	4.695	166.0	0.954284457	1.314232879	0.029458878	0.303921815	0.093671655
2020-03-17T05:30:00	0.3521	4.696	166.0	0.958284269	1.321364820	0.029701448	0.306424363	0.094442964
2020-03-17T05:35:00	0.3500	4.699	166.0	0.951955024	1.310086311	0.029318124	0.302469676	0.093224092
2020-03-17T05:40:00	0.3527	4.701	166.0	0.959904182	1.324257546	0.029800006	0.307441170	0.094756354
2020-03-17T05:45:00	0.3526	4.703	166.0	0.959651812	1.323806718	0.029784639	0.307282635	0.094707492
2020-03-17T05:50:00	0.3459	4.705	166.0	0.939318316	1.287681277	0.028561141	0.294660024	0.090817081
2020-03-17T05:55:00	0.3514	4.705	166.0	0.956110598	1.317487137	0.029569486	0.305062940	0.094023361
2020-03-17T06:00:00	0.3522	4.706	166.0	0.958591049	1.321912456	0.029720099	0.306616781	0.094502270
2020-03-17T06:05:00	0.3507	4.708	166.0	0.954086126	1.313879634	0.029446879	0.303798025	0.093633502
2020-03-17T06:10:00	0.3505	4.713	166.0	0.953225501	1.312347220	0.029394844	0.303261191	0.093468044
2020-03-17T06:15:00	0.3532	4.718	165.0	0.961475557	1.327065972	0.029895787	0.308429321	0.095060912
2020-03-17T06:20:00	0.3528	4.724	166.0	0.960313055	1.324988076	0.029824912	0.307698116	0.094835548
2020-03-17T06:25:00	0.3530	4.732	166.0	0.960970996	1.326163944	0.029865013	0.308111836	0.094963060
2020-03-17T06:30:00	0.3494	4.743	166.0	0.950085398	1.306761945	0.029205426	0.301306999	0.092865743
2020-03-17T06:35:00	0.3511	4.754	166.0	0.955304770	1.316050730	0.029520649	0.304559095	0.093868071
2020-03-17T06:40:00	0.3503	4.764	166.0	0.952620717	1.311270772	0.029358309	0.302884262	0.093351871
2020-03-17T06:45:00	0.3527	4.774	166.0	0.959961686	1.324360279	0.029803508	0.307477300	0.094767490
2020-03-17T06:50:00	0.3507	4.786	165.0	0.953938972	1.313617565	0.029437978	0.303706197	0.093605199
2020-03-17T06:55:00	0.3490	4.800	166.0	0.948820352	1.304514450	0.029129310	0.300521721	0.092623713
2020-03-17T07:00:00	0.3511	4.816	166.0	0.955256801	1.315965243	0.029517743	0.304529117	0.093858831
2020-03-17T07:05:00	0.3509	4.835	165.0	0.954396423	1.314432316	0.029465653	0.303991711	0.093693198
2020-03-17T07:10:00	0.3488	4.860	166.0	0.948061136	1.303166343	0.029083682	0.300050989	0.092478629
2020-03-17T07:15:00	0.3514	4.887	166.0	0.956017878	1.317321829	0.029563865	0.305004942	0.094005485
2020-03-17T07:20:00	0.3523	4.914	166.0	0.958801952	1.322288991	0.029732925	0.306749102	0.094543052
2020-03-17T07:25:00	0.3497	4.938	167.0	0.950953094	1.308304377	0.029257699	0.301846286	0.093031957
2020-03-17T07:30:00	0.3509	4.961	166.0	0.954652318	1.314888169	0.029481140	0.304151492	0.093742444
2020-03-17T07:35:00	0.3470	4.986	167.0	0.942530913	1.293362978	0.028752535	0.296634600	0.091425665
2020-03-17T07:40:00	0.3498	5.017	168.0	0.951106763	1.308577616	0.029266962	0.301941850	0.093061411
2020-03-17T07:45:00	0.3502	5.045	167.0	0.952374302	1.310832279	0.029343430	0.302730760	0.093304560
2020-03-17T07:50:00	0.3497	5.071	166.0	0.950905073	1.308218996	0.029254805	0.301816427	0.093022754
2020-03-17T07:55:00	0.3494	5.101	168.0	0.950043776	1.306687975	0.029202920	0.301281144	0.092857775
2020-03-17T08:00:00	0.3494	5.132	167.0	0.950095011	1.306779030	0.029206005	0.301312971	0.092867584
2020-03-17T08:05:00	0.3485	5.159	167.0	0.947103107	1.301465989	0.029026164	0.299457579	0.092295734
2020-03-17T08:10:00	0.3505	5.188	167.0	0.953238308	1.312370020	0.029395618	0.303269176	0.093470505
2020-03-17T08:15:00	0.3488	5.219	168.0	0.948118808	1.303268729	0.029087147	0.300086733	0.092489645
2020-03-17T08:20:00	0.3479	5.253	168.0	0.945430013	1.298498584	0.028925867	0.298422833	0.091976815
2020-03-17T08:25:00	0.3451	5.291	168.0	0.936944961	1.283490075	0.028420205	0.293206018	0.090368942
2020-03-17T08:30:00	0.3460	5.329	168.0	0.939742112	1.288430233	0.028586348	0.294920081	0.090897233
2020-03-17T08:35:00	0.3508	5.369	168.0	0.954102132	1.313908141	0.029447848	0.303808014	0.093636581
2020-03-17T08:40:00	0.3490	5.410	169.0	0.948679419	1.304264160	0.029120837	0.300434308	0.092596771
2020-03-17T08:45:00	0.3494	5.454	168.0	0.949947713	1.306517259	0.029197137	0.301221475	0.092839384
2020-03-17T08:50:00	0.3491	5.500	168.0	0.949086214	1.304986657	0.029145297	0.300686659	0.092674549
2020-03-17T08:55:00	0.3486	5.543	168.0	0.947615798	1.302375830	0.029056937	0.299775062	0.092393586
2020-03-17T09:00:00	0.3496	5.585	169.0	0.950709782	1.307871789	0.029243036	0.301695009	0.092985332
2020-03-17T09:05:00	0.3455	5.630	169.0	0.937966420	1.285293261	0.028480814	0.293831309	0.090561663
2020-03-17T09:10:00	0.3462	5.682	169.0	0.940153014	1.289156564	0.028610800	0.295172349	0.090974985
2020-03-17T09:15:00	0.3434	5.732	169.0	0.931656893	1.274170714	0.028107589	0.289980814	0.089374903
2020-03-17T09:20:00	0.3427	5.780	170.0	0.929568692	1.270497833	0.027984673	0.288712708	0.088984060
2020-03-17T09:25:00	0.3406	5.819	170.0	0.923194446	1.259311639	0.027611329	0.284860994	0.087796925
2020-03-17T09:30:00	0.3453	5.867	170.0	0.937613117	1.284669463	0.028459842	0.293614948	0.090494979
2020-03-17T09:35:00	0.3423	5.949	171.0	0.928194203	1.268082513	0.027903931	0.287879712	0.088727323
2020-03-17T09:40:00	0.3442	6.014	171.0	0.934052653	1.278389596	0.028248980	0.291439521	0.089824491
2020-03-17T09:45:00	0.3419	6.067	170.0	0.927073663	1.266114758	0.027838204	0.287201616	0.088518327
2020-03-17T09:50:00	0.3378	6.130	170.0	0.914562346	1.244223774	0.027110197	0.279690910	0.086203455
2020-03-17T09:55:00	0.3452	6.190	171.0	0.937259783	1.284045727	0.028438878	0.293398658	0.090428316
2020-03-17T10:00:00	0.3439	6.238	171.0	0.933342115	1.277137790	0.028207005	0.291006469	0.089691020
2020-03-17T10:05:00	0.3413	6.282	171.0	0.925175603	1.262784302	0.027727067	0.286055038	0.088164941
2020-03-17T10:10:00	0.3475	6.335	171.0	0.944197196	1.296313743	0.028852087	0.297661666	0.091742216
2020-03-17T10:15:00	0.3454	6.388	172.0	0.937883722	1.285147237	0.028475904	0.293780657	0.090546052
2020-03-17T10:20:00	0.3442	6.439	172.0	0.934004432	1.278304626	0.028246130	0.291410121	0.089815429
2020-03-17T10:25:00	0.3457	6.487	172.0	0.938672139	1.286539643	0.028522731	0.294263754	0.090694947
2020-03-17T10:30:00	0.3481	6.537	172.0	0.946075943	1.299643894	0.028964565	0.298822079	0.092099867
2020-03-17T10:35:00	0.3417	6.593	173.0	0.926630032	1.265336032	0.027812206	0.286933398	0.088435660
2020-03-17T10:40:00	0.3453	6.656	173.0	0.937413971	1.284317898	0.028448025	0.293493032	0.090457403
2020-03-17T10:45:00	0.3408	6.731	173.0	0.923748046	1.260281645	0.027643643	0.285194368	0.087899674
2020-03-17T10:50:00	0.3450	6.798	173.0	0.936676713	1.283016699	0.028404301	0.293041933	0.090318370
2020-03-17T10:55:00	0.3423	6.849	173.0	0.928211108	1.268112209	0.027904923	0.287889949	0.088730478
2020-03-17T11:00:00	0.3425	6.891	174.0	0.928912089	1.269343797	0.027946086	0.288314612	0.088861364
2020-03-17T11:05:00	0.3439	6.938	174.0	0.933280219	1.277028767	0.028203350	0.290968762	0.089679398
2020-03-17T11:10:00	0.3492	6.991	174.0	0.949526600	1.305768992	0.029171790	0.300959983	0.092758790
2020-03-17T11:15:00	0.3488	7.058	175.0	0.948093988	1.303224666	0.029085656	0.300071350	0.092484904
2020-03-17T11:20:00	0.3445	7.143	175.0	0.935074843	1.280191291	0.028309428	0.292063148	0.090016699
2020-03-17T11:25:00	0.3457	7.248	175.0	0.938826273	1.286811924	0.028531890	0.294358250	0.090724071
2020-03-17T11:30:00	0.3469	7.333	176.0	0.942269456	1.292900210	0.028736931	0.296473623	0.091376050
2020-03-17T11:35:00	0.3446	7.389	176.0	0.935342401	1.280663048	0.028325262	0.292226506	0.090067047
2020-03-17T11:40:00	0.3448	7.441	176.0	0.936042147	1.281897151	0.028366696	0.292653977	0.090198798
2020-03-17T11:45:00	0.3461	7.468	176.0	0.939792682	1.288519615	0.028589357	0.294951122	0.090906800
2020-03-17T11:50:00	0.3438	7.536	177.0	0.932861387	1.276291127	0.028178625	0.290713683	0.089600780
2020-03-17T11:55:00	0.3467	7.624	177.0	0.941800213	1.292069830	0.028708940	0.296184837	0.091287043
2020-03-17T12:00:00	0.3470	7.710	178.0	0.942803606	1.293845702	0.028768814	0.296802547	0.091477427
2020-03-17T12:05:00	0.3423	7.781	178.0	0.928238475	1.268160283	0.027906530	0.287906522	0.088735586
2020-03-17T12:10:00	0.3457	7.817	178.0	0.938713083	1.286611970	0.028525164	0.294288854	0.090702683
2020-03-17T12:15:00	0.3450	7.833	179.0	0.936666273	1.282998277	0.028403682	0.293035548	0.090316402
2020-03-17T12:20:00	0.3469	7.851	178.0	0.942245395	1.292857625	0.028735496	0.296458811	0.091371485
2020-03-17T12:25:00	0.3454	7.890	178.0	0.937760068	1.284928908	0.028468564	0.293704930	0.090522712
2020-03-17T12:30:00	0.3467	7.931	178.0	0.941813851	1.292093961	0.028709753	0.296193227	0.091289629
2020-03-17T12:35:00	0.3462	7.989	178.0	0.940378516	1.289555240	0.028624224	0.295310844	0.091017670
2020-03-17T12:40:00	0.3457	8.042	178.0	0.938637622	1.286478670	0.028520680	0.294242594	0.090688425
2020-03-17T12:45:00	0.3409	8.082	178.0	0.924057449	1.260823898	0.027661712	0.285380783	0.087957129
2020-03-17T12:50:00	0.3439	8.109	178.0	0.933321218	1.277100982	0.028205771	0.290993738	0.089687096
2020-03-17T12:55:00	0.3420	8.124	178.0	0.927296674	1.266506288	0.027851278	0.287336500	0.088559900
2020-03-17T13:00:00	0.3426	8.149	179.0	0.929221096	1.269886853	0.027964241	0.288501924	0.088919095
2020-03-17T13:05:00	0.3390	8.169	179.0	0.918287722	1.250726734	0.027325845	0.281915701	0.086889157
2020-03-17T13:10:00	0.3453	8.191	179.0	0.937646849	1.284729015	0.028461844	0.293635602	0.090501344
2020-03-17T13:15:00	0.3444	8.210	179.0	0.934683519	1.279501435	0.028286278	0.291824318	0.089943089
2020-03-17T13:20:00	0.3422	8.218	179.0	0.928049328	1.267828036	0.027895428	0.287791991	0.088700287
2020-03-17T13:25:00	0.3417	8.232	179.0	0.926609100	1.265299294	0.027810979	0.286920746	0.088431761
2020-03-17T13:30:00	0.3443	8.239	179.0	0.934340375	1.278896631	0.028265987	0.291614982	0.089878570
2020-03-17T13:35:00	0.3446	8.247	179.0	0.935345617	1.280668719	0.028325452	0.292228470	0.090067653
2020-03-17T13:40:00	0.3440	8.267	179.0	0.933602557	1.277596575	0.028222387	0.291165159	0.089739930
2020-03-17T13:45:00	0.3451	8.283	179.0	0.936744986	1.283137174	0.028408348	0.293083690	0.090331240
2020-03-17T13:50:00	0.3432	8.288	179.0	0.931031197	1.273069764	0.028070727	0.289600520	0.089257693
2020-03-17T13:55:00	0.3466	8.311	180.0	0.941498588	1.291536179	0.028690955	0.295999291	0.091229856
2020-03-17T14:00:00	0.3404	8.336	180.0	0.922643198	1.258346041	0.027579174	0.284529252	0.087694679
2020-03-17T14:05:00	0.3456	8.360	180.0	0.938322111	1.285921395	0.028501936	0.294049222	0.090628826
2020-03-17T14:10:00	0.3454	8.379	180.0	0.937801022	1.285001216	0.028470995	0.293730009	0.090530441
2020-03-17T14:15:00	0.3442	8.390	180.0	0.934227060	1.278696933	0.028259289	0.291545872	0.089857269
2020-03-17T14:20:00	0.3465	8.393	180.0	0.941029255	1.290705982	0.028662983	0.295710709	0.091140912
2020-03-17T14:25:00	0.3446	8.404	180.0	0.935321514	1.280626218	0.028324026	0.292213752	0.090063116
2020-03-17T14:30:00	0.3445	8.410	180.0	0.935105379	1.280245130	0.028311235	0.292081790	0.090022444
2020-03-17T14:35:00	0.3451	8.410	180.0	0.937026088	1.283633253	0.028425016	0.293255653	0.090384240
2020-03-17T14:40:00	0.3405	8.413	180.0	0.922746363	1.258526729	0.027585190	0.284591320	0.087713809
2020-03-17T14:45:00	0.3405	8.411	180.0	0.922835824	1.258683424	0.027590408	0.284645150	0.087730400
2020-03-17T14:50:00	0.3417	8.404	180.0	0.926598634	1.265280925	0.027810366	0.286914421	0.088429811
2020-03-17T14:55:00	0.3390	8.400	180.0	0.918111826	1.250419399	0.027315641	0.281810434	0.086856713
2020-03-17T15:00:00	0.3324	8.397	180.0	0.897913693	1.215320329	0.026158076	0.269868050	0.083175954
2020-03-17T15:05:00	0.3388	8.394	180.0	0.917677694	1.249660990	0.027290467	0.281550720	0.086776666
2020-03-17T15:10:00	0.3433	8.393	180.0	0.931237096	1.273432015	0.028082855	0.289725634	0.089296254
2020-03-17T15:15:00	0.3398	8.390	180.0	0.920615640	1.254796897	0.027461082	0.283310920	0.087319177
2020-03-17T15:20:00	0.3415	8.388	180.0	0.925910942	1.264074173	0.027770094	0.286498937	0.088301755
2020-03-17T15:25:00	0.3398	8.386	180.0	0.920794654	1.255110099	0.027471497	0.283418370	0.087352294
2020-03-17T15:30:00	0.3399	8.374	180.0	0.920884159	1.255266706	0.027476705	0.283472102	0.087368855
2020-03-17T15:35:00	0.3423	8.367	180.0	0.928320574	1.268304505	0.027911349	0.287956242	0.088750910
2020-03-17T15:40:00	0.3384	8.362	180.0	0.916464622	1.247542737	0.027220194	0.280825720	0.086553214
2020-03-17T15:45:00	0.3402	8.358	180.0	0.921765388	1.256809004	0.027528012	0.284001430	0.087531999
2020-03-17T15:50:00	0.3385	8.358	180.0	0.916643821	1.247855566	0.027230568	0.280932754	0.086586203
2020-03-17T15:55:00	0.3418	8.357	180.0	0.926842601	1.265709142	0.027824661	0.287061899	0.088475265
2020-03-17T16:00:00	0.3407	8.355	180.0	0.923565139	1.259961128	0.027632964	0.285084199	0.087865719
2020-03-17T16:05:00	0.3389	8.353	180.0	0.917919459	1.250083321	0.027304485	0.281695337	0.086821239
2020-03-17T16:10:00	0.3404	8.351	180.0	0.922386244	1.257896043	0.027564192	0.284374691	0.087647041
2020-03-17T16:15:00	0.3388	8.347	180.0	0.917658974	1.249628290	0.027289382	0.281539523	0.086773215
2020-03-17T16:20:00	0.3396	8.336	180.0	0.919981284	1.253687279	0.027424193	0.282930343	0.087201880
2020-03-17T16:25:00	0.3376	8.321	180.0	0.914023644	1.243284497	0.027079093	0.279370010	0.086104550
2020-03-17T16:30:00	0.3413	8.307	180.0	0.925234087	1.262886871	0.027730488	0.286090329	0.088175818
2020-03-17T16:35:00	0.3396	8.295	180.0	0.920203716	1.254076315	0.027437125	0.283063757	0.087242999
2020-03-17T16:40:00	0.3402	8.283	179.0	0.921911945	1.257065575	0.027536551	0.284089516	0.087559148
2020-03-17T16:45:00	0.3445	8.270	180.0	0.934932947	1.279941129	0.028301032	0.291976535	0.089990004
2020-03-17T16:50:00	0.3445	8.257	180.0	0.935108595	1.280250800	0.028311425	0.292083753	0.090023049
2020-03-17T16:55:00	0.3386	8.242	180.0	0.916923584	1.248344009	0.027246770	0.281099898	0.086637719
2020-03-17T17:00:00	0.3409	8.223	179.0	0.924147851	1.260982354	0.027666993	0.285435264	0.087973920
2020-03-17T17:05:00	0.3459	8.201	180.0	0.939297312	1.287644162	0.028559892	0.294647139	0.090813110
2020-03-17T17:10:00	0.3431	8.178	179.0	0.930923743	1.272880729	0.028064400	0.289535239	0.089237573
2020-03-17T17:15:00	0.3409	8.155	179.0	0.924063899	1.260835204	0.027662089	0.285384670	0.087958327
2020-03-17T17:20:00	0.3437	8.132	179.0	0.932497671	1.275650692	0.028157164	0.290492273	0.089532540
2020-03-17T17:25:00	0.3462	8.109	179.0	0.940304052	1.289423587	0.028619791	0.295265107	0.091003574
2020-03-17T17:30:00	0.3478	8.085	179.0	0.945050762	1.297826309	0.028903159	0.298188559	0.091904610
2020-03-17T17:35:00	0.3486	8.062	179.0	0.947661789	1.302457459	0.029059698	0.299803551	0.092402366
2020-03-17T17:40:00	0.3470	8.039	179.0	0.942659254	1.293590159	0.028760196	0.296713636	0.091450024
2020-03-17T17:45:00	0.3474	8.014	179.0	0.943748708	1.295519274	0.028825273	0.297385031	0.091656955
2020-03-17T17:50:00	0.3495	7.987	179.0	0.950316931	1.307173452	0.029219369	0.301450847	0.092910079
2020-03-17T17:55:00	0.3454	7.960	179.0	0.937696478	1.284816635	0.028464790	0.293665990	0.090510710
2020-03-17T18:00:00	0.3459	7.933	178.0	0.939397323	1.287820891	0.028565839	0.294708497	0.090832021
2020-03-17T18:05:00	0.3511	7.904	178.0	0.955097713	1.315681745	0.029508108	0.304429708	0.093828193
2020-03-17T18:10:00	0.3503	7.873	179.0	0.952841225	1.311663211	0.029371627	0.303021662	0.093394219
2020-03-17T18:15:00	0.3502	7.842	178.0	0.952408083	1.310892389	0.029345470	0.302751801	0.093311045
2020-03-17T18:20:00	0.3532	7.812	177.0	0.961390002	1.326913004	0.029890567	0.308375474	0.095044316
2020-03-17T18:25:00	0.3513	7.781	178.0	0.955796785	1.316927684	0.029550462	0.304866672	0.093962869
2020-03-17T18:30:00	0.3458	7.748	178.0	0.938925018	1.286986371	0.028537759	0.294418797	0.090742733
2020-03-17T18:35:00	0.3497	7.714	177.0	0.950979205	1.308350804	0.029259273	0.301862523	0.093036961
2020-03-17T18:40:00	0.3529	7.683	177.0	0.960571158	1.325449307	0.029840639	0.307860376	0.094885558
2020-03-17T18:45:00	0.3523	7.649	177.0	0.958924830	1.322508391	0.029740399	0.306826212	0.094566818
2020-03-17T18:50:00	0.3542	7.617	177.0	0.964559403	1.332584351	0.030084260	0.310373767	0.095660209
2020-03-17T18:55:00	0.3537	7.585	177.0	0.962914679	1.329640082	0.029983658	0.309335869	0.095340319
2020-03-17T19:00:00	0.3565	7.553	177.0	0.971571000	1.345164824	0.030515267	0.314820383	0.097030700
2020-03-17T19:05:00	0.3550	7.520	176.0	0.966900644	1.336779903	0.030227794	0.311854575	0.096116609
2020-03-17T19:10:00	0.3544	7.488	176.0	0.965256859	1.333833663	0.030126979	0.310814485	0.095796043
2020-03-17T19:15:00	0.3550	7.457	176.0	0.966946247	1.336861676	0.030230593	0.311883458	0.096125511
2020-03-17T19:20:00	0.3528	7.425	176.0	0.960450425	1.325233550	0.029833282	0.307784470	0.094862163
2020-03-17T19:25:00	0.3518	7.393	176.0	0.957285990	1.319583402	0.029640802	0.305798693	0.094250127
2020-03-17T19:30:00	0.3508	7.360	176.0	0.954119101	1.313938364	0.029448874	0.303818605	0.093639845
2020-03-17T19:35:00	0.3551	7.327	176.0	0.967340385	1.337568509	0.030254796	0.312133149	0.096202468
2020-03-17T19:40:00	0.3529	7.293	176.0	0.960541774	1.325396795	0.029838849	0.307841901	0.094879864
2020-03-17T19:45:00	0.3565	7.260	175.0	0.971624674	1.345261308	0.030518580	0.314854559	0.097041233
2020-03-17T19:50:00	0.3547	7.227	175.0	0.966045423	1.335246726	0.030175318	0.311313197	0.095949751
2020-03-17T19:55:00	0.3553	7.192	175.0	0.968037369	1.338818813	0.030297621	0.312574972	0.096338642
2020-03-17T20:00:00	0.3558	7.160	175.0	0.969422854	1.341305577	0.030382852	0.313454285	0.096609655
2020-03-17T20:05:00	0.3563	7.129	174.0	0.970807871	1.343793325	0.030468189	0.314334694	0.096881005
2020-03-17T20:10:00	0.3589	7.096	175.0	0.978843491	1.358262786	0.030965965	0.319470150	0.098463803
2020-03-17T20:15:00	0.3564	7.064	175.0	0.971156084	1.344419066	0.030489666	0.314556259	0.096949294
2020-03-17T20:20:00	0.3571	7.031	174.0	0.973448037	1.348540603	0.030631236	0.316016813	0.097399451
2020-03-17T20:25:00	0.3576	7.000	174.0	0.974831700	1.351031212	0.030716881	0.316900402	0.097671782
2020-03-17T20:30:00	0.3562	6.970	174.0	0.970770436	1.343726060	0.030465881	0.314310879	0.096873665
2020-03-17T20:35:00	0.3587	6.939	174.0	0.978201924	1.357105281	0.030926055	0.319058408	0.098336900
2020-03-17T20:40:00	0.3597	6.908	174.0	0.981093830	1.362325916	0.031106181	0.320916731	0.098909653
2020-03-17T20:45:00	0.3586	6.877	174.0	0.977945269	1.356642339	0.030910097	0.318893778	0.098286159
2020-03-17T20:50:00	0.3580	6.846	174.0	0.976003621	1.353142110	0.030789526	0.317649865	0.097902773
2020-03-17T20:55:00	0.3579	6.816	173.0	0.975875228	1.352910780	0.030781562	0.317567706	0.097877451
2020-03-17T21:00:00	0.3589	6.787	174.0	0.978768766	1.358127949	0.030961315	0.319422178	0.098449017
2020-03-17T21:05:00	0.3577	6.757	173.0	0.975013756	1.351359051	0.030728160	0.317016764	0.097707646
2020-03-17T21:10:00	0.3603	6.726	173.0	0.983041185	1.365845884	0.031227807	0.322171525	0.099296393
2020-03-17T21:15:00	0.3575	6.695	173.0	0.974454514	1.350352093	0.030693521	0.316659398	0.097597502
2020-03-17T21:20:00	0.3592	6.665	173.0	0.979765837	1.359927557	0.031023392	0.320062614	0.098646406
2020-03-17T21:25:00	0.3573	6.636	173.0	0.973895197	1.349345296	0.030658899	0.316302211	0.097487413
2020-03-17T21:30:00	0.3569	6.607	172.0	0.972859287	1.347481399	0.030594834	0.315641266	0.097283704
2020-03-17T21:35:00	0.3587	6.578	172.0	0.978172666	1.357052504	0.030924236	0.319039639	0.098331115
2020-03-17T21:40:00	0.3582	6.550	172.0	0.976533383	1.354096761	0.030822397	0.317988983	0.098007293
2020-03-17T21:45:00	0.3572	6.521	172.0	0.973683802	1.348964853	0.030645819	0.316167270	0.097445823
2020-03-17T21:50:00	0.3558	6.494	172.0	0.969318637	1.341118458	0.030376436	0.313388095	0.096589254
2020-03-17T21:55:00	0.3541	6.466	172.0	0.964342582	1.332196067	0.030070987	0.310236831	0.095618004
2020-03-17T22:00:00	0.3609	6.439	172.0	0.984776794	1.368986159	0.031336434	0.323292210	0.099641799
2020-03-17T22:05:00	0.3578	6.411	171.0	0.975412532	1.352077259	0.030752874	0.317271728	0.097786228
2020-03-17T22:10:00	0.3582	6.383	171.0	0.976618966	1.354251009	0.030827709	0.318043787	0.098024184
2020-03-17T22:15:00	0.3618	6.356	171.0	0.987482604	1.373887574	0.031506208	0.325043743	0.100181638
2020-03-17T22:20:00	0.3581	6.329	172.0	0.976311305	1.353696535	0.030808615	0.317846799	0.097963470
2020-03-17T22:25:00	0.3592	6.302	171.0	0.979632156	1.359686221	0.031015065	0.319976706	0.098619928
2020-03-17T22:30:00	0.3557	6.275	172.0	0.969045171	1.340627506	0.030359605	0.313214447	0.096535734
2020-03-17T22:35:00	0.3578	6.249	171.0	0.975396301	1.352048024	0.030751868	0.317261349	0.097783029
2020-03-17T22:40:00	0.3568	6.221	171.0	0.972369180	1.346599912	0.030564551	0.315328833	0.097187409
2020-03-17T22:45:00	0.3572	6.195	171.0	0.973576507	1.348771773	0.030639182	0.316098793	0.097424718
2020-03-17T22:50:00	0.3569	6.169	171.0	0.972666308	1.347134286	0.030582908	0.315518225	0.097245781
2020-03-17T22:55:00	0.3595	6.143	171.0	0.980521904	1.361292810	0.031070511	0.320548732	0.098796232
2020-03-17T23:00:00	0.3582	6.117	166.0	0.976591922	1.354202266	0.030826030	0.318026469	0.098018846
2020-03-17T23:05:00	0.3608	6.092	171.0	0.984440049	1.368376654	0.031315341	0.323074601	0.099574730
2020-03-17T23:10:00	0.3589	6.067	171.0	0.978701670	1.358006882	0.030957140	0.319379107	0.098435743
2020-03-17T23:15:00	0.3542	6.043	171.0	0.964476281	1.332435491	0.030079171	0.310321266	0.095644028
2020-03-17T23:20:00	0.3565	6.017	170.0	0.971439760	1.344928920	0.030507168	0.314736826	0.097004946
2020-03-17T23:25:00	0.3570	5.993	170.0	0.972949880	1.347644360	0.030600434	0.315699036	0.097301509
2020-03-17T23:30:00	0.3583	5.968	170.0	0.976877928	1.354717787	0.030843785	0.318209648	0.098075304
2020-03-17T23:35:00	0.3584	5.945	170.0	0.977177434	1.355257726	0.030862385	0.318401538	0.098134446
2020-03-17T23:40:00	0.3551	5.920	170.0	0.967190036	1.337298860	0.030245562	0.312037887	0.096173107
2020-03-17T23:45:00	0.3554	5.897	170.0	0.968096028	1.338924063	0.030301227	0.312612172	0.096350108
2020-03-17T23:50:00	0.3552	5.874	170.0	0.967487538	1.337832445	0.030263834	0.312226401	0.096231209
2020-03-17T23:55:00	0.3561	5.849	170.0	0.970210137	1.342719460	0.030431344	0.313954564	0.096763846
2020-03-18T00:00:00	0.3566	5.825	170.0	0.971720709	1.345433948	0.030524507	0.314915714	0.097060082
2020-03-18T00:05:00	0.3526	5.802	170.0	0.959596090	1.323707187	0.029781247	0.307247637	0.094696706
2020-03-18T00:10:00	0.3544	5.779	169.0	0.965052674	1.333467871	0.030114469	0.310685425	0.095756265
2020-03-18T00:15:00	0.3553	5.755	170.0	0.967776888	1.338351489	0.030281612	0.312409810	0.096287738
2020-03-18T00:20:00	0.3544	5.733	169.0	0.965047250	1.333458155	0.030114137	0.310681998	0.095755209
2020-03-18T00:25:00	0.3554	5.710	169.0	0.968074348	1.338885164	0.030299894	0.312598423	0.096345870
2020-03-18T00:30:00	0.3547	5.688	169.0	0.965951005	1.335077503	0.030169528	0.311253461	0.095931340
2020-03-18T00:35:00	0.3519	5.666	169.0	0.957454760	1.319884504	0.029651050	0.305904419	0.094282713
2020-03-18T00:40:00	0.3539	5.643	169.0	0.963520654	1.330724558	0.030020701	0.309718040	0.095458108
2020-03-18T00:45:00	0.3577	5.621	169.0	0.975023619	1.351376812	0.030728771	0.317023069	0.097709589
2020-03-18T00:50:00	0.3515	5.600	168.0	0.956231803	1.317703241	0.029576836	0.305138763	0.094046730
2020-03-18T00:55:00	0.3535	5.581	169.0	0.962299510	1.328539510	0.029946079	0.308948172	0.095220827
2020-03-18T01:00:00	0.3551	5.560	168.0	0.967146666	1.337221082	0.030242899	0.312010411	0.096164639
2020-03-18T01:05:00	0.3560	5.540	168.0	0.969869491	1.342107621	0.030410357	0.313738045	0.096697113
2020-03-18T01:10:00	0.3534	5.520	168.0	0.961988061	1.327982445	0.029927063	0.308751991	0.095160362
2020-03-18T01:15:00	0.3512	5.501	168.0	0.955610673	1.316595937	0.029539183	0.304750306	0.093927004
2020-03-18T01:20:00	0.3499	5.482	168.0	0.951656734	1.309555702	0.029300127	0.302284008	0.093166867
2020-03-18T01:25:00	0.3534	5.463	168.0	0.962283227	1.328510383	0.029945084	0.308937914	0.095217665
2020-03-18T01:30:00	0.3534	5.446	168.0	0.962280513	1.328505529	0.029944918	0.308936204	0.095217138
2020-03-18T01:35:00	0.3530	5.429	168.0	0.961064429	1.326330960	0.029870710	0.308170613	0.094981176
2020-03-18T01:40:00	0.3532	5.412	168.0	0.961668445	1.327410870	0.029907556	0.308550740	0.095098335
2020-03-18T01:45:00	0.3547	5.394	168.0	0.966213351	1.335547721	0.030185618	0.311419459	0.095982502
2020-03-18T01:50:00	0.3529	5.378	168.0	0.960752885	1.325774093	0.029851716	0.307974651	0.094920778
2020-03-18T01:55:00	0.3511	5.362	167.0	0.955285121	1.316015713	0.029519459	0.304546815	0.093864286
2020-03-18T02:00:00	0.3476	5.346	167.0	0.944634904	1.297089299	0.028878270	0.297931791	0.091825472
2020-03-18T02:05:00	0.3506	5.331	162.0	0.953760314	1.313299418	0.029427174	0.303594730	0.093570844
2020-03-18T02:10:00	0.3497	5.314	167.0	0.951021300	1.308425652	0.029261810	0.301888700	0.093045029
2020-03-18T02:15:00	0.3512	5.297	167.0	0.955578054	1.316537796	0.029537206	0.304729913	0.093920719
2020-03-18T02:20:00	0.3517	5.282	162.0	0.957094030	1.319240960	0.029629149	0.305678465	0.094213072
2020-03-18T02:25:00	0.3501	5.267	167.0	0.952229496	1.310574626	0.029334689	0.302640576	0.093276765
2020-03-18T02:30:00	0.3523	5.253	167.0	0.958910287	1.322482424	0.029739514	0.306817085	0.094564005
2020-03-18T02:35:00	0.3514	5.238	167.0	0.956174728	1.317601476	0.029573375	0.305103057	0.094035725
2020-03-18T02:40:00	0.3506	5.223	167.0	0.953741278	1.313265520	0.029426023	0.303582855	0.093567184
2020-03-18T02:45:00	0.3526	5.211	167.0	0.959812681	1.324094085	0.029794434	0.307383685	0.094738637
2020-03-18T02:50:00	0.3508	5.197	167.0	0.954343658	1.314338329	0.029462460	0.303958771	0.093683045
2020-03-18T02:55:00	0.3506	5.185	167.0	0.953733119	1.313250993	0.029425530	0.303577765	0.093565615
2020-03-18T03:00:00	0.3486	5.172	166.0	0.947647206	1.302431575	0.029058823	0.299794517	0.092399582
2020-03-18T03:05:00	0.3532	5.159	167.0	0.961622302	1.327328360	0.029904740	0.308521692	0.095089382
2020-03-18T03:10:00	0.3500	5.146	166.0	0.951900954	1.309990123	0.029314861	0.302436016	0.093213717
2020-03-18T03:15:00	0.3536	5.134	166.0	0.962830081	1.329488710	0.029978488	0.309282537	0.095323882
2020-03-18T03:20:00	0.3540	5.121	167.0	0.964040216	1.331654662	0.030052483	0.310045924	0.095559165
2020-03-18T03:25:00	0.3538	5.110	166.0	0.963431123	1.330564309	0.030015227	0.309661559	0.095440700
2020-03-18T03:30:00	0.3532	5.098	166.0	0.961608731	1.327304093	0.029903912	0.308513148	0.095086749
2020-03-18T03:35:00	0.3491	5.086	166.0	0.949149798	1.305099602	0.029149122	0.300726114	0.092686709
2020-03-18T03:40:00	0.3525	5.073	166.0	0.959479317	1.323498612	0.029774139	0.307174302	0.094674103
2020-03-18T03:45:00	0.3494	5.061	167.0	0.950057076	1.306711611	0.029203721	0.301289405	0.092860321
2020-03-18T03:50:00	0.3524	5.049	166.0	0.959170369	1.322946847	0.029755337	0.306980326	0.094614318
2020-03-18T03:55:00	0.3551	5.037	166.0	0.967354727	1.337594231	0.030255676	0.312142236	0.096205269
2020-03-18T04:00:00	0.3533	5.026	165.0	0.961895782	1.327817412	0.029921430	0.308693879	0.095142452
2020-03-18T04:05:00	0.3537	5.014	165.0	0.963017616	1.329824277	0.029989948	0.309400770	0.095360322
2020-03-18T04:10:00	0.3534	5.001	165.0	0.962016472	1.328033259	0.029928797	0.308769885	0.095165877
2020-03-18T04:15:00	0.3525	4.990	165.0	0.959497846	1.323531706	0.029775267	0.307185938	0.094677689
2020-03-18T04:20:00	0.3524	4.979	166.0	0.959102952	1.322826456	0.029751235	0.306938007	0.094601275
2020-03-18T04:25:00	0.3490	4.969	165.0	0.948678144	1.304261895	0.029120760	0.300433517	0.092596528
2020-03-18T04:30:00	0.3501	4.957	165.0	0.952236694	1.310587432	0.029335123	0.302645058	0.093278146
2020-03-18T04:35:00	0.3510	4.947	165.0	0.954880700	1.315295062	0.029494967	0.304294133	0.093786407
2020-03-18T04:40:00	0.3533	4.937	166.0	0.961771894	1.327595860	0.029913869	0.308615870	0.095118409
2020-03-18T04:45:00	0.3522	4.927	165.0	0.958646028	1.322010608	0.029723442	0.306651272	0.094512900
2020-03-18T04:50:00	0.3524	4.915	165.0	0.959161740	1.322931437	0.029754812	0.306974909	0.094612648
2020-03-18T04:55:00	0.3546	4.906	165.0	0.965742701	1.334704196	0.030156756	0.311121694	0.095890728
2020-03-18T05:00:00	0.3537	4.898	165.0	0.962923128	1.329655201	0.029984174	0.309341196	0.095341961
2020-03-18T05:05:00	0.3513	4.888	165.0	0.955850975	1.317024286	0.029553747	0.304900559	0.093973313
2020-03-18T05:10:00	0.3524	4.878	165.0	0.959099754	1.322820746	0.029751040	0.306936000	0.094600656
2020-03-18T05:15:00	0.3574	4.871	165.0	0.974157345	1.349817137	0.030675123	0.316469593	0.097539002
2020-03-18T05:20:00	0.3551	4.864	165.0	0.967407495	1.337688876	0.030258918	0.312175675	0.096215575
2020-03-18T05:25:00	0.3558	4.857	165.0	0.969436228	1.341329591	0.030383676	0.313462780	0.096612273
2020-03-18T05:30:00	0.3571	4.851	165.0	0.973279274	1.348236951	0.030620799	0.315909138	0.097366264
2020-03-18T05:35:00	0.3596	4.845	165.0	0.981045512	1.362238623	0.031103166	0.320885632	0.098900068
2020-03-18T05:40:00	0.3551	4.840	165.0	0.967345635	1.337577924	0.030255118	0.312136475	0.096203493
2020-03-18T05:45:00	0.3553	4.834	165.0	0.967860252	1.338501044	0.030286735	0.312462663	0.096304027
2020-03-18T05:50:00	0.3576	4.828	160.0	0.974729675	1.350847504	0.030710562	0.316835203	0.097651687
2020-03-18T05:55:00	0.3560	4.824	165.0	0.970100352	1.342522261	0.030424579	0.313884774	0.096742336
2020-03-18T06:00:00	0.3556	4.819	165.0	0.968798131	1.340184057	0.030344404	0.313057626	0.096487401
2020-03-18T06:05:00	0.3589	4.815	165.0	0.978687984	1.357982187	0.030956289	0.319370322	0.098433035
2020-03-18T06:10:00	0.3574	4.812	165.0	0.974365530	1.350191898	0.030688011	0.316602556	0.097579983
2020-03-18T06:15:00	0.3585	4.808	160.0	0.977599684	1.356019086	0.030888618	0.318672179	0.098217860
2020-03-18T06:20:00	0.3591	4.805	165.0	0.979321367	1.359125218	0.030995711	0.319777034	0.098558387
2020-03-18T06:25:00	0.3583	4.802	165.0	0.977115550	1.355146155	0.030858541	0.318361884	0.098122224
2020-03-18T06:30:00	0.3596	4.800	164.0	0.980951438	1.362068674	0.031097298	0.320825088	0.098881408
2020-03-18T06:35:00	0.3602	4.799	164.0	0.982671723	1.365177779	0.031204711	0.321933246	0.099222953
2020-03-18T06:40:00	0.3567	4.798	164.0	0.972004175	1.345943576	0.030542008	0.315096263	0.097115729
2020-03-18T06:45:00	0.3612	4.797	165.0	0.985808588	1.370854367	0.031401112	0.323959483	0.099847459
2020-03-18T06:50:00	0.3594	4.797	165.0	0.980285881	1.360866557	0.031055797	0.320396934	0.098749447
2020-03-18T06:55:00	0.3554	4.797	165.0	0.968098087	1.338927756	0.030301353	0.312613478	0.096350510
2020-03-18T07:00:00	0.3582	4.800	165.0	0.976780883	1.354542857	0.030837760	0.318147487	0.098056145
2020-03-18T07:05:00	0.3563	4.803	165.0	0.970943416	1.344036887	0.030476548	0.314420930	0.096907584
2020-03-18T07:10:00	0.3556	4.807	164.0	0.968733102	1.340067336	0.030340404	0.313016353	0.096474680
2020-03-18T07:15:00	0.3569	4.811	164.0	0.972879332	1.347517454	0.030596073	0.315654048	0.097287643
2020-03-18T07:20:00	0.3606	4.817	165.0	0.983966387	1.367519514	0.031285686	0.322768655	0.099480434
2020-03-18T07:25:00	0.3594	4.824	164.0	0.980253457	1.360808005	0.031053776	0.320376084	0.098743021
2020-03-18T07:30:00	0.3611	4.833	164.0	0.985293031	1.369920751	0.031368785	0.323625969	0.099744667
2020-03-18T07:35:00	0.3580	4.842	164.0	0.976143926	1.353394918	0.030798230	0.317739658	0.097930449
2020-03-18T07:40:00	0.3591	4.856	164.0	0.979376685	1.359225065	0.030999155	0.319812569	0.098569340
2020-03-18T07:45:00	0.3569	4.873	165.0	0.972635400	1.347078696	0.030580998	0.315498521	0.097239708
2020-03-18T07:50:00	0.3574	4.893	165.0	0.974359159	1.350180429	0.030687617	0.316598487	0.097578728
2020-03-18T07:55:00	0.3596	4.916	165.0	0.980915839	1.362004365	0.031095077	0.320802179	0.098874347
2020-03-18T08:00:00	0.3545	4.939	159.0	0.965397531	1.334085696	0.030135599	0.310903417	0.095823453
2020-03-18T08:05:00	0.3603	4.965	165.0	0.983148849	1.366040599	0.031234539	0.322240979	0.099317799
2020-03-18T08:10:00	0.3605	4.994	165.0	0.983661495	1.366967894	0.031266606	0.322571807	0.099419764
2020-03-18T08:15:00	0.3575	5.030	161.0	0.974508767	1.350449766	0.030696880	0.316694057	0.097608184
2020-03-18T08:20:00	0.3589	5.067	165.0	0.978649183	1.357912178	0.030953874	0.319345417	0.098425359
2020-03-18T08:25:00	0.3592	5.102	165.0	0.979766453	1.359928668	0.031023430	0.320063010	0.098646528
2020-03-18T08:30:00	0.3514	5.148	166.0	0.956050494	1.317379978	0.029565842	0.305025343	0.094011773
2020-03-18T08:35:00	0.3583	5.186	166.0	0.976865502	1.354695389	0.030843014	0.318201688	0.098072851
2020-03-18T08:40:00	0.3574	5.224	165.0	0.974355974	1.350174694	0.030687420	0.316596452	0.097578101
2020-03-18T08:45:00	0.3595	5.271	161.0	0.980610721	1.361453225	0.031076049	0.320605864	0.098813841
2020-03-18T08:50:00	0.3534	5.313	162.0	0.962059243	1.328109756	0.029931408	0.308796823	0.095174180
2020-03-18T08:55:00	0.3523	5.362	167.0	0.958933597	1.322524046	0.029740932	0.306831714	0.094568514
2020-03-18T09:00:00	0.3562	5.418	167.0	0.970663682	1.343534250	0.030459299	0.314242973	0.096852736
2020-03-18T09:05:00	0.3574	5.476	167.0	0.974203175	1.349899634	0.030677960	0.316498862	0.097548023
2020-03-18T09:10:00	0.3580	5.535	167.0	0.975926278	1.353002756	0.030784729	0.317600371	0.097887519
2020-03-18T09:15:00	0.3540	5.589	162.0	0.964028713	1.331634067	0.030051779	0.310038663	0.095556927
2020-03-18T09:20:00	0.3554	5.652	167.0	0.968179694	1.339074185	0.030306370	0.312665236	0.096366462
2020-03-18T09:25:00	0.3522	5.721	168.0	0.958385259	1.321545089	0.029707587	0.306487698	0.094462485
2020-03-18T09:30:00	0.3545	5.792	168.0	0.965573621	1.334401212	0.030146391	0.311014761	0.095857770
2020-03-18T09:35:00	0.3564	5.868	168.0	0.971236499	1.344563590	0.030494626	0.314607440	0.096965068
2020-03-18T09:40:00	0.3519	5.947	168.0	0.957503804	1.319972008	0.029654029	0.305935146	0.094292183
2020-03-18T09:45:00	0.3554	6.023	168.0	0.968329527	1.339343048	0.030315583	0.312760278	0.096395755
2020-03-18T09:50:00	0.3516	6.095	169.0	0.956713593	1.318562390	0.029606060	0.305440268	0.094139657
2020-03-18T09:55:00	0.3511	6.163	169.0	0.955103288	1.315691679	0.029508445	0.304433191	0.093829266
2020-03-18T10:00:00	0.3542	6.228	170.0	0.964419939	1.332334593	0.030075722	0.310285682	0.095633061
2020-03-18T10:05:00	0.3556	6.294	170.0	0.968913508	1.340391156	0.030351503	0.313130861	0.096509973
2020-03-18T10:10:00	0.3530	6.364	171.0	0.960981854	1.326183354	0.029865675	0.308118666	0.094965165
2020-03-18T10:15:00	0.3530	6.442	170.0	0.960930756	1.326092016	0.029862560	0.308086523	0.094955259
2020-03-18T10:20:00	0.3531	6.522	171.0	0.961183047	1.326543008	0.029877944	0.308245242	0.095004177
2020-03-18T10:25:00	0.3558	6.601	171.0	0.969315105	1.341112116	0.030376219	0.313385851	0.096588563
2020-03-18T10:30:00	0.3566	6.686	166.0	0.971685647	1.345370917	0.030522343	0.314893386	0.097053200
2020-03-18T10:35:00	0.3562	6.770	172.0	0.970726761	1.343647586	0.030463188	0.314283097	0.096865103
2020-03-18T10:40:00	0.3528	6.862	172.0	0.960371825	1.325093093	0.029828493	0.307735059	0.094846934
2020-03-18T10:45:00	0.3501	6.958	173.0	0.952119537	1.310378989	0.029328052	0.302572103	0.093255661
2020-03-18T10:50:00	0.3550	7.056	173.0	0.966940002	1.336850477	0.030230210	0.311879502	0.096124292
2020-03-18T10:55:00	0.3501	7.156	173.0	0.952017118	1.310196776	0.029321871	0.302508334	0.093236006
2020-03-18T11:00:00	0.3527	7.252	174.0	0.959863931	1.324185640	0.029797555	0.307415882	0.094748560
2020-03-18T11:05:00	0.3528	7.352	174.0	0.960419735	1.325178706	0.029831412	0.307765176	0.094856216
2020-03-18T11:10:00	0.3498	7.453	174.0	0.951255294	1.308841740	0.029275917	0.302034235	0.093089885
2020-03-18T11:15:00	0.3480	7.551	175.0	0.945726208	1.299023724	0.028943608	0.298605872	0.092033230
2020-03-18T11:20:00	0.3519	7.640	175.0	0.957534482	1.320026745	0.029655892	0.305954368	0.094298108
2020-03-18T11:25:00	0.3532	7.724	175.0	0.961428931	1.326982607	0.029892942	0.308399975	0.095051867
2020-03-18T11:30:00	0.3483	7.796	176.0	0.946790323	1.300911034	0.029007398	0.299263981	0.092236065
2020-03-18T11:35:00	0.3492	7.863	175.0	0.949478218	1.305683034	0.029168879	0.300929948	0.092749533
2020-03-18T11:40:00	0.3490	7.924	176.0	0.948818422	1.304511022	0.029129194	0.300520524	0.092623344
2020-03-18T11:45:00	0.3496	7.987	176.0	0.950592581	1.307663437	0.029235974	0.301622156	0.092962878
2020-03-18T11:50:00	0.3521	8.046	177.0	0.958138538	1.321104707	0.029692590	0.306332981	0.094414800
2020-03-18T11:55:00	0.3488	8.107	176.0	0.948056000	1.303157225	0.029083374	0.300047806	0.092477648
2020-03-18T12:00:00	0.3468	8.167	177.0	0.942217777	1.292808748	0.028733848	0.296441810	0.091366245
2020-03-18T12:05:00	0.3506	8.222	178.0	0.953732293	1.313249521	0.029425480	0.303577250	0.093565457
2020-03-18T12:10:00	0.3446	8.271	178.0	0.935403919	1.280771526	0.028328903	0.292264073	0.090078626
2020-03-18T12:15:00	0.3479	8.314	178.0	0.945415250	1.298472411	0.028924982	0.298413711	0.091974004
2020-03-18T12:20:00	0.3475	8.353	178.0	0.944145541	1.296222230	0.028848998	0.297629797	0.091732394
2020-03-18T12:25:00	0.3473	8.386	178.0	0.943484879	1.295052004	0.028809506	0.297222363	0.091606819
2020-03-18T12:30:00	0.3478	8.416	178.0	0.945261366	1.298199616	0.028915767	0.298318642	0.091944703
2020-03-18T12:35:00	0.3455	8.446	178.0	0.938198921	1.285703832	0.028494620	0.293973739	0.090605561
2020-03-18T12:40:00	0.3427	8.471	178.0	0.929595704	1.270545316	0.027986261	0.288729091	0.088989110
2020-03-18T12:45:00	0.3489	8.491	178.0	0.948456445	1.303868209	0.029107435	0.300296039	0.092554156
2020-03-18T12:50:00	0.3446	8.507	178.0	0.935297861	1.280584511	0.028322626	0.292199309	0.090058665
2020-03-18T12:55:00	0.3477	8.518	178.0	0.944700283	1.297205158	0.028882182	0.297972151	0.091837911
2020-03-18T13:00:00	0.3463	8.522	178.0	0.940687098	1.290100874	0.028642600	0.295500423	0.091076100
2020-03-18T13:05:00	0.3437	8.523	179.0	0.932700243	1.276007368	0.028169116	0.290615576	0.089570543
2020-03-18T13:10:00	0.3460	8.529	178.0	0.939669536	1.288301961	0.028582030	0.294875537	0.090883504
2020-03-18T13:15:00	0.3472	8.537	179.0	0.943276392	1.294682798	0.028797050	0.297093853	0.091567211
2020-03-18T13:20:00	0.3387	8.546	179.0	0.917240737	1.248897822	0.027265143	0.281289450	0.086696140
2020-03-18T13:25:00	0.3438	8.558	179.0	0.932799933	1.276182910	0.028174999	0.290676267	0.089589249
2020-03-18T13:30:00	0.3441	8.567	179.0	0.933970324	1.278244527	0.028244115	0.291389326	0.089809020
2020-03-18T13:35:00	0.3440	8.577	179.0	0.933613455	1.277615773	0.028223030	0.291171800	0.089741977
2020-03-18T13:40:00	0.3436	8.584	179.0	0.932340043	1.275373176	0.028147866	0.290396347	0.089502974
2020-03-18T13:45:00	0.3481	8.595	179.0	0.946014690	1.299535268	0.028960894	0.298784206	0.092088194
2020-03-18T13:50:00	0.3482	8.603	179.0	0.946267905	1.299984342	0.028976071	0.298940787	0.092136454
2020-03-18T13:55:00	0.3463	8.617	179.0	0.940427110	1.289641158	0.028627117	0.295340694	0.091026870
2020-03-18T14:00:00	0.3453	8.636	179.0	0.937630432	1.284700032	0.028460870	0.293625550	0.090498246
2020-03-18T14:05:00	0.3448	8.650	179.0	0.936053038	1.281916362	0.028367342	0.292660633	0.090200849
2020-03-18T14:10:00	0.3434	8.661	179.0	0.931725701	1.274291808	0.028111644	0.290022653	0.089387798
2020-03-18T14:15:00	0.3449	8.670	179.0	0.936255466	1.282273462	0.028379334	0.292784362	0.090238984
2020-03-18T14:20:00	0.3426	8.674	179.0	0.929177285	1.269809853	0.027961667	0.288475363	0.088910908
2020-03-18T14:25:00	0.3456	8.672	179.0	0.938288835	1.285862625	0.028499960	0.294028831	0.090622541
2020-03-18T14:30:00	0.3440	8.675	179.0	0.933658463	1.277695065	0.028225689	0.291199229	0.089750431
2020-03-18T14:35:00	0.3430	8.679	179.0	0.930551440	1.272225852	0.028042482	0.289309116	0.089167879
2020-03-18T14:40:00	0.3428	8.680	179.0	0.929888557	1.271060168	0.028003481	0.288906751	0.089043866
2020-03-18T14:45:00	0.3432	8.679	179.0	0.931059791	1.273120069	0.028072411	0.289617894	0.089263048
2020-03-18T14:50:00	0.3409	8.683	179.0	0.923972488	1.260674990	0.027656750	0.285329588	0.087941350
2020-03-18T14:55:00	0.3413	8.683	179.0	0.925145442	1.262731406	0.027725303	0.286036839	0.088159332
2020-03-18T15:00:00	0.3378	8.677	179.0	0.914673435	1.244417502	0.027116614	0.279757110	0.086223858
2020-03-18T15:05:00	0.3413	8.675	179.0	0.925348418	1.263087394	0.027737175	0.286159326	0.088197083
2020-03-18T15:10:00	0.3423	8.674	179.0	0.928356427	1.268367489	0.027913454	0.287977957	0.088757603
2020-03-18T15:15:00	0.3431	8.671	179.0	0.930750925	1.272576727	0.028054225	0.289430263	0.089205218
2020-03-18T15:20:00	0.3382	8.666	179.0	0.915694090	1.246197957	0.027175609	0.280365747	0.086411446
2020-03-18T15:25:00	0.3403	8.656	179.0	0.922080217	1.257360184	0.027546356	0.284190672	0.087590325
2020-03-18T15:30:00	0.3398	8.647	179.0	0.920803157	1.255124977	0.027471992	0.283423474	0.087353867
2020-03-18T15:35:00	0.3385	8.642	179.0	0.916766144	1.248069122	0.027237651	0.281005829	0.086608726
2020-03-18T15:40:00	0.3433	8.633	179.0	0.931410448	1.273737034	0.028093067	0.289830993	0.089328727
2020-03-18T15:45:00	0.3369	8.626	179.0	0.911752145	1.239326908	0.026948156	0.278019156	0.085688204
2020-03-18T15:50:00	0.3395	8.618	179.0	0.919677331	1.253155734	0.027406527	0.282748089	0.087145707
2020-03-18T15:55:00	0.3428	8.609	179.0	0.929727641	1.270777259	0.027994018	0.288809123	0.089013777
2020-03-18T16:00:00	0.3414	8.601	179.0	0.925699571	1.263703352	0.027757722	0.286371300	0.088262416
2020-03-18T16:05:00	0.3421	8.595	179.0	0.927841292	1.267462647	0.027883221	0.287666051	0.088661471
2020-03-18T16:10:00	0.3426	8.589	179.0	0.929370396	1.270149268	0.027973016	0.288592449	0.088946996
2020-03-18T16:15:00	0.3399	8.580	179.0	0.921106332	1.255655478	0.027489636	0.283605503	0.087409970
2020-03-18T16:20:00	0.3433	8.573	179.0	0.931510170	1.273912512	0.028098943	0.289891612	0.089347410
2020-03-18T16:25:00	0.3409	8.563	179.0	0.924169073	1.261019552	0.027668232	0.285448054	0.087977862
2020-03-18T16:30:00	0.3422	8.552	179.0	0.928147159	1.267999877	0.027901170	0.287851226	0.088718543
2020-03-18T16:35:00	0.3391	8.542	179.0	0.918654459	1.251367604	0.027347125	0.282135246	0.086956823
2020-03-18T16:40:00	0.3425	8.533	179.0	0.929064622	1.269611850	0.027955047	0.288407065	0.088889858
2020-03-18T16:45:00	0.3435	8.519	179.0	0.932121326	1.274988148	0.028134968	0.290263274	0.089461960
2020-03-18T16:50:00	0.3375	8.505	179.0	0.913746217	1.242800884	0.027063082	0.279204830	0.086053640
2020-03-18T16:55:00	0.3429	8.492	179.0	0.930287581	1.271761805	0.028026954	0.289148918	0.089118505
2020-03-18T17:00:00	0.3406	8.479	178.0	0.923250496	1.259409836	0.027614600	0.284894737	0.087807325
2020-03-18T17:05:00	0.3409	8.467	179.0	0.924169073	1.261019552	0.027668232	0.285448054	0.087977862
2020-03-18T17:10:00	0.3411	8.454	178.0	0.924781342	1.262092931	0.027704013	0.285817195	0.088091635
2020-03-18T17:15:00	0.3424	8.442	178.0	0.928758824	1.269074479	0.027937083	0.288221733	0.088832737
2020-03-18T17:20:00	0.3440	8.428	178.0	0.933648811	1.277678061	0.028225119	0.291193347	0.089748618
2020-03-18T17:25:00	0.3432	8.414	178.0	0.931204557	1.273374765	0.028080938	0.289705860	0.089290160
2020-03-18T17:30:00	0.3428	8.399	178.0	0.929981876	1.271224246	0.028008970	0.288963376	0.089061319
2020-03-18T17:35:00	0.3435	8.384	178.0	0.932121326	1.274988148	0.028134968	0.290263274	0.089461960
2020-03-18T17:40:00	0.3440	8.369	178.0	0.933648811	1.277678061	0.028225119	0.291193347	0.089748618
2020-03-18T17:45:00	0.3437	8.353	178.0	0.932732389	1.276063972	0.028171013	0.290635146	0.089576575
2020-03-18T17:50:00	0.3444	8.336	178.0	0.934870384	1.279830837	0.028297331	0.291938351	0.089978235
2020-03-18T17:55:00	0.3497	8.318	178.0	0.951021576	1.308426142	0.029261827	0.301888872	0.093045082
2020-03-18T18:00:00	0.3483	8.300	178.0	0.946761460	1.300859829	0.029005667	0.299246120	0.092230561
2020-03-18T18:05:00	0.3463	8.282	178.0	0.940667827	1.290066797	0.028641452	0.295488582	0.091072451
2020-03-18T18:10:00	0.3483	8.263	178.0	0.946761460	1.300859829	0.029005667	0.299246120	0.092230561
2020-03-18T18:15:00	0.3437	8.242	178.0	0.932732389	1.276063972	0.028171013	0.290635146	0.089576575
2020-03-18T18:20:00	0.3417	8.221	178.0	0.926617591	1.265314196	0.027811477	0.286925878	0.088433342
2020-03-18T18:25:00	0.3482	8.198	178.0	0.946456996	1.300319731	0.028987408	0.299057745	0.092172502
2020-03-18T18:30:00	0.3474	8.175	177.0	0.944020457	1.296000637	0.028841519	0.297552633	0.091708611
2020-03-18T18:35:00	0.3469	8.150	178.0	0.942496877	1.293302732	0.028750503	0.296613641	0.091419205
2020-03-18T18:40:00	0.3496	8.126	177.0	0.950717429	1.307885385	0.029243497	0.301699763	0.092986797
2020-03-18T18:45:00	0.3465	8.100	177.0	0.941277602	1.291145254	0.028677782	0.295863392	0.091187971
2020-03-18T18:50:00	0.3490	8.075	177.0	0.948892075	1.304641833	0.029133622	0.300566212	0.092637426
2020-03-18T18:55:00	0.3472	8.048	177.0	0.943411094	1.294921334	0.028805097	0.297176879	0.091592800
2020-03-18T19:00:00	0.3441	8.021	177.0	0.933954239	1.278216184	0.028243164	0.291379519	0.089805998
2020-03-18T19:05:00	0.3484	7.993	177.0	0.947065902	1.301399974	0.029023931	0.299434548	0.092288636
2020-03-18T19:10:00	0.3481	7.966	176.0	0.946152508	1.299779680	0.028969154	0.298869423	0.092114459
2020-03-18T19:15:00	0.3503	7.938	176.0	0.952845976	1.311671668	0.029371914	0.303024623	0.093395132
2020-03-18T19:20:00	0.3510	7.910	176.0	0.954973412	1.315460255	0.029500580	0.304352049	0.093804257
2020-03-18T19:25:00	0.3455	7.882	177.0	0.938227809	1.285754850	0.028496335	0.293991439	0.090611017
2020-03-18T19:30:00	0.3478	7.853	176.0	0.945238909	1.298159808	0.028914423	0.298304770	0.091940427
2020-03-18T19:35:00	0.3482	7.824	176.0	0.946456996	1.300319731	0.028987408	0.299057745	0.092172502
2020-03-18T19:40:00	0.3499	7.794	176.0	0.951629800	1.309507796	0.029298502	0.302267246	0.093161701
2020-03-18T19:45:00	0.3466	7.764	176.0	0.941582455	1.291684553	0.028695955	0.296050876	0.091245755
2020-03-18T19:50:00	0.3497	7.733	175.0	0.951021576	1.308426142	0.029261827	0.301888872	0.093045082
2020-03-18T19:55:00	0.3487	7.702	176.0	0.947979091	1.303020692	0.029078754	0.300000144	0.092462958
2020-03-18T20:00:00	0.3490	7.670	175.0	0.948892075	1.304641833	0.029133622	0.300566212	0.092637426
2020-03-18T20:05:00	0.3503	7.640	174.0	0.952845976	1.311671668	0.029371914	0.303024623	0.093395132
2020-03-18T20:10:00	0.3475	7.608	175.0	0.944325104	1.296540360	0.028859737	0.297740589	0.091766541
2020-03-18T20:15:00	0.3496	7.576	175.0	0.950717429	1.307885385	0.029243497	0.301699763	0.092986797
2020-03-18T20:20:00	0.3510	7.545	175.0	0.954973412	1.315460255	0.029500580	0.304352049	0.093804257
2020-03-18T20:25:00	0.3514	7.513	175.0	0.956188592	1.317626196	0.029574216	0.305111730	0.094038398
2020-03-18T20:30:00	0.3492	7.484	175.0	0.949500618	1.305722829	0.029170227	0.300943853	0.092753818
2020-03-18T20:35:00	0.3492	7.453	175.0	0.949500618	1.305722829	0.029170227	0.300943853	0.092753818
2020-03-18T20:40:00	0.3501	7.424	174.0	0.952237933	1.310589638	0.029335198	0.302645830	0.093278384
2020-03-18T20:45:00	0.3477	7.394	174.0	0.944934330	1.297619945	0.028896189	0.298116657	0.091882449
2020-03-18T20:50:00	0.3471	7.365	174.0	0.943106378	1.294381753	0.028786894	0.296989081	0.091534919
2020-03-18T20:55:00	0.3469	7.336	174.0	0.942496877	1.293302732	0.028750503	0.296613641	0.091419205
2020-03-18T21:00:00	0.3477	7.308	174.0	0.944934330	1.297619945	0.028896189	0.298116657	0.091882449
2020-03-18T21:05:00	0.3474	7.280	174.0	0.944020457	1.296000637	0.028841519	0.297552633	0.091708611
2020-03-18T21:10:00	0.3480	7.253	174.0	0.945847998	1.299239675	0.028950905	0.298681153	0.092056432
2020-03-18T21:15:00	0.3486	7.227	174.0	0.947674718	1.302480406	0.029060475	0.299811560	0.092404834
2020-03-18T21:20:00	0.3473	7.199	174.0	0.943715786	1.295460962	0.028823306	0.297364730	0.091650698
2020-03-18T21:25:00	0.3452	7.172	174.0	0.937312424	1.284138646	0.028442001	0.293430876	0.090438246
2020-03-18T21:30:00	0.3487	7.145	174.0	0.947979091	1.303020692	0.029078754	0.300000144	0.092462958
2020-03-18T21:35:00	0.3499	7.119	173.0	0.951629800	1.309507796	0.029298502	0.302267246	0.093161701
2020-03-18T21:40:00	0.3473	7.093	173.0	0.943715786	1.295460962	0.028823306	0.297364730	0.091650698
2020-03-18T21:45:00	0.3495	7.067	173.0	0.950413261	1.307344676	0.029225172	0.301510707	0.092928528
2020-03-18T21:50:00	0.3471	7.040	173.0	0.943106378	1.294381753	0.028786894	0.296989081	0.091534919
2020-03-18T21:55:00	0.3469	7.015	173.0	0.942496877	1.293302732	0.028750503	0.296613641	0.091419205
2020-03-18T22:00:00	0.3472	6.989	172.0	0.943411094	1.294921334	0.028805097	0.297176879	0.091592800
2020-03-18T22:05:00	0.3511	6.967	172.0	0.955102462	1.315690208	0.029508395	0.304432675	0.093829107
2020-03-18T22:10:00	0.3460	6.949	172.0	0.939707085	1.288368325	0.028584264	0.294898583	0.090890607
2020-03-18T22:15:00	0.3487	6.927	172.0	0.947758182	1.302628553	0.029065487	0.299863266	0.092420771
2020-03-18T22:20:00	0.3474	6.904	172.0	0.943928737	1.295838161	0.028836035	0.297496059	0.091691174
2020-03-18T22:25:00	0.3455	6.880	172.0	0.937960442	1.285282704	0.028480459	0.293827647	0.090560534
2020-03-18T22:30:00	0.3468	6.856	172.0	0.942054451	1.292519707	0.028724104	0.296341283	0.091335261
2020-03-18T22:35:00	0.3463	6.831	172.0	0.940659642	1.290052324	0.028640965	0.295483553	0.091070901
2020-03-18T22:40:00	0.3479	6.808	172.0	0.945360092	1.298374629	0.028921679	0.298379633	0.091963501
2020-03-18T22:45:00	0.3446	6.785	172.0	0.935426880	1.280812015	0.028330262	0.292278095	0.090082948
2020-03-18T22:50:00	0.3479	6.763	171.0	0.945314248	1.298293359	0.028918934	0.298351311	0.091954772
2020-03-18T22:55:00	0.3486	6.742	172.0	0.947574910	1.302303258	0.029054482	0.299749735	0.092385779
2020-03-18T23:00:00	0.3504	6.719	172.0	0.953179401	1.312265155	0.029392059	0.303232450	0.093459186
2020-03-18T23:05:00	0.3498	6.699	172.0	0.951180202	1.308708206	0.029271389	0.301987527	0.093075489
2020-03-18T23:10:00	0.3492	6.679	171.0	0.949484283	1.305693809	0.029169244	0.300933713	0.092750693
2020-03-18T23:15:00	0.3478	6.662	171.0	0.945047347	1.297820256	0.028902954	0.298186450	0.091903960
2020-03-18T23:20:00	0.3473	6.645	171.0	0.943653566	1.295350759	0.028819587	0.297326364	0.091638873
2020-03-18T23:25:00	0.3482	6.628	171.0	0.946219657	1.299898769	0.028973179	0.298910948	0.092127257
2020-03-18T23:30:00	0.3449	6.611	171.0	0.936288552	1.282331832	0.028381295	0.292804588	0.090245218
2020-03-18T23:35:00	0.3460	6.595	171.0	0.939774340	1.288487196	0.028588265	0.294939863	0.090903330
2020-03-18T23:40:00	0.3495	6.580	171.0	0.950259566	1.307071491	0.029215914	0.301415203	0.092899093
2020-03-18T23:45:00	0.3467	6.567	171.0	0.941862738	1.292180464	0.028712668	0.296223307	0.091298900
2020-03-18T23:50:00	0.3459	6.555	171.0	0.939247978	1.287556989	0.028556958	0.294616875	0.090803782
2020-03-18T23:55:00	0.3511	6.542	171.0	0.955207041	1.315876568	0.029514729	0.304498022	0.093849248
2020-03-19T00:00:00	0.3467	6.527	171.0	0.941641497	1.291789010	0.028699475	0.296087193	0.091256949
2020-03-19T00:05:00	0.3454	6.509	171.0	0.937806275	1.285010491	0.028471307	0.293733226	0.090531433
2020-03-19T00:10:00	0.3480	6.490	171.0	0.945861139	1.299262977	0.028951693	0.298689276	0.092058936
2020-03-19T00:15:00	0.3428	6.472	171.0	0.929819198	1.270938224	0.027999402	0.288864669	0.089030896
2020-03-19T00:20:00	0.3469	6.454	170.0	0.942464153	1.293244808	0.028748550	0.296593491	0.091412994
2020-03-19T00:25:00	0.3495	6.436	171.0	0.950205611	1.306975594	0.029212665	0.301381681	0.092888761
2020-03-19T00:30:00	0.3477	6.419	170.0	0.944855775	1.297480722	0.028891488	0.298068151	0.091867499
2020-03-19T00:35:00	0.3430	6.403	170.0	0.930338582	1.271851494	0.028029955	0.289179879	0.089128047
2020-03-19T00:40:00	0.3459	6.385	170.0	0.939323429	1.287690312	0.028561445	0.294663161	0.090818048
2020-03-19T00:45:00	0.3492	6.368	170.0	0.949505580	1.305731645	0.029170525	0.300946934	0.092754768
2020-03-19T00:50:00	0.3467	6.350	170.0	0.941716902	1.291922424	0.028703971	0.296133581	0.091271246
2020-03-19T00:55:00	0.3430	6.333	170.0	0.930552237	1.272227253	0.028042529	0.289309600	0.089168028
2020-03-19T01:00:00	0.3465	6.315	170.0	0.941061301	1.290762661	0.028664892	0.295730408	0.091146984
2020-03-19T01:05:00	0.3463	6.298	170.0	0.940581005	1.289913271	0.028636281	0.295435236	0.091056009
2020-03-19T01:10:00	0.3476	6.282	170.0	0.944367751	1.296615921	0.028862288	0.297766905	0.091774652
2020-03-19T01:15:00	0.3458	6.265	170.0	0.939010218	1.287136895	0.028542823	0.294471044	0.090758836
2020-03-19T01:20:00	0.3425	6.250	170.0	0.929061401	1.269606189	0.027954858	0.288405112	0.088889257
2020-03-19T01:25:00	0.3442	6.234	170.0	0.934080741	1.278439090	0.028250640	0.291456648	0.089829769
2020-03-19T01:30:00	0.3457	6.217	171.0	0.938788820	1.286745760	0.028529664	0.294335287	0.090716994
2020-03-19T01:35:00	0.3464	6.202	170.0	0.940748224	1.290208968	0.028646241	0.295537984	0.091087677
2020-03-19T01:40:00	0.3431	6.186	169.0	0.930803685	1.272669534	0.028057331	0.289462309	0.089215095
2020-03-19T01:45:00	0.3463	6.171	170.0	0.940397408	1.289588643	0.028625349	0.295322449	0.091021247
2020-03-19T01:50:00	0.3450	6.156	170.0	0.936561008	1.282812536	0.028397442	0.292971173	0.090296561
2020-03-19T01:55:00	0.3451	6.141	169.0	0.936995843	1.283579874	0.028423223	0.293237148	0.090378537
2020-03-19T02:00:00	0.3436	6.126	169.0	0.932239684	1.275196499	0.028141947	0.290335282	0.089484153
2020-03-19T02:05:00	0.3419	6.112	169.0	0.927172003	1.266287403	0.027843969	0.287261090	0.088536658
2020-03-19T02:10:00	0.3434	6.098	169.0	0.931582546	1.274039876	0.028103208	0.289935612	0.089360971
2020-03-19T02:15:00	0.3479	6.084	169.0	0.945440396	1.298516991	0.028926488	0.298429248	0.091978793
2020-03-19T02:20:00	0.3454	6.069	168.0	0.937949037	1.285262567	0.028479782	0.293820662	0.090558381
2020-03-19T02:25:00	0.3463	6.055	169.0	0.940518736	1.289803166	0.028632573	0.295396981	0.091044218
2020-03-19T02:30:00	0.3460	6.041	169.0	0.939733407	1.288414847	0.028585830	0.294914738	0.090895587
2020-03-19T02:35:00	0.3469	6.025	169.0	0.942301975	1.292957764	0.028738872	0.296493642	0.091382220
2020-03-19T02:40:00	0.3445	6.010	169.0	0.935110152	1.280253544	0.028311517	0.292084703	0.090023342
2020-03-19T02:45:00	0.3448	5.997	169.0	0.935850426	1.281558978	0.028355341	0.292536821	0.090162689
2020-03-19T02:50:00	0.3447	5.981	169.0	0.935674810	1.281249242	0.028344941	0.292429529	0.090129621
2020-03-19T02:55:00	0.3432	5.966	169.0	0.931222731	1.273406740	0.028082008	0.289716904	0.089293563
2020-03-19T03:00:00	0.3443	5.952	168.0	0.934407512	1.279014954	0.028269957	0.291655933	0.089891191
2020-03-19T03:05:00	0.3418	5.937	168.0	0.926895690	1.265802332	0.027827772	0.287093997	0.088485158
2020-03-19T03:10:00	0.3425	5.923	168.0	0.928860863	1.269253780	0.027943076	0.288283567	0.088851795
2020-03-19T03:15:00	0.3451	5.910	168.0	0.936933519	1.283469882	0.028419527	0.293199018	0.090366785
2020-03-19T03:20:00	0.3475	5.896	168.0	0.944076253	1.296099482	0.028844855	0.297587052	0.091719220
2020-03-19T03:25:00	0.3474	5.883	168.0	0.943900993	1.295789016	0.028834376	0.297478947	0.091685900
2020-03-19T03:30:00	0.3438	5.870	168.0	0.933047851	1.276619504	0.028189631	0.290827229	0.089635776
2020-03-19T03:35:00	0.3429	5.858	168.0	0.930121695	1.271470096	0.028017194	0.289048228	0.089087471
2020-03-19T03:40:00	0.3471	5.845	168.0	0.943070448	1.294318136	0.028784748	0.296966941	0.091528095
2020-03-19T03:45:00	0.3450	5.832	168.0	0.936490485	1.282688102	0.028393262	0.292928048	0.090283269
2020-03-19T03:50:00	0.3451	5.819	168.0	0.936925327	1.283455424	0.028419041	0.293194006	0.090365240
2020-03-19T03:55:00	0.3442	5.807	168.0	0.934001976	1.278300299	0.028245985	0.291408623	0.089814968
2020-03-19T04:00:00	0.3445	5.794	168.0	0.935047799	1.280143612	0.028307828	0.292046640	0.090011611
2020-03-19T04:05:00	0.3459	5.782	168.0	0.939233849	1.287532022	0.028556118	0.294608207	0.090801111
2020-03-19T04:10:00	0.3442	5.769	168.0	0.934264140	1.278762279	0.028261481	0.291568486	0.089864239
2020-03-19T04:15:00	0.3428	5.756	167.0	0.929899810	1.271079955	0.028004143	0.288913579	0.089045971
2020-03-19T04:20:00	0.3456	5.744	168.0	0.938364614	1.285996460	0.028504461	0.294075267	0.090636853
2020-03-19T04:25:00	0.3455	5.731	168.0	0.937973125	1.285305100	0.028481212	0.293835415	0.090562929
2020-03-19T04:30:00	0.3439	5.718	168.0	0.933307344	1.277076544	0.028204952	0.290985286	0.089684491
2020-03-19T04:35:00	0.3452	5.706	167.0	0.937190032	1.283922611	0.028434740	0.293355972	0.090415159
2020-03-19T04:40:00	0.3456	5.694	167.0	0.938324150	1.285924995	0.028502057	0.294050471	0.090629211
2020-03-19T04:45:00	0.3403	5.681	167.0	0.922341700	1.257818039	0.027561596	0.284347901	0.087638785
2020-03-19T04:50:00	0.3478	5.668	167.0	0.945162602	1.298024547	0.028909854	0.298257636	0.091925900
2020-03-19T04:55:00	0.3398	5.655	167.0	0.920636394	1.254833208	0.027462289	0.283323376	0.087323016
2020-03-19T05:00:00	0.3447	5.643	167.0	0.935536946	1.281006111	0.028336778	0.292345318	0.090103666
2020-03-19T05:05:00	0.3433	5.631	167.0	0.931479606	1.273858729	0.028097142	0.289873032	0.089341684
2020-03-19T05:10:00	0.3449	5.620	167.0	0.936279874	1.282316523	0.028380781	0.292799283	0.090243583
2020-03-19T05:15:00	0.3478	5.608	167.0	0.945035962	1.297800077	0.028902273	0.298179419	0.091901793
2020-03-19T05:20:00	0.3474	5.597	167.0	0.944035847	1.296027901	0.028842439	0.297562126	0.091711537
2020-03-19T05:25:00	0.3451	5.588	167.0	0.936936250	1.283474701	0.028419689	0.293200689	0.090367300
2020-03-19T05:30:00	0.3462	5.578	167.0	0.940205617	1.289249560	0.028613931	0.295204653	0.090984941
2020-03-19T05:35:00	0.3456	5.567	167.0	0.938289146	1.285863174	0.028499978	0.294029022	0.090622600
2020-03-19T05:40:00	0.3452	5.557	167.0	0.937287365	1.284094413	0.028440514	0.293415539	0.090433519
2020-03-19T05:45:00	0.3445	5.548	167.0	0.935064191	1.280172512	0.028308798	0.292056646	0.090014695
2020-03-19T05:50:00	0.3472	5.540	167.0	0.943213509	1.294571448	0.028793293	0.297055099	0.091555266
2020-03-19T05:55:00	0.3464	5.532	167.0	0.940993584	1.290642891	0.028660857	0.295688781	0.091134154
2020-03-19T06:00:00	0.3418	5.526	167.0	0.926857849	1.265735906	0.027825555	0.287071118	0.088478107
2020-03-19T06:05:00	0.3438	5.519	167.0	0.932885781	1.276334085	0.028180065	0.290728536	0.089605358
2020-03-19T06:10:00	0.3467	5.512	167.0	0.941649196	1.291802632	0.028699934	0.296091930	0.091258408
2020-03-19T06:15:00	0.3461	5.506	161.0	0.940038376	1.288953908	0.028603977	0.295101956	0.090953289
2020-03-19T06:20:00	0.3468	5.502	166.0	0.942086212	1.292575913	0.028725998	0.296360830	0.091341286
2020-03-19T06:25:00	0.3459	5.503	166.0	0.939255683	1.287570602	0.028557416	0.294621601	0.090805239
2020-03-19T06:30:00	0.3457	5.507	167.0	0.938864279	1.286879066	0.028534149	0.294381553	0.090731254
2020-03-19T06:35:00	0.3472	5.506	167.0	0.943351112	1.294815113	0.028801514	0.297139906	0.091581405
2020-03-19T06:40:00	0.3449	5.505	166.0	0.936250315	1.282264374	0.028379029	0.292781213	0.090238013
2020-03-19T06:45:00	0.3453	5.508	166.0	0.937384696	1.284266221	0.028446288	0.293475113	0.090451880
2020-03-19T06:50:00	0.3436	5.513	166.0	0.932412715	1.275501118	0.028152153	0.290440570	0.089516604
2020-03-19T06:55:00	0.3458	5.519	161.0	0.939042487	1.287193907	0.028544741	0.294490834	0.090764935
2020-03-19T07:00:00	0.3465	5.524	166.0	0.941090826	1.290814881	0.028666651	0.295748558	0.091152578
2020-03-19T07:05:00	0.3456	5.535	166.0	0.938259601	1.285810995	0.028498223	0.294010918	0.090617020
2020-03-19T07:10:00	0.3449	5.547	167.0	0.936342208	1.282426494	0.028384474	0.292837390	0.090255328
2020-03-19T07:15:00	0.3409	5.565	167.0	0.924027591	1.260771567	0.027659968	0.285362791	0.087951584
2020-03-19T07:20:00	0.3485	5.584	167.0	0.947143449	1.301537572	0.029028584	0.299482554	0.092303432
2020-03-19T07:25:00	0.3457	5.604	167.0	0.938829279	1.286817235	0.028532069	0.294360093	0.090724639
2020-03-19T07:30:00	0.3468	5.624	167.0	0.942097121	1.292595219	0.028726649	0.296367545	0.091343356
2020-03-19T07:35:00	0.3438	5.643	167.0	0.932856196	1.276281987	0.028178319	0.290710523	0.089599806
2020-03-19T07:40:00	0.3460	5.669	167.0	0.939485242	1.287976258	0.028571068	0.294762441	0.090848647
2020-03-19T07:45:00	0.3463	5.705	167.0	0.940618718	1.289979957	0.028638527	0.295458407	0.091063151
2020-03-19T07:50:00	0.3448	5.732	167.0	0.935955986	1.281745169	0.028361593	0.292601323	0.090182569
2020-03-19T07:55:00	0.3462	5.747	167.0	0.940141098	1.289135498	0.028610091	0.295165032	0.090972729
2020-03-19T08:00:00	0.3466	5.783	168.0	0.941579244	1.291678872	0.028695763	0.296048900	0.091245146
2020-03-19T08:05:00	0.3465	5.814	168.0	0.941188065	1.290986876	0.028672446	0.295808339	0.091171003
2020-03-19T08:10:00	0.3462	5.826	168.0	0.940187001	1.289216648	0.028612823	0.295193220	0.090981417
2020-03-19T08:15:00	0.3448	5.855	168.0	0.935829058	1.281521290	0.028354075	0.292523765	0.090158665
2020-03-19T08:20:00	0.3428	5.896	168.0	0.929938108	1.271147290	0.028006395	0.288936817	0.089053133
2020-03-19T08:25:00	0.3452	5.919	168.0	0.937182324	1.283909006	0.028434283	0.293351255	0.090413706
2020-03-19T08:30:00	0.3444	5.947	168.0	0.934653740	1.279448944	0.028284517	0.291806148	0.089937489
2020-03-19T08:35:00	0.3457	5.993	168.0	0.938840197	1.286836522	0.028532718	0.294366787	0.090726703
2020-03-19T08:40:00	0.3464	6.031	168.0	0.940888639	1.290457287	0.028654605	0.295624277	0.091114273
2020-03-19T08:45:00	0.3455	6.067	168.0	0.938057273	1.285453691	0.028486208	0.293886961	0.090578815
2020-03-19T08:50:00	0.3402	6.109	169.0	0.921767435	1.256812588	0.027528132	0.284002660	0.087532378
2020-03-19T08:55:00	0.3445	6.148	169.0	0.935137472	1.280301712	0.028313134	0.292101382	0.090028483
2020-03-19T09:00:00	0.3420	6.190	169.0	0.927410461	1.266706077	0.027857950	0.287405336	0.088581116
2020-03-19T09:05:00	0.3433	6.246	170.0	0.931298816	1.273540610	0.028086490	0.289763143	0.089307815
2020-03-19T09:10:00	0.3411	6.307	170.0	0.924789074	1.262106488	0.027704465	0.285821858	0.088093072
2020-03-19T09:15:00	0.3417	6.371	171.0	0.926538680	1.265175701	0.027806854	0.286878184	0.088418643
2020-03-19T09:20:00	0.3422	6.428	170.0	0.927981670	1.267709199	0.027891458	0.287751029	0.088687662
2020-03-19T09:25:00	0.3395	6.496	170.0	0.919627965	1.253069414	0.027403659	0.282718496	0.087136586
2020-03-19T09:30:00	0.3425	6.568	170.0	0.929031788	1.269554148	0.027953118	0.288387162	0.088883724
2020-03-19T09:35:00	0.3418	6.637	170.0	0.926804067	1.265641501	0.027822403	0.287038602	0.088468085
2020-03-19T09:40:00	0.3401	6.711	171.0	0.921512681	1.256366651	0.027513294	0.283849580	0.087485197
2020-03-19T09:45:00	0.3422	6.779	171.0	0.928160358	1.268023061	0.027901945	0.287859218	0.088721007
2020-03-19T09:50:00	0.3418	6.838	171.0	0.926850121	1.265722342	0.027825102	0.287066446	0.088476667
2020-03-19T09:55:00	0.3397	6.907	171.0	0.920333184	1.254302778	0.027444653	0.283141427	0.087266938
2020-03-19T10:00:00	0.3396	6.965	172.0	0.919939942	1.253614975	0.027421790	0.282905550	0.087194238
2020-03-19T10:05:00	0.3398	7.025	172.0	0.920813152	1.255142465	0.027472573	0.283429474	0.087355717
2020-03-19T10:10:00	0.3437	7.115	172.0	0.932699585	1.276006210	0.028169077	0.290615176	0.089570420
2020-03-19T10:15:00	0.3406	7.155	172.0	0.923171519	1.259271474	0.027609991	0.284847192	0.087792671
2020-03-19T10:20:00	0.3426	7.187	172.0	0.929245513	1.269929766	0.027965676	0.288516727	0.088923657
2020-03-19T10:25:00	0.3381	7.215	172.0	0.915416014	1.245712778	0.027159529	0.280199852	0.086360316
2020-03-19T10:30:00	0.3382	7.320	173.0	0.915676645	1.246167518	0.027174600	0.280355339	0.086408238
2020-03-19T10:35:00	0.3396	7.433	174.0	0.919923488	1.253586200	0.027420833	0.282895683	0.087191197
2020-03-19T10:40:00	0.3410	7.522	174.0	0.924471995	1.261550565	0.027685932	0.285630654	0.088034142
2020-03-19T10:45:00	0.3391	7.543	174.0	0.918605081	1.251281309	0.027344259	0.282105681	0.086947711
2020-03-19T10:50:00	0.3372	7.629	175.0	0.912729588	1.241029297	0.027004456	0.278599992	0.085867223
2020-03-19T10:55:00	0.3391	7.729	175.0	0.918512783	1.251120011	0.027338903	0.282050421	0.086930679
2020-03-19T11:00:00	0.3404	7.795	175.0	0.922450354	1.258008311	0.027567930	0.284413249	0.087658926
2020-03-19T11:05:00	0.3423	7.877	175.0	0.928219595	1.268127118	0.027905421	0.287895089	0.088732062
2020-03-19T11:10:00	0.3342	7.947	176.0	0.903630500	1.225216081	0.026482882	0.273219015	0.084208754
2020-03-19T11:15:00	0.3404	8.029	176.0	0.922618325	1.258302479	0.027577723	0.284514289	0.087690067
2020-03-19T11:20:00	0.3367	8.105	176.0	0.911223885	1.238407220	0.026917756	0.277705523	0.085591539
2020-03-19T11:25:00	0.3350	8.164	176.0	0.905952698	1.229244475	0.026615457	0.274586760	0.084630306
2020-03-19T11:30:00	0.3410	8.217	177.0	0.924317312	1.261279400	0.027676893	0.285537404	0.088005401
2020-03-19T11:35:00	0.3375	8.251	177.0	0.913541681	1.242444380	0.027051281	0.279083084	0.086016117
2020-03-19T11:40:00	0.3376	8.296	177.0	0.913802434	1.242898876	0.027066326	0.279238297	0.086063955
2020-03-19T11:45:00	0.3349	8.354	177.0	0.905767516	1.228923048	0.026604871	0.274477550	0.084596647
2020-03-19T11:50:00	0.3391	8.407	178.0	0.918618311	1.251304430	0.027345027	0.282113602	0.086950152
2020-03-19T11:55:00	0.3357	8.457	178.0	0.908134743	1.233034316	0.026740365	0.275875417	0.085027483
2020-03-19T12:00:00	0.3339	8.538	178.0	0.902551679	1.223346323	0.026421418	0.272584894	0.084013312
2020-03-19T12:05:00	0.3378	8.568	178.0	0.914492201	1.244101454	0.027106146	0.279649114	0.086190573
2020-03-19T12:10:00	0.3385	8.604	178.0	0.916593724	1.247768108	0.027227668	0.280902829	0.086576980
2020-03-19T12:15:00	0.3367	8.631	178.0	0.911022455	1.238056605	0.026906169	0.277585985	0.085554696
2020-03-19T12:20:00	0.3336	8.638	178.0	0.901750636	1.221958696	0.026375830	0.272114579	0.083868356
2020-03-19T12:25:00	0.3330	8.671	178.0	0.899856594	1.218680068	0.026268214	0.271004325	0.083526165
2020-03-19T12:30:00	0.3355	8.708	179.0	0.907503424	1.231937367	0.026704193	0.275502232	0.084912464
2020-03-19T12:35:00	0.3384	8.761	179.0	0.916362859	1.247365101	0.027214303	0.280764948	0.086534484
2020-03-19T12:40:00	0.3344	8.820	179.0	0.904027611	1.225904608	0.026505527	0.273452639	0.084280759
2020-03-19T12:45:00	0.3336	8.846	179.0	0.901518912	1.221557398	0.026362651	0.271978611	0.083826449
2020-03-19T12:50:00	0.3349	8.859	179.0	0.905780788	1.228946084	0.026605630	0.274485377	0.084599059
2020-03-19T12:55:00	0.3340	8.877	179.0	0.902965422	1.224063273	0.026444981	0.272827992	0.084088237
2020-03-19T13:00:00	0.3340	8.888	179.0	0.902919092	1.223982983	0.026442342	0.272800764	0.084079845
2020-03-19T13:05:00	0.3317	8.909	180.0	0.895787340	1.211647377	0.026037833	0.268627522	0.082793611
2020-03-19T13:10:00	0.3306	8.924	180.0	0.892347745	1.205714884	0.025843977	0.266627549	0.082177200
2020-03-19T13:15:00	0.3340	8.938	180.0	0.902780100	1.223742121	0.026434425	0.272719090	0.084054672
2020-03-19T13:20:00	0.3299	8.969	180.0	0.890093980	1.201833620	0.025717390	0.265321577	0.081774687
2020-03-19T13:25:00	0.3309	8.990	180.0	0.893442646	1.207602140	0.025905599	0.267263287	0.082373141
2020-03-19T13:30:00	0.3320	8.995	180.0	0.896788494	1.213376196	0.026094409	0.269211206	0.082973508
2020-03-19T13:35:00	0.3332	8.992	180.0	0.900439520	1.219688771	0.026301309	0.271345758	0.083631398
2020-03-19T13:40:00	0.3283	8.995	180.0	0.885273465	1.193547889	0.025447793	0.262540188	0.080917436
2020-03-19T13:45:00	0.3305	9.011	180.0	0.892022561	1.205154585	0.025825691	0.266438898	0.082119056
2020-03-19T13:50:00	0.3280	9.020	180.0	0.884252801	1.191796282	0.025390912	0.261953357	0.080736569
2020-03-19T13:55:00	0.3306	9.033	180.0	0.892238269	1.205526245	0.025837820	0.266564030	0.082157623
2020-03-19T14:00:00	0.3307	9.042	180.0	0.892808997	1.206509798	0.025869927	0.266895266	0.082259713
2020-03-19T14:05:00	0.3318	9.047	180.0	0.896155378	1.212282805	0.026058623	0.268842010	0.082859719
2020-03-19T14:10:00	0.3279	9.054	180.0	0.884066605	1.191476847	0.025380543	0.261846382	0.080703598
2020-03-19T14:15:00	0.3318	9.053	180.0	0.896062559	1.212122540	0.026053379	0.268787908	0.082843044
2020-03-19T14:20:00	0.3282	9.051	180.0	0.884901161	1.192908849	0.025427036	0.262326047	0.080851435
2020-03-19T14:25:00	0.3309	9.047	180.0	0.893193874	1.207173240	0.025891591	0.267118768	0.082328598
2020-03-19T14:30:00	0.3281	9.045	180.0	0.884808079	1.192749100	0.025421848	0.262272524	0.080834939
2020-03-19T14:35:00	0.3306	9.040	180.0	0.892483851	1.205949426	0.025851633	0.266706531	0.082201543
2020-03-19T14:40:00	0.3288	9.044	180.0	0.886878784	1.196304799	0.025537399	0.263464639	0.081202360
2020-03-19T14:45:00	0.3291	9.048	180.0	0.887759255	1.197817896	0.025586620	0.263972437	0.081358869
2020-03-19T14:50:00	0.3268	9.049	180.0	0.880600209	1.185535800	0.025187932	0.259859246	0.080091143
2020-03-19T14:55:00	0.3312	9.046	180.0	0.894149250	1.208820687	0.025945410	0.267674011	0.082499730
2020-03-19T15:00:00	0.3301	9.032	180.0	0.890708236	1.202890978	0.025751857	0.265677163	0.081884282
2020-03-19T15:05:00	0.3291	9.014	180.0	0.887882186	1.198029211	0.025593496	0.264043379	0.081380734
2020-03-19T15:10:00	0.3290	8.995	180.0	0.887526714	1.197418203	0.025573615	0.263838270	0.081317517
2020-03-19T15:15:00	0.3270	8.974	180.0	0.881295751	1.186726996	0.025226514	0.260257299	0.080213827
2020-03-19T15:20:00	0.3255	8.956	180.0	0.876604419	1.178701197	0.024966910	0.257579012	0.079388353
2020-03-19T15:25:00	0.3277	8.939	179.0	0.883368293	1.190279118	0.025341676	0.261445396	0.080580010
2020-03-19T15:30:00	0.3259	8.922	180.0	0.877750305	1.180659671	0.025030183	0.258231787	0.079589545
2020-03-19T15:35:00	0.3269	8.906	180.0	0.880799924	1.185877790	0.025199007	0.259973507	0.080126360
2020-03-19T15:40:00	0.3294	8.890	180.0	0.888792345	1.199594187	0.025644439	0.264568947	0.081542719
2020-03-19T15:45:00	0.3247	8.872	179.0	0.874201673	1.174598513	0.024834524	0.256213208	0.078967399
2020-03-19T15:50:00	0.3257	8.855	179.0	0.877254034	1.179811328	0.025002770	0.257948965	0.079502376
2020-03-19T15:55:00	0.3273	8.837	179.0	0.882160852	1.188209208	0.025274549	0.260752859	0.080366564
2020-03-19T16:00:00	0.3296	8.820	179.0	0.889224102	1.200336841	0.025668624	0.264818466	0.081619623
2020-03-19T16:05:00	0.3275	8.802	179.0	0.882820626	1.189340089	0.025311216	0.261131152	0.080483157
2020-03-19T16:10:00	0.3287	8.784	179.0	0.886618540	1.195857703	0.025522861	0.263314650	0.081156133
2020-03-19T16:15:00	0.3269	8.765	179.0	0.880829897	1.185929117	0.025200669	0.259990657	0.080131646
2020-03-19T16:20:00	0.3291	8.746	179.0	0.887720551	1.197751369	0.025584455	0.263950104	0.081351985
2020-03-19T16:25:00	0.3290	8.728	179.0	0.887499068	1.197370687	0.025572069	0.263822322	0.081312602
2020-03-19T16:30:00	0.3307	8.710	179.0	0.892835628	1.206555700	0.025871425	0.266910728	0.082264478
2020-03-19T16:35:00	0.3310	8.692	179.0	0.893540068	1.207770118	0.025911086	0.267319894	0.082390588
2020-03-19T16:40:00	0.3299	8.675	179.0	0.890232436	1.202071923	0.025725157	0.265401705	0.081799383
2020-03-19T16:45:00	0.3311	8.659	178.0	0.894023263	1.208603388	0.025938309	0.267600754	0.082477151
2020-03-19T16:50:00	0.3295	8.642	179.0	0.888863224	1.199716091	0.025648408	0.264609899	0.081555341
2020-03-19T16:55:00	0.3317	8.623	178.0	0.895739949	1.211565564	0.026035156	0.268599910	0.082785101
2020-03-19T17:00:00	0.3324	8.604	179.0	0.897985002	1.215443578	0.026162114	0.269909707	0.083188793
2020-03-19T17:05:00	0.3303	8.584	179.0	0.891595653	1.204419164	0.025801696	0.266191345	0.082042758
2020-03-19T17:10:00	0.3324	8.564	179.0	0.897851353	1.215212587	0.026154547	0.269831635	0.083164731
2020-03-19T17:15:00	0.3321	8.543	178.0	0.897013999	1.213765732	0.026107162	0.269342776	0.083014059
2020-03-19T17:20:00	0.3334	8.525	178.0	0.901106310	1.220842979	0.026339193	0.271736603	0.083751860
2020-03-19T17:25:00	0.3348	8.505	178.0	0.905194426	1.227928522	0.026572126	0.274139730	0.084492527
2020-03-19T17:30:00	0.3347	8.485	178.0	0.904973912	1.227545930	0.026559533	0.274009805	0.084452483
2020-03-19T17:35:00	0.3343	8.466	178.0	0.903830350	1.225562570	0.026494277	0.273336575	0.084244987
2020-03-19T17:40:00	0.3364	8.448	178.0	0.910374125	1.236928356	0.026868894	0.277201427	0.085436172
2020-03-19T17:45:00	0.3373	8.431	178.0	0.912917996	1.241357545	0.027015315	0.278712029	0.085901754
2020-03-19T17:50:00	0.3375	8.415	178.0	0.913618901	1.242578968	0.027055736	0.279129044	0.086030282
2020-03-19T17:55:00	0.3314	8.398	178.0	0.894937536	1.210180643	0.025989863	0.268132627	0.082641080
2020-03-19T18:00:00	0.3390	8.380	178.0	0.918087724	1.250377290	0.027314243	0.281796012	0.086852268
2020-03-19T18:05:00	0.3377	8.363	178.0	0.914186580	1.243568562	0.027088499	0.279467048	0.086134458
2020-03-19T18:10:00	0.3393	8.348	178.0	0.919181082	1.252288097	0.027377699	0.282450675	0.087054041
2020-03-19T18:15:00	0.3356	8.334	178.0	0.907910179	1.232644081	0.026727495	0.275742641	0.084986560
2020-03-19T18:20:00	0.3380	8.321	178.0	0.915061042	1.245093538	0.027139010	0.279988161	0.086295071
2020-03-19T18:25:00	0.3391	8.308	178.0	0.918521811	1.251135788	0.027339427	0.282055826	0.086932345
2020-03-19T18:30:00	0.3409	8.294	178.0	0.924123300	1.260939321	0.027665559	0.285420468	0.087969360
2020-03-19T18:35:00	0.3404	8.281	177.0	0.922372645	1.257872229	0.027563400	0.284366512	0.087644521
2020-03-19T18:40:00	0.3402	8.267	178.0	0.921846752	1.256951441	0.027532752	0.284050330	0.087547070
2020-03-19T18:45:00	0.3394	8.251	178.0	0.919482123	1.252814407	0.027395185	0.282631075	0.087109642
2020-03-19T18:50:00	0.3378	8.235	178.0	0.914661791	1.244397195	0.027115942	0.279750171	0.086221720
2020-03-19T18:55:00	0.3380	8.219	177.0	0.915055551	1.245083960	0.027138692	0.279984887	0.086294061
2020-03-19T19:00:00	0.3412	8.203	178.0	0.924949528	1.262387842	0.027713846	0.285918642	0.088122902
2020-03-19T19:05:00	0.3391	8.186	178.0	0.918603136	1.251277911	0.027344146	0.282104517	0.086947352
2020-03-19T19:10:00	0.3376	8.167	178.0	0.913781749	1.242862818	0.027065132	0.279225982	0.086060160
2020-03-19T19:15:00	0.3398	8.147	177.0	0.920615744	1.254797080	0.027461088	0.283310982	0.087319196
2020-03-19T19:20:00	0.3356	8.127	177.0	0.907812133	1.232473717	0.026721877	0.275684681	0.084968696
2020-03-19T19:25:00	0.3381	8.108	177.0	0.915576843	1.245993379	0.027168828	0.280295793	0.086389886
2020-03-19T19:30:00	0.3387	8.090	177.0	0.917197456	1.248822238	0.027262635	0.281263578	0.086688166
2020-03-19T19:35:00	0.3397	8.071	177.0	0.920349949	1.254332103	0.027445628	0.283151486	0.087270038
2020-03-19T19:40:00	0.3396	8.054	176.0	0.920130268	1.253947848	0.027432854	0.283019699	0.087229420
2020-03-19T19:45:00	0.3396	8.037	176.0	0.920217045	1.254099629	0.027437900	0.283071752	0.087245463
2020-03-19T19:50:00	0.3389	8.018	176.0	0.917851457	1.249964524	0.027300542	0.281654655	0.086808700
2020-03-19T19:55:00	0.3398	7.998	176.0	0.920697027	1.254939288	0.027465817	0.283359768	0.087334232
2020-03-19T20:00:00	0.3418	7.980	176.0	0.926907437	1.265822953	0.027828461	0.287101100	0.088487347
2020-03-19T20:05:00	0.3382	7.963	176.0	0.915658228	1.246135382	0.027173535	0.280344350	0.086404851
2020-03-19T20:10:00	0.3383	7.945	176.0	0.916051890	1.246822343	0.027196307	0.280579285	0.086477261
2020-03-19T20:15:00	0.3427	7.928	176.0	0.929614023	1.270577520	0.027987338	0.288740202	0.088992535
2020-03-19T20:20:00	0.3387	7.912	176.0	0.917452483	1.249267625	0.027277413	0.281416042	0.086735157
2020-03-19T20:25:00	0.3394	7.894	176.0	0.919378874	1.252633887	0.027389187	0.282569195	0.087090570
2020-03-19T20:30:00	0.3403	7.876	176.0	0.922223363	1.257610825	0.027554698	0.284276740	0.087616852
2020-03-19T20:35:00	0.3394	7.855	176.0	0.919552458	1.252937387	0.027399272	0.282673234	0.087122636
2020-03-19T20:40:00	0.3360	7.833	175.0	0.908897297	1.234359789	0.026784093	0.276326552	0.085166527
2020-03-19T20:45:00	0.3401	7.813	175.0	0.921564591	1.256457512	0.027516317	0.283880768	0.087494810
2020-03-19T20:50:00	0.3407	7.794	175.0	0.923489012	1.259827737	0.027628520	0.285038353	0.087851589
2020-03-19T20:55:00	0.3381	7.778	175.0	0.915606555	1.246045220	0.027170547	0.280313520	0.086395349
2020-03-19T21:00:00	0.3382	7.763	175.0	0.915693429	1.246196805	0.027175571	0.280365353	0.086411325
2020-03-19T21:05:00	0.3369	7.749	175.0	0.911789955	1.239392744	0.026950332	0.278041611	0.085695125
2020-03-19T21:10:00	0.3365	7.733	175.0	0.910648340	1.237405508	0.026884656	0.277364042	0.085486291
2020-03-19T21:15:00	0.3413	7.720	175.0	0.925147036	1.262734203	0.027725396	0.286037801	0.088159628
2020-03-19T21:20:00	0.3378	7.706	175.0	0.914506730	1.244126790	0.027106985	0.279657771	0.086193241
2020-03-19T21:25:00	0.3391	7.692	175.0	0.918581191	1.251239558	0.027342873	0.282091377	0.086943302
2020-03-19T21:30:00	0.3416	7.676	175.0	0.926325124	1.264800921	0.027794345	0.286749133	0.088378868
2020-03-19T21:35:00	0.3396	7.662	175.0	0.919980903	1.253686611	0.027424171	0.282930114	0.087201809
2020-03-19T21:40:00	0.3389	7.649	175.0	0.917921821	1.250087447	0.027304622	0.281696749	0.086821674
2020-03-19T21:45:00	0.3387	7.635	175.0	0.917395345	1.249167832	0.027274102	0.281381879	0.086724628
2020-03-19T21:50:00	0.3372	7.623	175.0	0.912572505	1.240755650	0.026995403	0.278506601	0.085838439
2020-03-19T21:55:00	0.3398	7.610	175.0	0.920634451	1.254829808	0.027462176	0.283322210	0.087322657
2020-03-19T22:00:00	0.3347	7.598	174.0	0.905063283	1.227700983	0.026564636	0.274062457	0.084468711
2020-03-19T22:05:00	0.3380	7.586	174.0	0.915066047	1.245102268	0.027139299	0.279991145	0.086295990
2020-03-19T22:10:00	0.3402	7.572	174.0	0.921981857	1.257187973	0.027540624	0.284131541	0.087572100
2020-03-19T22:15:00	0.3381	7.554	174.0	0.915408091	1.245698955	0.027159071	0.280195126	0.086358859
2020-03-19T22:20:00	0.3379	7.535	174.0	0.914965430	1.244926765	0.027133484	0.279931157	0.086277501
2020-03-19T22:25:00	0.3379	7.519	174.0	0.914829602	1.244689859	0.027125636	0.279850188	0.086252546
2020-03-19T22:30:00	0.3397	7.502	174.0	0.920520264	1.254630041	0.027455534	0.283253681	0.087301536
2020-03-19T22:35:00	0.3386	7.486	174.0	0.917012306	1.248498926	0.027251909	0.281152917	0.086654060
2020-03-19T22:40:00	0.3396	7.471	174.0	0.919942510	1.253619468	0.027421939	0.282907090	0.087194713
2020-03-19T22:45:00	0.3391	7.457	174.0	0.918580704	1.251238709	0.027342844	0.282091086	0.086943212
2020-03-19T22:50:00	0.3380	7.445	174.0	0.915071051	1.245110998	0.027139588	0.279994129	0.086296910
2020-03-19T22:55:00	0.3396	7.431	174.0	0.920148491	1.253979721	0.027433914	0.283030630	0.087232789
2020-03-19T23:00:00	0.3395	7.415	173.0	0.919706352	1.253206483	0.027408214	0.282765488	0.087151070
2020-03-19T23:05:00	0.3366	7.403	173.0	0.910979280	1.237981459	0.026903686	0.277560366	0.085546801
2020-03-19T23:10:00	0.3351	7.389	174.0	0.906233034	1.229731122	0.026631486	0.274752131	0.084681275
2020-03-19T23:15:00	0.3377	7.377	174.0	0.914084967	1.243391406	0.027082633	0.279406530	0.086115806
2020-03-19T23:20:00	0.3378	7.365	174.0	0.914562937	1.244224804	0.027110232	0.279691262	0.086203563
2020-03-19T23:25:00	0.3387	7.353	174.0	0.917188251	1.248806163	0.027262101	0.281258075	0.086686470
2020-03-19T23:30:00	0.3360	7.340	174.0	0.909070361	1.234660685	0.026794023	0.276428996	0.085198101
2020-03-19T23:35:00	0.3385	7.327	174.0	0.916610018	1.247796553	0.027228611	0.280912562	0.086579980
2020-03-19T23:40:00	0.3370	7.314	174.0	0.912177527	1.240067677	0.026972649	0.278271852	0.085766087
2020-03-19T23:45:00	0.3374	7.302	174.0	0.913269750	1.241970468	0.027035597	0.278921267	0.085966243
2020-03-19T23:50:00	0.3375	7.290	173.0	0.913747817	1.242803671	0.027063174	0.279205782	0.086053934
2020-03-19T23:55:00	0.3357	7.276	174.0	0.908082798	1.232944045	0.026737388	0.275844701	0.085018016
2020-03-20T00:00:00	0.3365	7.264	173.0	0.910405162	1.236982360	0.026870678	0.277219830	0.085441844
2020-03-20T00:05:00	0.3378	7.251	174.0	0.914567942	1.244233533	0.027110521	0.279694245	0.086204483
2020-03-20T00:10:00	0.3360	7.239	174.0	0.908904084	1.234371589	0.026784483	0.276330570	0.085167765
2020-03-20T00:15:00	0.3337	7.230	174.0	0.902000966	1.222392273	0.026390072	0.272261506	0.083913640
2020-03-20T00:20:00	0.3373	7.221	174.0	0.912932531	1.241382871	0.027016153	0.278720673	0.085904418
2020-03-20T00:25:00	0.3368	7.211	173.0	0.911568344	1.239006885	0.026937576	0.277910009	0.085654564
2020-03-20T00:30:00	0.3364	7.204	173.0	0.910203692	1.236631828	0.026859100	0.277100384	0.085405029
2020-03-20T00:35:00	0.3356	7.198	174.0	0.907916481	1.232655032	0.026727856	0.275746366	0.084987708
2020-03-20T00:40:00	0.3377	7.189	174.0	0.914230832	1.243645717	0.027091054	0.279493406	0.086142582
2020-03-20T00:45:00	0.3324	7.181	173.0	0.897794737	1.215114740	0.026151341	0.269798567	0.083154538
2020-03-20T00:50:00	0.3363	7.173	173.0	0.909966959	1.236219993	0.026845499	0.276960068	0.085361783
2020-03-20T00:55:00	0.3350	7.165	173.0	0.905834678	1.229039621	0.026608710	0.274517156	0.084608854
2020-03-20T01:00:00	0.3379	7.158	173.0	0.914915033	1.244838864	0.027130572	0.279901114	0.086268242
2020-03-20T01:05:00	0.3381	7.151	173.0	0.915392904	1.245672460	0.027158193	0.280186068	0.086356067
2020-03-20T01:10:00	0.3364	7.143	173.0	0.910344687	1.236877138	0.026867202	0.277183973	0.085430792
2020-03-20T01:15:00	0.3324	7.137	173.0	0.897900813	1.215298069	0.026157347	0.269860526	0.083173635
2020-03-20T01:20:00	0.3353	7.131	173.0	0.906999189	1.231061498	0.026675321	0.275204371	0.084820660
2020-03-20T01:25:00	0.3320	7.123	173.0	0.896703302	1.213229048	0.026089592	0.269161511	0.082958192
2020-03-20T01:30:00	0.3349	7.116	173.0	0.905496832	1.228453273	0.026589402	0.274317961	0.084547460
2020-03-20T01:35:00	0.3335	7.107	173.0	0.901359924	1.221282092	0.026353611	0.271885344	0.083797703
2020-03-20T01:40:00	0.3347	7.099	173.0	0.904916909	1.227447037	0.026556278	0.273976224	0.084442133
2020-03-20T01:45:00	0.3322	7.092	173.0	0.897390511	1.214416222	0.026128462	0.269562528	0.083081789
2020-03-20T01:50:00	0.3335	7.086	173.0	0.901258961	1.221107276	0.026347871	0.271826126	0.083779452
2020-03-20T01:55:00	0.3340	7.080	173.0	0.902969779	1.224070825	0.026445229	0.272830552	0.084089026
2020-03-20T02:00:00	0.3303	7.075	173.0	0.891428960	1.204132054	0.025792331	0.266094719	0.082012977
2020-03-20T02:05:00	0.3339	7.070	173.0	0.902697302	1.223598647	0.026429710	0.272670443	0.084039679
2020-03-20T02:10:00	0.3315	7.064	173.0	0.895166708	1.210576121	0.026002795	0.268266039	0.082682199
2020-03-20T02:15:00	0.3333	7.058	173.0	0.900577443	1.219927480	0.026309143	0.271426577	0.083656307
2020-03-20T02:20:00	0.3317	7.053	173.0	0.895818806	1.211701698	0.026039610	0.268645856	0.082799262
2020-03-20T02:25:00	0.3320	7.048	172.0	0.896607250	1.213063149	0.026084162	0.269105487	0.082940925
2020-03-20T02:30:00	0.3313	7.044	172.0	0.894620668	1.209633911	0.025971989	0.267948225	0.082584245
2020-03-20T02:35:00	0.3274	7.040	172.0	0.882436843	1.188682219	0.025289884	0.260911066	0.080415325
2020-03-20T02:40:00	0.3314	7.037	173.0	0.894964467	1.210227115	0.025991383	0.268148303	0.082645911
2020-03-20T02:45:00	0.3311	7.033	173.0	0.893902618	1.208395315	0.025931510	0.267530613	0.082455533
2020-03-20T02:50:00	0.3301	7.029	173.0	0.890988667	1.203373819	0.025767601	0.265839589	0.081934343
2020-03-20T02:55:00	0.3288	7.024	172.0	0.886836642	1.196232395	0.025535045	0.263440348	0.081194874
2020-03-20T03:00:00	0.3291	7.021	172.0	0.887626871	1.197590347	0.025579216	0.263896052	0.081335326
2020-03-20T03:05:00	0.3309	7.016	173.0	0.893356404	1.207453447	0.025900742	0.267213181	0.082357698
2020-03-20T03:10:00	0.3328	7.012	173.0	0.899077691	1.217332738	0.026224029	0.270548478	0.083385668
2020-03-20T03:15:00	0.3326	7.008	172.0	0.898633218	1.216564150	0.026198834	0.270288544	0.083305554
2020-03-20T03:20:00	0.3302	7.003	173.0	0.891094925	1.203556791	0.025773568	0.265901149	0.081953316
2020-03-20T03:25:00	0.3307	6.999	173.0	0.892810115	1.206511725	0.025869990	0.266895915	0.082259913
2020-03-20T03:30:00	0.3323	6.996	173.0	0.897607709	1.214791529	0.026140754	0.269689342	0.083120874
2020-03-20T03:35:00	0.3328	6.992	172.0	0.899320094	1.217751981	0.026237776	0.270690297	0.083429378
2020-03-20T03:40:00	0.3331	6.988	172.0	0.900107845	1.219114798	0.026282476	0.271151459	0.083571513
2020-03-20T03:45:00	0.3315	6.985	172.0	0.895040265	1.210357915	0.025995659	0.268192426	0.082659510
2020-03-20T03:50:00	0.3337	6.982	172.0	0.901990750	1.222374576	0.026389491	0.272255509	0.083911792
2020-03-20T03:55:00	0.3344	6.979	172.0	0.904008966	1.225872276	0.026504464	0.273441668	0.084277378
2020-03-20T04:00:00	0.3375	6.977	172.0	0.913707418	1.242733254	0.027060843	0.279181733	0.086046522
2020-03-20T04:05:00	0.3340	6.974	172.0	0.902862373	1.223884692	0.026439111	0.272767434	0.084069572
2020-03-20T04:10:00	0.3277	6.971	172.0	0.883336694	1.190224930	0.025339918	0.261427259	0.080574420
2020-03-20T04:15:00	0.3334	6.968	172.0	0.901148754	1.220916464	0.026341606	0.271761493	0.083759532
2020-03-20T04:20:00	0.3298	6.965	172.0	0.889960695	1.201604234	0.025709915	0.265244455	0.081750917
2020-03-20T04:25:00	0.3344	6.962	172.0	0.904052530	1.225947817	0.026506949	0.273467303	0.084285279
2020-03-20T04:30:00	0.3315	6.958	172.0	0.895031987	1.210343629	0.025995192	0.268187607	0.082658025
2020-03-20T04:35:00	0.3311	6.955	172.0	0.894019350	1.208596638	0.025938089	0.267598479	0.082476450
2020-03-20T04:40:00	0.3358	6.952	172.0	0.908404238	1.233502691	0.026755815	0.276034807	0.085076608
2020-03-20T04:45:00	0.3341	6.949	172.0	0.903088511	1.224276598	0.026451993	0.272900337	0.084110534
2020-03-20T04:50:00	0.3342	6.946	172.0	0.903616872	1.225192454	0.026482105	0.273210999	0.084206283
2020-03-20T04:55:00	0.3317	6.943	172.0	0.895828863	1.211719062	0.026040178	0.268651716	0.082801068
2020-03-20T05:00:00	0.3316	6.939	172.0	0.895433204	1.211036069	0.026017837	0.268421225	0.082730028
2020-03-20T05:05:00	0.3342	6.937	172.0	0.903355454	1.224739282	0.026467204	0.273057268	0.084158902
2020-03-20T05:10:00	0.3322	6.934	173.0	0.897416623	1.214461340	0.026129940	0.269577772	0.083086487
2020-03-20T05:15:00	0.3357	6.931	173.0	0.908102365	1.232978048	0.026738509	0.275856271	0.085021582
2020-03-20T05:20:00	0.3342	6.929	172.0	0.903401778	1.224819582	0.026469845	0.273084506	0.084167297
2020-03-20T05:25:00	0.3314	6.928	172.0	0.894996603	1.210282569	0.025993196	0.268167009	0.082651677
2020-03-20T05:30:00	0.3330	6.927	172.0	0.899840685	1.218652544	0.026267312	0.270995011	0.083523294
2020-03-20T05:35:00	0.3323	6.926	172.0	0.897596678	1.214772468	0.026140130	0.269682900	0.083118889
2020-03-20T05:40:00	0.3336	6.924	172.0	0.901514030	1.221548944	0.026362373	0.271975747	0.083825567
2020-03-20T05:45:00	0.3332	6.923	172.0	0.900503040	1.219798706	0.026304917	0.271382977	0.083642869
2020-03-20T05:50:00	0.3319	6.922	172.0	0.896410110	1.212722682	0.026073018	0.268990521	0.082905491
2020-03-20T05:55:00	0.3336	6.921	172.0	0.901560376	1.221629201	0.026365009	0.272002938	0.083833947
2020-03-20T06:00:00	0.3311	6.921	172.0	0.894076824	1.208695766	0.025941328	0.267631896	0.082486750
2020-03-20T06:05:00	0.3339	6.920	172.0	0.902617431	1.223460251	0.026425161	0.272623520	0.084025216
2020-03-20T06:10:00	0.3334	6.920	172.0	0.900990902	1.220643179	0.026332634	0.271668933	0.083731004
2020-03-20T06:15:00	0.3352	6.920	172.0	0.906442785	1.230095286	0.026643483	0.274875900	0.084719422
2020-03-20T06:20:00	0.3337	6.920	172.0	0.902048108	1.222473930	0.026392754	0.272289181	0.083922170
2020-03-20T06:25:00	0.3343	6.920	172.0	0.903807661	1.225523231	0.026492983	0.273323227	0.084240873
2020-03-20T06:30:00	0.3347	6.920	172.0	0.904951230	1.227506578	0.026558238	0.273996442	0.084448364
2020-03-20T06:35:00	0.3339	6.921	172.0	0.902710097	1.223620817	0.026430438	0.272677960	0.084041995
2020-03-20T06:40:00	0.3374	6.922	172.0	0.913381710	1.242165579	0.027042054	0.278987884	0.085986775
2020-03-20T06:45:00	0.3334	6.923	172.0	0.900996413	1.220652719	0.026332947	0.271672164	0.083732000
2020-03-20T06:50:00	0.3318	6.926	172.0	0.895979133	1.211978498	0.026048666	0.268739285	0.082828058
2020-03-20T06:55:00	0.3317	6.928	172.0	0.895891829	1.211827767	0.026043734	0.268688407	0.082812376
2020-03-20T07:00:00	0.3309	6.931	172.0	0.893337080	1.207420130	0.025899654	0.267201955	0.082354238
2020-03-20T07:05:00	0.3293	6.935	172.0	0.888310123	1.198764933	0.025617441	0.264290417	0.081456873
2020-03-20T07:10:00	0.3288	6.945	172.0	0.886677731	1.195959387	0.025526167	0.263348760	0.081166645
2020-03-20T07:15:00	0.3300	6.955	172.0	0.890605849	1.202714709	0.025746110	0.265617874	0.081866008
2020-03-20T07:20:00	0.3278	6.964	172.0	0.883720214	1.190882669	0.025361259	0.261647434	0.080642280
2020-03-20T07:25:00	0.3327	6.970	172.0	0.898758570	1.216780892	0.026205939	0.270361838	0.083328144
2020-03-20T07:30:00	0.3319	6.981	172.0	0.896513953	1.212902019	0.026078888	0.269051076	0.082924155
2020-03-20T07:35:00	0.3284	6.999	172.0	0.885621961	1.194146179	0.025467231	0.262740723	0.080979242
2020-03-20T07:40:00	0.3312	7.020	172.0	0.894180728	1.208874983	0.025947184	0.267692316	0.082505372
2020-03-20T07:45:00	0.3305	7.035	172.0	0.891933526	1.205001195	0.025820686	0.266387259	0.082103140
2020-03-20T07:50:00	0.3293	7.045	172.0	0.888449621	1.199004799	0.025625249	0.264370974	0.081481702
2020-03-20T07:55:00	0.3284	7.050	172.0	0.885580961	1.194075785	0.025464943	0.262717126	0.080971970
2020-03-20T08:00:00	0.3291	7.055	172.0	0.887656792	1.197641775	0.025580889	0.263913315	0.081340647
2020-03-20T08:05:00	0.3307	7.062	172.0	0.892818398	1.206526002	0.025870456	0.266900724	0.082261395
2020-03-20T08:10:00	0.3312	7.066	172.0	0.894273590	1.209035162	0.025952419	0.267746322	0.082522017
2020-03-20T08:15:00	0.3307	7.069	172.0	0.892643648	1.206224816	0.025860623	0.266799278	0.082230129
2020-03-20T08:20:00	0.3286	7.071	172.0	0.886070657	1.194916656	0.025492269	0.262999040	0.081058858
2020-03-20T08:25:00	0.3306	7.075	172.0	0.892468891	1.205923646	0.025850791	0.266697850	0.082198867
2020-03-20T08:30:00	0.3344	7.080	172.0	0.904091075	1.226014656	0.026509147	0.273489986	0.084292270
2020-03-20T08:35:00	0.3321	7.086	172.0	0.896920538	1.213604282	0.026101876	0.269288242	0.082997251
2020-03-20T08:40:00	0.3320	7.090	172.0	0.896833254	1.213453510	0.026096940	0.269237318	0.082981556
2020-03-20T08:45:00	0.3329	7.093	172.0	0.899519358	1.218096655	0.026249079	0.270806908	0.083465319
2020-03-20T08:50:00	0.3354	7.096	172.0	0.907126055	1.231281845	0.026682584	0.275279296	0.084843752
2020-03-20T08:55:00	0.3347	7.101	172.0	0.904886142	1.227393662	0.026554521	0.273958101	0.084436547
2020-03-20T09:00:00	0.3300	7.107	172.0	0.890622424	1.202743244	0.025747041	0.265627472	0.081868966
2020-03-20T09:05:00	0.3357	7.110	172.0	0.908094601	1.232964556	0.026738064	0.275851680	0.085020167
2020-03-20T09:10:00	0.3338	7.114	172.0	0.902162823	1.222672643	0.026399282	0.272356529	0.083942927
2020-03-20T09:15:00	0.3348	7.117	172.0	0.905460566	1.228390337	0.026587330	0.274296583	0.084540871
2020-03-20T09:20:00	0.3369	7.120	172.0	0.911827764	1.239458580	0.026952509	0.278064068	0.085702046
2020-03-20T09:25:00	0.3259	7.122	172.0	0.877815171	1.180770574	0.025033768	0.258268767	0.079600942
2020-03-20T09:30:00	0.3358	7.125	172.0	0.908274175	1.233276637	0.026748358	0.275957876	0.085052898
2020-03-20T09:35:00	0.3321	7.127	172.0	0.897106132	1.213924895	0.026112373	0.269396540	0.083030630
2020-03-20T09:40:00	0.3312	7.132	172.0	0.894243719	1.208983636	0.025950735	0.267728949	0.082516662
2020-03-20T09:45:00	0.3353	7.137	172.0	0.906783303	1.230686571	0.026662965	0.275076897	0.084781371
2020-03-20T09:50:00	0.3353	7.144	172.0	0.907003717	1.231069361	0.026675580	0.275207044	0.084821484
2020-03-20T09:55:00	0.3264	7.152	172.0	0.879456763	1.183578486	0.025124574	0.259205594	0.079889681
2020-03-20T10:00:00	0.3313	7.156	172.0	0.894511255	1.209445150	0.025965819	0.267884568	0.082564625
2020-03-20T10:05:00	0.3324	7.163	172.0	0.898038998	1.215536905	0.026165172	0.269941253	0.083198516
2020-03-20T10:10:00	0.3320	7.175	172.0	0.896634344	1.213109945	0.026085693	0.269121290	0.082945795
2020-03-20T10:15:00	0.3332	7.187	172.0	0.900468193	1.219738395	0.026302938	0.271362558	0.083636576
2020-03-20T10:20:00	0.3299	7.207	172.0	0.890119965	1.201878342	0.025718848	0.265336614	0.081779321
2020-03-20T10:25:00	0.3312	7.223	172.0	0.894268559	1.209026484	0.025952135	0.267743396	0.082521115
2020-03-20T10:30:00	0.3315	7.236	172.0	0.895021927	1.210326269	0.025994625	0.268181751	0.082656220
2020-03-20T10:35:00	0.3312	7.251	172.0	0.894233169	1.208965437	0.025950140	0.267722813	0.082514771
2020-03-20T10:40:00	0.3311	7.269	172.0	0.894061241	1.208668890	0.025940450	0.267622836	0.082483957
2020-03-20T10:45:00	0.3301	7.285	172.0	0.890803277	1.203054610	0.025757192	0.265732205	0.081901246
2020-03-20T10:50:00	0.3299	7.297	172.0	0.890322453	1.202226864	0.025730207	0.265453807	0.081815441
2020-03-20T10:55:00	0.3311	7.308	172.0	0.893853912	1.208311317	0.025928766	0.267502299	0.082446806
2020-03-20T11:00:00	0.3287	7.321	172.0	0.886580140	1.195791739	0.025520716	0.263292523	0.081149313
2020-03-20T11:05:00	0.3325	7.332	172.0	0.898135016	1.215702872	0.026170609	0.269997354	0.083215807
2020-03-20T11:10:00	0.3300	7.338	172.0	0.890560354	1.202636388	0.025743557	0.265591532	0.081857890
2020-03-20T11:15:00	0.3300	7.342	172.0	0.890388268	1.202340153	0.025733900	0.265491904	0.081827183
2020-03-20T11:20:00	0.3268	7.344	172.0	0.880632777	1.185591567	0.025189737	0.259877877	0.080096886
2020-03-20T11:25:00	0.3322	7.347	172.0	0.897447936	1.214515445	0.026131712	0.269596053	0.083092122
2020-03-20T11:30:00	0.3325	7.350	172.0	0.898200702	1.215816415	0.026174330	0.270035736	0.083227636
2020-03-20T11:35:00	0.3289	7.352	172.0	0.887228609	1.196905890	0.025556949	0.263666330	0.081264524
2020-03-20T11:40:00	0.3307	7.356	172.0	0.892614744	1.206175002	0.025858997	0.266782501	0.082224958
2020-03-20T11:45:00	0.3278	7.361	173.0	0.883792655	1.191006920	0.025365291	0.261689033	0.080655101
2020-03-20T11:50:00	0.3290	7.368	172.0	0.887329928	1.197080004	0.025562613	0.263724762	0.081282533
2020-03-20T11:55:00	0.3263	7.375	172.0	0.879115369	1.182994333	0.025105674	0.259010612	0.079829586
2020-03-20T12:00:00	0.3255	7.382	173.0	0.876464818	1.178462684	0.024959208	0.257499549	0.079363862
2020-03-20T12:05:00	0.3250	7.387	173.0	0.875052497	1.176050684	0.024881358	0.256696387	0.079116320
2020-03-20T12:10:00	0.3249	7.390	172.0	0.874879735	1.175755763	0.024871845	0.256598236	0.079086068
2020-03-20T12:15:00	0.3193	7.393	173.0	0.857309616	1.145905359	0.023914751	0.246724073	0.076042755
2020-03-20T12:20:00	0.3228	7.400	173.0	0.868329411	1.164594027	0.024512609	0.252892070	0.077943792
2020-03-20T12:25:00	0.3225	7.408	173.0	0.867224753	1.162715584	0.024452311	0.252269985	0.077752060
2020-03-20T12:30:00	0.3250	7.416	173.0	0.875118566	1.176163479	0.024884997	0.256733929	0.079127890
2020-03-20T12:35:00	0.3254	7.420	172.0	0.876185462	1.177985445	0.024943799	0.257340574	0.079314864
2020-03-20T12:40:00	0.3244	7.422	172.0	0.873222856	1.172928711	0.024780705	0.255657964	0.078796267
2020-03-20T12:45:00	0.3229	7.421	173.0	0.868706060	1.165234764	0.024533187	0.253104371	0.078009225
2020-03-20T12:50:00	0.3241	7.421	172.0	0.872256865	1.171281654	0.024727654	0.255110647	0.078627579
2020-03-20T12:55:00	0.3225	7.422	172.0	0.867428418	1.163061826	0.024463422	0.252384615	0.077787389
2020-03-20T13:00:00	0.3247	7.424	172.0	0.874081898	1.174394136	0.024827935	0.256145228	0.078946447
2020-03-20T13:05:00	0.3226	7.426	172.0	0.867703331	1.163529255	0.024478424	0.252539391	0.077835093
2020-03-20T13:10:00	0.3257	7.429	172.0	0.877145439	1.179625722	0.024996773	0.257887100	0.079483309
2020-03-20T13:15:00	0.3260	7.431	172.0	0.878211786	1.181448748	0.025055690	0.258494936	0.079670650
2020-03-20T13:20:00	0.3239	7.432	172.0	0.871529687	1.170042351	0.024687760	0.254699065	0.078500725
2020-03-20T13:25:00	0.3220	7.432	172.0	0.865768399	1.160240808	0.024372941	0.251451136	0.077499682
2020-03-20T13:30:00	0.3254	7.432	172.0	0.876454711	1.178445416	0.024958650	0.257493796	0.079362089
2020-03-20T13:35:00	0.3253	7.430	173.0	0.875972141	1.177621067	0.024932036	0.257219215	0.079277460
2020-03-20T13:40:00	0.3249	7.427	173.0	0.874869624	1.175738503	0.024871288	0.256592492	0.079084298
2020-03-20T13:45:00	0.3226	7.423	173.0	0.867560812	1.163286924	0.024470646	0.252459146	0.077810361
2020-03-20T13:50:00	0.3212	7.421	173.0	0.863348394	1.156132816	0.024241366	0.250093707	0.077081309
2020-03-20T13:55:00	0.3255	7.419	173.0	0.876520757	1.178558256	0.024962294	0.257531389	0.079373675
2020-03-20T14:00:00	0.3243	7.415	173.0	0.872938212	1.172443291	0.024765066	0.255496621	0.078746540
2020-03-20T14:05:00	0.3187	7.412	173.0	0.855359388	1.142609539	0.023809790	0.245641218	0.075709009
2020-03-20T14:10:00	0.3226	7.408	173.0	0.867627007	1.163399477	0.024474259	0.252496416	0.077821848
2020-03-20T14:15:00	0.3214	7.405	173.0	0.864036355	1.157300092	0.024278730	0.250479186	0.077200118
2020-03-20T14:20:00	0.3226	7.402	173.0	0.867591377	1.163338894	0.024472314	0.252476355	0.077815665
2020-03-20T14:25:00	0.3252	7.398	173.0	0.875794365	1.177317436	0.024922235	0.257118101	0.079246296
2020-03-20T14:30:00	0.3212	7.395	173.0	0.863205717	1.155890787	0.024233621	0.250013803	0.077056682
2020-03-20T14:35:00	0.3240	7.391	173.0	0.872038272	1.170909064	0.024715658	0.254986885	0.078589434
2020-03-20T14:40:00	0.3235	7.388	173.0	0.870314049	1.167971673	0.024621147	0.254011835	0.078288914
2020-03-20T14:45:00	0.3230	7.384	173.0	0.868899522	1.165563924	0.024543761	0.253213456	0.078042846
2020-03-20T14:50:00	0.3216	7.382	173.0	0.864377756	1.157879514	0.024297284	0.250670602	0.077259114
2020-03-20T14:55:00	0.3215	7.378	173.0	0.864204525	1.157585494	0.024287869	0.250573465	0.077229175
2020-03-20T15:00:00	0.3204	7.374	173.0	0.860921823	1.152019078	0.024109829	0.248736658	0.076663054
2020-03-20T15:05:00	0.3198	7.369	173.0	0.858881494	1.148564317	0.023999533	0.247598758	0.076312342
2020-03-20T15:10:00	0.3241	7.367	173.0	0.872378980	1.171489817	0.024734357	0.255179799	0.078648892
2020-03-20T15:15:00	0.3232	7.362	173.0	0.869413510	1.166438600	0.024571865	0.253503398	0.078132209
2020-03-20T15:20:00	0.3227	7.357	173.0	0.867998658	1.164031472	0.024494546	0.252705719	0.077886357
2020-03-20T15:25:00	0.3220	7.354	173.0	0.865651323	1.160041946	0.024366566	0.251385372	0.077479413
2020-03-20T15:30:00	0.3214	7.348	173.0	0.863924297	1.157109931	0.024272642	0.250416375	0.077180759
2020-03-20T15:35:00	0.3197	7.343	173.0	0.858463112	1.147856369	0.023976951	0.247365780	0.076240536
2020-03-20T15:40:00	0.3197	7.339	173.0	0.858600886	1.148089479	0.023984386	0.247442486	0.076264177
2020-03-20T15:45:00	0.3207	7.334	172.0	0.861849848	1.153591710	0.024160088	0.249255172	0.076822865
2020-03-20T15:50:00	0.3152	7.329	173.0	0.844533474	1.124377414	0.023231754	0.239677723	0.073871002
2020-03-20T15:55:00	0.3191	7.324	172.0	0.856835024	1.145102992	0.023889185	0.246460316	0.075961463
2020-03-20T16:00:00	0.3217	7.317	172.0	0.864749715	1.158510921	0.024317508	0.250879242	0.077323419
2020-03-20T16:05:00	0.3187	7.310	173.0	0.855374312	1.142634748	0.023810593	0.245649495	0.075711560
2020-03-20T16:10:00	0.3208	7.303	172.0	0.862180309	1.154151900	0.024177998	0.249439953	0.076879816
2020-03-20T16:15:00	0.3230	7.292	172.0	0.868974520	1.165691536	0.024547860	0.253255751	0.078055882
2020-03-20T16:20:00	0.3225	7.282	172.0	0.867380861	1.162980975	0.024460827	0.252357846	0.077779139
2020-03-20T16:25:00	0.3217	7.272	172.0	0.864854393	1.158688638	0.024323201	0.250937976	0.077341521
2020-03-20T16:30:00	0.3235	7.262	172.0	0.870402904	1.168122979	0.024626013	0.254062032	0.078304386
2020-03-20T16:35:00	0.3229	7.253	172.0	0.868499367	1.164883131	0.024521893	0.252987855	0.077973314
2020-03-20T16:40:00	0.3225	7.245	172.0	0.867216099	1.162700873	0.024451839	0.252265116	0.077750559
2020-03-20T16:45:00	0.3241	7.235	172.0	0.872140966	1.171084098	0.024721293	0.255045023	0.078607353
2020-03-20T16:50:00	0.3254	7.224	172.0	0.876440042	1.178420354	0.024957841	0.257485447	0.079359515
2020-03-20T16:55:00	0.3199	7.209	172.0	0.859320310	1.149307014	0.024023231	0.247843245	0.076387695
2020-03-20T17:00:00	0.3240	7.196	172.0	0.872017544	1.170873734	0.024714520	0.254975151	0.078585818
2020-03-20T17:05:00	0.3226	7.180	172.0	0.867631263	1.163406713	0.024474491	0.252498812	0.077822586
2020-03-20T17:10:00	0.3202	7.167	172.0	0.860129993	1.150677869	0.024066991	0.248294710	0.076526841
2020-03-20T17:15:00	0.3233	7.153	172.0	0.869722103	1.166963862	0.024588746	0.253677563	0.078185889
2020-03-20T17:20:00	0.3270	7.139	172.0	0.881148183	1.186474233	0.025218326	0.260172819	0.080187790
2020-03-20T17:25:00	0.3275	7.125	172.0	0.882654230	1.189054841	0.025301966	0.261035717	0.080453743
2020-03-20T17:30:00	0.3278	7.111	172.0	0.883850452	1.191106058	0.025368508	0.261722225	0.080665332
2020-03-20T17:35:00	0.3294	7.097	172.0	0.888754632	1.199529325	0.025642327	0.264547158	0.081536003
2020-03-20T17:40:00	0.3302	7.082	172.0	0.891183978	1.203710145	0.025778569	0.265952747	0.081969219
2020-03-20T17:45:00	0.3291	7.066	172.0	0.887745922	1.197794978	0.025585874	0.263964743	0.081356498
2020-03-20T17:50:00	0.3267	7.052	172.0	0.880282860	1.184992451	0.025170338	0.259677742	0.080035202
2020-03-20T17:55:00	0.3297	7.039	173.0	0.889517335	1.200841323	0.025685058	0.264988004	0.081671876
2020-03-20T18:00:00	0.3288	7.027	172.0	0.886695967	1.195990716	0.025527186	0.263359270	0.081169885
2020-03-20T18:05:00	0.3277	7.011	172.0	0.883563314	1.190613569	0.025352527	0.261557347	0.080614515
2020-03-20T18:10:00	0.3297	6.995	172.0	0.889703275	1.201161257	0.025695481	0.265095540	0.081705020
2020-03-20T18:15:00	0.3289	6.979	171.0	0.887191056	1.196841358	0.025554850	0.263644675	0.081257849
2020-03-20T18:20:00	0.3260	6.966	172.0	0.878178707	1.181392180	0.025053861	0.258476068	0.079664835
2020-03-20T18:25:00	0.3315	6.947	172.0	0.895135238	1.210521810	0.026001019	0.268247716	0.082676551
2020-03-20T18:30:00	0.3293	6.929	171.0	0.888303965	1.198754345	0.025617096	0.264286861	0.081455777
2020-03-20T18:35:00	0.3282	6.913	171.0	0.884863410	1.192844059	0.025424932	0.262304339	0.080844745
2020-03-20T18:40:00	0.3302	6.896	171.0	0.891001360	1.203395674	0.025768314	0.265846942	0.081936609
2020-03-20T18:45:00	0.3256	6.877	171.0	0.877044034	1.179452415	0.024991174	0.257829339	0.079465506
2020-03-20T18:50:00	0.3293	6.857	171.0	0.888448991	1.199003716	0.025625214	0.264370610	0.081481590
2020-03-20T18:55:00	0.3299	6.843	171.0	0.890261043	1.202121162	0.025726762	0.265418262	0.081804486
2020-03-20T19:00:00	0.3289	6.828	171.0	0.887131207	1.196738517	0.025551505	0.263610165	0.081247213
2020-03-20T19:05:00	0.3296	6.812	171.0	0.889252716	1.200386066	0.025670228	0.264835007	0.081624721
2020-03-20T19:10:00	0.3270	6.792	171.0	0.881173596	1.186517760	0.025219736	0.260187367	0.080192273
2020-03-20T19:15:00	0.3295	6.777	171.0	0.888861929	1.199713865	0.025648336	0.264609152	0.081555110
2020-03-20T19:20:00	0.3277	6.761	171.0	0.883566572	1.190619157	0.025352708	0.261559217	0.080615091
2020-03-20T19:25:00	0.3221	6.747	171.0	0.866167214	1.160918318	0.024394662	0.251675228	0.077568749
2020-03-20T19:30:00	0.3273	6.733	171.0	0.882247163	1.188357125	0.025279344	0.260802330	0.080381811
2020-03-20T19:35:00	0.3231	6.719	171.0	0.869190189	1.166058534	0.024559652	0.253377399	0.078093375
2020-03-20T19:40:00	0.3294	6.705	171.0	0.888657092	1.199361578	0.025636865	0.264490809	0.081518636
2020-03-20T19:45:00	0.3289	6.691	170.0	0.887071358	1.196635677	0.025548160	0.263575657	0.081236577
2020-03-20T19:50:00	0.3285	6.677	171.0	0.885794114	1.194441769	0.025476836	0.262839816	0.081009784
2020-03-20T19:55:00	0.3250	6.661	170.0	0.874919231	1.175823184	0.024874019	0.256620673	0.079092984
2020-03-20T20:00:00	0.3290	6.645	170.0	0.887566399	1.197486411	0.025575834	0.263861164	0.081324573
2020-03-20T20:05:00	0.3269	6.628	169.0	0.881031563	1.186274491	0.025211856	0.260106067	0.080167216
2020-03-20T20:10:00	0.3277	6.613	170.0	0.883465647	1.190446071	0.025347092	0.261501278	0.080597234
2020-03-20T20:15:00	0.3251	6.597	170.0	0.875374690	1.176600772	0.024899106	0.256879491	0.079172754
2020-03-20T20:20:00	0.3268	6.582	170.0	0.880598912	1.185533579	0.025187860	0.259858504	0.080090915
2020-03-20T20:25:00	0.3247	6.569	170.0	0.874052541	1.174344046	0.024826320	0.256128568	0.078941312
2020-03-20T20:30:00	0.3246	6.554	170.0	0.873701373	1.173744921	0.024807008	0.255929324	0.078879903
2020-03-20T20:35:00	0.3253	6.541	170.0	0.876139977	1.177907748	0.024941290	0.257314695	0.079306888
2020-03-20T20:40:00	0.3274	6.527	170.0	0.882600831	1.188963305	0.025298998	0.261005095	0.080444305
2020-03-20T20:45:00	0.3222	6.513	170.0	0.866439928	1.161381693	0.024409521	0.251828528	0.077615998
2020-03-20T20:50:00	0.3252	6.501	170.0	0.875706790	1.177167874	0.024917407	0.257068300	0.079230947
2020-03-20T20:55:00	0.3231	6.488	170.0	0.869152288	1.165994036	0.024557579	0.253356019	0.078086786
2020-03-20T21:00:00	0.3246	6.475	170.0	0.873764691	1.173852939	0.024810489	0.255965243	0.078890974
2020-03-20T21:05:00	0.3246	6.463	170.0	0.873723568	1.173782784	0.024808228	0.255941915	0.078883784
2020-03-20T21:10:00	0.3245	6.450	170.0	0.873372370	1.173183716	0.024788922	0.255742734	0.078822394
2020-03-20T21:15:00	0.3291	6.436	170.0	0.887878617	1.198023075	0.025593296	0.264041319	0.081380099
2020-03-20T21:20:00	0.3297	6.424	170.0	0.889690929	1.201140012	0.025694789	0.265088398	0.081702819
2020-03-20T21:25:00	0.3267	6.412	165.0	0.880374751	1.185149772	0.025175432	0.259730291	0.080051398
2020-03-20T21:30:00	0.3281	6.401	170.0	0.884664880	1.192503354	0.025413868	0.262190195	0.080809564
2020-03-20T21:35:00	0.3277	6.390	170.0	0.883386860	1.190310959	0.025342709	0.261456053	0.080583295
2020-03-20T21:40:00	0.3256	6.376	171.0	0.876845111	1.179112473	0.024980193	0.257716051	0.079430590
2020-03-20T21:45:00	0.3258	6.364	170.0	0.877423604	1.180101173	0.025012135	0.258045583	0.079532155
2020-03-20T21:50:00	0.3299	6.352	170.0	0.890371552	1.202311379	0.025732962	0.265482228	0.081824201
2020-03-20T21:55:00	0.3282	6.337	170.0	0.885078213	1.193212733	0.025436906	0.262427872	0.080882819
2020-03-20T22:00:00	0.3284	6.322	169.0	0.885655503	1.194203769	0.025469102	0.262760028	0.080985193
2020-03-20T22:05:00	0.3297	6.305	170.0	0.889631118	1.201037097	0.025691436	0.265053806	0.081692157
2020-03-20T22:10:00	0.3299	6.291	170.0	0.890207746	1.202029426	0.025723772	0.265387415	0.081794979
2020-03-20T22:15:00	0.3280	6.275	169.0	0.884295776	1.191870014	0.025393305	0.261978051	0.080744179
2020-03-20T22:20:00	0.3306	6.261	169.0	0.892286681	1.205609662	0.025840543	0.266592118	0.082166280
2020-03-20T22:25:00	0.3301	6.246	169.0	0.890702396	1.202880924	0.025751529	0.265673781	0.081883240
2020-03-20T22:30:00	0.3283	6.231	169.0	0.885409499	1.193781415	0.025455379	0.262618456	0.080941559
2020-03-20T22:35:00	0.3280	6.221	169.0	0.884440949	1.192119100	0.025401392	0.262061478	0.080769893
2020-03-20T22:40:00	0.3304	6.212	169.0	0.891814321	1.204795837	0.025813985	0.266318129	0.082081834
2020-03-20T22:45:00	0.3271	6.201	169.0	0.881574921	1.187205234	0.025242010	0.260417161	0.080263098
2020-03-20T22:50:00	0.3287	6.190	169.0	0.886481917	1.195623014	0.025515230	0.263235929	0.081131870
2020-03-20T22:55:00	0.3269	6.177	169.0	0.880873890	1.186004458	0.025203109	0.260015832	0.080139405
2020-03-20T23:00:00	0.3274	6.168	169.0	0.882380042	1.188584863	0.025286727	0.260878502	0.080405288
2020-03-20T23:05:00	0.3304	6.158	169.0	0.891918285	1.204974937	0.025819829	0.266378419	0.082100416
2020-03-20T23:10:00	0.3271	6.147	169.0	0.881679154	1.187383810	0.025247796	0.260476861	0.080281498
2020-03-20T23:15:00	0.3306	6.137	169.0	0.892453652	1.205897385	0.025849934	0.266689006	0.082196142
2020-03-20T23:20:00	0.3288	6.123	169.0	0.886854073	1.196262343	0.025536018	0.263450395	0.081197970
2020-03-20T23:25:00	0.3255	6.109	168.0	0.876601822	1.178696760	0.024966767	0.257577534	0.079387898
2020-03-20T23:30:00	0.3282	6.096	168.0	0.884917444	1.192936797	0.025427944	0.262335411	0.080854322
2020-03-20T23:35:00	0.3280	6.085	168.0	0.884258020	1.191805236	0.025391202	0.261956355	0.080737493
2020-03-20T23:40:00	0.3291	6.072	168.0	0.887617143	1.197573626	0.025578672	0.263890439	0.081333596
2020-03-20T23:45:00	0.3264	6.058	168.0	0.879534682	1.183711826	0.025128888	0.259250107	0.079903401
2020-03-20T23:50:00	0.3248	6.047	168.0	0.874536821	1.175170458	0.024852967	0.256403477	0.079026042
2020-03-20T23:55:00	0.3253	6.038	168.0	0.876045390	1.177746181	0.024936074	0.257260883	0.079290303
2020-03-21T00:00:00	0.3245	6.024	168.0	0.873524478	1.173443165	0.024797282	0.255828991	0.078848980
2020-03-21T00:05:00	0.3256	6.012	168.0	0.876892729	1.179193844	0.024982822	0.257743167	0.079438947
2020-03-21T00:10:00	0.3242	6.003	168.0	0.872511875	1.171716373	0.024741653	0.255255069	0.078672091
2020-03-21T00:15:00	0.3266	5.991	168.0	0.879907491	1.184349883	0.025149538	0.259463145	0.079969061
2020-03-21T00:20:00	0.3217	5.981	168.0	0.864978709	1.158899706	0.024329962	0.251007738	0.077363023
2020-03-21T00:25:00	0.3218	5.971	167.0	0.865248233	1.159357364	0.024344626	0.251159023	0.077409650
2020-03-21T00:30:00	0.3223	5.962	168.0	0.866760364	1.161926238	0.024426987	0.252008719	0.077671535
2020-03-21T00:35:00	0.3225	5.955	167.0	0.867340340	1.162912084	0.024458617	0.252335038	0.077772109
2020-03-21T00:40:00	0.3270	5.942	167.0	0.881249834	1.186648344	0.025223966	0.260231011	0.080205725
2020-03-21T00:45:00	0.3222	5.930	167.0	0.866326144	1.161188352	0.024403321	0.251764560	0.077596283
2020-03-21T00:50:00	0.3249	5.920	167.0	0.874663429	1.175386547	0.024859936	0.256475375	0.079048201
2020-03-21T00:55:00	0.3232	5.910	167.0	0.869348997	1.166328802	0.024568336	0.253466996	0.078120990
2020-03-21T01:00:00	0.3251	5.899	167.0	0.875511064	1.176833636	0.024906621	0.256957014	0.079196647
2020-03-21T01:05:00	0.3249	5.891	167.0	0.874850068	1.175705122	0.024870211	0.256581383	0.079080874
2020-03-21T01:10:00	0.3210	5.881	167.0	0.862701410	1.155035463	0.024206257	0.249731487	0.076969670
2020-03-21T01:15:00	0.3231	5.869	167.0	0.869184317	1.166048542	0.024559331	0.253374087	0.078092354
2020-03-21T01:20:00	0.3204	5.858	167.0	0.860752878	1.151732870	0.024100685	0.248642328	0.076633980
2020-03-21T01:25:00	0.3227	5.850	167.0	0.867860089	1.163795819	0.024486981	0.252627670	0.077862301
2020-03-21T01:30:00	0.3228	5.843	167.0	0.868129416	1.164253856	0.024501686	0.252779380	0.077909060
2020-03-21T01:35:00	0.3200	5.833	166.0	0.859384530	1.149415721	0.024026700	0.247879036	0.076398726
2020-03-21T01:40:00	0.3221	5.822	166.0	0.866183575	1.160946116	0.024395553	0.251684423	0.077571584
2020-03-21T01:45:00	0.3220	5.810	166.0	0.865831704	1.160348342	0.024376388	0.251486699	0.077510643
2020-03-21T01:50:00	0.3203	5.800	166.0	0.860505315	1.151313521	0.024087291	0.248504136	0.076591388
2020-03-21T01:55:00	0.3208	5.791	165.0	0.862019274	1.153878904	0.024169270	0.249349899	0.076852060
2020-03-21T02:00:00	0.3195	5.783	167.0	0.857933126	1.146959805	0.023948361	0.247070827	0.076149628
2020-03-21T02:05:00	0.3221	5.776	166.0	0.865977559	1.160596112	0.024384331	0.251568648	0.077535900
2020-03-21T02:10:00	0.3235	5.768	161.0	0.870283365	1.167919423	0.024619467	0.253994501	0.078283572
2020-03-21T02:15:00	0.3216	5.764	166.0	0.864652249	1.158345460	0.024312207	0.250824562	0.077306566
2020-03-21T02:20:00	0.3204	5.758	166.0	0.860879931	1.151948107	0.024107561	0.248713266	0.076655844
2020-03-21T02:25:00	0.3201	5.751	166.0	0.859905333	1.150297442	0.024054845	0.248169398	0.076488219
2020-03-21T02:30:00	0.3199	5.746	161.0	0.859241708	1.149173967	0.024018985	0.247799442	0.076374195
2020-03-21T02:35:00	0.3203	5.741	167.0	0.860445060	1.151211464	0.024084031	0.248470508	0.076581024
2020-03-21T02:40:00	0.3208	5.735	167.0	0.861959042	1.153776802	0.024166005	0.249316221	0.076841681
2020-03-21T02:45:00	0.3200	5.729	166.0	0.859429081	1.149491137	0.024029107	0.247903868	0.076406380
2020-03-21T02:50:00	0.3194	5.723	166.0	0.857520214	1.146261471	0.023926100	0.246841163	0.076078844
2020-03-21T02:55:00	0.3207	5.716	167.0	0.861835300	1.153567051	0.024159299	0.249247039	0.076820358
2020-03-21T03:00:00	0.3231	5.711	166.0	0.869250978	1.166161985	0.024562976	0.253411693	0.078103945
2020-03-21T03:05:00	0.3202	5.706	166.0	0.860197477	1.150792151	0.024070640	0.248332358	0.076538445
2020-03-21T03:10:00	0.3228	5.701	166.0	0.868237275	1.164437308	0.024507577	0.252840151	0.077927790
2020-03-21T03:15:00	0.3200	5.695	166.0	0.859492629	1.149598713	0.024032540	0.247939289	0.076417297
2020-03-21T03:20:00	0.3221	5.690	161.0	0.865980831	1.160601671	0.024384509	0.251570486	0.077536467
2020-03-21T03:25:00	0.3225	5.684	161.0	0.867182119	1.162643108	0.024449986	0.252245993	0.077744665
2020-03-21T03:30:00	0.3220	5.678	166.0	0.865898421	1.160461675	0.024380021	0.251524183	0.077522196
2020-03-21T03:35:00	0.3184	5.674	166.0	0.854656809	1.141423059	0.023772040	0.245251756	0.075588973
2020-03-21T03:40:00	0.3210	5.666	166.0	0.862707961	1.155046572	0.024206612	0.249735153	0.076970799
2020-03-21T03:45:00	0.3192	5.662	161.0	0.857065961	1.145493400	0.023901623	0.246588642	0.076001014
2020-03-21T03:50:00	0.3212	5.656	165.0	0.863247302	1.155961328	0.024235879	0.250037091	0.077063860
2020-03-21T03:55:00	0.3207	5.645	165.0	0.861651318	1.153255215	0.024149331	0.249144198	0.076788661
2020-03-21T04:00:00	0.3195	5.637	166.0	0.857876111	1.146863369	0.023945287	0.247039108	0.076139852
2020-03-21T04:05:00	0.3211	5.630	166.0	0.862862277	1.155308274	0.024214984	0.249821523	0.076997420
2020-03-21T04:10:00	0.3224	5.621	165.0	0.866910441	1.162181310	0.024435169	0.252093136	0.077697553
2020-03-21T04:15:00	0.3190	5.615	166.0	0.856344324	1.144273612	0.023862767	0.246187771	0.075877462
2020-03-21T04:20:00	0.3189	5.610	166.0	0.856041239	1.143761447	0.023846458	0.246019514	0.075825604
2020-03-21T04:25:00	0.3235	5.603	165.0	0.870350498	1.168033739	0.024623143	0.254032425	0.078295261
2020-03-21T04:30:00	0.3203	5.594	165.0	0.860415919	1.151162107	0.024082455	0.248454245	0.076576011
2020-03-21T04:35:00	0.3214	5.588	165.0	0.863844978	1.156975334	0.024268333	0.250371921	0.077167057
2020-03-21T04:40:00	0.3244	5.582	165.0	0.873167397	1.172834127	0.024777657	0.255626524	0.078786577
2020-03-21T04:45:00	0.3234	5.576	165.0	0.870073485	1.167562064	0.024607977	0.253875959	0.078247036
2020-03-21T04:50:00	0.3212	5.570	166.0	0.863248288	1.155963000	0.024235932	0.250037643	0.077064030
2020-03-21T04:55:00	0.3231	5.564	166.0	0.869159003	1.166005464	0.024557947	0.253359807	0.078087953
2020-03-21T05:00:00	0.3208	5.560	165.0	0.862021246	1.153882248	0.024169376	0.249351002	0.076852400
2020-03-21T05:05:00	0.3220	5.556	166.0	0.865759602	1.160225865	0.024372462	0.251446194	0.077498159
2020-03-21T05:10:00	0.3217	5.549	165.0	0.864835774	1.158657026	0.024322188	0.250927528	0.077338301
2020-03-21T05:15:00	0.3229	5.542	166.0	0.868571454	1.165005763	0.024525832	0.253028488	0.077985837
2020-03-21T05:20:00	0.3230	5.537	165.0	0.868890239	1.165548129	0.024543253	0.253208221	0.078041233
2020-03-21T05:25:00	0.3227	5.532	166.0	0.867967147	1.163977881	0.024492826	0.252687969	0.077880886
2020-03-21T05:30:00	0.3228	5.525	165.0	0.868285981	1.164520153	0.024510237	0.252867596	0.077936249
2020-03-21T05:35:00	0.3249	5.514	165.0	0.874809132	1.175635245	0.024867957	0.256558130	0.079073707
2020-03-21T05:40:00	0.3203	5.509	165.0	0.860532834	1.151360134	0.024088779	0.248519496	0.076596122
2020-03-21T05:45:00	0.3240	5.502	161.0	0.872035040	1.170903555	0.024715480	0.254985055	0.078588870
2020-03-21T05:50:00	0.3258	5.493	161.0	0.877622848	1.180441771	0.025023141	0.258159134	0.079567152
2020-03-21T05:55:00	0.3238	5.489	165.0	0.871431265	1.169874651	0.024682363	0.254643386	0.078483565
2020-03-21T06:00:00	0.3238	5.483	166.0	0.871439592	1.169888840	0.024682819	0.254648097	0.078485017
2020-03-21T06:05:00	0.3273	5.480	160.0	0.882291316	1.188432796	0.025281797	0.260827639	0.080389611
2020-03-21T06:10:00	0.3247	5.476	165.0	0.874247391	1.174676526	0.024837040	0.256239158	0.078975397
2020-03-21T06:15:00	0.3239	5.466	166.0	0.871774800	1.170460034	0.024701203	0.254837758	0.078543472
2020-03-21T06:20:00	0.3241	5.461	160.0	0.872403500	1.171531618	0.024735703	0.255193687	0.078653173
2020-03-21T06:25:00	0.3252	5.457	161.0	0.875822128	1.177364853	0.024923765	0.257133891	0.079251162
2020-03-21T06:30:00	0.3207	5.450	166.0	0.861860521	1.153609801	0.024160666	0.249261138	0.076824704
2020-03-21T06:35:00	0.3231	5.444	166.0	0.869325653	1.166289072	0.024567060	0.253453824	0.078116930
2020-03-21T06:40:00	0.3234	5.439	161.0	0.869954744	1.167359904	0.024601477	0.253808907	0.078226370
2020-03-21T06:45:00	0.3200	5.433	166.0	0.859396831	1.149436544	0.024027365	0.247885892	0.076400839
2020-03-21T06:50:00	0.3194	5.431	165.0	0.857537599	1.146290870	0.023927037	0.246850830	0.076081823
2020-03-21T06:55:00	0.3244	5.428	167.0	0.873082047	1.172688571	0.024772968	0.255578143	0.078771666
2020-03-21T07:00:00	0.3223	5.423	161.0	0.866572708	1.161607325	0.024416757	0.251903185	0.077639008
2020-03-21T07:05:00	0.3238	5.420	167.0	0.871237611	1.169544714	0.024671746	0.254533854	0.078449806
2020-03-21T07:10:00	0.3239	5.411	167.0	0.871556180	1.170087494	0.024689212	0.254714054	0.078505345
2020-03-21T07:15:00	0.3237	5.403	161.0	0.870944002	1.169044545	0.024655654	0.254367835	0.078398637
2020-03-21T07:20:00	0.3212	5.394	161.0	0.863187759	1.155860325	0.024232646	0.250003747	0.077053583
2020-03-21T07:25:00	0.3243	5.388	165.0	0.872821876	1.172244917	0.024758676	0.255430695	0.078726221
2020-03-21T07:30:00	0.3225	5.382	166.0	0.867243924	1.162748174	0.024453357	0.252280774	0.077755385
2020-03-21T07:35:00	0.3212	5.382	165.0	0.863212795	1.155902793	0.024234005	0.250017766	0.077057904
2020-03-21T07:40:00	0.3240	5.376	166.0	0.871916358	1.170701280	0.024708969	0.254917875	0.078568165
2020-03-21T07:45:00	0.3261	5.371	165.0	0.878433510	1.181827938	0.025067950	0.258621421	0.079709634
2020-03-21T07:50:00	0.3247	5.365	165.0	0.874103809	1.174431523	0.024829140	0.256157664	0.078950280
2020-03-21T07:55:00	0.3240	5.361	165.0	0.871941339	1.170743854	0.024710339	0.254932014	0.078572523
2020-03-21T08:00:00	0.3242	5.360	165.0	0.872570013	1.171815490	0.024744845	0.255288001	0.078682241
2020-03-21T08:05:00	0.3242	5.356	165.0	0.872578338	1.171829684	0.024745302	0.255292717	0.078683695
2020-03-21T08:10:00	0.3239	5.353	166.0	0.871656110	1.170257775	0.024694693	0.254770594	0.078522771
2020-03-21T08:15:00	0.3241	5.353	166.0	0.872284830	1.171329323	0.024729189	0.255126482	0.078632460
2020-03-21T08:20:00	0.3228	5.352	165.0	0.868258867	1.164474035	0.024508756	0.252852318	0.077931540
2020-03-21T08:25:00	0.3224	5.349	165.0	0.867025052	1.162376118	0.024441419	0.252157615	0.077717426
2020-03-21T08:30:00	0.3227	5.344	160.0	0.867965036	1.163974293	0.024492711	0.252686780	0.077880520
2020-03-21T08:35:00	0.3239	5.336	165.0	0.871697747	1.170328726	0.024696977	0.254794154	0.078530033
2020-03-21T08:40:00	0.3258	5.332	165.0	0.877595799	1.180395529	0.025021647	0.258143717	0.079562401
2020-03-21T08:45:00	0.3268	5.333	165.0	0.880700436	1.185707423	0.025193489	0.259916585	0.080108816
2020-03-21T08:50:00	0.3206	5.336	164.0	0.861472260	1.152951754	0.024139632	0.249044131	0.076757820
2020-03-21T08:55:00	0.3224	5.340	164.0	0.867075075	1.162461147	0.024444147	0.252185760	0.077726100
2020-03-21T09:00:00	0.3258	5.339	160.0	0.877629058	1.180452387	0.025023484	0.258162673	0.079568243
2020-03-21T09:05:00	0.3230	5.332	165.0	0.868954795	1.165657972	0.024546782	0.253244627	0.078052453
2020-03-21T09:10:00	0.3238	5.328	165.0	0.871445812	1.169899437	0.024683160	0.254651615	0.078486101
2020-03-21T09:15:00	0.3259	5.329	165.0	0.877963740	1.181024595	0.025041978	0.258353475	0.079627050
2020-03-21T09:20:00	0.3212	5.329	165.0	0.863388041	1.156200074	0.024243519	0.250115913	0.077088154
2020-03-21T09:25:00	0.3253	5.328	164.0	0.876121586	1.177876334	0.024940276	0.257304231	0.079303663
2020-03-21T09:30:00	0.3258	5.328	164.0	0.877678947	1.180537675	0.025026240	0.258191110	0.079577008
2020-03-21T09:35:00	0.3264	5.326	165.0	0.879545307	1.183730009	0.025129477	0.259256177	0.079905272
2020-03-21T09:40:00	0.3232	5.327	165.0	0.869633936	1.166813782	0.024583922	0.253627796	0.078170550
2020-03-21T09:45:00	0.3246	5.335	160.0	0.873675140	1.173700169	0.024805565	0.255914444	0.078875317
2020-03-21T09:50:00	0.3266	5.345	165.0	0.879879826	1.184302531	0.025148005	0.259447332	0.079964188
2020-03-21T09:55:00	0.3212	5.358	165.0	0.863135574	1.155771807	0.024229814	0.249974525	0.077044576
2020-03-21T10:00:00	0.3261	5.360	165.0	0.878348273	1.181682162	0.025063237	0.258572793	0.079694646
2020-03-21T10:05:00	0.3268	5.362	165.0	0.880784009	1.185850536	0.025198124	0.259964401	0.080123553
2020-03-21T10:10:00	0.3263	5.369	165.0	0.879195118	1.183130780	0.025110088	0.259056152	0.079843622
2020-03-21T10:15:00	0.3266	5.404	165.0	0.880082838	1.184650032	0.025159253	0.259563378	0.079999954
2020-03-21T10:20:00	0.3263	5.436	161.0	0.879112984	1.182990252	0.025105542	0.259009250	0.079829166
2020-03-21T10:25:00	0.3242	5.454	165.0	0.872564146	1.171805488	0.024744523	0.255284678	0.078681217
2020-03-21T10:30:00	0.3268	5.461	166.0	0.880578754	1.185499063	0.025186742	0.259846973	0.080087361
2020-03-21T10:35:00	0.3286	5.493	166.0	0.886105210	1.194975997	0.025494198	0.263018939	0.081064991
2020-03-21T10:40:00	0.3239	5.503	166.0	0.871510150	1.170009062	0.024686688	0.254688012	0.078497319
2020-03-21T10:45:00	0.3300	5.506	160.0	0.890656938	1.202802662	0.025748978	0.265647457	0.081875126
2020-03-21T10:50:00	0.3267	5.499	166.0	0.880414543	1.185217900	0.025177638	0.259753048	0.080058412
2020-03-21T10:55:00	0.3284	5.497	166.0	0.885632114	1.194163612	0.025467797	0.262746567	0.080981044
2020-03-21T11:00:00	0.3247	5.495	166.0	0.874136782	1.174487785	0.024830954	0.256176377	0.078956047
2020-03-21T11:05:00	0.3266	5.492	166.0	0.879981825	1.184477119	0.025153656	0.259505633	0.079982156
2020-03-21T11:10:00	0.3295	5.490	165.0	0.888908143	1.199793350	0.025650924	0.264635855	0.081563341
2020-03-21T11:15:00	0.3259	5.487	166.0	0.877732097	1.180628542	0.025029177	0.258221407	0.079586346
2020-03-21T11:20:00	0.3266	5.486	161.0	0.880168213	1.184796180	0.025163984	0.259612188	0.080014998
2020-03-21T11:25:00	0.3301	5.491	166.0	0.890946813	1.203301752	0.025765251	0.265815344	0.081926871
2020-03-21T11:30:00	0.3272	5.503	166.0	0.881943018	1.187835918	0.025262449	0.260628027	0.080328089
2020-03-21T11:35:00	0.3242	5.520	166.0	0.872608548	1.171881190	0.024746961	0.255309831	0.078688969
2020-03-21T11:40:00	0.3269	5.516	167.0	0.880932571	1.186104953	0.025206364	0.260049412	0.080149754
2020-03-21T11:45:00	0.3241	5.508	167.0	0.872216113	1.171212188	0.024725417	0.255087571	0.078620467
2020-03-21T11:50:00	0.3285	5.507	165.0	0.885799366	1.194450787	0.025477129	0.262842839	0.081010716
2020-03-21T11:55:00	0.3243	5.515	167.0	0.872754152	1.172129442	0.024754956	0.255392322	0.078714394
2020-03-21T12:00:00	0.3259	5.520	167.0	0.877981842	1.181055546	0.025042979	0.258363797	0.079630231
2020-03-21T12:05:00	0.3287	5.529	166.0	0.886603628	1.195832087	0.025522028	0.263306058	0.081153484
2020-03-21T12:10:00	0.3261	5.529	166.0	0.878519095	1.181974317	0.025072683	0.258670254	0.079724684
2020-03-21T12:15:00	0.3263	5.532	167.0	0.879097343	1.182963491	0.025104676	0.259000319	0.079826414
2020-03-21T12:20:00	0.3267	5.536	166.0	0.880294640	1.185012619	0.025170991	0.259684478	0.080037278
2020-03-21T12:25:00	0.3271	5.540	161.0	0.881491575	1.187062449	0.025237383	0.260369428	0.080248386
2020-03-21T12:30:00	0.3275	5.544	166.0	0.882688148	1.189112982	0.025303851	0.261055169	0.080459738
2020-03-21T12:35:00	0.3276	5.559	166.0	0.883265786	1.190103339	0.025335973	0.261386563	0.080561877
2020-03-21T12:40:00	0.3283	5.574	166.0	0.885389365	1.193746851	0.025454256	0.262606871	0.080937988
2020-03-21T12:45:00	0.3265	5.569	166.0	0.879779789	1.184131309	0.025142463	0.259390160	0.079946566
2020-03-21T12:50:00	0.3275	5.565	167.0	0.882833380	1.189361953	0.025311925	0.261138467	0.080485412
2020-03-21T12:55:00	0.3218	5.567	166.0	0.865120055	1.159139706	0.024337652	0.251087070	0.077387473
2020-03-21T13:00:00	0.3282	5.570	166.0	0.884916184	1.192934633	0.025427874	0.262334686	0.080854098
2020-03-21T13:05:00	0.3254	5.576	166.0	0.876208520	1.178024834	0.024945070	0.257353694	0.079318908
2020-03-21T13:10:00	0.3257	5.585	166.0	0.877096912	1.179542786	0.024994094	0.257859458	0.079474789
2020-03-21T13:15:00	0.3240	5.617	166.0	0.872095961	1.171007389	0.024718823	0.255019544	0.078599500
2020-03-21T13:20:00	0.3218	5.631	167.0	0.865224723	1.159317442	0.024343347	0.251145825	0.077405582
2020-03-21T13:25:00	0.3247	5.638	161.0	0.874184432	1.174569093	0.024833576	0.256203422	0.078964383
2020-03-21T13:30:00	0.3232	5.623	166.0	0.869490186	1.166569103	0.024576059	0.253546666	0.078145545
2020-03-21T13:35:00	0.3225	5.615	166.0	0.867275652	1.162802112	0.024455088	0.252298631	0.077760888
2020-03-21T13:40:00	0.3252	5.611	166.0	0.875610929	1.177004170	0.024912124	0.257013792	0.079214147
2020-03-21T13:45:00	0.3235	5.594	166.0	0.870297776	1.167943962	0.024620256	0.254002642	0.078286081
2020-03-21T13:50:00	0.3232	5.589	167.0	0.869635905	1.166817133	0.024584030	0.253628908	0.078170893
2020-03-21T13:55:00	0.3257	5.596	161.0	0.877346697	1.179969712	0.025007887	0.258001760	0.079518648
2020-03-21T14:00:00	0.3223	5.603	166.0	0.866759098	1.161924086	0.024426918	0.252008007	0.077671315
2020-03-21T14:05:00	0.3230	5.611	161.0	0.868891575	1.165550403	0.024543326	0.253208975	0.078041465
2020-03-21T14:10:00	0.3223	5.612	161.0	0.866676704	1.161784059	0.024422426	0.251961668	0.077657033
2020-03-21T14:15:00	0.3216	5.608	166.0	0.864460585	1.158020107	0.024301787	0.250717054	0.077273431
2020-03-21T14:20:00	0.3207	5.607	161.0	0.861621235	1.153204229	0.024147701	0.249127384	0.076783479
2020-03-21T14:25:00	0.3217	5.608	166.0	0.864688927	1.158407724	0.024314202	0.250845138	0.077312908
2020-03-21T14:30:00	0.3204	5.607	166.0	0.860916643	1.152010304	0.024109548	0.248733766	0.076662162
2020-03-21T14:35:00	0.3246	5.610	166.0	0.873918785	1.174115832	0.024818963	0.256052668	0.078917919
2020-03-21T14:40:00	0.3200	5.616	161.0	0.859589624	1.149762916	0.024037781	0.247993360	0.076433962
2020-03-21T14:45:00	0.3206	5.617	162.0	0.861414979	1.152854683	0.024136529	0.249012124	0.076747955
2020-03-21T14:50:00	0.3227	5.617	166.0	0.867900007	1.163863703	0.024489160	0.252650152	0.077869231
2020-03-21T14:55:00	0.3189	5.625	166.0	0.856041274	1.143761507	0.023846460	0.246019534	0.075825610
2020-03-21T15:00:00	0.3217	5.623	162.0	0.864711172	1.158445489	0.024315412	0.250857619	0.077316754
2020-03-21T15:05:00	0.3207	5.616	167.0	0.861560998	1.153102139	0.024144438	0.249093719	0.076773103
2020-03-21T15:10:00	0.3206	5.608	166.0	0.861519747	1.153032229	0.024142204	0.249070667	0.076765998
2020-03-21T15:15:00	0.3198	5.601	167.0	0.858989502	1.148747104	0.024005365	0.247658922	0.076330885
2020-03-21T15:20:00	0.3194	5.594	166.0	0.857703121	1.146570791	0.023935960	0.246942882	0.076110195
2020-03-21T15:25:00	0.3183	5.589	166.0	0.854235717	1.140712155	0.023749430	0.245018494	0.075517079
2020-03-21T15:30:00	0.3197	5.587	167.0	0.858554421	1.148010860	0.023981878	0.247416615	0.076256204
2020-03-21T15:35:00	0.3209	5.587	167.0	0.862246490	1.154264100	0.024181586	0.249476968	0.076891224
2020-03-21T15:40:00	0.3177	5.569	166.0	0.852241617	1.137347850	0.023642521	0.243915528	0.075177135
2020-03-21T15:45:00	0.3206	5.562	167.0	0.861542010	1.153069960	0.024143410	0.249083108	0.076769833
2020-03-21T15:50:00	0.3211	5.564	166.0	0.863055569	1.155636106	0.024225472	0.249929730	0.077030770
2020-03-21T15:55:00	0.3220	5.570	167.0	0.865811471	1.160313972	0.024375286	0.251475332	0.077507140
2020-03-21T16:00:00	0.3225	5.558	162.0	0.867323385	1.162883260	0.024457692	0.252325496	0.077769168
2020-03-21T16:05:00	0.3209	5.545	166.0	0.862403607	1.154530486	0.024190105	0.249564855	0.076918312
2020-03-21T16:10:00	0.3215	5.529	161.0	0.864321222	1.157783557	0.024294211	0.250638899	0.077249343
2020-03-21T16:15:00	0.3197	5.510	167.0	0.858463994	1.147857860	0.023976998	0.247366270	0.076240687
2020-03-21T16:20:00	0.3199	5.493	167.0	0.859138889	1.148999937	0.024013432	0.247742150	0.076356537
2020-03-21T16:25:00	0.3188	5.484	166.0	0.855766530	1.143297307	0.023831682	0.245867065	0.075778617
2020-03-21T16:30:00	0.3178	5.470	166.0	0.852702998	1.138125935	0.023667233	0.244170481	0.075255714
2020-03-21T16:35:00	0.3184	5.460	165.0	0.854625367	1.141369970	0.023770351	0.245234334	0.075583603
2020-03-21T16:40:00	0.3188	5.446	166.0	0.855923907	1.143563198	0.023840146	0.245954395	0.075805533
2020-03-21T16:45:00	0.3197	5.424	166.0	0.858467272	1.147863408	0.023977175	0.247368096	0.076241249
2020-03-21T16:50:00	0.3190	5.406	166.0	0.856340267	1.144266756	0.023862549	0.246185519	0.075876768
2020-03-21T16:55:00	0.3225	5.389	167.0	0.867277622	1.162805461	0.024455195	0.252299739	0.077761230
2020-03-21T17:00:00	0.3191	5.372	166.0	0.856756583	1.144970398	0.023884961	0.246416738	0.075948032
2020-03-21T17:05:00	0.3194	5.353	165.0	0.857743107	1.146638418	0.023938115	0.246965123	0.076117049
2020-03-21T17:10:00	0.3211	5.337	166.0	0.863084374	1.155684963	0.024227035	0.249945858	0.077035741
2020-03-21T17:15:00	0.3222	5.321	166.0	0.866244446	1.161049537	0.024398869	0.251718636	0.077582128
2020-03-21T17:20:00	0.3205	5.309	166.0	0.861012264	1.152172305	0.024114724	0.248787164	0.076678620
2020-03-21T17:25:00	0.3215	5.296	166.0	0.864174003	1.157533694	0.024286210	0.250556353	0.077223901
2020-03-21T17:30:00	0.3219	5.281	165.0	0.865469385	1.159732936	0.024356662	0.251283194	0.077447921
2020-03-21T17:35:00	0.3227	5.265	166.0	0.868006571	1.164044930	0.024494978	0.252710176	0.077887731
2020-03-21T17:40:00	0.3205	5.250	161.0	0.861221818	1.152527363	0.024126069	0.248904208	0.076714694
2020-03-21T17:45:00	0.3216	5.238	165.0	0.864383388	1.157889074	0.024297590	0.250673761	0.077260088
2020-03-21T17:50:00	0.3207	5.228	160.0	0.861637615	1.153231991	0.024148589	0.249136539	0.076786301
2020-03-21T17:55:00	0.3220	5.220	166.0	0.865731028	1.160177330	0.024370906	0.251430143	0.077493212
2020-03-21T18:00:00	0.3221	5.206	165.0	0.866094027	1.160793977	0.024390675	0.251634096	0.077556072
2020-03-21T18:05:00	0.3227	5.188	165.0	0.868009842	1.164050492	0.024495157	0.252712019	0.077888299
2020-03-21T18:10:00	0.3231	5.170	165.0	0.869303960	1.166252154	0.024565873	0.253441585	0.078113158
2020-03-21T18:15:00	0.3220	5.149	165.0	0.865629646	1.160005127	0.024365386	0.251373197	0.077475661
2020-03-21T18:20:00	0.3252	5.128	165.0	0.875611596	1.177005308	0.024912161	0.257014171	0.079214264
2020-03-21T18:25:00	0.3216	5.106	165.0	0.864491350	1.158072329	0.024303459	0.250734309	0.077278749
2020-03-21T18:30:00	0.3237	5.088	165.0	0.871064717	1.169250175	0.024662269	0.254436085	0.078419672
2020-03-21T18:35:00	0.3264	5.068	165.0	0.879485202	1.183627153	0.025126148	0.259221840	0.079894689
2020-03-21T18:40:00	0.3253	5.049	165.0	0.876130255	1.177891141	0.024940754	0.257309164	0.079305183
2020-03-21T18:45:00	0.3250	5.026	161.0	0.874942788	1.175863397	0.024875317	0.256634056	0.079097108
2020-03-21T18:50:00	0.3253	5.002	164.0	0.875924758	1.177540138	0.024929423	0.257192263	0.079269153
2020-03-21T18:55:00	0.3252	4.978	164.0	0.875667056	1.177100018	0.024915217	0.257045706	0.079223983
2020-03-21T19:00:00	0.3264	4.953	164.0	0.879436319	1.183543501	0.025123442	0.259193915	0.079886082
2020-03-21T19:05:00	0.3241	4.928	159.0	0.872361098	1.171459335	0.024733375	0.255169673	0.078645771
2020-03-21T19:10:00	0.3254	4.905	164.0	0.876443376	1.178426050	0.024958025	0.257487345	0.079360100
2020-03-21T19:15:00	0.3267	4.881	164.0	0.880211898	1.184870966	0.025166405	0.259637166	0.080022696
2020-03-21T19:20:00	0.3273	4.857	164.0	0.882120868	1.188140685	0.025272327	0.260729943	0.080359501
2020-03-21T19:25:00	0.3274	4.833	164.0	0.882482361	1.188760237	0.025292413	0.260937164	0.080423368
2020-03-21T19:30:00	0.3269	4.808	164.0	0.880987326	1.186198727	0.025209402	0.260080748	0.080159412
2020-03-21T19:35:00	0.3272	4.782	163.0	0.881967794	1.187878374	0.025263825	0.260642224	0.080332465
2020-03-21T19:40:00	0.3291	4.757	163.0	0.887894293	1.198050024	0.025594173	0.264050366	0.081382887
2020-03-21T19:45:00	0.3285	4.733	163.0	0.885783121	1.194422892	0.025476222	0.262833487	0.081007833
2020-03-21T19:50:00	0.3274	4.709	163.0	0.882433514	1.188676513	0.025289699	0.260909158	0.080414736
2020-03-21T19:55:00	0.3299	4.686	163.0	0.890212362	1.202037372	0.025724031	0.265390087	0.081795802
2020-03-21T20:00:00	0.3282	4.663	163.0	0.885011889	1.193098895	0.025433209	0.262389726	0.080871062
2020-03-21T20:05:00	0.3289	4.641	162.0	0.887227559	1.196904086	0.025556890	0.263665725	0.081264337
2020-03-21T20:10:00	0.3266	4.617	162.0	0.880166284	1.184792879	0.025163878	0.259611085	0.080014658
2020-03-21T20:15:00	0.3291	4.595	163.0	0.887640624	1.197613986	0.025579985	0.263903987	0.081337772
2020-03-21T20:20:00	0.3281	4.574	158.0	0.884601807	1.192395118	0.025410354	0.262153936	0.080798389
2020-03-21T20:25:00	0.3286	4.551	162.0	0.886199592	1.195138090	0.025499466	0.263073295	0.081081744
2020-03-21T20:30:00	0.3276	4.531	158.0	0.883159669	1.189921378	0.025330070	0.261325665	0.080543108
2020-03-21T20:35:00	0.3296	4.510	157.0	0.889393231	1.200627802	0.025678102	0.264916243	0.081649759
2020-03-21T20:40:00	0.3263	4.489	158.0	0.879240778	1.183208906	0.025112616	0.259082228	0.079851659
2020-03-21T20:45:00	0.3249	4.468	157.0	0.874645874	1.175356584	0.024858969	0.256465405	0.079045129
2020-03-21T20:50:00	0.3272	4.446	157.0	0.881821234	1.187627244	0.025255686	0.260558252	0.080306584
2020-03-21T20:55:00	0.3277	4.424	163.0	0.883420141	1.190368031	0.025344560	0.261475156	0.080589183
2020-03-21T21:00:00	0.3292	4.402	158.0	0.888108932	1.198419018	0.025606182	0.264174258	0.081421072
2020-03-21T21:05:00	0.3286	4.378	162.0	0.886306958	1.195322495	0.025505461	0.263135137	0.081100805
2020-03-21T21:10:00	0.3303	4.354	162.0	0.891609707	1.204443372	0.025802486	0.266199493	0.082045269
2020-03-21T21:15:00	0.3319	4.330	162.0	0.896288839	1.212513262	0.026066164	0.268919814	0.082883698
2020-03-21T21:20:00	0.3297	4.307	161.0	0.889552523	1.200901866	0.025687030	0.265008353	0.081678148
2020-03-21T21:25:00	0.3293	4.284	161.0	0.888369079	1.198866305	0.025620741	0.264324461	0.081467366
2020-03-21T21:30:00	0.3280	4.261	161.0	0.884403264	1.192054439	0.025399293	0.262039820	0.080763217
2020-03-21T21:35:00	0.3257	4.239	162.0	0.877336943	1.179953040	0.025007348	0.257996203	0.079516935
2020-03-21T21:40:00	0.3259	4.217	161.0	0.878008608	1.181101313	0.025044458	0.258379060	0.079634936
2020-03-21T21:45:00	0.3268	4.196	161.0	0.880537737	1.185428831	0.025184468	0.259823511	0.080080129
2020-03-21T21:50:00	0.3224	4.175	161.0	0.866947449	1.162244212	0.024437187	0.252113955	0.077703970
2020-03-21T21:55:00	0.3257	4.153	161.0	0.877235859	1.179780263	0.025001766	0.257938610	0.079499185
2020-03-21T22:00:00	0.3263	4.132	161.0	0.879146266	1.183047195	0.025107384	0.259028255	0.079835024
2020-03-21T22:05:00	0.3248	4.111	161.0	0.874372920	1.174890740	0.024843947	0.256310418	0.078997360
2020-03-21T22:10:00	0.3228	4.091	161.0	0.868352058	1.164632549	0.024513846	0.252904832	0.077947726
2020-03-21T22:15:00	0.3285	4.071	155.0	0.885884162	1.194596393	0.025481860	0.262891656	0.081025762
2020-03-21T22:20:00	0.3275	4.050	160.0	0.882666038	1.189075082	0.025302622	0.261042489	0.080455830
2020-03-21T22:25:00	0.3258	4.030	160.0	0.877587203	1.180380835	0.025021172	0.258138818	0.079560891
2020-03-21T22:30:00	0.3288	4.009	160.0	0.886743221	1.196071896	0.025529825	0.263386503	0.081178278
2020-03-21T22:35:00	0.3292	3.989	160.0	0.888162432	1.198511000	0.025609176	0.264205144	0.081430591
2020-03-21T22:40:00	0.3266	3.970	160.0	0.879996200	1.184501726	0.025154453	0.259513850	0.079984689
2020-03-21T22:45:00	0.3259	3.949	160.0	0.877702628	1.180578160	0.025027549	0.258204608	0.079581168
2020-03-21T22:50:00	0.3272	3.931	155.0	0.881910811	1.187780731	0.025260660	0.260609573	0.080322402
2020-03-21T22:55:00	0.3259	3.911	160.0	0.877760338	1.180676825	0.025030738	0.258237507	0.079591308
2020-03-21T23:00:00	0.3243	3.892	160.0	0.872985315	1.172523612	0.024767654	0.255523316	0.078754768
2020-03-21T23:05:00	0.3244	3.872	160.0	0.873169259	1.172837302	0.024777760	0.255627579	0.078786903
2020-03-21T23:10:00	0.3235	3.854	155.0	0.870561417	1.168392921	0.024634694	0.254151595	0.078331990
2020-03-21T23:15:00	0.3242	3.835	160.0	0.872606792	1.171878195	0.024746864	0.255308836	0.078688663
2020-03-21T23:20:00	0.3257	3.815	155.0	0.877130210	1.179599696	0.024995932	0.257878426	0.079480635
2020-03-21T23:25:00	0.3227	3.796	155.0	0.868009701	1.164050253	0.024495149	0.252711940	0.077888274
2020-03-21T23:30:00	0.3242	3.779	155.0	0.872538397	1.171761589	0.024743109	0.255270092	0.078676721
2020-03-21T23:35:00	0.3239	3.760	159.0	0.871791841	1.170489074	0.024702138	0.254847401	0.078546444
2020-03-21T23:40:00	0.3211	3.741	159.0	0.862969858	1.155490733	0.024220821	0.249881745	0.077015981
2020-03-21T23:45:00	0.3236	3.721	154.0	0.870608619	1.168473308	0.024637279	0.254178268	0.078340211
2020-03-21T23:50:00	0.3237	3.701	159.0	0.871102951	1.169315307	0.024664365	0.254457704	0.078426336
2020-03-21T23:55:00	0.3252	3.681	159.0	0.875628094	1.177033481	0.024913070	0.257023551	0.079217155
2020-03-22T00:00:00	0.3225	3.662	154.0	0.867435874	1.163074504	0.024463829	0.252388813	0.077788683
2020-03-22T00:05:00	0.3227	3.643	159.0	0.867930605	1.163915738	0.024490831	0.252667386	0.077874542
2020-03-22T00:10:00	0.3217	3.623	158.0	0.864697797	1.158422782	0.024314684	0.250850115	0.077314442
2020-03-22T00:15:00	0.3239	3.603	154.0	0.871712820	1.170354413	0.024697803	0.254802684	0.078532662
2020-03-22T00:20:00	0.3225	3.584	159.0	0.867241039	1.162743270	0.024453199	0.252279151	0.077754884
2020-03-22T00:25:00	0.3219	3.563	159.0	0.865561481	1.159889352	0.024361675	0.251334913	0.077463861
2020-03-22T00:30:00	0.3228	3.544	159.0	0.868230487	1.164425763	0.024507206	0.252836327	0.077926611
2020-03-22T00:35:00	0.3205	3.524	154.0	0.860956139	1.152077217	0.024111686	0.248755821	0.076668960
2020-03-22T00:40:00	0.3185	3.504	153.0	0.854914658	1.141858449	0.023785891	0.245394650	0.075633015
2020-03-22T00:45:00	0.3199	3.484	153.0	0.859147278	1.149014136	0.024013885	0.247746824	0.076357977
2020-03-22T00:50:00	0.3194	3.464	159.0	0.857775583	1.146693343	0.023939866	0.246983187	0.076122617
2020-03-22T00:55:00	0.3226	3.445	158.0	0.867598834	1.163351573	0.024472721	0.252480553	0.077816959
2020-03-22T01:00:00	0.3188	3.425	158.0	0.855653776	1.143106822	0.023825618	0.245804508	0.075759336
2020-03-22T01:05:00	0.3198	3.403	157.0	0.858952031	1.148683689	0.024003341	0.247638049	0.076324452
2020-03-22T01:10:00	0.3197	3.384	153.0	0.858514161	1.147942740	0.023979705	0.247394200	0.076249295
2020-03-22T01:15:00	0.3187	3.365	157.0	0.855585085	1.142990782	0.023821924	0.245766401	0.075747592
2020-03-22T01:20:00	0.3185	3.347	157.0	0.854835298	1.141724438	0.023781627	0.245350665	0.075619458
2020-03-22T01:25:00	0.3195	3.328	156.0	0.858134241	1.147299996	0.023959208	0.247182731	0.076184118
2020-03-22T01:30:00	0.3222	3.303	157.0	0.866403725	1.161320175	0.024407548	0.251808174	0.077609725
2020-03-22T01:35:00	0.3194	3.287	156.0	0.857569618	1.146345016	0.023928763	0.246868636	0.076087311
2020-03-22T01:40:00	0.3196	3.273	157.0	0.858376878	1.147710471	0.023972298	0.247317774	0.076225740
2020-03-22T01:45:00	0.3193	3.254	153.0	0.857316281	1.145916629	0.023915110	0.246727778	0.076043897
2020-03-22T01:50:00	0.3182	3.234	157.0	0.854074707	1.140440376	0.023740788	0.244929335	0.075489600
2020-03-22T01:55:00	0.3212	3.213	152.0	0.863285507	1.156026135	0.024237952	0.250058486	0.077070454
2020-03-22T02:00:00	0.3194	3.191	157.0	0.857558968	1.146327007	0.023928189	0.246862714	0.076085486
2020-03-22T02:05:00	0.3182	3.172	151.0	0.854005989	1.140324388	0.023737100	0.244891288	0.075477873
2020-03-22T02:10:00	0.3196	3.156	152.0	0.858239590	1.147478211	0.023964891	0.247241359	0.076202188
2020-03-22T02:15:00	0.3206	3.140	151.0	0.861535669	1.153059214	0.024143066	0.249079565	0.076768741
2020-03-22T02:20:00	0.3178	3.124	152.0	0.852690570	1.138104974	0.023666567	0.244163612	0.075253596
2020-03-22T02:25:00	0.3198	3.109	152.0	0.858793471	1.148415359	0.023994781	0.247549732	0.076297232
2020-03-22T02:30:00	0.3180	3.089	151.0	0.853372039	1.139254572	0.023703093	0.244540445	0.075369740
2020-03-22T02:35:00	0.3193	3.069	152.0	0.857294981	1.145880613	0.023913962	0.246715937	0.076040248
2020-03-22T02:40:00	0.3191	3.052	152.0	0.856856926	1.145140017	0.023890364	0.246472485	0.075965214
2020-03-22T02:45:00	0.3203	3.034	157.0	0.860465286	1.151245721	0.024085125	0.248481796	0.076584503
2020-03-22T02:50:00	0.3136	3.016	156.0	0.839438175	1.115833381	0.022962392	0.236898770	0.073014502
2020-03-22T02:55:00	0.3200	2.998	157.0	0.859589835	1.149763274	0.024037793	0.247993477	0.076433998
2020-03-22T03:00:00	0.3191	2.980	156.0	0.856661564	1.144809787	0.023879845	0.246363955	0.075931763
2020-03-22T03:05:00	0.3185	2.964	152.0	0.854977468	1.141964516	0.023789265	0.245429465	0.075643745
2020-03-22T03:10:00	0.3168	2.945	157.0	0.849550739	1.132813758	0.023498675	0.242431496	0.074719742
2020-03-22T03:15:00	0.3182	2.928	156.0	0.853789165	1.139958449	0.023725466	0.244771262	0.075440880
2020-03-22T03:20:00	0.3207	2.912	156.0	0.861756819	1.153434028	0.024155047	0.249203167	0.076806836
2020-03-22T03:25:00	0.3191	2.897	156.0	0.856650913	1.144791782	0.023879271	0.246358038	0.075929940
2020-03-22T03:30:00	0.3168	2.878	151.0	0.849666991	1.133009503	0.023504879	0.242495506	0.074739470
2020-03-22T03:35:00	0.3196	2.860	156.0	0.858265645	1.147522289	0.023966296	0.247255861	0.076206658
2020-03-22T03:40:00	0.3181	2.843	156.0	0.853466856	1.139414555	0.023708178	0.244592901	0.075385908
2020-03-22T03:45:00	0.3187	2.827	151.0	0.855521156	1.142882789	0.023818487	0.245730939	0.075736662
2020-03-22T03:50:00	0.3198	2.808	155.0	0.858819522	1.148459444	0.023996187	0.247564241	0.076301703
2020-03-22T03:55:00	0.3173	2.790	151.0	0.851215841	1.135618650	0.023587629	0.243349221	0.075002593
2020-03-22T04:00:00	0.3220	2.774	151.0	0.865718641	1.160156290	0.024370231	0.251423185	0.077491067
2020-03-22T04:05:00	0.3192	2.757	151.0	0.857059331	1.145482190	0.023901266	0.246584957	0.075999878
2020-03-22T04:10:00	0.3183	2.739	151.0	0.854305632	1.140830177	0.023753183	0.245057214	0.075529013
2020-03-22T04:15:00	0.3170	2.724	151.0	0.850302531	1.134079849	0.023538815	0.242845612	0.074847376
2020-03-22T04:20:00	0.3210	2.711	151.0	0.862497923	1.154690407	0.024195220	0.249617622	0.076934575
2020-03-22T04:25:00	0.3195	2.695	150.0	0.857880624	1.146871003	0.023945530	0.247041618	0.076140626
2020-03-22T04:30:00	0.3200	2.680	151.0	0.859486496	1.149588332	0.024032209	0.247935871	0.076416243
2020-03-22T04:35:00	0.3220	2.663	150.0	0.865754781	1.160217676	0.024372199	0.251443486	0.077497324
2020-03-22T04:40:00	0.3206	2.645	150.0	0.861452356	1.152918023	0.024138554	0.249033009	0.076754392
2020-03-22T04:45:00	0.3205	2.628	150.0	0.861190921	1.152475011	0.024124396	0.248886949	0.076709375
2020-03-22T04:50:00	0.3209	2.614	150.0	0.862484505	1.154667654	0.024194492	0.249610115	0.076932262
2020-03-22T04:55:00	0.3200	2.602	150.0	0.859423441	1.149481590	0.024028802	0.247900724	0.076405411
2020-03-22T05:00:00	0.3222	2.589	150.0	0.866313161	1.161166292	0.024402613	0.251757262	0.077594033
2020-03-22T05:05:00	0.3223	2.580	155.0	0.866673327	1.161778319	0.024422242	0.251959768	0.077656448
2020-03-22T05:10:00	0.3198	2.574	150.0	0.858949916	1.148680109	0.024003227	0.247636871	0.076324089
2020-03-22T05:15:00	0.3203	2.569	149.0	0.860555350	1.151398272	0.024089997	0.248532063	0.076599995
2020-03-22T05:20:00	0.3225	2.564	149.0	0.867443085	1.163086763	0.024464222	0.252392872	0.077789934
2020-03-22T05:25:00	0.3246	2.560	150.0	0.873698704	1.173740368	0.024806861	0.255927810	0.078879437
2020-03-22T05:30:00	0.3253	2.558	149.0	0.875917949	1.177528508	0.024929048	0.257188390	0.079267960
2020-03-22T05:35:00	0.3209	2.556	150.0	0.862308900	1.154369912	0.024184970	0.249511877	0.076901984
2020-03-22T05:40:00	0.3232	2.555	149.0	0.869503967	1.166592559	0.024576812	0.253554444	0.078147942
2020-03-22T05:45:00	0.3225	2.554	150.0	0.867380158	1.162979778	0.024460789	0.252357450	0.077779017
2020-03-22T05:50:00	0.3222	2.555	149.0	0.866497910	1.161480219	0.024412681	0.251861127	0.077626045
2020-03-22T05:55:00	0.3245	2.557	150.0	0.873375250	1.173188628	0.024789080	0.255744367	0.078822898
2020-03-22T06:00:00	0.3214	2.556	154.0	0.863800406	1.156899703	0.024265912	0.250346942	0.077159359
2020-03-22T06:05:00	0.3213	2.554	149.0	0.863539127	1.156456392	0.024251722	0.250200546	0.077114238
2020-03-22T06:10:00	0.3212	2.554	149.0	0.863277831	1.156013114	0.024237536	0.250054187	0.077069129
2020-03-22T06:15:00	0.3231	2.552	154.0	0.869229672	1.166125726	0.024561811	0.253399673	0.078100240
2020-03-22T06:20:00	0.3230	2.553	150.0	0.868968753	1.165681724	0.024547545	0.253252499	0.078054880
2020-03-22T06:25:00	0.3215	2.551	149.0	0.864048255	1.157320285	0.024279377	0.250485857	0.077202174
2020-03-22T06:30:00	0.3216	2.547	149.0	0.864408628	1.157931915	0.024298962	0.250687915	0.077264450
2020-03-22T06:35:00	0.3229	2.546	150.0	0.868496378	1.164878046	0.024521730	0.252986170	0.077972795
2020-03-22T06:40:00	0.3213	2.549	150.0	0.863575287	1.156517740	0.024253686	0.250220804	0.077120482
2020-03-22T06:45:00	0.3228	2.560	149.0	0.868284926	1.164518359	0.024510179	0.252867002	0.077936066
2020-03-22T06:50:00	0.3226	2.573	153.0	0.867713425	1.163546420	0.024478975	0.252545075	0.077836845
2020-03-22T06:55:00	0.3201	2.581	149.0	0.859992062	1.150444299	0.024059533	0.248217770	0.076503127
2020-03-22T07:00:00	0.3203	2.584	150.0	0.860352808	1.151055218	0.024079041	0.248419027	0.076565157
2020-03-22T07:05:00	0.3229	2.585	149.0	0.868482980	1.164855255	0.024520998	0.252978618	0.077970467
2020-03-22T07:10:00	0.3209	2.593	149.0	0.862318234	1.154385737	0.024185476	0.249517098	0.076903593
2020-03-22T07:15:00	0.3225	2.604	150.0	0.867339953	1.162911426	0.024458595	0.252334821	0.077772042
2020-03-22T07:20:00	0.3227	2.619	149.0	0.868010546	1.164051689	0.024495195	0.252712415	0.077888421
2020-03-22T07:25:00	0.3218	2.640	150.0	0.865264528	1.159385035	0.024345513	0.251168171	0.077412469
2020-03-22T07:30:00	0.3221	2.659	150.0	0.865935474	1.160524619	0.024382039	0.251545001	0.077528612
2020-03-22T07:35:00	0.3245	2.688	150.0	0.873434008	1.173288848	0.024792309	0.255777685	0.078833167
2020-03-22T07:40:00	0.3231	2.721	155.0	0.869139982	1.165973095	0.024556906	0.253349077	0.078084646
2020-03-22T07:45:00	0.3212	2.761	156.0	0.863287162	1.156028943	0.024238042	0.250059413	0.077070740
2020-03-22T07:50:00	0.3238	2.797	155.0	0.871411271	1.169840585	0.024681266	0.254632076	0.078480079
2020-03-22T07:55:00	0.3212	2.821	151.0	0.863386316	1.156197147	0.024243425	0.250114947	0.077087856
2020-03-22T08:00:00	0.3216	2.855	150.0	0.864368393	1.157863621	0.024296775	0.250665351	0.077257496
2020-03-22T08:05:00	0.3196	2.881	151.0	0.858197176	1.147406460	0.023962603	0.247217754	0.076194913
2020-03-22T08:10:00	0.3238	2.898	150.0	0.871298930	1.169649183	0.024675107	0.254568534	0.078460494
2020-03-22T08:15:00	0.3231	2.905	150.0	0.869176090	1.166034542	0.024558881	0.253369446	0.078090924
2020-03-22T08:20:00	0.3208	2.924	151.0	0.862079610	1.153981187	0.024172540	0.249383638	0.076862459
2020-03-22T08:25:00	0.3216	2.969	155.0	0.864616205	1.158284272	0.024310248	0.250804343	0.077300334
2020-03-22T08:30:00	0.3212	3.023	156.0	0.863422477	1.156258493	0.024245388	0.250135202	0.077094098
2020-03-22T08:35:00	0.3240	3.069	156.0	0.871856524	1.170599308	0.024705686	0.254884009	0.078557727
2020-03-22T08:40:00	0.3236	3.098	152.0	0.870664992	1.168569318	0.024640367	0.254210126	0.078350030
2020-03-22T08:45:00	0.3235	3.102	156.0	0.870404169	1.168125134	0.024626082	0.254062747	0.078304606
2020-03-22T08:50:00	0.3237	3.095	156.0	0.871074240	1.169266398	0.024662791	0.254441469	0.078421332
2020-03-22T08:55:00	0.3222	3.091	156.0	0.866467019	1.161427727	0.024410997	0.251843759	0.077620692
2020-03-22T09:00:00	0.3213	3.084	156.0	0.863719922	1.156763140	0.024261541	0.250301842	0.077145458
2020-03-22T09:05:00	0.3189	3.127	156.0	0.855990687	1.143676032	0.023843739	0.245991457	0.075816956
2020-03-22T09:10:00	0.3233	3.205	151.0	0.869720591	1.166961289	0.024588664	0.253676710	0.078185626
2020-03-22T09:15:00	0.3231	3.231	152.0	0.869149299	1.165988950	0.024557416	0.253354333	0.078086266
2020-03-22T09:20:00	0.3212	3.219	151.0	0.863296493	1.156044771	0.024238549	0.250064639	0.077072350
2020-03-22T09:25:00	0.3211	3.208	151.0	0.863035180	1.155601524	0.024224366	0.249918315	0.077027252
2020-03-22T09:30:00	0.3216	3.219	152.0	0.864638944	1.158322873	0.024311484	0.250817098	0.077304266
2020-03-22T09:35:00	0.3219	3.254	151.0	0.865309998	1.159462252	0.024347987	0.251193699	0.077420337
2020-03-22T09:40:00	0.3213	3.296	152.0	0.863494798	1.156381186	0.024249315	0.250175713	0.077106584
2020-03-22T09:45:00	0.3210	3.399	157.0	0.862611677	1.154883297	0.024201389	0.249681272	0.076954193
2020-03-22T09:50:00	0.3220	3.492	157.0	0.865769349	1.160242422	0.024372992	0.251451670	0.077499847
2020-03-22T09:55:00	0.3205	3.569	157.0	0.861155902	1.152415674	0.024122500	0.248867388	0.076703346
2020-03-22T10:00:00	0.3220	3.600	152.0	0.865868441	1.160410747	0.024378388	0.251507339	0.077517004
2020-03-22T10:05:00	0.3214	3.655	153.0	0.863786675	1.156876405	0.024265166	0.250339248	0.077156987
2020-03-22T10:10:00	0.3235	3.710	153.0	0.870402377	1.168122081	0.024625984	0.254061734	0.078304294
2020-03-22T10:15:00	0.3222	3.802	159.0	0.866459666	1.161415232	0.024410597	0.251839625	0.077619418
2020-03-22T10:20:00	0.3213	3.887	159.0	0.863445716	1.156297917	0.024246650	0.250148219	0.077098110
2020-03-22T10:25:00	0.3226	3.959	154.0	0.867578433	1.163316886	0.024471608	0.252469068	0.077813419
2020-03-22T10:30:00	0.3214	4.027	160.0	0.863943731	1.157142908	0.024273698	0.250427268	0.077184116
2020-03-22T10:35:00	0.3199	4.112	160.0	0.859372193	1.149394839	0.024026034	0.247872161	0.076396607
2020-03-22T10:40:00	0.3200	4.179	160.0	0.859465878	1.149553427	0.024031095	0.247924378	0.076412701
2020-03-22T10:45:00	0.3191	4.229	161.0	0.856757959	1.144972723	0.023885035	0.246417502	0.075948267
2020-03-22T10:50:00	0.3199	4.260	161.0	0.859342057	1.149343826	0.024024406	0.247855365	0.076391431
2020-03-22T10:55:00	0.3150	4.292	162.0	0.843845328	1.123222116	0.023195275	0.239301374	0.073755007
2020-03-22T11:00:00	0.3180	4.391	162.0	0.853300872	1.139134497	0.023699277	0.244501077	0.075357606
2020-03-22T11:05:00	0.3166	4.435	162.0	0.849028909	1.131935247	0.023470835	0.242144280	0.074631219
2020-03-22T11:10:00	0.3166	4.467	156.0	0.848810819	1.131568164	0.023459205	0.242024299	0.074594239
2020-03-22T11:15:00	0.3157	4.532	157.0	0.846095505	1.127001445	0.023314675	0.240533208	0.074134671
2020-03-22T11:20:00	0.3173	4.547	162.0	0.851182216	1.135561983	0.023585831	0.243330670	0.074996876
2020-03-22T11:25:00	0.3166	4.607	158.0	0.849092626	1.132042503	0.023474234	0.242179340	0.074642025
2020-03-22T11:30:00	0.3160	4.585	158.0	0.847001916	1.128525132	0.023362867	0.241030393	0.074287908
2020-03-22T11:35:00	0.3135	4.645	162.0	0.839283781	1.115574855	0.022954257	0.236814841	0.072988634
2020-03-22T11:40:00	0.3145	4.657	157.0	0.842504602	1.120972469	0.023124292	0.238569056	0.073529300
2020-03-22T11:45:00	0.3163	4.688	162.0	0.847908116	1.130049216	0.023411102	0.241528026	0.074441283
2020-03-22T11:50:00	0.3152	4.678	162.0	0.844567475	1.124434508	0.023233557	0.239696327	0.073876736
2020-03-22T11:55:00	0.3146	4.702	158.0	0.842786865	1.121445950	0.023139226	0.238723129	0.073576787
2020-03-22T12:00:00	0.3147	4.681	162.0	0.842880948	1.121603786	0.023144205	0.238774496	0.073592619
2020-03-22T12:05:00	0.3148	4.694	162.0	0.843287518	1.122285949	0.023165728	0.238996543	0.073661056
2020-03-22T12:10:00	0.3134	4.739	162.0	0.839004558	1.115107365	0.022939549	0.236663097	0.072941865
2020-03-22T12:15:00	0.3132	4.800	162.0	0.838473056	1.114217690	0.022911566	0.236374398	0.072852885
2020-03-22T12:20:00	0.3122	4.846	162.0	0.835124298	1.108618171	0.022735685	0.234559873	0.072293631
2020-03-22T12:25:00	0.3118	4.878	163.0	0.833965860	1.106683501	0.022675015	0.233933954	0.072100717
2020-03-22T12:30:00	0.3120	4.926	163.0	0.834686546	1.107886952	0.022712749	0.234323242	0.072220699
2020-03-22T12:35:00	0.3144	4.958	163.0	0.841976870	1.120087421	0.023096385	0.238281142	0.073440562
2020-03-22T12:40:00	0.3146	4.948	163.0	0.842696071	1.121293641	0.023134422	0.238673564	0.073561510
2020-03-22T12:45:00	0.3136	4.904	163.0	0.839663733	1.116211106	0.022974280	0.237021412	0.073052301
2020-03-22T12:50:00	0.3124	4.890	163.0	0.835689877	1.109563169	0.022765338	0.234865795	0.072387919
2020-03-22T12:55:00	0.3122	4.933	163.0	0.835157920	1.108674340	0.022737447	0.234578053	0.072299234
2020-03-22T13:00:00	0.3098	4.995	163.0	0.827729928	1.096290041	0.022349950	0.230580311	0.071067091
2020-03-22T13:05:00	0.3100	5.025	164.0	0.828451775	1.097491339	0.022387447	0.230967161	0.071186322
2020-03-22T13:10:00	0.3127	5.022	163.0	0.836692949	1.111239869	0.022817980	0.235408894	0.072555307
2020-03-22T13:15:00	0.3123	4.978	163.0	0.835534979	1.109304328	0.022757215	0.234781989	0.072362089
2020-03-22T13:20:00	0.3110	4.962	163.0	0.831556889	1.102664269	0.022549137	0.232635287	0.071700455
2020-03-22T13:25:00	0.3111	4.970	163.0	0.831651245	1.102821596	0.022554060	0.232686080	0.071716110
2020-03-22T13:30:00	0.3111	4.963	163.0	0.831745598	1.102978928	0.022558984	0.232736877	0.071731766
2020-03-22T13:35:00	0.3115	4.980	163.0	0.833093344	1.105227148	0.022629379	0.233463127	0.071955603
2020-03-22T13:40:00	0.3100	4.971	163.0	0.828171771	1.097025301	0.022372898	0.230817060	0.071140060
2020-03-22T13:45:00	0.3123	4.951	162.0	0.835474337	1.109202999	0.022754035	0.234749183	0.072351978
2020-03-22T13:50:00	0.3124	4.942	163.0	0.835881683	1.109883714	0.022775399	0.234969592	0.072419910
2020-03-22T13:55:00	0.3092	4.931	163.0	0.825630988	1.092799672	0.022241113	0.229457465	0.070721019
2020-03-22T14:00:00	0.3083	4.918	158.0	0.822899401	1.088263246	0.022099906	0.228000660	0.070272018
2020-03-22T14:05:00	0.3108	4.909	163.0	0.830838923	1.101467402	0.022511694	0.232248999	0.071581397
2020-03-22T14:10:00	0.3096	4.929	163.0	0.827169796	1.095358196	0.022320877	0.230280370	0.070974647
2020-03-22T14:15:00	0.3111	4.954	163.0	0.831654546	1.102827101	0.022554232	0.232687857	0.071716657
2020-03-22T14:20:00	0.3100	4.947	163.0	0.828299891	1.097238535	0.022379554	0.230885734	0.071161226
2020-03-22T14:25:00	0.3133	4.918	158.0	0.838731907	1.114650945	0.022925192	0.236514975	0.072896212
2020-03-22T14:30:00	0.3141	4.910	162.0	0.841015319	1.118475479	0.023045584	0.237757039	0.073279029
2020-03-22T14:35:00	0.3146	4.916	163.0	0.842672390	1.121253917	0.023133169	0.238660637	0.073557526
2020-03-22T14:40:00	0.3113	4.899	162.0	0.832439653	1.104136498	0.022595220	0.233110723	0.071846989
2020-03-22T14:45:00	0.3130	4.888	162.0	0.837544240	1.112663576	0.022862709	0.235870351	0.072697533
2020-03-22T14:50:00	0.3130	4.877	163.0	0.837638450	1.112821175	0.022867662	0.235921450	0.072713282
2020-03-22T14:55:00	0.3120	4.878	163.0	0.834602160	1.107746015	0.022708329	0.234277642	0.072206645
2020-03-22T15:00:00	0.3109	4.876	162.0	0.831250058	1.102152716	0.022533131	0.232470159	0.071649561
2020-03-22T15:05:00	0.3120	4.863	162.0	0.834477548	1.107537904	0.022701803	0.234210313	0.072185893
2020-03-22T15:10:00	0.3111	4.835	157.0	0.831752201	1.102989938	0.022559328	0.232740432	0.071732861
2020-03-22T15:15:00	0.3135	4.813	162.0	0.839360837	1.115703879	0.022958317	0.236856727	0.073001543
2020-03-22T15:20:00	0.3128	4.798	162.0	0.836951918	1.111672903	0.022831582	0.235549220	0.072598557
2020-03-22T15:25:00	0.3127	4.769	162.0	0.836733151	1.111307090	0.022820091	0.235430675	0.072562021
2020-03-22T15:30:00	0.3107	4.734	162.0	0.830562395	1.101006548	0.022497282	0.232100311	0.071535570
2020-03-22T15:35:00	0.3115	4.719	158.0	0.832850618	1.104822127	0.022616692	0.233332240	0.071915262
2020-03-22T15:40:00	0.3103	4.698	162.0	0.829183398	1.098709389	0.022425487	0.231359612	0.071307279
2020-03-22T15:45:00	0.3120	4.677	162.0	0.834605459	1.107751524	0.022708502	0.234279425	0.072207194
2020-03-22T15:50:00	0.3119	4.661	156.0	0.834386560	1.107385958	0.022697038	0.234161158	0.072170743
2020-03-22T15:55:00	0.3128	4.644	157.0	0.836985525	1.111729102	0.022833347	0.235567434	0.072604171
2020-03-22T16:00:00	0.3121	4.626	157.0	0.834888297	1.108223934	0.022723318	0.234432284	0.072254307
2020-03-22T16:05:00	0.3128	4.602	161.0	0.837088150	1.111900725	0.022838739	0.235623058	0.072621315
2020-03-22T16:10:00	0.3116	4.592	161.0	0.833339035	1.105637171	0.022642224	0.233595655	0.071996449
2020-03-22T16:15:00	0.3106	4.582	156.0	0.830213403	1.100425029	0.022479100	0.231912736	0.071477757
2020-03-22T16:20:00	0.3110	4.561	160.0	0.831475737	1.102528963	0.022544903	0.232591607	0.071686992
2020-03-22T16:25:00	0.3091	4.541	161.0	0.825524432	1.092622585	0.022235596	0.229400542	0.070703475
2020-03-22T16:30:00	0.3116	4.519	161.0	0.833372672	1.105693312	0.022643983	0.233613802	0.072002043
2020-03-22T16:35:00	0.3100	4.495	161.0	0.828365442	1.097347639	0.022382960	0.230920875	0.071172056
2020-03-22T16:40:00	0.3090	4.479	161.0	0.825235789	1.092142936	0.022220653	0.229246385	0.070655962
2020-03-22T16:45:00	0.3103	4.466	161.0	0.829323206	1.098942205	0.022432760	0.231434648	0.071330406
2020-03-22T16:50:00	0.3110	4.456	162.0	0.831526218	1.102613129	0.022547537	0.232618778	0.071695366
2020-03-22T16:55:00	0.3129	4.441	161.0	0.837485118	1.112564679	0.022859601	0.235838287	0.072687651
2020-03-22T17:00:00	0.3127	4.426	161.0	0.836867582	1.111531874	0.022827152	0.235503517	0.072584471
2020-03-22T17:05:00	0.3092	4.407	161.0	0.825905736	1.093256329	0.022255343	0.229604274	0.070766267
2020-03-22T17:10:00	0.3122	4.384	161.0	0.835319111	1.108943641	0.022745897	0.234665223	0.072326101
2020-03-22T17:15:00	0.3132	4.358	161.0	0.838457428	1.114191536	0.022910743	0.236365912	0.072850270
2020-03-22T17:20:00	0.3115	4.332	161.0	0.833143484	1.105310820	0.022632000	0.233490170	0.071963938
2020-03-22T17:25:00	0.3133	4.309	156.0	0.838787076	1.114743294	0.022928096	0.236544943	0.072905449
2020-03-22T17:30:00	0.3132	4.289	156.0	0.838169748	1.113710103	0.022895605	0.236209735	0.072802134
2020-03-22T17:35:00	0.3126	4.270	161.0	0.836300367	1.110583534	0.022797369	0.235196254	0.072489770
2020-03-22T17:40:00	0.3138	4.251	161.0	0.840063414	1.116880536	0.022995353	0.237238816	0.073119307
2020-03-22T17:45:00	0.3130	4.231	161.0	0.837569122	1.112705199	0.022864017	0.235883847	0.072701692
2020-03-22T17:50:00	0.3122	4.211	156.0	0.835073226	1.108532851	0.022733009	0.234532259	0.072285120
2020-03-22T17:55:00	0.3125	4.190	161.0	0.836020930	1.110116445	0.022782705	0.235044963	0.072443140
2020-03-22T18:00:00	0.3127	4.168	160.0	0.836655405	1.111177095	0.022816008	0.235388554	0.072549038
2020-03-22T18:05:00	0.3141	4.146	160.0	0.841043473	1.118522663	0.023047070	0.237772375	0.073283755
2020-03-22T18:10:00	0.3136	4.127	160.0	0.839488269	1.115917265	0.022965032	0.236926004	0.073022895
2020-03-22T18:15:00	0.3154	4.107	160.0	0.845122661	1.125366918	0.023263012	0.240000210	0.073970395
2020-03-22T18:20:00	0.3171	4.088	160.0	0.850437024	1.134306403	0.023546000	0.242919737	0.074870222
2020-03-22T18:25:00	0.3129	4.067	160.0	0.837323379	1.112294144	0.022851100	0.235750582	0.072660619
2020-03-22T18:30:00	0.3183	4.044	160.0	0.854194812	1.140643107	0.023747235	0.244995841	0.075510098
2020-03-22T18:35:00	0.3182	4.024	160.0	0.853891560	1.140131259	0.023730960	0.244827940	0.075458349
2020-03-22T18:40:00	0.3154	4.004	159.0	0.845164581	1.125437332	0.023265237	0.240023163	0.073977470
2020-03-22T18:45:00	0.3172	3.983	160.0	0.850790775	1.134902378	0.023564903	0.243114763	0.074930331
2020-03-22T18:50:00	0.3171	3.958	160.0	0.850487259	1.134391029	0.023548684	0.242947427	0.074878756
2020-03-22T18:55:00	0.3190	3.935	159.0	0.856417234	1.144396831	0.023866692	0.246228257	0.075889940
2020-03-22T19:00:00	0.3173	3.913	159.0	0.851127752	1.135470198	0.023582918	0.243300622	0.074987615
2020-03-22T19:05:00	0.3173	3.891	160.0	0.851136123	1.135484305	0.023583366	0.243305240	0.074989038
2020-03-22T19:10:00	0.3177	3.868	159.0	0.852391686	1.137600908	0.023650557	0.243998438	0.075202688
2020-03-22T19:15:00	0.3174	3.845	154.0	0.851464700	1.136038074	0.023600940	0.243486543	0.075044917
2020-03-22T19:20:00	0.3166	3.821	154.0	0.848977701	1.131849051	0.023468104	0.242116105	0.074622535
2020-03-22T19:25:00	0.3175	3.797	159.0	0.851793249	1.136591895	0.023618519	0.243667905	0.075100815
2020-03-22T19:30:00	0.3172	3.774	159.0	0.850866120	1.135029329	0.023568931	0.243156313	0.074943137
2020-03-22T19:35:00	0.3190	3.752	159.0	0.856484112	1.144509859	0.023870291	0.246265396	0.075901387
2020-03-22T19:40:00	0.3192	3.730	159.0	0.857115265	1.145576755	0.023904279	0.246616043	0.076009459
2020-03-22T19:45:00	0.3185	3.708	159.0	0.854943417	1.141907013	0.023787436	0.245410591	0.075637927
2020-03-22T19:50:00	0.3208	3.686	158.0	0.862110746	1.154033971	0.024174228	0.249401050	0.076867826
2020-03-22T19:55:00	0.3209	3.665	159.0	0.862430056	1.154575333	0.024191539	0.249579652	0.076922873
2020-03-22T20:00:00	0.3204	3.643	159.0	0.860883348	1.151953897	0.024107746	0.248715174	0.076656432
2020-03-22T20:05:00	0.3209	3.621	158.0	0.862446750	1.154603638	0.024192445	0.249588992	0.076925751
2020-03-22T20:10:00	0.3202	3.598	159.0	0.860277857	1.150928278	0.024074987	0.248377205	0.076552267
2020-03-22T20:15:00	0.3207	3.576	158.0	0.861841500	1.153577560	0.024159635	0.249250505	0.076821426
2020-03-22T20:20:00	0.3182	3.554	158.0	0.854067225	1.140427747	0.023740387	0.244925192	0.075488323
2020-03-22T20:25:00	0.3197	3.531	157.0	0.858747009	1.148336736	0.023992273	0.247523856	0.076289256
2020-03-22T20:30:00	0.3209	3.508	152.0	0.862488484	1.154674402	0.024194708	0.249612341	0.076932948
2020-03-22T20:35:00	0.3214	3.485	159.0	0.863740413	1.156797908	0.024262654	0.250313324	0.077148997
2020-03-22T20:40:00	0.3204	3.460	159.0	0.860639070	1.151540083	0.024094527	0.248578794	0.076614398
2020-03-22T20:45:00	0.3204	3.437	156.0	0.860647421	1.151554228	0.024094979	0.248583455	0.076615835
2020-03-22T20:50:00	0.3174	3.415	156.0	0.851311911	1.135780559	0.023592767	0.243402228	0.075018931
2020-03-22T20:55:00	0.3189	3.392	157.0	0.855994991	1.143683303	0.023843970	0.245993846	0.075817692
2020-03-22T21:00:00	0.3191	3.366	157.0	0.856626223	1.144750050	0.023877942	0.246344324	0.075925713
2020-03-22T21:05:00	0.3183	3.340	157.0	0.854142507	1.140554817	0.023744427	0.244966877	0.075501171
2020-03-22T21:10:00	0.3205	3.315	152.0	0.861000250	1.152151950	0.024114074	0.248780454	0.076676552
2020-03-22T21:15:00	0.3197	3.291	152.0	0.858519308	1.147951449	0.023979983	0.247397066	0.076250178
2020-03-22T21:20:00	0.3213	3.265	157.0	0.863504657	1.156397912	0.024249850	0.250181236	0.077108287
2020-03-22T21:25:00	0.3213	3.241	151.0	0.863513002	1.156412069	0.024250303	0.250185911	0.077109727
2020-03-22T21:30:00	0.3195	3.217	151.0	0.857921808	1.146940661	0.023947751	0.247064530	0.076147688
2020-03-22T21:35:00	0.3199	3.193	153.0	0.859175195	1.149061387	0.024015393	0.247762379	0.076362772
2020-03-22T21:40:00	0.3203	3.169	157.0	0.860428181	1.151182876	0.024083118	0.248461089	0.076578121
2020-03-22T21:45:00	0.3211	3.145	156.0	0.862924608	1.155413986	0.024218366	0.249856413	0.077008173
2020-03-22T21:50:00	0.3197	3.121	156.0	0.858577794	1.148050408	0.023983139	0.247429629	0.076260215
2020-03-22T21:55:00	0.3218	3.097	151.0	0.865117063	1.159134627	0.024337489	0.251085390	0.077386956
2020-03-22T22:00:00	0.3231	3.074	156.0	0.869162906	1.166012105	0.024558160	0.253362008	0.078088632
2020-03-22T22:05:00	0.3217	3.052	156.0	0.864817436	1.158625893	0.024321190	0.250917239	0.077335130
2020-03-22T22:10:00	0.3209	3.028	156.0	0.862333343	1.154411354	0.024186295	0.249525550	0.076906198
2020-03-22T22:15:00	0.3202	3.006	156.0	0.860158819	1.150726685	0.024068550	0.248310791	0.076531797
2020-03-22T22:20:00	0.3201	2.984	156.0	0.859850461	1.150204532	0.024051879	0.248138797	0.076478787
2020-03-22T22:25:00	0.3210	2.961	155.0	0.862652635	1.154952751	0.024203611	0.249704191	0.076961257
2020-03-22T22:30:00	0.3203	2.939	151.0	0.860478288	1.151267744	0.024085828	0.248489052	0.076586739
2020-03-22T22:35:00	0.3186	2.919	150.0	0.855188721	1.142321284	0.023800617	0.245546581	0.075679841
2020-03-22T22:40:00	0.3226	2.897	150.0	0.867632740	1.163409225	0.024474572	0.252499644	0.077822842
2020-03-22T22:45:00	0.3220	2.875	151.0	0.865771848	1.160246666	0.024373128	0.251453073	0.077500279
2020-03-22T22:50:00	0.3185	2.853	150.0	0.854885547	1.141809290	0.023784327	0.245378515	0.075628041
2020-03-22T22:55:00	0.3178	2.830	150.0	0.852706882	1.138132486	0.023667441	0.244172628	0.075256375
2020-03-22T23:00:00	0.3207	2.809	149.0	0.861739207	1.153404176	0.024154093	0.249193322	0.076803802
2020-03-22T23:05:00	0.3198	2.789	150.0	0.858941949	1.148666627	0.024002797	0.247632433	0.076322721
2020-03-22T23:10:00	0.3214	2.767	150.0	0.863921199	1.157104674	0.024272474	0.250414639	0.077180224
2020-03-22T23:15:00	0.3190	2.745	154.0	0.856456916	1.144463896	0.023868827	0.246250293	0.075896732
2020-03-22T23:20:00	0.3209	2.725	149.0	0.862372296	1.154477399	0.024188407	0.249547340	0.076912914
2020-03-22T23:25:00	0.3220	2.704	149.0	0.865794087	1.160284443	0.024374339	0.251465567	0.077504130
2020-03-22T23:30:00	0.3225	2.685	149.0	0.867349978	1.162928469	0.024459142	0.252340463	0.077773781
2020-03-22T23:35:00	0.3210	2.664	149.0	0.862691585	1.155018801	0.024205724	0.249725988	0.076967975
2020-03-22T23:40:00	0.3181	2.642	149.0	0.853667036	1.139752346	0.023718915	0.244703669	0.075420047
2020-03-22T23:45:00	0.3185	2.619	153.0	0.854916211	1.141861071	0.023785974	0.245395511	0.075633280
2020-03-22T23:50:00	0.3193	2.600	152.0	0.857410579	1.146076078	0.023920191	0.246780204	0.076060055
2020-03-22T23:55:00	0.3188	2.579	153.0	0.855856314	1.143448997	0.023836511	0.245916885	0.075793972
2020-03-23T00:00:00	0.3176	2.560	152.0	0.852119651	1.137142196	0.023635990	0.243848155	0.075156370
2020-03-23T00:05:00	0.3212	2.540	148.0	0.863330084	1.156101755	0.024240372	0.250083452	0.077078149
2020-03-23T00:10:00	0.3192	2.519	149.0	0.857110363	1.145568467	0.023904015	0.246613318	0.076008620
2020-03-23T00:15:00	0.3162	2.500	148.0	0.847760810	1.129801418	0.023403258	0.241447095	0.074416340
2020-03-23T00:20:00	0.3175	2.482	149.0	0.851819029	1.136635355	0.023619899	0.243682139	0.075105202
2020-03-23T00:25:00	0.3181	2.462	148.0	0.853692133	1.139794697	0.023720261	0.244717558	0.075424328
2020-03-23T00:30:00	0.3169	2.442	148.0	0.849953399	1.133491813	0.023520169	0.242653248	0.074788088
2020-03-23T00:35:00	0.3180	2.421	154.0	0.853386053	1.139278217	0.023703845	0.244548198	0.075372130
2020-03-23T00:40:00	0.3194	2.400	148.0	0.857749772	1.146649689	0.023938475	0.246968830	0.076118192
2020-03-23T00:45:00	0.3178	2.380	149.0	0.852768244	1.138235984	0.023670729	0.244206547	0.075266830
2020-03-23T00:50:00	0.3185	2.362	148.0	0.854952450	1.141922268	0.023787921	0.245415598	0.075639471
2020-03-23T00:55:00	0.3184	2.344	153.0	0.854643682	1.141400894	0.023771335	0.245244482	0.075586731
2020-03-23T01:00:00	0.3191	2.325	148.0	0.856826841	1.145089160	0.023888744	0.246455770	0.075960062
2020-03-23T01:05:00	0.3174	2.305	153.0	0.851532333	1.136152072	0.023604558	0.243523871	0.075056422
2020-03-23T01:10:00	0.3176	2.286	148.0	0.852158706	1.137208047	0.023638081	0.243869728	0.075163018
2020-03-23T01:15:00	0.3166	2.267	153.0	0.849042585	1.131958268	0.023471565	0.242151805	0.074633538
2020-03-23T01:20:00	0.3169	2.250	147.0	0.849981311	1.133538820	0.023521659	0.242668624	0.074792827
2020-03-23T01:25:00	0.3156	2.233	147.0	0.845926768	1.126717878	0.023305710	0.240440714	0.074106163
2020-03-23T01:30:00	0.3159	2.214	147.0	0.846866244	1.128297018	0.023355650	0.240955938	0.074264960
2020-03-23T01:35:00	0.3163	2.195	153.0	0.848117596	1.130401633	0.023422260	0.241643140	0.074476763
2020-03-23T01:40:00	0.3163	2.177	147.0	0.848120388	1.130406332	0.023422409	0.241644675	0.074477236
2020-03-23T01:45:00	0.3134	2.160	147.0	0.839062063	1.115203636	0.022942578	0.236694343	0.072951495
2020-03-23T01:50:00	0.3169	2.141	147.0	0.849998058	1.133567025	0.023522554	0.242677850	0.074795670
2020-03-23T01:55:00	0.3175	2.122	147.0	0.851872036	1.136724717	0.023622735	0.243711407	0.075114223
2020-03-23T02:00:00	0.3153	2.105	147.0	0.845009423	1.125176716	0.023257003	0.239938211	0.073951287
2020-03-23T02:05:00	0.3158	2.087	147.0	0.846573597	1.127805029	0.023340088	0.240795381	0.074215475
2020-03-23T02:10:00	0.3164	2.067	146.0	0.848449219	1.130959621	0.023439930	0.241825437	0.074532948
2020-03-23T02:15:00	0.3166	2.047	147.0	0.849076087	1.132014662	0.023473351	0.242170239	0.074639220
2020-03-23T02:20:00	0.3134	2.030	147.0	0.839081656	1.115236439	0.022943610	0.236704990	0.072954777
2020-03-23T02:25:00	0.3144	2.014	146.0	0.842211343	1.120480620	0.023108782	0.238409040	0.073479982
2020-03-23T02:30:00	0.3147	1.997	146.0	0.843151716	1.122058078	0.023158538	0.238922363	0.073638193
2020-03-23T02:35:00	0.3162	1.982	147.0	0.847839006	1.129932957	0.023407422	0.241490055	0.074429580
2020-03-23T02:40:00	0.3148	1.965	146.0	0.843469783	1.122591811	0.023175380	0.239096123	0.073691747
2020-03-23T02:45:00	0.3166	1.949	152.0	0.849092838	1.132042860	0.023474245	0.242179457	0.074642061
2020-03-23T02:50:00	0.3155	1.931	152.0	0.845661993	1.126272971	0.023291646	0.240295617	0.074061443
2020-03-23T02:55:00	0.3142	1.913	146.0	0.841602950	1.119460482	0.023076622	0.238077258	0.073377723
2020-03-23T03:00:00	0.3166	1.895	146.0	0.848789190	1.131531760	0.023458052	0.242012401	0.074590572
2020-03-23T03:05:00	0.3145	1.878	146.0	0.842233717	1.120518143	0.023109965	0.238421246	0.073483744
2020-03-23T03:10:00	0.3159	1.861	146.0	0.846609914	1.127866079	0.023342019	0.240815303	0.074221615
2020-03-23T03:15:00	0.3136	1.845	146.0	0.839425244	1.115811728	0.022961711	0.236891740	0.073012335
2020-03-23T03:20:00	0.3159	1.827	146.0	0.846615501	1.127875472	0.023342316	0.240818368	0.074222560
2020-03-23T03:25:00	0.3168	1.810	146.0	0.849427170	1.132605704	0.023492081	0.242363466	0.074698774
2020-03-23T03:30:00	0.3157	1.795	146.0	0.845996619	1.126835262	0.023309421	0.240479001	0.074117964
2020-03-23T03:35:00	0.3180	1.780	146.0	0.853174774	1.138921753	0.023692517	0.244431330	0.075336110
2020-03-23T03:40:00	0.3179	1.764	145.0	0.852865865	1.138400645	0.023675960	0.244260514	0.075283463
2020-03-23T03:45:00	0.3186	1.748	145.0	0.855050016	1.142087032	0.023793163	0.245469681	0.075656140
2020-03-23T03:50:00	0.3173	1.733	146.0	0.851000735	1.135256158	0.023576127	0.243230558	0.074966020
2020-03-23T03:55:00	0.3170	1.717	146.0	0.850067837	1.133684546	0.023526280	0.242716292	0.074807518
2020-03-23T04:00:00	0.3170	1.700	146.0	0.850070628	1.133689246	0.023526429	0.242717829	0.074807992
2020-03-23T04:05:00	0.3186	1.683	145.0	0.855099698	1.142170935	0.023795833	0.245497224	0.075664629
2020-03-23T04:10:00	0.3169	1.668	146.0	0.849841432	1.133303251	0.023514191	0.242591575	0.074769079
2020-03-23T04:15:00	0.3181	1.653	145.0	0.853624396	1.139680390	0.023716627	0.244680072	0.075412775
2020-03-23T04:20:00	0.3194	1.637	145.0	0.857715039	1.146590948	0.023936602	0.246949511	0.076112238
2020-03-23T04:25:00	0.3197	1.620	149.0	0.858690182	1.148240576	0.023989205	0.247492210	0.076279503
2020-03-23T04:30:00	0.3193	1.605	145.0	0.857486291	1.146204105	0.023924272	0.246822300	0.076073030
2020-03-23T04:35:00	0.3166	1.590	145.0	0.848800358	1.131550557	0.023458648	0.242018544	0.074592466
2020-03-23T04:40:00	0.3186	1.576	145.0	0.855077398	1.142133273	0.023794635	0.245484861	0.075660818
2020-03-23T04:45:00	0.3185	1.560	145.0	0.854807173	1.141676948	0.023780117	0.245335079	0.075614654
2020-03-23T04:50:00	0.3177	1.546	145.0	0.852355282	1.137539518	0.023648607	0.243978324	0.075196489
2020-03-23T04:55:00	0.3182	1.533	145.0	0.853955058	1.140238426	0.023734367	0.244863091	0.075469183
2020-03-23T05:00:00	0.3163	1.519	145.0	0.848071113	1.130323429	0.023419784	0.241617594	0.074468889
2020-03-23T05:05:00	0.3196	1.505	145.0	0.858397925	1.147746081	0.023973433	0.247329491	0.076229351
2020-03-23T05:10:00	0.3180	1.491	144.0	0.853455771	1.139395852	0.023707584	0.244586769	0.075384017
2020-03-23T05:15:00	0.3185	1.478	145.0	0.854743549	1.141569516	0.023776699	0.245299820	0.075603787
2020-03-23T05:20:00	0.3205	1.466	145.0	0.861011066	1.152170276	0.024114659	0.248786495	0.076678414
2020-03-23T05:25:00	0.3209	1.456	145.0	0.862296362	1.154348654	0.024184290	0.249504864	0.076899822
2020-03-23T05:30:00	0.3217	1.444	145.0	0.864824475	1.158637844	0.024321573	0.250921189	0.077336347
2020-03-23T05:35:00	0.3221	1.433	145.0	0.866108524	1.160818606	0.024391465	0.251642243	0.077558583
2020-03-23T05:40:00	0.3197	1.422	145.0	0.858686903	1.148235028	0.023989028	0.247490384	0.076278940
2020-03-23T05:45:00	0.3210	1.412	145.0	0.862772266	1.155155623	0.024210100	0.249771142	0.076981892
2020-03-23T05:50:00	0.3199	1.402	145.0	0.859080693	1.148901440	0.024010289	0.247709726	0.076346543
2020-03-23T05:55:00	0.3237	1.393	145.0	0.870930261	1.169021139	0.024654901	0.254360067	0.078396243
2020-03-23T06:00:00	0.3215	1.386	145.0	0.864139433	1.157475024	0.024284331	0.250536971	0.077217928
2020-03-23T06:05:00	0.3226	1.378	145.0	0.867598095	1.163350317	0.024472681	0.252480137	0.077816830
2020-03-23T06:10:00	0.3235	1.372	150.0	0.870433131	1.168174452	0.024627668	0.254079109	0.078309649
2020-03-23T06:15:00	0.3227	1.364	144.0	0.867990991	1.164018433	0.024494128	0.252701400	0.077885026
2020-03-23T06:20:00	0.3238	1.360	144.0	0.871446269	1.169900216	0.024683185	0.254651874	0.078486181
2020-03-23T06:25:00	0.3217	1.356	144.0	0.864967094	1.158879985	0.024329331	0.251001220	0.077361014
2020-03-23T06:30:00	0.3242	1.352	144.0	0.872459146	1.171626480	0.024738758	0.255225203	0.078662886
2020-03-23T06:35:00	0.3238	1.350	144.0	0.871259468	1.169581951	0.024672944	0.254546215	0.078453616
2020-03-23T06:40:00	0.3236	1.348	144.0	0.870680070	1.168594997	0.024641193	0.254218647	0.078352656
2020-03-23T06:45:00	0.3204	1.346	144.0	0.860779233	1.151777516	0.024102112	0.248657042	0.076638515
2020-03-23T06:50:00	0.3246	1.347	145.0	0.873864073	1.174022488	0.024815954	0.256021626	0.078908352
2020-03-23T06:55:00	0.3254	1.348	144.0	0.876384768	1.178325923	0.024954792	0.257453989	0.079349820
2020-03-23T07:00:00	0.3232	1.350	144.0	0.869603351	1.166761722	0.024582249	0.253610534	0.078165230
2020-03-23T07:05:00	0.3246	1.353	149.0	0.873677387	1.173704003	0.024805689	0.255915719	0.078875710
2020-03-23T07:10:00	0.3246	1.356	145.0	0.873718511	1.173774157	0.024807950	0.255939046	0.078882900
2020-03-23T07:15:00	0.3276	1.359	144.0	0.883050360	1.189733956	0.025323991	0.261262944	0.080523777
2020-03-23T07:20:00	0.3254	1.366	145.0	0.876280396	1.178147618	0.024949035	0.257394593	0.079331513
2020-03-23T07:25:00	0.3274	1.375	144.0	0.882513722	1.188813991	0.025294156	0.260955145	0.080428910
2020-03-23T07:30:00	0.3261	1.385	144.0	0.878530950	1.181994594	0.025073339	0.258677018	0.079726769
2020-03-23T07:35:00	0.3274	1.397	144.0	0.882595785	1.188954656	0.025298717	0.261002201	0.080443413
2020-03-23T07:40:00	0.3255	1.411	145.0	0.876754612	1.178957829	0.024975199	0.257664521	0.079414708
2020-03-23T07:45:00	0.3266	1.429	144.0	0.879892659	1.184324497	0.025148716	0.259454667	0.079966448
2020-03-23T07:50:00	0.3273	1.447	144.0	0.882100122	1.188105133	0.025271175	0.260718054	0.080355836
2020-03-23T07:55:00	0.3278	1.471	145.0	0.883687847	1.190827154	0.025359458	0.261628848	0.080636552
2020-03-23T08:00:00	0.3271	1.497	150.0	0.881563355	1.187185419	0.025241368	0.260410536	0.080261056
2020-03-23T08:05:00	0.3277	1.521	145.0	0.883460603	1.190437420	0.025346812	0.261498382	0.080596341
2020-03-23T08:10:00	0.3265	1.545	144.0	0.879788380	1.184146012	0.025142939	0.259395069	0.079948080
2020-03-23T08:15:00	0.3288	1.573	145.0	0.886943362	1.196415751	0.025541007	0.263501864	0.081213834
2020-03-23T08:20:00	0.3268	1.605	149.0	0.880489603	1.185346415	0.025181799	0.259795978	0.080071644
2020-03-23T08:25:00	0.3275	1.642	145.0	0.882696732	1.189127698	0.025304328	0.261060092	0.080461256
2020-03-23T08:30:00	0.3261	1.676	145.0	0.878404466	1.181778265	0.025066344	0.258604851	0.079704527
2020-03-23T08:35:00	0.3292	1.716	145.0	0.888034226	1.198290584	0.025602002	0.264131133	0.081407781
2020-03-23T08:40:00	0.3259	1.755	146.0	0.877867197	1.180859525	0.025036643	0.258298428	0.079610084
2020-03-23T08:45:00	0.3280	1.793	146.0	0.884407257	1.192061289	0.025399515	0.262042115	0.080763925
2020-03-23T08:50:00	0.3218	1.831	146.0	0.865230073	1.159326526	0.024343638	0.251148828	0.077406508
2020-03-23T08:55:00	0.3239	1.870	146.0	0.871791103	1.170487816	0.024702097	0.254846984	0.078546315
2020-03-23T09:00:00	0.3229	1.908	146.0	0.868418487	1.164745546	0.024517475	0.252942269	0.077959264
2020-03-23T09:05:00	0.3261	1.951	146.0	0.878382298	1.181740352	0.025065118	0.258592204	0.079700629
2020-03-23T09:10:00	0.3246	2.005	147.0	0.873775297	1.173871032	0.024811072	0.255971260	0.078892828
2020-03-23T09:15:00	0.3237	2.061	147.0	0.871024971	1.169182469	0.024660091	0.254413612	0.078412746
2020-03-23T09:20:00	0.3265	2.111	147.0	0.879744058	1.184070155	0.025140484	0.259369741	0.079940273
2020-03-23T09:25:00	0.3265	2.164	147.0	0.879785119	1.184140431	0.025142759	0.259393206	0.079947505
2020-03-23T09:30:00	0.3250	2.224	148.0	0.875179755	1.176267944	0.024888368	0.256768700	0.079138607
2020-03-23T09:35:00	0.3250	2.283	148.0	0.875220863	1.176338128	0.024890632	0.256792062	0.079145807
2020-03-23T09:40:00	0.3247	2.346	148.0	0.874022026	1.174291980	0.024824642	0.256111252	0.078935975
2020-03-23T09:45:00	0.3238	2.404	148.0	0.871271873	1.169603085	0.024673624	0.254553230	0.078455778
2020-03-23T09:50:00	0.3235	2.463	154.0	0.870382167	1.168087666	0.024624877	0.254050316	0.078300775
2020-03-23T09:55:00	0.3228	2.519	153.0	0.868250497	1.164459798	0.024508299	0.252847602	0.077930087
2020-03-23T10:00:00	0.3237	2.574	148.0	0.871085064	1.169284836	0.024663384	0.254447590	0.078423218
2020-03-23T10:05:00	0.3237	2.634	154.0	0.871079511	1.169275378	0.024663080	0.254444450	0.078422251
2020-03-23T10:10:00	0.3224	2.713	152.0	0.867038420	1.162398840	0.024442148	0.252165136	0.077719744
2020-03-23T10:15:00	0.3223	2.793	149.0	0.866722264	1.161861486	0.024424910	0.251987290	0.077664930
2020-03-23T10:20:00	0.3203	2.856	154.0	0.860499571	1.151303793	0.024086980	0.248500931	0.076590400
2020-03-23T10:25:00	0.3216	2.923	150.0	0.864536266	1.158148573	0.024305901	0.250759502	0.077286514
2020-03-23T10:30:00	0.3207	2.996	155.0	0.861732655	1.153393071	0.024153738	0.249189660	0.076802673
2020-03-23T10:35:00	0.3214	3.077	151.0	0.863903526	1.157074683	0.024271514	0.250404734	0.077177171
2020-03-23T10:40:00	0.3169	3.151	150.0	0.849885421	1.133377330	0.023516540	0.242615804	0.074776547
2020-03-23T10:45:00	0.3175	3.234	156.0	0.851751082	1.136520812	0.023616262	0.243644625	0.075093640
2020-03-23T10:50:00	0.3177	3.321	151.0	0.852369052	1.137562741	0.023649345	0.243985932	0.075198834
2020-03-23T10:55:00	0.3126	3.407	151.0	0.836431693	1.110803075	0.022804263	0.235267374	0.072511690
2020-03-23T11:00:00	0.3176	3.491	156.0	0.852046131	1.137018235	0.023632054	0.243807549	0.075143854
2020-03-23T11:05:00	0.3155	3.592	157.0	0.845487754	1.125980228	0.023282393	0.240200159	0.074032022
2020-03-23T11:10:00	0.3134	3.691	157.0	0.838918318	1.114962991	0.022935007	0.236616240	0.072927423
2020-03-23T11:15:00	0.3149	3.795	153.0	0.843602318	1.122814239	0.023182400	0.239168548	0.073714069
2020-03-23T11:20:00	0.3135	3.895	158.0	0.839219938	1.115467959	0.022950894	0.236780141	0.072977939
2020-03-23T11:25:00	0.3130	3.985	159.0	0.837650004	1.112840504	0.022868269	0.235927718	0.072715214
2020-03-23T11:30:00	0.3118	4.076	154.0	0.833887419	1.106552544	0.022670911	0.233891605	0.072087664
2020-03-23T11:35:00	0.3128	4.180	160.0	0.837012892	1.111774867	0.022834785	0.235582266	0.072608742
2020-03-23T11:40:00	0.3135	4.248	160.0	0.839197547	1.115430469	0.022949714	0.236767971	0.072974188
2020-03-23T11:45:00	0.3119	4.319	160.0	0.834183825	1.107047424	0.022686424	0.234051654	0.072136993
2020-03-23T11:50:00	0.3108	4.382	160.0	0.830731375	1.101288157	0.022506088	0.232191165	0.071563572
2020-03-23T11:55:00	0.3115	4.459	161.0	0.832919569	1.104937176	0.022620295	0.233369417	0.071926721
2020-03-23T12:00:00	0.3110	4.522	161.0	0.831347084	1.102314469	0.022538192	0.232522369	0.071665652
2020-03-23T12:05:00	0.3097	4.560	160.0	0.827264614	1.095515917	0.022325797	0.230331129	0.070990291
2020-03-23T12:10:00	0.3120	4.607	157.0	0.834468999	1.107523627	0.022701355	0.234205694	0.072184470
2020-03-23T12:15:00	0.3101	4.648	161.0	0.828508264	1.097585368	0.022390383	0.230997449	0.071195657
2020-03-23T12:20:00	0.3108	4.674	161.0	0.830697714	1.101232059	0.022504334	0.232173065	0.071557994
2020-03-23T12:25:00	0.3089	4.691	157.0	0.824731164	1.091304561	0.022194543	0.228977013	0.070572939
2020-03-23T12:30:00	0.3092	4.705	156.0	0.825667359	1.092860120	0.022242997	0.229476896	0.070727008
2020-03-23T12:35:00	0.3088	4.724	162.0	0.824405937	1.090764358	0.022177725	0.228803497	0.070519460
2020-03-23T12:40:00	0.3091	4.745	157.0	0.825342211	1.092319772	0.022226162	0.229303215	0.070673478
2020-03-23T12:45:00	0.3071	4.754	162.0	0.819052952	1.081886804	0.021901900	0.225957862	0.069642407
2020-03-23T12:50:00	0.3078	4.761	162.0	0.821247767	1.085523612	0.022014765	0.227122270	0.070001290
2020-03-23T12:55:00	0.3094	4.774	162.0	0.826267025	1.093856928	0.022274063	0.229797402	0.070825791
2020-03-23T13:00:00	0.3095	4.765	158.0	0.826575247	1.094369404	0.022290040	0.229962234	0.070876594
2020-03-23T13:05:00	0.3073	4.740	157.0	0.819973648	1.083411866	0.021949207	0.226445918	0.069792831
2020-03-23T13:10:00	0.3061	4.721	157.0	0.816193814	1.077155751	0.021755347	0.224445903	0.069176407
2020-03-23T13:15:00	0.3083	4.701	162.0	0.823104756	1.088604050	0.022110505	0.228110004	0.070305719
2020-03-23T13:20:00	0.3071	4.686	162.0	0.819327991	1.082342305	0.021916026	0.226103598	0.069687325
2020-03-23T13:25:00	0.3074	4.674	161.0	0.820265498	1.083895452	0.021964214	0.226600746	0.069840551
2020-03-23T13:30:00	0.3074	4.650	162.0	0.820259872	1.083886131	0.021963925	0.226597761	0.069839631
2020-03-23T13:35:00	0.3064	4.646	161.0	0.817109563	1.078670249	0.021802228	0.224929564	0.069325476
2020-03-23T13:40:00	0.3066	4.637	161.0	0.817733077	1.079701870	0.021834179	0.225259202	0.069427074
2020-03-23T13:45:00	0.3044	4.600	161.0	0.810801200	1.068252641	0.021480392	0.221609246	0.068302122
2020-03-23T13:50:00	0.3009	4.585	161.0	0.799750695	1.050090411	0.020922894	0.215857639	0.066529421
2020-03-23T13:55:00	0.3071	4.566	161.0	0.819288605	1.082277071	0.021914003	0.226082725	0.069680892
2020-03-23T14:00:00	0.3039	4.553	161.0	0.809208387	1.065627958	0.021399543	0.220775140	0.068045042
2020-03-23T14:05:00	0.3053	4.561	156.0	0.813613633	1.072892640	0.021623553	0.223086209	0.068757336
2020-03-23T14:10:00	0.3048	4.549	162.0	0.812033260	1.070284434	0.021543044	0.222255611	0.068501338
2020-03-23T14:15:00	0.3030	4.540	161.0	0.806353205	1.060928837	0.021255032	0.219284252	0.067585536
2020-03-23T14:20:00	0.3060	4.536	160.0	0.815800285	1.076505153	0.021735217	0.224238232	0.069112401
2020-03-23T14:25:00	0.3065	4.513	161.0	0.817367853	1.079097553	0.021815460	0.225066084	0.069367553
2020-03-23T14:30:00	0.3031	4.489	162.0	0.806651735	1.061419820	0.021270117	0.219439878	0.067633502
2020-03-23T14:35:00	0.3062	4.471	161.0	0.816412748	1.077517764	0.021766550	0.224561484	0.069212030
2020-03-23T14:40:00	0.3068	4.464	161.0	0.818294579	1.080631194	0.021862975	0.225556283	0.069518637
2020-03-23T14:45:00	0.3030	4.463	162.0	0.806319331	1.060873130	0.021253321	0.219266597	0.067580095
2020-03-23T14:50:00	0.3051	4.454	162.0	0.812933092	1.071769217	0.021588864	0.222728330	0.068647034
2020-03-23T14:55:00	0.3037	4.442	162.0	0.808515780	1.064487376	0.021364439	0.220412977	0.067933420
2020-03-23T15:00:00	0.3065	4.414	162.0	0.817328446	1.079032356	0.021813441	0.225045253	0.069361132
2020-03-23T15:05:00	0.3070	4.387	161.0	0.818895392	1.081625894	0.021893810	0.225874397	0.069616683
2020-03-23T15:10:00	0.3047	4.374	161.0	0.811650581	1.069653210	0.021523573	0.222054739	0.068439427
2020-03-23T15:15:00	0.3045	4.363	161.0	0.811014803	1.068604796	0.021491247	0.221721233	0.068336637
2020-03-23T15:20:00	0.3024	4.347	161.0	0.804386435	1.057696158	0.021155797	0.218260459	0.067269993
2020-03-23T15:25:00	0.3028	4.337	160.0	0.805643143	1.059761342	0.021219176	0.218914332	0.067471523
2020-03-23T15:30:00	0.3037	4.331	161.0	0.808476283	1.064422344	0.021362438	0.220392334	0.067927058
2020-03-23T15:35:00	0.3049	4.319	161.0	0.812252431	1.070646014	0.021554199	0.222370700	0.068536809
2020-03-23T15:40:00	0.3040	4.304	161.0	0.809410796	1.065961367	0.021409808	0.220881040	0.068077682
2020-03-23T15:45:00	0.3021	4.289	160.0	0.803411146	1.056094419	0.021106682	0.217753743	0.067113818
2020-03-23T15:50:00	0.3050	4.264	161.0	0.812550503	1.071137830	0.021569376	0.222527273	0.068585067
2020-03-23T15:55:00	0.3044	4.244	161.0	0.810654580	1.068010941	0.021472943	0.221532394	0.068278435
2020-03-23T16:00:00	0.3036	4.230	161.0	0.808127108	1.063847500	0.021344753	0.220209883	0.067870825
2020-03-23T16:05:00	0.3049	4.210	160.0	0.812360853	1.070824900	0.021559719	0.222427645	0.068554361
2020-03-23T16:10:00	0.3060	4.196	161.0	0.815645906	1.076249966	0.021727324	0.224156792	0.069087300
2020-03-23T16:15:00	0.3062	4.181	155.0	0.816411750	1.077516113	0.021766499	0.224560957	0.069211868
2020-03-23T16:20:00	0.3056	4.172	160.0	0.814345080	1.074100564	0.021660870	0.223471207	0.068875996
2020-03-23T16:25:00	0.3064	4.162	160.0	0.816999280	1.078487819	0.021796579	0.224871287	0.069307515
2020-03-23T16:30:00	0.3056	4.148	160.0	0.814618138	1.074551620	0.021674810	0.223615024	0.068920322
2020-03-23T16:35:00	0.3059	4.137	160.0	0.815384186	1.075817394	0.021713945	0.224018764	0.069044759
2020-03-23T16:40:00	0.3060	4.125	160.0	0.815835394	1.076563192	0.021737013	0.224256755	0.069118110
2020-03-23T16:45:00	0.3056	4.116	160.0	0.814398103	1.074188145	0.021663577	0.223499130	0.068884602
2020-03-23T16:50:00	0.3047	4.102	160.0	0.811700322	1.069735251	0.021526104	0.222080844	0.068447473
2020-03-23T16:55:00	0.3065	4.088	159.0	0.817188702	1.078801166	0.021806282	0.224971388	0.069338367
2020-03-23T17:00:00	0.3064	4.075	154.0	0.817010540	1.078506444	0.021797156	0.224877237	0.069309348
2020-03-23T17:05:00	0.3068	4.061	159.0	0.818090642	1.080293632	0.021852514	0.225448359	0.069485374
2020-03-23T17:10:00	0.3068	4.045	159.0	0.818227041	1.080519398	0.021859510	0.225520538	0.069507620
2020-03-23T17:15:00	0.3060	4.027	159.0	0.815846658	1.076581812	0.021737589	0.224262698	0.069119942
2020-03-23T17:20:00	0.3079	4.010	159.0	0.821643374	1.086179596	0.022035142	0.227332498	0.070066084
2020-03-23T17:25:00	0.3095	3.991	159.0	0.826803829	1.094749520	0.022301893	0.230084517	0.070914283
2020-03-23T17:30:00	0.3077	3.972	159.0	0.820973185	1.085068391	0.022000628	0.226976419	0.069956337
2020-03-23T17:35:00	0.3091	3.955	159.0	0.825506762	1.092593219	0.022234681	0.229391103	0.070700566
2020-03-23T17:40:00	0.3109	3.940	159.0	0.830975547	1.101695121	0.022518817	0.232322480	0.071604044
2020-03-23T17:45:00	0.3091	3.922	159.0	0.825465127	1.092524029	0.022232525	0.229368864	0.070693711
2020-03-23T17:50:00	0.3087	3.906	159.0	0.824345441	1.090663884	0.022174597	0.228771229	0.070509514
2020-03-23T17:55:00	0.3117	3.888	159.0	0.833576798	1.106034016	0.022654659	0.233723945	0.072035990
2020-03-23T18:00:00	0.3114	3.869	153.0	0.832772794	1.104692277	0.022612625	0.233290283	0.071902331
2020-03-23T18:05:00	0.3103	3.850	158.0	0.829147095	1.098648939	0.022423598	0.231340130	0.071301275
2020-03-23T18:10:00	0.3115	3.832	153.0	0.833044551	1.105145727	0.022626828	0.233436813	0.071947493
2020-03-23T18:15:00	0.3085	3.814	154.0	0.823456203	1.089187395	0.022128650	0.228297202	0.070363415
2020-03-23T18:20:00	0.3117	3.796	158.0	0.833629557	1.106122083	0.022657419	0.233752418	0.072044765
2020-03-23T18:25:00	0.3120	3.778	158.0	0.834705026	1.107917817	0.022713717	0.234333229	0.072223777
2020-03-23T18:30:00	0.3105	3.760	153.0	0.829827090	1.099781449	0.022458984	0.231705197	0.071413792
2020-03-23T18:35:00	0.3109	3.742	153.0	0.831217076	1.102097734	0.022531411	0.232452413	0.071644091
2020-03-23T18:40:00	0.3131	3.722	153.0	0.837929643	1.113308346	0.022882974	0.236079429	0.072761973
2020-03-23T18:45:00	0.3133	3.700	158.0	0.838691087	1.114582619	0.022923042	0.236492804	0.072889379
2020-03-23T18:50:00	0.3123	3.680	158.0	0.835384046	1.109052135	0.022749301	0.234700344	0.072336925
2020-03-23T18:55:00	0.3143	3.659	153.0	0.841776832	1.119752008	0.023085811	0.238172057	0.073406941
2020-03-23T19:00:00	0.3139	3.640	158.0	0.840661849	1.117883132	0.023026924	0.237564535	0.073219697
2020-03-23T19:05:00	0.3148	3.619	153.0	0.843298065	1.122303647	0.023166286	0.239002305	0.073662831
2020-03-23T19:10:00	0.3153	3.599	157.0	0.844995591	1.125153484	0.023256269	0.239930639	0.073948953
2020-03-23T19:15:00	0.3152	3.578	157.0	0.844506337	1.124331847	0.023230315	0.239662876	0.073866426
2020-03-23T19:20:00	0.3132	3.556	152.0	0.838389426	1.114077727	0.022907164	0.236328990	0.072838890
2020-03-23T19:25:00	0.3146	3.534	152.0	0.842590161	1.121115982	0.023128818	0.238615753	0.073543692
2020-03-23T19:30:00	0.3134	3.510	156.0	0.838973627	1.115055582	0.022937920	0.236646290	0.072936685
2020-03-23T19:35:00	0.3132	3.487	157.0	0.838170740	1.113711763	0.022895657	0.236210274	0.072802300
2020-03-23T19:40:00	0.3139	3.465	157.0	0.840495957	1.117605170	0.023018170	0.237474218	0.073191860
2020-03-23T19:45:00	0.3147	3.444	157.0	0.843132285	1.122025474	0.023157509	0.238911750	0.073634922
2020-03-23T19:50:00	0.3133	3.423	157.0	0.838577803	1.114393005	0.022917079	0.236431279	0.072870416
2020-03-23T19:55:00	0.3131	3.402	152.0	0.838087742	1.113572880	0.022891291	0.236165226	0.072788416
2020-03-23T20:00:00	0.3171	3.380	152.0	0.850406819	1.134255522	0.023544386	0.242903088	0.074865091
2020-03-23T20:05:00	0.3157	3.355	156.0	0.846173099	1.127131851	0.023318799	0.240575748	0.074147782
2020-03-23T20:10:00	0.3156	3.331	152.0	0.845683993	1.126309936	0.023292814	0.240307671	0.074065158
2020-03-23T20:15:00	0.3158	3.304	152.0	0.846443921	1.127587048	0.023333193	0.240724255	0.074193553
2020-03-23T20:20:00	0.3162	3.279	152.0	0.847827977	1.129914404	0.023406834	0.241483995	0.074427713
2020-03-23T20:25:00	0.3145	3.258	157.0	0.842341443	1.120698812	0.023115662	0.238480022	0.073501859
2020-03-23T20:30:00	0.3140	3.237	151.0	0.840913967	1.118305620	0.023040233	0.237701833	0.073262013
2020-03-23T20:35:00	0.3154	3.214	152.0	0.845111978	1.125348973	0.023262445	0.239994360	0.073968593
2020-03-23T20:40:00	0.3141	3.188	156.0	0.841185155	1.118760130	0.023054552	0.237849564	0.073307546
2020-03-23T20:45:00	0.3154	3.166	156.0	0.845070553	1.125279392	0.023260247	0.239971679	0.073961602
2020-03-23T20:50:00	0.3173	3.146	156.0	0.851135628	1.135483472	0.023583340	0.243304968	0.074988954
2020-03-23T20:55:00	0.3156	3.122	150.0	0.845966026	1.126783850	0.023307796	0.240462232	0.074112795
2020-03-23T21:00:00	0.3146	3.098	156.0	0.842665169	1.121241804	0.023132787	0.238656695	0.073556311
2020-03-23T21:05:00	0.3142	3.075	151.0	0.841550440	1.119372451	0.023073848	0.238048634	0.073368901
2020-03-23T21:10:00	0.3169	3.054	156.0	0.849805286	1.133242382	0.023512261	0.242571667	0.074762944
2020-03-23T21:15:00	0.3151	3.026	156.0	0.844321538	1.124021557	0.023220516	0.239561780	0.073835267
2020-03-23T21:20:00	0.3148	3.003	155.0	0.843207283	1.122151316	0.023161479	0.238952714	0.073647547
2020-03-23T21:25:00	0.3128	2.980	155.0	0.837088327	1.111901021	0.022838748	0.235623154	0.072621344
2020-03-23T21:30:00	0.3158	2.954	150.0	0.846601674	1.127852229	0.023341580	0.240810783	0.074220222
2020-03-23T21:35:00	0.3142	2.930	150.0	0.841426050	1.119163925	0.023067276	0.237980835	0.073348005
2020-03-23T21:40:00	0.3148	2.905	150.0	0.843436870	1.122536577	0.023173637	0.239078140	0.073686205
2020-03-23T21:45:00	0.3161	2.882	155.0	0.847320022	1.129060050	0.023379793	0.241205015	0.074341728
2020-03-23T21:50:00	0.3133	2.857	154.0	0.838705579	1.114606877	0.022923805	0.236500675	0.072891805
2020-03-23T21:55:00	0.3117	2.833	150.0	0.833519425	1.105938252	0.022651658	0.233692985	0.072026448
2020-03-23T22:00:00	0.3151	2.809	149.0	0.844291285	1.123970764	0.023218912	0.239545232	0.073830167
2020-03-23T22:05:00	0.3137	2.787	149.0	0.839871000	1.116558241	0.022985207	0.237134140	0.073087045
2020-03-23T22:10:00	0.3139	2.761	149.0	0.840452180	1.117531824	0.023015860	0.237450388	0.073184516
2020-03-23T22:15:00	0.3123	2.739	148.0	0.835401353	1.109081052	0.022750208	0.234709705	0.072339810
2020-03-23T22:20:00	0.3161	2.717	148.0	0.847237219	1.128920802	0.023375387	0.241159554	0.074327717
2020-03-23T22:25:00	0.3148	2.695	152.0	0.843445257	1.122550653	0.023174081	0.239082722	0.073687617
2020-03-23T22:30:00	0.3124	2.672	148.0	0.835894554	1.109905226	0.022776074	0.234976559	0.072422057
2020-03-23T22:35:00	0.3136	2.652	148.0	0.839605317	1.116113276	0.022971201	0.236989646	0.073042511
2020-03-23T22:40:00	0.3142	2.630	153.0	0.841437240	1.119182682	0.023067867	0.237986933	0.073349884
2020-03-23T22:45:00	0.3139	2.606	148.0	0.840454978	1.117536512	0.023016008	0.237451911	0.073184985
2020-03-23T22:50:00	0.3128	2.586	149.0	0.836969395	1.111702128	0.022832500	0.235558692	0.072601477
2020-03-23T22:55:00	0.3131	2.564	148.0	0.837863935	1.113198409	0.022879519	0.236043776	0.072750984
2020-03-23T23:00:00	0.3115	2.543	153.0	0.833123045	1.105276711	0.022630931	0.233479146	0.071960540
2020-03-23T23:05:00	0.3125	2.525	148.0	0.836210415	1.110433167	0.022792648	0.235147547	0.072474758
2020-03-23T23:10:00	0.3125	2.505	153.0	0.836166094	1.110359082	0.022790322	0.235123550	0.072467362
2020-03-23T23:15:00	0.3132	2.483	147.0	0.838312528	1.113949035	0.022903117	0.236287241	0.072826022
2020-03-23T23:20:00	0.3106	2.463	148.0	0.830124801	1.100277410	0.022474486	0.231865127	0.071463084
2020-03-23T23:25:00	0.3109	2.442	148.0	0.831020921	1.101770753	0.022521182	0.232346886	0.071611567
2020-03-23T23:30:00	0.3109	2.421	148.0	0.830976541	1.101696778	0.022518868	0.232323014	0.071604209
2020-03-23T23:35:00	0.3141	2.401	147.0	0.841262989	1.118890590	0.023058663	0.237891973	0.073320617
2020-03-23T23:40:00	0.3125	2.382	147.0	0.836213216	1.110437850	0.022792795	0.235149063	0.072475225
2020-03-23T23:45:00	0.3122	2.362	147.0	0.835229632	1.108794147	0.022741206	0.234616832	0.072311186
2020-03-23T23:50:00	0.3104	2.344	147.0	0.829544877	1.099311382	0.022444294	0.231553648	0.071367083
2020-03-23T23:55:00	0.3144	2.321	152.0	0.842023780	1.120166083	0.023098864	0.238306727	0.073448448
2020-03-24T00:00:00	0.3133	2.301	152.0	0.838539604	1.114329070	0.022915068	0.236410535	0.072864023
2020-03-24T00:05:00	0.3127	2.283	147.0	0.836617683	1.111114026	0.022814028	0.235368118	0.072542740
2020-03-24T00:10:00	0.3126	2.264	147.0	0.836573367	1.111039932	0.022811701	0.235344112	0.072535341
2020-03-24T00:15:00	0.3133	2.245	147.0	0.838719576	1.114630305	0.022924542	0.236508277	0.072894148
2020-03-24T00:20:00	0.3113	2.226	147.0	0.832413283	1.104092509	0.022593843	0.233096513	0.071842609
2020-03-24T00:25:00	0.3120	2.207	147.0	0.834561794	1.107678599	0.022706215	0.234255831	0.072199922
2020-03-24T00:30:00	0.3122	2.188	147.0	0.835143769	1.108650699	0.022736706	0.234570401	0.072296876
2020-03-24T00:35:00	0.3137	2.168	147.0	0.839793635	1.116428664	0.022981128	0.237092060	0.073074075
2020-03-24T00:40:00	0.3122	2.149	147.0	0.835055102	1.108502575	0.022732059	0.234522460	0.072282100
2020-03-24T00:45:00	0.3128	2.129	146.0	0.837202151	1.112091384	0.022844729	0.235684856	0.072640362
2020-03-24T00:50:00	0.3126	2.111	146.0	0.836531851	1.110970522	0.022809521	0.235321623	0.072528410
2020-03-24T00:55:00	0.3129	2.092	146.0	0.837426492	1.112466614	0.022856519	0.235806494	0.072677852
2020-03-24T01:00:00	0.3124	2.073	152.0	0.835817110	1.109775797	0.022772012	0.234934645	0.072409139
2020-03-24T01:05:00	0.3114	2.054	146.0	0.832640705	1.104471901	0.022605723	0.233219079	0.071880385
2020-03-24T01:10:00	0.3134	2.037	146.0	0.838858048	1.114862098	0.022931833	0.236583497	0.072917331
2020-03-24T01:15:00	0.3090	2.017	145.0	0.825024467	1.091791821	0.022209717	0.229133559	0.070621188
2020-03-24T01:20:00	0.3113	1.999	146.0	0.832507618	1.104249876	0.022598770	0.233147349	0.071858277
2020-03-24T01:25:00	0.3104	1.980	146.0	0.829642088	1.099473292	0.022449354	0.231605844	0.071383170
2020-03-24T01:30:00	0.3085	1.961	146.0	0.823635063	1.089484317	0.022137887	0.228392504	0.070392788
2020-03-24T01:35:00	0.3078	1.942	146.0	0.821391493	1.085761918	0.022022167	0.227198635	0.070024826
2020-03-24T01:40:00	0.3110	1.924	146.0	0.831389969	1.102385966	0.022540429	0.232545447	0.071672765
2020-03-24T01:45:00	0.3091	1.905	145.0	0.825385660	1.092391973	0.022228411	0.229326420	0.070680630
2020-03-24T01:50:00	0.3107	1.888	146.0	0.830360773	1.100670575	0.022486777	0.231991934	0.071502167
2020-03-24T01:55:00	0.3086	1.870	146.0	0.824040847	1.090158056	0.022158853	0.228608798	0.070459452
2020-03-24T02:00:00	0.3089	1.850	146.0	0.824938377	1.091648794	0.022205263	0.229087604	0.070607024
2020-03-24T02:05:00	0.3072	1.829	145.0	0.819552873	1.082714788	0.021927580	0.226222796	0.069724063
2020-03-24T02:10:00	0.3056	1.811	145.0	0.814474658	1.074314602	0.021667485	0.223539448	0.068897029
2020-03-24T02:15:00	0.3078	1.792	145.0	0.821349813	1.085692809	0.022020020	0.227176488	0.070018000
2020-03-24T02:20:00	0.3081	1.774	145.0	0.822247970	1.087182396	0.022066304	0.227653989	0.070165170
2020-03-24T02:25:00	0.3080	1.756	144.0	0.821889295	1.086587448	0.022047814	0.227463235	0.070106378
2020-03-24T02:30:00	0.3068	1.738	145.0	0.818386944	1.080784091	0.021867714	0.225605171	0.069533705
2020-03-24T02:35:00	0.3061	1.720	145.0	0.816140317	1.077067300	0.021752610	0.224417666	0.069167704
2020-03-24T02:40:00	0.3058	1.700	145.0	0.815151611	1.075433043	0.021702059	0.223896145	0.069006966
2020-03-24T02:45:00	0.3039	1.681	148.0	0.809121943	1.065485579	0.021395160	0.220729921	0.068031105
2020-03-24T02:50:00	0.3048	1.665	145.0	0.811913554	1.070086967	0.021536952	0.222192766	0.068481968
2020-03-24T02:55:00	0.3050	1.646	145.0	0.812498953	1.071052767	0.021566751	0.222500190	0.068576719
2020-03-24T03:00:00	0.3037	1.630	149.0	0.808357466	1.064226725	0.021356419	0.220330241	0.067907920
2020-03-24T03:05:00	0.3029	1.613	145.0	0.806104966	1.060520627	0.021242493	0.219154889	0.067545665
2020-03-24T03:10:00	0.3054	1.595	148.0	0.813939772	1.073431171	0.021640188	0.223257828	0.068810231
2020-03-24T03:15:00	0.3025	1.577	145.0	0.804753396	1.058299048	0.021174293	0.218451281	0.067328806
2020-03-24T03:20:00	0.3022	1.558	145.0	0.803761753	1.056670129	0.021124331	0.217935828	0.067169939
2020-03-24T03:25:00	0.3036	1.541	144.0	0.808134251	1.063859258	0.021345115	0.220213614	0.067871975
2020-03-24T03:30:00	0.3036	1.524	144.0	0.808089606	1.063785768	0.021342854	0.220190292	0.067864787
2020-03-24T03:35:00	0.3025	1.508	145.0	0.804574657	1.058005377	0.021165283	0.218358324	0.067300156
2020-03-24T03:40:00	0.3009	1.492	144.0	0.799792610	1.050159092	0.020924993	0.215879299	0.066536097
2020-03-24T03:45:00	0.3017	1.474	144.0	0.802275219	1.054229938	0.021049554	0.217164372	0.066932168
2020-03-24T03:50:00	0.3029	1.458	143.0	0.806018452	1.060378375	0.021238124	0.219109814	0.067531773
2020-03-24T03:55:00	0.3058	1.441	144.0	0.815112680	1.075368712	0.021700070	0.223875623	0.069000641
2020-03-24T04:00:00	0.3049	1.423	143.0	0.812234200	1.070615936	0.021553271	0.222361125	0.068533858
2020-03-24T04:05:00	0.3056	1.406	143.0	0.814614002	1.074544787	0.021674599	0.223612845	0.068919651
2020-03-24T04:10:00	0.3048	1.389	143.0	0.811955336	1.070155889	0.021539078	0.222214700	0.068488729
2020-03-24T04:15:00	0.3063	1.371	143.0	0.816538444	1.077725623	0.021772983	0.224627856	0.069232487
2020-03-24T04:20:00	0.3065	1.354	143.0	0.817343019	1.079056466	0.021814188	0.225052956	0.069363507
2020-03-24T04:25:00	0.3061	1.338	143.0	0.815945212	1.076744736	0.021742629	0.224314700	0.069135969
2020-03-24T04:30:00	0.3055	1.321	143.0	0.814232079	1.073913920	0.021655103	0.223411705	0.068857657
2020-03-24T04:35:00	0.3073	1.307	143.0	0.819755735	1.083050841	0.021938005	0.226330352	0.069757213
2020-03-24T04:40:00	0.3077	1.292	143.0	0.821188218	1.085424881	0.022011698	0.227090635	0.069991539
2020-03-24T04:45:00	0.3103	1.277	143.0	0.829211637	1.098756413	0.022426956	0.231374767	0.071311950
2020-03-24T04:50:00	0.3117	1.261	143.0	0.833774314	1.106363725	0.022664992	0.233830548	0.072068846
2020-03-24T04:55:00	0.3103	1.245	142.0	0.829247619	1.098816332	0.022428827	0.231394078	0.071317902
2020-03-24T05:00:00	0.3100	1.230	143.0	0.828167828	1.097018738	0.022372693	0.230814946	0.071139408
2020-03-24T05:05:00	0.3105	1.217	143.0	0.829910763	1.099920832	0.022463340	0.231750139	0.071427644
2020-03-24T05:10:00	0.3115	1.202	142.0	0.832906368	1.104915149	0.022619605	0.233362299	0.071924527
2020-03-24T05:15:00	0.3124	1.190	142.0	0.835899661	1.109913760	0.022776342	0.234979322	0.072422909
2020-03-24T05:20:00	0.3143	1.177	143.0	0.841705099	1.119631739	0.023082020	0.238132946	0.073394887
2020-03-24T05:25:00	0.3136	1.162	140.0	0.839690585	1.116256077	0.022975696	0.237036015	0.073056802
2020-03-24T05:30:00	0.3149	1.150	143.0	0.843616120	1.122837403	0.023183131	0.239176091	0.073716394
2020-03-24T05:35:00	0.3150	1.140	143.0	0.844102690	1.123654138	0.023208914	0.239442088	0.073798377
2020-03-24T05:40:00	0.3154	1.129	143.0	0.845213893	1.125520165	0.023267855	0.240050166	0.073985792
2020-03-24T05:45:00	0.3181	1.119	143.0	0.853499543	1.139469711	0.023709931	0.244610987	0.075391482
2020-03-24T05:50:00	0.3169	1.107	143.0	0.849931706	1.133455278	0.023519011	0.242641299	0.074784405
2020-03-24T05:55:00	0.3182	1.096	143.0	0.853846946	1.140055963	0.023728566	0.244803244	0.075450737
2020-03-24T06:00:00	0.3172	1.086	143.0	0.850903210	1.135091824	0.023570913	0.243176768	0.074949442
2020-03-24T06:05:00	0.3165	1.080	142.0	0.848581408	1.131182070	0.023446975	0.241898124	0.074555351
2020-03-24T06:10:00	0.3182	1.073	142.0	0.854056389	1.140409458	0.023739805	0.244919193	0.075486474
2020-03-24T06:15:00	0.3162	1.066	142.0	0.847680950	1.129667087	0.023399006	0.241403226	0.074402819
2020-03-24T06:20:00	0.3159	1.060	143.0	0.846606271	1.127859957	0.023341825	0.240813305	0.074220999
2020-03-24T06:25:00	0.3169	1.055	142.0	0.849901002	1.133403571	0.023517371	0.242624386	0.074779192
2020-03-24T06:30:00	0.3181	1.054	143.0	0.853504626	1.139478288	0.023710204	0.244613799	0.075392349
2020-03-24T06:35:00	0.3174	1.052	143.0	0.851496203	1.136091174	0.023602625	0.243503930	0.075050276
2020-03-24T06:40:00	0.3182	1.050	143.0	0.853852029	1.140064541	0.023728839	0.244806058	0.075451604
2020-03-24T06:45:00	0.3164	1.050	143.0	0.848412566	1.130897944	0.023437977	0.241805285	0.074526737
2020-03-24T06:50:00	0.3196	1.049	143.0	0.858248158	1.147492705	0.023965353	0.247246128	0.076203658
2020-03-24T06:55:00	0.3174	1.049	143.0	0.851567756	1.136211781	0.023606453	0.243543423	0.075062448
2020-03-24T07:00:00	0.3175	1.049	143.0	0.851741547	1.136504738	0.023615752	0.243639360	0.075092017
2020-03-24T07:05:00	0.3203	1.051	143.0	0.860324512	1.151007294	0.024077511	0.248403238	0.076560290
2020-03-24T07:10:00	0.3188	1.055	143.0	0.855828585	1.143402148	0.023835019	0.245901498	0.075789230
2020-03-24T07:15:00	0.3172	1.059	142.0	0.850703771	1.134755789	0.023560253	0.243066789	0.074915545
2020-03-24T07:20:00	0.3201	1.064	143.0	0.859911359	1.150307646	0.024055170	0.248172759	0.076489255
2020-03-24T07:25:00	0.3194	1.074	143.0	0.857594901	1.146387773	0.023930126	0.246882696	0.076091645
2020-03-24T07:30:00	0.3187	1.084	143.0	0.855588578	1.142996682	0.023822112	0.245768339	0.075748189
2020-03-24T07:35:00	0.3205	1.097	143.0	0.861053767	1.152242623	0.024116971	0.248810342	0.076685764
2020-03-24T07:40:00	0.3180	1.114	143.0	0.853443275	1.139374767	0.023706913	0.244579855	0.075381887
2020-03-24T07:45:00	0.3186	1.135	143.0	0.855174925	1.142297984	0.023799876	0.245538931	0.075677483
2020-03-24T07:50:00	0.3184	1.156	142.0	0.854413907	1.141012962	0.023758996	0.245117186	0.075547497
2020-03-24T07:55:00	0.3165	1.179	143.0	0.848663193	1.131319707	0.023451335	0.241943101	0.074569213
2020-03-24T08:00:00	0.3174	1.207	143.0	0.851332573	1.135815382	0.023593872	0.243413629	0.075022444
2020-03-24T08:05:00	0.3164	1.234	143.0	0.848386940	1.130854824	0.023436611	0.241791196	0.074522395
2020-03-24T08:10:00	0.3205	1.262	149.0	0.861023151	1.152190750	0.024115313	0.248793244	0.076680494
2020-03-24T08:15:00	0.3182	1.294	143.0	0.854035883	1.140374846	0.023738705	0.244907839	0.075482975
2020-03-24T08:20:00	0.3177	1.330	144.0	0.852339498	1.137512902	0.023647762	0.243969603	0.075193801
2020-03-24T08:25:00	0.3186	1.365	144.0	0.855317895	1.142539455	0.023807560	0.245618207	0.075701917
2020-03-24T08:30:00	0.3184	1.405	143.0	0.854556905	1.141254381	0.023766675	0.245196403	0.075571913
2020-03-24T08:35:00	0.3177	1.439	144.0	0.852237274	1.137340526	0.023642288	0.243913128	0.075176395
2020-03-24T08:40:00	0.3195	1.479	149.0	0.858018453	1.147104133	0.023952963	0.247118301	0.076164260
2020-03-24T08:45:00	0.3192	1.515	144.0	0.856946615	1.145291634	0.023895195	0.246522320	0.075980573
2020-03-24T08:50:00	0.3182	1.558	145.0	0.854005212	1.140323078	0.023737059	0.244890858	0.075477741
2020-03-24T08:55:00	0.3198	1.596	144.0	0.858850191	1.148511343	0.023997843	0.247581323	0.076306968
2020-03-24T09:00:00	0.3194	1.642	144.0	0.857778580	1.146698412	0.023940028	0.246984854	0.076123131
2020-03-24T09:05:00	0.3192	1.695	145.0	0.857018068	1.145412430	0.023899043	0.246562026	0.075992811
2020-03-24T09:10:00	0.3205	1.751	144.0	0.861237284	1.152553570	0.024126907	0.248912848	0.076717357
2020-03-24T09:15:00	0.3201	1.804	145.0	0.859855183	1.150212528	0.024052134	0.248141430	0.076479599
2020-03-24T09:20:00	0.3149	1.864	145.0	0.843503298	1.122648056	0.023177155	0.239114436	0.073697392
2020-03-24T09:25:00	0.3186	1.930	146.0	0.855220830	1.142375513	0.023802343	0.245564384	0.075685328
2020-03-24T09:30:00	0.3194	1.994	146.0	0.857574414	1.146353126	0.023929021	0.246871303	0.076088133
2020-03-24T09:35:00	0.3205	2.057	151.0	0.861170980	1.152441223	0.024123317	0.248875811	0.076705942
2020-03-24T09:40:00	0.3178	2.122	146.0	0.852625640	1.137995463	0.023663089	0.244127724	0.075242535
2020-03-24T09:45:00	0.3164	2.185	146.0	0.848432925	1.130932202	0.023439062	0.241816478	0.074530187
2020-03-24T09:50:00	0.3159	2.250	146.0	0.846734103	1.128074857	0.023348622	0.240883433	0.074242614
2020-03-24T09:55:00	0.3152	2.296	147.0	0.844722191	1.124694318	0.023241764	0.239780990	0.073902830
2020-03-24T10:00:00	0.3152	2.363	146.0	0.844583927	1.124462134	0.023234430	0.239705329	0.073879510
2020-03-24T10:05:00	0.3156	2.435	147.0	0.845780624	1.126472301	0.023297947	0.240360621	0.074081478
2020-03-24T10:10:00	0.3138	2.518	147.0	0.840102909	1.116946694	0.022997436	0.237260305	0.073125930
2020-03-24T10:15:00	0.3112	2.601	148.0	0.831910552	1.103254004	0.022567593	0.232825697	0.071759141
2020-03-24T10:20:00	0.3141	2.682	148.0	0.841248329	1.118866018	0.023057888	0.237883985	0.073318154
2020-03-24T10:25:00	0.3113	2.761	148.0	0.832431739	1.104123296	0.022594807	0.233106458	0.071845674
2020-03-24T10:30:00	0.3116	2.844	153.0	0.833318916	1.105603593	0.022641172	0.233584801	0.071993104
2020-03-24T10:35:00	0.3117	2.939	149.0	0.833579424	1.106038399	0.022654797	0.233725362	0.072036426
2020-03-24T10:40:00	0.3103	3.023	150.0	0.829138499	1.098634625	0.022423151	0.231335517	0.071299853
2020-03-24T10:45:00	0.3119	3.105	155.0	0.834100386	1.106908107	0.022682056	0.234006594	0.072123105
2020-03-24T10:50:00	0.3103	3.186	155.0	0.829346471	1.098980949	0.022433970	0.231447136	0.071334255
2020-03-24T10:55:00	0.3129	3.280	155.0	0.837438827	1.112487247	0.022857167	0.235813184	0.072679913
2020-03-24T11:00:00	0.3070	3.374	156.0	0.818877833	1.081596820	0.021892908	0.225865097	0.069613816
2020-03-24T11:05:00	0.3091	3.475	151.0	0.825422816	1.092453717	0.022230335	0.229346265	0.070686746
2020-03-24T11:10:00	0.3068	3.583	152.0	0.818142937	1.080380188	0.021855196	0.225476030	0.069493902
2020-03-24T11:15:00	0.3085	3.698	157.0	0.823433045	1.089148953	0.022127454	0.228284864	0.070359612
2020-03-24T11:20:00	0.3093	3.810	157.0	0.826205882	1.093755277	0.022270894	0.229764712	0.070815716
2020-03-24T11:25:00	0.3076	3.909	157.0	0.820813710	1.084804033	0.021992419	0.226891732	0.069930235
2020-03-24T11:30:00	0.3068	4.022	153.0	0.818245564	1.080550060	0.021860460	0.225530341	0.069510641
2020-03-24T11:35:00	0.3049	4.117	158.0	0.812212294	1.070579794	0.021552156	0.222349621	0.068530313
2020-03-24T11:40:00	0.3063	4.221	159.0	0.816566740	1.077772417	0.021774432	0.224642799	0.069237092
2020-03-24T11:45:00	0.3072	4.322	160.0	0.819658917	1.082890451	0.021933029	0.226279016	0.069741390
2020-03-24T11:50:00	0.3070	4.395	159.0	0.818977129	1.081761243	0.021898006	0.225917693	0.069630027
2020-03-24T11:55:00	0.3065	4.472	160.0	0.817351605	1.079070673	0.021814628	0.225057495	0.069364906
2020-03-24T12:00:00	0.3074	4.542	160.0	0.820128815	1.083668964	0.021957185	0.226528228	0.069818200
2020-03-24T12:05:00	0.3065	4.594	160.0	0.817245640	1.078895362	0.021809199	0.225001483	0.069347642
2020-03-24T12:10:00	0.3064	4.638	161.0	0.816878054	1.078287299	0.021790371	0.224807237	0.069287774
2020-03-24T12:15:00	0.3059	4.690	160.0	0.815566380	1.076118518	0.021723258	0.224114846	0.069074372
2020-03-24T12:20:00	0.3076	4.733	161.0	0.820860022	1.084880802	0.021994803	0.226916324	0.069937815
2020-03-24T12:25:00	0.3046	4.769	156.0	0.811366678	1.069185002	0.021509135	0.221905780	0.068393517
2020-03-24T12:30:00	0.3066	4.793	156.0	0.817609878	1.079498007	0.021827864	0.225194049	0.069406993
2020-03-24T12:35:00	0.3051	4.808	160.0	0.812835603	1.071608317	0.021583897	0.222677088	0.068631241
2020-03-24T12:40:00	0.3064	4.831	162.0	0.816874740	1.078281818	0.021790201	0.224805486	0.069287234
2020-03-24T12:45:00	0.3060	4.850	162.0	0.815877775	1.076633252	0.021739180	0.224279116	0.069125002
2020-03-24T12:50:00	0.3028	4.861	156.0	0.805741101	1.059922380	0.021224121	0.218965345	0.067487246
2020-03-24T12:55:00	0.3045	4.883	156.0	0.811048279	1.068659990	0.021492948	0.221738787	0.068342048
2020-03-24T13:00:00	0.3054	4.885	161.0	0.813830040	1.073249967	0.021634590	0.223200077	0.068792431
2020-03-24T13:05:00	0.3047	4.864	161.0	0.811572292	1.069524090	0.021519591	0.222013657	0.068426765
2020-03-24T13:10:00	0.3045	4.854	161.0	0.810889070	1.068397502	0.021484857	0.221655310	0.068316319
2020-03-24T13:15:00	0.3041	4.836	157.0	0.809890551	1.066751768	0.021434148	0.221132158	0.068155079
2020-03-24T13:20:00	0.3041	4.823	161.0	0.809837466	1.066664299	0.021431454	0.221104364	0.068146512
2020-03-24T13:25:00	0.3035	4.823	162.0	0.807892735	1.063461716	0.021332887	0.220087464	0.067833094
2020-03-24T13:30:00	0.3045	4.820	156.0	0.810991891	1.068567020	0.021490082	0.221709219	0.068332935
2020-03-24T13:35:00	0.3026	4.801	161.0	0.804947211	1.058617522	0.021184066	0.218552103	0.067359881
2020-03-24T13:40:00	0.3023	4.784	160.0	0.803947144	1.056974595	0.021133667	0.218032144	0.067199624
2020-03-24T13:45:00	0.3035	4.786	161.0	0.807995636	1.063631088	0.021338096	0.220141208	0.067849658
2020-03-24T13:50:00	0.3016	4.784	160.0	0.801946227	1.053690156	0.021033025	0.216993838	0.066879608
2020-03-24T13:55:00	0.3010	4.769	161.0	0.799997485	1.050494826	0.020935258	0.215985193	0.066568734
2020-03-24T14:00:00	0.3014	4.751	161.0	0.801208083	1.052479427	0.020995963	0.216611483	0.066761763
2020-03-24T14:05:00	0.3003	4.741	160.0	0.797678319	1.046696566	0.020819229	0.214788143	0.066199792
2020-03-24T14:10:00	0.3009	4.736	161.0	0.799521787	1.049715348	0.020911430	0.215739364	0.066492967
2020-03-24T14:15:00	0.2991	4.747	161.0	0.794091988	1.040832496	0.020640491	0.212944142	0.065631453
2020-03-24T14:20:00	0.2995	4.756	161.0	0.795304458	1.042813733	0.020700825	0.213566599	0.065823300
2020-03-24T14:25:00	0.3004	4.756	161.0	0.798097669	1.047383006	0.020840183	0.215004325	0.066266421
2020-03-24T14:30:00	0.3008	4.748	161.0	0.799308867	1.049366524	0.020900769	0.215629382	0.066459070
2020-03-24T14:35:00	0.2963	4.741	160.0	0.785006179	1.026027781	0.020191402	0.208310974	0.064203465
2020-03-24T14:40:00	0.2978	4.722	160.0	0.789708556	1.033680752	0.020423161	0.210701990	0.064940400
2020-03-24T14:45:00	0.2993	4.709	161.0	0.794721585	1.041861126	0.020671809	0.213267242	0.065731035
2020-03-24T14:50:00	0.2998	4.702	161.0	0.796250181	1.044360010	0.020747952	0.214052798	0.065973151
2020-03-24T14:55:00	0.2993	4.703	160.0	0.794614993	1.041686952	0.020666505	0.213212522	0.065714170
2020-03-24T15:00:00	0.2982	4.695	160.0	0.791079126	1.035915041	0.020490980	0.211401664	0.065156046
2020-03-24T15:05:00	0.2980	4.675	161.0	0.790392234	1.034795066	0.020456976	0.211050849	0.065047921
2020-03-24T15:10:00	0.2989	4.654	160.0	0.793189043	1.039357896	0.020595621	0.212481229	0.065488778
2020-03-24T15:15:00	0.2984	4.650	161.0	0.791869231	1.037203826	0.020530131	0.211805582	0.065280537
2020-03-24T15:20:00	0.3000	4.636	160.0	0.796879423	1.045389278	0.020779340	0.214376625	0.066072958
2020-03-24T15:25:00	0.2992	4.636	161.0	0.794295198	1.041164460	0.020650597	0.213048398	0.065663585
2020-03-24T15:30:00	0.2984	4.628	161.0	0.791709221	1.036942780	0.020522199	0.211723748	0.065255315
2020-03-24T15:35:00	0.2985	4.609	161.0	0.791972564	1.037372420	0.020535255	0.211858439	0.065296828
2020-03-24T15:40:00	0.2977	4.583	160.0	0.789385011	1.033153558	0.020407169	0.210537004	0.064889549
2020-03-24T15:45:00	0.2995	4.570	160.0	0.795347747	1.042884494	0.020702981	0.213588841	0.065830155
2020-03-24T15:50:00	0.2988	4.551	160.0	0.793079073	1.039178354	0.020590160	0.212424888	0.065471413
2020-03-24T15:55:00	0.2987	4.531	160.0	0.792709161	1.038574498	0.020571796	0.212235429	0.065413021
2020-03-24T16:00:00	0.3008	4.519	160.0	0.799298880	1.049350162	0.020900269	0.215624224	0.066457480
2020-03-24T16:05:00	0.3005	4.506	160.0	0.798347752	1.047792447	0.020852685	0.215133304	0.066306174
2020-03-24T16:10:00	0.3014	4.492	160.0	0.801189119	1.052448329	0.020995012	0.216601665	0.066758737
2020-03-24T16:15:00	0.3002	4.477	160.0	0.797393558	1.046230526	0.020805006	0.214641411	0.066154567
2020-03-24T16:20:00	0.3009	4.451	160.0	0.799603616	1.049849418	0.020915527	0.215781640	0.066505997
2020-03-24T16:25:00	0.3018	4.436	160.0	0.802444051	1.054506980	0.021058040	0.217251914	0.066959150
2020-03-24T16:30:00	0.3020	4.421	160.0	0.803072775	1.055538903	0.021089656	0.217578089	0.067059680
2020-03-24T16:35:00	0.3034	4.406	160.0	0.807487889	1.062795444	0.021312399	0.219876091	0.067767947
2020-03-24T16:40:00	0.2999	4.392	159.0	0.796430635	1.044655147	0.020756951	0.214145638	0.066001765
2020-03-24T16:45:00	0.3019	4.376	160.0	0.802748536	1.055006687	0.021073348	0.217409845	0.067007826
2020-03-24T16:50:00	0.3019	4.364	159.0	0.802745711	1.055002050	0.021073206	0.217408379	0.067007374
2020-03-24T16:55:00	0.3009	4.352	159.0	0.799583821	1.049816985	0.020914536	0.215771413	0.066502845
2020-03-24T17:00:00	0.3032	4.339	159.0	0.806842954	1.061734354	0.021279783	0.219539593	0.067664235
2020-03-24T17:05:00	0.3040	4.324	160.0	0.809362810	1.065882321	0.021407374	0.220855931	0.068069943
2020-03-24T17:10:00	0.3025	4.309	159.0	0.804628601	1.058094005	0.021168002	0.218386377	0.067308802
2020-03-24T17:15:00	0.3018	4.292	159.0	0.802415793	1.054460610	0.021056619	0.217237261	0.066954634
2020-03-24T17:20:00	0.3038	4.274	159.0	0.808723833	1.064829950	0.021374980	0.220521733	0.067966940
2020-03-24T17:25:00	0.3058	4.256	159.0	0.815021520	1.075218080	0.021695413	0.223827574	0.068985832
2020-03-24T17:30:00	0.3069	4.237	159.0	0.818479592	1.080937464	0.021872468	0.225654216	0.069548821
2020-03-24T17:35:00	0.3076	4.216	159.0	0.820677545	1.084578335	0.021985412	0.226819438	0.069907954
2020-03-24T17:40:00	0.3054	4.195	159.0	0.813753792	1.073124064	0.021630701	0.223159954	0.068780065
2020-03-24T17:45:00	0.3074	4.177	159.0	0.820043257	1.083527199	0.021952785	0.226482841	0.069804211
2020-03-24T17:50:00	0.3070	4.159	159.0	0.818782809	1.081439478	0.021888030	0.225814769	0.069598305
2020-03-24T17:55:00	0.3052	4.139	158.0	0.813115545	1.072070365	0.021598161	0.222824246	0.068676597
2020-03-24T18:00:00	0.3080	4.120	159.0	0.821920505	1.086639213	0.022049423	0.227479830	0.070111493
2020-03-24T18:05:00	0.3083	4.099	159.0	0.822860193	1.088198182	0.022097883	0.227979787	0.070265584
2020-03-24T18:10:00	0.3074	4.079	159.0	0.820029193	1.083503896	0.021952062	0.226475381	0.069801912
2020-03-24T18:15:00	0.3079	4.058	159.0	0.821597853	1.086104109	0.022032797	0.227308303	0.070058626
2020-03-24T18:20:00	0.3080	4.036	158.0	0.821909260	1.086620561	0.022048843	0.227473851	0.070109650
2020-03-24T18:25:00	0.3075	4.015	158.0	0.820335101	1.084010794	0.021967794	0.226637680	0.069851934
2020-03-24T18:30:00	0.3077	3.995	158.0	0.820960904	1.085048033	0.021999995	0.226969897	0.069954326
2020-03-24T18:35:00	0.3101	3.975	158.0	0.828493520	1.097560826	0.022389616	0.230989543	0.071193221
2020-03-24T18:40:00	0.3078	3.951	152.0	0.821269550	1.085559729	0.022015887	0.227133844	0.070004856
2020-03-24T18:45:00	0.3084	3.928	152.0	0.823151823	1.088682168	0.022112935	0.228135070	0.070313444
2020-03-24T18:50:00	0.3096	3.906	158.0	0.826916427	1.094936780	0.022307733	0.230144766	0.070932852
2020-03-24T18:55:00	0.3085	3.882	152.0	0.823460294	1.089194186	0.022128861	0.228299382	0.070364087
2020-03-24T19:00:00	0.3091	3.856	152.0	0.825341500	1.092318590	0.022226125	0.229302836	0.070673361
2020-03-24T19:05:00	0.3092	3.832	157.0	0.825652604	1.092835598	0.022242233	0.229469014	0.070724579
2020-03-24T19:10:00	0.3095	3.808	152.0	0.826591384	1.094396238	0.022290877	0.229970865	0.070879254
2020-03-24T19:15:00	0.3096	3.784	152.0	0.826902388	1.094913431	0.022307005	0.230137254	0.070930537
2020-03-24T19:20:00	0.3104	3.758	157.0	0.829409162	1.099085354	0.022437232	0.231480788	0.071344627
2020-03-24T19:25:00	0.3128	3.733	152.0	0.836925366	1.111628501	0.022830187	0.235534831	0.072594122
2020-03-24T19:30:00	0.3116	3.709	157.0	0.833164881	1.105346527	0.022633118	0.233501711	0.071967495
2020-03-24T19:35:00	0.3111	3.685	156.0	0.831595299	1.102728312	0.022551141	0.232655963	0.071706827
2020-03-24T19:40:00	0.3084	3.660	157.0	0.823120907	1.088630857	0.022111339	0.228118605	0.070308370
2020-03-24T19:45:00	0.3117	3.635	155.0	0.833469751	1.105855341	0.022649060	0.233666181	0.072018186
2020-03-24T19:50:00	0.3116	3.610	157.0	0.833466948	1.105850662	0.022648914	0.233664668	0.072017720
2020-03-24T19:55:00	0.3124	3.587	156.0	0.835969480	1.110030451	0.022780005	0.235017113	0.072434557
2020-03-24T20:00:00	0.3130	3.563	157.0	0.837844619	1.113166092	0.022878503	0.236033296	0.072747754
2020-03-24T20:05:00	0.3129	3.538	156.0	0.837528892	1.112637903	0.022861902	0.235862028	0.072694968
2020-03-24T20:10:00	0.3129	3.511	156.0	0.837526092	1.112633219	0.022861755	0.235860509	0.072694500
2020-03-24T20:15:00	0.3134	3.486	156.0	0.839087679	1.115246522	0.022943927	0.236708263	0.072955786
2020-03-24T20:20:00	0.3137	3.460	151.0	0.840023210	1.116813192	0.022993233	0.237216943	0.073112566
2020-03-24T20:25:00	0.3134	3.435	156.0	0.839082081	1.115237150	0.022943632	0.236705221	0.072954848
2020-03-24T20:30:00	0.3120	3.407	156.0	0.834697400	1.107905080	0.022713317	0.234329108	0.072222507
2020-03-24T20:35:00	0.3120	3.383	151.0	0.834694597	1.107900400	0.022713171	0.234327594	0.072222040
2020-03-24T20:40:00	0.3130	3.359	151.0	0.837822220	1.113128617	0.022877325	0.236021143	0.072744009
2020-03-24T20:45:00	0.3132	3.333	150.0	0.838445203	1.114171075	0.022910100	0.236359274	0.072848224
2020-03-24T20:50:00	0.3128	3.310	151.0	0.837190736	1.112072294	0.022844129	0.235678668	0.072638455
2020-03-24T20:55:00	0.3143	3.285	156.0	0.841879614	1.119924343	0.023091244	0.238228103	0.073424215
2020-03-24T21:00:00	0.3135	3.257	155.0	0.839375292	1.115728083	0.022959079	0.236864584	0.073003965
2020-03-24T21:05:00	0.3133	3.230	155.0	0.838746860	1.114675975	0.022925979	0.236523097	0.072898716
2020-03-24T21:10:00	0.3140	3.204	155.0	0.840933338	1.118338084	0.023041255	0.237712384	0.073265265
2020-03-24T21:15:00	0.3137	3.177	155.0	0.839992429	1.116761631	0.022991609	0.237200196	0.073107404
2020-03-24T21:20:00	0.3142	3.151	155.0	0.841553025	1.119376784	0.023073984	0.238050043	0.073369335
2020-03-24T21:25:00	0.3127	3.127	155.0	0.836858152	1.111516106	0.022826656	0.235498407	0.072582896
2020-03-24T21:30:00	0.3114	3.103	150.0	0.832784292	1.104711462	0.022613226	0.233296481	0.071904241
2020-03-24T21:35:00	0.3138	3.078	154.0	0.840293965	1.117266755	0.023007513	0.237364273	0.073157974
2020-03-24T21:40:00	0.3133	3.053	150.0	0.838727265	1.114643175	0.022924947	0.236512454	0.072895435
2020-03-24T21:45:00	0.3146	3.027	149.0	0.842789307	1.121450048	0.023139355	0.238724462	0.073577198
2020-03-24T21:50:00	0.3148	3.002	154.0	0.843411495	1.122493993	0.023172293	0.239064275	0.073681931
2020-03-24T21:55:00	0.3135	2.977	149.0	0.839344505	1.115676532	0.022957457	0.236847849	0.072998807
2020-03-24T22:00:00	0.3151	2.952	149.0	0.844343192	1.124057914	0.023221664	0.239573625	0.073838918
2020-03-24T22:05:00	0.3171	2.929	149.0	0.850359657	1.134176076	0.023541866	0.242877095	0.074857079
2020-03-24T22:10:00	0.3172	2.903	148.0	0.850757076	1.134845599	0.023563102	0.243096181	0.074924604
2020-03-24T22:15:00	0.3153	2.880	152.0	0.844912525	1.125013971	0.023251861	0.239885166	0.073934938
2020-03-24T22:20:00	0.3142	2.854	148.0	0.841560921	1.119390022	0.023074402	0.238054347	0.073370662
2020-03-24T22:25:00	0.3156	2.828	148.0	0.845708434	1.126351003	0.023294112	0.240321063	0.074069286
2020-03-24T22:30:00	0.3135	2.804	148.0	0.839230744	1.115486052	0.022951463	0.236786014	0.072979749
2020-03-24T22:35:00	0.3134	2.780	148.0	0.839003708	1.115105942	0.022939504	0.236662635	0.072941723
2020-03-24T22:40:00	0.3146	2.758	153.0	0.842841446	1.121537516	0.023142114	0.238752928	0.073585971
2020-03-24T22:45:00	0.3146	2.737	147.0	0.842614621	1.121157012	0.023130112	0.238629104	0.073547807
2020-03-24T22:50:00	0.3139	2.716	147.0	0.840512036	1.117632111	0.023019019	0.237482972	0.073194558
2020-03-24T22:55:00	0.3144	2.691	153.0	0.842160931	1.120396077	0.023106116	0.238381538	0.073471505
2020-03-24T23:00:00	0.3116	2.669	147.0	0.833171801	1.105358075	0.022633480	0.233505443	0.071968645
2020-03-24T23:05:00	0.3140	2.646	147.0	0.840769264	1.118063127	0.023032594	0.237623026	0.073237724
2020-03-24T23:10:00	0.3135	2.623	153.0	0.839291327	1.115587490	0.022954655	0.236818943	0.072989898
2020-03-24T23:15:00	0.3125	2.599	147.0	0.836247927	1.110495874	0.022794617	0.235167858	0.072481018
2020-03-24T23:20:00	0.3140	2.577	147.0	0.840713803	1.117970191	0.023029667	0.237592825	0.073228416
2020-03-24T23:25:00	0.3102	2.557	152.0	0.828899611	1.098236865	0.022410727	0.231207342	0.071260348
2020-03-24T23:30:00	0.3115	2.534	148.0	0.833060662	1.105172610	0.022627670	0.233445502	0.071950171
2020-03-24T23:35:00	0.3120	2.513	147.0	0.834712723	1.107930673	0.022714120	0.234337389	0.072225059
2020-03-24T23:40:00	0.3124	2.491	147.0	0.835737962	1.109643526	0.022767860	0.234891814	0.072395938
2020-03-24T23:45:00	0.3119	2.466	147.0	0.834258109	1.107171462	0.022690313	0.234091774	0.072149358
2020-03-24T23:50:00	0.3114	2.443	146.0	0.832777691	1.104700448	0.022612881	0.233292923	0.071903145
2020-03-24T23:55:00	0.3134	2.421	146.0	0.838812057	1.114785109	0.022929412	0.236558512	0.072909631
2020-03-25T00:00:00	0.3110	2.398	147.0	0.831382656	1.102373774	0.022540047	0.232541512	0.071671552
2020-03-25T00:05:00	0.3098	2.377	146.0	0.827705622	1.096249600	0.022348688	0.230567291	0.071063078
2020-03-25T00:10:00	0.3079	2.355	146.0	0.821826232	1.086482856	0.022044564	0.227429706	0.070096044
2020-03-25T00:15:00	0.3093	2.333	146.0	0.825994897	1.093404538	0.022259962	0.229651927	0.070780954
2020-03-25T00:20:00	0.3099	2.311	151.0	0.827963701	1.096679035	0.022362089	0.230705555	0.071105693
2020-03-25T00:25:00	0.3105	2.288	146.0	0.829931503	1.099955382	0.022464420	0.231761280	0.071431077
2020-03-25T00:30:00	0.3098	2.267	146.0	0.827822032	1.096443294	0.022354732	0.230629651	0.071082298
2020-03-25T00:35:00	0.3093	2.248	146.0	0.826025292	1.093455064	0.022261537	0.229668173	0.070785961
2020-03-25T00:40:00	0.3089	2.227	146.0	0.824855700	1.091511441	0.022200986	0.229043475	0.070593423
2020-03-25T00:45:00	0.3089	2.207	145.0	0.824941791	1.091654465	0.022205440	0.229089426	0.070607586
2020-03-25T00:50:00	0.3105	2.187	146.0	0.829734288	1.099626866	0.022454153	0.231655356	0.071398430
2020-03-25T00:55:00	0.3101	2.165	146.0	0.828565817	1.097681172	0.022393374	0.231028310	0.071205169
2020-03-25T01:00:00	0.3108	2.144	146.0	0.830846805	1.101480540	0.022512105	0.232253238	0.071582704
2020-03-25T01:05:00	0.3104	2.127	146.0	0.829678670	1.099534224	0.022451258	0.231625488	0.071389225
2020-03-25T01:10:00	0.3093	2.106	146.0	0.826000016	1.093413047	0.022260227	0.229654663	0.070781798
2020-03-25T01:15:00	0.3093	2.086	145.0	0.826086082	1.093556118	0.022264687	0.229700667	0.070795977
2020-03-25T01:20:00	0.3089	2.066	146.0	0.824916508	1.091612461	0.022204131	0.229075931	0.070603427
2020-03-25T01:25:00	0.3097	2.047	146.0	0.827199649	1.095407852	0.022322426	0.230296351	0.070979572
2020-03-25T01:30:00	0.3093	2.027	146.0	0.826030412	1.093463574	0.022261802	0.229670909	0.070786805
2020-03-25T01:35:00	0.3082	2.005	146.0	0.822662439	1.087870036	0.022087680	0.227874523	0.070233141
2020-03-25T01:40:00	0.3066	1.985	146.0	0.817719111	1.079678759	0.021833463	0.225251816	0.069424797
2020-03-25T01:45:00	0.3076	1.965	151.0	0.820635182	1.084508119	0.021983232	0.226796949	0.069901022
2020-03-25T01:50:00	0.3079	1.945	145.0	0.821664158	1.086214065	0.022036213	0.227343546	0.070069489
2020-03-25T01:55:00	0.3092	1.927	146.0	0.825832998	1.093135425	0.022251575	0.229565402	0.070754286
2020-03-25T02:00:00	0.3076	1.909	145.0	0.820893733	1.084936683	0.021996538	0.226934225	0.069943332
2020-03-25T02:05:00	0.3089	1.891	145.0	0.824749443	1.091334925	0.022195489	0.228986768	0.070575946
2020-03-25T02:10:00	0.3091	1.872	145.0	0.825463420	1.092521193	0.022232437	0.229367952	0.070693430
2020-03-25T02:15:00	0.3078	1.852	145.0	0.821466521	1.085886327	0.022026031	0.227238505	0.070037114
2020-03-25T02:20:00	0.3065	1.831	143.0	0.817150897	1.078738625	0.021804345	0.224951408	0.069332209
2020-03-25T02:25:00	0.3062	1.808	145.0	0.816293286	1.077320225	0.021760437	0.224498413	0.069192591
2020-03-25T02:30:00	0.3055	1.789	145.0	0.814176343	1.073821867	0.021652259	0.223382360	0.068848613
2020-03-25T02:35:00	0.3067	1.771	145.0	0.818038775	1.080207785	0.021849854	0.225420915	0.069476915
2020-03-25T02:40:00	0.3065	1.751	144.0	0.817181362	1.078789023	0.021805906	0.224967509	0.069337171
2020-03-25T02:45:00	0.3076	1.733	145.0	0.820726494	1.084659467	0.021987930	0.226845425	0.069915963
2020-03-25T02:50:00	0.3063	1.715	144.0	0.816724681	1.078033625	0.021782517	0.224726216	0.069262802
2020-03-25T02:55:00	0.3074	1.696	144.0	0.820270233	1.083903299	0.021964457	0.226603259	0.069841325
2020-03-25T03:00:00	0.3062	1.678	144.0	0.816267946	1.077278325	0.021759140	0.224485035	0.069188468
2020-03-25T03:05:00	0.3072	1.660	144.0	0.819499529	1.082626428	0.021924839	0.226194518	0.069715347
2020-03-25T03:10:00	0.3054	1.643	144.0	0.813922476	1.073402609	0.021639305	0.223248725	0.068807425
2020-03-25T03:15:00	0.3049	1.625	144.0	0.812119246	1.070426285	0.021547420	0.222300759	0.068515253
2020-03-25T03:20:00	0.3050	1.609	144.0	0.812520608	1.071088499	0.021567853	0.222511567	0.068580226
2020-03-25T03:25:00	0.3063	1.592	149.0	0.816699344	1.077991720	0.021781220	0.224712833	0.069258677
2020-03-25T03:30:00	0.3063	1.576	144.0	0.816785617	1.078134409	0.021785637	0.224758404	0.069272723
2020-03-25T03:35:00	0.3070	1.558	144.0	0.818759124	1.081400261	0.021886814	0.225802225	0.069594439
2020-03-25T03:40:00	0.3064	1.539	144.0	0.816958159	1.078419799	0.021794473	0.224849560	0.069300818
2020-03-25T03:45:00	0.3045	1.521	144.0	0.811062340	1.068683173	0.021493663	0.221746160	0.068344320
2020-03-25T03:50:00	0.3042	1.503	143.0	0.810203370	1.067267251	0.021450028	0.221295981	0.068205570
2020-03-25T03:55:00	0.3036	1.487	144.0	0.808083070	1.063775009	0.021342523	0.220186878	0.067863734
2020-03-25T04:00:00	0.3026	1.470	143.0	0.805014948	1.058728833	0.021187482	0.218587345	0.067370743
2020-03-25T04:05:00	0.3026	1.454	144.0	0.804961795	1.058641487	0.021184801	0.218559691	0.067362219
2020-03-25T04:10:00	0.3039	1.438	143.0	0.809009216	1.065299920	0.021389445	0.220670961	0.068012933
2020-03-25T04:15:00	0.3045	1.420	144.0	0.810847241	1.068328542	0.021482732	0.221633381	0.068309561
2020-03-25T04:20:00	0.3052	1.402	144.0	0.813314253	1.072398377	0.021608289	0.222928734	0.068708801
2020-03-25T04:25:00	0.3056	1.387	143.0	0.814520655	1.074390583	0.021669833	0.223563675	0.068904496
2020-03-25T04:30:00	0.3071	1.371	148.0	0.819186931	1.082108681	0.021908780	0.226028847	0.069664286
2020-03-25T04:35:00	0.3068	1.353	143.0	0.818190564	1.080459020	0.021857639	0.225501234	0.069501670
2020-03-25T04:40:00	0.3055	1.336	143.0	0.814046755	1.073607847	0.021645646	0.223314139	0.068827587
2020-03-25T04:45:00	0.3070	1.322	142.0	0.819028058	1.081845579	0.021900621	0.225944673	0.069638343
2020-03-25T04:50:00	0.3070	1.309	143.0	0.818975099	1.081757881	0.021897902	0.225916618	0.069629696
2020-03-25T04:55:00	0.3061	1.294	143.0	0.816091060	1.076985862	0.021750090	0.224391668	0.069159691
2020-03-25T05:00:00	0.3069	1.277	143.0	0.818554713	1.081061828	0.021876322	0.225693986	0.069561078
2020-03-25T05:05:00	0.3080	1.261	142.0	0.821959509	1.086703906	0.022051433	0.227500570	0.070117885
2020-03-25T05:10:00	0.3090	1.247	142.0	0.825047367	1.091829868	0.022210902	0.229145784	0.070624956
2020-03-25T05:15:00	0.3089	1.232	142.0	0.824994491	1.091742018	0.022208166	0.229117557	0.070616256
2020-03-25T05:20:00	0.3080	1.218	142.0	0.822114952	1.086961740	0.022059446	0.227583236	0.070143363
2020-03-25T05:25:00	0.3093	1.206	143.0	0.826144383	1.093653038	0.022267708	0.229731833	0.070805582
2020-03-25T05:30:00	0.3108	1.193	142.0	0.830796636	1.101396923	0.022509490	0.232226258	0.071574388
2020-03-25T05:35:00	0.3119	1.181	143.0	0.834190672	1.107058857	0.022686782	0.234055352	0.072138132
2020-03-25T05:40:00	0.3104	1.171	142.0	0.829436867	1.099131493	0.022438674	0.231495660	0.071349211
2020-03-25T05:45:00	0.3115	1.161	143.0	0.833145400	1.105314017	0.022632100	0.233491204	0.071964257
2020-03-25T05:50:00	0.3107	1.150	142.0	0.830585439	1.101044951	0.022498483	0.232112700	0.071539389
2020-03-25T05:55:00	0.3112	1.140	142.0	0.832099847	1.103569702	0.022577475	0.232927648	0.071790563
2020-03-25T06:00:00	0.3111	1.132	143.0	0.831733671	1.102959040	0.022558361	0.232730455	0.071729787
2020-03-25T06:05:00	0.3106	1.125	143.0	0.830113508	1.100258595	0.022473898	0.231859059	0.071461214
2020-03-25T06:10:00	0.3114	1.118	143.0	0.832568235	1.104351000	0.022601937	0.233180019	0.071868346
2020-03-25T06:15:00	0.3106	1.114	142.0	0.830321428	1.100605016	0.022484727	0.231970788	0.071495650
2020-03-25T06:20:00	0.3104	1.110	143.0	0.829641520	1.099472346	0.022449324	0.231605539	0.071383076
2020-03-25T06:25:00	0.3112	1.104	142.0	0.832096546	1.103564196	0.022577303	0.232925870	0.071790015
2020-03-25T06:30:00	0.3110	1.099	142.0	0.831416949	1.102430948	0.022541836	0.232559967	0.071677241
2020-03-25T06:35:00	0.3103	1.095	143.0	0.829169474	1.098686203	0.022424762	0.231352139	0.071304976
2020-03-25T06:40:00	0.3131	1.091	143.0	0.837888071	1.113238790	0.022880788	0.236056872	0.072755020
2020-03-25T06:45:00	0.3101	1.088	143.0	0.828750196	1.097988110	0.022402959	0.231127193	0.071235646
2020-03-25T06:50:00	0.3124	1.085	142.0	0.835904696	1.109922176	0.022776606	0.234982048	0.072423749
2020-03-25T06:55:00	0.3131	1.084	143.0	0.838042875	1.113497806	0.022888930	0.236140876	0.072780911
2020-03-25T07:00:00	0.3116	1.083	142.0	0.833293794	1.105561666	0.022639859	0.233571248	0.071988927
2020-03-25T07:05:00	0.3150	1.083	142.0	0.843878167	1.123277238	0.023197015	0.239319326	0.073760541
2020-03-25T07:10:00	0.3127	1.084	142.0	0.836632928	1.111139514	0.022814828	0.235376377	0.072545285
2020-03-25T07:15:00	0.3145	1.089	142.0	0.842522974	1.121003285	0.023125264	0.238579083	0.073532390
2020-03-25T07:20:00	0.3136	1.092	142.0	0.839656436	1.116198885	0.022973895	0.237017444	0.073051078
2020-03-25T07:25:00	0.3136	1.101	142.0	0.839603758	1.116110666	0.022971119	0.236988799	0.073042249
2020-03-25T07:30:00	0.3136	1.114	142.0	0.839551080	1.116022448	0.022968342	0.236960155	0.073033421
2020-03-25T07:35:00	0.3139	1.128	143.0	0.840436632	1.117505774	0.023015040	0.237441924	0.073181907
2020-03-25T07:40:00	0.3137	1.145	143.0	0.839758494	1.116369809	0.022979275	0.237072947	0.073068185
2020-03-25T07:45:00	0.3147	1.167	143.0	0.843144708	1.122046319	0.023158167	0.238918535	0.073637013
2020-03-25T07:50:00	0.3168	1.191	142.0	0.849648900	1.132979040	0.023503914	0.242485544	0.074736400
2020-03-25T07:55:00	0.3154	1.217	143.0	0.845226310	1.125541022	0.023268514	0.240056965	0.073987888
2020-03-25T08:00:00	0.3141	1.244	143.0	0.841111358	1.118636439	0.023050655	0.237809357	0.073295154
2020-03-25T08:05:00	0.3141	1.273	143.0	0.841058700	1.118548183	0.023047874	0.237780670	0.073286312
2020-03-25T08:10:00	0.3156	1.304	143.0	0.845693119	1.126325269	0.023293299	0.240312671	0.074066699
2020-03-25T08:15:00	0.3124	1.340	143.0	0.835947530	1.109993766	0.022778853	0.235005232	0.072430895
2020-03-25T08:20:00	0.3134	1.383	143.0	0.839024258	1.115140345	0.022940586	0.236673801	0.072945164
2020-03-25T08:25:00	0.3123	1.421	143.0	0.835528985	1.109294314	0.022756900	0.234778746	0.072361090
2020-03-25T08:30:00	0.3135	1.466	144.0	0.839231700	1.115487653	0.022951513	0.236786534	0.072979909
2020-03-25T08:35:00	0.3124	1.508	144.0	0.835736615	1.109641274	0.022767789	0.234891085	0.072395714
2020-03-25T08:40:00	0.3105	1.551	144.0	0.829730630	1.099620772	0.022453962	0.231653391	0.071397825
2020-03-25T08:45:00	0.3096	1.593	149.0	0.827168410	1.095355890	0.022320805	0.230279628	0.070974418
2020-03-25T08:50:00	0.3094	1.640	145.0	0.826487947	1.094224244	0.022285514	0.229915541	0.070862203
2020-03-25T08:55:00	0.3110	1.688	149.0	0.831453230	1.102491438	0.022543729	0.232579494	0.071683259
2020-03-25T09:00:00	0.3120	1.735	145.0	0.834533523	1.107631384	0.022704734	0.234240556	0.072195214
2020-03-25T09:05:00	0.3129	1.790	144.0	0.837298425	1.112252406	0.022849788	0.235737052	0.072656449
2020-03-25T09:10:00	0.3116	1.844	145.0	0.833175065	1.105363523	0.022633651	0.233507204	0.071969188
2020-03-25T09:15:00	0.3110	1.908	145.0	0.831555505	1.102661960	0.022549065	0.232634542	0.071700225
2020-03-25T09:20:00	0.3105	1.977	145.0	0.829935267	1.099961654	0.022464616	0.231763302	0.071431701
2020-03-25T09:25:00	0.3119	2.048	146.0	0.834269780	1.107190951	0.022690924	0.234098078	0.072151301
2020-03-25T09:30:00	0.3115	2.120	145.0	0.832963998	1.105011311	0.022622617	0.233393374	0.071934105
2020-03-25T09:35:00	0.3106	2.188	151.0	0.830090390	1.100220079	0.022472694	0.231846638	0.071457385
2020-03-25T09:40:00	0.3097	2.262	146.0	0.827214646	1.095432799	0.022323204	0.230304379	0.070982046
2020-03-25T09:45:00	0.3097	2.330	147.0	0.827475565	1.095866843	0.022336745	0.230444078	0.071025103
2020-03-25T09:50:00	0.3093	2.387	147.0	0.826167490	1.093691451	0.022268905	0.229744186	0.070809389
2020-03-25T09:55:00	0.3103	2.445	152.0	0.829251988	1.098823607	0.022429055	0.231396423	0.071318625
2020-03-25T10:00:00	0.3085	2.508	147.0	0.823550010	1.089343118	0.022133494	0.228347182	0.070378819
2020-03-25T10:05:00	0.3084	2.575	153.0	0.823227494	1.088807763	0.022116841	0.228175371	0.070325865
2020-03-25T10:10:00	0.3057	2.654	148.0	0.814729060	1.074734868	0.021680475	0.223673460	0.068938333
2020-03-25T10:15:00	0.3087	2.746	148.0	0.824152814	1.090343986	0.022164639	0.228668499	0.070477852
2020-03-25T10:20:00	0.3084	2.832	153.0	0.823202199	1.088765779	0.022115535	0.228161899	0.070321713
2020-03-25T10:25:00	0.3062	2.917	148.0	0.816277355	1.077293883	0.021759621	0.224490002	0.069189999
2020-03-25T10:30:00	0.3041	3.005	154.0	0.809655251	1.066364082	0.021422208	0.221008976	0.068117113
2020-03-25T10:35:00	0.3067	3.096	154.0	0.817833471	1.079868008	0.021839326	0.225312303	0.069443440
2020-03-25T10:40:00	0.3037	3.169	155.0	0.808377287	1.064259357	0.021357423	0.220340598	0.067911112
2020-03-25T10:45:00	0.3055	3.249	150.0	0.814040265	1.073597128	0.021645315	0.223310723	0.068826534
2020-03-25T10:50:00	0.3055	3.328	155.0	0.814031813	1.073583171	0.021644884	0.223306274	0.068825162
2020-03-25T10:55:00	0.3041	3.425	155.0	0.809612945	1.066294383	0.021420062	0.220986832	0.068110288
2020-03-25T11:00:00	0.3055	3.531	151.0	0.814014910	1.073555256	0.021644021	0.223297377	0.068822420
2020-03-25T11:05:00	0.3039	3.640	156.0	0.808965546	1.065227999	0.021387231	0.220648122	0.068005894
2020-03-25T11:10:00	0.3023	3.756	156.0	0.803909530	1.056912819	0.021131772	0.218012601	0.067193601
2020-03-25T11:15:00	0.3035	3.869	152.0	0.808002708	1.063642729	0.021338455	0.220144902	0.067850797
2020-03-25T11:20:00	0.3024	3.991	152.0	0.804523893	1.057921977	0.021162725	0.218331928	0.067292021
2020-03-25T11:25:00	0.3025	4.099	153.0	0.804831038	1.058426623	0.021178208	0.218491667	0.067341254
2020-03-25T11:30:00	0.3015	4.204	158.0	0.801665218	1.053229178	0.021018911	0.216848233	0.066834732
2020-03-25T11:35:00	0.2990	4.311	159.0	0.793751930	1.040277061	0.020623587	0.212769740	0.065577700
2020-03-25T11:40:00	0.3012	4.414	160.0	0.800700544	1.051647229	0.020970501	0.216348793	0.066680799
2020-03-25T11:45:00	0.3011	4.509	160.0	0.800376104	1.051115376	0.020954233	0.216180961	0.066629072
2020-03-25T11:50:00	0.3007	4.601	160.0	0.799103525	1.049030153	0.020890491	0.215523343	0.066426387
2020-03-25T11:55:00	0.2996	4.686	161.0	0.795616607	1.043324016	0.020716374	0.213727010	0.065872740
2020-03-25T12:00:00	0.2992	4.765	161.0	0.794342441	1.041241642	0.020652946	0.213072639	0.065671057
2020-03-25T12:05:00	0.2981	4.829	161.0	0.790851169	1.035543310	0.020479692	0.211285205	0.065120152
2020-03-25T12:10:00	0.2979	4.889	162.0	0.790209090	1.034496522	0.020447915	0.210957366	0.065019109
2020-03-25T12:15:00	0.2997	4.931	157.0	0.795898993	1.043785717	0.020730445	0.213872181	0.065917483
2020-03-25T12:20:00	0.2974	4.968	156.0	0.788607673	1.031887324	0.020368775	0.210140900	0.064767466
2020-03-25T12:25:00	0.2968	5.005	157.0	0.786697001	1.028777260	0.020274570	0.209169005	0.064467919
2020-03-25T12:30:00	0.2993	5.041	162.0	0.794607932	1.041675414	0.020666154	0.213208897	0.065713053
2020-03-25T12:35:00	0.2975	5.060	162.0	0.788899086	1.032361953	0.020383164	0.210289346	0.064813219
2020-03-25T12:40:00	0.2952	5.075	162.0	0.781594333	1.020487496	0.020024143	0.206585388	0.063671623
2020-03-25T12:45:00	0.2963	5.100	162.0	0.785077073	1.026143012	0.020194886	0.208346912	0.064214542
2020-03-25T12:50:00	0.2937	5.123	162.0	0.776811279	1.012738104	0.019790927	0.204179347	0.062930058
2020-03-25T12:55:00	0.2956	5.141	162.0	0.782838690	1.022506923	0.020085058	0.207213839	0.063865318
2020-03-25T13:00:00	0.2942	5.144	162.0	0.778383552	1.015283210	0.019867426	0.204968576	0.063173306
2020-03-25T13:05:00	0.2944	5.138	162.0	0.779010573	1.016298811	0.019897979	0.205283777	0.063270454
2020-03-25T13:10:00	0.2930	5.134	163.0	0.774550931	1.009083046	0.019681229	0.203047607	0.062581244
2020-03-25T13:15:00	0.2950	5.121	162.0	0.780899538	1.019360537	0.019990174	0.206234938	0.063563611
2020-03-25T13:20:00	0.2932	5.107	162.0	0.775170049	1.010083727	0.019711243	0.203357257	0.062676682
2020-03-25T13:25:00	0.2937	5.092	162.0	0.776751538	1.012641441	0.019788024	0.204149391	0.062920825
2020-03-25T13:30:00	0.2938	5.086	162.0	0.777060929	1.013142076	0.019803063	0.204304553	0.062968648
2020-03-25T13:35:00	0.2925	5.077	162.0	0.772917264	1.006444188	0.019602149	0.202231753	0.062329790
2020-03-25T13:40:00	0.2924	5.071	162.0	0.772590446	1.005916565	0.019586349	0.202068753	0.062279552
2020-03-25T13:45:00	0.2923	5.068	162.0	0.772263599	1.005388991	0.019570555	0.201905809	0.062229331
2020-03-25T13:50:00	0.2915	5.041	162.0	0.769707664	1.001266654	0.019447283	0.200634034	0.061837358
2020-03-25T13:55:00	0.2925	5.025	162.0	0.772883091	1.006389014	0.019600496	0.202214706	0.062324536
2020-03-25T14:00:00	0.2941	5.022	157.0	0.777963356	1.014602805	0.019846966	0.204757491	0.063108247
2020-03-25T14:05:00	0.2935	5.018	162.0	0.776047318	1.011502244	0.019753814	0.203796458	0.062812048
2020-03-25T14:10:00	0.2924	5.008	162.0	0.772539182	1.005833812	0.019583871	0.202043191	0.062271674
2020-03-25T14:15:00	0.2917	4.999	162.0	0.770301927	1.002224592	0.019475907	0.200929340	0.061928374
2020-03-25T14:20:00	0.2908	4.985	162.0	0.767744664	0.998104579	0.019352893	0.199660229	0.061537222
2020-03-25T14:25:00	0.2933	4.979	162.0	0.775695160	1.010932732	0.019736719	0.203620090	0.062757689
2020-03-25T14:30:00	0.2924	4.988	161.0	0.772823288	1.006292461	0.019597605	0.202184875	0.062315342
2020-03-25T14:35:00	0.2906	4.991	162.0	0.767081547	0.997037181	0.019321063	0.199331847	0.061436011
2020-03-25T14:40:00	0.2926	4.983	162.0	0.773442688	1.007292644	0.019627564	0.202493957	0.062410604
2020-03-25T14:45:00	0.2909	4.975	162.0	0.768020576	0.998548822	0.019366145	0.199796949	0.061579360
2020-03-25T14:50:00	0.2917	4.965	162.0	0.770560556	1.002641593	0.019488371	0.201057932	0.061968007
2020-03-25T14:55:00	0.2932	4.956	162.0	0.775325893	1.010335672	0.019718802	0.203435242	0.062700717
2020-03-25T15:00:00	0.2920	4.941	161.0	0.771498720	1.004154747	0.019533621	0.201524769	0.062111891
2020-03-25T15:05:00	0.2919	4.926	162.0	0.771171780	1.003627339	0.019517846	0.201362015	0.062061728
2020-03-25T15:10:00	0.2919	4.911	162.0	0.771163232	1.003613553	0.019517433	0.201357761	0.062060417
2020-03-25T15:15:00	0.2932	4.891	162.0	0.775291742	1.010280460	0.019717145	0.203418152	0.062695450
2020-03-25T15:20:00	0.2912	4.875	157.0	0.768916611	0.999991983	0.019409216	0.200241301	0.061716314
2020-03-25T15:25:00	0.2915	4.862	157.0	0.769863733	1.001518204	0.019454798	0.200711566	0.061861254
2020-03-25T15:30:00	0.2944	4.856	161.0	0.779080967	1.016412852	0.019901410	0.205319181	0.063281366
2020-03-25T15:35:00	0.2938	4.829	161.0	0.777165494	1.013311295	0.019808148	0.204357008	0.062984815
2020-03-25T15:40:00	0.2936	4.815	156.0	0.776521098	1.012268616	0.019776826	0.204033866	0.062885219
2020-03-25T15:45:00	0.2933	4.802	161.0	0.775558567	1.010711863	0.019730090	0.203551704	0.062736612
2020-03-25T15:50:00	0.2919	4.780	156.0	0.771094855	1.003503261	0.019514135	0.201323731	0.062049929
2020-03-25T15:55:00	0.2922	4.749	162.0	0.772041432	1.005030437	0.019559823	0.201795092	0.062195207
2020-03-25T16:00:00	0.2957	4.722	161.0	0.783158262	1.023025771	0.020100718	0.207375403	0.063915113
2020-03-25T16:05:00	0.2953	4.705	156.0	0.781975505	1.021105940	0.020042792	0.206777786	0.063730922
2020-03-25T16:10:00	0.2927	4.684	156.0	0.773798732	1.007867725	0.019644796	0.202671738	0.062465398
2020-03-25T16:15:00	0.2966	4.668	156.0	0.785957552	1.027574513	0.020238176	0.208793527	0.064352193
2020-03-25T16:20:00	0.2945	4.645	161.0	0.779378293	1.016894580	0.019915908	0.205468751	0.063327465
2020-03-25T16:25:00	0.2978	4.630	160.0	0.789935433	1.034050489	0.020434379	0.210817724	0.064976070
2020-03-25T16:30:00	0.2958	4.612	160.0	0.783363064	1.023358328	0.020110758	0.207478978	0.063947036
2020-03-25T16:35:00	0.2959	4.599	161.0	0.783767457	1.024015093	0.020130589	0.207683577	0.064010095
2020-03-25T16:40:00	0.2942	4.581	161.0	0.778455794	1.015400203	0.019870945	0.205004878	0.063184494
2020-03-25T16:45:00	0.2962	4.559	160.0	0.784893386	1.025844456	0.020185861	0.208253803	0.064185845
2020-03-25T16:50:00	0.2966	4.543	156.0	0.785932010	1.027532977	0.020236919	0.208780564	0.064348197
2020-03-25T16:55:00	0.2968	4.528	160.0	0.786653254	1.028706091	0.020272416	0.209146781	0.064461069
2020-03-25T17:00:00	0.2974	4.511	161.0	0.788642351	1.031943801	0.020370487	0.210158562	0.064772910
2020-03-25T17:05:00	0.2971	4.493	160.0	0.787461299	1.030020941	0.020312225	0.209557486	0.064587652
2020-03-25T17:10:00	0.2979	4.476	159.0	0.790083675	1.034292100	0.020441711	0.210893363	0.064999383
2020-03-25T17:15:00	0.2995	4.458	160.0	0.795236262	1.042702264	0.020697429	0.213531563	0.065812501
2020-03-25T17:20:00	0.2987	4.440	161.0	0.792791064	1.038708188	0.020575861	0.212277370	0.065425947
2020-03-25T17:25:00	0.3001	4.422	160.0	0.796991361	1.045572415	0.020784927	0.214434259	0.066090721
2020-03-25T17:30:00	0.2996	4.401	160.0	0.795496531	1.043127712	0.020710392	0.213665296	0.065853719
2020-03-25T17:35:00	0.3006	4.386	160.0	0.798745653	1.048444013	0.020872584	0.215338605	0.066369449
2020-03-25T17:40:00	0.3016	4.369	160.0	0.801992017	1.053765278	0.021035325	0.217017568	0.066886922
2020-03-25T17:45:00	0.3014	4.352	160.0	0.801131012	1.052353041	0.020992096	0.216571582	0.066749465
2020-03-25T17:50:00	0.3001	4.334	160.0	0.797108704	1.045764407	0.020790784	0.214494686	0.066109345
2020-03-25T17:55:00	0.3024	4.313	160.0	0.804461904	1.057820137	0.021159600	0.218299696	0.067282086
2020-03-25T18:00:00	0.3014	4.294	160.0	0.801074978	1.052261157	0.020989284	0.216542575	0.066740525
2020-03-25T18:05:00	0.3033	4.275	160.0	0.807159129	1.062254500	0.021295769	0.219704524	0.067715068
2020-03-25T18:10:00	0.3023	4.254	160.0	0.804090267	1.057209664	0.021140876	0.218106516	0.067222546
2020-03-25T18:15:00	0.3013	4.234	160.0	0.801018944	1.052169275	0.020986473	0.216513569	0.066731585
2020-03-25T18:20:00	0.3042	4.213	160.0	0.809940887	1.066834708	0.021436703	0.221158514	0.068163202
2020-03-25T18:25:00	0.3051	4.190	159.0	0.812862856	1.071653296	0.021585286	0.222691412	0.068635656
2020-03-25T18:30:00	0.3041	4.166	159.0	0.809798554	1.066600184	0.021429480	0.221083992	0.068140233
2020-03-25T18:35:00	0.3056	4.140	159.0	0.814609901	1.074538014	0.021674390	0.223610685	0.068918985
2020-03-25T18:40:00	0.3061	4.114	159.0	0.815955192	1.076761235	0.021743140	0.224319966	0.069137592
2020-03-25T18:45:00	0.3065	4.089	159.0	0.817300013	1.078985316	0.021811984	0.225030223	0.069356500
2020-03-25T18:50:00	0.3064	4.063	154.0	0.817071686	1.078607591	0.021800288	0.224909548	0.069319307
2020-03-25T18:55:00	0.3053	4.038	159.0	0.813380986	1.072508543	0.021611691	0.222963830	0.068719618
2020-03-25T19:00:00	0.3078	4.013	159.0	0.821331661	1.085662711	0.022019085	0.227166843	0.070015027
2020-03-25T19:05:00	0.3064	3.989	159.0	0.817015885	1.078515286	0.021797429	0.224880061	0.069310219
2020-03-25T19:10:00	0.3094	3.964	159.0	0.826528540	1.094291741	0.022287619	0.229937252	0.070868894
2020-03-25T19:15:00	0.3080	3.939	159.0	0.821904384	1.086612475	0.022048592	0.227471258	0.070108851
2020-03-25T19:20:00	0.3067	3.914	158.0	0.817903795	1.079984389	0.021842932	0.225349503	0.069454906
2020-03-25T19:25:00	0.3070	3.889	153.0	0.818933500	1.081688997	0.021895766	0.225894583	0.069622904
2020-03-25T19:30:00	0.3071	3.864	153.0	0.819334152	1.082352509	0.021916342	0.226106863	0.069688331
2020-03-25T19:35:00	0.3064	3.840	158.0	0.816904281	1.078330680	0.021791714	0.224821093	0.069292044
2020-03-25T19:40:00	0.3063	3.814	152.0	0.816675931	1.077952998	0.021780021	0.224700467	0.069254866
2020-03-25T19:45:00	0.3078	3.790	153.0	0.821478694	1.085906511	0.022026658	0.227244973	0.070039108
2020-03-25T19:50:00	0.3056	3.765	152.0	0.814330710	1.074076828	0.021660137	0.223463640	0.068873664
2020-03-25T19:55:00	0.3078	3.741	156.0	0.821336786	1.085671209	0.022019349	0.227169567	0.070015867
2020-03-25T20:00:00	0.3071	3.719	152.0	0.819222615	1.082167779	0.021910613	0.226047756	0.069670114
2020-03-25T20:05:00	0.3075	3.695	155.0	0.820566296	1.084393947	0.021979687	0.226760382	0.069889752
2020-03-25T20:10:00	0.3077	3.666	156.0	0.820966778	1.085057770	0.022000298	0.226973016	0.069955288
2020-03-25T20:15:00	0.3078	3.640	155.0	0.821367218	1.085721668	0.022020917	0.227185736	0.070020850
2020-03-25T20:20:00	0.3090	3.613	156.0	0.825222455	1.092120780	0.022219963	0.229239265	0.070653768
2020-03-25T20:25:00	0.3088	3.585	152.0	0.824680630	1.091220618	0.022191930	0.228950048	0.070564628
2020-03-25T20:30:00	0.3092	3.557	152.0	0.825708529	1.092928546	0.022245129	0.229498893	0.070733788
2020-03-25T20:35:00	0.3085	3.529	156.0	0.823596752	1.089420715	0.022135909	0.228372089	0.070386496
2020-03-25T20:40:00	0.3095	3.502	156.0	0.826822205	1.094780080	0.022302846	0.230094349	0.070917313
2020-03-25T20:45:00	0.3082	3.475	156.0	0.822512569	1.087621371	0.022079949	0.227794766	0.070208559
2020-03-25T20:50:00	0.3088	3.450	151.0	0.824483148	1.090892597	0.022181717	0.228844684	0.070532154
2020-03-25T20:55:00	0.3088	3.425	156.0	0.824569248	1.091035605	0.022186169	0.228890618	0.070546311
2020-03-25T21:00:00	0.3086	3.400	150.0	0.824027331	1.090135612	0.022158154	0.228601592	0.070457231
2020-03-25T21:05:00	0.3094	3.375	150.0	0.826310997	1.093930035	0.022276342	0.229820914	0.070833038
2020-03-25T21:10:00	0.3076	3.351	156.0	0.820743795	1.084688144	0.021988821	0.226854611	0.069918794
2020-03-25T21:15:00	0.3070	3.328	156.0	0.818943758	1.081705982	0.021896293	0.225900016	0.069624579
2020-03-25T21:20:00	0.3067	3.306	151.0	0.818086546	1.080286851	0.021852304	0.225446191	0.069484706
2020-03-25T21:25:00	0.3062	3.283	155.0	0.816285267	1.077306965	0.021760026	0.224494179	0.069191286
2020-03-25T21:30:00	0.3040	3.260	156.0	0.809442858	1.066014182	0.021411434	0.220897817	0.068082853
2020-03-25T21:35:00	0.3061	3.237	156.0	0.816143168	1.077072014	0.021752756	0.224419171	0.069168168
2020-03-25T21:40:00	0.3065	3.215	156.0	0.817173345	1.078775760	0.021805495	0.224963272	0.069335865
2020-03-25T21:45:00	0.3057	3.194	156.0	0.814742109	1.074756427	0.021681141	0.223680335	0.068940452
2020-03-25T21:50:00	0.3059	3.171	150.0	0.815457942	1.075939291	0.021717715	0.224057657	0.069056746
2020-03-25T21:55:00	0.3055	3.149	155.0	0.814285139	1.074001558	0.021657811	0.223439643	0.068866268
2020-03-25T22:00:00	0.3050	3.126	155.0	0.812482079	1.071024923	0.021565891	0.222491325	0.068573987
2020-03-25T22:05:00	0.3053	3.104	150.0	0.813516053	1.072731532	0.021618577	0.223034875	0.068741515
2020-03-25T22:10:00	0.3062	3.083	150.0	0.816438123	1.077559724	0.021767849	0.224574882	0.069216160
2020-03-25T22:15:00	0.3043	3.061	150.0	0.810229179	1.067309784	0.021451338	0.221309499	0.068209737
2020-03-25T22:20:00	0.3044	3.038	150.0	0.810633558	1.067976287	0.021471875	0.221521376	0.068275039
2020-03-25T22:25:00	0.3034	3.017	154.0	0.807570297	1.062931055	0.021316569	0.219919108	0.067781205
2020-03-25T22:30:00	0.3017	2.996	150.0	0.802294535	1.054261633	0.021050525	0.217174387	0.066935255
2020-03-25T22:35:00	0.3042	2.975	150.0	0.809955809	1.066859296	0.021437460	0.221166328	0.068165610
2020-03-25T22:40:00	0.3037	2.954	150.0	0.808468855	1.064410114	0.021362062	0.220388452	0.067925861
2020-03-25T22:45:00	0.3046	2.933	149.0	0.811394762	1.069231315	0.021510563	0.221920513	0.068398057
2020-03-25T22:50:00	0.3027	2.912	149.0	0.805177654	1.058996224	0.021195689	0.218672011	0.067396838
2020-03-25T22:55:00	0.3018	2.890	149.0	0.802425844	1.054477104	0.021057125	0.217242473	0.066956240
2020-03-25T23:00:00	0.3017	2.870	149.0	0.802199457	1.054105626	0.021045747	0.217125094	0.066920063
2020-03-25T23:05:00	0.3025	2.849	149.0	0.804814558	1.058399546	0.021177377	0.218483095	0.067338612
2020-03-25T23:10:00	0.3044	2.828	148.0	0.810580483	1.067888800	0.021469179	0.221493561	0.068266467
2020-03-25T23:15:00	0.3038	2.809	153.0	0.808778504	1.064919977	0.021377751	0.220550317	0.067975750
2020-03-25T23:20:00	0.3031	2.791	148.0	0.806660239	1.061433807	0.021270547	0.219444312	0.067634868
2020-03-25T23:25:00	0.3033	2.772	148.0	0.807064994	1.062099627	0.021291009	0.219655412	0.067699931
2020-03-25T23:30:00	0.3038	2.753	149.0	0.808731046	1.064841828	0.021375346	0.220525505	0.067968102
2020-03-25T23:35:00	0.3025	2.734	148.0	0.804719543	1.058243426	0.021172587	0.218433674	0.067323380
2020-03-25T23:40:00	0.3041	2.717	154.0	0.809855280	1.066693651	0.021432358	0.221113691	0.068149387
2020-03-25T23:45:00	0.3006	2.700	148.0	0.798581099	1.048174536	0.020864353	0.215253688	0.066343277
2020-03-25T23:50:00	0.2998	2.682	153.0	0.796140873	1.044181247	0.020742502	0.213996571	0.065955822
2020-03-25T23:55:00	0.3014	2.664	148.0	0.801288122	1.052610687	0.020999980	0.216652925	0.066774536
2020-03-26T00:00:00	0.2994	2.647	148.0	0.795054569	1.042405295	0.020688383	0.213438231	0.065783736
2020-03-26T00:05:00	0.3007	2.632	153.0	0.798939129	1.048760882	0.020882264	0.215438469	0.066400228
2020-03-26T00:10:00	0.3002	2.616	148.0	0.797447890	1.046319441	0.020807719	0.214669403	0.066163195
2020-03-26T00:15:00	0.3010	2.600	148.0	0.800066240	1.050607505	0.020938703	0.216020736	0.066579689
2020-03-26T00:20:00	0.2990	2.582	148.0	0.793514165	1.039888769	0.020611771	0.212647846	0.065540131
2020-03-26T00:25:00	0.3004	2.565	148.0	0.798032674	1.047276605	0.020836934	0.214970812	0.066256092
2020-03-26T00:30:00	0.2996	2.550	152.0	0.795592098	1.043283946	0.020715153	0.213714412	0.065868857
2020-03-26T00:35:00	0.2990	2.537	147.0	0.793783047	1.040327883	0.020625133	0.212785696	0.065582618
2020-03-26T00:40:00	0.2978	2.523	147.0	0.789755820	1.033757773	0.020425498	0.210726097	0.064947830
2020-03-26T00:45:00	0.2987	2.508	148.0	0.792696072	1.038553133	0.020571147	0.212228727	0.065410955
2020-03-26T00:50:00	0.2984	2.493	152.0	0.791835802	1.037149287	0.020528474	0.211788484	0.065275268
2020-03-26T00:55:00	0.2994	2.478	148.0	0.794774450	1.041947513	0.020674440	0.213294383	0.065739400
2020-03-26T01:00:00	0.2981	2.464	148.0	0.790748271	1.035375530	0.020474597	0.211232648	0.065103953
2020-03-26T01:05:00	0.2952	2.451	147.0	0.781640763	1.020562821	0.020026414	0.206608819	0.063678845
2020-03-26T01:10:00	0.2973	2.437	147.0	0.788392779	1.031537371	0.020358168	0.210031469	0.064733739
2020-03-26T01:15:00	0.2972	2.423	146.0	0.787848561	1.030651300	0.020331319	0.209754473	0.064648366
2020-03-26T01:20:00	0.2973	2.408	147.0	0.788255314	1.031313531	0.020351385	0.209961483	0.064712168
2020-03-26T01:25:00	0.2975	2.397	147.0	0.788978953	1.032492048	0.020387109	0.210330041	0.064825761
2020-03-26T01:30:00	0.2986	2.383	152.0	0.792236463	1.037803030	0.020548342	0.211993461	0.065338443
2020-03-26T01:35:00	0.2975	2.366	146.0	0.788841509	1.032268170	0.020380321	0.210260012	0.064804178
2020-03-26T01:40:00	0.2997	2.350	146.0	0.795897130	1.043782670	0.020730352	0.213871223	0.065917188
2020-03-26T01:45:00	0.2978	2.336	147.0	0.789971606	1.034109443	0.020436168	0.210836179	0.064981758
2020-03-26T01:50:00	0.2989	2.321	147.0	0.793228268	1.039421940	0.020597569	0.212501327	0.065494973
2020-03-26T01:55:00	0.2988	2.307	146.0	0.793001335	1.039051443	0.020586300	0.212385065	0.065459140
2020-03-26T02:00:00	0.2988	2.291	147.0	0.793090977	1.039197789	0.020590751	0.212430986	0.065473293
2020-03-26T02:05:00	0.3013	2.276	147.0	0.800770682	1.051762219	0.020974019	0.216385084	0.066691984
2020-03-26T02:10:00	0.2998	2.263	146.0	0.796118230	1.044144218	0.020741373	0.213984925	0.065952232
2020-03-26T02:15:00	0.3005	2.248	146.0	0.798421370	1.047912986	0.020856366	0.215171280	0.066317878
2020-03-26T02:20:00	0.2993	2.234	146.0	0.794715492	1.041851170	0.020671506	0.213264114	0.065730071
2020-03-26T02:25:00	0.3004	2.218	147.0	0.797968108	1.047170910	0.020833708	0.214937522	0.066245832
2020-03-26T02:30:00	0.2996	2.205	146.0	0.795527491	1.043178325	0.020711934	0.213681207	0.065858623
2020-03-26T02:35:00	0.2993	2.193	146.0	0.794667859	1.041773335	0.020669135	0.213239660	0.065722534
2020-03-26T02:40:00	0.2982	2.179	146.0	0.790958333	1.035718056	0.020484998	0.211339948	0.065137025
2020-03-26T02:45:00	0.2986	2.166	146.0	0.792314790	1.037930849	0.020552228	0.212033545	0.065350798
2020-03-26T02:50:00	0.2996	2.153	146.0	0.795569451	1.043246923	0.020714025	0.213702773	0.065865270
2020-03-26T02:55:00	0.2989	2.140	146.0	0.793443858	1.039773961	0.020608278	0.212611810	0.065529025
2020-03-26T03:00:00	0.2996	2.126	146.0	0.795432245	1.043022621	0.020707190	0.213632260	0.065843537
2020-03-26T03:05:00	0.2994	2.111	145.0	0.794889030	1.042134756	0.020680142	0.213353217	0.065757533
2020-03-26T03:10:00	0.2967	2.098	146.0	0.786425750	1.028336001	0.020261216	0.209031227	0.064425454
2020-03-26T03:15:00	0.2977	2.084	146.0	0.789368573	1.033126776	0.020406357	0.210528623	0.064886966
2020-03-26T03:20:00	0.2987	2.070	146.0	0.792625750	1.038438352	0.020567657	0.212192721	0.065399858
2020-03-26T03:25:00	0.2975	2.056	145.0	0.788914234	1.032386627	0.020383912	0.210297064	0.064815598
2020-03-26T03:30:00	0.2966	2.041	145.0	0.786150672	1.027888584	0.020247677	0.208891554	0.064382406
2020-03-26T03:35:00	0.2981	2.028	151.0	0.790677913	1.035260813	0.020471115	0.211196715	0.065092879
2020-03-26T03:40:00	0.2986	2.014	145.0	0.792351119	1.037990137	0.020554030	0.212052138	0.065356528
2020-03-26T03:45:00	0.2990	2.001	145.0	0.793707081	1.040203815	0.020621358	0.212746745	0.065570613
2020-03-26T03:50:00	0.2980	1.987	145.0	0.790313437	1.034666615	0.020453077	0.211010626	0.065035524
2020-03-26T03:55:00	0.2985	1.973	145.0	0.791986803	1.037395653	0.020535961	0.211865723	0.065299073
2020-03-26T04:00:00	0.2996	1.960	145.0	0.795558128	1.043228411	0.020713460	0.213696953	0.065863476
2020-03-26T04:05:00	0.2987	1.947	145.0	0.792841373	1.038790312	0.020578359	0.212303134	0.065433888
2020-03-26T04:10:00	0.2998	1.933	144.0	0.796137541	1.044175799	0.020742336	0.213994858	0.065955293
2020-03-26T04:15:00	0.3006	1.918	144.0	0.798798713	1.048530910	0.020875239	0.215365990	0.066377890
2020-03-26T04:20:00	0.3012	1.905	145.0	0.800510271	1.051335304	0.020960960	0.216250357	0.066650460
2020-03-26T04:25:00	0.3005	1.890	145.0	0.798429355	1.047926061	0.020856765	0.215175399	0.066319148
2020-03-26T04:30:00	0.2993	1.877	145.0	0.794449005	1.041415744	0.020658247	0.213127325	0.065687912
2020-03-26T04:35:00	0.3020	1.863	145.0	0.803115225	1.055608589	0.021091791	0.217600121	0.067066471
2020-03-26T04:40:00	0.3000	1.852	145.0	0.796926598	1.045466458	0.020781695	0.214400913	0.066080444
2020-03-26T04:45:00	0.3005	1.844	145.0	0.798322866	1.047751701	0.020851440	0.215120467	0.066302217
2020-03-26T04:50:00	0.3008	1.833	144.0	0.799402585	1.049520056	0.020905461	0.215677788	0.066473989
2020-03-26T04:55:00	0.3009	1.822	145.0	0.799533994	1.049735347	0.020912041	0.215745670	0.066494911
2020-03-26T05:00:00	0.3011	1.810	145.0	0.800297406	1.050986380	0.020950288	0.216140262	0.066616528
2020-03-26T05:05:00	0.3020	1.798	144.0	0.803271431	1.055865031	0.021099651	0.217681205	0.067091462
2020-03-26T05:10:00	0.3035	1.787	144.0	0.807820263	1.063342435	0.021329219	0.220049618	0.067821429
2020-03-26T05:15:00	0.3035	1.777	145.0	0.807951383	1.063558247	0.021335856	0.220118094	0.067842534
2020-03-26T05:20:00	0.3033	1.765	144.0	0.807136373	1.062217060	0.021294618	0.219692651	0.067711409
2020-03-26T05:25:00	0.3040	1.755	144.0	0.809474705	1.066066645	0.021413049	0.220914483	0.068087989
2020-03-26T05:30:00	0.3052	1.748	145.0	0.813071529	1.071997711	0.021595918	0.222801104	0.068669464
2020-03-26T05:35:00	0.3038	1.739	144.0	0.808791110	1.064940735	0.021378390	0.220556908	0.067977781
2020-03-26T05:40:00	0.3042	1.731	145.0	0.810183059	1.067233779	0.021448996	0.221285342	0.068202291
2020-03-26T05:45:00	0.3065	1.724	144.0	0.817241222	1.078888053	0.021808972	0.224999147	0.069346922
2020-03-26T05:50:00	0.3041	1.717	144.0	0.809814797	1.066626948	0.021430304	0.221092496	0.068142854
2020-03-26T05:55:00	0.3041	1.711	144.0	0.809630653	1.066323556	0.021420960	0.220996100	0.068113144
2020-03-26T06:00:00	0.3056	1.706	144.0	0.814486781	1.074334628	0.021668104	0.223545834	0.068898997
2020-03-26T06:05:00	0.3031	1.702	144.0	0.806739593	1.061564332	0.021274558	0.219485690	0.067647621
2020-03-26T06:10:00	0.3048	1.697	144.0	0.811914410	1.070088380	0.021536996	0.222193215	0.068482107
2020-03-26T06:15:00	0.3061	1.693	144.0	0.816138357	1.077064059	0.021752510	0.224416631	0.069167385
2020-03-26T06:20:00	0.3061	1.692	144.0	0.815954515	1.076760116	0.021743105	0.224319609	0.069137482
2020-03-26T06:25:00	0.3070	1.692	144.0	0.818916441	1.081660748	0.021894890	0.225885546	0.069620119
2020-03-26T06:30:00	0.3065	1.692	144.0	0.817160090	1.078753833	0.021804816	0.224956266	0.069333706
2020-03-26T06:35:00	0.3065	1.694	144.0	0.817290891	1.078970225	0.021811517	0.225025401	0.069355014
2020-03-26T06:40:00	0.3065	1.698	144.0	0.817421689	1.079186626	0.021818219	0.225094545	0.069376325
2020-03-26T06:45:00	0.3056	1.704	144.0	0.814405591	1.074200514	0.021663959	0.223503073	0.068885818
2020-03-26T06:50:00	0.3076	1.711	145.0	0.820827486	1.084826869	0.021993128	0.226899047	0.069932490
2020-03-26T06:55:00	0.3079	1.721	148.0	0.821586678	1.086085576	0.022032221	0.227302363	0.070056796
2020-03-26T07:00:00	0.3079	1.733	145.0	0.821717330	1.086302244	0.022038952	0.227371810	0.070078200
2020-03-26T07:05:00	0.3054	1.748	144.0	0.813984705	1.073505374	0.021642480	0.223281478	0.068817520
2020-03-26T07:10:00	0.3064	1.767	144.0	0.816948146	1.078403236	0.021793960	0.224844269	0.069299187
2020-03-26T07:15:00	0.3059	1.792	144.0	0.815505638	1.076018122	0.021720153	0.224082810	0.069064498
2020-03-26T07:20:00	0.3049	1.826	145.0	0.812173049	1.070515047	0.021550158	0.222329012	0.068523961
2020-03-26T07:25:00	0.3040	1.865	145.0	0.809468064	1.066055705	0.021412713	0.220911008	0.068086918
2020-03-26T07:30:00	0.3038	1.905	145.0	0.808653376	1.064713933	0.021371410	0.220484900	0.067955588
2020-03-26T07:35:00	0.3024	1.945	146.0	0.804368024	1.057665913	0.021154869	0.218250887	0.067267043
2020-03-26T07:40:00	0.3030	1.982	146.0	0.806392582	1.060993594	0.021257022	0.219304776	0.067591862
2020-03-26T07:45:00	0.3040	2.028	145.0	0.809361882	1.065880791	0.021407327	0.220855446	0.068069793
2020-03-26T07:50:00	0.3026	2.088	146.0	0.805077322	1.058831335	0.021190628	0.218619800	0.067380746
2020-03-26T07:55:00	0.3034	2.154	146.0	0.807416909	1.062678645	0.021308808	0.219839043	0.067756528
2020-03-26T08:00:00	0.3029	2.220	146.0	0.805970817	1.060300052	0.021235719	0.219084998	0.067524124
2020-03-26T08:05:00	0.3016	2.282	152.0	0.801998313	1.053775607	0.021035641	0.217020832	0.066887928
2020-03-26T08:10:00	0.3033	2.350	147.0	0.807179528	1.062288061	0.021296801	0.219715168	0.067718348
2020-03-26T08:15:00	0.3046	2.415	147.0	0.811408679	1.069254265	0.021511271	0.221927814	0.068400308
2020-03-26T08:20:00	0.3019	2.476	147.0	0.802708049	1.054940237	0.021071312	0.217388841	0.067001352
2020-03-26T08:25:00	0.3043	2.541	153.0	0.810410296	1.067608286	0.021460535	0.221404383	0.068238981
2020-03-26T08:30:00	0.3038	2.592	148.0	0.808650055	1.064708465	0.021371242	0.220483164	0.067955052
2020-03-26T08:35:00	0.3033	2.639	148.0	0.807204428	1.062329029	0.021298060	0.219728160	0.067722353
2020-03-26T08:40:00	0.3032	2.681	148.0	0.807020158	1.062025865	0.021288742	0.219632023	0.067692722
2020-03-26T08:45:00	0.3048	2.714	148.0	0.811879586	1.070030936	0.021535224	0.222174934	0.068476472
2020-03-26T08:50:00	0.3032	2.750	148.0	0.806967033	1.061938469	0.021286056	0.219604311	0.067684181
2020-03-26T08:55:00	0.3045	2.794	152.0	0.810881325	1.068384733	0.021484464	0.221651250	0.068315068
2020-03-26T09:00:00	0.3026	2.846	152.0	0.805020846	1.058738525	0.021187779	0.218590414	0.067371689
2020-03-26T09:05:00	0.3028	2.908	149.0	0.805783164	1.059991532	0.021226245	0.218987252	0.067493998
2020-03-26T09:10:00	0.3019	2.968	148.0	0.802757907	1.055022067	0.021073819	0.217414706	0.067009324
2020-03-26T09:15:00	0.3013	3.028	149.0	0.800994147	1.052128615	0.020985229	0.216500734	0.066727629
2020-03-26T09:20:00	0.3018	3.088	150.0	0.802388931	1.054416529	0.021055269	0.217223332	0.066950340
2020-03-26T09:25:00	0.2996	3.156	150.0	0.795566441	1.043242002	0.020713875	0.213701226	0.065864793
2020-03-26T09:30:00	0.3005	3.222	150.0	0.798228012	1.047596399	0.020846698	0.215071544	0.066287138
2020-03-26T09:35:00	0.3005	3.288	155.0	0.798359461	1.047811618	0.020853270	0.215139344	0.066308035
2020-03-26T09:40:00	0.3016	3.342	155.0	0.801966725	1.053723785	0.021034054	0.217004461	0.066882882
2020-03-26T09:45:00	0.3026	3.367	155.0	0.804939454	1.058604775	0.021183675	0.218548068	0.067358637
2020-03-26T09:50:00	0.3026	3.432	150.0	0.805070673	1.058820410	0.021190292	0.218616341	0.067379679
2020-03-26T09:55:00	0.3008	3.514	151.0	0.799201293	1.049190302	0.020895384	0.215573827	0.066441947
2020-03-26T10:00:00	0.2996	3.605	157.0	0.795538133	1.043195723	0.020712464	0.213686677	0.065860309
2020-03-26T10:05:00	0.2992	3.687	152.0	0.794177159	1.040971627	0.020644726	0.212987835	0.065644919
2020-03-26T10:10:00	0.2975	3.765	158.0	0.789014632	1.032550167	0.020388871	0.210348222	0.064831365
2020-03-26T10:15:00	0.2997	3.856	156.0	0.795885127	1.043763044	0.020729754	0.213865051	0.065915286
2020-03-26T10:20:00	0.2986	3.937	158.0	0.792308442	1.037920490	0.020551913	0.212030296	0.065349796
2020-03-26T10:25:00	0.3000	4.011	153.0	0.796643608	1.045003507	0.020767574	0.214255236	0.066035545
2020-03-26T10:30:00	0.2990	4.056	153.0	0.793700735	1.040193452	0.020621042	0.212743492	0.065569610
2020-03-26T10:35:00	0.2983	4.103	153.0	0.791389075	1.036420549	0.020506334	0.211560066	0.065204867
2020-03-26T10:40:00	0.2987	4.176	158.0	0.792560411	1.038331709	0.020564414	0.212159270	0.065389547
2020-03-26T10:45:00	0.2980	4.239	159.0	0.790564857	1.035076487	0.020465519	0.211138983	0.065075085
2020-03-26T10:50:00	0.2953	4.366	160.0	0.781906459	1.020993904	0.020039413	0.206742927	0.063720178
2020-03-26T10:55:00	0.2973	4.491	160.0	0.788155864	1.031151605	0.020346478	0.209910860	0.064696566
2020-03-26T11:00:00	0.2972	4.612	161.0	0.788060434	1.030996230	0.020341770	0.209862289	0.064681596
2020-03-26T11:05:00	0.2970	4.698	155.0	0.787330946	1.029808791	0.020305801	0.209491202	0.064567223
2020-03-26T11:10:00	0.2956	4.784	160.0	0.782794036	1.022434432	0.020082870	0.207191269	0.063858361
2020-03-26T11:15:00	0.2974	4.885	161.0	0.788725059	1.032078504	0.020374571	0.210200690	0.064785894
2020-03-26T11:20:00	0.2978	4.940	157.0	0.789897215	1.033988201	0.020432489	0.210798225	0.064970060
2020-03-26T11:25:00	0.2970	5.031	162.0	0.787266199	1.029703420	0.020302610	0.209458282	0.064557077
2020-03-26T11:30:00	0.2959	5.097	162.0	0.783681406	1.023875327	0.020126368	0.207640031	0.063996674
2020-03-26T11:35:00	0.2948	5.174	162.0	0.780410872	1.018568178	0.019966301	0.205988649	0.063487702
2020-03-26T11:40:00	0.2958	5.236	163.0	0.783490317	1.023564982	0.020116997	0.207543349	0.063966876
2020-03-26T11:45:00	0.2948	5.262	163.0	0.780219619	1.018258124	0.019956962	0.205892301	0.063458007
2020-03-26T11:50:00	0.2957	5.274	163.0	0.783299219	1.023254654	0.020107628	0.207446687	0.063937084
2020-03-26T11:55:00	0.2917	5.311	163.0	0.770486432	1.002522073	0.019484798	0.201021072	0.061956647
2020-03-26T12:00:00	0.2913	5.338	163.0	0.769116446	1.000313937	0.019418829	0.200340474	0.061746880
2020-03-26T12:05:00	0.2930	5.359	163.0	0.774750794	1.009406047	0.019690915	0.203147540	0.062612045
2020-03-26T12:10:00	0.2905	5.412	163.0	0.766693782	0.996413188	0.019302463	0.199139956	0.061376868
2020-03-26T12:15:00	0.2911	5.455	159.0	0.768510087	0.999337144	0.019389669	0.200039636	0.061654159
2020-03-26T12:20:00	0.2918	5.473	163.0	0.770643984	1.002776122	0.019492393	0.201099423	0.061980795
2020-03-26T12:25:00	0.2916	5.483	163.0	0.770229638	1.002108047	0.019472424	0.200893405	0.061917298
2020-03-26T12:30:00	0.2914	5.498	159.0	0.769496711	1.000926678	0.019437128	0.200529262	0.061805066
2020-03-26T12:35:00	0.2922	5.518	164.0	0.771948407	1.004880319	0.019555331	0.201748742	0.062180922
2020-03-26T12:40:00	0.2914	5.536	159.0	0.769623457	1.001130940	0.019443229	0.200592208	0.061824467
2020-03-26T12:45:00	0.2934	5.553	163.0	0.775893125	1.011252868	0.019746328	0.203719224	0.062788243
2020-03-26T12:50:00	0.2928	5.578	164.0	0.773888792	1.008013208	0.019649156	0.202716721	0.062479262
2020-03-26T12:55:00	0.2918	5.615	164.0	0.770928232	1.003234521	0.019506098	0.201240821	0.062024375
2020-03-26T13:00:00	0.2913	5.661	165.0	0.769239850	1.000512770	0.019424766	0.200401729	0.061765759
2020-03-26T13:05:00	0.2908	5.711	164.0	0.767550712	0.997792340	0.019343580	0.199564152	0.061507610
2020-03-26T13:10:00	0.2927	5.743	160.0	0.773505617	1.007394279	0.019630609	0.202525373	0.062420287
2020-03-26T13:15:00	0.2920	5.755	164.0	0.771500019	1.004156841	0.019533684	0.201525415	0.062112090
2020-03-26T13:20:00	0.2918	5.775	164.0	0.770767338	1.002975042	0.019498340	0.201160778	0.061999705
2020-03-26T13:25:00	0.2884	5.793	160.0	0.759828607	0.985387851	0.018974759	0.195759092	0.060334853
2020-03-26T13:30:00	0.2914	5.830	166.0	0.769620102	1.001125533	0.019443067	0.200590542	0.061823953
2020-03-26T13:35:00	0.2895	5.863	166.0	0.763466959	0.991225760	0.019148057	0.197546978	0.060885897
2020-03-26T13:40:00	0.2906	5.893	165.0	0.766879004	0.996711232	0.019311347	0.199231603	0.061405115
2020-03-26T13:45:00	0.2905	5.920	165.0	0.766783036	0.996556805	0.019306744	0.199184116	0.061390479
2020-03-26T13:50:00	0.2920	5.932	165.0	0.771465833	1.004101690	0.019532034	0.201508394	0.062106844
2020-03-26T13:55:00	0.2892	5.956	165.0	0.762444488	0.989583971	0.019099271	0.197043653	0.060730768
2020-03-26T14:00:00	0.2893	5.970	160.0	0.762667547	0.989942059	0.019109908	0.197153398	0.060764592
2020-03-26T14:05:00	0.2903	5.975	165.0	0.766080316	0.995426270	0.019273057	0.198836578	0.061283364
2020-03-26T14:10:00	0.2896	5.974	165.0	0.763751748	0.991683214	0.019161658	0.197687292	0.060929143
2020-03-26T14:15:00	0.2899	5.976	165.0	0.764612707	0.993066600	0.019202806	0.198111808	0.061059983
2020-03-26T14:20:00	0.2888	5.974	166.0	0.761325633	0.987788479	0.019045961	0.196493673	0.060561258
2020-03-26T14:25:00	0.2894	5.979	165.0	0.763144526	0.990707926	0.019132665	0.197388181	0.060836954
2020-03-26T14:30:00	0.2884	5.968	165.0	0.759856170	0.985432034	0.018976069	0.195772604	0.060339018
2020-03-26T14:35:00	0.2894	5.966	165.0	0.763271486	0.990911815	0.019138725	0.197450700	0.060856223
2020-03-26T14:40:00	0.2892	5.969	165.0	0.762537205	0.989732809	0.019103692	0.197089266	0.060744826
2020-03-26T14:45:00	0.2881	5.973	165.0	0.758928889	0.983946023	0.018932035	0.195318318	0.060199003
2020-03-26T14:50:00	0.2898	5.981	165.0	0.764259481	0.992498958	0.019185918	0.197937582	0.061006285
2020-03-26T14:55:00	0.2885	5.990	161.0	0.760333505	0.986197282	0.018998757	0.196006677	0.060411161
2020-03-26T15:00:00	0.2875	5.991	165.0	0.757042691	0.980925655	0.018842636	0.194395998	0.059914734
2020-03-26T15:05:00	0.2889	5.998	165.0	0.761418378	0.987937269	0.019050377	0.196539230	0.060575300
2020-03-26T15:10:00	0.2892	5.996	165.0	0.762599015	0.989832036	0.019106639	0.197119677	0.060754199
2020-03-26T15:15:00	0.2886	5.991	165.0	0.760587610	0.986604739	0.019010841	0.196131345	0.060449585
2020-03-26T15:20:00	0.2893	5.991	165.0	0.762725994	0.990035893	0.019112696	0.197182159	0.060773456
2020-03-26T15:25:00	0.2902	5.982	161.0	0.765819864	0.995007367	0.019260580	0.198707851	0.061243689
2020-03-26T15:30:00	0.2886	5.979	165.0	0.760618531	0.986654324	0.019012312	0.196146518	0.060454262
2020-03-26T15:35:00	0.2911	5.973	160.0	0.768496662	0.999315520	0.019389023	0.200032978	0.061652107
2020-03-26T15:40:00	0.2912	5.965	165.0	0.768719363	0.999674232	0.019399730	0.200143439	0.061686152
2020-03-26T15:45:00	0.2910	5.957	160.0	0.768304805	0.999006527	0.019379802	0.199937844	0.061622785
2020-03-26T15:50:00	0.2916	5.942	165.0	0.770120336	1.001931837	0.019467158	0.200839077	0.061900554
2020-03-26T15:55:00	0.2932	5.938	160.0	0.775117091	1.009998117	0.019708674	0.203330760	0.062668515
2020-03-26T16:00:00	0.2930	5.923	165.0	0.774703234	1.009329182	0.019688610	0.203123757	0.062604715
2020-03-26T16:05:00	0.2911	5.911	165.0	0.768603485	0.999487578	0.019394159	0.200085959	0.061668436
2020-03-26T16:10:00	0.2908	5.894	165.0	0.767596665	0.997866316	0.019345786	0.199586913	0.061514625
2020-03-26T16:15:00	0.2931	5.877	165.0	0.774869150	1.009597340	0.019696652	0.203206731	0.062630288
2020-03-26T16:20:00	0.2932	5.868	160.0	0.775136509	1.010029507	0.019709616	0.203340476	0.062671509
2020-03-26T16:25:00	0.2931	5.863	165.0	0.774767692	1.009433357	0.019691734	0.203155990	0.062614649
2020-03-26T16:30:00	0.2913	5.852	160.0	0.769305230	1.000618119	0.019427912	0.200434187	0.061775763
2020-03-26T16:35:00	0.2938	5.841	165.0	0.777210286	1.013383785	0.019810326	0.204379480	0.062991741
2020-03-26T16:40:00	0.2942	5.832	165.0	0.778430993	1.015360039	0.019869737	0.204992415	0.063180653
2020-03-26T16:45:00	0.2922	5.818	165.0	0.772018933	1.004994129	0.019558737	0.201783881	0.062191752
2020-03-26T16:50:00	0.2916	5.811	165.0	0.770057639	1.001830767	0.019464137	0.200807918	0.061890950
2020-03-26T16:55:00	0.2892	5.799	160.0	0.762354950	0.989440243	0.019095001	0.196999610	0.060717193
2020-03-26T17:00:00	0.2913	5.788	165.0	0.769318977	1.000640271	0.019428574	0.200441012	0.061777866
2020-03-26T17:05:00	0.2920	5.773	165.0	0.771497494	1.004152769	0.019533562	0.201524158	0.062111703
2020-03-26T17:10:00	0.2931	5.757	165.0	0.774947331	1.009723708	0.019700443	0.203245836	0.062642341
2020-03-26T17:15:00	0.2934	5.744	165.0	0.775850766	1.011184366	0.019744272	0.203698011	0.062781705
2020-03-26T17:20:00	0.2928	5.731	165.0	0.773891459	1.008017516	0.019649285	0.202718053	0.062479673
2020-03-26T17:25:00	0.2920	5.718	165.0	0.771294395	1.003825126	0.019523761	0.201423045	0.062080539
2020-03-26T17:30:00	0.2941	5.701	165.0	0.778241980	1.015053951	0.019860532	0.204897444	0.063151382
2020-03-26T17:35:00	0.2936	5.682	165.0	0.776601874	1.012399297	0.019780751	0.204074357	0.062897699
2020-03-26T17:40:00	0.2924	5.661	165.0	0.772733779	1.006147954	0.019593277	0.202140231	0.062301583
2020-03-26T17:45:00	0.2943	5.638	160.0	0.778725527	1.015837072	0.019884086	0.205140453	0.063226280
2020-03-26T17:50:00	0.2946	5.616	165.0	0.779628062	1.017299317	0.019928091	0.205594444	0.063366204
2020-03-26T17:55:00	0.2938	5.592	164.0	0.777034931	1.013100005	0.019801799	0.204291513	0.062964628
2020-03-26T18:00:00	0.2953	5.571	160.0	0.781750021	1.020740082	0.020031759	0.206663961	0.063695840
2020-03-26T18:05:00	0.2955	5.549	164.0	0.782651838	1.022203598	0.020075904	0.207119405	0.063836212
2020-03-26T18:10:00	0.2951	5.525	164.0	0.781331206	1.020060652	0.020011275	0.206452631	0.063630706
2020-03-26T18:15:00	0.2957	5.502	164.0	0.783185440	1.023069901	0.020102050	0.207389146	0.063919349
2020-03-26T18:20:00	0.2956	5.476	164.0	0.782817406	1.022472370	0.020084015	0.207203081	0.063862002
2020-03-26T18:25:00	0.2967	5.450	159.0	0.786256962	1.028061458	0.020252908	0.208945518	0.064399038
2020-03-26T18:30:00	0.2984	5.425	163.0	0.791594079	1.036754947	0.020516493	0.211664871	0.065237169
2020-03-26T18:35:00	0.2968	5.399	163.0	0.786790059	1.028928659	0.020279153	0.209216285	0.064482491
2020-03-26T18:40:00	0.2980	5.374	163.0	0.790542826	1.035040570	0.020464428	0.211127734	0.065071618
2020-03-26T18:45:00	0.2984	5.351	163.0	0.791759259	1.037024410	0.020524680	0.211749337	0.065263202
2020-03-26T18:50:00	0.2990	5.330	163.0	0.793608419	1.040042689	0.020616455	0.212696163	0.065555023
2020-03-26T18:55:00	0.2995	5.308	163.0	0.795140292	1.042545401	0.020692651	0.213482262	0.065797307
2020-03-26T19:00:00	0.2968	5.287	163.0	0.786537205	1.028517303	0.020266702	0.209087833	0.064442901
2020-03-26T19:05:00	0.2978	5.261	163.0	0.789973401	1.034112368	0.020436257	0.210837095	0.064982040
2020-03-26T19:10:00	0.3007	5.236	163.0	0.799100124	1.049024582	0.020890321	0.215521587	0.066425846
2020-03-26T19:15:00	0.2984	5.208	163.0	0.791772925	1.037046705	0.020525357	0.211756326	0.065265356
2020-03-26T19:20:00	0.3002	5.179	163.0	0.797418558	1.046271437	0.020806254	0.214654291	0.066158537
2020-03-26T19:25:00	0.3014	5.149	162.0	0.801160889	1.052402034	0.020993595	0.216587049	0.066754232
2020-03-26T19:30:00	0.2994	5.120	162.0	0.794787066	1.041968128	0.020675068	0.213300861	0.065741397
2020-03-26T19:35:00	0.2999	5.093	157.0	0.796634760	1.044989034	0.020767133	0.214250682	0.066034141
2020-03-26T19:40:00	0.3000	5.064	162.0	0.796900593	1.045423912	0.020780397	0.214387524	0.066076317
2020-03-26T19:45:00	0.3005	5.038	161.0	0.798431145	1.047928992	0.020856854	0.215176323	0.066319432
2020-03-26T19:50:00	0.3001	5.012	162.0	0.797115975	1.045776305	0.020791147	0.214498430	0.066110499
2020-03-26T19:55:00	0.2993	4.987	162.0	0.794534742	1.041555827	0.020662512	0.213171329	0.065701474
2020-03-26T20:00:00	0.3003	4.963	162.0	0.797647556	1.046646215	0.020817692	0.214772289	0.066194905
2020-03-26T20:05:00	0.3002	4.940	156.0	0.797280916	1.046046196	0.020799381	0.214583384	0.066136683
2020-03-26T20:10:00	0.3008	4.918	161.0	0.799443465	1.049587029	0.020907508	0.215698904	0.066480497
2020-03-26T20:15:00	0.3011	4.897	161.0	0.800341104	1.051058005	0.020952479	0.216162860	0.066623493
2020-03-26T20:20:00	0.3012	4.876	161.0	0.800606679	1.051493347	0.020965794	0.216300230	0.066665831
2020-03-26T20:25:00	0.3006	4.854	161.0	0.798660083	1.048303879	0.020868304	0.215294445	0.066355839
2020-03-26T20:30:00	0.3005	4.832	161.0	0.798293540	1.047703685	0.020849974	0.215105341	0.066297555
2020-03-26T20:35:00	0.3016	4.809	161.0	0.801719168	1.053317674	0.021021620	0.216876183	0.066843346
2020-03-26T20:40:00	0.3014	4.786	161.0	0.801352918	1.052716952	0.021003233	0.216686478	0.066784877
2020-03-26T20:45:00	0.3002	4.765	161.0	0.797509922	1.046420959	0.020810817	0.214701365	0.066173046
2020-03-26T20:50:00	0.3001	4.742	161.0	0.797143269	1.045820963	0.020792509	0.214512487	0.066114832
2020-03-26T20:55:00	0.3005	4.717	161.0	0.798357599	1.047808569	0.020853177	0.215138383	0.066307739
2020-03-26T21:00:00	0.3011	4.694	161.0	0.800203567	1.050832575	0.020945585	0.216091737	0.066601572
2020-03-26T21:05:00	0.2989	4.668	156.0	0.793195066	1.039367731	0.020595920	0.212484315	0.065489730
2020-03-26T21:10:00	0.3009	4.642	156.0	0.799786775	1.050149532	0.020924701	0.215876284	0.066535167
2020-03-26T21:15:00	0.2988	4.616	156.0	0.793094096	1.039202882	0.020590906	0.212432584	0.065473786
2020-03-26T21:20:00	0.3006	4.590	155.0	0.798737777	1.048431114	0.020872190	0.215334540	0.066368196
2020-03-26T21:25:00	0.3003	4.564	161.0	0.797738915	1.046795746	0.020822256	0.214819374	0.066209417
2020-03-26T21:30:00	0.2997	4.538	161.0	0.795790857	1.043608905	0.020725056	0.213816583	0.065900348
2020-03-26T21:35:00	0.3013	4.512	156.0	0.800798736	1.051808215	0.020975426	0.216399601	0.066696459
2020-03-26T21:40:00	0.3011	4.487	160.0	0.800432398	1.051207652	0.020957055	0.216210077	0.066638046
2020-03-26T21:45:00	0.2998	4.461	161.0	0.796272179	1.044395986	0.020749049	0.214064114	0.065976639
2020-03-26T21:50:00	0.2988	4.436	160.0	0.793057272	1.039142762	0.020589078	0.212413719	0.065467971
2020-03-26T21:55:00	0.2985	4.411	161.0	0.792056922	1.037510062	0.020539438	0.211901595	0.065310129
2020-03-26T22:00:00	0.2989	4.385	160.0	0.793272871	1.039494766	0.020599785	0.212524182	0.065502017
2020-03-26T22:05:00	0.2992	4.359	160.0	0.794398824	1.041333758	0.020655751	0.213101573	0.065679974
2020-03-26T22:10:00	0.2980	4.333	160.0	0.790459117	1.034904100	0.020460286	0.211084994	0.065058445
2020-03-26T22:15:00	0.3004	4.308	160.0	0.797914643	1.047083389	0.020831036	0.214909958	0.066237336
2020-03-26T22:20:00	0.3000	4.283	159.0	0.796826014	1.045301901	0.020776675	0.214349128	0.066064483
2020-03-26T22:25:00	0.2988	4.259	159.0	0.792888814	1.038867754	0.020580714	0.212327431	0.065441376
2020-03-26T22:30:00	0.2980	4.235	159.0	0.790531811	1.035022612	0.020463883	0.211122110	0.065069885
2020-03-26T22:35:00	0.2986	4.211	159.0	0.792291909	1.037893510	0.020551093	0.212021835	0.065347189
2020-03-26T22:40:00	0.2985	4.185	159.0	0.792151750	1.037664796	0.020544141	0.211950113	0.065325083
2020-03-26T22:45:00	0.2995	4.159	159.0	0.795176917	1.042605264	0.020694474	0.213501076	0.065803105
2020-03-26T22:50:00	0.2991	4.136	159.0	0.794087507	1.040825177	0.020640268	0.212941844	0.065630744
2020-03-26T22:55:00	0.2987	4.113	160.0	0.792681190	1.038528842	0.020570408	0.212221107	0.065408606
2020-03-26T23:00:00	0.3007	4.090	159.0	0.798868206	1.048644722	0.020878715	0.215401858	0.066388945
2020-03-26T23:05:00	0.3001	4.065	154.0	0.797147424	1.045827762	0.020792717	0.214514626	0.066115491
2020-03-26T23:10:00	0.2989	4.041	154.0	0.793210556	1.039393020	0.020596690	0.212492251	0.065492176
2020-03-26T23:15:00	0.2977	4.019	159.0	0.789586498	1.033481857	0.020417127	0.210639741	0.064921214
2020-03-26T23:20:00	0.2988	3.997	159.0	0.792930302	1.038935481	0.020582774	0.212348680	0.065447926
2020-03-26T23:25:00	0.2980	3.976	152.0	0.790573324	1.035090292	0.020465938	0.211143307	0.065076418
2020-03-26T23:30:00	0.3001	3.955	153.0	0.797080013	1.045717464	0.020789352	0.214479910	0.066104791
2020-03-26T23:35:00	0.2991	3.934	158.0	0.794092669	1.040833609	0.020640525	0.212944492	0.065631560
2020-03-26T23:40:00	0.3001	3.913	158.0	0.797116298	1.045776832	0.020791163	0.214498596	0.066110551
2020-03-26T23:45:00	0.3009	3.893	153.0	0.799505500	1.049688664	0.020910614	0.215730950	0.066490374
2020-03-26T23:50:00	0.3001	3.873	157.0	0.797152582	1.045836201	0.020792974	0.214517283	0.066116310
2020-03-26T23:55:00	0.3012	3.854	158.0	0.800489765	1.051301689	0.020959932	0.216239750	0.066647191
2020-03-27T00:00:00	0.3003	3.834	157.0	0.797821283	1.046930568	0.020826371	0.214861830	0.066222503
2020-03-27T00:05:00	0.2998	3.814	153.0	0.796100029	1.044114455	0.020740466	0.213975564	0.065949347
2020-03-27T00:10:00	0.2989	3.794	157.0	0.793428477	1.039748845	0.020607514	0.212603926	0.065526595
2020-03-27T00:15:00	0.2988	3.774	152.0	0.792971789	1.039003208	0.020584833	0.212369931	0.065454475
2020-03-27T00:20:00	0.2992	3.754	151.0	0.794414309	1.041359057	0.020656521	0.213109519	0.065682423
2020-03-27T00:25:00	0.2988	3.734	157.0	0.793008112	1.039062506	0.020586637	0.212388537	0.065460210
2020-03-27T00:30:00	0.2995	3.715	152.0	0.795083490	1.042452563	0.020689823	0.213453085	0.065788314
2020-03-27T00:35:00	0.2987	3.695	152.0	0.792727844	1.038604993	0.020572724	0.212244996	0.065415969
2020-03-27T00:40:00	0.2979	3.674	156.0	0.790053927	1.034243613	0.020440239	0.210878183	0.064994704
2020-03-27T00:45:00	0.2972	3.655	151.0	0.788012179	1.030917668	0.020339389	0.209837731	0.064674027
2020-03-27T00:50:00	0.2976	3.637	152.0	0.789139687	1.032753883	0.020395048	0.210411952	0.064851007
2020-03-27T00:55:00	0.2979	3.617	156.0	0.790266862	1.034590692	0.020450773	0.210986852	0.065028197
2020-03-27T01:00:00	0.2967	3.598	156.0	0.786322876	1.028168668	0.020256152	0.208978986	0.064409353
2020-03-27T01:05:00	0.2968	3.579	156.0	0.786816744	1.028972075	0.020280467	0.209229843	0.064486670
2020-03-27T01:10:00	0.2990	3.560	155.0	0.793646386	1.040104692	0.020618341	0.212715627	0.065561022
2020-03-27T01:15:00	0.2991	3.542	157.0	0.793822804	1.040392816	0.020627109	0.212806083	0.065588901
2020-03-27T01:20:00	0.2971	3.526	157.0	0.787663965	1.030350811	0.020322217	0.209660563	0.064619422
2020-03-27T01:25:00	0.2970	3.510	155.0	0.787206586	1.029606409	0.020299672	0.209427976	0.064547736
2020-03-27T01:30:00	0.2967	3.490	156.0	0.786432036	1.028346226	0.020261525	0.209034419	0.064426438
2020-03-27T01:35:00	0.2991	3.472	151.0	0.793895434	1.040511443	0.020630719	0.212843329	0.065600381
2020-03-27T01:40:00	0.2980	3.454	156.0	0.790588825	1.035115563	0.020466705	0.211151221	0.065078857
2020-03-27T01:45:00	0.2982	3.436	156.0	0.791082140	1.035919955	0.020491129	0.211403204	0.065156520
2020-03-27T01:50:00	0.2965	3.421	151.0	0.785870508	1.027432964	0.020233894	0.208749352	0.064338578
2020-03-27T01:55:00	0.2972	3.406	156.0	0.787949777	1.030816076	0.020336311	0.209805975	0.064664239
2020-03-27T02:00:00	0.2974	3.389	151.0	0.788443434	1.031619859	0.020360668	0.210057262	0.064741688
2020-03-27T02:05:00	0.2953	3.373	155.0	0.781958387	1.021078164	0.020041954	0.206769144	0.063728258
2020-03-27T02:10:00	0.2957	3.357	151.0	0.783087692	1.022911187	0.020097259	0.207339719	0.063904115
2020-03-27T02:15:00	0.2960	3.341	150.0	0.784216661	1.024744805	0.020152631	0.207910975	0.064080182
2020-03-27T02:20:00	0.2961	3.326	156.0	0.784393517	1.025032150	0.020161312	0.208000540	0.064107787
2020-03-27T02:25:00	0.2959	3.310	156.0	0.783935744	1.024288447	0.020138845	0.207768752	0.064036347
2020-03-27T02:30:00	0.2956	3.295	150.0	0.782843112	1.022514102	0.020085274	0.207216074	0.063866007
2020-03-27T02:35:00	0.2951	3.280	150.0	0.781115073	1.019710088	0.020000708	0.206343617	0.063597107
2020-03-27T02:40:00	0.2957	3.262	156.0	0.783196944	1.023088580	0.020102614	0.207394963	0.063921142
2020-03-27T02:45:00	0.2964	3.246	156.0	0.785277675	1.026469094	0.020204744	0.208448620	0.064245889
2020-03-27T02:50:00	0.2945	3.231	155.0	0.779422699	1.016966533	0.019918074	0.205491095	0.063334351
2020-03-27T02:55:00	0.2974	3.217	155.0	0.788484970	1.031687498	0.020362718	0.210078412	0.064748207
2020-03-27T03:00:00	0.2972	3.203	155.0	0.788027689	1.030942920	0.020340154	0.209845624	0.064676459
2020-03-27T03:05:00	0.2976	3.188	155.0	0.789155193	1.032779143	0.020395814	0.210419855	0.064853443
2020-03-27T03:10:00	0.2993	3.175	155.0	0.794715098	1.041850526	0.020671486	0.213263911	0.065730009
2020-03-27T03:15:00	0.2967	3.161	155.0	0.786338394	1.028193908	0.020256916	0.208986866	0.064411782
2020-03-27T03:20:00	0.2988	3.143	155.0	0.792852310	1.038808165	0.020578902	0.212308736	0.065435614
2020-03-27T03:25:00	0.2986	3.128	155.0	0.792395553	1.038062652	0.020556234	0.212074881	0.065363538
2020-03-27T03:30:00	0.2979	3.114	150.0	0.790038245	1.034218054	0.020439464	0.210870181	0.064992238
2020-03-27T03:35:00	0.2979	3.101	150.0	0.790214831	1.034505880	0.020448199	0.210960296	0.065020012
2020-03-27T03:40:00	0.3002	3.090	150.0	0.797354626	1.046166816	0.020803062	0.214621354	0.066148386
2020-03-27T03:45:00	0.2979	3.077	150.0	0.790251181	1.034565132	0.020449997	0.210978849	0.065025730
2020-03-27T03:50:00	0.2978	3.064	149.0	0.789794112	1.033820175	0.020427391	0.210745629	0.064953850
2020-03-27T03:55:00	0.2985	3.051	150.0	0.792187902	1.037723788	0.020545934	0.211968611	0.065330785
2020-03-27T04:00:00	0.2977	3.040	150.0	0.789513607	1.033363085	0.020413525	0.210602571	0.064909758
2020-03-27T04:05:00	0.2993	3.028	149.0	0.794666963	1.041771871	0.020669091	0.213239200	0.065722392
2020-03-27T04:10:00	0.2988	3.016	149.0	0.792854641	1.038811970	0.020579017	0.212309929	0.065435982
2020-03-27T04:15:00	0.2980	3.005	149.0	0.790407914	1.034820628	0.020457752	0.211058854	0.065050389
2020-03-27T04:20:00	0.2977	2.993	149.0	0.789544292	1.033413084	0.020415041	0.210618218	0.064914580
2020-03-27T04:25:00	0.2985	2.981	149.0	0.792165236	1.037686801	0.020544810	0.211957013	0.065327210
2020-03-27T04:30:00	0.2974	2.969	150.0	0.788450435	1.031631259	0.020361014	0.210060826	0.064742787
2020-03-27T04:35:00	0.2973	2.957	150.0	0.788220381	1.031256652	0.020349661	0.209943701	0.064706688
2020-03-27T04:40:00	0.2972	2.946	150.0	0.787990313	1.030882070	0.020338311	0.209826603	0.064670597
2020-03-27T04:45:00	0.2976	2.935	150.0	0.789344992	1.033088357	0.020405192	0.210516602	0.064883261
2020-03-27T04:50:00	0.2987	2.924	149.0	0.792599356	1.038395273	0.020566347	0.212179208	0.065395693
2020-03-27T04:55:00	0.2984	2.915	154.0	0.791736231	1.036986843	0.020523538	0.211737560	0.065259572
2020-03-27T05:00:00	0.2996	2.904	149.0	0.795621337	1.043331748	0.020716609	0.213729441	0.065873489
2020-03-27T05:05:00	0.2981	2.896	148.0	0.790643003	1.035203894	0.020469386	0.211178887	0.065087384
2020-03-27T05:10:00	0.2984	2.886	149.0	0.791680060	1.036895207	0.020520754	0.211708835	0.065250719
2020-03-27T05:15:00	0.2976	2.877	149.0	0.789232578	1.032905212	0.020399637	0.210459298	0.064865600
2020-03-27T05:20:00	0.2966	2.868	148.0	0.786149271	1.027886305	0.020247608	0.208890843	0.064382187
2020-03-27T05:25:00	0.2981	2.860	148.0	0.790673679	1.035253910	0.020470905	0.211194553	0.065092212
2020-03-27T05:30:00	0.2973	2.853	149.0	0.788225551	1.031265070	0.020349916	0.209946332	0.064707499
2020-03-27T05:35:00	0.2989	2.847	148.0	0.793380649	1.039670746	0.020605138	0.212579414	0.065519040
2020-03-27T05:40:00	0.2982	2.842	148.0	0.791251000	1.036195347	0.020499493	0.211489494	0.065183116
2020-03-27T05:45:00	0.2976	2.836	148.0	0.789120161	1.032722074	0.020394084	0.210402000	0.064847940
2020-03-27T05:50:00	0.2983	2.833	149.0	0.791424696	1.036478651	0.020508099	0.211578275	0.065210479
2020-03-27T05:55:00	0.2993	2.829	148.0	0.794677286	1.041788738	0.020669604	0.213244499	0.065724026
2020-03-27T06:00:00	0.3000	2.828	148.0	0.796662200	1.045033920	0.020768502	0.214264805	0.066038494
2020-03-27T06:05:00	0.2993	2.827	148.0	0.794534384	1.041555241	0.020662494	0.213171145	0.065701417
2020-03-27T06:10:00	0.2992	2.827	149.0	0.794304697	1.041179979	0.020651069	0.213053272	0.065665087
2020-03-27T06:15:00	0.2993	2.829	149.0	0.794707930	1.041838812	0.020671129	0.213260231	0.065728874
2020-03-27T06:20:00	0.2978	2.831	149.0	0.789728402	1.033713092	0.020424142	0.210712112	0.064943519
2020-03-27T06:25:00	0.2992	2.835	148.0	0.794248563	1.041088275	0.020648277	0.213024470	0.065656210
2020-03-27T06:30:00	0.3001	2.840	149.0	0.797182525	1.045885197	0.020794469	0.214532705	0.066121063
2020-03-27T06:35:00	0.2988	2.845	150.0	0.793156055	1.039304038	0.020593983	0.212464328	0.065483569
2020-03-27T06:40:00	0.3003	2.850	149.0	0.797672159	1.046686484	0.020818921	0.214784969	0.066198813
2020-03-27T06:45:00	0.3009	2.857	149.0	0.799655519	1.049934460	0.020918127	0.215808458	0.066514263
2020-03-27T06:50:00	0.2994	2.864	150.0	0.794998876	1.042314274	0.020685610	0.213409627	0.065774920
2020-03-27T06:55:00	0.2992	2.872	149.0	0.794136294	1.040904872	0.020642694	0.212966871	0.065638458
2020-03-27T07:00:00	0.2989	2.877	149.0	0.793273517	1.039495820	0.020599817	0.212524513	0.065502119
2020-03-27T07:05:00	0.2997	2.884	154.0	0.795891899	1.043774117	0.020730092	0.213868533	0.065916359
2020-03-27T07:10:00	0.2996	2.892	149.0	0.795662294	1.043398708	0.020718650	0.213750493	0.065879978
2020-03-27T07:15:00	0.2995	2.899	154.0	0.795116281	1.042506157	0.020691455	0.213469929	0.065793505
2020-03-27T07:20:00	0.3004	2.910	149.0	0.798049576	1.047304275	0.020837779	0.214979527	0.066258778
2020-03-27T07:25:00	0.3000	2.921	150.0	0.796871435	1.045376209	0.020778942	0.214372512	0.066071690
2020-03-27T07:30:00	0.2991	2.935	150.0	0.793794304	1.040346268	0.020625693	0.212791468	0.065584397
2020-03-27T07:35:00	0.2990	2.952	149.0	0.793564573	1.039971085	0.020614276	0.212673686	0.065548095
2020-03-27T07:40:00	0.2983	2.974	150.0	0.791435027	1.036495502	0.020508611	0.211583556	0.065212107
2020-03-27T07:45:00	0.2990	2.999	150.0	0.793738163	1.040254578	0.020622902	0.212762682	0.065575525
2020-03-27T07:50:00	0.2970	3.028	150.0	0.787172362	1.029550715	0.020297986	0.209410578	0.064542374
2020-03-27T07:55:00	0.2985	3.059	150.0	0.792012233	1.037437144	0.020537222	0.211878732	0.065303083
2020-03-27T08:00:00	0.2978	3.095	155.0	0.789881819	1.033963111	0.020431728	0.210790371	0.064967640
2020-03-27T08:05:00	0.2982	3.131	155.0	0.791235826	1.036170598	0.020498742	0.211481739	0.065180726
2020-03-27T08:10:00	0.2990	3.171	155.0	0.793539082	1.039929459	0.020613009	0.212660619	0.065544068
2020-03-27T08:15:00	0.2976	3.217	156.0	0.789191876	1.032838903	0.020397626	0.210438551	0.064859205
2020-03-27T08:20:00	0.2981	3.266	156.0	0.790862900	1.035562440	0.020480273	0.211291197	0.065121999
2020-03-27T08:25:00	0.2996	3.315	151.0	0.795381718	1.042940026	0.020704673	0.213606296	0.065835535
2020-03-27T08:30:00	0.2972	3.361	151.0	0.787867842	1.030682689	0.020332270	0.209764284	0.064651389
2020-03-27T08:35:00	0.2986	3.411	151.0	0.792390210	1.038053931	0.020555969	0.212072146	0.065362695
2020-03-27T08:40:00	0.2986	3.474	156.0	0.792477033	1.038195628	0.020560277	0.212116587	0.065376392
2020-03-27T08:45:00	0.2976	3.547	156.0	0.789079457	1.032655766	0.020392073	0.210381257	0.064841546
2020-03-27T08:50:00	0.2993	3.618	156.0	0.794549868	1.041580540	0.020663265	0.213179093	0.065703867
2020-03-27T08:55:00	0.2989	3.687	155.0	0.793370645	1.039654413	0.020604641	0.212574287	0.065517460
2020-03-27T09:00:00	0.2988	3.758	152.0	0.793140889	1.039279276	0.020593230	0.212456557	0.065481174
2020-03-27T09:05:00	0.2966	3.836	152.0	0.785939770	1.027545595	0.020237301	0.208784502	0.064349411
2020-03-27T09:10:00	0.2966	3.918	152.0	0.786026740	1.027687029	0.020241579	0.208828644	0.064363016
2020-03-27T09:15:00	0.2976	3.997	153.0	0.789283940	1.032988890	0.020402175	0.210485479	0.064873669
2020-03-27T09:20:00	0.2970	4.082	158.0	0.787152000	1.029517580	0.020296982	0.209400227	0.064539184
2020-03-27T09:25:00	0.2990	4.173	153.0	0.793574898	1.039987947	0.020614789	0.212678979	0.065549727
2020-03-27T09:30:00	0.2984	4.266	154.0	0.791762057	1.037028975	0.020524818	0.211750767	0.065263643
2020-03-27T09:35:00	0.2982	4.354	159.0	0.791215485	1.036137424	0.020497734	0.211471344	0.065177522
2020-03-27T09:40:00	0.2958	4.440	159.0	0.783376005	1.023379343	0.020111392	0.207485524	0.063949054
2020-03-27T09:45:00	0.2953	4.526	160.0	0.781875819	1.020944189	0.020037914	0.206727460	0.063715411
2020-03-27T09:50:00	0.2965	4.608	160.0	0.785770997	1.027271149	0.020228999	0.208698855	0.064323014
2020-03-27T09:55:00	0.2962	4.688	161.0	0.784906322	1.025865480	0.020186496	0.208260359	0.064187865
2020-03-27T10:00:00	0.2965	4.769	161.0	0.785627760	1.027038249	0.020221955	0.208626182	0.064300615
2020-03-27T10:05:00	0.2968	4.855	156.0	0.786618451	1.028649471	0.020270703	0.209129102	0.064455620
2020-03-27T10:10:00	0.2962	4.952	157.0	0.784754536	1.025618797	0.020179040	0.208183437	0.064164157
2020-03-27T10:15:00	0.2967	5.053	162.0	0.786379773	1.028261215	0.020258952	0.209007878	0.064418258
2020-03-27T10:20:00	0.2958	5.147	162.0	0.783563756	1.023684249	0.020120598	0.207580503	0.063978327
2020-03-27T10:25:00	0.2961	5.246	163.0	0.784554984	1.025294516	0.020169240	0.208082331	0.064132995
2020-03-27T10:30:00	0.2957	5.350	158.0	0.783324887	1.023296333	0.020108886	0.207459669	0.063941085
2020-03-27T10:35:00	0.2959	5.456	164.0	0.783681514	1.023875502	0.020126374	0.207640085	0.063996691
2020-03-27T10:40:00	0.2966	5.561	164.0	0.785941602	1.027548575	0.020237391	0.208785432	0.064349698
2020-03-27T10:45:00	0.2963	5.666	164.0	0.785029212	1.026065218	0.020192534	0.208322649	0.064207064
2020-03-27T10:50:00	0.2964	5.773	165.0	0.785385679	1.026644671	0.020210053	0.208503390	0.064262770
2020-03-27T10:55:00	0.2961	5.880	160.0	0.784473156	1.025161551	0.020165222	0.208040879	0.064120219
2020-03-27T11:00:00	0.2942	5.993	166.0	0.778479118	1.015437978	0.019872081	0.205016600	0.063188107
2020-03-27T11:05:00	0.2941	6.103	166.0	0.778200620	1.014986976	0.019858518	0.204876665	0.063144978
2020-03-27T11:10:00	0.2941	6.219	167.0	0.778239928	1.015050628	0.019860432	0.204896413	0.063151064
2020-03-27T11:15:00	0.2943	6.341	167.0	0.778597034	1.015628952	0.019877826	0.205075863	0.063206373
2020-03-27T11:20:00	0.2930	6.467	167.0	0.774502937	1.009005487	0.019678903	0.203023613	0.062573849
2020-03-27T11:25:00	0.2914	6.588	169.0	0.769448869	1.000849581	0.019434825	0.200505505	0.061797744
2020-03-27T11:30:00	0.2942	6.708	169.0	0.778397158	1.015305244	0.019868089	0.204975413	0.063175413
2020-03-27T11:35:00	0.2887	6.823	169.0	0.760917097	0.987133154	0.019026516	0.196293060	0.060499427
2020-03-27T11:40:00	0.2922	6.932	169.0	0.772114552	1.005148440	0.019563355	0.201831527	0.062206437
2020-03-27T11:45:00	0.2932	7.040	170.0	0.775335836	1.010351746	0.019719284	0.203440218	0.062702251
2020-03-27T11:50:00	0.2914	7.143	170.0	0.769645862	1.001167049	0.019444308	0.200603336	0.061827897
2020-03-27T11:55:00	0.2919	7.240	170.0	0.770959177	1.003284429	0.019507591	0.201256217	0.062029121
2020-03-27T12:00:00	0.2922	7.328	171.0	0.771953707	1.004888872	0.019555587	0.201751383	0.062181736
2020-03-27T12:05:00	0.2907	7.416	171.0	0.767214981	0.997251934	0.019327466	0.199397901	0.061456370
2020-03-27T12:10:00	0.2910	7.495	171.0	0.768210498	0.998854652	0.019375270	0.199891089	0.061608375
2020-03-27T12:15:00	0.2914	7.565	171.0	0.769524312	1.000971158	0.019438456	0.200542969	0.061809291
2020-03-27T12:20:00	0.2896	7.627	172.0	0.763825571	0.991801806	0.019165184	0.197723673	0.060940356
2020-03-27T12:25:00	0.2903	7.681	172.0	0.766097542	0.995453978	0.019273882	0.198845093	0.061285989
2020-03-27T12:30:00	0.2893	7.723	172.0	0.762947301	0.990391225	0.019123254	0.197291083	0.060807028
2020-03-27T12:35:00	0.2889	7.761	172.0	0.761390934	0.987893241	0.019049071	0.196525749	0.060571145
2020-03-27T12:40:00	0.2887	7.795	172.0	0.760791902	0.986932361	0.019020559	0.196231605	0.060480486
2020-03-27T12:45:00	0.2878	7.828	173.0	0.757956757	0.982388955	0.018885931	0.194842669	0.060052403
2020-03-27T12:50:00	0.2883	7.857	173.0	0.759593550	0.985011096	0.018963592	0.195643886	0.060299346
2020-03-27T12:55:00	0.2879	7.882	172.0	0.758355302	0.983027204	0.018904825	0.195037595	0.060112481
2020-03-27T13:00:00	0.2868	7.897	173.0	0.754878797	0.977464497	0.018740354	0.193340775	0.059589505
2020-03-27T13:05:00	0.2872	7.908	173.0	0.756197269	0.979572906	0.018802639	0.193983361	0.059787556
2020-03-27T13:10:00	0.2871	7.913	173.0	0.755917122	0.979124785	0.018789395	0.193846729	0.059745445
2020-03-27T13:15:00	0.2876	7.911	173.0	0.757235230	0.981233823	0.018851751	0.194490039	0.059943719
2020-03-27T13:20:00	0.2839	7.910	173.0	0.745431483	0.962401997	0.018297299	0.188769858	0.058180703
2020-03-27T13:25:00	0.2871	7.910	172.0	0.755716042	0.978803182	0.018779893	0.193748692	0.059715228
2020-03-27T13:30:00	0.2840	7.914	173.0	0.745831361	0.963037952	0.018315937	0.188962144	0.058239968
2020-03-27T13:35:00	0.2836	7.916	173.0	0.744588560	0.961061898	0.018258044	0.188364871	0.058055883
2020-03-27T13:40:00	0.2831	7.916	173.0	0.743024559	0.958577073	0.018185327	0.187614671	0.057824664
2020-03-27T13:45:00	0.2850	7.915	173.0	0.749154436	0.968328337	0.018471217	0.190564145	0.058733720
2020-03-27T13:50:00	0.2829	7.915	173.0	0.742462269	0.957684256	0.018159222	0.187345350	0.057741656
2020-03-27T13:55:00	0.2844	7.915	173.0	0.746991104	0.964883171	0.018370049	0.189520414	0.058412032
2020-03-27T14:00:00	0.2847	7.914	173.0	0.747991989	0.966476595	0.018416819	0.190002924	0.058560746
2020-03-27T14:05:00	0.2839	7.910	173.0	0.745467758	0.962459682	0.018298989	0.188787297	0.058186078
2020-03-27T14:10:00	0.2824	7.908	173.0	0.740695489	0.954880734	0.018077328	0.186500461	0.057481253
2020-03-27T14:15:00	0.2819	7.908	173.0	0.739129856	0.952398690	0.018004923	0.185753468	0.057251023
2020-03-27T14:20:00	0.2832	7.907	173.0	0.743341968	0.959081185	0.018200072	0.187766791	0.057871549
2020-03-27T14:25:00	0.2826	7.909	173.0	0.741456522	0.956088001	0.018112579	0.186864143	0.057593344
2020-03-27T14:30:00	0.2811	7.908	173.0	0.736679121	0.948517799	0.017891896	0.184587394	0.056891627
2020-03-27T14:35:00	0.2788	7.908	173.0	0.728998621	0.936389465	0.017540136	0.180958353	0.055773122
2020-03-27T14:40:00	0.2820	7.907	173.0	0.739328447	0.952713402	0.018014098	0.185848131	0.057280199
2020-03-27T14:45:00	0.2815	7.903	173.0	0.737762241	0.950232334	0.017941802	0.185102265	0.057050316
2020-03-27T14:50:00	0.2801	7.899	173.0	0.733301753	0.943178189	0.017736757	0.182986848	0.056398324
2020-03-27T14:55:00	0.2802	7.894	173.0	0.733663156	0.943749086	0.017753323	0.183157762	0.056451001
2020-03-27T15:00:00	0.2810	7.887	173.0	0.736274876	0.947878161	0.017873289	0.184395429	0.056832462
2020-03-27T15:05:00	0.2811	7.880	173.0	0.736635990	0.948449547	0.017889910	0.184566907	0.056885313
2020-03-27T15:10:00	0.2808	7.873	173.0	0.735711569	0.946987077	0.017847378	0.184128107	0.056750071
2020-03-27T15:15:00	0.2823	7.865	173.0	0.740248591	0.954172032	0.018056645	0.186287074	0.057415485
2020-03-27T15:20:00	0.2806	7.859	173.0	0.734826683	0.945587858	0.017806715	0.183708596	0.056620773
2020-03-27T15:25:00	0.2835	7.851	173.0	0.744178415	0.960410067	0.018238959	0.188167983	0.057995200
2020-03-27T15:30:00	0.2818	7.842	173.0	0.738762218	0.951816174	0.017987943	0.185578294	0.057197032
2020-03-27T15:35:00	0.2811	7.833	173.0	0.736553113	0.948318401	0.017886095	0.184527545	0.056873181
2020-03-27T15:40:00	0.2802	7.823	173.0	0.733699545	0.943806576	0.017754992	0.183174976	0.056456307
2020-03-27T15:45:00	0.2813	7.814	173.0	0.737275252	0.949461324	0.017919354	0.184870676	0.056978938
2020-03-27T15:50:00	0.2810	7.805	173.0	0.736350989	0.947998584	0.017876792	0.184431565	0.056843599
2020-03-27T15:55:00	0.2794	7.796	173.0	0.730923404	0.939424038	0.017627940	0.181864204	0.056052314
2020-03-27T16:00:00	0.2795	7.783	173.0	0.731285037	0.939994545	0.017644463	0.182034667	0.056104852
2020-03-27T16:05:00	0.2807	7.768	173.0	0.735190304	0.946162748	0.017823418	0.183880921	0.056673886
2020-03-27T16:10:00	0.2795	7.748	172.0	0.731376160	0.940138317	0.017648627	0.182077633	0.056118095
2020-03-27T16:15:00	0.2810	7.729	172.0	0.736245610	0.947831859	0.017871942	0.184381535	0.056828180
2020-03-27T16:20:00	0.2807	7.708	173.0	0.735326844	0.946378650	0.017829693	0.183945652	0.056693836
2020-03-27T16:25:00	0.2799	7.687	173.0	0.732799790	0.942385442	0.017713760	0.182749601	0.056325202
2020-03-27T16:30:00	0.2797	7.667	172.0	0.732201921	0.941441521	0.017686391	0.182467240	0.056238176
2020-03-27T16:35:00	0.2813	7.646	172.0	0.737070293	0.949136890	0.017909911	0.184773253	0.056948911
2020-03-27T16:40:00	0.2807	7.624	172.0	0.735187428	0.946158200	0.017823286	0.183879558	0.056673466
2020-03-27T16:45:00	0.2781	7.602	172.0	0.726865274	0.933029873	0.017443092	0.179957165	0.055464546
2020-03-27T16:50:00	0.2795	7.580	172.0	0.731418841	0.940205661	0.017650578	0.182097760	0.056124298
2020-03-27T16:55:00	0.2813	7.558	172.0	0.737252253	0.949424916	0.017918295	0.184859742	0.056975568
2020-03-27T17:00:00	0.2809	7.536	172.0	0.736012345	0.947462834	0.017861211	0.184270817	0.056794055
2020-03-27T17:05:00	0.2814	7.512	171.0	0.737664506	0.950077582	0.017937296	0.185055774	0.057035987
2020-03-27T17:10:00	0.2817	7.489	171.0	0.738352451	0.951167048	0.017969028	0.185383149	0.057136887
2020-03-27T17:15:00	0.2808	7.465	171.0	0.735506014	0.946661983	0.017837928	0.184030611	0.056720021
2020-03-27T17:20:00	0.2823	7.439	171.0	0.740370074	0.954364666	0.018062266	0.186345067	0.057433360
2020-03-27T17:25:00	0.2827	7.411	171.0	0.741699406	0.956473409	0.018123838	0.186980292	0.057629142
2020-03-27T17:30:00	0.2846	7.384	171.0	0.747837187	0.966230090	0.018409581	0.189928253	0.058537732
2020-03-27T17:35:00	0.2852	7.356	171.0	0.749804364	0.969364173	0.018501669	0.190878312	0.058830550
2020-03-27T17:40:00	0.2832	7.330	171.0	0.743439881	0.959236710	0.018204622	0.187813731	0.057886016
2020-03-27T17:45:00	0.2859	7.306	171.0	0.751815821	0.972572340	0.018596085	0.191852384	0.059130768
2020-03-27T17:50:00	0.2865	7.282	172.0	0.753780912	0.975710010	0.018688574	0.192806571	0.059424858
2020-03-27T17:55:00	0.2868	7.257	171.0	0.754785710	0.977315697	0.018735960	0.193295451	0.059575535
2020-03-27T18:00:00	0.2869	7.229	171.0	0.755150765	0.977899282	0.018753193	0.193473231	0.059630329
2020-03-27T18:05:00	0.2881	7.203	170.0	0.759031208	0.984109957	0.018936891	0.195368418	0.060214444
2020-03-27T18:10:00	0.2876	7.176	170.0	0.757478939	0.981623940	0.018863292	0.194609108	0.059980417
2020-03-27T18:15:00	0.2888	7.148	170.0	0.761356982	0.987838772	0.019047454	0.196509071	0.060566004
2020-03-27T18:20:00	0.2900	7.120	170.0	0.764912112	0.993547838	0.019217127	0.198259552	0.061105519
2020-03-27T18:25:00	0.2888	7.094	170.0	0.761128133	0.987471654	0.019036560	0.196396676	0.060531363
2020-03-27T18:30:00	0.2893	7.067	170.0	0.762769258	0.990105356	0.019114760	0.197203451	0.060780019
2020-03-27T18:35:00	0.2898	7.039	170.0	0.764409670	0.992740302	0.019193098	0.198011652	0.061029114
2020-03-27T18:40:00	0.2899	7.009	170.0	0.764773792	0.993325504	0.019210510	0.198191289	0.061084480
2020-03-27T18:45:00	0.2910	6.981	170.0	0.768325702	0.999040181	0.019380806	0.199948205	0.061625979
2020-03-27T18:50:00	0.2922	6.957	170.0	0.772192610	1.005274417	0.019567126	0.201870428	0.062218426
2020-03-27T18:55:00	0.2920	6.927	169.0	0.771282602	1.003806103	0.019523192	0.201417175	0.062078730
2020-03-27T19:00:00	0.2938	6.899	170.0	0.777054448	1.013131587	0.019802748	0.204301302	0.062967646
2020-03-27T19:05:00	0.2932	6.870	170.0	0.775191520	1.010118437	0.019712284	0.203368001	0.062679993
2020-03-27T19:10:00	0.2929	6.840	169.0	0.774282234	1.008648857	0.019668210	0.202913298	0.062539849
2020-03-27T19:15:00	0.2944	6.810	169.0	0.779096406	1.016437864	0.019902163	0.205326946	0.063283759
2020-03-27T19:20:00	0.2944	6.782	169.0	0.779141391	1.016510745	0.019904356	0.205349573	0.063290733
2020-03-27T19:25:00	0.2961	6.754	169.0	0.784584021	1.025341700	0.020170666	0.208097041	0.064137529
2020-03-27T19:30:00	0.2944	6.725	168.0	0.778913616	1.016141745	0.019893253	0.205235021	0.063255427
2020-03-27T19:35:00	0.2938	6.697	169.0	0.777051603	1.013126984	0.019802610	0.204299875	0.062967206
2020-03-27T19:40:00	0.2954	6.668	169.0	0.782179758	1.021437392	0.020052789	0.206880923	0.063762710
2020-03-27T19:45:00	0.2937	6.639	169.0	0.776823702	1.012758205	0.019791531	0.204185577	0.062931978
2020-03-27T19:50:00	0.2938	6.612	168.0	0.777186630	1.013345500	0.019809175	0.204367612	0.062988083
2020-03-27T19:55:00	0.2945	6.584	168.0	0.779456273	1.017020937	0.019919711	0.205507989	0.063339558
2020-03-27T20:00:00	0.2947	6.552	168.0	0.780136617	1.018123574	0.019952910	0.205850494	0.063445122
2020-03-27T20:05:00	0.2941	6.523	167.0	0.777957381	1.014593130	0.019846675	0.204754489	0.063107322
2020-03-27T20:10:00	0.2942	6.492	169.0	0.778320200	1.015180616	0.019864341	0.204936743	0.063163495
2020-03-27T20:15:00	0.2952	6.463	168.0	0.781541896	1.020402428	0.020021578	0.206558928	0.063663468
2020-03-27T20:20:00	0.2952	6.433	168.0	0.781586853	1.020475360	0.020023777	0.206581613	0.063670460
2020-03-27T20:25:00	0.2951	6.403	168.0	0.781314265	1.020033173	0.020010446	0.206444085	0.063628072
2020-03-27T20:30:00	0.2946	6.373	168.0	0.779771129	1.017531174	0.019935072	0.205666459	0.063388400
2020-03-27T20:35:00	0.2943	6.341	168.0	0.778862942	1.016059658	0.019890783	0.205209540	0.063247573
2020-03-27T20:40:00	0.2948	6.312	167.0	0.780178748	1.018191869	0.019954967	0.205871714	0.063451662
2020-03-27T20:45:00	0.2931	6.282	167.0	0.774819862	1.009517678	0.019694263	0.203182081	0.062622691
2020-03-27T20:50:00	0.2945	6.252	167.0	0.779315641	1.016793065	0.019912853	0.205437229	0.063317749
2020-03-27T20:55:00	0.2954	6.220	167.0	0.782219026	1.021501117	0.020054711	0.206900755	0.063768822
2020-03-27T21:00:00	0.2960	6.189	167.0	0.784168357	1.024666330	0.020150260	0.207886516	0.064072643
2020-03-27T21:05:00	0.2957	6.158	167.0	0.783261222	1.023192952	0.020105765	0.207427469	0.063931161
2020-03-27T21:10:00	0.2953	6.125	167.0	0.782036386	1.021204732	0.020045771	0.206808525	0.063740396
2020-03-27T21:15:00	0.2948	6.094	167.0	0.780175906	1.018187262	0.019954828	0.205870283	0.063451221
2020-03-27T21:20:00	0.2950	6.064	166.0	0.780856121	1.019290128	0.019988052	0.206213049	0.063556864
2020-03-27T21:25:00	0.2962	6.033	166.0	0.784710264	1.025546850	0.020176866	0.208161003	0.064157243
2020-03-27T21:30:00	0.2951	6.000	161.0	0.781263623	1.019951029	0.020007970	0.206418540	0.063620199
2020-03-27T21:35:00	0.2961	5.970	166.0	0.784482823	1.025177259	0.020165697	0.208045776	0.064121729
2020-03-27T21:40:00	0.2957	5.938	166.0	0.783258382	1.023188340	0.020105626	0.207426033	0.063930718
2020-03-27T21:45:00	0.2951	5.906	166.0	0.781398500	1.020169810	0.020014565	0.206486579	0.063641169
2020-03-27T21:50:00	0.2958	5.872	166.0	0.783348253	1.023334277	0.020110031	0.207471487	0.063944727
2020-03-27T21:55:00	0.2952	5.841	166.0	0.781488416	1.020315669	0.020018962	0.206531943	0.063655151
2020-03-27T22:00:00	0.2953	5.810	165.0	0.781850897	1.020903752	0.020036694	0.206714879	0.063711533
2020-03-27T22:05:00	0.2948	5.778	160.0	0.780397921	1.018547180	0.019965669	0.205982124	0.063485691
2020-03-27T22:10:00	0.2958	5.749	165.0	0.783390348	1.023402635	0.020112095	0.207492779	0.063951290
2020-03-27T22:15:00	0.2948	5.719	165.0	0.780350108	1.018469666	0.019963334	0.205958035	0.063478267
2020-03-27T22:20:00	0.2964	5.688	165.0	0.785246416	1.026418279	0.020203208	0.208432769	0.064241004
2020-03-27T22:25:00	0.2958	5.657	165.0	0.783477377	1.023543966	0.020116362	0.207536803	0.063964858
2020-03-27T22:30:00	0.2950	5.626	160.0	0.781072413	1.019640899	0.019998623	0.206322104	0.063590476
2020-03-27T22:35:00	0.2952	5.595	164.0	0.781524849	1.020374772	0.020020744	0.206550326	0.063660817
2020-03-27T22:40:00	0.2955	5.566	164.0	0.782612179	1.022139223	0.020073962	0.207099365	0.063830036
2020-03-27T22:45:00	0.2948	5.538	164.0	0.780206667	1.018237128	0.019956330	0.205885777	0.063455996
2020-03-27T22:50:00	0.2954	5.510	164.0	0.782246930	1.021546402	0.020056077	0.206914847	0.063773166
2020-03-27T22:55:00	0.2942	5.481	164.0	0.778252455	1.015070913	0.019861042	0.204902707	0.063153004
2020-03-27T23:00:00	0.2930	5.451	164.0	0.774571902	1.009116935	0.019682245	0.203058091	0.062584476
2020-03-27T23:05:00	0.2926	5.420	164.0	0.773434362	1.007279198	0.019627161	0.202489800	0.062409323
2020-03-27T23:10:00	0.2931	5.392	163.0	0.774842128	1.009553665	0.019695342	0.203193217	0.062626123
2020-03-27T23:15:00	0.2931	5.365	159.0	0.774977234	1.009772043	0.019701893	0.203260794	0.062646951
2020-03-27T23:20:00	0.2933	5.338	163.0	0.775430398	1.010504632	0.019723872	0.203487546	0.062716838
2020-03-27T23:25:00	0.2925	5.309	158.0	0.773020322	1.006610586	0.019607132	0.202283168	0.062345637
2020-03-27T23:30:00	0.2930	5.279	163.0	0.774746362	1.009398884	0.019690700	0.203145324	0.062611362
2020-03-27T23:35:00	0.2926	5.252	163.0	0.773290659	1.007047122	0.019620208	0.202418070	0.062387215
2020-03-27T23:40:00	0.2935	5.224	163.0	0.776288700	1.011892670	0.019765536	0.203917394	0.062849321
2020-03-27T23:45:00	0.2929	5.195	162.0	0.774197336	1.008511683	0.019664098	0.202870871	0.062526773
2020-03-27T23:50:00	0.2923	5.168	163.0	0.772423133	1.005646487	0.019578263	0.201985333	0.062253841
2020-03-27T23:55:00	0.2930	5.142	163.0	0.774467589	1.008948367	0.019677190	0.203005943	0.062568403
2020-03-28T00:00:00	0.2930	5.114	162.0	0.774602709	1.009166721	0.019683738	0.203073493	0.062589223
2020-03-28T00:05:00	0.2925	5.087	162.0	0.773146950	1.006815055	0.019613256	0.202346351	0.062365111
2020-03-28T00:10:00	0.2924	5.061	162.0	0.772645602	1.006005604	0.019589015	0.202096257	0.062288029
2020-03-28T00:15:00	0.2922	5.033	162.0	0.772144189	1.005196270	0.019564787	0.201846296	0.062210989
2020-03-28T00:20:00	0.2918	5.008	162.0	0.770687483	1.002846266	0.019494490	0.201121058	0.061987463
2020-03-28T00:25:00	0.2909	4.984	161.0	0.767955715	0.998444384	0.019363029	0.199764805	0.061569453
2020-03-28T00:30:00	0.2908	4.959	162.0	0.767453678	0.997636140	0.019338922	0.199516094	0.061492798
2020-03-28T00:35:00	0.2910	4.935	161.0	0.768226414	0.998880284	0.019376035	0.199898979	0.061610807
2020-03-28T00:40:00	0.2911	4.911	161.0	0.768680388	0.999611452	0.019397856	0.200124105	0.061680193
2020-03-28T00:45:00	0.2893	4.886	161.0	0.762757331	0.990086206	0.019114191	0.197197581	0.060778209
2020-03-28T00:50:00	0.2909	4.859	161.0	0.767995130	0.998507849	0.019364923	0.199784338	0.061575473
2020-03-28T00:55:00	0.2896	4.833	161.0	0.763666541	0.991546340	0.019157588	0.197645305	0.060916203
2020-03-28T01:00:00	0.2901	4.809	156.0	0.765396861	0.994327151	0.019240324	0.198498880	0.061179283
2020-03-28T01:05:00	0.2917	4.786	161.0	0.770312533	1.002241690	0.019476418	0.200934612	0.061929999
2020-03-28T01:10:00	0.2919	4.763	161.0	0.771084684	1.003486857	0.019513644	0.201318670	0.062048369
2020-03-28T01:15:00	0.2913	4.741	156.0	0.769309019	1.000624224	0.019428094	0.200436068	0.061776343
2020-03-28T01:20:00	0.2913	4.717	160.0	0.769125756	1.000328937	0.019419276	0.200345095	0.061748304
2020-03-28T01:25:00	0.2924	4.692	160.0	0.772763700	1.006196258	0.019594724	0.202155154	0.062306182
2020-03-28T01:30:00	0.2929	4.668	155.0	0.774171715	1.008470288	0.019662857	0.202858069	0.062522827
2020-03-28T01:35:00	0.2917	4.645	160.0	0.770487189	1.002523294	0.019484835	0.201021449	0.061956763
2020-03-28T01:40:00	0.2896	4.622	161.0	0.763609952	0.991455440	0.019154886	0.197617423	0.060907609
2020-03-28T01:45:00	0.2905	4.600	161.0	0.766615682	0.996287526	0.019298718	0.199101319	0.061364960
2020-03-28T01:50:00	0.2906	4.578	160.0	0.767069850	0.997018355	0.019320502	0.199326056	0.061434226
2020-03-28T01:55:00	0.2900	4.556	160.0	0.764973377	0.993646321	0.019220058	0.198289791	0.061114839
2020-03-28T02:00:00	0.2905	4.535	161.0	0.766703097	0.996428177	0.019302910	0.199144564	0.061378289
2020-03-28T02:05:00	0.2902	4.514	160.0	0.765563185	0.994594593	0.019248287	0.198581033	0.061204603
2020-03-28T02:10:00	0.2892	4.493	160.0	0.762508577	0.989686851	0.019102327	0.197075181	0.060740485
2020-03-28T02:15:00	0.2900	4.471	156.0	0.765196286	0.994004669	0.019230724	0.198399835	0.061148756
2020-03-28T02:20:00	0.2900	4.452	160.0	0.765012823	0.993709731	0.019221945	0.198309262	0.061120840
2020-03-28T02:25:00	0.2893	4.431	160.0	0.762915206	0.990339691	0.019121722	0.197275284	0.060802159
2020-03-28T02:30:00	0.2888	4.411	159.0	0.761135690	0.987483776	0.019036919	0.196400387	0.060532507
2020-03-28T02:35:00	0.2883	4.391	160.0	0.759674726	0.985141201	0.018967448	0.195683668	0.060311607
2020-03-28T02:40:00	0.2888	4.372	160.0	0.761087633	0.987406690	0.019034632	0.196376789	0.060525234
2020-03-28T02:45:00	0.2895	4.352	159.0	0.763457310	0.991210263	0.019147597	0.197542225	0.060884432
2020-03-28T02:50:00	0.2890	4.334	159.0	0.761997247	0.988866122	0.019077952	0.196823709	0.060662979
2020-03-28T02:55:00	0.2881	4.313	160.0	0.758939743	0.983963413	0.018932550	0.195323633	0.060200641
2020-03-28T03:00:00	0.2903	4.293	159.0	0.766096350	0.995452061	0.019273825	0.198844504	0.061285807
2020-03-28T03:05:00	0.2874	4.275	159.0	0.756654868	0.980305025	0.018824282	0.194206649	0.059856375
2020-03-28T03:10:00	0.2887	4.255	159.0	0.760943459	0.987175436	0.019027771	0.196306002	0.060503416
2020-03-28T03:15:00	0.2881	4.235	159.0	0.758843573	0.983809338	0.018927987	0.195276550	0.060186129
2020-03-28T03:20:00	0.2908	4.216	159.0	0.767594246	0.997862423	0.019345670	0.199585715	0.061514256
2020-03-28T03:25:00	0.2903	4.196	159.0	0.766135785	0.995515492	0.019275715	0.198863998	0.061291816
2020-03-28T03:30:00	0.2902	4.178	154.0	0.765633506	0.994707671	0.019251655	0.198615772	0.061215310
2020-03-28T03:35:00	0.2884	4.159	159.0	0.760025018	0.985702703	0.018984093	0.195855386	0.060364532
2020-03-28T03:40:00	0.2893	4.140	154.0	0.762714500	0.990017440	0.019112147	0.197176502	0.060771713
2020-03-28T03:45:00	0.2896	4.123	153.0	0.763807251	0.991772376	0.019164309	0.197714644	0.060937574
2020-03-28T03:50:00	0.2899	4.103	159.0	0.764580734	0.993015216	0.019201277	0.198096035	0.061055122
2020-03-28T03:55:00	0.2878	4.085	153.0	0.758012237	0.982477794	0.018888561	0.194869797	0.060060764
2020-03-28T04:00:00	0.2892	4.067	153.0	0.762618425	0.989863197	0.019107565	0.197129227	0.060757142
2020-03-28T04:05:00	0.2899	4.049	159.0	0.764575026	0.993006042	0.019201004	0.198093219	0.061054254
2020-03-28T04:10:00	0.2900	4.032	158.0	0.764936279	0.993586685	0.019218283	0.198271480	0.061109196
2020-03-28T04:15:00	0.2895	4.015	158.0	0.763383588	0.991091857	0.019144077	0.197505912	0.060873240
2020-03-28T04:20:00	0.2891	3.995	158.0	0.762149442	0.989110385	0.019085205	0.196898541	0.060686043
2020-03-28T04:25:00	0.2883	3.980	158.0	0.759637575	0.985081656	0.018965684	0.195665461	0.060305995
2020-03-28T04:30:00	0.2892	3.963	158.0	0.762553254	0.989758573	0.019104457	0.197097162	0.060747259
2020-03-28T04:35:00	0.2900	3.947	153.0	0.765147776	0.993926680	0.019228402	0.198375883	0.061141374
2020-03-28T04:40:00	0.2909	3.933	152.0	0.768059197	0.998611010	0.019368000	0.199816091	0.061585260
2020-03-28T04:45:00	0.2920	3.918	158.0	0.771286785	1.003812851	0.019523394	0.201419257	0.062079371
2020-03-28T04:50:00	0.2926	3.903	157.0	0.773238900	1.006963537	0.019617704	0.202392238	0.062379253
2020-03-28T04:55:00	0.2927	3.888	157.0	0.773599324	1.007545628	0.019635144	0.202572159	0.062434707
2020-03-28T05:00:00	0.2923	3.871	152.0	0.772368514	1.005558326	0.019575624	0.201958104	0.062245449
2020-03-28T05:05:00	0.2919	3.855	152.0	0.771137302	1.003571727	0.019516182	0.201344856	0.062056440
2020-03-28T05:10:00	0.2917	3.841	151.0	0.770542665	1.002612745	0.019487509	0.201049035	0.061965265
2020-03-28T05:15:00	0.2923	3.829	152.0	0.772495164	1.005762757	0.019581744	0.202021244	0.062264909
2020-03-28T05:20:00	0.2940	3.816	152.0	0.777626641	1.014057690	0.019830579	0.204588426	0.063056140
2020-03-28T05:25:00	0.2960	3.806	156.0	0.784020711	1.024426472	0.020143014	0.207811764	0.064049604
2020-03-28T05:30:00	0.2942	3.794	152.0	0.778346621	1.015223402	0.019865628	0.204950018	0.063167586
2020-03-28T05:35:00	0.2943	3.785	151.0	0.778706559	1.015806349	0.019883162	0.205130918	0.063223341
2020-03-28T05:40:00	0.2936	3.776	156.0	0.776523655	1.012272753	0.019776950	0.204035147	0.062885614
2020-03-28T05:45:00	0.2934	3.767	157.0	0.775929864	1.011312284	0.019748111	0.203737625	0.062793915
2020-03-28T05:50:00	0.2944	3.760	155.0	0.779150748	1.016525904	0.019904812	0.205354279	0.063292183
2020-03-28T05:55:00	0.2957	3.751	157.0	0.783321184	1.023290321	0.020108704	0.207457796	0.063940507
2020-03-28T06:00:00	0.2948	3.743	155.0	0.780188102	1.018207033	0.019955424	0.205876426	0.063453114
2020-03-28T06:05:00	0.2946	3.735	151.0	0.779594885	1.017245552	0.019926473	0.205577746	0.063361058
2020-03-28T06:10:00	0.2938	3.729	157.0	0.777094596	1.013196559	0.019804700	0.204321442	0.062973853
2020-03-28T06:15:00	0.2935	3.725	155.0	0.776182922	1.011721572	0.019760399	0.203864392	0.062832986
2020-03-28T06:20:00	0.2942	3.721	156.0	0.778450322	1.015391343	0.019870679	0.205002129	0.063183647
2020-03-28T06:25:00	0.2930	3.717	155.0	0.774677040	1.009286848	0.019687340	0.203110659	0.062600678
2020-03-28T06:30:00	0.2934	3.714	155.0	0.775991455	1.011411895	0.019751102	0.203768475	0.062803423
2020-03-28T06:35:00	0.2953	3.712	158.0	0.781753294	1.020745391	0.020031919	0.206665613	0.063696349
2020-03-28T06:40:00	0.2965	3.712	155.0	0.785603689	1.026999112	0.020220771	0.208613971	0.064296852
2020-03-28T06:45:00	0.2975	3.712	151.0	0.788816381	1.032227243	0.020379080	0.210247211	0.064800232
2020-03-28T06:50:00	0.2972	3.712	156.0	0.787907517	1.030747278	0.020334227	0.209784471	0.064657611
2020-03-28T06:55:00	0.2966	3.712	157.0	0.786047072	1.027720095	0.020242580	0.208838964	0.064366197
2020-03-28T07:00:00	0.2977	3.714	156.0	0.789576270	1.033465190	0.020416622	0.210634525	0.064919606
2020-03-28T07:05:00	0.2976	3.716	155.0	0.789301420	1.033017367	0.020403039	0.210494389	0.064876415
2020-03-28T07:10:00	0.2973	3.720	155.0	0.788392671	1.031537195	0.020358163	0.210031414	0.064733722
2020-03-28T07:15:00	0.2977	3.724	156.0	0.789385478	1.033154318	0.020407192	0.210537242	0.064889623
2020-03-28T07:20:00	0.2982	3.731	152.0	0.791011573	1.035804876	0.020487634	0.211367148	0.065145408
2020-03-28T07:25:00	0.2984	3.740	155.0	0.791687018	1.036906559	0.020521099	0.211712394	0.065251816
2020-03-28T07:30:00	0.2998	3.751	157.0	0.796160076	1.044212652	0.020743460	0.214006449	0.065958866
2020-03-28T07:35:00	0.2994	3.765	151.0	0.794936553	1.042212420	0.020682508	0.213377621	0.065765055
2020-03-28T07:40:00	0.2981	3.784	156.0	0.790862865	1.035562381	0.020480271	0.211291179	0.065121993
2020-03-28T07:45:00	0.2985	3.805	152.0	0.792171691	1.037697335	0.020545130	0.211960316	0.065328228
2020-03-28T07:50:00	0.2974	3.830	151.0	0.788412022	1.031568705	0.020359118	0.210041267	0.064736758
2020-03-28T07:55:00	0.2987	3.857	157.0	0.792572317	1.038351141	0.020565005	0.212165365	0.065391426
2020-03-28T08:00:00	0.2978	3.888	151.0	0.789763715	1.033770640	0.020425888	0.210730124	0.064949071
2020-03-28T08:05:00	0.2991	3.919	158.0	0.793922536	1.040555709	0.020632067	0.212857228	0.065604665
2020-03-28T08:10:00	0.2987	3.955	151.0	0.792698295	1.038556762	0.020571257	0.212229866	0.065411306
2020-03-28T08:15:00	0.2971	3.996	152.0	0.787671254	1.030362676	0.020322576	0.209664271	0.064620565
2020-03-28T08:20:00	0.2972	4.038	158.0	0.788030310	1.030947187	0.020340284	0.209846958	0.064676871
2020-03-28T08:25:00	0.2973	4.083	152.0	0.788389333	1.031531759	0.020357998	0.210029714	0.064733198
2020-03-28T08:30:00	0.2965	4.132	158.0	0.785577642	1.026956762	0.020219491	0.208600757	0.064292779
2020-03-28T08:35:00	0.2965	4.177	153.0	0.785619713	1.027025164	0.020221559	0.208622099	0.064299357
2020-03-28T08:40:00	0.2961	4.226	153.0	0.784392799	1.025030982	0.020161277	0.208000176	0.064107674
2020-03-28T08:45:00	0.2964	4.278	159.0	0.785386649	1.026646248	0.020210101	0.208503882	0.064262921
2020-03-28T08:50:00	0.2966	4.331	159.0	0.786063094	1.027746151	0.020243368	0.208847097	0.064368703
2020-03-28T08:55:00	0.2970	4.385	159.0	0.787373571	1.029878162	0.020307901	0.209512875	0.064573903
2020-03-28T09:00:00	0.2973	4.440	155.0	0.788366643	1.031494812	0.020356878	0.210018162	0.064729637
2020-03-28T09:05:00	0.2940	4.501	159.0	0.777616596	1.014041430	0.019830090	0.204583384	0.063054586
2020-03-28T09:10:00	0.2949	4.567	160.0	0.780518439	1.018742576	0.019971555	0.206042849	0.063504407
2020-03-28T09:15:00	0.2948	4.635	160.0	0.780242933	1.018295918	0.019958101	0.205904044	0.063461626
2020-03-28T09:20:00	0.2945	4.708	160.0	0.779332015	1.016819595	0.019913651	0.205445467	0.063320288
2020-03-28T09:25:00	0.2954	4.783	155.0	0.782232546	1.021523059	0.020055373	0.206907583	0.063770927
2020-03-28T09:30:00	0.2941	4.858	161.0	0.778145220	1.014897270	0.019855820	0.204848835	0.063136401
2020-03-28T09:35:00	0.2948	4.932	161.0	0.780411448	1.018569111	0.019966329	0.205988939	0.063487792
2020-03-28T09:40:00	0.2939	5.003	161.0	0.777593843	1.014004598	0.019828983	0.204571963	0.063051066
2020-03-28T09:45:00	0.2948	5.070	161.0	0.780178065	1.018190761	0.019954933	0.205871370	0.063451556
2020-03-28T09:50:00	0.2944	5.132	162.0	0.778949390	1.016199697	0.019894996	0.205253010	0.063260971
2020-03-28T09:55:00	0.2935	5.194	162.0	0.776130698	1.011637102	0.019757863	0.203838228	0.062824921
2020-03-28T10:00:00	0.2930	5.258	163.0	0.774582603	1.009134229	0.019682763	0.203063441	0.062586125
2020-03-28T10:05:00	0.2921	5.330	162.0	0.771712735	1.004500038	0.019543952	0.201631345	0.062144739
2020-03-28T10:10:00	0.2922	5.409	163.0	0.772025387	1.005004545	0.019559048	0.201787097	0.062192743
2020-03-28T10:15:00	0.2927	5.494	163.0	0.773611037	1.007564547	0.019635711	0.202578007	0.062436509
2020-03-28T10:20:00	0.2912	5.575	164.0	0.768829283	0.999851301	0.019405016	0.200197971	0.061702959
2020-03-28T10:25:00	0.2921	5.658	164.0	0.771689946	1.004463268	0.019542851	0.201619995	0.062141241
2020-03-28T10:30:00	0.2921	5.743	159.0	0.771684248	1.004454076	0.019542576	0.201617158	0.062140366
2020-03-28T10:35:00	0.2923	5.832	165.0	0.772315228	1.005472320	0.019573049	0.201931543	0.062237263
2020-03-28T10:40:00	0.2914	5.920	166.0	0.769443637	1.000841150	0.019434573	0.200502907	0.061796943
2020-03-28T10:45:00	0.2913	6.009	165.0	0.769119369	1.000318646	0.019418969	0.200341925	0.061747327
2020-03-28T10:50:00	0.2893	6.105	166.0	0.762736656	0.990053012	0.019113204	0.197187406	0.060775074
2020-03-28T10:55:00	0.2915	6.202	166.0	0.769745076	1.001326953	0.019449084	0.200652618	0.061843086
2020-03-28T11:00:00	0.2922	6.297	166.0	0.771968418	1.004912612	0.019556297	0.201758712	0.062183995
2020-03-28T11:05:00	0.2891	6.393	167.0	0.762081226	0.989000901	0.019081954	0.196864998	0.060675704
2020-03-28T11:10:00	0.2899	6.490	167.0	0.764628060	0.993091277	0.019203540	0.198119383	0.061062318
2020-03-28T11:15:00	0.2884	6.595	167.0	0.759834901	0.985397940	0.018975058	0.195762178	0.060335804
2020-03-28T11:20:00	0.2903	6.704	167.0	0.765892274	0.995123822	0.019264048	0.198743634	0.061254718
2020-03-28T11:25:00	0.2885	6.811	168.0	0.760142824	0.985891565	0.018989692	0.195913154	0.060382337
2020-03-28T11:30:00	0.2884	6.915	168.0	0.759817755	0.985370457	0.018974244	0.195753773	0.060333214
2020-03-28T11:35:00	0.2875	7.015	168.0	0.756936625	0.980755906	0.018837615	0.194344203	0.059898771
2020-03-28T11:40:00	0.2887	7.114	169.0	0.760764309	0.986888108	0.019019247	0.196218062	0.060476312
2020-03-28T11:45:00	0.2893	7.204	169.0	0.762673836	0.989952156	0.019110208	0.197156493	0.060765546
2020-03-28T11:50:00	0.2867	7.296	169.0	0.754361683	0.976637984	0.018715955	0.193089061	0.059511924
2020-03-28T11:55:00	0.2851	7.381	170.0	0.749235148	0.968456954	0.018474998	0.190603145	0.058745740
2020-03-28T12:00:00	0.2860	7.462	170.0	0.752110738	0.973043016	0.018609950	0.191995424	0.059174854
2020-03-28T12:05:00	0.2856	7.540	170.0	0.750824695	0.970991099	0.018549531	0.191372087	0.058982736
2020-03-28T12:10:00	0.2868	7.614	171.0	0.754978401	0.977623723	0.018745055	0.193389280	0.059604454
2020-03-28T12:15:00	0.2868	7.674	171.0	0.754972679	0.977614575	0.018744785	0.193386493	0.059603595
2020-03-28T12:20:00	0.2853	7.726	171.0	0.750167183	0.969942586	0.018518681	0.191053815	0.058884641
2020-03-28T12:25:00	0.2847	7.772	171.0	0.748239820	0.966871281	0.018428409	0.190122500	0.058597601
2020-03-28T12:30:00	0.2849	7.810	171.0	0.748874742	0.967882684	0.018458121	0.190429029	0.058692076
2020-03-28T12:35:00	0.2847	7.839	172.0	0.748228354	0.966853020	0.018427873	0.190116967	0.058595896
2020-03-28T12:40:00	0.2860	7.860	171.0	0.752384935	0.973480695	0.018622846	0.192128467	0.059215859
2020-03-28T12:45:00	0.2841	7.882	172.0	0.746294256	0.963774302	0.018337525	0.189184864	0.058308612
2020-03-28T12:50:00	0.2834	7.902	172.0	0.744044197	0.960196789	0.018232717	0.188103575	0.057975349
2020-03-28T12:55:00	0.2833	7.914	172.0	0.743717729	0.959678089	0.018217536	0.187946964	0.057927080
2020-03-28T13:00:00	0.2822	7.925	172.0	0.740182157	0.954066695	0.018053571	0.186255364	0.057405712
2020-03-28T13:05:00	0.2832	7.923	172.0	0.743385493	0.959150319	0.018202095	0.187787657	0.057877980
2020-03-28T13:10:00	0.2834	7.915	172.0	0.744021239	0.960160311	0.018231649	0.188092560	0.057971954
2020-03-28T13:15:00	0.2811	7.903	172.0	0.736631732	0.948442808	0.017889714	0.184564884	0.056884690
2020-03-28T13:20:00	0.2820	7.890	172.0	0.739517026	0.953012279	0.018022814	0.185938045	0.057307911
2020-03-28T13:25:00	0.2809	7.878	172.0	0.735977470	0.947407666	0.017859606	0.184254267	0.056788954
2020-03-28T13:30:00	0.2795	7.868	171.0	0.731469285	0.940285255	0.017652884	0.182121549	0.056131630
2020-03-28T13:35:00	0.2818	7.857	171.0	0.738857523	0.951967172	0.017992344	0.185623697	0.057211026
2020-03-28T13:40:00	0.2805	7.848	172.0	0.734674357	0.945347062	0.017799720	0.183636432	0.056598532
2020-03-28T13:45:00	0.2797	7.836	171.0	0.732095550	0.941273614	0.017681524	0.182417027	0.056222699
2020-03-28T13:50:00	0.2807	7.823	172.0	0.735305836	0.946345429	0.017828727	0.183935691	0.056690766
2020-03-28T13:55:00	0.2809	7.814	172.0	0.735942960	0.947353075	0.017858019	0.184237890	0.056783907
2020-03-28T14:00:00	0.2804	7.804	171.0	0.734329806	0.944802476	0.017783904	0.183473258	0.056548240
2020-03-28T14:05:00	0.2797	7.792	171.0	0.732072519	0.941237260	0.017680471	0.182406157	0.056219349
2020-03-28T14:10:00	0.2786	7.784	171.0	0.728525878	0.935644645	0.017518607	0.180736237	0.055704664
2020-03-28T14:15:00	0.2802	7.773	171.0	0.733669385	0.943758927	0.017753609	0.183160709	0.056451909
2020-03-28T14:20:00	0.2794	7.763	171.0	0.731089881	0.939686656	0.017635545	0.181942666	0.056076497
2020-03-28T14:25:00	0.2792	7.755	171.0	0.730440405	0.938662248	0.017605885	0.181636666	0.055982185
2020-03-28T14:30:00	0.2797	7.748	171.0	0.732043730	0.941191819	0.017679154	0.182392568	0.056215161
2020-03-28T14:35:00	0.2793	7.738	171.0	0.730750758	0.939151716	0.017620055	0.181782854	0.056027241
2020-03-28T14:40:00	0.2794	7.729	171.0	0.731066844	0.939650313	0.017634492	0.181931807	0.056073150
2020-03-28T14:45:00	0.2793	7.719	171.0	0.730739238	0.939133546	0.017619528	0.181777427	0.056025568
2020-03-28T14:50:00	0.2773	7.707	171.0	0.724290684	0.928980722	0.017326358	0.178752838	0.055093361
2020-03-28T14:55:00	0.2768	7.697	171.0	0.722672464	0.926438662	0.017253200	0.177998081	0.054860737
2020-03-28T15:00:00	0.2776	7.680	171.0	0.725246279	0.930482943	0.017369637	0.179199338	0.055230976
2020-03-28T15:05:00	0.2778	7.663	171.0	0.725885128	0.931487677	0.017398602	0.179498170	0.055323079
2020-03-28T15:10:00	0.2774	7.649	170.0	0.724590011	0.929451187	0.017339908	0.178892635	0.055136447
2020-03-28T15:15:00	0.2776	7.633	170.0	0.725228974	0.930455732	0.017368852	0.179191247	0.055228483
2020-03-28T15:20:00	0.2774	7.615	170.0	0.724578473	0.929433050	0.017339386	0.178887245	0.055134786
2020-03-28T15:25:00	0.2779	7.601	170.0	0.726184328	0.931958358	0.017412177	0.179638216	0.055366243
2020-03-28T15:30:00	0.2796	7.587	170.0	0.731652868	0.940574946	0.017661277	0.182208138	0.056158318
2020-03-28T15:35:00	0.2783	7.569	170.0	0.727461594	0.933968554	0.017470189	0.180236722	0.055550708
2020-03-28T15:40:00	0.2785	7.548	170.0	0.728100062	0.934973929	0.017499227	0.180536295	0.055643039
2020-03-28T15:45:00	0.2792	7.531	170.0	0.730348239	0.938516905	0.017601678	0.181593265	0.055968808
2020-03-28T15:50:00	0.2785	7.515	170.0	0.728088534	0.934955773	0.017498702	0.180530883	0.055641372
2020-03-28T15:55:00	0.2785	7.500	170.0	0.728082770	0.934946695	0.017498440	0.180528178	0.055640538
2020-03-28T16:00:00	0.2774	7.482	170.0	0.724532317	0.929360501	0.017337296	0.178865685	0.055128141
2020-03-28T16:05:00	0.2792	7.465	170.0	0.730333838	0.938494195	0.017601020	0.181586483	0.055966718
2020-03-28T16:10:00	0.2774	7.447	170.0	0.724538086	0.929369569	0.017337557	0.178868380	0.055128972
2020-03-28T16:15:00	0.2775	7.427	170.0	0.724863355	0.929880880	0.017352287	0.179020346	0.055175809
2020-03-28T16:20:00	0.2777	7.407	170.0	0.725510922	0.930899110	0.017381632	0.179323097	0.055269120
2020-03-28T16:25:00	0.2775	7.385	170.0	0.724869124	0.929889950	0.017352548	0.179023042	0.055176640
2020-03-28T16:30:00	0.2777	7.362	169.0	0.725516690	0.930908182	0.017381894	0.179325795	0.055269952
2020-03-28T16:35:00	0.2776	7.337	169.0	0.725197247	0.930405845	0.017367414	0.179176414	0.055223911
2020-03-28T16:40:00	0.2776	7.314	169.0	0.725200131	0.930410380	0.017367545	0.179177762	0.055224326
2020-03-28T16:45:00	0.2788	7.290	169.0	0.729069084	0.936500498	0.017543347	0.180991472	0.055783330
2020-03-28T16:50:00	0.2774	7.267	169.0	0.724561164	0.929405844	0.017338602	0.178879160	0.055132294
2020-03-28T16:55:00	0.2789	7.242	169.0	0.729396837	0.937017017	0.017558283	0.181145566	0.055830823
2020-03-28T17:00:00	0.2781	7.219	169.0	0.726823015	0.932963364	0.017441173	0.179937362	0.055458443
2020-03-28T17:05:00	0.2780	7.194	169.0	0.726503685	0.932460838	0.017426672	0.179787763	0.055412334
2020-03-28T17:10:00	0.2789	7.168	169.0	0.729405479	0.937030639	0.017558677	0.181149630	0.055832075
2020-03-28T17:15:00	0.2791	7.141	169.0	0.730052255	0.938050201	0.017588171	0.181453921	0.055925861
2020-03-28T17:20:00	0.2799	7.115	169.0	0.732629600	0.942116711	0.017705967	0.182669200	0.056300422
2020-03-28T17:25:00	0.2796	7.089	169.0	0.731667264	0.940597664	0.017661935	0.182214930	0.056160411
2020-03-28T17:30:00	0.2794	7.063	169.0	0.731026528	0.939586714	0.017632651	0.181912805	0.056067293
2020-03-28T17:35:00	0.2786	7.036	168.0	0.728453836	0.935531158	0.017515327	0.180702402	0.055694235
2020-03-28T17:40:00	0.2802	7.009	168.0	0.733606075	0.943658910	0.017750706	0.183130762	0.056442679
2020-03-28T17:45:00	0.2810	6.981	169.0	0.736180961	0.947729580	0.017868968	0.184350846	0.056818721
2020-03-28T17:50:00	0.2824	6.955	168.0	0.740680582	0.954857091	0.018076638	0.186493341	0.057479059
2020-03-28T17:55:00	0.2824	6.929	168.0	0.740683455	0.954861647	0.018076771	0.186494713	0.057479482
2020-03-28T18:00:00	0.2825	6.902	168.0	0.741007315	0.955375339	0.018091768	0.186649430	0.057527167
2020-03-28T18:05:00	0.2835	6.876	168.0	0.744218553	0.960473850	0.018240827	0.188187245	0.058001137
2020-03-28T18:10:00	0.2838	6.848	168.0	0.745183394	0.962007514	0.018285740	0.188650614	0.058143951
2020-03-28T18:15:00	0.2839	6.820	168.0	0.745506865	0.962521872	0.018300811	0.188806098	0.058191873
2020-03-28T18:20:00	0.2869	6.792	168.0	0.755115054	0.977842189	0.018751507	0.193455836	0.059624967
2020-03-28T18:25:00	0.2838	6.763	167.0	0.745192001	0.962021198	0.018286141	0.188654750	0.058145226
2020-03-28T18:30:00	0.2848	6.734	168.0	0.748399649	0.967125848	0.018435886	0.190199638	0.058621376
2020-03-28T18:35:00	0.2851	6.705	167.0	0.749363413	0.968661358	0.018481006	0.190665132	0.058764845
2020-03-28T18:40:00	0.2851	6.676	167.0	0.749366279	0.968665925	0.018481140	0.190666517	0.058765272
2020-03-28T18:45:00	0.2864	6.647	167.0	0.753530187	0.975309486	0.018676760	0.192684685	0.059387291
2020-03-28T18:50:00	0.2863	6.618	167.0	0.753213133	0.974803084	0.018661826	0.192530614	0.059339805
2020-03-28T18:55:00	0.2868	6.589	167.0	0.754815303	0.977363000	0.018737357	0.193309859	0.059579976
2020-03-28T19:00:00	0.2855	6.560	168.0	0.750658551	0.970726119	0.018541733	0.191291637	0.058957940
2020-03-28T19:05:00	0.2871	6.531	166.0	0.755780281	0.978905921	0.018782928	0.193780009	0.059724881
2020-03-28T19:10:00	0.2859	6.501	167.0	0.751944651	0.972777937	0.018602141	0.191914862	0.059150024
2020-03-28T19:15:00	0.2863	6.471	167.0	0.753227447	0.974825943	0.018662500	0.192537568	0.059341948
2020-03-28T19:20:00	0.2865	6.441	166.0	0.753870111	0.975852516	0.018692778	0.192849943	0.059438225
2020-03-28T19:25:00	0.2866	6.412	167.0	0.754192833	0.976368160	0.018707992	0.193006909	0.059486604
2020-03-28T19:30:00	0.2860	6.383	166.0	0.752276128	0.973307008	0.018617728	0.192075667	0.059199586
2020-03-28T19:35:00	0.2873	6.354	166.0	0.756436810	0.979956128	0.018813967	0.194100229	0.059823576
2020-03-28T19:40:00	0.2857	6.325	165.0	0.751321705	0.971783919	0.018572868	0.191612856	0.059056943
2020-03-28T19:45:00	0.2862	6.296	165.0	0.752924682	0.974342443	0.018648244	0.192390500	0.059296620
2020-03-28T19:50:00	0.2849	6.266	165.0	0.748765833	0.967709172	0.018453022	0.190376431	0.058675865
2020-03-28T19:55:00	0.2858	6.237	165.0	0.751650374	0.972308325	0.018588310	0.191772164	0.059106043
2020-03-28T20:00:00	0.2871	6.208	165.0	0.755811749	0.978956249	0.018784415	0.193795351	0.059729609
2020-03-28T20:05:00	0.2859	6.181	164.0	0.751976150	0.972828210	0.018603622	0.191930140	0.059154733
2020-03-28T20:10:00	0.2867	6.150	165.0	0.754538421	0.976920441	0.018724292	0.193175071	0.059538433
2020-03-28T20:15:00	0.2867	6.120	165.0	0.754541283	0.976925015	0.018724427	0.193176464	0.059538862
2020-03-28T20:20:00	0.2869	6.091	165.0	0.755183722	0.977951975	0.018754749	0.193489285	0.059635277
2020-03-28T20:25:00	0.2868	6.061	165.0	0.754866808	0.977445332	0.018739788	0.193334937	0.059587705
2020-03-28T20:30:00	0.2859	6.034	160.0	0.751990468	0.972851061	0.018604295	0.191937084	0.059156873
2020-03-28T20:35:00	0.2865	6.003	165.0	0.753913043	0.975921108	0.018694801	0.192870821	0.059444660
2020-03-28T20:40:00	0.2857	5.975	165.0	0.751356074	0.971838752	0.018574482	0.191629511	0.059062076
2020-03-28T20:45:00	0.2841	5.944	159.0	0.746234028	0.963678484	0.018334715	0.189155878	0.058299679
2020-03-28T20:50:00	0.2842	5.915	164.0	0.746557408	0.964192997	0.018349804	0.189311541	0.058347656
2020-03-28T20:55:00	0.2869	5.885	164.0	0.755203750	0.977983997	0.018755694	0.193499042	0.059638284
2020-03-28T21:00:00	0.2859	5.855	164.0	0.752007650	0.972878483	0.018605103	0.191945418	0.059159442
2020-03-28T21:05:00	0.2868	5.827	164.0	0.754889699	0.977481925	0.018740868	0.193346084	0.059591141
2020-03-28T21:10:00	0.2869	5.797	159.0	0.755212334	0.977997720	0.018756100	0.193503223	0.059639573
2020-03-28T21:15:00	0.2873	5.767	164.0	0.756494014	0.980047652	0.018816673	0.194128144	0.059832179
2020-03-28T21:20:00	0.2882	5.738	159.0	0.759372625	0.984657035	0.018953100	0.195535639	0.060265983
2020-03-28T21:25:00	0.2874	5.709	164.0	0.756819371	0.980568262	0.018832066	0.194286953	0.059881126
2020-03-28T21:30:00	0.2875	5.679	163.0	0.757141839	0.981084343	0.018847329	0.194444421	0.059929659
2020-03-28T21:35:00	0.2879	5.649	163.0	0.758422862	0.983135412	0.018908029	0.195070649	0.060122669
2020-03-28T21:40:00	0.2868	5.620	163.0	0.754909729	0.977513944	0.018741814	0.193355837	0.059594147
2020-03-28T21:45:00	0.2874	5.590	163.0	0.756830810	0.980586568	0.018832607	0.194292538	0.059882847
2020-03-28T21:50:00	0.2873	5.559	163.0	0.756514035	0.980079685	0.018817620	0.194137914	0.059835191
2020-03-28T21:55:00	0.2868	5.530	163.0	0.754918313	0.977527666	0.018742219	0.193360018	0.059595435
2020-03-28T22:00:00	0.2863	5.500	163.0	0.753321913	0.974976818	0.018666949	0.192583468	0.059356095
2020-03-28T22:05:00	0.2850	5.470	162.0	0.749118161	0.968270533	0.018469519	0.190546618	0.058728318
2020-03-28T22:10:00	0.2865	5.439	163.0	0.753876850	0.975863282	0.018693095	0.192853220	0.059439235
2020-03-28T22:15:00	0.2840	5.410	162.0	0.745828965	0.963034140	0.018315825	0.188960992	0.058239613
2020-03-28T22:20:00	0.2876	5.382	162.0	0.757309036	0.981351962	0.018855246	0.194526094	0.059954831
2020-03-28T22:25:00	0.2854	5.352	162.0	0.750229197	0.970041461	0.018521589	0.191083821	0.058893889
2020-03-28T22:30:00	0.2853	5.322	162.0	0.749866529	0.969463269	0.018504583	0.190908376	0.058839816
2020-03-28T22:35:00	0.2829	5.292	162.0	0.742451767	0.957667583	0.018158735	0.187340322	0.057740107
2020-03-28T22:40:00	0.2830	5.263	162.0	0.742730052	0.958109414	0.018171652	0.187473585	0.057781180
2020-03-28T22:45:00	0.2813	5.233	162.0	0.737229399	0.949388739	0.017917242	0.184848878	0.056972219
2020-03-28T22:50:00	0.2834	5.205	162.0	0.743928064	0.960012263	0.018227316	0.188047857	0.057958176
2020-03-28T22:55:00	0.2835	5.176	161.0	0.744206239	0.960454282	0.018240254	0.188181336	0.057999315
2020-03-28T23:00:00	0.2830	5.145	161.0	0.742559842	0.957839165	0.018163751	0.187392070	0.057756056
2020-03-28T23:05:00	0.2845	5.117	161.0	0.747326867	0.965417612	0.018385732	0.189682207	0.058461898
2020-03-28T23:10:00	0.2854	5.086	161.0	0.750487359	0.970453113	0.018533700	0.191208762	0.058932398
2020-03-28T23:15:00	0.2842	5.059	161.0	0.746600933	0.964262253	0.018351835	0.189332498	0.058354115
2020-03-28T23:20:00	0.2849	5.031	161.0	0.748801241	0.967765583	0.018454680	0.190393531	0.058681135
2020-03-28T23:25:00	0.2845	5.003	161.0	0.747477299	0.965657091	0.018392760	0.189754719	0.058484247
2020-03-28T23:30:00	0.2837	4.974	161.0	0.744870536	0.961510121	0.018271170	0.188500296	0.058097622
2020-03-28T23:35:00	0.2834	4.946	161.0	0.743865945	0.959913567	0.018224427	0.188018057	0.057948991
2020-03-28T23:40:00	0.2832	4.920	161.0	0.743181886	0.958826930	0.018192635	0.187690063	0.057847900
2020-03-28T23:45:00	0.2831	4.891	161.0	0.742818534	0.958249909	0.018175760	0.187515967	0.057794242
2020-03-28T23:50:00	0.2839	4.862	156.0	0.745662273	0.962769020	0.018308054	0.188880823	0.058214904
2020-03-28T23:55:00	0.2821	4.836	160.0	0.739844879	0.953531968	0.018037971	0.186094420	0.057356108
2020-03-29T00:00:00	0.2832	4.808	161.0	0.743332485	0.959066123	0.018199632	0.187762246	0.057870148
2020-03-29T00:05:00	0.2840	4.781	160.0	0.745855288	0.963076008	0.018317052	0.188973653	0.058243515
2020-03-29T00:10:00	0.2831	4.754	159.0	0.742926599	0.958421509	0.018180778	0.187567736	0.057810198
2020-03-29T00:15:00	0.2846	4.725	160.0	0.747693156	0.966000756	0.018402848	0.189858793	0.058516324
2020-03-29T00:20:00	0.2845	4.698	161.0	0.747330242	0.965422985	0.018385890	0.189683833	0.058462400
2020-03-29T00:25:00	0.2840	4.671	159.0	0.746005779	0.963315385	0.018324070	0.189046048	0.058265828
2020-03-29T00:30:00	0.2830	4.643	159.0	0.742756397	0.958151245	0.018172875	0.187486203	0.057785069
2020-03-29T00:35:00	0.2833	4.616	160.0	0.743676206	0.959612122	0.018215606	0.187927049	0.057920942
2020-03-29T00:40:00	0.2846	4.589	160.0	0.747801080	0.966172596	0.018407893	0.189910839	0.058532365
2020-03-29T00:45:00	0.2830	4.565	160.0	0.742628741	0.957948555	0.018166949	0.187425064	0.057766225
2020-03-29T00:50:00	0.2830	4.541	160.0	0.742586188	0.957880993	0.018164974	0.187404686	0.057759944
2020-03-29T00:55:00	0.2824	4.518	160.0	0.740618083	0.954757968	0.018073745	0.186463491	0.057469859
2020-03-29T01:00:00	0.2815	4.493	159.0	0.737685283	0.950110479	0.017938254	0.185065657	0.057039033
2020-03-29T01:05:00	0.2807	4.471	160.0	0.735393146	0.946483494	0.017832740	0.183977089	0.056703526
2020-03-29T01:10:00	0.2808	4.451	159.0	0.735671959	0.946924429	0.017845557	0.184109317	0.056744280
2020-03-29T01:15:00	0.2818	4.432	159.0	0.738842318	0.951943081	0.017991642	0.185616453	0.057208793
2020-03-29T01:20:00	0.2816	4.414	159.0	0.738157337	0.950858014	0.017960025	0.185290268	0.057108260
2020-03-29T01:25:00	0.2816	4.398	159.0	0.738114733	0.950790539	0.017958060	0.185269991	0.057102010
2020-03-29T01:30:00	0.2806	4.383	159.0	0.734858473	0.945638114	0.017808175	0.183723658	0.056625416
2020-03-29T01:35:00	0.2798	4.366	159.0	0.732242880	0.941506177	0.017688266	0.182486577	0.056244135
2020-03-29T01:40:00	0.2811	4.351	159.0	0.736701759	0.948553625	0.017892938	0.184598147	0.056894942
2020-03-29T01:45:00	0.2796	4.337	159.0	0.731835785	0.940863617	0.017669642	0.182294436	0.056184916
2020-03-29T01:50:00	0.2800	4.324	159.0	0.733079962	0.942827888	0.017726594	0.182882001	0.056366009
2020-03-29T01:55:00	0.2806	4.316	159.0	0.734966769	0.945809321	0.017813149	0.183774974	0.056641232
2020-03-29T02:00:00	0.2808	4.307	159.0	0.735567070	0.946758542	0.017840734	0.184059567	0.056728946
2020-03-29T02:05:00	0.2802	4.297	159.0	0.733595257	0.943641819	0.017750210	0.183125645	0.056441102
2020-03-29T02:10:00	0.2802	4.289	159.0	0.733552600	0.943574433	0.017748254	0.183105470	0.056434884
2020-03-29T02:15:00	0.2805	4.279	159.0	0.734474681	0.945031448	0.017790553	0.183541859	0.056569383
2020-03-29T02:20:00	0.2796	4.271	158.0	0.731858818	0.940899967	0.017670695	0.182305305	0.056188265
2020-03-29T02:25:00	0.2807	4.262	159.0	0.735353897	0.946421428	0.017830936	0.183958478	0.056697790
2020-03-29T02:30:00	0.2801	4.251	158.0	0.733381971	0.943304896	0.017740433	0.183024777	0.056410014
2020-03-29T02:35:00	0.2809	4.237	159.0	0.735911506	0.947303322	0.017856572	0.184222965	0.056779307
2020-03-29T02:40:00	0.2816	4.220	158.0	0.738118117	0.950795898	0.017958216	0.185271601	0.057102507
2020-03-29T02:45:00	0.2819	4.202	158.0	0.739039069	0.952254828	0.018000729	0.185710201	0.057237688
2020-03-29T02:50:00	0.2794	4.183	158.0	0.730959127	0.939480391	0.017629572	0.181881039	0.056057503
2020-03-29T02:55:00	0.2805	4.164	158.0	0.734776576	0.945508647	0.017804414	0.183684856	0.056613457
2020-03-29T03:00:00	0.2804	4.144	158.0	0.734412405	0.944933020	0.017787695	0.183512368	0.056560294
2020-03-29T03:05:00	0.2810	4.124	152.0	0.736298537	0.947915595	0.017874378	0.184406661	0.056835924
2020-03-29T03:10:00	0.2808	4.105	153.0	0.735613089	0.946831322	0.017842850	0.184081394	0.056735673
2020-03-29T03:15:00	0.2815	4.088	158.0	0.737819876	0.950323598	0.017944460	0.185129684	0.057058766
2020-03-29T03:20:00	0.2815	4.069	158.0	0.737777268	0.950256129	0.017942495	0.185109414	0.057052519
2020-03-29T03:25:00	0.2816	4.051	157.0	0.738055902	0.950697366	0.017955346	0.185241991	0.057093381
2020-03-29T03:30:00	0.2828	4.037	152.0	0.741866094	0.956737938	0.018131566	0.187060026	0.057653717
2020-03-29T03:35:00	0.2799	4.026	157.0	0.732827371	0.942428994	0.017715024	0.182762633	0.056329218
2020-03-29T03:40:00	0.2827	4.012	157.0	0.741780970	0.956602846	0.018127619	0.187019305	0.057641166
2020-03-29T03:45:00	0.2825	4.001	157.0	0.741096528	0.955516860	0.018095900	0.186692062	0.057540307
2020-03-29T03:50:00	0.2828	3.990	157.0	0.742016746	0.956977041	0.018138553	0.187132104	0.057675932
2020-03-29T03:55:00	0.2836	3.980	153.0	0.744540436	0.960985409	0.018255804	0.188341763	0.058048761
2020-03-29T04:00:00	0.2826	3.976	157.0	0.741289780	0.955823445	0.018104853	0.186784428	0.057568775
2020-03-29T04:05:00	0.2823	3.973	157.0	0.740287098	0.954233091	0.018058426	0.186305455	0.057421151
2020-03-29T04:10:00	0.2797	3.969	152.0	0.731890998	0.940950756	0.017672167	0.182320489	0.056192945
2020-03-29T04:15:00	0.2827	3.967	152.0	0.741812555	0.956652971	0.018129084	0.187034414	0.057645823
2020-03-29T04:20:00	0.2810	3.965	157.0	0.736313424	0.947939150	0.017875063	0.184413730	0.056838102
2020-03-29T04:25:00	0.2807	3.965	153.0	0.735309404	0.946351071	0.017828891	0.183937383	0.056691288
2020-03-29T04:30:00	0.2806	3.963	157.0	0.734948161	0.945779903	0.017812294	0.183766157	0.056638514
2020-03-29T04:35:00	0.2807	3.962	152.0	0.735229883	0.946225330	0.017825237	0.183899684	0.056679669
2020-03-29T04:40:00	0.2811	3.961	157.0	0.736475803	0.948196070	0.017882536	0.184490830	0.056861866
2020-03-29T04:45:00	0.2807	3.962	158.0	0.735150361	0.946099591	0.017821583	0.183861987	0.056668050
2020-03-29T04:50:00	0.2815	3.962	152.0	0.737681571	0.950104603	0.017938083	0.185063892	0.057038489
2020-03-29T04:55:00	0.2813	3.964	157.0	0.737320559	0.949533045	0.017921442	0.184892215	0.056985576
2020-03-29T05:00:00	0.2824	3.963	157.0	0.740813395	0.955067741	0.018082787	0.186556781	0.057498612
2020-03-29T05:05:00	0.2821	3.965	153.0	0.739810585	0.953477604	0.018036385	0.186078060	0.057351065
2020-03-29T05:10:00	0.2808	3.968	157.0	0.735594485	0.946801899	0.017841995	0.184072570	0.056732954
2020-03-29T05:15:00	0.2808	3.973	157.0	0.735554728	0.946739022	0.017840167	0.184053714	0.056727142
2020-03-29T05:20:00	0.2809	3.978	152.0	0.735836404	0.947184527	0.017853118	0.184187330	0.056768324
2020-03-29T05:25:00	0.2786	3.975	157.0	0.728396566	0.935440945	0.017512720	0.180675506	0.055685946
2020-03-29T05:30:00	0.2786	3.970	157.0	0.728356732	0.935378199	0.017510907	0.180656801	0.055680180
2020-03-29T05:35:00	0.2798	3.965	152.0	0.732501451	0.941914381	0.017700100	0.182608673	0.056281766
2020-03-29T05:40:00	0.2788	3.960	157.0	0.729243157	0.936774816	0.017551278	0.181073304	0.055808551
2020-03-29T05:45:00	0.2814	3.957	157.0	0.737565750	0.949921221	0.017932743	0.185008804	0.057021510
2020-03-29T05:50:00	0.2817	3.952	157.0	0.738489712	0.951384471	0.017975363	0.185448505	0.057157030
2020-03-29T05:55:00	0.2819	3.950	152.0	0.739092319	0.952339208	0.018003189	0.185735579	0.057245509
2020-03-29T06:00:00	0.2816	3.950	157.0	0.738089047	0.950749859	0.017956875	0.185257766	0.057098243
2020-03-29T06:05:00	0.2820	3.958	157.0	0.739334012	0.952722221	0.018014355	0.185850784	0.057281017
2020-03-29T06:10:00	0.2807	3.967	157.0	0.735117372	0.946047431	0.017820067	0.183846351	0.056663231
2020-03-29T06:15:00	0.2819	3.976	157.0	0.739254577	0.952596334	0.018010685	0.185812916	0.057269345
2020-03-29T06:20:00	0.2800	3.988	152.0	0.733108415	0.942872825	0.017727897	0.182895450	0.056370154
2020-03-29T06:25:00	0.2820	3.997	158.0	0.739496259	0.952979365	0.018021854	0.185928142	0.057304859
2020-03-29T06:30:00	0.2808	4.006	157.0	0.735601256	0.946812608	0.017842306	0.184075782	0.056733944
2020-03-29T06:35:00	0.2820	4.022	158.0	0.739416827	0.952853472	0.018018183	0.185890268	0.057293186
2020-03-29T06:40:00	0.2822	4.040	158.0	0.740019285	0.953808463	0.018046037	0.186177635	0.057381755
2020-03-29T06:45:00	0.2808	4.061	158.0	0.735481984	0.946623982	0.017836823	0.184019215	0.056716509
2020-03-29T06:50:00	0.2807	4.083	157.0	0.735120758	0.946052785	0.017820223	0.183847956	0.056663725
2020-03-29T06:55:00	0.2821	4.105	158.0	0.739900154	0.953619596	0.018040527	0.186120792	0.057364236
2020-03-29T07:00:00	0.2811	4.119	153.0	0.736648329	0.948469072	0.017890478	0.184572768	0.056887120
2020-03-29T07:05:00	0.2797	4.126	158.0	0.732106920	0.941291560	0.017682045	0.182422394	0.056224354
2020-03-29T07:10:00	0.2788	4.141	157.0	0.729170290	0.936659983	0.017547958	0.181039047	0.055797993
2020-03-29T07:15:00	0.2792	4.162	158.0	0.730418239	0.938627292	0.017604873	0.181626228	0.055978967
2020-03-29T07:20:00	0.2790	4.184	158.0	0.729734588	0.937549392	0.017573682	0.181304433	0.055879787
2020-03-29T07:25:00	0.2792	4.209	153.0	0.730338614	0.938501727	0.017601238	0.181588732	0.055967411
2020-03-29T07:30:00	0.2780	4.238	152.0	0.726434013	0.932351207	0.017423509	0.179755131	0.055402277
2020-03-29T07:35:00	0.2780	4.264	158.0	0.726716380	0.932795544	0.017436330	0.179887398	0.055443043
2020-03-29T07:40:00	0.2797	4.282	159.0	0.732150103	0.941359724	0.017684020	0.182442778	0.056230636
2020-03-29T07:45:00	0.2798	4.299	159.0	0.732432036	0.941804792	0.017696923	0.182575891	0.056271663
2020-03-29T07:50:00	0.2786	4.319	159.0	0.728529635	0.935650564	0.017518778	0.180738002	0.055705208
2020-03-29T07:55:00	0.2801	4.330	159.0	0.733317491	0.943203047	0.017737478	0.182994289	0.056400617
2020-03-29T08:00:00	0.2788	4.351	159.0	0.729094030	0.936539809	0.017544483	0.181003198	0.055786944
2020-03-29T08:05:00	0.2793	4.385	158.0	0.730663885	0.939014697	0.017616088	0.181741927	0.056014627
2020-03-29T08:10:00	0.2785	4.410	159.0	0.728048222	0.934892285	0.017496868	0.180511961	0.055635540
2020-03-29T08:15:00	0.2798	4.440	155.0	0.732515005	0.941935782	0.017700721	0.182615074	0.056283739
2020-03-29T08:20:00	0.2789	4.474	159.0	0.729578698	0.937303661	0.017566573	0.181231098	0.055857185
2020-03-29T08:25:00	0.2797	4.508	159.0	0.732113698	0.941302259	0.017682355	0.182425594	0.056225340
2020-03-29T08:30:00	0.2795	4.536	159.0	0.731430358	0.940223834	0.017651104	0.182103191	0.056125972
2020-03-29T08:35:00	0.2785	4.563	160.0	0.728171126	0.935085853	0.017502460	0.180569655	0.055653321
2020-03-29T08:40:00	0.2765	4.597	154.0	0.721683973	0.924886972	0.017208592	0.177537874	0.054718897
2020-03-29T08:45:00	0.2767	4.635	155.0	0.722289310	0.925837103	0.017235902	0.177819623	0.054805735
2020-03-29T08:50:00	0.2762	4.671	160.0	0.720636075	0.923242958	0.017161371	0.177050700	0.054568745
2020-03-29T08:55:00	0.2769	4.709	159.0	0.723177185	0.927231283	0.017276000	0.178233307	0.054933236
2020-03-29T09:00:00	0.2767	4.738	155.0	0.722492200	0.926155628	0.017245060	0.177914109	0.054834856
2020-03-29T09:05:00	0.2768	4.778	160.0	0.722774868	0.926599461	0.017257824	0.178045793	0.054875443
2020-03-29T09:10:00	0.2779	4.807	155.0	0.726281379	0.932111050	0.017416581	0.179683656	0.055380248
2020-03-29T09:15:00	0.2788	4.821	160.0	0.729140640	0.936613258	0.017546607	0.181025109	0.055793697
2020-03-29T09:20:00	0.2794	4.837	154.0	0.731032324	0.939595857	0.017632915	0.181915537	0.056068135
2020-03-29T09:25:00	0.2780	4.843	161.0	0.726484050	0.932429941	0.017425781	0.179778566	0.055409500
2020-03-29T09:30:00	0.2776	4.863	155.0	0.725155042	0.930339482	0.017365502	0.179156682	0.055217829
2020-03-29T09:35:00	0.2795	4.891	161.0	0.731556540	0.940422939	0.017656873	0.182162701	0.056144314
2020-03-29T09:40:00	0.2769	4.932	161.0	0.723140693	0.927173967	0.017274351	0.178216294	0.054927993
2020-03-29T09:45:00	0.2778	4.964	160.0	0.726002373	0.931672109	0.017403921	0.179553042	0.055339991
2020-03-29T09:50:00	0.2776	5.001	157.0	0.725317909	0.930595579	0.017372883	0.179232831	0.055241299
2020-03-29T09:55:00	0.2766	5.036	162.0	0.722053304	0.925466632	0.017225252	0.177709748	0.054771870
2020-03-29T10:00:00	0.2753	5.061	163.0	0.717816999	0.918824971	0.017034678	0.175743631	0.054165894
2020-03-29T10:05:00	0.2751	5.151	162.0	0.717096847	0.917697480	0.017002393	0.175410557	0.054063237
2020-03-29T10:10:00	0.2742	5.239	163.0	0.714437393	0.913537686	0.016883451	0.174183454	0.053685032
2020-03-29T10:15:00	0.2711	5.317	164.0	0.704327741	0.897780930	0.016435347	0.169560446	0.052260176
2020-03-29T10:20:00	0.2720	5.365	157.0	0.707169751	0.902201449	0.016560672	0.170853396	0.052658676
2020-03-29T10:25:00	0.2715	5.369	162.0	0.705475452	0.899565257	0.016485897	0.170081962	0.052420913
2020-03-29T10:30:00	0.2721	5.356	159.0	0.707668890	0.902978546	0.016582734	0.171081013	0.052728830
2020-03-29T10:35:00	0.2708	5.353	159.0	0.703381741	0.896311061	0.016393743	0.169131225	0.052127886
2020-03-29T10:40:00	0.2701	5.361	157.0	0.701036843	0.892670976	0.016290858	0.168069776	0.051800737
2020-03-29T10:45:00	0.2684	5.370	163.0	0.695442380	0.884005736	0.016046777	0.165551644	0.051024624
2020-03-29T10:50:00	0.2687	5.372	163.0	0.696342555	0.885398180	0.016085919	0.165955466	0.051149086
2020-03-29T10:55:00	0.2682	5.377	164.0	0.694968265	0.883272629	0.016026182	0.165339163	0.050959136
2020-03-29T11:00:00	0.2690	5.390	164.0	0.697492761	0.887178410	0.016136007	0.166472211	0.051308352
2020-03-29T11:05:00	0.2685	5.428	162.0	0.695793997	0.884549555	0.016062061	0.165709319	0.051073221
2020-03-29T11:10:00	0.2673	5.453	158.0	0.691818248	0.878406818	0.015889699	0.163931100	0.050525157
2020-03-29T11:15:00	0.2657	5.464	164.0	0.686861171	0.870767043	0.015676169	0.161728145	0.049846185
2020-03-29T11:20:00	0.2667	5.474	164.0	0.690042176	0.875667118	0.015813018	0.163139995	0.050281331
2020-03-29T11:25:00	0.2659	5.470	162.0	0.687363079	0.871539610	0.015697720	0.161950481	0.049914711
2020-03-29T11:30:00	0.2668	5.460	162.0	0.690218248	0.875938598	0.015820611	0.163218331	0.050305475
2020-03-29T11:35:00	0.2661	5.460	163.0	0.687864918	0.872312288	0.015719283	0.162172947	0.049983277
2020-03-29T11:40:00	0.2657	5.455	164.0	0.686813175	0.870693176	0.015674109	0.161706892	0.049839635
2020-03-29T11:45:00	0.2643	5.445	163.0	0.682175447	0.863564999	0.015475727	0.159660224	0.049208832
2020-03-29T11:50:00	0.2670	5.432	162.0	0.690895736	0.876983445	0.015849846	0.163519939	0.050398433
2020-03-29T11:55:00	0.2649	5.418	162.0	0.683982112	0.866339630	0.015552850	0.160455887	0.049454063
2020-03-29T12:00:00	0.2650	5.404	163.0	0.684559205	0.867226510	0.015577528	0.160710481	0.049532531
2020-03-29T12:05:00	0.2638	5.392	162.0	0.680571219	0.861103624	0.015407415	0.158955460	0.048991616
2020-03-29T12:10:00	0.2638	5.379	163.0	0.680496348	0.860988803	0.015404231	0.158922607	0.048981491
2020-03-29T12:15:00	0.2634	5.372	164.0	0.679116090	0.858872931	0.015345589	0.158317616	0.048795027
2020-03-29T12:20:00	0.2637	5.369	159.0	0.680346601	0.860759168	0.015397863	0.158856912	0.048961243
2020-03-29T12:25:00	0.2613	5.359	161.0	0.672432062	0.848649837	0.015063277	0.155405047	0.047897345
2020-03-29T12:30:00	0.2628	5.351	161.0	0.677258891	0.856028522	0.015266870	0.157505488	0.048544721
2020-03-29T12:35:00	0.2616	5.348	161.0	0.673262905	0.849918504	0.015098219	0.155765541	0.048008452
2020-03-29T12:40:00	0.2618	5.343	161.0	0.673841698	0.850802650	0.015122586	0.156016932	0.048085934
2020-03-29T12:45:00	0.2614	5.337	155.0	0.672785901	0.849190065	0.015078153	0.155558521	0.047944647
2020-03-29T12:50:00	0.2596	5.326	161.0	0.666820464	0.840096664	0.014828385	0.152981713	0.047150450
2020-03-29T12:55:00	0.2602	5.317	157.0	0.668709880	0.842973484	0.014907256	0.153795414	0.047401240
2020-03-29T13:00:00	0.2599	5.313	163.0	0.667652591	0.841363281	0.014863094	0.153339800	0.047260816
2020-03-29T13:05:00	0.2600	5.312	161.0	0.668232279	0.842246000	0.014887299	0.153589515	0.047337780
2020-03-29T13:10:00	0.2584	5.316	161.0	0.662915131	0.834160116	0.014666056	0.151307000	0.046634287
2020-03-29T13:15:00	0.2589	5.319	161.0	0.664478875	0.836535615	0.014730942	0.151976416	0.046840608
2020-03-29T13:20:00	0.2581	5.319	160.0	0.661780893	0.832438395	0.014619086	0.150822417	0.046484934
2020-03-29T13:25:00	0.2580	5.316	162.0	0.661705633	0.832324193	0.014615972	0.150790293	0.046475033
2020-03-29T13:30:00	0.2569	5.313	156.0	0.658020796	0.826738616	0.014463940	0.149221803	0.045991609
2020-03-29T13:35:00	0.2561	5.311	157.0	0.655317991	0.822649014	0.014352954	0.148076778	0.045638701
2020-03-29T13:40:00	0.2554	5.306	161.0	0.652941947	0.819058986	0.014255754	0.147073989	0.045329632
2020-03-29T13:45:00	0.2557	5.297	160.0	0.653852696	0.820434491	0.014292971	0.147457942	0.045447970
2020-03-29T13:50:00	0.2562	5.289	163.0	0.655748891	0.823300589	0.014370618	0.148259016	0.045694869
2020-03-29T13:55:00	0.2565	5.279	160.0	0.656658933	0.824677207	0.014407961	0.148644282	0.045813611
2020-03-29T14:00:00	0.2540	5.270	156.0	0.648363272	0.812154527	0.014069422	0.145151630	0.044737142
2020-03-29T14:05:00	0.2543	5.265	161.0	0.649275178	0.813528220	0.014106430	0.145533442	0.044854820
2020-03-29T14:10:00	0.2552	5.259	161.0	0.652489261	0.818375556	0.014237275	0.146883340	0.045270872
2020-03-29T14:15:00	0.2544	5.250	160.0	0.649782310	0.814292469	0.014127034	0.145746003	0.044920334
2020-03-29T14:20:00	0.2532	5.245	163.0	0.645755865	0.808230646	0.013963883	0.144062805	0.044401555
2020-03-29T14:25:00	0.2530	5.237	156.0	0.645021346	0.807126314	0.013934227	0.143756848	0.044307257
2020-03-29T14:30:00	0.2528	5.228	156.0	0.644616221	0.806517416	0.013917884	0.143588243	0.044255291
2020-03-29T14:35:00	0.2540	5.217	157.0	0.648492871	0.812349712	0.014074678	0.145205861	0.044753857
2020-03-29T14:40:00	0.2543	5.203	162.0	0.649404745	0.813723456	0.014111693	0.145587734	0.044871553
2020-03-29T14:45:00	0.2540	5.189	163.0	0.648341796	0.812122184	0.014068551	0.145142645	0.044734373
2020-03-29T14:50:00	0.2540	5.174	161.0	0.648266256	0.812008424	0.014065487	0.145111041	0.044724632
2020-03-29T14:55:00	0.2540	5.160	156.0	0.648519902	0.812390424	0.014075775	0.145217174	0.044757343
2020-03-29T15:00:00	0.2543	5.145	161.0	0.649431768	0.813764178	0.014112791	0.145599059	0.044875044
2020-03-29T15:05:00	0.2521	5.125	160.0	0.642108847	0.802751961	0.013816958	0.142547013	0.043934374
2020-03-29T15:10:00	0.2540	5.101	156.0	0.648293288	0.812049133	0.014066584	0.145122350	0.044728118
2020-03-29T15:15:00	0.2544	5.083	156.0	0.649863372	0.814414649	0.014130328	0.145779994	0.044930810
2020-03-29T15:20:00	0.2530	5.063	160.0	0.645178121	0.807361983	0.013940554	0.143822123	0.044327375
2020-03-29T15:25:00	0.2555	5.043	157.0	0.653330238	0.819645335	0.014271615	0.147237620	0.045380065
2020-03-29T15:30:00	0.2538	5.018	157.0	0.647661878	0.811098432	0.014040991	0.144858315	0.044646740
2020-03-29T15:35:00	0.2558	4.998	157.0	0.654494115	0.821403652	0.014319211	0.147728665	0.045531409
2020-03-29T15:40:00	0.2548	4.965	160.0	0.651130861	0.816325803	0.014181898	0.146312026	0.045094787
2020-03-29T15:45:00	0.2573	4.934	156.0	0.659269553	0.828630215	0.014515369	0.149752388	0.046155140
2020-03-29T15:50:00	0.2572	4.899	160.0	0.658866025	0.828018812	0.014498740	0.149580825	0.046102263
2020-03-29T15:55:00	0.2573	4.857	159.0	0.659118927	0.828401979	0.014509161	0.149688337	0.046135399
2020-03-29T16:00:00	0.2553	4.822	159.0	0.652802155	0.818847920	0.014250046	0.147015102	0.045311482
2020-03-29T16:05:00	0.2569	4.782	159.0	0.658027043	0.826748076	0.014464197	0.149224454	0.045992426
2020-03-29T16:10:00	0.2578	4.724	154.0	0.660948828	0.831176059	0.014584680	0.150467450	0.046375530
2020-03-29T16:15:00	0.2587	4.666	158.0	0.663868257	0.835607769	0.014705587	0.151714835	0.046759986
2020-03-29T16:20:00	0.2600	4.619	158.0	0.668095153	0.842037166	0.014881571	0.153530425	0.047319568
2020-03-29T16:25:00	0.2619	4.552	152.0	0.674278693	0.851470382	0.015140997	0.156206877	0.048144476
2020-03-29T16:30:00	0.2630	4.498	152.0	0.677840525	0.856919010	0.015291501	0.157759593	0.048623039
2020-03-29T16:35:00	0.2635	4.447	153.0	0.679441149	0.859371084	0.015359389	0.158459986	0.048838907
2020-03-29T16:40:00	0.2640	4.407	156.0	0.681041070	0.861824289	0.015427406	0.159161703	0.049055183
2020-03-29T16:45:00	0.2642	4.374	151.0	0.681988053	0.863277364	0.015467739	0.159577813	0.049183432
2020-03-29T16:50:00	0.2643	4.340	157.0	0.682282605	0.863729490	0.015480296	0.159707358	0.049223359
2020-03-29T16:55:00	0.2648	4.306	152.0	0.683881281	0.866184702	0.015548540	0.160411426	0.049440359
2020-03-29T17:00:00	0.2664	4.283	150.0	0.689061700	0.874155843	0.015770771	0.162704133	0.050146994
2020-03-29T17:05:00	0.2661	4.252	157.0	0.688053487	0.872602682	0.015727390	0.162256582	0.050009054
2020-03-29T17:10:00	0.2666	4.213	155.0	0.689649641	0.875061977	0.015796097	0.162965423	0.050227526
2020-03-29T17:15:00	0.2665	4.182	156.0	0.689292641	0.874511733	0.015780716	0.162806740	0.050178618
2020-03-29T17:20:00	0.2680	4.145	150.0	0.694140358	0.881992934	0.015990251	0.164968471	0.050844885
2020-03-29T17:25:00	0.2704	4.083	155.0	0.701902252	0.894013830	0.016328789	0.168461103	0.051921348
2020-03-29T17:30:00	0.2707	4.008	154.0	0.702843857	0.895475658	0.016370112	0.168887432	0.052052747
2020-03-29T17:35:00	0.2713	3.946	155.0	0.705081848	0.898953198	0.016468552	0.169903014	0.052365759
2020-03-29T17:40:00	0.2693	3.927	151.0	0.698562700	0.888835436	0.016182673	0.166953656	0.051456738
2020-03-29T17:45:00	0.2717	3.909	149.0	0.706315268	0.900871631	0.016522938	0.170464109	0.052538694
2020-03-29T17:50:00	0.2733	3.892	155.0	0.711464151	0.908894388	0.016751000	0.172816981	0.053263872
2020-03-29T17:55:00	0.2705	3.883	154.0	0.702362505	0.894728270	0.016348981	0.168669420	0.051985553
2020-03-29T18:00:00	0.2721	3.872	148.0	0.707516910	0.902741910	0.016576015	0.171011690	0.052707464
2020-03-29T18:05:00	0.2723	3.865	155.0	0.708133264	0.903701713	0.016603274	0.171292921	0.052794142
2020-03-29T18:10:00	0.2724	3.852	154.0	0.708425724	0.904157255	0.016616217	0.171426450	0.052835297
2020-03-29T18:15:00	0.2734	3.822	150.0	0.711631028	0.909154796	0.016758420	0.172893525	0.053287464
2020-03-29T18:20:00	0.2739	3.818	151.0	0.713216979	0.911630838	0.016829018	0.173621872	0.053511947
2020-03-29T18:25:00	0.2733	3.816	151.0	0.711244824	0.908552172	0.016741252	0.172716407	0.053232874
2020-03-29T18:30:00	0.2730	3.819	151.0	0.710566312	0.907493753	0.016711112	0.172405466	0.053137039
2020-03-29T18:35:00	0.2745	3.813	150.0	0.715386089	0.915020884	0.016925830	0.174620668	0.053819786
2020-03-29T18:40:00	0.2747	3.800	148.0	0.716001131	0.915982864	0.016953334	0.174904426	0.053907243
2020-03-29T18:45:00	0.2765	3.782	154.0	0.721781873	0.925040613	0.017213007	0.177583424	0.054732936
2020-03-29T18:50:00	0.2765	3.773	153.0	0.721750629	0.924991578	0.017211598	0.177568886	0.054728455
2020-03-29T18:55:00	0.2766	3.765	155.0	0.722042013	0.925448909	0.017224742	0.177704492	0.054770250
2020-03-29T19:00:00	0.2767	3.760	150.0	0.722333375	0.925906278	0.017237891	0.177840142	0.054812059
2020-03-29T19:05:00	0.2770	3.741	153.0	0.723269786	0.927376728	0.017280185	0.178276481	0.054946543
2020-03-29T19:10:00	0.2790	3.697	152.0	0.729683173	0.937468343	0.017571337	0.181280244	0.055872332
2020-03-29T19:15:00	0.2778	3.641	150.0	0.725786534	0.931332592	0.017394130	0.179452034	0.055308860
2020-03-29T19:20:00	0.2796	3.621	147.0	0.731873833	0.940923665	0.017671382	0.182312390	0.056190449
2020-03-29T19:25:00	0.2779	3.605	147.0	0.726368646	0.932248355	0.017420542	0.179724519	0.055392842
2020-03-29T19:30:00	0.2790	3.589	148.0	0.729880408	0.937779269	0.017580332	0.181373045	0.055900934
2020-03-29T19:35:00	0.2806	3.576	150.0	0.734996664	0.945856585	0.017814522	0.183789142	0.056645598
2020-03-29T19:40:00	0.2783	3.562	149.0	0.727563792	0.934129459	0.017474835	0.180284656	0.055565482
2020-03-29T19:45:00	0.2787	3.555	150.0	0.728820925	0.936109478	0.017532042	0.180874847	0.055747384
2020-03-29T19:50:00	0.2788	3.554	146.0	0.729111755	0.936567740	0.017545291	0.181011530	0.055789512
2020-03-29T19:55:00	0.2784	3.549	151.0	0.727792334	0.934489315	0.017485228	0.180391874	0.055598527
2020-03-29T20:00:00	0.2784	3.534	148.0	0.727761140	0.934440195	0.017483809	0.180377238	0.055594016
2020-03-29T20:05:00	0.2809	3.521	147.0	0.735774260	0.947086233	0.017850261	0.184157847	0.056759237
2020-03-29T20:10:00	0.2816	3.508	151.0	0.738313669	0.951105620	0.017967238	0.185364686	0.057131196
2020-03-29T20:15:00	0.2806	3.492	152.0	0.735069089	0.945971092	0.017817849	0.183823466	0.056656178
2020-03-29T20:20:00	0.2814	3.480	147.0	0.737608979	0.949989664	0.017934736	0.185029364	0.057027847
2020-03-29T20:25:00	0.2824	3.465	147.0	0.740789182	0.955029335	0.018081666	0.186545214	0.057495047
2020-03-29T20:30:00	0.2832	3.445	153.0	0.743325182	0.959054524	0.018199292	0.187758745	0.057869069
2020-03-29T20:35:00	0.2819	3.428	150.0	0.739121673	0.952385721	0.018004545	0.185749568	0.057249821
2020-03-29T20:40:00	0.2833	3.409	148.0	0.743583821	0.959465359	0.018211312	0.187882746	0.057907287
2020-03-29T20:45:00	0.2821	3.402	148.0	0.739701703	0.953305005	0.018031351	0.186026121	0.057335057
2020-03-29T20:50:00	0.2836	3.392	148.0	0.744483849	0.960895470	0.018253170	0.188314594	0.058040387
2020-03-29T20:55:00	0.2843	3.380	147.0	0.746696873	0.964414920	0.018356313	0.189378696	0.058368353
2020-03-29T21:00:00	0.2842	3.373	152.0	0.746345334	0.963855567	0.018339908	0.189209449	0.058316190
2020-03-29T21:05:00	0.2835	3.370	146.0	0.744390685	0.960747403	0.018248835	0.188269868	0.058026602
2020-03-29T21:10:00	0.2833	3.362	146.0	0.743718201	0.959678839	0.018217558	0.187947190	0.057927149
2020-03-29T21:15:00	0.2833	3.355	152.0	0.743687141	0.959629494	0.018216114	0.187932294	0.057922558
2020-03-29T21:20:00	0.2838	3.351	153.0	0.745259471	0.962128478	0.018289284	0.188687176	0.058155220
2020-03-29T21:25:00	0.2826	3.344	152.0	0.741379095	0.955965152	0.018108991	0.186827125	0.057581934
2020-03-29T21:30:00	0.2817	3.342	152.0	0.738458389	0.951334855	0.017973917	0.185433590	0.057152433
2020-03-29T21:35:00	0.2823	3.342	147.0	0.740353966	0.954339123	0.018061520	0.186337377	0.057430989
2020-03-29T21:40:00	0.2799	3.344	152.0	0.732610106	0.942085933	0.017705075	0.182659992	0.056297584
2020-03-29T21:45:00	0.2811	3.345	151.0	0.736437365	0.948135252	0.017880767	0.184472578	0.056856240
2020-03-29T21:50:00	0.2810	3.342	148.0	0.736084860	0.947577547	0.017864546	0.184305232	0.056804662
2020-03-29T21:55:00	0.2812	3.336	152.0	0.737017814	0.949053826	0.017907494	0.184748312	0.056941224
2020-03-29T22:00:00	0.2787	3.329	147.0	0.728945006	0.936304984	0.017537694	0.180933156	0.055765356
2020-03-29T22:05:00	0.2812	3.314	147.0	0.736756354	0.948640022	0.017895452	0.184624082	0.056902935
2020-03-29T22:10:00	0.2833	3.302	151.0	0.743589234	0.959473958	0.018211563	0.187885342	0.057908087
2020-03-29T22:15:00	0.2805	3.286	149.0	0.734688377	0.945369224	0.017800364	0.183643073	0.056600579
2020-03-29T22:20:00	0.2816	3.274	145.0	0.738314360	0.951106715	0.017967270	0.185365015	0.057131298
2020-03-29T22:25:00	0.2818	3.267	151.0	0.738726496	0.951759580	0.017986294	0.185561277	0.057191788
2020-03-29T22:30:00	0.2836	3.264	151.0	0.744593899	0.961070385	0.018258292	0.188367434	0.058056673
2020-03-29T22:35:00	0.2816	3.263	150.0	0.738266010	0.951030133	0.017965039	0.185341997	0.057124204
2020-03-29T22:40:00	0.2829	3.256	149.0	0.742209404	0.957282842	0.018147489	0.187224303	0.057704348
2020-03-29T22:45:00	0.2848	3.245	149.0	0.748391703	0.967113192	0.018435514	0.190195803	0.058620194
2020-03-29T22:50:00	0.2836	3.228	149.0	0.744636430	0.961137985	0.018260272	0.188387857	0.058062967
2020-03-29T22:55:00	0.2825	3.214	148.0	0.741198354	0.955678398	0.018100617	0.186740727	0.057555306
2020-03-29T23:00:00	0.2852	3.196	146.0	0.749624646	0.969077706	0.018493246	0.190791411	0.058803766
2020-03-29T23:05:00	0.2836	3.177	152.0	0.744588161	0.961061263	0.018258025	0.188364679	0.058055823
2020-03-29T23:10:00	0.2854	3.158	151.0	0.750446382	0.970387769	0.018531777	0.191188928	0.058926284
2020-03-29T23:15:00	0.2843	3.143	148.0	0.746693170	0.964409028	0.018356140	0.189376913	0.058367804
2020-03-29T23:20:00	0.2851	3.130	148.0	0.749346873	0.968634998	0.018480231	0.190657137	0.058762381
2020-03-29T23:25:00	0.2841	3.113	149.0	0.746233665	0.963677907	0.018334698	0.189155703	0.058299625
2020-03-29T23:30:00	0.2860	3.095	149.0	0.752409327	0.973519634	0.018623993	0.192140304	0.059219508
2020-03-29T23:35:00	0.2858	3.078	148.0	0.751539842	0.972131955	0.018583116	0.191718580	0.059089528
2020-03-29T23:40:00	0.2853	3.065	146.0	0.750029806	0.969723563	0.018512239	0.190987353	0.058864157
2020-03-29T23:45:00	0.2874	3.053	147.0	0.756838521	0.980598908	0.018832972	0.194296303	0.059884007
2020-03-29T23:50:00	0.2873	3.041	145.0	0.756289742	0.979720840	0.018807012	0.194028473	0.059801460
2020-03-29T23:55:00	0.2873	3.025	148.0	0.756380257	0.979865649	0.018811292	0.194072635	0.059815071
2020-03-30T00:00:00	0.2886	3.013	149.0	0.760623956	0.986663024	0.019012570	0.196149180	0.060455082
2020-03-30T00:05:00	0.2876	2.997	148.0	0.757520093	0.981689821	0.018865241	0.194629218	0.059986615
2020-03-30T00:10:00	0.2880	2.981	150.0	0.758569123	0.983369686	0.018914966	0.195142217	0.060144727
2020-03-30T00:15:00	0.2884	2.964	151.0	0.759937231	0.985561974	0.018979921	0.195812344	0.060351266
2020-03-30T00:20:00	0.2890	2.949	147.0	0.761943272	0.988779502	0.019075380	0.196797175	0.060654800
2020-03-30T00:25:00	0.2871	2.933	146.0	0.755644631	0.978688977	0.018776519	0.193713881	0.059704500
2020-03-30T00:30:00	0.2867	2.921	146.0	0.754456084	0.976788850	0.018720408	0.193134999	0.059526082
2020-03-30T00:35:00	0.2864	2.911	146.0	0.753587073	0.975400354	0.018679440	0.192712335	0.059395813
2020-03-30T00:40:00	0.2878	2.899	146.0	0.758153447	0.982703927	0.018895254	0.194938856	0.060082049
2020-03-30T00:45:00	0.2875	2.883	148.0	0.756965694	0.980802427	0.018838991	0.194358397	0.059903146
2020-03-30T00:50:00	0.2888	2.868	148.0	0.761208732	0.987600945	0.019040396	0.196436257	0.060543562
2020-03-30T00:55:00	0.2880	2.856	147.0	0.758744325	0.983650341	0.018923278	0.195227966	0.060171155
2020-03-30T01:00:00	0.2880	2.842	148.0	0.758515316	0.983283499	0.018912414	0.195115887	0.060136611
2020-03-30T01:05:00	0.2895	2.831	147.0	0.763394791	0.991109850	0.019144612	0.197511430	0.060874941
2020-03-30T01:10:00	0.2861	2.818	147.0	0.752621530	0.973858406	0.018633977	0.192243304	0.059251253
2020-03-30T01:15:00	0.2879	2.806	147.0	0.758467225	0.983206470	0.018910133	0.195092356	0.060129359
2020-03-30T01:20:00	0.2879	2.797	147.0	0.758238200	0.982839657	0.018899272	0.194980310	0.060094825
2020-03-30T01:25:00	0.2880	2.787	145.0	0.758648149	0.983496275	0.018918715	0.195180893	0.060156647
2020-03-30T01:30:00	0.2871	2.775	145.0	0.755862372	0.979037215	0.018786808	0.193820033	0.059737217
2020-03-30T01:35:00	0.2862	2.763	145.0	0.752754572	0.974070821	0.018640238	0.192307895	0.059271161
2020-03-30T01:40:00	0.2861	2.749	145.0	0.752525198	0.973704611	0.018629444	0.192196542	0.059236841
2020-03-30T01:45:00	0.2859	2.734	145.0	0.751975788	0.972827631	0.018603605	0.191929964	0.059154679
2020-03-30T01:50:00	0.2876	2.718	145.0	0.757502937	0.981662356	0.018864429	0.194620834	0.059984031
2020-03-30T01:55:00	0.2880	2.700	145.0	0.758551971	0.983342213	0.018914152	0.195133824	0.060142140
2020-03-30T02:00:00	0.2872	2.681	144.0	0.756085821	0.979394626	0.018797370	0.193929000	0.059770801
2020-03-30T02:05:00	0.2884	2.662	144.0	0.760010514	0.985679451	0.018983403	0.195848274	0.060362340
2020-03-30T02:10:00	0.2886	2.643	144.0	0.760420270	0.986336403	0.019002883	0.196049241	0.060424280
2020-03-30T02:15:00	0.2883	2.623	144.0	0.759552637	0.984945524	0.018961649	0.195623837	0.060293166
2020-03-30T02:20:00	0.2865	2.605	144.0	0.753889784	0.975883947	0.018693705	0.192859510	0.059441174
2020-03-30T02:25:00	0.2879	2.586	145.0	0.758455791	0.983188155	0.018909591	0.195086761	0.060127634
2020-03-30T02:30:00	0.2866	2.565	144.0	0.754070928	0.976173370	0.018702244	0.192947608	0.059468327
2020-03-30T02:35:00	0.2859	2.544	145.0	0.751921886	0.972741607	0.018601071	0.191903821	0.059146621
2020-03-30T02:40:00	0.2843	2.522	146.0	0.746888492	0.964719862	0.018365258	0.189470984	0.058396797
2020-03-30T02:45:00	0.2885	2.500	147.0	0.760095225	0.985815254	0.018987430	0.195889812	0.060375142
2020-03-30T02:50:00	0.2864	2.477	147.0	0.753473590	0.975219083	0.018674093	0.192657177	0.059378813
2020-03-30T02:55:00	0.2878	2.453	146.0	0.758040103	0.982522417	0.018889881	0.194883424	0.060064964
2020-03-30T03:00:00	0.2876	2.429	146.0	0.757491499	0.981644046	0.018863887	0.194615245	0.059982309
2020-03-30T03:05:00	0.2885	2.405	146.0	0.760137580	0.985883157	0.018989443	0.195910582	0.060381544
2020-03-30T03:10:00	0.2884	2.380	146.0	0.759908656	0.985516167	0.018978563	0.195798334	0.060346948
2020-03-30T03:15:00	0.2892	2.356	146.0	0.762553037	0.989758225	0.019104447	0.197097055	0.060747227
2020-03-30T03:20:00	0.2895	2.331	144.0	0.763600665	0.991440523	0.019154442	0.197612848	0.060906199
2020-03-30T03:25:00	0.2881	2.307	144.0	0.758902368	0.983903533	0.018930777	0.195305334	0.060195001
2020-03-30T03:30:00	0.2886	2.284	144.0	0.760589671	0.986608044	0.019010939	0.196132357	0.060449897
2020-03-30T03:35:00	0.2881	2.263	143.0	0.759083271	0.984193374	0.018939363	0.195393913	0.060222301
2020-03-30T03:40:00	0.2899	2.241	143.0	0.764599990	0.993046163	0.019202198	0.198105534	0.061058050
2020-03-30T03:45:00	0.2878	2.217	143.0	0.757986288	0.982436243	0.018887331	0.194857109	0.060056853
2020-03-30T03:50:00	0.2891	2.191	143.0	0.762228176	0.989236756	0.019088958	0.196937259	0.060697976
2020-03-30T03:55:00	0.2878	2.164	143.0	0.758167235	0.982726007	0.018895908	0.194945599	0.060084127
2020-03-30T04:00:00	0.2908	2.137	143.0	0.767511834	0.997729755	0.019341714	0.199544896	0.061501675
2020-03-30T04:05:00	0.2911	2.111	143.0	0.768687714	0.999623252	0.019398208	0.200127739	0.061681313
2020-03-30T04:10:00	0.2908	2.084	143.0	0.767632943	0.997924719	0.019347528	0.199604883	0.061520164
2020-03-30T04:15:00	0.2905	2.057	143.0	0.766577878	0.996226700	0.019296906	0.199082618	0.061359196
2020-03-30T04:20:00	0.2897	2.031	143.0	0.763927757	0.991965971	0.019170066	0.197774037	0.060955879
2020-03-30T04:25:00	0.2911	2.003	143.0	0.768611244	0.999500076	0.019394532	0.200089807	0.061669622
2020-03-30T04:30:00	0.2904	1.977	142.0	0.766281385	0.995749705	0.019282693	0.198935985	0.061314003
2020-03-30T04:35:00	0.2923	1.952	143.0	0.772235442	1.005343545	0.019569195	0.201891775	0.062225006
2020-03-30T04:40:00	0.2925	1.926	143.0	0.773091620	1.006725712	0.019610580	0.202318742	0.062356601
2020-03-30T04:45:00	0.2924	1.902	142.0	0.772674695	1.006052569	0.019590421	0.202110765	0.062292501
2020-03-30T04:50:00	0.2929	1.877	142.0	0.774167139	1.008462894	0.019662635	0.202855782	0.062522122
2020-03-30T04:55:00	0.2939	1.852	142.0	0.777566697	1.013960655	0.019827662	0.204558336	0.063046866
2020-03-30T05:00:00	0.2959	1.828	143.0	0.783820403	1.024101091	0.020133186	0.207710372	0.064018354
2020-03-30T05:05:00	0.2945	1.806	142.0	0.779276452	1.016729568	0.019910942	0.205417513	0.063311673
2020-03-30T05:10:00	0.2954	1.781	142.0	0.782353977	1.021720133	0.020061318	0.206968917	0.063789830
2020-03-30T05:15:00	0.2929	1.757	144.0	0.774310304	1.008694213	0.019669570	0.202927327	0.062544173
2020-03-30T05:20:00	0.2936	1.734	144.0	0.776438087	1.012134326	0.019772793	0.203992259	0.062872395
2020-03-30T05:25:00	0.2941	1.712	142.0	0.778246876	1.015061878	0.019860770	0.204899903	0.063152140
2020-03-30T05:30:00	0.2953	1.691	142.0	0.781960293	1.021081257	0.020042047	0.206770106	0.063728555
2020-03-30T05:35:00	0.2942	1.668	142.0	0.778367642	1.015257445	0.019866651	0.204960581	0.063170842
2020-03-30T05:40:00	0.2939	1.648	143.0	0.777315567	1.013554177	0.019815446	0.204432304	0.063008022
2020-03-30T05:45:00	0.2955	1.626	144.0	0.782617465	1.022147803	0.020074221	0.207102036	0.063830859
2020-03-30T05:50:00	0.2936	1.606	141.0	0.776482600	1.012206336	0.019774955	0.204014569	0.062879272
2020-03-30T05:55:00	0.2933	1.586	142.0	0.775430002	1.010503991	0.019723852	0.203487348	0.062716777
2020-03-30T06:00:00	0.2957	1.566	141.0	0.783274523	1.023214550	0.020106417	0.207434196	0.063933234
2020-03-30T06:05:00	0.2969	1.549	141.0	0.786983029	1.029242630	0.020288658	0.209314343	0.064512713
2020-03-30T06:10:00	0.2950	1.534	142.0	0.780855221	1.019288670	0.019988008	0.206212595	0.063556725
2020-03-30T06:15:00	0.2914	1.519	142.0	0.769624323	1.001132336	0.019443271	0.200592638	0.061824599
2020-03-30T06:20:00	0.2946	1.505	141.0	0.779705354	1.017424575	0.019931862	0.205633348	0.063378195
2020-03-30T06:25:00	0.2930	1.494	141.0	0.774520268	1.009033495	0.019679743	0.203032278	0.062576520
2020-03-30T06:30:00	0.2932	1.480	142.0	0.775375930	1.010416569	0.019721229	0.203460285	0.062708436
2020-03-30T06:35:00	0.2929	1.470	142.0	0.774323024	1.008714766	0.019670186	0.202933684	0.062546132
2020-03-30T06:40:00	0.2939	1.459	142.0	0.777404572	1.013698233	0.019819775	0.204476967	0.063021787
2020-03-30T06:45:00	0.2937	1.450	141.0	0.776670188	1.012509822	0.019784070	0.204108605	0.062908254
2020-03-30T06:50:00	0.2931	1.443	147.0	0.774981521	1.009778973	0.019702100	0.203262939	0.062647612
2020-03-30T06:55:00	0.2931	1.436	141.0	0.774882913	1.009619586	0.019697320	0.203213615	0.062632410
2020-03-30T07:00:00	0.2937	1.432	141.0	0.776692443	1.012545829	0.019785152	0.204119763	0.062911693
2020-03-30T07:05:00	0.2938	1.429	141.0	0.777229730	1.013415253	0.019811271	0.204389235	0.062994747
2020-03-30T07:10:00	0.2943	1.425	141.0	0.778720380	1.015828735	0.019883836	0.205137866	0.063225483
2020-03-30T07:15:00	0.2954	1.424	141.0	0.782115858	1.021333694	0.020049661	0.206848654	0.063752764
2020-03-30T07:20:00	0.2960	1.428	141.0	0.784239267	1.024781533	0.020153740	0.207922422	0.064083710
2020-03-30T07:25:00	0.2950	1.433	141.0	0.780966373	1.019468924	0.019993440	0.206268634	0.063573996
2020-03-30T07:30:00	0.2964	1.440	141.0	0.785311629	1.026524289	0.020206413	0.208465837	0.064251196
2020-03-30T07:35:00	0.2981	1.450	141.0	0.790919155	1.035654171	0.020483058	0.211319934	0.065130856
2020-03-30T07:40:00	0.2972	1.464	141.0	0.787969022	1.030847407	0.020337261	0.209815769	0.064667258
2020-03-30T07:45:00	0.2975	1.480	142.0	0.788821658	1.032235838	0.020379340	0.210249899	0.064801061
2020-03-30T07:50:00	0.2980	1.501	142.0	0.790624561	1.035173826	0.020468474	0.211169470	0.065084481
2020-03-30T07:55:00	0.2980	1.522	142.0	0.790526357	1.035013720	0.020463613	0.211119325	0.065069026
2020-03-30T08:00:00	0.2982	1.546	142.0	0.791061691	1.035886607	0.020490117	0.211392755	0.065153300
2020-03-30T08:05:00	0.2985	1.570	142.0	0.791913635	1.037276272	0.020532333	0.211828294	0.065287538
2020-03-30T08:10:00	0.2990	1.599	142.0	0.793715075	1.040216872	0.020621755	0.212750844	0.065571876
2020-03-30T08:15:00	0.2967	1.636	142.0	0.786329773	1.028179886	0.020256491	0.208982488	0.064410432
2020-03-30T08:20:00	0.2983	1.666	142.0	0.791302407	1.036279190	0.020502040	0.211515767	0.065191214
2020-03-30T08:25:00	0.2976	1.703	142.0	0.789303358	1.033020525	0.020403134	0.210495377	0.064876720
2020-03-30T08:30:00	0.2984	1.740	150.0	0.791739459	1.036992109	0.020523698	0.211739211	0.065260081
2020-03-30T08:35:00	0.2983	1.779	143.0	0.791324576	1.036315348	0.020503138	0.211527098	0.065194706
2020-03-30T08:40:00	0.2970	1.820	144.0	0.787423737	1.029959808	0.020310374	0.209538385	0.064581765
2020-03-30T08:45:00	0.2986	1.861	142.0	0.792394944	1.038061657	0.020556204	0.212074569	0.065363442
2020-03-30T08:50:00	0.2971	1.905	148.0	0.787544212	1.030155891	0.020316313	0.209599653	0.064600649
2020-03-30T08:55:00	0.2990	1.945	143.0	0.793781542	1.040325424	0.020625058	0.212784924	0.065582380
2020-03-30T09:00:00	0.2999	1.988	149.0	0.796531087	1.044819451	0.020761961	0.214197327	0.066017697
2020-03-30T09:05:00	0.3002	2.042	144.0	0.797381811	1.046211302	0.020804419	0.214635359	0.066152702
2020-03-30T09:10:00	0.3012	2.085	143.0	0.800444745	1.051227891	0.020957674	0.216216463	0.066640014
2020-03-30T09:15:00	0.2997	2.140	144.0	0.795920598	1.043821044	0.020731522	0.213883290	0.065920907
2020-03-30T09:20:00	0.3009	2.208	145.0	0.799616824	1.049871060	0.020916189	0.215788465	0.066508101
2020-03-30T09:25:00	0.2991	2.276	144.0	0.793825852	1.040397793	0.020627261	0.212807645	0.065589383
2020-03-30T09:30:00	0.2994	2.344	145.0	0.794993608	1.042305664	0.020685348	0.213406922	0.065774086
2020-03-30T09:35:00	0.2986	2.414	145.0	0.792363277	1.038009977	0.020554633	0.212058361	0.065358446
2020-03-30T09:40:00	0.2976	2.484	151.0	0.789097369	1.032684944	0.020392958	0.210390385	0.064844360
2020-03-30T09:45:00	0.2970	2.546	146.0	0.787414221	1.029944320	0.020309905	0.209533546	0.064580274
2020-03-30T09:50:00	0.2979	2.592	151.0	0.790168362	1.034430135	0.020445900	0.210936580	0.065012703
2020-03-30T09:55:00	0.2972	2.638	151.0	0.787851720	1.030656444	0.020331475	0.209756081	0.064648861
2020-03-30T10:00:00	0.2965	2.690	152.0	0.785850858	1.027401010	0.020232927	0.208739379	0.064335504
2020-03-30T10:05:00	0.2966	2.748	149.0	0.786117444	1.027834543	0.020246042	0.208874686	0.064377207
2020-03-30T10:10:00	0.2947	2.814	152.0	0.780036056	1.017960568	0.019948001	0.205799849	0.063429512
2020-03-30T10:15:00	0.2956	2.890	148.0	0.782843328	1.022514453	0.020085285	0.207216183	0.063866040
2020-03-30T10:20:00	0.2954	2.958	147.0	0.782157787	1.021401736	0.020051713	0.206869828	0.063759290
2020-03-30T10:25:00	0.2935	3.026	148.0	0.776070045	1.011539002	0.019754918	0.203807843	0.062815556
2020-03-30T10:30:00	0.2929	3.109	153.0	0.774428998	1.008886006	0.019675320	0.202986652	0.062562458
2020-03-30T10:35:00	0.2953	3.178	148.0	0.782005892	1.021155248	0.020044279	0.206793128	0.063735650
2020-03-30T10:40:00	0.2947	3.254	149.0	0.780049764	1.017982788	0.019948670	0.205806753	0.063431640
2020-03-30T10:45:00	0.2951	3.347	154.0	0.781269558	1.019960655	0.020008260	0.206421533	0.063621121
2020-03-30T10:50:00	0.2925	3.448	154.0	0.772953239	1.006502272	0.019603888	0.202249700	0.062335322
2020-03-30T10:55:00	0.2919	3.552	149.0	0.770992430	1.003338060	0.019509194	0.201272763	0.062034220
2020-03-30T11:00:00	0.2928	3.639	150.0	0.773806408	1.007880125	0.019645168	0.202675572	0.062466580
2020-03-30T11:05:00	0.2916	3.730	152.0	0.770253951	1.002147244	0.019473595	0.200905490	0.061921023
2020-03-30T11:10:00	0.2924	3.819	158.0	0.772750218	1.006174492	0.019594072	0.202148430	0.062304109
2020-03-30T11:15:00	0.2905	3.942	152.0	0.766647312	0.996338418	0.019300235	0.199116966	0.061369783
2020-03-30T11:20:00	0.2902	4.068	151.0	0.765639970	0.994718067	0.019251964	0.198618966	0.061216294
2020-03-30T11:25:00	0.2903	4.168	152.0	0.765907983	0.995149089	0.019264801	0.198751398	0.061257111
2020-03-30T11:30:00	0.2892	4.268	152.0	0.762348082	0.989429218	0.019094674	0.196996231	0.060716152
2020-03-30T11:35:00	0.2885	4.360	152.0	0.760381752	0.986274642	0.019001051	0.196030345	0.060418456
2020-03-30T11:40:00	0.2870	4.438	158.0	0.755537910	0.978518312	0.018771477	0.193661865	0.059688468
2020-03-30T11:45:00	0.2875	4.524	158.0	0.757085261	0.980993788	0.018844651	0.194416788	0.059921142
2020-03-30T11:50:00	0.2873	4.597	153.0	0.756395029	0.979889283	0.018811991	0.194079842	0.059817292
2020-03-30T11:55:00	0.2870	4.663	158.0	0.755384940	0.978273703	0.018764251	0.193587319	0.059665492
2020-03-30T12:00:00	0.2856	4.744	159.0	0.750854790	0.971039100	0.018550943	0.191386662	0.058987228
2020-03-30T12:05:00	0.2848	4.816	159.0	0.748562120	0.967384646	0.018443488	0.190278068	0.058645548
2020-03-30T12:10:00	0.2847	4.870	156.0	0.748190690	0.966793035	0.018426111	0.190098793	0.058590294
2020-03-30T12:15:00	0.2835	4.926	159.0	0.744293269	0.960592586	0.018244303	0.188223106	0.058012189
2020-03-30T12:20:00	0.2831	4.979	159.0	0.742959119	0.958473152	0.018182288	0.187583316	0.057815000
2020-03-30T12:25:00	0.2820	5.010	160.0	0.739377366	0.952790930	0.018016359	0.185871453	0.057287387
2020-03-30T12:30:00	0.2835	5.038	155.0	0.744139839	0.960348767	0.018237165	0.188149470	0.057989494
2020-03-30T12:35:00	0.2850	5.071	155.0	0.749216539	0.968427299	0.018474126	0.190594153	0.058742969
2020-03-30T12:40:00	0.2820	5.090	160.0	0.739544848	0.953056378	0.018024100	0.185951312	0.057312000
2020-03-30T12:45:00	0.2826	5.086	160.0	0.741419772	0.956029691	0.018110876	0.186846572	0.057587928
2020-03-30T12:50:00	0.2825	5.092	160.0	0.741047632	0.955439294	0.018093635	0.186668696	0.057533105
2020-03-30T12:55:00	0.2813	5.106	160.0	0.737142750	0.949251580	0.017913249	0.184807691	0.056959525
2020-03-30T13:00:00	0.2810	5.120	161.0	0.736127450	0.947644924	0.017866506	0.184325447	0.056810893
2020-03-30T13:05:00	0.2811	5.117	161.0	0.736397581	0.948072303	0.017878936	0.184453687	0.056850418
2020-03-30T13:10:00	0.2813	5.103	160.0	0.737310333	0.949516857	0.017920971	0.184887353	0.056984078
2020-03-30T13:15:00	0.2805	5.095	160.0	0.734687831	0.945368361	0.017800339	0.183642814	0.056600499
2020-03-30T13:20:00	0.2810	5.078	160.0	0.736243826	0.947829037	0.017871860	0.184380688	0.056827919
2020-03-30T13:25:00	0.2807	5.057	160.0	0.735228281	0.946222797	0.017825163	0.183898924	0.056679434
2020-03-30T13:30:00	0.2799	5.031	160.0	0.732604313	0.942076786	0.017704809	0.182657256	0.056296740
2020-03-30T13:35:00	0.2790	4.994	160.0	0.729656553	0.937426382	0.017570123	0.181267721	0.055868472
2020-03-30T13:40:00	0.2791	4.975	160.0	0.730249070	0.938360528	0.017597152	0.181546571	0.055954416
2020-03-30T13:45:00	0.2777	4.978	160.0	0.725688301	0.931178085	0.017389675	0.179406073	0.055294694
2020-03-30T13:50:00	0.2787	4.978	159.0	0.728858529	0.936168727	0.017533755	0.180892517	0.055752831
2020-03-30T13:55:00	0.2778	4.949	161.0	0.725907796	0.931523335	0.017399630	0.179508778	0.055326349
2020-03-30T14:00:00	0.2756	4.904	160.0	0.718759380	0.920301074	0.017076974	0.176179994	0.054300385
2020-03-30T14:05:00	0.2763	4.881	160.0	0.720967534	0.923762870	0.017176300	0.177204720	0.054616216
2020-03-30T14:10:00	0.2749	4.857	160.0	0.716718423	0.917105189	0.016985441	0.175235668	0.054009335
2020-03-30T14:15:00	0.2755	4.844	160.0	0.718604893	0.920059040	0.017070037	0.176108421	0.054278326
2020-03-30T14:20:00	0.2743	4.834	160.0	0.714676338	0.913911180	0.016894120	0.174293519	0.053718955
2020-03-30T14:25:00	0.2750	4.823	160.0	0.716886929	0.917368911	0.016992989	0.175313532	0.054033333
2020-03-30T14:30:00	0.2749	4.822	160.0	0.716512325	0.916782668	0.016976213	0.175140459	0.053979990
2020-03-30T14:35:00	0.2760	4.805	155.0	0.720013211	0.922266224	0.017133336	0.176761465	0.054479600
2020-03-30T14:40:00	0.2749	4.786	159.0	0.716409272	0.916621415	0.016971599	0.175092863	0.053965321
2020-03-30T14:45:00	0.2742	4.777	159.0	0.714418572	0.913508270	0.016882611	0.174174786	0.053682361
2020-03-30T14:50:00	0.2746	4.781	155.0	0.715659930	0.915449154	0.016938073	0.174746978	0.053858716
2020-03-30T14:55:00	0.2742	4.766	159.0	0.714315461	0.913347114	0.016878009	0.174127303	0.053667726
2020-03-30T15:00:00	0.2729	4.738	159.0	0.710058693	0.906702175	0.016688583	0.172173035	0.053065402
2020-03-30T15:05:00	0.2740	4.707	159.0	0.713565694	0.912175559	0.016844562	0.173782238	0.053561373
2020-03-30T15:10:00	0.2739	4.685	159.0	0.713190753	0.911589876	0.016827849	0.173609815	0.053508231
2020-03-30T15:15:00	0.2731	4.674	159.0	0.710874742	0.907974827	0.016724809	0.172546773	0.053180591
2020-03-30T15:20:00	0.2723	4.659	153.0	0.708233467	0.903857784	0.016607708	0.171338665	0.052808240
2020-03-30T15:25:00	0.2724	4.639	159.0	0.708505638	0.904281745	0.016619755	0.171462947	0.052846545
2020-03-30T15:30:00	0.2733	4.618	159.0	0.711367077	0.908742918	0.016746685	0.172772464	0.053250151
2020-03-30T15:35:00	0.2743	4.598	159.0	0.714549581	0.913713041	0.016888460	0.174235126	0.053700958
2020-03-30T15:40:00	0.2725	4.592	159.0	0.708674520	0.904544845	0.016627232	0.171540087	0.052870321
2020-03-30T15:45:00	0.2754	4.575	160.0	0.718323773	0.919618662	0.017057416	0.175978217	0.054238196
2020-03-30T15:50:00	0.2742	4.560	158.0	0.714394919	0.913471300	0.016881555	0.174163893	0.053679003
2020-03-30T15:55:00	0.2751	4.548	159.0	0.717251799	0.917940039	0.017009337	0.175482194	0.054085317
2020-03-30T16:00:00	0.2741	4.539	158.0	0.713968501	0.912804908	0.016862526	0.173967576	0.053618497
2020-03-30T16:05:00	0.2756	4.536	154.0	0.718866610	0.920469083	0.017081790	0.176229683	0.054315700
2020-03-30T16:10:00	0.2741	4.535	154.0	0.714071622	0.912966048	0.016867127	0.174015041	0.053633126
2020-03-30T16:15:00	0.2761	4.531	154.0	0.720583656	0.923160745	0.017159011	0.177026349	0.054561240
2020-03-30T16:20:00	0.2749	4.523	158.0	0.716437158	0.916665049	0.016972848	0.175105742	0.053969290
2020-03-30T16:25:00	0.2771	4.512	158.0	0.723590052	0.927879819	0.017294663	0.178425847	0.054992579
2020-03-30T16:30:00	0.2770	4.498	154.0	0.723318989	0.927454013	0.017282409	0.178299424	0.054953614
2020-03-30T16:35:00	0.2779	4.483	155.0	0.726271779	0.932095947	0.017416145	0.179679161	0.055378862
2020-03-30T16:40:00	0.2756	4.461	153.0	0.718904169	0.920527934	0.017083478	0.176247089	0.054321064
2020-03-30T16:45:00	0.2768	4.440	158.0	0.722828242	0.926683275	0.017260235	0.178070664	0.054883108
2020-03-30T16:50:00	0.2771	4.422	156.0	0.723524708	0.927777166	0.017291708	0.178395366	0.054983184
2020-03-30T16:55:00	0.2789	4.401	153.0	0.729376268	0.936984600	0.017557345	0.181135894	0.055827842
2020-03-30T17:00:00	0.2779	4.380	153.0	0.726206483	0.931993215	0.017413182	0.179648589	0.055369440
2020-03-30T17:05:00	0.2781	4.362	154.0	0.726902315	0.933088170	0.017444774	0.179974522	0.055469896
2020-03-30T17:10:00	0.2775	4.341	155.0	0.725020063	0.930127254	0.017359386	0.179093586	0.055198382
2020-03-30T17:15:00	0.2785	4.324	154.0	0.728293587	0.935278737	0.017508033	0.180627150	0.055671042
2020-03-30T17:20:00	0.2782	4.314	154.0	0.727056456	0.933330782	0.017451777	0.180046766	0.055492162
2020-03-30T17:25:00	0.2787	4.296	154.0	0.728718360	0.935947882	0.017527371	0.180826657	0.055732532
2020-03-30T17:30:00	0.2793	4.277	154.0	0.730701398	0.939073863	0.017617800	0.181759599	0.056020074
2020-03-30T17:35:00	0.2794	4.266	159.0	0.731074571	0.939662504	0.017634845	0.181935450	0.056074273
2020-03-30T17:40:00	0.2795	4.252	160.0	0.731447708	0.940251209	0.017651898	0.182111373	0.056128494
2020-03-30T17:45:00	0.2806	4.241	154.0	0.735037082	0.945920488	0.017816379	0.183808297	0.056651502
2020-03-30T17:50:00	0.2780	4.232	155.0	0.726720358	0.932801804	0.017436510	0.179889262	0.055443618
2020-03-30T17:55:00	0.2785	4.223	156.0	0.728060334	0.934911360	0.017497419	0.180517647	0.055637292
2020-03-30T18:00:00	0.2775	4.215	157.0	0.724889425	0.929921865	0.017353468	0.179032529	0.055179564
2020-03-30T18:05:00	0.2781	4.209	158.0	0.726874507	0.933044404	0.017443511	0.179961491	0.055465879
2020-03-30T18:10:00	0.2772	4.203	159.0	0.724025041	0.928563267	0.017314337	0.178628823	0.055055138
2020-03-30T18:15:00	0.2779	4.195	155.0	0.726332841	0.932192020	0.017418917	0.179707753	0.055387675
2020-03-30T18:20:00	0.2781	4.188	159.0	0.727028650	0.933287015	0.017450514	0.180033733	0.055488145
2020-03-30T18:25:00	0.2790	4.181	158.0	0.729656553	0.937426382	0.017570123	0.181267721	0.055868472
2020-03-30T18:30:00	0.2782	4.176	160.0	0.727131408	0.933448761	0.017455183	0.180081900	0.055502991
2020-03-30T18:35:00	0.2780	4.172	154.0	0.726538393	0.932515453	0.017428248	0.179804019	0.055417345
2020-03-30T18:40:00	0.2797	4.169	158.0	0.732063481	0.941222995	0.017680057	0.182401891	0.056218034
2020-03-30T18:45:00	0.2774	4.162	153.0	0.724707370	0.929635665	0.017345222	0.178947461	0.055153345
2020-03-30T18:50:00	0.2804	4.151	153.0	0.734417576	0.944941193	0.017787932	0.183514817	0.056561049
2020-03-30T18:55:00	0.2801	4.143	158.0	0.733182480	0.942989802	0.017731291	0.182930460	0.056380944
2020-03-30T19:00:00	0.2806	4.135	157.0	0.734841650	0.945611518	0.017807402	0.183715687	0.056622959
2020-03-30T19:05:00	0.2798	4.127	159.0	0.732320023	0.941627957	0.017691796	0.182522999	0.056255361
2020-03-30T19:10:00	0.2801	4.119	158.0	0.733336361	0.943232853	0.017738343	0.183003211	0.056403367
2020-03-30T19:15:00	0.2807	4.111	158.0	0.735316941	0.946362989	0.017829237	0.183940957	0.056692389
2020-03-30T19:20:00	0.2787	4.103	154.0	0.728933445	0.936286767	0.017537167	0.180927722	0.055763681
2020-03-30T19:25:00	0.2797	4.097	158.0	0.732203525	0.941444052	0.017686465	0.182467997	0.056238409
2020-03-30T19:30:00	0.2792	4.091	154.0	0.730323957	0.938478615	0.017600570	0.181581831	0.055965284
2020-03-30T19:35:00	0.2793	4.083	154.0	0.730697169	0.939067193	0.017617607	0.181757607	0.056019460
2020-03-30T19:40:00	0.2795	4.077	157.0	0.731392161	0.940163564	0.017649359	0.182085178	0.056120420
2020-03-30T19:45:00	0.2792	4.069	158.0	0.730477957	0.938721467	0.017607599	0.181654351	0.055987635
2020-03-30T19:50:00	0.2792	4.062	153.0	0.730529289	0.938802420	0.017609942	0.181678527	0.055995087
2020-03-30T19:55:00	0.2811	4.054	158.0	0.736691204	0.948536922	0.017892452	0.184593134	0.056893397
2020-03-30T20:00:00	0.2810	4.049	158.0	0.736099712	0.947601042	0.017865230	0.184312281	0.056806835
2020-03-30T20:05:00	0.2819	4.043	154.0	0.739042379	0.952260072	0.018000882	0.185711778	0.057238174
2020-03-30T20:10:00	0.2794	4.036	155.0	0.731056455	0.939633925	0.017634018	0.181926910	0.056071641
2020-03-30T20:15:00	0.2813	4.029	155.0	0.737217499	0.949369902	0.017916693	0.184843221	0.056970476
2020-03-30T20:20:00	0.2795	4.023	158.0	0.731480912	0.940303601	0.017653415	0.182127032	0.056133320
2020-03-30T20:25:00	0.2813	4.015	153.0	0.737319976	0.949532123	0.017921415	0.184891938	0.056985491
2020-03-30T20:30:00	0.2808	4.008	153.0	0.735442990	0.946562316	0.017835031	0.184000724	0.056710810
2020-03-30T20:35:00	0.2809	4.002	153.0	0.735815689	0.947151762	0.017852166	0.184177502	0.056765295
2020-03-30T20:40:00	0.2811	3.998	154.0	0.736509726	0.948249748	0.017884098	0.184506940	0.056866831
2020-03-30T20:45:00	0.2805	3.991	153.0	0.734632332	0.945280634	0.017797791	0.183616525	0.056592396
2020-03-30T20:50:00	0.2809	3.986	158.0	0.735969462	0.947394998	0.017859238	0.184250466	0.056787783
2020-03-30T20:55:00	0.2805	3.981	154.0	0.734734880	0.945442735	0.017802499	0.183665103	0.056607368
2020-03-30T21:00:00	0.2818	3.976	153.0	0.738642283	0.951626166	0.017982406	0.185521165	0.057179425
2020-03-30T21:05:00	0.2799	3.973	157.0	0.732586204	0.942048193	0.017703980	0.182648702	0.056294104
2020-03-30T21:10:00	0.2792	3.967	157.0	0.730384953	0.938574800	0.017603353	0.181610553	0.055974136
2020-03-30T21:15:00	0.2792	3.963	160.0	0.730436286	0.938655751	0.017605697	0.181634726	0.055981587
2020-03-30T21:20:00	0.2809	3.957	155.0	0.735955592	0.947373058	0.017858600	0.184243884	0.056785755
2020-03-30T21:25:00	0.2801	3.952	158.0	0.733434720	0.943388219	0.017742851	0.183049721	0.056417702
2020-03-30T21:30:00	0.2790	3.947	157.0	0.729946479	0.937883432	0.017583346	0.181404137	0.055910517
2020-03-30T21:35:00	0.2787	3.943	160.0	0.728709897	0.935934550	0.017526986	0.180822681	0.055731306
2020-03-30T21:40:00	0.2810	3.938	158.0	0.736160613	0.947697387	0.017868032	0.184341187	0.056815744
2020-03-30T21:45:00	0.2809	3.933	158.0	0.735890465	0.947270038	0.017855605	0.184212981	0.056776230
2020-03-30T21:50:00	0.2804	3.929	158.0	0.734334322	0.944809613	0.017784111	0.183475396	0.056548899
2020-03-30T21:55:00	0.2812	3.922	154.0	0.736957073	0.948957687	0.017904696	0.184719448	0.056932328
2020-03-30T22:00:00	0.2785	3.917	159.0	0.728322588	0.935324417	0.017509353	0.180640768	0.055675239
2020-03-30T22:05:00	0.2787	3.910	160.0	0.728975315	0.936352742	0.017539075	0.180947400	0.055769746
2020-03-30T22:10:00	0.2791	3.904	160.0	0.730271784	0.938396345	0.017598188	0.181557266	0.055957713
2020-03-30T22:15:00	0.2798	3.897	160.0	0.732211323	0.941456362	0.017686822	0.182471679	0.056239543
2020-03-30T22:20:00	0.2782	3.891	160.0	0.727068680	0.933350024	0.017452332	0.180052496	0.055493928
2020-03-30T22:25:00	0.2775	3.885	159.0	0.724821401	0.929814926	0.017350387	0.179000742	0.055169767
2020-03-30T22:30:00	0.2767	3.877	160.0	0.722250178	0.925775671	0.017234136	0.177801402	0.054800119
2020-03-30T22:35:00	0.2769	3.871	159.0	0.722903974	0.926802200	0.017263656	0.178105956	0.054893985
2020-03-30T22:40:00	0.2766	3.866	159.0	0.721944888	0.925296461	0.017220361	0.177659285	0.054756317
2020-03-30T22:45:00	0.2762	3.861	159.0	0.720662833	0.923284926	0.017162576	0.177063131	0.054572577
2020-03-30T22:50:00	0.2759	3.856	159.0	0.719703166	0.921780157	0.017119389	0.176617585	0.054435255
2020-03-30T22:55:00	0.2758	3.851	159.0	0.719389000	0.921287715	0.017105264	0.176471856	0.054390340
2020-03-30T23:00:00	0.2761	3.846	160.0	0.720366076	0.922819521	0.017149215	0.176925291	0.054530093
2020-03-30T23:05:00	0.2757	3.840	159.0	0.719083474	0.920808900	0.017091533	0.176330197	0.054346679
2020-03-30T23:10:00	0.2762	3.835	159.0	0.720706149	0.923352865	0.017164526	0.177083256	0.054578779
2020-03-30T23:15:00	0.2749	3.829	159.0	0.716516936	0.916789884	0.016976419	0.175142589	0.053980647
2020-03-30T23:20:00	0.2759	3.820	158.0	0.719755159	0.921861662	0.017121728	0.176641709	0.054442690
2020-03-30T23:25:00	0.2750	3.811	158.0	0.716857363	0.917322637	0.016991664	0.175299868	0.054029122
2020-03-30T23:30:00	0.2759	3.805	158.0	0.719772490	0.921888831	0.017122507	0.176649750	0.054445169
2020-03-30T23:35:00	0.2744	3.798	158.0	0.714935807	0.914316811	0.016905709	0.174413079	0.053755805
2020-03-30T23:40:00	0.2741	3.786	158.0	0.713974653	0.912814521	0.016862801	0.173970408	0.053619369
2020-03-30T23:45:00	0.2750	3.770	157.0	0.716892052	0.917376929	0.016993218	0.175315899	0.054034063
2020-03-30T23:50:00	0.2743	3.758	158.0	0.714638590	0.913852173	0.016892434	0.174276128	0.053713595
2020-03-30T23:55:00	0.2757	3.740	152.0	0.719170143	0.920944717	0.017095428	0.176370375	0.054359063
2020-03-31T00:00:00	0.2763	3.673	157.0	0.721115489	0.923994977	0.017182966	0.177273494	0.054637413
2020-03-31T00:05:00	0.2756	3.627	153.0	0.718864598	0.920465932	0.017081700	0.176228751	0.054315412
2020-03-31T00:10:00	0.2735	3.596	151.0	0.712086331	0.909865406	0.016778671	0.173102456	0.053351858
2020-03-31T00:15:00	0.2751	3.576	156.0	0.717267130	0.917964038	0.017010024	0.175489283	0.054087501
2020-03-31T00:20:00	0.2747	3.545	155.0	0.715983453	0.915955210	0.016952544	0.174896267	0.053904728
2020-03-31T00:25:00	0.2733	3.506	156.0	0.711465360	0.908896275	0.016751054	0.172817536	0.053264043
2020-03-31T00:30:00	0.2737	3.473	150.0	0.712767970	0.910929607	0.016809014	0.173415500	0.053448341
2020-03-31T00:35:00	0.2746	3.416	155.0	0.715686321	0.915490431	0.016939253	0.174759153	0.053862468
2020-03-31T00:40:00	0.2723	3.405	151.0	0.708254630	0.903890747	0.016608645	0.171348327	0.052811218
2020-03-31T00:45:00	0.2738	3.400	150.0	0.713117424	0.911475344	0.016824581	0.173576104	0.053497841
2020-03-31T00:50:00	0.2716	3.368	149.0	0.706004585	0.900388276	0.016509230	0.170322684	0.052495105
2020-03-31T00:55:00	0.2733	3.335	149.0	0.711517469	0.908977587	0.016753371	0.172841436	0.053271409
2020-03-31T01:00:00	0.2709	3.308	149.0	0.703753164	0.896888075	0.016410071	0.169299679	0.052179805
2020-03-31T01:05:00	0.2717	3.308	149.0	0.706354679	0.900932952	0.016524678	0.170482054	0.052544225
2020-03-31T01:10:00	0.2708	3.312	149.0	0.703446341	0.896411409	0.016396582	0.169160517	0.052136914
2020-03-31T01:15:00	0.2708	3.315	149.0	0.703455044	0.896424930	0.016396965	0.169164464	0.052138131
2020-03-31T01:20:00	0.2710	3.301	149.0	0.703787976	0.896942162	0.016411602	0.169315472	0.052184673
2020-03-31T01:25:00	0.2709	3.251	148.0	0.703472452	0.896451971	0.016397730	0.169172358	0.052140564
2020-03-31T01:30:00	0.2698	3.236	148.0	0.699912780	0.890927739	0.016241660	0.167562208	0.051644300
2020-03-31T01:35:00	0.2699	3.234	148.0	0.700246032	0.891444444	0.016256237	0.167712603	0.051690653
2020-03-31T01:40:00	0.2699	3.229	148.0	0.700254744	0.891457952	0.016256618	0.167716535	0.051691865
2020-03-31T01:45:00	0.2702	3.225	149.0	0.701236899	0.892981345	0.016299622	0.168160196	0.051828606
2020-03-31T01:50:00	0.2695	3.222	150.0	0.698973843	0.889472442	0.016200624	0.167138856	0.051513819
2020-03-31T01:55:00	0.2693	3.223	149.0	0.698333225	0.888479962	0.016172658	0.166850336	0.051424894
2020-03-31T02:00:00	0.2687	3.225	148.0	0.696393259	0.885476633	0.016088126	0.165978228	0.051156102
2020-03-31T02:05:00	0.2678	3.228	154.0	0.693477022	0.880968044	0.015961493	0.164671782	0.050753442
2020-03-31T02:10:00	0.2682	3.225	149.0	0.694786016	0.882990875	0.016018269	0.165257523	0.050933974
2020-03-31T02:15:00	0.2681	3.210	153.0	0.694469717	0.882501953	0.016004540	0.165115887	0.050890320
2020-03-31T02:20:00	0.2681	3.204	150.0	0.694478443	0.882515439	0.016004918	0.165119793	0.050891524
2020-03-31T02:25:00	0.2679	3.196	153.0	0.693837039	0.881524243	0.015977098	0.164832771	0.050803061
2020-03-31T02:30:00	0.2671	3.187	153.0	0.691244105	0.877520868	0.015864890	0.163675142	0.050446268
2020-03-31T02:35:00	0.2671	3.184	153.0	0.691252837	0.877534341	0.015865267	0.163679033	0.050447468
2020-03-31T02:40:00	0.2679	3.182	153.0	0.693863219	0.881564692	0.015978233	0.164844481	0.050806670
2020-03-31T02:45:00	0.2681	3.182	149.0	0.694522068	0.882582868	0.016006812	0.165139325	0.050897544
2020-03-31T02:50:00	0.2670	3.181	149.0	0.690953701	0.877072860	0.015852349	0.163545758	0.050406391
2020-03-31T02:55:00	0.2666	3.183	149.0	0.689660811	0.875079194	0.015796579	0.162970389	0.050229057
2020-03-31T03:00:00	0.2662	3.188	149.0	0.688367463	0.873086271	0.015740893	0.162395888	0.050051990
2020-03-31T03:05:00	0.2657	3.192	149.0	0.686747950	0.870592797	0.015671310	0.161678013	0.049830734
2020-03-31T03:10:00	0.2664	3.194	149.0	0.689036039	0.874116301	0.015769666	0.162692734	0.050143481
2020-03-31T03:15:00	0.2655	3.192	148.0	0.686113935	0.869617258	0.015644113	0.161397433	0.049744256
2020-03-31T03:20:00	0.2651	3.188	153.0	0.684819332	0.867626369	0.015588658	0.160825310	0.049567922
2020-03-31T03:25:00	0.2656	3.186	149.0	0.686457189	0.870145369	0.015658834	0.161549306	0.049791065
2020-03-31T03:30:00	0.2645	3.183	149.0	0.682880944	0.864648148	0.015505819	0.159970680	0.049304517
2020-03-31T03:35:00	0.2650	3.179	149.0	0.684519669	0.867165742	0.015575836	0.160693032	0.049527153
2020-03-31T03:40:00	0.2640	3.174	148.0	0.681267752	0.862172045	0.015437056	0.159261256	0.049085866
2020-03-31T03:45:00	0.2656	3.166	149.0	0.686492166	0.870199187	0.015660335	0.161564786	0.049795836
2020-03-31T03:50:00	0.2668	3.163	149.0	0.690407764	0.876230837	0.015828786	0.163302672	0.050331469
2020-03-31T03:55:00	0.2664	3.162	148.0	0.689114681	0.874237484	0.015773052	0.162727669	0.050154248
2020-03-31T04:00:00	0.2682	3.160	148.0	0.694977946	0.883287596	0.016026602	0.165343500	0.050960472
2020-03-31T04:05:00	0.2661	3.154	148.0	0.688011370	0.872537820	0.015725579	0.162237900	0.050003296
2020-03-31T04:10:00	0.2668	3.152	147.0	0.690154632	0.875840507	0.015817868	0.163190025	0.050296751
2020-03-31T04:15:00	0.2684	3.144	147.0	0.695547493	0.884168295	0.016051345	0.165598771	0.051039150
2020-03-31T04:20:00	0.2679	3.133	147.0	0.693787257	0.881447326	0.015974939	0.164810505	0.050796198
2020-03-31T04:25:00	0.2665	3.125	148.0	0.689423221	0.874712983	0.015786341	0.162864772	0.050196504
2020-03-31T04:30:00	0.2682	3.120	152.0	0.694817158	0.883039019	0.016019621	0.165271472	0.050938273
2020-03-31T04:35:00	0.2687	3.117	147.0	0.696631612	0.885845460	0.016098499	0.166085249	0.051189087
2020-03-31T04:40:00	0.2684	3.115	152.0	0.695521841	0.884128622	0.016050230	0.165587269	0.051035605
2020-03-31T04:45:00	0.2687	3.115	147.0	0.696361468	0.885427443	0.016086742	0.165963956	0.051151703
2020-03-31T04:50:00	0.2701	3.115	148.0	0.701096376	0.892763332	0.016293466	0.168096681	0.051809030
2020-03-31T04:55:00	0.2719	3.113	147.0	0.706797168	0.901621526	0.016544213	0.170683596	0.052606342
2020-03-31T05:00:00	0.2715	3.109	151.0	0.705690462	0.899899656	0.016495376	0.170179756	0.052451054
2020-03-31T05:05:00	0.2715	3.106	147.0	0.705555725	0.899690098	0.016489436	0.170118469	0.052432164
2020-03-31T05:10:00	0.2722	3.100	147.0	0.707688772	0.903009504	0.016583613	0.171090083	0.052731625
2020-03-31T05:15:00	0.2732	3.093	147.0	0.711115090	0.908349768	0.016735487	0.172656931	0.053214543
2020-03-31T05:20:00	0.2729	3.088	152.0	0.710009680	0.906625756	0.016686409	0.172150601	0.053058487
2020-03-31T05:25:00	0.2743	3.087	147.0	0.714727084	0.913990507	0.016896386	0.174316898	0.053726161
2020-03-31T05:30:00	0.2734	3.090	147.0	0.711682145	0.909234568	0.016760693	0.172916976	0.053294691
2020-03-31T05:35:00	0.2728	3.093	147.0	0.709929614	0.906500927	0.016682857	0.172113959	0.053047194
2020-03-31T05:40:00	0.2757	3.090	152.0	0.719169996	0.920944488	0.017095421	0.176370307	0.054359042
2020-03-31T05:45:00	0.2750	3.086	147.0	0.716774922	0.917193610	0.016987972	0.175261773	0.054017381
2020-03-31T05:50:00	0.2752	3.084	147.0	0.717609719	0.918500401	0.017025382	0.175647728	0.054136336
2020-03-31T05:55:00	0.2772	3.082	152.0	0.723930049	0.928414003	0.017310040	0.178584487	0.055041473
2020-03-31T06:00:00	0.2774	3.078	152.0	0.724763236	0.929723487	0.017347752	0.178973563	0.055161390
2020-03-31T06:05:00	0.2768	3.065	152.0	0.722694348	0.926473025	0.017254188	0.178008277	0.054863880
2020-03-31T06:10:00	0.2774	3.056	152.0	0.724495143	0.929302071	0.017335613	0.178848322	0.055122790
2020-03-31T06:15:00	0.2760	3.053	147.0	0.720167347	0.922507897	0.017140271	0.176833017	0.054501653
2020-03-31T06:20:00	0.2765	3.058	146.0	0.721646735	0.924828533	0.017206913	0.177520549	0.054713557
2020-03-31T06:25:00	0.2774	3.060	147.0	0.724737786	0.929683479	0.017346600	0.178961672	0.055157725
2020-03-31T06:30:00	0.2783	3.068	148.0	0.727504137	0.934035535	0.017472123	0.180256675	0.055556858
2020-03-31T06:35:00	0.2782	3.077	148.0	0.727370192	0.933824657	0.017466034	0.180193857	0.055537497
2020-03-31T06:40:00	0.2780	3.087	147.0	0.726591860	0.932599588	0.017430675	0.179829064	0.055425064
2020-03-31T06:45:00	0.2793	3.096	148.0	0.730644527	0.938984166	0.017615204	0.181732808	0.056011817
2020-03-31T06:50:00	0.2795	3.104	148.0	0.731476210	0.940296183	0.017653200	0.182124814	0.056132637
2020-03-31T06:55:00	0.2785	3.111	153.0	0.728122935	0.935009953	0.017500267	0.180547032	0.055646349
2020-03-31T07:00:00	0.2783	3.123	148.0	0.727666900	0.934291805	0.017479524	0.180333024	0.055580389
2020-03-31T07:05:00	0.2800	3.132	153.0	0.733005276	0.942709937	0.017723172	0.182846702	0.056355129
2020-03-31T07:10:00	0.2802	3.139	153.0	0.733514825	0.943514758	0.017746523	0.183087604	0.056429378
2020-03-31T07:15:00	0.2808	3.141	147.0	0.735631838	0.946860975	0.017843712	0.184090287	0.056738414
2020-03-31T07:20:00	0.2795	3.151	153.0	0.731317003	0.940044980	0.017645923	0.182049739	0.056109498
2020-03-31T07:25:00	0.2794	3.162	149.0	0.731183196	0.939833870	0.017639809	0.181986653	0.056090054
2020-03-31T07:30:00	0.2804	3.167	150.0	0.734266326	0.944702152	0.017780991	0.183443203	0.056538977
2020-03-31T07:35:00	0.2795	3.159	153.0	0.731559200	0.940427137	0.017656994	0.182163956	0.056144700
2020-03-31T07:40:00	0.2795	3.147	155.0	0.731425402	0.940216013	0.017650878	0.182100853	0.056125252
2020-03-31T07:45:00	0.2806	3.141	149.0	0.734829851	0.945592866	0.017806860	0.183710097	0.056621236
2020-03-31T07:50:00	0.2805	3.160	148.0	0.734696170	0.945381543	0.017800722	0.183646765	0.056601716
2020-03-31T07:55:00	0.2811	3.215	154.0	0.736491163	0.948220375	0.017883243	0.184498124	0.056864114
2020-03-31T08:00:00	0.2801	3.257	153.0	0.733464044	0.943434541	0.017744195	0.183063588	0.056421976
2020-03-31T08:05:00	0.2803	3.287	150.0	0.733973531	0.944239469	0.017767557	0.183304613	0.056496262
2020-03-31T08:10:00	0.2799	3.304	154.0	0.732553228	0.941996129	0.017702471	0.182633127	0.056289303
2020-03-31T08:15:00	0.2798	3.299	153.0	0.732419465	0.941784945	0.017696347	0.182569955	0.056269833
2020-03-31T08:20:00	0.2795	3.307	155.0	0.731320393	0.940050328	0.017646078	0.182051337	0.056109990
2020-03-31T08:25:00	0.2808	3.320	148.0	0.735689361	0.946951952	0.017846357	0.184117572	0.056746824
2020-03-31T08:30:00	0.2805	3.314	155.0	0.734591254	0.945215703	0.017795905	0.183597068	0.056586400
2020-03-31T08:35:00	0.2793	3.324	154.0	0.730918956	0.939417023	0.017627737	0.181862108	0.056051668
2020-03-31T08:40:00	0.2794	3.340	154.0	0.731106977	0.939713626	0.017636326	0.181950724	0.056078980
2020-03-31T08:45:00	0.2794	3.365	150.0	0.730973162	0.939502529	0.017630213	0.181887653	0.056059541
2020-03-31T08:50:00	0.2786	3.395	150.0	0.728585699	0.935738884	0.017521330	0.180764336	0.055713324
2020-03-31T08:55:00	0.2785	3.431	149.0	0.728129721	0.935020640	0.017500576	0.180550217	0.055647330
2020-03-31T09:00:00	0.2792	3.449	154.0	0.730571688	0.938869287	0.017611878	0.181698498	0.056001242
2020-03-31T09:05:00	0.2789	3.438	149.0	0.729472069	0.937135593	0.017561712	0.181180946	0.055841727
2020-03-31T09:10:00	0.2795	3.425	149.0	0.731269582	0.939970162	0.017643756	0.182027380	0.056102606
2020-03-31T09:15:00	0.2801	3.420	154.0	0.733387872	0.943314218	0.017740704	0.183027568	0.056410874
2020-03-31T09:20:00	0.2806	3.433	148.0	0.734862006	0.945643698	0.017808337	0.183725332	0.056625932
2020-03-31T09:25:00	0.2803	3.458	149.0	0.734085239	0.944415985	0.017772682	0.183357482	0.056512557
2020-03-31T09:30:00	0.2781	3.473	150.0	0.726869982	0.933037282	0.017443306	0.179959371	0.055465226
2020-03-31T09:35:00	0.2798	3.484	150.0	0.732209501	0.941453486	0.017686738	0.182470818	0.056239278
2020-03-31T09:40:00	0.2789	3.518	154.0	0.729500878	0.937181001	0.017563025	0.181194496	0.055845903
2020-03-31T09:45:00	0.2788	3.563	149.0	0.729045013	0.936462567	0.017542250	0.180980158	0.055779842
2020-03-31T09:50:00	0.2770	3.606	150.0	0.723432771	0.927632743	0.017287552	0.178352486	0.054969968
2020-03-31T09:55:00	0.2770	3.653	154.0	0.723298680	0.927422112	0.017281491	0.178289954	0.054950695
2020-03-31T10:00:00	0.2778	3.698	155.0	0.726066103	0.931772367	0.017406812	0.179582872	0.055349185
2020-03-31T10:05:00	0.2764	3.728	154.0	0.721500190	0.924598570	0.017200305	0.177452380	0.054692547
2020-03-31T10:10:00	0.2778	3.747	149.0	0.725963316	0.931610670	0.017402149	0.179534762	0.055334357
2020-03-31T10:15:00	0.2764	3.820	156.0	0.721397275	0.924437085	0.017195666	0.177404516	0.054677795
2020-03-31T10:20:00	0.2774	3.913	154.0	0.724571169	0.929421571	0.017339055	0.178883833	0.055133735
2020-03-31T10:25:00	0.2774	3.908	151.0	0.724519755	0.929340756	0.017336727	0.178859818	0.055126333
2020-03-31T10:30:00	0.2793	3.941	150.0	0.730910827	0.939404200	0.017627365	0.181858278	0.056050487
2020-03-31T10:35:00	0.2796	3.932	149.0	0.731824925	0.940846477	0.017669145	0.182289312	0.056183336
2020-03-31T10:40:00	0.2785	3.919	150.0	0.728232448	0.935182438	0.017505251	0.180598444	0.055662195
2020-03-31T10:45:00	0.2802	3.929	151.0	0.733652446	0.943732167	0.017752832	0.183152697	0.056449440
2020-03-31T10:50:00	0.2809	3.977	151.0	0.735851767	0.947208827	0.017853825	0.184194619	0.056770571
2020-03-31T10:55:00	0.2807	4.022	157.0	0.735157607	0.946111048	0.017821916	0.183865422	0.056669109
2020-03-31T11:00:00	0.2802	4.033	157.0	0.733498578	0.943489093	0.017745778	0.183079920	0.056427009
2020-03-31T11:05:00	0.2809	4.027	156.0	0.736019407	0.947474005	0.017861535	0.184274168	0.056795088
2020-03-31T11:10:00	0.2824	4.006	151.0	0.740786164	0.955024549	0.018081526	0.186543773	0.057494602
2020-03-31T11:15:00	0.2818	3.999	157.0	0.738808488	0.951889483	0.017990080	0.185600336	0.057203826
2020-03-31T11:20:00	0.2807	3.989	151.0	0.735222747	0.946214045	0.017824909	0.183896301	0.056678626
2020-03-31T11:25:00	0.2825	3.971	156.0	0.740953583	0.955290105	0.018089279	0.186623756	0.057519254
2020-03-31T11:30:00	0.2811	3.960	156.0	0.736405916	0.948085491	0.017879320	0.184457645	0.056851637
2020-03-31T11:35:00	0.2805	3.954	157.0	0.734747444	0.945462595	0.017803076	0.183671055	0.056609203
2020-03-31T11:40:00	0.2819	3.956	156.0	0.739194709	0.952501459	0.018007919	0.185784379	0.057260550
2020-03-31T11:45:00	0.2814	3.965	151.0	0.737537476	0.949876457	0.017931440	0.184995358	0.057017366
2020-03-31T11:50:00	0.2815	3.965	150.0	0.737807505	0.950304008	0.017943889	0.185123798	0.057056952
2020-03-31T11:55:00	0.2818	3.965	156.0	0.738719912	0.951749149	0.017985990	0.185558141	0.057190821
2020-03-31T12:00:00	0.2805	3.978	151.0	0.734491069	0.945057350	0.017791306	0.183549620	0.056571775
2020-03-31T12:05:00	0.2803	4.003	151.0	0.734118237	0.944468129	0.017774196	0.183373101	0.056517370
2020-03-31T12:10:00	0.2819	4.034	156.0	0.739208567	0.952523420	0.018008559	0.185790984	0.057262586
2020-03-31T12:15:00	0.2824	4.060	151.0	0.740762677	0.954987297	0.018080439	0.186532554	0.057491145
2020-03-31T12:20:00	0.2826	4.093	151.0	0.741353431	0.955924433	0.018107802	0.186814856	0.057578153
2020-03-31T12:25:00	0.2812	4.104	155.0	0.736806252	0.948718990	0.017897750	0.184647787	0.056910241
2020-03-31T12:30:00	0.2811	4.126	155.0	0.736433653	0.948129377	0.017880596	0.184470815	0.056855697
2020-03-31T12:35:00	0.2821	4.141	155.0	0.739915828	0.953644443	0.018041252	0.186128270	0.057366540
2020-03-31T12:40:00	0.2816	4.161	151.0	0.738258916	0.951018896	0.017964712	0.185338620	0.057123163
2020-03-31T12:45:00	0.2819	4.173	151.0	0.739171212	0.952464225	0.018006833	0.185773179	0.057257098
2020-03-31T12:50:00	0.2814	4.182	155.0	0.737513969	0.949839240	0.017930356	0.184984179	0.057013921
2020-03-31T12:55:00	0.2821	4.182	154.0	0.739711013	0.953319763	0.018031781	0.186030562	0.057336426
2020-03-31T13:00:00	0.2826	4.173	151.0	0.741264915	0.955783997	0.018103701	0.186772542	0.057565111
2020-03-31T13:05:00	0.2833	4.158	151.0	0.743459754	0.959268277	0.018205546	0.187823258	0.057888952
2020-03-31T13:10:00	0.2834	4.151	154.0	0.744050081	0.960206140	0.018232990	0.188106399	0.057976219
2020-03-31T13:15:00	0.2818	4.150	155.0	0.738863925	0.951977315	0.017992640	0.185626747	0.057211966
2020-03-31T13:20:00	0.2832	4.155	150.0	0.743306289	0.959024516	0.018198415	0.187749689	0.057866278
2020-03-31T13:25:00	0.2826	4.174	151.0	0.741329948	0.955887175	0.018106714	0.186803630	0.057574693
2020-03-31T13:30:00	0.2823	4.188	155.0	0.740315787	0.954278583	0.018059754	0.186319151	0.057425372
2020-03-31T13:35:00	0.2809	4.194	151.0	0.735767343	0.947075292	0.017849942	0.184154566	0.056758226
2020-03-31T13:40:00	0.2802	4.205	155.0	0.733787003	0.943944750	0.017759002	0.183216352	0.056469059
2020-03-31T13:45:00	0.2797	4.234	151.0	0.732127363	0.941323830	0.017682980	0.182432044	0.056227328
2020-03-31T13:50:00	0.2792	4.271	150.0	0.730466983	0.938704161	0.017607098	0.181649183	0.055986042
2020-03-31T13:55:00	0.2795	4.300	151.0	0.731381190	0.940146253	0.017648857	0.182080005	0.056118826
2020-03-31T14:00:00	0.2786	4.330	151.0	0.728432460	0.935497486	0.017514354	0.180692363	0.055691141
2020-03-31T14:05:00	0.2788	4.373	156.0	0.729025172	0.936431303	0.017541346	0.180970833	0.055776968
2020-03-31T14:10:00	0.2809	4.392	151.0	0.736051369	0.947524566	0.017863006	0.184289337	0.056799763
2020-03-31T14:15:00	0.2799	4.361	157.0	0.732784669	0.942361565	0.017713068	0.182742457	0.056323000
2020-03-31T14:20:00	0.2788	4.355	151.0	0.729193120	0.936695962	0.017548998	0.181049780	0.055801301
2020-03-31T14:25:00	0.2800	4.363	151.0	0.733003746	0.942707521	0.017723102	0.182845979	0.056354906
2020-03-31T14:30:00	0.2794	4.377	156.0	0.731021935	0.939579468	0.017632441	0.181910640	0.056066626
2020-03-31T14:35:00	0.2791	4.378	151.0	0.730004964	0.937975640	0.017586014	0.181431663	0.055919001
2020-03-31T14:40:00	0.2794	4.386	151.0	0.731241115	0.939925248	0.017642455	0.182013959	0.056098470
2020-03-31T14:45:00	0.2794	4.385	151.0	0.731189793	0.939844279	0.017640110	0.181989764	0.056091013
2020-03-31T14:50:00	0.2794	4.374	151.0	0.731138471	0.939763310	0.017637765	0.181965570	0.056083556
2020-03-31T14:55:00	0.2781	4.377	150.0	0.726901001	0.933086102	0.017444715	0.179973907	0.055469706
2020-03-31T15:00:00	0.2794	4.372	155.0	0.731035823	0.939601377	0.017633075	0.181917186	0.056068644
2020-03-31T15:05:00	0.2789	4.355	152.0	0.729374956	0.936982531	0.017557285	0.181135276	0.055827651
2020-03-31T15:10:00	0.2792	4.331	156.0	0.730289431	0.938424170	0.017598994	0.181565574	0.055960273
2020-03-31T15:15:00	0.2787	4.298	155.0	0.728950258	0.936313260	0.017537933	0.180935624	0.055766116
2020-03-31T15:20:00	0.2777	4.275	150.0	0.725677314	0.931160803	0.017389177	0.179400932	0.055293110
2020-03-31T15:25:00	0.2758	4.254	155.0	0.719497089	0.921457130	0.017110123	0.176521987	0.054405791
2020-03-31T15:30:00	0.2768	4.231	155.0	0.722672610	0.926438892	0.017253206	0.177998149	0.054860758
2020-03-31T15:35:00	0.2776	4.214	150.0	0.725200789	0.930411413	0.017367575	0.179178069	0.055224421
2020-03-31T15:40:00	0.2770	4.206	151.0	0.723214810	0.927290379	0.017277700	0.178250849	0.054938643
2020-03-31T15:45:00	0.2775	4.208	155.0	0.725097977	0.930249757	0.017362916	0.179130006	0.055209607
2020-03-31T15:50:00	0.2779	4.214	151.0	0.726335761	0.932196614	0.017419049	0.179709120	0.055388096
2020-03-31T15:55:00	0.2778	4.207	150.0	0.725962111	0.931608775	0.017402094	0.179534198	0.055334183
2020-03-31T16:00:00	0.2776	4.194	156.0	0.725266103	0.930514116	0.017370535	0.179208607	0.055233833
2020-03-31T16:05:00	0.2774	4.176	151.0	0.724706895	0.929634919	0.017345201	0.178947239	0.055153277
2020-03-31T16:10:00	0.2790	4.155	150.0	0.729946843	0.937884007	0.017583362	0.181404309	0.055910570
2020-03-31T16:15:00	0.2796	4.144	150.0	0.731641496	0.940557002	0.017660757	0.182202774	0.056156665
2020-03-31T16:20:00	0.2799	4.131	155.0	0.732692051	0.942215319	0.017708827	0.182698701	0.056309514
2020-03-31T16:25:00	0.2783	4.120	155.0	0.727626876	0.934228785	0.017477704	0.180314248	0.055574602
2020-03-31T16:30:00	0.2780	4.105	154.0	0.726423611	0.932334841	0.017423037	0.179750260	0.055400776
2020-03-31T16:35:00	0.2792	4.095	156.0	0.730373796	0.938557207	0.017602844	0.181605299	0.055972517
2020-03-31T16:40:00	0.2786	4.087	151.0	0.728527373	0.935647001	0.017518675	0.180736940	0.055704880
2020-03-31T16:45:00	0.2793	4.072	150.0	0.730866427	0.939334164	0.017625337	0.181837355	0.056044039
2020-03-31T16:50:00	0.2789	4.055	154.0	0.729342243	0.936930975	0.017555794	0.181119894	0.055822910
2020-03-31T16:55:00	0.2784	4.038	155.0	0.727817435	0.934528841	0.017486370	0.180403652	0.055602158
2020-03-31T17:00:00	0.2799	4.025	155.0	0.732731328	0.942277338	0.017710625	0.182717256	0.056315233
2020-03-31T17:05:00	0.2797	4.014	155.0	0.732173243	0.941396250	0.017685079	0.182453702	0.056234003
2020-03-31T17:10:00	0.2811	4.001	155.0	0.736438712	0.948137383	0.017880829	0.184473217	0.056856437
2020-03-31T17:15:00	0.2814	3.988	150.0	0.737487915	0.949797990	0.017929155	0.184971789	0.057010102
2020-03-31T17:20:00	0.2815	3.971	150.0	0.737894393	0.950441597	0.017947896	0.185165137	0.057069694
2020-03-31T17:25:00	0.2805	3.952	150.0	0.734765870	0.945491723	0.017803922	0.183679784	0.056611893
2020-03-31T17:30:00	0.2820	3.934	150.0	0.739349506	0.952746776	0.018015071	0.185858171	0.057283293
2020-03-31T17:35:00	0.2828	3.920	155.0	0.742002680	0.956954716	0.018137900	0.187125374	0.057673858
2020-03-31T17:40:00	0.2829	3.903	150.0	0.742408667	0.957599159	0.018156735	0.187319687	0.057733747
2020-03-31T17:45:00	0.2829	3.882	150.0	0.742172916	0.957224922	0.018145797	0.187206839	0.057698966
2020-03-31T17:50:00	0.2829	3.863	155.0	0.742258031	0.957360030	0.018149745	0.187247577	0.057711522
2020-03-31T17:55:00	0.2829	3.842	154.0	0.742343144	0.957495141	0.018153694	0.187288319	0.057724079
2020-03-31T18:00:00	0.2836	3.817	150.0	0.744673548	0.961196985	0.018261999	0.188405682	0.058068461
2020-03-31T18:05:00	0.2852	3.792	155.0	0.749565306	0.968983126	0.018490465	0.190762722	0.058794924
2020-03-31T18:10:00	0.2850	3.769	150.0	0.749009730	0.968097761	0.018464441	0.190494234	0.058712173
2020-03-31T18:15:00	0.2846	3.745	150.0	0.747813345	0.966192127	0.018408466	0.189916755	0.058534188
2020-03-31T18:20:00	0.2867	3.721	150.0	0.754620357	0.977051399	0.018728158	0.193214953	0.059550725
2020-03-31T18:25:00	0.2874	3.697	151.0	0.756623516	0.980254859	0.018822799	0.194191346	0.059851659
2020-03-31T18:30:00	0.2874	3.672	155.0	0.756708303	0.980390529	0.018826810	0.194232732	0.059864414
2020-03-31T18:35:00	0.2866	3.648	150.0	0.754235218	0.976435890	0.018709991	0.193027529	0.059492959
2020-03-31T18:40:00	0.2870	3.623	155.0	0.755599183	0.978616298	0.018774371	0.193691729	0.059697672
2020-03-31T18:45:00	0.2875	3.597	155.0	0.756962653	0.980797561	0.018838847	0.194356912	0.059902688
2020-03-31T18:50:00	0.2891	3.570	155.0	0.762157612	0.989123497	0.019085594	0.196902558	0.060687281
2020-03-31T18:55:00	0.2890	3.545	155.0	0.761923099	0.988747128	0.019074418	0.196787258	0.060651744
2020-03-31T19:00:00	0.2906	3.518	149.0	0.767111224	0.997084942	0.019322487	0.199346536	0.061440539
2020-03-31T19:05:00	0.2901	3.492	155.0	0.765282831	0.994143811	0.019234866	0.198442568	0.061161927
2020-03-31T19:10:00	0.2910	3.465	149.0	0.768236412	0.998896384	0.019376515	0.199903936	0.061612334
2020-03-31T19:15:00	0.2902	3.440	155.0	0.765770891	0.994928608	0.019258234	0.198683652	0.061236231
2020-03-31T19:20:00	0.2897	3.415	154.0	0.763941849	0.991988611	0.019170739	0.197780983	0.060958020
2020-03-31T19:25:00	0.2903	3.390	155.0	0.765940052	0.995200667	0.019266337	0.198767248	0.061261996
2020-03-31T19:30:00	0.2885	3.364	149.0	0.760281097	0.986113255	0.018996266	0.195980970	0.060403238
2020-03-31T19:35:00	0.2897	3.339	154.0	0.764195711	0.992396490	0.019182870	0.197906137	0.060996594
2020-03-31T19:40:00	0.2898	3.314	154.0	0.764280327	0.992532456	0.019186915	0.197947863	0.061009454
2020-03-31T19:45:00	0.2913	3.291	154.0	0.769146648	1.000362598	0.019420282	0.200355465	0.061751500
2020-03-31T19:50:00	0.2913	3.266	154.0	0.769231154	1.000498758	0.019424347	0.200397412	0.061764429
2020-03-31T19:55:00	0.2900	3.242	154.0	0.765172049	0.993965703	0.019229564	0.198387868	0.061145068
2020-03-31T20:00:00	0.2904	3.219	154.0	0.766213244	0.995640091	0.019279427	0.198902293	0.061303619
2020-03-31T20:05:00	0.2910	3.197	153.0	0.768210245	0.998854245	0.019375258	0.199890964	0.061608336
2020-03-31T20:10:00	0.2913	3.174	149.0	0.769250602	1.000530095	0.019425283	0.200407067	0.061767404
2020-03-31T20:15:00	0.2915	3.152	153.0	0.769972177	1.001693004	0.019460021	0.200765449	0.061877861
2020-03-31T20:20:00	0.2909	3.130	148.0	0.767826494	0.998236326	0.019356823	0.199700772	0.061549717
2020-03-31T20:25:00	0.2919	3.109	149.0	0.771096514	1.003505937	0.019514215	0.201324557	0.062050184
2020-03-31T20:30:00	0.2919	3.088	148.0	0.771180976	1.003642173	0.019518289	0.201366592	0.062063139
2020-03-31T20:35:00	0.2922	3.065	148.0	0.771902182	1.004805727	0.019553099	0.201725713	0.062173824
2020-03-31T20:40:00	0.2931	3.042	152.0	0.774850595	1.009567350	0.019695753	0.203197451	0.062627428
2020-03-31T20:45:00	0.2936	3.017	148.0	0.776525095	1.012275083	0.019777020	0.204035869	0.062885837
2020-03-31T20:50:00	0.2921	2.994	147.0	0.771837171	1.004700823	0.019549959	0.201693327	0.062163842
2020-03-31T20:55:00	0.2929	2.972	148.0	0.774149373	1.008434190	0.019661775	0.202846905	0.062519386
2020-03-31T21:00:00	0.2925	2.949	147.0	0.772960953	1.006514728	0.019604261	0.202253548	0.062336508
2020-03-31T21:05:00	0.2928	2.926	147.0	0.774000003	1.008192868	0.019654541	0.202772275	0.062496385
2020-03-31T21:10:00	0.2929	2.901	151.0	0.774402550	1.008843268	0.019674039	0.202973432	0.062558383
2020-03-31T21:15:00	0.2917	2.877	151.0	0.770349001	1.002300487	0.019478175	0.200952742	0.061935587
2020-03-31T21:20:00	0.2922	2.851	152.0	0.772025495	1.005004719	0.019559054	0.201787151	0.062192760
2020-03-31T21:25:00	0.2922	2.826	147.0	0.772109937	1.005140992	0.019563132	0.201829228	0.062205728
2020-03-31T21:30:00	0.2929	2.803	147.0	0.774421972	1.008874652	0.019674980	0.202983140	0.062561375
2020-03-31T21:35:00	0.2927	2.781	146.0	0.773551858	1.007468963	0.019632847	0.202548459	0.062427402
2020-03-31T21:40:00	0.2920	2.759	146.0	0.771408207	1.004008725	0.019529253	0.201479703	0.062098001
2020-03-31T21:45:00	0.2926	2.740	147.0	0.773402464	1.007227682	0.019625617	0.202473877	0.062404415
2020-03-31T21:50:00	0.2913	2.719	146.0	0.769029268	1.000173480	0.019414635	0.200297207	0.061733544
2020-03-31T21:55:00	0.2922	2.693	147.0	0.771979920	1.004931173	0.019556853	0.201764443	0.062185761
2020-03-31T22:00:00	0.2905	2.668	147.0	0.766648829	0.996340858	0.019300308	0.199117717	0.061370014
2020-03-31T22:05:00	0.2916	2.644	152.0	0.770145335	1.001972138	0.019468362	0.200851502	0.061904384
2020-03-31T22:10:00	0.2920	2.619	146.0	0.771410551	1.004012506	0.019529366	0.201480870	0.062098361
2020-03-31T22:15:00	0.2930	2.595	146.0	0.774584549	1.009137374	0.019682858	0.203064414	0.062586425
2020-03-31T22:20:00	0.2935	2.571	146.0	0.776166282	1.011694658	0.019759591	0.203856056	0.062830416
2020-03-31T22:25:00	0.2937	2.548	146.0	0.776793670	1.012709612	0.019790071	0.204170517	0.062927336
2020-03-31T22:30:00	0.2939	2.524	146.0	0.777420954	1.013724749	0.019820572	0.204485188	0.063024321
2020-03-31T22:35:00	0.2938	2.500	146.0	0.777094524	1.013196442	0.019804697	0.204321405	0.062973841
2020-03-31T22:40:00	0.2949	2.476	146.0	0.780581395	1.018844651	0.019974630	0.206074575	0.063514185
2020-03-31T22:45:00	0.2933	2.452	146.0	0.775487566	1.010597064	0.019726645	0.203516162	0.062725658
2020-03-31T22:50:00	0.2931	2.428	145.0	0.774842885	1.009554888	0.019695379	0.203193595	0.062626239
2020-03-31T22:55:00	0.2933	2.403	146.0	0.775470492	1.010569456	0.019725817	0.203507615	0.062723023
2020-03-31T23:00:00	0.2944	2.376	146.0	0.778958856	1.016215030	0.019895458	0.205257770	0.063262438
2020-03-31T23:05:00	0.2931	2.353	146.0	0.774817268	1.009513485	0.019694137	0.203180783	0.062622291
2020-03-31T23:10:00	0.2926	2.331	146.0	0.773217886	1.006929603	0.019616688	0.202381751	0.062376021
2020-03-31T23:15:00	0.2945	2.310	145.0	0.779251009	1.016688345	0.019909701	0.205404714	0.063307728
2020-03-31T23:20:00	0.2931	2.286	145.0	0.774791651	1.009472082	0.019692895	0.203167972	0.062618342
2020-03-31T23:25:00	0.2931	2.262	145.0	0.774783112	1.009458281	0.019692482	0.203163702	0.062617026
2020-03-31T23:30:00	0.2933	2.237	145.0	0.775410729	1.010472831	0.019722917	0.203477702	0.062713804
2020-03-31T23:35:00	0.2925	2.214	145.0	0.772856920	1.006346761	0.019599231	0.202201652	0.062320513
2020-03-31T23:40:00	0.2932	2.191	145.0	0.775075588	1.009931028	0.019706662	0.203309996	0.062662115
2020-03-31T23:45:00	0.2923	2.168	144.0	0.772521553	1.005805355	0.019583019	0.202034402	0.062268965
2020-03-31T23:50:00	0.2925	2.146	144.0	0.773149545	1.006819246	0.019613382	0.202347646	0.062365510
2020-03-31T23:55:00	0.2915	2.123	145.0	0.769957242	1.001668929	0.019459302	0.200758028	0.061875574
2020-04-01T00:00:00	0.2923	2.101	145.0	0.772495921	1.005763979	0.019581781	0.202021622	0.062265026
2020-04-01T00:05:00	0.2930	2.080	145.0	0.774714800	1.009347874	0.019689170	0.203129541	0.062606497
2020-04-01T00:10:00	0.2929	2.059	145.0	0.774388137	1.008819978	0.019673341	0.202966228	0.062556163
2020-04-01T00:15:00	0.2930	2.037	145.0	0.774697722	1.009320273	0.019688343	0.203121001	0.062603865
2020-04-01T00:20:00	0.2933	2.017	144.0	0.775643398	1.010849032	0.019734207	0.203594173	0.062749702
2020-04-01T00:25:00	0.2921	1.997	144.0	0.771816546	1.004667543	0.019548964	0.201683053	0.062160676
2020-04-01T00:30:00	0.2923	1.976	144.0	0.772444656	1.005681228	0.019579303	0.201996063	0.062257148
2020-04-01T00:35:00	0.2908	1.954	144.0	0.767658573	0.997965979	0.019348759	0.199617579	0.061524077
2020-04-01T00:40:00	0.2914	1.933	144.0	0.769561762	1.001031512	0.019440259	0.200561567	0.061815023
2020-04-01T00:45:00	0.2911	1.912	148.0	0.768597458	0.999477871	0.019393869	0.200082970	0.061667514
2020-04-01T00:50:00	0.2915	1.891	144.0	0.769863192	1.001517331	0.019454772	0.200711298	0.061861171
2020-04-01T00:55:00	0.2907	1.871	143.0	0.767305632	0.997397839	0.019331816	0.199442783	0.061470203
2020-04-01T01:00:00	0.2916	1.849	143.0	0.770164598	1.002003193	0.019469290	0.200861076	0.061907334
2020-04-01T01:05:00	0.2911	1.827	143.0	0.768563246	0.999422765	0.019392224	0.200066001	0.061662285
2020-04-01T01:10:00	0.2917	1.807	143.0	0.770465980	1.002489096	0.019483813	0.201010903	0.061953512
2020-04-01T01:15:00	0.2907	1.787	144.0	0.767271408	0.997342754	0.019330174	0.199425838	0.061464980
2020-04-01T01:20:00	0.2887	1.766	144.0	0.760882707	0.987077996	0.019024880	0.196276178	0.060494224
2020-04-01T01:25:00	0.2900	1.746	144.0	0.765022468	0.993725236	0.019222406	0.198314023	0.061122308
2020-04-01T01:30:00	0.2891	1.728	144.0	0.762142465	0.989099187	0.019084872	0.196895110	0.060684985
2020-04-01T01:35:00	0.2886	1.709	144.0	0.760537702	0.986524706	0.019008468	0.196106856	0.060442038
2020-04-01T01:40:00	0.2900	1.690	143.0	0.764996785	0.993683949	0.019221178	0.198301345	0.061118400
2020-04-01T01:45:00	0.2884	1.674	148.0	0.759881888	0.985473260	0.018977291	0.195785212	0.060342904
2020-04-01T01:50:00	0.2883	1.658	143.0	0.759553939	0.984947611	0.018961711	0.195624475	0.060293363
2020-04-01T01:55:00	0.2884	1.639	143.0	0.759864743	0.985445776	0.018976476	0.195776807	0.060340313
2020-04-01T02:00:00	0.2875	1.619	144.0	0.756980789	0.980826586	0.018839705	0.194365769	0.059905418
2020-04-01T02:05:00	0.2863	1.599	143.0	0.753134935	0.974678198	0.018658143	0.192492624	0.059328096
2020-04-01T02:10:00	0.2870	1.581	143.0	0.755365239	0.978242201	0.018763321	0.193577720	0.059662533
2020-04-01T02:15:00	0.2857	1.564	143.0	0.751197640	0.971585992	0.018567041	0.191552739	0.059038415
2020-04-01T02:20:00	0.2870	1.547	143.0	0.755348073	0.978214753	0.018762510	0.193569355	0.059659955
2020-04-01T02:25:00	0.2863	1.529	143.0	0.753100582	0.974623337	0.018656526	0.192475936	0.059322953
2020-04-01T02:30:00	0.2863	1.510	147.0	0.753091994	0.974609622	0.018656121	0.192471764	0.059321667
2020-04-01T02:35:00	0.2866	1.492	148.0	0.754043105	0.976128913	0.018700933	0.192934075	0.059464156
2020-04-01T02:40:00	0.2855	1.474	143.0	0.750514411	0.970496252	0.018534969	0.191221857	0.058936433
2020-04-01T02:45:00	0.2849	1.456	143.0	0.748584360	0.967420074	0.018444529	0.190288805	0.058648858
2020-04-01T02:50:00	0.2852	1.438	143.0	0.749856845	0.969447832	0.018504129	0.190903693	0.058838372
2020-04-01T02:55:00	0.2858	1.422	143.0	0.751769059	0.972497715	0.018593887	0.191829708	0.059123779
2020-04-01T03:00:00	0.2866	1.407	142.0	0.754320023	0.976571409	0.018713990	0.193068790	0.059505676
2020-04-01T03:05:00	0.2870	1.391	148.0	0.755590565	0.978602515	0.018773964	0.193687528	0.059696377
2020-04-01T03:10:00	0.2864	1.374	142.0	0.753663124	0.975521841	0.018683023	0.192749305	0.059407208
2020-04-01T03:15:00	0.2858	1.357	147.0	0.751734693	0.972442876	0.018592272	0.191813045	0.059118643
2020-04-01T03:20:00	0.2867	1.341	141.0	0.754605506	0.977027662	0.018727457	0.193207724	0.059548497
2020-04-01T03:25:00	0.2863	1.324	142.0	0.753317456	0.974969700	0.018666739	0.192581302	0.059355428
2020-04-01T03:30:00	0.2856	1.309	142.0	0.751068748	0.971380381	0.018560988	0.191490295	0.059019169
2020-04-01T03:35:00	0.2851	1.293	142.0	0.749459247	0.968814089	0.018485496	0.190711452	0.058779122
2020-04-01T03:40:00	0.2872	1.277	142.0	0.756169897	0.979529118	0.018801345	0.193970009	0.059783440
2020-04-01T03:45:00	0.2856	1.261	142.0	0.751042970	0.971339259	0.018559778	0.191477807	0.059015320
2020-04-01T03:50:00	0.2866	1.245	141.0	0.754234168	0.976434211	0.018709942	0.193027018	0.059492802
2020-04-01T03:55:00	0.2875	1.231	141.0	0.757103071	0.981022293	0.018845494	0.194425486	0.059923823
2020-04-01T04:00:00	0.2874	1.215	141.0	0.756774879	0.980497064	0.018829961	0.194265232	0.059874431
2020-04-01T04:05:00	0.2872	1.201	141.0	0.756121269	0.979451330	0.018799046	0.193946290	0.059776130
2020-04-01T04:10:00	0.2880	1.188	141.0	0.758663563	0.983520967	0.018919446	0.195188437	0.060158972
2020-04-01T04:15:00	0.2872	1.173	142.0	0.756092665	0.979405573	0.018797693	0.193932338	0.059771830
2020-04-01T04:20:00	0.2871	1.159	141.0	0.755758663	0.978871346	0.018781907	0.193769470	0.059721632
2020-04-01T04:25:00	0.2879	1.145	141.0	0.758301202	0.982940559	0.018902260	0.195011129	0.060104324
2020-04-01T04:30:00	0.2879	1.131	142.0	0.758286908	0.982917666	0.018901582	0.195004137	0.060102169
2020-04-01T04:35:00	0.2886	1.117	141.0	0.760508444	0.986477789	0.019007076	0.196092500	0.060437613
2020-04-01T04:40:00	0.2882	1.104	141.0	0.759216699	0.984407170	0.018945697	0.195459259	0.060242442
2020-04-01T04:45:00	0.2884	1.090	141.0	0.759841195	0.985408029	0.018975357	0.195765263	0.060336755
2020-04-01T04:50:00	0.2892	1.080	142.0	0.762380977	0.989482020	0.019096242	0.197012411	0.060721139
2020-04-01T04:55:00	0.2896	1.068	142.0	0.763643089	0.991508668	0.019156468	0.197633750	0.060912641
2020-04-01T05:00:00	0.2897	1.056	142.0	0.763947847	0.991998247	0.019171026	0.197783940	0.060958931
2020-04-01T05:05:00	0.2893	1.044	142.0	0.762657282	0.989925579	0.019109418	0.197148347	0.060763035
2020-04-01T05:10:00	0.2908	1.033	142.0	0.767745602	0.998106090	0.019352938	0.199660694	0.061537365
2020-04-01T05:15:00	0.2926	1.023	141.0	0.773463556	1.007326347	0.019628574	0.202504374	0.062413815
2020-04-01T05:20:00	0.2926	1.014	142.0	0.773449320	1.007303354	0.019627885	0.202497267	0.062411624
2020-04-01T05:25:00	0.2935	1.006	141.0	0.776297955	1.011907642	0.019765986	0.203922032	0.062850751
2020-04-01T05:30:00	0.2937	0.998	142.0	0.776919632	1.012913428	0.019796194	0.204233684	0.062946805
2020-04-01T05:35:00	0.2949	0.992	141.0	0.780718598	1.019067123	0.019981333	0.206143725	0.063535498
2020-04-01T05:40:00	0.2951	0.983	141.0	0.781339550	1.020074187	0.020011683	0.206456840	0.063632003
2020-04-01T05:45:00	0.2952	0.974	141.0	0.781642885	1.020566264	0.020026518	0.206609890	0.063679175
2020-04-01T05:50:00	0.2959	0.968	142.0	0.783850739	1.024150367	0.020134675	0.207725726	0.064023086
2020-04-01T05:55:00	0.2957	0.961	142.0	0.783201797	1.023096460	0.020102852	0.207397418	0.063921898
2020-04-01T06:00:00	0.2951	0.955	142.0	0.781282722	1.019982008	0.020008904	0.206428173	0.063623168
2020-04-01T06:05:00	0.2960	0.950	141.0	0.784125480	1.024596672	0.020148155	0.207864806	0.064065952
2020-04-01T06:10:00	0.2959	0.944	142.0	0.783793948	1.024058121	0.020131889	0.207696983	0.064014227
2020-04-01T06:15:00	0.2968	0.940	141.0	0.786634829	1.028676116	0.020271509	0.209137421	0.064458184
2020-04-01T06:20:00	0.2977	0.939	141.0	0.789473589	1.033297881	0.020411547	0.210582166	0.064903469
2020-04-01T06:25:00	0.2957	0.938	141.0	0.783116596	1.022958118	0.020098676	0.207354334	0.063908620
2020-04-01T06:30:00	0.2974	0.938	142.0	0.788494484	1.031702991	0.020363188	0.210083257	0.064749700
2020-04-01T06:35:00	0.2978	0.938	141.0	0.789747925	1.033744907	0.020425108	0.210722070	0.064946588
2020-04-01T06:40:00	0.2961	0.940	141.0	0.784343419	1.024950751	0.020158853	0.207975167	0.064099966
2020-04-01T06:45:00	0.2967	0.941	141.0	0.786232572	1.028021788	0.020251708	0.208933134	0.064395221
2020-04-01T06:50:00	0.2955	0.945	141.0	0.782410717	1.021812224	0.020064096	0.206997579	0.063798664
2020-04-01T06:55:00	0.2959	0.949	141.0	0.783666165	1.023850574	0.020125621	0.207632319	0.063994297
2020-04-01T07:00:00	0.2965	0.955	141.0	0.785555655	1.026921014	0.020218410	0.208589604	0.064289342
2020-04-01T07:05:00	0.2948	0.962	141.0	0.780462821	1.018652402	0.019968838	0.206014824	0.063495770
2020-04-01T07:10:00	0.2947	0.970	140.0	0.780130969	1.018114418	0.019952634	0.205847649	0.063444245
2020-04-01T07:15:00	0.2938	0.981	141.0	0.777256770	1.013459016	0.019812586	0.204402802	0.062998929
2020-04-01T07:20:00	0.2956	0.996	141.0	0.782960389	1.022704499	0.020091021	0.207275357	0.063884278
2020-04-01T07:25:00	0.2958	1.013	141.0	0.783580974	1.023712213	0.020121443	0.207589214	0.063981012
2020-04-01T07:30:00	0.2955	1.032	141.0	0.782614552	1.022143075	0.020074078	0.207100564	0.063830405
2020-04-01T07:35:00	0.2959	1.056	141.0	0.783869933	1.024181544	0.020135616	0.207735440	0.064026080
2020-04-01T07:40:00	0.2958	1.084	141.0	0.783538378	1.023643034	0.020119354	0.207567663	0.063974370
2020-04-01T07:45:00	0.2964	1.116	141.0	0.785427931	1.026713361	0.020212130	0.208524819	0.064269374
2020-04-01T07:50:00	0.2964	1.142	141.0	0.785413739	1.026690289	0.020211432	0.208517621	0.064267156
2020-04-01T07:55:00	0.2963	1.173	141.0	0.785082319	1.026151539	0.020195143	0.208349571	0.064215361
2020-04-01T08:00:00	0.2976	1.217	142.0	0.789190045	1.032835921	0.020397536	0.210437618	0.064858918
2020-04-01T08:05:00	0.2965	1.256	142.0	0.785688368	1.027136794	0.020224935	0.208656931	0.064310092
2020-04-01T08:10:00	0.2980	1.298	142.0	0.790429084	1.034855140	0.020458799	0.211069662	0.065053720
2020-04-01T08:15:00	0.2977	1.347	141.0	0.789464401	1.033282910	0.020411093	0.210577481	0.064902025
2020-04-01T08:20:00	0.2960	1.392	142.0	0.784059492	1.024489471	0.020144917	0.207831397	0.064055655
2020-04-01T08:25:00	0.2969	1.443	142.0	0.786900175	1.029107818	0.020284577	0.209272237	0.064499736
2020-04-01T08:30:00	0.2970	1.490	143.0	0.787203066	1.029600681	0.020299499	0.209426187	0.064547185
2020-04-01T08:35:00	0.2963	1.540	143.0	0.784968773	1.025966983	0.020189564	0.208292013	0.064197621
2020-04-01T08:40:00	0.2965	1.599	144.0	0.785589031	1.026975279	0.020220051	0.208606535	0.064294560
2020-04-01T08:45:00	0.2974	1.654	148.0	0.788428572	1.031595656	0.020359935	0.210049694	0.064739356
2020-04-01T08:50:00	0.2973	1.715	144.0	0.788097414	1.031056439	0.020343594	0.209881110	0.064687396
2020-04-01T08:55:00	0.2963	1.775	143.0	0.785229241	1.026390360	0.020202364	0.208424061	0.064238320
2020-04-01T09:00:00	0.2951	1.834	144.0	0.781406377	1.020182588	0.020014950	0.206490552	0.063642394
2020-04-01T09:05:00	0.2971	1.894	144.0	0.787737862	1.030471098	0.020325860	0.209698154	0.064631008
2020-04-01T09:10:00	0.2960	1.954	145.0	0.784234847	1.024774351	0.020153523	0.207920183	0.064083020
2020-04-01T09:15:00	0.2959	2.032	144.0	0.783903324	1.024235784	0.020137254	0.207752342	0.064031289
2020-04-01T09:20:00	0.2964	2.112	145.0	0.785475500	1.026790697	0.020214469	0.208548946	0.064276811
2020-04-01T09:25:00	0.2965	2.193	145.0	0.785778505	1.027283358	0.020229368	0.208702665	0.064324188
2020-04-01T09:30:00	0.2953	2.281	145.0	0.781956193	1.021074605	0.020041847	0.206768036	0.063727917
2020-04-01T09:35:00	0.2935	2.371	146.0	0.776222611	1.011785769	0.019762326	0.203884278	0.062839115
2020-04-01T09:40:00	0.2951	2.452	146.0	0.781292721	1.019998227	0.020009393	0.206433217	0.063624722
2020-04-01T09:45:00	0.2940	2.517	152.0	0.777783752	1.014312028	0.019838224	0.204667302	0.063080450
2020-04-01T09:50:00	0.2951	2.582	147.0	0.781264306	1.019952138	0.020008004	0.206418884	0.063620305
2020-04-01T09:55:00	0.2935	2.645	147.0	0.776165706	1.011693726	0.019759563	0.203855767	0.062830327
2020-04-01T10:00:00	0.2930	2.706	147.0	0.774561200	1.009099642	0.019681726	0.203052741	0.062582827
2020-04-01T10:05:00	0.2925	2.774	147.0	0.772956015	1.006506754	0.019604022	0.202251085	0.062335749
2020-04-01T10:10:00	0.2920	2.849	147.0	0.771350147	1.003915063	0.019526451	0.201450799	0.062089093
2020-04-01T10:15:00	0.2898	2.937	148.0	0.764324731	0.992603808	0.019189037	0.197969760	0.061016203
2020-04-01T10:20:00	0.2913	3.035	149.0	0.769092234	1.000274927	0.019417664	0.200328457	0.061743176
2020-04-01T10:25:00	0.2901	3.125	149.0	0.765253032	0.994095901	0.019233440	0.198427853	0.061157392
2020-04-01T10:30:00	0.2896	3.218	154.0	0.763643884	0.991509945	0.019156506	0.197634142	0.060912762
2020-04-01T10:35:00	0.2895	3.310	155.0	0.763310552	0.990974556	0.019140590	0.197469940	0.060862153
2020-04-01T10:40:00	0.2906	3.408	155.0	0.766804447	0.996591257	0.019307771	0.199194710	0.061393744
2020-04-01T10:45:00	0.2889	3.508	150.0	0.761686293	0.988367130	0.019063137	0.196670867	0.060615871
2020-04-01T10:50:00	0.2892	3.613	155.0	0.762629522	0.989881012	0.019108094	0.197134687	0.060758825
2020-04-01T10:55:00	0.2889	3.728	151.0	0.761657731	0.988321299	0.019061776	0.196656831	0.060611545
2020-04-01T11:00:00	0.2891	3.848	151.0	0.762281822	0.989322861	0.019091515	0.196963642	0.060706107
2020-04-01T11:05:00	0.2878	3.964	152.0	0.758116173	0.982644234	0.018893487	0.194920626	0.060076430
2020-04-01T11:10:00	0.2872	4.080	152.0	0.756184307	0.979552170	0.018802026	0.193977038	0.059785607
2020-04-01T11:15:00	0.2870	4.202	158.0	0.755530595	0.978506614	0.018771131	0.193658300	0.059687369
2020-04-01T11:20:00	0.2866	4.329	159.0	0.754237138	0.976438958	0.018710082	0.193028463	0.059493247
2020-04-01T11:25:00	0.2854	4.468	159.0	0.750382740	0.970286286	0.018528791	0.191158125	0.058916791
2020-04-01T11:30:00	0.2851	4.591	160.0	0.749407776	0.968732058	0.018483084	0.190686573	0.058771454
2020-04-01T11:35:00	0.2850	4.716	155.0	0.749073178	0.968198857	0.018467412	0.190524885	0.058721620
2020-04-01T11:40:00	0.2834	4.836	161.0	0.743930788	0.960016592	0.018227442	0.188049164	0.057958579
2020-04-01T11:45:00	0.2834	4.947	161.0	0.743916439	0.959993794	0.018226775	0.188042280	0.057956457
2020-04-01T11:50:00	0.2831	5.046	161.0	0.742939788	0.958442454	0.018181391	0.187574055	0.057812145
2020-04-01T11:55:00	0.2825	5.145	157.0	0.741000081	0.955363863	0.018091432	0.186645974	0.057526102
2020-04-01T12:00:00	0.2819	5.242	162.0	0.739059365	0.952286989	0.018001666	0.185719873	0.057240669
2020-04-01T12:05:00	0.2820	5.337	161.0	0.739366127	0.952773118	0.018015839	0.185866095	0.057285736
2020-04-01T12:10:00	0.2820	5.432	164.0	0.739351761	0.952750350	0.018015176	0.185859246	0.057283625
2020-04-01T12:15:00	0.2810	5.519	158.0	0.736124829	0.947640778	0.017866385	0.184324203	0.056810509
2020-04-01T12:20:00	0.2805	5.596	163.0	0.734503123	0.945076403	0.017791859	0.183555328	0.056573535
2020-04-01T12:25:00	0.2805	5.655	164.0	0.734488738	0.945053666	0.017791199	0.183548516	0.056571435
2020-04-01T12:30:00	0.2799	5.699	164.0	0.732544629	0.941982553	0.017702077	0.182629065	0.056288052
2020-04-01T12:35:00	0.2793	5.745	163.0	0.730599504	0.938913157	0.017613148	0.181711600	0.056005280
2020-04-01T12:40:00	0.2807	5.778	163.0	0.735410077	0.946510267	0.017833518	0.183985117	0.056706000
2020-04-01T12:45:00	0.2803	5.792	164.0	0.734109642	0.944454546	0.017773801	0.183369032	0.056516117
2020-04-01T12:50:00	0.2809	5.800	159.0	0.736024176	0.947481549	0.017861755	0.184276431	0.056795786
2020-04-01T12:55:00	0.2795	5.812	164.0	0.731507409	0.940345412	0.017654627	0.182139529	0.056137172
2020-04-01T13:00:00	0.2808	5.810	164.0	0.735673997	0.946927653	0.017845650	0.184110284	0.056744578
2020-04-01T13:05:00	0.2797	5.806	164.0	0.732122152	0.941315604	0.017682741	0.182429584	0.056226570
2020-04-01T13:10:00	0.2796	5.793	159.0	0.731786002	0.940785049	0.017667365	0.182270947	0.056177676
2020-04-01T13:15:00	0.2786	5.778	164.0	0.728552505	0.935686593	0.017519819	0.180748745	0.055708518
2020-04-01T13:20:00	0.2791	5.757	164.0	0.730148002	0.938201165	0.017592540	0.181498991	0.055939752
2020-04-01T13:25:00	0.2789	5.731	165.0	0.729489719	0.937163412	0.017562517	0.181189247	0.055844286
2020-04-01T13:30:00	0.2791	5.710	164.0	0.730119198	0.938155749	0.017591226	0.181485432	0.055935573
2020-04-01T13:35:00	0.2789	5.687	158.0	0.729460910	0.937118005	0.017561203	0.181175698	0.055840110
2020-04-01T13:40:00	0.2784	5.674	163.0	0.727836297	0.934558543	0.017487227	0.180412502	0.055604885
2020-04-01T13:45:00	0.2789	5.656	163.0	0.729432101	0.937072597	0.017559890	0.181162149	0.055835934
2020-04-01T13:50:00	0.2772	5.636	163.0	0.723940092	0.928429784	0.017310494	0.178589174	0.055042918
2020-04-01T13:55:00	0.2774	5.616	163.0	0.724570512	0.929420537	0.017339025	0.178883526	0.055133640
2020-04-01T14:00:00	0.2775	5.601	163.0	0.724878471	0.929904645	0.017352972	0.179027410	0.055177987
2020-04-01T14:05:00	0.2761	5.579	163.0	0.720348126	0.922791373	0.017148407	0.176916956	0.054527524
2020-04-01T14:10:00	0.2759	5.559	163.0	0.719688102	0.921756543	0.017118712	0.176610596	0.054433101
2020-04-01T14:15:00	0.2768	5.549	162.0	0.722577912	0.926290202	0.017248930	0.177954034	0.054847162
2020-04-01T14:20:00	0.2760	5.535	157.0	0.719982025	0.922217328	0.017131933	0.176746990	0.054475139
2020-04-01T14:25:00	0.2776	5.522	162.0	0.725128719	0.930298092	0.017364309	0.179144376	0.055214037
2020-04-01T14:30:00	0.2764	5.513	157.0	0.721566775	0.924703056	0.017203308	0.177483352	0.054702093
2020-04-01T14:35:00	0.2773	5.501	157.0	0.724455122	0.929239166	0.017333801	0.178829629	0.055117029
2020-04-01T14:40:00	0.2775	5.492	158.0	0.725085454	0.930230066	0.017362349	0.179124152	0.055207803
2020-04-01T14:45:00	0.2778	5.484	163.0	0.726037961	0.931728095	0.017405535	0.179569699	0.055345125
2020-04-01T14:50:00	0.2778	5.472	157.0	0.726023543	0.931705413	0.017404881	0.179562951	0.055343045
2020-04-01T14:55:00	0.2780	5.466	162.0	0.726653610	0.932696761	0.017433479	0.179857991	0.055433980
2020-04-01T15:00:00	0.2783	5.457	162.0	0.727605715	0.934195465	0.017476742	0.180304321	0.055571543
2020-04-01T15:05:00	0.2771	5.447	162.0	0.723723695	0.928089779	0.017300706	0.178488195	0.055011795
2020-04-01T15:10:00	0.2768	5.431	162.0	0.722741732	0.926547429	0.017256328	0.178030354	0.054870684
2020-04-01T15:15:00	0.2765	5.412	162.0	0.721759509	0.925005514	0.017211999	0.177573018	0.054729729
2020-04-01T15:20:00	0.2775	5.394	162.0	0.724970079	0.930048668	0.017357122	0.179070224	0.055191182
2020-04-01T15:25:00	0.2770	5.377	162.0	0.723343499	0.927492513	0.017283517	0.178310854	0.054957137
2020-04-01T15:30:00	0.2776	5.364	163.0	0.725263584	0.930510155	0.017370421	0.179207429	0.055233470
2020-04-01T15:35:00	0.2774	5.351	162.0	0.724604435	0.929473859	0.017340561	0.178899373	0.055138524
2020-04-01T15:40:00	0.2786	5.336	162.0	0.728456717	0.935535698	0.017515458	0.180703755	0.055694652
2020-04-01T15:45:00	0.2785	5.317	162.0	0.728120236	0.935005702	0.017500145	0.180545765	0.055645958
2020-04-01T15:50:00	0.2782	5.303	162.0	0.727139436	0.933461398	0.017455547	0.180085664	0.055504151
2020-04-01T15:55:00	0.2785	5.288	162.0	0.728091416	0.934960312	0.017498833	0.180532236	0.055641789
2020-04-01T16:00:00	0.2785	5.281	162.0	0.728077006	0.934937617	0.017498178	0.180525472	0.055639704
2020-04-01T16:05:00	0.2789	5.271	162.0	0.729359384	0.936957989	0.017556576	0.181127954	0.055825394
2020-04-01T16:10:00	0.2783	5.259	162.0	0.727421239	0.933905020	0.017468355	0.180217796	0.055544875
2020-04-01T16:15:00	0.2794	5.245	162.0	0.730957414	0.939477688	0.017629493	0.181880232	0.056057254
2020-04-01T16:20:00	0.2785	5.231	162.0	0.728053950	0.934901306	0.017497129	0.180514650	0.055636368
2020-04-01T16:25:00	0.2786	5.214	162.0	0.728370265	0.935399517	0.017511523	0.180663156	0.055682139
2020-04-01T16:30:00	0.2794	5.194	162.0	0.730940136	0.939450432	0.017628704	0.181872089	0.056054744
2020-04-01T16:35:00	0.2779	5.173	161.0	0.726103590	0.931831339	0.017408513	0.179600420	0.055354594
2020-04-01T16:40:00	0.2784	5.149	161.0	0.727708785	0.934357756	0.017481428	0.180352674	0.055586446
2020-04-01T16:45:00	0.2799	5.123	161.0	0.732531730	0.941962187	0.017701487	0.182622973	0.056286174
2020-04-01T16:50:00	0.2787	5.096	162.0	0.728985527	0.936368833	0.017539540	0.180952199	0.055771225
2020-04-01T16:55:00	0.2783	5.068	161.0	0.727691491	0.934330525	0.017480642	0.180344560	0.055583945
2020-04-01T17:00:00	0.2791	5.039	161.0	0.730261831	0.938380649	0.017597734	0.181552579	0.055956268
2020-04-01T17:05:00	0.2776	5.008	161.0	0.725424401	0.930763045	0.017377710	0.179282631	0.055256648
2020-04-01T17:10:00	0.2789	4.977	161.0	0.729606449	0.937347403	0.017567839	0.181244152	0.055861208
2020-04-01T17:15:00	0.2804	4.944	161.0	0.734426936	0.944955986	0.017788362	0.183519249	0.056562415
2020-04-01T17:20:00	0.2784	4.913	161.0	0.727984781	0.934792373	0.017493982	0.180482185	0.055626362
2020-04-01T17:25:00	0.2786	4.882	156.0	0.728623159	0.935797899	0.017523036	0.180781933	0.055718747
2020-04-01T17:30:00	0.2796	4.850	156.0	0.731836441	0.940864652	0.017669672	0.182294746	0.056185011
2020-04-01T17:35:00	0.2796	4.818	161.0	0.731830683	0.940855564	0.017669408	0.182292029	0.056184174
2020-04-01T17:40:00	0.2807	4.787	160.0	0.735362672	0.946435304	0.017831339	0.183962639	0.056699072
2020-04-01T17:45:00	0.2806	4.756	161.0	0.735035444	0.945917897	0.017816304	0.183807520	0.056651263
2020-04-01T17:50:00	0.2819	4.725	160.0	0.739206712	0.952520480	0.018008473	0.185790100	0.057262313
2020-04-01T17:55:00	0.2823	4.695	160.0	0.740485263	0.954547331	0.018067597	0.186400065	0.057450310
2020-04-01T18:00:00	0.2821	4.665	160.0	0.739837424	0.953520149	0.018037626	0.186090863	0.057355011
2020-04-01T18:05:00	0.2830	4.635	159.0	0.742720241	0.958093835	0.018171197	0.187468886	0.057779731
2020-04-01T18:10:00	0.2841	4.605	159.0	0.746241943	0.963691075	0.018335084	0.189159687	0.058300852
2020-04-01T18:15:00	0.2855	4.576	159.0	0.750720883	0.970825528	0.018544658	0.191321817	0.058967242
2020-04-01T18:20:00	0.2851	4.548	154.0	0.749434364	0.968774432	0.018484330	0.190699424	0.058775415
2020-04-01T18:25:00	0.2848	4.519	153.0	0.748467751	0.967234324	0.018439072	0.190232511	0.058631507
2020-04-01T18:30:00	0.2853	4.491	153.0	0.750063353	0.969777046	0.018513812	0.191003581	0.058869159
2020-04-01T18:35:00	0.2842	4.466	153.0	0.746533777	0.964155395	0.018348701	0.189300163	0.058344149
2020-04-01T18:40:00	0.2865	4.440	153.0	0.753892320	0.975887998	0.018693825	0.192860743	0.059441554
2020-04-01T18:45:00	0.2865	4.413	158.0	0.753886596	0.975878853	0.018693555	0.192857959	0.059440696
2020-04-01T18:50:00	0.2871	4.386	158.0	0.755799618	0.978936848	0.018783842	0.193789437	0.059727786
2020-04-01T18:55:00	0.2869	4.357	152.0	0.755154423	0.977905131	0.018753365	0.193475013	0.059630878
2020-04-01T19:00:00	0.2876	4.331	152.0	0.757386387	0.981475781	0.018858909	0.194563885	0.059966479
2020-04-01T19:05:00	0.2886	4.305	153.0	0.760575061	0.986584614	0.019010244	0.196125187	0.060447687
2020-04-01T19:10:00	0.2879	4.280	157.0	0.758333554	0.982992372	0.018903794	0.195026956	0.060109202
2020-04-01T19:15:00	0.2894	4.255	158.0	0.763117203	0.990664050	0.019131361	0.197374728	0.060832808
2020-04-01T19:20:00	0.2899	4.228	152.0	0.764706598	0.993217505	0.019207296	0.198158133	0.061074261
2020-04-01T19:25:00	0.2883	4.199	152.0	0.759594165	0.985012082	0.018963622	0.195644188	0.060299439
2020-04-01T19:30:00	0.2892	4.170	152.0	0.762461839	0.989611823	0.019100098	0.197052188	0.060733398
2020-04-01T19:35:00	0.2893	4.143	153.0	0.762775258	0.990114989	0.019115046	0.197206403	0.060780929
2020-04-01T19:40:00	0.2896	4.116	152.0	0.763726779	0.991643103	0.019160465	0.197674988	0.060925351
2020-04-01T19:45:00	0.2901	4.090	157.0	0.765315917	0.994197006	0.019236450	0.198458906	0.061166962
2020-04-01T19:50:00	0.2895	4.065	157.0	0.763396309	0.991112288	0.019144684	0.197512177	0.060875171
2020-04-01T19:55:00	0.2900	4.040	157.0	0.764985587	0.993665948	0.019220642	0.198295818	0.061116697
2020-04-01T20:00:00	0.2892	4.016	156.0	0.762427571	0.989556815	0.019098464	0.197035331	0.060728203
2020-04-01T20:05:00	0.2885	3.992	150.0	0.760187168	0.985962658	0.018991800	0.195934901	0.060389039
2020-04-01T20:10:00	0.2890	3.967	151.0	0.761777800	0.988513963	0.019067496	0.196715838	0.060629732
2020-04-01T20:15:00	0.2888	3.943	156.0	0.761133629	0.987480470	0.019036821	0.196399375	0.060532195
2020-04-01T20:20:00	0.2891	3.919	155.0	0.762085564	0.989007863	0.019082160	0.196867131	0.060676362
2020-04-01T20:25:00	0.2903	3.895	156.0	0.765908019	0.995149147	0.019264803	0.198751416	0.061257117
2020-04-01T20:30:00	0.2907	3.868	156.0	0.767177508	0.997191621	0.019325668	0.199379349	0.061450652
2020-04-01T20:35:00	0.2901	3.843	156.0	0.765258847	0.994105250	0.019233718	0.198430725	0.061158277
2020-04-01T20:40:00	0.2908	3.820	157.0	0.767484832	0.997686289	0.019340418	0.199531523	0.061497553
2020-04-01T20:45:00	0.2900	3.799	155.0	0.764928512	0.993574201	0.019217911	0.198267646	0.061108014
2020-04-01T20:50:00	0.2901	3.778	156.0	0.765241726	0.994077724	0.019232899	0.198422271	0.061155671
2020-04-01T20:55:00	0.2905	3.757	151.0	0.766511439	0.996119807	0.019293720	0.199049755	0.061349068
2020-04-01T21:00:00	0.2904	3.734	150.0	0.766186919	0.995597744	0.019278165	0.198889278	0.061299607
2020-04-01T21:05:00	0.2893	3.712	151.0	0.762672463	0.989949951	0.019110142	0.197155817	0.060765337
2020-04-01T21:10:00	0.2906	3.688	150.0	0.766813112	0.996605201	0.019308186	0.199198997	0.061395066
2020-04-01T21:15:00	0.2910	3.667	150.0	0.768082296	0.998648206	0.019369110	0.199827540	0.061588789
2020-04-01T21:20:00	0.2900	3.644	150.0	0.764888559	0.993509979	0.019216000	0.198247927	0.061101937
2020-04-01T21:25:00	0.2894	3.623	150.0	0.762968733	0.990425639	0.019124276	0.197301633	0.060810280
2020-04-01T21:30:00	0.2902	3.601	150.0	0.765833840	0.995029844	0.019261249	0.198714757	0.061245818
2020-04-01T21:35:00	0.2898	3.579	150.0	0.764552483	0.992969812	0.019199926	0.198082098	0.061050826
2020-04-01T21:40:00	0.2904	3.557	155.0	0.766460092	0.996037199	0.019291259	0.199024360	0.061341241
2020-04-01T21:45:00	0.2905	3.533	155.0	0.766773180	0.996540944	0.019306271	0.199179239	0.061388976
2020-04-01T21:50:00	0.2899	3.508	155.0	0.764854313	0.993454932	0.019214362	0.198231026	0.061096727
2020-04-01T21:55:00	0.2905	3.483	150.0	0.766761770	0.996522585	0.019305724	0.199173593	0.061387236
2020-04-01T22:00:00	0.2896	3.461	154.0	0.763885950	0.991898807	0.019168069	0.197753431	0.060949528
2020-04-01T22:05:00	0.2890	3.438	149.0	0.761739657	0.988452758	0.019065679	0.196697092	0.060623954
2020-04-01T22:10:00	0.2900	3.416	149.0	0.765017808	0.993717745	0.019222183	0.198311723	0.061121599
2020-04-01T22:15:00	0.2890	3.395	149.0	0.761914711	0.988733668	0.019074019	0.196783135	0.060650473
2020-04-01T22:20:00	0.2896	3.371	148.0	0.763916845	0.991948440	0.019169545	0.197768659	0.060954221
2020-04-01T22:25:00	0.2892	3.347	153.0	0.762408919	0.989526874	0.019097575	0.197026156	0.060725375
2020-04-01T22:30:00	0.2896	3.323	153.0	0.763772779	0.991716998	0.019162662	0.197697656	0.060932338
2020-04-01T22:35:00	0.2881	3.300	149.0	0.759071838	0.984175056	0.018938820	0.195388314	0.060220576
2020-04-01T22:40:00	0.2895	3.278	148.0	0.763309649	0.990973105	0.019140547	0.197469495	0.060862016
2020-04-01T22:45:00	0.2882	3.255	148.0	0.759247017	0.984455751	0.018947136	0.195474109	0.060247019
2020-04-01T22:50:00	0.2885	3.233	148.0	0.760292707	0.986131869	0.018996818	0.195986665	0.060404994
2020-04-01T22:55:00	0.2879	3.212	148.0	0.758463860	0.983201080	0.018909973	0.195090709	0.060128851
2020-04-01T23:00:00	0.2873	3.191	148.0	0.756314471	0.979760401	0.018808181	0.194040537	0.059805178
2020-04-01T23:05:00	0.2881	3.171	147.0	0.758958521	0.983993498	0.018933442	0.195332827	0.060203474
2020-04-01T23:10:00	0.2867	3.150	148.0	0.754571384	0.976973125	0.018725847	0.193191115	0.059543378
2020-04-01T23:15:00	0.2882	3.127	147.0	0.759453117	0.984786030	0.018956922	0.195575074	0.060278137
2020-04-01T23:20:00	0.2870	3.107	152.0	0.755386316	0.978275904	0.018764316	0.193587990	0.059665699
2020-04-01T23:25:00	0.2870	3.085	147.0	0.755473992	0.978416101	0.018768457	0.193630715	0.059678867
2020-04-01T23:30:00	0.2874	3.063	147.0	0.756840367	0.980601862	0.018833060	0.194297204	0.059884285
2020-04-01T23:35:00	0.2871	3.043	152.0	0.755649338	0.978696506	0.018776741	0.193716176	0.059705207
2020-04-01T23:40:00	0.2868	3.021	147.0	0.754777742	0.977302959	0.018735584	0.193291571	0.059574339
2020-04-01T23:45:00	0.2871	3.001	147.0	0.755824676	0.978976925	0.018785026	0.193801654	0.059731552
2020-04-01T23:50:00	0.2872	2.981	147.0	0.756232028	0.979628511	0.018804283	0.194000317	0.059792782
2020-04-01T23:55:00	0.2857	2.962	146.0	0.751201555	0.971592239	0.018567225	0.191554636	0.059038999
2020-04-02T00:00:00	0.2869	2.942	147.0	0.755128491	0.977863671	0.018752141	0.193462381	0.059626985
2020-04-02T00:05:00	0.2873	2.923	147.0	0.756494992	0.980049216	0.018816719	0.194128621	0.059832326
2020-04-02T00:10:00	0.2876	2.907	146.0	0.757221873	0.981212444	0.018851118	0.194483514	0.059941708
2020-04-02T00:15:00	0.2869	2.889	147.0	0.755071773	0.977772995	0.018749463	0.193434755	0.059618470
2020-04-02T00:20:00	0.2884	2.868	146.0	0.759952857	0.985587023	0.018980663	0.195820005	0.060353627
2020-04-02T00:25:00	0.2886	2.850	146.0	0.760679071	0.986751409	0.019015192	0.196176228	0.060463419
2020-04-02T00:30:00	0.2877	2.829	146.0	0.757572394	0.981773550	0.018867719	0.194654777	0.059994493
2020-04-02T00:35:00	0.2879	2.807	146.0	0.758299067	0.982937139	0.018902159	0.195010085	0.060104002
2020-04-02T00:40:00	0.2883	2.787	146.0	0.759664416	0.985124677	0.018966959	0.195678615	0.060310050
2020-04-02T00:45:00	0.2886	2.767	146.0	0.760709991	0.986800996	0.019016663	0.196191402	0.060468096
2020-04-02T00:50:00	0.2868	2.747	145.0	0.754726235	0.977220629	0.018733154	0.193266495	0.059566611
2020-04-02T00:55:00	0.2871	2.732	146.0	0.755773184	0.978894570	0.018782593	0.193776549	0.059723814
2020-04-02T01:00:00	0.2868	2.715	146.0	0.754901616	0.977500974	0.018741431	0.193351887	0.059592929
2020-04-02T01:05:00	0.2877	2.699	146.0	0.757546660	0.981732352	0.018866500	0.194642201	0.059990617
2020-04-02T01:10:00	0.2874	2.683	145.0	0.756675503	0.980338045	0.018825258	0.194216721	0.059859480
2020-04-02T01:15:00	0.2872	2.666	146.0	0.756123840	0.979455442	0.018799167	0.193947544	0.059776517
2020-04-02T01:20:00	0.2867	2.649	146.0	0.754612787	0.977039299	0.018727801	0.193211268	0.059549589
2020-04-02T01:25:00	0.2868	2.629	145.0	0.754700481	0.977179465	0.018731939	0.193253957	0.059562746
2020-04-02T01:30:00	0.2867	2.610	145.0	0.754468364	0.976808475	0.018720987	0.193140975	0.059527924
2020-04-02T01:35:00	0.2867	2.593	145.0	0.754556062	0.976948635	0.018725124	0.193183658	0.059541079
2020-04-02T01:40:00	0.2860	2.578	145.0	0.752404435	0.973511823	0.018623763	0.192137930	0.059218776
2020-04-02T01:45:00	0.2861	2.560	145.0	0.752492180	0.973651900	0.018627891	0.192180516	0.059231901
2020-04-02T01:50:00	0.2860	2.541	144.0	0.752259927	0.973281146	0.018616966	0.192067805	0.059197163
2020-04-02T01:55:00	0.2865	2.523	145.0	0.753947353	0.975975924	0.018696419	0.192887506	0.059449802
2020-04-02T02:00:00	0.2867	2.506	145.0	0.754354908	0.976627158	0.018715636	0.193085765	0.059510908
2020-04-02T02:05:00	0.2866	2.491	145.0	0.754122770	0.976256206	0.018704689	0.192972825	0.059476099
2020-04-02T02:10:00	0.2860	2.476	145.0	0.752290916	0.973330613	0.018618423	0.192082842	0.059201798
2020-04-02T02:15:00	0.2858	2.460	145.0	0.751738609	0.972449123	0.018592456	0.191814944	0.059119228
2020-04-02T02:20:00	0.2867	2.443	145.0	0.754385881	0.976676655	0.018717097	0.193100836	0.059515553
2020-04-02T02:25:00	0.2858	2.428	145.0	0.751594075	0.972218491	0.018585664	0.191744870	0.059097631
2020-04-02T02:30:00	0.2857	2.411	144.0	0.751361766	0.971847833	0.018574750	0.191632270	0.059062927
2020-04-02T02:35:00	0.2867	2.397	144.0	0.754648973	0.977097136	0.018729508	0.193228883	0.059555018
2020-04-02T02:40:00	0.2857	2.383	144.0	0.751217218	0.971617225	0.018567960	0.191562225	0.059041338
2020-04-02T02:45:00	0.2870	2.366	145.0	0.755463888	0.978399944	0.018767980	0.193625791	0.059677349
2020-04-02T02:50:00	0.2870	2.350	145.0	0.755551563	0.978540144	0.018772122	0.193668519	0.059690518
2020-04-02T02:55:00	0.2871	2.334	144.0	0.755639235	0.978680348	0.018776264	0.193711251	0.059703689
2020-04-02T03:00:00	0.2868	2.320	144.0	0.754767636	0.977286806	0.018735108	0.193286651	0.059572823
2020-04-02T03:05:00	0.2872	2.306	144.0	0.756134268	0.979472123	0.018799660	0.193952630	0.059778084
2020-04-02T03:10:00	0.2867	2.293	150.0	0.754623219	0.977055972	0.018728293	0.193216346	0.059551154
2020-04-02T03:15:00	0.2866	2.280	144.0	0.754071254	0.976173891	0.018702260	0.192947767	0.059468376
2020-04-02T03:20:00	0.2859	2.266	145.0	0.751919349	0.972737558	0.018600952	0.191902590	0.059146242
2020-04-02T03:25:00	0.2871	2.253	144.0	0.755845534	0.979010284	0.018786012	0.193811823	0.059734686
2020-04-02T03:30:00	0.2864	2.240	145.0	0.753694646	0.975572197	0.018684508	0.192764629	0.059411931
2020-04-02T03:35:00	0.2873	2.225	145.0	0.756340540	0.979802106	0.018809414	0.194053256	0.059809098
2020-04-02T03:40:00	0.2859	2.210	144.0	0.751950342	0.972787020	0.018602409	0.191917622	0.059150875
2020-04-02T03:45:00	0.2866	2.196	144.0	0.754277639	0.976503678	0.018711992	0.193048168	0.059499320
2020-04-02T03:50:00	0.2872	2.183	149.0	0.755964159	0.979200019	0.018791619	0.193869666	0.059752514
2020-04-02T03:55:00	0.2867	2.168	145.0	0.754453041	0.976783987	0.018720265	0.193133518	0.059525626
2020-04-02T04:00:00	0.2862	2.156	144.0	0.752941315	0.974369004	0.018649027	0.192398578	0.059299110
2020-04-02T04:05:00	0.2873	2.143	144.0	0.756357194	0.979828752	0.018810202	0.194061382	0.059811603
2020-04-02T04:10:00	0.2884	2.130	144.0	0.760089329	0.985805802	0.018987149	0.195886921	0.060374251
2020-04-02T04:15:00	0.2880	2.116	144.0	0.758709842	0.983595101	0.018921642	0.195211088	0.060165953
2020-04-02T04:20:00	0.2885	2.102	144.0	0.760204963	0.985991188	0.018992646	0.195943628	0.060391729
2020-04-02T04:25:00	0.2875	2.088	144.0	0.756908317	0.980710602	0.018836275	0.194330380	0.059894511
2020-04-02T04:30:00	0.2882	2.074	144.0	0.759362495	0.984640802	0.018952619	0.195530676	0.060264453
2020-04-02T04:35:00	0.2891	2.060	143.0	0.762134259	0.989086016	0.019084481	0.196891075	0.060683741
2020-04-02T04:40:00	0.2880	2.048	144.0	0.758519839	0.983290744	0.018912628	0.195118100	0.060137293
2020-04-02T04:45:00	0.2883	2.037	143.0	0.759695670	0.985174771	0.018968443	0.195693933	0.060314771
2020-04-02T04:50:00	0.2885	2.026	144.0	0.760232523	0.986035375	0.018993956	0.195957146	0.060395895
2020-04-02T04:55:00	0.2878	2.015	149.0	0.757894617	0.982289454	0.018882986	0.194812286	0.060043038
2020-04-02T05:00:00	0.2895	2.005	144.0	0.763540028	0.991343124	0.019151546	0.197582974	0.060896991
2020-04-02T05:05:00	0.2897	1.994	144.0	0.764076333	0.992204680	0.019177165	0.197847279	0.060978453
2020-04-02T05:10:00	0.2904	1.984	144.0	0.766207033	0.995630099	0.019279129	0.198899223	0.061302672
2020-04-02T05:15:00	0.2913	1.975	148.0	0.769292349	1.000597363	0.019427292	0.200427792	0.061773792
2020-04-02T05:20:00	0.2920	1.966	144.0	0.771420107	1.004027923	0.019529827	0.201485628	0.062099827
2020-04-02T05:25:00	0.2927	1.958	143.0	0.773546668	1.007460581	0.019632595	0.202545868	0.062426604
2020-04-02T05:30:00	0.2923	1.951	144.0	0.772490405	1.005755075	0.019581514	0.202018871	0.062264178
2020-04-02T05:35:00	0.2934	1.944	144.0	0.775888622	1.011245587	0.019746109	0.203716970	0.062787548
2020-04-02T05:40:00	0.2937	1.938	143.0	0.776741130	1.012624603	0.019787518	0.204144173	0.062919217
2020-04-02T05:45:00	0.2943	1.933	144.0	0.778864705	1.016062514	0.019890869	0.205210427	0.063247847
2020-04-02T05:50:00	0.2948	1.927	143.0	0.780351871	1.018472524	0.019963420	0.205958924	0.063478540
2020-04-02T05:55:00	0.2934	1.922	143.0	0.775800915	1.011103749	0.019741852	0.203673046	0.062774011
2020-04-02T06:00:00	0.2945	1.917	143.0	0.779513885	1.017114292	0.019922521	0.205536981	0.063348494
2020-04-02T06:05:00	0.2946	1.915	144.0	0.779730254	1.017464928	0.019933077	0.205645882	0.063382058
2020-04-02T06:10:00	0.2958	1.913	143.0	0.783439380	1.023482261	0.020114499	0.207517581	0.063958934
2020-04-02T06:15:00	0.2951	1.911	144.0	0.781115792	1.019711255	0.020000743	0.206343980	0.063597219
2020-04-02T06:20:00	0.2959	1.910	144.0	0.783871658	1.024184347	0.020135701	0.207736314	0.064026349
2020-04-02T06:25:00	0.2950	1.910	148.0	0.780913207	1.019382704	0.019990842	0.206241829	0.063565735
2020-04-02T06:30:00	0.2955	1.911	143.0	0.782399571	1.021794133	0.020063550	0.206991948	0.063796929
2020-04-02T06:35:00	0.2953	1.914	143.0	0.781980827	1.021114576	0.020043052	0.206780473	0.063731750
2020-04-02T06:40:00	0.2957	1.916	143.0	0.783149383	1.023011353	0.020100283	0.207370913	0.063913729
2020-04-02T06:45:00	0.2958	1.919	143.0	0.783365544	1.023362356	0.020110879	0.207480233	0.063947423
2020-04-02T06:50:00	0.2942	1.924	144.0	0.778500427	1.015472488	0.019873119	0.205027308	0.063191408
2020-04-02T06:55:00	0.2952	1.928	143.0	0.781575739	1.020457331	0.020023233	0.206576006	0.063668731
2020-04-02T07:00:00	0.2945	1.935	143.0	0.779251009	1.016688345	0.019909701	0.205404714	0.063307728
2020-04-02T07:05:00	0.2961	1.942	143.0	0.784547366	1.025282136	0.020168866	0.208078471	0.064131806
2020-04-02T07:10:00	0.2948	1.951	144.0	0.780319096	1.018419390	0.019961820	0.205942412	0.063473451
2020-04-02T07:15:00	0.2951	1.961	144.0	0.781170609	1.019800163	0.020003423	0.206371626	0.063605739
2020-04-02T07:20:00	0.2956	1.976	143.0	0.782974302	1.022727088	0.020091703	0.207282391	0.063886446
2020-04-02T07:25:00	0.2954	1.992	143.0	0.782238156	1.021532163	0.020055647	0.206910416	0.063771800
2020-04-02T07:30:00	0.2949	2.009	143.0	0.780549125	1.018792330	0.019973054	0.206058313	0.063509173
2020-04-02T07:35:00	0.2950	2.029	144.0	0.781083024	1.019658109	0.019999141	0.206327455	0.063592126
2020-04-02T07:40:00	0.2943	2.054	144.0	0.778757992	1.015889657	0.019885668	0.205156774	0.063231310
2020-04-02T07:45:00	0.2937	2.083	143.0	0.776749485	1.012638120	0.019787924	0.204148362	0.062920508
2020-04-02T07:50:00	0.2951	2.113	145.0	0.781414289	1.020195423	0.020015337	0.206494544	0.063643624
2020-04-02T07:55:00	0.2945	2.149	149.0	0.779407190	1.016941402	0.019917317	0.205483291	0.063331946
2020-04-02T08:00:00	0.2949	2.191	144.0	0.780576538	1.018836777	0.019974393	0.206072127	0.063513431
2020-04-02T08:05:00	0.2954	2.235	144.0	0.782380513	1.021763202	0.020062617	0.206982321	0.063793962
2020-04-02T08:10:00	0.2951	2.280	144.0	0.781326710	1.020053359	0.020011055	0.206450363	0.063630007
2020-04-02T08:15:00	0.2944	2.330	145.0	0.779001827	1.016284643	0.019897552	0.205279379	0.063269098
2020-04-02T08:20:00	0.2953	2.380	145.0	0.781759228	1.020755019	0.020032209	0.206668608	0.063697272
2020-04-02T08:25:00	0.2945	2.429	145.0	0.779434610	1.016985834	0.019918655	0.205497089	0.063336198
2020-04-02T08:30:00	0.2942	2.482	146.0	0.778379988	1.015277439	0.019867253	0.204966785	0.063172754
2020-04-02T08:35:00	0.2937	2.540	145.0	0.776689238	1.012540644	0.019784996	0.204118156	0.062911198
2020-04-02T08:40:00	0.2932	2.600	145.0	0.775315806	1.010319364	0.019718312	0.203430195	0.062699162
2020-04-02T08:45:00	0.2932	2.664	146.0	0.775214360	1.010155360	0.019713392	0.203379429	0.062683515
2020-04-02T08:50:00	0.2937	2.732	146.0	0.776702959	1.012562842	0.019785663	0.204125035	0.062913318
2020-04-02T08:55:00	0.2940	2.797	146.0	0.777873141	1.014456744	0.019842575	0.204712186	0.063094284
2020-04-02T09:00:00	0.2943	2.868	147.0	0.778725203	1.015836547	0.019884071	0.205140290	0.063226230
2020-04-02T09:05:00	0.2948	2.938	146.0	0.780212424	1.018246459	0.019956611	0.205888676	0.063456890
2020-04-02T09:10:00	0.2939	3.010	147.0	0.777569001	1.013964385	0.019827774	0.204559493	0.063047222
2020-04-02T09:15:00	0.2945	3.085	152.0	0.779374407	1.016888282	0.019915718	0.205466796	0.063326862
2020-04-02T09:20:00	0.2950	3.167	147.0	0.780861373	1.019298645	0.019988309	0.206215696	0.063557680
2020-04-02T09:25:00	0.2944	3.259	148.0	0.779171729	1.016559896	0.019905835	0.205364833	0.063295436
2020-04-02T09:30:00	0.2920	3.353	152.0	0.771436840	1.004054916	0.019530635	0.201493958	0.062102395
2020-04-02T09:35:00	0.2920	3.447	147.0	0.771335290	1.003891095	0.019525734	0.201443402	0.062086813
2020-04-02T09:40:00	0.2918	3.536	153.0	0.770915321	1.003213697	0.019505476	0.201234397	0.062022395
2020-04-02T09:45:00	0.2921	3.616	148.0	0.771768950	1.004590742	0.019546666	0.201659345	0.062153369
2020-04-02T09:50:00	0.2925	3.676	148.0	0.772940659	1.006481960	0.019603280	0.202243424	0.062333387
2020-04-02T09:55:00	0.2904	3.733	149.0	0.766468434	0.996050618	0.019291659	0.199028485	0.061342512
2020-04-02T10:00:00	0.2908	3.798	149.0	0.767641787	0.997938956	0.019347953	0.199609264	0.061521514
2020-04-02T10:05:00	0.2899	3.874	154.0	0.764803233	0.993372827	0.019211918	0.198205818	0.061088958
2020-04-02T10:10:00	0.2903	3.961	154.0	0.766109675	0.995473495	0.019274464	0.198851091	0.061287837
2020-04-02T10:15:00	0.2899	4.057	150.0	0.764865006	0.993472120	0.019214873	0.198236303	0.061098354
2020-04-02T10:20:00	0.2894	4.157	155.0	0.762981781	0.990446590	0.019124899	0.197308056	0.060812259
2020-04-02T10:25:00	0.2897	4.271	151.0	0.763969852	0.992033600	0.019172077	0.197794787	0.060962274
2020-04-02T10:30:00	0.2882	4.384	151.0	0.759212502	0.984400446	0.018945497	0.195457204	0.060241808
2020-04-02T10:35:00	0.2890	4.490	152.0	0.761797901	0.988546219	0.019068453	0.196725718	0.060632777
2020-04-02T10:40:00	0.2899	4.599	152.0	0.764700493	0.993207693	0.019207004	0.198155121	0.061073333
2020-04-02T10:45:00	0.2887	4.704	157.0	0.760902017	0.987108968	0.019025799	0.196285657	0.060497146
2020-04-02T10:50:00	0.2878	4.825	152.0	0.758058378	0.982551683	0.018890748	0.194892361	0.060067719
2020-04-02T10:55:00	0.2878	4.958	158.0	0.758089320	0.982601233	0.018892214	0.194907493	0.060072382
2020-04-02T11:00:00	0.2863	5.081	159.0	0.753324522	0.974980985	0.018667071	0.192584735	0.059356486
2020-04-02T11:05:00	0.2867	5.203	159.0	0.754634955	0.977074731	0.018728847	0.193222059	0.059552915
2020-04-02T11:10:00	0.2862	5.326	159.0	0.752746599	0.974058091	0.018639862	0.192304024	0.059269968
2020-04-02T11:15:00	0.2855	5.452	160.0	0.750537148	0.970532509	0.018536036	0.191232863	0.058939826
2020-04-02T11:20:00	0.2852	5.583	160.0	0.749607562	0.969050476	0.018492445	0.190783151	0.058801220
2020-04-02T11:25:00	0.2851	5.719	161.0	0.749318325	0.968589504	0.018478894	0.190643341	0.058758129
2020-04-02T11:30:00	0.2838	5.852	161.0	0.745183649	0.962007919	0.018285752	0.188650736	0.058143989
2020-04-02T11:35:00	0.2819	5.978	162.0	0.739118072	0.952380015	0.018004378	0.185747852	0.057249292
2020-04-02T11:40:00	0.2845	6.082	157.0	0.747489348	0.965676272	0.018393323	0.189760527	0.058486037
2020-04-02T11:45:00	0.2835	6.163	158.0	0.744314845	0.960626874	0.018245306	0.188233463	0.058015381
2020-04-02T11:50:00	0.2838	6.284	163.0	0.745307840	0.962205387	0.018291538	0.188710424	0.058162385
2020-04-02T11:55:00	0.2844	6.376	158.0	0.747262010	0.965314371	0.018382702	0.189650949	0.058452264
2020-04-02T12:00:00	0.2836	6.474	159.0	0.744728679	0.961284619	0.018264566	0.188432159	0.058076622
2020-04-02T12:05:00	0.2829	6.583	164.0	0.742193631	0.957257805	0.018146758	0.187216754	0.057702022
2020-04-02T12:10:00	0.2831	6.674	164.0	0.742866389	0.958325899	0.018177982	0.187538891	0.057801308
2020-04-02T12:15:00	0.2816	6.760	164.0	0.738082171	0.950738968	0.017956557	0.185254493	0.057097234
2020-04-02T12:20:00	0.2813	6.820	165.0	0.737149483	0.949262237	0.017913559	0.184810891	0.056960511
2020-04-02T12:25:00	0.2810	6.865	164.0	0.736216562	0.947785902	0.017870606	0.184367746	0.056823930
2020-04-02T12:30:00	0.2800	6.898	165.0	0.733032455	0.942752860	0.017724417	0.182859547	0.056359088
2020-04-02T12:35:00	0.2796	6.954	160.0	0.731776745	0.940770440	0.017666942	0.182266580	0.056176330
2020-04-02T12:40:00	0.2789	6.968	165.0	0.729554849	0.937266069	0.017565486	0.181219880	0.055853727
2020-04-02T12:45:00	0.2786	6.985	165.0	0.728620022	0.935792957	0.017522893	0.180780459	0.055718293
2020-04-02T12:50:00	0.2790	7.032	165.0	0.729939150	0.937871878	0.017583011	0.181400688	0.055909454
2020-04-02T12:55:00	0.2785	7.050	165.0	0.728038263	0.934876600	0.017496415	0.180507287	0.055634099
2020-04-02T13:00:00	0.2781	7.067	165.0	0.726780865	0.932897028	0.017439258	0.179917612	0.055452355
2020-04-02T13:05:00	0.2773	7.075	165.0	0.724233569	0.928890961	0.017323773	0.178726170	0.055085141
2020-04-02T13:10:00	0.2786	7.068	165.0	0.728453909	0.935531273	0.017515331	0.180702436	0.055694246
2020-04-02T13:15:00	0.2777	7.060	165.0	0.725585467	0.931016348	0.017385012	0.179357966	0.055279867
2020-04-02T13:20:00	0.2773	7.051	165.0	0.724327238	0.929038172	0.017328012	0.178769908	0.055098622
2020-04-02T13:25:00	0.2781	7.034	165.0	0.726936873	0.933142561	0.017446344	0.179990718	0.055474887
2020-04-02T13:30:00	0.2778	7.017	165.0	0.726001387	0.931670559	0.017403876	0.179552580	0.055339849
2020-04-02T13:35:00	0.2772	7.005	160.0	0.724098483	0.928678675	0.017317660	0.178663105	0.055065704
2020-04-02T13:40:00	0.2775	6.998	165.0	0.725096882	0.930248034	0.017362867	0.179129494	0.055209450
2020-04-02T13:45:00	0.2761	6.984	160.0	0.720289744	0.922699822	0.017145779	0.176889846	0.054519168
2020-04-02T13:50:00	0.2763	6.972	165.0	0.720966474	0.923761207	0.017176252	0.177204228	0.054616064
2020-04-02T13:55:00	0.2767	6.955	164.0	0.722288324	0.925835554	0.017235857	0.177819163	0.054805593
2020-04-02T14:00:00	0.2764	6.940	164.0	0.721351665	0.924365520	0.017193610	0.177383305	0.054671257
2020-04-02T14:05:00	0.2766	6.924	164.0	0.722028201	0.925427229	0.017224119	0.177698063	0.054768269
2020-04-02T14:10:00	0.2751	6.912	164.0	0.717217078	0.917885684	0.017007781	0.175466140	0.054080369
2020-04-02T14:15:00	0.2757	6.900	165.0	0.719186050	0.920969646	0.017096142	0.176377750	0.054361336
2020-04-02T14:20:00	0.2756	6.881	160.0	0.718894441	0.920512691	0.017083041	0.176242580	0.054319675
2020-04-02T14:25:00	0.2761	6.865	165.0	0.720539790	0.923091948	0.017157036	0.177005973	0.054554960
2020-04-02T14:30:00	0.2749	6.853	164.0	0.716696101	0.917070256	0.016984442	0.175225355	0.054006156
2020-04-02T14:35:00	0.2751	6.841	160.0	0.717373488	0.918130543	0.017014791	0.175538465	0.054102660
2020-04-02T14:40:00	0.2755	6.827	160.0	0.718373700	0.919696868	0.017059657	0.176001338	0.054245322
2020-04-02T14:45:00	0.2746	6.819	160.0	0.715497444	0.915195027	0.016930808	0.174672025	0.053835614
2020-04-02T14:50:00	0.2751	6.807	165.0	0.717144303	0.917771764	0.017004520	0.175432495	0.054069999
2020-04-02T14:55:00	0.2754	6.794	165.0	0.718144577	0.919337986	0.017049374	0.175895248	0.054212624
2020-04-02T15:00:00	0.2750	6.777	164.0	0.716883819	0.917364043	0.016992849	0.175312094	0.054032890
2020-04-02T15:05:00	0.2758	6.762	165.0	0.719498698	0.921459652	0.017110196	0.176522733	0.054406021
2020-04-02T15:10:00	0.2762	6.750	164.0	0.720821071	0.923533123	0.017169702	0.177136654	0.054595237
2020-04-02T15:15:00	0.2760	6.735	160.0	0.720206830	0.922569808	0.017142048	0.176851348	0.054507303
2020-04-02T15:20:00	0.2748	6.717	164.0	0.716362795	0.916548693	0.016969519	0.175071399	0.053958705
2020-04-02T15:25:00	0.2754	6.695	164.0	0.718332222	0.919631897	0.017057795	0.175982130	0.054239402
2020-04-02T15:30:00	0.2755	6.675	164.0	0.718363495	0.919680883	0.017059199	0.175996612	0.054243865
2020-04-02T15:35:00	0.2747	6.658	164.0	0.715810403	0.915684513	0.016944803	0.174816405	0.053880114
2020-04-02T15:40:00	0.2756	6.642	164.0	0.718748957	0.920284743	0.017076506	0.176175165	0.054298897
2020-04-02T15:45:00	0.2751	6.620	164.0	0.717165378	0.917804755	0.017005464	0.175442238	0.054073002
2020-04-02T15:50:00	0.2749	6.601	164.0	0.716550530	0.916842452	0.016977923	0.175158106	0.053985429
2020-04-02T15:55:00	0.2756	6.583	164.0	0.718842765	0.920431722	0.017080719	0.176218633	0.054312294
2020-04-02T16:00:00	0.2768	6.569	159.0	0.722746701	0.926555231	0.017256552	0.178032669	0.054871398
2020-04-02T16:05:00	0.2744	6.554	164.0	0.715000204	0.914417494	0.016908585	0.174442760	0.053764953
2020-04-02T16:10:00	0.2752	6.538	159.0	0.717588025	0.918466433	0.017024409	0.175637692	0.054133243
2020-04-02T16:15:00	0.2751	6.521	164.0	0.717267898	0.917965241	0.017010059	0.175489638	0.054087611
2020-04-02T16:20:00	0.2747	6.499	164.0	0.715978439	0.915947366	0.016952319	0.174893953	0.053904015
2020-04-02T16:25:00	0.2744	6.478	159.0	0.715011773	0.914435581	0.016909102	0.174448092	0.053766596
2020-04-02T16:30:00	0.2738	6.459	164.0	0.713074788	0.911408755	0.016822682	0.173556505	0.053491800
2020-04-02T16:35:00	0.2734	6.438	164.0	0.711783865	0.909393314	0.016765216	0.172963645	0.053309075
2020-04-02T16:40:00	0.2749	6.415	159.0	0.716636234	0.916976568	0.016981761	0.175197697	0.053997632
2020-04-02T16:45:00	0.2737	6.389	164.0	0.712760057	0.910917251	0.016808662	0.173411865	0.053447221
2020-04-02T16:50:00	0.2734	6.360	159.0	0.711792549	0.909406867	0.016765602	0.172967629	0.053310303
2020-04-02T16:55:00	0.2732	6.332	159.0	0.711148367	0.908401683	0.016736965	0.172672186	0.053219245
2020-04-02T17:00:00	0.2737	6.301	164.0	0.712768739	0.910930808	0.016809048	0.173415854	0.053448450
2020-04-02T17:05:00	0.2735	6.269	164.0	0.712124728	0.909925342	0.016780380	0.173120083	0.053357291
2020-04-02T17:10:00	0.2723	6.234	158.0	0.708243810	0.903873894	0.016608166	0.171343387	0.052809696
2020-04-02T17:15:00	0.2731	6.200	164.0	0.710836368	0.907914969	0.016723105	0.172529189	0.053175172
2020-04-02T17:20:00	0.2723	6.165	163.0	0.708249605	0.903882920	0.016608422	0.171346032	0.052810511
2020-04-02T17:25:00	0.2716	6.132	158.0	0.705985060	0.900357904	0.016508369	0.170313798	0.052492367
2020-04-02T17:30:00	0.2734	6.098	163.0	0.711815706	0.909443009	0.016766632	0.172978255	0.053313578
2020-04-02T17:35:00	0.2736	6.064	158.0	0.712465560	0.910457423	0.016795549	0.173276581	0.053405525
2020-04-02T17:40:00	0.2746	6.031	163.0	0.715701548	0.915514247	0.016939934	0.174766179	0.053864634
2020-04-02T17:45:00	0.2745	5.998	163.0	0.715381257	0.915013328	0.016925614	0.174618440	0.053819099
2020-04-02T17:50:00	0.2753	5.966	162.0	0.717968812	0.919062711	0.017041488	0.175813888	0.054187548
2020-04-02T17:55:00	0.2739	5.933	162.0	0.713447359	0.911990699	0.016839286	0.173727810	0.053544598
2020-04-02T18:00:00	0.2751	5.903	162.0	0.717328596	0.918060263	0.017012779	0.175517705	0.054096261
2020-04-02T18:05:00	0.2752	5.874	162.0	0.717654498	0.918570515	0.017027390	0.175668444	0.054142720
2020-04-02T18:10:00	0.2734	5.840	162.0	0.711838864	0.909479151	0.016767662	0.172988881	0.053316853
2020-04-02T18:15:00	0.2739	5.808	157.0	0.713458933	0.912008779	0.016839802	0.173733133	0.053546239
2020-04-02T18:20:00	0.2749	5.777	162.0	0.716694052	0.917067049	0.016984350	0.175224408	0.054005864
2020-04-02T18:25:00	0.2751	5.748	162.0	0.717343048	0.918082888	0.017013427	0.175524388	0.054098321
2020-04-02T18:30:00	0.2766	5.721	162.0	0.722188135	0.925678277	0.017231336	0.177772515	0.054791216
2020-04-02T18:35:00	0.2773	5.691	161.0	0.724448549	0.929228835	0.017333503	0.178826560	0.055116082
2020-04-02T18:40:00	0.2769	5.660	162.0	0.723161587	0.927206784	0.017275295	0.178226035	0.054930995
2020-04-02T18:45:00	0.2776	5.632	162.0	0.725421408	0.930758337	0.017377574	0.179281231	0.055256217
2020-04-02T18:50:00	0.2779	5.601	161.0	0.726391128	0.932283730	0.017421562	0.179735048	0.055396087
2020-04-02T18:55:00	0.2795	5.571	161.0	0.731546225	0.940406663	0.017656401	0.182157836	0.056142814
2020-04-02T19:00:00	0.2776	5.543	161.0	0.725430060	0.930771943	0.017377967	0.179285277	0.055257464
2020-04-02T19:05:00	0.2774	5.514	161.0	0.724788248	0.929762806	0.017348885	0.178985250	0.055164992
2020-04-02T19:10:00	0.2789	5.484	161.0	0.729623624	0.937374477	0.017568622	0.181252231	0.055863698
2020-04-02T19:15:00	0.2800	5.454	161.0	0.733166341	0.942964312	0.017730551	0.182922831	0.056378593
2020-04-02T19:20:00	0.2800	5.424	161.0	0.733169219	0.942968857	0.017730683	0.182924192	0.056379012
2020-04-02T19:25:00	0.2798	5.393	160.0	0.732207023	0.941449574	0.017686625	0.182469649	0.056238918
2020-04-02T19:30:00	0.2805	5.363	161.0	0.734461351	0.945010380	0.017789941	0.183535547	0.056567438
2020-04-02T19:35:00	0.2804	5.333	160.0	0.734142676	0.944506749	0.017775317	0.183384669	0.056520936
2020-04-02T19:40:00	0.2798	5.304	161.0	0.732215659	0.941463207	0.017687020	0.182473726	0.056240174
2020-04-02T19:45:00	0.2798	5.274	160.0	0.732218538	0.941467752	0.017687152	0.182475085	0.056240593
2020-04-02T19:50:00	0.2791	5.241	160.0	0.729968611	0.937918326	0.017584355	0.181414554	0.055913727
2020-04-02T19:55:00	0.2777	5.211	160.0	0.725461784	0.930821834	0.017379405	0.179300115	0.055262037
2020-04-02T20:00:00	0.2785	5.180	160.0	0.728042312	0.934882978	0.017496599	0.180509187	0.055634685
2020-04-02T20:05:00	0.2788	5.148	154.0	0.729011349	0.936409522	0.017540716	0.180964336	0.055774966
2020-04-02T20:10:00	0.2800	5.118	160.0	0.732876338	0.942506320	0.017717266	0.182785770	0.056336350
2020-04-02T20:15:00	0.2790	5.089	160.0	0.729661075	0.937433509	0.017570329	0.181269848	0.055869128
2020-04-02T20:20:00	0.2794	5.058	160.0	0.730951545	0.939468430	0.017629225	0.181877466	0.056056401
2020-04-02T20:25:00	0.2790	5.028	160.0	0.729666836	0.937442591	0.017570592	0.181272559	0.055869963
2020-04-02T20:30:00	0.2791	5.001	160.0	0.729991656	0.937954658	0.017585407	0.181425399	0.055917070
2020-04-02T20:35:00	0.2785	4.973	159.0	0.728062487	0.934914750	0.017497517	0.180518657	0.055637603
2020-04-02T20:40:00	0.2796	4.943	159.0	0.731606690	0.940502076	0.017659166	0.182186356	0.056151604
2020-04-02T20:45:00	0.2786	4.914	159.0	0.728390328	0.935431119	0.017512436	0.180672577	0.055685043
2020-04-02T20:50:00	0.2798	4.885	159.0	0.732255962	0.941526828	0.017688864	0.182492753	0.056246039
2020-04-02T20:55:00	0.2791	4.856	159.0	0.730006058	0.937977365	0.017586064	0.181432178	0.055919159
2020-04-02T21:00:00	0.2795	4.829	159.0	0.731296409	0.940012488	0.017644982	0.182040029	0.056106505
2020-04-02T21:05:00	0.2792	4.802	159.0	0.730333728	0.938494023	0.017601015	0.181586432	0.055966702
2020-04-02T21:10:00	0.2791	4.775	159.0	0.730014700	0.937990989	0.017586458	0.181436245	0.055920413
2020-04-02T21:15:00	0.2794	4.748	158.0	0.730983223	0.939518400	0.017630672	0.181892395	0.056061003
2020-04-02T21:20:00	0.2784	4.721	158.0	0.727766321	0.934448353	0.017484045	0.180379668	0.055594766
2020-04-02T21:25:00	0.2797	4.694	158.0	0.731954372	0.941050780	0.017675066	0.182350396	0.056202163
2020-04-02T21:30:00	0.2799	4.667	154.0	0.732600705	0.942071090	0.017704644	0.182655552	0.056296215
2020-04-02T21:35:00	0.2803	4.640	158.0	0.733890157	0.944107733	0.017763733	0.183265159	0.056484102
2020-04-02T21:40:00	0.2808	4.612	153.0	0.735500625	0.946653461	0.017837680	0.184028055	0.056719234
2020-04-02T21:45:00	0.2805	4.587	158.0	0.734539031	0.945133158	0.017793507	0.183572334	0.056578776
2020-04-02T21:50:00	0.2803	4.562	158.0	0.733898790	0.944121372	0.017764129	0.183269244	0.056485361
2020-04-02T21:55:00	0.2821	4.535	158.0	0.739685738	0.953279698	0.018030613	0.186018506	0.057332710
2020-04-02T22:00:00	0.2805	4.506	152.0	0.734547662	0.945146801	0.017793903	0.183576422	0.056580036
2020-04-02T22:05:00	0.2819	4.478	158.0	0.738964065	0.952135983	0.017997265	0.185674460	0.057226672
2020-04-02T22:10:00	0.2818	4.450	158.0	0.738881749	0.952005556	0.017993463	0.185635239	0.057214583
2020-04-02T22:15:00	0.2815	4.420	152.0	0.737835813	0.950348834	0.017945195	0.185137266	0.057061103
2020-04-02T22:20:00	0.2820	4.391	152.0	0.739359399	0.952762455	0.018015529	0.185862887	0.057284747
2020-04-02T22:25:00	0.2812	4.363	152.0	0.737028550	0.949070819	0.017907988	0.184753414	0.056942797
2020-04-02T22:30:00	0.2810	4.334	152.0	0.736303487	0.947923428	0.017874606	0.184409012	0.056836648
2020-04-02T22:35:00	0.2821	4.306	157.0	0.739754690	0.953388998	0.018033801	0.186051396	0.057342847
2020-04-02T22:40:00	0.2827	4.279	157.0	0.741598430	0.956313175	0.018119157	0.186932000	0.057614258
2020-04-02T22:45:00	0.2824	4.252	152.0	0.740874255	0.955164274	0.018085605	0.186585855	0.057507573
2020-04-02T22:50:00	0.2841	4.226	152.0	0.746244883	0.963695753	0.018335222	0.189161102	0.058301289
2020-04-02T22:55:00	0.2830	4.201	157.0	0.742635210	0.957958825	0.018167249	0.187428162	0.057767180
2020-04-02T23:00:00	0.2833	4.174	157.0	0.743515376	0.959356631	0.018208131	0.187849927	0.057897172
2020-04-02T23:05:00	0.2831	4.146	157.0	0.743112379	0.958716542	0.018189406	0.187656753	0.057837634
2020-04-02T23:10:00	0.2815	4.119	157.0	0.737893811	0.950440675	0.017947869	0.185164860	0.057069608
2020-04-02T23:15:00	0.2810	4.093	152.0	0.736204877	0.947767416	0.017870068	0.184362199	0.056822220
2020-04-02T23:20:00	0.2818	4.070	152.0	0.738692774	0.951706156	0.017984737	0.185545215	0.057186837
2020-04-02T23:25:00	0.2809	4.045	151.0	0.736040121	0.947506772	0.017862488	0.184283998	0.056798118
2020-04-02T23:30:00	0.2809	4.020	157.0	0.735957740	0.947376455	0.017858699	0.184244904	0.056786069
2020-04-02T23:35:00	0.2808	3.996	151.0	0.735553927	0.946737756	0.017840130	0.184053334	0.056727025
2020-04-02T23:40:00	0.2810	3.971	151.0	0.736114382	0.947624250	0.017865905	0.184319244	0.056808981
2020-04-02T23:45:00	0.2782	3.946	156.0	0.727343994	0.933783413	0.017464844	0.180181572	0.055533710
2020-04-02T23:50:00	0.2788	3.923	155.0	0.729193886	0.936697169	0.017549033	0.181050140	0.055801412
2020-04-02T23:55:00	0.2776	3.899	156.0	0.725245330	0.930481451	0.017369594	0.179198894	0.055230840
2020-04-03T00:00:00	0.2777	3.876	156.0	0.725485039	0.930858405	0.017380459	0.179310991	0.055265389
2020-04-03T00:05:00	0.2776	3.853	156.0	0.725402424	0.930728483	0.017376714	0.179272353	0.055253480
2020-04-03T00:10:00	0.2780	3.829	155.0	0.726608903	0.932626408	0.017431449	0.179837048	0.055427525
2020-04-03T00:15:00	0.2773	3.807	151.0	0.724270051	0.928948296	0.017325424	0.178743204	0.055090391
2020-04-03T00:20:00	0.2766	3.785	155.0	0.721929723	0.925272659	0.017219676	0.177652227	0.054754142
2020-04-03T00:25:00	0.2767	3.763	150.0	0.722492236	0.926155685	0.017245062	0.177914126	0.054834862
2020-04-03T00:30:00	0.2756	3.741	151.0	0.718859442	0.920457852	0.017081468	0.176226361	0.054314676
2020-04-03T00:35:00	0.2717	3.720	155.0	0.706162095	0.900633317	0.016516179	0.170394375	0.052517201
2020-04-03T00:40:00	0.2712	3.696	155.0	0.704458632	0.897984365	0.016441108	0.169619880	0.052278494
2020-04-03T00:45:00	0.2711	3.675	155.0	0.704375545	0.897855227	0.016437451	0.169582151	0.052266866
2020-04-03T00:50:00	0.2706	3.653	149.0	0.702671255	0.895207638	0.016362533	0.168809241	0.052028647
2020-04-03T00:55:00	0.2701	3.633	155.0	0.700966175	0.892561348	0.016287762	0.168037842	0.051790895
2020-04-03T01:00:00	0.2708	3.612	155.0	0.703153595	0.895956691	0.016383718	0.169027797	0.052096008
2020-04-03T01:05:00	0.2698	3.592	154.0	0.700150831	0.891296825	0.016252072	0.167669632	0.051677409
2020-04-03T01:10:00	0.2685	3.573	155.0	0.695846181	0.884630273	0.016064330	0.165732726	0.051080436
2020-04-03T01:15:00	0.2685	3.553	149.0	0.695762900	0.884501455	0.016060709	0.165695371	0.051068922
2020-04-03T01:20:00	0.2673	3.533	149.0	0.691778386	0.878345297	0.015887976	0.163913322	0.050519678
2020-04-03T01:25:00	0.2685	3.513	154.0	0.695921254	0.884746400	0.016067594	0.165766404	0.051090816
2020-04-03T01:30:00	0.2687	3.494	153.0	0.696487748	0.885622840	0.016092238	0.166020649	0.051169176
2020-04-03T01:35:00	0.2679	3.475	149.0	0.693804637	0.881474178	0.015975693	0.164818278	0.050798594
2020-04-03T01:40:00	0.2687	3.458	153.0	0.696646072	0.885867836	0.016099129	0.166091742	0.051191088
2020-04-03T01:45:00	0.2697	3.441	149.0	0.699809887	0.890768223	0.016237160	0.167515788	0.051629993
2020-04-03T01:50:00	0.2679	3.422	153.0	0.693879751	0.881590237	0.015978949	0.164851876	0.050808949
2020-04-03T01:55:00	0.2683	3.405	153.0	0.695096581	0.883471021	0.016031754	0.165396655	0.050976855
2020-04-03T02:00:00	0.2683	3.387	148.0	0.695338257	0.883844718	0.016042253	0.165504967	0.051010238
2020-04-03T02:05:00	0.2662	3.369	148.0	0.688424289	0.873173803	0.015743337	0.162421107	0.050059763
2020-04-03T02:10:00	0.2656	3.350	148.0	0.686386829	0.870037108	0.015655816	0.161518169	0.049781468
2020-04-03T02:15:00	0.2634	3.331	148.0	0.679129509	0.858893495	0.015346159	0.158323492	0.048796838
2020-04-03T02:20:00	0.2663	3.315	147.0	0.688825067	0.873791229	0.015760583	0.162599032	0.050114601
2020-04-03T02:25:00	0.2651	3.302	148.0	0.684832990	0.867647364	0.015589242	0.160831340	0.049569781
2020-04-03T02:30:00	0.2647	3.286	148.0	0.683445620	0.865515405	0.015529927	0.160219396	0.049381174
2020-04-03T02:35:00	0.2652	3.278	147.0	0.684991818	0.867891540	0.015596040	0.160901474	0.049591397
2020-04-03T02:40:00	0.2625	3.263	147.0	0.676425371	0.854752904	0.015231610	0.157141715	0.048432603
2020-04-03T02:45:00	0.2632	3.251	147.0	0.678627503	0.858124345	0.015324860	0.158103751	0.048729111
2020-04-03T02:50:00	0.2641	3.242	147.0	0.681480750	0.862498849	0.015446126	0.159354830	0.049114706
2020-04-03T02:55:00	0.2632	3.231	147.0	0.678460152	0.857867986	0.015317763	0.158030532	0.048706545
2020-04-03T03:00:00	0.2631	3.219	152.0	0.678376474	0.857739811	0.015314215	0.157993929	0.048695263
2020-04-03T03:05:00	0.2628	3.208	151.0	0.677313226	0.856111698	0.015269170	0.157529217	0.048552035
2020-04-03T03:10:00	0.2638	3.197	154.0	0.680493798	0.860984893	0.015404122	0.158921489	0.048981146
2020-04-03T03:15:00	0.2633	3.188	156.0	0.678778356	0.858355452	0.015331258	0.158169766	0.048749458
2020-04-03T03:20:00	0.2643	3.179	155.0	0.682283787	0.863731304	0.015480346	0.159707878	0.049223519
2020-04-03T03:25:00	0.2645	3.172	150.0	0.682852396	0.864604310	0.015504601	0.159958111	0.049300643
2020-04-03T03:30:00	0.2654	3.165	150.0	0.685702343	0.868984138	0.015626471	0.161215422	0.049688159
2020-04-03T03:35:00	0.2646	3.161	152.0	0.683011310	0.864848346	0.015511383	0.160028082	0.049322209
2020-04-03T03:40:00	0.2658	3.158	152.0	0.687164109	0.871233318	0.015689175	0.161862322	0.049887540
2020-04-03T03:45:00	0.2654	3.155	156.0	0.685777624	0.869099926	0.015629697	0.161248704	0.049698417
2020-04-03T03:50:00	0.2649	3.160	154.0	0.684064665	0.866466480	0.015556379	0.160492294	0.049465284
2020-04-03T03:55:00	0.2642	3.166	166.0	0.681698612	0.862833157	0.015455406	0.159450571	0.049144214
2020-04-03T04:00:00	0.2642	3.172	150.0	0.681941175	0.863205415	0.015465741	0.159557202	0.049177079
2020-04-03T04:05:00	0.2642	3.178	149.0	0.681675781	0.862798121	0.015454433	0.159440536	0.049141122
2020-04-03T04:10:00	0.2634	3.186	151.0	0.679126256	0.858888510	0.015346021	0.158322068	0.048796399
2020-04-03T04:15:00	0.2635	3.193	150.0	0.679513454	0.859481905	0.015362460	0.158491663	0.048848670
2020-04-03T04:20:00	0.2630	3.200	153.0	0.677942078	0.857074518	0.015295803	0.157803981	0.048636720
2020-04-03T04:25:00	0.2638	3.207	149.0	0.680614013	0.861169254	0.015409235	0.158974238	0.048997404
2020-04-03T04:30:00	0.2630	3.214	160.0	0.678063745	0.857260839	0.015300959	0.157857170	0.048653113
2020-04-03T04:35:00	0.2625	3.223	151.0	0.676165088	0.854354690	0.015220608	0.157028211	0.048397620
2020-04-03T04:40:00	0.2635	3.233	147.0	0.679491127	0.859447684	0.015361511	0.158481881	0.048845655
2020-04-03T04:45:00	0.2638	3.244	152.0	0.680530901	0.861041793	0.015405700	0.158937768	0.048986164
2020-04-03T04:50:00	0.2652	3.255	151.0	0.685156655	0.868144976	0.015603097	0.160974279	0.049613836
2020-04-03T04:55:00	0.2650	3.266	152.0	0.684565591	0.867236326	0.015577801	0.160713299	0.049533400
2020-04-03T05:00:00	0.2662	3.277	152.0	0.688209593	0.872843108	0.015734103	0.162325836	0.050030399
2020-04-03T05:05:00	0.2656	3.290	152.0	0.686316209	0.869928452	0.015652787	0.161486920	0.049771837
2020-04-03T05:10:00	0.2659	3.304	153.0	0.687354042	0.871525697	0.015697332	0.161946476	0.049913477
2020-04-03T05:15:00	0.2673	3.319	153.0	0.691971173	0.878642842	0.015896311	0.163999311	0.050546180
2020-04-03T05:20:00	0.2675	3.336	153.0	0.692682223	0.879740539	0.015927072	0.164316665	0.050643992
2020-04-03T05:25:00	0.2674	3.353	154.0	0.692417608	0.879331983	0.015915621	0.164198525	0.050607580
2020-04-03T05:30:00	0.2670	3.370	151.0	0.690851773	0.876915631	0.015847948	0.163500358	0.050392398
2020-04-03T05:35:00	0.2675	3.387	153.0	0.692538794	0.879519082	0.015920864	0.164252624	0.050624254
2020-04-03T05:40:00	0.2689	3.402	153.0	0.697149400	0.886646853	0.016121046	0.166317862	0.051260780
2020-04-03T05:45:00	0.2693	3.417	156.0	0.698508863	0.888752034	0.016180323	0.166929413	0.051449266
2020-04-03T05:50:00	0.2700	3.432	155.0	0.700841371	0.892367752	0.016282297	0.167981453	0.051773515
2020-04-03T05:55:00	0.2703	3.445	154.0	0.701550704	0.893468255	0.016313375	0.168302080	0.051872335
2020-04-03T06:00:00	0.2706	3.457	154.0	0.702584234	0.895072521	0.016358713	0.168769826	0.052016500
2020-04-03T06:05:00	0.2706	3.472	151.0	0.702644660	0.895166344	0.016361366	0.168797195	0.052024935
2020-04-03T06:10:00	0.2712	3.484	155.0	0.704650424	0.898282484	0.016449551	0.169706987	0.052305341
2020-04-03T06:15:00	0.2700	3.496	152.0	0.700819173	0.892333320	0.016281325	0.167971425	0.051770424
2020-04-03T06:20:00	0.2709	3.509	155.0	0.703474472	0.896455109	0.016397819	0.169173274	0.052140846
2020-04-03T06:25:00	0.2716	3.520	155.0	0.705803834	0.900075997	0.016500376	0.170231333	0.052466950
2020-04-03T06:30:00	0.2725	3.532	156.0	0.708779329	0.904708139	0.016631873	0.171587971	0.052885079
2020-04-03T06:35:00	0.2734	3.545	156.0	0.711752426	0.909344248	0.016763818	0.172949220	0.053304629
2020-04-03T06:40:00	0.2740	3.558	156.0	0.713753242	0.912468567	0.016852925	0.173868519	0.053587966
2020-04-03T06:45:00	0.2747	3.571	162.0	0.716076124	0.916100182	0.016956690	0.174939042	0.053917912
2020-04-03T06:50:00	0.2736	3.583	162.0	0.712256734	0.910131408	0.016786254	0.173180686	0.053375969
2020-04-03T06:55:00	0.2755	3.598	168.0	0.718457716	0.919828476	0.017063429	0.176040248	0.054257314
2020-04-03T07:00:00	0.2747	3.612	151.0	0.715933603	0.915877228	0.016950313	0.174873259	0.053897637
2020-04-03T07:05:00	0.2757	3.626	150.0	0.719223825	0.921028846	0.017097840	0.176395264	0.054366734
2020-04-03T07:10:00	0.2750	3.639	150.0	0.717023302	0.917582361	0.016999098	0.175376561	0.054052759
2020-04-03T07:15:00	0.2747	3.650	155.0	0.715791078	0.915654284	0.016943938	0.174807488	0.053877365
2020-04-03T07:20:00	0.2750	3.662	151.0	0.716820625	0.917265139	0.016990019	0.175282892	0.054023889
2020-04-03T07:25:00	0.2761	3.675	150.0	0.720432828	0.922924202	0.017152220	0.176956292	0.054539648
2020-04-03T07:30:00	0.2747	3.689	154.0	0.715971705	0.915936831	0.016952018	0.174890844	0.053903057
2020-04-03T07:35:00	0.2755	3.704	155.0	0.718616122	0.920076631	0.017070541	0.176113622	0.054279929
2020-04-03T07:40:00	0.2757	3.719	157.0	0.718999180	0.920676810	0.017087746	0.176291124	0.054334636
2020-04-03T07:45:00	0.2735	3.733	157.0	0.711949262	0.909651458	0.016772573	0.173039544	0.053332468
2020-04-03T07:50:00	0.2755	3.749	162.0	0.718473699	0.919853514	0.017064146	0.176047651	0.054259596
2020-04-03T07:55:00	0.2725	3.768	156.0	0.708833530	0.904792588	0.016634274	0.171612736	0.052892712
2020-04-03T08:00:00	0.2741	3.789	161.0	0.714070450	0.912964217	0.016867075	0.174014502	0.053632959
2020-04-03T08:05:00	0.2748	3.817	154.0	0.716393133	0.916596163	0.016970877	0.175085410	0.053963024
2020-04-03T08:10:00	0.2739	3.844	154.0	0.713220898	0.911636960	0.016829192	0.173623674	0.053512503
2020-04-03T08:15:00	0.2743	3.873	154.0	0.714574442	0.913751901	0.016889570	0.174246578	0.053704488
2020-04-03T08:20:00	0.2750	3.905	154.0	0.716896809	0.917384374	0.016993431	0.175318097	0.054034740
2020-04-03T08:25:00	0.2752	3.945	154.0	0.717603061	0.918489975	0.017025084	0.175644648	0.054135386
2020-04-03T08:30:00	0.2751	3.986	154.0	0.717340231	0.918078477	0.017013301	0.175523085	0.054097920
2020-04-03T08:35:00	0.2754	4.028	155.0	0.718046398	0.919184220	0.017044969	0.175849800	0.054198616
2020-04-03T08:40:00	0.2746	4.054	154.0	0.715522006	0.915233440	0.016931906	0.174683354	0.053839106
2020-04-03T08:45:00	0.2745	4.088	155.0	0.715259027	0.914822189	0.016920151	0.174562077	0.053801727
2020-04-03T08:50:00	0.2749	4.126	158.0	0.716611826	0.916938371	0.016980668	0.175186421	0.053994156
2020-04-03T08:55:00	0.2738	4.171	158.0	0.713116398	0.911473743	0.016824536	0.173575632	0.053497696
2020-04-03T09:00:00	0.2748	4.225	157.0	0.716086006	0.916115641	0.016957132	0.174943603	0.053919318
2020-04-03T09:05:00	0.2738	4.272	152.0	0.712913506	0.911156877	0.016815496	0.173482377	0.053468953
2020-04-03T09:10:00	0.2750	4.338	152.0	0.716852606	0.917315192	0.016991451	0.175297670	0.054028444
2020-04-03T09:15:00	0.2724	4.415	158.0	0.708503621	0.904278603	0.016619666	0.171462025	0.052846261
2020-04-03T09:20:00	0.2731	4.521	158.0	0.710829807	0.907904736	0.016722813	0.172526183	0.053174245
2020-04-03T09:25:00	0.2736	4.595	159.0	0.712507690	0.910523200	0.016797424	0.173295931	0.053411489
2020-04-03T09:30:00	0.2725	4.656	159.0	0.708684605	0.904560557	0.016627679	0.171544695	0.052871741
2020-04-03T09:35:00	0.2730	4.676	159.0	0.710363463	0.907177405	0.016702108	0.172312565	0.053108406
2020-04-03T09:40:00	0.2734	4.683	159.0	0.711718055	0.909290609	0.016762289	0.172933450	0.053299769
2020-04-03T09:45:00	0.2726	4.692	159.0	0.709189333	0.905347022	0.016650036	0.171775354	0.052942832
2020-04-03T09:50:00	0.2731	4.705	159.0	0.710867961	0.907964250	0.016724508	0.172543666	0.053179634
2020-04-03T09:55:00	0.2729	4.726	159.0	0.709957366	0.906544194	0.016684088	0.172126659	0.053051108
2020-04-03T10:00:00	0.2736	4.747	159.0	0.712282636	0.910171844	0.016787407	0.173192579	0.053379635
2020-04-03T10:05:00	0.2741	4.770	159.0	0.713862521	0.912639310	0.016857799	0.173918803	0.053603464
2020-04-03T10:10:00	0.2736	4.793	159.0	0.712208409	0.910055970	0.016784103	0.173158499	0.053369131
2020-04-03T10:15:00	0.2736	4.821	159.0	0.712494758	0.910503009	0.016796849	0.173289991	0.053409658
2020-04-03T10:20:00	0.2739	4.861	159.0	0.713427875	0.911960262	0.016838417	0.173718849	0.053541836
2020-04-03T10:25:00	0.2743	4.902	160.0	0.714684027	0.913923199	0.016894463	0.174297061	0.053720047
2020-04-03T10:30:00	0.2743	4.939	159.0	0.714646938	0.913865222	0.016892807	0.174279974	0.053714781
2020-04-03T10:35:00	0.2740	4.966	160.0	0.713639930	0.912291536	0.016847872	0.173816387	0.053571899
2020-04-03T10:40:00	0.2747	4.986	160.0	0.715865599	0.915770851	0.016947271	0.174841875	0.053887964
2020-04-03T10:45:00	0.2734	5.016	160.0	0.711625092	0.909145532	0.016758156	0.172890802	0.053286624
2020-04-03T10:50:00	0.2734	5.045	159.0	0.711587972	0.909087606	0.016756505	0.172873775	0.053281376
2020-04-03T10:55:00	0.2759	5.062	160.0	0.719953106	0.922171988	0.017130632	0.176733568	0.054471002
2020-04-03T11:00:00	0.2740	5.075	161.0	0.713777778	0.912506904	0.016854019	0.173879808	0.053591446
2020-04-03T11:05:00	0.2747	5.080	160.0	0.716003364	0.915986356	0.016953434	0.174905457	0.053907560
2020-04-03T11:10:00	0.2744	5.082	161.0	0.714996726	0.914412056	0.016908430	0.174441157	0.053764459
2020-04-03T11:15:00	0.2752	5.090	155.0	0.717544599	0.918398440	0.017022462	0.175617605	0.054127051
2020-04-03T11:20:00	0.2758	5.103	161.0	0.719445093	0.921375632	0.017107786	0.176497871	0.054398358
2020-04-03T11:25:00	0.2753	5.111	160.0	0.717793477	0.918788136	0.017033623	0.175732746	0.054162539
2020-04-03T11:30:00	0.2746	5.114	160.0	0.715494808	0.915190906	0.016930690	0.174670809	0.053835240
2020-04-03T11:35:00	0.2750	5.132	160.0	0.716750258	0.917155011	0.016986867	0.175250377	0.054013868
2020-04-03T11:40:00	0.2749	5.160	159.0	0.716713190	0.917096999	0.016985207	0.175233250	0.054008590
2020-04-03T11:45:00	0.2739	5.179	160.0	0.713443880	0.911985264	0.016839131	0.173726210	0.053544105
2020-04-03T11:50:00	0.2741	5.195	159.0	0.714053459	0.912937665	0.016866317	0.174006680	0.053630549
2020-04-03T11:55:00	0.2737	5.213	159.0	0.712722876	0.910859192	0.016807006	0.173394781	0.053441956
2020-04-03T12:00:00	0.2726	5.229	159.0	0.709126301	0.905248793	0.016647243	0.171746540	0.052933951
2020-04-03T12:05:00	0.2737	5.244	170.0	0.712648657	0.910743302	0.016803701	0.173360684	0.053431447
2020-04-03T12:10:00	0.2736	5.251	157.0	0.712288095	0.910180366	0.016787650	0.173195086	0.053380408
2020-04-03T12:15:00	0.2733	5.265	165.0	0.711280444	0.908607748	0.016742835	0.172732739	0.053237908
2020-04-03T12:20:00	0.2714	5.274	159.0	0.705090585	0.898966782	0.016468937	0.169906985	0.052366983
2020-04-03T12:25:00	0.2724	5.278	159.0	0.708616797	0.904454915	0.016624676	0.171513719	0.052862194
2020-04-03T12:30:00	0.2719	5.284	160.0	0.706960331	0.901875474	0.016551420	0.170757945	0.052629257
2020-04-03T12:35:00	0.2718	5.305	159.0	0.706599212	0.901313459	0.016535472	0.170593417	0.052578548
2020-04-03T12:40:00	0.2709	5.325	159.0	0.703645164	0.896720281	0.016405322	0.169250688	0.052164706
2020-04-03T12:45:00	0.2705	5.338	167.0	0.702310817	0.894648027	0.016346712	0.168646018	0.051978341
2020-04-03T12:50:00	0.2715	5.357	167.0	0.705515644	0.899627763	0.016487669	0.170100240	0.052426546
2020-04-03T12:55:00	0.2705	5.375	163.0	0.702236389	0.894532485	0.016343446	0.168612324	0.051967956
2020-04-03T13:00:00	0.2696	5.389	168.0	0.699278833	0.889945076	0.016213948	0.167276309	0.051556183
2020-04-03T13:05:00	0.2692	5.409	168.0	0.698267616	0.888378337	0.016169796	0.166820802	0.051415791
2020-04-03T13:10:00	0.2698	5.437	162.0	0.700178068	0.891339058	0.016253264	0.167681925	0.051681198
2020-04-03T13:15:00	0.2705	5.455	166.0	0.702411877	0.894804920	0.016351147	0.168691774	0.051992443
2020-04-03T13:20:00	0.2689	5.468	164.0	0.697181589	0.886696681	0.016122448	0.166332329	0.051265239
2020-04-03T13:25:00	0.2698	5.485	168.0	0.700066361	0.891165852	0.016248377	0.167631509	0.051665659
2020-04-03T13:30:00	0.2704	5.503	168.0	0.701975878	0.894128107	0.016332018	0.168494418	0.051931616
2020-04-03T13:35:00	0.2694	5.512	168.0	0.698693464	0.889038021	0.016188381	0.167012548	0.051474889
2020-04-03T13:40:00	0.2696	5.534	162.0	0.699305489	0.889986387	0.016215112	0.167288325	0.051559887
2020-04-03T13:45:00	0.2692	5.554	167.0	0.697969566	0.887916721	0.016156794	0.166686670	0.051374451
2020-04-03T13:50:00	0.2685	5.577	161.0	0.695983409	0.884842548	0.016070297	0.165794289	0.051099410
2020-04-03T13:55:00	0.2678	5.595	161.0	0.693671083	0.881267839	0.015969903	0.164758550	0.050780185
2020-04-03T14:00:00	0.2703	5.605	161.0	0.701752569	0.893781521	0.016322225	0.168393384	0.051900476
2020-04-03T14:05:00	0.2681	5.617	162.0	0.694571693	0.882659573	0.016008965	0.165161544	0.050904392
2020-04-03T14:10:00	0.2690	5.633	162.0	0.697458515	0.887125389	0.016134515	0.166456813	0.051303606
2020-04-03T14:15:00	0.2686	5.649	162.0	0.696121920	0.885056824	0.016076321	0.165856440	0.051118566
2020-04-03T14:20:00	0.2683	5.673	162.0	0.695109832	0.883491509	0.016032330	0.165402593	0.050978685
2020-04-03T14:25:00	0.2679	5.699	162.0	0.693772381	0.881424342	0.015974294	0.164803851	0.050794148
2020-04-03T14:30:00	0.2681	5.714	157.0	0.694385227	0.882371365	0.016000874	0.165078064	0.050878662
2020-04-03T14:35:00	0.2669	5.727	157.0	0.690770662	0.876790523	0.015844447	0.163464236	0.050381265
2020-04-03T14:40:00	0.2673	5.744	162.0	0.692034574	0.878740700	0.015899053	0.164027594	0.050554898
2020-04-03T14:45:00	0.2680	5.758	162.0	0.694273343	0.882198448	0.015996019	0.165027984	0.050863227
2020-04-03T14:50:00	0.2660	5.775	157.0	0.687729119	0.872103178	0.015713447	0.162112731	0.049964718
2020-04-03T14:55:00	0.2658	5.788	156.0	0.687040421	0.871042931	0.015683864	0.161807531	0.049870653
2020-04-03T15:00:00	0.2658	5.803	162.0	0.687003052	0.870985413	0.015682259	0.161790980	0.049865551
2020-04-03T15:05:00	0.2657	5.815	157.0	0.686639964	0.870426618	0.015666676	0.161630206	0.049815999
2020-04-03T15:10:00	0.2658	5.825	162.0	0.686928312	0.870870379	0.015679051	0.161757878	0.049855349
2020-04-03T15:15:00	0.2661	5.839	162.0	0.687867942	0.872316945	0.015719413	0.162174288	0.049983691
2020-04-03T15:20:00	0.2665	5.844	161.0	0.689458353	0.874767132	0.015787855	0.162880387	0.050201317
2020-04-03T15:25:00	0.2654	5.849	162.0	0.685838918	0.869194205	0.015632324	0.161275805	0.049706769
2020-04-03T15:30:00	0.2664	5.858	168.0	0.689058161	0.874150389	0.015770618	0.162702561	0.050146509
2020-04-03T15:35:00	0.2666	5.865	168.0	0.689671796	0.875096128	0.015797052	0.162975273	0.050230562
2020-04-03T15:40:00	0.2667	5.866	171.0	0.689959905	0.875540276	0.015809471	0.163103399	0.050270051
2020-04-03T15:45:00	0.2645	5.867	160.0	0.682755855	0.864456067	0.015500482	0.159915611	0.049287544
2020-04-03T15:50:00	0.2656	5.863	158.0	0.686303590	0.869909038	0.015652246	0.161481337	0.049770116
2020-04-03T15:55:00	0.2661	5.858	158.0	0.687894681	0.872358121	0.015720563	0.162186146	0.049987345
2020-04-03T16:00:00	0.2653	5.855	157.0	0.685577240	0.868791731	0.015621111	0.161160121	0.049671114
2020-04-03T16:05:00	0.2655	5.851	163.0	0.686102128	0.869599093	0.015643607	0.161392210	0.049742646
2020-04-03T16:10:00	0.2646	5.850	163.0	0.683042109	0.864895646	0.015512698	0.160041646	0.049326390
2020-04-03T16:15:00	0.2648	5.852	157.0	0.683893354	0.866203253	0.015549056	0.160416749	0.049442000
2020-04-03T16:20:00	0.2646	5.852	158.0	0.683114528	0.865006865	0.015515789	0.160073539	0.049336219
2020-04-03T16:25:00	0.2643	5.853	157.0	0.682009404	0.863310135	0.015468649	0.159587202	0.049186326
2020-04-03T16:30:00	0.2644	5.850	157.0	0.682534806	0.864116668	0.015491051	0.159818321	0.049257559
2020-04-03T16:35:00	0.2652	5.841	162.0	0.685015920	0.867928595	0.015597072	0.160912118	0.049594678
2020-04-03T16:40:00	0.2635	5.830	162.0	0.679671220	0.859723723	0.015369160	0.158560793	0.048869976
2020-04-03T16:45:00	0.2640	5.821	157.0	0.681175751	0.862030900	0.015433139	0.159220848	0.049073412
2020-04-03T16:50:00	0.2640	5.816	157.0	0.681048867	0.861836249	0.015427738	0.159165126	0.049056238
2020-04-03T16:55:00	0.2640	5.813	163.0	0.681248207	0.862142059	0.015436223	0.159252671	0.049083220
2020-04-03T17:00:00	0.2640	5.808	157.0	0.681121325	0.861947404	0.015430822	0.159196945	0.049066045
2020-04-03T17:05:00	0.2638	5.801	163.0	0.680668188	0.861252340	0.015411540	0.158998013	0.049004732
2020-04-03T17:10:00	0.2632	5.793	169.0	0.678583096	0.858056317	0.015322976	0.158084320	0.048723123
2020-04-03T17:15:00	0.2638	5.786	172.0	0.680414380	0.860863103	0.015400745	0.158886645	0.048970407
2020-04-03T17:20:00	0.2639	5.776	169.0	0.680940010	0.861669266	0.015423105	0.159117330	0.049041507
2020-04-03T17:25:00	0.2645	5.768	165.0	0.682770111	0.864477958	0.015501090	0.159921886	0.049289478
2020-04-03T17:30:00	0.2642	5.759	170.0	0.681991045	0.863281956	0.015467867	0.159579129	0.049183837
2020-04-03T17:35:00	0.2648	5.749	166.0	0.683820619	0.866091498	0.015545948	0.160384680	0.049432116
2020-04-03T17:40:00	0.2631	5.736	161.0	0.678147689	0.857389399	0.015304516	0.157893873	0.048664425
2020-04-03T17:45:00	0.2642	5.720	161.0	0.681936631	0.863198441	0.015465548	0.159555204	0.049176463
2020-04-03T17:50:00	0.2642	5.702	163.0	0.681809773	0.863003748	0.015460142	0.159499433	0.049159274
2020-04-03T17:55:00	0.2660	5.682	161.0	0.687549350	0.871826384	0.015705722	0.162033036	0.049940155
2020-04-03T18:00:00	0.2655	5.665	161.0	0.686119802	0.869626283	0.015644365	0.161400028	0.049745056
2020-04-03T18:05:00	0.2661	5.646	162.0	0.687947310	0.872439167	0.015722825	0.162209487	0.049994539
2020-04-03T18:10:00	0.2659	5.629	167.0	0.687495018	0.871742735	0.015703388	0.162008954	0.049932733
2020-04-03T18:15:00	0.2662	5.612	163.0	0.688345227	0.873052020	0.015739936	0.162386020	0.050048948
2020-04-03T18:20:00	0.2663	5.594	168.0	0.688544169	0.873358472	0.015748495	0.162474317	0.050076162
2020-04-03T18:25:00	0.2672	5.574	182.0	0.691671838	0.878180868	0.015883371	0.163865809	0.050505034
2020-04-03T18:30:00	0.2670	5.557	164.0	0.690894667	0.876981797	0.015849800	0.163519463	0.050398286
2020-04-03T18:35:00	0.2680	5.543	164.0	0.694345392	0.882309799	0.015999145	0.165060233	0.050873167
2020-04-03T18:40:00	0.2679	5.527	160.0	0.693893890	0.881612084	0.015979563	0.164858201	0.050810899
2020-04-03T18:45:00	0.2688	5.510	165.0	0.696692173	0.885939179	0.016101135	0.166112446	0.051197469
2020-04-03T18:50:00	0.2680	5.494	167.0	0.694291162	0.882225987	0.015996793	0.165035960	0.050865686
2020-04-03T18:55:00	0.2683	5.478	169.0	0.695139794	0.883537836	0.016033631	0.165416019	0.050982824
2020-04-03T19:00:00	0.2680	5.458	164.0	0.694363358	0.882337567	0.015999925	0.165068275	0.050875645
2020-04-03T19:05:00	0.2681	5.441	171.0	0.694561974	0.882644551	0.016008544	0.165157192	0.050903051
2020-04-03T19:10:00	0.2681	5.425	166.0	0.694435553	0.882449149	0.016003057	0.165100593	0.050885606
2020-04-03T19:15:00	0.2688	5.409	166.0	0.696908616	0.886274157	0.016110559	0.166209670	0.051227434
2020-04-03T19:20:00	0.2689	5.394	164.0	0.697107094	0.886581366	0.016119203	0.166298850	0.051254921
2020-04-03T19:25:00	0.2680	5.378	172.0	0.694056265	0.881862985	0.015986604	0.164930843	0.050833288
2020-04-03T19:30:00	0.2684	5.363	160.0	0.695554891	0.884179736	0.016051667	0.165602088	0.051040172
2020-04-03T19:35:00	0.2680	5.347	168.0	0.694128466	0.881974557	0.015989735	0.164963149	0.050843245
2020-04-03T19:40:00	0.2674	5.333	161.0	0.692376278	0.879268177	0.015913833	0.164180077	0.050601894
2020-04-03T19:45:00	0.2668	5.317	162.0	0.690297859	0.876061357	0.015824045	0.163253758	0.050316394
2020-04-03T19:50:00	0.2674	5.302	162.0	0.692123282	0.878877625	0.015902889	0.164067172	0.050567096
2020-04-03T19:55:00	0.2668	5.286	161.0	0.690370134	0.876172808	0.015827163	0.163285923	0.050326307
2020-04-03T20:00:00	0.2665	5.271	161.0	0.689267203	0.874472530	0.015779621	0.162795436	0.050175135
2020-04-03T20:05:00	0.2654	5.256	161.0	0.685884048	0.869263623	0.015634258	0.161295761	0.049712920
2020-04-03T20:10:00	0.2662	5.242	161.0	0.688362890	0.873079228	0.015740696	0.162393858	0.050051364
2020-04-03T20:15:00	0.2652	5.230	161.0	0.684978899	0.867871678	0.015595487	0.160895769	0.049589639
2020-04-03T20:20:00	0.2656	5.217	161.0	0.686481245	0.870182383	0.015659866	0.161559952	0.049794346
2020-04-03T20:25:00	0.2664	5.206	161.0	0.688959682	0.873998643	0.015766378	0.162658817	0.050133027
2020-04-03T20:30:00	0.2661	5.194	157.0	0.688181935	0.872800509	0.015732913	0.162313564	0.050026617
2020-04-03T20:35:00	0.2672	5.183	162.0	0.691635216	0.878124353	0.015881788	0.163849479	0.050500001
2020-04-03T20:40:00	0.2659	5.173	161.0	0.687277354	0.871407642	0.015694038	0.161912495	0.049903004
2020-04-03T20:45:00	0.2652	5.164	161.0	0.685196036	0.868205528	0.015604784	0.160991675	0.049619198
2020-04-03T20:50:00	0.2641	5.155	162.0	0.681482930	0.862502194	0.015446218	0.159355788	0.049115001
2020-04-03T20:55:00	0.2656	5.147	156.0	0.686245846	0.869820196	0.015649770	0.161455788	0.049762242
2020-04-03T21:00:00	0.2666	5.141	161.0	0.689700954	0.875141075	0.015798309	0.162988238	0.050234558
2020-04-03T21:05:00	0.2663	5.134	161.0	0.688597821	0.873441124	0.015750803	0.162498134	0.050083503
2020-04-03T21:10:00	0.2666	5.126	161.0	0.689773241	0.875252507	0.015801424	0.163020381	0.050244465
2020-04-03T21:15:00	0.2659	5.119	162.0	0.687367690	0.871546708	0.015697918	0.161952524	0.049915341
2020-04-03T21:20:00	0.2665	5.112	162.0	0.689194574	0.874360602	0.015776492	0.162763165	0.050165188
2020-04-03T21:25:00	0.2650	5.106	162.0	0.684507894	0.867147643	0.015575333	0.160687835	0.049525551
2020-04-03T21:30:00	0.2647	5.099	161.0	0.683403192	0.865450232	0.015528115	0.160200701	0.049375412
2020-04-03T21:35:00	0.2651	5.092	161.0	0.684906185	0.867759889	0.015592375	0.160863659	0.049579742
2020-04-03T21:40:00	0.2652	5.086	162.0	0.685105315	0.868066038	0.015600899	0.160951601	0.049606847
2020-04-03T21:45:00	0.2660	5.080	161.0	0.687584685	0.871880787	0.015707240	0.162048699	0.049944983
2020-04-03T21:50:00	0.2663	5.075	162.0	0.688760430	0.873691643	0.015757801	0.162570330	0.050105754
2020-04-03T21:55:00	0.2662	5.067	161.0	0.688308240	0.872995048	0.015738345	0.162369606	0.050043890
2020-04-03T22:00:00	0.2654	5.061	161.0	0.685901724	0.869290812	0.015635016	0.161303577	0.049715329
2020-04-03T22:05:00	0.2668	5.054	161.0	0.690192374	0.875898702	0.015819495	0.163206819	0.050301927
2020-04-03T22:10:00	0.2670	5.048	161.0	0.690900858	0.876991346	0.015850067	0.163522220	0.050399136
2020-04-03T22:15:00	0.2662	5.042	161.0	0.688354851	0.873066845	0.015740350	0.162390291	0.050050265
2020-04-03T22:20:00	0.2669	5.036	161.0	0.690690914	0.876667520	0.015841005	0.163428724	0.050370320
2020-04-03T22:25:00	0.2671	5.029	161.0	0.691399301	0.877760321	0.015871594	0.163744309	0.050467586
2020-04-03T22:30:00	0.2684	5.022	161.0	0.695358574	0.883876136	0.016043136	0.165514074	0.051013045
2020-04-03T22:35:00	0.2677	5.015	161.0	0.693140834	0.880448762	0.015946929	0.164521523	0.050707131
2020-04-03T22:40:00	0.2672	5.007	161.0	0.691572398	0.878027416	0.015879073	0.163821472	0.050491369
2020-04-03T22:45:00	0.2675	5.000	161.0	0.692605831	0.879622587	0.015923766	0.164282554	0.050633479
2020-04-03T22:50:00	0.2664	4.992	161.0	0.689084596	0.874191124	0.015771756	0.162714304	0.050150129
2020-04-03T22:55:00	0.2680	4.985	161.0	0.694346791	0.882311962	0.015999206	0.165060859	0.050873360
2020-04-03T23:00:00	0.2678	4.978	156.0	0.693429187	0.880894150	0.015959420	0.164650397	0.050746852
2020-04-03T23:05:00	0.2670	4.970	161.0	0.690884938	0.876966790	0.015849380	0.163515130	0.050396951
2020-04-03T23:10:00	0.2673	4.963	156.0	0.691918566	0.878561645	0.015894036	0.163975844	0.050538948
2020-04-03T23:15:00	0.2675	4.956	155.0	0.692626716	0.879654833	0.015924669	0.164291879	0.050636353
2020-04-03T23:20:00	0.2670	4.950	161.0	0.691058059	0.877233845	0.015856855	0.163592246	0.050420719
2020-04-03T23:25:00	0.2679	4.945	161.0	0.694042605	0.881841877	0.015986011	0.164924731	0.050831404
2020-04-03T23:30:00	0.2668	4.938	156.0	0.690197350	0.875906374	0.015819710	0.163209033	0.050302609
2020-04-03T23:35:00	0.2671	4.933	156.0	0.691231171	0.877500914	0.015864331	0.163669378	0.050444492
2020-04-03T23:40:00	0.2673	4.927	160.0	0.691939454	0.878593885	0.015894940	0.163985161	0.050541819
2020-04-03T23:45:00	0.2666	4.919	160.0	0.689719644	0.875169885	0.015799114	0.162996548	0.050237119
2020-04-03T23:50:00	0.2652	4.908	156.0	0.685218181	0.868239578	0.015605732	0.161001458	0.049622213
2020-04-03T23:55:00	0.2666	4.898	156.0	0.689509632	0.874846168	0.015790064	0.162903181	0.050208342
2020-04-04T00:00:00	0.2646	4.887	156.0	0.683052117	0.864911016	0.015513125	0.160046053	0.049327748
2020-04-04T00:05:00	0.2644	4.874	161.0	0.682457795	0.863998436	0.015487767	0.159784434	0.049247114
2020-04-04T00:10:00	0.2656	4.860	160.0	0.686426750	0.870098533	0.015657529	0.161535835	0.049786913
2020-04-04T00:15:00	0.2655	4.851	161.0	0.686158767	0.869686227	0.015646036	0.161417264	0.049750369
2020-04-04T00:20:00	0.2649	4.842	161.0	0.684261404	0.866768811	0.015564791	0.160579074	0.049492030
2020-04-04T00:25:00	0.2653	4.833	161.0	0.685296904	0.868360628	0.015609103	0.161036238	0.049632932
2020-04-04T00:30:00	0.2649	4.826	161.0	0.684051078	0.866445603	0.015555798	0.160486302	0.049463437
2020-04-04T00:35:00	0.2652	4.816	160.0	0.685086639	0.868037324	0.015600100	0.160943352	0.049604304
2020-04-04T00:40:00	0.2638	4.802	160.0	0.680579460	0.861116263	0.015407765	0.158959076	0.048992731
2020-04-04T00:45:00	0.2652	4.785	160.0	0.685202236	0.868215062	0.015605049	0.160994415	0.049620042
2020-04-04T00:50:00	0.2644	4.764	160.0	0.682326154	0.863796342	0.015482153	0.159726516	0.049229263
2020-04-04T00:55:00	0.2624	4.741	160.0	0.675855907	0.853881739	0.015207545	0.156893438	0.048356081
2020-04-04T01:00:00	0.2637	4.719	161.0	0.680158373	0.860470552	0.015389861	0.158774355	0.048935798
2020-04-04T01:05:00	0.2644	4.695	160.0	0.682499680	0.864062740	0.015489553	0.159802864	0.049252795
2020-04-04T01:10:00	0.2633	4.675	155.0	0.678968689	0.858647070	0.015339334	0.158253079	0.048775136
2020-04-04T01:15:00	0.2645	4.653	160.0	0.682941437	0.864741043	0.015508401	0.159997315	0.049312726
2020-04-04T01:20:00	0.2641	4.633	160.0	0.681368618	0.862326800	0.015441350	0.159305565	0.049099522
2020-04-04T01:25:00	0.2644	4.610	160.0	0.682404940	0.863917292	0.015485512	0.159761178	0.049239947
2020-04-04T01:30:00	0.2638	4.587	155.0	0.680505624	0.861003028	0.015404625	0.158926677	0.048982745
2020-04-04T01:35:00	0.2636	4.566	160.0	0.679910887	0.860091118	0.015379342	0.158665841	0.048902353
2020-04-04T01:40:00	0.2654	4.542	160.0	0.685837959	0.869192729	0.015632283	0.161275381	0.049706639
2020-04-04T01:45:00	0.2644	4.522	160.0	0.682636301	0.864272500	0.015495381	0.159862988	0.049271325
2020-04-04T01:50:00	0.2641	4.499	160.0	0.681389567	0.862358942	0.015442242	0.159314768	0.049102359
2020-04-04T01:55:00	0.2637	4.476	160.0	0.680142407	0.860446071	0.015389182	0.158767353	0.048933640
2020-04-04T02:00:00	0.2630	4.450	160.0	0.677915414	0.857033687	0.015294673	0.157792326	0.048633127
2020-04-04T02:05:00	0.2630	4.428	160.0	0.677973327	0.857122372	0.015297127	0.157817641	0.048640930
2020-04-04T02:10:00	0.2640	4.409	160.0	0.681294798	0.862213540	0.015438207	0.159273136	0.049089528
2020-04-04T02:15:00	0.2634	4.395	160.0	0.679068509	0.858800022	0.015343570	0.158296782	0.048788606
2020-04-04T02:20:00	0.2635	4.384	160.0	0.679452793	0.859388931	0.015359884	0.158465087	0.048840479
2020-04-04T02:25:00	0.2649	4.374	160.0	0.684076996	0.866485429	0.015556906	0.160497732	0.049466960
2020-04-04T02:30:00	0.2637	4.366	160.0	0.680221240	0.860566944	0.015392533	0.158801926	0.048944296
2020-04-04T02:35:00	0.2647	4.358	160.0	0.683540665	0.865661407	0.015533987	0.160261280	0.049394083
2020-04-04T02:40:00	0.2640	4.350	160.0	0.681315747	0.862245681	0.015439099	0.159282339	0.049092364
2020-04-04T02:45:00	0.2637	4.339	160.0	0.680068561	0.860332851	0.015386043	0.158734971	0.048923660
2020-04-04T02:50:00	0.2642	4.330	160.0	0.681757647	0.862923753	0.015457921	0.159476519	0.049152212
2020-04-04T02:55:00	0.2648	4.321	159.0	0.683771955	0.866016732	0.015543869	0.160363226	0.049425504
2020-04-04T03:00:00	0.2640	4.314	160.0	0.681220976	0.862100282	0.015435064	0.159240711	0.049079534
2020-04-04T03:05:00	0.2639	4.308	160.0	0.680952611	0.861688594	0.015423641	0.159122862	0.049043212
2020-04-04T03:10:00	0.2645	4.301	155.0	0.682967363	0.864780856	0.015509508	0.160008730	0.049316245
2020-04-04T03:15:00	0.2645	4.296	160.0	0.682699126	0.864368961	0.015498061	0.159890640	0.049279848
2020-04-04T03:20:00	0.2654	4.290	160.0	0.685690497	0.868965919	0.015625963	0.161210185	0.049686545
2020-04-04T03:25:00	0.2636	4.285	160.0	0.679878952	0.860042161	0.015377986	0.158651842	0.048898038
2020-04-04T03:30:00	0.2652	4.279	159.0	0.685154403	0.868141514	0.015603001	0.160973285	0.049613530
2020-04-04T03:35:00	0.2653	4.274	155.0	0.685538047	0.868731456	0.015619432	0.161142798	0.049665775
2020-04-04T03:40:00	0.2644	4.269	160.0	0.682336127	0.863811652	0.015482578	0.159730903	0.049230616
2020-04-04T03:45:00	0.2643	4.265	159.0	0.682067843	0.863399832	0.015471140	0.159612900	0.049194246
2020-04-04T03:50:00	0.2639	4.260	160.0	0.680820915	0.861486588	0.015418037	0.159065047	0.049025392
2020-04-04T03:55:00	0.2645	4.255	160.0	0.682835739	0.864578733	0.015503890	0.159950778	0.049298383
2020-04-04T04:00:00	0.2637	4.248	160.0	0.680284106	0.860663339	0.015395206	0.158829499	0.048952794
2020-04-04T04:05:00	0.2640	4.242	159.0	0.681182180	0.862040763	0.015433412	0.159223671	0.049074282
2020-04-04T04:10:00	0.2648	4.234	160.0	0.683710368	0.865922113	0.015541237	0.160336077	0.049417136
2020-04-04T04:15:00	0.2617	4.226	159.0	0.673509658	0.850295401	0.015108605	0.155872689	0.048041477
2020-04-04T04:20:00	0.2619	4.219	159.0	0.674409404	0.851670141	0.015146506	0.156263715	0.048161995
2020-04-04T04:25:00	0.2638	4.213	159.0	0.680533119	0.861045193	0.015405794	0.158938741	0.048986464
2020-04-04T04:30:00	0.2632	4.206	154.0	0.678494170	0.857920095	0.015319205	0.158045414	0.048711132
2020-04-04T04:35:00	0.2634	4.199	159.0	0.679066291	0.858796623	0.015343476	0.158295811	0.048788306
2020-04-04T04:40:00	0.2637	4.194	154.0	0.680290980	0.860673879	0.015395498	0.158832514	0.048953723
2020-04-04T04:45:00	0.2621	4.187	159.0	0.674985609	0.852550901	0.015170805	0.156514402	0.048239259
2020-04-04T04:50:00	0.2639	4.181	159.0	0.680782115	0.861427076	0.015416386	0.159048016	0.049020143
2020-04-04T04:55:00	0.2641	4.177	154.0	0.681353877	0.862304182	0.015440723	0.159299089	0.049097526
2020-04-04T05:00:00	0.2651	4.173	160.0	0.684859751	0.867688504	0.015590388	0.160843155	0.049573423
2020-04-04T05:05:00	0.2657	4.171	159.0	0.686734004	0.870571335	0.015670711	0.161671839	0.049828831
2020-04-04T05:10:00	0.2657	4.169	159.0	0.686653430	0.870447340	0.015667254	0.161636167	0.049817837
2020-04-04T05:15:00	0.2658	4.168	159.0	0.686898578	0.870824615	0.015677775	0.161744711	0.049851291
2020-04-04T05:20:00	0.2668	4.169	154.0	0.690399140	0.876217537	0.015828414	0.163298833	0.050330286
2020-04-04T05:25:00	0.2668	4.169	159.0	0.690318646	0.876093411	0.015824942	0.163263009	0.050319245
2020-04-04T05:30:00	0.2654	4.170	154.0	0.685679537	0.868949062	0.015625494	0.161205340	0.049685051
2020-04-04T05:35:00	0.2656	4.173	159.0	0.686250532	0.869827406	0.015649971	0.161457861	0.049762881
2020-04-04T05:40:00	0.2660	4.176	160.0	0.687798458	0.872209947	0.015716427	0.162143476	0.049974194
2020-04-04T05:45:00	0.2659	4.181	159.0	0.687392256	0.871584527	0.015698973	0.161963411	0.049918696
2020-04-04T05:50:00	0.2667	4.188	159.0	0.689916152	0.875472822	0.015807585	0.163083938	0.050264053
2020-04-04T05:55:00	0.2676	4.195	160.0	0.692763512	0.879866058	0.015930591	0.164352966	0.050655180
2020-04-04T06:00:00	0.2681	4.204	155.0	0.694633723	0.882755456	0.016011658	0.165189320	0.050912953
2020-04-04T06:05:00	0.2670	4.216	160.0	0.690976253	0.877107649	0.015853322	0.163555803	0.050409487
2020-04-04T06:10:00	0.2676	4.228	160.0	0.692847377	0.879995561	0.015934221	0.164390423	0.050666725
2020-04-04T06:15:00	0.2676	4.240	160.0	0.692766937	0.879871347	0.015930739	0.164354496	0.050655652
2020-04-04T06:20:00	0.2660	4.253	160.0	0.687805318	0.872220510	0.015716721	0.162146518	0.049975132
2020-04-04T06:25:00	0.2663	4.267	160.0	0.688701545	0.873600921	0.015755267	0.162544184	0.050097696
2020-04-04T06:30:00	0.2672	4.284	160.0	0.691549849	0.877992621	0.015878099	0.163811419	0.050488270
2020-04-04T06:35:00	0.2672	4.302	160.0	0.691469381	0.877868453	0.015874622	0.163775547	0.050477214
2020-04-04T06:40:00	0.2679	4.323	160.0	0.693990469	0.881761314	0.015983750	0.164901405	0.050824215
2020-04-04T06:45:00	0.2680	4.348	160.0	0.694235127	0.882139387	0.015994362	0.165010881	0.050857956
2020-04-04T06:50:00	0.2682	4.375	161.0	0.694804789	0.883019898	0.016019084	0.165265932	0.050936565
2020-04-04T06:55:00	0.2678	4.405	161.0	0.693424105	0.880886300	0.015959200	0.164648126	0.050746151
2020-04-04T07:00:00	0.2679	4.433	156.0	0.693993894	0.881766605	0.015983899	0.164902937	0.050824687
2020-04-04T07:05:00	0.2679	4.456	161.0	0.693913479	0.881642350	0.015980412	0.164866963	0.050813599
2020-04-04T07:10:00	0.2679	4.481	161.0	0.693833063	0.881518098	0.015976925	0.164830992	0.050802513
2020-04-04T07:15:00	0.2680	4.508	161.0	0.694077730	0.881896154	0.015987535	0.164940447	0.050836248
2020-04-04T07:20:00	0.2676	4.536	161.0	0.693021952	0.880265156	0.015941780	0.164468406	0.050690760
2020-04-04T07:25:00	0.2667	4.570	161.0	0.690013794	0.875623359	0.015811795	0.163127369	0.050277440
2020-04-04T07:30:00	0.2670	4.604	156.0	0.690909481	0.877004648	0.015850439	0.163526061	0.050400320
2020-04-04T07:35:00	0.2670	4.638	162.0	0.690828998	0.876880503	0.015846965	0.163490215	0.050389272
2020-04-04T07:40:00	0.2661	4.676	157.0	0.688144651	0.872743085	0.015731310	0.162297023	0.050021519
2020-04-04T07:45:00	0.2670	4.716	161.0	0.690993388	0.877134082	0.015854062	0.163563436	0.050411840
2020-04-04T07:50:00	0.2675	4.755	157.0	0.692539310	0.879519878	0.015920887	0.164252854	0.050624325
2020-04-04T07:55:00	0.2674	4.792	157.0	0.692133633	0.878893604	0.015903336	0.164071791	0.050568519
2020-04-04T08:00:00	0.2666	4.824	162.0	0.689775711	0.875256315	0.015801531	0.163021479	0.050244803
2020-04-04T08:05:00	0.2670	4.851	162.0	0.690996815	0.877139368	0.015854210	0.163564963	0.050412310
2020-04-04T08:10:00	0.2676	4.881	162.0	0.692867929	0.880027298	0.015935111	0.164399602	0.050669554
2020-04-04T08:15:00	0.2670	4.926	162.0	0.690835853	0.876891076	0.015847261	0.163493268	0.050390213
2020-04-04T08:20:00	0.2664	4.980	162.0	0.689128174	0.874258278	0.015773633	0.162733664	0.050156096
2020-04-04T08:25:00	0.2680	5.024	162.0	0.694252247	0.882165845	0.015995104	0.165018543	0.050860317
2020-04-04T08:30:00	0.2682	5.069	163.0	0.694821907	0.883046360	0.016019827	0.165273599	0.050938928
2020-04-04T08:35:00	0.2676	5.113	163.0	0.692790915	0.879908372	0.015931777	0.164365205	0.050658952
2020-04-04T08:40:00	0.2672	5.163	163.0	0.691734765	0.878277978	0.015886091	0.163893869	0.050513682
2020-04-04T08:45:00	0.2655	5.238	164.0	0.686120245	0.869626964	0.015644384	0.161400224	0.049745116
2020-04-04T08:50:00	0.2671	5.318	164.0	0.691248526	0.877527690	0.015865081	0.163677112	0.050446876
2020-04-04T08:55:00	0.2671	5.363	164.0	0.691168051	0.877403533	0.015861605	0.163641252	0.050435823
2020-04-04T09:00:00	0.2666	5.395	165.0	0.689785995	0.875272169	0.015801974	0.163026053	0.050246213
2020-04-04T09:05:00	0.2681	5.421	164.0	0.694584136	0.882678807	0.016009505	0.165167116	0.050906109
2020-04-04T09:10:00	0.2671	5.442	164.0	0.691251953	0.877532977	0.015865229	0.163678639	0.050447346
2020-04-04T09:15:00	0.2680	5.444	164.0	0.694098275	0.881927902	0.015988426	0.164949640	0.050839081
2020-04-04T09:20:00	0.2667	5.444	164.0	0.690114861	0.875779186	0.015816153	0.163172331	0.050291297
2020-04-04T09:25:00	0.2683	5.460	165.0	0.695237555	0.883688998	0.016037878	0.165459831	0.050996327
2020-04-04T09:30:00	0.2669	5.476	164.0	0.690604678	0.876534516	0.015837283	0.163390328	0.050358486
2020-04-04T09:35:00	0.2673	5.506	165.0	0.691825506	0.878418019	0.015890013	0.163934337	0.050526155
2020-04-04T09:40:00	0.2658	5.551	164.0	0.687188308	0.871270567	0.015690214	0.161873043	0.049890844
2020-04-04T09:45:00	0.2655	5.591	165.0	0.686130540	0.869642802	0.015644825	0.161404778	0.049746520
2020-04-04T09:50:00	0.2664	5.624	165.0	0.688980845	0.874031253	0.015767289	0.162668217	0.050135924
2020-04-04T09:55:00	0.2653	5.656	166.0	0.685317720	0.868392636	0.015609994	0.161045435	0.049635767
2020-04-04T10:00:00	0.2670	5.684	165.0	0.691097856	0.877295239	0.015858573	0.163609976	0.050426184
2020-04-04T10:05:00	0.2672	5.707	165.0	0.691475055	0.877877209	0.015874867	0.163778076	0.050477994
2020-04-04T10:10:00	0.2661	5.728	165.0	0.687946904	0.872438542	0.015722808	0.162209307	0.049994484
2020-04-04T10:15:00	0.2670	5.755	160.0	0.690928164	0.877033467	0.015851246	0.163534383	0.050402885
2020-04-04T10:20:00	0.2672	5.789	165.0	0.691630684	0.878117360	0.015881592	0.163847459	0.050499378
2020-04-04T10:25:00	0.2662	5.830	165.0	0.688428271	0.873179938	0.015743508	0.162422875	0.050060307
2020-04-04T10:30:00	0.2671	5.868	165.0	0.691409139	0.877775500	0.015872019	0.163748694	0.050468938
2020-04-04T10:35:00	0.2659	5.918	166.0	0.687229622	0.871334164	0.015691988	0.161891347	0.049896485
2020-04-04T10:40:00	0.2655	5.981	166.0	0.685978625	0.869409104	0.015638312	0.161337585	0.049725811
2020-04-04T10:45:00	0.2656	6.050	166.0	0.686356353	0.869990217	0.015654509	0.161504683	0.049777312
2020-04-04T10:50:00	0.2652	6.117	166.0	0.685105056	0.868065641	0.015600888	0.160951487	0.049606812
2020-04-04T10:55:00	0.2648	6.145	166.0	0.683853331	0.866141759	0.015547346	0.160399103	0.049436561
2020-04-04T11:00:00	0.2634	6.175	166.0	0.679338788	0.859214206	0.015355043	0.158415146	0.048825087
2020-04-04T11:05:00	0.2635	6.200	166.0	0.679390837	0.859293976	0.015357253	0.158437946	0.048832114
2020-04-04T11:10:00	0.2648	6.207	162.0	0.683683303	0.865880533	0.015540081	0.160324147	0.049413459
2020-04-04T11:15:00	0.2634	6.215	167.0	0.679168549	0.858953319	0.015347816	0.158340587	0.048802107
2020-04-04T11:20:00	0.2640	6.250	167.0	0.681178448	0.862035038	0.015433254	0.159222032	0.049073777
2020-04-04T11:25:00	0.2640	6.304	167.0	0.681230472	0.862114850	0.015435468	0.159244881	0.049080819
2020-04-04T11:30:00	0.2648	6.335	167.0	0.683891250	0.866200019	0.015548967	0.160415821	0.049441714
2020-04-04T11:35:00	0.2639	6.366	167.0	0.681008295	0.861774012	0.015426011	0.159147312	0.049050747
2020-04-04T11:40:00	0.2639	6.385	167.0	0.680734076	0.861353395	0.015414343	0.159026930	0.049013644
2020-04-04T11:45:00	0.2636	6.428	167.0	0.679807208	0.859932179	0.015374937	0.158620393	0.048888346
2020-04-04T11:50:00	0.2623	6.489	168.0	0.675614382	0.853512340	0.015197344	0.156788200	0.048323646
2020-04-04T11:55:00	0.2621	6.527	168.0	0.675012998	0.852592773	0.015171961	0.156526323	0.048242933
2020-04-04T12:00:00	0.2627	6.575	168.0	0.677025190	0.855670807	0.015256980	0.157403450	0.048513272
2020-04-04T12:05:00	0.2625	6.609	168.0	0.676424039	0.854750866	0.015231554	0.157141134	0.048432424
2020-04-04T12:10:00	0.2610	6.648	168.0	0.671246110	0.846839961	0.015013473	0.154891235	0.047738983
2020-04-04T12:15:00	0.2622	6.724	169.0	0.675221439	0.852911463	0.015180756	0.156617064	0.048270900
2020-04-04T12:20:00	0.2606	6.802	169.0	0.670041797	0.845003299	0.014962987	0.154370382	0.047578451
2020-04-04T12:25:00	0.2612	6.875	169.0	0.672056741	0.848076930	0.015047506	0.155242343	0.047847198
2020-04-04T12:30:00	0.2608	6.972	169.0	0.670800524	0.846160266	0.014994783	0.154698417	0.047679554
2020-04-04T12:35:00	0.2619	7.038	170.0	0.674449531	0.851731468	0.015148198	0.156281166	0.048167373
2020-04-04T12:40:00	0.2615	7.089	170.0	0.672867190	0.849314188	0.015081571	0.155593790	0.047955517
2020-04-04T12:45:00	0.2613	7.122	170.0	0.672265352	0.848395349	0.015056270	0.155332766	0.047875067
2020-04-04T12:50:00	0.2625	7.136	170.0	0.676239568	0.854468632	0.015223756	0.157060685	0.048407629
2020-04-04T12:55:00	0.2609	7.140	170.0	0.671061376	0.846558148	0.015005723	0.154811280	0.047714340
2020-04-04T13:00:00	0.2604	7.144	170.0	0.669477559	0.844143226	0.014939365	0.154126672	0.047503337
2020-04-04T13:05:00	0.2608	7.145	170.0	0.670838578	0.846218307	0.014996379	0.154714879	0.047684628
2020-04-04T13:10:00	0.2610	7.154	170.0	0.671544978	0.847295947	0.015026016	0.155020635	0.047778865
2020-04-04T13:15:00	0.2607	7.178	170.0	0.670288584	0.845379565	0.014973326	0.154477040	0.047611324
2020-04-04T13:20:00	0.2601	7.198	170.0	0.668377075	0.842466534	0.014893348	0.153651923	0.047357015
2020-04-04T13:25:00	0.2598	7.202	171.0	0.667447053	0.841050367	0.014854517	0.153251310	0.047233542
2020-04-04T13:30:00	0.2603	7.223	171.0	0.669136150	0.843622945	0.014925081	0.153979306	0.047457917
2020-04-04T13:35:00	0.2604	7.249	171.0	0.669515628	0.844201246	0.014940958	0.154143109	0.047508403
2020-04-04T13:40:00	0.2595	7.265	171.0	0.666621259	0.839793533	0.014820082	0.152896054	0.047124049
2020-04-04T13:45:00	0.2619	7.247	171.0	0.674198732	0.851348188	0.015137627	0.156172112	0.048133762
2020-04-04T13:50:00	0.2604	7.242	170.0	0.669344929	0.843941096	0.014933815	0.154069415	0.047485690
2020-04-04T13:55:00	0.2593	7.262	171.0	0.665795277	0.838536998	0.014785681	0.152541150	0.047014664
2020-04-04T14:00:00	0.2588	7.260	171.0	0.664209160	0.836125738	0.014719740	0.151860845	0.046804987
2020-04-04T14:05:00	0.2584	7.236	170.0	0.662950223	0.834213402	0.014667511	0.151322006	0.046638912
2020-04-04T14:10:00	0.2584	7.218	170.0	0.663002508	0.834292796	0.014669678	0.151344364	0.046645803
2020-04-04T14:15:00	0.2586	7.207	170.0	0.663382628	0.834870076	0.014685439	0.151506967	0.046695919
2020-04-04T14:20:00	0.2587	7.213	170.0	0.663762708	0.835447419	0.014701207	0.151669644	0.046746057
2020-04-04T14:25:00	0.2589	7.216	171.0	0.664470486	0.836522865	0.014730594	0.151972821	0.046839499
2020-04-04T14:30:00	0.2591	7.216	171.0	0.665178126	0.837598531	0.014760006	0.152276257	0.046933021
2020-04-04T14:35:00	0.2589	7.230	170.0	0.664575012	0.836681725	0.014734936	0.152017622	0.046853307
2020-04-04T14:40:00	0.2582	7.234	170.0	0.662332587	0.833275704	0.014641923	0.151058017	0.046557548
2020-04-04T14:45:00	0.2594	7.232	170.0	0.665990112	0.838833340	0.014793792	0.152624827	0.047040454
2020-04-04T14:50:00	0.2566	7.233	170.0	0.656858463	0.824979131	0.014416156	0.148728823	0.045839668
2020-04-04T14:55:00	0.2582	7.233	170.0	0.662161550	0.833016091	0.014634841	0.150984955	0.046535030
2020-04-04T15:00:00	0.2584	7.235	170.0	0.662869640	0.834091042	0.014664171	0.151287549	0.046628292
2020-04-04T15:05:00	0.2584	7.234	171.0	0.662921927	0.834170435	0.014666338	0.151309906	0.046635182
2020-04-04T15:10:00	0.2596	7.228	170.0	0.666906375	0.840227404	0.014831966	0.153018662	0.047161838
2020-04-04T15:15:00	0.2580	7.220	170.0	0.661714846	0.832338172	0.014616354	0.150794225	0.046476245
2020-04-04T15:20:00	0.2573	7.207	170.0	0.659142458	0.828437633	0.014510131	0.149698342	0.046138483
2020-04-04T15:25:00	0.2590	7.200	170.0	0.664769912	0.836977963	0.014743035	0.152101176	0.046879060
2020-04-04T15:30:00	0.2578	7.191	171.0	0.660887745	0.831083412	0.014582155	0.150441409	0.046367503
2020-04-04T15:35:00	0.2584	7.181	170.0	0.662907778	0.834148951	0.014665752	0.151303856	0.046633318
2020-04-04T15:40:00	0.2584	7.174	170.0	0.662960064	0.834228344	0.014667919	0.151326214	0.046640209
2020-04-04T15:45:00	0.2582	7.165	170.0	0.662356580	0.833312124	0.014642916	0.151068268	0.046560707
2020-04-04T15:50:00	0.2583	7.163	170.0	0.662408874	0.833391504	0.014645082	0.151090610	0.046567593
2020-04-04T15:55:00	0.2572	7.166	170.0	0.658852419	0.827998198	0.014498179	0.149575042	0.046100481
2020-04-04T16:00:00	0.2574	7.162	170.0	0.659561157	0.829072125	0.014527392	0.149876430	0.046193371
2020-04-04T16:05:00	0.2571	7.155	170.0	0.658678280	0.827734397	0.014491006	0.149501039	0.046077672
2020-04-04T16:10:00	0.2565	7.141	170.0	0.656481638	0.824408957	0.014400682	0.148569183	0.045790465
2020-04-04T16:15:00	0.2559	7.124	170.0	0.654612291	0.821582250	0.014324049	0.147778571	0.045546791
2020-04-04T16:20:00	0.2566	7.107	170.0	0.657013683	0.825214029	0.014422532	0.148794607	0.045859943
2020-04-04T16:25:00	0.2569	7.089	170.0	0.658100519	0.826859341	0.014467221	0.149255647	0.046002040
2020-04-04T16:30:00	0.2560	7.069	170.0	0.654917893	0.822044158	0.014336562	0.147907670	0.045586580
2020-04-04T16:35:00	0.2577	7.050	170.0	0.660601301	0.830648996	0.014570322	0.150319321	0.046329875
2020-04-04T16:40:00	0.2554	7.026	170.0	0.653149651	0.819372619	0.014264237	0.147161507	0.045356606
2020-04-04T16:45:00	0.2563	7.000	170.0	0.655880532	0.823499678	0.014376017	0.148314714	0.045712035
2020-04-04T16:50:00	0.2571	6.974	170.0	0.658609350	0.827629984	0.014488167	0.149471751	0.046068645
2020-04-04T16:55:00	0.2562	6.946	170.0	0.655755700	0.823310886	0.014370897	0.148261897	0.045695757
2020-04-04T17:00:00	0.2564	6.918	170.0	0.656186027	0.823961755	0.014388549	0.148444012	0.045751886
2020-04-04T17:05:00	0.2555	6.889	170.0	0.653330461	0.819645673	0.014271624	0.147237714	0.045380094
2020-04-04T17:10:00	0.2551	6.860	170.0	0.652117230	0.817814026	0.014222097	0.146726756	0.045222611
2020-04-04T17:15:00	0.2531	6.833	170.0	0.645307014	0.807555755	0.013945757	0.143875800	0.044343919
2020-04-04T17:20:00	0.2541	6.804	169.0	0.648702212	0.812665022	0.014083171	0.145293482	0.044780862
2020-04-04T17:25:00	0.2544	6.774	169.0	0.649791553	0.814306400	0.014127409	0.145749878	0.044921528
2020-04-04T17:30:00	0.2533	6.744	169.0	0.646272222	0.809007251	0.013984750	0.144278091	0.044467909
2020-04-04T17:35:00	0.2545	6.712	169.0	0.649995563	0.814613907	0.014135702	0.145835435	0.044947897
2020-04-04T17:40:00	0.2550	6.680	169.0	0.651742331	0.817248284	0.014206811	0.146569053	0.045174006
2020-04-04T17:45:00	0.2553	6.645	169.0	0.652830754	0.818891100	0.014251214	0.147027148	0.045315195
2020-04-04T17:50:00	0.2548	6.609	170.0	0.650959516	0.816067365	0.014174921	0.146240044	0.045072602
2020-04-04T17:55:00	0.2562	6.573	170.0	0.655663720	0.823171787	0.014367126	0.148222986	0.045683764
2020-04-04T18:00:00	0.2567	6.539	169.0	0.657407747	0.825810468	0.014438727	0.148961684	0.045911438
2020-04-04T18:05:00	0.2566	6.500	169.0	0.656852772	0.824970519	0.014415922	0.148726411	0.045838924
2020-04-04T18:10:00	0.2565	6.463	169.0	0.656626160	0.824627620	0.014406616	0.148630399	0.045809332
2020-04-04T18:15:00	0.2558	6.427	168.0	0.654428270	0.821304146	0.014316516	0.147700862	0.045522840
2020-04-04T18:20:00	0.2569	6.391	168.0	0.657814896	0.826426851	0.014455469	0.149134412	0.045964674
2020-04-04T18:25:00	0.2569	6.357	168.0	0.657916676	0.826580958	0.014459656	0.149177607	0.045977987
2020-04-04T18:30:00	0.2578	6.319	168.0	0.660972013	0.831211225	0.014585638	0.150477335	0.046378576
2020-04-04T18:35:00	0.2576	6.283	168.0	0.660089479	0.829872953	0.014549189	0.150101303	0.046262679
2020-04-04T18:40:00	0.2574	6.248	168.0	0.659534915	0.829032354	0.014526310	0.149865265	0.046189930
2020-04-04T18:45:00	0.2600	6.212	168.0	0.668158785	0.842134071	0.014884229	0.153557844	0.047328019
2020-04-04T18:50:00	0.2586	6.176	167.0	0.663674050	0.835312735	0.014697528	0.151631689	0.046734359
2020-04-04T18:55:00	0.2598	6.140	167.0	0.667379515	0.840947553	0.014851699	0.153222239	0.047224582
2020-04-04T19:00:00	0.2587	6.106	167.0	0.663877278	0.835621474	0.014705962	0.151718698	0.046761176
2020-04-04T19:05:00	0.2597	6.068	167.0	0.667255078	0.840758135	0.014846508	0.153168684	0.047208076
2020-04-04T19:10:00	0.2594	6.032	167.0	0.666046509	0.838919125	0.014796140	0.152649052	0.047047920
2020-04-04T19:15:00	0.2598	5.996	166.0	0.667458106	0.841067193	0.014854978	0.153256068	0.047235009
2020-04-04T19:20:00	0.2600	5.961	162.0	0.668214443	0.842218837	0.014886554	0.153581829	0.047335411
2020-04-04T19:25:00	0.2602	5.926	166.0	0.668643292	0.842872045	0.014904473	0.153766699	0.047392390
2020-04-04T19:30:00	0.2590	5.890	166.0	0.664814599	0.837045889	0.014744892	0.152120337	0.046884965
2020-04-04T19:35:00	0.2603	5.856	166.0	0.669173554	0.843679942	0.014926645	0.153995448	0.047462893
2020-04-04T19:40:00	0.2596	5.823	166.0	0.666655759	0.839846029	0.014821520	0.152910887	0.047128621
2020-04-04T19:45:00	0.2590	5.787	166.0	0.664791662	0.837011023	0.014743939	0.152110502	0.046881934
2020-04-04T19:50:00	0.2576	5.750	166.0	0.660302756	0.830196305	0.014557993	0.150192132	0.046290674
2020-04-04T19:55:00	0.2584	5.715	161.0	0.663028242	0.834331873	0.014670745	0.151355369	0.046649195
2020-04-04T20:00:00	0.2574	5.680	166.0	0.659521795	0.829012469	0.014525769	0.149859683	0.046188210
2020-04-04T20:05:00	0.2597	5.645	159.0	0.667163390	0.840618574	0.014842684	0.153129230	0.047195916
2020-04-04T20:10:00	0.2598	5.609	166.0	0.667592363	0.841271585	0.014860580	0.153313867	0.047252823
2020-04-04T20:15:00	0.2596	5.573	160.0	0.666711441	0.839930758	0.014823840	0.152934829	0.047136000
2020-04-04T20:20:00	0.2599	5.539	165.0	0.667795371	0.841580672	0.014869054	0.153401286	0.047279766
2020-04-04T20:25:00	0.2614	5.506	165.0	0.672804752	0.849218847	0.015078945	0.155566699	0.047947167
2020-04-04T20:30:00	0.2605	5.474	165.0	0.669635019	0.844383217	0.014945955	0.154194663	0.047524293
2020-04-04T20:35:00	0.2613	5.442	165.0	0.672353504	0.848529913	0.015059975	0.155370985	0.047886846
2020-04-04T20:40:00	0.2602	5.408	165.0	0.668856066	0.843196194	0.014913368	0.153858465	0.047420673
2020-04-04T20:45:00	0.2615	5.375	164.0	0.672883225	0.849338674	0.015082246	0.155600748	0.047957662
2020-04-04T20:50:00	0.2627	5.343	160.0	0.676905930	0.855488278	0.015251934	0.157351391	0.048497227
2020-04-04T20:55:00	0.2630	5.310	160.0	0.677986825	0.857143043	0.015297699	0.157823542	0.048642748
2020-04-04T21:00:00	0.2617	5.278	164.0	0.673514213	0.850302358	0.015108796	0.155874667	0.048042086
2020-04-04T21:05:00	0.2611	5.248	164.0	0.671653634	0.847461745	0.015030577	0.155067694	0.047793369
2020-04-04T21:10:00	0.2628	5.217	159.0	0.677310896	0.856108131	0.015269072	0.157528199	0.048551721
2020-04-04T21:15:00	0.2643	5.186	164.0	0.682307205	0.863767254	0.015481345	0.159718180	0.049226694
2020-04-04T21:20:00	0.2641	5.155	158.0	0.681429839	0.862420732	0.015443957	0.159332461	0.049107812
2020-04-04T21:25:00	0.2660	5.123	164.0	0.687723292	0.872094205	0.015713196	0.162110148	0.049963922
2020-04-04T21:30:00	0.2645	5.093	163.0	0.682936562	0.864733557	0.015508193	0.159995168	0.049312065
2020-04-04T21:35:00	0.2648	5.063	163.0	0.683689691	0.865890346	0.015540353	0.160326962	0.049414327
2020-04-04T21:40:00	0.2655	5.032	163.0	0.686071944	0.869552659	0.015642313	0.161378859	0.049738532
2020-04-04T21:45:00	0.2637	5.002	163.0	0.680304285	0.860694280	0.015396064	0.158838350	0.048955522
2020-04-04T21:50:00	0.2643	4.971	158.0	0.682036518	0.863351752	0.015469805	0.159599125	0.049190000
2020-04-04T21:55:00	0.2650	4.943	162.0	0.684419850	0.867012322	0.015571567	0.160648983	0.049513577
2020-04-04T22:00:00	0.2653	4.914	163.0	0.685498522	0.868670671	0.015617739	0.161125330	0.049660391
2020-04-04T22:05:00	0.2648	4.885	162.0	0.683733445	0.865957566	0.015542223	0.160346249	0.049420271
2020-04-04T22:10:00	0.2656	4.856	162.0	0.686530758	0.870258570	0.015661990	0.161581866	0.049801100
2020-04-04T22:15:00	0.2663	4.826	162.0	0.688674886	0.873559849	0.015754120	0.162532347	0.050094048
2020-04-04T22:20:00	0.2663	4.797	157.0	0.688539523	0.873351315	0.015748295	0.162472254	0.050075527
2020-04-04T22:25:00	0.2665	4.769	162.0	0.689380751	0.874647527	0.015784512	0.162845897	0.050190687
2020-04-04T22:30:00	0.2646	4.739	157.0	0.683055663	0.864916460	0.015513277	0.160047614	0.049328229
2020-04-04T22:35:00	0.2668	4.708	157.0	0.690411892	0.876237202	0.015828964	0.163304509	0.050332036
2020-04-04T22:40:00	0.2655	4.681	157.0	0.686043827	0.869509405	0.015641107	0.161366422	0.049734698
2020-04-04T22:45:00	0.2672	4.655	157.0	0.691768033	0.878329321	0.015887529	0.163908705	0.050518255
2020-04-04T22:50:00	0.2664	4.626	161.0	0.689029550	0.874106302	0.015769386	0.162689851	0.050142592
2020-04-04T22:55:00	0.2671	4.599	161.0	0.691172215	0.877409957	0.015861785	0.163643108	0.050436395
2020-04-04T23:00:00	0.2669	4.573	157.0	0.690711588	0.876699407	0.015841897	0.163437930	0.050373157
2020-04-04T23:05:00	0.2673	4.545	156.0	0.691877599	0.878498417	0.015892265	0.163957571	0.050533316
2020-04-04T23:10:00	0.2678	4.516	162.0	0.693693508	0.881302484	0.015970875	0.164768578	0.050783276
2020-04-04T23:15:00	0.2664	4.488	156.0	0.689003852	0.874066704	0.015768280	0.162678436	0.050139074
2020-04-04T23:20:00	0.2671	4.460	161.0	0.691146532	0.877370334	0.015860675	0.163631664	0.050432868
2020-04-04T23:25:00	0.2674	4.434	156.0	0.692312405	0.879169570	0.015911069	0.164151568	0.050593107
2020-04-04T23:30:00	0.2689	4.408	161.0	0.697052537	0.886496917	0.016116827	0.166274334	0.051247365
2020-04-04T23:35:00	0.2685	4.380	161.0	0.695942893	0.884779872	0.016068535	0.165776112	0.051093808
2020-04-04T23:40:00	0.2677	4.355	161.0	0.693207529	0.880551772	0.015949817	0.164551327	0.050716317
2020-04-04T23:45:00	0.2679	4.330	160.0	0.693722598	0.881347427	0.015972136	0.164781587	0.050787285
2020-04-04T23:50:00	0.2668	4.304	160.0	0.690334826	0.876118361	0.015825640	0.163270209	0.050321464
2020-04-04T23:55:00	0.2666	4.279	155.0	0.689548635	0.874906285	0.015791745	0.162920519	0.050213686
2020-04-05T00:00:00	0.2673	4.254	160.0	0.692016265	0.878712440	0.015898261	0.164019426	0.050552380
2020-04-05T00:05:00	0.2673	4.231	160.0	0.691881025	0.878503705	0.015892413	0.163959099	0.050533787
2020-04-05T00:10:00	0.2670	4.207	160.0	0.691095166	0.877291089	0.015858457	0.163608778	0.050425814
2020-04-05T00:15:00	0.2660	4.183	160.0	0.687704961	0.872065980	0.015712408	0.162102021	0.049961417
2020-04-05T00:20:00	0.2672	4.159	160.0	0.691475276	0.877877550	0.015874877	0.163778174	0.050478024
2020-04-05T00:25:00	0.2664	4.136	160.0	0.689062106	0.874156468	0.015770788	0.162704313	0.050147049
2020-04-05T00:30:00	0.2664	4.112	160.0	0.688926757	0.873947911	0.015764961	0.162644193	0.050128520
2020-04-05T00:35:00	0.2670	4.089	160.0	0.691069482	0.877251467	0.015857348	0.163597335	0.050422288
2020-04-05T00:40:00	0.2659	4.066	154.0	0.687353599	0.871525016	0.015697313	0.161946280	0.049913416
2020-04-05T00:45:00	0.2655	4.043	155.0	0.685915230	0.869311587	0.015635595	0.161309549	0.049717170
2020-04-05T00:50:00	0.2671	4.020	160.0	0.691314335	0.877629223	0.015867923	0.163706439	0.050455915
2020-04-05T00:55:00	0.2653	3.997	160.0	0.685318458	0.868393771	0.015610026	0.161045761	0.049635868
2020-04-05T01:00:00	0.2658	3.975	155.0	0.687137623	0.871192548	0.015688037	0.161850589	0.049883923
2020-04-05T01:05:00	0.2657	3.953	159.0	0.686676488	0.870482824	0.015668243	0.161646375	0.049820983
2020-04-05T01:10:00	0.2648	3.933	155.0	0.683934189	0.866265995	0.015550802	0.160434755	0.049447550
2020-04-05T01:15:00	0.2632	3.912	154.0	0.678579140	0.858050256	0.015322808	0.158082589	0.048722589
2020-04-05T01:20:00	0.2635	3.891	153.0	0.679422666	0.859342756	0.015358604	0.158451889	0.048836411
2020-04-05T01:25:00	0.2634	3.869	159.0	0.679286959	0.859134777	0.015352842	0.158392445	0.048818090
2020-04-05T01:30:00	0.2632	3.849	159.0	0.678498386	0.857926552	0.015319384	0.158047258	0.048711700
2020-04-05T01:35:00	0.2642	3.829	159.0	0.681952073	0.863222141	0.015466206	0.159561993	0.049178556
2020-04-05T01:40:00	0.2622	3.809	154.0	0.675287352	0.853012246	0.015183538	0.156645764	0.048279746
2020-04-05T01:45:00	0.2622	3.789	159.0	0.675151491	0.852804514	0.015177804	0.156586611	0.048261514
2020-04-05T01:50:00	0.2614	3.767	154.0	0.672727498	0.849100890	0.015075697	0.155533184	0.047936838
2020-04-05T01:55:00	0.2613	3.748	155.0	0.672264537	0.848394105	0.015056236	0.155332413	0.047874958
2020-04-05T02:00:00	0.2605	3.730	153.0	0.669838618	0.844693560	0.014954479	0.154282600	0.047551396
2020-04-05T02:05:00	0.2607	3.713	153.0	0.670356995	0.845483878	0.014976192	0.154506613	0.047620439
2020-04-05T02:10:00	0.2603	3.696	158.0	0.669239206	0.843779984	0.014929392	0.154023781	0.047471625
2020-04-05T02:15:00	0.2606	3.677	153.0	0.670084900	0.845069013	0.014964793	0.154389008	0.047584192
2020-04-05T02:20:00	0.2590	3.659	153.0	0.664709413	0.836886004	0.014740521	0.152075237	0.046871065
2020-04-05T02:25:00	0.2587	3.640	157.0	0.663917670	0.835682841	0.014707638	0.151735994	0.046766507
2020-04-05T02:30:00	0.2603	3.621	153.0	0.669022154	0.843449247	0.014920313	0.153930117	0.047442757
2020-04-05T02:35:00	0.2600	3.603	153.0	0.668231352	0.842244588	0.014887260	0.153589116	0.047337657
2020-04-05T02:40:00	0.2598	3.586	153.0	0.667440377	0.841040204	0.014854238	0.153248437	0.047232657
2020-04-05T02:45:00	0.2585	3.568	157.0	0.663044655	0.834356797	0.014671425	0.151362389	0.046651358
2020-04-05T02:50:00	0.2603	3.549	153.0	0.669132406	0.843617240	0.014924924	0.153977690	0.047457419
2020-04-05T02:55:00	0.2595	3.533	156.0	0.666376857	0.839421672	0.014809899	0.152790995	0.047091669
2020-04-05T03:00:00	0.2597	3.516	153.0	0.667223218	0.840709638	0.014845179	0.153154974	0.047203850
2020-04-05T03:05:00	0.2587	3.500	153.0	0.663810712	0.835520345	0.014703199	0.151690196	0.046752392
2020-04-05T03:10:00	0.2593	3.484	153.0	0.665968258	0.838800099	0.014792882	0.152615440	0.047037561
2020-04-05T03:15:00	0.2590	3.469	157.0	0.664849116	0.837098358	0.014746327	0.152135138	0.046889527
2020-04-05T03:20:00	0.2582	3.453	157.0	0.662090310	0.832907966	0.014631892	0.150954529	0.046525652
2020-04-05T03:25:00	0.2590	3.438	152.0	0.664904306	0.837182253	0.014748621	0.152158805	0.046896821
2020-04-05T03:30:00	0.2588	3.424	157.0	0.664112605	0.835979023	0.014715731	0.151819483	0.046792239
2020-04-05T03:35:00	0.2588	3.411	152.0	0.664304079	0.836269975	0.014723682	0.151901512	0.046817521
2020-04-05T03:40:00	0.2584	3.396	157.0	0.662856569	0.834071194	0.014663629	0.151281961	0.046626569
2020-04-05T03:45:00	0.2597	3.381	152.0	0.666980191	0.840339745	0.014835044	0.153050413	0.047171624
2020-04-05T03:50:00	0.2597	3.367	151.0	0.667171513	0.840630938	0.014843022	0.153132725	0.047196993
2020-04-05T03:55:00	0.2599	3.353	152.0	0.667690271	0.841420649	0.014864667	0.153356025	0.047265816
2020-04-05T04:00:00	0.2616	3.338	151.0	0.673443343	0.850194105	0.015105813	0.155843889	0.048032600
2020-04-05T04:05:00	0.2611	3.323	157.0	0.671802554	0.847688997	0.015036830	0.155132202	0.047813251
2020-04-05T04:10:00	0.2626	3.309	157.0	0.676699323	0.855172094	0.015243194	0.157261227	0.048469438
2020-04-05T04:15:00	0.2634	3.295	157.0	0.679305517	0.859163217	0.015353630	0.158400573	0.048820595
2020-04-05T04:20:00	0.2642	3.282	151.0	0.681909849	0.863157336	0.015464406	0.159543428	0.049172834
2020-04-05T04:25:00	0.2631	3.270	157.0	0.678314537	0.857644942	0.015311589	0.157966838	0.048686914
2020-04-05T04:30:00	0.2637	3.260	151.0	0.680267031	0.860637157	0.015394480	0.158822010	0.048950486
2020-04-05T04:35:00	0.2636	3.249	157.0	0.679934875	0.860127893	0.015380362	0.158676357	0.048905594
2020-04-05T04:40:00	0.2639	3.240	157.0	0.680907900	0.861620011	0.015421738	0.159103233	0.049037162
2020-04-05T04:45:00	0.2649	3.232	156.0	0.684163054	0.866617672	0.015560585	0.160535690	0.049478659
2020-04-05T04:50:00	0.2657	3.223	157.0	0.686763924	0.870617380	0.015671995	0.161685085	0.049832914
2020-04-05T04:55:00	0.2671	3.215	156.0	0.691315366	0.877630815	0.015867968	0.163706899	0.050456056
2020-04-05T05:00:00	0.2671	3.207	156.0	0.691309545	0.877621832	0.015867716	0.163704305	0.050455257
2020-04-05T05:05:00	0.2679	3.200	156.0	0.693905342	0.881629777	0.015980059	0.164863323	0.050812477
2020-04-05T05:10:00	0.2683	3.194	156.0	0.695199643	0.883630377	0.016036231	0.165442840	0.050991090
2020-04-05T05:15:00	0.2690	3.188	156.0	0.697467932	0.887139968	0.016134925	0.166461047	0.051304911
2020-04-05T05:20:00	0.2700	3.184	156.0	0.700708404	0.892161507	0.016276474	0.167921386	0.051755002
2020-04-05T05:25:00	0.2682	3.179	156.0	0.694857208	0.883100934	0.016021359	0.165289412	0.050943802
2020-04-05T05:30:00	0.2716	3.175	156.0	0.705884906	0.900202106	0.016503951	0.170268222	0.052478320
2020-04-05T05:35:00	0.2714	3.171	156.0	0.705230992	0.899185102	0.016475123	0.169970809	0.052386654
2020-04-05T05:40:00	0.2709	3.168	151.0	0.703604401	0.896656954	0.016403530	0.169232199	0.052159007
2020-04-05T05:45:00	0.2735	3.167	157.0	0.712018951	0.909760232	0.016775673	0.173071529	0.053342326
2020-04-05T05:50:00	0.2724	3.165	156.0	0.708453047	0.904199818	0.016617427	0.171438928	0.052839143
2020-04-05T05:55:00	0.2734	3.163	156.0	0.711683868	0.909237255	0.016760769	0.172917766	0.053294935
2020-04-05T06:00:00	0.2737	3.163	156.0	0.712648511	0.910743074	0.016803694	0.173360617	0.053431426
2020-04-05T06:05:00	0.2749	3.164	157.0	0.716521913	0.916797671	0.016976642	0.175144888	0.053981355
2020-04-05T06:10:00	0.2740	3.165	157.0	0.713607116	0.912240270	0.016846409	0.173801292	0.053567246
2020-04-05T06:15:00	0.2745	3.167	156.0	0.715217734	0.914757619	0.016918305	0.174543038	0.053795859
2020-04-05T06:20:00	0.2748	3.170	156.0	0.716181455	0.916264969	0.016961403	0.174987668	0.053932899
2020-04-05T06:25:00	0.2750	3.173	156.0	0.716821869	0.917267086	0.016990074	0.175283466	0.054024067
2020-04-05T06:30:00	0.2734	3.177	156.0	0.711643340	0.909174010	0.016758967	0.172899174	0.053289204
2020-04-05T06:35:00	0.2744	3.183	157.0	0.714871371	0.914216073	0.016902830	0.174383384	0.053746653
2020-04-05T06:40:00	0.2737	3.189	157.0	0.712602206	0.910670773	0.016801633	0.173339345	0.053424870
2020-04-05T06:45:00	0.2748	3.196	156.0	0.716152542	0.916219735	0.016960109	0.174974319	0.053928785
2020-04-05T06:50:00	0.2737	3.204	156.0	0.712590630	0.910652698	0.016801117	0.173334028	0.053423231
2020-04-05T06:55:00	0.2746	3.214	151.0	0.715494662	0.915190677	0.016930684	0.174670742	0.053835219
2020-04-05T07:00:00	0.2736	3.226	157.0	0.712255598	0.910129635	0.016786203	0.173180165	0.053375809
2020-04-05T07:05:00	0.2747	3.239	151.0	0.715806267	0.915678044	0.016944618	0.174814497	0.053879526
2020-04-05T07:10:00	0.2756	3.254	157.0	0.718707776	0.920220223	0.017074657	0.176156084	0.054293016
2020-04-05T07:15:00	0.2762	3.276	151.0	0.720638926	0.923247430	0.017161499	0.177052025	0.054569154
2020-04-05T07:20:00	0.2755	3.299	152.0	0.718373298	0.919696238	0.017059639	0.176001152	0.054245264
2020-04-05T07:25:00	0.2759	3.323	152.0	0.719659034	0.921710977	0.017117405	0.176597110	0.054428944
2020-04-05T07:30:00	0.2776	3.349	152.0	0.725137189	0.930311411	0.017364693	0.179148336	0.055215257
2020-04-05T07:35:00	0.2778	3.379	152.0	0.725776057	0.931316113	0.017393655	0.179447131	0.055307349
2020-04-05T07:40:00	0.2774	3.418	152.0	0.724480902	0.929279687	0.017334968	0.178841670	0.055120740
2020-04-05T07:45:00	0.2779	3.456	153.0	0.726409049	0.932311927	0.017422376	0.179743440	0.055398674
2020-04-05T07:50:00	0.2776	3.497	157.0	0.725436448	0.930781990	0.017378256	0.179288265	0.055258385
2020-04-05T07:55:00	0.2787	3.545	153.0	0.728974513	0.936351477	0.017539038	0.180947023	0.055769630
2020-04-05T08:00:00	0.2775	3.601	156.0	0.725102577	0.930256990	0.017363125	0.179132156	0.055210270
2020-04-05T08:05:00	0.2773	3.654	153.0	0.724452054	0.929234345	0.017333662	0.178828197	0.055116587
2020-04-05T08:10:00	0.2779	3.709	153.0	0.726380216	0.932266560	0.017421067	0.179729937	0.055394512
2020-04-05T08:15:00	0.2779	3.771	159.0	0.726374449	0.932257486	0.017420805	0.179727237	0.055393680
2020-04-05T08:20:00	0.2796	3.829	159.0	0.731842710	0.940874545	0.017669958	0.182297704	0.056185923
2020-04-05T08:25:00	0.2804	3.889	159.0	0.734410183	0.944929508	0.017787593	0.183511316	0.056559970
2020-04-05T08:30:00	0.2790	3.947	159.0	0.729900098	0.937810311	0.017581230	0.181382311	0.055903790
2020-04-05T08:35:00	0.2795	4.013	155.0	0.731503655	0.940339489	0.017654455	0.182137758	0.056136626
2020-04-05T08:40:00	0.2777	4.078	160.0	0.725701078	0.931198180	0.017390255	0.179412050	0.055296536
2020-04-05T08:45:00	0.2780	4.150	160.0	0.726662076	0.932710085	0.017433864	0.179861957	0.055435202
2020-04-05T08:50:00	0.2799	4.226	161.0	0.732773338	0.942343673	0.017712549	0.182737104	0.056321350
2020-04-05T08:55:00	0.2789	4.302	156.0	0.729549343	0.937257390	0.017565235	0.181217290	0.055852929
2020-04-05T09:00:00	0.2782	4.384	162.0	0.727289152	0.933697077	0.017462351	0.180155856	0.055525785
2020-04-05T09:05:00	0.2805	4.464	161.0	0.734685682	0.945364965	0.017800240	0.183641797	0.056600185
2020-04-05T09:10:00	0.2806	4.545	157.0	0.735001434	0.945864127	0.017814741	0.183791402	0.056646295
2020-04-05T09:15:00	0.2797	4.636	162.0	0.732101125	0.941282414	0.017681779	0.182419659	0.056223511
2020-04-05T09:20:00	0.2797	4.733	158.0	0.732095368	0.941273326	0.017681516	0.182416941	0.056222673
2020-04-05T09:25:00	0.2794	4.833	163.0	0.731124255	0.939740883	0.017637115	0.181958869	0.056081490
2020-04-05T09:30:00	0.2777	4.933	163.0	0.725643401	0.931107464	0.017387639	0.179385067	0.055288220
2020-04-05T09:35:00	0.2788	5.030	163.0	0.729181268	0.936677283	0.017548458	0.181044208	0.055799583
2020-04-05T09:40:00	0.2782	5.120	164.0	0.727243030	0.933624471	0.017460255	0.180134231	0.055519119
2020-04-05T09:45:00	0.2779	5.200	164.0	0.726270648	0.932094167	0.017416094	0.179678631	0.055378699
2020-04-05T09:50:00	0.2766	5.278	164.0	0.722073292	0.925498005	0.017226154	0.177719052	0.054774738
2020-04-05T09:55:00	0.2761	5.351	165.0	0.720454104	0.922957567	0.017153178	0.176966173	0.054542693
2020-04-05T10:00:00	0.2771	5.421	165.0	0.723674460	0.928012428	0.017298479	0.178465224	0.055004715
2020-04-05T10:05:00	0.2776	5.495	166.0	0.725138029	0.930312731	0.017364731	0.179148729	0.055215378
2020-04-05T10:10:00	0.2770	5.583	166.0	0.723377433	0.927545816	0.017285050	0.178326678	0.054962014
2020-04-05T10:15:00	0.2762	5.678	166.0	0.720647919	0.923261534	0.017161904	0.177056202	0.054570441
2020-04-05T10:20:00	0.2758	5.778	167.0	0.719530912	0.921510145	0.017111644	0.176537676	0.054410626
2020-04-05T10:25:00	0.2751	5.880	162.0	0.717121618	0.917736254	0.017003503	0.175422008	0.054066766
2020-04-05T10:30:00	0.2739	5.985	167.0	0.713417510	0.911944070	0.016837955	0.173714082	0.053540367
2020-04-05T10:35:00	0.2740	6.092	168.0	0.713591953	0.912216583	0.016845733	0.173794317	0.053565096
2020-04-05T10:40:00	0.2730	6.199	168.0	0.710531600	0.907439617	0.016709571	0.172389567	0.053132139
2020-04-05T10:45:00	0.2728	6.305	169.0	0.709735237	0.906197897	0.016674236	0.172025016	0.053019781
2020-04-05T10:50:00	0.2725	6.420	169.0	0.708938701	0.904956461	0.016638932	0.171660795	0.052907524
2020-04-05T10:55:00	0.2724	6.538	169.0	0.708465810	0.904219700	0.016617992	0.171444757	0.052840939
2020-04-05T11:00:00	0.2713	6.660	170.0	0.705077113	0.898945835	0.016468343	0.169900862	0.052365096
2020-04-05T11:05:00	0.2722	6.787	170.0	0.707843716	0.903250779	0.016590466	0.171160775	0.052753413
2020-04-05T11:10:00	0.2724	6.915	171.0	0.708342250	0.904027227	0.016612523	0.171388333	0.052823549
2020-04-05T11:15:00	0.2720	7.045	172.0	0.707221517	0.902282032	0.016562959	0.170876995	0.052665949
2020-04-05T11:20:00	0.2729	7.184	172.0	0.709986511	0.906589633	0.016685381	0.172139998	0.053055219
2020-04-05T11:25:00	0.2714	7.320	173.0	0.705303120	0.899297263	0.016478302	0.170003601	0.052396761
2020-04-05T11:30:00	0.2717	7.463	173.0	0.706126021	0.900577194	0.016514587	0.170377955	0.052512140
2020-04-05T11:35:00	0.2711	7.604	174.0	0.704356343	0.897825383	0.016436606	0.169573433	0.052264179
2020-04-05T11:40:00	0.2711	7.733	174.0	0.704207054	0.897593366	0.016430036	0.169505656	0.052243289
2020-04-05T11:45:00	0.2705	7.852	175.0	0.702436453	0.894843075	0.016352226	0.168702902	0.051995873
2020-04-05T11:50:00	0.2712	7.968	175.0	0.704556805	0.898136961	0.016445429	0.169664465	0.052292236
2020-04-05T11:55:00	0.2718	8.074	176.0	0.706675937	0.901432858	0.016538860	0.170628366	0.052589320
2020-04-05T12:00:00	0.2724	8.170	176.0	0.708470064	0.904226327	0.016618180	0.171446700	0.052841538
2020-04-05T12:05:00	0.2712	8.259	176.0	0.704757257	0.898448557	0.016454255	0.169755517	0.052320299
2020-04-05T12:10:00	0.2693	8.345	177.0	0.698444139	0.888651771	0.016177499	0.166900271	0.051440284
2020-04-05T12:15:00	0.2688	8.432	177.0	0.696670759	0.885906041	0.016100203	0.166102829	0.051194505
2020-04-05T12:20:00	0.2701	8.514	177.0	0.701066316	0.892716698	0.016292149	0.168083096	0.051804842
2020-04-05T12:25:00	0.2696	8.588	177.0	0.699294202	0.889968894	0.016214619	0.167283237	0.051558318
2020-04-05T12:30:00	0.2677	8.648	178.0	0.693296835	0.880689711	0.015953686	0.164591238	0.050728618
2020-04-05T12:35:00	0.2687	8.707	178.0	0.696397196	0.885482725	0.016088297	0.165979995	0.051156646
2020-04-05T12:40:00	0.2683	8.752	178.0	0.695272816	0.883743522	0.016039410	0.165475635	0.051001198
2020-04-05T12:45:00	0.2688	8.789	178.0	0.696747692	0.886025099	0.016103552	0.166137382	0.051205155
2020-04-05T12:50:00	0.2684	8.814	178.0	0.695623419	0.884285721	0.016054645	0.165632817	0.051049643
2020-04-05T12:55:00	0.2698	8.835	178.0	0.700020228	0.891094326	0.016246359	0.167610691	0.051659243
2020-04-05T13:00:00	0.2690	8.844	178.0	0.697598147	0.887341578	0.016140600	0.166519599	0.051322958
2020-04-05T13:05:00	0.2698	8.849	178.0	0.700045849	0.891134050	0.016247480	0.167622253	0.051662806
2020-04-05T13:10:00	0.2691	8.851	178.0	0.697623785	0.887381275	0.016141718	0.166531128	0.051326511
2020-04-05T13:15:00	0.2681	8.842	178.0	0.694550120	0.882626228	0.016008029	0.165151885	0.050901415
2020-04-05T13:20:00	0.2677	8.814	178.0	0.693100029	0.880385739	0.015945161	0.164503290	0.050701512
2020-04-05T13:25:00	0.2684	8.781	178.0	0.695550732	0.884173304	0.016051486	0.165600223	0.051039597
2020-04-05T13:30:00	0.2678	8.747	178.0	0.693450840	0.880927599	0.015960359	0.164660077	0.050749835
2020-04-05T13:35:00	0.2668	8.715	178.0	0.690373673	0.876178264	0.015827316	0.163287498	0.050326793
2020-04-05T13:40:00	0.2679	8.683	178.0	0.693801617	0.881469513	0.015975562	0.164816927	0.050798178
2020-04-05T13:45:00	0.2689	8.649	177.0	0.697226359	0.886765985	0.016124399	0.166352451	0.051271441
2020-04-05T13:50:00	0.2672	8.622	177.0	0.691550918	0.877994270	0.015878145	0.163811895	0.050488417
2020-04-05T13:55:00	0.2664	8.594	177.0	0.689123234	0.874250665	0.015773420	0.162731469	0.050155419
2020-04-05T14:00:00	0.2682	8.562	177.0	0.694828091	0.883055920	0.016020095	0.165276369	0.050939782
2020-04-05T14:05:00	0.2688	8.529	177.0	0.696952838	0.886342601	0.016112485	0.166229537	0.051233558
2020-04-05T14:10:00	0.2681	8.502	177.0	0.694528731	0.882593167	0.016007101	0.165142308	0.050898463
2020-04-05T14:15:00	0.2678	8.477	177.0	0.693403777	0.880854900	0.015958319	0.164639039	0.050743351
2020-04-05T14:20:00	0.2672	8.459	177.0	0.691627958	0.878113153	0.015881474	0.163846243	0.050499003
2020-04-05T14:25:00	0.2669	8.441	177.0	0.690502113	0.876376337	0.015832857	0.163344668	0.050344413
2020-04-05T14:30:00	0.2678	8.421	177.0	0.693604838	0.881165497	0.015967032	0.164728928	0.050771055
2020-04-05T14:35:00	0.2672	8.397	177.0	0.691503831	0.877921611	0.015876110	0.163790904	0.050481947
2020-04-05T14:40:00	0.2668	8.378	177.0	0.690377948	0.876184857	0.015827500	0.163289401	0.050327379
2020-04-05T14:45:00	0.2648	8.360	176.0	0.683714023	0.865927728	0.015541393	0.160337688	0.049417633
2020-04-05T14:50:00	0.2643	8.341	177.0	0.682259629	0.863694221	0.015479316	0.159697252	0.049220244
2020-04-05T14:55:00	0.2649	8.327	176.0	0.684065735	0.866468126	0.015556425	0.160492766	0.049465429
2020-04-05T15:00:00	0.2658	8.306	176.0	0.687173922	0.871248422	0.015689596	0.161866669	0.049888879
2020-04-05T15:05:00	0.2657	8.286	176.0	0.686698218	0.870516264	0.015669175	0.161655995	0.049823948
2020-04-05T15:10:00	0.2662	8.272	176.0	0.688502132	0.873293715	0.015746686	0.162455657	0.050070411
2020-04-05T15:15:00	0.2662	8.256	176.0	0.688352196	0.873062755	0.015740236	0.162389113	0.050049902
2020-04-05T15:20:00	0.2654	8.240	176.0	0.685596577	0.868821471	0.015621939	0.161168668	0.049673749
2020-04-05T15:25:00	0.2652	8.221	176.0	0.685120669	0.868089646	0.015601557	0.160958383	0.049608937
2020-04-05T15:30:00	0.2642	8.202	176.0	0.681710323	0.862851128	0.015455905	0.159455718	0.049145801
2020-04-05T15:35:00	0.2642	8.177	176.0	0.681886280	0.863121164	0.015463402	0.159533066	0.049169640
2020-04-05T15:40:00	0.2636	8.155	176.0	0.679778525	0.859888209	0.015373719	0.158607821	0.048884471
2020-04-05T15:45:00	0.2646	8.136	176.0	0.683216414	0.865163346	0.015520139	0.160118416	0.049350051
2020-04-05T15:50:00	0.2646	8.114	176.0	0.683066261	0.864932737	0.015513729	0.160052282	0.049329668
2020-04-05T15:55:00	0.2641	8.095	176.0	0.681611609	0.862699647	0.015451699	0.159412333	0.049132429
2020-04-05T16:00:00	0.2639	8.076	175.0	0.680808942	0.861468224	0.015417528	0.159059792	0.049023773
2020-04-05T16:05:00	0.2632	8.055	175.0	0.678657268	0.858169942	0.015326122	0.158116775	0.048733126
2020-04-05T16:10:00	0.2639	8.038	175.0	0.680748155	0.861374989	0.015414941	0.159033110	0.049015549
2020-04-05T16:15:00	0.2632	8.021	175.0	0.678596444	0.858076765	0.015323542	0.158090161	0.048724923
2020-04-05T16:20:00	0.2640	8.002	175.0	0.681339837	0.862282641	0.015440125	0.159292921	0.049095625
2020-04-05T16:25:00	0.2654	7.982	175.0	0.685710609	0.868996852	0.015626825	0.161219076	0.049689285
2020-04-05T16:30:00	0.2654	7.962	175.0	0.685843162	0.869200732	0.015632506	0.161277681	0.049707348
2020-04-05T16:35:00	0.2651	7.939	175.0	0.684672309	0.867400363	0.015582367	0.160760403	0.049547918
2020-04-05T16:40:00	0.2660	7.917	175.0	0.687736791	0.872114991	0.015713776	0.162116133	0.049965767
2020-04-05T16:45:00	0.2654	7.895	175.0	0.685589197	0.868810120	0.015621623	0.161165406	0.049672743
2020-04-05T16:50:00	0.2660	7.868	175.0	0.687676119	0.872021569	0.015711169	0.162089233	0.049957476
2020-04-05T16:55:00	0.2662	7.839	175.0	0.688459800	0.873228505	0.015744865	0.162436868	0.050064620
2020-04-05T17:00:00	0.2657	7.809	175.0	0.686638377	0.870424176	0.015666608	0.161629504	0.049815783
2020-04-05T17:05:00	0.2666	7.778	175.0	0.689701212	0.875141473	0.015798320	0.162988353	0.050234593
2020-04-05T17:10:00	0.2657	7.745	175.0	0.686577687	0.870330785	0.015664004	0.161602639	0.049807503
2020-04-05T17:15:00	0.2668	7.711	175.0	0.690291446	0.876051468	0.015823769	0.163250904	0.050315514
2020-04-05T17:20:00	0.2661	7.676	174.0	0.688145352	0.872744164	0.015731340	0.162297334	0.050021615
2020-04-05T17:25:00	0.2663	7.638	174.0	0.688603389	0.873449702	0.015751043	0.162500605	0.050084265
2020-04-05T17:30:00	0.2668	7.601	174.0	0.690363205	0.876162123	0.015826864	0.163282840	0.050325357
2020-04-05T17:35:00	0.2669	7.564	174.0	0.690495590	0.876366277	0.015832576	0.163341764	0.050343518
2020-04-05T17:40:00	0.2669	7.525	174.0	0.690627969	0.876570438	0.015838288	0.163400698	0.050361682
2020-04-05T17:45:00	0.2670	7.487	174.0	0.691085696	0.877276480	0.015858048	0.163604559	0.050424514
2020-04-05T17:50:00	0.2672	7.448	174.0	0.691543365	0.877982615	0.015877819	0.163808528	0.050487379
2020-04-05T17:55:00	0.2682	7.408	173.0	0.694927111	0.883209004	0.016024395	0.165320726	0.050953453
2020-04-05T18:00:00	0.2685	7.369	173.0	0.695709243	0.884418462	0.016058376	0.165671305	0.051061505
2020-04-05T18:05:00	0.2672	7.328	173.0	0.691615099	0.878093310	0.015880919	0.163840510	0.050497236
2020-04-05T18:10:00	0.2677	7.287	173.0	0.693373470	0.880808085	0.015957006	0.164625492	0.050739175
2020-04-05T18:15:00	0.2696	7.249	173.0	0.699353285	0.890060463	0.016217201	0.167309872	0.051566528
2020-04-05T18:20:00	0.2687	7.212	172.0	0.696562845	0.885739045	0.016095506	0.166054368	0.051179569
2020-04-05T18:25:00	0.2698	7.174	172.0	0.699941967	0.890972990	0.016242936	0.167575377	0.051648359
2020-04-05T18:30:00	0.2711	7.136	172.0	0.704290621	0.897723239	0.016433714	0.169543593	0.052254982
2020-04-05T18:35:00	0.2713	7.098	172.0	0.705070762	0.898935961	0.016468064	0.169897975	0.052364206
2020-04-05T18:40:00	0.2718	7.060	172.0	0.706498744	0.901157119	0.016531037	0.170547658	0.052564444
2020-04-05T18:45:00	0.2734	7.020	171.0	0.711810320	0.909434602	0.016766393	0.172975784	0.053312816
2020-04-05T18:50:00	0.2725	6.982	171.0	0.708705545	0.904593181	0.016628606	0.171554261	0.052874689
2020-04-05T18:55:00	0.2709	6.944	171.0	0.703653316	0.896732947	0.016405681	0.169254386	0.052165845
2020-04-05T19:00:00	0.2722	6.908	171.0	0.707997589	0.903490408	0.016597272	0.171230994	0.052775055
2020-04-05T19:05:00	0.2715	6.870	171.0	0.705537776	0.899662184	0.016488645	0.170110306	0.052429648
2020-04-05T19:10:00	0.2704	6.834	171.0	0.702103362	0.894325987	0.016337610	0.168552112	0.051949398
2020-04-05T19:15:00	0.2716	6.798	171.0	0.705801448	0.900072287	0.016500270	0.170230248	0.052466616
2020-04-05T19:20:00	0.2716	6.759	171.0	0.705933277	0.900277349	0.016506085	0.170290233	0.052485104
2020-04-05T19:25:00	0.2712	6.719	170.0	0.704444680	0.897962680	0.016440494	0.169613544	0.052276542
2020-04-05T19:30:00	0.2726	6.681	170.0	0.709111780	0.905226165	0.016646600	0.171739902	0.052931906
2020-04-05T19:35:00	0.2711	6.642	170.0	0.704384283	0.897868809	0.016437836	0.169586119	0.052268089
2020-04-05T19:40:00	0.2715	6.606	170.0	0.705488483	0.899585522	0.016486472	0.170087888	0.052422739
2020-04-05T19:45:00	0.2719	6.570	170.0	0.706916303	0.901806946	0.016549475	0.170737881	0.052623073
2020-04-05T19:50:00	0.2707	6.534	170.0	0.702834638	0.895461342	0.016369708	0.168883255	0.052051459
2020-04-05T19:55:00	0.2713	6.498	170.0	0.704911774	0.898688772	0.016461060	0.169825722	0.052341937
2020-04-05T20:00:00	0.2709	6.462	170.0	0.703746995	0.896878489	0.016409800	0.169296880	0.052178943
2020-04-05T20:05:00	0.2717	6.429	169.0	0.706147636	0.900610822	0.016515541	0.170387794	0.052515173
2020-04-05T20:10:00	0.2716	6.393	170.0	0.705955444	0.900311832	0.016507062	0.170300320	0.052488213
2020-04-05T20:15:00	0.2719	6.361	170.0	0.706735232	0.901525135	0.016541478	0.170655378	0.052597645
2020-04-05T20:20:00	0.2715	6.328	170.0	0.705571030	0.899713902	0.016490111	0.170125430	0.052434310
2020-04-05T20:25:00	0.2726	6.293	169.0	0.709265637	0.905465938	0.016653418	0.171810239	0.052953584
2020-04-05T20:30:00	0.2725	6.259	169.0	0.708749845	0.904662201	0.016630568	0.171574500	0.052880927
2020-04-05T20:35:00	0.2729	6.223	169.0	0.710176403	0.906885712	0.016693806	0.172226918	0.053082009
2020-04-05T20:40:00	0.2718	6.188	169.0	0.706422346	0.901038240	0.016527664	0.170512866	0.052553721
2020-04-05T20:45:00	0.2717	6.153	169.0	0.706230168	0.900739226	0.016519183	0.170425365	0.052526753
2020-04-05T20:50:00	0.2714	6.120	169.0	0.705389893	0.899432200	0.016482126	0.170043055	0.052408921
2020-04-05T20:55:00	0.2713	6.088	168.0	0.704873558	0.898629359	0.016459377	0.169808358	0.052336585
2020-04-05T21:00:00	0.2713	6.056	169.0	0.705005420	0.898834368	0.016465185	0.169868279	0.052355053
2020-04-05T21:05:00	0.2708	6.026	168.0	0.703192196	0.896016644	0.016385414	0.169045294	0.052101401
2020-04-05T21:10:00	0.2716	5.996	168.0	0.705917239	0.900252401	0.016505377	0.170282935	0.052482854
2020-04-05T21:15:00	0.2717	5.967	169.0	0.706373064	0.900961558	0.016525489	0.170490425	0.052546805
2020-04-05T21:20:00	0.2710	5.938	168.0	0.703912166	0.897135124	0.016417064	0.169371820	0.052202040
2020-04-05T21:25:00	0.2710	5.908	168.0	0.704044062	0.897340076	0.016422865	0.169431674	0.052220488
2020-04-05T21:30:00	0.2726	5.876	168.0	0.709035436	0.905107196	0.016643217	0.171705006	0.052921150
2020-04-05T21:35:00	0.2703	5.845	168.0	0.701713586	0.893721022	0.016320515	0.168375749	0.051895041
2020-04-05T21:40:00	0.2694	5.813	168.0	0.698600282	0.888893658	0.016184314	0.166970581	0.051461955
2020-04-05T21:45:00	0.2709	5.782	167.0	0.703599039	0.896648624	0.016403295	0.169229767	0.052158258
2020-04-05T21:50:00	0.2691	5.752	167.0	0.697890379	0.887794089	0.016153341	0.166651043	0.051363470
2020-04-05T21:55:00	0.2687	5.723	167.0	0.696398521	0.885484775	0.016088355	0.165980590	0.051156830
2020-04-05T22:00:00	0.2684	5.694	167.0	0.695555995	0.884181443	0.016051715	0.165602583	0.051040324
2020-04-05T22:05:00	0.2691	5.666	167.0	0.697875851	0.887771591	0.016152708	0.166644507	0.051361455
2020-04-05T22:10:00	0.2690	5.638	167.0	0.697597080	0.887339927	0.016140554	0.166519119	0.051322810
2020-04-05T22:15:00	0.2691	5.607	167.0	0.697643059	0.887411118	0.016142558	0.166539797	0.051329183
2020-04-05T22:20:00	0.2685	5.577	167.0	0.695740009	0.884466049	0.016059714	0.165685104	0.051065758
2020-04-05T22:25:00	0.2687	5.545	167.0	0.696435794	0.885542448	0.016089977	0.165997323	0.051161987
2020-04-05T22:30:00	0.2682	5.517	167.0	0.694857135	0.883100821	0.016021356	0.165289379	0.050943792
2020-04-05T22:35:00	0.2675	5.490	167.0	0.692627452	0.879655970	0.015924701	0.164292208	0.050636454
2020-04-05T22:40:00	0.2676	5.464	167.0	0.692998675	0.880229209	0.015940772	0.164458008	0.050687555
2020-04-05T22:45:00	0.2674	5.439	167.0	0.692394328	0.879296042	0.015914613	0.164188133	0.050604377
2020-04-05T22:50:00	0.2664	5.416	166.0	0.688861237	0.873846959	0.015762140	0.162615095	0.050119551
2020-04-05T22:55:00	0.2668	5.392	161.0	0.690209218	0.875924674	0.015820222	0.163214313	0.050304237
2020-04-05T23:00:00	0.2673	5.368	161.0	0.691881983	0.878505184	0.015892455	0.163959526	0.050533918
2020-04-05T23:05:00	0.2666	5.345	161.0	0.689650489	0.875063284	0.015796134	0.162965800	0.050227642
2020-04-05T23:10:00	0.2660	5.322	166.0	0.687743282	0.872124986	0.015714055	0.162119011	0.049966654
2020-04-05T23:15:00	0.2650	5.300	161.0	0.684531630	0.867184126	0.015576348	0.160698311	0.049528780
2020-04-05T23:20:00	0.2648	5.279	166.0	0.683925882	0.866253231	0.015550447	0.160431092	0.049446421
2020-04-05T23:25:00	0.2641	5.257	166.0	0.681363335	0.862318694	0.015441125	0.159303244	0.049098807
2020-04-05T23:30:00	0.2633	5.236	166.0	0.678798987	0.858387060	0.015332134	0.158178796	0.048752241
2020-04-05T23:35:00	0.2630	5.216	165.0	0.677865784	0.856957688	0.015292571	0.157770633	0.048626441
2020-04-05T23:40:00	0.2620	5.195	165.0	0.674645420	0.852030869	0.015156457	0.156366372	0.048193634
2020-04-05T23:45:00	0.2602	5.174	165.0	0.668804496	0.843117626	0.014911212	0.153836221	0.047413817
2020-04-05T23:50:00	0.2599	5.152	161.0	0.667868724	0.841692364	0.014872116	0.153432880	0.047289504
2020-04-05T23:55:00	0.2577	5.132	161.0	0.660704860	0.830806045	0.014574599	0.150363454	0.046343477
2020-04-06T00:00:00	0.2585	5.109	166.0	0.663046994	0.834360350	0.014671522	0.151363389	0.046651667
2020-04-06T00:05:00	0.2580	5.087	165.0	0.661453803	0.831942093	0.014605556	0.150682826	0.046441910
2020-04-06T00:10:00	0.2574	5.064	165.0	0.659531756	0.829027566	0.014526180	0.149863921	0.046189516
2020-04-06T00:15:00	0.2565	5.044	165.0	0.656623519	0.824623624	0.014406507	0.148629280	0.045808988
2020-04-06T00:20:00	0.2569	5.022	165.0	0.657983499	0.826682140	0.014462405	0.149205971	0.045986729
2020-04-06T00:25:00	0.2554	5.000	165.0	0.653102027	0.819300704	0.014262292	0.147141437	0.045350420
2020-04-06T00:30:00	0.2550	4.978	164.0	0.651833331	0.817385597	0.014210521	0.146607325	0.045185801
2020-04-06T00:35:00	0.2543	4.954	164.0	0.649248005	0.813487275	0.014105327	0.145522057	0.044851311
2020-04-06T00:40:00	0.2543	4.932	165.0	0.649294599	0.813557483	0.014107219	0.145541579	0.044857328
2020-04-06T00:45:00	0.2539	4.909	165.0	0.648024562	0.811644476	0.014055688	0.145009947	0.044693474
2020-04-06T00:50:00	0.2542	4.887	160.0	0.649058677	0.813202019	0.014097639	0.145442747	0.044826867
2020-04-06T00:55:00	0.2530	4.867	164.0	0.645153678	0.807325238	0.013939567	0.143811945	0.044324238
2020-04-06T01:00:00	0.2530	4.848	164.0	0.645200325	0.807395362	0.013941450	0.143831369	0.044330225
2020-04-06T01:05:00	0.2520	4.835	164.0	0.641950742	0.802514706	0.013810607	0.142481490	0.043914179
2020-04-06T01:10:00	0.2517	4.823	159.0	0.640678110	0.800605743	0.013759541	0.141954644	0.043751800
2020-04-06T01:15:00	0.2516	4.818	160.0	0.640394913	0.800181133	0.013748190	0.141837544	0.043715708
2020-04-06T01:20:00	0.2512	4.814	160.0	0.639121729	0.798273025	0.013697222	0.141311711	0.043553642
2020-04-06T01:25:00	0.2491	4.812	165.0	0.632231127	0.787970018	0.013423082	0.138483465	0.042681949
2020-04-06T01:30:00	0.2510	4.811	160.0	0.638555068	0.797424220	0.013674569	0.141078003	0.043481611
2020-04-06T01:35:00	0.2514	4.807	165.0	0.639921885	0.799472050	0.013729242	0.141642062	0.043655459
2020-04-06T01:40:00	0.2489	4.803	159.0	0.631710199	0.787192749	0.013402474	0.138270857	0.042616421
2020-04-06T01:45:00	0.2500	4.799	159.0	0.635062622	0.792198870	0.013535383	0.139642055	0.043039038
2020-04-06T01:50:00	0.2505	4.793	165.0	0.636761036	0.794738722	0.013602978	0.140339419	0.043253972
2020-04-06T01:55:00	0.2513	4.788	165.0	0.639448795	0.798763064	0.013710305	0.141446694	0.043595245
2020-04-06T02:00:00	0.2517	4.785	165.0	0.640815272	0.800811422	0.013765040	0.142011377	0.043769286
2020-04-06T02:05:00	0.2509	4.782	165.0	0.638222013	0.796925461	0.013661263	0.140940736	0.043439304
2020-04-06T02:10:00	0.2502	4.780	160.0	0.635957219	0.793536369	0.013570965	0.140009149	0.043152179
2020-04-06T02:15:00	0.2503	4.782	159.0	0.636334292	0.794100327	0.013585978	0.140164029	0.043199915
2020-04-06T02:20:00	0.2507	4.785	164.0	0.637371775	0.795652634	0.013627328	0.140590627	0.043331397
2020-04-06T02:25:00	0.2507	4.786	159.0	0.637418523	0.795722601	0.013629192	0.140609865	0.043337326
2020-04-06T02:30:00	0.2505	4.787	164.0	0.636804838	0.794804256	0.013604724	0.140357427	0.043259522
2020-04-06T02:35:00	0.2502	4.791	164.0	0.635860728	0.793392074	0.013567125	0.139969530	0.043139969
2020-04-06T02:40:00	0.2498	4.793	159.0	0.634585933	0.791486458	0.013516443	0.139446653	0.042978813
2020-04-06T02:45:00	0.2508	4.797	164.0	0.637935669	0.796496728	0.013649830	0.140822775	0.043402947
2020-04-06T02:50:00	0.2501	4.799	164.0	0.635670694	0.793107916	0.013559564	0.139891520	0.043115925
2020-04-06T02:55:00	0.2487	4.801	165.0	0.631089615	0.786267085	0.013377946	0.138017799	0.042538426
2020-04-06T03:00:00	0.2500	4.802	159.0	0.635103487	0.792259953	0.013537008	0.139658813	0.043044203
2020-04-06T03:05:00	0.2493	4.803	165.0	0.632836722	0.788873906	0.013447060	0.138730841	0.042758192
2020-04-06T03:10:00	0.2502	4.805	159.0	0.635857772	0.793387654	0.013567008	0.139968317	0.043139595
2020-04-06T03:15:00	0.2493	4.804	164.0	0.632930336	0.789013659	0.013450769	0.138769101	0.042769985
2020-04-06T03:20:00	0.2486	4.804	159.0	0.630662194	0.785629732	0.013361065	0.137843647	0.042484751
2020-04-06T03:25:00	0.2475	4.802	159.0	0.627068272	0.780276738	0.013219566	0.136383822	0.042034818
2020-04-06T03:30:00	0.2477	4.801	159.0	0.627777379	0.781332057	0.013247423	0.136671218	0.042123397
2020-04-06T03:35:00	0.2474	4.801	164.0	0.626499701	0.779430876	0.013197251	0.136153611	0.041963865
2020-04-06T03:40:00	0.2471	4.798	164.0	0.625552868	0.778022881	0.013160135	0.135770691	0.041845846
2020-04-06T03:45:00	0.2467	4.797	164.0	0.624274395	0.776122918	0.013110105	0.135254535	0.041686761
2020-04-06T03:50:00	0.2466	4.797	164.0	0.623989898	0.775700310	0.013098985	0.135139814	0.041651403
2020-04-06T03:55:00	0.2474	4.796	164.0	0.626687259	0.779709876	0.013204610	0.136229530	0.041987264
2020-04-06T04:00:00	0.2486	4.793	164.0	0.630706070	0.785695151	0.013362798	0.137861519	0.042490259
2020-04-06T04:05:00	0.2484	4.791	159.0	0.629903853	0.784499306	0.013331143	0.137534943	0.042389605
2020-04-06T04:10:00	0.2498	4.787	164.0	0.634723329	0.791691776	0.013521901	0.139502959	0.042996167
2020-04-06T04:15:00	0.2512	4.782	159.0	0.639206321	0.798399759	0.013700605	0.141346616	0.043564400
2020-04-06T04:20:00	0.2512	4.779	164.0	0.639066144	0.798189751	0.013694999	0.141288777	0.043546573
2020-04-06T04:25:00	0.2530	4.776	158.0	0.645191481	0.807382067	0.013941093	0.143827686	0.044329090
2020-04-06T04:30:00	0.2525	4.773	164.0	0.643403711	0.804695858	0.013869031	0.143084235	0.044099951
2020-04-06T04:35:00	0.2528	4.769	164.0	0.644582070	0.806466093	0.013916507	0.143574035	0.044250912
2020-04-06T04:40:00	0.2530	4.770	164.0	0.645101134	0.807246251	0.013937447	0.143790067	0.044317495
2020-04-06T04:45:00	0.2527	4.771	159.0	0.643972556	0.805550281	0.013891939	0.143320574	0.044172793
2020-04-06T04:50:00	0.2548	4.771	164.0	0.651076504	0.816243814	0.014179684	0.146289188	0.045087749
2020-04-06T04:55:00	0.2530	4.770	164.0	0.645010784	0.807110439	0.013933801	0.143752452	0.044305902
2020-04-06T05:00:00	0.2542	4.769	159.0	0.649151870	0.813342427	0.014101423	0.145481783	0.044838898
2020-04-06T05:05:00	0.2544	4.766	164.0	0.649670275	0.814123612	0.014122481	0.145699030	0.044905856
2020-04-06T05:10:00	0.2548	4.764	164.0	0.651175531	0.816393183	0.014183717	0.146330794	0.045100572
2020-04-06T05:15:00	0.2553	4.765	164.0	0.652680159	0.818663737	0.014245066	0.146963721	0.045295646
2020-04-06T05:20:00	0.2556	4.765	164.0	0.653526788	0.819942190	0.014279647	0.147320485	0.045405604
2020-04-06T05:25:00	0.2539	4.767	159.0	0.648123672	0.811793713	0.014059706	0.145051398	0.044706250
2020-04-06T05:30:00	0.2568	4.769	164.0	0.657518650	0.825978351	0.014443286	0.149008723	0.045925936
2020-04-06T05:35:00	0.2564	4.770	164.0	0.656393954	0.824276301	0.014397083	0.148532050	0.045779020
2020-04-06T05:40:00	0.2561	4.772	164.0	0.655268907	0.822574803	0.014350942	0.148056026	0.045632305
2020-04-06T05:45:00	0.2562	4.776	164.0	0.655786434	0.823357366	0.014372158	0.148274900	0.045699764
2020-04-06T05:50:00	0.2562	4.778	164.0	0.655646901	0.823146353	0.014366436	0.148215872	0.045681571
2020-04-06T05:55:00	0.2545	4.780	164.0	0.649917933	0.814496890	0.014132546	0.145802876	0.044937862
2020-04-06T06:00:00	0.2576	4.783	164.0	0.660292685	0.830181035	0.014557577	0.150187842	0.046289352
2020-04-06T06:05:00	0.2561	4.786	164.0	0.655228270	0.822513364	0.014349277	0.148038847	0.045627010
2020-04-06T06:10:00	0.2571	4.791	164.0	0.658701219	0.827769146	0.014491951	0.149510786	0.046080676
2020-04-06T06:15:00	0.2568	4.798	158.0	0.657576890	0.826066516	0.014445681	0.149033428	0.045933550
2020-04-06T06:20:00	0.2567	4.808	164.0	0.657437426	0.825855394	0.014439947	0.148974272	0.045915317
2020-04-06T06:25:00	0.2579	4.818	159.0	0.661236285	0.831612096	0.014596561	0.150590033	0.046413311
2020-04-06T06:30:00	0.2581	4.828	159.0	0.661752959	0.832396006	0.014617930	0.150810493	0.046481259
2020-04-06T06:35:00	0.2580	4.839	165.0	0.661613656	0.832184629	0.014612167	0.150751037	0.046462934
2020-04-06T06:40:00	0.2589	4.849	165.0	0.664425090	0.836453874	0.014728708	0.151953366	0.046833503
2020-04-06T06:45:00	0.2581	4.859	165.0	0.661990987	0.832757225	0.014627781	0.150912115	0.046512579
2020-04-06T06:50:00	0.2584	4.869	164.0	0.662835439	0.834039111	0.014662754	0.151272926	0.046623785
2020-04-06T06:55:00	0.2590	4.881	165.0	0.664990633	0.837313486	0.014752210	0.152195829	0.046908233
2020-04-06T07:00:00	0.2574	4.893	165.0	0.659604645	0.829138034	0.014529186	0.149894933	0.046199074
2020-04-06T07:05:00	0.2585	4.906	164.0	0.663073396	0.834400443	0.014672617	0.151374681	0.046655147
2020-04-06T07:10:00	0.2589	4.919	165.0	0.664573082	0.836678791	0.014734856	0.152016794	0.046853052
2020-04-06T07:15:00	0.2598	4.937	160.0	0.667382222	0.840951675	0.014851812	0.153223404	0.047224941
2020-04-06T07:20:00	0.2586	4.955	165.0	0.663639151	0.835259720	0.014696080	0.151616750	0.046729755
2020-04-06T07:25:00	0.2591	4.976	166.0	0.665138602	0.837538440	0.014758362	0.152259300	0.046927795
2020-04-06T07:30:00	0.2595	5.002	165.0	0.666637434	0.839818144	0.014820756	0.152903008	0.047126192
2020-04-06T07:35:00	0.2600	5.029	165.0	0.668135646	0.842098833	0.014883262	0.153547873	0.047324946
2020-04-06T07:40:00	0.2591	5.064	165.0	0.665048753	0.837401842	0.014754626	0.152220758	0.046915916
2020-04-06T07:45:00	0.2582	5.096	165.0	0.662287164	0.833206754	0.014640042	0.151038612	0.046551567
2020-04-06T07:50:00	0.2591	5.129	166.0	0.665098075	0.837476827	0.014756677	0.152241915	0.046922437
2020-04-06T07:55:00	0.2606	5.171	166.0	0.670197973	0.845241408	0.014969529	0.154437875	0.047599253
2020-04-06T08:00:00	0.2609	5.221	166.0	0.671040516	0.846526327	0.015004848	0.154802253	0.047711558
2020-04-06T08:05:00	0.2605	5.269	167.0	0.669592764	0.844318812	0.014944186	0.154176416	0.047518669
2020-04-06T08:10:00	0.2612	5.318	167.0	0.672071002	0.848098696	0.015048105	0.155248524	0.047849103
2020-04-06T08:15:00	0.2625	5.375	167.0	0.676181257	0.854379425	0.015221292	0.157035260	0.048399792
2020-04-06T08:20:00	0.2618	5.428	167.0	0.674081896	0.851169655	0.015132704	0.156121322	0.048118108
2020-04-06T08:25:00	0.2629	5.486	168.0	0.677536849	0.856454042	0.015278638	0.157626895	0.048582140
2020-04-06T08:30:00	0.2635	5.543	168.0	0.679683344	0.859742308	0.015369675	0.158566107	0.048871614
2020-04-06T08:35:00	0.2642	5.603	168.0	0.681828577	0.863032606	0.015460943	0.159507699	0.049161822
2020-04-06T08:40:00	0.2655	5.664	168.0	0.685927850	0.869330999	0.015636136	0.161315130	0.049718890
2020-04-06T08:45:00	0.2646	5.732	168.0	0.683182071	0.865110599	0.015518673	0.160103288	0.049345388
2020-04-06T08:50:00	0.2672	5.799	168.0	0.691511163	0.877932925	0.015876427	0.163794172	0.050482955
2020-04-06T08:55:00	0.2675	5.871	169.0	0.692674009	0.879727856	0.015926716	0.164312997	0.050642862
2020-04-06T09:00:00	0.2683	5.949	169.0	0.695136629	0.883532941	0.016033494	0.165414600	0.050982386
2020-04-06T09:05:00	0.2682	6.025	170.0	0.694998596	0.883319523	0.016027499	0.165352752	0.050963324
2020-04-06T09:10:00	0.2675	6.095	170.0	0.692584836	0.879590170	0.015922857	0.164273180	0.050630590
2020-04-06T09:15:00	0.2674	6.177	170.0	0.692121477	0.878874839	0.015902811	0.164066367	0.050566848
2020-04-06T09:20:00	0.2685	6.263	170.0	0.695884344	0.884689304	0.016065989	0.165749846	0.051085712
2020-04-06T09:25:00	0.2671	6.356	171.0	0.691194582	0.877444463	0.015862751	0.163653074	0.050439467
2020-04-06T09:30:00	0.2663	6.452	171.0	0.688778313	0.873719195	0.015758571	0.162578270	0.050108202
2020-04-06T09:35:00	0.2668	6.551	172.0	0.690267452	0.876014469	0.015822734	0.163240227	0.050312223
2020-04-06T09:40:00	0.2663	6.637	172.0	0.688827316	0.873794694	0.015760680	0.162600030	0.050114909
2020-04-06T09:45:00	0.2673	6.715	172.0	0.691943101	0.878599514	0.015895097	0.163986788	0.050542321
2020-04-06T09:50:00	0.2661	6.786	173.0	0.687899586	0.872365674	0.015720773	0.162188322	0.049988016
2020-04-06T09:55:00	0.2651	6.857	173.0	0.684829409	0.867641860	0.015589089	0.160829759	0.049569294
2020-04-06T10:00:00	0.2652	6.925	173.0	0.685016880	0.867930071	0.015597113	0.160912542	0.049594808
2020-04-06T10:05:00	0.2653	6.992	173.0	0.685527271	0.868714884	0.015618970	0.161138036	0.049664308
2020-04-06T10:10:00	0.2643	7.071	175.0	0.682126060	0.863489190	0.015473622	0.159638502	0.049202137
2020-04-06T10:15:00	0.2661	7.159	175.0	0.688176182	0.872791648	0.015732666	0.162311012	0.050025830
2020-04-06T10:20:00	0.2634	7.254	174.0	0.679232949	0.859052007	0.015350550	0.158368790	0.048810799
2020-04-06T10:25:00	0.2647	7.352	175.0	0.683332219	0.865341216	0.015525084	0.160169431	0.049365774
2020-04-06T10:30:00	0.2641	7.451	175.0	0.681560256	0.862620846	0.015449512	0.159389766	0.049125474
2020-04-06T10:35:00	0.2628	7.551	176.0	0.677175740	0.855901241	0.015263351	0.157469179	0.048533530
2020-04-06T10:40:00	0.2631	7.650	176.0	0.678340236	0.857684305	0.015312678	0.157978079	0.048690378
2020-04-06T10:45:00	0.2627	7.753	176.0	0.676892464	0.855467670	0.015251364	0.157345514	0.048495416
2020-04-06T10:50:00	0.2626	7.862	177.0	0.676750819	0.855250898	0.015245372	0.157283698	0.048476363
2020-04-06T10:55:00	0.2637	7.974	178.0	0.680200321	0.860534870	0.015391644	0.158792751	0.048941468
2020-04-06T11:00:00	0.2620	8.089	178.0	0.674507129	0.851819498	0.015150626	0.156306217	0.048175094
2020-04-06T11:05:00	0.2623	8.212	178.0	0.675672479	0.853601193	0.015199798	0.156813511	0.048331447
2020-04-06T11:10:00	0.2611	8.341	179.0	0.671607956	0.847392045	0.015028660	0.155047910	0.047787272
2020-04-06T11:15:00	0.2596	8.470	179.0	0.666883933	0.840193251	0.014831031	0.153009009	0.047158863
2020-04-06T11:20:00	0.2610	8.606	180.0	0.671324247	0.846959168	0.015016752	0.154925061	0.047749408
2020-04-06T11:25:00	0.2611	8.746	181.0	0.671836560	0.847740893	0.015038258	0.155146935	0.047817792
2020-04-06T11:30:00	0.2598	8.892	181.0	0.667440303	0.841040091	0.014854235	0.153248405	0.047232647
2020-04-06T11:35:00	0.2605	9.037	182.0	0.669589836	0.844314348	0.014944064	0.154175151	0.047518279
2020-04-06T11:40:00	0.2613	9.174	182.0	0.672392172	0.848588942	0.015061600	0.155387750	0.047892014
2020-04-06T11:45:00	0.2613	9.300	183.0	0.672250351	0.848372450	0.015055640	0.155326263	0.047873063
2020-04-06T11:50:00	0.2597	9.418	183.0	0.667199702	0.840673845	0.014844198	0.153144855	0.047200732
2020-04-06T11:55:00	0.2606	9.524	184.0	0.670003882	0.844945497	0.014961399	0.154354000	0.047573402
2020-04-06T12:00:00	0.2582	9.624	184.0	0.662327722	0.833268318	0.014641721	0.151055939	0.046556907
2020-04-06T12:05:00	0.2589	9.722	185.0	0.664480286	0.836537758	0.014731001	0.151977021	0.046840794
2020-04-06T12:10:00	0.2581	9.817	185.0	0.662043286	0.832836597	0.014629945	0.150934448	0.046519463
2020-04-06T12:15:00	0.2579	9.906	185.0	0.661245090	0.831625453	0.014596925	0.150593788	0.046414468
2020-04-06T12:20:00	0.2579	9.989	186.0	0.661102832	0.831409656	0.014591045	0.150533117	0.046395769
2020-04-06T12:25:00	0.2583	10.067	186.0	0.662600400	0.833682258	0.014653015	0.151172455	0.046592819
2020-04-06T12:30:00	0.2571	10.136	186.0	0.658521198	0.827496458	0.014484537	0.149434301	0.046057103
2020-04-06T12:35:00	0.2583	10.200	187.0	0.662643888	0.833748281	0.014654817	0.151191042	0.046598548
2020-04-06T12:40:00	0.2579	10.252	187.0	0.661189844	0.831541647	0.014594641	0.150570225	0.046407206
2020-04-06T12:45:00	0.2563	10.301	187.0	0.656123747	0.823867547	0.014385994	0.148417648	0.045743761
2020-04-06T12:50:00	0.2573	10.327	187.0	0.659264720	0.828622892	0.014515170	0.149750333	0.046154507
2020-04-06T12:55:00	0.2574	10.349	187.0	0.659450577	0.828904538	0.014522832	0.149829385	0.046178872
2020-04-06T13:00:00	0.2564	10.365	187.0	0.656353329	0.824214842	0.014395415	0.148514847	0.045773718
2020-04-06T13:05:00	0.2565	10.367	187.0	0.656539336	0.824496253	0.014403051	0.148593621	0.045797997
2020-04-06T13:10:00	0.2570	10.363	187.0	0.658367084	0.827263035	0.014478192	0.149368838	0.046036927
2020-04-06T13:15:00	0.2565	10.348	187.0	0.656582897	0.824562161	0.014404839	0.148612072	0.045803684
2020-04-06T13:20:00	0.2574	10.317	187.0	0.659723472	0.829318135	0.014534087	0.149945498	0.046214659
2020-04-06T13:25:00	0.2573	10.285	187.0	0.659252974	0.828605093	0.014514686	0.149745337	0.046152967
2020-04-06T13:30:00	0.2566	10.247	187.0	0.656812450	0.824909502	0.014414266	0.148709325	0.045833658
2020-04-06T13:35:00	0.2562	10.215	186.0	0.655684594	0.823203354	0.014367981	0.148231816	0.045686485
2020-04-06T13:40:00	0.2568	10.179	186.0	0.657512774	0.825969455	0.014443045	0.149006231	0.045925167
2020-04-06T13:45:00	0.2545	10.151	186.0	0.650139079	0.814830251	0.014141538	0.145895637	0.044966452
2020-04-06T13:50:00	0.2550	10.125	186.0	0.651641196	0.817095688	0.014202689	0.146526526	0.045160898
2020-04-06T13:55:00	0.2545	10.090	186.0	0.650182717	0.814896038	0.014143312	0.145913945	0.044972095
2020-04-06T14:00:00	0.2556	10.052	186.0	0.653657579	0.820139746	0.014284993	0.147375641	0.045422604
2020-04-06T14:05:00	0.2542	10.012	186.0	0.648910048	0.812978104	0.014091606	0.145380501	0.044807682
2020-04-06T14:10:00	0.2551	9.980	186.0	0.652057301	0.817723582	0.014219653	0.146701541	0.045214840
2020-04-06T14:15:00	0.2543	9.952	186.0	0.649282820	0.813539734	0.014106741	0.145536644	0.044855807
2020-04-06T14:20:00	0.2545	9.927	185.0	0.650127303	0.814812498	0.014141059	0.145890696	0.044964929
2020-04-06T14:25:00	0.2546	9.902	185.0	0.650313630	0.815093404	0.014148637	0.145968875	0.044989025
2020-04-06T14:30:00	0.2546	9.878	185.0	0.650499948	0.815374325	0.014156216	0.146047072	0.045013126
2020-04-06T14:35:00	0.2548	9.851	185.0	0.651015216	0.816151374	0.014177189	0.146263441	0.045079813
2020-04-06T14:40:00	0.2548	9.831	185.0	0.651201498	0.816432352	0.014184775	0.146341705	0.045103935
2020-04-06T14:45:00	0.2558	9.804	185.0	0.654346753	0.821180962	0.014313180	0.147666445	0.045512232
2020-04-06T14:50:00	0.2557	9.777	184.0	0.653875554	0.820469023	0.014293905	0.147467585	0.045450942
2020-04-06T14:55:00	0.2558	9.757	184.0	0.654390341	0.821246828	0.014314964	0.147684847	0.045517904
2020-04-06T15:00:00	0.2556	9.736	185.0	0.653590453	0.820038352	0.014282249	0.147347332	0.045413879
2020-04-06T15:05:00	0.2547	9.715	185.0	0.650817151	0.815852655	0.014169125	0.146180251	0.045054173
2020-04-06T15:10:00	0.2541	9.697	184.0	0.648700087	0.812661821	0.014083085	0.145292592	0.044780588
2020-04-06T15:15:00	0.2541	9.677	184.0	0.648886488	0.812942611	0.014090650	0.145370635	0.044804642
2020-04-06T15:20:00	0.2528	9.657	184.0	0.644462221	0.806285991	0.013911674	0.143524178	0.044235546
2020-04-06T15:25:00	0.2528	9.639	184.0	0.644319300	0.806071235	0.013905912	0.143464736	0.044217225
2020-04-06T15:30:00	0.2535	9.619	184.0	0.646811968	0.809819275	0.014006580	0.144503307	0.044537323
2020-04-06T15:35:00	0.2523	9.597	184.0	0.642714867	0.803661564	0.013841317	0.142798312	0.044011827
2020-04-06T15:40:00	0.2522	9.571	184.0	0.642571877	0.803446915	0.013835567	0.142738998	0.043993545
2020-04-06T15:45:00	0.2524	9.548	184.0	0.643088281	0.804222192	0.013856337	0.142953270	0.044059586
2020-04-06T15:50:00	0.2530	9.524	184.0	0.645252345	0.807473566	0.013943550	0.143853032	0.044336902
2020-04-06T15:55:00	0.2521	9.500	184.0	0.642142872	0.802803023	0.013818325	0.142561117	0.043938721
2020-04-06T16:00:00	0.2524	9.475	184.0	0.642989031	0.804073171	0.013852344	0.142912076	0.044046890
2020-04-06T16:05:00	0.2531	9.454	183.0	0.645304887	0.807552557	0.013945671	0.143874914	0.044343646
2020-04-06T16:10:00	0.2513	9.432	183.0	0.639378450	0.798657660	0.013707491	0.141417657	0.043586295
2020-04-06T16:15:00	0.2523	9.412	183.0	0.642685889	0.803618062	0.013840151	0.142786290	0.044008121
2020-04-06T16:20:00	0.2507	9.391	183.0	0.637415569	0.795718179	0.013629075	0.140608649	0.043336951
2020-04-06T16:25:00	0.2515	9.370	183.0	0.640064981	0.799686535	0.013734973	0.141701182	0.043673681
2020-04-06T16:30:00	0.2520	9.350	183.0	0.641723191	0.802173276	0.013801469	0.142387214	0.043885122
2020-04-06T16:35:00	0.2511	9.328	183.0	0.638762670	0.797735156	0.013682866	0.141163601	0.043507993
2020-04-06T16:40:00	0.2517	9.306	183.0	0.640751381	0.800715613	0.013762478	0.141984949	0.043761140
2020-04-06T16:45:00	0.2528	9.282	183.0	0.644387122	0.806173144	0.013908647	0.143492942	0.044225918
2020-04-06T16:50:00	0.2522	9.257	183.0	0.642418125	0.803216132	0.013829387	0.142675233	0.043973893
2020-04-06T16:55:00	0.2503	9.231	183.0	0.636156628	0.793834595	0.013578903	0.140091044	0.043177420
2020-04-06T17:00:00	0.2522	9.205	183.0	0.642435827	0.803242702	0.013830098	0.142682574	0.043976155
2020-04-06T17:05:00	0.2517	9.177	183.0	0.640795656	0.800782007	0.013764253	0.142003263	0.043766785
2020-04-06T17:10:00	0.2524	9.145	182.0	0.643112925	0.804259196	0.013857328	0.142963500	0.044062739
2020-04-06T17:15:00	0.2520	9.111	182.0	0.641802866	0.802292819	0.013804668	0.142420220	0.043895295
2020-04-06T17:20:00	0.2524	9.077	182.0	0.643130624	0.804285771	0.013858040	0.142970847	0.044065004
2020-04-06T17:25:00	0.2527	9.040	182.0	0.644128332	0.805784308	0.013898216	0.143385330	0.044192751
2020-04-06T17:30:00	0.2530	9.004	182.0	0.645125764	0.807283276	0.013938441	0.143800322	0.044320656
2020-04-06T17:35:00	0.2538	8.965	182.0	0.647769501	0.811260454	0.014045351	0.144903302	0.044660605
2020-04-06T17:40:00	0.2532	8.926	182.0	0.645802355	0.808300558	0.013965761	0.144082181	0.044407527
2020-04-06T17:45:00	0.2542	8.884	181.0	0.649103894	0.813270144	0.014099475	0.145461686	0.044832704
2020-04-06T17:50:00	0.2559	8.842	182.0	0.654703405	0.821719958	0.014327779	0.147817055	0.045558652
2020-04-06T17:55:00	0.2542	8.800	181.0	0.649121564	0.813296766	0.014100193	0.145469088	0.044834986
2020-04-06T18:00:00	0.2553	8.758	180.0	0.652748866	0.818767466	0.014247871	0.146992657	0.045304564
2020-04-06T18:05:00	0.2551	8.717	181.0	0.652100060	0.817788112	0.014221397	0.146719532	0.045220385
2020-04-06T18:10:00	0.2544	8.676	181.0	0.649806238	0.814328533	0.014128006	0.145756036	0.044923426
2020-04-06T18:15:00	0.2552	8.635	180.0	0.652446544	0.818311075	0.014235532	0.146865357	0.045265329
2020-04-06T18:20:00	0.2562	8.596	180.0	0.655742008	0.823290179	0.014370336	0.148256104	0.045693971
2020-04-06T18:25:00	0.2557	8.554	180.0	0.654107885	0.820820031	0.014303407	0.147565618	0.045481157
2020-04-06T18:30:00	0.2554	8.513	180.0	0.653130587	0.819343830	0.014263459	0.147153473	0.045354129
2020-04-06T18:35:00	0.2564	8.473	180.0	0.656425427	0.824323915	0.014398375	0.148545378	0.045783128
2020-04-06T18:40:00	0.2566	8.433	180.0	0.657091086	0.825331172	0.014425713	0.148827417	0.045870055
2020-04-06T18:45:00	0.2565	8.393	179.0	0.656771496	0.824847530	0.014412584	0.148691972	0.045828310
2020-04-06T18:50:00	0.2565	8.353	179.0	0.656780311	0.824860870	0.014412946	0.148695707	0.045829461
2020-04-06T18:55:00	0.2566	8.313	179.0	0.657117531	0.825371197	0.014426799	0.148838628	0.045873511
2020-04-06T19:00:00	0.2567	8.274	179.0	0.657454720	0.825881573	0.014440658	0.148981607	0.045917578
2020-04-06T19:05:00	0.2552	8.234	179.0	0.652205986	0.817947981	0.014225717	0.146764105	0.045234123
2020-04-06T19:10:00	0.2564	8.196	178.0	0.656158682	0.823920391	0.014387427	0.148432436	0.045748318
2020-04-06T19:15:00	0.2565	8.158	178.0	0.656495960	0.824430626	0.014401270	0.148575249	0.045792335
2020-04-06T19:20:00	0.2572	8.121	178.0	0.658803159	0.827923573	0.014496150	0.149554107	0.046094028
2020-04-06T19:25:00	0.2572	8.083	178.0	0.658811970	0.827936921	0.014496513	0.149557851	0.046095182
2020-04-06T19:30:00	0.2578	8.046	178.0	0.660789652	0.830934639	0.014578102	0.150399594	0.046354616
2020-04-06T19:35:00	0.2573	8.010	178.0	0.659157811	0.828460896	0.014510763	0.149704870	0.046140495
2020-04-06T19:40:00	0.2578	7.972	178.0	0.660807265	0.830961350	0.014578830	0.150407102	0.046356929
2020-04-06T19:45:00	0.2581	7.935	178.0	0.661800097	0.832467537	0.014619881	0.150830616	0.046487461
2020-04-06T19:50:00	0.2588	7.899	177.0	0.664103919	0.835965824	0.014715370	0.151815762	0.046791092
2020-04-06T19:55:00	0.2587	7.864	177.0	0.663784947	0.835481203	0.014702130	0.151679165	0.046748992
2020-04-06T20:00:00	0.2575	7.829	177.0	0.659858201	0.829522354	0.014539645	0.150002841	0.046232332
2020-04-06T20:05:00	0.2589	7.795	176.0	0.664458052	0.836503967	0.014730077	0.151967492	0.046837857
2020-04-06T20:10:00	0.2587	7.761	177.0	0.663811343	0.835521304	0.014703225	0.151690466	0.046752475
2020-04-06T20:15:00	0.2579	7.727	177.0	0.661196940	0.831552411	0.014594935	0.150573252	0.046408139
2020-04-06T20:20:00	0.2573	7.694	177.0	0.659237101	0.828581041	0.014514031	0.149738587	0.046150887
2020-04-06T20:25:00	0.2579	7.661	176.0	0.661214551	0.831579126	0.014595663	0.150580763	0.046410453
2020-04-06T20:30:00	0.2569	7.627	176.0	0.657941702	0.826618852	0.014460686	0.149188230	0.045981261
2020-04-06T20:35:00	0.2571	7.593	176.0	0.658607082	0.827626549	0.014488074	0.149470788	0.046068348
2020-04-06T20:40:00	0.2579	7.560	176.0	0.661240966	0.831619197	0.014596755	0.150592029	0.046413926
2020-04-06T20:45:00	0.2572	7.526	176.0	0.658952943	0.828150493	0.014502321	0.149617770	0.046113650
2020-04-06T20:50:00	0.2568	7.495	176.0	0.657648628	0.826175121	0.014448631	0.149063862	0.045942930
2020-04-06T20:55:00	0.2572	7.462	176.0	0.658970564	0.828177190	0.014503047	0.149625261	0.046115958
2020-04-06T21:00:00	0.2558	7.432	176.0	0.654381370	0.821233273	0.014314597	0.147681060	0.045516737
2020-04-06T21:05:00	0.2558	7.403	175.0	0.654390192	0.821246603	0.014314958	0.147684784	0.045517885
2020-04-06T21:10:00	0.2556	7.373	175.0	0.653741681	0.820266787	0.014288431	0.147411112	0.045433536
2020-04-06T21:15:00	0.2542	7.345	175.0	0.649145831	0.813333328	0.014101178	0.145479253	0.044838119
2020-04-06T21:20:00	0.2539	7.315	175.0	0.648167186	0.811859237	0.014061470	0.145069598	0.044711859
2020-04-06T21:25:00	0.2538	7.285	175.0	0.647846804	0.811376836	0.014048484	0.144935619	0.044670566
2020-04-06T21:30:00	0.2530	7.255	175.0	0.645220812	0.807426161	0.013942277	0.143839901	0.044332854
2020-04-06T21:35:00	0.2530	7.226	175.0	0.645229656	0.807439457	0.013942634	0.143843584	0.044333989
2020-04-06T21:40:00	0.2516	7.195	175.0	0.640622922	0.800522992	0.013757328	0.141931820	0.043744765
2020-04-06T21:45:00	0.2520	7.166	175.0	0.641951116	0.802515267	0.013810622	0.142481645	0.043914227
2020-04-06T21:50:00	0.2526	7.139	170.0	0.643938063	0.805498463	0.013890549	0.143306237	0.044168374
2020-04-06T21:55:00	0.2505	7.112	174.0	0.637018824	0.795124438	0.013613253	0.140445423	0.043286643
2020-04-06T22:00:00	0.2524	7.086	174.0	0.643296517	0.804534881	0.013864716	0.143039722	0.044086231
2020-04-06T22:05:00	0.2522	7.062	174.0	0.642319231	0.803067700	0.013825412	0.142634227	0.043961254
2020-04-06T22:10:00	0.2515	7.038	174.0	0.640022117	0.799622284	0.013733256	0.141683471	0.043668222
2020-04-06T22:15:00	0.2516	7.013	175.0	0.640363861	0.800134578	0.013746946	0.141824707	0.043711752
2020-04-06T22:20:00	0.2519	6.989	174.0	0.641365289	0.801636349	0.013787103	0.142238997	0.043839440
2020-04-06T22:25:00	0.2526	6.965	175.0	0.643685139	0.805118538	0.013880362	0.143201135	0.044135981
2020-04-06T22:30:00	0.2520	6.941	174.0	0.641718709	0.802166551	0.013801289	0.142385357	0.043884550
2020-04-06T22:35:00	0.2518	6.918	174.0	0.641070864	0.801194732	0.013775290	0.142117128	0.043801879
2020-04-06T22:40:00	0.2511	6.894	174.0	0.638772950	0.797750555	0.013683276	0.141167841	0.043509300
2020-04-06T22:45:00	0.2508	6.871	174.0	0.637794432	0.796285286	0.013644192	0.140764611	0.043385020
2020-04-06T22:50:00	0.2517	6.849	173.0	0.640776414	0.800753152	0.013763482	0.141995304	0.043764332
2020-04-06T22:55:00	0.2514	6.826	173.0	0.639798442	0.799287037	0.013724300	0.141591071	0.043639743
2020-04-06T23:00:00	0.2527	6.804	173.0	0.644097312	0.805737704	0.013896966	0.143372433	0.044188776
2020-04-06T23:05:00	0.2521	6.784	173.0	0.642131107	0.802785367	0.013817853	0.142556240	0.043937218
2020-04-06T23:10:00	0.2524	6.765	173.0	0.643132043	0.804287902	0.013858097	0.142971436	0.044065185
2020-04-06T23:15:00	0.2522	6.744	173.0	0.642484452	0.803315686	0.013832053	0.142702739	0.043982370
2020-04-06T23:20:00	0.2535	6.724	173.0	0.646780113	0.809771344	0.014005291	0.144490010	0.044533224
2020-04-06T23:25:00	0.2533	6.703	172.0	0.646133179	0.808798106	0.013979130	0.144220102	0.044450036
2020-04-06T23:30:00	0.2523	6.683	172.0	0.642849562	0.803863775	0.013846734	0.142854197	0.044029051
2020-04-06T23:35:00	0.2536	6.662	172.0	0.647144788	0.810320112	0.014020050	0.144642272	0.044580153
2020-04-06T23:40:00	0.2542	6.642	172.0	0.649131815	0.813312211	0.014100609	0.145473382	0.044836309
2020-04-06T23:45:00	0.2532	6.625	172.0	0.645850934	0.808373613	0.013967724	0.144102429	0.044413768
2020-04-06T23:50:00	0.2527	6.606	172.0	0.644215269	0.805914926	0.013901719	0.143421476	0.044203892
2020-04-06T23:55:00	0.2529	6.587	172.0	0.644886135	0.806923078	0.013928771	0.143700565	0.044289910
2020-04-07T00:00:00	0.2532	6.569	172.0	0.645886304	0.808426806	0.013969153	0.144117173	0.044418312
2020-04-07T00:05:00	0.2544	6.551	172.0	0.649848874	0.814392797	0.014129739	0.145773915	0.044928936
2020-04-07T00:10:00	0.2526	6.532	172.0	0.643932874	0.805490668	0.013890340	0.143304080	0.044167709
2020-04-07T00:15:00	0.2512	6.513	172.0	0.639327429	0.798581213	0.013705450	0.141396598	0.043579805
2020-04-07T00:20:00	0.2525	6.493	172.0	0.643626862	0.805031004	0.013878015	0.143176923	0.044128518
2020-04-07T00:25:00	0.2514	6.475	172.0	0.639681050	0.799111104	0.013719600	0.141542589	0.043624800
2020-04-07T00:30:00	0.2512	6.455	172.0	0.639032837	0.798139855	0.013693667	0.141275036	0.043542338
2020-04-07T00:35:00	0.2511	6.435	171.0	0.638714593	0.797663146	0.013680944	0.141143776	0.043501883
2020-04-07T00:40:00	0.2504	6.416	171.0	0.636415170	0.794221307	0.013589199	0.140197261	0.043210157
2020-04-07T00:45:00	0.2512	6.397	171.0	0.639068274	0.798192944	0.013695084	0.141289656	0.043546844
2020-04-07T00:50:00	0.2513	6.379	171.0	0.639410109	0.798705097	0.013708758	0.141430725	0.043590323
2020-04-07T00:55:00	0.2496	6.360	171.0	0.633807422	0.790323384	0.013485540	0.139127834	0.042880550
2020-04-07T01:00:00	0.2503	6.340	171.0	0.636132161	0.793798001	0.013577929	0.140080994	0.043174323
2020-04-07T01:05:00	0.2498	6.322	171.0	0.634492063	0.791346191	0.013512715	0.139408191	0.042966958
2020-04-07T01:10:00	0.2486	6.302	171.0	0.630536183	0.785441860	0.013356091	0.137792326	0.042468933
2020-04-07T01:15:00	0.2496	6.282	171.0	0.633854741	0.790394063	0.013487418	0.139147202	0.042886519
2020-04-07T01:20:00	0.2482	6.263	171.0	0.629236326	0.783504656	0.013304833	0.137263505	0.042305945
2020-04-07T01:25:00	0.2477	6.245	170.0	0.627593065	0.781057714	0.013240179	0.136596486	0.042100364
2020-04-07T01:30:00	0.2472	6.227	171.0	0.625949048	0.778611930	0.013175659	0.135930846	0.041895207
2020-04-07T01:35:00	0.2470	6.208	171.0	0.625298344	0.777644517	0.013150167	0.135667851	0.041814149
2020-04-07T01:40:00	0.2471	6.192	170.0	0.625641496	0.778154643	0.013163607	0.135806510	0.041856885
2020-04-07T01:45:00	0.2474	6.174	170.0	0.626647047	0.779650057	0.013203032	0.136213251	0.041982247
2020-04-07T01:50:00	0.2477	6.156	170.0	0.627652316	0.781145904	0.013242507	0.136620508	0.042107767
2020-04-07T01:55:00	0.2473	6.140	171.0	0.626339556	0.779192677	0.013190970	0.136088805	0.041943891
2020-04-07T02:00:00	0.2468	6.124	170.0	0.624694961	0.776747777	0.013126552	0.135424217	0.041739059
2020-04-07T02:05:00	0.2477	6.106	171.0	0.627687867	0.781198819	0.013243905	0.136634922	0.042112210
2020-04-07T02:10:00	0.2472	6.090	170.0	0.626043893	0.778752968	0.013179377	0.135969202	0.041907029
2020-04-07T02:15:00	0.2475	6.073	170.0	0.627049332	0.780248556	0.013218822	0.136376150	0.042032454
2020-04-07T02:20:00	0.2473	6.057	171.0	0.626398828	0.779280836	0.013193295	0.136112789	0.041951283
2020-04-07T02:25:00	0.2475	6.041	171.0	0.627073036	0.780283826	0.013219753	0.136385752	0.042035413
2020-04-07T02:30:00	0.2477	6.023	165.0	0.627747117	0.781287011	0.013246233	0.136658946	0.042119614
2020-04-07T02:35:00	0.2464	6.008	170.0	0.623452298	0.774901915	0.013077986	0.134923169	0.041584631
2020-04-07T02:40:00	0.2457	5.992	170.0	0.621143041	0.771475185	0.012987982	0.133994618	0.041298443
2020-04-07T02:45:00	0.2473	5.976	169.0	0.626126881	0.778876380	0.013182630	0.136002767	0.041917374
2020-04-07T02:50:00	0.2469	5.958	170.0	0.624813559	0.776924012	0.013131192	0.135472087	0.041753813
2020-04-07T02:55:00	0.2471	5.942	170.0	0.625488066	0.777926544	0.013157597	0.135744504	0.041837774
2020-04-07T03:00:00	0.2474	5.925	170.0	0.626493661	0.779421892	0.013197015	0.136151166	0.041963112
2020-04-07T03:05:00	0.2483	5.909	169.0	0.629485061	0.783875240	0.013314633	0.137364616	0.042337109
2020-04-07T03:10:00	0.2479	5.893	169.0	0.628172974	0.781920981	0.013262977	0.136831686	0.042172854
2020-04-07T03:15:00	0.2482	5.878	169.0	0.629177814	0.783417486	0.013302528	0.137239725	0.042298616
2020-04-07T03:20:00	0.2479	5.862	170.0	0.628196671	0.781956263	0.013263909	0.136841301	0.042175818
2020-04-07T03:25:00	0.2489	5.846	169.0	0.631517397	0.786905130	0.013394851	0.138192212	0.042592182
2020-04-07T03:30:00	0.2487	5.830	169.0	0.630867706	0.785936163	0.013369180	0.137927368	0.042510554
2020-04-07T03:35:00	0.2471	5.813	169.0	0.625582924	0.778067564	0.013161313	0.135782837	0.041849589
2020-04-07T03:40:00	0.2489	5.797	169.0	0.631552909	0.786958104	0.013396255	0.138206696	0.042596646
2020-04-07T03:45:00	0.2480	5.782	169.0	0.628586933	0.782537386	0.013279263	0.136999708	0.042224640
2020-04-07T03:50:00	0.2490	5.769	169.0	0.631907297	0.787486810	0.013410270	0.138351280	0.042641208
2020-04-07T03:55:00	0.2490	5.755	169.0	0.631919133	0.787504470	0.013410738	0.138356110	0.042642697
2020-04-07T04:00:00	0.2481	5.740	169.0	0.628953461	0.783083285	0.013293692	0.137148567	0.042270520
2020-04-07T04:05:00	0.2490	5.726	168.0	0.631939846	0.787535374	0.013411557	0.138364563	0.042645302
2020-04-07T04:10:00	0.2492	5.712	168.0	0.632610052	0.788535552	0.013438083	0.138638223	0.042729647
2020-04-07T04:15:00	0.2490	5.697	168.0	0.631957600	0.787561864	0.013412259	0.138371809	0.042647535
2020-04-07T04:20:00	0.2487	5.685	168.0	0.630974260	0.786095057	0.013373389	0.137970786	0.042523936
2020-04-07T04:25:00	0.2487	5.671	168.0	0.630983139	0.786108298	0.013373739	0.137974405	0.042525052
2020-04-07T04:30:00	0.2491	5.659	168.0	0.632314908	0.788095047	0.013426398	0.138517674	0.042692492
2020-04-07T04:35:00	0.2492	5.647	168.0	0.632654429	0.788601790	0.013439840	0.138656353	0.042735235
2020-04-07T04:40:00	0.2491	5.634	168.0	0.632332660	0.788121540	0.013427101	0.138524923	0.042694727
2020-04-07T04:45:00	0.2487	5.624	168.0	0.631018656	0.786161263	0.013375142	0.137988879	0.042529513
2020-04-07T04:50:00	0.2488	5.613	168.0	0.631358300	0.786667817	0.013388563	0.138127332	0.042572185
2020-04-07T04:55:00	0.2499	5.604	168.0	0.635003568	0.792110604	0.013533036	0.139617840	0.043031574
2020-04-07T05:00:00	0.2492	5.595	168.0	0.632698804	0.788668029	0.013441597	0.138674483	0.042740823
2020-04-07T05:05:00	0.2500	5.587	168.0	0.635351703	0.792630997	0.013546876	0.139760623	0.043075581
2020-04-07T05:10:00	0.2499	5.578	167.0	0.635030176	0.792150374	0.013534094	0.139628751	0.043034937
2020-04-07T05:15:00	0.2502	5.569	167.0	0.636030138	0.793645418	0.013573868	0.140039093	0.043161408
2020-04-07T05:20:00	0.2504	5.561	168.0	0.636699579	0.794646774	0.013600529	0.140314153	0.043246185
2020-04-07T05:25:00	0.2499	5.555	168.0	0.635056784	0.792190144	0.013535151	0.139639661	0.043038300
2020-04-07T05:30:00	0.2519	5.550	168.0	0.641337906	0.801595273	0.013786004	0.142227660	0.043835946
2020-04-07T05:35:00	0.2520	5.545	168.0	0.641676574	0.802103334	0.013799598	0.142367904	0.043879171
2020-04-07T05:40:00	0.2544	5.540	175.0	0.649591893	0.814005483	0.014119296	0.145666172	0.044895729
2020-04-07T05:45:00	0.2550	5.535	169.0	0.651574628	0.816995252	0.014199976	0.146498537	0.045152272
2020-04-07T05:50:00	0.2544	5.530	177.0	0.649609559	0.814032108	0.014120014	0.145673577	0.044898011
2020-04-07T05:55:00	0.2559	5.528	172.0	0.654551101	0.821489772	0.014321544	0.147752729	0.045538826
2020-04-07T06:00:00	0.2564	5.526	172.0	0.656202657	0.823986911	0.014389232	0.148451053	0.045754056
2020-04-07T06:05:00	0.2559	5.523	167.0	0.654568743	0.821516435	0.014322266	0.147760180	0.045541122
2020-04-07T06:10:00	0.2552	5.521	172.0	0.652276491	0.818054393	0.014228594	0.146793777	0.045243268
2020-04-07T06:15:00	0.2562	5.523	173.0	0.655572109	0.823033254	0.014363370	0.148184237	0.045671821
2020-04-07T06:20:00	0.2551	5.525	173.0	0.651965301	0.817584743	0.014215902	0.146662836	0.045202910
2020-04-07T06:25:00	0.2560	5.528	172.0	0.654932631	0.822066436	0.014337166	0.147913898	0.045588500
2020-04-07T06:30:00	0.2549	5.531	172.0	0.651325184	0.816618929	0.014189813	0.146393682	0.045119955
2020-04-07T06:35:00	0.2551	5.534	172.0	0.651991784	0.817624708	0.014216981	0.146673977	0.045206344
2020-04-07T06:40:00	0.2544	5.539	172.0	0.649697893	0.814165236	0.014123603	0.145710609	0.044909425
2020-04-07T06:45:00	0.2557	5.544	173.0	0.653982024	0.820629873	0.014298259	0.147512506	0.045464787
2020-04-07T06:50:00	0.2547	5.551	172.0	0.650702614	0.815679927	0.014164463	0.146132155	0.045039349
2020-04-07T06:55:00	0.2549	5.561	173.0	0.651369329	0.816685526	0.014191611	0.146412236	0.045125673
2020-04-07T07:00:00	0.2539	5.570	167.0	0.648087541	0.811739306	0.014058241	0.145036286	0.044701592
2020-04-07T07:05:00	0.2548	5.583	168.0	0.651058062	0.816215998	0.014178933	0.146281441	0.045085361
2020-04-07T07:10:00	0.2539	5.596	173.0	0.648105215	0.811765920	0.014058958	0.145043678	0.044703870
2020-04-07T07:15:00	0.2537	5.613	168.0	0.647455573	0.810787876	0.014032634	0.144772100	0.044620167
2020-04-07T07:20:00	0.2529	5.633	173.0	0.644829295	0.806837646	0.013926478	0.143676908	0.044282618
2020-04-07T07:25:00	0.2535	5.655	173.0	0.646814654	0.809823316	0.014006689	0.144504428	0.044537668
2020-04-07T07:30:00	0.2527	5.680	168.0	0.644187908	0.805873817	0.013900617	0.143410099	0.044200385
2020-04-07T07:35:00	0.2521	5.707	168.0	0.642218802	0.802916975	0.013821376	0.142592592	0.043948422
2020-04-07T07:40:00	0.2525	5.743	174.0	0.643546407	0.804910165	0.013874776	0.143143502	0.044118217
2020-04-07T07:45:00	0.2511	5.777	174.0	0.638937512	0.797997056	0.013689855	0.141235713	0.043530218
2020-04-07T07:50:00	0.2518	5.813	174.0	0.641255980	0.801472384	0.013782716	0.142193745	0.043825493
2020-04-07T07:55:00	0.2523	5.856	174.0	0.642913640	0.803959979	0.013849311	0.142880788	0.044037246
2020-04-07T08:00:00	0.2517	5.908	173.0	0.640943836	0.801004222	0.013770195	0.142064566	0.043785679
2020-04-07T08:05:00	0.2518	5.965	174.0	0.641282541	0.801512226	0.013783782	0.142204741	0.043828882
2020-04-07T08:10:00	0.2501	6.022	174.0	0.635679823	0.793121566	0.013559927	0.139895267	0.043117080
2020-04-07T08:15:00	0.2514	6.085	177.0	0.639980671	0.799560162	0.013731596	0.141666348	0.043662944
2020-04-07T08:20:00	0.2516	6.151	172.0	0.640649376	0.800562659	0.013758389	0.141942760	0.043748137
2020-04-07T08:25:00	0.2502	6.212	175.0	0.636036760	0.793655321	0.013574131	0.140041812	0.043162247
2020-04-07T08:30:00	0.2490	6.270	177.0	0.632079628	0.787743945	0.013417087	0.138421616	0.042662886
2020-04-07T08:35:00	0.2494	6.335	176.0	0.633080414	0.789237719	0.013456715	0.138830450	0.042788893
2020-04-07T08:40:00	0.2509	6.404	176.0	0.638044705	0.796659976	0.013654183	0.140867687	0.043416789
2020-04-07T08:45:00	0.2496	6.484	179.0	0.633759279	0.790251477	0.013483631	0.139108131	0.042874477
2020-04-07T08:50:00	0.2485	6.562	181.0	0.630130507	0.784837118	0.013340082	0.137627171	0.042418031
2020-04-07T08:55:00	0.2496	6.639	175.0	0.633777023	0.790277981	0.013484334	0.139115393	0.042876715
2020-04-07T09:00:00	0.2489	6.725	172.0	0.631471471	0.786836623	0.013393036	0.138173482	0.042586409
2020-04-07T09:05:00	0.2488	6.813	177.0	0.631149595	0.786356537	0.013380315	0.138042247	0.042545961
2020-04-07T09:10:00	0.2481	6.895	177.0	0.628842348	0.782917784	0.013289317	0.137103431	0.042256609
2020-04-07T09:15:00	0.2499	6.982	178.0	0.634803945	0.791812253	0.013525104	0.139536002	0.043006351
2020-04-07T09:20:00	0.2487	7.075	180.0	0.630845450	0.785902977	0.013368301	0.137918300	0.042507760
2020-04-07T09:25:00	0.2481	7.177	175.0	0.628869002	0.782957484	0.013290366	0.137114258	0.042259946
2020-04-07T09:30:00	0.2492	7.284	180.0	0.632516804	0.788396370	0.013434391	0.138600131	0.042717906
2020-04-07T09:35:00	0.2483	7.391	181.0	0.629548667	0.783970012	0.013317140	0.137390478	0.042345080
2020-04-07T09:40:00	0.2478	7.485	181.0	0.627902586	0.781518440	0.013252345	0.136721996	0.042139047
2020-04-07T09:45:00	0.2489	7.579	182.0	0.631551373	0.786955813	0.013396195	0.138206069	0.042596453
2020-04-07T09:50:00	0.2489	7.667	183.0	0.631560251	0.786969056	0.013396546	0.138209690	0.042597569
2020-04-07T09:55:00	0.2488	7.752	184.0	0.631238383	0.786488958	0.013383824	0.138078441	0.042557116
2020-04-07T10:00:00	0.2485	7.833	182.0	0.630254845	0.785022454	0.013344988	0.137677780	0.042433629
2020-04-07T10:05:00	0.2496	7.910	183.0	0.633889406	0.790445842	0.013488793	0.139161391	0.042890892
2020-04-07T10:10:00	0.2499	7.997	183.0	0.634877860	0.791922720	0.013528041	0.139566301	0.043015690
2020-04-07T10:15:00	0.2497	8.094	184.0	0.634213992	0.790930725	0.013501675	0.139294287	0.042931852
2020-04-07T10:20:00	0.2502	8.195	184.0	0.635863085	0.793395599	0.013567219	0.139970498	0.043140267
2020-04-07T10:25:00	0.2496	8.294	184.0	0.633877576	0.790428172	0.013488324	0.139156549	0.042889400
2020-04-07T10:30:00	0.2514	8.390	185.0	0.639818998	0.799317844	0.013725123	0.141599561	0.043642360
2020-04-07T10:35:00	0.2506	8.489	185.0	0.637175313	0.795358613	0.013619492	0.140509793	0.043306483
2020-04-07T10:40:00	0.2511	8.589	186.0	0.638823045	0.797825590	0.013685279	0.141188500	0.043515667
2020-04-07T10:45:00	0.2520	8.691	186.0	0.641789419	0.802272643	0.013804128	0.142414649	0.043893578
2020-04-07T10:50:00	0.2515	8.800	186.0	0.640137144	0.799794705	0.013737863	0.141731001	0.043682871
2020-04-07T10:55:00	0.2514	8.916	187.0	0.639804235	0.799295719	0.013724532	0.141593464	0.043640481
2020-04-07T11:00:00	0.2498	9.034	188.0	0.634517851	0.791384725	0.013513739	0.139418757	0.042970215
2020-04-07T11:05:00	0.2514	9.163	188.0	0.639798330	0.799286869	0.013724295	0.141591025	0.043639729
2020-04-07T11:10:00	0.2502	9.299	189.0	0.635833527	0.793351399	0.013566043	0.139958363	0.043136527
2020-04-07T11:15:00	0.2505	9.431	190.0	0.636821445	0.794829104	0.013605386	0.140364256	0.043261627
2020-04-07T11:20:00	0.2503	9.564	193.0	0.636157938	0.793836553	0.013578956	0.140091582	0.043177586
2020-04-07T11:25:00	0.2499	9.703	192.0	0.634833511	0.791856439	0.013526278	0.139548121	0.043010086
2020-04-07T11:30:00	0.2512	9.853	192.0	0.639123561	0.798275770	0.013697295	0.141312467	0.043553875
2020-04-07T11:35:00	0.2514	9.999	191.0	0.639780615	0.799260319	0.013723586	0.141583708	0.043637474
2020-04-07T11:40:00	0.2507	10.142	192.0	0.637467103	0.795795313	0.013631130	0.140629859	0.043343488
2020-04-07T11:45:00	0.2511	10.273	193.0	0.638784652	0.797768082	0.013683744	0.141172666	0.043510787
2020-04-07T11:50:00	0.2504	10.399	190.0	0.636470498	0.794304070	0.013591403	0.140219996	0.043217165
2020-04-07T11:55:00	0.2512	10.516	190.0	0.639108795	0.798253649	0.013696704	0.141306375	0.043551997
2020-04-07T12:00:00	0.2512	10.621	191.0	0.639105842	0.798249225	0.013696586	0.141305156	0.043551621
2020-04-07T12:05:00	0.2497	10.722	191.0	0.634148935	0.790833532	0.013499092	0.139267645	0.042923641
2020-04-07T12:10:00	0.2494	10.819	192.0	0.633154364	0.789348131	0.013459646	0.138860684	0.042798211
2020-04-07T12:15:00	0.2503	10.908	193.0	0.636125427	0.793787929	0.013577661	0.140078228	0.043173470
2020-04-07T12:20:00	0.2500	10.993	193.0	0.635131405	0.792301682	0.013538117	0.139670262	0.043047731
2020-04-07T12:25:00	0.2499	11.072	193.0	0.634798031	0.791803416	0.013524869	0.139533578	0.043005604
2020-04-07T12:30:00	0.2506	11.142	193.0	0.637107355	0.795256916	0.013616783	0.140481838	0.043297867
2020-04-07T12:35:00	0.2511	11.204	199.0	0.638755118	0.797723845	0.013682564	0.141160487	0.043507033
2020-04-07T12:40:00	0.2508	11.259	198.0	0.637761824	0.796236471	0.013642890	0.140751184	0.043380882
2020-04-07T12:45:00	0.2501	11.310	199.0	0.635447010	0.792773480	0.013550666	0.139799726	0.043087633
2020-04-07T12:50:00	0.2502	11.348	198.0	0.635774411	0.793263001	0.013563690	0.139934094	0.043129047
2020-04-07T12:55:00	0.2493	11.379	198.0	0.632797141	0.788814820	0.013445492	0.138714665	0.042753207
2020-04-07T13:00:00	0.2507	11.405	198.0	0.637419832	0.795724560	0.013629245	0.140610404	0.043337492
2020-04-07T13:05:00	0.2513	11.422	198.0	0.639397476	0.798686167	0.013708252	0.141425510	0.043588716
2020-04-07T13:10:00	0.2502	11.424	198.0	0.635762588	0.793245321	0.013563220	0.139929240	0.043127551
2020-04-07T13:15:00	0.2502	11.418	198.0	0.635759632	0.793240901	0.013563102	0.139928027	0.043127177
2020-04-07T13:20:00	0.2505	11.395	199.0	0.636747570	0.794718575	0.013602442	0.140333882	0.043252265
2020-04-07T13:25:00	0.2497	11.367	197.0	0.634101620	0.790762848	0.013497214	0.139248271	0.042917669
2020-04-07T13:30:00	0.2500	11.336	200.0	0.635090015	0.792239816	0.013536472	0.139653289	0.043042500
2020-04-07T13:35:00	0.2489	11.304	195.0	0.631450755	0.786805722	0.013392217	0.138165033	0.042583805
2020-04-07T13:40:00	0.2503	11.265	195.0	0.636075182	0.793712784	0.013575661	0.140057592	0.043167110
2020-04-07T13:45:00	0.2502	11.235	195.0	0.635741897	0.793214382	0.013562397	0.139920747	0.043124933
2020-04-07T13:50:00	0.2484	11.207	195.0	0.629787785	0.784326332	0.013326566	0.137487726	0.042375053
2020-04-07T13:55:00	0.2500	11.177	194.0	0.635075233	0.792217721	0.013535885	0.139647227	0.043040632
2020-04-07T14:00:00	0.2488	11.143	193.0	0.631105200	0.786290328	0.013378561	0.138024151	0.042540384
2020-04-07T14:05:00	0.2485	11.108	195.0	0.630109783	0.784806229	0.013339265	0.137618737	0.042415431
2020-04-07T14:10:00	0.2484	11.079	194.0	0.629775942	0.784308683	0.013326099	0.137482909	0.042373568
2020-04-07T14:15:00	0.2487	11.050	194.0	0.630765532	0.785783811	0.013365145	0.137885741	0.042497725
2020-04-07T14:20:00	0.2478	11.025	194.0	0.627784091	0.781342049	0.013247686	0.136673940	0.042124236
2020-04-07T14:25:00	0.2472	11.004	191.0	0.625794093	0.778381524	0.013169586	0.135868194	0.041875897
2020-04-07T14:30:00	0.2484	10.981	191.0	0.630094981	0.784784166	0.013338681	0.137612713	0.042413575
2020-04-07T14:35:00	0.2480	10.959	190.0	0.628768309	0.782807509	0.013286402	0.137073360	0.042247341
2020-04-07T14:40:00	0.2481	10.938	190.0	0.629096321	0.783296088	0.013299318	0.137206610	0.042288410
2020-04-07T14:45:00	0.2475	10.911	190.0	0.627107054	0.780334444	0.013221088	0.136399532	0.042039660
2020-04-07T14:50:00	0.2480	10.888	190.0	0.628759424	0.782794276	0.013286052	0.137069751	0.042246229
2020-04-07T14:55:00	0.2476	10.865	190.0	0.627432256	0.780818380	0.013233861	0.136531303	0.042080274
2020-04-07T15:00:00	0.2475	10.843	190.0	0.627098165	0.780321217	0.013220739	0.136395931	0.042038551
2020-04-07T15:05:00	0.2479	10.821	190.0	0.628419533	0.782288102	0.013272676	0.136931749	0.042203695
2020-04-07T15:10:00	0.2469	10.798	190.0	0.625104820	0.777356872	0.013142591	0.135589685	0.041790058
2020-04-07T15:15:00	0.2469	10.777	189.0	0.625101856	0.777352466	0.013142475	0.135588488	0.041789689
2020-04-07T15:20:00	0.2474	10.754	190.0	0.626755153	0.779810877	0.013207275	0.136257017	0.041995736
2020-04-07T15:25:00	0.2474	10.732	190.0	0.626752190	0.779806469	0.013207158	0.136255817	0.041995366
2020-04-07T15:30:00	0.2480	10.714	191.0	0.628735731	0.782758989	0.013285120	0.137060129	0.042243263
2020-04-07T15:35:00	0.2464	10.695	190.0	0.623432963	0.774873204	0.013077231	0.134915380	0.041582231
2020-04-07T15:40:00	0.2474	10.671	190.0	0.626743300	0.779793244	0.013206809	0.136252218	0.041994257
2020-04-07T15:45:00	0.2471	10.649	191.0	0.625746667	0.778311010	0.013167728	0.135849022	0.041869988
2020-04-07T15:50:00	0.2480	10.629	191.0	0.628723884	0.782741345	0.013284653	0.137055318	0.042241780
2020-04-07T15:55:00	0.2473	10.606	191.0	0.626403217	0.779287364	0.013193467	0.136114565	0.041951831
2020-04-07T16:00:00	0.2470	10.582	190.0	0.625406490	0.777805275	0.013154402	0.135711542	0.041827615
2020-04-07T16:05:00	0.2463	10.561	190.0	0.623136533	0.774433083	0.013065660	0.134796004	0.041545438
2020-04-07T16:10:00	0.2471	10.542	190.0	0.625506228	0.777953543	0.013158308	0.135751843	0.041840036
2020-04-07T16:15:00	0.2469	10.521	191.0	0.624893460	0.777042751	0.013134318	0.135504342	0.041763754
2020-04-07T16:20:00	0.2469	10.501	191.0	0.624943337	0.777116873	0.013136270	0.135524479	0.041769961
2020-04-07T16:25:00	0.2472	10.481	190.0	0.625987091	0.778668501	0.013177150	0.135946231	0.041899949
2020-04-07T16:30:00	0.2467	10.458	190.0	0.624380357	0.776280339	0.013114248	0.135297276	0.041699935
2020-04-07T16:35:00	0.2458	10.435	191.0	0.621446473	0.771925194	0.012999790	0.134116439	0.041335989
2020-04-07T16:40:00	0.2473	10.411	190.0	0.626136672	0.778890942	0.013183014	0.136006728	0.041918594
2020-04-07T16:45:00	0.2473	10.387	191.0	0.626186531	0.778965091	0.013184969	0.136026896	0.041924811
2020-04-07T16:50:00	0.2474	10.362	190.0	0.626567598	0.779531872	0.013199915	0.136181091	0.041972335
2020-04-07T16:55:00	0.2463	10.338	190.0	0.622972520	0.774189597	0.013059260	0.134729977	0.041525087
2020-04-07T17:00:00	0.2456	10.313	190.0	0.620701014	0.770819770	0.012970791	0.133817258	0.041243779
2020-04-07T17:05:00	0.2470	10.285	197.0	0.625392193	0.777784023	0.013153842	0.135705766	0.041825835
2020-04-07T17:10:00	0.2478	10.257	191.0	0.628091458	0.781799618	0.013259771	0.136798612	0.042162661
2020-04-07T17:15:00	0.2480	10.228	191.0	0.628472322	0.782366711	0.013274753	0.136953177	0.042210299
2020-04-07T17:20:00	0.2466	10.198	191.0	0.623884975	0.775544468	0.013094885	0.135097517	0.041638367
2020-04-07T17:25:00	0.2475	10.167	191.0	0.626916555	0.780051001	0.013213609	0.136322373	0.042015879
2020-04-07T17:30:00	0.2478	10.134	192.0	0.627959733	0.781603512	0.013254591	0.136745175	0.042146191
2020-04-07T17:35:00	0.2480	10.101	192.0	0.628671624	0.782663513	0.013282596	0.137034096	0.042235239
2020-04-07T17:40:00	0.2473	10.065	192.0	0.626403742	0.779288145	0.013193487	0.136114777	0.041951896
2020-04-07T17:45:00	0.2476	10.029	192.0	0.627447070	0.780840426	0.013234443	0.136537307	0.042082124
2020-04-07T17:50:00	0.2486	9.991	192.0	0.630475631	0.785351586	0.013353701	0.137767668	0.042461333
2020-04-07T17:55:00	0.2488	9.952	191.0	0.631187021	0.786412355	0.013381794	0.138057503	0.042550663
2020-04-07T18:00:00	0.2485	9.912	192.0	0.630244390	0.785006870	0.013344575	0.137673524	0.042432317
2020-04-07T18:05:00	0.2493	9.873	193.0	0.632939997	0.789028082	0.013451151	0.138773050	0.042771202
2020-04-07T18:10:00	0.2492	9.832	192.0	0.632659147	0.788608833	0.013440027	0.138658280	0.042735829
2020-04-07T18:15:00	0.2492	9.793	192.0	0.632708915	0.788683121	0.013441998	0.138678615	0.042742096
2020-04-07T18:20:00	0.2502	9.754	192.0	0.635733029	0.793201123	0.013562044	0.139917107	0.043123811
2020-04-07T18:25:00	0.2503	9.714	192.0	0.636113081	0.793769465	0.013577170	0.140073157	0.043171907
2020-04-07T18:30:00	0.2515	9.675	191.0	0.640124288	0.799775435	0.013737348	0.141725689	0.043681234
2020-04-07T18:35:00	0.2512	9.637	191.0	0.639184005	0.798366325	0.013699712	0.141337408	0.043561562
2020-04-07T18:40:00	0.2517	9.599	191.0	0.640883422	0.800913620	0.013767772	0.142039570	0.043777975
2020-04-07T18:45:00	0.2518	9.560	185.0	0.641262928	0.801482807	0.013782995	0.142196622	0.043826380
2020-04-07T18:50:00	0.2530	9.523	185.0	0.645268391	0.807497690	0.013944197	0.143859715	0.044338961
2020-04-07T18:55:00	0.2521	9.484	184.0	0.642021821	0.802621366	0.013813462	0.142510945	0.043923257
2020-04-07T19:00:00	0.2538	9.447	184.0	0.647673066	0.811115274	0.014041444	0.144862991	0.044648181
2020-04-07T19:05:00	0.2542	9.409	185.0	0.649039367	0.813172927	0.014096855	0.145434659	0.044824374
2020-04-07T19:10:00	0.2550	9.372	184.0	0.651720912	0.817215966	0.014205938	0.146560046	0.045171230
2020-04-07T19:15:00	0.2554	9.335	184.0	0.653085681	0.819276020	0.014261624	0.147134549	0.045348297
2020-04-07T19:20:00	0.2554	9.299	184.0	0.653135167	0.819350747	0.014263646	0.147155403	0.045354724
2020-04-07T19:25:00	0.2548	9.264	184.0	0.650882689	0.815951496	0.014171793	0.146207775	0.045062656
2020-04-07T19:30:00	0.2550	9.226	184.0	0.651590050	0.817018520	0.014200605	0.146505021	0.045154270
2020-04-07T19:35:00	0.2559	9.190	184.0	0.654598334	0.821561156	0.014323477	0.147772676	0.045544974
2020-04-07T19:40:00	0.2547	9.152	184.0	0.650702278	0.815679422	0.014164449	0.146132014	0.045039306
2020-04-07T19:45:00	0.2558	9.117	184.0	0.654368640	0.821214036	0.014314076	0.147675685	0.045515080
2020-04-07T19:50:00	0.2557	9.080	183.0	0.654089459	0.820792190	0.014302654	0.147557842	0.045478760
2020-04-07T19:55:00	0.2564	9.044	183.0	0.656438819	0.824344177	0.014398924	0.148551049	0.045784876
2020-04-07T20:00:00	0.2548	9.008	183.0	0.650900350	0.815978131	0.014172512	0.146215193	0.045064942
2020-04-07T20:05:00	0.2548	8.973	182.0	0.650949866	0.816052811	0.014174528	0.146235991	0.045071353
2020-04-07T20:10:00	0.2560	8.936	183.0	0.654944578	0.822084495	0.014337655	0.147918946	0.045590056
2020-04-07T20:15:00	0.2565	8.900	183.0	0.656636576	0.824643380	0.014407043	0.148634811	0.045810692
2020-04-07T20:20:00	0.2562	8.865	183.0	0.655700594	0.823227550	0.014368638	0.148238585	0.045688571
2020-04-07T20:25:00	0.2562	8.833	183.0	0.655750045	0.823302333	0.014370665	0.148259504	0.045695019
2020-04-07T20:30:00	0.2546	8.798	183.0	0.650539521	0.815433994	0.014157826	0.146063683	0.045018246
2020-04-07T20:35:00	0.2559	8.763	180.0	0.654534686	0.821464965	0.014320872	0.147745797	0.045536690
2020-04-07T20:40:00	0.2558	8.730	184.0	0.654255518	0.821043100	0.014309447	0.147627930	0.045500362
2020-04-07T20:45:00	0.2564	8.694	182.0	0.656276320	0.824098343	0.014392255	0.148482239	0.045763668
2020-04-07T20:50:00	0.2558	8.660	181.0	0.654354458	0.821192605	0.014313496	0.147669698	0.045513235
2020-04-07T20:55:00	0.2560	8.627	181.0	0.655061139	0.822260697	0.014342430	0.147968204	0.045605237
2020-04-07T21:00:00	0.2571	8.594	181.0	0.658723079	0.827802261	0.014492851	0.149520075	0.046083539
2020-04-07T21:05:00	0.2565	8.560	181.0	0.656474086	0.824397532	0.014400372	0.148565985	0.045789479
2020-04-07T21:10:00	0.2560	8.529	181.0	0.654880937	0.821988295	0.014335049	0.147892055	0.045581768
2020-04-07T21:15:00	0.2554	8.496	180.0	0.652958332	0.819083725	0.014256423	0.147080892	0.045331759
2020-04-07T21:20:00	0.2570	8.462	180.0	0.658264201	0.827107219	0.014473957	0.149325146	0.046023460
2020-04-07T21:25:00	0.2560	8.430	179.0	0.655029319	0.822212595	0.014341126	0.147954756	0.045601093
2020-04-07T21:30:00	0.2560	8.397	180.0	0.655078779	0.822287364	0.014343152	0.147975659	0.045607535
2020-04-07T21:35:00	0.2552	8.365	179.0	0.652498720	0.818389836	0.014237661	0.146887323	0.045272099
2020-04-07T21:40:00	0.2540	8.333	180.0	0.648271215	0.812015892	0.014065689	0.145113116	0.044725272
2020-04-07T21:45:00	0.2547	8.301	181.0	0.650624366	0.815561932	0.014161279	0.146099302	0.045029224
2020-04-07T21:50:00	0.2549	8.270	179.0	0.651331778	0.816628877	0.014190081	0.146396454	0.045120809
2020-04-07T21:55:00	0.2546	8.238	178.0	0.650394419	0.815215209	0.014151923	0.146002779	0.044999475
2020-04-07T22:00:00	0.2556	8.206	178.0	0.653732411	0.820252783	0.014288052	0.147407202	0.045432331
2020-04-07T22:05:00	0.2550	8.175	179.0	0.651564608	0.816980133	0.014199568	0.146494324	0.045150973
2020-04-07T22:10:00	0.2546	8.145	178.0	0.650382643	0.815197455	0.014151444	0.145997837	0.044997951
2020-04-07T22:15:00	0.2543	8.114	178.0	0.649529387	0.813911285	0.014116756	0.145639972	0.044887654
2020-04-07T22:20:00	0.2557	8.083	178.0	0.653938618	0.820564295	0.014296484	0.147494192	0.045459142
2020-04-07T22:25:00	0.2556	8.053	177.0	0.653743654	0.820269767	0.014288512	0.147411944	0.045433793
2020-04-07T22:30:00	0.2562	8.022	177.0	0.655520424	0.822955098	0.014361251	0.148162377	0.045665084
2020-04-07T22:35:00	0.2572	7.990	180.0	0.658937812	0.828127569	0.014501697	0.149611338	0.046111668
2020-04-07T22:40:00	0.2570	7.959	180.0	0.658414862	0.827335398	0.014480159	0.149389131	0.046043181
2020-04-07T22:45:00	0.2568	7.929	180.0	0.657563502	0.826046248	0.014445131	0.149027749	0.045931800
2020-04-07T22:50:00	0.2575	7.898	180.0	0.659994710	0.829729285	0.014545278	0.150060953	0.046250243
2020-04-07T22:55:00	0.2582	7.869	179.0	0.662096364	0.832917155	0.014632142	0.150957115	0.046526449
2020-04-07T23:00:00	0.2582	7.838	179.0	0.662229780	0.833119653	0.014637666	0.151014099	0.046544012
2020-04-07T23:05:00	0.2585	7.808	179.0	0.663346798	0.834815655	0.014683953	0.151491636	0.046691193
2020-04-07T23:10:00	0.2575	7.778	179.0	0.659872436	0.829543931	0.014540233	0.150008900	0.046234200
2020-04-07T23:15:00	0.2579	7.749	179.0	0.661318204	0.831736371	0.014599948	0.150624976	0.046424080
2020-04-07T23:20:00	0.2578	7.718	179.0	0.660795597	0.830943656	0.014578348	0.150402128	0.046355397
2020-04-07T23:25:00	0.2590	7.687	178.0	0.664863443	0.837120136	0.014746923	0.152141281	0.046891421
2020-04-07T23:30:00	0.2581	7.657	178.0	0.662046480	0.832841445	0.014630077	0.150935812	0.046519883
2020-04-07T23:35:00	0.2592	7.627	179.0	0.665457714	0.838023645	0.014771635	0.152396231	0.046969999
2020-04-07T23:40:00	0.2596	7.597	178.0	0.666901256	0.840219614	0.014831753	0.153016460	0.047161159
2020-04-07T23:45:00	0.2598	7.567	178.0	0.667361971	0.840920848	0.014850967	0.153214688	0.047222255
2020-04-07T23:50:00	0.2590	7.538	178.0	0.664874651	0.837137174	0.014747388	0.152146088	0.046892902
2020-04-07T23:55:00	0.2585	7.509	178.0	0.663041387	0.834351835	0.014671290	0.151360991	0.046650927
2020-04-08T00:00:00	0.2595	7.477	178.0	0.666451685	0.839535519	0.014813016	0.152823157	0.047101581
2020-04-08T00:05:00	0.2587	7.448	178.0	0.663963741	0.835752838	0.014709551	0.151755724	0.046772588
2020-04-08T00:10:00	0.2601	7.421	178.0	0.668355421	0.842433552	0.014892443	0.153642589	0.047354138
2020-04-08T00:15:00	0.2595	7.391	177.0	0.666523916	0.839645418	0.014816026	0.152854206	0.047111151
2020-04-08T00:20:00	0.2596	7.362	176.0	0.666657169	0.839848174	0.014821579	0.152911494	0.047128807
2020-04-08T00:25:00	0.2588	7.333	176.0	0.664169365	0.836065269	0.014718088	0.151843797	0.046799733
2020-04-08T00:30:00	0.2593	7.305	176.0	0.665941024	0.838758675	0.014791748	0.152603742	0.047033955
2020-04-08T00:35:00	0.2597	7.275	178.0	0.667056899	0.840456491	0.014838242	0.153083412	0.047181794
2020-04-08T00:40:00	0.2585	7.246	177.0	0.663258278	0.834681214	0.014680282	0.151453764	0.046679521
2020-04-08T00:45:00	0.2584	7.217	176.0	0.662735951	0.833888056	0.014658631	0.151230395	0.046610676
2020-04-08T00:50:00	0.2575	7.188	175.0	0.659917332	0.829611987	0.014542085	0.150028012	0.046240090
2020-04-08T00:55:00	0.2570	7.160	176.0	0.658409842	0.827327795	0.014479952	0.149386999	0.046042524
2020-04-08T01:00:00	0.2576	7.130	176.0	0.660184320	0.830016737	0.014553104	0.150141690	0.046275127
2020-04-08T01:05:00	0.2588	7.101	176.0	0.664252852	0.836192131	0.014721554	0.151879563	0.046810756
2020-04-08T01:10:00	0.2587	7.072	176.0	0.663730668	0.835398745	0.014699878	0.151655927	0.046741830
2020-04-08T01:15:00	0.2581	7.043	176.0	0.661896825	0.832614324	0.014623883	0.150871910	0.046500188
2020-04-08T01:20:00	0.2584	7.015	175.0	0.663013945	0.834310164	0.014670152	0.151349255	0.046647310
2020-04-08T01:25:00	0.2577	6.986	175.0	0.660523638	0.830531227	0.014567114	0.150286229	0.046319675
2020-04-08T01:30:00	0.2579	6.958	175.0	0.661313189	0.831728762	0.014599741	0.150622836	0.046423421
2020-04-08T01:35:00	0.2575	6.931	175.0	0.659806280	0.829443651	0.014537503	0.149980741	0.046225521
2020-04-08T01:40:00	0.2580	6.902	175.0	0.661580073	0.832133675	0.014610778	0.150736706	0.046458517
2020-04-08T01:45:00	0.2580	6.872	175.0	0.661713508	0.832336143	0.014616298	0.150793654	0.046476069
2020-04-08T01:50:00	0.2570	6.844	174.0	0.658237578	0.827066900	0.014472861	0.149313841	0.046019976
2020-04-08T01:55:00	0.2579	6.815	175.0	0.661324408	0.831745783	0.014600205	0.150627622	0.046424896
2020-04-08T02:00:00	0.2583	6.788	175.0	0.662441705	0.833441343	0.014646442	0.151104639	0.046571917
2020-04-08T02:05:00	0.2580	6.760	176.0	0.661591292	0.832150697	0.014611242	0.150741494	0.046459992
2020-04-08T02:10:00	0.2585	6.733	176.0	0.663036374	0.834344222	0.014671082	0.151358847	0.046650267
2020-04-08T02:15:00	0.2584	6.705	176.0	0.662841900	0.834048922	0.014663021	0.151275689	0.046624637
2020-04-08T02:20:00	0.2581	6.677	176.0	0.661991581	0.832758127	0.014627805	0.150912369	0.046512658
2020-04-08T02:25:00	0.2582	6.649	175.0	0.662125001	0.832960619	0.014633328	0.150969346	0.046530218
2020-04-08T02:30:00	0.2581	6.622	176.0	0.661930478	0.832665396	0.014625276	0.150886279	0.046504616
2020-04-08T02:35:00	0.2572	6.595	175.0	0.658783009	0.827893048	0.014495320	0.149545543	0.046091389
2020-04-08T02:40:00	0.2569	6.568	175.0	0.657931736	0.826603762	0.014460276	0.149184000	0.045979958
2020-04-08T02:45:00	0.2575	6.542	175.0	0.660034588	0.829789738	0.014546924	0.150077931	0.046255476
2020-04-08T02:50:00	0.2565	6.515	175.0	0.656557043	0.824523044	0.014403778	0.148601121	0.045800309
2020-04-08T02:55:00	0.2564	6.488	175.0	0.656362221	0.824228293	0.014395780	0.148518612	0.045774879
2020-04-08T03:00:00	0.2560	6.462	175.0	0.654853247	0.821946440	0.014333915	0.147880356	0.045578162
2020-04-08T03:05:00	0.2557	6.436	174.0	0.654001047	0.820658613	0.014299037	0.147520533	0.045467261
2020-04-08T03:10:00	0.2560	6.408	174.0	0.655120609	0.822350600	0.014344866	0.147993338	0.045612984
2020-04-08T03:15:00	0.2559	6.381	174.0	0.654597105	0.821559299	0.014323427	0.147772158	0.045544814
2020-04-08T03:20:00	0.2551	6.354	173.0	0.652100991	0.817789518	0.014221435	0.146719923	0.045220505
2020-04-08T03:25:00	0.2554	6.328	174.0	0.652892384	0.818984150	0.014253730	0.147053109	0.045323196
2020-04-08T03:30:00	0.2556	6.302	174.0	0.653683603	0.820179056	0.014286057	0.147386616	0.045425986
2020-04-08T03:35:00	0.2546	6.275	173.0	0.650528938	0.815418037	0.014157396	0.146059241	0.045016877
2020-04-08T03:40:00	0.2554	6.249	173.0	0.652964885	0.819093621	0.014256691	0.147083653	0.045332610
2020-04-08T03:45:00	0.2551	6.221	174.0	0.652112240	0.817806494	0.014221894	0.146724656	0.045221964
2020-04-08T03:50:00	0.2551	6.194	173.0	0.651917177	0.817512121	0.014213939	0.146642592	0.045196671
2020-04-08T03:55:00	0.2545	6.168	169.0	0.650077328	0.814737162	0.014139027	0.145869732	0.044958468
2020-04-08T04:00:00	0.2553	6.141	174.0	0.652842373	0.818908642	0.014251688	0.147032042	0.045316703
2020-04-08T04:05:00	0.2554	6.114	172.0	0.652877153	0.818961155	0.014253109	0.147046693	0.045321219
2020-04-08T04:10:00	0.2556	6.089	173.0	0.653569417	0.820006579	0.014281389	0.147338461	0.045411145
2020-04-08T04:15:00	0.2551	6.063	174.0	0.651960273	0.817577155	0.014215697	0.146660721	0.045202258
2020-04-08T04:20:00	0.2561	6.038	174.0	0.655282118	0.822594776	0.014351484	0.148061611	0.045634026
2020-04-08T04:25:00	0.2567	6.013	174.0	0.657287654	0.825628687	0.014433791	0.148910756	0.045895741
2020-04-08T04:30:00	0.2573	5.986	174.0	0.659292079	0.828664349	0.014516298	0.149761968	0.046158093
2020-04-08T04:35:00	0.2568	5.961	174.0	0.657685482	0.826230916	0.014450147	0.149079499	0.045947749
2020-04-08T04:40:00	0.2574	5.935	174.0	0.659689686	0.829266926	0.014532694	0.149931120	0.046210227
2020-04-08T04:45:00	0.2583	5.910	173.0	0.662676569	0.833797898	0.014656171	0.151205011	0.046602853
2020-04-08T04:50:00	0.2578	5.886	173.0	0.660743429	0.830864537	0.014576193	0.150379893	0.046348543
2020-04-08T04:55:00	0.2588	5.863	173.0	0.664057218	0.835894865	0.014713431	0.151795759	0.046784927
2020-04-08T05:00:00	0.2583	5.842	173.0	0.662452736	0.833458088	0.014646899	0.151109352	0.046573370
2020-04-08T05:05:00	0.2593	5.821	173.0	0.665764962	0.838490892	0.014784420	0.152528132	0.047010652
2020-04-08T05:10:00	0.2599	5.802	173.0	0.667764702	0.841533975	0.014867773	0.153388078	0.047275695
2020-04-08T05:15:00	0.2599	5.782	173.0	0.667799339	0.841586714	0.014869219	0.153402995	0.047280293
2020-04-08T05:20:00	0.2592	5.762	172.0	0.665541320	0.838150779	0.014775113	0.152432117	0.046981059
2020-04-08T05:25:00	0.2594	5.742	173.0	0.666231165	0.839200024	0.014803830	0.152728386	0.047072372
2020-04-08T05:30:00	0.2605	5.722	172.0	0.669867194	0.844737121	0.014955675	0.154294945	0.047555200
2020-04-08T05:35:00	0.2614	5.704	173.0	0.672845711	0.849281390	0.015080668	0.155584470	0.047952645
2020-04-08T05:40:00	0.2617	5.686	173.0	0.673534170	0.850332844	0.015109637	0.155883335	0.048044758
2020-04-08T05:45:00	0.2638	5.670	172.0	0.680427240	0.860882825	0.015401292	0.158892287	0.048972146
2020-04-08T05:50:00	0.2635	5.654	172.0	0.679482773	0.859434879	0.015361157	0.158478221	0.048844527
2020-04-08T05:55:00	0.2632	5.637	173.0	0.678538061	0.857987327	0.015321066	0.158064616	0.048717050
2020-04-08T06:00:00	0.2638	5.621	172.0	0.680530791	0.861041623	0.015405695	0.158937720	0.048986149
2020-04-08T06:05:00	0.2641	5.607	172.0	0.681544001	0.862595902	0.015448819	0.159382623	0.049123272
2020-04-08T06:10:00	0.2629	5.594	172.0	0.677662191	0.856645947	0.015283947	0.157681659	0.048599019
2020-04-08T06:15:00	0.2655	5.584	173.0	0.686176700	0.869713816	0.015646804	0.161425197	0.049752814
2020-04-08T06:20:00	0.2652	5.574	167.0	0.685233719	0.868263470	0.015606397	0.161008323	0.049624329
2020-04-08T06:25:00	0.2647	5.565	167.0	0.683312537	0.865310985	0.015524244	0.160160760	0.049363102
2020-04-08T06:30:00	0.2642	5.557	173.0	0.681716530	0.862860653	0.015456169	0.159458446	0.049146642
2020-04-08T06:35:00	0.2640	5.550	172.0	0.681098638	0.861912601	0.015429856	0.159186982	0.049062974
2020-04-08T06:40:00	0.2645	5.544	173.0	0.682763906	0.864468430	0.015500825	0.159919155	0.049288637
2020-04-08T06:45:00	0.2656	5.538	172.0	0.686383471	0.870031942	0.015655672	0.161516683	0.049781010
2020-04-08T06:50:00	0.2660	5.533	172.0	0.687720710	0.872090230	0.015713085	0.162109003	0.049963569
2020-04-08T06:55:00	0.2662	5.531	172.0	0.688406367	0.873146197	0.015742566	0.162413153	0.050057311
2020-04-08T07:00:00	0.2654	5.529	172.0	0.685835302	0.869188642	0.015632169	0.161274206	0.049706277
2020-04-08T07:05:00	0.2651	5.530	171.0	0.684892233	0.867738439	0.015591778	0.160857498	0.049577843
2020-04-08T07:10:00	0.2655	5.533	172.0	0.686230017	0.869795843	0.015649091	0.161448785	0.049760083
2020-04-08T07:15:00	0.2656	5.541	171.0	0.686264479	0.869848864	0.015650569	0.161464032	0.049764783
2020-04-08T07:20:00	0.2657	5.552	172.0	0.686624690	0.870403113	0.015666020	0.161623445	0.049813915
2020-04-08T07:25:00	0.2660	5.568	172.0	0.687636211	0.871960122	0.015709454	0.162071541	0.049952023
2020-04-08T07:30:00	0.2654	5.589	172.0	0.685716292	0.869005593	0.015627069	0.161221588	0.049690059
2020-04-08T07:35:00	0.2656	5.614	173.0	0.686402325	0.870060951	0.015656481	0.161525026	0.049783582
2020-04-08T07:40:00	0.2665	5.647	173.0	0.689367369	0.874626902	0.015783935	0.162839949	0.050188854
2020-04-08T07:45:00	0.2657	5.682	173.0	0.686796979	0.870668252	0.015673414	0.161699721	0.049837425
2020-04-08T07:50:00	0.2663	5.717	173.0	0.688785208	0.873729818	0.015758868	0.162581332	0.050109145
2020-04-08T07:55:00	0.2660	5.761	173.0	0.687842900	0.872278382	0.015718337	0.162163183	0.049980268
2020-04-08T08:00:00	0.2647	5.819	173.0	0.683315786	0.865315976	0.015524382	0.160162192	0.049363543
2020-04-08T08:05:00	0.2658	5.881	173.0	0.686934805	0.870880372	0.015679330	0.161760754	0.049856235
2020-04-08T08:10:00	0.2651	5.941	174.0	0.684688625	0.867425443	0.015583065	0.160767606	0.049550137
2020-04-08T08:15:00	0.2662	6.004	174.0	0.688306285	0.872992038	0.015738261	0.162368739	0.050043622
2020-04-08T08:20:00	0.2642	6.065	174.0	0.681823294	0.863024499	0.015460718	0.159505376	0.049161106
2020-04-08T08:25:00	0.2642	6.133	175.0	0.681857798	0.863077452	0.015462188	0.159520545	0.049165781
2020-04-08T08:30:00	0.2645	6.198	175.0	0.682870640	0.864632325	0.015505380	0.159966143	0.049303119
2020-04-08T08:35:00	0.2647	6.272	175.0	0.683557208	0.865686819	0.015534694	0.160268570	0.049396330
2020-04-08T08:40:00	0.2651	6.343	175.0	0.684895481	0.867743433	0.015591917	0.160858932	0.049578285
2020-04-08T08:45:00	0.2654	6.422	175.0	0.685907481	0.869299667	0.015635263	0.161306122	0.049716114
2020-04-08T08:50:00	0.2648	6.502	175.0	0.683660669	0.865845760	0.015539114	0.160314170	0.049410384
2020-04-08T08:55:00	0.2663	6.584	176.0	0.688581818	0.873416470	0.015750115	0.162491029	0.050081313
2020-04-08T09:00:00	0.2649	6.668	176.0	0.684055619	0.866452581	0.015555992	0.160488304	0.049464054
2020-04-08T09:05:00	0.2653	6.757	177.0	0.685393710	0.868509490	0.015613249	0.161079012	0.049646116
2020-04-08T09:10:00	0.2658	6.840	177.0	0.687057021	0.871068482	0.015684576	0.161814884	0.049872919
2020-04-08T09:15:00	0.2652	6.931	178.0	0.685136798	0.868114445	0.015602247	0.160965508	0.049611133
2020-04-08T09:20:00	0.2643	7.025	178.0	0.682237319	0.863659973	0.015478365	0.159687438	0.049217219
2020-04-08T09:25:00	0.2647	7.123	179.0	0.683576076	0.865715805	0.015535500	0.160276886	0.049398893
2020-04-08T09:30:00	0.2649	7.227	180.0	0.684262511	0.866770513	0.015564838	0.160579563	0.049492181
2020-04-08T09:35:00	0.2656	7.335	180.0	0.686252119	0.869829847	0.015650039	0.161458563	0.049763097
2020-04-08T09:40:00	0.2657	7.437	180.0	0.686612331	0.870384094	0.015665490	0.161617974	0.049812229
2020-04-08T09:45:00	0.2641	7.525	180.0	0.681431354	0.862423056	0.015444022	0.159333127	0.049108017
2020-04-08T09:50:00	0.2640	7.608	181.0	0.681139652	0.861975519	0.015431602	0.159204994	0.049068525
2020-04-08T09:55:00	0.2646	7.684	181.0	0.683130962	0.865032103	0.015516491	0.160080777	0.049338450
2020-04-08T10:00:00	0.2629	7.760	181.0	0.677618512	0.856579071	0.015282097	0.157662574	0.048593137
2020-04-08T10:05:00	0.2616	7.824	181.0	0.673356402	0.850061308	0.015102154	0.155806136	0.048020964
2020-04-08T10:10:00	0.2617	7.897	181.0	0.673668684	0.850538329	0.015115300	0.155941764	0.048062766
2020-04-08T10:15:00	0.2600	7.981	182.0	0.668092594	0.842033269	0.014881464	0.153529323	0.047319228
2020-04-08T10:20:00	0.2603	8.071	182.0	0.669060005	0.843506920	0.014921896	0.153946449	0.047447791
2020-04-08T10:25:00	0.2606	8.163	182.0	0.670027158	0.844980981	0.014962374	0.154364057	0.047576501
2020-04-08T10:30:00	0.2608	8.255	182.0	0.670666904	0.845956476	0.014989181	0.154640620	0.047661741
2020-04-08T10:35:00	0.2605	8.348	183.0	0.669670640	0.844437510	0.014947446	0.154210046	0.047529034
2020-04-08T10:40:00	0.2598	8.443	184.0	0.667364493	0.840924687	0.014851072	0.153215774	0.047222590
2020-04-08T10:45:00	0.2611	8.539	184.0	0.671604363	0.847386562	0.015028509	0.155046354	0.047786792
2020-04-08T10:50:00	0.2611	8.640	185.0	0.671589730	0.847364233	0.015027894	0.155040016	0.047784839
2020-04-08T10:55:00	0.2598	8.751	185.0	0.667320542	0.840857783	0.014849239	0.153196857	0.047216759
2020-04-08T11:00:00	0.2598	8.865	186.0	0.667305892	0.840835482	0.014848627	0.153190552	0.047214816
2020-04-08T11:05:00	0.2610	8.988	186.0	0.671545830	0.847297248	0.015026052	0.155021004	0.047778979
2020-04-08T11:10:00	0.2599	9.118	187.0	0.667931470	0.841787908	0.014874736	0.153459908	0.047297834
2020-04-08T11:15:00	0.2586	9.250	187.0	0.663657974	0.835288315	0.014696861	0.151624808	0.046732238
2020-04-08T11:20:00	0.2598	9.386	188.0	0.667574746	0.841244765	0.014859845	0.153306283	0.047250485
2020-04-08T11:25:00	0.2590	9.528	189.0	0.664939602	0.837235908	0.014750088	0.152173942	0.046901487
2020-04-08T11:30:00	0.2589	9.683	189.0	0.664597245	0.836715517	0.014735860	0.152027152	0.046856245
2020-04-08T11:35:00	0.2595	9.837	190.0	0.666548326	0.839682559	0.014817043	0.152864699	0.047114385
2020-04-08T11:40:00	0.2592	9.982	191.0	0.665550931	0.838165395	0.014775513	0.152436242	0.046982330
2020-04-08T11:45:00	0.2581	10.116	192.0	0.661930590	0.832665565	0.014625281	0.150886326	0.046504631
2020-04-08T11:50:00	0.2592	10.246	192.0	0.665521615	0.838120815	0.014774293	0.152423659	0.046978452
2020-04-08T11:55:00	0.2602	10.371	192.0	0.668781769	0.843083003	0.014910261	0.153826419	0.047410796
2020-04-08T12:00:00	0.2591	10.482	193.0	0.665164655	0.837578049	0.014759445	0.152270477	0.046931240
2020-04-08T12:05:00	0.2587	10.588	193.0	0.663839113	0.835563493	0.014704378	0.151702356	0.046756140
2020-04-08T12:10:00	0.2592	10.691	194.0	0.665462984	0.838031658	0.014771854	0.152398493	0.046970696
2020-04-08T12:15:00	0.2573	10.779	194.0	0.659217920	0.828551976	0.014513241	0.149730430	0.046148373
2020-04-08T12:20:00	0.2579	10.857	194.0	0.661171900	0.831514426	0.014593900	0.150562572	0.046404847
2020-04-08T12:25:00	0.2576	10.930	194.0	0.660173023	0.829999609	0.014552638	0.150136879	0.046273644
2020-04-08T12:30:00	0.2573	11.000	195.0	0.659173870	0.828485229	0.014511425	0.149711698	0.046142599
2020-04-08T12:35:00	0.2568	11.057	194.0	0.657517795	0.825977056	0.014443251	0.149008360	0.045925824
2020-04-08T12:40:00	0.2564	11.120	195.0	0.656189450	0.823966933	0.014388690	0.148445461	0.045752333
2020-04-08T12:45:00	0.2557	11.178	196.0	0.653874698	0.820467729	0.014293870	0.147467224	0.045450831
2020-04-08T12:50:00	0.2551	11.222	196.0	0.651887341	0.817467098	0.014212723	0.146630042	0.045192803
2020-04-08T12:55:00	0.2565	11.260	196.0	0.656473825	0.824397138	0.014400361	0.148565875	0.045789445
2020-04-08T13:00:00	0.2558	11.287	197.0	0.654487899	0.821394258	0.014318957	0.147726040	0.045530600
2020-04-08T13:05:00	0.2558	11.301	197.0	0.654473197	0.821372040	0.014318355	0.147719832	0.045528687
2020-04-08T13:10:00	0.2560	11.299	197.0	0.655115696	0.822343174	0.014344665	0.147991262	0.045612344
2020-04-08T13:15:00	0.2530	11.279	196.0	0.645230328	0.807440467	0.013942661	0.143843863	0.044334076
2020-04-08T13:20:00	0.2543	11.258	197.0	0.649496214	0.813861294	0.014115409	0.145626068	0.044883368
2020-04-08T13:25:00	0.2540	11.226	196.0	0.648494102	0.812351565	0.014074728	0.145206376	0.044754015
2020-04-08T13:30:00	0.2558	11.183	196.0	0.654399683	0.821260947	0.014315347	0.147688792	0.045519120
2020-04-08T13:35:00	0.2554	11.139	195.0	0.653070190	0.819252629	0.014260992	0.147128022	0.045346285
2020-04-08T13:40:00	0.2539	11.091	196.0	0.648120727	0.811789277	0.014059587	0.145050166	0.044705870
2020-04-08T13:45:00	0.2544	11.054	195.0	0.649751674	0.814246294	0.014125789	0.145733157	0.044916374
2020-04-08T13:50:00	0.2546	11.010	195.0	0.650395015	0.815216108	0.014151947	0.146003029	0.044999552
2020-04-08T13:55:00	0.2536	10.970	195.0	0.647088767	0.810235803	0.014017782	0.144618876	0.044572942
2020-04-08T14:00:00	0.2541	10.924	195.0	0.648720181	0.812692090	0.014083900	0.145301005	0.044783181
2020-04-08T14:05:00	0.2542	10.879	195.0	0.649034596	0.813165738	0.014096662	0.145432660	0.044823758
2020-04-08T14:10:00	0.2537	10.831	194.0	0.647373861	0.810664882	0.014029325	0.144737959	0.044609645
2020-04-08T14:15:00	0.2530	10.784	194.0	0.645053440	0.807174558	0.013935522	0.143770210	0.044311375
2020-04-08T14:20:00	0.2540	10.748	194.0	0.648332102	0.812107585	0.014068158	0.145138589	0.044733123
2020-04-08T14:25:00	0.2540	10.722	194.0	0.648317374	0.812085406	0.014067560	0.145132427	0.044731224
2020-04-08T14:30:00	0.2548	10.687	194.0	0.650935224	0.816030727	0.014173932	0.146229840	0.045069457
2020-04-08T14:35:00	0.2554	10.651	194.0	0.652893687	0.818986118	0.014253784	0.147053658	0.045323366
2020-04-08T14:40:00	0.2553	10.623	194.0	0.652550188	0.818467530	0.014239761	0.146908992	0.045278778
2020-04-08T14:45:00	0.2559	10.589	194.0	0.654507775	0.821424296	0.014319771	0.147734433	0.045533187
2020-04-08T14:50:00	0.2539	10.556	193.0	0.648243735	0.811974510	0.014064574	0.145101620	0.044721728
2020-04-08T14:55:00	0.2555	10.524	193.0	0.653492348	0.819890173	0.014278239	0.147305964	0.045401129
2020-04-08T15:00:00	0.2561	10.493	193.0	0.655449425	0.822847742	0.014358340	0.148132352	0.045655829
2020-04-08T15:05:00	0.2555	10.464	193.0	0.653462935	0.819845748	0.014277037	0.147293563	0.045397307
2020-04-08T15:10:00	0.2545	10.434	193.0	0.650159501	0.814861037	0.014142368	0.145904204	0.044969093
2020-04-08T15:15:00	0.2540	10.406	193.0	0.648499284	0.812359371	0.014074938	0.145208545	0.044754684
2020-04-08T15:20:00	0.2546	10.376	193.0	0.650459071	0.815312689	0.014154553	0.146029914	0.045007838
2020-04-08T15:25:00	0.2550	10.350	193.0	0.651760099	0.817275094	0.014207536	0.146576525	0.045176309
2020-04-08T15:30:00	0.2549	10.329	192.0	0.651416492	0.816756675	0.014193533	0.146432060	0.045131783
2020-04-08T15:35:00	0.2552	10.305	193.0	0.652388371	0.818223264	0.014233158	0.146840868	0.045257782
2020-04-08T15:40:00	0.2557	10.282	193.0	0.654017389	0.820683303	0.014299706	0.147527429	0.045469386
2020-04-08T15:45:00	0.2550	10.257	192.0	0.651701244	0.817186289	0.014205137	0.146551775	0.045168680
2020-04-08T15:50:00	0.2531	10.230	192.0	0.645432320	0.807744148	0.013950816	0.143927994	0.044360005
2020-04-08T15:55:00	0.2560	10.201	192.0	0.654959167	0.822106548	0.014338253	0.147925111	0.045591956
2020-04-08T16:00:00	0.2555	10.175	192.0	0.653301158	0.819601419	0.014270427	0.147225363	0.045376287
2020-04-08T16:05:00	0.2547	10.149	192.0	0.650760516	0.815767246	0.014166820	0.146156468	0.045046843
2020-04-08T16:10:00	0.2539	10.125	192.0	0.648218082	0.811935880	0.014063534	0.145090888	0.044718421
2020-04-08T16:15:00	0.2537	10.102	191.0	0.647320640	0.810584778	0.014027170	0.144715725	0.044602792
2020-04-08T16:20:00	0.2531	10.080	192.0	0.645434746	0.807747794	0.013950914	0.143929004	0.044360317
2020-04-08T16:25:00	0.2544	10.059	191.0	0.649805343	0.814327184	0.014127970	0.145755661	0.044923310
2020-04-08T16:30:00	0.2533	10.037	191.0	0.645944844	0.808514845	0.013971518	0.144141577	0.044425834
2020-04-08T16:35:00	0.2536	10.013	191.0	0.647023233	0.810137183	0.014015130	0.144591510	0.044564508
2020-04-08T16:40:00	0.2537	9.992	191.0	0.647442818	0.810768677	0.014032118	0.144766770	0.044618525
2020-04-08T16:45:00	0.2536	9.967	191.0	0.647203829	0.810408969	0.014022440	0.144666931	0.044587753
2020-04-08T16:50:00	0.2535	9.943	191.0	0.646635494	0.809553750	0.013999441	0.144429651	0.044514621
2020-04-08T16:55:00	0.2524	9.917	191.0	0.643101275	0.804241703	0.013856859	0.142958664	0.044061249
2020-04-08T17:00:00	0.2526	9.891	191.0	0.643850932	0.805367575	0.013887039	0.143270026	0.044157213
2020-04-08T17:05:00	0.2524	9.863	191.0	0.643282067	0.804513182	0.013864135	0.143033722	0.044084382
2020-04-08T17:10:00	0.2531	9.831	190.0	0.645349778	0.807620048	0.013947483	0.143893612	0.044349409
2020-04-08T17:15:00	0.2524	9.800	191.0	0.643133200	0.804289640	0.013858144	0.142971917	0.044065333
2020-04-08T17:20:00	0.2521	9.767	190.0	0.642234489	0.802940516	0.013822007	0.142599094	0.043950426
2020-04-08T17:25:00	0.2535	9.734	190.0	0.646608971	0.809513847	0.013998368	0.144418582	0.044511210
2020-04-08T17:30:00	0.2534	9.699	190.0	0.646369927	0.809154224	0.013988701	0.144318845	0.044480470
2020-04-08T17:35:00	0.2527	9.662	190.0	0.644153977	0.805822837	0.013899249	0.143395992	0.044196037
2020-04-08T17:40:00	0.2531	9.623	190.0	0.645562361	0.807939673	0.013956067	0.143982170	0.044376703
2020-04-08T17:45:00	0.2528	9.581	189.0	0.644334716	0.806094398	0.013906534	0.143471147	0.044219201
2020-04-08T17:50:00	0.2531	9.537	189.0	0.645413588	0.807715984	0.013950059	0.143920191	0.044357600
2020-04-08T17:55:00	0.2537	9.494	189.0	0.647480075	0.810824758	0.014033627	0.144782338	0.044623323
2020-04-08T18:00:00	0.2533	9.451	189.0	0.646253084	0.808978463	0.013983977	0.144270108	0.044465449
2020-04-08T18:05:00	0.2543	9.409	189.0	0.649306527	0.813575456	0.014107704	0.145546577	0.044858869
2020-04-08T18:10:00	0.2536	9.365	189.0	0.647092384	0.810241248	0.014017929	0.144620387	0.044573408
2020-04-08T18:15:00	0.2544	9.321	189.0	0.649816077	0.814343363	0.014128406	0.145760162	0.044924697
2020-04-08T18:20:00	0.2560	9.274	189.0	0.654838620	0.821924331	0.014333316	0.147874176	0.045576257
2020-04-08T18:25:00	0.2556	9.227	189.0	0.653614131	0.820074118	0.014283217	0.147357317	0.045416956
2020-04-08T18:30:00	0.2565	9.184	188.0	0.656661351	0.824680866	0.014408061	0.148645306	0.045813927
2020-04-08T18:35:00	0.2562	9.143	189.0	0.655766007	0.823326473	0.014371320	0.148266258	0.045697101
2020-04-08T18:40:00	0.2575	9.099	188.0	0.659795985	0.829428046	0.014537079	0.149976359	0.046224171
2020-04-08T18:45:00	0.2576	9.056	188.0	0.660214088	0.830061868	0.014554333	0.150154367	0.046279034
2020-04-08T18:50:00	0.2574	9.012	188.0	0.659647798	0.829203438	0.014530966	0.149913295	0.046204734
2020-04-08T18:55:00	0.2575	8.972	187.0	0.660065917	0.829837233	0.014548217	0.150091271	0.046259587
2020-04-08T19:00:00	0.2576	8.932	187.0	0.660155891	0.829973635	0.014551930	0.150129583	0.046271395
2020-04-08T19:05:00	0.2578	8.889	187.0	0.660902012	0.831105052	0.014582745	0.150447491	0.046369378
2020-04-08T19:10:00	0.2584	8.847	187.0	0.662959655	0.834227724	0.014667902	0.151326039	0.046640155
2020-04-08T19:15:00	0.2591	8.805	187.0	0.665016130	0.837352247	0.014753270	0.152206765	0.046911603
2020-04-08T19:20:00	0.2588	8.767	187.0	0.664122851	0.835994591	0.014716156	0.151823872	0.046793592
2020-04-08T19:25:00	0.2591	8.726	186.0	0.665195828	0.837625445	0.014760742	0.152283851	0.046935362
2020-04-08T19:30:00	0.2591	8.685	186.0	0.665285674	0.837762050	0.014764478	0.152322401	0.046947243
2020-04-08T19:35:00	0.2575	8.644	186.0	0.659801337	0.829436158	0.014537299	0.149978637	0.046224873
2020-04-08T19:40:00	0.2589	8.605	186.0	0.664482327	0.836540861	0.014731086	0.151977896	0.046841064
2020-04-08T19:45:00	0.2587	8.568	186.0	0.663916704	0.835681374	0.014707598	0.151735581	0.046766380
2020-04-08T19:50:00	0.2581	8.527	185.0	0.662039460	0.832830791	0.014629787	0.150932814	0.046518959
2020-04-08T19:55:00	0.2580	8.486	186.0	0.661473456	0.831971909	0.014606368	0.150691211	0.046444495
2020-04-08T20:00:00	0.2581	8.450	185.0	0.661891365	0.832606037	0.014623658	0.150869579	0.046499469
2020-04-08T20:05:00	0.2585	8.412	184.0	0.663292847	0.834733715	0.014681716	0.151468553	0.046684079
2020-04-08T20:10:00	0.2574	8.374	185.0	0.659446748	0.828898736	0.014522675	0.149827757	0.046178370
2020-04-08T20:15:00	0.2577	8.338	185.0	0.660521111	0.830527396	0.014567010	0.150285153	0.046319344
2020-04-08T20:20:00	0.2573	8.299	185.0	0.659298547	0.828674151	0.014516564	0.149764719	0.046158941
2020-04-08T20:25:00	0.2581	8.264	185.0	0.662013051	0.832790710	0.014628694	0.150921536	0.046515483
2020-04-08T20:30:00	0.2572	8.229	184.0	0.658822120	0.827952297	0.014496931	0.149562165	0.046096512
2020-04-08T20:35:00	0.2567	8.194	185.0	0.657270620	0.825602903	0.014433090	0.148903533	0.045893515
2020-04-08T20:40:00	0.2565	8.157	185.0	0.656703869	0.824745200	0.014409807	0.148663319	0.045819479
2020-04-08T20:45:00	0.2570	8.122	184.0	0.658435646	0.827366877	0.014481015	0.149397959	0.046045902
2020-04-08T20:50:00	0.2576	8.087	184.0	0.660166593	0.829989862	0.014552372	0.150134141	0.046272800
2020-04-08T20:55:00	0.2568	8.054	184.0	0.657630777	0.826148096	0.014447897	0.149056289	0.045940596
2020-04-08T21:00:00	0.2569	8.021	184.0	0.658049130	0.826781523	0.014465106	0.149233831	0.045995316
2020-04-08T21:05:00	0.2583	7.987	184.0	0.662404491	0.833384852	0.014644900	0.151088738	0.046567016
2020-04-08T21:10:00	0.2583	7.954	183.0	0.662494406	0.833521346	0.014648624	0.151127158	0.046578858
2020-04-08T21:15:00	0.2572	7.921	183.0	0.658975694	0.828184962	0.014503258	0.149627442	0.046116631
2020-04-08T21:20:00	0.2579	7.887	183.0	0.661362451	0.831803497	0.014601778	0.150643851	0.046429898
2020-04-08T21:25:00	0.2589	7.855	183.0	0.664403152	0.836420535	0.014727797	0.151943965	0.046830606
2020-04-08T21:30:00	0.2576	7.822	183.0	0.660230142	0.830086208	0.014554995	0.150161204	0.046281141
2020-04-08T21:35:00	0.2582	7.790	183.0	0.662288166	0.833208276	0.014640083	0.151039040	0.046551699
2020-04-08T21:40:00	0.2569	7.758	183.0	0.657784402	0.826380681	0.014454215	0.149121472	0.045960686
2020-04-08T21:45:00	0.2574	7.727	182.0	0.659515662	0.829003174	0.014525516	0.149857074	0.046187406
2020-04-08T21:50:00	0.2572	7.696	183.0	0.658949262	0.828144917	0.014502169	0.149616206	0.046113168
2020-04-08T21:55:00	0.2572	7.665	183.0	0.659039263	0.828281275	0.014505878	0.149654466	0.046124960
2020-04-08T22:00:00	0.2572	7.634	182.0	0.658801040	0.827920363	0.014496063	0.149553206	0.046093751
2020-04-08T22:05:00	0.2559	7.604	182.0	0.654767012	0.821816096	0.014330383	0.147843925	0.045566933
2020-04-08T22:10:00	0.2559	7.572	182.0	0.654673965	0.821675461	0.014326574	0.147804620	0.045554819
2020-04-08T22:15:00	0.2555	7.541	182.0	0.653266196	0.819548618	0.014268998	0.147210626	0.045371744
2020-04-08T22:20:00	0.2555	7.512	182.0	0.653501843	0.819904513	0.014278627	0.147309967	0.045402363
2020-04-08T22:25:00	0.2555	7.483	182.0	0.653408762	0.819763929	0.014274824	0.147270723	0.045390267
2020-04-08T22:30:00	0.2552	7.453	182.0	0.652329340	0.818134162	0.014230750	0.146816020	0.045250123
2020-04-08T22:35:00	0.2551	7.422	182.0	0.651907381	0.817497338	0.014213540	0.146638471	0.045195401
2020-04-08T22:40:00	0.2554	7.391	181.0	0.653129507	0.819342200	0.014263414	0.147153018	0.045353989
2020-04-08T22:45:00	0.2557	7.364	182.0	0.654022564	0.820691121	0.014299917	0.147529612	0.045470059
2020-04-08T22:50:00	0.2549	7.334	181.0	0.651299106	0.816579590	0.014188750	0.146382723	0.045116577
2020-04-08T22:55:00	0.2547	7.305	181.0	0.650877026	0.815942955	0.014171562	0.146205397	0.045061923
2020-04-08T23:00:00	0.2541	7.276	181.0	0.648809543	0.812826699	0.014087527	0.145338417	0.044794712
2020-04-08T23:05:00	0.2555	7.250	181.0	0.653321562	0.819632233	0.014271260	0.147233963	0.045378937
2020-04-08T23:10:00	0.2551	7.224	181.0	0.651913266	0.817506219	0.014213780	0.146640947	0.045196164
2020-04-08T23:15:00	0.2541	7.200	181.0	0.648859088	0.812901334	0.014089538	0.145359162	0.044801105
2020-04-08T23:20:00	0.2529	7.171	181.0	0.644813919	0.806814536	0.013925858	0.143670508	0.044280646
2020-04-08T23:25:00	0.2532	7.144	181.0	0.645709038	0.808160229	0.013961991	0.144043289	0.044395541
2020-04-08T23:30:00	0.2532	7.116	180.0	0.645615757	0.808019961	0.013958223	0.144004418	0.044383560
2020-04-08T23:35:00	0.2533	7.088	180.0	0.646181306	0.808870495	0.013981075	0.144240172	0.044456222
2020-04-08T23:40:00	0.2512	7.058	181.0	0.639164081	0.798336476	0.013698916	0.141329186	0.043559028
2020-04-08T23:45:00	0.2524	7.031	181.0	0.643028911	0.804133048	0.013853948	0.142928627	0.044051991
2020-04-08T23:50:00	0.2522	7.003	181.0	0.642605861	0.803497928	0.013836934	0.142753093	0.043997890
2020-04-08T23:55:00	0.2524	6.976	180.0	0.643171883	0.804347725	0.013859701	0.142987975	0.044070283
2020-04-09T00:00:00	0.2514	6.951	179.0	0.639780316	0.799259871	0.013723574	0.141583585	0.043637436
2020-04-09T00:05:00	0.2514	6.924	179.0	0.639686880	0.799119842	0.013719834	0.141544996	0.043625543
2020-04-09T00:10:00	0.2519	6.897	179.0	0.641572840	0.801947705	0.013795433	0.142324940	0.043865929
2020-04-09T00:15:00	0.2510	6.870	179.0	0.638509867	0.797356525	0.013672762	0.141059370	0.043475868
2020-04-09T00:20:00	0.2507	6.842	179.0	0.637425966	0.795733740	0.013629489	0.140612928	0.043338270
2020-04-09T00:25:00	0.2502	6.815	179.0	0.636011431	0.793617442	0.013573123	0.140031411	0.043159041
2020-04-09T00:30:00	0.2487	6.789	179.0	0.630959536	0.786073099	0.013372807	0.137964786	0.042522087
2020-04-09T00:35:00	0.2492	6.764	178.0	0.632519463	0.788400339	0.013434496	0.138601217	0.042718241
2020-04-09T00:40:00	0.2494	6.738	179.0	0.633087079	0.789247670	0.013456979	0.138833174	0.042789733
2020-04-09T00:45:00	0.2498	6.714	178.0	0.634646080	0.791576336	0.013518832	0.139471300	0.042986409
2020-04-09T00:50:00	0.2486	6.689	178.0	0.630584857	0.785514427	0.013358012	0.137812148	0.042475043
2020-04-09T00:55:00	0.2477	6.661	178.0	0.627512474	0.780937766	0.013237012	0.136563817	0.042090295
2020-04-09T01:00:00	0.2477	6.633	178.0	0.627749816	0.781291030	0.013246339	0.136660041	0.042119952
2020-04-09T01:05:00	0.2479	6.609	178.0	0.628318189	0.782137198	0.013268689	0.136890615	0.042191017
2020-04-09T01:10:00	0.2481	6.582	178.0	0.628886472	0.782983504	0.013291054	0.137121354	0.042262133
2020-04-09T01:15:00	0.2485	6.558	178.0	0.630116454	0.784816172	0.013339528	0.137621452	0.042416268
2020-04-09T01:20:00	0.2474	6.532	178.0	0.626712504	0.779747430	0.013205601	0.136239750	0.041990414
2020-04-09T01:25:00	0.2482	6.509	178.0	0.629267251	0.783550726	0.013306051	0.137276074	0.042309819
2020-04-09T01:30:00	0.2484	6.485	177.0	0.629835382	0.784397264	0.013328443	0.137507088	0.042381020
2020-04-09T01:35:00	0.2474	6.457	177.0	0.626762355	0.779821591	0.013207557	0.136259933	0.041996635
2020-04-09T01:40:00	0.2474	6.434	177.0	0.626668579	0.779682086	0.013203877	0.136221967	0.041984933
2020-04-09T01:45:00	0.2467	6.412	177.0	0.624255702	0.776095148	0.013109374	0.135246995	0.041684437
2020-04-09T01:50:00	0.2462	6.387	177.0	0.622504394	0.773494767	0.013041002	0.134541616	0.041467033
2020-04-09T01:55:00	0.2471	6.365	177.0	0.625724755	0.778278431	0.013166869	0.135840164	0.041867258
2020-04-09T02:00:00	0.2474	6.343	177.0	0.626624653	0.779616744	0.013202154	0.136204186	0.041979453
2020-04-09T02:05:00	0.2474	6.314	177.0	0.626530874	0.779477244	0.013198474	0.136166227	0.041967754
2020-04-09T02:10:00	0.2474	6.287	177.0	0.626768281	0.779830408	0.013207790	0.136262332	0.041997374
2020-04-09T02:15:00	0.2468	6.261	177.0	0.624686854	0.776735731	0.013126235	0.135420945	0.041738050
2020-04-09T02:20:00	0.2468	6.235	176.0	0.624593024	0.776596310	0.013122565	0.135383079	0.041726380
2020-04-09T02:25:00	0.2467	6.214	177.0	0.624167791	0.775964555	0.013105938	0.135211542	0.041673510
2020-04-09T02:30:00	0.2469	6.195	176.0	0.625068081	0.777302267	0.013141153	0.135574849	0.041785485
2020-04-09T02:35:00	0.2465	6.170	176.0	0.623648652	0.775193493	0.013085654	0.135002276	0.041609012
2020-04-09T02:40:00	0.2468	6.147	176.0	0.624549073	0.776531006	0.013120845	0.135365344	0.041720914
2020-04-09T02:45:00	0.2475	6.123	176.0	0.627105366	0.780331932	0.013221022	0.136398848	0.042039450
2020-04-09T02:50:00	0.2483	6.099	176.0	0.629659833	0.784135659	0.013321522	0.137435684	0.042359013
2020-04-09T02:55:00	0.2484	6.077	176.0	0.629897032	0.784489141	0.013330874	0.137532168	0.042388750
2020-04-09T03:00:00	0.2482	6.054	176.0	0.629141491	0.783363376	0.013301097	0.137224964	0.042294067
2020-04-09T03:05:00	0.2471	6.031	176.0	0.625736612	0.778296059	0.013167334	0.135844957	0.041868735
2020-04-09T03:10:00	0.2486	6.008	175.0	0.630608538	0.785549733	0.013358947	0.137821793	0.042478015
2020-04-09T03:15:00	0.2486	5.985	175.0	0.630514863	0.785410074	0.013355249	0.137783644	0.042466257
2020-04-09T03:20:00	0.2490	5.962	175.0	0.632074984	0.787737015	0.013416903	0.138419720	0.042662302
2020-04-09T03:25:00	0.2485	5.940	175.0	0.630327505	0.785130766	0.013347855	0.137707358	0.042442745
2020-04-09T03:30:00	0.2499	5.918	175.0	0.634862777	0.791900179	0.013527441	0.139560119	0.043013784
2020-04-09T03:35:00	0.2495	5.897	175.0	0.633447231	0.789785443	0.013471255	0.138980456	0.042835126
2020-04-09T03:40:00	0.2493	5.874	175.0	0.633023049	0.789152074	0.013454442	0.138806999	0.042781665
2020-04-09T03:45:00	0.2488	5.852	175.0	0.631276034	0.786545113	0.013385311	0.138093790	0.042561847
2020-04-09T03:50:00	0.2494	5.831	174.0	0.633166421	0.789366133	0.013460124	0.138865614	0.042799731
2020-04-09T03:55:00	0.2501	5.808	175.0	0.635716566	0.793176506	0.013561389	0.139910349	0.043121728
2020-04-09T04:00:00	0.2488	5.786	175.0	0.631325821	0.786619372	0.013387279	0.138114089	0.042568104
2020-04-09T04:05:00	0.2497	5.763	174.0	0.634354060	0.791139992	0.013507235	0.139351656	0.042949534
2020-04-09T04:10:00	0.2498	5.740	174.0	0.634406761	0.791218735	0.013509328	0.139373244	0.042956187
2020-04-09T04:15:00	0.2500	5.718	174.0	0.635120328	0.792285125	0.013537677	0.139665719	0.043046331
2020-04-09T04:20:00	0.2492	5.699	174.0	0.632528863	0.788414369	0.013434868	0.138605057	0.042719425
2020-04-09T04:25:00	0.2500	5.680	174.0	0.635225707	0.792442647	0.013541866	0.139708939	0.043059652
2020-04-09T04:30:00	0.2500	5.660	174.0	0.635278396	0.792521409	0.013543961	0.139730551	0.043066313
2020-04-09T04:35:00	0.2498	5.641	174.0	0.634670258	0.791612467	0.013519793	0.139481209	0.042989463
2020-04-09T04:40:00	0.2507	5.624	174.0	0.637695672	0.796137444	0.013640250	0.140723947	0.043372487
2020-04-09T04:45:00	0.2497	5.609	174.0	0.634114722	0.790782420	0.013497734	0.139253635	0.042919323
2020-04-09T04:50:00	0.2511	5.593	174.0	0.638791306	0.797778049	0.013684010	0.141175410	0.043511633
2020-04-09T04:55:00	0.2508	5.575	173.0	0.637853627	0.796373903	0.013646555	0.140788987	0.043392533
2020-04-09T05:00:00	0.2513	5.557	174.0	0.639556627	0.798924647	0.013714621	0.141491212	0.043608966
2020-04-09T05:05:00	0.2508	5.540	173.0	0.637958927	0.796531549	0.013650758	0.140832355	0.043405899
2020-04-09T05:10:00	0.2507	5.522	173.0	0.637681425	0.796116116	0.013639682	0.140718081	0.043370679
2020-04-09T05:15:00	0.2497	5.508	173.0	0.634100460	0.790761114	0.013497168	0.139247796	0.042917523
2020-04-09T05:20:00	0.2498	5.494	173.0	0.634483641	0.791333607	0.013512381	0.139404740	0.042965895
2020-04-09T05:25:00	0.2494	5.482	173.0	0.633214272	0.789437581	0.013462020	0.138885180	0.042805761
2020-04-09T05:30:00	0.2501	5.470	173.0	0.635580257	0.792972695	0.013555966	0.139854403	0.043104485
2020-04-09T05:35:00	0.2498	5.460	173.0	0.634641738	0.791569848	0.013518660	0.139469521	0.042985861
2020-04-09T05:40:00	0.2500	5.450	173.0	0.635355258	0.792636311	0.013547017	0.139762082	0.043076031
2020-04-09T05:45:00	0.2490	5.441	173.0	0.631771966	0.787284899	0.013404917	0.138296058	0.042624188
2020-04-09T05:50:00	0.2493	5.432	173.0	0.632816688	0.788843999	0.013446267	0.138722653	0.042755669
2020-04-09T05:55:00	0.2505	5.424	173.0	0.636834537	0.794848692	0.013605907	0.140369638	0.043263286
2020-04-09T06:00:00	0.2498	5.418	173.0	0.634574780	0.791469791	0.013516000	0.139442083	0.042977404
2020-04-09T06:05:00	0.2500	5.411	173.0	0.635288313	0.792536233	0.013544356	0.139734619	0.043067567
2020-04-09T06:10:00	0.2505	5.407	172.0	0.636992530	0.795085093	0.013612205	0.140434609	0.043283310
2020-04-09T06:15:00	0.2513	5.404	173.0	0.639356023	0.798624057	0.013706594	0.141408400	0.043583442
2020-04-09T06:20:00	0.2508	5.402	173.0	0.637758234	0.796231097	0.013642747	0.140749706	0.043380426
2020-04-09T06:25:00	0.2499	5.401	174.0	0.634838264	0.791863543	0.013526467	0.139550070	0.043010687
2020-04-09T06:30:00	0.2498	5.400	173.0	0.634560520	0.791448483	0.013515434	0.139436240	0.042975603
2020-04-09T06:35:00	0.2499	5.401	173.0	0.634943652	0.792021052	0.013530655	0.139593274	0.043024003
2020-04-09T06:40:00	0.2493	5.402	173.0	0.633013314	0.789137539	0.013454056	0.138803019	0.042780438
2020-04-09T06:45:00	0.2492	5.404	173.0	0.632735428	0.788722697	0.013443048	0.138689448	0.042745435
2020-04-09T06:50:00	0.2494	5.408	173.0	0.633118756	0.789294965	0.013458235	0.138846125	0.042793724
2020-04-09T06:55:00	0.2493	5.414	173.0	0.632840878	0.788880111	0.013447225	0.138732539	0.042758716
2020-04-09T07:00:00	0.2492	5.422	174.0	0.632562979	0.788465290	0.013436219	0.138618993	0.042723720
2020-04-09T07:05:00	0.2483	5.433	174.0	0.629638769	0.784104271	0.013320691	0.137427118	0.042356372
2020-04-09T07:10:00	0.2471	5.446	173.0	0.625718489	0.778269114	0.013166624	0.135837631	0.041866477
2020-04-09T07:15:00	0.2477	5.463	174.0	0.627758366	0.781303757	0.013246675	0.136663508	0.042121020
2020-04-09T07:20:00	0.2482	5.483	167.0	0.629135231	0.783354051	0.013300850	0.137222421	0.042293283
2020-04-09T07:25:00	0.2478	5.506	172.0	0.627863963	0.781460945	0.013250826	0.136706331	0.042134219
2020-04-09T07:30:00	0.2472	5.534	173.0	0.625929801	0.778583310	0.013174905	0.135923064	0.041892808
2020-04-09T07:35:00	0.2478	5.567	173.0	0.627969557	0.781618137	0.013254978	0.136749160	0.042147419
2020-04-09T07:40:00	0.2483	5.605	173.0	0.629677260	0.784161629	0.013322209	0.137442772	0.042361197
2020-04-09T07:45:00	0.2479	5.645	173.0	0.628406186	0.782268227	0.013272151	0.136926331	0.042202025
2020-04-09T07:50:00	0.2485	5.685	173.0	0.630113681	0.784812038	0.013339419	0.137620323	0.042415920
2020-04-09T07:55:00	0.2471	5.734	174.0	0.625531405	0.777990973	0.013159295	0.135762017	0.041843172
2020-04-09T08:00:00	0.2472	5.796	174.0	0.625915506	0.778562055	0.013174344	0.135917283	0.041891027
2020-04-09T08:05:00	0.2475	5.865	174.0	0.626961939	0.780118526	0.013215391	0.136340753	0.042021544
2020-04-09T08:10:00	0.2466	5.932	174.0	0.624033142	0.775764544	0.013100675	0.135157249	0.041656777
2020-04-09T08:15:00	0.2464	6.003	174.0	0.623423088	0.774858542	0.013076845	0.134911403	0.041581005
2020-04-09T08:20:00	0.2459	6.069	175.0	0.621486518	0.771984589	0.013001349	0.134132520	0.041340945
2020-04-09T08:25:00	0.2465	6.148	175.0	0.623528813	0.775015534	0.013080974	0.134953993	0.041594131
2020-04-09T08:30:00	0.2463	6.225	175.0	0.622918673	0.774109664	0.013057159	0.134708304	0.041518408
2020-04-09T08:35:00	0.2461	6.296	176.0	0.622308429	0.773203953	0.013033363	0.134462805	0.041442742
2020-04-09T08:40:00	0.2450	6.374	176.0	0.618712023	0.767872633	0.012893580	0.133020693	0.040998269
2020-04-09T08:45:00	0.2450	6.462	177.0	0.618764956	0.767951022	0.012895632	0.133041860	0.041004793
2020-04-09T08:50:00	0.2452	6.547	178.0	0.619481653	0.769012617	0.012923428	0.133328628	0.041093178
2020-04-09T08:55:00	0.2460	6.633	177.0	0.621856743	0.772533774	0.013015764	0.134281243	0.041386783
2020-04-09T09:00:00	0.2457	6.725	178.0	0.620914614	0.771136465	0.012979097	0.133902948	0.041270189
2020-04-09T09:05:00	0.2449	6.818	178.0	0.618312821	0.767281527	0.012878113	0.132861114	0.040949086
2020-04-09T09:10:00	0.2450	6.917	179.0	0.618697700	0.767851421	0.012893025	0.133014965	0.040996504
2020-04-09T09:15:00	0.2448	7.014	179.0	0.618086732	0.766946812	0.012869357	0.132770780	0.040921244
2020-04-09T09:20:00	0.2455	7.119	180.0	0.620462752	0.770466555	0.012961529	0.133721707	0.041214329
2020-04-09T09:25:00	0.2451	7.226	180.0	0.618856497	0.768086590	0.012899181	0.133078470	0.041016077
2020-04-09T09:30:00	0.2450	7.335	181.0	0.618577507	0.767673437	0.012888367	0.132966910	0.040981693
2020-04-09T09:35:00	0.2454	7.447	181.0	0.619957917	0.769718315	0.012941917	0.133519370	0.041151966
2020-04-09T09:40:00	0.2448	7.552	182.0	0.618019463	0.766847231	0.012866752	0.132743908	0.040912962
2020-04-09T09:45:00	0.2453	7.646	182.0	0.619731933	0.769383442	0.012933142	0.133428846	0.041124066
2020-04-09T09:50:00	0.2441	7.731	182.0	0.615800745	0.763564928	0.012780998	0.131859196	0.040640285
2020-04-09T09:55:00	0.2423	7.817	182.0	0.609536509	0.754320158	0.012540480	0.129377824	0.039875502
2020-04-09T10:00:00	0.2433	7.904	183.0	0.612915778	0.759303190	0.012669935	0.130713388	0.040287136
2020-04-09T10:05:00	0.2431	7.981	183.0	0.612489148	0.758673557	0.012653554	0.130544384	0.040235047
2020-04-09T10:10:00	0.2430	8.062	183.0	0.612062467	0.758044002	0.012637181	0.130375472	0.040182987
2020-04-09T10:15:00	0.2430	8.157	184.0	0.611968303	0.757905087	0.012633570	0.130338210	0.040171502
2020-04-09T10:20:00	0.2430	8.260	185.0	0.611874137	0.757766175	0.012629958	0.130300953	0.040160019
2020-04-09T10:25:00	0.2440	8.345	185.0	0.615436363	0.763026267	0.012766942	0.131714191	0.040595593
2020-04-09T10:30:00	0.2441	8.443	185.0	0.615674510	0.763378304	0.012776127	0.131808952	0.040624799
2020-04-09T10:35:00	0.2433	8.548	186.0	0.612921727	0.759311972	0.012670164	0.130715745	0.040287862
2020-04-09T10:40:00	0.2424	8.644	186.0	0.610166811	0.755248865	0.012564574	0.129626396	0.039952114
2020-04-09T10:45:00	0.2434	8.752	186.0	0.613398343	0.760015559	0.012688478	0.130904686	0.040346096
2020-04-09T10:50:00	0.2429	8.865	187.0	0.611641687	0.757423303	0.012621046	0.130209007	0.040131680
2020-04-09T10:55:00	0.2433	8.986	187.0	0.612877632	0.759246887	0.012668470	0.130698272	0.040282477
2020-04-09T11:00:00	0.2423	9.106	188.0	0.609789940	0.754693531	0.012550165	0.129477740	0.039906297
2020-04-09T11:05:00	0.2426	9.223	188.0	0.610693873	0.756025713	0.012584740	0.129834443	0.040016236
2020-04-09T11:10:00	0.2423	9.342	189.0	0.609601489	0.754415886	0.012542963	0.129403439	0.039883397
2020-04-09T11:15:00	0.2419	9.468	189.0	0.608508770	0.752806566	0.012501245	0.128973040	0.039750744
2020-04-09T11:20:00	0.2413	9.599	190.0	0.606416634	0.749728135	0.012421571	0.128151057	0.039497400
2020-04-09T11:25:00	0.2413	9.738	191.0	0.606322321	0.749589446	0.012417985	0.128114065	0.039485999
2020-04-09T11:30:00	0.2425	9.881	191.0	0.610222848	0.755331449	0.012566717	0.129648508	0.039958929
2020-04-09T11:35:00	0.2432	10.025	192.0	0.612789440	0.759116721	0.012665083	0.130663329	0.040271707
2020-04-09T11:40:00	0.2432	10.165	193.0	0.612695295	0.758977777	0.012661468	0.130626032	0.040260212
2020-04-09T11:45:00	0.2434	10.295	193.0	0.613266073	0.759820281	0.012683394	0.130852238	0.040329930
2020-04-09T11:50:00	0.2429	10.421	194.0	0.611841932	0.757718669	0.012628723	0.130288212	0.040156092
2020-04-09T11:55:00	0.2436	10.542	194.0	0.614075015	0.761014799	0.012714502	0.131173176	0.040428847
2020-04-09T12:00:00	0.2432	10.647	195.0	0.612651197	0.758912696	0.012659775	0.130608564	0.040254828
2020-04-09T12:05:00	0.2435	10.747	195.0	0.613554402	0.760245977	0.012694477	0.130966582	0.040365173
2020-04-09T12:10:00	0.2434	10.839	196.0	0.613460278	0.760107003	0.012690859	0.130929249	0.040353666
2020-04-09T12:15:00	0.2432	10.924	196.0	0.612701245	0.758986558	0.012661697	0.130628389	0.040260938
2020-04-09T12:20:00	0.2439	11.002	197.0	0.614933788	0.762283504	0.012747570	0.131514328	0.040533993
2020-04-09T12:25:00	0.2437	11.070	197.0	0.614507401	0.761653505	0.012731146	0.131344886	0.040481770
2020-04-09T12:30:00	0.2442	11.139	197.0	0.616074535	0.763969740	0.012791564	0.131968204	0.040673882
2020-04-09T12:35:00	0.2423	11.204	197.0	0.609663491	0.754507229	0.012545332	0.129427882	0.039890930
2020-04-09T12:40:00	0.2432	11.264	198.0	0.612562999	0.758782538	0.012656389	0.130573631	0.040244061
2020-04-09T12:45:00	0.2434	11.317	198.0	0.613466227	0.760115786	0.012691087	0.130931608	0.040354393
2020-04-09T12:50:00	0.2428	11.362	198.0	0.611377011	0.757032952	0.012610902	0.130104355	0.040099426
2020-04-09T12:55:00	0.2418	11.397	198.0	0.607955101	0.751991523	0.012480134	0.128755244	0.039683617
2020-04-09T13:00:00	0.2425	11.429	198.0	0.610190628	0.755283964	0.012565485	0.129635794	0.039955011
2020-04-09T13:05:00	0.2414	11.457	199.0	0.606767572	0.750244259	0.012434917	0.128288748	0.039539838
2020-04-09T13:10:00	0.2424	11.474	198.0	0.610002198	0.755006288	0.012558279	0.129561454	0.039932098
2020-04-09T13:15:00	0.2431	11.477	198.0	0.612236437	0.758300672	0.012643856	0.130444329	0.040204209
2020-04-09T13:20:00	0.2417	11.472	198.0	0.607816670	0.751787782	0.012474859	0.128700820	0.039666843
2020-04-09T13:25:00	0.2410	11.462	198.0	0.605390972	0.748220285	0.012382607	0.127749071	0.039373504
2020-04-09T13:30:00	0.2415	11.447	198.0	0.606962133	0.750530444	0.012442320	0.128365118	0.039563376
2020-04-09T13:35:00	0.2423	11.424	198.0	0.609531082	0.754312162	0.012540273	0.129375684	0.039874842
2020-04-09T13:40:00	0.2416	11.395	198.0	0.607439549	0.751232824	0.012460493	0.128552614	0.039621164
2020-04-09T13:45:00	0.2406	11.370	198.0	0.604013836	0.746197115	0.012330390	0.127210356	0.039207467
2020-04-09T13:50:00	0.2397	11.342	198.0	0.600918414	0.741655380	0.012213434	0.126003750	0.038835580
2020-04-09T13:55:00	0.2392	11.312	198.0	0.599489303	0.739561235	0.012159631	0.125448674	0.038664500
2020-04-09T14:00:00	0.2401	11.269	198.0	0.602397141	0.743824031	0.012269234	0.126579425	0.039013008
2020-04-09T14:05:00	0.2391	11.235	198.0	0.598966545	0.738795638	0.012139981	0.125245946	0.038602017
2020-04-09T14:10:00	0.2388	11.209	197.0	0.597870539	0.737191244	0.012098836	0.124821457	0.038471185
2020-04-09T14:15:00	0.2383	11.193	197.0	0.596440196	0.735098937	0.012045247	0.124268592	0.038300787
2020-04-09T14:20:00	0.2391	11.190	197.0	0.599016787	0.738869209	0.012141869	0.125265423	0.038608020
2020-04-09T14:25:00	0.2378	11.183	197.0	0.594580481	0.732381102	0.011975754	0.123551647	0.038079818
2020-04-09T14:30:00	0.2368	11.169	197.0	0.591476782	0.727851704	0.011860236	0.122359873	0.037712501
2020-04-09T14:35:00	0.2368	11.151	197.0	0.591382069	0.727713611	0.011856720	0.122323597	0.037701321
2020-04-09T14:40:00	0.2362	11.133	197.0	0.589279772	0.724650343	0.011778812	0.121519835	0.037453593
2020-04-09T14:45:00	0.2351	11.103	197.0	0.585501361	0.719154053	0.011639451	0.120082075	0.037010462
2020-04-09T14:50:00	0.2357	11.069	197.0	0.587751130	0.722425263	0.011722328	0.120937101	0.037273989
2020-04-09T14:55:00	0.2362	11.044	196.0	0.589330152	0.724723709	0.011780676	0.121539064	0.037459520
2020-04-09T15:00:00	0.2353	11.023	197.0	0.586221824	0.720201163	0.011665959	0.120355549	0.037094749
2020-04-09T15:05:00	0.2352	11.010	196.0	0.586126970	0.720063279	0.011662467	0.120319526	0.037083646
2020-04-09T15:10:00	0.2338	10.997	196.0	0.581338968	0.713112949	0.011486911	0.118508343	0.036525422
2020-04-09T15:15:00	0.2342	10.988	196.0	0.582585556	0.714920679	0.011532487	0.118978543	0.036670343
2020-04-09T15:20:00	0.2350	10.984	197.0	0.585172290	0.718675930	0.011627354	0.119957272	0.036971996
2020-04-09T15:25:00	0.2348	10.977	196.0	0.584742299	0.718051312	0.011611557	0.119794294	0.036921765
2020-04-09T15:30:00	0.2347	10.971	197.0	0.584312256	0.717426772	0.011595769	0.119631410	0.036871562
2020-04-09T15:35:00	0.2345	10.970	197.0	0.583546938	0.716315701	0.011567699	0.119341817	0.036782307
2020-04-09T15:40:00	0.2360	10.954	196.0	0.588811877	0.723969072	0.011761509	0.121341316	0.037398572
2020-04-09T15:45:00	0.2355	10.930	196.0	0.587042966	0.721395124	0.011696209	0.120667627	0.037190935
2020-04-09T15:50:00	0.2350	10.908	197.0	0.585273166	0.718822489	0.011631062	0.119995523	0.036983786
2020-04-09T15:55:00	0.2348	10.888	197.0	0.584508058	0.717711110	0.011602956	0.119705558	0.036894416
2020-04-09T16:00:00	0.2358	10.858	196.0	0.588097935	0.722929899	0.011735131	0.121069180	0.037314697
2020-04-09T16:05:00	0.2352	10.829	195.0	0.586144955	0.720089421	0.011663129	0.120326356	0.037085751
2020-04-09T16:10:00	0.2352	10.802	195.0	0.585866373	0.719684502	0.011652877	0.120220587	0.037053152
2020-04-09T16:15:00	0.2358	10.776	196.0	0.587932292	0.722688859	0.011729015	0.121006086	0.037295251
2020-04-09T16:20:00	0.2361	10.752	195.0	0.588992985	0.724232749	0.011768205	0.121410399	0.037419864
2020-04-09T16:25:00	0.2350	10.727	195.0	0.585365577	0.718956755	0.011634459	0.120030570	0.036994587
2020-04-09T16:30:00	0.2353	10.703	195.0	0.586427043	0.720499503	0.011673515	0.120433504	0.037118776
2020-04-09T16:35:00	0.2344	10.677	195.0	0.583467542	0.716200464	0.011564789	0.119311794	0.036773054
2020-04-09T16:40:00	0.2354	10.652	195.0	0.586539871	0.720663545	0.011677671	0.120476375	0.037131989
2020-04-09T16:45:00	0.2353	10.626	195.0	0.586261321	0.720258579	0.011667413	0.120370551	0.037099373
2020-04-09T16:50:00	0.2351	10.600	195.0	0.585647727	0.719366744	0.011644834	0.120137607	0.037027577
2020-04-09T16:55:00	0.2344	10.575	195.0	0.583358146	0.716041692	0.011560780	0.119270434	0.036760306
2020-04-09T17:00:00	0.2354	10.550	195.0	0.586765518	0.720991645	0.011685983	0.120562136	0.037158421
2020-04-09T17:05:00	0.2348	10.528	195.0	0.584811798	0.718152258	0.011614110	0.119820628	0.036929881
2020-04-09T17:10:00	0.2348	10.506	195.0	0.584533111	0.717747495	0.011603876	0.119715047	0.036897340
2020-04-09T17:15:00	0.2361	10.485	195.0	0.588943661	0.724160936	0.011766381	0.121391583	0.037414065
2020-04-09T17:20:00	0.2356	10.458	195.0	0.587326044	0.721806856	0.011706646	0.120775308	0.037224123
2020-04-09T17:25:00	0.2340	10.427	194.0	0.582020400	0.714100961	0.011511813	0.118765254	0.036604605
2020-04-09T17:30:00	0.2356	10.395	194.0	0.587438844	0.721970941	0.011710806	0.120818230	0.037237352
2020-04-09T17:35:00	0.2354	10.363	194.0	0.586490514	0.720591783	0.011675853	0.120457620	0.037126208
2020-04-09T17:40:00	0.2360	10.327	194.0	0.588556067	0.723596680	0.011752054	0.121243772	0.037368508
2020-04-09T17:45:00	0.2365	10.289	194.0	0.590285828	0.726115813	0.011816062	0.121904137	0.037572039
2020-04-09T17:50:00	0.2363	10.247	194.0	0.589672935	0.725222943	0.011793362	0.121669945	0.037499859
2020-04-09T17:55:00	0.2371	10.206	194.0	0.592405478	0.729206159	0.011894742	0.122715857	0.037822219
2020-04-09T18:00:00	0.2375	10.164	193.0	0.593799105	0.731240040	0.011946618	0.123251052	0.037987171
2020-04-09T18:05:00	0.2386	10.123	193.0	0.597196403	0.736204904	0.012073563	0.124560729	0.038390826
2020-04-09T18:10:00	0.2386	10.081	193.0	0.597252646	0.736287179	0.012075671	0.124582470	0.038397527
2020-04-09T18:15:00	0.2403	10.039	193.0	0.602981171	0.744681053	0.012291308	0.126807162	0.039083199
2020-04-09T18:20:00	0.2403	9.996	192.0	0.603037322	0.744763466	0.012293432	0.126829069	0.039089951
2020-04-09T18:25:00	0.2412	9.953	192.0	0.606092676	0.749251781	0.012409257	0.128024018	0.039458246
2020-04-09T18:30:00	0.2419	9.913	192.0	0.608479701	0.752763768	0.012500136	0.128961601	0.039747218
2020-04-09T18:35:00	0.2417	9.872	192.0	0.607537001	0.751376219	0.012464205	0.128590903	0.039632965
2020-04-09T18:40:00	0.2425	9.831	192.0	0.610255784	0.755379989	0.012567977	0.129661505	0.039962935
2020-04-09T18:45:00	0.2421	9.791	191.0	0.608980738	0.753501542	0.012519255	0.129158848	0.039808011
2020-04-09T18:50:00	0.2418	9.750	191.0	0.608038172	0.752113793	0.012483300	0.128787910	0.039693685
2020-04-09T18:55:00	0.2428	9.709	191.0	0.611421841	0.757099064	0.012612620	0.130122077	0.040104888
2020-04-09T19:00:00	0.2422	9.667	191.0	0.609481705	0.754239423	0.012538386	0.129356222	0.039868844
2020-04-09T19:05:00	0.2435	9.627	191.0	0.613528876	0.760208287	0.012693496	0.130956457	0.040362052
2020-04-09T19:10:00	0.2445	9.585	191.0	0.616907324	0.765201449	0.012823730	0.132300062	0.040776164
2020-04-09T19:15:00	0.2438	9.544	190.0	0.614637893	0.761846295	0.012736171	0.131396731	0.040497749
2020-04-09T19:20:00	0.2440	9.501	190.0	0.615358394	0.762911022	0.012763936	0.131683174	0.040586033
2020-04-09T19:25:00	0.2437	9.457	190.0	0.614417518	0.761520720	0.012727685	0.131309182	0.040470765
2020-04-09T19:30:00	0.2440	9.415	190.0	0.615470304	0.763076438	0.012768251	0.131727695	0.040599755
2020-04-09T19:35:00	0.2443	9.373	190.0	0.616190636	0.764141420	0.012796046	0.132014444	0.040688134
2020-04-09T19:40:00	0.2435	9.330	190.0	0.613588362	0.760296121	0.012695783	0.130980053	0.040369324
2020-04-09T19:45:00	0.2446	9.287	190.0	0.617298824	0.765780685	0.012838866	0.132456219	0.040824293
2020-04-09T19:50:00	0.2442	9.247	189.0	0.616026303	0.763898421	0.012789702	0.131948998	0.040667963
2020-04-09T19:55:00	0.2453	9.207	189.0	0.619734225	0.769386839	0.012933231	0.133429764	0.041124349
2020-04-09T20:00:00	0.2431	9.165	189.0	0.612482520	0.758663776	0.012653300	0.130541759	0.040234238
2020-04-09T20:05:00	0.2445	9.125	188.0	0.616858389	0.765129056	0.012821839	0.132280550	0.040770150
2020-04-09T20:10:00	0.2449	9.085	188.0	0.618242435	0.767177319	0.012875386	0.132832988	0.040940417
2020-04-09T20:15:00	0.2442	9.046	188.0	0.615973856	0.763820873	0.012787678	0.131928114	0.040661526
2020-04-09T20:20:00	0.2445	9.007	188.0	0.617026182	0.765377289	0.012828325	0.132347460	0.040790773
2020-04-09T20:25:00	0.2449	8.967	188.0	0.618410163	0.767425651	0.012881883	0.132900017	0.040961076
2020-04-09T20:30:00	0.2441	8.928	188.0	0.615809512	0.763577889	0.012781336	0.131862686	0.040641360
2020-04-09T20:35:00	0.2449	8.887	188.0	0.618190021	0.767099721	0.012873356	0.132812045	0.040933962
2020-04-09T20:40:00	0.2448	8.848	188.0	0.617913950	0.766691045	0.012862667	0.132701766	0.040899973
2020-04-09T20:45:00	0.2445	8.810	188.0	0.616973750	0.765299718	0.012826298	0.132326550	0.040784328
2020-04-09T20:50:00	0.2445	8.772	187.0	0.617029680	0.765382464	0.012828460	0.132348855	0.040791203
2020-04-09T20:55:00	0.2440	8.732	187.0	0.615424848	0.763009247	0.012766498	0.131709610	0.040594181
2020-04-09T21:00:00	0.2444	8.694	187.0	0.616809452	0.765056664	0.012819948	0.132261038	0.040764137
2020-04-09T21:05:00	0.2444	8.658	187.0	0.616533274	0.764648151	0.012809277	0.132150954	0.040730207
2020-04-09T21:10:00	0.2441	8.620	186.0	0.615592709	0.763257377	0.012772972	0.131776399	0.040614766
2020-04-09T21:15:00	0.2426	8.583	187.0	0.610662033	0.755978778	0.012583521	0.129821871	0.040012361
2020-04-09T21:20:00	0.2436	8.546	186.0	0.614043206	0.760967818	0.012713278	0.131160548	0.040424955
2020-04-09T21:25:00	0.2427	8.510	186.0	0.611106741	0.756634410	0.012600548	0.129997535	0.040066503
2020-04-09T21:30:00	0.2439	8.474	186.0	0.615152062	0.762606069	0.012755982	0.131601112	0.040560741
2020-04-09T21:35:00	0.2433	8.437	186.0	0.612881510	0.759252612	0.012668619	0.130699809	0.040282951
2020-04-09T21:40:00	0.2431	8.401	186.0	0.612272518	0.758353908	0.012645240	0.130458612	0.040208611
2020-04-09T21:45:00	0.2429	8.364	186.0	0.611663422	0.757455361	0.012621879	0.130217603	0.040134330
2020-04-09T21:50:00	0.2431	8.326	185.0	0.612384526	0.758519176	0.012649538	0.130502956	0.040222278
2020-04-09T21:55:00	0.2421	8.289	185.0	0.609113884	0.753697634	0.012524338	0.129211290	0.039824175
2020-04-09T22:00:00	0.2418	8.254	185.0	0.608171353	0.752309832	0.012488378	0.128840289	0.039709828
2020-04-09T22:05:00	0.2416	8.218	185.0	0.607367024	0.751126112	0.012457732	0.128524122	0.039612383
2020-04-09T22:10:00	0.2411	8.181	185.0	0.605563194	0.748473412	0.012389145	0.127816524	0.039394294
2020-04-09T22:15:00	0.2417	8.145	185.0	0.607756069	0.751698597	0.012472550	0.128676998	0.039659501
2020-04-09T22:20:00	0.2413	8.110	185.0	0.606285538	0.749535358	0.012416587	0.128099640	0.039481553
2020-04-09T22:25:00	0.2419	8.075	184.0	0.608477967	0.752761214	0.012500070	0.128960918	0.039747008
2020-04-09T22:30:00	0.2414	8.039	184.0	0.606674701	0.750107664	0.012431385	0.128252303	0.039528605
2020-04-09T22:35:00	0.2411	8.003	184.0	0.605536893	0.748434754	0.012388146	0.127806222	0.039391119
2020-04-09T22:40:00	0.2409	7.968	184.0	0.605065183	0.747741521	0.012370243	0.127621522	0.039334192
2020-04-09T22:45:00	0.2423	7.935	184.0	0.609588561	0.754396840	0.012542469	0.129398342	0.039881826
2020-04-09T22:50:00	0.2412	7.901	184.0	0.606120745	0.749293052	0.012410324	0.128035023	0.039461637
2020-04-09T22:55:00	0.2416	7.869	183.0	0.607314450	0.751048757	0.012455730	0.128503470	0.039606017
2020-04-09T23:00:00	0.2416	7.836	183.0	0.607508980	0.751334987	0.012463138	0.128579893	0.039629572
2020-04-09T23:05:00	0.2413	7.805	183.0	0.606371440	0.749661675	0.012419853	0.128133330	0.039491937
2020-04-09T23:10:00	0.2429	7.775	183.0	0.611558399	0.757300461	0.012617854	0.130176070	0.040121529
2020-04-09T23:15:00	0.2428	7.746	183.0	0.611420108	0.757096509	0.012612554	0.130121392	0.040104677
2020-04-09T23:20:00	0.2426	7.718	183.0	0.610616516	0.755911680	0.012581779	0.129803898	0.040006822
2020-04-09T23:25:00	0.2425	7.694	183.0	0.610478189	0.755707784	0.012576486	0.129749286	0.039989990
2020-04-09T23:30:00	0.2415	7.672	183.0	0.607011243	0.750602686	0.012444188	0.128384398	0.039569318
2020-04-09T23:35:00	0.2425	7.652	183.0	0.610201518	0.755300015	0.012565902	0.129640091	0.039956335
2020-04-09T23:40:00	0.2420	7.628	182.0	0.608732001	0.753135251	0.012509762	0.129060906	0.039777825
2020-04-09T23:45:00	0.2412	7.605	182.0	0.605929648	0.749012095	0.012403063	0.127960112	0.039438549
2020-04-09T23:50:00	0.2412	7.584	182.0	0.606124254	0.749298211	0.012410457	0.128036398	0.039462061
2020-04-09T23:55:00	0.2407	7.563	182.0	0.604319791	0.746646460	0.012341981	0.127329940	0.039244324
2020-04-10T00:00:00	0.2407	7.541	182.0	0.604514486	0.746932443	0.012349360	0.127406067	0.039267787
2020-04-10T00:05:00	0.2420	7.521	182.0	0.608705723	0.753096558	0.012508759	0.129050561	0.039774636
2020-04-10T00:10:00	0.2413	7.499	182.0	0.606236456	0.749463186	0.012414721	0.128080393	0.039475621
2020-04-10T00:15:00	0.2410	7.477	182.0	0.605431688	0.748280127	0.012384152	0.127765017	0.039378419
2020-04-10T00:20:00	0.2399	7.455	182.0	0.601626293	0.742693303	0.012240130	0.126279162	0.038920464
2020-04-10T00:25:00	0.2418	7.431	181.0	0.608152085	0.752281469	0.012487643	0.128832710	0.039707492
2020-04-10T00:30:00	0.2413	7.405	182.0	0.606348653	0.749628168	0.012418986	0.128124393	0.039489182
2020-04-10T00:35:00	0.2407	7.377	181.0	0.604211039	0.746486731	0.012337860	0.127287427	0.039231221
2020-04-10T00:40:00	0.2415	7.352	182.0	0.607070838	0.750690355	0.012446456	0.128407797	0.039576530
2020-04-10T00:45:00	0.2415	7.325	181.0	0.606932372	0.750486666	0.012441187	0.128353435	0.039559775
2020-04-10T00:50:00	0.2407	7.297	181.0	0.604461869	0.746855152	0.012347365	0.127385491	0.039261446
2020-04-10T00:55:00	0.2414	7.269	181.0	0.606655425	0.750079314	0.012430651	0.128244739	0.039526274
2020-04-10T01:00:00	0.2412	7.241	182.0	0.606183864	0.749385857	0.012412723	0.128059770	0.039469265
2020-04-10T01:05:00	0.2401	7.215	182.0	0.602379277	0.743797821	0.012268559	0.126572462	0.039010862
2020-04-10T01:10:00	0.2417	7.188	181.0	0.607572074	0.751427829	0.012465541	0.128604685	0.039637213
2020-04-10T01:15:00	0.2411	7.161	181.0	0.605768348	0.748774972	0.012396936	0.127896899	0.039419067
2020-04-10T01:20:00	0.2421	7.135	180.0	0.608959741	0.753470619	0.012518454	0.129150578	0.039805463
2020-04-10T01:25:00	0.2409	7.109	180.0	0.605158134	0.747878108	0.012373770	0.127657906	0.039345406
2020-04-10T01:30:00	0.2402	7.081	180.0	0.602686393	0.744248451	0.012280164	0.126692190	0.039047763
2020-04-10T01:35:00	0.2407	7.053	180.0	0.604214550	0.746491888	0.012337993	0.127288800	0.039231644
2020-04-10T01:40:00	0.2414	7.025	180.0	0.606741318	0.750205644	0.012433918	0.128278445	0.039536663
2020-04-10T01:45:00	0.2422	6.999	180.0	0.609266287	0.753922104	0.012530158	0.129271331	0.039842680
2020-04-10T01:50:00	0.2419	6.972	180.0	0.608462207	0.752738012	0.012499469	0.128954717	0.039745096
2020-04-10T01:55:00	0.2412	6.943	180.0	0.605992770	0.749104895	0.012405461	0.127984853	0.039446175
2020-04-10T02:00:00	0.2421	6.914	180.0	0.609183961	0.753800846	0.012527014	0.129238896	0.039832683
2020-04-10T02:05:00	0.2425	6.890	179.0	0.610376635	0.755558102	0.012572600	0.129709200	0.039977635
2020-04-10T02:10:00	0.2416	6.872	179.0	0.607242601	0.750943048	0.012452995	0.128475249	0.039597319
2020-04-10T02:15:00	0.2399	6.851	179.0	0.601771992	0.742906985	0.012245628	0.126335887	0.038937947
2020-04-10T02:20:00	0.2392	6.832	179.0	0.599297885	0.739280870	0.012152434	0.125374422	0.038641614
2020-04-10T02:25:00	0.2412	6.812	179.0	0.606161077	0.749352351	0.012411857	0.128050836	0.039466511
2020-04-10T02:30:00	0.2409	6.792	179.0	0.605023103	0.747679689	0.012368647	0.127605052	0.039329116
2020-04-10T02:35:00	0.2412	6.770	179.0	0.605884069	0.748945089	0.012401331	0.127942248	0.039433044
2020-04-10T02:40:00	0.2401	6.744	179.0	0.602412626	0.743846750	0.012269819	0.126585460	0.039014868
2020-04-10T02:45:00	0.2401	6.718	179.0	0.602273979	0.743643335	0.012264581	0.126531426	0.038998214
2020-04-10T02:50:00	0.2396	6.694	179.0	0.600801170	0.741483512	0.012209016	0.125958165	0.038821530
2020-04-10T02:55:00	0.2398	6.672	179.0	0.601329626	0.742258266	0.012228938	0.126163701	0.038884878
2020-04-10T03:00:00	0.2398	6.647	178.0	0.601524485	0.742544002	0.012236289	0.126239533	0.038908250
2020-04-10T03:05:00	0.2402	6.625	178.0	0.602719739	0.744297384	0.012281425	0.126705193	0.039051771
2020-04-10T03:10:00	0.2400	6.605	179.0	0.601914172	0.743115524	0.012250995	0.126391255	0.038955012
2020-04-10T03:15:00	0.2396	6.584	178.0	0.600774834	0.741444908	0.012208023	0.125947926	0.038818374
2020-04-10T03:20:00	0.2394	6.560	178.0	0.599968824	0.740263709	0.012177671	0.125634783	0.038721860
2020-04-10T03:25:00	0.2399	6.535	178.0	0.601831675	0.742994521	0.012247881	0.126359127	0.038945110
2020-04-10T03:30:00	0.2401	6.511	178.0	0.602359978	0.743769505	0.012267830	0.126564941	0.039008544
2020-04-10T03:35:00	0.2399	6.486	178.0	0.601554329	0.742587767	0.012237414	0.126251149	0.038911830
2020-04-10T03:40:00	0.2406	6.461	178.0	0.604082995	0.746298678	0.012333009	0.127237382	0.039215797
2020-04-10T03:45:00	0.2404	6.433	177.0	0.603277738	0.745116353	0.012302525	0.126922886	0.039118866
2020-04-10T03:50:00	0.2399	6.406	178.0	0.601805347	0.742955906	0.012246887	0.126348875	0.038941950
2020-04-10T03:55:00	0.2394	6.379	178.0	0.599998681	0.740307455	0.012178794	0.125646376	0.038725433
2020-04-10T04:00:00	0.2379	6.353	177.0	0.595185180	0.733264508	0.011998328	0.123784533	0.038151595
2020-04-10T04:05:00	0.2407	6.328	177.0	0.604428199	0.746805695	0.012346089	0.127372326	0.039257388
2020-04-10T04:10:00	0.2407	6.303	177.0	0.604327869	0.746658325	0.012342287	0.127333098	0.039245297
2020-04-10T04:15:00	0.2406	6.279	177.0	0.603894241	0.746021490	0.012325860	0.127163628	0.039193065
2020-04-10T04:20:00	0.2414	6.253	177.0	0.606792506	0.750280933	0.012435866	0.128298534	0.039542854
2020-04-10T04:25:00	0.2416	6.228	176.0	0.607358275	0.751113238	0.012457399	0.128520685	0.039611323
2020-04-10T04:30:00	0.2423	6.204	176.0	0.609588222	0.754396340	0.012542456	0.129398208	0.039881785
2020-04-10T04:35:00	0.2429	6.179	176.0	0.611816770	0.757681552	0.012627759	0.130278258	0.040153024
2020-04-10T04:40:00	0.2431	6.158	176.0	0.612381739	0.758515064	0.012649431	0.130501852	0.040221938
2020-04-10T04:45:00	0.2426	6.137	176.0	0.610618626	0.755914791	0.012581860	0.129804731	0.040007079
2020-04-10T04:50:00	0.2428	6.117	176.0	0.611516396	0.757238513	0.012616244	0.130159462	0.040116410
2020-04-10T04:55:00	0.2440	6.097	176.0	0.615405281	0.762980325	0.012765744	0.131701826	0.040591782
2020-04-10T05:00:00	0.2461	6.077	176.0	0.622275491	0.773155077	0.013032079	0.134449561	0.041438660
2020-04-10T05:05:00	0.2459	6.057	176.0	0.621512400	0.772022979	0.013002356	0.134142914	0.041344149
2020-04-10T05:10:00	0.2453	6.041	176.0	0.619753807	0.769415853	0.012933992	0.133437607	0.041126766
2020-04-10T05:15:00	0.2462	6.027	176.0	0.622639175	0.773694801	0.013046258	0.134595834	0.041483743
2020-04-10T05:20:00	0.2467	6.015	175.0	0.624196807	0.776007658	0.013107072	0.135223243	0.041677117
2020-04-10T05:25:00	0.2457	6.005	176.0	0.621112985	0.771430615	0.012986813	0.133982555	0.041294725
2020-04-10T05:30:00	0.2476	5.991	176.0	0.627310032	0.780636487	0.013229060	0.136481770	0.042065007
2020-04-10T05:35:00	0.2462	5.979	175.0	0.622571466	0.773594309	0.013043617	0.134568595	0.041475348
2020-04-10T05:40:00	0.2471	5.971	175.0	0.625785839	0.778369251	0.013169263	0.135864857	0.041874869
2020-04-10T05:45:00	0.2480	5.963	175.0	0.628666338	0.782655640	0.013282388	0.137031949	0.042234578
2020-04-10T05:50:00	0.2474	5.958	175.0	0.626580090	0.779550453	0.013200405	0.136186147	0.041973893
2020-04-10T05:55:00	0.2484	5.957	175.0	0.629790858	0.784330912	0.013326687	0.137488976	0.042375438
2020-04-10T06:00:00	0.2491	5.957	175.0	0.632337491	0.788128750	0.013427292	0.138526896	0.042695335
2020-04-10T06:05:00	0.2506	5.956	175.0	0.637194537	0.795387382	0.013620259	0.140517702	0.043308920
2020-04-10T06:10:00	0.2510	5.964	175.0	0.638415763	0.797215595	0.013669003	0.141020581	0.043463913
2020-04-10T06:15:00	0.2513	5.977	175.0	0.639636574	0.799044451	0.013717820	0.141524222	0.043619140
2020-04-10T06:20:00	0.2499	5.991	175.0	0.634914311	0.791977199	0.013529489	0.139581245	0.043020295
2020-04-10T06:25:00	0.2503	6.002	175.0	0.636136314	0.793804212	0.013578095	0.140082700	0.043174849
2020-04-10T06:30:00	0.2498	6.007	175.0	0.634715357	0.791679863	0.013521584	0.139499692	0.042995160
2020-04-10T06:35:00	0.2504	6.008	175.0	0.636598020	0.794494838	0.013596483	0.140272406	0.043233318
2020-04-10T06:40:00	0.2506	6.017	175.0	0.637159081	0.795334322	0.013618845	0.140503116	0.043304425
2020-04-10T06:45:00	0.2504	6.036	175.0	0.636399159	0.794197357	0.013588561	0.140190682	0.043208130
2020-04-10T06:50:00	0.2508	6.037	175.0	0.637950813	0.796519401	0.013650434	0.140829012	0.043404869
2020-04-10T06:55:00	0.2518	6.054	175.0	0.641151412	0.801315541	0.013778521	0.142150463	0.043812153
2020-04-10T07:00:00	0.2510	6.090	176.0	0.638412286	0.797210388	0.013668864	0.141019148	0.043463471
2020-04-10T07:05:00	0.2503	6.123	176.0	0.636331710	0.794096466	0.013585875	0.140162968	0.043199588
2020-04-10T07:10:00	0.2500	6.153	176.0	0.635241237	0.792465861	0.013542484	0.139715309	0.043061615
2020-04-10T07:15:00	0.2506	6.187	176.0	0.637123625	0.795281263	0.013617431	0.140488530	0.043299929
2020-04-10T07:20:00	0.2510	6.217	176.0	0.638674965	0.797603791	0.013679360	0.141127436	0.043496846
2020-04-10T07:25:00	0.2514	6.253	176.0	0.639895687	0.799432784	0.013728193	0.141631239	0.043652123
2020-04-10T07:30:00	0.2518	6.293	176.0	0.641115995	0.801262420	0.013777100	0.142135805	0.043807636
2020-04-10T07:35:00	0.2511	6.337	177.0	0.638706929	0.797651667	0.013680638	0.141140616	0.043500908
2020-04-10T07:40:00	0.2513	6.380	177.0	0.639597666	0.798986145	0.013716263	0.141508157	0.043614188
2020-04-10T07:45:00	0.2518	6.423	177.0	0.641147937	0.801310330	0.013778382	0.142149025	0.043811710
2020-04-10T07:50:00	0.2518	6.466	178.0	0.641048634	0.801161392	0.013774398	0.142107929	0.043799044
2020-04-10T07:55:00	0.2513	6.510	178.0	0.639629622	0.799034034	0.013717542	0.141521352	0.043618255
2020-04-10T08:00:00	0.2517	6.547	177.0	0.640850020	0.800863530	0.013766433	0.142025752	0.043773716
2020-04-10T08:05:00	0.2516	6.589	178.0	0.640420809	0.800219956	0.013749228	0.141848249	0.043719008
2020-04-10T08:10:00	0.2521	6.619	178.0	0.642300482	0.803039561	0.013824659	0.142626454	0.043958858
2020-04-10T08:15:00	0.2517	6.676	178.0	0.640881964	0.800911435	0.013767714	0.142038967	0.043777789
2020-04-10T08:20:00	0.2519	6.721	178.0	0.641442356	0.801751956	0.013790196	0.142270906	0.043849275
2020-04-10T08:25:00	0.2517	6.793	179.0	0.640683341	0.800613587	0.013759750	0.141956807	0.043752467
2020-04-10T08:30:00	0.2527	6.866	179.0	0.644211089	0.805908645	0.013901551	0.143419738	0.044203356
2020-04-10T08:35:00	0.2520	6.956	179.0	0.641804098	0.802294669	0.013804718	0.142420731	0.043895452
2020-04-10T08:40:00	0.2520	7.031	180.0	0.641704813	0.802145703	0.013800731	0.142379601	0.043882776
2020-04-10T08:45:00	0.2505	7.124	180.0	0.636985274	0.795074235	0.013611916	0.140431625	0.043282391
2020-04-10T08:50:00	0.2514	7.227	180.0	0.639856782	0.799374474	0.013726636	0.141615168	0.043647170
2020-04-10T08:55:00	0.2514	7.302	181.0	0.639757443	0.799225591	0.013722658	0.141574138	0.043634524
2020-04-10T09:00:00	0.2514	7.344	181.0	0.639988071	0.799571253	0.013731893	0.141669405	0.043663886
2020-04-10T09:05:00	0.2510	7.400	181.0	0.638568639	0.797444545	0.013675111	0.141083598	0.043483335
2020-04-10T09:10:00	0.2509	7.449	182.0	0.638139156	0.796801395	0.013657954	0.140906597	0.043428782
2020-04-10T09:15:00	0.2506	7.518	182.0	0.637049232	0.795169940	0.013614465	0.140457930	0.043290498
2020-04-10T09:20:00	0.2515	7.593	182.0	0.640250635	0.799964835	0.013742409	0.141777905	0.043697327
2020-04-10T09:25:00	0.2499	7.692	182.0	0.634868391	0.791908569	0.013527664	0.139562420	0.043014493
2020-04-10T09:30:00	0.2506	7.809	183.0	0.637081211	0.795217793	0.013615740	0.140471084	0.043294552
2020-04-10T09:35:00	0.2493	7.941	184.0	0.633016834	0.789142794	0.013454196	0.138804458	0.042780882
2020-04-10T09:40:00	0.2495	8.066	184.0	0.633578455	0.789981413	0.013476459	0.139034139	0.042851672
2020-04-10T09:45:00	0.2500	8.185	184.0	0.635131330	0.792301571	0.013538114	0.139670231	0.043047722
2020-04-10T09:50:00	0.2489	8.238	185.0	0.631726231	0.787216666	0.013403108	0.138277398	0.042618437
2020-04-10T09:55:00	0.2485	8.326	186.0	0.630303523	0.785095016	0.013346909	0.137697595	0.042439736
2020-04-10T10:00:00	0.2494	8.405	186.0	0.633180387	0.789386986	0.013460677	0.138871324	0.042801491
2020-04-10T10:05:00	0.2493	8.409	186.0	0.632794108	0.788810292	0.013445372	0.138713426	0.042752825
2020-04-10T10:10:00	0.2491	8.477	186.0	0.632407787	0.788233662	0.013430075	0.138555604	0.042704183
2020-04-10T10:15:00	0.2496	8.574	186.0	0.634005004	0.790618518	0.013493380	0.139208713	0.042905477
2020-04-10T10:20:00	0.2493	8.639	187.0	0.632957671	0.789054468	0.013451852	0.138780274	0.042773428
2020-04-10T10:25:00	0.2494	8.752	187.0	0.633232582	0.789464920	0.013462746	0.138892667	0.042808069
2020-04-10T10:30:00	0.2492	8.827	187.0	0.632515681	0.788394693	0.013434346	0.138599672	0.042717765
2020-04-10T10:35:00	0.2497	8.836	188.0	0.634112850	0.790779624	0.013497660	0.139252869	0.042919087
2020-04-10T10:40:00	0.2483	8.973	188.0	0.629758102	0.784282098	0.013325396	0.137475653	0.042371331
2020-04-10T10:45:00	0.2481	8.997	188.0	0.629040505	0.783212943	0.013297119	0.137183931	0.042281420
2020-04-10T10:50:00	0.2481	9.087	189.0	0.628984763	0.783129910	0.013294924	0.137161283	0.042274440
2020-04-10T10:55:00	0.2501	9.165	189.0	0.635542390	0.792916080	0.013554460	0.139838863	0.043099696
2020-04-10T11:00:00	0.2498	9.150	189.0	0.634495506	0.791351336	0.013512852	0.139409602	0.042967393
2020-04-10T11:05:00	0.2482	9.308	190.0	0.629148500	0.783373818	0.013301373	0.137227813	0.042294945
2020-04-10T11:10:00	0.2482	9.433	190.0	0.629423704	0.783783820	0.013312215	0.137339671	0.042329420
2020-04-10T11:15:00	0.2483	9.515	191.0	0.629698886	0.784193854	0.013323061	0.137451567	0.042363908
2020-04-10T11:20:00	0.2475	9.642	191.0	0.626994909	0.780167580	0.013216685	0.136354106	0.042025660
2020-04-10T11:25:00	0.2468	9.770	192.0	0.624620272	0.776636797	0.013123630	0.135394075	0.041729769
2020-04-10T11:30:00	0.2457	9.909	192.0	0.620917432	0.771140643	0.012979206	0.133904079	0.041270538
2020-04-10T11:35:00	0.2445	10.024	193.0	0.616878663	0.765159048	0.012822623	0.132288633	0.040772642
2020-04-10T11:40:00	0.2443	10.140	193.0	0.616490615	0.764585057	0.012807630	0.132133954	0.040724968
2020-04-10T11:45:00	0.2439	10.248	194.0	0.615105887	0.762537828	0.012754202	0.131582751	0.040555082
2020-04-10T11:50:00	0.2433	10.343	195.0	0.613055780	0.759509842	0.012675313	0.130768872	0.040304236
2020-04-10T11:55:00	0.2433	10.421	195.0	0.612999787	0.759427192	0.012673162	0.130746680	0.040297397
2020-04-10T12:00:00	0.2417	10.513	195.0	0.607620421	0.751498974	0.012467382	0.128623684	0.039643069
2020-04-10T12:05:00	0.2415	10.606	196.0	0.606898349	0.750436619	0.012439893	0.128340079	0.039555659
2020-04-10T12:10:00	0.2421	10.704	196.0	0.609172728	0.753784301	0.012526585	0.129234471	0.039831319
2020-04-10T12:15:00	0.2420	10.795	197.0	0.608783838	0.753211582	0.012511740	0.129081314	0.039784115
2020-04-10T12:20:00	0.2413	10.873	197.0	0.606397017	0.749699288	0.012420825	0.128143362	0.039495029
2020-04-10T12:25:00	0.2407	10.947	197.0	0.604341873	0.746678894	0.012342818	0.127338573	0.039246985
2020-04-10T12:30:00	0.2397	11.009	197.0	0.600951437	0.741703790	0.012214679	0.126016592	0.038839537
2020-04-10T12:35:00	0.2399	11.050	198.0	0.601562376	0.742599567	0.012237718	0.126254281	0.038912796
2020-04-10T12:40:00	0.2403	11.096	198.0	0.603173486	0.744963323	0.012298582	0.126882200	0.039106326
2020-04-10T12:45:00	0.2405	11.145	198.0	0.603784041	0.745859674	0.012321687	0.127120578	0.039179797
2020-04-10T12:50:00	0.2389	11.174	198.0	0.598390662	0.737952503	0.012118353	0.125022811	0.038533245
2020-04-10T12:55:00	0.2393	11.203	198.0	0.599669523	0.739825226	0.012166409	0.125518604	0.038686053
2020-04-10T13:00:00	0.2380	11.215	198.0	0.595272374	0.733391915	0.012001584	0.123818132	0.038161951
2020-04-10T13:05:00	0.2399	11.202	199.0	0.601558862	0.742594415	0.012237586	0.126252914	0.038912374
2020-04-10T13:10:00	0.2402	11.197	198.0	0.602836580	0.744468849	0.012285841	0.126750760	0.039065815
2020-04-10T13:15:00	0.2389	11.198	199.0	0.598443369	0.738029659	0.012120331	0.125043225	0.038539536
2020-04-10T13:20:00	0.2384	11.195	199.0	0.596717603	0.735504595	0.012055631	0.124375718	0.038333804
2020-04-10T13:25:00	0.2386	11.180	198.0	0.597329274	0.736399279	0.012078542	0.124612096	0.038406658
2020-04-10T13:30:00	0.2391	11.139	198.0	0.598942312	0.738760154	0.012139071	0.125236553	0.038599122
2020-04-10T13:35:00	0.2385	11.083	198.0	0.596882834	0.735746245	0.012061818	0.124439548	0.038353477
2020-04-10T13:40:00	0.2383	11.047	198.0	0.596492592	0.735175552	0.012047208	0.124288822	0.038307022
2020-04-10T13:45:00	0.2383	11.030	198.0	0.596436337	0.735093295	0.012045102	0.124267102	0.038300328
2020-04-10T13:50:00	0.2382	10.976	197.0	0.596046046	0.734522675	0.012030501	0.124116464	0.038253900
2020-04-10T13:55:00	0.2367	10.921	197.0	0.590975381	0.727120736	0.011841628	0.122167898	0.037653333
2020-04-10T14:00:00	0.2374	10.880	197.0	0.593260017	0.730453094	0.011926537	0.123043884	0.037923320
2020-04-10T14:05:00	0.2371	10.860	197.0	0.592200608	0.728907304	0.011887125	0.122637281	0.037798001
2020-04-10T14:10:00	0.2361	10.819	198.0	0.589133216	0.724436932	0.011773391	0.121463904	0.037436355
2020-04-10T14:15:00	0.2369	10.767	197.0	0.591753519	0.728255235	0.011870513	0.122465895	0.037745178
2020-04-10T14:20:00	0.2369	10.720	196.0	0.591697188	0.728173090	0.011868421	0.122444310	0.037738525
2020-04-10T14:25:00	0.2363	10.689	196.0	0.589633477	0.725165470	0.011791902	0.121654875	0.037495214
2020-04-10T14:30:00	0.2355	10.661	196.0	0.586898782	0.721185436	0.011690894	0.120612800	0.037174036
2020-04-10T14:35:00	0.2361	10.650	196.0	0.588851345	0.724026531	0.011762968	0.121356369	0.037403211
2020-04-10T14:40:00	0.2375	10.635	196.0	0.593812469	0.731259552	0.011947116	0.123256190	0.037988755
2020-04-10T14:45:00	0.2368	10.606	196.0	0.591415522	0.727762385	0.011857962	0.122336409	0.037705269
2020-04-10T14:50:00	0.2375	10.572	196.0	0.593699873	0.731095166	0.011942920	0.123212904	0.037975414
2020-04-10T14:55:00	0.2368	10.533	195.0	0.591302849	0.727598112	0.011853780	0.122293260	0.037691971
2020-04-10T15:00:00	0.2368	10.501	195.0	0.591246512	0.727515978	0.011851689	0.122271688	0.037685322
2020-04-10T15:05:00	0.2368	10.465	195.0	0.591190173	0.727433845	0.011849598	0.122250118	0.037678674
2020-04-10T15:10:00	0.2374	10.434	195.0	0.593474670	0.730766410	0.011934531	0.123126352	0.037948738
2020-04-10T15:15:00	0.2365	10.399	195.0	0.590408387	0.726294395	0.011820604	0.121950995	0.037586481
2020-04-10T15:20:00	0.2372	10.369	195.0	0.592693390	0.729626209	0.011905449	0.122826326	0.037856266
2020-04-10T15:25:00	0.2380	10.337	195.0	0.595311050	0.733448430	0.012003029	0.123833037	0.038166545
2020-04-10T15:30:00	0.2377	10.303	195.0	0.594252257	0.731901726	0.011963511	0.123425334	0.038040887
2020-04-10T15:35:00	0.2383	10.273	195.0	0.596200753	0.734748847	0.012036288	0.124176164	0.038272300
2020-04-10T15:40:00	0.2377	10.243	195.0	0.594473890	0.732225415	0.011971777	0.123510620	0.038067172
2020-04-10T15:45:00	0.2387	10.212	195.0	0.597758072	0.737026665	0.012094618	0.124777940	0.038457773
2020-04-10T15:50:00	0.2382	10.180	194.0	0.596031971	0.734502100	0.012029975	0.124111033	0.038252226
2020-04-10T15:55:00	0.2387	10.149	194.0	0.597645602	0.736862092	0.012090400	0.124734430	0.038444363
2020-04-10T16:00:00	0.2379	10.119	194.0	0.594917115	0.732872853	0.011988318	0.123681266	0.038119767
2020-04-10T16:05:00	0.2384	10.088	194.0	0.596546198	0.735253938	0.012049214	0.124309521	0.038313402
2020-04-10T16:10:00	0.2373	10.059	194.0	0.593163231	0.730311835	0.011922934	0.123006709	0.037911862
2020-04-10T16:15:00	0.2382	10.033	193.0	0.596129548	0.734644748	0.012033624	0.124148685	0.038263830
2020-04-10T16:20:00	0.2376	10.006	193.0	0.594083382	0.731655118	0.011957214	0.123360370	0.038020864
2020-04-10T16:25:00	0.2378	9.979	193.0	0.594710460	0.732570963	0.011980604	0.123601687	0.038095240
2020-04-10T16:30:00	0.2374	9.956	193.0	0.593332150	0.730558378	0.011929223	0.123071594	0.037931861
2020-04-10T16:35:00	0.2370	9.934	193.0	0.591953301	0.728546592	0.011877935	0.122542464	0.037768777
2020-04-10T16:40:00	0.2377	9.913	193.0	0.594252257	0.731901726	0.011963511	0.123425334	0.038040887
2020-04-10T16:45:00	0.2372	9.890	192.0	0.592539401	0.729401537	0.011899722	0.122767235	0.037838054
2020-04-10T16:50:00	0.2370	9.866	192.0	0.592163640	0.728853381	0.011885751	0.122623105	0.037793632
2020-04-10T16:55:00	0.2375	9.843	193.0	0.593793994	0.731232578	0.011946427	0.123249087	0.037986566
2020-04-10T17:00:00	0.2369	9.821	192.0	0.591746473	0.728244960	0.011870251	0.122463195	0.037744346
2020-04-10T17:05:00	0.2362	9.798	192.0	0.589363094	0.724771681	0.011781895	0.121551639	0.037463396
2020-04-10T17:10:00	0.2362	9.777	192.0	0.589321699	0.724711398	0.011780363	0.121535838	0.037458526
2020-04-10T17:15:00	0.2369	9.753	192.0	0.591622370	0.728063989	0.011865642	0.122415644	0.037729690
2020-04-10T17:20:00	0.2357	9.731	191.0	0.587565029	0.722154508	0.011715461	0.120866255	0.037252154
2020-04-10T17:25:00	0.2364	9.707	192.0	0.589866847	0.725505402	0.011800542	0.121744015	0.037522688
2020-04-10T17:30:00	0.2362	9.681	192.0	0.589490801	0.724957668	0.011786621	0.121600394	0.037478422
2020-04-10T17:35:00	0.2367	9.654	191.0	0.591122391	0.727335033	0.011847083	0.122224169	0.037670676
2020-04-10T17:40:00	0.2363	9.624	192.0	0.589742678	0.725324529	0.011795944	0.121696582	0.037508069
2020-04-10T17:45:00	0.2352	9.593	192.0	0.586018188	0.719905158	0.011658464	0.120278220	0.037070916
2020-04-10T17:50:00	0.2349	9.560	191.0	0.584971591	0.718384370	0.011619980	0.119881188	0.036948546
2020-04-10T17:55:00	0.2352	9.522	191.0	0.585935319	0.719784709	0.011655414	0.120246759	0.037061219
2020-04-10T18:00:00	0.2338	9.484	191.0	0.581200554	0.712912308	0.011481856	0.118456193	0.036509349
2020-04-10T18:05:00	0.2352	9.444	191.0	0.585852447	0.719664263	0.011652365	0.120215301	0.037051523
2020-04-10T18:10:00	0.2354	9.406	191.0	0.586815934	0.721064957	0.011687841	0.120581301	0.037164328
2020-04-10T18:15:00	0.2356	9.366	191.0	0.587444306	0.721978886	0.011711008	0.120820309	0.037237993
2020-04-10T18:20:00	0.2363	9.326	191.0	0.589746203	0.725329664	0.011796075	0.121697929	0.037508484
2020-04-10T18:25:00	0.2358	9.284	190.0	0.588031156	0.722832720	0.011732665	0.121043742	0.037306857
2020-04-10T18:30:00	0.2355	9.242	190.0	0.586985157	0.721311049	0.011694078	0.120645643	0.037184159
2020-04-10T18:35:00	0.2365	9.201	190.0	0.590291286	0.726123764	0.011816265	0.121906223	0.037572682
2020-04-10T18:40:00	0.2368	9.160	190.0	0.591253559	0.727526252	0.011851950	0.122274387	0.037686153
2020-04-10T18:45:00	0.2364	9.117	190.0	0.589873897	0.725515671	0.011800803	0.121746708	0.037523518
2020-04-10T18:50:00	0.2374	9.076	189.0	0.593511624	0.730820353	0.011935907	0.123140553	0.037953114
2020-04-10T18:55:00	0.2378	9.034	189.0	0.594807203	0.732712285	0.011984215	0.123638938	0.038106721
2020-04-10T19:00:00	0.2379	8.993	189.0	0.595100028	0.733140091	0.011995147	0.123751725	0.038141484
2020-04-10T19:05:00	0.2387	8.949	189.0	0.597730844	0.736986822	0.012093597	0.124767406	0.038454526
2020-04-10T19:10:00	0.2386	8.905	189.0	0.597355635	0.736437845	0.012079530	0.124622288	0.038409800
2020-04-10T19:15:00	0.2398	8.864	188.0	0.601319237	0.742243032	0.012228546	0.126159659	0.038883632
2020-04-10T19:20:00	0.2386	8.822	188.0	0.597273032	0.736317002	0.012076435	0.124590352	0.038399956
2020-04-10T19:25:00	0.2390	8.779	185.0	0.598567232	0.738210986	0.012124982	0.125091205	0.038554324
2020-04-10T19:30:00	0.2383	8.738	188.0	0.596522478	0.735219254	0.012048326	0.124300362	0.038310579
2020-04-10T19:35:00	0.2388	8.697	188.0	0.598150821	0.737601441	0.012109351	0.124929942	0.038504621
2020-04-10T19:40:00	0.2386	8.656	188.0	0.597441754	0.736563838	0.012082758	0.124655588	0.038420063
2020-04-10T19:45:00	0.2389	8.615	188.0	0.598402080	0.737969218	0.012118781	0.125027234	0.038534608
2020-04-10T19:50:00	0.2387	8.575	188.0	0.597693064	0.736931540	0.012092180	0.124752790	0.038450021
2020-04-10T19:55:00	0.2397	8.533	187.0	0.600989182	0.741759124	0.012216102	0.126031270	0.038844061
2020-04-10T20:00:00	0.2386	8.492	187.0	0.597276550	0.736322148	0.012076567	0.124591712	0.038400376
2020-04-10T20:05:00	0.2397	8.454	186.0	0.600906663	0.741638154	0.012212991	0.125999181	0.038834171
2020-04-10T20:10:00	0.2401	8.415	187.0	0.602199535	0.743534122	0.012261770	0.126502418	0.038989274
2020-04-10T20:15:00	0.2393	8.378	187.0	0.599823202	0.740050360	0.012172191	0.125578250	0.038704436
2020-04-10T20:20:00	0.2388	8.343	187.0	0.598113046	0.737546152	0.012107933	0.124915318	0.038500114
2020-04-10T20:25:00	0.2386	8.309	186.0	0.597403971	0.736508560	0.012081342	0.124640978	0.038415560
2020-04-10T20:30:00	0.2386	8.277	186.0	0.597362670	0.736448137	0.012079794	0.124625008	0.038410638
2020-04-10T20:35:00	0.2378	8.244	186.0	0.594648916	0.732481063	0.011978308	0.123577992	0.038087937
2020-04-10T20:40:00	0.2387	8.213	186.0	0.597613986	0.736815831	0.012089215	0.124722200	0.038440593
2020-04-10T20:45:00	0.2373	8.181	186.0	0.592894899	0.729920242	0.011912947	0.122903673	0.037880106
2020-04-10T20:50:00	0.2380	8.147	186.0	0.595193241	0.733276287	0.011998629	0.123787639	0.038152553
2020-04-10T20:55:00	0.2383	8.117	186.0	0.596488204	0.735169135	0.012047044	0.124287127	0.038306500
2020-04-10T21:00:00	0.2385	8.084	185.0	0.597114855	0.736085615	0.012070508	0.124529208	0.038381111
2020-04-10T21:05:00	0.2386	8.052	185.0	0.597407489	0.736513706	0.012081474	0.124642338	0.038415979
2020-04-10T21:10:00	0.2369	8.019	185.0	0.591684877	0.728155136	0.011867964	0.122439592	0.037737072
2020-04-10T21:15:00	0.2377	7.986	185.0	0.594318237	0.731998084	0.011965971	0.123450720	0.038048711
2020-04-10T21:20:00	0.2381	7.954	185.0	0.595613520	0.733890456	0.012014331	0.123949634	0.038202481
2020-04-10T21:25:00	0.2382	7.920	184.0	0.595906278	0.734318361	0.012025275	0.124062542	0.038237280
2020-04-10T21:30:00	0.2375	7.887	185.0	0.593525709	0.730840914	0.011936432	0.123145965	0.037954783
2020-04-10T21:35:00	0.2373	7.855	185.0	0.593150054	0.730292603	0.011922443	0.123001648	0.037910302
2020-04-10T21:40:00	0.2378	7.824	184.0	0.594779952	0.732672476	0.011983198	0.123628444	0.038103487
2020-04-10T21:45:00	0.2378	7.796	184.0	0.594738621	0.732612099	0.011981655	0.123612529	0.038098582
2020-04-10T21:50:00	0.2383	7.768	184.0	0.596367786	0.734993061	0.012042537	0.124240637	0.038292171
2020-04-10T21:55:00	0.2369	7.741	184.0	0.591647032	0.728099951	0.011866558	0.122425092	0.037732602
2020-04-10T22:00:00	0.2375	7.716	184.0	0.593611921	0.730966767	0.011939643	0.123179098	0.037964994
2020-04-10T22:05:00	0.2383	7.689	184.0	0.596435997	0.735092797	0.012045090	0.124266970	0.038300287
2020-04-10T22:10:00	0.2385	7.664	183.0	0.596920811	0.735801791	0.012063240	0.124454222	0.038358000
2020-04-10T22:15:00	0.2372	7.638	183.0	0.592727550	0.729676051	0.011906720	0.122839436	0.037860307
2020-04-10T22:20:00	0.2365	7.612	183.0	0.590202718	0.725994719	0.011812983	0.121872366	0.037562247
2020-04-10T22:25:00	0.2360	7.587	183.0	0.588680467	0.723777767	0.011756651	0.121291202	0.037383127
2020-04-10T22:30:00	0.2371	7.564	183.0	0.592511791	0.729361256	0.011898695	0.122756642	0.037834789
2020-04-10T22:35:00	0.2362	7.539	183.0	0.589317491	0.724705271	0.011780208	0.121534232	0.037458030
2020-04-10T22:40:00	0.2362	7.513	183.0	0.589468626	0.724925373	0.011785800	0.121591927	0.037475813
2020-04-10T22:45:00	0.2361	7.486	183.0	0.588950372	0.724170706	0.011766629	0.121394142	0.037414854
2020-04-10T22:50:00	0.2361	7.459	183.0	0.589101523	0.724390785	0.011772219	0.121451810	0.037432627
2020-04-10T22:55:00	0.2358	7.431	183.0	0.587913634	0.722661710	0.011728326	0.120998980	0.037293061
2020-04-10T23:00:00	0.2363	7.404	183.0	0.589738471	0.725318401	0.011795788	0.121694975	0.037507573
2020-04-10T23:05:00	0.2354	7.377	183.0	0.586541654	0.720666137	0.011677736	0.120477053	0.037132198
2020-04-10T23:10:00	0.2364	7.352	182.0	0.590040699	0.725758668	0.011806981	0.121810443	0.037543162
2020-04-10T23:15:00	0.2355	7.327	182.0	0.586844157	0.721105999	0.011688881	0.120592031	0.037167635
2020-04-10T23:20:00	0.2367	7.301	182.0	0.591012020	0.727174144	0.011842988	0.122181921	0.037657655
2020-04-10T23:25:00	0.2361	7.275	182.0	0.589155431	0.724469280	0.011774213	0.121472381	0.037438968
2020-04-10T23:30:00	0.2373	7.248	182.0	0.592986239	0.730053533	0.011916346	0.122938741	0.037890914
2020-04-10T23:35:00	0.2373	7.221	182.0	0.593137217	0.730273868	0.011921965	0.122996718	0.037908783
2020-04-10T23:40:00	0.2369	7.193	182.0	0.591616233	0.728055040	0.011865414	0.122413293	0.037728966
2020-04-10T23:45:00	0.2377	7.165	182.0	0.594441905	0.732178698	0.011970584	0.123498310	0.038063378
2020-04-10T23:50:00	0.2371	7.136	182.0	0.592252726	0.728983329	0.011889063	0.122657268	0.037804161
2020-04-10T23:55:00	0.2374	7.107	182.0	0.593406781	0.730667312	0.011932002	0.123100267	0.037940698
2020-04-11T00:00:00	0.2376	7.082	182.0	0.593892012	0.731375687	0.011950080	0.123286773	0.037998181
2020-04-11T00:05:00	0.2369	7.054	181.0	0.591702492	0.728180824	0.011868618	0.122446342	0.037739152
2020-04-11T00:10:00	0.2378	7.027	181.0	0.594528094	0.732304585	0.011973800	0.123531482	0.038073603
2020-04-11T00:15:00	0.2379	7.002	181.0	0.595013171	0.733013189	0.011991904	0.123718265	0.038131171
2020-04-11T00:20:00	0.2384	6.978	181.0	0.596834339	0.735675320	0.012060002	0.124420813	0.038347703
2020-04-11T00:25:00	0.2375	6.949	180.0	0.593643952	0.731013528	0.011940837	0.123191410	0.037968789
2020-04-11T00:30:00	0.2381	6.924	181.0	0.595799917	0.734162891	0.012021298	0.124021515	0.038224635
2020-04-11T00:35:00	0.2377	6.895	180.0	0.594280080	0.731942359	0.011964548	0.123436039	0.038044186
2020-04-11T00:40:00	0.2375	6.865	180.0	0.593762532	0.731186644	0.011945255	0.123236992	0.037982838
2020-04-11T00:45:00	0.2373	6.836	180.0	0.592910577	0.729943120	0.011913530	0.122909692	0.037881961
2020-04-11T00:50:00	0.2373	6.805	180.0	0.593061558	0.730163451	0.011919149	0.122967663	0.037899828
2020-04-11T00:55:00	0.2380	6.775	180.0	0.595217878	0.733312285	0.011999549	0.123797132	0.038155478
2020-04-11T01:00:00	0.2372	6.745	180.0	0.592694829	0.729628308	0.011905503	0.122826878	0.037856437
2020-04-11T01:05:00	0.2371	6.715	179.0	0.592511450	0.729360759	0.011898682	0.122756511	0.037834749
2020-04-11T01:10:00	0.2368	6.686	180.0	0.591324710	0.727629983	0.011854591	0.122301631	0.037694551
2020-04-11T01:15:00	0.2368	6.655	179.0	0.591475759	0.727850213	0.011860198	0.122359481	0.037712380
2020-04-11T01:20:00	0.2360	6.626	179.0	0.588615291	0.723682890	0.011754242	0.121266351	0.037375467
2020-04-11T01:25:00	0.2360	6.597	179.0	0.588766457	0.723902948	0.011759830	0.121323993	0.037393233
2020-04-11T01:30:00	0.2361	6.569	179.0	0.588917616	0.724123015	0.011765418	0.121381647	0.037411002
2020-04-11T01:35:00	0.2358	6.540	179.0	0.588064489	0.722881226	0.011733896	0.121056439	0.037310770
2020-04-11T01:40:00	0.2357	6.511	179.0	0.587546027	0.722126865	0.011714760	0.120859022	0.037249924
2020-04-11T01:45:00	0.2353	6.482	179.0	0.586357613	0.720398565	0.011670959	0.120407128	0.037110646
2020-04-11T01:50:00	0.2339	6.453	179.0	0.581480949	0.713318776	0.011492097	0.118561848	0.036541913
2020-04-11T01:55:00	0.2349	6.425	179.0	0.584985027	0.718403887	0.011620473	0.119886280	0.036950116
2020-04-11T02:00:00	0.2345	6.398	178.0	0.583795748	0.716676863	0.011576821	0.119435926	0.036811312
2020-04-11T02:05:00	0.2342	6.371	178.0	0.582606066	0.714950431	0.011533238	0.118986287	0.036672729
2020-04-11T02:10:00	0.2340	6.343	178.0	0.582086800	0.714197256	0.011514241	0.118790303	0.036612325
2020-04-11T02:15:00	0.2336	6.314	178.0	0.580561032	0.711985485	0.011458516	0.118215396	0.036435133
2020-04-11T02:20:00	0.2330	6.285	178.0	0.578698917	0.709288759	0.011390693	0.117515685	0.036219475
2020-04-11T02:25:00	0.2336	6.256	178.0	0.580528540	0.711938405	0.011457331	0.118203168	0.036431364
2020-04-11T02:30:00	0.2329	6.228	178.0	0.578330687	0.708755828	0.011377306	0.117377570	0.036176907
2020-04-11T02:35:00	0.2323	6.201	178.0	0.576131457	0.705575267	0.011297518	0.116554413	0.035923202
2020-04-11T02:40:00	0.2324	6.172	179.0	0.576619077	0.706280124	0.011315184	0.116736670	0.035979375
2020-04-11T02:45:00	0.2330	6.146	178.0	0.578449784	0.708928183	0.011381635	0.117422231	0.036190672
2020-04-11T02:50:00	0.2333	6.118	177.0	0.579608374	0.710605480	0.011423792	0.117857158	0.036324721
2020-04-11T02:55:00	0.2338	6.092	177.0	0.581437523	0.713255821	0.011490511	0.118545482	0.036536869
2020-04-11T03:00:00	0.2337	6.067	177.0	0.580918084	0.712502899	0.011471544	0.118349805	0.036476559
2020-04-11T03:05:00	0.2335	6.040	177.0	0.580398568	0.711750090	0.011452590	0.118154264	0.036416292
2020-04-11T03:10:00	0.2331	6.014	177.0	0.578872067	0.709539395	0.011396991	0.117580658	0.036239501
2020-04-11T03:15:00	0.2336	5.988	177.0	0.580701600	0.712189173	0.011463644	0.118268302	0.036451439
2020-04-11T03:20:00	0.2324	5.961	177.0	0.576488960	0.706092021	0.011310469	0.116688022	0.035964382
2020-04-11T03:25:00	0.2328	5.935	176.0	0.577983983	0.708254152	0.011364709	0.117247604	0.036136850
2020-04-11T03:30:00	0.2331	5.910	176.0	0.578807051	0.709445281	0.011394626	0.117556259	0.036231981
2020-04-11T03:35:00	0.2320	5.883	176.0	0.575264258	0.704322213	0.011266135	0.116230639	0.035823412
2020-04-11T03:40:00	0.2331	5.859	176.0	0.579110220	0.709884164	0.011405656	0.117670054	0.036267053
2020-04-11T03:45:00	0.2332	5.834	176.0	0.579261795	0.710103619	0.011411173	0.117726969	0.036284595
2020-04-11T03:50:00	0.2341	5.808	176.0	0.582432758	0.714699030	0.011526896	0.118920858	0.036652563
2020-04-11T03:55:00	0.2328	5.782	176.0	0.577886434	0.708113018	0.011361165	0.117211050	0.036125584
2020-04-11T04:00:00	0.2328	5.755	176.0	0.578038061	0.708332396	0.011366673	0.117267871	0.036143097
2020-04-11T04:05:00	0.2337	5.730	176.0	0.580913144	0.712495740	0.011471364	0.118347945	0.036475986
2020-04-11T04:10:00	0.2337	5.704	176.0	0.581103132	0.712771098	0.011478299	0.118419495	0.036498038
2020-04-11T04:15:00	0.2339	5.678	175.0	0.581628546	0.713532763	0.011497490	0.118617484	0.036559060
2020-04-11T04:20:00	0.2349	5.652	175.0	0.584835824	0.718187157	0.011614992	0.119829733	0.036932687
2020-04-11T04:25:00	0.2350	5.627	175.0	0.585360681	0.718949642	0.011634279	0.120028713	0.036994015
2020-04-11T04:30:00	0.2350	5.603	175.0	0.585215366	0.718738512	0.011628938	0.119973605	0.036977030
2020-04-11T04:35:00	0.2357	5.579	175.0	0.587749765	0.722423277	0.011722278	0.120936581	0.037273829
2020-04-11T04:40:00	0.2360	5.556	175.0	0.588608959	0.723673673	0.011754008	0.121263937	0.037374723
2020-04-11T04:45:00	0.2365	5.532	175.0	0.590471824	0.726386836	0.011822956	0.121975254	0.037593958
2020-04-11T04:50:00	0.2368	5.510	174.0	0.591330355	0.727638214	0.011854801	0.122303793	0.037695217
2020-04-11T04:55:00	0.2366	5.487	174.0	0.590516199	0.726451501	0.011824601	0.121992224	0.037599188
2020-04-11T05:00:00	0.2379	5.467	174.0	0.595052229	0.733070253	0.011993363	0.123733311	0.038135808
2020-04-11T05:05:00	0.2382	5.449	174.0	0.595909646	0.734323284	0.012025401	0.124063841	0.038237681
2020-04-11T05:10:00	0.2380	5.429	174.0	0.595430671	0.733623234	0.012007498	0.123879142	0.038180755
2020-04-11T05:15:00	0.2387	5.410	174.0	0.597623856	0.736830274	0.012089585	0.124726018	0.038441770
2020-04-11T05:20:00	0.2382	5.392	174.0	0.596143131	0.734664605	0.012034132	0.124153926	0.038265446
2020-04-11T05:25:00	0.2401	5.374	174.0	0.602339621	0.743739639	0.012267061	0.126557007	0.039006099
2020-04-11T05:30:00	0.2405	5.358	174.0	0.603861963	0.745974092	0.012324638	0.127151017	0.039189178
2020-04-11T05:35:00	0.2415	5.341	174.0	0.607049112	0.750658394	0.012445630	0.128399267	0.039573901
2020-04-11T05:40:00	0.2423	5.326	174.0	0.609567907	0.754366411	0.012541680	0.129390200	0.039879316
2020-04-11T05:45:00	0.2410	5.311	175.0	0.605427839	0.748274470	0.012384006	0.127763509	0.039377954
2020-04-11T05:50:00	0.2414	5.296	174.0	0.606615816	0.750021060	0.012429145	0.128229197	0.039521484
2020-04-11T05:55:00	0.2421	5.282	173.0	0.609134919	0.753728614	0.012525142	0.129219576	0.039826728
2020-04-11T06:00:00	0.2422	5.268	174.0	0.609323394	0.754006221	0.012532339	0.129293833	0.039849615
2020-04-11T06:05:00	0.2423	5.256	174.0	0.609844626	0.754774106	0.012552255	0.129499305	0.039912944
2020-04-11T06:10:00	0.2421	5.244	173.0	0.609034721	0.753581044	0.012521316	0.129180109	0.039814564
2020-04-11T06:15:00	0.2422	5.237	173.0	0.609223202	0.753858643	0.012528513	0.129254356	0.039837448
2020-04-11T06:20:00	0.2431	5.228	173.0	0.612405541	0.758550185	0.012650345	0.130511277	0.040224843
2020-04-11T06:25:00	0.2440	5.222	173.0	0.615252802	0.762754956	0.012759865	0.131641175	0.040573089
2020-04-11T06:30:00	0.2433	5.217	173.0	0.613114595	0.759596663	0.012677573	0.130792186	0.040311422
2020-04-11T06:35:00	0.2436	5.213	173.0	0.613967653	0.760856233	0.012710371	0.131130558	0.040415711
2020-04-11T06:40:00	0.2439	5.207	172.0	0.615152777	0.762607126	0.012756009	0.131601396	0.040560828
2020-04-11T06:45:00	0.2432	5.203	173.0	0.612682039	0.758958213	0.012660959	0.130620781	0.040258593
2020-04-11T06:50:00	0.2443	5.202	173.0	0.616193458	0.764145593	0.012796155	0.132015567	0.040688480
2020-04-11T06:55:00	0.2432	5.204	173.0	0.612726137	0.759023294	0.012662652	0.130638250	0.040263977
2020-04-11T07:00:00	0.2449	5.208	173.0	0.618229877	0.767158727	0.012874900	0.132827970	0.040938870
2020-04-11T07:05:00	0.2447	5.213	173.0	0.617753908	0.766454159	0.012856473	0.132637858	0.040880276
2020-04-11T07:10:00	0.2442	5.222	173.0	0.615949400	0.763784714	0.012786734	0.131918377	0.040658525
2020-04-11T07:15:00	0.2451	5.233	173.0	0.619125728	0.768485355	0.012909620	0.133186174	0.041049272
2020-04-11T07:20:00	0.2453	5.247	173.0	0.619645526	0.769255412	0.012929788	0.133394242	0.041113401
2020-04-11T07:25:00	0.2449	5.268	174.0	0.618173966	0.767075952	0.012872735	0.132805630	0.040931985
2020-04-11T07:30:00	0.2463	5.294	174.0	0.623006315	0.774239765	0.013060578	0.134743581	0.041529280
2020-04-11T07:35:00	0.2468	5.326	173.0	0.624519834	0.776487564	0.013119702	0.135353547	0.041717278
2020-04-11T07:40:00	0.2467	5.364	174.0	0.624376116	0.776274037	0.013114082	0.135295565	0.041699407
2020-04-11T07:45:00	0.2467	5.401	174.0	0.624232392	0.776060520	0.013108463	0.135237594	0.041681540
2020-04-11T07:50:00	0.2466	5.439	174.0	0.624088661	0.775847012	0.013102845	0.135179634	0.041663676
2020-04-11T07:55:00	0.2466	5.480	174.0	0.623944926	0.775633512	0.013097228	0.135121684	0.041645815
2020-04-11T08:00:00	0.2465	5.533	174.0	0.623801184	0.775420021	0.013091612	0.135063744	0.041627958
2020-04-11T08:05:00	0.2471	5.594	175.0	0.625645661	0.778160835	0.013163770	0.135808193	0.041857404
2020-04-11T08:10:00	0.2467	5.650	174.0	0.624176574	0.775977603	0.013106281	0.135215084	0.041674602
2020-04-11T08:15:00	0.2472	5.701	175.0	0.626020857	0.778718713	0.013178474	0.135959886	0.041904157
2020-04-11T08:20:00	0.2465	5.757	175.0	0.623557647	0.775058351	0.013082099	0.134965609	0.041597711
2020-04-11T08:25:00	0.2472	5.820	175.0	0.626064790	0.778784044	0.013180196	0.135977654	0.041909634
2020-04-11T08:30:00	0.2484	5.884	176.0	0.629893959	0.784484561	0.013330753	0.137530918	0.042388365
2020-04-11T08:35:00	0.2465	5.961	176.0	0.623789321	0.775402403	0.013091148	0.135058963	0.041626484
2020-04-11T08:40:00	0.2481	6.041	176.0	0.628945064	0.783070778	0.013293361	0.137145156	0.042269469
2020-04-11T08:45:00	0.2474	6.115	177.0	0.626483870	0.779407329	0.013196630	0.136147204	0.041961890
2020-04-11T08:50:00	0.2471	6.193	177.0	0.625677741	0.778208531	0.013165027	0.135821160	0.041861401
2020-04-11T08:55:00	0.2465	6.276	177.0	0.623545783	0.775040733	0.013081636	0.134960829	0.041596238
2020-04-11T09:00:00	0.2461	6.359	178.0	0.622407427	0.773350863	0.013037222	0.134502616	0.041455012
2020-04-11T09:05:00	0.2474	6.438	178.0	0.626571724	0.779538010	0.013200077	0.136182761	0.041972850
2020-04-11T09:10:00	0.2473	6.524	178.0	0.626428088	0.779324357	0.013194442	0.136124629	0.041954933
2020-04-11T09:15:00	0.2471	6.602	179.0	0.625621947	0.778125579	0.013162841	0.135798609	0.041854450
2020-04-11T09:20:00	0.2473	6.683	179.0	0.626140799	0.778897079	0.013183176	0.136008397	0.041919109
2020-04-11T09:25:00	0.2472	6.769	179.0	0.625997146	0.778683453	0.013177544	0.135950297	0.041901202
2020-04-11T09:30:00	0.2473	6.858	180.0	0.626184731	0.778962413	0.013184899	0.136026168	0.041924586
2020-04-11T09:35:00	0.2466	6.957	180.0	0.624053075	0.775794152	0.013101454	0.135165285	0.041659254
2020-04-11T09:40:00	0.2453	7.057	180.0	0.619598019	0.769185023	0.012927944	0.133375219	0.041107538
2020-04-11T09:45:00	0.2454	7.145	181.0	0.620117748	0.769955185	0.012948124	0.133583413	0.041171705
2020-04-11T09:50:00	0.2451	7.221	182.0	0.618978296	0.768266983	0.012903903	0.133127189	0.041031093
2020-04-11T09:55:00	0.2446	7.296	182.0	0.617174409	0.765596596	0.012834055	0.132406583	0.040808995
2020-04-11T10:00:00	0.2435	7.375	182.0	0.613708045	0.760472848	0.012700385	0.131027535	0.040383959
2020-04-11T10:05:00	0.2439	7.436	182.0	0.615169561	0.762631931	0.012756656	0.131608071	0.040562886
2020-04-11T10:10:00	0.2424	7.505	183.0	0.609981923	0.754976411	0.012557504	0.129553456	0.039929633
2020-04-11T10:15:00	0.2428	7.584	183.0	0.611444972	0.757133176	0.012613507	0.130131222	0.040107706
2020-04-11T10:20:00	0.2425	7.668	183.0	0.610246702	0.755366604	0.012567630	0.129657921	0.039961830
2020-04-11T10:25:00	0.2425	7.751	184.0	0.610379084	0.755561712	0.012572694	0.129710166	0.039977933
2020-04-11T10:30:00	0.2427	7.834	184.0	0.611176778	0.756737682	0.012603231	0.130025211	0.040075033
2020-04-11T10:35:00	0.2408	7.919	184.0	0.604650592	0.747132385	0.012354519	0.127459300	0.039284194
2020-04-11T10:40:00	0.2423	8.004	184.0	0.609778068	0.754676039	0.012549711	0.129473058	0.039904854
2020-04-11T10:45:00	0.2429	8.087	185.0	0.611573806	0.757323184	0.012618444	0.130182163	0.040123407
2020-04-11T10:50:00	0.2434	8.175	186.0	0.613368637	0.759971700	0.012687336	0.130892906	0.040342465
2020-04-11T10:55:00	0.2422	8.277	186.0	0.609509748	0.754280734	0.012539458	0.129367275	0.039872251
2020-04-11T11:00:00	0.2428	8.375	186.0	0.611305622	0.756927675	0.012608167	0.130076135	0.040090728
2020-04-11T11:05:00	0.2428	8.479	187.0	0.611437965	0.757122843	0.012613238	0.130128452	0.040106853
2020-04-11T11:10:00	0.2423	8.600	187.0	0.609574201	0.754375684	0.012541920	0.129392681	0.039880081
2020-04-11T11:15:00	0.2429	8.727	188.0	0.611702635	0.757513200	0.012623383	0.130233112	0.040139110
2020-04-11T11:20:00	0.2419	8.851	188.0	0.608507752	0.752805067	0.012501206	0.128972640	0.039750620
2020-04-11T11:25:00	0.2434	8.985	189.0	0.613297249	0.759866307	0.012684592	0.130864599	0.040333740
2020-04-11T11:30:00	0.2423	9.129	190.0	0.609771058	0.754665710	0.012549443	0.129470294	0.039904002
2020-04-11T11:35:00	0.2429	9.284	190.0	0.611566799	0.757312850	0.012618176	0.130179392	0.040122553
2020-04-11T11:40:00	0.2424	9.434	191.0	0.610035853	0.755055880	0.012559566	0.129574730	0.039936190
2020-04-11T11:45:00	0.2420	9.570	192.0	0.608837107	0.753290025	0.012513773	0.129102288	0.039790579
2020-04-11T11:50:00	0.2428	9.698	192.0	0.611298615	0.756917342	0.012607899	0.130073365	0.040089874
2020-04-11T11:55:00	0.2425	9.815	193.0	0.610433008	0.755641190	0.012574757	0.129731451	0.039984493
2020-04-11T12:00:00	0.2422	9.930	193.0	0.609234397	0.753875133	0.012528940	0.129258766	0.039838807
2020-04-11T12:05:00	0.2426	10.030	194.0	0.610697754	0.756031434	0.012584889	0.129835976	0.040016709
2020-04-11T12:10:00	0.2423	10.127	194.0	0.609832001	0.754755503	0.012551773	0.129494326	0.039911409
2020-04-11T12:15:00	0.2409	10.219	195.0	0.604969777	0.747601333	0.012366624	0.127584181	0.039322684
2020-04-11T12:20:00	0.2415	10.307	195.0	0.607100974	0.750734689	0.012447603	0.128419630	0.039580177
2020-04-11T12:25:00	0.2416	10.370	195.0	0.607233474	0.750929620	0.012452647	0.128471664	0.039596215
2020-04-11T12:30:00	0.2413	10.403	195.0	0.606366875	0.749654962	0.012419679	0.128131540	0.039491385
2020-04-11T12:35:00	0.2412	10.454	196.0	0.606166321	0.749360062	0.012412056	0.128052892	0.039467145
2020-04-11T12:40:00	0.2413	10.511	197.0	0.606298855	0.749554941	0.012417093	0.128104863	0.039483163
2020-04-11T12:45:00	0.2417	10.562	196.0	0.607763423	0.751709419	0.012472830	0.128679889	0.039660391
2020-04-11T12:50:00	0.2419	10.620	196.0	0.608228816	0.752394421	0.012490568	0.128862892	0.039716795
2020-04-11T12:55:00	0.2419	10.643	197.0	0.608361274	0.752589416	0.012495619	0.128915002	0.039732856
2020-04-11T13:00:00	0.2416	10.670	196.0	0.607494951	0.751314343	0.012462603	0.128574381	0.039627873
2020-04-11T13:05:00	0.2406	10.692	197.0	0.603962986	0.746122440	0.012328464	0.127190487	0.039201343
2020-04-11T13:10:00	0.2411	10.685	197.0	0.605761669	0.748765154	0.012396682	0.127894283	0.039418260
2020-04-11T13:15:00	0.2416	10.683	196.0	0.607226458	0.750919299	0.012452380	0.128468909	0.039595365
2020-04-11T13:20:00	0.2416	10.667	197.0	0.607358953	0.751114237	0.012457424	0.128520951	0.039611405
2020-04-11T13:25:00	0.2405	10.639	197.0	0.603826853	0.745922537	0.012323308	0.127137302	0.039184951
2020-04-11T13:30:00	0.2408	10.602	196.0	0.604626021	0.747096289	0.012353588	0.127449689	0.039281232
2020-04-11T13:35:00	0.2401	10.558	196.0	0.602425240	0.743865258	0.012270296	0.126590377	0.039016384
2020-04-11T13:40:00	0.2398	10.520	196.0	0.601223918	0.742103272	0.012224952	0.126122574	0.038872202
2020-04-11T13:45:00	0.2406	10.470	196.0	0.604024029	0.746212083	0.012330776	0.127214339	0.039208695
2020-04-11T13:50:00	0.2402	10.422	196.0	0.602823249	0.744449286	0.012285337	0.126745561	0.039064213
2020-04-11T13:55:00	0.2390	10.376	196.0	0.598619068	0.738286873	0.012126929	0.125111286	0.038560514
2020-04-11T14:00:00	0.2398	10.316	195.0	0.601421239	0.742392601	0.012232394	0.126199351	0.038895866
2020-04-11T14:05:00	0.2392	10.266	195.0	0.599218464	0.739164554	0.012149449	0.125343621	0.038632121
2020-04-11T14:10:00	0.2399	10.209	195.0	0.601686659	0.742781833	0.012242408	0.126302663	0.038927707
2020-04-11T14:15:00	0.2396	10.161	196.0	0.600818702	0.741509212	0.012209676	0.125964981	0.038823630
2020-04-11T14:20:00	0.2395	10.129	194.0	0.600284198	0.740725822	0.012189542	0.125757261	0.038759609
2020-04-11T14:25:00	0.2394	10.085	194.0	0.600083299	0.740431438	0.012181979	0.125679233	0.038735560
2020-04-11T14:30:00	0.2400	10.030	194.0	0.601883954	0.743071200	0.012249854	0.126379486	0.038951385
2020-04-11T14:35:00	0.2398	9.993	194.0	0.601349611	0.742287570	0.012229692	0.126171478	0.038887275
2020-04-11T14:40:00	0.2395	9.947	193.0	0.600481572	0.741015072	0.012196975	0.125833944	0.038783244
2020-04-11T14:45:00	0.2390	9.903	193.0	0.598612035	0.738276577	0.012126664	0.125108562	0.038559674
2020-04-11T14:50:00	0.2394	9.863	193.0	0.600079785	0.740426289	0.012181847	0.125677868	0.038735140
2020-04-11T14:55:00	0.2395	9.822	193.0	0.600212547	0.740620826	0.012186845	0.125729430	0.038751031
2020-04-11T15:00:00	0.2393	9.783	193.0	0.599677952	0.739837573	0.012166727	0.125521875	0.038687061
2020-04-11T15:05:00	0.2375	9.752	193.0	0.593799105	0.731240040	0.011946618	0.123251052	0.037987171
2020-04-11T15:10:00	0.2387	9.710	192.0	0.597606951	0.736805539	0.012088951	0.124719479	0.038439755
2020-04-11T15:15:00	0.2386	9.671	192.0	0.597405900	0.736511382	0.012081414	0.124641724	0.038415790
2020-04-11T15:20:00	0.2384	9.643	192.0	0.596536892	0.735240330	0.012048866	0.124305927	0.038312294
2020-04-11T15:25:00	0.2385	9.610	193.0	0.597003763	0.735923120	0.012066347	0.124486275	0.038367879
2020-04-11T15:30:00	0.2386	9.575	192.0	0.597470573	0.736606002	0.012083838	0.124666733	0.038423498
2020-04-11T15:35:00	0.2395	9.528	191.0	0.600273655	0.740710372	0.012189145	0.125753166	0.038758347
2020-04-11T15:40:00	0.2385	9.486	193.0	0.597068444	0.736017729	0.012068770	0.124511271	0.038375583
2020-04-11T15:45:00	0.2391	9.454	191.0	0.598870634	0.738655198	0.012136378	0.125208770	0.038590559
2020-04-11T15:50:00	0.2403	9.429	192.0	0.603006434	0.744718131	0.012292264	0.126817018	0.039086237
2020-04-11T15:55:00	0.2407	9.393	191.0	0.604472362	0.746870566	0.012347763	0.127389595	0.039262710
2020-04-11T16:00:00	0.2416	9.359	191.0	0.607269907	0.750983223	0.012454034	0.128485974	0.039600625
2020-04-11T16:05:00	0.2415	9.341	191.0	0.606880809	0.750410819	0.012439225	0.128333194	0.039553537
2020-04-11T16:10:00	0.2435	9.318	191.0	0.613811575	0.760625732	0.012704367	0.131068614	0.040396620
2020-04-11T16:15:00	0.2440	9.294	190.0	0.615417134	0.762997845	0.012766201	0.131706542	0.040593235
2020-04-11T16:20:00	0.2452	9.268	191.0	0.619345775	0.768811317	0.012918156	0.133274235	0.041076414
2020-04-11T16:25:00	0.2448	9.248	191.0	0.617962157	0.766762402	0.012864533	0.132721019	0.040905907
2020-04-11T16:30:00	0.2444	9.226	191.0	0.616578001	0.764714305	0.012811005	0.132168779	0.040735701
2020-04-11T16:35:00	0.2445	9.215	190.0	0.616854176	0.765122824	0.012821676	0.132278870	0.040769632
2020-04-11T16:40:00	0.2445	9.195	191.0	0.617130329	0.765531376	0.012832351	0.132389000	0.040803575
2020-04-11T16:45:00	0.2449	9.185	191.0	0.618402456	0.767414238	0.012881585	0.132896936	0.040960126
2020-04-11T16:50:00	0.2444	9.169	190.0	0.616686375	0.764874604	0.012815192	0.132211974	0.040749014
2020-04-11T16:55:00	0.2428	9.158	190.0	0.611312591	0.756937953	0.012608434	0.130078890	0.040091577
2020-04-11T17:00:00	0.2440	9.142	190.0	0.615245765	0.762744555	0.012759594	0.131638376	0.040572226
2020-04-11T17:05:00	0.2434	9.121	190.0	0.613195738	0.759716448	0.012680691	0.130824352	0.040321336
2020-04-11T17:10:00	0.2446	9.100	190.0	0.617458887	0.766017540	0.012845057	0.132520090	0.040843979
2020-04-11T17:15:00	0.2450	9.077	190.0	0.618730896	0.767900581	0.012894312	0.133028239	0.041000595
2020-04-11T17:20:00	0.2446	9.052	190.0	0.617347039	0.765852030	0.012840731	0.132475457	0.040830222
2020-04-11T17:25:00	0.2450	9.027	190.0	0.618619088	0.767735010	0.012889979	0.132983534	0.040986817
2020-04-11T17:30:00	0.2451	9.000	189.0	0.618895105	0.768143770	0.012900678	0.133093912	0.041020836
2020-04-11T17:35:00	0.2453	8.968	189.0	0.619502964	0.769044191	0.012924255	0.133337160	0.041095808
2020-04-11T17:40:00	0.2445	8.934	189.0	0.617123333	0.765521025	0.012832081	0.132386209	0.040802715
2020-04-11T17:45:00	0.2443	8.901	189.0	0.616403190	0.764455756	0.012804253	0.132099118	0.040714231
2020-04-11T17:50:00	0.2445	8.866	190.0	0.617011475	0.765355531	0.012827756	0.132341595	0.040788965
2020-04-11T17:55:00	0.2435	8.829	190.0	0.613633126	0.760362219	0.012697504	0.130997811	0.040374798
2020-04-11T18:00:00	0.2444	8.793	189.0	0.616567506	0.764698782	0.012810600	0.132164596	0.040734412
2020-04-11T18:05:00	0.2457	8.753	189.0	0.620826621	0.771005996	0.012975675	0.133867644	0.041259308
2020-04-11T18:10:00	0.2457	8.713	188.0	0.621102466	0.771415016	0.012986404	0.133978333	0.041293423
2020-04-11T18:15:00	0.2452	8.671	189.0	0.619387685	0.768873404	0.012919782	0.133291011	0.041081584
2020-04-11T18:20:00	0.2463	8.629	188.0	0.622980443	0.774201359	0.013059569	0.134733166	0.041526070
2020-04-11T18:25:00	0.2465	8.588	188.0	0.623587607	0.775102840	0.013083269	0.134977679	0.041601432
2020-04-11T18:30:00	0.2470	8.545	188.0	0.625188768	0.777481644	0.013145877	0.135623590	0.041800507
2020-04-11T18:35:00	0.2474	8.503	187.0	0.626458024	0.779368884	0.013195617	0.136136744	0.041958667
2020-04-11T18:40:00	0.2482	8.461	188.0	0.629381874	0.783721497	0.013310567	0.137322666	0.042324179
2020-04-11T18:45:00	0.2497	8.420	187.0	0.634286759	0.791039440	0.013504563	0.139324089	0.042941037
2020-04-11T18:50:00	0.2497	8.378	187.0	0.634231099	0.790956282	0.013502354	0.139301293	0.042934011
2020-04-11T18:55:00	0.2523	8.335	187.0	0.642757887	0.803726145	0.013843047	0.142816160	0.044017327
2020-04-11T19:00:00	0.2526	8.295	187.0	0.643691337	0.805127846	0.013880611	0.143203710	0.044136774
2020-04-11T19:05:00	0.2523	8.255	186.0	0.642976522	0.804054390	0.013851840	0.142906884	0.044045290
2020-04-11T19:10:00	0.2523	8.214	187.0	0.642920997	0.803971023	0.013849607	0.142883840	0.044038187
2020-04-11T19:15:00	0.2535	8.173	186.0	0.646819577	0.809830725	0.014006888	0.144506484	0.044538302
2020-04-11T19:20:00	0.2535	8.133	186.0	0.646764111	0.809747266	0.014004644	0.144483331	0.044531166
2020-04-11T19:25:00	0.2519	8.091	186.0	0.641435370	0.801741477	0.013789915	0.142268013	0.043848383
2020-04-11T19:30:00	0.2535	8.050	186.0	0.646653175	0.809580352	0.014000156	0.144437029	0.044516895
2020-04-11T19:35:00	0.2535	8.009	186.0	0.646927039	0.809992427	0.014011237	0.144551346	0.044552129
2020-04-11T19:40:00	0.2538	7.969	186.0	0.647859408	0.811395813	0.014048995	0.144940889	0.044672190
2020-04-11T19:45:00	0.2525	7.929	185.0	0.643521318	0.804872484	0.013873765	0.143133080	0.044115005
2020-04-11T19:50:00	0.2534	7.889	184.0	0.646431293	0.809246541	0.013991182	0.144344446	0.044488360
2020-04-11T19:55:00	0.2540	7.849	185.0	0.648351490	0.812136784	0.014068944	0.145146701	0.044735623
2020-04-11T20:00:00	0.2539	7.810	186.0	0.647966839	0.811557563	0.014053349	0.144985809	0.044686034
2020-04-11T20:05:00	0.2542	7.771	184.0	0.649228062	0.813457227	0.014104517	0.145513702	0.044848736
2020-04-11T20:10:00	0.2532	7.732	185.0	0.645879999	0.808417323	0.013968898	0.144114545	0.044417502
2020-04-11T20:15:00	0.2536	7.695	185.0	0.647141953	0.810315846	0.014019935	0.144641088	0.044579788
2020-04-11T20:20:00	0.2551	7.658	185.0	0.652022662	0.817671306	0.014218241	0.146686967	0.045210348
2020-04-11T20:25:00	0.2538	7.621	185.0	0.647689586	0.811140144	0.014042114	0.144869897	0.044650309
2020-04-11T20:30:00	0.2536	7.582	185.0	0.646975566	0.810065450	0.014013201	0.144571607	0.044558373
2020-04-11T20:35:00	0.2550	7.545	184.0	0.651856500	0.817420558	0.014211465	0.146617069	0.045188805
2020-04-11T20:40:00	0.2554	7.509	184.0	0.653116363	0.819322351	0.014262878	0.147147478	0.045352282
2020-04-11T20:45:00	0.2547	7.472	184.0	0.650758951	0.815764886	0.014166756	0.146155811	0.045046640
2020-04-11T20:50:00	0.2544	7.438	183.0	0.649716491	0.814193266	0.014124359	0.145718406	0.044911828
2020-04-11T20:55:00	0.2558	7.405	183.0	0.654265085	0.821057555	0.014309839	0.147631968	0.045501606
2020-04-11T21:00:00	0.2546	7.370	183.0	0.650263733	0.815018176	0.014146607	0.145947937	0.044982572
2020-04-11T21:05:00	0.2557	7.337	183.0	0.654154380	0.820890280	0.014305309	0.147585241	0.045487204
2020-04-11T21:10:00	0.2552	7.301	182.0	0.652455333	0.818324342	0.014235890	0.146869057	0.045266470
2020-04-11T21:15:00	0.2555	7.266	182.0	0.653386274	0.819729964	0.014273905	0.147261242	0.045387345
2020-04-11T21:20:00	0.2557	7.235	182.0	0.653988315	0.820639378	0.014298517	0.147515161	0.045465605
2020-04-11T21:25:00	0.2553	7.201	181.0	0.652618004	0.818569905	0.014242529	0.146937547	0.045287579
2020-04-11T21:30:00	0.2546	7.169	182.0	0.650260267	0.815012951	0.014146466	0.145946483	0.044982123
2020-04-11T21:35:00	0.2552	7.140	182.0	0.652507249	0.818402710	0.014238009	0.146890913	0.045273206
2020-04-11T21:40:00	0.2545	7.106	182.0	0.650149439	0.814845869	0.014141959	0.145899983	0.044967792
2020-04-11T21:45:00	0.2538	7.074	182.0	0.647790086	0.811291444	0.014046186	0.144911907	0.044663257
2020-04-11T21:50:00	0.2546	7.043	181.0	0.650367626	0.815174813	0.014150833	0.145991535	0.044996009
2020-04-11T21:55:00	0.2545	7.013	181.0	0.649983190	0.814595256	0.014135199	0.145830245	0.044946298
2020-04-11T22:00:00	0.2548	6.984	181.0	0.650914769	0.815999877	0.014173099	0.146221249	0.045066809
2020-04-11T22:05:00	0.2557	6.952	181.0	0.654004919	0.820664462	0.014299196	0.147522167	0.045467764
2020-04-11T22:10:00	0.2564	6.923	181.0	0.656435583	0.824339280	0.014398792	0.148549679	0.045784454
2020-04-11T22:15:00	0.2555	6.894	180.0	0.653280382	0.819570042	0.014269578	0.147216605	0.045373587
2020-04-11T22:20:00	0.2554	6.865	180.0	0.653082441	0.819271128	0.014261492	0.147133184	0.045347876
2020-04-11T22:25:00	0.2550	6.838	181.0	0.651569152	0.816986990	0.014199753	0.146496235	0.045151562
2020-04-11T22:30:00	0.2545	6.810	180.0	0.650055228	0.814703848	0.014138128	0.145860461	0.044955611
2020-04-11T22:35:00	0.2553	6.782	180.0	0.652817349	0.818870859	0.014250667	0.147021501	0.045313455
2020-04-11T22:40:00	0.2536	6.753	180.0	0.647025471	0.810140551	0.014015220	0.144592445	0.044564796
2020-04-11T22:45:00	0.2529	6.723	180.0	0.644850680	0.806869788	0.013927341	0.143685808	0.044285362
2020-04-11T22:50:00	0.2528	6.695	180.0	0.644322734	0.806076395	0.013906051	0.143466164	0.044217665
2020-04-11T22:55:00	0.2526	6.664	180.0	0.643794711	0.805283122	0.013884775	0.143246662	0.044150013
2020-04-11T23:00:00	0.2527	6.636	180.0	0.644255434	0.805975273	0.013903338	0.143438177	0.044209039
2020-04-11T23:05:00	0.2529	6.609	180.0	0.644716098	0.806667516	0.013921912	0.143629800	0.044268099
2020-04-11T23:10:00	0.2526	6.580	179.0	0.643858548	0.805379015	0.013887346	0.143273190	0.044158189
2020-04-11T23:15:00	0.2522	6.553	179.0	0.642341378	0.803100940	0.013826302	0.142643410	0.043964084
2020-04-11T23:20:00	0.2527	6.527	179.0	0.644120829	0.805773036	0.013897913	0.143382210	0.044191790
2020-04-11T23:25:00	0.2519	6.499	179.0	0.641614491	0.802010192	0.013797105	0.142342189	0.043871245
2020-04-11T23:30:00	0.2519	6.473	179.0	0.641415908	0.801712281	0.013789134	0.142259955	0.043845900
2020-04-11T23:35:00	0.2511	6.449	179.0	0.638907681	0.797952369	0.013688663	0.141223408	0.043526426
2020-04-11T23:40:00	0.2508	6.422	178.0	0.637718596	0.796171759	0.013641165	0.140733385	0.043375396
2020-04-11T23:45:00	0.2517	6.396	178.0	0.640820092	0.800818650	0.013765233	0.142013371	0.043769900
2020-04-11T23:50:00	0.2512	6.372	179.0	0.639301638	0.798542569	0.013704418	0.141385953	0.043576524
2020-04-11T23:55:00	0.2508	6.347	178.0	0.637782541	0.796267484	0.013643717	0.140759715	0.043383511
2020-04-12T00:00:00	0.2509	6.323	179.0	0.638244036	0.796958437	0.013662143	0.140949810	0.043442100
2020-04-12T00:05:00	0.2503	6.301	178.0	0.636063921	0.793695943	0.013575213	0.140052967	0.043165685
2020-04-12T00:10:00	0.2497	6.276	179.0	0.634212982	0.790929215	0.013501634	0.139293873	0.042931725
2020-04-12T00:15:00	0.2473	6.252	178.0	0.626404305	0.779288982	0.013193509	0.136115005	0.041951967
2020-04-12T00:20:00	0.2485	6.229	178.0	0.630177387	0.784906995	0.013341932	0.137646251	0.042423911
2020-04-12T00:25:00	0.2480	6.205	178.0	0.628654416	0.782637885	0.013281919	0.137027108	0.042233086
2020-04-12T00:30:00	0.2477	6.183	178.0	0.627461921	0.780862528	0.013235026	0.136543326	0.042083979
2020-04-12T00:35:00	0.2470	6.159	178.0	0.625275228	0.777610157	0.013149262	0.135658513	0.041811271
2020-04-12T00:40:00	0.2468	6.135	177.0	0.624744390	0.776821226	0.013128486	0.135444167	0.041745208
2020-04-12T00:45:00	0.2465	6.112	177.0	0.623550589	0.775047869	0.013081824	0.134962765	0.041596835
2020-04-12T00:50:00	0.2462	6.087	178.0	0.622687957	0.773767203	0.013048160	0.134615460	0.041489792
2020-04-12T00:55:00	0.2473	6.064	178.0	0.626133746	0.778886590	0.013182900	0.136005544	0.041918230
2020-04-12T01:00:00	0.2472	6.040	178.0	0.625934303	0.778590005	0.013175081	0.135924884	0.041893369
2020-04-12T01:05:00	0.2460	6.016	178.0	0.622089015	0.772878382	0.013024813	0.134374593	0.041415554
2020-04-12T01:10:00	0.2457	5.995	178.0	0.620894325	0.771106382	0.012978308	0.133894808	0.041267680
2020-04-12T01:15:00	0.2459	5.974	177.0	0.621689665	0.772285920	0.013009258	0.134214116	0.041366094
2020-04-12T01:20:00	0.2456	5.953	177.0	0.620494841	0.770514124	0.012962776	0.133734574	0.041218295
2020-04-12T01:25:00	0.2449	5.932	177.0	0.618303873	0.767268278	0.012877766	0.132857538	0.040947983
2020-04-12T01:30:00	0.2450	5.915	177.0	0.618767889	0.767955364	0.012895746	0.133043033	0.041005155
2020-04-12T01:35:00	0.2449	5.898	176.0	0.618236081	0.767167912	0.012875140	0.132830449	0.040939634
2020-04-12T01:40:00	0.2452	5.882	177.0	0.619363892	0.768838156	0.012918859	0.133281487	0.041078649
2020-04-12T01:45:00	0.2449	5.867	177.0	0.618168288	0.767067547	0.012872515	0.132803362	0.040931286
2020-04-12T01:50:00	0.2446	5.853	177.0	0.617304352	0.765788866	0.012839080	0.132458425	0.040824973
2020-04-12T01:55:00	0.2452	5.839	176.0	0.619428167	0.768933376	0.012921353	0.133307216	0.041086579
2020-04-12T02:00:00	0.2436	5.824	176.0	0.613914385	0.760777563	0.012708322	0.131109416	0.040409195
2020-04-12T02:05:00	0.2440	5.809	177.0	0.615375817	0.762936774	0.012764608	0.131690105	0.040588169
2020-04-12T02:10:00	0.2437	5.794	176.0	0.614511202	0.761659122	0.012731292	0.131346397	0.040482235
2020-04-12T02:15:00	0.2435	5.779	176.0	0.613646378	0.760381787	0.012698014	0.131003069	0.040376418
2020-04-12T02:20:00	0.2429	5.766	176.0	0.611783773	0.757632880	0.012626493	0.130265205	0.040149001
2020-04-12T02:25:00	0.2440	5.754	176.0	0.615240121	0.762736213	0.012759376	0.131636131	0.040571534
2020-04-12T02:30:00	0.2440	5.741	176.0	0.615372317	0.762931602	0.012764473	0.131688713	0.040587740
2020-04-12T02:35:00	0.2442	5.727	175.0	0.616168891	0.764109265	0.012795206	0.132005783	0.040685464
2020-04-12T02:40:00	0.2447	5.713	176.0	0.617629397	0.766269878	0.012851654	0.132588148	0.040864955
2020-04-12T02:45:00	0.2444	5.698	176.0	0.616765330	0.764991396	0.012818243	0.132243448	0.040758715
2020-04-12T02:50:00	0.2444	5.683	175.0	0.616565362	0.764695610	0.012810517	0.132163741	0.040734149
2020-04-12T02:55:00	0.2437	5.667	175.0	0.614371973	0.761453439	0.012725932	0.131291092	0.040465190
2020-04-12T03:00:00	0.2432	5.653	175.0	0.612842235	0.759194642	0.012667111	0.130684247	0.040278154
2020-04-12T03:05:00	0.2431	5.638	175.0	0.612309541	0.758408533	0.012646661	0.130473268	0.040213128
2020-04-12T03:10:00	0.2439	5.626	175.0	0.615100920	0.762530487	0.012754011	0.131580775	0.040554473
2020-04-12T03:15:00	0.2440	5.613	175.0	0.615233121	0.762725868	0.012759106	0.131633348	0.040570676
2020-04-12T03:20:00	0.2440	5.600	175.0	0.615365318	0.762921256	0.012764203	0.131685929	0.040586882
2020-04-12T03:25:00	0.2442	5.587	175.0	0.616161893	0.764098917	0.012794936	0.132002996	0.040684605
2020-04-12T03:30:00	0.2445	5.574	175.0	0.616958291	0.765276848	0.012825700	0.132320385	0.040782428
2020-04-12T03:35:00	0.2439	5.561	175.0	0.615097420	0.762525315	0.012753876	0.131579384	0.040554044
2020-04-12T03:40:00	0.2451	5.548	174.0	0.618882473	0.768125062	0.012900188	0.133088860	0.041019279
2020-04-12T03:45:00	0.2453	5.535	174.0	0.619678263	0.769303917	0.012931059	0.133407352	0.041117442
2020-04-12T03:50:00	0.2448	5.520	174.0	0.618150804	0.767041663	0.012871838	0.132796377	0.040929133
2020-04-12T03:55:00	0.2454	5.505	174.0	0.619942321	0.769695202	0.012941311	0.133513121	0.041150041
2020-04-12T04:00:00	0.2446	5.492	174.0	0.617418984	0.765958492	0.012843514	0.132504166	0.040839071
2020-04-12T04:05:00	0.2458	5.478	174.0	0.621386442	0.771836158	0.012997454	0.134092333	0.041328559
2020-04-12T04:10:00	0.2455	5.464	174.0	0.620376438	0.770338610	0.012958175	0.133687102	0.041203663
2020-04-12T04:15:00	0.2459	5.451	175.0	0.621688426	0.772284082	0.013009210	0.134213618	0.041365940
2020-04-12T04:20:00	0.2459	5.436	174.0	0.621673588	0.772262072	0.013008632	0.134207657	0.041364103
2020-04-12T04:25:00	0.2459	5.424	174.0	0.621658751	0.772240062	0.013008054	0.134201697	0.041362266
2020-04-12T04:30:00	0.2475	5.412	174.0	0.626946374	0.780095367	0.013214780	0.136334449	0.042019601
2020-04-12T04:35:00	0.2482	5.401	174.0	0.629248921	0.783523419	0.013305329	0.137268624	0.042307523
2020-04-12T04:40:00	0.2483	5.390	174.0	0.629565046	0.783994418	0.013317786	0.137397138	0.042347132
2020-04-12T04:45:00	0.2485	5.378	174.0	0.630212013	0.784958608	0.013343298	0.137660345	0.042428255
2020-04-12T04:50:00	0.2484	5.367	174.0	0.629866339	0.784443398	0.013329664	0.137519681	0.042384901
2020-04-12T04:55:00	0.2494	5.355	174.0	0.633158895	0.789354896	0.013459825	0.138862537	0.042798782
2020-04-12T05:00:00	0.2486	5.346	169.0	0.630498451	0.785385606	0.013354601	0.137776960	0.042464197
2020-04-12T05:05:00	0.2496	5.335	173.0	0.633790426	0.790297999	0.013484866	0.139120878	0.042878406
2020-04-12T05:10:00	0.2507	5.327	174.0	0.637409585	0.795709224	0.013628836	0.140606187	0.043336192
2020-04-12T05:15:00	0.2511	5.317	173.0	0.638715341	0.797664266	0.013680974	0.141144084	0.043501978
2020-04-12T05:20:00	0.2512	5.312	173.0	0.639030631	0.798136551	0.013693579	0.141274126	0.043542058
2020-04-12T05:25:00	0.2515	5.307	168.0	0.640335797	0.800092506	0.013745821	0.141813106	0.043708177
2020-04-12T05:30:00	0.2516	5.302	174.0	0.640650946	0.800565012	0.013758452	0.141943409	0.043748337
2020-04-12T05:35:00	0.2524	5.297	172.0	0.643274376	0.804501632	0.013863825	0.143030528	0.044083398
2020-04-12T05:40:00	0.2530	5.293	174.0	0.645237008	0.807450509	0.013942931	0.143846645	0.044334933
2020-04-12T05:45:00	0.2532	5.288	168.0	0.645881156	0.808419063	0.013968945	0.144115027	0.044417651
2020-04-12T05:50:00	0.2531	5.284	173.0	0.645536988	0.807901521	0.013955042	0.143971598	0.044373445
2020-04-12T05:55:00	0.2535	5.282	173.0	0.646839794	0.809861146	0.014007706	0.144514923	0.044540903
2020-04-12T06:00:00	0.2540	5.281	173.0	0.648471322	0.812317256	0.014073804	0.145196843	0.044751077
2020-04-12T06:05:00	0.2549	5.281	173.0	0.651417982	0.816758923	0.014193593	0.146432686	0.045131976
2020-04-12T06:10:00	0.2550	5.282	168.0	0.651732162	0.817232940	0.014206397	0.146564777	0.045172688
2020-04-12T06:15:00	0.2548	5.284	169.0	0.651059627	0.816218358	0.014178997	0.146282098	0.045085563
2020-04-12T06:20:00	0.2552	5.288	173.0	0.652360438	0.818181102	0.014232018	0.146829110	0.045254158
2020-04-12T06:25:00	0.2552	5.292	174.0	0.652345727	0.818158897	0.014231418	0.146822918	0.045252249
2020-04-12T06:30:00	0.2540	5.298	173.0	0.648382958	0.812184175	0.014070220	0.145159868	0.044739681
2020-04-12T06:35:00	0.2541	5.305	173.0	0.648697402	0.812657778	0.014082976	0.145291469	0.044780242
2020-04-12T06:40:00	0.2544	5.313	173.0	0.649670014	0.814123219	0.014122470	0.145698921	0.044905822
2020-04-12T06:45:00	0.2543	5.324	173.0	0.649326208	0.813605112	0.014108503	0.145554824	0.044861410
2020-04-12T06:50:00	0.2545	5.336	173.0	0.649969625	0.814574807	0.014134648	0.145824555	0.044944544
2020-04-12T06:55:00	0.2540	5.350	173.0	0.648309321	0.812073277	0.014067234	0.145129058	0.044730185
2020-04-12T07:00:00	0.2536	5.366	169.0	0.646977580	0.810068481	0.014013282	0.144572448	0.044558632
2020-04-12T07:05:00	0.2545	5.385	174.0	0.649925462	0.814508238	0.014132852	0.145806033	0.044938835
2020-04-12T07:10:00	0.2543	5.409	174.0	0.649252589	0.813494184	0.014105513	0.145523978	0.044851903
2020-04-12T07:15:00	0.2541	5.437	174.0	0.648579592	0.812480326	0.014078196	0.145242155	0.044765043
2020-04-12T07:20:00	0.2542	5.468	174.0	0.649223142	0.813449813	0.014104317	0.145511641	0.044848101
2020-04-12T07:25:00	0.2533	5.507	174.0	0.646245212	0.808966622	0.013983658	0.144266825	0.044464437
2020-04-12T07:30:00	0.2550	5.554	174.0	0.651825620	0.817373962	0.014210207	0.146604082	0.045184802
2020-04-12T07:35:00	0.2535	5.602	175.0	0.646874446	0.809913287	0.014009108	0.144529389	0.044545361
2020-04-12T07:40:00	0.2534	5.664	175.0	0.646530373	0.809395597	0.013995189	0.144385785	0.044501101
2020-04-12T07:45:00	0.2538	5.719	175.0	0.647832821	0.811355783	0.014047917	0.144929773	0.044668764
2020-04-12T07:50:00	0.2528	5.767	175.0	0.644524218	0.806379155	0.013914174	0.143549967	0.044243494
2020-04-12T07:55:00	0.2540	5.827	175.0	0.648461777	0.812302881	0.014073417	0.145192849	0.044749846
2020-04-12T08:00:00	0.2543	5.903	175.0	0.649434452	0.813768222	0.014112900	0.145600183	0.044875391
2020-04-12T08:05:00	0.2545	5.988	176.0	0.650077850	0.814737948	0.014139048	0.145869951	0.044958535
2020-04-12T08:10:00	0.2549	6.071	177.0	0.651379015	0.816700138	0.014192006	0.146416307	0.045126928
2020-04-12T08:15:00	0.2553	6.154	176.0	0.652679712	0.818663063	0.014245048	0.146963533	0.045295588
2020-04-12T08:20:00	0.2552	6.244	177.0	0.652336193	0.818144506	0.014231029	0.146818905	0.045251012
2020-04-12T08:25:00	0.2558	6.335	177.0	0.654293896	0.821101090	0.014311018	0.147644130	0.045505355
2020-04-12T08:30:00	0.2553	6.428	178.0	0.652635582	0.818596441	0.014243247	0.146944949	0.045289860
2020-04-12T08:35:00	0.2555	6.517	178.0	0.653278409	0.819567062	0.014269497	0.147215773	0.045373331
2020-04-12T08:40:00	0.2555	6.613	179.0	0.653263701	0.819544850	0.014268896	0.147209574	0.045371420
2020-04-12T08:45:00	0.2552	6.701	179.0	0.652262636	0.818033482	0.014228028	0.146787946	0.045241470
2020-04-12T08:50:00	0.2552	6.787	179.0	0.652247924	0.818011277	0.014227428	0.146781754	0.045239562
2020-04-12T08:55:00	0.2543	6.892	180.0	0.649272495	0.813524176	0.014106321	0.145532318	0.044854474
2020-04-12T09:00:00	0.2549	6.991	181.0	0.651231861	0.816478153	0.014186011	0.146354464	0.045107867
2020-04-12T09:05:00	0.2550	7.098	181.0	0.651546056	0.816952144	0.014198812	0.146486525	0.045148570
2020-04-12T09:10:00	0.2542	7.214	182.0	0.649228323	0.813457620	0.014104528	0.145513811	0.044848770
2020-04-12T09:15:00	0.2550	7.313	182.0	0.651845511	0.817403976	0.014211017	0.146612448	0.045187380
2020-04-12T09:20:00	0.2545	7.428	183.0	0.650186071	0.814901094	0.014143449	0.145915352	0.044972529
2020-04-12T09:25:00	0.2532	7.535	183.0	0.645891528	0.808434662	0.013969364	0.144119351	0.044418984
2020-04-12T09:30:00	0.2533	7.650	184.0	0.646206190	0.808907925	0.013982081	0.144250550	0.044459420
2020-04-12T09:35:00	0.2527	7.774	184.0	0.644214598	0.805913917	0.013901692	0.143421197	0.044203806
2020-04-12T09:40:00	0.2523	7.890	185.0	0.642881340	0.803911484	0.013848012	0.142867384	0.044033115
2020-04-12T09:45:00	0.2527	7.994	185.0	0.644185109	0.805869611	0.013900504	0.143408935	0.044200027
2020-04-12T09:50:00	0.2535	8.087	185.0	0.646805963	0.809810239	0.014006337	0.144500800	0.044536550
2020-04-12T09:55:00	0.2524	8.187	185.0	0.643166768	0.804340044	0.013859495	0.142985852	0.044069628
2020-04-12T10:00:00	0.2523	8.277	186.0	0.642822340	0.803822906	0.013845639	0.142842902	0.044025570
2020-04-12T10:05:00	0.2517	8.358	186.0	0.640828872	0.800831817	0.013765585	0.142017004	0.043771020
2020-04-12T10:10:00	0.2519	8.442	187.0	0.641473810	0.801799142	0.013791458	0.142283930	0.043853289
2020-04-12T10:15:00	0.2521	8.533	187.0	0.642118632	0.802766646	0.013817352	0.142551069	0.043935624
2020-04-12T10:20:00	0.2524	8.634	188.0	0.643093023	0.804229312	0.013856527	0.142955239	0.044060193
2020-04-12T10:25:00	0.2518	8.732	188.0	0.641099706	0.801237990	0.013776447	0.142129064	0.043805558
2020-04-12T10:30:00	0.2514	8.834	189.0	0.639765292	0.799237354	0.013722973	0.141577379	0.043635523
2020-04-12T10:35:00	0.2502	8.935	189.0	0.635788629	0.793284261	0.013564256	0.139939931	0.043130846
2020-04-12T10:40:00	0.2505	9.041	190.0	0.636764739	0.794744262	0.013603126	0.140340941	0.043254441
2020-04-12T10:45:00	0.2495	9.146	190.0	0.633445920	0.789783487	0.013471203	0.138979920	0.042834961
2020-04-12T10:50:00	0.2498	9.257	191.0	0.634422669	0.791242503	0.013509959	0.139379761	0.042958196
2020-04-12T10:55:00	0.2489	9.375	191.0	0.631432436	0.786778398	0.013391493	0.138157563	0.042581503
2020-04-12T11:00:00	0.2486	9.494	191.0	0.630756090	0.785769733	0.013364773	0.137881895	0.042496539
2020-04-12T11:05:00	0.2483	9.620	192.0	0.629748733	0.784268135	0.013325026	0.137471841	0.042370157
2020-04-12T11:10:00	0.2491	9.752	192.0	0.632380148	0.788192412	0.013428980	0.138544316	0.042700704
2020-04-12T11:15:00	0.2490	9.889	193.0	0.632034683	0.787676880	0.013415309	0.138403270	0.042657232
2020-04-12T11:20:00	0.2486	10.032	194.0	0.630696890	0.785681464	0.013362435	0.137857780	0.042489107
2020-04-12T11:25:00	0.2489	10.181	194.0	0.631674389	0.787139325	0.013401058	0.138256248	0.042611918
2020-04-12T11:30:00	0.2491	10.340	196.0	0.632320975	0.788104102	0.013426638	0.138520152	0.042693256
2020-04-12T11:35:00	0.2468	10.511	196.0	0.624692859	0.776744654	0.013126470	0.135423369	0.041738797
2020-04-12T11:40:00	0.2485	10.677	197.0	0.630306858	0.785099987	0.013347040	0.137698953	0.042440155
2020-04-12T11:45:00	0.2479	10.832	198.0	0.628306416	0.782119668	0.013268226	0.136885837	0.042189544
2020-04-12T11:50:00	0.2480	10.983	198.0	0.628622624	0.782590539	0.013280668	0.137014199	0.042229107
2020-04-12T11:55:00	0.2480	11.132	199.0	0.628607815	0.782568485	0.013280085	0.137008186	0.042227254
2020-04-12T12:00:00	0.2475	11.276	200.0	0.626937597	0.780082308	0.013214435	0.136330894	0.042018506
2020-04-12T12:05:00	0.2471	11.398	200.0	0.625597895	0.778089821	0.013161899	0.135788888	0.041851454
2020-04-12T12:10:00	0.2457	11.511	200.0	0.620942079	0.771177188	0.012980165	0.133913968	0.041273586
2020-04-12T12:15:00	0.2462	11.616	201.0	0.622585436	0.773615043	0.013044162	0.134574215	0.041477080
2020-04-12T12:20:00	0.2465	11.716	201.0	0.623565156	0.775069501	0.013082393	0.134968634	0.041598644
2020-04-12T12:25:00	0.2466	11.800	202.0	0.623881784	0.775539729	0.013094761	0.135096231	0.041637970
2020-04-12T12:30:00	0.2470	11.881	202.0	0.625192483	0.777487166	0.013146022	0.135625090	0.041800970
2020-04-12T12:35:00	0.2479	11.954	202.0	0.628158313	0.781899154	0.013262400	0.136825737	0.042171021
2020-04-12T12:40:00	0.2472	12.015	203.0	0.625825422	0.778428107	0.013170814	0.135880860	0.041879801
2020-04-12T12:45:00	0.2479	12.077	204.0	0.628128692	0.781855052	0.013261235	0.136813718	0.042167317
2020-04-12T12:50:00	0.2473	12.131	204.0	0.626127031	0.778876603	0.013182636	0.136002828	0.041917392
2020-04-12T12:55:00	0.2481	12.182	204.0	0.629092085	0.783289778	0.013299151	0.137204889	0.042287879
2020-04-12T13:00:00	0.2479	12.220	204.0	0.628415296	0.782281793	0.013272509	0.136930029	0.042203165
2020-04-12T13:05:00	0.2478	12.243	204.0	0.628069448	0.781766850	0.013258905	0.136789682	0.042159909
2020-04-12T13:10:00	0.2466	12.258	204.0	0.624079765	0.775833797	0.013102497	0.135176047	0.041662570
2020-04-12T13:15:00	0.2464	12.261	204.0	0.623402026	0.774827267	0.013076023	0.134902919	0.041578390
2020-04-12T13:20:00	0.2471	12.253	204.0	0.625706858	0.778251821	0.013166168	0.135832930	0.041865028
2020-04-12T13:25:00	0.2476	12.232	204.0	0.627348024	0.780693024	0.013230552	0.136497166	0.042069752
2020-04-12T13:30:00	0.2463	12.207	204.0	0.623026028	0.774269030	0.013061348	0.134751516	0.041531726
2020-04-12T13:35:00	0.2454	12.169	204.0	0.620026240	0.769819567	0.012944570	0.133546744	0.041160403
2020-04-12T13:40:00	0.2456	12.127	204.0	0.620674938	0.770781111	0.012969777	0.133806799	0.041240555
2020-04-12T13:45:00	0.2469	12.087	204.0	0.624970132	0.777156695	0.013137319	0.135535298	0.041773295
2020-04-12T13:50:00	0.2455	12.031	203.0	0.620313496	0.770245313	0.012955729	0.133661869	0.041195886
2020-04-12T13:55:00	0.2457	11.984	203.0	0.620962141	0.771206937	0.012980945	0.133922019	0.041276067
2020-04-12T14:00:00	0.2458	11.936	203.0	0.621279000	0.771676812	0.012993272	0.134049196	0.041315264
2020-04-12T14:05:00	0.2456	11.893	203.0	0.620600729	0.770671095	0.012966892	0.133777036	0.041231382
2020-04-12T14:10:00	0.2463	11.838	202.0	0.622907371	0.774092886	0.013056718	0.134703755	0.041517005
2020-04-12T14:15:00	0.2457	11.790	202.0	0.620902779	0.771118916	0.012978636	0.133898200	0.041268726
2020-04-12T14:20:00	0.2469	11.753	202.0	0.624866364	0.777002483	0.013133258	0.135493403	0.041760383
2020-04-12T14:25:00	0.2467	11.701	202.0	0.624188774	0.775995725	0.013106758	0.135220004	0.041676118
2020-04-12T14:30:00	0.2463	11.663	202.0	0.622848040	0.774004816	0.013054404	0.134679877	0.041509646
2020-04-12T14:35:00	0.2463	11.626	201.0	0.622833208	0.773982799	0.013053825	0.134673907	0.041507806
2020-04-12T14:40:00	0.2458	11.587	201.0	0.621160285	0.771500757	0.012988653	0.134001540	0.041300576
2020-04-12T14:45:00	0.2458	11.551	201.0	0.621477126	0.771970659	0.013000983	0.134128748	0.041339783
2020-04-12T14:50:00	0.2462	11.521	201.0	0.622788709	0.773916748	0.013052089	0.134656000	0.041502287
2020-04-12T14:55:00	0.2458	11.495	201.0	0.621447449	0.771926643	0.012999828	0.134116831	0.041336110
2020-04-12T15:00:00	0.2459	11.473	201.0	0.621764265	0.772396584	0.013012163	0.134244086	0.041375331
2020-04-12T15:05:00	0.2458	11.450	200.0	0.621417772	0.771882626	0.012998673	0.134104914	0.041332437
2020-04-12T15:10:00	0.2454	11.427	200.0	0.620075997	0.769893307	0.012946503	0.133566682	0.041166548
2020-04-12T15:15:00	0.2451	11.402	200.0	0.619065621	0.768396324	0.012907289	0.133162124	0.041041860
2020-04-12T15:20:00	0.2455	11.368	200.0	0.620378091	0.770341061	0.012958239	0.133687764	0.041203867
2020-04-12T15:25:00	0.2450	11.343	200.0	0.618704016	0.767860774	0.012893270	0.133017491	0.040997283
2020-04-12T15:30:00	0.2451	11.331	200.0	0.619021076	0.768330344	0.012905562	0.133144303	0.041036367
2020-04-12T15:35:00	0.2453	11.324	200.0	0.619669956	0.769291610	0.012930737	0.133404026	0.041116416
2020-04-12T15:40:00	0.2465	11.312	200.0	0.623634911	0.775173088	0.013085117	0.134996739	0.041607306
2020-04-12T15:45:00	0.2464	11.308	200.0	0.623288600	0.774658853	0.013071595	0.134857237	0.041564310
2020-04-12T15:50:00	0.2471	11.297	200.0	0.625593505	0.778083295	0.013161727	0.135787114	0.041850907
2020-04-12T15:55:00	0.2473	11.282	200.0	0.626241192	0.779046382	0.013187112	0.136049008	0.041931626
2020-04-12T16:00:00	0.2482	11.266	200.0	0.629206152	0.783459703	0.013303644	0.137251242	0.042302166
2020-04-12T16:05:00	0.2465	11.243	200.0	0.623663518	0.775215571	0.013086234	0.135008266	0.041610859
2020-04-12T16:10:00	0.2471	11.222	200.0	0.625739614	0.778300522	0.013167452	0.135846170	0.041869109
2020-04-12T16:15:00	0.2474	11.199	199.0	0.626489948	0.779416368	0.013196869	0.136149663	0.041962649
2020-04-12T16:20:00	0.2478	11.177	199.0	0.627902324	0.781518049	0.013252334	0.136721889	0.042139014
2020-04-12T16:25:00	0.2470	11.163	199.0	0.625340672	0.777707436	0.013151825	0.135684951	0.041819420
2020-04-12T16:30:00	0.2480	11.148	200.0	0.628740005	0.782765354	0.013285288	0.137061865	0.042243798
2020-04-12T16:35:00	0.2475	11.134	199.0	0.626841350	0.779939113	0.013210658	0.136291918	0.042006493
2020-04-12T16:40:00	0.2478	11.125	199.0	0.627922535	0.781548137	0.013253129	0.136730087	0.042141541
2020-04-12T16:45:00	0.2467	11.113	199.0	0.624366845	0.776260264	0.013113719	0.135291825	0.041698254
2020-04-12T16:50:00	0.2468	11.105	199.0	0.624786124	0.776883243	0.013130119	0.135461012	0.041750400
2020-04-12T16:55:00	0.2466	11.097	199.0	0.623879831	0.775536830	0.013094684	0.135095444	0.041637728
2020-04-12T17:00:00	0.2464	11.087	199.0	0.623304820	0.774682936	0.013072228	0.134863769	0.041566323
2020-04-12T17:05:00	0.2462	11.069	199.0	0.622729715	0.773829183	0.013049788	0.134632262	0.041494971
2020-04-12T17:10:00	0.2453	11.049	199.0	0.619500709	0.769040849	0.012924168	0.133336257	0.041095529
2020-04-12T17:15:00	0.2456	11.027	198.0	0.620584120	0.770646474	0.012966247	0.133770376	0.041229329
2020-04-12T17:20:00	0.2458	11.005	199.0	0.621335539	0.771760663	0.012995473	0.134071895	0.041322260
2020-04-12T17:25:00	0.2465	10.986	198.0	0.623744459	0.775335776	0.013089396	0.135040883	0.041620912
2020-04-12T17:30:00	0.2455	10.958	199.0	0.620184602	0.770054269	0.012950721	0.133610205	0.041179963
2020-04-12T17:35:00	0.2460	10.925	198.0	0.621931114	0.772644109	0.013018661	0.134311129	0.041395994
2020-04-12T17:40:00	0.2453	10.893	198.0	0.619697017	0.769331706	0.012931787	0.133414863	0.041119756
2020-04-12T17:45:00	0.2455	10.860	198.0	0.620448623	0.770445611	0.012960980	0.133716042	0.041212583
2020-04-12T17:50:00	0.2455	10.823	198.0	0.620204857	0.770084289	0.012951508	0.133618323	0.041182465
2020-04-12T17:55:00	0.2465	10.783	198.0	0.623609081	0.775134730	0.013084108	0.134986332	0.041604098
2020-04-12T18:00:00	0.2465	10.741	198.0	0.623697006	0.775265303	0.013087542	0.135021760	0.041615018
2020-04-12T18:05:00	0.2460	10.699	197.0	0.622127288	0.772935169	0.013026304	0.134389977	0.041420296
2020-04-12T18:10:00	0.2462	10.656	197.0	0.622546831	0.773557747	0.013042657	0.134558686	0.041472294
2020-04-12T18:15:00	0.2467	10.615	197.0	0.624292187	0.776149350	0.013110800	0.135261711	0.041688973
2020-04-12T18:20:00	0.2475	10.574	196.0	0.627030278	0.780220206	0.013218074	0.136368432	0.042030075
2020-04-12T18:25:00	0.2472	10.531	196.0	0.626124555	0.778872921	0.013182539	0.136001826	0.041917084
2020-04-12T18:30:00	0.2476	10.488	196.0	0.627205957	0.780481612	0.013224972	0.136439600	0.042052010
2020-04-12T18:35:00	0.2482	10.448	196.0	0.629279995	0.783569713	0.013306553	0.137281254	0.042311416
2020-04-12T18:40:00	0.2490	10.406	196.0	0.632014270	0.787646421	0.013414501	0.138394938	0.042654664
2020-04-12T18:45:00	0.2503	10.362	195.0	0.636067962	0.793701986	0.013575374	0.140054626	0.043166196
2020-04-12T18:50:00	0.2503	10.320	196.0	0.636155581	0.793833028	0.013578862	0.140090614	0.043177288
2020-04-12T18:55:00	0.2505	10.277	195.0	0.636903735	0.794952228	0.013608665	0.140398092	0.043272056
2020-04-12T19:00:00	0.2505	10.234	195.0	0.636991333	0.795083302	0.013612157	0.140434117	0.043283159
2020-04-12T19:05:00	0.2513	10.194	195.0	0.639389738	0.798674574	0.013707943	0.141422316	0.043587731
2020-04-12T19:10:00	0.2509	10.151	195.0	0.638157029	0.796828156	0.013658668	0.140913961	0.043431051
2020-04-12T19:15:00	0.2509	10.110	195.0	0.638244597	0.796959277	0.013662165	0.140950041	0.043442172
2020-04-12T19:20:00	0.2507	10.075	195.0	0.637671889	0.796101841	0.013639301	0.140714155	0.043369469
2020-04-12T19:25:00	0.2516	10.039	194.0	0.640399771	0.800188416	0.013748385	0.141839552	0.043716327
2020-04-12T19:30:00	0.2512	10.005	194.0	0.639167408	0.798341460	0.013699049	0.141330559	0.043559451
2020-04-12T19:35:00	0.2510	9.976	194.0	0.638594847	0.797483796	0.013676158	0.141094403	0.043486665
2020-04-12T19:40:00	0.2502	9.947	194.0	0.636040838	0.793661420	0.013574294	0.140043487	0.043162763
2020-04-12T19:45:00	0.2505	9.921	194.0	0.636789015	0.794780583	0.013604093	0.140350922	0.043257517
2020-04-12T19:50:00	0.2510	9.895	194.0	0.638527439	0.797382841	0.013673465	0.141066614	0.043478100
2020-04-12T19:55:00	0.2510	9.869	194.0	0.638614998	0.797513977	0.013676963	0.141102711	0.043489226
2020-04-12T20:00:00	0.2514	9.846	193.0	0.639692636	0.799128467	0.013720064	0.141547373	0.043626275
2020-04-12T20:05:00	0.2518	9.824	192.0	0.641099818	0.801238158	0.013776451	0.142129110	0.043805572
2020-04-12T20:10:00	0.2530	9.801	193.0	0.645143266	0.807309586	0.013939147	0.143807610	0.044322902
2020-04-12T20:15:00	0.2524	9.778	193.0	0.643253280	0.804469953	0.013862976	0.143021769	0.044080698
2020-04-12T20:20:00	0.2513	9.754	193.0	0.639382786	0.798664157	0.013707664	0.141419446	0.043586847
2020-04-12T20:25:00	0.2499	9.733	193.0	0.634847321	0.791877079	0.013526827	0.139553782	0.043011831
2020-04-12T20:30:00	0.2511	9.712	192.0	0.638897812	0.797937586	0.013688268	0.141219337	0.043525171
2020-04-12T20:35:00	0.2511	9.691	193.0	0.638985362	0.798068735	0.013691768	0.141255451	0.043536302
2020-04-12T20:40:00	0.2508	9.668	193.0	0.637752513	0.796222532	0.013642519	0.140747350	0.043379700
2020-04-12T20:45:00	0.2482	9.647	192.0	0.629245847	0.783518840	0.013305208	0.137267375	0.042307138
2020-04-12T20:50:00	0.2490	9.627	192.0	0.631980148	0.787595508	0.013413151	0.138381011	0.042650372
2020-04-12T20:55:00	0.2471	9.608	192.0	0.625779348	0.778359600	0.013169009	0.135862233	0.041874060
2020-04-12T21:00:00	0.2480	9.588	192.0	0.628516300	0.782432200	0.013276483	0.136971031	0.042215802
2020-04-12T21:05:00	0.2472	9.570	192.0	0.625955088	0.778620912	0.013175896	0.135933289	0.041895960
2020-04-12T21:10:00	0.2474	9.551	192.0	0.626705377	0.779736828	0.013205321	0.136236864	0.041989525
2020-04-12T21:15:00	0.2478	9.532	192.0	0.627786603	0.781345788	0.013247785	0.136674958	0.042124550
2020-04-12T21:20:00	0.2470	9.514	192.0	0.625224868	0.777535303	0.013147290	0.135638171	0.041805002
2020-04-12T21:25:00	0.2473	9.497	192.0	0.626306543	0.779143577	0.013189675	0.136075448	0.041939775
2020-04-12T21:30:00	0.2481	9.479	192.0	0.629043091	0.783216796	0.013297221	0.137184981	0.042281744
2020-04-12T21:35:00	0.2492	9.462	192.0	0.632438908	0.788280109	0.013431307	0.138568314	0.042708100
2020-04-12T21:40:00	0.2530	9.445	192.0	0.645069040	0.807198007	0.013936151	0.143776705	0.044313377
2020-04-12T21:45:00	0.2507	9.429	192.0	0.637570395	0.795949918	0.013635251	0.140672374	0.043356592
2020-04-12T21:50:00	0.2506	9.414	193.0	0.637327794	0.795586809	0.013625573	0.140572529	0.043325819
2020-04-12T21:55:00	0.2507	9.396	192.0	0.637415382	0.795717900	0.013629067	0.140608573	0.043336928
2020-04-12T22:00:00	0.2501	9.376	193.0	0.635521323	0.792884583	0.013553622	0.139830219	0.043097031
2020-04-12T22:05:00	0.2505	9.357	192.0	0.636936051	0.795000583	0.013609954	0.140411382	0.043276152
2020-04-12T22:10:00	0.2501	9.338	192.0	0.635708410	0.793164310	0.013561064	0.139907001	0.043120696
2020-04-12T22:15:00	0.2504	9.316	192.0	0.636462567	0.794292207	0.013591087	0.140216737	0.043216160
2020-04-12T22:20:00	0.2491	9.295	192.0	0.632260003	0.788013110	0.013424225	0.138495255	0.042685583
2020-04-12T22:25:00	0.2498	9.277	193.0	0.634667488	0.791608328	0.013519683	0.139480073	0.042989113
2020-04-12T22:30:00	0.2500	9.260	193.0	0.635091475	0.792241997	0.013536530	0.139653887	0.043042684
2020-04-12T22:35:00	0.2482	9.244	192.0	0.629232953	0.783499630	0.013304700	0.137262134	0.042305523
2020-04-12T22:40:00	0.2491	9.229	192.0	0.632303859	0.788078559	0.013425961	0.138513163	0.042691102
2020-04-12T22:45:00	0.2470	9.215	192.0	0.625447016	0.777865519	0.013155989	0.135727916	0.041832662
2020-04-12T22:50:00	0.2462	9.202	192.0	0.622557984	0.773574300	0.013043092	0.134563172	0.041473677
2020-04-12T22:55:00	0.2455	9.189	191.0	0.620330218	0.770270099	0.012956379	0.133668572	0.041197952
2020-04-12T23:00:00	0.2440	9.174	191.0	0.615444227	0.763037892	0.012767246	0.131717320	0.040596557
2020-04-12T23:05:00	0.2448	9.160	191.0	0.617863073	0.766615737	0.012860698	0.132681448	0.040893711
2020-04-12T23:10:00	0.2422	9.147	191.0	0.609314762	0.753993506	0.012532009	0.129290431	0.039848567
2020-04-12T23:15:00	0.2423	9.133	191.0	0.609741773	0.754622563	0.012548324	0.129458747	0.039900443
2020-04-12T23:20:00	0.2429	9.119	191.0	0.611831950	0.757703944	0.012628341	0.130284263	0.040154875
2020-04-12T23:25:00	0.2411	9.104	190.0	0.605601909	0.748530317	0.012390615	0.127831690	0.039398968
2020-04-12T23:30:00	0.2401	9.089	191.0	0.602363263	0.743774326	0.012267954	0.126566221	0.039008939
2020-04-12T23:35:00	0.2410	9.072	190.0	0.605457424	0.748317952	0.012385129	0.127775096	0.039381525
2020-04-12T23:40:00	0.2408	9.053	191.0	0.604552155	0.746987779	0.012350788	0.127420799	0.039272328
2020-04-12T23:45:00	0.2399	9.030	190.0	0.601646088	0.742722333	0.012240877	0.126286868	0.038922839
2020-04-12T23:50:00	0.2397	9.006	190.0	0.601073436	0.741882645	0.012219278	0.126064038	0.038854161
2020-04-12T23:55:00	0.2390	8.981	190.0	0.598832148	0.738598846	0.012134932	0.125193854	0.038585962
2020-04-13T00:00:00	0.2386	8.955	190.0	0.597257374	0.736294096	0.012075848	0.124584298	0.038398091
2020-04-13T00:05:00	0.2382	8.931	190.0	0.596015967	0.734478703	0.012029376	0.124104858	0.038250323
2020-04-13T00:10:00	0.2374	8.905	189.0	0.593437185	0.730711693	0.011933135	0.123111949	0.037944298
2020-04-13T00:15:00	0.2370	8.884	190.0	0.591860003	0.728410524	0.011874469	0.122506703	0.037757756
2020-04-13T00:20:00	0.2367	8.867	189.0	0.590951245	0.727085554	0.011840733	0.122158661	0.037650486
2020-04-13T00:25:00	0.2371	8.850	189.0	0.592383814	0.729174554	0.011893936	0.122707546	0.037819658
2020-04-13T00:30:00	0.2379	8.833	189.0	0.595152596	0.733216898	0.011997111	0.123771978	0.038147726
2020-04-13T00:35:00	0.2367	8.818	189.0	0.590900888	0.727012155	0.011838865	0.122139390	0.037644546
2020-04-13T00:40:00	0.2364	8.801	190.0	0.589991883	0.725687551	0.011805173	0.121791789	0.037537412
2020-04-13T00:45:00	0.2372	8.782	190.0	0.592762543	0.729727110	0.011908022	0.122852867	0.037864447
2020-04-13T00:50:00	0.2377	8.762	189.0	0.594194376	0.731817200	0.011961352	0.123403066	0.038034023
2020-04-13T00:55:00	0.2368	8.743	190.0	0.591279776	0.727564474	0.011852923	0.122284425	0.037689248
2020-04-13T01:00:00	0.2363	8.723	189.0	0.589701628	0.725264736	0.011794425	0.121680903	0.037503236
2020-04-13T01:05:00	0.2365	8.701	190.0	0.590465609	0.726377779	0.011822725	0.121972877	0.037593225
2020-04-13T01:10:00	0.2373	8.677	189.0	0.592901564	0.729929968	0.011913195	0.122906232	0.037880894
2020-04-13T01:15:00	0.2365	8.654	189.0	0.590320504	0.726166339	0.011817347	0.121917394	0.037576125
2020-04-13T01:20:00	0.2369	8.635	188.0	0.591753329	0.728254959	0.011870506	0.122465822	0.037745156
2020-04-13T01:25:00	0.2373	8.618	189.0	0.592851235	0.729856527	0.011911322	0.122886911	0.037874939
2020-04-13T01:30:00	0.2380	8.602	189.0	0.595285544	0.733411158	0.012002076	0.123823207	0.038163515
2020-04-13T01:35:00	0.2388	8.587	188.0	0.598052052	0.737456883	0.012105645	0.124891707	0.038492837
2020-04-13T01:40:00	0.2382	8.575	188.0	0.596142904	0.734664273	0.012034124	0.124153839	0.038265419
2020-04-13T01:45:00	0.2388	8.564	189.0	0.597907259	0.737244979	0.012100213	0.124835667	0.038475565
2020-04-13T01:50:00	0.2377	8.554	189.0	0.594327360	0.732011407	0.011966312	0.123454231	0.038049793
2020-04-13T01:55:00	0.2382	8.544	189.0	0.596092621	0.734590764	0.012032243	0.124134435	0.038259439
2020-04-13T02:00:00	0.2382	8.531	190.0	0.596187208	0.734729045	0.012035781	0.124170936	0.038270689
2020-04-13T02:05:00	0.2370	8.520	189.0	0.591936748	0.728522450	0.011877320	0.122536119	0.037766822
2020-04-13T02:10:00	0.2367	8.507	188.0	0.591028010	0.727197451	0.011843581	0.122188041	0.037659541
2020-04-13T02:15:00	0.2360	8.496	188.0	0.588780333	0.723923149	0.011760342	0.121329285	0.037394864
2020-04-13T02:20:00	0.2354	8.484	188.0	0.586531222	0.720650968	0.011677352	0.120473088	0.037130976
2020-04-13T02:25:00	0.2352	8.472	188.0	0.585956112	0.719814931	0.011656179	0.120254653	0.037063652
2020-04-13T02:30:00	0.2344	8.460	188.0	0.583369955	0.716058831	0.011561213	0.119274899	0.036761682
2020-04-13T02:35:00	0.2346	8.448	188.0	0.584135312	0.717169845	0.011589276	0.119564423	0.036850916
2020-04-13T02:40:00	0.2324	8.432	189.0	0.576512777	0.706126451	0.011311332	0.116696926	0.035967126
2020-04-13T02:45:00	0.2320	8.417	189.0	0.575264030	0.704321883	0.011266127	0.116230554	0.035823386
2020-04-13T02:50:00	0.2321	8.400	189.0	0.575695183	0.704944797	0.011281724	0.116391470	0.035872981
2020-04-13T02:55:00	0.2328	8.382	189.0	0.577805616	0.707996097	0.011358230	0.117180770	0.036116251
2020-04-13T03:00:00	0.2334	8.361	188.0	0.579914781	0.711049254	0.011434955	0.117972319	0.036360214
2020-04-13T03:05:00	0.2337	8.342	189.0	0.581016385	0.712645368	0.011475132	0.118386823	0.036487969
2020-04-13T03:10:00	0.2345	8.322	188.0	0.583794115	0.716674493	0.011576761	0.119435308	0.036811122
2020-04-13T03:15:00	0.2346	8.298	189.0	0.583889032	0.716812285	0.011580242	0.119471220	0.036822190
2020-04-13T03:20:00	0.2334	8.273	189.0	0.579959289	0.711113723	0.011436577	0.117989052	0.036365372
2020-04-13T03:25:00	0.2343	8.250	189.0	0.583073154	0.715628116	0.011550339	0.119162719	0.036727107
2020-04-13T03:30:00	0.2339	8.229	188.0	0.581491321	0.713333813	0.011492476	0.118565758	0.036543118
2020-04-13T03:35:00	0.2351	8.207	187.0	0.585609096	0.719310607	0.011643413	0.120122949	0.037023060
2020-04-13T03:40:00	0.2338	8.184	186.0	0.581345845	0.713122918	0.011487162	0.118510934	0.036526221
2020-04-13T03:45:00	0.2334	8.163	186.0	0.580098817	0.711315834	0.011441662	0.118041515	0.036381541
2020-04-13T03:50:00	0.2339	8.139	186.0	0.581535809	0.713398311	0.011494101	0.118582526	0.036548286
2020-04-13T03:55:00	0.2336	8.115	187.0	0.580624382	0.712077279	0.011460827	0.118239237	0.036442481
2020-04-13T04:00:00	0.2334	8.094	186.0	0.580048305	0.711242664	0.011439821	0.118022521	0.036375687
2020-04-13T04:05:00	0.2324	8.071	186.0	0.576471231	0.706066391	0.011309826	0.116681394	0.035962339
2020-04-13T04:10:00	0.2296	8.048	186.0	0.567169452	0.692655691	0.010975339	0.113230547	0.034898754
2020-04-13T04:15:00	0.2276	8.025	185.0	0.560543478	0.683146390	0.010740190	0.110804558	0.034151041
2020-04-13T04:20:00	0.2269	8.003	186.0	0.557959625	0.679447967	0.010649193	0.109865760	0.033861694
2020-04-13T04:25:00	0.2266	7.983	186.0	0.557063188	0.678166128	0.010617714	0.109541003	0.033761601
2020-04-13T04:30:00	0.2251	7.966	186.0	0.552109691	0.671094900	0.010444624	0.107755265	0.033211219
2020-04-13T04:35:00	0.2245	7.951	186.0	0.549858067	0.667887318	0.010366423	0.106948470	0.032962557
2020-04-13T04:40:00	0.2230	7.940	186.0	0.544894279	0.660830772	0.010195074	0.105180703	0.032417714
2020-04-13T04:45:00	0.2222	7.932	187.0	0.542298758	0.657149000	0.010106053	0.104262285	0.032134649
2020-04-13T04:50:00	0.2222	7.927	186.0	0.542076828	0.656834446	0.010098459	0.104183944	0.032110503
2020-04-13T04:55:00	0.2203	7.920	187.0	0.535742667	0.647873645	0.009882947	0.101960537	0.031425228
2020-04-13T05:00:00	0.2196	7.909	187.0	0.533480374	0.644681165	0.009806543	0.101172293	0.031182283
2020-04-13T05:05:00	0.2188	7.893	186.0	0.530535904	0.640532263	0.009707547	0.100150973	0.030867503
2020-04-13T05:10:00	0.2166	7.878	186.0	0.523157329	0.630166477	0.009461692	0.097614534	0.030085747
2020-04-13T05:15:00	0.2163	7.861	186.0	0.522251831	0.628897435	0.009431739	0.097305514	0.029990504
2020-04-13T05:20:00	0.2158	7.844	186.0	0.520322069	0.626195123	0.009368063	0.096648583	0.029788032
2020-04-13T05:25:00	0.2168	7.829	185.0	0.523852231	0.631140822	0.009484711	0.097852017	0.030158942
2020-04-13T05:30:00	0.2198	7.816	185.0	0.533845869	0.645196657	0.009818866	0.101299432	0.031221469
2020-04-13T05:35:00	0.2206	7.804	185.0	0.536682728	0.649201460	0.009914783	0.102288987	0.031526459
2020-04-13T05:40:00	0.2196	7.793	185.0	0.533400907	0.644569099	0.009803864	0.101144660	0.031173767
2020-04-13T05:45:00	0.2193	7.784	185.0	0.532157893	0.642816851	0.009762017	0.100712931	0.031040704
2020-04-13T05:50:00	0.2192	7.775	185.0	0.531935311	0.642503215	0.009754533	0.100635721	0.031016907
2020-04-13T05:55:00	0.2186	7.767	185.0	0.530010970	0.639793347	0.009689951	0.099969443	0.030811553
2020-04-13T06:00:00	0.2188	7.760	185.0	0.530469092	0.640438203	0.009705307	0.100127859	0.030860379
2020-04-13T06:05:00	0.2188	7.770	185.0	0.530586793	0.640603908	0.009709254	0.100168581	0.030872929
2020-04-13T06:10:00	0.2219	7.783	185.0	0.541239696	0.655648295	0.010069842	0.103888707	0.032019509
2020-04-13T06:15:00	0.2229	7.790	185.0	0.544409536	0.660142740	0.010178419	0.105008869	0.032364753
2020-04-13T06:20:00	0.2223	7.807	185.0	0.542492128	0.657423108	0.010112672	0.104330568	0.032155694
2020-04-13T06:25:00	0.2214	7.825	185.0	0.539555329	0.653263410	0.010012387	0.103295952	0.031836816
2020-04-13T06:30:00	0.2204	7.829	185.0	0.535936404	0.648147235	0.009889503	0.102028184	0.031446077
2020-04-13T06:35:00	0.2214	7.854	185.0	0.539450623	0.653115233	0.010008821	0.103259161	0.031825476
2020-04-13T06:40:00	0.2224	7.889	185.0	0.542961275	0.658088263	0.010128738	0.104496328	0.032206783
2020-04-13T06:45:00	0.2231	7.926	185.0	0.545112842	0.661141058	0.010202589	0.105258227	0.032441608
2020-04-13T06:50:00	0.2224	7.946	185.0	0.542856671	0.657939941	0.010125155	0.104459357	0.032195388
2020-04-13T06:55:00	0.2235	7.960	185.0	0.546702686	0.663399274	0.010257333	0.105823010	0.032615679
2020-04-13T07:00:00	0.2260	7.977	185.0	0.554941103	0.675134334	0.010543386	0.108774168	0.033525255
2020-04-13T07:05:00	0.2245	7.996	185.0	0.549984580	0.668067433	0.010370809	0.106993720	0.032976504
2020-04-13T07:10:00	0.2224	8.020	186.0	0.542986628	0.658124214	0.010129607	0.104505289	0.032209545
2020-04-13T07:15:00	0.2216	8.039	186.0	0.540050249	0.653963923	0.010029252	0.103469944	0.031890442
2020-04-13T07:20:00	0.2211	8.075	186.0	0.538470042	0.651727986	0.009975455	0.102914929	0.031719381
2020-04-13T07:25:00	0.2222	8.110	186.0	0.542320927	0.657180424	0.010106812	0.104270112	0.032137061
2020-04-13T07:30:00	0.2209	8.145	186.0	0.537686015	0.650619374	0.009948817	0.102640115	0.031634680
2020-04-13T07:35:00	0.2216	8.166	186.0	0.540180311	0.654148047	0.010033686	0.103515693	0.031904542
2020-04-13T07:40:00	0.2231	8.187	186.0	0.545046311	0.661046602	0.010200301	0.105234625	0.032434334
2020-04-13T07:45:00	0.2247	8.189	186.0	0.550582387	0.668918704	0.010391547	0.107207671	0.033042445
2020-04-13T07:50:00	0.2255	8.187	187.0	0.553405582	0.672942866	0.010489767	0.108220997	0.033354762
2020-04-13T07:55:00	0.2265	8.185	187.0	0.556564337	0.677453093	0.010600218	0.109360493	0.033705966
2020-04-13T08:00:00	0.2245	8.187	186.0	0.549918142	0.667972845	0.010368505	0.106969956	0.032969179
2020-04-13T08:05:00	0.2254	8.200	187.0	0.553080065	0.672478542	0.010478419	0.108103913	0.033318676
2020-04-13T08:10:00	0.2265	8.209	187.0	0.556576964	0.677471139	0.010600660	0.109365060	0.033707374
2020-04-13T08:15:00	0.2263	8.209	187.0	0.556018075	0.676672526	0.010581075	0.109163000	0.033645097
2020-04-13T08:20:00	0.2258	8.209	187.0	0.554445125	0.674426271	0.010526052	0.108595335	0.033470137
2020-04-13T08:25:00	0.2272	8.206	187.0	0.558953606	0.680870061	0.010684152	0.110226426	0.033972855
2020-04-13T08:30:00	0.2285	8.208	186.0	0.563456260	0.687322225	0.010843242	0.111867733	0.034478722
2020-04-13T08:35:00	0.2296	8.209	186.0	0.567279584	0.692814053	0.010979269	0.113271096	0.034911252
2020-04-13T08:40:00	0.2291	8.203	186.0	0.565374743	0.690076428	0.010911391	0.112570806	0.034695416
2020-04-13T08:45:00	0.2286	8.194	186.0	0.563806011	0.687824106	0.010855650	0.111995741	0.034518175
2020-04-13T08:50:00	0.2248	8.198	185.0	0.551088382	0.669639464	0.010409116	0.107388932	0.033098312
2020-04-13T08:55:00	0.2244	8.219	185.0	0.549513200	0.667396401	0.010354471	0.106825170	0.032924555
2020-04-13T09:00:00	0.2246	8.228	186.0	0.550307205	0.668526812	0.010381998	0.107109159	0.033012083
2020-04-13T09:05:00	0.2250	8.229	185.0	0.551777693	0.670621685	0.010433075	0.107636111	0.033174495
2020-04-13T09:10:00	0.2253	8.224	186.0	0.552571181	0.671752834	0.010460689	0.107921003	0.033262301
2020-04-13T09:15:00	0.2245	8.221	186.0	0.549981398	0.668062903	0.010370698	0.106992582	0.032976153
2020-04-13T09:20:00	0.2232	8.220	185.0	0.545695637	0.661968620	0.010222639	0.105465084	0.032505363
2020-04-13T09:25:00	0.2234	8.223	185.0	0.546151685	0.662616397	0.010238343	0.105627097	0.032555297
2020-04-13T09:30:00	0.2219	8.221	185.0	0.541182584	0.655567391	0.010067891	0.103868581	0.032013305
2020-04-13T09:35:00	0.2232	8.224	186.0	0.545708303	0.661986609	0.010223075	0.105469582	0.032506749
2020-04-13T09:40:00	0.2224	8.222	186.0	0.542774231	0.657823051	0.010122331	0.104430225	0.032186410
2020-04-13T09:45:00	0.2216	8.218	186.0	0.540177120	0.654143530	0.010033578	0.103514571	0.031904196
2020-04-13T09:50:00	0.2231	8.210	186.0	0.545382064	0.661523315	0.010211849	0.105353759	0.032471052
2020-04-13T09:55:00	0.2214	8.197	185.0	0.539393481	0.653034372	0.010006875	0.103239085	0.031819289
2020-04-13T10:00:00	0.2210	8.189	186.0	0.538152621	0.651279093	0.009964666	0.102803623	0.031685075
2020-04-13T10:05:00	0.2242	8.178	186.0	0.549102689	0.666812166	0.010340254	0.106678493	0.032879348
2020-04-13T10:10:00	0.2261	8.161	186.0	0.555290140	0.675632744	0.010555593	0.108900108	0.033564071
2020-04-13T10:15:00	0.2286	8.137	186.0	0.563827318	0.687854684	0.010856406	0.112003541	0.034520579
2020-04-13T10:20:00	0.2281	8.111	186.0	0.562239783	0.685577403	0.010800143	0.111423088	0.034341678
2020-04-13T10:25:00	0.2296	8.090	186.0	0.567056952	0.692493934	0.010971325	0.113189134	0.034885990
2020-04-13T10:30:00	0.2303	8.069	186.0	0.569512207	0.696026581	0.011059101	0.114094707	0.035165097
2020-04-13T10:35:00	0.2295	8.046	186.0	0.566916904	0.692292581	0.010966329	0.113137591	0.034870104
2020-04-13T10:40:00	0.2307	8.027	185.0	0.570718381	0.697763861	0.011102353	0.114540926	0.035302626
2020-04-13T10:45:00	0.2320	8.011	185.0	0.575187872	0.704211868	0.011263373	0.116202142	0.035814629
2020-04-13T10:50:00	0.2313	8.000	185.0	0.572933045	0.700956827	0.011181992	0.115362545	0.035555857
2020-04-13T10:55:00	0.2315	7.989	185.0	0.573703689	0.702068845	0.011209772	0.115649149	0.035644191
2020-04-13T11:00:00	0.2320	7.976	185.0	0.575146309	0.704151831	0.011261870	0.116186638	0.035809850
2020-04-13T11:05:00	0.2332	7.960	185.0	0.579274531	0.710122059	0.011411637	0.117731752	0.036286069
2020-04-13T11:10:00	0.2341	7.950	185.0	0.582392003	0.714639914	0.011525405	0.118905474	0.036647822
2020-04-13T11:15:00	0.2363	7.941	184.0	0.589525030	0.725007520	0.011787888	0.121613463	0.037482450
2020-04-13T11:20:00	0.2357	7.928	183.0	0.587614257	0.722226126	0.011717278	0.120884993	0.037257929
2020-04-13T11:25:00	0.2358	7.930	183.0	0.588046893	0.722855621	0.011733246	0.121049736	0.037308704
2020-04-13T11:30:00	0.2346	7.928	184.0	0.584124796	0.717154576	0.011588890	0.119560443	0.036849690
2020-04-13T11:35:00	0.2346	7.919	183.0	0.583887514	0.716810080	0.011580186	0.119470645	0.036822013
2020-04-13T11:40:00	0.2347	7.910	183.0	0.584320608	0.717438899	0.011596075	0.119634572	0.036872537
2020-04-13T11:45:00	0.2336	7.905	183.0	0.580729873	0.712230143	0.011464676	0.118278944	0.036454719
2020-04-13T11:50:00	0.2348	7.905	183.0	0.584516409	0.717723238	0.011603263	0.119708721	0.036895390
2020-04-13T11:55:00	0.2358	7.902	183.0	0.587964071	0.722735102	0.011730188	0.121018190	0.037298981
2020-04-13T12:00:00	0.2370	7.896	183.0	0.592077279	0.728727415	0.011882542	0.122589992	0.037783426
2020-04-13T12:05:00	0.2379	7.896	182.0	0.595183439	0.733261965	0.011998262	0.123783862	0.038151389
2020-04-13T12:10:00	0.2387	7.898	183.0	0.597619129	0.736823357	0.012089408	0.124724189	0.038441206
2020-04-13T12:15:00	0.2380	7.889	183.0	0.595378638	0.733547195	0.012005554	0.123859086	0.038174573
2020-04-13T12:20:00	0.2382	7.871	183.0	0.596144380	0.734666431	0.012034179	0.124154408	0.038265594
2020-04-13T12:25:00	0.2388	7.873	183.0	0.597911721	0.737251509	0.012100380	0.124837394	0.038476097
2020-04-13T12:30:00	0.2386	7.871	183.0	0.597341452	0.736417096	0.012078999	0.124616804	0.038408109
2020-04-13T12:35:00	0.2382	7.874	183.0	0.596103064	0.734606030	0.012032634	0.124138465	0.038260680
2020-04-13T12:40:00	0.2378	7.878	183.0	0.594530063	0.732307459	0.011973873	0.123532240	0.038073836
2020-04-13T12:45:00	0.2362	7.875	183.0	0.589276664	0.724645816	0.011778697	0.121518648	0.037453228
2020-04-13T12:50:00	0.2352	7.897	183.0	0.586026004	0.719916519	0.011658751	0.120281188	0.037071830
2020-04-13T12:55:00	0.2351	7.919	183.0	0.585788851	0.719571834	0.011650025	0.120191162	0.037044084
2020-04-13T13:00:00	0.2339	7.917	183.0	0.581528819	0.713388176	0.011493846	0.118579891	0.036547474
2020-04-13T13:05:00	0.2333	7.923	184.0	0.579613696	0.710613187	0.011423986	0.117859158	0.036325337
2020-04-13T13:10:00	0.2326	7.949	184.0	0.577361714	0.707353990	0.011342116	0.117014525	0.036065013
2020-04-13T13:15:00	0.2322	7.978	183.0	0.575780311	0.705067805	0.011284805	0.116423255	0.035882778
2020-04-13T13:20:00	0.2324	7.991	184.0	0.576550329	0.706180737	0.011312693	0.116710965	0.035971453
2020-04-13T13:25:00	0.2314	7.994	184.0	0.573287866	0.701468763	0.011194778	0.115494459	0.035596514
2020-04-13T13:30:00	0.2313	8.018	184.0	0.573049850	0.701125342	0.011186200	0.115405962	0.035569238
2020-04-13T13:35:00	0.2300	8.017	184.0	0.568437640	0.694479869	0.011020641	0.113697921	0.035042804
2020-04-13T13:40:00	0.2320	7.998	184.0	0.575263041	0.704320454	0.011266091	0.116230185	0.035823272
2020-04-13T13:45:00	0.2318	7.994	184.0	0.574689090	0.703491470	0.011245345	0.116016150	0.035757304
2020-04-13T13:50:00	0.2331	8.010	184.0	0.578817849	0.709460912	0.011395019	0.117560312	0.036233230
2020-04-13T13:55:00	0.2331	7.998	184.0	0.578915905	0.709602854	0.011398586	0.117597111	0.036244572
2020-04-13T14:00:00	0.2324	7.971	184.0	0.576663475	0.706344312	0.011316793	0.116753272	0.035984492
2020-04-13T14:05:00	0.2334	7.974	184.0	0.579783266	0.710858770	0.011430163	0.117922883	0.036344978
2020-04-13T14:10:00	0.2312	7.972	184.0	0.572490582	0.700318587	0.011166057	0.115198157	0.035505191
2020-04-13T14:15:00	0.2322	7.972	184.0	0.575950067	0.705313116	0.011290950	0.116486651	0.035902317
2020-04-13T14:20:00	0.2325	7.951	184.0	0.577055921	0.706911753	0.011331023	0.116900073	0.036029738
2020-04-13T14:25:00	0.2326	7.932	184.0	0.577154026	0.707053623	0.011334581	0.116936785	0.036041053
2020-04-13T14:30:00	0.2325	7.923	184.0	0.576916272	0.706709819	0.011325958	0.116847824	0.036013634
2020-04-13T14:35:00	0.2322	7.917	184.0	0.576006650	0.705394889	0.011292999	0.116507787	0.035908831
2020-04-13T14:40:00	0.2324	7.914	183.0	0.576440717	0.706022281	0.011308721	0.116669988	0.035958823
2020-04-13T14:45:00	0.2316	7.906	184.0	0.573850547	0.702280815	0.011215070	0.115703807	0.035661037
2020-04-13T14:50:00	0.2318	7.890	184.0	0.574620989	0.703393127	0.011242885	0.115990768	0.035749481
2020-04-13T14:55:00	0.2331	7.880	184.0	0.579085509	0.709848387	0.011404757	0.117660776	0.036264194
2020-04-13T15:00:00	0.2336	7.871	183.0	0.580525918	0.711934606	0.011457235	0.118202181	0.036431060
2020-04-13T15:05:00	0.2340	7.866	183.0	0.581965736	0.714021691	0.011509814	0.118744634	0.036598250
2020-04-13T15:10:00	0.2344	7.863	183.0	0.583404965	0.716109642	0.011562496	0.119288135	0.036765762
2020-04-13T15:15:00	0.2350	7.856	183.0	0.585178704	0.718685249	0.011627590	0.119959704	0.036972746
2020-04-13T15:20:00	0.2352	7.833	183.0	0.585946664	0.719801198	0.011655832	0.120251066	0.037062546
2020-04-13T15:25:00	0.2359	7.812	183.0	0.588388739	0.723353125	0.011745871	0.121179989	0.037348850
2020-04-13T15:30:00	0.2357	7.790	183.0	0.587816929	0.722520999	0.011724757	0.120962154	0.037281711
2020-04-13T15:35:00	0.2356	7.776	183.0	0.587245026	0.721689010	0.011703658	0.120744485	0.037214623
2020-04-13T15:40:00	0.2356	7.772	183.0	0.587342847	0.721831298	0.011707266	0.120781701	0.037226093
2020-04-13T15:45:00	0.2357	7.763	183.0	0.587775516	0.722460743	0.011723228	0.120946385	0.037276851
2020-04-13T15:50:00	0.2353	7.739	183.0	0.586198794	0.720167685	0.011665111	0.120346802	0.037092053
2020-04-13T15:55:00	0.2340	7.720	183.0	0.581939259	0.713983295	0.011508846	0.118734648	0.036595172
2020-04-13T16:00:00	0.2343	7.707	183.0	0.583043229	0.715584694	0.011549243	0.119151412	0.036723622
2020-04-13T16:05:00	0.2352	7.695	183.0	0.585970645	0.719836053	0.011656714	0.120260170	0.037065352
2020-04-13T16:10:00	0.2349	7.671	183.0	0.584876589	0.718246370	0.011616490	0.119845181	0.036937449
2020-04-13T16:15:00	0.2348	7.643	182.0	0.584787696	0.718117249	0.011613224	0.119811495	0.036927066
2020-04-13T16:20:00	0.2353	7.624	182.0	0.586374041	0.720422448	0.011671563	0.120413369	0.037112570
2020-04-13T16:25:00	0.2355	7.609	183.0	0.586955076	0.721267302	0.011692969	0.120634205	0.037180633
2020-04-13T16:30:00	0.2343	7.602	182.0	0.582844877	0.715296894	0.011541980	0.119076476	0.036700526
2020-04-13T16:35:00	0.2347	7.585	183.0	0.584432099	0.717600802	0.011600168	0.119676791	0.036885549
2020-04-13T16:40:00	0.2345	7.560	183.0	0.583672807	0.716498401	0.011572313	0.119389421	0.036796979
2020-04-13T16:45:00	0.2336	7.530	183.0	0.580565478	0.711991928	0.011458678	0.118217069	0.036435649
2020-04-13T16:50:00	0.2334	7.513	183.0	0.579805350	0.710890755	0.011430967	0.117931184	0.036347536
2020-04-13T16:55:00	0.2344	7.491	183.0	0.583406029	0.716111185	0.011562534	0.119288537	0.036765886
2020-04-13T17:00:00	0.2338	7.467	183.0	0.581304964	0.713063656	0.011485669	0.118495530	0.036521473
2020-04-13T17:05:00	0.2344	7.447	183.0	0.583228165	0.715853057	0.011556017	0.119221301	0.036745163
2020-04-13T17:10:00	0.2347	7.423	183.0	0.584144916	0.717183790	0.011589628	0.119568059	0.036852037
2020-04-13T17:15:00	0.2328	7.399	182.0	0.578017411	0.708302518	0.011365923	0.117260132	0.036140711
2020-04-13T17:20:00	0.2341	7.384	182.0	0.582290702	0.714492981	0.011521699	0.118867241	0.036636038
2020-04-13T17:25:00	0.2341	7.364	182.0	0.582201743	0.714363957	0.011518445	0.118833671	0.036625692
2020-04-13T17:30:00	0.2348	7.345	182.0	0.584794756	0.718127504	0.011613484	0.119814170	0.036927891
2020-04-13T17:35:00	0.2348	7.326	182.0	0.584705860	0.717998387	0.011610219	0.119780488	0.036917510
2020-04-13T17:40:00	0.2357	7.307	183.0	0.587631893	0.722251784	0.011717928	0.120891706	0.037259998
2020-04-13T17:45:00	0.2353	7.287	182.0	0.586203385	0.720174358	0.011665280	0.120348546	0.037092591
2020-04-13T17:50:00	0.2361	7.267	182.0	0.589128174	0.724429591	0.011773204	0.121461980	0.037435762
2020-04-13T17:55:00	0.2360	7.249	182.0	0.588704657	0.723812981	0.011757545	0.121300426	0.037385969
2020-04-13T18:00:00	0.2362	7.227	181.0	0.589285307	0.724658403	0.011779017	0.121521947	0.037454244
2020-04-13T18:05:00	0.2356	7.206	182.0	0.587187751	0.721605703	0.011701546	0.120722696	0.037207908
2020-04-13T18:10:00	0.2350	7.188	182.0	0.585424020	0.719041673	0.011636608	0.120052737	0.037001419
2020-04-13T18:15:00	0.2353	7.170	181.0	0.586340199	0.720373248	0.011670317	0.120400512	0.037108607
2020-04-13T18:20:00	0.2358	7.157	181.0	0.587925845	0.722679478	0.011728777	0.121003631	0.037294494
2020-04-13T18:25:00	0.2368	7.144	181.0	0.591183732	0.727424456	0.011849359	0.122247652	0.037677914
2020-04-13T18:30:00	0.2365	7.127	181.0	0.590425895	0.726319907	0.011821253	0.121957690	0.037588545
2020-04-13T18:35:00	0.2363	7.107	181.0	0.589667894	0.725215600	0.011793176	0.121668019	0.037499265
2020-04-13T18:40:00	0.2373	7.087	181.0	0.592924172	0.729962959	0.011914036	0.122914911	0.037883569
2020-04-13T18:45:00	0.2373	7.067	181.0	0.593169820	0.730321451	0.011923179	0.123009239	0.037912642
2020-04-13T18:50:00	0.2362	7.043	181.0	0.589401570	0.724827714	0.011783319	0.121566327	0.037467923
2020-04-13T18:55:00	0.2371	7.022	181.0	0.592323706	0.729086869	0.011891701	0.122684491	0.037812552
2020-04-13T19:00:00	0.2381	6.996	181.0	0.595577534	0.733837862	0.012012986	0.123935759	0.038198205
2020-04-13T19:05:00	0.2380	6.970	181.0	0.595488910	0.733708343	0.012009674	0.123901592	0.038187674
2020-04-13T19:10:00	0.2382	6.949	181.0	0.596068445	0.734555420	0.012031339	0.124125106	0.038256563
2020-04-13T19:15:00	0.2392	6.927	181.0	0.599318827	0.739311541	0.012153221	0.125382544	0.038644118
2020-04-13T19:20:00	0.2390	6.911	181.0	0.598562733	0.738204399	0.012124813	0.125089462	0.038553787
2020-04-13T19:25:00	0.2385	6.892	181.0	0.597138646	0.736120417	0.012071400	0.124538404	0.038383946
2020-04-13T19:30:00	0.2384	6.876	181.0	0.596716090	0.735502382	0.012055574	0.124375134	0.038333624
2020-04-13T19:35:00	0.2367	6.857	181.0	0.590944993	0.727076441	0.011840501	0.122156268	0.037649748
2020-04-13T19:40:00	0.2384	6.838	181.0	0.596538897	0.735243262	0.012048941	0.124306702	0.038312533
2020-04-13T19:45:00	0.2373	6.817	181.0	0.593108590	0.730232088	0.011920900	0.122985724	0.037905394
2020-04-13T19:50:00	0.2382	6.802	179.0	0.596027658	0.734495794	0.012029814	0.124109369	0.038251713
2020-04-13T19:55:00	0.2371	6.789	180.0	0.592262460	0.728997528	0.011889425	0.122661001	0.037805312
2020-04-13T20:00:00	0.2368	6.773	180.0	0.591504855	0.727892636	0.011861279	0.122370626	0.037715815
2020-04-13T20:05:00	0.2379	6.755	178.0	0.595093595	0.733130691	0.011994907	0.123749246	0.038140720
2020-04-13T20:10:00	0.2374	6.734	180.0	0.593333816	0.730560810	0.011929285	0.123072234	0.037932058
2020-04-13T20:15:00	0.2366	6.714	180.0	0.590569593	0.726529311	0.011826580	0.122012645	0.037605482
2020-04-13T20:20:00	0.2378	6.693	179.0	0.594827680	0.732742198	0.011984979	0.123646823	0.038109152
2020-04-13T20:25:00	0.2368	6.671	179.0	0.591395708	0.727733496	0.011857227	0.122328821	0.037702931
2020-04-13T20:30:00	0.2370	6.650	179.0	0.591975915	0.728579574	0.011878775	0.122551132	0.037771449
2020-04-13T20:35:00	0.2368	6.629	179.0	0.591218248	0.727474773	0.011850640	0.122260867	0.037681986
2020-04-13T20:40:00	0.2375	6.610	179.0	0.593804632	0.731248110	0.011946824	0.123253177	0.037987826
2020-04-13T20:45:00	0.2370	6.588	180.0	0.592044211	0.728679184	0.011881313	0.122577314	0.037779519
2020-04-13T20:50:00	0.2368	6.566	180.0	0.591286558	0.727574361	0.011853175	0.122287022	0.037690048
2020-04-13T20:55:00	0.2365	6.545	180.0	0.590194153	0.725982239	0.011812666	0.121869092	0.037561238
2020-04-13T21:00:00	0.2370	6.524	180.0	0.592112505	0.728778795	0.011883851	0.122603498	0.037787589
2020-04-13T21:05:00	0.2372	6.501	180.0	0.592692594	0.729625048	0.011905420	0.122826020	0.037856172
2020-04-13T21:10:00	0.2355	6.481	178.0	0.586914904	0.721208882	0.011691488	0.120618930	0.037175926
2020-04-13T21:15:00	0.2371	6.462	178.0	0.592180798	0.728878409	0.011886389	0.122629685	0.037795660
2020-04-13T21:20:00	0.2361	6.445	178.0	0.589080976	0.724360866	0.011771459	0.121443970	0.037430211
2020-04-13T21:25:00	0.2364	6.426	178.0	0.589996204	0.725693846	0.011805333	0.121793440	0.037537921
2020-04-13T21:30:00	0.2370	6.410	178.0	0.591914664	0.728490242	0.011876499	0.122527654	0.037764213
2020-04-13T21:35:00	0.2369	6.391	178.0	0.591825948	0.728360860	0.011873203	0.122493651	0.037753733
2020-04-13T21:40:00	0.2369	6.375	178.0	0.591737230	0.728231481	0.011869908	0.122459653	0.037743254
2020-04-13T21:45:00	0.2368	6.360	178.0	0.591314026	0.727614407	0.011854195	0.122297540	0.037693290
2020-04-13T21:50:00	0.2366	6.346	178.0	0.590556216	0.726509817	0.011826084	0.122007528	0.037603905
2020-04-13T21:55:00	0.2366	6.332	178.0	0.590802030	0.726868064	0.011835199	0.122101562	0.037632887
2020-04-13T22:00:00	0.2349	6.317	178.0	0.585021235	0.718456486	0.011621804	0.119900005	0.036954346
2020-04-13T22:05:00	0.2349	6.299	178.0	0.584938343	0.718336072	0.011618758	0.119868586	0.036944662
2020-04-13T22:10:00	0.2332	6.280	178.0	0.579153903	0.709947407	0.011407246	0.117686455	0.036272108
2020-04-13T22:15:00	0.2336	6.263	178.0	0.580748797	0.712257567	0.011465366	0.118286068	0.036456915
2020-04-13T22:20:00	0.2333	6.247	178.0	0.579659120	0.710678972	0.011425641	0.117876227	0.036330598
2020-04-13T22:25:00	0.2345	6.230	178.0	0.583601197	0.716394457	0.011569688	0.119362337	0.036788631
2020-04-13T22:30:00	0.2337	6.211	179.0	0.580835322	0.712382957	0.011468523	0.118318643	0.036466955
2020-04-13T22:35:00	0.2346	6.191	178.0	0.584105776	0.717126960	0.011588192	0.119553243	0.036847471
2020-04-13T22:40:00	0.2340	6.165	179.0	0.582011131	0.714087520	0.011511474	0.118761757	0.036603527
2020-04-13T22:45:00	0.2346	6.143	178.0	0.583939945	0.716886198	0.011582109	0.119490484	0.036828128
2020-04-13T22:50:00	0.2344	6.124	178.0	0.583186546	0.715792661	0.011554493	0.119205571	0.036740315
2020-04-13T22:55:00	0.2347	6.102	178.0	0.584444475	0.717618773	0.011600622	0.119681477	0.036886994
2020-04-13T23:00:00	0.2340	6.077	178.0	0.582014664	0.714092643	0.011511603	0.118763090	0.036603938
2020-04-13T23:05:00	0.2347	6.050	178.0	0.584278660	0.717377987	0.011594536	0.119618690	0.036867642
2020-04-13T23:10:00	0.2341	6.028	178.0	0.582184118	0.714338395	0.011517800	0.118827021	0.036623642
2020-04-13T23:15:00	0.2339	6.004	178.0	0.581765766	0.713731722	0.011502505	0.118669220	0.036575006
2020-04-13T23:20:00	0.2345	5.982	178.0	0.583694715	0.716530202	0.011573116	0.119397707	0.036799533
2020-04-13T23:25:00	0.2334	5.958	178.0	0.579922306	0.711060155	0.011435229	0.117975148	0.036361086
2020-04-13T23:30:00	0.2326	5.937	178.0	0.577153531	0.707052908	0.011334563	0.116936600	0.036040996
2020-04-13T23:35:00	0.2322	5.910	177.0	0.576062738	0.705475949	0.011295030	0.116528739	0.035915289
2020-04-13T23:40:00	0.2332	5.878	177.0	0.579337637	0.710213433	0.011413934	0.117755452	0.036293374
2020-04-13T23:45:00	0.2334	5.855	177.0	0.579925841	0.711065275	0.011435358	0.117976477	0.036361496
2020-04-13T23:50:00	0.2329	5.838	177.0	0.578164470	0.708515301	0.011371266	0.117315252	0.036157700
2020-04-13T23:55:00	0.2329	5.820	178.0	0.578417159	0.708880966	0.011380449	0.117409996	0.036186901
2020-04-14T00:00:00	0.2326	5.804	177.0	0.577326758	0.707303432	0.011340848	0.117001439	0.036060980
2020-04-14T00:05:00	0.2326	5.787	177.0	0.577243683	0.707183285	0.011337834	0.116970342	0.036051395
2020-04-14T00:10:00	0.2331	5.766	176.0	0.578839445	0.709492173	0.011395805	0.117568416	0.036235728
2020-04-14T00:15:00	0.2313	5.746	177.0	0.573044937	0.701118254	0.011186023	0.115404136	0.035568675
2020-04-14T00:20:00	0.2327	5.733	177.0	0.577666111	0.707794285	0.011353165	0.117128511	0.036100145
2020-04-14T00:25:00	0.2319	5.723	176.0	0.574895554	0.703789644	0.011252806	0.116093120	0.035781027
2020-04-14T00:30:00	0.2304	5.706	176.0	0.569767694	0.696394464	0.011068255	0.114189149	0.035194205
2020-04-14T00:35:00	0.2311	5.689	176.0	0.572375930	0.700153231	0.011161930	0.115155579	0.035492068
2020-04-14T00:40:00	0.2300	5.669	176.0	0.568591317	0.694701010	0.011026137	0.113754624	0.035060280
2020-04-14T00:45:00	0.2319	5.645	176.0	0.574899094	0.703794757	0.011252933	0.116094440	0.035781434
2020-04-14T00:50:00	0.2313	5.629	176.0	0.572798945	0.700763374	0.011177161	0.115312710	0.035540497
2020-04-14T00:55:00	0.2303	5.607	176.0	0.569687985	0.696279683	0.011065399	0.114159680	0.035185122
2020-04-14T01:00:00	0.2301	5.580	176.0	0.568931518	0.695190628	0.011038309	0.113880199	0.035098983
2020-04-14T01:05:00	0.2303	5.563	176.0	0.569521471	0.696039919	0.011059433	0.114098130	0.035166152
2020-04-14T01:10:00	0.2296	5.548	175.0	0.567081291	0.692528929	0.010972193	0.113198093	0.034888752
2020-04-14T01:15:00	0.2297	5.535	174.0	0.567671557	0.693377767	0.010993264	0.113415474	0.034955751
2020-04-14T01:20:00	0.2301	5.514	175.0	0.568935064	0.695195732	0.011038436	0.113881508	0.035099387
2020-04-14T01:25:00	0.2306	5.498	175.0	0.570534614	0.697499099	0.011095758	0.114472885	0.035281655
2020-04-14T01:30:00	0.2303	5.475	176.0	0.569441757	0.695925146	0.011056577	0.114068671	0.035157072
2020-04-14T01:35:00	0.2297	5.457	176.0	0.567675104	0.693382869	0.010993390	0.113416781	0.034956154
2020-04-14T01:40:00	0.2291	5.438	176.0	0.565570613	0.690357793	0.010918361	0.112642713	0.034717578
2020-04-14T01:45:00	0.2295	5.417	176.0	0.566834879	0.692174659	0.010963403	0.113107408	0.034860802
2020-04-14T01:50:00	0.2302	5.397	176.0	0.569108697	0.695445664	0.011044651	0.113945627	0.035119149
2020-04-14T01:55:00	0.2290	5.376	175.0	0.565320545	0.689998579	0.010909462	0.112550913	0.034689284
2020-04-14T02:00:00	0.2290	5.351	175.0	0.565237184	0.689878846	0.010906497	0.112520319	0.034679855
2020-04-14T02:05:00	0.2286	5.335	175.0	0.563805553	0.687823448	0.010855634	0.111995573	0.034518123
2020-04-14T02:10:00	0.2288	5.323	175.0	0.564396373	0.688671485	0.010876610	0.112211979	0.034584822
2020-04-14T02:15:00	0.2291	5.310	175.0	0.565324094	0.690003677	0.010909589	0.112552215	0.034689686
2020-04-14T02:20:00	0.2290	5.297	175.0	0.565240734	0.689883945	0.010906623	0.112521622	0.034680257
2020-04-14T02:25:00	0.2291	5.288	175.0	0.565494358	0.690248250	0.010915647	0.112614715	0.034708949
2020-04-14T02:30:00	0.2290	5.275	175.0	0.565074008	0.689644488	0.010900694	0.112460446	0.034661402
2020-04-14T02:35:00	0.2287	5.264	176.0	0.563979442	0.688073011	0.010861805	0.112059243	0.034537747
2020-04-14T02:40:00	0.2284	5.244	180.0	0.563221737	0.686985747	0.010834927	0.111781940	0.034452280
2020-04-14T02:45:00	0.2286	5.234	175.0	0.563812655	0.687833641	0.010855886	0.111998173	0.034518925
2020-04-14T02:50:00	0.2284	5.226	175.0	0.563054915	0.686746430	0.010829013	0.111720934	0.034433477
2020-04-14T02:55:00	0.2281	5.212	174.0	0.561959715	0.685175867	0.010790233	0.111320845	0.034310165
2020-04-14T03:00:00	0.2273	5.198	174.0	0.559514242	0.681672525	0.010703896	0.110430117	0.034035635
2020-04-14T03:05:00	0.2268	5.184	174.0	0.557742556	0.679137514	0.010641566	0.109787077	0.033837443
2020-04-14T03:10:00	0.2263	5.168	174.0	0.555969969	0.676603798	0.010579390	0.109145617	0.033639739
2020-04-14T03:15:00	0.2266	5.150	174.0	0.556899935	0.677932759	0.010611987	0.109481913	0.033743389
2020-04-14T03:20:00	0.2256	5.132	169.0	0.553774763	0.673469578	0.010502646	0.108353863	0.033395713
2020-04-14T03:25:00	0.2265	5.122	174.0	0.556732810	0.677693877	0.010606125	0.109421438	0.033724750
2020-04-14T03:30:00	0.2264	5.109	174.0	0.556311402	0.677091638	0.010591352	0.109269026	0.033677775
2020-04-14T03:35:00	0.2260	5.094	173.0	0.554876100	0.675041523	0.010541113	0.108750721	0.033518028
2020-04-14T03:40:00	0.2257	5.080	174.0	0.554116412	0.673957109	0.010514571	0.108476895	0.033433633
2020-04-14T03:45:00	0.2260	5.072	174.0	0.555046874	0.675285360	0.010547084	0.108812324	0.033537015
2020-04-14T03:50:00	0.2264	5.042	173.0	0.556314961	0.677096723	0.010591477	0.109270312	0.033678171
2020-04-14T03:55:00	0.2269	4.949	173.0	0.557920305	0.679391728	0.010647811	0.109851505	0.033857301
2020-04-14T04:00:00	0.2261	4.882	173.0	0.555471994	0.675892464	0.010561956	0.108965754	0.033584304
2020-04-14T04:05:00	0.2263	4.875	173.0	0.555962506	0.676593136	0.010579129	0.109142920	0.033638908
2020-04-14T04:10:00	0.2259	4.882	172.0	0.554763317	0.674880502	0.010537171	0.108710047	0.033505492
2020-04-14T04:15:00	0.2260	4.884	172.0	0.554915952	0.675098423	0.010542506	0.108765095	0.033522459
2020-04-14T04:20:00	0.2263	4.880	172.0	0.556082368	0.676764383	0.010583327	0.109186235	0.033652258
2020-04-14T04:25:00	0.2260	4.874	172.0	0.554883220	0.675051690	0.010541362	0.108753289	0.033518820
2020-04-14T04:30:00	0.2255	4.871	172.0	0.553345529	0.672857198	0.010487673	0.108199392	0.033348103
2020-04-14T04:35:00	0.2258	4.870	172.0	0.554512472	0.674522405	0.010528405	0.108619610	0.033477619
2020-04-14T04:40:00	0.2254	4.867	172.0	0.552974617	0.672328148	0.010474744	0.108065998	0.033306990
2020-04-14T04:45:00	0.2261	4.861	172.0	0.555493697	0.675923461	0.010562716	0.108973589	0.033586719
2020-04-14T04:50:00	0.2260	4.858	172.0	0.554970388	0.675176149	0.010544410	0.108784732	0.033528511
2020-04-14T04:55:00	0.2254	4.855	172.0	0.553094582	0.672499247	0.010478925	0.108109133	0.033320285
2020-04-14T05:00:00	0.2272	4.850	172.0	0.558991194	0.680923854	0.010685475	0.110240076	0.033977062
2020-04-14T05:05:00	0.2278	4.845	167.0	0.561168555	0.684041926	0.010762263	0.111032278	0.034221227
2020-04-14T05:10:00	0.2284	4.837	172.0	0.563007364	0.686678220	0.010827328	0.111703548	0.034428118
2020-04-14T05:15:00	0.2295	4.831	172.0	0.566866812	0.692220566	0.010964542	0.113119158	0.034864423
2020-04-14T05:20:00	0.2297	4.826	172.0	0.567355724	0.692923543	0.010981987	0.113299134	0.034919893
2020-04-14T05:25:00	0.2292	4.825	172.0	0.565823526	0.690721146	0.010927364	0.112735596	0.034746206
2020-04-14T05:30:00	0.2309	4.820	172.0	0.571698680	0.699176694	0.011137568	0.114904238	0.035414602
2020-04-14T05:35:00	0.2321	4.822	172.0	0.575548553	0.704732935	0.011276419	0.116336732	0.035856111
2020-04-14T05:40:00	0.2316	4.816	172.0	0.574019940	0.702525330	0.011221182	0.115766868	0.035680473
2020-04-14T05:45:00	0.2321	4.813	172.0	0.575516015	0.704685923	0.011275241	0.116324586	0.035852367
2020-04-14T05:50:00	0.2325	4.813	172.0	0.577011452	0.706847448	0.011329410	0.116883434	0.036024609
2020-04-14T05:55:00	0.2339	4.811	172.0	0.581526425	0.713384706	0.011493759	0.118578989	0.036547196
2020-04-14T06:00:00	0.2346	4.801	172.0	0.584025025	0.717009720	0.011585230	0.119522681	0.036838051
2020-04-14T06:05:00	0.2342	4.801	172.0	0.582500099	0.714796713	0.011529360	0.118946279	0.036660398
2020-04-14T06:10:00	0.2338	4.807	172.0	0.581309979	0.713070926	0.011485852	0.118497420	0.036522056
2020-04-14T06:15:00	0.2351	4.815	172.0	0.585484398	0.719129404	0.011638828	0.120075640	0.037008478
2020-04-14T06:20:00	0.2364	4.819	172.0	0.589988510	0.725682637	0.011805048	0.121790500	0.037537015
2020-04-14T06:25:00	0.2364	4.822	172.0	0.590139617	0.725902782	0.011810645	0.121848247	0.037554813
2020-04-14T06:30:00	0.2358	4.825	172.0	0.587947765	0.722711373	0.011729586	0.121011979	0.037297067
2020-04-14T06:35:00	0.2359	4.835	172.0	0.588433747	0.723418635	0.011747534	0.121197144	0.037354137
2020-04-14T06:40:00	0.2356	4.841	171.0	0.587245633	0.721689893	0.011703681	0.120744716	0.037214694
2020-04-14T06:45:00	0.2365	4.846	172.0	0.590409410	0.726295886	0.011820642	0.121951387	0.037586602
2020-04-14T06:50:00	0.2361	4.853	172.0	0.588887248	0.724078802	0.011764295	0.121370063	0.037407432
2020-04-14T06:55:00	0.2364	4.866	172.0	0.590042404	0.725761153	0.011807044	0.121811095	0.037543362
2020-04-14T07:00:00	0.2360	4.881	172.0	0.588520084	0.723544303	0.011750724	0.121230054	0.037364280
2020-04-14T07:05:00	0.2360	4.910	172.0	0.588671254	0.723764355	0.011756311	0.121287689	0.037382044
2020-04-14T07:10:00	0.2365	4.929	173.0	0.590495698	0.726421626	0.011823841	0.121984383	0.037596772
2020-04-14T07:15:00	0.2345	4.957	172.0	0.583613955	0.716412975	0.011570156	0.119367162	0.036790118
2020-04-14T07:20:00	0.2362	4.973	172.0	0.589459415	0.724911958	0.011785459	0.121588411	0.037474729
2020-04-14T07:25:00	0.2359	5.002	172.0	0.588271647	0.723182704	0.011741546	0.121135366	0.037335096
2020-04-14T07:30:00	0.2359	5.033	173.0	0.588422827	0.723402740	0.011747131	0.121192982	0.037352854
2020-04-14T07:35:00	0.2356	5.071	173.0	0.587234709	0.721674004	0.011703278	0.120740560	0.037213413
2020-04-14T07:40:00	0.2350	5.116	173.0	0.585376127	0.718972084	0.011634847	0.120034571	0.036995821
2020-04-14T07:45:00	0.2360	5.162	173.0	0.588541583	0.723575597	0.011751518	0.121238250	0.037366806
2020-04-14T07:50:00	0.2365	5.189	174.0	0.590366094	0.726232768	0.011819037	0.121934825	0.037581497
2020-04-14T07:55:00	0.2360	5.227	174.0	0.588509164	0.723528408	0.011750321	0.121225892	0.037362997
2020-04-14T08:00:00	0.2360	5.273	174.0	0.588660334	0.723748459	0.011755907	0.121283526	0.037380760
2020-04-14T08:05:00	0.2364	5.320	175.0	0.590150191	0.725918187	0.011811037	0.121852289	0.037556059
2020-04-14T08:10:00	0.2370	5.333	174.0	0.591973870	0.728576591	0.011878699	0.122550348	0.037771208
2020-04-14T08:15:00	0.2363	5.357	174.0	0.589783158	0.725383494	0.011797443	0.121712045	0.037512834
2020-04-14T08:20:00	0.2366	5.351	173.0	0.590603470	0.726578681	0.011827836	0.122025602	0.037609476
2020-04-14T08:25:00	0.2365	5.390	175.0	0.590419983	0.726311292	0.011821034	0.121955430	0.037587848
2020-04-14T08:30:00	0.2360	5.454	175.0	0.588563081	0.723606890	0.011752313	0.121246446	0.037369332
2020-04-14T08:35:00	0.2351	5.534	176.0	0.585700246	0.719443066	0.011646766	0.120157536	0.037033720
2020-04-14T08:40:00	0.2357	5.576	176.0	0.587526229	0.722098063	0.011714030	0.120851487	0.037247602
2020-04-14T08:45:00	0.2368	5.622	176.0	0.591358807	0.727679696	0.011855857	0.122314689	0.037698575
2020-04-14T08:50:00	0.2369	5.634	176.0	0.591509855	0.727899927	0.011861464	0.122372541	0.037716406
2020-04-14T08:55:00	0.2375	5.700	176.0	0.593667123	0.731047355	0.011941700	0.123200316	0.037971534
2020-04-14T09:00:00	0.2354	5.766	176.0	0.586791580	0.721029542	0.011686944	0.120572043	0.037161475
2020-04-14T09:05:00	0.2360	5.844	175.0	0.588616997	0.723685374	0.011754305	0.121267002	0.037375668
2020-04-14T09:10:00	0.2364	5.849	176.0	0.590106872	0.725855075	0.011809432	0.121835732	0.037550956
2020-04-14T09:15:00	0.2350	5.893	176.0	0.585235404	0.718767625	0.011629674	0.119981203	0.036979372
2020-04-14T09:20:00	0.2366	5.965	176.0	0.590743638	0.726782960	0.011833033	0.122079221	0.037626002
2020-04-14T09:25:00	0.2375	5.962	176.0	0.593570008	0.730905581	0.011938082	0.123162990	0.037960030
2020-04-14T09:30:00	0.2378	5.952	176.0	0.594723632	0.732590204	0.011981096	0.123606758	0.038096803
2020-04-14T09:35:00	0.2356	6.037	177.0	0.587180431	0.721595055	0.011701276	0.120719912	0.037207049
2020-04-14T09:40:00	0.2360	6.189	178.0	0.588670913	0.723763858	0.011756298	0.121287559	0.037382004
2020-04-14T09:45:00	0.2355	6.232	178.0	0.587148000	0.721547885	0.011700081	0.120707576	0.037203247
2020-04-14T09:50:00	0.2365	6.270	177.0	0.590311864	0.726153749	0.011817027	0.121914091	0.037575107
2020-04-14T09:55:00	0.2353	6.372	179.0	0.586445708	0.720526641	0.011674203	0.120440596	0.037120961
2020-04-14T10:00:00	0.2351	6.395	178.0	0.585591982	0.719285736	0.011642784	0.120116455	0.037021058
2020-04-14T10:05:00	0.2355	6.351	178.0	0.587077143	0.721444830	0.011697468	0.120680626	0.037194941
2020-04-14T10:10:00	0.2357	6.432	178.0	0.587557254	0.722143197	0.011715174	0.120863295	0.037251241
2020-04-14T10:15:00	0.2369	6.450	179.0	0.591718289	0.728203860	0.011869205	0.122452395	0.037741017
2020-04-14T10:20:00	0.2373	6.369	178.0	0.592866534	0.729878852	0.011911891	0.122892784	0.037876750
2020-04-14T10:25:00	0.2368	6.435	179.0	0.591339448	0.727651470	0.011855138	0.122307275	0.037696290
2020-04-14T10:30:00	0.2355	6.510	179.0	0.587133548	0.721526866	0.011699548	0.120702079	0.037201553
2020-04-14T10:35:00	0.2369	6.427	178.0	0.591629568	0.728074485	0.011865910	0.122418401	0.037730540
2020-04-14T10:40:00	0.2360	6.509	179.0	0.588763234	0.723898256	0.011759710	0.121322764	0.037392854
2020-04-14T10:45:00	0.2367	6.659	180.0	0.590916196	0.727034467	0.011839433	0.122145248	0.037646352
2020-04-14T10:50:00	0.2370	6.681	180.0	0.592064703	0.728709073	0.011882074	0.122585171	0.037781940
2020-04-14T10:55:00	0.2379	6.650	180.0	0.594884036	0.732824528	0.011987083	0.123668526	0.038115841
2020-04-14T11:00:00	0.2371	6.724	180.0	0.592354764	0.729132176	0.011892856	0.122696403	0.037816223
2020-04-14T11:05:00	0.2362	6.814	180.0	0.589489020	0.724955074	0.011786555	0.121599714	0.037478213
2020-04-14T11:10:00	0.2358	6.938	180.0	0.587960469	0.722729859	0.011730055	0.121016818	0.037298558
2020-04-14T11:15:00	0.2368	6.989	181.0	0.591452119	0.727815744	0.011859321	0.122350426	0.037709590
2020-04-14T11:20:00	0.2362	6.991	181.0	0.589255094	0.724614406	0.011777899	0.121510416	0.037450690
2020-04-14T11:25:00	0.2352	7.144	182.0	0.586051844	0.719954077	0.011659702	0.120290999	0.037074854
2020-04-14T11:30:00	0.2331	7.274	183.0	0.578819712	0.709463609	0.011395087	0.117561011	0.036233445
2020-04-14T11:35:00	0.2342	7.344	183.0	0.582655782	0.715022554	0.011535057	0.119005060	0.036678515
2020-04-14T11:40:00	0.2353	7.365	183.0	0.586487669	0.720587646	0.011675748	0.120456539	0.037125875
2020-04-14T11:45:00	0.2375	7.415	183.0	0.593659741	0.731036576	0.011941425	0.123197478	0.037970659
2020-04-14T11:50:00	0.2352	7.482	183.0	0.586108265	0.720036088	0.011661779	0.120312423	0.037081457
2020-04-14T11:55:00	0.2341	7.574	184.0	0.582231485	0.714407093	0.011519533	0.118844894	0.036629151
2020-04-14T12:00:00	0.2341	7.596	184.0	0.582376924	0.714618042	0.011524853	0.118899783	0.036646068
2020-04-14T12:05:00	0.2350	7.729	185.0	0.585204018	0.718722026	0.011628520	0.119969302	0.036975704
2020-04-14T12:10:00	0.2351	7.803	185.0	0.585684384	0.719420015	0.011646182	0.120151517	0.037031864
2020-04-14T12:15:00	0.2354	7.851	185.0	0.586499657	0.720605076	0.011676189	0.120461094	0.037127279
2020-04-14T12:20:00	0.2349	7.918	185.0	0.584969807	0.718381778	0.011619914	0.119880512	0.036948338
2020-04-14T12:25:00	0.2355	7.882	185.0	0.587125089	0.721514563	0.011699236	0.120698861	0.037200561
2020-04-14T12:30:00	0.2354	7.859	185.0	0.586600495	0.720751690	0.011679904	0.120499413	0.037139089
2020-04-14T12:35:00	0.2353	7.917	185.0	0.586410805	0.720475895	0.011672917	0.120427335	0.037116874
2020-04-14T12:40:00	0.2349	7.969	185.0	0.584880916	0.718252655	0.011616649	0.119846821	0.036937954
2020-04-14T12:45:00	0.2348	8.026	185.0	0.584691133	0.717976996	0.011609678	0.119774908	0.036915790
2020-04-14T12:50:00	0.2331	8.013	185.0	0.578799219	0.709433944	0.011394341	0.117553320	0.036231075
2020-04-14T12:55:00	0.2353	7.981	185.0	0.586321950	0.720346718	0.011669645	0.120393580	0.037106471
2020-04-14T13:00:00	0.2345	7.995	185.0	0.583786521	0.716663470	0.011576482	0.119432436	0.036810237
2020-04-14T13:05:00	0.2356	7.980	185.0	0.587282311	0.721743243	0.011705033	0.120758669	0.037218995
2020-04-14T13:10:00	0.2349	7.941	185.0	0.585082683	0.718545751	0.011624061	0.119923299	0.036961525
2020-04-14T13:15:00	0.2349	7.898	185.0	0.584892910	0.718270077	0.011617089	0.119851367	0.036939355
2020-04-14T13:20:00	0.2357	7.876	185.0	0.587717984	0.722377037	0.011721105	0.120924481	0.037270099
2020-04-14T13:25:00	0.2351	7.858	185.0	0.585518628	0.719179143	0.011640086	0.120088625	0.037012481
2020-04-14T13:30:00	0.2338	7.851	185.0	0.581305761	0.713064812	0.011485698	0.118495831	0.036521566
2020-04-14T13:35:00	0.2353	7.838	185.0	0.586479208	0.720575345	0.011675436	0.120453324	0.037124884
2020-04-14T13:40:00	0.2350	7.832	185.0	0.585284438	0.718838865	0.011631476	0.119999797	0.036985103
2020-04-14T13:45:00	0.2337	7.886	185.0	0.581071291	0.712724947	0.011477137	0.118407502	0.036494342
2020-04-14T13:50:00	0.2335	7.903	186.0	0.580210253	0.711477265	0.011445724	0.118083424	0.036394458
2020-04-14T13:55:00	0.2347	7.867	186.0	0.584379979	0.717525114	0.011598254	0.119657054	0.036879466
2020-04-14T14:00:00	0.2345	7.802	186.0	0.583519752	0.716276241	0.011566702	0.119331536	0.036779138
2020-04-14T14:05:00	0.2356	7.739	185.0	0.587350698	0.721842718	0.011707555	0.120784689	0.037227014
2020-04-14T14:10:00	0.2363	7.693	185.0	0.589504523	0.724977653	0.011787129	0.121605633	0.037480037
2020-04-14T14:15:00	0.2362	7.643	185.0	0.589314989	0.724701627	0.011780115	0.121533277	0.037457736
2020-04-14T14:20:00	0.2364	7.616	184.0	0.590129422	0.725887929	0.011810267	0.121844351	0.037553612
2020-04-14T14:25:00	0.2364	7.596	184.0	0.589939921	0.725611853	0.011803248	0.121771934	0.037531293
2020-04-14T14:30:00	0.2369	7.565	184.0	0.591757724	0.728261367	0.011870669	0.122467506	0.037745675
2020-04-14T14:35:00	0.2356	7.517	184.0	0.587217451	0.721648901	0.011702641	0.120733994	0.037211390
2020-04-14T14:40:00	0.2355	7.466	184.0	0.587027793	0.721373057	0.011695649	0.120661857	0.037189156
2020-04-14T14:45:00	0.2343	7.437	184.0	0.582816736	0.715256064	0.011540949	0.119065846	0.036697250
2020-04-14T14:50:00	0.2344	7.405	184.0	0.583297428	0.715953573	0.011558555	0.119247481	0.036753232
2020-04-14T14:55:00	0.2341	7.370	183.0	0.582436936	0.714705090	0.011527049	0.118922435	0.036653049
2020-04-14T15:00:00	0.2345	7.319	183.0	0.583588212	0.716375609	0.011569212	0.119357426	0.036787118
2020-04-14T15:05:00	0.2348	7.291	183.0	0.584739111	0.718046681	0.011611440	0.119793086	0.036921393
2020-04-14T15:10:00	0.2343	7.271	183.0	0.582873209	0.715337999	0.011543017	0.119087178	0.036703825
2020-04-14T15:15:00	0.2348	7.236	183.0	0.584694663	0.717982123	0.011609808	0.119776246	0.036916202
2020-04-14T15:20:00	0.2332	7.213	183.0	0.579138430	0.709925005	0.011406683	0.117680645	0.036270318
2020-04-14T15:25:00	0.2335	7.195	183.0	0.580290787	0.711593936	0.011448660	0.118113716	0.036403794
2020-04-14T15:30:00	0.2340	7.166	183.0	0.582113579	0.714236094	0.011515220	0.118800406	0.036615439
2020-04-14T15:35:00	0.2330	7.135	182.0	0.578568117	0.709099442	0.011385937	0.117466615	0.036204352
2020-04-14T15:40:00	0.2325	7.109	182.0	0.577034809	0.706881223	0.011330257	0.116892173	0.036027303
2020-04-14T15:45:00	0.2319	7.079	182.0	0.574828751	0.703693165	0.011250391	0.116068213	0.035773351
2020-04-14T15:50:00	0.2329	7.060	182.0	0.578333463	0.708759845	0.011377407	0.117378611	0.036177228
2020-04-14T15:55:00	0.2337	7.042	182.0	0.580828331	0.712372825	0.011468268	0.118316010	0.036466143
2020-04-14T16:00:00	0.2329	7.009	182.0	0.578288934	0.708695406	0.011375789	0.117361914	0.036172082
2020-04-14T16:05:00	0.2318	6.974	182.0	0.574695028	0.703500046	0.011245559	0.116018364	0.035757986
2020-04-14T16:10:00	0.2321	6.939	182.0	0.575468291	0.704616973	0.011273515	0.116306774	0.035846877
2020-04-14T16:15:00	0.2322	6.908	180.0	0.575905431	0.705248612	0.011289334	0.116469980	0.035897179
2020-04-14T16:20:00	0.2322	6.886	180.0	0.576006574	0.705394779	0.011292996	0.116507758	0.035908823
2020-04-14T16:25:00	0.2314	6.864	180.0	0.573082869	0.701172980	0.011187390	0.115418237	0.035573021
2020-04-14T16:30:00	0.2310	6.855	181.0	0.571838917	0.699378874	0.011142611	0.114956260	0.035430636
2020-04-14T16:35:00	0.2320	6.854	181.0	0.575302052	0.704376809	0.011267502	0.116244740	0.035827758
2020-04-14T16:40:00	0.2305	6.847	182.0	0.570359336	0.697246594	0.011089469	0.114408006	0.035261659
2020-04-14T16:45:00	0.2316	6.833	181.0	0.573823933	0.702242399	0.011214110	0.115693901	0.035657984
2020-04-14T16:50:00	0.2318	6.808	181.0	0.574597388	0.703359046	0.011242032	0.115981972	0.035746770
2020-04-14T16:55:00	0.2306	6.784	181.0	0.570663237	0.697684409	0.011100373	0.114520507	0.035296332
2020-04-14T17:00:00	0.2320	6.757	181.0	0.575135804	0.704136657	0.011261490	0.116182719	0.035808642
2020-04-14T17:05:00	0.2319	6.733	181.0	0.574900921	0.703797396	0.011253000	0.116095122	0.035781644
2020-04-14T17:10:00	0.2316	6.706	181.0	0.573993783	0.702487572	0.011220238	0.115757130	0.035677472
2020-04-14T17:15:00	0.2319	6.679	181.0	0.574767201	0.703604273	0.011248167	0.116045267	0.035766278
2020-04-14T17:20:00	0.2327	6.656	181.0	0.577555888	0.707634843	0.011349164	0.117087230	0.036087421
2020-04-14T17:25:00	0.2326	6.634	181.0	0.577321166	0.707295345	0.011340645	0.116999346	0.036060335
2020-04-14T17:30:00	0.2330	6.617	181.0	0.578765304	0.709384851	0.011393108	0.117540594	0.036227153
2020-04-14T17:35:00	0.2331	6.593	180.0	0.578866364	0.709531140	0.011396784	0.117578518	0.036238841
2020-04-14T17:40:00	0.2325	6.567	180.0	0.576952792	0.706762626	0.011327283	0.116861487	0.036017845
2020-04-14T17:45:00	0.2335	6.541	181.0	0.580410882	0.711767930	0.011453039	0.118158896	0.036417719
2020-04-14T17:50:00	0.2340	6.515	181.0	0.581853749	0.713859297	0.011505720	0.118702397	0.036585232
2020-04-14T17:55:00	0.2335	6.489	180.0	0.580277371	0.711574500	0.011448171	0.118108670	0.036402239
2020-04-14T18:00:00	0.2335	6.460	180.0	0.580378388	0.711720852	0.011451854	0.118146671	0.036413951
2020-04-14T18:05:00	0.2349	6.429	180.0	0.584838595	0.718191182	0.011615094	0.119830783	0.036933011
2020-04-14T18:10:00	0.2328	6.399	180.0	0.577895219	0.708125728	0.011361485	0.117214342	0.036126599
2020-04-14T18:15:00	0.2350	6.367	180.0	0.585375444	0.718971092	0.011634822	0.120034312	0.036995741
2020-04-14T18:20:00	0.2357	6.335	180.0	0.587820911	0.722526793	0.011724904	0.120963670	0.037282178
2020-04-14T18:25:00	0.2352	6.304	180.0	0.585912211	0.719751122	0.011654564	0.120237987	0.037058515
2020-04-14T18:30:00	0.2352	6.272	179.0	0.586013066	0.719897712	0.011658275	0.120276276	0.037070316
2020-04-14T18:35:00	0.2358	6.240	179.0	0.588123304	0.722966817	0.011736067	0.121078845	0.037317676
2020-04-14T18:40:00	0.2359	6.204	179.0	0.588224096	0.723113500	0.011739790	0.121117247	0.037329512
2020-04-14T18:45:00	0.2354	6.169	179.0	0.586650572	0.720824503	0.011681748	0.120518445	0.037144955
2020-04-14T18:50:00	0.2347	6.135	178.0	0.584406096	0.717563041	0.011599213	0.119666944	0.036882514
2020-04-14T18:55:00	0.2353	6.099	177.0	0.586182327	0.720143748	0.011664505	0.120340549	0.037090126
2020-04-14T19:00:00	0.2358	6.065	177.0	0.587957662	0.722725776	0.011729952	0.121015749	0.037298229
2020-04-14T19:05:00	0.2353	6.029	177.0	0.586384019	0.720436954	0.011671931	0.120417159	0.037113738
2020-04-14T19:10:00	0.2346	5.990	177.0	0.584139374	0.717175743	0.011589425	0.119565961	0.036851390
2020-04-14T19:15:00	0.2360	5.953	177.0	0.588594817	0.723653086	0.011753486	0.121258545	0.037373061
2020-04-14T19:20:00	0.2374	5.920	177.0	0.593378951	0.730626689	0.011930966	0.123089574	0.037937402
2020-04-14T19:25:00	0.2366	5.885	177.0	0.590804227	0.726871267	0.011835280	0.122102403	0.037633146
2020-04-14T19:30:00	0.2362	5.849	171.0	0.589231856	0.724580567	0.011777040	0.121501547	0.037447957
2020-04-14T19:35:00	0.2383	5.815	176.0	0.596354053	0.734972982	0.012042023	0.124235335	0.038290537
2020-04-14T19:40:00	0.2381	5.783	176.0	0.595786522	0.734143312	0.012020797	0.124016349	0.038223043
2020-04-14T19:45:00	0.2383	5.748	176.0	0.596221145	0.734778661	0.012037051	0.124184034	0.038274725
2020-04-14T19:50:00	0.2388	5.712	176.0	0.597991435	0.737368169	0.012103371	0.124868245	0.038485606
2020-04-14T19:55:00	0.2385	5.677	176.0	0.597090231	0.736049597	0.012069586	0.124519691	0.038378178
2020-04-14T20:00:00	0.2374	5.643	175.0	0.593181180	0.730338031	0.011923602	0.123013603	0.037913987
2020-04-14T20:05:00	0.2371	5.609	174.0	0.592278747	0.729021286	0.011890030	0.122667248	0.037807237
2020-04-14T20:10:00	0.2376	5.573	175.0	0.594051015	0.731607854	0.011956007	0.123347921	0.038017027
2020-04-14T20:15:00	0.2377	5.539	175.0	0.594485851	0.732242885	0.011972224	0.123515223	0.038068591
2020-04-14T20:20:00	0.2371	5.506	175.0	0.592246363	0.728974046	0.011888826	0.122654828	0.037803409
2020-04-14T20:25:00	0.2383	5.473	174.0	0.596357571	0.734978126	0.012042155	0.124236693	0.038290956
2020-04-14T20:30:00	0.2389	5.442	174.0	0.598461631	0.738056393	0.012121017	0.125050299	0.038541716
2020-04-14T20:35:00	0.2395	5.409	174.0	0.600230800	0.740647573	0.012187532	0.125736519	0.038753216
2020-04-14T20:40:00	0.2395	5.374	174.0	0.600331247	0.740794769	0.012191314	0.125775538	0.038765242
2020-04-14T20:45:00	0.2384	5.341	174.0	0.596759781	0.735566279	0.012057210	0.124392011	0.038338826
2020-04-14T20:50:00	0.2387	5.309	174.0	0.597528211	0.736690331	0.012085999	0.124689024	0.038430368
2020-04-14T20:55:00	0.2382	5.277	174.0	0.595958834	0.734395185	0.012027240	0.124082816	0.038243529
2020-04-14T21:00:00	0.2374	5.244	174.0	0.593385993	0.730636969	0.011931228	0.123092280	0.037938236
2020-04-14T21:05:00	0.2360	5.212	174.0	0.588803423	0.723956763	0.011761196	0.121338091	0.037397578
2020-04-14T21:10:00	0.2343	5.180	174.0	0.582873930	0.715339046	0.011543043	0.119087450	0.036703909
2020-04-14T21:15:00	0.2353	5.150	174.0	0.586326199	0.720352896	0.011669802	0.120395194	0.037106968
2020-04-14T21:20:00	0.2347	5.123	174.0	0.584416687	0.717578421	0.011599602	0.119670954	0.036883750
2020-04-14T21:25:00	0.2351	5.095	174.0	0.585522878	0.719185319	0.011640243	0.120090238	0.037012978
2020-04-14T21:30:00	0.2352	5.068	174.0	0.585958768	0.719818791	0.011656277	0.120255661	0.037063963
2020-04-14T21:35:00	0.2353	5.039	173.0	0.586394605	0.720452343	0.011672321	0.120421181	0.037114977
2020-04-14T21:40:00	0.2351	5.011	173.0	0.585490432	0.719138172	0.011639050	0.120077929	0.037009184
2020-04-14T21:45:00	0.2343	4.985	173.0	0.582909933	0.715391282	0.011544362	0.119101051	0.036708101
2020-04-14T21:50:00	0.2343	4.958	173.0	0.583010874	0.715537745	0.011548058	0.119139186	0.036719854
2020-04-14T21:55:00	0.2339	4.931	173.0	0.581770439	0.713738497	0.011502675	0.118670981	0.036575549
2020-04-14T22:00:00	0.2343	4.905	173.0	0.582877462	0.715344170	0.011543173	0.119088785	0.036704320
2020-04-14T22:05:00	0.2348	4.881	173.0	0.584648468	0.717915030	0.011608111	0.119758745	0.036910808
2020-04-14T22:10:00	0.2355	4.857	173.0	0.587088447	0.721461270	0.011697885	0.120684925	0.037196266
2020-04-14T22:15:00	0.2376	4.833	173.0	0.593874748	0.731350481	0.011949437	0.123280135	0.037996135
2020-04-14T22:20:00	0.2365	4.809	173.0	0.590290755	0.726122991	0.011816245	0.121906021	0.037572619
2020-04-14T22:25:00	0.2366	4.784	173.0	0.590720069	0.726748609	0.011832159	0.122070204	0.037623223
2020-04-14T22:30:00	0.2363	4.761	173.0	0.589811017	0.725424075	0.011798475	0.121722687	0.037516114
2020-04-14T22:35:00	0.2361	4.738	172.0	0.588901731	0.724099887	0.011764831	0.121375588	0.037409135
2020-04-14T22:40:00	0.2341	4.714	172.0	0.582295754	0.714500308	0.011521883	0.118869147	0.036636626
2020-04-14T22:45:00	0.2352	4.691	172.0	0.586077607	0.719991525	0.011660650	0.120300782	0.037077869
2020-04-14T22:50:00	0.2357	4.669	172.0	0.587512158	0.722077593	0.011713511	0.120846132	0.037245951
2020-04-14T22:55:00	0.2371	4.647	172.0	0.592291777	0.729040292	0.011890514	0.122672245	0.037808777
2020-04-14T23:00:00	0.2382	4.625	171.0	0.596062921	0.734547344	0.012031132	0.124122975	0.038255906
2020-04-14T23:05:00	0.2395	4.604	172.0	0.600497367	0.741038222	0.012197570	0.125840082	0.038785135
2020-04-14T23:10:00	0.2405	4.581	172.0	0.603593157	0.745579406	0.012314461	0.127046027	0.039156819
2020-04-14T23:15:00	0.2400	4.560	171.0	0.602020501	0.743271490	0.012255009	0.126432669	0.038967777
2020-04-14T23:20:00	0.2390	4.540	171.0	0.598778577	0.738520408	0.012132919	0.125173093	0.038579563
2020-04-14T23:25:00	0.2387	4.521	171.0	0.597537704	0.736704220	0.012086355	0.124692695	0.038431500
2020-04-14T23:30:00	0.2376	4.499	171.0	0.593957431	0.731471206	0.011952518	0.123311930	0.038005934
2020-04-14T23:35:00	0.2366	4.477	166.0	0.590708094	0.726731157	0.011831715	0.122065623	0.037621811
2020-04-14T23:40:00	0.2343	4.460	171.0	0.583099812	0.715666799	0.011551316	0.119172793	0.036730212
2020-04-14T23:45:00	0.2360	4.441	172.0	0.588555005	0.723595135	0.011752014	0.121243367	0.037368383
2020-04-14T23:50:00	0.2377	4.420	171.0	0.594335991	0.732024012	0.011966633	0.123457552	0.038050816
2020-04-14T23:55:00	0.2382	4.402	172.0	0.596101248	0.734603375	0.012032566	0.124137764	0.038260464
2020-04-15T00:00:00	0.2402	4.385	171.0	0.602536841	0.744029005	0.012274512	0.126633881	0.039029792
2020-04-15T00:05:00	0.2413	4.369	171.0	0.606297082	0.749552333	0.012417026	0.128104167	0.039482949
2020-04-15T00:10:00	0.2402	4.349	171.0	0.602725668	0.744306085	0.012281649	0.126707505	0.039052484
2020-04-15T00:15:00	0.2378	4.331	171.0	0.594809134	0.732715105	0.011984287	0.123639681	0.038106950
2020-04-15T00:20:00	0.2377	4.315	171.0	0.594235374	0.731877070	0.011962881	0.123418838	0.038038885
2020-04-15T00:25:00	0.2377	4.297	171.0	0.594330010	0.732015277	0.011966410	0.123455250	0.038050107
2020-04-15T00:30:00	0.2373	4.278	170.0	0.593087573	0.730201417	0.011920117	0.122977653	0.037902907
2020-04-15T00:35:00	0.2378	4.262	170.0	0.594519275	0.732291703	0.011973470	0.123528088	0.038072556
2020-04-15T00:40:00	0.2352	4.247	170.0	0.585914335	0.719754211	0.011654642	0.120238793	0.037058764
2020-04-15T00:45:00	0.2340	4.229	170.0	0.581986857	0.714052319	0.011510587	0.118752601	0.036600705
2020-04-15T00:50:00	0.2345	4.213	170.0	0.583758312	0.716622519	0.011575448	0.119421764	0.036806947
2020-04-15T00:55:00	0.2362	4.197	170.0	0.589212485	0.724552358	0.011776323	0.121494154	0.037445678
2020-04-15T01:00:00	0.2363	4.183	170.0	0.589641929	0.725177782	0.011792214	0.121658103	0.037496209
2020-04-15T01:05:00	0.2366	4.168	170.0	0.590740493	0.726778376	0.011832916	0.122078018	0.037625631
2020-04-15T01:10:00	0.2357	4.155	170.0	0.587823035	0.722529883	0.011724982	0.120964479	0.037282427
2020-04-15T01:15:00	0.2350	4.141	170.0	0.585238251	0.718771761	0.011629779	0.119982283	0.036979705
2020-04-15T01:20:00	0.2350	4.127	170.0	0.585333129	0.718909610	0.011633266	0.120018263	0.036990794
2020-04-15T01:25:00	0.2359	4.114	169.0	0.588442241	0.723430997	0.011747848	0.121200381	0.037355135
2020-04-15T01:30:00	0.2370	4.099	169.0	0.591883072	0.728444168	0.011875326	0.122515545	0.037760481
2020-04-15T01:35:00	0.2381	4.085	169.0	0.595654653	0.733950572	0.012015868	0.123965495	0.038207369
2020-04-15T01:40:00	0.2379	4.072	168.0	0.595081030	0.733112333	0.011994438	0.123744406	0.038139228
2020-04-15T01:45:00	0.2386	4.059	168.0	0.597513802	0.736669248	0.012085459	0.124683451	0.038428650
2020-04-15T01:50:00	0.2416	4.046	168.0	0.607278318	0.750995597	0.012454354	0.128489277	0.039601643
2020-04-15T01:55:00	0.2435	4.034	169.0	0.613693664	0.760451612	0.012699832	0.131021829	0.040382200
2020-04-15T02:00:00	0.2401	4.021	169.0	0.602468748	0.743929093	0.012271939	0.126607336	0.039021611
2020-04-15T02:05:00	0.2375	4.006	168.0	0.593548919	0.730874795	0.011937296	0.123154885	0.037957532
2020-04-15T02:10:00	0.2372	3.995	168.0	0.592640596	0.729549180	0.011903485	0.122806066	0.037850022
2020-04-15T02:15:00	0.2366	3.988	169.0	0.590728519	0.726760924	0.011832472	0.122073437	0.037624219
2020-04-15T02:20:00	0.2374	3.976	168.0	0.593498599	0.730801340	0.011935422	0.123135548	0.037951572
2020-04-15T02:25:00	0.2351	3.967	168.0	0.585561320	0.719241180	0.011641656	0.120104822	0.037017473
2020-04-15T02:30:00	0.2350	3.958	168.0	0.585321136	0.718892185	0.011632825	0.120013715	0.036989393
2020-04-15T02:35:00	0.2353	3.950	168.0	0.586421048	0.720490788	0.011673294	0.120431227	0.037118074
2020-04-15T02:40:00	0.2367	3.943	168.0	0.590867620	0.726963664	0.011837631	0.122126659	0.037640622
2020-04-15T02:45:00	0.2355	3.936	168.0	0.586945668	0.721253621	0.011692622	0.120630627	0.037179531
2020-04-15T02:50:00	0.2357	3.927	164.0	0.587710247	0.722365781	0.011720820	0.120921535	0.037269192
2020-04-15T02:55:00	0.2361	3.917	167.0	0.589144134	0.724452830	0.011773795	0.121468070	0.037437639
2020-04-15T03:00:00	0.2372	3.908	168.0	0.592584280	0.729467014	0.011901391	0.122784455	0.037843362
2020-04-15T03:05:00	0.2359	3.901	169.0	0.588329473	0.723266866	0.011743682	0.121157402	0.037341888
2020-04-15T03:10:00	0.2354	3.891	167.0	0.586750002	0.720969083	0.011685412	0.120556238	0.037156603
2020-04-15T03:15:00	0.2357	3.884	168.0	0.587514624	0.722081179	0.011713602	0.120847070	0.037246241
2020-04-15T03:20:00	0.2359	3.876	167.0	0.588279079	0.723193521	0.011741821	0.121138198	0.037335969
2020-04-15T03:25:00	0.2361	3.870	168.0	0.589043368	0.724306108	0.011770068	0.121429621	0.037425789
2020-04-15T03:30:00	0.2369	3.863	168.0	0.591814773	0.728344563	0.011872788	0.122489369	0.037752413
2020-04-15T03:35:00	0.2364	3.859	167.0	0.589902247	0.725556971	0.011801853	0.121757540	0.037526856
2020-04-15T03:40:00	0.2370	3.853	168.0	0.592004173	0.728620788	0.011879825	0.122561965	0.037774788
2020-04-15T03:45:00	0.2353	3.848	168.0	0.586409059	0.720473358	0.011672853	0.120426672	0.037116670
2020-04-15T03:50:00	0.2353	3.842	168.0	0.586168934	0.720124278	0.011664012	0.120335462	0.037088558
2020-04-15T03:55:00	0.2351	3.837	167.0	0.585593765	0.719288328	0.011642850	0.120117132	0.037021267
2020-04-15T04:00:00	0.2349	3.831	168.0	0.585018503	0.718452517	0.011621703	0.119898970	0.036954027
2020-04-15T04:05:00	0.2341	3.825	167.0	0.582140777	0.714275538	0.011516215	0.118810668	0.036618602
2020-04-15T04:10:00	0.2349	3.817	168.0	0.584962064	0.718370531	0.011619630	0.119877577	0.036947433
2020-04-15T04:15:00	0.2332	3.811	168.0	0.579400248	0.710304094	0.011416213	0.117778969	0.036300622
2020-04-15T04:20:00	0.2341	3.805	168.0	0.582223736	0.714395855	0.011519249	0.118841970	0.036628249
2020-04-15T04:25:00	0.2346	3.799	167.0	0.584039528	0.717030775	0.011585762	0.119528170	0.036839743
2020-04-15T04:30:00	0.2349	3.793	167.0	0.584849185	0.718206564	0.011615483	0.119834796	0.036934248
2020-04-15T04:35:00	0.2362	3.788	168.0	0.589342131	0.724741153	0.011781119	0.121543637	0.037460929
2020-04-15T04:40:00	0.2359	3.786	168.0	0.588477125	0.723481772	0.011749137	0.121213678	0.037359233
2020-04-15T04:45:00	0.2368	3.782	167.0	0.591293340	0.727584248	0.011853427	0.122289619	0.037690848
2020-04-15T04:50:00	0.2379	3.781	167.0	0.595109868	0.733154468	0.011995515	0.123755516	0.038142652
2020-04-15T04:55:00	0.2378	3.783	167.0	0.594580481	0.732381102	0.011975754	0.123551647	0.038079818
2020-04-15T05:00:00	0.2390	3.785	167.0	0.598727273	0.738445293	0.012130992	0.125153212	0.038573435
2020-04-15T05:05:00	0.2401	3.789	167.0	0.602202330	0.743538222	0.012261875	0.126503507	0.038989609
2020-04-15T05:10:00	0.2404	3.792	167.0	0.603341209	0.745209526	0.012304927	0.126947661	0.039126502
2020-04-15T05:15:00	0.2404	3.794	167.0	0.603479815	0.745413003	0.012310172	0.127001771	0.039143179
2020-04-15T05:20:00	0.2401	3.799	167.0	0.602284818	0.743659237	0.012264991	0.126535650	0.038999516
2020-04-15T05:25:00	0.2398	3.806	168.0	0.601422977	0.742395149	0.012232459	0.126200027	0.038896074
2020-04-15T05:30:00	0.2399	3.811	167.0	0.601561658	0.742598515	0.012237691	0.126254002	0.038912710
2020-04-15T05:35:00	0.2393	3.818	167.0	0.599698665	0.739867915	0.012167506	0.125529913	0.038689538
2020-04-15T05:40:00	0.2397	3.824	168.0	0.601171932	0.742027052	0.012222992	0.126102350	0.038865969
2020-04-15T05:45:00	0.2399	3.834	167.0	0.601644161	0.742719507	0.012240804	0.126286118	0.038922608
2020-04-15T05:50:00	0.2402	3.847	168.0	0.602783220	0.744390542	0.012283824	0.126729949	0.039059401
2020-04-15T05:55:00	0.2409	3.863	168.0	0.604921695	0.747530686	0.012364800	0.127565365	0.039316885
2020-04-15T06:00:00	0.2414	3.879	169.0	0.606725852	0.750182896	0.012433330	0.128272375	0.039534792
2020-04-15T06:05:00	0.2418	3.898	169.0	0.607863279	0.751856379	0.012476635	0.128719143	0.039672490
2020-04-15T06:10:00	0.2423	3.920	168.0	0.609665941	0.754510839	0.012545426	0.129428848	0.039891228
2020-04-15T06:15:00	0.2420	3.942	169.0	0.608805892	0.753244058	0.012512582	0.129089997	0.039786791
2020-04-15T06:20:00	0.2421	3.966	168.0	0.608944285	0.753447857	0.012517864	0.129144491	0.039803587
2020-04-15T06:25:00	0.2428	3.992	169.0	0.611411670	0.757084064	0.012612230	0.130118056	0.040103649
2020-04-15T06:30:00	0.2433	4.023	171.0	0.612880080	0.759250500	0.012668564	0.130699242	0.040282776
2020-04-15T06:35:00	0.2437	4.055	172.0	0.614347883	0.761417853	0.012725004	0.131281525	0.040462241
2020-04-15T06:40:00	0.2432	4.085	170.0	0.612824084	0.759167853	0.012666414	0.130677055	0.040275937
2020-04-15T06:45:00	0.2437	4.115	169.0	0.614291911	0.761335171	0.012722850	0.131259296	0.040455390
2020-04-15T06:50:00	0.2431	4.141	170.0	0.612435594	0.758594532	0.012651498	0.130523177	0.040228511
2020-04-15T06:55:00	0.2432	4.173	169.0	0.612573845	0.758798544	0.012656805	0.130577926	0.040245385
2020-04-15T07:00:00	0.2439	4.208	169.0	0.615038712	0.762438555	0.012751613	0.131556041	0.040546850
2020-04-15T07:05:00	0.2436	4.239	170.0	0.614179963	0.761169812	0.012718541	0.131214843	0.040441689
2020-04-15T07:10:00	0.2429	4.268	170.0	0.611658487	0.757448083	0.012621690	0.130215651	0.040133728
2020-04-15T07:15:00	0.2433	4.303	170.0	0.613126795	0.759614673	0.012678042	0.130797022	0.040312912
2020-04-15T07:20:00	0.2433	4.348	171.0	0.612932572	0.759327979	0.012670580	0.130720043	0.040289187
2020-04-15T07:25:00	0.2434	4.406	171.0	0.613403238	0.760022786	0.012688666	0.130906627	0.040346694
2020-04-15T07:30:00	0.2438	4.462	171.0	0.614538528	0.761699492	0.012732345	0.131357252	0.040485581
2020-04-15T07:35:00	0.2415	4.505	171.0	0.607025576	0.750623771	0.012444734	0.128390026	0.039571053
2020-04-15T07:40:00	0.2412	4.541	171.0	0.606164887	0.749357954	0.012412001	0.128052330	0.039466972
2020-04-15T07:45:00	0.2416	4.584	171.0	0.607302494	0.751031167	0.012455275	0.128498773	0.039604570
2020-04-15T07:50:00	0.2412	4.622	171.0	0.606108786	0.749275467	0.012409869	0.128030334	0.039460192
2020-04-15T07:55:00	0.2429	4.664	171.0	0.611572713	0.757321573	0.012618402	0.130181731	0.040123274
2020-04-15T08:00:00	0.2445	4.707	172.0	0.617028250	0.765380349	0.012828405	0.132348285	0.040791027
2020-04-15T08:05:00	0.2439	4.759	171.0	0.615173362	0.762637548	0.012756803	0.131609582	0.040563351
2020-04-15T08:10:00	0.2450	4.809	171.0	0.618632360	0.767754662	0.012890493	0.132988840	0.040988452
2020-04-15T08:15:00	0.2458	4.862	172.0	0.621424722	0.771892934	0.012998944	0.134107704	0.041333297
2020-04-15T08:20:00	0.2454	4.918	172.0	0.619903950	0.769638340	0.012939821	0.133497749	0.041145303
2020-04-15T08:25:00	0.2460	4.982	172.0	0.622032151	0.772794011	0.013022597	0.134351736	0.041408510
2020-04-15T08:30:00	0.2457	5.052	173.0	0.620843378	0.771030842	0.012976326	0.133874367	0.041261380
2020-04-15T08:35:00	0.2449	5.127	173.0	0.618326620	0.767301956	0.012878647	0.132866628	0.040950785
2020-04-15T08:40:00	0.2454	5.210	173.0	0.620123986	0.769964430	0.012948367	0.133585913	0.041172476
2020-04-15T08:45:00	0.2460	5.298	174.0	0.621920447	0.772628283	0.013018246	0.134306842	0.041394673
2020-04-15T08:50:00	0.2458	5.369	174.0	0.621395045	0.771848917	0.012997788	0.134095788	0.041329624
2020-04-15T08:55:00	0.2435	5.430	175.0	0.613564191	0.760260431	0.012694854	0.130970465	0.040366369
2020-04-15T09:00:00	0.2440	5.477	174.0	0.615363963	0.762919254	0.012764151	0.131685390	0.040586716
2020-04-15T09:05:00	0.2448	5.527	174.0	0.618158888	0.767053631	0.012872151	0.132799606	0.040930128
2020-04-15T09:10:00	0.2433	5.574	175.0	0.612981562	0.759400290	0.012672462	0.130739457	0.040295171
2020-04-15T09:15:00	0.2443	5.637	175.0	0.616442690	0.764514175	0.012805779	0.132114857	0.040719082
2020-04-15T09:20:00	0.2439	5.702	175.0	0.614919788	0.762262816	0.012747030	0.131508763	0.040532278
2020-04-15T09:25:00	0.2428	5.763	175.0	0.611401159	0.757068564	0.012611828	0.130113901	0.040102368
2020-04-15T09:30:00	0.2434	5.823	176.0	0.613202026	0.759725730	0.012680933	0.130826845	0.040322104
2020-04-15T09:35:00	0.2447	5.882	176.0	0.617659143	0.766313903	0.012852805	0.132600023	0.040868615
2020-04-15T09:40:00	0.2454	5.947	176.0	0.620120491	0.769959250	0.012948231	0.133584512	0.041172044
2020-04-15T09:45:00	0.2457	6.005	176.0	0.620921940	0.771147328	0.012979382	0.133905888	0.041271095
2020-04-15T09:50:00	0.2444	6.046	176.0	0.616745093	0.764961460	0.012817461	0.132235381	0.040756229
2020-04-15T09:55:00	0.2430	6.088	177.0	0.611898282	0.757801792	0.012630884	0.130310505	0.040162963
2020-04-15T10:00:00	0.2427	6.165	177.0	0.611038774	0.756534196	0.012597945	0.129970679	0.040058226
2020-04-15T10:05:00	0.2432	6.281	178.0	0.612648561	0.758908806	0.012659674	0.130607520	0.040254506
2020-04-15T10:10:00	0.2419	6.422	178.0	0.608270481	0.752455755	0.012492157	0.128879282	0.039721846
2020-04-15T10:15:00	0.2415	6.547	179.0	0.606885524	0.750417755	0.012439405	0.128335044	0.039554107
2020-04-15T10:20:00	0.2425	6.623	179.0	0.610493902	0.755730945	0.012577087	0.129755489	0.039991902
2020-04-15T10:25:00	0.2433	6.722	179.0	0.613101416	0.759577209	0.012677067	0.130786962	0.040309812
2020-04-15T10:30:00	0.2426	6.839	180.0	0.610720474	0.756064928	0.012585758	0.129844948	0.040019474
2020-04-15T10:35:00	0.2434	6.917	180.0	0.613327822	0.759911443	0.012685767	0.130876722	0.040337477
2020-04-15T10:40:00	0.2394	7.005	180.0	0.599952611	0.740239954	0.012177060	0.125628488	0.038719920
2020-04-15T10:45:00	0.2399	7.093	181.0	0.601567438	0.742606991	0.012237909	0.126256252	0.038913403
2020-04-15T10:50:00	0.2387	7.186	182.0	0.597843463	0.737151621	0.012097820	0.124810980	0.038467956
2020-04-15T10:55:00	0.2405	7.292	182.0	0.603795065	0.745875861	0.012322105	0.127124884	0.039181124
2020-04-15T11:00:00	0.2396	7.378	183.0	0.600740713	0.741394894	0.012206738	0.125934662	0.038814286
2020-04-15T11:05:00	0.2403	7.461	183.0	0.603022029	0.744741020	0.012292853	0.126823102	0.039088112
2020-04-15T11:10:00	0.2396	7.550	183.0	0.600634308	0.741238930	0.012202729	0.125893301	0.038801538
2020-04-15T11:15:00	0.2378	7.643	184.0	0.594570791	0.732366948	0.011975393	0.123547917	0.038078668
2020-04-15T11:20:00	0.2374	7.741	184.0	0.593514767	0.730824941	0.011936024	0.123141760	0.037953487
2020-04-15T11:25:00	0.2376	7.850	185.0	0.594129983	0.731723167	0.011958951	0.123378295	0.038026389
2020-04-15T11:30:00	0.2377	8.000	185.0	0.594410903	0.732133420	0.011969428	0.123486379	0.038059701
2020-04-15T11:35:00	0.2373	8.132	185.0	0.593020509	0.730103545	0.011917621	0.122951900	0.037894970
2020-04-15T11:40:00	0.2365	8.206	186.0	0.590291437	0.726123985	0.011816270	0.121906281	0.037572700
2020-04-15T11:45:00	0.2368	8.275	187.0	0.591241738	0.727509019	0.011851512	0.122269861	0.037684758
2020-04-15T11:50:00	0.2359	8.387	187.0	0.588176506	0.723044242	0.011738032	0.121099114	0.037323923
2020-04-15T11:55:00	0.2354	8.493	187.0	0.586783651	0.721018013	0.011686651	0.120569029	0.037160546
2020-04-15T12:00:00	0.2346	8.588	188.0	0.584049740	0.717045603	0.011586137	0.119532035	0.036840934
2020-04-15T12:05:00	0.2348	8.712	188.0	0.584666612	0.717941382	0.011608778	0.119765618	0.036912927
2020-04-15T12:10:00	0.2340	8.856	189.0	0.581931054	0.713971397	0.011508547	0.118731553	0.036594218
2020-04-15T12:15:00	0.2334	8.981	190.0	0.579864608	0.710976583	0.011433126	0.117953458	0.036354401
2020-04-15T12:20:00	0.2328	9.071	190.0	0.577796945	0.707983553	0.011357916	0.117177522	0.036115250
2020-04-15T12:25:00	0.2345	9.147	190.0	0.583782459	0.716657573	0.011576334	0.119430899	0.036809763
2020-04-15T12:30:00	0.2342	9.242	191.0	0.582723195	0.715120354	0.011537525	0.119030517	0.036686361
2020-04-15T12:35:00	0.2340	9.324	191.0	0.581999013	0.714069947	0.011511031	0.118757186	0.036602118
2020-04-15T12:40:00	0.2344	9.386	191.0	0.583286834	0.715938198	0.011558167	0.119243476	0.036751998
2020-04-15T12:45:00	0.2338	9.444	192.0	0.581221185	0.712942214	0.011482609	0.118463965	0.036511745
2020-04-15T12:50:00	0.2331	9.506	192.0	0.578818648	0.709462068	0.011395048	0.117560611	0.036233322
2020-04-15T12:55:00	0.2322	9.575	192.0	0.576078529	0.705498771	0.011295601	0.116534638	0.035917107
2020-04-15T13:00:00	0.2318	9.612	192.0	0.574680868	0.703479596	0.011245048	0.116013085	0.035756360
2020-04-15T13:05:00	0.2328	9.631	192.0	0.577986569	0.708257894	0.011364803	0.117248573	0.036137149
2020-04-15T13:10:00	0.2333	9.664	193.0	0.579611491	0.710609995	0.011423906	0.117858330	0.036325082
2020-04-15T13:15:00	0.2331	9.692	193.0	0.578886667	0.709560530	0.011397522	0.117586138	0.036241190
2020-04-15T13:20:00	0.2322	9.702	193.0	0.575810640	0.705111632	0.011285903	0.116434580	0.035886268
2020-04-15T13:25:00	0.2321	9.688	193.0	0.575421061	0.704548738	0.011271806	0.116289148	0.035841445
2020-04-15T13:30:00	0.2326	9.648	193.0	0.577383015	0.707384798	0.011342889	0.117022500	0.036067471
2020-04-15T13:35:00	0.2326	9.643	193.0	0.577329459	0.707307338	0.011340946	0.117002450	0.036061291
2020-04-15T13:40:00	0.2316	9.655	193.0	0.573915922	0.702375179	0.011217429	0.115728143	0.035668538
2020-04-15T13:45:00	0.2311	9.647	193.0	0.572181088	0.699872247	0.011154919	0.115083241	0.035469773
2020-04-15T13:50:00	0.2317	9.604	192.0	0.574144856	0.702705660	0.011225691	0.115813383	0.035694809
2020-04-15T13:55:00	0.2315	9.570	192.0	0.573418901	0.701657847	0.011199502	0.115543194	0.035611534
2020-04-15T14:00:00	0.2311	9.542	192.0	0.572356503	0.700125214	0.011161231	0.115148366	0.035489845
2020-04-15T14:05:00	0.2306	9.508	192.0	0.570620896	0.697623407	0.011098854	0.114504829	0.035291500
2020-04-15T14:10:00	0.2317	9.471	192.0	0.574266570	0.702881379	0.011230085	0.115858715	0.035708781
2020-04-15T14:15:00	0.2317	9.442	191.0	0.574212966	0.702803989	0.011228150	0.115838749	0.035702628
2020-04-15T14:20:00	0.2310	9.428	191.0	0.571805621	0.699330869	0.011141413	0.114943908	0.035426829
2020-04-15T14:25:00	0.2305	9.416	192.0	0.570069740	0.696829459	0.011079083	0.114300854	0.035228633
2020-04-15T14:30:00	0.2306	9.384	191.0	0.570689075	0.697721637	0.011101301	0.114530074	0.035299281
2020-04-15T14:35:00	0.2302	9.344	191.0	0.569289261	0.695705597	0.011051116	0.114012325	0.035139706
2020-04-15T14:40:00	0.2305	9.312	191.0	0.570245261	0.697082272	0.011085377	0.114365792	0.035248648
2020-04-15T14:45:00	0.2310	9.291	191.0	0.571873776	0.699429132	0.011143864	0.114969193	0.035434622
2020-04-15T14:50:00	0.2317	9.273	191.0	0.574173867	0.702747541	0.011226738	0.115824187	0.035698139
2020-04-15T14:55:00	0.2303	9.262	191.0	0.569411144	0.695881071	0.011055481	0.114057359	0.035153586
2020-04-15T15:00:00	0.2303	9.245	191.0	0.569694046	0.696288410	0.011065616	0.114161920	0.035185813
2020-04-15T15:05:00	0.2296	9.233	190.0	0.567283589	0.692819813	0.010979412	0.113272571	0.034911706
2020-04-15T15:10:00	0.2285	9.202	190.0	0.563523090	0.687418115	0.010845613	0.111892187	0.034486259
2020-04-15T15:15:00	0.2290	9.175	190.0	0.565154738	0.689760432	0.010903565	0.112490066	0.034670531
2020-04-15T15:20:00	0.2289	9.160	190.0	0.564763971	0.689199265	0.010889671	0.112346731	0.034626354
2020-04-15T15:25:00	0.2303	9.146	190.0	0.569425669	0.695901983	0.011056001	0.114062726	0.035155240
2020-04-15T15:30:00	0.2300	9.129	190.0	0.568362058	0.694371113	0.011017938	0.113670039	0.035034210
2020-04-15T15:35:00	0.2297	9.110	191.0	0.567634902	0.693325046	0.010991955	0.113401969	0.034951588
2020-04-15T15:40:00	0.2297	9.096	190.0	0.567581197	0.693247804	0.010990037	0.113382183	0.034945490
2020-04-15T15:45:00	0.2291	9.073	190.0	0.565506266	0.690265356	0.010916071	0.112619087	0.034710296
2020-04-15T15:50:00	0.2303	9.050	190.0	0.569493870	0.696000179	0.011058444	0.114087930	0.035163008
2020-04-15T15:55:00	0.2295	9.026	190.0	0.566746443	0.692047525	0.010960249	0.113074871	0.034850773
2020-04-15T16:00:00	0.2289	9.012	190.0	0.564671016	0.689065794	0.010886368	0.112312648	0.034615849
2020-04-15T16:05:00	0.2284	8.999	191.0	0.562979330	0.686638007	0.010826335	0.111693299	0.034424959
2020-04-15T16:10:00	0.2282	8.978	191.0	0.562298805	0.685662031	0.010802232	0.111444640	0.034348320
2020-04-15T16:15:00	0.2287	8.953	191.0	0.563978754	0.688072024	0.010861781	0.112058991	0.034537669
2020-04-15T16:20:00	0.2283	8.923	189.0	0.562961226	0.686612038	0.010825693	0.111686680	0.034422919
2020-04-15T16:25:00	0.2284	8.895	190.0	0.563292390	0.687087110	0.010837431	0.111807783	0.034460245
2020-04-15T16:30:00	0.2291	8.868	190.0	0.565645836	0.690465859	0.010921038	0.112670335	0.034726091
2020-04-15T16:35:00	0.2286	8.837	189.0	0.563954623	0.688037389	0.010860924	0.112050154	0.034534946
2020-04-15T16:40:00	0.2289	8.809	189.0	0.564959799	0.689480471	0.010896633	0.112418550	0.034648489
2020-04-15T16:45:00	0.2295	8.783	189.0	0.566975312	0.692376555	0.010968412	0.113159086	0.034876729
2020-04-15T16:50:00	0.2299	8.758	189.0	0.568316333	0.694305323	0.011016304	0.113653173	0.035029012
2020-04-15T16:55:00	0.2307	8.729	189.0	0.571002855	0.698173771	0.011112566	0.114646296	0.035335102
2020-04-15T17:00:00	0.2309	8.699	189.0	0.571669648	0.699134842	0.011136525	0.114893471	0.035411283
2020-04-15T17:05:00	0.2307	8.670	189.0	0.570990813	0.698156418	0.011112134	0.114641835	0.035333727
2020-04-15T17:10:00	0.2319	8.642	189.0	0.575019754	0.703969030	0.011257295	0.116139435	0.035795302
2020-04-15T17:15:00	0.2322	8.614	188.0	0.576021756	0.705416721	0.011293546	0.116513430	0.035910571
2020-04-15T17:20:00	0.2316	8.587	188.0	0.573999418	0.702495706	0.011220442	0.115759228	0.035678118
2020-04-15T17:25:00	0.2321	8.559	188.0	0.575673758	0.704913839	0.011280949	0.116383471	0.035870516
2020-04-15T17:30:00	0.2323	8.530	188.0	0.576339663	0.705876205	0.011305060	0.116632216	0.035947182
2020-04-15T17:35:00	0.2327	8.496	188.0	0.577677103	0.707810185	0.011353564	0.117132629	0.036101414
2020-04-15T17:40:00	0.2336	8.461	188.0	0.580691986	0.712175241	0.011463293	0.118264683	0.036450324
2020-04-15T17:45:00	0.2341	8.424	188.0	0.582363136	0.714598043	0.011524348	0.118894579	0.036644464
2020-04-15T17:50:00	0.2347	8.389	187.0	0.584368667	0.717508687	0.011597839	0.119652770	0.036878146
2020-04-15T17:55:00	0.2351	8.354	187.0	0.585703054	0.719447147	0.011646869	0.120158602	0.037034048
2020-04-15T18:00:00	0.2344	8.318	187.0	0.583351045	0.716031387	0.011560520	0.119267750	0.036759479
2020-04-15T18:05:00	0.2352	8.280	187.0	0.586026080	0.719916629	0.011658754	0.120281217	0.037071839
2020-04-15T18:10:00	0.2357	8.242	186.0	0.587694698	0.722343158	0.011720246	0.120915615	0.037267367
2020-04-15T18:15:00	0.2352	8.203	186.0	0.586014090	0.719899201	0.011658313	0.120276665	0.037070436
2020-04-15T18:20:00	0.2359	8.162	187.0	0.588352338	0.723300144	0.011744527	0.121166116	0.037344574
2020-04-15T18:25:00	0.2375	8.120	187.0	0.593698775	0.731093563	0.011942879	0.123212482	0.037975284
2020-04-15T18:30:00	0.2385	8.082	187.0	0.597033948	0.735967270	0.012067477	0.124497940	0.038371474
2020-04-15T18:35:00	0.2388	8.043	186.0	0.598029704	0.737424175	0.012104806	0.124883057	0.038490171
2020-04-15T18:40:00	0.2393	7.999	187.0	0.599692655	0.739859111	0.012167280	0.125527581	0.038688819
2020-04-15T18:45:00	0.2401	7.957	186.0	0.602355332	0.743762690	0.012267654	0.126563130	0.039007986
2020-04-15T18:50:00	0.2406	7.913	186.0	0.604016252	0.746200663	0.012330481	0.127211300	0.039207758
2020-04-15T18:55:00	0.2415	7.874	186.0	0.607008715	0.750598968	0.012444092	0.128383406	0.039569013
2020-04-15T19:00:00	0.2423	7.836	186.0	0.609665903	0.754510783	0.012545425	0.129428833	0.039891223
2020-04-15T19:05:00	0.2420	7.797	185.0	0.608661500	0.753031442	0.012507072	0.129033153	0.039769271
2020-04-15T19:10:00	0.2413	7.758	192.0	0.606324735	0.749592996	0.012418077	0.128115012	0.039486291
2020-04-15T19:15:00	0.2412	7.716	184.0	0.605985676	0.749094467	0.012405191	0.127982073	0.039445318
2020-04-15T19:20:00	0.2415	7.673	184.0	0.606978918	0.750555135	0.012442958	0.128371707	0.039565407
2020-04-15T19:25:00	0.2415	7.632	184.0	0.606972958	0.750546368	0.012442732	0.128369368	0.039564686
2020-04-15T19:30:00	0.2421	7.594	183.0	0.608964566	0.753477725	0.012518638	0.129152479	0.039806048
2020-04-15T19:35:00	0.2421	7.557	183.0	0.608958610	0.753468953	0.012518410	0.129150133	0.039805325
2020-04-15T19:40:00	0.2421	7.516	183.0	0.608952654	0.753460182	0.012518183	0.129147787	0.039804602
2020-04-15T19:45:00	0.2419	7.475	183.0	0.608280963	0.752471186	0.012492557	0.128883405	0.039723117
2020-04-15T19:50:00	0.2418	7.434	183.0	0.607942091	0.751972375	0.012479638	0.128750129	0.039682040
2020-04-15T19:55:00	0.2425	7.392	183.0	0.610265883	0.755394873	0.012568364	0.129665490	0.039964163
2020-04-15T20:00:00	0.2428	7.353	182.0	0.611257928	0.756857343	0.012606340	0.130057283	0.040084918
2020-04-15T20:05:00	0.2426	7.314	181.0	0.610586673	0.755867690	0.012580637	0.129792114	0.040003190
2020-04-15T20:10:00	0.2426	7.277	182.0	0.610580719	0.755858914	0.012580409	0.129789764	0.040002466
2020-04-15T20:15:00	0.2424	7.240	182.0	0.609909337	0.754869454	0.012554729	0.129524826	0.039920809
2020-04-15T20:20:00	0.2419	7.201	182.0	0.608239261	0.752409796	0.012490967	0.128867000	0.039718061
2020-04-15T20:25:00	0.2419	7.164	182.0	0.608233303	0.752401026	0.012490740	0.128864657	0.039717339
2020-04-15T20:30:00	0.2428	7.127	182.0	0.611222213	0.756804679	0.012604972	0.130043168	0.040080567
2020-04-15T20:35:00	0.2421	7.094	182.0	0.608887134	0.753363694	0.012515682	0.129121986	0.039796650
2020-04-15T20:40:00	0.2434	7.059	181.0	0.613205490	0.759730844	0.012681066	0.130828218	0.040322527
2020-04-15T20:45:00	0.2433	7.022	181.0	0.612867088	0.759231325	0.012668065	0.130694094	0.040281189
2020-04-15T20:50:00	0.2431	6.981	181.0	0.612196138	0.758241213	0.012642309	0.130428376	0.040199292
2020-04-15T20:55:00	0.2435	6.942	180.0	0.613520066	0.760195279	0.012693157	0.130952963	0.040360975
2020-04-15T21:00:00	0.2429	6.909	180.0	0.611851688	0.757733060	0.012629098	0.130292072	0.040157282
2020-04-15T21:05:00	0.2430	6.874	180.0	0.612178285	0.758214873	0.012641625	0.130421310	0.040197114
2020-04-15T21:10:00	0.2428	6.838	180.0	0.611507204	0.757224957	0.012615892	0.130155827	0.040115290
2020-04-15T21:15:00	0.2428	6.803	181.0	0.611501252	0.757216179	0.012615663	0.130153474	0.040114565
2020-04-15T21:20:00	0.2419	6.768	180.0	0.608500664	0.752794631	0.012500936	0.128969850	0.039749760
2020-04-15T21:25:00	0.2410	6.732	180.0	0.605497536	0.748376907	0.012386652	0.127790806	0.039386368
2020-04-15T21:30:00	0.2397	6.695	180.0	0.601157840	0.742006390	0.012222460	0.126096868	0.038864279
2020-04-15T21:35:00	0.2409	6.665	179.0	0.605152435	0.747869734	0.012373554	0.127655675	0.039344719
2020-04-15T21:40:00	0.2414	6.635	179.0	0.606812045	0.750309673	0.012436609	0.128306203	0.039545218
2020-04-15T21:45:00	0.2408	6.600	179.0	0.604807301	0.747362612	0.012360462	0.127520605	0.039303089
2020-04-15T21:50:00	0.2422	6.569	179.0	0.609463424	0.754212493	0.012537688	0.129349017	0.039866623
2020-04-15T21:55:00	0.2432	6.539	179.0	0.612783791	0.759108384	0.012664866	0.130661091	0.040271017
2020-04-15T22:00:00	0.2435	6.509	179.0	0.613775133	0.760571916	0.012702966	0.131054154	0.040392163
2020-04-15T22:05:00	0.2434	6.478	179.0	0.613342657	0.759933345	0.012686337	0.130882604	0.040339290
2020-04-15T22:10:00	0.2432	6.445	178.0	0.612577649	0.758804157	0.012656951	0.130579433	0.040245849
2020-04-15T22:15:00	0.2441	6.414	178.0	0.615801046	0.763565373	0.012781009	0.131859316	0.040640322
2020-04-15T22:20:00	0.2434	6.382	178.0	0.613374849	0.759980872	0.012687575	0.130895369	0.040343224
2020-04-15T22:25:00	0.2427	6.350	178.0	0.610946994	0.756398877	0.012594431	0.129934419	0.040047050
2020-04-15T22:30:00	0.2425	6.322	178.0	0.610514175	0.755760826	0.012577863	0.129763492	0.039994368
2020-04-15T22:35:00	0.2421	6.293	178.0	0.609082973	0.753652108	0.012523158	0.129199114	0.039820422
2020-04-15T22:40:00	0.2416	6.266	178.0	0.607318221	0.751054307	0.012455874	0.128504951	0.039606474
2020-04-15T22:45:00	0.2422	6.238	178.0	0.609215399	0.753847150	0.012528215	0.129251281	0.039836500
2020-04-15T22:50:00	0.2408	6.211	177.0	0.604785901	0.747331171	0.012359650	0.127512232	0.039300508
2020-04-15T22:55:00	0.2401	6.182	177.0	0.602352160	0.743758035	0.012267535	0.126561894	0.039007605
2020-04-15T23:00:00	0.2391	6.153	177.0	0.598915546	0.738720961	0.012138065	0.125226178	0.038595924
2020-04-15T23:05:00	0.2383	6.126	178.0	0.596477762	0.735153868	0.012046653	0.124283096	0.038305257
2020-04-15T23:10:00	0.2383	6.098	178.0	0.596377206	0.735006835	0.012042890	0.124244273	0.038293292
2020-04-15T23:15:00	0.2392	6.071	177.0	0.599281631	0.739257064	0.012151823	0.125368118	0.038639671
2020-04-15T23:20:00	0.2390	6.043	177.0	0.598847384	0.738621154	0.012135504	0.125199759	0.038587782
2020-04-15T23:25:00	0.2388	6.014	178.0	0.598079240	0.737496675	0.012106665	0.124902231	0.038496081
2020-04-15T23:30:00	0.2386	5.985	177.0	0.597310930	0.736372444	0.012077855	0.124605003	0.038404472
2020-04-15T23:35:00	0.2391	5.958	176.0	0.598879707	0.738668483	0.012136718	0.125212287	0.038591643
2020-04-15T23:40:00	0.2387	5.931	171.0	0.597777700	0.737055386	0.012095354	0.124785534	0.038460114
2020-04-15T23:45:00	0.2389	5.903	177.0	0.598344911	0.737885532	0.012116635	0.125005093	0.038527784
2020-04-15T23:50:00	0.2389	5.878	176.0	0.598244407	0.737738420	0.012112863	0.124966175	0.038515789
2020-04-15T23:55:00	0.2395	5.854	177.0	0.600480098	0.741012912	0.012196920	0.125833372	0.038783067
2020-04-16T00:00:00	0.2387	5.828	176.0	0.597709515	0.736955612	0.012092797	0.124759154	0.038451983
2020-04-16T00:05:00	0.2382	5.808	176.0	0.595939083	0.734366314	0.012026501	0.124075196	0.038241181
2020-04-16T00:10:00	0.2374	5.784	176.0	0.593499243	0.730802280	0.011935446	0.123135795	0.037951648
2020-04-16T00:15:00	0.2376	5.758	176.0	0.594067142	0.731631403	0.011956608	0.123354123	0.038018939
2020-04-16T00:20:00	0.2382	5.735	176.0	0.595971433	0.734413603	0.012027711	0.124087677	0.038245027
2020-04-16T00:25:00	0.2386	5.713	176.0	0.597206880	0.736220230	0.012073956	0.124564779	0.038392075
2020-04-16T00:30:00	0.2382	5.690	176.0	0.596104350	0.734607910	0.012032682	0.124138961	0.038260833
2020-04-16T00:35:00	0.2389	5.669	176.0	0.598341394	0.737880384	0.012116503	0.125003731	0.038527364
2020-04-16T00:40:00	0.2383	5.649	176.0	0.596237262	0.734802225	0.012037654	0.124190255	0.038276643
2020-04-16T00:45:00	0.2376	5.628	176.0	0.594131876	0.731725931	0.011959022	0.123379023	0.038026613
2020-04-16T00:50:00	0.2369	5.606	176.0	0.591690786	0.728163754	0.011868183	0.122441857	0.037737769
2020-04-16T00:55:00	0.2361	5.583	176.0	0.588913294	0.724116722	0.011765258	0.121379998	0.037410494
2020-04-16T01:00:00	0.2361	5.560	176.0	0.589147243	0.724457357	0.011773910	0.121469256	0.037438004
2020-04-16T01:05:00	0.2367	5.538	176.0	0.591054191	0.727235616	0.011844552	0.122198062	0.037662630
2020-04-16T01:10:00	0.2363	5.517	176.0	0.589615093	0.725138694	0.011791221	0.121647854	0.037493050
2020-04-16T01:15:00	0.2362	5.496	176.0	0.589179655	0.724504554	0.011775109	0.121481625	0.037441817
2020-04-16T01:20:00	0.2359	5.476	175.0	0.588409404	0.723383203	0.011746635	0.121187865	0.037351277
2020-04-16T01:25:00	0.2364	5.455	175.0	0.589982143	0.725673361	0.011804812	0.121788067	0.037536265
2020-04-16T01:30:00	0.2367	5.434	174.0	0.590885164	0.726989235	0.011838282	0.122133372	0.037642691
2020-04-16T01:35:00	0.2364	5.415	175.0	0.590115286	0.725867333	0.011809744	0.121838948	0.037551947
2020-04-16T01:40:00	0.2366	5.395	175.0	0.590683729	0.726695647	0.011830812	0.122056303	0.037618938
2020-04-16T01:45:00	0.2371	5.376	175.0	0.592255453	0.728987307	0.011889164	0.122658314	0.037804484
2020-04-16T01:50:00	0.2369	5.355	175.0	0.591820341	0.728352684	0.011872995	0.122491503	0.037753071
2020-04-16T01:55:00	0.2365	5.335	174.0	0.590381556	0.726255298	0.011819610	0.121940736	0.037583319
2020-04-16T02:00:00	0.2363	5.314	175.0	0.589611568	0.725133559	0.011791091	0.121646508	0.037492635
2020-04-16T02:05:00	0.2377	5.294	174.0	0.594193089	0.731815321	0.011961304	0.123402571	0.038033871
2020-04-16T02:10:00	0.2366	5.275	174.0	0.590748526	0.726790084	0.011833214	0.122081091	0.037626578
2020-04-16T02:15:00	0.2378	5.255	174.0	0.594660271	0.732497649	0.011978731	0.123582364	0.038089285
2020-04-16T02:20:00	0.2374	5.234	174.0	0.593222643	0.730398546	0.011925146	0.123029528	0.037918895
2020-04-16T02:25:00	0.2374	5.216	174.0	0.593456306	0.730739604	0.011933847	0.123119296	0.037946563
2020-04-16T02:30:00	0.2378	5.196	176.0	0.594692633	0.732544922	0.011979939	0.123594823	0.038093125
2020-04-16T02:35:00	0.2372	5.177	174.0	0.592586325	0.729469998	0.011901467	0.122785240	0.037843603
2020-04-16T02:40:00	0.2371	5.158	174.0	0.592485658	0.729323130	0.011897723	0.122746616	0.037831699
2020-04-16T02:45:00	0.2381	5.140	174.0	0.595727380	0.734056868	0.012018586	0.123993540	0.038216013
2020-04-16T02:50:00	0.2390	5.124	174.0	0.598632338	0.738306301	0.012127427	0.125116428	0.038562098
2020-04-16T02:55:00	0.2380	5.106	173.0	0.595192106	0.733274628	0.011998586	0.123787202	0.038152418
2020-04-16T03:00:00	0.2384	5.088	175.0	0.596761824	0.735569266	0.012057286	0.124392800	0.038339069
2020-04-16T03:05:00	0.2381	5.070	174.0	0.595659155	0.733957153	0.012016036	0.123967231	0.038207905
2020-04-16T03:10:00	0.2390	5.052	174.0	0.598564170	0.738206502	0.012124867	0.125090018	0.038553958
2020-04-16T03:15:00	0.2391	5.034	174.0	0.599131255	0.739036836	0.012146171	0.125309803	0.038621698
2020-04-16T03:20:00	0.2396	5.016	174.0	0.600699225	0.741334081	0.012205174	0.125918534	0.038809315
2020-04-16T03:25:00	0.2393	4.999	172.0	0.599597784	0.739720137	0.012163711	0.125490765	0.038677472
2020-04-16T03:30:00	0.2398	4.983	173.0	0.601499099	0.742506775	0.012235331	0.126229653	0.038905205
2020-04-16T03:35:00	0.2401	4.967	172.0	0.602399181	0.743827023	0.012269311	0.126580220	0.039013253
2020-04-16T03:40:00	0.2399	4.950	173.0	0.601631808	0.742701391	0.012240338	0.126281309	0.038921126
2020-04-16T03:45:00	0.2403	4.933	173.0	0.602865279	0.744510967	0.012286926	0.126761954	0.039069265
2020-04-16T03:50:00	0.2402	4.917	172.0	0.602764905	0.744363664	0.012283132	0.126722806	0.039057200
2020-04-16T03:55:00	0.2395	4.901	173.0	0.600329773	0.740792609	0.012191258	0.125774966	0.038765066
2020-04-16T04:00:00	0.2403	4.885	173.0	0.602897566	0.744558351	0.012288147	0.126774548	0.039073147
2020-04-16T04:05:00	0.2392	4.871	173.0	0.599411248	0.739446905	0.012156696	0.125418393	0.038655167
2020-04-16T04:10:00	0.2398	4.856	173.0	0.601262454	0.742159774	0.012226405	0.126137566	0.038876823
2020-04-16T04:15:00	0.2399	4.841	172.0	0.601778905	0.742917124	0.012245889	0.126338579	0.038938777
2020-04-16T04:20:00	0.2399	4.826	173.0	0.601628295	0.742696239	0.012240205	0.126279942	0.038920704
2020-04-16T04:25:00	0.2392	4.811	173.0	0.599475885	0.739541580	0.012159127	0.125443468	0.038662895
2020-04-16T04:30:00	0.2397	4.799	172.0	0.600993489	0.741765439	0.012216264	0.126032945	0.038844578
2020-04-16T04:35:00	0.2404	4.784	173.0	0.603510624	0.745458234	0.012311338	0.127013800	0.039146887
2020-04-16T04:40:00	0.2408	4.772	172.0	0.604693280	0.747195098	0.012356138	0.127475998	0.039289341
2020-04-16T04:45:00	0.2404	4.760	171.0	0.603209546	0.745016254	0.012299946	0.126896272	0.039110663
2020-04-16T04:50:00	0.2391	4.746	171.0	0.599056065	0.738926726	0.012143345	0.125280651	0.038612713
2020-04-16T04:55:00	0.2395	4.736	171.0	0.600240210	0.740661362	0.012187886	0.125740174	0.038754343
2020-04-16T05:00:00	0.2391	4.726	172.0	0.599088386	0.738974058	0.012144560	0.125293182	0.038616576
2020-04-16T05:05:00	0.2398	4.716	171.0	0.601273335	0.742175728	0.012226815	0.126141799	0.038878128
2020-04-16T05:10:00	0.2406	4.708	171.0	0.604123575	0.746358276	0.012334546	0.127253242	0.039220685
2020-04-16T05:15:00	0.2401	4.700	172.0	0.602306158	0.743690544	0.012265797	0.126543966	0.039002079
2020-04-16T05:20:00	0.2402	4.694	171.0	0.602822456	0.744448122	0.012285307	0.126745252	0.039064118
2020-04-16T05:25:00	0.2411	4.689	171.0	0.605671451	0.748632537	0.012393256	0.127858934	0.039407365
2020-04-16T05:30:00	0.2411	4.685	171.0	0.605854149	0.748901103	0.012400195	0.127930522	0.039429429
2020-04-16T05:35:00	0.2422	4.682	171.0	0.609366365	0.754069518	0.012533980	0.129310766	0.039854834
2020-04-16T05:40:00	0.2420	4.680	171.0	0.608550393	0.752867849	0.012502833	0.128989422	0.039755792
2020-04-16T05:45:00	0.2417	4.677	171.0	0.607734235	0.751666463	0.012471718	0.128668416	0.039656855
2020-04-16T05:50:00	0.2426	4.676	171.0	0.610579288	0.755856804	0.012580355	0.129789199	0.040002291
2020-04-16T05:55:00	0.2417	4.673	171.0	0.607766477	0.751713914	0.012472946	0.128681089	0.039660761
2020-04-16T06:00:00	0.2419	4.672	171.0	0.608281981	0.752472684	0.012492596	0.128883806	0.039723241
2020-04-16T06:05:00	0.2409	4.673	171.0	0.605134170	0.747842893	0.012372861	0.127648525	0.039342515
2020-04-16T06:10:00	0.2405	4.675	171.0	0.603650620	0.745663773	0.012316636	0.127068467	0.039163736
2020-04-16T06:15:00	0.2407	4.678	171.0	0.604499992	0.746911152	0.012348810	0.127400399	0.039266040
2020-04-16T06:20:00	0.2418	4.681	171.0	0.608013548	0.752077550	0.012482362	0.128778227	0.039690700
2020-04-16T06:25:00	0.2413	4.687	171.0	0.606198125	0.749406826	0.012413265	0.128065362	0.039470988
2020-04-16T06:30:00	0.2407	4.693	171.0	0.604381771	0.746737498	0.012344330	0.127354172	0.039251793
2020-04-16T06:35:00	0.2407	4.701	171.0	0.604231273	0.746516448	0.012338627	0.127295336	0.039233659
2020-04-16T06:40:00	0.2406	4.710	171.0	0.604080767	0.746295407	0.012332925	0.127236512	0.039215529
2020-04-16T06:45:00	0.2396	4.721	171.0	0.600595614	0.741182217	0.012201271	0.125878263	0.038796903
2020-04-16T06:50:00	0.2402	4.735	171.0	0.602779632	0.744385277	0.012283689	0.126728550	0.039058970
2020-04-16T06:55:00	0.2398	4.752	171.0	0.601295096	0.742207635	0.012227636	0.126150266	0.038880737
2020-04-16T07:00:00	0.2394	4.773	171.0	0.600143616	0.740519818	0.012184250	0.125702657	0.038742780
2020-04-16T07:05:00	0.2398	4.798	172.0	0.601327397	0.742254998	0.012228854	0.126162834	0.038884611
2020-04-16T07:10:00	0.2389	4.827	172.0	0.598507230	0.738123144	0.012122729	0.125067961	0.038547160
2020-04-16T07:15:00	0.2389	4.859	172.0	0.598356481	0.737902468	0.012117070	0.125009574	0.038529165
2020-04-16T07:20:00	0.2376	4.898	172.0	0.593863049	0.731333400	0.011949001	0.123275637	0.037994749
2020-04-16T07:25:00	0.2377	4.940	172.0	0.594380582	0.732089137	0.011968297	0.123474711	0.038056105
2020-04-16T07:30:00	0.2384	4.984	172.0	0.596568442	0.735286466	0.012050047	0.124318111	0.038316049
2020-04-16T07:35:00	0.2384	5.033	172.0	0.596751610	0.735554329	0.012056904	0.124388854	0.038337853
2020-04-16T07:40:00	0.2379	5.103	172.0	0.594930400	0.732892261	0.011988814	0.123686383	0.038121344
2020-04-16T07:45:00	0.2380	5.172	173.0	0.595447776	0.733648230	0.012008137	0.123885736	0.038182787
2020-04-16T07:50:00	0.2380	5.228	174.0	0.595296897	0.733427748	0.012002500	0.123827583	0.038164864
2020-04-16T07:55:00	0.2378	5.284	174.0	0.594811859	0.732719086	0.011984389	0.123640730	0.038107274
2020-04-16T08:00:00	0.2373	5.372	169.0	0.592989647	0.730058507	0.011916472	0.122940050	0.037891317
2020-04-16T08:05:00	0.2380	5.467	175.0	0.595512485	0.733742796	0.012010555	0.123910681	0.038190475
2020-04-16T08:10:00	0.2383	5.565	174.0	0.596363813	0.734987253	0.012042389	0.124239103	0.038291698
2020-04-16T08:15:00	0.2384	5.651	175.0	0.596546992	0.735255100	0.012049244	0.124309828	0.038313496
2020-04-16T08:20:00	0.2387	5.737	175.0	0.597731978	0.736988482	0.012093639	0.124767845	0.038454662
2020-04-16T08:25:00	0.2397	5.827	176.0	0.600918678	0.741655768	0.012213444	0.126003853	0.038835611
2020-04-16T08:30:00	0.2392	5.923	176.0	0.599433361	0.739479294	0.012157528	0.125426971	0.038657811
2020-04-16T08:35:00	0.2399	6.034	176.0	0.601618096	0.742681281	0.012239820	0.126275971	0.038919481
2020-04-16T08:40:00	0.2400	6.144	177.0	0.602134495	0.743438709	0.012259313	0.126477077	0.038981463
2020-04-16T08:45:00	0.2403	6.245	177.0	0.602984230	0.744685543	0.012291424	0.126808356	0.039083567
2020-04-16T08:50:00	0.2405	6.354	178.0	0.603833762	0.745932682	0.012323570	0.127140000	0.039185783
2020-04-16T08:55:00	0.2395	6.455	178.0	0.600348366	0.740819856	0.012191959	0.125782189	0.038767292
2020-04-16T09:00:00	0.2391	6.568	179.0	0.598862808	0.738643739	0.012136084	0.125205737	0.038589624
2020-04-16T09:05:00	0.2387	6.681	179.0	0.597710536	0.736957106	0.012092835	0.124759549	0.038452105
2020-04-16T09:10:00	0.2385	6.796	179.0	0.596891874	0.735759468	0.012062156	0.124443041	0.038354554
2020-04-16T09:15:00	0.2380	6.911	180.0	0.595404863	0.733585519	0.012006534	0.123869194	0.038177689
2020-04-16T09:20:00	0.2386	7.018	181.0	0.597258168	0.736295257	0.012075878	0.124584605	0.038398185
2020-04-16T09:25:00	0.2391	7.130	181.0	0.599110501	0.739006444	0.012145391	0.125301756	0.038619218
2020-04-16T09:30:00	0.2387	7.242	181.0	0.597624423	0.736831104	0.012089606	0.124726237	0.038441838
2020-04-16T09:35:00	0.2380	7.344	182.0	0.595469573	0.733680084	0.012008951	0.123894138	0.038185377
2020-04-16T09:40:00	0.2382	7.445	182.0	0.595986871	0.734436170	0.012028288	0.124093633	0.038246863
2020-04-16T09:45:00	0.2385	7.550	183.0	0.597172045	0.736169272	0.012072651	0.124551313	0.038387924
2020-04-16T09:50:00	0.2374	7.656	184.0	0.593345781	0.730578274	0.011929731	0.123076831	0.037933475
2020-04-16T09:55:00	0.2368	7.760	184.0	0.591188317	0.727431139	0.011849529	0.122249407	0.037678455
2020-04-16T10:00:00	0.2364	7.858	184.0	0.590033536	0.725748232	0.011806715	0.121807706	0.037542318
2020-04-16T10:05:00	0.2369	7.946	184.0	0.591646918	0.728099785	0.011866554	0.122425049	0.037732589
2020-04-16T10:10:00	0.2369	8.037	185.0	0.591587593	0.728013278	0.011864351	0.122402320	0.037725584
2020-04-16T10:15:00	0.2370	8.116	185.0	0.591862730	0.728414502	0.011874570	0.122507748	0.037758078
2020-04-16T10:20:00	0.2374	8.194	185.0	0.593475276	0.730767294	0.011934553	0.123126585	0.037948809
2020-04-16T10:25:00	0.2363	8.308	186.0	0.589736765	0.725315916	0.011795725	0.121694324	0.037507372
2020-04-16T10:30:00	0.2364	8.415	186.0	0.590012046	0.725716925	0.011805919	0.121799494	0.037539787
2020-04-16T10:35:00	0.2366	8.492	187.0	0.590621887	0.726605520	0.011828519	0.122032646	0.037611647
2020-04-16T10:40:00	0.2362	8.597	187.0	0.589224009	0.724569140	0.011776749	0.121498552	0.037447034
2020-04-16T10:45:00	0.2360	8.701	188.0	0.588829924	0.723995345	0.011762176	0.121348199	0.037400693
2020-04-16T10:50:00	0.2358	8.758	188.0	0.588101007	0.722934369	0.011735244	0.121070350	0.037315058
2020-04-16T10:55:00	0.2356	8.818	188.0	0.587371938	0.721873615	0.011708339	0.120792771	0.037229505
2020-04-16T11:00:00	0.2364	8.911	189.0	0.589990557	0.725685619	0.011805123	0.121791282	0.037537256
2020-04-16T11:05:00	0.2364	9.013	189.0	0.589931204	0.725599154	0.011802925	0.121768603	0.037530266
2020-04-16T11:10:00	0.2356	9.083	190.0	0.587193744	0.721614420	0.011701767	0.120724976	0.037208610
2020-04-16T11:15:00	0.2361	9.174	190.0	0.589143148	0.724451395	0.011773758	0.121467694	0.037437523
2020-04-16T11:20:00	0.2356	9.328	191.0	0.587409829	0.721928733	0.011709736	0.120807189	0.037233949
2020-04-16T11:25:00	0.2351	9.476	191.0	0.585675656	0.719407332	0.011645861	0.120148205	0.037030844
2020-04-16T11:30:00	0.2350	9.582	191.0	0.585281174	0.718834123	0.011631356	0.119998560	0.036984722
2020-04-16T11:35:00	0.2351	9.668	192.0	0.585556804	0.719234618	0.011641490	0.120103109	0.037016945
2020-04-16T11:40:00	0.2352	9.785	192.0	0.585832412	0.719635144	0.011651628	0.120207696	0.037049179
2020-04-16T11:45:00	0.2352	9.912	193.0	0.586107999	0.720035702	0.011661769	0.120312322	0.037081426
2020-04-16T11:50:00	0.2347	10.039	194.0	0.584373184	0.717515247	0.011598005	0.119654480	0.036878673
2020-04-16T11:55:00	0.2343	10.118	194.0	0.582972822	0.715482532	0.011546665	0.119124810	0.036715423
2020-04-16T12:00:00	0.2345	10.220	195.0	0.583583883	0.716369326	0.011569053	0.119355789	0.036786613
2020-04-16T12:05:00	0.2339	10.341	195.0	0.581512406	0.713364382	0.011493246	0.118573705	0.036545567
2020-04-16T12:10:00	0.2337	10.422	195.0	0.581117457	0.712791861	0.011478822	0.118424891	0.036499701
2020-04-16T12:15:00	0.2333	10.494	196.0	0.579715796	0.710761053	0.011427705	0.117897526	0.036337162
2020-04-16T12:20:00	0.2330	10.569	196.0	0.578649297	0.709216939	0.011388889	0.117497069	0.036213738
2020-04-16T12:25:00	0.2319	10.642	197.0	0.574894983	0.703788820	0.011252785	0.116092907	0.035780962
2020-04-16T12:30:00	0.2329	10.704	196.0	0.578194474	0.708558717	0.011372356	0.117326500	0.036161167
2020-04-16T12:35:00	0.2318	10.765	197.0	0.574439673	0.703131310	0.011236335	0.115923201	0.035728657
2020-04-16T12:40:00	0.2334	10.835	197.0	0.580089353	0.711302125	0.011441317	0.118037956	0.036380444
2020-04-16T12:45:00	0.2323	10.894	197.0	0.576336581	0.705871751	0.011304948	0.116631064	0.035946827
2020-04-16T12:50:00	0.2314	10.937	198.0	0.573252298	0.701417441	0.011193496	0.115481232	0.035592437
2020-04-16T12:55:00	0.2317	10.965	198.0	0.574201202	0.702787005	0.011227725	0.115834368	0.035701277
2020-04-16T13:00:00	0.2313	10.996	198.0	0.572796774	0.700760242	0.011177083	0.115311904	0.035540249
2020-04-16T13:05:00	0.2300	11.060	198.0	0.568362858	0.694372265	0.011017967	0.113670334	0.035034301
2020-04-16T13:10:00	0.2297	11.127	199.0	0.567629676	0.693317530	0.010991768	0.113400044	0.034950995
2020-04-16T13:15:00	0.2292	11.177	199.0	0.565885692	0.690810467	0.010929577	0.112758433	0.034753244
2020-04-16T13:20:00	0.2289	11.223	199.0	0.564814971	0.689272498	0.010891484	0.112365433	0.034632118
2020-04-16T13:25:00	0.2280	11.258	199.0	0.561720506	0.684832963	0.010781772	0.111233556	0.034283262
2020-04-16T13:30:00	0.2292	11.275	200.0	0.565706403	0.690552872	0.010923194	0.112692577	0.034732947
2020-04-16T13:35:00	0.2289	11.285	200.0	0.564972663	0.689498945	0.010897090	0.112423269	0.034649943
2020-04-16T13:40:00	0.2289	11.288	200.0	0.564912885	0.689413101	0.010894965	0.112401342	0.034643185
2020-04-16T13:45:00	0.2277	11.290	200.0	0.560806386	0.683523015	0.010749471	0.110900309	0.034180552
2020-04-16T13:50:00	0.2283	11.289	200.0	0.562770519	0.686338499	0.010818936	0.111616971	0.034401434
2020-04-16T13:55:00	0.2280	11.274	200.0	0.561698842	0.684801911	0.010781006	0.111225652	0.034280826
2020-04-16T14:00:00	0.2280	11.257	200.0	0.561639008	0.684716148	0.010778890	0.111203825	0.034274099
2020-04-16T14:05:00	0.2267	11.237	200.0	0.557528649	0.678831621	0.010634053	0.109709567	0.033813554
2020-04-16T14:10:00	0.2275	11.218	200.0	0.560169663	0.682610986	0.010727001	0.110668488	0.034109103
2020-04-16T14:15:00	0.2273	11.200	199.0	0.559434758	0.681558739	0.010701095	0.110401227	0.034026730
2020-04-16T14:20:00	0.2271	11.176	200.0	0.558699698	0.680506715	0.010675216	0.110134238	0.033944442
2020-04-16T14:25:00	0.2277	11.142	199.0	0.560665017	0.683320491	0.010744480	0.110848817	0.034164682
2020-04-16T14:30:00	0.2269	11.113	199.0	0.557904584	0.679369244	0.010647259	0.109845806	0.033855544
2020-04-16T14:35:00	0.2269	11.084	199.0	0.558182378	0.679766591	0.010657022	0.109946534	0.033886590
2020-04-16T14:40:00	0.2261	11.057	199.0	0.555419977	0.675818171	0.010560136	0.108946974	0.033578516
2020-04-16T14:45:00	0.2269	11.033	199.0	0.558062589	0.679595240	0.010652812	0.109903093	0.033873201
2020-04-16T14:50:00	0.2267	11.013	199.0	0.557327239	0.678543632	0.010626982	0.109636611	0.033791068
2020-04-16T14:55:00	0.2277	10.993	199.0	0.560643347	0.683289448	0.010743715	0.110840925	0.034162250
2020-04-16T15:00:00	0.2272	10.970	198.0	0.559233457	0.681270592	0.010694005	0.110328078	0.034004185
2020-04-16T15:05:00	0.2286	10.942	198.0	0.563896508	0.687953982	0.010858862	0.112028874	0.034528387
2020-04-16T15:10:00	0.2282	10.909	198.0	0.562487933	0.685933232	0.010808928	0.111513718	0.034369611
2020-04-16T15:15:00	0.2286	10.875	198.0	0.563776914	0.687782349	0.010854618	0.111985088	0.034514892
2020-04-16T15:20:00	0.2294	10.843	198.0	0.566413203	0.691568525	0.010948369	0.112952308	0.034812998
2020-04-16T15:25:00	0.2296	10.808	198.0	0.567027158	0.692451096	0.010970262	0.113178168	0.034882610
2020-04-16T15:30:00	0.2299	10.764	198.0	0.568314465	0.694302634	0.011016237	0.113652484	0.035028799
2020-04-16T15:35:00	0.2298	10.722	198.0	0.567918025	0.693732287	0.011002068	0.113506305	0.034983746
2020-04-16T15:40:00	0.2303	10.681	198.0	0.569541600	0.696068901	0.011060154	0.114105570	0.035168445
2020-04-16T15:45:00	0.2300	10.644	197.0	0.568471999	0.694529309	0.011021870	0.113710598	0.035046710
2020-04-16T15:50:00	0.2297	10.610	197.0	0.567402070	0.692990193	0.010983641	0.113316202	0.034925154
2020-04-16T15:55:00	0.2298	10.575	197.0	0.568015852	0.693873016	0.011005563	0.113542368	0.034994861
2020-04-16T16:00:00	0.2283	10.538	197.0	0.562901490	0.686526354	0.010823576	0.111664842	0.034416189
2020-04-16T16:05:00	0.2285	10.501	196.0	0.563486429	0.687365512	0.010844312	0.111878772	0.034482124
2020-04-16T16:10:00	0.2272	10.463	196.0	0.559011000	0.680952200	0.010686172	0.110247270	0.033979279
2020-04-16T16:15:00	0.2272	10.426	196.0	0.558921448	0.680824039	0.010683020	0.110214748	0.033969256
2020-04-16T16:20:00	0.2274	10.390	196.0	0.559844586	0.682145483	0.010715538	0.110550228	0.034072654
2020-04-16T16:25:00	0.2268	10.355	196.0	0.557729321	0.679118587	0.010641101	0.109782280	0.033835965
2020-04-16T16:30:00	0.2262	10.321	196.0	0.555612771	0.676093536	0.010566883	0.109016586	0.033599970
2020-04-16T16:35:00	0.2258	10.292	196.0	0.554509179	0.674517704	0.010528290	0.108618423	0.033477253
2020-04-16T16:40:00	0.2244	10.265	196.0	0.549683702	0.667639097	0.010360379	0.106886120	0.032943340
2020-04-16T16:45:00	0.2247	10.239	195.0	0.550609295	0.668957027	0.010392481	0.107217306	0.033045415
2020-04-16T16:50:00	0.2237	10.212	195.0	0.547133662	0.664011791	0.010272198	0.105976375	0.032662948
2020-04-16T16:55:00	0.2237	10.187	195.0	0.547382547	0.664365582	0.010280788	0.106064993	0.032690261
2020-04-16T17:00:00	0.2233	10.162	195.0	0.545937486	0.662312124	0.010230966	0.105550986	0.032531839
2020-04-16T17:05:00	0.2230	10.137	195.0	0.544830815	0.660740682	0.010192893	0.105158198	0.032410778
2020-04-16T17:10:00	0.2231	10.110	195.0	0.545079865	0.661094239	0.010201455	0.105246528	0.032438002
2020-04-16T17:15:00	0.2232	10.081	195.0	0.545667808	0.661929097	0.010221681	0.105455202	0.032502317
2020-04-16T17:20:00	0.2226	10.053	195.0	0.543543893	0.658914549	0.010148709	0.104702365	0.032270286
2020-04-16T17:25:00	0.2219	10.023	195.0	0.541079349	0.655421159	0.010064366	0.103832205	0.032002094
2020-04-16T17:30:00	0.2222	9.992	194.0	0.542007241	0.656735825	0.010096079	0.104159386	0.032102934
2020-04-16T17:35:00	0.2213	9.961	194.0	0.539202090	0.652763555	0.010000359	0.103171859	0.031798569
2020-04-16T17:40:00	0.2214	9.932	194.0	0.539451545	0.653116539	0.010008852	0.103259485	0.031825576
2020-04-16T17:45:00	0.2214	9.900	194.0	0.539361487	0.652989098	0.010005786	0.103227846	0.031815825
2020-04-16T17:50:00	0.2221	9.870	193.0	0.541986530	0.656706473	0.010095371	0.104152078	0.032100682
2020-04-16T17:55:00	0.2214	9.838	193.0	0.539520876	0.653214652	0.010011214	0.103283845	0.031833084
2020-04-16T18:00:00	0.2225	9.807	193.0	0.543163367	0.658374844	0.010135664	0.104567772	0.032228803
2020-04-16T18:05:00	0.2226	9.774	193.0	0.543412536	0.658728231	0.010144205	0.104655894	0.032255963
2020-04-16T18:10:00	0.2225	9.740	193.0	0.543322581	0.658600644	0.010141121	0.104624075	0.032246156
2020-04-16T18:15:00	0.2222	9.707	193.0	0.542215075	0.657030386	0.010103189	0.104232741	0.032125543
2020-04-16T18:20:00	0.2221	9.674	193.0	0.541785830	0.656422059	0.010088507	0.104081268	0.032078858
2020-04-16T18:25:00	0.2227	9.639	193.0	0.543730934	0.659179875	0.010155125	0.104768553	0.032290686
2020-04-16T18:30:00	0.2226	9.604	193.0	0.543640987	0.659052277	0.010152040	0.104736721	0.032280874
2020-04-16T18:35:00	0.2236	9.570	193.0	0.546940397	0.663737098	0.010265531	0.105907587	0.032641747
2020-04-16T18:40:00	0.2241	9.535	192.0	0.548544015	0.666017290	0.010320921	0.106479042	0.032817875
2020-04-16T18:45:00	0.2249	9.499	192.0	0.551162117	0.669744514	0.010411678	0.107415359	0.033106457
2020-04-16T18:50:00	0.2244	9.464	192.0	0.549718629	0.667688817	0.010361589	0.106898608	0.032947189
2020-04-16T18:55:00	0.2241	9.426	192.0	0.548613164	0.666115660	0.010323313	0.106503719	0.032825480
2020-04-16T19:00:00	0.2241	9.387	192.0	0.548523343	0.665987883	0.010320206	0.106471666	0.032815601
2020-04-16T19:05:00	0.2243	9.352	192.0	0.549110703	0.666823571	0.010340531	0.106681356	0.032880230
2020-04-16T19:10:00	0.2239	9.317	192.0	0.548005045	0.665250690	0.010302288	0.106286804	0.032758625
2020-04-16T19:15:00	0.2239	9.281	191.0	0.547915208	0.665122935	0.010299184	0.106254779	0.032748755
2020-04-16T19:20:00	0.2237	9.244	191.0	0.547147935	0.664032078	0.010272691	0.105981456	0.032664514
2020-04-16T19:25:00	0.2236	9.207	191.0	0.547058076	0.663904355	0.010269590	0.105949469	0.032654655
2020-04-16T19:30:00	0.2232	9.172	191.0	0.545612880	0.661851089	0.010219791	0.105435698	0.032496306
2020-04-16T19:35:00	0.2241	9.133	191.0	0.548571821	0.666056845	0.010321883	0.106488965	0.032820933
2020-04-16T19:40:00	0.2244	9.097	190.0	0.549497710	0.667374353	0.010353934	0.106819633	0.032922848
2020-04-16T19:45:00	0.2242	9.061	191.0	0.549069366	0.666764747	0.010339100	0.106666592	0.032875679
2020-04-16T19:50:00	0.2237	9.026	190.0	0.547286287	0.664228742	0.010277465	0.106030714	0.032679696
2020-04-16T19:55:00	0.2249	8.992	190.0	0.551258998	0.669882544	0.010415044	0.107450086	0.033117160
2020-04-16T20:00:00	0.2248	8.958	190.0	0.550830871	0.669272629	0.010400173	0.107296665	0.033069874
2020-04-16T20:05:00	0.2247	8.923	189.0	0.550741108	0.669144770	0.010397056	0.107264512	0.033059964
2020-04-16T20:10:00	0.2245	8.886	190.0	0.549974459	0.668053024	0.010370458	0.106990100	0.032975388
2020-04-16T20:15:00	0.2249	8.850	190.0	0.551238342	0.669853114	0.010414326	0.107442681	0.033114878
2020-04-16T20:20:00	0.2251	8.816	189.0	0.551825243	0.670689456	0.010434729	0.107653173	0.033179753
2020-04-16T20:25:00	0.2249	8.780	189.0	0.551397186	0.670079441	0.010419846	0.107499630	0.033132430
2020-04-16T20:30:00	0.2246	8.745	189.0	0.550292255	0.668505523	0.010381479	0.107103808	0.033010434
2020-04-16T20:35:00	0.2249	8.711	189.0	0.551217686	0.669823684	0.010413608	0.107435277	0.033112596
2020-04-16T20:40:00	0.2246	8.677	189.0	0.550451143	0.668731788	0.010386992	0.107160681	0.033027963
2020-04-16T20:45:00	0.2236	8.643	188.0	0.546975352	0.663786778	0.010266736	0.105920026	0.032645581
2020-04-16T20:50:00	0.2237	8.610	188.0	0.547224248	0.664140553	0.010275324	0.106008625	0.032672888
2020-04-16T20:55:00	0.2232	8.575	188.0	0.545440220	0.661605897	0.010213849	0.105374401	0.032477414
2020-04-16T21:00:00	0.2231	8.543	188.0	0.545350317	0.661478236	0.010210756	0.105342491	0.032467579
2020-04-16T21:05:00	0.2232	8.510	188.0	0.545599330	0.661831846	0.010219324	0.105430887	0.032494823
2020-04-16T21:10:00	0.2236	8.476	188.0	0.546864807	0.663629668	0.010262923	0.105880688	0.032633456
2020-04-16T21:15:00	0.2229	8.444	187.0	0.544402624	0.660132931	0.010178181	0.105006419	0.032363998
2020-04-16T21:20:00	0.2233	8.410	187.0	0.546007416	0.662411456	0.010233374	0.105575831	0.032539496
2020-04-16T21:25:00	0.2238	8.376	187.0	0.547611465	0.664691036	0.010288692	0.106146535	0.032715393
2020-04-16T21:30:00	0.2239	8.342	187.0	0.547860315	0.665044876	0.010297287	0.106235213	0.032742724
2020-04-16T21:35:00	0.2231	8.308	187.0	0.545059902	0.661065896	0.010200768	0.105239446	0.032435819
2020-04-16T21:40:00	0.2231	8.276	187.0	0.545308935	0.661419476	0.010209333	0.105327805	0.032463052
2020-04-16T21:45:00	0.2235	8.243	186.0	0.546574518	0.663217148	0.010252914	0.105777422	0.032601629
2020-04-16T21:50:00	0.2240	8.210	186.0	0.548178305	0.665497100	0.010308276	0.106348583	0.032777666
2020-04-16T21:55:00	0.2236	8.178	186.0	0.547072350	0.663924642	0.010270083	0.105954550	0.032656221
2020-04-16T22:00:00	0.2229	8.146	186.0	0.544610314	0.660427696	0.010185316	0.105080024	0.032386684
2020-04-16T22:05:00	0.2228	8.114	186.0	0.544325366	0.660023291	0.010175528	0.104979046	0.032355562
2020-04-16T22:10:00	0.2234	8.085	186.0	0.546074120	0.662506211	0.010235671	0.105599533	0.032546802
2020-04-16T22:15:00	0.2226	8.055	186.0	0.543416300	0.658733569	0.010144334	0.104657225	0.032256373
2020-04-16T22:20:00	0.2232	8.022	185.0	0.545504441	0.661697093	0.010216059	0.105397198	0.032484440
2020-04-16T22:25:00	0.2241	7.991	185.0	0.548607296	0.666107313	0.010323110	0.106501625	0.032824835
2020-04-16T22:30:00	0.2231	7.960	185.0	0.545273618	0.661369329	0.010208118	0.105315272	0.032459190
2020-04-16T22:35:00	0.2238	7.930	185.0	0.547699353	0.664815998	0.010291727	0.106177850	0.032725044
2020-04-16T22:40:00	0.2239	7.899	184.0	0.548092041	0.665374412	0.010305294	0.106317822	0.032768185
2020-04-16T22:45:00	0.2231	7.869	185.0	0.545096834	0.661118330	0.010202038	0.105252548	0.032439857
2020-04-16T22:50:00	0.2240	7.839	185.0	0.548200053	0.665528031	0.010309028	0.106356339	0.032780057
2020-04-16T22:55:00	0.2238	7.810	185.0	0.547576708	0.664641619	0.010287491	0.106134152	0.032711577
2020-04-16T23:00:00	0.2240	7.781	185.0	0.548308063	0.665681656	0.010312762	0.106394862	0.032791930
2020-04-16T23:05:00	0.2244	7.751	184.0	0.549716329	0.667685542	0.010361510	0.106897786	0.032946936
2020-04-16T23:10:00	0.2247	7.723	184.0	0.550785645	0.669208207	0.010398602	0.107280465	0.033064881
2020-04-16T23:15:00	0.2256	7.694	184.0	0.553545677	0.673142726	0.010494654	0.108271406	0.033370299
2020-04-16T23:20:00	0.2256	7.667	184.0	0.553599599	0.673219656	0.010496535	0.108290812	0.033376280
2020-04-16T23:25:00	0.2247	7.640	184.0	0.550609141	0.668956808	0.010392475	0.107217251	0.033045398
2020-04-16T23:30:00	0.2256	7.613	184.0	0.553707441	0.673373520	0.010500297	0.108329628	0.033388243
2020-04-16T23:35:00	0.2258	7.590	184.0	0.554437506	0.674415396	0.010525786	0.108592589	0.033469291
2020-04-16T23:40:00	0.2250	7.564	184.0	0.551786084	0.670633644	0.010433367	0.107639122	0.033175423
2020-04-16T23:45:00	0.2251	7.538	183.0	0.551840033	0.670710536	0.010435243	0.107658480	0.033181389
2020-04-16T23:50:00	0.2252	7.511	183.0	0.552232253	0.671269616	0.010448890	0.107799269	0.033224781
2020-04-16T23:55:00	0.2247	7.488	183.0	0.550594538	0.668936009	0.010391968	0.107212022	0.033043786
2020-04-17T00:00:00	0.2243	7.464	183.0	0.549294607	0.667085284	0.010346899	0.106747053	0.032900479
2020-04-17T00:05:00	0.2240	7.439	183.0	0.548332840	0.665716899	0.010313618	0.106403700	0.032794654
2020-04-17T00:10:00	0.2241	7.415	183.0	0.548725456	0.666275414	0.010327198	0.106543798	0.032837833
2020-04-17T00:15:00	0.2238	7.391	183.0	0.547424825	0.664425686	0.010282247	0.106080051	0.032694902
2020-04-17T00:20:00	0.2240	7.367	182.0	0.548156212	0.665465677	0.010307512	0.106340704	0.032775238
2020-04-17T00:25:00	0.2236	7.340	182.0	0.546855368	0.663616253	0.010262598	0.105877330	0.032632421
2020-04-17T00:30:00	0.2235	7.315	182.0	0.546570604	0.663211586	0.010252779	0.105776030	0.032601200
2020-04-17T00:35:00	0.2228	7.289	183.0	0.544252214	0.659919484	0.010173016	0.104953131	0.032347574
2020-04-17T00:40:00	0.2228	7.263	182.0	0.544306281	0.659996208	0.010174873	0.104972285	0.032353478
2020-04-17T00:45:00	0.2224	7.236	182.0	0.543003991	0.658148835	0.010130202	0.104511427	0.032211437
2020-04-17T00:50:00	0.2222	7.210	182.0	0.542040478	0.656782930	0.010097216	0.104171116	0.032106550
2020-04-17T00:55:00	0.2209	7.188	181.0	0.537681591	0.650613119	0.009948667	0.102638565	0.031634203
2020-04-17T01:00:00	0.2208	7.164	182.0	0.537396072	0.650209521	0.009938976	0.102538579	0.031603386
2020-04-17T01:05:00	0.2206	7.141	183.0	0.536770779	0.649325865	0.009917767	0.102319779	0.031535949
2020-04-17T01:10:00	0.2214	7.116	182.0	0.539541986	0.653244527	0.010011933	0.103291263	0.031835371
2020-04-17T01:15:00	0.2225	7.090	182.0	0.543328496	0.658609034	0.010141324	0.104626168	0.032246801
2020-04-17T01:20:00	0.2217	7.065	181.0	0.540329167	0.654358794	0.010038763	0.103568065	0.031920684
2020-04-17T01:25:00	0.2205	7.041	181.0	0.536307951	0.648672008	0.009902084	0.102157979	0.031486081
2020-04-17T01:30:00	0.2208	7.016	181.0	0.537381412	0.650188801	0.009938478	0.102533447	0.031601804
2020-04-17T01:35:00	0.2212	6.994	181.0	0.538794125	0.652186387	0.009986476	0.103028634	0.031754426
2020-04-17T01:40:00	0.2213	6.971	181.0	0.539187823	0.652743369	0.009999873	0.103166849	0.031797025
2020-04-17T01:45:00	0.2211	6.947	181.0	0.538562854	0.651859256	0.009978611	0.102947486	0.031729415
2020-04-17T01:50:00	0.2207	6.924	181.0	0.536918666	0.649534829	0.009922781	0.102371506	0.031551892
2020-04-17T01:55:00	0.2203	6.901	181.0	0.535613592	0.647691386	0.009878579	0.101915481	0.031411341
2020-04-17T02:00:00	0.2206	6.879	180.0	0.536687269	0.649207875	0.009914937	0.102290575	0.031526949
2020-04-17T02:05:00	0.2219	6.857	180.0	0.541155642	0.655529227	0.010066971	0.103859087	0.032010379
2020-04-17T02:10:00	0.2205	6.837	180.0	0.536455858	0.648880944	0.009907095	0.102209672	0.031502013
2020-04-17T02:15:00	0.2215	6.817	180.0	0.539906302	0.653760159	0.010024345	0.103419324	0.031874840
2020-04-17T02:20:00	0.2211	6.798	180.0	0.538262752	0.651434830	0.009968409	0.102842235	0.031696976
2020-04-17T02:25:00	0.2215	6.774	180.0	0.539675105	0.653432923	0.010016467	0.103338047	0.031849790
2020-04-17T02:30:00	0.2209	6.752	180.0	0.537691786	0.650627532	0.009949013	0.102642137	0.031635303
2020-04-17T02:35:00	0.2214	6.729	180.0	0.539443893	0.653105710	0.010008592	0.103256796	0.031824747
2020-04-17T02:40:00	0.2206	6.709	180.0	0.536780977	0.649340275	0.009918113	0.102323345	0.031537049
2020-04-17T02:45:00	0.2211	6.686	180.0	0.538533545	0.651817802	0.009977614	0.102937205	0.031726246
2020-04-17T02:50:00	0.2217	6.668	180.0	0.540624631	0.654777159	0.010048843	0.103672058	0.031952735
2020-04-17T02:55:00	0.2216	6.648	179.0	0.539999922	0.653892680	0.010027536	0.103452245	0.031884987
2020-04-17T03:00:00	0.2212	6.626	180.0	0.538696011	0.652047600	0.009983139	0.102994204	0.031743814
2020-04-17T03:05:00	0.2209	6.604	180.0	0.537731297	0.650683389	0.009950355	0.102655977	0.031639569
2020-04-17T03:10:00	0.2212	6.581	179.0	0.538804317	0.652200804	0.009986823	0.103032211	0.031755528
2020-04-17T03:15:00	0.2206	6.561	179.0	0.536820498	0.649396117	0.009919453	0.102337168	0.031541309
2020-04-17T03:20:00	0.2218	6.538	179.0	0.540949359	0.655237042	0.010059927	0.103786411	0.031987980
2020-04-17T03:25:00	0.2212	6.518	179.0	0.538627202	0.651950272	0.009980799	0.102970061	0.031736373
2020-04-17T03:30:00	0.2218	6.495	179.0	0.540718232	0.654909708	0.010052037	0.103705013	0.031962892
2020-04-17T03:35:00	0.2226	6.473	179.0	0.543486281	0.658832830	0.010146734	0.104681982	0.032264003
2020-04-17T03:40:00	0.2220	6.451	178.0	0.541505146	0.656024354	0.010078912	0.103982279	0.032048348
2020-04-17T03:45:00	0.2226	6.429	179.0	0.543594438	0.658986246	0.010150443	0.104720249	0.032275798
2020-04-17T03:50:00	0.2220	6.408	178.0	0.541613364	0.656177682	0.010082611	0.104020439	0.032060109
2020-04-17T03:55:00	0.2219	6.385	178.0	0.540988833	0.655292951	0.010061275	0.103800316	0.031992265
2020-04-17T04:00:00	0.2219	6.364	178.0	0.541042951	0.655369604	0.010063123	0.103819381	0.031998142
2020-04-17T04:05:00	0.2214	6.343	178.0	0.539393865	0.653034916	0.010006888	0.103239220	0.031819330
2020-04-17T04:10:00	0.2216	6.324	178.0	0.540120874	0.654063903	0.010031660	0.103494785	0.031898098
2020-04-17T04:15:00	0.2224	6.303	178.0	0.542883332	0.657977743	0.010126068	0.104468779	0.032198292
2020-04-17T04:20:00	0.2223	6.284	177.0	0.542592171	0.657564934	0.010116097	0.104365904	0.032166585
2020-04-17T04:25:00	0.2227	6.263	178.0	0.543996692	0.659556912	0.010164244	0.104862634	0.032319682
2020-04-17T04:30:00	0.2240	6.244	178.0	0.548110951	0.665401306	0.010305948	0.106324565	0.032770263
2020-04-17T04:35:00	0.2231	6.226	178.0	0.545109694	0.661136589	0.010202480	0.105257110	0.032441264
2020-04-17T04:40:00	0.2243	6.208	177.0	0.549222634	0.666982856	0.010344407	0.106721340	0.032892553
2020-04-17T04:45:00	0.2243	6.190	178.0	0.549270565	0.667051068	0.010346067	0.106738464	0.032897831
2020-04-17T04:50:00	0.2250	6.172	177.0	0.551687455	0.670493081	0.010429937	0.107603736	0.033164517
2020-04-17T04:55:00	0.2249	6.156	178.0	0.551397033	0.670079223	0.010419841	0.107499575	0.033132413
2020-04-17T05:00:00	0.2253	6.140	177.0	0.552797995	0.672076262	0.010468590	0.108002508	0.033287422
2020-04-17T05:05:00	0.2256	6.125	177.0	0.553522200	0.673109233	0.010493835	0.108262958	0.033367695
2020-04-17T05:10:00	0.2259	6.110	177.0	0.554584297	0.674624934	0.010530914	0.108645501	0.033485599
2020-04-17T05:15:00	0.2266	6.096	177.0	0.556997498	0.678072221	0.010615410	0.109517224	0.033754272
2020-04-17T05:20:00	0.2271	6.084	177.0	0.558733846	0.680555579	0.010676418	0.110146634	0.033948262
2020-04-17T05:25:00	0.2276	6.072	177.0	0.560469330	0.683040181	0.010737573	0.110777561	0.034142720
2020-04-17T05:30:00	0.2282	6.061	177.0	0.562541221	0.686009648	0.010810815	0.111533185	0.034375611
2020-04-17T05:35:00	0.2286	6.050	177.0	0.563937708	0.688013112	0.010860324	0.112043960	0.034533037
2020-04-17T05:40:00	0.2296	6.041	177.0	0.567018154	0.692438151	0.010969941	0.113174854	0.034881589
2020-04-17T05:45:00	0.2287	6.034	177.0	0.564033164	0.688150118	0.010863712	0.112078918	0.034543811
2020-04-17T05:50:00	0.2287	6.029	177.0	0.564080892	0.688218622	0.010865407	0.112096398	0.034549198
2020-04-17T05:55:00	0.2285	6.024	177.0	0.563454351	0.687319485	0.010843175	0.111867035	0.034478507
2020-04-17T06:00:00	0.2291	6.021	177.0	0.565524471	0.690291508	0.010916718	0.112625771	0.034712356
2020-04-17T06:05:00	0.2287	6.017	177.0	0.564224070	0.688424140	0.010870490	0.112148846	0.034565363
2020-04-17T06:10:00	0.2289	6.016	177.0	0.564945905	0.689460518	0.010896139	0.112413453	0.034646918
2020-04-17T06:15:00	0.2288	6.016	177.0	0.564319519	0.688561156	0.010873880	0.112183817	0.034576142
2020-04-17T06:20:00	0.2289	6.014	177.0	0.564704304	0.689113591	0.010887551	0.112324853	0.034619611
2020-04-17T06:25:00	0.2283	6.016	177.0	0.562729190	0.686279225	0.010817472	0.111601867	0.034396779
2020-04-17T06:30:00	0.2283	6.017	176.0	0.562776936	0.686347703	0.010819164	0.111619316	0.034402157
2020-04-17T06:35:00	0.2280	6.020	176.0	0.561812852	0.684965335	0.010785038	0.111267249	0.034293647
2020-04-17T06:40:00	0.2283	6.026	177.0	0.562872424	0.686484662	0.010822547	0.111654218	0.034412914
2020-04-17T06:45:00	0.2281	6.032	177.0	0.562245666	0.685585839	0.010800352	0.111425236	0.034342340
2020-04-17T06:50:00	0.2284	6.040	177.0	0.562967910	0.686621626	0.010825930	0.111689124	0.034423673
2020-04-17T06:55:00	0.2288	6.051	177.0	0.564364226	0.688625336	0.010875468	0.112200199	0.034581191
2020-04-17T07:00:00	0.2288	6.064	177.0	0.564411949	0.688693847	0.010877163	0.112217687	0.034586581
2020-04-17T07:05:00	0.2287	6.080	177.0	0.564122586	0.688278468	0.010866887	0.112111670	0.034553905
2020-04-17T07:10:00	0.2290	6.100	177.0	0.565181457	0.689798807	0.010904515	0.112499870	0.034673553
2020-04-17T07:15:00	0.2285	6.121	177.0	0.563543787	0.687447813	0.010846347	0.111899761	0.034488593
2020-04-17T07:20:00	0.2284	6.147	177.0	0.563254352	0.687032538	0.010836083	0.111793870	0.034455956
2020-04-17T07:25:00	0.2285	6.177	178.0	0.563302090	0.687101027	0.010837775	0.111811331	0.034461338
2020-04-17T07:30:00	0.2294	6.208	177.0	0.566383097	0.691525256	0.010947296	0.112941239	0.034809587
2020-04-17T07:35:00	0.2288	6.247	178.0	0.564408933	0.688689517	0.010877056	0.112216582	0.034586240
2020-04-17T07:40:00	0.2285	6.304	179.0	0.563445300	0.687306499	0.010842854	0.111863723	0.034477486
2020-04-17T07:45:00	0.2293	6.356	178.0	0.566189295	0.691246731	0.010940391	0.112869995	0.034787629
2020-04-17T07:50:00	0.2288	6.400	178.0	0.564552098	0.688895054	0.010882142	0.112269054	0.034602413
2020-04-17T07:55:00	0.2287	6.443	179.0	0.564262746	0.688479658	0.010871864	0.112163016	0.034569731
2020-04-17T08:00:00	0.2284	6.504	178.0	0.563299073	0.687096698	0.010837668	0.111810228	0.034460998
2020-04-17T08:05:00	0.2284	6.577	179.0	0.563009617	0.686681453	0.010827408	0.111704372	0.034428372
2020-04-17T08:10:00	0.2294	6.653	179.0	0.566427778	0.691589474	0.010948889	0.112957667	0.034814650
2020-04-17T08:15:00	0.2291	6.724	179.0	0.565464702	0.690205650	0.010914591	0.112603828	0.034705593
2020-04-17T08:20:00	0.2289	6.792	180.0	0.564838410	0.689306154	0.010892317	0.112374028	0.034634767
2020-04-17T08:25:00	0.2297	6.868	180.0	0.567581311	0.693247969	0.010990041	0.113382225	0.034945503
2020-04-17T08:30:00	0.2287	6.957	181.0	0.564259730	0.688475329	0.010871757	0.112161911	0.034569390
2020-04-17T08:35:00	0.2289	7.054	181.0	0.564981557	0.689511717	0.010897406	0.112426531	0.034650949
2020-04-17T08:40:00	0.2292	7.156	182.0	0.565703235	0.690548321	0.010923081	0.112691414	0.034732588
2020-04-17T08:45:00	0.2293	7.236	182.0	0.566087868	0.691100976	0.010936778	0.112832718	0.034776140
2020-04-17T08:50:00	0.2294	7.313	182.0	0.566472459	0.691653693	0.010950481	0.112974097	0.034819714
2020-04-17T08:55:00	0.2296	7.386	183.0	0.567193829	0.692690742	0.010976209	0.113239522	0.034901520
2020-04-17T09:00:00	0.2295	7.457	183.0	0.566904696	0.692275030	0.010965893	0.113133099	0.034868720
2020-04-17T09:05:00	0.2299	7.534	183.0	0.568299439	0.694281015	0.011015700	0.113646942	0.035027091
2020-04-17T09:10:00	0.2299	7.618	183.0	0.568347109	0.694349603	0.011017404	0.113664525	0.035032510
2020-04-17T09:15:00	0.2297	7.692	184.0	0.567384562	0.692965014	0.010983016	0.113309754	0.034923167
2020-04-17T09:20:00	0.2298	7.767	184.0	0.567769010	0.693517937	0.010996744	0.113451384	0.034966818
2020-04-17T09:25:00	0.2299	7.862	185.0	0.568153415	0.694070921	0.011010480	0.113593089	0.035010493
2020-04-17T09:30:00	0.2299	7.978	185.0	0.568201086	0.694139506	0.011012184	0.113610668	0.035015911
2020-04-17T09:35:00	0.2289	8.108	186.0	0.564880095	0.689366013	0.010893799	0.112389316	0.034639479
2020-04-17T09:40:00	0.2289	8.240	186.0	0.564927811	0.689434534	0.010895495	0.112406817	0.034644873
2020-04-17T09:45:00	0.2297	8.370	187.0	0.567670642	0.693376450	0.010993231	0.113415137	0.034955647
2020-04-17T09:50:00	0.2296	8.492	187.0	0.567044745	0.692476382	0.010970889	0.113184641	0.034884606
2020-04-17T09:55:00	0.2292	8.600	188.0	0.565744910	0.690608195	0.010924565	0.112706720	0.034737306
2020-04-17T10:00:00	0.2293	8.693	188.0	0.566129538	0.691160857	0.010938262	0.112848032	0.034780859
2020-04-17T10:05:00	0.2285	8.776	188.0	0.563525686	0.687421841	0.010845705	0.111893137	0.034486551
2020-04-17T10:10:00	0.2290	8.853	189.0	0.565303483	0.689974073	0.010908855	0.112544651	0.034687354
2020-04-17T10:15:00	0.2290	8.930	189.0	0.565058892	0.689622780	0.010900156	0.112454901	0.034659693
2020-04-17T10:20:00	0.2274	9.023	189.0	0.559755093	0.682017345	0.010712383	0.110517682	0.034062623
2020-04-17T10:25:00	0.2286	9.104	190.0	0.563895477	0.687952502	0.010858825	0.112028496	0.034528271
2020-04-17T10:30:00	0.2286	9.188	190.0	0.563650787	0.687601352	0.010850142	0.111938920	0.034500662
2020-04-17T10:35:00	0.2286	9.274	191.0	0.563743235	0.687734017	0.010853423	0.111972759	0.034511092
2020-04-17T10:40:00	0.2289	9.358	191.0	0.564846923	0.689318378	0.010892620	0.112377150	0.034635729
2020-04-17T10:45:00	0.2293	9.438	191.0	0.566287171	0.691387390	0.010943878	0.112905972	0.034798717
2020-04-17T10:50:00	0.2283	9.528	192.0	0.562671857	0.686196997	0.010815441	0.111580916	0.034390322
2020-04-17T10:55:00	0.2277	9.626	192.0	0.560740346	0.683428404	0.010747139	0.110876253	0.034173138
2020-04-17T11:00:00	0.2280	9.717	192.0	0.561844983	0.685011395	0.010786175	0.111278974	0.034297261
2020-04-17T11:05:00	0.2283	9.805	193.0	0.562949271	0.686594890	0.010825269	0.111682310	0.034421572
2020-04-17T11:10:00	0.2279	9.910	192.0	0.561355299	0.684309534	0.010768861	0.111100357	0.034242209
2020-04-17T11:15:00	0.2275	10.024	193.0	0.560098106	0.682508510	0.010724477	0.110642450	0.034101078
2020-04-17T11:20:00	0.2270	10.132	194.0	0.558502829	0.680225031	0.010668291	0.110062787	0.033922420
2020-04-17T11:25:00	0.2270	10.250	195.0	0.558257761	0.679874426	0.010659672	0.109973876	0.033895017
2020-04-17T11:30:00	0.2264	10.384	195.0	0.556323801	0.677109355	0.010591786	0.109273508	0.033679156
2020-04-17T11:35:00	0.2268	10.534	196.0	0.557767572	0.679173290	0.010642445	0.109796143	0.033840238
2020-04-17T11:40:00	0.2260	10.684	196.0	0.555157466	0.675443279	0.010550952	0.108852227	0.033549314
2020-04-17T11:45:00	0.2257	10.826	197.0	0.553898032	0.673645470	0.010506948	0.108398246	0.033409392
2020-04-17T11:50:00	0.2253	10.971	197.0	0.552638142	0.671848315	0.010463021	0.107945062	0.033269717
2020-04-17T11:55:00	0.2257	11.117	199.0	0.554083444	0.673910059	0.010513420	0.108465020	0.033429973
2020-04-17T12:00:00	0.2259	11.244	199.0	0.554852211	0.675007416	0.010540278	0.108742105	0.033515373
2020-04-17T12:05:00	0.2257	11.354	200.0	0.553930773	0.673692190	0.010508091	0.108410035	0.033413026
2020-04-17T12:10:00	0.2255	11.467	200.0	0.553347253	0.672859657	0.010487733	0.108200012	0.033348294
2020-04-17T12:15:00	0.2245	11.570	201.0	0.550056959	0.668170484	0.010373318	0.107019613	0.032984484
2020-04-17T12:20:00	0.2251	11.666	201.0	0.551841643	0.670712829	0.010435299	0.107659057	0.033181567
2020-04-17T12:25:00	0.2256	11.746	201.0	0.553625411	0.673256482	0.010497435	0.108300102	0.033379143
2020-04-17T12:30:00	0.2244	11.814	202.0	0.549658436	0.667603131	0.010359503	0.106877087	0.032940556
2020-04-17T12:35:00	0.2247	11.886	202.0	0.550766596	0.669181074	0.010397941	0.107273642	0.033062778
2020-04-17T12:40:00	0.2245	11.946	202.0	0.549844074	0.667867397	0.010365937	0.106943466	0.032961015
2020-04-17T12:45:00	0.2239	11.994	202.0	0.547905427	0.665109025	0.010298846	0.106251292	0.032747680
2020-04-17T12:50:00	0.2235	12.041	203.0	0.546643361	0.663314972	0.010255287	0.105801907	0.032609175
2020-04-17T12:55:00	0.2234	12.085	203.0	0.546397455	0.662965563	0.010246811	0.105714460	0.032582223
2020-04-17T13:00:00	0.2243	12.120	203.0	0.549199819	0.666950387	0.010343617	0.106713189	0.032890041
2020-04-17T13:05:00	0.2230	12.152	203.0	0.544888827	0.660823033	0.010194887	0.105178770	0.032417118
2020-04-17T13:10:00	0.2232	12.181	204.0	0.545659632	0.661917486	0.010221400	0.105452298	0.032501423
2020-04-17T13:15:00	0.2233	12.199	204.0	0.545752560	0.662049464	0.010224599	0.105485299	0.032511594
2020-04-17T13:20:00	0.2223	12.207	204.0	0.542455053	0.657370551	0.010111402	0.104317474	0.032151659
2020-04-17T13:25:00	0.2229	12.210	204.0	0.544582669	0.660388458	0.010184366	0.105070225	0.032383664
2020-04-17T13:30:00	0.2232	12.195	203.0	0.545692451	0.661964095	0.010222530	0.105463952	0.032505014
2020-04-17T13:35:00	0.2215	12.175	204.0	0.539680104	0.653439998	0.010016638	0.103339804	0.031850331
2020-04-17T13:40:00	0.2217	12.158	203.0	0.540452069	0.654532809	0.010042955	0.103611316	0.031934014
2020-04-17T13:45:00	0.2209	12.133	203.0	0.537828900	0.650821376	0.009953669	0.102690171	0.031650108
2020-04-17T13:50:00	0.2222	12.089	203.0	0.541995483	0.656719161	0.010095677	0.104155237	0.032101656
2020-04-17T13:55:00	0.2207	12.038	203.0	0.536996090	0.649644235	0.009925407	0.102398592	0.031560240
2020-04-17T14:00:00	0.2206	11.992	202.0	0.536749497	0.649295797	0.009917046	0.102312336	0.031533656
2020-04-17T14:05:00	0.2202	11.943	202.0	0.535483358	0.647507504	0.009874174	0.101870031	0.031397333
2020-04-17T14:10:00	0.2202	11.892	202.0	0.535236658	0.647159218	0.009865831	0.101783962	0.031370806
2020-04-17T14:15:00	0.2198	11.849	202.0	0.533969964	0.645371705	0.009823052	0.101342618	0.031234779
2020-04-17T14:20:00	0.2200	11.807	202.0	0.534743205	0.646462720	0.009849155	0.101611917	0.031317780
2020-04-17T14:25:00	0.2193	11.745	201.0	0.532455906	0.643236838	0.009772042	0.100816354	0.031072579
2020-04-17T14:30:00	0.2192	11.691	201.0	0.531868757	0.642409443	0.009752296	0.100612641	0.031009793
2020-04-17T14:35:00	0.2198	11.636	201.0	0.534002893	0.645418158	0.009824163	0.101354079	0.031238311
2020-04-17T14:40:00	0.2195	11.582	201.0	0.533075894	0.644110814	0.009792914	0.101031685	0.031138947
2020-04-17T14:45:00	0.2195	11.529	200.0	0.532829022	0.643762769	0.009784600	0.100945915	0.031112511
2020-04-17T14:50:00	0.2199	11.489	200.0	0.534282608	0.645812776	0.009833602	0.101451460	0.031268325
2020-04-17T14:55:00	0.2203	11.442	200.0	0.535735584	0.647863643	0.009882707	0.101958065	0.031424466
2020-04-17T15:00:00	0.2200	11.397	200.0	0.534809049	0.646555646	0.009851379	0.101634866	0.031324853
2020-04-17T15:05:00	0.2207	11.347	200.0	0.536941370	0.649566911	0.009923551	0.102379448	0.031554340
2020-04-17T15:10:00	0.2201	11.293	200.0	0.534995485	0.646818782	0.009857679	0.101699858	0.031344884
2020-04-17T15:15:00	0.2202	11.234	199.0	0.535428614	0.647430214	0.009872322	0.101850929	0.031391445
2020-04-17T15:20:00	0.2209	11.188	199.0	0.537900225	0.650922217	0.009956092	0.102715163	0.031657811
2020-04-17T15:25:00	0.2204	11.139	199.0	0.535954880	0.648173328	0.009890129	0.102034637	0.031448066
2020-04-17T15:30:00	0.2204	11.087	199.0	0.536048069	0.648304939	0.009893284	0.102067184	0.031458097
2020-04-17T15:35:00	0.2208	11.036	199.0	0.537500302	0.650356849	0.009942513	0.102575074	0.031614634
2020-04-17T15:40:00	0.2209	10.988	199.0	0.537593448	0.650488517	0.009945675	0.102607693	0.031624688
2020-04-17T15:45:00	0.2214	10.942	197.0	0.539384559	0.653021747	0.010006571	0.103235951	0.031818323
2020-04-17T15:50:00	0.2214	10.900	197.0	0.539477655	0.653153488	0.010009742	0.103268659	0.031828404
2020-04-17T15:55:00	0.2217	10.858	198.0	0.540589074	0.654726807	0.010047629	0.103659540	0.031948877
2020-04-17T16:00:00	0.2215	10.819	198.0	0.539663839	0.653416979	0.010016083	0.103334087	0.031848569
2020-04-17T16:05:00	0.2207	10.778	198.0	0.537145391	0.649855224	0.009930470	0.102450833	0.031576342
2020-04-17T16:10:00	0.2202	10.738	198.0	0.535304995	0.647255690	0.009868142	0.101807800	0.031378153
2020-04-17T16:15:00	0.2200	10.699	197.0	0.534823719	0.646576350	0.009851875	0.101639979	0.031326429
2020-04-17T16:20:00	0.2202	10.657	197.0	0.535362243	0.647336510	0.009870078	0.101827772	0.031384308
2020-04-17T16:25:00	0.2200	10.616	196.0	0.534541006	0.646177377	0.009842326	0.101541462	0.031296065
2020-04-17T16:30:00	0.2196	10.580	196.0	0.533379490	0.644538897	0.009803142	0.101137214	0.031171471
2020-04-17T16:35:00	0.2199	10.544	196.0	0.534258270	0.645778437	0.009832781	0.101442985	0.031265713
2020-04-17T16:40:00	0.2192	10.511	196.0	0.532076122	0.642701624	0.009759267	0.100684563	0.031031960
2020-04-17T16:45:00	0.2191	10.479	196.0	0.531594396	0.642022917	0.009743076	0.100517522	0.030980476
2020-04-17T16:50:00	0.2184	10.450	196.0	0.529410563	0.638948467	0.009669846	0.099762015	0.030747622
2020-04-17T16:55:00	0.2185	10.422	196.0	0.529609476	0.639228341	0.009676504	0.099830711	0.030768795
2020-04-17T17:00:00	0.2181	10.395	196.0	0.528105694	0.637113295	0.009626222	0.099311959	0.030608910
2020-04-17T17:05:00	0.2174	10.367	196.0	0.525919648	0.634041936	0.009553362	0.098560272	0.030377233
2020-04-17T17:10:00	0.2177	10.337	195.0	0.526800331	0.635278814	0.009582681	0.098862755	0.030470461
2020-04-17T17:15:00	0.2176	10.304	195.0	0.526658648	0.635079784	0.009577961	0.098814061	0.030455453
2020-04-17T17:20:00	0.2181	10.273	195.0	0.528220428	0.637274603	0.009630054	0.099351490	0.030621094
2020-04-17T17:25:00	0.2178	10.240	195.0	0.527056781	0.635639105	0.009591227	0.098950925	0.030497636
2020-04-17T17:30:00	0.2174	10.208	195.0	0.525892741	0.634004156	0.009552467	0.098551038	0.030374387
2020-04-17T17:35:00	0.2185	10.176	195.0	0.529498374	0.639072015	0.009672785	0.099792339	0.030756968
2020-04-17T17:40:00	0.2180	10.143	195.0	0.527994544	0.636957037	0.009622511	0.099273670	0.030597109
2020-04-17T17:45:00	0.2181	10.111	195.0	0.528193539	0.637236797	0.009629156	0.099342225	0.030618238
2020-04-17T17:50:00	0.2180	10.079	194.0	0.528051913	0.637037688	0.009624426	0.099293431	0.030603200
2020-04-17T17:55:00	0.2195	10.046	194.0	0.533016104	0.644026516	0.009790900	0.101010909	0.031132543
2020-04-17T18:00:00	0.2193	10.014	194.0	0.532194308	0.642868166	0.009763242	0.100725566	0.031044598
2020-04-17T18:05:00	0.2197	9.980	194.0	0.533753584	0.645066489	0.009815754	0.101267323	0.031211572
2020-04-17T18:10:00	0.2213	9.946	194.0	0.539049148	0.652547164	0.009995153	0.103118153	0.031782016
2020-04-17T18:15:00	0.2217	9.912	194.0	0.540605334	0.654749833	0.010048184	0.103665264	0.031950641
2020-04-17T18:20:00	0.2212	9.879	194.0	0.538766780	0.652147704	0.009985546	0.103019038	0.031751468
2020-04-17T18:25:00	0.2214	9.843	193.0	0.539304689	0.652908729	0.010003852	0.103207894	0.031809675
2020-04-17T18:30:00	0.2212	9.810	193.0	0.538823970	0.652228606	0.009987491	0.103039109	0.031757654
2020-04-17T18:35:00	0.2216	9.776	193.0	0.540040829	0.653950589	0.010028931	0.103466632	0.031889421
2020-04-17T18:40:00	0.2217	9.739	192.0	0.540578541	0.654711893	0.010047270	0.103655832	0.031947734
2020-04-17T18:45:00	0.2218	9.700	193.0	0.540776813	0.654992669	0.010054036	0.103725641	0.031969250
2020-04-17T18:50:00	0.2229	9.664	193.0	0.544366952	0.660082307	0.010176956	0.104993780	0.032360103
2020-04-17T18:55:00	0.2230	9.624	192.0	0.544903992	0.660844561	0.010195408	0.105184148	0.032418776
2020-04-17T19:00:00	0.2228	9.585	192.0	0.544085017	0.659682235	0.010167276	0.104893911	0.032329322
2020-04-17T19:05:00	0.2218	9.545	192.0	0.540891127	0.655154567	0.010057939	0.103765900	0.031981658
2020-04-17T19:10:00	0.2224	9.506	192.0	0.542785679	0.657839283	0.010122723	0.104434270	0.032187656
2020-04-17T19:15:00	0.2223	9.467	192.0	0.542644650	0.657639334	0.010117894	0.104384443	0.032172299
2020-04-17T19:20:00	0.2230	9.429	192.0	0.544877232	0.660806573	0.010194488	0.105174658	0.032415851
2020-04-17T19:25:00	0.2228	9.393	191.0	0.544058251	0.659644256	0.010166357	0.104884432	0.032326401
2020-04-17T19:30:00	0.2226	9.352	191.0	0.543578191	0.658963200	0.010149886	0.104714500	0.032274026
2020-04-17T19:35:00	0.2230	9.312	191.0	0.544793381	0.660687544	0.010191606	0.105144924	0.032406687
2020-04-17T19:40:00	0.2225	9.275	191.0	0.543296193	0.658563219	0.010140216	0.104614743	0.032243280
2020-04-17T19:45:00	0.2237	9.236	191.0	0.547222483	0.664138044	0.010275263	0.106007996	0.032672694
2020-04-17T19:50:00	0.2245	9.198	190.0	0.549790630	0.667791314	0.010364085	0.106924354	0.032955124
2020-04-17T19:55:00	0.2240	9.160	190.0	0.548295598	0.665663926	0.010312331	0.106390416	0.032790559
2020-04-17T20:00:00	0.2232	9.123	190.0	0.545444520	0.661612002	0.010213997	0.105375927	0.032477884
2020-04-17T20:05:00	0.2237	9.085	190.0	0.547336585	0.664300243	0.010279201	0.106048625	0.032685216
2020-04-17T20:10:00	0.2234	9.045	190.0	0.546179356	0.662655707	0.010239296	0.105636931	0.032558328
2020-04-17T20:15:00	0.2239	9.006	190.0	0.548071021	0.665344517	0.010304568	0.106310327	0.032765875
2020-04-17T20:20:00	0.2244	8.970	190.0	0.549623162	0.667552921	0.010358281	0.106864477	0.032936670
2020-04-17T20:25:00	0.2246	8.933	190.0	0.550159390	0.668316331	0.010376871	0.107056261	0.032995779
2020-04-17T20:30:00	0.2259	8.895	189.0	0.554754014	0.674867220	0.010536845	0.108706692	0.033504458
2020-04-17T20:35:00	0.2246	8.858	189.0	0.550216393	0.668397498	0.010378848	0.107076659	0.033002066
2020-04-17T20:40:00	0.2244	8.823	190.0	0.549737185	0.667715232	0.010362233	0.106905243	0.032949234
2020-04-17T20:45:00	0.2248	8.787	189.0	0.550950220	0.669442640	0.010404317	0.107339423	0.033083053
2020-04-17T20:50:00	0.2243	8.749	189.0	0.549117146	0.666832738	0.010340754	0.106683657	0.032880939
2020-04-17T20:55:00	0.2254	8.711	188.0	0.553036860	0.672416920	0.010476913	0.108088377	0.033313888
2020-04-17T21:00:00	0.2254	8.675	188.0	0.552896247	0.672216379	0.010472013	0.108037825	0.033298307
2020-04-17T21:05:00	0.2248	8.639	188.0	0.551064199	0.669605013	0.010408276	0.107380265	0.033095641
2020-04-17T21:10:00	0.2246	8.603	188.0	0.550246677	0.668440621	0.010379898	0.107087496	0.033005406
2020-04-17T21:15:00	0.2248	8.567	188.0	0.551121188	0.669686201	0.010410256	0.107400689	0.033101935
2020-04-17T21:20:00	0.2252	8.531	188.0	0.552333739	0.671414298	0.010452422	0.107835713	0.033236014
2020-04-17T21:25:00	0.2251	8.494	187.0	0.551854823	0.670731615	0.010435758	0.107663787	0.033183025
2020-04-17T21:30:00	0.2248	8.459	187.0	0.551037487	0.669566958	0.010407348	0.107370693	0.033092690
2020-04-17T21:35:00	0.2259	8.423	187.0	0.554617031	0.674671663	0.010532058	0.108657302	0.033489236
2020-04-17T21:40:00	0.2259	8.386	187.0	0.554814502	0.674953578	0.010538960	0.108728506	0.033511181
2020-04-17T21:45:00	0.2264	8.349	187.0	0.556363636	0.677166278	0.010593183	0.109287911	0.033683596
2020-04-17T21:50:00	0.2257	8.314	186.0	0.553857288	0.673587331	0.010505526	0.108383575	0.033404870
2020-04-17T21:55:00	0.2251	8.279	187.0	0.552025746	0.670975240	0.010441704	0.107725131	0.033201931
2020-04-17T22:00:00	0.2248	8.245	186.0	0.550870080	0.669328480	0.010401534	0.107310711	0.033074203
2020-04-17T22:05:00	0.2260	8.209	186.0	0.555074934	0.675325427	0.010548066	0.108822448	0.033540135
2020-04-17T22:10:00	0.2266	8.175	186.0	0.556910916	0.677948455	0.010612372	0.109485887	0.033744614
2020-04-17T22:15:00	0.2262	8.142	186.0	0.555706006	0.676226714	0.010570147	0.109050258	0.033610349
2020-04-17T22:20:00	0.2249	8.110	185.0	0.551457043	0.670164733	0.010421926	0.107521094	0.033139045
2020-04-17T22:25:00	0.2249	8.077	185.0	0.551265436	0.669891717	0.010415267	0.107452394	0.033117871
2020-04-17T22:30:00	0.2258	8.044	185.0	0.554455846	0.674441574	0.010526426	0.108599199	0.033471328
2020-04-17T22:35:00	0.2263	8.012	185.0	0.555954278	0.676581381	0.010578840	0.109139947	0.033637992
2020-04-17T22:40:00	0.2264	7.981	185.0	0.556438676	0.677273511	0.010595813	0.109315046	0.033691959
2020-04-17T22:45:00	0.2268	7.949	185.0	0.557598538	0.678931559	0.010636508	0.109734888	0.033821358
2020-04-17T22:50:00	0.2259	7.916	185.0	0.554704206	0.674796113	0.010535105	0.108688732	0.033498923
2020-04-17T22:55:00	0.2267	7.883	185.0	0.557553744	0.678867504	0.010634935	0.109718659	0.033816356
2020-04-17T23:00:00	0.2266	7.851	185.0	0.557024700	0.678111107	0.010616364	0.109527071	0.033757307
2020-04-17T23:05:00	0.2271	7.820	184.0	0.558859654	0.680735609	0.010680845	0.110192310	0.033962340
2020-04-17T23:10:00	0.2270	7.789	184.0	0.558330809	0.679978927	0.010662241	0.110000374	0.033903184
2020-04-17T23:15:00	0.2269	7.759	184.0	0.558139580	0.679705370	0.010655518	0.109931012	0.033881806
2020-04-17T23:20:00	0.2272	7.726	184.0	0.558961292	0.680881060	0.010684422	0.110229217	0.033973715
2020-04-17T23:25:00	0.2267	7.692	184.0	0.557419358	0.678675345	0.010630216	0.109669976	0.033801352
2020-04-17T23:30:00	0.2261	7.661	184.0	0.555200874	0.675505267	0.010552470	0.108867892	0.033554142
2020-04-17T23:35:00	0.2255	7.634	184.0	0.553319141	0.672819555	0.010486753	0.108189899	0.033345177
2020-04-17T23:40:00	0.2261	7.606	183.0	0.555494003	0.675923898	0.010562726	0.108973700	0.033586753
2020-04-17T23:45:00	0.2252	7.576	183.0	0.552259684	0.671308722	0.010449844	0.107809119	0.033227817
2020-04-17T23:50:00	0.2257	7.546	183.0	0.554097152	0.673929622	0.010513899	0.108469958	0.033431494
2020-04-17T23:55:00	0.2255	7.517	183.0	0.553229442	0.672691604	0.010483626	0.108157633	0.033335233
2020-04-18T00:00:00	0.2253	7.488	183.0	0.552699740	0.671936149	0.010465167	0.107967197	0.033276539
2020-04-18T00:05:00	0.2238	7.460	183.0	0.547431079	0.664434576	0.010282463	0.106082278	0.032695588
2020-04-18T00:10:00	0.2240	7.432	183.0	0.548255324	0.665606643	0.010310938	0.106376051	0.032786132
2020-04-18T00:15:00	0.2249	7.406	182.0	0.551448498	0.670152556	0.010421629	0.107518029	0.033138101
2020-04-18T00:20:00	0.2245	7.375	182.0	0.549903229	0.667951613	0.010367988	0.106964622	0.032967535
2020-04-18T00:25:00	0.2241	7.344	182.0	0.548695888	0.666233347	0.010326175	0.106533243	0.032834580
2020-04-18T00:30:00	0.2242	7.317	183.0	0.548842730	0.666442266	0.010331256	0.106585662	0.032850736
2020-04-18T00:35:00	0.2243	7.291	182.0	0.549328120	0.667132979	0.010348060	0.106759028	0.032904169
2020-04-18T00:40:00	0.2240	7.264	182.0	0.548120578	0.665414998	0.010306281	0.106327998	0.032771322
2020-04-18T00:45:00	0.2237	7.240	182.0	0.547251373	0.664179112	0.010276260	0.106018283	0.032675864
2020-04-18T00:50:00	0.2233	7.214	182.0	0.546043109	0.662462159	0.010234603	0.105588513	0.032543405
2020-04-18T00:55:00	0.2234	7.186	182.0	0.546190064	0.662670919	0.010239665	0.105640737	0.032559501
2020-04-18T01:00:00	0.2230	7.160	182.0	0.544981430	0.660954492	0.010198070	0.105211612	0.032427240
2020-04-18T01:05:00	0.2226	7.136	182.0	0.543433277	0.658757649	0.010144916	0.104663231	0.032258224
2020-04-18T01:10:00	0.2226	7.113	181.0	0.543580342	0.658966251	0.010149960	0.104715261	0.032274260
2020-04-18T01:15:00	0.2223	7.086	182.0	0.542370798	0.657251115	0.010108518	0.104287721	0.032142488
2020-04-18T01:20:00	0.2215	7.063	181.0	0.539803221	0.653614252	0.010020832	0.103383082	0.031863670
2020-04-18T01:25:00	0.2209	7.040	181.0	0.537913113	0.650940438	0.009956529	0.102719679	0.031659203
2020-04-18T01:30:00	0.2206	7.015	181.0	0.536701585	0.649228102	0.009915422	0.102295581	0.031528492
2020-04-18T01:35:00	0.2204	6.988	181.0	0.536169352	0.648476238	0.009897390	0.102109552	0.031471156
2020-04-18T01:40:00	0.2208	6.965	181.0	0.537336010	0.650124629	0.009936937	0.102517552	0.031596905
2020-04-18T01:45:00	0.2210	6.943	181.0	0.538162661	0.651293291	0.009965007	0.102807143	0.031686160
2020-04-18T01:50:00	0.2207	6.918	180.0	0.536951221	0.649580831	0.009923885	0.102382894	0.031555402
2020-04-18T01:55:00	0.2200	6.893	180.0	0.534719601	0.646429408	0.009848358	0.101603691	0.031315244
2020-04-18T02:00:00	0.2203	6.868	180.0	0.535546878	0.647597189	0.009876322	0.101892197	0.031404165
2020-04-18T02:05:00	0.2204	6.843	180.0	0.536034135	0.648285259	0.009892812	0.102062317	0.031456597
2020-04-18T02:10:00	0.2202	6.819	180.0	0.535501798	0.647533540	0.009874798	0.101876466	0.031399316
2020-04-18T02:15:00	0.2212	6.797	180.0	0.538706742	0.652062779	0.009983504	0.102997969	0.031744974
2020-04-18T02:20:00	0.2207	6.775	180.0	0.537155780	0.649869907	0.009930823	0.102454469	0.031577462
2020-04-18T02:25:00	0.2208	6.748	180.0	0.537303112	0.650078132	0.009935821	0.102506036	0.031593356
2020-04-18T02:30:00	0.2212	6.722	180.0	0.538808971	0.652207387	0.009986981	0.103033844	0.031756031
2020-04-18T02:35:00	0.2209	6.699	179.0	0.537597757	0.650494609	0.009945821	0.102609203	0.031625153
2020-04-18T02:40:00	0.2208	6.676	179.0	0.537405383	0.650222682	0.009939292	0.102541839	0.031604391
2020-04-18T02:45:00	0.2203	6.653	179.0	0.535853837	0.648030633	0.009886709	0.101999352	0.031437191
2020-04-18T02:50:00	0.2205	6.628	179.0	0.536341050	0.648718764	0.009903206	0.102169546	0.031489646
2020-04-18T02:55:00	0.2198	6.605	179.0	0.534109036	0.645567895	0.009827744	0.101391026	0.031249699
2020-04-18T03:00:00	0.2190	6.584	179.0	0.531195013	0.641460367	0.009729663	0.100379139	0.030937826
2020-04-18T03:05:00	0.2195	6.562	179.0	0.533043687	0.644065406	0.009791829	0.101020494	0.031135497
2020-04-18T03:10:00	0.2197	6.538	179.0	0.533531297	0.644752980	0.009808259	0.101190002	0.031187741
2020-04-18T03:15:00	0.2197	6.515	179.0	0.533678784	0.644960988	0.009813232	0.101241301	0.031203552
2020-04-18T03:20:00	0.2205	6.491	179.0	0.536545646	0.649007788	0.009910137	0.102241058	0.031511687
2020-04-18T03:25:00	0.2206	6.468	178.0	0.536693004	0.649215977	0.009915131	0.102292580	0.031527567
2020-04-18T03:30:00	0.2207	6.447	178.0	0.537180099	0.649904275	0.009931648	0.102462980	0.031580086
2020-04-18T03:35:00	0.2197	6.428	178.0	0.533588575	0.644833759	0.009810190	0.101209923	0.031193881
2020-04-18T03:40:00	0.2199	6.407	178.0	0.534416123	0.646001159	0.009838109	0.101497959	0.031282657
2020-04-18T03:45:00	0.2202	6.386	178.0	0.535243473	0.647168838	0.009866062	0.101786339	0.031371538
2020-04-18T03:50:00	0.2207	6.366	178.0	0.537089981	0.649776918	0.009928591	0.102431443	0.031570366
2020-04-18T03:55:00	0.2211	6.344	178.0	0.538595932	0.651906042	0.009979735	0.102959091	0.031732992
2020-04-18T04:00:00	0.2212	6.325	178.0	0.538743203	0.652114354	0.009984744	0.103010764	0.031748918
2020-04-18T04:05:00	0.2221	6.306	178.0	0.541939075	0.656639221	0.010093748	0.104135333	0.032095521
2020-04-18T04:10:00	0.2232	6.288	179.0	0.545470930	0.661649505	0.010214906	0.105385302	0.032480774
2020-04-18T04:15:00	0.2237	6.268	178.0	0.547305931	0.664256666	0.010278143	0.106037709	0.032681852
2020-04-18T04:20:00	0.2238	6.249	178.0	0.547446770	0.664456884	0.010283005	0.106087866	0.032697311
2020-04-18T04:25:00	0.2251	6.232	178.0	0.551988007	0.670921446	0.010440391	0.107711584	0.033197756
2020-04-18T04:30:00	0.2254	6.214	178.0	0.553143302	0.672568738	0.010480623	0.108126653	0.033325685
2020-04-18T04:35:00	0.2263	6.197	178.0	0.555988071	0.676629660	0.010580024	0.109152158	0.033641755
2020-04-18T04:40:00	0.2262	6.181	177.0	0.555790666	0.676347649	0.010573111	0.109080837	0.033619773
2020-04-18T04:45:00	0.2269	6.166	177.0	0.557957942	0.679445560	0.010649134	0.109865150	0.033861506
2020-04-18T04:50:00	0.2273	6.153	178.0	0.559448827	0.681578880	0.010701591	0.110406340	0.034028306
2020-04-18T04:55:00	0.2278	6.140	177.0	0.560939075	0.683713117	0.010754156	0.110948649	0.034195451
2020-04-18T05:00:00	0.2278	6.127	177.0	0.561079363	0.683914123	0.010759112	0.110999771	0.034211207
2020-04-18T05:05:00	0.2284	6.115	176.0	0.563243353	0.687016759	0.010835693	0.111789847	0.034454716
2020-04-18T05:10:00	0.2295	6.102	177.0	0.566753654	0.692057890	0.010960506	0.113077524	0.034851591
2020-04-18T05:15:00	0.2299	6.091	177.0	0.568240786	0.694196625	0.011013603	0.113625309	0.035020424
2020-04-18T05:20:00	0.2299	6.083	177.0	0.568044074	0.693913617	0.011006572	0.113552773	0.034998067
2020-04-18T05:25:00	0.2306	6.074	177.0	0.570540254	0.697507225	0.011095960	0.114474973	0.035282298
2020-04-18T05:30:00	0.2306	6.066	177.0	0.570680157	0.697708788	0.011100981	0.114526772	0.035298263
2020-04-18T05:35:00	0.2301	6.059	177.0	0.568800734	0.695002392	0.011033629	0.113831915	0.035084102
2020-04-18T05:40:00	0.2305	6.053	176.0	0.570286996	0.697142389	0.011086874	0.114381235	0.035253408
2020-04-18T05:45:00	0.2303	6.050	177.0	0.569417281	0.695889908	0.011055701	0.114059627	0.035154285
2020-04-18T05:50:00	0.2301	6.046	177.0	0.568884009	0.695122248	0.011036609	0.113862658	0.035093577
2020-04-18T05:55:00	0.2294	6.043	177.0	0.566666779	0.691933008	0.010957409	0.113045565	0.034841741
2020-04-18T06:00:00	0.2294	6.042	177.0	0.566469979	0.691650128	0.010950393	0.112973185	0.034819433
2020-04-18T06:05:00	0.2287	6.043	176.0	0.564251216	0.688463107	0.010871454	0.112158791	0.034568429
2020-04-18T06:10:00	0.2297	6.045	177.0	0.567423737	0.693021351	0.010984415	0.113324182	0.034927614
2020-04-18T06:15:00	0.2295	6.049	177.0	0.566890160	0.692254133	0.010965375	0.113127750	0.034867071
2020-04-18T06:20:00	0.2284	6.053	177.0	0.562986014	0.686647594	0.010826572	0.111695742	0.034425713
2020-04-18T06:25:00	0.2287	6.059	177.0	0.564137667	0.688300116	0.010867422	0.112117194	0.034555608
2020-04-18T06:30:00	0.2302	6.069	176.0	0.569330473	0.695764929	0.011052592	0.114027552	0.035144399
2020-04-18T06:35:00	0.2296	6.082	177.0	0.567113527	0.692575278	0.010973343	0.113209959	0.034892409
2020-04-18T06:40:00	0.2288	6.092	177.0	0.564558130	0.688903714	0.010882356	0.112271265	0.034603094
2020-04-18T06:45:00	0.2288	6.107	177.0	0.564361210	0.688621006	0.010875361	0.112199094	0.034580850
2020-04-18T06:50:00	0.2288	6.123	177.0	0.564501361	0.688822211	0.010880339	0.112250457	0.034596681
2020-04-18T06:55:00	0.2277	6.141	177.0	0.560931967	0.683702933	0.010753905	0.110946060	0.034194653
2020-04-18T07:00:00	0.2288	6.157	177.0	0.564444591	0.688740709	0.010878323	0.112229650	0.034590268
2020-04-18T07:05:00	0.2288	6.174	177.0	0.564584739	0.688941918	0.010883302	0.112281019	0.034606100
2020-04-18T07:10:00	0.2278	6.193	177.0	0.561015430	0.683822517	0.010756853	0.110976472	0.034204026
2020-04-18T07:15:00	0.2274	6.216	177.0	0.559805899	0.682090089	0.010714174	0.110536158	0.034068317
2020-04-18T07:20:00	0.2278	6.245	177.0	0.560958603	0.683741096	0.010754846	0.110955765	0.034197644
2020-04-18T07:25:00	0.2267	6.278	177.0	0.557385579	0.678627046	0.010629030	0.109657741	0.033797581
2020-04-18T07:30:00	0.2266	6.310	178.0	0.557188253	0.678344922	0.010622103	0.109586282	0.033775556
2020-04-18T07:35:00	0.2273	6.348	178.0	0.559354659	0.681444080	0.010698274	0.110372118	0.034017759
2020-04-18T07:40:00	0.2273	6.408	178.0	0.559495012	0.681644995	0.010703218	0.110423127	0.034033480
2020-04-18T07:45:00	0.2284	6.467	178.0	0.563009083	0.686680686	0.010827389	0.111704177	0.034428312
2020-04-18T07:50:00	0.2281	6.514	178.0	0.562137554	0.685430829	0.010796525	0.111385762	0.034330174
2020-04-18T07:55:00	0.2276	6.559	178.0	0.560590986	0.683214442	0.010741867	0.110821857	0.034156373
2020-04-18T08:00:00	0.2278	6.626	179.0	0.561068701	0.683898846	0.010758735	0.110995885	0.034210010
2020-04-18T08:05:00	0.2279	6.708	179.0	0.561546352	0.684583344	0.010775614	0.111170028	0.034263682
2020-04-18T08:10:00	0.2276	6.794	179.0	0.560337005	0.682850652	0.010732904	0.110729391	0.034127874
2020-04-18T08:15:00	0.2276	6.871	180.0	0.560477318	0.683051623	0.010737855	0.110780469	0.034143617
2020-04-18T08:20:00	0.2274	6.944	180.0	0.559605156	0.681802678	0.010707099	0.110463166	0.034045821
2020-04-18T08:25:00	0.2273	7.033	181.0	0.559407956	0.681520373	0.010700151	0.110391486	0.034023728
2020-04-18T08:30:00	0.2271	7.126	181.0	0.558873153	0.680754926	0.010681320	0.110197211	0.033963851
2020-04-18T08:35:00	0.2279	7.233	182.0	0.561375895	0.684339050	0.010769589	0.111107867	0.034244524
2020-04-18T08:40:00	0.2280	7.337	183.0	0.561853503	0.685023609	0.010786476	0.111282083	0.034298219
2020-04-18T08:45:00	0.2289	7.433	182.0	0.564691172	0.689094735	0.010887084	0.112320038	0.034618127
2020-04-18T08:50:00	0.2289	7.532	183.0	0.564831310	0.689295959	0.010892065	0.112371424	0.034633964
2020-04-18T08:55:00	0.2286	7.631	183.0	0.563960236	0.688045445	0.010861124	0.112052210	0.034535579
2020-04-18T09:00:00	0.2291	7.734	184.0	0.565448558	0.690182459	0.010914017	0.112597902	0.034703767
2020-04-18T09:05:00	0.2294	7.835	184.0	0.566599400	0.691836153	0.010955006	0.113020781	0.034834102
2020-04-18T09:10:00	0.2296	7.938	184.0	0.567076294	0.692521744	0.010972015	0.113196254	0.034888185
2020-04-18T09:15:00	0.2288	8.046	185.0	0.564520869	0.688850219	0.010881033	0.112257607	0.034598885
2020-04-18T09:20:00	0.2286	8.147	185.0	0.563649718	0.687599818	0.010850105	0.111938529	0.034500542
2020-04-18T09:25:00	0.2280	8.252	186.0	0.561766507	0.684898902	0.010783399	0.111250339	0.034288435
2020-04-18T09:30:00	0.2282	8.360	187.0	0.562581329	0.686067167	0.010812235	0.111547838	0.034380127
2020-04-18T09:35:00	0.2280	8.470	187.0	0.561709693	0.684817464	0.010781390	0.111229611	0.034282046
2020-04-18T09:40:00	0.2283	8.580	187.0	0.562861768	0.686469378	0.010822169	0.111650322	0.034411714
2020-04-18T09:45:00	0.2279	8.699	188.0	0.561315521	0.684252528	0.010767456	0.111085854	0.034237739
2020-04-18T09:50:00	0.2279	8.800	188.0	0.561455794	0.684453556	0.010772413	0.111137001	0.034253503
2020-04-18T09:55:00	0.2286	8.897	189.0	0.563956685	0.688040349	0.010860998	0.112050909	0.034535178
2020-04-18T10:00:00	0.2273	8.988	189.0	0.559374197	0.681472047	0.010698962	0.110379218	0.034019947
2020-04-18T10:05:00	0.2276	9.061	189.0	0.560476248	0.683050090	0.010737817	0.110780080	0.034143496
2020-04-18T10:10:00	0.2265	9.094	190.0	0.556851880	0.677864068	0.010610301	0.109464522	0.033738029
2020-04-18T10:15:00	0.2265	9.110	190.0	0.556603672	0.677509310	0.010601597	0.109374721	0.033710351
2020-04-18T10:20:00	0.2265	9.139	190.0	0.556693285	0.677637385	0.010604739	0.109407138	0.033720343
2020-04-18T10:25:00	0.2263	9.194	190.0	0.556107204	0.676799869	0.010584197	0.109195211	0.033655025
2020-04-18T10:30:00	0.2264	9.261	190.0	0.556534682	0.677410712	0.010599178	0.109349767	0.033702660
2020-04-18T10:35:00	0.2259	9.328	191.0	0.554596740	0.674642697	0.010531349	0.108649987	0.033486981
2020-04-18T10:40:00	0.2253	9.409	191.0	0.552657717	0.671876227	0.010463703	0.107952096	0.033271884
2020-04-18T10:45:00	0.2244	9.483	191.0	0.549702258	0.667665512	0.010361022	0.106892755	0.032945385
2020-04-18T10:50:00	0.2243	9.573	192.0	0.549114998	0.666829682	0.010340680	0.106682890	0.032880703
2020-04-18T10:55:00	0.2250	9.694	192.0	0.551573841	0.670331170	0.010425987	0.107562982	0.033151956
2020-04-18T11:00:00	0.2253	9.810	193.0	0.552678365	0.671905669	0.010464422	0.107959516	0.033274171
2020-04-18T11:05:00	0.2250	9.921	192.0	0.551753323	0.670586953	0.010432227	0.107627367	0.033171800
2020-04-18T11:10:00	0.2263	10.033	193.0	0.555900201	0.676504125	0.010576947	0.109120408	0.033631970
2020-04-18T11:15:00	0.2251	10.145	194.0	0.551932795	0.670842750	0.010438470	0.107691769	0.033191649
2020-04-18T11:20:00	0.2250	10.274	195.0	0.551684237	0.670488494	0.010429825	0.107602582	0.033164161
2020-04-18T11:25:00	0.2244	10.416	195.0	0.549743588	0.667724347	0.010362454	0.106907532	0.032949940
2020-04-18T11:30:00	0.2250	10.580	196.0	0.551525406	0.670262148	0.010424303	0.107545610	0.033146602
2020-04-18T11:35:00	0.2253	10.737	197.0	0.552629945	0.671836625	0.010462736	0.107942117	0.033268809
2020-04-18T11:40:00	0.2241	10.871	198.0	0.548658802	0.666180587	0.010324892	0.106520007	0.032830501
2020-04-18T11:45:00	0.2235	11.002	197.0	0.546716461	0.663418850	0.010257808	0.105827910	0.032617190
2020-04-18T11:50:00	0.2242	11.111	198.0	0.548838435	0.666436155	0.010331107	0.106584129	0.032850264
2020-04-18T11:55:00	0.2231	11.176	198.0	0.545201907	0.661267511	0.010205652	0.105289826	0.032451347
2020-04-18T12:00:00	0.2234	11.303	199.0	0.546308459	0.662839121	0.010243744	0.105682820	0.032572472
2020-04-18T12:05:00	0.2230	11.422	200.0	0.545042779	0.661041588	0.010200180	0.105233372	0.032433947
2020-04-18T12:10:00	0.2234	11.480	200.0	0.546149382	0.662613126	0.010238264	0.105626278	0.032555045
2020-04-18T12:15:00	0.2231	11.511	200.0	0.545222599	0.661296890	0.010206363	0.105297168	0.032453610
2020-04-18T12:20:00	0.2223	11.575	200.0	0.542600009	0.657576044	0.010116365	0.104368673	0.032167438
2020-04-18T12:25:00	0.2224	11.646	200.0	0.542689983	0.657703604	0.010119446	0.104400458	0.032177235
2020-04-18T12:30:00	0.2215	11.700	201.0	0.539726014	0.653504975	0.010018202	0.103355941	0.031855305
2020-04-18T12:35:00	0.2221	11.742	201.0	0.541852270	0.656516209	0.010090779	0.104104706	0.032086082
2020-04-18T12:40:00	0.2227	11.765	201.0	0.543977222	0.659529287	0.010163576	0.104855740	0.032317557
2020-04-18T12:45:00	0.2216	11.798	201.0	0.539996154	0.653887347	0.010027408	0.103450920	0.031884578
2020-04-18T12:50:00	0.2210	11.854	202.0	0.538048949	0.651132499	0.009961144	0.102767283	0.031673875
2020-04-18T12:55:00	0.2210	11.902	202.0	0.538139042	0.651259892	0.009964205	0.102798863	0.031683608
2020-04-18T13:00:00	0.2209	11.933	202.0	0.537889492	0.650907042	0.009955727	0.102711402	0.031656651
2020-04-18T13:05:00	0.2199	11.968	202.0	0.534241440	0.645754693	0.009832213	0.101437125	0.031263907
2020-04-18T13:10:00	0.2188	12.007	202.0	0.530589530	0.640607762	0.009709345	0.100169528	0.030873221
2020-04-18T13:15:00	0.2178	12.043	202.0	0.527274469	0.635944980	0.009598485	0.099025798	0.030520713
2020-04-18T13:20:00	0.2167	12.077	203.0	0.523615166	0.630808381	0.009476855	0.097770967	0.030133962
2020-04-18T13:25:00	0.2174	12.096	203.0	0.525751368	0.633805666	0.009547765	0.098502527	0.030359435
2020-04-18T13:30:00	0.2171	12.109	203.0	0.524819095	0.632497148	0.009516786	0.098182926	0.030260931
2020-04-18T13:35:00	0.2174	12.113	203.0	0.525932194	0.634059553	0.009553779	0.098564578	0.030378560
2020-04-18T13:40:00	0.2177	12.110	203.0	0.526704191	0.635143759	0.009579478	0.098829712	0.030460277
2020-04-18T13:45:00	0.2168	12.112	203.0	0.523726457	0.630964441	0.009480543	0.097809012	0.030145687
2020-04-18T13:50:00	0.2172	12.112	203.0	0.525180837	0.633004797	0.009528800	0.098306876	0.030299134
2020-04-18T13:55:00	0.2163	12.098	203.0	0.522201785	0.628827315	0.009430085	0.097288449	0.029985245
2020-04-18T14:00:00	0.2162	12.070	203.0	0.521609831	0.627998085	0.009410531	0.097086716	0.029923069
2020-04-18T14:05:00	0.2168	12.030	203.0	0.523747278	0.630993639	0.009481233	0.097816131	0.030147881
2020-04-18T14:10:00	0.2170	11.988	202.0	0.524519765	0.632077163	0.009506850	0.098080420	0.030229338
2020-04-18T14:15:00	0.2165	11.948	202.0	0.522904955	0.629812710	0.009453339	0.097528356	0.030059187
2020-04-18T14:20:00	0.2166	11.927	201.0	0.522995444	0.629939548	0.009456334	0.097559251	0.030068709
2020-04-18T14:25:00	0.2169	11.901	203.0	0.524109133	0.631501132	0.009493228	0.097939887	0.030186024
2020-04-18T14:30:00	0.2164	11.858	202.0	0.522494129	0.629236947	0.009439749	0.097388155	0.030015975
2020-04-18T14:35:00	0.2167	11.810	202.0	0.523607981	0.630798305	0.009476617	0.097768511	0.030133205
2020-04-18T14:40:00	0.2167	11.761	202.0	0.523357377	0.630446930	0.009468316	0.097682871	0.030106809
2020-04-18T14:45:00	0.2160	11.715	202.0	0.521059450	0.627227346	0.009392369	0.096899339	0.029865317
2020-04-18T14:50:00	0.2160	11.683	201.0	0.521149988	0.627354116	0.009395355	0.096930150	0.029874814
2020-04-18T14:55:00	0.2163	11.665	201.0	0.521923058	0.628436829	0.009420875	0.097193435	0.029955961
2020-04-18T15:00:00	0.2167	11.654	201.0	0.523378200	0.630476125	0.009469006	0.097689985	0.030109002
2020-04-18T15:05:00	0.2173	11.646	201.0	0.525514549	0.633473206	0.009539890	0.098421291	0.030334398
2020-04-18T15:10:00	0.2177	11.628	201.0	0.526968174	0.635514613	0.009588274	0.098920456	0.030488245
2020-04-18T15:15:00	0.2175	11.604	201.0	0.526036231	0.634205635	0.009557240	0.098600287	0.030389566
2020-04-18T15:20:00	0.2176	11.565	200.0	0.526467438	0.634811207	0.009571593	0.098748364	0.030435205
2020-04-18T15:25:00	0.2178	11.534	200.0	0.527239314	0.635895581	0.009597313	0.099013705	0.030516985
2020-04-18T15:30:00	0.2175	11.503	200.0	0.526307445	0.634586501	0.009566267	0.098693409	0.030418267
2020-04-18T15:35:00	0.2177	11.469	200.0	0.526738618	0.635192121	0.009580625	0.098841544	0.030463924
2020-04-18T15:40:00	0.2171	11.420	200.0	0.524783916	0.632447784	0.009515618	0.098170876	0.030257217
2020-04-18T15:45:00	0.2177	11.373	200.0	0.526919393	0.635446079	0.009586648	0.098903685	0.030483076
2020-04-18T15:50:00	0.2175	11.332	199.0	0.526328250	0.634615721	0.009566959	0.098700554	0.030420469
2020-04-18T15:55:00	0.2172	11.300	199.0	0.525055228	0.632828512	0.009524628	0.098263827	0.030285866
2020-04-18T16:00:00	0.2174	11.272	199.0	0.525827421	0.633912444	0.009550294	0.098528622	0.030367478
2020-04-18T16:05:00	0.2182	11.244	199.0	0.528556161	0.637746677	0.009641271	0.099467211	0.030656761
2020-04-18T16:10:00	0.2180	11.212	199.0	0.527877988	0.636793192	0.009618620	0.099233527	0.030584737
2020-04-18T16:15:00	0.2181	11.176	199.0	0.528221663	0.637276338	0.009630095	0.099351915	0.030621225
2020-04-18T16:20:00	0.2182	11.144	199.0	0.528565303	0.637759533	0.009641576	0.099470363	0.030657732
2020-04-18T16:25:00	0.2174	11.104	199.0	0.525842670	0.633933855	0.009550801	0.098533855	0.030369091
2020-04-18T16:30:00	0.2167	11.072	199.0	0.523458981	0.630589384	0.009471681	0.097717588	0.030117510
2020-04-18T16:35:00	0.2168	11.047	199.0	0.523803096	0.631071916	0.009483083	0.097835216	0.030153764
2020-04-18T16:40:00	0.2158	11.023	199.0	0.520393989	0.626295781	0.009370433	0.096673026	0.029795565
2020-04-18T16:45:00	0.2155	11.005	199.0	0.519372736	0.624866847	0.009336818	0.096326230	0.029688679
2020-04-18T16:50:00	0.2159	10.984	199.0	0.520741466	0.626782162	0.009381884	0.096791164	0.029831977
2020-04-18T16:55:00	0.2158	10.961	198.0	0.520403153	0.626308607	0.009370735	0.096676141	0.029796525
2020-04-18T17:00:00	0.2161	10.939	198.0	0.521430208	0.627746518	0.009404602	0.097025543	0.029904215
2020-04-18T17:05:00	0.2171	10.916	198.0	0.524844389	0.632532640	0.009517626	0.098191590	0.030263602
2020-04-18T17:10:00	0.2163	10.890	197.0	0.522118811	0.628711065	0.009427343	0.097260159	0.029976526
2020-04-18T17:15:00	0.2166	10.856	198.0	0.523145353	0.630149687	0.009461296	0.097610443	0.030084487
2020-04-18T17:20:00	0.2175	10.828	197.0	0.526217043	0.634459543	0.009563257	0.098662364	0.030408699
2020-04-18T17:25:00	0.2183	10.808	197.0	0.528945474	0.638294205	0.009654286	0.099601486	0.030698145
2020-04-18T17:30:00	0.2173	10.789	198.0	0.525541460	0.633510982	0.009540785	0.098430521	0.030337242
2020-04-18T17:35:00	0.2172	10.769	198.0	0.525203618	0.633036771	0.009529557	0.098314684	0.030301541
2020-04-18T17:40:00	0.2173	10.751	197.0	0.525547560	0.633519545	0.009540988	0.098432613	0.030337887
2020-04-18T17:45:00	0.2173	10.732	197.0	0.525550610	0.633523827	0.009541089	0.098433659	0.030338210
2020-04-18T17:50:00	0.2179	10.712	198.0	0.527598294	0.636400060	0.009609286	0.099137230	0.030555057
2020-04-18T17:55:00	0.2176	10.692	197.0	0.526579178	0.634968156	0.009575314	0.098786753	0.030447037
2020-04-18T18:00:00	0.2181	10.671	197.0	0.528285664	0.637366323	0.009632233	0.099373970	0.030628023
2020-04-18T18:05:00	0.2179	10.650	197.0	0.527607438	0.636412913	0.009609591	0.099140377	0.030556027
2020-04-18T18:10:00	0.2192	10.626	197.0	0.532036353	0.642645587	0.009757930	0.100670768	0.031027708
2020-04-18T18:15:00	0.2191	10.601	196.0	0.531699148	0.642170487	0.009746596	0.100553833	0.030991668
2020-04-18T18:20:00	0.2195	10.580	196.0	0.533062988	0.644092618	0.009792479	0.101027201	0.031137564
2020-04-18T18:25:00	0.2194	10.554	197.0	0.532725883	0.643617377	0.009781128	0.100910093	0.031101471
2020-04-18T18:30:00	0.2200	10.532	197.0	0.534769312	0.646499564	0.009850037	0.101621016	0.031320584
2020-04-18T18:35:00	0.2196	10.505	196.0	0.533412232	0.644585070	0.009804246	0.101148598	0.031174980
2020-04-18T18:40:00	0.2192	10.478	196.0	0.532054619	0.642671325	0.009758544	0.100677104	0.031029661
2020-04-18T18:45:00	0.2196	10.455	196.0	0.533418319	0.644593653	0.009804451	0.101150714	0.031175633
2020-04-18T18:50:00	0.2198	10.431	196.0	0.534101488	0.645557246	0.009827490	0.101388399	0.031248889
2020-04-18T18:55:00	0.2188	10.406	196.0	0.530702563	0.640766905	0.009713137	0.100208642	0.030885277
2020-04-18T19:00:00	0.2206	10.382	195.0	0.536826733	0.649404926	0.009919664	0.102339348	0.031541981
2020-04-18T19:05:00	0.2216	10.359	196.0	0.540225714	0.654212326	0.010035235	0.103531666	0.031909465
2020-04-18T19:10:00	0.2220	10.336	195.0	0.541586194	0.656139186	0.010081682	0.104010858	0.032057156
2020-04-18T19:15:00	0.2221	10.314	195.0	0.541928507	0.656624246	0.010093386	0.104131604	0.032094372
2020-04-18T19:20:00	0.2217	10.293	195.0	0.540574236	0.654705796	0.010047123	0.103654317	0.031947267
2020-04-18T19:25:00	0.2206	10.270	195.0	0.536841933	0.649426404	0.009920180	0.102344665	0.031543620
2020-04-18T19:30:00	0.2224	10.243	195.0	0.542955244	0.658079711	0.010128532	0.104494196	0.032206126
2020-04-18T19:35:00	0.2219	10.217	195.0	0.541262065	0.655679981	0.010070606	0.103896591	0.032021938
2020-04-18T19:40:00	0.2225	10.190	195.0	0.543300456	0.658569266	0.010140363	0.104616251	0.032243744
2020-04-18T19:45:00	0.2224	10.165	194.0	0.542964348	0.658092621	0.010128844	0.104497414	0.032207118
2020-04-18T19:50:00	0.2222	10.138	194.0	0.542288999	0.657135167	0.010105719	0.104258839	0.032133587
2020-04-18T19:55:00	0.2221	10.113	194.0	0.541952792	0.656658661	0.010094217	0.104140173	0.032097013
2020-04-18T20:00:00	0.2223	10.088	194.0	0.542634277	0.657624628	0.010117538	0.104380778	0.032171170
2020-04-18T20:05:00	0.2226	10.064	193.0	0.543654737	0.659071781	0.010152511	0.104741586	0.032282374
2020-04-18T20:10:00	0.2216	10.039	194.0	0.540265197	0.654268224	0.010036581	0.103545557	0.031913746
2020-04-18T20:15:00	0.2218	10.015	194.0	0.540947014	0.655233721	0.010059847	0.103785585	0.031987725
2020-04-18T20:20:00	0.2216	9.994	194.0	0.540271271	0.654276824	0.010036788	0.103547694	0.031914405
2020-04-18T20:25:00	0.2217	9.972	194.0	0.540613714	0.654761700	0.010048470	0.103668214	0.031951551
2020-04-18T20:30:00	0.2209	9.954	194.0	0.537900572	0.650922707	0.009956103	0.102715284	0.031657848
2020-04-18T20:35:00	0.2206	9.935	193.0	0.536884494	0.649486543	0.009921623	0.102359552	0.031548208
2020-04-18T20:40:00	0.2198	9.917	194.0	0.534168422	0.645651676	0.009829748	0.101411701	0.031256071
2020-04-18T20:45:00	0.2205	9.899	193.0	0.536550803	0.649015074	0.009910312	0.102242861	0.031512243
2020-04-18T20:50:00	0.2202	9.880	193.0	0.535534328	0.647579469	0.009875898	0.101887818	0.031402815
2020-04-18T20:55:00	0.2199	9.861	193.0	0.534517555	0.646144285	0.009841534	0.101533292	0.031293547
2020-04-18T21:00:00	0.2196	9.842	193.0	0.533160376	0.644229930	0.009795760	0.101061046	0.031147996
2020-04-18T21:05:00	0.2197	9.822	193.0	0.533503525	0.644713813	0.009807323	0.101180343	0.031184764
2020-04-18T21:10:00	0.2194	9.802	193.0	0.532486153	0.643279469	0.009773060	0.100826854	0.031075816
2020-04-18T21:15:00	0.2195	9.784	193.0	0.532829368	0.643763258	0.009784612	0.100946036	0.031112549
2020-04-18T21:20:00	0.2193	9.765	193.0	0.532152036	0.642808597	0.009761820	0.100710899	0.031040077
2020-04-18T21:25:00	0.2188	9.746	193.0	0.530453555	0.640416330	0.009704786	0.100122485	0.030858722
2020-04-18T21:30:00	0.2184	9.726	192.0	0.529094776	0.638504217	0.009659279	0.099653005	0.030714024
2020-04-18T21:35:00	0.2185	9.708	192.0	0.529438329	0.638987533	0.009670775	0.099771603	0.030750577
2020-04-18T21:40:00	0.2183	9.689	192.0	0.528760331	0.638033806	0.009648095	0.099537619	0.030678461
2020-04-18T21:45:00	0.2186	9.672	193.0	0.529784895	0.639475184	0.009682378	0.099891313	0.030787473
2020-04-18T21:50:00	0.2181	9.654	192.0	0.528085247	0.637084549	0.009625539	0.099304914	0.030606739
2020-04-18T21:55:00	0.2180	9.638	192.0	0.527747655	0.636609990	0.009614270	0.099188648	0.030570905
2020-04-18T22:00:00	0.2191	9.621	192.0	0.531495884	0.641884146	0.009739767	0.100483379	0.030969953
2020-04-18T22:05:00	0.2178	9.603	192.0	0.527177995	0.635809419	0.009595268	0.098992612	0.030510485
2020-04-18T22:10:00	0.2181	9.586	192.0	0.528308618	0.637398597	0.009633000	0.099381881	0.030630461
2020-04-18T22:15:00	0.2164	9.568	192.0	0.522281163	0.628938532	0.009432709	0.097315516	0.029993587
2020-04-18T22:20:00	0.2154	9.550	192.0	0.518976420	0.624312551	0.009323789	0.096191817	0.029647252
2020-04-18T22:25:00	0.2159	9.531	192.0	0.520792500	0.626853605	0.009383566	0.096808522	0.029837327
2020-04-18T22:30:00	0.2160	9.515	191.0	0.520901371	0.627006021	0.009387156	0.096845554	0.029848740
2020-04-18T22:35:00	0.2157	9.497	192.0	0.519986112	0.625724979	0.009357000	0.096534444	0.029752853
2020-04-18T22:40:00	0.2157	9.479	192.0	0.520095008	0.625877360	0.009360585	0.096571433	0.029764254
2020-04-18T22:45:00	0.2154	9.462	191.0	0.519179535	0.624596616	0.009330466	0.096260693	0.029668480
2020-04-18T22:50:00	0.2152	9.444	191.0	0.518263818	0.623316210	0.009300386	0.095950371	0.029572836
2020-04-18T22:55:00	0.2158	9.425	191.0	0.520421674	0.626334529	0.009371345	0.096682436	0.029798466
2020-04-18T23:00:00	0.2155	9.409	191.0	0.519506288	0.625053665	0.009341210	0.096371546	0.029702646
2020-04-18T23:05:00	0.2151	9.394	191.0	0.517907462	0.622818116	0.009288694	0.095829744	0.029535658
2020-04-18T23:10:00	0.2140	9.379	191.0	0.514256526	0.617720980	0.009169329	0.094598272	0.029156106
2020-04-18T23:15:00	0.2141	9.365	191.0	0.514707572	0.618350110	0.009184033	0.094749980	0.029202864
2020-04-18T23:20:00	0.2134	9.352	191.0	0.512080020	0.614687452	0.009098537	0.093867924	0.028931006
2020-04-18T23:25:00	0.2127	9.337	191.0	0.509792910	0.611503894	0.009024443	0.093103513	0.028695407
2020-04-18T23:30:00	0.2119	9.322	191.0	0.507161583	0.607846423	0.008939572	0.092227919	0.028425540
2020-04-18T23:35:00	0.2095	9.308	191.0	0.498692761	0.596112873	0.008669137	0.089437885	0.027565625
2020-04-18T23:40:00	0.2097	9.289	191.0	0.499489358	0.597214099	0.008694398	0.089698502	0.027645949
2020-04-18T23:45:00	0.2088	9.268	191.0	0.496506318	0.593092927	0.008599989	0.088724503	0.027345754
2020-04-18T23:50:00	0.2077	9.245	191.0	0.492488271	0.587553150	0.008473635	0.087420925	0.026943978
2020-04-18T23:55:00	0.2065	9.220	191.0	0.488465473	0.582019789	0.008348062	0.086125412	0.026544688
2020-04-19T00:00:00	0.2047	9.196	190.0	0.482367278	0.573656409	0.008159478	0.084179832	0.025945042
2020-04-19T00:05:00	0.2051	9.174	190.0	0.483512819	0.575225196	0.008194740	0.084543627	0.026057167
2020-04-19T00:10:00	0.2049	9.149	190.0	0.482932649	0.574430539	0.008176872	0.084359283	0.026000350
2020-04-19T00:15:00	0.2050	9.124	190.0	0.483387858	0.575054014	0.008190890	0.084503905	0.026044924
2020-04-19T00:20:00	0.2052	9.103	190.0	0.483843005	0.575677571	0.008204918	0.084648630	0.026089530
2020-04-19T00:25:00	0.2059	9.082	190.0	0.486367542	0.579139223	0.008282943	0.085453597	0.026337628
2020-04-19T00:30:00	0.2053	9.064	190.0	0.484408131	0.576452031	0.008222353	0.084828496	0.026144966
2020-04-19T00:35:00	0.2053	9.044	190.0	0.484518167	0.576602857	0.008225749	0.084863540	0.026155767
2020-04-19T00:40:00	0.2050	9.026	190.0	0.483247999	0.574862439	0.008186582	0.084459458	0.026031225
2020-04-19T00:45:00	0.2050	9.009	190.0	0.483358073	0.575013214	0.008189973	0.084494438	0.026042006
2020-04-19T00:50:00	0.2048	8.993	190.0	0.482777877	0.574218592	0.008172109	0.084310138	0.025985203
2020-04-19T00:55:00	0.2055	8.976	189.0	0.484958277	0.577206208	0.008239342	0.085003777	0.026198990
2020-04-19T01:00:00	0.2040	8.959	190.0	0.479890313	0.570267855	0.008083489	0.083395867	0.025703416
2020-04-19T01:05:00	0.2042	8.942	190.0	0.480691329	0.571363130	0.008108024	0.083648993	0.025781432
2020-04-19T01:10:00	0.2044	8.926	189.0	0.481146838	0.571986203	0.008121993	0.083793106	0.025825849
2020-04-19T01:15:00	0.2045	8.912	189.0	0.481602286	0.572609357	0.008135972	0.083937323	0.025870298
2020-04-19T01:20:00	0.2047	8.897	189.0	0.482402897	0.573705173	0.008160573	0.084191132	0.025948525
2020-04-19T01:25:00	0.2049	8.882	189.0	0.482858176	0.574328553	0.008174580	0.084335634	0.025993061
2020-04-19T01:30:00	0.2043	8.867	189.0	0.480896736	0.571644078	0.008114322	0.083713964	0.025801457
2020-04-19T01:35:00	0.2036	8.853	189.0	0.478588582	0.568489013	0.008043695	0.082985321	0.025576882
2020-04-19T01:40:00	0.2031	8.838	189.0	0.476624666	0.565807840	0.007983842	0.082367828	0.025386565
2020-04-19T01:45:00	0.2031	8.823	189.0	0.476734956	0.565958327	0.007987198	0.082402445	0.025397234
2020-04-19T01:50:00	0.2020	8.806	189.0	0.473039593	0.560921352	0.007875152	0.081246491	0.025040958
2020-04-19T01:55:00	0.2013	8.785	189.0	0.470379651	0.557302433	0.007794985	0.080419420	0.024786046
2020-04-19T02:00:00	0.2023	8.763	189.0	0.473952612	0.562164834	0.007902763	0.081531344	0.025128752
2020-04-19T02:05:00	0.2010	8.743	188.0	0.469561235	0.556190089	0.007770400	0.080165785	0.024707873
2020-04-19T02:10:00	0.2001	8.722	188.0	0.466204892	0.551633899	0.007669978	0.079129753	0.024388558
2020-04-19T02:15:00	0.1992	8.701	188.0	0.463192396	0.547552087	0.007580393	0.078205512	0.024103698
2020-04-19T02:20:00	0.1991	8.683	188.0	0.462955944	0.547232008	0.007573383	0.078133194	0.024081409
2020-04-19T02:25:00	0.1992	8.666	188.0	0.463066681	0.547381904	0.007576665	0.078167059	0.024091847
2020-04-19T02:30:00	0.1995	8.649	188.0	0.464218783	0.548941992	0.007610857	0.078519810	0.024200568
2020-04-19T02:35:00	0.1990	8.633	188.0	0.462593743	0.546741791	0.007562651	0.078022480	0.024047286
2020-04-19T02:40:00	0.1983	8.618	188.0	0.460273037	0.543603329	0.007494070	0.077314944	0.023829216
2020-04-19T02:45:00	0.1986	8.604	188.0	0.461078720	0.544692431	0.007517845	0.077560221	0.023904813
2020-04-19T02:50:00	0.1979	8.589	187.0	0.458756969	0.541555339	0.007449434	0.076854435	0.023687283
2020-04-19T02:55:00	0.1994	8.576	188.0	0.464078128	0.548751472	0.007606679	0.078476702	0.024187282
2020-04-19T03:00:00	0.2000	8.561	187.0	0.465923743	0.551252649	0.007661596	0.079043270	0.024361903
2020-04-19T03:05:00	0.2002	8.543	188.0	0.466728075	0.552343525	0.007685590	0.079290812	0.024438198
2020-04-19T03:10:00	0.2009	8.525	187.0	0.469265411	0.555788152	0.007761523	0.080074203	0.024679647
2020-04-19T03:15:00	0.2006	8.508	187.0	0.467989501	0.554055369	0.007723294	0.079679797	0.024558087
2020-04-19T03:20:00	0.1999	8.492	187.0	0.465672511	0.550912022	0.007654109	0.078966029	0.024338097
2020-04-19T03:25:00	0.2003	8.475	187.0	0.467170506	0.552943791	0.007698804	0.079427137	0.024480215
2020-04-19T03:30:00	0.2000	8.458	187.0	0.465893803	0.551212054	0.007660703	0.079034063	0.024359066
2020-04-19T03:35:00	0.2006	8.440	187.0	0.468085113	0.554185172	0.007726155	0.079709319	0.024567186
2020-04-19T03:40:00	0.2008	8.421	187.0	0.468888930	0.555276728	0.007750233	0.079957727	0.024643748
2020-04-19T03:45:00	0.2014	8.405	187.0	0.470731914	0.557781374	0.007805578	0.080528711	0.024819731
2020-04-19T03:50:00	0.2032	8.391	187.0	0.477071638	0.566417783	0.007997445	0.082508164	0.025429818
2020-04-19T03:55:00	0.2034	8.375	187.0	0.477873320	0.567512169	0.008021871	0.082760165	0.025507487
2020-04-19T04:00:00	0.2040	8.360	186.0	0.479711414	0.570023306	0.008078014	0.083339385	0.025686008
2020-04-19T04:05:00	0.2035	8.344	186.0	0.478289553	0.568080575	0.008034568	0.082891153	0.025547858
2020-04-19T04:10:00	0.2036	8.329	186.0	0.478595510	0.568498477	0.008043907	0.082987503	0.025577554
2020-04-19T04:15:00	0.2032	8.317	186.0	0.477173180	0.566556371	0.008000537	0.082540062	0.025439649
2020-04-19T04:20:00	0.2020	8.300	186.0	0.472982036	0.560842984	0.007873413	0.081228550	0.025035428
2020-04-19T04:25:00	0.2030	8.284	186.0	0.476402275	0.565504420	0.007977078	0.082298048	0.025365058
2020-04-19T04:30:00	0.2011	8.268	186.0	0.469785569	0.556494937	0.007777135	0.080235269	0.024729289
2020-04-19T04:35:00	0.2026	8.253	186.0	0.474939328	0.563509434	0.007932655	0.081839743	0.025223804
2020-04-19T04:40:00	0.2038	8.240	186.0	0.479048757	0.569117697	0.008057752	0.083130338	0.025621578
2020-04-19T04:45:00	0.2036	8.227	186.0	0.478317935	0.568119338	0.008035434	0.082900089	0.025550612
2020-04-19T04:50:00	0.2030	8.215	186.0	0.476549702	0.565705558	0.007981562	0.082344303	0.025379314
2020-04-19T04:55:00	0.2023	8.202	186.0	0.474088505	0.562349970	0.007906876	0.081573783	0.025141832
2020-04-19T05:00:00	0.2039	8.187	186.0	0.479581226	0.569845358	0.008074031	0.083298294	0.025673343
2020-04-19T05:05:00	0.2045	8.174	186.0	0.481613940	0.572625305	0.008136330	0.083941015	0.025871436
2020-04-19T05:10:00	0.2048	8.163	186.0	0.482610038	0.573988775	0.008166945	0.084256862	0.025968783
2020-04-19T05:15:00	0.2054	8.153	186.0	0.484640938	0.576771149	0.008229540	0.084902648	0.026167821
2020-04-19T05:20:00	0.2049	8.144	186.0	0.482876003	0.574352965	0.008175129	0.084341294	0.025994806
2020-04-19T05:25:00	0.2051	8.135	186.0	0.483526656	0.575244152	0.008195167	0.084548026	0.026058523
2020-04-19T05:30:00	0.2065	8.127	186.0	0.488314973	0.581813027	0.008343382	0.086077130	0.026529808
2020-04-19T05:35:00	0.2068	8.119	186.0	0.489653593	0.583652701	0.008385052	0.086507038	0.026662309
2020-04-19T05:40:00	0.2089	8.111	186.0	0.496840344	0.593554040	0.008610535	0.088833304	0.027379287
2020-04-19T05:45:00	0.2082	8.104	186.0	0.494393823	0.590178765	0.008533442	0.088037949	0.027134151
2020-04-19T05:50:00	0.2078	8.092	186.0	0.492978099	0.588227795	0.008488988	0.087579327	0.026992799
2020-04-19T05:55:00	0.2080	8.092	186.0	0.493626820	0.589121580	0.008509344	0.087789331	0.027057525
2020-04-19T06:00:00	0.2088	8.087	186.0	0.496338806	0.592861715	0.008594703	0.088669965	0.027328944
2020-04-19T06:05:00	0.2098	8.080	186.0	0.499735606	0.597554619	0.008702214	0.089779142	0.027670803
2020-04-19T06:10:00	0.2100	8.062	185.0	0.500383042	0.598450146	0.008722782	0.089991332	0.027736202
2020-04-19T06:15:00	0.2098	8.052	185.0	0.500000235	0.597920611	0.008710618	0.089865841	0.027697525
2020-04-19T06:20:00	0.2104	8.057	185.0	0.502020783	0.600716961	0.008774917	0.090529198	0.027901978
2020-04-19T06:25:00	0.2110	8.051	185.0	0.504040136	0.603514939	0.008839413	0.091194592	0.028107059
2020-04-19T06:30:00	0.2103	8.048	185.0	0.501598776	0.600132650	0.008761468	0.090390450	0.027859214
2020-04-19T06:35:00	0.2110	8.047	185.0	0.503961422	0.603405814	0.008836894	0.091168609	0.028099051
2020-04-19T06:40:00	0.2126	8.041	185.0	0.509406152	0.610965961	0.009011943	0.092974557	0.028655661
2020-04-19T06:45:00	0.2113	8.030	185.0	0.504911655	0.604723515	0.008867321	0.091482516	0.028195800
2020-04-19T06:50:00	0.2120	8.017	185.0	0.507272013	0.607999804	0.008943126	0.092264582	0.028436840
2020-04-19T06:55:00	0.2110	8.026	185.0	0.503803989	0.603187569	0.008831858	0.091116654	0.028083038
2020-04-19T07:00:00	0.2107	8.030	185.0	0.503078468	0.602182060	0.008808669	0.090877411	0.028009301
2020-04-19T07:05:00	0.2109	8.035	185.0	0.503725270	0.603078451	0.008829341	0.091090681	0.028075033
2020-04-19T07:10:00	0.2115	8.041	185.0	0.505743616	0.605877804	0.008894003	0.091757793	0.028280643
2020-04-19T07:15:00	0.2114	8.040	185.0	0.505361410	0.605347450	0.008881740	0.091631279	0.028241650
2020-04-19T07:20:00	0.2108	8.026	185.0	0.503264109	0.602439301	0.008814599	0.090938597	0.028028159
2020-04-19T07:25:00	0.2102	8.036	185.0	0.501165518	0.599532911	0.008747671	0.090248113	0.027815345
2020-04-19T07:30:00	0.2097	8.058	185.0	0.499409139	0.597103180	0.008691853	0.089672240	0.027637855
2020-04-19T07:35:00	0.2098	8.082	185.0	0.499713200	0.597523632	0.008701503	0.089771803	0.027668541
2020-04-19T07:40:00	0.2107	8.093	185.0	0.502763514	0.601745693	0.008798611	0.090773651	0.027977321
2020-04-19T07:45:00	0.2103	8.096	186.0	0.501694534	0.600265224	0.008764519	0.090421924	0.027868915
2020-04-19T07:50:00	0.2090	8.103	186.0	0.497189871	0.594036647	0.008621577	0.088947224	0.027414398
2020-04-19T07:55:00	0.2095	8.117	186.0	0.498868562	0.596355859	0.008674708	0.089495368	0.027583342
2020-04-19T08:00:00	0.2098	8.151	186.0	0.499859619	0.597726126	0.008706152	0.089819766	0.027683324
2020-04-19T08:05:00	0.2102	8.177	186.0	0.501193709	0.599571929	0.008748569	0.090257371	0.027818198
2020-04-19T08:10:00	0.2091	8.215	187.0	0.497375832	0.594293452	0.008627455	0.089007863	0.027433088
2020-04-19T08:15:00	0.2091	8.255	186.0	0.497336398	0.594238993	0.008626208	0.088995003	0.027429124
2020-04-19T08:20:00	0.2096	8.262	186.0	0.499015017	0.596558303	0.008679352	0.089543270	0.027598105
2020-04-19T08:25:00	0.2111	8.290	186.0	0.504467630	0.604107688	0.008853097	0.091335766	0.028150570
2020-04-19T08:30:00	0.2118	8.304	186.0	0.506828294	0.607383558	0.008928851	0.092117309	0.028391449
2020-04-19T08:35:00	0.2124	8.340	186.0	0.508844809	0.610185415	0.008993817	0.092787548	0.028598024
2020-04-19T08:40:00	0.2126	8.393	186.0	0.509490521	0.611083296	0.009014669	0.093002680	0.028664329
2020-04-19T08:45:00	0.2131	8.419	187.0	0.511163180	0.613410743	0.009068798	0.093561117	0.028836445
2020-04-19T08:50:00	0.2124	8.465	187.0	0.508726903	0.610021500	0.008990012	0.092748293	0.028585925
2020-04-19T08:55:00	0.2118	8.522	187.0	0.506631666	0.607110529	0.008922529	0.092052085	0.028371347
2020-04-19T09:00:00	0.2123	8.598	187.0	0.508305723	0.609436059	0.008976426	0.092608132	0.028542726
2020-04-19T09:05:00	0.2127	8.679	188.0	0.509636521	0.611286361	0.009019387	0.093051357	0.028679332
2020-04-19T09:10:00	0.2129	8.760	188.0	0.510624460	0.612660886	0.009051347	0.093381077	0.028780955
2020-04-19T09:15:00	0.2128	8.829	189.0	0.510242799	0.612129786	0.009038994	0.093253630	0.028741675
2020-04-19T09:20:00	0.2133	8.894	189.0	0.511915091	0.614457737	0.009093183	0.093812696	0.028913984
2020-04-19T09:25:00	0.2137	8.956	189.0	0.513244487	0.616309965	0.009136377	0.094258321	0.029051330
2020-04-19T09:30:00	0.2149	9.016	190.0	0.517307995	0.621980450	0.009269042	0.095626994	0.029473168
2020-04-19T09:35:00	0.2151	9.085	190.0	0.517952115	0.622880524	0.009290159	0.095844855	0.029540315
2020-04-19T09:40:00	0.2142	9.154	190.0	0.514836851	0.618530462	0.009188250	0.094793485	0.029216273
2020-04-19T09:45:00	0.2147	9.231	191.0	0.516506904	0.620861498	0.009242812	0.095356389	0.029389765
2020-04-19T09:50:00	0.2139	9.279	191.0	0.513732393	0.616990115	0.009152256	0.094422136	0.029101819
2020-04-19T09:55:00	0.2129	9.338	191.0	0.510613292	0.612645344	0.009050985	0.093377346	0.028779805
2020-04-19T10:00:00	0.2122	9.397	191.0	0.508176624	0.609256639	0.008972264	0.092565192	0.028529491
2020-04-19T10:05:00	0.2124	9.442	191.0	0.508913323	0.610280671	0.008996028	0.092810364	0.028605055
2020-04-19T10:10:00	0.2115	9.490	191.0	0.505537917	0.605592358	0.008887403	0.091689694	0.028259654
2020-04-19T10:15:00	0.2126	9.556	192.0	0.509358944	0.610900308	0.009010418	0.092958823	0.028650812
2020-04-19T10:20:00	0.2125	9.620	192.0	0.509067999	0.610495730	0.009001022	0.092861881	0.028620933
2020-04-19T10:25:00	0.2112	9.683	192.0	0.504664032	0.604380062	0.008859387	0.091400662	0.028170572
2020-04-19T10:30:00	0.2096	9.741	192.0	0.499224028	0.596847247	0.008685980	0.089611654	0.027619182
2020-04-19T10:35:00	0.2111	9.799	193.0	0.504424316	0.604047623	0.008851710	0.091321458	0.028146160
2020-04-19T10:40:00	0.2111	9.856	193.0	0.504132951	0.603643621	0.008842383	0.091225234	0.028116503
2020-04-19T10:45:00	0.2106	9.902	193.0	0.502469131	0.601337899	0.008789216	0.090676722	0.027947446
2020-04-19T10:50:00	0.2110	9.968	194.0	0.503893197	0.603311233	0.008834712	0.091146092	0.028092111
2020-04-19T10:55:00	0.2098	10.046	194.0	0.499826010	0.597679644	0.008705085	0.089808755	0.027679931
2020-04-19T11:00:00	0.2110	10.115	195.0	0.503996467	0.603454397	0.008838016	0.091180177	0.028102616
2020-04-19T11:05:00	0.2115	10.186	195.0	0.505762760	0.605904371	0.008894618	0.091764133	0.028282597
2020-04-19T11:10:00	0.2105	10.249	195.0	0.502384239	0.601220316	0.008786508	0.090648780	0.027938834
2020-04-19T11:15:00	0.2105	10.343	196.0	0.502092700	0.600816551	0.008777210	0.090552853	0.027909269
2020-04-19T11:20:00	0.2097	10.435	196.0	0.499397584	0.597087204	0.008691486	0.089668458	0.027636690
2020-04-19T11:25:00	0.2100	10.531	196.0	0.500479573	0.598583696	0.008725850	0.090022990	0.027745960
2020-04-19T11:30:00	0.2108	10.639	196.0	0.503277127	0.602457341	0.008815015	0.090942888	0.028029481
2020-04-19T11:35:00	0.2098	10.742	197.0	0.499896145	0.597776643	0.008707312	0.089831733	0.027687013
2020-04-19T11:40:00	0.2097	10.882	198.0	0.499604393	0.597373167	0.008698049	0.089736168	0.027657559
2020-04-19T11:45:00	0.2100	11.013	198.0	0.500686316	0.598869748	0.008732424	0.090090812	0.027766863
2020-04-19T11:50:00	0.2098	11.142	199.0	0.499707793	0.597516155	0.008701331	0.089770032	0.027667996
2020-04-19T11:55:00	0.2097	11.259	199.0	0.499416025	0.597112701	0.008692071	0.089674494	0.027638550
2020-04-19T12:00:00	0.2073	11.348	200.0	0.491214255	0.585799338	0.008433765	0.087009598	0.026817203
2020-04-19T12:05:00	0.2086	11.457	200.0	0.495739128	0.592034184	0.008575792	0.088474862	0.027268812
2020-04-19T12:10:00	0.2086	11.564	201.0	0.495790887	0.592105598	0.008577423	0.088491693	0.027273999
2020-04-19T12:15:00	0.2086	11.660	201.0	0.495842645	0.592177013	0.008579055	0.088508526	0.027279187
2020-04-19T12:20:00	0.2092	11.713	202.0	0.497613163	0.594621237	0.008634959	0.089085284	0.027456950
2020-04-19T12:25:00	0.2092	11.779	202.0	0.497664894	0.594692690	0.008636595	0.089102163	0.027462152
2020-04-19T12:30:00	0.2096	11.835	202.0	0.499090966	0.596663293	0.008681760	0.089568116	0.027605763
2020-04-19T12:35:00	0.2098	11.870	202.0	0.499829627	0.597684647	0.008705200	0.089809941	0.027680296
2020-04-19T12:40:00	0.2107	11.932	202.0	0.502970857	0.602032957	0.008805232	0.090841952	0.027998372
2020-04-19T12:45:00	0.2092	11.976	203.0	0.497871807	0.594978510	0.008643141	0.089169695	0.027482966
2020-04-19T12:50:00	0.2104	11.994	203.0	0.502044652	0.600750014	0.008775678	0.090537048	0.027904398
2020-04-19T12:55:00	0.2092	12.004	203.0	0.497631613	0.594646721	0.008635543	0.089091304	0.027458805
2020-04-19T13:00:00	0.2100	12.030	203.0	0.500431502	0.598517190	0.008724322	0.090007224	0.027741101
2020-04-19T13:05:00	0.2100	12.054	203.0	0.500483190	0.598588700	0.008725965	0.090024176	0.027746325
2020-04-19T13:10:00	0.2098	12.070	203.0	0.499848066	0.597710147	0.008705785	0.089815981	0.027682158
2020-04-19T13:15:00	0.2092	12.084	203.0	0.497838529	0.594932539	0.008642088	0.089158832	0.027479618
2020-04-19T13:20:00	0.2088	12.086	203.0	0.496515429	0.593105504	0.008600277	0.088727470	0.027346668
2020-04-19T13:25:00	0.2089	12.073	203.0	0.496910930	0.593651493	0.008612764	0.088856304	0.027386376
2020-04-19T13:30:00	0.2092	12.031	203.0	0.497650063	0.594672206	0.008636126	0.089097324	0.027460661
2020-04-19T13:35:00	0.2081	11.963	203.0	0.493919473	0.589524898	0.008518535	0.087884151	0.027086749
2020-04-19T13:40:00	0.2064	11.901	203.0	0.488117665	0.581541987	0.008337248	0.086013853	0.026510305
2020-04-19T13:45:00	0.2081	11.854	202.0	0.494023046	0.589667652	0.008521788	0.087917721	0.027097095
2020-04-19T13:50:00	0.2073	11.809	202.0	0.491321537	0.585946972	0.008437119	0.087044198	0.026827867
2020-04-19T13:55:00	0.2075	11.766	201.0	0.492061885	0.586966041	0.008460281	0.087283155	0.026901516
2020-04-19T14:00:00	0.2069	11.694	201.0	0.489703299	0.583721039	0.008386602	0.086523022	0.026667236
2020-04-19T14:05:00	0.2060	11.649	201.0	0.486653597	0.579531784	0.008291807	0.085545046	0.026365814
2020-04-19T14:10:00	0.2068	11.599	201.0	0.489462528	0.583390031	0.008379098	0.086445611	0.026643377
2020-04-19T14:15:00	0.2074	11.543	201.0	0.491580659	0.586303597	0.008445222	0.087127796	0.026853633
2020-04-19T14:20:00	0.2068	11.484	200.0	0.489566236	0.583532601	0.008382330	0.086478950	0.026653652
2020-04-19T14:25:00	0.2063	11.427	200.0	0.487895284	0.581236542	0.008330338	0.085942563	0.026488333
2020-04-19T14:30:00	0.2059	11.343	200.0	0.486568310	0.579414736	0.008289164	0.085517775	0.026357409
2020-04-19T14:35:00	0.2062	11.267	200.0	0.487309694	0.580432411	0.008312156	0.085754977	0.026430517
2020-04-19T14:40:00	0.2062	11.199	199.0	0.487361582	0.580503651	0.008313766	0.085771590	0.026435637
2020-04-19T14:45:00	0.2052	11.135	199.0	0.483964745	0.575844385	0.008208672	0.084687361	0.026101467
2020-04-19T14:50:00	0.2062	11.070	199.0	0.487465354	0.580646136	0.008316987	0.085804821	0.026445879
2020-04-19T14:55:00	0.2052	10.999	198.0	0.484068621	0.575986730	0.008211876	0.084720416	0.026111655
2020-04-19T15:00:00	0.2045	10.938	199.0	0.481704475	0.572749197	0.008139110	0.083969697	0.025880276
2020-04-19T15:05:00	0.2036	10.875	198.0	0.478647570	0.568569592	0.008045496	0.083003903	0.025582609
2020-04-19T15:10:00	0.2042	10.809	197.0	0.480427070	0.571001737	0.008099926	0.083565443	0.025755681
2020-04-19T15:15:00	0.2039	10.748	197.0	0.479442696	0.569656025	0.008069794	0.083254582	0.025659871
2020-04-19T15:20:00	0.2038	10.695	197.0	0.479149184	0.569254921	0.008060821	0.083162003	0.025631337
2020-04-19T15:25:00	0.2047	10.627	197.0	0.482309566	0.573577402	0.008157704	0.084161525	0.025939399
2020-04-19T15:30:00	0.2032	10.559	197.0	0.477179407	0.566564869	0.008000726	0.082542018	0.025440252
2020-04-19T15:35:00	0.2035	10.501	197.0	0.478268492	0.568051811	0.008033925	0.082884523	0.025545815
2020-04-19T15:40:00	0.2037	10.436	196.0	0.478666124	0.568594937	0.008046063	0.083009748	0.025584411
2020-04-19T15:45:00	0.2038	10.372	196.0	0.479063708	0.569138125	0.008058209	0.083135052	0.025623030
2020-04-19T15:50:00	0.2034	10.303	196.0	0.477733273	0.567320951	0.008017601	0.082716115	0.025493910
2020-04-19T15:55:00	0.2035	10.240	195.0	0.478130967	0.567863993	0.008029729	0.082841234	0.025532473
2020-04-19T16:00:00	0.2040	10.183	195.0	0.479910738	0.570295776	0.008084114	0.083402316	0.025705404
2020-04-19T16:05:00	0.2034	10.132	195.0	0.477898651	0.567546757	0.008022643	0.082768134	0.025509943
2020-04-19T16:10:00	0.2037	10.075	195.0	0.478651210	0.568574565	0.008045608	0.083005050	0.025582962
2020-04-19T16:15:00	0.2030	10.007	194.0	0.476292562	0.565354748	0.007973743	0.082263634	0.025354451
2020-04-19T16:20:00	0.2024	9.950	194.0	0.474278322	0.562608595	0.007912624	0.081633082	0.025160109
2020-04-19T16:25:00	0.2019	9.888	194.0	0.472609106	0.560335282	0.007862150	0.081112354	0.024999615
2020-04-19T16:30:00	0.2023	9.846	193.0	0.474055032	0.562304366	0.007905863	0.081563329	0.025138610
2020-04-19T16:35:00	0.2015	9.804	193.0	0.471346856	0.558617690	0.007824088	0.080719675	0.024878588
2020-04-19T16:40:00	0.2005	9.764	193.0	0.467596503	0.553521907	0.007711537	0.079558508	0.024520705
2020-04-19T16:45:00	0.2009	9.736	193.0	0.469044576	0.555488149	0.007754900	0.080005870	0.024658586
2020-04-19T16:50:00	0.2005	9.702	193.0	0.467719496	0.553688847	0.007715216	0.079596457	0.024532401
2020-04-19T16:55:00	0.2006	9.671	193.0	0.468127676	0.554242959	0.007727429	0.079722463	0.024571237
2020-04-19T17:00:00	0.2005	9.632	192.0	0.467842486	0.553855793	0.007718895	0.079634414	0.024544100
2020-04-19T17:05:00	0.2005	9.607	193.0	0.467903978	0.553939269	0.007720735	0.079653395	0.024549950
2020-04-19T17:10:00	0.2009	9.585	192.0	0.469005361	0.555434879	0.007753724	0.079993739	0.024654847
2020-04-19T17:15:00	0.2008	9.565	192.0	0.468720244	0.555047616	0.007745177	0.079905565	0.024627671
2020-04-19T17:20:00	0.2013	9.541	192.0	0.470514275	0.557485458	0.007799032	0.080461179	0.024798917
2020-04-19T17:25:00	0.2016	9.508	192.0	0.471614806	0.558982194	0.007832160	0.080802954	0.024904255
2020-04-19T17:30:00	0.2022	9.478	192.0	0.473753407	0.561893472	0.007896734	0.081469152	0.025109584
2020-04-19T17:35:00	0.2022	9.451	192.0	0.473468691	0.561505678	0.007888122	0.081380304	0.025082200
2020-04-19T17:40:00	0.2028	9.418	192.0	0.475606120	0.564418512	0.007952888	0.082048476	0.025288137
2020-04-19T17:45:00	0.2033	9.382	192.0	0.477396500	0.566861194	0.008007339	0.082610235	0.025461277
2020-04-19T17:50:00	0.2043	9.351	192.0	0.480913165	0.571666550	0.008114826	0.083719162	0.025803059
2020-04-19T17:55:00	0.2040	9.316	192.0	0.479938206	0.570333326	0.008084955	0.083410990	0.025708077
2020-04-19T18:00:00	0.2044	9.283	191.0	0.481381003	0.572306572	0.008129179	0.083867239	0.025848697
2020-04-19T18:05:00	0.2048	9.248	191.0	0.482478006	0.573808002	0.008162883	0.084214962	0.025955869
2020-04-19T18:10:00	0.2057	9.217	191.0	0.485644546	0.578147328	0.008260560	0.085222678	0.026266457
2020-04-19T18:15:00	0.2057	9.184	191.0	0.485705716	0.578231233	0.008262453	0.085242204	0.026272475
2020-04-19T18:20:00	0.2064	9.150	191.0	0.488180078	0.581627721	0.008339188	0.086033867	0.026516473
2020-04-19T18:25:00	0.2065	9.118	191.0	0.488585799	0.582185109	0.008351804	0.086164022	0.026556589
2020-04-19T18:30:00	0.2064	9.083	190.0	0.488302327	0.581795654	0.008342988	0.086073074	0.026528557
2020-04-19T18:35:00	0.2073	9.047	190.0	0.491119138	0.585668452	0.008430792	0.086978927	0.026807750
2020-04-19T18:40:00	0.2078	9.014	190.0	0.492901351	0.588122077	0.008486582	0.087554499	0.026985147
2020-04-19T18:45:00	0.2087	8.978	190.0	0.496058198	0.592474452	0.008585851	0.088578644	0.027300798
2020-04-19T18:50:00	0.2090	8.945	190.0	0.497150474	0.593982245	0.008620332	0.088934380	0.027410440
2020-04-19T18:55:00	0.2088	8.908	190.0	0.496523956	0.593117274	0.008600546	0.088730247	0.027347524
2020-04-19T19:00:00	0.2090	8.872	190.0	0.496928683	0.593676004	0.008613325	0.088862089	0.027388159
2020-04-19T19:05:00	0.2093	8.837	190.0	0.498020679	0.595184176	0.008647852	0.089218299	0.027497946
2020-04-19T19:10:00	0.2100	8.802	189.0	0.500486107	0.598592736	0.008726058	0.090025133	0.027746620
2020-04-19T19:15:00	0.2100	8.765	189.0	0.500547011	0.598677000	0.008727994	0.090045110	0.027752777
2020-04-19T19:20:00	0.2096	8.731	189.0	0.499234182	0.596861285	0.008686302	0.089614977	0.027620206
2020-04-19T19:25:00	0.2095	8.693	188.0	0.498951596	0.596470634	0.008677341	0.089522525	0.027591712
2020-04-19T19:30:00	0.2107	8.657	188.0	0.502789204	0.601781283	0.008799431	0.090782112	0.027979929
2020-04-19T19:35:00	0.2106	8.620	188.0	0.502506911	0.601390231	0.008790422	0.090689159	0.027951280
2020-04-19T19:40:00	0.2104	8.582	188.0	0.501881377	0.600523923	0.008770473	0.090483352	0.027887848
2020-04-19T19:45:00	0.2105	8.541	188.0	0.502285469	0.601083517	0.008783357	0.090616275	0.027928816
2020-04-19T19:50:00	0.2098	8.502	188.0	0.499943173	0.597841686	0.008708806	0.089847142	0.027691762
2020-04-19T19:55:00	0.2097	8.464	188.0	0.499660645	0.597450954	0.008699835	0.089754590	0.027663236
2020-04-19T20:00:00	0.2106	8.426	187.0	0.502468081	0.601336446	0.008789183	0.090676377	0.027947340
2020-04-19T20:05:00	0.2105	8.387	186.0	0.502185762	0.600945429	0.008780177	0.090583468	0.027918705
2020-04-19T20:10:00	0.2106	8.349	187.0	0.502589818	0.601505072	0.008793067	0.090716453	0.027959692
2020-04-19T20:15:00	0.2114	8.313	187.0	0.505394848	0.605393844	0.008882813	0.091642343	0.028245060
2020-04-19T20:20:00	0.2114	8.275	187.0	0.505455664	0.605478228	0.008884764	0.091662470	0.028251263
2020-04-19T20:25:00	0.2112	8.237	187.0	0.504487714	0.604135539	0.008853740	0.091342402	0.028152615
2020-04-19T20:30:00	0.2113	8.197	186.0	0.504891497	0.604695553	0.008866675	0.091475851	0.028193746
2020-04-19T20:35:00	0.2109	8.158	186.0	0.503580338	0.602877563	0.008824707	0.091042871	0.028060297
2020-04-19T20:40:00	0.2109	8.119	187.0	0.503641187	0.602961902	0.008826652	0.091062942	0.028066483
2020-04-19T20:45:00	0.2095	8.080	186.0	0.498895916	0.596393669	0.008675576	0.089504314	0.027586099
2020-04-19T20:50:00	0.2095	8.041	186.0	0.498956848	0.596477894	0.008677507	0.089524243	0.027592241
2020-04-19T20:55:00	0.2107	8.000	186.0	0.502794451	0.601788552	0.008799599	0.090783841	0.027980461
2020-04-19T21:00:00	0.2109	7.958	185.0	0.503541520	0.602823761	0.008823466	0.091030068	0.028056351
2020-04-19T21:05:00	0.2104	7.916	185.0	0.501886625	0.600531190	0.008770640	0.090485077	0.027888380
2020-04-19T21:10:00	0.2101	7.873	184.0	0.500917662	0.599189882	0.008739784	0.090166736	0.027790264
2020-04-19T21:15:00	0.2106	7.833	184.0	0.502694759	0.601650445	0.008796417	0.090751008	0.027970342
2020-04-19T21:20:00	0.2112	7.796	184.0	0.504470932	0.604112267	0.008853202	0.091336857	0.028150906
2020-04-19T21:25:00	0.2107	7.758	185.0	0.502816488	0.601819082	0.008800303	0.090791099	0.027982698
2020-04-19T21:30:00	0.2102	7.718	184.0	0.501161241	0.599526991	0.008747535	0.090246708	0.027814912
2020-04-19T21:35:00	0.2106	7.677	184.0	0.502595065	0.601512341	0.008793235	0.090718181	0.027960224
2020-04-19T21:40:00	0.2103	7.637	184.0	0.501626303	0.600170759	0.008762345	0.090399496	0.027862003
2020-04-19T21:45:00	0.2102	7.597	184.0	0.501343914	0.599779837	0.008753351	0.090306707	0.027833404
2020-04-19T21:50:00	0.2105	7.557	183.0	0.502091301	0.600814613	0.008777165	0.090552393	0.027909127
2020-04-19T21:55:00	0.2110	7.515	183.0	0.503867787	0.603276008	0.008833899	0.091137707	0.028089526
2020-04-19T22:00:00	0.2108	7.475	183.0	0.503242502	0.602409360	0.008813909	0.090931474	0.028025963
2020-04-19T22:05:00	0.2107	7.434	183.0	0.502805294	0.601803575	0.008799945	0.090787412	0.027981562
2020-04-19T22:10:00	0.2111	7.391	183.0	0.504426530	0.604050694	0.008851781	0.091322189	0.028146386
2020-04-19T22:15:00	0.2110	7.349	183.0	0.503989474	0.603444702	0.008837792	0.091177868	0.028101905
2020-04-19T22:20:00	0.2122	7.311	182.0	0.508009334	0.609024162	0.008966872	0.092509563	0.028512346
2020-04-19T22:25:00	0.2120	7.274	182.0	0.507230054	0.607941524	0.008941776	0.092250651	0.028432547
2020-04-19T22:30:00	0.2125	7.239	182.0	0.509191712	0.610667753	0.009005016	0.092903095	0.028633636
2020-04-19T22:35:00	0.2120	7.199	182.0	0.507384806	0.608156480	0.008946757	0.092302038	0.028448384
2020-04-19T22:40:00	0.2121	7.159	182.0	0.507633513	0.608501981	0.008954764	0.092384653	0.028473847
2020-04-19T22:45:00	0.2116	7.119	182.0	0.506168606	0.606467664	0.008907649	0.091898572	0.028324033
2020-04-19T22:50:00	0.2129	7.080	182.0	0.510528293	0.612527053	0.009048233	0.093348956	0.028771055
2020-04-19T22:55:00	0.2133	7.042	182.0	0.511803649	0.614302531	0.009089567	0.093775388	0.028902485
2020-04-19T23:00:00	0.2139	7.006	181.0	0.513762689	0.617032355	0.009153242	0.094432312	0.029104956
2020-04-19T23:05:00	0.2146	6.968	181.0	0.516404243	0.620718140	0.009239453	0.095321738	0.029379085
2020-04-19T23:10:00	0.2133	6.931	181.0	0.511864351	0.614387070	0.009091537	0.093795709	0.028908748
2020-04-19T23:15:00	0.2140	6.896	180.0	0.514165380	0.617593868	0.009166358	0.094567631	0.029146662
2020-04-19T23:20:00	0.2139	6.859	181.0	0.513729565	0.616986172	0.009152164	0.094421186	0.029101526
2020-04-19T23:25:00	0.2140	6.822	180.0	0.514319819	0.617809253	0.009171391	0.094619553	0.029162665
2020-04-19T23:30:00	0.2136	6.783	180.0	0.512857770	0.615771011	0.009123802	0.094128581	0.029011343
2020-04-19T23:35:00	0.2134	6.745	180.0	0.512079593	0.614686858	0.009098523	0.093867781	0.028930962
2020-04-19T23:40:00	0.2139	6.712	180.0	0.514038476	0.617416899	0.009162224	0.094524976	0.029133516
2020-04-19T23:45:00	0.2133	6.680	179.0	0.511891911	0.614425454	0.009092431	0.093804935	0.028911592
2020-04-19T23:50:00	0.2143	6.643	179.0	0.515218776	0.619063348	0.009200714	0.094922068	0.029255903
2020-04-19T23:55:00	0.2147	6.606	179.0	0.516492388	0.620841227	0.009242337	0.095351489	0.029388255
2020-04-20T00:00:00	0.2135	6.567	179.0	0.512636997	0.615463380	0.009116626	0.094054554	0.028988527
2020-04-20T00:05:00	0.2124	6.531	179.0	0.508777263	0.610091510	0.008991637	0.092765059	0.028591092
2020-04-20T00:10:00	0.2127	6.496	179.0	0.509710838	0.611389731	0.009021790	0.093076140	0.028686970
2020-04-20T00:15:00	0.2125	6.460	178.0	0.508931945	0.610306561	0.008996629	0.092816565	0.028606967
2020-04-20T00:20:00	0.2124	6.428	178.0	0.508838019	0.610175976	0.008993598	0.092785288	0.028597327
2020-04-20T00:25:00	0.2124	6.392	178.0	0.508744091	0.610045394	0.008990566	0.092754015	0.028587688
2020-04-20T00:30:00	0.2111	6.361	178.0	0.504194023	0.603728297	0.008844337	0.091245399	0.028122718
2020-04-20T00:35:00	0.2117	6.329	178.0	0.506500213	0.606928015	0.008918303	0.092008493	0.028357911
2020-04-20T00:40:00	0.2118	6.294	178.0	0.506748984	0.607273428	0.008926301	0.092090998	0.028383340
2020-04-20T00:45:00	0.2108	6.265	178.0	0.503225715	0.602386096	0.008813373	0.090925940	0.028024258
2020-04-20T00:50:00	0.2103	6.232	178.0	0.501415651	0.599879139	0.008755635	0.090330274	0.027840668
2020-04-20T00:55:00	0.2100	6.197	178.0	0.500634865	0.598798557	0.008730788	0.090073931	0.027761660
2020-04-20T01:00:00	0.2094	6.161	177.0	0.498479865	0.595818650	0.008662392	0.089368298	0.027544177
2020-04-20T01:05:00	0.2106	6.129	177.0	0.502506212	0.601389262	0.008790399	0.090688929	0.027951209
2020-04-20T01:10:00	0.2109	6.100	177.0	0.503784562	0.603160639	0.008831237	0.091110244	0.028081062
2020-04-20T01:15:00	0.2114	6.070	177.0	0.505405334	0.605408393	0.008883149	0.091645813	0.028246130
2020-04-20T01:20:00	0.2113	6.039	176.0	0.504968402	0.604802230	0.008869140	0.091501279	0.028201583
2020-04-20T01:25:00	0.2106	6.008	177.0	0.502472979	0.601343229	0.008789339	0.090677989	0.027947837
2020-04-20T01:30:00	0.2109	5.978	177.0	0.503751342	0.603114590	0.008830175	0.091099283	0.028077684
2020-04-20T01:35:00	0.2106	5.948	176.0	0.502627947	0.601557890	0.008794284	0.090729008	0.027963561
2020-04-20T01:40:00	0.2113	5.917	176.0	0.504935193	0.604756165	0.008868075	0.091490298	0.028198198
2020-04-20T01:45:00	0.2103	5.887	176.0	0.501410052	0.599871389	0.008755457	0.090328435	0.027840101
2020-04-20T01:50:00	0.2107	5.858	176.0	0.503031950	0.602117604	0.008807183	0.090862082	0.028004576
2020-04-20T01:55:00	0.2103	5.829	176.0	0.501565068	0.600085984	0.008760394	0.090379371	0.027855800
2020-04-20T02:00:00	0.2102	5.801	175.0	0.501127645	0.599480492	0.008746466	0.090235676	0.027811512
2020-04-20T02:05:00	0.2106	5.770	175.0	0.502749677	0.601726525	0.008798170	0.090769094	0.027975916
2020-04-20T02:10:00	0.2105	5.738	176.0	0.502312406	0.601120826	0.008784216	0.090625140	0.027931548
2020-04-20T02:15:00	0.2105	5.708	175.0	0.502218298	0.600990489	0.008781215	0.090594173	0.027922004
2020-04-20T02:20:00	0.2100	5.679	175.0	0.500407700	0.598484260	0.008723566	0.089999418	0.027738695
2020-04-20T02:25:00	0.2091	5.651	175.0	0.497565286	0.594555109	0.008633445	0.089069663	0.027452135
2020-04-20T02:30:00	0.2095	5.626	175.0	0.498845488	0.596323966	0.008673977	0.089487823	0.027581016
2020-04-20T02:35:00	0.2091	5.600	175.0	0.497376805	0.594294796	0.008627486	0.089008181	0.027433186
2020-04-20T02:40:00	0.2090	5.571	175.0	0.496938844	0.593690034	0.008613646	0.088865400	0.027389179
2020-04-20T02:45:00	0.2087	5.542	175.0	0.496157033	0.592610845	0.008588968	0.088610804	0.027310710
2020-04-20T02:50:00	0.2087	5.516	174.0	0.496062755	0.592480740	0.008585995	0.088580126	0.027301255
2020-04-20T02:55:00	0.2098	5.490	174.0	0.499748521	0.597572480	0.008702624	0.089783372	0.027672107
2020-04-20T03:00:00	0.2111	5.461	174.0	0.504459394	0.604096268	0.008852833	0.091333046	0.028149732
2020-04-20T03:05:00	0.2115	5.435	174.0	0.505737014	0.605868642	0.008893792	0.091755607	0.028279969
2020-04-20T03:10:00	0.2112	5.407	174.0	0.504614272	0.604311051	0.008857793	0.091384218	0.028165504
2020-04-20T03:15:00	0.2114	5.382	174.0	0.505206100	0.605131973	0.008876760	0.091579894	0.028225813
2020-04-20T03:20:00	0.2114	5.357	174.0	0.505454965	0.605477258	0.008884741	0.091662238	0.028251192
2020-04-20T03:25:00	0.2115	5.333	169.0	0.505703813	0.605822567	0.008892726	0.091744614	0.028276581
2020-04-20T03:30:00	0.2114	5.309	173.0	0.505266920	0.605216352	0.008878710	0.091600015	0.028232014
2020-04-20T03:35:00	0.2120	5.284	173.0	0.507229704	0.607941039	0.008941764	0.092250535	0.028432511
2020-04-20T03:40:00	0.2117	5.260	174.0	0.506450247	0.606858644	0.008916698	0.091991926	0.028352805
2020-04-20T03:45:00	0.2120	5.235	173.0	0.507384457	0.608155994	0.008946745	0.092301922	0.028448349
2020-04-20T03:50:00	0.2121	5.213	173.0	0.507633164	0.608501496	0.008954753	0.092384537	0.028473812
2020-04-20T03:55:00	0.2125	5.190	173.0	0.509252112	0.610751743	0.009006967	0.092923221	0.028639839
2020-04-20T04:00:00	0.2130	5.168	173.0	0.510870295	0.613003041	0.009059308	0.093463213	0.028806270
2020-04-20T04:05:00	0.2131	5.148	173.0	0.511306473	0.613610236	0.009073443	0.093609035	0.028851214
2020-04-20T04:10:00	0.2139	5.127	173.0	0.513795464	0.617078051	0.009154309	0.094443322	0.029108349
2020-04-20T04:15:00	0.2132	5.105	173.0	0.511494187	0.613871596	0.009079529	0.093671826	0.028870566
2020-04-20T04:20:00	0.2138	5.084	173.0	0.513641001	0.616862698	0.009149280	0.094391440	0.029092358
2020-04-20T04:25:00	0.2142	5.065	172.0	0.514760787	0.618424346	0.009185769	0.094767886	0.029208383
2020-04-20T04:30:00	0.2152	5.045	172.0	0.518272214	0.623327946	0.009300662	0.095953214	0.029573713
2020-04-20T04:35:00	0.2158	5.028	172.0	0.520414792	0.626324896	0.009371118	0.096680096	0.029797745
2020-04-20T04:40:00	0.2163	5.009	172.0	0.522214847	0.628845616	0.009430517	0.097292903	0.029986617
2020-04-20T04:45:00	0.2174	4.989	172.0	0.525718668	0.633759758	0.009546677	0.098491308	0.030355978
2020-04-20T04:50:00	0.2176	4.974	172.0	0.526493762	0.634848181	0.009572470	0.098757407	0.030437992
2020-04-20T04:55:00	0.2178	4.959	172.0	0.527268681	0.635936846	0.009598292	0.099023807	0.030520099
2020-04-20T05:00:00	0.2186	4.942	172.0	0.530086583	0.639899768	0.009692485	0.099995581	0.030819609
2020-04-20T05:05:00	0.2193	4.927	171.0	0.532221821	0.642906938	0.009764167	0.100735113	0.031047540
2020-04-20T05:10:00	0.2195	4.915	171.0	0.532995454	0.643997403	0.009790204	0.101003734	0.031130332
2020-04-20T05:15:00	0.2192	4.904	172.0	0.532068184	0.642690439	0.009759001	0.100681809	0.031031111
2020-04-20T05:20:00	0.2200	4.892	172.0	0.534542200	0.646179062	0.009842366	0.101541878	0.031296193
2020-04-20T05:25:00	0.2210	4.882	171.0	0.538033523	0.651110688	0.009960620	0.102761877	0.031672208
2020-04-20T05:30:00	0.2205	4.870	172.0	0.536428070	0.648841690	0.009906153	0.102199959	0.031499020
2020-04-20T05:35:00	0.2213	4.857	171.0	0.539238508	0.652815084	0.010001599	0.103184649	0.031802511
2020-04-20T05:40:00	0.2215	4.848	171.0	0.539671106	0.653427264	0.010016331	0.103336641	0.031849356
2020-04-20T05:45:00	0.2219	4.838	171.0	0.541121819	0.655481318	0.010065816	0.103847169	0.032006706
2020-04-20T05:50:00	0.2213	4.830	171.0	0.539178286	0.652729875	0.009999549	0.103163499	0.031795992
2020-04-20T05:55:00	0.2215	4.825	172.0	0.539950363	0.653822528	0.010025847	0.103434817	0.031879615
2020-04-20T06:00:00	0.2219	4.818	171.0	0.541061630	0.655396062	0.010063761	0.103825962	0.032000170
2020-04-20T06:05:00	0.2218	4.813	171.0	0.540815328	0.655047215	0.010055351	0.103739204	0.031973430
2020-04-20T06:10:00	0.2217	4.809	171.0	0.540569008	0.654698393	0.010046945	0.103652476	0.031946700
2020-04-20T06:15:00	0.2220	4.805	171.0	0.541340775	0.655791484	0.010073296	0.103924333	0.032030489
2020-04-20T06:20:00	0.2214	4.804	171.0	0.539397364	0.653039868	0.010007007	0.103240450	0.031819709
2020-04-20T06:25:00	0.2224	4.803	171.0	0.542883793	0.657978396	0.010126084	0.104468942	0.032198343
2020-04-20T06:30:00	0.2221	4.806	171.0	0.541959171	0.656667701	0.010094435	0.104142424	0.032097706
2020-04-20T06:35:00	0.2218	4.809	171.0	0.540694938	0.654876720	0.010051242	0.103696811	0.031960364
2020-04-20T06:40:00	0.2220	4.814	171.0	0.541466676	0.655969851	0.010077598	0.103968716	0.032044168
2020-04-20T06:45:00	0.2214	4.819	171.0	0.539523337	0.653218135	0.010011297	0.103284710	0.031833351
2020-04-20T06:50:00	0.2214	4.825	171.0	0.539616429	0.653349880	0.010014468	0.103317424	0.031843434
2020-04-20T06:55:00	0.2220	4.835	171.0	0.541406493	0.655884587	0.010075541	0.103947499	0.032037629
2020-04-20T07:00:00	0.2208	4.847	171.0	0.537425506	0.650251125	0.009939974	0.102548884	0.031606562
2020-04-20T07:05:00	0.2211	4.865	171.0	0.538537584	0.651823514	0.009977751	0.102938621	0.031726683
2020-04-20T07:10:00	0.2207	4.883	172.0	0.536932365	0.649554187	0.009923246	0.102376298	0.031553369
2020-04-20T07:15:00	0.2210	4.909	172.0	0.538044602	0.651126353	0.009960996	0.102765760	0.031673405
2020-04-20T07:20:00	0.2203	4.938	172.0	0.535759489	0.647897399	0.009883516	0.101966410	0.031427038
2020-04-20T07:25:00	0.2205	4.974	172.0	0.536532329	0.648988976	0.009909686	0.102236403	0.031510252
2020-04-20T07:30:00	0.2198	5.014	172.0	0.533906184	0.645281736	0.009820901	0.101320421	0.031227938
2020-04-20T07:35:00	0.2203	5.057	172.0	0.535699206	0.647812275	0.009881476	0.101945365	0.031420552
2020-04-20T07:40:00	0.2181	5.123	173.0	0.528307306	0.637396753	0.009632956	0.099381429	0.030630322
2020-04-20T07:45:00	0.2189	5.186	173.0	0.530784020	0.640881597	0.009715869	0.100236834	0.030893966
2020-04-20T07:50:00	0.2191	5.233	173.0	0.531557975	0.641971610	0.009741853	0.100504898	0.030976586
2020-04-20T07:55:00	0.2194	5.274	173.0	0.532671944	0.643541343	0.009779312	0.100891361	0.031095697
2020-04-20T08:00:00	0.2196	5.326	168.0	0.533445475	0.644631949	0.009805366	0.101160157	0.031178543
2020-04-20T08:05:00	0.2189	5.398	174.0	0.530816980	0.640928007	0.009716975	0.100248242	0.030897482
2020-04-20T08:10:00	0.2185	5.475	174.0	0.529548662	0.639142771	0.009674468	0.099809706	0.030762321
2020-04-20T08:15:00	0.2198	5.546	174.0	0.534065285	0.645506174	0.009826268	0.101375796	0.031245005
2020-04-20T08:20:00	0.2206	5.606	175.0	0.536877644	0.649476864	0.009921390	0.102357156	0.031547470
2020-04-20T08:25:00	0.2202	5.693	175.0	0.535271654	0.647208622	0.009867015	0.101796170	0.031374568
2020-04-20T08:30:00	0.2197	5.786	175.0	0.533664917	0.644941430	0.009812764	0.101236477	0.031202065
2020-04-20T08:35:00	0.2191	5.900	176.0	0.531717185	0.642195897	0.009747202	0.100560086	0.030993595
2020-04-20T08:40:00	0.2199	6.012	176.0	0.534191452	0.645684167	0.009830526	0.101419720	0.031258543
2020-04-20T08:45:00	0.2195	6.111	176.0	0.532924375	0.643897193	0.009787811	0.100979039	0.031122721
2020-04-20T08:50:00	0.2192	6.197	177.0	0.531997085	0.642590256	0.009756610	0.100657147	0.031023510
2020-04-20T08:55:00	0.2201	6.297	177.0	0.535151071	0.647038400	0.009862938	0.101754112	0.031361605
2020-04-20T09:00:00	0.2198	6.401	178.0	0.533884346	0.645250931	0.009820164	0.101312821	0.031225595
2020-04-20T09:05:00	0.2183	6.492	178.0	0.528873192	0.638192539	0.009651869	0.099576549	0.030690459
2020-04-20T09:10:00	0.2178	6.601	179.0	0.527263471	0.635929526	0.009598118	0.099022015	0.030519547
2020-04-20T09:15:00	0.2167	6.713	179.0	0.523607208	0.630797222	0.009476591	0.097768247	0.030133123
2020-04-20T09:20:00	0.2178	6.823	180.0	0.527109613	0.635713335	0.009592988	0.098969093	0.030503236
2020-04-20T09:25:00	0.2175	6.905	180.0	0.526180758	0.634408587	0.009562050	0.098649905	0.030404859
2020-04-20T09:30:00	0.2170	7.004	181.0	0.524569777	0.632147330	0.009508510	0.098097543	0.030234615
2020-04-20T09:35:00	0.2175	7.116	181.0	0.526026850	0.634192463	0.009556928	0.098597067	0.030388574
2020-04-20T09:40:00	0.2154	7.220	182.0	0.518955687	0.624283556	0.009323108	0.096184788	0.029645086
2020-04-20T09:45:00	0.2149	7.342	182.0	0.517341316	0.622027004	0.009270134	0.095638259	0.029476640
2020-04-20T09:50:00	0.2151	7.458	182.0	0.518118301	0.623112802	0.009295611	0.095901104	0.029557652
2020-04-20T09:55:00	0.2148	7.548	183.0	0.516845292	0.621334089	0.009253887	0.095470648	0.029424981
2020-04-20T10:00:00	0.2149	7.629	183.0	0.517280710	0.621942331	0.009268148	0.095617772	0.029470326
2020-04-20T10:05:00	0.2156	7.704	184.0	0.519665631	0.625276578	0.009346452	0.096425627	0.029719315
2020-04-20T10:10:00	0.2146	7.770	184.0	0.516243239	0.620493328	0.009234187	0.095267407	0.029362340
2020-04-20T10:15:00	0.2146	7.843	184.0	0.516237123	0.620484788	0.009233987	0.095265344	0.029361704
2020-04-20T10:20:00	0.2149	7.923	184.0	0.517256251	0.621908159	0.009267346	0.095609504	0.029467778
2020-04-20T10:25:00	0.2140	8.010	184.0	0.514173476	0.617605158	0.009166622	0.094570352	0.029147501
2020-04-20T10:30:00	0.2137	8.106	185.0	0.513141186	0.616165986	0.009133017	0.094223655	0.029040646
2020-04-20T10:35:00	0.2139	8.181	186.0	0.513819212	0.617111162	0.009155083	0.094451300	0.029110808
2020-04-20T10:40:00	0.2152	8.245	186.0	0.518256738	0.623306312	0.009300154	0.095947974	0.029572097
2020-04-20T10:45:00	0.2153	8.314	186.0	0.518592206	0.623775302	0.009311168	0.096061599	0.029607118
2020-04-20T10:50:00	0.2160	8.384	186.0	0.520976217	0.627110810	0.009389624	0.096871018	0.029856589
2020-04-20T10:55:00	0.2151	8.473	187.0	0.517896782	0.622803190	0.009288344	0.095826130	0.029534544
2020-04-20T11:00:00	0.2157	8.576	187.0	0.519939862	0.625660262	0.009355477	0.096518736	0.029748012
2020-04-20T11:05:00	0.2141	8.664	188.0	0.514466505	0.618013843	0.009176173	0.094668883	0.029177869
2020-04-20T11:10:00	0.2131	8.756	188.0	0.511038918	0.613237760	0.009064771	0.093519573	0.028823641
2020-04-20T11:15:00	0.2133	8.862	189.0	0.511717360	0.614182364	0.009086768	0.093746505	0.028893583
2020-04-20T11:20:00	0.2131	8.974	189.0	0.511026666	0.613220705	0.009064374	0.093515478	0.028822378
2020-04-20T11:25:00	0.2131	9.087	190.0	0.511020540	0.613212177	0.009064176	0.093513430	0.028821747
2020-04-20T11:30:00	0.2138	9.211	190.0	0.513409817	0.616540416	0.009141756	0.094313814	0.029068433
2020-04-20T11:35:00	0.2136	9.338	191.0	0.512719464	0.615578287	0.009119306	0.094082202	0.028997048
2020-04-20T11:40:00	0.2140	9.478	191.0	0.514081669	0.617477130	0.009163631	0.094539493	0.029137990
2020-04-20T11:45:00	0.2133	9.621	192.0	0.511680612	0.614131189	0.009085575	0.093734206	0.028889793
2020-04-20T11:50:00	0.2134	9.772	192.0	0.512016724	0.614599290	0.009096482	0.093846727	0.028924473
2020-04-20T11:55:00	0.2152	9.917	193.0	0.518165040	0.623178134	0.009297145	0.095916927	0.029562529
2020-04-20T12:00:00	0.2140	10.013	194.0	0.514399186	0.617919948	0.009173978	0.094646242	0.029170891
2020-04-20T12:05:00	0.2133	10.134	194.0	0.511998351	0.614573700	0.009095886	0.093840575	0.028922576
2020-04-20T12:10:00	0.2143	10.284	195.0	0.515412742	0.619334027	0.009207047	0.094987405	0.029276041
2020-04-20T12:15:00	0.2137	10.388	195.0	0.513354721	0.616463615	0.009139964	0.094295319	0.029062733
2020-04-20T12:20:00	0.2132	10.460	196.0	0.511637738	0.614071485	0.009084185	0.093719858	0.028885370
2020-04-20T12:25:00	0.2133	10.571	196.0	0.511973854	0.614539580	0.009095090	0.093832372	0.028920048
2020-04-20T12:30:00	0.2117	10.649	197.0	0.506487750	0.606910712	0.008917903	0.092004361	0.028356638
2020-04-20T12:35:00	0.2130	10.715	198.0	0.510934775	0.613092793	0.009061397	0.093484763	0.028812912
2020-04-20T12:40:00	0.2131	10.776	197.0	0.511270961	0.613560794	0.009072291	0.093597158	0.028847553
2020-04-20T12:45:00	0.2132	10.818	197.0	0.511607113	0.614028840	0.009083191	0.093709610	0.028882212
2020-04-20T12:50:00	0.2128	10.862	197.0	0.510231669	0.612114299	0.009038633	0.093249915	0.028740529
2020-04-20T12:55:00	0.2107	10.898	198.0	0.503027597	0.602111573	0.008807044	0.090860648	0.028004134
2020-04-20T13:00:00	0.2118	10.947	198.0	0.506793705	0.607335528	0.008927739	0.092105834	0.028387913
2020-04-20T13:05:00	0.2106	10.960	198.0	0.502672178	0.601619162	0.008795696	0.090743572	0.027968050
2020-04-20T13:10:00	0.2098	10.991	198.0	0.499919678	0.597809191	0.008708059	0.089839444	0.027689389
2020-04-20T13:15:00	0.2101	11.007	198.0	0.500943677	0.599225885	0.008740611	0.090175275	0.027792896
2020-04-20T13:20:00	0.2112	11.015	199.0	0.504712082	0.604446704	0.008860926	0.091416543	0.028175466
2020-04-20T13:25:00	0.2093	11.002	198.0	0.498183633	0.595409316	0.008653011	0.089271516	0.027514348
2020-04-20T13:30:00	0.2093	10.975	198.0	0.498177484	0.595400820	0.008652816	0.089269507	0.027513729
2020-04-20T13:35:00	0.2097	10.934	198.0	0.499545495	0.597291723	0.008696180	0.089716882	0.027651614
2020-04-20T13:40:00	0.2088	10.922	198.0	0.496446704	0.593010642	0.008598108	0.088705093	0.027339771
2020-04-20T13:45:00	0.2090	10.882	198.0	0.497128050	0.593951282	0.008619624	0.088927070	0.027408187
2020-04-20T13:50:00	0.2081	10.830	197.0	0.494027059	0.589673184	0.008521915	0.087919022	0.027097496
2020-04-20T13:55:00	0.2076	10.807	197.0	0.492300328	0.587294345	0.008467747	0.087360186	0.026925258
2020-04-20T14:00:00	0.2073	10.770	197.0	0.491261403	0.585864219	0.008435239	0.087024803	0.026821890
2020-04-20T14:05:00	0.2072	10.704	198.0	0.490910916	0.585381953	0.008424286	0.086911805	0.026787062
2020-04-20T14:10:00	0.2072	10.656	198.0	0.490904754	0.585373475	0.008424093	0.086909819	0.026786450
2020-04-20T14:15:00	0.2073	10.602	196.0	0.491242918	0.585838782	0.008434661	0.087018842	0.026820052
2020-04-20T14:20:00	0.2069	10.523	196.0	0.489859239	0.583935448	0.008391463	0.086573177	0.026682694
2020-04-20T14:25:00	0.2062	10.454	196.0	0.487441071	0.580612792	0.008316233	0.085797044	0.026443482
2020-04-20T14:30:00	0.2064	10.359	196.0	0.488124222	0.581550994	0.008337452	0.086015956	0.026510953
2020-04-20T14:35:00	0.2053	10.273	195.0	0.484325054	0.576338165	0.008219789	0.084802043	0.026136813
2020-04-20T14:40:00	0.2054	10.214	195.0	0.484663874	0.576802590	0.008230248	0.084909956	0.026170073
2020-04-20T14:45:00	0.2056	10.139	195.0	0.485347585	0.577740042	0.008251376	0.085127921	0.026237252
2020-04-20T14:50:00	0.2062	10.092	194.0	0.487410228	0.580570444	0.008315276	0.085787167	0.026440438
2020-04-20T14:55:00	0.2054	10.042	194.0	0.484645353	0.576777201	0.008229676	0.084904055	0.026168254
2020-04-20T15:00:00	0.2054	9.993	194.0	0.484639180	0.576768738	0.008229486	0.084902088	0.026167648
2020-04-20T15:05:00	0.2054	9.950	194.0	0.484633006	0.576760276	0.008229295	0.084900122	0.026167042
2020-04-20T15:10:00	0.2049	9.897	194.0	0.482901492	0.574387871	0.008175913	0.084349388	0.025997301
2020-04-20T15:15:00	0.2052	9.852	193.0	0.483930627	0.575797633	0.008207620	0.084676505	0.026098121
2020-04-20T15:20:00	0.2044	9.793	193.0	0.481162914	0.572008195	0.008122486	0.083798194	0.025827417
2020-04-20T15:25:00	0.2045	9.749	193.0	0.481502050	0.572472197	0.008132894	0.083905573	0.025860512
2020-04-20T15:30:00	0.2062	9.694	193.0	0.487360879	0.580502686	0.008313744	0.085771365	0.026435568
2020-04-20T15:35:00	0.2053	9.622	192.0	0.484250963	0.576236620	0.008217502	0.084778455	0.026129543
2020-04-20T15:40:00	0.2051	9.560	192.0	0.483554680	0.575282544	0.008196030	0.084556936	0.026061269
2020-04-20T15:45:00	0.2056	9.492	192.0	0.485273516	0.577638467	0.008249086	0.085104295	0.026229970
2020-04-20T15:50:00	0.2051	9.434	192.0	0.483542329	0.575265624	0.008195650	0.084553009	0.026060058
2020-04-20T15:55:00	0.2048	9.379	191.0	0.482500722	0.573839103	0.008163582	0.084222170	0.025958091
2020-04-20T16:00:00	0.2055	9.335	191.0	0.484910065	0.577140105	0.008237853	0.084988409	0.026194253
2020-04-20T16:05:00	0.2054	9.284	191.0	0.484815474	0.577010421	0.008234931	0.084958262	0.026184961
2020-04-20T16:10:00	0.2062	9.243	191.0	0.487479526	0.580665595	0.008317427	0.085809359	0.026447278
2020-04-20T16:15:00	0.2057	9.197	191.0	0.485661069	0.578169992	0.008261072	0.085227952	0.026268083
2020-04-20T16:20:00	0.2062	9.152	191.0	0.487290485	0.580406038	0.008311559	0.085748827	0.026428621
2020-04-20T16:25:00	0.2061	9.103	190.0	0.487195961	0.580276264	0.008308626	0.085718568	0.026419295
2020-04-20T16:30:00	0.2060	9.055	190.0	0.486756688	0.579673275	0.008295003	0.085578015	0.026375975
2020-04-20T16:35:00	0.2056	9.010	190.0	0.485282775	0.577651163	0.008249372	0.085107248	0.026230880
2020-04-20T16:40:00	0.2051	8.988	190.0	0.483808221	0.575629911	0.008203846	0.084637565	0.026086120
2020-04-20T16:45:00	0.2059	8.957	190.0	0.486473063	0.579284025	0.008286212	0.085487325	0.026348024
2020-04-20T16:50:00	0.2061	8.928	190.0	0.487068051	0.580100666	0.008304658	0.085677629	0.026406677
2020-04-20T16:55:00	0.2063	8.899	189.0	0.487662934	0.580917447	0.008323121	0.085868109	0.026465385
2020-04-20T17:00:00	0.2061	8.866	190.0	0.487223721	0.580314376	0.008309488	0.085727454	0.026422034
2020-04-20T17:05:00	0.2062	8.829	189.0	0.487473904	0.580657875	0.008317252	0.085807559	0.026446723
2020-04-20T17:10:00	0.2065	8.800	189.0	0.488413330	0.581948151	0.008346440	0.086108682	0.026539532
2020-04-20T17:15:00	0.2061	8.773	189.0	0.486940135	0.579925074	0.008300691	0.085636698	0.026394062
2020-04-20T17:20:00	0.2067	8.748	189.0	0.489258029	0.583108925	0.008372728	0.086379889	0.026623121
2020-04-20T17:25:00	0.2070	8.728	189.0	0.490196961	0.584399863	0.008401996	0.086681848	0.026716187
2020-04-20T17:30:00	0.2087	8.706	188.0	0.495952702	0.592328874	0.008582525	0.088544323	0.027290220
2020-04-20T17:35:00	0.2081	8.686	189.0	0.494138772	0.589827167	0.008525425	0.087955237	0.027108658
2020-04-20T17:40:00	0.2098	8.664	189.0	0.499887859	0.597765183	0.008707049	0.089829018	0.027686176
2020-04-20T17:45:00	0.2090	8.643	188.0	0.497045011	0.593836621	0.008617000	0.088900001	0.027399844
2020-04-20T17:50:00	0.2094	8.622	188.0	0.498325409	0.595605213	0.008657500	0.089317829	0.027528622
2020-04-20T17:55:00	0.2104	8.599	188.0	0.502008732	0.600700273	0.008774532	0.090525234	0.027900756
2020-04-20T18:00:00	0.2101	8.573	188.0	0.500884764	0.599144355	0.008738737	0.090155937	0.027786935
2020-04-20T18:05:00	0.2106	8.547	187.0	0.502506911	0.601390231	0.008790422	0.090689159	0.027951280
2020-04-20T18:10:00	0.2114	8.516	188.0	0.505157164	0.605064083	0.008875191	0.091563706	0.028220823
2020-04-20T18:15:00	0.2125	8.492	187.0	0.509175652	0.610645420	0.009004498	0.092897744	0.028631987
2020-04-20T18:20:00	0.2125	8.463	188.0	0.509081733	0.610514826	0.009001465	0.092866455	0.028622343
2020-04-20T18:25:00	0.2130	8.434	188.0	0.510699996	0.612766013	0.009053793	0.093406310	0.028788732
2020-04-20T18:30:00	0.2137	8.405	187.0	0.513343911	0.616448547	0.009139612	0.094291690	0.029061615
2020-04-20T18:35:00	0.2145	8.376	187.0	0.515985787	0.620133888	0.009225769	0.095180563	0.029335574
2020-04-20T18:40:00	0.2145	8.348	187.0	0.515892055	0.620003037	0.009222706	0.095148955	0.029325832
2020-04-20T18:45:00	0.2151	8.319	187.0	0.517848762	0.622736079	0.009286769	0.095809881	0.029529536
2020-04-20T18:50:00	0.2151	8.290	187.0	0.518096710	0.623082624	0.009294902	0.095893796	0.029555399
2020-04-20T18:55:00	0.2149	8.262	187.0	0.517319721	0.621996833	0.009269426	0.095630958	0.029474390
2020-04-20T19:00:00	0.2157	8.231	187.0	0.519958540	0.625686398	0.009356092	0.096525080	0.029749967
2020-04-20T19:05:00	0.2156	8.203	186.0	0.519864916	0.625555397	0.009353011	0.096493285	0.029740168
2020-04-20T19:10:00	0.2170	8.171	186.0	0.524548228	0.632117096	0.009507795	0.098090165	0.030232341
2020-04-20T19:15:00	0.2172	8.138	186.0	0.525136625	0.632942747	0.009527331	0.098291722	0.030294463
2020-04-20T19:20:00	0.2168	8.107	186.0	0.523679175	0.630898138	0.009478976	0.097792848	0.030140705
2020-04-20T19:25:00	0.2177	8.076	186.0	0.526994648	0.635551809	0.009589156	0.098929559	0.030491051
2020-04-20T19:30:00	0.2172	8.042	186.0	0.525197093	0.633027612	0.009529340	0.098312448	0.030300851
2020-04-20T19:35:00	0.2178	8.009	186.0	0.527148512	0.635767992	0.009594285	0.098982472	0.030507359
2020-04-20T19:40:00	0.2174	7.975	185.0	0.525691914	0.633722197	0.009545787	0.098482129	0.030353149
2020-04-20T19:45:00	0.2170	7.939	185.0	0.524575686	0.632155620	0.009508706	0.098099566	0.030235239
2020-04-20T19:50:00	0.2179	7.901	185.0	0.527549637	0.636331676	0.009607662	0.099120482	0.030549895
2020-04-20T19:55:00	0.2168	7.860	185.0	0.523706641	0.630936652	0.009479886	0.097802237	0.030143599
2020-04-20T20:00:00	0.2175	7.821	185.0	0.526340563	0.634633014	0.009567369	0.098704783	0.030421773
2020-04-20T20:05:00	0.2174	7.785	184.0	0.525906291	0.634023182	0.009552917	0.098555688	0.030375820
2020-04-20T20:10:00	0.2175	7.748	184.0	0.526153659	0.634370533	0.009561148	0.098640601	0.030401991
2020-04-20T20:15:00	0.2173	7.712	184.0	0.525378489	0.633282217	0.009535368	0.098374634	0.030320018
2020-04-20T20:20:00	0.2181	7.680	184.0	0.528351747	0.637459239	0.009634440	0.099396745	0.030635042
2020-04-20T20:25:00	0.2174	7.648	184.0	0.525873284	0.633976838	0.009551819	0.098544360	0.030372329
2020-04-20T20:30:00	0.2165	7.611	184.0	0.522710792	0.629540579	0.009446915	0.097462082	0.030038760
2020-04-20T20:35:00	0.2165	7.572	183.0	0.522617243	0.629409474	0.009443821	0.097430159	0.030028921
2020-04-20T20:40:00	0.2161	7.535	183.0	0.521500017	0.627844285	0.009406906	0.097049315	0.029911541
2020-04-20T20:45:00	0.2154	7.495	183.0	0.519016611	0.624368757	0.009325110	0.096205444	0.029651452
2020-04-20T20:50:00	0.2148	7.455	183.0	0.516873160	0.621373014	0.009254800	0.095480061	0.029427882
2020-04-20T20:55:00	0.2149	7.419	183.0	0.517462873	0.622196842	0.009274117	0.095679356	0.029489307
2020-04-20T21:00:00	0.2143	7.381	183.0	0.515318452	0.619202441	0.009203968	0.094955640	0.029266251
2020-04-20T21:05:00	0.2135	7.346	182.0	0.512488411	0.615256360	0.009111799	0.094004748	0.028973176
2020-04-20T21:10:00	0.2136	7.313	182.0	0.512736748	0.615602370	0.009119868	0.094087997	0.028998835
2020-04-20T21:15:00	0.2131	7.283	182.0	0.511274023	0.613565058	0.009072391	0.093598183	0.028847869
2020-04-20T21:20:00	0.2136	7.254	182.0	0.512891251	0.615817667	0.009124890	0.094139810	0.029014804
2020-04-20T21:25:00	0.2131	7.226	182.0	0.511086297	0.613303714	0.009066306	0.093535412	0.028828522
2020-04-20T21:30:00	0.2128	7.195	182.0	0.509965310	0.611743719	0.009030017	0.093161024	0.028713132
2020-04-20T21:35:00	0.2135	7.163	182.0	0.512609791	0.615425474	0.009115742	0.094045434	0.028985716
2020-04-20T21:40:00	0.2131	7.133	182.0	0.511147013	0.613388236	0.009068274	0.093555712	0.028834779
2020-04-20T21:45:00	0.2136	7.103	181.0	0.512764301	0.615640763	0.009120764	0.094097236	0.029001682
2020-04-20T21:50:00	0.2136	7.069	181.0	0.513012617	0.615986801	0.009128836	0.094180520	0.029027351
2020-04-20T21:55:00	0.2130	7.039	181.0	0.510865410	0.612996241	0.009059150	0.093461581	0.028805767
2020-04-20T22:00:00	0.2129	7.005	182.0	0.510429175	0.612389123	0.009045025	0.093315855	0.028760853
2020-04-20T22:05:00	0.2139	6.973	181.0	0.513899675	0.617223354	0.009157703	0.094478333	0.029119140
2020-04-20T22:10:00	0.2149	6.940	181.0	0.517366665	0.622062420	0.009270964	0.095646828	0.029479281
2020-04-20T22:15:00	0.2146	6.907	180.0	0.516389843	0.620698032	0.009238982	0.095316878	0.029377587
2020-04-20T22:20:00	0.2150	6.872	180.0	0.517805075	0.622675025	0.009285336	0.095795100	0.029524980
2020-04-20T22:25:00	0.2157	6.838	180.0	0.519902660	0.625608208	0.009354253	0.096506102	0.029744118
2020-04-20T22:30:00	0.2160	6.805	180.0	0.520975134	0.627109294	0.009389588	0.096870650	0.029856475
2020-04-20T22:35:00	0.2157	6.773	180.0	0.519999338	0.625743485	0.009357435	0.096538936	0.029754238
2020-04-20T22:40:00	0.2171	6.743	180.0	0.524824231	0.632504355	0.009516956	0.098184685	0.030261473
2020-04-20T22:45:00	0.2168	6.712	180.0	0.523849527	0.631137030	0.009484622	0.097851092	0.030158657
2020-04-20T22:50:00	0.2164	6.681	179.0	0.522533390	0.629291964	0.009441048	0.097401549	0.030020103
2020-04-20T22:55:00	0.2173	6.652	179.0	0.525650836	0.633664528	0.009544422	0.098468037	0.030348805
2020-04-20T23:00:00	0.2168	6.624	179.0	0.523653332	0.630861899	0.009478120	0.097784013	0.030137983
2020-04-20T23:05:00	0.2167	6.595	179.0	0.523360545	0.630451372	0.009468421	0.097683953	0.030107143
2020-04-20T23:10:00	0.2162	6.563	179.0	0.521702983	0.628128556	0.009413607	0.097118447	0.029932849
2020-04-20T23:15:00	0.2165	6.530	179.0	0.522774896	0.629630421	0.009449036	0.097483960	0.030045503
2020-04-20T23:20:00	0.2162	6.500	179.0	0.521799611	0.628263904	0.009416798	0.097151368	0.029942995
2020-04-20T23:25:00	0.2162	6.471	179.0	0.521847923	0.628331579	0.009418394	0.097167830	0.029948069
2020-04-20T23:30:00	0.2162	6.441	178.0	0.521896236	0.628399255	0.009419989	0.097184294	0.029953143
2020-04-20T23:35:00	0.2167	6.411	178.0	0.523309201	0.630379388	0.009466721	0.097666411	0.030101737
2020-04-20T23:40:00	0.2165	6.379	178.0	0.522675243	0.629490757	0.009445739	0.097449951	0.030035021
2020-04-20T23:45:00	0.2168	6.350	178.0	0.523746853	0.630993043	0.009481219	0.097815985	0.030147837
2020-04-20T23:50:00	0.2157	6.320	178.0	0.520041566	0.625802576	0.009358826	0.096553280	0.029758658
2020-04-20T23:55:00	0.2169	6.292	178.0	0.524184450	0.631606776	0.009495726	0.097965655	0.030193966
2020-04-21T00:00:00	0.2166	6.265	178.0	0.523209564	0.630239703	0.009463421	0.097632375	0.030091246
2020-04-21T00:05:00	0.2163	6.237	178.0	0.522234402	0.628873014	0.009431163	0.097299570	0.029988673
2020-04-21T00:10:00	0.2170	6.207	178.0	0.524329286	0.631809944	0.009500530	0.098015219	0.030209242
2020-04-21T00:15:00	0.2167	6.176	177.0	0.523354441	0.630442814	0.009468219	0.097681867	0.030106500
2020-04-21T00:20:00	0.2168	6.149	177.0	0.523743802	0.630988764	0.009481118	0.097814942	0.030147515
2020-04-21T00:25:00	0.2169	6.122	177.0	0.524133118	0.631534775	0.009494024	0.097948093	0.030188553
2020-04-21T00:30:00	0.2167	6.093	177.0	0.523499312	0.630645933	0.009473017	0.097731370	0.030121758
2020-04-21T00:35:00	0.2156	6.066	177.0	0.519793758	0.625455836	0.009350669	0.096469124	0.029732721
2020-04-21T00:40:00	0.2153	6.037	177.0	0.518817626	0.624090493	0.009318572	0.096137988	0.029630661
2020-04-21T00:45:00	0.2155	6.011	176.0	0.519207501	0.624635729	0.009331385	0.096270178	0.029671404
2020-04-21T00:50:00	0.2147	5.984	176.0	0.516522775	0.620883661	0.009243331	0.095361746	0.029391416
2020-04-21T00:55:00	0.2150	5.957	176.0	0.517596306	0.622383286	0.009278491	0.095724479	0.029503214
2020-04-21T01:00:00	0.2142	5.927	176.0	0.514910320	0.618632961	0.009190647	0.094818213	0.029223894
2020-04-21T01:05:00	0.2143	5.896	176.0	0.515300639	0.619177584	0.009203386	0.094949640	0.029264401
2020-04-21T01:10:00	0.2141	5.868	176.0	0.514665200	0.618291002	0.009182652	0.094735723	0.029198470
2020-04-21T01:15:00	0.2144	5.839	175.0	0.515739312	0.619789824	0.009217714	0.095097459	0.029309960
2020-04-21T01:20:00	0.2138	5.810	175.0	0.513393970	0.616518326	0.009141241	0.094308494	0.029066794
2020-04-21T01:25:00	0.2146	5.784	175.0	0.516177930	0.620402141	0.009232051	0.095245373	0.029355549
2020-04-21T01:30:00	0.2140	5.758	175.0	0.514174909	0.617607157	0.009166669	0.094570834	0.029147649
2020-04-21T01:35:00	0.2138	5.732	175.0	0.513539262	0.616720863	0.009145969	0.094357274	0.029081828
2020-04-21T01:40:00	0.2137	5.705	175.0	0.513245611	0.616311531	0.009136414	0.094258698	0.029051446
2020-04-21T01:45:00	0.2144	5.675	175.0	0.515687855	0.619717998	0.009216033	0.095080113	0.029304614
2020-04-21T01:50:00	0.2145	5.648	175.0	0.516078085	0.620262743	0.009228787	0.095211693	0.029345168
2020-04-21T01:55:00	0.2137	5.620	174.0	0.513048809	0.616037240	0.009130013	0.094192661	0.029031093
2020-04-21T02:00:00	0.2143	5.591	174.0	0.515149303	0.618966406	0.009198446	0.094898672	0.029248692
2020-04-21T02:05:00	0.2141	5.565	174.0	0.514513836	0.618079863	0.009177716	0.094684803	0.029182776
2020-04-21T02:10:00	0.2146	5.540	174.0	0.516271655	0.620533003	0.009235117	0.095276995	0.029365295
2020-04-21T02:15:00	0.2153	5.515	174.0	0.518711746	0.623942442	0.009315094	0.096102104	0.029619602
2020-04-21T02:20:00	0.2151	5.490	174.0	0.518076939	0.623054988	0.009294254	0.095887103	0.029553336
2020-04-21T02:25:00	0.2148	5.464	169.0	0.517100318	0.621690320	0.009262238	0.095556805	0.029451535
2020-04-21T02:30:00	0.2148	5.441	174.0	0.516806972	0.621280568	0.009252633	0.095457706	0.029420992
2020-04-21T02:35:00	0.2143	5.419	169.0	0.515146244	0.618962137	0.009198346	0.094897642	0.029248375
2020-04-21T02:40:00	0.2146	5.398	174.0	0.516220205	0.620461167	0.009233434	0.095259636	0.029359945
2020-04-21T02:45:00	0.2154	5.375	173.0	0.519001873	0.624348146	0.009324626	0.096200447	0.029649912
2020-04-21T02:50:00	0.2134	5.353	174.0	0.512213042	0.614872743	0.009102855	0.093912480	0.028944738
2020-04-21T02:55:00	0.2137	5.330	168.0	0.513287922	0.616370506	0.009137790	0.094272898	0.029055823
2020-04-21T03:00:00	0.2135	5.306	169.0	0.512652111	0.615484439	0.009117118	0.094059621	0.028990089
2020-04-21T03:05:00	0.2130	5.283	173.0	0.510647028	0.612692295	0.009052078	0.093388615	0.028783278
2020-04-21T03:10:00	0.2130	5.259	173.0	0.510695498	0.612759752	0.009053647	0.093404808	0.028788269
2020-04-21T03:15:00	0.2130	5.235	174.0	0.510743967	0.612827211	0.009055217	0.093421001	0.028793260
2020-04-21T03:20:00	0.2133	5.213	173.0	0.511819309	0.614324340	0.009090075	0.093780630	0.028904101
2020-04-21T03:25:00	0.2137	5.190	173.0	0.513236428	0.616298731	0.009136115	0.094255616	0.029050496
2020-04-21T03:30:00	0.2134	5.168	173.0	0.512258428	0.614935967	0.009104329	0.093927684	0.028949425
2020-04-21T03:35:00	0.2131	5.145	173.0	0.511280149	0.613573586	0.009072589	0.093600231	0.028848500
2020-04-21T03:40:00	0.2130	5.121	172.0	0.510643965	0.612688031	0.009051978	0.093387592	0.028782963
2020-04-21T03:45:00	0.2134	5.097	173.0	0.512061570	0.614661754	0.009097938	0.093861745	0.028929101
2020-04-21T03:50:00	0.2131	5.076	172.0	0.511083234	0.613299450	0.009066207	0.093534388	0.028828207
2020-04-21T03:55:00	0.2134	5.056	172.0	0.512158469	0.614796726	0.009101083	0.093894200	0.028939104
2020-04-21T04:00:00	0.2137	5.033	172.0	0.513233367	0.616294465	0.009136016	0.094254588	0.029050180
2020-04-21T04:05:00	0.2134	5.009	172.0	0.512255366	0.614931701	0.009104230	0.093926659	0.028949108
2020-04-21T04:10:00	0.2143	4.988	171.0	0.515382151	0.619291336	0.009206048	0.094977099	0.029272864
2020-04-21T04:15:00	0.2135	4.968	171.0	0.512352260	0.615066681	0.009107376	0.093959122	0.028959114
2020-04-21T04:20:00	0.2131	4.950	172.0	0.511031707	0.613227721	0.009064538	0.093517163	0.028822898
2020-04-21T04:25:00	0.2142	4.933	171.0	0.514843552	0.618539810	0.009188469	0.094795740	0.029216968
2020-04-21T04:30:00	0.2146	4.915	171.0	0.516259421	0.620515922	0.009234716	0.095272867	0.029364023
2020-04-21T04:35:00	0.2149	4.899	171.0	0.517333034	0.622015433	0.009269862	0.095635459	0.029475777
2020-04-21T04:40:00	0.2152	4.883	171.0	0.518406312	0.623515408	0.009305064	0.095998627	0.029587709
2020-04-21T04:45:00	0.2159	4.868	171.0	0.520844887	0.626926944	0.009385293	0.096826340	0.029842818
2020-04-21T04:50:00	0.2157	4.856	171.0	0.520210474	0.626038944	0.009364388	0.096610662	0.029776344
2020-04-21T04:55:00	0.2155	4.842	171.0	0.519234460	0.624673437	0.009332271	0.096279322	0.029674222
2020-04-21T05:00:00	0.2156	4.829	171.0	0.519624288	0.625218739	0.009345092	0.096411593	0.029714989
2020-04-21T05:05:00	0.2150	4.817	171.0	0.517623278	0.622420976	0.009279375	0.095733602	0.029506026
2020-04-21T05:10:00	0.2158	4.806	171.0	0.520403811	0.626309527	0.009370756	0.096676364	0.029796594
2020-04-21T05:15:00	0.2160	4.793	171.0	0.521134834	0.627332897	0.009394856	0.096924993	0.029873224
2020-04-21T05:20:00	0.2152	4.780	171.0	0.518451616	0.623578744	0.009306551	0.096013972	0.029592439
2020-04-21T05:25:00	0.2153	4.768	171.0	0.518841532	0.624123923	0.009319357	0.096146091	0.029633159
2020-04-21T05:30:00	0.2150	4.757	170.0	0.517523476	0.622281519	0.009276103	0.095699849	0.029495623
2020-04-21T05:35:00	0.2146	4.746	171.0	0.516204913	0.620439816	0.009232934	0.095254477	0.029358355
2020-04-21T05:40:00	0.2152	4.737	171.0	0.518303475	0.623371647	0.009301688	0.095963800	0.029576975
2020-04-21T05:45:00	0.2156	4.729	170.0	0.519717919	0.625349731	0.009348173	0.096443376	0.029724785
2020-04-21T05:50:00	0.2156	4.723	170.0	0.519766261	0.625417365	0.009349764	0.096459788	0.029729844
2020-04-21T05:55:00	0.2159	4.717	170.0	0.520838778	0.626918392	0.009385092	0.096824262	0.029842178
2020-04-21T06:00:00	0.2161	4.712	170.0	0.521569709	0.627941891	0.009409207	0.097073050	0.029918857
2020-04-21T06:05:00	0.2159	4.710	170.0	0.520594082	0.626575849	0.009377026	0.096741046	0.029816530
2020-04-21T06:10:00	0.2165	4.709	170.0	0.522689965	0.629511390	0.009446226	0.097454975	0.030036570
2020-04-21T06:15:00	0.2167	4.709	170.0	0.523420503	0.630535435	0.009470407	0.097704439	0.030113457
2020-04-21T06:20:00	0.2164	4.709	170.0	0.522445401	0.629168664	0.009438138	0.097371532	0.030010852
2020-04-21T06:25:00	0.2159	4.712	170.0	0.520787397	0.626846461	0.009383398	0.096806786	0.029836792
2020-04-21T06:30:00	0.2152	4.716	171.0	0.518445503	0.623570198	0.009306350	0.096011901	0.029591800
2020-04-21T06:35:00	0.2150	4.720	171.0	0.517810647	0.622682812	0.009285519	0.095796985	0.029525561
2020-04-21T06:40:00	0.2151	4.725	170.0	0.517859016	0.622750410	0.009287105	0.095813351	0.029530605
2020-04-21T06:45:00	0.2140	4.731	170.0	0.514147367	0.617568748	0.009165772	0.094561576	0.029144796
2020-04-21T06:50:00	0.2131	4.739	170.0	0.511116384	0.613345597	0.009067281	0.093545471	0.028831623
2020-04-21T06:55:00	0.2132	4.751	171.0	0.511507135	0.613889625	0.009079949	0.093676158	0.028871902
2020-04-21T07:00:00	0.2129	4.766	171.0	0.510528642	0.612527539	0.009048245	0.093349072	0.028771091
2020-04-21T07:05:00	0.2134	4.783	171.0	0.512288504	0.614977864	0.009105306	0.093937761	0.028952530
2020-04-21T07:10:00	0.2138	4.804	170.0	0.513705429	0.616952522	0.009151378	0.094413079	0.029099028
2020-04-21T07:15:00	0.2140	4.828	171.0	0.514095886	0.617496956	0.009164094	0.094544271	0.029139463
2020-04-21T07:20:00	0.2138	4.858	171.0	0.513460224	0.616610682	0.009143397	0.094330737	0.029073649
2020-04-21T07:25:00	0.2142	4.895	171.0	0.514876665	0.618586007	0.009189549	0.094806885	0.029220403
2020-04-21T07:30:00	0.2131	4.936	172.0	0.511161785	0.613408800	0.009068753	0.093560651	0.028836301
2020-04-21T07:35:00	0.2133	4.977	172.0	0.511894780	0.614429449	0.009092524	0.093805896	0.028911888
2020-04-21T07:40:00	0.2134	5.044	172.0	0.512285442	0.614973598	0.009105206	0.093936735	0.028952214
2020-04-21T07:45:00	0.2137	5.112	172.0	0.513360300	0.616471393	0.009140145	0.094297192	0.029063310
2020-04-21T07:50:00	0.2128	5.168	172.0	0.509986214	0.611772801	0.009030693	0.093167999	0.028715282
2020-04-21T07:55:00	0.2129	5.220	173.0	0.510377095	0.612316652	0.009043339	0.093298465	0.028755493
2020-04-21T08:00:00	0.2122	5.280	173.0	0.508028077	0.609050208	0.008967476	0.092515795	0.028514267
2020-04-21T08:05:00	0.2121	5.363	173.0	0.507733953	0.608641526	0.008957999	0.092418028	0.028484134
2020-04-21T08:10:00	0.2124	5.444	174.0	0.508810241	0.610137357	0.008992701	0.092776038	0.028594476
2020-04-21T08:15:00	0.2121	5.517	169.0	0.507830976	0.608776330	0.008961125	0.092450272	0.028494072
2020-04-21T08:20:00	0.2124	5.584	174.0	0.508907232	0.610272202	0.008995831	0.092808335	0.028604430
2020-04-21T08:25:00	0.2118	5.681	174.0	0.506557205	0.607007143	0.008920135	0.092027391	0.028363736
2020-04-21T08:30:00	0.2111	5.778	175.0	0.504205561	0.603744295	0.008844707	0.091249209	0.028123892
2020-04-21T08:35:00	0.2118	5.898	175.0	0.506654260	0.607141901	0.008923255	0.092059579	0.028373656
2020-04-21T08:40:00	0.2099	6.014	176.0	0.500184293	0.598175202	0.008716465	0.089926167	0.027716118
2020-04-21T08:45:00	0.2107	6.126	177.0	0.502979018	0.602044264	0.008805492	0.090844641	0.027999201
2020-04-21T08:50:00	0.2087	6.227	177.0	0.496158279	0.592612565	0.008589008	0.088611209	0.027310835
2020-04-21T08:55:00	0.2099	6.341	177.0	0.500330147	0.598376970	0.008721101	0.089973987	0.027730856
2020-04-21T09:00:00	0.2097	6.452	178.0	0.499348448	0.597019266	0.008689927	0.089652374	0.027631732
2020-04-21T09:05:00	0.2093	6.551	178.0	0.498022859	0.595187187	0.008647921	0.089219011	0.027498166
2020-04-21T09:10:00	0.2087	6.668	179.0	0.496009170	0.592406794	0.008584305	0.088562693	0.027295882
2020-04-21T09:15:00	0.2090	6.788	179.0	0.497089159	0.593897580	0.008618395	0.088914392	0.027404279
2020-04-21T09:20:00	0.2084	6.906	180.0	0.495074917	0.591117935	0.008554870	0.088259013	0.027202285
2020-04-21T09:25:00	0.2082	7.014	181.0	0.494435706	0.590236508	0.008534759	0.088051535	0.027138338
2020-04-21T09:30:00	0.2068	7.129	181.0	0.489665259	0.583668739	0.008385416	0.086510789	0.026663465
2020-04-21T09:35:00	0.2077	7.247	182.0	0.492468623	0.587526094	0.008473019	0.087414575	0.026942021
2020-04-21T09:40:00	0.2076	7.365	182.0	0.492173155	0.587119240	0.008463764	0.087319098	0.026912594
2020-04-21T09:45:00	0.2074	7.489	182.0	0.491533399	0.586238549	0.008443744	0.087112546	0.026848933
2020-04-21T09:50:00	0.2074	7.602	183.0	0.491582141	0.586305637	0.008445268	0.087128274	0.026853780
2020-04-21T09:55:00	0.2068	7.708	183.0	0.489564636	0.583530402	0.008382280	0.086478436	0.026653494
2020-04-21T10:00:00	0.2073	7.805	183.0	0.491335341	0.585965969	0.008437550	0.087048650	0.026829239
2020-04-21T10:05:00	0.2067	7.902	184.0	0.489070726	0.582851487	0.008366895	0.086319715	0.026604575
2020-04-21T10:10:00	0.2075	7.990	184.0	0.491972055	0.586842369	0.008457469	0.087254144	0.026892575
2020-04-21T10:15:00	0.2072	8.083	185.0	0.490741100	0.585148324	0.008418982	0.086857081	0.026770196
2020-04-21T10:20:00	0.2071	8.176	185.0	0.490542997	0.584875806	0.008412796	0.086793264	0.026750527
2020-04-21T10:25:00	0.2062	8.268	186.0	0.487588565	0.580815321	0.008320812	0.085844284	0.026458042
2020-04-21T10:30:00	0.2056	8.363	186.0	0.485321450	0.577704201	0.008250568	0.085119585	0.026234683
2020-04-21T10:35:00	0.2078	8.448	186.0	0.493047167	0.588322938	0.008491154	0.087601674	0.026999687
2020-04-21T10:40:00	0.2072	8.522	187.0	0.490783692	0.585206918	0.008420312	0.086870805	0.026774426
2020-04-21T10:45:00	0.2062	8.592	187.0	0.487484796	0.580672832	0.008317590	0.085811047	0.026447798
2020-04-21T10:50:00	0.2040	8.667	187.0	0.479694393	0.570000039	0.008077494	0.083334012	0.025684352
2020-04-21T10:55:00	0.2048	8.749	187.0	0.482603744	0.573980156	0.008166751	0.084254864	0.025968167
2020-04-21T11:00:00	0.2042	8.842	188.0	0.480678693	0.571345849	0.008107637	0.083644997	0.025780200
2020-04-21T11:05:00	0.2056	8.943	189.0	0.485312191	0.577691504	0.008250281	0.085116631	0.026233772
2020-04-21T11:10:00	0.2044	9.042	189.0	0.481317408	0.572219561	0.008127227	0.083847102	0.025842491
2020-04-21T11:15:00	0.2053	9.148	190.0	0.484225367	0.576201540	0.008216712	0.084770306	0.026127032
2020-04-21T11:20:00	0.2054	9.253	190.0	0.484716896	0.576875276	0.008231886	0.084926849	0.026175280
2020-04-21T11:25:00	0.2059	9.377	190.0	0.486587758	0.579441425	0.008289767	0.085523993	0.026359325
2020-04-21T11:30:00	0.2057	9.517	191.0	0.485699740	0.578223035	0.008262268	0.085240296	0.026271887
2020-04-21T11:35:00	0.2057	9.653	192.0	0.485846216	0.578423962	0.008266801	0.085287059	0.026286300
2020-04-21T11:40:00	0.2048	9.797	192.0	0.482542517	0.573896327	0.008164868	0.084235433	0.025962179
2020-04-21T11:45:00	0.2046	9.935	193.0	0.481998705	0.573151881	0.008148149	0.084062948	0.025909017
2020-04-21T11:50:00	0.2046	10.080	194.0	0.481800091	0.572880049	0.008142047	0.083999995	0.025889614
2020-04-21T11:55:00	0.2047	10.216	194.0	0.482291971	0.573553315	0.008157163	0.084155944	0.025937679
2020-04-21T12:00:00	0.2049	10.355	195.0	0.483128930	0.574699354	0.008182915	0.084421627	0.026019565
2020-04-21T12:05:00	0.2042	10.499	196.0	0.480513450	0.571119862	0.008102573	0.083592749	0.025764097
2020-04-21T12:10:00	0.2054	10.640	196.0	0.484802229	0.576992262	0.008234522	0.084954041	0.026183660
2020-04-21T12:15:00	0.2038	10.754	197.0	0.479079559	0.569159784	0.008058693	0.083140049	0.025624571
2020-04-21T12:20:00	0.2046	10.860	197.0	0.481989437	0.573139196	0.008147864	0.084060010	0.025908111
2020-04-21T12:25:00	0.2040	10.955	198.0	0.479718575	0.570033094	0.008078233	0.083341646	0.025686705
2020-04-21T12:30:00	0.2046	11.047	198.0	0.481937468	0.573068066	0.008146267	0.084043536	0.025903034
2020-04-21T12:35:00	0.2036	11.131	198.0	0.478629956	0.568545530	0.008044959	0.082998354	0.025580899
2020-04-21T12:40:00	0.2030	11.211	199.0	0.476356839	0.565442435	0.007975697	0.082283795	0.025360665
2020-04-21T12:45:00	0.2028	11.285	199.0	0.475812032	0.564699315	0.007959141	0.082112988	0.025308020
2020-04-21T12:50:00	0.2048	11.344	199.0	0.482523985	0.573870953	0.008164298	0.084229552	0.025960366
2020-04-21T12:55:00	0.2041	11.372	199.0	0.480253481	0.570764372	0.008094608	0.083510583	0.025738773
2020-04-21T13:00:00	0.2030	11.411	199.0	0.476252726	0.565300406	0.007972532	0.082251140	0.025350600
2020-04-21T13:05:00	0.2031	11.446	200.0	0.476745413	0.565972596	0.007987516	0.082405727	0.025398246
2020-04-21T13:10:00	0.2037	11.464	200.0	0.478966254	0.569004970	0.008055231	0.083104329	0.025613561
2020-04-21T13:15:00	0.2018	11.484	200.0	0.472195115	0.559771808	0.007849657	0.080983460	0.024959889
2020-04-21T13:20:00	0.2031	11.515	200.0	0.476840229	0.566101979	0.007990401	0.082435494	0.025407420
2020-04-21T13:25:00	0.2025	11.513	200.0	0.474565909	0.563000484	0.007921336	0.081722963	0.025187811
2020-04-21T13:30:00	0.2036	11.518	200.0	0.478516636	0.568390736	0.008041499	0.082962659	0.025569897
2020-04-21T13:35:00	0.2023	11.497	200.0	0.473821731	0.561986541	0.007898802	0.081490480	0.025116157
2020-04-21T13:40:00	0.2018	11.489	200.0	0.472237940	0.559830090	0.007850949	0.080996789	0.024963997
2020-04-21T13:45:00	0.2022	11.477	200.0	0.473769636	0.561915577	0.007897225	0.081474218	0.025111145
2020-04-21T13:50:00	0.2018	11.452	200.0	0.472185820	0.559759159	0.007849376	0.080980567	0.024958997
2020-04-21T13:55:00	0.2020	11.422	200.0	0.473025282	0.560901866	0.007874720	0.081242030	0.025039583
2020-04-21T14:00:00	0.2017	11.368	199.0	0.471787426	0.559217047	0.007837363	0.080856627	0.024920798
2020-04-21T14:05:00	0.2018	11.322	199.0	0.472280764	0.559888373	0.007852241	0.081010118	0.024968105
2020-04-21T14:10:00	0.2015	11.293	199.0	0.471042636	0.558203915	0.007814928	0.080625175	0.024849462
2020-04-21T14:15:00	0.2016	11.238	199.0	0.471536082	0.558875097	0.007829788	0.080778483	0.024896713
2020-04-21T14:20:00	0.2020	11.166	199.0	0.473068096	0.560960162	0.007876013	0.081255376	0.025043696
2020-04-21T14:25:00	0.2012	11.099	199.0	0.470098378	0.556920084	0.007786531	0.080332206	0.024759166
2020-04-21T14:30:00	0.2013	11.049	198.0	0.470591963	0.557591083	0.007801369	0.080485282	0.024806346
2020-04-21T14:35:00	0.2019	11.005	198.0	0.472470644	0.560146810	0.007857971	0.081069233	0.024986325
2020-04-21T14:40:00	0.2017	10.932	198.0	0.471925211	0.559404522	0.007841517	0.080899481	0.024934006
2020-04-21T14:45:00	0.2012	10.874	197.0	0.470340530	0.557249250	0.007793809	0.080407287	0.024782307
2020-04-21T14:50:00	0.2023	10.828	197.0	0.473950142	0.562161470	0.007902688	0.081530573	0.025128514
2020-04-21T14:55:00	0.2030	10.778	198.0	0.476518643	0.565663181	0.007980617	0.082334557	0.025376310
2020-04-21T15:00:00	0.2035	10.725	197.0	0.478048401	0.567751242	0.008027210	0.082815250	0.025524464
2020-04-21T15:05:00	0.2035	10.693	197.0	0.478195209	0.567951726	0.008031689	0.082861454	0.025538705
2020-04-21T15:10:00	0.2037	10.646	196.0	0.478687613	0.568624293	0.008046719	0.083016518	0.025586497
2020-04-21T15:15:00	0.2041	10.582	196.0	0.480216392	0.570713659	0.008093472	0.083498864	0.025735161
2020-04-21T15:20:00	0.2038	10.519	196.0	0.479326703	0.569497504	0.008066248	0.083217990	0.025648593
2020-04-21T15:25:00	0.2044	10.466	196.0	0.481200541	0.572059671	0.008123641	0.083810104	0.025831088
2020-04-21T15:30:00	0.2042	10.409	195.0	0.480656513	0.571315513	0.008106957	0.083637983	0.025778039
2020-04-21T15:35:00	0.2041	10.355	195.0	0.480112397	0.570571472	0.008090288	0.083466009	0.025725034
2020-04-21T15:40:00	0.2030	10.306	195.0	0.476457306	0.565579498	0.007978752	0.082315312	0.025370379
2020-04-21T15:45:00	0.2039	10.254	195.0	0.479369438	0.569555906	0.008067554	0.083231470	0.025652747
2020-04-21T15:50:00	0.2041	10.212	195.0	0.480207119	0.570700981	0.008093189	0.083495934	0.025734258
2020-04-21T15:55:00	0.2039	10.163	194.0	0.479662932	0.569957036	0.008076531	0.083324082	0.025681291
2020-04-21T16:00:00	0.2044	10.110	194.0	0.481191271	0.572046989	0.008123356	0.083807170	0.025830184
2020-04-21T16:05:00	0.2045	10.056	194.0	0.481640534	0.572661696	0.008137146	0.083949439	0.025874033
2020-04-21T16:10:00	0.2047	10.008	194.0	0.482434958	0.573749066	0.008161559	0.084201304	0.025951660
2020-04-21T16:15:00	0.2048	9.961	193.0	0.482538881	0.573891348	0.008164756	0.084234279	0.025961823
2020-04-21T16:20:00	0.2046	9.907	193.0	0.481952366	0.573088458	0.008146725	0.084048258	0.025904489
2020-04-21T16:25:00	0.2051	9.860	193.0	0.483782075	0.575594086	0.008203040	0.084629248	0.026083556
2020-04-21T16:30:00	0.2057	9.816	193.0	0.485610796	0.578101037	0.008259516	0.085211907	0.026263137
2020-04-21T16:35:00	0.2061	9.763	193.0	0.487093821	0.580136042	0.008305458	0.085685876	0.026409219
2020-04-21T16:40:00	0.2059	9.715	192.0	0.486508093	0.579332097	0.008287298	0.085498524	0.026351475
2020-04-21T16:45:00	0.2063	9.676	192.0	0.487646069	0.580894287	0.008322598	0.085862706	0.026463720
2020-04-21T16:50:00	0.2058	9.640	192.0	0.486026080	0.578670712	0.008272368	0.085344498	0.026304003
2020-04-21T16:55:00	0.2064	9.604	192.0	0.488198229	0.581652653	0.008339752	0.086039688	0.026518267
2020-04-21T17:00:00	0.2067	9.562	192.0	0.489335639	0.583215605	0.008375145	0.086404828	0.026630807
2020-04-21T17:05:00	0.2069	9.523	192.0	0.489783825	0.583831756	0.008389112	0.086548920	0.026675218
2020-04-21T17:10:00	0.2063	9.493	191.0	0.487820217	0.581133445	0.008328006	0.085918505	0.026480918
2020-04-21T17:15:00	0.2075	9.465	191.0	0.492057206	0.586959600	0.008460134	0.087281644	0.026901050
2020-04-21T17:20:00	0.2068	9.429	191.0	0.489405990	0.583312310	0.008377337	0.086427438	0.026637776
2020-04-21T17:25:00	0.2074	9.404	191.0	0.491575980	0.586297157	0.008445075	0.087126286	0.026853168
2020-04-21T17:30:00	0.2079	9.381	191.0	0.493400512	0.588809743	0.008502240	0.087716043	0.027034936
2020-04-21T17:35:00	0.2078	9.352	191.0	0.492815870	0.588004334	0.008483902	0.087526849	0.026976625
2020-04-21T17:40:00	0.2086	9.326	191.0	0.495671479	0.591940848	0.008573660	0.088452866	0.027262032
2020-04-21T17:45:00	0.2092	9.304	191.0	0.497837478	0.594931087	0.008642055	0.089158489	0.027479512
2020-04-21T17:50:00	0.2088	9.277	191.0	0.496566125	0.593175482	0.008601877	0.088743979	0.027351756
2020-04-21T17:55:00	0.2090	9.249	190.0	0.497013360	0.593792919	0.008616000	0.088889685	0.027396664
2020-04-21T18:00:00	0.2087	9.216	191.0	0.496085536	0.592512177	0.008586713	0.088587539	0.027303540
2020-04-21T18:05:00	0.2094	9.184	190.0	0.498594856	0.595977564	0.008666035	0.089405881	0.027555761
2020-04-21T18:10:00	0.2096	9.151	190.0	0.499041825	0.596595361	0.008680202	0.089552040	0.027600808
2020-04-21T18:15:00	0.2092	9.120	190.0	0.497770921	0.594839146	0.008639949	0.089136765	0.027472817
2020-04-21T18:20:00	0.2096	9.086	190.0	0.499248655	0.596881295	0.008686761	0.089619713	0.027621666
2020-04-21T18:25:00	0.2095	9.055	190.0	0.498665016	0.596074528	0.008668258	0.089428815	0.027562829
2020-04-21T18:30:00	0.2103	9.022	190.0	0.501515729	0.600017680	0.008758823	0.090363158	0.027850803
2020-04-21T18:35:00	0.2106	8.992	190.0	0.502648702	0.601586642	0.008794947	0.090735842	0.027965668
2020-04-21T18:40:00	0.2108	8.960	189.0	0.503438237	0.602680615	0.008820164	0.090996007	0.028045853
2020-04-21T18:45:00	0.2107	8.926	189.0	0.502855314	0.601872873	0.008801542	0.090803888	0.027986640
2020-04-21T18:50:00	0.2113	8.892	189.0	0.505016759	0.604869308	0.008870690	0.091517269	0.028206511
2020-04-21T18:55:00	0.2114	8.861	189.0	0.505462888	0.605488250	0.008884995	0.091664860	0.028252000
2020-04-21T19:00:00	0.2113	8.831	189.0	0.504880310	0.604680037	0.008866316	0.091472152	0.028192606
2020-04-21T19:05:00	0.2114	8.799	188.0	0.505326457	0.605298954	0.008880619	0.091619713	0.028238085
2020-04-21T19:10:00	0.2117	8.768	189.0	0.506458167	0.606869640	0.008916952	0.091994552	0.028353614
2020-04-21T19:15:00	0.2113	8.736	189.0	0.504847100	0.604633973	0.008865252	0.091461173	0.028189222
2020-04-21T19:20:00	0.2115	8.698	188.0	0.505636127	0.605728639	0.008890554	0.091722204	0.028269674
2020-04-21T19:25:00	0.2118	8.661	188.0	0.506767734	0.607299464	0.008926904	0.092097219	0.028385257
2020-04-21T19:30:00	0.2124	8.622	188.0	0.508584162	0.609823073	0.008985406	0.092700779	0.028571281
2020-04-21T19:35:00	0.2129	8.582	188.0	0.510399626	0.612348004	0.009044069	0.093305988	0.028757812
2020-04-21T19:40:00	0.2127	8.541	187.0	0.509817888	0.611538639	0.009025250	0.093111844	0.028697975
2020-04-21T19:45:00	0.2136	8.501	187.0	0.513001457	0.615971248	0.009128473	0.094176776	0.029026197
2020-04-21T19:50:00	0.2123	8.461	187.0	0.508311544	0.609444149	0.008976614	0.092610069	0.028543323
2020-04-21T19:55:00	0.2126	8.421	187.0	0.509442266	0.611016186	0.009013110	0.092986594	0.028659371
2020-04-21T20:00:00	0.2125	8.382	187.0	0.509202885	0.610683288	0.009005377	0.092906818	0.028634784
2020-04-21T20:05:00	0.2126	8.346	186.0	0.509305994	0.610826673	0.009008708	0.092941176	0.028645373
2020-04-21T20:10:00	0.2123	8.307	186.0	0.508381505	0.609541385	0.008978870	0.092633343	0.028550496
2020-04-21T20:15:00	0.2127	8.268	186.0	0.509854657	0.611589787	0.009026439	0.093124109	0.028701755
2020-04-21T20:20:00	0.2123	8.227	186.0	0.508245190	0.609351930	0.008974474	0.092587997	0.028536520
2020-04-21T20:25:00	0.2128	8.186	186.0	0.510060834	0.611876613	0.009033107	0.093192898	0.028722956
2020-04-21T20:30:00	0.2120	8.146	186.0	0.507423580	0.608210341	0.008948005	0.092314915	0.028452353
2020-04-21T20:35:00	0.2118	8.109	185.0	0.506841337	0.607401671	0.008929270	0.092121637	0.028392783
2020-04-21T20:40:00	0.2111	8.071	185.0	0.504201599	0.603738801	0.008844580	0.091247900	0.028123489
2020-04-21T20:45:00	0.2116	8.034	185.0	0.506019390	0.606260544	0.008902857	0.091849132	0.028308794
2020-04-21T20:50:00	0.2120	7.996	186.0	0.507493559	0.608307553	0.008950258	0.092338159	0.028459517
2020-04-21T20:55:00	0.2117	7.958	185.0	0.506225798	0.606547054	0.008909486	0.091917526	0.028329874
2020-04-21T21:00:00	0.2111	7.922	185.0	0.504271644	0.603835922	0.008846822	0.091271031	0.028130618
2020-04-21T21:05:00	0.2110	7.887	185.0	0.504031900	0.603503520	0.008839149	0.091191873	0.028106221
2020-04-21T21:10:00	0.2112	7.851	184.0	0.504478157	0.604122287	0.008853434	0.091339244	0.028151642
2020-04-21T21:15:00	0.2106	7.813	184.0	0.502523003	0.601412521	0.008790935	0.090694456	0.027952912
2020-04-21T21:20:00	0.2104	7.778	184.0	0.501939924	0.600604992	0.008772339	0.090502604	0.027893782
2020-04-21T21:25:00	0.2097	7.743	184.0	0.499639871	0.597422228	0.008699175	0.089747787	0.027661140
2020-04-21T21:30:00	0.2091	7.708	184.0	0.497338266	0.594241574	0.008626268	0.088995612	0.027429312
2020-04-21T21:35:00	0.2105	7.673	183.0	0.502249901	0.601034257	0.008782223	0.090604572	0.027925209
2020-04-21T21:40:00	0.2101	7.638	184.0	0.500980192	0.599276417	0.008741773	0.090187262	0.027796590
2020-04-21T21:45:00	0.2101	7.604	184.0	0.500740217	0.598944331	0.008734139	0.090108498	0.027772314
2020-04-21T21:50:00	0.2100	7.571	183.0	0.500500225	0.598612268	0.008726507	0.090029764	0.027748047
2020-04-21T21:55:00	0.2105	7.534	183.0	0.502319986	0.601131324	0.008784458	0.090627634	0.027932317
2020-04-21T22:00:00	0.2111	7.498	183.0	0.504138778	0.603651700	0.008842569	0.091227158	0.028117096
2020-04-21T22:05:00	0.2105	7.461	183.0	0.502131768	0.600870654	0.008778455	0.090565705	0.027913230
2020-04-21T22:10:00	0.2112	7.423	183.0	0.504585022	0.604270486	0.008856856	0.091374553	0.028162525
2020-04-21T22:15:00	0.2111	7.384	183.0	0.504293671	0.603866464	0.008847527	0.091278305	0.028132860
2020-04-21T22:20:00	0.2114	7.348	182.0	0.505374109	0.605365070	0.008882148	0.091635481	0.028242945
2020-04-21T22:25:00	0.2118	7.314	182.0	0.506796966	0.607340056	0.008927844	0.092106916	0.028388246
2020-04-21T22:30:00	0.2115	7.286	182.0	0.505820192	0.605984076	0.008896461	0.091783151	0.028288459
2020-04-21T22:35:00	0.2123	7.254	182.0	0.508270801	0.609387523	0.008975300	0.092596515	0.028539145
2020-04-21T22:40:00	0.2127	7.217	182.0	0.509692453	0.611364158	0.009021195	0.093070009	0.028685081
2020-04-21T22:45:00	0.2131	7.182	182.0	0.511113515	0.613341603	0.009067188	0.093544512	0.028831327
2020-04-21T22:50:00	0.2128	7.144	181.0	0.510137972	0.611983935	0.009035602	0.093218641	0.028730891
2020-04-21T22:55:00	0.2130	7.108	181.0	0.510874250	0.613008546	0.009059436	0.093464535	0.028806677
2020-04-21T23:00:00	0.2129	7.071	181.0	0.510583434	0.612603791	0.009050019	0.093367373	0.028776731
2020-04-21T23:05:00	0.2134	7.036	182.0	0.512346330	0.615058420	0.009107184	0.093957135	0.028958502
2020-04-21T23:10:00	0.2133	7.002	181.0	0.511713406	0.614176858	0.009086639	0.093745182	0.028893176
2020-04-21T23:15:00	0.2129	6.968	180.0	0.510395670	0.612342500	0.009043941	0.093304667	0.028757405
2020-04-21T23:20:00	0.2131	6.936	181.0	0.511131892	0.613367187	0.009067784	0.093550656	0.028833221
2020-04-21T23:25:00	0.2131	6.902	180.0	0.511183418	0.613438918	0.009069454	0.093567884	0.028838531
2020-04-21T23:30:00	0.2127	6.869	180.0	0.509865478	0.611604840	0.009026789	0.093127719	0.028702867
2020-04-21T23:35:00	0.2125	6.833	180.0	0.509232095	0.610723908	0.009006321	0.092916551	0.028637783
2020-04-21T23:40:00	0.2120	6.798	180.0	0.507228074	0.607938775	0.008941712	0.092249994	0.028432344
2020-04-21T23:45:00	0.2121	6.762	180.0	0.507622336	0.608486452	0.008954404	0.092380939	0.028472703
2020-04-21T23:50:00	0.2119	6.728	179.0	0.506988537	0.607606090	0.008934005	0.092170482	0.028407838
2020-04-21T23:55:00	0.2119	6.694	179.0	0.507040126	0.607677736	0.008935664	0.092187603	0.028413115
2020-04-22T00:00:00	0.2098	6.661	179.0	0.499887159	0.597764215	0.008707027	0.089828789	0.027686105
2020-04-22T00:05:00	0.2101	6.630	179.0	0.500968993	0.599260919	0.008741417	0.090183586	0.027795457
2020-04-22T00:10:00	0.2096	6.599	179.0	0.499303629	0.596957299	0.008688505	0.089637705	0.027627211
2020-04-22T00:15:00	0.2084	6.567	179.0	0.494887039	0.590858830	0.008548956	0.088198005	0.027183482
2020-04-22T00:20:00	0.2086	6.539	179.0	0.495626612	0.591878947	0.008572246	0.088438279	0.027257536
2020-04-22T00:25:00	0.2083	6.508	178.0	0.494646634	0.590527326	0.008541393	0.088119972	0.027159431
2020-04-22T00:30:00	0.2084	6.476	178.0	0.495042352	0.591073022	0.008553844	0.088248436	0.027199025
2020-04-22T00:35:00	0.2083	6.443	178.0	0.494750184	0.590670110	0.008544650	0.088153579	0.027169789
2020-04-22T00:40:00	0.2076	6.408	178.0	0.492393462	0.587422592	0.008470664	0.087390282	0.026934534
2020-04-22T00:45:00	0.2071	6.373	178.0	0.490723900	0.585124661	0.008418444	0.086851540	0.026768488
2020-04-22T00:50:00	0.2070	6.340	178.0	0.490086953	0.584248576	0.008398565	0.086646442	0.026705275
2020-04-22T00:55:00	0.2070	6.311	178.0	0.490138798	0.584319874	0.008400182	0.086663127	0.026710418
2020-04-22T01:00:00	0.2064	6.282	178.0	0.488123520	0.581550029	0.008337430	0.086015731	0.026510884
2020-04-22T01:05:00	0.2058	6.255	178.0	0.486107045	0.578781794	0.008274875	0.085370361	0.026311974
2020-04-22T01:10:00	0.2064	6.229	177.0	0.488227269	0.581692545	0.008340655	0.086049001	0.026521138
2020-04-22T01:15:00	0.2063	6.202	178.0	0.487934515	0.581290424	0.008331557	0.085955138	0.026492208
2020-04-22T01:20:00	0.2066	6.175	177.0	0.488675601	0.582308499	0.008354598	0.086192844	0.026565472
2020-04-22T01:25:00	0.2068	6.146	177.0	0.489416525	0.583326792	0.008377665	0.086430824	0.026638820
2020-04-22T01:30:00	0.2078	6.115	177.0	0.492911525	0.588136090	0.008486901	0.087557790	0.026986161
2020-04-22T01:35:00	0.2074	6.085	177.0	0.491586508	0.586311648	0.008445405	0.087129684	0.026854215
2020-04-22T01:40:00	0.2077	6.057	176.0	0.492670981	0.587804775	0.008479360	0.087479994	0.026962184
2020-04-22T01:45:00	0.2086	6.028	176.0	0.495818811	0.592144126	0.008578303	0.088500774	0.027276798
2020-04-22T01:50:00	0.2084	6.001	176.0	0.495182817	0.591266754	0.008558267	0.088294059	0.027213087
2020-04-22T01:55:00	0.2086	5.971	176.0	0.495578472	0.591812534	0.008570729	0.088422630	0.027252713
2020-04-22T02:00:00	0.2092	5.941	176.0	0.497692802	0.594731239	0.008637478	0.089111271	0.027464959
2020-04-22T02:05:00	0.2090	5.913	176.0	0.497057158	0.593853393	0.008617384	0.088903961	0.027401064
2020-04-22T02:10:00	0.2082	5.884	175.0	0.494358056	0.590129456	0.008532318	0.088026348	0.027130575
2020-04-22T02:15:00	0.2090	5.858	175.0	0.497160634	0.593996276	0.008620653	0.088937692	0.027411461
2020-04-22T02:20:00	0.2093	5.831	175.0	0.498243333	0.595491804	0.008654901	0.089291016	0.027520358
2020-04-22T02:25:00	0.2089	5.804	175.0	0.496576638	0.593189994	0.008602209	0.088747403	0.027352811
2020-04-22T02:30:00	0.2094	5.779	175.0	0.498346774	0.595634736	0.008658176	0.089324809	0.027530774
2020-04-22T02:35:00	0.2089	5.753	175.0	0.496680129	0.593332857	0.008605476	0.088781110	0.027363200
2020-04-22T02:40:00	0.2090	5.726	175.0	0.497075611	0.593878873	0.008617967	0.088909976	0.027402918
2020-04-22T02:45:00	0.2083	5.700	174.0	0.494720499	0.590629176	0.008543716	0.088143944	0.027166820
2020-04-22T02:50:00	0.2078	5.674	174.0	0.493052078	0.588329703	0.008491308	0.087603263	0.027000176
2020-04-22T02:55:00	0.2072	5.648	175.0	0.491038526	0.585557531	0.008428273	0.086952938	0.026799740
2020-04-22T03:00:00	0.2072	5.625	174.0	0.490746015	0.585155084	0.008419135	0.086858665	0.026770684
2020-04-22T03:05:00	0.2082	5.602	174.0	0.494239649	0.589966224	0.008528595	0.087987947	0.027118740
2020-04-22T03:10:00	0.2082	5.579	174.0	0.494291431	0.590037607	0.008530223	0.088004739	0.027123915
2020-04-22T03:15:00	0.2074	5.555	174.0	0.491590135	0.586316639	0.008445518	0.087130854	0.026854575
2020-04-22T03:20:00	0.2073	5.534	174.0	0.491297671	0.585914128	0.008436373	0.087036500	0.026825495
2020-04-22T03:25:00	0.2076	5.513	174.0	0.492382235	0.587407131	0.008470313	0.087386654	0.026933415
2020-04-22T03:30:00	0.2073	5.487	169.0	0.491401323	0.586056774	0.008439613	0.087069934	0.026835799
2020-04-22T03:35:00	0.2072	5.464	174.0	0.490764502	0.585180518	0.008419712	0.086864622	0.026772520
2020-04-22T03:40:00	0.2073	5.440	174.0	0.491160672	0.585725603	0.008432090	0.086992319	0.026811878
2020-04-22T03:45:00	0.2074	5.416	174.0	0.491556795	0.586270751	0.008444475	0.087120095	0.026851260
2020-04-22T03:50:00	0.2076	5.394	174.0	0.492297092	0.587289890	0.008467646	0.087359140	0.026924935
2020-04-22T03:55:00	0.2074	5.370	174.0	0.491660439	0.586413408	0.008447717	0.087153543	0.026861568
2020-04-22T04:00:00	0.2074	5.347	174.0	0.491712260	0.586484738	0.008449339	0.087170269	0.026866723
2020-04-22T04:05:00	0.2081	5.322	173.0	0.493871544	0.589458840	0.008517029	0.087868619	0.027081962
2020-04-22T04:10:00	0.2084	5.300	173.0	0.494997827	0.591011616	0.008552443	0.088233977	0.027194569
2020-04-22T04:15:00	0.2081	5.276	173.0	0.494060219	0.589718890	0.008522956	0.087929771	0.027100809
2020-04-22T04:20:00	0.2084	5.254	173.0	0.495186439	0.591271751	0.008558381	0.088295236	0.027213449
2020-04-22T04:25:00	0.2085	5.235	173.0	0.495280742	0.591401823	0.008561350	0.088325872	0.027222891
2020-04-22T04:30:00	0.2088	5.216	173.0	0.496406559	0.592955230	0.008596841	0.088692022	0.027335743
2020-04-22T04:35:00	0.2095	5.199	173.0	0.498906422	0.596408190	0.008675909	0.089507750	0.027587158
2020-04-22T04:40:00	0.2099	5.182	173.0	0.500031042	0.597963221	0.008711597	0.089875937	0.027700637
2020-04-22T04:45:00	0.2109	5.168	172.0	0.503557607	0.602846057	0.008823980	0.091035373	0.028057986
2020-04-22T04:50:00	0.2116	5.152	172.0	0.506052239	0.606306139	0.008903912	0.091860015	0.028312149
2020-04-22T04:55:00	0.2115	5.136	172.0	0.505803417	0.605960795	0.008895923	0.091777596	0.028286746
2020-04-22T05:00:00	0.2125	5.120	172.0	0.508981526	0.610375496	0.008998230	0.092833078	0.028612056
2020-04-22T05:05:00	0.2124	5.105	172.0	0.508732917	0.610029861	0.008990206	0.092750295	0.028586542
2020-04-22T05:10:00	0.2126	5.090	172.0	0.509511855	0.611112968	0.009015359	0.093009792	0.028666521
2020-04-22T05:15:00	0.2126	5.075	172.0	0.509605762	0.611243579	0.009018393	0.093041101	0.028676171
2020-04-22T05:20:00	0.2133	5.060	172.0	0.511753760	0.614233054	0.009087948	0.093758688	0.028897338
2020-04-22T05:25:00	0.2127	5.047	171.0	0.509793570	0.611504811	0.009024464	0.093103733	0.028695475
2020-04-22T05:30:00	0.2127	5.034	171.0	0.509887469	0.611635432	0.009027500	0.093135055	0.028705128
2020-04-22T05:35:00	0.2127	5.024	171.0	0.509638926	0.611289706	0.009019465	0.093052159	0.028679579
2020-04-22T05:40:00	0.2131	5.014	171.0	0.511102349	0.613326059	0.009066827	0.093540779	0.028830176
2020-04-22T05:45:00	0.2128	5.005	171.0	0.510169153	0.612027317	0.009036611	0.093229048	0.028734098
2020-04-22T05:50:00	0.2133	4.998	171.0	0.511974590	0.614540606	0.009095114	0.093832618	0.028920124
2020-04-22T05:55:00	0.2137	4.993	171.0	0.513094921	0.616101504	0.009131513	0.094208132	0.029035861
2020-04-22T06:00:00	0.2132	4.988	171.0	0.511477789	0.613848763	0.009078997	0.093666340	0.028868876
2020-04-22T06:05:00	0.2137	4.984	171.0	0.513282537	0.616362999	0.009137615	0.094271091	0.029055266
2020-04-22T06:10:00	0.2139	4.982	171.0	0.514060441	0.617447528	0.009162940	0.094532358	0.029135791
2020-04-22T06:15:00	0.2146	4.982	171.0	0.516205649	0.620440843	0.009232958	0.095254725	0.029358431
2020-04-22T06:20:00	0.2146	4.983	171.0	0.516299373	0.620571706	0.009236023	0.095286348	0.029368178
2020-04-22T06:25:00	0.2150	4.985	171.0	0.517759955	0.622611971	0.009283856	0.095779835	0.029520275
2020-04-22T06:30:00	0.2147	4.988	171.0	0.516486814	0.620833442	0.009242155	0.095349607	0.029387675
2020-04-22T06:35:00	0.2155	4.991	171.0	0.519313559	0.624784072	0.009334872	0.096306153	0.029682492
2020-04-22T06:40:00	0.2153	4.996	171.0	0.518724164	0.623959805	0.009315502	0.096106312	0.029620899
2020-04-22T06:45:00	0.2151	5.005	171.0	0.518134667	0.623135679	0.009296148	0.095906645	0.029559359
2020-04-22T06:50:00	0.2150	5.020	171.0	0.517545070	0.622311692	0.009276811	0.095707151	0.029497874
2020-04-22T06:55:00	0.2145	5.040	171.0	0.515930036	0.620056058	0.009223947	0.095161762	0.029329779
2020-04-22T07:00:00	0.2145	5.065	172.0	0.516023768	0.620186911	0.009227011	0.095193372	0.029339522
2020-04-22T07:05:00	0.2140	5.094	172.0	0.514066019	0.617455307	0.009163121	0.094534233	0.029136369
2020-04-22T07:10:00	0.2141	5.128	172.0	0.514501790	0.618063061	0.009177323	0.094680751	0.029181527
2020-04-22T07:15:00	0.2141	5.164	172.0	0.514595561	0.618193860	0.009180381	0.094712294	0.029191249
2020-04-22T07:20:00	0.2144	5.201	173.0	0.515715035	0.619755937	0.009216921	0.095089275	0.029307438
2020-04-22T07:25:00	0.2142	5.242	172.0	0.514783095	0.618455468	0.009186497	0.094775394	0.029210697
2020-04-22T07:30:00	0.2137	5.284	172.0	0.513166760	0.616201629	0.009133849	0.094232237	0.029043290
2020-04-22T07:35:00	0.2140	5.332	172.0	0.514286701	0.617763064	0.009170312	0.094608418	0.029159233
2020-04-22T07:40:00	0.2135	5.405	173.0	0.512670131	0.615509548	0.009117703	0.094065662	0.028991951
2020-04-22T07:45:00	0.2131	5.477	174.0	0.511052799	0.613257082	0.009065221	0.093524214	0.028825071
2020-04-22T07:50:00	0.2129	5.545	174.0	0.510461982	0.612434776	0.009046087	0.093326810	0.028764229
2020-04-22T07:55:00	0.2123	5.607	174.0	0.508501052	0.609707548	0.008982725	0.092673121	0.028562756
2020-04-22T08:00:00	0.2136	5.665	174.0	0.512703265	0.615555716	0.009118780	0.094076771	0.028995374
2020-04-22T08:05:00	0.2134	5.747	174.0	0.512112733	0.614733018	0.009099599	0.093878880	0.028934383
2020-04-22T08:10:00	0.2133	5.831	175.0	0.511864351	0.614387070	0.009091537	0.093795709	0.028908748
2020-04-22T08:15:00	0.2126	5.902	175.0	0.509561776	0.611182400	0.009016972	0.093026435	0.028671651
2020-04-22T08:20:00	0.2129	5.972	176.0	0.510340526	0.612265766	0.009042156	0.093286255	0.028751730
2020-04-22T08:25:00	0.2119	6.072	176.0	0.507008917	0.607634392	0.008934660	0.092177245	0.028409922
2020-04-22T08:30:00	0.2121	6.170	176.0	0.507788247	0.608716962	0.008959748	0.092436071	0.028489695
2020-04-22T08:35:00	0.2125	6.305	176.0	0.509252461	0.610752229	0.009006979	0.092923337	0.028639875
2020-04-22T08:40:00	0.2121	6.441	177.0	0.507633513	0.608501981	0.008954764	0.092384653	0.028473847
2020-04-22T08:45:00	0.2123	6.564	178.0	0.508412701	0.609584745	0.008979876	0.092643722	0.028553695
2020-04-22T08:50:00	0.2116	6.674	178.0	0.506107802	0.606383263	0.008905696	0.091878424	0.028317823
2020-04-22T08:55:00	0.2124	6.792	179.0	0.508600574	0.609845888	0.008985936	0.092706242	0.028572964
2020-04-22T09:00:00	0.2113	6.911	179.0	0.504924357	0.604741133	0.008867728	0.091486715	0.028197094
2020-04-22T09:05:00	0.2108	7.012	180.0	0.503303357	0.602493691	0.008815853	0.090951535	0.028032146
2020-04-22T09:10:00	0.2112	7.130	180.0	0.504769493	0.604526330	0.008862766	0.091435519	0.028181315
2020-04-22T09:15:00	0.2109	7.252	182.0	0.503491511	0.602754449	0.008821867	0.091013575	0.028051268
2020-04-22T09:20:00	0.2106	7.377	182.0	0.502556236	0.601458554	0.008791996	0.090705397	0.027956284
2020-04-22T09:25:00	0.2104	7.486	182.0	0.501963949	0.600638259	0.008773105	0.090510505	0.027896217
2020-04-22T09:30:00	0.2106	7.609	182.0	0.502744431	0.601719256	0.008798002	0.090767366	0.027975384
2020-04-22T09:35:00	0.2107	7.720	183.0	0.502838524	0.601849612	0.008801006	0.090798357	0.027984936
2020-04-22T09:40:00	0.2109	7.844	183.0	0.503618806	0.602930881	0.008825936	0.091055559	0.028064208
2020-04-22T09:45:00	0.2100	7.976	184.0	0.500624015	0.598783543	0.008730443	0.090070371	0.027760563
2020-04-22T09:50:00	0.2099	8.097	184.0	0.500031392	0.597963706	0.008711608	0.089876051	0.027700672
2020-04-22T09:55:00	0.2105	8.209	185.0	0.502185412	0.600944945	0.008780166	0.090583353	0.027918669
2020-04-22T10:00:00	0.2095	8.307	186.0	0.498845838	0.596324450	0.008673988	0.089487937	0.027581051
2020-04-22T10:05:00	0.2089	8.397	186.0	0.496729148	0.593400528	0.008607024	0.088797077	0.027368122
2020-04-22T10:10:00	0.2089	8.487	186.0	0.496674328	0.593324849	0.008605293	0.088779220	0.027362618
2020-04-22T10:15:00	0.2088	8.585	187.0	0.496275724	0.592774651	0.008592713	0.088649432	0.027322616
2020-04-22T10:20:00	0.2078	8.684	187.0	0.493125236	0.588430486	0.008493603	0.087626937	0.027007473
2020-04-22T10:25:00	0.2087	8.774	187.0	0.496166067	0.592623313	0.008589253	0.088613743	0.027311616
2020-04-22T10:30:00	0.2069	8.865	187.0	0.489916901	0.584014734	0.008393261	0.086591726	0.026688411
2020-04-22T10:35:00	0.2066	8.951	189.0	0.488828466	0.582518554	0.008359354	0.086241917	0.026580596
2020-04-22T10:40:00	0.2063	9.026	189.0	0.487739683	0.581022844	0.008325505	0.085892699	0.026472964
2020-04-22T10:45:00	0.2066	9.091	189.0	0.488718569	0.582367541	0.008355935	0.086206636	0.026569723
2020-04-22T10:50:00	0.2064	9.174	189.0	0.487974409	0.581345217	0.008332797	0.085967926	0.026496150
2020-04-22T10:55:00	0.2060	9.258	190.0	0.486885352	0.579849876	0.008298992	0.085619171	0.026388660
2020-04-22T11:00:00	0.2059	9.354	190.0	0.486485599	0.579301228	0.008286601	0.085491333	0.026349259
2020-04-22T11:05:00	0.2066	9.445	190.0	0.488843335	0.582538987	0.008359817	0.086246691	0.026582068
2020-04-22T11:10:00	0.2065	9.533	191.0	0.488443812	0.581990029	0.008347388	0.086118462	0.026542546
2020-04-22T11:15:00	0.2063	9.635	191.0	0.487699591	0.580967786	0.008324260	0.085879853	0.026469005
2020-04-22T11:20:00	0.2050	9.733	192.0	0.483160906	0.574743150	0.008183900	0.084431786	0.026022696
2020-04-22T11:25:00	0.2047	9.857	192.0	0.482415526	0.573722462	0.008160962	0.084195139	0.025949759
2020-04-22T11:30:00	0.2060	9.980	192.0	0.486845250	0.579794831	0.008297749	0.085606343	0.026384706
2020-04-22T11:35:00	0.2050	10.114	193.0	0.483340913	0.574989709	0.008189444	0.084488984	0.026040326
2020-04-22T11:40:00	0.2056	10.254	194.0	0.485355945	0.577751507	0.008251634	0.085130588	0.026238074
2020-04-22T11:45:00	0.2050	10.401	194.0	0.483230838	0.574838934	0.008186053	0.084454005	0.026029544
2020-04-22T11:50:00	0.2042	10.537	195.0	0.480413651	0.570983387	0.008099515	0.083561202	0.025754374
2020-04-22T11:55:00	0.2031	10.691	196.0	0.476902655	0.566187168	0.007992301	0.082455095	0.025413461
2020-04-22T12:00:00	0.2048	10.833	196.0	0.482720563	0.574140112	0.008170345	0.084291944	0.025979596
2020-04-22T12:05:00	0.2045	10.969	197.0	0.481629818	0.572647033	0.008136817	0.083946045	0.025872986
2020-04-22T12:10:00	0.2045	11.104	198.0	0.481574754	0.572571682	0.008135127	0.083928601	0.025867610
2020-04-22T12:15:00	0.2038	11.204	198.0	0.479101750	0.569190105	0.008059371	0.083147046	0.025626727
2020-04-22T12:20:00	0.2036	11.310	199.0	0.478355476	0.568170611	0.008036579	0.082911908	0.025554255
2020-04-22T12:25:00	0.2025	11.420	199.0	0.474842343	0.563377237	0.007929715	0.081809405	0.025214453
2020-04-22T12:30:00	0.2026	11.513	199.0	0.475133134	0.563773624	0.007938533	0.081900385	0.025242494
2020-04-22T12:35:00	0.2016	11.596	200.0	0.471616649	0.558984702	0.007832216	0.080803527	0.024904432
2020-04-22T12:40:00	0.2013	11.670	200.0	0.470522318	0.557496393	0.007799274	0.080463674	0.024799686
2020-04-22T12:45:00	0.2024	11.742	201.0	0.474275618	0.562604910	0.007912542	0.081632237	0.025159848
2020-04-22T12:50:00	0.2010	11.805	201.0	0.469372369	0.555933468	0.007764732	0.080107310	0.024689851
2020-04-22T12:55:00	0.2009	11.857	201.0	0.468970542	0.555387583	0.007752680	0.079982969	0.024651528
2020-04-22T13:00:00	0.2003	11.904	201.0	0.467181896	0.552959246	0.007699144	0.079430648	0.024481297
2020-04-22T13:05:00	0.1999	11.941	201.0	0.465739231	0.551002477	0.007656097	0.078986538	0.024344418
2020-04-22T13:10:00	0.1992	11.964	201.0	0.463254603	0.547636302	0.007582237	0.078224543	0.024109564
2020-04-22T13:15:00	0.1999	11.985	202.0	0.465628581	0.550852465	0.007652800	0.078952526	0.024333935
2020-04-22T13:20:00	0.1999	12.016	202.0	0.465573255	0.550777461	0.007651152	0.078935523	0.024328695
2020-04-22T13:25:00	0.2003	12.035	202.0	0.466905384	0.552584070	0.007690884	0.079345432	0.024455033
2020-04-22T13:30:00	0.1997	12.037	202.0	0.465115642	0.550157178	0.007637526	0.078794952	0.024285369
2020-04-22T13:35:00	0.1993	12.033	202.0	0.463672092	0.548201574	0.007594623	0.078352326	0.024148948
2020-04-22T13:40:00	0.1984	12.028	202.0	0.460491103	0.543898054	0.007500502	0.077381293	0.023849666
2020-04-22T13:45:00	0.1991	12.006	202.0	0.462867030	0.547111658	0.007570748	0.078106009	0.024073030
2020-04-22T13:50:00	0.1984	11.970	202.0	0.460380281	0.543748269	0.007497233	0.077347570	0.023839272
2020-04-22T13:55:00	0.1993	11.954	202.0	0.463450654	0.547901734	0.007588052	0.078284537	0.024128055
2020-04-22T14:00:00	0.1991	11.900	202.0	0.463048120	0.547356779	0.007576115	0.078161382	0.024090097
2020-04-22T14:05:00	0.1991	11.863	201.0	0.462992752	0.547281831	0.007574474	0.078144450	0.024084878
2020-04-22T14:10:00	0.1985	11.831	201.0	0.460853531	0.544387974	0.007511196	0.077491627	0.023883672
2020-04-22T14:15:00	0.1973	11.796	201.0	0.456626478	0.538680421	0.007386928	0.076209579	0.023488532
2020-04-22T14:20:00	0.1975	11.726	201.0	0.457266649	0.539543901	0.007405683	0.076403066	0.023548167
2020-04-22T14:25:00	0.1987	11.677	201.0	0.461382110	0.545102678	0.007526807	0.077652682	0.023933311
2020-04-22T14:30:00	0.1978	11.623	200.0	0.458198955	0.540801998	0.007433038	0.076685278	0.023635147
2020-04-22T14:35:00	0.1978	11.568	200.0	0.458491185	0.541196489	0.007441622	0.076773842	0.023662444
2020-04-22T14:40:00	0.1983	11.508	200.0	0.460173622	0.543468977	0.007491139	0.077284705	0.023819897
2020-04-22T14:45:00	0.1984	11.452	199.0	0.460465681	0.543863692	0.007499752	0.077373556	0.023847281
2020-04-22T14:50:00	0.1981	11.401	199.0	0.459367722	0.542380160	0.007467400	0.077039790	0.023744412
2020-04-22T14:55:00	0.1988	11.368	199.0	0.461744442	0.545592724	0.007537517	0.077763178	0.023967367
2020-04-22T15:00:00	0.1981	11.313	199.0	0.459256864	0.542230423	0.007464137	0.077006130	0.023734037
2020-04-22T15:05:00	0.1981	11.259	198.0	0.459549002	0.542625034	0.007472737	0.077094848	0.023761381
2020-04-22T15:10:00	0.1986	11.218	198.0	0.461230910	0.544898215	0.007522340	0.077606596	0.023919107
2020-04-22T15:15:00	0.1989	11.169	198.0	0.462217500	0.546232680	0.007551512	0.077907556	0.024011865
2020-04-22T15:20:00	0.1991	11.107	198.0	0.462856608	0.547097552	0.007570439	0.078102823	0.024072048
2020-04-22T15:25:00	0.1989	11.052	198.0	0.462106735	0.546082820	0.007548234	0.077873739	0.024001443
2020-04-22T15:30:00	0.1994	11.000	198.0	0.463787366	0.548357677	0.007598045	0.078387627	0.024159828
2020-04-22T15:35:00	0.1992	10.937	198.0	0.463384873	0.547812669	0.007586101	0.078264405	0.024121850
2020-04-22T15:40:00	0.1990	10.873	196.0	0.462635117	0.546797783	0.007563877	0.078035123	0.024051183
2020-04-22T15:45:00	0.1994	10.812	197.0	0.463968407	0.548602863	0.007603420	0.078443083	0.024176920
2020-04-22T15:50:00	0.1996	10.753	197.0	0.464607184	0.549468172	0.007622401	0.078638907	0.024237275
2020-04-22T15:55:00	0.1999	10.694	197.0	0.465592785	0.550803936	0.007651734	0.078941524	0.024330544
2020-04-22T16:00:00	0.2010	10.639	196.0	0.469351566	0.555905205	0.007764108	0.080100870	0.024687866
2020-04-22T16:05:00	0.2004	10.575	196.0	0.467376069	0.553222740	0.007704947	0.079490516	0.024499749
2020-04-22T16:10:00	0.1998	10.523	196.0	0.465399413	0.550541803	0.007645974	0.078882107	0.024312231
2020-04-22T16:15:00	0.2006	10.479	195.0	0.467931544	0.553976689	0.007721559	0.079661904	0.024552573
2020-04-22T16:20:00	0.2011	10.425	195.0	0.469768850	0.556472217	0.007776633	0.080230089	0.024727693
2020-04-22T16:25:00	0.2005	10.375	195.0	0.467793597	0.553789430	0.007717432	0.079619325	0.024539449
2020-04-22T16:30:00	0.2015	10.326	195.0	0.471363096	0.558639780	0.007824577	0.080724721	0.024880143
2020-04-22T16:35:00	0.2008	10.280	195.0	0.468695630	0.555014186	0.007744440	0.079897955	0.024625326
2020-04-22T16:40:00	0.2010	10.234	194.0	0.469493100	0.556097508	0.007768355	0.080144687	0.024701371
2020-04-22T16:45:00	0.2007	10.187	194.0	0.468557714	0.554826885	0.007740307	0.079855323	0.024612186
2020-04-22T16:50:00	0.2004	10.135	194.0	0.467275331	0.553086035	0.007701936	0.079459454	0.024490175
2020-04-22T16:55:00	0.2004	10.091	194.0	0.467379721	0.553227697	0.007705056	0.079491642	0.024500096
2020-04-22T17:00:00	0.2003	10.051	194.0	0.467137357	0.552898811	0.007697813	0.079416919	0.024477066
2020-04-22T17:05:00	0.2004	10.015	194.0	0.467241751	0.553040467	0.007700932	0.079449101	0.024486984
2020-04-22T17:10:00	0.2004	9.983	193.0	0.467346142	0.553182128	0.007704052	0.079481288	0.024496905
2020-04-22T17:15:00	0.2010	9.948	193.0	0.469530308	0.556148065	0.007769472	0.080156208	0.024704922
2020-04-22T17:20:00	0.2005	9.915	193.0	0.467901622	0.553936070	0.007720664	0.079652668	0.024549726
2020-04-22T17:25:00	0.2007	9.875	193.0	0.468352655	0.554548428	0.007734165	0.079791957	0.024592656
2020-04-22T17:30:00	0.2006	9.838	193.0	0.468110360	0.554219450	0.007726911	0.079717116	0.024569589
2020-04-22T17:35:00	0.2017	9.807	192.0	0.472025809	0.559541410	0.007844550	0.080930777	0.024943651
2020-04-22T17:40:00	0.2015	9.776	192.0	0.471091124	0.558269860	0.007816388	0.080640233	0.024854103
2020-04-22T17:45:00	0.2020	9.746	192.0	0.472926712	0.560767661	0.007871742	0.081211307	0.025030114
2020-04-22T17:50:00	0.2024	9.717	192.0	0.474415299	0.562795243	0.007916773	0.081675886	0.025173301
2020-04-22T17:55:00	0.2031	9.686	192.0	0.476594900	0.565767226	0.007982937	0.082358487	0.025383685
2020-04-22T18:00:00	0.2026	9.652	192.0	0.474969618	0.563550723	0.007933574	0.081849220	0.025226724
2020-04-22T18:05:00	0.2020	9.616	192.0	0.472997405	0.560863910	0.007873877	0.081233341	0.025036904
2020-04-22T18:10:00	0.2026	9.582	191.0	0.475177920	0.563834680	0.007939892	0.081914402	0.025246814
2020-04-22T18:15:00	0.2028	9.545	192.0	0.475627982	0.564448322	0.007953551	0.082055324	0.025290248
2020-04-22T18:20:00	0.2037	9.509	191.0	0.478843668	0.568837487	0.008051486	0.083065692	0.025601653
2020-04-22T18:25:00	0.2036	9.475	191.0	0.478602125	0.568507513	0.008044109	0.082989587	0.025578197
2020-04-22T18:30:00	0.2046	9.440	191.0	0.481814990	0.572900440	0.008142504	0.084004717	0.025891070
2020-04-22T18:35:00	0.2051	9.403	191.0	0.483644772	0.575405970	0.008198807	0.084585582	0.026070098
2020-04-22T18:40:00	0.2056	9.369	191.0	0.485473568	0.577912821	0.008255272	0.085168115	0.026249640
2020-04-22T18:45:00	0.2058	9.336	191.0	0.485922264	0.578528287	0.008269154	0.085311342	0.026293784
2020-04-22T18:50:00	0.2068	9.302	191.0	0.489472712	0.583404030	0.008379415	0.086448884	0.026644386
2020-04-22T18:55:00	0.2060	9.268	190.0	0.486819478	0.579759457	0.008296950	0.085598099	0.026382165
2020-04-22T19:00:00	0.2066	9.236	190.0	0.488991119	0.582742080	0.008364417	0.086294147	0.026596694
2020-04-22T19:05:00	0.2069	9.205	190.0	0.489783825	0.583831756	0.008389112	0.086548920	0.026675218
2020-04-22T19:10:00	0.2070	9.170	190.0	0.490231953	0.584447987	0.008403088	0.086693111	0.026719659
2020-04-22T19:15:00	0.2075	9.135	190.0	0.492057206	0.586959600	0.008460134	0.087281644	0.026901050
2020-04-22T19:20:00	0.2080	9.098	189.0	0.493537421	0.588998389	0.008506537	0.087760376	0.027048600
2020-04-22T19:25:00	0.2091	9.063	189.0	0.497423634	0.594359469	0.008628966	0.089023454	0.027437893
2020-04-22T19:30:00	0.2091	9.027	190.0	0.497527100	0.594502367	0.008632238	0.089057205	0.027448296
2020-04-22T19:35:00	0.2089	8.987	189.0	0.496599415	0.593221436	0.008602928	0.088754821	0.027355098
2020-04-22T19:40:00	0.2095	8.949	189.0	0.498764826	0.596212475	0.008671420	0.089461447	0.027572887
2020-04-22T19:45:00	0.2101	8.910	189.0	0.500928862	0.599205381	0.008740140	0.090170412	0.027791397
2020-04-22T19:50:00	0.2101	8.874	189.0	0.501032221	0.599348424	0.008743429	0.090204344	0.027801855
2020-04-22T19:55:00	0.2102	8.836	189.0	0.501135578	0.599491470	0.008746718	0.090238280	0.027812314
2020-04-22T20:00:00	0.2097	8.795	188.0	0.499521998	0.597259231	0.008695434	0.089709189	0.027649243
2020-04-22T20:05:00	0.2096	8.756	187.0	0.499281920	0.596927285	0.008687816	0.089630600	0.027625021
2020-04-22T20:10:00	0.2101	8.718	187.0	0.500759000	0.598970323	0.008734736	0.090114662	0.027774214
2020-04-22T20:15:00	0.2097	8.681	187.0	0.499488736	0.597213238	0.008694378	0.089698298	0.027645887
2020-04-22T20:20:00	0.2096	8.642	187.0	0.499248655	0.596881295	0.008686761	0.089619713	0.027621666
2020-04-22T20:25:00	0.2098	8.604	187.0	0.499695539	0.597499209	0.008700942	0.089766018	0.027666759
2020-04-22T20:30:00	0.2088	8.565	187.0	0.496362753	0.592894768	0.008595459	0.088677761	0.027331347
2020-04-22T20:35:00	0.2084	8.530	187.0	0.495090849	0.591139909	0.008555371	0.088264187	0.027203880
2020-04-22T20:40:00	0.2086	8.493	187.0	0.495882135	0.592231502	0.008580300	0.088521370	0.027283146
2020-04-22T20:45:00	0.2092	8.455	187.0	0.497704362	0.594747207	0.008637844	0.089115043	0.027466122
2020-04-22T20:50:00	0.2094	8.420	186.0	0.498495042	0.595839623	0.008662872	0.089373257	0.027545706
2020-04-22T20:55:00	0.2094	8.383	186.0	0.498598475	0.595982565	0.008666149	0.089407063	0.027556125
2020-04-22T21:00:00	0.2097	8.347	186.0	0.499388947	0.597075262	0.008691212	0.089665631	0.027635818
2020-04-22T21:05:00	0.2099	8.312	186.0	0.500179237	0.598168208	0.008716305	0.089924510	0.027715607
2020-04-22T21:10:00	0.2095	8.277	186.0	0.498908756	0.596411417	0.008675983	0.089508514	0.027587393
2020-04-22T21:15:00	0.2091	8.241	186.0	0.497294122	0.594180611	0.008624872	0.088981216	0.027424875
2020-04-22T21:20:00	0.2097	8.207	186.0	0.499459091	0.597172248	0.008693438	0.089688593	0.027642895
2020-04-22T21:25:00	0.2091	8.174	186.0	0.497501058	0.594466401	0.008631414	0.089048710	0.027445677
2020-04-22T21:30:00	0.2089	8.139	185.0	0.496573367	0.593185479	0.008602106	0.088746337	0.027352483
2020-04-22T21:35:00	0.2089	8.105	185.0	0.496676859	0.593328342	0.008605373	0.088780044	0.027362872
2020-04-22T21:40:00	0.2085	8.072	185.0	0.495405072	0.591573324	0.008565266	0.088366271	0.027235343
2020-04-22T21:45:00	0.2085	8.037	185.0	0.495508599	0.591716139	0.008568527	0.088399917	0.027245713
2020-04-22T21:50:00	0.2081	8.003	185.0	0.493892352	0.589487518	0.008517683	0.087875362	0.027084040
2020-04-22T21:55:00	0.2082	7.968	184.0	0.494339939	0.590104479	0.008531748	0.088020471	0.027128764
2020-04-22T22:00:00	0.2081	7.937	184.0	0.494099496	0.589773028	0.008524191	0.087942504	0.027104734
2020-04-22T22:05:00	0.2080	7.906	184.0	0.493807247	0.589370226	0.008515010	0.087847784	0.027075540
2020-04-22T22:10:00	0.2078	7.873	184.0	0.492826746	0.588019314	0.008484243	0.087530367	0.026977709
2020-04-22T22:15:00	0.2062	7.841	184.0	0.487367789	0.580512175	0.008313959	0.085773578	0.026436250
2020-04-22T22:20:00	0.2060	7.807	184.0	0.486730213	0.579636937	0.008294182	0.085569547	0.026373366
2020-04-22T22:25:00	0.2057	7.775	183.0	0.485747667	0.578288778	0.008263751	0.085255596	0.026276603
2020-04-22T22:30:00	0.2060	7.744	184.0	0.486834004	0.579779395	0.008297400	0.085602745	0.026383597
2020-04-22T22:35:00	0.2067	7.712	183.0	0.489298297	0.583164276	0.008373982	0.086392829	0.026627109
2020-04-22T22:40:00	0.2075	7.681	183.0	0.491760805	0.586551560	0.008450857	0.087185939	0.026871553
2020-04-22T22:45:00	0.2077	7.649	183.0	0.492501057	0.587570759	0.008474035	0.087425058	0.026945252
2020-04-22T22:50:00	0.2084	7.616	183.0	0.494961249	0.590961170	0.008551292	0.088222100	0.027190908
2020-04-22T22:55:00	0.2084	7.583	183.0	0.495013019	0.591032568	0.008552921	0.088238911	0.027196089
2020-04-22T23:00:00	0.2089	7.551	183.0	0.496783968	0.593476208	0.008608755	0.088814936	0.027373626
2020-04-22T23:05:00	0.2090	7.519	182.0	0.497179438	0.594022240	0.008621248	0.088943822	0.027413350
2020-04-22T23:10:00	0.2087	7.485	182.0	0.496199907	0.592670014	0.008590321	0.088624756	0.027315011
2020-04-22T23:15:00	0.2091	7.450	182.0	0.497282911	0.594165128	0.008624518	0.088977561	0.027423748
2020-04-22T23:20:00	0.2082	7.417	182.0	0.494240000	0.589966708	0.008528606	0.087988060	0.027118775
2020-04-22T23:25:00	0.2069	7.384	182.0	0.489816831	0.583877138	0.008390141	0.086559536	0.026678490
2020-04-22T23:30:00	0.2069	7.350	182.0	0.489868680	0.583948430	0.008391757	0.086576214	0.026683630
2020-04-22T23:35:00	0.2075	7.320	182.0	0.491986559	0.586862337	0.008457923	0.087258828	0.026894018
2020-04-22T23:40:00	0.2074	7.289	182.0	0.491694129	0.586459780	0.008448771	0.087164416	0.026864920
2020-04-22T23:45:00	0.2077	7.254	182.0	0.492778567	0.587952954	0.008482732	0.087514785	0.026972907
2020-04-22T23:50:00	0.2087	7.220	182.0	0.495926298	0.592292440	0.008581692	0.088535734	0.027287573
2020-04-22T23:55:00	0.2087	7.189	181.0	0.495978054	0.592363857	0.008583324	0.088552570	0.027292762
2020-04-23T00:00:00	0.2089	7.162	181.0	0.496717390	0.593384295	0.008606652	0.088793247	0.027366941
2020-04-23T00:05:00	0.2087	7.132	182.0	0.496081564	0.592506696	0.008586588	0.088586246	0.027303141
2020-04-23T00:10:00	0.2094	7.101	181.0	0.498539171	0.595900607	0.008664270	0.089387680	0.027550151
2020-04-23T00:15:00	0.2092	7.070	181.0	0.497903684	0.595022546	0.008644150	0.089180101	0.027486173
2020-04-23T00:20:00	0.2093	7.040	180.0	0.497955410	0.595094004	0.008645787	0.089196988	0.027491378
2020-04-23T00:25:00	0.2092	7.010	180.0	0.497663492	0.594690754	0.008636551	0.089101706	0.027462011
2020-04-23T00:30:00	0.2098	6.982	180.0	0.499776529	0.597611213	0.008703514	0.089792546	0.027674935
2020-04-23T00:35:00	0.2100	6.955	180.0	0.500515042	0.598632769	0.008726978	0.090034624	0.027749545
2020-04-23T00:40:00	0.2097	6.925	180.0	0.499536469	0.597279242	0.008695893	0.089713927	0.027650704
2020-04-23T00:45:00	0.2100	6.896	180.0	0.500618414	0.598775795	0.008730265	0.090068534	0.027759997
2020-04-23T00:50:00	0.2099	6.867	179.0	0.500326724	0.598372235	0.008720992	0.089972864	0.027730511
2020-04-23T00:55:00	0.2099	6.836	179.0	0.500035010	0.597968709	0.008711723	0.089877237	0.027701037
2020-04-23T01:00:00	0.2090	6.805	179.0	0.496994556	0.593766955	0.008615406	0.088883557	0.027394775
2020-04-23T01:05:00	0.2085	6.774	179.0	0.495327249	0.591465974	0.008562815	0.088340982	0.027227549
2020-04-23T01:10:00	0.2082	6.745	179.0	0.494347186	0.590114470	0.008531976	0.088022822	0.027129489
2020-04-23T01:15:00	0.2079	6.716	179.0	0.493366840	0.588763348	0.008501183	0.087705141	0.027031576
2020-04-23T01:20:00	0.2077	6.689	179.0	0.492730387	0.587886595	0.008481222	0.087499204	0.026968104
2020-04-23T01:25:00	0.2079	6.663	179.0	0.493470429	0.588906079	0.008504434	0.087738682	0.027041914
2020-04-23T01:30:00	0.2090	6.638	178.0	0.496961269	0.593720996	0.008614355	0.088872708	0.027391432
2020-04-23T01:35:00	0.2096	6.611	178.0	0.499074741	0.596640864	0.008681245	0.089562808	0.027604127
2020-04-23T01:40:00	0.2091	6.586	178.0	0.497408452	0.594338503	0.008628486	0.089018503	0.027436367
2020-04-23T01:45:00	0.2091	6.562	178.0	0.497460186	0.594409951	0.008630122	0.089035377	0.027441568
2020-04-23T01:50:00	0.2084	6.535	178.0	0.495105340	0.591159894	0.008555827	0.088268893	0.027205330
2020-04-23T01:55:00	0.2091	6.507	178.0	0.497563651	0.594552850	0.008633394	0.089069130	0.027451971
2020-04-23T02:00:00	0.2089	6.480	178.0	0.496584230	0.593200475	0.008602448	0.088749875	0.027353573
2020-04-23T02:05:00	0.2090	6.455	177.0	0.496979723	0.593746475	0.008614938	0.088878722	0.027393285
2020-04-23T02:10:00	0.2094	6.429	178.0	0.498406082	0.595716689	0.008660055	0.089344187	0.027536746
2020-04-23T02:15:00	0.2087	6.403	177.0	0.496051890	0.592465746	0.008585652	0.088576591	0.027300166
2020-04-23T02:20:00	0.2082	6.375	177.0	0.494384121	0.590165390	0.008533137	0.088034802	0.027133181
2020-04-23T02:25:00	0.2083	6.348	177.0	0.494779870	0.590711044	0.008545584	0.088163215	0.027172759
2020-04-23T02:30:00	0.2075	6.322	177.0	0.492078961	0.586989552	0.008460815	0.087288671	0.026903216
2020-04-23T02:35:00	0.2083	6.297	177.0	0.494539457	0.590379551	0.008538022	0.088085194	0.027148712
2020-04-23T02:40:00	0.2085	6.272	177.0	0.495279106	0.591399567	0.008561299	0.088325340	0.027222728
2020-04-23T02:45:00	0.2080	6.246	177.0	0.493610959	0.589099723	0.008508846	0.087784194	0.027055941
2020-04-23T02:50:00	0.2082	6.219	177.0	0.494350809	0.590119465	0.008532090	0.088023997	0.027129851
2020-04-23T02:55:00	0.2083	6.191	177.0	0.494746561	0.590665114	0.008544536	0.088152403	0.027169427
2020-04-23T03:00:00	0.2085	6.163	176.0	0.495486165	0.591685190	0.008567821	0.088392625	0.027243466
2020-04-23T03:05:00	0.2090	6.137	177.0	0.497256868	0.594129164	0.008623695	0.088969068	0.027421131
2020-04-23T03:10:00	0.2090	6.111	176.0	0.496964890	0.593725995	0.008614469	0.088873888	0.027391795
2020-04-23T03:15:00	0.2093	6.088	176.0	0.498047651	0.595221439	0.008648706	0.089227106	0.027500661
2020-04-23T03:20:00	0.2091	6.065	176.0	0.497412073	0.594343502	0.008628601	0.089019683	0.027436731
2020-04-23T03:25:00	0.2092	6.040	176.0	0.497807469	0.594889633	0.008641106	0.089148694	0.027476493
2020-04-23T03:30:00	0.2085	6.014	175.0	0.495452863	0.591639251	0.008566771	0.088381802	0.027240130
2020-04-23T03:35:00	0.2092	5.990	176.0	0.497910923	0.595032547	0.008644379	0.089182464	0.027486902
2020-04-23T03:40:00	0.2087	5.969	176.0	0.495900244	0.592256489	0.008580871	0.088527260	0.027284961
2020-04-23T03:45:00	0.2094	5.946	175.0	0.498357982	0.595650223	0.008658531	0.089328471	0.027531902
2020-04-23T03:50:00	0.2090	5.923	175.0	0.497035084	0.593822914	0.008616686	0.088896766	0.027398847
2020-04-23T03:55:00	0.2089	5.901	175.0	0.496743087	0.593419770	0.008607464	0.088801618	0.027369521
2020-04-23T04:00:00	0.2083	5.877	175.0	0.494731718	0.590644647	0.008544069	0.088147586	0.027167942
2020-04-23T04:05:00	0.2093	5.855	175.0	0.498160321	0.595377106	0.008652273	0.089263902	0.027512001
2020-04-23T04:10:00	0.2103	5.833	175.0	0.501585480	0.600114242	0.008761044	0.090386080	0.027857868
2020-04-23T04:15:00	0.2107	5.814	175.0	0.502949054	0.602002749	0.008804535	0.090834769	0.027996158
2020-04-23T04:20:00	0.2107	5.794	175.0	0.502939844	0.601989987	0.008804241	0.090831735	0.027995223
2020-04-23T04:25:00	0.2107	5.776	175.0	0.502930633	0.601977225	0.008803947	0.090828700	0.027994287
2020-04-23T04:30:00	0.2111	5.758	175.0	0.504293671	0.603866464	0.008847527	0.091278305	0.028132860
2020-04-23T04:35:00	0.2121	5.739	175.0	0.507712686	0.608611977	0.008957314	0.092410960	0.028481955
2020-04-23T04:40:00	0.2125	5.721	174.0	0.509073819	0.610503822	0.009001209	0.092863819	0.028621531
2020-04-23T04:45:00	0.2133	5.704	175.0	0.511803649	0.614302531	0.009089567	0.093775388	0.028902485
2020-04-23T04:50:00	0.2140	5.689	174.0	0.514189319	0.617627253	0.009167139	0.094575678	0.029149142
2020-04-23T04:55:00	0.2147	5.673	175.0	0.516573330	0.620954261	0.009244986	0.095378812	0.029396676
2020-04-23T05:00:00	0.2153	5.658	174.0	0.518614141	0.623805971	0.009311888	0.096069031	0.029609408
2020-04-23T05:05:00	0.2157	5.644	174.0	0.519970953	0.625703768	0.009356501	0.096529296	0.029751266
2020-04-23T05:10:00	0.2161	5.631	174.0	0.521327230	0.627602307	0.009401203	0.096990482	0.029893408
2020-04-23T05:15:00	0.2163	5.616	174.0	0.522000588	0.628545439	0.009423437	0.097219859	0.029964105
2020-04-23T05:20:00	0.2168	5.604	174.0	0.523697138	0.630923327	0.009479571	0.097798989	0.030142598
2020-04-23T05:25:00	0.2170	5.593	174.0	0.524370032	0.631867103	0.009501882	0.098029164	0.030213540
2020-04-23T05:30:00	0.2172	5.580	174.0	0.525042794	0.632811063	0.009524215	0.098259566	0.030284553
2020-04-23T05:35:00	0.2175	5.571	174.0	0.526056266	0.634233768	0.009557907	0.098607165	0.030391686
2020-04-23T05:40:00	0.2184	5.564	174.0	0.529113174	0.638530096	0.009659895	0.099659354	0.030715981
2020-04-23T05:45:00	0.2190	5.556	174.0	0.531146562	0.641392129	0.009728036	0.100362358	0.030932653
2020-04-23T05:50:00	0.2192	5.552	174.0	0.531818002	0.642337934	0.009750590	0.100595041	0.031004369
2020-04-23T05:55:00	0.2195	5.547	174.0	0.532829484	0.643763421	0.009784616	0.100946076	0.031112561
2020-04-23T06:00:00	0.2202	5.543	174.0	0.535200622	0.647108347	0.009864613	0.101771393	0.031366932
2020-04-23T06:05:00	0.2187	5.540	174.0	0.530429304	0.640382191	0.009703973	0.100114096	0.030856137
2020-04-23T06:10:00	0.2200	5.537	174.0	0.534842433	0.646602761	0.009852507	0.101646502	0.031328439
2020-04-23T06:15:00	0.2193	5.537	174.0	0.532452785	0.643232439	0.009771937	0.100815270	0.031072245
2020-04-23T06:20:00	0.2197	5.536	174.0	0.533804156	0.645137820	0.009817459	0.101284918	0.031216995
2020-04-23T06:25:00	0.2204	5.538	174.0	0.536174625	0.648483686	0.009897569	0.102111394	0.031471723
2020-04-23T06:30:00	0.2202	5.542	174.0	0.535485783	0.647510929	0.009874256	0.101870877	0.031397594
2020-04-23T06:35:00	0.2200	5.546	174.0	0.534796804	0.646538364	0.009850966	0.101630598	0.031323537
2020-04-23T06:40:00	0.2195	5.552	174.0	0.533087451	0.644127108	0.009793303	0.101035702	0.031140185
2020-04-23T06:45:00	0.2195	5.559	174.0	0.533078321	0.644114236	0.009792995	0.101032529	0.031139207
2020-04-23T06:50:00	0.2203	5.568	174.0	0.535789168	0.647939309	0.009884520	0.101976772	0.031430231
2020-04-23T06:55:00	0.2195	5.581	174.0	0.533060060	0.644088490	0.009792380	0.101026183	0.031137251
2020-04-23T07:00:00	0.2193	5.597	174.0	0.532370597	0.643116605	0.009769172	0.100786743	0.031063453
2020-04-23T07:05:00	0.2194	5.616	174.0	0.532701649	0.643583216	0.009780312	0.100901677	0.031098877
2020-04-23T07:10:00	0.2201	5.637	174.0	0.535072875	0.646928019	0.009860295	0.101726842	0.031353201
2020-04-23T07:15:00	0.2196	5.661	174.0	0.533363658	0.644516571	0.009802609	0.101131709	0.031169775
2020-04-23T07:20:00	0.2204	5.690	174.0	0.536074281	0.648341960	0.009894171	0.102076340	0.031460919
2020-04-23T07:25:00	0.2205	5.726	174.0	0.536404978	0.648809069	0.009905371	0.102191888	0.031496532
2020-04-23T07:30:00	0.2203	5.766	175.0	0.535716182	0.647836247	0.009882050	0.101951292	0.031422378
2020-04-23T07:35:00	0.2203	5.810	175.0	0.535707059	0.647823364	0.009881742	0.101948107	0.031421397
2020-04-23T07:40:00	0.2208	5.883	175.0	0.537396880	0.650210663	0.009939003	0.102538862	0.031603473
2020-04-23T07:45:00	0.2202	5.949	175.0	0.535348923	0.647317705	0.009869627	0.101823125	0.031382876
2020-04-23T07:50:00	0.2210	6.020	176.0	0.538057989	0.651145282	0.009961451	0.102770452	0.031674851
2020-04-23T07:55:00	0.2208	6.086	176.0	0.537369523	0.650171996	0.009938075	0.102529284	0.031600521
2020-04-23T08:00:00	0.2208	6.150	176.0	0.537360404	0.650159108	0.009937765	0.102526092	0.031599537
2020-04-23T08:05:00	0.2201	6.220	177.0	0.534972498	0.646786338	0.009856902	0.101691844	0.031342414
2020-04-23T08:10:00	0.2199	6.295	177.0	0.534283417	0.645813917	0.009833629	0.101451742	0.031268412
2020-04-23T08:15:00	0.2201	6.372	177.0	0.534954248	0.646760578	0.009856286	0.101685481	0.031340453
2020-04-23T08:20:00	0.2194	6.450	177.0	0.532564678	0.643390147	0.009775702	0.100854115	0.031084218
2020-04-23T08:25:00	0.2203	6.547	178.0	0.535615825	0.647694539	0.009878655	0.101916261	0.031411581
2020-04-23T08:30:00	0.2196	6.648	178.0	0.533226713	0.644323465	0.009797994	0.101084102	0.031155102
2020-04-23T08:35:00	0.2191	6.774	179.0	0.531516581	0.641913301	0.009740462	0.100490552	0.030972164
2020-04-23T08:40:00	0.2201	6.904	179.0	0.534908621	0.646696179	0.009854744	0.101669574	0.031335550
2020-04-23T08:45:00	0.2198	7.027	180.0	0.533879493	0.645244086	0.009820000	0.101311133	0.031225075
2020-04-23T08:50:00	0.2204	7.133	180.0	0.535910075	0.648110053	0.009888612	0.102018990	0.031443243
2020-04-23T08:55:00	0.2208	7.241	181.0	0.537260094	0.650017333	0.009934362	0.102490978	0.031588715
2020-04-23T09:00:00	0.2201	7.358	182.0	0.534872120	0.646644660	0.009853510	0.101656850	0.031331628
2020-04-23T09:05:00	0.2198	7.466	182.0	0.533842980	0.645192583	0.009818769	0.101298427	0.031221159
2020-04-23T09:10:00	0.2212	7.577	182.0	0.538930927	0.652379911	0.009991130	0.103076650	0.031769225
2020-04-23T09:15:00	0.2200	7.698	183.0	0.534844743	0.646606022	0.009852585	0.101647307	0.031328687
2020-04-23T09:20:00	0.2198	7.821	184.0	0.534155636	0.645633637	0.009829317	0.101407250	0.031254699
2020-04-23T09:25:00	0.2202	7.928	183.0	0.535506341	0.647539954	0.009874951	0.101878051	0.031399805
2020-04-23T09:30:00	0.2193	8.045	184.0	0.532436833	0.643209957	0.009771400	0.100809733	0.031070539
2020-04-23T09:35:00	0.2195	8.148	185.0	0.533108023	0.644156113	0.009793996	0.101042851	0.031142388
2020-04-23T09:40:00	0.2195	8.266	185.0	0.533098893	0.644143240	0.009793688	0.101039678	0.031141410
2020-04-23T09:45:00	0.2206	8.393	186.0	0.536829157	0.649408351	0.009919747	0.102340196	0.031542242
2020-04-23T09:50:00	0.2200	8.511	186.0	0.534780863	0.646515867	0.009850427	0.101625042	0.031321825
2020-04-23T09:55:00	0.2195	8.620	187.0	0.533071502	0.644104622	0.009792766	0.101030159	0.031138476
2020-04-23T10:00:00	0.2199	8.715	187.0	0.534422631	0.646010342	0.009838329	0.101500226	0.031283355
2020-04-23T10:05:00	0.2195	8.803	188.0	0.532995955	0.643998109	0.009790221	0.101003908	0.031130386
2020-04-23T10:10:00	0.2196	8.901	188.0	0.533269665	0.644384031	0.009799442	0.101099033	0.031159704
2020-04-23T10:15:00	0.2201	8.999	188.0	0.534903423	0.646688842	0.009854568	0.101667762	0.031334992
2020-04-23T10:20:00	0.2192	9.092	189.0	0.532116314	0.642758260	0.009760619	0.100698506	0.031036258
2020-04-23T10:25:00	0.2192	9.181	189.0	0.532049879	0.642664646	0.009758385	0.100675460	0.031029154
2020-04-23T10:30:00	0.2187	9.273	190.0	0.530281833	0.640174595	0.009699029	0.100063091	0.030840416
2020-04-23T10:35:00	0.2180	9.361	190.0	0.527831651	0.636728056	0.009617073	0.099217570	0.030579819
2020-04-23T10:40:00	0.2179	9.439	191.0	0.527424462	0.636155758	0.009603487	0.099077404	0.030536618
2020-04-23T10:45:00	0.2192	9.513	191.0	0.532124368	0.642769609	0.009760890	0.100701300	0.031037119
2020-04-23T10:50:00	0.2180	9.593	191.0	0.527972745	0.636926394	0.009621783	0.099266161	0.030594795
2020-04-23T10:55:00	0.2178	9.677	191.0	0.527224882	0.635875301	0.009596831	0.099008740	0.030515455
2020-04-23T11:00:00	0.2182	9.776	192.0	0.528520942	0.637697151	0.009640094	0.099455069	0.030653018
2020-04-23T11:05:00	0.2177	9.867	192.0	0.526751084	0.635209633	0.009581040	0.098845829	0.030465244
2020-04-23T11:10:00	0.2186	9.970	193.0	0.530090477	0.639905249	0.009692615	0.099996927	0.030820024
2020-04-23T11:15:00	0.2192	10.080	193.0	0.532065987	0.642687343	0.009758927	0.100681047	0.031030877
2020-04-23T11:20:00	0.2174	10.191	194.0	0.525869848	0.633972014	0.009551705	0.098543181	0.030371966
2020-04-23T11:25:00	0.2195	10.310	194.0	0.532953693	0.643938526	0.009788798	0.100989225	0.031125860
2020-04-23T11:30:00	0.2191	10.440	195.0	0.531526409	0.641927145	0.009740792	0.100493958	0.030973214
2020-04-23T11:35:00	0.2201	10.579	196.0	0.534861184	0.646629227	0.009853141	0.101653038	0.031330454
2020-04-23T11:40:00	0.2193	10.713	196.0	0.532414254	0.643178133	0.009770640	0.100801896	0.031068123
2020-04-23T11:45:00	0.2195	10.864	197.0	0.533028162	0.644043517	0.009791306	0.101015099	0.031133835
2020-04-23T11:50:00	0.2190	11.015	198.0	0.531260617	0.641552763	0.009731866	0.100401863	0.030944829
2020-04-23T11:55:00	0.2195	11.168	198.0	0.532895326	0.643856241	0.009786833	0.100968947	0.031119610
2020-04-23T12:00:00	0.2195	11.305	199.0	0.532828906	0.643762606	0.009784596	0.100945875	0.031112499
2020-04-23T12:05:00	0.2184	11.445	199.0	0.529359193	0.638876195	0.009668126	0.099744278	0.030742155
2020-04-23T12:10:00	0.2183	11.581	200.0	0.528952185	0.638303645	0.009654510	0.099603801	0.030698859
2020-04-23T12:15:00	0.2187	11.710	201.0	0.530247596	0.640126402	0.009697881	0.100051251	0.030836767
2020-04-23T12:20:00	0.2191	11.831	201.0	0.531542520	0.641949839	0.009741333	0.100499541	0.030974935
2020-04-23T12:25:00	0.2186	11.937	202.0	0.529774213	0.639460153	0.009682021	0.099887622	0.030786335
2020-04-23T12:30:00	0.2178	12.032	202.0	0.527323670	0.636014118	0.009600125	0.099042725	0.030525930
2020-04-23T12:35:00	0.2178	12.124	202.0	0.527257143	0.635920633	0.009597907	0.099019838	0.030518876
2020-04-23T12:40:00	0.2179	12.210	203.0	0.527531309	0.636305917	0.009607051	0.099114174	0.030547951
2020-04-23T12:45:00	0.2177	12.280	203.0	0.526783349	0.635254958	0.009582115	0.098856918	0.030468662
2020-04-23T12:50:00	0.2165	12.329	203.0	0.522625280	0.629420738	0.009444087	0.097432901	0.030029766
2020-04-23T12:55:00	0.2163	12.389	203.0	0.522217475	0.628849298	0.009430604	0.097293799	0.029986894
2020-04-23T13:00:00	0.2163	12.439	204.0	0.522150849	0.628755951	0.009428402	0.097271082	0.029979892
2020-04-23T13:05:00	0.2155	12.483	204.0	0.519353397	0.624839796	0.009336182	0.096319668	0.029686657
2020-04-23T13:10:00	0.2156	12.516	204.0	0.519628194	0.625224203	0.009345221	0.096412919	0.029715398
2020-04-23T13:15:00	0.2150	12.548	204.0	0.517512098	0.622265622	0.009275730	0.095696001	0.029494437
2020-04-23T13:20:00	0.2141	12.573	205.0	0.514710864	0.618354702	0.009184141	0.094751087	0.029203205
2020-04-23T13:25:00	0.2146	12.601	205.0	0.516353454	0.620647220	0.009237792	0.095304597	0.029373802
2020-04-23T13:30:00	0.2141	12.602	205.0	0.514577319	0.618168413	0.009179786	0.094706157	0.029189357
2020-04-23T13:35:00	0.2145	12.589	205.0	0.515878155	0.619983634	0.009222251	0.095144268	0.029324387
2020-04-23T13:40:00	0.2142	12.575	205.0	0.514785729	0.618459142	0.009186583	0.094776280	0.029210970
2020-04-23T13:45:00	0.2144	12.562	205.0	0.515744655	0.619797282	0.009217889	0.095099260	0.029310515
2020-04-23T13:50:00	0.2150	12.548	205.0	0.517728418	0.622567899	0.009282822	0.095769166	0.029516987
2020-04-23T13:55:00	0.2142	12.525	204.0	0.514927360	0.618656735	0.009191203	0.094823949	0.029225662
2020-04-23T14:00:00	0.2136	12.489	204.0	0.512808362	0.615702161	0.009122196	0.094112011	0.029006236
2020-04-23T14:05:00	0.2141	12.465	204.0	0.514451864	0.617993422	0.009175695	0.094663958	0.029176351
2020-04-23T14:10:00	0.2137	12.419	204.0	0.513358983	0.616469556	0.009140102	0.094296750	0.029063174
2020-04-23T14:15:00	0.2139	12.380	204.0	0.513976301	0.617330200	0.009160199	0.094504081	0.029127076
2020-04-23T14:20:00	0.2140	12.314	203.0	0.514251529	0.617714012	0.009169166	0.094596592	0.029155588
2020-04-23T14:25:00	0.2130	12.248	203.0	0.510763006	0.612853710	0.009055833	0.093427362	0.028795220
2020-04-23T14:30:00	0.2126	12.198	203.0	0.509326476	0.610855156	0.009009369	0.092948002	0.028647477
2020-04-23T14:35:00	0.2122	12.151	203.0	0.508231958	0.609333540	0.008974048	0.092583596	0.028535163
2020-04-23T14:40:00	0.2131	12.107	203.0	0.511247117	0.613527599	0.009071519	0.093589185	0.028845096
2020-04-23T14:45:00	0.2124	12.055	203.0	0.508783315	0.610099924	0.008991832	0.092767074	0.028591713
2020-04-23T14:50:00	0.2128	12.012	202.0	0.510086353	0.611912117	0.009033932	0.093201414	0.028725581
2020-04-23T14:55:00	0.2126	11.961	202.0	0.509334583	0.610866430	0.009009631	0.092950704	0.028648310
2020-04-23T15:00:00	0.2124	11.905	202.0	0.508925195	0.610297176	0.008996411	0.092814317	0.028606274
2020-04-23T15:05:00	0.2126	11.858	202.0	0.509543313	0.611156720	0.009016375	0.093020280	0.028669754
2020-04-23T15:10:00	0.2120	11.815	202.0	0.507420980	0.608206729	0.008947921	0.092314052	0.028452087
2020-04-23T15:15:00	0.2117	11.763	201.0	0.506325852	0.606685949	0.008912701	0.091950688	0.028340095
2020-04-23T15:20:00	0.2121	11.712	201.0	0.507629826	0.608496859	0.008954646	0.092383428	0.028473470
2020-04-23T15:25:00	0.2112	11.661	201.0	0.504477536	0.604121425	0.008853414	0.091339039	0.028151579
2020-04-23T15:30:00	0.2120	11.606	201.0	0.507496005	0.608310949	0.008950336	0.092338971	0.028459768
2020-04-23T15:35:00	0.2117	11.553	200.0	0.506400901	0.606790136	0.008915112	0.091975566	0.028347763
2020-04-23T15:40:00	0.2121	11.493	200.0	0.507704846	0.608601086	0.008957062	0.092408355	0.028481153
2020-04-23T15:45:00	0.2122	11.443	199.0	0.507980578	0.608984204	0.008965945	0.092500003	0.028509399
2020-04-23T15:50:00	0.2123	11.389	200.0	0.508256288	0.609367353	0.008974832	0.092591688	0.028537658
2020-04-23T15:55:00	0.2129	11.333	199.0	0.510586769	0.612608432	0.009050126	0.093368487	0.028777074
2020-04-23T16:00:00	0.2127	11.282	199.0	0.509835109	0.611562594	0.009025807	0.093117588	0.028699745
2020-04-23T16:05:00	0.2122	11.230	199.0	0.507916197	0.608894744	0.008963871	0.092478600	0.028502803
2020-04-23T16:10:00	0.2126	11.183	199.0	0.509422716	0.610988996	0.009012478	0.092980078	0.028657363
2020-04-23T16:15:00	0.2132	11.132	198.0	0.511613160	0.614037261	0.009083387	0.093711634	0.028882836
2020-04-23T16:20:00	0.2133	11.085	198.0	0.511749341	0.614226900	0.009087805	0.093757209	0.028896882
2020-04-23T16:25:00	0.2133	11.036	198.0	0.511885516	0.614416546	0.009092224	0.093802794	0.028910932
2020-04-23T16:30:00	0.2137	10.986	198.0	0.513048189	0.616036376	0.009129993	0.094192453	0.029031029
2020-04-23T16:35:00	0.2135	10.940	198.0	0.512500038	0.615272559	0.009112176	0.094008645	0.028974377
2020-04-23T16:40:00	0.2136	10.891	198.0	0.512978324	0.615939009	0.009127721	0.094169016	0.029023805
2020-04-23T16:45:00	0.2136	10.846	197.0	0.512772323	0.615651941	0.009121024	0.094099926	0.029002511
2020-04-23T16:50:00	0.2134	10.800	196.0	0.512224127	0.614888185	0.009103215	0.093916193	0.028945883
2020-04-23T16:55:00	0.2136	10.758	197.0	0.512702451	0.615554582	0.009118753	0.094076498	0.028995290
2020-04-23T17:00:00	0.2133	10.716	196.0	0.511812021	0.614314191	0.009089839	0.093778190	0.028903349
2020-04-23T17:05:00	0.2134	10.674	197.0	0.512290403	0.614980509	0.009105367	0.093938397	0.028952726
2020-04-23T17:10:00	0.2134	10.632	197.0	0.512084361	0.614693499	0.009098677	0.093869378	0.028931454
2020-04-23T17:15:00	0.2136	10.591	196.0	0.512904853	0.615836622	0.009125332	0.094144372	0.029016210
2020-04-23T17:20:00	0.2138	10.554	196.0	0.513383082	0.616503150	0.009140886	0.094304840	0.029065667
2020-04-23T17:25:00	0.2134	10.516	195.0	0.512150640	0.614785820	0.009100829	0.093891577	0.028938296
2020-04-23T17:30:00	0.2139	10.479	195.0	0.513997336	0.617359531	0.009160884	0.094511150	0.029129254
2020-04-23T17:35:00	0.2147	10.442	195.0	0.516526646	0.620889067	0.009243458	0.095363053	0.029391819
2020-04-23T17:40:00	0.2153	10.407	195.0	0.518712558	0.623943578	0.009315120	0.096102379	0.029619687
2020-04-23T17:45:00	0.2152	10.372	195.0	0.518165311	0.623178512	0.009297154	0.095917019	0.029562557
2020-04-23T17:50:00	0.2156	10.335	195.0	0.519667333	0.625278959	0.009346508	0.096426204	0.029719493
2020-04-23T17:55:00	0.2161	10.299	195.0	0.521509990	0.627858251	0.009407235	0.097052711	0.029912588
2020-04-23T18:00:00	0.2167	10.263	195.0	0.523351660	0.630438914	0.009468127	0.097680917	0.030106207
2020-04-23T18:05:00	0.2171	10.227	195.0	0.524851417	0.632542502	0.009517859	0.098193998	0.030264344
2020-04-23T18:10:00	0.2174	10.190	195.0	0.526009711	0.634168396	0.009556358	0.098591184	0.030386760
2020-04-23T18:15:00	0.2176	10.153	194.0	0.526486119	0.634837446	0.009572215	0.098754781	0.030437183
2020-04-23T18:20:00	0.2187	10.114	194.0	0.530368119	0.640296058	0.009701921	0.100092933	0.030849614
2020-04-23T18:25:00	0.2191	10.075	194.0	0.531524560	0.641924539	0.009740730	0.100493317	0.030973016
2020-04-23T18:30:00	0.2201	10.037	194.0	0.535060977	0.646911226	0.009859893	0.101722694	0.031351922
2020-04-23T18:35:00	0.2207	9.997	194.0	0.537235161	0.649982094	0.009933516	0.102482251	0.031586025
2020-04-23T18:40:00	0.2210	9.956	193.0	0.538049680	0.651133533	0.009961169	0.102767540	0.031673954
2020-04-23T18:45:00	0.2209	9.918	193.0	0.537845174	0.650844383	0.009954222	0.102695873	0.031651865
2020-04-23T18:50:00	0.2216	9.877	193.0	0.540017607	0.653917716	0.010028139	0.103458465	0.031886904
2020-04-23T18:55:00	0.2225	9.841	193.0	0.543206234	0.658435637	0.010137133	0.104582930	0.032233475
2020-04-23T19:00:00	0.2227	9.803	192.0	0.544019349	0.659589060	0.010165022	0.104870657	0.032322155
2020-04-23T19:05:00	0.2231	9.763	193.0	0.545171234	0.661223960	0.010204597	0.105278943	0.032447993
2020-04-23T19:10:00	0.2232	9.725	192.0	0.545645008	0.661896716	0.010220897	0.105447105	0.032499822
2020-04-23T19:15:00	0.2237	9.689	192.0	0.547135120	0.664013863	0.010272248	0.105976894	0.032663108
2020-04-23T19:20:00	0.2235	9.652	191.0	0.546592362	0.663242503	0.010253529	0.105783768	0.032603585
2020-04-23T19:25:00	0.2232	9.616	192.0	0.545710645	0.661989935	0.010223156	0.105470413	0.032507006
2020-04-23T19:30:00	0.2229	9.578	191.0	0.544489710	0.660256524	0.010181172	0.105037279	0.032373510
2020-04-23T19:35:00	0.2236	9.540	191.0	0.546996762	0.663817208	0.010267475	0.105927646	0.032647929
2020-04-23T19:40:00	0.2235	9.504	192.0	0.546453982	0.663045879	0.010248759	0.105734558	0.032588418
2020-04-23T19:45:00	0.2239	9.464	191.0	0.547943747	0.665163519	0.010300170	0.106264952	0.032751890
2020-04-23T19:50:00	0.2238	9.425	191.0	0.547739825	0.664873544	0.010293125	0.106192271	0.032729489
2020-04-23T19:55:00	0.2240	9.384	191.0	0.548213248	0.665546798	0.010309484	0.106361045	0.032781507
2020-04-23T20:00:00	0.2239	9.343	191.0	0.548009341	0.665256800	0.010302436	0.106288336	0.032759097
2020-04-23T20:05:00	0.2248	9.303	189.0	0.550852258	0.669303093	0.010400915	0.107304327	0.033072236
2020-04-23T20:10:00	0.2252	9.264	190.0	0.552340137	0.671423419	0.010452645	0.107838010	0.033236722
2020-04-23T20:15:00	0.2253	9.224	190.0	0.552812934	0.672097566	0.010469110	0.108007878	0.033289077
2020-04-23T20:20:00	0.2254	9.184	190.0	0.552947498	0.672289471	0.010473799	0.108056249	0.033303985
2020-04-23T20:25:00	0.2252	9.144	190.0	0.552405648	0.671516818	0.010454925	0.107861539	0.033243974
2020-04-23T20:30:00	0.2248	9.100	190.0	0.550848693	0.669298015	0.010400792	0.107303050	0.033071842
2020-04-23T20:35:00	0.2249	9.057	190.0	0.551321693	0.669971873	0.010417222	0.107472562	0.033124087
2020-04-23T20:40:00	0.2243	9.018	190.0	0.549425741	0.667271919	0.010351441	0.106793912	0.032914921
2020-04-23T20:45:00	0.2243	8.978	189.0	0.549221906	0.666981819	0.010344382	0.106721079	0.032892473
2020-04-23T20:50:00	0.2249	8.936	189.0	0.551387223	0.670065244	0.010419500	0.107496057	0.033131329
2020-04-23T20:55:00	0.2245	8.892	189.0	0.549829812	0.667847093	0.010365443	0.106938365	0.032959443
2020-04-23T21:00:00	0.2243	8.849	189.0	0.549287475	0.667075134	0.010346652	0.106744505	0.032899693
2020-04-23T21:05:00	0.2233	8.809	189.0	0.546035241	0.662450983	0.010234332	0.105585718	0.032542544
2020-04-23T21:10:00	0.2239	8.767	189.0	0.547863883	0.665049949	0.010297410	0.106236484	0.032743116
2020-04-23T21:15:00	0.2242	8.730	188.0	0.549014491	0.666686662	0.010337201	0.106646994	0.032869639
2020-04-23T21:20:00	0.2237	8.693	188.0	0.547117279	0.663988504	0.010271633	0.105970543	0.032661151
2020-04-23T21:25:00	0.2243	8.656	188.0	0.549283909	0.667070059	0.010346529	0.106743231	0.032899300
2020-04-23T21:30:00	0.2236	8.619	187.0	0.547048100	0.663890176	0.010269246	0.105945918	0.032653561
2020-04-23T21:35:00	0.2236	8.584	187.0	0.546844125	0.663600275	0.010262210	0.105873329	0.032631188
2020-04-23T21:40:00	0.2234	8.549	187.0	0.546301321	0.662828980	0.010243498	0.105680283	0.032571690
2020-04-23T21:45:00	0.2240	8.512	187.0	0.548129822	0.665428145	0.010306600	0.106331294	0.032772337
2020-04-23T21:50:00	0.2236	8.474	187.0	0.546909739	0.663693525	0.010264473	0.105896677	0.032638384
2020-04-23T21:55:00	0.2234	8.438	187.0	0.546366946	0.662922216	0.010245760	0.105703613	0.032578880
2020-04-23T22:00:00	0.2236	8.401	186.0	0.546840556	0.663595203	0.010262087	0.105872059	0.032630797
2020-04-23T22:05:00	0.2238	8.366	186.0	0.547742663	0.664877580	0.010293223	0.106193283	0.032729801
2020-04-23T22:10:00	0.2242	8.333	186.0	0.548983123	0.666642027	0.010336115	0.106635792	0.032866187
2020-04-23T22:15:00	0.2253	8.300	186.0	0.552591484	0.671781784	0.010461396	0.107928298	0.033264550
2020-04-23T22:20:00	0.2249	8.268	186.0	0.551462714	0.670172814	0.010422124	0.107523127	0.033139672
2020-04-23T22:25:00	0.2255	8.233	186.0	0.553378199	0.672903802	0.010488812	0.108211145	0.033351726
2020-04-23T22:30:00	0.2251	8.199	186.0	0.551911415	0.670812276	0.010437726	0.107684096	0.033189284
2020-04-23T22:35:00	0.2256	8.165	185.0	0.553826652	0.673543617	0.010504457	0.108372545	0.033401471
2020-04-23T22:40:00	0.2260	8.130	185.0	0.555064943	0.675311160	0.010547716	0.108818843	0.033539024
2020-04-23T22:45:00	0.2263	8.097	185.0	0.555964917	0.676596581	0.010579213	0.109143791	0.033639176
2020-04-23T22:50:00	0.2267	8.066	185.0	0.557540202	0.678848140	0.010634459	0.109713753	0.033814844
2020-04-23T22:55:00	0.2272	8.035	185.0	0.559114775	0.681100722	0.010689826	0.110284962	0.033990896
2020-04-23T23:00:00	0.2269	8.003	185.0	0.557988120	0.679488724	0.010650194	0.109876091	0.033864878
2020-04-23T23:05:00	0.2269	7.971	184.0	0.558212057	0.679809046	0.010658066	0.109957298	0.033889907
2020-04-23T23:10:00	0.2263	7.939	184.0	0.556071614	0.676749019	0.010582950	0.109182348	0.033651060
2020-04-23T23:15:00	0.2262	7.909	184.0	0.555619890	0.676103705	0.010567132	0.109019156	0.033600763
2020-04-23T23:20:00	0.2263	7.877	184.0	0.556181867	0.676906546	0.010586813	0.109222197	0.033663342
2020-04-23T23:25:00	0.2263	7.846	184.0	0.556068055	0.676743934	0.010582826	0.109181062	0.033650664
2020-04-23T23:30:00	0.2265	7.815	184.0	0.556629959	0.677546879	0.010602519	0.109384230	0.033713282
2020-04-23T23:35:00	0.2263	7.783	183.0	0.556178308	0.676901461	0.010586688	0.109220911	0.033662946
2020-04-23T23:40:00	0.2261	7.752	183.0	0.555388666	0.675773453	0.010559040	0.108935671	0.033575032
2020-04-23T23:45:00	0.2259	7.721	184.0	0.554598846	0.674645703	0.010531423	0.108650746	0.033487215
2020-04-23T23:50:00	0.2258	7.688	183.0	0.554484982	0.674483164	0.010527444	0.108609701	0.033474565
2020-04-23T23:55:00	0.2258	7.656	183.0	0.554371115	0.674320631	0.010523466	0.108568663	0.033461916
2020-04-24T00:00:00	0.2252	7.625	183.0	0.552228307	0.671263990	0.010448752	0.107797852	0.033224345
2020-04-24T00:05:00	0.2246	7.594	183.0	0.550422624	0.668691175	0.010386002	0.107150472	0.033024816
2020-04-24T00:10:00	0.2249	7.564	183.0	0.551323801	0.669974876	0.010417296	0.107473318	0.033124320
2020-04-24T00:15:00	0.2249	7.539	182.0	0.551209830	0.669812491	0.010413335	0.107432461	0.033111728
2020-04-24T00:20:00	0.2243	7.513	182.0	0.549403618	0.667240431	0.010350675	0.106786006	0.032912484
2020-04-24T00:25:00	0.2238	7.485	182.0	0.547596465	0.664669709	0.010288174	0.106141191	0.032713746
2020-04-24T00:30:00	0.2240	7.461	182.0	0.548159741	0.665470696	0.010307634	0.106341963	0.032775626
2020-04-24T00:35:00	0.2243	7.436	182.0	0.549400052	0.667235355	0.010350551	0.106784731	0.032912091
2020-04-24T00:40:00	0.2247	7.410	182.0	0.550639920	0.669000645	0.010393544	0.107228273	0.033048795
2020-04-24T00:45:00	0.2243	7.384	182.0	0.549171980	0.666910770	0.010342653	0.106703244	0.032886976
2020-04-24T00:50:00	0.2240	7.360	181.0	0.548380745	0.665785039	0.010315275	0.106420789	0.032799921
2020-04-24T00:55:00	0.2241	7.337	181.0	0.548605302	0.666104476	0.010323041	0.106500913	0.032824616
2020-04-24T01:00:00	0.2242	7.312	181.0	0.548829844	0.666423933	0.010330810	0.106581062	0.032849318
2020-04-24T01:05:00	0.2240	7.286	181.0	0.548377178	0.665779965	0.010315152	0.106419517	0.032799529
2020-04-24T01:10:00	0.2246	7.262	181.0	0.550294364	0.668508525	0.010381552	0.107104563	0.033010666
2020-04-24T01:15:00	0.2247	7.239	181.0	0.550518797	0.668828139	0.010389340	0.107184902	0.033035428
2020-04-24T01:20:00	0.2245	7.217	181.0	0.550066351	0.668183857	0.010373644	0.107022973	0.032985520
2020-04-24T01:25:00	0.2253	7.193	181.0	0.552659096	0.671878194	0.010463751	0.107952592	0.033272037
2020-04-24T01:30:00	0.2254	7.172	181.0	0.552883377	0.672198025	0.010471564	0.108033198	0.033296881
2020-04-24T01:35:00	0.2256	7.148	182.0	0.553783916	0.673482637	0.010502965	0.108357158	0.033396729
2020-04-24T01:40:00	0.2259	7.126	182.0	0.554684222	0.674767583	0.010534406	0.108681527	0.033496702
2020-04-24T01:45:00	0.2261	7.104	182.0	0.555246350	0.675570208	0.010554061	0.108884303	0.033559200
2020-04-24T01:50:00	0.2257	7.083	182.0	0.554118442	0.673960006	0.010514642	0.108477626	0.033433858
2020-04-24T01:55:00	0.2256	7.064	181.0	0.553666464	0.673315055	0.010498867	0.108314878	0.033383697
2020-04-24T02:00:00	0.2262	7.043	180.0	0.555580735	0.676047778	0.010565762	0.109005017	0.033596405
2020-04-24T02:05:00	0.2256	7.024	180.0	0.553776793	0.673472474	0.010502717	0.108354594	0.033395938
2020-04-24T02:10:00	0.2258	7.007	180.0	0.554339068	0.674274889	0.010522347	0.108557114	0.033458357
2020-04-24T02:15:00	0.2255	6.989	180.0	0.553210866	0.672665108	0.010482978	0.108150952	0.033333174
2020-04-24T02:20:00	0.2245	6.969	180.0	0.550052090	0.668163552	0.010373149	0.107017871	0.032983947
2020-04-24T02:25:00	0.2241	6.950	180.0	0.548583902	0.666074031	0.010322301	0.106493276	0.032822262
2020-04-24T02:30:00	0.2246	6.933	180.0	0.550162534	0.668320807	0.010376980	0.107057386	0.032996126
2020-04-24T02:35:00	0.2247	6.916	180.0	0.550725393	0.669122386	0.010396511	0.107258884	0.033058230
2020-04-24T02:40:00	0.2249	6.897	179.0	0.551288161	0.669924096	0.010416057	0.107460541	0.033120382
2020-04-24T02:45:00	0.2243	6.878	179.0	0.549143451	0.666870172	0.010341665	0.106693053	0.032883835
2020-04-24T02:50:00	0.2243	6.859	179.0	0.549367958	0.667189679	0.010349440	0.106773263	0.032908557
2020-04-24T02:55:00	0.2245	6.841	179.0	0.549930947	0.667991075	0.010368949	0.106974536	0.032970591
2020-04-24T03:00:00	0.2242	6.824	179.0	0.548801312	0.666383338	0.010329823	0.106570876	0.032846179
2020-04-24T03:05:00	0.2238	6.807	179.0	0.547671310	0.664776125	0.010290758	0.106167858	0.032721965
2020-04-24T03:10:00	0.2242	6.789	179.0	0.548911796	0.666540536	0.010333646	0.106610322	0.032858337
2020-04-24T03:15:00	0.2241	6.771	179.0	0.548459140	0.665896553	0.010317986	0.106448758	0.032808541
2020-04-24T03:20:00	0.2239	6.754	179.0	0.548006426	0.665252654	0.010302336	0.106287297	0.032758777
2020-04-24T03:25:00	0.2236	6.739	179.0	0.546876165	0.663645809	0.010263315	0.105884730	0.032634702
2020-04-24T03:30:00	0.2245	6.723	179.0	0.549809799	0.667818603	0.010364749	0.106931209	0.032957237
2020-04-24T03:35:00	0.2239	6.707	179.0	0.548002858	0.665247581	0.010302212	0.106286025	0.032758385
2020-04-24T03:40:00	0.2242	6.692	179.0	0.548904663	0.666530387	0.010333399	0.106607775	0.032857552
2020-04-24T03:45:00	0.2245	6.679	178.0	0.549806234	0.667813527	0.010364626	0.106929934	0.032956844
2020-04-24T03:50:00	0.2243	6.664	178.0	0.549353695	0.667169378	0.010348946	0.106768166	0.032906986
2020-04-24T03:55:00	0.2250	6.650	178.0	0.551608673	0.670380808	0.010427198	0.107575476	0.033155806
2020-04-24T04:00:00	0.2255	6.636	178.0	0.553185932	0.672629542	0.010482109	0.108141984	0.033330410
2020-04-24T04:05:00	0.2256	6.623	178.0	0.553706483	0.673372154	0.010500264	0.108329283	0.033388137
2020-04-24T04:10:00	0.2252	6.610	178.0	0.552198002	0.671220789	0.010447698	0.107786970	0.033220991
2020-04-24T04:15:00	0.2251	6.599	178.0	0.552042221	0.670998724	0.010442277	0.107731044	0.033203754
2020-04-24T04:20:00	0.2244	6.588	178.0	0.549517609	0.667402677	0.010354624	0.106826746	0.032925041
2020-04-24T04:25:00	0.2254	6.579	178.0	0.553083589	0.672483568	0.010478541	0.108105180	0.033319066
2020-04-24T04:30:00	0.2250	6.575	178.0	0.551574838	0.670332590	0.010426021	0.107563339	0.033152066
2020-04-24T04:35:00	0.2249	6.569	178.0	0.551419029	0.670110565	0.010420605	0.107507462	0.033134844
2020-04-24T04:40:00	0.2255	6.567	178.0	0.553292714	0.672781858	0.010485832	0.108180392	0.033342248
2020-04-24T04:45:00	0.2248	6.567	178.0	0.551107391	0.669666545	0.010409776	0.107395744	0.033100411
2020-04-24T04:50:00	0.2247	6.568	178.0	0.550613166	0.668962540	0.010392615	0.107218692	0.033045842
2020-04-24T04:55:00	0.2246	6.571	178.0	0.550457314	0.668740577	0.010387206	0.107162890	0.033028644
2020-04-24T05:00:00	0.2242	6.576	178.0	0.548947421	0.666591227	0.010334879	0.106623043	0.032862257
2020-04-24T05:05:00	0.2247	6.580	178.0	0.550484031	0.668778626	0.010388133	0.107172455	0.033031592
2020-04-24T05:10:00	0.2241	6.586	178.0	0.548635561	0.666147523	0.010324088	0.106511712	0.032827944
2020-04-24T05:15:00	0.2237	6.592	178.0	0.547124876	0.663999302	0.010271895	0.105973247	0.032661984
2020-04-24T05:20:00	0.2233	6.597	178.0	0.545952416	0.662333332	0.010231480	0.105556290	0.032533474
2020-04-24T05:25:00	0.2239	6.601	178.0	0.547829052	0.665000420	0.010296207	0.106224070	0.032739290
2020-04-24T05:30:00	0.2237	6.605	178.0	0.547334360	0.664297080	0.010279125	0.106047833	0.032684972
2020-04-24T05:35:00	0.2239	6.608	178.0	0.547855789	0.665038439	0.010297131	0.106233600	0.032742227
2020-04-24T05:40:00	0.2234	6.615	178.0	0.546344764	0.662890701	0.010244995	0.105695727	0.032576449
2020-04-24T05:45:00	0.2239	6.619	178.0	0.547882526	0.665076460	0.010298054	0.106243129	0.032745164
2020-04-24T05:50:00	0.2235	6.625	178.0	0.546710322	0.663410125	0.010257596	0.105825726	0.032616517
2020-04-24T05:55:00	0.2231	6.632	178.0	0.545198798	0.661263096	0.010205545	0.105288723	0.032451007
2020-04-24T06:00:00	0.2229	6.643	178.0	0.544703730	0.660560289	0.010188525	0.105113139	0.032396890
2020-04-24T06:05:00	0.2232	6.657	178.0	0.545564476	0.661782349	0.010218125	0.105418512	0.032491009
2020-04-24T06:10:00	0.2229	6.673	178.0	0.544391488	0.660117128	0.010177799	0.105002474	0.032362782
2020-04-24T06:15:00	0.2228	6.688	178.0	0.544235357	0.659895562	0.010172437	0.104947160	0.032345734
2020-04-24T06:20:00	0.2222	6.704	178.0	0.542044321	0.656788375	0.010097347	0.104172472	0.032106967
2020-04-24T06:25:00	0.2216	6.720	178.0	0.540191345	0.654163668	0.010034063	0.103519575	0.031905738
2020-04-24T06:30:00	0.2219	6.738	178.0	0.541053213	0.655384139	0.010063473	0.103822997	0.031999256
2020-04-24T06:35:00	0.2213	6.757	179.0	0.539199706	0.652760182	0.010000278	0.103171022	0.031798311
2020-04-24T06:40:00	0.2208	6.778	179.0	0.537345206	0.650137626	0.009937250	0.102520771	0.031597897
2020-04-24T06:45:00	0.2209	6.801	179.0	0.537868141	0.650876855	0.009955002	0.102703920	0.031654346
2020-04-24T06:50:00	0.2204	6.825	179.0	0.536012926	0.648255306	0.009892094	0.102054909	0.031454314
2020-04-24T06:55:00	0.2200	6.854	179.0	0.534836695	0.646594664	0.009852313	0.101644502	0.031327823
2020-04-24T07:00:00	0.2199	6.888	179.0	0.534340143	0.645893953	0.009835544	0.101471497	0.031274501
2020-04-24T07:05:00	0.2190	6.926	179.0	0.531122008	0.641357549	0.009727212	0.100353854	0.030930032
2020-04-24T07:10:00	0.2185	6.974	179.0	0.529603653	0.639220147	0.009676309	0.099828700	0.030768175
2020-04-24T07:15:00	0.2188	7.021	180.0	0.530468166	0.640436900	0.009705276	0.100127539	0.030860280
2020-04-24T07:20:00	0.2185	7.068	180.0	0.529630531	0.639257968	0.009677209	0.099837984	0.030771036
2020-04-24T07:25:00	0.2181	7.118	181.0	0.528111519	0.637121485	0.009626417	0.099313966	0.030609529
2020-04-24T07:30:00	0.2188	7.175	181.0	0.530678661	0.640733252	0.009712335	0.100200370	0.030882727
2020-04-24T07:35:00	0.2178	7.233	181.0	0.527116405	0.635722879	0.009593215	0.098971429	0.030503956
2020-04-24T07:40:00	0.2187	7.304	186.0	0.530365150	0.640291879	0.009701822	0.100091906	0.030849297
2020-04-24T07:45:00	0.2181	7.374	179.0	0.528165299	0.637197094	0.009628213	0.099332494	0.030615239
2020-04-24T07:50:00	0.2180	7.456	179.0	0.528008433	0.636976563	0.009622974	0.099278454	0.030598584
2020-04-24T07:55:00	0.2181	7.530	180.0	0.528192189	0.637234899	0.009629111	0.099341759	0.030618095
2020-04-24T08:00:00	0.2176	7.605	180.0	0.526672542	0.635099302	0.009578424	0.098818836	0.030456925
2020-04-24T08:05:00	0.2181	7.688	179.0	0.528219078	0.637272704	0.009630009	0.099351025	0.030620951
2020-04-24T08:10:00	0.2180	7.768	180.0	0.527721572	0.636573329	0.009613399	0.099179668	0.030568137
2020-04-24T08:15:00	0.2184	7.846	179.0	0.529267637	0.638747388	0.009665063	0.099712669	0.030732413
2020-04-24T08:20:00	0.2184	7.924	181.0	0.529110821	0.638526787	0.009659816	0.099658542	0.030715730
2020-04-24T08:25:00	0.2176	8.004	189.0	0.526569413	0.634954439	0.009574989	0.098783398	0.030446003
2020-04-24T08:30:00	0.2175	8.085	190.0	0.526071668	0.634255397	0.009558420	0.098612452	0.030393316
2020-04-24T08:35:00	0.2159	8.176	192.0	0.520798338	0.626861778	0.009383759	0.096810507	0.029837939
2020-04-24T08:40:00	0.2169	8.280	196.0	0.524053049	0.631422469	0.009491369	0.097920701	0.030180111
2020-04-24T08:45:00	0.2163	8.381	191.0	0.522190384	0.628811342	0.009429708	0.097284561	0.029984047
2020-04-24T08:50:00	0.2162	8.480	190.0	0.521692006	0.628113181	0.009413244	0.097114708	0.029931696
2020-04-24T08:55:00	0.2167	8.533	187.0	0.523581866	0.630761688	0.009475752	0.097759585	0.030130454
2020-04-24T09:00:00	0.2160	8.625	193.0	0.521036371	0.627195032	0.009391608	0.096891486	0.029862897
2020-04-24T09:05:00	0.2160	8.676	185.0	0.521220499	0.627452850	0.009397682	0.096954149	0.029882210
2020-04-24T09:10:00	0.2167	8.739	186.0	0.523451718	0.630579201	0.009471441	0.097715106	0.030116745
2020-04-24T09:15:00	0.2167	8.795	194.0	0.523294637	0.630358969	0.009466238	0.097661436	0.030100203
2020-04-24T09:20:00	0.2182	8.823	186.0	0.528591032	0.637795715	0.009642436	0.099479235	0.030660466
2020-04-24T09:25:00	0.2173	8.909	189.0	0.525367524	0.633266825	0.009535004	0.098370874	0.030318859
2020-04-24T09:30:00	0.2166	8.984	193.0	0.523164477	0.630176497	0.009461929	0.097616975	0.030086500
2020-04-24T09:35:00	0.2174	9.052	194.0	0.525735308	0.633783119	0.009547230	0.098497016	0.030357737
2020-04-24T09:40:00	0.2177	9.120	195.0	0.526941545	0.635477201	0.009587387	0.098911301	0.030485424
2020-04-24T09:45:00	0.2175	9.201	194.0	0.526103052	0.634299467	0.009559464	0.098623226	0.030396636
2020-04-24T09:50:00	0.2177	9.300	194.0	0.526968444	0.635514993	0.009588283	0.098920549	0.030488274
2020-04-24T09:55:00	0.2172	9.400	195.0	0.525107357	0.632901670	0.009526359	0.098281691	0.030291372
2020-04-24T10:00:00	0.2178	9.486	192.0	0.527336057	0.636031525	0.009600539	0.099046986	0.030527243
2020-04-24T10:05:00	0.2180	9.557	190.0	0.527908738	0.636836417	0.009619646	0.099244116	0.030588001
2020-04-24T10:10:00	0.2168	9.629	189.0	0.523709847	0.630941149	0.009479992	0.097803333	0.030143937
2020-04-24T10:15:00	0.2166	9.704	197.0	0.523259982	0.630310385	0.009465091	0.097649597	0.030096554
2020-04-24T10:20:00	0.2163	9.779	197.0	0.522127699	0.628723518	0.009427637	0.097263189	0.029977460
2020-04-24T10:25:00	0.2177	9.845	200.0	0.526792689	0.635268079	0.009582427	0.098860129	0.030469652
2020-04-24T10:30:00	0.2164	9.905	200.0	0.522592435	0.629374708	0.009443000	0.097421694	0.030026312
2020-04-24T10:35:00	0.2164	9.981	204.0	0.522483619	0.629222218	0.009439402	0.097384569	0.030014870
2020-04-24T10:40:00	0.2171	10.065	201.0	0.524762290	0.632417439	0.009514900	0.098163468	0.030254934
2020-04-24T10:45:00	0.2164	10.121	198.0	0.522265975	0.628917252	0.009432207	0.097310337	0.029991991
2020-04-24T10:50:00	0.2172	10.194	197.0	0.525226670	0.633069124	0.009530323	0.098322586	0.030303976
2020-04-24T10:55:00	0.2177	10.269	203.0	0.526822098	0.635309393	0.009583406	0.098870238	0.030472767
2020-04-24T11:00:00	0.2185	10.316	195.0	0.529438407	0.638987642	0.009670778	0.099771630	0.030750585
2020-04-24T11:05:00	0.2176	10.328	196.0	0.526604729	0.635004046	0.009576165	0.098795533	0.030449743
2020-04-24T11:10:00	0.2172	10.348	202.0	0.525132648	0.632937165	0.009527199	0.098290359	0.030294043
2020-04-24T11:15:00	0.2173	10.383	200.0	0.525364821	0.633263032	0.009534914	0.098369948	0.030318573
2020-04-24T11:20:00	0.2181	10.406	202.0	0.528322853	0.637418612	0.009633475	0.099386787	0.030631973
2020-04-24T11:25:00	0.2179	10.446	203.0	0.527532929	0.636308195	0.009607105	0.099114732	0.030548123
2020-04-24T11:30:00	0.2177	10.533	201.0	0.526742825	0.635198030	0.009580765	0.098842990	0.030464369
2020-04-24T11:35:00	0.2165	10.634	201.0	0.522883665	0.629782870	0.009452635	0.097521088	0.030056946
2020-04-24T11:40:00	0.2168	10.691	198.0	0.523798152	0.631064982	0.009482919	0.097833525	0.030153243
2020-04-24T11:45:00	0.2178	10.744	208.0	0.527098267	0.635697394	0.009592610	0.098965191	0.030502033
2020-04-24T11:50:00	0.2174	10.799	203.0	0.525967247	0.634108770	0.009554945	0.098576609	0.030382268
2020-04-24T11:55:00	0.2163	10.858	204.0	0.522107217	0.628694821	0.009426960	0.097256206	0.029975307
2020-04-24T12:00:00	0.2168	10.945	205.0	0.523704091	0.630933077	0.009479802	0.097801366	0.030143331
2020-04-24T12:05:00	0.2163	11.015	197.0	0.522230769	0.628867925	0.009431043	0.097298332	0.029988291
2020-04-24T12:10:00	0.2166	11.067	196.0	0.523145430	0.630149795	0.009461298	0.097610470	0.030084495
2020-04-24T12:15:00	0.2168	11.148	210.0	0.523718809	0.630953716	0.009480289	0.097806397	0.030144882
2020-04-24T12:20:00	0.2183	11.226	214.0	0.529062764	0.638459187	0.009658209	0.099641957	0.030710619
2020-04-24T12:25:00	0.2176	11.289	208.0	0.526569567	0.634954656	0.009574994	0.098783451	0.030446019
2020-04-24T12:30:00	0.2184	11.336	198.0	0.529186067	0.638632637	0.009662333	0.099684512	0.030723735
2020-04-24T12:35:00	0.2168	11.376	204.0	0.523624746	0.630821814	0.009477173	0.097774242	0.030134971
2020-04-24T12:40:00	0.2176	11.408	204.0	0.526584272	0.634975312	0.009575484	0.098788504	0.030447576
2020-04-24T12:45:00	0.2177	11.435	203.0	0.526816347	0.635301315	0.009583215	0.098868261	0.030472158
2020-04-24T12:50:00	0.2172	11.444	198.0	0.525003446	0.632755843	0.009522908	0.098246083	0.030280397
2020-04-24T12:55:00	0.2168	11.454	207.0	0.523871738	0.631168179	0.009485358	0.097858688	0.030160998
2020-04-24T13:00:00	0.2162	11.457	198.0	0.521716047	0.628146855	0.009414038	0.097122898	0.029934220
2020-04-24T13:05:00	0.2163	11.443	198.0	0.521948451	0.628472401	0.009421714	0.097202089	0.029958628
2020-04-24T13:10:00	0.2153	11.450	198.0	0.518767065	0.624019793	0.009316911	0.096120851	0.029625380
2020-04-24T13:15:00	0.2155	11.465	198.0	0.519341175	0.624822700	0.009335780	0.096315522	0.029685379
2020-04-24T13:20:00	0.2150	11.482	198.0	0.517524327	0.622282709	0.009276131	0.095700137	0.029495712
2020-04-24T13:25:00	0.2144	11.502	199.0	0.515706517	0.619744048	0.009216643	0.095086404	0.029306553
2020-04-24T13:30:00	0.2145	11.528	199.0	0.515939328	0.620069030	0.009224251	0.095164895	0.029330745
2020-04-24T13:35:00	0.2145	11.560	199.0	0.515830300	0.619916832	0.009220687	0.095128133	0.029319414
2020-04-24T13:40:00	0.2149	11.600	199.0	0.517430095	0.622151043	0.009273043	0.095668273	0.029485891
2020-04-24T13:45:00	0.2136	11.640	199.0	0.512876255	0.615796769	0.009124403	0.094134780	0.029013253
2020-04-24T13:50:00	0.2147	11.692	199.0	0.516528659	0.620891878	0.009243524	0.095363732	0.029392028
2020-04-24T13:55:00	0.2144	11.733	200.0	0.515736021	0.619785230	0.009217607	0.095096349	0.029309618
2020-04-24T14:00:00	0.2132	11.761	200.0	0.511522215	0.613910623	0.009080438	0.093681203	0.028873457
2020-04-24T14:05:00	0.2156	11.786	200.0	0.519617945	0.625209865	0.009344883	0.096409440	0.029714326
2020-04-24T14:10:00	0.2147	11.778	200.0	0.516776162	0.621237535	0.009251624	0.095447300	0.029417785
2020-04-24T14:15:00	0.2156	11.775	200.0	0.519741587	0.625382845	0.009348952	0.096451412	0.029727262
2020-04-24T14:20:00	0.2139	11.760	200.0	0.513822931	0.617116348	0.009155204	0.094452549	0.029111193
2020-04-24T14:25:00	0.2132	11.749	200.0	0.511660919	0.614103766	0.009084937	0.093727616	0.028887762
2020-04-24T14:30:00	0.2136	11.749	200.0	0.512920547	0.615858492	0.009125843	0.094149636	0.029017832
2020-04-24T14:35:00	0.2138	11.728	200.0	0.513495636	0.616660047	0.009144549	0.094342626	0.029077314
2020-04-24T14:40:00	0.2130	11.713	199.0	0.510648773	0.612694723	0.009052134	0.093389198	0.028783458
2020-04-24T14:45:00	0.2130	11.697	200.0	0.510881927	0.613019232	0.009059685	0.093467101	0.028807468
2020-04-24T14:50:00	0.2130	11.678	199.0	0.510772739	0.612867255	0.009056148	0.093430614	0.028796223
2020-04-24T14:55:00	0.2144	11.658	200.0	0.515453168	0.619390446	0.009208367	0.095001025	0.029280238
2020-04-24T15:00:00	0.2141	11.641	200.0	0.514660281	0.618284140	0.009182491	0.094734068	0.029197960
2020-04-24T15:05:00	0.2144	11.623	199.0	0.515576960	0.619563217	0.009212410	0.095042738	0.029293095
2020-04-24T15:10:00	0.2134	11.608	199.0	0.512047461	0.614642102	0.009097480	0.093857020	0.028927645
2020-04-24T15:15:00	0.2133	11.590	199.0	0.511938310	0.614490075	0.009093937	0.093820470	0.028916380
2020-04-24T15:20:00	0.2132	11.562	199.0	0.511486899	0.613861448	0.009079293	0.093669388	0.028869815
2020-04-24T15:25:00	0.2119	11.531	199.0	0.506925147	0.607518057	0.008931966	0.092149446	0.028401354
2020-04-24T15:30:00	0.2126	11.502	199.0	0.509556656	0.611175279	0.009016806	0.093024728	0.028671125
2020-04-24T15:35:00	0.2123	11.472	199.0	0.508419841	0.609594669	0.008980106	0.092646098	0.028554427
2020-04-24T15:40:00	0.2124	11.438	199.0	0.508653147	0.609918969	0.008987632	0.092723741	0.028578357
2020-04-24T15:45:00	0.2129	11.409	199.0	0.510598673	0.612624999	0.009050512	0.093372463	0.028778300
2020-04-24T15:50:00	0.2140	11.380	198.0	0.514253504	0.617716767	0.009169230	0.094597257	0.029155793
2020-04-24T15:55:00	0.2131	11.348	198.0	0.511064973	0.613274029	0.009065615	0.093528283	0.028826325
2020-04-24T16:00:00	0.2133	11.318	198.0	0.511982614	0.614551781	0.009095375	0.093835305	0.028920952
2020-04-24T16:05:00	0.2123	11.291	198.0	0.508561735	0.609791900	0.008984683	0.092693316	0.028568980
2020-04-24T16:10:00	0.2127	11.266	199.0	0.509934787	0.611701257	0.009029030	0.093150840	0.028709994
2020-04-24T16:15:00	0.2124	11.235	198.0	0.508910413	0.610276625	0.008995934	0.092809395	0.028604757
2020-04-24T16:20:00	0.2113	11.205	198.0	0.505143570	0.605045225	0.008874755	0.091559210	0.028219438
2020-04-24T16:25:00	0.2118	11.172	204.0	0.506860747	0.607428624	0.008929895	0.092128077	0.028394768
2020-04-24T16:30:00	0.2105	11.137	205.0	0.502405346	0.601249550	0.008787181	0.090655727	0.027940975
2020-04-24T16:35:00	0.2106	11.102	197.0	0.502751582	0.601729163	0.008798230	0.090769721	0.027976110
2020-04-24T16:40:00	0.2099	11.066	197.0	0.500351772	0.598406886	0.008721788	0.089981077	0.027733042
2020-04-24T16:45:00	0.2097	11.032	197.0	0.499324521	0.596986185	0.008689168	0.089644543	0.027629319
2020-04-24T16:50:00	0.2092	10.999	197.0	0.497609699	0.594616452	0.008634850	0.089084154	0.027456601
2020-04-24T16:55:00	0.2088	10.966	197.0	0.496237835	0.592722359	0.008591517	0.088637100	0.027318815
2020-04-24T17:00:00	0.2080	10.932	196.0	0.493489369	0.588932177	0.008505029	0.087744815	0.027043804
2020-04-24T17:05:00	0.2081	10.900	196.0	0.493836512	0.589410558	0.008515929	0.087857267	0.027078463
2020-04-24T17:10:00	0.2066	10.867	196.0	0.488674977	0.582307641	0.008354578	0.086192644	0.026565410
2020-04-24T17:15:00	0.2060	10.834	196.0	0.486610017	0.579471973	0.008290456	0.085531111	0.026361519
2020-04-24T17:20:00	0.2061	10.800	196.0	0.486957863	0.579949408	0.008301241	0.085642370	0.026395810
2020-04-24T17:25:00	0.2061	10.766	195.0	0.486960947	0.579953642	0.008301336	0.085643357	0.026396114
2020-04-24T17:30:00	0.2058	10.733	196.0	0.485929646	0.578538414	0.008269383	0.085313700	0.026294511
2020-04-24T17:35:00	0.2065	10.700	195.0	0.488345807	0.581855387	0.008344340	0.086087021	0.026532856
2020-04-24T17:40:00	0.2064	10.666	195.0	0.488004271	0.581386233	0.008333724	0.085977498	0.026499100
2020-04-24T17:45:00	0.2060	10.633	195.0	0.486628527	0.579497377	0.008291030	0.085537029	0.026363343
2020-04-24T17:50:00	0.2062	10.599	195.0	0.487321095	0.580448063	0.008312509	0.085758627	0.026431642
2020-04-24T17:55:00	0.2057	10.565	195.0	0.485600210	0.578086517	0.008259189	0.085208528	0.026262096
2020-04-24T18:00:00	0.2057	10.530	195.0	0.485603296	0.578090750	0.008259284	0.085209513	0.026262399
2020-04-24T18:05:00	0.2058	10.496	194.0	0.485951245	0.578568045	0.008270052	0.085320598	0.026296637
2020-04-24T18:10:00	0.2059	10.460	194.0	0.486299159	0.579045389	0.008280825	0.085431743	0.026330893
2020-04-24T18:15:00	0.2059	10.426	194.0	0.486302244	0.579049622	0.008280920	0.085432729	0.026331197
2020-04-24T18:20:00	0.2066	10.389	194.0	0.488718140	0.582366951	0.008355921	0.086206499	0.026569680
2020-04-24T18:25:00	0.2060	10.355	194.0	0.486653207	0.579531248	0.008291795	0.085544921	0.026365775
2020-04-24T18:30:00	0.2061	10.321	194.0	0.487001048	0.580008688	0.008302580	0.085656188	0.026400069
2020-04-24T18:35:00	0.2071	10.287	194.0	0.490449773	0.584747574	0.008409886	0.086763241	0.026741273
2020-04-24T18:40:00	0.2071	10.255	194.0	0.490452854	0.584751813	0.008409982	0.086764233	0.026741579
2020-04-24T18:45:00	0.2073	10.223	193.0	0.491144643	0.585703548	0.008431589	0.086987151	0.026810285
2020-04-24T18:50:00	0.2074	10.190	193.0	0.491492025	0.586181606	0.008442450	0.087099197	0.026844818
2020-04-24T18:55:00	0.2089	10.158	193.0	0.496655444	0.593298780	0.008604697	0.088773069	0.027360722
2020-04-24T19:00:00	0.2089	10.125	193.0	0.496658520	0.593303026	0.008604794	0.088774071	0.027361031
2020-04-24T19:05:00	0.2088	10.093	193.0	0.496317817	0.592832747	0.008594041	0.088663133	0.027326839
2020-04-24T19:10:00	0.2095	10.062	193.0	0.498726614	0.596159662	0.008670210	0.089448953	0.027569036
2020-04-24T19:15:00	0.2095	10.029	192.0	0.498729688	0.596163911	0.008670307	0.089449958	0.027569346
2020-04-24T19:20:00	0.2098	9.997	192.0	0.499763264	0.597592869	0.008703093	0.089788201	0.027673596
2020-04-24T19:25:00	0.2100	9.965	193.0	0.500453165	0.598547160	0.008725011	0.090014329	0.027743290
2020-04-24T19:30:00	0.2105	9.932	192.0	0.502172701	0.600927341	0.008779761	0.090579171	0.027917380
2020-04-24T19:35:00	0.2109	9.901	192.0	0.503548320	0.602833186	0.008823683	0.091032310	0.028057042
2020-04-24T19:40:00	0.2107	9.870	192.0	0.502865185	0.601886549	0.008801857	0.090807140	0.027987642
2020-04-24T19:45:00	0.2107	9.838	192.0	0.502868256	0.601890803	0.008801955	0.090808151	0.027987954
2020-04-24T19:50:00	0.2102	9.807	192.0	0.501155214	0.599518649	0.008747343	0.090244729	0.027814302
2020-04-24T19:55:00	0.2102	9.776	192.0	0.501158286	0.599522900	0.008747441	0.090245738	0.027814613
2020-04-24T20:00:00	0.2096	9.746	191.0	0.499100887	0.596677009	0.008682074	0.089571362	0.027606764
2020-04-24T20:05:00	0.2092	9.715	190.0	0.497729624	0.594782101	0.008638643	0.089123287	0.027468663
2020-04-24T20:10:00	0.2090	9.682	191.0	0.497045323	0.593837051	0.008617010	0.088900103	0.027399875
2020-04-24T20:15:00	0.2094	9.651	191.0	0.498423010	0.595740082	0.008660591	0.089349719	0.027538451
2020-04-24T20:20:00	0.2093	9.618	191.0	0.498082484	0.595269563	0.008649809	0.089238481	0.027504166
2020-04-24T20:25:00	0.2095	9.586	191.0	0.498772725	0.596223393	0.008671671	0.089464029	0.027573683
2020-04-24T20:30:00	0.2090	9.553	191.0	0.497057625	0.593854038	0.008617399	0.088904113	0.027401111
2020-04-24T20:35:00	0.2095	9.522	190.0	0.498778873	0.596231891	0.008671866	0.089466040	0.027574302
2020-04-24T20:40:00	0.2098	9.490	190.0	0.499812434	0.597660868	0.008704654	0.089804308	0.027678560
2020-04-24T20:45:00	0.2094	9.457	190.0	0.498441456	0.595765572	0.008661175	0.089355746	0.027540309
2020-04-24T20:50:00	0.2099	9.423	190.0	0.500162006	0.598144373	0.008715757	0.089918861	0.027713866
2020-04-24T20:55:00	0.2106	9.392	190.0	0.502568090	0.601474975	0.008792374	0.090709300	0.027957487
2020-04-24T21:00:00	0.2106	9.359	190.0	0.502571161	0.601479229	0.008792472	0.090710311	0.027957799
2020-04-24T21:05:00	0.2098	9.328	190.0	0.499827799	0.597682119	0.008705142	0.089809342	0.027680111
2020-04-24T21:10:00	0.2106	9.297	190.0	0.502577302	0.601487735	0.008792668	0.090712333	0.027958422
2020-04-24T21:15:00	0.2113	9.266	190.0	0.504981686	0.604820656	0.008869565	0.091505671	0.028202937
2020-04-24T21:20:00	0.2111	9.237	189.0	0.504298838	0.603873629	0.008847692	0.091280012	0.028133386
2020-04-24T21:25:00	0.2113	9.207	189.0	0.504987823	0.604829169	0.008869762	0.091507701	0.028203562
2020-04-24T21:30:00	0.2113	9.178	189.0	0.504990891	0.604833425	0.008869860	0.091508715	0.028203875
2020-04-24T21:35:00	0.2114	9.149	189.0	0.505336865	0.605313395	0.008880953	0.091623157	0.028239147
2020-04-24T21:40:00	0.2108	9.120	189.0	0.503281984	0.602464073	0.008815171	0.090944489	0.028029975
2020-04-24T21:45:00	0.2104	9.091	189.0	0.501912400	0.600566880	0.008771462	0.090493553	0.027890992
2020-04-24T21:50:00	0.2106	9.062	189.0	0.502601867	0.601521763	0.008793452	0.090720421	0.027960915
2020-04-24T21:55:00	0.2103	9.034	189.0	0.501575293	0.600100140	0.008760720	0.090382732	0.027856836
2020-04-24T22:00:00	0.2103	9.007	189.0	0.501578365	0.600104392	0.008760818	0.090383741	0.027857147
2020-04-24T22:05:00	0.2104	8.981	188.0	0.502028014	0.600726974	0.008775147	0.090531576	0.027902711
2020-04-24T22:10:00	0.2102	8.953	188.0	0.501104625	0.599448631	0.008745733	0.090228117	0.027809182
2020-04-24T22:15:00	0.2099	8.925	188.0	0.500180987	0.598170629	0.008716360	0.089925083	0.027715784
2020-04-24T22:20:00	0.2096	8.897	187.0	0.499257098	0.596892967	0.008687029	0.089622476	0.027622518
2020-04-24T22:25:00	0.2097	8.871	187.0	0.499363582	0.597040190	0.008690407	0.089657328	0.027633259
2020-04-24T22:30:00	0.2104	8.847	187.0	0.501873563	0.600513104	0.008770224	0.090480782	0.027887056
2020-04-24T22:35:00	0.2101	8.827	187.0	0.500950133	0.599234818	0.008740817	0.090177394	0.027793549
2020-04-24T22:40:00	0.2094	8.812	187.0	0.498308909	0.595582413	0.008656977	0.089312438	0.027526961
2020-04-24T22:45:00	0.2088	8.797	187.0	0.496353291	0.592881708	0.008595160	0.088674681	0.027330398
2020-04-24T22:50:00	0.2088	8.784	187.0	0.496459865	0.593028808	0.008598523	0.088709378	0.027341092
2020-04-24T22:55:00	0.2086	8.771	187.0	0.495878825	0.592226934	0.008580195	0.088520293	0.027282814
2020-04-24T23:00:00	0.2077	8.757	187.0	0.492545381	0.587631798	0.008475424	0.087439386	0.026949668
2020-04-24T23:05:00	0.2068	8.745	187.0	0.489553165	0.583514632	0.008381922	0.086474748	0.026652357
2020-04-24T23:10:00	0.2064	8.729	187.0	0.488281796	0.581767450	0.008342350	0.086066489	0.026526528
2020-04-24T23:15:00	0.2051	8.714	187.0	0.483560817	0.575290951	0.008196220	0.084558887	0.026061870
2020-04-24T23:20:00	0.2052	8.699	187.0	0.484012853	0.575910308	0.008210156	0.084702669	0.026106185
2020-04-24T23:25:00	0.2052	8.684	187.0	0.484119815	0.576056886	0.008213456	0.084736709	0.026116677
2020-04-24T23:30:00	0.2052	8.664	187.0	0.483881735	0.575730640	0.008206113	0.084660951	0.026093327
2020-04-24T23:35:00	0.2051	8.640	186.0	0.483643639	0.575404417	0.008198772	0.084585221	0.026069987
2020-04-24T23:40:00	0.2052	8.618	186.0	0.484095664	0.576023789	0.008212711	0.084729022	0.026114307
2020-04-24T23:45:00	0.2050	8.596	186.0	0.483167395	0.574752038	0.008184100	0.084433847	0.026023332
2020-04-24T23:50:00	0.2043	8.573	186.0	0.480857697	0.571590680	0.008113125	0.083701614	0.025797650
2020-04-24T23:55:00	0.2035	8.551	186.0	0.478200807	0.567959372	0.008031860	0.082863216	0.025539248
2020-04-25T00:00:00	0.2036	8.526	186.0	0.478307952	0.568105704	0.008035129	0.082896946	0.025549644
2020-04-25T00:05:00	0.2029	8.501	186.0	0.475994937	0.564948772	0.007964697	0.082170312	0.025325688
2020-04-25T00:10:00	0.2028	8.476	186.0	0.475756285	0.564623289	0.007957448	0.082095520	0.025302636
2020-04-25T00:15:00	0.2025	8.450	186.0	0.474825727	0.563354591	0.007929211	0.081804208	0.025212851
2020-04-25T00:20:00	0.2026	8.425	186.0	0.474932980	0.563500781	0.007932463	0.081837757	0.025223192
2020-04-25T00:25:00	0.2038	8.399	186.0	0.479189181	0.569309576	0.008062043	0.083174616	0.025635224
2020-04-25T00:30:00	0.2032	8.375	186.0	0.477222521	0.566623716	0.008002039	0.082555564	0.025444426
2020-04-25T00:35:00	0.2021	8.350	185.0	0.473178463	0.561110442	0.007879348	0.081289785	0.025054301
2020-04-25T00:40:00	0.2014	8.324	185.0	0.470861934	0.557958175	0.007809490	0.080569069	0.024832170
2020-04-25T00:45:00	0.2013	8.307	185.0	0.470622920	0.557633173	0.007802300	0.080494887	0.024809306
2020-04-25T00:50:00	0.2007	8.294	185.0	0.468304637	0.554483227	0.007732727	0.079777122	0.024588084
2020-04-25T00:55:00	0.2005	8.282	185.0	0.467718750	0.553687834	0.007715193	0.079596227	0.024532330
2020-04-25T01:00:00	0.2006	8.271	185.0	0.468172909	0.554304371	0.007728783	0.079736433	0.024575543
2020-04-25T01:05:00	0.1996	8.255	185.0	0.464465052	0.549275607	0.007618176	0.078595314	0.024223839
2020-04-25T01:10:00	0.1994	8.238	185.0	0.463878497	0.548481094	0.007600750	0.078415540	0.024168431
2020-04-25T01:15:00	0.1987	8.218	185.0	0.461555570	0.545337266	0.007531934	0.077705570	0.023949611
2020-04-25T01:20:00	0.1989	8.197	184.0	0.462357839	0.546422566	0.007555666	0.077950413	0.024025074
2020-04-25T01:25:00	0.1988	8.177	184.0	0.461770917	0.545628535	0.007538300	0.077771254	0.023969856
2020-04-25T01:30:00	0.1988	8.156	184.0	0.461878585	0.545774176	0.007541484	0.077804105	0.023979981
2020-04-25T01:35:00	0.1992	8.133	184.0	0.463375161	0.547799520	0.007585813	0.078261432	0.024120934
2020-04-25T01:40:00	0.1996	8.107	184.0	0.464524051	0.549355540	0.007619930	0.078613408	0.024229416
2020-04-25T01:45:00	0.2002	8.078	184.0	0.466713148	0.552323276	0.007685144	0.079286214	0.024436781
2020-04-25T01:50:00	0.2006	8.050	184.0	0.468207579	0.554351443	0.007729821	0.079747141	0.024578843
2020-04-25T01:55:00	0.2010	8.020	184.0	0.469354824	0.555909631	0.007764206	0.080101878	0.024688177
2020-04-25T02:00:00	0.2011	7.989	184.0	0.469808763	0.556526458	0.007777832	0.080242454	0.024731504
2020-04-25T02:05:00	0.2011	7.957	183.0	0.469916174	0.556672437	0.007781057	0.080275735	0.024741761
2020-04-25T02:10:00	0.2012	7.922	183.0	0.470023583	0.556818420	0.007784284	0.080309022	0.024752021
2020-04-25T02:15:00	0.2018	7.888	183.0	0.472209115	0.559790862	0.007850079	0.080987817	0.024961232
2020-04-25T02:20:00	0.2027	7.856	183.0	0.475431148	0.564179927	0.007947576	0.081993677	0.025271248
2020-04-25T02:25:00	0.2022	7.825	183.0	0.473462301	0.561496975	0.007887929	0.081378311	0.025081586
2020-04-25T02:30:00	0.2025	7.798	183.0	0.474607764	0.563057524	0.007922604	0.081736048	0.025191844
2020-04-25T02:35:00	0.2038	7.769	183.0	0.479209923	0.569337920	0.008062677	0.083181157	0.025637240
2020-04-25T02:40:00	0.2035	7.739	182.0	0.478280315	0.568067958	0.008034286	0.082888245	0.025546962
2020-04-25T02:45:00	0.2044	7.717	183.0	0.481151258	0.571992249	0.008122129	0.083794505	0.025826280
2020-04-25T02:50:00	0.2042	7.702	183.0	0.480567593	0.571193906	0.008104232	0.083609867	0.025769373
2020-04-25T02:55:00	0.2042	7.688	182.0	0.480674664	0.571340338	0.008107514	0.083643723	0.025779808
2020-04-25T03:00:00	0.2041	7.678	182.0	0.480090917	0.570542104	0.008089630	0.083459223	0.025722943
2020-04-25T03:05:00	0.2043	7.665	182.0	0.480888795	0.571633216	0.008114078	0.083711452	0.025800682
2020-04-25T03:10:00	0.2043	7.651	182.0	0.480995856	0.571779662	0.008117362	0.083745325	0.025811122
2020-04-25T03:15:00	0.2041	7.637	182.0	0.480066738	0.570509046	0.008088890	0.083451585	0.025720589
2020-04-25T03:20:00	0.2046	7.623	182.0	0.481900553	0.573017542	0.008145133	0.084031835	0.025899428
2020-04-25T03:25:00	0.2043	7.611	182.0	0.480971682	0.571746595	0.008116620	0.083737676	0.025808765
2020-04-25T03:30:00	0.2037	7.596	182.0	0.478660487	0.568587237	0.008045891	0.083007972	0.025583863
2020-04-25T03:35:00	0.2030	7.580	182.0	0.476347713	0.565429984	0.007975419	0.082280932	0.025359782
2020-04-25T03:40:00	0.2033	7.568	182.0	0.477492198	0.566991831	0.008010254	0.082640316	0.025470548
2020-04-25T03:45:00	0.2029	7.552	182.0	0.476216298	0.565250713	0.007971424	0.082239716	0.025347079
2020-04-25T03:50:00	0.2043	7.536	181.0	0.480816272	0.571534019	0.008111855	0.083688510	0.025793612
2020-04-25T03:55:00	0.2030	7.522	182.0	0.476430711	0.565543215	0.007977943	0.082306969	0.025367807
2020-04-25T04:00:00	0.2029	7.508	182.0	0.476192090	0.565217691	0.007970689	0.082232124	0.025344739
2020-04-25T04:05:00	0.2022	7.496	182.0	0.473684730	0.561799924	0.007894657	0.081447716	0.025102977
2020-04-25T04:10:00	0.2018	7.487	181.0	0.472214410	0.559798067	0.007850239	0.080989465	0.024961740
2020-04-25T04:15:00	0.2021	7.478	181.0	0.473167367	0.561095334	0.007879013	0.081286326	0.025053235
2020-04-25T04:20:00	0.2013	7.467	182.0	0.470657761	0.557680546	0.007803348	0.080505699	0.024812638
2020-04-25T04:25:00	0.2010	7.456	181.0	0.469532663	0.556151264	0.007769542	0.080156937	0.024705146
2020-04-25T04:30:00	0.2006	7.446	182.0	0.468060533	0.554151802	0.007725420	0.079701729	0.024564847
2020-04-25T04:35:00	0.2008	7.436	182.0	0.468668070	0.554976757	0.007743614	0.079889435	0.024622700
2020-04-25T04:40:00	0.2009	7.426	181.0	0.469275498	0.555801857	0.007761826	0.080077325	0.024680609
2020-04-25T04:45:00	0.2005	7.414	181.0	0.467803257	0.553802543	0.007717721	0.079622306	0.024540368
2020-04-25T04:50:00	0.2002	7.401	181.0	0.466677206	0.552274519	0.007684071	0.079275145	0.024433370
2020-04-25T04:55:00	0.1996	7.394	182.0	0.464509822	0.549336262	0.007619507	0.078609044	0.024228071
2020-04-25T05:00:00	0.1998	7.387	181.0	0.465464959	0.550630652	0.007647926	0.078902244	0.024318438
2020-04-25T05:05:00	0.2008	7.381	181.0	0.468846848	0.555219569	0.007748972	0.079944712	0.024639737
2020-04-25T05:10:00	0.1994	7.373	181.0	0.463905191	0.548517246	0.007601543	0.078423717	0.024170951
2020-04-25T05:15:00	0.2003	7.371	182.0	0.466941874	0.552633577	0.007691974	0.079356675	0.024458498
2020-04-25T05:20:00	0.1998	7.367	182.0	0.465468613	0.550635606	0.007648035	0.078903367	0.024318784
2020-04-25T05:25:00	0.2000	7.360	181.0	0.466076617	0.551459946	0.007666153	0.079090289	0.024376395
2020-04-25T05:30:00	0.2003	7.354	181.0	0.467031310	0.552754921	0.007694645	0.079384234	0.024466992
2020-04-25T05:35:00	0.2004	7.353	181.0	0.467292298	0.553109059	0.007702443	0.079464685	0.024491788
2020-04-25T05:40:00	0.2002	7.348	181.0	0.466859742	0.552522147	0.007689521	0.079331370	0.024450699
2020-04-25T05:45:00	0.1997	7.346	181.0	0.465039478	0.550053957	0.007635260	0.078771567	0.024278162
2020-04-25T05:50:00	0.1999	7.342	181.0	0.465647560	0.550878195	0.007653365	0.078958359	0.024335733
2020-04-25T05:55:00	0.2004	7.337	181.0	0.467295950	0.553114015	0.007702552	0.079465811	0.024492135
2020-04-25T06:00:00	0.1997	7.332	181.0	0.465128964	0.550175234	0.007637923	0.078799042	0.024286630
2020-04-25T06:05:00	0.1999	7.327	181.0	0.465737030	0.550999493	0.007656031	0.078985861	0.024344210
2020-04-25T06:10:00	0.2004	7.325	180.0	0.467385376	0.553235372	0.007705225	0.079493386	0.024500634
2020-04-25T06:15:00	0.1998	7.322	180.0	0.465218448	0.550296515	0.007640586	0.078826521	0.024295099
2020-04-25T06:20:00	0.1991	7.322	180.0	0.463050126	0.547359494	0.007576174	0.078161995	0.024090286
2020-04-25T06:25:00	0.1992	7.320	181.0	0.463311422	0.547713226	0.007583922	0.078241928	0.024114922
2020-04-25T06:30:00	0.1996	7.318	181.0	0.464613944	0.549477332	0.007622602	0.078640981	0.024237914
2020-04-25T06:35:00	0.2005	7.315	181.0	0.467649989	0.553594503	0.007713137	0.079575010	0.024525791
2020-04-25T06:40:00	0.2000	7.314	180.0	0.466177037	0.551596125	0.007669148	0.079121183	0.024385917
2020-04-25T06:45:00	0.1996	7.310	180.0	0.464703442	0.549598595	0.007625263	0.078668436	0.024246376
2020-04-25T06:50:00	0.2002	7.303	180.0	0.466699125	0.552304253	0.007684725	0.079281895	0.024435450
2020-04-25T06:55:00	0.2001	7.305	181.0	0.466266493	0.551717442	0.007671816	0.079148708	0.024394401
2020-04-25T07:00:00	0.1998	7.309	180.0	0.465486885	0.550660376	0.007648579	0.078908982	0.024320515
2020-04-25T07:05:00	0.1999	7.313	180.0	0.465747993	0.551014356	0.007656358	0.078989231	0.024345248
2020-04-25T07:10:00	0.2001	7.312	180.0	0.466355947	0.551838762	0.007674484	0.079176238	0.024402885
2020-04-25T07:15:00	0.2002	7.307	180.0	0.466616987	0.552192831	0.007682274	0.079256600	0.024427654
2020-04-25T07:20:00	0.2013	7.307	180.0	0.470690601	0.557725198	0.007804335	0.080515890	0.024815779
2020-04-25T07:25:00	0.2021	7.307	180.0	0.473375075	0.561378183	0.007885292	0.081351101	0.025073199
2020-04-25T07:30:00	0.2025	7.306	180.0	0.474673719	0.563147411	0.007924603	0.081756670	0.025198200
2020-04-25T07:35:00	0.2027	7.307	180.0	0.475280068	0.563973940	0.007942991	0.081946376	0.025256669
2020-04-25T07:40:00	0.2034	7.313	180.0	0.477615224	0.567159783	0.008014003	0.082678993	0.025482469
2020-04-25T07:45:00	0.2037	7.315	180.0	0.478912241	0.568931174	0.008053580	0.083087304	0.025608314
2020-04-25T07:50:00	0.2039	7.318	180.0	0.479517832	0.569758713	0.008072092	0.083278289	0.025667178
2020-04-25T07:55:00	0.2040	7.318	181.0	0.479777857	0.570114128	0.008080047	0.083360360	0.025692473
2020-04-25T08:00:00	0.2045	7.326	180.0	0.481419371	0.572359069	0.008130356	0.083879388	0.025852442
2020-04-25T08:05:00	0.2046	7.330	181.0	0.482024513	0.573187206	0.008148942	0.084071130	0.025911539
2020-04-25T08:10:00	0.2042	7.336	180.0	0.480557813	0.571180531	0.008103932	0.083606775	0.025768420
2020-04-25T08:15:00	0.2048	7.346	180.0	0.482544159	0.573898575	0.008164918	0.084235954	0.025962339
2020-04-25T08:20:00	0.2055	7.352	180.0	0.484874315	0.577091092	0.008236748	0.084977014	0.026190741
2020-04-25T08:25:00	0.2061	7.365	181.0	0.487202872	0.580285752	0.008308841	0.085720780	0.026419977
2020-04-25T08:30:00	0.2051	7.391	181.0	0.483668575	0.575438581	0.008199541	0.084593151	0.026072431
2020-04-25T08:35:00	0.2042	7.409	181.0	0.480476011	0.571068664	0.008101426	0.083580914	0.025760449
2020-04-25T08:40:00	0.2024	7.448	181.0	0.474167443	0.562457519	0.007909266	0.081598441	0.025149432
2020-04-25T08:45:00	0.2037	7.492	181.0	0.478923161	0.568946093	0.008053914	0.083090746	0.025609375
2020-04-25T08:50:00	0.2054	7.532	182.0	0.484707284	0.576862100	0.008231589	0.084923786	0.026174336
2020-04-25T08:55:00	0.2049	7.569	181.0	0.482896605	0.574381178	0.008175763	0.084347836	0.025996822
2020-04-25T09:00:00	0.2043	7.603	182.0	0.480739601	0.571429152	0.008109504	0.083664259	0.025786137
2020-04-25T09:05:00	0.2045	7.626	182.0	0.481690162	0.572729609	0.008138670	0.083965162	0.025878879
2020-04-25T09:10:00	0.2048	7.639	182.0	0.482640455	0.574030423	0.008167880	0.084266516	0.025971759
2020-04-25T09:15:00	0.2057	7.640	182.0	0.485660366	0.578169028	0.008261050	0.085227728	0.026268013
2020-04-25T09:20:00	0.2051	7.640	182.0	0.483505119	0.575214648	0.008194503	0.084541179	0.026056412
2020-04-25T09:25:00	0.2050	7.658	182.0	0.483419753	0.575097706	0.008191873	0.084514043	0.026048049
2020-04-25T09:30:00	0.2049	7.684	182.0	0.482989256	0.574508061	0.008178615	0.084377260	0.026005891
2020-04-25T09:35:00	0.2049	7.716	182.0	0.482903877	0.574391136	0.008175986	0.084350146	0.025997534
2020-04-25T09:40:00	0.2045	7.733	182.0	0.481437557	0.572383952	0.008130915	0.083885148	0.025854217
2020-04-25T09:45:00	0.2039	7.746	182.0	0.479625131	0.569905369	0.008075375	0.083312151	0.025677614
2020-04-25T09:50:00	0.2028	7.762	182.0	0.475737050	0.564597057	0.007956863	0.082089493	0.025300779
2020-04-25T09:55:00	0.2028	7.791	182.0	0.475651488	0.564480377	0.007954265	0.082062687	0.025292517
2020-04-25T10:00:00	0.2025	7.820	182.0	0.474528052	0.562948893	0.007920189	0.081711128	0.025184163
2020-04-25T10:05:00	0.2022	7.827	182.0	0.473633769	0.561730512	0.007893115	0.081431812	0.025098075
2020-04-25T10:10:00	0.2026	7.838	182.0	0.475161737	0.563812618	0.007939401	0.081909337	0.025245253
2020-04-25T10:15:00	0.2033	7.850	182.0	0.477380524	0.566839386	0.008006852	0.082605214	0.025459729
2020-04-25T10:20:00	0.2032	7.877	182.0	0.477178545	0.566563694	0.008000700	0.082541747	0.025440168
2020-04-25T10:25:00	0.2038	7.905	182.0	0.479050479	0.569120050	0.008057804	0.083130881	0.025621745
2020-04-25T10:30:00	0.2044	7.922	183.0	0.481266719	0.572150211	0.008125671	0.083831054	0.025837545
2020-04-25T10:35:00	0.2043	7.925	183.0	0.481064972	0.571874209	0.008119482	0.083767196	0.025817863
2020-04-25T10:40:00	0.2046	7.950	183.0	0.481899145	0.573015615	0.008145090	0.084031389	0.025899290
2020-04-25T10:45:00	0.2058	7.964	183.0	0.486183087	0.578886126	0.008277230	0.085394654	0.026319462
2020-04-25T10:50:00	0.2065	7.970	183.0	0.488394673	0.581922520	0.008345860	0.086102697	0.026537687
2020-04-25T10:55:00	0.2073	7.991	183.0	0.491293498	0.585908386	0.008436242	0.087035154	0.026825080
2020-04-25T11:00:00	0.2064	8.017	183.0	0.487992014	0.581369398	0.008333344	0.085973569	0.026497889
2020-04-25T11:05:00	0.2072	8.051	183.0	0.490891182	0.585354801	0.008423669	0.086905444	0.026785102
2020-04-25T11:10:00	0.2074	8.075	184.0	0.491722944	0.586499444	0.008449673	0.087173717	0.026867786
2020-04-25T11:15:00	0.2079	8.110	183.0	0.493242786	0.588592430	0.008497291	0.087664982	0.027019199
2020-04-25T11:20:00	0.2077	8.147	184.0	0.492697605	0.587841444	0.008480194	0.087488603	0.026964837
2020-04-25T11:25:00	0.2087	8.162	184.0	0.495936618	0.592306680	0.008582017	0.088539091	0.027288608
2020-04-25T11:30:00	0.2086	8.169	184.0	0.495735740	0.592029509	0.008575685	0.088473760	0.027268472
2020-04-25T11:35:00	0.2091	8.176	184.0	0.497597476	0.594599571	0.008634463	0.089080166	0.027455372
2020-04-25T11:40:00	0.2094	8.186	184.0	0.498427602	0.595746428	0.008660736	0.089351219	0.027538913
2020-04-25T11:45:00	0.2092	8.200	184.0	0.497883250	0.594994318	0.008643503	0.089173431	0.027484117
2020-04-25T11:50:00	0.2098	8.226	184.0	0.499743814	0.597565970	0.008702475	0.089781830	0.027671632
2020-04-25T11:55:00	0.2103	8.230	184.0	0.501603364	0.600139002	0.008761614	0.090391957	0.027859679
2020-04-25T12:00:00	0.2099	8.229	184.0	0.500029408	0.597960962	0.008711545	0.089875401	0.027700472
2020-04-25T12:05:00	0.2107	8.228	184.0	0.502918352	0.601960210	0.008803555	0.090824654	0.027993041
2020-04-25T12:10:00	0.2112	8.227	184.0	0.504776174	0.604535596	0.008862980	0.091437727	0.028181996
2020-04-25T12:15:00	0.2118	8.231	184.0	0.506632986	0.607112361	0.008922571	0.092052523	0.028371482
2020-04-25T12:20:00	0.2120	8.238	184.0	0.507460918	0.608262209	0.008949207	0.092327317	0.028456176
2020-04-25T12:25:00	0.2125	8.244	184.0	0.508973767	0.610364708	0.008997979	0.092830493	0.028611260
2020-04-25T12:30:00	0.2118	8.245	184.0	0.506717772	0.607230088	0.008925297	0.092080645	0.028380149
2020-04-25T12:35:00	0.2119	8.253	184.0	0.507202999	0.607903947	0.008940905	0.092241669	0.028429778
2020-04-25T12:40:00	0.2121	8.273	184.0	0.507688158	0.608577900	0.008956524	0.092402810	0.028479443
2020-04-25T12:45:00	0.2115	8.311	184.0	0.505774177	0.605920215	0.008894984	0.091767913	0.028283762
2020-04-25T12:50:00	0.2107	8.345	184.0	0.502829857	0.601837605	0.008800729	0.090795503	0.027984056
2020-04-25T12:55:00	0.2111	8.378	184.0	0.504344756	0.603937300	0.008849162	0.091295178	0.028138060
2020-04-25T13:00:00	0.2106	8.413	184.0	0.502428901	0.601282176	0.008787933	0.090663480	0.027943365
2020-04-25T13:05:00	0.2111	8.470	185.0	0.504286989	0.603857199	0.008847313	0.091276099	0.028132180
2020-04-25T13:10:00	0.2088	8.535	185.0	0.496531938	0.593128292	0.008600798	0.088732846	0.027348325
2020-04-25T13:15:00	0.2088	8.601	186.0	0.496331096	0.592851074	0.008594460	0.088667456	0.027328171
2020-04-25T13:20:00	0.2086	8.644	186.0	0.495786409	0.592099418	0.008577282	0.088490237	0.027273550
2020-04-25T13:25:00	0.2091	8.650	186.0	0.497304438	0.594194857	0.008625198	0.088984580	0.027425912
2020-04-25T13:30:00	0.2090	8.670	186.0	0.497103641	0.593917577	0.008618853	0.088919113	0.027405734
2020-04-25T13:35:00	0.2093	8.715	186.0	0.498277503	0.595539017	0.008655983	0.089302178	0.027523799
2020-04-25T13:40:00	0.2092	8.765	186.0	0.497733127	0.594786940	0.008638754	0.089124430	0.027469015
2020-04-25T13:45:00	0.2086	8.814	186.0	0.495813554	0.592136872	0.008578138	0.088499065	0.027276271
2020-04-25T13:50:00	0.2076	8.845	186.0	0.492172258	0.587118005	0.008463736	0.087318808	0.026912505
2020-04-25T13:55:00	0.2082	8.848	186.0	0.494379952	0.590159643	0.008533006	0.088033450	0.027132764
2020-04-25T14:00:00	0.2072	8.854	187.0	0.490737122	0.585142851	0.008418857	0.086855800	0.026769801
2020-04-25T14:05:00	0.2080	8.881	187.0	0.493633951	0.589131407	0.008509568	0.087791642	0.027058237
2020-04-25T14:10:00	0.2083	8.914	187.0	0.494809009	0.590751227	0.008546501	0.088172674	0.027175674
2020-04-25T14:15:00	0.2088	8.969	187.0	0.496327474	0.592846075	0.008594345	0.088666277	0.027327808
2020-04-25T14:20:00	0.2086	9.023	187.0	0.495782787	0.592094421	0.008577168	0.088489059	0.027273187
2020-04-25T14:25:00	0.2085	9.077	188.0	0.495238012	0.591342884	0.008560005	0.088311989	0.027218613
2020-04-25T14:30:00	0.2085	9.126	188.0	0.495381001	0.591540120	0.008564508	0.088358448	0.027232932
2020-04-25T14:35:00	0.2078	9.156	188.0	0.493115999	0.588417760	0.008493313	0.087623947	0.027006552
2020-04-25T14:40:00	0.2076	9.153	188.0	0.492226605	0.587192835	0.008465438	0.087336366	0.026917916
2020-04-25T14:45:00	0.2076	9.131	187.0	0.492369721	0.587389899	0.008469921	0.087382610	0.026932169
2020-04-25T14:50:00	0.2076	9.094	187.0	0.492168632	0.587113013	0.008463623	0.087317637	0.026912144
2020-04-25T14:55:00	0.2075	9.085	188.0	0.491967532	0.586836143	0.008457327	0.087252684	0.026892125
2020-04-25T15:00:00	0.2075	9.082	187.0	0.491766420	0.586559289	0.008451033	0.087187751	0.026872112
2020-04-25T15:05:00	0.2071	9.060	187.0	0.490532310	0.584861105	0.008412462	0.086789822	0.026749466
2020-04-25T15:10:00	0.2067	9.064	187.0	0.489297751	0.583163525	0.008373965	0.086392653	0.026627055
2020-04-25T15:15:00	0.2071	9.080	187.0	0.490474308	0.584781322	0.008410652	0.086771142	0.026743709
2020-04-25T15:20:00	0.2063	9.122	188.0	0.487861401	0.581190006	0.008329286	0.085931704	0.026484986
2020-04-25T15:25:00	0.2066	9.160	188.0	0.488693905	0.582333650	0.008355167	0.086198719	0.026567282
2020-04-25T15:30:00	0.2069	9.161	188.0	0.489870670	0.583951165	0.008391819	0.086576854	0.026683827
2020-04-25T15:35:00	0.2071	9.157	188.0	0.490702682	0.585095471	0.008417782	0.086844703	0.026766381
2020-04-25T15:40:00	0.2068	9.146	188.0	0.489468186	0.583397808	0.008379274	0.086447430	0.026643937
2020-04-25T15:45:00	0.2071	9.141	188.0	0.490644683	0.585015685	0.008415971	0.086826019	0.026760622
2020-04-25T15:50:00	0.2068	9.135	188.0	0.489410165	0.583318050	0.008377467	0.086428780	0.026638189
2020-04-25T15:55:00	0.2062	9.132	187.0	0.487485889	0.580674333	0.008317624	0.085811397	0.026447906
2020-04-25T16:00:00	0.2058	9.133	188.0	0.485905391	0.578505139	0.008268632	0.085305954	0.026292124
2020-04-25T16:05:00	0.2054	9.143	188.0	0.484675322	0.576818285	0.008230602	0.084913603	0.026171197
2020-04-25T16:10:00	0.2049	9.146	188.0	0.483099690	0.574659307	0.008182015	0.084412338	0.026016702
2020-04-25T16:15:00	0.2057	9.146	188.0	0.485664350	0.578174493	0.008261173	0.085228999	0.026268405
2020-04-25T16:20:00	0.2056	9.132	188.0	0.485469036	0.577906606	0.008255131	0.085166669	0.026249194
2020-04-25T16:25:00	0.2044	9.121	188.0	0.481132209	0.571966190	0.008121544	0.083788476	0.025824422
2020-04-25T16:30:00	0.2046	9.111	188.0	0.481972544	0.573116075	0.008147345	0.084054655	0.025906461
2020-04-25T16:35:00	0.2043	9.094	187.0	0.480741049	0.571431131	0.008109549	0.083664717	0.025786278
2020-04-25T16:40:00	0.2036	9.075	187.0	0.478472442	0.568330371	0.008040150	0.082948741	0.025565607
2020-04-25T16:45:00	0.2032	9.056	187.0	0.477239672	0.566647127	0.008002562	0.082560953	0.025446087
2020-04-25T16:50:00	0.2025	9.035	187.0	0.474622734	0.563077926	0.007923058	0.081740729	0.025193286
2020-04-25T16:55:00	0.2032	9.021	187.0	0.477193817	0.566584538	0.008001165	0.082546545	0.025441647
2020-04-25T17:00:00	0.2033	9.009	187.0	0.477343755	0.566789196	0.008005732	0.082593659	0.025456168
2020-04-25T17:05:00	0.2032	8.997	187.0	0.477147961	0.566521951	0.007999769	0.082532139	0.025437207
2020-04-25T17:10:00	0.2038	8.986	187.0	0.479026096	0.569086734	0.008057059	0.083123194	0.025619376
2020-04-25T17:15:00	0.2042	8.965	187.0	0.480557813	0.571180531	0.008103932	0.083606775	0.025768420
2020-04-25T17:20:00	0.2042	8.947	187.0	0.480707602	0.571385387	0.008108523	0.083654139	0.025783018
2020-04-25T17:25:00	0.2046	8.927	187.0	0.481893318	0.573007641	0.008144911	0.084029542	0.025898721
2020-04-25T17:30:00	0.2046	8.915	187.0	0.482043048	0.573212576	0.008149511	0.084077006	0.025913350
2020-04-25T17:35:00	0.2047	8.904	187.0	0.482192772	0.573417519	0.008154113	0.084124481	0.025927982
2020-04-25T17:40:00	0.2043	8.893	187.0	0.480961356	0.571732469	0.008116304	0.083734409	0.025807758
2020-04-25T17:45:00	0.2050	8.882	187.0	0.483182523	0.574772758	0.008184566	0.084438654	0.026024813
2020-04-25T17:50:00	0.2055	8.870	187.0	0.485057317	0.577342004	0.008242403	0.085035351	0.026208721
2020-04-25T17:55:00	0.2052	8.856	187.0	0.484171986	0.576128382	0.008215065	0.084753314	0.026121794
2020-04-25T18:00:00	0.2052	8.843	187.0	0.483976586	0.575860611	0.008209038	0.084691129	0.026102628
2020-04-25T18:05:00	0.2055	8.829	187.0	0.485161160	0.577484394	0.008245612	0.085068462	0.026218926
2020-04-25T18:10:00	0.2050	8.816	187.0	0.483240650	0.574852373	0.008186356	0.084457122	0.026030505
2020-04-25T18:15:00	0.2049	8.800	187.0	0.483045197	0.574584674	0.008180337	0.084395028	0.026011367
2020-04-25T18:20:00	0.2051	8.783	186.0	0.483539984	0.575262411	0.008195578	0.084552263	0.026059829
2020-04-25T18:25:00	0.2050	8.767	187.0	0.483344548	0.574994688	0.008189556	0.084490140	0.026040682
2020-04-25T18:30:00	0.2048	8.752	186.0	0.482458769	0.573781666	0.008162292	0.084208859	0.025953988
2020-04-25T18:35:00	0.2053	8.738	186.0	0.484333964	0.576350376	0.008220063	0.084804880	0.026137688
2020-04-25T18:40:00	0.2062	8.720	186.0	0.487587120	0.580813338	0.008320767	0.085843822	0.026457900
2020-04-25T18:45:00	0.2065	8.704	186.0	0.488425858	0.581965363	0.008346830	0.086112702	0.026540771
2020-04-25T18:50:00	0.2072	8.688	186.0	0.490986500	0.585485947	0.008426647	0.086936167	0.026794571
2020-04-25T18:55:00	0.2078	8.674	186.0	0.492856993	0.588060977	0.008485191	0.087540150	0.026980725
2020-04-25T19:00:00	0.2084	8.660	186.0	0.495070398	0.591111703	0.008554727	0.088257545	0.027201833
2020-04-25T19:05:00	0.2087	8.647	186.0	0.495907293	0.592266216	0.008581093	0.088529553	0.027285668
2020-04-25T19:10:00	0.2084	8.633	186.0	0.495024783	0.591048793	0.008553291	0.088242731	0.027197267
2020-04-25T19:15:00	0.2077	8.621	186.0	0.492765703	0.587935237	0.008482329	0.087510625	0.026971624
2020-04-25T19:20:00	0.2075	8.606	186.0	0.491882379	0.586718916	0.008454662	0.087225187	0.026883650
2020-04-25T19:25:00	0.2076	8.593	186.0	0.492375880	0.587398381	0.008470114	0.087384600	0.026932782
2020-04-25T19:30:00	0.2077	8.581	185.0	0.492525149	0.587603936	0.008474790	0.087432846	0.026947652
2020-04-25T19:35:00	0.2079	8.569	186.0	0.493362670	0.588757602	0.008501052	0.087703790	0.027031160
2020-04-25T19:40:00	0.2077	8.557	186.0	0.492479500	0.587541071	0.008473360	0.087418090	0.026943104
2020-04-25T19:45:00	0.2077	8.544	186.0	0.492628764	0.587746632	0.008478037	0.087466344	0.026957977
2020-04-25T19:50:00	0.2078	8.529	186.0	0.493122157	0.588426244	0.008493506	0.087625940	0.027007166
2020-04-25T19:55:00	0.2075	8.514	186.0	0.491894699	0.586735877	0.008455047	0.087229166	0.026884876
2020-04-25T20:00:00	0.2073	8.499	185.0	0.491355463	0.585993661	0.008438179	0.087055141	0.026831240
2020-04-25T20:05:00	0.2076	8.484	184.0	0.492193272	0.587146939	0.008464394	0.087325597	0.026914597
2020-04-25T20:10:00	0.2077	8.469	186.0	0.492686729	0.587826465	0.008479854	0.087485086	0.026963753
2020-04-25T20:15:00	0.2078	8.454	186.0	0.492835984	0.588032038	0.008484532	0.087533355	0.026978630
2020-04-25T20:20:00	0.2075	8.438	185.0	0.491952677	0.586815692	0.008456862	0.087247887	0.026890646
2020-04-25T20:25:00	0.2070	8.423	185.0	0.490036004	0.584178513	0.008396975	0.086630047	0.026700222
2020-04-25T20:30:00	0.2071	8.409	185.0	0.490529774	0.584857617	0.008412383	0.086789005	0.026749214
2020-04-25T20:35:00	0.2063	8.396	185.0	0.487923078	0.581274715	0.008331202	0.085951472	0.026491078
2020-04-25T20:40:00	0.2060	8.383	185.0	0.486693740	0.579586879	0.008293051	0.085557883	0.026369771
2020-04-25T20:45:00	0.2060	8.369	185.0	0.486843259	0.579792098	0.008297687	0.085605706	0.026384510
2020-04-25T20:50:00	0.2058	8.355	185.0	0.485958393	0.578577851	0.008270273	0.085322880	0.026297340
2020-04-25T20:55:00	0.2057	8.341	185.0	0.485763096	0.578309942	0.008264228	0.085260521	0.026278121
2020-04-25T21:00:00	0.2060	8.328	185.0	0.486602285	0.579461362	0.008290217	0.085528638	0.026360757
2020-04-25T21:05:00	0.2059	8.314	184.0	0.486407025	0.579193403	0.008284166	0.085466216	0.026341518
2020-04-25T21:10:00	0.2059	8.302	185.0	0.486556556	0.579398605	0.008288800	0.085514017	0.026356251
2020-04-25T21:15:00	0.2060	8.289	185.0	0.486706080	0.579603815	0.008293434	0.085561829	0.026370987
2020-04-25T21:20:00	0.2062	8.277	185.0	0.487545036	0.580755548	0.008319461	0.085830341	0.026453745
2020-04-25T21:25:00	0.2060	8.265	184.0	0.486660353	0.579541056	0.008292017	0.085547206	0.026366480
2020-04-25T21:30:00	0.2068	8.253	184.0	0.489566821	0.583533406	0.008382348	0.086479138	0.026653710
2020-04-25T21:35:00	0.2062	8.242	184.0	0.487304111	0.580424745	0.008311982	0.085753189	0.026429966
2020-04-25T21:40:00	0.2062	8.230	184.0	0.487453603	0.580630000	0.008316622	0.085801057	0.026444719
2020-04-25T21:45:00	0.2062	8.217	184.0	0.487603087	0.580835264	0.008321263	0.085848936	0.026459476
2020-04-25T21:50:00	0.2054	8.206	184.0	0.484649182	0.576782451	0.008229795	0.084905275	0.026168630
2020-04-25T21:55:00	0.2056	8.191	184.0	0.485488646	0.577933501	0.008255738	0.085172926	0.026251123
2020-04-25T22:00:00	0.2063	8.178	184.0	0.487706852	0.580977758	0.008324485	0.085882179	0.026469722
2020-04-25T22:05:00	0.2065	8.166	183.0	0.488545561	0.582129823	0.008350552	0.086151110	0.026552609
2020-04-25T22:10:00	0.2061	8.152	184.0	0.486971724	0.579968435	0.008301671	0.085646805	0.026397177
2020-04-25T22:15:00	0.2065	8.140	184.0	0.488499858	0.582067031	0.008349131	0.086136444	0.026548089
2020-04-25T22:20:00	0.2059	8.127	184.0	0.486581236	0.579432475	0.008289564	0.085521908	0.026358683
2020-04-25T22:25:00	0.2065	8.113	184.0	0.488454155	0.582004239	0.008347710	0.086121780	0.026543569
2020-04-25T22:30:00	0.2070	8.099	184.0	0.490326041	0.584577391	0.008406024	0.086723401	0.026728994
2020-04-25T22:35:00	0.2066	8.087	184.0	0.488753030	0.582414893	0.008357007	0.086217699	0.026573132
2020-04-25T22:40:00	0.2068	8.074	184.0	0.489591480	0.583567306	0.008383116	0.086487066	0.026656154
2020-04-25T22:45:00	0.2068	8.061	183.0	0.489396392	0.583299116	0.008377038	0.086424353	0.026636825
2020-04-25T22:50:00	0.2065	8.048	184.0	0.488512191	0.582083975	0.008349514	0.086140402	0.026549308
2020-04-25T22:55:00	0.2061	8.034	183.0	0.486938339	0.579922608	0.008300635	0.085636123	0.026393885
2020-04-25T23:00:00	0.2060	8.022	183.0	0.486743099	0.579654623	0.008294582	0.085573669	0.026374636
2020-04-25T23:05:00	0.2063	8.009	183.0	0.487926708	0.581279701	0.008331314	0.085952635	0.026491437
2020-04-25T23:10:00	0.2061	7.997	183.0	0.487042124	0.580065075	0.008303854	0.085669332	0.026404120
2020-04-25T23:15:00	0.2061	7.986	183.0	0.487191627	0.580270314	0.008308492	0.085717180	0.026418867
2020-04-25T23:20:00	0.2060	7.975	183.0	0.486651645	0.579529104	0.008291747	0.085544421	0.026365622
2020-04-25T23:25:00	0.2058	7.965	183.0	0.486111576	0.578788010	0.008275015	0.085371808	0.026312420
2020-04-25T23:30:00	0.2057	7.955	183.0	0.485571421	0.578047030	0.008258298	0.085199340	0.026259264
2020-04-25T23:35:00	0.2060	7.944	183.0	0.486755438	0.579671559	0.008294964	0.085577615	0.026375852
2020-04-25T23:40:00	0.2056	7.933	183.0	0.485525678	0.577984292	0.008256883	0.085184743	0.026254765
2020-04-25T23:45:00	0.2058	7.921	183.0	0.486020104	0.578662514	0.008272183	0.085342590	0.026303415
2020-04-25T23:50:00	0.2049	7.909	183.0	0.483064821	0.574611550	0.008180941	0.084401261	0.026013288
2020-04-25T23:55:00	0.2053	7.894	183.0	0.484249713	0.576234906	0.008217464	0.084778056	0.026129420
2020-04-26T00:00:00	0.2049	7.880	183.0	0.483019044	0.574548857	0.008179532	0.084386721	0.026008807
2020-04-26T00:05:00	0.2052	7.869	183.0	0.483858911	0.575699366	0.008205409	0.084653690	0.026091089
2020-04-26T00:10:00	0.2052	7.855	183.0	0.484008555	0.575904417	0.008210024	0.084701301	0.026105764
2020-04-26T00:15:00	0.2049	7.841	182.0	0.483122949	0.574691163	0.008182731	0.084419727	0.026018980
2020-04-26T00:20:00	0.2056	7.828	182.0	0.485342702	0.577733345	0.008251225	0.085126364	0.026236772
2020-04-26T00:25:00	0.2049	7.815	182.0	0.483077173	0.574628468	0.008181321	0.084405185	0.026014498
2020-04-26T00:30:00	0.2048	7.801	182.0	0.482536535	0.573888137	0.008164684	0.084233535	0.025961594
2020-04-26T00:35:00	0.2044	7.784	182.0	0.481305245	0.572202919	0.008126854	0.083843251	0.025841304
2020-04-26T00:40:00	0.2042	7.766	182.0	0.480418933	0.570990609	0.008099677	0.083562871	0.025754888
2020-04-26T00:45:00	0.2043	7.746	182.0	0.480914104	0.571667834	0.008114855	0.083719459	0.025803150
2020-04-26T00:50:00	0.2041	7.725	182.0	0.480373120	0.570927964	0.008098273	0.083548391	0.025750426
2020-04-26T00:55:00	0.2043	7.705	182.0	0.480868298	0.571605179	0.008113450	0.083704967	0.025798684
2020-04-26T01:00:00	0.2045	7.683	182.0	0.481708698	0.572754977	0.008139240	0.083971036	0.025880689
2020-04-26T01:05:00	0.2051	7.658	182.0	0.483584307	0.575323132	0.008196944	0.084566356	0.026064172
2020-04-26T01:10:00	0.2051	7.633	181.0	0.483733963	0.575528167	0.008201556	0.084613946	0.026078840
2020-04-26T01:15:00	0.2048	7.604	182.0	0.482503107	0.573842368	0.008163655	0.084222927	0.025958324
2020-04-26T01:20:00	0.2051	7.577	181.0	0.483688195	0.575465462	0.008200146	0.084599390	0.026074354
2020-04-26T01:25:00	0.2057	7.549	181.0	0.485562710	0.578035083	0.008258029	0.085196560	0.026258407
2020-04-26T01:30:00	0.2056	7.519	181.0	0.485367391	0.577767204	0.008251988	0.085134240	0.026239199
2020-04-26T01:35:00	0.2055	7.490	181.0	0.485172060	0.577499340	0.008245949	0.085071938	0.026219997
2020-04-26T01:40:00	0.2057	7.459	181.0	0.485666537	0.578177493	0.008261241	0.085229698	0.026268621
2020-04-26T01:45:00	0.2060	7.431	181.0	0.486850522	0.579802067	0.008297912	0.085608029	0.026385226
2020-04-26T01:50:00	0.2059	7.404	181.0	0.486310485	0.579060930	0.008281176	0.085435362	0.026332008
2020-04-26T01:55:00	0.2061	7.380	181.0	0.487149538	0.580212531	0.008307186	0.085703708	0.026414715
2020-04-26T02:00:00	0.2058	7.358	181.0	0.485919920	0.578525072	0.008269082	0.085310594	0.026293554
2020-04-26T02:05:00	0.2061	7.337	180.0	0.487103816	0.580149764	0.008305768	0.085689075	0.026410205
2020-04-26T02:10:00	0.2058	7.318	180.0	0.486219018	0.578935426	0.008278343	0.085406134	0.026323000
2020-04-26T02:15:00	0.2053	7.299	180.0	0.484299107	0.576302603	0.008218988	0.084793782	0.026134267
2020-04-26T02:20:00	0.2052	7.280	180.0	0.484103715	0.576034821	0.008212959	0.084731584	0.026115097
2020-04-26T02:25:00	0.2054	7.259	180.0	0.484598348	0.576712766	0.008228225	0.084889080	0.026163639
2020-04-26T02:30:00	0.2058	7.240	180.0	0.486127550	0.578809926	0.008275510	0.085376911	0.026313993
2020-04-26T02:35:00	0.2054	7.217	180.0	0.484552592	0.576650044	0.008226812	0.084874505	0.026159147
2020-04-26T02:40:00	0.2056	7.194	180.0	0.485392080	0.577801063	0.008252752	0.085142116	0.026241627
2020-04-26T02:45:00	0.2055	7.173	179.0	0.485196750	0.577533197	0.008246712	0.085079812	0.026222424
2020-04-26T02:50:00	0.2057	7.150	179.0	0.485691224	0.578211355	0.008262005	0.085237578	0.026271049
2020-04-26T02:55:00	0.2053	7.125	179.0	0.484461078	0.576524605	0.008223987	0.084845358	0.026150163
2020-04-26T03:00:00	0.2054	7.099	179.0	0.484610695	0.576729691	0.008228606	0.084893014	0.026164851
2020-04-26T03:05:00	0.2052	7.072	179.0	0.484070301	0.575989032	0.008211928	0.084720950	0.026111820
2020-04-26T03:10:00	0.2053	7.048	179.0	0.484219935	0.576194096	0.008216545	0.084768577	0.026126499
2020-04-26T03:15:00	0.2045	7.024	179.0	0.481608387	0.572617706	0.008136159	0.083939255	0.025870894
2020-04-26T03:20:00	0.2049	6.999	179.0	0.483138937	0.574713060	0.008183223	0.084424806	0.026020545
2020-04-26T03:25:00	0.2045	6.982	179.0	0.481562591	0.572555038	0.008134753	0.083924748	0.025866423
2020-04-26T03:30:00	0.2039	6.964	178.0	0.479640040	0.569925747	0.008075831	0.083316857	0.025679064
2020-04-26T03:35:00	0.2042	6.949	178.0	0.480480745	0.571075137	0.008101571	0.083582410	0.025760911
2020-04-26T03:40:00	0.2045	6.936	178.0	0.481666541	0.572697285	0.008137945	0.083957679	0.025876572
2020-04-26T03:45:00	0.2039	6.923	178.0	0.479398554	0.569595697	0.008068445	0.083240655	0.025655578
2020-04-26T03:50:00	0.2047	6.909	178.0	0.482311247	0.573579704	0.008157755	0.084162058	0.025939564
2020-04-26T03:55:00	0.2049	6.900	178.0	0.482806142	0.574257298	0.008172978	0.084319112	0.025987969
2020-04-26T04:00:00	0.2053	6.891	178.0	0.484336152	0.576353376	0.008220131	0.084805577	0.026137902
2020-04-26T04:05:00	0.2057	6.884	178.0	0.485667084	0.578178243	0.008261258	0.085229872	0.026268674
2020-04-26T04:10:00	0.2054	6.877	178.0	0.484583461	0.576692358	0.008227765	0.084884338	0.026162177
2020-04-26T04:15:00	0.2050	6.867	178.0	0.483154378	0.574734209	0.008183699	0.084429712	0.026022057
2020-04-26T04:20:00	0.2054	6.857	178.0	0.484830751	0.577031365	0.008235403	0.084963130	0.026186462
2020-04-26T04:25:00	0.2057	6.851	178.0	0.485816648	0.578383401	0.008265886	0.085277618	0.026283390
2020-04-26T04:30:00	0.2064	6.843	178.0	0.488181015	0.581629007	0.008339217	0.086034168	0.026516566
2020-04-26T04:35:00	0.2064	6.835	178.0	0.488132224	0.581561986	0.008337701	0.086018522	0.026511744
2020-04-26T04:40:00	0.2074	6.830	178.0	0.491527978	0.586231089	0.008443574	0.087110797	0.026848394
2020-04-26T04:45:00	0.2070	6.826	178.0	0.490101816	0.584269016	0.008399028	0.086651225	0.026706749
2020-04-26T04:50:00	0.2066	6.824	178.0	0.488675055	0.582307749	0.008354581	0.086192669	0.026565418
2020-04-26T04:55:00	0.2064	6.824	178.0	0.488281679	0.581767289	0.008342347	0.086066451	0.026526516
2020-04-26T05:00:00	0.2061	6.827	178.0	0.487198890	0.580280284	0.008308717	0.085719505	0.026419584
2020-04-26T05:05:00	0.2064	6.832	178.0	0.488184099	0.581633243	0.008339313	0.086035156	0.026516871
2020-04-26T05:10:00	0.2071	6.839	178.0	0.490546820	0.584881064	0.008412915	0.086794495	0.026750906
2020-04-26T05:15:00	0.2068	6.847	178.0	0.489464752	0.583393088	0.008379167	0.086446326	0.026643597
2020-04-26T05:20:00	0.2063	6.854	178.0	0.487693072	0.580958833	0.008324057	0.085877764	0.026468361
2020-04-26T05:25:00	0.2067	6.862	178.0	0.489022689	0.582785467	0.008365400	0.086304286	0.026599819
2020-04-26T05:30:00	0.2069	6.872	178.0	0.490007370	0.584139137	0.008396082	0.086620833	0.026697382
2020-04-26T05:35:00	0.2074	6.885	178.0	0.491680364	0.586440834	0.008448341	0.087159974	0.026863550
2020-04-26T05:40:00	0.2078	6.897	178.0	0.493008424	0.588269567	0.008489939	0.087589138	0.026995823
2020-04-26T05:45:00	0.2078	6.909	178.0	0.492959702	0.588202452	0.008488411	0.087573375	0.026990965
2020-04-26T05:50:00	0.2081	6.925	178.0	0.493943243	0.589557659	0.008519281	0.087891855	0.027089123
2020-04-26T05:55:00	0.2082	6.943	178.0	0.494238558	0.589964720	0.008528561	0.087987593	0.027118631
2020-04-26T06:00:00	0.2082	6.963	179.0	0.494189854	0.589897582	0.008527030	0.087971800	0.027113763
2020-04-26T06:05:00	0.2083	6.984	178.0	0.494829111	0.590778947	0.008547133	0.088179199	0.027177686
2020-04-26T06:10:00	0.2085	7.005	178.0	0.495468248	0.591660474	0.008567256	0.088386802	0.027241671
2020-04-26T06:15:00	0.2086	7.026	178.0	0.495763431	0.592067715	0.008576558	0.088482765	0.027271247
2020-04-26T06:20:00	0.2085	7.049	179.0	0.495370874	0.591526150	0.008564189	0.088355158	0.027231918
2020-04-26T06:25:00	0.2082	7.074	179.0	0.494290340	0.590036103	0.008530189	0.088004385	0.027123806
2020-04-26T06:30:00	0.2083	7.104	179.0	0.494585624	0.590443205	0.008539474	0.088100174	0.027153329
2020-04-26T06:35:00	0.2081	7.134	179.0	0.493848904	0.589427637	0.008516318	0.087861282	0.027079700
2020-04-26T06:40:00	0.2087	7.167	179.0	0.496207695	0.592680763	0.008590566	0.088627291	0.027315792
2020-04-26T06:45:00	0.2084	7.201	179.0	0.495127426	0.591190356	0.008556523	0.088276067	0.027207541
2020-04-26T06:50:00	0.2084	7.240	179.0	0.495078735	0.591123200	0.008554990	0.088260252	0.027202667
2020-04-26T06:55:00	0.2082	7.284	179.0	0.494342121	0.590107487	0.008531817	0.088021179	0.027128982
2020-04-26T07:00:00	0.2078	7.329	180.0	0.492917138	0.588143821	0.008487077	0.087559606	0.026986721
2020-04-26T07:05:00	0.2084	7.377	180.0	0.494932655	0.590921738	0.008550392	0.088212816	0.027188047
2020-04-26T07:10:00	0.2082	7.425	180.0	0.494196010	0.589906068	0.008527224	0.087973796	0.027114378
2020-04-26T07:15:00	0.2091	7.475	181.0	0.497585721	0.594583334	0.008634091	0.089076330	0.027454190
2020-04-26T07:20:00	0.2094	7.518	181.0	0.498567928	0.595940349	0.008665181	0.089397079	0.027553048
2020-04-26T07:25:00	0.2094	7.560	181.0	0.498519286	0.595873126	0.008663640	0.089381181	0.027548148
2020-04-26T07:30:00	0.2098	7.599	181.0	0.499844681	0.597705467	0.008705678	0.089814872	0.027681816
2020-04-26T07:35:00	0.2103	7.635	180.0	0.501512852	0.600013697	0.008758731	0.090362212	0.027850511
2020-04-26T07:40:00	0.2109	7.669	181.0	0.503523296	0.602798503	0.008822883	0.091024057	0.028054498
2020-04-26T07:45:00	0.2112	7.697	182.0	0.504503796	0.604157841	0.008854255	0.091347715	0.028154253
2020-04-26T07:50:00	0.2116	7.727	181.0	0.506169693	0.606469173	0.008907684	0.091898933	0.028324144
2020-04-26T07:55:00	0.2119	7.756	182.0	0.507149434	0.607829548	0.008939181	0.092223886	0.028424297
2020-04-26T08:00:00	0.2127	7.794	182.0	0.509841509	0.611571497	0.009026014	0.093119723	0.028700403
2020-04-26T08:05:00	0.2125	7.836	182.0	0.509108074	0.610551452	0.009002316	0.092875230	0.028625048
2020-04-26T08:10:00	0.2129	7.871	182.0	0.510429369	0.612389393	0.009045031	0.093315920	0.028760873
2020-04-26T08:15:00	0.2133	7.904	182.0	0.511750155	0.614228033	0.009087831	0.093757482	0.028896966
2020-04-26T08:20:00	0.2134	7.934	182.0	0.512043934	0.614637189	0.009097365	0.093855839	0.028927281
2020-04-26T08:25:00	0.2142	7.964	182.0	0.515074097	0.618861469	0.009195991	0.094873349	0.029240887
2020-04-26T08:30:00	0.2141	7.994	182.0	0.514683752	0.618316882	0.009183257	0.094741965	0.029200394
2020-04-26T08:35:00	0.2142	8.025	183.0	0.514977280	0.618726384	0.009192832	0.094840753	0.029230841
2020-04-26T08:40:00	0.2147	8.057	183.0	0.516638090	0.621044701	0.009247105	0.095400677	0.029403415
2020-04-26T08:45:00	0.2148	8.096	183.0	0.516931451	0.621454434	0.009256708	0.095499751	0.029433951
2020-04-26T08:50:00	0.2140	8.140	183.0	0.514148103	0.617569775	0.009165796	0.094561823	0.029144872
2020-04-26T08:55:00	0.2140	8.194	183.0	0.514099682	0.617502249	0.009164218	0.094545547	0.029139856
2020-04-26T09:00:00	0.2136	8.247	183.0	0.513025056	0.616004136	0.009129241	0.094184693	0.029028637
2020-04-26T09:05:00	0.2127	8.301	184.0	0.509896118	0.611647464	0.009027780	0.093137940	0.028706018
2020-04-26T09:10:00	0.2137	8.368	184.0	0.513270293	0.616345933	0.009137217	0.094266981	0.029053999
2020-04-26T09:15:00	0.2135	8.461	184.0	0.512537592	0.615324880	0.009113397	0.094021232	0.028978257
2020-04-26T09:20:00	0.2135	8.522	185.0	0.512489148	0.615257386	0.009111823	0.094004995	0.028973252
2020-04-26T09:25:00	0.2132	8.593	184.0	0.511414016	0.613759968	0.009076929	0.093645006	0.028862300
2020-04-26T09:30:00	0.2134	8.653	185.0	0.512050058	0.614645719	0.009097564	0.093857890	0.028927913
2020-04-26T09:35:00	0.2128	8.696	185.0	0.510290073	0.612195563	0.009040523	0.093269411	0.028746538
2020-04-26T09:40:00	0.2126	8.742	186.0	0.509556734	0.611175387	0.009016809	0.093024754	0.028671133
2020-04-26T09:45:00	0.2124	8.788	186.0	0.508823238	0.610155426	0.008993120	0.092780366	0.028595810
2020-04-26T09:50:00	0.2125	8.832	186.0	0.509117268	0.610564236	0.009002612	0.092878293	0.028625992
2020-04-26T09:55:00	0.2127	8.875	186.0	0.509753736	0.611449402	0.009023176	0.093090447	0.028691380
2020-04-26T10:00:00	0.2123	8.924	186.0	0.508335175	0.609476992	0.008977376	0.092617930	0.028545745
2020-04-26T10:05:00	0.2118	8.982	187.0	0.506615672	0.607088321	0.008922015	0.092046781	0.028369712
2020-04-26T10:10:00	0.2113	9.065	187.0	0.504895303	0.604700833	0.008866797	0.091477109	0.028194134
2020-04-26T10:15:00	0.2117	9.135	187.0	0.506260625	0.606595400	0.008910605	0.091929068	0.028333432
2020-04-26T10:20:00	0.2111	9.224	188.0	0.504197092	0.603732552	0.008844436	0.091246412	0.028123030
2020-04-26T10:25:00	0.2103	9.357	189.0	0.501445822	0.599920906	0.008756596	0.090340187	0.027843723
2020-04-26T10:30:00	0.2108	9.483	189.0	0.503155648	0.602289005	0.008811134	0.090902846	0.028017140
2020-04-26T10:35:00	0.2103	9.585	190.0	0.501433536	0.599903897	0.008756205	0.090336150	0.027842479
2020-04-26T10:40:00	0.2098	9.700	190.0	0.499710554	0.597519974	0.008701419	0.089770936	0.027668274
2020-04-26T10:45:00	0.2095	9.817	191.0	0.498673888	0.596086790	0.008668539	0.089431715	0.027563723
2020-04-26T10:50:00	0.2095	9.934	191.0	0.498667740	0.596078292	0.008668344	0.089429706	0.027563104
2020-04-26T10:55:00	0.2094	10.041	191.0	0.498318015	0.595594996	0.008657266	0.089315413	0.027527878
2020-04-26T11:00:00	0.2090	10.150	192.0	0.496937209	0.593687776	0.008613595	0.088864867	0.027389015
2020-04-26T11:05:00	0.2089	10.255	192.0	0.496587306	0.593204721	0.008602546	0.088750877	0.027353882
2020-04-26T11:10:00	0.2091	10.351	193.0	0.497268624	0.594145399	0.008624066	0.088972902	0.027422312
2020-04-26T11:15:00	0.2091	10.418	193.0	0.497262473	0.594136905	0.008623872	0.088970896	0.027421694
2020-04-26T11:20:00	0.2093	10.401	193.0	0.498287271	0.595552514	0.008656292	0.089305369	0.027524782
2020-04-26T11:25:00	0.2088	10.369	193.0	0.496562698	0.593170752	0.008601769	0.088742863	0.027351412
2020-04-26T11:30:00	0.2081	10.412	193.0	0.494149292	0.589841669	0.008525756	0.087958648	0.027109710
2020-04-26T11:35:00	0.2084	10.500	193.0	0.495175026	0.591256009	0.008558021	0.088291528	0.027212307
2020-04-26T11:40:00	0.2093	10.469	193.0	0.498262675	0.595518529	0.008655513	0.089297334	0.027522306
2020-04-26T11:45:00	0.2094	10.391	193.0	0.498600110	0.595984824	0.008666201	0.089407598	0.027556290
2020-04-26T11:50:00	0.2087	10.435	193.0	0.496188147	0.592653784	0.008589950	0.088620929	0.027313831
2020-04-26T11:55:00	0.2095	10.500	193.0	0.498931363	0.596442666	0.008676699	0.089515907	0.027589672
2020-04-26T12:00:00	0.2093	10.542	193.0	0.498238079	0.595484544	0.008654734	0.089289300	0.027519829
2020-04-26T12:05:00	0.2088	10.564	194.0	0.496513482	0.593102816	0.008600215	0.088726836	0.027346473
2020-04-26T12:10:00	0.2086	10.605	194.0	0.495819707	0.592145362	0.008578332	0.088501066	0.027276888
2020-04-26T12:15:00	0.2092	10.669	194.0	0.497876011	0.594984317	0.008643274	0.089171067	0.027483389
2020-04-26T12:20:00	0.2091	10.666	194.0	0.497526204	0.594501131	0.008632209	0.089056913	0.027448205
2020-04-26T12:25:00	0.2088	10.646	194.0	0.496488874	0.593068848	0.008599439	0.088718823	0.027344003
2020-04-26T12:30:00	0.2082	10.678	195.0	0.494419420	0.590214055	0.008534247	0.088046252	0.027136710
2020-04-26T12:35:00	0.2076	10.733	195.0	0.492348708	0.587360964	0.008469262	0.087375819	0.026930076
2020-04-26T12:40:00	0.2078	10.766	195.0	0.493030874	0.588300494	0.008490643	0.087596402	0.026998062
2020-04-26T12:45:00	0.2072	10.767	195.0	0.490959317	0.585448545	0.008425798	0.086927405	0.026791870
2020-04-26T12:50:00	0.2067	10.751	197.0	0.489231027	0.583071810	0.008371887	0.086371213	0.026620447
2020-04-26T12:55:00	0.2065	10.753	194.0	0.488535764	0.582116364	0.008350248	0.086147966	0.026551640
2020-04-26T13:00:00	0.2062	10.761	196.0	0.487495689	0.580687788	0.008317929	0.085814536	0.026448873
2020-04-26T13:05:00	0.2060	10.796	197.0	0.486800071	0.579732820	0.008296348	0.085591891	0.026380252
2020-04-26T13:10:00	0.2060	10.869	197.0	0.486793902	0.579724351	0.008296157	0.085589918	0.026379644
2020-04-26T13:15:00	0.2057	10.933	199.0	0.485753292	0.578296493	0.008263925	0.085257391	0.026277156
2020-04-26T13:20:00	0.2054	10.962	196.0	0.484712363	0.576869063	0.008231746	0.084925405	0.026174835
2020-04-26T13:25:00	0.2054	10.957	198.0	0.484706190	0.576860600	0.008231555	0.084923438	0.026174228
2020-04-26T13:30:00	0.2061	10.960	195.0	0.487113968	0.580163700	0.008306083	0.085692324	0.026411206
2020-04-26T13:35:00	0.2065	10.991	196.0	0.488486432	0.582048584	0.008348713	0.086132136	0.026546761
2020-04-26T13:40:00	0.2060	11.053	196.0	0.486756883	0.579673543	0.008295009	0.085578077	0.026375995
2020-04-26T13:45:00	0.2060	11.118	196.0	0.486750714	0.579665074	0.008294818	0.085576104	0.026375386
2020-04-26T13:50:00	0.2057	11.168	197.0	0.485710091	0.578237234	0.008262588	0.085243600	0.026272905
2020-04-26T13:55:00	0.2057	11.171	197.0	0.485703919	0.578228768	0.008262397	0.085241630	0.026272298
2020-04-26T14:00:00	0.2057	11.139	196.0	0.485697747	0.578220303	0.008262206	0.085239660	0.026271691
2020-04-26T14:05:00	0.2047	11.102	196.0	0.482241101	0.573483677	0.008155599	0.084139809	0.025932706
2020-04-26T14:10:00	0.2044	11.061	196.0	0.481199093	0.572057691	0.008123596	0.083809646	0.025830947
2020-04-26T14:15:00	0.2052	11.049	196.0	0.483954427	0.575830247	0.008208354	0.084684078	0.026100455
2020-04-26T14:20:00	0.2050	11.026	196.0	0.483258084	0.574876253	0.008186893	0.084462662	0.026032213
2020-04-26T14:25:00	0.2046	11.026	196.0	0.481871146	0.572977295	0.008144229	0.084022514	0.025896555
2020-04-26T14:30:00	0.2044	11.022	196.0	0.481174374	0.572023873	0.008122838	0.083801822	0.025828535
2020-04-26T14:35:00	0.2043	11.021	196.0	0.480822844	0.571543007	0.008112056	0.083690589	0.025794252
2020-04-26T14:40:00	0.2039	11.022	196.0	0.479434909	0.569645382	0.008069556	0.083252125	0.025659113
2020-04-26T14:45:00	0.2042	11.015	196.0	0.480465096	0.571053737	0.008101091	0.083577463	0.025759386
2020-04-26T14:50:00	0.2040	11.002	196.0	0.479768035	0.570100702	0.008079747	0.083357259	0.025691517
2020-04-26T14:55:00	0.2045	10.960	195.0	0.481488792	0.572454056	0.008132487	0.083901373	0.025859218
2020-04-26T15:00:00	0.2044	10.915	195.0	0.481137294	0.571973146	0.008121700	0.083790085	0.025824918
2020-04-26T15:05:00	0.2040	10.885	195.0	0.479749488	0.570075349	0.008079179	0.083351404	0.025689712
2020-04-26T15:10:00	0.2033	10.864	195.0	0.477324098	0.566762364	0.008005133	0.082587481	0.025454264
2020-04-26T15:15:00	0.2030	10.854	195.0	0.476280576	0.565338397	0.007973378	0.082259874	0.025353292
2020-04-26T15:20:00	0.2027	10.854	195.0	0.475236733	0.563914859	0.007941676	0.081932810	0.025252488
2020-04-26T15:25:00	0.2027	10.844	195.0	0.475230542	0.563906419	0.007941488	0.081930873	0.025251891
2020-04-26T15:30:00	0.2029	10.835	195.0	0.475916159	0.564841326	0.007962304	0.082145620	0.025318078
2020-04-26T15:35:00	0.2026	10.823	195.0	0.474872203	0.563417937	0.007930620	0.081818745	0.025217332
2020-04-26T15:40:00	0.2026	10.813	195.0	0.474866011	0.563409498	0.007930432	0.081816808	0.025216735
2020-04-26T15:45:00	0.2027	10.799	195.0	0.475205779	0.563872659	0.007940737	0.081923121	0.025249502
2020-04-26T15:50:00	0.2026	10.784	195.0	0.474853628	0.563392620	0.007930057	0.081812935	0.025215541
2020-04-26T15:55:00	0.2023	10.770	195.0	0.473809344	0.561969667	0.007898427	0.081486613	0.025114966
2020-04-26T16:00:00	0.2025	10.761	195.0	0.474841245	0.563375742	0.007929681	0.081809062	0.025214347
2020-04-26T16:05:00	0.2022	10.741	195.0	0.473607152	0.561694258	0.007892310	0.081423506	0.025095515
2020-04-26T16:10:00	0.2021	10.713	195.0	0.473411142	0.561427301	0.007886382	0.081362351	0.025076667
2020-04-26T16:15:00	0.2020	10.695	194.0	0.472868957	0.560689029	0.007869997	0.081193309	0.025024566
2020-04-26T16:20:00	0.2022	10.677	195.0	0.473711346	0.561836179	0.007895462	0.081456024	0.025105538
2020-04-26T16:25:00	0.2017	10.651	194.0	0.471784328	0.559212831	0.007837269	0.080855664	0.024920501
2020-04-26T16:30:00	0.2019	10.623	195.0	0.472626987	0.560359623	0.007862690	0.081117923	0.025001332
2020-04-26T16:35:00	0.2024	10.597	194.0	0.474161603	0.562449562	0.007909089	0.081596616	0.025148870
2020-04-26T16:40:00	0.2024	10.555	195.0	0.474311675	0.562654041	0.007913634	0.081643503	0.025163321
2020-04-26T16:45:00	0.2024	10.509	194.0	0.474461741	0.562858529	0.007918180	0.081690401	0.025177775
2020-04-26T16:50:00	0.2018	10.479	194.0	0.472188918	0.559763376	0.007849470	0.080981532	0.024959294
2020-04-26T16:55:00	0.2018	10.456	194.0	0.472339078	0.559967738	0.007854000	0.081028271	0.024973700
2020-04-26T17:00:00	0.2017	10.424	194.0	0.471796722	0.559229694	0.007837643	0.080859518	0.024921689
2020-04-26T17:05:00	0.2017	10.392	194.0	0.471946899	0.559434034	0.007842171	0.080906228	0.024936085
2020-04-26T17:10:00	0.2017	10.359	193.0	0.471750793	0.559167204	0.007836259	0.080845235	0.024917287
2020-04-26T17:15:00	0.2012	10.328	193.0	0.470169130	0.557016255	0.007788657	0.080354140	0.024765926
2020-04-26T17:20:00	0.2010	10.292	193.0	0.469626425	0.556278672	0.007772357	0.080185973	0.024714096
2020-04-26T17:25:00	0.2007	10.250	193.0	0.468390424	0.554599714	0.007735296	0.079803626	0.024596253
2020-04-26T17:30:00	0.2005	10.219	193.0	0.467847433	0.553862510	0.007719043	0.079635941	0.024544570
2020-04-26T17:35:00	0.2001	10.186	192.0	0.466263940	0.551713979	0.007671740	0.079147922	0.024394158
2020-04-26T17:40:00	0.2006	10.156	193.0	0.468148133	0.554270733	0.007728042	0.079728781	0.024573185
2020-04-26T17:45:00	0.2008	10.122	192.0	0.468645104	0.554945567	0.007742926	0.079882336	0.024620512
2020-04-26T17:50:00	0.2006	10.087	192.0	0.468102154	0.554208308	0.007726665	0.079714582	0.024568808
2020-04-26T17:55:00	0.2010	10.052	192.0	0.469638827	0.556295525	0.007772729	0.080189814	0.024715280
2020-04-26T18:00:00	0.2005	10.017	192.0	0.467709483	0.553675255	0.007714916	0.079593367	0.024531449
2020-04-26T18:05:00	0.2005	9.981	192.0	0.467859842	0.553879354	0.007719414	0.079639771	0.024545751
2020-04-26T18:10:00	0.2008	9.942	191.0	0.468703481	0.555024849	0.007744675	0.079900383	0.024626074
2020-04-26T18:15:00	0.2013	9.903	191.0	0.470586313	0.557583401	0.007801199	0.080483529	0.024805805
2020-04-26T18:20:00	0.2016	9.863	191.0	0.471429271	0.558729796	0.007826571	0.080745285	0.024886481
2020-04-26T18:25:00	0.2020	9.825	191.0	0.472964431	0.560819015	0.007872881	0.081223063	0.025033737
2020-04-26T18:30:00	0.2019	9.786	191.0	0.472768384	0.560552107	0.007866960	0.081161971	0.025014908
2020-04-26T18:35:00	0.2025	9.747	191.0	0.474648951	0.563113657	0.007923853	0.081748926	0.025195813
2020-04-26T18:40:00	0.2027	9.707	191.0	0.475490897	0.564261395	0.007949390	0.082012387	0.025277014
2020-04-26T18:45:00	0.2033	9.664	191.0	0.477369951	0.566824954	0.008006530	0.082601892	0.025458705
2020-04-26T18:50:00	0.2035	9.624	190.0	0.478211220	0.567973593	0.008032177	0.082866494	0.025540258
2020-04-26T18:55:00	0.2045	9.583	190.0	0.481470253	0.572428690	0.008131918	0.083895502	0.025857409
2020-04-26T19:00:00	0.2045	9.545	190.0	0.481620002	0.572633600	0.008136516	0.083942935	0.025872028
2020-04-26T19:05:00	0.2051	9.504	190.0	0.483495660	0.575201690	0.008194212	0.084538172	0.026055486
2020-04-26T19:10:00	0.2062	9.464	190.0	0.487439079	0.580610058	0.008316171	0.085796406	0.026443286
2020-04-26T19:15:00	0.2065	9.423	190.0	0.488622446	0.582235462	0.008352944	0.086175784	0.026560213
2020-04-26T19:20:00	0.2070	9.383	190.0	0.490149838	0.584335056	0.008400526	0.086666680	0.026711513
2020-04-26T19:25:00	0.2070	9.340	189.0	0.490299204	0.584540479	0.008405187	0.086714760	0.026726331
2020-04-26T19:30:00	0.2074	9.300	189.0	0.491481575	0.586167223	0.008442123	0.087095825	0.026843779
2020-04-26T19:35:00	0.2078	9.260	189.0	0.493007683	0.588268547	0.008489916	0.087588899	0.026995749
2020-04-26T19:40:00	0.2084	9.220	189.0	0.494877066	0.590845077	0.008548642	0.088194767	0.027182484
2020-04-26T19:45:00	0.2079	9.180	189.0	0.493306158	0.588679741	0.008499279	0.087685495	0.027025521
2020-04-26T19:50:00	0.2075	9.139	188.0	0.492078766	0.586989284	0.008460809	0.087288608	0.026903197
2020-04-26T19:55:00	0.2083	9.099	189.0	0.494636661	0.590513575	0.008541079	0.088116735	0.027158434
2020-04-26T20:00:00	0.2078	9.057	188.0	0.493065642	0.588348388	0.008491734	0.087607652	0.027001529
2020-04-26T20:05:00	0.2083	9.015	187.0	0.494591040	0.590450672	0.008539644	0.088101931	0.027153871
2020-04-26T20:10:00	0.2076	8.972	188.0	0.492331672	0.587337505	0.008468729	0.087370314	0.026928379
2020-04-26T20:15:00	0.2074	8.931	187.0	0.491448234	0.586121336	0.008441080	0.087085068	0.026840464
2020-04-26T20:20:00	0.2076	8.889	187.0	0.492286020	0.587274644	0.008467299	0.087355562	0.026923833
2020-04-26T20:25:00	0.2077	8.848	187.0	0.492779463	0.587954189	0.008482760	0.087515075	0.026972996
2020-04-26T20:30:00	0.2076	8.809	187.0	0.492240368	0.587211784	0.008465869	0.087340812	0.026919287
2020-04-26T20:35:00	0.2073	8.769	187.0	0.491356906	0.585995647	0.008438224	0.087055606	0.026831383
2020-04-26T20:40:00	0.2076	8.728	186.0	0.492194715	0.587148925	0.008464440	0.087326063	0.026914741
2020-04-26T20:45:00	0.2076	8.688	186.0	0.492343991	0.587354469	0.008469115	0.087374295	0.026929606
2020-04-26T20:50:00	0.2073	8.648	186.0	0.491116252	0.585664481	0.008430702	0.086977997	0.026807463
2020-04-26T20:55:00	0.2077	8.607	186.0	0.492642524	0.587765584	0.008478468	0.087470793	0.026959348
2020-04-26T21:00:00	0.2079	8.567	186.0	0.493135916	0.588445198	0.008493938	0.087630393	0.027008538
2020-04-26T21:05:00	0.2079	8.527	185.0	0.493285151	0.588650798	0.008498620	0.087678695	0.027023425
2020-04-26T21:10:00	0.2079	8.488	186.0	0.493434380	0.588856407	0.008503303	0.087727009	0.027038316
2020-04-26T21:15:00	0.2079	8.448	185.0	0.493239512	0.588587920	0.008497188	0.087663922	0.027018872
2020-04-26T21:20:00	0.2090	8.409	185.0	0.497171652	0.594011489	0.008621002	0.088941284	0.027412568
2020-04-26T21:25:00	0.2084	8.372	185.0	0.494913996	0.590896005	0.008549805	0.088206757	0.027186179
2020-04-26T21:30:00	0.2086	8.334	185.0	0.495750929	0.592050466	0.008576164	0.088478699	0.027269994
2020-04-26T21:35:00	0.2092	8.297	185.0	0.497618807	0.594629033	0.008635138	0.089087125	0.027457517
2020-04-26T21:40:00	0.2094	8.260	184.0	0.498455076	0.595784394	0.008661606	0.089360197	0.027541681
2020-04-26T21:45:00	0.2096	8.223	184.0	0.499291140	0.596940033	0.008688109	0.089633617	0.027625951
2020-04-26T21:50:00	0.2095	8.186	184.0	0.498753074	0.596196233	0.008671048	0.089457604	0.027571702
2020-04-26T21:55:00	0.2092	8.150	183.0	0.497871301	0.594977811	0.008643125	0.089169530	0.027482915
2020-04-26T22:00:00	0.2092	8.115	184.0	0.497676688	0.594708980	0.008636969	0.089106012	0.027463338
2020-04-26T22:05:00	0.2094	8.079	184.0	0.498607153	0.595994558	0.008666424	0.089409900	0.027557000
2020-04-26T22:10:00	0.2093	8.045	184.0	0.498163201	0.595381085	0.008652364	0.089264842	0.027512291
2020-04-26T22:15:00	0.2091	8.011	184.0	0.497375520	0.594293022	0.008627445	0.089007762	0.027433057
2020-04-26T22:20:00	0.2088	7.979	183.0	0.496243871	0.592730689	0.008591708	0.088639064	0.027319420
2020-04-26T22:25:00	0.2092	7.948	183.0	0.497862077	0.594965068	0.008642833	0.089166519	0.027481987
2020-04-26T22:30:00	0.2098	7.916	183.0	0.499822976	0.597675448	0.008704988	0.089807761	0.027679624
2020-04-26T22:35:00	0.2098	7.883	183.0	0.499722653	0.597536705	0.008701803	0.089774899	0.027669496
2020-04-26T22:40:00	0.2100	7.852	183.0	0.500652560	0.598823040	0.008731351	0.090079737	0.027763450
2020-04-26T22:45:00	0.2093	7.824	183.0	0.498147829	0.595359846	0.008651877	0.089259821	0.027510744
2020-04-26T22:50:00	0.2097	7.796	182.0	0.499421666	0.597120501	0.008692250	0.089676341	0.027639119
2020-04-26T22:55:00	0.2092	7.769	182.0	0.497947081	0.595082498	0.008645523	0.089194269	0.027490540
2020-04-26T23:00:00	0.2093	7.740	182.0	0.498190327	0.595418565	0.008653223	0.089273702	0.027515022
2020-04-26T23:05:00	0.2090	7.712	182.0	0.497058948	0.593855865	0.008617440	0.088904544	0.027401244
2020-04-26T23:10:00	0.2086	7.683	182.0	0.495583341	0.591819250	0.008570882	0.088424212	0.027253201
2020-04-26T23:15:00	0.2093	7.656	182.0	0.498232826	0.595477285	0.008654568	0.089287584	0.027519300
2020-04-26T23:20:00	0.2087	7.627	182.0	0.496070154	0.592490950	0.008586228	0.088582534	0.027301997
2020-04-26T23:25:00	0.2085	7.600	182.0	0.495281988	0.591403542	0.008561389	0.088326277	0.027223016
2020-04-26T23:30:00	0.2082	7.573	182.0	0.494493640	0.590316382	0.008536581	0.088070329	0.027144131
2020-04-26T23:35:00	0.2077	7.548	182.0	0.492672774	0.587807245	0.008479416	0.087480574	0.026962362
2020-04-26T23:40:00	0.2074	7.521	181.0	0.491539560	0.586247029	0.008443936	0.087114534	0.026849545
2020-04-26T23:45:00	0.2072	7.495	181.0	0.490750344	0.585161040	0.008419270	0.086860060	0.026771114
2020-04-26T23:50:00	0.2061	7.467	181.0	0.487204317	0.580287735	0.008308886	0.085721242	0.026420119
2020-04-26T23:55:00	0.2068	7.441	181.0	0.489515865	0.583463354	0.008380760	0.086462757	0.026648661
2020-04-27T00:00:00	0.2065	7.414	182.0	0.488381598	0.581904557	0.008345453	0.086098503	0.026536395
2020-04-27T00:05:00	0.2064	7.387	181.0	0.488280937	0.581766271	0.008342323	0.086066214	0.026526443
2020-04-27T00:10:00	0.2063	7.360	181.0	0.487835637	0.581154622	0.008328485	0.085923447	0.026482441
2020-04-27T00:15:00	0.2059	7.334	181.0	0.486356021	0.579123415	0.008282586	0.085449915	0.026336494
2020-04-27T00:20:00	0.2054	7.309	180.0	0.484530788	0.576620157	0.008226139	0.084867560	0.026157006
2020-04-27T00:25:00	0.2056	7.286	181.0	0.485464857	0.577900873	0.008255002	0.085165335	0.026248783
2020-04-27T00:30:00	0.2052	7.264	180.0	0.483984207	0.575871054	0.008209273	0.084693554	0.026103376
2020-04-27T00:35:00	0.2048	7.242	180.0	0.482502911	0.573842101	0.008163649	0.084222865	0.025958305
2020-04-27T00:40:00	0.2042	7.223	180.0	0.480675603	0.571341622	0.008107542	0.083644020	0.025779899
2020-04-27T00:45:00	0.2043	7.206	180.0	0.480920088	0.571676020	0.008115038	0.083721352	0.025803734
2020-04-27T00:50:00	0.2044	7.190	180.0	0.481164556	0.572010442	0.008122537	0.083798714	0.025827578
2020-04-27T00:55:00	0.2045	7.174	180.0	0.481754297	0.572817379	0.008140640	0.083985484	0.025885142
2020-04-27T01:00:00	0.2047	7.157	180.0	0.482343935	0.573624452	0.008158760	0.084172427	0.025942759
2020-04-27T01:05:00	0.2052	7.140	179.0	0.483968770	0.575849901	0.008208797	0.084688642	0.026101862
2020-04-27T01:10:00	0.2054	7.125	179.0	0.484558023	0.576657489	0.008226980	0.084876235	0.026159680
2020-04-27T01:15:00	0.2049	7.109	179.0	0.483076978	0.574628200	0.008181315	0.084405123	0.026014479
2020-04-27T01:20:00	0.2056	7.093	179.0	0.485391337	0.577800045	0.008252729	0.085141879	0.026241554
2020-04-27T01:25:00	0.2061	7.077	179.0	0.487014714	0.580027448	0.008303004	0.085660561	0.026401417
2020-04-27T01:30:00	0.2055	7.063	179.0	0.485189836	0.577523715	0.008246499	0.085077607	0.026221745
2020-04-27T01:35:00	0.2054	7.048	179.0	0.484744129	0.576912611	0.008232727	0.084935526	0.026177954
2020-04-27T01:40:00	0.2058	7.031	179.0	0.486022995	0.578666479	0.008272273	0.085343513	0.026303700
2020-04-27T01:45:00	0.2056	7.016	179.0	0.485232497	0.577582216	0.008247817	0.085091212	0.026225938
2020-04-27T01:50:00	0.2055	7.000	179.0	0.485131742	0.577444055	0.008244703	0.085059081	0.026216035
2020-04-27T01:55:00	0.2050	6.981	179.0	0.483305850	0.574941681	0.008188364	0.084477841	0.026036891
2020-04-27T02:00:00	0.2057	6.962	178.0	0.485620054	0.578113735	0.008259803	0.085214861	0.026264048
2020-04-27T02:05:00	0.2053	6.945	178.0	0.484484485	0.576556687	0.008224710	0.084852812	0.026152461
2020-04-27T02:10:00	0.2054	6.929	179.0	0.484728696	0.576891453	0.008232250	0.084930609	0.026176438
2020-04-27T02:15:00	0.2048	6.913	178.0	0.482557413	0.573916722	0.008165326	0.084240160	0.025963636
2020-04-27T02:20:00	0.2049	6.897	178.0	0.482801763	0.574251302	0.008172844	0.084317722	0.025987541
2020-04-27T02:25:00	0.2040	6.881	178.0	0.479938401	0.570333594	0.008084961	0.083411052	0.025708096
2020-04-27T02:30:00	0.2036	6.865	178.0	0.478455336	0.568307005	0.008039627	0.082943353	0.025563947
2020-04-27T02:35:00	0.2036	6.849	178.0	0.478354380	0.568169114	0.008036546	0.082911563	0.025554149
2020-04-27T02:40:00	0.2034	6.834	178.0	0.477907774	0.567559213	0.008022922	0.082771003	0.025510827
2020-04-27T02:45:00	0.2031	6.818	178.0	0.476769617	0.566005623	0.007988252	0.082413325	0.025400587
2020-04-27T02:50:00	0.2032	6.803	178.0	0.477014384	0.566339645	0.007995702	0.082490182	0.025424275
2020-04-27T02:55:00	0.2026	6.788	178.0	0.475184111	0.563843120	0.007940080	0.081916340	0.025247411
2020-04-27T03:00:00	0.2028	6.771	178.0	0.475774894	0.564648667	0.007958013	0.082101350	0.025304434
2020-04-27T03:05:00	0.2032	6.755	178.0	0.477057148	0.566398008	0.007997004	0.082503613	0.025428415
2020-04-27T03:10:00	0.2031	6.739	178.0	0.476610371	0.565788334	0.007983407	0.082363342	0.025385182
2020-04-27T03:15:00	0.2026	6.724	177.0	0.475125846	0.563763689	0.007938312	0.081898104	0.025241791
2020-04-27T03:20:00	0.2029	6.710	178.0	0.476062510	0.565040939	0.007966750	0.082191495	0.025332217
2020-04-27T03:25:00	0.2032	6.692	177.0	0.476998915	0.566318534	0.007995231	0.082485323	0.025422778
2020-04-27T03:30:00	0.2031	6.676	177.0	0.476897916	0.566180701	0.007992157	0.082453607	0.025413002
2020-04-27T03:35:00	0.2041	6.661	177.0	0.480252934	0.570763623	0.008094592	0.083510410	0.025738719
2020-04-27T03:40:00	0.2032	6.645	177.0	0.477041680	0.566376897	0.007996533	0.082498755	0.025426917
2020-04-27T03:45:00	0.2038	6.631	177.0	0.479014629	0.569071066	0.008056709	0.083119579	0.025618261
2020-04-27T03:50:00	0.2037	6.616	177.0	0.478913690	0.568933153	0.008053625	0.083087761	0.025608455
2020-04-27T03:55:00	0.2043	6.599	177.0	0.480885549	0.571628775	0.008113979	0.083710425	0.025800366
2020-04-27T04:00:00	0.2047	6.584	177.0	0.482165870	0.573380694	0.008153286	0.084115950	0.025925353
2020-04-27T04:05:00	0.2039	6.570	177.0	0.479543463	0.569793745	0.008072876	0.083286378	0.025669670
2020-04-27T04:10:00	0.2043	6.556	177.0	0.481065676	0.571875172	0.008119503	0.083767419	0.025817932
2020-04-27T04:15:00	0.2048	6.542	177.0	0.482587206	0.573957513	0.008166242	0.084249615	0.025966550
2020-04-27T04:20:00	0.2056	6.531	177.0	0.485487904	0.577932483	0.008255715	0.085172689	0.026251050
2020-04-27T04:25:00	0.2059	6.518	176.0	0.486317905	0.579071111	0.008281405	0.085437733	0.026332739
2020-04-27T04:30:00	0.2072	6.506	176.0	0.490937554	0.585418603	0.008425118	0.086920390	0.026789708
2020-04-27T04:35:00	0.2071	6.494	177.0	0.490388922	0.584663877	0.008407986	0.086743646	0.026735234
2020-04-27T04:40:00	0.2078	6.483	176.0	0.492938848	0.588173727	0.008487757	0.087566629	0.026988885
2020-04-27T04:45:00	0.2089	6.471	177.0	0.496862108	0.593584088	0.008611222	0.088840395	0.027381473
2020-04-27T04:50:00	0.2088	6.460	176.0	0.496314430	0.592828071	0.008593934	0.088662031	0.027326499
2020-04-27T04:55:00	0.2088	6.448	177.0	0.496454297	0.593021122	0.008598347	0.088707565	0.027340533
2020-04-27T05:00:00	0.2090	6.436	177.0	0.496937910	0.593688744	0.008613617	0.088865096	0.027389086
2020-04-27T05:05:00	0.2093	6.424	176.0	0.498108754	0.595305859	0.008650640	0.089247060	0.027506811
2020-04-27T05:10:00	0.2093	6.415	176.0	0.498248548	0.595499009	0.008655066	0.089292719	0.027520883
2020-04-27T05:15:00	0.2097	6.407	176.0	0.499418943	0.597116735	0.008692164	0.089675450	0.027638844
2020-04-27T05:20:00	0.2099	6.400	176.0	0.500245552	0.598259944	0.008718412	0.089946250	0.027722308
2020-04-27T05:25:00	0.2100	6.394	176.0	0.500385259	0.598453213	0.008722852	0.089992059	0.027736426
2020-04-27T05:30:00	0.2102	6.389	176.0	0.501211635	0.599596740	0.008749139	0.090263258	0.027820013
2020-04-27T05:35:00	0.2104	6.383	176.0	0.502037810	0.600740539	0.008775459	0.090534798	0.027903704
2020-04-27T05:40:00	0.2101	6.379	176.0	0.500804344	0.599033068	0.008736178	0.090129543	0.027778800
2020-04-27T05:45:00	0.2102	6.378	176.0	0.501287340	0.599701528	0.008751550	0.090288123	0.027827676
2020-04-27T05:50:00	0.2104	6.376	176.0	0.501770268	0.600370080	0.008766932	0.090446820	0.027876588
2020-04-27T05:55:00	0.2107	6.375	176.0	0.502939455	0.601989449	0.008804229	0.090831607	0.027995183
2020-04-27T06:00:00	0.2112	6.375	176.0	0.504794197	0.604560594	0.008863557	0.091443685	0.028183832
2020-04-27T06:05:00	0.2118	6.378	175.0	0.506647933	0.607133114	0.008923052	0.092057480	0.028373009
2020-04-27T06:10:00	0.2120	6.383	176.0	0.507472795	0.608278707	0.008949589	0.092331262	0.028457392
2020-04-27T06:15:00	0.2118	6.387	176.0	0.506584070	0.607044443	0.008920999	0.092036300	0.028366482
2020-04-27T06:20:00	0.2125	6.393	176.0	0.509121923	0.610570710	0.009002763	0.092879844	0.028626470
2020-04-27T06:25:00	0.2121	6.400	176.0	0.507891011	0.608859748	0.008963059	0.092470228	0.028500222
2020-04-27T06:30:00	0.2127	6.409	176.0	0.509743070	0.611434565	0.009022832	0.093086889	0.028690283
2020-04-27T06:35:00	0.2129	6.418	176.0	0.510567186	0.612581180	0.009049493	0.093361946	0.028775058
2020-04-27T06:40:00	0.2128	6.429	176.0	0.510021702	0.611822171	0.009031841	0.093179840	0.028718932
2020-04-27T06:45:00	0.2129	6.444	176.0	0.510503397	0.612492409	0.009047427	0.093340641	0.028768492
2020-04-27T06:50:00	0.2130	6.459	176.0	0.510642685	0.612686250	0.009051937	0.093387165	0.028782831
2020-04-27T06:55:00	0.2128	6.477	176.0	0.510097212	0.611927225	0.009034284	0.093205038	0.028726698
2020-04-27T07:00:00	0.2128	6.498	176.0	0.510236516	0.612121044	0.009038790	0.093251533	0.028741028
2020-04-27T07:05:00	0.2125	6.521	172.0	0.509006006	0.610409533	0.008999020	0.092841231	0.028614569
2020-04-27T07:10:00	0.2124	6.546	177.0	0.508802830	0.610127055	0.008992462	0.092773571	0.028593716
2020-04-27T07:15:00	0.2127	6.573	176.0	0.509627173	0.611273359	0.009019085	0.093048240	0.028678371
2020-04-27T07:20:00	0.2132	6.603	178.0	0.511478293	0.613849464	0.009079013	0.093666508	0.028868928
2020-04-27T07:25:00	0.2135	6.638	177.0	0.512644166	0.615473370	0.009116859	0.094056957	0.028989268
2020-04-27T07:30:00	0.2136	6.677	177.0	0.512783367	0.615667331	0.009121383	0.094103630	0.029003653
2020-04-27T07:35:00	0.2137	6.724	177.0	0.513264674	0.616338102	0.009137034	0.094265096	0.029053418
2020-04-27T07:40:00	0.2139	6.790	177.0	0.513745914	0.617008966	0.009152696	0.094426677	0.029103219
2020-04-27T07:45:00	0.2139	6.856	178.0	0.513885070	0.617202989	0.009157227	0.094473426	0.029117628
2020-04-27T07:50:00	0.2138	6.921	178.0	0.513682184	0.616920114	0.009150621	0.094405271	0.029096621
2020-04-27T07:55:00	0.2142	6.993	178.0	0.514847308	0.618545051	0.009188591	0.094797004	0.029217357
2020-04-27T08:00:00	0.2141	7.075	179.0	0.514644479	0.618262097	0.009181976	0.094728751	0.029196321
2020-04-27T08:05:00	0.2144	7.149	179.0	0.515467418	0.619410333	0.009208832	0.095005826	0.029281718
2020-04-27T08:10:00	0.2144	7.212	179.0	0.515606504	0.619604452	0.009213375	0.095052695	0.029296164
2020-04-27T08:15:00	0.2148	7.287	179.0	0.517112703	0.621707622	0.009262644	0.095560990	0.029452825
2020-04-27T08:20:00	0.2148	7.361	180.0	0.516910008	0.621424483	0.009256006	0.095492508	0.029431718
2020-04-27T08:25:00	0.2145	7.443	180.0	0.516023729	0.620186857	0.009227010	0.095193359	0.029339518
2020-04-27T08:30:00	0.2145	7.558	182.0	0.515820969	0.619903807	0.009220383	0.095124987	0.029318445
2020-04-27T08:35:00	0.2140	7.670	181.0	0.514250483	0.617712553	0.009169132	0.094596241	0.029155480
2020-04-27T08:40:00	0.2138	7.799	182.0	0.513705584	0.616952738	0.009151383	0.094413131	0.029099044
2020-04-27T08:45:00	0.2141	7.926	182.0	0.514528748	0.618100663	0.009178202	0.094689819	0.029184322
2020-04-27T08:50:00	0.2142	8.046	183.0	0.515009811	0.618771772	0.009193894	0.094851705	0.029234217
2020-04-27T08:55:00	0.2150	8.146	183.0	0.517541432	0.622306609	0.009276692	0.095705921	0.029497494
2020-04-27T09:00:00	0.2144	8.253	183.0	0.515629891	0.619637094	0.009214139	0.095060577	0.029298593
2020-04-27T09:05:00	0.2146	8.349	184.0	0.516452594	0.620785656	0.009241035	0.095338056	0.029384115
2020-04-27T09:10:00	0.2142	8.456	184.0	0.514882396	0.618594004	0.009189736	0.094808814	0.029220997
2020-04-27T09:15:00	0.2143	8.574	185.0	0.515363409	0.619265181	0.009205436	0.094970785	0.029270918
2020-04-27T09:20:00	0.2136	8.692	185.0	0.512766432	0.615643733	0.009120833	0.094097951	0.029001902
2020-04-27T09:25:00	0.2131	8.810	186.0	0.511194545	0.613454409	0.009069815	0.093571605	0.028839677
2020-04-27T09:30:00	0.2123	8.923	186.0	0.508251826	0.609361152	0.008974688	0.092590204	0.028537200
2020-04-27T09:35:00	0.2124	9.017	187.0	0.508733770	0.610031047	0.008990233	0.092750579	0.028586629
2020-04-27T09:40:00	0.2121	9.128	188.0	0.507845373	0.608796335	0.008961589	0.092455058	0.028495547
2020-04-27T09:45:00	0.2129	9.243	188.0	0.510382291	0.612323883	0.009043508	0.093300200	0.028756028
2020-04-27T09:50:00	0.2116	9.356	188.0	0.506067887	0.606327858	0.008904414	0.091865199	0.028313747
2020-04-27T09:55:00	0.2122	9.441	189.0	0.507920932	0.608901323	0.008964023	0.092480174	0.028503288
2020-04-27T10:00:00	0.2113	9.531	190.0	0.504975394	0.604811928	0.008869364	0.091503591	0.028202295
2020-04-27T10:05:00	0.2109	9.615	190.0	0.503742988	0.603103010	0.008829907	0.091096526	0.028076834
2020-04-27T10:10:00	0.2104	9.711	190.0	0.501823724	0.600444094	0.008768635	0.090464395	0.027882005
2020-04-27T10:15:00	0.2101	9.799	190.0	0.500933528	0.599211839	0.008740288	0.090171944	0.027791869
2020-04-27T10:20:00	0.2096	9.888	191.0	0.499012683	0.596555076	0.008679278	0.089542506	0.027597870
2020-04-27T10:25:00	0.2107	9.971	191.0	0.502928962	0.601974910	0.008803894	0.090828150	0.027994118
2020-04-27T10:30:00	0.2098	10.050	191.0	0.499979114	0.597891397	0.008709947	0.089858919	0.027695392
2020-04-27T10:35:00	0.2097	10.127	191.0	0.499431936	0.597134702	0.008692576	0.089679703	0.027640155
2020-04-27T10:40:00	0.2086	10.194	192.0	0.495791433	0.592106350	0.008577440	0.088491871	0.027274054
2020-04-27T10:45:00	0.2069	10.266	192.0	0.489736657	0.583766902	0.008387641	0.086533749	0.026670542
2020-04-27T10:50:00	0.2085	10.343	192.0	0.495383494	0.591543558	0.008564586	0.088359259	0.027233182
2020-04-27T10:55:00	0.2081	10.430	193.0	0.494147617	0.589839360	0.008525703	0.087958105	0.027109542
2020-04-27T11:00:00	0.2078	10.515	193.0	0.492911291	0.588135768	0.008486893	0.087557714	0.026986138
2020-04-27T11:05:00	0.2067	10.599	194.0	0.489263804	0.583116863	0.008372908	0.086381745	0.026623693
2020-04-27T11:10:00	0.2075	10.688	194.0	0.491814574	0.586625576	0.008452540	0.087203296	0.026876903
2020-04-27T11:15:00	0.2079	10.787	195.0	0.493331296	0.588714375	0.008500068	0.087693633	0.027028029
2020-04-27T11:20:00	0.2066	10.893	195.0	0.488995256	0.582747765	0.008364546	0.086295475	0.026597104
2020-04-27T11:25:00	0.2059	11.018	195.0	0.486378126	0.579153746	0.008283271	0.085456980	0.026338671
2020-04-27T11:30:00	0.2071	11.121	196.0	0.490653342	0.585027596	0.008416241	0.086828808	0.026761482
2020-04-27T11:35:00	0.2069	11.250	196.0	0.489760222	0.583799302	0.008388376	0.086541328	0.026672878
2020-04-27T11:40:00	0.2065	11.368	197.0	0.488522300	0.582097864	0.008349829	0.086143645	0.026550308
2020-04-27T11:45:00	0.2069	11.488	198.0	0.489696042	0.583711062	0.008386375	0.086520688	0.026666516
2020-04-27T11:50:00	0.2058	11.616	198.0	0.486045101	0.578696808	0.008272957	0.085350574	0.026305876
2020-04-27T11:55:00	0.2058	11.741	199.0	0.486185392	0.578889288	0.008277301	0.085395391	0.026319689
2020-04-27T12:00:00	0.2055	11.880	199.0	0.484946166	0.577189602	0.008238968	0.084999916	0.026197800
2020-04-27T12:05:00	0.2057	12.004	200.0	0.485776299	0.578328052	0.008264637	0.085264736	0.026279420
2020-04-27T12:10:00	0.2050	12.123	201.0	0.483156684	0.574737367	0.008183770	0.084430444	0.026022283
2020-04-27T12:15:00	0.2056	12.242	201.0	0.485367156	0.577766882	0.008251981	0.085134165	0.026239176
2020-04-27T12:20:00	0.2050	12.361	202.0	0.483437499	0.575122015	0.008192420	0.084519683	0.026049787
2020-04-27T12:25:00	0.2048	12.460	202.0	0.482542478	0.573896273	0.008164866	0.084235421	0.025962175
2020-04-27T12:30:00	0.2051	12.552	203.0	0.483718290	0.575506694	0.008201073	0.084608961	0.026077304
2020-04-27T12:35:00	0.2050	12.643	203.0	0.483168490	0.574753537	0.008184133	0.084434195	0.026023439
2020-04-27T12:40:00	0.2038	12.722	203.0	0.479164995	0.569276526	0.008061304	0.083166989	0.025632874
2020-04-27T12:45:00	0.2037	12.798	204.0	0.478960030	0.568996467	0.008055040	0.083102368	0.025612957
2020-04-27T12:50:00	0.2040	12.863	204.0	0.479791630	0.570132955	0.008080469	0.083364708	0.025693813
2020-04-27T12:55:00	0.2042	12.917	205.0	0.480623026	0.571269716	0.008105931	0.083627394	0.025774775
2020-04-27T13:00:00	0.2043	12.965	205.0	0.480763542	0.571461896	0.008110238	0.083671831	0.025788471
2020-04-27T13:05:00	0.2040	13.020	204.0	0.479867814	0.570237098	0.008082800	0.083388762	0.025701226
2020-04-27T13:10:00	0.2041	13.071	205.0	0.480353794	0.570901536	0.008097681	0.083542283	0.025748543
2020-04-27T13:15:00	0.2026	13.114	205.0	0.474963388	0.563542230	0.007933385	0.081847270	0.025226124
2020-04-27T13:20:00	0.2042	13.123	205.0	0.480634841	0.571285873	0.008106293	0.083631130	0.025775926
2020-04-27T13:25:00	0.2030	13.134	205.0	0.476282535	0.565341069	0.007973438	0.082260489	0.025353482
2020-04-27T13:30:00	0.2026	13.171	206.0	0.475039680	0.563646228	0.007935699	0.081871141	0.025233481
2020-04-27T13:35:00	0.2030	13.192	206.0	0.476563920	0.565724956	0.007981994	0.082348765	0.025380689
2020-04-27T13:40:00	0.2034	13.171	206.0	0.477741808	0.567332605	0.008017862	0.082718799	0.025494737
2020-04-27T13:45:00	0.2026	13.116	205.0	0.475115971	0.563750228	0.007938013	0.081895014	0.025240839
2020-04-27T13:50:00	0.2028	13.078	206.0	0.475602634	0.564413757	0.007952782	0.082047384	0.025287800
2020-04-27T13:55:00	0.2032	13.050	205.0	0.477126619	0.566492822	0.007999119	0.082525435	0.025435140
2020-04-27T14:00:00	0.2024	13.037	205.0	0.474500305	0.562911081	0.007919348	0.081702455	0.025181490
2020-04-27T14:05:00	0.2025	13.015	205.0	0.474641074	0.563102921	0.007923614	0.081746463	0.025195054
2020-04-27T14:10:00	0.2023	12.983	204.0	0.474089798	0.562351732	0.007906915	0.081574187	0.025141957
2020-04-27T14:15:00	0.2026	12.929	205.0	0.474922596	0.563486626	0.007932148	0.081834509	0.025222190
2020-04-27T14:20:00	0.2024	12.872	205.0	0.474371365	0.562735376	0.007915442	0.081662156	0.025169069
2020-04-27T14:25:00	0.2026	12.813	204.0	0.474858135	0.563398762	0.007930194	0.081814345	0.025215976
2020-04-27T14:30:00	0.2021	12.785	204.0	0.473268635	0.561233233	0.007882074	0.081317904	0.025062968
2020-04-27T14:35:00	0.2021	12.763	204.0	0.473409456	0.561425005	0.007886331	0.081361825	0.025076505
2020-04-27T14:40:00	0.2019	12.731	204.0	0.472511779	0.560202801	0.007859212	0.081082043	0.024990273
2020-04-27T14:45:00	0.2021	12.703	203.0	0.473344966	0.561337180	0.007884381	0.081341710	0.025070305
2020-04-27T14:50:00	0.2018	12.669	203.0	0.472101031	0.559643773	0.007846819	0.080954182	0.024950865
2020-04-27T14:55:00	0.2018	12.645	203.0	0.472241901	0.559835481	0.007851068	0.080998021	0.024964377
2020-04-27T15:00:00	0.2018	12.620	203.0	0.472382764	0.560027197	0.007855318	0.081041871	0.024977892
2020-04-27T15:05:00	0.2018	12.596	203.0	0.472177388	0.559747685	0.007849122	0.080977943	0.024958189
2020-04-27T15:10:00	0.2019	12.554	203.0	0.472664474	0.560410652	0.007863822	0.081129600	0.025004931
2020-04-27T15:15:00	0.2014	12.533	203.0	0.470727559	0.557775452	0.007805447	0.080527360	0.024819314
2020-04-27T15:20:00	0.2015	12.488	202.0	0.471214854	0.558438143	0.007820113	0.080678665	0.024865948
2020-04-27T15:25:00	0.2017	12.433	202.0	0.472048360	0.559572097	0.007845230	0.080937793	0.024945814
2020-04-27T15:30:00	0.2023	12.390	202.0	0.473920039	0.562120460	0.007901777	0.081521173	0.025125617
2020-04-27T15:35:00	0.2016	12.371	202.0	0.471637556	0.559013144	0.007832846	0.080810027	0.024906435
2020-04-27T15:40:00	0.2022	12.342	202.0	0.473509462	0.561561205	0.007889355	0.081393024	0.025086120
2020-04-27T15:45:00	0.2019	12.305	202.0	0.472611812	0.560338965	0.007862232	0.081113197	0.024999875
2020-04-27T15:50:00	0.2017	12.265	202.0	0.472060205	0.559588215	0.007845587	0.080941478	0.024946950
2020-04-27T15:55:00	0.2019	12.225	202.0	0.472547307	0.560251160	0.007860285	0.081093107	0.024993683
2020-04-27T16:00:00	0.2016	12.184	201.0	0.471649401	0.559029259	0.007833203	0.080813710	0.024907570
2020-04-27T16:05:00	0.2015	12.143	201.0	0.471152872	0.558353841	0.007818247	0.080659411	0.024860014
2020-04-27T16:10:00	0.2010	12.102	201.0	0.469616888	0.556265713	0.007772071	0.080183020	0.024713185
2020-04-27T16:15:00	0.2017	12.064	201.0	0.471891442	0.559358573	0.007840498	0.080888977	0.024930768
2020-04-27T16:20:00	0.2018	12.017	201.0	0.472087540	0.559625413	0.007846412	0.080949984	0.024949571
2020-04-27T16:25:00	0.2018	11.963	201.0	0.472283627	0.559892269	0.007852327	0.081011009	0.024968380
2020-04-27T16:30:00	0.2020	11.911	200.0	0.472825905	0.560630416	0.007868697	0.081179893	0.025020432
2020-04-27T16:35:00	0.2020	11.860	200.0	0.473021949	0.560897329	0.007874619	0.081240991	0.025039262
2020-04-27T16:40:00	0.2012	11.813	200.0	0.470101243	0.556923977	0.007786617	0.080333094	0.024759440
2020-04-27T16:45:00	0.2014	11.769	199.0	0.470990262	0.558132688	0.007813352	0.080608911	0.024844449
2020-04-27T16:50:00	0.2017	11.733	199.0	0.471879048	0.559341709	0.007840125	0.080885122	0.024929580
2020-04-27T16:55:00	0.2015	11.703	199.0	0.471382552	0.558666246	0.007825163	0.080730767	0.024882007
2020-04-27T17:00:00	0.2016	11.675	199.0	0.471578680	0.558933047	0.007831072	0.080791724	0.024900794
2020-04-27T17:05:00	0.2017	11.649	199.0	0.471774797	0.559199863	0.007836982	0.080852700	0.024919587
2020-04-27T17:10:00	0.2016	11.622	199.0	0.471624612	0.558995534	0.007832456	0.080806003	0.024905195
2020-04-27T17:15:00	0.2020	11.595	199.0	0.472859429	0.560676057	0.007869709	0.081190340	0.025023651
2020-04-27T17:20:00	0.2022	11.565	199.0	0.473747723	0.561885729	0.007896562	0.081467378	0.025109037
2020-04-27T17:25:00	0.2024	11.529	198.0	0.474289767	0.562624188	0.007912970	0.081636657	0.025161211
2020-04-27T17:30:00	0.2025	11.492	198.0	0.474831723	0.563362763	0.007929393	0.081806083	0.025213429
2020-04-27T17:35:00	0.2029	11.456	198.0	0.476065370	0.565044840	0.007966837	0.082192392	0.025332493
2020-04-27T17:40:00	0.2029	11.420	198.0	0.475915375	0.564840257	0.007962280	0.082145374	0.025318002
2020-04-27T17:45:00	0.2034	11.388	198.0	0.477840041	0.567466729	0.008020856	0.082749696	0.025504260
2020-04-27T17:50:00	0.2037	11.357	198.0	0.478727028	0.568678139	0.008047923	0.083028937	0.025590325
2020-04-27T17:55:00	0.2037	11.325	198.0	0.478922731	0.568945505	0.008053901	0.083090610	0.025609333
2020-04-27T18:00:00	0.2039	11.292	197.0	0.479463946	0.569685066	0.008070444	0.083261287	0.025661937
2020-04-27T18:05:00	0.2036	11.259	197.0	0.478622988	0.568536013	0.008044746	0.082996159	0.025580222
2020-04-27T18:10:00	0.2042	11.225	197.0	0.480546116	0.571164534	0.008103574	0.083603076	0.025767280
2020-04-27T18:15:00	0.2049	11.193	197.0	0.482813335	0.574267148	0.008173200	0.084321396	0.025988673
2020-04-27T18:20:00	0.2046	11.159	197.0	0.481973209	0.573116985	0.008147365	0.084054865	0.025906526
2020-04-27T18:25:00	0.2052	11.127	197.0	0.483894437	0.575748045	0.008206504	0.084664992	0.026094573
2020-04-27T18:30:00	0.2054	11.099	196.0	0.484779841	0.576961569	0.008233830	0.084946906	0.026181461
2020-04-27T18:35:00	0.2055	11.069	197.0	0.484975194	0.577229403	0.008239865	0.085009170	0.026200652
2020-04-27T18:40:00	0.2055	11.037	196.0	0.485170536	0.577497251	0.008245902	0.085071452	0.026219848
2020-04-27T18:45:00	0.2060	11.002	196.0	0.486745208	0.579657517	0.008294647	0.085574343	0.026374844
2020-04-27T18:50:00	0.2062	10.967	196.0	0.487285176	0.580398747	0.008311395	0.085747127	0.026428097
2020-04-27T18:55:00	0.2068	10.932	196.0	0.489547898	0.583507391	0.008381758	0.086473055	0.026651835
2020-04-27T19:00:00	0.2066	10.897	196.0	0.488709437	0.582354993	0.008355650	0.086203705	0.026568819
2020-04-27T19:05:00	0.2066	10.863	196.0	0.488904565	0.582623130	0.008361723	0.086266351	0.026588127
2020-04-27T19:10:00	0.2067	10.830	196.0	0.489099681	0.582891281	0.008367797	0.086329016	0.026607441
2020-04-27T19:15:00	0.2065	10.795	195.0	0.488605703	0.582212457	0.008352423	0.086170410	0.026558557
2020-04-27T19:20:00	0.2068	10.761	195.0	0.489489879	0.583427631	0.008379950	0.086454403	0.026646087
2020-04-27T19:25:00	0.2072	10.728	195.0	0.491062550	0.585590587	0.008429024	0.086960683	0.026802127
2020-04-27T19:30:00	0.2067	10.696	195.0	0.489191069	0.583016889	0.008370642	0.086358375	0.026616490
2020-04-27T19:35:00	0.2067	10.665	195.0	0.489041654	0.582811532	0.008365990	0.086310378	0.026601697
2020-04-27T19:40:00	0.2070	10.634	195.0	0.490270142	0.584500510	0.008404280	0.086705405	0.026723448
2020-04-27T19:45:00	0.2072	10.603	194.0	0.490809550	0.585242493	0.008421119	0.086879137	0.026776994
2020-04-27T19:50:00	0.2078	10.572	195.0	0.493069929	0.588354295	0.008491868	0.087609039	0.027001957
2020-04-27T19:55:00	0.2084	10.539	194.0	0.494984894	0.590993780	0.008552036	0.088229778	0.027193274
2020-04-27T20:00:00	0.2084	10.505	194.0	0.495179662	0.591262402	0.008558167	0.088293034	0.027212771
2020-04-27T20:05:00	0.2090	10.470	193.0	0.497093441	0.593903493	0.008618530	0.088915788	0.027404709
2020-04-27T20:10:00	0.2098	10.431	194.0	0.499693127	0.597495874	0.008700866	0.089765228	0.027666515
2020-04-27T20:15:00	0.2097	10.394	193.0	0.499544172	0.597289894	0.008696138	0.089716449	0.027651481
2020-04-27T20:20:00	0.2096	10.357	194.0	0.499051708	0.596609023	0.008680515	0.089555273	0.027601805
2020-04-27T20:25:00	0.2102	10.320	194.0	0.501306626	0.599728223	0.008752164	0.090294458	0.027829629
2020-04-27T20:30:00	0.2101	10.284	193.0	0.500814416	0.599047006	0.008736499	0.090132848	0.027779819
2020-04-27T20:35:00	0.2103	10.249	193.0	0.501695429	0.600266462	0.008764547	0.090422218	0.027869006
2020-04-27T20:40:00	0.2108	10.213	193.0	0.503262476	0.602437039	0.008814547	0.090938059	0.028027993
2020-04-27T20:45:00	0.2111	10.177	193.0	0.504142858	0.603657356	0.008842700	0.091228504	0.028117511
2020-04-27T20:50:00	0.2107	10.143	192.0	0.502964872	0.602024664	0.008805041	0.090839980	0.027997764
2020-04-27T20:55:00	0.2110	10.111	192.0	0.503845330	0.603244876	0.008833181	0.091130296	0.028087242
2020-04-27T21:00:00	0.2111	10.078	192.0	0.504382594	0.603989768	0.008850374	0.091307676	0.028141912
2020-04-27T21:05:00	0.2109	10.045	193.0	0.503547776	0.602832432	0.008823666	0.091032131	0.028056987
2020-04-27T21:10:00	0.2110	10.011	191.0	0.504085087	0.603577260	0.008840851	0.091209431	0.028111633
2020-04-27T21:15:00	0.2116	9.978	192.0	0.505993879	0.606225136	0.008902038	0.091840681	0.028306190
2020-04-27T21:20:00	0.2115	9.945	192.0	0.505502344	0.605542998	0.008886261	0.091677919	0.028256025
2020-04-27T21:25:00	0.2113	9.911	191.0	0.505010739	0.604860957	0.008870497	0.091515279	0.028205898
2020-04-27T21:30:00	0.2122	9.876	191.0	0.507947049	0.608937614	0.008964865	0.092488856	0.028505964
2020-04-27T21:35:00	0.2128	9.843	191.0	0.510196106	0.612064819	0.009037483	0.093238044	0.028736871
2020-04-27T21:40:00	0.2121	9.809	191.0	0.507649852	0.608524681	0.008955291	0.092390082	0.028475521
2020-04-27T21:45:00	0.2125	9.777	191.0	0.509214173	0.610698986	0.009005742	0.092910579	0.028635943
2020-04-27T21:50:00	0.2124	9.746	191.0	0.508723101	0.610016215	0.008989889	0.092747027	0.028585534
2020-04-27T21:55:00	0.2128	9.715	193.0	0.510286931	0.612191192	0.009040422	0.093268363	0.028746215
2020-04-27T22:00:00	0.2122	9.682	190.0	0.508083375	0.609127052	0.008969258	0.092534182	0.028519934
2020-04-27T22:05:00	0.2119	9.650	190.0	0.506906747	0.607492505	0.008931374	0.092143340	0.028399472
2020-04-27T22:10:00	0.2122	9.619	190.0	0.508128816	0.609190200	0.008970723	0.092549293	0.028524591
2020-04-27T22:15:00	0.2120	9.589	190.0	0.507294913	0.608031613	0.008943863	0.092272186	0.028439184
2020-04-27T22:20:00	0.2120	9.558	190.0	0.507488980	0.608301190	0.008950110	0.092336638	0.028459048
2020-04-27T22:25:00	0.2118	9.528	190.0	0.506654920	0.607142817	0.008923276	0.092059798	0.028373724
2020-04-27T22:30:00	0.2108	9.498	190.0	0.503419934	0.602655250	0.008819579	0.090989971	0.028043993
2020-04-27T22:35:00	0.2105	9.469	189.0	0.502241699	0.601022898	0.008781961	0.090601873	0.027924377
2020-04-27T22:40:00	0.2106	9.440	189.0	0.502436053	0.601292083	0.008788161	0.090665834	0.027944091
2020-04-27T22:45:00	0.2110	9.411	190.0	0.504002761	0.603463123	0.008838217	0.091182254	0.028103256
2020-04-27T22:50:00	0.2109	9.383	189.0	0.503510940	0.602781377	0.008822488	0.091019982	0.028053242
2020-04-27T22:55:00	0.2105	9.354	189.0	0.502332736	0.601148982	0.008784865	0.090631830	0.027933610
2020-04-27T23:00:00	0.2104	9.326	189.0	0.501840674	0.600467564	0.008769176	0.090469968	0.027883723
2020-04-27T23:05:00	0.2107	9.297	189.0	0.503064556	0.602162783	0.008808224	0.090872826	0.028007888
2020-04-27T23:10:00	0.2111	9.268	190.0	0.504287999	0.603858600	0.008847345	0.091276432	0.028132283
2020-04-27T23:15:00	0.2112	9.238	190.0	0.504482236	0.604127943	0.008853564	0.091340592	0.028152058
2020-04-27T23:20:00	0.2109	9.209	188.0	0.503647443	0.602970573	0.008826852	0.091065006	0.028067119
2020-04-27T23:25:00	0.2107	9.180	188.0	0.502812446	0.601813482	0.008800173	0.090789768	0.027982288
2020-04-27T23:30:00	0.2103	9.152	188.0	0.501634001	0.600181416	0.008762590	0.090402027	0.027862783
2020-04-27T23:35:00	0.2097	9.124	188.0	0.499424856	0.597124912	0.008692351	0.089677385	0.027639441
2020-04-27T23:40:00	0.2097	9.096	188.0	0.499619370	0.597393878	0.008698524	0.089741073	0.027659070
2020-04-27T23:45:00	0.2097	9.069	188.0	0.499470412	0.597187902	0.008693797	0.089692299	0.027644038
2020-04-27T23:50:00	0.2090	9.042	188.0	0.497259865	0.594133303	0.008623789	0.088970046	0.027421432
2020-04-27T23:55:00	0.2086	9.014	188.0	0.495735662	0.592029402	0.008575682	0.088473735	0.027268464
2020-04-28T00:00:00	0.2083	8.988	188.0	0.494554769	0.590400662	0.008538503	0.088090162	0.027150244
2020-04-28T00:05:00	0.2079	8.963	187.0	0.493373465	0.588772476	0.008501391	0.087707286	0.027032237
2020-04-28T00:10:00	0.2074	8.940	187.0	0.491503256	0.586197063	0.008442801	0.087102820	0.026845935
2020-04-28T00:15:00	0.2072	8.916	186.0	0.491009627	0.585517768	0.008427370	0.086943622	0.026796869
2020-04-28T00:20:00	0.2071	8.891	187.0	0.490515927	0.584838570	0.008411951	0.086784546	0.026747840
2020-04-28T00:25:00	0.2071	8.867	187.0	0.490710951	0.585106847	0.008418040	0.086847368	0.026767202
2020-04-28T00:30:00	0.2069	8.841	187.0	0.489872777	0.583954062	0.008391885	0.086577532	0.026684036
2020-04-28T00:35:00	0.2068	8.817	187.0	0.489378911	0.583275087	0.008376493	0.086418735	0.026635093
2020-04-28T00:40:00	0.2062	8.795	186.0	0.487506503	0.580702637	0.008318264	0.085817999	0.026449941
2020-04-28T00:45:00	0.2070	8.771	186.0	0.490113519	0.584285110	0.008399393	0.086654992	0.026707910
2020-04-28T00:50:00	0.2065	8.747	186.0	0.488586111	0.582185538	0.008351814	0.086164123	0.026556619
2020-04-28T00:55:00	0.2060	8.725	186.0	0.486713265	0.579613676	0.008293657	0.085564127	0.026371695
2020-04-28T01:00:00	0.2061	8.703	186.0	0.487253238	0.580354900	0.008310404	0.085736903	0.026424946
2020-04-28T01:05:00	0.2062	8.681	186.0	0.487448449	0.580622924	0.008316462	0.085799407	0.026444210
2020-04-28T01:10:00	0.2064	8.659	186.0	0.487988305	0.581364304	0.008333228	0.085972380	0.026497523
2020-04-28T01:15:00	0.2063	8.638	186.0	0.487838838	0.581159018	0.008328585	0.085924473	0.026482757
2020-04-28T01:20:00	0.2068	8.617	186.0	0.489412272	0.583320946	0.008377532	0.086429458	0.026638398
2020-04-28T01:25:00	0.2063	8.596	185.0	0.487884549	0.581221798	0.008330005	0.085939123	0.026487272
2020-04-28T01:30:00	0.2066	8.575	185.0	0.488768913	0.582436719	0.008357501	0.086222798	0.026574704
2020-04-28T01:35:00	0.2066	8.555	185.0	0.488964037	0.582704861	0.008363574	0.086285449	0.026594013
2020-04-28T01:40:00	0.2071	8.535	185.0	0.490536951	0.584867490	0.008412607	0.086791317	0.026749927
2020-04-28T01:45:00	0.2067	8.515	185.0	0.489009734	0.582767662	0.008364996	0.086300125	0.026598537
2020-04-28T01:50:00	0.2063	8.495	185.0	0.487826502	0.581142076	0.008328201	0.085920519	0.026481538
2020-04-28T01:55:00	0.2063	8.475	185.0	0.487677027	0.580936800	0.008323559	0.085872624	0.026466777
2020-04-28T02:00:00	0.2068	8.455	185.0	0.489595030	0.583572187	0.008383227	0.086488208	0.026656506
2020-04-28T02:05:00	0.2061	8.435	185.0	0.487033339	0.580053015	0.008303582	0.085666521	0.026403254
2020-04-28T02:10:00	0.2061	8.418	185.0	0.487228563	0.580321022	0.008309638	0.085729003	0.026422511
2020-04-28T02:15:00	0.2063	8.400	185.0	0.487768454	0.581062356	0.008326398	0.085901918	0.026475805
2020-04-28T02:20:00	0.2065	8.381	185.0	0.488652848	0.582277236	0.008353890	0.086185541	0.026563221
2020-04-28T02:25:00	0.2066	8.364	185.0	0.488847979	0.582545368	0.008359962	0.086248182	0.026582527
2020-04-28T02:30:00	0.2065	8.346	185.0	0.488353964	0.581866593	0.008344594	0.086089638	0.026533662
2020-04-28T02:35:00	0.2063	8.327	184.0	0.487859878	0.581187915	0.008329238	0.085931216	0.026484835
2020-04-28T02:40:00	0.2060	8.310	184.0	0.486676246	0.579562869	0.008292509	0.085552289	0.026368046
2020-04-28T02:45:00	0.2066	8.293	185.0	0.488939374	0.582670967	0.008362806	0.086277529	0.026591572
2020-04-28T02:50:00	0.2066	8.275	185.0	0.488789948	0.582465624	0.008358156	0.086229550	0.026576785
2020-04-28T02:55:00	0.2061	8.256	184.0	0.487261945	0.580366853	0.008310674	0.085739690	0.026425805
2020-04-28T03:00:00	0.2062	8.239	184.0	0.487457155	0.580634878	0.008316732	0.085802195	0.026445070
2020-04-28T03:05:00	0.2057	8.221	184.0	0.485583687	0.578063854	0.008258678	0.085203255	0.026260471
2020-04-28T03:10:00	0.2061	8.204	184.0	0.487158166	0.580224377	0.008307454	0.085706470	0.026415566
2020-04-28T03:15:00	0.2056	8.186	184.0	0.485284533	0.577653574	0.008249426	0.085107809	0.026231053
2020-04-28T03:20:00	0.2057	8.168	184.0	0.485824733	0.578394492	0.008266136	0.085280200	0.026284186
2020-04-28T03:25:00	0.2054	8.152	183.0	0.484640391	0.576770399	0.008229523	0.084902474	0.026167767
2020-04-28T03:30:00	0.2050	8.136	183.0	0.483455635	0.575146860	0.008192978	0.084525448	0.026051564
2020-04-28T03:35:00	0.2050	8.119	183.0	0.483305968	0.574941842	0.008188368	0.084477879	0.026036903
2020-04-28T03:40:00	0.2048	8.104	183.0	0.482465963	0.573791515	0.008162513	0.084211141	0.025954692
2020-04-28T03:45:00	0.2045	8.088	183.0	0.481625751	0.572641467	0.008136692	0.083944756	0.025872589
2020-04-28T03:50:00	0.2042	8.074	183.0	0.480439941	0.571019338	0.008100320	0.083569512	0.025756935
2020-04-28T03:55:00	0.2049	8.059	183.0	0.483052389	0.574594525	0.008180558	0.084397313	0.026012071
2020-04-28T04:00:00	0.2045	8.044	183.0	0.481521800	0.572499222	0.008133501	0.083911828	0.025862440
2020-04-28T04:05:00	0.2044	8.031	183.0	0.481268088	0.572152084	0.008125713	0.083831488	0.025837679
2020-04-28T04:10:00	0.2045	8.017	183.0	0.481704983	0.572749892	0.008139126	0.083969858	0.025880326
2020-04-28T04:15:00	0.2051	8.005	183.0	0.483522473	0.575238422	0.008195038	0.084546696	0.026058113
2020-04-28T04:20:00	0.2057	7.995	183.0	0.485683881	0.578201282	0.008261777	0.085235234	0.026270327
2020-04-28T04:25:00	0.2059	7.984	183.0	0.486465018	0.579272985	0.008285963	0.085484754	0.026347231
2020-04-28T04:30:00	0.2064	7.977	183.0	0.488279962	0.581764930	0.008342293	0.086065901	0.026526346
2020-04-28T04:35:00	0.2070	7.971	183.0	0.490093936	0.584258179	0.008398782	0.086648689	0.026705968
2020-04-28T04:40:00	0.2066	7.964	183.0	0.488807354	0.582489542	0.008358697	0.086235138	0.026578507
2020-04-28T04:45:00	0.2068	7.955	183.0	0.489587773	0.583562210	0.008383001	0.086485875	0.026655786
2020-04-28T04:50:00	0.2070	7.948	183.0	0.490368014	0.584635119	0.008407334	0.086736914	0.026733159
2020-04-28T04:55:00	0.2074	7.943	182.0	0.491492376	0.586182089	0.008442461	0.087099310	0.026844853
2020-04-28T05:00:00	0.2077	7.937	183.0	0.492616368	0.587729560	0.008477648	0.087462336	0.026956741
2020-04-28T05:05:00	0.2080	7.931	183.0	0.493739987	0.589277533	0.008512897	0.087825992	0.027068824
2020-04-28T05:10:00	0.2080	7.925	183.0	0.493487187	0.588929170	0.008504960	0.087744108	0.027043586
2020-04-28T05:15:00	0.2085	7.922	183.0	0.495298387	0.591426162	0.008561906	0.088331605	0.027224658
2020-04-28T05:20:00	0.2082	7.918	183.0	0.494357783	0.590129080	0.008532309	0.088026259	0.027130548
2020-04-28T05:25:00	0.2085	7.915	182.0	0.495480829	0.591677829	0.008567652	0.088390891	0.027242931
2020-04-28T05:30:00	0.2089	7.913	183.0	0.496603504	0.593227080	0.008603057	0.088756152	0.027355508
2020-04-28T05:35:00	0.2087	7.912	182.0	0.496007106	0.592403946	0.008584240	0.088562021	0.027295675
2020-04-28T05:40:00	0.2090	7.912	182.0	0.497129607	0.593953432	0.008619673	0.088927577	0.027408343
2020-04-28T05:45:00	0.2090	7.913	182.0	0.497220780	0.594079330	0.008622554	0.088957302	0.027417504
2020-04-28T05:50:00	0.2093	7.914	182.0	0.497999273	0.595154602	0.008647175	0.089211310	0.027495792
2020-04-28T05:55:00	0.2088	7.917	183.0	0.496371904	0.592907397	0.008595747	0.088680740	0.027332265
2020-04-28T06:00:00	0.2087	7.920	182.0	0.496119298	0.592558770	0.008587778	0.088598525	0.027306926
2020-04-28T06:05:00	0.2087	7.925	183.0	0.496210499	0.592684632	0.008590655	0.088628203	0.027316073
2020-04-28T06:10:00	0.2088	7.932	183.0	0.496301696	0.592810497	0.008593532	0.088657886	0.027325221
2020-04-28T06:15:00	0.2089	7.938	183.0	0.496736663	0.593410902	0.008607261	0.088799525	0.027368876
2020-04-28T06:20:00	0.2088	7.946	182.0	0.496484085	0.593062238	0.008599287	0.088717264	0.027343522
2020-04-28T06:25:00	0.2094	7.956	182.0	0.498293692	0.595561387	0.008656495	0.089307467	0.027525429
2020-04-28T06:30:00	0.2095	7.967	182.0	0.498728404	0.596162136	0.008670266	0.089449538	0.027569216
2020-04-28T06:35:00	0.2098	7.978	182.0	0.499850011	0.597712837	0.008705847	0.089816618	0.027682354
2020-04-28T06:40:00	0.2094	7.992	183.0	0.498567111	0.595939219	0.008665155	0.089396812	0.027552966
2020-04-28T06:45:00	0.2094	8.009	183.0	0.498314668	0.595590371	0.008657160	0.089314320	0.027527541
2020-04-28T06:50:00	0.2093	8.028	183.0	0.498062207	0.595241549	0.008649167	0.089231859	0.027502126
2020-04-28T06:55:00	0.2089	8.050	183.0	0.496778634	0.593468845	0.008608586	0.088813198	0.027373090
2020-04-28T07:00:00	0.2092	8.073	183.0	0.497900882	0.595018675	0.008644061	0.089179186	0.027485891
2020-04-28T07:05:00	0.2090	8.098	183.0	0.496960997	0.593720620	0.008614346	0.088872619	0.027391404
2020-04-28T07:10:00	0.2088	8.123	183.0	0.496364661	0.592897401	0.008595519	0.088678382	0.027331539
2020-04-28T07:15:00	0.2087	8.153	183.0	0.496112055	0.592548774	0.008587550	0.088596168	0.027306199
2020-04-28T07:20:00	0.2084	8.185	183.0	0.495171677	0.591251388	0.008557916	0.088290440	0.027211971
2020-04-28T07:25:00	0.2084	8.224	184.0	0.494918982	0.590902882	0.008549961	0.088208376	0.027186678
2020-04-28T07:30:00	0.2085	8.262	184.0	0.495354125	0.591503047	0.008563661	0.088349715	0.027230240
2020-04-28T07:35:00	0.2079	8.308	184.0	0.493381416	0.588783431	0.008501641	0.087709860	0.027033031
2020-04-28T07:40:00	0.2081	8.369	184.0	0.494160787	0.589857514	0.008526117	0.087962375	0.027110858
2020-04-28T07:45:00	0.2079	8.430	184.0	0.493219869	0.588560857	0.008496572	0.087657564	0.027016912
2020-04-28T07:50:00	0.2087	8.490	185.0	0.496062832	0.592480847	0.008585997	0.088580152	0.027301263
2020-04-28T07:55:00	0.2090	8.541	185.0	0.497185316	0.594030358	0.008621433	0.088945739	0.027413941
2020-04-28T08:00:00	0.2083	8.621	185.0	0.494525783	0.590360697	0.008537591	0.088080758	0.027147345
2020-04-28T08:05:00	0.2078	8.685	185.0	0.492896752	0.588115741	0.008486437	0.087553011	0.026984688
2020-04-28T08:10:00	0.2077	8.738	185.0	0.492643889	0.587767463	0.008478511	0.087471234	0.026959484
2020-04-28T08:15:00	0.2079	8.803	186.0	0.493423428	0.588841318	0.008502959	0.087723463	0.027037223
2020-04-28T08:20:00	0.2083	8.873	186.0	0.494546782	0.590389650	0.008538252	0.088087571	0.027149445
2020-04-28T08:25:00	0.2082	8.952	186.0	0.494294041	0.590041206	0.008530305	0.088005586	0.027124176
2020-04-28T08:30:00	0.2081	9.048	187.0	0.494041282	0.589692787	0.008522361	0.087923632	0.027098917
2020-04-28T08:35:00	0.2079	9.144	187.0	0.493444434	0.588870261	0.008503618	0.087730264	0.027039319
2020-04-28T08:40:00	0.2077	9.259	188.0	0.492503318	0.587573873	0.008474106	0.087425789	0.026945477
2020-04-28T08:45:00	0.2082	9.376	188.0	0.494315042	0.590070157	0.008530965	0.088012397	0.027126275
2020-04-28T08:50:00	0.2080	9.481	189.0	0.493718243	0.589247566	0.008512214	0.087818947	0.027066652
2020-04-28T08:55:00	0.2079	9.575	189.0	0.493465440	0.588899205	0.008504278	0.087737066	0.027041416
2020-04-28T09:00:00	0.2081	9.667	189.0	0.493900769	0.589499119	0.008517947	0.087878090	0.027084881
2020-04-28T09:05:00	0.2083	9.725	190.0	0.494680021	0.590573363	0.008542443	0.088130807	0.027162771
2020-04-28T09:10:00	0.2084	9.849	190.0	0.495115195	0.591173487	0.008556138	0.088272094	0.027206317
2020-04-28T09:15:00	0.2079	9.873	190.0	0.493142347	0.588454058	0.008494140	0.087632474	0.027009180
2020-04-28T09:20:00	0.2079	9.899	190.0	0.493233627	0.588579812	0.008497003	0.087662017	0.027018285
2020-04-28T09:25:00	0.2072	9.985	191.0	0.490915363	0.585388070	0.008424425	0.086913238	0.026787504
2020-04-28T09:30:00	0.2074	10.033	191.0	0.491695299	0.586461390	0.008448808	0.087164794	0.026865036
2020-04-28T09:35:00	0.2068	10.122	192.0	0.489375985	0.583271064	0.008376402	0.086417795	0.026634804
2020-04-28T09:40:00	0.2071	10.243	192.0	0.490500676	0.584817592	0.008411475	0.086779634	0.026746326
2020-04-28T09:45:00	0.2066	10.361	192.0	0.488869716	0.582575239	0.008360638	0.086255161	0.026584678
2020-04-28T09:50:00	0.2081	10.384	193.0	0.494125290	0.589808584	0.008525001	0.087950866	0.027107311
2020-04-28T09:55:00	0.2076	10.416	193.0	0.492151868	0.587089931	0.008463098	0.087312221	0.026910474
2020-04-28T10:00:00	0.2066	10.427	193.0	0.488799353	0.582478548	0.008358448	0.086232570	0.026577716
2020-04-28T10:05:00	0.2062	10.498	193.0	0.487515365	0.580714806	0.008318539	0.085820838	0.026450816
2020-04-28T10:10:00	0.2063	10.569	193.0	0.487954540	0.581317928	0.008332179	0.085961557	0.026494187
2020-04-28T10:15:00	0.2062	10.628	194.0	0.487359708	0.580501078	0.008313708	0.085770990	0.026435452
2020-04-28T10:20:00	0.2056	10.738	194.0	0.485385439	0.577791955	0.008252546	0.085139997	0.026240974
2020-04-28T10:25:00	0.2057	10.862	195.0	0.485824889	0.578394707	0.008266141	0.085280249	0.026284201
2020-04-28T10:30:00	0.2051	10.904	194.0	0.483504650	0.575214005	0.008194489	0.084541030	0.026056366
2020-04-28T10:35:00	0.2052	10.918	195.0	0.483944344	0.575816430	0.008208043	0.084680870	0.026099467
2020-04-28T10:40:00	0.2049	11.017	196.0	0.483003681	0.574527816	0.008179059	0.084381842	0.026007303
2020-04-28T10:45:00	0.2040	11.117	196.0	0.479990675	0.570405058	0.008086561	0.083427561	0.025713185
2020-04-28T10:50:00	0.2042	11.148	196.0	0.480430826	0.571006873	0.008100041	0.083566630	0.025756047
2020-04-28T10:55:00	0.2048	11.181	196.0	0.482597293	0.573971324	0.008166552	0.084252817	0.025967536
2020-04-28T11:00:00	0.2041	11.211	196.0	0.480274843	0.570793581	0.008095263	0.083517333	0.025740853
2020-04-28T11:05:00	0.2039	11.239	196.0	0.479678662	0.569978537	0.008077012	0.083329047	0.025682822
2020-04-28T11:10:00	0.2036	11.310	197.0	0.478391216	0.568219426	0.008037670	0.082923162	0.025557724
2020-04-28T11:15:00	0.2036	11.374	197.0	0.478485986	0.568348871	0.008040563	0.082953006	0.025566922
2020-04-28T11:20:00	0.2033	11.388	197.0	0.477543805	0.567062282	0.008011827	0.082656539	0.025475548
2020-04-28T11:25:00	0.2027	11.403	197.0	0.475217886	0.563889165	0.007941104	0.081926911	0.025250670
2020-04-28T11:30:00	0.2026	11.457	197.0	0.474966797	0.563546877	0.007933488	0.081848337	0.025226452
2020-04-28T11:35:00	0.2026	11.551	198.0	0.475061663	0.563676194	0.007936365	0.081878019	0.025235601
2020-04-28T11:40:00	0.2025	11.660	198.0	0.474810562	0.563333920	0.007928751	0.081799465	0.025211389
2020-04-28T11:45:00	0.2031	11.742	198.0	0.476634850	0.565821734	0.007984152	0.082371024	0.025387550
2020-04-28T11:50:00	0.2026	11.843	199.0	0.475000300	0.563592546	0.007934504	0.081858819	0.025229683
2020-04-28T11:55:00	0.2031	11.931	199.0	0.476824485	0.566080495	0.007989922	0.082430551	0.025405896
2020-04-28T12:00:00	0.2021	12.024	199.0	0.473459871	0.561493665	0.007887856	0.081377552	0.025081352
2020-04-28T12:05:00	0.2020	12.131	200.0	0.472862488	0.560680221	0.007869802	0.081191293	0.025023945
2020-04-28T12:10:00	0.2015	12.244	201.0	0.471226113	0.558453456	0.007820452	0.080682162	0.024867026
2020-04-28T12:15:00	0.2015	12.361	201.0	0.471321084	0.558582633	0.007823312	0.080711667	0.024876120
2020-04-28T12:20:00	0.2012	12.468	202.0	0.470030450	0.556827755	0.007784490	0.080311151	0.024752677
2020-04-28T12:25:00	0.2004	12.538	202.0	0.467352622	0.553190922	0.007704246	0.079483286	0.024497521
2020-04-28T12:30:00	0.2005	12.599	202.0	0.467794421	0.553790549	0.007717457	0.079619579	0.024539528
2020-04-28T12:35:00	0.1999	12.669	202.0	0.465808699	0.551096663	0.007658167	0.079007895	0.024351000
2020-04-28T12:40:00	0.2000	12.732	203.0	0.465903822	0.551225639	0.007661002	0.079037144	0.024360015
2020-04-28T12:45:00	0.2000	12.773	203.0	0.465998943	0.551354618	0.007663837	0.079066397	0.024369032
2020-04-28T12:50:00	0.1998	12.810	203.0	0.465400238	0.550542921	0.007645999	0.078882360	0.024312309
2020-04-28T12:55:00	0.1987	12.848	203.0	0.461329547	0.545031597	0.007525254	0.077636659	0.023928372
2020-04-28T13:00:00	0.1989	12.873	203.0	0.462119440	0.546100009	0.007548610	0.077877617	0.024002638
2020-04-28T13:05:00	0.1983	12.871	204.0	0.460130368	0.543410526	0.007489864	0.077271550	0.023815842
2020-04-28T13:10:00	0.1974	12.845	203.0	0.457096868	0.539314864	0.007400707	0.076351727	0.023532344
2020-04-28T13:15:00	0.1966	12.824	203.0	0.454060627	0.535222783	0.007311993	0.075436489	0.023250259
2020-04-28T13:20:00	0.1958	12.840	203.0	0.451370054	0.531602654	0.007233819	0.074629972	0.023001682
2020-04-28T13:25:00	0.1952	12.857	203.0	0.449374605	0.528921489	0.007176106	0.074034567	0.022818173
2020-04-28T13:30:00	0.1947	12.877	204.0	0.447726762	0.526709747	0.007128618	0.073544642	0.022667173
2020-04-28T13:35:00	0.1947	12.888	204.0	0.447473613	0.526370160	0.007121337	0.073469518	0.022644019
2020-04-28T13:40:00	0.1942	12.891	203.0	0.445824835	0.524159629	0.007074000	0.072981153	0.022493500
2020-04-28T13:45:00	0.1945	12.876	204.0	0.446967259	0.525691058	0.007106783	0.073319367	0.022597741
2020-04-28T13:50:00	0.1945	12.862	204.0	0.446714053	0.525351545	0.007099510	0.073244340	0.022574617
2020-04-28T13:55:00	0.1943	12.855	203.0	0.446111900	0.524544346	0.007082230	0.073066066	0.022519671
2020-04-28T14:00:00	0.1939	12.853	204.0	0.444811550	0.522802170	0.007044985	0.072681810	0.022401240
2020-04-28T14:05:00	0.1941	12.845	204.0	0.445605340	0.523865511	0.007067710	0.072916259	0.022473499
2020-04-28T14:10:00	0.1947	12.832	203.0	0.447445524	0.526332482	0.007120529	0.073461185	0.022641451
2020-04-28T14:15:00	0.1943	12.814	203.0	0.446145692	0.524589637	0.007083200	0.073076065	0.022522753
2020-04-28T14:20:00	0.1941	12.787	203.0	0.445543437	0.523782570	0.007065936	0.072897962	0.022467860
2020-04-28T14:25:00	0.1943	12.759	203.0	0.446337053	0.524846135	0.007088689	0.073132700	0.022540209
2020-04-28T14:30:00	0.1944	12.721	203.0	0.446432730	0.524974389	0.007091435	0.073161025	0.022548938
2020-04-28T14:35:00	0.1940	12.679	203.0	0.445132504	0.523232053	0.007054169	0.072776560	0.022430443
2020-04-28T14:40:00	0.1943	12.637	203.0	0.446275164	0.524763177	0.007086914	0.073114381	0.022534562
2020-04-28T14:45:00	0.1944	12.594	202.0	0.446370843	0.524891429	0.007089659	0.073142703	0.022543291
2020-04-28T14:50:00	0.1938	12.553	202.0	0.444372412	0.522214125	0.007032428	0.072552267	0.022361313
2020-04-28T14:55:00	0.1937	12.518	202.0	0.444119010	0.521874865	0.007025188	0.072477566	0.022338290
2020-04-28T15:00:00	0.1939	12.488	202.0	0.444912964	0.522937994	0.007047886	0.072711742	0.022410465
2020-04-28T15:05:00	0.1942	12.462	202.0	0.445706729	0.524001365	0.007070615	0.072946231	0.022482737
2020-04-28T15:10:00	0.1946	12.437	202.0	0.447198044	0.526000552	0.007113414	0.073387784	0.022618828
2020-04-28T15:15:00	0.1947	12.414	202.0	0.447642500	0.526596708	0.007126194	0.073519632	0.022659465
2020-04-28T15:20:00	0.1956	12.391	202.0	0.450875654	0.530938066	0.007219498	0.074482235	0.022956148
2020-04-28T15:25:00	0.1958	12.365	202.0	0.451319623	0.531534854	0.007232357	0.074614896	0.022997036
2020-04-28T15:30:00	0.1962	12.336	202.0	0.452808442	0.533537275	0.007275560	0.075060610	0.023134409
2020-04-28T15:35:00	0.1961	12.312	201.0	0.452555677	0.533197190	0.007268216	0.074984847	0.023111058
2020-04-28T15:40:00	0.1964	12.286	201.0	0.453347635	0.534262905	0.007291237	0.075222351	0.023184259
2020-04-28T15:45:00	0.1968	12.262	201.0	0.454835555	0.536266497	0.007334586	0.075669567	0.023322095
2020-04-28T15:50:00	0.1979	12.239	201.0	0.458757127	0.541555551	0.007449438	0.076854483	0.023687298
2020-04-28T15:55:00	0.1987	12.211	201.0	0.461632284	0.545441022	0.007534201	0.077728966	0.023956822
2020-04-28T16:00:00	0.1987	12.179	201.0	0.461380182	0.545100071	0.007526750	0.077652095	0.023933130
2020-04-28T16:05:00	0.1984	12.144	201.0	0.460337935	0.543691037	0.007495984	0.077334686	0.023835301
2020-04-28T16:10:00	0.1989	12.111	201.0	0.462074834	0.546039662	0.007547290	0.077864000	0.023998441
2020-04-28T16:15:00	0.1990	12.082	200.0	0.462422106	0.546509528	0.007557569	0.077970043	0.024031125
2020-04-28T16:20:00	0.1981	12.051	200.0	0.459295365	0.542282426	0.007465270	0.077017819	0.023737640
2020-04-28T16:25:00	0.1983	12.023	201.0	0.459990448	0.543221453	0.007485740	0.077229004	0.023802729
2020-04-28T16:30:00	0.1973	11.994	200.0	0.456513598	0.538528199	0.007383624	0.076175487	0.023478025
2020-04-28T16:35:00	0.1974	11.966	200.0	0.456861445	0.538997313	0.007393809	0.076280568	0.023510412
2020-04-28T16:40:00	0.1976	11.939	200.0	0.457557030	0.539935682	0.007414198	0.076490910	0.023575241
2020-04-28T16:45:00	0.1976	11.914	200.0	0.457557030	0.539935682	0.007414198	0.076490910	0.023575241
2020-04-28T16:50:00	0.1976	11.893	200.0	0.457557030	0.539935682	0.007414198	0.076490910	0.023575241
2020-04-28T16:55:00	0.1970	11.873	199.0	0.455469841	0.537121140	0.007353103	0.075860606	0.023380976
2020-04-28T17:00:00	0.1970	11.855	200.0	0.455469841	0.537121140	0.007353103	0.075860606	0.023380976
2020-04-28T17:05:00	0.1972	11.837	200.0	0.456165715	0.538059133	0.007373444	0.076070467	0.023445657
2020-04-28T17:10:00	0.1974	11.821	200.0	0.456861445	0.538997313	0.007393809	0.076280568	0.023510412
2020-04-28T17:15:00	0.1976	11.802	199.0	0.457557030	0.539935682	0.007414198	0.076490910	0.023575241
2020-04-28T17:20:00	0.1976	11.783	200.0	0.457557030	0.539935682	0.007414198	0.076490910	0.023575241
2020-04-28T17:25:00	0.1977	11.763	199.0	0.457904769	0.540404937	0.007424401	0.076596172	0.023607684
2020-04-28T17:30:00	0.1986	11.741	199.0	0.461032802	0.544630346	0.007516489	0.077546232	0.023900502
2020-04-28T17:35:00	0.1993	11.718	199.0	0.463463708	0.547919409	0.007588440	0.078288532	0.024129286
2020-04-28T17:40:00	0.1997	11.697	199.0	0.464852009	0.549799907	0.007629682	0.078714024	0.024260427
2020-04-28T17:45:00	0.1998	11.677	198.0	0.465198995	0.550270150	0.007640007	0.078820547	0.024293258
2020-04-28T17:50:00	0.1998	11.654	198.0	0.465198995	0.550270150	0.007640007	0.078820547	0.024293258
2020-04-28T17:55:00	0.1999	11.632	199.0	0.465545946	0.550740439	0.007650338	0.078927130	0.024326108
2020-04-28T18:00:00	0.1997	11.611	198.0	0.464852009	0.549799907	0.007629682	0.078714024	0.024260427
2020-04-28T18:05:00	0.1998	11.590	198.0	0.465198995	0.550270150	0.007640007	0.078820547	0.024293258
2020-04-28T18:10:00	0.1995	11.567	198.0	0.464157930	0.548859564	0.007609049	0.078501158	0.024194819
2020-04-28T18:15:00	0.2006	11.545	198.0	0.467973598	0.554033780	0.007722818	0.079674887	0.024556574
2020-04-28T18:20:00	0.2005	11.521	198.0	0.467626898	0.553563162	0.007712446	0.079567885	0.024523595
2020-04-28T18:25:00	0.2009	11.498	198.0	0.469013486	0.555445917	0.007753967	0.079996253	0.024655622
2020-04-28T18:30:00	0.2006	11.474	198.0	0.467973598	0.554033780	0.007722818	0.079674887	0.024556574
2020-04-28T18:35:00	0.2017	11.452	198.0	0.471784955	0.559213685	0.007837288	0.080855859	0.024920561
2020-04-28T18:40:00	0.2013	11.431	197.0	0.470399505	0.557329425	0.007795582	0.080425578	0.024787944
2020-04-28T18:45:00	0.2018	11.409	198.0	0.472131229	0.559684868	0.007847729	0.080963579	0.024953761
2020-04-28T18:50:00	0.2017	11.387	198.0	0.471784955	0.559213685	0.007837288	0.080855859	0.024920561
2020-04-28T18:55:00	0.2017	11.364	197.0	0.471784955	0.559213685	0.007837288	0.080855859	0.024920561
2020-04-28T19:00:00	0.2016	11.341	197.0	0.471438646	0.558742549	0.007826853	0.080748199	0.024887379
2020-04-28T19:05:00	0.2016	11.317	197.0	0.471438646	0.558742549	0.007826853	0.080748199	0.024887379
2020-04-28T19:10:00	0.2019	11.293	197.0	0.472477467	0.560156097	0.007858176	0.081071358	0.024986980
2020-04-28T19:15:00	0.2020	11.270	197.0	0.472823670	0.560627374	0.007868629	0.081179197	0.025020217
2020-04-28T19:20:00	0.2023	11.246	197.0	0.473862066	0.562041486	0.007900022	0.081503072	0.025120038
2020-04-28T19:25:00	0.2017	11.224	197.0	0.471784955	0.559213685	0.007837288	0.080855859	0.024920561
2020-04-28T19:30:00	0.2018	11.202	197.0	0.472131229	0.559684868	0.007847729	0.080963579	0.024953761
2020-04-28T19:35:00	0.2021	11.180	197.0	0.473169837	0.561098697	0.007879088	0.081287096	0.025053472
2020-04-28T19:40:00	0.2016	11.159	197.0	0.471438646	0.558742549	0.007826853	0.080748199	0.024887379
2020-04-28T19:45:00	0.2016	11.140	196.0	0.471438646	0.558742549	0.007826853	0.080748199	0.024887379
2020-04-28T19:50:00	0.2017	11.121	196.0	0.471784955	0.559213685	0.007837288	0.080855859	0.024920561
2020-04-28T19:55:00	0.2016	11.104	196.0	0.471438646	0.558742549	0.007826853	0.080748199	0.024887379
2020-04-28T20:00:00	0.2013	11.085	197.0	0.470399505	0.557329425	0.007795582	0.080425578	0.024787944
2020-04-28T20:05:00	0.2013	11.069	195.0	0.470399505	0.557329425	0.007795582	0.080425578	0.024787944
2020-04-28T20:10:00	0.2009	11.052	196.0	0.469013486	0.555445917	0.007753967	0.079996253	0.024655622
2020-04-28T20:15:00	0.2008	11.035	195.0	0.468666893	0.554975158	0.007743578	0.079889071	0.024622588
2020-04-28T20:20:00	0.2010	11.019	195.0	0.469360044	0.555916723	0.007764362	0.080103494	0.024688675
2020-04-28T20:25:00	0.2001	11.003	196.0	0.466239739	0.551681158	0.007671018	0.079140475	0.024391863
2020-04-28T20:30:00	0.1999	10.987	195.0	0.465545946	0.550740439	0.007650338	0.078927130	0.024326108
2020-04-28T20:35:00	0.1998	10.970	195.0	0.465198995	0.550270150	0.007640007	0.078820547	0.024293258
2020-04-28T20:40:00	0.1994	10.953	195.0	0.463810837	0.548389463	0.007598742	0.078394815	0.024162043
2020-04-28T20:45:00	0.1996	10.933	196.0	0.464504988	0.549329712	0.007619363	0.078607561	0.024227614
2020-04-28T20:50:00	0.1997	10.914	196.0	0.464852009	0.549799907	0.007629682	0.078714024	0.024260427
2020-04-28T20:55:00	0.1998	10.895	195.0	0.465198995	0.550270150	0.007640007	0.078820547	0.024293258
2020-04-28T21:00:00	0.1999	10.877	196.0	0.465545946	0.550740439	0.007650338	0.078927130	0.024326108
2020-04-28T21:05:00	0.1998	10.859	196.0	0.465198995	0.550270150	0.007640007	0.078820547	0.024293258
2020-04-28T21:10:00	0.1994	10.842	196.0	0.463810837	0.548389463	0.007598742	0.078394815	0.024162043
2020-04-28T21:15:00	0.2000	10.824	195.0	0.465892860	0.551210775	0.007660675	0.079033773	0.024358976
2020-04-28T21:20:00	0.1998	10.807	195.0	0.465198995	0.550270150	0.007640007	0.078820547	0.024293258
2020-04-28T21:25:00	0.2002	10.792	195.0	0.466586582	0.552151589	0.007681366	0.079247238	0.024424768
2020-04-28T21:30:00	0.2004	10.776	195.0	0.467280162	0.553092590	0.007702080	0.079460943	0.024490634
2020-04-28T21:35:00	0.1994	10.761	194.0	0.463810837	0.548389463	0.007598742	0.078394815	0.024162043
2020-04-28T21:40:00	0.2007	10.744	195.0	0.468320263	0.554504445	0.007733195	0.079781949	0.024589572
2020-04-28T21:45:00	0.2004	10.729	194.0	0.467280162	0.553092590	0.007702080	0.079460943	0.024490634
2020-04-28T21:50:00	0.2002	10.712	195.0	0.466586582	0.552151589	0.007681366	0.079247238	0.024424768
2020-04-28T21:55:00	0.1997	10.696	194.0	0.464852009	0.549799907	0.007629682	0.078714024	0.024260427
2020-04-28T22:00:00	0.1995	10.680	194.0	0.464157930	0.548859564	0.007609049	0.078501158	0.024194819
2020-04-28T22:05:00	0.1995	10.665	194.0	0.464409825	0.549200788	0.007616534	0.078578379	0.024218619
2020-04-28T22:10:00	0.1989	10.650	194.0	0.462231660	0.546251839	0.007551931	0.077911880	0.024013198
2020-04-28T22:15:00	0.1987	10.635	194.0	0.461441793	0.545183391	0.007528571	0.077670878	0.023938919
2020-04-28T22:20:00	0.1986	10.620	194.0	0.460999160	0.544584860	0.007515496	0.077535983	0.023897343
2020-04-28T22:25:00	0.1988	10.604	194.0	0.461945969	0.545865330	0.007543478	0.077824668	0.023986319
2020-04-28T22:30:00	0.1982	10.590	194.0	0.459766209	0.542918474	0.007479134	0.077160843	0.023781721
2020-04-28T22:35:00	0.1992	10.575	194.0	0.463144502	0.547487249	0.007578972	0.078190861	0.024099183
2020-04-28T22:40:00	0.1994	10.561	194.0	0.464090708	0.548768511	0.007607052	0.078480557	0.024188470
2020-04-28T22:45:00	0.1995	10.548	194.0	0.464342607	0.549109729	0.007614536	0.078557769	0.024212267
2020-04-28T22:50:00	0.1996	10.537	194.0	0.464594488	0.549450971	0.007622024	0.078635012	0.024236075
2020-04-28T22:55:00	0.2002	10.525	194.0	0.466580926	0.552143916	0.007681197	0.079245496	0.024424232
2020-04-28T23:00:00	0.1991	10.514	194.0	0.463015678	0.547312864	0.007575153	0.078151461	0.024087039
2020-04-28T23:05:00	0.1995	10.504	193.0	0.464308998	0.549064200	0.007613538	0.078547465	0.024209092
2020-04-28T23:10:00	0.1994	10.494	194.0	0.463866742	0.548465174	0.007600401	0.078411939	0.024167321
2020-04-28T23:15:00	0.1999	10.484	194.0	0.465506690	0.550687223	0.007649169	0.078915067	0.024322390
2020-04-28T23:20:00	0.1995	10.477	193.0	0.464370556	0.549147590	0.007615367	0.078566338	0.024214908
2020-04-28T23:25:00	0.1995	10.470	193.0	0.464275389	0.549018671	0.007612539	0.078537162	0.024205916
2020-04-28T23:30:00	0.1990	10.461	194.0	0.462444407	0.546539705	0.007558229	0.077976855	0.024033224
2020-04-28T23:35:00	0.1984	10.452	193.0	0.460612428	0.544062046	0.007504081	0.077418219	0.023861047
2020-04-28T23:40:00	0.1976	10.442	193.0	0.457736399	0.540177718	0.007419460	0.076545197	0.023591973
2020-04-28T23:45:00	0.1970	10.434	193.0	0.455553907	0.537234435	0.007355559	0.075885943	0.023388785
2020-04-28T23:50:00	0.1966	10.425	193.0	0.454066305	0.535230428	0.007312159	0.075438195	0.023250784
2020-04-28T23:55:00	0.1968	10.415	193.0	0.455015069	0.536508343	0.007339824	0.075723610	0.023338752
2020-04-29T00:00:00	0.1963	10.406	193.0	0.453179035	0.534035985	0.007286333	0.075171758	0.023168666
2020-04-29T00:05:00	0.1959	10.397	193.0	0.451690380	0.532033349	0.007243104	0.074725769	0.023031208
2020-04-29T00:10:00	0.1965	10.388	193.0	0.453684453	0.534716302	0.007301039	0.075323473	0.023215426
2020-04-29T00:15:00	0.1963	10.379	193.0	0.453240797	0.534119108	0.007288130	0.075190289	0.023174377
2020-04-29T00:20:00	0.1959	10.371	193.0	0.451752169	0.532116437	0.007244896	0.074744255	0.023036905
2020-04-29T00:25:00	0.1953	10.362	193.0	0.449565782	0.529178226	0.007181626	0.074091510	0.022835723
2020-04-29T00:30:00	0.1949	10.354	193.0	0.448424244	0.527645650	0.007148700	0.073751818	0.022731027
2020-04-29T00:35:00	0.1946	10.345	193.0	0.447282317	0.526113577	0.007115837	0.073412775	0.022626530
2020-04-29T00:40:00	0.1941	10.336	193.0	0.445442043	0.523646722	0.007063032	0.072867998	0.022458625
2020-04-29T00:45:00	0.1942	10.326	193.0	0.445695345	0.523986111	0.007070289	0.072942865	0.022481700
2020-04-29T00:50:00	0.1943	10.318	193.0	0.446297573	0.524793213	0.007087557	0.073121014	0.022536607
2020-04-29T00:55:00	0.1948	10.310	193.0	0.447946118	0.527004045	0.007134931	0.073609767	0.022687245
2020-04-29T01:00:00	0.1944	10.304	193.0	0.446455137	0.525004427	0.007092078	0.073167659	0.022550983
2020-04-29T01:05:00	0.1947	10.297	192.0	0.447406056	0.526279543	0.007119394	0.073449477	0.022637842
2020-04-29T01:10:00	0.1949	10.290	192.0	0.448356706	0.527555009	0.007146754	0.073731744	0.022724840
2020-04-29T01:15:00	0.1953	10.283	192.0	0.449655681	0.529298964	0.007184222	0.074118294	0.022843978
2020-04-29T01:20:00	0.1949	10.277	193.0	0.448165460	0.527298361	0.007141246	0.073674917	0.022707325
2020-04-29T01:25:00	0.1950	10.271	192.0	0.448767244	0.528106038	0.007158585	0.073853805	0.022762460
2020-04-29T01:30:00	0.1945	10.263	192.0	0.446927785	0.525638127	0.007105649	0.073307669	0.022594135
2020-04-29T01:35:00	0.1945	10.255	192.0	0.446832123	0.525509854	0.007102901	0.073279321	0.022585398
2020-04-29T01:40:00	0.1946	10.247	192.0	0.447085320	0.525849379	0.007110175	0.073354363	0.022608527
2020-04-29T01:45:00	0.1936	10.242	192.0	0.443848503	0.521512761	0.007017462	0.072397865	0.022313725
2020-04-29T01:50:00	0.1940	10.238	192.0	0.445149227	0.523254453	0.007054648	0.072781499	0.022431965
2020-04-29T01:55:00	0.1933	10.230	192.0	0.442609231	0.519854591	0.006982123	0.072033277	0.022201356
2020-04-29T02:00:00	0.1932	10.219	192.0	0.442513445	0.519726477	0.006979395	0.072005135	0.022192682
2020-04-29T02:05:00	0.1926	10.207	192.0	0.440491047	0.516796280	0.006918884	0.071380855	0.022000273
2020-04-29T02:10:00	0.1926	10.195	192.0	0.440416572	0.516668304	0.006916391	0.071355135	0.021992346
2020-04-29T02:15:00	0.1932	10.180	192.0	0.442226071	0.519342159	0.006971215	0.071920735	0.022166669
2020-04-29T02:20:00	0.1931	10.165	192.0	0.442130274	0.519214060	0.006968489	0.071892611	0.022158001
2020-04-29T02:25:00	0.1928	10.151	191.0	0.441007848	0.517684767	0.006936199	0.071559491	0.022055330
2020-04-29T02:30:00	0.1926	10.138	192.0	0.440390270	0.516623111	0.006915511	0.071346053	0.021989546
2020-04-29T02:35:00	0.1934	10.123	192.0	0.442890875	0.520231331	0.006990147	0.072116057	0.022226869
2020-04-29T02:40:00	0.1926	10.108	192.0	0.440512918	0.516833865	0.006919617	0.071388410	0.022002601
2020-04-29T02:45:00	0.1924	10.095	192.0	0.439895158	0.515772753	0.006898953	0.071175222	0.021936895
2020-04-29T02:50:00	0.1921	10.079	191.0	0.439005362	0.514246248	0.006869255	0.070868840	0.021842465
2020-04-29T02:55:00	0.1914	10.064	191.0	0.437298969	0.511325009	0.006812523	0.070283543	0.021662071
2020-04-29T03:00:00	0.1911	10.052	191.0	0.436407792	0.509802604	0.006783008	0.069979047	0.021568222
2020-04-29T03:05:00	0.1916	10.040	191.0	0.437693909	0.512000398	0.006825628	0.070418745	0.021703741
2020-04-29T03:10:00	0.1914	10.026	191.0	0.437075109	0.510942380	0.006805102	0.070206979	0.021638473
2020-04-29T03:15:00	0.1911	10.013	191.0	0.436456081	0.509885040	0.006784606	0.069995526	0.021573301
2020-04-29T03:20:00	0.1911	9.998	191.0	0.436381427	0.509757598	0.006782136	0.069970051	0.021565449
2020-04-29T03:25:00	0.1915	9.984	191.0	0.437395494	0.511490036	0.006815724	0.070316572	0.021672251
2020-04-29T03:30:00	0.1918	9.968	191.0	0.438136996	0.512758642	0.006840349	0.070570618	0.021750550
2020-04-29T03:35:00	0.1910	9.954	191.0	0.436157444	0.509375333	0.006774731	0.069893654	0.021541903
2020-04-29T03:40:00	0.1915	9.944	190.0	0.437443754	0.511572556	0.006817325	0.070333090	0.021677341
2020-04-29T03:45:00	0.1917	9.938	191.0	0.437913249	0.512375681	0.006832913	0.070493901	0.021726905
2020-04-29T03:50:00	0.1915	9.932	191.0	0.437566617	0.511782668	0.006821402	0.070375151	0.021690305
2020-04-29T03:55:00	0.1916	9.926	191.0	0.437764068	0.512120422	0.006827958	0.070442779	0.021711149
2020-04-29T04:00:00	0.1919	9.920	190.0	0.438505407	0.513389512	0.006852603	0.070697047	0.021789516
2020-04-29T04:05:00	0.1920	9.915	191.0	0.438741238	0.513793552	0.006860455	0.070778051	0.021814483
2020-04-29T04:10:00	0.1927	9.911	190.0	0.440607259	0.516996006	0.006922776	0.071421001	0.022012646
2020-04-29T04:15:00	0.1918	9.907	191.0	0.438125260	0.512738551	0.006839959	0.070566592	0.021749309
2020-04-29T04:20:00	0.1917	9.905	190.0	0.438089187	0.512676801	0.006838759	0.070554221	0.021745496
2020-04-29T04:25:00	0.1918	9.904	190.0	0.438325077	0.513080667	0.006846603	0.070635145	0.021770438
2020-04-29T04:30:00	0.1919	9.903	190.0	0.438560934	0.513484631	0.006854452	0.070716114	0.021795393
2020-04-29T04:35:00	0.1925	9.900	191.0	0.440155532	0.516219861	0.006907657	0.071265029	0.021964574
2020-04-29T04:40:00	0.1925	9.898	191.0	0.440119503	0.516157981	0.006906453	0.071252598	0.021960743
2020-04-29T04:45:00	0.1933	9.895	190.0	0.442592139	0.519831730	0.006981636	0.072028255	0.022199808
2020-04-29T04:50:00	0.1938	9.896	191.0	0.444291941	0.522106383	0.007030129	0.072528541	0.022354001
2020-04-29T04:55:00	0.1937	9.898	190.0	0.444245634	0.522044386	0.007028805	0.072514889	0.022349793
2020-04-29T05:00:00	0.1939	9.902	191.0	0.444897544	0.522917342	0.007047445	0.072707190	0.022409062
2020-04-29T05:05:00	0.1951	9.905	190.0	0.449037551	0.528468920	0.007166381	0.073934227	0.022787247
2020-04-29T05:10:00	0.1955	9.911	191.0	0.450385602	0.530279514	0.007205318	0.074335938	0.022911058
2020-04-29T05:15:00	0.1956	9.920	190.0	0.450687867	0.530685688	0.007214063	0.074426158	0.022938865
2020-04-29T05:20:00	0.1962	9.931	191.0	0.452731842	0.533434207	0.007273334	0.075037646	0.023127331
2020-04-29T05:25:00	0.1974	9.940	191.0	0.456862193	0.538998323	0.007393831	0.076280794	0.023510482
2020-04-29T05:30:00	0.1973	9.946	191.0	0.456468208	0.538466993	0.007382295	0.076161781	0.023473800
2020-04-29T05:35:00	0.1976	9.951	191.0	0.457813279	0.540281466	0.007421715	0.076568471	0.023599146
2020-04-29T05:40:00	0.1982	9.960	190.0	0.459852923	0.543035632	0.007481688	0.077187198	0.023789844
2020-04-29T05:45:00	0.1980	9.967	191.0	0.459111710	0.542034380	0.007459866	0.076962067	0.023720457
2020-04-29T05:50:00	0.1980	9.983	190.0	0.459065608	0.541972118	0.007458510	0.076948075	0.023716144
2020-04-29T05:55:00	0.1986	9.997	190.0	0.461104492	0.544727277	0.007518606	0.077568073	0.023907234
2020-04-29T06:00:00	0.1986	10.013	191.0	0.461058417	0.544664979	0.007517245	0.077554035	0.023902907
2020-04-29T06:05:00	0.1988	10.026	190.0	0.461707069	0.545542174	0.007536412	0.077751777	0.023963853
2020-04-29T06:10:00	0.1986	10.039	191.0	0.461313652	0.545010102	0.007524784	0.077631814	0.023926879
2020-04-29T06:15:00	0.1986	10.052	190.0	0.461267580	0.544947800	0.007523423	0.077617772	0.023922551
2020-04-29T06:20:00	0.1990	10.065	191.0	0.462610733	0.546764784	0.007563155	0.078027672	0.024048886
2020-04-29T06:25:00	0.1991	10.085	191.0	0.462911900	0.547172391	0.007572077	0.078119727	0.024077259
2020-04-29T06:30:00	0.1988	10.110	191.0	0.461824063	0.545700424	0.007539872	0.077787469	0.023974853
2020-04-29T06:35:00	0.1986	10.135	191.0	0.461083285	0.544698602	0.007517980	0.077561612	0.023905242
2020-04-29T06:40:00	0.1988	10.154	191.0	0.461731932	0.545575803	0.007537148	0.077759361	0.023966190
2020-04-29T06:45:00	0.1982	10.172	191.0	0.459601238	0.542695600	0.007474275	0.077110717	0.023766272
2020-04-29T06:50:00	0.1981	10.189	191.0	0.459555143	0.542633329	0.007472918	0.077096713	0.023761956
2020-04-29T06:55:00	0.1984	10.207	192.0	0.460551550	0.543979757	0.007502285	0.077399689	0.023855336
2020-04-29T07:00:00	0.1993	10.224	191.0	0.463631085	0.548146045	0.007593406	0.078339770	0.024145078
2020-04-29T07:05:00	0.1991	10.243	192.0	0.462890704	0.547143701	0.007571449	0.078113247	0.024075261
2020-04-29T07:10:00	0.1986	10.264	191.0	0.461108152	0.544732225	0.007518714	0.077569188	0.023907577
2020-04-29T07:15:00	0.1984	10.279	191.0	0.460367216	0.543730610	0.007496848	0.077343595	0.023838047
2020-04-29T07:20:00	0.1991	10.300	192.0	0.462752550	0.546956714	0.007567356	0.078071013	0.024062245
2020-04-29T07:25:00	0.1999	10.319	192.0	0.465830073	0.551125643	0.007658804	0.079014467	0.024353026
2020-04-29T07:30:00	0.2000	10.338	192.0	0.466130953	0.551533629	0.007667773	0.079107004	0.024381547
2020-04-29T07:35:00	0.2002	10.354	192.0	0.466778629	0.552412106	0.007687099	0.079306383	0.024442997
2020-04-29T07:40:00	0.2000	10.377	192.0	0.466038940	0.551408853	0.007665030	0.079078699	0.024372823
2020-04-29T07:45:00	0.1998	10.405	192.0	0.465299088	0.550405814	0.007642987	0.078851288	0.024302733
2020-04-29T07:50:00	0.1998	10.434	192.0	0.465253070	0.550343441	0.007641617	0.078837154	0.024298377
2020-04-29T07:55:00	0.1997	10.448	192.0	0.464860067	0.549810825	0.007629922	0.078716497	0.024261189
2020-04-29T08:00:00	0.2000	10.475	192.0	0.465854905	0.551159312	0.007659544	0.079022102	0.024355379
2020-04-29T08:05:00	0.1997	10.507	193.0	0.465115013	0.550156326	0.007637508	0.078794758	0.024285310
2020-04-29T08:10:00	0.1995	10.537	192.0	0.464374958	0.549153554	0.007615498	0.078567688	0.024215324
2020-04-29T08:15:00	0.1992	10.569	192.0	0.463287594	0.547680966	0.007583216	0.078234637	0.024112675
2020-04-29T08:20:00	0.1993	10.597	192.0	0.463588701	0.548088652	0.007592148	0.078326794	0.024141079
2020-04-29T08:25:00	0.1985	10.621	193.0	0.460764403	0.544267484	0.007508566	0.077464487	0.023875307
2020-04-29T08:30:00	0.1984	10.644	193.0	0.460370876	0.543735557	0.007496956	0.077344708	0.023838390
2020-04-29T08:35:00	0.1992	10.674	193.0	0.463103409	0.547431622	0.007577754	0.078178292	0.024095309
2020-04-29T08:40:00	0.1985	10.700	193.0	0.460973584	0.544550281	0.007514740	0.077528192	0.023894942
2020-04-29T08:45:00	0.1984	10.737	193.0	0.460580081	0.544018322	0.007503127	0.077408373	0.023858012
2020-04-29T08:50:00	0.1975	10.779	194.0	0.457405501	0.539731231	0.007409754	0.076445064	0.023561111
2020-04-29T08:55:00	0.1981	10.821	193.0	0.459445392	0.542485074	0.007469686	0.077063377	0.023751681
2020-04-29T09:00:00	0.1977	10.847	194.0	0.458008741	0.540545260	0.007427452	0.076627658	0.023617388
2020-04-29T09:05:00	0.1981	10.884	194.0	0.459353196	0.542360538	0.007466973	0.077035379	0.023743052
2020-04-29T09:10:00	0.1976	10.949	195.0	0.457568768	0.539951520	0.007414542	0.076494462	0.023576336
2020-04-29T09:15:00	0.1985	10.984	194.0	0.460651033	0.544114229	0.007505220	0.077429971	0.023864669
2020-04-29T09:20:00	0.1983	11.000	194.0	0.460257492	0.543582320	0.007493612	0.077310215	0.023827759
2020-04-29T09:25:00	0.1986	11.045	195.0	0.461253691	0.544929020	0.007523013	0.077613539	0.023921246
2020-04-29T09:30:00	0.1991	11.072	195.0	0.462944068	0.547215933	0.007573031	0.078129563	0.024080290
2020-04-29T09:35:00	0.1988	11.103	195.0	0.461856241	0.545743951	0.007540824	0.077797287	0.023977880
2020-04-29T09:40:00	0.1983	11.139	195.0	0.460073141	0.543333194	0.007488178	0.077254147	0.023810478
2020-04-29T09:45:00	0.1980	11.174	195.0	0.458984386	0.541862430	0.007456121	0.076923427	0.023708547
2020-04-29T09:50:00	0.1986	11.188	195.0	0.461023320	0.544617525	0.007516209	0.077543343	0.023899611
2020-04-29T09:55:00	0.1993	11.188	195.0	0.463755324	0.548314285	0.007597094	0.078377814	0.024156803
2020-04-29T10:00:00	0.1986	11.211	195.0	0.461278557	0.544962644	0.007523748	0.077621117	0.023923582
2020-04-29T10:05:00	0.1989	11.250	196.0	0.462077784	0.546043653	0.007547377	0.077864901	0.023998719
2020-04-29T10:10:00	0.1988	11.284	196.0	0.461835038	0.545715270	0.007540197	0.077790818	0.023975886
2020-04-29T10:15:00	0.1995	11.302	196.0	0.464369848	0.549146631	0.007615346	0.078566121	0.024214842
2020-04-29T10:20:00	0.1993	11.326	196.0	0.463433039	0.547877884	0.007587530	0.078279146	0.024126393
2020-04-29T10:25:00	0.1987	11.348	196.0	0.461454068	0.545199991	0.007528934	0.077674620	0.023940072
2020-04-29T10:30:00	0.1988	11.356	196.0	0.461905964	0.545811212	0.007542294	0.077812460	0.023982556
2020-04-29T10:35:00	0.1977	11.365	196.0	0.458188085	0.540787327	0.007432718	0.076681985	0.023634132
2020-04-29T10:40:00	0.1975	11.390	196.0	0.457249553	0.539520838	0.007405182	0.076397895	0.023546573
2020-04-29T10:45:00	0.1965	11.435	196.0	0.453874674	0.534972403	0.007306577	0.075380612	0.023233037
2020-04-29T10:50:00	0.1964	11.480	196.0	0.453631336	0.534644794	0.007299493	0.075307521	0.023210509
2020-04-29T10:55:00	0.1973	11.514	197.0	0.456520217	0.538537125	0.007383818	0.076177486	0.023478641
2020-04-29T11:00:00	0.1972	11.533	197.0	0.456277070	0.538209267	0.007376702	0.076104075	0.023456015
2020-04-29T11:05:00	0.1967	11.557	197.0	0.454641958	0.536005706	0.007328938	0.075611305	0.023304139
2020-04-29T11:10:00	0.1971	11.590	197.0	0.455790722	0.537553620	0.007362479	0.075957342	0.023410790
2020-04-29T11:15:00	0.1970	11.621	197.0	0.455547522	0.537225830	0.007355372	0.075884019	0.023388192
2020-04-29T11:20:00	0.1966	11.644	197.0	0.454260172	0.535491495	0.007317808	0.075496473	0.023268746
2020-04-29T11:25:00	0.1966	11.666	197.0	0.454364966	0.535632626	0.007320862	0.075527984	0.023278458
2020-04-29T11:30:00	0.1965	11.693	197.0	0.453773532	0.534836228	0.007303632	0.075350228	0.023223672
2020-04-29T11:35:00	0.1957	11.728	197.0	0.451092081	0.531228971	0.007225765	0.074546890	0.022976076
2020-04-29T11:40:00	0.1944	11.775	198.0	0.446664500	0.525285107	0.007098088	0.073229661	0.022570093
2020-04-29T11:45:00	0.1949	11.832	198.0	0.448164749	0.527297407	0.007141225	0.073674706	0.022707260
2020-04-29T11:50:00	0.1959	11.899	198.0	0.451755129	0.532120416	0.007244982	0.074745140	0.023037178
2020-04-29T11:55:00	0.1990	11.929	198.0	0.462641449	0.546806352	0.007564064	0.078037058	0.024051779
2020-04-29T12:00:00	0.1991	11.900	198.0	0.462745982	0.546947825	0.007567161	0.078069006	0.024061626
2020-04-29T12:05:00	0.1995	11.853	197.0	0.464239067	0.548969469	0.007611460	0.078526027	0.024202484
2020-04-29T12:10:00	0.1996	11.852	198.0	0.464690589	0.549581180	0.007624881	0.078664493	0.024245161
2020-04-29T12:15:00	0.1992	11.855	198.0	0.463406734	0.547842269	0.007586749	0.078271095	0.024123912
2020-04-29T12:20:00	0.1994	11.830	198.0	0.463858368	0.548453833	0.007600153	0.078409374	0.024166531
2020-04-29T12:25:00	0.1994	11.798	197.0	0.463962864	0.548595356	0.007603255	0.078441385	0.024176397
2020-04-29T12:30:00	0.2000	11.774	197.0	0.466149222	0.551558403	0.007668318	0.079112625	0.024383279
2020-04-29T12:35:00	0.1997	11.760	197.0	0.464865923	0.549818761	0.007630096	0.078718294	0.024261743
2020-04-29T12:40:00	0.1991	11.753	197.0	0.462887794	0.547139762	0.007571363	0.078112357	0.024074987
2020-04-29T12:45:00	0.1993	11.761	197.0	0.463686639	0.548221273	0.007595055	0.078356781	0.024150321
2020-04-29T12:50:00	0.1987	11.785	197.0	0.461360471	0.545073415	0.007526168	0.077646086	0.023931278
2020-04-29T12:55:00	0.1974	11.817	197.0	0.456946421	0.539111929	0.007396299	0.076306249	0.023518327
2020-04-29T13:00:00	0.1966	11.841	197.0	0.454267505	0.535501371	0.007318021	0.075498678	0.023269426
2020-04-29T13:05:00	0.1957	11.859	197.0	0.450889625	0.530956844	0.007219903	0.074486408	0.022957434
2020-04-29T13:10:00	0.1952	11.880	197.0	0.449251886	0.528756702	0.007172565	0.073998026	0.022806910
2020-04-29T13:15:00	0.1951	11.897	197.0	0.449008211	0.528429529	0.007165534	0.073925496	0.022784556
2020-04-29T13:20:00	0.1941	11.918	197.0	0.445625025	0.523891887	0.007068274	0.072922077	0.022475292
2020-04-29T13:25:00	0.1938	11.935	198.0	0.444333857	0.522162504	0.007031326	0.072540899	0.022357810
2020-04-29T13:30:00	0.1934	11.946	198.0	0.443042192	0.520433764	0.006994460	0.072160550	0.022240582
2020-04-29T13:35:00	0.1937	11.946	197.0	0.444194938	0.521976513	0.007027357	0.072499945	0.022345187
2020-04-29T13:40:00	0.1943	11.925	197.0	0.446045264	0.524455037	0.007080320	0.073046351	0.022513595
2020-04-29T13:45:00	0.1956	11.905	197.0	0.450683486	0.530679800	0.007213936	0.074424850	0.022938461
2020-04-29T13:50:00	0.1972	11.886	197.0	0.456359106	0.538319879	0.007379102	0.076128840	0.023463648
2020-04-29T13:55:00	0.1978	11.846	196.0	0.458202735	0.540807101	0.007433149	0.076686423	0.023635500
2020-04-29T14:00:00	0.1981	11.804	196.0	0.459350283	0.542356603	0.007466887	0.077034494	0.023742779
2020-04-29T14:05:00	0.1976	11.761	196.0	0.457716666	0.540151090	0.007418881	0.076539224	0.023590132
2020-04-29T14:10:00	0.1972	11.727	196.0	0.456430147	0.538415670	0.007381181	0.076150288	0.023470258
2020-04-29T14:15:00	0.1967	11.701	196.0	0.454447049	0.535743177	0.007323255	0.075552670	0.023286067
2020-04-29T14:20:00	0.1966	11.684	196.0	0.454203751	0.535415515	0.007316164	0.075479511	0.023263518
2020-04-29T14:25:00	0.1965	11.679	196.0	0.453960436	0.535087875	0.007309075	0.075406380	0.023240979
2020-04-29T14:30:00	0.1958	11.679	196.0	0.451279135	0.531480424	0.007231184	0.074602793	0.022993305
2020-04-29T14:35:00	0.1962	11.676	196.0	0.452777321	0.533495400	0.007274655	0.075051280	0.023131533
2020-04-29T14:40:00	0.1966	11.670	196.0	0.454274838	0.535511247	0.007318235	0.075500883	0.023270105
2020-04-29T14:45:00	0.1965	11.681	196.0	0.453683388	0.534714869	0.007301008	0.075323153	0.023215327
2020-04-29T14:50:00	0.1964	11.683	196.0	0.453440035	0.534387279	0.007293926	0.075250086	0.023192807
2020-04-29T14:55:00	0.1963	11.678	196.0	0.453196665	0.534059711	0.007286846	0.075177048	0.023170296
2020-04-29T15:00:00	0.1958	11.679	196.0	0.451560052	0.531858106	0.007239325	0.074686786	0.023019193
2020-04-29T15:05:00	0.1964	11.678	196.0	0.453406317	0.534341892	0.007292945	0.075239964	0.023189688
2020-04-29T15:10:00	0.1955	11.677	196.0	0.450376089	0.530266732	0.007205043	0.074333100	0.022910183
2020-04-29T15:15:00	0.1943	11.683	196.0	0.446296506	0.524791783	0.007087526	0.073120698	0.022536509
2020-04-29T15:20:00	0.1945	11.678	196.0	0.446750446	0.525400340	0.007100555	0.073255121	0.022577940
2020-04-29T15:25:00	0.1934	11.671	196.0	0.443015727	0.520398357	0.006993705	0.072152767	0.022238184
2020-04-29T15:30:00	0.1928	11.665	196.0	0.441037739	0.517736177	0.006937202	0.071569831	0.022058517
2020-04-29T15:35:00	0.1927	11.654	196.0	0.440576407	0.516942980	0.006921743	0.071410342	0.022009361
2020-04-29T15:40:00	0.1930	11.646	195.0	0.441584523	0.518484423	0.006952968	0.071732492	0.022108651
2020-04-29T15:45:00	0.1927	11.640	196.0	0.440739917	0.517224046	0.006927219	0.071466845	0.022026776
2020-04-29T15:50:00	0.1933	11.634	196.0	0.442842927	0.520167189	0.006988781	0.072101961	0.022222525
2020-04-29T15:55:00	0.1932	11.624	195.0	0.442249455	0.519373430	0.006971880	0.071927601	0.022168785
2020-04-29T16:00:00	0.1925	11.611	195.0	0.440170423	0.516245438	0.006908156	0.071270167	0.021966158
2020-04-29T16:05:00	0.1927	11.601	196.0	0.440833815	0.517385484	0.006930366	0.071499305	0.022036780
2020-04-29T16:10:00	0.1929	11.595	196.0	0.441266355	0.518059158	0.006943928	0.071639225	0.022079905
2020-04-29T16:15:00	0.1926	11.589	196.0	0.440531098	0.516865108	0.006920225	0.071394689	0.022004537
2020-04-29T16:20:00	0.1934	11.590	196.0	0.442973081	0.520341305	0.006992490	0.072140227	0.022234319
2020-04-29T16:25:00	0.1939	11.599	196.0	0.444873506	0.522885146	0.007046757	0.072700095	0.022406875
2020-04-29T16:30:00	0.1944	11.608	196.0	0.446423957	0.524962629	0.007091183	0.073158427	0.022548138
2020-04-29T16:35:00	0.1940	11.598	196.0	0.445182515	0.523299043	0.007055600	0.072791330	0.022434995
2020-04-29T16:40:00	0.1948	11.585	195.0	0.447779301	0.526780233	0.007130130	0.073560238	0.022671980
2020-04-29T16:45:00	0.1951	11.573	196.0	0.448979779	0.528391358	0.007164714	0.073917035	0.022781948
2020-04-29T16:50:00	0.1960	11.558	196.0	0.452270307	0.532813297	0.007259930	0.074899356	0.023084709
2020-04-29T16:55:00	0.1958	11.549	196.0	0.451379446	0.531615280	0.007234091	0.074632780	0.023002548
2020-04-29T17:00:00	0.1960	11.536	196.0	0.452230344	0.532759542	0.007258770	0.074887388	0.023081020
2020-04-29T17:05:00	0.1962	11.519	195.0	0.452732788	0.533435481	0.007273361	0.075037930	0.023127419
2020-04-29T17:10:00	0.1976	11.498	195.0	0.457758770	0.540207907	0.007420116	0.076551969	0.023594060
2020-04-29T17:15:00	0.1978	11.478	195.0	0.458260388	0.540884923	0.007434842	0.076703892	0.023640884
2020-04-29T17:20:00	0.1971	11.457	195.0	0.455979721	0.537808388	0.007368005	0.076014347	0.023428360
2020-04-29T17:25:00	0.1965	11.440	196.0	0.453697505	0.534733874	0.007301419	0.075327393	0.023216634
2020-04-29T17:30:00	0.1956	11.420	195.0	0.450716877	0.530724674	0.007214903	0.074434819	0.022941534
2020-04-29T17:35:00	0.1957	11.403	195.0	0.451219548	0.531400318	0.007229458	0.074584983	0.022987816
2020-04-29T17:40:00	0.1962	11.383	195.0	0.452767066	0.533481601	0.007274357	0.075048205	0.023130586
2020-04-29T17:45:00	0.1960	11.364	195.0	0.452224663	0.532751900	0.007258605	0.074885687	0.023080496
2020-04-29T17:50:00	0.1964	11.340	195.0	0.453423551	0.534365090	0.007293446	0.075245137	0.023191282
2020-04-29T17:55:00	0.1967	11.314	195.0	0.454622010	0.535978837	0.007328357	0.075605303	0.023302289
2020-04-29T18:00:00	0.1968	11.286	195.0	0.454776070	0.536186363	0.007332850	0.075651663	0.023316577
2020-04-29T18:05:00	0.1973	11.263	195.0	0.456669816	0.538738867	0.007388197	0.076222670	0.023492567
2020-04-29T18:10:00	0.1969	11.242	195.0	0.455084167	0.536601442	0.007341841	0.075744418	0.023345165
2020-04-29T18:15:00	0.1963	11.218	195.0	0.453149574	0.533996334	0.007285477	0.075162919	0.023165942
2020-04-29T18:20:00	0.1973	11.191	195.0	0.456783873	0.538892690	0.007391537	0.076257128	0.023503187
2020-04-29T18:25:00	0.1977	11.169	195.0	0.457981134	0.540507999	0.007426642	0.076619297	0.023614811
2020-04-29T18:30:00	0.1972	11.148	194.0	0.456396104	0.538369767	0.007380185	0.076140010	0.023467090
2020-04-29T18:35:00	0.1981	11.127	193.0	0.459331820	0.542331665	0.007466343	0.077028888	0.023741051
2020-04-29T18:40:00	0.1976	11.104	194.0	0.457747427	0.540192600	0.007419783	0.076548535	0.023593002
2020-04-29T18:45:00	0.1978	11.079	194.0	0.458249046	0.540869614	0.007434509	0.076700455	0.023639825
2020-04-29T18:50:00	0.1977	11.057	193.0	0.458055252	0.540608035	0.007428818	0.076641745	0.023621730
2020-04-29T18:55:00	0.1982	11.033	194.0	0.459599624	0.542693420	0.007474227	0.077110226	0.023766121
2020-04-29T19:00:00	0.1992	11.010	194.0	0.463226960	0.547598879	0.007581417	0.078216086	0.024106957
2020-04-29T19:05:00	0.1993	10.988	193.0	0.463727764	0.548276963	0.007596275	0.078369374	0.024154202
2020-04-29T19:10:00	0.1994	10.969	193.0	0.463881406	0.548485034	0.007600837	0.078416431	0.024168706
2020-04-29T19:15:00	0.1996	10.952	193.0	0.464729147	0.549633424	0.007626028	0.078676323	0.024248807
2020-04-29T19:20:00	0.1995	10.933	194.0	0.464188671	0.548901204	0.007609962	0.078510580	0.024197723
2020-04-29T19:25:00	0.1994	10.913	194.0	0.463995219	0.548639177	0.007604216	0.078451298	0.024179452
2020-04-29T19:30:00	0.1992	10.894	194.0	0.463107460	0.547437105	0.007577874	0.078179531	0.024095691
2020-04-29T19:35:00	0.1997	10.874	193.0	0.464996523	0.549995743	0.007633982	0.078758380	0.024274098
2020-04-29T19:40:00	0.2002	10.856	193.0	0.466537715	0.552085302	0.007679908	0.079232192	0.024420131
2020-04-29T19:45:00	0.2008	10.839	193.0	0.468771475	0.555117196	0.007746713	0.079921405	0.024632553
2020-04-29T19:50:00	0.2007	10.823	192.0	0.468578286	0.554854823	0.007740924	0.079861681	0.024614146
2020-04-29T19:55:00	0.2008	10.806	192.0	0.468731708	0.555063185	0.007745521	0.079909109	0.024628764
2020-04-29T20:00:00	0.2008	10.789	193.0	0.468885122	0.555271556	0.007750119	0.079956549	0.024643385
2020-04-29T20:05:00	0.2010	10.774	192.0	0.469385086	0.555950747	0.007765114	0.080111246	0.024691064
2020-04-29T20:10:00	0.2008	10.756	193.0	0.468845356	0.555217543	0.007748927	0.079944251	0.024639595
2020-04-29T20:15:00	0.2007	10.738	193.0	0.468305540	0.554484453	0.007732754	0.079777401	0.024588170
2020-04-29T20:20:00	0.2002	10.722	192.0	0.466725365	0.552339848	0.007685509	0.079289977	0.024437941
2020-04-29T20:25:00	0.2001	10.706	192.0	0.466532058	0.552077629	0.007679739	0.079230450	0.024419594
2020-04-29T20:30:00	0.1993	10.689	192.0	0.463562790	0.548053568	0.007591379	0.078318862	0.024138634
2020-04-29T20:35:00	0.1995	10.672	192.0	0.464410611	0.549201853	0.007616557	0.078578620	0.024218694
2020-04-29T20:40:00	0.1998	10.656	192.0	0.465258218	0.550350419	0.007641770	0.078838735	0.024298864
2020-04-29T20:45:00	0.1998	10.638	192.0	0.465411791	0.550558582	0.007646343	0.078885909	0.024313403
2020-04-29T20:50:00	0.2000	10.621	192.0	0.465912270	0.551237093	0.007661254	0.079039741	0.024360816
2020-04-29T20:55:00	0.1999	10.603	192.0	0.465718916	0.550974935	0.007655491	0.078980293	0.024342493
2020-04-29T21:00:00	0.2000	10.585	192.0	0.465872468	0.551183126	0.007660067	0.079027502	0.024357044
2020-04-29T21:05:00	0.1999	10.566	192.0	0.465679113	0.550920971	0.007654305	0.078968058	0.024338722
2020-04-29T21:10:00	0.1992	10.547	192.0	0.463403471	0.547837850	0.007586653	0.078270096	0.024123604
2020-04-29T21:15:00	0.1989	10.528	191.0	0.462168293	0.546166105	0.007550056	0.077892532	0.024007235
2020-04-29T21:20:00	0.1986	10.509	192.0	0.461280052	0.544964666	0.007523792	0.077621573	0.023923723
2020-04-29T21:25:00	0.1987	10.494	192.0	0.461433806	0.545172590	0.007528335	0.077668443	0.023938168
2020-04-29T21:30:00	0.1989	10.478	192.0	0.462282163	0.546320171	0.007553426	0.077927302	0.024017951
2020-04-29T21:35:00	0.1989	10.463	191.0	0.462088601	0.546058288	0.007547697	0.077868203	0.023999736
2020-04-29T21:40:00	0.1984	10.448	191.0	0.460505507	0.543917522	0.007500926	0.077385676	0.023851017
2020-04-29T21:45:00	0.1978	10.429	191.0	0.458226363	0.540838995	0.007433842	0.076693582	0.023637707
2020-04-29T21:50:00	0.1974	10.411	191.0	0.456989283	0.539169742	0.007397554	0.076319204	0.023522320
2020-04-29T21:55:00	0.1971	10.392	191.0	0.456099672	0.537970095	0.007371513	0.076050537	0.023439514
2020-04-29T22:00:00	0.1969	10.372	191.0	0.455209827	0.536770756	0.007345509	0.075782264	0.023356830
2020-04-29T22:05:00	0.1975	10.349	191.0	0.457392542	0.539713747	0.007409374	0.076441144	0.023559903
2020-04-29T22:10:00	0.1976	10.327	191.0	0.457835650	0.540311656	0.007422372	0.076575243	0.023601234
2020-04-29T22:15:00	0.1979	10.305	191.0	0.458626363	0.541378994	0.007445595	0.076814827	0.023675076
2020-04-29T22:20:00	0.1985	10.283	191.0	0.460806862	0.544324882	0.007509819	0.077477415	0.023879292
2020-04-29T22:25:00	0.1989	10.260	191.0	0.462291485	0.546332784	0.007553702	0.077930149	0.024018829
2020-04-29T22:30:00	0.1992	10.237	191.0	0.463081152	0.547401493	0.007577094	0.078171485	0.024093211
2020-04-29T22:35:00	0.1992	10.213	190.0	0.463176353	0.547530368	0.007579917	0.078200604	0.024102186
2020-04-29T22:40:00	0.1993	10.187	190.0	0.463618700	0.548129274	0.007593038	0.078335978	0.024143909
2020-04-29T22:45:00	0.1994	10.161	190.0	0.464060988	0.548728257	0.007606170	0.078471450	0.024185663
2020-04-29T22:50:00	0.1999	10.136	190.0	0.465544178	0.550738042	0.007650286	0.078926587	0.024325941
2020-04-29T22:55:00	0.1995	10.110	190.0	0.464251331	0.548986082	0.007611824	0.078529787	0.024203643
2020-04-29T23:00:00	0.2000	10.084	190.0	0.466081332	0.551466339	0.007666294	0.079091739	0.024376842
2020-04-29T23:05:00	0.2004	10.060	190.0	0.467563633	0.553477294	0.007710554	0.079548367	0.024517579
2020-04-29T23:10:00	0.2002	10.036	190.0	0.466618401	0.552194750	0.007682316	0.079257036	0.024427788
2020-04-29T23:15:00	0.2009	10.012	189.0	0.469140315	0.555618205	0.007757771	0.080035491	0.024667716
2020-04-29T23:20:00	0.2006	9.989	189.0	0.468195525	0.554335077	0.007729460	0.079743418	0.024577696
2020-04-29T23:25:00	0.2006	9.965	190.0	0.467943913	0.553993480	0.007721929	0.079665723	0.024553749
2020-04-29T23:30:00	0.2005	9.941	189.0	0.467692283	0.553651909	0.007714402	0.079588059	0.024529813
2020-04-29T23:35:00	0.2003	9.916	189.0	0.467093878	0.552839815	0.007696514	0.079403518	0.024472935
2020-04-29T23:40:00	0.2001	9.891	189.0	0.466495367	0.552027862	0.007678644	0.079219154	0.024416113
2020-04-29T23:45:00	0.2004	9.867	189.0	0.467284050	0.553097866	0.007702197	0.079462142	0.024491004
2020-04-29T23:50:00	0.2006	9.843	189.0	0.468072548	0.554168114	0.007725779	0.079705439	0.024565990
2020-04-29T23:55:00	0.2009	9.820	189.0	0.469207436	0.555709390	0.007759784	0.080056261	0.024674117
2020-04-30T00:00:00	0.2010	9.795	189.0	0.469648992	0.556309338	0.007773034	0.080192963	0.024716250
2020-04-30T00:05:00	0.2010	9.772	188.0	0.469397489	0.555967598	0.007765486	0.080115086	0.024692247
2020-04-30T00:10:00	0.2001	9.748	188.0	0.466372329	0.551860981	0.007674973	0.079181280	0.024404439
2020-04-30T00:15:00	0.2000	9.723	188.0	0.466120581	0.551519564	0.007667464	0.079103813	0.024380564
2020-04-30T00:20:00	0.2001	9.699	188.0	0.466215696	0.551648551	0.007670301	0.079133077	0.024389583
2020-04-30T00:25:00	0.2002	9.675	188.0	0.466657644	0.552247982	0.007683487	0.079269120	0.024431513
2020-04-30T00:30:00	0.1997	9.650	188.0	0.465018256	0.550025196	0.007634628	0.078765052	0.024276154
2020-04-30T00:35:00	0.2001	9.625	188.0	0.466501024	0.552035535	0.007678813	0.079220896	0.024416649
2020-04-30T00:40:00	0.1999	9.601	188.0	0.465555494	0.550753383	0.007650623	0.078930064	0.024327012
2020-04-30T00:45:00	0.1998	9.577	188.0	0.465303686	0.550412046	0.007643124	0.078852700	0.024303168
2020-04-30T00:50:00	0.1996	9.553	187.0	0.464704857	0.549600512	0.007625305	0.078668871	0.024246510
2020-04-30T00:55:00	0.2000	9.529	187.0	0.465840878	0.551140293	0.007659126	0.079017789	0.024354050
2020-04-30T01:00:00	0.2004	9.504	187.0	0.467323285	0.553151109	0.007703369	0.079474239	0.024494732
2020-04-30T01:05:00	0.2009	9.479	187.0	0.469151619	0.555633562	0.007758110	0.080038989	0.024668794
2020-04-30T01:10:00	0.2015	9.455	187.0	0.471325320	0.558588396	0.007823440	0.080712984	0.024876525
2020-04-30T01:15:00	0.2021	9.433	187.0	0.473151489	0.561073713	0.007878533	0.081281375	0.025051709
2020-04-30T01:20:00	0.2021	9.409	187.0	0.473246406	0.561202962	0.007881402	0.081310971	0.025060831
2020-04-30T01:25:00	0.2020	9.385	186.0	0.472995170	0.560860868	0.007873810	0.081232644	0.025036690
2020-04-30T01:30:00	0.2019	9.363	187.0	0.472743916	0.560518798	0.007866221	0.081154348	0.025012558
2020-04-30T01:35:00	0.2021	9.343	187.0	0.473185010	0.561119358	0.007879546	0.081291827	0.025054930
2020-04-30T01:40:00	0.2018	9.322	187.0	0.472241352	0.559834734	0.007851051	0.080997851	0.024964324
2020-04-30T01:45:00	0.2016	9.303	186.0	0.471643753	0.559021575	0.007833033	0.080811954	0.024907029
2020-04-30T01:50:00	0.2021	9.285	186.0	0.473123613	0.561035755	0.007877691	0.081272684	0.025049030
2020-04-30T01:55:00	0.2021	9.264	186.0	0.473218531	0.561165003	0.007880559	0.081302279	0.025058152
2020-04-30T02:00:00	0.2024	9.243	186.0	0.474351691	0.562708567	0.007914846	0.081656007	0.025167175
2020-04-30T02:05:00	0.2022	9.222	186.0	0.473754466	0.561894913	0.007896766	0.081469482	0.025109686
2020-04-30T02:10:00	0.2021	9.200	186.0	0.473157135	0.561081400	0.007878704	0.081283135	0.025052252
2020-04-30T02:15:00	0.2020	9.178	186.0	0.472905893	0.560739315	0.007871113	0.081204819	0.025028114
2020-04-30T02:20:00	0.2022	9.156	186.0	0.473693079	0.561811297	0.007894909	0.081450322	0.025103780
2020-04-30T02:25:00	0.2025	9.132	186.0	0.474826080	0.563355071	0.007929222	0.081804318	0.025212885
2020-04-30T02:30:00	0.2032	9.111	185.0	0.476996135	0.566314740	0.007995146	0.082484450	0.025422509
2020-04-30T02:35:00	0.2027	9.090	185.0	0.475361760	0.564085320	0.007945470	0.081971951	0.025264551
2020-04-30T02:40:00	0.2035	9.067	186.0	0.478222808	0.567989418	0.008032531	0.082870141	0.025541382
2020-04-30T02:45:00	0.2036	9.045	186.0	0.478317582	0.568118857	0.008035423	0.082899978	0.025550578
2020-04-30T02:50:00	0.2039	9.023	185.0	0.479449036	0.569664689	0.008069988	0.083256582	0.025660487
2020-04-30T02:55:00	0.2039	9.000	185.0	0.479543776	0.569794173	0.008072886	0.083286476	0.025669701
2020-04-30T03:00:00	0.2037	8.977	185.0	0.478947467	0.568979301	0.008054657	0.083098407	0.025611736
2020-04-30T03:05:00	0.2038	8.959	185.0	0.479042221	0.569108767	0.008057552	0.083128278	0.025620943
2020-04-30T03:10:00	0.2039	8.944	185.0	0.479482495	0.569710417	0.008071012	0.083267139	0.025663741
2020-04-30T03:15:00	0.2038	8.929	185.0	0.479231722	0.569367708	0.008063344	0.083188032	0.025639359
2020-04-30T03:20:00	0.2038	8.914	184.0	0.479326468	0.569497184	0.008066240	0.083217916	0.025648570
2020-04-30T03:25:00	0.2040	8.900	184.0	0.479766705	0.570098884	0.008079706	0.083356839	0.025691387
2020-04-30T03:30:00	0.2038	8.887	184.0	0.479170435	0.569283959	0.008061470	0.083168704	0.025633402
2020-04-30T03:35:00	0.2040	8.870	184.0	0.479956165	0.570357879	0.008085505	0.083416662	0.025709825
2020-04-30T03:40:00	0.2036	8.854	184.0	0.478323219	0.568126556	0.008035595	0.082901752	0.025551125
2020-04-30T03:45:00	0.2041	8.837	184.0	0.480145615	0.570616888	0.008091305	0.083476502	0.025728269
2020-04-30T03:50:00	0.2041	8.819	184.0	0.480240336	0.570746398	0.008094206	0.083506429	0.025737493
2020-04-30T03:55:00	0.2047	8.802	184.0	0.482406924	0.573710686	0.008160697	0.084192410	0.025948918
2020-04-30T04:00:00	0.2053	8.788	184.0	0.484227126	0.576203950	0.008216767	0.084770866	0.026127204
2020-04-30T04:05:00	0.2051	8.774	184.0	0.483827059	0.575655723	0.008204427	0.084643557	0.026087966
2020-04-30T04:10:00	0.2055	8.764	184.0	0.485152018	0.577471858	0.008245330	0.085065547	0.026218028
2020-04-30T04:15:00	0.2061	8.756	184.0	0.487165975	0.580235098	0.008307696	0.085708969	0.026416337
2020-04-30T04:20:00	0.2059	8.750	184.0	0.486421475	0.579213231	0.008284614	0.085470835	0.026342941
2020-04-30T04:25:00	0.2062	8.746	184.0	0.487400741	0.580557417	0.008314981	0.085784129	0.026439502
2020-04-30T04:30:00	0.2066	8.742	183.0	0.488724306	0.582375424	0.008356113	0.086208478	0.026570290
2020-04-30T04:35:00	0.2068	8.736	184.0	0.489358426	0.583246928	0.008375855	0.086412152	0.026633064
2020-04-30T04:40:00	0.2063	8.732	184.0	0.487925185	0.581277610	0.008331267	0.085952147	0.026491287
2020-04-30T04:45:00	0.2063	8.728	184.0	0.487870223	0.581202122	0.008329560	0.085934531	0.026485857
2020-04-30T04:50:00	0.2062	8.717	183.0	0.487470586	0.580653319	0.008317149	0.085806496	0.026446395
2020-04-30T04:55:00	0.2062	8.707	184.0	0.487415616	0.580577841	0.008315443	0.085788892	0.026440970
2020-04-30T05:00:00	0.2057	8.696	184.0	0.485636694	0.578136559	0.008260317	0.085220172	0.026265685
2020-04-30T05:05:00	0.2064	8.687	183.0	0.487995019	0.581373526	0.008333437	0.085974533	0.026498186
2020-04-30T05:10:00	0.2062	8.681	183.0	0.487595397	0.580824703	0.008321024	0.085846473	0.026458717
2020-04-30T05:15:00	0.2065	8.676	183.0	0.488574325	0.582169344	0.008351447	0.086160340	0.026555454
2020-04-30T05:20:00	0.2067	8.672	183.0	0.489208473	0.583040810	0.008371184	0.086363966	0.026618213
2020-04-30T05:25:00	0.2064	8.669	183.0	0.488119811	0.581544936	0.008337315	0.086014542	0.026510517
2020-04-30T05:30:00	0.2059	8.668	183.0	0.486341259	0.579103158	0.008282129	0.085445197	0.026335040
2020-04-30T05:35:00	0.2059	8.669	183.0	0.486286271	0.579027705	0.008280426	0.085427624	0.026329623
2020-04-30T05:40:00	0.2052	8.674	183.0	0.484161747	0.576114351	0.008214749	0.084750055	0.026120790
2020-04-30T05:45:00	0.2053	8.682	183.0	0.484451739	0.576511804	0.008223699	0.084842384	0.026149247
2020-04-30T05:50:00	0.2049	8.695	183.0	0.483016425	0.574545269	0.008179451	0.084385889	0.026008551
2020-04-30T05:55:00	0.2044	8.709	183.0	0.481235195	0.572107081	0.008124704	0.083821074	0.025834469
2020-04-30T06:00:00	0.2047	8.725	183.0	0.482215959	0.573449260	0.008154826	0.084131835	0.025930249
2020-04-30T06:05:00	0.2051	8.742	183.0	0.483541548	0.575264553	0.008195626	0.084552760	0.026059982
2020-04-30T06:10:00	0.2048	8.762	183.0	0.482451067	0.573771120	0.008162055	0.084206415	0.025953235
2020-04-30T06:15:00	0.2048	8.785	184.0	0.482741205	0.574168377	0.008170980	0.084298496	0.025981615
2020-04-30T06:20:00	0.2051	8.811	184.0	0.483721534	0.575511139	0.008201173	0.084609993	0.026077622
2020-04-30T06:25:00	0.2046	8.840	184.0	0.481940674	0.573072455	0.008146366	0.084044552	0.025903347
2020-04-30T06:30:00	0.2054	8.871	184.0	0.484646565	0.576778862	0.008229714	0.084904441	0.026168373
2020-04-30T06:35:00	0.2060	8.902	184.0	0.486660821	0.579541699	0.008292031	0.085547356	0.026366526
2020-04-30T06:40:00	0.2064	8.929	184.0	0.487984675	0.581359318	0.008333116	0.085971217	0.026497164
2020-04-30T06:45:00	0.2062	8.959	184.0	0.487585051	0.580810496	0.008320703	0.085843159	0.026457695
2020-04-30T06:50:00	0.2071	8.987	184.0	0.490630836	0.584996637	0.008415538	0.086821558	0.026759247
2020-04-30T06:55:00	0.2072	9.016	184.0	0.490920277	0.585394831	0.008424578	0.086914822	0.026787992
2020-04-30T07:00:00	0.2079	9.043	184.0	0.493274940	0.588636730	0.008498300	0.087675390	0.027022407
2020-04-30T07:05:00	0.2083	9.079	185.0	0.494596221	0.590457816	0.008539807	0.088103613	0.027154389
2020-04-30T07:10:00	0.2081	9.117	185.0	0.493853346	0.589433759	0.008516457	0.087862722	0.027080144
2020-04-30T07:15:00	0.2074	9.152	185.0	0.491733550	0.586514043	0.008450005	0.087177141	0.026868841
2020-04-30T07:20:00	0.2077	9.188	185.0	0.492711287	0.587860288	0.008480623	0.087493027	0.026966201
2020-04-30T07:25:00	0.2075	9.229	185.0	0.491968000	0.586836787	0.008457342	0.087252835	0.026892171
2020-04-30T07:30:00	0.2078	9.274	186.0	0.492945670	0.588183123	0.008487971	0.087568836	0.026989566
2020-04-30T07:35:00	0.2073	9.315	186.0	0.491169641	0.585737946	0.008432370	0.086995212	0.026812769
2020-04-30T07:40:00	0.2069	9.363	186.0	0.489737164	0.583767600	0.008387657	0.086533913	0.026670592
2020-04-30T07:45:00	0.2067	9.404	186.0	0.489337746	0.583218501	0.008375211	0.086405506	0.026631016
2020-04-30T07:50:00	0.2073	9.445	186.0	0.491349224	0.585985075	0.008437984	0.087053128	0.026830620
2020-04-30T07:55:00	0.2068	9.490	186.0	0.489572362	0.583541022	0.008382521	0.086480920	0.026654259
2020-04-30T08:00:00	0.2065	9.541	187.0	0.488483817	0.582044992	0.008348632	0.086131297	0.026546502
2020-04-30T08:05:00	0.2064	9.574	187.0	0.488084252	0.581496091	0.008336210	0.086003140	0.026507003
2020-04-30T08:10:00	0.2067	9.594	187.0	0.489063039	0.582840921	0.008366656	0.086317246	0.026603814
2020-04-30T08:15:00	0.2072	9.619	187.0	0.490730336	0.585133514	0.008418645	0.086853613	0.026769127
2020-04-30T08:20:00	0.2071	9.644	187.0	0.490675418	0.585057966	0.008416930	0.086835920	0.026763674
2020-04-30T08:25:00	0.2070	9.682	187.0	0.490276111	0.584508718	0.008404466	0.086707326	0.026724040
2020-04-30T08:30:00	0.2066	9.719	187.0	0.488843257	0.582538879	0.008359815	0.086246666	0.026582060
2020-04-30T08:35:00	0.2058	9.775	188.0	0.486030728	0.578677088	0.008272512	0.085345983	0.026304461
2020-04-30T08:40:00	0.2054	9.844	188.0	0.484596081	0.576709659	0.008228155	0.084888359	0.026163417
2020-04-30T08:45:00	0.2055	9.902	188.0	0.484886036	0.577107162	0.008237110	0.084980750	0.026191893
2020-04-30T08:50:00	0.2053	9.936	188.0	0.484486048	0.576558830	0.008224758	0.084853310	0.026152614
2020-04-30T08:55:00	0.2048	9.956	188.0	0.482705589	0.574119608	0.008169884	0.084287190	0.025978131
2020-04-30T09:00:00	0.2056	9.985	188.0	0.485410870	0.577826832	0.008253333	0.085148111	0.026243475
2020-04-30T09:05:00	0.2054	10.022	188.0	0.484665984	0.576805483	0.008230314	0.084910628	0.026170280
2020-04-30T09:10:00	0.2053	10.061	189.0	0.484265969	0.576257186	0.008217965	0.084783232	0.026131015
2020-04-30T09:15:00	0.2053	10.092	189.0	0.484210947	0.576181778	0.008216267	0.084765716	0.026125617
2020-04-30T09:20:00	0.2045	10.140	188.0	0.481739867	0.572797630	0.008140197	0.083980911	0.025883733
2020-04-30T09:25:00	0.2032	10.250	189.0	0.477193191	0.566583683	0.008001146	0.082546349	0.025441586
2020-04-30T09:30:00	0.2045	10.306	190.0	0.481629740	0.572646925	0.008136815	0.083946020	0.025872979
2020-04-30T09:35:00	0.2051	10.365	190.0	0.483645788	0.575407362	0.008198838	0.084585905	0.026070197
2020-04-30T09:40:00	0.2040	10.496	191.0	0.479792687	0.570134400	0.008080501	0.083365042	0.025693916
2020-04-30T09:45:00	0.2041	10.582	191.0	0.480083053	0.570531352	0.008089389	0.083456739	0.025722177
2020-04-30T09:50:00	0.2039	10.688	191.0	0.479682497	0.569983779	0.008077130	0.083330257	0.025683195
2020-04-30T09:55:00	0.2036	10.784	192.0	0.478590774	0.568492007	0.008043762	0.082986011	0.025577095
2020-04-30T10:00:00	0.2026	10.846	192.0	0.475077885	0.563698308	0.007936857	0.081883096	0.025237165
2020-04-30T10:05:00	0.2027	10.908	192.0	0.475270703	0.563961173	0.007942707	0.081943444	0.025255765
2020-04-30T10:10:00	0.2027	10.981	192.0	0.475463510	0.564224053	0.007948558	0.082003811	0.025274371
2020-04-30T10:15:00	0.2030	11.052	194.0	0.476348026	0.565430412	0.007975429	0.082281031	0.025359813
2020-04-30T10:20:00	0.2036	11.099	193.0	0.478614964	0.568525051	0.008044501	0.082993631	0.025579443
2020-04-30T10:25:00	0.2036	11.130	192.0	0.478461990	0.568316095	0.008039830	0.082945449	0.025564593
2020-04-30T10:30:00	0.2032	11.164	193.0	0.476926231	0.566219341	0.007993018	0.082462498	0.025415743
2020-04-30T10:35:00	0.2032	11.201	193.0	0.477118944	0.566482346	0.007998885	0.082523024	0.025434397
2020-04-30T10:40:00	0.2035	11.241	194.0	0.478003027	0.567689281	0.008025826	0.082800972	0.025520064
2020-04-30T10:45:00	0.2038	11.287	194.0	0.479232426	0.569368670	0.008063365	0.083188254	0.025639428
2020-04-30T10:50:00	0.2032	11.331	194.0	0.477005573	0.566327620	0.007995434	0.082487414	0.025423422
2020-04-30T10:55:00	0.2034	11.357	194.0	0.477889686	0.567534515	0.008022370	0.082765313	0.025509073
2020-04-30T11:00:00	0.2043	11.350	194.0	0.480846393	0.571575217	0.008112778	0.083698038	0.025796548
2020-04-30T11:05:00	0.2038	11.359	195.0	0.479311715	0.569477021	0.008065789	0.083213262	0.025647135
2020-04-30T11:10:00	0.2029	11.403	194.0	0.476047507	0.565020475	0.007966295	0.082186792	0.025330767
2020-04-30T11:15:00	0.2042	11.423	195.0	0.480387752	0.570947972	0.008098721	0.083553016	0.025751851
2020-04-30T11:20:00	0.2036	11.426	194.0	0.478507280	0.568377957	0.008041213	0.082959713	0.025568989
2020-04-30T11:25:00	0.2038	11.421	195.0	0.479045470	0.569113205	0.008057651	0.083129302	0.025621258
2020-04-30T11:30:00	0.2045	11.433	194.0	0.481655903	0.572682728	0.008137618	0.083954309	0.025875533
2020-04-30T11:35:00	0.2048	11.436	194.0	0.482538803	0.573891241	0.008164753	0.084234255	0.025961815
2020-04-30T11:40:00	0.2046	11.433	194.0	0.482040780	0.573209471	0.008149442	0.084076287	0.025913128
2020-04-30T11:45:00	0.2053	11.437	194.0	0.484303913	0.576309190	0.008219136	0.084795312	0.026134739
2020-04-30T11:50:00	0.2048	11.453	194.0	0.482770800	0.574208902	0.008171891	0.084307892	0.025984511
2020-04-30T11:55:00	0.2049	11.471	194.0	0.482963181	0.574472351	0.008177812	0.084368979	0.026003339
2020-04-30T12:00:00	0.2049	11.482	195.0	0.482810403	0.574263133	0.008173110	0.084320465	0.025988386
2020-04-30T12:05:00	0.2055	11.505	194.0	0.485073023	0.577363539	0.008242888	0.085040358	0.026210264
2020-04-30T12:10:00	0.2046	11.513	195.0	0.481814364	0.572899584	0.008142485	0.084004519	0.025891009
2020-04-30T12:15:00	0.2054	11.522	195.0	0.484767651	0.576944857	0.008233453	0.084943022	0.026180264
2020-04-30T12:20:00	0.2051	11.542	195.0	0.483579852	0.575317028	0.008196806	0.084564939	0.026063735
2020-04-30T12:25:00	0.2047	11.562	195.0	0.482391636	0.573689757	0.008160227	0.084187560	0.025947423
2020-04-30T12:30:00	0.2046	11.587	195.0	0.481893592	0.573008015	0.008144919	0.084029628	0.025898748
2020-04-30T12:35:00	0.2043	11.604	195.0	0.481050148	0.571853930	0.008119027	0.083762505	0.025816418
2020-04-30T12:40:00	0.2049	11.623	195.0	0.482968810	0.574480061	0.008177985	0.084370767	0.026003890
2020-04-30T12:45:00	0.2056	11.645	195.0	0.485231325	0.577580608	0.008247781	0.085090838	0.026225823
2020-04-30T12:50:00	0.2049	11.668	195.0	0.483008411	0.574534294	0.008179204	0.084383344	0.026007766
2020-04-30T12:55:00	0.2049	11.697	195.0	0.482855635	0.574325073	0.008174502	0.084334827	0.025992813
2020-04-30T13:00:00	0.2040	11.727	195.0	0.479940319	0.570336215	0.008085020	0.083411658	0.025708283
2020-04-30T13:05:00	0.2037	11.742	195.0	0.478750826	0.568710650	0.008048650	0.083036435	0.025592636
2020-04-30T13:10:00	0.2030	11.760	196.0	0.476523656	0.565670021	0.007980770	0.082336130	0.025376795
2020-04-30T13:15:00	0.2025	11.781	196.0	0.474641035	0.563102868	0.007923613	0.081746451	0.025195050
2020-04-30T13:20:00	0.2021	11.797	196.0	0.473449678	0.561479784	0.007887547	0.081374373	0.025080372
2020-04-30T13:25:00	0.2018	11.809	196.0	0.472257901	0.559857257	0.007851551	0.081003002	0.024965912
2020-04-30T13:30:00	0.2033	11.814	196.0	0.477294534	0.566722009	0.008004232	0.082578191	0.025451400
2020-04-30T13:35:00	0.2030	11.800	196.0	0.476449943	0.565569452	0.007978528	0.082313002	0.025369667
2020-04-30T13:40:00	0.2035	11.792	196.0	0.478025577	0.567720074	0.008026514	0.082808068	0.025522251
2020-04-30T13:45:00	0.2036	11.771	196.0	0.478563843	0.568455220	0.008042940	0.082977528	0.025574480
2020-04-30T13:50:00	0.2030	11.748	196.0	0.476336550	0.565414755	0.007975080	0.082277431	0.025358703
2020-04-30T13:55:00	0.2027	11.733	196.0	0.475491720	0.564262517	0.007949415	0.082012645	0.025277094
2020-04-30T14:00:00	0.2025	11.712	196.0	0.474646678	0.563110559	0.007923784	0.081748215	0.025195594
2020-04-30T14:05:00	0.2024	11.697	195.0	0.474493525	0.562901841	0.007919143	0.081700336	0.025180837
2020-04-30T14:10:00	0.2020	11.686	195.0	0.472955962	0.560807484	0.007872625	0.081220423	0.025032923
2020-04-30T14:15:00	0.2014	11.681	195.0	0.470724970	0.557771931	0.007805369	0.080526556	0.024819067
2020-04-30T14:20:00	0.2011	11.675	195.0	0.469878736	0.556621555	0.007779933	0.080264134	0.024738186
2020-04-30T14:25:00	0.2006	11.674	195.0	0.467992407	0.554059314	0.007723381	0.079680694	0.024558364
2020-04-30T14:30:00	0.2012	11.677	195.0	0.470264955	0.557146513	0.007791537	0.080383851	0.024775083
2020-04-30T14:35:00	0.2008	11.680	195.0	0.468725466	0.555054707	0.007745334	0.079907180	0.024628169
2020-04-30T14:40:00	0.1997	11.688	196.0	0.465104049	0.550141466	0.007637181	0.078791392	0.024284272
2020-04-30T14:45:00	0.1993	11.687	195.0	0.463562200	0.548052770	0.007591362	0.078318681	0.024138578
2020-04-30T14:50:00	0.1998	11.681	195.0	0.465490815	0.550665703	0.007648696	0.078910189	0.024320887
2020-04-30T14:55:00	0.2010	11.673	195.0	0.469498124	0.556104334	0.007768506	0.080146242	0.024701850
2020-04-30T15:00:00	0.2012	11.668	195.0	0.470037749	0.556837675	0.007784710	0.080313413	0.024753374
2020-04-30T15:05:00	0.2011	11.665	195.0	0.469884387	0.556629235	0.007780103	0.080265885	0.024738725
2020-04-30T15:10:00	0.2010	11.664	195.0	0.469384497	0.555949947	0.007765096	0.080111064	0.024691008
2020-04-30T15:15:00	0.2000	11.657	195.0	0.466110680	0.551506138	0.007667169	0.079100768	0.024379625
2020-04-30T15:20:00	0.1997	11.652	195.0	0.464916308	0.549887039	0.007631595	0.078733758	0.024266509
2020-04-30T15:25:00	0.2002	11.649	195.0	0.466844148	0.552500992	0.007689055	0.079326566	0.024449218
2020-04-30T15:30:00	0.1996	11.642	195.0	0.464609110	0.549470782	0.007622458	0.078639497	0.024237457
2020-04-30T15:35:00	0.2004	11.629	195.0	0.467230715	0.553025491	0.007700603	0.079445698	0.024485936
2020-04-30T15:40:00	0.2010	11.617	195.0	0.469503776	0.556112013	0.007768675	0.080147992	0.024702390
2020-04-30T15:45:00	0.2008	11.604	195.0	0.468657235	0.554962042	0.007743289	0.079886086	0.024621667
2020-04-30T15:50:00	0.2009	11.590	195.0	0.469196995	0.555695206	0.007759471	0.080053030	0.024673121
2020-04-30T15:55:00	0.2013	11.576	195.0	0.470429601	0.557370340	0.007796486	0.080434912	0.024790821
2020-04-30T16:00:00	0.2015	11.560	195.0	0.471315435	0.558574950	0.007823142	0.080709912	0.024875579
2020-04-30T16:05:00	0.2013	11.543	195.0	0.470524594	0.557499487	0.007799343	0.080464380	0.024799903
2020-04-30T16:10:00	0.2008	11.526	195.0	0.468693902	0.555011840	0.007744388	0.079897421	0.024625161
2020-04-30T16:15:00	0.2014	11.511	195.0	0.471021216	0.558174784	0.007814284	0.080618523	0.024847412
2020-04-30T16:20:00	0.2009	11.496	195.0	0.469190793	0.555686780	0.007759285	0.080051111	0.024672530
2020-04-30T16:25:00	0.2005	11.482	195.0	0.467706105	0.553670671	0.007714815	0.079592325	0.024531127
2020-04-30T16:30:00	0.1998	11.473	195.0	0.465180014	0.550244423	0.007639442	0.078814718	0.024291462
2020-04-30T16:35:00	0.1991	11.466	195.0	0.462999241	0.547290614	0.007574666	0.078146434	0.024085490
2020-04-30T16:40:00	0.1991	11.458	195.0	0.462900928	0.547157541	0.007571752	0.078116373	0.024076225
2020-04-30T16:45:00	0.1990	11.448	194.0	0.462455380	0.546554554	0.007558554	0.077980208	0.024034257
2020-04-30T16:50:00	0.1990	11.438	194.0	0.462704295	0.546891406	0.007565926	0.078056265	0.024057699
2020-04-30T16:55:00	0.1984	11.424	194.0	0.460521917	0.543939703	0.007501411	0.077390670	0.023852556
2020-04-30T17:00:00	0.1976	11.410	194.0	0.457642698	0.540051277	0.007416711	0.076516836	0.023583232
2020-04-30T17:05:00	0.1974	11.396	194.0	0.456848641	0.538980044	0.007393434	0.076276699	0.023509219
2020-04-30T17:10:00	0.1976	11.379	194.0	0.457793508	0.540254785	0.007421135	0.076562485	0.023597301
2020-04-30T17:15:00	0.1976	11.363	194.0	0.457695043	0.540121911	0.007418246	0.076532679	0.023588115
2020-04-30T17:20:00	0.1974	11.349	194.0	0.456900998	0.539050662	0.007394968	0.076292521	0.023514096
2020-04-30T17:25:00	0.1972	11.334	194.0	0.456454654	0.538448717	0.007381899	0.076157688	0.023472539
2020-04-30T17:30:00	0.1975	11.318	194.0	0.457399632	0.539723313	0.007409582	0.076443289	0.023560564
2020-04-30T17:35:00	0.1970	11.303	194.0	0.455561789	0.537245058	0.007355789	0.075888319	0.023389517
2020-04-30T17:40:00	0.1970	11.287	194.0	0.455463259	0.537112270	0.007352911	0.075858622	0.023380364
2020-04-30T17:45:00	0.1966	11.271	194.0	0.454320612	0.535572892	0.007319569	0.075514646	0.023274347
2020-04-30T17:50:00	0.1960	11.255	194.0	0.452132782	0.532628313	0.007255938	0.074858173	0.023072016
2020-04-30T17:55:00	0.1955	11.239	194.0	0.450292052	0.530153818	0.007202613	0.074308026	0.022902455
2020-04-30T18:00:00	0.1958	11.223	194.0	0.451238766	0.531426153	0.007230014	0.074590727	0.022989586
2020-04-30T18:05:00	0.1956	11.207	194.0	0.450791668	0.530825189	0.007217067	0.074457152	0.022948417
2020-04-30T18:10:00	0.1961	11.190	194.0	0.452434889	0.533034692	0.007264708	0.074948655	0.023099904
2020-04-30T18:15:00	0.1962	11.173	194.0	0.452684547	0.533370573	0.007271960	0.075023469	0.023122962
2020-04-30T18:20:00	0.1958	11.156	194.0	0.451540954	0.531832427	0.007238772	0.074681074	0.023017432
2020-04-30T18:25:00	0.1953	11.137	193.0	0.449699899	0.529358354	0.007185499	0.074131470	0.022848039
2020-04-30T18:30:00	0.1947	11.119	194.0	0.447509051	0.526417694	0.007122356	0.073480032	0.022647260
2020-04-30T18:35:00	0.1942	11.100	193.0	0.445665778	0.523946493	0.007069441	0.072934125	0.022479006
2020-04-30T18:40:00	0.1952	11.082	193.0	0.449403783	0.528960672	0.007176949	0.074043257	0.022820851
2020-04-30T18:45:00	0.1953	11.063	193.0	0.449653667	0.529296260	0.007184164	0.074117694	0.022843793
2020-04-30T18:50:00	0.1956	11.044	193.0	0.450600561	0.530568361	0.007211537	0.074400093	0.022930831
2020-04-30T18:55:00	0.1957	11.026	193.0	0.451198790	0.531372414	0.007228856	0.074578779	0.022985904
2020-04-30T19:00:00	0.1957	11.009	193.0	0.451100132	0.531239792	0.007225999	0.074549296	0.022976817
2020-04-30T19:05:00	0.1961	10.991	193.0	0.452394928	0.532980934	0.007263548	0.074936684	0.023096214
2020-04-30T19:10:00	0.1958	10.974	192.0	0.451251236	0.531442917	0.007230376	0.074594454	0.022990735
2020-04-30T19:15:00	0.1968	10.955	192.0	0.454983022	0.536465167	0.007338889	0.075713961	0.023335778
2020-04-30T19:20:00	0.1968	10.938	192.0	0.454884475	0.536332401	0.007336013	0.075684293	0.023326634
2020-04-30T19:25:00	0.1976	10.920	191.0	0.457569122	0.539951998	0.007414552	0.076494569	0.023576369
2020-04-30T19:30:00	0.1967	10.902	192.0	0.454687372	0.536066880	0.007330263	0.075624970	0.023308350
2020-04-30T19:35:00	0.1973	10.885	192.0	0.456676553	0.538747953	0.007388395	0.076224705	0.023493194
2020-04-30T19:40:00	0.1966	10.868	192.0	0.454142165	0.535332581	0.007314369	0.075460997	0.023257812
2020-04-30T19:45:00	0.1967	10.850	193.0	0.454391696	0.535668627	0.007321641	0.075536023	0.023280936
2020-04-30T19:50:00	0.1960	10.835	192.0	0.452203912	0.532723988	0.007258002	0.074879472	0.023078581
2020-04-30T19:55:00	0.1961	10.820	192.0	0.452453587	0.533059847	0.007265251	0.074954257	0.023101630
2020-04-30T20:00:00	0.1960	10.805	192.0	0.452006652	0.532458672	0.007252278	0.074820413	0.023060378
2020-04-30T20:05:00	0.1949	10.792	191.0	0.448422782	0.527643689	0.007148658	0.073751384	0.022730893
2020-04-30T20:10:00	0.1944	10.777	191.0	0.446580013	0.525171837	0.007095662	0.073204638	0.022562380
2020-04-30T20:15:00	0.1932	10.762	191.0	0.442291714	0.519429941	0.006973083	0.071940010	0.022172610
2020-04-30T20:20:00	0.1929	10.748	192.0	0.441144565	0.517896395	0.006940469	0.071603539	0.022068906
2020-04-30T20:25:00	0.1928	10.733	191.0	0.441054006	0.517764158	0.006937747	0.071575459	0.022060252
2020-04-30T20:30:00	0.1924	10.719	191.0	0.439890727	0.515765146	0.006898804	0.071173694	0.021936424
2020-04-30T20:35:00	0.1920	10.702	191.0	0.438726642	0.513768541	0.006859969	0.070773036	0.021812937
2020-04-30T20:40:00	0.1916	10.688	191.0	0.437833792	0.512239717	0.006830273	0.070466670	0.021718512
2020-04-30T20:45:00	0.1911	10.673	191.0	0.436396043	0.509782549	0.006782620	0.069975038	0.021566986
2020-04-30T20:50:00	0.1902	10.659	191.0	0.433866735	0.505473871	0.006699282	0.069115257	0.021301993
2020-04-30T20:55:00	0.1909	10.646	191.0	0.435697204	0.508590290	0.006759531	0.069736834	0.021493569
2020-04-30T21:00:00	0.1899	10.631	191.0	0.433166833	0.504284737	0.006676332	0.068878487	0.021229019
2020-04-30T21:05:00	0.1892	10.618	191.0	0.431178909	0.500914702	0.006611410	0.068208699	0.021022583
2020-04-30T21:10:00	0.1890	10.604	191.0	0.430555233	0.499859681	0.006591122	0.067999387	0.020958072
2020-04-30T21:15:00	0.1890	10.592	191.0	0.430751073	0.500190852	0.006597488	0.068065071	0.020978316
2020-04-30T21:20:00	0.1892	10.580	191.0	0.431220019	0.500984283	0.006612749	0.068222509	0.021026840
2020-04-30T21:25:00	0.1907	10.569	191.0	0.435234399	0.507801469	0.006744267	0.069579356	0.021445033
2020-04-30T21:30:00	0.1915	10.557	191.0	0.437335490	0.511387445	0.006813734	0.070296039	0.021665922
2020-04-30T21:35:00	0.1943	10.547	191.0	0.446296110	0.524791253	0.007087515	0.073120581	0.022536473
2020-04-30T21:40:00	0.1955	10.537	191.0	0.450381931	0.530274581	0.007205212	0.074334843	0.022910720
2020-04-30T21:45:00	0.1961	10.528	191.0	0.452373665	0.532952331	0.007262930	0.074930314	0.023094251
2020-04-30T21:50:00	0.1959	10.517	191.0	0.451926719	0.532351170	0.007249959	0.074796488	0.023053004
2020-04-30T21:55:00	0.1948	10.505	191.0	0.447994033	0.527068334	0.007136310	0.073623997	0.022691631
2020-04-30T22:00:00	0.1957	10.492	190.0	0.451032648	0.531149082	0.007224044	0.074529133	0.022970602
2020-04-30T22:05:00	0.1960	10.478	190.0	0.452127100	0.532620672	0.007255773	0.074856472	0.023071492
2020-04-30T22:10:00	0.1967	10.464	190.0	0.454613732	0.535967685	0.007328115	0.075602812	0.023301521
2020-04-30T22:15:00	0.1974	10.451	190.0	0.457098522	0.539317096	0.007400755	0.076352227	0.023532498
2020-04-30T22:20:00	0.1985	10.438	190.0	0.460971380	0.544547302	0.007514675	0.077527521	0.023894735
2020-04-30T22:25:00	0.1987	10.423	190.0	0.461367946	0.545083524	0.007526389	0.077648365	0.023931980
2020-04-30T22:30:00	0.1997	10.409	190.0	0.464888915	0.549849917	0.007630780	0.078725351	0.024263918
2020-04-30T22:35:00	0.1987	10.397	190.0	0.461466303	0.545216539	0.007529295	0.077678351	0.023941222
2020-04-30T22:40:00	0.1997	10.384	190.0	0.464987169	0.549983067	0.007633703	0.078755509	0.024273213
2020-04-30T22:45:00	0.1994	10.370	190.0	0.463995179	0.548639123	0.007604215	0.078451286	0.024179448
2020-04-30T22:50:00	0.2007	10.357	190.0	0.468553434	0.554821074	0.007740179	0.079854000	0.024611778
2020-04-30T22:55:00	0.2004	10.345	190.0	0.467562494	0.553475749	0.007710520	0.079548016	0.024517471
2020-04-30T23:00:00	0.2011	10.332	190.0	0.469691261	0.556366777	0.007774303	0.080206055	0.024720285
2020-04-30T23:05:00	0.2019	10.320	189.0	0.472511191	0.560202000	0.007859194	0.081081859	0.024990217
2020-04-30T23:10:00	0.2022	10.309	190.0	0.473598684	0.561682725	0.007892054	0.081420864	0.025094701
2020-04-30T23:15:00	0.2025	10.299	189.0	0.474685828	0.563163915	0.007924970	0.081760457	0.025199367
2020-04-30T23:20:00	0.2026	10.287	190.0	0.475080785	0.563702260	0.007936945	0.081884003	0.025237445
2020-04-30T23:25:00	0.2017	10.274	189.0	0.472014789	0.559526414	0.007844218	0.080927348	0.024942595
2020-04-30T23:30:00	0.2014	10.260	189.0	0.471024864	0.558179746	0.007814393	0.080619656	0.024847761
2020-04-30T23:35:00	0.2018	10.247	189.0	0.472112836	0.559659837	0.007847175	0.080957855	0.024951997
2020-04-30T23:40:00	0.2021	10.234	189.0	0.473200457	0.561140392	0.007880013	0.081296643	0.025056415
2020-04-30T23:45:00	0.2013	10.220	189.0	0.470479197	0.557437767	0.007797978	0.080450297	0.024795563
2020-04-30T23:50:00	0.2013	10.206	189.0	0.470528243	0.557504449	0.007799452	0.080465512	0.024800252
2020-04-30T23:55:00	0.2011	10.192	189.0	0.469884387	0.556629235	0.007780103	0.080265885	0.024738725
2020-05-01T00:00:00	0.2014	10.179	189.0	0.470972726	0.558108840	0.007812824	0.080603466	0.024842771
2020-05-01T00:05:00	0.2014	10.167	189.0	0.471021765	0.558175531	0.007814300	0.080618694	0.024847464
2020-05-01T00:10:00	0.2015	10.156	189.0	0.471070803	0.558242223	0.007815776	0.080633922	0.024852158
2020-05-01T00:15:00	0.2021	10.145	189.0	0.473197360	0.561136175	0.007879920	0.081295677	0.025056117
2020-05-01T00:20:00	0.2028	10.134	189.0	0.475668491	0.564503563	0.007954781	0.082068014	0.025294159
2020-05-01T00:25:00	0.2015	10.124	189.0	0.471217914	0.558442304	0.007820205	0.080679615	0.024866241
2020-05-01T00:30:00	0.2020	10.114	189.0	0.472998229	0.560865032	0.007873902	0.081233597	0.025036984
2020-05-01T00:35:00	0.2006	10.103	189.0	0.468197488	0.554337743	0.007729519	0.079744024	0.024577883
2020-05-01T00:40:00	0.2000	10.090	189.0	0.466165998	0.551581153	0.007668818	0.079117786	0.024384870
2020-05-01T00:45:00	0.1998	10.076	188.0	0.465174355	0.550236753	0.007639274	0.078812980	0.024290926
2020-05-01T00:50:00	0.2003	10.063	189.0	0.466957860	0.552655266	0.007692451	0.079361601	0.024460016
2020-05-01T00:55:00	0.1997	10.051	188.0	0.464925623	0.549899661	0.007631872	0.078736617	0.024267390
2020-05-01T01:00:00	0.1990	10.041	188.0	0.462544935	0.546675741	0.007561206	0.078007567	0.024042690
2020-05-01T01:05:00	0.1999	10.030	188.0	0.465717777	0.550973390	0.007655457	0.078979943	0.024342385
2020-05-01T01:10:00	0.1978	10.017	188.0	0.458473898	0.541173151	0.007441114	0.076768602	0.023660829
2020-05-01T01:15:00	0.1969	10.001	188.0	0.455392749	0.537017249	0.007350851	0.075837374	0.023373815
2020-05-01T01:20:00	0.1970	9.983	188.0	0.455442016	0.537083641	0.007352290	0.075852220	0.023378391
2020-05-01T01:25:00	0.1962	9.964	188.0	0.452706360	0.533399922	0.007272594	0.075030008	0.023124977
2020-05-01T01:30:00	0.1962	9.945	188.0	0.452755666	0.533466263	0.007274026	0.075044788	0.023129532
2020-05-01T01:35:00	0.1969	9.928	188.0	0.455241832	0.536813882	0.007346444	0.075791905	0.023359801
2020-05-01T01:40:00	0.1956	9.913	187.0	0.450764159	0.530788218	0.007216271	0.074448938	0.022945886
2020-05-01T01:45:00	0.1950	9.894	187.0	0.448722105	0.528045445	0.007157284	0.073840380	0.022758322
2020-05-01T01:50:00	0.1948	9.880	187.0	0.448074060	0.527175714	0.007138614	0.073647766	0.022698957
2020-05-01T01:55:00	0.1947	9.866	188.0	0.447425889	0.526306145	0.007119964	0.073455360	0.022639655
2020-05-01T02:00:00	0.1948	9.852	187.0	0.447824058	0.526840279	0.007131418	0.073573525	0.022676075
2020-05-01T02:05:00	0.1962	9.835	187.0	0.452752550	0.533462070	0.007273936	0.075043854	0.023129245
2020-05-01T02:10:00	0.1968	9.820	187.0	0.454890703	0.536340792	0.007336195	0.075686168	0.023327212
2020-05-01T02:15:00	0.1967	9.805	187.0	0.454591931	0.535938320	0.007327479	0.075596253	0.023299499
2020-05-01T02:20:00	0.1958	9.788	187.0	0.451507216	0.531787066	0.007237794	0.074670985	0.023014323
2020-05-01T02:25:00	0.1960	9.774	187.0	0.452253225	0.532790319	0.007259434	0.074894240	0.023083132
2020-05-01T02:30:00	0.1953	9.760	187.0	0.449514968	0.529109984	0.007180159	0.074076373	0.022831057
2020-05-01T02:35:00	0.1954	9.745	187.0	0.449912889	0.529644440	0.007191652	0.074194951	0.022867604
2020-05-01T02:40:00	0.1957	9.732	187.0	0.451007706	0.531115556	0.007223322	0.074521681	0.022968306
2020-05-01T02:45:00	0.1961	9.719	187.0	0.452450471	0.533055654	0.007265161	0.074953324	0.023101342
2020-05-01T02:50:00	0.1957	9.707	186.0	0.451106367	0.531248174	0.007226179	0.074551159	0.022977391
2020-05-01T02:55:00	0.1959	9.696	187.0	0.451852465	0.532251312	0.007247805	0.074774266	0.023046155
2020-05-01T03:00:00	0.1954	9.682	187.0	0.450159616	0.529975887	0.007198783	0.074268521	0.022890280
2020-05-01T03:05:00	0.1956	9.667	186.0	0.450557460	0.530510442	0.007210289	0.074387227	0.022926866
2020-05-01T03:10:00	0.1953	9.652	187.0	0.449561202	0.529172076	0.007181494	0.074090145	0.022835302
2020-05-01T03:15:00	0.1963	9.637	186.0	0.453094555	0.533922290	0.007283877	0.075146414	0.023160855
2020-05-01T03:20:00	0.1963	9.621	186.0	0.453143855	0.533988638	0.007285310	0.075161203	0.023165413
2020-05-01T03:25:00	0.1961	9.606	186.0	0.452496664	0.533117798	0.007266502	0.074967164	0.023105608
2020-05-01T03:30:00	0.1965	9.588	186.0	0.453938789	0.535058728	0.007308445	0.075399875	0.023238974
2020-05-01T03:35:00	0.1962	9.568	186.0	0.452943534	0.533719057	0.007279486	0.075101117	0.023146894
2020-05-01T03:40:00	0.1953	9.550	186.0	0.449508730	0.529101607	0.007179978	0.074074514	0.022830485
2020-05-01T03:45:00	0.1956	9.532	186.0	0.450603679	0.530572552	0.007211627	0.074401024	0.022931118
2020-05-01T03:50:00	0.1960	9.513	186.0	0.452046618	0.532512424	0.007253437	0.074832377	0.023064065
2020-05-01T03:55:00	0.1960	9.494	186.0	0.452095933	0.532578752	0.007254868	0.074847141	0.023068616
2020-05-01T04:00:00	0.1952	9.477	186.0	0.449357547	0.528898584	0.007175614	0.074029488	0.022816607
2020-05-01T04:05:00	0.1958	9.458	186.0	0.451491630	0.531766110	0.007237342	0.074666324	0.023012886
2020-05-01T04:10:00	0.1951	9.440	186.0	0.449095163	0.528546272	0.007168043	0.073951373	0.022792532
2020-05-01T04:15:00	0.1948	9.422	186.0	0.448092229	0.527200095	0.007139137	0.073653163	0.022700620
2020-05-01T04:20:00	0.1950	9.404	185.0	0.448484079	0.527725956	0.007150424	0.073769604	0.022736509
2020-05-01T04:25:00	0.1951	9.386	185.0	0.448875882	0.528251877	0.007161718	0.073886122	0.022772421
2020-05-01T04:30:00	0.1945	9.373	185.0	0.446826433	0.525502225	0.007102738	0.073277635	0.022584879
2020-05-01T04:35:00	0.1947	9.364	185.0	0.447567243	0.526495753	0.007124030	0.073497299	0.022652581
2020-05-01T04:40:00	0.1952	9.353	185.0	0.449353875	0.528893653	0.007175508	0.074028394	0.022816270
2020-05-01T04:45:00	0.1949	9.341	185.0	0.448351019	0.527547376	0.007146590	0.073730054	0.022724319
2020-05-01T04:50:00	0.1957	9.331	185.0	0.451182650	0.531350717	0.007228389	0.074573955	0.022984417
2020-05-01T04:55:00	0.1977	9.323	185.0	0.458186786	0.540785573	0.007432680	0.076681591	0.023634011
2020-05-01T05:00:00	0.1989	9.314	185.0	0.462052177	0.546009010	0.007546620	0.077857084	0.023996309
2020-05-01T05:05:00	0.1991	9.301	185.0	0.462789635	0.547006906	0.007568454	0.078082349	0.024065738
2020-05-01T05:10:00	0.2002	9.289	185.0	0.466649748	0.552237272	0.007683251	0.079266689	0.024430763
2020-05-01T05:15:00	0.2007	9.283	185.0	0.468426270	0.554648389	0.007736370	0.079814702	0.024599666
2020-05-01T05:20:00	0.2008	9.281	185.0	0.468815757	0.555177340	0.007748040	0.079935098	0.024636773
2020-05-01T05:25:00	0.2001	9.278	185.0	0.466431609	0.551941384	0.007676741	0.079199527	0.024410063
2020-05-01T05:30:00	0.1998	9.279	185.0	0.465433836	0.550588465	0.007646999	0.078892682	0.024315491
2020-05-01T05:35:00	0.2008	9.285	185.0	0.468944359	0.555352017	0.007751895	0.079974870	0.024649032
2020-05-01T05:40:00	0.2008	9.305	185.0	0.468640629	0.554939489	0.007742791	0.079880952	0.024620085
2020-05-01T05:45:00	0.2024	9.322	185.0	0.474224706	0.562535539	0.007911000	0.081616330	0.025154945
2020-05-01T05:50:00	0.2027	9.340	185.0	0.475305457	0.564008556	0.007943762	0.081954324	0.025259119
2020-05-01T05:55:00	0.2032	9.361	185.0	0.477077434	0.566425693	0.007997621	0.082509985	0.025430379
2020-05-01T06:00:00	0.2047	9.374	185.0	0.482302411	0.573567607	0.008157484	0.084159255	0.025938700
2020-05-01T06:05:00	0.2041	9.380	185.0	0.480273200	0.570791334	0.008095212	0.083516814	0.025740693
2020-05-01T06:10:00	0.2048	9.379	185.0	0.482732995	0.574157135	0.008170728	0.084295890	0.025980812
2020-05-01T06:15:00	0.2054	9.381	185.0	0.484846067	0.577052363	0.008235876	0.084968011	0.026187966
2020-05-01T06:20:00	0.2049	9.365	185.0	0.482818379	0.574274054	0.008173355	0.084322997	0.025989167
2020-05-01T06:25:00	0.2051	9.349	185.0	0.483551319	0.575277939	0.008195927	0.084555867	0.026060939
2020-05-01T06:30:00	0.2052	9.336	185.0	0.483939068	0.575809201	0.008207881	0.084679191	0.026098949
2020-05-01T06:35:00	0.2057	9.327	185.0	0.485706536	0.578232358	0.008262478	0.085242465	0.026272556
2020-05-01T06:40:00	0.2041	9.319	185.0	0.480226838	0.570727942	0.008093792	0.083502164	0.025736178
2020-05-01T06:45:00	0.2050	9.313	185.0	0.483376952	0.575039076	0.008190554	0.084500438	0.026043856
2020-05-01T06:50:00	0.2050	9.311	185.0	0.483419636	0.575097545	0.008191869	0.084514005	0.026048037
2020-05-01T06:55:00	0.2052	9.314	185.0	0.484152446	0.576101605	0.008214462	0.084747094	0.026119878
2020-05-01T07:00:00	0.2055	9.319	184.0	0.484885099	0.577105876	0.008237081	0.084980451	0.026191800
2020-05-01T07:05:00	0.2047	9.322	185.0	0.482167043	0.573382300	0.008153322	0.084116322	0.025925467
2020-05-01T07:10:00	0.2050	9.328	185.0	0.483245262	0.574858691	0.008186498	0.084458588	0.026030957
2020-05-01T07:15:00	0.2058	9.341	184.0	0.486047757	0.578700451	0.008273039	0.085351422	0.026306137
2020-05-01T07:20:00	0.2055	9.356	185.0	0.485055755	0.577339861	0.008242355	0.085034853	0.026208567
2020-05-01T07:25:00	0.2062	9.360	185.0	0.487512086	0.580710303	0.008318438	0.085819787	0.026450492
2020-05-01T07:30:00	0.2063	9.371	184.0	0.487899383	0.581242171	0.008330466	0.085943877	0.026488738
2020-05-01T07:35:00	0.2062	9.380	185.0	0.487597349	0.580827383	0.008321085	0.085847098	0.026458909
2020-05-01T07:40:00	0.2075	9.415	185.0	0.491773555	0.586569111	0.008451256	0.087190054	0.026872822
2020-05-01T07:45:00	0.2080	9.454	185.0	0.493536953	0.588997745	0.008506523	0.087760225	0.027048554
2020-05-01T07:50:00	0.2083	9.474	185.0	0.494611571	0.590478981	0.008540290	0.088108594	0.027155924
2020-05-01T07:55:00	0.2091	9.520	185.0	0.497404715	0.594333342	0.008628368	0.089017284	0.027435991
2020-05-01T08:00:00	0.2087	9.532	186.0	0.496072218	0.592493798	0.008586293	0.088583205	0.027302204
2020-05-01T08:05:00	0.2088	9.581	186.0	0.496458541	0.593026980	0.008598481	0.088708947	0.027340959
2020-05-01T08:10:00	0.2084	9.600	185.0	0.495125673	0.591187939	0.008556467	0.088275498	0.027207366
2020-05-01T08:15:00	0.2076	9.649	186.0	0.492415800	0.587453352	0.008471364	0.087397502	0.026936759
2020-05-01T08:20:00	0.2069	9.699	186.0	0.489703767	0.583721683	0.008386616	0.086523172	0.026667282
2020-05-01T08:25:00	0.2071	9.753	186.0	0.490435223	0.584727562	0.008409432	0.086758556	0.026739829
2020-05-01T08:30:00	0.2077	9.740	186.0	0.492543510	0.587629222	0.008475365	0.087438781	0.026949482
2020-05-01T08:35:00	0.2075	9.770	186.0	0.491897663	0.586739956	0.008455140	0.087230122	0.026885171
2020-05-01T08:40:00	0.2086	9.797	186.0	0.495724757	0.592014356	0.008575339	0.088470189	0.027267372
2020-05-01T08:45:00	0.2100	9.789	186.0	0.500577813	0.598719617	0.008728974	0.090055214	0.027755892
2020-05-01T08:50:00	0.2104	9.797	187.0	0.501993455	0.600679117	0.008774045	0.090520209	0.027899208
2020-05-01T08:55:00	0.2100	9.785	186.0	0.500662749	0.598837139	0.008731675	0.090083080	0.027764480
2020-05-01T09:00:00	0.2095	9.816	186.0	0.498644470	0.596046132	0.008667607	0.089422099	0.027560759
2020-05-01T09:05:00	0.2087	9.891	186.0	0.495937397	0.592307755	0.008582042	0.088539345	0.027288686
2020-05-01T09:10:00	0.2088	9.960	187.0	0.496323736	0.592840916	0.008594227	0.088665060	0.027327433
2020-05-01T09:15:00	0.2084	10.026	188.0	0.494990815	0.591001946	0.008552222	0.088231701	0.027193867
2020-05-01T09:20:00	0.2088	10.061	188.0	0.496408779	0.592958294	0.008596911	0.088692745	0.027335965
2020-05-01T09:25:00	0.2070	10.078	188.0	0.490257582	0.584483234	0.008403888	0.086701361	0.026722202
2020-05-01T09:30:00	0.2071	10.190	188.0	0.490644566	0.585015524	0.008415967	0.086825981	0.026760611
2020-05-01T09:35:00	0.2067	10.274	188.0	0.489309418	0.583179562	0.008374328	0.086396402	0.026628210
2020-05-01T09:40:00	0.2062	10.313	188.0	0.487284395	0.580397675	0.008311370	0.085746877	0.026428020
2020-05-01T09:45:00	0.2073	10.437	189.0	0.491116681	0.585665071	0.008430715	0.086978135	0.026807506
2020-05-01T09:50:00	0.2068	10.507	189.0	0.489437244	0.583355274	0.008378310	0.086437484	0.026640872
2020-05-01T09:55:00	0.2075	10.527	190.0	0.491890411	0.586729973	0.008454913	0.087227781	0.026884449
2020-05-01T10:00:00	0.2062	10.575	190.0	0.487454930	0.580631823	0.008316663	0.085801482	0.026444850
2020-05-01T10:05:00	0.2053	10.647	190.0	0.484201647	0.576169031	0.008215980	0.084762755	0.026124704
2020-05-01T10:10:00	0.2059	10.735	190.0	0.486466424	0.579274914	0.008286007	0.085485203	0.026347370
2020-05-01T10:15:00	0.2056	10.794	191.0	0.485282306	0.577650521	0.008249357	0.085107099	0.026230834
2020-05-01T10:20:00	0.2058	10.813	191.0	0.486167348	0.578864531	0.008276742	0.085389626	0.026317912
2020-05-01T10:25:00	0.2048	10.850	191.0	0.482567657	0.573930747	0.008165641	0.084243411	0.025964638
2020-05-01T10:30:00	0.2032	10.941	191.0	0.477235913	0.566641995	0.008002447	0.082559771	0.025445723
2020-05-01T10:35:00	0.2034	11.030	191.0	0.477777398	0.567381197	0.008018946	0.082729993	0.025498187
2020-05-01T10:40:00	0.2028	11.057	192.0	0.475552682	0.564345642	0.007951265	0.082031738	0.025282978
2020-05-01T10:45:00	0.2017	11.043	192.0	0.471941683	0.559426936	0.007842013	0.080904605	0.024935585
2020-05-01T10:50:00	0.2016	11.041	191.0	0.471445197	0.558751460	0.007827050	0.080750235	0.024888007
2020-05-01T10:55:00	0.2003	11.076	192.0	0.467136336	0.552897425	0.007697783	0.079416604	0.024476969
2020-05-01T11:00:00	0.1998	11.136	192.0	0.465251577	0.550341417	0.007641573	0.078836695	0.024298235
2020-05-01T11:05:00	0.1986	11.170	192.0	0.461282176	0.544967539	0.007523855	0.077622221	0.023923922
2020-05-01T11:10:00	0.1979	11.180	192.0	0.458698932	0.541476974	0.007447728	0.076836833	0.023681858
2020-05-01T11:15:00	0.1981	11.248	193.0	0.459243400	0.542212238	0.007463741	0.077002042	0.023732777
2020-05-01T11:20:00	0.1997	11.343	193.0	0.464996640	0.549995902	0.007633985	0.078758417	0.024274109
2020-05-01T11:25:00	0.1990	11.390	193.0	0.462416246	0.546501598	0.007557395	0.077968253	0.024030573
2020-05-01T11:30:00	0.1978	11.453	193.0	0.458443499	0.541132111	0.007440221	0.076759387	0.023657989
2020-05-01T11:35:00	0.1979	11.594	194.0	0.458640381	0.541397920	0.007446007	0.076819078	0.023676386
2020-05-01T11:40:00	0.1977	11.670	194.0	0.458141931	0.540725028	0.007431363	0.076668002	0.023629823
2020-05-01T11:45:00	0.1976	11.699	194.0	0.457643407	0.540052234	0.007416731	0.076517050	0.023583298
2020-05-01T11:50:00	0.1968	11.700	194.0	0.455057364	0.536565328	0.007341058	0.075736346	0.023342677
2020-05-01T11:55:00	0.1971	11.779	195.0	0.455950363	0.537768812	0.007367146	0.076005491	0.023425630
2020-05-01T12:00:00	0.1974	11.845	195.0	0.456843125	0.538972605	0.007393273	0.076275032	0.023508706
2020-05-01T12:05:00	0.1974	11.873	195.0	0.457040102	0.539238291	0.007399043	0.076334566	0.023527055
2020-05-01T12:10:00	0.1965	11.906	195.0	0.453757365	0.534814462	0.007303162	0.075345372	0.023222175
2020-05-01T12:15:00	0.1970	11.910	195.0	0.455694721	0.537424222	0.007359673	0.075928394	0.023401868
2020-05-01T12:20:00	0.1968	11.898	195.0	0.454847815	0.536283013	0.007334943	0.075673257	0.023323233
2020-05-01T12:25:00	0.1972	11.896	195.0	0.456436688	0.538424490	0.007381373	0.076152263	0.023470867
2020-05-01T12:30:00	0.1965	11.900	195.0	0.453849714	0.534938797	0.007305851	0.075373113	0.023230725
2020-05-01T12:35:00	0.1967	11.917	195.0	0.454394969	0.535673034	0.007321737	0.075537007	0.023281239
2020-05-01T12:40:00	0.1951	11.950	195.0	0.449018438	0.528443260	0.007165829	0.073928539	0.022785494
2020-05-01T12:45:00	0.1953	11.977	196.0	0.449564479	0.529176477	0.007181588	0.074091121	0.022835603
2020-05-01T12:50:00	0.1938	12.003	196.0	0.444529316	0.522424216	0.007036913	0.072598539	0.022375575
2020-05-01T12:55:00	0.1939	12.011	196.0	0.444727017	0.522688961	0.007042567	0.072656864	0.022393551
2020-05-01T13:00:00	0.1933	12.034	196.0	0.442829635	0.520149407	0.006988402	0.072098053	0.022221320
2020-05-01T13:05:00	0.1938	12.076	196.0	0.444424214	0.522283483	0.007033909	0.072567542	0.022366021
2020-05-01T13:10:00	0.1935	12.128	196.0	0.443225226	0.520678653	0.006999678	0.072214387	0.022257176
2020-05-01T13:15:00	0.1940	12.180	196.0	0.445168678	0.523280508	0.007055204	0.072787243	0.022433735
2020-05-01T13:20:00	0.1941	12.234	196.0	0.445366341	0.523545302	0.007060864	0.072845631	0.022451731
2020-05-01T13:25:00	0.1934	12.278	197.0	0.443120082	0.520537974	0.006996680	0.072183458	0.022247643
2020-05-01T13:30:00	0.1929	12.291	197.0	0.441221788	0.517999596	0.006942662	0.071626165	0.022075880
2020-05-01T13:35:00	0.1930	12.266	196.0	0.441769101	0.518731167	0.006958216	0.071786627	0.022125336
2020-05-01T13:40:00	0.1927	12.201	196.0	0.440683847	0.517127655	0.006925341	0.071447466	0.022020803
2020-05-01T13:45:00	0.1929	12.116	196.0	0.441466030	0.518326035	0.006949601	0.071697750	0.022097943
2020-05-01T13:50:00	0.1959	12.047	196.0	0.451781485	0.532155859	0.007245746	0.074753026	0.023039609
2020-05-01T13:55:00	0.2055	11.983	196.0	0.484909049	0.577138712	0.008237821	0.084988085	0.026194153
2020-05-01T14:00:00	0.2155	11.515	191.0	0.519424139	0.624938749	0.009338508	0.096343670	0.029694055
2020-05-01T14:05:00	0.2146	11.286	187.0	0.516201197	0.620434627	0.009232812	0.095253223	0.029357968
2020-05-01T14:10:00	0.2109	11.268	186.0	0.503725387	0.603078612	0.008829344	0.091090719	0.028075044
2020-05-01T14:15:00	0.2071	11.287	187.0	0.490515147	0.584837497	0.008411926	0.086784294	0.026747762
2020-05-01T14:20:00	0.2057	11.361	188.0	0.485885666	0.578478080	0.008268022	0.085299655	0.026290182
2020-05-01T14:25:00	0.2058	11.372	187.0	0.486080955	0.578745999	0.008274067	0.085362027	0.026309406
2020-05-01T14:30:00	0.2051	11.361	188.0	0.483516611	0.575230390	0.008194857	0.084544832	0.026057538
2020-05-01T14:35:00	0.2050	11.382	188.0	0.483366946	0.575025368	0.008190246	0.084497258	0.026042876
2020-05-01T14:40:00	0.2045	11.417	189.0	0.481491216	0.572457374	0.008132562	0.083902141	0.025859455
2020-05-01T14:45:00	0.2043	11.431	189.0	0.480996130	0.571780036	0.008117370	0.083745412	0.025811149
2020-05-01T14:50:00	0.2054	11.453	188.0	0.484643243	0.576774309	0.008229611	0.084903383	0.026168047
2020-05-01T14:55:00	0.2061	11.467	189.0	0.487252457	0.580353828	0.008310379	0.085736653	0.026424869
2020-05-01T15:00:00	0.2116	11.469	189.0	0.506010420	0.606248095	0.008902569	0.091846160	0.028307879
2020-05-01T15:05:00	0.2136	11.472	189.0	0.512711597	0.615567325	0.009119051	0.094079565	0.028996235
2020-05-01T15:10:00	0.2120	11.470	189.0	0.507426880	0.608214924	0.008948111	0.092316011	0.028452691
2020-05-01T15:15:00	0.2102	11.465	189.0	0.501104198	0.599448039	0.008745720	0.090227976	0.027809139
2020-05-01T15:20:00	0.2095	11.446	189.0	0.498894710	0.596392001	0.008675537	0.089503920	0.027585977
2020-05-01T15:25:00	0.2085	11.427	189.0	0.495308475	0.591440077	0.008562224	0.088334882	0.027225669
2020-05-01T15:30:00	0.2073	11.407	190.0	0.491374182	0.586019421	0.008438765	0.087061179	0.026833101
2020-05-01T15:35:00	0.2065	11.385	190.0	0.488469259	0.582024991	0.008348179	0.086126626	0.026545063
2020-05-01T15:40:00	0.2059	11.358	190.0	0.486251551	0.578980065	0.008279350	0.085416530	0.026326204
2020-05-01T15:45:00	0.2061	11.333	190.0	0.487136341	0.580194414	0.008306777	0.085699484	0.026413413
2020-05-01T15:50:00	0.2059	11.304	190.0	0.486297284	0.579042817	0.008280767	0.085431144	0.026330708
2020-05-01T15:55:00	0.2057	11.276	190.0	0.485802899	0.578364540	0.008265460	0.085273228	0.026282037
2020-05-01T16:00:00	0.2053	11.250	190.0	0.484273550	0.576267576	0.008218199	0.084785645	0.026131759
2020-05-01T16:05:00	0.2045	11.226	190.0	0.481518476	0.572494673	0.008133399	0.083910775	0.025862116
2020-05-01T16:10:00	0.2037	11.206	190.0	0.478761160	0.568724766	0.008048965	0.083039691	0.025593639
2020-05-01T16:15:00	0.2034	11.184	190.0	0.477730454	0.567317102	0.008017515	0.082715228	0.025493637
2020-05-01T16:20:00	0.2024	11.163	190.0	0.474278048	0.562608221	0.007912616	0.081632996	0.025160082
2020-05-01T16:25:00	0.2008	11.141	190.0	0.468743131	0.555078700	0.007745863	0.079912641	0.024629852
2020-05-01T16:30:00	0.1993	11.113	190.0	0.463546277	0.548031208	0.007590889	0.078313807	0.024137076
2020-05-01T16:35:00	0.1985	11.075	189.0	0.460774241	0.544280783	0.007508856	0.077467482	0.023876230
2020-05-01T16:40:00	0.1983	11.037	188.0	0.460085539	0.543349947	0.007488543	0.077257917	0.023811640
2020-05-01T16:45:00	0.1980	10.999	189.0	0.459049112	0.541949839	0.007458025	0.076943069	0.023714601
2020-05-01T16:50:00	0.1982	10.962	189.0	0.459750464	0.542897202	0.007478670	0.077156058	0.023780247
2020-05-01T16:55:00	0.1989	10.926	189.0	0.462188511	0.546193458	0.007550654	0.077898705	0.024009137
2020-05-01T17:00:00	0.1987	10.889	189.0	0.461500098	0.545262243	0.007530294	0.077688655	0.023944398
2020-05-01T17:05:00	0.1992	10.856	188.0	0.463242610	0.547620066	0.007581882	0.078220874	0.024108433
2020-05-01T17:10:00	0.1997	10.826	188.0	0.464984221	0.549979072	0.007633616	0.078754604	0.024272934
2020-05-01T17:15:00	0.1997	10.800	188.0	0.464990431	0.549987487	0.007633800	0.078756510	0.024273521
2020-05-01T17:20:00	0.1994	10.775	188.0	0.463955513	0.548585399	0.007603037	0.078439133	0.024175702
2020-05-01T17:25:00	0.1990	10.751	189.0	0.462573056	0.546713796	0.007562039	0.078016159	0.024045338
2020-05-01T17:30:00	0.1984	10.727	187.0	0.460495196	0.543903586	0.007500622	0.077382538	0.023850050
2020-05-01T17:35:00	0.1980	10.701	188.0	0.459111316	0.542033848	0.007459855	0.076961948	0.023720420
2020-05-01T17:40:00	0.1978	10.671	188.0	0.458422274	0.541103458	0.007439597	0.076752953	0.023656006
2020-05-01T17:45:00	0.1971	10.644	188.0	0.455993947	0.537827565	0.007368421	0.076018639	0.023429683
2020-05-01T17:50:00	0.1956	10.618	187.0	0.450777342	0.530805934	0.007216653	0.074452874	0.022947099
2020-05-01T17:55:00	0.1956	10.593	187.0	0.450783577	0.530814315	0.007216833	0.074454736	0.022947673
2020-05-01T18:00:00	0.1961	10.570	187.0	0.452531654	0.533164870	0.007267518	0.074977648	0.023108839
2020-05-01T18:05:00	0.1969	10.548	187.0	0.455322947	0.536923186	0.007348812	0.075816342	0.023367333
2020-05-01T18:10:00	0.1978	10.524	187.0	0.458459604	0.541153854	0.007440694	0.076764269	0.023659493
2020-05-01T18:15:00	0.1981	10.498	187.0	0.459508653	0.542570528	0.007471549	0.077082591	0.023757603
2020-05-01T18:20:00	0.1995	10.470	187.0	0.464377120	0.549156483	0.007615562	0.078568351	0.024215529
2020-05-01T18:25:00	0.1992	10.440	186.0	0.463342014	0.547754643	0.007584830	0.078251289	0.024117807
2020-05-01T18:30:00	0.1990	10.411	186.0	0.462653837	0.546823118	0.007564431	0.078040844	0.024052946
2020-05-01T18:35:00	0.1991	10.380	186.0	0.463007263	0.547301473	0.007574904	0.078148887	0.024086246
2020-05-01T18:40:00	0.1996	10.348	186.0	0.464748995	0.549660319	0.007626618	0.078682413	0.024250684
2020-05-01T18:45:00	0.1987	10.315	186.0	0.461630632	0.545438787	0.007534152	0.077728462	0.023956667
2020-05-01T18:50:00	0.1978	10.281	186.0	0.458509377	0.541221049	0.007442157	0.076779357	0.023664144
2020-05-01T18:55:00	0.1990	10.247	186.0	0.462684906	0.546865165	0.007565352	0.078050339	0.024055873
2020-05-01T19:00:00	0.1995	10.211	186.0	0.464426806	0.549223793	0.007617039	0.078583586	0.024220224
2020-05-01T19:05:00	0.1984	10.178	185.0	0.460613333	0.544063270	0.007504108	0.077418495	0.023861132
2020-05-01T19:10:00	0.1993	10.146	185.0	0.463745063	0.548300389	0.007596789	0.078374671	0.024155835
2020-05-01T19:15:00	0.2004	10.114	185.0	0.467567403	0.553482411	0.007710667	0.079549530	0.024517938
2020-05-01T19:20:00	0.2006	10.083	185.0	0.467920314	0.553961444	0.007721223	0.079658437	0.024551504
2020-05-01T19:25:00	0.2008	10.051	185.0	0.468619822	0.554911231	0.007742168	0.079874520	0.024618103
2020-05-01T19:30:00	0.2011	10.020	185.0	0.469665711	0.556332058	0.007773536	0.080198141	0.024717846
2020-05-01T19:35:00	0.2019	9.988	185.0	0.472442841	0.560108967	0.007857131	0.081060576	0.024983657
2020-05-01T19:40:00	0.2023	9.958	185.0	0.473833647	0.562002773	0.007899162	0.081494200	0.025117304
2020-05-01T19:45:00	0.2017	9.930	185.0	0.471762716	0.559183427	0.007836618	0.080848943	0.024918429
2020-05-01T19:50:00	0.2013	9.902	185.0	0.470383457	0.557307607	0.007795099	0.080420600	0.024786410
2020-05-01T19:55:00	0.2007	9.872	184.0	0.468310409	0.554491064	0.007732900	0.079778905	0.024588633
2020-05-01T20:00:00	0.2006	9.841	184.0	0.467969947	0.554028822	0.007722709	0.079673760	0.024556227
2020-05-01T20:05:00	0.2007	9.810	182.0	0.468322815	0.554507911	0.007733272	0.079782738	0.024589815
2020-05-01T20:10:00	0.2004	9.778	184.0	0.467288920	0.553104475	0.007702342	0.079463643	0.024491467
2020-05-01T20:15:00	0.2006	9.748	183.0	0.467988559	0.554054090	0.007723265	0.079679506	0.024557998
2020-05-01T20:20:00	0.2009	9.720	183.0	0.469034644	0.555474658	0.007754602	0.080002798	0.024657639
2020-05-01T20:25:00	0.2005	9.689	183.0	0.467654269	0.553600312	0.007713265	0.079576330	0.024526198
2020-05-01T20:30:00	0.1999	9.661	183.0	0.465579543	0.550785984	0.007651339	0.078937455	0.024329290
2020-05-01T20:35:00	0.2001	9.635	183.0	0.466279536	0.551735131	0.007672205	0.079152722	0.024395638
2020-05-01T20:40:00	0.2005	9.610	183.0	0.467672883	0.553625577	0.007713821	0.079582074	0.024527968
2020-05-01T20:45:00	0.2005	9.585	183.0	0.467679088	0.553633999	0.007714007	0.079583988	0.024528558
2020-05-01T20:50:00	0.2011	9.562	183.0	0.469764926	0.556466884	0.007776515	0.080228874	0.024727318
2020-05-01T20:55:00	0.2005	9.539	183.0	0.467691497	0.553650843	0.007714378	0.079587817	0.024529738
2020-05-01T21:00:00	0.2004	9.515	183.0	0.467350973	0.553188683	0.007704197	0.079482777	0.024497364
2020-05-01T21:05:00	0.2003	9.489	183.0	0.467010414	0.552726569	0.007694021	0.079377795	0.024465007
2020-05-01T21:10:00	0.2000	9.462	182.0	0.465976116	0.551323665	0.007663157	0.079059376	0.024366868
2020-05-01T21:15:00	0.2001	9.434	182.0	0.466329194	0.551802478	0.007673686	0.079168004	0.024400348
2020-05-01T21:20:00	0.2001	9.406	183.0	0.466335401	0.551810896	0.007673871	0.079169914	0.024400936
2020-05-01T21:25:00	0.1998	9.379	182.0	0.465300895	0.550408264	0.007643041	0.078851843	0.024302904
2020-05-01T21:30:00	0.1999	9.351	182.0	0.465654044	0.550886984	0.007653558	0.078960352	0.024336347
2020-05-01T21:35:00	0.2010	9.323	182.0	0.469474221	0.556071856	0.007767788	0.080138842	0.024699569
2020-05-01T21:40:00	0.2006	9.297	182.0	0.468094026	0.554197273	0.007726422	0.079712072	0.024568035
2020-05-01T21:45:00	0.2004	9.270	181.0	0.467406819	0.553264472	0.007705866	0.079499999	0.024502672
2020-05-01T21:50:00	0.2001	9.241	181.0	0.466372643	0.551861407	0.007674982	0.079181377	0.024404469
2020-05-01T21:55:00	0.2001	9.213	181.0	0.466378850	0.551869826	0.007675167	0.079183287	0.024405058
2020-05-01T22:00:00	0.2002	9.183	181.0	0.466731885	0.552348694	0.007685703	0.079291985	0.024438560
2020-05-01T22:05:00	0.2003	9.153	181.0	0.466937593	0.552627768	0.007691846	0.079355356	0.024458091
2020-05-01T22:10:00	0.1999	9.122	180.0	0.465755930	0.551025117	0.007656594	0.078991671	0.024346000
2020-05-01T22:15:00	0.1997	9.089	181.0	0.464920867	0.549893217	0.007631731	0.078735158	0.024266940
2020-05-01T22:20:00	0.1991	9.058	180.0	0.463044188	0.547351456	0.007575998	0.078160179	0.024089726
2020-05-01T22:25:00	0.1994	9.028	181.0	0.463944387	0.548570331	0.007602707	0.078435724	0.024174652
2020-05-01T22:30:00	0.1994	9.000	180.0	0.463803171	0.548379080	0.007598514	0.078392467	0.024161320
2020-05-01T22:35:00	0.1989	8.971	180.0	0.462273156	0.546307984	0.007553159	0.077924551	0.024017103
2020-05-01T22:40:00	0.1993	8.944	180.0	0.463520720	0.547996603	0.007590131	0.078305983	0.024134665
2020-05-01T22:45:00	0.1986	8.917	180.0	0.461295908	0.544986107	0.007524260	0.077626406	0.023925212
2020-05-01T22:50:00	0.1985	8.891	179.0	0.460807177	0.544325308	0.007509828	0.077477511	0.023879321
2020-05-01T22:55:00	0.1986	8.865	180.0	0.461013247	0.544603906	0.007515912	0.077540274	0.023898666
2020-05-01T23:00:00	0.1976	8.837	180.0	0.457743724	0.540187603	0.007419675	0.076547414	0.023592656
2020-05-01T23:05:00	0.1972	8.809	180.0	0.456210951	0.538120121	0.007374768	0.076084119	0.023449864
2020-05-01T23:10:00	0.1965	8.781	179.0	0.453981295	0.535115961	0.007309683	0.075412648	0.023242910
2020-05-01T23:15:00	0.1961	8.754	179.0	0.452446802	0.533050719	0.007265054	0.074952225	0.023101004
2020-05-01T23:20:00	0.1962	8.726	179.0	0.452653385	0.533328646	0.007271055	0.075014129	0.023120083
2020-05-01T23:25:00	0.1960	8.701	179.0	0.452163396	0.532669491	0.007256826	0.074867340	0.023074841
2020-05-01T23:30:00	0.1957	8.675	179.0	0.450976529	0.531073650	0.007222419	0.074512367	0.022965435
2020-05-01T23:35:00	0.1949	8.650	179.0	0.448394701	0.527606001	0.007147849	0.073743037	0.022728320
2020-05-01T23:40:00	0.1943	8.622	179.0	0.446159841	0.524608601	0.007083605	0.073080252	0.022524043
2020-05-01T23:45:00	0.1937	8.597	179.0	0.443923488	0.521613131	0.007019603	0.072419954	0.022320533
2020-05-01T23:50:00	0.1926	8.572	179.0	0.440465177	0.516751823	0.006918018	0.071371920	0.021997519
2020-05-01T23:55:00	0.1923	8.546	178.0	0.439539641	0.515162574	0.006887078	0.071052710	0.021899135
2020-05-02T00:00:00	0.1926	8.521	178.0	0.440515779	0.516838782	0.006919712	0.071389398	0.022002906
2020-05-02T00:05:00	0.1927	8.496	178.0	0.440676865	0.517115653	0.006925107	0.071445053	0.022020059
2020-05-02T00:10:00	0.1922	8.472	178.0	0.439479714	0.515059755	0.006885077	0.071032072	0.021892775
2020-05-02T00:15:00	0.1933	8.448	178.0	0.442721749	0.520005092	0.006985328	0.072066342	0.022211547
2020-05-02T00:20:00	0.1931	8.424	178.0	0.441880936	0.518880680	0.006961396	0.071819436	0.022135448
2020-05-02T00:25:00	0.1922	8.399	178.0	0.439419785	0.514956943	0.006883077	0.071011437	0.021886415
2020-05-02T00:30:00	0.1926	8.375	178.0	0.440395992	0.516632942	0.006915703	0.071348029	0.021990155
2020-05-02T00:35:00	0.1919	8.352	178.0	0.438654953	0.513645706	0.006857582	0.070748407	0.021805346
2020-05-02T00:40:00	0.1921	8.331	177.0	0.439088058	0.514388025	0.006872012	0.070897281	0.021851230
2020-05-02T00:45:00	0.1917	8.307	177.0	0.437889773	0.512335507	0.006832133	0.070485854	0.021724425
2020-05-02T00:50:00	0.1920	8.285	178.0	0.438866870	0.514008855	0.006864640	0.070821227	0.021827790
2020-05-02T00:55:00	0.1914	8.263	177.0	0.437124242	0.511026347	0.006806730	0.070223779	0.021643651
2020-05-02T01:00:00	0.1907	8.242	177.0	0.435379795	0.508049224	0.006749060	0.069628807	0.021460274
2020-05-02T01:05:00	0.1903	8.220	177.0	0.434178844	0.506004583	0.006709532	0.069221000	0.021334584
2020-05-02T01:10:00	0.1902	8.197	177.0	0.433795270	0.505352388	0.006696936	0.069091058	0.021294535
2020-05-02T01:15:00	0.1898	8.176	177.0	0.432866029	0.503774092	0.006666483	0.068776881	0.021197703
2020-05-02T01:20:00	0.1897	8.156	177.0	0.432482150	0.503122785	0.006653928	0.068647347	0.021157779
2020-05-02T01:25:00	0.1898	8.135	177.0	0.432916862	0.503860368	0.006668147	0.068794045	0.021202993
2020-05-02T01:30:00	0.1887	8.114	177.0	0.429801854	0.498586695	0.006566665	0.067747070	0.020880305
2020-05-02T01:35:00	0.1893	8.095	176.0	0.431329981	0.501170422	0.006616330	0.068259459	0.021038228
2020-05-02T01:40:00	0.1889	8.074	177.0	0.430399354	0.499596163	0.006586057	0.067947135	0.020941967
2020-05-02T01:45:00	0.1893	8.055	177.0	0.431380861	0.501256561	0.006617988	0.068276560	0.021043499
2020-05-02T01:50:00	0.1890	8.034	176.0	0.430723473	0.500144173	0.006596591	0.068055812	0.020975462
2020-05-02T01:55:00	0.1890	8.014	176.0	0.430612326	0.499956215	0.006592977	0.068018532	0.020963972
2020-05-02T02:00:00	0.1885	7.994	176.0	0.429134482	0.497460353	0.006545046	0.067524036	0.020811564
2020-05-02T02:05:00	0.1886	7.976	176.0	0.429570076	0.498195376	0.006559152	0.067669560	0.020856416
2020-05-02T02:10:00	0.1879	7.957	176.0	0.427543955	0.494780967	0.006493699	0.066994293	0.020648292
2020-05-02T02:15:00	0.1882	7.938	176.0	0.428527166	0.496436444	0.006525411	0.067321462	0.020749129
2020-05-02T02:20:00	0.1890	7.922	175.0	0.430602981	0.499940414	0.006592674	0.068015398	0.020963006
2020-05-02T02:25:00	0.1889	7.906	176.0	0.430218576	0.499290636	0.006580186	0.067886566	0.020923299
2020-05-02T02:30:00	0.1884	7.891	175.0	0.429013873	0.497256930	0.006541144	0.067483777	0.020799155
2020-05-02T02:35:00	0.1889	7.877	175.0	0.430269491	0.499376676	0.006581839	0.067903621	0.020928555
2020-05-02T02:40:00	0.1889	7.866	175.0	0.430431571	0.499650621	0.006587103	0.067957932	0.020945295
2020-05-02T02:45:00	0.1884	7.852	175.0	0.428953565	0.497155228	0.006539193	0.067463652	0.020792953
2020-05-02T02:50:00	0.1882	7.837	175.0	0.428568776	0.496506565	0.006526755	0.067335330	0.020753403
2020-05-02T02:55:00	0.1884	7.822	175.0	0.429004519	0.497241155	0.006540841	0.067480655	0.020798193
2020-05-02T03:00:00	0.1880	7.808	175.0	0.427798926	0.495210016	0.006501914	0.067079043	0.020674413
2020-05-02T03:05:00	0.1871	7.796	175.0	0.425496580	0.491342319	0.006427965	0.066316134	0.020439276
2020-05-02T03:10:00	0.1866	7.784	175.0	0.424014115	0.488859716	0.006380623	0.065827714	0.020288741
2020-05-02T03:15:00	0.1862	7.772	175.0	0.423079323	0.487297402	0.006350880	0.065520863	0.020194166
2020-05-02T03:20:00	0.1867	7.759	175.0	0.424339499	0.489404097	0.006390996	0.065934728	0.020321724
2020-05-02T03:25:00	0.1870	7.747	175.0	0.425050525	0.490594695	0.006413698	0.066168943	0.020393911
2020-05-02T03:30:00	0.1870	7.737	175.0	0.425213122	0.490867157	0.006418897	0.066222574	0.020410441
2020-05-02T03:35:00	0.1875	7.731	175.0	0.426471651	0.492978539	0.006459220	0.066638586	0.020538659
2020-05-02T03:40:00	0.1879	7.727	175.0	0.427729212	0.495092688	0.006499667	0.067055864	0.020667269
2020-05-02T03:45:00	0.1878	7.725	175.0	0.427344136	0.494444850	0.006487265	0.066927921	0.020627835
2020-05-02T03:50:00	0.1873	7.725	175.0	0.425863347	0.491957464	0.006439711	0.066437310	0.020476624
2020-05-02T03:55:00	0.1871	7.725	175.0	0.425477831	0.491310883	0.006427365	0.066309943	0.020437368
2020-05-02T04:00:00	0.1879	7.725	175.0	0.427557503	0.494803760	0.006494135	0.066998795	0.020649679
2020-05-02T04:05:00	0.1872	7.726	175.0	0.425565240	0.491457448	0.006430163	0.066338808	0.020446265
2020-05-02T04:10:00	0.1881	7.728	175.0	0.428228397	0.495933110	0.006515765	0.067221942	0.020718456
2020-05-02T04:15:00	0.1882	7.728	175.0	0.428426962	0.496267605	0.006522175	0.067288075	0.020738838
2020-05-02T04:20:00	0.1885	7.729	175.0	0.429172484	0.497524457	0.006546276	0.067536724	0.020815474
2020-05-02T04:25:00	0.1882	7.732	175.0	0.428550496	0.496475759	0.006526165	0.067329237	0.020751525
2020-05-02T04:30:00	0.1887	7.734	175.0	0.429842720	0.498655705	0.006567990	0.067760742	0.020884519
2020-05-02T04:35:00	0.1900	7.737	175.0	0.433317446	0.504540513	0.006681267	0.068929396	0.021244709
2020-05-02T04:40:00	0.1903	7.738	175.0	0.434060764	0.505803767	0.006705653	0.069180982	0.021322251
2020-05-02T04:45:00	0.1903	7.735	175.0	0.434258630	0.506140295	0.006712153	0.069248047	0.021342921
2020-05-02T04:50:00	0.1914	7.731	175.0	0.437179969	0.511121593	0.006808577	0.070242837	0.021649525
2020-05-02T04:55:00	0.1920	7.729	175.0	0.438737389	0.513786956	0.006860327	0.070776728	0.021814075
2020-05-02T05:00:00	0.1920	7.729	175.0	0.438934701	0.514125119	0.006866900	0.070844545	0.021834977
2020-05-02T05:05:00	0.1921	7.728	175.0	0.439131990	0.514463352	0.006873477	0.070912393	0.021855888
2020-05-02T05:10:00	0.1921	7.725	175.0	0.439057456	0.514335556	0.006870992	0.070886755	0.021847986
2020-05-02T05:15:00	0.1931	7.728	175.0	0.441875989	0.518874067	0.006961255	0.071817984	0.022135000
2020-05-02T05:20:00	0.1933	7.732	175.0	0.442828211	0.520147502	0.006988361	0.072097635	0.022221191
2020-05-02T05:25:00	0.1934	7.737	175.0	0.443081711	0.520486636	0.006995586	0.072172172	0.022244164
2020-05-02T05:30:00	0.1939	7.753	175.0	0.444731841	0.522695421	0.007042705	0.072658287	0.022393990
2020-05-02T05:35:00	0.1943	7.774	175.0	0.446032222	0.524437556	0.007079946	0.073042493	0.022512406
2020-05-02T05:40:00	0.1938	7.790	175.0	0.444540388	0.522439041	0.007037230	0.072601805	0.022376581
2020-05-02T05:45:00	0.1944	7.819	175.0	0.446538718	0.525116475	0.007094477	0.073192408	0.022558611
2020-05-02T05:50:00	0.1950	7.842	175.0	0.448535856	0.527795450	0.007151916	0.073784997	0.022741253
2020-05-02T05:55:00	0.1949	7.861	175.0	0.448440239	0.527667118	0.007149161	0.073756573	0.022732492
2020-05-02T06:00:00	0.1951	7.883	176.0	0.449041973	0.528474858	0.007166508	0.073935543	0.022787652
2020-05-02T06:05:00	0.1959	7.905	175.0	0.451734414	0.532092561	0.007244381	0.074738943	0.023035268
2020-05-02T06:10:00	0.1965	7.927	176.0	0.453728460	0.534775548	0.007302320	0.075336690	0.023219499
2020-05-02T06:15:00	0.1970	7.946	175.0	0.455721323	0.537460077	0.007360451	0.075936415	0.023404340
2020-05-02T06:20:00	0.1972	7.967	175.0	0.456321752	0.538269513	0.007378009	0.076117563	0.023460172
2020-05-02T06:25:00	0.1971	7.991	175.0	0.455878445	0.537671865	0.007365044	0.075983798	0.023418944
2020-05-02T06:30:00	0.1971	8.012	176.0	0.455783037	0.537543261	0.007362255	0.075955024	0.023410076
2020-05-02T06:35:00	0.1968	8.036	176.0	0.454991654	0.536476798	0.007339141	0.075716560	0.023336579
2020-05-02T06:40:00	0.1970	8.070	176.0	0.455592214	0.537286064	0.007356678	0.075897491	0.023392344
2020-05-02T06:45:00	0.1967	8.108	176.0	0.454452726	0.535750824	0.007323420	0.075554378	0.023286593
2020-05-02T06:50:00	0.1975	8.141	176.0	0.457488613	0.539843367	0.007412191	0.076470208	0.023568861
2020-05-02T06:55:00	0.1983	8.172	177.0	0.460174291	0.543469882	0.007491159	0.077284908	0.023819959
2020-05-02T07:00:00	0.1974	8.197	177.0	0.456950085	0.539116871	0.007396406	0.076307357	0.023518668
2020-05-02T07:05:00	0.1979	8.222	177.0	0.458593406	0.541334497	0.007444626	0.076804834	0.023671996
2020-05-02T07:10:00	0.1980	8.248	177.0	0.459193323	0.542144603	0.007462268	0.076986840	0.023728092
2020-05-02T07:15:00	0.1988	8.279	177.0	0.461877641	0.545772899	0.007541457	0.077803817	0.023979892
2020-05-02T07:20:00	0.1976	8.313	177.0	0.457611976	0.540009822	0.007415809	0.076507538	0.023580366
2020-05-02T07:25:00	0.1977	8.339	177.0	0.457864361	0.540350403	0.007423215	0.076583936	0.023603913
2020-05-02T07:30:00	0.1982	8.363	177.0	0.459854773	0.543038132	0.007481743	0.077187760	0.023790017
2020-05-02T07:35:00	0.1984	8.376	177.0	0.460454465	0.543848533	0.007499421	0.077370143	0.023846229
2020-05-02T07:40:00	0.1989	8.398	177.0	0.462096075	0.546068399	0.007547919	0.077870484	0.024000440
2020-05-02T07:45:00	0.2023	8.405	178.0	0.474134402	0.562412502	0.007908266	0.081588119	0.025146251
2020-05-02T07:50:00	0.2042	8.401	177.0	0.480608278	0.571249546	0.008105479	0.083622731	0.025773338
2020-05-02T07:55:00	0.2047	8.410	177.0	0.482240123	0.573482339	0.008155569	0.084139499	0.025932611
2020-05-02T08:00:00	0.2046	8.460	178.0	0.481800208	0.572880210	0.008142050	0.084000032	0.025889626
2020-05-02T08:05:00	0.2043	8.527	178.0	0.481014905	0.571805720	0.008117946	0.083751353	0.025812980
2020-05-02T08:10:00	0.2044	8.555	178.0	0.481265546	0.572148605	0.008125635	0.083830683	0.025837431
2020-05-02T08:15:00	0.2038	8.587	178.0	0.479098227	0.569185292	0.008059263	0.083145936	0.025626385
2020-05-02T08:20:00	0.2036	8.626	178.0	0.478312298	0.568111639	0.008035262	0.082898314	0.025550065
2020-05-02T08:25:00	0.2033	8.657	178.0	0.477526185	0.567038228	0.008011290	0.082651000	0.025473841
2020-05-02T08:30:00	0.2023	8.685	178.0	0.473972485	0.562191907	0.007903364	0.081537549	0.025130665
2020-05-02T08:35:00	0.2019	8.704	179.0	0.472492996	0.560177234	0.007858645	0.081076193	0.024988470
2020-05-02T08:40:00	0.2012	8.720	178.0	0.470320047	0.557221405	0.007793193	0.080400935	0.024780349
2020-05-02T08:45:00	0.2001	8.741	179.0	0.466411928	0.551914689	0.007676154	0.079193468	0.024408196
2020-05-02T08:50:00	0.1999	8.765	179.0	0.465623041	0.550844954	0.007652635	0.078950823	0.024333410
2020-05-02T08:55:00	0.1994	8.789	179.0	0.463792791	0.548365025	0.007598206	0.078389288	0.024160340
2020-05-02T09:00:00	0.1986	8.809	179.0	0.461266871	0.544946843	0.007523402	0.077617556	0.023922484
2020-05-02T09:05:00	0.1984	8.830	179.0	0.460476778	0.543878692	0.007500079	0.077376933	0.023848322
2020-05-02T09:10:00	0.1986	8.846	179.0	0.461076359	0.544689239	0.007517775	0.077559502	0.023904592
2020-05-02T09:15:00	0.1981	8.868	179.0	0.459243636	0.542212557	0.007463748	0.077002114	0.023732799
2020-05-02T09:20:00	0.1980	8.890	179.0	0.459148324	0.542083828	0.007460944	0.076973181	0.023723882
2020-05-02T09:25:00	0.1976	8.909	179.0	0.457662313	0.540077745	0.007417286	0.076522772	0.023585062
2020-05-02T09:30:00	0.1971	8.932	180.0	0.455827727	0.537603499	0.007363561	0.075968501	0.023414230
2020-05-02T09:35:00	0.1962	8.964	180.0	0.452947597	0.533724524	0.007279604	0.075102336	0.023147269
2020-05-02T09:40:00	0.1955	8.999	180.0	0.450413509	0.530317011	0.007206125	0.074344266	0.022913625
2020-05-02T09:45:00	0.1949	9.025	180.0	0.448226248	0.527379934	0.007142996	0.073692977	0.022712891
2020-05-02T09:50:00	0.1956	9.062	180.0	0.450570880	0.530528475	0.007210678	0.074391233	0.022928101
2020-05-02T09:55:00	0.1942	9.097	180.0	0.445941870	0.524316467	0.007077355	0.073015766	0.022504168
2020-05-02T10:00:00	0.1937	9.128	180.0	0.444100858	0.521850565	0.007024669	0.072472217	0.022336641
2020-05-02T10:05:00	0.1937	9.129	180.0	0.444209095	0.521995467	0.007027761	0.072504118	0.022346473
2020-05-02T10:10:00	0.1955	9.125	180.0	0.450247328	0.530093729	0.007201319	0.074294684	0.022898343
2020-05-02T10:15:00	0.1968	9.123	181.0	0.454882859	0.536330224	0.007335966	0.075683806	0.023326484
2020-05-02T10:20:00	0.1967	9.142	180.0	0.454642707	0.536006715	0.007328960	0.075611530	0.023304208
2020-05-02T10:25:00	0.1954	9.168	180.0	0.449874397	0.529592736	0.007190540	0.074183477	0.022864068
2020-05-02T10:30:00	0.1945	9.180	180.0	0.446844096	0.525525908	0.007103245	0.073282868	0.022586492
2020-05-02T10:35:00	0.1931	9.217	180.0	0.442064666	0.519126334	0.006966622	0.071873353	0.022152066
2020-05-02T10:40:00	0.1910	9.271	181.0	0.435949224	0.509020094	0.006767852	0.069822680	0.021520028
2020-05-02T10:45:00	0.1892	9.330	181.0	0.431124743	0.500823032	0.006609647	0.068190505	0.021016976
2020-05-02T10:50:00	0.1876	9.423	181.0	0.426833888	0.493587064	0.006470855	0.066758619	0.020575655
2020-05-02T10:55:00	0.1874	9.529	182.0	0.426371043	0.492809591	0.006455991	0.066605271	0.020528391
2020-05-02T11:00:00	0.1866	9.640	182.0	0.423989011	0.488817728	0.006379823	0.065819462	0.020286197
2020-05-02T11:05:00	0.1921	9.707	182.0	0.439091660	0.514394201	0.006872132	0.070898520	0.021851612
2020-05-02T11:10:00	0.1921	9.749	182.0	0.439175922	0.514538682	0.006874942	0.070927506	0.021860546
2020-05-02T11:15:00	0.1919	9.804	183.0	0.438444611	0.513285379	0.006850580	0.070676174	0.021783083
2020-05-02T11:20:00	0.1924	9.869	183.0	0.439887896	0.515760286	0.006898710	0.071172718	0.021936123
2020-05-02T11:25:00	0.1924	9.907	183.0	0.439972118	0.515904886	0.006901525	0.071201759	0.021945074
2020-05-02T11:30:00	0.1917	9.927	183.0	0.437881639	0.512321589	0.006831863	0.070483067	0.021723566
2020-05-02T11:35:00	0.1908	9.961	183.0	0.435516170	0.508281659	0.006753558	0.069675208	0.021474576
2020-05-02T11:40:00	0.1898	10.046	184.0	0.432874527	0.503788515	0.006666762	0.068779750	0.021198587
2020-05-02T11:45:00	0.1916	10.107	184.0	0.437590560	0.511823619	0.006822197	0.070383350	0.021692832
2020-05-02T11:50:00	0.1907	10.126	184.0	0.435224678	0.507784908	0.006743946	0.069576051	0.021444015
2020-05-02T11:55:00	0.1891	10.142	184.0	0.430944478	0.500518008	0.006603779	0.068129975	0.020998320
2020-05-02T12:00:00	0.1892	10.209	185.0	0.431302267	0.501123506	0.006615427	0.068250145	0.021035358
2020-05-02T12:05:00	0.1880	10.336	185.0	0.427833085	0.495267509	0.006503015	0.067090402	0.020677913
2020-05-02T12:10:00	0.1870	10.456	186.0	0.425179095	0.490810132	0.006417809	0.066211349	0.020406981
2020-05-02T12:15:00	0.1876	10.508	186.0	0.426907827	0.493711319	0.006473231	0.066783136	0.020583211
2020-05-02T12:20:00	0.1875	10.505	186.0	0.426445002	0.492933786	0.006458365	0.066629760	0.020535939
2020-05-02T12:25:00	0.1891	10.516	186.0	0.430906238	0.500453315	0.006602535	0.068117140	0.020994364
2020-05-02T12:30:00	0.1921	10.533	186.0	0.439165054	0.514520047	0.006874579	0.070923767	0.021859394
2020-05-02T12:35:00	0.1920	10.588	186.0	0.438705641	0.513732554	0.006859270	0.070765820	0.021810713
2020-05-02T12:40:00	0.1919	10.647	186.0	0.438518034	0.513411142	0.006853024	0.070701383	0.021790853
2020-05-02T12:45:00	0.1902	10.676	187.0	0.433973681	0.505655691	0.006702793	0.069151479	0.021313157
2020-05-02T12:50:00	0.1895	10.673	187.0	0.431875663	0.502094626	0.006634121	0.068443000	0.021094797
2020-05-02T12:55:00	0.1874	10.633	187.0	0.426217652	0.492552062	0.006451070	0.066554497	0.020512742
2020-05-02T13:00:00	0.1866	10.590	186.0	0.424109711	0.489019622	0.006383670	0.065859143	0.020298428
2020-05-02T13:05:00	0.1845	10.552	186.0	0.418149390	0.479098008	0.006195419	0.063916991	0.019699837
2020-05-02T13:10:00	0.1830	10.518	186.0	0.414100086	0.472413439	0.006069475	0.062617651	0.019299368
2020-05-02T13:15:00	0.1818	10.494	186.0	0.410870387	0.467114222	0.005970146	0.061592897	0.018983529
2020-05-02T13:20:00	0.1813	10.495	186.0	0.409572793	0.464993228	0.005930519	0.061184067	0.018857524
2020-05-02T13:25:00	0.1848	10.515	186.0	0.419041127	0.480576156	0.006223365	0.064205312	0.019788701
2020-05-02T13:30:00	0.1865	10.563	187.0	0.423796991	0.488496621	0.006373707	0.065756364	0.020266750
2020-05-02T13:35:00	0.1873	10.629	186.0	0.426075201	0.492312957	0.006446501	0.066507366	0.020498216
2020-05-02T13:40:00	0.1906	10.691	186.0	0.434903167	0.507237274	0.006733355	0.069466783	0.021410337
2020-05-02T13:45:00	0.1941	10.697	186.0	0.445479755	0.523697248	0.007064112	0.072879142	0.022462059
2020-05-02T13:50:00	0.1934	10.671	187.0	0.443144054	0.520570047	0.006997363	0.072190509	0.022249816
2020-05-02T13:55:00	0.1914	10.612	186.0	0.437062687	0.510921151	0.006804690	0.070202732	0.021637164
2020-05-02T14:00:00	0.1899	10.568	186.0	0.433060051	0.504103436	0.006672835	0.068842408	0.021217899
2020-05-02T14:05:00	0.1891	10.540	186.0	0.430960875	0.500545749	0.006604313	0.068135480	0.021000017
2020-05-02T14:10:00	0.1892	10.511	186.0	0.431045549	0.500689017	0.006607069	0.068163909	0.021008779
2020-05-02T14:15:00	0.1893	10.483	186.0	0.431403316	0.501294579	0.006618719	0.068284108	0.021045825
2020-05-02T14:20:00	0.1909	10.433	186.0	0.435851197	0.508852894	0.006764615	0.069789281	0.021509734
2020-05-02T14:25:00	0.1947	10.363	185.0	0.447740588	0.526728296	0.007129016	0.073548746	0.022668438
2020-05-02T14:30:00	0.1970	10.296	185.0	0.455512761	0.537178982	0.007354357	0.075873542	0.023384962
2020-05-02T14:35:00	0.1965	10.237	185.0	0.453880392	0.534980101	0.007306744	0.075382330	0.023233566
2020-05-02T14:40:00	0.1977	10.202	185.0	0.458163236	0.540753786	0.007431989	0.076674456	0.023631812
2020-05-02T14:45:00	0.1971	10.191	185.0	0.455836357	0.537615132	0.007363813	0.075971104	0.023415032
2020-05-02T14:50:00	0.1962	10.205	185.0	0.452811440	0.533541309	0.007275647	0.075061509	0.023134686
2020-05-02T14:55:00	0.1980	10.209	184.0	0.459181827	0.542129077	0.007461929	0.076983350	0.023727016
2020-05-02T15:00:00	0.1964	10.196	184.0	0.453375556	0.534300488	0.007292050	0.075230731	0.023186842
2020-05-02T15:05:00	0.1949	10.182	184.0	0.448256740	0.527420853	0.007143875	0.073702037	0.022715684
2020-05-02T15:10:00	0.1951	10.166	185.0	0.449062191	0.528502003	0.007167091	0.073941560	0.022789507
2020-05-02T15:15:00	0.1942	10.153	185.0	0.445682182	0.523968474	0.007069912	0.072938974	0.022480500
2020-05-02T15:20:00	0.1942	10.149	184.0	0.445790368	0.524113442	0.007073012	0.072970961	0.022490359
2020-05-02T15:25:00	0.1931	10.140	184.0	0.442057702	0.519117022	0.006966424	0.071871309	0.022151436
2020-05-02T15:30:00	0.1912	10.124	184.0	0.436760583	0.510405015	0.006794683	0.070099492	0.021605344
2020-05-02T15:35:00	0.1906	10.113	184.0	0.434938599	0.507297611	0.006734522	0.069478819	0.021414047
2020-05-02T15:40:00	0.1894	10.090	184.0	0.431750090	0.501881874	0.006630024	0.068400737	0.021081771
2020-05-02T15:45:00	0.1895	10.076	184.0	0.432107705	0.502487878	0.006641695	0.068521139	0.021118881
2020-05-02T15:50:00	0.1890	10.053	184.0	0.430553840	0.499857326	0.006591076	0.067998921	0.020957928
2020-05-02T15:55:00	0.1896	10.033	184.0	0.432276932	0.502774769	0.006647222	0.068578160	0.021136455
2020-05-02T16:00:00	0.1899	10.009	184.0	0.433180087	0.504307244	0.006676766	0.068882966	0.021230399
2020-05-02T16:05:00	0.1895	9.989	184.0	0.432100811	0.502476192	0.006641470	0.068518817	0.021118165
2020-05-02T16:10:00	0.1880	9.964	183.0	0.428013567	0.495571340	0.006508834	0.067150438	0.020696417
2020-05-02T16:15:00	0.1863	9.941	183.0	0.423367379	0.487778571	0.006360037	0.065615326	0.020223281
2020-05-02T16:20:00	0.1866	9.911	183.0	0.423928393	0.488716349	0.006377892	0.065799539	0.020280057
2020-05-02T16:25:00	0.1859	9.890	183.0	0.422019290	0.485528699	0.006317255	0.065173956	0.020087246
2020-05-02T16:30:00	0.1858	9.864	183.0	0.421756912	0.485091391	0.006308949	0.065088263	0.020060835
2020-05-02T16:35:00	0.1853	9.842	183.0	0.420395183	0.482824848	0.006265947	0.064644624	0.019924101
2020-05-02T16:40:00	0.1844	9.813	182.0	0.417931322	0.478736870	0.006188596	0.063846604	0.019678143
2020-05-02T16:45:00	0.1851	9.780	183.0	0.419869857	0.481951833	0.006249406	0.064473970	0.019871504
2020-05-02T16:50:00	0.1842	9.754	182.0	0.417405192	0.477866099	0.006172154	0.063676976	0.019625862
2020-05-02T16:55:00	0.1838	9.732	182.0	0.416315423	0.476064906	0.006138183	0.063326499	0.019517842
2020-05-02T17:00:00	0.1833	9.705	182.0	0.414949084	0.473811217	0.006095751	0.062888735	0.019382919
2020-05-02T17:05:00	0.1836	9.681	182.0	0.415788763	0.475195605	0.006121806	0.063157543	0.019465768
2020-05-02T17:10:00	0.1834	9.661	182.0	0.415249591	0.474306444	0.006105068	0.062984857	0.019412545
2020-05-02T17:15:00	0.1831	9.640	182.0	0.414434320	0.472963480	0.006079811	0.062724286	0.019332234
2020-05-02T17:20:00	0.1830	9.620	182.0	0.414170702	0.472529625	0.006071658	0.062640171	0.019306309
2020-05-02T17:25:00	0.1832	9.593	182.0	0.414734924	0.473458440	0.006089116	0.062820287	0.019361822
2020-05-02T17:30:00	0.1833	9.569	182.0	0.415023131	0.473933220	0.006098046	0.062912411	0.019390216
2020-05-02T17:35:00	0.1824	9.546	181.0	0.412551001	0.469868157	0.006021709	0.062124860	0.019147485
2020-05-02T17:40:00	0.1832	9.524	182.0	0.414771953	0.473519427	0.006090263	0.062832118	0.019365469
2020-05-02T17:45:00	0.1839	9.506	181.0	0.416714299	0.476723797	0.006150604	0.063454644	0.019557338
2020-05-02T17:50:00	0.1831	9.485	181.0	0.414520735	0.473105741	0.006082485	0.062751875	0.019340737
2020-05-02T17:55:00	0.1834	9.463	181.0	0.415360639	0.474489509	0.006108513	0.063020400	0.019423499
2020-05-02T18:00:00	0.1835	9.439	181.0	0.415648733	0.474964601	0.006117456	0.063112666	0.019451937
2020-05-02T18:05:00	0.1834	9.420	181.0	0.415385315	0.474530193	0.006109278	0.063028299	0.019425934
2020-05-02T18:10:00	0.1835	9.403	181.0	0.415397653	0.474550536	0.006109661	0.063032249	0.019427151
2020-05-02T18:15:00	0.1833	9.386	181.0	0.414858349	0.473661738	0.006092939	0.062859729	0.019373979
2020-05-02T18:20:00	0.1826	9.367	181.0	0.412938461	0.470504168	0.006033635	0.062247896	0.019185406
2020-05-02T18:25:00	0.1829	9.348	181.0	0.413779196	0.471885647	0.006059561	0.062515376	0.019267846
2020-05-02T18:30:00	0.1826	9.325	181.0	0.412963174	0.470544749	0.006034396	0.062255749	0.019187826
2020-05-02T18:35:00	0.1827	9.303	181.0	0.413251701	0.471018650	0.006043286	0.062347472	0.019216096
2020-05-02T18:40:00	0.1827	9.288	181.0	0.413264055	0.471038947	0.006043667	0.062351401	0.019217307
2020-05-02T18:45:00	0.1830	9.272	181.0	0.414104619	0.472420897	0.006069615	0.062619096	0.019299814
2020-05-02T18:50:00	0.1840	9.255	181.0	0.416874552	0.476988637	0.006155598	0.063506172	0.019573219
2020-05-02T18:55:00	0.1851	9.234	180.0	0.419914741	0.482026394	0.006250818	0.064488540	0.019875994
2020-05-02T19:00:00	0.1856	9.212	180.0	0.421301459	0.484332738	0.006294546	0.064939675	0.020015039
2020-05-02T19:05:00	0.1862	9.191	181.0	0.422961500	0.487100656	0.006347138	0.065482249	0.020182265
2020-05-02T19:10:00	0.1862	9.174	180.0	0.422973780	0.487121160	0.006347528	0.065486273	0.020183505
2020-05-02T19:15:00	0.1865	9.155	180.0	0.423809296	0.488517195	0.006374099	0.065760406	0.020267996
2020-05-02T19:20:00	0.1868	9.133	180.0	0.424644382	0.489914446	0.006400725	0.066035096	0.020352658
2020-05-02T19:25:00	0.1874	9.117	180.0	0.426301020	0.492692020	0.006453744	0.066582090	0.020521247
2020-05-02T19:30:00	0.1880	9.102	180.0	0.427955981	0.495474388	0.006506977	0.067131279	0.020690512
2020-05-02T19:35:00	0.1881	9.087	180.0	0.428241846	0.495955762	0.006516199	0.067226420	0.020719836
2020-05-02T19:40:00	0.1886	9.074	180.0	0.429621506	0.498282194	0.006560818	0.067686754	0.020861715
2020-05-02T19:45:00	0.1885	9.060	180.0	0.429360345	0.497841410	0.006552358	0.067599469	0.020834813
2020-05-02T19:50:00	0.1891	9.047	180.0	0.431012230	0.500632640	0.006605984	0.068152721	0.021005331
2020-05-02T19:55:00	0.1897	9.033	180.0	0.432662465	0.503428664	0.006659824	0.068708173	0.021176526
2020-05-02T20:00:00	0.1899	9.017	179.0	0.432947515	0.503912399	0.006669151	0.068804397	0.021206183
2020-05-02T20:05:00	0.1901	9.003	178.0	0.433505268	0.504859568	0.006687423	0.068992914	0.021264286
2020-05-02T20:10:00	0.1901	8.989	179.0	0.433517470	0.504880298	0.006687823	0.068997042	0.021265558
2020-05-02T20:15:00	0.1898	8.979	179.0	0.432711295	0.503511514	0.006661421	0.068724650	0.021181605
2020-05-02T20:20:00	0.1904	8.969	179.0	0.434359839	0.506312472	0.006715480	0.069282366	0.021353498
2020-05-02T20:25:00	0.1899	8.958	179.0	0.433008543	0.504015992	0.006671148	0.068825008	0.021212536
2020-05-02T20:30:00	0.1902	8.946	179.0	0.433838971	0.505426673	0.006698371	0.069105855	0.021299096
2020-05-02T20:35:00	0.1901	8.934	179.0	0.433578476	0.504983953	0.006689824	0.069017682	0.021271920
2020-05-02T20:40:00	0.1902	8.921	179.0	0.433863369	0.505468148	0.006699171	0.069114117	0.021301642
2020-05-02T20:45:00	0.1898	8.908	179.0	0.432784538	0.503635797	0.006663817	0.068749371	0.021189224
2020-05-02T20:50:00	0.1903	8.897	179.0	0.434160410	0.505973230	0.006708926	0.069214752	0.021332659
2020-05-02T20:55:00	0.1896	8.882	179.0	0.432263175	0.502751445	0.006646772	0.068573524	0.021135026
2020-05-02T21:00:00	0.1900	8.871	179.0	0.433366751	0.504624259	0.006682882	0.068946067	0.021249847
2020-05-02T21:05:00	0.1907	8.861	179.0	0.435287103	0.507891271	0.006746004	0.069597279	0.021450557
2020-05-02T21:10:00	0.1909	8.849	178.0	0.435844071	0.508840741	0.006764379	0.069786853	0.021508986
2020-05-02T21:15:00	0.1913	8.838	178.0	0.436945274	0.510720524	0.006800800	0.070162597	0.021624794
2020-05-02T21:20:00	0.1906	8.823	178.0	0.435051216	0.507489411	0.006738231	0.069517085	0.021425841
2020-05-02T21:25:00	0.1905	8.815	178.0	0.434790910	0.507046134	0.006729659	0.069428656	0.021398586
2020-05-02T21:30:00	0.1906	8.808	178.0	0.435075596	0.507530938	0.006739034	0.069525371	0.021428395
2020-05-02T21:35:00	0.1904	8.801	178.0	0.434542758	0.506623729	0.006721494	0.069344419	0.021372624
2020-05-02T21:40:00	0.1910	8.794	178.0	0.436189488	0.509430012	0.006775790	0.069904581	0.021545271
2020-05-02T21:45:00	0.1915	8.784	178.0	0.437562550	0.511775712	0.006821267	0.070373758	0.021689876
2020-05-02T21:50:00	0.1918	8.774	178.0	0.438390713	0.513193068	0.006848787	0.070657672	0.021777381
2020-05-02T21:55:00	0.1921	8.767	178.0	0.438946648	0.514145597	0.006867298	0.070848652	0.021836243
2020-05-02T22:00:00	0.1922	8.761	178.0	0.439230626	0.514632494	0.006876766	0.070946329	0.021866347
2020-05-02T22:05:00	0.1919	8.753	177.0	0.438583631	0.513523513	0.006855207	0.070723909	0.021797796
2020-05-02T22:10:00	0.1922	8.745	177.0	0.439295857	0.514744367	0.006878942	0.070968777	0.021873266
2020-05-02T22:15:00	0.1915	8.738	177.0	0.437560978	0.511773024	0.006821215	0.070373220	0.021689710
2020-05-02T22:20:00	0.1914	8.730	177.0	0.437185486	0.511131023	0.006808760	0.070244724	0.021650106
2020-05-02T22:25:00	0.1910	8.722	177.0	0.435993147	0.509095019	0.006769303	0.069837648	0.021524641
2020-05-02T22:30:00	0.1915	8.714	177.0	0.437522891	0.511707885	0.006819951	0.070360180	0.021685691
2020-05-02T22:35:00	0.1917	8.708	177.0	0.437963589	0.512461830	0.006834585	0.070511157	0.021732223
2020-05-02T22:40:00	0.1914	8.700	177.0	0.437043977	0.510889178	0.006804070	0.070196336	0.021635192
2020-05-02T22:45:00	0.1906	8.692	177.0	0.435034303	0.507460606	0.006737674	0.069511338	0.021424069
2020-05-02T22:50:00	0.1903	8.685	177.0	0.434113074	0.505892724	0.006707371	0.069198708	0.021327714
2020-05-02T22:55:00	0.1898	8.678	177.0	0.432918530	0.503863201	0.006668202	0.068794609	0.021203166
2020-05-02T23:00:00	0.1887	8.670	177.0	0.429810863	0.498601908	0.006566957	0.067750084	0.020881234
2020-05-02T23:05:00	0.1892	8.663	177.0	0.431073205	0.500735817	0.006607969	0.068173196	0.021011641
2020-05-02T23:10:00	0.1888	8.656	177.0	0.430149770	0.499174372	0.006577952	0.067863521	0.020916196
2020-05-02T23:15:00	0.1883	8.650	177.0	0.428678853	0.496692087	0.006530312	0.067372024	0.020764712
2020-05-02T23:20:00	0.1881	8.644	177.0	0.428027731	0.495595187	0.006509291	0.067155151	0.020697870
2020-05-02T23:25:00	0.1880	8.639	177.0	0.427923747	0.495420122	0.006505937	0.067120556	0.020687207
2020-05-02T23:30:00	0.1882	8.631	177.0	0.428367005	0.496166591	0.006520239	0.067268102	0.020732682
2020-05-02T23:35:00	0.1882	8.624	177.0	0.428536616	0.496452369	0.006525716	0.067324612	0.020750099
2020-05-02T23:40:00	0.1879	8.616	177.0	0.427611755	0.494895039	0.006495883	0.067016823	0.020655236
2020-05-02T23:45:00	0.1873	8.609	177.0	0.425864588	0.491959546	0.006439751	0.066437721	0.020476751
2020-05-02T23:50:00	0.1876	8.603	177.0	0.426856157	0.493624486	0.006471571	0.066766002	0.020577930
2020-05-02T23:55:00	0.1879	8.598	177.0	0.427573438	0.494830569	0.006494648	0.067004090	0.020651311
2020-05-03T00:00:00	0.1869	8.593	177.0	0.425004013	0.490516769	0.006412212	0.066153606	0.020389184
2020-05-03T00:05:00	0.1867	8.587	177.0	0.424351427	0.489424059	0.006391376	0.065938653	0.020322933
2020-05-03T00:10:00	0.1860	8.582	177.0	0.422326195	0.486040461	0.006326979	0.065274279	0.020118167
2020-05-03T00:15:00	0.1860	8.576	177.0	0.422496434	0.486324446	0.006332377	0.065329968	0.020135331
2020-05-03T00:20:00	0.1861	8.571	177.0	0.422666656	0.486608482	0.006337777	0.065385680	0.020152502
2020-05-03T00:25:00	0.1858	8.564	177.0	0.421738462	0.485060648	0.006308365	0.065082240	0.020058979
2020-05-03T00:30:00	0.1855	8.557	177.0	0.421084563	0.483971653	0.006287695	0.064868987	0.019993252
2020-05-03T00:35:00	0.1856	8.549	177.0	0.421254933	0.484255271	0.006293076	0.064924508	0.020010364
2020-05-03T00:40:00	0.1853	8.545	177.0	0.420600839	0.483166825	0.006272430	0.064711506	0.019944715
2020-05-03T00:45:00	0.1852	8.543	177.0	0.420221453	0.482536050	0.006260474	0.064588157	0.019906697
2020-05-03T00:50:00	0.1851	8.540	177.0	0.419841979	0.481905525	0.006248529	0.064464921	0.019868715
2020-05-03T00:55:00	0.1854	8.536	177.0	0.420837225	0.483560047	0.006279887	0.064788435	0.019968425
2020-05-03T01:00:00	0.1858	8.531	177.0	0.421831859	0.485216287	0.006311321	0.065112734	0.020068377
2020-05-03T01:05:00	0.1862	8.524	176.0	0.422825884	0.486874246	0.006342831	0.065437820	0.020168572
2020-05-03T01:10:00	0.1860	8.520	177.0	0.422447019	0.486242005	0.006330810	0.065313800	0.020130347
2020-05-03T01:15:00	0.1865	8.515	177.0	0.423715049	0.488359624	0.006371098	0.065729449	0.020258454
2020-05-03T01:20:00	0.1852	8.507	177.0	0.420314938	0.482691443	0.006263419	0.064618538	0.019916061
2020-05-03T01:25:00	0.1846	8.500	177.0	0.418559907	0.479778211	0.006208275	0.064049624	0.019740716
2020-05-03T01:30:00	0.1851	8.494	176.0	0.419830983	0.481887261	0.006248183	0.064461353	0.019867615
2020-05-03T01:35:00	0.1852	8.491	176.0	0.420276448	0.482627462	0.006262206	0.064606028	0.019912205
2020-05-03T01:40:00	0.1856	8.486	176.0	0.421271427	0.484282734	0.006293597	0.064929885	0.020012021
2020-05-03T01:45:00	0.1853	8.481	176.0	0.420617340	0.483194269	0.006272951	0.064716875	0.019946369
2020-05-03T01:50:00	0.1858	8.476	177.0	0.421886800	0.485307852	0.006313060	0.065130676	0.020073907
2020-05-03T01:55:00	0.1856	8.473	177.0	0.421232961	0.484218689	0.006292382	0.064917346	0.020008157
2020-05-03T02:00:00	0.1857	8.470	177.0	0.421678040	0.484959973	0.006306453	0.065062518	0.020052900
2020-05-03T02:05:00	0.1853	8.466	176.0	0.420474397	0.482956556	0.006268444	0.064670380	0.019932039
2020-05-03T02:10:00	0.1853	8.459	177.0	0.420369930	0.482782863	0.006265152	0.064636414	0.019921570
2020-05-03T02:15:00	0.1850	8.455	177.0	0.419715478	0.481695423	0.006244550	0.064423872	0.019856063
2020-05-03T02:20:00	0.1846	8.452	176.0	0.418510371	0.479696108	0.006206722	0.064033611	0.019735781
2020-05-03T02:25:00	0.1844	8.450	177.0	0.418130494	0.479066709	0.006194827	0.063910890	0.019697957
2020-05-03T02:30:00	0.1846	8.446	177.0	0.418576429	0.479805596	0.006208792	0.064054965	0.019742362
2020-05-03T02:35:00	0.1847	8.440	177.0	0.418747063	0.480088472	0.006214141	0.064110147	0.019759370
2020-05-03T02:40:00	0.1853	8.433	177.0	0.420567867	0.483111990	0.006271391	0.064700781	0.019941409
2020-05-03T02:45:00	0.1858	8.428	176.0	0.421837366	0.485225464	0.006311495	0.065114533	0.020068931
2020-05-03T02:50:00	0.1860	8.424	177.0	0.422282280	0.485967216	0.006325587	0.065259918	0.020113740
2020-05-03T02:55:00	0.1859	8.419	177.0	0.422177929	0.485793195	0.006322280	0.065225801	0.020103225
2020-05-03T03:00:00	0.1854	8.417	176.0	0.420699812	0.483331445	0.006275552	0.064743709	0.019954640
2020-05-03T03:05:00	0.1863	8.413	177.0	0.423341892	0.487735988	0.006359226	0.065606965	0.020220704
2020-05-03T03:10:00	0.1861	8.408	176.0	0.422688639	0.486645170	0.006338475	0.065392877	0.020154720
2020-05-03T03:15:00	0.1861	8.402	176.0	0.422584315	0.486471076	0.006335165	0.065358727	0.020144194
2020-05-03T03:20:00	0.1862	8.397	177.0	0.423029024	0.487213406	0.006349282	0.065504377	0.020189085
2020-05-03T03:25:00	0.1863	8.393	177.0	0.423199190	0.487497599	0.006354690	0.065560161	0.020206278
2020-05-03T03:30:00	0.1857	8.383	176.0	0.421447285	0.484575580	0.006299156	0.064987228	0.020029695
2020-05-03T03:35:00	0.1859	8.374	176.0	0.422166949	0.485774886	0.006321932	0.065222212	0.020102119
2020-05-03T03:40:00	0.1855	8.370	176.0	0.420963669	0.483770447	0.006283878	0.064829607	0.019981115
2020-05-03T03:45:00	0.1855	8.367	176.0	0.421134051	0.484054029	0.006289258	0.064885112	0.019998222
2020-05-03T03:50:00	0.1857	8.364	176.0	0.421579158	0.484795237	0.006303326	0.065030248	0.020042954
2020-05-03T03:55:00	0.1856	8.361	177.0	0.421200002	0.484163817	0.006291341	0.064906604	0.020004846
2020-05-03T04:00:00	0.1855	8.356	176.0	0.421095581	0.483989993	0.006288043	0.064872577	0.019994358
2020-05-03T04:05:00	0.1860	8.350	176.0	0.422318420	0.486027492	0.006326733	0.065271736	0.020117383
2020-05-03T04:10:00	0.1863	8.345	176.0	0.423265927	0.487609078	0.006356811	0.065582047	0.020213024
2020-05-03T04:15:00	0.1865	8.342	176.0	0.423664241	0.488274689	0.006369481	0.065712763	0.020253312
2020-05-03T04:20:00	0.1873	8.338	176.0	0.425981426	0.492155587	0.006443495	0.066476351	0.020488657
2020-05-03T04:25:00	0.1877	8.335	176.0	0.427200604	0.494203483	0.006482647	0.066880270	0.020613149
2020-05-03T04:30:00	0.1877	8.333	176.0	0.427050454	0.493951049	0.006477817	0.066830444	0.020597792
2020-05-03T04:35:00	0.1880	8.331	176.0	0.427995219	0.495540448	0.006508242	0.067144333	0.020694536
2020-05-03T04:40:00	0.1879	8.328	176.0	0.427571454	0.494827231	0.006494584	0.067003430	0.020651108
2020-05-03T04:45:00	0.1881	8.327	176.0	0.428242342	0.495956597	0.006516215	0.067226586	0.020719887
2020-05-03T04:50:00	0.1885	8.326	176.0	0.429186421	0.497547968	0.006546727	0.067541378	0.020816909
2020-05-03T04:55:00	0.1884	8.323	176.0	0.429036453	0.497295011	0.006541874	0.067491313	0.020801478
2020-05-03T05:00:00	0.1893	8.325	176.0	0.431346065	0.501197651	0.006616854	0.068264865	0.021039894
2020-05-03T05:05:00	0.1893	8.326	176.0	0.431469380	0.501406438	0.006620872	0.068306317	0.021052670
2020-05-03T05:10:00	0.1903	8.330	176.0	0.434048258	0.505782500	0.006705242	0.069176745	0.021320945
2020-05-03T05:15:00	0.1911	8.332	176.0	0.436350898	0.509705487	0.006781127	0.069959635	0.021562239
2020-05-03T05:20:00	0.1910	8.335	176.0	0.436201577	0.509450642	0.006776190	0.069908703	0.021546541
2020-05-03T05:25:00	0.1910	8.340	176.0	0.436052243	0.509195836	0.006771255	0.069857789	0.021530849
2020-05-03T05:30:00	0.1915	8.347	176.0	0.437536110	0.511730494	0.006820390	0.070364706	0.021687086
2020-05-03T05:35:00	0.1917	8.352	176.0	0.437930995	0.512406048	0.006833502	0.070499983	0.021728780
2020-05-03T05:40:00	0.1927	8.353	176.0	0.440771473	0.517278297	0.006928277	0.071477753	0.022030138
2020-05-03T05:45:00	0.1943	8.352	177.0	0.446078108	0.524499055	0.007081261	0.073056068	0.022516590
2020-05-03T05:50:00	0.1953	8.348	176.0	0.449723192	0.529389639	0.007186172	0.074138411	0.022850178
2020-05-03T05:55:00	0.1947	8.345	176.0	0.447439835	0.526324851	0.007120365	0.073459497	0.022640931
2020-05-03T06:00:00	0.1948	8.340	176.0	0.447946118	0.527004045	0.007134931	0.073609767	0.022687245
2020-05-03T06:05:00	0.1951	8.343	176.0	0.448801008	0.528151363	0.007159559	0.073863849	0.022765556
2020-05-03T06:10:00	0.1948	8.350	176.0	0.447912345	0.526958731	0.007133959	0.073599738	0.022684154
2020-05-03T06:15:00	0.1953	8.363	176.0	0.449813087	0.529510383	0.007188769	0.074165202	0.022858436
2020-05-03T06:20:00	0.1958	8.376	176.0	0.451364372	0.531595014	0.007233654	0.074628274	0.023001159
2020-05-03T06:25:00	0.1955	8.384	176.0	0.450476387	0.530401500	0.007207944	0.074363030	0.022919408
2020-05-03T06:30:00	0.1959	8.402	176.0	0.451679017	0.532018069	0.007242775	0.074722370	0.023030160
2020-05-03T06:35:00	0.1954	8.425	176.0	0.450094126	0.529887906	0.007196890	0.074248990	0.022884260
2020-05-03T06:40:00	0.1956	8.452	176.0	0.450600009	0.530567619	0.007211521	0.074399928	0.022930780
2020-05-03T06:45:00	0.1954	8.470	177.0	0.450060375	0.529842563	0.007195915	0.074238925	0.022881158
2020-05-03T06:50:00	0.1958	8.499	177.0	0.451263153	0.531458938	0.007230721	0.074598016	0.022991833
2020-05-03T06:55:00	0.1958	8.531	177.0	0.451420484	0.531670454	0.007235280	0.074645050	0.023006329
2020-05-03T07:00:00	0.1963	8.555	177.0	0.453319240	0.534224686	0.007290411	0.075213829	0.023181633
2020-05-03T07:05:00	0.1971	8.577	177.0	0.455912848	0.537718240	0.007366049	0.075994174	0.023422143
2020-05-03T07:10:00	0.1970	8.600	177.0	0.455722032	0.537461033	0.007360472	0.075936629	0.023404406
2020-05-03T07:15:00	0.1977	8.616	177.0	0.457966090	0.540487695	0.007426200	0.076614741	0.023613407
2020-05-03T07:20:00	0.1980	8.633	177.0	0.459166040	0.542107755	0.007461465	0.076978558	0.023725539
2020-05-03T07:25:00	0.1991	8.646	177.0	0.462796950	0.547016807	0.007568671	0.078084585	0.024066427
2020-05-03T07:30:00	0.1989	8.650	177.0	0.462259271	0.546289198	0.007552748	0.077920311	0.024015797
2020-05-03T07:35:00	0.1988	8.657	177.0	0.461721507	0.545561702	0.007536839	0.077756181	0.023965210
2020-05-03T07:40:00	0.1988	8.659	177.0	0.461878349	0.545773857	0.007541478	0.077804033	0.023979959
2020-05-03T07:45:00	0.1987	8.678	177.0	0.461340524	0.545046441	0.007525578	0.077640005	0.023929404
2020-05-03T07:50:00	0.1989	8.708	177.0	0.462192011	0.546198195	0.007550758	0.077899774	0.024009467
2020-05-03T07:55:00	0.1990	8.723	177.0	0.462696075	0.546880281	0.007565683	0.078053753	0.024056925
2020-05-03T08:00:00	0.1988	8.719	177.0	0.461811081	0.545682864	0.007539488	0.077783508	0.023973633
2020-05-03T08:05:00	0.1987	8.723	178.0	0.461620600	0.545425219	0.007533856	0.077725403	0.023955724
2020-05-03T08:10:00	0.1991	8.726	178.0	0.462819248	0.547046986	0.007569332	0.078091401	0.024068528
2020-05-03T08:15:00	0.1994	8.729	177.0	0.464017470	0.548669313	0.007604877	0.078458115	0.024181553
2020-05-03T08:20:00	0.1998	8.743	178.0	0.465215265	0.550292201	0.007640492	0.078825544	0.024294798
2020-05-03T08:25:00	0.1997	8.750	178.0	0.465024976	0.550034303	0.007634828	0.078767115	0.024276790
2020-05-03T08:30:00	0.1997	8.758	178.0	0.464834677	0.549776420	0.007629167	0.078708705	0.024258787
2020-05-03T08:35:00	0.2005	8.775	177.0	0.467766148	0.553752171	0.007716611	0.079610853	0.024536838
2020-05-03T08:40:00	0.1999	8.791	178.0	0.465495020	0.550671403	0.007648821	0.078911481	0.024321285
2020-05-03T08:45:00	0.1986	8.905	178.0	0.461138684	0.544773509	0.007519616	0.077578491	0.023910444
2020-05-03T08:50:00	0.1978	8.989	179.0	0.458515441	0.541229236	0.007442335	0.076781196	0.023664710
2020-05-03T08:55:00	0.1973	9.040	179.0	0.456585936	0.538625748	0.007385742	0.076197334	0.023484758
2020-05-03T09:00:00	0.1990	9.045	179.0	0.462651123	0.546819445	0.007564351	0.078040015	0.024052690
2020-05-03T09:05:00	0.1987	9.074	179.0	0.461418778	0.545152266	0.007527891	0.077663861	0.023936756
2020-05-03T09:10:00	0.1983	9.080	179.0	0.460185980	0.543485678	0.007491504	0.077288463	0.023821055
2020-05-03T09:15:00	0.1977	9.074	180.0	0.457909732	0.540411634	0.007424546	0.076597674	0.023608147
2020-05-03T09:20:00	0.1987	9.061	179.0	0.461541997	0.545318909	0.007531532	0.077701431	0.023948336
2020-05-03T09:25:00	0.1988	9.057	179.0	0.461698847	0.545531053	0.007536169	0.077749269	0.023963080
2020-05-03T09:30:00	0.1988	9.051	179.0	0.461855691	0.545743206	0.007540807	0.077797119	0.023977828
2020-05-03T09:35:00	0.1986	9.053	179.0	0.461317862	0.545015795	0.007524909	0.077633097	0.023927275
2020-05-03T09:40:00	0.1980	9.065	179.0	0.459042379	0.541940748	0.007457827	0.076941026	0.023713971
2020-05-03T09:45:00	0.1973	9.099	180.0	0.456765356	0.538867716	0.007390995	0.076251534	0.023501463
2020-05-03T09:50:00	0.1968	9.190	180.0	0.454834845	0.536265541	0.007334565	0.075669353	0.023322030
2020-05-03T09:55:00	0.1959	9.261	180.0	0.451858344	0.532259218	0.007247975	0.074776025	0.023046697
2020-05-03T10:00:00	0.1961	9.286	180.0	0.452363961	0.532939277	0.007262649	0.074927407	0.023093355
2020-05-03T10:05:00	0.1968	9.332	180.0	0.454751865	0.536153757	0.007332144	0.075644378	0.023314332
2020-05-03T10:10:00	0.1970	9.357	180.0	0.455746584	0.537494126	0.007361189	0.075944032	0.023406688
2020-05-03T10:15:00	0.1982	9.374	180.0	0.459870124	0.543058873	0.007482195	0.077192426	0.023791455
2020-05-03T10:20:00	0.1981	9.374	180.0	0.459473381	0.542522882	0.007470510	0.077071878	0.023754301
2020-05-03T10:25:00	0.1994	9.350	180.0	0.463939473	0.548563675	0.007602561	0.078434219	0.024174188
2020-05-03T10:30:00	0.1998	9.319	180.0	0.465278456	0.550377850	0.007642373	0.078844951	0.024300780
2020-05-03T10:35:00	0.1997	9.297	180.0	0.464882351	0.549841023	0.007630585	0.078723336	0.024263297
2020-05-03T10:40:00	0.2005	9.298	180.0	0.467608127	0.553537684	0.007711885	0.079562094	0.024521810
2020-05-03T10:45:00	0.2006	9.308	180.0	0.468252417	0.554412324	0.007731164	0.079760991	0.024583112
2020-05-03T10:50:00	0.2008	9.313	180.0	0.468896585	0.555287126	0.007750463	0.079960094	0.024644478
2020-05-03T10:55:00	0.2008	9.315	180.0	0.468847515	0.555220476	0.007748992	0.079944919	0.024639800
2020-05-03T11:00:00	0.2016	9.318	180.0	0.471570090	0.558921361	0.007830813	0.080789054	0.024899971
2020-05-03T11:05:00	0.2014	9.315	180.0	0.470828351	0.557912507	0.007808480	0.080558644	0.024828956
2020-05-03T11:10:00	0.2019	9.310	180.0	0.472510838	0.560201520	0.007859184	0.081081750	0.024990183
2020-05-03T11:15:00	0.2014	9.307	180.0	0.470730267	0.557779133	0.007805529	0.080528200	0.024819573
2020-05-03T11:20:00	0.2011	9.308	180.0	0.469988343	0.556770523	0.007783225	0.080298100	0.024748654
2020-05-03T11:25:00	0.2009	9.318	180.0	0.469246256	0.555762129	0.007760949	0.080068275	0.024677820
2020-05-03T11:30:00	0.2014	9.338	180.0	0.470929532	0.558050099	0.007811524	0.080590055	0.024838638
2020-05-03T11:35:00	0.2024	9.363	180.0	0.474342559	0.562696123	0.007914569	0.081653154	0.025166295
2020-05-03T11:40:00	0.2027	9.400	180.0	0.475331513	0.564044079	0.007944552	0.081962481	0.025261633
2020-05-03T11:45:00	0.2024	9.423	180.0	0.474244577	0.562562615	0.007911602	0.081622538	0.025156859
2020-05-03T11:50:00	0.2023	9.449	180.0	0.473849522	0.562024399	0.007899643	0.081499156	0.025118831
2020-05-03T11:55:00	0.2021	9.494	181.0	0.473454422	0.561486244	0.007887691	0.081375852	0.025080828
2020-05-03T12:00:00	0.2026	9.518	181.0	0.475135602	0.563776989	0.007938608	0.081901158	0.025242732
2020-05-03T12:05:00	0.2027	9.541	181.0	0.475432559	0.564181850	0.007947619	0.081994119	0.025271384
2020-05-03T12:10:00	0.2020	9.571	181.0	0.472961255	0.560814691	0.007872785	0.081222073	0.025033432
2020-05-03T12:15:00	0.2022	9.634	181.0	0.473604525	0.561690681	0.007892230	0.081422686	0.025095263
2020-05-03T12:20:00	0.2014	9.706	182.0	0.470785508	0.557854249	0.007807191	0.080545345	0.024824858
2020-05-03T12:25:00	0.2008	9.755	182.0	0.468657431	0.554962308	0.007743295	0.079886146	0.024621686
2020-05-03T12:30:00	0.2008	9.828	182.0	0.468954958	0.555366414	0.007752213	0.079978148	0.024650042
2020-05-03T12:35:00	0.2017	9.912	182.0	0.472023731	0.559538582	0.007844487	0.080930130	0.024943452
2020-05-03T12:40:00	0.2017	9.984	183.0	0.471974706	0.559471872	0.007843009	0.080914878	0.024938751
2020-05-03T12:45:00	0.2023	10.065	183.0	0.474002705	0.562233078	0.007904279	0.081546987	0.025133573
2020-05-03T12:50:00	0.2031	10.097	184.0	0.476721131	0.565939463	0.007986777	0.082398105	0.025395896
2020-05-03T12:55:00	0.2035	10.095	183.0	0.478055057	0.567760331	0.008027413	0.082817345	0.025525110
2020-05-03T13:00:00	0.2046	10.081	183.0	0.481806191	0.572888398	0.008142234	0.084001929	0.025890210
2020-05-03T13:05:00	0.2049	10.054	183.0	0.483138116	0.574711936	0.008183198	0.084424545	0.026020465
2020-05-03T13:10:00	0.2052	10.014	183.0	0.484124505	0.576063313	0.008213600	0.084738201	0.026117137
2020-05-03T13:15:00	0.2056	9.985	183.0	0.485455520	0.577888069	0.008254713	0.085162356	0.026247865
2020-05-03T13:20:00	0.2048	9.963	183.0	0.482646359	0.574038506	0.008168062	0.084268389	0.025972336
2020-05-03T13:25:00	0.2045	9.933	183.0	0.481561769	0.572553915	0.008134728	0.083924488	0.025866342
2020-05-03T13:30:00	0.2042	9.922	183.0	0.480476833	0.571069787	0.008101451	0.083581173	0.025760529
2020-05-03T13:35:00	0.2037	9.913	183.0	0.478700451	0.568641831	0.008047111	0.083020563	0.025587744
2020-05-03T13:40:00	0.2034	9.898	183.0	0.477614597	0.567158927	0.008013984	0.082678796	0.025482408
2020-05-03T13:45:00	0.2037	9.887	182.0	0.478948171	0.568980264	0.008054678	0.083098629	0.025611805
2020-05-03T13:50:00	0.2025	9.881	183.0	0.474749939	0.563251294	0.007926913	0.081780505	0.025205546
2020-05-03T13:55:00	0.2018	9.884	183.0	0.472278137	0.559884797	0.007852161	0.081009300	0.024967853
2020-05-03T14:00:00	0.2015	9.900	182.0	0.471190218	0.558404635	0.007819371	0.080671012	0.024863589
2020-05-03T14:05:00	0.2015	9.923	182.0	0.471141182	0.558337941	0.007817895	0.080655780	0.024858895
2020-05-03T14:10:00	0.2016	9.929	183.0	0.471438489	0.558742336	0.007826848	0.080748150	0.024887364
2020-05-03T14:15:00	0.2018	9.921	183.0	0.472082049	0.559617942	0.007846246	0.080948275	0.024949045
2020-05-03T14:20:00	0.2013	9.910	183.0	0.470647677	0.557666835	0.007803044	0.080502570	0.024811674
2020-05-03T14:25:00	0.2002	9.910	183.0	0.466785935	0.552422018	0.007687317	0.079308633	0.024443691
2020-05-03T14:30:00	0.1993	9.918	183.0	0.463614100	0.548123045	0.007592902	0.078334570	0.024143475
2020-05-03T14:35:00	0.1996	9.926	183.0	0.464606201	0.549466841	0.007622372	0.078638605	0.024237182
2020-05-03T14:40:00	0.1988	9.936	183.0	0.461779650	0.545640348	0.007538559	0.077773919	0.023970677
2020-05-03T14:45:00	0.1990	9.950	183.0	0.462425056	0.546513520	0.007557656	0.077970944	0.024031402
2020-05-03T14:50:00	0.1987	9.966	183.0	0.461333953	0.545037555	0.007525384	0.077638002	0.023928786
2020-05-03T14:55:00	0.1985	9.983	183.0	0.460937384	0.544501338	0.007513672	0.077517166	0.023891543
2020-05-03T15:00:00	0.1980	10.002	183.0	0.459150686	0.542087019	0.007461013	0.076973898	0.023724103
2020-05-03T15:05:00	0.1975	10.028	184.0	0.457363039	0.539673942	0.007408509	0.076432219	0.023557152
2020-05-03T15:10:00	0.1976	10.045	183.0	0.457661565	0.540076735	0.007417264	0.076522546	0.023584992
2020-05-03T15:15:00	0.1971	10.061	184.0	0.455873125	0.537664694	0.007364888	0.075982193	0.023418450
2020-05-03T15:20:00	0.1973	10.056	183.0	0.456519665	0.538536381	0.007383802	0.076177320	0.023478590
2020-05-03T15:25:00	0.1965	10.049	183.0	0.453686306	0.534718797	0.007301093	0.075324029	0.023215597
2020-05-03T15:30:00	0.1965	10.040	184.0	0.453985159	0.535121164	0.007309795	0.075413809	0.023243268
2020-05-03T15:35:00	0.1963	10.028	183.0	0.453239535	0.534117409	0.007288093	0.075189911	0.023174261
2020-05-03T15:40:00	0.1964	10.015	183.0	0.453538428	0.534519724	0.007296789	0.075279624	0.023201911
2020-05-03T15:45:00	0.1963	9.995	183.0	0.453140937	0.533984710	0.007285225	0.075160328	0.023165143
2020-05-03T15:50:00	0.1965	9.978	183.0	0.453788004	0.534855712	0.007304054	0.075354575	0.023225012
2020-05-03T15:55:00	0.1964	9.972	183.0	0.453390542	0.534320659	0.007292486	0.075235229	0.023188228
2020-05-03T16:00:00	0.1971	9.970	183.0	0.455777717	0.537536090	0.007362099	0.075953420	0.023409582
2020-05-03T16:05:00	0.1967	9.967	183.0	0.454684455	0.536062950	0.007330178	0.075624092	0.023308080
2020-05-03T16:10:00	0.1966	9.963	183.0	0.454287100	0.535527760	0.007318592	0.075504570	0.023271242
2020-05-03T16:15:00	0.1962	9.948	183.0	0.452845125	0.533586634	0.007276626	0.075071608	0.023137799
2020-05-03T16:20:00	0.1960	9.938	183.0	0.452099247	0.532583210	0.007254965	0.074848133	0.023068922
2020-05-03T16:25:00	0.1953	9.925	183.0	0.449610751	0.529238621	0.007182924	0.074104907	0.022839852
2020-05-03T16:30:00	0.1955	9.907	183.0	0.450258499	0.530108738	0.007201642	0.074298017	0.022899370
2020-05-03T16:35:00	0.1956	9.884	183.0	0.450557657	0.530510707	0.007210295	0.074387286	0.022926884
2020-05-03T16:40:00	0.1950	9.864	183.0	0.448765427	0.528103599	0.007158533	0.073853265	0.022762294
2020-05-03T16:45:00	0.1950	9.850	183.0	0.448716062	0.528037335	0.007157110	0.073838583	0.022757768
2020-05-03T16:50:00	0.1951	9.837	183.0	0.449015358	0.528439125	0.007165740	0.073927623	0.022785211
2020-05-03T16:55:00	0.1948	9.824	182.0	0.447919889	0.526968853	0.007134176	0.073601979	0.022684845
2020-05-03T17:00:00	0.1943	9.813	183.0	0.446126247	0.524563575	0.007082642	0.073070312	0.022520980
2020-05-03T17:05:00	0.1947	9.805	183.0	0.447472349	0.526368464	0.007121300	0.073469143	0.022643904
2020-05-03T17:10:00	0.1950	9.798	183.0	0.448469229	0.527706025	0.007149996	0.073765190	0.022735148
2020-05-03T17:15:00	0.1955	9.794	183.0	0.450511437	0.530448598	0.007208958	0.074373491	0.022922632
2020-05-03T17:20:00	0.1961	9.782	182.0	0.452552403	0.533192785	0.007268121	0.074983866	0.023110756
2020-05-03T17:25:00	0.1959	9.774	183.0	0.451806461	0.532189445	0.007246470	0.074760499	0.023041912
2020-05-03T17:30:00	0.1961	9.757	183.0	0.452453785	0.533060112	0.007265257	0.074954317	0.023101648
2020-05-03T17:35:00	0.1966	9.733	183.0	0.454145477	0.535337041	0.007314466	0.075461993	0.023258119
2020-05-03T17:40:00	0.1965	9.713	182.0	0.453748058	0.534801933	0.007302891	0.075342576	0.023221314
2020-05-03T17:45:00	0.1969	9.691	182.0	0.455091105	0.536610789	0.007342043	0.075746507	0.023345809
2020-05-03T17:50:00	0.1969	9.669	182.0	0.455389833	0.537013319	0.007350766	0.075836496	0.023373544
2020-05-03T17:55:00	0.1968	9.648	182.0	0.454992561	0.536478019	0.007339167	0.075716833	0.023336663
2020-05-03T18:00:00	0.1969	9.624	182.0	0.455291297	0.536880537	0.007347888	0.075806807	0.023364394
2020-05-03T18:05:00	0.1971	9.599	182.0	0.455937950	0.537752078	0.007366783	0.076001746	0.023424476
2020-05-03T18:10:00	0.1978	9.575	182.0	0.458323316	0.540969869	0.007436690	0.076722961	0.023646762
2020-05-03T18:15:00	0.1975	9.555	181.0	0.457230882	0.539495649	0.007404634	0.076392249	0.023544833
2020-05-03T18:20:00	0.1976	9.533	182.0	0.457529419	0.539898426	0.007413388	0.076482555	0.023572666
2020-05-03T18:25:00	0.1983	9.509	182.0	0.460261152	0.543587266	0.007493720	0.077311328	0.023828102
2020-05-03T18:30:00	0.1984	9.488	181.0	0.460559420	0.543990395	0.007502517	0.077402085	0.023856074
2020-05-03T18:35:00	0.1985	9.466	181.0	0.460857663	0.544393559	0.007511318	0.077492886	0.023884060
2020-05-03T18:40:00	0.1986	9.445	181.0	0.461155878	0.544796758	0.007520124	0.077583731	0.023912059
2020-05-03T18:45:00	0.1995	9.423	181.0	0.464231755	0.548959564	0.007611243	0.078523786	0.024201793
2020-05-03T18:50:00	0.1992	9.403	181.0	0.463141238	0.547482831	0.007578876	0.078189863	0.024098875
2020-05-03T18:55:00	0.1992	9.384	181.0	0.463092084	0.547416291	0.007577418	0.078174828	0.024094241
2020-05-03T19:00:00	0.1993	9.364	181.0	0.463737239	0.548289794	0.007596557	0.078372275	0.024155096
2020-05-03T19:05:00	0.1993	9.344	181.0	0.463688094	0.548223243	0.007595098	0.078357226	0.024150458
2020-05-03T19:10:00	0.1998	9.324	181.0	0.465374145	0.550507552	0.007645222	0.078874344	0.024309839
2020-05-03T19:15:00	0.2007	9.303	181.0	0.468446175	0.554675419	0.007736966	0.079820853	0.024601562
2020-05-03T19:20:00	0.2011	9.282	181.0	0.469783371	0.556491951	0.007777069	0.080234588	0.024729079
2020-05-03T19:25:00	0.2012	9.260	180.0	0.470080798	0.556896188	0.007786003	0.080326757	0.024757486
2020-05-03T19:30:00	0.2010	9.240	181.0	0.469338732	0.555887767	0.007763723	0.080096897	0.024686642
2020-05-03T19:35:00	0.2011	9.223	180.0	0.469982692	0.556762843	0.007783056	0.080296349	0.024748115
2020-05-03T19:40:00	0.2012	9.206	180.0	0.470280101	0.557167103	0.007791992	0.080388547	0.024776531
2020-05-03T19:45:00	0.2016	9.188	181.0	0.471616571	0.558984595	0.007832214	0.080803503	0.024904424
2020-05-03T19:50:00	0.2019	9.171	180.0	0.472606322	0.560331493	0.007862066	0.081111487	0.024999348
2020-05-03T19:55:00	0.2018	9.154	180.0	0.472211076	0.559793531	0.007850138	0.080988428	0.024961420
2020-05-03T20:00:00	0.2018	9.136	180.0	0.472162054	0.559726817	0.007848659	0.080973171	0.024956718
2020-05-03T20:05:00	0.2022	9.121	179.0	0.473497780	0.561545294	0.007889002	0.081389379	0.025084997
2020-05-03T20:10:00	0.2025	9.105	180.0	0.474832977	0.563364472	0.007929431	0.081806476	0.025213550
2020-05-03T20:15:00	0.2023	9.090	180.0	0.474091954	0.562354669	0.007906981	0.081574861	0.025142164
2020-05-03T20:20:00	0.2011	9.075	180.0	0.469887683	0.556633715	0.007780202	0.080266907	0.024739040
2020-05-03T20:25:00	0.2012	9.061	180.0	0.470185101	0.557037964	0.007789137	0.080359091	0.024767452
2020-05-03T20:30:00	0.2010	9.047	180.0	0.469443058	0.556029513	0.007766853	0.080129193	0.024696596
2020-05-03T20:35:00	0.2006	9.032	180.0	0.468007564	0.554079890	0.007723834	0.079685374	0.024559806
2020-05-03T20:40:00	0.2004	9.018	179.0	0.467265041	0.553072071	0.007701628	0.079456281	0.024489197
2020-05-03T20:45:00	0.2002	9.004	180.0	0.466869169	0.552534937	0.007689802	0.079334274	0.024451594
2020-05-03T20:50:00	0.2004	8.991	180.0	0.467513601	0.553409391	0.007709058	0.079532934	0.024512823
2020-05-03T20:55:00	0.1999	8.977	179.0	0.465730390	0.550990490	0.007655833	0.078983820	0.024343580
2020-05-03T21:00:00	0.1998	8.964	180.0	0.465334337	0.550453593	0.007644037	0.078862116	0.024306070
2020-05-03T21:05:00	0.1999	8.949	180.0	0.465632157	0.550857313	0.007652906	0.078953625	0.024334274
2020-05-03T21:10:00	0.1999	8.935	179.0	0.465583040	0.550790725	0.007651443	0.078938529	0.024329621
2020-05-03T21:15:00	0.1999	8.922	179.0	0.465533922	0.550724138	0.007649980	0.078923435	0.024324969
2020-05-03T21:20:00	0.2000	8.910	179.0	0.466178609	0.551598256	0.007669195	0.079121666	0.024386066
2020-05-03T21:25:00	0.1998	8.897	179.0	0.465435683	0.550590968	0.007647054	0.078893250	0.024315666
2020-05-03T21:30:00	0.1995	8.884	179.0	0.464345556	0.549113722	0.007614624	0.078558673	0.024212546
2020-05-03T21:35:00	0.1999	8.871	180.0	0.465684378	0.550928109	0.007654462	0.078969676	0.024339221
2020-05-03T21:40:00	0.2000	8.860	180.0	0.465982167	0.551331869	0.007663337	0.079061237	0.024367441
2020-05-03T21:45:00	0.2002	8.848	179.0	0.466626768	0.552206099	0.007682566	0.079259612	0.024428582
2020-05-03T21:50:00	0.2002	8.837	179.0	0.466577665	0.552139493	0.007681100	0.079244492	0.024423922
2020-05-03T21:55:00	0.1996	8.825	179.0	0.464793959	0.549721245	0.007627955	0.078696210	0.024254936
2020-05-03T22:00:00	0.1988	8.814	179.0	0.461967565	0.545894545	0.007544116	0.077831259	0.023988350
2020-05-03T22:05:00	0.1986	8.803	179.0	0.461269783	0.544950780	0.007523488	0.077618443	0.023922758
2020-05-03T22:10:00	0.1984	8.791	179.0	0.460571856	0.544007204	0.007502884	0.077405870	0.023857241
2020-05-03T22:15:00	0.1988	8.779	179.0	0.461958242	0.545881933	0.007543841	0.077828414	0.023987473
2020-05-03T22:20:00	0.1986	8.768	179.0	0.461260458	0.544938171	0.007523213	0.077615601	0.023921882
2020-05-03T22:25:00	0.1982	8.756	178.0	0.459867565	0.543055416	0.007482120	0.077191648	0.023791216
2020-05-03T22:30:00	0.1981	8.745	179.0	0.459516919	0.542581695	0.007471792	0.077085102	0.023758377
2020-05-03T22:35:00	0.1979	8.735	178.0	0.458818628	0.541638596	0.007451247	0.076873138	0.023693048
2020-05-03T22:40:00	0.1984	8.724	179.0	0.460553203	0.543981991	0.007502334	0.077400192	0.023855491
2020-05-03T22:45:00	0.1989	8.715	178.0	0.462286883	0.546326557	0.007553566	0.077928743	0.024018395
2020-05-03T22:50:00	0.1989	8.704	179.0	0.462283776	0.546322353	0.007553474	0.077927794	0.024018103
2020-05-03T22:55:00	0.1996	8.695	178.0	0.464710674	0.549608394	0.007625478	0.078670655	0.024247060
2020-05-03T23:00:00	0.1996	8.685	178.0	0.464707569	0.549604187	0.007625386	0.078669703	0.024246766
2020-05-03T23:05:00	0.1992	8.675	178.0	0.463316101	0.547719561	0.007584061	0.078243360	0.024115363
2020-05-03T23:10:00	0.1991	8.666	179.0	0.462965815	0.547245368	0.007573675	0.078136213	0.024082340
2020-05-03T23:15:00	0.1994	8.656	178.0	0.464004143	0.548651263	0.007604481	0.078454032	0.024180295
2020-05-03T23:20:00	0.1994	8.648	178.0	0.464001037	0.548647057	0.007604389	0.078453080	0.024180001
2020-05-03T23:25:00	0.2001	8.639	178.0	0.466426699	0.551934723	0.007676595	0.079198015	0.024409597
2020-05-03T23:30:00	0.2001	8.630	178.0	0.466423595	0.551930514	0.007676502	0.079197060	0.024409303
2020-05-03T23:35:00	0.2001	8.621	178.0	0.466420492	0.551926305	0.007676410	0.079196105	0.024409009
2020-05-03T23:40:00	0.2001	8.612	178.0	0.466417388	0.551922095	0.007676317	0.079195149	0.024408714
2020-05-03T23:45:00	0.2000	8.602	177.0	0.466067424	0.551447479	0.007665879	0.079087461	0.024375524
2020-05-03T23:50:00	0.2002	8.593	178.0	0.466758007	0.552384130	0.007686483	0.079300031	0.024441040
2020-05-03T23:55:00	0.2004	8.584	178.0	0.467448449	0.553320968	0.007707110	0.079512838	0.024506629
2020-05-04T00:00:00	0.2001	8.575	178.0	0.466404974	0.551905258	0.007675947	0.079191328	0.024407536
2020-05-04T00:05:00	0.1998	8.568	177.0	0.465361177	0.550489974	0.007644836	0.078870360	0.024308611
2020-05-04T00:10:00	0.1999	8.560	177.0	0.465705007	0.550956077	0.007655077	0.078976017	0.024341175
2020-05-04T00:15:00	0.1998	8.552	177.0	0.465354968	0.550481558	0.007644651	0.078868453	0.024308023
2020-05-04T00:20:00	0.1991	8.543	178.0	0.462922321	0.547186497	0.007572386	0.078122914	0.024078241
2020-05-04T00:25:00	0.1991	8.535	178.0	0.462919215	0.547182292	0.007572294	0.078121964	0.024077948
2020-05-04T00:30:00	0.1990	8.526	178.0	0.462568887	0.546708154	0.007561915	0.078014885	0.024044945
2020-05-04T00:35:00	0.1987	8.518	178.0	0.461523900	0.545294434	0.007530997	0.077695913	0.023946635
2020-05-04T00:40:00	0.1990	8.509	177.0	0.462562673	0.546699745	0.007561731	0.078012987	0.024044360
2020-05-04T00:45:00	0.1988	8.500	178.0	0.461865014	0.545755818	0.007541083	0.077799964	0.023978705
2020-05-04T00:50:00	0.1989	8.492	177.0	0.462209200	0.546221451	0.007551266	0.077905022	0.024011084
2020-05-04T00:55:00	0.1991	8.484	177.0	0.462900574	0.547157061	0.007571742	0.078116264	0.024076191
2020-05-04T01:00:00	0.1980	8.476	177.0	0.459076041	0.541986208	0.007458817	0.076951242	0.023717120
2020-05-04T01:05:00	0.1980	8.467	177.0	0.459072931	0.541982007	0.007458726	0.076950298	0.023716829
2020-05-04T01:10:00	0.1977	8.460	177.0	0.458026857	0.540569711	0.007427984	0.076633145	0.023619080
2020-05-04T01:15:00	0.1982	8.452	177.0	0.459761840	0.542912571	0.007479005	0.077159515	0.023781312
2020-05-04T01:20:00	0.1977	8.444	177.0	0.458020635	0.540561312	0.007427802	0.076631260	0.023618499
2020-05-04T01:25:00	0.1979	8.437	177.0	0.458712870	0.541495794	0.007448137	0.076841061	0.023683161
2020-05-04T01:30:00	0.1977	8.429	177.0	0.458014412	0.540552914	0.007427619	0.076629376	0.023617918
2020-05-04T01:35:00	0.1978	8.421	177.0	0.458358993	0.541018031	0.007437738	0.076733774	0.023650094
2020-05-04T01:40:00	0.1978	8.411	177.0	0.458355882	0.541013832	0.007437647	0.076732831	0.023649804
2020-05-04T01:45:00	0.1977	8.403	177.0	0.458005079	0.540540317	0.007427345	0.076626549	0.023617047
2020-05-04T01:50:00	0.1978	8.393	177.0	0.458349660	0.541005432	0.007437464	0.076730945	0.023649222
2020-05-04T01:55:00	0.1983	8.385	177.0	0.460084476	0.543348511	0.007488512	0.077257594	0.023811541
2020-05-04T02:00:00	0.1980	8.378	177.0	0.459038718	0.541935803	0.007457719	0.076939915	0.023713629
2020-05-04T02:05:00	0.1987	8.369	177.0	0.461467956	0.545218773	0.007529344	0.077678855	0.023941377
2020-05-04T02:10:00	0.1982	8.360	177.0	0.459727634	0.542866358	0.007477997	0.077149121	0.023778108
2020-05-04T02:15:00	0.1980	8.352	177.0	0.459029387	0.541923202	0.007457445	0.076937083	0.023712756
2020-05-04T02:20:00	0.1976	8.344	177.0	0.457635569	0.540041657	0.007416501	0.076514678	0.023582567
2020-05-04T02:25:00	0.1967	8.336	177.0	0.454501257	0.535816189	0.007324835	0.075568976	0.023291092
2020-05-04T02:30:00	0.1963	8.327	176.0	0.453105559	0.533937098	0.007284197	0.075149715	0.023161872
2020-05-04T02:35:00	0.1964	8.318	176.0	0.453450644	0.534401558	0.007294234	0.075253270	0.023193789
2020-05-04T02:40:00	0.1957	8.310	176.0	0.451009364	0.531117784	0.007223370	0.074522176	0.022968458
2020-05-04T02:45:00	0.1960	8.301	177.0	0.452051392	0.532518845	0.007253576	0.074833806	0.023064506
2020-05-04T02:50:00	0.1957	8.293	177.0	0.451003128	0.531109403	0.007223189	0.074520313	0.022967884
2020-05-04T02:55:00	0.1960	8.285	177.0	0.452045158	0.532510461	0.007253395	0.074831940	0.023063931
2020-05-04T03:00:00	0.1956	8.278	176.0	0.450648438	0.530632700	0.007212922	0.074414386	0.022935236
2020-05-04T03:05:00	0.1949	8.270	176.0	0.448205116	0.527351577	0.007142388	0.073686699	0.022710956
2020-05-04T03:10:00	0.1943	8.264	176.0	0.446108976	0.524540426	0.007082147	0.073065201	0.022519405
2020-05-04T03:15:00	0.1944	8.256	176.0	0.446454781	0.525003950	0.007092068	0.073167554	0.022550951
2020-05-04T03:20:00	0.1953	8.250	176.0	0.449590379	0.529211261	0.007182336	0.074098837	0.022837981
2020-05-04T03:25:00	0.1958	8.243	176.0	0.451329725	0.531548435	0.007232650	0.074617916	0.022997966
2020-05-04T03:30:00	0.1950	8.237	176.0	0.448538226	0.527798630	0.007151984	0.073785702	0.022741470
2020-05-04T03:35:00	0.1948	8.230	176.0	0.447837647	0.526858510	0.007131809	0.073577559	0.022677318
2020-05-04T03:40:00	0.1946	8.225	176.0	0.447136921	0.525918580	0.007111658	0.073369661	0.022613242
2020-05-04T03:45:00	0.1948	8.220	176.0	0.447831405	0.526850137	0.007131629	0.073575706	0.022676747
2020-05-04T03:50:00	0.1945	8.214	176.0	0.446781821	0.525442408	0.007101456	0.073264417	0.022580805
2020-05-04T03:55:00	0.1955	8.209	176.0	0.450265644	0.530118337	0.007201849	0.074300148	0.022900027
2020-05-04T04:00:00	0.1962	8.204	176.0	0.452701232	0.533393023	0.007272445	0.075028471	0.023124503
2020-05-04T04:05:00	0.1966	8.198	176.0	0.454334175	0.535591157	0.007319965	0.075518725	0.023275604
2020-05-04T04:10:00	0.1965	8.193	176.0	0.453878144	0.534977075	0.007306678	0.075381654	0.023233358
2020-05-04T04:15:00	0.1971	8.188	176.0	0.455858465	0.537644933	0.007364460	0.075977772	0.023417087
2020-05-04T04:20:00	0.1965	8.184	176.0	0.454010433	0.535155196	0.007310531	0.075421404	0.023245609
2020-05-04T04:25:00	0.1968	8.181	176.0	0.454946757	0.536416309	0.007337830	0.075703043	0.023332413
2020-05-04T04:30:00	0.1975	8.179	176.0	0.457274252	0.539554158	0.007405906	0.076405365	0.023548876
2020-05-04T04:35:00	0.1975	8.177	176.0	0.457166436	0.539408710	0.007402746	0.076372761	0.023538827
2020-05-04T04:40:00	0.1984	8.175	176.0	0.460534904	0.543957257	0.007501794	0.077394623	0.023853774
2020-05-04T04:45:00	0.1987	8.175	176.0	0.461469411	0.545220742	0.007529387	0.077679298	0.023941514
2020-05-04T04:50:00	0.1984	8.177	176.0	0.460319477	0.543666091	0.007495440	0.077329071	0.023833571
2020-05-04T04:55:00	0.1984	8.179	176.0	0.460559224	0.543990130	0.007502511	0.077402025	0.023856056
2020-05-04T05:00:00	0.1983	8.181	176.0	0.460104037	0.543374944	0.007489088	0.077263543	0.023813374
2020-05-04T05:05:00	0.1990	8.185	176.0	0.462427966	0.546517458	0.007557742	0.077971833	0.024031676
2020-05-04T05:10:00	0.1997	8.190	176.0	0.465097289	0.550132305	0.007636980	0.078789316	0.024283633
2020-05-04T05:15:00	0.1999	8.194	176.0	0.465683631	0.550927097	0.007654440	0.078969447	0.024339150
2020-05-04T05:20:00	0.2005	8.199	176.0	0.467657018	0.553604044	0.007713347	0.079577178	0.024526459
2020-05-04T05:25:00	0.2010	8.207	176.0	0.469629251	0.556282512	0.007772442	0.080186849	0.024714365
2020-05-04T05:30:00	0.2008	8.215	176.0	0.468828711	0.555194935	0.007748428	0.079939104	0.024638008
2020-05-04T05:35:00	0.2010	8.224	176.0	0.469414406	0.555990583	0.007765993	0.080120323	0.024693862
2020-05-04T05:40:00	0.2008	8.234	176.0	0.468613815	0.554903074	0.007741988	0.079872664	0.024617531
2020-05-04T05:45:00	0.2006	8.246	176.0	0.468159716	0.554286459	0.007728388	0.079732358	0.024574287
2020-05-04T05:50:00	0.2003	8.259	176.0	0.467012064	0.552728808	0.007694070	0.079378303	0.024465164
2020-05-04T05:55:00	0.2007	8.275	176.0	0.468291445	0.554465315	0.007732332	0.079773047	0.024586828
2020-05-04T06:00:00	0.2011	8.294	176.0	0.469916842	0.556673344	0.007781077	0.080275942	0.024741825
2020-05-04T06:05:00	0.2010	8.313	176.0	0.469462918	0.556056497	0.007767449	0.080135342	0.024698491
2020-05-04T06:10:00	0.2013	8.329	177.0	0.470394954	0.557323237	0.007795445	0.080424166	0.024787509
2020-05-04T06:15:00	0.2014	8.346	177.0	0.470980376	0.558119244	0.007813054	0.080605842	0.024843503
2020-05-04T06:20:00	0.2015	8.369	176.0	0.471219365	0.558444279	0.007820249	0.080680066	0.024866380
2020-05-04T06:25:00	0.2015	8.387	177.0	0.471111995	0.558298245	0.007817016	0.080646715	0.024856101
2020-05-04T06:30:00	0.2011	8.409	176.0	0.469965347	0.556739268	0.007782534	0.080290973	0.024746458
2020-05-04T06:35:00	0.2017	8.432	177.0	0.471936231	0.559419518	0.007841849	0.080902909	0.024935062
2020-05-04T06:40:00	0.2016	8.459	177.0	0.471482579	0.558802313	0.007828176	0.080761853	0.024891587
2020-05-04T06:45:00	0.2010	8.488	177.0	0.469643105	0.556301338	0.007772858	0.080191139	0.024715688
2020-05-04T06:50:00	0.2016	8.511	177.0	0.471614178	0.558981340	0.007832141	0.080802759	0.024904195
2020-05-04T06:55:00	0.2021	8.540	177.0	0.473237977	0.561191484	0.007881147	0.081308343	0.025060021
2020-05-04T07:00:00	0.2023	8.568	177.0	0.473822907	0.561988142	0.007898837	0.081490847	0.025116271
2020-05-04T07:05:00	0.2023	8.593	177.0	0.474061695	0.562313444	0.007906064	0.081565410	0.025139251
2020-05-04T07:10:00	0.2026	8.624	178.0	0.474992463	0.563581863	0.007934267	0.081856367	0.025228927
2020-05-04T07:15:00	0.2028	8.651	178.0	0.475577090	0.564378925	0.007952006	0.082039383	0.025285334
2020-05-04T07:20:00	0.2025	8.675	178.0	0.474777958	0.563289482	0.007927763	0.081789268	0.025208247
2020-05-04T07:25:00	0.2018	8.721	178.0	0.472247862	0.559843593	0.007851248	0.080999877	0.024964949
2020-05-04T07:30:00	0.2015	8.767	178.0	0.471101599	0.558284106	0.007816703	0.080643486	0.024855106
2020-05-04T07:35:00	0.2013	8.794	178.0	0.470647834	0.557667049	0.007803049	0.080502618	0.024811689
2020-05-04T07:40:00	0.2007	8.830	178.0	0.468461291	0.554695945	0.007737419	0.079825524	0.024603002
2020-05-04T07:45:00	0.2014	8.871	179.0	0.470779466	0.557846033	0.007807009	0.080543470	0.024824280
2020-05-04T07:50:00	0.2022	8.904	179.0	0.473788294	0.561940994	0.007897790	0.081480042	0.025112940
2020-05-04T07:55:00	0.2018	8.944	179.0	0.472296333	0.559909562	0.007852710	0.081014964	0.024969599
2020-05-04T08:00:00	0.2019	8.982	179.0	0.472535229	0.560234720	0.007859920	0.081089345	0.024992524
2020-05-04T08:05:00	0.2021	9.025	179.0	0.473120281	0.561031218	0.007877590	0.081271645	0.025048710
2020-05-04T08:10:00	0.2021	9.057	179.0	0.473359119	0.561356453	0.007884809	0.081346124	0.025071665
2020-05-04T08:15:00	0.2030	9.082	180.0	0.476365652	0.565454458	0.007975965	0.082286559	0.025361517
2020-05-04T08:20:00	0.2031	9.105	180.0	0.476604261	0.565779998	0.007983221	0.082361424	0.025384591
2020-05-04T08:25:00	0.2037	9.126	180.0	0.478916860	0.568937484	0.008053721	0.083088760	0.025608763
2020-05-04T08:30:00	0.2039	9.144	179.0	0.479500809	0.569735448	0.008071572	0.083272918	0.025665522
2020-05-04T08:35:00	0.2045	9.164	180.0	0.481466147	0.572423071	0.008131792	0.083894202	0.025857008
2020-05-04T08:40:00	0.2042	9.179	180.0	0.480668405	0.571331778	0.008107322	0.083641743	0.025779198
2020-05-04T08:45:00	0.2046	9.198	180.0	0.481942629	0.573075131	0.008146426	0.084045172	0.025903538
2020-05-04T08:50:00	0.2040	9.230	180.0	0.479763379	0.570094337	0.008079604	0.083355789	0.025691064
2020-05-04T08:55:00	0.2043	9.250	180.0	0.481037944	0.571837236	0.008118653	0.083758643	0.025815227
2020-05-04T09:00:00	0.2049	9.251	180.0	0.483002391	0.574526049	0.008179019	0.084381432	0.026007177
2020-05-04T09:05:00	0.2048	9.257	180.0	0.482550220	0.573906872	0.008165104	0.084237878	0.025962932
2020-05-04T09:10:00	0.2053	9.271	180.0	0.484513791	0.576596858	0.008225614	0.084862146	0.026155338
2020-05-04T09:15:00	0.2049	9.295	180.0	0.483026550	0.574559136	0.008179763	0.084389105	0.026009542
2020-05-04T09:20:00	0.2048	9.325	181.0	0.482574382	0.573939954	0.008165848	0.084245545	0.025965295
2020-05-04T09:25:00	0.2053	9.352	180.0	0.484192932	0.576157088	0.008215712	0.084759981	0.026123849
2020-05-04T09:30:00	0.2049	9.392	180.0	0.483050709	0.574592222	0.008180507	0.084396779	0.026011907
2020-05-04T09:35:00	0.2045	9.464	181.0	0.481562825	0.572555360	0.008134760	0.083924823	0.025866445
2020-05-04T09:40:00	0.2035	9.509	181.0	0.478000991	0.567686501	0.008025764	0.082800332	0.025519866
2020-05-04T09:45:00	0.2041	9.532	181.0	0.480312636	0.570845258	0.008096420	0.083529276	0.025744534
2020-05-04T09:50:00	0.2043	9.545	181.0	0.480896345	0.571643543	0.008114310	0.083713840	0.025801419
2020-05-04T09:55:00	0.2043	9.555	181.0	0.480789281	0.571497101	0.008111027	0.083679972	0.025790980
2020-05-04T10:00:00	0.2046	9.573	181.0	0.482063460	0.573240515	0.008150139	0.084083478	0.025915344
2020-05-04T10:05:00	0.2031	9.596	181.0	0.476737110	0.565961267	0.007987263	0.082403121	0.025397442
2020-05-04T10:10:00	0.2028	9.626	181.0	0.475555777	0.564349863	0.007951359	0.082032707	0.025283277
2020-05-04T10:15:00	0.2028	9.662	182.0	0.475757852	0.564625426	0.007957495	0.082096011	0.025302788
2020-05-04T10:20:00	0.2021	9.697	182.0	0.473191871	0.561128700	0.007879754	0.081293966	0.025055590
2020-05-04T10:25:00	0.2029	9.733	181.0	0.476161968	0.565176602	0.007969773	0.082222679	0.025341828
2020-05-04T10:30:00	0.2030	9.784	182.0	0.476364007	0.565452214	0.007975915	0.082286043	0.025361358
2020-05-04T10:35:00	0.2033	9.812	182.0	0.477603282	0.567143479	0.008013639	0.082675239	0.025481311
2020-05-04T10:40:00	0.2022	9.835	182.0	0.473654585	0.561758864	0.007893745	0.081438308	0.025100078
2020-05-04T10:45:00	0.1990	9.864	183.0	0.462416796	0.546502343	0.007557412	0.077968421	0.024030625
2020-05-04T10:50:00	0.1976	9.905	182.0	0.457754871	0.540202645	0.007420002	0.076550788	0.023593696
2020-05-04T10:55:00	0.1973	9.952	183.0	0.456566866	0.538600033	0.007385183	0.076191574	0.023482983
2020-05-04T11:00:00	0.1958	9.998	183.0	0.451548451	0.531842508	0.007238989	0.074683316	0.023018123
2020-05-04T11:05:00	0.1952	10.041	183.0	0.449312574	0.528838193	0.007174316	0.074016096	0.022812480
2020-05-04T11:10:00	0.1944	10.087	184.0	0.446377442	0.524900276	0.007089848	0.073144657	0.022543894
2020-05-04T11:15:00	0.1935	10.147	184.0	0.443439735	0.520965688	0.007005796	0.072277508	0.022276630
2020-05-04T11:20:00	0.1930	10.218	184.0	0.441547875	0.518435435	0.006951927	0.071721746	0.022105339
2020-05-04T11:25:00	0.1919	10.299	184.0	0.438614581	0.513576536	0.006856238	0.070734539	0.021801072
2020-05-04T11:30:00	0.1912	10.340	184.0	0.436597054	0.510125737	0.006789270	0.070043647	0.021588132
2020-05-04T11:35:00	0.1907	10.378	185.0	0.435394544	0.508074359	0.006749546	0.069633824	0.021461821
2020-05-04T11:40:00	0.1903	10.419	184.0	0.434191164	0.506025538	0.006709936	0.069225176	0.021335872
2020-05-04T11:45:00	0.1902	10.445	185.0	0.433805153	0.505369187	0.006697261	0.069094404	0.021295566
2020-05-04T11:50:00	0.1897	10.462	185.0	0.432600621	0.503323744	0.006657801	0.068687307	0.021170095
2020-05-04T11:55:00	0.1888	10.468	185.0	0.430029266	0.498970787	0.006574041	0.067823173	0.020903761
2020-05-04T12:00:00	0.1885	10.463	185.0	0.429368892	0.497855832	0.006552635	0.067602324	0.020835693
2020-05-04T12:05:00	0.1883	10.450	183.0	0.428708253	0.496741643	0.006531262	0.067381826	0.020767733
2020-05-04T12:10:00	0.1878	10.434	185.0	0.427226248	0.494246602	0.006483472	0.066888782	0.020615772
2020-05-04T12:15:00	0.1869	10.428	187.0	0.424920641	0.490377103	0.006409548	0.066126121	0.020380713
2020-05-04T12:20:00	0.1865	10.438	185.0	0.423709580	0.488350481	0.006370924	0.065727652	0.020257901
2020-05-04T12:25:00	0.1861	10.436	185.0	0.422772157	0.486784563	0.006341126	0.065420224	0.020163148
2020-05-04T12:30:00	0.1860	10.432	184.0	0.422383451	0.486135964	0.006328794	0.065293005	0.020123938
2020-05-04T12:35:00	0.1849	10.434	185.0	0.419520925	0.481372382	0.006238434	0.064360770	0.019836614
2020-05-04T12:40:00	0.1845	10.446	185.0	0.418305821	0.479357150	0.006200316	0.063967512	0.019715408
2020-05-04T12:45:00	0.1848	10.443	184.0	0.419017036	0.480536195	0.006222609	0.064197513	0.019786297
2020-05-04T12:50:00	0.1846	10.428	185.0	0.418627428	0.479890133	0.006210391	0.064071455	0.019747445
2020-05-04T12:55:00	0.1845	10.412	215.0	0.418237725	0.479244335	0.006198184	0.063945517	0.019708629
2020-05-04T13:00:00	0.1836	10.402	185.0	0.415919289	0.475410979	0.006125862	0.063199391	0.019478666
2020-05-04T13:05:00	0.1832	10.395	185.0	0.414701457	0.473403322	0.006088080	0.062809594	0.019358527
2020-05-04T13:10:00	0.1826	10.388	185.0	0.412930389	0.470490915	0.006033386	0.062245332	0.019184616
2020-05-04T13:15:00	0.1820	10.381	185.0	0.411433837	0.468036654	0.005987403	0.061770936	0.019038402
2020-05-04T13:20:00	0.1816	10.383	186.0	0.410212572	0.466038408	0.005950037	0.061385434	0.018919587
2020-05-04T13:25:00	0.1811	10.404	186.0	0.408990366	0.464042719	0.005912784	0.061001099	0.018801131
2020-05-04T13:30:00	0.1804	10.417	185.0	0.406935688	0.460696954	0.005850476	0.060358278	0.018603007
2020-05-04T13:35:00	0.1802	10.415	185.0	0.406265772	0.459608586	0.005830247	0.060149580	0.018538685
2020-05-04T13:40:00	0.1798	10.406	193.0	0.405318061	0.458071001	0.005801702	0.059855089	0.018447920
2020-05-04T13:45:00	0.1792	10.399	187.0	0.403536451	0.455187131	0.005748270	0.059303838	0.018278019
2020-05-04T13:50:00	0.1790	10.397	185.0	0.403143025	0.454551467	0.005736511	0.059182523	0.018240628
2020-05-04T13:55:00	0.1799	10.393	185.0	0.405526928	0.458409660	0.005807986	0.059919917	0.018467900
2020-05-04T14:00:00	0.1790	10.394	185.0	0.403189833	0.454627072	0.005737909	0.059196948	0.018245074
2020-05-04T14:05:00	0.1791	10.415	185.0	0.403352183	0.454889353	0.005742760	0.059246999	0.018260501
2020-05-04T14:10:00	0.1789	10.445	185.0	0.402680734	0.453805076	0.005722712	0.059040165	0.018196752
2020-05-04T14:15:00	0.1800	10.468	186.0	0.405897855	0.459011378	0.005819155	0.060035150	0.018503416
2020-05-04T14:20:00	0.1798	10.483	185.0	0.405227496	0.457924195	0.005798979	0.059826993	0.018439260
2020-05-04T14:25:00	0.1807	10.498	185.0	0.407885345	0.462241904	0.005879224	0.060654872	0.018694421
2020-05-04T14:30:00	0.1804	10.502	186.0	0.406938609	0.460701701	0.005850564	0.060359188	0.018603288
2020-05-04T14:35:00	0.1803	10.520	185.0	0.406546035	0.460063761	0.005838704	0.060236837	0.018565578
2020-05-04T14:40:00	0.1799	10.546	186.0	0.405598493	0.458525723	0.005810140	0.059942139	0.018474749
2020-05-04T14:45:00	0.1795	10.552	186.0	0.404372703	0.456539680	0.005773312	0.059562200	0.018357648
2020-05-04T14:50:00	0.1799	10.548	185.0	0.405645227	0.458601523	0.005811546	0.059956654	0.018479223
2020-05-04T14:55:00	0.1794	10.553	185.0	0.404141756	0.456165957	0.005766390	0.059490780	0.018335636
2020-05-04T15:00:00	0.1799	10.559	185.0	0.405691959	0.458677327	0.005812953	0.059971170	0.018483697
2020-05-04T15:05:00	0.1798	10.559	185.0	0.405299074	0.458040222	0.005801131	0.059849198	0.018446104
2020-05-04T15:10:00	0.1813	10.557	185.0	0.409341541	0.464615718	0.005923473	0.061111380	0.018835121
2020-05-04T15:15:00	0.1827	10.550	185.0	0.413373708	0.471219114	0.006047048	0.062386283	0.019228058
2020-05-04T15:20:00	0.1831	10.535	185.0	0.414363091	0.472846234	0.006077607	0.062701552	0.019325227
2020-05-04T15:25:00	0.1837	10.517	186.0	0.416178997	0.475839650	0.006133938	0.063282707	0.019504345
2020-05-04T15:30:00	0.1851	10.496	185.0	0.419919008	0.482033483	0.006250953	0.064489925	0.019876421
2020-05-04T15:35:00	0.1871	10.472	186.0	0.425295765	0.491005668	0.006421540	0.066249843	0.020418845
2020-05-04T15:40:00	0.1875	10.443	185.0	0.426551779	0.493113116	0.006461793	0.066665126	0.020546839
2020-05-04T15:45:00	0.1888	10.405	185.0	0.429994750	0.498912482	0.006572922	0.067811620	0.020900200
2020-05-04T15:50:00	0.1907	10.363	185.0	0.435338634	0.507979079	0.006747703	0.069614805	0.021455959
2020-05-04T15:55:00	0.1929	10.318	183.0	0.441244428	0.518029853	0.006943305	0.071632799	0.022077924
2020-05-04T16:00:00	0.1923	10.275	183.0	0.439737567	0.515502233	0.006893687	0.071120900	0.021920152
2020-05-04T16:05:00	0.1917	10.239	183.0	0.437916391	0.512381058	0.006833017	0.070494978	0.021727237
2020-05-04T16:10:00	0.1917	10.213	184.0	0.437998278	0.512521199	0.006835738	0.070523049	0.021735889
2020-05-04T16:15:00	0.1915	10.190	182.0	0.437536110	0.511730494	0.006820390	0.070364706	0.021687086
2020-05-04T16:20:00	0.1922	10.169	182.0	0.439249558	0.514664962	0.006877398	0.070952843	0.021868355
2020-05-04T16:25:00	0.1903	10.147	182.0	0.434159608	0.505971865	0.006708900	0.069214480	0.021332575
2020-05-04T16:30:00	0.1885	10.128	190.0	0.429327457	0.497785915	0.006551293	0.067588482	0.020831427
2020-05-04T16:35:00	0.1908	10.111	182.0	0.435413766	0.508107119	0.006750180	0.069640363	0.021463836
2020-05-04T16:40:00	0.1904	10.088	182.0	0.434405810	0.506390688	0.006716991	0.069297958	0.021358304
2020-05-04T16:45:00	0.1899	10.065	182.0	0.433124473	0.504212812	0.006674945	0.068864173	0.021224607
2020-05-04T16:50:00	0.1892	10.041	181.0	0.431296050	0.501112981	0.006615225	0.068248056	0.021034714
2020-05-04T16:55:00	0.1892	10.018	181.0	0.431105161	0.500789894	0.006609009	0.068183928	0.021014949
2020-05-04T17:00:00	0.1887	9.996	181.0	0.429821265	0.498619474	0.006567294	0.067753564	0.020882307
2020-05-04T17:05:00	0.1887	9.973	181.0	0.429903552	0.498758443	0.006569963	0.067781097	0.020890792
2020-05-04T17:10:00	0.1892	9.950	181.0	0.431078712	0.500745135	0.006608148	0.068175045	0.021012211
2020-05-04T17:15:00	0.1891	9.928	181.0	0.430887798	0.500422120	0.006601935	0.068110951	0.020992456
2020-05-04T17:20:00	0.1896	9.906	181.0	0.432335202	0.502873573	0.006649125	0.068597801	0.021142508
2020-05-04T17:25:00	0.1896	9.886	181.0	0.432144433	0.502550137	0.006642894	0.068533512	0.021122694
2020-05-04T17:30:00	0.1901	9.868	181.0	0.433590739	0.505004790	0.006690226	0.069021831	0.021273199
2020-05-04T17:35:00	0.1903	9.849	181.0	0.434218151	0.506071440	0.006710823	0.069234324	0.021338691
2020-05-04T17:40:00	0.1904	9.830	181.0	0.434572795	0.506674849	0.006722482	0.069354612	0.021375765
2020-05-04T17:45:00	0.1910	9.809	181.0	0.436016989	0.509135692	0.006770090	0.069845773	0.021527146
2020-05-04T17:50:00	0.1911	9.788	180.0	0.436371251	0.509740228	0.006781800	0.069966579	0.021564379
2020-05-04T17:55:00	0.1913	9.766	180.0	0.436997616	0.510809958	0.006802534	0.070180487	0.021630308
2020-05-04T18:00:00	0.1922	9.746	180.0	0.439255284	0.514674782	0.006877589	0.070954814	0.021868963
2020-05-04T18:05:00	0.1921	9.726	179.0	0.439065306	0.514349016	0.006871253	0.070889455	0.021848819
2020-05-04T18:10:00	0.1914	9.708	180.0	0.437243400	0.511230015	0.006810680	0.070264533	0.021656211
2020-05-04T18:15:00	0.1916	9.692	179.0	0.437597401	0.511835319	0.006822424	0.070385692	0.021693554
2020-05-04T18:20:00	0.1909	9.677	179.0	0.435773894	0.508721061	0.006762062	0.069762950	0.021501619
2020-05-04T18:25:00	0.1911	9.660	179.0	0.436400484	0.509790129	0.006782767	0.069976554	0.021567453
2020-05-04T18:30:00	0.1909	9.642	180.0	0.435937874	0.509000732	0.006767477	0.069818812	0.021518836
2020-05-04T18:35:00	0.1917	9.622	178.0	0.437924987	0.512395768	0.006833303	0.070497924	0.021728145
2020-05-04T18:40:00	0.1914	9.605	178.0	0.437190695	0.511139926	0.006808933	0.070246506	0.021650655
2020-05-04T18:45:00	0.1918	9.588	178.0	0.438360713	0.513141693	0.006847789	0.070647375	0.021774207
2020-05-04T18:50:00	0.1914	9.570	178.0	0.437082415	0.510954864	0.006805344	0.070209477	0.021639243
2020-05-04T18:55:00	0.1922	9.553	178.0	0.439339968	0.514820028	0.006880414	0.070983960	0.021877946
2020-05-04T19:00:00	0.1915	9.537	179.0	0.437518361	0.511700138	0.006819801	0.070358629	0.021685213
2020-05-04T19:05:00	0.1923	9.521	178.0	0.439503599	0.515100734	0.006885874	0.071040297	0.021895310
2020-05-04T19:10:00	0.1921	9.506	178.0	0.439041846	0.514308795	0.006870471	0.070881387	0.021846332
2020-05-04T19:15:00	0.1922	9.490	179.0	0.439395468	0.514915228	0.006882266	0.071003065	0.021883834
2020-05-04T19:20:00	0.1923	9.475	178.0	0.439749015	0.515521883	0.006894070	0.071124845	0.021921368
2020-05-04T19:25:00	0.1924	9.461	178.0	0.439830813	0.515662290	0.006896802	0.071153039	0.021930058
2020-05-04T19:30:00	0.1927	9.445	179.0	0.440727461	0.517202631	0.006926802	0.071462539	0.022025449
2020-05-04T19:35:00	0.1917	9.432	179.0	0.438091621	0.512680967	0.006838840	0.070555056	0.021745753
2020-05-04T19:40:00	0.1915	9.419	178.0	0.437357402	0.511424909	0.006814461	0.070303537	0.021668233
2020-05-04T19:45:00	0.1911	9.405	178.0	0.436350621	0.509705014	0.006781118	0.069959541	0.021562210
2020-05-04T19:50:00	0.1913	9.393	178.0	0.436976994	0.510774721	0.006801851	0.070173438	0.021628135
2020-05-04T19:55:00	0.1916	9.380	178.0	0.437603133	0.511845122	0.006822614	0.070387655	0.021694159
2020-05-04T20:00:00	0.1937	9.368	178.0	0.444051029	0.521783860	0.007023246	0.072457533	0.022332115
2020-05-04T20:05:00	0.1931	9.357	178.0	0.442060591	0.519120885	0.006966506	0.071872157	0.022151697
2020-05-04T20:10:00	0.1932	9.344	179.0	0.442515107	0.519728700	0.006979443	0.072005623	0.022192832
2020-05-04T20:15:00	0.1936	9.331	178.0	0.443668034	0.521271215	0.007012311	0.072344716	0.022297344
2020-05-04T20:20:00	0.1941	9.318	178.0	0.445518652	0.523749362	0.007065226	0.072890637	0.022465602
2020-05-04T20:25:00	0.1949	9.306	178.0	0.448414528	0.527632610	0.007148420	0.073748930	0.022730136
2020-05-04T20:30:00	0.1956	9.294	178.0	0.450611021	0.530582417	0.007211839	0.074403216	0.022931794
2020-05-04T20:35:00	0.1957	9.283	178.0	0.451064378	0.531191731	0.007224963	0.074538613	0.022973524
2020-05-04T20:40:00	0.1961	9.270	178.0	0.452562659	0.533206583	0.007268419	0.074986939	0.023111703
2020-05-04T20:45:00	0.1956	9.261	178.0	0.450577274	0.530537068	0.007210863	0.074393142	0.022928689
2020-05-04T20:50:00	0.1954	9.249	178.0	0.449985172	0.529741538	0.007193741	0.074216501	0.022874246
2020-05-04T20:55:00	0.1952	9.238	178.0	0.449392965	0.528946144	0.007176636	0.074040035	0.022819858
2020-05-04T21:00:00	0.1951	9.228	177.0	0.448800653	0.528150886	0.007159549	0.073863743	0.022765523
2020-05-04T21:05:00	0.1942	9.216	178.0	0.445766257	0.524081132	0.007072321	0.072963831	0.022488161
2020-05-04T21:10:00	0.1939	9.206	178.0	0.444824242	0.522819168	0.007045348	0.072685555	0.022402394
2020-05-04T21:15:00	0.1943	9.195	178.0	0.446325316	0.524830401	0.007088352	0.073129226	0.022539138
2020-05-04T21:20:00	0.1948	9.185	178.0	0.447825717	0.526842505	0.007131466	0.073574018	0.022676227
2020-05-04T21:25:00	0.1947	9.175	177.0	0.447581939	0.526515467	0.007124452	0.073501660	0.022653925
2020-05-04T21:30:00	0.1942	9.164	177.0	0.445942581	0.524317421	0.007077375	0.073015976	0.022504233
2020-05-04T21:35:00	0.1937	9.154	178.0	0.443953268	0.521652994	0.007020454	0.072428727	0.022323237
2020-05-04T21:40:00	0.1940	9.144	177.0	0.445105700	0.523196148	0.007053402	0.072768645	0.022428003
2020-05-04T21:45:00	0.1941	9.134	178.0	0.445559802	0.523804497	0.007066405	0.072902799	0.022469351
2020-05-04T21:50:00	0.1945	9.124	177.0	0.446711682	0.525348366	0.007099442	0.073243637	0.022574400
2020-05-04T21:55:00	0.1952	9.115	178.0	0.449257927	0.528764814	0.007172739	0.073999825	0.022807465
2020-05-04T22:00:00	0.1950	9.107	177.0	0.448665591	0.527969586	0.007155655	0.073823573	0.022753142
2020-05-04T22:05:00	0.1952	9.097	177.0	0.449464706	0.529042486	0.007178707	0.074061401	0.022826443
2020-05-04T22:10:00	0.1953	9.085	178.0	0.449566532	0.529179234	0.007181647	0.074091733	0.022835792
2020-05-04T22:15:00	0.1957	9.073	177.0	0.451062365	0.531189026	0.007224905	0.074538011	0.022973339
2020-05-04T22:20:00	0.1960	9.062	177.0	0.452209238	0.532731152	0.007258157	0.074881067	0.023079072
2020-05-04T22:25:00	0.1957	9.050	177.0	0.450917488	0.530994294	0.007220710	0.074494730	0.022959999
2020-05-04T22:30:00	0.1955	9.038	177.0	0.450322328	0.530194496	0.007203488	0.074317059	0.022905239
2020-05-04T22:35:00	0.1958	9.025	177.0	0.451469454	0.531736293	0.007236699	0.074659693	0.023010842
2020-05-04T22:40:00	0.1962	9.008	177.0	0.452964439	0.533747187	0.007280094	0.075107387	0.023148826
2020-05-04T22:45:00	0.1965	8.990	177.0	0.453762530	0.534821416	0.007303312	0.075346923	0.023222653
2020-05-04T22:50:00	0.1969	8.972	177.0	0.455256494	0.536833639	0.007346872	0.075796322	0.023361163
2020-05-04T22:55:00	0.1972	8.956	177.0	0.456401936	0.538377630	0.007380356	0.076141770	0.023467633
2020-05-04T23:00:00	0.1980	8.941	177.0	0.458937730	0.541799425	0.007454749	0.076909271	0.023704184
2020-05-04T23:05:00	0.1979	8.926	177.0	0.458691647	0.541467139	0.007447514	0.076834624	0.023681177
2020-05-04T23:10:00	0.1976	8.912	177.0	0.457750144	0.540196267	0.007419863	0.076549358	0.023593255
2020-05-04T23:15:00	0.1976	8.896	177.0	0.457503974	0.539864094	0.007412642	0.076474856	0.023570293
2020-05-04T23:20:00	0.1976	8.883	176.0	0.457605556	0.540001159	0.007415621	0.076505595	0.023579767
2020-05-04T23:25:00	0.1973	8.869	177.0	0.456663749	0.538730685	0.007388020	0.076220837	0.023492002
2020-05-04T23:30:00	0.1973	8.854	176.0	0.456765356	0.538867716	0.007390995	0.076251534	0.023501463
2020-05-04T23:35:00	0.1975	8.840	176.0	0.457214770	0.539473914	0.007404162	0.076387377	0.023543331
2020-05-04T23:40:00	0.1969	8.826	176.0	0.455229022	0.536796621	0.007346070	0.075788047	0.023358612
2020-05-04T23:45:00	0.1965	8.809	176.0	0.453938434	0.535058250	0.007308434	0.075399769	0.023238941
2020-05-04T23:50:00	0.1973	8.793	176.0	0.456476088	0.538477619	0.007382526	0.076164160	0.023474534
2020-05-04T23:55:00	0.1972	8.780	176.0	0.456229825	0.538145568	0.007375320	0.076089815	0.023451620
2020-05-05T00:00:00	0.1971	8.765	176.0	0.455983544	0.537813541	0.007368117	0.076015500	0.023428715
2020-05-05T00:05:00	0.1974	8.749	176.0	0.457128737	0.539357854	0.007401641	0.076361362	0.023535314
2020-05-05T00:10:00	0.1972	8.732	176.0	0.456186796	0.538087555	0.007374061	0.076076829	0.023447617
2020-05-05T00:15:00	0.1975	8.718	176.0	0.457331920	0.539631959	0.007407596	0.076422807	0.023554251
2020-05-05T00:20:00	0.1986	8.706	176.0	0.461256799	0.544933223	0.007523105	0.077614486	0.023921538
2020-05-05T00:25:00	0.1983	8.695	176.0	0.459968524	0.543191830	0.007485094	0.077222339	0.023800675
2020-05-05T00:30:00	0.1980	8.683	176.0	0.459027379	0.541920490	0.007457386	0.076936474	0.023712568
2020-05-05T00:35:00	0.1978	8.670	176.0	0.458433654	0.541118821	0.007439932	0.076756403	0.023657069
2020-05-05T00:40:00	0.1971	8.653	176.0	0.456100736	0.537971530	0.007371544	0.076050858	0.023439613
2020-05-05T00:45:00	0.1966	8.637	176.0	0.454114329	0.535295096	0.007313558	0.075452630	0.023255233
2020-05-05T00:50:00	0.1959	8.622	176.0	0.451778408	0.532151720	0.007245657	0.074752105	0.023039325
2020-05-05T00:55:00	0.1953	8.605	176.0	0.449789439	0.529478619	0.007188086	0.074158154	0.022856263
2020-05-05T01:00:00	0.1945	8.588	176.0	0.446752817	0.525403519	0.007100624	0.073255824	0.022578156
2020-05-05T01:05:00	0.1944	8.569	176.0	0.446505839	0.525072397	0.007093533	0.073182672	0.022555610
2020-05-05T01:10:00	0.1935	8.549	175.0	0.443466236	0.521001152	0.007006552	0.072285308	0.022279034
2020-05-05T01:15:00	0.1925	8.528	175.0	0.440027719	0.516000360	0.006903384	0.071220936	0.021950984
2020-05-05T01:20:00	0.1925	8.506	175.0	0.440107072	0.516136633	0.006906037	0.071248309	0.021959421
2020-05-05T01:25:00	0.1923	8.482	174.0	0.439643054	0.515340027	0.006890531	0.071088333	0.021910115
2020-05-05T01:30:00	0.1928	8.456	175.0	0.441080452	0.517809647	0.006938634	0.071584609	0.022063072
2020-05-05T01:35:00	0.1930	8.430	175.0	0.441531174	0.518413111	0.006951452	0.071716850	0.022103830
2020-05-05T01:40:00	0.1932	8.402	174.0	0.442331994	0.519483807	0.006974229	0.071951839	0.022176255
2020-05-05T01:45:00	0.1921	8.376	175.0	0.439145290	0.514486156	0.006873920	0.070916968	0.021857298
2020-05-05T01:50:00	0.1927	8.350	175.0	0.440583113	0.516954505	0.006921967	0.071412658	0.022010075
2020-05-05T01:55:00	0.1934	8.324	175.0	0.442987402	0.520360463	0.006992898	0.072144438	0.022235616
2020-05-05T02:00:00	0.1922	8.297	174.0	0.439383463	0.514894635	0.006881865	0.070998932	0.021882560
2020-05-05T02:05:00	0.1920	8.270	174.0	0.438919245	0.514098625	0.006866385	0.070839231	0.021833339
2020-05-05T02:10:00	0.1918	8.243	174.0	0.438182956	0.512837323	0.006841877	0.070586382	0.021755409
2020-05-05T02:15:00	0.1925	8.216	174.0	0.440164977	0.516236084	0.006907973	0.071268288	0.021965578
2020-05-05T02:20:00	0.1916	8.189	174.0	0.437797867	0.512178250	0.006829080	0.070454360	0.021714718
2020-05-05T02:25:00	0.1918	8.164	174.0	0.438149318	0.512779736	0.006840758	0.070574844	0.021751852
2020-05-05T02:30:00	0.1924	8.138	174.0	0.439859708	0.515711894	0.006897768	0.071163000	0.021933128
2020-05-05T02:35:00	0.1915	8.112	174.0	0.437492167	0.511655344	0.006818932	0.070349662	0.021682449
2020-05-05T02:40:00	0.1919	8.083	174.0	0.438659542	0.513653567	0.006857735	0.070749983	0.021805832
2020-05-05T02:45:00	0.1926	8.056	174.0	0.440369413	0.516587274	0.006914813	0.071338851	0.021987327
2020-05-05T02:50:00	0.1938	8.030	173.0	0.444458615	0.522329547	0.007034892	0.072577687	0.022369148
2020-05-05T02:55:00	0.1951	8.002	173.0	0.449095914	0.528547279	0.007168064	0.073951597	0.022792600
2020-05-05T03:00:00	0.1947	7.974	173.0	0.447454176	0.526344087	0.007120778	0.073463752	0.022642242
2020-05-05T03:05:00	0.1948	7.945	173.0	0.447904839	0.526948661	0.007133743	0.073597510	0.022683467
2020-05-05T03:10:00	0.1958	7.917	173.0	0.451492380	0.531767118	0.007237364	0.074666548	0.023012955
2020-05-05T03:15:00	0.1964	7.890	173.0	0.453335567	0.534246662	0.007290886	0.075218729	0.023183143
2020-05-05T03:20:00	0.1969	7.866	173.0	0.455177742	0.536727524	0.007344572	0.075772600	0.023353851
2020-05-05T03:25:00	0.1969	7.843	173.0	0.455279394	0.536864497	0.007347541	0.075803221	0.023363289
2020-05-05T03:30:00	0.1982	7.817	173.0	0.459901770	0.543101631	0.007483127	0.077202045	0.023794420
2020-05-05T03:35:00	0.1980	7.792	173.0	0.458960605	0.541830316	0.007455422	0.076916212	0.023706323
2020-05-05T03:40:00	0.1983	7.767	172.0	0.460104785	0.543375955	0.007489110	0.077263770	0.023813444
2020-05-05T03:45:00	0.1982	7.743	172.0	0.459858788	0.543043556	0.007481861	0.077188980	0.023790393
2020-05-05T03:50:00	0.1987	7.720	172.0	0.461350045	0.545059316	0.007525860	0.077642908	0.023930298
2020-05-05T03:55:00	0.1999	7.700	172.0	0.465617186	0.550837017	0.007652460	0.078949024	0.024332856
2020-05-05T04:00:00	0.1985	7.679	172.0	0.460858214	0.544394304	0.007511334	0.077493053	0.023884112
2020-05-05T04:05:00	0.1993	7.657	172.0	0.463587246	0.548086683	0.007592105	0.078326349	0.024140941
2020-05-05T04:10:00	0.1990	7.636	173.0	0.462496520	0.546610224	0.007559772	0.077992775	0.024038131
2020-05-05T04:15:00	0.1999	7.618	172.0	0.465571173	0.550774638	0.007651090	0.078934882	0.024328497
2020-05-05T04:20:00	0.2005	7.600	172.0	0.467603021	0.553530755	0.007711732	0.079560519	0.024521325
2020-05-05T04:25:00	0.2006	7.580	172.0	0.468247313	0.554405393	0.007731011	0.079759414	0.024582626
2020-05-05T04:30:00	0.2015	7.564	172.0	0.471316729	0.558576711	0.007823181	0.080710315	0.024875703
2020-05-05T04:35:00	0.2017	7.550	172.0	0.471960313	0.559452286	0.007842575	0.080910401	0.024937371
2020-05-05T04:40:00	0.2019	7.537	172.0	0.472603773	0.560328023	0.007861989	0.081110693	0.024999103
2020-05-05T04:45:00	0.2036	7.525	171.0	0.478435254	0.568279577	0.008039014	0.082937029	0.025561998
2020-05-05T04:50:00	0.2038	7.516	172.0	0.479077484	0.569156949	0.008058630	0.083139395	0.025624369
2020-05-05T04:55:00	0.2046	7.503	172.0	0.481791839	0.572868757	0.008141793	0.083997380	0.025888808
2020-05-05T05:00:00	0.2054	7.489	171.0	0.484848997	0.577056380	0.008235966	0.084968945	0.026188254
2020-05-05T05:05:00	0.2060	7.476	172.0	0.486869304	0.579827847	0.008298494	0.085614037	0.026387078
2020-05-05T05:10:00	0.2070	7.467	171.0	0.490266320	0.584495252	0.008404160	0.086704174	0.026723069
2020-05-05T05:15:00	0.2071	7.465	172.0	0.490561954	0.584901882	0.008413388	0.086799370	0.026752409
2020-05-05T05:20:00	0.2062	7.463	172.0	0.487412336	0.580573338	0.008315341	0.085787842	0.026440646
2020-05-05T05:25:00	0.2076	7.463	171.0	0.492185943	0.587136847	0.008464165	0.087323229	0.026913867
2020-05-05T05:30:00	0.2071	7.464	171.0	0.490415681	0.584700682	0.008408822	0.086752263	0.026737890
2020-05-05T05:35:00	0.2072	7.469	171.0	0.491055647	0.585581089	0.008428808	0.086958458	0.026801441
2020-05-05T05:40:00	0.2075	7.476	167.0	0.492039739	0.586935552	0.008459587	0.087276003	0.026899312
2020-05-05T05:45:00	0.2072	7.484	171.0	0.490958147	0.585446936	0.008425761	0.086927028	0.026791754
2020-05-05T05:50:00	0.2077	7.489	172.0	0.492630674	0.587749263	0.008478097	0.087466961	0.026958167
2020-05-05T05:55:00	0.2084	7.490	167.0	0.494990309	0.591001247	0.008552206	0.088231536	0.027193816
2020-05-05T06:00:00	0.2091	7.489	173.0	0.497348310	0.594255443	0.008626585	0.088998888	0.027430321
2020-05-05T06:05:00	0.2097	7.488	172.0	0.499361208	0.597036909	0.008690332	0.089656551	0.027633020
2020-05-05T06:10:00	0.2095	7.490	172.0	0.498969066	0.596494783	0.008677895	0.089528239	0.027593473
2020-05-05T06:15:00	0.2092	7.499	174.0	0.497889672	0.595003190	0.008643707	0.089175527	0.027484763
2020-05-05T06:20:00	0.2087	7.505	171.0	0.496122375	0.592563016	0.008587875	0.088599526	0.027307234
2020-05-05T06:25:00	0.2086	7.508	184.0	0.495729859	0.592021395	0.008575500	0.088471848	0.027267883
2020-05-05T06:30:00	0.2080	7.514	172.0	0.493617389	0.589108584	0.008509048	0.087786277	0.027056583
2020-05-05T06:35:00	0.2086	7.528	172.0	0.495632493	0.591887061	0.008572431	0.088440191	0.027258126
2020-05-05T06:40:00	0.2085	7.542	172.0	0.495239921	0.591345517	0.008560065	0.088312610	0.027218804
2020-05-05T06:45:00	0.2082	7.554	177.0	0.494503342	0.590329757	0.008536886	0.088073477	0.027145101
2020-05-05T06:50:00	0.2085	7.589	172.0	0.495486437	0.591685567	0.008567829	0.088392714	0.027243493
2020-05-05T06:55:00	0.2091	7.622	172.0	0.497500436	0.594465540	0.008631395	0.089048507	0.027445615
2020-05-05T07:00:00	0.2093	7.656	172.0	0.498139072	0.595347747	0.008651600	0.089256961	0.027509862
2020-05-05T07:05:00	0.2101	7.681	172.0	0.500838254	0.599079994	0.008737257	0.090140672	0.027782230
2020-05-05T07:10:00	0.2110	7.697	173.0	0.503878355	0.603290658	0.008834237	0.091141194	0.028090601
2020-05-05T07:15:00	0.2111	7.717	172.0	0.504172811	0.603698886	0.008843658	0.091238394	0.028120559
2020-05-05T07:20:00	0.2106	7.745	174.0	0.502751932	0.601729647	0.008798242	0.090769837	0.027976145
2020-05-05T07:25:00	0.2105	7.773	173.0	0.502360179	0.601186991	0.008785740	0.090640861	0.027936394
2020-05-05T07:30:00	0.2114	7.792	173.0	0.505398926	0.605399502	0.008882944	0.091643693	0.028245476
2020-05-05T07:35:00	0.2118	7.809	173.0	0.506721654	0.607235479	0.008925422	0.092081933	0.028380546
2020-05-05T07:40:00	0.2121	7.836	174.0	0.507701237	0.608596071	0.008956946	0.092407156	0.028480783
2020-05-05T07:45:00	0.2118	7.861	176.0	0.506624601	0.607100718	0.008922302	0.092049742	0.028370624
2020-05-05T07:50:00	0.2122	7.863	174.0	0.507946855	0.608937344	0.008964858	0.092488791	0.028505944
2020-05-05T07:55:00	0.2122	7.861	173.0	0.508240961	0.609346051	0.008974338	0.092586590	0.028536086
2020-05-05T08:00:00	0.2120	7.856	174.0	0.507507182	0.608326477	0.008950696	0.092342684	0.028460912
2020-05-05T08:05:00	0.2123	7.859	174.0	0.508486540	0.609687378	0.008982257	0.092668292	0.028561267
2020-05-05T08:10:00	0.2132	7.869	174.0	0.511519851	0.613907330	0.009080361	0.093680412	0.028873213
2020-05-05T08:15:00	0.2126	7.866	173.0	0.509417130	0.610981228	0.009012298	0.092978216	0.028656789
2020-05-05T08:20:00	0.2130	7.878	174.0	0.510738306	0.612819332	0.009055033	0.093419110	0.028792677
2020-05-05T08:25:00	0.2127	7.880	174.0	0.509662625	0.611322670	0.009020231	0.093060062	0.028682015
2020-05-05T08:30:00	0.2120	7.900	175.0	0.507216080	0.607922116	0.008941326	0.092246011	0.028431117
2020-05-05T08:35:00	0.2128	7.946	174.0	0.510250516	0.612140524	0.009039243	0.093256206	0.028742469
2020-05-05T08:40:00	0.2129	7.943	175.0	0.510544424	0.612549503	0.009048756	0.093354343	0.028772715
2020-05-05T08:45:00	0.2122	7.946	179.0	0.508098510	0.609148084	0.008969746	0.092539214	0.028521485
2020-05-05T08:50:00	0.2109	7.968	175.0	0.503593083	0.602895228	0.008825114	0.091047075	0.028061593
2020-05-05T08:55:00	0.2119	7.987	175.0	0.506973476	0.607585173	0.008933520	0.092165483	0.028406297
2020-05-05T09:00:00	0.2131	8.013	175.0	0.511035235	0.613232632	0.009064652	0.093518342	0.028823261
2020-05-05T09:05:00	0.2125	8.039	175.0	0.508932217	0.610306939	0.008996638	0.092816656	0.028606995
2020-05-05T09:10:00	0.2118	8.102	176.0	0.506827905	0.607383019	0.008928838	0.092117181	0.028391410
2020-05-05T09:15:00	0.2117	8.104	175.0	0.506436619	0.606839725	0.008916260	0.091987408	0.028351413
2020-05-05T09:20:00	0.2113	8.131	175.0	0.505016681	0.604869200	0.008870687	0.091517244	0.028206503
2020-05-05T09:25:00	0.2107	8.216	178.0	0.502909957	0.601948579	0.008803287	0.090821889	0.027992188
2020-05-05T09:30:00	0.2103	8.231	176.0	0.501488552	0.599980057	0.008757957	0.090354227	0.027848050
2020-05-05T09:35:00	0.2104	8.276	175.0	0.501783214	0.600388005	0.008767344	0.090451076	0.027877900
2020-05-05T09:40:00	0.2097	8.302	176.0	0.499331018	0.596995168	0.008689374	0.089646669	0.027629974
2020-05-05T09:45:00	0.2094	8.336	176.0	0.498595323	0.595978209	0.008666049	0.089406033	0.027555808
2020-05-05T09:50:00	0.2093	8.345	177.0	0.498203092	0.595436202	0.008653627	0.089277871	0.027516307
2020-05-05T09:55:00	0.2093	8.374	177.0	0.498154445	0.595368987	0.008652087	0.089261982	0.027511410
2020-05-05T10:00:00	0.2097	8.376	177.0	0.499479982	0.597201135	0.008694101	0.089695433	0.027645003
2020-05-05T10:05:00	0.2091	8.380	176.0	0.497275592	0.594155022	0.008624287	0.088975174	0.027423013
2020-05-05T10:10:00	0.2096	8.364	177.0	0.499194342	0.596806206	0.008685038	0.089601940	0.027616188
2020-05-05T10:15:00	0.2098	8.354	176.0	0.499738485	0.597558600	0.008702306	0.089780085	0.027671094
2020-05-05T10:20:00	0.2092	8.350	178.0	0.497877918	0.594986952	0.008643335	0.089171690	0.027483581
2020-05-05T10:25:00	0.2078	8.368	176.0	0.492920490	0.588148439	0.008487182	0.087560690	0.026987055
2020-05-05T10:30:00	0.2073	8.428	176.0	0.491400504	0.586055647	0.008439588	0.087069670	0.026835718
2020-05-05T10:35:00	0.2065	8.421	179.0	0.488501770	0.582069658	0.008349190	0.086137058	0.026548278
2020-05-05T10:40:00	0.2097	8.400	177.0	0.499367900	0.597046161	0.008690544	0.089658741	0.027633695
2020-05-05T10:45:00	0.2129	8.391	176.0	0.510541903	0.612545995	0.009048674	0.093353502	0.028772456
2020-05-05T10:50:00	0.2131	8.358	176.0	0.511084243	0.613300854	0.009066240	0.093534725	0.028828311
2020-05-05T10:55:00	0.2146	8.346	176.0	0.516414773	0.620732843	0.009239798	0.095325291	0.029380181
2020-05-05T11:00:00	0.2125	8.345	176.0	0.509087435	0.610522755	0.009001649	0.092868355	0.028622929
2020-05-05T11:05:00	0.2129	8.332	176.0	0.510314853	0.612230044	0.009041325	0.093277684	0.028749088
2020-05-05T11:10:00	0.2120	8.325	177.0	0.507432158	0.608222257	0.008948281	0.092317764	0.028453232
2020-05-05T11:15:00	0.2108	8.321	176.0	0.503174884	0.602315660	0.008811749	0.090909186	0.028019094
2020-05-05T11:20:00	0.2092	8.340	176.0	0.497881538	0.594991952	0.008643449	0.089172871	0.027483945
2020-05-05T11:25:00	0.2087	8.354	176.0	0.496019957	0.592421680	0.008584645	0.088566202	0.027296964
2020-05-05T11:30:00	0.2074	8.382	176.0	0.491748406	0.586534492	0.008450469	0.087181936	0.026870319
2020-05-05T11:35:00	0.2079	8.387	177.0	0.493326190	0.588707341	0.008499908	0.087691980	0.027027520
2020-05-05T11:40:00	0.2073	8.377	176.0	0.491117812	0.585666627	0.008430751	0.086978500	0.026807618
2020-05-05T11:45:00	0.2076	8.383	177.0	0.492351710	0.587365098	0.008469356	0.087376789	0.026930375
2020-05-05T11:50:00	0.2076	8.404	179.0	0.492208594	0.587168035	0.008464874	0.087330547	0.026916123
2020-05-05T11:55:00	0.2079	8.426	177.0	0.493442096	0.588867039	0.008503545	0.087729507	0.027039086
2020-05-05T12:00:00	0.2090	8.445	176.0	0.497082034	0.593887742	0.008618170	0.088912069	0.027403563
2020-05-05T12:05:00	0.2101	8.452	176.0	0.500718089	0.598913712	0.008733435	0.090101238	0.027770076
2020-05-05T12:10:00	0.2117	8.454	176.0	0.506407579	0.606799407	0.008915327	0.091977780	0.028348445
2020-05-05T12:15:00	0.2094	8.439	176.0	0.498371642	0.595669098	0.008658964	0.089332934	0.027533278
2020-05-05T12:20:00	0.2081	8.437	179.0	0.494103041	0.589777916	0.008524302	0.087943653	0.027105088
2020-05-05T12:25:00	0.2056	8.429	176.0	0.485348249	0.577740953	0.008251396	0.085128133	0.026237317
2020-05-05T12:30:00	0.2062	8.425	176.0	0.487618430	0.580856332	0.008321739	0.085853851	0.026460991
2020-05-05T12:35:00	0.2059	8.424	176.0	0.486440884	0.579239866	0.008285215	0.085477039	0.026344854
2020-05-05T12:40:00	0.2068	8.427	177.0	0.489399396	0.583303246	0.008377131	0.086425319	0.026637123
2020-05-05T12:45:00	0.2047	8.430	176.0	0.482358949	0.573645007	0.008159222	0.084177190	0.025944227
2020-05-05T12:50:00	0.2041	8.429	176.0	0.480143424	0.570613892	0.008091238	0.083475810	0.025728055
2020-05-05T12:55:00	0.2024	8.450	176.0	0.474468051	0.562867127	0.007918371	0.081692373	0.025178383
2020-05-05T13:00:00	0.2015	8.474	177.0	0.471208460	0.558429446	0.007819920	0.080676678	0.024865336
2020-05-05T13:05:00	0.2027	8.475	177.0	0.475218278	0.563889700	0.007941116	0.081927034	0.025250707
2020-05-05T13:10:00	0.2031	8.459	176.0	0.476803768	0.566052224	0.007989291	0.082424047	0.025403892
2020-05-05T13:15:00	0.2033	8.464	178.0	0.477351508	0.566799779	0.008005968	0.082596095	0.025456919
2020-05-05T13:20:00	0.2034	8.500	177.0	0.477899160	0.567547452	0.008022659	0.082768294	0.025509992
2020-05-05T13:25:00	0.2033	8.510	176.0	0.477409735	0.566879261	0.008007742	0.082614395	0.025462559
2020-05-05T13:30:00	0.2032	8.512	177.0	0.477265987	0.566683044	0.008003363	0.082569221	0.025448636
2020-05-05T13:35:00	0.2032	8.504	177.0	0.477122233	0.566486836	0.007998985	0.082524057	0.025434716
2020-05-05T13:40:00	0.2017	8.486	176.0	0.471788093	0.559217954	0.007837383	0.080856835	0.024920862
2020-05-05T13:45:00	0.2011	8.463	177.0	0.469912132	0.556666943	0.007780936	0.080274483	0.024741375
2020-05-05T13:50:00	0.2005	8.458	176.0	0.467688434	0.553646685	0.007714287	0.079586872	0.024529447
2020-05-05T13:55:00	0.2003	8.491	176.0	0.467197527	0.552980457	0.007699611	0.079435467	0.024482782
2020-05-05T14:00:00	0.2017	8.546	177.0	0.471904737	0.559376664	0.007840899	0.080893113	0.024932043
2020-05-05T14:05:00	0.1997	8.596	177.0	0.464827760	0.549767047	0.007628961	0.078706582	0.024258133
2020-05-05T14:10:00	0.1994	8.638	177.0	0.463989361	0.548631243	0.007604042	0.078449503	0.024178899
2020-05-05T14:15:00	0.2017	8.678	177.0	0.471819078	0.559260113	0.007838317	0.080866471	0.024923832
2020-05-05T14:20:00	0.1985	8.706	180.0	0.460922589	0.544481336	0.007513235	0.077512659	0.023890154
2020-05-05T14:25:00	0.1971	8.742	178.0	0.455910680	0.537715318	0.007365986	0.075993521	0.023421941
2020-05-05T14:30:00	0.1974	8.761	178.0	0.456809678	0.538927493	0.007392293	0.076264925	0.023505591
2020-05-05T14:35:00	0.1976	8.740	178.0	0.457708435	0.540139982	0.007418639	0.076536732	0.023589364
2020-05-05T14:40:00	0.1975	8.698	178.0	0.457216070	0.539475667	0.007404200	0.076387770	0.023543453
2020-05-05T14:45:00	0.1962	8.666	177.0	0.452895178	0.533653986	0.007278081	0.075086616	0.023142424
2020-05-05T14:50:00	0.1960	8.645	177.0	0.452053798	0.532522081	0.007253646	0.074834526	0.023064728
2020-05-05T14:55:00	0.1953	8.643	177.0	0.449818259	0.529517330	0.007188918	0.074166743	0.022858911
2020-05-05T15:00:00	0.1952	8.652	177.0	0.449324736	0.528854524	0.007174667	0.074019717	0.022813596
2020-05-05T15:05:00	0.1947	8.664	177.0	0.447436200	0.526319976	0.007120261	0.073458419	0.022640598
2020-05-05T15:10:00	0.1941	8.684	178.0	0.445546600	0.523786807	0.007066027	0.072898897	0.022468148
2020-05-05T15:15:00	0.1948	8.699	178.0	0.447843730	0.526866672	0.007131984	0.073579365	0.022677875
2020-05-05T15:20:00	0.1941	8.716	178.0	0.445605379	0.523865564	0.007067711	0.072916270	0.022473503
2020-05-05T15:25:00	0.1933	8.735	178.0	0.442666994	0.519931852	0.006983768	0.072050251	0.022206587
2020-05-05T15:30:00	0.1928	8.750	178.0	0.440843533	0.517402195	0.006930691	0.071502665	0.022037816
2020-05-05T15:35:00	0.1925	8.753	178.0	0.440187437	0.516274661	0.006908725	0.071276038	0.021967967
2020-05-05T15:40:00	0.1928	8.752	177.0	0.440889265	0.517480832	0.006932224	0.071518478	0.022042689
2020-05-05T15:45:00	0.1926	8.754	177.0	0.440504797	0.516819909	0.006919345	0.071385605	0.022001737
2020-05-05T15:50:00	0.1922	8.765	177.0	0.439305092	0.514760207	0.006879250	0.070971955	0.021874246
2020-05-05T15:55:00	0.1923	8.779	178.0	0.439735597	0.515498853	0.006893621	0.071120221	0.021919943
2020-05-05T16:00:00	0.1929	8.760	178.0	0.441300750	0.518105127	0.006944905	0.071649304	0.022083011
2020-05-05T16:05:00	0.1919	8.747	178.0	0.438619631	0.513585189	0.006856406	0.070736274	0.021801607
2020-05-05T16:10:00	0.1920	8.732	178.0	0.438703917	0.513729600	0.006859212	0.070765228	0.021810530
2020-05-05T16:15:00	0.1923	8.714	177.0	0.439603598	0.515272318	0.006889213	0.071074740	0.021905925
2020-05-05T16:20:00	0.1927	8.697	178.0	0.440774365	0.517283268	0.006928373	0.071478752	0.022030446
2020-05-05T16:25:00	0.1918	8.684	181.0	0.438141032	0.512765550	0.006840483	0.070572002	0.021750976
2020-05-05T16:30:00	0.1918	8.672	178.0	0.438225341	0.512909890	0.006843286	0.070600923	0.021759890
2020-05-05T16:35:00	0.1909	8.655	177.0	0.435860358	0.508868519	0.006764917	0.069792402	0.021510696
2020-05-05T16:40:00	0.1906	8.633	177.0	0.434855111	0.507155444	0.006731773	0.069450459	0.021405306
2020-05-05T16:45:00	0.1899	8.609	177.0	0.433031037	0.504054180	0.006671885	0.068832607	0.021214878
2020-05-05T16:50:00	0.1910	8.586	177.0	0.436113619	0.509300553	0.006773283	0.069878712	0.021537298
2020-05-05T16:55:00	0.1899	8.562	177.0	0.433200169	0.504341345	0.006677424	0.068889753	0.021232491
2020-05-05T17:00:00	0.1903	8.533	178.0	0.434102822	0.505875289	0.006707034	0.069195234	0.021326643
2020-05-05T17:05:00	0.1902	8.518	177.0	0.433914697	0.505555407	0.006700856	0.069131500	0.021307000
2020-05-05T17:10:00	0.1901	8.513	177.0	0.433726550	0.505235586	0.006694681	0.069067794	0.021287365
2020-05-05T17:15:00	0.1899	8.510	177.0	0.432992846	0.503989346	0.006670634	0.068819706	0.021210902
2020-05-05T17:20:00	0.1906	8.512	177.0	0.434985912	0.507378186	0.006736080	0.069494894	0.021419001
2020-05-05T17:25:00	0.1906	8.498	177.0	0.435070380	0.507522055	0.006738862	0.069523599	0.021427848
2020-05-05T17:30:00	0.1917	8.482	177.0	0.437877203	0.512313997	0.006831715	0.070481546	0.021723097
2020-05-05T17:35:00	0.1923	8.460	177.0	0.439592733	0.515253675	0.006888850	0.071070998	0.021904772
2020-05-05T17:40:00	0.1956	8.435	177.0	0.450792260	0.530825985	0.007217084	0.074457329	0.022948472
2020-05-05T17:45:00	0.1988	8.399	177.0	0.461684803	0.545512057	0.007535754	0.077744985	0.023961760
2020-05-05T17:50:00	0.1992	8.372	176.0	0.463181465	0.547537288	0.007580068	0.078202168	0.024102668
2020-05-05T17:55:00	0.1989	8.350	176.0	0.462247432	0.546273179	0.007552398	0.077916696	0.024014682
2020-05-05T18:00:00	0.1982	8.323	176.0	0.459923378	0.543130829	0.007483764	0.077208614	0.023796445
2020-05-05T18:05:00	0.1983	8.295	176.0	0.460031106	0.543276392	0.007486939	0.077241366	0.023806539
2020-05-05T18:10:00	0.1975	8.278	176.0	0.457357760	0.539666821	0.007408354	0.076430623	0.023556660
2020-05-05T18:15:00	0.1975	8.263	177.0	0.457465570	0.539812277	0.007411515	0.076463237	0.023566712
2020-05-05T18:20:00	0.1986	8.250	176.0	0.461049131	0.544652424	0.007516971	0.077551206	0.023902035
2020-05-05T18:25:00	0.1993	8.233	176.0	0.463587639	0.548087215	0.007592117	0.078326469	0.024140978
2020-05-05T18:30:00	0.1995	8.214	176.0	0.464389424	0.549173151	0.007615928	0.078572123	0.024216691
2020-05-05T18:35:00	0.2000	8.192	176.0	0.465884884	0.551199960	0.007660437	0.079031320	0.024358220
2020-05-05T18:40:00	0.2001	8.168	175.0	0.466339290	0.551816171	0.007673987	0.079171111	0.024401305
2020-05-05T18:45:00	0.2001	8.143	176.0	0.466446812	0.551962004	0.007677195	0.079204207	0.024411506
2020-05-05T18:50:00	0.2003	8.117	176.0	0.466901142	0.552578315	0.007690757	0.079344125	0.024454630
2020-05-05T18:55:00	0.1997	8.093	180.0	0.464927313	0.549901952	0.007631922	0.078737136	0.024267550
2020-05-05T19:00:00	0.1998	8.070	175.0	0.465381847	0.550517992	0.007645451	0.078876710	0.024310568
2020-05-05T19:05:00	0.1990	8.044	175.0	0.462712750	0.546902849	0.007566177	0.078058849	0.024058495
2020-05-05T19:10:00	0.1986	8.016	175.0	0.461083875	0.544699400	0.007517997	0.077561791	0.023905297
2020-05-05T19:15:00	0.1986	7.988	174.0	0.461191565	0.544845012	0.007521178	0.077594605	0.023915411
2020-05-05T19:20:00	0.1984	7.960	170.0	0.460604440	0.544051248	0.007503845	0.077415788	0.023860298
2020-05-05T19:25:00	0.1978	7.931	174.0	0.458279250	0.540910386	0.007435396	0.076709608	0.023642646
2020-05-05T19:30:00	0.1982	7.902	174.0	0.459777427	0.542933631	0.007479464	0.077164252	0.023782772
2020-05-05T19:35:00	0.1974	7.872	174.0	0.457103880	0.539324323	0.007400912	0.076353847	0.023532997
2020-05-05T19:40:00	0.1976	7.843	174.0	0.457559472	0.539938977	0.007414269	0.076491649	0.023575469
2020-05-05T19:45:00	0.1982	7.812	174.0	0.459753101	0.542900765	0.007478748	0.077156860	0.023780494
2020-05-05T19:50:00	0.1979	7.785	174.0	0.458818117	0.541637905	0.007451232	0.076872983	0.023693000
2020-05-05T19:55:00	0.1978	7.755	174.0	0.458230577	0.540844683	0.007433966	0.076694859	0.023638100
2020-05-05T20:00:00	0.1984	7.725	174.0	0.460423768	0.543807044	0.007498516	0.077360802	0.023843351
2020-05-05T20:05:00	0.1980	7.696	172.0	0.459141395	0.542074470	0.007460740	0.076971077	0.023723234
2020-05-05T20:10:00	0.1980	7.667	173.0	0.458901548	0.541750565	0.007453685	0.076898293	0.023700801
2020-05-05T20:15:00	0.1981	7.638	173.0	0.459356896	0.542365537	0.007467081	0.077036503	0.023743398
2020-05-05T20:20:00	0.1982	7.606	173.0	0.459812184	0.542980590	0.007480488	0.077174815	0.023786028
2020-05-05T20:25:00	0.1976	7.578	173.0	0.457834192	0.540309689	0.007422329	0.076574802	0.023601098
2020-05-05T20:30:00	0.1982	7.547	173.0	0.459680123	0.542802170	0.007476598	0.077134684	0.023773659
2020-05-05T20:35:00	0.1988	7.516	173.0	0.461872370	0.545765768	0.007541301	0.077802209	0.023979396
2020-05-05T20:40:00	0.1995	7.485	173.0	0.464410257	0.549201374	0.007616547	0.078578511	0.024218660
2020-05-05T20:45:00	0.1988	7.454	173.0	0.461740390	0.545587243	0.007537398	0.077761942	0.023966986
2020-05-05T20:50:00	0.1989	7.422	172.0	0.462195355	0.546202718	0.007550856	0.077900794	0.024009781
2020-05-05T20:55:00	0.1989	7.392	172.0	0.462303009	0.546348377	0.007554043	0.077933668	0.024019913
2020-05-05T21:00:00	0.1993	7.361	172.0	0.463452266	0.547903917	0.007588100	0.078285030	0.024128207
2020-05-05T21:05:00	0.1990	7.332	172.0	0.462518309	0.546639709	0.007560417	0.077999432	0.024040183
2020-05-05T21:10:00	0.1986	7.300	172.0	0.461236733	0.544906089	0.007522512	0.077608370	0.023919654
2020-05-05T21:15:00	0.1994	7.271	172.0	0.463775100	0.548341066	0.007597681	0.078383870	0.024158670
2020-05-05T21:20:00	0.1994	7.243	172.0	0.463882704	0.548486791	0.007600875	0.078416828	0.024168828
2020-05-05T21:25:00	0.1999	7.222	172.0	0.465725321	0.550983618	0.007655682	0.078982262	0.024343100
2020-05-05T21:30:00	0.2000	7.202	172.0	0.466179748	0.551599801	0.007669228	0.079122017	0.024386174
2020-05-05T21:35:00	0.2001	7.181	172.0	0.466287276	0.551745627	0.007672436	0.079155104	0.024396372
2020-05-05T21:40:00	0.1996	7.160	172.0	0.464660128	0.549539907	0.007623975	0.078655148	0.024242281
2020-05-05T21:45:00	0.1996	7.137	172.0	0.464767704	0.549685669	0.007627175	0.078688154	0.024252453
2020-05-05T21:50:00	0.1999	7.115	171.0	0.465569208	0.550771974	0.007651031	0.078934279	0.024328311
2020-05-05T21:55:00	0.2003	7.099	171.0	0.467064145	0.552799473	0.007695626	0.079394354	0.024470111
2020-05-05T22:00:00	0.1990	7.078	171.0	0.462660680	0.546832379	0.007564634	0.078042935	0.024053591
2020-05-05T22:05:00	0.1999	7.056	171.0	0.465492701	0.550668260	0.007648752	0.078910769	0.024321065
2020-05-05T22:10:00	0.2002	7.033	171.0	0.466588664	0.552154413	0.007681428	0.079247879	0.024424966
2020-05-05T22:15:00	0.1998	7.010	170.0	0.465256410	0.550347969	0.007641716	0.078838180	0.024298693
2020-05-05T22:20:00	0.2004	6.987	170.0	0.467392838	0.553245498	0.007705448	0.079495688	0.024501343
2020-05-05T22:25:00	0.2002	6.962	170.0	0.466754590	0.552379494	0.007686381	0.079298978	0.024440715
2020-05-05T22:30:00	0.2003	6.937	170.0	0.467156681	0.552925031	0.007698390	0.079422875	0.024478902
2020-05-05T22:35:00	0.2010	6.914	170.0	0.469638435	0.556294992	0.007772717	0.080189693	0.024715242
2020-05-05T22:40:00	0.2005	6.892	170.0	0.467614017	0.553545679	0.007712061	0.079563911	0.024522370
2020-05-05T22:45:00	0.2008	6.871	170.0	0.468709291	0.555032740	0.007744849	0.079902179	0.024626628
2020-05-05T22:50:00	0.2015	6.852	170.0	0.471189904	0.558404208	0.007819362	0.080670914	0.024863559
2020-05-05T22:55:00	0.2009	6.834	170.0	0.469166418	0.555653665	0.007758554	0.080043568	0.024670205
2020-05-05T23:00:00	0.2009	6.813	170.0	0.469221685	0.555728747	0.007760211	0.080060671	0.024675476
2020-05-05T23:05:00	0.1998	6.793	170.0	0.465462758	0.550627669	0.007647861	0.078901568	0.024318230
2020-05-05T23:10:00	0.1994	6.771	169.0	0.463782963	0.548351714	0.007597914	0.078386278	0.024159412
2020-05-05T23:15:00	0.1998	6.752	173.0	0.465226465	0.550307381	0.007640825	0.078828983	0.024295858
2020-05-05T23:20:00	0.1993	6.732	169.0	0.463546552	0.548031581	0.007590898	0.078313891	0.024137102
2020-05-05T23:25:00	0.1994	6.713	170.0	0.463949026	0.548576614	0.007602845	0.078437145	0.024175090
2020-05-05T23:30:00	0.1996	6.692	169.0	0.464698489	0.549591884	0.007625116	0.078666917	0.024245908
2020-05-05T23:35:00	0.1996	6.673	169.0	0.464753830	0.549666870	0.007626762	0.078683896	0.024251141
2020-05-05T23:40:00	0.1996	6.656	170.0	0.464462143	0.549271667	0.007618089	0.078594422	0.024223564
2020-05-05T23:45:00	0.1994	6.639	169.0	0.463823339	0.548406394	0.007599113	0.078398644	0.024163224
2020-05-05T23:50:00	0.1990	6.625	164.0	0.462489991	0.546601389	0.007559579	0.077990781	0.024037516
2020-05-05T23:55:00	0.1989	6.613	196.0	0.462198108	0.546206444	0.007550938	0.077901635	0.024010041
2020-05-06T00:00:00	0.1990	6.602	164.0	0.462600743	0.546751265	0.007562859	0.078024619	0.024047945
2020-05-06T00:05:00	0.1986	6.592	168.0	0.461266911	0.544946896	0.007523404	0.077617568	0.023922488
2020-05-06T00:10:00	0.1987	6.582	168.0	0.461669657	0.545491571	0.007535306	0.077740365	0.023960336
2020-05-06T00:15:00	0.1987	6.574	169.0	0.461377703	0.545096719	0.007526677	0.077651339	0.023932897
2020-05-06T00:20:00	0.1981	6.566	169.0	0.459348314	0.542353945	0.007466829	0.077033897	0.023742595
2020-05-06T00:25:00	0.1979	6.558	169.0	0.458708539	0.541489946	0.007448010	0.076839747	0.023682756
2020-05-06T00:30:00	0.1971	6.547	169.0	0.455981770	0.537811150	0.007368065	0.076014965	0.023428551
2020-05-06T00:35:00	0.1973	6.536	168.0	0.456733011	0.538824093	0.007390048	0.076241761	0.023498451
2020-05-06T00:40:00	0.1974	6.527	168.0	0.457136301	0.539368057	0.007401862	0.076363649	0.023536018
2020-05-06T00:45:00	0.1975	6.518	168.0	0.457191765	0.539442879	0.007403488	0.076380420	0.023541187
2020-05-06T00:50:00	0.1969	6.508	168.0	0.455159847	0.536703412	0.007344050	0.075767210	0.023352190
2020-05-06T00:55:00	0.1966	6.499	168.0	0.454171184	0.535371658	0.007315215	0.075469720	0.023260501
2020-05-06T01:00:00	0.1971	6.492	168.0	0.455966756	0.537790911	0.007367626	0.076010436	0.023427155
2020-05-06T01:05:00	0.1969	6.485	168.0	0.455326337	0.536927754	0.007348911	0.075817364	0.023367648
2020-05-06T01:10:00	0.1963	6.478	168.0	0.453293289	0.534189759	0.007289656	0.075206041	0.023179232
2020-05-06T01:15:00	0.1968	6.471	168.0	0.454741301	0.536139525	0.007331836	0.075641199	0.023313352
2020-05-06T01:20:00	0.1969	6.465	169.0	0.455144830	0.536683177	0.007343612	0.075762687	0.023350796
2020-05-06T01:25:00	0.1968	6.461	168.0	0.454852308	0.536289067	0.007335074	0.075674610	0.023323650
2020-05-06T01:30:00	0.1966	6.456	168.0	0.454211676	0.535426187	0.007316394	0.075481893	0.023264252
2020-05-06T01:35:00	0.1963	6.450	168.0	0.453222734	0.534094797	0.007287604	0.075184870	0.023172707
2020-05-06T01:40:00	0.1962	6.445	168.0	0.452930045	0.533700905	0.007279094	0.075097072	0.023145647
2020-05-06T01:45:00	0.1961	6.438	168.0	0.452289046	0.532838503	0.007260474	0.074904968	0.023086439
2020-05-06T01:50:00	0.1957	6.427	168.0	0.450951113	0.531039488	0.007221683	0.074504774	0.022963095
2020-05-06T01:55:00	0.1956	6.416	174.0	0.450658226	0.530645854	0.007213205	0.074417308	0.022936137
2020-05-06T02:00:00	0.1952	6.405	163.0	0.449319642	0.528847684	0.007174520	0.074018200	0.022813128
2020-05-06T02:05:00	0.1947	6.393	163.0	0.447631754	0.526582293	0.007125885	0.073516443	0.022658482
2020-05-06T02:10:00	0.1948	6.382	168.0	0.448036140	0.527124833	0.007137522	0.073636503	0.022695485
2020-05-06T02:15:00	0.1947	6.372	163.0	0.447742998	0.526731529	0.007129086	0.073549461	0.022668658
2020-05-06T02:20:00	0.1957	6.364	168.0	0.450936077	0.531019278	0.007221248	0.074500283	0.022961711
2020-05-06T02:25:00	0.1952	6.358	163.0	0.449249003	0.528752831	0.007172481	0.073997168	0.022806646
2020-05-06T02:30:00	0.1948	6.351	168.0	0.447909856	0.526955392	0.007133887	0.073598999	0.022683926
2020-05-06T02:35:00	0.1950	6.344	168.0	0.448662906	0.527965982	0.007155578	0.073822774	0.022752896
2020-05-06T02:40:00	0.1955	6.339	168.0	0.450461428	0.530381399	0.007207511	0.074358565	0.022918032
2020-05-06T02:45:00	0.1956	6.336	168.0	0.450865472	0.530924381	0.007219204	0.074479194	0.022955211
2020-05-06T02:50:00	0.1955	6.330	163.0	0.450224078	0.530062492	0.007200647	0.074287749	0.022896206
2020-05-06T02:55:00	0.1967	6.325	168.0	0.454459192	0.535759532	0.007323609	0.075556323	0.023287192
2020-05-06T03:00:00	0.1968	6.322	167.0	0.454862755	0.536303140	0.007335379	0.075677754	0.023324619
2020-05-06T03:05:00	0.1966	6.317	168.0	0.454222125	0.535440257	0.007316699	0.075485034	0.023265221
2020-05-06T03:10:00	0.1962	6.313	167.0	0.452884962	0.533640240	0.007277784	0.075083553	0.023141480
2020-05-06T03:15:00	0.1967	6.307	164.0	0.454681222	0.536058596	0.007330083	0.075623120	0.023307780
2020-05-06T03:20:00	0.1969	6.303	168.0	0.455084759	0.536602239	0.007341858	0.075744596	0.023345220
2020-05-06T03:25:00	0.1970	6.299	167.0	0.455488246	0.537145945	0.007353640	0.075866153	0.023382685
2020-05-06T03:30:00	0.1974	6.295	168.0	0.456935312	0.539096944	0.007395973	0.076302892	0.023517292
2020-05-06T03:35:00	0.1983	6.290	163.0	0.460119663	0.543396059	0.007489549	0.077268294	0.023814839
2020-05-06T03:40:00	0.1982	6.287	163.0	0.459827574	0.543001383	0.007480941	0.077179493	0.023787469
2020-05-06T03:45:00	0.1974	6.285	168.0	0.457101713	0.539321401	0.007400849	0.076353192	0.023532795
2020-05-06T03:50:00	0.1982	6.283	168.0	0.459590885	0.542681615	0.007473970	0.077107572	0.023765302
2020-05-06T03:55:00	0.1992	6.282	167.0	0.463119925	0.547453979	0.007578244	0.078183344	0.024096866
2020-05-06T04:00:00	0.1986	6.283	167.0	0.461091587	0.544709827	0.007518225	0.077564141	0.023906022
2020-05-06T04:05:00	0.1997	6.283	167.0	0.465110336	0.550149988	0.007637368	0.078793323	0.024284867
2020-05-06T04:10:00	0.1998	6.284	168.0	0.465309934	0.550420516	0.007643310	0.078854620	0.024303760
2020-05-06T04:15:00	0.1996	6.286	162.0	0.464468550	0.549280347	0.007618280	0.078596387	0.024224170
2020-05-06T04:20:00	0.1998	6.289	168.0	0.465362160	0.550491306	0.007644865	0.078870662	0.024308704
2020-05-06T04:25:00	0.2006	6.291	168.0	0.467989384	0.554055209	0.007723290	0.079679761	0.024558076
2020-05-06T04:30:00	0.2006	6.295	168.0	0.468188811	0.554325961	0.007729259	0.079741344	0.024577057
2020-05-06T04:35:00	0.2010	6.298	168.0	0.469427986	0.556009035	0.007766401	0.080124527	0.024695157
2020-05-06T04:40:00	0.2019	6.303	167.0	0.472744504	0.560519599	0.007866238	0.081154531	0.025012615
2020-05-06T04:45:00	0.2024	6.306	167.0	0.474328058	0.562676364	0.007914130	0.081648622	0.025164898
2020-05-06T04:50:00	0.2025	6.312	162.0	0.474527111	0.562947611	0.007920160	0.081710834	0.025184073
2020-05-06T04:55:00	0.2028	6.319	168.0	0.475763964	0.564633761	0.007957681	0.082097926	0.025303378
2020-05-06T05:00:00	0.2036	6.326	163.0	0.478383113	0.568208359	0.008037423	0.082920610	0.025556937
2020-05-06T05:05:00	0.2032	6.337	167.0	0.477199260	0.566591968	0.008001331	0.082548256	0.025442174
2020-05-06T05:10:00	0.2028	6.349	168.0	0.475669118	0.564504418	0.007954800	0.082068210	0.025294219
2020-05-06T05:15:00	0.2030	6.362	169.0	0.476559768	0.565719291	0.007981868	0.082347462	0.025380287
2020-05-06T05:20:00	0.2044	6.375	168.0	0.481250879	0.572128539	0.008125185	0.083826039	0.025835999
2020-05-06T05:25:00	0.2049	6.386	168.0	0.482830459	0.574290596	0.008173727	0.084326833	0.025990349
2020-05-06T05:30:00	0.2055	6.399	168.0	0.485099238	0.577399485	0.008243698	0.085048717	0.026212841
2020-05-06T05:35:00	0.2065	6.410	168.0	0.488400450	0.581930456	0.008346039	0.086104550	0.026538259
2020-05-06T05:40:00	0.2070	6.422	168.0	0.490321126	0.584570631	0.008405871	0.086721818	0.026728507
2020-05-06T05:45:00	0.2072	6.436	163.0	0.490863608	0.585316864	0.008422808	0.086896558	0.026782363
2020-05-06T05:50:00	0.2076	6.447	168.0	0.492438723	0.587484918	0.008472082	0.087404910	0.026939042
2020-05-06T05:55:00	0.2083	6.462	163.0	0.494701098	0.590602424	0.008543106	0.088137647	0.027164879
2020-05-06T06:00:00	0.2088	6.477	163.0	0.496274438	0.592772877	0.008592672	0.088649013	0.027322487
2020-05-06T06:05:00	0.2096	6.488	163.0	0.499221343	0.596843535	0.008685895	0.089610776	0.027618911
2020-05-06T06:10:00	0.2100	6.500	168.0	0.500449237	0.598541726	0.008724886	0.090013040	0.027742893
2020-05-06T06:15:00	0.2104	6.508	163.0	0.502019928	0.600715777	0.008774889	0.090528916	0.027901891
2020-05-06T06:20:00	0.2110	6.516	168.0	0.503932944	0.603366333	0.008835983	0.091159210	0.028096154
2020-05-06T06:25:00	0.2110	6.529	168.0	0.503787243	0.603164356	0.008831323	0.091111128	0.028081335
2020-05-06T06:30:00	0.2120	6.545	168.0	0.507413101	0.608195784	0.008947667	0.092311435	0.028451281
2020-05-06T06:35:00	0.2128	6.559	168.0	0.510008011	0.611803125	0.009031398	0.093175272	0.028717524
2020-05-06T06:40:00	0.2135	6.574	169.0	0.512600955	0.615413163	0.009115455	0.094042472	0.028984803
2020-05-06T06:45:00	0.2135	6.585	168.0	0.512455624	0.615210681	0.009110734	0.093993760	0.028969790
2020-05-06T06:50:00	0.2137	6.597	169.0	0.513336704	0.616438502	0.009139377	0.094289271	0.029060869
2020-05-06T06:55:00	0.2142	6.610	169.0	0.514901490	0.618620641	0.009190359	0.094815241	0.029222978
2020-05-06T07:00:00	0.2143	6.624	169.0	0.515098185	0.618895079	0.009196778	0.094881459	0.029243387
2020-05-06T07:05:00	0.2149	6.639	169.0	0.517345612	0.622033006	0.009270274	0.095639711	0.029477088
2020-05-06T07:10:00	0.2147	6.656	169.0	0.516517008	0.620875607	0.009243143	0.095359799	0.029390816
2020-05-06T07:15:00	0.2149	6.671	169.0	0.517397045	0.622104866	0.009271960	0.095657099	0.029482447
2020-05-06T07:20:00	0.2144	6.690	170.0	0.515543002	0.619515822	0.009211301	0.095031295	0.029289568
2020-05-06T07:25:00	0.2148	6.712	169.0	0.517106782	0.621699349	0.009262450	0.095558989	0.029452209
2020-05-06T07:30:00	0.2144	6.733	169.0	0.515594462	0.619587645	0.009212982	0.095048636	0.029294913
2020-05-06T07:35:00	0.2137	6.755	169.0	0.513055280	0.616046259	0.009130223	0.094194832	0.029031762
2020-05-06T07:40:00	0.2139	6.780	169.0	0.513936206	0.617274292	0.009158893	0.094490608	0.029122923
2020-05-06T07:45:00	0.2130	6.803	169.0	0.510711163	0.612781555	0.009054154	0.093410041	0.028789882
2020-05-06T07:50:00	0.2120	6.830	170.0	0.507483080	0.608292995	0.008949920	0.092334678	0.028458444
2020-05-06T07:55:00	0.2128	6.861	170.0	0.510077937	0.611900408	0.009033660	0.093198606	0.028724715
2020-05-06T08:00:00	0.2129	6.894	170.0	0.510617286	0.612650903	0.009051115	0.093378680	0.028780216
2020-05-06T08:05:00	0.2130	6.922	170.0	0.510814228	0.612925002	0.009057492	0.093444477	0.028800495
2020-05-06T08:10:00	0.2136	6.959	179.0	0.512722332	0.615582283	0.009119400	0.094083164	0.028997345
2020-05-06T08:15:00	0.2132	6.998	170.0	0.511550360	0.613949812	0.009081351	0.093690620	0.028876359
2020-05-06T08:20:00	0.2131	7.028	171.0	0.511062686	0.613270845	0.009065541	0.093527519	0.028826090
2020-05-06T08:25:00	0.2134	7.064	170.0	0.512286334	0.614974840	0.009105235	0.093937033	0.028952306
2020-05-06T08:30:00	0.2129	7.101	172.0	0.510429524	0.612389609	0.009045036	0.093315972	0.028760889
2020-05-06T08:35:00	0.2134	7.150	172.0	0.512337843	0.615046596	0.009106908	0.093954291	0.028957625
2020-05-06T08:40:00	0.2132	7.198	171.0	0.511508027	0.613890866	0.009079978	0.093676456	0.028871994
2020-05-06T08:45:00	0.2131	7.255	171.0	0.511020347	0.613211907	0.009064169	0.093513365	0.028821727
2020-05-06T08:50:00	0.2127	7.298	171.0	0.509847792	0.611580237	0.009026217	0.093121819	0.028701049
2020-05-06T08:55:00	0.2126	7.347	172.0	0.509359875	0.610901603	0.009010448	0.092959133	0.028650908
2020-05-06T09:00:00	0.2136	7.393	172.0	0.512979835	0.615941115	0.009127770	0.094169523	0.029023961
2020-05-06T09:05:00	0.2136	7.421	172.0	0.512834520	0.615738611	0.009123046	0.094120783	0.029008940
2020-05-06T09:10:00	0.2133	7.456	172.0	0.512004824	0.614582716	0.009096096	0.093842742	0.028923245
2020-05-06T09:15:00	0.2136	7.493	173.0	0.512886020	0.615810377	0.009124720	0.094138055	0.029014263
2020-05-06T09:20:00	0.2121	7.541	173.0	0.507604638	0.608461865	0.008953834	0.092375059	0.028470890
2020-05-06T09:25:00	0.2127	7.588	173.0	0.509856984	0.611593024	0.009026514	0.093124885	0.028701994
2020-05-06T09:30:00	0.2128	7.624	173.0	0.510053969	0.611867063	0.009032885	0.093190607	0.028722250
2020-05-06T09:35:00	0.2121	7.735	174.0	0.507853329	0.608807389	0.008961845	0.092457702	0.028496362
2020-05-06T09:40:00	0.2119	7.824	174.0	0.507022425	0.607653153	0.008935095	0.092181728	0.028411304
2020-05-06T09:45:00	0.2116	7.936	174.0	0.505848500	0.606023362	0.008897370	0.091792526	0.028291348
2020-05-06T09:50:00	0.2108	8.061	176.0	0.503302075	0.602491914	0.008815813	0.090951112	0.028032016
2020-05-06T09:55:00	0.2109	8.195	176.0	0.503499438	0.602765436	0.008822120	0.091016189	0.028052073
2020-05-06T10:00:00	0.2100	8.344	176.0	0.500607914	0.598761266	0.008729931	0.090065089	0.027758935
2020-05-06T10:05:00	0.2115	8.415	177.0	0.505551120	0.605610679	0.008887826	0.091694064	0.028261001
2020-05-06T10:10:00	0.2104	8.488	194.0	0.501917143	0.600573447	0.008771613	0.090495113	0.027891473
2020-05-06T10:15:00	0.2093	8.565	177.0	0.498279293	0.595541491	0.008656039	0.089302763	0.027523979
2020-05-06T10:20:00	0.2100	8.658	177.0	0.500479962	0.598584234	0.008725863	0.090023118	0.027745999
2020-05-06T10:25:00	0.2097	8.667	177.0	0.499589416	0.597352456	0.008697574	0.089731264	0.027656047
2020-05-06T10:30:00	0.2102	8.678	177.0	0.501102681	0.599445940	0.008745671	0.090227478	0.027808985
2020-05-06T10:35:00	0.2092	8.727	177.0	0.497807625	0.594889848	0.008641111	0.089148745	0.027476509
2020-05-06T10:40:00	0.2094	8.811	178.0	0.498634625	0.596032526	0.008667295	0.089418880	0.027559767
2020-05-06T10:45:00	0.2098	8.888	179.0	0.499804887	0.597650432	0.008704414	0.089801836	0.027677798
2020-05-06T10:50:00	0.2096	8.953	179.0	0.499257682	0.596893774	0.008687047	0.089622667	0.027622576
2020-05-06T10:55:00	0.2097	9.066	181.0	0.499397429	0.597086988	0.008691481	0.089668407	0.027636674
2020-05-06T11:00:00	0.2098	9.195	180.0	0.499880624	0.597755177	0.008706819	0.089826648	0.027685445
2020-05-06T11:05:00	0.2101	9.263	181.0	0.500707122	0.598898537	0.008733086	0.090097639	0.027768967
2020-05-06T11:10:00	0.2107	9.282	180.0	0.502906226	0.601943410	0.008803168	0.090820660	0.027991809
2020-05-06T11:15:00	0.2104	9.315	181.0	0.502016313	0.600710770	0.008774774	0.090527727	0.027901525
2020-05-06T11:20:00	0.2111	9.337	180.0	0.504214574	0.603756792	0.008844995	0.091252185	0.028124810
2020-05-06T11:25:00	0.2119	9.342	180.0	0.507096915	0.607756606	0.008937492	0.092206452	0.028418924
2020-05-06T11:30:00	0.2129	9.326	180.0	0.510319235	0.612236141	0.009041467	0.093279147	0.028749539
2020-05-06T11:35:00	0.2135	9.352	181.0	0.512512168	0.615289459	0.009112571	0.094012711	0.028975630
2020-05-06T11:40:00	0.2122	9.412	181.0	0.508200449	0.609289750	0.008973032	0.092573116	0.028531933
2020-05-06T11:45:00	0.2132	9.467	181.0	0.511421731	0.613770710	0.009077179	0.093647587	0.028863096
2020-05-06T11:50:00	0.2129	9.516	181.0	0.510534032	0.612535040	0.009048419	0.093350872	0.028771645
2020-05-06T11:55:00	0.2132	9.565	182.0	0.511357958	0.613681917	0.009075112	0.093626255	0.028856521
2020-05-06T12:00:00	0.2135	9.626	182.0	0.512523872	0.615305766	0.009112951	0.094016633	0.028976840
2020-05-06T12:05:00	0.2132	9.658	181.0	0.511636458	0.614069703	0.009084143	0.093719430	0.028885239
2020-05-06T12:10:00	0.2126	9.690	181.0	0.509379154	0.610928414	0.009011071	0.092965558	0.028652888
2020-05-06T12:15:00	0.2127	9.749	182.0	0.509860940	0.611598528	0.009026642	0.093126205	0.028702401
2020-05-06T12:20:00	0.2130	9.774	182.0	0.510685029	0.612745181	0.009053308	0.093401310	0.028787191
2020-05-06T12:25:00	0.2134	9.798	183.0	0.512193391	0.614845370	0.009102217	0.093905897	0.028942710
2020-05-06T12:30:00	0.2131	9.840	183.0	0.511305892	0.613609426	0.009073424	0.093608840	0.028851154
2020-05-06T12:35:00	0.2137	9.885	182.0	0.513156104	0.616186778	0.009133502	0.094228661	0.029042188
2020-05-06T12:40:00	0.2146	9.897	182.0	0.516372732	0.620674139	0.009238423	0.095311103	0.029375808
2020-05-06T12:45:00	0.2141	9.906	182.0	0.514460540	0.618005524	0.009175978	0.094666877	0.029177251
2020-05-06T12:50:00	0.2146	9.915	183.0	0.516309051	0.620585219	0.009236340	0.095289613	0.029369184
2020-05-06T12:55:00	0.2135	9.927	182.0	0.512686485	0.615532335	0.009118235	0.094071145	0.028993640
2020-05-06T13:00:00	0.2126	9.938	183.0	0.509402584	0.610960998	0.009011828	0.092973367	0.028655295
2020-05-06T13:05:00	0.2131	9.962	183.0	0.511253825	0.613536936	0.009071736	0.093591428	0.028845787
2020-05-06T13:10:00	0.2132	9.986	183.0	0.511393082	0.613730820	0.009076250	0.093638003	0.028860142
2020-05-06T13:15:00	0.2118	10.007	183.0	0.506737221	0.607257095	0.008925922	0.092087097	0.028382137
2020-05-06T13:20:00	0.2121	10.056	183.0	0.507562062	0.608402717	0.008952463	0.092360915	0.028466531
2020-05-06T13:25:00	0.2117	10.080	183.0	0.506330589	0.606692525	0.008912853	0.091952258	0.028340579
2020-05-06T13:30:00	0.2115	10.091	185.0	0.505784428	0.605934442	0.008895313	0.091771308	0.028284808
2020-05-06T13:35:00	0.2118	10.097	184.0	0.506609499	0.607079750	0.008921816	0.092044733	0.028369081
2020-05-06T13:40:00	0.2102	10.111	183.0	0.501260589	0.599664499	0.008750698	0.090279336	0.027824968
2020-05-06T13:45:00	0.2097	10.129	184.0	0.499339928	0.597007486	0.008689657	0.089649585	0.027630873
2020-05-06T13:50:00	0.2111	10.132	184.0	0.504284969	0.603854398	0.008847248	0.091275432	0.028131974
2020-05-06T13:55:00	0.2099	10.125	184.0	0.500306266	0.598343933	0.008720342	0.089966156	0.027728443
2020-05-06T14:00:00	0.2101	10.123	184.0	0.500789333	0.599012297	0.008735701	0.090124616	0.027777282
2020-05-06T14:05:00	0.2106	10.130	184.0	0.502645243	0.601581850	0.008794836	0.090734703	0.027965317
2020-05-06T14:10:00	0.2102	10.145	184.0	0.501068696	0.599398904	0.008744590	0.090216319	0.027805546
2020-05-06T14:15:00	0.2095	10.169	184.0	0.498804398	0.596267171	0.008672675	0.089474386	0.027576875
2020-05-06T14:20:00	0.2092	10.178	184.0	0.497913414	0.595035988	0.008644458	0.089183278	0.027487152
2020-05-06T14:25:00	0.2084	10.163	184.0	0.494959223	0.590958377	0.008551228	0.088221442	0.027190705
2020-05-06T14:30:00	0.2089	10.127	184.0	0.496818308	0.593523617	0.008609839	0.088826124	0.027377074
2020-05-06T14:35:00	0.2091	10.108	184.0	0.497301869	0.594191309	0.008625117	0.088983743	0.027425654
2020-05-06T14:40:00	0.2084	10.093	184.0	0.495035067	0.591062976	0.008553615	0.088246071	0.027198296
2020-05-06T14:45:00	0.2084	10.092	184.0	0.495174987	0.591255955	0.008558020	0.088291516	0.027212303
2020-05-06T14:50:00	0.2094	10.105	184.0	0.498408573	0.595720131	0.008660134	0.089345001	0.027536997
2020-05-06T14:55:00	0.2090	10.127	184.0	0.497173793	0.594014445	0.008621069	0.088941982	0.027412783
2020-05-06T15:00:00	0.2099	10.140	184.0	0.500062082	0.598006155	0.008712583	0.089886109	0.027703772
2020-05-06T15:05:00	0.2099	10.137	184.0	0.500201796	0.598199414	0.008717022	0.089931905	0.027717887
2020-05-06T15:10:00	0.2096	10.122	184.0	0.499311177	0.596967735	0.008688744	0.089640175	0.027627973
2020-05-06T15:15:00	0.2098	10.099	184.0	0.499794384	0.597635906	0.008704081	0.089798395	0.027676738
2020-05-06T15:20:00	0.2095	10.076	185.0	0.498903659	0.596404372	0.008675821	0.089506846	0.027586879
2020-05-06T15:25:00	0.2095	10.056	184.0	0.498699882	0.596122715	0.008669362	0.089440213	0.027566342
2020-05-06T15:30:00	0.2093	10.045	184.0	0.498152499	0.595366298	0.008652025	0.089261347	0.027511214
2020-05-06T15:35:00	0.2101	10.015	184.0	0.500696622	0.598884008	0.008732752	0.090094194	0.027767905
2020-05-06T15:40:00	0.2097	9.985	183.0	0.499462670	0.597177197	0.008693551	0.089689765	0.027643257
2020-05-06T15:45:00	0.2103	9.964	183.0	0.501662576	0.600220979	0.008763500	0.090411419	0.027865677
2020-05-06T15:50:00	0.2094	9.945	183.0	0.498368061	0.595664151	0.008658850	0.089331764	0.027532917
2020-05-06T15:55:00	0.2092	9.927	183.0	0.497820625	0.594907806	0.008641522	0.089152988	0.027477817
2020-05-06T16:00:00	0.2083	9.905	184.0	0.494522393	0.590356024	0.008537485	0.088079658	0.027147006
2020-05-06T16:05:00	0.2082	9.895	183.0	0.494281963	0.590024555	0.008529925	0.088001669	0.027122969
2020-05-06T16:10:00	0.2081	9.878	183.0	0.494041515	0.589693110	0.008522369	0.087923708	0.027098941
2020-05-06T16:15:00	0.2076	9.862	183.0	0.492424572	0.587465431	0.008471639	0.087400337	0.026937633
2020-05-06T16:20:00	0.2058	9.853	183.0	0.485982492	0.578610912	0.008271019	0.085330577	0.026299712
2020-05-06T16:25:00	0.2062	9.830	183.0	0.487465354	0.580646136	0.008316987	0.085804821	0.026445879
2020-05-06T16:30:00	0.2059	9.807	183.0	0.486534921	0.579368914	0.008288129	0.085507101	0.026354119
2020-05-06T16:35:00	0.2060	9.786	183.0	0.486638719	0.579511365	0.008291346	0.085540288	0.026364348
2020-05-06T16:40:00	0.2053	9.761	183.0	0.484328297	0.576342610	0.008219889	0.084803076	0.026137132
2020-05-06T16:45:00	0.2050	9.741	182.0	0.483397004	0.575066544	0.008191172	0.084506812	0.026045820
2020-05-06T16:50:00	0.2046	9.726	182.0	0.481774984	0.572845690	0.008141276	0.083992039	0.025887162
2020-05-06T16:55:00	0.2050	9.715	182.0	0.483259686	0.574878448	0.008186942	0.084463171	0.026032370
2020-05-06T17:00:00	0.2043	9.704	182.0	0.480946961	0.571712779	0.008115862	0.083729854	0.025806354
2020-05-06T17:05:00	0.2041	9.685	182.0	0.480360171	0.570910256	0.008097876	0.083544299	0.025749164
2020-05-06T17:10:00	0.2042	9.663	182.0	0.480464158	0.571052453	0.008101062	0.083577167	0.025759294
2020-05-06T17:15:00	0.2033	9.644	182.0	0.477458172	0.566945381	0.008009217	0.082629620	0.025467251
2020-05-06T17:20:00	0.2033	9.627	181.0	0.477562247	0.567087459	0.008012389	0.082662337	0.025477335
2020-05-06T17:25:00	0.2024	9.609	181.0	0.474207656	0.562512309	0.007910484	0.081611003	0.025153304
2020-05-06T17:30:00	0.2022	9.592	181.0	0.473619696	0.561711344	0.007892689	0.081427420	0.025096722
2020-05-06T17:35:00	0.2020	9.574	181.0	0.473031634	0.560910515	0.007874911	0.081244010	0.025040193
2020-05-06T17:40:00	0.2016	9.554	181.0	0.471404637	0.558696287	0.007825829	0.080737630	0.024884122
2020-05-06T17:45:00	0.2017	9.531	182.0	0.471855201	0.559309263	0.007839406	0.080877705	0.024927294
2020-05-06T17:50:00	0.2017	9.509	181.0	0.471959450	0.559451112	0.007842549	0.080910132	0.024937289
2020-05-06T17:55:00	0.2016	9.487	181.0	0.471717414	0.559121791	0.007835253	0.080834856	0.024914088
2020-05-06T18:00:00	0.2016	9.464	181.0	0.471475362	0.558792494	0.007827959	0.080759610	0.024890896
2020-05-06T18:05:00	0.2014	9.442	181.0	0.470886926	0.557992159	0.007810242	0.080576827	0.024834561
2020-05-06T18:10:00	0.2017	9.417	181.0	0.472030163	0.559547334	0.007844681	0.080932131	0.024944069
2020-05-06T18:15:00	0.2018	9.391	181.0	0.472134406	0.559689190	0.007847825	0.080964567	0.024954066
2020-05-06T18:20:00	0.2009	9.365	181.0	0.469121002	0.555591969	0.007757192	0.080029516	0.024665874
2020-05-06T18:25:00	0.2011	9.338	181.0	0.469918372	0.556675424	0.007781123	0.080276416	0.024741971
2020-05-06T18:30:00	0.2009	9.312	181.0	0.468983103	0.555404646	0.007753056	0.079986854	0.024652725
2020-05-06T18:35:00	0.2013	9.286	180.0	0.470473429	0.557429925	0.007797804	0.080448508	0.024795011
2020-05-06T18:40:00	0.2013	9.259	180.0	0.470577720	0.557571718	0.007800940	0.080480863	0.024804983
2020-05-06T18:45:00	0.2016	9.233	180.0	0.471721062	0.559126754	0.007835363	0.080835991	0.024914437
2020-05-06T18:50:00	0.2021	9.208	180.0	0.473210180	0.561153632	0.007880307	0.081299675	0.025057349
2020-05-06T18:55:00	0.2013	9.182	180.0	0.470544173	0.557526107	0.007799931	0.080470454	0.024801776
2020-05-06T19:00:00	0.2020	9.154	180.0	0.473072448	0.560966088	0.007876145	0.081256733	0.025044114
2020-05-06T19:05:00	0.2027	9.128	181.0	0.475252915	0.563936921	0.007942167	0.081937876	0.025254049
2020-05-06T19:10:00	0.2028	9.102	180.0	0.475702966	0.564550577	0.007955828	0.082078814	0.025297488
2020-05-06T19:15:00	0.2032	9.077	180.0	0.477190332	0.566579781	0.008001059	0.082545450	0.025441310
2020-05-06T19:20:00	0.2043	9.051	179.0	0.480749928	0.571443277	0.008109821	0.083667526	0.025787144
2020-05-06T19:25:00	0.2041	9.028	179.0	0.480163104	0.570640800	0.008091841	0.083482028	0.025729972
2020-05-06T19:30:00	0.2039	9.003	179.0	0.479576178	0.569838458	0.008073877	0.083296701	0.025672852
2020-05-06T19:35:00	0.2041	8.979	179.0	0.480371086	0.570925182	0.008098211	0.083547748	0.025750227
2020-05-06T19:40:00	0.2042	8.953	179.0	0.480475072	0.571067380	0.008101397	0.083580617	0.025760358
2020-05-06T19:45:00	0.2045	8.927	179.0	0.481615074	0.572626857	0.008136365	0.083941374	0.025871547
2020-05-06T19:50:00	0.2039	8.900	178.0	0.479646732	0.569934893	0.008076035	0.083318968	0.025679715
2020-05-06T19:55:00	0.2046	8.872	179.0	0.481822968	0.572911358	0.008142749	0.084007245	0.025891849
2020-05-06T20:00:00	0.2035	8.844	179.0	0.478126973	0.567858540	0.008029607	0.082839977	0.025532085
2020-05-06T20:05:00	0.2034	8.816	177.0	0.477885379	0.567528634	0.008022239	0.082763958	0.025508656
2020-05-06T20:10:00	0.2035	8.785	178.0	0.477989442	0.567670730	0.008025412	0.082796698	0.025518746
2020-05-06T20:15:00	0.2031	8.756	178.0	0.476710635	0.565925141	0.007986458	0.082394811	0.025394881
2020-05-06T20:20:00	0.2023	8.726	178.0	0.474047389	0.562293953	0.007905631	0.081560942	0.025137874
2020-05-06T20:25:00	0.2029	8.696	179.0	0.476227226	0.565265621	0.007971757	0.082243143	0.025348135
2020-05-06T20:30:00	0.2029	8.664	178.0	0.475985496	0.564935895	0.007964410	0.082167353	0.025324776
2020-05-06T20:35:00	0.2020	8.635	177.0	0.472975527	0.560834123	0.007873216	0.081226521	0.025034803
2020-05-06T20:40:00	0.2022	8.605	178.0	0.473771988	0.561918781	0.007897296	0.081474952	0.025111371
2020-05-06T20:45:00	0.2020	8.574	177.0	0.472837786	0.560646591	0.007869056	0.081183595	0.025021573
2020-05-06T20:50:00	0.2015	8.544	177.0	0.471210696	0.558432487	0.007819988	0.080677373	0.024865550
2020-05-06T20:55:00	0.2008	8.515	177.0	0.468889715	0.555277795	0.007750257	0.079957969	0.024643823
2020-05-06T21:00:00	0.2010	8.483	177.0	0.469340616	0.555890326	0.007763779	0.080097480	0.024686821
2020-05-06T21:05:00	0.2006	8.452	177.0	0.468058531	0.554149083	0.007725360	0.079701111	0.024564656
2020-05-06T21:10:00	0.2003	8.421	177.0	0.467122746	0.552878986	0.007697377	0.079412415	0.024475678
2020-05-06T21:15:00	0.2009	8.391	177.0	0.468960493	0.555373932	0.007752379	0.079979860	0.024650570
2020-05-06T21:20:00	0.2001	8.363	176.0	0.466291126	0.551750849	0.007672550	0.079156288	0.024396737
2020-05-06T21:25:00	0.1999	8.333	176.0	0.465701785	0.550951709	0.007654981	0.078975027	0.024340870
2020-05-06T21:30:00	0.1996	8.303	176.0	0.464765346	0.549682474	0.007627104	0.078687430	0.024252230
2020-05-06T21:35:00	0.2001	8.273	176.0	0.466257536	0.551705294	0.007671549	0.079145952	0.024393551
2020-05-06T21:40:00	0.2002	8.244	176.0	0.466708788	0.552317361	0.007685014	0.079284871	0.024436367
2020-05-06T21:45:00	0.2002	8.217	176.0	0.466813196	0.552459000	0.007688131	0.079317031	0.024446279
2020-05-06T21:50:00	0.1995	8.189	176.0	0.464142127	0.548838158	0.007608580	0.078496315	0.024193327
2020-05-06T21:55:00	0.2004	8.162	175.0	0.467368764	0.553212827	0.007704728	0.079488263	0.024499055
2020-05-06T22:00:00	0.1998	8.135	176.0	0.465392104	0.550531895	0.007645757	0.078879861	0.024311539
2020-05-06T22:05:00	0.1996	8.107	176.0	0.464504713	0.549329339	0.007619355	0.078607477	0.024227588
2020-05-06T22:10:00	0.2002	8.081	176.0	0.466739820	0.552359458	0.007685940	0.079294429	0.024439313
2020-05-06T22:15:00	0.2001	8.056	176.0	0.466199667	0.551626813	0.007669823	0.079128145	0.024388063
2020-05-06T22:20:00	0.2001	8.031	176.0	0.466353197	0.551835033	0.007674402	0.079175391	0.024402625
2020-05-06T22:25:00	0.2000	8.005	175.0	0.466159869	0.551572842	0.007668636	0.079115900	0.024384289
2020-05-06T22:30:00	0.2000	7.981	175.0	0.465966529	0.551310666	0.007662871	0.079056428	0.024365959
2020-05-06T22:35:00	0.2003	7.956	175.0	0.467160530	0.552930254	0.007698505	0.079424062	0.024479267
2020-05-06T22:40:00	0.1998	7.933	175.0	0.465232871	0.550316063	0.007641016	0.078830950	0.024296465
2020-05-06T22:45:00	0.1994	7.910	175.0	0.463998364	0.548643436	0.007604310	0.078452261	0.024179749
2020-05-06T22:50:00	0.1994	7.886	174.0	0.463804900	0.548381423	0.007598565	0.078392997	0.024161483
2020-05-06T22:55:00	0.1996	7.865	174.0	0.464652660	0.549529788	0.007623753	0.078652857	0.024241574
2020-05-06T23:00:00	0.2000	7.843	174.0	0.465847126	0.551148764	0.007659312	0.079019710	0.024354642
2020-05-06T23:05:00	0.2006	7.822	174.0	0.468081344	0.554180055	0.007726042	0.079708155	0.024566828
2020-05-06T23:10:00	0.2007	7.801	174.0	0.468581426	0.554859088	0.007741018	0.079862652	0.024614445
2020-05-06T23:15:00	0.2010	7.780	174.0	0.469427986	0.556009035	0.007766401	0.080124527	0.024695157
2020-05-06T23:20:00	0.2012	7.759	174.0	0.470274333	0.557159262	0.007791819	0.080386759	0.024775980
2020-05-06T23:25:00	0.2018	7.739	173.0	0.472159388	0.559723188	0.007848579	0.080972341	0.024956462
2020-05-06T23:30:00	0.2013	7.718	174.0	0.470581016	0.557576199	0.007801039	0.080481885	0.024805299
2020-05-06T23:35:00	0.2016	7.697	174.0	0.471427074	0.558726808	0.007826504	0.080744603	0.024886271
2020-05-06T23:40:00	0.2016	7.677	173.0	0.471580367	0.558935342	0.007831123	0.080792248	0.024900956
2020-05-06T23:45:00	0.2018	7.657	174.0	0.472079932	0.559615060	0.007846182	0.080947616	0.024948841
2020-05-06T23:50:00	0.2010	7.637	173.0	0.469462094	0.556055377	0.007767425	0.080135087	0.024698412
2020-05-06T23:55:00	0.2010	7.617	173.0	0.469615475	0.556263793	0.007772028	0.080182582	0.024713051
2020-05-07T00:00:00	0.2017	7.596	174.0	0.471847200	0.559298376	0.007839165	0.080875217	0.024926527
2020-05-07T00:05:00	0.2012	7.578	173.0	0.470268683	0.557151581	0.007791649	0.080385006	0.024775440
2020-05-07T00:10:00	0.2010	7.558	173.0	0.469382574	0.555947334	0.007765038	0.080110469	0.024690824
2020-05-07T00:15:00	0.2004	7.539	173.0	0.467456185	0.553331468	0.007707342	0.079515224	0.024507364
2020-05-07T00:20:00	0.2005	7.519	195.0	0.467609658	0.553539762	0.007711931	0.079562566	0.024521956
2020-05-07T00:25:00	0.2001	7.500	173.0	0.466376022	0.551865989	0.007675083	0.079182416	0.024404790
2020-05-07T00:30:00	0.2005	7.481	173.0	0.467916583	0.553956380	0.007721112	0.079657286	0.024551149
2020-05-07T00:35:00	0.2002	7.462	173.0	0.466683059	0.552282458	0.007684246	0.079276947	0.024433925
2020-05-07T00:40:00	0.1995	7.443	173.0	0.464408095	0.549198445	0.007616483	0.078577848	0.024218456
2020-05-07T00:45:00	0.1988	7.422	172.0	0.461784292	0.545646627	0.007538696	0.077775335	0.023971114
2020-05-07T00:50:00	0.1985	7.402	172.0	0.460895949	0.544445321	0.007512448	0.077504546	0.023887654
2020-05-07T00:55:00	0.1980	7.382	174.0	0.458964700	0.541835846	0.007455542	0.076917454	0.023706706
2020-05-07T01:00:00	0.1983	7.362	172.0	0.460161185	0.543452170	0.007490773	0.077280922	0.023818731
2020-05-07T01:05:00	0.1983	7.341	172.0	0.459967501	0.543190447	0.007485064	0.077222028	0.023800579
2020-05-07T01:10:00	0.1981	7.319	172.0	0.459426260	0.542459231	0.007469123	0.077057567	0.023749891
2020-05-07T01:15:00	0.1986	7.300	172.0	0.461317390	0.545015156	0.007524895	0.077632954	0.023927230
2020-05-07T01:20:00	0.1984	7.279	172.0	0.460428924	0.543814012	0.007498668	0.077362371	0.023843834
2020-05-07T01:25:00	0.1986	7.260	172.0	0.461277534	0.544961261	0.007523717	0.077620805	0.023923486
2020-05-07T01:30:00	0.1981	7.239	172.0	0.459346504	0.542351499	0.007466776	0.077033347	0.023742426
2020-05-07T01:35:00	0.1986	7.219	171.0	0.461237678	0.544907366	0.007522540	0.077608658	0.023919742
2020-05-07T01:40:00	0.1981	7.197	172.0	0.459306624	0.542297634	0.007465602	0.077021238	0.023738694
2020-05-07T01:45:00	0.1977	7.176	172.0	0.458069942	0.540627861	0.007429249	0.076646195	0.023623102
2020-05-07T01:50:00	0.1984	7.155	172.0	0.460309324	0.543652369	0.007495140	0.077325982	0.023832619
2020-05-07T01:55:00	0.1981	7.135	171.0	0.459420592	0.542451573	0.007468956	0.077055845	0.023749360
2020-05-07T02:00:00	0.1982	7.115	172.0	0.459921962	0.543128914	0.007483722	0.077208183	0.023796312
2020-05-07T02:05:00	0.1982	7.093	171.0	0.459728264	0.542867209	0.007478016	0.077149312	0.023778167
2020-05-07T02:10:00	0.1976	7.072	172.0	0.457796344	0.540258612	0.007421219	0.076563343	0.023597566
2020-05-07T02:15:00	0.1982	7.051	167.0	0.459688389	0.542813338	0.007476842	0.077137196	0.023774433
2020-05-07T02:20:00	0.1977	7.032	171.0	0.458104164	0.540674053	0.007430254	0.076656561	0.023626297
2020-05-07T02:25:00	0.1982	7.012	171.0	0.459648514	0.542759468	0.007475667	0.077125080	0.023770699
2020-05-07T02:30:00	0.1982	6.993	171.0	0.459802343	0.542967294	0.007480198	0.077171825	0.023785106
2020-05-07T02:35:00	0.1977	6.972	171.0	0.457870466	0.540358642	0.007423394	0.076585785	0.023604483
2020-05-07T02:40:00	0.1981	6.953	171.0	0.459414923	0.542443916	0.007468789	0.077054124	0.023748829
2020-05-07T02:45:00	0.1982	6.935	170.0	0.459916294	0.543121256	0.007483555	0.077206460	0.023795781
2020-05-07T02:50:00	0.1978	6.916	172.0	0.458332176	0.540981830	0.007436950	0.076725646	0.023647589
2020-05-07T02:55:00	0.1970	6.898	170.0	0.455703628	0.537436227	0.007359934	0.075931079	0.023402696
2020-05-07T03:00:00	0.1971	6.880	170.0	0.455857638	0.537643817	0.007364435	0.075977522	0.023417010
2020-05-07T03:05:00	0.1969	6.863	170.0	0.455315734	0.536913466	0.007348602	0.075814169	0.023366663
2020-05-07T03:10:00	0.1967	6.846	170.0	0.454425681	0.535714398	0.007322632	0.075546244	0.023284086
2020-05-07T03:15:00	0.1968	6.828	192.0	0.454927796	0.536390764	0.007337277	0.075697334	0.023330654
2020-05-07T03:20:00	0.1970	6.811	170.0	0.455429837	0.537067229	0.007351934	0.075848550	0.023377260
2020-05-07T03:25:00	0.1984	6.794	170.0	0.460451789	0.543844916	0.007499342	0.077369329	0.023845978
2020-05-07T03:30:00	0.1974	6.777	170.0	0.457129367	0.539358705	0.007401659	0.076361553	0.023535372
2020-05-07T03:35:00	0.1975	6.762	170.0	0.457283312	0.539566381	0.007406171	0.076408105	0.023549720
2020-05-07T03:40:00	0.1978	6.746	170.0	0.458480395	0.541181923	0.007441305	0.076770571	0.023661436
2020-05-07T03:45:00	0.1973	6.730	170.0	0.456547758	0.538574264	0.007384624	0.076185803	0.023481204
2020-05-07T03:50:00	0.1971	6.716	169.0	0.456005966	0.537843768	0.007368772	0.076022265	0.023430800
2020-05-07T03:55:00	0.1970	6.702	170.0	0.455464087	0.537113385	0.007352935	0.075858872	0.023380441
2020-05-07T04:00:00	0.1970	6.688	169.0	0.455618107	0.537320962	0.007357435	0.075905296	0.023394749
2020-05-07T04:05:00	0.1972	6.675	172.0	0.456113819	0.537989167	0.007371926	0.076054806	0.023440830
2020-05-07T04:10:00	0.1971	6.663	169.0	0.455913675	0.537719355	0.007366074	0.075994424	0.023422220
2020-05-07T04:15:00	0.1972	6.652	170.0	0.456409343	0.538387618	0.007380573	0.076144007	0.023468322
2020-05-07T04:20:00	0.1976	6.640	169.0	0.457600514	0.539994356	0.007415473	0.076504069	0.023579297
2020-05-07T04:25:00	0.1973	6.626	169.0	0.456704841	0.538786103	0.007389223	0.076233251	0.023495828
2020-05-07T04:30:00	0.1968	6.616	169.0	0.454764953	0.536171387	0.007332526	0.075648317	0.023315546
2020-05-07T04:35:00	0.1969	6.606	169.0	0.455260790	0.536839428	0.007346997	0.075797617	0.023361562
2020-05-07T04:40:00	0.1976	6.598	170.0	0.457843566	0.540322339	0.007422604	0.076577640	0.023601972
2020-05-07T04:45:00	0.1982	6.587	169.0	0.459729366	0.542868698	0.007478048	0.077149647	0.023778270
2020-05-07T04:50:00	0.1985	6.577	169.0	0.460919362	0.544476973	0.007513140	0.077511677	0.023889852
2020-05-07T04:55:00	0.1983	6.569	169.0	0.460024572	0.543267564	0.007486746	0.077239379	0.023805927
2020-05-07T05:00:00	0.1976	6.562	169.0	0.457738880	0.540181066	0.007419532	0.076545948	0.023592205
2020-05-07T05:05:00	0.1985	6.554	170.0	0.460667206	0.544136092	0.007505697	0.077434894	0.023866186
2020-05-07T05:10:00	0.1987	6.546	169.0	0.461509540	0.545275013	0.007530573	0.077691534	0.023945285
2020-05-07T05:15:00	0.1980	6.541	168.0	0.459224857	0.542187194	0.007463196	0.076996413	0.023731042
2020-05-07T05:20:00	0.1990	6.538	169.0	0.462499155	0.546613790	0.007559850	0.077993580	0.024038379
2020-05-07T05:25:00	0.1991	6.535	169.0	0.462993853	0.547283321	0.007574506	0.078144786	0.024084982
2020-05-07T05:30:00	0.1993	6.533	169.0	0.463488479	0.547952948	0.007589174	0.078296114	0.024131623
2020-05-07T05:35:00	0.1997	6.536	169.0	0.465024151	0.550033185	0.007634804	0.078766862	0.024276712
2020-05-07T05:40:00	0.1988	6.542	169.0	0.461700028	0.545532649	0.007536204	0.077749629	0.023963191
2020-05-07T05:45:00	0.1988	6.548	169.0	0.461847548	0.545732191	0.007540567	0.077794635	0.023977062
2020-05-07T05:50:00	0.1992	6.553	169.0	0.463383968	0.547811445	0.007586074	0.078264128	0.024121764
2020-05-07T05:55:00	0.1993	6.560	169.0	0.463531414	0.548011084	0.007590448	0.078309257	0.024135674
2020-05-07T06:00:00	0.1999	6.567	168.0	0.465760959	0.551031936	0.007656744	0.078993218	0.024346477
2020-05-07T06:05:00	0.1996	6.575	169.0	0.464520435	0.549350641	0.007619822	0.078612299	0.024229074
2020-05-07T06:10:00	0.1995	6.585	170.0	0.464320791	0.549080175	0.007613888	0.078551080	0.024210206
2020-05-07T06:15:00	0.2003	6.597	169.0	0.466896625	0.552572186	0.007690622	0.079342733	0.024454201
2020-05-07T06:20:00	0.2002	6.612	169.0	0.466697122	0.552301535	0.007684666	0.079281278	0.024435260
2020-05-07T06:25:00	0.2006	6.624	169.0	0.468231333	0.554383696	0.007730532	0.079754478	0.024581105
2020-05-07T06:30:00	0.2014	6.636	169.0	0.470804183	0.557879643	0.007807752	0.080551142	0.024826644
2020-05-07T06:35:00	0.2006	6.648	169.0	0.468179152	0.554312847	0.007728970	0.079738361	0.024576137
2020-05-07T06:40:00	0.2002	6.664	169.0	0.466592710	0.552159901	0.007681549	0.079249125	0.024425350
2020-05-07T06:45:00	0.2010	6.681	169.0	0.469513352	0.556125026	0.007768963	0.080150958	0.024703304
2020-05-07T06:50:00	0.2010	6.694	169.0	0.469314004	0.555854171	0.007762981	0.080089243	0.024684283
2020-05-07T06:55:00	0.2006	6.703	169.0	0.468074786	0.554171152	0.007725846	0.079706130	0.024566203
2020-05-07T07:00:00	0.2003	6.709	169.0	0.467181896	0.552959246	0.007699144	0.079430648	0.024481297
2020-05-07T07:05:00	0.2001	6.724	169.0	0.466288768	0.551747652	0.007672480	0.079155563	0.024396513
2020-05-07T07:10:00	0.2003	6.745	169.0	0.467129698	0.552888419	0.007697584	0.079414558	0.024476338
2020-05-07T07:15:00	0.2011	6.763	169.0	0.469703388	0.556383257	0.007774667	0.080209811	0.024721443
2020-05-07T07:20:00	0.2014	6.780	169.0	0.470889868	0.557996161	0.007810331	0.080577741	0.024834842
2020-05-07T07:25:00	0.2003	6.810	170.0	0.467224784	0.553017444	0.007700425	0.079443870	0.024485372
2020-05-07T07:30:00	0.2005	6.842	170.0	0.467718789	0.553687888	0.007715194	0.079596239	0.024532334
2020-05-07T07:35:00	0.2002	6.858	171.0	0.466825804	0.552476106	0.007688508	0.079320915	0.024447476
2020-05-07T07:40:00	0.1995	6.892	170.0	0.464197673	0.548913398	0.007610230	0.078513339	0.024198574
2020-05-07T07:45:00	0.1998	6.938	171.0	0.465386091	0.550523745	0.007645578	0.078878014	0.024310970
2020-05-07T07:50:00	0.2003	6.976	171.0	0.466920899	0.552605120	0.007691347	0.079350212	0.024456506
2020-05-07T07:55:00	0.1993	7.013	172.0	0.463598648	0.548102122	0.007592443	0.078329839	0.024142017
2020-05-07T08:00:00	0.1992	7.058	170.0	0.463398949	0.547831728	0.007586518	0.078268712	0.024123177
2020-05-07T08:05:00	0.2003	7.108	171.0	0.467015992	0.552734137	0.007694187	0.079379514	0.024465537
2020-05-07T08:10:00	0.2005	7.166	172.0	0.467856740	0.553875143	0.007719321	0.079638813	0.024545456
2020-05-07T08:15:00	0.2001	7.225	171.0	0.466270147	0.551722397	0.007671925	0.079149832	0.024394747
2020-05-07T08:20:00	0.1999	7.278	171.0	0.465723710	0.550981434	0.007655634	0.078981767	0.024342947
2020-05-07T08:25:00	0.1999	7.325	172.0	0.465524137	0.550710874	0.007649689	0.078920428	0.024324042
2020-05-07T08:30:00	0.2002	7.386	172.0	0.466712088	0.552321837	0.007685112	0.079285888	0.024436681
2020-05-07T08:35:00	0.2010	7.463	172.0	0.469632626	0.556287099	0.007772543	0.080187894	0.024714688
2020-05-07T08:40:00	0.2010	7.542	173.0	0.469433285	0.556016234	0.007766560	0.080126167	0.024695663
2020-05-07T08:45:00	0.2014	7.623	173.0	0.470966253	0.558100037	0.007812629	0.080601456	0.024842152
2020-05-07T08:50:00	0.2024	7.691	174.0	0.474229174	0.562541627	0.007911135	0.081617726	0.025155376
2020-05-07T08:55:00	0.2024	7.781	174.0	0.474376147	0.562741891	0.007915587	0.081663650	0.025169530
2020-05-07T09:00:00	0.2021	7.858	174.0	0.473138786	0.561056416	0.007878149	0.081277414	0.025050488
2020-05-07T09:05:00	0.2024	7.900	174.0	0.474324060	0.562670917	0.007914009	0.081647373	0.025164513
2020-05-07T09:10:00	0.2019	7.993	174.0	0.472740505	0.560514154	0.007866118	0.081153285	0.025012231
2020-05-07T09:15:00	0.2016	8.075	174.0	0.471502545	0.558829473	0.007828778	0.080768058	0.024893500
2020-05-07T09:20:00	0.2017	8.132	175.0	0.471995924	0.559500744	0.007843649	0.080921479	0.024940786
2020-05-07T09:25:00	0.2013	8.209	176.0	0.470411277	0.557345428	0.007795935	0.080429229	0.024789069
2020-05-07T09:30:00	0.2007	8.271	176.0	0.468479272	0.554720363	0.007737957	0.079831080	0.024604714
2020-05-07T09:35:00	0.2008	8.351	176.0	0.468626496	0.554920295	0.007742368	0.079876583	0.024618739
2020-05-07T09:40:00	0.2004	8.418	176.0	0.467387026	0.553237610	0.007705274	0.079493895	0.024500790
2020-05-07T09:45:00	0.2006	8.479	176.0	0.468227682	0.554378738	0.007730423	0.079753350	0.024580757
2020-05-07T09:50:00	0.2002	8.554	176.0	0.466641263	0.552225762	0.007682998	0.079264076	0.024429958
2020-05-07T09:55:00	0.2004	8.604	177.0	0.467482105	0.553366645	0.007708117	0.079523219	0.024509828
2020-05-07T10:00:00	0.1996	8.656	177.0	0.464507464	0.549333067	0.007619436	0.078608321	0.024227848
2020-05-07T10:05:00	0.1997	8.715	177.0	0.464848276	0.549794848	0.007629571	0.078712878	0.024260074
2020-05-07T10:10:00	0.1991	8.772	184.0	0.462759393	0.546965975	0.007567558	0.078073105	0.024062889
2020-05-07T10:15:00	0.2006	8.825	177.0	0.467957460	0.554011871	0.007722335	0.079669905	0.024555038
2020-05-07T10:20:00	0.1996	8.893	178.0	0.464482622	0.549299411	0.007618698	0.078600702	0.024225500
2020-05-07T10:25:00	0.1996	8.946	178.0	0.464476412	0.549290997	0.007618513	0.078598798	0.024224913
2020-05-07T10:30:00	0.1999	8.999	178.0	0.465511170	0.550693296	0.007649302	0.078916444	0.024322814
2020-05-07T10:35:00	0.1999	9.056	179.0	0.465504961	0.550684879	0.007649118	0.078914536	0.024322226
2020-05-07T10:40:00	0.1991	9.118	180.0	0.462722110	0.546915517	0.007566454	0.078061710	0.024059377
2020-05-07T10:45:00	0.1999	9.183	179.0	0.465492544	0.550668047	0.007648748	0.078910720	0.024321050
2020-05-07T10:50:00	0.1998	9.243	179.0	0.465486335	0.550659630	0.007648563	0.078908813	0.024320462
2020-05-07T10:55:00	0.2004	9.312	180.0	0.467561119	0.553473883	0.007710479	0.079547592	0.024517340
2020-05-07T11:00:00	0.2002	9.383	180.0	0.466861392	0.552524386	0.007689570	0.079331878	0.024450855
2020-05-07T11:05:00	0.2004	9.450	180.0	0.467548710	0.553457040	0.007710108	0.079543764	0.024516161
2020-05-07T11:10:00	0.2003	9.533	180.0	0.467195760	0.552978059	0.007699558	0.079434922	0.024482614
2020-05-07T11:15:00	0.2007	9.605	181.0	0.468576323	0.554852157	0.007740865	0.079861075	0.024613959
2020-05-07T11:20:00	0.2022	9.699	181.0	0.473765441	0.561909864	0.007897098	0.081472908	0.025110742
2020-05-07T11:25:00	0.2001	9.781	181.0	0.466483543	0.552011824	0.007678291	0.079215514	0.024414991
2020-05-07T11:30:00	0.1997	9.874	182.0	0.465089704	0.550122025	0.007636754	0.078786988	0.024282915
2020-05-07T11:35:00	0.1994	9.967	182.0	0.464042394	0.548703071	0.007605617	0.078465752	0.024183907
2020-05-07T11:40:00	0.1992	10.073	182.0	0.463341935	0.547754536	0.007584827	0.078251265	0.024117800
2020-05-07T11:45:00	0.1985	10.181	183.0	0.460904724	0.544457184	0.007512708	0.077507218	0.023888477
2020-05-07T11:50:00	0.1985	10.290	184.0	0.460898507	0.544448778	0.007512524	0.077505325	0.023887894
2020-05-07T11:55:00	0.1988	10.397	185.0	0.461934365	0.545849632	0.007543134	0.077821127	0.023985227
2020-05-07T12:00:00	0.1986	10.497	185.0	0.461233468	0.544901673	0.007522416	0.077607375	0.023919347
2020-05-07T12:05:00	0.1992	10.603	185.0	0.463310872	0.547712480	0.007583906	0.078241760	0.024114870
2020-05-07T12:10:00	0.1988	10.698	185.0	0.461915719	0.545824409	0.007542583	0.077815437	0.023983473
2020-05-07T12:15:00	0.1987	10.794	186.0	0.461562179	0.545346205	0.007532129	0.077707586	0.023950233
2020-05-07T12:20:00	0.1980	10.884	186.0	0.459123679	0.542050543	0.007460219	0.076965700	0.023721576
2020-05-07T12:25:00	0.1981	10.970	186.0	0.459465036	0.542511608	0.007470265	0.077069344	0.023753520
2020-05-07T12:30:00	0.1971	11.056	187.0	0.455981416	0.537810672	0.007368054	0.076014858	0.023428518
2020-05-07T12:35:00	0.1974	11.141	187.0	0.457018789	0.539209543	0.007398419	0.076328123	0.023525069
2020-05-07T12:40:00	0.1971	11.211	188.0	0.455968963	0.537793885	0.007367690	0.076011102	0.023427360
2020-05-07T12:45:00	0.1968	11.288	188.0	0.454918809	0.536378656	0.007337015	0.075694629	0.023329820
2020-05-07T12:50:00	0.1962	11.355	188.0	0.452823746	0.533557868	0.007276005	0.075065198	0.023135823
2020-05-07T12:55:00	0.1973	11.417	189.0	0.456646059	0.538706828	0.007387502	0.076215494	0.023490355
2020-05-07T13:00:00	0.1967	11.463	189.0	0.454552074	0.535884635	0.007326317	0.075584262	0.023295804
2020-05-07T13:05:00	0.1952	11.502	189.0	0.449320748	0.528849169	0.007174552	0.074018530	0.022813230
2020-05-07T13:10:00	0.1956	11.537	189.0	0.450708667	0.530713641	0.007214665	0.074432368	0.022940779
2020-05-07T13:15:00	0.1960	11.573	189.0	0.452096012	0.532578858	0.007254871	0.074847164	0.023068623
2020-05-07T13:20:00	0.1954	11.597	189.0	0.449999186	0.529760364	0.007194146	0.074220680	0.022875534
2020-05-07T13:25:00	0.1951	11.614	189.0	0.448947161	0.528347568	0.007163773	0.073907330	0.022778957
2020-05-07T13:30:00	0.1957	11.612	189.0	0.451032175	0.531148445	0.007224031	0.074528991	0.022970559
2020-05-07T13:35:00	0.1954	11.610	189.0	0.449980474	0.529735228	0.007193605	0.074215100	0.022873815
2020-05-07T13:40:00	0.1951	11.603	191.0	0.448928443	0.528322439	0.007163234	0.073901760	0.022777240
2020-05-07T13:45:00	0.1950	11.588	189.0	0.448573533	0.527846020	0.007153002	0.073796199	0.022744705
2020-05-07T13:50:00	0.1953	11.573	189.0	0.449613199	0.529241909	0.007182995	0.074105636	0.022840077
2020-05-07T13:55:00	0.1951	11.562	189.0	0.448909725	0.528297310	0.007162694	0.073896191	0.022775524
2020-05-07T14:00:00	0.1965	11.546	189.0	0.453781103	0.534846421	0.007303853	0.075352502	0.023224373
2020-05-07T14:05:00	0.1962	11.532	189.0	0.452730264	0.533432084	0.007273288	0.075037173	0.023127185
2020-05-07T14:10:00	0.1966	11.515	189.0	0.454116774	0.535298388	0.007313629	0.075453365	0.023255460
2020-05-07T14:15:00	0.1963	11.501	189.0	0.453066040	0.533883914	0.007283048	0.075137860	0.023158218
2020-05-07T14:20:00	0.1968	11.487	189.0	0.454800471	0.536219234	0.007333562	0.075659007	0.023318841
2020-05-07T14:25:00	0.1960	11.478	189.0	0.452008743	0.532461484	0.007252338	0.074821039	0.023060571
2020-05-07T14:30:00	0.1968	11.462	189.0	0.454788014	0.536202453	0.007333199	0.075655258	0.023317685
2020-05-07T14:35:00	0.1969	11.457	189.0	0.455129812	0.536662942	0.007343173	0.075758164	0.023349402
2020-05-07T14:40:00	0.1967	11.445	189.0	0.454427494	0.535716840	0.007322685	0.075546789	0.023284254
2020-05-07T14:45:00	0.1969	11.423	189.0	0.455117356	0.536646160	0.007342810	0.075754413	0.023348246
2020-05-07T14:50:00	0.1968	11.397	189.0	0.454763100	0.536168891	0.007332472	0.075647760	0.023315374
2020-05-07T14:55:00	0.1961	11.373	189.0	0.452319659	0.532879683	0.007261362	0.074914137	0.023089265
2020-05-07T15:00:00	0.1969	11.349	188.0	0.455098673	0.536620986	0.007342264	0.075748786	0.023346512
2020-05-07T15:05:00	0.1970	11.322	189.0	0.455440439	0.537081517	0.007352244	0.075851745	0.023378245
2020-05-07T15:10:00	0.1974	11.298	189.0	0.456825830	0.538949278	0.007392766	0.076269806	0.023507095
2020-05-07T15:15:00	0.1979	11.272	188.0	0.458558322	0.541287129	0.007443595	0.076794196	0.023668717
2020-05-07T15:20:00	0.1973	11.244	188.0	0.456465529	0.538463380	0.007382217	0.076160972	0.023473551
2020-05-07T15:25:00	0.1973	11.207	188.0	0.456807156	0.538924092	0.007392219	0.076264163	0.023505356
2020-05-07T15:30:00	0.1974	11.174	188.0	0.457148749	0.539384850	0.007402227	0.076367413	0.023537178
2020-05-07T15:35:00	0.1977	11.140	188.0	0.458185762	0.540784191	0.007432650	0.076681281	0.023633915
2020-05-07T15:40:00	0.1975	11.102	188.0	0.457484083	0.539837255	0.007412058	0.076468838	0.023568439
2020-05-07T15:45:00	0.1977	11.061	187.0	0.458173318	0.540767394	0.007432285	0.076677511	0.023632753
2020-05-07T15:50:00	0.1973	11.025	188.0	0.456776033	0.538882116	0.007391308	0.076254759	0.023502457
2020-05-07T15:55:00	0.1986	10.991	187.0	0.461288668	0.544976317	0.007524046	0.077624199	0.023924532
2020-05-07T16:00:00	0.1971	10.951	187.0	0.456067833	0.537927171	0.007370581	0.076040930	0.023436553
2020-05-07T16:05:00	0.1973	10.910	186.0	0.456511115	0.538524852	0.007383551	0.076174738	0.023477794
2020-05-07T16:10:00	0.1973	10.874	187.0	0.456606502	0.538653483	0.007386344	0.076203546	0.023486673
2020-05-07T16:15:00	0.1969	10.837	187.0	0.455310216	0.536906031	0.007348441	0.075812507	0.023366151
2020-05-07T16:20:00	0.1968	10.802	188.0	0.455057640	0.536565700	0.007341066	0.075736429	0.023342703
2020-05-07T16:25:00	0.1973	10.768	216.0	0.456544803	0.538570279	0.007384537	0.076184911	0.023480929
2020-05-07T16:30:00	0.1973	10.734	186.0	0.456640188	0.538698911	0.007387330	0.076213721	0.023489809
2020-05-07T16:35:00	0.1972	10.699	186.0	0.456387712	0.538358450	0.007379940	0.076137476	0.023466309
2020-05-07T16:40:00	0.1974	10.668	187.0	0.456830952	0.538956186	0.007392916	0.076271354	0.023507572
2020-05-07T16:45:00	0.1974	10.634	185.0	0.456926329	0.539084829	0.007395710	0.076300177	0.023516456
2020-05-07T16:50:00	0.1974	10.599	185.0	0.457021704	0.539213475	0.007398504	0.076329005	0.023525341
2020-05-07T16:55:00	0.1978	10.564	185.0	0.458507999	0.541219189	0.007442116	0.076778939	0.023664015
2020-05-07T17:00:00	0.1983	10.533	185.0	0.459993636	0.543225761	0.007485834	0.077229973	0.023803028
2020-05-07T17:05:00	0.1983	10.501	185.0	0.460088924	0.543354521	0.007488643	0.077258947	0.023811958
2020-05-07T17:10:00	0.1977	10.469	185.0	0.458098651	0.540666611	0.007430092	0.076654891	0.023625782
2020-05-07T17:15:00	0.1978	10.438	185.0	0.458541666	0.541264642	0.007443105	0.076789146	0.023667161
2020-05-07T17:20:00	0.1975	10.406	185.0	0.457246126	0.539516214	0.007405081	0.076396859	0.023546254
2020-05-07T17:25:00	0.1978	10.375	184.0	0.458384668	0.541052691	0.007438492	0.076741555	0.023652493
2020-05-07T17:30:00	0.1973	10.344	184.0	0.456741245	0.538835198	0.007390289	0.076244249	0.023499218
2020-05-07T17:35:00	0.1973	10.312	185.0	0.456488775	0.538494727	0.007382897	0.076167991	0.023475715
2020-05-07T17:40:00	0.1969	10.282	184.0	0.455192444	0.536747334	0.007345002	0.075777029	0.023355216
2020-05-07T17:45:00	0.1969	10.255	184.0	0.455287868	0.536875916	0.007347788	0.075805774	0.023364076
2020-05-07T17:50:00	0.1970	10.229	184.0	0.455731254	0.537473463	0.007360741	0.075939409	0.023405263
2020-05-07T17:55:00	0.1966	10.201	184.0	0.454086532	0.535257665	0.007312748	0.075444275	0.023252658
2020-05-07T18:00:00	0.1965	10.171	184.0	0.453833863	0.534917455	0.007305389	0.075368351	0.023229258
2020-05-07T18:05:00	0.1963	10.140	184.0	0.453232988	0.534108598	0.007287902	0.075187946	0.023173655
2020-05-07T18:10:00	0.1967	10.110	184.0	0.454372891	0.535643299	0.007321093	0.075530367	0.023279193
2020-05-07T18:15:00	0.1962	10.081	184.0	0.452727503	0.533428369	0.007273208	0.075036345	0.023126930
2020-05-07T18:20:00	0.1956	10.051	184.0	0.450732861	0.530746156	0.007215365	0.074439592	0.022943005
2020-05-07T18:25:00	0.1958	10.022	183.0	0.451525249	0.531811312	0.007238317	0.074676378	0.023015985
2020-05-07T18:30:00	0.1971	9.992	184.0	0.455798643	0.537564297	0.007362711	0.075959730	0.023411527
2020-05-07T18:35:00	0.1974	9.960	184.0	0.456937675	0.539100132	0.007396042	0.076303606	0.023517512
2020-05-07T18:40:00	0.1977	9.928	183.0	0.458076321	0.540636472	0.007429437	0.076648127	0.023623697
2020-05-07T18:45:00	0.1992	9.894	182.0	0.463383025	0.547810167	0.007586046	0.078263839	0.024121675
2020-05-07T18:50:00	0.2001	9.861	182.0	0.466254236	0.551700819	0.007671450	0.079144936	0.024393238
2020-05-07T18:55:00	0.2011	9.827	183.0	0.469816062	0.556536378	0.007778051	0.080244716	0.024732201
2020-05-07T19:00:00	0.2010	9.797	182.0	0.469564571	0.556194622	0.007770500	0.080166818	0.024708192
2020-05-07T19:05:00	0.2018	9.763	183.0	0.472084285	0.559620984	0.007846314	0.080948971	0.024949259
2020-05-07T19:10:00	0.2024	9.729	181.0	0.474256100	0.562578315	0.007911951	0.081626138	0.025157969
2020-05-07T19:15:00	0.2029	9.697	181.0	0.476080686	0.565065731	0.007967303	0.082197194	0.025333973
2020-05-07T19:20:00	0.2030	9.666	182.0	0.476521345	0.565666868	0.007980699	0.082335405	0.025376572
2020-05-07T19:25:00	0.2025	9.635	182.0	0.474540749	0.562966197	0.007920574	0.081715098	0.025185387
2020-05-07T19:30:00	0.2031	9.605	181.0	0.476710987	0.565925621	0.007986468	0.082394921	0.025394915
2020-05-07T19:35:00	0.2034	9.574	181.0	0.477842978	0.567470739	0.008020946	0.082750620	0.025504545
2020-05-07T19:40:00	0.2036	9.544	181.0	0.478629016	0.568544247	0.008044930	0.082998058	0.025580808
2020-05-07T19:45:00	0.2026	9.512	181.0	0.474920245	0.563483422	0.007932077	0.081833773	0.025221964
2020-05-07T19:50:00	0.2028	9.483	181.0	0.475706962	0.564556026	0.007955950	0.082080066	0.025297874
2020-05-07T19:55:00	0.2037	9.452	183.0	0.478913298	0.568932618	0.008053613	0.083087637	0.025608417
2020-05-07T20:00:00	0.2040	9.422	181.0	0.479699088	0.570006457	0.008077637	0.083335494	0.025684809
2020-05-07T20:05:00	0.2042	9.393	180.0	0.480484696	0.571080540	0.008101692	0.083583659	0.025761296
2020-05-07T20:10:00	0.2038	9.362	181.0	0.479197556	0.569321020	0.008062299	0.083177257	0.025636038
2020-05-07T20:15:00	0.2044	9.333	181.0	0.481364811	0.572284418	0.008128682	0.083862112	0.025847117
2020-05-07T20:20:00	0.2044	9.302	180.0	0.481114178	0.571941523	0.008120991	0.083782769	0.025822663
2020-05-07T20:25:00	0.2049	9.271	180.0	0.482935073	0.574433858	0.008176947	0.084360052	0.026000587
2020-05-07T20:30:00	0.2051	9.241	180.0	0.483719932	0.575508943	0.008201124	0.084609484	0.026077465
2020-05-07T20:35:00	0.2044	9.210	180.0	0.481398251	0.572330172	0.008129708	0.083872700	0.025850381
2020-05-07T20:40:00	0.2048	9.180	180.0	0.482528677	0.573877377	0.008164442	0.084231041	0.025960825
2020-05-07T20:45:00	0.2042	9.150	179.0	0.480551593	0.571172024	0.008103742	0.083604808	0.025767814
2020-05-07T20:50:00	0.2039	9.119	179.0	0.479609987	0.569884670	0.008074911	0.083307371	0.025676141
2020-05-07T20:55:00	0.2037	9.089	179.0	0.478668120	0.568597664	0.008046124	0.083010377	0.025584604
2020-05-07T21:00:00	0.2030	9.058	179.0	0.476342973	0.565423519	0.007975275	0.082279446	0.025359324
2020-05-07T21:05:00	0.2025	9.027	179.0	0.474708283	0.563194518	0.007925651	0.081767478	0.025201531
2020-05-07T21:10:00	0.2028	8.997	179.0	0.475840944	0.564738744	0.007960019	0.082122047	0.025310813
2020-05-07T21:15:00	0.2028	8.966	179.0	0.475589901	0.564396394	0.007952395	0.082043395	0.025286571
2020-05-07T21:20:00	0.2028	8.936	182.0	0.475684749	0.564525734	0.007955275	0.082073107	0.025295729
2020-05-07T21:25:00	0.2042	8.906	179.0	0.480618489	0.571263510	0.008105792	0.083625959	0.025774333
2020-05-07T21:30:00	0.2045	8.875	179.0	0.481749174	0.572810368	0.008140483	0.083983861	0.025884641
2020-05-07T21:35:00	0.2042	8.844	179.0	0.480462514	0.571050206	0.008101012	0.083576647	0.025759134
2020-05-07T21:40:00	0.2028	8.813	179.0	0.475718245	0.564571413	0.007956292	0.082083601	0.025298963
2020-05-07T21:45:00	0.2034	8.784	178.0	0.477887728	0.567531842	0.008022310	0.082764697	0.025508883
2020-05-07T21:50:00	0.2034	8.755	178.0	0.477636837	0.567189290	0.008014662	0.082685789	0.025484563
2020-05-07T21:55:00	0.2029	8.725	178.0	0.476002772	0.564959458	0.007964935	0.082172768	0.025326445
2020-05-07T22:00:00	0.2021	8.694	177.0	0.473329676	0.561316358	0.007883919	0.081336941	0.025068835
2020-05-07T22:05:00	0.2019	8.663	178.0	0.472533112	0.560231838	0.007859856	0.081088686	0.024992320
2020-05-07T22:10:00	0.2020	8.632	177.0	0.472775089	0.560561235	0.007867162	0.081164060	0.025015552
2020-05-07T22:15:00	0.2019	8.601	177.0	0.472670865	0.560419353	0.007864015	0.081131591	0.025005544
2020-05-07T22:20:00	0.2021	8.570	177.0	0.473258991	0.561220099	0.007881782	0.081314896	0.025062041
2020-05-07T22:25:00	0.2029	8.539	177.0	0.475922858	0.564850462	0.007962507	0.082147719	0.025318725
2020-05-07T22:30:00	0.2025	8.510	177.0	0.474780937	0.563293542	0.007927853	0.081790199	0.025208534
2020-05-07T22:35:00	0.2027	8.480	176.0	0.475368695	0.564094775	0.007945681	0.081974122	0.025265221
2020-05-07T22:40:00	0.2028	8.452	177.0	0.475610469	0.564424442	0.007953020	0.082049838	0.025288557
2020-05-07T22:45:00	0.2030	8.425	176.0	0.476543905	0.565697649	0.007981386	0.082342484	0.025378753
2020-05-07T22:50:00	0.2032	8.399	176.0	0.477131357	0.566499289	0.007999263	0.082526923	0.025435599
2020-05-07T22:55:00	0.2036	8.370	176.0	0.478410006	0.568245090	0.008038244	0.082929079	0.025559547
2020-05-07T23:00:00	0.2039	8.342	176.0	0.479342670	0.569519325	0.008066736	0.083223026	0.025650145
2020-05-07T23:05:00	0.2033	8.314	176.0	0.477510562	0.567016900	0.008010814	0.082646089	0.025472327
2020-05-07T23:10:00	0.2030	8.287	176.0	0.476369177	0.565459267	0.007976072	0.082287665	0.025361858
2020-05-07T23:15:00	0.2029	8.259	175.0	0.475919214	0.564845493	0.007962397	0.082146577	0.025318373
2020-05-07T23:20:00	0.2022	8.230	175.0	0.473739178	0.561874089	0.007896304	0.081464711	0.025108215
2020-05-07T23:25:00	0.2022	8.203	177.0	0.473634984	0.561732168	0.007893152	0.081432191	0.025098192
2020-05-07T23:30:00	0.2019	8.176	175.0	0.472492290	0.560176273	0.007858624	0.081075974	0.024988402
2020-05-07T23:35:00	0.2013	8.149	175.0	0.470656466	0.557678785	0.007803309	0.080505297	0.024812514
2020-05-07T23:40:00	0.2018	8.123	175.0	0.472283823	0.559892536	0.007852333	0.081011070	0.024968399
2020-05-07T23:45:00	0.2015	8.097	175.0	0.471140672	0.558337247	0.007817880	0.080655622	0.024858846
2020-05-07T23:50:00	0.2007	8.071	175.0	0.468610949	0.554899182	0.007741902	0.079871778	0.024617258
2020-05-07T23:55:00	0.2007	8.048	174.0	0.468506597	0.554757469	0.007738776	0.079839525	0.024607317
2020-05-08T00:00:00	0.2014	8.026	171.0	0.470827841	0.557911813	0.007808464	0.080558486	0.024828908
2020-05-08T00:05:00	0.2008	8.003	175.0	0.468644515	0.554944767	0.007742908	0.079882154	0.024620456
2020-05-08T00:10:00	0.2008	7.979	174.0	0.468886771	0.555273796	0.007750168	0.079957059	0.024643542
2020-05-08T00:15:00	0.2007	7.956	174.0	0.468435810	0.554661344	0.007736656	0.079817650	0.024600575
2020-05-08T00:20:00	0.1998	7.932	174.0	0.465210196	0.550285330	0.007640341	0.078823987	0.024294318
2020-05-08T00:25:00	0.1994	7.910	173.0	0.464064644	0.548733209	0.007606278	0.078472570	0.024186008
2020-05-08T00:30:00	0.1995	7.889	174.0	0.464307229	0.549061803	0.007613485	0.078546923	0.024208924
2020-05-08T00:35:00	0.1998	7.869	173.0	0.465243796	0.550330871	0.007641341	0.078834306	0.024297499
2020-05-08T00:40:00	0.2000	7.849	199.0	0.466180102	0.551600280	0.007669239	0.079122125	0.024386207
2020-05-08T00:45:00	0.2000	7.826	174.0	0.466075675	0.551458667	0.007666125	0.079089999	0.024376306
2020-05-08T00:50:00	0.1997	7.803	173.0	0.464930418	0.549906159	0.007632015	0.078738089	0.024267844
2020-05-08T00:55:00	0.1996	7.781	173.0	0.464478927	0.549294405	0.007618588	0.078599569	0.024225151
2020-05-08T01:00:00	0.1990	7.758	174.0	0.462638735	0.546802680	0.007563984	0.078036229	0.024051524
2020-05-08T01:05:00	0.1993	7.736	173.0	0.463575765	0.548071137	0.007591764	0.078322834	0.024139858
2020-05-08T01:10:00	0.1992	7.715	173.0	0.463124093	0.547459622	0.007578367	0.078184619	0.024097259
2020-05-08T01:15:00	0.1991	7.694	173.0	0.463019571	0.547318134	0.007575269	0.078152651	0.024087406
2020-05-08T01:20:00	0.1992	7.675	173.0	0.463262232	0.547646629	0.007582463	0.078226877	0.024110283
2020-05-08T01:25:00	0.1985	7.655	173.0	0.460726587	0.544216363	0.007507450	0.077452973	0.023871758
2020-05-08T01:30:00	0.1984	7.637	173.0	0.460621991	0.544074972	0.007504363	0.077421130	0.023861944
2020-05-08T01:35:00	0.1981	7.621	173.0	0.459474877	0.542524902	0.007470554	0.077072333	0.023754441
2020-05-08T01:40:00	0.1979	7.605	176.0	0.458675031	0.541444704	0.007447025	0.076829585	0.023679624
2020-05-08T01:45:00	0.1982	7.589	173.0	0.459613166	0.542711713	0.007474626	0.077114340	0.023767389
2020-05-08T01:50:00	0.1986	7.573	172.0	0.461245861	0.544918432	0.007522782	0.077611152	0.023920511
2020-05-08T01:55:00	0.1982	7.558	173.0	0.459751448	0.542898532	0.007478699	0.077156357	0.023780339
2020-05-08T02:00:00	0.1984	7.541	172.0	0.460341831	0.543696303	0.007496099	0.077335872	0.023835667
2020-05-08T02:05:00	0.1988	7.523	172.0	0.461974174	0.545903485	0.007544312	0.077833276	0.023988972
2020-05-08T02:10:00	0.1984	7.504	172.0	0.460480084	0.543883160	0.007500177	0.077377939	0.023848632
2020-05-08T02:15:00	0.1977	7.487	173.0	0.457942341	0.540455644	0.007425503	0.076607549	0.023611191
2020-05-08T02:20:00	0.1975	7.468	172.0	0.457489912	0.539845121	0.007412229	0.076470602	0.023568982
2020-05-08T02:25:00	0.1974	7.449	172.0	0.457037423	0.539234677	0.007398965	0.076333756	0.023526805
2020-05-08T02:30:00	0.1974	7.431	172.0	0.456932712	0.539093437	0.007395897	0.076302106	0.023517050
2020-05-08T02:35:00	0.1978	7.412	173.0	0.458219039	0.540829108	0.007433627	0.076691363	0.023637023
2020-05-08T02:40:00	0.1983	7.394	173.0	0.460199913	0.543504506	0.007491914	0.077292701	0.023822361
2020-05-08T02:45:00	0.1981	7.375	175.0	0.459400239	0.542424082	0.007468357	0.077049665	0.023747455
2020-05-08T02:50:00	0.1987	7.360	172.0	0.461380418	0.545100390	0.007526757	0.077652167	0.023933152
2020-05-08T02:55:00	0.1978	7.344	172.0	0.458495713	0.541202602	0.007441755	0.076775215	0.023662867
2020-05-08T03:00:00	0.1976	7.329	172.0	0.457695634	0.540122708	0.007418264	0.076532857	0.023588170
2020-05-08T03:05:00	0.1970	7.312	172.0	0.455503775	0.537166872	0.007354094	0.075870833	0.023384128
2020-05-08T03:10:00	0.1968	7.298	173.0	0.455051017	0.536556778	0.007340873	0.075734435	0.023342088
2020-05-08T03:15:00	0.1969	7.283	172.0	0.455294254	0.536884520	0.007347974	0.075807698	0.023364669
2020-05-08T03:20:00	0.1975	7.270	172.0	0.457276852	0.539557665	0.007405982	0.076406151	0.023549118
2020-05-08T03:25:00	0.1972	7.257	171.0	0.456128596	0.538009089	0.007372359	0.076059265	0.023442204
2020-05-08T03:30:00	0.1972	7.243	167.0	0.456371754	0.538336933	0.007379473	0.076132658	0.023464825
2020-05-08T03:35:00	0.1967	7.231	172.0	0.454527119	0.535851023	0.007325589	0.075576755	0.023293490
2020-05-08T03:40:00	0.1971	7.219	171.0	0.455814367	0.537585491	0.007363170	0.075964472	0.023412988
2020-05-08T03:45:00	0.1971	7.208	171.0	0.456057548	0.537913306	0.007370281	0.076037827	0.023435597
2020-05-08T03:50:00	0.1970	7.198	171.0	0.455604865	0.537303114	0.007357048	0.075901304	0.023393519
2020-05-08T03:55:00	0.1970	7.189	171.0	0.455500110	0.537161932	0.007353987	0.075869729	0.023383787
2020-05-08T04:00:00	0.1974	7.184	171.0	0.457134804	0.539366038	0.007401818	0.076363197	0.023535879
2020-05-08T04:05:00	0.1980	7.179	171.0	0.459211629	0.542169328	0.007462806	0.076992397	0.023729805
2020-05-08T04:10:00	0.1973	7.174	171.0	0.456768311	0.538871701	0.007391082	0.076252426	0.023501738
2020-05-08T04:15:00	0.1982	7.168	171.0	0.459888072	0.543083124	0.007482724	0.077197882	0.023793137
2020-05-08T04:20:00	0.1985	7.162	171.0	0.460921133	0.544479367	0.007513192	0.077512216	0.023890018
2020-05-08T04:25:00	0.1981	7.157	171.0	0.459521879	0.542588395	0.007471938	0.077086609	0.023758842
2020-05-08T04:30:00	0.1987	7.154	171.0	0.461597232	0.545393613	0.007533165	0.077718276	0.023953527
2020-05-08T04:35:00	0.1989	7.152	171.0	0.462282517	0.546320650	0.007553436	0.077927410	0.024017985
2020-05-08T04:40:00	0.1994	7.150	170.0	0.464009096	0.548657972	0.007604628	0.078455550	0.024180762
2020-05-08T04:45:00	0.1996	7.150	170.0	0.464693891	0.549585653	0.007624979	0.078665506	0.024245473
2020-05-08T04:50:00	0.1996	7.151	170.0	0.464684576	0.549573032	0.007624702	0.078662648	0.024244592
2020-05-08T04:55:00	0.1997	7.155	170.0	0.465022265	0.550030628	0.007634748	0.078766283	0.024276533
2020-05-08T05:00:00	0.2002	7.160	170.0	0.466747440	0.552369796	0.007686168	0.079296776	0.024440037
2020-05-08T05:05:00	0.2005	7.166	171.0	0.467778400	0.553768801	0.007716978	0.079614635	0.024538004
2020-05-08T05:10:00	0.2010	7.174	169.0	0.469502167	0.556109827	0.007768627	0.080147494	0.024702236
2020-05-08T05:15:00	0.2010	7.184	170.0	0.469492865	0.556097188	0.007768348	0.080144614	0.024701348
2020-05-08T05:20:00	0.2014	7.194	170.0	0.470869389	0.557968312	0.007809714	0.080571383	0.024832883
2020-05-08T05:25:00	0.2007	7.209	171.0	0.468434515	0.554659585	0.007736617	0.079817250	0.024600452
2020-05-08T05:30:00	0.2011	7.221	171.0	0.469811470	0.556530138	0.007777913	0.080243293	0.024731762
2020-05-08T05:35:00	0.2011	7.235	172.0	0.469802169	0.556517498	0.007777634	0.080240412	0.024730874
2020-05-08T05:40:00	0.2014	7.249	171.0	0.470832196	0.557917735	0.007808595	0.080559837	0.024829324
2020-05-08T05:45:00	0.2014	7.265	171.0	0.470822898	0.557905091	0.007808315	0.080556951	0.024828435
2020-05-08T05:50:00	0.2014	7.281	172.0	0.470813599	0.557892447	0.007808036	0.080554065	0.024827545
2020-05-08T05:55:00	0.2016	7.300	173.0	0.471497014	0.558821949	0.007828611	0.080766339	0.024892970
2020-05-08T06:00:00	0.2017	7.318	172.0	0.471834022	0.559280445	0.007838767	0.080871118	0.024925264
2020-05-08T06:05:00	0.2019	7.338	173.0	0.472517230	0.560210220	0.007859377	0.081083740	0.024990796
2020-05-08T06:10:00	0.2026	7.355	172.0	0.474930590	0.563497523	0.007932390	0.081837010	0.025222961
2020-05-08T06:15:00	0.2024	7.371	171.0	0.474229291	0.562541788	0.007911139	0.081617762	0.025155387
2020-05-08T06:20:00	0.2022	7.388	174.0	0.473527847	0.561586246	0.007889911	0.081398760	0.025087888
2020-05-08T06:25:00	0.2031	7.403	171.0	0.476632147	0.565818046	0.007984070	0.082370176	0.025387288
2020-05-08T06:30:00	0.2026	7.422	172.0	0.474893442	0.563446887	0.007931264	0.081825389	0.025219379
2020-05-08T06:35:00	0.2018	7.443	172.0	0.472115228	0.559663092	0.007847247	0.080958599	0.024952227
2020-05-08T06:40:00	0.2014	7.466	172.0	0.470720615	0.557766009	0.007805238	0.080525204	0.024818650
2020-05-08T06:45:00	0.2011	7.496	172.0	0.469671952	0.556340537	0.007773724	0.080200074	0.024718442
2020-05-08T06:50:00	0.2010	7.524	172.0	0.469316123	0.555857050	0.007763045	0.080089899	0.024684485
2020-05-08T06:55:00	0.2010	7.551	172.0	0.469306821	0.555844412	0.007762765	0.080087020	0.024683597
2020-05-08T07:00:00	0.2007	7.580	172.0	0.468604354	0.554890224	0.007741705	0.079869739	0.024616629
2020-05-08T07:05:00	0.2005	7.611	172.0	0.467901740	0.553936230	0.007720668	0.079652704	0.024549737
2020-05-08T07:10:00	0.2007	7.643	172.0	0.468585745	0.554864953	0.007741147	0.079863987	0.024614856
2020-05-08T07:15:00	0.2004	7.673	172.0	0.467536418	0.553440358	0.007709741	0.079539972	0.024514992
2020-05-08T07:20:00	0.1999	7.705	172.0	0.465793021	0.551075407	0.007657700	0.079003075	0.024349515
2020-05-08T07:25:00	0.1995	7.754	173.0	0.464395792	0.549181777	0.007616117	0.078574076	0.024217293
2020-05-08T07:30:00	0.1991	7.798	174.0	0.462997982	0.547288910	0.007574629	0.078146049	0.024085371
2020-05-08T07:35:00	0.1988	7.835	174.0	0.461946914	0.545866608	0.007543506	0.077824956	0.023986407
2020-05-08T07:40:00	0.1988	7.881	175.0	0.461937591	0.545853996	0.007543230	0.077822111	0.023985531
2020-05-08T07:45:00	0.1985	7.935	173.0	0.460886191	0.544432128	0.007512160	0.077501574	0.023886738
2020-05-08T07:50:00	0.1991	7.982	174.0	0.462960703	0.547238449	0.007573524	0.078134649	0.024081858
2020-05-08T07:55:00	0.1990	8.044	174.0	0.462604165	0.546755895	0.007562960	0.078025665	0.024048268
2020-05-08T08:00:00	0.1990	8.110	174.0	0.462594844	0.546743281	0.007562684	0.078022817	0.024047390
2020-05-08T08:05:00	0.1990	8.185	175.0	0.462585523	0.546730667	0.007562408	0.078019969	0.024046512
2020-05-08T08:10:00	0.1995	8.256	175.0	0.464311947	0.549068193	0.007613625	0.078548369	0.024209370
2020-05-08T08:15:00	0.1985	8.312	175.0	0.460830236	0.544356481	0.007510509	0.077484533	0.023881486
2020-05-08T08:20:00	0.1982	8.370	175.0	0.459778490	0.542935067	0.007479495	0.077164575	0.023782872
2020-05-08T08:25:00	0.1977	8.440	176.0	0.458031071	0.540575398	0.007428108	0.076634421	0.023619473
2020-05-08T08:30:00	0.1985	8.501	176.0	0.460802258	0.544318658	0.007509683	0.077476014	0.023878860
2020-05-08T08:35:00	0.1981	8.555	176.0	0.459402955	0.542427751	0.007468437	0.077050489	0.023747709
2020-05-08T08:40:00	0.1977	8.629	176.0	0.458003070	0.540537606	0.007427286	0.076625941	0.023616859
2020-05-08T08:45:00	0.1976	8.724	177.0	0.457646007	0.540055742	0.007416808	0.076517837	0.023583540
2020-05-08T08:50:00	0.1970	8.800	177.0	0.455549532	0.537228539	0.007355431	0.075884625	0.023388378
2020-05-08T08:55:00	0.1964	8.892	177.0	0.453451748	0.534403045	0.007294266	0.075253601	0.023193891
2020-05-08T09:00:00	0.1962	8.996	178.0	0.452745963	0.533453207	0.007273744	0.075041879	0.023128636
2020-05-08T09:05:00	0.1961	9.074	179.0	0.452388340	0.532972072	0.007263357	0.074934710	0.023095605
2020-05-08T09:10:00	0.1964	9.168	178.0	0.453423709	0.534365302	0.007293451	0.075245185	0.023191297
2020-05-08T09:15:00	0.1963	9.259	178.0	0.453066158	0.533884073	0.007283051	0.075137895	0.023158229
2020-05-08T09:20:00	0.1958	9.341	179.0	0.451315243	0.531528965	0.007232230	0.074613586	0.022996632
2020-05-08T09:25:00	0.1952	9.434	179.0	0.449214808	0.528706917	0.007171495	0.073986988	0.022803508
2020-05-08T09:30:00	0.1965	9.529	182.0	0.453734494	0.534783671	0.007302496	0.075338502	0.023220058
2020-05-08T09:35:00	0.1961	9.628	180.0	0.452332243	0.532896611	0.007261728	0.074917907	0.023090426
2020-05-08T09:40:00	0.1953	9.725	182.0	0.449535341	0.529137345	0.007180747	0.074082441	0.022832928
2020-05-08T09:45:00	0.1961	9.820	181.0	0.452313544	0.532871457	0.007261185	0.074912306	0.023088700
2020-05-08T09:50:00	0.1960	9.917	182.0	0.451955875	0.532390382	0.007250805	0.074805214	0.023055694
2020-05-08T09:55:00	0.1965	9.997	181.0	0.453687765	0.534720762	0.007301135	0.075324468	0.023215732
2020-05-08T10:00:00	0.1967	10.072	183.0	0.454374665	0.535645689	0.007321145	0.075530901	0.023279357
2020-05-08T10:05:00	0.1954	10.145	182.0	0.449942063	0.529683629	0.007192495	0.074203648	0.022870285
2020-05-08T10:10:00	0.1953	10.215	182.0	0.449689081	0.529343824	0.007185187	0.074128246	0.022847045
2020-05-08T10:15:00	0.1956	10.294	183.0	0.450830188	0.530876959	0.007218182	0.074468656	0.022951963
2020-05-08T10:20:00	0.1941	10.372	183.0	0.445345982	0.523518028	0.007060281	0.072839616	0.022449877
2020-05-08T10:25:00	0.1947	10.436	184.0	0.447535125	0.526452669	0.007123106	0.073487769	0.022649644
2020-05-08T10:30:00	0.1956	10.509	184.0	0.450768382	0.530793894	0.007216393	0.074450199	0.022946274
2020-05-08T10:35:00	0.1954	10.586	185.0	0.450166958	0.529985751	0.007198996	0.074270711	0.022890955
2020-05-08T10:40:00	0.1953	10.658	185.0	0.449565426	0.529177749	0.007181616	0.074091404	0.022835690
2020-05-08T10:45:00	0.1949	10.733	185.0	0.448266417	0.527433839	0.007144153	0.073704913	0.022716570
2020-05-08T10:50:00	0.1950	10.812	185.0	0.448710731	0.528030178	0.007156956	0.073836997	0.022757280
2020-05-08T10:55:00	0.1955	10.901	185.0	0.450200709	0.530031095	0.007199971	0.074280778	0.022894057
2020-05-08T11:00:00	0.1948	10.977	185.0	0.447855818	0.526882889	0.007132332	0.073582954	0.022678981
2020-05-08T11:05:00	0.1942	11.047	187.0	0.445858274	0.524204439	0.007074958	0.072991041	0.022496548
2020-05-08T11:10:00	0.1942	11.119	186.0	0.445953964	0.524332676	0.007077702	0.073019343	0.022505271
2020-05-08T11:15:00	0.1948	11.189	186.0	0.447793957	0.526799895	0.007130552	0.073564589	0.022673321
2020-05-08T11:20:00	0.1944	11.262	187.0	0.446494260	0.525056875	0.007093201	0.073179243	0.022554554
2020-05-08T11:25:00	0.1941	11.334	188.0	0.445543082	0.523782093	0.007065926	0.072897857	0.022467828
2020-05-08T11:30:00	0.1946	11.419	188.0	0.447383300	0.526249020	0.007118740	0.073442727	0.022635762
2020-05-08T11:35:00	0.1940	11.509	188.0	0.445036435	0.523103370	0.007051419	0.072748193	0.022421700
2020-05-08T11:40:00	0.1934	11.595	188.0	0.443037207	0.520427095	0.006994317	0.072159084	0.022240130
2020-05-08T11:45:00	0.1926	11.686	189.0	0.440504059	0.516818641	0.006919320	0.071385350	0.022001658
2020-05-08T11:50:00	0.1930	11.788	190.0	0.441482059	0.518347460	0.006950056	0.071702450	0.022099391
2020-05-08T11:55:00	0.1925	11.883	190.0	0.440109780	0.516141283	0.006906127	0.071249243	0.021959709
2020-05-08T12:00:00	0.1917	11.981	190.0	0.438009738	0.512540813	0.006836119	0.070526978	0.021737100
2020-05-08T12:05:00	0.1915	12.082	191.0	0.437540271	0.511737608	0.006820528	0.070366130	0.021687525
2020-05-08T12:10:00	0.1915	12.175	191.0	0.437342794	0.511399933	0.006813976	0.070298538	0.021666692
2020-05-08T12:15:00	0.1919	12.277	192.0	0.438505407	0.513389512	0.006852603	0.070697047	0.021789516
2020-05-08T12:20:00	0.1919	12.373	192.0	0.438579966	0.513517235	0.006855085	0.070722651	0.021797408
2020-05-08T12:25:00	0.1929	12.468	193.0	0.441453919	0.518309848	0.006949257	0.071694200	0.022096849
2020-05-08T12:30:00	0.1920	12.551	193.0	0.438729075	0.513772709	0.006860050	0.070773872	0.021813195
2020-05-08T12:35:00	0.1905	12.635	193.0	0.434720688	0.506926584	0.006727348	0.069404812	0.021391237
2020-05-08T12:40:00	0.1890	12.716	193.0	0.430702618	0.500108903	0.006595913	0.068048816	0.020973306
2020-05-08T12:45:00	0.1897	12.805	194.0	0.432415787	0.503010231	0.006651759	0.068624969	0.021150882
2020-05-08T12:50:00	0.1902	12.888	194.0	0.433854536	0.505453133	0.006698882	0.069111126	0.021300720
2020-05-08T12:55:00	0.1906	12.948	195.0	0.435019582	0.507435532	0.006737189	0.069506335	0.021422528
2020-05-08T13:00:00	0.1898	12.987	194.0	0.432913123	0.503854022	0.006668025	0.068792782	0.021202604
2020-05-08T13:05:00	0.1891	13.015	195.0	0.430803983	0.500280341	0.006599209	0.068082823	0.020983787
2020-05-08T13:10:00	0.1890	13.044	195.0	0.430605704	0.499945018	0.006592762	0.068016311	0.020963288
2020-05-08T13:15:00	0.1896	13.081	195.0	0.432318973	0.502846054	0.006648595	0.068592330	0.021140822
2020-05-08T13:20:00	0.1886	13.121	195.0	0.429662438	0.498351296	0.006562145	0.067700441	0.020865933
2020-05-08T13:25:00	0.1888	13.157	195.0	0.430010724	0.498939464	0.006573440	0.067816966	0.020901848
2020-05-08T13:30:00	0.1892	13.183	196.0	0.431178476	0.500913969	0.006611396	0.068208553	0.021022539
2020-05-08T13:35:00	0.1892	13.200	196.0	0.431253364	0.501040725	0.006613835	0.068233713	0.021030293
2020-05-08T13:40:00	0.1881	13.203	196.0	0.428047938	0.495629211	0.006509942	0.067161875	0.020699942
2020-05-08T13:45:00	0.1889	13.189	196.0	0.430310469	0.499445929	0.006583170	0.067917350	0.020932787
2020-05-08T13:50:00	0.1878	13.172	196.0	0.427376970	0.494500074	0.006488322	0.066938825	0.020631196
2020-05-08T13:55:00	0.1873	13.143	196.0	0.426082803	0.492325716	0.006446745	0.066509881	0.020498991
2020-05-08T14:00:00	0.1884	13.110	196.0	0.428895114	0.497056667	0.006537303	0.067444149	0.020786942
2020-05-08T14:05:00	0.1877	13.085	195.0	0.427054641	0.493958086	0.006477952	0.066831833	0.020598220
2020-05-08T14:10:00	0.1867	13.062	195.0	0.424389571	0.489487896	0.006392593	0.065951205	0.020326802
2020-05-08T14:15:00	0.1864	13.047	195.0	0.423641866	0.488237288	0.006368769	0.065705416	0.020251047
2020-05-08T14:20:00	0.1868	13.039	195.0	0.424539965	0.489739632	0.006397392	0.066000711	0.020342060
2020-05-08T14:25:00	0.1872	13.034	195.0	0.425711616	0.491702934	0.006434850	0.066387163	0.020461168
2020-05-08T14:30:00	0.1869	13.027	195.0	0.424964517	0.490450601	0.006410950	0.066140585	0.020385171
2020-05-08T14:35:00	0.1869	13.021	195.0	0.424765531	0.490117310	0.006404593	0.066075004	0.020364958
2020-05-08T14:40:00	0.1868	13.010	195.0	0.424566521	0.489784088	0.006398239	0.066009455	0.020344755
2020-05-08T14:45:00	0.1873	12.995	195.0	0.426012147	0.492207139	0.006444480	0.066486511	0.020491788
2020-05-08T14:50:00	0.1868	12.981	195.0	0.424716899	0.490035870	0.006403040	0.066058982	0.020360020
2020-05-08T14:55:00	0.1862	12.958	195.0	0.422871712	0.486950751	0.006344286	0.065452832	0.020173198
2020-05-08T15:00:00	0.1869	12.929	194.0	0.424867263	0.490287692	0.006407842	0.066108527	0.020375290
2020-05-08T15:05:00	0.1874	12.904	195.0	0.426312623	0.492711502	0.006454117	0.066585931	0.020522431
2020-05-08T15:10:00	0.1875	12.878	194.0	0.426387733	0.492837617	0.006456527	0.066610797	0.020530095
2020-05-08T15:15:00	0.1879	12.853	195.0	0.427558061	0.494804699	0.006494153	0.066998980	0.020649736
2020-05-08T15:20:00	0.1872	12.824	195.0	0.425716085	0.491710430	0.006434993	0.066388640	0.020461624
2020-05-08T15:25:00	0.1869	12.796	194.0	0.424968988	0.490458092	0.006411092	0.066142059	0.020385625
2020-05-08T15:30:00	0.1874	12.770	194.0	0.426140331	0.492422271	0.006448590	0.066528912	0.020504857
2020-05-08T15:35:00	0.1869	12.745	194.0	0.424845184	0.490250712	0.006407137	0.066101251	0.020373047
2020-05-08T15:40:00	0.1864	12.720	194.0	0.423549008	0.488082082	0.006365814	0.065674931	0.020241651
2020-05-08T15:45:00	0.1855	12.687	194.0	0.421153006	0.484085581	0.006289856	0.064891288	0.020000125
2020-05-08T15:50:00	0.1854	12.654	194.0	0.420678704	0.483296334	0.006274886	0.064736840	0.019952523
2020-05-08T15:55:00	0.1853	12.624	193.0	0.420479192	0.482964529	0.006268595	0.064671940	0.019932520
2020-05-08T16:00:00	0.1857	12.593	194.0	0.421653772	0.484919539	0.006305686	0.065054597	0.020050458
2020-05-08T16:05:00	0.1848	12.560	193.0	0.418984749	0.480482639	0.006221596	0.064187061	0.019783076
2020-05-08T16:10:00	0.1850	12.526	193.0	0.419615323	0.481529109	0.006241401	0.064391383	0.019846049
2020-05-08T16:15:00	0.1841	12.490	193.0	0.417218410	0.477557149	0.006166323	0.063616822	0.019607322
2020-05-08T16:20:00	0.1841	12.455	193.0	0.417298872	0.477690227	0.006168835	0.063642731	0.019615308
2020-05-08T16:25:00	0.1839	12.419	192.0	0.416552813	0.476456990	0.006145573	0.063402745	0.019541342
2020-05-08T16:30:00	0.1841	12.383	192.0	0.417184339	0.477500805	0.006165260	0.063605854	0.019603942
2020-05-08T16:35:00	0.1831	12.349	192.0	0.414507890	0.473084594	0.006082087	0.062747773	0.019339473
2020-05-08T16:40:00	0.1831	12.317	192.0	0.414312550	0.472763050	0.006076044	0.062685423	0.019320256
2020-05-08T16:45:00	0.1832	12.283	192.0	0.414669083	0.473350008	0.006087077	0.062799252	0.019355339
2020-05-08T16:50:00	0.1834	12.248	192.0	0.415301352	0.474391769	0.006106673	0.063001422	0.019417650
2020-05-08T16:55:00	0.1836	12.210	192.0	0.415933371	0.475434219	0.006126300	0.063203907	0.019480058
2020-05-08T17:00:00	0.1836	12.176	192.0	0.415738205	0.475112195	0.006120235	0.063141338	0.019460774
2020-05-08T17:05:00	0.1834	12.141	192.0	0.415267241	0.474335537	0.006105615	0.062990505	0.019414285
2020-05-08T17:10:00	0.1836	12.105	193.0	0.415899274	0.475377950	0.006125240	0.063192973	0.019476688
2020-05-08T17:15:00	0.1837	12.067	192.0	0.415979802	0.475510844	0.006127743	0.063218798	0.019484647
2020-05-08T17:20:00	0.1846	12.031	191.0	0.418539363	0.479744160	0.006207631	0.064042982	0.019738669
2020-05-08T17:25:00	0.1845	11.992	191.0	0.418344513	0.479421257	0.006201527	0.063980012	0.019719261
2020-05-08T17:30:00	0.1845	11.953	191.0	0.418149640	0.479098421	0.006195426	0.063917072	0.019699862
2020-05-08T17:35:00	0.1847	11.912	190.0	0.418780540	0.480143978	0.006215191	0.064120976	0.019762708
2020-05-08T17:40:00	0.1845	11.872	191.0	0.418310467	0.479364847	0.006200461	0.063969013	0.019715871
2020-05-08T17:45:00	0.1848	11.833	190.0	0.419216448	0.480867029	0.006228869	0.064262091	0.019806201
2020-05-08T17:50:00	0.1852	11.794	190.0	0.420121921	0.482370632	0.006257340	0.064555820	0.019896731
2020-05-08T17:55:00	0.1854	11.757	193.0	0.420752051	0.483418345	0.006277199	0.064760710	0.019959880
2020-05-08T18:00:00	0.1858	11.720	190.0	0.421931348	0.485382104	0.006314470	0.065145227	0.020078392
2020-05-08T18:05:00	0.1868	11.683	189.0	0.424481511	0.489641782	0.006395526	0.065981467	0.020336129
2020-05-08T18:10:00	0.1870	11.646	189.0	0.425109953	0.490694268	0.006415598	0.066188542	0.020399951
2020-05-08T18:15:00	0.1873	11.610	189.0	0.426012147	0.492207139	0.006444480	0.066486511	0.020491788
2020-05-08T18:20:00	0.1875	11.572	189.0	0.426640000	0.493261304	0.006464626	0.066694354	0.020555848
2020-05-08T18:25:00	0.1875	11.535	189.0	0.426446119	0.492935662	0.006458401	0.066630130	0.020536053
2020-05-08T18:30:00	0.1885	11.499	189.0	0.429262701	0.497676656	0.006549196	0.067566852	0.020824760
2020-05-08T18:35:00	0.1884	11.462	189.0	0.429069130	0.497350124	0.006542932	0.067502220	0.020804840
2020-05-08T18:40:00	0.1888	11.423	189.0	0.429969150	0.498869239	0.006572091	0.067803051	0.020897559
2020-05-08T18:45:00	0.1888	11.383	188.0	0.430048984	0.499004097	0.006574681	0.067829775	0.020905795
2020-05-08T18:50:00	0.1892	11.343	188.0	0.431221596	0.500986953	0.006612800	0.068223039	0.021027003
2020-05-08T18:55:00	0.1897	11.302	188.0	0.432666266	0.503435113	0.006659948	0.068709455	0.021176921
2020-05-08T19:00:00	0.1897	11.263	188.0	0.432473094	0.503107424	0.006653632	0.068644293	0.021156838
2020-05-08T19:05:00	0.1896	11.225	188.0	0.432279899	0.502779801	0.006647319	0.068579160	0.021136763
2020-05-08T19:10:00	0.1897	11.186	188.0	0.432632517	0.503377855	0.006658844	0.068698068	0.021173412
2020-05-08T19:15:00	0.1903	11.150	187.0	0.434075957	0.505829603	0.006706152	0.069186131	0.021323837
2020-05-08T19:20:00	0.1902	11.112	187.0	0.433882949	0.505501434	0.006699814	0.069120748	0.021303686
2020-05-08T19:25:00	0.1903	11.077	187.0	0.434235226	0.506100484	0.006711384	0.069240113	0.021340475
2020-05-08T19:30:00	0.1906	11.043	187.0	0.434859957	0.507163695	0.006731932	0.069452105	0.021405813
2020-05-08T19:35:00	0.1913	11.009	188.0	0.436845918	0.510550781	0.006797509	0.070128645	0.021614329
2020-05-08T19:40:00	0.1910	10.979	186.0	0.436108715	0.509292186	0.006773121	0.069877040	0.021536782
2020-05-08T19:45:00	0.1908	10.949	187.0	0.435643587	0.508498873	0.006757761	0.069718578	0.021487943
2020-05-08T19:50:00	0.1906	10.919	186.0	0.434905852	0.507241847	0.006733443	0.069467695	0.021410618
2020-05-08T19:55:00	0.1906	10.890	187.0	0.434985449	0.507377398	0.006736065	0.069494737	0.021418953
2020-05-08T20:00:00	0.1902	10.863	187.0	0.433974793	0.505657582	0.006702829	0.069151856	0.021313273
2020-05-08T20:05:00	0.1897	10.834	185.0	0.432417796	0.503013639	0.006651824	0.068625646	0.021151091
2020-05-08T20:10:00	0.1900	10.803	186.0	0.433315994	0.504538047	0.006681219	0.068928905	0.021244558
2020-05-08T20:15:00	0.1895	10.775	186.0	0.432031372	0.502358495	0.006639203	0.068495428	0.021110956
2020-05-08T20:20:00	0.1893	10.748	186.0	0.431565100	0.501568533	0.006623992	0.068338505	0.021062591
2020-05-08T20:25:00	0.1890	10.720	185.0	0.430552355	0.499854815	0.006591028	0.067998423	0.020957774
2020-05-08T20:30:00	0.1893	10.692	185.0	0.431451565	0.501376273	0.006620292	0.068300328	0.021050824
2020-05-08T20:35:00	0.1891	10.663	185.0	0.430985130	0.500586786	0.006605102	0.068143623	0.021002526
2020-05-08T20:40:00	0.1889	10.636	185.0	0.430245318	0.499335826	0.006581054	0.067895523	0.020926060
2020-05-08T20:45:00	0.1893	10.608	185.0	0.431417791	0.501319087	0.006619191	0.068288974	0.021047325
2020-05-08T20:50:00	0.1890	10.578	185.0	0.430678174	0.500067564	0.006595118	0.068040616	0.020970779
2020-05-08T20:55:00	0.1893	10.548	185.0	0.431577315	0.501589221	0.006624390	0.068342613	0.021063857
2020-05-08T21:00:00	0.1896	10.520	185.0	0.432203048	0.502649504	0.006644808	0.068553261	0.021128781
2020-05-08T21:05:00	0.1900	10.489	185.0	0.433374134	0.504636800	0.006683124	0.068948563	0.021250617
2020-05-08T21:10:00	0.1902	10.458	185.0	0.433999189	0.505699062	0.006703631	0.069160120	0.021315821
2020-05-08T21:15:00	0.1902	10.426	184.0	0.433806172	0.505370920	0.006697294	0.069094749	0.021295673
2020-05-08T21:20:00	0.1896	10.395	185.0	0.432249017	0.502727440	0.006646310	0.068568752	0.021133555
2020-05-08T21:25:00	0.1901	10.362	184.0	0.433692791	0.505178212	0.006693574	0.069056367	0.021283843
2020-05-08T21:30:00	0.1902	10.330	184.0	0.433772446	0.505313593	0.006696187	0.069083331	0.021292153
2020-05-08T21:35:00	0.1902	10.299	184.0	0.433852097	0.505448985	0.006698801	0.069110299	0.021300465
2020-05-08T21:40:00	0.1904	10.267	184.0	0.434476971	0.506511775	0.006719331	0.069322098	0.021365744
2020-05-08T21:45:00	0.1910	10.234	183.0	0.436191122	0.509432801	0.006775844	0.069905138	0.021545442
2020-05-08T21:50:00	0.1914	10.202	183.0	0.437087285	0.510963187	0.006805505	0.070211142	0.021639756
2020-05-08T21:55:00	0.1911	10.170	183.0	0.436350189	0.509704277	0.006781103	0.069959393	0.021562164
2020-05-08T22:00:00	0.1910	10.138	183.0	0.436157444	0.509375333	0.006774731	0.069893654	0.021541903
2020-05-08T22:05:00	0.1908	10.105	183.0	0.435533200	0.508310689	0.006754119	0.069681004	0.021476362
2020-05-08T22:10:00	0.1915	10.075	182.0	0.437359405	0.511428333	0.006814527	0.070304223	0.021668444
2020-05-08T22:15:00	0.1913	10.044	183.0	0.437007789	0.510827339	0.006802871	0.070183964	0.021631379
2020-05-08T22:20:00	0.1916	10.013	182.0	0.437744595	0.512087107	0.006827311	0.070436108	0.021709092
2020-05-08T22:25:00	0.1915	9.981	182.0	0.437393059	0.511485873	0.006815644	0.070315739	0.021671994
2020-05-08T22:30:00	0.1911	9.950	182.0	0.436224799	0.509490271	0.006776958	0.069916623	0.021548982
2020-05-08T22:35:00	0.1911	9.919	182.0	0.436417536	0.509819238	0.006783331	0.069982372	0.021569247
2020-05-08T22:40:00	0.1918	9.887	182.0	0.438242775	0.512939740	0.006843866	0.070606904	0.021761734
2020-05-08T22:45:00	0.1912	9.856	182.0	0.436530732	0.510012491	0.006787075	0.070021005	0.021581154
2020-05-08T22:50:00	0.1912	9.825	181.0	0.436723433	0.510341563	0.006793453	0.070086803	0.021601433
2020-05-08T22:55:00	0.1912	9.795	182.0	0.436643919	0.510205767	0.006790821	0.070059648	0.021593064
2020-05-08T23:00:00	0.1909	9.764	181.0	0.435747519	0.508676084	0.006761192	0.069753967	0.021498850
2020-05-08T23:05:00	0.1907	9.733	181.0	0.435395562	0.508076094	0.006749580	0.069634170	0.021461928
2020-05-08T23:10:00	0.1902	9.700	181.0	0.433953268	0.505620985	0.006702123	0.069144564	0.021311026
2020-05-08T23:15:00	0.1909	9.670	181.0	0.435781205	0.508733528	0.006762304	0.069765440	0.021502386
2020-05-08T23:20:00	0.1914	9.640	181.0	0.437062934	0.510921573	0.006804698	0.070202817	0.021637190
2020-05-08T23:25:00	0.1909	9.609	180.0	0.435894443	0.508926654	0.006766043	0.069804014	0.021514275
2020-05-08T23:30:00	0.1915	9.578	181.0	0.437448192	0.511580144	0.006817473	0.070334609	0.021677809
2020-05-08T23:35:00	0.1927	9.546	181.0	0.440630697	0.517036293	0.006923561	0.071429099	0.022015142
2020-05-08T23:40:00	0.1924	9.516	180.0	0.440008119	0.515966703	0.006902728	0.071214175	0.021948900
2020-05-08T23:45:00	0.1922	9.484	180.0	0.439385310	0.514897803	0.006881927	0.070999568	0.021882756
2020-05-08T23:50:00	0.1916	9.452	180.0	0.437674435	0.511967086	0.006824981	0.070412075	0.021701685
2020-05-08T23:55:00	0.1919	9.421	180.0	0.438410948	0.513227724	0.006849460	0.070664618	0.021779521
2020-05-09T00:00:00	0.1915	9.393	180.0	0.437515495	0.511695237	0.006819706	0.070357648	0.021684910
2020-05-09T00:05:00	0.1917	9.362	180.0	0.437980102	0.512490090	0.006835134	0.070516818	0.021733968
2020-05-09T00:10:00	0.1915	9.330	180.0	0.437356539	0.511423433	0.006814432	0.070303242	0.021668142
2020-05-09T00:15:00	0.1915	9.302	179.0	0.437549145	0.511752786	0.006820823	0.070369169	0.021688461
2020-05-09T00:20:00	0.1918	9.273	179.0	0.438285713	0.513013261	0.006845294	0.070621637	0.021766274
2020-05-09T00:25:00	0.1916	9.242	179.0	0.437662264	0.511946266	0.006824577	0.070407906	0.021700400
2020-05-09T00:30:00	0.1917	9.213	179.0	0.437854835	0.512275723	0.006830972	0.070473881	0.021720734
2020-05-09T00:35:00	0.1915	9.183	179.0	0.437503322	0.511674421	0.006819302	0.070353481	0.021683626
2020-05-09T00:40:00	0.1912	9.155	179.0	0.436607383	0.510143375	0.006789612	0.070047173	0.021589219
2020-05-09T00:45:00	0.1912	9.125	178.0	0.436527864	0.510007595	0.006786980	0.070020026	0.021580852
2020-05-09T00:50:00	0.1909	9.098	179.0	0.435903759	0.508942542	0.006766350	0.069807188	0.021515253
2020-05-09T00:55:00	0.1906	9.069	178.0	0.435006960	0.507414034	0.006736773	0.069502046	0.021421206
2020-05-09T01:00:00	0.1903	9.041	178.0	0.434109677	0.505886947	0.006707259	0.069197557	0.021327359
2020-05-09T01:05:00	0.1901	9.014	178.0	0.433757374	0.505287976	0.006695693	0.069078228	0.021290581
2020-05-09T01:10:00	0.1901	8.983	178.0	0.433677718	0.505152597	0.006693079	0.069051265	0.021282271
2020-05-09T01:15:00	0.1896	8.952	178.0	0.432233931	0.502701863	0.006645817	0.068563668	0.021131988
2020-05-09T01:20:00	0.1885	8.925	178.0	0.429149008	0.497484856	0.006545516	0.067528886	0.020813059
2020-05-09T01:25:00	0.1881	8.896	178.0	0.428248540	0.495967036	0.006516415	0.067228649	0.020720523
2020-05-09T01:30:00	0.1877	8.870	177.0	0.427073805	0.493990303	0.006478568	0.066838192	0.020600180
2020-05-09T01:35:00	0.1876	8.843	177.0	0.426719996	0.493395696	0.006467196	0.066720865	0.020564018
2020-05-09T01:40:00	0.1875	8.815	177.0	0.426640000	0.493261304	0.006464626	0.066694354	0.020555848
2020-05-09T01:45:00	0.1875	8.787	177.0	0.426560000	0.493126923	0.006462057	0.066667849	0.020547679
2020-05-09T01:50:00	0.1879	8.761	177.0	0.427575205	0.494833542	0.006494705	0.067004677	0.020651492
2020-05-09T01:55:00	0.1880	8.734	177.0	0.427768952	0.495159568	0.006500947	0.067069077	0.020671341
2020-05-09T02:00:00	0.1879	8.708	177.0	0.427689007	0.495025029	0.006498371	0.067042499	0.020663149
2020-05-09T02:05:00	0.1886	8.683	177.0	0.429523877	0.498117395	0.006557655	0.067654117	0.020851656
2020-05-09T02:10:00	0.1881	8.656	177.0	0.428076451	0.495677222	0.006510862	0.067171364	0.020702867
2020-05-09T02:15:00	0.1880	8.628	176.0	0.427996521	0.495542640	0.006508284	0.067144766	0.020694669
2020-05-09T02:20:00	0.1887	8.602	176.0	0.429831048	0.498635995	0.006567612	0.067756837	0.020883315
2020-05-09T02:25:00	0.1888	8.574	176.0	0.430024530	0.498962786	0.006573888	0.067821588	0.020903272
2020-05-09T02:30:00	0.1886	8.549	176.0	0.429397970	0.497904901	0.006553576	0.067612040	0.020838687
2020-05-09T02:35:00	0.1887	8.521	176.0	0.429864855	0.498693087	0.006568708	0.067768148	0.020886802
2020-05-09T02:40:00	0.1883	8.494	176.0	0.428691276	0.496713027	0.006530713	0.067376166	0.020765989
2020-05-09T02:45:00	0.1881	8.469	176.0	0.428064209	0.495656608	0.006510467	0.067167290	0.020701611
2020-05-09T02:50:00	0.1882	8.443	176.0	0.428531472	0.496443702	0.006525550	0.067322898	0.020749571
2020-05-09T02:55:00	0.1881	8.419	176.0	0.428177977	0.495848192	0.006514138	0.067205156	0.020713282
2020-05-09T03:00:00	0.1887	8.395	176.0	0.429738974	0.498480518	0.006564626	0.067726037	0.020873822
2020-05-09T03:05:00	0.1887	8.372	176.0	0.429932466	0.498807278	0.006570901	0.067790773	0.020893775
2020-05-09T03:10:00	0.1886	8.349	176.0	0.429579272	0.498210899	0.006559450	0.067672634	0.020857363
2020-05-09T03:15:00	0.1882	8.325	175.0	0.428405489	0.496231427	0.006521481	0.067280921	0.020736633
2020-05-09T03:20:00	0.1877	8.300	175.0	0.426957077	0.493794092	0.006474815	0.066799469	0.020588245
2020-05-09T03:25:00	0.1876	8.280	176.0	0.426877092	0.493659667	0.006472244	0.066772944	0.020580070
2020-05-09T03:30:00	0.1880	8.259	176.0	0.427892101	0.495366849	0.006504917	0.067110030	0.020683963
2020-05-09T03:35:00	0.1879	8.240	175.0	0.427538468	0.494771736	0.006493522	0.066992470	0.020647730
2020-05-09T03:40:00	0.1880	8.223	175.0	0.428005881	0.495558399	0.006508586	0.067147881	0.020695629
2020-05-09T03:45:00	0.1879	8.208	175.0	0.427652272	0.494963214	0.006497188	0.067030289	0.020659386
2020-05-09T03:50:00	0.1884	8.193	175.0	0.428940308	0.497132873	0.006538764	0.067459228	0.020791589
2020-05-09T03:55:00	0.1878	8.178	175.0	0.427218620	0.494233776	0.006483226	0.066886250	0.020614992
2020-05-09T04:00:00	0.1877	8.164	174.0	0.427138648	0.494099314	0.006480654	0.066859708	0.020606811
2020-05-09T04:05:00	0.1878	8.150	174.0	0.427288789	0.494351772	0.006485484	0.066909544	0.020622171
2020-05-09T04:10:00	0.1878	8.138	174.0	0.427438917	0.494604269	0.006490317	0.066959399	0.020637537
2020-05-09T04:15:00	0.1875	8.127	174.0	0.426493831	0.493015790	0.006459932	0.066645932	0.020540923
2020-05-09T04:20:00	0.1878	8.115	174.0	0.427465425	0.494648859	0.006491170	0.066968204	0.020640251
2020-05-09T04:25:00	0.1888	8.105	174.0	0.430077029	0.499051475	0.006575591	0.067839164	0.020908689
2020-05-09T04:30:00	0.1890	8.095	174.0	0.430500149	0.499766553	0.006589332	0.067980920	0.020952380
2020-05-09T04:35:00	0.1892	8.085	174.0	0.431196293	0.500944126	0.006611976	0.068214539	0.021024383
2020-05-09T04:40:00	0.1899	8.075	175.0	0.432983761	0.503973925	0.006670337	0.068816638	0.021209956
2020-05-09T04:45:00	0.1907	8.065	174.0	0.435314257	0.507937540	0.006746899	0.069606514	0.021453404
2020-05-09T04:50:00	0.1904	8.056	174.0	0.434373670	0.506336005	0.006715934	0.069287057	0.021354944
2020-05-09T04:55:00	0.1901	8.048	174.0	0.433705269	0.505199419	0.006693983	0.069060590	0.021285145
2020-05-09T05:00:00	0.1911	8.042	174.0	0.436307047	0.509630640	0.006779677	0.069944676	0.021557628
2020-05-09T05:05:00	0.1914	8.041	174.0	0.437272895	0.511280435	0.006811658	0.070274623	0.021659321
2020-05-09T05:10:00	0.1918	8.041	174.0	0.438238186	0.512931882	0.006843713	0.070605329	0.021761248
2020-05-09T05:15:00	0.1918	8.044	174.0	0.438387325	0.513187266	0.006848674	0.070656509	0.021777022
2020-05-09T05:20:00	0.1923	8.047	174.0	0.439623726	0.515306859	0.006889885	0.071081675	0.021908062
2020-05-09T05:25:00	0.1923	8.049	174.0	0.439501014	0.515096298	0.006885788	0.071039407	0.021895035
2020-05-09T05:30:00	0.1927	8.052	174.0	0.440736596	0.517218335	0.006927108	0.071465697	0.022026422
2020-05-09T05:35:00	0.1930	8.056	174.0	0.441527652	0.518408402	0.006951352	0.071715817	0.022103511
2020-05-09T05:40:00	0.1931	8.062	174.0	0.442068663	0.519131678	0.006966736	0.071874526	0.022152427
2020-05-09T05:45:00	0.1929	8.072	174.0	0.441212051	0.517986583	0.006942386	0.071623312	0.022075000
2020-05-09T05:50:00	0.1927	8.083	174.0	0.440789189	0.517308755	0.006928870	0.071483877	0.022032025
2020-05-09T05:55:00	0.1933	8.094	174.0	0.442643414	0.519900312	0.006983097	0.072043322	0.022204451
2020-05-09T06:00:00	0.1934	8.111	174.0	0.443184245	0.520623820	0.006998509	0.072202332	0.022253460
2020-05-09T06:05:00	0.1935	8.132	174.0	0.443375775	0.520880100	0.007003972	0.072258685	0.022270828
2020-05-09T06:10:00	0.1934	8.153	174.0	0.442868800	0.520201800	0.006989518	0.072109567	0.022224869
2020-05-09T06:15:00	0.1936	8.171	174.0	0.443758804	0.521392701	0.007014901	0.072371446	0.022305582
2020-05-09T06:20:00	0.1937	8.191	174.0	0.443950302	0.521649023	0.007020369	0.072427853	0.022322968
2020-05-09T06:25:00	0.1936	8.209	174.0	0.443792619	0.521437962	0.007015867	0.072381405	0.022308652
2020-05-09T06:30:00	0.1935	8.230	174.0	0.443285707	0.520759580	0.007001403	0.072232182	0.022262660
2020-05-09T06:35:00	0.1937	8.254	175.0	0.444175600	0.521950625	0.007026804	0.072494245	0.022343430
2020-05-09T06:40:00	0.1936	8.275	174.0	0.443668746	0.521272168	0.007012331	0.072344926	0.022297409
2020-05-09T06:45:00	0.1938	8.295	175.0	0.444558537	0.522463344	0.007037749	0.072607159	0.022378231
2020-05-09T06:50:00	0.1939	8.329	175.0	0.444749989	0.522719725	0.007043224	0.072663643	0.022395640
2020-05-09T06:55:00	0.1941	8.358	175.0	0.445639492	0.523911272	0.007068688	0.072926354	0.022476611
2020-05-09T07:00:00	0.1938	8.389	175.0	0.444434692	0.522297514	0.007034208	0.072570632	0.022366974
2020-05-09T07:05:00	0.1932	8.429	175.0	0.442181556	0.519282633	0.006969948	0.071907666	0.022162641
2020-05-09T07:10:00	0.1934	8.464	175.0	0.443071742	0.520473299	0.006995302	0.072169240	0.022243261
2020-05-09T07:15:00	0.1941	8.494	176.0	0.445358079	0.523534233	0.007060627	0.072843190	0.022450978
2020-05-09T07:20:00	0.1937	8.524	176.0	0.444153178	0.521920606	0.007026164	0.072487636	0.022341394
2020-05-09T07:25:00	0.1934	8.559	176.0	0.442947842	0.520307540	0.006991770	0.072132806	0.022232031
2020-05-09T07:30:00	0.1933	8.609	176.0	0.442790113	0.520096539	0.006987276	0.072086436	0.022217740
2020-05-09T07:35:00	0.1925	8.640	176.0	0.440114764	0.516149844	0.006906294	0.071250963	0.021960239
2020-05-09T07:40:00	0.1921	8.688	176.0	0.439176876	0.514540319	0.006874974	0.070927834	0.021860647
2020-05-09T07:45:00	0.1917	8.744	176.0	0.437966485	0.512466786	0.006834682	0.070512149	0.021732529
2020-05-09T07:50:00	0.1924	8.789	177.0	0.440018396	0.515984351	0.006903072	0.071217720	0.021949993
2020-05-09T07:55:00	0.1919	8.848	177.0	0.438536728	0.513443164	0.006853646	0.070707802	0.021792831
2020-05-09T08:00:00	0.1919	8.892	177.0	0.438413935	0.513232840	0.006849560	0.070665643	0.021779838
2020-05-09T08:05:00	0.1920	8.947	177.0	0.438834940	0.513954129	0.006863576	0.070810252	0.021824407
2020-05-09T08:10:00	0.1921	9.013	177.0	0.438984026	0.514209671	0.006868544	0.070861504	0.021840204
2020-05-09T08:15:00	0.1920	9.079	178.0	0.438861266	0.513999250	0.006864453	0.070819300	0.021827196
2020-05-09T08:20:00	0.1926	9.135	178.0	0.440368951	0.516586481	0.006914798	0.071338692	0.021987278
2020-05-09T08:25:00	0.1927	9.186	179.0	0.440789466	0.517309231	0.006928879	0.071483972	0.022032055
2020-05-09T08:30:00	0.1932	9.243	179.0	0.442294444	0.519433592	0.006973161	0.071940812	0.022172857
2020-05-09T08:35:00	0.1931	9.316	179.0	0.442136684	0.519222631	0.006968671	0.071894493	0.022158581
2020-05-09T08:40:00	0.1935	9.402	179.0	0.443376131	0.520880576	0.007003982	0.072258789	0.022270861
2020-05-09T08:45:00	0.1937	9.485	179.0	0.443916844	0.521604237	0.007019414	0.072417996	0.022319930
2020-05-09T08:50:00	0.1933	9.583	180.0	0.442711423	0.519991280	0.006985034	0.072063308	0.022210611
2020-05-09T08:55:00	0.1927	9.699	180.0	0.440596801	0.516978031	0.006922425	0.071417388	0.022011532
2020-05-09T09:00:00	0.1922	9.806	181.0	0.439387434	0.514901447	0.006881997	0.071000299	0.021882982
2020-05-09T09:05:00	0.1928	9.881	181.0	0.440894647	0.517490087	0.006932404	0.071520339	0.022043263
2020-05-09T09:10:00	0.1928	9.953	181.0	0.441043551	0.517746174	0.006937397	0.071571842	0.022059137
2020-05-09T09:15:00	0.1922	9.990	181.0	0.439291024	0.514736078	0.006878781	0.070967113	0.021872754
2020-05-09T09:20:00	0.1922	10.046	182.0	0.439440069	0.514991741	0.006883754	0.071018421	0.021888567
2020-05-09T09:25:00	0.1920	10.089	182.0	0.438773694	0.513849169	0.006861536	0.070789203	0.021817920
2020-05-09T09:30:00	0.1920	10.117	182.0	0.438922786	0.514104695	0.006866503	0.070840448	0.021833714
2020-05-09T09:35:00	0.1915	10.161	189.0	0.437440148	0.511566391	0.006817206	0.070331856	0.021676961
2020-05-09T09:40:00	0.1919	10.207	183.0	0.438405342	0.513218124	0.006849274	0.070662694	0.021778928
2020-05-09T09:45:00	0.1911	10.295	183.0	0.436377819	0.509751440	0.006782017	0.069968820	0.021565070
2020-05-09T09:50:00	0.1917	10.354	183.0	0.437887739	0.512332028	0.006832065	0.070485158	0.021724210
2020-05-09T09:55:00	0.1910	10.413	183.0	0.436131908	0.509331759	0.006773887	0.069884948	0.021539220
2020-05-09T10:00:00	0.1907	10.484	183.0	0.435191783	0.507728864	0.006742862	0.069564867	0.021440568
2020-05-09T10:05:00	0.1909	10.555	184.0	0.435765411	0.508706595	0.006761782	0.069760061	0.021500728
2020-05-09T10:10:00	0.1910	10.580	184.0	0.436066554	0.509220252	0.006771728	0.069862668	0.021532353
2020-05-09T10:15:00	0.1920	10.616	184.0	0.438816188	0.513921991	0.006862952	0.070803807	0.021822421
2020-05-09T10:20:00	0.1919	10.653	184.0	0.438573068	0.513505417	0.006854856	0.070720281	0.021796678
2020-05-09T10:25:00	0.1918	10.689	184.0	0.438329913	0.513088947	0.006846764	0.070636805	0.021770949
2020-05-09T10:30:00	0.1917	10.734	185.0	0.438086723	0.512672583	0.006838678	0.070553376	0.021745236
2020-05-09T10:35:00	0.1918	10.780	185.0	0.438387448	0.513187477	0.006848678	0.070656551	0.021777035
2020-05-09T10:40:00	0.1917	10.822	185.0	0.437872273	0.512305562	0.006831551	0.070479857	0.021722576
2020-05-09T10:45:00	0.1919	10.866	185.0	0.438444981	0.513286012	0.006850593	0.070676301	0.021783122
2020-05-09T10:50:00	0.1920	10.916	185.0	0.438745642	0.513801097	0.006860602	0.070779564	0.021814949
2020-05-09T10:55:00	0.1912	10.973	185.0	0.436598041	0.510127422	0.006789303	0.070043983	0.021588236
2020-05-09T11:00:00	0.1914	11.042	186.0	0.437171185	0.511106578	0.006808286	0.070239833	0.021648599
2020-05-09T11:05:00	0.1907	11.122	187.0	0.435294015	0.507903048	0.006746232	0.069599630	0.021451282
2020-05-09T11:10:00	0.1906	11.207	187.0	0.435050382	0.507487992	0.006738203	0.069516802	0.021425754
2020-05-09T11:15:00	0.1905	11.290	186.0	0.434806714	0.507073040	0.006730180	0.069434023	0.021400240
2020-05-09T11:20:00	0.1906	11.376	187.0	0.435108030	0.507586187	0.006740103	0.069536395	0.021431792
2020-05-09T11:25:00	0.1910	11.461	188.0	0.435954036	0.509028302	0.006768011	0.069824319	0.021520533
2020-05-09T11:30:00	0.1912	11.547	188.0	0.436527401	0.510006805	0.006786965	0.070019868	0.021580803
2020-05-09T11:35:00	0.1908	11.630	188.0	0.435466928	0.508197726	0.006751933	0.069658451	0.021469411
2020-05-09T11:40:00	0.1910	11.706	189.0	0.436040461	0.509175735	0.006770866	0.069853773	0.021529611
2020-05-09T11:45:00	0.1914	11.776	189.0	0.437158147	0.511084294	0.006807854	0.070235374	0.021647224
2020-05-09T11:50:00	0.1904	11.849	189.0	0.434463449	0.506488765	0.006718886	0.069317511	0.021364330
2020-05-09T11:55:00	0.1906	11.923	189.0	0.435037328	0.507465757	0.006737773	0.069512366	0.021424386
2020-05-09T12:00:00	0.1911	11.993	190.0	0.436427959	0.509837031	0.006783675	0.069985929	0.021570343
2020-05-09T12:05:00	0.1900	12.061	190.0	0.433459365	0.504781583	0.006685918	0.068977387	0.021259501
2020-05-09T12:10:00	0.1899	12.136	191.0	0.433215463	0.504367316	0.006677925	0.068894922	0.021234084
2020-05-09T12:15:00	0.1899	12.219	191.0	0.432971525	0.503953154	0.006669936	0.068812505	0.021208682
2020-05-09T12:20:00	0.1896	12.302	191.0	0.432181748	0.502613394	0.006644113	0.068546084	0.021126569
2020-05-09T12:25:00	0.1897	12.377	192.0	0.432483541	0.503125144	0.006653973	0.068647816	0.021157924
2020-05-09T12:30:00	0.1892	12.448	192.0	0.431147387	0.500861354	0.006610384	0.068198110	0.021019320
2020-05-09T12:35:00	0.1892	12.520	192.0	0.431176279	0.500910252	0.006611324	0.068207815	0.021022311
2020-05-09T12:40:00	0.1898	12.593	192.0	0.432843007	0.503735020	0.006665730	0.068769108	0.021195307
2020-05-09T12:45:00	0.1897	12.665	193.0	0.432599014	0.503321018	0.006657749	0.068686765	0.021169928
2020-05-09T12:50:00	0.1885	12.736	193.0	0.429350157	0.497824218	0.006552028	0.067596065	0.020833764
2020-05-09T12:55:00	0.1890	12.807	193.0	0.430745566	0.500181537	0.006597309	0.068063223	0.020977746
2020-05-09T13:00:00	0.1889	12.877	193.0	0.430228016	0.499306589	0.006580492	0.067889728	0.020924273
2020-05-09T13:05:00	0.1887	12.932	194.0	0.429710304	0.498432111	0.006563697	0.067716448	0.020870867
2020-05-09T13:10:00	0.1888	12.969	195.0	0.430012550	0.498942549	0.006573499	0.067817578	0.020902036
2020-05-09T13:15:00	0.1884	13.000	194.0	0.428947897	0.497145670	0.006539010	0.067461760	0.020792370
2020-05-09T13:20:00	0.1883	13.032	195.0	0.428703328	0.496733340	0.006531103	0.067380184	0.020767227
2020-05-09T13:25:00	0.1878	13.056	195.0	0.427364103	0.494478433	0.006487908	0.066934552	0.020629879
2020-05-09T13:30:00	0.1880	13.072	195.0	0.427940453	0.495448246	0.006506476	0.067126113	0.020688920
2020-05-09T13:35:00	0.1877	13.072	194.0	0.427148261	0.494115476	0.006480963	0.066862898	0.020607795
2020-05-09T13:40:00	0.1878	13.064	195.0	0.427450978	0.494624556	0.006490705	0.066963405	0.020638772
2020-05-09T13:45:00	0.1873	13.041	195.0	0.426110729	0.492372586	0.006447641	0.066519119	0.020501839
2020-05-09T13:50:00	0.1870	13.005	195.0	0.425043539	0.490582991	0.006413475	0.066166639	0.020393201
2020-05-09T13:55:00	0.1878	12.974	195.0	0.427264108	0.494310266	0.006484690	0.066901350	0.020619646
2020-05-09T14:00:00	0.1880	12.945	194.0	0.427840493	0.495279979	0.006503253	0.067092866	0.020678673
2020-05-09T14:05:00	0.1875	12.917	194.0	0.426500563	0.493027096	0.006460149	0.066648161	0.020541611
2020-05-09T14:10:00	0.1876	12.895	195.0	0.426803400	0.493535832	0.006469875	0.066748511	0.020572539
2020-05-09T14:15:00	0.1875	12.878	194.0	0.426558511	0.493124422	0.006462009	0.066667356	0.020547527
2020-05-09T14:20:00	0.1876	12.867	194.0	0.426861337	0.493633190	0.006471737	0.066767720	0.020578460
2020-05-09T14:25:00	0.1879	12.855	194.0	0.427711574	0.495063005	0.006499098	0.067050001	0.020665461
2020-05-09T14:30:00	0.1875	12.849	194.0	0.426645428	0.493270423	0.006464800	0.066696153	0.020556402
2020-05-09T14:35:00	0.1872	12.847	194.0	0.425578587	0.491479830	0.006430590	0.066343217	0.020447624
2020-05-09T14:40:00	0.1864	12.845	194.0	0.423413783	0.487856105	0.006361512	0.065630551	0.020227973
2020-05-09T14:45:00	0.1863	12.843	194.0	0.423168385	0.487446145	0.006353711	0.065550060	0.020203165
2020-05-09T14:50:00	0.1858	12.844	194.0	0.421824610	0.485204207	0.006311091	0.065110367	0.020067648
2020-05-09T14:55:00	0.1862	12.838	194.0	0.422951987	0.487084772	0.006346835	0.065479132	0.020181304
2020-05-09T15:00:00	0.1869	12.822	194.0	0.424901265	0.490344646	0.006408929	0.066119734	0.020378744
2020-05-09T15:05:00	0.1865	12.801	194.0	0.423833284	0.488557304	0.006374863	0.065768287	0.020270425
2020-05-09T15:10:00	0.1869	12.788	194.0	0.424959269	0.490441811	0.006410782	0.066138855	0.020384637
2020-05-09T15:15:00	0.1867	12.784	194.0	0.424439890	0.489572116	0.006394198	0.065967767	0.020331906
2020-05-09T15:20:00	0.1872	12.783	194.0	0.425565458	0.491457813	0.006430170	0.066338880	0.020446287
2020-05-09T15:25:00	0.1872	12.778	194.0	0.425594448	0.491506428	0.006431098	0.066348455	0.020449238
2020-05-09T15:30:00	0.1877	12.769	194.0	0.426993051	0.493854558	0.006475971	0.066811402	0.020591923
2020-05-09T15:35:00	0.1877	12.762	193.0	0.427022017	0.493903246	0.006476903	0.066821010	0.020594884
2020-05-09T15:40:00	0.1880	12.751	193.0	0.427872171	0.495333301	0.006504274	0.067103401	0.020681920
2020-05-09T15:45:00	0.1878	12.733	195.0	0.427353716	0.494460963	0.006487574	0.066931103	0.020628816
2020-05-09T15:50:00	0.1873	12.721	193.0	0.426013388	0.492209222	0.006444520	0.066486921	0.020491915
2020-05-09T15:55:00	0.1873	12.712	193.0	0.426042371	0.492257860	0.006445449	0.066496507	0.020494869
2020-05-09T16:00:00	0.1874	12.700	193.0	0.426345292	0.492766354	0.006455165	0.066596746	0.020525764
2020-05-09T16:05:00	0.1874	12.686	193.0	0.426144023	0.492428468	0.006448708	0.066530134	0.020505233
2020-05-09T16:10:00	0.1874	12.673	193.0	0.426216690	0.492550447	0.006451039	0.066554179	0.020512644
2020-05-09T16:15:00	0.1877	12.656	193.0	0.427110925	0.494052706	0.006479762	0.066850508	0.020603976
2020-05-09T16:20:00	0.1879	12.637	193.0	0.427731010	0.495095714	0.006499725	0.067056462	0.020667453
2020-05-09T16:25:00	0.1878	12.616	193.0	0.427256170	0.494296918	0.006484434	0.066898715	0.020618834
2020-05-09T16:30:00	0.1879	12.596	193.0	0.427602517	0.494879495	0.006495585	0.067013753	0.020654289
2020-05-09T16:35:00	0.1876	12.575	193.0	0.426853831	0.493620577	0.006471496	0.066765231	0.020577693
2020-05-09T16:40:00	0.1875	12.554	193.0	0.426652624	0.493282512	0.006465031	0.066698538	0.020557137
2020-05-09T16:45:00	0.1871	12.529	193.0	0.425355431	0.491105683	0.006423449	0.066269536	0.020424914
2020-05-09T16:50:00	0.1871	12.502	192.0	0.425428133	0.491227561	0.006425775	0.066293535	0.020432311
2020-05-09T16:55:00	0.1875	12.476	192.0	0.426596697	0.493188563	0.006463235	0.066680007	0.020551426
2020-05-09T17:00:00	0.1875	12.451	193.0	0.426395458	0.492850589	0.006456775	0.066613355	0.020530883
2020-05-09T17:05:00	0.1876	12.426	192.0	0.426741987	0.493432644	0.006467902	0.066728153	0.020566265
2020-05-09T17:10:00	0.1872	12.399	192.0	0.425718909	0.491715167	0.006435084	0.066389573	0.020461911
2020-05-09T17:15:00	0.1871	12.373	192.0	0.425517563	0.491377502	0.006428637	0.066323063	0.020441412
2020-05-09T17:20:00	0.1873	12.348	192.0	0.425864278	0.491959026	0.006439741	0.066437618	0.020476719
2020-05-09T17:25:00	0.1874	12.322	192.0	0.426210919	0.492540759	0.006450854	0.066552269	0.020512056
2020-05-09T17:30:00	0.1866	12.297	192.0	0.424090698	0.488987817	0.006383064	0.065852891	0.020296501
2020-05-09T17:35:00	0.1869	12.270	192.0	0.424986097	0.490486754	0.006411639	0.066147699	0.020387363
2020-05-09T17:40:00	0.1866	12.241	192.0	0.423961918	0.488772416	0.006378960	0.065810557	0.020283453
2020-05-09T17:45:00	0.1873	12.215	192.0	0.425953684	0.492109035	0.006442606	0.066467177	0.020485830
2020-05-09T17:50:00	0.1869	12.187	191.0	0.424930112	0.490392967	0.006409850	0.066129243	0.020381675
2020-05-09T17:55:00	0.1870	12.160	191.0	0.425276952	0.490974135	0.006420938	0.066243635	0.020416932
2020-05-09T18:00:00	0.1876	12.133	191.0	0.426719500	0.493394862	0.006467180	0.066720700	0.020563968
2020-05-09T18:05:00	0.1872	12.106	191.0	0.425696408	0.491677426	0.006434363	0.066382138	0.020459620
2020-05-09T18:10:00	0.1874	12.079	191.0	0.426317029	0.492718899	0.006454258	0.066587389	0.020522880
2020-05-09T18:15:00	0.1877	12.053	191.0	0.426937414	0.493761045	0.006474183	0.066792948	0.020586235
2020-05-09T18:20:00	0.1880	12.028	190.0	0.427831256	0.495264431	0.006502956	0.067089794	0.020677726
2020-05-09T18:25:00	0.1880	12.002	191.0	0.427903848	0.495386624	0.006505296	0.067113937	0.020685167
2020-05-09T18:30:00	0.1883	11.976	191.0	0.428797164	0.496891522	0.006534136	0.067411476	0.020776872
2020-05-09T18:35:00	0.1887	11.951	191.0	0.429689994	0.498397819	0.006563038	0.067709656	0.020868773
2020-05-09T18:40:00	0.1897	11.926	190.0	0.432493710	0.503142392	0.006654306	0.068651245	0.021158981
2020-05-09T18:45:00	0.1898	11.901	190.0	0.432838958	0.503728149	0.006665598	0.068767742	0.021194886
2020-05-09T18:50:00	0.1898	11.876	190.0	0.432911331	0.503850980	0.006667966	0.068792177	0.021202417
2020-05-09T18:55:00	0.1905	11.851	190.0	0.434619779	0.506754816	0.006724028	0.069370558	0.021380680
2020-05-09T19:00:00	0.1909	11.827	190.0	0.435781853	0.508734633	0.006762325	0.069765660	0.021502454
2020-05-09T19:05:00	0.1918	11.801	190.0	0.438303393	0.513043535	0.006845882	0.070627704	0.021768144
2020-05-09T19:10:00	0.1918	11.776	190.0	0.438375528	0.513167064	0.006848282	0.070652460	0.021775774
2020-05-09T19:15:00	0.1929	11.752	190.0	0.441188065	0.517954528	0.006941704	0.071616284	0.022072834
2020-05-09T19:20:00	0.1930	11.727	190.0	0.441630194	0.518545473	0.006954266	0.071745885	0.022112779
2020-05-09T19:25:00	0.1933	11.702	189.0	0.442770925	0.520070872	0.006986729	0.072080796	0.022216001
2020-05-09T19:30:00	0.1932	11.676	189.0	0.442514276	0.519727589	0.006979419	0.072005379	0.022192757
2020-05-09T19:35:00	0.1936	11.653	189.0	0.443654705	0.521253377	0.007011930	0.072340791	0.022296134
2020-05-09T19:40:00	0.1936	11.629	189.0	0.443747334	0.521377350	0.007014574	0.072368068	0.022304541
2020-05-09T19:45:00	0.1931	11.607	189.0	0.442093592	0.519165012	0.006967445	0.071881844	0.022154682
2020-05-09T19:50:00	0.1931	11.582	189.0	0.441836891	0.518821795	0.006960143	0.071806513	0.022131465
2020-05-09T19:55:00	0.1932	11.559	189.0	0.442278934	0.519412850	0.006972719	0.071936257	0.022171453
2020-05-09T20:00:00	0.1933	11.536	189.0	0.442720918	0.520003981	0.006985304	0.072066098	0.022211471
2020-05-09T20:05:00	0.1928	11.514	188.0	0.441070365	0.517792297	0.006938296	0.071581119	0.022061996
2020-05-09T20:10:00	0.1928	11.489	188.0	0.440870874	0.517449208	0.006931608	0.071512118	0.022040729
2020-05-09T20:15:00	0.1921	11.466	217.0	0.439041200	0.514307687	0.006870450	0.070881165	0.021846263
2020-05-09T20:20:00	0.1915	11.442	189.0	0.437481628	0.511637321	0.006818582	0.070346054	0.021681337
2020-05-09T20:25:00	0.1915	11.419	188.0	0.437553798	0.511760744	0.006820977	0.070370762	0.021688952
2020-05-09T20:30:00	0.1914	11.394	188.0	0.437081767	0.510953758	0.006805322	0.070209256	0.021639175
2020-05-09T20:35:00	0.1911	11.369	188.0	0.436337360	0.509682380	0.006780679	0.069955017	0.021560816
2020-05-09T20:40:00	0.1908	11.345	188.0	0.435592621	0.508411984	0.006756080	0.069701229	0.021482596
2020-05-09T20:45:00	0.1911	11.322	188.0	0.436481797	0.509928944	0.006785456	0.070004303	0.021576006
2020-05-09T20:50:00	0.1915	11.301	188.0	0.437370500	0.511447302	0.006814895	0.070308019	0.021669614
2020-05-09T20:55:00	0.1922	11.281	188.0	0.439346186	0.514830693	0.006880621	0.070986100	0.021878605
2020-05-09T21:00:00	0.1934	11.262	188.0	0.443134165	0.520556815	0.006997082	0.072187600	0.022248920
2020-05-09T21:05:00	0.1932	11.243	188.0	0.442178904	0.519279088	0.006969872	0.071906888	0.022162401
2020-05-09T21:10:00	0.1930	11.225	188.0	0.441572809	0.518468764	0.006952635	0.071729057	0.022107592
2020-05-09T21:15:00	0.1914	11.206	188.0	0.437187182	0.511133920	0.006808816	0.070245304	0.021650285
2020-05-09T21:20:00	0.1913	11.187	188.0	0.436987228	0.510792207	0.006802190	0.070176936	0.021629213
2020-05-09T21:25:00	0.1915	11.171	187.0	0.437331545	0.511380701	0.006813603	0.070294689	0.021665506
2020-05-09T21:30:00	0.1914	11.154	187.0	0.437131609	0.511038937	0.006806974	0.070226298	0.021644427
2020-05-09T21:35:00	0.1920	11.137	186.0	0.438835740	0.513955501	0.006863603	0.070810527	0.021824492
2020-05-09T21:40:00	0.1919	11.119	187.0	0.438635984	0.513613204	0.006856950	0.070741891	0.021803338
2020-05-09T21:45:00	0.1917	11.101	187.0	0.437892268	0.512339777	0.006832216	0.070486710	0.021724689
2020-05-09T21:50:00	0.1907	11.080	187.0	0.435242206	0.507814771	0.006744524	0.069582011	0.021445852
2020-05-09T21:55:00	0.1904	11.059	187.0	0.434496976	0.506545817	0.006719989	0.069328885	0.021367836
2020-05-09T22:00:00	0.1902	11.039	187.0	0.434024079	0.505741385	0.006704448	0.069168553	0.021318420
2020-05-09T22:05:00	0.1901	11.018	186.0	0.433509994	0.504867597	0.006687578	0.068994513	0.021264779
2020-05-09T22:10:00	0.1905	10.996	187.0	0.434631818	0.506775307	0.006724424	0.069374644	0.021381939
2020-05-09T22:15:00	0.1913	10.977	187.0	0.436841972	0.510544040	0.006797378	0.070127296	0.021613914
2020-05-09T22:20:00	0.1916	10.958	187.0	0.437689534	0.511992913	0.006825483	0.070417246	0.021703279
2020-05-09T22:25:00	0.1917	10.940	186.0	0.437992764	0.512511761	0.006835555	0.070521158	0.021735306
2020-05-09T22:30:00	0.1915	10.924	187.0	0.437479902	0.511634370	0.006818525	0.070345463	0.021681155
2020-05-09T22:35:00	0.1912	10.908	185.0	0.436694699	0.510292487	0.006792502	0.070076989	0.021598409
2020-05-09T22:40:00	0.1919	10.889	186.0	0.438630256	0.513603391	0.006856759	0.070739923	0.021802731
2020-05-09T22:45:00	0.1924	10.870	186.0	0.440020335	0.515987680	0.006903137	0.071218388	0.021950199
2020-05-09T22:50:00	0.1926	10.851	186.0	0.440323144	0.516507781	0.006913265	0.071322877	0.021982403
2020-05-09T22:55:00	0.1922	10.833	186.0	0.439267505	0.514695742	0.006877996	0.070959019	0.021870259
2020-05-09T23:00:00	0.1919	10.814	186.0	0.438483140	0.513351372	0.006851862	0.070689402	0.021787160
2020-05-09T23:05:00	0.1915	10.794	186.0	0.437426342	0.511542783	0.006816748	0.070327130	0.021675505
2020-05-09T23:10:00	0.1925	10.773	186.0	0.440176176	0.516255320	0.006908348	0.071272152	0.021966770
2020-05-09T23:15:00	0.1929	10.749	186.0	0.441353944	0.518176223	0.006946416	0.071664895	0.022087817
2020-05-09T23:20:00	0.1932	10.726	186.0	0.442442187	0.519631175	0.006977366	0.071984203	0.022186230
2020-05-09T23:25:00	0.1927	10.704	185.0	0.440812840	0.517349420	0.006929663	0.071492053	0.022034545
2020-05-09T23:30:00	0.1928	10.680	185.0	0.440843995	0.517402988	0.006930707	0.071502824	0.022037865
2020-05-09T23:35:00	0.1924	10.660	185.0	0.439788683	0.515589972	0.006895395	0.071138517	0.021925582
2020-05-09T23:40:00	0.1928	10.639	185.0	0.440906303	0.517510130	0.006932795	0.071524370	0.022044505
2020-05-09T23:45:00	0.1924	10.616	185.0	0.439851030	0.515696997	0.006897478	0.071160008	0.021932206
2020-05-09T23:50:00	0.1916	10.595	185.0	0.437707281	0.512023274	0.006826072	0.070423325	0.021705153
2020-05-09T23:55:00	0.1921	10.575	185.0	0.439098125	0.514405286	0.006872348	0.070900744	0.021852298
2020-05-10T00:00:00	0.1923	10.553	185.0	0.439672846	0.515391154	0.006891525	0.071098598	0.021913278
2020-05-10T00:05:00	0.1928	10.532	184.0	0.441062063	0.517778016	0.006938017	0.071578247	0.022061111
2020-05-10T00:10:00	0.1929	10.511	184.0	0.441445529	0.518298633	0.006949018	0.071691740	0.022096091
2020-05-10T00:15:00	0.1931	10.492	184.0	0.441835031	0.518819308	0.006960090	0.071805968	0.022131297
2020-05-10T00:20:00	0.1932	10.474	185.0	0.442224488	0.519340042	0.006971169	0.071920271	0.022166526
2020-05-10T00:25:00	0.1931	10.457	184.0	0.441915205	0.518926498	0.006962370	0.071829491	0.022138547
2020-05-10T00:30:00	0.1928	10.439	184.0	0.440946313	0.517578935	0.006934136	0.071538207	0.022048770
2020-05-10T00:35:00	0.1916	10.421	184.0	0.437716155	0.512038455	0.006826367	0.070426365	0.021706090
2020-05-10T00:40:00	0.1916	10.405	184.0	0.437747368	0.512091852	0.006827403	0.070437058	0.021709385
2020-05-10T00:45:00	0.1906	10.391	184.0	0.435056061	0.507497664	0.006738390	0.069518732	0.021426348
2020-05-10T00:50:00	0.1907	10.376	183.0	0.435359770	0.508015097	0.006748400	0.069621995	0.021458175
2020-05-10T00:55:00	0.1897	10.362	184.0	0.432664597	0.503432282	0.006659893	0.068708892	0.021176748
2020-05-10T01:00:00	0.1890	10.347	184.0	0.430511568	0.499785858	0.006589703	0.067984748	0.020953560
2020-05-10T01:05:00	0.1891	10.331	184.0	0.430816111	0.500300856	0.006599604	0.068086893	0.020985042
2020-05-10T01:10:00	0.1892	10.314	184.0	0.431120598	0.500816017	0.006609512	0.068189112	0.021016547
2020-05-10T01:15:00	0.1890	10.297	183.0	0.430605611	0.499944861	0.006592759	0.068016280	0.020963278
2020-05-10T01:20:00	0.1891	10.279	183.0	0.430910136	0.500459909	0.006602662	0.068118448	0.020994767
2020-05-10T01:25:00	0.1887	10.261	183.0	0.429848509	0.498665482	0.006568178	0.067762679	0.020885116
2020-05-10T01:30:00	0.1883	10.244	183.0	0.428786197	0.496873035	0.006533781	0.067407818	0.020775744
2020-05-10T01:35:00	0.1886	10.227	183.0	0.429637885	0.498309845	0.006561349	0.067692231	0.020863403
2020-05-10T01:40:00	0.1889	10.212	183.0	0.430215883	0.499286086	0.006580099	0.067885664	0.020923021
2020-05-10T01:45:00	0.1896	10.198	182.0	0.432158995	0.502574821	0.006643369	0.068538418	0.021124206
2020-05-10T01:50:00	0.1901	10.187	182.0	0.433554475	0.504943173	0.006689037	0.069009561	0.021269417
2020-05-10T01:55:00	0.1904	10.175	183.0	0.434403710	0.506387116	0.006716922	0.069297246	0.021358084
2020-05-10T02:00:00	0.1909	10.164	183.0	0.435797307	0.508760989	0.006762835	0.069770924	0.021504076
2020-05-10T02:05:00	0.1908	10.154	182.0	0.435556185	0.508349870	0.006754878	0.069688827	0.021478773
2020-05-10T02:10:00	0.1913	10.145	183.0	0.436948819	0.510726581	0.006800917	0.070163808	0.021625167
2020-05-10T02:15:00	0.1911	10.137	182.0	0.436435637	0.509850138	0.006783929	0.069988549	0.021571151
2020-05-10T02:20:00	0.1906	10.129	183.0	0.435105099	0.507581193	0.006740006	0.069535399	0.021431485
2020-05-10T02:25:00	0.1901	10.122	182.0	0.433500789	0.504851958	0.006687277	0.068991399	0.021263819
2020-05-10T02:30:00	0.1904	10.114	183.0	0.434350052	0.506295821	0.006715158	0.069279047	0.021352475
2020-05-10T02:35:00	0.1903	10.107	182.0	0.434108720	0.505885319	0.006707228	0.069197233	0.021327259
2020-05-10T02:40:00	0.1901	10.101	182.0	0.433594662	0.505011456	0.006690355	0.069023158	0.021273608
2020-05-10T02:45:00	0.1900	10.094	182.0	0.433353220	0.504601276	0.006682439	0.068941492	0.021248437
2020-05-10T02:50:00	0.1900	10.087	182.0	0.433384514	0.504654432	0.006683465	0.068952073	0.021251699
2020-05-10T02:55:00	0.1898	10.081	182.0	0.432870231	0.503781225	0.006666621	0.068778300	0.021198140
2020-05-10T03:00:00	0.1896	10.075	182.0	0.432355789	0.502908484	0.006649798	0.068604741	0.021144647
2020-05-10T03:05:00	0.1889	10.068	182.0	0.430475609	0.499725065	0.006588534	0.067972693	0.020949844
2020-05-10T03:10:00	0.1888	10.062	182.0	0.429960420	0.498854493	0.006571808	0.067800129	0.020896658
2020-05-10T03:15:00	0.1884	10.056	182.0	0.428898181	0.497061837	0.006537402	0.067445172	0.020787257
2020-05-10T03:20:00	0.1885	10.048	182.0	0.429203022	0.497575972	0.006547265	0.067546921	0.020818617
2020-05-10T03:25:00	0.1888	10.042	182.0	0.430054494	0.499013405	0.006574860	0.067831619	0.020906364
2020-05-10T03:30:00	0.1884	10.036	182.0	0.428992315	0.497220574	0.006540447	0.067476582	0.020796938
2020-05-10T03:35:00	0.1894	10.027	182.0	0.431756120	0.501892089	0.006630221	0.068402766	0.021082397
2020-05-10T03:40:00	0.1893	10.019	182.0	0.431514411	0.501482691	0.006622340	0.068321459	0.021057337
2020-05-10T03:45:00	0.1893	10.011	182.0	0.431545740	0.501535746	0.006623361	0.068331994	0.021060584
2020-05-10T03:50:00	0.1891	10.004	182.0	0.431030885	0.500664205	0.006606591	0.068158985	0.021007261
2020-05-10T03:55:00	0.1896	10.000	182.0	0.432154388	0.502567012	0.006643219	0.068536866	0.021123728
2020-05-10T04:00:00	0.1898	9.996	182.0	0.432731507	0.503545809	0.006662082	0.068731472	0.021183707
2020-05-10T04:05:00	0.1897	9.992	182.0	0.432531017	0.503205672	0.006655525	0.068663828	0.021162859
2020-05-10T04:10:00	0.1898	9.992	182.0	0.432876257	0.503791452	0.006666818	0.068780334	0.021198767
2020-05-10T04:15:00	0.1892	9.990	182.0	0.431037784	0.500675878	0.006606816	0.068161302	0.021007975
2020-05-10T04:20:00	0.1895	9.990	182.0	0.431929402	0.502185686	0.006635874	0.068461092	0.021100373
2020-05-10T04:25:00	0.1893	9.990	182.0	0.431455772	0.501383396	0.006620429	0.068301742	0.021051260
2020-05-10T04:30:00	0.1891	9.990	182.0	0.430982005	0.500581500	0.006605001	0.068142574	0.021002203
2020-05-10T04:35:00	0.1889	9.992	182.0	0.430234857	0.499318148	0.006580715	0.067892019	0.020924980
2020-05-10T04:40:00	0.1882	9.994	182.0	0.428393436	0.496211120	0.006521092	0.067276906	0.020735396
2020-05-10T04:45:00	0.1885	9.996	182.0	0.429286486	0.497716785	0.006549966	0.067574796	0.020827208
2020-05-10T04:50:00	0.1885	10.000	182.0	0.429359013	0.497839163	0.006552315	0.067599024	0.020834676
2020-05-10T04:55:00	0.1884	10.008	182.0	0.428884644	0.497039013	0.006536964	0.067440656	0.020785865
2020-05-10T05:00:00	0.1881	10.017	182.0	0.428136543	0.495778413	0.006512801	0.067191364	0.020709031
2020-05-10T05:05:00	0.1882	10.026	181.0	0.428482704	0.496361524	0.006523975	0.067306646	0.020744562
2020-05-10T05:10:00	0.1888	10.032	181.0	0.430195734	0.499252038	0.006579444	0.067878915	0.020920941
2020-05-10T05:15:00	0.1891	10.037	182.0	0.430814657	0.500298396	0.006599556	0.068086405	0.020984891
2020-05-10T05:20:00	0.1890	10.045	182.0	0.430613935	0.499958936	0.006593030	0.068019072	0.020964138
2020-05-10T05:25:00	0.1888	10.055	182.0	0.430139926	0.499157742	0.006577633	0.067860225	0.020915180
2020-05-10T05:30:00	0.1884	10.065	182.0	0.429118965	0.497434180	0.006544544	0.067518856	0.020809967
2020-05-10T05:35:00	0.1878	10.075	182.0	0.427276294	0.494330758	0.006485082	0.066905396	0.020620893
2020-05-10T05:40:00	0.1872	10.084	182.0	0.425705595	0.491692835	0.006434657	0.066385174	0.020460555
2020-05-10T05:45:00	0.1874	10.091	182.0	0.426326212	0.492734318	0.006454553	0.066590429	0.020523817
2020-05-10T05:50:00	0.1878	10.099	182.0	0.427220387	0.494236748	0.006483283	0.066886837	0.020615173
2020-05-10T05:55:00	0.1882	10.105	182.0	0.428387673	0.496201410	0.006520906	0.067274986	0.020734804
2020-05-10T06:00:00	0.1887	10.112	182.0	0.429827488	0.498629983	0.006567496	0.067755646	0.020882948
2020-05-10T06:05:00	0.1884	10.120	182.0	0.429079816	0.497368146	0.006543277	0.067505787	0.020805939
2020-05-10T06:10:00	0.1880	10.127	182.0	0.427784543	0.495185809	0.006501450	0.067074261	0.020672939
2020-05-10T06:15:00	0.1885	10.135	182.0	0.429224887	0.497612859	0.006547972	0.067554223	0.020820868
2020-05-10T06:20:00	0.1880	10.149	183.0	0.427929729	0.495430192	0.006506130	0.067122546	0.020687821
2020-05-10T06:25:00	0.1879	10.164	182.0	0.427728654	0.495091749	0.006499649	0.067055679	0.020667211
2020-05-10T06:30:00	0.1876	10.176	183.0	0.426706193	0.493372506	0.006466752	0.066716290	0.020562608
2020-05-10T06:35:00	0.1870	10.195	185.0	0.425134946	0.490736149	0.006416397	0.066196785	0.020402492
2020-05-10T06:40:00	0.1873	10.215	183.0	0.426029772	0.492236717	0.006445045	0.066492340	0.020493585
2020-05-10T06:45:00	0.1876	10.242	182.0	0.426924109	0.493738684	0.006473755	0.066788536	0.020584875
2020-05-10T06:50:00	0.1873	10.273	182.0	0.425901146	0.492020881	0.006440922	0.066449806	0.020480476
2020-05-10T06:55:00	0.1873	10.298	182.0	0.425973823	0.492142829	0.006443251	0.066473837	0.020487882
2020-05-10T07:00:00	0.1872	10.330	183.0	0.425772508	0.491805074	0.006436801	0.066407285	0.020467370
2020-05-10T07:05:00	0.1880	10.377	183.0	0.427762070	0.495147986	0.006500726	0.067066789	0.020670636
2020-05-10T07:10:00	0.1870	10.423	183.0	0.425095701	0.490670389	0.006415142	0.066183841	0.020398503
2020-05-10T07:15:00	0.1875	10.471	183.0	0.426538409	0.493090659	0.006461364	0.066660697	0.020545474
2020-05-10T07:20:00	0.1871	10.486	184.0	0.425515204	0.491373547	0.006428561	0.066322284	0.020441172
2020-05-10T07:25:00	0.1872	10.534	184.0	0.425587899	0.491495445	0.006430889	0.066346292	0.020448572
2020-05-10T07:30:00	0.1880	10.566	184.0	0.427851372	0.495298292	0.006503604	0.067096484	0.020679788
2020-05-10T07:35:00	0.1877	10.596	184.0	0.427102800	0.494039047	0.006479501	0.066847812	0.020603145
2020-05-10T07:40:00	0.1877	10.618	184.0	0.427175425	0.494161147	0.006481837	0.066871913	0.020610573
2020-05-10T07:45:00	0.1880	10.633	184.0	0.427795485	0.495204225	0.006501803	0.067077899	0.020674060
2020-05-10T07:50:00	0.1888	10.659	184.0	0.430055918	0.499015811	0.006574906	0.067832096	0.020906511
2020-05-10T07:55:00	0.1887	10.682	184.0	0.429855103	0.498676618	0.006568392	0.067764886	0.020885796
2020-05-10T08:00:00	0.1890	10.708	184.0	0.430747360	0.500184572	0.006597368	0.068063825	0.020977932
2020-05-10T08:05:00	0.1887	10.738	184.0	0.429726776	0.498459921	0.006564231	0.067721957	0.020872565
2020-05-10T08:10:00	0.1885	10.790	185.0	0.429252512	0.497659465	0.006548867	0.067563449	0.020823711
2020-05-10T08:15:00	0.1878	10.825	185.0	0.427409990	0.494555612	0.006489385	0.066949791	0.020634576
2020-05-10T08:20:00	0.1884	10.848	185.0	0.428850662	0.496981718	0.006535866	0.067429320	0.020782371
2020-05-10T08:25:00	0.1883	10.911	185.0	0.428649700	0.496642950	0.006529370	0.067362305	0.020761716
2020-05-10T08:30:00	0.1882	10.971	186.0	0.428448714	0.496304253	0.006522877	0.067295321	0.020741072
2020-05-10T08:35:00	0.1886	10.997	186.0	0.429615127	0.498271426	0.006560612	0.067684622	0.020861058
2020-05-10T08:40:00	0.1885	11.074	186.0	0.429140832	0.497471063	0.006545252	0.067526156	0.020812217
2020-05-10T08:45:00	0.1886	11.152	186.0	0.429486781	0.498054784	0.006556453	0.067641718	0.020847834
2020-05-10T08:50:00	0.1880	11.223	187.0	0.427918199	0.495410782	0.006505758	0.067118711	0.020686638
2020-05-10T08:55:00	0.1873	11.240	186.0	0.426074177	0.492311238	0.006446469	0.066507027	0.020498112
2020-05-10T09:00:00	0.1869	11.286	186.0	0.424776524	0.490135720	0.006404944	0.066078626	0.020366074
2020-05-10T09:05:00	0.1860	11.349	186.0	0.422379875	0.486129998	0.006328681	0.065291836	0.020123578
2020-05-10T09:10:00	0.1861	11.391	186.0	0.422727258	0.486709624	0.006339701	0.065405522	0.020158617
2020-05-10T09:15:00	0.1858	11.395	186.0	0.421976331	0.485457085	0.006315895	0.065159921	0.020082921
2020-05-10T09:20:00	0.1861	11.416	187.0	0.422598370	0.486494529	0.006335611	0.065363327	0.020145612
2020-05-10T09:25:00	0.1861	11.447	188.0	0.422671195	0.486616058	0.006337921	0.065387166	0.020152960
2020-05-10T09:30:00	0.1863	11.471	187.0	0.423292969	0.487654254	0.006357671	0.065590916	0.020215757
2020-05-10T09:35:00	0.1866	11.507	188.0	0.424188806	0.489151946	0.006386191	0.065885154	0.020306444
2020-05-10T09:40:00	0.1876	11.579	188.0	0.426728091	0.493409298	0.006467456	0.066723548	0.020564845
2020-05-10T09:45:00	0.1874	11.646	188.0	0.426252960	0.492611336	0.006452202	0.066566183	0.020516344
2020-05-10T09:50:00	0.1875	11.673	188.0	0.426599519	0.493193305	0.006463326	0.066680942	0.020551714
2020-05-10T09:55:00	0.1873	11.729	188.0	0.425850375	0.491935700	0.006439295	0.066433022	0.020475303
2020-05-10T10:00:00	0.1871	11.774	189.0	0.425374989	0.491138467	0.006424074	0.066275991	0.020426904
2020-05-10T10:05:00	0.1875	11.810	189.0	0.426424806	0.492899871	0.006457717	0.066623073	0.020533878
2020-05-10T10:10:00	0.1868	11.843	189.0	0.424734383	0.490065148	0.006403598	0.066064742	0.020361795
2020-05-10T10:15:00	0.1869	11.885	189.0	0.424962374	0.490447012	0.006410881	0.066139878	0.020384953
2020-05-10T10:20:00	0.1877	11.915	190.0	0.427107979	0.494047753	0.006479667	0.066849531	0.020603675
2020-05-10T10:25:00	0.1882	11.937	189.0	0.428430278	0.496273191	0.006522282	0.067289179	0.020739179
2020-05-10T10:30:00	0.1880	11.964	190.0	0.427836959	0.495274031	0.006503139	0.067091691	0.020678311
2020-05-10T10:35:00	0.1874	12.023	190.0	0.426147995	0.492435135	0.006448836	0.066531448	0.020505638
2020-05-10T10:40:00	0.1867	12.066	190.0	0.424457284	0.489601230	0.006394753	0.065973492	0.020333671
2020-05-10T10:45:00	0.1862	12.090	190.0	0.423039314	0.487230589	0.006349609	0.065507749	0.020190124
2020-05-10T10:50:00	0.1867	12.117	190.0	0.424364908	0.489446620	0.006391806	0.065943089	0.020324300
2020-05-10T10:55:00	0.1873	12.124	190.0	0.425963428	0.492125385	0.006442918	0.066470399	0.020486823
2020-05-10T11:00:00	0.1864	12.137	190.0	0.423449525	0.487915830	0.006362649	0.065642279	0.020231588
2020-05-10T11:05:00	0.1863	12.164	190.0	0.423128875	0.487380157	0.006352455	0.065537107	0.020199173
2020-05-10T11:10:00	0.1878	12.182	191.0	0.427468185	0.494653500	0.006491259	0.066969121	0.020640533
2020-05-10T11:15:00	0.1878	12.182	190.0	0.427422082	0.494575951	0.006489774	0.066953807	0.020635814
2020-05-10T11:20:00	0.1887	12.175	190.0	0.429837828	0.498647445	0.006567831	0.067759106	0.020884014
2020-05-10T11:25:00	0.1892	12.168	191.0	0.431157936	0.500879206	0.006610727	0.068201654	0.021020412
2020-05-10T11:30:00	0.1896	12.168	191.0	0.432204068	0.502651233	0.006644842	0.068553605	0.021128887
2020-05-10T11:35:00	0.1890	12.164	191.0	0.430519583	0.499799409	0.006589963	0.067987435	0.020954388
2020-05-10T11:40:00	0.1897	12.163	191.0	0.432657953	0.503421008	0.006659676	0.068706650	0.021176057
2020-05-10T11:45:00	0.1902	12.152	191.0	0.433975812	0.505659314	0.006702863	0.069152201	0.021313380
2020-05-10T11:50:00	0.1910	12.147	191.0	0.436109733	0.509293923	0.006773155	0.069877387	0.021536889
2020-05-10T11:55:00	0.1915	12.146	190.0	0.437424863	0.511540254	0.006816699	0.070326624	0.021675349
2020-05-10T12:00:00	0.1917	12.147	191.0	0.437923138	0.512392604	0.006833241	0.070497291	0.021727950
2020-05-10T12:05:00	0.1916	12.158	190.0	0.437605290	0.511848812	0.006822686	0.070388394	0.021694386
2020-05-10T12:10:00	0.1911	12.168	190.0	0.436470851	0.509910256	0.006785094	0.070000567	0.021574854
2020-05-10T12:15:00	0.1915	12.176	191.0	0.437513646	0.511692075	0.006819644	0.070357015	0.021684715
2020-05-10T12:20:00	0.1916	12.177	191.0	0.437739881	0.512079042	0.006827154	0.070434493	0.021708595
2020-05-10T12:25:00	0.1924	12.183	190.0	0.439869002	0.515727849	0.006898078	0.071166204	0.021934115
2020-05-10T12:30:00	0.1924	12.189	191.0	0.439823242	0.515649294	0.006896549	0.071150429	0.021929253
2020-05-10T12:35:00	0.1923	12.191	191.0	0.439505754	0.515104431	0.006885946	0.071041039	0.021895538
2020-05-10T12:40:00	0.1932	12.192	190.0	0.442489191	0.519694039	0.006978705	0.071998010	0.022190486
2020-05-10T12:45:00	0.1927	12.202	191.0	0.440772488	0.517280042	0.006928311	0.071478104	0.022030246
2020-05-10T12:50:00	0.1932	12.208	191.0	0.442371521	0.519536669	0.006975355	0.071963447	0.022179833
2020-05-10T12:55:00	0.1928	12.219	191.0	0.440952556	0.517589672	0.006934346	0.071540366	0.022049436
2020-05-10T13:00:00	0.1925	12.245	191.0	0.440092057	0.516110847	0.006905535	0.071243129	0.021957824
2020-05-10T13:05:00	0.1925	12.259	192.0	0.440046304	0.516032274	0.006904005	0.071227346	0.021952960
2020-05-10T13:10:00	0.1919	12.258	191.0	0.438641650	0.513622913	0.006857139	0.070743837	0.021803938
2020-05-10T13:15:00	0.1923	12.255	191.0	0.439683094	0.515408742	0.006891868	0.071102129	0.021914367
2020-05-10T13:20:00	0.1924	12.255	191.0	0.439909036	0.515796580	0.006899416	0.071180007	0.021938369
2020-05-10T13:25:00	0.1928	12.255	191.0	0.440949696	0.517584753	0.006934250	0.071539377	0.022049131
2020-05-10T13:30:00	0.1934	12.253	191.0	0.442948792	0.520308810	0.006991797	0.072133085	0.022232117
2020-05-10T13:35:00	0.1931	12.248	191.0	0.441841956	0.518828567	0.006960287	0.071808000	0.022131923
2020-05-10T13:40:00	0.1925	12.240	191.0	0.440269336	0.516415343	0.006911464	0.071304303	0.021976679
2020-05-10T13:45:00	0.1923	12.235	191.0	0.439680232	0.515403830	0.006891772	0.071101143	0.021914063
2020-05-10T13:50:00	0.1920	12.228	191.0	0.438819082	0.513926952	0.006863048	0.070804801	0.021822727
2020-05-10T13:55:00	0.1913	12.224	191.0	0.436869131	0.510590437	0.006798278	0.070136576	0.021616774
2020-05-10T14:00:00	0.1906	12.226	191.0	0.434916901	0.507260662	0.006733807	0.069471448	0.021411775
2020-05-10T14:05:00	0.1891	12.238	191.0	0.430778395	0.500237061	0.006598377	0.068074237	0.020981141
2020-05-10T14:10:00	0.1876	12.257	191.0	0.426903330	0.493703762	0.006473087	0.066781645	0.020582751
2020-05-10T14:15:00	0.1869	12.283	192.0	0.424939272	0.490408312	0.006410143	0.066132263	0.020382606
2020-05-10T14:20:00	0.1863	12.303	191.0	0.423247308	0.487577975	0.006356219	0.065575940	0.020211142
2020-05-10T14:25:00	0.1866	12.320	191.0	0.424024212	0.488876605	0.006380945	0.065831033	0.020289764
2020-05-10T14:30:00	0.1863	12.347	193.0	0.423154863	0.487423560	0.006353281	0.065545627	0.020201799
2020-05-10T14:35:00	0.1859	12.358	191.0	0.422010425	0.485513920	0.006316974	0.065171060	0.020086354
2020-05-10T14:40:00	0.1860	12.370	192.0	0.422513383	0.486352723	0.006332915	0.065335514	0.020137040
2020-05-10T14:45:00	0.1867	12.395	192.0	0.424387987	0.489485245	0.006392543	0.065950684	0.020326641
2020-05-10T14:50:00	0.1855	12.426	192.0	0.421047431	0.483909848	0.006286522	0.064856890	0.019989523
2020-05-10T14:55:00	0.1851	12.450	192.0	0.419901503	0.482004403	0.006250402	0.064484243	0.019874670
2020-05-10T15:00:00	0.1854	12.471	192.0	0.420680011	0.483298509	0.006274927	0.064737266	0.019952654
2020-05-10T15:05:00	0.1857	12.485	192.0	0.421458145	0.484593667	0.006299499	0.064990770	0.020030786
2020-05-10T15:10:00	0.1854	12.490	192.0	0.420862284	0.483601741	0.006280678	0.064796593	0.019970939
2020-05-10T15:15:00	0.1856	12.488	192.0	0.421365598	0.484439540	0.006296573	0.064960588	0.020021484
2020-05-10T15:20:00	0.1860	12.479	192.0	0.422418003	0.486193601	0.006329890	0.065304308	0.020127422
2020-05-10T15:25:00	0.1869	12.467	192.0	0.424841147	0.490243951	0.006407008	0.066099921	0.020372637
2020-05-10T15:30:00	0.1873	12.451	192.0	0.425891308	0.492004376	0.006440607	0.066446554	0.020479473
2020-05-10T15:35:00	0.1867	12.442	192.0	0.424200332	0.489171229	0.006386558	0.065888945	0.020307613
2020-05-10T15:40:00	0.1866	12.438	192.0	0.424154137	0.489093942	0.006385086	0.065873752	0.020302930
2020-05-10T15:45:00	0.1868	12.435	192.0	0.424656432	0.489934622	0.006401109	0.066039065	0.020353881
2020-05-10T15:50:00	0.1864	12.436	192.0	0.423513051	0.488021988	0.006364670	0.065663128	0.020238014
2020-05-10T15:55:00	0.1863	12.440	192.0	0.423192413	0.487486280	0.006354474	0.065557939	0.020205593
2020-05-10T16:00:00	0.1862	12.449	192.0	0.422871712	0.486950751	0.006344286	0.065452832	0.020173198
2020-05-10T16:05:00	0.1863	12.452	192.0	0.423104877	0.487340077	0.006351692	0.065529239	0.020196748
2020-05-10T16:10:00	0.1854	12.455	192.0	0.420866331	0.483608475	0.006280805	0.064797911	0.019971345
2020-05-10T16:15:00	0.1843	12.458	192.0	0.417798807	0.478517480	0.006184452	0.063803855	0.019664968
2020-05-10T16:20:00	0.1842	12.456	192.0	0.417481964	0.477993113	0.006174552	0.063701711	0.019633486
2020-05-10T16:25:00	0.1837	12.458	192.0	0.416062793	0.475647821	0.006130324	0.063245419	0.019492852
2020-05-10T16:30:00	0.1830	12.457	192.0	0.414090458	0.472397599	0.006069177	0.062614581	0.019298422
2020-05-10T16:35:00	0.1824	12.454	192.0	0.412392004	0.469607285	0.006016819	0.062074414	0.019131937
2020-05-10T16:40:00	0.1817	12.454	192.0	0.410691736	0.466821933	0.005964681	0.061536512	0.018966151
2020-05-10T16:45:00	0.1821	12.444	192.0	0.411756108	0.468564640	0.005997287	0.061872907	0.019069831
2020-05-10T16:50:00	0.1829	12.430	192.0	0.413924268	0.472124221	0.006064042	0.062561601	0.019282093
2020-05-10T16:55:00	0.1836	12.419	192.0	0.415813807	0.475236926	0.006122584	0.063165571	0.019468242
2020-05-10T17:00:00	0.1848	12.407	192.0	0.419077433	0.480636384	0.006224505	0.064217068	0.019792324
2020-05-10T17:05:00	0.1846	12.396	192.0	0.418485618	0.479655084	0.006205947	0.064025610	0.019733315
2020-05-10T17:10:00	0.1847	12.385	192.0	0.418719415	0.480042632	0.006213274	0.064101204	0.019756614
2020-05-10T17:15:00	0.1837	12.375	192.0	0.416199165	0.475872947	0.006134565	0.063289179	0.019506340
2020-05-10T17:20:00	0.1827	12.367	192.0	0.413398853	0.471260434	0.006047824	0.062394284	0.019230524
2020-05-10T17:25:00	0.1824	12.361	192.0	0.412528691	0.469831547	0.006021023	0.062117780	0.019145303
2020-05-10T17:30:00	0.1828	12.359	192.0	0.413591835	0.471577610	0.006053778	0.062455707	0.019249455
2020-05-10T17:35:00	0.1829	12.354	192.0	0.413826346	0.471963179	0.006061017	0.062530397	0.019272476
2020-05-10T17:40:00	0.1837	12.351	192.0	0.415991698	0.475530478	0.006128113	0.063222614	0.019485823
2020-05-10T17:45:00	0.1837	12.348	192.0	0.415950201	0.475461993	0.006126823	0.063209304	0.019481721
2020-05-10T17:50:00	0.1847	12.346	192.0	0.418938405	0.480405773	0.006220142	0.064172060	0.019778452
2020-05-10T17:55:00	0.1849	12.344	192.0	0.419447242	0.481250063	0.006236118	0.064336882	0.019829252
2020-05-10T18:00:00	0.1845	12.337	191.0	0.418305104	0.479355962	0.006200293	0.063967280	0.019715337
2020-05-10T18:05:00	0.1836	12.327	192.0	0.415784204	0.475188083	0.006121664	0.063156082	0.019465318
2020-05-10T18:10:00	0.1831	12.317	192.0	0.414363528	0.472846954	0.006077621	0.062701691	0.019325270
2020-05-10T18:15:00	0.1833	12.306	192.0	0.414873816	0.473687216	0.006093418	0.062864673	0.019375503
2020-05-10T18:20:00	0.1831	12.294	191.0	0.414556394	0.473164450	0.006083588	0.062763261	0.019344247
2020-05-10T18:25:00	0.1829	12.282	191.0	0.413962909	0.472187779	0.006065236	0.062573917	0.019285889
2020-05-10T18:30:00	0.1828	12.269	191.0	0.413645306	0.471665511	0.006055428	0.062472732	0.019254703
2020-05-10T18:35:00	0.1823	12.253	191.0	0.412222726	0.469329620	0.006011616	0.062020733	0.019115392
2020-05-10T18:40:00	0.1832	12.234	191.0	0.414666177	0.473345222	0.006086987	0.062798324	0.019355053
2020-05-10T18:45:00	0.1824	12.214	191.0	0.412415850	0.469646405	0.006017552	0.062081978	0.019134269
2020-05-10T18:50:00	0.1817	12.192	191.0	0.410438997	0.466408577	0.005956954	0.061456797	0.018941582
2020-05-10T18:55:00	0.1814	12.169	191.0	0.409843975	0.465436110	0.005938787	0.061269371	0.018883815
2020-05-10T19:00:00	0.1824	12.150	191.0	0.412567366	0.469895012	0.006022212	0.062130054	0.019149086
2020-05-10T19:05:00	0.1849	12.130	191.0	0.419417705	0.481201034	0.006235190	0.064327307	0.019826301
2020-05-10T19:10:00	0.1854	12.114	190.0	0.420751180	0.483416895	0.006277172	0.064760426	0.019959792
2020-05-10T19:15:00	0.1857	12.100	191.0	0.421534196	0.484720338	0.006301904	0.065015578	0.020038433
2020-05-10T19:20:00	0.1867	12.086	191.0	0.424237858	0.489234016	0.006387755	0.065901288	0.020311417
2020-05-10T19:25:00	0.1884	12.073	191.0	0.428852645	0.496985060	0.006535930	0.067429982	0.020782575
2020-05-10T19:30:00	0.1913	12.058	191.0	0.436996322	0.510807746	0.006802491	0.070180045	0.021630171
2020-05-10T19:35:00	0.1923	12.049	191.0	0.439674785	0.515394481	0.006891590	0.071099266	0.021913484
2020-05-10T19:40:00	0.1927	12.047	191.0	0.440720448	0.517190575	0.006926567	0.071460116	0.022024702
2020-05-10T19:45:00	0.1942	12.039	191.0	0.445802424	0.524129596	0.007073358	0.072974525	0.022491457
2020-05-10T19:50:00	0.1961	12.040	191.0	0.452374020	0.532952809	0.007262941	0.074930421	0.023094283
2020-05-10T19:55:00	0.1970	12.065	190.0	0.455454825	0.537100903	0.007352664	0.075856081	0.023379581
2020-05-10T20:00:00	0.1951	12.061	189.0	0.449132953	0.528597009	0.007169133	0.073962621	0.022795998
2020-05-10T20:05:00	0.1954	12.050	188.0	0.450126220	0.529931021	0.007197818	0.074258561	0.022887210
2020-05-10T20:10:00	0.1944	12.038	189.0	0.446586613	0.525180685	0.007095852	0.073206592	0.022562983
2020-05-10T20:15:00	0.1943	12.022	189.0	0.446185175	0.524642556	0.007084332	0.073087749	0.022526354
2020-05-10T20:20:00	0.1932	12.009	190.0	0.442292070	0.519430418	0.006973093	0.071940115	0.022172642
2020-05-10T20:25:00	0.1935	11.993	189.0	0.443287369	0.520761803	0.007001450	0.072232671	0.022262811
2020-05-10T20:30:00	0.1926	11.975	188.0	0.440311638	0.516488014	0.006912880	0.071318905	0.021981179
2020-05-10T20:35:00	0.1920	11.958	188.0	0.438912071	0.514086328	0.006866146	0.070836764	0.021832579
2020-05-10T20:40:00	0.1919	11.946	188.0	0.438599275	0.513550314	0.006855728	0.070729282	0.021799452
2020-05-10T20:45:00	0.1918	11.932	188.0	0.438286422	0.513014474	0.006845318	0.070621880	0.021766349
2020-05-10T20:50:00	0.1913	11.915	188.0	0.436885162	0.510617823	0.006798808	0.070142054	0.021618462
2020-05-10T20:55:00	0.1912	11.895	188.0	0.436571987	0.510082933	0.006788440	0.070035089	0.021585494
2020-05-10T21:00:00	0.1905	11.877	188.0	0.434624286	0.506762487	0.006724176	0.069372088	0.021381151
2020-05-10T21:05:00	0.1915	11.860	188.0	0.437306550	0.511337970	0.006812774	0.070286137	0.021662870
2020-05-10T21:10:00	0.1922	11.841	187.0	0.439441085	0.514993483	0.006883788	0.071018771	0.021888675
2020-05-10T21:15:00	0.1921	11.822	187.0	0.439128388	0.514457176	0.006873357	0.070911154	0.021855506
2020-05-10T21:20:00	0.1912	11.801	188.0	0.436639325	0.510197921	0.006790669	0.070058080	0.021592581
2020-05-10T21:25:00	0.1907	11.784	188.0	0.435236682	0.507805360	0.006744342	0.069580133	0.021445273
2020-05-10T21:30:00	0.1909	11.763	188.0	0.435740485	0.508664091	0.006760959	0.069751572	0.021498112
2020-05-10T21:35:00	0.1905	11.743	188.0	0.434609654	0.506737582	0.006723695	0.069367121	0.021379621
2020-05-10T21:40:00	0.1901	11.722	188.0	0.433750764	0.505276742	0.006695476	0.069075991	0.021289891
2020-05-10T21:45:00	0.1896	11.704	188.0	0.432345681	0.502891343	0.006649468	0.068601333	0.021143597
2020-05-10T21:50:00	0.1887	11.688	188.0	0.429846435	0.498661979	0.006568110	0.067761985	0.020884902
2020-05-10T21:55:00	0.1879	11.671	189.0	0.427617118	0.494904063	0.006496055	0.067018605	0.020655785
2020-05-10T22:00:00	0.1868	11.653	189.0	0.424562328	0.489777068	0.006398105	0.066008074	0.020344330
2020-05-10T22:05:00	0.1865	11.637	189.0	0.423897291	0.488664337	0.006376902	0.065789318	0.020276907
2020-05-10T22:10:00	0.1876	11.621	189.0	0.426795801	0.493523064	0.006469631	0.066745992	0.020571763
2020-05-10T22:15:00	0.1858	11.605	189.0	0.421742538	0.485067440	0.006308494	0.065083571	0.020059389
2020-05-10T22:20:00	0.1850	11.588	188.0	0.419701740	0.481672609	0.006244118	0.064419415	0.019854689
2020-05-10T22:25:00	0.1844	11.570	188.0	0.417933723	0.478740846	0.006188671	0.063847379	0.019678382
2020-05-10T22:30:00	0.1837	11.553	188.0	0.416163762	0.475814498	0.006133464	0.063277817	0.019502838
2020-05-10T22:35:00	0.1835	11.535	188.0	0.415495260	0.474711482	0.006112691	0.063063504	0.019436784
2020-05-10T22:40:00	0.1838	11.518	188.0	0.416480866	0.476338143	0.006143333	0.063379631	0.019534218
2020-05-10T22:45:00	0.1839	11.500	188.0	0.416639394	0.476600031	0.006148270	0.063430568	0.019549917
2020-05-10T22:50:00	0.1837	11.482	188.0	0.415971090	0.475496467	0.006127472	0.063216004	0.019483786
2020-05-10T22:55:00	0.1842	11.464	187.0	0.417507325	0.478035074	0.006175344	0.063709883	0.019636005
2020-05-10T23:00:00	0.1833	11.446	188.0	0.414909529	0.473746050	0.006094525	0.062876089	0.019379021
2020-05-10T23:05:00	0.1833	11.426	187.0	0.415068213	0.474007508	0.006099443	0.062926829	0.019394660
2020-05-10T23:10:00	0.1827	11.408	187.0	0.413295081	0.471089922	0.006044624	0.062361270	0.019220349
2020-05-10T23:15:00	0.1824	11.390	187.0	0.412625378	0.469990214	0.006023997	0.062148467	0.019154761
2020-05-10T23:20:00	0.1817	11.372	186.0	0.410572938	0.466627616	0.005961048	0.061499034	0.018954600
2020-05-10T23:25:00	0.1816	11.354	186.0	0.410178791	0.465983192	0.005949005	0.061374792	0.018916307
2020-05-10T23:30:00	0.1811	11.335	186.0	0.408954081	0.463983533	0.005911680	0.060989711	0.018797621
2020-05-10T23:35:00	0.1810	11.317	186.0	0.408559530	0.463340203	0.005899685	0.060865967	0.018759482
2020-05-10T23:40:00	0.1802	11.300	186.0	0.406501810	0.459991920	0.005837369	0.060223063	0.018561333
2020-05-10T23:45:00	0.1801	11.283	187.0	0.406106645	0.459350243	0.005825448	0.060100072	0.018523426
2020-05-10T23:50:00	0.1804	11.267	186.0	0.406820847	0.460510292	0.005847005	0.060322470	0.018591971
2020-05-10T23:55:00	0.1811	11.251	186.0	0.408919833	0.463927674	0.005910638	0.060978964	0.018794309
2020-05-11T00:00:00	0.1818	11.234	185.0	0.410739479	0.466900035	0.005966141	0.061551577	0.018970794
2020-05-11T00:05:00	0.1822	11.218	186.0	0.412004412	0.468971638	0.006004909	0.061951544	0.019094068
2020-05-11T00:10:00	0.1825	11.202	186.0	0.412715958	0.470138882	0.006026784	0.062177223	0.019163624
2020-05-11T00:15:00	0.1819	11.184	186.0	0.411216730	0.467681122	0.005980750	0.061702297	0.019017247
2020-05-11T00:20:00	0.1819	11.168	219.0	0.411099286	0.467488851	0.005977153	0.061665187	0.019005809
2020-05-11T00:25:00	0.1822	11.152	185.0	0.411811238	0.468654989	0.005998979	0.061890361	0.019075210
2020-05-11T00:30:00	0.1815	11.136	185.0	0.410034474	0.465747344	0.005944600	0.061329339	0.018902298
2020-05-11T00:35:00	0.1808	11.122	185.0	0.407978676	0.462393872	0.005882054	0.060684069	0.018703419
2020-05-11T00:40:00	0.1801	11.108	185.0	0.406197599	0.459497899	0.005828191	0.060128367	0.018532147
2020-05-11T00:45:00	0.1794	11.095	185.0	0.404136785	0.456157915	0.005766241	0.059489244	0.018335163
2020-05-11T00:50:00	0.1785	11.082	185.0	0.401795123	0.452376843	0.005696334	0.058768028	0.018112877
2020-05-11T00:55:00	0.1780	11.070	185.0	0.400285450	0.449947117	0.005651538	0.058305876	0.017970437
2020-05-11T01:00:00	0.1776	11.059	185.0	0.399052986	0.447968146	0.005615126	0.057930217	0.017854656
2020-05-11T01:05:00	0.1772	11.048	185.0	0.398098389	0.446438190	0.005587020	0.057640260	0.017765288
2020-05-11T01:10:00	0.1768	11.037	185.0	0.396864184	0.444463775	0.005550809	0.057266673	0.017650145
2020-05-11T01:15:00	0.1767	11.028	185.0	0.396745659	0.444274384	0.005547339	0.057230874	0.017639111
2020-05-11T01:20:00	0.1773	11.018	185.0	0.398300742	0.446762299	0.005592971	0.057701651	0.017784209
2020-05-11T01:25:00	0.1769	11.008	185.0	0.397345681	0.445233555	0.005564919	0.057412245	0.017695012
2020-05-11T01:30:00	0.1764	10.998	185.0	0.395831669	0.442815195	0.005520624	0.056955262	0.017554165
2020-05-11T01:35:00	0.1761	10.989	185.0	0.394875079	0.441290427	0.005492747	0.056667663	0.017465524
2020-05-11T01:40:00	0.1765	10.980	185.0	0.396152898	0.443327780	0.005530004	0.057052036	0.017583992
2020-05-11T01:45:00	0.1756	10.972	185.0	0.393519516	0.439133966	0.005453390	0.056261615	0.017340376
2020-05-11T01:50:00	0.1752	10.963	185.0	0.392561486	0.437612915	0.005425677	0.055975704	0.017252256
2020-05-11T01:55:00	0.1742	10.955	184.0	0.389641588	0.432992375	0.005341736	0.055109706	0.016985347
2020-05-11T02:00:00	0.1738	10.947	185.0	0.388681122	0.431477546	0.005314297	0.054826620	0.016898097
2020-05-11T02:05:00	0.1746	10.937	184.0	0.390804791	0.434830299	0.005375081	0.055453721	0.017091376
2020-05-11T02:10:00	0.1749	10.929	185.0	0.391526075	0.435971805	0.005395821	0.055667687	0.017157322
2020-05-11T02:15:00	0.1756	10.921	184.0	0.393645796	0.439334644	0.005457049	0.056299367	0.017352012
2020-05-11T02:20:00	0.1761	10.912	184.0	0.394924636	0.441369358	0.005494190	0.056682541	0.017470110
2020-05-11T02:25:00	0.1766	10.904	184.0	0.396481553	0.443852504	0.005539611	0.057151150	0.017614540
2020-05-11T02:30:00	0.1762	10.896	184.0	0.395246055	0.441881453	0.005503548	0.056779093	0.017499868
2020-05-11T02:35:00	0.1766	10.889	184.0	0.396523567	0.443919603	0.005540840	0.057163828	0.017618447
2020-05-11T02:40:00	0.1766	10.883	184.0	0.396405016	0.443730279	0.005537373	0.057128059	0.017607423
2020-05-11T02:45:00	0.1764	10.877	185.0	0.395728057	0.442649921	0.005517601	0.056924068	0.017544551
2020-05-11T02:50:00	0.1764	10.872	185.0	0.395888691	0.442906164	0.005522289	0.056972433	0.017559457
2020-05-11T02:55:00	0.1767	10.866	185.0	0.396607590	0.444053810	0.005543298	0.057189188	0.017626263
2020-05-11T03:00:00	0.1762	10.860	184.0	0.395372193	0.442082497	0.005507224	0.056817011	0.017511554
2020-05-11T03:05:00	0.1759	10.855	184.0	0.394415317	0.440558468	0.005479379	0.056529748	0.017423017
2020-05-11T03:10:00	0.1753	10.851	184.0	0.392618629	0.437703570	0.005427327	0.055992733	0.017257504
2020-05-11T03:15:00	0.1737	10.847	183.0	0.388296441	0.430871534	0.005303331	0.054713486	0.016863228
2020-05-11T03:20:00	0.1744	10.843	183.0	0.390140403	0.433780081	0.005356020	0.055257072	0.017030766
2020-05-11T03:25:00	0.1744	10.838	183.0	0.390301623	0.434034817	0.005360642	0.055304752	0.017045462
2020-05-11T03:30:00	0.1735	10.832	183.0	0.387658143	0.429866864	0.005285165	0.054526073	0.016805465
2020-05-11T03:35:00	0.1729	10.826	183.0	0.386134506	0.427473137	0.005241954	0.054080274	0.016668066
2020-05-11T03:40:00	0.1730	10.821	183.0	0.386296152	0.427726795	0.005246528	0.054127465	0.016682611
2020-05-11T03:45:00	0.1732	10.814	183.0	0.386738704	0.428421619	0.005259064	0.054256793	0.016722470
2020-05-11T03:50:00	0.1739	10.807	183.0	0.388865086	0.431767497	0.005319546	0.054880774	0.016914787
2020-05-11T03:55:00	0.1741	10.800	183.0	0.389306890	0.432464212	0.005332165	0.055010959	0.016954912
2020-05-11T04:00:00	0.1745	10.794	186.0	0.390589359	0.434489627	0.005368896	0.055389910	0.017071708
2020-05-11T04:05:00	0.1755	10.787	182.0	0.393430763	0.438992949	0.005450819	0.056235091	0.017332201
2020-05-11T04:10:00	0.1753	10.782	183.0	0.392633651	0.437727404	0.005427761	0.055997211	0.017258884
2020-05-11T04:15:00	0.1753	10.777	182.0	0.392675770	0.437794231	0.005428978	0.056009765	0.017262753
2020-05-11T04:20:00	0.1756	10.773	183.0	0.393557050	0.439193608	0.005454477	0.056272834	0.017343834
2020-05-11T04:25:00	0.1762	10.770	182.0	0.395276048	0.441929253	0.005504422	0.056788107	0.017502646
2020-05-11T04:30:00	0.1774	10.767	182.0	0.398666350	0.447348176	0.005603732	0.057812671	0.017818427
2020-05-11T04:35:00	0.1772	10.764	182.0	0.398150780	0.446522094	0.005588561	0.057656151	0.017770186
2020-05-11T04:40:00	0.1777	10.764	182.0	0.399586146	0.448823734	0.005630860	0.058092546	0.017904687
2020-05-11T04:45:00	0.1774	10.762	183.0	0.398513487	0.447103173	0.005599231	0.057766237	0.017804115
2020-05-11T04:50:00	0.1764	10.760	183.0	0.395765536	0.442709702	0.005518694	0.056935351	0.017548028
2020-05-11T04:55:00	0.1771	10.758	182.0	0.397760981	0.445898011	0.005577107	0.057537983	0.017733765
2020-05-11T05:00:00	0.1764	10.755	183.0	0.395849601	0.442843802	0.005521148	0.056960661	0.017555829
2020-05-11T05:05:00	0.1770	10.753	183.0	0.397566045	0.445586066	0.005571384	0.057478943	0.017715568
2020-05-11T05:10:00	0.1766	10.750	182.0	0.396491986	0.443869165	0.005539917	0.057154298	0.017615510
2020-05-11T05:15:00	0.1768	10.751	183.0	0.396813077	0.444382107	0.005549313	0.057251235	0.017645387
2020-05-11T05:20:00	0.1779	10.749	183.0	0.399921548	0.449362368	0.005640772	0.058194805	0.017936204
2020-05-11T05:25:00	0.1785	10.747	183.0	0.401633493	0.452116413	0.005691528	0.058718443	0.018097594
2020-05-11T05:30:00	0.1775	10.746	183.0	0.398891071	0.447708466	0.005610353	0.057880974	0.017839478
2020-05-11T05:35:00	0.1784	10.748	183.0	0.401439042	0.451803193	0.005685749	0.058658823	0.018079219
2020-05-11T05:40:00	0.1790	10.750	183.0	0.403149321	0.454561635	0.005736699	0.059184463	0.018241226
2020-05-11T05:45:00	0.1778	10.753	211.0	0.399852657	0.449251707	0.005638735	0.058173792	0.017929728
2020-05-11T05:50:00	0.1783	10.758	183.0	0.401008176	0.451109525	0.005672957	0.058526847	0.018038543
2020-05-11T05:55:00	0.1785	10.762	183.0	0.401606553	0.452073012	0.005690727	0.058710181	0.018095048
2020-05-11T06:00:00	0.1787	10.764	183.0	0.402204699	0.453037105	0.005708524	0.058893791	0.018151638
2020-05-11T06:05:00	0.1795	10.762	183.0	0.404469607	0.456696537	0.005776219	0.059592183	0.018366889
2020-05-11T06:10:00	0.1799	10.758	183.0	0.405621719	0.458563393	0.005810839	0.059949352	0.018476973
2020-05-11T06:15:00	0.1820	10.751	185.0	0.411479678	0.468111740	0.005988809	0.061785435	0.019042871
2020-05-11T06:20:00	0.1832	10.742	183.0	0.414835196	0.473623598	0.006092222	0.062852329	0.019371698
2020-05-11T06:25:00	0.1827	10.733	183.0	0.413220673	0.470967677	0.006042330	0.062337604	0.019213055
2020-05-11T06:30:00	0.1827	10.724	183.0	0.413262241	0.471035967	0.006043611	0.062350824	0.019217130
2020-05-11T06:35:00	0.1839	10.715	183.0	0.416614020	0.476558108	0.006147480	0.063422413	0.019547404
2020-05-11T06:40:00	0.1841	10.705	182.0	0.417206523	0.477537491	0.006165952	0.063612995	0.019606143
2020-05-11T06:45:00	0.1854	10.698	183.0	0.420824959	0.483539640	0.006279500	0.064784442	0.019967194
2020-05-11T06:50:00	0.1865	10.690	185.0	0.423886758	0.488646723	0.006376566	0.065785857	0.020275840
2020-05-11T06:55:00	0.1878	10.678	183.0	0.427216604	0.494230387	0.006483161	0.066885581	0.020614786
2020-05-11T07:00:00	0.1890	10.659	182.0	0.430539698	0.499833416	0.006590617	0.067994179	0.020956466
2020-05-11T07:05:00	0.1890	10.641	182.0	0.430580824	0.499902951	0.006591953	0.068007968	0.020960716
2020-05-11T07:10:00	0.1893	10.624	182.0	0.431441359	0.501358991	0.006619959	0.068296897	0.021049767
2020-05-11T07:15:00	0.1900	10.608	182.0	0.433392793	0.504668495	0.006683736	0.068954873	0.021252562
2020-05-11T07:20:00	0.1909	10.591	181.0	0.435886701	0.508913448	0.006765787	0.069801376	0.021513462
2020-05-11T07:25:00	0.1908	10.572	181.0	0.435655341	0.508518913	0.006758149	0.069722580	0.021489176
2020-05-11T07:30:00	0.1907	10.549	181.0	0.435151512	0.507660258	0.006741535	0.069551176	0.021436348
2020-05-11T07:35:00	0.1909	10.530	181.0	0.435737338	0.508658725	0.006760856	0.069750501	0.021497782
2020-05-11T07:40:00	0.1914	10.509	181.0	0.437139561	0.511052529	0.006807238	0.070229018	0.021645265
2020-05-11T07:45:00	0.1920	10.488	181.0	0.438812493	0.513915659	0.006862829	0.070802537	0.021822029
2020-05-11T07:50:00	0.1911	10.465	181.0	0.436404924	0.509797709	0.006782914	0.069978069	0.021567920
2020-05-11T07:55:00	0.1917	10.443	181.0	0.438078590	0.512658662	0.006838407	0.070550587	0.021744376
2020-05-11T08:00:00	0.1910	10.421	181.0	0.436214622	0.509472904	0.006776621	0.069913152	0.021547912
2020-05-11T08:05:00	0.1896	10.403	181.0	0.432166414	0.502587399	0.006643612	0.068540918	0.021124977
2020-05-11T08:10:00	0.1885	10.386	180.0	0.429202402	0.497574927	0.006547244	0.067546715	0.020818553
2020-05-11T08:15:00	0.1893	10.369	180.0	0.431429575	0.501339039	0.006619575	0.068292935	0.021048546
2020-05-11T08:20:00	0.1889	10.352	181.0	0.430378062	0.499560173	0.006585365	0.067939999	0.020939768
2020-05-11T08:25:00	0.1892	10.335	180.0	0.431238702	0.501015907	0.006613357	0.068228786	0.021028775
2020-05-11T08:30:00	0.1885	10.326	180.0	0.429367034	0.497852697	0.006552575	0.067601704	0.020835502
2020-05-11T08:35:00	0.1871	10.315	180.0	0.425301974	0.491016075	0.006421739	0.066251892	0.020419477
2020-05-11T08:40:00	0.1870	10.294	180.0	0.425069124	0.490625857	0.006414293	0.066175076	0.020395801
2020-05-11T08:45:00	0.1875	10.273	180.0	0.426480430	0.492993283	0.006459502	0.066641493	0.020539555
2020-05-11T08:50:00	0.1883	10.257	180.0	0.428711290	0.496746761	0.006531360	0.067382839	0.020768045
2020-05-11T08:55:00	0.1883	10.243	180.0	0.428752461	0.496816163	0.006532691	0.067396568	0.020772277
2020-05-11T09:00:00	0.1895	10.228	180.0	0.432072461	0.502428138	0.006640544	0.068509267	0.021115222
2020-05-11T09:05:00	0.1885	10.204	180.0	0.429381713	0.497877466	0.006553050	0.067606608	0.020837013
2020-05-11T09:10:00	0.1881	10.185	180.0	0.428055283	0.495641579	0.006510179	0.067164319	0.020700696
2020-05-11T09:15:00	0.1874	10.168	180.0	0.426179985	0.492488832	0.006449862	0.066542033	0.020508901
2020-05-11T09:20:00	0.1879	10.148	179.0	0.427590333	0.494858996	0.006495193	0.067009704	0.020653042
2020-05-11T09:25:00	0.1872	10.135	179.0	0.425714502	0.491707775	0.006434943	0.066388117	0.020461462
2020-05-11T09:30:00	0.1869	10.119	179.0	0.424933497	0.490398637	0.006409958	0.066130359	0.020382019
2020-05-11T09:35:00	0.1880	10.099	179.0	0.427987595	0.495527611	0.006507996	0.067141797	0.020693754
2020-05-11T09:40:00	0.1880	10.076	179.0	0.427755127	0.495136300	0.006500502	0.067064480	0.020669924
2020-05-11T09:45:00	0.1866	10.047	179.0	0.423960396	0.488769870	0.006378912	0.065810057	0.020283299
2020-05-11T09:50:00	0.1870	10.018	179.0	0.425098558	0.490675175	0.006415234	0.066184784	0.020398793
2020-05-11T09:55:00	0.1869	9.990	179.0	0.424865679	0.490285039	0.006407792	0.066108005	0.020375129
2020-05-11T10:00:00	0.1862	9.969	179.0	0.422986713	0.487142754	0.006347938	0.065490511	0.020184811
2020-05-11T10:05:00	0.1863	9.948	179.0	0.423309847	0.487682450	0.006358207	0.065596453	0.020217464
2020-05-11T10:10:00	0.1858	9.926	179.0	0.421985850	0.485472953	0.006316196	0.065163031	0.020083879
2020-05-11T10:15:00	0.1853	9.907	179.0	0.420385873	0.482809369	0.006265654	0.064641597	0.019923168
2020-05-11T10:20:00	0.1859	9.884	179.0	0.422083276	0.485635374	0.006319282	0.065194865	0.020093690
2020-05-11T10:25:00	0.1844	9.866	179.0	0.418007351	0.478862766	0.006190974	0.063871139	0.019685705
2020-05-11T10:30:00	0.1837	9.849	178.0	0.416127796	0.475755123	0.006132345	0.063266276	0.019499281
2020-05-11T10:35:00	0.1828	9.828	179.0	0.413693992	0.471745552	0.006056931	0.062488237	0.019259481
2020-05-11T10:40:00	0.1826	9.811	178.0	0.412914560	0.470464923	0.006032899	0.062240302	0.019183066
2020-05-11T10:45:00	0.1808	9.793	178.0	0.407984230	0.462402917	0.005882223	0.060685807	0.018703955
2020-05-11T10:50:00	0.1810	9.778	178.0	0.408587386	0.463385609	0.005900532	0.060874699	0.018762173
2020-05-11T10:55:00	0.1813	9.756	178.0	0.409467141	0.464820737	0.005927299	0.061150852	0.018847286
2020-05-11T11:00:00	0.1810	9.736	178.0	0.408685632	0.463545770	0.005903517	0.060905500	0.018771667
2020-05-11T11:05:00	0.1802	9.722	178.0	0.406517735	0.460017789	0.005837850	0.060228022	0.018562861
2020-05-11T11:10:00	0.1798	9.706	178.0	0.405179744	0.457846798	0.005797543	0.059812182	0.018434695
2020-05-11T11:15:00	0.1795	9.688	178.0	0.404396104	0.456577557	0.005774014	0.059569439	0.018359880
2020-05-11T11:20:00	0.1792	9.668	178.0	0.403612072	0.455309361	0.005750531	0.059327173	0.018285211
2020-05-11T11:25:00	0.1789	9.648	178.0	0.402827647	0.454042210	0.005727095	0.059085383	0.018210689
2020-05-11T11:30:00	0.1789	9.628	177.0	0.402876951	0.454121805	0.005728566	0.059100563	0.018215367
2020-05-11T11:35:00	0.1780	9.605	178.0	0.400422625	0.450167634	0.005655600	0.058347778	0.017983352
2020-05-11T11:40:00	0.1785	9.586	177.0	0.401585189	0.452038596	0.005690092	0.058703630	0.018093029
2020-05-11T11:45:00	0.1780	9.568	177.0	0.400242971	0.449878839	0.005650281	0.058292903	0.017966439
2020-05-11T11:50:00	0.1779	9.549	177.0	0.400013904	0.449510739	0.005643503	0.058222982	0.017944888
2020-05-11T11:55:00	0.1783	9.533	177.0	0.401176774	0.451380897	0.005677960	0.058578468	0.018054453
2020-05-11T12:00:00	0.1782	9.516	177.0	0.400947844	0.451012434	0.005671167	0.058508381	0.018032851
2020-05-11T12:05:00	0.1780	9.503	177.0	0.400162078	0.449748831	0.005647887	0.058268205	0.017958827
2020-05-11T12:10:00	0.1776	9.489	176.0	0.399097297	0.448039224	0.005616432	0.057943698	0.017858810
2020-05-11T12:15:00	0.1781	9.476	176.0	0.400539261	0.450355175	0.005659054	0.058383420	0.017994337
2020-05-11T12:20:00	0.1775	9.457	176.0	0.398917490	0.447750832	0.005611131	0.057889007	0.017841954
2020-05-11T12:25:00	0.1769	9.439	176.0	0.397294022	0.445150936	0.005563404	0.057396616	0.017690195
2020-05-11T12:30:00	0.1771	9.424	176.0	0.397901316	0.446122645	0.005581229	0.057580509	0.017746872
2020-05-11T12:35:00	0.1762	9.409	176.0	0.395159774	0.441743960	0.005501035	0.056753165	0.017491877
2020-05-11T12:40:00	0.1752	9.391	176.0	0.392413341	0.437377930	0.005421399	0.055931571	0.017238653
2020-05-11T12:45:00	0.1745	9.376	176.0	0.390502815	0.434352808	0.005366413	0.055364289	0.017063811
2020-05-11T12:50:00	0.1738	9.360	176.0	0.388589894	0.431333793	0.005311695	0.054799778	0.016889824
2020-05-11T12:55:00	0.1738	9.349	176.0	0.388639656	0.431412202	0.005313114	0.054814418	0.016894336
2020-05-11T13:00:00	0.1745	9.334	176.0	0.390651907	0.434588524	0.005370691	0.055408433	0.017077417
2020-05-11T13:05:00	0.1751	9.317	175.0	0.392101791	0.436883947	0.005412409	0.055838827	0.017210069
2020-05-11T13:10:00	0.1761	9.302	176.0	0.394947895	0.441406406	0.005494866	0.056689524	0.017472262
2020-05-11T13:15:00	0.1751	9.279	175.0	0.392201083	0.437041353	0.005415273	0.055868375	0.017219176
2020-05-11T13:20:00	0.1755	9.266	175.0	0.393369849	0.438896177	0.005449054	0.056216891	0.017326592
2020-05-11T13:25:00	0.1763	9.245	175.0	0.395655182	0.442533695	0.005515475	0.056902135	0.017537791
2020-05-11T13:30:00	0.1761	9.227	175.0	0.394866724	0.441277121	0.005492504	0.056665155	0.017464751
2020-05-11T13:35:00	0.1752	9.205	174.0	0.392399648	0.437356213	0.005421003	0.055927493	0.017237396
2020-05-11T13:40:00	0.1752	9.188	174.0	0.392449285	0.437434938	0.005422436	0.055942277	0.017241953
2020-05-11T13:45:00	0.1752	9.167	173.0	0.392498921	0.437513667	0.005423870	0.055957063	0.017246510
2020-05-11T13:50:00	0.1767	9.148	173.0	0.396740254	0.444265748	0.005547181	0.057229241	0.017638608
2020-05-11T13:55:00	0.1753	9.127	173.0	0.392877981	0.438115134	0.005434822	0.056070061	0.017281337
2020-05-11T14:00:00	0.1745	9.111	173.0	0.390407697	0.434202457	0.005363684	0.055336137	0.017055135
2020-05-11T14:05:00	0.1734	9.094	173.0	0.387371952	0.429416762	0.005277032	0.054442169	0.016779605
2020-05-11T14:10:00	0.1734	9.081	172.0	0.387421753	0.429495070	0.005278447	0.054456764	0.016784103
2020-05-11T14:15:00	0.1727	9.063	172.0	0.385504944	0.426485885	0.005224162	0.053896713	0.016611490
2020-05-11T14:20:00	0.1727	9.047	172.0	0.385554807	0.426564038	0.005225570	0.053911237	0.016615967
2020-05-11T14:25:00	0.1737	9.026	172.0	0.388132529	0.430613434	0.005298662	0.054665323	0.016848383
2020-05-11T14:30:00	0.1748	9.002	172.0	0.391266113	0.435560226	0.005388340	0.055590513	0.017133536
2020-05-11T14:35:00	0.1745	8.978	172.0	0.390475394	0.434309462	0.005365626	0.055356172	0.017061310
2020-05-11T14:40:00	0.1745	8.951	171.0	0.390525094	0.434388028	0.005367052	0.055370884	0.017065844
2020-05-11T14:45:00	0.1752	8.926	171.0	0.392534863	0.437570681	0.005424908	0.055967772	0.017249811
2020-05-11T14:50:00	0.1755	8.900	171.0	0.393423731	0.438981776	0.005450615	0.056232989	0.017331553
2020-05-11T14:55:00	0.1773	8.872	171.0	0.398220221	0.446633315	0.005590603	0.057677217	0.017776679
2020-05-11T15:00:00	0.1790	8.845	170.0	0.403001903	0.454323556	0.005732296	0.059139044	0.018227228
2020-05-11T15:05:00	0.1805	8.825	170.0	0.407214702	0.461150612	0.005858913	0.060445327	0.018629837
2020-05-11T15:10:00	0.1816	8.797	170.0	0.410310027	0.466197714	0.005953014	0.061416143	0.018929052
2020-05-11T15:15:00	0.1833	8.763	170.0	0.415055185	0.473986040	0.006099039	0.062922663	0.019393376
2020-05-11T15:20:00	0.1842	8.733	169.0	0.417584622	0.478162979	0.006177758	0.063734795	0.019643683
2020-05-11T15:25:00	0.1860	8.703	169.0	0.422308343	0.486010685	0.006326413	0.065268441	0.020116367
2020-05-11T15:30:00	0.1866	8.681	169.0	0.424003738	0.488842360	0.006380293	0.065824303	0.020287689
2020-05-11T15:35:00	0.1856	8.658	169.0	0.421307061	0.484342065	0.006294723	0.064941502	0.020015602
2020-05-11T15:40:00	0.1851	8.631	168.0	0.419981427	0.482137182	0.006252917	0.064510191	0.019882667
2020-05-11T15:45:00	0.1854	8.604	168.0	0.420854937	0.483589518	0.006280446	0.064794201	0.019970202
2020-05-11T15:50:00	0.1854	8.583	163.0	0.420628828	0.483213377	0.006273313	0.064720612	0.019947521
2020-05-11T15:55:00	0.1861	8.552	167.0	0.422600547	0.486498161	0.006335680	0.065364040	0.020145832
2020-05-11T16:00:00	0.1873	8.524	168.0	0.425940371	0.492086696	0.006442179	0.066462775	0.020484473
2020-05-11T16:05:00	0.1867	8.496	162.0	0.424434206	0.489562602	0.006394017	0.065965896	0.020331330
2020-05-11T16:10:00	0.1866	8.468	166.0	0.424024243	0.488876657	0.006380946	0.065831043	0.020289767
2020-05-11T16:15:00	0.1873	8.441	166.0	0.426081686	0.492323841	0.006446709	0.066509511	0.020498877
2020-05-11T16:20:00	0.1872	8.416	166.0	0.425672137	0.491636718	0.006433586	0.066374119	0.020457148
2020-05-11T16:25:00	0.1875	8.387	165.0	0.426632400	0.493248538	0.006464382	0.066691836	0.020555072
2020-05-11T16:30:00	0.1890	8.363	165.0	0.430600134	0.499935600	0.006592581	0.068014444	0.020962712
2020-05-11T16:35:00	0.1882	8.332	165.0	0.428551240	0.496477012	0.006526189	0.067329485	0.020751601
2020-05-11T16:40:00	0.1888	8.299	165.0	0.430056506	0.499016804	0.006574925	0.067832293	0.020906571
2020-05-11T16:45:00	0.1883	8.266	164.0	0.428827646	0.496942913	0.006535121	0.067421643	0.020780005
2020-05-11T16:50:00	0.1895	8.240	164.0	0.431971360	0.502256788	0.006637244	0.068475219	0.021104727
2020-05-11T16:55:00	0.1883	8.209	164.0	0.428830527	0.496947770	0.006535215	0.067422604	0.020780301
2020-05-11T17:00:00	0.1889	8.182	164.0	0.430335538	0.499488299	0.006583984	0.067925750	0.020935376
2020-05-11T17:05:00	0.1887	8.158	164.0	0.429927049	0.498798127	0.006570725	0.067788960	0.020893216
2020-05-11T17:10:00	0.1890	8.135	159.0	0.430611645	0.499955064	0.006592955	0.068018304	0.020963902
2020-05-11T17:15:00	0.1888	8.106	162.0	0.430203224	0.499264695	0.006579688	0.067881424	0.020921714
2020-05-11T17:20:00	0.1888	8.085	163.0	0.430068021	0.499036258	0.006575299	0.067836148	0.020907760
2020-05-11T17:25:00	0.1899	8.063	163.0	0.433209376	0.504356980	0.006677726	0.068892865	0.021233450
2020-05-11T17:30:00	0.1893	8.047	162.0	0.431436812	0.501351293	0.006619811	0.068295368	0.021049296
2020-05-11T17:35:00	0.1902	8.028	162.0	0.434030378	0.505752097	0.006704655	0.069170687	0.021319077
2020-05-11T17:40:00	0.1898	8.006	162.0	0.432804471	0.503669622	0.006664469	0.068756099	0.021191297
2020-05-11T17:45:00	0.1900	7.980	162.0	0.433487877	0.504830021	0.006686853	0.068987031	0.021262473
2020-05-11T17:50:00	0.1904	7.955	161.0	0.434443598	0.506454986	0.006718234	0.069310777	0.021362254
2020-05-11T17:55:00	0.1904	7.940	161.0	0.434581316	0.506689350	0.006722763	0.069357504	0.021376656
2020-05-11T18:00:00	0.1912	7.917	161.0	0.436625636	0.510174544	0.006790216	0.070053405	0.021591140
2020-05-11T18:05:00	0.1917	7.896	161.0	0.437851600	0.512270188	0.006830865	0.070472772	0.021720393
2020-05-11T18:10:00	0.1918	7.880	161.0	0.438261010	0.512970962	0.006844472	0.070613161	0.021763662
2020-05-11T18:15:00	0.1918	7.860	161.0	0.438126461	0.512740607	0.006839999	0.070567004	0.021749436
2020-05-11T18:20:00	0.1922	7.843	161.0	0.439351327	0.514839511	0.006880793	0.070987870	0.021879151
2020-05-11T18:25:00	0.1930	7.825	161.0	0.441477903	0.518341905	0.006949938	0.071701231	0.022099016
2020-05-11T18:30:00	0.1941	7.806	160.0	0.445495765	0.523718697	0.007064571	0.072883873	0.022463518
2020-05-11T18:35:00	0.1944	7.786	160.0	0.446370013	0.524890316	0.007089635	0.073142457	0.022543216
2020-05-11T18:40:00	0.1956	7.771	155.0	0.450730493	0.530742973	0.007215297	0.074438885	0.022942787
2020-05-11T18:45:00	0.1961	7.745	155.0	0.452300053	0.532853309	0.007260793	0.074908265	0.023087455
2020-05-11T18:50:00	0.1975	7.727	160.0	0.457348464	0.539654279	0.007408081	0.076427811	0.023555794
2020-05-11T18:55:00	0.2001	7.711	155.0	0.466206974	0.551636723	0.007670040	0.079130394	0.024388756
2020-05-11T19:00:00	0.2013	7.689	155.0	0.470541819	0.557522906	0.007799861	0.080469724	0.024801550
2020-05-11T19:05:00	0.2033	7.676	160.0	0.477292067	0.566718642	0.008004157	0.082577416	0.025451162
2020-05-11T19:10:00	0.2039	7.657	154.0	0.479540372	0.569789520	0.008072782	0.083285402	0.025669370
2020-05-11T19:15:00	0.2058	7.636	159.0	0.485927888	0.578536003	0.008269329	0.085313139	0.026294338
2020-05-11T19:20:00	0.2070	7.628	155.0	0.490237570	0.584455712	0.008403263	0.086694919	0.026720216
2020-05-11T19:25:00	0.2072	7.612	158.0	0.490755961	0.585168767	0.008419446	0.086861869	0.026771672
2020-05-11T19:30:00	0.2072	7.597	154.0	0.490929949	0.585408139	0.008424880	0.086917939	0.026788953
2020-05-11T19:35:00	0.2085	7.588	159.0	0.495233299	0.591336383	0.008559856	0.088310458	0.027218141
2020-05-11T19:40:00	0.2095	7.576	154.0	0.498844204	0.596322191	0.008673936	0.089487403	0.027580887
2020-05-11T19:45:00	0.2095	7.566	154.0	0.498674239	0.596087274	0.008668550	0.089431830	0.027563759
2020-05-11T19:50:00	0.2110	7.554	159.0	0.503997050	0.603455205	0.008838034	0.091180369	0.028102675
2020-05-11T19:55:00	0.2116	7.544	158.0	0.505884962	0.606073967	0.008898541	0.091804603	0.028295070
2020-05-11T20:00:00	0.2125	7.533	154.0	0.509142135	0.610598814	0.009003415	0.092886577	0.028628545
2020-05-11T20:05:00	0.2141	7.524	158.0	0.514448687	0.617988992	0.009175592	0.094662890	0.029176022
2020-05-11T20:10:00	0.2134	7.512	158.0	0.512226918	0.614892072	0.009103306	0.093917128	0.028946171
2020-05-11T20:15:00	0.2136	7.502	154.0	0.512741979	0.615609660	0.009120038	0.094089752	0.028999375
2020-05-11T20:20:00	0.2149	7.499	154.0	0.517359660	0.622052633	0.009270735	0.095644460	0.029478552
2020-05-11T20:25:00	0.2143	7.490	154.0	0.515139776	0.618953113	0.009198135	0.094895464	0.029247704
2020-05-11T20:30:00	0.2153	7.483	156.0	0.518729734	0.623967595	0.009315685	0.096108200	0.029621481
2020-05-11T20:35:00	0.2145	7.474	155.0	0.515827125	0.619912400	0.009220584	0.095127063	0.029319085
2020-05-11T20:40:00	0.2141	7.463	156.0	0.514632279	0.618245078	0.009181578	0.094724647	0.029195056
2020-05-11T20:45:00	0.2143	7.453	156.0	0.515146979	0.618963164	0.009198370	0.094897890	0.029248451
2020-05-11T20:50:00	0.2149	7.448	160.0	0.517370458	0.622067719	0.009271088	0.095648110	0.029479677
2020-05-11T20:55:00	0.2163	7.442	156.0	0.521981920	0.628519288	0.009422820	0.097213496	0.029962144
2020-05-11T21:00:00	0.2153	7.434	155.0	0.518740527	0.623982686	0.009316039	0.096111858	0.029622608
2020-05-11T21:05:00	0.2171	7.428	157.0	0.524714250	0.632350032	0.009513305	0.098147015	0.030249863
2020-05-11T21:10:00	0.2184	7.420	156.0	0.529315884	0.638815263	0.009666677	0.099729325	0.030737547
2020-05-11T21:15:00	0.2188	7.416	160.0	0.530509226	0.640494704	0.009706652	0.100141744	0.030864658
2020-05-11T21:20:00	0.2195	7.410	155.0	0.533062950	0.644092563	0.009792478	0.101027187	0.031137560
2020-05-11T21:25:00	0.2205	7.402	156.0	0.536294480	0.648652980	0.009901628	0.102153272	0.031484630
2020-05-11T21:30:00	0.2211	7.390	158.0	0.538504351	0.651776512	0.009976621	0.102926964	0.031723090
2020-05-11T21:35:00	0.2224	7.386	184.0	0.542748492	0.657786558	0.010121450	0.104421130	0.032183606
2020-05-11T21:40:00	0.2227	7.380	155.0	0.543937205	0.659472512	0.010162203	0.104841571	0.032313190
2020-05-11T21:45:00	0.2255	7.372	157.0	0.553250737	0.672721980	0.010484368	0.108165293	0.033337594
2020-05-11T21:50:00	0.2271	7.360	159.0	0.558827610	0.680689753	0.010679717	0.110180675	0.033958754
2020-05-11T21:55:00	0.2283	7.350	155.0	0.562709787	0.686251395	0.010816785	0.111594776	0.034394594
2020-05-11T22:00:00	0.2296	7.338	156.0	0.567261311	0.692787778	0.010978617	0.113264368	0.034909178
2020-05-11T22:05:00	0.2306	7.329	157.0	0.570595096	0.697586235	0.011097928	0.114495277	0.035288556
2020-05-11T22:10:00	0.2324	7.320	160.0	0.576613941	0.706272699	0.011314998	0.116734750	0.035978784
2020-05-11T22:15:00	0.2327	7.308	157.0	0.577588978	0.707682708	0.011350365	0.117099622	0.036091241
2020-05-11T22:20:00	0.2342	7.300	159.0	0.582590000	0.714927125	0.011532650	0.118980221	0.036670860
2020-05-11T22:25:00	0.2356	7.286	154.0	0.587249047	0.721694858	0.011703807	0.120746014	0.037215094
2020-05-11T22:30:00	0.2366	7.273	159.0	0.590563909	0.726521027	0.011826369	0.122010471	0.037604812
2020-05-11T22:35:00	0.2384	7.261	159.0	0.596548695	0.735257590	0.012049308	0.124310485	0.038313699
2020-05-11T22:40:00	0.2377	7.249	154.0	0.594511742	0.732280701	0.011973189	0.123525188	0.038071663
2020-05-11T22:45:00	0.2392	7.234	154.0	0.599488812	0.739560515	0.012159613	0.125448484	0.038664441
2020-05-11T22:50:00	0.2397	7.221	159.0	0.601124744	0.741957867	0.012221212	0.126083994	0.038860312
2020-05-11T22:55:00	0.2399	7.205	154.0	0.601759527	0.742888702	0.012245158	0.126331033	0.038936451
2020-05-11T23:00:00	0.2415	7.190	158.0	0.607059447	0.750673598	0.012446023	0.128403324	0.039575152
2020-05-11T23:05:00	0.2425	7.175	159.0	0.610355796	0.755527388	0.012571803	0.129700975	0.039975100
2020-05-11T23:10:00	0.2433	7.160	159.0	0.612984235	0.759404236	0.012672565	0.130740517	0.040295497
2020-05-11T23:15:00	0.2430	7.146	158.0	0.611954518	0.757884750	0.012633041	0.130332756	0.040169821
2020-05-11T23:20:00	0.2426	7.129	159.0	0.610591835	0.755875300	0.012580835	0.129794153	0.040003818
2020-05-11T23:25:00	0.2428	7.112	158.0	0.611224925	0.756808678	0.012605075	0.130044240	0.040080898
2020-05-11T23:30:00	0.2442	7.094	159.0	0.615846422	0.763632460	0.012782760	0.131877379	0.040645889
2020-05-11T23:35:00	0.2445	7.075	158.0	0.617142778	0.765549795	0.012832832	0.132393966	0.040805106
2020-05-11T23:40:00	0.2435	7.055	159.0	0.613788347	0.760591430	0.012703474	0.131059397	0.040393779
2020-05-11T23:45:00	0.2448	7.035	159.0	0.618074549	0.766928777	0.012868885	0.132765913	0.040919744
2020-05-11T23:50:00	0.2450	7.016	159.0	0.618706309	0.767864171	0.012893359	0.133018408	0.040997565
2020-05-11T23:55:00	0.2457	6.996	160.0	0.620996894	0.771258468	0.012982297	0.133935965	0.041280365
2020-05-12T00:00:00	0.2458	6.977	154.0	0.621296469	0.771702720	0.012993952	0.134056209	0.041317426
2020-05-12T00:05:00	0.2456	6.958	159.0	0.620600916	0.770671373	0.012966899	0.133777111	0.041231405
2020-05-12T00:10:00	0.2450	6.938	155.0	0.618577733	0.767673771	0.012888376	0.132967000	0.040981721
2020-05-12T00:15:00	0.2457	6.919	160.0	0.620868401	0.771067943	0.012977299	0.133884407	0.041264474
2020-05-12T00:20:00	0.2460	6.899	155.0	0.621831314	0.772496049	0.013014774	0.134271025	0.041383634
2020-05-12T00:25:00	0.2471	6.880	155.0	0.625776609	0.778355527	0.013168901	0.135861126	0.041873718
2020-05-12T00:30:00	0.2475	6.860	155.0	0.627069360	0.780278357	0.013219608	0.136384263	0.042034954
2020-05-12T00:35:00	0.2476	6.839	155.0	0.627368426	0.780723386	0.013231353	0.136505434	0.042072300
2020-05-12T00:40:00	0.2476	6.818	155.0	0.627336360	0.780675667	0.013230094	0.136492439	0.042068295
2020-05-12T00:45:00	0.2474	6.800	160.0	0.626641983	0.779642524	0.013202834	0.136211201	0.041981615
2020-05-12T00:50:00	0.2473	6.780	155.0	0.626278707	0.779102177	0.013188584	0.136064186	0.041936304
2020-05-12T00:55:00	0.2483	6.759	155.0	0.629557325	0.783982913	0.013317481	0.137393999	0.042346165
2020-05-12T01:00:00	0.2478	6.739	155.0	0.627870300	0.781470378	0.013251075	0.136708901	0.042135011
2020-05-12T01:05:00	0.2466	6.720	160.0	0.623863126	0.775512018	0.013094032	0.135088710	0.041635653
2020-05-12T01:10:00	0.2481	6.700	155.0	0.628799274	0.782853629	0.013287621	0.137085936	0.042251217
2020-05-12T01:15:00	0.2481	6.680	160.0	0.629098195	0.783298880	0.013299392	0.137207371	0.042288644
2020-05-12T01:20:00	0.2482	6.659	154.0	0.629397091	0.783744170	0.013311167	0.137328852	0.042326086
2020-05-12T01:25:00	0.2480	6.640	159.0	0.628703115	0.782710413	0.013283836	0.137046884	0.042239181
2020-05-12T01:30:00	0.2477	6.620	159.0	0.627677929	0.781184027	0.013243514	0.136630893	0.042110968
2020-05-12T01:35:00	0.2473	6.602	160.0	0.626321249	0.779165449	0.013190252	0.136081398	0.041941608
2020-05-12T01:40:00	0.2471	6.583	155.0	0.625626675	0.778132608	0.013163027	0.135800520	0.041855039
2020-05-12T01:45:00	0.2474	6.565	159.0	0.626588305	0.779562673	0.013200728	0.136189473	0.041974918
2020-05-12T01:50:00	0.2479	6.547	155.0	0.628211818	0.781978817	0.013264505	0.136847448	0.042177712
2020-05-12T01:55:00	0.2478	6.529	160.0	0.627848701	0.781438226	0.013250226	0.136700142	0.042132311
2020-05-12T02:00:00	0.2474	6.512	159.0	0.626492086	0.779419548	0.013196953	0.136150529	0.041962915
2020-05-12T02:05:00	0.2480	6.495	160.0	0.628446677	0.782328523	0.013273744	0.136942767	0.042207091
2020-05-12T02:10:00	0.2480	6.478	156.0	0.628745628	0.782773729	0.013285509	0.137064149	0.042244502
2020-05-12T02:15:00	0.2475	6.461	160.0	0.627058221	0.780261782	0.013219171	0.136379750	0.042033564
2020-05-12T02:20:00	0.2469	6.444	155.0	0.625038697	0.777258595	0.013140002	0.135562983	0.041781828
2020-05-12T02:25:00	0.2466	6.428	160.0	0.624012459	0.775733821	0.013099867	0.135148909	0.041654206
2020-05-12T02:30:00	0.2467	6.411	156.0	0.624311780	0.776178458	0.013111566	0.135269614	0.041691409
2020-05-12T02:35:00	0.2462	6.395	161.0	0.622622276	0.773669719	0.013045599	0.134589036	0.041481648
2020-05-12T02:40:00	0.2459	6.380	156.0	0.621595343	0.772146006	0.013005585	0.134176227	0.041354416
2020-05-12T02:45:00	0.2453	6.364	160.0	0.619572724	0.769147545	0.012926963	0.133365090	0.041104416
2020-05-12T02:50:00	0.2443	6.349	156.0	0.616220582	0.764185704	0.012797202	0.132026372	0.040691810
2020-05-12T02:55:00	0.2432	6.333	161.0	0.612532796	0.758737968	0.012655229	0.130561669	0.040240374
2020-05-12T03:00:00	0.2421	6.315	160.0	0.609174009	0.753786188	0.012526634	0.129234975	0.039831475
2020-05-12T03:05:00	0.2438	6.298	160.0	0.614795178	0.762078686	0.012742230	0.131459234	0.040517012
2020-05-12T03:10:00	0.2421	6.281	156.0	0.609109549	0.753691249	0.012524173	0.129209583	0.039823648
2020-05-12T03:15:00	0.2429	6.264	155.0	0.611738910	0.757566705	0.012624773	0.130247460	0.040143532
2020-05-12T03:20:00	0.2421	6.249	155.0	0.609045088	0.753596311	0.012521712	0.129184192	0.039815823
2020-05-12T03:25:00	0.2419	6.232	156.0	0.608347135	0.752568600	0.012495080	0.128909439	0.039731141
2020-05-12T03:30:00	0.2433	6.216	156.0	0.612972374	0.759386728	0.012672109	0.130735816	0.040294048
2020-05-12T03:35:00	0.2430	6.200	160.0	0.611942653	0.757867247	0.012632586	0.130328061	0.040168374
2020-05-12T03:40:00	0.2429	6.183	155.0	0.611577874	0.757329185	0.012618600	0.130183771	0.040123903
2020-05-12T03:45:00	0.2424	6.168	155.0	0.609882315	0.754829638	0.012553696	0.129514169	0.039917525
2020-05-12T03:50:00	0.2429	6.154	155.0	0.611846038	0.757724725	0.012628881	0.130289836	0.040156593
2020-05-12T03:55:00	0.2429	6.139	155.0	0.611813832	0.757677219	0.012627646	0.130277096	0.040152666
2020-05-12T04:00:00	0.2428	6.124	161.0	0.611449040	0.757139176	0.012613662	0.130132830	0.040108202
2020-05-12T04:05:00	0.2434	6.109	156.0	0.613255832	0.759805162	0.012683000	0.130848177	0.040328679
2020-05-12T04:10:00	0.2431	6.094	156.0	0.612402603	0.758545851	0.012650232	0.130510114	0.040224485
2020-05-12T04:15:00	0.2432	6.079	156.0	0.612546806	0.758758641	0.012655767	0.130567217	0.040242084
2020-05-12T04:20:00	0.2429	6.064	156.0	0.611693406	0.757499587	0.012623029	0.130229462	0.040137985
2020-05-12T04:25:00	0.2442	6.050	161.0	0.616158357	0.764093688	0.012794799	0.132001587	0.040684171
2020-05-12T04:30:00	0.2443	6.036	160.0	0.616302407	0.764306709	0.012800361	0.132058966	0.040701856
2020-05-12T04:35:00	0.2448	6.023	160.0	0.618106736	0.766976425	0.012870131	0.132778771	0.040923707
2020-05-12T04:40:00	0.2450	6.010	161.0	0.618582658	0.767681064	0.012888567	0.132968969	0.040982328
2020-05-12T04:45:00	0.2454	5.998	161.0	0.620054050	0.769860781	0.012945650	0.133557887	0.041163838
2020-05-12T04:50:00	0.2456	5.984	157.0	0.620529712	0.770565816	0.012964132	0.133748557	0.041222604
2020-05-12T04:55:00	0.2456	5.971	161.0	0.620673585	0.770779105	0.012969724	0.133806256	0.041240388
2020-05-12T05:00:00	0.2461	5.959	161.0	0.622475702	0.773452186	0.013039884	0.134530075	0.041463476
2020-05-12T05:05:00	0.2459	5.947	161.0	0.621624680	0.772189524	0.013006728	0.134188011	0.041358048
2020-05-12T05:10:00	0.2464	5.936	161.0	0.623426317	0.774863337	0.013076971	0.134912704	0.041581405
2020-05-12T05:15:00	0.2459	5.926	161.0	0.621580693	0.772124276	0.013005015	0.134170343	0.041352603
2020-05-12T05:20:00	0.2471	5.918	161.0	0.625702018	0.778244624	0.013165978	0.135830973	0.041864425
2020-05-12T05:25:00	0.2463	5.910	161.0	0.622863098	0.774027168	0.013054991	0.134685937	0.041511514
2020-05-12T05:30:00	0.2474	5.903	161.0	0.626651774	0.779657088	0.013203218	0.136215164	0.041982837
2020-05-12T05:35:00	0.2476	5.896	161.0	0.627126557	0.780363464	0.013221854	0.136407433	0.042042096
2020-05-12T05:40:00	0.2479	5.891	156.0	0.628263411	0.782055634	0.013266534	0.136868384	0.042184165
2020-05-12T05:45:00	0.2478	5.886	161.0	0.628075935	0.781776507	0.013259160	0.136792314	0.042160720
2020-05-12T05:50:00	0.2484	5.883	161.0	0.629874321	0.784455294	0.013329978	0.137522929	0.042385902
2020-05-12T05:55:00	0.2484	5.880	161.0	0.630017819	0.784669159	0.013335637	0.137581313	0.042403897
2020-05-12T06:00:00	0.2480	5.878	161.0	0.628506627	0.782417795	0.013276103	0.136967104	0.042214592
2020-05-12T06:05:00	0.2483	5.877	161.0	0.629643042	0.784110638	0.013320860	0.137428856	0.042356908
2020-05-12T06:10:00	0.2496	5.876	161.0	0.633755086	0.790245214	0.013483464	0.139106415	0.042873948
2020-05-12T06:15:00	0.2488	5.876	161.0	0.631253331	0.786511252	0.013384414	0.138084535	0.042558995
2020-05-12T06:20:00	0.2484	5.877	161.0	0.630073545	0.784752216	0.013337835	0.137603990	0.042410886
2020-05-12T06:25:00	0.2478	5.878	161.0	0.627900299	0.781515035	0.013252255	0.136721068	0.042138761
2020-05-12T06:30:00	0.2487	5.881	161.0	0.631022141	0.786166459	0.013375280	0.137990299	0.042529950
2020-05-12T06:35:00	0.2490	5.888	162.0	0.631827066	0.787367104	0.013407096	0.138318540	0.042631117
2020-05-12T06:40:00	0.2482	5.896	162.0	0.629323963	0.783635217	0.013308285	0.137299125	0.042316924
2020-05-12T06:45:00	0.2493	5.905	162.0	0.632775197	0.788782062	0.013444623	0.138705698	0.042750443
2020-05-12T06:50:00	0.2485	5.915	162.0	0.630272757	0.785049155	0.013345695	0.137685071	0.042435876
2020-05-12T06:55:00	0.2476	5.926	157.0	0.627437469	0.780826138	0.013234066	0.136533416	0.042080925
2020-05-12T07:00:00	0.2481	5.941	162.0	0.628905215	0.783011422	0.013291792	0.137128968	0.042264480
2020-05-12T07:05:00	0.2483	5.955	162.0	0.629710617	0.784211335	0.013323524	0.137456338	0.042365378
2020-05-12T07:10:00	0.2485	5.972	163.0	0.630184994	0.784918334	0.013342232	0.137649348	0.042424866
2020-05-12T07:15:00	0.2495	5.988	163.0	0.633635399	0.790066456	0.013478717	0.139057438	0.042858853
2020-05-12T07:20:00	0.2494	6.003	163.0	0.633117632	0.789293288	0.013458190	0.138845666	0.042793583
2020-05-12T07:25:00	0.2497	6.026	163.0	0.634252584	0.790988381	0.013503207	0.139310092	0.042936723
2020-05-12T07:30:00	0.2492	6.049	163.0	0.632743180	0.788734269	0.013443355	0.138692615	0.042746411
2020-05-12T07:35:00	0.2493	6.068	158.0	0.632886562	0.788948310	0.013449035	0.138751210	0.042764470
2020-05-12T07:40:00	0.2482	6.093	163.0	0.629391544	0.783735905	0.013310948	0.137326597	0.042325391
2020-05-12T07:45:00	0.2477	6.122	159.0	0.627549001	0.780992130	0.013238448	0.136578623	0.042094858
2020-05-12T07:50:00	0.2472	6.147	164.0	0.626036765	0.778742368	0.013179097	0.135966319	0.041906140
2020-05-12T07:55:00	0.2474	6.179	164.0	0.626511630	0.779448619	0.013197719	0.136158439	0.041965353
2020-05-12T08:00:00	0.2464	6.213	164.0	0.623341878	0.774737958	0.013073675	0.134878693	0.041570923
2020-05-12T08:05:00	0.2471	6.249	164.0	0.625473958	0.777905570	0.013157045	0.135738803	0.041836017
2020-05-12T08:10:00	0.2465	6.290	164.0	0.623629392	0.775164892	0.013084901	0.134994515	0.041606621
2020-05-12T08:15:00	0.2466	6.316	164.0	0.624104578	0.775870654	0.013103467	0.135186051	0.041665654
2020-05-12T08:20:00	0.2456	6.367	165.0	0.620600954	0.770671429	0.012966901	0.133777127	0.041231410
2020-05-12T08:25:00	0.2465	6.389	165.0	0.623729180	0.775313084	0.013088799	0.135034726	0.041619014
2020-05-12T08:30:00	0.2461	6.450	165.0	0.622215324	0.773065798	0.013029735	0.134425370	0.041431205
2020-05-12T08:35:00	0.2464	6.463	165.0	0.623353742	0.774755575	0.013074138	0.134883472	0.041572396
2020-05-12T08:40:00	0.2455	6.526	165.0	0.620181182	0.770049200	0.012950589	0.133608835	0.041179540
2020-05-12T08:45:00	0.2463	6.510	165.0	0.622978265	0.774198126	0.013059484	0.134732290	0.041525800
2020-05-12T08:50:00	0.2451	6.584	166.0	0.619141667	0.768508964	0.012910239	0.133192551	0.041051238
2020-05-12T08:55:00	0.2441	6.652	166.0	0.615633158	0.763317173	0.012774532	0.131792495	0.040619727
2020-05-12T09:00:00	0.2445	6.730	166.0	0.617105769	0.765495038	0.012831401	0.132379203	0.040800556
2020-05-12T09:05:00	0.2443	6.778	167.0	0.616253463	0.764234328	0.012798471	0.132039469	0.040695847
2020-05-12T09:10:00	0.2443	6.806	162.0	0.616397509	0.764447355	0.012804034	0.132096855	0.040713534
2020-05-12T09:15:00	0.2445	6.816	167.0	0.616873660	0.765151648	0.012822429	0.132286639	0.040772027
2020-05-12T09:20:00	0.2439	6.836	168.0	0.615024637	0.762417756	0.012751071	0.131550445	0.040545125
2020-05-12T09:25:00	0.2422	6.916	167.0	0.609515930	0.754289840	0.012539694	0.129369712	0.039873002
2020-05-12T09:30:00	0.2429	6.948	167.0	0.611656302	0.757444860	0.012621606	0.130214787	0.040133462
2020-05-12T09:35:00	0.2418	6.993	168.0	0.608140396	0.752264262	0.012487197	0.128828113	0.039706075
2020-05-12T09:40:00	0.2420	7.012	167.0	0.608617654	0.752966881	0.012505399	0.129015894	0.039763952
2020-05-12T09:45:00	0.2409	7.073	168.0	0.605098733	0.747790821	0.012371516	0.127634654	0.039338240
2020-05-12T09:50:00	0.2399	7.147	168.0	0.601576315	0.742620009	0.012238244	0.126259707	0.038914468
2020-05-12T09:55:00	0.2399	7.188	168.0	0.601720958	0.742832137	0.012243702	0.126316017	0.038931823
2020-05-12T10:00:00	0.2407	7.226	169.0	0.604199337	0.746469545	0.012337417	0.127282853	0.039229812
2020-05-12T10:05:00	0.2408	7.271	169.0	0.604718342	0.747231916	0.012357088	0.127485802	0.039292362
2020-05-12T10:10:00	0.2408	7.317	169.0	0.604570839	0.747015225	0.012351496	0.127428106	0.039274580
2020-05-12T10:15:00	0.2399	7.348	169.0	0.601756240	0.742883882	0.012245034	0.126329754	0.038936057
2020-05-12T10:20:00	0.2393	7.410	170.0	0.599606893	0.739733481	0.012164054	0.125494300	0.038678562
2020-05-12T10:25:00	0.2400	7.416	170.0	0.602127998	0.743429178	0.012259068	0.126474546	0.038980683
2020-05-12T10:30:00	0.2401	7.460	171.0	0.602313862	0.743701848	0.012266088	0.126546968	0.039003005
2020-05-12T10:35:00	0.2384	7.536	170.0	0.596826661	0.735664089	0.012059714	0.124417846	0.038346789
2020-05-12T10:40:00	0.2405	7.574	170.0	0.603685694	0.745715270	0.012317964	0.127082165	0.039167957
2020-05-12T10:45:00	0.2400	7.616	171.0	0.601871035	0.743052252	0.012249366	0.126374455	0.038949834
2020-05-12T10:50:00	0.2387	7.705	171.0	0.597718969	0.736969446	0.012093151	0.124762812	0.038453110
2020-05-12T10:55:00	0.2390	7.745	171.0	0.598572753	0.738219067	0.012125189	0.125093343	0.038554983
2020-05-12T11:00:00	0.2394	7.766	166.0	0.600093730	0.740446722	0.012182372	0.125683284	0.038736809
2020-05-12T11:05:00	0.2379	7.841	172.0	0.594937250	0.732902269	0.011989070	0.123689021	0.038122158
2020-05-12T11:10:00	0.2376	7.903	171.0	0.594120936	0.731709955	0.011958614	0.123374815	0.038025316
2020-05-12T11:15:00	0.2399	7.975	172.0	0.601652321	0.742731474	0.012241112	0.126289295	0.038923587
2020-05-12T11:20:00	0.2386	8.058	173.0	0.597499998	0.736649051	0.012084941	0.124678112	0.038427005
2020-05-12T11:25:00	0.2377	8.101	173.0	0.594345568	0.732037999	0.011966991	0.123461237	0.038051952
2020-05-12T11:30:00	0.2393	8.155	173.0	0.599541201	0.739637252	0.012161583	0.125468810	0.038670706
2020-05-12T11:35:00	0.2394	8.224	173.0	0.600060888	0.740398601	0.012181136	0.125670531	0.038732878
2020-05-12T11:40:00	0.2391	8.310	173.0	0.598911993	0.738715758	0.012137931	0.125224800	0.038595500
2020-05-12T11:45:00	0.2405	8.321	174.0	0.603767619	0.745835560	0.012321066	0.127114163	0.039177820
2020-05-12T11:50:00	0.2403	8.385	174.0	0.602953341	0.744640208	0.012290256	0.126796305	0.039079853
2020-05-12T11:55:00	0.2392	8.432	174.0	0.599470064	0.739533053	0.012158908	0.125441210	0.038662199
2020-05-12T12:00:00	0.2393	8.409	174.0	0.599656068	0.739805514	0.012165903	0.125513382	0.038684443
2020-05-12T12:05:00	0.2399	8.368	174.0	0.601843649	0.743012084	0.012248333	0.126363790	0.038946547
2020-05-12T12:10:00	0.2396	8.352	173.0	0.600695333	0.741328376	0.012205028	0.125917021	0.038808849
2020-05-12T12:15:00	0.2398	8.371	173.0	0.601214851	0.742089978	0.012224610	0.126119046	0.038871115
2020-05-12T12:20:00	0.2389	8.386	173.0	0.598397581	0.737962631	0.012118612	0.125025491	0.038534071
2020-05-12T12:25:00	0.2400	8.383	174.0	0.601920178	0.743124333	0.012251221	0.126393594	0.038955733
2020-05-12T12:30:00	0.2399	8.389	173.0	0.601772559	0.742907816	0.012245649	0.126336108	0.038938015
2020-05-12T12:35:00	0.2398	8.416	173.0	0.601291393	0.742202206	0.012227496	0.126148826	0.038880293
2020-05-12T12:40:00	0.2397	8.417	173.0	0.601143748	0.741985729	0.012221929	0.126091387	0.038862590
2020-05-12T12:45:00	0.2382	8.469	174.0	0.595988800	0.734438991	0.012028360	0.124094377	0.038247092
2020-05-12T12:50:00	0.2387	8.510	174.0	0.597844786	0.737153557	0.012097870	0.124811492	0.038468114
2020-05-12T12:55:00	0.2382	8.520	175.0	0.596027128	0.734495020	0.012029794	0.124109165	0.038251650
2020-05-12T13:00:00	0.2385	8.514	175.0	0.596881321	0.735744032	0.012061761	0.124438964	0.038353297
2020-05-12T13:05:00	0.2386	8.577	175.0	0.597401399	0.736504797	0.012081246	0.124639983	0.038415253
2020-05-12T13:10:00	0.2391	8.582	175.0	0.598922881	0.738731701	0.012138340	0.125229021	0.038596800
2020-05-12T13:15:00	0.2394	8.558	175.0	0.600110056	0.740470644	0.012182986	0.125689624	0.038738763
2020-05-12T13:20:00	0.2382	8.537	175.0	0.595955920	0.734390927	0.012027131	0.124081692	0.038243183
2020-05-12T13:25:00	0.2367	8.511	174.0	0.591127923	0.727343097	0.011847288	0.122226286	0.037671329
2020-05-12T13:30:00	0.2367	8.522	175.0	0.590979852	0.727127253	0.011841794	0.122169609	0.037653860
2020-05-12T13:35:00	0.2364	8.532	175.0	0.590162621	0.725936299	0.011811497	0.121857040	0.037557523
2020-05-12T13:40:00	0.2361	8.551	175.0	0.589010500	0.724258250	0.011768852	0.121417081	0.037421924
2020-05-12T13:45:00	0.2361	8.567	176.0	0.588862340	0.724042538	0.011763374	0.121360562	0.037404504
2020-05-12T13:50:00	0.2361	8.559	175.0	0.589048903	0.724314167	0.011770273	0.121431733	0.037426439
2020-05-12T13:55:00	0.2362	8.547	175.0	0.589235457	0.724585811	0.011777173	0.121502921	0.037448380
2020-05-12T14:00:00	0.2366	8.536	175.0	0.590760462	0.726807480	0.011833657	0.122085658	0.037627985
2020-05-12T14:05:00	0.2359	8.526	175.0	0.588269637	0.723179780	0.011741472	0.121134600	0.037334860
2020-05-12T14:10:00	0.2359	8.523	175.0	0.588456232	0.723451363	0.011748365	0.121205714	0.037356778
2020-05-12T14:15:00	0.2353	8.524	175.0	0.586298768	0.720313018	0.011668792	0.120384775	0.037103757
2020-05-12T14:20:00	0.2351	8.528	175.0	0.585815489	0.719610548	0.011651005	0.120201273	0.037047200
2020-05-12T14:25:00	0.2344	8.543	175.0	0.583321161	0.715988016	0.011559425	0.119256453	0.036755997
2020-05-12T14:30:00	0.2347	8.554	175.0	0.584178438	0.717232463	0.011590858	0.119580748	0.036855948
2020-05-12T14:35:00	0.2325	8.571	175.0	0.576983986	0.706807732	0.011328414	0.116873157	0.036021442
2020-05-12T14:40:00	0.2325	8.589	175.0	0.576835318	0.706592766	0.011323023	0.116817541	0.036004301
2020-05-12T14:45:00	0.2320	8.605	175.0	0.575342813	0.704435694	0.011268976	0.116259949	0.035832445
2020-05-12T14:50:00	0.2336	8.599	175.0	0.580566542	0.711993470	0.011458717	0.118217469	0.036435772
2020-05-12T14:55:00	0.2331	8.591	175.0	0.579075624	0.709834076	0.011404397	0.117657065	0.036263050
2020-05-12T15:00:00	0.2333	8.610	175.0	0.579598338	0.710590947	0.011423427	0.117853388	0.036323559
2020-05-12T15:05:00	0.2337	8.625	175.0	0.580792041	0.712320234	0.011466944	0.118302348	0.036461933
2020-05-12T15:10:00	0.2325	8.622	175.0	0.576950928	0.706759930	0.011327215	0.116860789	0.036017630
2020-05-12T15:15:00	0.2336	8.610	175.0	0.580495021	0.711889839	0.011456108	0.118190555	0.036427477
2020-05-12T15:20:00	0.2328	8.598	176.0	0.577996913	0.708272860	0.011365178	0.117252450	0.036138344
2020-05-12T15:25:00	0.2322	8.589	175.0	0.575833016	0.705143965	0.011286713	0.116442936	0.035888844
2020-05-12T15:30:00	0.2320	8.584	175.0	0.575348293	0.704443612	0.011269174	0.116261994	0.035833076
2020-05-12T15:35:00	0.2322	8.588	175.0	0.575871564	0.705199670	0.011288108	0.116457332	0.035893281
2020-05-12T15:40:00	0.2323	8.591	175.0	0.576394756	0.705955843	0.011307056	0.116652808	0.035953528
2020-05-12T15:45:00	0.2317	8.591	176.0	0.574229869	0.702828393	0.011228760	0.115845045	0.035704568
2020-05-12T15:50:00	0.2322	8.593	175.0	0.575761398	0.705040476	0.011284121	0.116416193	0.035880601
2020-05-12T15:55:00	0.2315	8.588	176.0	0.573596120	0.701913597	0.011205892	0.115609122	0.035631854
2020-05-12T16:00:00	0.2320	8.580	175.0	0.575127926	0.704125276	0.011261205	0.116179780	0.035807737
2020-05-12T16:05:00	0.2314	8.571	175.0	0.573105071	0.701205014	0.011188190	0.115426491	0.035575565
2020-05-12T16:10:00	0.2317	8.571	175.0	0.574107621	0.702651906	0.011224347	0.115799517	0.035690536
2020-05-12T16:15:00	0.2311	8.579	175.0	0.572084177	0.699732502	0.011151432	0.115047270	0.035458686
2020-05-12T16:20:00	0.2308	8.589	176.0	0.571069006	0.698269101	0.011114942	0.114670806	0.035342656
2020-05-12T16:25:00	0.2312	8.595	176.0	0.572408460	0.700200145	0.011163101	0.115167659	0.035495791
2020-05-12T16:30:00	0.2313	8.596	176.0	0.572738729	0.700676512	0.011174992	0.115290336	0.035533601
2020-05-12T16:35:00	0.2315	8.595	176.0	0.573405192	0.701638065	0.011199007	0.115538095	0.035609963
2020-05-12T16:40:00	0.2319	8.589	176.0	0.575079816	0.704055784	0.011259466	0.116161836	0.035802206
2020-05-12T16:45:00	0.2320	8.585	176.0	0.575409834	0.704532518	0.011271400	0.116284958	0.035840154
2020-05-12T16:50:00	0.2318	8.582	176.0	0.574731724	0.703553039	0.011246885	0.116032042	0.035762202
2020-05-12T16:55:00	0.2319	8.580	176.0	0.575061775	0.704029725	0.011258814	0.116155107	0.035800132
2020-05-12T17:00:00	0.2315	8.579	176.0	0.573711304	0.702079837	0.011210046	0.115651983	0.035645064
2020-05-12T17:05:00	0.2306	8.572	176.0	0.570678366	0.697706208	0.011100916	0.114526109	0.035298059
2020-05-12T17:10:00	0.2312	8.565	176.0	0.572690587	0.700607068	0.011173259	0.115272450	0.035528089
2020-05-12T17:15:00	0.2307	8.558	176.0	0.571002779	0.698173661	0.011112563	0.114646268	0.035335093
2020-05-12T17:20:00	0.2306	8.550	176.0	0.570660302	0.697680181	0.011100268	0.114519420	0.035295997
2020-05-12T17:25:00	0.2315	8.544	175.0	0.573681223	0.702036422	0.011208961	0.115640789	0.035641614
2020-05-12T17:30:00	0.2321	8.536	175.0	0.575691720	0.704939793	0.011281599	0.116390177	0.035872583
2020-05-12T17:35:00	0.2322	8.528	176.0	0.576021680	0.705416611	0.011293543	0.116513401	0.035910562
2020-05-12T17:40:00	0.2330	8.520	176.0	0.578702301	0.709293657	0.011390817	0.117516954	0.036219867
2020-05-12T17:45:00	0.2324	8.511	176.0	0.576681508	0.706370384	0.011317447	0.116760016	0.035986571
2020-05-12T17:50:00	0.2332	8.501	176.0	0.579361625	0.710248167	0.011414807	0.117764462	0.036296151
2020-05-12T17:55:00	0.2328	8.492	176.0	0.578012809	0.708295860	0.011365756	0.117258407	0.036140180
2020-05-12T18:00:00	0.2333	8.482	175.0	0.579685235	0.710716792	0.011426592	0.117886040	0.036333623
2020-05-12T18:05:00	0.2344	8.471	176.0	0.583368968	0.716057398	0.011561176	0.119274525	0.036761567
2020-05-12T18:10:00	0.2340	8.459	175.0	0.582021691	0.714102834	0.011511860	0.118765741	0.036604755
2020-05-12T18:15:00	0.2345	8.447	175.0	0.583692209	0.716526564	0.011573024	0.119396759	0.036799241
2020-05-12T18:20:00	0.2343	8.435	175.0	0.583015697	0.715544743	0.011548235	0.119141009	0.036720416
2020-05-12T18:25:00	0.2337	8.423	175.0	0.580997386	0.712617832	0.011474439	0.118379668	0.036485763
2020-05-12T18:30:00	0.2346	8.413	175.0	0.584009422	0.716987066	0.011584657	0.119516776	0.036836231
2020-05-12T18:35:00	0.2346	8.401	175.0	0.584003423	0.716978357	0.011584437	0.119514506	0.036835531
2020-05-12T18:40:00	0.2345	8.387	175.0	0.583662214	0.716483024	0.011571925	0.119385414	0.036795744
2020-05-12T18:45:00	0.2348	8.372	175.0	0.584661753	0.717934326	0.011608599	0.119763778	0.036912359
2020-05-12T18:50:00	0.2362	8.355	175.0	0.589344481	0.724744576	0.011781206	0.121544534	0.037461206
2020-05-12T18:55:00	0.2357	8.337	175.0	0.587664661	0.722299457	0.011719137	0.120904180	0.037263843
2020-05-12T19:00:00	0.2361	8.318	176.0	0.588997799	0.724239759	0.011768383	0.121412236	0.037420430
2020-05-12T19:05:00	0.2365	8.298	175.0	0.590330433	0.726180806	0.011817715	0.121921190	0.037577295
2020-05-12T19:10:00	0.2360	8.277	175.0	0.588651083	0.723734992	0.011755565	0.121279998	0.037379673
2020-05-12T19:15:00	0.2357	8.253	174.0	0.587640692	0.722264585	0.011718253	0.120895056	0.037261030
2020-05-12T19:20:00	0.2357	8.228	175.0	0.587634699	0.722255867	0.011718032	0.120892775	0.037260327
2020-05-12T19:25:00	0.2364	8.206	175.0	0.589971872	0.725658398	0.011804431	0.121784142	0.037535055
2020-05-12T19:30:00	0.2373	8.182	174.0	0.592976241	0.730038944	0.011915974	0.122934903	0.037889731
2020-05-12T19:35:00	0.2361	8.156	174.0	0.588955869	0.724178709	0.011766832	0.121396240	0.037415500
2020-05-12T19:40:00	0.2372	8.132	174.0	0.592629916	0.729533598	0.011903088	0.122801967	0.037848759
2020-05-12T19:45:00	0.2379	8.107	174.0	0.594963781	0.732941030	0.011990060	0.123699240	0.038125307
2020-05-12T19:50:00	0.2389	8.080	174.0	0.598297760	0.737816514	0.012114866	0.124986834	0.038522156
2020-05-12T19:55:00	0.2386	8.051	174.0	0.597290128	0.736342012	0.012077075	0.124596961	0.038401993
2020-05-12T20:00:00	0.2392	8.023	173.0	0.599287187	0.739265202	0.012152032	0.125370273	0.038640336
2020-05-12T20:05:00	0.2388	7.997	172.0	0.597945982	0.737301648	0.012101666	0.124850653	0.038480184
2020-05-12T20:10:00	0.2396	7.968	173.0	0.600609973	0.741203263	0.012201812	0.125883843	0.038798623
2020-05-12T20:15:00	0.2386	7.939	174.0	0.597266224	0.736307043	0.012076180	0.124587720	0.038399145
2020-05-12T20:20:00	0.2375	7.912	173.0	0.593585040	0.730927524	0.011938642	0.123168767	0.037961810
2020-05-12T20:25:00	0.2387	7.884	173.0	0.597588193	0.736778092	0.012088248	0.124712223	0.038437518
2020-05-12T20:30:00	0.2392	7.857	173.0	0.599251352	0.739212719	0.012150685	0.125356375	0.038636052
2020-05-12T20:35:00	0.2396	7.831	173.0	0.600580122	0.741159510	0.012200687	0.125872242	0.038795047
2020-05-12T20:40:00	0.2395	7.804	173.0	0.600240512	0.740661805	0.012187898	0.125740292	0.038754379
2020-05-12T20:45:00	0.2389	7.777	173.0	0.598232043	0.737720322	0.012112399	0.124961388	0.038514313
2020-05-12T20:50:00	0.2386	7.750	173.0	0.597224392	0.736245848	0.012074612	0.124571548	0.038394161
2020-05-12T20:55:00	0.2393	7.721	173.0	0.599555224	0.739657793	0.012162110	0.125474251	0.038672383
2020-05-12T21:00:00	0.2390	7.692	173.0	0.598547950	0.738182757	0.012124258	0.125083735	0.038552022
2020-05-12T21:05:00	0.2401	7.663	173.0	0.602212037	0.743552463	0.012262242	0.126507289	0.038990775
2020-05-12T21:10:00	0.2400	7.633	172.0	0.601872584	0.743054524	0.012249425	0.126375058	0.038950020
2020-05-12T21:15:00	0.2410	7.603	172.0	0.605200061	0.747939721	0.012375361	0.127674320	0.039350465
2020-05-12T21:20:00	0.2401	7.573	172.0	0.602527589	0.744015428	0.012274163	0.126630274	0.039028680
2020-05-12T21:25:00	0.2399	7.543	172.0	0.601854679	0.743028262	0.012248749	0.126368086	0.038947871
2020-05-12T21:30:00	0.2407	7.514	172.0	0.604515732	0.746934273	0.012349407	0.127406554	0.039267937
2020-05-12T21:35:00	0.2407	7.484	172.0	0.604509768	0.746925512	0.012349181	0.127404222	0.039267219
2020-05-12T21:40:00	0.2399	7.455	171.0	0.601836775	0.743002001	0.012248073	0.126361113	0.038945722
2020-05-12T21:45:00	0.2401	7.430	171.0	0.602497753	0.743971651	0.012273035	0.126618643	0.039025095
2020-05-12T21:50:00	0.2400	7.405	171.0	0.602158328	0.743473671	0.012260213	0.126486363	0.038984325
2020-05-12T21:55:00	0.2400	7.378	171.0	0.602152360	0.743464917	0.012259988	0.126484037	0.038983609
2020-05-12T22:00:00	0.2397	7.353	171.0	0.601145826	0.741988775	0.012222007	0.126092195	0.038862839
2020-05-12T22:05:00	0.2401	7.327	171.0	0.602237833	0.743590307	0.012263216	0.126517341	0.038993873
2020-05-12T22:10:00	0.2398	7.301	172.0	0.601328757	0.742256992	0.012228905	0.126163363	0.038884774
2020-05-12T22:15:00	0.2395	7.277	171.0	0.600419447	0.740924026	0.012194635	0.125809805	0.038775804
2020-05-12T22:20:00	0.2389	7.254	171.0	0.598508591	0.738125137	0.012122780	0.125068488	0.038547323
2020-05-12T22:25:00	0.2389	7.231	171.0	0.598266301	0.737770465	0.012113685	0.124974652	0.038518402
2020-05-12T22:30:00	0.2382	7.208	171.0	0.596020242	0.734484954	0.012029536	0.124106508	0.038250831
2020-05-12T22:35:00	0.2374	7.183	170.0	0.593438473	0.730713572	0.011933182	0.123112444	0.037944451
2020-05-12T22:40:00	0.2367	7.160	171.0	0.590854813	0.726944997	0.011837156	0.122121758	0.037639112
2020-05-12T22:45:00	0.2369	7.138	171.0	0.591615551	0.728054046	0.011865389	0.122413031	0.037728885
2020-05-12T22:50:00	0.2360	7.117	170.0	0.588695823	0.723800120	0.011757219	0.121297058	0.037384931
2020-05-12T22:55:00	0.2363	7.098	170.0	0.589791687	0.725395917	0.011797759	0.121715303	0.037513838
2020-05-12T23:00:00	0.2365	7.079	170.0	0.590218067	0.726017082	0.011813552	0.121878233	0.037564055
2020-05-12T23:05:00	0.2365	7.063	170.0	0.590309817	0.726150767	0.011816951	0.121913308	0.037574866
2020-05-12T23:10:00	0.2347	7.047	170.0	0.584373868	0.717516239	0.011598030	0.119654739	0.036878753
2020-05-12T23:15:00	0.2332	7.031	170.0	0.579434918	0.710354296	0.011417476	0.117791992	0.036304636
2020-05-12T23:20:00	0.2339	7.014	170.0	0.581540102	0.713404535	0.011494258	0.118584144	0.036548785
2020-05-12T23:25:00	0.2322	6.998	170.0	0.575925294	0.705277317	0.011290053	0.116477399	0.035899466
2020-05-12T23:30:00	0.2329	6.982	170.0	0.578368333	0.708810307	0.011378674	0.117391686	0.036181258
2020-05-12T23:35:00	0.2327	6.967	170.0	0.577453078	0.707486135	0.011345432	0.117048732	0.036075556
2020-05-12T23:40:00	0.2325	6.951	170.0	0.576873475	0.706647937	0.011324406	0.116831814	0.036008700
2020-05-12T23:45:00	0.2321	6.937	170.0	0.575621850	0.704838837	0.011279071	0.116364092	0.035864543
2020-05-12T23:50:00	0.2319	6.923	170.0	0.575041944	0.704001082	0.011258097	0.116147711	0.035797852
2020-05-12T23:55:00	0.2322	6.910	170.0	0.575806112	0.705105088	0.011285739	0.116432889	0.035885747
2020-05-13T00:00:00	0.2320	6.899	170.0	0.575226237	0.704267288	0.011264760	0.116216454	0.035819040
2020-05-13T00:05:00	0.2319	6.888	169.0	0.574982338	0.703914988	0.011255942	0.116125482	0.035791001
2020-05-13T00:10:00	0.2309	6.876	170.0	0.571712395	0.699196467	0.011138061	0.114909326	0.035416170
2020-05-13T00:15:00	0.2318	6.865	170.0	0.574494491	0.703210464	0.011238315	0.115943627	0.035734952
2020-05-13T00:20:00	0.2310	6.855	169.0	0.571896863	0.699462418	0.011144695	0.114977759	0.035437262
2020-05-13T00:25:00	0.2313	6.844	170.0	0.572997980	0.701050507	0.011184331	0.115386681	0.035563296
2020-05-13T00:30:00	0.2316	6.834	170.0	0.573762593	0.702153863	0.011211897	0.115671071	0.035650947
2020-05-13T00:35:00	0.2309	6.825	169.0	0.571500828	0.698891482	0.011130456	0.114830865	0.035391988
2020-05-13T00:40:00	0.2299	6.814	169.0	0.568227629	0.694177695	0.011013132	0.113620457	0.035018928
2020-05-13T00:45:00	0.2304	6.804	169.0	0.570003036	0.696733388	0.011076691	0.114276180	0.035221028
2020-05-13T00:50:00	0.2303	6.793	169.0	0.569422199	0.695896988	0.011055877	0.114061444	0.035154845
2020-05-13T00:55:00	0.2312	6.784	169.0	0.572542422	0.700393357	0.011167924	0.115217411	0.035511125
2020-05-13T01:00:00	0.2308	6.773	169.0	0.571289249	0.698586515	0.011122853	0.114752426	0.035367812
2020-05-13T01:05:00	0.2303	6.763	170.0	0.569699078	0.696295656	0.011065796	0.114163781	0.035186386
2020-05-13T01:10:00	0.2297	6.753	170.0	0.567434685	0.693037095	0.010984806	0.113328214	0.034928856
2020-05-13T01:15:00	0.2303	6.745	169.0	0.569547089	0.696076805	0.011060351	0.114107598	0.035169070
2020-05-13T01:20:00	0.2287	6.736	169.0	0.564250109	0.688461517	0.010871415	0.112158386	0.034568304
2020-05-13T01:25:00	0.2274	6.726	169.0	0.559620219	0.681824243	0.010707630	0.110468642	0.034047508
2020-05-13T01:30:00	0.2273	6.716	169.0	0.559375229	0.681473525	0.010698998	0.110379593	0.034020062
2020-05-13T01:35:00	0.2267	6.707	169.0	0.557441890	0.678707562	0.010631007	0.109678138	0.033803867
2020-05-13T01:40:00	0.2262	6.696	169.0	0.555845396	0.676425832	0.010575027	0.109100608	0.033625867
2020-05-13T01:45:00	0.2263	6.685	169.0	0.555938051	0.676558199	0.010578272	0.109134084	0.033636185
2020-05-13T01:50:00	0.2258	6.675	169.0	0.554340867	0.674277457	0.010522410	0.108557763	0.033458557
2020-05-13T01:55:00	0.2269	6.662	169.0	0.558150022	0.679720306	0.010655885	0.109934799	0.033882973
2020-05-13T02:00:00	0.2268	6.651	169.0	0.557567209	0.678886759	0.010635407	0.109723537	0.033817860
2020-05-13T02:05:00	0.2264	6.640	169.0	0.556308647	0.677087701	0.010591255	0.109268029	0.033677468
2020-05-13T02:10:00	0.2271	6.630	169.0	0.558765433	0.680600778	0.010677529	0.110158101	0.033951797
2020-05-13T02:15:00	0.2260	6.619	169.0	0.555142307	0.675421632	0.010550422	0.108846757	0.033547628
2020-05-13T02:20:00	0.2266	6.610	169.0	0.556924383	0.677967706	0.010612845	0.109490761	0.033746116
2020-05-13T02:25:00	0.2252	6.602	169.0	0.552284740	0.671344442	0.010450717	0.107818116	0.033230590
2020-05-13T02:30:00	0.2264	6.594	169.0	0.556434007	0.677266839	0.010595649	0.109313358	0.033691438
2020-05-13T02:35:00	0.2258	6.588	169.0	0.554499033	0.674503221	0.010527935	0.108614766	0.033476126
2020-05-13T02:40:00	0.2265	6.581	169.0	0.556619284	0.677531621	0.010602144	0.109380368	0.033712092
2020-05-13T02:45:00	0.2271	6.575	169.0	0.558738244	0.680561872	0.010676573	0.110148231	0.033948754
2020-05-13T02:50:00	0.2263	6.568	169.0	0.556128865	0.676830816	0.010584956	0.109203040	0.033657437
2020-05-13T02:55:00	0.2260	6.564	164.0	0.554869783	0.675032504	0.010540892	0.108748443	0.033517326
2020-05-13T03:00:00	0.2258	6.557	169.0	0.554286420	0.674199746	0.010520508	0.108538144	0.033452510
2020-05-13T03:05:00	0.2264	6.552	169.0	0.556406800	0.677227960	0.010594695	0.109303519	0.033688406
2020-05-13T03:10:00	0.2261	6.547	169.0	0.555485774	0.675912144	0.010562438	0.108970729	0.033585837
2020-05-13T03:15:00	0.2239	6.542	169.0	0.547797366	0.664955364	0.010295112	0.106212777	0.032735810
2020-05-13T03:20:00	0.2239	6.538	169.0	0.547890236	0.665087424	0.010298321	0.106245878	0.032746011
2020-05-13T03:25:00	0.2239	6.533	169.0	0.547983104	0.665219487	0.010301530	0.106278982	0.032756215
2020-05-13T03:30:00	0.2242	6.529	168.0	0.549091799	0.666796669	0.010339877	0.106674604	0.032878149
2020-05-13T03:35:00	0.2232	6.524	168.0	0.545458569	0.661631953	0.010214481	0.105380914	0.032479421
2020-05-13T03:40:00	0.2230	6.521	168.0	0.544873624	0.660801450	0.010194364	0.105173378	0.032415457
2020-05-13T03:45:00	0.2222	6.517	168.0	0.542253804	0.657085282	0.010104515	0.104246414	0.032129757
2020-05-13T03:50:00	0.2233	6.515	169.0	0.545737360	0.662027877	0.010224075	0.105479901	0.032509930
2020-05-13T03:55:00	0.2242	6.512	169.0	0.548878855	0.666493665	0.010332506	0.106598560	0.032854711
2020-05-13T04:00:00	0.2235	6.510	168.0	0.546600881	0.663254608	0.010253823	0.105786798	0.032604519
2020-05-13T04:05:00	0.2233	6.507	168.0	0.545965120	0.662351377	0.010231917	0.105560804	0.032534865
2020-05-13T04:10:00	0.2242	6.505	168.0	0.549055446	0.666744939	0.010338618	0.106661620	0.032874147
2020-05-13T04:15:00	0.2236	6.505	168.0	0.547065366	0.663914717	0.010269842	0.105952064	0.032655455
2020-05-13T04:20:00	0.2240	6.504	168.0	0.548123378	0.665418980	0.010306377	0.106328996	0.032771629
2020-05-13T04:25:00	0.2253	6.506	168.0	0.552564936	0.671743931	0.010460472	0.107918760	0.033261610
2020-05-13T04:30:00	0.2255	6.508	168.0	0.553283139	0.672768200	0.010485498	0.108176948	0.033341186
2020-05-13T04:35:00	0.2257	6.511	168.0	0.554001193	0.673792681	0.010510549	0.108435395	0.033420842
2020-05-13T04:40:00	0.2254	6.515	168.0	0.553028625	0.672405175	0.010476626	0.108085416	0.033312975
2020-05-13T04:45:00	0.2258	6.519	168.0	0.554422880	0.674394519	0.010525275	0.108587318	0.033467666
2020-05-13T04:50:00	0.2264	6.524	168.0	0.556492323	0.677350177	0.010597693	0.109334447	0.033697938
2020-05-13T04:55:00	0.2246	6.530	168.0	0.550447731	0.668726930	0.010386874	0.107159460	0.033027586
2020-05-13T05:00:00	0.2252	6.535	168.0	0.552181298	0.671196976	0.010447116	0.107780973	0.033219143
2020-05-13T05:05:00	0.2245	6.543	169.0	0.549854540	0.667882297	0.010366300	0.106947209	0.032962168
2020-05-13T05:10:00	0.2256	6.553	168.0	0.553617713	0.673245500	0.010497166	0.108297332	0.033378289
2020-05-13T05:15:00	0.2260	6.562	168.0	0.555011732	0.675235182	0.010545855	0.108799646	0.033533108
2020-05-13T05:20:00	0.2259	6.573	168.0	0.554715538	0.674812291	0.010535501	0.108692818	0.033500182
2020-05-13T05:25:00	0.2272	6.585	169.0	0.559148690	0.681149264	0.010691020	0.110297282	0.033994694
2020-05-13T05:30:00	0.2279	6.599	169.0	0.561552694	0.684592435	0.010775839	0.111172341	0.034264395
2020-05-13T05:35:00	0.2289	6.612	168.0	0.564966250	0.689489735	0.010896862	0.112420916	0.034649218
2020-05-13T05:40:00	0.2289	6.628	168.0	0.564670901	0.689065629	0.010886364	0.112312606	0.034615836
2020-05-13T05:45:00	0.2289	6.644	169.0	0.564712588	0.689125485	0.010887845	0.112327890	0.034620547
2020-05-13T05:50:00	0.2298	6.661	169.0	0.567786326	0.693542844	0.010997363	0.113457766	0.034968785
2020-05-13T05:55:00	0.2288	6.679	169.0	0.564458908	0.688761262	0.010878831	0.112234897	0.034591885
2020-05-13T06:00:00	0.2275	6.699	169.0	0.560115995	0.682534129	0.010725108	0.110648959	0.034103084
2020-05-13T06:05:00	0.2282	6.720	169.0	0.562519333	0.685978260	0.010810040	0.111525189	0.034373146
2020-05-13T06:10:00	0.2288	6.742	169.0	0.564583975	0.688940822	0.010883275	0.112280739	0.034606014
2020-05-13T06:15:00	0.2290	6.761	169.0	0.565299705	0.689968645	0.010908721	0.112543264	0.034686927
2020-05-13T06:20:00	0.2286	6.782	169.0	0.563656057	0.687608914	0.010850329	0.111940849	0.034501257
2020-05-13T06:25:00	0.2292	6.807	169.0	0.565720027	0.690572446	0.010923679	0.112697581	0.034734489
2020-05-13T06:30:00	0.2292	6.831	169.0	0.565761702	0.690632321	0.010925162	0.112712887	0.034739206
2020-05-13T06:35:00	0.2288	6.854	170.0	0.564455357	0.688756165	0.010878705	0.112233596	0.034591484
2020-05-13T06:40:00	0.2285	6.877	169.0	0.563485704	0.687364471	0.010844287	0.111878506	0.034482042
2020-05-13T06:45:00	0.2289	6.895	170.0	0.564875782	0.689359819	0.010893646	0.112387734	0.034638991
2020-05-13T06:50:00	0.2297	6.914	170.0	0.567612627	0.693293008	0.010991159	0.113393762	0.034949059
2020-05-13T06:55:00	0.2294	6.932	170.0	0.566643849	0.691900046	0.010956591	0.113037131	0.034839141
2020-05-13T07:00:00	0.2298	6.955	170.0	0.567695930	0.693412823	0.010994134	0.113424455	0.034958519
2020-05-13T07:05:00	0.2289	6.977	170.0	0.564705488	0.689115290	0.010887593	0.112325287	0.034619744
2020-05-13T07:10:00	0.2306	6.999	170.0	0.570472187	0.697409164	0.011093518	0.114449776	0.035274532
2020-05-13T07:15:00	0.2303	7.022	170.0	0.569504202	0.696015054	0.011058814	0.114091748	0.035164185
2020-05-13T07:20:00	0.2296	7.042	170.0	0.567188984	0.692683776	0.010976036	0.113237738	0.034900971
2020-05-13T07:25:00	0.2290	7.075	171.0	0.565209245	0.689838717	0.010905503	0.112510067	0.034676695
2020-05-13T07:30:00	0.2295	7.100	171.0	0.566935483	0.692319293	0.010966991	0.113144428	0.034872212
2020-05-13T07:35:00	0.2280	7.140	172.0	0.561921089	0.685120495	0.010788867	0.111306748	0.034305821
2020-05-13T07:40:00	0.2279	7.165	171.0	0.561288123	0.684213266	0.010766487	0.111075865	0.034234660
2020-05-13T07:45:00	0.2279	7.198	172.0	0.561329850	0.684273063	0.010767962	0.111091078	0.034239349
2020-05-13T07:50:00	0.2277	7.223	171.0	0.560696777	0.683365989	0.010745601	0.110860384	0.034168247
2020-05-13T07:55:00	0.2283	7.262	171.0	0.562762498	0.686326995	0.010818652	0.111614039	0.034400531
2020-05-13T08:00:00	0.2275	7.297	172.0	0.560105330	0.682518856	0.010724732	0.110645079	0.034101888
2020-05-13T08:05:00	0.2280	7.343	172.0	0.561834095	0.684995786	0.010785789	0.111275001	0.034296036
2020-05-13T08:10:00	0.2278	7.385	172.0	0.561201113	0.684088580	0.010763413	0.111044146	0.034224884
2020-05-13T08:15:00	0.2289	7.405	172.0	0.564952050	0.689469343	0.010896357	0.112415708	0.034647613
2020-05-13T08:20:00	0.2299	7.443	172.0	0.568025577	0.693887007	0.011005911	0.113545954	0.034995966
2020-05-13T08:25:00	0.2297	7.488	172.0	0.567393717	0.692978179	0.010983343	0.113313126	0.034924206
2020-05-13T08:30:00	0.2293	7.510	172.0	0.566087983	0.691101141	0.010936782	0.112832760	0.034776153
2020-05-13T08:35:00	0.2290	7.573	173.0	0.565118782	0.689708791	0.010902286	0.112476873	0.034666465
2020-05-13T08:40:00	0.2297	7.579	172.0	0.567518679	0.693157891	0.010987804	0.113359153	0.034938392
2020-05-13T08:45:00	0.2277	7.611	173.0	0.560818425	0.683540262	0.010749896	0.110904694	0.034181904
2020-05-13T08:50:00	0.2269	7.680	173.0	0.558159775	0.679734257	0.010656228	0.109938336	0.033884063
2020-05-13T08:55:00	0.2280	7.728	173.0	0.561913983	0.685110308	0.010788615	0.111304154	0.034305021
2020-05-13T09:00:00	0.2255	7.798	174.0	0.553174556	0.672613317	0.010481712	0.108137893	0.033329149
2020-05-13T09:05:00	0.2261	7.885	173.0	0.555244742	0.675567912	0.010554005	0.108883723	0.033559021
2020-05-13T09:10:00	0.2267	7.937	174.0	0.557313697	0.678524270	0.010626506	0.109631707	0.033789557
2020-05-13T09:15:00	0.2269	7.933	174.0	0.558030920	0.679549942	0.010651698	0.109891609	0.033869661
2020-05-13T09:20:00	0.2263	8.009	174.0	0.556045973	0.676712385	0.010582052	0.109173082	0.033648204
2020-05-13T09:25:00	0.2262	8.042	175.0	0.555749868	0.676289368	0.010571683	0.109066100	0.033615231
2020-05-13T09:30:00	0.2270	8.130	175.0	0.558493880	0.680212228	0.010667976	0.110059540	0.033921419
2020-05-13T09:35:00	0.2253	8.205	175.0	0.552790985	0.672066266	0.010468345	0.107999989	0.033286645
2020-05-13T09:40:00	0.2248	8.267	176.0	0.550803046	0.669232993	0.010399207	0.107286698	0.033066802
2020-05-13T09:45:00	0.2255	8.320	176.0	0.553212819	0.672667894	0.010483046	0.108151655	0.033333390
2020-05-13T09:50:00	0.2251	8.377	176.0	0.551901760	0.670798514	0.010437390	0.107680631	0.033188216
2020-05-13T09:55:00	0.2260	8.431	176.0	0.554986811	0.675199598	0.010544984	0.108790656	0.033530337
2020-05-13T10:00:00	0.2263	8.481	176.0	0.556042414	0.676707300	0.010581928	0.109171796	0.033647808
2020-05-13T10:05:00		8.524	176.0					
2020-05-13T10:10:00		8.575	176.0					
2020-05-13T10:15:00		8.623	176.0					
2020-05-13T10:20:00		8.675	177.0					
2020-05-13T10:25:00		8.731	177.0					
2020-05-13T10:30:00		8.780	177.0					
2020-05-13T10:35:00		8.818	177.0					
2020-05-13T10:40:00		8.869	178.0					
2020-05-13T10:45:00		8.904	178.0					
2020-05-13T10:50:00		9.017	178.0					
2020-05-13T10:55:00								
2020-05-13T11:00:00								
2020-05-13T11:05:00	0.2443	10.035	184.0	0.616344466	0.764368909	0.012801985	0.132075722	0.040707020
2020-05-13T11:10:00	0.2575	9.188	184.0	0.659769931	0.829388554	0.014536004	0.149965271	0.046220753
2020-05-13T11:15:00	0.2569	9.264	184.0	0.657977623	0.826673244	0.014462164	0.149203477	0.045985961
2020-05-13T11:20:00	0.2562	9.348	185.0	0.655527420	0.822965676	0.014361538	0.148165336	0.045665995
2020-05-13T11:25:00	0.2569	9.419	185.0	0.658003542	0.826712490	0.014463230	0.149214478	0.045989351
2020-05-13T11:30:00	0.2567	9.439	185.0	0.657195639	0.825489413	0.014430009	0.148871741	0.045883717
2020-05-13T11:35:00	0.2565	9.486	185.0	0.656715996	0.824763550	0.014410305	0.148668457	0.045821062
2020-05-13T11:40:00	0.2556	9.578	185.0	0.653607579	0.820064221	0.014282949	0.147354554	0.045416105
2020-05-13T11:45:00	0.2555	9.630	186.0	0.653456196	0.819835570	0.014276762	0.147290721	0.045396431
2020-05-13T11:50:00	0.2553	9.657	186.0	0.652647275	0.818614094	0.014243724	0.146949873	0.045291378
2020-05-13T11:55:00	0.2545	9.704	186.0	0.650193450	0.814912218	0.014143749	0.145918448	0.044973483
2020-05-13T12:00:00	0.2544	9.761	186.0	0.649712876	0.814187817	0.014124212	0.145716890	0.044911361
2020-05-13T12:05:00	0.2552	9.798	187.0	0.652521810	0.818424691	0.014238603	0.146897044	0.045275096
2020-05-13T12:10:00	0.2541	9.821	187.0	0.648751534	0.812739318	0.014085173	0.145314130	0.044787226
2020-05-13T12:15:00	0.2547	9.846	186.0	0.650574398	0.815486585	0.014159245	0.146078324	0.045022758
2020-05-13T12:20:00	0.2540	9.852	187.0	0.648448355	0.812282666	0.014072873	0.145187232	0.044748115
2020-05-13T12:25:00	0.2548	9.856	187.0	0.650929337	0.816021849	0.014173692	0.146227368	0.045068695
2020-05-13T12:30:00	0.2550	9.899	187.0	0.651764606	0.817281895	0.014207719	0.146578421	0.045176893
2020-05-13T12:35:00	0.2540	9.957	187.0	0.648322743	0.812093492	0.014067778	0.145134673	0.044731916
2020-05-13T12:40:00	0.2548	10.005	187.0	0.651132761	0.816328669	0.014181975	0.146312824	0.045095033
2020-05-13T12:45:00	0.2538	10.058	188.0	0.647690294	0.811141210	0.014042142	0.144870193	0.044650400
2020-05-13T12:50:00	0.2528	10.117	188.0	0.644574083	0.806454090	0.013916185	0.143570712	0.044249888
2020-05-13T12:55:00	0.2523	10.179	188.0	0.642774205	0.803750644	0.013843703	0.142822930	0.044019414
2020-05-13T13:00:00	0.2522	10.222	188.0	0.642622367	0.803522705	0.013837597	0.142759940	0.044000000
2020-05-13T13:05:00	0.2527	10.271	189.0	0.644118776	0.805769951	0.013897831	0.143381357	0.044191527
2020-05-13T13:10:00	0.2535	10.328	189.0	0.646932075	0.810000004	0.014011440	0.144553448	0.044552777
2020-05-13T13:15:00	0.2537	10.369	189.0	0.647439014	0.810762951	0.014031964	0.144765181	0.044618035
2020-05-13T13:20:00	0.2544	10.377	189.0	0.649591632	0.814005090	0.014119285	0.145666062	0.044895695
2020-05-13T13:25:00	0.2536	10.383	189.0	0.647135724	0.810306472	0.014019683	0.144638487	0.044578986
2020-05-13T13:30:00	0.2536	10.379	189.0	0.646984070	0.810078247	0.014013545	0.144575158	0.044559468
2020-05-13T13:35:00	0.2528	10.353	189.0	0.644526383	0.806382408	0.013914261	0.143550868	0.044243772
2020-05-13T13:40:00	0.2529	10.316	189.0	0.644704155	0.806649567	0.013921430	0.143624831	0.044266568
2020-05-13T13:45:00	0.2526	10.267	189.0	0.643893266	0.805431168	0.013888745	0.143287619	0.044162636
2020-05-13T13:50:00	0.2530	10.231	189.0	0.645059673	0.807183926	0.013935773	0.143772805	0.044312175
2020-05-13T13:55:00	0.2518	10.207	189.0	0.641281570	0.801510769	0.013783743	0.142204338	0.043828758
2020-05-13T14:00:00	0.2530	10.179	188.0	0.645085684	0.807223026	0.013936823	0.143783634	0.044315512
2020-05-13T14:05:00	0.2529	10.157	189.0	0.644933943	0.806994936	0.013930700	0.143720464	0.044296043
2020-05-13T14:10:00	0.2535	10.139	189.0	0.646758739	0.809739184	0.014004427	0.144481089	0.044530475
2020-05-13T14:15:00	0.2528	10.113	188.0	0.644300898	0.806043585	0.013905171	0.143457083	0.044214866
2020-05-13T14:20:00	0.2526	10.093	188.0	0.643819537	0.805320413	0.013885775	0.143256979	0.044153192
2020-05-13T14:25:00	0.2518	10.082	188.0	0.641029842	0.801133208	0.013773645	0.142100153	0.043796647
2020-05-13T14:30:00	0.2499	10.072	188.0	0.634935306	0.792008578	0.013530323	0.139589853	0.043022948
2020-05-13T14:35:00	0.2490	10.072	188.0	0.631808000	0.787338659	0.013406342	0.138310760	0.042628720
2020-05-13T14:40:00	0.2492	10.067	188.0	0.632647725	0.788591784	0.013439575	0.138653614	0.042734390
2020-05-13T14:45:00	0.2496	10.059	188.0	0.633817792	0.790338873	0.013485952	0.139132078	0.042881858
2020-05-13T14:50:00	0.2506	10.037	188.0	0.637299632	0.795544662	0.013624450	0.140560941	0.043322247
2020-05-13T14:55:00	0.2508	10.014	188.0	0.637807932	0.796305495	0.013644731	0.140770170	0.043386734
2020-05-13T15:00:00	0.2508	10.007	188.0	0.637986037	0.796572137	0.013651840	0.140843521	0.043409341
2020-05-13T15:05:00	0.2513	10.000	188.0	0.639484378	0.798816383	0.013711729	0.141461384	0.043599772
2020-05-13T15:10:00	0.2516	9.989	187.0	0.640652216	0.800566917	0.013758503	0.141943935	0.043748499
2020-05-13T15:15:00	0.2514	9.981	188.0	0.639840413	0.799349940	0.013725980	0.141608407	0.043645086
2020-05-13T15:20:00	0.2502	9.973	188.0	0.635726482	0.793191332	0.013561783	0.139914419	0.043122983
2020-05-13T15:25:00	0.2504	9.963	187.0	0.636565289	0.794445872	0.013595179	0.140258953	0.043229172
2020-05-13T15:30:00	0.2504	9.950	188.0	0.636413188	0.794218341	0.013589120	0.140196446	0.043209906
2020-05-13T15:35:00	0.2513	9.940	188.0	0.639562532	0.798933497	0.013714857	0.141493650	0.043609717
2020-05-13T15:40:00	0.2509	9.922	188.0	0.638090286	0.796728221	0.013656003	0.140886464	0.043422576
2020-05-13T15:45:00	0.2505	9.910	188.0	0.636947684	0.795017988	0.013610417	0.140416166	0.043277626
2020-05-13T15:50:00	0.2502	9.900	187.0	0.635804718	0.793308318	0.013564896	0.139946535	0.043132881
2020-05-13T15:55:00	0.2516	9.889	187.0	0.640604464	0.800495316	0.013756588	0.141924187	0.043742413
2020-05-13T16:00:00	0.2508	9.881	187.0	0.637812270	0.796311988	0.013644904	0.140771956	0.043387284
2020-05-13T16:05:00	0.2493	9.874	187.0	0.632765873	0.788768143	0.013444254	0.138701888	0.042749269
2020-05-13T16:10:00	0.2484	9.868	187.0	0.630029211	0.784686139	0.013336087	0.137585949	0.042405326
2020-05-13T16:15:00	0.2482	9.861	187.0	0.629276659	0.783564743	0.013306422	0.137279898	0.042310998
2020-05-13T16:20:00	0.2476	9.854	187.0	0.627199656	0.780472236	0.013224725	0.136437047	0.042051223
2020-05-13T16:25:00	0.2461	9.844	187.0	0.622469844	0.773443491	0.013039655	0.134527719	0.041462750
2020-05-13T16:30:00	0.2456	9.835	187.0	0.620720627	0.770848848	0.012971553	0.133825125	0.041246203
2020-05-13T16:35:00	0.2438	9.827	187.0	0.614653249	0.761868983	0.012736763	0.131402832	0.040499629
2020-05-13T16:40:00	0.2448	9.820	187.0	0.617883680	0.766646238	0.012861495	0.132689677	0.040896247
2020-05-13T16:45:00	0.2444	9.813	187.0	0.616796475	0.765037468	0.012819446	0.132255865	0.040762542
2020-05-13T16:50:00	0.2447	9.809	187.0	0.617701599	0.766376739	0.012854448	0.132616973	0.040873839
2020-05-13T16:55:00	0.2453	9.806	186.0	0.619602153	0.769191148	0.012928105	0.133376874	0.041108048
2020-05-13T17:00:00	0.2451	9.801	187.0	0.618847399	0.768073117	0.012898828	0.133074831	0.041014955
2020-05-13T17:05:00	0.2444	9.793	187.0	0.616764314	0.764989893	0.012818204	0.132243043	0.040758590
2020-05-13T17:10:00	0.2435	9.788	187.0	0.613682972	0.760435823	0.012699421	0.131017587	0.040380893
2020-05-13T17:15:00	0.2430	9.781	187.0	0.611929432	0.757847744	0.012632079	0.130322830	0.040166762
2020-05-13T17:20:00	0.2423	9.774	186.0	0.609842290	0.754770663	0.012552166	0.129498384	0.039912660
2020-05-13T17:25:00	0.2419	9.768	187.0	0.608419753	0.752675509	0.012497850	0.128938011	0.039739947
2020-05-13T17:30:00	0.2416	9.760	187.0	0.607329649	0.751071120	0.012456309	0.128509440	0.039607857
2020-05-13T17:35:00	0.2409	9.750	186.0	0.604906599	0.747508505	0.012364228	0.127559458	0.039315064
2020-05-13T17:40:00	0.2410	9.739	187.0	0.605481612	0.748353502	0.012386048	0.127784569	0.039384445
2020-05-13T17:45:00	0.2404	9.729	186.0	0.603390671	0.745282136	0.012306798	0.126966969	0.039132453
2020-05-13T17:50:00	0.2398	9.719	186.0	0.601298496	0.742212620	0.012227764	0.126151589	0.038881145
2020-05-13T17:55:00	0.2401	9.709	186.0	0.602207580	0.743545924	0.012262074	0.126505553	0.038990240
2020-05-13T18:00:00	0.2395	9.697	186.0	0.600448356	0.740966392	0.012195724	0.125821038	0.038779266
2020-05-13T18:05:00	0.2403	9.683	186.0	0.603025012	0.744745398	0.012292966	0.126824266	0.039088471
2020-05-13T18:10:00	0.2417	9.671	186.0	0.607598133	0.751466177	0.012466533	0.128614926	0.039640369
2020-05-13T18:15:00	0.2414	9.656	186.0	0.606840826	0.750352006	0.012437704	0.128317499	0.039548700
2020-05-13T18:20:00	0.2412	9.642	186.0	0.606083357	0.749238080	0.012408903	0.128020365	0.039457120
2020-05-13T18:25:00	0.2408	9.629	186.0	0.604659311	0.747145194	0.012354850	0.127462710	0.039285245
2020-05-13T18:30:00	0.2410	9.613	186.0	0.605234364	0.747990131	0.012376663	0.127687749	0.039354604
2020-05-13T18:35:00	0.2411	9.598	186.0	0.605809324	0.748835208	0.012398492	0.127912956	0.039424015
2020-05-13T18:40:00	0.2414	9.582	186.0	0.606717252	0.750170247	0.012433003	0.128269000	0.039533752
2020-05-13T18:45:00	0.2424	9.565	186.0	0.609954901	0.754936593	0.012556471	0.129542798	0.039926348
2020-05-13T18:50:00	0.2427	9.548	186.0	0.610861769	0.756273227	0.012591167	0.129900753	0.040036674
2020-05-13T18:55:00	0.2422	9.532	186.0	0.609439640	0.754177457	0.012536780	0.129339643	0.039863734
2020-05-13T19:00:00	0.2419	9.517	186.0	0.608349850	0.752572597	0.012495184	0.128910507	0.039731470
2020-05-13T19:05:00	0.2419	9.501	186.0	0.608258566	0.752438215	0.012491703	0.128874595	0.039720402
2020-05-13T19:10:00	0.2422	9.485	185.0	0.609498667	0.754264409	0.012539034	0.129362907	0.039870904
2020-05-13T19:15:00	0.2435	9.470	186.0	0.613731086	0.760506871	0.012701271	0.131036676	0.040386776
2020-05-13T19:20:00	0.2430	9.456	185.0	0.611977569	0.757918756	0.012633925	0.130341877	0.040172632
2020-05-13T19:25:00	0.2425	9.440	185.0	0.610223187	0.755331948	0.012566730	0.129648642	0.039958970
2020-05-13T19:30:00	0.2416	9.423	185.0	0.607469155	0.751276386	0.012461621	0.128564245	0.039624749
2020-05-13T19:35:00	0.2416	9.405	185.0	0.607377849	0.751142038	0.012458144	0.128528374	0.039613693
2020-05-13T19:40:00	0.2411	9.389	185.0	0.605621191	0.748558659	0.012391347	0.127839244	0.039401296
2020-05-13T19:45:00	0.2414	9.375	185.0	0.606529166	0.749893624	0.012425850	0.128195201	0.039511006
2020-05-13T19:50:00	0.2408	9.360	185.0	0.604772087	0.747310877	0.012359126	0.127506828	0.039298843
2020-05-13T19:55:00	0.2396	9.345	185.0	0.600679614	0.741305336	0.012204435	0.125910911	0.038806966
2020-05-13T20:00:00	0.2394	9.329	185.0	0.599920826	0.740193386	0.012175864	0.125616148	0.038716117
2020-05-13T20:05:00	0.2406	9.314	185.0	0.604164684	0.746418650	0.012336104	0.127269309	0.039225637
2020-05-13T20:10:00	0.2417	9.300	185.0	0.607737629	0.751671458	0.012471847	0.128669750	0.039657267
2020-05-13T20:15:00	0.2423	9.286	185.0	0.609643515	0.754477799	0.012544569	0.129420006	0.039888503
2020-05-13T20:20:00	0.2424	9.272	184.0	0.609885028	0.754833636	0.012553800	0.129515239	0.039917854
2020-05-13T20:25:00	0.2418	9.256	185.0	0.608129612	0.752248388	0.012486786	0.128823871	0.039704768
2020-05-13T20:30:00	0.2395	9.240	184.0	0.600372853	0.740855742	0.012192881	0.125791702	0.038770224
2020-05-13T20:35:00	0.2384	9.224	184.0	0.596609298	0.735346211	0.012051576	0.124333889	0.038320912
2020-05-13T20:40:00	0.2395	9.210	184.0	0.600523516	0.741076546	0.012198555	0.125850244	0.038788267
2020-05-13T20:45:00	0.2410	9.195	184.0	0.605433047	0.748282124	0.012384204	0.127765549	0.039378583
2020-05-13T20:50:00	0.2403	9.181	184.0	0.603008699	0.744721456	0.012292349	0.126817902	0.039086509
2020-05-13T20:55:00	0.2382	9.167	184.0	0.595908889	0.734322177	0.012025372	0.124063549	0.038237591
2020-05-13T21:00:00	0.2380	9.153	184.0	0.595483196	0.733699992	0.012009460	0.123899390	0.038186995
2020-05-13T21:05:00	0.2387	9.139	184.0	0.597729596	0.736984996	0.012093550	0.124766923	0.038454377
2020-05-13T21:10:00	0.2399	9.123	184.0	0.601642575	0.742717181	0.012240744	0.126285500	0.038922418
2020-05-13T21:15:00	0.2395	9.108	184.0	0.600216742	0.740626972	0.012187003	0.125731059	0.038751533
2020-05-13T21:20:00	0.2392	9.094	184.0	0.599457854	0.739515170	0.012158449	0.125436474	0.038660739
2020-05-13T21:25:00	0.2396	9.079	184.0	0.600701039	0.741336739	0.012205243	0.125919239	0.038809532
2020-05-13T21:30:00	0.2402	9.064	184.0	0.602610712	0.744137397	0.012277304	0.126662680	0.039038668
2020-05-13T21:35:00	0.2403	9.049	184.0	0.603186097	0.744981835	0.012299059	0.126887121	0.039107843
2020-05-13T21:40:00	0.2408	9.035	183.0	0.604761218	0.747294907	0.012358714	0.127502575	0.039297532
2020-05-13T21:45:00	0.2421	9.021	184.0	0.608999286	0.753528857	0.012519963	0.129166152	0.039810263
2020-05-13T21:50:00	0.2407	9.006	183.0	0.604245202	0.746536906	0.012339154	0.127300781	0.039235337
2020-05-13T21:55:00	0.2403	8.991	183.0	0.603153813	0.744934447	0.012297838	0.126874523	0.039103960
2020-05-13T22:00:00	0.2398	8.977	183.0	0.601395059	0.742354211	0.012231406	0.126189163	0.038892726
2020-05-13T22:05:00	0.2396	8.962	183.0	0.600553897	0.741121074	0.012199699	0.125862050	0.038791906
2020-05-13T22:10:00	0.2404	8.946	183.0	0.603381383	0.745268501	0.012306447	0.126963343	0.039131335
2020-05-13T22:15:00	0.2399	8.933	183.0	0.601540238	0.742567104	0.012236883	0.126245665	0.038910140
2020-05-13T22:20:00	0.2375	8.918	183.0	0.593686319	0.731075378	0.011942415	0.123207694	0.037973808
2020-05-13T22:25:00	0.2358	8.902	183.0	0.588159253	0.723019133	0.011737395	0.121092541	0.037321897
2020-05-13T22:30:00	0.2353	8.888	183.0	0.586310151	0.720329565	0.011669211	0.120389098	0.037105089
2020-05-13T22:35:00	0.2337	8.873	183.0	0.581106970	0.712776661	0.011478439	0.118420940	0.036498484
2020-05-13T22:40:00	0.2332	8.859	183.0	0.579254154	0.710092556	0.011410895	0.117724099	0.036283711
2020-05-13T22:45:00	0.2358	8.842	183.0	0.588130357	0.722977081	0.011736328	0.121081532	0.037318504
2020-05-13T22:50:00	0.2354	8.826	183.0	0.586616201	0.720774527	0.011680482	0.120505382	0.037140929
2020-05-13T22:55:00	0.2329	8.811	182.0	0.578393202	0.708846297	0.011379578	0.117401012	0.036184132
2020-05-13T23:00:00	0.2323	8.796	183.0	0.576203029	0.705678713	0.011300110	0.116581155	0.035931444
2020-05-13T23:05:00	0.2334	8.780	182.0	0.580056971	0.711255216	0.011440136	0.118025779	0.036376691
2020-05-13T23:10:00	0.2315	8.765	182.0	0.573499972	0.701774840	0.011202425	0.115573351	0.035620829
2020-05-13T23:15:00	0.2327	8.750	182.0	0.577692697	0.707832743	0.011354130	0.117138469	0.036103214
2020-05-13T23:20:00	0.2323	8.734	182.0	0.576174035	0.705636806	0.011299060	0.116570321	0.035928105
2020-05-13T23:25:00	0.2315	8.719	182.0	0.573646306	0.701986028	0.011207702	0.115627796	0.035637610
2020-05-13T23:30:00	0.2325	8.703	182.0	0.576831362	0.706587045	0.011322880	0.116816061	0.036003845
2020-05-13T23:35:00	0.2326	8.688	182.0	0.577327899	0.707305083	0.011340889	0.117001866	0.036061111
2020-05-13T23:40:00	0.2311	8.673	182.0	0.572111377	0.699771723	0.011152411	0.115057365	0.035461797
2020-05-13T23:45:00	0.2313	8.659	182.0	0.572944851	0.700973860	0.011182417	0.115366933	0.035557209
2020-05-13T23:50:00	0.2310	8.645	182.0	0.571760513	0.699265837	0.011139791	0.114927174	0.035421671
2020-05-13T23:55:00	0.2295	8.631	182.0	0.566872535	0.692228793	0.010964746	0.113121264	0.034865072
2020-05-14T00:00:00	0.2297	8.616	182.0	0.567370486	0.692944772	0.010982514	0.113304570	0.034921569
2020-05-14T00:05:00	0.2296	8.603	181.0	0.567194821	0.692692168	0.010976244	0.113239887	0.034901633
2020-05-14T00:10:00	0.2273	8.587	182.0	0.559263624	0.681313772	0.010695067	0.110339039	0.034007563
2020-05-14T00:15:00	0.2287	8.573	181.0	0.564147709	0.688314529	0.010867779	0.112120872	0.034556742
2020-05-14T00:20:00	0.2286	8.560	181.0	0.563971881	0.688062160	0.010861537	0.112056474	0.034536894
2020-05-14T00:25:00	0.2277	8.546	181.0	0.560760525	0.683457313	0.010747852	0.110883603	0.034175403
2020-05-14T00:30:00	0.2274	8.532	181.0	0.559909574	0.682238536	0.010717829	0.110573864	0.034079939
2020-05-14T00:35:00	0.2279	8.518	181.0	0.561420755	0.684403340	0.010771175	0.111124224	0.034249565
2020-05-14T00:40:00	0.2289	8.504	181.0	0.564953997	0.689472139	0.010896426	0.112416422	0.034647833
2020-05-14T00:45:00	0.2301	8.489	181.0	0.568820333	0.695030600	0.011034330	0.113839150	0.035086332
2020-05-14T00:50:00	0.2304	8.474	181.0	0.569991144	0.696716260	0.011076265	0.114271781	0.035219673
2020-05-14T00:55:00	0.2310	8.459	181.0	0.571834346	0.699372283	0.011142446	0.114954564	0.035430113
2020-05-14T01:00:00	0.2305	8.443	181.0	0.570313143	0.697180052	0.011087812	0.114390911	0.035256390
2020-05-14T01:05:00	0.2305	8.430	181.0	0.570137625	0.696927234	0.011081517	0.114325967	0.035236373
2020-05-14T01:10:00	0.2291	8.415	181.0	0.565584352	0.690377531	0.010918850	0.112647758	0.034719133
2020-05-14T01:15:00	0.2283	8.399	181.0	0.562711735	0.686254189	0.010816854	0.111595488	0.034394813
2020-05-14T01:20:00	0.2277	8.385	180.0	0.560849151	0.683584282	0.010750981	0.110915888	0.034185354
2020-05-14T01:25:00	0.2278	8.370	181.0	0.561010576	0.683815563	0.010756682	0.110974703	0.034203481
2020-05-14T01:30:00	0.2273	8.355	180.0	0.559484651	0.681630163	0.010702853	0.110419361	0.034032319
2020-05-14T01:35:00	0.2272	8.341	181.0	0.558971004	0.680894960	0.010684764	0.110232744	0.033974802
2020-05-14T01:40:00	0.2276	8.325	180.0	0.560482592	0.683059178	0.010738041	0.110782390	0.034144208
2020-05-14T01:45:00	0.2274	8.310	180.0	0.559631573	0.681840499	0.010708030	0.110472770	0.034048781
2020-05-14T01:50:00	0.2275	8.295	180.0	0.560130559	0.682554985	0.010725621	0.110654259	0.034104717
2020-05-14T01:55:00	0.2281	8.281	180.0	0.561978970	0.685203471	0.010790914	0.111327872	0.034312331
2020-05-14T02:00:00	0.2274	8.265	180.0	0.559778489	0.682050844	0.010713208	0.110526190	0.034065245
2020-05-14T02:05:00	0.2274	8.250	180.0	0.559602442	0.681798792	0.010707003	0.110462179	0.034045516
2020-05-14T02:10:00	0.2273	8.234	180.0	0.559426385	0.681546753	0.010700800	0.110398184	0.034025792
2020-05-14T02:15:00	0.2271	8.217	180.0	0.558912729	0.680811563	0.010682713	0.110211582	0.033968280
2020-05-14T02:20:00	0.2267	8.199	180.0	0.557385885	0.678627484	0.010629041	0.109657852	0.033797615
2020-05-14T02:25:00	0.2270	8.180	180.0	0.558560537	0.680307598	0.010670320	0.110083729	0.033928874
2020-05-14T02:30:00	0.2264	8.162	180.0	0.556357896	0.677158076	0.010592981	0.109285836	0.033682956
2020-05-14T02:35:00	0.2272	8.143	180.0	0.559221184	0.681253025	0.010693573	0.110323619	0.034002811
2020-05-14T02:40:00	0.2270	8.123	180.0	0.558369857	0.680034789	0.010663614	0.110014540	0.033907550
2020-05-14T02:45:00	0.2266	8.103	179.0	0.557180564	0.678333928	0.010621833	0.109583498	0.033774698
2020-05-14T02:50:00	0.2262	8.082	179.0	0.555652959	0.676150940	0.010568290	0.109031099	0.033604444
2020-05-14T02:55:00	0.2267	8.060	179.0	0.557503746	0.678796011	0.010633179	0.109700545	0.033810774
2020-05-14T03:00:00	0.2269	8.039	179.0	0.558003037	0.679510060	0.010650719	0.109881500	0.033866545
2020-05-14T03:05:00	0.2276	8.016	179.0	0.560527540	0.683123561	0.010739627	0.110798755	0.034149252
2020-05-14T03:10:00	0.2276	7.994	179.0	0.560351530	0.682871455	0.010733416	0.110734678	0.034129503
2020-05-14T03:15:00	0.2275	7.971	179.0	0.560175511	0.682619361	0.010727207	0.110670616	0.034109759
2020-05-14T03:20:00	0.2272	7.950	178.0	0.558986834	0.680917615	0.010685322	0.110238493	0.033976574
2020-05-14T03:25:00	0.2274	7.932	179.0	0.559823446	0.682115213	0.010714793	0.110542539	0.034070284
2020-05-14T03:30:00	0.2279	7.915	179.0	0.561334665	0.684279963	0.010768132	0.111092834	0.034239890
2020-05-14T03:35:00	0.2276	7.899	178.0	0.560483854	0.683060985	0.010738086	0.110782849	0.034144350
2020-05-14T03:40:00	0.2283	7.885	178.0	0.562669336	0.686193382	0.010815352	0.111579994	0.034390038
2020-05-14T03:45:00	0.2285	7.871	178.0	0.563505065	0.687392251	0.010844973	0.111885591	0.034484226
2020-05-14T03:50:00	0.2288	7.858	178.0	0.564340594	0.688591410	0.010874629	0.112191539	0.034578522
2020-05-14T03:55:00	0.2285	7.846	178.0	0.563490515	0.687371375	0.010844457	0.111880267	0.034482585
2020-05-14T04:00:00	0.2292	7.835	178.0	0.565674116	0.690506487	0.010922045	0.112680720	0.034729292
2020-05-14T04:05:00	0.2291	7.825	178.0	0.565635455	0.690450946	0.010920668	0.112666523	0.034724916
2020-05-14T04:10:00	0.2289	7.815	178.0	0.564922810	0.689427353	0.010895318	0.112404983	0.034644307
2020-05-14T04:15:00	0.2301	7.803	178.0	0.568926141	0.695182890	0.011038117	0.113878214	0.035098371
2020-05-14T04:20:00	0.2301	7.792	178.0	0.568887517	0.695127297	0.011036734	0.113863953	0.035093976
2020-05-14T04:25:00	0.2305	7.784	178.0	0.570195217	0.697010188	0.011083582	0.114347275	0.035242941
2020-05-14T04:30:00	0.2313	7.775	178.0	0.572847733	0.700833755	0.011178918	0.115330840	0.035546085
2020-05-14T04:35:00	0.2328	7.768	178.0	0.577849505	0.708059592	0.011359824	0.117197214	0.036121319
2020-05-14T04:40:00	0.2327	7.760	178.0	0.577475177	0.707518099	0.011346234	0.117057006	0.036078106
2020-05-14T04:45:00	0.2325	7.752	178.0	0.576764939	0.706491007	0.011320471	0.116791217	0.035996187
2020-05-14T04:50:00	0.2322	7.745	178.0	0.576054557	0.705464125	0.011294733	0.116525683	0.035914347
2020-05-14T04:55:00	0.2328	7.739	178.0	0.578031178	0.708322437	0.011366423	0.117265291	0.036142302
2020-05-14T05:00:00	0.2338	7.734	178.0	0.581348733	0.713127104	0.011487268	0.118512022	0.036526556
2020-05-14T05:05:00	0.2339	7.732	178.0	0.581645680	0.713557605	0.011498116	0.118623943	0.036561051
2020-05-14T05:10:00	0.2347	7.731	178.0	0.584289555	0.717393808	0.011594936	0.119622815	0.036868913
2020-05-14T05:15:00	0.2351	7.732	178.0	0.585591526	0.719285075	0.011642767	0.120116283	0.037021005
2020-05-14T05:20:00	0.2354	7.733	178.0	0.586558081	0.720690021	0.011678341	0.120483295	0.037134122
2020-05-14T05:25:00	0.2363	7.738	178.0	0.589532953	0.725019058	0.011788181	0.121616488	0.037483383
2020-05-14T05:30:00	0.2359	7.742	178.0	0.588490396	0.723501089	0.011749627	0.121218737	0.037360792
2020-05-14T05:35:00	0.2358	7.742	178.0	0.588117199	0.722957932	0.011735842	0.121076519	0.037316959
2020-05-14T05:40:00	0.2355	7.744	178.0	0.587074222	0.721440582	0.011697361	0.120679515	0.037194598
2020-05-14T05:45:00	0.2359	7.748	178.0	0.588375165	0.723333368	0.011745370	0.121174815	0.037347255
2020-05-14T05:50:00	0.2368	7.750	178.0	0.591348502	0.727664672	0.011855474	0.122310743	0.037697359
2020-05-14T05:55:00	0.2371	7.753	178.0	0.592313479	0.729071951	0.011891321	0.122680568	0.037811343
2020-05-14T06:00:00	0.2370	7.759	178.0	0.591940687	0.728528196	0.011877466	0.122537629	0.037767287
2020-05-14T06:05:00	0.2370	7.767	178.0	0.591902315	0.728472232	0.011876040	0.122522920	0.037762754
2020-05-14T06:10:00	0.2367	7.777	178.0	0.590860459	0.726953226	0.011837366	0.122123919	0.037639778
2020-05-14T06:15:00	0.2376	7.787	178.0	0.594165947	0.731775684	0.011960292	0.123392129	0.038030653
2020-05-14T06:20:00	0.2382	7.802	178.0	0.596132424	0.734648952	0.012033732	0.124149794	0.038264172
2020-05-14T06:25:00	0.2387	7.817	178.0	0.597763934	0.737035243	0.012094837	0.124780208	0.038458472
2020-05-14T06:30:00	0.2388	7.834	178.0	0.598059501	0.737467785	0.012105924	0.124894591	0.038493726
2020-05-14T06:35:00	0.2381	7.846	178.0	0.595683373	0.733992548	0.012016941	0.123976569	0.038210783
2020-05-14T06:40:00	0.2381	7.866	178.0	0.595645041	0.733936524	0.012015509	0.123961788	0.038206227
2020-05-14T06:45:00	0.2382	7.885	178.0	0.595940786	0.734368803	0.012026565	0.124075853	0.038241383
2020-05-14T06:50:00	0.2387	7.905	178.0	0.597572385	0.736754962	0.012087655	0.124706109	0.038435634
2020-05-14T06:55:00	0.2393	7.927	178.0	0.599536967	0.739631051	0.012161424	0.125467167	0.038670199
2020-05-14T07:00:00	0.2392	7.952	178.0	0.599498677	0.739574965	0.012159984	0.125452311	0.038665621
2020-05-14T07:05:00	0.2386	7.977	178.0	0.597457450	0.736586801	0.012083346	0.124661658	0.038421934
2020-05-14T07:10:00	0.2394	7.997	178.0	0.600089497	0.740440520	0.012182212	0.125681640	0.038736302
2020-05-14T07:15:00	0.2395	8.021	179.0	0.600384870	0.740873353	0.012193333	0.125796371	0.038771663
2020-05-14T07:20:00	0.2396	8.047	179.0	0.600680218	0.741306222	0.012204458	0.125911146	0.038807038
2020-05-14T07:25:00	0.2394	8.070	178.0	0.599974644	0.740272237	0.012177890	0.125637043	0.038722557
2020-05-14T07:30:00	0.2391	8.095	179.0	0.598935167	0.738749692	0.012138802	0.125233783	0.038598268
2020-05-14T07:35:00	0.2392	8.124	179.0	0.599230637	0.739182380	0.012149906	0.125348341	0.038633576
2020-05-14T07:40:00	0.2395	8.151	179.0	0.600527106	0.741081808	0.012198690	0.125851639	0.038788697
2020-05-14T07:45:00	0.2383	8.188	179.0	0.596482983	0.735161501	0.012046848	0.124285112	0.038305878
2020-05-14T07:50:00	0.2394	8.200	179.0	0.600116897	0.740480667	0.012183244	0.125692281	0.038739582
2020-05-14T07:55:00	0.2396	8.219	180.0	0.600745890	0.741402482	0.012206933	0.125936674	0.038814906
2020-05-14T08:00:00	0.2384	8.249	180.0	0.596702017	0.735481802	0.012055047	0.124369698	0.038331949
2020-05-14T08:05:00	0.2387	8.288	180.0	0.597665532	0.736891254	0.012091147	0.124742139	0.038446739
2020-05-14T08:10:00	0.2384	8.303	180.0	0.596625376	0.735369722	0.012052178	0.124340098	0.038322826
2020-05-14T08:15:00	0.2380	8.340	180.0	0.595250803	0.733360394	0.012000778	0.123809820	0.038159389
2020-05-14T08:20:00	0.2369	8.403	180.0	0.591535124	0.727936772	0.011862403	0.122382220	0.037719389
2020-05-14T08:25:00	0.2372	8.408	180.0	0.592834421	0.729831992	0.011910696	0.122880457	0.037872950
2020-05-14T08:30:00	0.2376	8.410	180.0	0.594133239	0.731727922	0.011959073	0.123379547	0.038026775
2020-05-14T08:35:00	0.2377	8.440	180.0	0.594429110	0.732160012	0.011970107	0.123493386	0.038061861
2020-05-14T08:40:00	0.2375	8.459	181.0	0.593722287	0.731127888	0.011943755	0.123221520	0.037978069
2020-05-14T08:45:00	0.2375	8.464	180.0	0.593683934	0.731071896	0.011942326	0.123206777	0.037973525
2020-05-14T08:50:00	0.2378	8.472	181.0	0.594648272	0.732480123	0.011978284	0.123577744	0.038087861
2020-05-14T08:55:00	0.2372	8.498	181.0	0.592604239	0.729496134	0.011902133	0.122792114	0.037845722
2020-05-14T09:00:00	0.2360	8.554	181.0	0.588551024	0.723589340	0.011751867	0.121241849	0.037367915
2020-05-14T09:05:00	0.2356	8.566	181.0	0.587173300	0.721584683	0.011701013	0.120717199	0.037206213
2020-05-14T09:10:00	0.2364	8.688	181.0	0.590147651	0.725914488	0.011810943	0.121851318	0.037555760
2020-05-14T09:15:00	0.2373	8.662	181.0	0.593119495	0.730248004	0.011921306	0.122989912	0.037906685
2020-05-14T09:20:00	0.2381	8.688	181.0	0.595754775	0.734096910	0.012019610	0.124004105	0.038219270
2020-05-14T09:25:00	0.2387	8.707	181.0	0.597720368	0.736971493	0.012093204	0.124763353	0.038453277
2020-05-14T09:30:00	0.2395	8.687	181.0	0.600352220	0.740825504	0.012192104	0.125783686	0.038767754
2020-05-14T09:35:00	0.2393	8.678	181.0	0.599646581	0.739791617	0.012165546	0.125509700	0.038683309
2020-05-14T09:40:00	0.2390	8.687	181.0	0.598607007	0.738269216	0.012126476	0.125106614	0.038559073
2020-05-14T09:45:00	0.2386	8.746	182.0	0.597233205	0.736258740	0.012074942	0.124574955	0.038395211
2020-05-14T09:50:00	0.2374	8.829	182.0	0.593185308	0.730344054	0.011923756	0.123015188	0.037914476
2020-05-14T09:55:00	0.2374	8.897	182.0	0.593481258	0.730776027	0.011934776	0.123128884	0.037949518
2020-05-14T10:00:00	0.2374	8.992	183.0	0.593442903	0.730720038	0.011933347	0.123114146	0.037944975
2020-05-14T10:05:00	0.2385	9.040	183.0	0.596881850	0.735744807	0.012061781	0.124439168	0.038353360
2020-05-14T10:10:00	0.2379	9.064	183.0	0.594975059	0.732957507	0.011990481	0.123703584	0.038126646
2020-05-14T10:15:00	0.2385	9.090	183.0	0.597076955	0.736030177	0.012069088	0.124514560	0.038376597
2020-05-14T10:20:00	0.2384	9.095	183.0	0.596840543	0.735684393	0.012060234	0.124423209	0.038348442
2020-05-14T10:25:00	0.2393	9.113	184.0	0.599608821	0.739736304	0.012164126	0.125495048	0.038678792
2020-05-14T10:30:00	0.2388	9.112	183.0	0.598037380	0.737435410	0.012105094	0.124886028	0.038491087
2020-05-14T10:35:00	0.2387	9.111	183.0	0.597801033	0.737089530	0.012096229	0.124794562	0.038462896
2020-05-14T10:40:00	0.2375	9.156	183.0	0.593555507	0.730884412	0.011937542	0.123157417	0.037958312
2020-05-14T10:45:00	0.2371	9.244	184.0	0.592315790	0.729075321	0.011891407	0.122681455	0.037811616
2020-05-14T10:50:00	0.2368	9.328	184.0	0.591410142	0.727754541	0.011857762	0.122334349	0.037704634
2020-05-14T10:55:00	0.2368	9.376	184.0	0.591507847	0.727897000	0.011861390	0.122371772	0.037716169
2020-05-14T11:00:00	0.2368	9.418	184.0	0.591271062	0.727551770	0.011852600	0.122281089	0.037688219
2020-05-14T11:05:00	0.2363	9.472	185.0	0.589695905	0.725256400	0.011794213	0.121678717	0.037502562
2020-05-14T11:10:00	0.2363	9.508	185.0	0.589793657	0.725398788	0.011797832	0.121716055	0.037514070
2020-05-14T11:15:00	0.2362	9.495	185.0	0.589222075	0.724566325	0.011776678	0.121497814	0.037446806
2020-05-14T11:20:00	0.2378	9.465	185.0	0.594670793	0.732513020	0.011979124	0.123586415	0.038090533
2020-05-14T11:25:00	0.2384	9.455	185.0	0.596772870	0.735585420	0.012057700	0.124397066	0.038340384
2020-05-14T11:30:00	0.2380	9.482	185.0	0.595200167	0.733286406	0.011998887	0.123790308	0.038153375
2020-05-14T11:35:00	0.2377	9.480	185.0	0.594295260	0.731964527	0.011965114	0.123441879	0.038045986
2020-05-14T11:40:00	0.2374	9.480	185.0	0.593390120	0.730642993	0.011931382	0.123093866	0.037938725
2020-05-14T11:45:00	0.2375	9.482	185.0	0.593822048	0.731273537	0.011947473	0.123259873	0.037989890
2020-05-14T11:50:00	0.2368	9.482	185.0	0.591244655	0.727513272	0.011851620	0.122270978	0.037685103
2020-05-14T11:55:00	0.2366	9.488	185.0	0.590673309	0.726680460	0.011830425	0.122052316	0.037617709
2020-05-14T12:00:00	0.2357	9.512	185.0	0.587758791	0.722436409	0.011722611	0.120940017	0.037274888
2020-05-14T12:05:00	0.2352	9.560	185.0	0.585847059	0.719656431	0.011652167	0.120213256	0.037050893
2020-05-14T12:10:00	0.2350	9.622	185.0	0.585274836	0.718824915	0.011631123	0.119996156	0.036983981
2020-05-14T12:15:00	0.2340	9.685	186.0	0.582020476	0.714101072	0.011511816	0.118765282	0.036604613
2020-05-14T12:20:00	0.2343	9.736	186.0	0.583124420	0.715702507	0.011552217	0.119182092	0.036733078
2020-05-14T12:25:00	0.2341	9.780	186.0	0.582216405	0.714385222	0.011518981	0.118839204	0.036627397
2020-05-14T12:30:00	0.2336	9.840	186.0	0.580637188	0.712095836	0.011461294	0.118244057	0.036443967
2020-05-14T12:35:00	0.2335	9.896	187.0	0.580399670	0.711751686	0.011452631	0.118154678	0.036416419
2020-05-14T12:40:00	0.2339	9.907	187.0	0.581504124	0.713352374	0.011492944	0.118570583	0.036544605
2020-05-14T12:45:00	0.2340	9.898	187.0	0.581937512	0.713980761	0.011508783	0.118733989	0.036594968
2020-05-14T12:50:00	0.2336	9.894	187.0	0.580693696	0.712177719	0.011463356	0.118265327	0.036450522
2020-05-14T12:55:00	0.2323	9.900	187.0	0.576091542	0.705517579	0.011296073	0.116539500	0.035918606
2020-05-14T13:00:00	0.2323	9.924	186.0	0.576189674	0.705659409	0.011299627	0.116576165	0.035929906
2020-05-14T13:05:00	0.2325	9.959	186.0	0.576959602	0.706772472	0.011327530	0.116864034	0.036018630
2020-05-14T13:10:00	0.2324	10.003	187.0	0.576721835	0.706428687	0.011318909	0.116775097	0.035991219
2020-05-14T13:15:00	0.2324	10.034	187.0	0.576484052	0.706084926	0.011310291	0.116686188	0.035963816
2020-05-14T13:20:00	0.2321	10.042	187.0	0.575574318	0.704770160	0.011277351	0.116346349	0.035859075
2020-05-14T13:25:00	0.2322	10.043	187.0	0.576008438	0.705397474	0.011293064	0.116508455	0.035909037
2020-05-14T13:30:00	0.2330	10.034	187.0	0.578457427	0.708939244	0.011381913	0.117425098	0.036191556
2020-05-14T13:35:00	0.2333	10.014	187.0	0.579562492	0.710539036	0.011422121	0.117839919	0.036319407
2020-05-14T13:40:00	0.2337	9.988	187.0	0.581002706	0.712625542	0.011474633	0.118381671	0.036486381
2020-05-14T13:45:00	0.2339	9.965	187.0	0.581771579	0.713740149	0.011502717	0.118671411	0.036575681
2020-05-14T13:50:00	0.2342	9.938	187.0	0.582540283	0.714855004	0.011530830	0.118961450	0.036665074
2020-05-14T13:55:00	0.2341	9.922	187.0	0.582302894	0.714510666	0.011522145	0.118871842	0.036637456
2020-05-14T14:00:00	0.2346	9.898	186.0	0.584077189	0.717085455	0.011587143	0.119542423	0.036844136
2020-05-14T14:05:00	0.2347	9.872	186.0	0.584175097	0.717227612	0.011590736	0.119579483	0.036855558
2020-05-14T14:10:00	0.2345	9.850	186.0	0.583602602	0.716396496	0.011569739	0.119362868	0.036788795
2020-05-14T14:15:00	0.2341	9.833	186.0	0.582359375	0.714592589	0.011524211	0.118893159	0.036644026
2020-05-14T14:20:00	0.2341	9.819	186.0	0.582457332	0.714734676	0.011527795	0.118930134	0.036655422
2020-05-14T14:25:00	0.2346	9.802	186.0	0.583896360	0.716822923	0.011580511	0.119473992	0.036823045
2020-05-14T14:30:00	0.2346	9.788	187.0	0.583994273	0.716965073	0.011584102	0.119511043	0.036834464
2020-05-14T14:35:00	0.2346	9.773	186.0	0.584092185	0.717107227	0.011587694	0.119548099	0.036845885
2020-05-14T14:40:00	0.2350	9.755	186.0	0.585195479	0.718709620	0.011628207	0.119966064	0.036974706
2020-05-14T14:45:00	0.2351	9.736	186.0	0.585628412	0.719338675	0.011644124	0.120130278	0.037025318
2020-05-14T14:50:00	0.2359	9.717	186.0	0.588405499	0.723377519	0.011746490	0.121186377	0.037350818
2020-05-14T14:55:00	0.2351	9.700	186.0	0.585489103	0.719136242	0.011639001	0.120077425	0.037009029
2020-05-14T15:00:00	0.2349	9.684	186.0	0.584916822	0.718304811	0.011617968	0.119860429	0.036942148
2020-05-14T15:05:00	0.2346	9.668	186.0	0.584009270	0.716986845	0.011584652	0.119516718	0.036836213
2020-05-14T15:10:00	0.2346	9.654	186.0	0.584107180	0.717129000	0.011588244	0.119553775	0.036847635
2020-05-14T15:15:00	0.2347	9.638	186.0	0.584205088	0.717271159	0.011591836	0.119590837	0.036859057
2020-05-14T15:20:00	0.2342	9.623	186.0	0.582626765	0.714980459	0.011533995	0.118994103	0.036675138
2020-05-14T15:25:00	0.2345	9.608	185.0	0.583730519	0.716582175	0.011574429	0.119411250	0.036803707
2020-05-14T15:30:00	0.2343	9.593	185.0	0.582822660	0.715264660	0.011541166	0.119068084	0.036697940
2020-05-14T15:35:00	0.2348	9.580	185.0	0.584596692	0.717839834	0.011606210	0.119739131	0.036904763
2020-05-14T15:40:00	0.2342	9.566	185.0	0.582683241	0.715062390	0.011536062	0.119015429	0.036681711
2020-05-14T15:45:00	0.2340	9.552	185.0	0.582110503	0.714231631	0.011515108	0.118799245	0.036615081
2020-05-14T15:50:00	0.2346	9.539	185.0	0.583884894	0.716806277	0.011580090	0.119469654	0.036821708
2020-05-14T15:55:00	0.2345	9.526	185.0	0.583647596	0.716461806	0.011571389	0.119379885	0.036794040
2020-05-14T16:00:00	0.2349	9.514	185.0	0.585086136	0.718550769	0.011624188	0.119924608	0.036961929
2020-05-14T16:05:00	0.2347	9.501	185.0	0.584320987	0.717439451	0.011596089	0.119634716	0.036872581
2020-05-14T16:10:00	0.2348	9.489	185.0	0.584561239	0.717788344	0.011604908	0.119725702	0.036900624
2020-05-14T16:15:00	0.2341	9.478	185.0	0.582454863	0.714731095	0.011527705	0.118929202	0.036655135
2020-05-14T16:20:00	0.2333	9.466	185.0	0.579676074	0.710703525	0.011426258	0.117882598	0.036332562
2020-05-14T16:25:00	0.2342	9.455	185.0	0.582600293	0.714942057	0.011533026	0.118984107	0.036672057
2020-05-14T16:30:00	0.2344	9.443	185.0	0.583175951	0.715777286	0.011554105	0.119201566	0.036739080
2020-05-14T16:35:00	0.2342	9.434	184.0	0.582745716	0.715153027	0.011538349	0.119039023	0.036688983
2020-05-14T16:40:00	0.2342	9.427	185.0	0.582650768	0.715015281	0.011534874	0.119003167	0.036677932
2020-05-14T16:45:00	0.2334	9.420	185.0	0.579872134	0.710987483	0.011433401	0.117956287	0.036355273
2020-05-14T16:50:00	0.2335	9.415	185.0	0.580448239	0.711822056	0.011454402	0.118172952	0.036422052
2020-05-14T16:55:00	0.2329	9.410	185.0	0.578339395	0.708768430	0.011377623	0.117380835	0.036177913
2020-05-14T17:00:00	0.2329	9.408	185.0	0.578244328	0.708630858	0.011374168	0.117345190	0.036166927
2020-05-14T17:05:00	0.2333	9.406	184.0	0.579492015	0.710436977	0.011419555	0.117813441	0.036311247
2020-05-14T17:10:00	0.2336	9.404	184.0	0.580739259	0.712243745	0.011465018	0.118282478	0.036455808
2020-05-14T17:15:00	0.2337	9.401	185.0	0.580979755	0.712592279	0.011473795	0.118373028	0.036483717
2020-05-14T17:20:00	0.2338	9.399	184.0	0.581220235	0.712940837	0.011482575	0.118463608	0.036511634
2020-05-14T17:25:00	0.2346	9.395	185.0	0.583807973	0.716694611	0.011577269	0.119440551	0.036812738
2020-05-14T17:30:00	0.2348	9.389	184.0	0.584718576	0.718016856	0.011610686	0.119785306	0.036918995
2020-05-14T17:35:00	0.2350	9.384	184.0	0.585293888	0.718852595	0.011631824	0.120003381	0.036986208
2020-05-14T17:40:00	0.2355	9.377	184.0	0.586874012	0.721149414	0.011689981	0.120603382	0.037171134
2020-05-14T17:45:00	0.2350	9.369	184.0	0.585439200	0.719063730	0.011637166	0.120058495	0.037003194
2020-05-14T17:50:00	0.2364	9.361	185.0	0.590032134	0.725746189	0.011806663	0.121807170	0.037542153
2020-05-14T17:55:00	0.2371	9.352	184.0	0.592279012	0.729021673	0.011890040	0.122667349	0.037807268
2020-05-14T18:00:00	0.2370	9.342	184.0	0.591849889	0.728395774	0.011874093	0.122502827	0.037756561
2020-05-14T18:05:00	0.2366	9.333	184.0	0.590751671	0.726794668	0.011833331	0.122082295	0.037626949
2020-05-14T18:10:00	0.2360	9.323	184.0	0.588648998	0.723731957	0.011755488	0.121279203	0.037379428
2020-05-14T18:15:00	0.2369	9.313	184.0	0.591565772	0.727981460	0.011863541	0.122393961	0.037723007
2020-05-14T18:20:00	0.2372	9.303	184.0	0.592808745	0.729794526	0.011909741	0.122870601	0.037869912
2020-05-14T18:25:00	0.2374	9.293	184.0	0.593382737	0.730632216	0.011931107	0.123091029	0.037937851
2020-05-14T18:30:00	0.2376	9.281	184.0	0.593956636	0.731470045	0.011952489	0.123311624	0.038005840
2020-05-14T18:35:00	0.2380	9.268	184.0	0.595198767	0.733284360	0.011998835	0.123789768	0.038153209
2020-05-14T18:40:00	0.2388	9.256	184.0	0.598110134	0.737541890	0.012107824	0.124914191	0.038499767
2020-05-14T18:45:00	0.2389	9.243	184.0	0.598349448	0.737892173	0.012116806	0.125006850	0.038528325
2020-05-14T18:50:00	0.2396	9.231	184.0	0.600591042	0.741175516	0.012201099	0.125876486	0.038796355
2020-05-14T18:55:00	0.2396	9.221	184.0	0.600830188	0.741526049	0.012210109	0.125969446	0.038825007
2020-05-14T19:00:00	0.2396	9.211	184.0	0.600735726	0.741387583	0.012206550	0.125932723	0.038813688
2020-05-14T19:05:00	0.2395	9.200	184.0	0.600307628	0.740760157	0.012190425	0.125766363	0.038762414
2020-05-14T19:10:00	0.2398	9.188	183.0	0.601213982	0.742088704	0.012224577	0.126118708	0.038871011
2020-05-14T19:15:00	0.2400	9.174	184.0	0.602120104	0.743417598	0.012258770	0.126471471	0.038979735
2020-05-14T19:20:00	0.2398	9.160	184.0	0.601358640	0.742300810	0.012230033	0.126174991	0.038888358
2020-05-14T19:25:00	0.2402	9.144	183.0	0.602598173	0.744118999	0.012276830	0.126657792	0.039037162
2020-05-14T19:30:00	0.2406	9.126	183.0	0.604170573	0.746427299	0.012336327	0.127271610	0.039226346
2020-05-14T19:35:00	0.2410	9.108	183.0	0.605409122	0.748246962	0.012383296	0.127756179	0.039375695
2020-05-14T19:40:00	0.2407	9.088	183.0	0.604315110	0.746639585	0.012341803	0.127328110	0.039243760
2020-05-14T19:45:00	0.2412	9.065	183.0	0.605886748	0.748949028	0.012401433	0.127943298	0.039433367
2020-05-14T19:50:00	0.2411	9.042	183.0	0.605792421	0.748810359	0.012397850	0.127906332	0.039421974
2020-05-14T19:55:00	0.2407	9.017	183.0	0.604365276	0.746713269	0.012343704	0.127347723	0.039249805
2020-05-14T20:00:00	0.2408	8.991	183.0	0.604604167	0.747064185	0.012352759	0.127441141	0.039278597
2020-05-14T20:05:00	0.2408	8.964	182.0	0.604843042	0.747415124	0.012361817	0.127534589	0.039307399
2020-05-14T20:10:00	0.2399	8.935	182.0	0.601748345	0.742872303	0.012244736	0.126326680	0.038935110
2020-05-14T20:15:00	0.2410	8.904	183.0	0.605320744	0.748117075	0.012379941	0.127721571	0.039365029
2020-05-14T20:20:00	0.2412	8.872	182.0	0.605892710	0.748957792	0.012401659	0.127945635	0.039434087
2020-05-14T20:25:00	0.2413	8.841	182.0	0.606464582	0.749798646	0.012423394	0.128169865	0.039503197
2020-05-14T20:30:00	0.2416	8.811	182.0	0.607369363	0.751129553	0.012457821	0.128525040	0.039612666
2020-05-14T20:35:00	0.2420	8.781	182.0	0.608606796	0.752950894	0.012504985	0.129011620	0.039762634
2020-05-14T20:40:00	0.2431	8.754	182.0	0.612504815	0.758696676	0.012654155	0.130550588	0.040236959
2020-05-14T20:45:00	0.2432	8.730	182.0	0.612743159	0.759048415	0.012663306	0.130644993	0.040266056
2020-05-14T20:50:00	0.2437	8.706	181.0	0.614311070	0.761363473	0.012723587	0.131266904	0.040457735
2020-05-14T20:55:00	0.2435	8.685	181.0	0.613552219	0.760242753	0.012694393	0.130965716	0.040364906
2020-05-14T21:00:00	0.2427	8.664	181.0	0.611130438	0.756669352	0.012601456	0.130006899	0.040069389
2020-05-14T21:05:00	0.2437	8.643	181.0	0.614361095	0.761437369	0.012725513	0.131286772	0.040463858
2020-05-14T21:10:00	0.2441	8.623	181.0	0.615596095	0.763262384	0.012773103	0.131777746	0.040615181
2020-05-14T21:15:00	0.2434	8.603	181.0	0.613508131	0.760177657	0.012692698	0.130948229	0.040359516
2020-05-14T21:20:00	0.2436	8.582	181.0	0.614078779	0.761020359	0.012714647	0.131174670	0.040429307
2020-05-14T21:25:00	0.2439	8.561	181.0	0.614981622	0.762354189	0.012749413	0.131533344	0.040539854
2020-05-14T21:30:00	0.2440	8.536	181.0	0.615219800	0.762706179	0.012758593	0.131628050	0.040569043
2020-05-14T21:35:00	0.2441	8.511	181.0	0.615790173	0.763549297	0.012780590	0.131854988	0.040638988
2020-05-14T21:40:00	0.2443	8.486	180.0	0.616360454	0.764392554	0.012802603	0.132082092	0.040708983
2020-05-14T21:45:00	0.2444	8.459	180.0	0.616598540	0.764744684	0.012811799	0.132176964	0.040738224
2020-05-14T21:50:00	0.2445	8.433	180.0	0.617168692	0.765588137	0.012833834	0.132404303	0.040808292
2020-05-14T21:55:00	0.2442	8.408	180.0	0.616078297	0.763975303	0.012791709	0.131969703	0.040674344
2020-05-14T22:00:00	0.2445	8.383	180.0	0.616980633	0.765309901	0.012826564	0.132329295	0.040785174
2020-05-14T22:05:00	0.2448	8.357	180.0	0.617929744	0.766714422	0.012863279	0.132708074	0.040901917
2020-05-14T22:10:00	0.2451	8.335	180.0	0.618878601	0.768119328	0.012900038	0.133087311	0.041018802
2020-05-14T22:15:00	0.2443	8.311	180.0	0.616175324	0.764118778	0.012795454	0.132008345	0.040686254
2020-05-14T22:20:00	0.2447	8.288	180.0	0.617788730	0.766505698	0.012857820	0.132651761	0.040884561
2020-05-14T22:25:00	0.2447	8.265	180.0	0.617741724	0.766436126	0.012856001	0.132632993	0.040878777
2020-05-14T22:30:00	0.2437	8.242	180.0	0.614372989	0.761454940	0.012725971	0.131291496	0.040465314
2020-05-14T22:35:00	0.2436	8.219	180.0	0.613993590	0.760894540	0.012711369	0.131140853	0.040418885
2020-05-14T22:40:00	0.2430	8.193	180.0	0.611951768	0.757880694	0.012632936	0.130331668	0.040169486
2020-05-14T22:45:00	0.2436	8.168	179.0	0.613899478	0.760755547	0.012707749	0.131103499	0.040407372
2020-05-14T22:50:00	0.2438	8.141	179.0	0.614517112	0.761667852	0.012731520	0.131348744	0.040482959
2020-05-14T22:55:00	0.2429	8.116	179.0	0.611810517	0.757672329	0.012627519	0.130275785	0.040152262
2020-05-14T23:00:00	0.2430	8.089	179.0	0.612095989	0.758093457	0.012638467	0.130388738	0.040187075
2020-05-14T23:05:00	0.2426	8.063	179.0	0.610718477	0.756061984	0.012585682	0.129844160	0.040019231
2020-05-14T23:10:00	0.2419	8.036	179.0	0.608341894	0.752560885	0.012494880	0.128907377	0.039730505
2020-05-14T23:15:00	0.2417	8.008	179.0	0.607628906	0.751511461	0.012467705	0.128627019	0.039644096
2020-05-14T23:20:00	0.2412	7.981	178.0	0.605916555	0.748992847	0.012402565	0.127954981	0.039436968
2020-05-14T23:25:00	0.2408	7.955	178.0	0.604536642	0.746964990	0.012350200	0.127414732	0.039270458
2020-05-14T23:30:00	0.2393	7.928	178.0	0.599820821	0.740046871	0.012172101	0.125577326	0.038704151
2020-05-14T23:35:00	0.2387	7.899	178.0	0.597770817	0.737045314	0.012095096	0.124782871	0.038459293
2020-05-14T23:40:00	0.2379	7.870	178.0	0.595051396	0.733069036	0.011993331	0.123732990	0.038135709
2020-05-14T23:45:00	0.2372	7.842	178.0	0.592664266	0.729583716	0.011904366	0.122815149	0.037852822
2020-05-14T23:50:00	0.2366	7.816	178.0	0.590610102	0.726588345	0.011828082	0.122028139	0.037610257
2020-05-14T23:55:00	0.2360	7.787	178.0	0.588554740	0.723594748	0.011752005	0.121243266	0.037368352
2020-05-15T00:00:00	0.2351	7.759	178.0	0.585493164	0.719142142	0.011639150	0.120078965	0.037009503
2020-05-15T00:05:00	0.2347	7.730	177.0	0.584440413	0.717612875	0.011600473	0.119679939	0.036886520
2020-05-15T00:10:00	0.2339	7.702	177.0	0.581710681	0.713651851	0.011500491	0.118648450	0.036568604
2020-05-15T00:15:00	0.2335	7.675	177.0	0.580321267	0.711638095	0.011449772	0.118125182	0.036407328
2020-05-15T00:20:00	0.2337	7.648	177.0	0.580944797	0.712541613	0.011472519	0.118359864	0.036479659
2020-05-15T00:25:00	0.2336	7.620	177.0	0.580561792	0.711986586	0.011458544	0.118215682	0.036435221
2020-05-15T00:30:00	0.2333	7.592	177.0	0.579507563	0.710459491	0.011420121	0.117819282	0.036313047
2020-05-15T00:35:00	0.2338	7.563	177.0	0.581137785	0.712821325	0.011479564	0.118432548	0.036502061
2020-05-15T00:40:00	0.2342	7.534	177.0	0.582767250	0.715184269	0.011539138	0.119047156	0.036691490
2020-05-15T00:45:00	0.2339	7.507	177.0	0.581713683	0.713656202	0.011500601	0.118649581	0.036568953
2020-05-15T00:50:00	0.2333	7.480	176.0	0.579653114	0.710670274	0.011425422	0.117873970	0.036329902
2020-05-15T00:55:00	0.2335	7.452	176.0	0.580276763	0.711573619	0.011448149	0.118108441	0.036402169
2020-05-15T01:00:00	0.2340	7.424	176.0	0.581906628	0.713935976	0.011507654	0.118722340	0.036591378
2020-05-15T01:05:00	0.2337	7.398	176.0	0.580852802	0.712408289	0.011469161	0.118325224	0.036468983
2020-05-15T01:10:00	0.2333	7.373	176.0	0.579463048	0.710395031	0.011418500	0.117802559	0.036307893
2020-05-15T01:15:00	0.2332	7.347	176.0	0.579415530	0.710326222	0.011416770	0.117784709	0.036302391
2020-05-15T01:20:00	0.2328	7.319	176.0	0.578025207	0.708313798	0.011366206	0.117263054	0.036141612
2020-05-15T01:25:00	0.2328	7.294	176.0	0.577977670	0.708245018	0.011364479	0.117245238	0.036136121
2020-05-15T01:30:00	0.2339	7.269	176.0	0.581621708	0.713522849	0.011497240	0.118614906	0.036558266
2020-05-15T01:35:00	0.2335	7.243	175.0	0.580232258	0.711509144	0.011446526	0.118091701	0.036397009
2020-05-15T01:40:00	0.2331	7.218	176.0	0.578842259	0.709496246	0.011395907	0.117569472	0.036236053
2020-05-15T01:45:00	0.2327	7.193	176.0	0.577451709	0.707484154	0.011345382	0.117048219	0.036075398
2020-05-15T01:50:00	0.2323	7.168	175.0	0.576396544	0.705958428	0.011307120	0.116653476	0.035953734
2020-05-15T01:55:00	0.2323	7.141	175.0	0.576348985	0.705889680	0.011305397	0.116635700	0.035948255
2020-05-15T02:00:00	0.2323	7.116	175.0	0.576301424	0.705820933	0.011303674	0.116617925	0.035942777
2020-05-15T02:05:00	0.2326	7.090	175.0	0.577261523	0.707209085	0.011338481	0.116977019	0.036053453
2020-05-15T02:10:00	0.2316	7.063	174.0	0.573853936	0.702285706	0.011215192	0.115705069	0.035661426
2020-05-15T02:15:00	0.2316	7.036	174.0	0.573806342	0.702217009	0.011213475	0.115687353	0.035655966
2020-05-15T02:20:00	0.2319	7.012	174.0	0.574767124	0.703604163	0.011248164	0.116045238	0.035766270
2020-05-15T02:25:00	0.2310	6.989	174.0	0.572029854	0.699654172	0.011149478	0.115027109	0.035452472
2020-05-15T02:30:00	0.2311	6.966	174.0	0.572318564	0.700070499	0.011159866	0.115134279	0.035485503
2020-05-15T02:35:00	0.2316	6.940	174.0	0.573952130	0.702427445	0.011218735	0.115741622	0.035672692
2020-05-15T02:40:00	0.2311	6.916	174.0	0.572223333	0.699933166	0.011156439	0.115098923	0.035474606
2020-05-15T02:45:00	0.2315	6.894	174.0	0.573520763	0.701804844	0.011203174	0.115581086	0.035623213
2020-05-15T02:50:00	0.2317	6.871	174.0	0.574145503	0.702706594	0.011225714	0.115813624	0.035694884
2020-05-15T02:55:00	0.2309	6.847	174.0	0.571407747	0.698757311	0.011127111	0.114796354	0.035381351
2020-05-15T03:00:00	0.2293	6.825	173.0	0.566310408	0.691420786	0.010944706	0.112914515	0.034801350
2020-05-15T03:05:00	0.2304	6.802	173.0	0.569966596	0.696680906	0.011075385	0.114262702	0.035216874
2020-05-15T03:10:00	0.2314	6.776	173.0	0.573282763	0.701461400	0.011194594	0.115492561	0.035595929
2020-05-15T03:15:00	0.2312	6.753	173.0	0.572562648	0.700422528	0.011168652	0.115224923	0.035513440
2020-05-15T03:20:00	0.2314	6.732	173.0	0.573187559	0.701324029	0.011191162	0.115457159	0.035585018
2020-05-15T03:25:00	0.2317	6.712	173.0	0.574148511	0.702710936	0.011225823	0.115814744	0.035695229
2020-05-15T03:30:00	0.2321	6.690	173.0	0.575445228	0.704583653	0.011272681	0.116298167	0.035844225
2020-05-15T03:35:00	0.2318	6.670	173.0	0.574725557	0.703544133	0.011246662	0.116029743	0.035761494
2020-05-15T03:40:00	0.2326	6.649	173.0	0.577365632	0.707359656	0.011342259	0.117015992	0.036065465
2020-05-15T03:45:00	0.2334	6.629	173.0	0.580003721	0.711178083	0.011438196	0.118005757	0.036370520
2020-05-15T03:50:00	0.2338	6.609	173.0	0.581298277	0.713053962	0.011485425	0.118493010	0.036520697
2020-05-15T03:55:00	0.2351	6.591	173.0	0.585609020	0.719310496	0.011643411	0.120122920	0.037023051
2020-05-15T04:00:00	0.2356	6.572	172.0	0.587236416	0.721676487	0.011703341	0.120741209	0.037213613
2020-05-15T04:05:00	0.2355	6.555	172.0	0.586996347	0.721327324	0.011694490	0.120649899	0.037185470
2020-05-15T04:10:00	0.2349	6.537	172.0	0.585081203	0.718543601	0.011624007	0.119922738	0.036961352
2020-05-15T04:15:00	0.2358	6.519	167.0	0.587855725	0.722577448	0.011726189	0.120976927	0.037286264
2020-05-15T04:20:00	0.2366	6.500	172.0	0.590628064	0.726614522	0.011828748	0.122035009	0.037612375
2020-05-15T04:25:00	0.2365	6.484	172.0	0.590388226	0.726265017	0.011819857	0.121943287	0.037584105
2020-05-15T04:30:00	0.2370	6.470	172.0	0.592155458	0.728841447	0.011885447	0.122619968	0.037792665
2020-05-15T04:35:00	0.2371	6.454	172.0	0.592250151	0.728979572	0.011888967	0.122656280	0.037803857
2020-05-15T04:40:00	0.2373	6.439	172.0	0.593013580	0.730093432	0.011917363	0.122949239	0.037894150
2020-05-15T04:45:00	0.2376	6.424	167.0	0.594111093	0.731695583	0.011958247	0.123371029	0.038024149
2020-05-15T04:50:00	0.2373	6.409	167.0	0.592868579	0.729881836	0.011911967	0.122893569	0.037876992
2020-05-15T04:55:00	0.2371	6.397	172.0	0.592294504	0.729044270	0.011890616	0.122673291	0.037809100
2020-05-15T05:00:00	0.2379	6.386	172.0	0.595063356	0.733086510	0.011993778	0.123737597	0.038137129
2020-05-15T05:05:00	0.2387	6.376	172.0	0.597830038	0.737131975	0.012097317	0.124805785	0.038466355
2020-05-15T05:10:00	0.2382	6.367	167.0	0.595920770	0.734339544	0.012025816	0.124068132	0.038239003
2020-05-15T05:15:00	0.2374	6.360	167.0	0.593341919	0.730572637	0.011929587	0.123075347	0.037933017
2020-05-15T05:20:00	0.2373	6.353	173.0	0.593102266	0.730222859	0.011920664	0.122983295	0.037904646
2020-05-15T05:25:00	0.2369	6.349	167.0	0.591524933	0.727921912	0.011862024	0.122378317	0.037718186
2020-05-15T05:30:00	0.2366	6.347	172.0	0.590616089	0.726597071	0.011828304	0.122030429	0.037610963
2020-05-15T05:35:00	0.2360	6.345	173.0	0.588702913	0.723810442	0.011757481	0.121299761	0.037385764
2020-05-15T05:40:00	0.2352	6.344	172.0	0.586118775	0.720051366	0.011662166	0.120316414	0.037082687
2020-05-15T05:45:00	0.2356	6.345	172.0	0.587218437	0.721650336	0.011702678	0.120734370	0.037211505
2020-05-15T05:50:00	0.2349	6.347	172.0	0.584968327	0.718379628	0.011619860	0.119879950	0.036948165
2020-05-15T05:55:00	0.2353	6.352	172.0	0.586403331	0.720465029	0.011672642	0.120424496	0.037115999
2020-05-15T06:00:00	0.2344	6.357	171.0	0.583147015	0.715735295	0.011553045	0.119190631	0.036735710
2020-05-15T06:05:00	0.2341	6.365	172.0	0.582236005	0.714413649	0.011519698	0.118846600	0.036629676
2020-05-15T06:10:00	0.2338	6.373	172.0	0.581324759	0.713092350	0.011486392	0.118502989	0.036523772
2020-05-15T06:15:00	0.2333	6.382	171.0	0.579742138	0.710799203	0.011428665	0.117907425	0.036340214
2020-05-15T06:20:00	0.2336	6.393	172.0	0.580508284	0.711909056	0.011456592	0.118195546	0.036429015
2020-05-15T06:25:00	0.2328	6.406	172.0	0.577918114	0.708158852	0.011362316	0.117222921	0.036129243
2020-05-15T06:30:00	0.2327	6.420	172.0	0.577677407	0.707810625	0.011353575	0.117132742	0.036101449
2020-05-15T06:35:00	0.2320	6.435	172.0	0.575085145	0.704063481	0.011259659	0.116163823	0.035802818
2020-05-15T06:40:00	0.2320	6.453	167.0	0.575180298	0.704200927	0.011263099	0.116199316	0.035813758
2020-05-15T06:45:00	0.2316	6.473	172.0	0.573931075	0.702397053	0.011217975	0.115733784	0.035670276
2020-05-15T06:50:00	0.2309	6.494	172.0	0.571672430	0.699138852	0.011136625	0.114894502	0.035411601
2020-05-15T06:55:00	0.2314	6.518	167.0	0.573112878	0.701216278	0.011188471	0.115429393	0.035576460
2020-05-15T07:00:00	0.2308	6.545	172.0	0.571190141	0.698443676	0.011119293	0.114715694	0.035356491
2020-05-15T07:05:00	0.2304	6.576	172.0	0.569939495	0.696641875	0.011074413	0.114252679	0.035213785
2020-05-15T07:10:00	0.2306	6.612	173.0	0.570707787	0.697748597	0.011101972	0.114537003	0.035301417
2020-05-15T07:15:00	0.2306	6.648	173.0	0.570466585	0.697401093	0.011093317	0.114447702	0.035273893
2020-05-15T07:20:00	0.2303	6.677	173.0	0.569552274	0.696084270	0.011060536	0.114109515	0.035169661
2020-05-15T07:25:00	0.2303	6.708	173.0	0.569647577	0.696221497	0.011063951	0.114144742	0.035180518
2020-05-15T07:30:00	0.2305	6.754	173.0	0.570079422	0.696843403	0.011079430	0.114304435	0.035229737
2020-05-15T07:35:00	0.2299	6.799	173.0	0.568155017	0.694073225	0.011010537	0.113593680	0.035010675
2020-05-15T07:40:00	0.2299	6.831	173.0	0.568250359	0.694210397	0.011013945	0.113628840	0.035021512
2020-05-15T07:45:00	0.2299	6.864	173.0	0.568345698	0.694347573	0.011017353	0.113664004	0.035032350
2020-05-15T07:50:00	0.2296	6.901	174.0	0.567094033	0.692547249	0.010972648	0.113202784	0.034890197
2020-05-15T07:55:00	0.2288	6.948	174.0	0.564493917	0.688811523	0.010880075	0.112247728	0.034595840
2020-05-15T08:00:00	0.2296	6.990	174.0	0.567284772	0.692821513	0.010979454	0.113273006	0.034911841
2020-05-15T08:05:00	0.2298	7.040	174.0	0.567716908	0.693442996	0.010994883	0.113432185	0.034960901
2020-05-15T08:10:00	0.2288	7.098	175.0	0.564443179	0.688738681	0.010878273	0.112229132	0.034590109
2020-05-15T08:15:00	0.2294	7.154	175.0	0.566560406	0.691780104	0.010953616	0.113006440	0.034829682
2020-05-15T08:20:00	0.2291	7.208	176.0	0.565645073	0.690464762	0.010921011	0.112670054	0.034726005
2020-05-15T08:25:00	0.2300	7.267	176.0	0.568435009	0.694476083	0.011020547	0.113696951	0.035042504
2020-05-15T08:30:00	0.2296	7.322	176.0	0.567183376	0.692675713	0.010975836	0.113235674	0.034900334
2020-05-15T08:35:00	0.2292	7.387	176.0	0.565931295	0.690875992	0.010931201	0.112775186	0.034758408
2020-05-15T08:40:00	0.2298	7.418	176.0	0.567710882	0.693434328	0.010994668	0.113429964	0.034960217
2020-05-15T08:45:00	0.2287	7.504	176.0	0.564100059	0.688246133	0.010866087	0.112103418	0.034551362
2020-05-15T08:50:00	0.2293	7.595	177.0	0.566217494	0.691287256	0.010941395	0.112880360	0.034790823
2020-05-15T08:55:00	0.2287	7.663	177.0	0.564290961	0.688520161	0.010872866	0.112173353	0.034572917
2020-05-15T09:00:00	0.2285	7.732	177.0	0.563375033	0.687205680	0.010840362	0.111838015	0.034469562
2020-05-15T09:05:00	0.2287	7.847	177.0	0.564144769	0.688310309	0.010867675	0.112119795	0.034556410
2020-05-15T09:10:00	0.2284	7.903	178.0	0.563228802	0.686995883	0.010835177	0.111784525	0.034453076
2020-05-15T09:15:00	0.2276	7.968	178.0	0.560288348	0.682780962	0.010731187	0.110711680	0.034122415
2020-05-15T09:20:00	0.2281	7.982	178.0	0.562070813	0.685335141	0.010794164	0.111361397	0.034322664
2020-05-15T09:25:00	0.2295	8.003	178.0	0.566885201	0.692247003	0.010965198	0.113125925	0.034866509
2020-05-15T09:30:00	0.2286	7.986	178.0	0.563947826	0.688027635	0.010860683	0.112047665	0.034534179
2020-05-15T09:35:00	0.2291	7.960	178.0	0.565391460	0.690100441	0.010911985	0.112576942	0.034697307
2020-05-15T09:40:00	0.2293	7.936	178.0	0.566160752	0.691205713	0.010939374	0.112859504	0.034784395
2020-05-15T09:45:00	0.2299	7.924	178.0	0.568276939	0.694248642	0.011014895	0.113638643	0.035024533
2020-05-15T09:50:00	0.2303	7.927	178.0	0.569382208	0.695839411	0.011054445	0.114046667	0.035150290
2020-05-15T09:55:00	0.2299	7.933	178.0	0.568130914	0.694038549	0.011009675	0.113584792	0.035007936
2020-05-15T10:00:00	0.2295	7.951	178.0	0.566879173	0.692238337	0.010964983	0.113123707	0.034865825
2020-05-15T10:05:00	0.2292	7.977	178.0	0.565731438	0.690588840	0.010924085	0.112701772	0.034735781
2020-05-15T10:10:00	0.2288	8.009	178.0	0.564583326	0.688939890	0.010883252	0.112280501	0.034605941
2020-05-15T10:15:00	0.2285	8.049	178.0	0.563434837	0.687291485	0.010842483	0.111859895	0.034476306
2020-05-15T10:20:00	0.2282	8.095	178.0	0.562623232	0.686127261	0.010813719	0.111563148	0.034384846
2020-05-15T10:25:00	0.2274	8.146	179.0	0.559786900	0.682062885	0.010713504	0.110529249	0.034066188
2020-05-15T10:30:00	0.2268	8.210	179.0	0.557623785	0.678967662	0.010637394	0.109744036	0.033824178
2020-05-15T10:35:00	0.2262	8.264	180.0	0.555797249	0.676357053	0.010573342	0.109083215	0.033620506
2020-05-15T10:40:00	0.2259	8.331	179.0	0.554645860	0.674712818	0.010533066	0.108667695	0.033492439
2020-05-15T10:45:00	0.2255	8.384	180.0	0.553494090	0.673069129	0.010492854	0.108252843	0.033364577
2020-05-15T10:50:00	0.2253	8.444	180.0	0.552680165	0.671908237	0.010464485	0.107960162	0.033274371
2020-05-15T10:55:00	0.2258	8.497	180.0	0.554233275	0.674123893	0.010518652	0.108518995	0.033446608
2020-05-15T11:00:00	0.2262	8.537	180.0	0.555785691	0.676340542	0.010572937	0.109079040	0.033619220
2020-05-15T11:05:00	0.2257	8.546	181.0	0.553958190	0.673731315	0.010509048	0.108419909	0.033416069
2020-05-15T11:10:00	0.2267	8.555	181.0	0.557537754	0.678844640	0.010634373	0.109712866	0.033814571
2020-05-15T11:15:00	0.2270	8.562	181.0	0.558413455	0.680097163	0.010665147	0.110030358	0.033912425
2020-05-15T11:20:00	0.2268	8.590	180.0	0.557600680	0.678934622	0.010636583	0.109735665	0.033821598
2020-05-15T11:25:00	0.2259	8.621	181.0	0.554760254	0.674876129	0.010537064	0.108708943	0.033505152
2020-05-15T11:30:00	0.2256	8.663	181.0	0.553608522	0.673232386	0.010496846	0.108294024	0.033377270
2020-05-15T11:35:00	0.2242	8.740	181.0	0.549072434	0.666769112	0.010339206	0.106667687	0.032876017
2020-05-15T11:40:00	0.2248	8.830	181.0	0.550965550	0.669464478	0.010404850	0.107344916	0.033084746
2020-05-15T11:45:00	0.2240	8.923	182.0	0.548119696	0.665413743	0.010306250	0.106327683	0.032771225
2020-05-15T11:50:00	0.2241	8.992	182.0	0.548659186	0.666181133	0.010324905	0.106520144	0.032830543
2020-05-15T11:55:00	0.2248	9.048	182.0	0.550890929	0.669358179	0.010402258	0.107318181	0.033076506
2020-05-15T12:00:00	0.2249	9.106	183.0	0.551429989	0.670126182	0.010420986	0.107511392	0.033136055
2020-05-15T12:05:00	0.2251	9.178	183.0	0.551968965	0.670894304	0.010439728	0.107704750	0.033195650
2020-05-15T12:10:00	0.2259	9.200	183.0	0.554536631	0.674556891	0.010529249	0.108628318	0.033480303
2020-05-15T12:15:00	0.2249	9.193	183.0	0.551355378	0.670019869	0.010418393	0.107484639	0.033127810
2020-05-15T12:20:00	0.2253	9.195	183.0	0.552570874	0.671752397	0.010460679	0.107920893	0.033262267
2020-05-15T12:25:00	0.2262	9.217	183.0	0.555813974	0.676380945	0.010573927	0.109089257	0.033622368
2020-05-15T12:30:00	0.2257	9.242	183.0	0.553986489	0.673771697	0.010510036	0.108430100	0.033419210
2020-05-15T12:35:00	0.2254	9.280	184.0	0.552834500	0.672128321	0.010469861	0.108015629	0.033291466
2020-05-15T12:40:00	0.2255	9.359	184.0	0.553373258	0.672896754	0.010488640	0.108209367	0.033351178
2020-05-15T12:45:00	0.2259	9.435	184.0	0.554588049	0.674630290	0.010531045	0.108646853	0.033486015
2020-05-15T12:50:00	0.2250	9.442	184.0	0.551745161	0.670575321	0.010431944	0.107624439	0.033170897
2020-05-15T12:55:00	0.2249	9.421	184.0	0.551269192	0.669897068	0.010415398	0.107453740	0.033118286
2020-05-15T13:00:00	0.2241	9.398	184.0	0.548762196	0.666327685	0.010328469	0.106556912	0.032841875
2020-05-15T13:05:00	0.2244	9.397	184.0	0.549640109	0.667577044	0.010358868	0.106870535	0.032938537
2020-05-15T13:10:00	0.2245	9.402	184.0	0.549840892	0.667862867	0.010365827	0.106942328	0.032960664
2020-05-15T13:15:00	0.2247	9.417	184.0	0.550718532	0.669112614	0.010396272	0.107256427	0.033057472
2020-05-15T13:20:00	0.2248	9.457	184.0	0.550919253	0.669398526	0.010403242	0.107328328	0.033079633
2020-05-15T13:25:00	0.2239	9.544	185.0	0.548073360	0.665347845	0.010304649	0.106311161	0.032766132
2020-05-15T13:30:00	0.2231	9.642	185.0	0.545225133	0.661300487	0.010206450	0.105298067	0.032453887
2020-05-15T13:35:00	0.2238	9.683	185.0	0.547459085	0.664474392	0.010283430	0.106092253	0.032698663
2020-05-15T13:40:00	0.2244	9.688	185.0	0.549691600	0.667650340	0.010360653	0.106888944	0.032944211
2020-05-15T13:45:00	0.2242	9.697	185.0	0.548876784	0.666490719	0.010332434	0.106597821	0.032854484
2020-05-15T13:50:00	0.2244	9.732	186.0	0.549754668	0.667740120	0.010362838	0.106911494	0.032951161
2020-05-15T13:55:00	0.2241	9.748	185.0	0.548601275	0.666098747	0.010322902	0.106499476	0.032824173
2020-05-15T14:00:00	0.2237	9.744	185.0	0.547108761	0.663976397	0.010271339	0.105967511	0.032660216
2020-05-15T14:05:00	0.2232	9.745	185.0	0.545615605	0.661854959	0.010219885	0.105436665	0.032496604
2020-05-15T14:10:00	0.2233	9.767	186.0	0.545816621	0.662140451	0.010226804	0.105508052	0.032518606
2020-05-15T14:15:00	0.2235	9.778	185.0	0.546695280	0.663388750	0.010257077	0.105820375	0.032614867
2020-05-15T14:20:00	0.2230	9.765	186.0	0.544862989	0.660786353	0.010193999	0.105169607	0.032414294
2020-05-15T14:25:00	0.2233	9.751	185.0	0.545741889	0.662034309	0.010224231	0.105481509	0.032510426
2020-05-15T14:30:00	0.2228	9.733	185.0	0.544248144	0.659913708	0.010172876	0.104951689	0.032347130
2020-05-15T14:35:00	0.2225	9.710	185.0	0.543092918	0.658274939	0.010133249	0.104542864	0.032221126
2020-05-15T14:40:00	0.2229	9.710	185.0	0.544650322	0.660484482	0.010186690	0.105094206	0.032391055
2020-05-15T14:45:00	0.2225	9.714	185.0	0.543156107	0.658364548	0.010135415	0.104565205	0.032228012
2020-05-15T14:50:00	0.2238	9.722	185.0	0.547424326	0.664424977	0.010282230	0.106079873	0.032694847
2020-05-15T14:55:00	0.2234	9.732	185.0	0.546270159	0.662784707	0.010242425	0.105669206	0.032568275
2020-05-15T15:00:00	0.2228	9.723	186.0	0.544098611	0.659701524	0.010167743	0.104898725	0.032330806
2020-05-15T15:05:00	0.2228	9.717	185.0	0.544299715	0.659986890	0.010174647	0.104969959	0.032352761
2020-05-15T15:10:00	0.2219	9.717	185.0	0.541109059	0.655463243	0.010065380	0.103842673	0.032005320
2020-05-15T15:15:00	0.2214	9.720	185.0	0.539613314	0.653345472	0.010014362	0.103316330	0.031843096
2020-05-15T15:20:00	0.2221	9.717	186.0	0.541850887	0.656514248	0.010090732	0.104104218	0.032085931
2020-05-15T15:25:00	0.2216	9.712	185.0	0.540016031	0.653915484	0.010028086	0.103457910	0.031886733
2020-05-15T15:30:00	0.2213	9.709	185.0	0.539198937	0.652759094	0.010000252	0.103170752	0.031798228
2020-05-15T15:35:00	0.2223	9.708	185.0	0.542454554	0.657369843	0.010111385	0.104317298	0.032151604
2020-05-15T15:40:00	0.2216	9.717	185.0	0.540280613	0.654290050	0.010037107	0.103550981	0.031915418
2020-05-15T15:45:00	0.2220	9.723	185.0	0.541499996	0.656017058	0.010078736	0.103980464	0.032047789
2020-05-15T15:50:00	0.2223	9.727	185.0	0.542379750	0.657263805	0.010108825	0.104290882	0.032143463
2020-05-15T15:55:00	0.2218	9.724	185.0	0.540884554	0.655145258	0.010057714	0.103763585	0.031980945
2020-05-15T16:00:00	0.2221	9.705	185.0	0.541764464	0.656391784	0.010087777	0.104073731	0.032076535
2020-05-15T16:05:00	0.2230	9.701	185.0	0.544729723	0.660597184	0.010189419	0.105122354	0.032399731
2020-05-15T16:10:00	0.2231	9.690	185.0	0.545320759	0.661436265	0.010209740	0.105332001	0.032464346
2020-05-15T16:15:00	0.2228	9.671	185.0	0.544216925	0.659869407	0.010171804	0.104940630	0.032343721
2020-05-15T16:20:00	0.2230	9.662	185.0	0.544808048	0.660708363	0.010192110	0.105150125	0.032408290
2020-05-15T16:25:00	0.2232	9.651	185.0	0.545399070	0.661547463	0.010212434	0.105359795	0.032472912
2020-05-15T16:30:00	0.2239	9.641	185.0	0.548022574	0.665275620	0.010302894	0.106293054	0.032760552
2020-05-15T16:35:00	0.2233	9.626	185.0	0.545903134	0.662263331	0.010229783	0.105538782	0.032528078
2020-05-15T16:40:00	0.2232	9.615	185.0	0.545477379	0.661658663	0.010215128	0.105387591	0.032481479
2020-05-15T16:45:00	0.2231	9.599	185.0	0.545051571	0.661054069	0.010200482	0.105236491	0.032434909
2020-05-15T16:50:00	0.2234	9.570	185.0	0.546320279	0.662855914	0.010244151	0.105687022	0.032573767
2020-05-15T16:55:00	0.2241	9.544	185.0	0.548604497	0.666103330	0.010323013	0.106500626	0.032824527
2020-05-15T17:00:00	0.2239	9.526	185.0	0.547840407	0.665016566	0.010296599	0.106228117	0.032740537
2020-05-15T17:05:00	0.2230	9.515	185.0	0.545043010	0.661041915	0.010200188	0.105233454	0.032433973
2020-05-15T17:10:00	0.2236	9.506	185.0	0.546989319	0.663806628	0.010267218	0.105924997	0.032647113
2020-05-15T17:15:00	0.2238	9.493	184.0	0.547579969	0.664646255	0.010287604	0.106135314	0.032711935
2020-05-15T17:20:00	0.2241	9.482	185.0	0.548509153	0.665967696	0.010319715	0.106466602	0.032814041
2020-05-15T17:25:00	0.2240	9.473	184.0	0.548422359	0.665844233	0.010316714	0.106435635	0.032804496
2020-05-15T17:30:00	0.2235	9.467	184.0	0.546641979	0.663313009	0.010255240	0.105801416	0.032609024
2020-05-15T17:35:00	0.2236	9.462	184.0	0.546893930	0.663671058	0.010263928	0.105891051	0.032636650
2020-05-15T17:40:00	0.2240	9.452	184.0	0.548161965	0.665473860	0.010307711	0.106342756	0.032775870
2020-05-15T17:45:00	0.2239	9.443	184.0	0.548075163	0.665350409	0.010304711	0.106311804	0.032766331
2020-05-15T17:50:00	0.2238	9.434	185.0	0.547649674	0.664745362	0.010290011	0.106160148	0.032719589
2020-05-15T17:55:00	0.2238	9.421	185.0	0.547562859	0.664621929	0.010287013	0.106129219	0.032710056
2020-05-15T18:00:00	0.2243	9.405	184.0	0.549169219	0.666906841	0.010342557	0.106702258	0.032886672
2020-05-15T18:05:00	0.2237	9.390	184.0	0.547389222	0.664375072	0.010281018	0.106067371	0.032690994
2020-05-15T18:10:00	0.2243	9.373	184.0	0.549334216	0.667141656	0.010348271	0.106761206	0.032904841
2020-05-15T18:15:00	0.2244	9.357	184.0	0.549585972	0.667499983	0.010356992	0.106851182	0.032932572
2020-05-15T18:20:00	0.2243	9.340	184.0	0.549160668	0.666894673	0.010342261	0.106699203	0.032885731
2020-05-15T18:25:00	0.2244	9.321	184.0	0.549750949	0.667734825	0.010362710	0.106910165	0.032950751
2020-05-15T18:30:00	0.2250	9.302	184.0	0.551694621	0.670503293	0.010430186	0.107606307	0.033165309
2020-05-15T18:35:00	0.2247	9.279	184.0	0.550592813	0.668933553	0.010391908	0.107211404	0.033043596
2020-05-15T18:40:00	0.2250	9.253	184.0	0.551521191	0.670256141	0.010424156	0.107544098	0.033146136
2020-05-15T18:45:00	0.2254	9.226	184.0	0.553125721	0.672543662	0.010480010	0.108120331	0.033323736
2020-05-15T18:50:00	0.2258	9.199	183.0	0.554391484	0.674349705	0.010524178	0.108576003	0.033464179
2020-05-15T18:55:00	0.2264	9.171	183.0	0.556332564	0.677121877	0.010592094	0.109276677	0.033680133
2020-05-15T19:00:00	0.2270	9.144	183.0	0.558272562	0.679895600	0.010660193	0.109979244	0.033896671
2020-05-15T19:05:00	0.2270	9.116	183.0	0.558523672	0.680254852	0.010669024	0.110070350	0.033924751
2020-05-15T19:10:00	0.2274	9.087	183.0	0.559787473	0.682063706	0.010713524	0.110529457	0.034066252
2020-05-15T19:15:00	0.2279	9.062	183.0	0.561388199	0.684356683	0.010770024	0.111112353	0.034245906
2020-05-15T19:20:00	0.2282	9.034	183.0	0.562313703	0.685683393	0.010802760	0.111450081	0.034349997
2020-05-15T19:25:00	0.2279	9.006	183.0	0.561552618	0.684592326	0.010775836	0.111172313	0.034264387
2020-05-15T19:30:00	0.2279	8.978	182.0	0.561466149	0.684468397	0.010772779	0.111140778	0.034254667
2020-05-15T19:35:00	0.2280	8.951	183.0	0.561717029	0.684827979	0.010781649	0.111232287	0.034282871
2020-05-15T19:40:00	0.2284	8.921	183.0	0.562979674	0.686638500	0.010826347	0.111693424	0.034424998
2020-05-15T19:45:00	0.2291	8.891	182.0	0.565589963	0.690385591	0.010919049	0.112649818	0.034719768
2020-05-15T19:50:00	0.2286	8.861	182.0	0.563818345	0.687841806	0.010856088	0.112000256	0.034519567
2020-05-15T19:55:00	0.2290	8.830	182.0	0.565080230	0.689653423	0.010900915	0.112462729	0.034662105
2020-05-15T20:00:00	0.2291	8.801	182.0	0.565330850	0.690013381	0.010909829	0.112554695	0.034690450
2020-05-15T20:05:00	0.2284	8.771	182.0	0.563221928	0.686986021	0.010834933	0.111782010	0.034452301
2020-05-15T20:10:00	0.2289	8.742	181.0	0.564821079	0.689281268	0.010891701	0.112367673	0.034632808
2020-05-15T20:15:00	0.2285	8.713	181.0	0.563386260	0.687221789	0.010840760	0.111842122	0.034470828
2020-05-15T20:20:00	0.2290	8.684	182.0	0.564985336	0.689517144	0.010897541	0.112427917	0.034651376
2020-05-15T20:25:00	0.2289	8.653	181.0	0.564898952	0.689393093	0.010894469	0.112396232	0.034641610
2020-05-15T20:30:00	0.2284	8.621	181.0	0.563126984	0.686849815	0.010831568	0.111747287	0.034441599
2020-05-15T20:35:00	0.2292	8.590	181.0	0.565737163	0.690597065	0.010924289	0.112703874	0.034736429
2020-05-15T20:40:00	0.2294	8.559	181.0	0.566661514	0.691925439	0.010957221	0.113043628	0.034841144
2020-05-15T20:45:00	0.2289	8.528	181.0	0.564890440	0.689380869	0.010894167	0.112393110	0.034640648
2020-05-15T20:50:00	0.2288	8.495	180.0	0.564467002	0.688772882	0.010879119	0.112237863	0.034592800
2020-05-15T20:55:00	0.2283	8.463	180.0	0.562694813	0.686229921	0.010816255	0.111589304	0.034392907
2020-05-15T21:00:00	0.2282	8.432	180.0	0.562608373	0.686105951	0.010813193	0.111557719	0.034383172
2020-05-15T21:05:00	0.2276	8.399	180.0	0.560497804	0.683080967	0.010738578	0.110787928	0.034145915
2020-05-15T21:10:00	0.2275	8.366	180.0	0.560073833	0.682473750	0.010723621	0.110633619	0.034098356
2020-05-15T21:15:00	0.2277	8.334	180.0	0.560662265	0.683316549	0.010744383	0.110847815	0.034164373
2020-05-15T21:20:00	0.2279	8.302	180.0	0.561587961	0.684642982	0.010777086	0.111185205	0.034268360
2020-05-15T21:25:00	0.2274	8.271	180.0	0.559814310	0.682102131	0.010714470	0.110539217	0.034069260
2020-05-15T21:30:00	0.2279	8.238	179.0	0.561415023	0.684395125	0.010770972	0.111122134	0.034248921
2020-05-15T21:35:00	0.2282	8.206	180.0	0.562340520	0.685721846	0.010803709	0.111459875	0.034353016
2020-05-15T21:40:00	0.2282	8.175	179.0	0.562591337	0.686081519	0.010812590	0.111551495	0.034381254
2020-05-15T21:45:00	0.2284	8.145	179.0	0.563179345	0.686924931	0.010833424	0.111766436	0.034447501
2020-05-15T21:50:00	0.2285	8.113	179.0	0.563430101	0.687284691	0.010842315	0.111858162	0.034475772
2020-05-15T21:55:00	0.2288	8.081	179.0	0.564355063	0.688612182	0.010875143	0.112196841	0.034580156
2020-05-15T22:00:00	0.2282	8.048	179.0	0.562582819	0.686069303	0.010812288	0.111548382	0.034380295
2020-05-15T22:05:00	0.2285	8.017	178.0	0.563454236	0.687319320	0.010843171	0.111866993	0.034478494
2020-05-15T22:10:00	0.2291	7.987	179.0	0.565336537	0.690021550	0.010910031	0.112556782	0.034691093
2020-05-15T22:15:00	0.2296	7.956	178.0	0.567217823	0.692725245	0.010977065	0.113248356	0.034904243
2020-05-15T22:20:00	0.2301	7.924	178.0	0.568761460	0.694945868	0.011032224	0.113817418	0.035079634
2020-05-15T22:25:00	0.2304	7.895	178.0	0.569967892	0.696682773	0.011075431	0.114263181	0.035217022
2020-05-15T22:30:00	0.2299	7.866	178.0	0.568144796	0.694058521	0.011010172	0.113589911	0.035009514
2020-05-15T22:35:00	0.2304	7.836	178.0	0.570024572	0.696764405	0.011077463	0.114284146	0.035223484
2020-05-15T22:40:00	0.2312	7.807	178.0	0.572575979	0.700441757	0.011169132	0.115229875	0.035514967
2020-05-15T22:45:00	0.2306	7.777	177.0	0.570417763	0.697330761	0.011091565	0.114429631	0.035268323
2020-05-15T22:50:00	0.2311	7.748	177.0	0.572296318	0.700038418	0.011159065	0.115126019	0.035482957
2020-05-15T22:55:00	0.2311	7.720	177.0	0.572156480	0.699836761	0.011154033	0.115074106	0.035466957
2020-05-15T23:00:00	0.2310	7.694	177.0	0.572016636	0.699635112	0.011149002	0.115022203	0.035450960
2020-05-15T23:05:00	0.2302	7.666	177.0	0.569184912	0.695555376	0.011047379	0.113973778	0.035127825
2020-05-15T23:10:00	0.2303	7.641	177.0	0.569381560	0.695838478	0.011054421	0.114046427	0.035150216
2020-05-15T23:15:00	0.2302	7.614	177.0	0.569241604	0.695636990	0.011049409	0.113994720	0.035134280
2020-05-15T23:20:00	0.2305	7.591	177.0	0.570111363	0.696889408	0.011080575	0.114316251	0.035233379
2020-05-15T23:25:00	0.2301	7.570	177.0	0.568961677	0.695234039	0.011039388	0.113891335	0.035102415
2020-05-15T23:30:00	0.2298	7.551	176.0	0.567811613	0.693579218	0.010998266	0.113467085	0.034971658
2020-05-15T23:35:00	0.2296	7.534	177.0	0.567334820	0.692893483	0.010981241	0.113291436	0.034917521
2020-05-15T23:40:00	0.2298	7.519	176.0	0.567868328	0.693660799	0.011000292	0.113487988	0.034978100
2020-05-15T23:45:00	0.2299	7.502	176.0	0.568065050	0.693943793	0.011007321	0.113560507	0.035000451
2020-05-15T23:50:00	0.2304	7.486	176.0	0.569944869	0.696649615	0.011074606	0.114254666	0.035214398
2020-05-15T23:55:00	0.2307	7.472	176.0	0.570814453	0.697902288	0.011105801	0.114576506	0.035313592
2020-05-16T00:00:00	0.2306	7.455	176.0	0.570674555	0.697700717	0.011100780	0.114524698	0.035297624
2020-05-16T00:05:00	0.2304	7.441	176.0	0.569861619	0.696529723	0.011071622	0.114223879	0.035204909
2020-05-16T00:10:00	0.2298	7.428	176.0	0.567701728	0.693421161	0.010994341	0.113426591	0.034959177
2020-05-16T00:15:00	0.2301	7.414	176.0	0.568908526	0.695157536	0.011037486	0.113871710	0.035096367
2020-05-16T00:20:00	0.2302	7.401	176.0	0.569105189	0.695440615	0.011044525	0.113944332	0.035118750
2020-05-16T00:25:00	0.2302	7.389	176.0	0.569301842	0.695723709	0.011051566	0.114016973	0.035141139
2020-05-16T00:30:00	0.2302	7.377	176.0	0.569161884	0.695522226	0.011046555	0.113965272	0.035125204
2020-05-16T00:35:00	0.2298	7.366	175.0	0.568011885	0.693867310	0.011005422	0.113540906	0.034994410
2020-05-16T00:40:00	0.2305	7.353	176.0	0.570228262	0.697057787	0.011084767	0.114359502	0.035246709
2020-05-16T00:45:00	0.2300	7.341	176.0	0.568405302	0.694433337	0.011019485	0.113685992	0.035039127
2020-05-16T00:50:00	0.2304	7.329	175.0	0.569948414	0.696654721	0.011074733	0.114255977	0.035214802
2020-05-16T00:55:00	0.2302	7.316	175.0	0.569135309	0.695483972	0.011045604	0.113955456	0.035122178
2020-05-16T01:00:00	0.2298	7.305	175.0	0.567985303	0.693829069	0.011004472	0.113531106	0.034991389
2020-05-16T01:05:00	0.2296	7.294	175.0	0.567171741	0.692658983	0.010975421	0.113231390	0.034899014
2020-05-16T01:10:00	0.2295	7.282	175.0	0.566694860	0.691973374	0.010958410	0.113055895	0.034844925
2020-05-16T01:15:00	0.2292	7.270	175.0	0.565880998	0.690803723	0.010929410	0.112756708	0.034752713
2020-05-16T01:20:00	0.2288	7.258	175.0	0.564392860	0.688666443	0.010876485	0.112210692	0.034584425
2020-05-16T01:25:00	0.2295	7.248	175.0	0.566948378	0.692337832	0.010967451	0.113149174	0.034873674
2020-05-16T01:30:00	0.2296	7.237	175.0	0.567145152	0.692620751	0.010974472	0.113221601	0.034895997
2020-05-16T01:35:00	0.2295	7.227	175.0	0.567005107	0.692419393	0.010969475	0.113170052	0.034880109
2020-05-16T01:40:00	0.2288	7.217	175.0	0.564506400	0.688829446	0.010880519	0.112252304	0.034597250
2020-05-16T01:45:00	0.2288	7.206	175.0	0.564366250	0.688628241	0.010875540	0.112200941	0.034581420
2020-05-16T01:50:00	0.2292	7.194	175.0	0.565911146	0.690847040	0.010930484	0.112767784	0.034756126
2020-05-16T01:55:00	0.2286	7.184	175.0	0.563748810	0.687742017	0.010853620	0.111974800	0.034511721
2020-05-16T02:00:00	0.2287	7.172	175.0	0.564282867	0.688508542	0.010872578	0.112170388	0.034572003
2020-05-16T02:05:00	0.2282	7.160	175.0	0.562456801	0.685888587	0.010807826	0.111502346	0.034366106
2020-05-16T02:10:00	0.2281	7.147	174.0	0.561979275	0.685203910	0.010790925	0.111327984	0.034312366
2020-05-16T02:15:00	0.2272	7.135	175.0	0.559139399	0.681135966	0.010690693	0.110293907	0.033993653
2020-05-16T02:20:00	0.2270	7.122	175.0	0.558323772	0.679968860	0.010661993	0.109997821	0.033902397
2020-05-16T02:25:00	0.2273	7.109	176.0	0.559533817	0.681700547	0.010704585	0.110437232	0.034037828
2020-05-16T02:30:00	0.2275	7.094	174.0	0.560068519	0.682466141	0.010723433	0.110631686	0.034097760
2020-05-16T02:35:00	0.2274	7.082	175.0	0.559590666	0.681781934	0.010706588	0.110457898	0.034044197
2020-05-16T02:40:00	0.2269	7.067	174.0	0.558099842	0.679648527	0.010654121	0.109916601	0.033877364
2020-05-16T02:45:00	0.2274	7.053	175.0	0.559647515	0.681863323	0.010708592	0.110478566	0.034050567
2020-05-16T02:50:00	0.2275	7.037	175.0	0.560182200	0.682628941	0.010727443	0.110673050	0.034110509
2020-05-16T02:55:00	0.2278	7.023	174.0	0.561054218	0.683878094	0.010758223	0.110990607	0.034208383
2020-05-16T03:00:00	0.2282	7.007	174.0	0.562600581	0.686094776	0.010812917	0.111554872	0.034382295
2020-05-16T03:05:00	0.2278	6.989	174.0	0.561111043	0.683959516	0.010760231	0.111011316	0.034214766
2020-05-16T03:10:00	0.2277	6.970	174.0	0.560633333	0.683275104	0.010743361	0.110837278	0.034161126
2020-05-16T03:15:00	0.2272	6.953	174.0	0.559142955	0.681141055	0.010690818	0.110295199	0.033994051
2020-05-16T03:20:00	0.2271	6.936	174.0	0.558664975	0.680457031	0.010673995	0.110121634	0.033940557
2020-05-16T03:25:00	0.2264	6.918	174.0	0.556498140	0.677358489	0.010597897	0.109336550	0.033698587
2020-05-16T03:30:00	0.2265	6.900	174.0	0.556695504	0.677640557	0.010604817	0.109407941	0.033720590
2020-05-16T03:35:00	0.2275	6.883	174.0	0.559931745	0.682270284	0.010718611	0.110581929	0.034082425
2020-05-16T03:40:00	0.2272	6.866	173.0	0.559116304	0.681102911	0.010689880	0.110285518	0.033991068
2020-05-16T03:45:00	0.2273	6.850	173.0	0.559313520	0.681385192	0.010696825	0.110357168	0.034013151
2020-05-16T03:50:00	0.2266	6.834	173.0	0.557147088	0.678286071	0.010620659	0.109571377	0.033770963
2020-05-16T03:55:00	0.2274	6.819	173.0	0.559707918	0.681949802	0.010710720	0.110500528	0.034057336
2020-05-16T04:00:00	0.2275	6.803	173.0	0.560242594	0.682715434	0.010729573	0.110695028	0.034117283
2020-05-16T04:05:00	0.2278	6.787	173.0	0.561060791	0.683887512	0.010758456	0.110993002	0.034209121
2020-05-16T04:10:00	0.2282	6.771	173.0	0.562553368	0.686027068	0.010811245	0.111537623	0.034376979
2020-05-16T04:15:00	0.2282	6.757	173.0	0.562359353	0.685748851	0.010804376	0.111466753	0.034355136
2020-05-16T04:20:00	0.2279	6.745	173.0	0.561490680	0.684503554	0.010773646	0.111149724	0.034257424
2020-05-16T04:25:00	0.2286	6.730	173.0	0.563657432	0.687610886	0.010850378	0.111941352	0.034501412
2020-05-16T04:30:00	0.2288	6.718	173.0	0.564474828	0.688784118	0.010879397	0.112240732	0.034593684
2020-05-16T04:35:00	0.2294	6.705	173.0	0.566639728	0.691894123	0.010956444	0.113035615	0.034838674
2020-05-16T04:40:00	0.2298	6.693	173.0	0.567793191	0.693552719	0.010997608	0.113460296	0.034969565
2020-05-16T04:45:00	0.2301	6.682	173.0	0.568946273	0.695211867	0.011038837	0.113885647	0.035100662
2020-05-16T04:50:00	0.2305	6.672	173.0	0.570098975	0.696871566	0.011080131	0.114311669	0.035231966
2020-05-16T04:55:00	0.2304	6.662	173.0	0.569905379	0.696592743	0.011073190	0.114240062	0.035209896
2020-05-16T05:00:00	0.2312	6.651	172.0	0.572403241	0.700192619	0.011162913	0.115165721	0.035495194
2020-05-16T05:05:00	0.2313	6.642	172.0	0.572882353	0.700883698	0.011180165	0.115343706	0.035550050
2020-05-16T05:10:00	0.2313	6.634	172.0	0.573025172	0.701089737	0.011185311	0.115396788	0.035566411
2020-05-16T05:15:00	0.2314	6.627	172.0	0.573167984	0.701295786	0.011190457	0.115449881	0.035582775
2020-05-16T05:20:00	0.2321	6.621	172.0	0.575663521	0.704899048	0.011280578	0.116379649	0.035869338
2020-05-16T05:25:00	0.2325	6.617	172.0	0.576814014	0.706561963	0.011322251	0.116809573	0.036001845
2020-05-16T05:30:00	0.2324	6.613	172.0	0.576620789	0.706282599	0.011315246	0.116737310	0.035979573
2020-05-16T05:35:00	0.2325	6.611	172.0	0.576763455	0.706488862	0.011320418	0.116790662	0.035996016
2020-05-16T05:40:00	0.2320	6.609	172.0	0.575226351	0.704267453	0.011264764	0.116216496	0.035819053
2020-05-16T05:45:00	0.2316	6.609	172.0	0.574024737	0.702532255	0.011221355	0.115768655	0.035681024
2020-05-16T05:50:00	0.2312	6.610	172.0	0.572486431	0.700312599	0.011165908	0.115196615	0.035504715
2020-05-16T05:55:00	0.2314	6.614	172.0	0.573301766	0.701488820	0.011195279	0.115499628	0.035598107
2020-05-16T06:00:00	0.2315	6.618	172.0	0.573444567	0.701694885	0.011200427	0.115552741	0.035614477
2020-05-16T06:05:00	0.2316	6.625	172.0	0.573923537	0.702386171	0.011217703	0.115730977	0.035669411
2020-05-16T06:10:00	0.2319	6.634	172.0	0.575074601	0.704048252	0.011259278	0.116159891	0.035801606
2020-05-16T06:15:00	0.2321	6.643	172.0	0.575553349	0.704739863	0.011276592	0.116338521	0.035856662
2020-05-16T06:20:00	0.2321	6.657	172.0	0.575696058	0.704946062	0.011281756	0.116391796	0.035873082
2020-05-16T06:25:00	0.2326	6.672	172.0	0.577182403	0.707094661	0.011335611	0.116947406	0.036044326
2020-05-16T06:30:00	0.2321	6.690	173.0	0.575645483	0.704872984	0.011279926	0.116372915	0.035867262
2020-05-16T06:35:00	0.2323	6.709	173.0	0.576124152	0.705564709	0.011297254	0.116551683	0.035922361
2020-05-16T06:40:00	0.2326	6.735	173.0	0.577274494	0.707227845	0.011338952	0.116981875	0.036054950
2020-05-16T06:45:00	0.2337	6.758	173.0	0.581109249	0.712779965	0.011478522	0.118421799	0.036498749
2020-05-16T06:50:00	0.2345	6.786	173.0	0.583599147	0.716391481	0.011569613	0.119361561	0.036788392
2020-05-16T06:55:00	0.2347	6.811	173.0	0.584411904	0.717571475	0.011599426	0.119669143	0.036883192
2020-05-16T07:00:00	0.2347	6.845	173.0	0.584219097	0.717291499	0.011592350	0.119596140	0.036860692
2020-05-16T07:05:00	0.2348	6.869	173.0	0.584696598	0.717984935	0.011609879	0.119776979	0.036916428
2020-05-16T07:10:00	0.2354	6.910	174.0	0.586514111	0.720626092	0.011676722	0.120466587	0.037128972
2020-05-16T07:15:00	0.2354	6.941	174.0	0.586656376	0.720832943	0.011681962	0.120520651	0.037145635
2020-05-16T07:20:00	0.2358	6.965	174.0	0.588138093	0.722988339	0.011736614	0.121084479	0.037319412
2020-05-16T07:25:00	0.2366	7.005	174.0	0.590623024	0.726607177	0.011828561	0.122033081	0.037611781
2020-05-16T07:30:00	0.2370	7.041	174.0	0.592103074	0.728765039	0.011883500	0.122599882	0.037786474
2020-05-16T07:35:00	0.2369	7.080	174.0	0.591576228	0.727996706	0.011863929	0.122397967	0.037724242
2020-05-16T07:40:00	0.2369	7.112	175.0	0.591718289	0.728203860	0.011869205	0.122452395	0.037741017
2020-05-16T07:45:00	0.2377	7.135	175.0	0.594200698	0.731826432	0.011961588	0.123405498	0.038034773
2020-05-16T07:50:00	0.2380	7.187	175.0	0.595345147	0.733498255	0.012004303	0.123846178	0.038170595
2020-05-16T07:55:00	0.2383	7.238	175.0	0.596489225	0.735170629	0.012047082	0.124287522	0.038306621
2020-05-16T08:00:00	0.2383	7.258	175.0	0.596297077	0.734889677	0.012039892	0.124213342	0.038283758
2020-05-16T08:05:00	0.2380	7.297	175.0	0.595436764	0.733632137	0.012007726	0.123881491	0.038181479
2020-05-16T08:10:00	0.2385	7.349	175.0	0.596914797	0.735792994	0.012063015	0.124451898	0.038357284
2020-05-16T08:15:00	0.2384	7.399	176.0	0.596722672	0.735512008	0.012055820	0.124377676	0.038334408
2020-05-16T08:20:00	0.2382	7.439	176.0	0.595862463	0.734254314	0.012023636	0.124045640	0.038232071
2020-05-16T08:25:00	0.2385	7.471	176.0	0.597006373	0.735926937	0.012066445	0.124487284	0.038368190
2020-05-16T08:30:00	0.2380	7.519	176.0	0.595478087	0.733692527	0.012009270	0.123897420	0.038186388
2020-05-16T08:35:00	0.2382	7.559	176.0	0.595954066	0.734388216	0.012027062	0.124080977	0.038242962
2020-05-16T08:40:00	0.2368	7.618	176.0	0.591416204	0.727763379	0.011857987	0.122336671	0.037705350
2020-05-16T08:45:00	0.2365	7.685	177.0	0.590220113	0.726020064	0.011813627	0.121879016	0.037564296
2020-05-16T08:50:00	0.2362	7.761	177.0	0.589358317	0.724764725	0.011781718	0.121549816	0.037462834
2020-05-16T08:55:00	0.2370	7.797	177.0	0.592176821	0.728872608	0.011886241	0.122628160	0.037795190
2020-05-16T09:00:00	0.2360	7.912	177.0	0.588638495	0.723716668	0.011755100	0.121275198	0.037378194
2020-05-16T09:05:00	0.2359	8.019	178.0	0.588445919	0.723436351	0.011747984	0.121201783	0.037355567
2020-05-16T09:10:00	0.2358	7.996	177.0	0.587918526	0.722668828	0.011728507	0.121000844	0.037293635
2020-05-16T09:15:00	0.2350	8.069	178.0	0.585381250	0.718979528	0.011635035	0.120036514	0.036996419
2020-05-16T09:20:00	0.2359	8.085	178.0	0.588202937	0.723082706	0.011739008	0.121109184	0.037327027
2020-05-16T09:25:00	0.2349	8.106	178.0	0.584995730	0.718419436	0.011620866	0.119890337	0.036951366
2020-05-16T09:30:00	0.2348	8.123	178.0	0.584802954	0.718139412	0.011613785	0.119817277	0.036928848
2020-05-16T09:35:00	0.2350	8.222	178.0	0.585280377	0.718832965	0.011631327	0.119998258	0.036984628
2020-05-16T09:40:00	0.2349	8.255	179.0	0.585087617	0.718552919	0.011624243	0.119925170	0.036962102
2020-05-16T09:45:00	0.2347	8.362	179.0	0.584224563	0.717299437	0.011592551	0.119598209	0.036861330
2020-05-16T09:50:00	0.2339	8.413	179.0	0.581684620	0.713614064	0.011499539	0.118638624	0.036565576
2020-05-16T09:55:00	0.2327	8.464	180.0	0.577464146	0.707502144	0.011345834	0.117052876	0.036076833
2020-05-16T10:00:00	0.2325	8.531	180.0	0.576935103	0.706737047	0.011326641	0.116854869	0.036015805
2020-05-16T10:05:00	0.2329	8.596	180.0	0.578411911	0.708873372	0.011380258	0.117408028	0.036186294
2020-05-16T10:10:00	0.2326	8.647	180.0	0.577202373	0.707123542	0.011336335	0.116954880	0.036046630
2020-05-16T10:15:00	0.2328	8.725	181.0	0.578007599	0.708288322	0.011365567	0.117256455	0.036139578
2020-05-16T10:20:00	0.2318	8.744	181.0	0.574445954	0.703140380	0.011236562	0.115925542	0.035729378
2020-05-16T10:25:00	0.2321	8.789	181.0	0.575587828	0.704789680	0.011277840	0.116351392	0.035860629
2020-05-16T10:30:00	0.2318	8.840	182.0	0.574713414	0.703526597	0.011246224	0.116025217	0.035760099
2020-05-16T10:35:00	0.2310	8.888	182.0	0.571821202	0.699353333	0.011141974	0.114949688	0.035428610
2020-05-16T10:40:00	0.2312	8.942	182.0	0.572627665	0.700516308	0.011170993	0.115249074	0.035520884
2020-05-16T10:45:00	0.2309	8.986	182.0	0.571416129	0.698769394	0.011127412	0.114799461	0.035382309
2020-05-16T10:50:00	0.2317	9.052	182.0	0.574240034	0.702843069	0.011229127	0.115848831	0.035705735
2020-05-16T10:55:00	0.2307	9.115	183.0	0.571011010	0.698185522	0.011112859	0.114649317	0.035336033
2020-05-16T11:00:00	0.2311	9.180	183.0	0.572154004	0.699833190	0.011153944	0.115073187	0.035466674
2020-05-16T11:05:00	0.2306	9.249	183.0	0.570605843	0.697601719	0.011098314	0.114499256	0.035289783
2020-05-16T11:10:00	0.2308	9.325	184.0	0.571076170	0.698279425	0.011115199	0.114673460	0.035343474
2020-05-16T11:15:00	0.2300	9.402	184.0	0.568517644	0.694594993	0.011023502	0.113727439	0.035051901
2020-05-16T11:20:00	0.2292	9.466	184.0	0.565957245	0.690913278	0.010932125	0.112784720	0.034761346
2020-05-16T11:25:00	0.2293	9.535	185.0	0.566091302	0.691105912	0.010936900	0.112833980	0.034776529
2020-05-16T11:30:00	0.2288	9.613	185.0	0.564540454	0.688878337	0.010881728	0.112264786	0.034601097
2020-05-16T11:35:00	0.2289	9.689	185.0	0.564674566	0.689070891	0.010886494	0.112313950	0.034616250
2020-05-16T11:40:00	0.2293	9.767	186.0	0.566156555	0.691199681	0.010939224	0.112857961	0.034783920
2020-05-16T11:45:00	0.2295	9.837	186.0	0.566964325	0.692360759	0.010968020	0.113155043	0.034875483
2020-05-16T11:50:00	0.2287	9.918	186.0	0.564065695	0.688196810	0.010864867	0.112090832	0.034547483
2020-05-16T11:55:00	0.2294	10.004	187.0	0.566558689	0.691777636	0.010953555	0.113005808	0.034829488
2020-05-16T12:00:00	0.2289	10.105	187.0	0.564671016	0.689065794	0.010886368	0.112312648	0.034615849
2020-05-16T12:05:00	0.2288	10.202	187.0	0.564468070	0.688774417	0.010879157	0.112238255	0.034592920
2020-05-16T12:10:00	0.2285	10.288	187.0	0.563590872	0.687515376	0.010848017	0.111916992	0.034493904
2020-05-16T12:15:00	0.2294	10.370	188.0	0.566421101	0.691579877	0.010948651	0.112955212	0.034813893
2020-05-16T12:20:00	0.2280	10.454	188.0	0.561835814	0.684998251	0.010785850	0.111275628	0.034296229
2020-05-16T12:25:00	0.2286	10.526	189.0	0.563656171	0.687609078	0.010850334	0.111940891	0.034501270
2020-05-16T12:30:00	0.2274	10.601	188.0	0.559742363	0.681999119	0.010711934	0.110513053	0.034061196
2020-05-16T12:35:00	0.2278	10.671	190.0	0.561226448	0.684124884	0.010764308	0.111053381	0.034227731
2020-05-16T12:40:00	0.2277	10.739	190.0	0.560685884	0.683350385	0.010745216	0.110856417	0.034167024
2020-05-16T12:45:00	0.2273	10.806	190.0	0.559470199	0.681609474	0.010702344	0.110414108	0.034030700
2020-05-16T12:50:00	0.2275	10.871	190.0	0.559942028	0.682285009	0.010718973	0.110585670	0.034083577
2020-05-16T12:55:00	0.2266	10.925	191.0	0.557037555	0.678129484	0.010616815	0.109531724	0.033758741
2020-05-16T13:00:00	0.2273	10.991	191.0	0.559535575	0.681703065	0.010704647	0.110437872	0.034038025
2020-05-16T13:05:00	0.2263	11.035	191.0	0.555955043	0.676582474	0.010578867	0.109140224	0.033638077
2020-05-16T13:10:00	0.2263	11.077	191.0	0.556089486	0.676774553	0.010583576	0.109188807	0.033653051
2020-05-16T13:15:00	0.2261	11.114	191.0	0.555210176	0.675518550	0.010552796	0.108871248	0.033555176
2020-05-16T13:20:00	0.2252	11.148	192.0	0.552301750	0.671368692	0.010451309	0.107824224	0.033232473
2020-05-16T13:25:00	0.2251	11.171	192.0	0.552098083	0.671078352	0.010444220	0.107751097	0.033209935
2020-05-16T13:30:00	0.2255	11.191	192.0	0.553247290	0.672717063	0.010484248	0.108164053	0.033337212
2020-05-16T13:35:00	0.2243	11.201	192.0	0.549321754	0.667123920	0.010347840	0.106756753	0.032903468
2020-05-16T13:40:00	0.2241	11.198	192.0	0.548440731	0.665870365	0.010317349	0.106442190	0.032806517
2020-05-16T13:45:00	0.2245	11.186	192.0	0.549929643	0.667989219	0.010368904	0.106974070	0.032970447
2020-05-16T13:50:00	0.2239	11.180	192.0	0.548032931	0.665290348	0.010303252	0.106296747	0.032761690
2020-05-16T13:55:00	0.2252	11.167	192.0	0.552229111	0.671265137	0.010448780	0.107798140	0.033224434
2020-05-16T14:00:00	0.2243	11.155	192.0	0.549318188	0.667118845	0.010347716	0.106755479	0.032903075
2020-05-16T14:05:00	0.2244	11.141	192.0	0.549452888	0.667310556	0.010352382	0.106803614	0.032917911
2020-05-16T14:10:00	0.2242	11.137	191.0	0.548910492	0.666538681	0.010333601	0.106609856	0.032858193
2020-05-16T14:15:00	0.2242	11.129	192.0	0.549045207	0.666730370	0.010338264	0.106657963	0.032873020
2020-05-16T14:20:00	0.2242	11.116	192.0	0.548841349	0.666440302	0.010331208	0.106585170	0.032850584
2020-05-16T14:25:00	0.2241	11.109	191.0	0.548637479	0.666150251	0.010324154	0.106512397	0.032828155
2020-05-16T14:30:00	0.2245	11.099	192.0	0.549787831	0.667787330	0.010363988	0.106923353	0.032954816
2020-05-16T14:35:00	0.2244	11.089	191.0	0.549584017	0.667497200	0.010356925	0.106850483	0.032932357
2020-05-16T14:40:00	0.2235	11.073	191.0	0.546670874	0.663354069	0.010256236	0.105811694	0.032612192
2020-05-16T14:45:00	0.2238	11.061	191.0	0.547483178	0.664508644	0.010284262	0.106100834	0.032701308
2020-05-16T14:50:00	0.2246	11.045	191.0	0.550326525	0.668554324	0.010382668	0.107116073	0.033014214
2020-05-16T14:55:00	0.2245	11.023	191.0	0.550122742	0.668264149	0.010375600	0.107043148	0.032991738
2020-05-16T15:00:00	0.2247	10.999	191.0	0.550595841	0.668937865	0.010392014	0.107212488	0.033043930
2020-05-16T15:05:00	0.2246	10.978	191.0	0.550392074	0.668647668	0.010384942	0.107139536	0.033021445
2020-05-16T15:10:00	0.2257	10.955	191.0	0.553909290	0.673661535	0.010507341	0.108402300	0.033410642
2020-05-16T15:15:00	0.2257	10.933	191.0	0.554043812	0.673853501	0.010512037	0.108450745	0.033425573
2020-05-16T15:20:00	0.2259	10.916	191.0	0.554854393	0.675010532	0.010540354	0.108742892	0.033515616
2020-05-16T15:25:00	0.2264	10.892	191.0	0.556340562	0.677133305	0.010592374	0.109279568	0.033681024
2020-05-16T15:30:00	0.2256	10.868	191.0	0.553771202	0.673464496	0.010502522	0.108352581	0.033395318
2020-05-16T15:35:00	0.2266	10.843	191.0	0.556947225	0.678000356	0.010613646	0.109499028	0.033748664
2020-05-16T15:40:00	0.2269	10.813	190.0	0.558094831	0.679641360	0.010653945	0.109914784	0.033876804
2020-05-16T15:45:00	0.2269	10.787	190.0	0.558229191	0.679833557	0.010658668	0.109963513	0.033891823
2020-05-16T15:50:00	0.2274	10.762	189.0	0.559713920	0.681958396	0.010710932	0.110502711	0.034058009
2020-05-16T15:55:00	0.2273	10.736	189.0	0.559510687	0.681667435	0.010703770	0.110428825	0.034035236
2020-05-16T16:00:00	0.2275	10.713	189.0	0.559982511	0.682342977	0.010720400	0.110600396	0.034088116
2020-05-16T16:05:00	0.2275	10.688	190.0	0.560078076	0.682479826	0.010723770	0.110635163	0.034098832
2020-05-16T16:10:00	0.2269	10.658	189.0	0.558148148	0.679717625	0.010655819	0.109934119	0.033882763
2020-05-16T16:15:00	0.2273	10.627	189.0	0.559256628	0.681303757	0.010694821	0.110336496	0.034006780
2020-05-16T16:20:00	0.2271	10.599	190.0	0.558677021	0.680474267	0.010674418	0.110126007	0.033941905
2020-05-16T16:25:00	0.2262	10.570	189.0	0.555732721	0.676264875	0.010571082	0.109059907	0.033613322
2020-05-16T16:30:00	0.2265	10.541	190.0	0.556841970	0.677849903	0.010609954	0.109460936	0.033736924
2020-05-16T16:35:00	0.2262	10.516	189.0	0.555586170	0.676055541	0.010565952	0.109006980	0.033597010
2020-05-16T16:40:00	0.2254	10.492	189.0	0.552977452	0.672332190	0.010474842	0.108067018	0.033307304
2020-05-16T16:45:00	0.2258	10.464	189.0	0.554425637	0.674398454	0.010525371	0.108588312	0.033467972
2020-05-16T16:50:00	0.2253	10.434	189.0	0.552830784	0.672123022	0.010469732	0.108014294	0.033291054
2020-05-16T16:55:00	0.2251	10.407	189.0	0.551911837	0.670812877	0.010437741	0.107684247	0.033189331
2020-05-16T17:00:00	0.2245	10.383	188.0	0.549977373	0.668057172	0.010370559	0.106991142	0.032975709
2020-05-16T17:05:00	0.2248	10.355	188.0	0.551088459	0.669639574	0.010409119	0.107388959	0.033098320
2020-05-16T17:10:00	0.2252	10.327	188.0	0.552199190	0.671222482	0.010447739	0.107787397	0.033221122
2020-05-16T17:15:00	0.2251	10.301	188.0	0.551956704	0.670876828	0.010439302	0.107700349	0.033194294
2020-05-16T17:20:00	0.2245	10.275	188.0	0.550022265	0.668121087	0.010372115	0.107007201	0.032980659
2020-05-16T17:25:00	0.2243	10.251	188.0	0.549441117	0.667293802	0.010351974	0.106799407	0.032916614
2020-05-16T17:30:00	0.2238	10.228	188.0	0.547505275	0.664540060	0.010285025	0.106108706	0.032703734
2020-05-16T17:35:00	0.2237	10.204	188.0	0.547262461	0.664194873	0.010276643	0.106022231	0.032677081
2020-05-16T17:40:00	0.2233	10.182	188.0	0.546003194	0.662405459	0.010233228	0.105574331	0.032539034
2020-05-16T17:45:00	0.2240	10.160	188.0	0.548131664	0.665430764	0.010306664	0.106331951	0.032772540
2020-05-16T17:50:00	0.2240	10.135	187.0	0.548227555	0.665567146	0.010309978	0.106366147	0.032783080
2020-05-16T17:55:00	0.2236	10.109	187.0	0.546968637	0.663777234	0.010266505	0.105917637	0.032644844
2020-05-16T18:00:00	0.2241	10.082	187.0	0.548757939	0.666321628	0.010328322	0.106555392	0.032841407
2020-05-16T18:05:00	0.2242	10.057	187.0	0.548853813	0.666458035	0.010331639	0.106589619	0.032851956
2020-05-16T18:10:00	0.2246	10.031	187.0	0.550303717	0.668521845	0.010381877	0.107107910	0.033011698
2020-05-16T18:15:00	0.2240	10.005	187.0	0.548368357	0.665767417	0.010314846	0.106416370	0.032798559
2020-05-16T18:20:00	0.2241	9.978	187.0	0.548464241	0.665903809	0.010318162	0.106450578	0.032809102
2020-05-16T18:25:00	0.2243	9.952	187.0	0.549237282	0.667003702	0.010344914	0.106726572	0.032894166
2020-05-16T18:30:00	0.2249	9.926	186.0	0.551363770	0.670031827	0.010418685	0.107487648	0.033128737
2020-05-16T18:35:00	0.2254	9.897	186.0	0.553150809	0.672579445	0.010480884	0.108129353	0.033326517
2020-05-16T18:40:00	0.2256	9.869	186.0	0.553584701	0.673198401	0.010496015	0.108285451	0.033374628
2020-05-16T18:45:00	0.2272	9.839	186.0	0.559086059	0.681059624	0.010688815	0.110274532	0.033987682
2020-05-16T18:50:00	0.2273	9.809	186.0	0.559519212	0.681679640	0.010704071	0.110431924	0.034036191
2020-05-16T18:55:00	0.2279	9.780	186.0	0.561302070	0.684233253	0.010766980	0.111080950	0.034236228
2020-05-16T19:00:00	0.2291	9.752	186.0	0.565443635	0.690175387	0.010913842	0.112596094	0.034703210
2020-05-16T19:05:00	0.2300	9.722	186.0	0.568570420	0.694670939	0.011025390	0.113746913	0.035057903
2020-05-16T19:10:00	0.2310	9.691	185.0	0.572030769	0.699655491	0.011149511	0.115027448	0.035452577
2020-05-16T19:15:00	0.2319	9.662	185.0	0.574815619	0.703674199	0.011249917	0.116063317	0.035771842
2020-05-16T19:20:00	0.2318	9.635	185.0	0.574574700	0.703326284	0.011241212	0.115973516	0.035744164
2020-05-16T19:25:00	0.2325	9.607	185.0	0.577021685	0.706862245	0.011329781	0.116887262	0.036025789
2020-05-16T19:30:00	0.2324	9.576	185.0	0.576445016	0.706028496	0.011308877	0.116671595	0.035959319
2020-05-16T19:35:00	0.2331	9.546	185.0	0.578890697	0.709566364	0.011397669	0.117587650	0.036241656
2020-05-16T19:40:00	0.2331	9.517	185.0	0.578985747	0.709703961	0.011401127	0.117623326	0.036252651
2020-05-16T19:45:00	0.2334	9.487	184.0	0.580087643	0.711299647	0.011441254	0.118037313	0.036380246
2020-05-16T19:50:00	0.2328	9.459	185.0	0.577832961	0.708035658	0.011359224	0.117191015	0.036119409
2020-05-16T19:55:00	0.2327	9.432	185.0	0.577592249	0.707687440	0.011350484	0.117100847	0.036091618
2020-05-16T20:00:00	0.2325	9.405	185.0	0.577015674	0.706853554	0.011329563	0.116885014	0.036025096
2020-05-16T20:05:00	0.2327	9.379	184.0	0.577446612	0.707476782	0.011345197	0.117046311	0.036074810
2020-05-16T20:10:00	0.2321	9.353	184.0	0.575526252	0.704700714	0.011275612	0.116328407	0.035853545
2020-05-16T20:15:00	0.2319	9.328	184.0	0.574949338	0.703867324	0.011254749	0.116113175	0.035787208
2020-05-16T20:20:00	0.2319	9.302	184.0	0.575044494	0.704004765	0.011258189	0.116148662	0.035798146
2020-05-16T20:25:00	0.2317	9.277	184.0	0.574131378	0.702686203	0.011225204	0.115808364	0.035693263
2020-05-16T20:30:00	0.2316	9.252	184.0	0.573890412	0.702338356	0.011216508	0.115718646	0.035665611
2020-05-16T20:35:00	0.2313	9.224	184.0	0.572976995	0.701020232	0.011183575	0.115378881	0.035560892
2020-05-16T20:40:00	0.2314	9.196	183.0	0.573072205	0.701157595	0.011187005	0.115414272	0.035571800
2020-05-16T20:45:00	0.2315	9.169	183.0	0.573503628	0.701780116	0.011202557	0.115574711	0.035621248
2020-05-16T20:50:00	0.2305	9.141	183.0	0.570235314	0.697067943	0.011085020	0.114362111	0.035247513
2020-05-16T20:55:00	0.2299	9.115	183.0	0.568310995	0.694297641	0.011016113	0.113651204	0.035028405
2020-05-16T21:00:00	0.2303	9.086	183.0	0.569416252	0.695888426	0.011055664	0.114059246	0.035154167
2020-05-16T21:05:00	0.2300	9.056	183.0	0.568501667	0.694572001	0.011022931	0.113721544	0.035050084
2020-05-16T21:10:00	0.2302	9.025	183.0	0.569270275	0.695678264	0.011050436	0.114005311	0.035137544
2020-05-16T21:15:00	0.2305	8.997	183.0	0.570038714	0.696784772	0.011077970	0.114289377	0.035225096
2020-05-16T21:20:00	0.2310	8.967	183.0	0.571816212	0.699346138	0.011141794	0.114947837	0.035428040
2020-05-16T21:25:00	0.2319	8.939	183.0	0.574937310	0.703849952	0.011254315	0.116108690	0.035785826
2020-05-16T21:30:00	0.2318	8.912	183.0	0.574696399	0.703502025	0.011245609	0.116018874	0.035758144
2020-05-16T21:35:00	0.2327	8.884	183.0	0.577479132	0.707523820	0.011346378	0.117058487	0.036078563
2020-05-16T21:40:00	0.2336	8.853	182.0	0.580595196	0.712034989	0.011459762	0.118228253	0.036439096
2020-05-16T21:45:00	0.2332	8.825	182.0	0.579347901	0.710228296	0.011414308	0.117759307	0.036294562
2020-05-16T21:50:00	0.2337	8.796	182.0	0.581120686	0.712796542	0.011478940	0.118426107	0.036500076
2020-05-16T21:55:00	0.2332	8.767	182.0	0.579202337	0.710017531	0.011409009	0.117704641	0.036277714
2020-05-16T22:00:00	0.2332	8.738	182.0	0.579297378	0.710155141	0.011412468	0.117740332	0.036288714
2020-05-16T22:05:00	0.2326	8.710	182.0	0.577431587	0.707455051	0.011344652	0.117040685	0.036073076
2020-05-16T22:10:00	0.2328	8.683	181.0	0.577916022	0.708155826	0.011362240	0.117222137	0.036129001
2020-05-16T22:15:00	0.2328	8.657	181.0	0.578064644	0.708370859	0.011367639	0.117277834	0.036146167
2020-05-16T22:20:00	0.2324	8.630	181.0	0.576534121	0.706157306	0.011312105	0.116704906	0.035969585
2020-05-16T22:25:00	0.2325	8.604	182.0	0.577018680	0.706857899	0.011329672	0.116886138	0.036025443
2020-05-16T22:30:00	0.2317	8.579	181.0	0.574143409	0.702703571	0.011225639	0.115812844	0.035694643
2020-05-16T22:35:00	0.2313	8.554	181.0	0.572947441	0.700977596	0.011182510	0.115367896	0.035557506
2020-05-16T22:40:00	0.2305	8.528	181.0	0.570068826	0.696828142	0.011079050	0.114300515	0.035228529
2020-05-16T22:45:00	0.2295	8.504	181.0	0.566851017	0.692197859	0.010963979	0.113113346	0.034862632
2020-05-16T22:50:00	0.2289	8.479	180.0	0.564978580	0.689507441	0.010897300	0.112425439	0.034650612
2020-05-16T22:55:00	0.2289	8.454	180.0	0.564790731	0.689237690	0.010890622	0.112356544	0.034629378
2020-05-16T23:00:00	0.2286	8.432	180.0	0.563928696	0.688000179	0.010860004	0.112040660	0.034532020
2020-05-16T23:05:00	0.2288	8.411	180.0	0.564415003	0.688698232	0.010877272	0.112218807	0.034586926
2020-05-16T23:10:00	0.2279	8.390	180.0	0.561529348	0.684558975	0.010775013	0.111163826	0.034261771
2020-05-16T23:15:00	0.2275	8.369	180.0	0.559991570	0.682355950	0.010720720	0.110603691	0.034089132
2020-05-16T23:20:00	0.2271	8.349	180.0	0.558790747	0.680637002	0.010678420	0.110167291	0.033954629
2020-05-16T23:25:00	0.2267	8.330	180.0	0.557251760	0.678435716	0.010624332	0.109609277	0.033782644
2020-05-16T23:30:00	0.2262	8.309	179.0	0.555712092	0.676235407	0.010570360	0.109052456	0.033611026
2020-05-16T23:35:00	0.2263	8.288	180.0	0.556199547	0.676931808	0.010587432	0.109228588	0.033665312
2020-05-16T23:40:00	0.2260	8.269	180.0	0.554997415	0.675214739	0.010545355	0.108794481	0.033531516
2020-05-16T23:45:00	0.2257	8.248	179.0	0.554132954	0.673980717	0.010515149	0.108482854	0.033435469
2020-05-16T23:50:00	0.2249	8.228	179.0	0.551238764	0.669853715	0.010414341	0.107442832	0.033114924
2020-05-16T23:55:00	0.2240	8.208	179.0	0.548342160	0.665730156	0.010313941	0.106407025	0.032795679
2020-05-17T00:00:00	0.2225	8.189	179.0	0.543069909	0.658242310	0.010132461	0.104534729	0.032218619
2020-05-17T00:05:00	0.2210	8.172	179.0	0.538129271	0.651246075	0.009963873	0.102795438	0.031682552
2020-05-17T00:10:00	0.2209	8.154	179.0	0.537600297	0.650498198	0.009945907	0.102610092	0.031625427
2020-05-17T00:15:00	0.2204	8.135	179.0	0.536051879	0.648310320	0.009893413	0.102068515	0.031458508
2020-05-17T00:20:00	0.2200	8.118	179.0	0.534842741	0.646603196	0.009852518	0.101646609	0.031328472
2020-05-17T00:25:00	0.2190	8.100	178.0	0.531251829	0.641540386	0.009731571	0.100398819	0.030943891
2020-05-17T00:30:00	0.2190	8.082	178.0	0.531402458	0.641752546	0.009736629	0.100451005	0.030959975
2020-05-17T00:35:00	0.2183	8.063	178.0	0.528829761	0.638131454	0.009650416	0.099561567	0.030685842
2020-05-17T00:40:00	0.2182	8.045	179.0	0.528639944	0.637864499	0.009644071	0.099496101	0.030665665
2020-05-17T00:45:00	0.2179	8.028	178.0	0.527428205	0.636161019	0.009603612	0.099078692	0.030537015
2020-05-17T00:50:00	0.2178	8.009	179.0	0.527238311	0.635894171	0.009597279	0.099013360	0.030516879
2020-05-17T00:55:00	0.2174	7.992	178.0	0.525685235	0.633712820	0.009545565	0.098479838	0.030352442
2020-05-17T01:00:00	0.2177	7.973	178.0	0.526858492	0.635360521	0.009584619	0.098882748	0.030476623
2020-05-17T01:05:00	0.2177	7.957	179.0	0.527009313	0.635572413	0.009589645	0.098934602	0.030492605
2020-05-17T01:10:00	0.2181	7.945	178.0	0.528182120	0.637220742	0.009628774	0.099338290	0.030617026
2020-05-17T01:15:00	0.2175	7.932	179.0	0.526288685	0.634560155	0.009565642	0.098686966	0.030416282
2020-05-17T01:20:00	0.2163	7.917	178.0	0.522006462	0.628553668	0.009423631	0.097221861	0.029964722
2020-05-17T01:25:00	0.2162	7.903	178.0	0.521816269	0.628287238	0.009417348	0.097157044	0.029944745
2020-05-17T01:30:00	0.2172	7.890	178.0	0.525037002	0.632802934	0.009524022	0.098257582	0.030283941
2020-05-17T01:35:00	0.2173	7.881	178.0	0.525528796	0.633493205	0.009540364	0.098426177	0.030335904
2020-05-17T01:40:00	0.2167	7.870	177.0	0.523292821	0.630356423	0.009466178	0.097660815	0.030100012
2020-05-17T01:45:00	0.2163	7.860	178.0	0.522079197	0.628655567	0.009426034	0.097246655	0.029972363
2020-05-17T01:50:00	0.2161	7.851	177.0	0.521547754	0.627911142	0.009408482	0.097065573	0.029916552
2020-05-17T01:55:00	0.2145	7.840	178.0	0.515892558	0.620003740	0.009222722	0.095149124	0.029325884
2020-05-17T02:00:00	0.2140	7.827	177.0	0.514334345	0.617829512	0.009171865	0.094624438	0.029164171
2020-05-17T02:05:00	0.2141	7.816	178.0	0.514485716	0.618040640	0.009176799	0.094675344	0.029179861
2020-05-17T02:10:00	0.2136	7.805	178.0	0.512926863	0.615867294	0.009126048	0.094151754	0.029018485
2020-05-17T02:15:00	0.2129	7.792	177.0	0.510340293	0.612265442	0.009042148	0.093286178	0.028751706
2020-05-17T02:20:00	0.2118	7.780	178.0	0.506723673	0.607238282	0.008925487	0.092082602	0.028380752
2020-05-17T02:25:00	0.2119	7.767	177.0	0.506875382	0.607448947	0.008930365	0.092132933	0.028396265
2020-05-17T02:30:00	0.2111	7.754	177.0	0.504284231	0.603853375	0.008847225	0.091275188	0.028131899
2020-05-17T02:35:00	0.2118	7.741	177.0	0.506836057	0.607394339	0.008929101	0.092119885	0.028392243
2020-05-17T02:40:00	0.2123	7.729	177.0	0.508358379	0.609509242	0.008978124	0.092625649	0.028548125
2020-05-17T02:45:00	0.2129	7.718	177.0	0.510564821	0.612577888	0.009049416	0.093361156	0.028774815
2020-05-17T02:50:00	0.2125	7.709	177.0	0.509004182	0.610406998	0.008998961	0.092840624	0.028614382
2020-05-17T02:55:00	0.2131	7.700	176.0	0.511210209	0.613476214	0.009070322	0.093576842	0.028841292
2020-05-17T03:00:00	0.2130	7.692	177.0	0.510677079	0.612734118	0.009053051	0.093398654	0.028786372
2020-05-17T03:05:00	0.2125	7.683	177.0	0.509116492	0.610563158	0.009002587	0.092878035	0.028625912
2020-05-17T03:10:00	0.2131	7.675	177.0	0.511322446	0.613632474	0.009073960	0.093614377	0.028852860
2020-05-17T03:15:00	0.2130	7.667	176.0	0.510789334	0.612890354	0.009056686	0.093436159	0.028797932
2020-05-17T03:20:00	0.2128	7.659	177.0	0.510256140	0.612148348	0.009039425	0.093258084	0.028743047
2020-05-17T03:25:00	0.2125	7.649	177.0	0.509037895	0.610453872	0.009000050	0.092851853	0.028617843
2020-05-17T03:30:00	0.2118	7.638	176.0	0.506791143	0.607331970	0.008927656	0.092104984	0.028387651
2020-05-17T03:35:00	0.2116	7.629	177.0	0.505914511	0.606114979	0.008899489	0.091814390	0.028298087
2020-05-17T03:40:00	0.2125	7.620	176.0	0.509150204	0.610610034	0.009003676	0.092889266	0.028629374
2020-05-17T03:45:00	0.2120	7.612	177.0	0.507246240	0.607964006	0.008942297	0.092256025	0.028434203
2020-05-17T03:50:00	0.2123	7.603	176.0	0.508425816	0.609602974	0.008980299	0.092648086	0.028555040
2020-05-17T03:55:00	0.2124	7.596	176.0	0.508919996	0.610289948	0.008996243	0.092812586	0.028605740
2020-05-17T04:00:00	0.2123	7.588	176.0	0.508386510	0.609548342	0.008979031	0.092635008	0.028551009
2020-05-17T04:05:00	0.2129	7.581	176.0	0.510450581	0.612418910	0.009045718	0.093323003	0.028763056
2020-05-17T04:10:00	0.2132	7.578	176.0	0.511486744	0.613861232	0.009079288	0.093669336	0.028869799
2020-05-17T04:15:00	0.2133	7.574	176.0	0.511838186	0.614350631	0.009090688	0.093786949	0.028906049
2020-05-17T04:20:00	0.2130	7.571	177.0	0.510820509	0.612933744	0.009057696	0.093446576	0.028801142
2020-05-17T04:25:00	0.2130	7.571	176.0	0.510829699	0.612946535	0.009057993	0.093449647	0.028802089
2020-05-17T04:30:00	0.2131	7.576	176.0	0.511181209	0.613435841	0.009069382	0.093567145	0.028838303
2020-05-17T04:35:00	0.2133	7.575	176.0	0.511874933	0.614401808	0.009091880	0.093799251	0.028909840
2020-05-17T04:40:00	0.2130	7.574	176.0	0.510857267	0.612984907	0.009058886	0.093458860	0.028804928
2020-05-17T04:45:00	0.2128	7.573	176.0	0.510181718	0.612044800	0.009037017	0.093233242	0.028735391
2020-05-17T04:50:00	0.2133	7.572	176.0	0.511902493	0.614440192	0.009092775	0.093808478	0.028912684
2020-05-17T04:55:00	0.2127	7.572	176.0	0.509857682	0.611593995	0.009026537	0.093125118	0.028702066
2020-05-17T05:00:00	0.2128	7.574	176.0	0.510209292	0.612083165	0.009037909	0.093242446	0.028738227
2020-05-17T05:05:00	0.2133	7.572	176.0	0.511930053	0.614478576	0.009093669	0.093817706	0.028915528
2020-05-17T05:10:00	0.2136	7.572	176.0	0.512965769	0.615921512	0.009127313	0.094164804	0.029022507
2020-05-17T05:15:00	0.2139	7.574	176.0	0.514001171	0.617364879	0.009161009	0.094512439	0.029129652
2020-05-17T05:20:00	0.2141	7.580	176.0	0.514694326	0.618331632	0.009183601	0.094745523	0.029201490
2020-05-17T05:25:00	0.2142	7.588	176.0	0.515045440	0.618821483	0.009195056	0.094863700	0.029237914
2020-05-17T05:30:00	0.2147	7.600	176.0	0.516763775	0.621220235	0.009251219	0.095443117	0.029416496
2020-05-17T05:35:00	0.2154	7.611	176.0	0.519164334	0.624575355	0.009329966	0.096255537	0.029666891
2020-05-17T05:40:00	0.2156	7.622	176.0	0.519856446	0.625543547	0.009352732	0.096490409	0.029739281
2020-05-17T05:45:00	0.2155	7.638	177.0	0.519524157	0.625078661	0.009341798	0.096377609	0.029704515
2020-05-17T05:50:00	0.2153	7.657	176.0	0.518508758	0.623658632	0.009308427	0.096033328	0.029598404
2020-05-17T05:55:00	0.2155	7.668	176.0	0.519201002	0.624626641	0.009331171	0.096267974	0.029670724
2020-05-17T06:00:00	0.2163	7.677	177.0	0.521941107	0.628462114	0.009421472	0.097199586	0.029957856
2020-05-17T06:05:00	0.2175	7.691	176.0	0.526042600	0.634214579	0.009557452	0.098602474	0.030390240
2020-05-17T06:10:00	0.2177	7.708	177.0	0.526733330	0.635184693	0.009580449	0.098839727	0.030463364
2020-05-17T06:15:00	0.2164	7.720	176.0	0.522309799	0.628978655	0.009433655	0.097325282	0.029996597
2020-05-17T06:20:00	0.2170	7.735	177.0	0.524365513	0.631860764	0.009501732	0.098027618	0.030213064
2020-05-17T06:25:00	0.2169	7.754	176.0	0.524033659	0.631395273	0.009490726	0.097914068	0.030178067
2020-05-17T06:30:00	0.2163	7.773	176.0	0.521996066	0.628539104	0.009423287	0.097218318	0.029963630
2020-05-17T06:35:00	0.2162	7.791	176.0	0.521663983	0.628073931	0.009412319	0.097105162	0.029928754
2020-05-17T06:40:00	0.2163	7.809	177.0	0.522014385	0.628564768	0.009423892	0.097224562	0.029965554
2020-05-17T06:45:00	0.2173	7.831	177.0	0.525434088	0.633360259	0.009537216	0.098393698	0.030325893
2020-05-17T06:50:00	0.2166	7.854	177.0	0.523056219	0.630024740	0.009458345	0.097580003	0.030075105
2020-05-17T06:55:00	0.2169	7.877	177.0	0.524088584	0.631472310	0.009492547	0.097932857	0.030183858
2020-05-17T07:00:00	0.2164	7.906	177.0	0.522392227	0.629094154	0.009436380	0.097353394	0.030005262
2020-05-17T07:05:00	0.2162	7.945	178.0	0.521718946	0.628150915	0.009414134	0.097123885	0.029934525
2020-05-17T07:10:00	0.2160	7.979	178.0	0.521045533	0.627207860	0.009391910	0.096894603	0.029863858
2020-05-17T07:15:00	0.2165	8.016	178.0	0.522760870	0.629610763	0.009448572	0.097479173	0.030044028
2020-05-17T07:20:00	0.2168	8.052	178.0	0.523793323	0.631058210	0.009482759	0.097831874	0.030152734
2020-05-17T07:25:00	0.2165	8.086	178.0	0.522779185	0.629636432	0.009449178	0.097485424	0.030045955
2020-05-17T07:30:00	0.2171	8.115	178.0	0.524834619	0.632518931	0.009517301	0.098188243	0.030262570
2020-05-17T07:35:00	0.2168	8.142	178.0	0.523820788	0.631096726	0.009483669	0.097841265	0.030155628
2020-05-17T07:40:00	0.2174	8.204	179.0	0.525875600	0.633980090	0.009551896	0.098545155	0.030372574
2020-05-17T07:45:00	0.2172	8.229	179.0	0.525203001	0.633035904	0.009529537	0.098314473	0.030301475
2020-05-17T07:50:00	0.2176	8.264	179.0	0.526575511	0.634963005	0.009575192	0.098785493	0.030446648
2020-05-17T07:55:00	0.2179	8.308	179.0	0.527606821	0.636412045	0.009609570	0.099140165	0.030555962
2020-05-17T08:00:00	0.2185	8.355	179.0	0.529659376	0.639298556	0.009678175	0.099847948	0.030774107
2020-05-17T08:05:00	0.2178	8.353	179.0	0.527284425	0.635958970	0.009598817	0.099029223	0.030521768
2020-05-17T08:10:00	0.2180	8.428	179.0	0.527974906	0.636929431	0.009621855	0.099266905	0.030595024
2020-05-17T08:15:00	0.2176	8.478	180.0	0.526621248	0.635027250	0.009576716	0.098801209	0.030451492
2020-05-17T08:20:00	0.2168	8.512	180.0	0.523903180	0.631212275	0.009486400	0.097869440	0.030164312
2020-05-17T08:25:00	0.2176	8.558	180.0	0.526639543	0.635052948	0.009577325	0.098807496	0.030453430
2020-05-17T08:30:00	0.2171	8.618	180.0	0.524944443	0.632673042	0.009520948	0.098225867	0.030274166
2020-05-17T08:35:00	0.2176	8.670	180.0	0.526657837	0.635078646	0.009577934	0.098813782	0.030455367
2020-05-17T08:40:00	0.2183	8.742	181.0	0.529051502	0.638443345	0.009657832	0.099638071	0.030709421
2020-05-17T08:45:00	0.2192	8.771	180.0	0.532124021	0.642769120	0.009760878	0.100701180	0.031037082
2020-05-17T08:50:00	0.2192	8.782	181.0	0.532133154	0.642781990	0.009761185	0.100704348	0.031038058
2020-05-17T08:55:00	0.2191	8.880	182.0	0.531461775	0.641836099	0.009738621	0.100471559	0.030966310
2020-05-17T09:00:00	0.2197	8.941	182.0	0.533512038	0.644725818	0.009807610	0.101183304	0.031185677
2020-05-17T09:05:00	0.2192	8.994	181.0	0.531820315	0.642341192	0.009750668	0.100595843	0.031004616
2020-05-17T09:10:00	0.2190	9.083	182.0	0.531148875	0.641395386	0.009728114	0.100363159	0.030932900
2020-05-17T09:15:00	0.2188	9.171	182.0	0.530477304	0.640449764	0.009705582	0.100130700	0.030861254
2020-05-17T09:20:00	0.2182	9.241	183.0	0.528443521	0.637588283	0.009637507	0.099428379	0.030644792
2020-05-17T09:25:00	0.2182	9.276	183.0	0.528452663	0.637601139	0.009637812	0.099431530	0.030645763
2020-05-17T09:30:00	0.2179	9.347	183.0	0.527439897	0.636177450	0.009604002	0.099082716	0.030538255
2020-05-17T09:35:00	0.2174	9.403	183.0	0.525745191	0.633796994	0.009547559	0.098500407	0.030358782
2020-05-17T09:40:00	0.2170	9.449	184.0	0.524390656	0.631896035	0.009502566	0.098036223	0.030215716
2020-05-17T09:45:00	0.2169	9.500	184.0	0.524058804	0.631430541	0.009491559	0.097922669	0.030180718
2020-05-17T09:50:00	0.2162	9.566	184.0	0.521679985	0.628096344	0.009412848	0.097110613	0.029930434
2020-05-17T09:55:00	0.2164	9.580	184.0	0.522371591	0.629065238	0.009435698	0.097346356	0.030003092
2020-05-17T10:00:00	0.2162	9.541	184.0	0.521698306	0.628122006	0.009413452	0.097116854	0.029932358
2020-05-17T10:05:00	0.2160	9.631	184.0	0.521109320	0.627297172	0.009394014	0.096916310	0.029870548
2020-05-17T10:10:00	0.2151	9.686	184.0	0.518129792	0.623128864	0.009295988	0.095904994	0.029558851
2020-05-17T10:15:00	0.2156	9.721	184.0	0.519589596	0.625170206	0.009343951	0.096399818	0.029711360
2020-05-17T10:20:00	0.2168	9.747	185.0	0.523778258	0.631037084	0.009482259	0.097826723	0.030151146
2020-05-17T10:25:00	0.2166	9.752	185.0	0.523189628	0.630211756	0.009462761	0.097625566	0.030089147
2020-05-17T10:30:00	0.2175	9.795	185.0	0.526010869	0.634170022	0.009556397	0.098591581	0.030386883
2020-05-17T10:35:00	0.2172	9.854	186.0	0.525081717	0.632865687	0.009525507	0.098272905	0.030288664
2020-05-17T10:40:00	0.2176	9.874	186.0	0.526538574	0.634911122	0.009573962	0.098772802	0.030442737
2020-05-17T10:45:00	0.2180	9.886	186.0	0.527994814	0.636957417	0.009622520	0.099273763	0.030597138
2020-05-17T10:50:00	0.2180	9.929	186.0	0.527747578	0.636609882	0.009614267	0.099188621	0.030570896
2020-05-17T10:55:00	0.2191	9.973	186.0	0.531586071	0.642011190	0.009742797	0.100514636	0.030979587
2020-05-17T11:00:00	0.2193	10.010	186.0	0.532359847	0.643101454	0.009768810	0.100783011	0.031062303
2020-05-17T11:05:00	0.2195	10.023	186.0	0.533133448	0.644191962	0.009794852	0.101051687	0.031145111
2020-05-17T11:10:00	0.2202	10.020	186.0	0.535266803	0.647201774	0.009866850	0.101794478	0.031374047
2020-05-17T11:15:00	0.2198	10.032	186.0	0.534000120	0.645414246	0.009824069	0.101353114	0.031238014
2020-05-17T11:20:00	0.2204	10.047	186.0	0.536132940	0.648424809	0.009896157	0.102096831	0.031467235
2020-05-17T11:25:00	0.2205	10.103	186.0	0.536226124	0.648556426	0.009899313	0.102129387	0.031477269
2020-05-17T11:30:00	0.2205	10.148	187.0	0.536319305	0.648688047	0.009902469	0.102161947	0.031487304
2020-05-17T11:35:00	0.2210	10.148	187.0	0.538111076	0.651220346	0.009963254	0.102789060	0.031680587
2020-05-17T11:40:00	0.2205	10.149	187.0	0.536505659	0.648951298	0.009908782	0.102227080	0.031507379
2020-05-17T11:45:00	0.2203	10.204	187.0	0.535579331	0.647643010	0.009877420	0.101903523	0.031407656
2020-05-17T11:50:00	0.2203	10.283	187.0	0.535672529	0.647774606	0.009880573	0.101936053	0.031417682
2020-05-17T11:55:00	0.2212	10.358	188.0	0.538823163	0.652227463	0.009987464	0.103038825	0.031757567
2020-05-17T12:00:00	0.2213	10.365	188.0	0.539255813	0.652839570	0.010002188	0.103190727	0.031804384
2020-05-17T12:05:00	0.2214	10.384	188.0	0.539348912	0.652971305	0.010005357	0.103223429	0.031814463
2020-05-17T12:10:00	0.2210	10.431	188.0	0.538083725	0.651181672	0.009962325	0.102779473	0.031677632
2020-05-17T12:15:00	0.2208	10.484	188.0	0.537497531	0.650352933	0.009942419	0.102574104	0.031614335
2020-05-17T12:20:00	0.2205	10.530	188.0	0.536231666	0.648564255	0.009899501	0.102131323	0.031477866
2020-05-17T12:25:00	0.2209	10.561	189.0	0.537683822	0.650616274	0.009948743	0.102639347	0.031634444
2020-05-17T12:30:00	0.2211	10.566	189.0	0.538456233	0.651708456	0.009974985	0.102910086	0.031717888
2020-05-17T12:35:00	0.2199	10.578	189.0	0.534471845	0.646079786	0.009839991	0.101517369	0.031288639
2020-05-17T12:40:00	0.2212	10.667	189.0	0.538642472	0.651971870	0.009981318	0.102975419	0.031738024
2020-05-17T12:45:00	0.2204	10.777	190.0	0.536017930	0.648262373	0.009892263	0.102056657	0.031454853
2020-05-17T12:50:00	0.2198	10.828	190.0	0.534071524	0.645514976	0.009826479	0.101377968	0.031245674
2020-05-17T12:55:00	0.2194	10.863	190.0	0.532804403	0.643728064	0.009783771	0.100937364	0.031109876
2020-05-17T13:00:00	0.2209	10.882	190.0	0.537656468	0.650577604	0.009947814	0.102629766	0.031631490
2020-05-17T13:05:00	0.2198	10.914	190.0	0.534011212	0.645429893	0.009824444	0.101356975	0.031239204
2020-05-17T13:10:00	0.2198	10.943	190.0	0.534104453	0.645561430	0.009827590	0.101389431	0.031249207
2020-05-17T13:15:00	0.2195	11.002	191.0	0.532837343	0.643774500	0.009784880	0.100948806	0.031113402
2020-05-17T13:20:00	0.2191	11.065	191.0	0.531569768	0.641988224	0.009742249	0.100508986	0.030977845
2020-05-17T13:25:00	0.2193	11.085	191.0	0.532343547	0.643078484	0.009768262	0.100777355	0.031060559
2020-05-17T13:30:00	0.2202	11.117	191.0	0.535497217	0.647527072	0.009874643	0.101874867	0.031398823
2020-05-17T13:35:00	0.2199	11.159	191.0	0.534230619	0.645739425	0.009831847	0.101433357	0.031262746
2020-05-17T13:40:00	0.2198	11.183	191.0	0.533983829	0.645391264	0.009823520	0.101347444	0.031236266
2020-05-17T13:45:00	0.2192	11.204	192.0	0.532036276	0.642645478	0.009757928	0.100670741	0.031027700
2020-05-17T13:50:00	0.2192	11.234	192.0	0.532129570	0.642776940	0.009761065	0.100703105	0.031037675
2020-05-17T13:55:00	0.2195	11.248	192.0	0.532903224	0.643867375	0.009787099	0.100971691	0.031120456
2020-05-17T14:00:00	0.2181	11.251	192.0	0.528231269	0.637289844	0.009630416	0.099355226	0.030622245
2020-05-17T14:05:00	0.2191	11.254	192.0	0.531728978	0.642212511	0.009747598	0.100564175	0.030994855
2020-05-17T14:10:00	0.2205	11.254	192.0	0.536242751	0.648579912	0.009899876	0.102135196	0.031479059
2020-05-17T14:15:00	0.2187	11.255	192.0	0.530213936	0.640079023	0.009696753	0.100039612	0.030833180
2020-05-17T14:20:00	0.2195	11.250	192.0	0.533029433	0.644045309	0.009791349	0.101015541	0.031133971
2020-05-17T14:25:00	0.2198	11.237	192.0	0.534142927	0.645615708	0.009828888	0.101402825	0.031253336
2020-05-17T14:30:00	0.2192	11.224	192.0	0.531855230	0.642390385	0.009751841	0.100607950	0.031008347
2020-05-17T14:35:00	0.2193	11.208	192.0	0.532288754	0.643001263	0.009766418	0.100758339	0.031054699
2020-05-17T14:40:00	0.2191	11.192	192.0	0.531701576	0.642173908	0.009746677	0.100554675	0.030991927
2020-05-17T14:45:00	0.2191	11.180	192.0	0.531794879	0.642305356	0.009749813	0.100587023	0.031001898
2020-05-17T14:50:00	0.2179	11.154	191.0	0.527462123	0.636208685	0.009604743	0.099090364	0.030540613
2020-05-17T14:55:00	0.2180	11.143	191.0	0.527896199	0.636818790	0.009619228	0.099239798	0.030586670
2020-05-17T15:00:00	0.2171	11.137	191.0	0.524922548	0.632642317	0.009520221	0.098218365	0.030271854
2020-05-17T15:05:00	0.2174	11.119	191.0	0.525697821	0.633730490	0.009545984	0.098484156	0.030353773
2020-05-17T15:10:00	0.2176	11.103	191.0	0.526472919	0.634818906	0.009571776	0.098750247	0.030435785
2020-05-17T15:15:00	0.2175	11.095	191.0	0.526225573	0.634471523	0.009563541	0.098665294	0.030409602
2020-05-17T15:20:00	0.2181	11.086	191.0	0.528363204	0.637475349	0.009634823	0.099400694	0.030636259
2020-05-17T15:25:00	0.2184	11.072	191.0	0.529137703	0.638564602	0.009660715	0.099667820	0.030718590
2020-05-17T15:30:00	0.2180	11.059	191.0	0.527868767	0.636780229	0.009618312	0.099230351	0.030583758
2020-05-17T15:35:00	0.2174	11.046	191.0	0.525917756	0.634039280	0.009553299	0.098559623	0.030377033
2020-05-17T15:40:00	0.2172	11.036	191.0	0.524988580	0.632734980	0.009522414	0.098240989	0.030278827
2020-05-17T15:45:00	0.2171	11.022	191.0	0.524741128	0.632387746	0.009514197	0.098156220	0.030252700
2020-05-17T15:50:00	0.2181	11.003	191.0	0.528242379	0.637305465	0.009630787	0.099359054	0.030623425
2020-05-17T15:55:00	0.2182	10.983	191.0	0.528676358	0.637915708	0.009645288	0.099508658	0.030669535
2020-05-17T16:00:00	0.2182	10.967	191.0	0.528429170	0.637568104	0.009637027	0.099423432	0.030643267
2020-05-17T16:05:00	0.2183	10.953	191.0	0.528772790	0.638051328	0.009648512	0.099541916	0.030679785
2020-05-17T16:10:00	0.2185	10.930	191.0	0.529456879	0.639013632	0.009671396	0.099778009	0.030752551
2020-05-17T16:15:00	0.2184	10.904	191.0	0.529119422	0.638538885	0.009660104	0.099661510	0.030716645
2020-05-17T16:20:00	0.2182	10.883	190.0	0.528441360	0.637585245	0.009637434	0.099427634	0.030644562
2020-05-17T16:25:00	0.2177	10.858	190.0	0.526741049	0.635195536	0.009580706	0.098842380	0.030464181
2020-05-17T16:30:00	0.2176	10.837	190.0	0.526403326	0.634721161	0.009569459	0.098726341	0.030428417
2020-05-17T16:35:00	0.2174	10.818	190.0	0.525724729	0.633768268	0.009546879	0.098493387	0.030356619
2020-05-17T16:40:00	0.2171	10.791	190.0	0.524705059	0.632337136	0.009513000	0.098143867	0.030248893
2020-05-17T16:45:00	0.2171	10.766	190.0	0.524708109	0.632341417	0.009513101	0.098144912	0.030249215
2020-05-17T16:50:00	0.2164	10.741	190.0	0.522323633	0.628998040	0.009434113	0.097330000	0.029998051
2020-05-17T16:55:00	0.2165	10.718	190.0	0.522667863	0.629480414	0.009445495	0.097447432	0.030034245
2020-05-17T17:00:00	0.2161	10.698	190.0	0.521306008	0.627572588	0.009400503	0.096983257	0.029891182
2020-05-17T17:05:00	0.2164	10.678	190.0	0.522332792	0.629010873	0.009434415	0.097333123	0.029999014
2020-05-17T17:10:00	0.2165	10.656	190.0	0.522677021	0.629493249	0.009445798	0.097450557	0.030035208
2020-05-17T17:15:00	0.2162	10.631	189.0	0.521656446	0.628063374	0.009412070	0.097102594	0.029927963
2020-05-17T17:20:00	0.2159	10.608	190.0	0.520635568	0.626633921	0.009378393	0.096755153	0.029820878
2020-05-17T17:25:00	0.2153	10.581	189.0	0.518589846	0.623772002	0.009311090	0.096060799	0.029606871
2020-05-17T17:30:00	0.2148	10.554	189.0	0.516884656	0.621389071	0.009255176	0.095483944	0.029429079
2020-05-17T17:35:00	0.2149	10.529	189.0	0.517229431	0.621870689	0.009266468	0.095600439	0.029464984
2020-05-17T17:40:00	0.2150	10.505	189.0	0.517574171	0.622352355	0.009277765	0.095716993	0.029500907
2020-05-17T17:45:00	0.2151	10.482	188.0	0.517918876	0.622834069	0.009289068	0.095833607	0.029536848
2020-05-17T17:50:00	0.2145	10.457	188.0	0.515871534	0.619974392	0.009222035	0.095142036	0.029323699
2020-05-17T17:55:00	0.2144	10.434	189.0	0.515532741	0.619501501	0.009210966	0.095027837	0.029288502
2020-05-17T18:00:00	0.2140	10.409	188.0	0.514168053	0.617597595	0.009166446	0.094568529	0.029146939
2020-05-17T18:05:00	0.2144	10.382	189.0	0.515538859	0.619510039	0.009211166	0.095029898	0.029289138
2020-05-17T18:10:00	0.2139	10.356	188.0	0.513832151	0.617129204	0.009155504	0.094455647	0.029112148
2020-05-17T18:15:00	0.2144	10.330	189.0	0.515544977	0.619518578	0.009211366	0.095031960	0.029289773
2020-05-17T18:20:00	0.2150	10.305	188.0	0.517598628	0.622386530	0.009278567	0.095725264	0.029503456
2020-05-17T18:25:00	0.2151	10.278	188.0	0.517943331	0.622868248	0.009289871	0.095841882	0.029539399
2020-05-17T18:30:00	0.2158	10.249	188.0	0.520336956	0.626215958	0.009368554	0.096653642	0.029789591
2020-05-17T18:35:00	0.2165	10.220	188.0	0.522728915	0.629565977	0.009447515	0.097468267	0.030040667
2020-05-17T18:40:00	0.2168	10.192	188.0	0.523755275	0.631004852	0.009481498	0.097818865	0.030148724
2020-05-17T18:45:00	0.2166	10.164	187.0	0.523076156	0.630052686	0.009459005	0.097586811	0.030077203
2020-05-17T18:50:00	0.2172	10.133	187.0	0.525125312	0.632926869	0.009526956	0.098287845	0.030293268
2020-05-17T18:55:00	0.2176	10.102	187.0	0.526491755	0.634845362	0.009572403	0.098756717	0.030437779
2020-05-17T19:00:00	0.2178	10.072	187.0	0.527176297	0.635807033	0.009595212	0.098992028	0.030510305
2020-05-17T19:05:00	0.2184	10.041	187.0	0.529223015	0.638684614	0.009663570	0.099697266	0.030727666
2020-05-17T19:10:00	0.2189	10.010	187.0	0.530928193	0.641084609	0.009720707	0.100286742	0.030909348
2020-05-17T19:15:00	0.2196	9.979	187.0	0.533312810	0.644444869	0.009800895	0.101114031	0.031164326
2020-05-17T19:20:00	0.2198	9.949	186.0	0.533995999	0.645408433	0.009823930	0.101351679	0.031237572
2020-05-17T19:25:00	0.2200	9.918	186.0	0.534679054	0.646372186	0.009846988	0.101589562	0.031310890
2020-05-17T19:30:00	0.2212	9.888	186.0	0.538759357	0.652137204	0.009985294	0.103016433	0.031750665
2020-05-17T19:35:00	0.2216	9.858	186.0	0.540120413	0.654063250	0.010031644	0.103494623	0.031898048
2020-05-17T19:40:00	0.2215	9.831	186.0	0.539783996	0.653587042	0.010020177	0.103376323	0.031861587
2020-05-17T19:45:00	0.2214	9.804	186.0	0.539447546	0.653110880	0.010008716	0.103258080	0.031825143
2020-05-17T19:50:00	0.2222	9.773	186.0	0.542165548	0.656960189	0.010101495	0.104215258	0.032120155
2020-05-17T19:55:00	0.2231	9.744	186.0	0.545220372	0.661293728	0.010206287	0.105296378	0.032453366
2020-05-17T20:00:00	0.2231	9.714	186.0	0.545223405	0.661298034	0.010206391	0.105297454	0.032453698
2020-05-17T20:05:00	0.2236	9.685	186.0	0.546920713	0.663709122	0.010264852	0.105900582	0.032639588
2020-05-17T20:10:00	0.2241	9.655	185.0	0.548617191	0.666121389	0.010323452	0.106505156	0.032825923
2020-05-17T20:15:00	0.2238	9.623	185.0	0.547604253	0.664680782	0.010288443	0.106143966	0.032714601
2020-05-17T20:20:00	0.2243	9.593	185.0	0.549300397	0.667093524	0.010347100	0.106749122	0.032901116
2020-05-17T20:25:00	0.2246	9.563	185.0	0.550318897	0.668543461	0.010382404	0.107113343	0.033013373
2020-05-17T20:30:00	0.2239	9.535	185.0	0.547952033	0.665175302	0.010300456	0.106267906	0.032752801
2020-05-17T20:35:00	0.2240	9.506	185.0	0.548293718	0.665661252	0.010312266	0.106389746	0.032790353
2020-05-17T20:40:00	0.2243	9.477	185.0	0.549312514	0.667110769	0.010347520	0.106753451	0.032902450
2020-05-17T20:45:00	0.2246	9.448	184.0	0.550331010	0.668560710	0.010382824	0.107117679	0.033014709
2020-05-17T20:50:00	0.2257	9.417	184.0	0.554054878	0.673869293	0.010512423	0.108454731	0.033426801
2020-05-17T20:55:00	0.2257	9.389	184.0	0.554057903	0.673873610	0.010512529	0.108455820	0.033427137
2020-05-17T21:00:00	0.2256	9.360	184.0	0.553722835	0.673395485	0.010500834	0.108335170	0.033389951
2020-05-17T21:05:00	0.2254	9.332	184.0	0.553049576	0.672435057	0.010477356	0.108092950	0.033315297
2020-05-17T21:10:00	0.2251	9.304	184.0	0.552037930	0.670992607	0.010442127	0.107729504	0.033203279
2020-05-17T21:15:00	0.2244	9.275	184.0	0.549672238	0.667622779	0.010359982	0.106882022	0.032942077
2020-05-17T21:20:00	0.2247	9.247	184.0	0.550690629	0.669072871	0.010395304	0.107246433	0.033054392
2020-05-17T21:25:00	0.2250	9.218	184.0	0.551708722	0.670523388	0.010430676	0.107611366	0.033166868
2020-05-17T21:30:00	0.2238	9.192	183.0	0.547649713	0.664745417	0.010290013	0.106160162	0.032719593
2020-05-17T21:35:00	0.2240	9.166	183.0	0.548330079	0.665712971	0.010313523	0.106402715	0.032794350
2020-05-17T21:40:00	0.2236	9.138	183.0	0.546978307	0.663790977	0.010266838	0.105921078	0.032645905
2020-05-17T21:45:00	0.2232	9.110	183.0	0.545626007	0.661869732	0.010220243	0.105440359	0.032497743
2020-05-17T21:50:00	0.2225	9.081	183.0	0.543255938	0.658506128	0.010138836	0.104600507	0.032238892
2020-05-17T21:55:00	0.2224	9.053	183.0	0.542919826	0.658029489	0.010127318	0.104481677	0.032202268
2020-05-17T22:00:00	0.2237	9.025	183.0	0.547329180	0.664289717	0.010278946	0.106045988	0.032684403
2020-05-17T22:05:00	0.2244	8.998	183.0	0.549654602	0.667597674	0.010359371	0.106875716	0.032940134
2020-05-17T22:10:00	0.2229	8.970	183.0	0.544528338	0.660311347	0.010182499	0.105050969	0.032377729
2020-05-17T22:15:00	0.2227	8.941	182.0	0.543805287	0.659285355	0.010157676	0.104794870	0.032298797
2020-05-17T22:20:00	0.2229	8.916	182.0	0.544438411	0.660183719	0.010179410	0.105019100	0.032367907
2020-05-17T22:25:00	0.2222	8.890	182.0	0.542019498	0.656753196	0.010096498	0.104163712	0.032104268
2020-05-17T22:30:00	0.2222	8.865	182.0	0.542313742	0.657170240	0.010106566	0.104267575	0.032136279
2020-05-17T22:35:00	0.2226	8.840	182.0	0.543625394	0.659030157	0.010151505	0.104731203	0.032279174
2020-05-17T22:40:00	0.2229	8.815	182.0	0.544597566	0.660409603	0.010184878	0.105075506	0.032385291
2020-05-17T22:45:00	0.2234	8.790	181.0	0.546247209	0.662752102	0.010241634	0.105661048	0.032565761
2020-05-17T22:50:00	0.2222	8.764	181.0	0.542133772	0.656915152	0.010100407	0.104204042	0.032116698
2020-05-17T22:55:00	0.2221	8.738	182.0	0.541749516	0.656370602	0.010087265	0.104068458	0.032074910
2020-05-17T23:00:00	0.2226	8.711	181.0	0.543400514	0.658711179	0.010143793	0.104651641	0.032254652
2020-05-17T23:05:00	0.2218	8.686	181.0	0.540641506	0.654801056	0.010049419	0.103677999	0.031954566
2020-05-17T23:10:00	0.2216	8.661	181.0	0.540257085	0.654256740	0.010036304	0.103542703	0.031912867
2020-05-17T23:15:00	0.2218	8.637	181.0	0.540890858	0.655154186	0.010057930	0.103765805	0.031981629
2020-05-17T23:20:00	0.2215	8.613	181.0	0.539827598	0.653648756	0.010021663	0.103391652	0.031866311
2020-05-17T23:25:00	0.2215	8.590	181.0	0.539782573	0.653585028	0.010020129	0.103375823	0.031861433
2020-05-17T23:30:00	0.2204	8.566	181.0	0.536001302	0.648238888	0.009891700	0.102050849	0.031453063
2020-05-17T23:35:00	0.2200	8.543	181.0	0.534596572	0.646255789	0.009844202	0.101560822	0.031302032
2020-05-17T23:40:00	0.2206	8.517	180.0	0.536590789	0.649071565	0.009911667	0.102256841	0.031516551
2020-05-17T23:45:00	0.2199	8.495	180.0	0.534506387	0.646128527	0.009841157	0.101529402	0.031292348
2020-05-17T23:50:00	0.2197	8.471	180.0	0.533781239	0.645105496	0.009816686	0.101276945	0.031214538
2020-05-17T23:55:00	0.2201	8.445	180.0	0.535096130	0.646960845	0.009861081	0.101734952	0.031355700
2020-05-18T00:00:00	0.2193	8.422	180.0	0.532330485	0.643060074	0.009767822	0.100772821	0.031059162
2020-05-18T00:05:00	0.2197	8.400	180.0	0.533645928	0.644914648	0.009812124	0.101229872	0.031200030
2020-05-18T00:10:00	0.2192	8.378	180.0	0.531900011	0.642453478	0.009753347	0.100623479	0.031013134
2020-05-18T00:15:00	0.2186	8.357	180.0	0.529812774	0.639514417	0.009683312	0.099900946	0.030790442
2020-05-18T00:20:00	0.2185	8.335	179.0	0.529427146	0.638971798	0.009670401	0.099767741	0.030749387
2020-05-18T00:25:00	0.2185	8.313	180.0	0.529722464	0.639387331	0.009680288	0.099869743	0.030780825
2020-05-18T00:30:00	0.2179	8.293	180.0	0.527633908	0.636450115	0.009610474	0.099149489	0.030558835
2020-05-18T00:35:00	0.2185	8.272	180.0	0.529632151	0.639260247	0.009677264	0.099838544	0.030771209
2020-05-18T00:40:00	0.2189	8.251	179.0	0.530948624	0.641113379	0.009721393	0.100293815	0.030911528
2020-05-18T00:45:00	0.2194	8.231	179.0	0.532604787	0.643446682	0.009777052	0.100868042	0.031088510
2020-05-18T00:50:00	0.2195	8.211	179.0	0.532899833	0.643862596	0.009786984	0.100970513	0.031120093
2020-05-18T00:55:00	0.2186	8.191	179.0	0.529791990	0.639485169	0.009682616	0.099893765	0.030788228
2020-05-18T01:00:00	0.2178	8.170	179.0	0.527362798	0.636069103	0.009601430	0.099056187	0.030530079
2020-05-18T01:05:00	0.2179	8.150	179.0	0.527658294	0.636484389	0.009611288	0.099157883	0.030561423
2020-05-18T01:10:00	0.2171	8.130	179.0	0.524886674	0.632591976	0.009519030	0.098206075	0.030268066
2020-05-18T01:15:00	0.2171	8.112	179.0	0.524841454	0.632528522	0.009517528	0.098190585	0.030263292
2020-05-18T01:20:00	0.2172	8.092	179.0	0.525137166	0.632943506	0.009527349	0.098291908	0.030294521
2020-05-18T01:25:00	0.2175	8.072	178.0	0.526114556	0.634315621	0.009559847	0.098627176	0.030397853
2020-05-18T01:30:00	0.2183	8.052	178.0	0.528794853	0.638082358	0.009649249	0.099549526	0.030682131
2020-05-18T01:35:00	0.2178	8.032	178.0	0.527046477	0.635624628	0.009590884	0.098947381	0.030496544
2020-05-18T01:40:00	0.2187	8.011	178.0	0.530406905	0.640350658	0.009703222	0.100106348	0.030853749
2020-05-18T01:45:00	0.2186	7.991	178.0	0.530021343	0.639807945	0.009690299	0.099973028	0.030812658
2020-05-18T01:50:00	0.2177	7.972	178.0	0.526910902	0.635434151	0.009586365	0.098900766	0.030482176
2020-05-18T01:55:00	0.2180	7.955	178.0	0.527887788	0.636806967	0.009618947	0.099236901	0.030585777
2020-05-18T02:00:00	0.2183	7.934	178.0	0.528864398	0.638180170	0.009651575	0.099573515	0.030689524
2020-05-18T02:05:00	0.2179	7.915	178.0	0.527456759	0.636201147	0.009604564	0.099088518	0.030540044
2020-05-18T02:10:00	0.2176	7.896	178.0	0.526389353	0.634701536	0.009568993	0.098721541	0.030426938
2020-05-18T02:15:00	0.2167	7.879	178.0	0.523616711	0.630810547	0.009476906	0.097771495	0.030134124
2020-05-18T02:20:00	0.2168	7.859	178.0	0.523912528	0.631225385	0.009486710	0.097872637	0.030165297
2020-05-18T02:25:00	0.2167	7.839	177.0	0.523526238	0.630683687	0.009473909	0.097740572	0.030124594
2020-05-18T02:30:00	0.2166	7.818	177.0	0.523139905	0.630142050	0.009461115	0.097608583	0.030083913
2020-05-18T02:35:00	0.2169	7.799	177.0	0.524117862	0.631513375	0.009493518	0.097942873	0.030186945
2020-05-18T02:40:00	0.2175	7.779	177.0	0.526118146	0.634320662	0.009559966	0.098628408	0.030398233
2020-05-18T02:45:00	0.2177	7.760	178.0	0.526754519	0.635214458	0.009581155	0.098847009	0.030465608
2020-05-18T02:50:00	0.2175	7.744	177.0	0.526027738	0.634193710	0.009556958	0.098597372	0.030388668
2020-05-18T02:55:00	0.2179	7.725	177.0	0.527686267	0.636523707	0.009612221	0.099167513	0.030564391
2020-05-18T03:00:00	0.2179	7.710	177.0	0.527641085	0.636460202	0.009610713	0.099151959	0.030559597
2020-05-18T03:05:00	0.2180	7.692	177.0	0.527936556	0.636875521	0.009620575	0.099253697	0.030590953
2020-05-18T03:10:00	0.2177	7.675	176.0	0.526869298	0.635375702	0.009584979	0.098886463	0.030477768
2020-05-18T03:15:00	0.2177	7.659	177.0	0.526824105	0.635312212	0.009583473	0.098870927	0.030472980
2020-05-18T03:20:00	0.2173	7.644	176.0	0.525415632	0.633334353	0.009536602	0.098387370	0.030323943
2020-05-18T03:25:00	0.2176	7.627	177.0	0.526392943	0.634706578	0.009569113	0.098722774	0.030427318
2020-05-18T03:30:00	0.2170	7.610	176.0	0.524643347	0.632250549	0.009510952	0.098122734	0.030242380
2020-05-18T03:35:00	0.2165	7.593	176.0	0.522892861	0.629795759	0.009452939	0.097524227	0.030057914
2020-05-18T03:40:00	0.2162	7.576	176.0	0.521824038	0.628298120	0.009417605	0.097159691	0.029945560
2020-05-18T03:45:00	0.2160	7.562	176.0	0.521096215	0.627278822	0.009393582	0.096911850	0.029869173
2020-05-18T03:50:00	0.2159	7.550	176.0	0.520709608	0.626737565	0.009380834	0.096780330	0.029828638
2020-05-18T03:55:00	0.2160	7.537	176.0	0.521005675	0.627152054	0.009390595	0.096881041	0.029859678
2020-05-18T04:00:00	0.2159	7.527	176.0	0.520619059	0.626610811	0.009377849	0.096749539	0.029819148
2020-05-18T04:05:00	0.2160	7.514	176.0	0.521150645	0.627355036	0.009395377	0.096930374	0.029874883
2020-05-18T04:10:00	0.2160	7.504	176.0	0.520999567	0.627143502	0.009390394	0.096878963	0.029859037
2020-05-18T04:15:00	0.2166	7.498	176.0	0.523237033	0.630278212	0.009464331	0.097641758	0.030094138
2020-05-18T04:20:00	0.2175	7.491	176.0	0.526154740	0.634372051	0.009561184	0.098640972	0.030402106
2020-05-18T04:25:00	0.2176	7.483	176.0	0.526685472	0.635117464	0.009578855	0.098823279	0.030458294
2020-05-18T04:30:00	0.2183	7.475	176.0	0.528919246	0.638257314	0.009653409	0.099592437	0.030695356
2020-05-18T04:35:00	0.2191	7.467	176.0	0.531491876	0.641878500	0.009739632	0.100481990	0.030969525
2020-05-18T04:40:00	0.2194	7.460	176.0	0.532702188	0.643583977	0.009780330	0.100901864	0.031098934
2020-05-18T04:45:00	0.2200	7.453	176.0	0.534592106	0.646249486	0.009844052	0.101559265	0.031301552
2020-05-18T04:50:00	0.2203	7.448	176.0	0.535801332	0.647956487	0.009884932	0.101981019	0.031431540
2020-05-18T04:55:00	0.2210	7.442	176.0	0.538029214	0.651104595	0.009960473	0.102760367	0.031671743
2020-05-18T05:00:00	0.2217	7.438	176.0	0.540595071	0.654735299	0.010047834	0.103661651	0.031949528
2020-05-18T05:05:00	0.2224	7.434	176.0	0.542819869	0.657887760	0.010123894	0.104446352	0.032191380
2020-05-18T05:10:00	0.2223	7.433	176.0	0.542669737	0.657674900	0.010118753	0.104393305	0.032175031
2020-05-18T05:15:00	0.2226	7.433	176.0	0.543537057	0.658904852	0.010148475	0.104699946	0.032269540
2020-05-18T05:20:00	0.2229	7.433	176.0	0.544404160	0.660135111	0.010178234	0.105006964	0.032364166
2020-05-18T05:25:00	0.2227	7.434	176.0	0.543915047	0.659441074	0.010161442	0.104833726	0.032310772
2020-05-18T05:30:00	0.2229	7.437	176.0	0.544443057	0.660190313	0.010179570	0.105020747	0.032368414
2020-05-18T05:35:00	0.2227	7.442	176.0	0.543953949	0.659496268	0.010162777	0.104847499	0.032315018
2020-05-18T05:40:00	0.2232	7.447	176.0	0.545498837	0.661689134	0.010215866	0.105395209	0.032483827
2020-05-18T05:45:00	0.2232	7.453	176.0	0.545687730	0.661957390	0.010222367	0.105462276	0.032504498
2020-05-18T05:50:00	0.2236	7.462	176.0	0.546893086	0.663669858	0.010263899	0.105890751	0.032636558
2020-05-18T05:55:00	0.2240	7.473	176.0	0.548098024	0.665382922	0.010305501	0.106319955	0.032768843
2020-05-18T06:00:00	0.2238	7.485	176.0	0.547609432	0.664688145	0.010288621	0.106145811	0.032715170
2020-05-18T06:05:00	0.2236	7.497	176.0	0.546782001	0.663511988	0.010260068	0.105851226	0.032624376
2020-05-18T06:10:00	0.2232	7.509	176.0	0.545615490	0.661854796	0.010219881	0.105436624	0.032496592
2020-05-18T06:15:00	0.2241	7.527	176.0	0.548514369	0.665975116	0.010319896	0.106468464	0.032814614
2020-05-18T06:20:00	0.2239	7.545	176.0	0.548025835	0.665280256	0.010303006	0.106294217	0.032760910
2020-05-18T06:25:00	0.2244	7.567	176.0	0.549568910	0.667475697	0.010356401	0.106845083	0.032930692
2020-05-18T06:30:00	0.2247	7.592	176.0	0.550772920	0.669190082	0.010398161	0.107275907	0.033063476
2020-05-18T06:35:00	0.2252	7.617	176.0	0.552314775	0.671387262	0.010451762	0.107828902	0.033233915
2020-05-18T06:40:00	0.2251	7.643	176.0	0.551826776	0.670691640	0.010434782	0.107653723	0.033179923
2020-05-18T06:45:00	0.2255	7.670	176.0	0.553368164	0.672889487	0.010488463	0.108207535	0.033350613
2020-05-18T06:50:00	0.2253	7.699	176.0	0.552542105	0.671711376	0.010459677	0.107910557	0.033259082
2020-05-18T06:55:00	0.2250	7.729	177.0	0.551715849	0.670533546	0.010430924	0.107613923	0.033167656
2020-05-18T07:00:00	0.2247	7.762	177.0	0.550550995	0.668873994	0.010390457	0.107196430	0.033038981
2020-05-18T07:05:00	0.2249	7.797	177.0	0.551416347	0.670106743	0.010420512	0.107506500	0.033134547
2020-05-18T07:10:00	0.2243	7.856	178.0	0.549235901	0.667001737	0.010344866	0.106726079	0.032894014
2020-05-18T07:15:00	0.2253	7.899	178.0	0.552808222	0.672090847	0.010468946	0.108006184	0.033288555
2020-05-18T07:20:00	0.2260	7.933	177.0	0.555025207	0.675254422	0.010546327	0.108804508	0.033534606
2020-05-18T07:25:00	0.2257	7.962	178.0	0.553861462	0.673593287	0.010505672	0.108385078	0.033405334
2020-05-18T07:30:00	0.2254	8.024	178.0	0.553035519	0.672415008	0.010476866	0.108087895	0.033313739
2020-05-18T07:35:00	0.2256	8.071	178.0	0.553562144	0.673166220	0.010495228	0.108277333	0.033372125
2020-05-18T07:40:00	0.2259	8.110	178.0	0.554764772	0.674882579	0.010537221	0.108710572	0.033505654
2020-05-18T07:45:00	0.2258	8.139	178.0	0.554277116	0.674186466	0.010520183	0.108534791	0.033451477
2020-05-18T07:50:00	0.2265	8.179	178.0	0.556830989	0.677834208	0.010609569	0.109456963	0.033735699
2020-05-18T07:55:00	0.2258	8.232	179.0	0.554315903	0.674241826	0.010521538	0.108548767	0.033455784
2020-05-18T08:00:00	0.2261	8.278	179.0	0.555518270	0.675958558	0.010563576	0.108982462	0.033589453
2020-05-18T08:05:00	0.2262	8.322	179.0	0.555706619	0.676227589	0.010570168	0.109050479	0.033610417
2020-05-18T08:10:00	0.2260	8.372	179.0	0.554881115	0.675048683	0.010541288	0.108752530	0.033518586
2020-05-18T08:15:00	0.2270	8.436	179.0	0.558447644	0.680146077	0.010666350	0.110042763	0.033916248
2020-05-18T08:20:00	0.2272	8.491	180.0	0.558973451	0.680898462	0.010684850	0.110233633	0.033975076
2020-05-18T08:25:00	0.2273	8.544	180.0	0.559499179	0.681650961	0.010703365	0.110424642	0.034033947
2020-05-18T08:30:00	0.2272	8.603	180.0	0.559012186	0.680953897	0.010686214	0.110247700	0.033979412
2020-05-18T08:35:00	0.2266	8.657	181.0	0.557174290	0.678324958	0.010621613	0.109581226	0.033773998
2020-05-18T08:40:00	0.2264	8.724	181.0	0.556349133	0.677145554	0.010592674	0.109282668	0.033681979
2020-05-18T08:45:00	0.2262	8.805	181.0	0.555861700	0.676449123	0.010575598	0.109106498	0.033627682
2020-05-18T08:50:00	0.2260	8.887	182.0	0.555036232	0.675270165	0.010546712	0.108808485	0.033535832
2020-05-18T08:55:00	0.2269	8.977	182.0	0.557927266	0.679401685	0.010648056	0.109854029	0.033858079
2020-05-18T09:00:00	0.2266	9.070	182.0	0.557102288	0.678222024	0.010619087	0.109555158	0.033765964
2020-05-18T09:05:00	0.2265	9.163	182.0	0.556614960	0.677525442	0.010601993	0.109378804	0.033711610
2020-05-18T09:10:00	0.2255	9.230	183.0	0.553423506	0.672968435	0.010490392	0.108227445	0.033356750
2020-05-18T09:15:00	0.2255	9.313	183.0	0.553273832	0.672754924	0.010485173	0.108173600	0.033340154
2020-05-18T09:20:00	0.2251	9.392	183.0	0.552109500	0.671094627	0.010444618	0.107755196	0.033211198
2020-05-18T09:25:00	0.2252	9.424	184.0	0.552298034	0.671363394	0.010451179	0.107822890	0.033232062
2020-05-18T09:30:00	0.2243	9.501	184.0	0.549441155	0.667293857	0.010351975	0.106799421	0.032916619
2020-05-18T09:35:00	0.2240	9.580	183.0	0.548275538	0.665635394	0.010311637	0.106383261	0.032788354
2020-05-18T09:40:00	0.2240	9.639	184.0	0.548125642	0.665422199	0.010306456	0.106329803	0.032771878
2020-05-18T09:45:00	0.2232	9.688	184.0	0.545604243	0.661838824	0.010219494	0.105432631	0.032495361
2020-05-18T09:50:00	0.2228	9.762	185.0	0.544098304	0.659701088	0.010167732	0.104898617	0.032330772
2020-05-18T09:55:00	0.2229	9.824	185.0	0.544626287	0.660450367	0.010185864	0.105085686	0.032388429
2020-05-18T10:00:00	0.2234	9.869	185.0	0.546170874	0.662643658	0.010239004	0.105633917	0.032557399
2020-05-18T10:05:00	0.2235	9.910	186.0	0.546404669	0.662975814	0.010247060	0.105717025	0.032583014
2020-05-18T10:10:00	0.2228	9.958	186.0	0.544266038	0.659939101	0.010173491	0.104958028	0.032349084
2020-05-18T10:15:00	0.2224	10.035	186.0	0.542804503	0.657865972	0.010123368	0.104440922	0.032189706
2020-05-18T10:20:00	0.2225	10.090	186.0	0.543038525	0.658197806	0.010131385	0.104523635	0.032215199
2020-05-18T10:25:00	0.2225	10.119	187.0	0.543272532	0.658529662	0.010139405	0.104606375	0.032240701
2020-05-18T10:30:00	0.2228	10.168	187.0	0.544184668	0.659823635	0.010170697	0.104929205	0.032340200
2020-05-18T10:35:00	0.2220	10.226	187.0	0.541366101	0.655827364	0.010074161	0.103933260	0.032033240
2020-05-18T10:40:00	0.2217	10.287	187.0	0.540582193	0.654717064	0.010047395	0.103657118	0.031948130
2020-05-18T10:45:00	0.2220	10.353	187.0	0.541495038	0.656010034	0.010078567	0.103978716	0.032047250
2020-05-18T10:50:00	0.2217	10.418	187.0	0.540371762	0.654419103	0.010040216	0.103583054	0.031925303
2020-05-18T10:55:00	0.2225	10.489	188.0	0.543320007	0.658596994	0.010141033	0.104623165	0.032245876
2020-05-18T11:00:00	0.2225	10.542	188.0	0.543214877	0.658447894	0.010137429	0.104585986	0.032234417
2020-05-18T11:05:00	0.2225	10.597	188.0	0.543109743	0.658298798	0.010133826	0.104548812	0.032222959
2020-05-18T11:10:00	0.2213	10.696	189.0	0.539271887	0.652862314	0.010002735	0.103196373	0.031806124
2020-05-18T11:15:00	0.2215	10.744	189.0	0.539845630	0.653674280	0.010022278	0.103397991	0.031868265
2020-05-18T11:20:00	0.2219	10.795	190.0	0.541098028	0.655447618	0.010065004	0.103838786	0.032004122
2020-05-18T11:25:00	0.2217	10.859	190.0	0.540314059	0.654337404	0.010038248	0.103562749	0.031919045
2020-05-18T11:30:00	0.2219	10.915	190.0	0.541226975	0.655630274	0.010069408	0.103884224	0.032018127
2020-05-18T11:35:00	0.2214	10.982	190.0	0.539424667	0.653078502	0.010007937	0.103250041	0.031822666
2020-05-18T11:40:00	0.2212	11.056	191.0	0.538640318	0.651968823	0.009981245	0.102974663	0.031737791
2020-05-18T11:45:00	0.2205	11.141	191.0	0.536496884	0.648938902	0.009908485	0.102224013	0.031506433
2020-05-18T11:50:00	0.2197	11.215	191.0	0.533672043	0.644951481	0.009813004	0.101238956	0.031202829
2020-05-18T11:55:00	0.2191	11.288	191.0	0.531525523	0.641925896	0.009740762	0.100493651	0.030973119
2020-05-18T12:00:00	0.2190	11.377	192.0	0.531420033	0.641777302	0.009737219	0.100457095	0.030961852
2020-05-18T12:05:00	0.2189	11.471	192.0	0.530974219	0.641149423	0.009722252	0.100302677	0.030914259
2020-05-18T12:10:00	0.2197	11.565	192.0	0.533590424	0.644836367	0.009810252	0.101210566	0.031194079
2020-05-18T12:15:00	0.2200	11.652	193.0	0.534845089	0.646606511	0.009852597	0.101647428	0.031328724
2020-05-18T12:20:00	0.2184	11.739	194.0	0.529295945	0.638787213	0.009666010	0.099722442	0.030735425
2020-05-18T12:25:00	0.2189	11.828	194.0	0.530892536	0.641034399	0.009719510	0.100274397	0.030905543
2020-05-18T12:30:00	0.2193	11.911	194.0	0.532148183	0.642803167	0.009761691	0.100709562	0.031039665
2020-05-18T12:35:00	0.2191	11.981	194.0	0.531702463	0.642175156	0.009746707	0.100554982	0.030992022
2020-05-18T12:40:00	0.2182	12.049	195.0	0.528533132	0.637714292	0.009640501	0.099459271	0.030654313
2020-05-18T12:45:00	0.2181	12.123	195.0	0.528086944	0.637086936	0.009625596	0.099305499	0.030606919
2020-05-18T12:50:00	0.2177	12.196	196.0	0.526959298	0.635502143	0.009587978	0.098917404	0.030487305
2020-05-18T12:55:00	0.2173	12.251	196.0	0.525490419	0.633439332	0.009539088	0.098413016	0.030331847
2020-05-18T13:00:00	0.2173	12.294	196.0	0.525384744	0.633290996	0.009535576	0.098376779	0.030320679
2020-05-18T13:05:00	0.2171	12.323	197.0	0.524938148	0.632664209	0.009520739	0.098223710	0.030273501
2020-05-18T13:10:00	0.2173	12.364	196.0	0.525514279	0.633472827	0.009539881	0.098421199	0.030334369
2020-05-18T13:15:00	0.2163	12.412	196.0	0.521998037	0.628541865	0.009423352	0.097218989	0.029963837
2020-05-18T13:20:00	0.2158	12.464	197.0	0.520527038	0.626482004	0.009374816	0.096718252	0.029809505
2020-05-18T13:25:00	0.2169	12.499	197.0	0.524174369	0.631592636	0.009495392	0.097962206	0.030192903
2020-05-18T13:30:00	0.2166	12.514	197.0	0.523045440	0.630009629	0.009457988	0.097576322	0.030073970
2020-05-18T13:35:00	0.2162	12.507	197.0	0.521916140	0.628427138	0.009420647	0.097191077	0.029955234
2020-05-18T13:40:00	0.2161	12.487	196.0	0.521469094	0.627800977	0.009405885	0.097038785	0.029908296
2020-05-18T13:45:00	0.2157	12.467	196.0	0.519997868	0.625741429	0.009357387	0.096538437	0.029754084
2020-05-18T13:50:00	0.2157	12.459	196.0	0.519892025	0.625593328	0.009353903	0.096502491	0.029743005
2020-05-18T13:55:00	0.2155	12.449	197.0	0.519444715	0.624967532	0.009339185	0.096350652	0.029696207
2020-05-18T14:00:00	0.2157	12.435	196.0	0.520021767	0.625774870	0.009358174	0.096546554	0.029756586
2020-05-18T14:05:00	0.2159	12.423	196.0	0.520598722	0.626582343	0.009377179	0.096742624	0.029817016
2020-05-18T14:10:00	0.2164	12.404	196.0	0.522540539	0.629301982	0.009441284	0.097403988	0.030020855
2020-05-18T14:15:00	0.2165	12.393	196.0	0.522775939	0.629631883	0.009449070	0.097484317	0.030045613
2020-05-18T14:20:00	0.2169	12.388	196.0	0.524034548	0.631396519	0.009490755	0.097914372	0.030178160
2020-05-18T14:25:00	0.2164	12.386	196.0	0.522564420	0.629335448	0.009442074	0.097412135	0.030023366
2020-05-18T14:30:00	0.2170	12.385	197.0	0.524505128	0.632056628	0.009506364	0.098075409	0.030227794
2020-05-18T14:35:00	0.2164	12.384	197.0	0.522352887	0.629039031	0.009435080	0.097339977	0.030001126
2020-05-18T14:40:00	0.2170	12.381	196.0	0.524634696	0.632238412	0.009510664	0.098119772	0.030241467
2020-05-18T14:45:00	0.2171	12.375	197.0	0.524869953	0.632568512	0.009518475	0.098200347	0.030266301
2020-05-18T14:50:00	0.2167	12.366	196.0	0.523400182	0.630506944	0.009469734	0.097697496	0.030111317
2020-05-18T14:55:00	0.2172	12.360	196.0	0.524999508	0.632750316	0.009522777	0.098244734	0.030279981
2020-05-18T15:00:00	0.2171	12.351	196.0	0.524893818	0.632602001	0.009519267	0.098208523	0.030268820
2020-05-18T15:05:00	0.2170	12.337	196.0	0.524447159	0.631975302	0.009504441	0.098055564	0.030221677
2020-05-18T15:10:00	0.2162	12.323	196.0	0.521612421	0.628001712	0.009410617	0.097087598	0.029923341
2020-05-18T15:15:00	0.2166	12.310	196.0	0.523212578	0.630243928	0.009463521	0.097633404	0.030091563
2020-05-18T15:20:00	0.2169	12.294	196.0	0.524130029	0.631530441	0.009493921	0.097947035	0.030188228
2020-05-18T15:25:00	0.2168	12.277	197.0	0.523683270	0.630903880	0.009479112	0.097794248	0.030141137
2020-05-18T15:30:00	0.2165	12.260	197.0	0.522895334	0.629799225	0.009453021	0.097525072	0.030058174
2020-05-18T15:35:00	0.2167	12.244	196.0	0.523471806	0.630607367	0.009472106	0.097721971	0.030118860
2020-05-18T15:40:00	0.2164	12.227	196.0	0.522342647	0.629024681	0.009434741	0.097336484	0.030000050
2020-05-18T15:45:00	0.2159	12.213	196.0	0.520871795	0.626964615	0.009386180	0.096835493	0.029845640
2020-05-18T15:50:00	0.2159	12.198	196.0	0.520765978	0.626816476	0.009382692	0.096799501	0.029834546
2020-05-18T15:55:00	0.2162	12.182	196.0	0.521684082	0.628102083	0.009412983	0.097112008	0.029930864
2020-05-18T16:00:00	0.2167	12.166	196.0	0.523284205	0.630344345	0.009465893	0.097657872	0.030099105
2020-05-18T16:05:00	0.2161	12.151	196.0	0.521529974	0.627886239	0.009407895	0.097059517	0.029914686
2020-05-18T16:10:00	0.2165	12.133	195.0	0.522846495	0.629730771	0.009451405	0.097508399	0.030053036
2020-05-18T16:15:00	0.2163	12.116	195.0	0.522115835	0.628706896	0.009427245	0.097259145	0.029976213
2020-05-18T16:20:00	0.2166	12.098	195.0	0.523091031	0.630073537	0.009459497	0.097591891	0.030078769
2020-05-18T16:25:00	0.2163	12.077	195.0	0.522019216	0.628571536	0.009424052	0.097226208	0.029966062
2020-05-18T16:30:00	0.2164	12.058	195.0	0.522312117	0.628981904	0.009433732	0.097326072	0.029996841
2020-05-18T16:35:00	0.2154	12.038	195.0	0.518850120	0.624135931	0.009319639	0.096149002	0.029634056
2020-05-18T16:40:00	0.2150	12.019	195.0	0.517776982	0.622635765	0.009284415	0.095785595	0.029522051
2020-05-18T16:45:00	0.2154	11.995	195.0	0.519094941	0.624478303	0.009327685	0.096232004	0.029659638
2020-05-18T16:50:00	0.2150	11.972	195.0	0.517680241	0.622500574	0.009281243	0.095752869	0.029511964
2020-05-18T16:55:00	0.2146	11.950	195.0	0.516264957	0.620523652	0.009234898	0.095274735	0.029364599
2020-05-18T17:00:00	0.2147	11.928	195.0	0.516558350	0.620933341	0.009244495	0.095373755	0.029395118
2020-05-18T17:05:00	0.2150	11.904	195.0	0.517535124	0.622297795	0.009276485	0.095703788	0.029496837
2020-05-18T17:10:00	0.2147	11.880	195.0	0.516461574	0.620798197	0.009241329	0.095341088	0.029385049
2020-05-18T17:15:00	0.2137	11.856	194.0	0.513335774	0.616437206	0.009139347	0.094288959	0.029060773
2020-05-18T17:20:00	0.2137	11.831	194.0	0.513287341	0.616369696	0.009137771	0.094272703	0.029055763
2020-05-18T17:25:00	0.2147	11.807	194.0	0.516658180	0.621072758	0.009247762	0.095407460	0.029405506
2020-05-18T17:30:00	0.2146	11.783	194.0	0.516268016	0.620527922	0.009234998	0.095275767	0.029364917
2020-05-18T17:35:00	0.2150	11.759	194.0	0.517586554	0.622369659	0.009278171	0.095721181	0.029502198
2020-05-18T17:40:00	0.2142	11.735	194.0	0.514803738	0.618484266	0.009187170	0.094782341	0.029212838
2020-05-18T17:45:00	0.2136	11.711	194.0	0.512703033	0.615555392	0.009118772	0.094076693	0.028995350
2020-05-18T17:50:00	0.2126	11.686	194.0	0.509573801	0.611199124	0.009017360	0.093030445	0.028672886
2020-05-18T17:55:00	0.2130	11.661	194.0	0.510894916	0.613037312	0.009060106	0.093471442	0.028808806
2020-05-18T18:00:00	0.2133	11.636	194.0	0.511873305	0.614399541	0.009091827	0.093798706	0.028909672
2020-05-18T18:05:00	0.2134	11.611	194.0	0.512167074	0.614808711	0.009101363	0.093897082	0.028939992
2020-05-18T18:10:00	0.2128	11.585	194.0	0.510064751	0.611882063	0.009033234	0.093194205	0.028723359
2020-05-18T18:15:00	0.2131	11.559	194.0	0.511043377	0.613243967	0.009064916	0.093521064	0.028824100
2020-05-18T18:20:00	0.2131	11.534	193.0	0.510994912	0.613176502	0.009063345	0.093504863	0.028819107
2020-05-18T18:25:00	0.2128	11.509	193.0	0.510261724	0.612156118	0.009039606	0.093259948	0.028743622
2020-05-18T18:30:00	0.2132	11.482	193.0	0.511582574	0.613994670	0.009082395	0.093701399	0.028879681
2020-05-18T18:35:00	0.2129	11.457	193.0	0.510507159	0.612497643	0.009047549	0.093341897	0.028768879
2020-05-18T18:40:00	0.2129	11.430	193.0	0.510458686	0.612430189	0.009045980	0.093325710	0.028763890
2020-05-18T18:45:00	0.2136	11.404	192.0	0.512806037	0.615698921	0.009122120	0.094111232	0.029005996
2020-05-18T18:50:00	0.2140	11.377	193.0	0.514125907	0.617538821	0.009165072	0.094554362	0.029142573
2020-05-18T18:55:00	0.2149	11.349	192.0	0.517154232	0.621765635	0.009264004	0.095575024	0.029457151
2020-05-18T19:00:00	0.2150	11.322	193.0	0.517789210	0.622652853	0.009284816	0.095789732	0.029523326
2020-05-18T19:05:00	0.2155	11.295	192.0	0.519448660	0.624973050	0.009339315	0.096351990	0.029696619
2020-05-18T19:10:00	0.2155	11.268	193.0	0.519400314	0.624905422	0.009337725	0.096335586	0.029691563
2020-05-18T19:15:00	0.2164	11.242	193.0	0.522423992	0.629138665	0.009437430	0.097364229	0.030008601
2020-05-18T19:20:00	0.2168	11.217	192.0	0.523740171	0.630983672	0.009480997	0.097813701	0.030147132
2020-05-18T19:25:00	0.2170	11.192	192.0	0.524373933	0.631872575	0.009502011	0.098030499	0.030213952
2020-05-18T19:30:00	0.2171	11.168	192.0	0.524666634	0.632283223	0.009511725	0.098130708	0.030244837
2020-05-18T19:35:00	0.2167	11.143	192.0	0.523595310	0.630780538	0.009476197	0.097764180	0.030131870
2020-05-18T19:40:00	0.2168	11.119	192.0	0.523888077	0.631191093	0.009485899	0.097864275	0.030162720
2020-05-18T19:45:00	0.2171	11.096	191.0	0.524862771	0.632558434	0.009518236	0.098197887	0.030265542
2020-05-18T19:50:00	0.2170	11.072	191.0	0.524473537	0.632012307	0.009505316	0.098064594	0.030224460
2020-05-18T19:55:00	0.2173	11.049	191.0	0.525448064	0.633379878	0.009537680	0.098398491	0.030327371
2020-05-18T20:00:00	0.2170	11.025	191.0	0.524376984	0.631876856	0.009502113	0.098031544	0.030214274
2020-05-18T20:05:00	0.2175	11.000	191.0	0.526033259	0.634201462	0.009557141	0.098599267	0.030389252
2020-05-18T20:10:00	0.2169	10.975	191.0	0.524280429	0.631741407	0.009498909	0.097998498	0.030204089
2020-05-18T20:15:00	0.2169	10.951	191.0	0.524232150	0.631673685	0.009497308	0.097981977	0.030198997
2020-05-18T20:20:00	0.2165	10.926	191.0	0.522819563	0.629693025	0.009450514	0.097499207	0.030050202
2020-05-18T20:25:00	0.2161	10.901	191.0	0.521406396	0.627713171	0.009403816	0.097017435	0.029901716
2020-05-18T20:30:00	0.2168	10.876	191.0	0.523746274	0.630992231	0.009481199	0.097815787	0.030147776
2020-05-18T20:35:00	0.2162	10.850	190.0	0.521651035	0.628055795	0.009411892	0.097100751	0.029927394
2020-05-18T20:40:00	0.2166	10.826	190.0	0.522967509	0.629900391	0.009455409	0.097549713	0.030065769
2020-05-18T20:45:00	0.2166	10.800	190.0	0.523260330	0.630310872	0.009465102	0.097649716	0.030096591
2020-05-18T20:50:00	0.2166	10.775	190.0	0.523212037	0.630243169	0.009463503	0.097633219	0.030091506
2020-05-18T20:55:00	0.2163	10.750	190.0	0.522140260	0.628741115	0.009428052	0.097267472	0.029978779
2020-05-18T21:00:00	0.2157	10.725	190.0	0.520044041	0.625806039	0.009358907	0.096554120	0.029758918
2020-05-18T21:05:00	0.2156	10.701	190.0	0.519654261	0.625260671	0.009346078	0.096421767	0.029718125
2020-05-18T21:10:00	0.2156	10.677	190.0	0.519605917	0.625193039	0.009344488	0.096405358	0.029713068
2020-05-18T21:15:00	0.2152	10.653	189.0	0.518191428	0.623215019	0.009298011	0.095925861	0.029565282
2020-05-18T21:20:00	0.2147	10.628	189.0	0.516776355	0.621237805	0.009251630	0.095447365	0.029417805
2020-05-18T21:25:00	0.2148	10.604	189.0	0.517069704	0.621647554	0.009261236	0.095546460	0.029448347
2020-05-18T21:30:00	0.2143	10.580	189.0	0.515312295	0.619193849	0.009203767	0.094953567	0.029265611
2020-05-18T21:35:00	0.2152	10.556	189.0	0.518339573	0.623422109	0.009302873	0.095976024	0.029580743
2020-05-18T21:40:00	0.2147	10.531	189.0	0.516582814	0.620967505	0.009245296	0.095382014	0.029397663
2020-05-18T21:45:00	0.2147	10.509	189.0	0.516534427	0.620899933	0.009243713	0.095365679	0.029392629
2020-05-18T21:50:00	0.2149	10.486	189.0	0.517169519	0.621786992	0.009264505	0.095580190	0.029458743
2020-05-18T21:55:00	0.2149	10.460	189.0	0.517462835	0.622196787	0.009274116	0.095679343	0.029489303
2020-05-18T22:00:00	0.2145	10.437	189.0	0.516047461	0.620219989	0.009227786	0.095201363	0.029341985
2020-05-18T22:05:00	0.2144	10.414	188.0	0.515508966	0.619468319	0.009210189	0.095019825	0.029286033
2020-05-18T22:10:00	0.2149	10.393	189.0	0.517363027	0.622057337	0.009270845	0.095645598	0.029478902
2020-05-18T22:15:00	0.2148	10.371	188.0	0.516824739	0.621305382	0.009253214	0.095463706	0.029422841
2020-05-18T22:20:00	0.2153	10.351	188.0	0.518678089	0.623895382	0.009313988	0.096090699	0.029616087
2020-05-18T22:25:00	0.2155	10.329	188.0	0.519506172	0.625053502	0.009341207	0.096371506	0.029702634
2020-05-18T22:30:00	0.2153	10.306	188.0	0.518626676	0.623823496	0.009312300	0.096073278	0.029610717
2020-05-18T22:35:00	0.2151	10.283	188.0	0.518088585	0.623071267	0.009294636	0.095891045	0.029554551
2020-05-18T22:40:00	0.2152	10.261	188.0	0.518233678	0.623274078	0.009299397	0.095940166	0.029569691
2020-05-18T22:45:00	0.2148	10.239	187.0	0.517012151	0.621567158	0.009259351	0.095527015	0.029442354
2020-05-18T22:50:00	0.2152	10.219	187.0	0.518182258	0.623202201	0.009297710	0.095922756	0.029564325
2020-05-18T22:55:00	0.2162	10.197	187.0	0.521741557	0.628182587	0.009414881	0.097131589	0.029936899
2020-05-18T23:00:00	0.2173	10.176	187.0	0.525638057	0.633646588	0.009543997	0.098463654	0.030347454
2020-05-18T23:05:00	0.2174	10.157	187.0	0.525782832	0.633849841	0.009548811	0.098513322	0.030362763
2020-05-18T23:10:00	0.2182	10.135	188.0	0.528653213	0.637883160	0.009644514	0.099500676	0.030667075
2020-05-18T23:15:00	0.2187	10.113	187.0	0.530159803	0.640002827	0.009694939	0.100020895	0.030827411
2020-05-18T23:20:00	0.2188	10.092	187.0	0.530644775	0.640685542	0.009711198	0.100188644	0.030879113
2020-05-18T23:25:00	0.2194	10.071	187.0	0.532490700	0.643285877	0.009773213	0.100828432	0.031076302
2020-05-18T23:30:00	0.2196	10.049	187.0	0.533315468	0.644448617	0.009800985	0.101114955	0.031164611
2020-05-18T23:35:00	0.2201	10.029	187.0	0.535159965	0.647050954	0.009863238	0.101757213	0.031362561
2020-05-18T23:40:00	0.2204	10.008	187.0	0.535984096	0.648214589	0.009891118	0.102044840	0.031451211
2020-05-18T23:45:00	0.2195	9.986	187.0	0.533068613	0.644100548	0.009792668	0.101029155	0.031138167
2020-05-18T23:50:00	0.2194	9.965	186.0	0.532532775	0.643345180	0.009774628	0.100843039	0.031080804
2020-05-18T23:55:00	0.2191	9.946	187.0	0.531656600	0.642110546	0.009745166	0.100539083	0.030987122
2020-05-19T00:00:00	0.2190	9.925	186.0	0.531120543	0.641355486	0.009727163	0.100353346	0.030929876
2020-05-19T00:05:00	0.2188	9.904	186.0	0.530584403	0.640600543	0.009709174	0.100167754	0.030872674
2020-05-19T00:10:00	0.2185	9.883	186.0	0.529707733	0.639366602	0.009679794	0.099864654	0.030779256
2020-05-19T00:15:00	0.2185	9.863	186.0	0.529511872	0.639091006	0.009673237	0.099797000	0.030758405
2020-05-19T00:20:00	0.2179	9.843	186.0	0.527613072	0.636420830	0.009609779	0.099142317	0.030556625
2020-05-19T00:25:00	0.2174	9.824	186.0	0.525713225	0.633752116	0.009546496	0.098489440	0.030355402
2020-05-19T00:30:00	0.2175	9.806	185.0	0.526198823	0.634433956	0.009562651	0.098656108	0.030406771
2020-05-19T00:35:00	0.2173	9.786	186.0	0.525661916	0.633680083	0.009544790	0.098471838	0.030349977
2020-05-19T00:40:00	0.2167	9.768	186.0	0.523419924	0.630534623	0.009470387	0.097704241	0.030113396
2020-05-19T00:45:00	0.2163	9.749	185.0	0.522200239	0.628825149	0.009430034	0.097287922	0.029985082
2020-05-19T00:50:00	0.2164	9.729	186.0	0.522345158	0.629028201	0.009434824	0.097337341	0.030000314
2020-05-19T00:55:00	0.2162	9.709	185.0	0.521807650	0.628275165	0.009417063	0.097154107	0.029943839
2020-05-19T01:00:00	0.2159	9.689	185.0	0.520587393	0.626566486	0.009376805	0.096738772	0.029815829
2020-05-19T01:05:00	0.2155	9.669	185.0	0.519366703	0.624858407	0.009336620	0.096324182	0.029688049
2020-05-19T01:10:00	0.2153	9.648	185.0	0.518828728	0.624106018	0.009318937	0.096141751	0.029631821
2020-05-19T01:15:00	0.2158	9.629	185.0	0.520339624	0.626219692	0.009368642	0.096654549	0.029789871
2020-05-19T01:20:00	0.2150	9.612	185.0	0.517752526	0.622601588	0.009283613	0.095777321	0.029519501
2020-05-19T01:25:00	0.2151	9.593	185.0	0.517897633	0.622804380	0.009288372	0.095826418	0.029534633
2020-05-19T01:30:00	0.2143	9.574	184.0	0.515308693	0.619188824	0.009203649	0.094952353	0.029265237
2020-05-19T01:35:00	0.2143	9.554	184.0	0.515112010	0.618914369	0.009197229	0.094886114	0.029244822
2020-05-19T01:40:00	0.2142	9.535	184.0	0.514915316	0.618639931	0.009190810	0.094819894	0.029224412
2020-05-19T01:45:00	0.2144	9.516	184.0	0.515744307	0.619796796	0.009217877	0.095099142	0.029310479
2020-05-19T01:50:00	0.2145	9.497	184.0	0.515889499	0.619999470	0.009222622	0.095148093	0.029325566
2020-05-19T01:55:00	0.2142	9.478	184.0	0.515009075	0.618770745	0.009193870	0.094851457	0.029234140
2020-05-19T02:00:00	0.2146	9.459	184.0	0.516179865	0.620404844	0.009232115	0.095246026	0.029355750
2020-05-19T02:05:00	0.2143	9.440	184.0	0.515299516	0.619176016	0.009203350	0.094949262	0.029264285
2020-05-19T02:10:00	0.2138	9.421	184.0	0.513392846	0.616516760	0.009141204	0.094308117	0.029066678
2020-05-19T02:15:00	0.2142	9.402	183.0	0.514906137	0.618627125	0.009190511	0.094816805	0.029223460
2020-05-19T02:20:00	0.2139	9.384	184.0	0.514025460	0.617398749	0.009161800	0.094520602	0.029132167
2020-05-19T02:25:00	0.2134	9.366	184.0	0.512118082	0.614740469	0.009099772	0.093880672	0.028934935
2020-05-19T02:30:00	0.2130	9.347	183.0	0.510894374	0.613036556	0.009060088	0.093471260	0.028808750
2020-05-19T02:35:00	0.2132	9.327	184.0	0.511382072	0.613715490	0.009075894	0.093634320	0.028859007
2020-05-19T02:40:00	0.2134	9.308	184.0	0.512211918	0.614871178	0.009102819	0.093912103	0.028944622
2020-05-19T02:45:00	0.2136	9.290	183.0	0.512699429	0.615550370	0.009118655	0.094075485	0.028994978
2020-05-19T02:50:00	0.2133	9.273	183.0	0.511818185	0.614322775	0.009090039	0.093780254	0.028903985
2020-05-19T02:55:00	0.2139	9.255	183.0	0.514016279	0.617385946	0.009161501	0.094517516	0.029131216
2020-05-19T03:00:00	0.2134	9.241	183.0	0.512108896	0.614727673	0.009099474	0.093877595	0.028933987
2020-05-19T03:05:00	0.2129	9.225	183.0	0.510542834	0.612547290	0.009048704	0.093353812	0.028772552
2020-05-19T03:10:00	0.2129	9.210	183.0	0.510345877	0.612273213	0.009042329	0.093288042	0.028752281
2020-05-19T03:15:00	0.2119	9.193	183.0	0.507065862	0.607713478	0.008936492	0.092196145	0.028415747
2020-05-19T03:20:00	0.2123	9.179	183.0	0.508581950	0.609819999	0.008985335	0.092700043	0.028571054
2020-05-19T03:25:00	0.2119	9.164	183.0	0.507014274	0.607641832	0.008934833	0.092179023	0.028410470
2020-05-19T03:30:00	0.2114	9.148	183.0	0.505445878	0.605464648	0.008884450	0.091659231	0.028250265
2020-05-19T03:35:00	0.2107	9.133	183.0	0.502847502	0.601862050	0.008801293	0.090801315	0.027985847
2020-05-19T03:40:00	0.2110	9.118	182.0	0.504022459	0.603490432	0.008838847	0.091188756	0.028105260
2020-05-19T03:45:00	0.2112	9.103	182.0	0.504511138	0.604168023	0.008854490	0.091350140	0.028155000
2020-05-19T03:50:00	0.2113	9.088	183.0	0.504999747	0.604845709	0.008870144	0.091511644	0.028204777
2020-05-19T03:55:00	0.2112	9.076	182.0	0.504802470	0.604572070	0.008863822	0.091446420	0.028184675
2020-05-19T04:00:00	0.2107	9.063	182.0	0.502889942	0.601920849	0.008802648	0.090815295	0.027990156
2020-05-19T04:05:00	0.2112	9.050	182.0	0.504553557	0.604226850	0.008855848	0.091364156	0.028159320
2020-05-19T04:10:00	0.2111	9.039	182.0	0.504158942	0.603679656	0.008843215	0.091233815	0.028119148
2020-05-19T04:15:00	0.2113	9.028	182.0	0.505136191	0.605034987	0.008874518	0.091556769	0.028218685
2020-05-19T04:20:00	0.2112	9.018	182.0	0.504741642	0.604487702	0.008861873	0.091426313	0.028178478
2020-05-19T04:25:00	0.2114	9.009	182.0	0.505375857	0.605367495	0.008882204	0.091636059	0.028243123
2020-05-19T04:30:00	0.2122	9.001	182.0	0.508066262	0.609103271	0.008968706	0.092528491	0.028518180
2020-05-19T04:35:00	0.2123	8.993	182.0	0.508357292	0.609507732	0.008978089	0.092625288	0.028548013
2020-05-19T04:40:00	0.2117	8.986	182.0	0.506249560	0.606580039	0.008910249	0.091925401	0.028332301
2020-05-19T04:45:00	0.2115	8.978	182.0	0.505512286	0.605556793	0.008886580	0.091681210	0.028257039
2020-05-19T04:50:00	0.2118	8.973	182.0	0.506831904	0.607388571	0.008928967	0.092118507	0.028391819
2020-05-19T04:55:00	0.2123	8.965	182.0	0.508493602	0.609697193	0.008982485	0.092670642	0.028561992
2020-05-19T05:00:00	0.2127	8.960	182.0	0.509812070	0.611530546	0.009025062	0.093109903	0.028697377
2020-05-19T05:05:00	0.2127	8.957	182.0	0.509760524	0.611458843	0.009023396	0.093092711	0.028692078
2020-05-19T05:10:00	0.2123	8.953	182.0	0.508338900	0.609482169	0.008977496	0.092619169	0.028546127
2020-05-19T05:15:00	0.2119	8.950	182.0	0.506916685	0.607506305	0.008931694	0.092146638	0.028400489
2020-05-19T05:20:00	0.2120	8.947	182.0	0.507550496	0.608386649	0.008952091	0.092357073	0.028465347
2020-05-19T05:25:00	0.2120	8.945	182.0	0.507498916	0.608314993	0.008950430	0.092339938	0.028460066
2020-05-19T05:30:00	0.2123	8.943	182.0	0.508475210	0.609671629	0.008981892	0.092664522	0.028560105
2020-05-19T05:35:00	0.2129	8.943	182.0	0.510478502	0.612457764	0.009046622	0.093332327	0.028765930
2020-05-19T05:40:00	0.2126	8.945	182.0	0.509399674	0.610956952	0.009011734	0.092972398	0.028654996
2020-05-19T05:45:00	0.2128	8.946	182.0	0.510033026	0.611837926	0.009032207	0.093183619	0.028720096
2020-05-19T05:50:00	0.2139	8.949	182.0	0.513746069	0.617009182	0.009152701	0.094426729	0.029103235
2020-05-19T05:55:00	0.2139	8.952	182.0	0.514036617	0.617414306	0.009162163	0.094524351	0.029133323
2020-05-19T06:00:00	0.2134	8.957	182.0	0.512274590	0.614958481	0.009104854	0.093933099	0.028951093
2020-05-19T06:05:00	0.2128	8.963	182.0	0.510169269	0.612027479	0.009036615	0.093229087	0.028734110
2020-05-19T06:10:00	0.2126	8.971	182.0	0.509432840	0.611003076	0.009012805	0.092983453	0.028658403
2020-05-19T06:15:00	0.2134	8.980	182.0	0.512120059	0.614743222	0.009099836	0.093881334	0.028935139
2020-05-19T06:20:00	0.2144	8.992	182.0	0.515488986	0.619440434	0.009209537	0.095013093	0.029283958
2020-05-19T06:25:00	0.2148	9.007	182.0	0.516804766	0.621277486	0.009252560	0.095456960	0.029420762
2020-05-19T06:30:00	0.2143	9.022	182.0	0.515386062	0.619296794	0.009206176	0.094978416	0.029273270
2020-05-19T06:35:00	0.2145	9.046	182.0	0.516018309	0.620179290	0.009226833	0.095191531	0.029338954
2020-05-19T06:40:00	0.2152	9.074	182.0	0.518358802	0.623448989	0.009303504	0.095982536	0.029582750
2020-05-19T06:45:00	0.2147	9.097	182.0	0.516598994	0.620990102	0.009245825	0.095387477	0.029399347
2020-05-19T06:50:00	0.2146	9.126	182.0	0.516205765	0.620441005	0.009232962	0.095254764	0.029358443
2020-05-19T06:55:00	0.2148	9.154	182.0	0.516837860	0.621323709	0.009253644	0.095468138	0.029424207
2020-05-19T07:00:00	0.2143	9.189	183.0	0.515419170	0.619342998	0.009207257	0.094989570	0.029276708
2020-05-19T07:05:00	0.2142	9.220	183.0	0.515025805	0.618794088	0.009194415	0.094857089	0.029235876
2020-05-19T07:10:00	0.2144	9.271	183.0	0.515658118	0.619676492	0.009215061	0.095070090	0.029301525
2020-05-19T07:15:00	0.2142	9.302	183.0	0.514922868	0.618650467	0.009191057	0.094822436	0.029225196
2020-05-19T07:20:00	0.2144	9.321	183.0	0.515555199	0.619532845	0.009211699	0.095035405	0.029290835
2020-05-19T07:25:00	0.2149	9.349	183.0	0.517212673	0.621847278	0.009265919	0.095594775	0.029463238
2020-05-19T07:30:00	0.2154	9.408	184.0	0.518869346	0.624162816	0.009320271	0.096155518	0.029636065
2020-05-19T07:35:00	0.2153	9.467	184.0	0.518817935	0.624090926	0.009318582	0.096138092	0.029630694
2020-05-19T07:40:00	0.2160	9.513	184.0	0.521156521	0.627363264	0.009395571	0.096932374	0.029875499
2020-05-19T07:45:00	0.2153	9.544	184.0	0.518715111	0.623947148	0.009315204	0.096103244	0.029619953
2020-05-19T07:50:00	0.2159	9.574	184.0	0.520712431	0.626741516	0.009380927	0.096781290	0.029828933
2020-05-19T07:55:00	0.2167	9.617	184.0	0.523390833	0.630493837	0.009469424	0.097694302	0.030110333
2020-05-19T08:00:00	0.2161	9.657	184.0	0.521292323	0.627553425	0.009400051	0.096978598	0.029889746
2020-05-19T08:05:00	0.2161	9.709	185.0	0.521240949	0.627481485	0.009398356	0.096961110	0.029884356
2020-05-19T08:10:00	0.2162	9.764	185.0	0.521872118	0.628365471	0.009419193	0.097176075	0.029950610
2020-05-19T08:15:00	0.2160	9.821	185.0	0.521138197	0.627337607	0.009394966	0.096926137	0.029873577
2020-05-19T08:20:00	0.2161	9.865	185.0	0.521428120	0.627743594	0.009404533	0.097024832	0.029903996
2020-05-19T08:25:00	0.2162	9.922	186.0	0.521718018	0.628149616	0.009414103	0.097123569	0.029934427
2020-05-19T08:30:00	0.2161	9.980	186.0	0.521325374	0.627599708	0.009401142	0.096989850	0.029893214
2020-05-19T08:35:00	0.2174	10.030	186.0	0.525708013	0.633744799	0.009546323	0.098487652	0.030354851
2020-05-19T08:40:00	0.2177	10.089	186.0	0.527019887	0.635587269	0.009589998	0.098938238	0.030493726
2020-05-19T08:45:00	0.2171	10.164	186.0	0.524923590	0.632643780	0.009520256	0.098218723	0.030271964
2020-05-19T08:50:00	0.2173	10.244	187.0	0.525554085	0.633528705	0.009541205	0.098434851	0.030338577
2020-05-19T08:55:00	0.2176	10.330	187.0	0.526525257	0.634892419	0.009573519	0.098768227	0.030441327
2020-05-19T09:00:00	0.2181	10.423	187.0	0.528177452	0.637214179	0.009628618	0.099336682	0.030616530
2020-05-19T09:05:00	0.2172	10.521	188.0	0.525059244	0.632834148	0.009524761	0.098265203	0.030286290
2020-05-19T09:10:00	0.2168	10.613	189.0	0.523643945	0.630848736	0.009477809	0.097780805	0.030136994
2020-05-19T09:15:00	0.2173	10.674	188.0	0.525638404	0.633647075	0.009544008	0.098463773	0.030347491
2020-05-19T09:20:00	0.2169	10.750	189.0	0.524223344	0.631661332	0.009497016	0.097978964	0.030198068
2020-05-19T09:25:00	0.2168	10.795	189.0	0.523830986	0.631111027	0.009484007	0.097844752	0.030156703
2020-05-19T09:30:00	0.2172	10.868	189.0	0.525143576	0.632952502	0.009527562	0.098294105	0.030295198
2020-05-19T09:35:00	0.2167	10.922	190.0	0.523387240	0.630488799	0.009469305	0.097693074	0.030109954
2020-05-19T09:40:00	0.2171	10.998	190.0	0.524700000	0.632330038	0.009512832	0.098142135	0.030248359
2020-05-19T09:45:00	0.2172	11.036	190.0	0.524989622	0.632736443	0.009522449	0.098241347	0.030278937
2020-05-19T09:50:00	0.2177	11.091	190.0	0.526983302	0.635535868	0.009588778	0.098925658	0.030489849
2020-05-19T09:55:00	0.2173	11.140	190.0	0.525568794	0.633549354	0.009541694	0.098439896	0.030340132
2020-05-19T10:00:00	0.2180	11.187	191.0	0.527902797	0.636828065	0.009619448	0.099242070	0.030587370
2020-05-19T10:05:00	0.2170	11.207	191.0	0.524546026	0.632114007	0.009507722	0.098089411	0.030232109
2020-05-19T10:10:00	0.2171	11.252	191.0	0.524938303	0.632664426	0.009520744	0.098223763	0.030273518
2020-05-19T10:15:00	0.2167	11.318	191.0	0.523284553	0.630344832	0.009465904	0.097657991	0.030099141
2020-05-19T10:20:00	0.2163	11.385	192.0	0.521971253	0.628504344	0.009422468	0.097209861	0.029961023
2020-05-19T10:25:00	0.2159	11.412	192.0	0.520657452	0.626664554	0.009379114	0.096762594	0.029823171
2020-05-19T10:30:00	0.2142	11.446	192.0	0.514900909	0.618619831	0.009190340	0.094815045	0.029222918
2020-05-19T10:35:00	0.2151	11.486	192.0	0.518028341	0.622987062	0.009292659	0.095870653	0.029548266
2020-05-19T10:40:00	0.2135	11.530	193.0	0.512609559	0.615425150	0.009115735	0.094045356	0.028985692
2020-05-19T10:45:00	0.2123	11.580	193.0	0.508552734	0.609779387	0.008984392	0.092690320	0.028568057
2020-05-19T10:50:00	0.2112	11.641	193.0	0.504491093	0.604140226	0.008853848	0.091343518	0.028152959
2020-05-19T10:55:00	0.2112	11.694	193.0	0.504542719	0.604211820	0.008855501	0.091360575	0.028158217
2020-05-19T11:00:00	0.2111	11.746	194.0	0.504251365	0.603807803	0.008846173	0.091264334	0.028128554
2020-05-19T11:05:00	0.2109	11.798	194.0	0.503616941	0.602928296	0.008825877	0.091054944	0.028064018
2020-05-19T11:10:00	0.2106	11.875	194.0	0.502639257	0.601573558	0.008794645	0.090732732	0.027964709
2020-05-19T11:15:00	0.2093	11.924	194.0	0.498226988	0.595469219	0.008654383	0.089285677	0.027518713
2020-05-19T11:20:00	0.2078	11.969	194.0	0.493120832	0.588424418	0.008493465	0.087625511	0.027007034
2020-05-19T11:25:00	0.2077	12.037	195.0	0.492484334	0.587547728	0.008473511	0.087419653	0.026943586
2020-05-19T11:30:00	0.2077	12.102	195.0	0.492536142	0.587619075	0.008475134	0.087436400	0.026948748
2020-05-19T11:35:00	0.2075	12.166	195.0	0.491899534	0.586742533	0.008455199	0.087230727	0.026885357
2020-05-19T11:40:00	0.2064	12.225	195.0	0.488162631	0.581603754	0.008338646	0.086028272	0.026514749
2020-05-19T11:45:00	0.2052	12.276	196.0	0.484076593	0.575997655	0.008212122	0.084722953	0.026112437
2020-05-19T11:50:00	0.2051	12.328	196.0	0.483783482	0.575596014	0.008203083	0.084629696	0.026083694
2020-05-19T11:55:00	0.2051	12.393	196.0	0.483490344	0.575194408	0.008194048	0.084536482	0.026054965
2020-05-19T12:00:00	0.2050	12.460	197.0	0.483197182	0.574792835	0.008185017	0.084443311	0.026026249
2020-05-19T12:05:00	0.2054	12.522	196.0	0.484629333	0.576755241	0.008229182	0.084898951	0.026166681
2020-05-19T12:10:00	0.2056	12.594	197.0	0.485371141	0.577772347	0.008252104	0.085135436	0.026239568
2020-05-19T12:15:00	0.2049	12.645	197.0	0.483007903	0.574533598	0.008179189	0.084383183	0.026007716
2020-05-19T12:20:00	0.2037	12.697	198.0	0.478915647	0.568935826	0.008053684	0.083088378	0.025608645
2020-05-19T12:25:00	0.2040	12.751	198.0	0.480004174	0.570423512	0.008086974	0.083431824	0.025714499
2020-05-19T12:30:00	0.2038	12.785	198.0	0.479019678	0.569077964	0.008056863	0.083121171	0.025618752
2020-05-19T12:35:00	0.2035	12.804	198.0	0.478034895	0.567732798	0.008026798	0.082811000	0.025523154
2020-05-19T12:40:00	0.2032	12.793	198.0	0.477049825	0.566388013	0.007996781	0.082501313	0.025427706
2020-05-19T12:45:00	0.2028	12.784	198.0	0.475718598	0.564571894	0.007956303	0.082083712	0.025298997
2020-05-19T12:50:00	0.2024	12.781	198.0	0.474386846	0.562756471	0.007915911	0.081666994	0.025170561
2020-05-19T12:55:00	0.2021	12.781	198.0	0.473400714	0.561413099	0.007886067	0.081359098	0.025075664
2020-05-19T13:00:00	0.2025	12.790	198.0	0.474837013	0.563369973	0.007929553	0.081807738	0.025213939
2020-05-19T13:05:00	0.2029	12.801	198.0	0.475926853	0.564855912	0.007962629	0.082148972	0.025319111
2020-05-19T13:10:00	0.2021	12.805	198.0	0.473210886	0.561154593	0.007880328	0.081299895	0.025057417
2020-05-19T13:15:00	0.2022	12.815	198.0	0.473609112	0.561696928	0.007892369	0.081424118	0.025095704
2020-05-19T13:20:00	0.2015	12.815	198.0	0.471237646	0.558469143	0.007820799	0.080685745	0.024868130
2020-05-19T13:25:00	0.2005	12.803	198.0	0.467824579	0.553831487	0.007718359	0.079628887	0.024542396
2020-05-19T13:30:00	0.2009	12.787	198.0	0.469263252	0.555785219	0.007761458	0.080073535	0.024679441
2020-05-19T13:35:00	0.2014	12.764	198.0	0.470701312	0.557739762	0.007804658	0.080519214	0.024816804
2020-05-19T13:40:00	0.2005	12.751	198.0	0.467634438	0.553573395	0.007712672	0.079570212	0.024524312
2020-05-19T13:45:00	0.2001	12.747	198.0	0.466299494	0.551762197	0.007672800	0.079158864	0.024397531
2020-05-19T13:50:00	0.1999	12.734	198.0	0.465657934	0.550892258	0.007653674	0.078961548	0.024336716
2020-05-19T13:55:00	0.2000	12.706	198.0	0.466057052	0.551433414	0.007665570	0.079084271	0.024374540
2020-05-19T14:00:00	0.2000	12.689	198.0	0.466109266	0.551504220	0.007667127	0.079100333	0.024379491
2020-05-19T14:05:00	0.1988	12.670	198.0	0.461996477	0.545933657	0.007544972	0.077840083	0.023991070
2020-05-19T14:10:00	0.1986	12.663	198.0	0.461006715	0.544595075	0.007515719	0.077538285	0.023898052
2020-05-19T14:15:00	0.1985	12.683	198.0	0.460711595	0.544196096	0.007507007	0.077448408	0.023870352
2020-05-19T14:20:00	0.1991	12.689	198.0	0.462847799	0.547085629	0.007570178	0.078100130	0.024071218
2020-05-19T14:25:00	0.1987	12.688	198.0	0.461510957	0.545276928	0.007530615	0.077691966	0.023945418
2020-05-19T14:30:00	0.1991	12.680	198.0	0.462952326	0.547227111	0.007573276	0.078132088	0.024081068
2020-05-19T14:35:00	0.1996	12.681	198.0	0.464740113	0.549648283	0.007626354	0.078679688	0.024249844
2020-05-19T14:40:00	0.1987	12.683	198.0	0.461667808	0.545489070	0.007535252	0.077739801	0.023960162
2020-05-19T14:45:00	0.1994	12.688	198.0	0.463803406	0.548379400	0.007598521	0.078392539	0.024161342
2020-05-19T14:50:00	0.1993	12.689	198.0	0.463508531	0.547980099	0.007589769	0.078302252	0.024133515
2020-05-19T14:55:00	0.1982	12.700	198.0	0.459740112	0.542883216	0.007478365	0.077152912	0.023779277
2020-05-19T15:00:00	0.1986	12.710	198.0	0.461182240	0.544832403	0.007520902	0.077591764	0.023914535
2020-05-19T15:05:00	0.1980	12.712	198.0	0.459149623	0.542085583	0.007460982	0.076973575	0.023724003
2020-05-19T15:10:00	0.1991	12.706	198.0	0.463023228	0.547323084	0.007575377	0.078153770	0.024087751
2020-05-19T15:15:00	0.2001	12.700	198.0	0.466198724	0.551625535	0.007669794	0.079127855	0.024387973
2020-05-19T15:20:00	0.1997	12.684	198.0	0.464863211	0.549815086	0.007630015	0.078717462	0.024261486
2020-05-19T15:25:00	0.1996	12.657	198.0	0.464568428	0.549415663	0.007621249	0.078627019	0.024233611
2020-05-19T15:30:00	0.1998	12.636	198.0	0.465314650	0.550426907	0.007643450	0.078856068	0.024304206
2020-05-19T15:35:00	0.2004	12.616	198.0	0.467447938	0.553320275	0.007707095	0.079512681	0.024506580
2020-05-19T15:40:00	0.2007	12.600	198.0	0.468540165	0.554803053	0.007739782	0.079849899	0.024610514
2020-05-19T15:45:00	0.2007	12.584	198.0	0.468592340	0.554873910	0.007741345	0.079866026	0.024615485
2020-05-19T15:50:00	0.2000	12.566	198.0	0.465870465	0.551180409	0.007660008	0.079026886	0.024356854
2020-05-19T15:55:00	0.1989	12.549	198.0	0.462104689	0.546080053	0.007548173	0.077873114	0.024001250
2020-05-19T16:00:00	0.1989	12.527	197.0	0.462156965	0.546150778	0.007549720	0.077889073	0.024006169
2020-05-19T16:05:00	0.1988	12.505	197.0	0.461812773	0.545685152	0.007539538	0.077784024	0.023973792
2020-05-19T16:10:00	0.1986	12.480	197.0	0.461121175	0.544749834	0.007519099	0.077573156	0.023908800
2020-05-19T16:15:00	0.1988	12.458	197.0	0.461818988	0.545693559	0.007539722	0.077785921	0.023974376
2020-05-19T16:20:00	0.1985	12.432	197.0	0.460779986	0.544288549	0.007509025	0.077469232	0.023876770
2020-05-19T16:25:00	0.1988	12.409	197.0	0.461825204	0.545701967	0.007539906	0.077787817	0.023974961
2020-05-19T16:30:00	0.1988	12.384	197.0	0.461828311	0.545706170	0.007539998	0.077788765	0.023975253
2020-05-19T16:35:00	0.1993	12.360	196.0	0.463567548	0.548060010	0.007591521	0.078320318	0.024139083
2020-05-19T16:40:00	0.1992	12.335	196.0	0.463223500	0.547594194	0.007581315	0.078215028	0.024106631
2020-05-19T16:45:00	0.1997	12.313	197.0	0.464962016	0.549948980	0.007632955	0.078747788	0.024270833
2020-05-19T16:50:00	0.2002	12.291	196.0	0.466699636	0.552304945	0.007684741	0.079282053	0.024435499
2020-05-19T16:55:00	0.2007	12.268	196.0	0.468436360	0.554662091	0.007736672	0.079817820	0.024600627
2020-05-19T17:00:00	0.2006	12.245	196.0	0.468092809	0.554195621	0.007726386	0.079711696	0.024567919
2020-05-19T17:05:00	0.2013	12.224	196.0	0.470521730	0.557495593	0.007799257	0.080463492	0.024799630
2020-05-19T17:10:00	0.2013	12.202	196.0	0.470524830	0.557499808	0.007799350	0.080464453	0.024799926
2020-05-19T17:15:00	0.2017	12.182	196.0	0.471913327	0.559388352	0.007841158	0.080895785	0.024932866
2020-05-19T17:20:00	0.2027	12.161	196.0	0.475377432	0.564106688	0.007945946	0.081976858	0.025266064
2020-05-19T17:25:00	0.2030	12.139	196.0	0.476418138	0.565526062	0.007977561	0.082303024	0.025366591
2020-05-19T17:30:00	0.2034	12.119	196.0	0.477804217	0.567417815	0.008019764	0.082738428	0.025500787
2020-05-19T17:35:00	0.2032	12.098	195.0	0.477115889	0.566478178	0.007998792	0.082522064	0.025434102
2020-05-19T17:40:00	0.2032	12.079	195.0	0.477118983	0.566482400	0.007998886	0.082523036	0.025434401
2020-05-19T17:45:00	0.2032	12.060	196.0	0.477122077	0.566486622	0.007998981	0.082524008	0.025434701
2020-05-19T17:50:00	0.2039	12.040	195.0	0.479544520	0.569795189	0.008072909	0.083286711	0.025669773
2020-05-19T17:55:00	0.2043	12.021	195.0	0.480929320	0.571688648	0.008115321	0.083724273	0.025804634
2020-05-19T18:00:00	0.2040	12.002	196.0	0.479896182	0.570275878	0.008083669	0.083397720	0.025703987
2020-05-19T18:05:00	0.2047	11.984	195.0	0.482316643	0.573587090	0.008157921	0.084163770	0.025940091
2020-05-19T18:10:00	0.2049	11.965	195.0	0.483010092	0.574536596	0.008179256	0.084383878	0.026007931
2020-05-19T18:15:00	0.2057	11.947	195.0	0.485773213	0.578323819	0.008264541	0.085263751	0.026279116
2020-05-19T18:20:00	0.2055	11.929	195.0	0.485086502	0.577382021	0.008243305	0.085044656	0.026211589
2020-05-19T18:25:00	0.2055	11.910	195.0	0.485089588	0.577386253	0.008243400	0.085045640	0.026211892
2020-05-19T18:30:00	0.2054	11.891	195.0	0.484747724	0.576917539	0.008232838	0.084936672	0.026178307
2020-05-19T18:35:00	0.2059	11.874	194.0	0.486475211	0.579286972	0.008286279	0.085488012	0.026348236
2020-05-19T18:40:00	0.2058	11.856	194.0	0.486133486	0.578818071	0.008275694	0.085378808	0.026314578
2020-05-19T18:45:00	0.2059	11.837	194.0	0.486481381	0.579295440	0.008286470	0.085489984	0.026348843
2020-05-19T18:50:00	0.2053	11.820	194.0	0.484415086	0.576461565	0.008222567	0.084830711	0.026145649
2020-05-19T18:55:00	0.2057	11.802	194.0	0.485797899	0.578357682	0.008265305	0.085271632	0.026281545
2020-05-19T19:00:00	0.2057	11.784	194.0	0.485800985	0.578361915	0.008265401	0.085272617	0.026281849
2020-05-19T19:05:00	0.2062	11.767	194.0	0.487527936	0.580732068	0.008318930	0.085824864	0.026452057
2020-05-19T19:10:00	0.2067	11.748	194.0	0.489254010	0.583103400	0.008372603	0.086378598	0.026622723
2020-05-19T19:15:00	0.2071	11.731	194.0	0.490634854	0.585002163	0.008415664	0.086822852	0.026759646
2020-05-19T19:20:00	0.2084	11.713	194.0	0.495111806	0.591168813	0.008556031	0.088270994	0.027205977
2020-05-19T19:25:00	0.2080	11.696	194.0	0.493738935	0.589276083	0.008512864	0.087825651	0.027068719
2020-05-19T19:30:00	0.2081	11.679	194.0	0.494086053	0.589754499	0.008523768	0.087938146	0.027103391
2020-05-19T19:35:00	0.2081	11.662	194.0	0.494089131	0.589758742	0.008523865	0.087939144	0.027103698
2020-05-19T19:40:00	0.2087	11.645	194.0	0.496155709	0.592609018	0.008588927	0.088610373	0.027310577
2020-05-19T19:45:00	0.2088	11.629	194.0	0.496502580	0.593087767	0.008599871	0.088723286	0.027345378
2020-05-19T19:50:00	0.2090	11.612	194.0	0.497193141	0.594041163	0.008621681	0.088948290	0.027414727
2020-05-19T19:55:00	0.2083	11.596	194.0	0.494789414	0.590724206	0.008545884	0.088166313	0.027173714
2020-05-19T20:00:00	0.2081	11.579	193.0	0.494104522	0.589779957	0.008524349	0.087944133	0.027105236
2020-05-19T20:05:00	0.2083	11.563	194.0	0.494795569	0.590732694	0.008546078	0.088168311	0.027174330
2020-05-19T20:10:00	0.2087	11.548	193.0	0.496174167	0.592634491	0.008589509	0.088616379	0.027312429
2020-05-19T20:15:00	0.2090	11.532	193.0	0.497208518	0.594062397	0.008622167	0.088953304	0.027416272
2020-05-19T20:20:00	0.2091	11.516	193.0	0.497555282	0.594541291	0.008633129	0.089066399	0.027451129
2020-05-19T20:25:00	0.2087	11.500	193.0	0.496183396	0.592647228	0.008589800	0.088619383	0.027313354
2020-05-19T20:30:00	0.2092	11.485	193.0	0.497905085	0.595024482	0.008644194	0.089180559	0.027486314
2020-05-19T20:35:00	0.2096	11.471	193.0	0.499282426	0.596927984	0.008687832	0.089630765	0.027625072
2020-05-19T20:40:00	0.2095	11.455	193.0	0.498941985	0.596457349	0.008677036	0.089519381	0.027590743
2020-05-19T20:45:00	0.2090	11.441	193.0	0.497226970	0.594087878	0.008622750	0.088959320	0.027418126
2020-05-19T20:50:00	0.2094	11.426	193.0	0.498604585	0.595991008	0.008666343	0.089409060	0.027556741
2020-05-19T20:55:00	0.2095	11.412	193.0	0.498951207	0.596470096	0.008677328	0.089522398	0.027591672
2020-05-19T21:00:00	0.2096	11.397	193.0	0.499297793	0.596949231	0.008688320	0.089635795	0.027626622
2020-05-19T21:05:00	0.2100	11.384	193.0	0.500674571	0.598853497	0.008732051	0.090086959	0.027765676
2020-05-19T21:10:00	0.2106	11.370	192.0	0.502737163	0.601709187	0.008797770	0.090764973	0.027974646
2020-05-19T21:15:00	0.2110	11.356	193.0	0.504112554	0.603615342	0.008841730	0.091218499	0.028114427
2020-05-19T21:20:00	0.2112	11.342	193.0	0.504801577	0.604570830	0.008863794	0.091446124	0.028184584
2020-05-19T21:25:00	0.2109	11.326	192.0	0.503775665	0.603148306	0.008830952	0.091107308	0.028080157
2020-05-19T21:30:00	0.2105	11.309	192.0	0.502406279	0.601250842	0.008787211	0.090656034	0.027941070
2020-05-19T21:35:00	0.2103	11.292	192.0	0.501722915	0.600304518	0.008765423	0.090431253	0.027871790
2020-05-19T21:40:00	0.2103	11.274	192.0	0.501382718	0.599833551	0.008754586	0.090319455	0.027837333
2020-05-19T21:45:00	0.2097	11.254	192.0	0.499325455	0.596987476	0.008689197	0.089644848	0.027629413
2020-05-19T21:50:00	0.2098	11.233	192.0	0.499672004	0.597466663	0.008700195	0.089758310	0.027664383
2020-05-19T21:55:00	0.2104	11.209	192.0	0.501735201	0.600321527	0.008765814	0.090435292	0.027873035
2020-05-19T22:00:00	0.2106	11.185	192.0	0.502424703	0.601276362	0.008787799	0.090662098	0.027942939
2020-05-19T22:05:00	0.2104	11.160	192.0	0.501984319	0.600666467	0.008773754	0.090517205	0.027898282
2020-05-19T22:10:00	0.2109	11.134	191.0	0.503602875	0.602908800	0.008825427	0.091050304	0.028062588
2020-05-19T22:15:00	0.2114	11.107	192.0	0.505220664	0.605152179	0.008877227	0.091584712	0.028227298
2020-05-19T22:20:00	0.2114	11.081	191.0	0.505466461	0.605493208	0.008885110	0.091666043	0.028252365
2020-05-19T22:25:00	0.2111	11.054	191.0	0.504340561	0.603931483	0.008849028	0.091293792	0.028137633
2020-05-19T22:30:00	0.2111	11.027	191.0	0.504243439	0.603796814	0.008845919	0.091261717	0.028127747
2020-05-19T22:35:00	0.2110	11.001	191.0	0.503803290	0.603186600	0.008831836	0.091116423	0.028082967
2020-05-19T22:40:00	0.2111	10.976	191.0	0.504392189	0.604003074	0.008850681	0.091310845	0.028142889
2020-05-19T22:45:00	0.2108	10.950	191.0	0.503265935	0.602441832	0.008814658	0.090939199	0.028028344
2020-05-19T22:50:00	0.2103	10.924	190.0	0.501452821	0.599930594	0.008756819	0.090342487	0.027844432
2020-05-19T22:55:00	0.2097	10.898	190.0	0.499638743	0.597420668	0.008699139	0.089747417	0.027661026
2020-05-19T23:00:00	0.2098	10.873	190.0	0.499884942	0.597761149	0.008706956	0.089828063	0.027685881
2020-05-19T23:05:00	0.2097	10.849	190.0	0.499444230	0.597151700	0.008692966	0.089683728	0.027641396
2020-05-19T23:10:00	0.2094	10.825	190.0	0.498316342	0.595592684	0.008657213	0.089314866	0.027527709
2020-05-19T23:15:00	0.2091	10.803	190.0	0.497531771	0.594508819	0.008632385	0.089058729	0.027448765
2020-05-19T23:20:00	0.2088	10.779	190.0	0.496403249	0.592950662	0.008596736	0.088690945	0.027335411
2020-05-19T23:25:00	0.2080	10.756	190.0	0.493554412	0.589021803	0.008507071	0.087765879	0.027050296
2020-05-19T23:30:00	0.2073	10.735	190.0	0.491391847	0.586043733	0.008439317	0.087066877	0.026834857
2020-05-19T23:35:00	0.2084	10.714	189.0	0.495079592	0.591124382	0.008555017	0.088260531	0.027202753
2020-05-19T23:40:00	0.2081	10.695	189.0	0.493950257	0.589567326	0.008519502	0.087894128	0.027089824
2020-05-19T23:45:00	0.2084	10.674	190.0	0.494884818	0.590855768	0.008548886	0.088197284	0.027183260
2020-05-19T23:50:00	0.2077	10.653	189.0	0.492723098	0.587876555	0.008480993	0.087496846	0.026967378
2020-05-19T23:55:00	0.2080	10.633	189.0	0.493657996	0.589164541	0.008510323	0.087799430	0.027060637
2020-05-20T00:00:00	0.2079	10.611	189.0	0.493216478	0.588556186	0.008496465	0.087656466	0.027016574
2020-05-20T00:05:00	0.2087	10.589	189.0	0.496214704	0.592690436	0.008590788	0.088629572	0.027316495
2020-05-20T00:10:00	0.2089	10.566	189.0	0.496804914	0.593505126	0.008609416	0.088821760	0.027375729
2020-05-20T00:15:00	0.2098	10.543	189.0	0.499799986	0.597643653	0.008704258	0.089800230	0.027677303
2020-05-20T00:20:00	0.2102	10.522	189.0	0.501076278	0.599409398	0.008744831	0.090218809	0.027806313
2020-05-20T00:25:00	0.2092	10.499	189.0	0.497887726	0.595000501	0.008643645	0.089174892	0.027484568
2020-05-20T00:30:00	0.2095	10.475	189.0	0.498821208	0.596290405	0.008673207	0.089479883	0.027578569
2020-05-20T00:35:00	0.2094	10.452	188.0	0.498380359	0.595681144	0.008659240	0.089335782	0.027534156
2020-05-20T00:40:00	0.2091	10.430	188.0	0.497595803	0.594597259	0.008634410	0.089079620	0.027455204
2020-05-20T00:45:00	0.2097	10.407	188.0	0.499559928	0.597311680	0.008696638	0.089721608	0.027653071
2020-05-20T00:50:00	0.2090	10.387	188.0	0.497057469	0.593853823	0.008617394	0.088904062	0.027401095
2020-05-20T00:55:00	0.2093	10.366	188.0	0.497991178	0.595143418	0.008646919	0.089208666	0.027494977
2020-05-20T01:00:00	0.2087	10.346	188.0	0.496175257	0.592635996	0.008589543	0.088616734	0.027312538
2020-05-20T01:05:00	0.2086	10.326	188.0	0.495734065	0.592027199	0.008575632	0.088473216	0.027268304
2020-05-20T01:10:00	0.2084	10.306	188.0	0.494948900	0.590944140	0.008550903	0.088218090	0.027189672
2020-05-20T01:15:00	0.2074	10.286	188.0	0.491754605	0.586543026	0.008450663	0.087183937	0.026870936
2020-05-20T01:20:00	0.2078	10.265	188.0	0.493033915	0.588304682	0.008490739	0.087597386	0.026998365
2020-05-20T01:25:00	0.2073	10.244	187.0	0.491215347	0.585800841	0.008433799	0.087009950	0.026817312
2020-05-20T01:30:00	0.2076	10.222	187.0	0.492150659	0.587088267	0.008463060	0.087311831	0.026910354
2020-05-20T01:35:00	0.2071	10.200	187.0	0.490676003	0.585058770	0.008416949	0.086836108	0.026763732
2020-05-20T01:40:00	0.2068	10.178	187.0	0.489545206	0.583503690	0.008381674	0.086472189	0.026651568
2020-05-20T01:45:00	0.2062	10.155	187.0	0.487380088	0.580529060	0.008314340	0.085777516	0.026437463
2020-05-20T01:50:00	0.2060	10.131	187.0	0.486592991	0.579448607	0.008289929	0.085525667	0.026359841
2020-05-20T01:55:00	0.2058	10.107	187.0	0.486150554	0.578841488	0.008276222	0.085384260	0.026316258
2020-05-20T02:00:00	0.2064	10.084	187.0	0.488121295	0.581546973	0.008337361	0.086015017	0.026510664
2020-05-20T02:05:00	0.2058	10.060	187.0	0.485955268	0.578573564	0.008270176	0.085321882	0.026297033
2020-05-20T02:10:00	0.2052	10.036	187.0	0.484132907	0.576074827	0.008213860	0.084740875	0.026117961
2020-05-20T02:15:00	0.2054	10.014	186.0	0.484725218	0.576886686	0.008232143	0.084929501	0.026176097
2020-05-20T02:20:00	0.2055	9.990	186.0	0.484972499	0.577225706	0.008239782	0.085008310	0.026200387
2020-05-20T02:25:00	0.2052	9.968	186.0	0.483839800	0.575673180	0.008204820	0.084647610	0.026089216
2020-05-20T02:30:00	0.2049	9.947	186.0	0.483051881	0.574593829	0.008180543	0.084397151	0.026012022
2020-05-20T02:35:00	0.2051	9.926	186.0	0.483644381	0.575405434	0.008198795	0.084585457	0.026070059
2020-05-20T02:40:00	0.2053	9.907	186.0	0.484236778	0.576217179	0.008217064	0.084773939	0.026128151
2020-05-20T02:45:00	0.2059	9.888	186.0	0.486553432	0.579394317	0.008288703	0.085513018	0.026355943
2020-05-20T02:50:00	0.2066	9.870	186.0	0.488868506	0.582573577	0.008360600	0.086254773	0.026584559
2020-05-20T02:55:00	0.2068	9.853	186.0	0.489459992	0.583386544	0.008379019	0.086444796	0.026643126
2020-05-20T03:00:00	0.2065	9.838	186.0	0.488328790	0.581832008	0.008343811	0.086081562	0.026531174
2020-05-20T03:05:00	0.2066	9.822	186.0	0.488920369	0.582644849	0.008362215	0.086271426	0.026589691
2020-05-20T03:10:00	0.2067	9.807	186.0	0.489167344	0.582984280	0.008369904	0.086350753	0.026614141
2020-05-20T03:15:00	0.2064	9.793	185.0	0.488036045	0.581429875	0.008334712	0.085987685	0.026502239
2020-05-20T03:20:00	0.2057	9.780	185.0	0.485869964	0.578456540	0.008267536	0.085294642	0.026288637
2020-05-20T03:25:00	0.2058	9.768	185.0	0.486117161	0.578795672	0.008275188	0.085373592	0.026312970
2020-05-20T03:30:00	0.2053	9.759	185.0	0.484294886	0.576296818	0.008218858	0.084792438	0.026133853
2020-05-20T03:35:00	0.2053	9.748	185.0	0.484197192	0.576162926	0.008215843	0.084761337	0.026124267
2020-05-20T03:40:00	0.2051	9.741	185.0	0.483754443	0.575556227	0.008202188	0.084620460	0.026080847
2020-05-20T03:45:00	0.2058	9.733	185.0	0.486071426	0.578732924	0.008273772	0.085358982	0.026308467
2020-05-20T03:50:00	0.2059	9.726	185.0	0.486318608	0.579072076	0.008281427	0.085437958	0.026332808
2020-05-20T03:55:00	0.2065	9.719	185.0	0.488633842	0.582251121	0.008353299	0.086179441	0.026561341
2020-05-20T04:00:00	0.2067	9.712	185.0	0.489225369	0.583064033	0.008371711	0.086369395	0.026619886
2020-05-20T04:05:00	0.2063	9.708	185.0	0.487850119	0.581174512	0.008328935	0.085928088	0.026483871
2020-05-20T04:10:00	0.2063	9.703	185.0	0.487853203	0.581178747	0.008329031	0.085929076	0.026484176
2020-05-20T04:15:00	0.2067	9.699	185.0	0.489234617	0.583076744	0.008371999	0.086372366	0.026620802
2020-05-20T04:20:00	0.2070	9.696	185.0	0.490271079	0.584501797	0.008404309	0.086705706	0.026723541
2020-05-20T04:25:00	0.2070	9.694	185.0	0.490274160	0.584506036	0.008404405	0.086706698	0.026723846
2020-05-20T04:30:00	0.2072	9.692	185.0	0.490965986	0.585457721	0.008426006	0.086929554	0.026792533
2020-05-20T04:35:00	0.2069	9.691	185.0	0.489935900	0.584040859	0.008393853	0.086597838	0.026690295
2020-05-20T04:40:00	0.2073	9.691	185.0	0.491316467	0.585939995	0.008436960	0.087042563	0.026827363
2020-05-20T04:45:00	0.2073	9.691	185.0	0.491319548	0.585944235	0.008437056	0.087043556	0.026827669
2020-05-20T04:50:00	0.2072	9.691	185.0	0.490978310	0.585474678	0.008426391	0.086933527	0.026793757
2020-05-20T04:55:00	0.2077	9.692	185.0	0.492702633	0.587848369	0.008480352	0.087490229	0.026965338
2020-05-20T05:00:00	0.2071	9.694	185.0	0.490640119	0.585009407	0.008415828	0.086824548	0.026760169
2020-05-20T05:05:00	0.2069	9.696	185.0	0.489954392	0.584066286	0.008394430	0.086603788	0.026692128
2020-05-20T05:10:00	0.2069	9.699	185.0	0.489957473	0.584070524	0.008394526	0.086604779	0.026692434
2020-05-20T05:15:00	0.2075	9.702	185.0	0.492026561	0.586917410	0.008459175	0.087271747	0.026898000
2020-05-20T05:20:00	0.2080	9.706	185.0	0.493750353	0.589291818	0.008513223	0.087829350	0.027069859
2020-05-20T05:25:00	0.2083	9.709	185.0	0.494785440	0.590718726	0.008545759	0.088165023	0.027173316
2020-05-20T05:30:00	0.2090	9.713	185.0	0.497195321	0.594044173	0.008621750	0.088949001	0.027414946
2020-05-20T05:35:00	0.2090	9.718	185.0	0.497198396	0.594048420	0.008621847	0.088950004	0.027415255
2020-05-20T05:40:00	0.2085	9.724	185.0	0.495482503	0.591680140	0.008567705	0.088391435	0.027243099
2020-05-20T05:45:00	0.2088	9.732	185.0	0.496517064	0.593107761	0.008600328	0.088728003	0.027346832
2020-05-20T05:50:00	0.2082	9.738	185.0	0.494456862	0.590265675	0.008535424	0.088058398	0.027140453
2020-05-20T05:55:00	0.2079	9.747	185.0	0.493427832	0.588847386	0.008503097	0.087724889	0.027037663
2020-05-20T06:00:00	0.2084	9.754	185.0	0.495150915	0.591222753	0.008557262	0.088283696	0.027209893
2020-05-20T06:05:00	0.2084	9.762	185.0	0.495153992	0.591226997	0.008557359	0.088284696	0.027210201
2020-05-20T06:10:00	0.2082	9.771	185.0	0.494469173	0.590282649	0.008535811	0.088062392	0.027141684
2020-05-20T06:15:00	0.2086	9.781	185.0	0.495847903	0.592184267	0.008579220	0.088510236	0.027279714
2020-05-20T06:20:00	0.2086	9.790	185.0	0.495850980	0.592188512	0.008579317	0.088511236	0.027280023
2020-05-20T06:25:00	0.2092	9.800	185.0	0.497916489	0.595040236	0.008644555	0.089184281	0.027487462
2020-05-20T06:30:00	0.2091	9.812	185.0	0.497575912	0.594569786	0.008633781	0.089073130	0.027453204
2020-05-20T06:35:00	0.2091	9.824	186.0	0.497578987	0.594574033	0.008633879	0.089074133	0.027453513
2020-05-20T06:40:00	0.2087	9.834	186.0	0.496207111	0.592679956	0.008590548	0.088627101	0.027315733
2020-05-20T06:45:00	0.2092	9.845	186.0	0.497928788	0.595057227	0.008644944	0.089188297	0.027488699
2020-05-20T06:50:00	0.2084	9.860	186.0	0.495181687	0.591265196	0.008558231	0.088293692	0.027212973
2020-05-20T06:55:00	0.2093	9.876	186.0	0.498278553	0.595540469	0.008656016	0.089302521	0.027523904
2020-05-20T07:00:00	0.2092	9.889	186.0	0.497938012	0.595069970	0.008645236	0.089191308	0.027489627
2020-05-20T07:05:00	0.2086	9.903	186.0	0.495878669	0.592226719	0.008580190	0.088520242	0.027282798
2020-05-20T07:10:00	0.2088	9.915	186.0	0.496569357	0.593179943	0.008601979	0.088745031	0.027352081
2020-05-20T07:15:00	0.2085	9.923	186.0	0.495540965	0.591760790	0.008569547	0.088410437	0.027248955
2020-05-20T07:20:00	0.2070	9.943	186.0	0.490037604	0.584180713	0.008397025	0.086630562	0.026700381
2020-05-20T07:25:00	0.2073	9.976	186.0	0.491073821	0.585606096	0.008429376	0.086964317	0.026803247
2020-05-20T07:30:00	0.2076	9.998	186.0	0.492109723	0.587031904	0.008461778	0.087298607	0.026906279
2020-05-20T07:35:00	0.2070	10.013	186.0	0.490046849	0.584193427	0.008397314	0.086633537	0.026701297
2020-05-20T07:40:00	0.2083	10.044	186.0	0.494524575	0.590359032	0.008537554	0.088080366	0.027147224
2020-05-20T07:45:00	0.2088	10.062	186.0	0.496247103	0.592735150	0.008591810	0.088640116	0.027319745
2020-05-20T07:50:00	0.2091	10.079	186.0	0.497281431	0.594163085	0.008624471	0.088977078	0.027423600
2020-05-20T07:55:00	0.2098	10.096	186.0	0.499689548	0.597490924	0.008700752	0.089764056	0.027666154
2020-05-20T08:00:00	0.2105	10.112	187.0	0.502095966	0.600821073	0.008777314	0.090553927	0.027909600
2020-05-20T08:05:00	0.2103	10.122	186.0	0.501412540	0.599874833	0.008755536	0.090329252	0.027840353
2020-05-20T08:10:00	0.2103	10.131	187.0	0.501415612	0.599879085	0.008755634	0.090330261	0.027840664
2020-05-20T08:15:00	0.2100	10.146	187.0	0.500388681	0.598457948	0.008722961	0.089993181	0.027736772
2020-05-20T08:20:00	0.2099	10.159	187.0	0.500048351	0.597987163	0.008712146	0.089881609	0.027702385
2020-05-20T08:25:00	0.2106	10.164	187.0	0.502454516	0.601317656	0.008788750	0.090671911	0.027945964
2020-05-20T08:30:00	0.2114	10.169	187.0	0.505201905	0.605126154	0.008876625	0.091578506	0.028225385
2020-05-20T08:35:00	0.2113	10.181	187.0	0.504862055	0.604654715	0.008865731	0.091466117	0.028190746
2020-05-20T08:40:00	0.2116	10.191	187.0	0.505893776	0.606086200	0.008898824	0.091807522	0.028295970
2020-05-20T08:45:00	0.2113	10.207	187.0	0.504868192	0.604663227	0.008865928	0.091468146	0.028191371
2020-05-20T08:50:00	0.2112	10.221	187.0	0.504528308	0.604191834	0.008855040	0.091355813	0.028156749
2020-05-20T08:55:00	0.2109	10.228	187.0	0.503502313	0.602769421	0.008822212	0.091017137	0.028052366
2020-05-20T09:00:00	0.2101	10.244	187.0	0.500759700	0.598971291	0.008734758	0.090114892	0.027774285
2020-05-20T09:05:00	0.2099	10.277	187.0	0.500076007	0.598025416	0.008713025	0.089890673	0.027705178
2020-05-20T09:10:00	0.2099	10.316	187.0	0.500079080	0.598029666	0.008713123	0.089891680	0.027705489
2020-05-20T09:15:00	0.2097	10.345	187.0	0.499395250	0.597083976	0.008691412	0.089667694	0.027636454
2020-05-20T09:20:00	0.2100	10.370	187.0	0.500428624	0.598513208	0.008724231	0.090006280	0.027740810
2020-05-20T09:25:00	0.2099	10.403	188.0	0.500088298	0.598042417	0.008713416	0.089894702	0.027706420
2020-05-20T09:30:00	0.2092	10.433	188.0	0.497686613	0.594722690	0.008637282	0.089109251	0.027464337
2020-05-20T09:35:00	0.2087	10.464	188.0	0.495970966	0.592354077	0.008583100	0.088550265	0.027292052
2020-05-20T09:40:00	0.2088	10.494	188.0	0.496317856	0.592832801	0.008594042	0.088663146	0.027326843
2020-05-20T09:45:00	0.2087	10.528	188.0	0.495977119	0.592362568	0.008583294	0.088552266	0.027292668
2020-05-20T09:50:00	0.2081	10.556	187.0	0.493916590	0.589520924	0.008518444	0.087883217	0.027086461
2020-05-20T09:55:00	0.2077	10.593	188.0	0.492543237	0.587628846	0.008475357	0.087438693	0.026949454
2020-05-20T10:00:00	0.2078	10.621	188.0	0.492890476	0.588107097	0.008486241	0.087550981	0.026984063
2020-05-20T10:05:00	0.2078	10.646	189.0	0.492984842	0.588237084	0.008489200	0.087581509	0.026993472
2020-05-20T10:10:00	0.2085	10.671	189.0	0.495487216	0.591686641	0.008567854	0.088392967	0.027243571
2020-05-20T10:15:00	0.2086	10.680	189.0	0.495581510	0.591816725	0.008570825	0.088423617	0.027253018
2020-05-20T10:20:00	0.2096	10.684	189.0	0.499112676	0.596693306	0.008682448	0.089575219	0.027607952
2020-05-20T10:25:00	0.2097	10.707	189.0	0.499550358	0.597298447	0.008696334	0.089718474	0.027652105
2020-05-20T10:30:00	0.2094	10.729	189.0	0.498614002	0.596004023	0.008666641	0.089412139	0.027557689
2020-05-20T10:35:00	0.2087	10.763	189.0	0.495958660	0.592337096	0.008582712	0.088546261	0.027290818
2020-05-20T10:40:00	0.2085	10.803	189.0	0.495365226	0.591518359	0.008564011	0.088353322	0.027231352
2020-05-20T10:45:00	0.2090	10.837	189.0	0.497178503	0.594020950	0.008621218	0.088943518	0.027413256
2020-05-20T10:50:00	0.2090	10.871	189.0	0.496929033	0.593676488	0.008613336	0.088862203	0.027388194
2020-05-20T10:55:00	0.2085	10.921	190.0	0.495304229	0.591434221	0.008562090	0.088333503	0.027225243
2020-05-20T11:00:00	0.2085	10.915	190.0	0.495398528	0.591564298	0.008565060	0.088364144	0.027234687
2020-05-20T11:05:00	0.2089	10.914	190.0	0.496868065	0.593592312	0.008611411	0.088842336	0.027382071
2020-05-20T11:10:00	0.2098	10.921	190.0	0.499711060	0.597520674	0.008701435	0.089771102	0.027668325
2020-05-20T11:15:00	0.2100	10.923	190.0	0.500492057	0.598600968	0.008726247	0.090027085	0.027747222
2020-05-20T11:20:00	0.2104	10.929	190.0	0.501959400	0.600631961	0.008772960	0.090509009	0.027895756
2020-05-20T11:25:00	0.2108	10.931	190.0	0.503426113	0.602663812	0.008819777	0.090992009	0.028044621
2020-05-20T11:30:00	0.2108	10.926	190.0	0.503177100	0.602318730	0.008811819	0.090909916	0.028019319
2020-05-20T11:35:00	0.2111	10.933	190.0	0.504300314	0.603875676	0.008847740	0.091280499	0.028133536
2020-05-20T11:40:00	0.2110	10.946	190.0	0.504051364	0.603530506	0.008839772	0.091198298	0.028108201
2020-05-20T11:45:00	0.2108	10.964	190.0	0.503116242	0.602234401	0.008809875	0.090889859	0.028013137
2020-05-20T11:50:00	0.2106	10.982	190.0	0.502524053	0.601413974	0.008790969	0.090694802	0.027953019
2020-05-20T11:55:00	0.2102	10.975	190.0	0.501245230	0.599643240	0.008750209	0.090274292	0.027823413
2020-05-20T12:00:00	0.2104	10.972	190.0	0.502025876	0.600724013	0.008775079	0.090530873	0.027902494
2020-05-20T12:05:00	0.2102	10.977	190.0	0.501090199	0.599428665	0.008745274	0.090223380	0.027807722
2020-05-20T12:10:00	0.2105	10.981	190.0	0.502214100	0.600984675	0.008781081	0.090592792	0.027921578
2020-05-20T12:15:00	0.2104	10.991	190.0	0.501964998	0.600639713	0.008773138	0.090510850	0.027896323
2020-05-20T12:20:00	0.2106	11.025	190.0	0.502745480	0.601720709	0.008798036	0.090767712	0.027975490
2020-05-20T12:25:00	0.2106	11.052	190.0	0.502496417	0.601375694	0.008790087	0.090685704	0.027950215
2020-05-20T12:30:00	0.2105	11.071	190.0	0.502247336	0.601030704	0.008782141	0.090603728	0.027924949
2020-05-20T12:35:00	0.2095	11.101	191.0	0.498907822	0.596410126	0.008675953	0.089508208	0.027587299
2020-05-20T12:40:00	0.2089	11.126	191.0	0.496596495	0.593217405	0.008602836	0.088753870	0.027354805
2020-05-20T12:45:00	0.2085	11.141	191.0	0.495315447	0.591449695	0.008562443	0.088337148	0.027226367
2020-05-20T12:50:00	0.2088	11.139	191.0	0.496441253	0.593003117	0.008597936	0.088703318	0.027339224
2020-05-20T12:55:00	0.2090	11.139	190.0	0.497222999	0.594082395	0.008622624	0.088958025	0.027417727
2020-05-20T13:00:00	0.2092	11.150	191.0	0.497660923	0.594687206	0.008636470	0.089100868	0.027461753
2020-05-20T13:05:00	0.2092	11.178	191.0	0.497755157	0.594817371	0.008639451	0.089131620	0.027471231
2020-05-20T13:10:00	0.2087	11.207	191.0	0.496130747	0.592574570	0.008588139	0.088602250	0.027308074
2020-05-20T13:15:00	0.2090	11.230	191.0	0.497256284	0.594128358	0.008623676	0.088968878	0.027421072
2020-05-20T13:20:00	0.2089	11.246	191.0	0.496663076	0.593309315	0.008604938	0.088775555	0.027361488
2020-05-20T13:25:00	0.2086	11.256	191.0	0.495725926	0.592015968	0.008575376	0.088470569	0.027267489
2020-05-20T13:30:00	0.2084	11.264	191.0	0.495132451	0.591197287	0.008556681	0.088277699	0.027208044
2020-05-20T13:35:00	0.2088	11.269	191.0	0.496258317	0.592750628	0.008592163	0.088643766	0.027320870
2020-05-20T13:40:00	0.2083	11.272	191.0	0.494633193	0.590508794	0.008540970	0.088115610	0.027158087
2020-05-20T13:45:00	0.2081	11.282	191.0	0.494039528	0.589690370	0.008522306	0.087923064	0.027098742
2020-05-20T13:50:00	0.2080	11.294	191.0	0.493789828	0.589346220	0.008514462	0.087842140	0.027073801
2020-05-20T13:55:00	0.2079	11.303	191.0	0.493196016	0.588527996	0.008495823	0.087649844	0.027014533
2020-05-20T14:00:00	0.2076	11.315	191.0	0.492257911	0.587235940	0.008466419	0.087346480	0.026921034
2020-05-20T14:05:00	0.2074	11.320	192.0	0.491663832	0.586418077	0.008447824	0.087154638	0.026861906
2020-05-20T14:10:00	0.2073	11.320	192.0	0.491069648	0.585600354	0.008429245	0.086962971	0.026802832
2020-05-20T14:15:00	0.2075	11.321	192.0	0.491852629	0.586677962	0.008453731	0.087215582	0.026880689
2020-05-20T14:20:00	0.2074	11.322	191.0	0.491602768	0.586334028	0.008445913	0.087134931	0.026855832
2020-05-20T14:25:00	0.2079	11.321	192.0	0.493418050	0.588833907	0.008502790	0.087721721	0.027036686
2020-05-20T14:30:00	0.2079	11.321	192.0	0.493168305	0.588489818	0.008494954	0.087640875	0.027011769
2020-05-20T14:35:00	0.2085	11.333	191.0	0.495326665	0.591465168	0.008562796	0.088340793	0.027227490
2020-05-20T14:40:00	0.2077	11.338	192.0	0.492668759	0.587801715	0.008479290	0.087479275	0.026961962
2020-05-20T14:45:00	0.2078	11.334	192.0	0.493107268	0.588405733	0.008493039	0.087621122	0.027005681
2020-05-20T14:50:00	0.2082	11.325	192.0	0.494233804	0.589958168	0.008528412	0.087986051	0.027118156
2020-05-20T14:55:00	0.2080	11.315	191.0	0.493640070	0.589139838	0.008509760	0.087793623	0.027058847
2020-05-20T15:00:00	0.2085	11.305	191.0	0.495454265	0.591641185	0.008566816	0.088382258	0.027240270
2020-05-20T15:05:00	0.2086	11.296	192.0	0.495548560	0.591771268	0.008569786	0.088412906	0.027249716
2020-05-20T15:10:00	0.2091	11.289	192.0	0.497361740	0.594273991	0.008627010	0.089003267	0.027431671
2020-05-20T15:15:00	0.2090	11.279	192.0	0.497112283	0.593929510	0.008619126	0.088921930	0.027406602
2020-05-20T15:20:00	0.2092	11.268	192.0	0.497893876	0.595008996	0.008643840	0.089176899	0.027485186
2020-05-20T15:25:00	0.2091	11.257	191.0	0.497300779	0.594189803	0.008625083	0.088983387	0.027425544
2020-05-20T15:30:00	0.2094	11.247	192.0	0.498425929	0.595744115	0.008660683	0.089350672	0.027538745
2020-05-20T15:35:00	0.2095	11.237	192.0	0.498863698	0.596349136	0.008674554	0.089493778	0.027582851
2020-05-20T15:40:00	0.2102	11.226	191.0	0.501361761	0.599804541	0.008753919	0.090312570	0.027835211
2020-05-20T15:45:00	0.2101	11.218	191.0	0.500769267	0.598984529	0.008735063	0.090118031	0.027775252
2020-05-20T15:50:00	0.2098	11.214	192.0	0.499833245	0.597689650	0.008705315	0.089811126	0.027680661
2020-05-20T15:55:00	0.2101	11.216	192.0	0.500957560	0.599245097	0.008741053	0.090179833	0.027794300
2020-05-20T16:00:00	0.2097	11.215	192.0	0.499334675	0.597000224	0.008689490	0.089647866	0.027630343
2020-05-20T16:05:00	0.2092	11.213	191.0	0.497674663	0.594706185	0.008636904	0.089105352	0.027463135
2020-05-20T16:10:00	0.2089	11.212	191.0	0.496701427	0.593362258	0.008606148	0.088788047	0.027365338
2020-05-20T16:15:00	0.2088	11.211	191.0	0.496415554	0.592967645	0.008597125	0.088694951	0.027336645
2020-05-20T16:20:00	0.2087	11.209	191.0	0.496129657	0.592573065	0.008588105	0.088601895	0.027307965
2020-05-20T16:25:00	0.2083	11.209	192.0	0.494812048	0.590755417	0.008546596	0.088173660	0.027175978
2020-05-20T16:30:00	0.2082	11.208	192.0	0.494182022	0.589886786	0.008526784	0.087969260	0.027112980
2020-05-20T16:35:00	0.2078	11.206	191.0	0.492863659	0.588070158	0.008485400	0.087542306	0.026981389
2020-05-20T16:40:00	0.2075	11.200	192.0	0.491889046	0.586728094	0.008454870	0.087227340	0.026884313
2020-05-20T16:45:00	0.2073	11.199	192.0	0.491258478	0.585860194	0.008435147	0.087023860	0.026821599
2020-05-20T16:50:00	0.2063	11.200	191.0	0.487871706	0.581204160	0.008329606	0.085935007	0.026486004
2020-05-20T16:55:00	0.2060	11.198	191.0	0.486895661	0.579864025	0.008299312	0.085622469	0.026389677
2020-05-20T17:00:00	0.2058	11.196	191.0	0.485919335	0.578524268	0.008269064	0.085310407	0.026293496
2020-05-20T17:05:00	0.2050	11.194	191.0	0.483217548	0.574820730	0.008185644	0.084449782	0.026028243
2020-05-20T17:10:00	0.2043	11.193	192.0	0.480858988	0.571592445	0.008113164	0.083702022	0.025797776
2020-05-20T17:15:00	0.2043	11.187	191.0	0.480917155	0.571672007	0.008114948	0.083720424	0.025803448
2020-05-20T17:20:00	0.2042	11.181	191.0	0.480629951	0.571279186	0.008106143	0.083629583	0.025775450
2020-05-20T17:25:00	0.2039	11.176	191.0	0.479651819	0.569941846	0.008076191	0.083320574	0.025680210
2020-05-20T17:30:00	0.2037	11.170	191.0	0.478673404	0.568604883	0.008046285	0.083012042	0.025585117
2020-05-20T17:35:00	0.2034	11.163	191.0	0.477694707	0.567268297	0.008016426	0.082703987	0.025490172
2020-05-20T17:40:00	0.2034	11.154	191.0	0.477752927	0.567347786	0.008018200	0.082722296	0.025495815
2020-05-20T17:45:00	0.2033	11.142	191.0	0.477465455	0.566955323	0.008009439	0.082631909	0.025467957
2020-05-20T17:50:00	0.2031	11.128	191.0	0.476832200	0.566091023	0.007990157	0.082432973	0.025406643
2020-05-20T17:55:00	0.2032	11.115	191.0	0.477236187	0.566642370	0.008002455	0.082559858	0.025445750
2020-05-20T18:00:00	0.2024	11.104	191.0	0.474181435	0.562476583	0.007909690	0.081602812	0.025150779
2020-05-20T18:05:00	0.2024	11.090	191.0	0.474239717	0.562555993	0.007911455	0.081621020	0.025156391
2020-05-20T18:10:00	0.2020	11.076	191.0	0.472913577	0.560749778	0.007871345	0.081207214	0.025028852
2020-05-20T18:15:00	0.2019	11.061	191.0	0.472625693	0.560357861	0.007862651	0.081117520	0.025001208
2020-05-20T18:20:00	0.2023	11.046	191.0	0.474068515	0.562322735	0.007906271	0.081567540	0.025139908
2020-05-20T18:25:00	0.2028	11.031	190.0	0.475856614	0.564760115	0.007960495	0.082126958	0.025312326
2020-05-20T18:30:00	0.2028	11.015	191.0	0.475568980	0.564367866	0.007951760	0.082036842	0.025284552
2020-05-20T18:35:00	0.2032	10.999	190.0	0.477010546	0.566334407	0.007995585	0.082488976	0.025423904
2020-05-20T18:40:00	0.2029	10.981	190.0	0.476031368	0.564998462	0.007965804	0.082181732	0.025329208
2020-05-20T18:45:00	0.2029	10.965	190.0	0.476089617	0.565077913	0.007967574	0.082199994	0.025334836
2020-05-20T18:50:00	0.2031	10.945	190.0	0.476839485	0.566100964	0.007990378	0.082435260	0.025407348
2020-05-20T18:55:00	0.2024	10.926	190.0	0.474476477	0.562878609	0.007918626	0.081695007	0.025179195
2020-05-20T19:00:00	0.2029	10.907	190.0	0.475918509	0.564844532	0.007962375	0.082146356	0.025318305
2020-05-20T19:05:00	0.2027	10.886	190.0	0.475284965	0.563980618	0.007943140	0.081947909	0.025257141
2020-05-20T19:10:00	0.2031	10.866	190.0	0.476726653	0.565946998	0.007986945	0.082399839	0.025396431
2020-05-20T19:15:00	0.2035	10.844	190.0	0.478167727	0.567914195	0.008030850	0.082852804	0.025536039
2020-05-20T19:20:00	0.2040	10.824	190.0	0.479953661	0.570354455	0.008085428	0.083415871	0.025709582
2020-05-20T19:25:00	0.2041	10.804	189.0	0.480357276	0.570906298	0.008097788	0.083543384	0.025748882
2020-05-20T19:30:00	0.2035	10.782	189.0	0.477996724	0.567680674	0.008025634	0.082798989	0.025519453
2020-05-20T19:35:00	0.2042	10.760	189.0	0.480473625	0.571065400	0.008101352	0.083580159	0.025760217
2020-05-20T19:40:00	0.2038	10.738	189.0	0.479149927	0.569255937	0.008060844	0.083162237	0.025631409
2020-05-20T19:45:00	0.2037	10.717	189.0	0.478862573	0.568863315	0.008052063	0.083071650	0.025603489
2020-05-20T19:50:00	0.2046	10.696	189.0	0.482029401	0.573193896	0.008149092	0.084072679	0.025912016
2020-05-20T19:55:00	0.2049	10.676	189.0	0.483123106	0.574691377	0.008182736	0.084419777	0.026018995
2020-05-20T20:00:00	0.2051	10.657	189.0	0.483526343	0.575243723	0.008195157	0.084547926	0.026058492
2020-05-20T20:05:00	0.2050	10.638	189.0	0.483239360	0.574850606	0.008186316	0.084456713	0.026030379
2020-05-20T20:10:00	0.2053	10.619	189.0	0.484332674	0.576348609	0.008220024	0.084804469	0.026137561
2020-05-20T20:15:00	0.2055	10.600	189.0	0.485080719	0.577374092	0.008243126	0.085042812	0.026211021
2020-05-20T20:20:00	0.2052	10.583	189.0	0.484103871	0.576035036	0.008212964	0.084731634	0.026115112
2020-05-20T20:25:00	0.2050	10.565	189.0	0.483471856	0.575169081	0.008193478	0.084530605	0.026053153
2020-05-20T20:30:00	0.2053	10.547	189.0	0.484220092	0.576194310	0.008216550	0.084768627	0.026126514
2020-05-20T20:35:00	0.2054	10.528	189.0	0.484623199	0.576746831	0.008228992	0.084896997	0.026166079
2020-05-20T20:40:00	0.2056	10.510	188.0	0.485371180	0.577772401	0.008252105	0.085135448	0.026239572
2020-05-20T20:45:00	0.2059	10.492	189.0	0.486463808	0.579271324	0.008285926	0.085484367	0.026347112
2020-05-20T20:50:00	0.2053	10.473	189.0	0.484452521	0.576512875	0.008223723	0.084842633	0.026149323
2020-05-20T20:55:00	0.2055	10.454	188.0	0.485200540	0.577538394	0.008246830	0.085081020	0.026222797
2020-05-20T21:00:00	0.2054	10.433	188.0	0.484568730	0.576672165	0.008227310	0.084879646	0.026160731
2020-05-20T21:05:00	0.2052	10.413	188.0	0.483936802	0.575806095	0.008207811	0.084678470	0.026098727
2020-05-20T21:10:00	0.2047	10.391	188.0	0.482269253	0.573522216	0.008156464	0.084148738	0.025935458
2020-05-20T21:15:00	0.2049	10.370	187.0	0.483017754	0.574547090	0.008179492	0.084386311	0.026008681
2020-05-20T21:20:00	0.2051	10.347	188.0	0.483766089	0.575572185	0.008202547	0.084624164	0.026081989
2020-05-20T21:25:00	0.2053	10.326	187.0	0.484514260	0.576597501	0.008225629	0.084862296	0.026155384
2020-05-20T21:30:00	0.2064	10.304	187.0	0.488020470	0.581408483	0.008334228	0.085982691	0.026500701
2020-05-20T21:35:00	0.2067	10.281	188.0	0.489112246	0.582908551	0.008368188	0.086333052	0.026608685
2020-05-20T21:40:00	0.2072	10.260	187.0	0.490892430	0.585356518	0.008423708	0.086905846	0.026785226
2020-05-20T21:45:00	0.2076	10.239	188.0	0.492327500	0.587331761	0.008468598	0.087368966	0.026927964
2020-05-20T21:50:00	0.2071	10.216	188.0	0.490664068	0.585042352	0.008416576	0.086832263	0.026762547
2020-05-20T21:55:00	0.2066	10.194	187.0	0.488999822	0.582754039	0.008364688	0.086296942	0.026597556
2020-05-20T22:00:00	0.2067	10.171	187.0	0.489057849	0.582833788	0.008366494	0.086315579	0.026603300
2020-05-20T22:05:00	0.2065	10.147	187.0	0.488469376	0.582025151	0.008348183	0.086126664	0.026545074
2020-05-20T22:10:00	0.2063	10.124	186.0	0.487880802	0.581216652	0.008329888	0.085937922	0.026486902
2020-05-20T22:15:00	0.2066	10.102	187.0	0.488670684	0.582301743	0.008354445	0.086191266	0.026564985
2020-05-20T22:20:00	0.2067	10.078	187.0	0.489115875	0.582913539	0.008368301	0.086334218	0.026609044
2020-05-20T22:25:00	0.2067	10.054	186.0	0.489216511	0.583051858	0.008371435	0.086366549	0.026619009
2020-05-20T22:30:00	0.2069	10.030	186.0	0.490006082	0.584137367	0.008396042	0.086620419	0.026697254
2020-05-20T22:35:00	0.2071	10.006	186.0	0.490451099	0.584749398	0.008409927	0.086763668	0.026741405
2020-05-20T22:40:00	0.2069	9.982	186.0	0.489862867	0.583940437	0.008391576	0.086574344	0.026683054
2020-05-20T22:45:00	0.2073	9.960	186.0	0.491340957	0.585973697	0.008437726	0.087050462	0.026829798
2020-05-20T22:50:00	0.2074	9.936	186.0	0.491441527	0.586112105	0.008440870	0.087082904	0.026839797
2020-05-20T22:55:00	0.2073	9.913	186.0	0.491197798	0.585776692	0.008433251	0.087004291	0.026815568
2020-05-20T23:00:00	0.2071	9.888	186.0	0.490609696	0.584967556	0.008414878	0.086814748	0.026757148
2020-05-20T23:05:00	0.2073	9.863	186.0	0.491398944	0.586053500	0.008439539	0.087069167	0.026835563
2020-05-20T23:10:00	0.2068	9.840	186.0	0.489433186	0.583349695	0.008378184	0.086436180	0.026640470
2020-05-20T23:15:00	0.2071	9.816	185.0	0.490567102	0.584908964	0.008413548	0.086801028	0.026752920
2020-05-20T23:20:00	0.2069	9.791	186.0	0.489978891	0.584099976	0.008395194	0.086611670	0.026694558
2020-05-20T23:25:00	0.2069	9.767	185.0	0.489735057	0.583764703	0.008387591	0.086533235	0.026670383
2020-05-20T23:30:00	0.2074	9.743	185.0	0.491557497	0.586271717	0.008444497	0.087120322	0.026851329
2020-05-20T23:35:00	0.2075	9.719	185.0	0.492002310	0.586884022	0.008458416	0.087263915	0.026895586
2020-05-20T23:40:00	0.2074	9.694	185.0	0.491414347	0.586074699	0.008440021	0.087074136	0.026837094
2020-05-20T23:45:00	0.2074	9.669	185.0	0.491514915	0.586213110	0.008443166	0.087106582	0.026847095
2020-05-20T23:50:00	0.2069	9.646	185.0	0.489893688	0.583982815	0.008392537	0.086584259	0.026686109
2020-05-20T23:55:00	0.2073	9.622	185.0	0.491371764	0.586016094	0.008438689	0.087060399	0.026832860
2020-05-21T00:00:00	0.2063	9.598	184.0	0.487683078	0.580945109	0.008323747	0.085874562	0.026467374
2020-05-21T00:05:00	0.2067	9.574	185.0	0.489162116	0.582977093	0.008369741	0.086349073	0.026613623
2020-05-21T00:10:00	0.2060	9.552	184.0	0.486850326	0.579801799	0.008297906	0.085607966	0.026385207
2020-05-21T00:15:00	0.2050	9.528	184.0	0.483156724	0.574737421	0.008183771	0.084430457	0.026022287
2020-05-21T00:20:00	0.2049	9.502	184.0	0.482912399	0.574402807	0.008176249	0.084352852	0.025998368
2020-05-21T00:25:00	0.2048	9.479	184.0	0.482668057	0.574068217	0.008168730	0.084275277	0.025974459
2020-05-21T00:30:00	0.2043	9.455	184.0	0.481042598	0.571843603	0.008118795	0.083760116	0.025815681
2020-05-21T00:35:00	0.2047	9.431	184.0	0.482179321	0.573399107	0.008153700	0.084120216	0.025926667
2020-05-21T00:40:00	0.2043	9.408	183.0	0.480899005	0.571647181	0.008114392	0.083714682	0.025801678
2020-05-21T00:45:00	0.2043	9.386	183.0	0.480999885	0.571785173	0.008117485	0.083746600	0.025811515
2020-05-21T00:50:00	0.2045	9.361	183.0	0.481446083	0.572395618	0.008131176	0.083887848	0.025855049
2020-05-21T00:55:00	0.2039	9.338	183.0	0.479474551	0.569699560	0.008070769	0.083264633	0.025662968
2020-05-21T01:00:00	0.2035	9.312	183.0	0.478193212	0.567949000	0.008031628	0.082860826	0.025538511
2020-05-21T01:05:00	0.2025	9.288	183.0	0.474836151	0.563368798	0.007929527	0.081807468	0.025213856
2020-05-21T01:10:00	0.2025	9.267	183.0	0.474591226	0.563034986	0.007922103	0.081730878	0.025190250
2020-05-21T01:15:00	0.2019	9.244	183.0	0.472615694	0.560344250	0.007862349	0.081114406	0.025000248
2020-05-21T01:20:00	0.2019	9.223	183.0	0.472716821	0.560481913	0.007865402	0.081145907	0.025009957
2020-05-21T01:25:00	0.2022	9.199	183.0	0.473510246	0.561562273	0.007889379	0.081393269	0.025086196
2020-05-21T01:30:00	0.2020	9.176	183.0	0.472919067	0.560757251	0.007871511	0.081208925	0.025029379
2020-05-21T01:35:00	0.2018	9.152	183.0	0.472327784	0.559952367	0.007853659	0.081024755	0.024972616
2020-05-21T01:40:00	0.2014	9.127	183.0	0.470697349	0.557734374	0.007804538	0.080517984	0.024816425
2020-05-21T01:45:00	0.2021	9.103	183.0	0.473222412	0.561170289	0.007880677	0.081303489	0.025058525
2020-05-21T01:50:00	0.2020	9.078	182.0	0.472977370	0.560836632	0.007873272	0.081227096	0.025034980
2020-05-21T01:55:00	0.2023	9.055	182.0	0.474116804	0.562388525	0.007907733	0.081582622	0.025144557
2020-05-21T02:00:00	0.2022	9.032	182.0	0.473525731	0.561583362	0.007889847	0.081398100	0.025087685
2020-05-21T02:05:00	0.2020	9.007	182.0	0.472934554	0.560778337	0.007871979	0.081213751	0.025030867
2020-05-21T02:10:00	0.2021	8.981	182.0	0.473381818	0.561387366	0.007885496	0.081353204	0.025073848
2020-05-21T02:15:00	0.2016	8.958	182.0	0.471405578	0.558697567	0.007825857	0.080737923	0.024884212
2020-05-21T02:20:00	0.2017	8.932	182.0	0.471853044	0.559306327	0.007839341	0.080877035	0.024927088
2020-05-21T02:25:00	0.2014	8.909	181.0	0.470915212	0.558030626	0.007811093	0.080585609	0.024837267
2020-05-21T02:30:00	0.2014	8.886	182.0	0.471016390	0.558168221	0.007814138	0.080617025	0.024846950
2020-05-21T02:35:00	0.2012	8.864	181.0	0.470078326	0.556892827	0.007785929	0.080325990	0.024757250
2020-05-21T02:40:00	0.2008	8.842	181.0	0.468793420	0.555147001	0.007747370	0.079928191	0.024634645
2020-05-21T02:45:00	0.2007	8.819	182.0	0.468548056	0.554813770	0.007740018	0.079852338	0.024611266
2020-05-21T02:50:00	0.2006	8.793	181.0	0.467956007	0.554009899	0.007722291	0.079669456	0.024554900
2020-05-21T02:55:00	0.2008	8.768	181.0	0.468750551	0.555088778	0.007746085	0.079914936	0.024630559
2020-05-21T03:00:00	0.2009	8.745	181.0	0.469198369	0.555697072	0.007759512	0.080053456	0.024673252
2020-05-21T03:05:00	0.2005	8.722	181.0	0.467913128	0.553951689	0.007721008	0.079656219	0.024550820
2020-05-21T03:10:00	0.2008	8.700	181.0	0.468707682	0.555030554	0.007744801	0.079901681	0.024626474
2020-05-21T03:15:00	0.2011	8.677	181.0	0.469848557	0.556580540	0.007779027	0.080254784	0.024735304
2020-05-21T03:20:00	0.2019	8.656	181.0	0.472720468	0.560486877	0.007865513	0.081147043	0.025010307
2020-05-21T03:25:00	0.2024	8.634	181.0	0.474206049	0.562510120	0.007910435	0.081610501	0.025153149
2020-05-21T03:30:00	0.2025	8.613	180.0	0.474653144	0.563119371	0.007923980	0.081750237	0.025196217
2020-05-21T03:35:00	0.2027	8.593	180.0	0.475446115	0.564200334	0.007948030	0.081998364	0.025272692
2020-05-21T03:40:00	0.2026	8.572	180.0	0.474855274	0.563394863	0.007930107	0.081813450	0.025215700
2020-05-21T03:45:00	0.2026	8.552	180.0	0.474956334	0.563532615	0.007933171	0.081845064	0.025225444
2020-05-21T03:50:00	0.2026	8.533	180.0	0.475057392	0.563670371	0.007936236	0.081876683	0.025235189
2020-05-21T03:55:00	0.2021	8.515	180.0	0.473428273	0.561450633	0.007886900	0.081367695	0.025078314
2020-05-21T04:00:00	0.2025	8.495	180.0	0.474567555	0.563002727	0.007921386	0.081723478	0.025187970
2020-05-21T04:05:00	0.2020	8.476	180.0	0.472837080	0.560645630	0.007869034	0.081183375	0.025021505
2020-05-21T04:10:00	0.2016	8.458	180.0	0.471452061	0.558760798	0.007827257	0.080752368	0.024888664
2020-05-21T04:15:00	0.2016	8.440	180.0	0.471452061	0.558760798	0.007827257	0.080752368	0.024888664
2020-05-21T04:20:00	0.2026	8.424	180.0	0.474913544	0.563474288	0.007931874	0.081831677	0.025221318
2020-05-21T04:25:00	0.2032	8.406	179.0	0.476988733	0.566304638	0.007994921	0.082482126	0.025421792
2020-05-21T04:30:00	0.2031	8.391	179.0	0.476642957	0.565832796	0.007984399	0.082373569	0.025388334
2020-05-21T04:35:00	0.2023	8.375	179.0	0.473875471	0.562059747	0.007900428	0.081507258	0.025121328
2020-05-21T04:40:00	0.2026	8.361	179.0	0.474913544	0.563474288	0.007931874	0.081831677	0.025221318
2020-05-21T04:45:00	0.2031	8.348	179.0	0.476642957	0.565832796	0.007984399	0.082373569	0.025388334
2020-05-21T04:50:00	0.2027	8.337	180.0	0.475259497	0.563945895	0.007942367	0.081939936	0.025254684
2020-05-21T04:55:00	0.2029	8.326	179.0	0.475951298	0.564889252	0.007963371	0.082156633	0.025321472
2020-05-21T05:00:00	0.2028	8.315	179.0	0.475605415	0.564417550	0.007952866	0.082048255	0.025288069
2020-05-21T05:05:00	0.2039	8.304	179.0	0.479408181	0.569608853	0.008068739	0.083243693	0.025656515
2020-05-21T05:10:00	0.2038	8.296	179.0	0.479062651	0.569136682	0.008058176	0.083134719	0.025622928
2020-05-21T05:15:00	0.2036	8.291	179.0	0.478371486	0.568192479	0.008037068	0.082916950	0.025555809
2020-05-21T05:20:00	0.2036	8.286	179.0	0.478371486	0.568192479	0.008037068	0.082916950	0.025555809
2020-05-21T05:25:00	0.2039	8.281	179.0	0.479408181	0.569608853	0.008068739	0.083243693	0.025656515
2020-05-21T05:30:00	0.2045	8.279	179.0	0.481480618	0.572442871	0.008132236	0.083898785	0.025858420
2020-05-21T05:35:00	0.2044	8.279	179.0	0.481135299	0.571970417	0.008121639	0.083789454	0.025824723
2020-05-21T05:40:00	0.2050	8.279	179.0	0.483206681	0.574805846	0.008185309	0.084446329	0.026027179
2020-05-21T05:45:00	0.2053	8.280	179.0	0.484241897	0.576224195	0.008217222	0.084775568	0.026128653
2020-05-21T05:50:00	0.2058	8.284	179.0	0.485966556	0.578589050	0.008270526	0.085325487	0.026298144
2020-05-21T05:55:00	0.2051	8.290	179.0	0.483551788	0.575278582	0.008195941	0.084556016	0.026060985
2020-05-21T06:00:00	0.2049	8.297	178.0	0.482861538	0.574333157	0.008174683	0.084336701	0.025993390
2020-05-21T06:05:00	0.2051	8.306	179.0	0.483551788	0.575278582	0.008195941	0.084556016	0.026060985
2020-05-21T06:10:00	0.2055	8.316	179.0	0.484931866	0.577169996	0.008238526	0.084995358	0.026196395
2020-05-21T06:15:00	0.2056	8.325	179.0	0.485276798	0.577642967	0.008249187	0.085105342	0.026230293
2020-05-21T06:20:00	0.2059	8.336	179.0	0.486311383	0.579062162	0.008281203	0.085435649	0.026332097
2020-05-21T06:25:00	0.2064	8.350	179.0	0.488034991	0.581428428	0.008334679	0.085987347	0.026502135
2020-05-21T06:30:00	0.2068	8.364	179.0	0.489413248	0.583322287	0.008377563	0.086429771	0.026638495
2020-05-21T06:35:00	0.2066	8.380	179.0	0.488724189	0.582375263	0.008356109	0.086208440	0.026570279
2020-05-21T06:40:00	0.2066	8.398	179.0	0.488724189	0.582375263	0.008356109	0.086208440	0.026570279
2020-05-21T06:45:00	0.2066	8.417	180.0	0.488724189	0.582375263	0.008356109	0.086208440	0.026570279
2020-05-21T06:50:00	0.2069	8.439	180.0	0.489757725	0.583795869	0.008388298	0.086540525	0.026672630
2020-05-21T06:55:00	0.2080	8.461	180.0	0.493544670	0.589008377	0.008506765	0.087762724	0.027049324
2020-05-21T07:00:00	0.2083	8.488	180.0	0.494576742	0.590430958	0.008539194	0.088097292	0.027152441
2020-05-21T07:05:00	0.2087	8.518	180.0	0.495952351	0.592328390	0.008582513	0.088544209	0.027290185
2020-05-21T07:10:00	0.2081	8.566	180.0	0.493888728	0.589482524	0.008517569	0.087874188	0.027083678
2020-05-21T07:15:00	0.2082	8.607	180.0	0.494232752	0.589956717	0.008528379	0.087985710	0.027118050
2020-05-21T07:20:00	0.2082	8.635	180.0	0.494232752	0.589956717	0.008528379	0.087985710	0.027118050
2020-05-21T07:25:00	0.2086	8.672	181.0	0.495608501	0.591853962	0.008571675	0.088432391	0.027255722
2020-05-21T07:30:00	0.2089	8.711	181.0	0.496639948	0.593277388	0.008604207	0.088768022	0.027359166
2020-05-21T07:35:00	0.2088	8.753	181.0	0.496296167	0.592802866	0.008593358	0.088656086	0.027324667
2020-05-21T07:40:00	0.2093	8.792	181.0	0.498014725	0.595175949	0.008647664	0.089216355	0.027497347
2020-05-21T07:45:00	0.2095	8.820	181.0	0.498701905	0.596125511	0.008669426	0.089440875	0.027566546
2020-05-21T07:50:00	0.2095	8.852	181.0	0.498701905	0.596125511	0.008669426	0.089440875	0.027566546
2020-05-21T07:55:00	0.2098	8.897	181.0	0.499732417	0.597550208	0.008702113	0.089778097	0.027670481
2020-05-21T08:00:00	0.2094	8.933	181.0	0.498358332	0.595650707	0.008658542	0.089328585	0.027531938
2020-05-21T08:05:00	0.2097	8.985	182.0	0.499388947	0.597075262	0.008691212	0.089665631	0.027635818
2020-05-21T08:10:00	0.2103	9.016	181.0	0.501449244	0.599925642	0.008756705	0.090341311	0.027844070
2020-05-21T08:15:00	0.2098	9.072	182.0	0.499732417	0.597550208	0.008702113	0.089778097	0.027670481
2020-05-21T08:20:00	0.2094	9.129	182.0	0.498358332	0.595650707	0.008658542	0.089328585	0.027531938
2020-05-21T08:25:00	0.2097	9.182	182.0	0.499388947	0.597075262	0.008691212	0.089665631	0.027635818
2020-05-21T08:30:00	0.2100	9.248	183.0	0.500419251	0.598500240	0.008723933	0.090003206	0.027739862
2020-05-21T08:35:00	0.2100	9.301	183.0	0.500419251	0.598500240	0.008723933	0.090003206	0.027739862
2020-05-21T08:40:00	0.2100	9.352	183.0	0.500419251	0.598500240	0.008723933	0.090003206	0.027739862
2020-05-21T08:45:00	0.2100	9.407	184.0	0.500419251	0.598500240	0.008723933	0.090003206	0.027739862
2020-05-21T08:50:00	0.2102	9.484	183.0	0.501105947	0.599450461	0.008745775	0.090228551	0.027809316
2020-05-21T08:55:00	0.2094	9.537	183.0	0.498358332	0.595650707	0.008658542	0.089328585	0.027531938
2020-05-21T09:00:00	0.2102	9.620	184.0	0.501105947	0.599450461	0.008745775	0.090228551	0.027809316
2020-05-21T09:05:00	0.2091	9.713	184.0	0.497327406	0.594226575	0.008625924	0.088992070	0.027428220
2020-05-21T09:10:00	0.2098	9.796	185.0	0.499732417	0.597550208	0.008702113	0.089778097	0.027670481
2020-05-21T09:15:00	0.2095	9.870	185.0	0.498701905	0.596125511	0.008669426	0.089440875	0.027566546
2020-05-21T09:20:00	0.2089	9.927	185.0	0.496639948	0.593277388	0.008604207	0.088768022	0.027359166
2020-05-21T09:25:00	0.2092	9.977	185.0	0.497671082	0.594701238	0.008636791	0.089104183	0.027462775
2020-05-21T09:30:00	0.2105	10.071	186.0	0.502135733	0.600876145	0.008778582	0.090567009	0.027913632
2020-05-21T09:35:00	0.2103	10.095	186.0	0.501449244	0.599925642	0.008756705	0.090341311	0.027844070
2020-05-21T09:40:00	0.2099	10.182	186.0	0.500075851	0.598025201	0.008713020	0.089890622	0.027705163
2020-05-21T09:45:00	0.2089	10.234	186.0	0.496639948	0.593277388	0.008604207	0.088768022	0.027359166
2020-05-21T09:50:00	0.2081	10.288	187.0	0.493888728	0.589482524	0.008517569	0.087874188	0.027083678
2020-05-21T09:55:00	0.2083	10.342	187.0	0.494576742	0.590430958	0.008539194	0.088097292	0.027152441
2020-05-21T10:00:00	0.2084	10.381	187.0	0.494920696	0.590905245	0.008550015	0.088208933	0.027186850
2020-05-21T10:05:00	0.2080	10.397	187.0	0.493788231	0.589344018	0.008514412	0.087841622	0.027073641
2020-05-21T10:10:00	0.2082	10.436	188.0	0.494375784	0.590153896	0.008532875	0.088032098	0.027132347
2020-05-21T10:15:00	0.2093	10.410	188.0	0.498057225	0.595234666	0.008649009	0.089230233	0.027501624
2020-05-21T10:20:00	0.2089	10.509	188.0	0.496582050	0.593197465	0.008602380	0.088749165	0.027353355
2020-05-21T10:25:00	0.2079	10.534	188.0	0.493386209	0.588790035	0.008501791	0.087711412	0.027033509
2020-05-21T10:30:00	0.2082	10.569	188.0	0.494317847	0.590074024	0.008531054	0.088013306	0.027126556
2020-05-21T10:35:00	0.2084	10.599	188.0	0.494905309	0.590884025	0.008549531	0.088203937	0.027185310
2020-05-21T10:40:00	0.2071	10.611	188.0	0.490674950	0.585057322	0.008416916	0.086835769	0.026763627
2020-05-21T10:45:00	0.2070	10.668	189.0	0.490229963	0.584445250	0.008403026	0.086692471	0.026719461
2020-05-21T10:50:00	0.2070	10.735	189.0	0.490129357	0.584306891	0.008399887	0.086660089	0.026709481
2020-05-21T10:55:00	0.2068	10.791	189.0	0.489684299	0.583694916	0.008386009	0.086516912	0.026665352
2020-05-21T11:00:00	0.2062	10.850	189.0	0.487516185	0.580715932	0.008318565	0.085821100	0.026450897
2020-05-21T11:05:00	0.2057	10.914	190.0	0.485691576	0.578211837	0.008262015	0.085237690	0.026271084
2020-05-21T11:10:00	0.2060	10.965	190.0	0.486625325	0.579492982	0.008290931	0.085536005	0.026363028
2020-05-21T11:15:00	0.2055	11.020	190.0	0.485145182	0.577462483	0.008245118	0.085063367	0.026217356
2020-05-21T11:20:00	0.2048	11.073	190.0	0.482629000	0.574014738	0.008167528	0.084262880	0.025970638
2020-05-21T11:25:00	0.2040	11.140	191.0	0.479765492	0.570097225	0.008079669	0.083356456	0.025691269
2020-05-21T11:30:00	0.2042	11.199	191.0	0.480700874	0.571376184	0.008108317	0.083652011	0.025782362
2020-05-21T11:35:00	0.2035	11.273	191.0	0.478181389	0.567932854	0.008031267	0.082857104	0.025537364
2020-05-21T11:40:00	0.2036	11.334	192.0	0.478426055	0.568267012	0.008038734	0.082934133	0.025561105
2020-05-21T11:45:00	0.2046	11.356	192.0	0.481779560	0.572851952	0.008141416	0.083993489	0.025887609
2020-05-21T11:50:00	0.2043	11.368	191.0	0.480988072	0.571769014	0.008117123	0.083742862	0.025810363
2020-05-21T11:55:00	0.2039	11.421	192.0	0.479505466	0.569741812	0.008071714	0.083274387	0.025665975
2020-05-21T12:00:00	0.2033	11.452	192.0	0.477330833	0.566771557	0.008005338	0.082589598	0.025454916
2020-05-21T12:05:00	0.2033	11.531	192.0	0.477575560	0.567105633	0.008012794	0.082666523	0.025478625
2020-05-21T12:10:00	0.2018	11.591	193.0	0.472284960	0.559894084	0.007852367	0.081011424	0.024968508
2020-05-21T12:15:00	0.2016	11.605	193.0	0.471491248	0.558814105	0.007828438	0.080764547	0.024892418
2020-05-21T12:20:00	0.2010	11.616	193.0	0.469311452	0.555850704	0.007762904	0.080088453	0.024684039
2020-05-21T12:25:00	0.2010	11.673	193.0	0.469556761	0.556184009	0.007770266	0.080164399	0.024707446
2020-05-21T12:30:00	0.2009	11.744	193.0	0.469108991	0.555575652	0.007756831	0.080025799	0.024664729
2020-05-21T12:35:00	0.2012	11.808	193.0	0.470047325	0.556850690	0.007784997	0.080316381	0.024754289
2020-05-21T12:40:00	0.2010	11.872	194.0	0.469599619	0.556242247	0.007771552	0.080177672	0.024711537
2020-05-21T12:45:00	0.2013	11.940	194.0	0.470537817	0.557517465	0.007799740	0.080468482	0.024801168
2020-05-21T12:50:00	0.2008	12.016	194.0	0.468704031	0.555025596	0.007744691	0.079900553	0.024626126
2020-05-21T12:55:00	0.2003	12.091	195.0	0.467216026	0.553005559	0.007700164	0.079441170	0.024484540
2020-05-21T13:00:00	0.1994	12.136	195.0	0.463992349	0.548635290	0.007604131	0.078450418	0.024179181
2020-05-21T13:05:00	0.1992	12.130	195.0	0.463196682	0.547557889	0.007580520	0.078206823	0.024104103
2020-05-21T13:10:00	0.1994	12.087	195.0	0.463789568	0.548360659	0.007598110	0.078388301	0.024160036
2020-05-21T13:15:00	0.1991	12.085	195.0	0.462993853	0.547283321	0.007574506	0.078144786	0.024084982
2020-05-21T13:20:00	0.1997	12.127	195.0	0.464975025	0.549966609	0.007633342	0.078751781	0.024272064
2020-05-21T13:25:00	0.1991	12.165	195.0	0.462791012	0.547008769	0.007568495	0.078082770	0.024065868
2020-05-21T13:30:00	0.1977	12.221	195.0	0.458172609	0.540766437	0.007432264	0.076677296	0.023632687
2020-05-21T13:35:00	0.1974	12.293	195.0	0.457027771	0.539221659	0.007398682	0.076330839	0.023525906
2020-05-21T13:40:00	0.1971	12.358	196.0	0.455882543	0.537677390	0.007365163	0.075985034	0.023419325
2020-05-21T13:45:00	0.1968	12.400	196.0	0.454736925	0.536133631	0.007331708	0.075639882	0.023312946
2020-05-21T13:50:00	0.1977	12.428	197.0	0.458114049	0.540687394	0.007430544	0.076659556	0.023627220
2020-05-21T13:55:00	0.1966	12.423	196.0	0.454185496	0.535390932	0.007315632	0.075474023	0.023261827
2020-05-21T14:00:00	0.1980	12.404	196.0	0.458953912	0.541821277	0.007455225	0.076914181	0.023705698
2020-05-21T14:05:00	0.1978	12.380	196.0	0.458504730	0.541214776	0.007442020	0.076777949	0.023663709
2020-05-21T14:10:00	0.1972	12.354	196.0	0.456316512	0.538262448	0.007377856	0.076115981	0.023459685
2020-05-21T14:15:00	0.1972	12.336	196.0	0.456214891	0.538125433	0.007374883	0.076085308	0.023450231
2020-05-21T14:20:00	0.1965	12.329	196.0	0.453677039	0.534706322	0.007300823	0.075321246	0.023214740
2020-05-21T14:25:00	0.1954	12.322	196.0	0.450091837	0.529884830	0.007196824	0.074248307	0.022884049
2020-05-21T14:30:00	0.1953	12.312	196.0	0.449641468	0.529279875	0.007183811	0.074114059	0.022842673
2020-05-21T14:35:00	0.1950	12.301	196.0	0.448493715	0.527738890	0.007150701	0.073772469	0.022737391
2020-05-21T14:40:00	0.1958	12.296	196.0	0.451528761	0.531816033	0.007238418	0.074677428	0.023016309
2020-05-21T14:45:00	0.1950	12.285	196.0	0.448638697	0.527933486	0.007154880	0.073815575	0.022750677
2020-05-21T14:50:00	0.1947	12.280	196.0	0.447490601	0.526392946	0.007121825	0.073474559	0.022645573
2020-05-21T14:55:00	0.1952	12.281	196.0	0.449480934	0.529064278	0.007179176	0.074066235	0.022827933
2020-05-21T15:00:00	0.1949	12.278	195.0	0.448333127	0.527523364	0.007146075	0.073724737	0.022722680
2020-05-21T15:05:00	0.1943	12.266	196.0	0.446138262	0.524579678	0.007082987	0.073073867	0.022522075
2020-05-21T15:10:00	0.1941	12.252	196.0	0.445338353	0.523507806	0.007060062	0.072837362	0.022449182
2020-05-21T15:15:00	0.1942	12.233	195.0	0.445934399	0.524306456	0.007077141	0.073013556	0.022503487
2020-05-21T15:20:00	0.1944	12.213	196.0	0.446530340	0.525105243	0.007094236	0.073189927	0.022557846
2020-05-21T15:25:00	0.1952	12.195	195.0	0.449218560	0.528711953	0.007171603	0.073988105	0.022803852
2020-05-21T15:30:00	0.1948	12.174	196.0	0.448070663	0.527171156	0.007138516	0.073646757	0.022698646
2020-05-21T15:35:00	0.1948	12.149	195.0	0.447968792	0.527034467	0.007135584	0.073616501	0.022689320
2020-05-21T15:40:00	0.1958	12.120	195.0	0.451352731	0.531579364	0.007233317	0.074624793	0.023000086
2020-05-21T15:45:00	0.1959	12.099	195.0	0.451599352	0.531910949	0.007240465	0.074698540	0.023022816
2020-05-21T15:50:00	0.1954	12.072	195.0	0.450103758	0.529900845	0.007197169	0.074251862	0.022885145
2020-05-21T15:55:00	0.1956	12.040	195.0	0.450698958	0.530700593	0.007214384	0.074429469	0.022939885
2020-05-21T16:00:00	0.1954	12.012	195.0	0.449900137	0.529627311	0.007191284	0.074191150	0.022866433
2020-05-21T16:05:00	0.1953	11.993	195.0	0.449604039	0.529229607	0.007182731	0.074102907	0.022839236
2020-05-21T16:10:00	0.1955	11.977	195.0	0.450353590	0.530236501	0.007204392	0.074326386	0.022908114
2020-05-21T16:15:00	0.1954	11.961	194.0	0.450057532	0.529838745	0.007195832	0.074238077	0.022880896
2020-05-21T16:20:00	0.1952	11.943	194.0	0.449412865	0.528972867	0.007177211	0.074045961	0.022821684
2020-05-21T16:25:00	0.1953	11.923	194.0	0.449813916	0.529511496	0.007188793	0.074165449	0.022858512
2020-05-21T16:30:00	0.1958	11.900	194.0	0.451260312	0.531455118	0.007230639	0.074597167	0.022991571
2020-05-21T16:35:00	0.1956	11.885	194.0	0.450615876	0.530588941	0.007211980	0.074404665	0.022932240
2020-05-21T16:40:00	0.1956	11.869	194.0	0.450668330	0.530659432	0.007213498	0.074420325	0.022937067
2020-05-21T16:45:00	0.1954	11.850	194.0	0.450023780	0.529793403	0.007194857	0.074228013	0.022877794
2020-05-21T16:50:00	0.1951	11.835	194.0	0.449030482	0.528459430	0.007166177	0.073932124	0.022786598
2020-05-21T16:55:00	0.1948	11.820	194.0	0.448036890	0.527125840	0.007137544	0.073636725	0.022695554
2020-05-21T17:00:00	0.1960	11.803	194.0	0.452271649	0.532815101	0.007259969	0.074899758	0.023084833
2020-05-21T17:05:00	0.1963	11.782	194.0	0.453020604	0.533822769	0.007281727	0.075124231	0.023154018
2020-05-21T17:10:00	0.1967	11.757	194.0	0.454465618	0.535768187	0.007323796	0.075558256	0.023287788
2020-05-21T17:15:00	0.1970	11.738	194.0	0.455562065	0.537245430	0.007355797	0.075888402	0.023389543
2020-05-21T17:20:00	0.1965	11.722	194.0	0.453874201	0.534971766	0.007306564	0.075380470	0.023232993
2020-05-21T17:25:00	0.1973	11.701	194.0	0.456710514	0.538793754	0.007389389	0.076234965	0.023496357
2020-05-21T17:30:00	0.1966	11.680	194.0	0.454327117	0.535581653	0.007319759	0.075516603	0.023274950
2020-05-21T17:35:00	0.1969	11.657	194.0	0.455075614	0.536589918	0.007341591	0.075741842	0.023344371
2020-05-21T17:40:00	0.1967	11.635	194.0	0.454431910	0.535722787	0.007322814	0.075548117	0.023284663
2020-05-21T17:45:00	0.1970	11.618	193.0	0.455528368	0.537200016	0.007354813	0.075878246	0.023386412
2020-05-21T17:50:00	0.1971	11.599	193.0	0.455928689	0.537739595	0.007366513	0.075998953	0.023423615
2020-05-21T17:55:00	0.1971	11.581	193.0	0.455981061	0.537810194	0.007368044	0.076014751	0.023428485
2020-05-21T18:00:00	0.1981	11.561	193.0	0.459510778	0.542573399	0.007471611	0.077083237	0.023757802
2020-05-21T18:05:00	0.1980	11.546	193.0	0.459215527	0.542174592	0.007462921	0.076993580	0.023730169
2020-05-21T18:10:00	0.1975	11.526	193.0	0.457181720	0.539429328	0.007403194	0.076377383	0.023540251
2020-05-21T18:15:00	0.1980	11.506	193.0	0.458972574	0.541846479	0.007455774	0.076919843	0.023707443
2020-05-21T18:20:00	0.1975	11.487	193.0	0.457286424	0.539570579	0.007406263	0.076409046	0.023550010
2020-05-21T18:25:00	0.1976	11.467	192.0	0.457686536	0.540110431	0.007417997	0.076530104	0.023587321
2020-05-21T18:30:00	0.1974	11.446	192.0	0.457043332	0.539242648	0.007399138	0.076335542	0.023527356
2020-05-21T18:35:00	0.1974	11.423	192.0	0.457095686	0.539313270	0.007400672	0.076351370	0.023532234
2020-05-21T18:40:00	0.1976	11.400	192.0	0.457843566	0.540322339	0.007422604	0.076577640	0.023601972
2020-05-21T18:45:00	0.1977	11.372	192.0	0.457895908	0.540392977	0.007424140	0.076593489	0.023606857
2020-05-21T18:50:00	0.1980	11.344	192.0	0.458991236	0.541871681	0.007456323	0.076925506	0.023709188
2020-05-21T18:55:00	0.1989	11.315	192.0	0.462170535	0.546169138	0.007550122	0.077893216	0.024007446
2020-05-21T19:00:00	0.1992	11.287	192.0	0.463264473	0.547649664	0.007582530	0.078227563	0.024110495
2020-05-21T19:05:00	0.1995	11.258	192.0	0.464358056	0.549130656	0.007614996	0.078562505	0.024213727
2020-05-21T19:10:00	0.2002	11.227	192.0	0.466838767	0.552493691	0.007688895	0.079324908	0.024448707
2020-05-21T19:15:00	0.2010	11.193	191.0	0.469317654	0.555859130	0.007763090	0.080090373	0.024684631
2020-05-21T19:20:00	0.2006	11.162	191.0	0.467983376	0.554047053	0.007723110	0.079677906	0.024557504
2020-05-21T19:25:00	0.2005	11.131	191.0	0.467688866	0.553647271	0.007714299	0.079587005	0.024529488
2020-05-21T19:30:00	0.2021	11.099	191.0	0.473283807	0.561253894	0.007882533	0.081322635	0.025064426
2020-05-21T19:35:00	0.2026	11.063	191.0	0.475066130	0.563682283	0.007936501	0.081879417	0.025236032
2020-05-21T19:40:00	0.2019	11.029	191.0	0.472695686	0.560453142	0.007864764	0.081139323	0.025007927
2020-05-21T19:45:00	0.2016	10.996	191.0	0.471709060	0.559110425	0.007835001	0.080832259	0.024913287
2020-05-21T19:50:00	0.2031	10.960	191.0	0.476605828	0.565782135	0.007983269	0.082361916	0.025384742
2020-05-21T19:55:00	0.2040	10.925	190.0	0.479768583	0.570101451	0.008079764	0.083357432	0.025691570
2020-05-21T20:00:00	0.2040	10.890	190.0	0.479820586	0.570172537	0.008081355	0.083373850	0.025696630
2020-05-21T20:05:00	0.2038	10.855	190.0	0.479181589	0.569299201	0.008061811	0.083172222	0.025634486
2020-05-21T20:10:00	0.2038	10.821	190.0	0.479233600	0.569370275	0.008063401	0.083188624	0.025639542
2020-05-21T20:15:00	0.2040	10.786	190.0	0.479976590	0.570385801	0.008086130	0.083423112	0.025711813
2020-05-21T20:20:00	0.2038	10.753	190.0	0.479337622	0.569512426	0.008066581	0.083221434	0.025649654
2020-05-21T20:25:00	0.2039	10.718	190.0	0.479389631	0.569583503	0.008068172	0.083237841	0.025654711
2020-05-21T20:30:00	0.2036	10.684	190.0	0.478404956	0.568238193	0.008038090	0.082927488	0.025559057
2020-05-21T20:35:00	0.2039	10.649	189.0	0.479493648	0.569725660	0.008071353	0.083270658	0.025664826
2020-05-21T20:40:00	0.2035	10.617	189.0	0.478163381	0.567908261	0.008030718	0.082851436	0.025535617
2020-05-21T20:45:00	0.2039	10.584	190.0	0.479597661	0.569867822	0.008074534	0.083303481	0.025674942
2020-05-21T20:50:00	0.2045	10.552	188.0	0.481721956	0.572773119	0.008139647	0.083975236	0.025881983
2020-05-21T20:55:00	0.2043	10.521	189.0	0.480737958	0.571426905	0.008109454	0.083663740	0.025785977
2020-05-21T21:00:00	0.2042	10.489	188.0	0.480444558	0.571025651	0.008100462	0.083570971	0.025757385
2020-05-21T21:05:00	0.2037	10.458	188.0	0.478769105	0.568735621	0.008049208	0.083042195	0.025594411
2020-05-21T21:10:00	0.2040	10.426	188.0	0.479857680	0.570223244	0.008082490	0.083385562	0.025700240
2020-05-21T21:15:00	0.2045	10.396	189.0	0.481636545	0.572656237	0.008137024	0.083948176	0.025873643
2020-05-21T21:20:00	0.2038	10.364	188.0	0.479270701	0.569420974	0.008064535	0.083200325	0.025643148
2020-05-21T21:25:00	0.2038	10.333	188.0	0.479322711	0.569492049	0.008066126	0.083216731	0.025648205
2020-05-21T21:30:00	0.2040	10.299	187.0	0.479720219	0.570035340	0.008078284	0.083342165	0.025686865
2020-05-21T21:35:00	0.2035	10.265	187.0	0.478044408	0.567745789	0.008027089	0.082813994	0.025524077
2020-05-21T21:40:00	0.2030	10.232	187.0	0.476367767	0.565457343	0.007976029	0.082287223	0.025361721
2020-05-21T21:45:00	0.2026	10.199	187.0	0.475036271	0.563641581	0.007935595	0.081870074	0.025233152
2020-05-21T21:50:00	0.2032	10.164	187.0	0.477163429	0.566543063	0.008000240	0.082536999	0.025438705
2020-05-21T21:55:00	0.2020	10.133	187.0	0.473064097	0.560954717	0.007875892	0.081254130	0.025043312
2020-05-21T22:00:00	0.2022	10.102	187.0	0.473462341	0.561497029	0.007887930	0.081378323	0.025081589
2020-05-21T22:05:00	0.2024	10.069	187.0	0.474298389	0.562635937	0.007913232	0.081639352	0.025162041
2020-05-21T22:10:00	0.2030	10.040	187.0	0.476517742	0.565661952	0.007980590	0.082334275	0.025376223
2020-05-21T22:15:00	0.2019	10.008	187.0	0.472509466	0.560199652	0.007859142	0.081081322	0.024990051
2020-05-21T22:20:00	0.2015	9.978	186.0	0.471268322	0.558510868	0.007821723	0.080695275	0.024871067
2020-05-21T22:25:00	0.2010	9.947	186.0	0.469333707	0.555880941	0.007763572	0.080095342	0.024686162
2020-05-21T22:30:00	0.2012	9.916	186.0	0.470170778	0.557018495	0.007788707	0.080354651	0.024766084
2020-05-21T22:35:00	0.2010	9.888	186.0	0.469621873	0.556272486	0.007772220	0.080184563	0.024713661
2020-05-21T22:40:00	0.2013	9.859	186.0	0.470458872	0.557410134	0.007797366	0.080443992	0.024793620
2020-05-21T22:45:00	0.2015	9.828	186.0	0.471295664	0.558548058	0.007822546	0.080703770	0.024873686
2020-05-21T22:50:00	0.2026	9.802	185.0	0.474901161	0.563457409	0.007931498	0.081827804	0.025220124
2020-05-21T22:55:00	0.2025	9.774	185.0	0.474699034	0.563181914	0.007925370	0.081764586	0.025200640
2020-05-21T23:00:00	0.2027	9.748	185.0	0.475534777	0.564321228	0.007950722	0.082026130	0.025281250
2020-05-21T23:05:00	0.2033	9.720	186.0	0.477407621	0.566876374	0.008007677	0.082613731	0.025462354
2020-05-21T23:10:00	0.2042	9.695	185.0	0.480661246	0.571321987	0.008107102	0.083639480	0.025778500
2020-05-21T23:15:00	0.2036	9.669	185.0	0.478386401	0.568212850	0.008037523	0.082921646	0.025557257
2020-05-21T23:20:00	0.2028	9.648	185.0	0.475764160	0.564634028	0.007957687	0.082097987	0.025303397
2020-05-21T23:25:00	0.2036	9.625	185.0	0.478328191	0.568133346	0.008035747	0.082903318	0.025551608
2020-05-21T23:30:00	0.2034	9.605	185.0	0.477780608	0.567385581	0.008019044	0.082731002	0.025498498
2020-05-21T23:35:00	0.2038	9.585	185.0	0.479306705	0.569470176	0.008065636	0.083211682	0.025646648
2020-05-21T23:40:00	0.2036	9.566	184.0	0.478413685	0.568250116	0.008038356	0.082930237	0.025559905
2020-05-21T23:45:00	0.2041	9.547	185.0	0.480284937	0.570807383	0.008095572	0.083520523	0.025741836
2020-05-21T23:50:00	0.2044	9.530	184.0	0.481119302	0.571948532	0.008121148	0.083784391	0.025823163
2020-05-21T23:55:00	0.2042	9.511	184.0	0.480572170	0.571200165	0.008104372	0.083611314	0.025769819
2020-05-22T00:00:00	0.2038	9.495	184.0	0.479333982	0.569507452	0.008066470	0.083220286	0.025649300
2020-05-22T00:05:00	0.2039	9.479	184.0	0.479477642	0.569703785	0.008070863	0.083265608	0.025663269
2020-05-22T00:10:00	0.2043	9.464	184.0	0.481002975	0.571789400	0.008117580	0.083747578	0.025811817
2020-05-22T00:15:00	0.2045	9.450	184.0	0.481491881	0.572458283	0.008132582	0.083902352	0.025859520
2020-05-22T00:20:00	0.2044	9.437	183.0	0.481290147	0.572182264	0.008126390	0.083838471	0.025839831
2020-05-22T00:25:00	0.2040	9.425	184.0	0.479706758	0.570016941	0.008077872	0.083337915	0.025685555
2020-05-22T00:30:00	0.2044	9.412	184.0	0.481231987	0.572102693	0.008124606	0.083820059	0.025834156
2020-05-22T00:35:00	0.2042	9.401	183.0	0.480684874	0.571354302	0.008107827	0.083646952	0.025780803
2020-05-22T00:40:00	0.2044	9.390	184.0	0.481173826	0.572023124	0.008122821	0.083801648	0.025828482
2020-05-22T00:45:00	0.2044	9.378	184.0	0.481317408	0.572219561	0.008127227	0.083847102	0.025842491
2020-05-22T00:50:00	0.2049	9.367	183.0	0.482841913	0.574306282	0.008174079	0.084330470	0.025991470
2020-05-22T00:55:00	0.2048	9.358	184.0	0.482640260	0.574030155	0.008167874	0.084266454	0.025971739
2020-05-22T01:00:00	0.2036	9.349	184.0	0.478639233	0.568558203	0.008045242	0.083001276	0.025581799
2020-05-22T01:05:00	0.2030	9.340	184.0	0.476363028	0.565450878	0.007975885	0.082285736	0.025361263
2020-05-22T01:10:00	0.2029	9.331	184.0	0.476160988	0.565175266	0.007969743	0.082222372	0.025341734
2020-05-22T01:15:00	0.2033	9.321	184.0	0.477342110	0.566786951	0.008005682	0.082593142	0.025456008
2020-05-22T01:20:00	0.2040	9.310	183.0	0.479904947	0.570287860	0.008083937	0.083400488	0.025704840
2020-05-22T01:25:00	0.2041	9.301	183.0	0.480048583	0.570484226	0.008088334	0.083445851	0.025718822
2020-05-22T01:30:00	0.2045	9.293	183.0	0.481573659	0.572570183	0.008135093	0.083928254	0.025867503
2020-05-22T01:35:00	0.2046	9.283	183.0	0.482062483	0.573239177	0.008150109	0.084083168	0.025915249
2020-05-22T01:40:00	0.2044	9.273	183.0	0.481170189	0.572018148	0.008122710	0.083800497	0.025828127
2020-05-22T01:45:00	0.2056	9.264	183.0	0.485455051	0.577887426	0.008254699	0.085162207	0.026247819
2020-05-22T01:50:00	0.2056	9.256	183.0	0.485253553	0.577611091	0.008248468	0.085097928	0.026228008
2020-05-22T01:55:00	0.2047	9.248	183.0	0.482291423	0.573552565	0.008157146	0.084155770	0.025937626
2020-05-22T02:00:00	0.2043	9.239	183.0	0.481053864	0.571859013	0.008119141	0.083763681	0.025816780
2020-05-22T02:05:00	0.2045	9.230	183.0	0.481542763	0.572527906	0.008134144	0.083918468	0.025864487
2020-05-22T02:10:00	0.2048	9.221	183.0	0.482722010	0.574142092	0.008170390	0.084292403	0.025979737
2020-05-22T02:15:00	0.2047	9.210	183.0	0.482175137	0.573393380	0.008153571	0.084118889	0.025926259
2020-05-22T02:20:00	0.2047	9.200	183.0	0.482318676	0.573589874	0.008157984	0.084164415	0.025940290
2020-05-22T02:25:00	0.2041	9.191	183.0	0.480044944	0.570479251	0.008088223	0.083444701	0.025718467
2020-05-22T02:30:00	0.2040	9.180	183.0	0.479843124	0.570203346	0.008082045	0.083380966	0.025698824
2020-05-22T02:35:00	0.2036	9.170	183.0	0.478604670	0.568510989	0.008044186	0.082990388	0.025578444
2020-05-22T02:40:00	0.2024	9.161	183.0	0.474252847	0.562573883	0.007911852	0.081625122	0.025157655
2020-05-22T02:45:00	0.2015	9.153	183.0	0.471281071	0.558528209	0.007822107	0.080699236	0.024872288
2020-05-22T02:50:00	0.2019	9.146	183.0	0.472463899	0.560137629	0.007857767	0.081067133	0.024985678
2020-05-22T02:55:00	0.2019	9.139	183.0	0.472607851	0.560333574	0.007862112	0.081111963	0.024999495
2020-05-22T03:00:00	0.2034	9.131	183.0	0.477940699	0.567604172	0.008023926	0.082781362	0.025514020
2020-05-22T03:05:00	0.2046	9.122	183.0	0.481884402	0.572995438	0.008144637	0.084026716	0.025897850
2020-05-22T03:10:00	0.2051	9.113	183.0	0.483753739	0.575555263	0.008202166	0.084620236	0.026080779
2020-05-22T03:15:00	0.2061	9.105	182.0	0.487001282	0.580009010	0.008302587	0.085656263	0.026400092
2020-05-22T03:20:00	0.2060	9.096	182.0	0.486799876	0.579732552	0.008296342	0.085591829	0.026380233
2020-05-22T03:25:00	0.2062	9.089	182.0	0.487287948	0.580402553	0.008311481	0.085748015	0.026428371
2020-05-22T03:30:00	0.2060	9.081	182.0	0.486741810	0.579652855	0.008294542	0.085573257	0.026374509
2020-05-22T03:35:00	0.2043	9.073	182.0	0.481019325	0.571811766	0.008118082	0.083752751	0.025813411
2020-05-22T03:40:00	0.2037	9.067	182.0	0.478744720	0.568702308	0.008048463	0.083034511	0.025592043
2020-05-22T03:45:00	0.2035	9.059	182.0	0.478197205	0.567954453	0.008031750	0.082862082	0.025538899
2020-05-22T03:50:00	0.2047	9.051	182.0	0.482140610	0.573346117	0.008152510	0.084107940	0.025922884
2020-05-22T03:55:00	0.2041	9.043	182.0	0.480212205	0.570707935	0.008093344	0.083497541	0.025734753
2020-05-22T04:00:00	0.2059	9.037	182.0	0.486567607	0.579413771	0.008289142	0.085517551	0.026357340
2020-05-22T04:05:00	0.2053	9.031	182.0	0.484199028	0.576165443	0.008215900	0.084761922	0.026124447
2020-05-22T04:10:00	0.2047	9.024	182.0	0.482174042	0.573391881	0.008153537	0.084118542	0.025926152
2020-05-22T04:15:00	0.2046	9.017	182.0	0.481874587	0.572982004	0.008144335	0.084023605	0.025896891
2020-05-22T04:20:00	0.2043	9.012	182.0	0.480884453	0.571627277	0.008113945	0.083710078	0.025800259
2020-05-22T04:25:00	0.2039	9.010	182.0	0.479548550	0.569800698	0.008073032	0.083287983	0.025670165
2020-05-22T04:30:00	0.2035	9.012	182.0	0.478212120	0.567974823	0.008032205	0.082866777	0.025540346
2020-05-22T04:35:00	0.2039	9.013	182.0	0.479640197	0.569925961	0.008075835	0.083316906	0.025679080
2020-05-22T04:40:00	0.2047	9.015	182.0	0.482448760	0.573767962	0.008161984	0.084205683	0.025953009
2020-05-22T04:45:00	0.2048	9.017	182.0	0.482494544	0.573830645	0.008163392	0.084220210	0.025957487
2020-05-22T04:50:00	0.2049	9.021	182.0	0.482885503	0.574365974	0.008175421	0.084344311	0.025995736
2020-05-22T04:55:00	0.2046	9.027	182.0	0.481895665	0.573010852	0.008144983	0.084030285	0.025898950
2020-05-22T05:00:00	0.2041	9.036	182.0	0.480214748	0.570711412	0.008093422	0.083498345	0.025735001
2020-05-22T05:05:00	0.2046	9.048	182.0	0.481987247	0.573136199	0.008147797	0.084059316	0.025907897
2020-05-22T05:10:00	0.2044	9.062	182.0	0.481342479	0.572253863	0.008127996	0.083855040	0.025844938
2020-05-22T05:15:00	0.2057	9.073	182.0	0.485874339	0.578462541	0.008267671	0.085296039	0.026289067
2020-05-22T05:20:00	0.2056	9.085	182.0	0.485230309	0.577579216	0.008247750	0.085090514	0.026225723
2020-05-22T05:25:00	0.2045	9.099	182.0	0.481479875	0.572441854	0.008132214	0.083898549	0.025858348
2020-05-22T05:30:00	0.2050	9.115	182.0	0.483251712	0.574867525	0.008186696	0.084460638	0.026031589
2020-05-22T05:35:00	0.2066	9.130	182.0	0.488814846	0.582499838	0.008358930	0.086237544	0.026579249
2020-05-22T05:40:00	0.2069	9.147	182.0	0.489894039	0.583983298	0.008392548	0.086584371	0.026686144
2020-05-22T05:45:00	0.2071	9.169	182.0	0.490628535	0.584993471	0.008415467	0.086820817	0.026759019
2020-05-22T05:50:00	0.2061	9.188	183.0	0.487228797	0.580321344	0.008309645	0.085729078	0.026422535
2020-05-22T05:55:00	0.2053	9.205	183.0	0.484515706	0.576599482	0.008225673	0.084862756	0.026155526
2020-05-22T06:00:00	0.2054	9.221	182.0	0.484561462	0.576662203	0.008227086	0.084877331	0.026160018
2020-05-22T06:05:00	0.2062	9.238	183.0	0.487365955	0.580509655	0.008313902	0.085772990	0.026436069
2020-05-22T06:10:00	0.2069	9.257	183.0	0.489823698	0.583886579	0.008390355	0.086561744	0.026679170
2020-05-22T06:15:00	0.2075	9.272	183.0	0.491935444	0.586791968	0.008456323	0.087242322	0.026888931
2020-05-22T06:20:00	0.2064	9.291	183.0	0.488192413	0.581644664	0.008339572	0.086037823	0.026517692
2020-05-22T06:25:00	0.2074	9.313	183.0	0.491682509	0.586443786	0.008448408	0.087160666	0.026863764
2020-05-22T06:30:00	0.2082	9.336	183.0	0.494481134	0.590299139	0.008536187	0.088066272	0.027142880
2020-05-22T06:35:00	0.2080	9.361	183.0	0.493494669	0.588939480	0.008505195	0.087746531	0.027044333
2020-05-22T06:40:00	0.2079	9.381	183.0	0.493196211	0.588528264	0.008495829	0.087649907	0.027014552
2020-05-22T06:45:00	0.2081	9.404	183.0	0.493929994	0.589539399	0.008518865	0.087887561	0.027087800
2020-05-22T06:50:00	0.2084	9.423	183.0	0.495007566	0.591025047	0.008552749	0.088237140	0.027195543
2020-05-22T06:55:00	0.2090	9.446	184.0	0.497116099	0.593934778	0.008619246	0.088923174	0.027406986
2020-05-22T07:00:00	0.2076	9.469	184.0	0.492346330	0.587357690	0.008469188	0.087375051	0.026929839
2020-05-22T07:05:00	0.2063	9.489	183.0	0.487914529	0.581262974	0.008330936	0.085948732	0.026490234
2020-05-22T07:10:00	0.2053	9.511	184.0	0.484512072	0.576594501	0.008225561	0.084861599	0.026155169
2020-05-22T07:15:00	0.2055	9.534	184.0	0.484902798	0.577130142	0.008237628	0.084986093	0.026193539
2020-05-22T07:20:00	0.2051	9.555	183.0	0.483568478	0.575301446	0.008196456	0.084561322	0.026062621
2020-05-22T07:25:00	0.2058	9.574	184.0	0.486028970	0.578674677	0.008272458	0.085345422	0.026304288
2020-05-22T07:30:00	0.2051	9.595	184.0	0.483660015	0.575426854	0.008199277	0.084590429	0.026071592
2020-05-22T07:35:00	0.2055	9.620	184.0	0.485085798	0.577381056	0.008243283	0.085044432	0.026211520
2020-05-22T07:40:00	0.2051	9.640	184.0	0.483751550	0.575552264	0.008202099	0.084619540	0.026080564
2020-05-22T07:45:00	0.2049	9.663	184.0	0.483107117	0.574669479	0.008182243	0.084414697	0.026017430
2020-05-22T07:50:00	0.2045	9.684	184.0	0.481426802	0.572369236	0.008130585	0.083881741	0.025853167
2020-05-22T07:55:00	0.2062	9.711	184.0	0.487337649	0.580470792	0.008313023	0.085763927	0.026433275
2020-05-22T08:00:00	0.2081	9.757	185.0	0.493926371	0.589534404	0.008518751	0.087886387	0.027087438
2020-05-22T08:05:00	0.2079	9.783	185.0	0.493283865	0.588649026	0.008498580	0.087678279	0.027023297
2020-05-22T08:10:00	0.2077	9.811	185.0	0.492641238	0.587763812	0.008478428	0.087470377	0.026959220
2020-05-22T08:15:00	0.2072	9.866	185.0	0.490965635	0.585457238	0.008425995	0.086929441	0.026792498
2020-05-22T08:20:00	0.2072	9.893	185.0	0.491011304	0.585520076	0.008427422	0.086944163	0.026797035
2020-05-22T08:25:00	0.2081	9.929	185.0	0.494154513	0.589848866	0.008525920	0.087960341	0.027110231
2020-05-22T08:30:00	0.2076	9.959	186.0	0.492135454	0.587067332	0.008462584	0.087306919	0.026908840
2020-05-22T08:35:00	0.2065	10.000	186.0	0.488392644	0.581919731	0.008345797	0.086102046	0.026537487
2020-05-22T08:40:00	0.2065	10.035	186.0	0.488438348	0.581982522	0.008347218	0.086116709	0.026542006
2020-05-22T08:45:00	0.2070	10.101	186.0	0.490206558	0.584413061	0.008402296	0.086684937	0.026717139
2020-05-22T08:50:00	0.2073	10.183	187.0	0.491285308	0.585897116	0.008435986	0.087032513	0.026824266
2020-05-22T08:55:00	0.2083	10.230	187.0	0.494772234	0.590700515	0.008545344	0.088160736	0.027171995
2020-05-22T09:00:00	0.2079	10.287	187.0	0.493441784	0.588866610	0.008503535	0.087729406	0.027039055
2020-05-22T09:05:00	0.2088	10.424	187.0	0.496238964	0.592723918	0.008591553	0.088637467	0.027318928
2020-05-22T09:10:00	0.2079	10.478	188.0	0.493188962	0.588518277	0.008495602	0.087647560	0.027013829
2020-05-22T09:15:00	0.2077	10.550	187.0	0.492546317	0.587633087	0.008475453	0.087439689	0.026949761
2020-05-22T09:20:00	0.2075	10.592	188.0	0.491903550	0.586748061	0.008455324	0.087232023	0.026885757
2020-05-22T09:25:00	0.2067	10.651	189.0	0.489194191	0.583021180	0.008370740	0.086359378	0.026616799
2020-05-22T09:30:00	0.2071	10.713	189.0	0.490617653	0.584978501	0.008415127	0.086817311	0.026757938
2020-05-22T09:35:00	0.2077	10.745	189.0	0.492728906	0.587884555	0.008481176	0.087498725	0.026967957
2020-05-22T09:40:00	0.2080	10.831	189.0	0.493806857	0.589369689	0.008514997	0.087847658	0.027075501
2020-05-22T09:45:00	0.2078	10.888	190.0	0.492820197	0.588010294	0.008484037	0.087528249	0.026977056
2020-05-22T09:50:00	0.2073	10.932	189.0	0.491144682	0.585703601	0.008431590	0.086987164	0.026810289
2020-05-22T09:55:00	0.2072	10.981	190.0	0.490846018	0.585292664	0.008422259	0.086890889	0.026780616
2020-05-22T10:00:00	0.2071	11.023	190.0	0.490547327	0.584881762	0.008412931	0.086794659	0.026750957
2020-05-22T10:05:00	0.2071	11.064	190.0	0.490394890	0.584672085	0.008408173	0.086745568	0.026735827
2020-05-22T10:10:00	0.2072	11.107	190.0	0.490931197	0.585409856	0.008424919	0.086918341	0.026789077
2020-05-22T10:15:00	0.2073	11.145	190.0	0.491123116	0.585673925	0.008430916	0.086980210	0.026808145
2020-05-22T10:20:00	0.2077	11.186	191.0	0.492691952	0.587833659	0.008480017	0.087486775	0.026964274
2020-05-22T10:25:00	0.2074	11.215	191.0	0.491506921	0.586202108	0.008442915	0.087104003	0.026846300
2020-05-22T10:30:00	0.2076	11.253	191.0	0.492387264	0.587414056	0.008470470	0.087388279	0.026933916
2020-05-22T10:35:00	0.2077	11.285	191.0	0.492579101	0.587678236	0.008476481	0.087450287	0.026953028
2020-05-22T10:40:00	0.2072	11.308	192.0	0.491049719	0.585572932	0.008428623	0.086956547	0.026800852
2020-05-22T10:45:00	0.2061	11.350	191.0	0.487107408	0.580154695	0.008305879	0.085690224	0.026410559
2020-05-22T10:50:00	0.2052	11.406	192.0	0.483850704	0.575688121	0.008205156	0.084651079	0.026090285
2020-05-22T10:55:00	0.2058	11.452	192.0	0.486112630	0.578789456	0.008275048	0.085372145	0.026312524
2020-05-22T11:00:00	0.2054	11.490	192.0	0.484580335	0.576688073	0.008227669	0.084883342	0.026161871
2020-05-22T11:05:00	0.2054	11.537	192.0	0.484772613	0.576951660	0.008233607	0.084944603	0.026180752
2020-05-22T11:10:00	0.2049	11.588	192.0	0.482894573	0.574378395	0.008175700	0.084347191	0.025996623
2020-05-22T11:15:00	0.2052	11.628	193.0	0.484122199	0.576060153	0.008213529	0.084737467	0.026116910
2020-05-22T11:20:00	0.2053	11.673	193.0	0.484314503	0.576323704	0.008219463	0.084798684	0.026135778
2020-05-22T11:25:00	0.2040	11.711	193.0	0.480018925	0.570443679	0.008087426	0.083436483	0.025715934
2020-05-22T11:30:00	0.2041	11.740	193.0	0.480211462	0.570706919	0.008093322	0.083497306	0.025734681
2020-05-22T11:35:00	0.2032	11.764	193.0	0.476948123	0.566249216	0.007993685	0.082469372	0.025417861
2020-05-22T11:40:00	0.2037	11.793	194.0	0.478869110	0.568872245	0.008052263	0.083073710	0.025604124
2020-05-22T11:45:00	0.2028	11.811	193.0	0.475604475	0.564416268	0.007952838	0.082047960	0.025287978
2020-05-22T11:50:00	0.2021	11.813	194.0	0.473375231	0.561378396	0.007885296	0.081351150	0.025073214
2020-05-22T11:55:00	0.2025	11.815	193.0	0.474606314	0.563055548	0.007922560	0.081735595	0.025191704
2020-05-22T12:00:00	0.2023	11.812	193.0	0.474107122	0.562375335	0.007907440	0.081579598	0.025143625
2020-05-22T12:05:00	0.2023	11.820	193.0	0.473953944	0.562166650	0.007902803	0.081531760	0.025128880
2020-05-22T12:10:00	0.2026	11.833	194.0	0.475184816	0.563844081	0.007940101	0.081916560	0.025247479
2020-05-22T12:15:00	0.2014	11.849	193.0	0.470877627	0.557979515	0.007809962	0.080573941	0.024833671
2020-05-22T12:20:00	0.1999	11.871	194.0	0.465524294	0.550711088	0.007649693	0.078920477	0.024324057
2020-05-22T12:25:00	0.2003	11.893	194.0	0.467105032	0.552854951	0.007696847	0.079406956	0.024473995
2020-05-22T12:30:00	0.2006	11.918	194.0	0.467991739	0.554058407	0.007723361	0.079680488	0.024558300
2020-05-22T12:35:00	0.2001	11.939	194.0	0.466451212	0.551967972	0.007677326	0.079205561	0.024411923
2020-05-22T12:40:00	0.2000	11.960	194.0	0.465950813	0.551289355	0.007662403	0.079051595	0.024364469
2020-05-22T12:45:00	0.2005	11.980	194.0	0.467878062	0.553904087	0.007719959	0.079645395	0.024547484
2020-05-22T12:50:00	0.2004	12.001	194.0	0.467377875	0.553225192	0.007705001	0.079491073	0.024499921
2020-05-22T12:55:00	0.1996	12.022	194.0	0.464796199	0.549724281	0.007628022	0.078696897	0.024255148
2020-05-22T13:00:00	0.1996	12.045	194.0	0.464642598	0.549516155	0.007623454	0.078649770	0.024240623
2020-05-22T13:05:00	0.1998	12.069	194.0	0.465183001	0.550248471	0.007639531	0.078815635	0.024291744
2020-05-22T13:10:00	0.2000	12.088	195.0	0.466070213	0.551451262	0.007665962	0.079088319	0.024375788
2020-05-22T13:15:00	0.1989	12.105	195.0	0.462098671	0.546071911	0.007547995	0.077871277	0.024000684
2020-05-22T13:20:00	0.1991	12.117	195.0	0.462986696	0.547273633	0.007574294	0.078142598	0.024084308
2020-05-22T13:25:00	0.1992	12.124	195.0	0.463180206	0.547535585	0.007580031	0.078201783	0.024102549
2020-05-22T13:30:00	0.1993	12.127	195.0	0.463720844	0.548267592	0.007596070	0.078367255	0.024153549
2020-05-22T13:35:00	0.1998	12.132	195.0	0.465302428	0.550410342	0.007643086	0.078852314	0.024303049
2020-05-22T13:40:00	0.1991	12.141	195.0	0.462719161	0.546911525	0.007566366	0.078060808	0.024059099
2020-05-22T13:45:00	0.1983	12.147	195.0	0.460133910	0.543415312	0.007489969	0.077272627	0.023816174
2020-05-22T13:50:00	0.1989	12.151	195.0	0.462064489	0.546025666	0.007546984	0.077860842	0.023997468
2020-05-22T13:55:00	0.1998	12.150	195.0	0.465382044	0.550518259	0.007645457	0.078876771	0.024310587
2020-05-22T14:00:00	0.1990	12.147	195.0	0.462451604	0.546549444	0.007558442	0.077979054	0.024033902
2020-05-22T14:05:00	0.1990	12.150	195.0	0.462645145	0.546811355	0.007564174	0.078038188	0.024052127
2020-05-22T14:10:00	0.1991	12.155	196.0	0.462838675	0.547073281	0.007569908	0.078097340	0.024070359
2020-05-22T14:15:00	0.1986	12.160	196.0	0.461295790	0.544985947	0.007524257	0.077626370	0.023925201
2020-05-22T14:20:00	0.1983	12.163	195.0	0.460099708	0.543369094	0.007488961	0.077262226	0.023812968
2020-05-22T14:25:00	0.1982	12.163	195.0	0.459598365	0.542691718	0.007474190	0.077109844	0.023766003
2020-05-22T14:30:00	0.1972	12.158	195.0	0.456315015	0.538260429	0.007377812	0.076115529	0.023459545
2020-05-22T14:35:00	0.1973	12.153	196.0	0.456508909	0.538521877	0.007383487	0.076174071	0.023477589
2020-05-22T14:40:00	0.1969	12.147	196.0	0.455311123	0.536907252	0.007348467	0.075812780	0.023366235
2020-05-22T14:45:00	0.1967	12.136	196.0	0.454461005	0.535761974	0.007323662	0.075556868	0.023287361
2020-05-22T14:50:00	0.1988	12.124	195.0	0.461956276	0.545879272	0.007543783	0.077827814	0.023987288
2020-05-22T14:55:00	0.1994	12.111	195.0	0.463885810	0.548490997	0.007600967	0.078417780	0.024169121
2020-05-22T15:00:00	0.1990	12.097	195.0	0.462690648	0.546872936	0.007565522	0.078052094	0.024056413
2020-05-22T15:05:00	0.1980	12.085	196.0	0.459062734	0.541968236	0.007458426	0.076947203	0.023715875
2020-05-22T15:10:00	0.2002	12.067	196.0	0.466547771	0.552098943	0.007680208	0.079235288	0.024421085
2020-05-22T15:15:00	0.2007	12.048	195.0	0.468474679	0.554714125	0.007737820	0.079829661	0.024604277
2020-05-22T15:20:00	0.1999	12.034	195.0	0.465546928	0.550741770	0.007650368	0.078927432	0.024326201
2020-05-22T15:25:00	0.1970	12.027	195.0	0.455664769	0.537383852	0.007358798	0.075919364	0.023399085
2020-05-22T15:30:00	0.1980	12.022	195.0	0.458988638	0.541868172	0.007456246	0.076924718	0.023708945
2020-05-22T15:35:00	0.1990	12.013	195.0	0.462656472	0.546826684	0.007564509	0.078041649	0.024053194
2020-05-22T15:40:00	0.1988	12.004	195.0	0.461808210	0.545678979	0.007539403	0.077782632	0.023973363
2020-05-22T15:45:00	0.1976	11.995	195.0	0.457831632	0.540306235	0.007422254	0.076574027	0.023600859
2020-05-22T15:50:00	0.1989	11.983	195.0	0.462195355	0.546202718	0.007550856	0.077900794	0.024009781
2020-05-22T15:55:00	0.1998	11.971	195.0	0.465165827	0.550225195	0.007639020	0.078810362	0.024290119
2020-05-22T16:00:00	0.2009	11.964	195.0	0.469173522	0.555663317	0.007758767	0.080045767	0.024670883
2020-05-22T16:05:00	0.2003	11.955	194.0	0.467090422	0.552835126	0.007696411	0.079402452	0.024472607
2020-05-22T16:10:00	0.1996	11.942	195.0	0.464659027	0.549538416	0.007623943	0.078654810	0.024242176
2020-05-22T16:15:00	0.1991	11.929	194.0	0.462920355	0.547183835	0.007572328	0.078122312	0.024078055
2020-05-22T16:20:00	0.1987	11.915	194.0	0.461528149	0.545300180	0.007531123	0.077697209	0.023947034
2020-05-22T16:25:00	0.1990	11.900	195.0	0.462566920	0.546705493	0.007561857	0.078014285	0.024044760
2020-05-22T16:30:00	0.1996	11.886	194.0	0.464646607	0.549521587	0.007623573	0.078651000	0.024241002
2020-05-22T16:35:00	0.2007	11.875	194.0	0.468458621	0.554692319	0.007737339	0.079824699	0.024602747
2020-05-22T16:40:00	0.2008	11.866	194.0	0.468802135	0.555158838	0.007747631	0.079930885	0.024635475
2020-05-22T16:45:00	0.2000	11.860	194.0	0.466025110	0.551390100	0.007664617	0.079074445	0.024371512
2020-05-22T16:50:00	0.2020	11.852	194.0	0.472952551	0.560802840	0.007872522	0.081219360	0.025032596
2020-05-22T16:55:00	0.2013	11.842	194.0	0.470525379	0.557500554	0.007799366	0.080464624	0.024799978
2020-05-22T17:00:00	0.2015	11.836	194.0	0.471215050	0.558438409	0.007820119	0.080678725	0.024865967
2020-05-22T17:05:00	0.2019	11.823	194.0	0.472597068	0.560318895	0.007861787	0.081108604	0.024998460
2020-05-22T17:10:00	0.2015	11.809	194.0	0.471208852	0.558429979	0.007819932	0.080676800	0.024865373
2020-05-22T17:15:00	0.2013	11.796	194.0	0.470512980	0.557483697	0.007798993	0.080460777	0.024798793
2020-05-22T17:20:00	0.2012	11.783	194.0	0.470163440	0.557008520	0.007788486	0.080352376	0.024765383
2020-05-22T17:25:00	0.1996	11.773	194.0	0.464612451	0.549475308	0.007622558	0.078640522	0.024237773
2020-05-22T17:30:00	0.1998	11.764	194.0	0.465303332	0.550411567	0.007643113	0.078852592	0.024303135
2020-05-22T17:35:00	0.1999	11.754	194.0	0.465647167	0.550877662	0.007653354	0.078958239	0.024335696
2020-05-22T17:40:00	0.1999	11.741	194.0	0.465644063	0.550873454	0.007653261	0.078957284	0.024335402
2020-05-22T17:45:00	0.1997	11.729	194.0	0.464947042	0.549928688	0.007632509	0.078743192	0.024269416
2020-05-22T17:50:00	0.1992	11.715	194.0	0.463208518	0.547573912	0.007580871	0.078210444	0.024105218
2020-05-22T17:55:00	0.1995	11.702	193.0	0.464246772	0.548979905	0.007611689	0.078528389	0.024203212
2020-05-22T18:00:00	0.1998	11.689	193.0	0.465284705	0.550386319	0.007642559	0.078846870	0.024301371
2020-05-22T18:05:00	0.2004	11.675	193.0	0.467362716	0.553204619	0.007704548	0.079486398	0.024498480
2020-05-22T18:10:00	0.2004	11.659	193.0	0.467359613	0.553200409	0.007704455	0.079485442	0.024498185
2020-05-22T18:15:00	0.1996	11.647	194.0	0.464581399	0.549433237	0.007621634	0.078630998	0.024234837
2020-05-22T18:20:00	0.2005	11.636	193.0	0.467700136	0.553662569	0.007714637	0.079590483	0.024530560
2020-05-22T18:25:00	0.2003	11.625	193.0	0.467003541	0.552717243	0.007693816	0.079375677	0.024464354
2020-05-22T18:30:00	0.2000	11.615	193.0	0.465959929	0.551301715	0.007662674	0.079054398	0.024365333
2020-05-22T18:35:00	0.2002	11.604	193.0	0.466650534	0.552238337	0.007683275	0.079266931	0.024430838
2020-05-22T18:40:00	0.2005	11.592	193.0	0.467687727	0.553645726	0.007714265	0.079586654	0.024529380
2020-05-22T18:45:00	0.2002	11.578	193.0	0.466644327	0.552229918	0.007683090	0.079265020	0.024430249
2020-05-22T18:50:00	0.1995	11.567	193.0	0.464212611	0.548933632	0.007610674	0.078517918	0.024199985
2020-05-22T18:55:00	0.1997	11.555	193.0	0.464903574	0.549869783	0.007631216	0.078729850	0.024265304
2020-05-22T19:00:00	0.1995	11.543	193.0	0.464206400	0.548925219	0.007610489	0.078516014	0.024199398
2020-05-22T19:05:00	0.1996	11.530	193.0	0.464550347	0.549391167	0.007620711	0.078621473	0.024231902
2020-05-22T19:10:00	0.2002	11.516	193.0	0.466628811	0.552208870	0.007682626	0.079260241	0.024428776
2020-05-22T19:15:00	0.2005	11.502	193.0	0.467666011	0.553616250	0.007713616	0.079579953	0.024527314
2020-05-22T19:20:00	0.2010	11.489	193.0	0.469396037	0.555965625	0.007765442	0.080114636	0.024692109
2020-05-22T19:25:00	0.2016	11.475	193.0	0.471471517	0.558787265	0.007827843	0.080758415	0.024890528
2020-05-22T19:30:00	0.2024	11.463	193.0	0.474237875	0.562553483	0.007911399	0.081620444	0.025156214
2020-05-22T19:35:00	0.2023	11.450	193.0	0.473888720	0.562077796	0.007900829	0.081511394	0.025122603
2020-05-22T19:40:00	0.2032	11.438	193.0	0.476998876	0.566318481	0.007995230	0.082485311	0.025422774
2020-05-22T19:45:00	0.2043	11.427	193.0	0.480796987	0.571507641	0.008111263	0.083682410	0.025791731
2020-05-22T19:50:00	0.2044	11.418	192.0	0.481139250	0.571975822	0.008121760	0.083790704	0.025825109
2020-05-22T19:55:00	0.2040	11.408	192.0	0.479754536	0.570082249	0.008079334	0.083352998	0.025690203
2020-05-22T20:00:00	0.2043	11.396	192.0	0.480787716	0.571494961	0.008110979	0.083679477	0.025790828
2020-05-22T20:05:00	0.2037	11.385	193.0	0.478711763	0.568657285	0.008047457	0.083024127	0.025588842
2020-05-22T20:10:00	0.2065	11.377	192.0	0.488371216	0.581890294	0.008345130	0.086095172	0.026535368
2020-05-22T20:15:00	0.2063	11.369	192.0	0.487678862	0.580939319	0.008323616	0.085873211	0.026466958
2020-05-22T20:20:00	0.2074	11.362	192.0	0.491465041	0.586144467	0.008441606	0.087090490	0.026842135
2020-05-22T20:25:00	0.2068	11.353	192.0	0.489395612	0.583298043	0.008377013	0.086424103	0.026636748
2020-05-22T20:30:00	0.2058	11.343	192.0	0.485945816	0.578560597	0.008269884	0.085318864	0.026296102
2020-05-22T20:35:00	0.2046	11.333	192.0	0.481802046	0.572882725	0.008142107	0.084000615	0.025889805
2020-05-22T20:40:00	0.2033	11.321	192.0	0.477307495	0.566739701	0.008004627	0.082582264	0.025452656
2020-05-22T20:45:00	0.2015	11.311	192.0	0.471075589	0.558248732	0.007815920	0.080635409	0.024852616
2020-05-22T20:50:00	0.2003	11.303	191.0	0.466913554	0.552595154	0.007691128	0.079347949	0.024455808
2020-05-22T20:55:00	0.1995	11.294	191.0	0.464134973	0.548828467	0.007608367	0.078494122	0.024192651
2020-05-22T21:00:00	0.1994	11.287	192.0	0.463784771	0.548354163	0.007597968	0.078386832	0.024159583
2020-05-22T21:05:00	0.1989	11.280	192.0	0.462045647	0.546000176	0.007546427	0.077855091	0.023995695
2020-05-22T21:10:00	0.1996	11.273	192.0	0.464472717	0.549285991	0.007618403	0.078597664	0.024224564
2020-05-22T21:15:00	0.1996	11.266	192.0	0.464469611	0.549281785	0.007618311	0.078596712	0.024224270
2020-05-22T21:20:00	0.1986	11.258	192.0	0.460994281	0.544578264	0.007515352	0.077534497	0.023896885
2020-05-22T21:25:00	0.1965	11.253	192.0	0.453687805	0.534720815	0.007301137	0.075324479	0.023215736
2020-05-22T21:30:00	0.1977	11.249	192.0	0.457859989	0.540344503	0.007423086	0.076582613	0.023603505
2020-05-22T21:35:00	0.1988	11.243	192.0	0.461679689	0.545505140	0.007535603	0.077743425	0.023961279
2020-05-22T21:40:00	0.2005	11.236	191.0	0.467576042	0.553494137	0.007710925	0.079552196	0.024518759
2020-05-22T21:45:00	0.2005	11.229	192.0	0.467919646	0.553960537	0.007721203	0.079658231	0.024551441
2020-05-22T21:50:00	0.2009	11.221	192.0	0.469303013	0.555839239	0.007762651	0.080085841	0.024683234
2020-05-22T21:55:00	0.2020	11.214	192.0	0.473109773	0.561016910	0.007877273	0.081268369	0.025047701
2020-05-22T22:00:00	0.2030	11.205	191.0	0.476566465	0.565728429	0.007982072	0.082349564	0.025380935
2020-05-22T22:05:00	0.2022	11.197	191.0	0.473651919	0.561755234	0.007893664	0.081437476	0.025099821
2020-05-22T22:10:00	0.2030	11.189	192.0	0.476272703	0.565327657	0.007973139	0.082257405	0.025352531
2020-05-22T22:15:00	0.2032	11.180	191.0	0.477163194	0.566542742	0.008000233	0.082536925	0.025438682
2020-05-22T22:20:00	0.2035	11.171	191.0	0.478053452	0.567758139	0.008027364	0.082816839	0.025524954
2020-05-22T22:25:00	0.2044	11.165	191.0	0.481361526	0.572279923	0.008128581	0.083861071	0.025846797
2020-05-22T22:30:00	0.2037	11.157	191.0	0.478796700	0.568773319	0.008050051	0.083050891	0.025597091
2020-05-22T22:35:00	0.2040	11.154	191.0	0.480031993	0.570461545	0.008087826	0.083440611	0.025717207
2020-05-22T22:40:00	0.2038	11.148	191.0	0.479194269	0.569316528	0.008062199	0.083176220	0.025635719
2020-05-22T22:45:00	0.2032	11.142	191.0	0.476973578	0.566283955	0.007994460	0.082477366	0.025420325
2020-05-22T22:50:00	0.2024	11.137	191.0	0.474405423	0.562781785	0.007916474	0.081672799	0.025172350
2020-05-22T22:55:00	0.2016	11.132	191.0	0.471489012	0.558811064	0.007828370	0.080763852	0.024892204
2020-05-22T23:00:00	0.2009	11.126	191.0	0.469263252	0.555785219	0.007761458	0.080073535	0.024679441
2020-05-22T23:05:00	0.2006	11.121	191.0	0.468076200	0.554173071	0.007725888	0.079706567	0.024566338
2020-05-22T23:10:00	0.2000	11.116	191.0	0.465848187	0.551150202	0.007659344	0.079020036	0.024354743
2020-05-22T23:15:00	0.1992	11.111	191.0	0.463271551	0.547659246	0.007582740	0.078229729	0.024111162
2020-05-22T23:20:00	0.1994	11.106	191.0	0.463818385	0.548399685	0.007598966	0.078397127	0.024162756
2020-05-22T23:25:00	0.1998	11.100	191.0	0.465406133	0.550550911	0.007646174	0.078884171	0.024312868
2020-05-22T23:30:00	0.1997	11.096	190.0	0.464911788	0.549880914	0.007631460	0.078732371	0.024266081
2020-05-22T23:35:00	0.1996	11.092	191.0	0.464764403	0.549681196	0.007627076	0.078687141	0.024252141
2020-05-22T23:40:00	0.1997	11.088	191.0	0.464964020	0.549951696	0.007633014	0.078748403	0.024271023
2020-05-22T23:45:00	0.2001	11.084	191.0	0.466204381	0.551633207	0.007669963	0.079129596	0.024388510
2020-05-22T23:50:00	0.1999	11.081	191.0	0.465710154	0.550963056	0.007655230	0.078977599	0.024341663
2020-05-22T23:55:00	0.2002	11.074	191.0	0.466603435	0.552174448	0.007681869	0.079252427	0.024426368
2020-05-23T00:00:00	0.2003	11.067	191.0	0.467149729	0.552915598	0.007698183	0.079420732	0.024478241
2020-05-23T00:05:00	0.2004	11.064	190.0	0.467349205	0.553186285	0.007704144	0.079482232	0.024497196
2020-05-23T00:10:00	0.2005	11.059	190.0	0.467895379	0.553927595	0.007720477	0.079650740	0.024549132
2020-05-23T00:15:00	0.2010	11.055	190.0	0.469481208	0.556081349	0.007767998	0.080141005	0.024700236
2020-05-23T00:20:00	0.2017	11.054	190.0	0.471758951	0.559178304	0.007836504	0.080847772	0.024918069
2020-05-23T00:25:00	0.2022	11.053	190.0	0.473689081	0.561805851	0.007894788	0.081449074	0.025103396
2020-05-23T00:30:00	0.2017	11.050	189.0	0.471811077	0.559249226	0.007838076	0.080863982	0.024923065
2020-05-23T00:35:00	0.2016	11.051	189.0	0.471663992	0.559049110	0.007833643	0.080818246	0.024908968
2020-05-23T00:40:00	0.2017	11.048	189.0	0.471863202	0.559320149	0.007839647	0.080880194	0.024928061
2020-05-23T00:45:00	0.2017	11.042	189.0	0.472062401	0.559591204	0.007845654	0.080942162	0.024947160
2020-05-23T00:50:00	0.2000	11.037	188.0	0.466023460	0.551387862	0.007664568	0.079073938	0.024371356
2020-05-23T00:55:00	0.1982	11.033	188.0	0.459626156	0.542729262	0.007475009	0.077118287	0.023768605
2020-05-23T01:00:00	0.1984	11.028	188.0	0.460521051	0.543938533	0.007501385	0.077390407	0.023852475
2020-05-23T01:05:00	0.1978	11.023	189.0	0.458288032	0.540922240	0.007435654	0.076712269	0.023643466
2020-05-23T01:10:00	0.1972	11.019	188.0	0.456401423	0.538376939	0.007380341	0.076141616	0.023467585
2020-05-23T01:15:00	0.1969	11.016	187.0	0.455209827	0.536770756	0.007345509	0.075782264	0.023356830
2020-05-23T01:20:00	0.1971	11.012	188.0	0.456105898	0.537978489	0.007371695	0.076052416	0.023440093
2020-05-23T01:25:00	0.1979	11.009	188.0	0.458740354	0.541532903	0.007448945	0.076849396	0.023685730
2020-05-23T01:30:00	0.1982	11.007	188.0	0.459635485	0.542741865	0.007475283	0.077121121	0.023769479
2020-05-23T01:35:00	0.1989	11.007	187.0	0.462267177	0.546299895	0.007552982	0.077922725	0.024016541
2020-05-23T01:40:00	0.1992	11.007	186.0	0.463161371	0.547510086	0.007579473	0.078196021	0.024100773
2020-05-23T01:45:00	0.1989	11.007	186.0	0.462319450	0.546370623	0.007554530	0.077938689	0.024021461
2020-05-23T01:50:00	0.1995	11.006	186.0	0.464254987	0.548991035	0.007611933	0.078530907	0.024203988
2020-05-23T01:55:00	0.2001	11.004	186.0	0.466189413	0.551612907	0.007669517	0.079124990	0.024387090
2020-05-23T02:00:00	0.2003	11.008	185.0	0.467082566	0.552824467	0.007696176	0.079400031	0.024471861
2020-05-23T02:05:00	0.2011	11.008	185.0	0.469708451	0.556390137	0.007774819	0.080211379	0.024721926
2020-05-23T02:10:00	0.2011	11.008	185.0	0.469907776	0.556661023	0.007780805	0.080273133	0.024740959
2020-05-23T02:15:00	0.2007	11.011	185.0	0.468374327	0.554577856	0.007734814	0.079798653	0.024594720
2020-05-23T02:20:00	0.2006	11.009	185.0	0.468227093	0.554377938	0.007730405	0.079753168	0.024580701
2020-05-23T02:25:00	0.2000	11.004	185.0	0.465999179	0.551354938	0.007663844	0.079066470	0.024369054
2020-05-23T02:30:00	0.2001	11.000	185.0	0.466198724	0.551625535	0.007669794	0.079127855	0.024387973
2020-05-23T02:35:00	0.2000	10.998	185.0	0.466051394	0.551425742	0.007665401	0.079082530	0.024374004
2020-05-23T02:40:00	0.2002	10.995	185.0	0.466597778	0.552166775	0.007681700	0.079250685	0.024425831
2020-05-23T02:45:00	0.2007	10.992	184.0	0.468530860	0.554790418	0.007739503	0.079847023	0.024609628
2020-05-23T02:50:00	0.1999	10.988	185.0	0.465609367	0.550826416	0.007652228	0.078946621	0.024332115
2020-05-23T02:55:00	0.2000	10.984	185.0	0.466155822	0.551567354	0.007668515	0.079114655	0.024383905
2020-05-23T03:00:00	0.2001	10.982	184.0	0.466355358	0.551837963	0.007674467	0.079176056	0.024402830
2020-05-23T03:05:00	0.1997	10.983	185.0	0.464820292	0.549756928	0.007628739	0.078704291	0.024257427
2020-05-23T03:10:00	0.1991	10.984	185.0	0.462937344	0.547206830	0.007572832	0.078127507	0.024079656
2020-05-23T03:15:00	0.1989	10.981	185.0	0.462095367	0.546067441	0.007547898	0.077870268	0.024000373
2020-05-23T03:20:00	0.1982	10.979	185.0	0.459863393	0.543049779	0.007481997	0.077190380	0.023790825
2020-05-23T03:25:00	0.1992	10.976	185.0	0.463189329	0.547547935	0.007580302	0.078204574	0.024103409
2020-05-23T03:30:00	0.1993	10.972	185.0	0.463736177	0.548288356	0.007596525	0.078371950	0.024154996
2020-05-23T03:35:00	0.2002	10.971	185.0	0.466711498	0.552321038	0.007685095	0.079285706	0.024436625
2020-05-23T03:40:00	0.2002	10.971	185.0	0.466564191	0.552121216	0.007680698	0.079240344	0.024422643
2020-05-23T03:45:00	0.2007	10.974	185.0	0.468497293	0.554744834	0.007738497	0.079836649	0.024606431
2020-05-23T03:50:00	0.2008	10.975	185.0	0.468696690	0.555015625	0.007744471	0.079898283	0.024625427
2020-05-23T03:55:00	0.2012	10.976	185.0	0.470282142	0.557169877	0.007792054	0.080389180	0.024776726
2020-05-23T04:00:00	0.2017	10.975	185.0	0.471866850	0.559325112	0.007839757	0.080881328	0.024928411
2020-05-23T04:05:00	0.2017	10.972	185.0	0.471964901	0.559458530	0.007842713	0.080911828	0.024937811
2020-05-23T04:10:00	0.2017	10.970	185.0	0.472062950	0.559591951	0.007845670	0.080942332	0.024947213
2020-05-23T04:15:00	0.2029	10.968	186.0	0.475967633	0.564911532	0.007963868	0.082161753	0.025323050
2020-05-23T04:20:00	0.2033	10.967	185.0	0.477448696	0.566932445	0.008008929	0.082626641	0.025466333
2020-05-23T04:25:00	0.2040	10.965	185.0	0.479965634	0.570370823	0.008085795	0.083419652	0.025710747
2020-05-23T04:30:00	0.2053	10.964	185.0	0.484206258	0.576175351	0.008216123	0.084764223	0.026125157
2020-05-23T04:35:00	0.2064	10.967	185.0	0.488096977	0.581513570	0.008336605	0.086007220	0.026508261
2020-05-23T04:40:00	0.2074	10.972	184.0	0.491638993	0.586383888	0.008447046	0.087146621	0.026859435
2020-05-23T04:45:00	0.2079	10.975	184.0	0.493457334	0.588888036	0.008504023	0.087734441	0.027040607
2020-05-23T04:50:00	0.2088	10.978	184.0	0.496306252	0.592816785	0.008593676	0.088659369	0.027325679
2020-05-23T04:55:00	0.2101	10.980	183.0	0.500869909	0.599123798	0.008738264	0.090151061	0.027785433
2020-05-23T05:00:00	0.2120	10.980	183.0	0.507484128	0.608294451	0.008949954	0.092335026	0.028458552
2020-05-23T05:05:00	0.2132	10.982	183.0	0.511348382	0.613668584	0.009074801	0.093623052	0.028855534
2020-05-23T05:10:00	0.2146	10.989	182.0	0.516233832	0.620480193	0.009233880	0.095264233	0.029361362
2020-05-23T05:15:00	0.2148	10.991	182.0	0.517014125	0.621569916	0.009259415	0.095527681	0.029442559
2020-05-23T05:20:00	0.2157	10.992	181.0	0.520184914	0.626003174	0.009363546	0.096601977	0.029773668
2020-05-23T05:25:00	0.2159	10.996	181.0	0.520622964	0.626616277	0.009377978	0.096750867	0.029819557
2020-05-23T05:30:00	0.2168	11.001	181.0	0.523790426	0.631054148	0.009482663	0.097830883	0.030152428
2020-05-23T05:35:00	0.2188	11.006	181.0	0.530701021	0.640764734	0.009713085	0.100208108	0.030885112
2020-05-23T05:40:00	0.2202	11.008	181.0	0.535219179	0.647134543	0.009865240	0.101777866	0.031368927
2020-05-23T05:45:00	0.2201	11.013	180.0	0.534975502	0.646790577	0.009857004	0.101692891	0.031342737
2020-05-23T05:50:00	0.2219	11.022	180.0	0.541185159	0.655571039	0.010067979	0.103869488	0.032013585
2020-05-23T05:55:00	0.2249	11.029	179.0	0.551446045	0.670149061	0.010421544	0.107517150	0.033137830
2020-05-23T06:00:00	0.2265	11.041	179.0	0.556612970	0.677522598	0.010601923	0.109378084	0.033711388
2020-05-23T06:05:00	0.2279	11.051	179.0	0.561434893	0.684423601	0.010771674	0.111129380	0.034251154
2020-05-23T06:10:00	0.2299	11.062	179.0	0.568270952	0.694240027	0.011014681	0.113636435	0.035023853
2020-05-23T06:15:00	0.2312	11.071	178.0	0.572404270	0.700194102	0.011162951	0.115166103	0.035495311
2020-05-23T06:20:00	0.2308	11.079	177.0	0.571154057	0.698391671	0.011117997	0.114702321	0.035352369
2020-05-23T06:25:00	0.2320	11.085	177.0	0.575283973	0.704350693	0.011266848	0.116237995	0.035825679
2020-05-23T06:30:00	0.2332	11.089	177.0	0.579409030	0.710316809	0.011416533	0.117782267	0.036301639
2020-05-23T06:35:00	0.2345	11.091	177.0	0.583529244	0.716290019	0.011567050	0.119335126	0.036780245
2020-05-23T06:40:00	0.2335	11.100	177.0	0.580270264	0.711564204	0.011447912	0.118105996	0.036401415
2020-05-23T06:45:00	0.2346	11.106	177.0	0.584054296	0.717052217	0.011586304	0.119533759	0.036841465
2020-05-23T06:50:00	0.2372	11.111	176.0	0.592518760	0.729371423	0.011898954	0.122759316	0.037835613
2020-05-23T06:55:00	0.2363	11.110	176.0	0.589602774	0.725120751	0.011790765	0.121643150	0.037491600
2020-05-23T07:00:00	0.2370	11.113	176.0	0.592039325	0.728672057	0.011881131	0.122575441	0.037778941
2020-05-23T07:05:00	0.2380	11.113	176.0	0.595476649	0.733690425	0.012009216	0.123896866	0.038186217
2020-05-23T07:10:00	0.2386	11.112	176.0	0.597241337	0.736270636	0.012075247	0.124578099	0.038396180
2020-05-23T07:15:00	0.2385	11.111	176.0	0.597001948	0.735920464	0.012066279	0.124485573	0.038367663
2020-05-23T07:20:00	0.2375	11.110	176.0	0.593755415	0.731176253	0.011944990	0.123234255	0.037981994
2020-05-23T07:25:00	0.2370	11.111	176.0	0.591843941	0.728387101	0.011873872	0.122500547	0.037755858
2020-05-23T07:30:00	0.2362	11.112	176.0	0.589262107	0.724624619	0.011778159	0.121513092	0.037451515
2020-05-23T07:35:00	0.2344	11.114	176.0	0.583327389	0.715997054	0.011559653	0.119258807	0.036756722
2020-05-23T07:40:00	0.2337	11.116	176.0	0.581074786	0.712730014	0.011477264	0.118408818	0.036494748
2020-05-23T07:45:00	0.2334	11.117	176.0	0.579827662	0.710923071	0.011431780	0.117939570	0.036350121
2020-05-23T07:50:00	0.2333	11.117	176.0	0.579587087	0.710574653	0.011423017	0.117849160	0.036322256
2020-05-23T07:55:00	0.2352	11.116	176.0	0.586052868	0.719955566	0.011659740	0.120291388	0.037074974
2020-05-23T08:00:00	0.2357	11.118	177.0	0.587822276	0.722528780	0.011724954	0.120964190	0.037282338
2020-05-23T08:05:00	0.2348	11.125	177.0	0.584567274	0.717797110	0.011605130	0.119727988	0.036901329
2020-05-23T08:10:00	0.2348	11.136	177.0	0.584662171	0.717934932	0.011608615	0.119763936	0.036912408
2020-05-23T08:15:00	0.2345	11.138	177.0	0.583751553	0.716612709	0.011575200	0.119419207	0.036806159
2020-05-23T08:20:00	0.2340	11.142	177.0	0.581834640	0.713831589	0.011505022	0.118695191	0.036583011
2020-05-23T08:25:00	0.2347	11.149	177.0	0.584276572	0.717374955	0.011594459	0.119617899	0.036867398
2020-05-23T08:30:00	0.2345	11.154	178.0	0.583701094	0.716539461	0.011573350	0.119400120	0.036800277
2020-05-23T08:35:00	0.2346	11.170	178.0	0.584131211	0.717163892	0.011589125	0.119562871	0.036850438
2020-05-23T08:40:00	0.2356	11.184	178.0	0.587241385	0.721683714	0.011703524	0.120743099	0.037214196
2020-05-23T08:45:00	0.2366	11.197	178.0	0.590683388	0.726695150	0.011830799	0.122056172	0.037618898
2020-05-23T08:50:00	0.2372	11.205	178.0	0.592784848	0.729759657	0.011908852	0.122861428	0.037867085
2020-05-23T08:55:00	0.2376	11.214	178.0	0.593882433	0.731361702	0.011949723	0.123283090	0.037997046
2020-05-23T09:00:00	0.2384	11.222	178.0	0.596650041	0.735405791	0.012053101	0.124349623	0.038325762
2020-05-23T09:05:00	0.2382	11.232	178.0	0.596076579	0.734567312	0.012031643	0.124128245	0.038257531
2020-05-23T09:10:00	0.2395	11.238	179.0	0.600511008	0.741058215	0.012198084	0.125845383	0.038786769
2020-05-23T09:15:00	0.2398	11.236	179.0	0.601272655	0.742174731	0.012226790	0.126141535	0.038878046
2020-05-23T09:20:00	0.2399	11.247	179.0	0.601700635	0.742802331	0.012242935	0.126308104	0.038929384
2020-05-23T09:25:00	0.2398	11.259	180.0	0.601461548	0.742451710	0.012233914	0.126215038	0.038900700
2020-05-23T09:30:00	0.2403	11.270	180.0	0.602889863	0.744547046	0.012287856	0.126771543	0.039072221
2020-05-23T09:35:00	0.2400	11.282	180.0	0.601983938	0.743217857	0.012253629	0.126418427	0.038963387
2020-05-23T09:40:00	0.2403	11.293	180.0	0.603078670	0.744824154	0.012294995	0.126845202	0.039094923
2020-05-23T09:45:00	0.2403	11.297	180.0	0.603173070	0.744962714	0.012298566	0.126882038	0.039106276
2020-05-23T09:50:00	0.2402	11.302	180.0	0.602600666	0.744122656	0.012276924	0.126658764	0.039037461
2020-05-23T09:55:00	0.2393	11.309	180.0	0.599692995	0.739859610	0.012167292	0.125527713	0.038688860
2020-05-23T10:00:00	0.2401	11.320	180.0	0.602456059	0.743910475	0.012271460	0.126602390	0.039020086
2020-05-23T10:05:00	0.2409	11.325	180.0	0.604892710	0.747488098	0.012363701	0.127554023	0.039313389
2020-05-23T10:10:00	0.2410	11.335	180.0	0.605329197	0.748129498	0.012380262	0.127724881	0.039366049
2020-05-23T10:15:00	0.2417	11.345	180.0	0.607763875	0.751710085	0.012472847	0.128680067	0.039660446
2020-05-23T10:20:00	0.2412	11.351	180.0	0.605868902	0.748922791	0.012400755	0.127936304	0.039431211
2020-05-23T10:25:00	0.2398	11.361	181.0	0.601305485	0.742222868	0.012228028	0.126154308	0.038881983
2020-05-23T10:30:00	0.2394	11.373	180.0	0.600074456	0.740418481	0.012181646	0.125675799	0.038734502
2020-05-23T10:35:00	0.2380	11.388	181.0	0.595503555	0.733729745	0.012010221	0.123907238	0.038189414
2020-05-23T10:40:00	0.2368	11.404	181.0	0.591261250	0.727537464	0.011852236	0.122277331	0.037687061
2020-05-23T10:45:00	0.2361	11.437	181.0	0.589022707	0.724276024	0.011769304	0.121421738	0.037423359
2020-05-23T10:50:00	0.2361	11.459	181.0	0.589126468	0.724427106	0.011773141	0.121461329	0.037435561
2020-05-23T10:55:00	0.2343	11.480	181.0	0.582865233	0.715326428	0.011542725	0.119084165	0.036702896
2020-05-23T11:00:00	0.2351	11.491	181.0	0.585650497	0.719370770	0.011644936	0.120138658	0.037027901
2020-05-23T11:05:00	0.2323	11.520	182.0	0.576361046	0.705907114	0.011305834	0.116640208	0.035949645
2020-05-23T11:10:00	0.2318	11.536	182.0	0.574449114	0.703144942	0.011236676	0.115926719	0.035729741
2020-05-23T11:15:00	0.2318	11.550	182.0	0.574553306	0.703295391	0.011240440	0.115965544	0.035741707
2020-05-23T11:20:00	0.2305	11.566	182.0	0.570285624	0.697140413	0.011086825	0.114380727	0.035253251
2020-05-23T11:25:00	0.2297	11.599	182.0	0.567360148	0.692929906	0.010982145	0.113300763	0.034920396
2020-05-23T11:30:00	0.2300	11.622	182.0	0.568474744	0.694533260	0.011021968	0.113711610	0.035047023
2020-05-23T11:35:00	0.2304	11.645	182.0	0.569925544	0.696621783	0.011073913	0.114247519	0.035212195
2020-05-23T11:40:00	0.2298	11.664	182.0	0.568010093	0.693864731	0.011005358	0.113540245	0.034994206
2020-05-23T11:45:00	0.2251	11.686	182.0	0.551914519	0.670816700	0.010437834	0.107685209	0.033189627
2020-05-23T11:50:00	0.2295	11.705	183.0	0.566871772	0.692227696	0.010964719	0.113120983	0.034864986
2020-05-23T11:55:00	0.2313	11.710	183.0	0.573033817	0.701102210	0.011185622	0.115400002	0.035567401
2020-05-23T12:00:00	0.2310	11.711	183.0	0.571792858	0.699312469	0.011140954	0.114939173	0.035425369
2020-05-23T12:05:00	0.2306	11.707	183.0	0.570551459	0.697523367	0.011096362	0.114479121	0.035283577
2020-05-23T12:10:00	0.2311	11.701	183.0	0.572337724	0.700098131	0.011160555	0.115141393	0.035487696
2020-05-23T12:15:00	0.2319	11.701	183.0	0.574795293	0.703644843	0.011249182	0.116055739	0.035769506
2020-05-23T12:20:00	0.2320	11.702	183.0	0.575235523	0.704280703	0.011265096	0.116219918	0.035820108
2020-05-23T12:25:00	0.2310	11.709	183.0	0.571977855	0.699579194	0.011147608	0.115007812	0.035446525
2020-05-23T12:30:00	0.2329	11.726	183.0	0.578130928	0.708466768	0.011370047	0.117302679	0.036153825
2020-05-23T12:35:00	0.2322	11.736	183.0	0.575884007	0.705217652	0.011288559	0.116461979	0.035894713
2020-05-23T12:40:00	0.2321	11.749	183.0	0.575652180	0.704882662	0.011280168	0.116375415	0.035868033
2020-05-23T12:45:00	0.2318	11.759	183.0	0.574412149	0.703091569	0.011235341	0.115912947	0.035725496
2020-05-23T12:50:00	0.2316	11.762	183.0	0.573844075	0.702271472	0.011214836	0.115701398	0.035660295
2020-05-23T12:55:00	0.2313	11.766	183.0	0.572939672	0.700966387	0.011182230	0.115365008	0.035556616
2020-05-23T13:00:00	0.2314	11.768	184.0	0.573380136	0.701601907	0.011198104	0.115528775	0.035607090
2020-05-23T13:05:00	0.2346	11.768	184.0	0.583891120	0.716815317	0.011580318	0.119472010	0.036822434
2020-05-23T13:10:00	0.2341	11.769	184.0	0.582318658	0.714533529	0.011522721	0.118877791	0.036639290
2020-05-23T13:15:00	0.2350	11.767	184.0	0.585439428	0.719064060	0.011637174	0.120058581	0.037003221
2020-05-23T13:20:00	0.2313	11.764	184.0	0.572788357	0.700748100	0.011176780	0.115308776	0.035539285
2020-05-23T13:25:00	0.2331	11.760	184.0	0.578940009	0.709637749	0.011399463	0.117606158	0.036247360
2020-05-23T13:30:00	0.2343	11.757	184.0	0.583069774	0.715623212	0.011550215	0.119161442	0.036726714
2020-05-23T13:35:00	0.2348	11.748	184.0	0.584514549	0.717720537	0.011603194	0.119708017	0.036895173
2020-05-23T13:40:00	0.2355	11.738	184.0	0.586963611	0.721279715	0.011693283	0.120637450	0.037181634
2020-05-23T13:45:00	0.2353	11.729	184.0	0.586397564	0.720456645	0.011672430	0.120422305	0.037115324
2020-05-23T13:50:00	0.2362	11.723	184.0	0.589180034	0.724505106	0.011775123	0.121481770	0.037441861
2020-05-23T13:55:00	0.2356	11.715	184.0	0.587275067	0.721732706	0.011704766	0.120755913	0.037218145
2020-05-23T14:00:00	0.2371	11.709	184.0	0.592398396	0.729195826	0.011894478	0.122713140	0.037821381
2020-05-23T14:05:00	0.2368	11.704	184.0	0.591498755	0.727883743	0.011861052	0.122368289	0.037715095
2020-05-23T14:10:00	0.2368	11.700	184.0	0.591267956	0.727547241	0.011852485	0.122279899	0.037687852
2020-05-23T14:15:00	0.2371	11.693	184.0	0.592374989	0.729161680	0.011893608	0.122704161	0.037818614
2020-05-23T14:20:00	0.2369	11.688	185.0	0.591809811	0.728337326	0.011872604	0.122487467	0.037751827
2020-05-23T14:25:00	0.2360	11.681	184.0	0.588567480	0.723613293	0.011752475	0.121248123	0.037369849
2020-05-23T14:30:00	0.2352	11.670	186.0	0.585992235	0.719867434	0.011657509	0.120268367	0.037067879
2020-05-23T14:35:00	0.2350	11.659	184.0	0.585426031	0.719044595	0.011636682	0.120053500	0.037001655
2020-05-23T14:40:00	0.2352	11.651	186.0	0.585864931	0.719682406	0.011652824	0.120220040	0.037052984
2020-05-23T14:45:00	0.2353	11.643	185.0	0.586303777	0.720320298	0.011668976	0.120386677	0.037104343
2020-05-23T14:50:00	0.2356	11.635	185.0	0.587412370	0.721932430	0.011709830	0.120808156	0.037234247
2020-05-23T14:55:00	0.2357	11.627	186.0	0.587516179	0.722083442	0.011713659	0.120847662	0.037246423
2020-05-23T15:00:00	0.2369	11.621	185.0	0.591635894	0.728083710	0.011866144	0.122420825	0.037731287
2020-05-23T15:05:00	0.2378	11.614	185.0	0.594748424	0.732626419	0.011982021	0.123616304	0.038099745
2020-05-23T15:10:00	0.2395	11.609	188.0	0.600528240	0.741083469	0.012198733	0.125852079	0.038788833
2020-05-23T15:15:00	0.2399	11.602	187.0	0.601632375	0.742702222	0.012240359	0.126281530	0.038921194
2020-05-23T15:20:00	0.2387	11.593	188.0	0.597731335	0.736987541	0.012093615	0.124767596	0.038454585
2020-05-23T15:25:00	0.2382	11.582	188.0	0.596165037	0.734696631	0.012034952	0.124162380	0.038268051
2020-05-23T15:30:00	0.2382	11.573	188.0	0.595934543	0.734359677	0.012026331	0.124073445	0.038240641
2020-05-23T15:35:00	0.2386	11.563	187.0	0.597374055	0.736464792	0.012080221	0.124629410	0.038411995
2020-05-23T15:40:00	0.2395	11.554	187.0	0.600481534	0.741015017	0.012196974	0.125833930	0.038783239
2020-05-23T15:45:00	0.2391	11.544	188.0	0.598916454	0.738722290	0.012138099	0.125226530	0.038596033
2020-05-23T15:50:00	0.2387	11.533	187.0	0.597684593	0.736919144	0.012091862	0.124749513	0.038449011
2020-05-23T15:55:00	0.2393	11.520	186.0	0.599790849	0.740002962	0.012170974	0.125565692	0.038700566
2020-05-23T16:00:00	0.2404	11.508	188.0	0.603229596	0.745045685	0.012300704	0.126904097	0.039113075
2020-05-23T16:05:00	0.2394	11.497	187.0	0.600000722	0.740310445	0.012178871	0.125647168	0.038725677
2020-05-23T16:10:00	0.2396	11.488	186.0	0.600774418	0.741444298	0.012208008	0.125947764	0.038818324
2020-05-23T16:15:00	0.2397	11.478	189.0	0.600880819	0.741600269	0.012212017	0.125989132	0.038831074
2020-05-23T16:20:00	0.2410	11.467	187.0	0.605321160	0.748117685	0.012379957	0.127721733	0.039365079
2020-05-23T16:25:00	0.2409	11.457	187.0	0.605094242	0.747784221	0.012371346	0.127632896	0.039337698
2020-05-23T16:30:00	0.2414	11.449	188.0	0.606533014	0.749899283	0.012425996	0.128196710	0.039511471
2020-05-23T16:35:00	0.2425	11.440	187.0	0.610300929	0.755446523	0.012569704	0.129679321	0.039968426
2020-05-23T16:40:00	0.2422	11.432	188.0	0.609408807	0.754132038	0.012535602	0.129327492	0.039859989
2020-05-23T16:45:00	0.2430	11.424	188.0	0.612176213	0.758211817	0.012641545	0.130420490	0.040196862
2020-05-23T16:50:00	0.2428	11.416	185.0	0.611284563	0.756896620	0.012607360	0.130067811	0.040088162
2020-05-23T16:55:00	0.2440	11.409	188.0	0.615379692	0.762942503	0.012764757	0.131691647	0.040588645
2020-05-23T17:00:00	0.2437	11.402	186.0	0.614488845	0.761626092	0.012730431	0.131337515	0.040479498
2020-05-23T17:05:00	0.2428	11.394	189.0	0.611270209	0.756875454	0.012606810	0.130062137	0.040086414
2020-05-23T17:10:00	0.2431	11.386	189.0	0.612373980	0.758503616	0.012649134	0.130498781	0.040220992
2020-05-23T17:15:00	0.2440	11.379	190.0	0.615471320	0.763077939	0.012768290	0.131728099	0.040599879
2020-05-23T17:20:00	0.2440	11.371	190.0	0.615245050	0.762743499	0.012759566	0.131638092	0.040572138
2020-05-23T17:25:00	0.2447	11.362	189.0	0.617675915	0.766338725	0.012853454	0.132606719	0.040870679
2020-05-23T17:30:00	0.2415	11.353	189.0	0.607141596	0.750794449	0.012449150	0.128435582	0.039585094
2020-05-23T17:35:00	0.2436	11.343	188.0	0.613901473	0.760758494	0.012707825	0.131104291	0.040407616
2020-05-23T17:40:00	0.2428	11.333	189.0	0.611347589	0.756989563	0.012609775	0.130092724	0.040095841
2020-05-23T17:45:00	0.2436	11.323	190.0	0.614113486	0.761071622	0.012715983	0.131188449	0.040433554
2020-05-23T17:50:00	0.2437	11.313	191.0	0.614219488	0.761228193	0.012720062	0.131230536	0.040446526
2020-05-23T17:55:00	0.2444	11.300	189.0	0.616651053	0.764822358	0.012813827	0.132197895	0.040744675
2020-05-23T18:00:00	0.2455	11.287	190.0	0.620408266	0.770385788	0.012959412	0.133699862	0.041207596
2020-05-23T18:05:00	0.2448	11.275	189.0	0.617859049	0.766609781	0.012860542	0.132679841	0.040893216
2020-05-23T18:10:00	0.2446	11.264	189.0	0.617300892	0.765783746	0.012838946	0.132457044	0.040824547
2020-05-23T18:15:00	0.2435	11.252	189.0	0.613752431	0.760538393	0.012702092	0.131045146	0.040389387
2020-05-23T18:20:00	0.2434	11.239	190.0	0.613193630	0.759713335	0.012680610	0.130823516	0.040321078
2020-05-23T18:25:00	0.2440	11.226	188.0	0.615293670	0.762815357	0.012761441	0.131657429	0.040578098
2020-05-23T18:30:00	0.2439	11.215	190.0	0.615067389	0.762480934	0.012752718	0.131567443	0.040550364
2020-05-23T18:35:00	0.2441	11.204	189.0	0.615837806	0.763619721	0.012782428	0.131873949	0.040644832
2020-05-23T18:40:00	0.2419	11.189	189.0	0.608295366	0.752492389	0.012493106	0.128889072	0.039724864
2020-05-23T18:45:00	0.2450	11.173	190.0	0.618706084	0.767863836	0.012893350	0.133018318	0.040997537
2020-05-23T18:50:00	0.2444	11.157	188.0	0.616819909	0.765072133	0.012820352	0.132265208	0.040765422
2020-05-23T18:55:00	0.2433	11.142	189.0	0.612938522	0.759336761	0.012670809	0.130722401	0.040289913
2020-05-23T19:00:00	0.2424	11.126	188.0	0.610051229	0.755078538	0.012560154	0.129580796	0.039938060
2020-05-23T19:05:00	0.2424	11.112	189.0	0.610157352	0.755234926	0.012564212	0.129622664	0.039950964
2020-05-23T19:10:00	0.2445	11.097	190.0	0.616911499	0.765207626	0.012823892	0.132301727	0.040776677
2020-05-23T19:15:00	0.2449	11.083	187.0	0.618345494	0.767329901	0.012879378	0.132874171	0.040953110
2020-05-23T19:20:00	0.2451	11.069	190.0	0.619115203	0.768469765	0.012909212	0.133181962	0.041047974
2020-05-23T19:25:00	0.2459	11.056	190.0	0.621543429	0.772069002	0.013003564	0.134155376	0.041347990
2020-05-23T19:30:00	0.2460	11.043	187.0	0.621980844	0.772717889	0.013020599	0.134331115	0.041402154
2020-05-23T19:35:00	0.2464	11.030	189.0	0.623412801	0.774843267	0.013076444	0.134907259	0.041579728
2020-05-23T19:40:00	0.2471	11.017	189.0	0.625506828	0.777954435	0.013158332	0.135752085	0.041840111
2020-05-23T19:45:00	0.2464	11.004	189.0	0.623292767	0.774665041	0.013071758	0.134858915	0.041564827
2020-05-23T19:50:00	0.2469	10.991	190.0	0.625055547	0.777283638	0.013140662	0.135569787	0.041783925
2020-05-23T19:55:00	0.2462	10.979	186.0	0.622509652	0.773502569	0.013041207	0.134543731	0.041467684
2020-05-23T20:00:00	0.2471	10.964	190.0	0.625598195	0.778090268	0.013161911	0.135789009	0.041851491
2020-05-23T20:05:00	0.2469	10.950	190.0	0.625041249	0.777262388	0.013140102	0.135564013	0.041782145
2020-05-23T20:10:00	0.2459	10.938	190.0	0.621500492	0.772005316	0.013001893	0.134138132	0.041342675
2020-05-23T20:15:00	0.2460	10.925	190.0	0.621937912	0.772654195	0.013018926	0.134313861	0.041396836
2020-05-23T20:20:00	0.2470	10.914	189.0	0.625358271	0.777733597	0.013152514	0.135692061	0.041821611
2020-05-23T20:25:00	0.2467	10.902	188.0	0.624138512	0.775921061	0.013104793	0.135199735	0.041669871
2020-05-23T20:30:00	0.2465	10.890	189.0	0.623581337	0.775093530	0.013083025	0.134975153	0.041600653
2020-05-23T20:35:00	0.2465	10.877	187.0	0.623687057	0.775250529	0.013087154	0.135017751	0.041613782
2020-05-23T20:40:00	0.2465	10.863	189.0	0.623792775	0.775407532	0.013091283	0.135060355	0.041626913
2020-05-23T20:45:00	0.2457	10.849	188.0	0.620914276	0.771135963	0.012979084	0.133902813	0.041270147
2020-05-23T20:50:00	0.2462	10.834	190.0	0.622678231	0.773752767	0.013047781	0.134611547	0.041488586
2020-05-23T20:55:00	0.2453	10.820	188.0	0.619798831	0.769482570	0.012935740	0.133455641	0.041132325
2020-05-23T21:00:00	0.2444	10.805	189.0	0.616584998	0.764724654	0.012811275	0.132171567	0.040736561
2020-05-23T21:05:00	0.2429	10.790	189.0	0.611705762	0.757517811	0.012623503	0.130234348	0.040139491
2020-05-23T21:10:00	0.2423	10.775	188.0	0.609815870	0.754731736	0.012551156	0.129487965	0.039909448
2020-05-23T21:15:00	0.2423	10.759	189.0	0.609589240	0.754397840	0.012542495	0.129398610	0.039881908
2020-05-23T21:20:00	0.2424	10.744	190.0	0.610028127	0.755044495	0.012559271	0.129571682	0.039935251
2020-05-23T21:25:00	0.2434	10.731	189.0	0.613459939	0.760106502	0.012690846	0.130929115	0.040353625
2020-05-23T21:30:00	0.2431	10.720	190.0	0.612236098	0.758300172	0.012643843	0.130444194	0.040204168
2020-05-23T21:35:00	0.2426	10.711	189.0	0.610679178	0.756004050	0.012584178	0.129828640	0.040014448
2020-05-23T21:40:00	0.2425	10.700	189.0	0.610452603	0.755670071	0.012575507	0.129739186	0.039986877
2020-05-23T21:45:00	0.2425	10.691	189.0	0.610226013	0.755336114	0.012566839	0.129649757	0.039959314
2020-05-23T21:50:00	0.2426	10.681	189.0	0.610664822	0.755982888	0.012583628	0.129822972	0.040012701
2020-05-23T21:55:00	0.2407	10.671	190.0	0.604444657	0.746829869	0.012346713	0.127378761	0.039259371
2020-05-23T22:00:00	0.2412	10.659	189.0	0.605883692	0.748944535	0.012401317	0.127942101	0.039432998
2020-05-23T22:05:00	0.2413	10.648	188.0	0.606364234	0.749651079	0.012419579	0.128130504	0.039491066
2020-05-23T22:10:00	0.2400	10.638	189.0	0.602179177	0.743504257	0.012261001	0.126494486	0.038986829
2020-05-23T22:15:00	0.2409	10.627	190.0	0.604993440	0.747636102	0.012367522	0.127593442	0.039325538
2020-05-23T22:20:00	0.2406	10.615	189.0	0.604141204	0.746384166	0.012335214	0.127260132	0.039222808
2020-05-23T22:25:00	0.2404	10.601	189.0	0.603288763	0.745132538	0.012302942	0.126927190	0.039120193
2020-05-23T22:30:00	0.2403	10.586	189.0	0.603102950	0.744859791	0.012295914	0.126854675	0.039097843
2020-05-23T22:35:00	0.2399	10.570	189.0	0.601583266	0.742630203	0.012238506	0.126262413	0.038915302
2020-05-23T22:40:00	0.2406	10.555	189.0	0.604064724	0.746271846	0.012332317	0.127230242	0.039213596
2020-05-23T22:45:00	0.2394	10.538	190.0	0.599876946	0.740129098	0.012174213	0.125599113	0.038710866
2020-05-23T22:50:00	0.2389	10.519	190.0	0.598355876	0.737901583	0.012117047	0.125009340	0.038529093
2020-05-23T22:55:00	0.2397	10.500	189.0	0.601173179	0.742028880	0.012223039	0.126102835	0.038866119
2020-05-23T23:00:00	0.2408	10.483	187.0	0.604654782	0.747138540	0.012354678	0.127460939	0.039284699
2020-05-23T23:05:00	0.2404	10.465	188.0	0.603469130	0.745397317	0.012309767	0.126997599	0.039141893
2020-05-23T23:10:00	0.2411	10.446	189.0	0.605616134	0.748551227	0.012391155	0.127837263	0.039400686
2020-05-23T23:15:00	0.2407	10.428	187.0	0.604430804	0.746809521	0.012346188	0.127373344	0.039257702
2020-05-23T23:20:00	0.2409	10.409	187.0	0.604911543	0.747515769	0.012364415	0.127561393	0.039315660
2020-05-23T23:25:00	0.2408	10.392	185.0	0.604725815	0.747242895	0.012357372	0.127488725	0.039293263
2020-05-23T23:30:00	0.2407	10.374	189.0	0.604206812	0.746480522	0.012337700	0.127285775	0.039230712
2020-05-23T23:35:00	0.2401	10.356	189.0	0.602354161	0.743760972	0.012267610	0.126562674	0.039007845
2020-05-23T23:40:00	0.2399	10.340	188.0	0.601834810	0.742999120	0.012247999	0.126360348	0.038945487
2020-05-23T23:45:00	0.2398	10.323	186.0	0.601315383	0.742237382	0.012228401	0.126158160	0.038883170
2020-05-23T23:50:00	0.2388	10.306	188.0	0.598126054	0.737565190	0.012108422	0.124920353	0.038501666
2020-05-23T23:55:00	0.2393	10.291	188.0	0.599608934	0.739736470	0.012164130	0.125495092	0.038678806
2020-05-24T00:00:00	0.2393	10.278	188.0	0.599756644	0.739952852	0.012169687	0.125552415	0.038696474
2020-05-24T00:05:00	0.2396	10.264	188.0	0.600571657	0.741147104	0.012200368	0.125868952	0.038794033
2020-05-24T00:10:00	0.2392	10.250	185.0	0.599384637	0.739407929	0.012155696	0.125408071	0.038651985
2020-05-24T00:15:00	0.2381	10.240	188.0	0.595525427	0.733761710	0.012011039	0.123915670	0.038192013
2020-05-24T00:20:00	0.2377	10.228	188.0	0.594336710	0.732025063	0.011966660	0.123457828	0.038050902
2020-05-24T00:25:00	0.2373	10.214	188.0	0.593147592	0.730289010	0.011922351	0.123000703	0.037910011
2020-05-24T00:30:00	0.2371	10.204	188.0	0.592292496	0.729041342	0.011890541	0.122672521	0.037808862
2020-05-24T00:35:00	0.2362	10.191	187.0	0.589429696	0.724868676	0.011784360	0.121577065	0.037471232
2020-05-24T00:40:00	0.2363	10.177	188.0	0.589577833	0.725084424	0.011789842	0.121633626	0.037488665
2020-05-24T00:45:00	0.2371	10.163	187.0	0.592402145	0.729201296	0.011894618	0.122714578	0.037821825
2020-05-24T00:50:00	0.2376	10.148	188.0	0.593887431	0.731368998	0.011949909	0.123285012	0.037997638
2020-05-24T00:55:00	0.2365	10.135	188.0	0.590356810	0.726219239	0.011818693	0.121931275	0.037580403
2020-05-24T01:00:00	0.2354	10.124	187.0	0.586822648	0.721074721	0.011688088	0.120583854	0.037165115
2020-05-24T01:05:00	0.2348	10.111	189.0	0.584625731	0.717882008	0.011607276	0.119750131	0.036908153
2020-05-24T01:10:00	0.2349	10.096	187.0	0.585109174	0.718584237	0.011625035	0.119933342	0.036964621
2020-05-24T01:15:00	0.2352	10.082	188.0	0.585927578	0.719773458	0.011655129	0.120243820	0.037060313
2020-05-24T01:20:00	0.2350	10.066	188.0	0.585405804	0.719015205	0.011635938	0.120045827	0.036999290
2020-05-24T01:25:00	0.2352	10.049	189.0	0.585889140	0.719717592	0.011653715	0.120229229	0.037055816
2020-05-24T01:30:00	0.2347	10.035	185.0	0.584362024	0.717499040	0.011597595	0.119650254	0.036877370
2020-05-24T01:35:00	0.2334	10.020	188.0	0.579815195	0.710905014	0.011431326	0.117934884	0.036348677
2020-05-24T01:40:00	0.2330	10.009	187.0	0.578621160	0.709176214	0.011387866	0.117486513	0.036210484
2020-05-24T01:45:00	0.2322	9.995	188.0	0.576083171	0.705505480	0.011295770	0.116536373	0.035917642
2020-05-24T01:50:00	0.2327	9.982	188.0	0.577575362	0.707663012	0.011349871	0.117094523	0.036089669
2020-05-24T01:55:00	0.2328	9.969	189.0	0.578059776	0.708363815	0.011367462	0.117276010	0.036145605
2020-05-24T02:00:00	0.2327	9.956	185.0	0.577536832	0.707607280	0.011348472	0.117080094	0.036085222
2020-05-24T02:05:00	0.2322	9.943	186.0	0.576006079	0.705394064	0.011292978	0.116507574	0.035908766
2020-05-24T02:10:00	0.2315	9.928	187.0	0.573466196	0.701726097	0.011201207	0.115560786	0.035616957
2020-05-24T02:15:00	0.2315	9.915	188.0	0.573615007	0.701940855	0.011206573	0.115616150	0.035634020
2020-05-24T02:20:00	0.2315	9.900	186.0	0.573427621	0.701670431	0.011199816	0.115546438	0.035612534
2020-05-24T02:25:00	0.2316	9.888	187.0	0.573912609	0.702370397	0.011217309	0.115726910	0.035668157
2020-05-24T02:30:00	0.2326	9.876	186.0	0.577421242	0.707440087	0.011344277	0.117036812	0.036071882
2020-05-24T02:35:00	0.2320	9.863	187.0	0.575218434	0.704256017	0.011264478	0.116213543	0.035818143
2020-05-24T02:40:00	0.2323	9.852	186.0	0.576375085	0.705927409	0.011306343	0.116645455	0.035951262
2020-05-24T02:45:00	0.2330	9.842	184.0	0.578538648	0.709056792	0.011384866	0.117455561	0.036200945
2020-05-24T02:50:00	0.2339	9.833	187.0	0.581707262	0.713646893	0.011500366	0.118647160	0.036568207
2020-05-24T02:55:00	0.2342	9.825	184.0	0.582526458	0.714834949	0.011530324	0.118956230	0.036663466
2020-05-24T03:00:00	0.2335	9.815	188.0	0.580326854	0.711646189	0.011449975	0.118127284	0.036407976
2020-05-24T03:05:00	0.2347	9.806	185.0	0.584164278	0.717211902	0.011590339	0.119575388	0.036854296
2020-05-24T03:10:00	0.2350	9.797	187.0	0.585317987	0.718887609	0.011632710	0.120012520	0.036989024
2020-05-24T03:15:00	0.2347	9.787	187.0	0.584460987	0.717642753	0.011601228	0.119687731	0.036888921
2020-05-24T03:20:00	0.2349	9.776	185.0	0.584944453	0.718344949	0.011618983	0.119870902	0.036945376
2020-05-24T03:25:00	0.2347	9.764	186.0	0.584422533	0.717586910	0.011599816	0.119673168	0.036884433
2020-05-24T03:30:00	0.2340	9.752	186.0	0.581888736	0.713910031	0.011506999	0.118715592	0.036589298
2020-05-24T03:35:00	0.2338	9.740	184.0	0.581366362	0.713152660	0.011487911	0.118518665	0.036528604
2020-05-24T03:40:00	0.2339	9.732	187.0	0.581514838	0.713367907	0.011493335	0.118574621	0.036545850
2020-05-24T03:45:00	0.2344	9.725	187.0	0.583339995	0.716015350	0.011560115	0.119263572	0.036758191
2020-05-24T03:50:00	0.2344	9.721	184.0	0.583153129	0.715744167	0.011553268	0.119192941	0.036736422
2020-05-24T03:55:00	0.2339	9.719	186.0	0.581624823	0.713527365	0.011497354	0.118616080	0.036558628
2020-05-24T04:00:00	0.2334	9.716	185.0	0.580095852	0.711311540	0.011441554	0.118040400	0.036381198
2020-05-24T04:05:00	0.2342	9.714	185.0	0.582485514	0.714775556	0.011528826	0.118940773	0.036658701
2020-05-24T04:10:00	0.2349	9.712	185.0	0.584873553	0.718241959	0.011616378	0.119844031	0.036937094
2020-05-24T04:15:00	0.2356	9.710	187.0	0.587259971	0.721710748	0.011704209	0.120750170	0.037216375
2020-05-24T04:20:00	0.2367	9.709	186.0	0.590983148	0.727132058	0.011841917	0.122170871	0.037654249
2020-05-24T04:25:00	0.2373	9.708	185.0	0.593031113	0.730119019	0.011918016	0.122955972	0.037896225
2020-05-24T04:30:00	0.2369	9.708	187.0	0.591734881	0.728228056	0.011869821	0.122458753	0.037742977
2020-05-24T04:35:00	0.2377	9.706	187.0	0.594450876	0.732191801	0.011970919	0.123501762	0.038064443
2020-05-24T04:40:00	0.2377	9.702	186.0	0.594492211	0.732252173	0.011972461	0.123517671	0.038069346
2020-05-24T04:45:00	0.2389	9.699	186.0	0.598207767	0.737684790	0.012111488	0.124951989	0.038511416
2020-05-24T04:50:00	0.2398	9.697	187.0	0.601252367	0.742144984	0.012226025	0.126133642	0.038875613
2020-05-24T04:55:00	0.2401	9.697	186.0	0.602294147	0.743672924	0.012265343	0.126539285	0.039000637
2020-05-24T05:00:00	0.2407	9.697	184.0	0.604335569	0.746669635	0.012342579	0.127336108	0.039246225
2020-05-24T05:05:00	0.2409	9.695	185.0	0.605043256	0.747709302	0.012369412	0.127612939	0.039331547
2020-05-24T05:10:00	0.2415	9.694	185.0	0.607083096	0.750708388	0.012446923	0.128412610	0.039578014
2020-05-24T05:15:00	0.2418	9.692	186.0	0.608123164	0.752238897	0.012486540	0.128821335	0.039703987
2020-05-24T05:20:00	0.2423	9.691	185.0	0.609828496	0.754750339	0.012551639	0.129492944	0.039910983
2020-05-24T05:25:00	0.2430	9.689	185.0	0.611865587	0.757753563	0.012629631	0.130297570	0.040158977
2020-05-24T05:30:00	0.2432	9.686	187.0	0.612571774	0.758795487	0.012656726	0.130577106	0.040245132
2020-05-24T05:35:00	0.2434	9.691	187.0	0.613277821	0.759837624	0.012683845	0.130856895	0.040331366
2020-05-24T05:40:00	0.2422	9.689	185.0	0.609327578	0.754012384	0.012532499	0.129295481	0.039850123
2020-05-24T05:45:00	0.2423	9.689	186.0	0.609701520	0.754563258	0.012546786	0.129442875	0.039895551
2020-05-24T05:50:00	0.2424	9.693	186.0	0.610075423	0.755114191	0.012561079	0.129590340	0.039941001
2020-05-24T05:55:00	0.2423	9.697	186.0	0.609783834	0.754684535	0.012549932	0.129475332	0.039905555
2020-05-24T06:00:00	0.2425	9.704	186.0	0.610490435	0.755725835	0.012576954	0.129754120	0.039991480
2020-05-24T06:05:00	0.2422	9.712	184.0	0.609200585	0.753825330	0.012527649	0.129245445	0.039834701
2020-05-24T06:10:00	0.2424	9.721	186.0	0.609907302	0.754866455	0.012554651	0.129524024	0.039920562
2020-05-24T06:15:00	0.2425	9.729	187.0	0.610281183	0.755417421	0.012568949	0.129671528	0.039966024
2020-05-24T06:20:00	0.2417	9.737	187.0	0.607659679	0.751556746	0.012468878	0.128639113	0.039647824
2020-05-24T06:25:00	0.2429	9.746	187.0	0.611694047	0.757500532	0.012623053	0.130229715	0.040138063
2020-05-24T06:30:00	0.2439	9.755	186.0	0.615059373	0.762469088	0.012752409	0.131564256	0.040549381
2020-05-24T06:35:00	0.2446	9.764	186.0	0.617425528	0.765968176	0.012843767	0.132506778	0.040839876
2020-05-24T06:40:00	0.2439	9.774	185.0	0.615141563	0.762590552	0.012755577	0.131596937	0.040559454
2020-05-24T06:45:00	0.2443	9.785	186.0	0.616179274	0.764124619	0.012795607	0.132009918	0.040686739
2020-05-24T06:50:00	0.2449	9.796	187.0	0.618212732	0.767133343	0.012874236	0.132821119	0.040936759
2020-05-24T06:55:00	0.2446	9.807	185.0	0.617257754	0.765719915	0.012837278	0.132439833	0.040819243
2020-05-24T07:00:00	0.2451	9.822	187.0	0.618958711	0.768237975	0.012903144	0.133119354	0.041028678
2020-05-24T07:05:00	0.2452	9.837	186.0	0.619331642	0.768790380	0.012917608	0.133268578	0.041074670
2020-05-24T07:10:00	0.2464	9.865	188.0	0.623352803	0.774754181	0.013074101	0.134883094	0.041572279
2020-05-24T07:15:00	0.2469	9.882	186.0	0.625050856	0.777276667	0.013140478	0.135567893	0.041783341
2020-05-24T07:20:00	0.2468	9.909	187.0	0.624760491	0.776845152	0.013129116	0.135450666	0.041747211
2020-05-24T07:25:00	0.2476	9.897	185.0	0.627120219	0.780354033	0.013221605	0.136404865	0.042041304
2020-05-24T07:30:00	0.2471	9.917	188.0	0.625505102	0.777951869	0.013158264	0.135751388	0.041839896
2020-05-24T07:35:00	0.2477	9.941	188.0	0.627533250	0.780968688	0.013237829	0.136572239	0.042092890
2020-05-24T07:40:00	0.2475	9.959	187.0	0.626911941	0.780044137	0.013213428	0.136320504	0.042015303
2020-05-24T07:45:00	0.2481	9.971	185.0	0.628939291	0.783062179	0.013293134	0.137142810	0.042268746
2020-05-24T07:50:00	0.2488	9.992	185.0	0.631296263	0.786575286	0.013386111	0.138102038	0.042564389
2020-05-24T07:55:00	0.2483	10.021	186.0	0.629683032	0.784170230	0.013322436	0.137445119	0.042361921
2020-05-24T08:00:00	0.2486	10.040	189.0	0.630716524	0.785710738	0.013363210	0.137865777	0.042491571
2020-05-24T08:05:00	0.2474	10.065	187.0	0.626785573	0.779856133	0.013208468	0.136269334	0.041999532
2020-05-24T08:10:00	0.2478	10.109	189.0	0.627819902	0.781395356	0.013249094	0.136688462	0.042128712
2020-05-24T08:15:00	0.2486	10.153	189.0	0.630508455	0.785400521	0.013354996	0.137781034	0.042465453
2020-05-24T08:20:00	0.2481	10.179	186.0	0.628894869	0.782996011	0.013291385	0.137124765	0.042263184
2020-05-24T08:25:00	0.2489	10.215	188.0	0.631582614	0.787002417	0.013397430	0.138218812	0.042600380
2020-05-24T08:30:00	0.2481	10.249	189.0	0.628976741	0.783117961	0.013294608	0.137158024	0.042273435
2020-05-24T08:35:00	0.2473	10.278	190.0	0.626368967	0.779236421	0.013192123	0.136100706	0.041947559
2020-05-24T08:40:00	0.2479	10.309	190.0	0.628396625	0.782253991	0.013271774	0.136922450	0.042200829
2020-05-24T08:45:00	0.2466	10.362	190.0	0.624131717	0.775910969	0.013104528	0.135196995	0.041669027
2020-05-24T08:50:00	0.2475	10.414	189.0	0.626823045	0.779911881	0.013209939	0.136284506	0.042004208
2020-05-24T08:55:00	0.2457	10.469	191.0	0.620898045	0.771111897	0.012978452	0.133896300	0.041268140
2020-05-24T09:00:00	0.2474	10.523	189.0	0.626573788	0.779541079	0.013200158	0.136183597	0.041973107
2020-05-24T09:05:00	0.2446	10.599	190.0	0.617329400	0.765825929	0.012840049	0.132468419	0.040828053
2020-05-24T09:10:00	0.2442	10.650	191.0	0.616042029	0.763921675	0.012790309	0.131955260	0.040669893
2020-05-24T09:15:00	0.2448	10.699	190.0	0.618075565	0.766930280	0.012868924	0.132766319	0.040919869
2020-05-24T09:20:00	0.2454	10.695	191.0	0.620107940	0.769940648	0.012947743	0.133579482	0.041170494
2020-05-24T09:25:00	0.2438	10.745	191.0	0.614836389	0.762139580	0.012743817	0.131475613	0.040522061
2020-05-24T09:30:00	0.2427	10.787	189.0	0.610887879	0.756311722	0.012592167	0.129911067	0.040039852
2020-05-24T09:35:00	0.2431	10.805	190.0	0.612259374	0.758334514	0.012644736	0.130453408	0.040207007
2020-05-24T09:40:00	0.2424	10.845	192.0	0.609972087	0.754961916	0.012557128	0.129549576	0.039928438
2020-05-24T09:45:00	0.2431	10.889	192.0	0.612341629	0.758455880	0.012647892	0.130485972	0.040217044
2020-05-24T09:50:00	0.2436	10.916	192.0	0.614044937	0.760970376	0.012713345	0.131161235	0.040425167
2020-05-24T09:55:00	0.2426	10.959	189.0	0.610760942	0.756124584	0.012587307	0.129860930	0.040024400
2020-05-24T10:00:00	0.2419	10.992	192.0	0.608472688	0.752753443	0.012499869	0.128958841	0.039746367
2020-05-24T10:05:00	0.2416	11.017	191.0	0.607291292	0.751014686	0.012454848	0.128494373	0.039603214
2020-05-24T10:10:00	0.2405	11.044	193.0	0.603777019	0.745849364	0.012321422	0.127117835	0.039178951
2020-05-24T10:15:00	0.2406	11.089	193.0	0.603927538	0.746070385	0.012327121	0.127176637	0.039197075
2020-05-24T10:20:00	0.2390	11.113	193.0	0.598741337	0.738465884	0.012131521	0.125158662	0.038575115
2020-05-24T10:25:00	0.2403	11.088	191.0	0.602895187	0.744554860	0.012288057	0.126773620	0.039072861
2020-05-24T10:30:00	0.2396	11.073	193.0	0.600711241	0.741351693	0.012205627	0.125923205	0.038810755
2020-05-24T10:35:00	0.2381	11.104	192.0	0.595854403	0.734242533	0.012023335	0.124042531	0.038231113
2020-05-24T10:40:00	0.2389	11.117	194.0	0.598342869	0.737882543	0.012116559	0.125004302	0.038527540
2020-05-24T10:45:00	0.2371	11.118	191.0	0.592479750	0.729314511	0.011897503	0.122744349	0.037831000
2020-05-24T10:50:00	0.2356	11.132	192.0	0.587276698	0.721735078	0.011704826	0.120756534	0.037218336
2020-05-24T10:55:00	0.2357	11.166	190.0	0.587762773	0.722442203	0.011722758	0.120941533	0.037275355
2020-05-24T11:00:00	0.2365	11.176	191.0	0.590256950	0.726073736	0.011814992	0.121893097	0.037568636
2020-05-24T11:05:00	0.2364	11.198	193.0	0.590073445	0.725806374	0.011808194	0.121822957	0.037547018
2020-05-24T11:10:00	0.2371	11.195	193.0	0.592231591	0.728952499	0.011888277	0.122649163	0.037801663
2020-05-24T11:15:00	0.2449	11.190	193.0	0.618369971	0.767366141	0.012880326	0.132883953	0.040956125
2020-05-24T11:20:00	0.2459	11.162	193.0	0.621506089	0.772013618	0.013002111	0.134140380	0.041343368
2020-05-24T11:25:00	0.2431	11.146	192.0	0.612357560	0.758479387	0.012648504	0.130492279	0.040218988
2020-05-24T11:30:00	0.2409	11.136	193.0	0.605185117	0.747917760	0.012374794	0.127668469	0.039348662
2020-05-24T11:35:00	0.2382	11.140	192.0	0.595994362	0.734447121	0.012028568	0.124096523	0.038247754
2020-05-24T11:40:00	0.2355	11.164	193.0	0.587114544	0.721499226	0.011698847	0.120694850	0.037199325
2020-05-24T11:45:00	0.2331	11.205	192.0	0.578883701	0.709556237	0.011397415	0.117585025	0.036240847
2020-05-24T11:50:00	0.2314	11.256	193.0	0.573324272	0.701521295	0.011196090	0.115507998	0.035600687
2020-05-24T11:55:00	0.2311	11.299	191.0	0.572131033	0.699800067	0.011153118	0.115064661	0.035464046
2020-05-24T12:00:00	0.2308	11.370	193.0	0.571273817	0.698564273	0.011122299	0.114746706	0.035366049
2020-05-24T12:05:00	0.2303	11.454	193.0	0.569406759	0.695874759	0.011055324	0.114055739	0.035153086
2020-05-24T12:10:00	0.2297	11.520	194.0	0.567538705	0.693186692	0.010988519	0.113366529	0.034940665
2020-05-24T12:15:00	0.2295	11.572	194.0	0.566680362	0.691952533	0.010957893	0.113050561	0.034843281
2020-05-24T12:20:00	0.2289	11.601	192.0	0.564810849	0.689266578	0.010891337	0.112363921	0.034631652
2020-05-24T12:25:00	0.2279	11.609	195.0	0.561591209	0.684647637	0.010777200	0.111186389	0.034268725
2020-05-24T12:30:00	0.2283	11.598	194.0	0.562755393	0.686316805	0.010818400	0.111611443	0.034399731
2020-05-24T12:35:00	0.2280	11.599	195.0	0.561895874	0.685084347	0.010787975	0.111297545	0.034302984
2020-05-24T12:40:00	0.2293	11.611	195.0	0.566093478	0.691109037	0.010936977	0.112834780	0.034776775
2020-05-24T12:45:00	0.2316	11.639	195.0	0.573985673	0.702475865	0.011219946	0.115754110	0.035676541
2020-05-24T12:50:00	0.2364	11.658	195.0	0.589900504	0.725554431	0.011801788	0.121756874	0.037526651
2020-05-24T12:55:00	0.2380	11.651	196.0	0.595401457	0.733580542	0.012006406	0.123867882	0.038177284
2020-05-24T13:00:00	0.2357	11.627	194.0	0.587524864	0.722096077	0.011713980	0.120850967	0.037247442
2020-05-24T13:05:00	0.2351	11.595	197.0	0.585666435	0.719393931	0.011645522	0.120144706	0.037029765
2020-05-24T13:10:00	0.2348	11.561	194.0	0.584812519	0.718153306	0.011614136	0.119820902	0.036929966
2020-05-24T13:15:00	0.2338	11.541	194.0	0.581275784	0.713021357	0.011484603	0.118484536	0.036518085
2020-05-24T13:20:00	0.2328	11.523	194.0	0.578071261	0.708380433	0.011367879	0.117280314	0.036146932
2020-05-24T13:25:00	0.2321	11.500	195.0	0.575535881	0.704714625	0.011275960	0.116332001	0.035854653
2020-05-24T13:30:00	0.2323	11.468	193.0	0.576359524	0.705904914	0.011305779	0.116639639	0.035949470
2020-05-24T13:35:00	0.2343	11.441	193.0	0.582887716	0.715359048	0.011543548	0.119092658	0.036705514
2020-05-24T13:40:00	0.2340	11.417	193.0	0.582033125	0.714119416	0.011512278	0.118770054	0.036606084
2020-05-24T13:45:00	0.2341	11.405	193.0	0.582184574	0.714339056	0.011517817	0.118827193	0.036623695
2020-05-24T13:50:00	0.2331	11.383	193.0	0.578980881	0.709696916	0.011400950	0.117621499	0.036252088
2020-05-24T13:55:00	0.2333	11.364	193.0	0.579468104	0.710402352	0.011418684	0.117804458	0.036308478
2020-05-24T14:00:00	0.2332	11.350	194.0	0.579284035	0.710135820	0.011411983	0.117735321	0.036287169
2020-05-24T14:05:00	0.2318	11.331	193.0	0.574733627	0.703555787	0.011246954	0.116032751	0.035762421
2020-05-24T14:10:00	0.2305	11.313	193.0	0.570177303	0.696984385	0.011082940	0.114340647	0.035240898
2020-05-24T14:15:00	0.2299	11.304	195.0	0.568309660	0.694295720	0.011016065	0.113650712	0.035028253
2020-05-24T14:20:00	0.2296	11.299	194.0	0.567114710	0.692576979	0.010973385	0.113210395	0.034892543
2020-05-24T14:25:00	0.2281	11.305	194.0	0.562211170	0.685536377	0.010799131	0.111412640	0.034338458
2020-05-24T14:30:00	0.2279	11.298	193.0	0.561351516	0.684304112	0.010768728	0.111098978	0.034241784
2020-05-24T14:35:00	0.2282	11.299	192.0	0.562515780	0.685973165	0.010809914	0.111523891	0.034372746
2020-05-24T14:40:00	0.2280	11.292	193.0	0.561656202	0.684740792	0.010779498	0.111210097	0.034276032
2020-05-24T14:45:00	0.2276	11.292	193.0	0.560458972	0.683025344	0.010737207	0.110773790	0.034141558
2020-05-24T14:50:00	0.2275	11.300	193.0	0.559936409	0.682276962	0.010718775	0.110583625	0.034082947
2020-05-24T14:55:00	0.2262	11.320	192.0	0.555698658	0.676216217	0.010569890	0.109047604	0.033609530
2020-05-24T15:00:00	0.2264	11.340	192.0	0.556526991	0.677399721	0.010598908	0.109346985	0.033701803
2020-05-24T15:05:00	0.2263	11.353	193.0	0.556003838	0.676652186	0.010580576	0.109157855	0.033643511
2020-05-24T15:10:00	0.2273	11.353	194.0	0.559533511	0.681700109	0.010704574	0.110437121	0.034037793
2020-05-24T15:15:00	0.2312	11.354	194.0	0.572488602	0.700315730	0.011165986	0.115197421	0.035504964
2020-05-24T15:20:00	0.2300	11.348	192.0	0.568602757	0.694717473	0.011026546	0.113758845	0.035061581
2020-05-24T15:25:00	0.2282	11.336	192.0	0.562352477	0.685738991	0.010804132	0.111464241	0.034354362
2020-05-24T15:30:00	0.2277	11.332	194.0	0.560818081	0.683539769	0.010749884	0.110904569	0.034181865
2020-05-24T15:35:00	0.2266	11.328	195.0	0.556919218	0.677960323	0.010612663	0.109488892	0.033745540
2020-05-24T15:40:00	0.2257	11.309	193.0	0.554030372	0.673834320	0.010511568	0.108445904	0.033424081
2020-05-24T15:45:00	0.2258	11.286	192.0	0.554521087	0.674534701	0.010528706	0.108622715	0.033478576
2020-05-24T15:50:00	0.2255	11.264	193.0	0.553321400	0.672822779	0.010486832	0.108190711	0.033345428
2020-05-24T15:55:00	0.2243	11.252	191.0	0.549414124	0.667255383	0.010351039	0.106789760	0.032913641
2020-05-24T16:00:00	0.2239	11.245	192.0	0.547874010	0.665064350	0.010297760	0.106240094	0.032744229
2020-05-24T16:05:00	0.2240	11.238	194.0	0.548212673	0.665545979	0.010309464	0.106360840	0.032781444
2020-05-24T16:10:00	0.2230	11.242	192.0	0.544824557	0.660731798	0.010192678	0.105155979	0.032410094
2020-05-24T16:15:00	0.2234	11.245	193.0	0.546180200	0.662656907	0.010239325	0.105637231	0.032558421
2020-05-24T16:20:00	0.2227	11.234	193.0	0.543807476	0.659288461	0.010157751	0.104795645	0.032299036
2020-05-24T16:25:00	0.2227	11.229	193.0	0.543807476	0.659288461	0.010157751	0.104795645	0.032299036
2020-05-24T16:30:00	0.2222	11.219	193.0	0.542111678	0.656883839	0.010099652	0.104196244	0.032114294
2020-05-24T16:35:00	0.2229	11.215	194.0	0.544485563	0.660250639	0.010181030	0.105035810	0.032373057
2020-05-24T16:40:00	0.2241	11.217	192.0	0.548551302	0.666027656	0.010321173	0.106481643	0.032818676
2020-05-24T16:45:00	0.2225	11.216	192.0	0.543129257	0.658326471	0.010134494	0.104555712	0.032225086
2020-05-24T16:50:00	0.2225	11.211	192.0	0.543129257	0.658326471	0.010134494	0.104555712	0.032225086
2020-05-24T16:55:00	0.2224	11.209	193.0	0.542790097	0.657845546	0.010122875	0.104435831	0.032188137
2020-05-24T17:00:00	0.2223	11.207	193.0	0.542450904	0.657364669	0.010111260	0.104316009	0.032151207
2020-05-24T17:05:00	0.2221	11.204	193.0	0.541772419	0.656403055	0.010088049	0.104076537	0.032077400
2020-05-24T17:10:00	0.2215	11.195	193.0	0.539736164	0.653519342	0.010018548	0.103359509	0.031856404
2020-05-24T17:15:00	0.2226	11.188	192.0	0.543468383	0.658807442	0.010146120	0.104675649	0.032262052
2020-05-24T17:20:00	0.2232	11.184	193.0	0.545502445	0.661694258	0.010215990	0.105396490	0.032484222
2020-05-24T17:25:00	0.2236	11.180	193.0	0.546857823	0.663619743	0.010262682	0.105878203	0.032632691
2020-05-24T17:30:00	0.2244	11.174	193.0	0.549566993	0.667472968	0.010356335	0.106844398	0.032930481
2020-05-24T17:35:00	0.2257	11.171	193.0	0.553964892	0.673740878	0.010509282	0.108422322	0.033416813
2020-05-24T17:40:00	0.2257	11.161	193.0	0.553964892	0.673740878	0.010509282	0.108422322	0.033416813
2020-05-24T17:45:00	0.2265	11.153	193.0	0.556668529	0.677602003	0.010603871	0.109398182	0.033717582
2020-05-24T17:50:00	0.2272	11.145	195.0	0.559032490	0.680982955	0.010686929	0.110255074	0.033981685
2020-05-24T17:55:00	0.2267	11.135	194.0	0.557344110	0.678567754	0.010627574	0.109642722	0.033792952
2020-05-24T18:00:00	0.2271	11.118	195.0	0.558694879	0.680499821	0.010675047	0.110132489	0.033943903
2020-05-24T18:05:00	0.2276	11.102	194.0	0.560382605	0.682915962	0.010734513	0.110745989	0.034132989
2020-05-24T18:10:00	0.2275	11.092	193.0	0.560045125	0.682432640	0.010722608	0.110623174	0.034095137
2020-05-24T18:15:00	0.2272	11.082	191.0	0.559032490	0.680982955	0.010686929	0.110255074	0.033981685
2020-05-24T18:20:00	0.2277	11.069	193.0	0.560720052	0.683399332	0.010746423	0.110868861	0.034170860
2020-05-24T18:25:00	0.2282	11.058	193.0	0.562406798	0.685816884	0.010806055	0.111484081	0.034360477
2020-05-24T18:30:00	0.2288	11.052	194.0	0.564429817	0.688719498	0.010877798	0.112224235	0.034588599
2020-05-24T18:35:00	0.2290	11.046	192.0	0.565103896	0.689687412	0.010901756	0.112471411	0.034664781
2020-05-24T18:40:00	0.2296	11.033	191.0	0.567125353	0.692592282	0.010973765	0.113214313	0.034893751
2020-05-24T18:45:00	0.2288	11.020	194.0	0.564429817	0.688719498	0.010877798	0.112224235	0.034588599
2020-05-24T18:50:00	0.2303	11.008	194.0	0.569482243	0.695983438	0.011058028	0.114083633	0.035161684
2020-05-24T18:55:00	0.2304	10.995	191.0	0.569818812	0.696468076	0.011070087	0.114208050	0.035200030
2020-05-24T19:00:00	0.2305	10.985	194.0	0.570155349	0.696952762	0.011082152	0.114332524	0.035238394
2020-05-24T19:05:00	0.2320	10.976	192.0	0.575199518	0.704228692	0.011263794	0.116206486	0.035815968
2020-05-24T19:10:00	0.2321	10.963	193.0	0.575535538	0.704714130	0.011275948	0.116331873	0.035854613
2020-05-24T19:15:00	0.2321	10.954	193.0	0.575535538	0.704714130	0.011275948	0.116331873	0.035854613
2020-05-24T19:20:00	0.2332	10.940	192.0	0.579229633	0.710057052	0.011410002	0.117714891	0.036280873
2020-05-24T19:25:00	0.2341	10.926	193.0	0.582249185	0.714432766	0.011520180	0.118851574	0.036631209
2020-05-24T19:30:00	0.2339	10.913	195.0	0.581578398	0.713460056	0.011495658	0.118598579	0.036553234
2020-05-24T19:35:00	0.2333	10.900	192.0	0.579565267	0.710543055	0.011422222	0.117840962	0.036319729
2020-05-24T19:40:00	0.2339	10.889	192.0	0.581578398	0.713460056	0.011495658	0.118598579	0.036553234
2020-05-24T19:45:00	0.2341	10.877	192.0	0.582249185	0.714432766	0.011520180	0.118851574	0.036631209
2020-05-24T19:50:00	0.2337	10.868	192.0	0.580907483	0.712487534	0.011471157	0.118345813	0.036475329
2020-05-24T19:55:00	0.2335	10.857	190.0	0.580236439	0.711515200	0.011446679	0.118093273	0.036397494
2020-05-24T20:00:00	0.2338	10.844	194.0	0.581242956	0.712973772	0.011483405	0.118472168	0.036514273
2020-05-24T20:05:00	0.2330	10.831	192.0	0.578558269	0.709085189	0.011385579	0.117462921	0.036203213
2020-05-24T20:10:00	0.2336	10.819	191.0	0.580571977	0.712001344	0.011458915	0.118219515	0.036436403
2020-05-24T20:15:00	0.2343	10.807	193.0	0.582919845	0.715405664	0.011544725	0.119104795	0.036709255
2020-05-24T20:20:00	0.2348	10.794	190.0	0.584595933	0.717838732	0.011606182	0.119738844	0.036904674
2020-05-24T20:25:00	0.2349	10.786	191.0	0.584931055	0.718325486	0.011618490	0.119865824	0.036943811
2020-05-24T20:30:00	0.2346	10.773	193.0	0.583925594	0.716865364	0.011581583	0.119485054	0.036826454
2020-05-24T20:35:00	0.2341	10.760	192.0	0.582249185	0.714432766	0.011520180	0.118851574	0.036631209
2020-05-24T20:40:00	0.2340	10.746	191.0	0.581913808	0.713946388	0.011507916	0.118725048	0.036592213
2020-05-24T20:45:00	0.2342	10.733	191.0	0.582584531	0.714919191	0.011532450	0.118978156	0.036670223
2020-05-24T20:50:00	0.2334	10.720	190.0	0.579900869	0.711029104	0.011434448	0.117967089	0.036358603
2020-05-24T20:55:00	0.2339	10.703	191.0	0.581578398	0.713460056	0.011495658	0.118598579	0.036553234
2020-05-24T21:00:00	0.2338	10.688	190.0	0.581242956	0.712973772	0.011483405	0.118472168	0.036514273
2020-05-24T21:05:00	0.2344	10.672	192.0	0.583255126	0.715892183	0.011557005	0.119231491	0.036748304
2020-05-24T21:10:00	0.2346	10.659	191.0	0.583925594	0.716865364	0.011581583	0.119485054	0.036826454
2020-05-24T21:15:00	0.2348	10.647	192.0	0.584595933	0.717838732	0.011606182	0.119738844	0.036904674
2020-05-24T21:20:00	0.2342	10.636	193.0	0.582584531	0.714919191	0.011532450	0.118978156	0.036670223
2020-05-24T21:25:00	0.2335	10.628	191.0	0.580236439	0.711515200	0.011446679	0.118093273	0.036397494
2020-05-24T21:30:00	0.2338	10.621	191.0	0.581242956	0.712973772	0.011483405	0.118472168	0.036514273
2020-05-24T21:35:00	0.2338	10.613	192.0	0.581242956	0.712973772	0.011483405	0.118472168	0.036514273
2020-05-24T21:40:00	0.2333	10.602	191.0	0.579565267	0.710543055	0.011422222	0.117840962	0.036319729
2020-05-24T21:45:00	0.2332	10.593	191.0	0.579229633	0.710057052	0.011410002	0.117714891	0.036280873
2020-05-24T21:50:00	0.2332	10.584	191.0	0.579229633	0.710057052	0.011410002	0.117714891	0.036280873
2020-05-24T21:55:00	0.2336	10.572	189.0	0.580571977	0.712001344	0.011458915	0.118219515	0.036436403
2020-05-24T22:00:00	0.2329	10.558	192.0	0.578222538	0.708599328	0.011373376	0.117337021	0.036164409
2020-05-24T22:05:00	0.2329	10.545	191.0	0.578415676	0.708878820	0.011380395	0.117409440	0.036186730
2020-05-24T22:10:00	0.2327	10.534	190.0	0.577601529	0.707700864	0.011350821	0.117104323	0.036092690
2020-05-24T22:15:00	0.2326	10.524	189.0	0.577123062	0.707008845	0.011333458	0.116925197	0.036037481
2020-05-24T22:20:00	0.2319	10.514	191.0	0.574964639	0.703889424	0.011255303	0.116118881	0.035788967
2020-05-24T22:25:00	0.2312	10.502	191.0	0.572468604	0.700286889	0.011165266	0.115189994	0.035502675
2020-05-24T22:30:00	0.2309	10.491	190.0	0.571653075	0.699110951	0.011135929	0.114887324	0.035409389
2020-05-24T22:35:00	0.2296	10.481	189.0	0.567134394	0.692605282	0.010974088	0.113217641	0.034894777
2020-05-24T22:40:00	0.2292	10.469	192.0	0.565980714	0.690947001	0.010932961	0.112793343	0.034764004
2020-05-24T22:45:00	0.2289	10.459	191.0	0.564826653	0.689289271	0.010891899	0.112369717	0.034633438
2020-05-24T22:50:00	0.2291	10.451	190.0	0.565357529	0.690051703	0.010910778	0.112564487	0.034693468
2020-05-24T22:55:00	0.2286	10.444	193.0	0.563866152	0.687910416	0.010857784	0.112017759	0.034524961
2020-05-24T23:00:00	0.2288	10.436	190.0	0.564397174	0.688672636	0.010876638	0.112212273	0.034584912
2020-05-24T23:05:00	0.2286	10.428	189.0	0.563916898	0.687983246	0.010859585	0.112036340	0.034530688
2020-05-24T23:10:00	0.2289	10.423	190.0	0.564784967	0.689229413	0.010890418	0.112354430	0.034628726
2020-05-24T23:15:00	0.2289	10.417	191.0	0.564978847	0.689507825	0.010897310	0.112425537	0.034650642
2020-05-24T23:20:00	0.2296	10.413	190.0	0.567194134	0.692691181	0.010976220	0.113239634	0.034901555
2020-05-24T23:25:00	0.2297	10.409	192.0	0.567387880	0.692969787	0.010983135	0.113310976	0.034923543
2020-05-24T23:30:00	0.2296	10.406	189.0	0.567244832	0.692764081	0.010978029	0.113258300	0.034907308
2020-05-24T23:35:00	0.2292	10.406	193.0	0.565754260	0.690621629	0.010924898	0.112710154	0.034738364
2020-05-24T23:40:00	0.2295	10.404	189.0	0.566958717	0.692352696	0.010967820	0.113152979	0.034874847
2020-05-24T23:45:00	0.2289	10.402	192.0	0.564794014	0.689242404	0.010890739	0.112357748	0.034629749
2020-05-24T23:50:00	0.2298	10.401	190.0	0.567683000	0.693394225	0.010993672	0.113419691	0.034957050
2020-05-24T23:55:00	0.2292	10.400	190.0	0.565855697	0.690767369	0.010928509	0.112747414	0.034749848
2020-05-25T00:00:00	0.2289	10.397	191.0	0.564701594	0.689109699	0.010887454	0.112323859	0.034619304
2020-05-25T00:05:00	0.2294	10.395	191.0	0.566580208	0.691808567	0.010954322	0.113013723	0.034831927
2020-05-25T00:10:00	0.2290	10.392	190.0	0.565089353	0.689666525	0.010901239	0.112466076	0.034663137
2020-05-25T00:15:00	0.2282	10.387	190.0	0.562586256	0.686074234	0.010812410	0.111549638	0.034380682
2020-05-25T00:20:00	0.2274	10.385	190.0	0.559743854	0.682001253	0.010711987	0.110513595	0.034061363
2020-05-25T00:25:00	0.2267	10.382	188.0	0.557236916	0.678414494	0.010623811	0.109603902	0.033780987
2020-05-25T00:30:00	0.2273	10.377	190.0	0.559457124	0.681590756	0.010701883	0.110409356	0.034029236
2020-05-25T00:35:00	0.2267	10.372	193.0	0.557287759	0.678487185	0.010625596	0.109622314	0.033786662
2020-05-25T00:40:00	0.2267	10.367	190.0	0.557482056	0.678764996	0.010632417	0.109692688	0.033808352
2020-05-25T00:45:00	0.2270	10.360	191.0	0.558351729	0.680008855	0.010662977	0.110007963	0.033905523
2020-05-25T00:50:00	0.2259	10.354	190.0	0.554829930	0.674975605	0.010539499	0.108734070	0.033512896
2020-05-25T00:55:00	0.2267	10.349	190.0	0.557389442	0.678632571	0.010629165	0.109659140	0.033798012
2020-05-25T01:00:00	0.2271	10.344	189.0	0.558596790	0.680359469	0.010671596	0.110096886	0.033932930
2020-05-25T01:05:00	0.2263	10.340	192.0	0.556089027	0.676773897	0.010583560	0.109188641	0.033653000
2020-05-25T01:10:00	0.2260	10.335	189.0	0.554931685	0.675120888	0.010543057	0.108770771	0.033524208
2020-05-25T01:15:00	0.2261	10.330	192.0	0.555464071	0.675881148	0.010561679	0.108962893	0.033583422
2020-05-25T01:20:00	0.2260	10.325	192.0	0.554982562	0.675193530	0.010544835	0.108789123	0.033529864
2020-05-25T01:25:00	0.2251	10.319	192.0	0.552133944	0.671129471	0.010445468	0.107763971	0.033213903
2020-05-25T01:30:00	0.2247	10.313	193.0	0.550636892	0.668996333	0.010393438	0.107227189	0.033048461
2020-05-25T01:35:00	0.2249	10.309	192.0	0.551169935	0.669755652	0.010411949	0.107418161	0.033107320
2020-05-25T01:40:00	0.2251	10.305	190.0	0.552041187	0.670997250	0.010442241	0.107730673	0.033203640
2020-05-25T01:45:00	0.2251	10.300	193.0	0.551897507	0.670792452	0.010437242	0.107679104	0.033187746
2020-05-25T01:50:00	0.2247	10.295	190.0	0.550738770	0.669141439	0.010396975	0.107263675	0.033059706
2020-05-25T01:55:00	0.2247	10.289	190.0	0.550595036	0.668936719	0.010391986	0.107212200	0.033043841
2020-05-25T02:00:00	0.2261	10.283	190.0	0.555524011	0.675966758	0.010563776	0.108984535	0.033590092
2020-05-25T02:05:00	0.2267	10.276	188.0	0.557407575	0.678658498	0.010629802	0.109665708	0.033800036
2020-05-25T02:10:00	0.2276	10.267	188.0	0.560302681	0.682801491	0.010731693	0.110716897	0.034124023
2020-05-25T02:15:00	0.2279	10.258	188.0	0.561509021	0.684529841	0.010774295	0.111156413	0.034259486
2020-05-25T02:20:00	0.2286	10.246	188.0	0.563726510	0.687710015	0.010852829	0.111966637	0.034509205
2020-05-25T02:25:00	0.2289	10.236	190.0	0.564931666	0.689440071	0.010895632	0.112408231	0.034645308
2020-05-25T02:30:00	0.2285	10.226	189.0	0.563440107	0.687299047	0.010842670	0.111861823	0.034476900
2020-05-25T02:35:00	0.2287	10.215	190.0	0.564308294	0.688545043	0.010873482	0.112179704	0.034574874
2020-05-25T02:40:00	0.2299	10.205	192.0	0.568207951	0.694149383	0.011012429	0.113613200	0.035016692
2020-05-25T02:45:00	0.2302	10.193	189.0	0.569074955	0.695397092	0.011043443	0.113933166	0.035115308
2020-05-25T02:50:00	0.2303	10.182	189.0	0.569605187	0.696160458	0.011062432	0.114129072	0.035175688
2020-05-25T02:55:00	0.2297	10.173	188.0	0.567442123	0.693047792	0.010985071	0.113330954	0.034929701
2020-05-25T03:00:00	0.2290	10.163	189.0	0.565277720	0.689937067	0.010907939	0.112535195	0.034684440
2020-05-25T03:05:00	0.2292	10.154	190.0	0.565808528	0.690699598	0.010926830	0.112730087	0.034744508
2020-05-25T03:10:00	0.2292	10.145	189.0	0.565665414	0.690493986	0.010921735	0.112677524	0.034728307
2020-05-25T03:15:00	0.2302	10.134	189.0	0.569226964	0.695615914	0.011048885	0.113989312	0.035132613
2020-05-25T03:20:00	0.2294	10.122	189.0	0.566389965	0.691535127	0.010947541	0.112943764	0.034810365
2020-05-25T03:25:00	0.2294	10.112	189.0	0.566583757	0.691813668	0.010954449	0.113015028	0.034832329
2020-05-25T03:30:00	0.2296	10.105	188.0	0.567114366	0.692576485	0.010973373	0.113210268	0.034892504
2020-05-25T03:35:00	0.2286	10.097	188.0	0.563938548	0.688014318	0.010860354	0.112044268	0.034533131
2020-05-25T03:40:00	0.2289	10.093	189.0	0.564806611	0.689260493	0.010891187	0.112362367	0.034631173
2020-05-25T03:45:00	0.2290	10.088	189.0	0.565000490	0.689538907	0.010898079	0.112433476	0.034653089
2020-05-25T03:50:00	0.2299	10.085	188.0	0.568226028	0.694175391	0.011013075	0.113619866	0.035018746
2020-05-25T03:55:00	0.2289	10.082	189.0	0.564714192	0.689127788	0.010887902	0.112328478	0.034620728
2020-05-25T04:00:00	0.2284	10.080	192.0	0.563222539	0.686986898	0.010834955	0.111782234	0.034452370
2020-05-25T04:05:00	0.2284	10.078	188.0	0.562986854	0.686648800	0.010826601	0.111696050	0.034425807
2020-05-25T04:10:00	0.2274	10.078	187.0	0.559714723	0.681959545	0.010710960	0.110503003	0.034058099
2020-05-25T04:15:00	0.2269	10.078	188.0	0.558128336	0.679689285	0.010655122	0.109926934	0.033880549
2020-05-25T04:20:00	0.2257	10.078	187.0	0.554175572	0.674041539	0.010516637	0.108498206	0.033440201
2020-05-25T04:25:00	0.2270	10.074	189.0	0.558331650	0.679980130	0.010662270	0.110000679	0.033903278
2020-05-25T04:30:00	0.2271	10.071	189.0	0.558770939	0.680608657	0.010677723	0.110160100	0.033952413
2020-05-25T04:35:00	0.2268	10.067	188.0	0.557859603	0.679304910	0.010645678	0.109829500	0.033850519
2020-05-25T04:40:00	0.2276	10.066	189.0	0.560324354	0.682832531	0.010732458	0.110724786	0.034126454
2020-05-25T04:45:00	0.2280	10.066	189.0	0.561775524	0.684911827	0.010783718	0.111253629	0.034289449
2020-05-25T04:50:00	0.2265	10.064	189.0	0.556813619	0.677809379	0.010608959	0.109450677	0.033733762
2020-05-25T04:55:00	0.2276	10.062	189.0	0.560291673	0.682785725	0.010731305	0.110712891	0.034122788
2020-05-25T05:00:00	0.2276	10.060	189.0	0.560393269	0.682931236	0.010734889	0.110749871	0.034134186
2020-05-25T05:05:00	0.2280	10.061	187.0	0.561844410	0.685010574	0.010786154	0.111278765	0.034297196
2020-05-25T05:10:00	0.2276	10.064	189.0	0.560596451	0.683222271	0.010742059	0.110823847	0.034156986
2020-05-25T05:15:00	0.2272	10.060	187.0	0.559010465	0.680951434	0.010686153	0.110247075	0.033979219
2020-05-25T05:20:00	0.2274	10.060	191.0	0.559787206	0.682063323	0.010713515	0.110529360	0.034066222
2020-05-25T05:25:00	0.2283	10.059	188.0	0.562925095	0.686560211	0.010824413	0.111673471	0.034418848
2020-05-25T05:30:00	0.2279	10.053	189.0	0.561340168	0.684287849	0.010768327	0.111094840	0.034240509
2020-05-25T05:35:00	0.2279	10.051	187.0	0.561441733	0.684433404	0.010771916	0.111131874	0.034251923
2020-05-25T05:40:00	0.2264	10.051	192.0	0.556479352	0.677331639	0.010597238	0.109329756	0.033696492
2020-05-25T05:45:00	0.2266	10.046	190.0	0.556918874	0.677959830	0.010612651	0.109488767	0.033745501
2020-05-25T05:50:00	0.2270	10.045	189.0	0.558371463	0.680037087	0.010663670	0.110015122	0.033907729
2020-05-25T05:55:00	0.2265	10.045	189.0	0.556784463	0.677767706	0.010607937	0.109440127	0.033730510
2020-05-25T06:00:00	0.2257	10.048	189.0	0.554182694	0.674051703	0.010516886	0.108500772	0.033440992
2020-05-25T06:05:00	0.2262	10.051	188.0	0.555636424	0.676127322	0.010567711	0.109025128	0.033602603
2020-05-25T06:10:00	0.2268	10.053	189.0	0.557765048	0.679169680	0.010642356	0.109795228	0.033839956
2020-05-25T06:15:00	0.2270	10.057	190.0	0.558542066	0.680281170	0.010669671	0.110077026	0.033926808
2020-05-25T06:20:00	0.2263	10.058	187.0	0.555941610	0.676563283	0.010578397	0.109135370	0.033636581
2020-05-25T06:25:00	0.2266	10.057	189.0	0.557056837	0.678157049	0.010617492	0.109538704	0.033760892
2020-05-25T06:30:00	0.2278	10.057	188.0	0.561209481	0.684100572	0.010763709	0.111047196	0.034225824
2020-05-25T06:35:00	0.2277	10.054	188.0	0.560636238	0.683279265	0.010743464	0.110838336	0.034161452
2020-05-25T06:40:00	0.2274	10.051	188.0	0.559725389	0.681974816	0.010711336	0.110506881	0.034059294
2020-05-25T06:45:00	0.2271	10.044	187.0	0.558814303	0.680670710	0.010679249	0.110175843	0.033957265
2020-05-25T06:50:00	0.2269	10.040	189.0	0.557902978	0.679366946	0.010647202	0.109845224	0.033855365
2020-05-25T06:55:00	0.2275	10.037	188.0	0.560030217	0.682411291	0.010722083	0.110617751	0.034093465
2020-05-25T07:00:00	0.2271	10.035	187.0	0.558781608	0.680623924	0.010678098	0.110163973	0.033953606
2020-05-25T07:05:00	0.2261	10.039	188.0	0.555505524	0.675940353	0.010563129	0.108977860	0.033588035
2020-05-25T07:10:00	0.2262	10.038	188.0	0.555607259	0.676085664	0.010566690	0.109014595	0.033599357
2020-05-25T07:15:00	0.2270	10.044	187.0	0.558411275	0.680094044	0.010665071	0.110029567	0.033912181
2020-05-25T07:20:00	0.2266	10.052	188.0	0.557162085	0.678307511	0.010621185	0.109576807	0.033772636
2020-05-25T07:25:00	0.2265	10.051	189.0	0.556588176	0.677487162	0.010601054	0.109369115	0.033708624
2020-05-25T07:30:00	0.2281	10.051	188.0	0.562090831	0.685363842	0.010794872	0.111368705	0.034324916
2020-05-25T07:35:00	0.2275	10.056	187.0	0.560168057	0.682608687	0.010726944	0.110667904	0.034108923
2020-05-25T07:40:00	0.2274	10.059	189.0	0.559594642	0.681787626	0.010706728	0.110459344	0.034044643
2020-05-25T07:45:00	0.2278	10.055	187.0	0.561046116	0.683866485	0.010757937	0.110987654	0.034207473
2020-05-25T07:50:00	0.2278	10.051	189.0	0.561147690	0.684012028	0.010761525	0.111024673	0.034218883
2020-05-25T07:55:00	0.2277	10.049	191.0	0.560911865	0.683674132	0.010753195	0.110938735	0.034192396
2020-05-25T08:00:00	0.2284	10.046	188.0	0.563037269	0.686721118	0.010828388	0.111714482	0.034431488
2020-05-25T08:05:00	0.2280	10.043	189.0	0.561789737	0.684932201	0.010784221	0.111258815	0.034291047
2020-05-25T08:10:00	0.2283	10.041	188.0	0.562903095	0.686528655	0.010823633	0.111665429	0.034416370
2020-05-25T08:15:00	0.2287	10.045	189.0	0.564016097	0.688125621	0.010863106	0.112072667	0.034541884
2020-05-25T08:20:00	0.2284	10.052	188.0	0.563106131	0.686819900	0.010830829	0.111739662	0.034439249
2020-05-25T08:25:00	0.2283	10.054	186.0	0.562870438	0.686481814	0.010822476	0.111653492	0.034412690
2020-05-25T08:30:00	0.2281	10.059	188.0	0.561960173	0.685176524	0.010790249	0.111321012	0.034310217
2020-05-25T08:35:00	0.2274	10.061	188.0	0.559699814	0.681938199	0.010710435	0.110497581	0.034056428
2020-05-25T08:40:00	0.2271	10.068	189.0	0.558788721	0.680634102	0.010678349	0.110166556	0.033954402
2020-05-25T08:45:00	0.2272	10.068	188.0	0.559227952	0.681262712	0.010693811	0.110326078	0.034003569
2020-05-25T08:50:00	0.2272	10.072	187.0	0.558991997	0.680925003	0.010685503	0.110240368	0.033977152
2020-05-25T08:55:00	0.2271	10.082	187.0	0.558756025	0.680587317	0.010677198	0.110154686	0.033950744
2020-05-25T09:00:00	0.2268	10.089	188.0	0.557844685	0.679283575	0.010645154	0.109824093	0.033848852
2020-05-25T09:05:00	0.2263	10.105	189.0	0.555919566	0.676531791	0.010577625	0.109127405	0.033634126
2020-05-25T09:10:00	0.2257	10.115	191.0	0.553993381	0.673781533	0.010510276	0.108432582	0.033419975
2020-05-25T09:15:00	0.2259	10.122	189.0	0.554771242	0.674891816	0.010537448	0.108712905	0.033506373
2020-05-25T09:20:00	0.2246	10.131	188.0	0.550137808	0.668285600	0.010376122	0.107048539	0.032993399
2020-05-25T09:25:00	0.2245	10.141	189.0	0.549901235	0.667948775	0.010367919	0.106963909	0.032967316
2020-05-25T09:30:00	0.2239	10.141	188.0	0.547971711	0.665203286	0.010301136	0.106274921	0.032754963
2020-05-25T09:35:00	0.2246	10.140	188.0	0.550443476	0.668720871	0.010386726	0.107157937	0.033027117
2020-05-25T09:40:00	0.2245	10.145	187.0	0.549868457	0.667902109	0.010366783	0.106952186	0.032963702
2020-05-25T09:45:00	0.2241	10.147	188.0	0.548616194	0.666119971	0.010323418	0.106504800	0.032825814
2020-05-25T09:50:00	0.2239	10.153	188.0	0.548040871	0.665301640	0.010303526	0.106299577	0.032762562
2020-05-25T09:55:00	0.2226	10.149	189.0	0.543398440	0.658708237	0.010143722	0.104650907	0.032254426
2020-05-25T10:00:00	0.2231	10.155	190.0	0.545195650	0.661258626	0.010205436	0.105287606	0.032450663
2020-05-25T10:05:00	0.2239	10.160	188.0	0.548014136	0.665263618	0.010302602	0.106290046	0.032759624
2020-05-25T10:10:00	0.2236	10.166	189.0	0.546767266	0.663491048	0.010259559	0.105845984	0.032622760
2020-05-25T10:15:00	0.2239	10.180	189.0	0.547891502	0.665089224	0.010298365	0.106246329	0.032746150
2020-05-25T10:20:00	0.2234	10.203	190.0	0.546305773	0.662835304	0.010243652	0.105681865	0.032572177
2020-05-25T10:25:00	0.2238	10.223	190.0	0.547430158	0.664433267	0.010282431	0.106081950	0.032695487
2020-05-25T10:30:00	0.2245	10.235	189.0	0.549908366	0.667958927	0.010368166	0.106966460	0.032968102
2020-05-25T10:35:00	0.2248	10.237	188.0	0.551031585	0.669558550	0.010407143	0.107368578	0.033092038
2020-05-25T10:40:00	0.2251	10.235	188.0	0.552154441	0.671158690	0.010446182	0.107771330	0.033216171
2020-05-25T10:45:00	0.2261	10.236	188.0	0.555305260	0.675654337	0.010556122	0.108905565	0.033565753
2020-05-25T10:50:00	0.2255	10.235	189.0	0.553384786	0.672913199	0.010489042	0.108213515	0.033352456
2020-05-25T10:55:00	0.2252	10.247	188.0	0.552478091	0.671620104	0.010457448	0.107887561	0.033251994
2020-05-25T11:00:00	0.2250	10.249	188.0	0.551571159	0.670327348	0.010425893	0.107562020	0.033151659
2020-05-25T11:05:00	0.2255	10.240	188.0	0.553370194	0.672892383	0.010488533	0.108208265	0.033350838
2020-05-25T11:10:00	0.2256	10.232	189.0	0.553816160	0.673528645	0.010504091	0.108368767	0.033400306
2020-05-25T11:15:00	0.2255	10.222	191.0	0.553247749	0.672717719	0.010484264	0.108164218	0.033337263
2020-05-25T11:20:00	0.2241	10.215	188.0	0.548618342	0.666123026	0.010323492	0.106505567	0.032826050
2020-05-25T11:25:00	0.2234	10.218	188.0	0.546355356	0.662905749	0.010245360	0.105699492	0.032577610
2020-05-25T11:30:00	0.2221	10.229	188.0	0.541716737	0.656324154	0.010086145	0.104056897	0.032071346
2020-05-25T11:35:00	0.2223	10.238	188.0	0.542503424	0.657439121	0.010113058	0.104334557	0.032156924
2020-05-25T11:40:00	0.2220	10.249	188.0	0.541593880	0.656150076	0.010081945	0.104013568	0.032057992
2020-05-25T11:45:00	0.2225	10.253	188.0	0.543058961	0.658226785	0.010132086	0.104530859	0.032217426
2020-05-25T11:50:00	0.2221	10.258	187.0	0.541810308	0.656456746	0.010089344	0.104089903	0.032081519
2020-05-25T11:55:00	0.2214	10.261	189.0	0.539542871	0.653245779	0.010011963	0.103291574	0.031835466
2020-05-25T12:00:00	0.2220	10.266	189.0	0.541348154	0.655801938	0.010073548	0.103926934	0.032031290
2020-05-25T12:05:00	0.2209	10.275	190.0	0.537721987	0.650670227	0.009950039	0.102652716	0.031638564
2020-05-25T12:10:00	0.2211	10.285	189.0	0.538509582	0.651783910	0.009976799	0.102928799	0.031723655
2020-05-25T12:15:00	0.2197	10.294	189.0	0.533520358	0.644737552	0.009807890	0.101186197	0.031186569
2020-05-25T12:20:00	0.2197	10.305	188.0	0.533628826	0.644890528	0.009811547	0.101223923	0.031198196
2020-05-25T12:25:00	0.2202	10.316	189.0	0.535437199	0.647442335	0.009872613	0.101853924	0.031392369
2020-05-25T12:30:00	0.2198	10.334	189.0	0.533845753	0.645196494	0.009818862	0.101299392	0.031221456
2020-05-25T12:35:00	0.2197	10.346	188.0	0.533614151	0.644869830	0.009811052	0.101218818	0.031196623
2020-05-25T12:40:00	0.2195	10.349	189.0	0.533042416	0.644063613	0.009791786	0.101020052	0.031135361
2020-05-25T12:45:00	0.2210	10.342	190.0	0.538248981	0.651415356	0.009967941	0.102837406	0.031695487
2020-05-25T12:50:00	0.2201	10.338	188.0	0.534959523	0.646768023	0.009856464	0.101687320	0.031341020
2020-05-25T12:55:00	0.2202	10.334	190.0	0.535407864	0.647400918	0.009871620	0.101843689	0.031389214
2020-05-25T13:00:00	0.2204	10.328	190.0	0.536195987	0.648513858	0.009898292	0.102118857	0.031474024
2020-05-25T13:05:00	0.2206	10.318	190.0	0.536644167	0.649146979	0.009913476	0.102275504	0.031522304
2020-05-25T13:10:00	0.2212	10.309	189.0	0.538790548	0.652181327	0.009986355	0.103027379	0.031754039
2020-05-25T13:15:00	0.2208	10.298	188.0	0.537540354	0.650413464	0.009943872	0.102589099	0.031618957
2020-05-25T13:20:00	0.2219	10.289	189.0	0.541043835	0.655370856	0.010063153	0.103819692	0.031998238
2020-05-25T13:25:00	0.2227	10.284	188.0	0.543865697	0.659371060	0.010159749	0.104816255	0.032305388
2020-05-25T13:30:00	0.2220	10.277	188.0	0.541599606	0.656158189	0.010082141	0.104015587	0.032058614
2020-05-25T13:35:00	0.2224	10.272	188.0	0.542725519	0.657753986	0.010120663	0.104413013	0.032181105
2020-05-25T13:40:00	0.2222	10.266	190.0	0.542155289	0.656945648	0.010101144	0.104211637	0.032119039
2020-05-25T13:45:00	0.2215	10.260	189.0	0.539888077	0.653734362	0.010023724	0.103412916	0.031872865
2020-05-25T13:50:00	0.2215	10.251	189.0	0.539656880	0.653407129	0.010015846	0.103331641	0.031847815
2020-05-25T13:55:00	0.2216	10.249	189.0	0.540104612	0.654040881	0.010031105	0.103489065	0.031896335
2020-05-25T14:00:00	0.2204	10.258	188.0	0.536137328	0.648431007	0.009896306	0.102098364	0.031467707
2020-05-25T14:05:00	0.2210	10.257	190.0	0.537944389	0.650984659	0.009957592	0.102730639	0.031662581
2020-05-25T14:10:00	0.2207	10.255	189.0	0.537033646	0.649697308	0.009926680	0.102411732	0.031564290
2020-05-25T14:15:00	0.2200	10.251	189.0	0.534763074	0.646490760	0.009849826	0.101618842	0.031319914
2020-05-25T14:20:00	0.2203	10.247	190.0	0.535551344	0.647603494	0.009876473	0.101893756	0.031404645
2020-05-25T14:25:00	0.2190	10.246	189.0	0.531238531	0.641521657	0.009731124	0.100394213	0.030942471
2020-05-25T14:30:00	0.2191	10.246	187.0	0.531687355	0.642153873	0.009746200	0.100549745	0.030990408
2020-05-25T14:35:00	0.2190	10.248	187.0	0.531455608	0.641827412	0.009738414	0.100469422	0.030965652
2020-05-25T14:40:00	0.2186	10.252	188.0	0.529862324	0.639584148	0.009684972	0.099918069	0.030795719
2020-05-25T14:45:00	0.2190	10.248	188.0	0.531332386	0.641653848	0.009734276	0.100426727	0.030952492
2020-05-25T14:50:00	0.2184	10.248	187.0	0.529398569	0.638931592	0.009669444	0.099757874	0.030746345
2020-05-25T14:55:00	0.2181	10.252	190.0	0.528144968	0.637168510	0.009627534	0.099325489	0.030613080
2020-05-25T15:00:00	0.2185	10.248	189.0	0.529615762	0.639237186	0.009676715	0.099832882	0.030769464
2020-05-25T15:05:00	0.2182	10.242	189.0	0.528702819	0.637952922	0.009646172	0.099517783	0.030672347
2020-05-25T15:10:00	0.2187	10.243	189.0	0.530173375	0.640021930	0.009695393	0.100025587	0.030828857
2020-05-25T15:15:00	0.2188	10.240	189.0	0.530622338	0.640653952	0.009710446	0.100180880	0.030876720
2020-05-25T15:20:00	0.2183	10.241	190.0	0.529028669	0.638411227	0.009657068	0.099630192	0.030706993
2020-05-25T15:25:00	0.2174	10.241	188.0	0.525730405	0.633776235	0.009547067	0.098495334	0.030357219
2020-05-25T15:30:00	0.2179	10.242	188.0	0.527542923	0.636322240	0.009607438	0.099118172	0.030549183
2020-05-25T15:35:00	0.2179	10.240	189.0	0.527651580	0.636474953	0.009611064	0.099155572	0.030560710
2020-05-25T15:40:00	0.2168	10.243	190.0	0.523669943	0.630885192	0.009478670	0.097789692	0.030139733
2020-05-25T15:45:00	0.2167	10.246	187.0	0.523437656	0.630559485	0.009470975	0.097710301	0.030115264
2020-05-25T15:50:00	0.2167	10.248	191.0	0.523546442	0.630712017	0.009474578	0.097747478	0.030126722
2020-05-25T15:55:00	0.2164	10.250	189.0	0.522290708	0.628951907	0.009433024	0.097318771	0.029994590
2020-05-25T16:00:00	0.2162	10.247	189.0	0.521717091	0.628148317	0.009414073	0.097123253	0.029934330
2020-05-25T16:05:00	0.2161	10.243	188.0	0.521529935	0.627886185	0.009407894	0.097059504	0.029914682
2020-05-25T16:10:00	0.2161	10.238	188.0	0.521342769	0.627624068	0.009401716	0.096995772	0.029895039
2020-05-25T16:15:00	0.2167	10.232	188.0	0.523543931	0.630708496	0.009474495	0.097746619	0.030126457
2020-05-25T16:20:00	0.2167	10.226	188.0	0.523356875	0.630446226	0.009468299	0.097682699	0.030106756
2020-05-25T16:25:00	0.2171	10.220	188.0	0.524874935	0.632575503	0.009518640	0.098202054	0.030266827
2020-05-25T16:30:00	0.2176	10.212	188.0	0.526392325	0.634705711	0.009569092	0.098722562	0.030427252
2020-05-25T16:35:00	0.2179	10.205	188.0	0.527568390	0.636358032	0.009608288	0.099126937	0.030551885
2020-05-25T16:40:00	0.2182	10.198	187.0	0.528403478	0.637531978	0.009636169	0.099414576	0.030640538
2020-05-25T16:45:00	0.2184	10.192	188.0	0.529238365	0.638706208	0.009664083	0.099702564	0.030729299
2020-05-25T16:50:00	0.2186	10.188	187.0	0.530073049	0.639880720	0.009692031	0.099990902	0.030818167
2020-05-25T16:55:00	0.2189	10.184	188.0	0.530907531	0.641055514	0.009720014	0.100279588	0.030907143
2020-05-25T17:00:00	0.2189	10.180	188.0	0.531061220	0.641271942	0.009725172	0.100332802	0.030923544
2020-05-25T17:05:00	0.2181	10.176	189.0	0.528150716	0.637176592	0.009627726	0.099327470	0.030613691
2020-05-25T17:10:00	0.2191	10.171	188.0	0.531708860	0.642184169	0.009746922	0.100557200	0.030992706
2020-05-25T17:15:00	0.2188	10.168	188.0	0.530501245	0.640483469	0.009706385	0.100138983	0.030863807
2020-05-25T17:20:00	0.2175	10.162	189.0	0.526227310	0.634473962	0.009563599	0.098665890	0.030409786
2020-05-25T17:25:00	0.2188	10.159	189.0	0.530468282	0.640437063	0.009705279	0.100127579	0.030860292
2020-05-25T17:30:00	0.2193	10.155	189.0	0.532323433	0.643050137	0.009767585	0.100770374	0.031058408
2020-05-25T17:35:00	0.2197	10.150	188.0	0.533837549	0.645184922	0.009818586	0.101296537	0.031220577
2020-05-25T17:40:00	0.2204	10.145	187.0	0.536030747	0.648280475	0.009892697	0.102061134	0.031456233
2020-05-25T17:45:00	0.2207	10.140	188.0	0.537203532	0.649937393	0.009932443	0.102471181	0.031582613
2020-05-25T17:50:00	0.2220	10.134	187.0	0.541431051	0.655919379	0.010076380	0.103956156	0.032040297
2020-05-25T17:55:00	0.2225	10.127	190.0	0.543280329	0.658540720	0.010139673	0.104609132	0.032241551
2020-05-25T18:00:00	0.2226	10.122	186.0	0.543433469	0.658757921	0.010144923	0.104663298	0.032258245
2020-05-25T18:05:00	0.2227	10.118	185.0	0.543925684	0.659456166	0.010161807	0.104837492	0.032311933
2020-05-25T18:10:00	0.2230	10.114	189.0	0.544756830	0.660635661	0.010190350	0.105131965	0.032402693
2020-05-25T18:15:00	0.2235	10.109	187.0	0.546604335	0.663259516	0.010253942	0.105788027	0.032604897
2020-05-25T18:20:00	0.2235	10.106	187.0	0.546418523	0.662995497	0.010247537	0.105721950	0.032584532
2020-05-25T18:25:00	0.2238	10.102	187.0	0.547587795	0.664657382	0.010287874	0.106138102	0.032712794
2020-05-25T18:30:00	0.2237	10.097	186.0	0.547402036	0.664393289	0.010281461	0.106071934	0.032692400
2020-05-25T18:35:00	0.2248	10.093	186.0	0.550940447	0.669428718	0.010403978	0.107335922	0.033081973
2020-05-25T18:40:00	0.2251	10.088	186.0	0.552108197	0.671092770	0.010444572	0.107754728	0.033211054
2020-05-25T18:45:00	0.2254	10.083	187.0	0.552937386	0.672275049	0.010473446	0.108052613	0.033302865
2020-05-25T18:50:00	0.2261	10.078	187.0	0.555456492	0.675870323	0.010561414	0.108960157	0.033582579
2020-05-25T18:55:00	0.2265	10.074	185.0	0.556622728	0.677536543	0.010602265	0.109381614	0.033712476
2020-05-25T19:00:00	0.2264	10.068	188.0	0.556437451	0.677271761	0.010595770	0.109314603	0.033691822
2020-05-25T19:05:00	0.2266	10.064	186.0	0.556927827	0.677972628	0.010612965	0.109492007	0.033746500
2020-05-25T19:10:00	0.2267	10.059	187.0	0.557418133	0.678673594	0.010630173	0.109669533	0.033801215
2020-05-25T19:15:00	0.2262	10.053	186.0	0.555543646	0.675994803	0.010564464	0.108991625	0.033592277
2020-05-25T19:20:00	0.2270	10.049	187.0	0.558398540	0.680075824	0.010664623	0.110024946	0.033910757
2020-05-25T19:25:00	0.2277	10.044	186.0	0.560913699	0.683676760	0.010753260	0.110939404	0.034192602
2020-05-25T19:30:00	0.2276	10.039	186.0	0.560391205	0.682928280	0.010734816	0.110749120	0.034133954
2020-05-25T19:35:00	0.2275	10.033	187.0	0.560206129	0.682663210	0.010728287	0.110681758	0.034113193
2020-05-25T19:40:00	0.2275	10.028	186.0	0.560021043	0.682398154	0.010721759	0.110614413	0.034092436
2020-05-25T19:45:00	0.2280	10.022	187.0	0.561860457	0.685033576	0.010786722	0.111284621	0.034299001
2020-05-25T19:50:00	0.2287	10.017	185.0	0.564036028	0.688154228	0.010863814	0.112079966	0.034544134
2020-05-25T19:55:00	0.2292	10.012	185.0	0.565873328	0.690792702	0.010929137	0.112753890	0.034751844
2020-05-25T20:00:00	0.2292	10.006	188.0	0.565688542	0.690527212	0.010922558	0.112686018	0.034730925
2020-05-25T20:05:00	0.2297	10.002	187.0	0.567524973	0.693166943	0.010988029	0.113361471	0.034939106
2020-05-25T20:10:00	0.2301	9.997	188.0	0.569023826	0.695323495	0.011041613	0.113914284	0.035109489
2020-05-25T20:15:00	0.2296	9.992	189.0	0.567155566	0.692635725	0.010974843	0.113225435	0.034897179
2020-05-25T20:20:00	0.2295	9.987	189.0	0.566970849	0.692370138	0.010968253	0.113157443	0.034876223
2020-05-25T20:25:00	0.2294	9.982	186.0	0.566449260	0.691620349	0.010949654	0.112965566	0.034817085
2020-05-25T20:30:00	0.2288	9.978	187.0	0.564579623	0.688934573	0.010883120	0.112279144	0.034605523
2020-05-25T20:35:00	0.2292	9.973	186.0	0.565742811	0.690605180	0.010924490	0.112705949	0.034737068
2020-05-25T20:40:00	0.2290	9.969	189.0	0.565221039	0.689855656	0.010905923	0.112514395	0.034678029
2020-05-25T20:45:00	0.2294	9.965	187.0	0.566384013	0.691526572	0.010947329	0.112941576	0.034809690
2020-05-25T20:50:00	0.2294	9.962	186.0	0.566536140	0.691745224	0.010952751	0.112997515	0.034826932
2020-05-25T20:55:00	0.2293	9.958	185.0	0.566014486	0.690995529	0.010934164	0.112805753	0.034767828
2020-05-25T21:00:00	0.2292	9.954	189.0	0.565829708	0.690730029	0.010927584	0.112737867	0.034746905
2020-05-25T21:05:00	0.2290	9.949	186.0	0.565307949	0.689980487	0.010909014	0.112546290	0.034687860
2020-05-25T21:10:00	0.2291	9.946	187.0	0.565460123	0.690199071	0.010914429	0.112602147	0.034705075
2020-05-25T21:15:00	0.2288	9.942	186.0	0.564601269	0.688965652	0.010883889	0.112287079	0.034607968
2020-05-25T21:20:00	0.2288	9.937	187.0	0.564416416	0.688700260	0.010877322	0.112219324	0.034587086
2020-05-25T21:25:00	0.2287	9.934	185.0	0.564231553	0.688434882	0.010870756	0.112151588	0.034566208
2020-05-25T21:30:00	0.2288	9.930	187.0	0.564383774	0.688653398	0.010876162	0.112207362	0.034583399
2020-05-25T21:35:00	0.2282	9.927	186.0	0.562513030	0.685969221	0.010809817	0.111522886	0.034372437
2020-05-25T21:40:00	0.2282	9.924	186.0	0.562328067	0.685703989	0.010803268	0.111455326	0.034351614
2020-05-25T21:45:00	0.2277	9.919	186.0	0.560793660	0.683504782	0.010749021	0.110895673	0.034179123
2020-05-25T21:50:00	0.2278	9.914	186.0	0.560946030	0.683723082	0.010754402	0.110951184	0.034196232
2020-05-25T21:55:00	0.2288	9.909	186.0	0.564470705	0.688778198	0.010879250	0.112239221	0.034593218
2020-05-25T22:00:00	0.2282	9.904	186.0	0.562600008	0.686093954	0.010812897	0.111554663	0.034382230
2020-05-25T22:05:00	0.2282	9.900	186.0	0.562510547	0.685965661	0.010809729	0.111521979	0.034372157
2020-05-25T22:10:00	0.2281	9.896	190.0	0.562083802	0.685353764	0.010794623	0.111366138	0.034324125
2020-05-25T22:15:00	0.2276	9.892	185.0	0.560307383	0.682808225	0.010731859	0.110718609	0.034124550
2020-05-25T22:20:00	0.2267	9.889	187.0	0.557516982	0.678814937	0.010633644	0.109705340	0.033812251
2020-05-25T22:25:00	0.2273	9.885	186.0	0.559453300	0.681585283	0.010701748	0.110407966	0.034028807
2020-05-25T22:30:00	0.2265	9.882	187.0	0.556662215	0.677592979	0.010603650	0.109395898	0.033716878
2020-05-25T22:35:00	0.2263	9.878	186.0	0.555896871	0.676499368	0.010576830	0.109119205	0.033631599
2020-05-25T22:40:00	0.2258	9.875	186.0	0.554455348	0.674440863	0.010526409	0.108599020	0.033471273
2020-05-25T22:45:00	0.2255	9.872	189.0	0.553351389	0.672865557	0.010487878	0.108201500	0.033348753
2020-05-25T22:50:00	0.2245	9.869	186.0	0.549878501	0.667916409	0.010367131	0.106955778	0.032964810
2020-05-25T22:55:00	0.2247	9.866	187.0	0.550465632	0.668752423	0.010387495	0.107165868	0.033029561
2020-05-25T23:00:00	0.2248	9.862	186.0	0.551052664	0.669588579	0.010407875	0.107376131	0.033094367
2020-05-25T23:05:00	0.2245	9.860	186.0	0.549947623	0.668014817	0.010369527	0.106980501	0.032972429
2020-05-25T23:10:00	0.2246	9.857	186.0	0.550196306	0.668368896	0.010378151	0.107069471	0.032999851
2020-05-25T23:15:00	0.2235	9.855	188.0	0.546720260	0.663424249	0.010257939	0.105829261	0.032617606
2020-05-25T23:20:00	0.2237	9.852	187.0	0.547307926	0.664259502	0.010278212	0.106038419	0.032682071
2020-05-25T23:25:00	0.2235	9.849	187.0	0.546540518	0.663168836	0.010251742	0.105765331	0.032597902
2020-05-25T23:30:00	0.2234	9.847	186.0	0.546111809	0.662559750	0.010236969	0.105612926	0.032550929
2020-05-25T23:35:00	0.2229	9.844	187.0	0.544666218	0.660507044	0.010187236	0.105099841	0.032392792
2020-05-25T23:40:00	0.2226	9.841	185.0	0.543559141	0.658936178	0.010149232	0.104707760	0.032271948
2020-05-25T23:45:00	0.2229	9.839	186.0	0.544486369	0.660251783	0.010181058	0.105036096	0.032373145
2020-05-25T23:50:00	0.2227	9.837	186.0	0.543718337	0.659162004	0.010154693	0.104764095	0.032289311
2020-05-25T23:55:00	0.2227	9.835	186.0	0.543967467	0.659515448	0.010163241	0.104852286	0.032316493
2020-05-26T00:00:00	0.2230	9.833	188.0	0.544894586	0.660831208	0.010195085	0.105180812	0.032417748
2020-05-26T00:05:00	0.2224	9.832	185.0	0.542770197	0.657817332	0.010122193	0.104428800	0.032185970
2020-05-26T00:10:00	0.2218	9.830	187.0	0.540644505	0.654805302	0.010049521	0.103679054	0.031954892
2020-05-26T00:15:00	0.2222	9.828	184.0	0.542251038	0.657081361	0.010104420	0.104245437	0.032129456
2020-05-26T00:20:00	0.2212	9.826	188.0	0.538767010	0.652148031	0.009985554	0.103019119	0.031751493
2020-05-26T00:25:00	0.2216	9.824	188.0	0.540034985	0.653942316	0.010028732	0.103464576	0.031888787
2020-05-26T00:30:00	0.2215	9.822	186.0	0.539944942	0.653814854	0.010025662	0.103432911	0.031879028
2020-05-26T00:35:00	0.2205	9.820	187.0	0.536458590	0.648884804	0.009907187	0.102210627	0.031502308
2020-05-26T00:40:00	0.2201	9.818	185.0	0.535008961	0.646837803	0.009858134	0.101704556	0.031346332
2020-05-26T00:45:00	0.2205	9.816	184.0	0.536278315	0.648630146	0.009901081	0.102147623	0.031482889
2020-05-26T00:50:00	0.2203	9.815	185.0	0.535848332	0.648022859	0.009886522	0.101997430	0.031436598
2020-05-26T00:55:00	0.2197	9.812	184.0	0.533718380	0.645016835	0.009814567	0.101255075	0.031207798
2020-05-26T01:00:00	0.2195	9.810	185.0	0.532947952	0.643930433	0.009788605	0.100987230	0.031125245
2020-05-26T01:05:00	0.2196	9.808	185.0	0.533197859	0.644282781	0.009797022	0.101074073	0.031152011
2020-05-26T01:10:00	0.2192	9.807	185.0	0.532087105	0.642717100	0.009759637	0.100688373	0.031033134
2020-05-26T01:15:00	0.2186	9.805	187.0	0.529954829	0.639714334	0.009688071	0.099950038	0.030805572
2020-05-26T01:20:00	0.2183	9.804	187.0	0.528843029	0.638150116	0.009650860	0.099566144	0.030687252
2020-05-26T01:25:00	0.2180	9.802	188.0	0.527730871	0.636586399	0.009613710	0.099182869	0.030569124
2020-05-26T01:30:00	0.2187	9.800	188.0	0.530364765	0.640291336	0.009701809	0.100091772	0.030849256
2020-05-26T01:35:00	0.2186	9.799	186.0	0.529934045	0.639685084	0.009687374	0.099942855	0.030803358
2020-05-26T01:40:00	0.2191	9.796	185.0	0.531545565	0.641954128	0.009741436	0.100500597	0.030975260
2020-05-26T01:45:00	0.2184	9.794	186.0	0.529412954	0.638951831	0.009669926	0.099762841	0.030747876
2020-05-26T01:50:00	0.2187	9.792	185.0	0.530343984	0.640262083	0.009701112	0.100084585	0.030847041
2020-05-26T01:55:00	0.2191	9.790	185.0	0.531615054	0.642052018	0.009743770	0.100524682	0.030982683
2020-05-26T02:00:00	0.2185	9.789	184.0	0.529482486	0.639049660	0.009672253	0.099786851	0.030755277
2020-05-26T02:05:00	0.2181	9.786	188.0	0.528370534	0.637485655	0.009635068	0.099403221	0.030637038
2020-05-26T02:10:00	0.2182	9.784	185.0	0.528620773	0.637837538	0.009643430	0.099489490	0.030663627
2020-05-26T02:15:00	0.2181	9.783	185.0	0.528189835	0.637231590	0.009629032	0.099340949	0.030617845
2020-05-26T02:20:00	0.2187	9.780	185.0	0.530142606	0.639978622	0.009694362	0.100014949	0.030825579
2020-05-26T02:25:00	0.2182	9.779	185.0	0.528690321	0.637935345	0.009645755	0.099513473	0.030671019
2020-05-26T02:30:00	0.2172	9.777	185.0	0.525192575	0.633021272	0.009529190	0.098310899	0.030300374
2020-05-26T02:35:00	0.2173	9.774	186.0	0.525443045	0.633372833	0.009537514	0.098396770	0.030326840
2020-05-26T02:40:00	0.2168	9.772	184.0	0.523647731	0.630854045	0.009477934	0.097782099	0.030137392
2020-05-26T02:45:00	0.2171	9.771	185.0	0.524921274	0.632640528	0.009520179	0.098217929	0.030271720
2020-05-26T02:50:00	0.2172	9.768	185.0	0.525171763	0.632992062	0.009528499	0.098303766	0.030298175
2020-05-26T02:55:00	0.2172	9.766	184.0	0.525081331	0.632865145	0.009525495	0.098272772	0.030288623
2020-05-26T03:00:00	0.2174	9.765	187.0	0.525672688	0.633695205	0.009545148	0.098475533	0.030351116
2020-05-26T03:05:00	0.2166	9.763	187.0	0.523195346	0.630219771	0.009462951	0.097627519	0.030089749
2020-05-26T03:10:00	0.2173	9.762	185.0	0.525491847	0.633441338	0.009539136	0.098413506	0.030331998
2020-05-26T03:15:00	0.2179	9.761	186.0	0.527446148	0.636186234	0.009604210	0.099084867	0.030538918
2020-05-26T03:20:00	0.2172	9.759	187.0	0.525310998	0.633187484	0.009533125	0.098351494	0.030312886
2020-05-26T03:25:00	0.2170	9.757	186.0	0.524538689	0.632103712	0.009507478	0.098086899	0.030231335
2020-05-26T03:30:00	0.2170	9.756	187.0	0.524448240	0.631976819	0.009504477	0.098055934	0.030221791
2020-05-26T03:35:00	0.2183	9.754	189.0	0.528787833	0.638072485	0.009649015	0.099547104	0.030681384
2020-05-26T03:40:00	0.2178	9.752	185.0	0.527334976	0.636030006	0.009600502	0.099046614	0.030527129
2020-05-26T03:45:00	0.2181	9.751	187.0	0.528266568	0.637339474	0.009631595	0.099367390	0.030625995
2020-05-26T03:50:00	0.2182	9.750	187.0	0.528516814	0.637691347	0.009639956	0.099453646	0.030652580
2020-05-26T03:55:00	0.2188	9.748	188.0	0.530469400	0.640438637	0.009705317	0.100127966	0.030860412
2020-05-26T04:00:00	0.2178	9.747	188.0	0.527314177	0.636000778	0.009599809	0.099039459	0.030524923
2020-05-26T04:05:00	0.2197	9.746	188.0	0.533537614	0.644761889	0.009808472	0.101192199	0.031188418
2020-05-26T04:10:00	0.2203	9.744	184.0	0.535673761	0.647776345	0.009880615	0.101936483	0.031417814
2020-05-26T04:15:00	0.2206	9.743	184.0	0.536789443	0.649352237	0.009918400	0.102326306	0.031537961
2020-05-26T04:20:00	0.2216	9.743	184.0	0.540281536	0.654291356	0.010037138	0.103551306	0.031915518
2020-05-26T04:25:00	0.2216	9.744	186.0	0.540038215	0.653946888	0.010028842	0.103465712	0.031889137
2020-05-26T04:30:00	0.2216	9.745	185.0	0.540134330	0.654082952	0.010032119	0.103499519	0.031899557
2020-05-26T04:35:00	0.2221	9.745	185.0	0.541927163	0.656622340	0.010093340	0.104131130	0.032094225
2020-05-26T04:40:00	0.2231	9.746	188.0	0.545075143	0.661087535	0.010201292	0.105244853	0.032437486
2020-05-26T04:45:00	0.2231	9.746	185.0	0.545171119	0.661223797	0.010204593	0.105278902	0.032447980
2020-05-26T04:50:00	0.2242	9.748	185.0	0.548993362	0.666656596	0.010336469	0.106639448	0.032867314
2020-05-26T04:55:00	0.2252	9.752	186.0	0.552473187	0.671613113	0.010457277	0.107885799	0.033251451
2020-05-26T05:00:00	0.2251	9.755	185.0	0.551892449	0.670785243	0.010437066	0.107677289	0.033187186
2020-05-26T05:05:00	0.2256	9.760	186.0	0.553679217	0.673333250	0.010499312	0.108319469	0.033385112
2020-05-26T05:10:00	0.2265	9.765	187.0	0.556816565	0.677813590	0.010609063	0.109451743	0.033734090
2020-05-26T05:15:00	0.2270	9.765	184.0	0.558263154	0.679882141	0.010659862	0.109975832	0.033895619
2020-05-26T05:20:00	0.2280	9.767	184.0	0.561733725	0.684851912	0.010782240	0.111238379	0.034284749
2020-05-26T05:25:00	0.2282	9.770	185.0	0.562503824	0.685956020	0.010809491	0.111519523	0.034371400
2020-05-26T05:30:00	0.2288	9.773	186.0	0.564622228	0.688995743	0.010884634	0.112294762	0.034610336
2020-05-26T05:35:00	0.2295	9.777	188.0	0.566739346	0.692037323	0.010959996	0.113072260	0.034849969
2020-05-26T05:40:00	0.2296	9.779	185.0	0.567171550	0.692658708	0.010975414	0.113231320	0.034898992
2020-05-26T05:45:00	0.2301	9.782	185.0	0.568950506	0.695217959	0.011038989	0.113887210	0.035101144
2020-05-26T05:50:00	0.2304	9.785	185.0	0.569719015	0.696324365	0.011066511	0.114171151	0.035188658
2020-05-26T05:55:00	0.2302	9.789	185.0	0.569141143	0.695492370	0.011045812	0.113957611	0.035122842
2020-05-26T06:00:00	0.2301	9.792	185.0	0.568899833	0.695145023	0.011037175	0.113868500	0.035095378
2020-05-26T06:05:00	0.2304	9.796	185.0	0.570004904	0.696736078	0.011076758	0.114276871	0.035221241
2020-05-26T06:10:00	0.2301	9.803	185.0	0.568753833	0.694934893	0.011031951	0.113814603	0.035078766
2020-05-26T06:15:00	0.2306	9.805	185.0	0.570531984	0.697495310	0.011095663	0.114471911	0.035281355
2020-05-26T06:20:00	0.2304	9.815	186.0	0.569954246	0.696663120	0.011074942	0.114258134	0.035215467
2020-05-26T06:25:00	0.2312	9.818	186.0	0.572404460	0.700194377	0.011162957	0.115166173	0.035495333
2020-05-26T06:30:00	0.2322	9.817	186.0	0.575861023	0.705184438	0.011287727	0.116453395	0.035892067
2020-05-26T06:35:00	0.2324	9.817	185.0	0.576628017	0.706293050	0.011315508	0.116740013	0.035980406
2020-05-26T06:40:00	0.2330	9.820	186.0	0.578737890	0.709345171	0.011392111	0.117530308	0.036223982
2020-05-26T06:45:00	0.2335	9.840	186.0	0.580175439	0.711426831	0.011444455	0.118070330	0.036390423
2020-05-26T06:50:00	0.2341	9.851	186.0	0.582283181	0.714482073	0.011521424	0.118864403	0.036635163
2020-05-26T06:55:00	0.2345	9.856	185.0	0.583719280	0.716565861	0.011574017	0.119406999	0.036802397
2020-05-26T07:00:00	0.2349	9.870	186.0	0.584819693	0.718163726	0.011614400	0.119823620	0.036930803
2020-05-26T07:05:00	0.2352	9.876	187.0	0.585919761	0.719762097	0.011654842	0.120240853	0.037059399
2020-05-26T07:10:00	0.2363	9.875	186.0	0.589697724	0.725259050	0.011794280	0.121679412	0.037502777
2020-05-26T07:15:00	0.2366	9.871	188.0	0.590796270	0.726859670	0.011834985	0.122099358	0.037632208
2020-05-26T07:20:00	0.2364	9.909	185.0	0.589887238	0.725535106	0.011801297	0.121751806	0.037525089
2020-05-26T07:25:00	0.2367	9.906	186.0	0.590985725	0.727135814	0.011842012	0.122171857	0.037654553
2020-05-26T07:30:00	0.2358	9.906	186.0	0.588068470	0.722887021	0.011734043	0.121057956	0.037311238
2020-05-26T07:35:00	0.2365	9.923	186.0	0.590171490	0.725949219	0.011811826	0.121860430	0.037558568
2020-05-26T07:40:00	0.2376	9.939	186.0	0.593944900	0.731452909	0.011952051	0.123307111	0.038004449
2020-05-26T07:45:00	0.2375	9.930	186.0	0.593705287	0.731103070	0.011943122	0.123214986	0.037976055
2020-05-26T07:50:00	0.2382	9.935	186.0	0.596139007	0.734658576	0.012033978	0.124152335	0.038264955
2020-05-26T07:55:00	0.2380	9.965	189.0	0.595231351	0.733331971	0.012000052	0.123802324	0.038157079
2020-05-26T08:00:00	0.2382	9.991	186.0	0.595994135	0.734446789	0.012028560	0.124096435	0.038247727
2020-05-26T08:05:00	0.2385	9.979	186.0	0.597090723	0.736050316	0.012069604	0.124519881	0.038378237
2020-05-26T08:10:00	0.2389	9.985	190.0	0.598520803	0.738143015	0.012123239	0.125073219	0.038548781
2020-05-26T08:15:00	0.2386	10.032	187.0	0.597279840	0.736326962	0.012076690	0.124592984	0.038400768
2020-05-26T08:20:00	0.2389	10.031	187.0	0.598376029	0.737931083	0.012117803	0.125017144	0.038531498
2020-05-26T08:25:00	0.2380	10.037	190.0	0.595464881	0.733673226	0.012008776	0.123892329	0.038184819
2020-05-26T08:30:00	0.2384	10.056	189.0	0.596561633	0.735276509	0.012049792	0.124315481	0.038315239
2020-05-26T08:35:00	0.2380	10.073	187.0	0.595319981	0.733461481	0.012003363	0.123836479	0.038167606
2020-05-26T08:40:00	0.2374	10.078	187.0	0.593409355	0.730671070	0.011932098	0.123101256	0.037941003
2020-05-26T08:45:00	0.2376	10.123	187.0	0.594172534	0.731785303	0.011960538	0.123394663	0.038031434
2020-05-26T08:50:00	0.2371	10.156	187.0	0.592261286	0.728995815	0.011889381	0.122660551	0.037805173
2020-05-26T08:55:00	0.2379	10.176	188.0	0.595030164	0.733038016	0.011992539	0.123724811	0.038133188
2020-05-26T09:00:00	0.2378	10.232	187.0	0.594790626	0.732688068	0.011983596	0.123632554	0.038104754
2020-05-26T09:05:00	0.2369	10.319	188.0	0.591542057	0.727946881	0.011862660	0.122384876	0.037720207
2020-05-26T09:10:00	0.2375	10.343	188.0	0.593643006	0.731012146	0.011940801	0.123191046	0.037968677
2020-05-26T09:15:00	0.2373	10.428	189.0	0.593069056	0.730174393	0.011919428	0.122970542	0.037900715
2020-05-26T09:20:00	0.2361	10.433	189.0	0.589149555	0.724460724	0.011773995	0.121470139	0.037438276
2020-05-26T09:25:00	0.2371	10.461	189.0	0.592255302	0.728987086	0.011889158	0.122658256	0.037804466
2020-05-26T09:30:00	0.2374	10.494	190.0	0.593353051	0.730588886	0.011930001	0.123079624	0.037934335
2020-05-26T09:35:00	0.2373	10.509	189.0	0.593113399	0.730239107	0.011921079	0.122987570	0.037905964
2020-05-26T09:40:00	0.2368	10.506	189.0	0.591201577	0.727450471	0.011850021	0.122254484	0.037680019
2020-05-26T09:45:00	0.2363	10.501	189.0	0.589623394	0.725150784	0.011791528	0.121651025	0.037494027
2020-05-26T09:50:00	0.2350	10.569	192.0	0.585365007	0.718955928	0.011634438	0.120030354	0.036994521
2020-05-26T09:55:00	0.2359	10.530	192.0	0.588474091	0.723477357	0.011749025	0.121212522	0.037358876
2020-05-26T10:00:00	0.2366	10.518	190.0	0.590576869	0.726539914	0.011826850	0.122015427	0.037606340
2020-05-26T10:05:00	0.2352	10.560	189.0	0.585984646	0.719856404	0.011657229	0.120265486	0.037066991
2020-05-26T10:10:00	0.2345	10.584	192.0	0.583733746	0.716586860	0.011574547	0.119412471	0.036804083
2020-05-26T10:15:00	0.2343	10.588	190.0	0.582822888	0.715264990	0.011541175	0.119068170	0.036697966
2020-05-26T10:20:00	0.2351	10.589	190.0	0.585599192	0.719296214	0.011643049	0.120119191	0.037021901
2020-05-26T10:25:00	0.2349	10.596	189.0	0.585023930	0.718460401	0.011621903	0.119901027	0.036954661
2020-05-26T10:30:00	0.2346	10.598	190.0	0.584113406	0.717138040	0.011588472	0.119556132	0.036848361
2020-05-26T10:35:00	0.2344	10.609	189.0	0.583202647	0.715816026	0.011555082	0.119211656	0.036742190
2020-05-26T10:40:00	0.2335	10.655	189.0	0.580278929	0.711576757	0.011448228	0.118109256	0.036402420
2020-05-26T10:45:00	0.2338	10.706	189.0	0.581380419	0.713173038	0.011488425	0.118523962	0.036530236
2020-05-26T10:50:00	0.2329	10.777	190.0	0.578119444	0.708450150	0.011369630	0.117298374	0.036152498
2020-05-26T10:55:00	0.2337	10.808	191.0	0.580899465	0.712475914	0.011470864	0.118342794	0.036474398
2020-05-26T11:00:00	0.2333	10.848	190.0	0.579652278	0.710669063	0.011425391	0.117873656	0.036329806
2020-05-26T11:05:00	0.2316	10.932	192.0	0.574037453	0.702550612	0.011221814	0.115773389	0.035682483
2020-05-26T11:10:00	0.2319	10.957	191.0	0.574804847	0.703658641	0.011249527	0.116059301	0.035770604
2020-05-26T11:15:00	0.2317	10.995	191.0	0.574227814	0.702825425	0.011228686	0.115844279	0.035704332
2020-05-26T11:20:00	0.2310	11.034	192.0	0.571969359	0.699566945	0.011147302	0.115004659	0.035445553
2020-05-26T11:25:00	0.2316	11.072	192.0	0.573745877	0.702129737	0.011211294	0.115664850	0.035649030
2020-05-26T11:30:00	0.2307	11.109	194.0	0.570814263	0.697902013	0.011105795	0.114576436	0.035313570
2020-05-26T11:35:00	0.2316	11.129	193.0	0.573936254	0.702404527	0.011218162	0.115735712	0.035670870
2020-05-26T11:40:00	0.2308	11.176	192.0	0.571341221	0.698661423	0.011124721	0.114771691	0.035373750
2020-05-26T11:45:00	0.2302	11.234	195.0	0.569080903	0.695405654	0.011043656	0.113935362	0.035115985
2020-05-26T11:50:00	0.2296	11.289	192.0	0.567155948	0.692636274	0.010974857	0.113225576	0.034897222
2020-05-26T11:55:00	0.2297	11.309	192.0	0.567588100	0.693257734	0.010990283	0.113384726	0.034946274
2020-05-26T12:00:00	0.2312	11.303	193.0	0.572394899	0.700180588	0.011162613	0.115162623	0.035494239
2020-05-26T12:05:00	0.2296	11.353	193.0	0.567105249	0.692563376	0.010973048	0.113206912	0.034891470
2020-05-26T12:10:00	0.2290	11.453	194.0	0.565179205	0.689795572	0.010904435	0.112499044	0.034673298
2020-05-26T12:15:00	0.2302	11.507	193.0	0.569316177	0.695744347	0.011052080	0.114022270	0.035142771
2020-05-26T12:20:00	0.2312	11.498	194.0	0.572439503	0.700244918	0.011164219	0.115179187	0.035499344
2020-05-26T12:25:00	0.2309	11.493	193.0	0.571525708	0.698927345	0.011131350	0.114840090	0.035394831
2020-05-26T12:30:00	0.2309	11.534	197.0	0.571620958	0.699064650	0.011134774	0.114875412	0.035405718
2020-05-26T12:35:00	0.2307	11.564	195.0	0.571043400	0.698232199	0.011114022	0.114661318	0.035339732
2020-05-26T12:40:00	0.2306	11.563	194.0	0.570465746	0.697399885	0.011093286	0.114447391	0.035273798
2020-05-26T12:45:00	0.2302	11.566	195.0	0.569214840	0.695598461	0.011048451	0.113984833	0.035131233
2020-05-26T12:50:00	0.2311	11.562	194.0	0.572338257	0.700098900	0.011160575	0.115141591	0.035487757
2020-05-26T12:55:00	0.2317	11.568	194.0	0.574114589	0.702661964	0.011224598	0.115802112	0.035691336
2020-05-26T13:00:00	0.2314	11.585	194.0	0.573201230	0.701343755	0.011191655	0.115462243	0.035586585
2020-05-26T13:05:00	0.2309	11.614	196.0	0.571614938	0.699055973	0.011134558	0.114873180	0.035405030
2020-05-26T13:10:00	0.2306	11.641	198.0	0.570700927	0.697738713	0.011101726	0.114534463	0.035300634
2020-05-26T13:15:00	0.2298	11.655	194.0	0.567766759	0.693514700	0.010996664	0.113450555	0.034966563
2020-05-26T13:20:00	0.2287	11.648	195.0	0.564155994	0.688326422	0.010868073	0.112123907	0.034557677
2020-05-26T13:25:00	0.2291	11.643	194.0	0.565599542	0.690399353	0.010919390	0.112653335	0.034720852
2020-05-26T13:30:00	0.2297	11.673	194.0	0.567379298	0.692957444	0.010982828	0.113307816	0.034922569
2020-05-26T13:35:00	0.2300	11.720	195.0	0.568484850	0.694547802	0.011022329	0.113715339	0.035048172
2020-05-26T13:40:00	0.2300	11.760	195.0	0.568580182	0.694684987	0.011025739	0.113750515	0.035059013
2020-05-26T13:45:00	0.2293	11.809	195.0	0.566318078	0.691431809	0.010944979	0.112917334	0.034802219
2020-05-26T13:50:00	0.2290	11.839	196.0	0.565065687	0.689632537	0.010900398	0.112457393	0.034660461
2020-05-26T13:55:00	0.2294	11.816	195.0	0.566508859	0.691706012	0.010951779	0.112987483	0.034823839
2020-05-26T14:00:00	0.2292	11.774	195.0	0.565930456	0.690874786	0.010931171	0.112774878	0.034758313
2020-05-26T14:05:00	0.2292	11.759	195.0	0.565688924	0.690527761	0.010922572	0.112686158	0.034730968
2020-05-26T14:10:00	0.2296	11.761	195.0	0.567131838	0.692601607	0.010973997	0.113216700	0.034894487
2020-05-26T14:15:00	0.2294	11.749	196.0	0.566553538	0.691770232	0.010953371	0.113003914	0.034828904
2020-05-26T14:20:00	0.2300	11.731	195.0	0.568669487	0.694813505	0.011028933	0.113783472	0.035069171
2020-05-26T14:25:00	0.2298	11.719	195.0	0.567754707	0.693497364	0.010996233	0.113446113	0.034965194
2020-05-26T14:30:00	0.2303	11.721	195.0	0.569533365	0.696057044	0.011059859	0.114102526	0.035167507
2020-05-26T14:35:00	0.2292	11.713	196.0	0.565924426	0.690866122	0.010930956	0.112772663	0.034757630
2020-05-26T14:40:00	0.2301	11.695	196.0	0.568714139	0.694877766	0.011030531	0.113799952	0.035074250
2020-05-26T14:45:00	0.2300	11.675	198.0	0.568472799	0.694530462	0.011021898	0.113710893	0.035046802
2020-05-26T14:50:00	0.2294	11.658	194.0	0.566547510	0.691761567	0.010953157	0.113001697	0.034828220
2020-05-26T14:55:00	0.2291	11.640	194.0	0.565632173	0.690446230	0.010920552	0.112665317	0.034724545
2020-05-26T15:00:00	0.2285	11.627	194.0	0.563368158	0.687195817	0.010840118	0.111835500	0.034468787
2020-05-26T15:05:00	0.2276	11.611	197.0	0.560427821	0.682980726	0.010736108	0.110762449	0.034138063
2020-05-26T15:10:00	0.2270	11.602	196.0	0.558498087	0.680218247	0.010668124	0.110061066	0.033921890
2020-05-26T15:15:00	0.2272	11.598	195.0	0.558931313	0.680838158	0.010683367	0.110218330	0.033970360
2020-05-26T15:20:00	0.2262	11.605	194.0	0.555649323	0.676145746	0.010568163	0.109029786	0.033604039
2020-05-26T15:25:00	0.2254	11.624	195.0	0.553040652	0.672422328	0.010477045	0.108089741	0.033314308
2020-05-26T15:30:00	0.2258	11.635	194.0	0.554488811	0.674488629	0.010527578	0.108611081	0.033474990
2020-05-26T15:35:00	0.2261	11.635	196.0	0.555260513	0.675590433	0.010554557	0.108889415	0.033560775
2020-05-26T15:40:00	0.2260	11.630	194.0	0.555018240	0.675244474	0.010546083	0.108801994	0.033533831
2020-05-26T15:45:00	0.2263	11.618	194.0	0.556127717	0.676829176	0.010584916	0.109202625	0.033657310
2020-05-26T15:50:00	0.2264	11.616	194.0	0.556223388	0.676965873	0.010588268	0.109237206	0.033667968
2020-05-26T15:55:00	0.2258	11.615	194.0	0.554291321	0.674206741	0.010520679	0.108539909	0.033453054
2020-05-26T16:00:00	0.2254	11.607	195.0	0.553034600	0.672413697	0.010476834	0.108087565	0.033313637
2020-05-26T16:05:00	0.2251	11.593	195.0	0.551927163	0.670834722	0.010438274	0.107689747	0.033191026
2020-05-26T16:10:00	0.2249	11.582	194.0	0.551157749	0.669738289	0.010411526	0.107413793	0.033105974
2020-05-26T16:15:00	0.2243	11.572	196.0	0.549372713	0.667196445	0.010349605	0.106774962	0.032909080
2020-05-26T16:20:00	0.2242	11.561	196.0	0.548941324	0.666582551	0.010334668	0.106620865	0.032861586
2020-05-26T16:25:00	0.2237	11.548	194.0	0.547155148	0.664042331	0.010272940	0.105984024	0.032665305
2020-05-26T16:30:00	0.2244	11.533	194.0	0.549771269	0.667763752	0.010363414	0.106917430	0.032952990
2020-05-26T16:35:00	0.2248	11.526	194.0	0.551032198	0.669559423	0.010407164	0.107368798	0.033092106
2020-05-26T16:40:00	0.2249	11.519	193.0	0.551277776	0.669909299	0.010415696	0.107456818	0.033119235
2020-05-26T16:45:00	0.2258	11.514	194.0	0.554228871	0.674117609	0.010518498	0.108517409	0.033446119
2020-05-26T16:50:00	0.2250	11.505	194.0	0.551768880	0.670609125	0.010432768	0.107632949	0.033173520
2020-05-26T16:55:00	0.2254	11.494	195.0	0.553029084	0.672405830	0.010476642	0.108085582	0.033313026
2020-05-26T17:00:00	0.2258	11.482	195.0	0.554288833	0.674203188	0.010520592	0.108539013	0.033452778
2020-05-26T17:05:00	0.2256	11.464	193.0	0.553519941	0.673106009	0.010493756	0.108262145	0.033367444
2020-05-26T17:10:00	0.2255	11.445	194.0	0.553427221	0.672973735	0.010490522	0.108228782	0.033357162
2020-05-26T17:15:00	0.2249	11.427	196.0	0.551305023	0.669948121	0.010416643	0.107466586	0.033122245
2020-05-26T17:20:00	0.2246	11.408	197.0	0.550197035	0.668369933	0.010378176	0.107069731	0.032999931
2020-05-26T17:25:00	0.2251	11.387	193.0	0.552134403	0.671130127	0.010445484	0.107764136	0.033213953
2020-05-26T17:30:00	0.2249	11.367	197.0	0.551365035	0.670033629	0.010418729	0.107488102	0.033128877
2020-05-26T17:35:00	0.2250	11.349	193.0	0.551610589	0.670383538	0.010427264	0.107576163	0.033156018
2020-05-26T17:40:00	0.2244	11.329	195.0	0.549487281	0.667359509	0.010353573	0.106815906	0.032921700
2020-05-26T17:45:00	0.2242	11.311	194.0	0.549055906	0.666745594	0.010338634	0.106661784	0.032874198
2020-05-26T17:50:00	0.2244	11.293	196.0	0.549640147	0.667577098	0.010358870	0.106870549	0.032938541
2020-05-26T17:55:00	0.2243	11.276	194.0	0.549208792	0.666963157	0.010343928	0.106716394	0.032891029
2020-05-26T18:00:00	0.2241	11.260	193.0	0.548438775	0.665867583	0.010317282	0.106441492	0.032806301
2020-05-26T18:05:00	0.2240	11.245	195.0	0.548345919	0.665735502	0.010314071	0.106408366	0.032796092
2020-05-26T18:10:00	0.2247	11.229	193.0	0.550622748	0.668976188	0.010392948	0.107222124	0.033046900
2020-05-26T18:15:00	0.2246	11.212	196.0	0.550191514	0.668362073	0.010377985	0.107067756	0.032999322
2020-05-26T18:20:00	0.2240	11.194	195.0	0.548405982	0.665820937	0.010316148	0.106429792	0.032802696
2020-05-26T18:25:00	0.2240	11.177	192.0	0.548313126	0.665688857	0.010312937	0.106396668	0.032792486
2020-05-26T18:30:00	0.2240	11.159	196.0	0.548220267	0.665556781	0.010309727	0.106363548	0.032782279
2020-05-26T18:35:00	0.2242	11.140	192.0	0.548804649	0.666388085	0.010329938	0.106572067	0.032846546
2020-05-26T18:40:00	0.2245	11.121	197.0	0.550065929	0.668183257	0.010373629	0.107022822	0.032985473
2020-05-26T18:45:00	0.2244	11.101	192.0	0.549634626	0.667569239	0.010358678	0.106868575	0.032937933
2020-05-26T18:50:00	0.2244	11.082	194.0	0.549541803	0.667437113	0.010355462	0.106835393	0.032927706
2020-05-26T18:55:00	0.2247	11.062	193.0	0.550464405	0.668750676	0.010387452	0.107165429	0.033029426
2020-05-26T19:00:00	0.2252	11.039	192.0	0.552401625	0.671511083	0.010454785	0.107860094	0.033243529
2020-05-26T19:05:00	0.2250	11.015	192.0	0.551632316	0.670414500	0.010428020	0.107583956	0.033158420
2020-05-26T19:10:00	0.2255	10.992	192.0	0.553230744	0.672693462	0.010483671	0.108158102	0.033335377
2020-05-26T19:15:00	0.2260	10.965	193.0	0.555166423	0.675456070	0.010551265	0.108855459	0.033550310
2020-05-26T19:20:00	0.2269	10.940	192.0	0.558114223	0.679669097	0.010654626	0.109921816	0.033878971
2020-05-26T19:25:00	0.2279	10.914	196.0	0.561396911	0.684369168	0.010770332	0.111115530	0.034246885
2020-05-26T19:30:00	0.2279	10.888	193.0	0.561304401	0.684236593	0.010767063	0.111081800	0.034236489
2020-05-26T19:35:00	0.2285	10.863	191.0	0.563572772	0.687489403	0.010847375	0.111910368	0.034491862
2020-05-26T19:40:00	0.2283	10.838	194.0	0.562805926	0.686389283	0.010820191	0.111629912	0.034405423
2020-05-26T19:45:00	0.2286	10.813	193.0	0.563725021	0.687707878	0.010852776	0.111966092	0.034509037
2020-05-26T19:50:00	0.2286	10.788	191.0	0.563969705	0.688059036	0.010861460	0.112055677	0.034536648
2020-05-26T19:55:00	0.2287	10.762	191.0	0.564214372	0.688410219	0.010870146	0.112145293	0.034564268
2020-05-26T20:00:00	0.2286	10.737	191.0	0.563784819	0.687793692	0.010854898	0.111987982	0.034515784
2020-05-26T20:05:00	0.2289	10.712	195.0	0.564703655	0.689112659	0.010887528	0.112324615	0.034619537
2020-05-26T20:10:00	0.2292	10.686	194.0	0.565959191	0.690916075	0.010932195	0.112785435	0.034761567
2020-05-26T20:15:00	0.2296	10.659	190.0	0.567214276	0.692720144	0.010976938	0.113247050	0.034903841
2020-05-26T20:20:00	0.2298	10.633	192.0	0.567795480	0.693556011	0.010997690	0.113461139	0.034969825
2020-05-26T20:25:00	0.2292	10.607	192.0	0.565682016	0.690517836	0.010922326	0.112683621	0.034730186
2020-05-26T20:30:00	0.2303	10.582	191.0	0.569630804	0.696197345	0.011063350	0.114138542	0.035178607
2020-05-26T20:35:00	0.2298	10.556	192.0	0.567855208	0.693641926	0.010999824	0.113483152	0.034976610
2020-05-26T20:40:00	0.2304	10.530	190.0	0.569782789	0.696416202	0.011068796	0.114194730	0.035195925
2020-05-26T20:45:00	0.2305	10.505	190.0	0.570363566	0.697252688	0.011089621	0.114409572	0.035262141
2020-05-26T20:50:00	0.2303	10.480	190.0	0.569598210	0.696150413	0.011062182	0.114126494	0.035174894
2020-05-26T20:55:00	0.2303	10.454	192.0	0.569505917	0.696017524	0.011058876	0.114092382	0.035164380
2020-05-26T21:00:00	0.2296	10.428	192.0	0.567056685	0.692493550	0.010971315	0.113189036	0.034885960
2020-05-26T21:05:00	0.2297	10.403	190.0	0.567637915	0.693329380	0.010992062	0.113403079	0.034951930
2020-05-26T21:10:00	0.2295	10.377	190.0	0.566871962	0.692227970	0.010964726	0.113121053	0.034865007
2020-05-26T21:15:00	0.2290	10.351	190.0	0.565094964	0.689674584	0.010901439	0.112468134	0.034663771
2020-05-26T21:20:00	0.2294	10.325	190.0	0.566350359	0.691478203	0.010946130	0.112929202	0.034805877
2020-05-26T21:25:00	0.2287	10.297	192.0	0.564236020	0.688441294	0.010870915	0.112153224	0.034566713
2020-05-26T21:30:00	0.2291	10.271	193.0	0.565491724	0.690244467	0.010915553	0.112613749	0.034708651
2020-05-26T21:35:00	0.2290	10.245	190.0	0.565062328	0.689627713	0.010900278	0.112456161	0.034660081
2020-05-26T21:40:00	0.2288	10.220	189.0	0.564632879	0.689011036	0.010885012	0.112298666	0.034611540
2020-05-26T21:45:00	0.2290	10.196	191.0	0.565214512	0.689846282	0.010905691	0.112511999	0.034677291
2020-05-26T21:50:00	0.2289	10.173	193.0	0.564785081	0.689229578	0.010890422	0.112354472	0.034628739
2020-05-26T21:55:00	0.2289	10.150	192.0	0.564692661	0.689096873	0.010887137	0.112320584	0.034618295
2020-05-26T22:00:00	0.2286	10.129	191.0	0.563926062	0.687996398	0.010859911	0.112039696	0.034531722
2020-05-26T22:05:00	0.2281	10.109	191.0	0.562046018	0.685299595	0.010793286	0.111352346	0.034319874
2020-05-26T22:10:00	0.2282	10.088	189.0	0.562526552	0.685988613	0.010810296	0.111527826	0.034373959
2020-05-26T22:15:00	0.2281	10.066	192.0	0.561995245	0.685226804	0.010791490	0.111333813	0.034314162
2020-05-26T22:20:00	0.2272	10.044	192.0	0.559101545	0.681081787	0.010689360	0.110280157	0.033989415
2020-05-26T22:25:00	0.2274	10.022	192.0	0.559920010	0.682253479	0.010718197	0.110577660	0.034081109
2020-05-26T22:30:00	0.2276	10.000	189.0	0.560400837	0.682942076	0.010735156	0.110752626	0.034135035
2020-05-26T22:35:00	0.2276	9.976	189.0	0.560544166	0.683147376	0.010740214	0.110804809	0.034151118
2020-05-26T22:40:00	0.2277	9.949	191.0	0.560687490	0.683352684	0.010745273	0.110857001	0.034167204
2020-05-26T22:45:00	0.2280	9.925	190.0	0.561842920	0.685008438	0.010786102	0.111278221	0.034297029
2020-05-26T22:50:00	0.2284	9.901	187.0	0.562997968	0.686664743	0.010826995	0.111700113	0.034427060
2020-05-26T22:55:00	0.2291	9.875	189.0	0.565500770	0.690257461	0.010915875	0.112617069	0.034709675
2020-05-26T23:00:00	0.2291	9.852	186.0	0.565643890	0.690463063	0.010920969	0.112669620	0.034725871
2020-05-26T23:05:00	0.2296	9.827	187.0	0.567134509	0.692605447	0.010974092	0.113217683	0.034894790
2020-05-26T23:10:00	0.2297	9.803	187.0	0.567614343	0.693295477	0.010991220	0.113394394	0.034949254
2020-05-26T23:15:00	0.2299	9.778	187.0	0.568094111	0.693985602	0.011008360	0.113571222	0.035003754
2020-05-26T23:20:00	0.2294	9.757	190.0	0.566553195	0.691769738	0.010953359	0.113003788	0.034828865
2020-05-26T23:25:00	0.2301	9.736	188.0	0.568716808	0.694881607	0.011030626	0.113800937	0.035074554
2020-05-26T23:30:00	0.2297	9.714	187.0	0.567512957	0.693149662	0.010987600	0.113357045	0.034937742
2020-05-26T23:35:00	0.2298	9.692	189.0	0.567992740	0.693839767	0.011004737	0.113533848	0.034992234
2020-05-26T23:40:00	0.2291	9.669	187.0	0.565441001	0.690171604	0.010913748	0.112595127	0.034702912
2020-05-26T23:45:00	0.2289	9.647	190.0	0.564910137	0.689409154	0.010894867	0.112400334	0.034642875
2020-05-26T23:50:00	0.2290	9.624	186.0	0.565053281	0.689614721	0.010899957	0.112452842	0.034659058
2020-05-26T23:55:00	0.2291	9.601	188.0	0.565533402	0.690304337	0.010917036	0.112629050	0.034713367
2020-05-27T00:00:00	0.2293	9.578	186.0	0.566013456	0.690994049	0.010934127	0.112805374	0.034767712
2020-05-27T00:05:00	0.2288	9.554	189.0	0.564471621	0.688779514	0.010879283	0.112239557	0.034593321
2020-05-27T00:10:00	0.2290	9.531	190.0	0.565288827	0.689953021	0.010908334	0.112539272	0.034685696
2020-05-27T00:15:00	0.2289	9.507	187.0	0.564757940	0.689190604	0.010889457	0.112344519	0.034625672
2020-05-27T00:20:00	0.2285	9.483	188.0	0.563552723	0.687460636	0.010846664	0.111903031	0.034489601
2020-05-27T00:25:00	0.2283	9.459	187.0	0.562684348	0.686214911	0.010815884	0.111585480	0.034391729
2020-05-27T00:30:00	0.2287	9.437	187.0	0.564176230	0.688355468	0.010868792	0.112131320	0.034559962
2020-05-27T00:35:00	0.2284	9.416	186.0	0.562970813	0.686625790	0.010826033	0.111690185	0.034424000
2020-05-27T00:40:00	0.2284	9.394	188.0	0.563114037	0.686831242	0.010831109	0.111742553	0.034440140
2020-05-27T00:45:00	0.2274	9.372	189.0	0.559883770	0.682201588	0.010716919	0.110564479	0.034077046
2020-05-27T00:50:00	0.2274	9.350	186.0	0.559689606	0.681923585	0.010710075	0.110493870	0.034055284
2020-05-27T00:55:00	0.2272	9.327	187.0	0.559157866	0.681162398	0.010691343	0.110300616	0.033995721
2020-05-27T01:00:00	0.2271	9.304	188.0	0.558626045	0.680401328	0.010672625	0.110107504	0.033936202
2020-05-27T01:05:00	0.2273	9.282	187.0	0.559444622	0.681572860	0.010701443	0.110404812	0.034027835
2020-05-27T01:10:00	0.2273	9.259	188.0	0.559587990	0.681778103	0.010706494	0.110456926	0.034043897
2020-05-27T01:15:00	0.2267	9.235	186.0	0.557367866	0.678601721	0.010628408	0.109651326	0.033795604
2020-05-27T01:20:00	0.2269	9.210	188.0	0.558186738	0.679772828	0.010657176	0.109948115	0.033887077
2020-05-27T01:25:00	0.2268	9.186	186.0	0.557654769	0.679011971	0.010638483	0.109755263	0.033827638
2020-05-27T01:30:00	0.2268	9.162	188.0	0.557798211	0.679217108	0.010643521	0.109807248	0.033843660
2020-05-27T01:35:00	0.2268	9.139	186.0	0.557603932	0.678939272	0.010636697	0.109736843	0.033821961
2020-05-27T01:40:00	0.2266	9.116	185.0	0.557071873	0.678178543	0.010618019	0.109544147	0.033762570
2020-05-27T01:45:00	0.2265	9.091	184.0	0.556877553	0.677900765	0.010611202	0.109473813	0.033740892
2020-05-27T01:50:00	0.2269	9.067	185.0	0.558034247	0.679554701	0.010651815	0.109892816	0.033870033
2020-05-27T01:55:00	0.2264	9.043	185.0	0.556488880	0.677345255	0.010597572	0.109333201	0.033697555
2020-05-27T02:00:00	0.2266	9.021	187.0	0.556970180	0.678033171	0.010614451	0.109507337	0.033751225
2020-05-27T02:05:00	0.2261	9.001	186.0	0.555424340	0.675824403	0.010560288	0.108948550	0.033579001
2020-05-27T02:10:00	0.2258	8.980	183.0	0.554215891	0.674099083	0.010518045	0.108512732	0.033444678
2020-05-27T02:15:00	0.2259	8.958	183.0	0.554697506	0.674786548	0.010534870	0.108686317	0.033498178
2020-05-27T02:20:00	0.2259	8.935	183.0	0.554841071	0.674991511	0.010539889	0.108738088	0.033514135
2020-05-27T02:25:00	0.2253	8.913	186.0	0.552617916	0.671819474	0.010462317	0.107937795	0.033267477
2020-05-27T02:30:00	0.2250	8.891	183.0	0.551746809	0.670577670	0.010432001	0.107625030	0.033171080
2020-05-27T02:35:00	0.2243	8.870	185.0	0.549183139	0.666926650	0.010343039	0.106707230	0.032888205
2020-05-27T02:40:00	0.2243	8.848	183.0	0.549326931	0.667131287	0.010348019	0.106758603	0.032904038
2020-05-27T02:45:00	0.2244	8.826	183.0	0.549470717	0.667335933	0.010352999	0.106809986	0.032919875
2020-05-27T02:50:00	0.2238	8.804	183.0	0.547582846	0.664650346	0.010287703	0.106136339	0.032712251
2020-05-27T02:55:00	0.2240	8.784	184.0	0.548404026	0.665818155	0.010316080	0.106429095	0.032802481
2020-05-27T03:00:00	0.2246	8.762	186.0	0.550240505	0.668431832	0.010379684	0.107085288	0.033004726
2020-05-27T03:05:00	0.2245	8.743	186.0	0.550045803	0.668154601	0.010372931	0.107015622	0.032983254
2020-05-27T03:10:00	0.2242	8.723	185.0	0.548835482	0.666431954	0.010331005	0.106583075	0.032849939
2020-05-27T03:15:00	0.2240	8.703	183.0	0.548302080	0.665673145	0.010312555	0.106392728	0.032791272
2020-05-27T03:20:00	0.2237	8.683	183.0	0.547091150	0.663951364	0.010270731	0.105961242	0.032658284
2020-05-27T03:25:00	0.2239	8.664	183.0	0.547912446	0.665119007	0.010299088	0.106253795	0.032748451
2020-05-27T03:30:00	0.2234	8.646	182.0	0.546362571	0.662916000	0.010245609	0.105702057	0.032578401
2020-05-27T03:35:00	0.2232	8.628	185.0	0.545489893	0.661676433	0.010215558	0.105392034	0.032482848
2020-05-27T03:40:00	0.2235	8.610	182.0	0.546650383	0.663324950	0.010255529	0.105804405	0.032609945
2020-05-27T03:45:00	0.2238	8.594	182.0	0.547471783	0.664492445	0.010283869	0.106096776	0.032700057
2020-05-27T03:50:00	0.2245	8.576	182.0	0.549985768	0.668069125	0.010370850	0.106994146	0.032976635
2020-05-27T03:55:00	0.2249	8.559	185.0	0.551144757	0.669719780	0.010411074	0.107409136	0.033104539
2020-05-27T04:00:00	0.2243	8.541	184.0	0.549257796	0.667032897	0.010345625	0.106733902	0.032896425
2020-05-27T04:05:00	0.2246	8.525	181.0	0.550168361	0.668329104	0.010377182	0.107059471	0.032996769
2020-05-27T04:10:00	0.2255	8.509	181.0	0.553446447	0.673001162	0.010491193	0.108235700	0.033359294
2020-05-27T04:15:00	0.2256	8.495	182.0	0.553679753	0.673334015	0.010499331	0.108319662	0.033385172
2020-05-27T04:20:00	0.2264	8.481	182.0	0.556278875	0.677045159	0.010590212	0.109257266	0.033674150
2020-05-27T04:25:00	0.2267	8.469	184.0	0.557525360	0.678826917	0.010633938	0.109708375	0.033813187
2020-05-27T04:30:00	0.2273	8.457	185.0	0.559446571	0.681575651	0.010701511	0.110405521	0.034028054
2020-05-27T04:35:00	0.2277	8.445	185.0	0.560691923	0.683359035	0.010745430	0.110858616	0.034167702
2020-05-27T04:40:00	0.2280	8.435	184.0	0.561936830	0.685143060	0.010789423	0.111312492	0.034307591
2020-05-27T04:45:00	0.2285	8.424	181.0	0.563518469	0.687411484	0.010845449	0.111890496	0.034485737
2020-05-27T04:50:00	0.2291	8.416	181.0	0.565436383	0.690164970	0.010913584	0.112593432	0.034702389
2020-05-27T04:55:00	0.2291	8.408	183.0	0.565331919	0.690014916	0.010909867	0.112555087	0.034690571
2020-05-27T05:00:00	0.2295	8.402	181.0	0.566912021	0.692285561	0.010966154	0.113135794	0.034869551
2020-05-27T05:05:00	0.2295	8.397	181.0	0.566807601	0.692135443	0.010962430	0.113097371	0.034857708
2020-05-27T05:10:00	0.2298	8.392	182.0	0.567713590	0.693438223	0.010994765	0.113430962	0.034960524
2020-05-27T05:15:00	0.2296	8.389	181.0	0.567272412	0.692803740	0.010979013	0.113268455	0.034910438
2020-05-27T05:20:00	0.2293	8.387	181.0	0.566157433	0.691200942	0.010939256	0.112858284	0.034784019
2020-05-27T05:25:00	0.2294	8.386	181.0	0.566389889	0.691535017	0.010947538	0.112943736	0.034810356
2020-05-27T05:30:00	0.2299	8.385	181.0	0.568306228	0.694290782	0.011015942	0.113649446	0.035027863
2020-05-27T05:35:00	0.2298	8.387	182.0	0.567865125	0.693656191	0.011000178	0.113486807	0.034977736
2020-05-27T05:40:00	0.2305	8.387	181.0	0.570117195	0.696897808	0.011080784	0.114318409	0.035234044
2020-05-27T05:45:00	0.2304	8.391	183.0	0.570012870	0.696747551	0.011077044	0.114279817	0.035222150
2020-05-27T05:50:00	0.2305	8.394	181.0	0.570245071	0.697081998	0.011085370	0.114365721	0.035248626
2020-05-27T05:55:00	0.2310	8.399	185.0	0.571822955	0.699355860	0.011142037	0.114950338	0.035428811
2020-05-27T06:00:00	0.2310	8.405	184.0	0.572055035	0.699690481	0.011150384	0.115036454	0.035455352
2020-05-27T06:05:00	0.2310	8.413	184.0	0.571950768	0.699540140	0.011146633	0.114997761	0.035443427
2020-05-27T06:10:00	0.2309	8.423	182.0	0.571510125	0.698904882	0.011130790	0.114834312	0.035393050
2020-05-27T06:15:00	0.2310	8.433	181.0	0.571742226	0.699239473	0.011139134	0.114920391	0.035419581
2020-05-27T06:20:00	0.2305	8.445	181.0	0.570292180	0.697149856	0.011087060	0.114383153	0.035253999
2020-05-27T06:25:00	0.2306	8.458	185.0	0.570524362	0.697484329	0.011095390	0.114469090	0.035280485
2020-05-27T06:30:00	0.2310	8.473	181.0	0.571765770	0.699273417	0.011139980	0.114929125	0.035422272
2020-05-27T06:35:00	0.2305	8.488	182.0	0.570315734	0.697183786	0.011087905	0.114391870	0.035256685
2020-05-27T06:40:00	0.2304	8.505	182.0	0.569874885	0.696548827	0.011072097	0.114228784	0.035206421
2020-05-27T06:45:00	0.2306	8.523	181.0	0.570443603	0.697367986	0.011092492	0.114439195	0.035271271
2020-05-27T06:50:00	0.2301	8.545	185.0	0.568993019	0.695279151	0.011040510	0.113902908	0.035105982
2020-05-27T06:55:00	0.2306	8.569	182.0	0.570571467	0.697552193	0.011097080	0.114486529	0.035285860
2020-05-27T07:00:00	0.2309	8.596	182.0	0.571476482	0.698856387	0.011129581	0.114821837	0.035389205
2020-05-27T07:05:00	0.2311	8.632	183.0	0.572381263	0.700160921	0.011162122	0.115157559	0.035492678
2020-05-27T07:10:00	0.2313	8.680	182.0	0.572949574	0.700980673	0.011182587	0.115368689	0.035557750
2020-05-27T07:15:00	0.2314	8.720	185.0	0.573181580	0.701315402	0.011190947	0.115454936	0.035584333
2020-05-27T07:20:00	0.2315	8.753	184.0	0.573413570	0.701650154	0.011199309	0.115541211	0.035610923
2020-05-27T07:25:00	0.2313	8.808	183.0	0.572973110	0.701014628	0.011183435	0.115377437	0.035560447
2020-05-27T07:30:00	0.2312	8.836	182.0	0.572532595	0.700379183	0.011167570	0.115213761	0.035510000
2020-05-27T07:35:00	0.2316	8.872	183.0	0.573773292	0.702169306	0.011212283	0.115675053	0.035652175
2020-05-27T07:40:00	0.2319	8.908	185.0	0.575013550	0.703960069	0.011257070	0.116137121	0.035794589
2020-05-27T07:45:00	0.2320	8.968	183.0	0.575245419	0.704294998	0.011265454	0.116223610	0.035821245
2020-05-27T07:50:00	0.2318	9.002	183.0	0.574469100	0.703173800	0.011237398	0.115934166	0.035732036
2020-05-27T07:55:00	0.2323	9.025	184.0	0.576381021	0.705935988	0.011306558	0.116647674	0.035951946
2020-05-27T08:00:00	0.2320	9.072	184.0	0.575268940	0.704328976	0.011266304	0.116232386	0.035823950
2020-05-27T08:05:00	0.2322	9.116	186.0	0.575836783	0.705149409	0.011286849	0.116444343	0.035889277
2020-05-27T08:10:00	0.2322	9.161	185.0	0.576068598	0.705484418	0.011295242	0.116530928	0.035915964
2020-05-27T08:15:00	0.2333	9.181	185.0	0.579658094	0.710677486	0.011425603	0.117875841	0.036330479
2020-05-27T08:20:00	0.2318	9.253	188.0	0.574516152	0.703241741	0.011239098	0.115951698	0.035737440
2020-05-27T08:25:00	0.2333	9.307	188.0	0.579450009	0.710376150	0.011418025	0.117797661	0.036306383
2020-05-27T08:30:00	0.2334	9.363	186.0	0.580017176	0.711197573	0.011438686	0.118010816	0.036372080
2020-05-27T08:35:00	0.2334	9.420	186.0	0.579913146	0.711046887	0.011434895	0.117971704	0.036360025
2020-05-27T08:40:00	0.2334	9.479	188.0	0.579809113	0.710896205	0.011431105	0.117932598	0.036347972
2020-05-27T08:45:00	0.2333	9.545	187.0	0.579705077	0.710745528	0.011427314	0.117893497	0.036335921
2020-05-27T08:50:00	0.2333	9.626	187.0	0.579601037	0.710594856	0.011423525	0.117854402	0.036323871
2020-05-27T08:55:00	0.2337	9.682	187.0	0.580839236	0.712388629	0.011468666	0.118320116	0.036467409
2020-05-27T09:00:00	0.2333	9.777	187.0	0.579728568	0.710779550	0.011428170	0.117902325	0.036338642
2020-05-27T09:05:00	0.2340	9.872	191.0	0.581973030	0.714032267	0.011510081	0.118747385	0.036599097
2020-05-27T09:10:00	0.2342	9.952	189.0	0.582539790	0.714854288	0.011530812	0.118961264	0.036665017
2020-05-27T09:15:00	0.2337	10.025	191.0	0.581094203	0.712758156	0.011477973	0.118416132	0.036497002
2020-05-27T09:20:00	0.2335	10.065	192.0	0.580319177	0.711635066	0.011449695	0.118124396	0.036407086
2020-05-27T09:25:00	0.2342	10.164	192.0	0.582563262	0.714888337	0.011531671	0.118970125	0.036667748
2020-05-27T09:30:00	0.2337	10.187	193.0	0.581117685	0.712792191	0.011478830	0.118424976	0.036499728
2020-05-27T09:35:00	0.2327	10.238	192.0	0.577657287	0.707781521	0.011352845	0.117125206	0.036099126
2020-05-27T09:40:00	0.2325	10.298	192.0	0.576881502	0.706659543	0.011324698	0.116834817	0.036009625
2020-05-27T09:45:00	0.2325	10.344	193.0	0.576777379	0.706508993	0.011320922	0.116795870	0.035997621
2020-05-27T09:50:00	0.2317	10.387	193.0	0.574321201	0.702960254	0.011232057	0.115879065	0.035715053
2020-05-27T09:55:00	0.2323	10.445	193.0	0.576233203	0.705722324	0.011301203	0.116592430	0.035934919
2020-05-27T10:00:00	0.2324	10.483	193.0	0.576464991	0.706057371	0.011309600	0.116679062	0.035961620
2020-05-27T10:05:00	0.2316	10.516	193.0	0.574053177	0.702573311	0.011222382	0.115779244	0.035684287
2020-05-27T10:10:00	0.2313	10.570	193.0	0.572984955	0.701031716	0.011183862	0.115381839	0.035561803
2020-05-27T10:15:00	0.2315	10.590	195.0	0.573597758	0.701915960	0.011205951	0.115609732	0.035632042
2020-05-27T10:20:00	0.2315	10.600	195.0	0.573538127	0.701829903	0.011203801	0.115587546	0.035625204
2020-05-27T10:25:00	0.2304	10.662	192.0	0.569778329	0.696409779	0.011068636	0.114193081	0.035195417
2020-05-27T10:30:00	0.2312	10.690	195.0	0.572410097	0.700202507	0.011163160	0.115168267	0.035495978
2020-05-27T10:35:00	0.2318	10.740	195.0	0.574703822	0.703512744	0.011245877	0.116021641	0.035758997
2020-05-27T10:40:00	0.2321	10.764	194.0	0.575652333	0.704882882	0.011280174	0.116375472	0.035868051
2020-05-27T10:45:00	0.2311	10.822	194.0	0.572231142	0.699944428	0.011156720	0.115101822	0.035475499
2020-05-27T10:50:00	0.2313	10.863	196.0	0.572844077	0.700828480	0.011178787	0.115329481	0.035545666
2020-05-27T10:55:00	0.2308	10.926	196.0	0.571102691	0.698317645	0.011116152	0.114683287	0.035346503
2020-05-27T11:00:00	0.2307	10.978	194.0	0.571043019	0.698231649	0.011114008	0.114661176	0.035339688
2020-05-27T11:05:00	0.2308	11.037	195.0	0.571319769	0.698630504	0.011123950	0.114763739	0.035371299
2020-05-27T11:10:00	0.2306	11.080	192.0	0.570587207	0.697574869	0.011097645	0.114492356	0.035287656
2020-05-27T11:15:00	0.2299	11.119	193.0	0.568171340	0.694096709	0.011011120	0.113599699	0.035012530
2020-05-27T11:20:00	0.2301	11.206	193.0	0.568784986	0.694979728	0.011033065	0.113826102	0.035082310
2020-05-27T11:25:00	0.2296	11.218	193.0	0.567041578	0.692471829	0.010970776	0.113183476	0.034884246
2020-05-27T11:30:00	0.2295	11.268	195.0	0.566981836	0.692385934	0.010968645	0.113161487	0.034877469
2020-05-27T11:35:00	0.2301	11.313	194.0	0.568942499	0.695206434	0.011038702	0.113884253	0.035100233
2020-05-27T11:40:00	0.2295	11.343	194.0	0.566862348	0.692214149	0.010964383	0.113117516	0.034863917
2020-05-27T11:45:00	0.2297	11.402	194.0	0.567476224	0.693096834	0.010986289	0.113343514	0.034933572
2020-05-27T11:50:00	0.2293	11.443	196.0	0.566069093	0.691073997	0.010936109	0.112825819	0.034774013
2020-05-27T11:55:00	0.2276	11.502	194.0	0.560276995	0.682764703	0.010730787	0.110707549	0.034121142
2020-05-27T12:00:00	0.2281	11.613	195.0	0.562241426	0.685579759	0.010800201	0.111423687	0.034341863
2020-05-27T12:05:00	0.2286	11.662	195.0	0.563867641	0.687912553	0.010857837	0.112018304	0.034525129
2020-05-27T12:10:00	0.2287	11.708	195.0	0.564144960	0.688310583	0.010867681	0.112119865	0.034556431
2020-05-27T12:15:00	0.2284	11.765	197.0	0.563073705	0.686773385	0.010829679	0.111727805	0.034435595
2020-05-27T12:20:00	0.2284	11.849	196.0	0.563013895	0.686687589	0.010827560	0.111705936	0.034428854
2020-05-27T12:25:00	0.2286	11.911	196.0	0.563965581	0.688053118	0.010861313	0.112054167	0.034536183
2020-05-27T12:30:00	0.2276	11.930	196.0	0.560532929	0.683131280	0.010739817	0.110800717	0.034149857
2020-05-27T12:35:00	0.2279	11.918	197.0	0.561485292	0.684495833	0.010773456	0.111147759	0.034256819
2020-05-27T12:40:00	0.2283	11.920	196.0	0.562774644	0.686344416	0.010819082	0.111618478	0.034401899
2020-05-27T12:45:00	0.2283	11.944	196.0	0.562714829	0.686258627	0.010816964	0.111596619	0.034395162
2020-05-27T12:50:00	0.2271	11.984	197.0	0.558605739	0.680372273	0.010671911	0.110100134	0.033933931
2020-05-27T12:55:00	0.2277	12.077	197.0	0.560908540	0.683669369	0.010753078	0.110937524	0.034192022
2020-05-27T13:00:00	0.2286	12.177	197.0	0.563884136	0.687936227	0.010858423	0.112024344	0.034526991
2020-05-27T13:05:00	0.2284	12.234	198.0	0.563150014	0.686882853	0.010832384	0.111755709	0.034444195
2020-05-27T13:10:00	0.2284	12.247	197.0	0.563090205	0.686797054	0.010830264	0.111733838	0.034437454
2020-05-27T13:15:00	0.2282	12.275	200.0	0.562355915	0.685743921	0.010804254	0.111465497	0.034354749
2020-05-27T13:20:00	0.2279	12.318	199.0	0.561284111	0.684207516	0.010766346	0.111074402	0.034234209
2020-05-27T13:25:00	0.2284	12.324	198.0	0.563247974	0.687023388	0.010835857	0.111791537	0.034455237
2020-05-27T13:30:00	0.2282	12.329	198.0	0.562513718	0.685970207	0.010809841	0.111523137	0.034372514
2020-05-27T13:35:00	0.2281	12.340	198.0	0.562116618	0.685400813	0.010795785	0.111378119	0.034327818
2020-05-27T13:40:00	0.2275	12.333	198.0	0.560032396	0.682414412	0.010722160	0.110618543	0.034093709
2020-05-27T13:45:00	0.2258	12.346	197.0	0.554230250	0.674119576	0.010518546	0.108517905	0.033446272
2020-05-27T13:50:00	0.2254	12.350	198.0	0.553155942	0.672586766	0.010481063	0.108131199	0.033327086
2020-05-27T13:55:00	0.2247	12.320	197.0	0.550727961	0.669126044	0.010396600	0.107259804	0.033058513
2020-05-27T14:00:00	0.2254	12.278	198.0	0.553035979	0.672415663	0.010476882	0.108088061	0.033313790
2020-05-27T14:05:00	0.2251	12.238	197.0	0.551961302	0.670883381	0.010439461	0.107701999	0.033194802
2020-05-27T14:10:00	0.2252	12.222	197.0	0.552239570	0.671280048	0.010449144	0.107801896	0.033225591
2020-05-27T14:15:00	0.2245	12.237	197.0	0.549810949	0.667820240	0.010364789	0.106931620	0.032957364
2020-05-27T14:20:00	0.2249	12.261	198.0	0.551442979	0.670144693	0.010421438	0.107516050	0.033137491
2020-05-27T14:25:00	0.2246	12.291	198.0	0.550367809	0.668613114	0.010384100	0.107130850	0.033018769
2020-05-27T14:30:00	0.2242	12.298	198.0	0.548953749	0.666600230	0.010335098	0.106625302	0.032862954
2020-05-27T14:35:00	0.2243	12.279	198.0	0.549232259	0.666996553	0.010344740	0.106724778	0.032893613
2020-05-27T14:40:00	0.2239	12.272	197.0	0.547817736	0.664984328	0.010295816	0.106220037	0.032738047
2020-05-27T14:45:00	0.2230	12.276	197.0	0.544708107	0.660566502	0.010188676	0.105114691	0.032397369
2020-05-27T14:50:00	0.2222	12.279	198.0	0.542274206	0.657114200	0.010105213	0.104253616	0.032131977
2020-05-27T14:55:00	0.2219	12.289	198.0	0.541196190	0.655586664	0.010068356	0.103873375	0.032014783
2020-05-27T15:00:00	0.2224	12.289	198.0	0.542832278	0.657905353	0.010124319	0.104450737	0.032192731
2020-05-27T15:05:00	0.2220	12.275	198.0	0.541415140	0.655896838	0.010075836	0.103950547	0.032038568
2020-05-27T15:10:00	0.2219	12.252	198.0	0.541015623	0.655330896	0.010062189	0.103809754	0.031995174
2020-05-27T15:15:00	0.2215	12.235	198.0	0.539937214	0.653803915	0.010025399	0.103430193	0.031878190
2020-05-27T15:20:00	0.2213	12.241	197.0	0.539198014	0.652757788	0.010000220	0.103170427	0.031798128
2020-05-27T15:25:00	0.2213	12.248	197.0	0.539137791	0.652672579	0.009998170	0.103149279	0.031791610
2020-05-27T15:30:00	0.2215	12.248	198.0	0.539756581	0.653548240	0.010019243	0.103366686	0.031858616
2020-05-27T15:35:00	0.2214	12.249	198.0	0.539356872	0.652982569	0.010005629	0.103226225	0.031815325
2020-05-27T15:40:00	0.2205	12.251	200.0	0.536239633	0.648575509	0.009899770	0.102134107	0.031478724
2020-05-27T15:45:00	0.2207	12.250	197.0	0.537198684	0.649930541	0.009932278	0.102469484	0.031582090
2020-05-27T15:50:00	0.2212	12.240	198.0	0.538836662	0.652246560	0.009987923	0.103043563	0.031759027
2020-05-27T15:55:00	0.2215	12.228	197.0	0.539794993	0.653602606	0.010020552	0.103380189	0.031862778
2020-05-27T16:00:00	0.2212	12.218	197.0	0.538716203	0.652076162	0.009983826	0.103001289	0.031745998
2020-05-27T16:05:00	0.2208	12.211	198.0	0.537450784	0.650286855	0.009940832	0.102557735	0.031609290
2020-05-27T16:10:00	0.2205	12.201	198.0	0.536524709	0.648978211	0.009909428	0.102233739	0.031509431
2020-05-27T16:15:00	0.2205	12.187	198.0	0.536278084	0.648629820	0.009901073	0.102147542	0.031482865
2020-05-27T16:20:00	0.2200	12.172	198.0	0.534671815	0.646361970	0.009846744	0.101587039	0.031310112
2020-05-27T16:25:00	0.2200	12.155	197.0	0.534765038	0.646493532	0.009849893	0.101619526	0.031320125
2020-05-27T16:30:00	0.2195	12.136	197.0	0.533158065	0.644226671	0.009795682	0.101060242	0.031147748
2020-05-27T16:35:00	0.2192	12.118	198.0	0.531890608	0.642440229	0.009753031	0.100620218	0.031012128
2020-05-27T16:40:00	0.2189	12.101	197.0	0.530963040	0.641133681	0.009721876	0.100298807	0.030913066
2020-05-27T16:45:00	0.2189	12.084	197.0	0.531056363	0.641265102	0.009725009	0.100331121	0.030923026
2020-05-27T16:50:00	0.2191	12.070	198.0	0.531489988	0.641875840	0.009739569	0.100481336	0.030969324
2020-05-27T16:55:00	0.2192	12.057	197.0	0.531923557	0.642486654	0.009754138	0.100631645	0.031015650
2020-05-27T17:00:00	0.2191	12.044	197.0	0.531676603	0.642138725	0.009745838	0.100546017	0.030989259
2020-05-27T17:05:00	0.2199	12.030	197.0	0.534490907	0.646106683	0.009840634	0.101524009	0.031290686
2020-05-27T17:10:00	0.2200	12.013	197.0	0.534584135	0.646238237	0.009843782	0.101556488	0.031300696
2020-05-27T17:15:00	0.2198	11.996	197.0	0.533997347	0.645410334	0.009823976	0.101352149	0.031237717
2020-05-27T17:20:00	0.2197	11.977	201.0	0.533750541	0.645062197	0.009815651	0.101266264	0.031211246
2020-05-27T17:25:00	0.2198	11.958	197.0	0.533843789	0.645193723	0.009818796	0.101298709	0.031221246
2020-05-27T17:30:00	0.2197	11.938	197.0	0.533596972	0.644845602	0.009810473	0.101212843	0.031194781
2020-05-27T17:35:00	0.2198	11.919	196.0	0.534030277	0.645456787	0.009825087	0.101363610	0.031241249
2020-05-27T17:40:00	0.2198	11.902	196.0	0.534123517	0.645588324	0.009828233	0.101396068	0.031251253
2020-05-27T17:45:00	0.2195	11.887	196.0	0.532856414	0.643801385	0.009785522	0.100955430	0.031115444
2020-05-27T17:50:00	0.2192	11.873	196.0	0.531929106	0.642494473	0.009754325	0.100633570	0.031016243
2020-05-27T17:55:00	0.2193	11.858	196.0	0.532362621	0.643105364	0.009768903	0.100783974	0.031062600
2020-05-27T18:00:00	0.2188	11.842	196.0	0.530754529	0.640840073	0.009714880	0.100226626	0.030890820
2020-05-27T18:05:00	0.2189	11.823	196.0	0.530847858	0.640971486	0.009718011	0.100258931	0.030900776
2020-05-27T18:10:00	0.2186	11.808	197.0	0.529920010	0.639665331	0.009686904	0.099938004	0.030801863
2020-05-27T18:15:00	0.2185	11.792	197.0	0.529672912	0.639317602	0.009678628	0.099852624	0.030775549
2020-05-27T18:20:00	0.2187	11.773	195.0	0.530106710	0.639928097	0.009693159	0.100002539	0.030821754
2020-05-27T18:25:00	0.2182	11.755	196.0	0.528497565	0.637664279	0.009639312	0.099447010	0.030650534
2020-05-27T18:30:00	0.2180	11.737	195.0	0.527909742	0.636837827	0.009619680	0.099244462	0.030588107
2020-05-27T18:35:00	0.2180	11.719	195.0	0.528003147	0.636969132	0.009622798	0.099276633	0.030598022
2020-05-27T18:40:00	0.2180	11.700	195.0	0.527755912	0.636621596	0.009614545	0.099191491	0.030571781
2020-05-27T18:45:00	0.2181	11.682	195.0	0.528189951	0.637231753	0.009629036	0.099340988	0.030617857
2020-05-27T18:50:00	0.2176	11.663	196.0	0.526579911	0.634969186	0.009575339	0.098787005	0.030447114
2020-05-27T18:55:00	0.2175	11.643	196.0	0.526332573	0.634621792	0.009567103	0.098702039	0.030420927
2020-05-27T19:00:00	0.2174	11.623	195.0	0.525744380	0.633795856	0.009547532	0.098500129	0.030358696
2020-05-27T19:05:00	0.2172	11.602	195.0	0.525156086	0.632970060	0.009527978	0.098298392	0.030296519
2020-05-27T19:10:00	0.2171	11.582	197.0	0.524908646	0.632622809	0.009519759	0.098213603	0.030270386
2020-05-27T19:15:00	0.2179	11.563	195.0	0.527387803	0.636104242	0.009602264	0.099064791	0.030532731
2020-05-27T19:20:00	0.2183	11.541	195.0	0.528843685	0.638151038	0.009650882	0.099566370	0.030687322
2020-05-27T19:25:00	0.2185	11.521	195.0	0.529618076	0.639240441	0.009676792	0.099833682	0.030769710
2020-05-27T19:30:00	0.2189	11.501	194.0	0.531073016	0.641288553	0.009725568	0.100336887	0.030924803
2020-05-27T19:35:00	0.2194	11.481	194.0	0.532527342	0.643337523	0.009774446	0.100841153	0.031080223
2020-05-27T19:40:00	0.2194	11.462	194.0	0.532620623	0.643469003	0.009777585	0.100873540	0.031090205
2020-05-27T19:45:00	0.2201	11.441	194.0	0.535094243	0.646958182	0.009861017	0.101734294	0.031355497
2020-05-27T19:50:00	0.2206	11.421	194.0	0.536886649	0.649489588	0.009921696	0.102360306	0.031548440
2020-05-27T19:55:00	0.2213	11.401	199.0	0.539017689	0.652502657	0.009994083	0.103107109	0.031778612
2020-05-27T20:00:00	0.2214	11.382	195.0	0.539450315	0.653114798	0.010008810	0.103259053	0.031825443
2020-05-27T20:05:00	0.2216	11.363	194.0	0.540222331	0.654207537	0.010035119	0.103530476	0.031909098
2020-05-27T20:10:00	0.2216	11.343	193.0	0.539975969	0.653858774	0.010026720	0.103443822	0.031882390
2020-05-27T20:15:00	0.2226	11.324	193.0	0.543461815	0.658798126	0.010145895	0.104673326	0.032261336
2020-05-27T20:20:00	0.2224	11.304	193.0	0.542876532	0.657968102	0.010125835	0.104466376	0.032197552
2020-05-27T20:25:00	0.2225	11.284	194.0	0.543308676	0.658580924	0.010140644	0.104619158	0.032244640
2020-05-27T20:30:00	0.2223	11.265	194.0	0.542384168	0.657270068	0.010108976	0.104292442	0.032143943
2020-05-27T20:35:00	0.2221	11.246	194.0	0.541798703	0.656440301	0.010088947	0.104085809	0.032080257
2020-05-27T20:40:00	0.2221	11.228	193.0	0.541891734	0.656572133	0.010092128	0.104118629	0.032090373
2020-05-27T20:45:00	0.2226	11.209	193.0	0.543680623	0.659108502	0.010153399	0.104750747	0.032285198
2020-05-27T20:50:00	0.2225	11.190	193.0	0.543095377	0.658278425	0.010133333	0.104543733	0.032221394
2020-05-27T20:55:00	0.2222	11.169	193.0	0.542170812	0.656967650	0.010101675	0.104217116	0.032120727
2020-05-27T21:00:00	0.2222	11.149	193.0	0.542263832	0.657099496	0.010104858	0.104249954	0.032130848
2020-05-27T21:05:00	0.2221	11.131	193.0	0.541678347	0.656269758	0.010084832	0.104043356	0.032067173
2020-05-27T21:10:00	0.2216	11.111	193.0	0.540074585	0.653998374	0.010030082	0.103478504	0.031893080
2020-05-27T21:15:00	0.2217	11.093	193.0	0.540507079	0.654610702	0.010044832	0.103630677	0.031939981
2020-05-27T21:20:00	0.2218	11.074	194.0	0.540939519	0.655223105	0.010059591	0.103782945	0.031986912
2020-05-27T21:25:00	0.2220	11.056	193.0	0.541371905	0.655835586	0.010074359	0.103935306	0.032033871
2020-05-27T21:30:00	0.2225	11.039	194.0	0.543161062	0.658371575	0.010135585	0.104566957	0.032228552
2020-05-27T21:35:00	0.2220	11.022	193.0	0.541557987	0.656099220	0.010080718	0.104000911	0.032054091
2020-05-27T21:40:00	0.2220	11.005	193.0	0.541651024	0.656231043	0.010083898	0.104033720	0.032064203
2020-05-27T21:45:00	0.2218	10.990	193.0	0.540726073	0.654920813	0.010052305	0.103707774	0.031963743
2020-05-27T21:50:00	0.2213	10.975	193.0	0.539121870	0.652650053	0.009997628	0.103143688	0.031789886
2020-05-27T21:55:00	0.2212	10.962	193.0	0.538875430	0.652301401	0.009989242	0.103057170	0.031763221
2020-05-27T22:00:00	0.2212	10.949	193.0	0.538628972	0.651952774	0.009980859	0.102970682	0.031736564
2020-05-27T22:05:00	0.2209	10.936	193.0	0.537760421	0.650724562	0.009951344	0.102666180	0.031642714
2020-05-27T22:10:00	0.2206	10.924	192.0	0.536891652	0.649496657	0.009921865	0.102362056	0.031548980
2020-05-27T22:15:00	0.2200	10.911	192.0	0.534663035	0.646349581	0.009846447	0.101583980	0.031309169
2020-05-27T22:20:00	0.2196	10.900	193.0	0.533453411	0.644643140	0.009805634	0.101162916	0.031179393
2020-05-27T22:25:00	0.2190	10.890	192.0	0.531222573	0.641499182	0.009730588	0.100388685	0.030940768
2020-05-27T22:30:00	0.2185	10.880	192.0	0.529671292	0.639315323	0.009678574	0.099852065	0.030775376
2020-05-27T22:35:00	0.2181	10.871	192.0	0.528119313	0.637132441	0.009626677	0.099316650	0.030610356
2020-05-27T22:40:00	0.2180	10.861	192.0	0.527929457	0.636865541	0.009620338	0.099251252	0.030590200
2020-05-27T22:45:00	0.2170	10.851	191.0	0.524331333	0.631812815	0.009500598	0.098015919	0.030209458
2020-05-27T22:50:00	0.2169	10.842	191.0	0.524141268	0.631546206	0.009494294	0.097950881	0.030189413
2020-05-27T22:55:00	0.2165	10.832	194.0	0.522927944	0.629844934	0.009454100	0.097536205	0.030061606
2020-05-27T23:00:00	0.2162	10.823	193.0	0.521714192	0.628144256	0.009413977	0.097122266	0.029934026
2020-05-27T23:05:00	0.2157	10.815	192.0	0.520158619	0.625966377	0.009362680	0.096593044	0.029770914
2020-05-27T23:10:00	0.2156	10.806	192.0	0.519626879	0.625222364	0.009345177	0.096412473	0.029715260
2020-05-27T23:15:00	0.2152	10.797	192.0	0.518411960	0.623523304	0.009305249	0.096000540	0.029588299
2020-05-27T23:20:00	0.2150	10.788	192.0	0.517538297	0.622302229	0.009276589	0.095704861	0.029497168
2020-05-27T23:25:00	0.2141	10.778	192.0	0.514613262	0.618218550	0.009180958	0.094718249	0.029193084
2020-05-27T23:30:00	0.2138	10.769	191.0	0.513396566	0.616521945	0.009141325	0.094309366	0.029067062
2020-05-27T23:35:00	0.2131	10.761	192.0	0.511152673	0.613396116	0.009068457	0.093557604	0.028835362
2020-05-27T23:40:00	0.2124	10.752	192.0	0.508907310	0.610272310	0.008995834	0.092808361	0.028604438
2020-05-27T23:45:00	0.2117	10.744	191.0	0.506317699	0.606674630	0.008912439	0.091947986	0.028339262
2020-05-27T23:50:00	0.2111	10.736	191.0	0.504412157	0.604030762	0.008851320	0.091317441	0.028144922
2020-05-27T23:55:00	0.2110	10.728	191.0	0.503877967	0.603290119	0.008834225	0.091141066	0.028090562
2020-05-28T00:00:00	0.2103	10.720	191.0	0.501627819	0.600172858	0.008762393	0.090399995	0.027862156
2020-05-28T00:05:00	0.2096	10.713	191.0	0.499032682	0.596582722	0.008679912	0.089549048	0.027599886
2020-05-28T00:10:00	0.2094	10.706	192.0	0.498497649	0.595843226	0.008662955	0.089374110	0.027545969
2020-05-28T00:15:00	0.2092	10.700	191.0	0.497618885	0.594629141	0.008635140	0.089087151	0.027457525
2020-05-28T00:20:00	0.2089	10.694	192.0	0.496739894	0.593415363	0.008607363	0.088800578	0.027369200
2020-05-28T00:25:00	0.2089	10.687	192.0	0.496892047	0.593625423	0.008612168	0.088850151	0.027384479
2020-05-28T00:30:00	0.2089	10.681	193.0	0.496700453	0.593360914	0.008606118	0.088787730	0.027365241
2020-05-28T00:35:00	0.2081	10.675	191.0	0.494101561	0.589775875	0.008524256	0.087943173	0.027104940
2020-05-28T00:40:00	0.2081	10.668	191.0	0.493909810	0.589511579	0.008518231	0.087881019	0.027085784
2020-05-28T00:45:00	0.2079	10.662	191.0	0.493373972	0.588773174	0.008501407	0.087707450	0.027032288
2020-05-28T00:50:00	0.2070	10.655	192.0	0.490083754	0.584244177	0.008398465	0.086645413	0.026704958
2020-05-28T00:55:00	0.2077	10.648	190.0	0.492646227	0.587770684	0.008478584	0.087471990	0.026959717
2020-05-28T01:00:00	0.2075	10.641	191.0	0.491765952	0.586558645	0.008451019	0.087187600	0.026872065
2020-05-28T01:05:00	0.2078	10.635	192.0	0.492950893	0.588190318	0.008488135	0.087570525	0.026990086
2020-05-28T01:10:00	0.2077	10.629	190.0	0.492759077	0.587926110	0.008482121	0.087508482	0.026970964
2020-05-28T01:15:00	0.2081	10.623	190.0	0.493943672	0.589558250	0.008519295	0.087891994	0.027089166
2020-05-28T01:20:00	0.2091	10.618	192.0	0.497534418	0.594512475	0.008632469	0.089059592	0.027449031
2020-05-28T01:25:00	0.2107	10.612	191.0	0.502837514	0.601848212	0.008800974	0.090798025	0.027984833
2020-05-28T01:30:00	0.2106	10.607	191.0	0.502646253	0.601583250	0.008794868	0.090735036	0.027965419
2020-05-28T01:35:00	0.2118	10.602	191.0	0.506570638	0.607025793	0.008920567	0.092031846	0.028365109
2020-05-28T01:40:00	0.2122	10.597	191.0	0.508093077	0.609140534	0.008969571	0.092537408	0.028520928
2020-05-28T01:45:00	0.2127	10.592	191.0	0.509614839	0.611256203	0.009018687	0.093044128	0.028677104
2020-05-28T01:50:00	0.2122	10.587	191.0	0.508053767	0.609085907	0.008968304	0.092524337	0.028516899
2020-05-28T01:55:00	0.2127	10.583	190.0	0.509917993	0.611677894	0.009028487	0.093145238	0.028708267
2020-05-28T02:00:00	0.2120	10.578	190.0	0.507329147	0.608079166	0.008944965	0.092283554	0.028442688
2020-05-28T02:05:00	0.2125	10.575	190.0	0.509193768	0.610670612	0.009005083	0.092903780	0.028633847
2020-05-28T02:10:00	0.2125	10.571	191.0	0.509002863	0.610405164	0.008998919	0.092840184	0.028614246
2020-05-28T02:15:00	0.2141	10.568	190.0	0.514630187	0.618242160	0.009181510	0.094723943	0.029194839
2020-05-28T02:20:00	0.2173	10.564	191.0	0.525365477	0.633263953	0.009534936	0.098370173	0.030318643
2020-05-28T02:25:00	0.2227	10.563	188.0	0.543874799	0.659383973	0.010160061	0.104819477	0.032306381
2020-05-28T02:30:00	0.2317	10.567	177.0	0.574406781	0.703083818	0.011235148	0.115910947	0.035724880
2020-05-28T02:35:00	0.2368	10.567	172.0	0.591320353	0.727623631	0.011854429	0.122299963	0.037694036
2020-05-28T02:40:00	0.2405	10.563	174.0	0.603822700	0.745916439	0.012323151	0.127135679	0.039184451
2020-05-28T02:45:00	0.2451	10.554	169.0	0.618937283	0.768206239	0.012902313	0.133110783	0.041026036
2020-05-28T02:50:00	0.2476	10.543	165.0	0.627371764	0.780728353	0.013231484	0.136506786	0.042072717
2020-05-28T02:55:00	0.2508	10.536	165.0	0.637767882	0.796245540	0.013643132	0.140753679	0.043381651
2020-05-28T03:00:00	0.2504	10.531	170.0	0.636593195	0.794487619	0.013596291	0.140270423	0.043232707
2020-05-28T03:05:00	0.2508	10.523	169.0	0.637730001	0.796188832	0.013641620	0.140738081	0.043376843
2020-05-28T03:10:00	0.2512	10.515	169.0	0.639196490	0.798385030	0.013700212	0.141342560	0.043563150
2020-05-28T03:15:00	0.2506	10.505	168.0	0.637361939	0.795637913	0.013626935	0.140586580	0.043330149
2020-05-28T03:20:00	0.2502	10.494	167.0	0.635856799	0.793386199	0.013566969	0.139967917	0.043139471
2020-05-28T03:25:00	0.2524	10.484	161.0	0.643262727	0.804484138	0.013863356	0.143025691	0.044081907
2020-05-28T03:30:00	0.2500	10.473	160.0	0.635158161	0.792341678	0.013539181	0.139681236	0.043051113
2020-05-28T03:35:00	0.2474	10.464	160.0	0.626704064	0.779734875	0.013205270	0.136236333	0.041989361
2020-05-28T03:40:00	0.2449	10.454	161.0	0.618229915	0.767158782	0.012874901	0.132827985	0.040938875
2020-05-28T03:45:00	0.2438	10.446	166.0	0.614723480	0.761972749	0.012739468	0.131430740	0.040508231
2020-05-28T03:50:00	0.2441	10.440	167.0	0.615535063	0.763172163	0.012770749	0.131753461	0.040607696
2020-05-28T03:55:00	0.2441	10.434	163.0	0.615682111	0.763389540	0.012776421	0.131811977	0.040625731
2020-05-28T04:00:00	0.2442	10.429	167.0	0.616161329	0.764098083	0.012794914	0.132002771	0.040684536
2020-05-28T04:05:00	0.2442	10.423	169.0	0.616158357	0.764093688	0.012794799	0.132001587	0.040684171
2020-05-28T04:10:00	0.2430	10.416	169.0	0.612167212	0.758198536	0.012641200	0.130416927	0.040195764
2020-05-28T04:15:00	0.2421	10.410	170.0	0.609170164	0.753780525	0.012526487	0.129233461	0.039831008
2020-05-28T04:20:00	0.2429	10.404	170.0	0.611828711	0.757699166	0.012628217	0.130282982	0.040154480
2020-05-28T04:25:00	0.2433	10.399	171.0	0.613155751	0.759657417	0.012679155	0.130808500	0.040316450
2020-05-28T04:30:00	0.2447	10.394	170.0	0.617803922	0.766528185	0.012858408	0.132657828	0.040886431
2020-05-28T04:35:00	0.2458	10.389	170.0	0.621451168	0.771932159	0.012999973	0.134118324	0.041336570
2020-05-28T04:40:00	0.2459	10.385	169.0	0.621779854	0.772419709	0.013012770	0.134250349	0.041377261
2020-05-28T04:45:00	0.2476	10.382	170.0	0.627410280	0.780785673	0.013232998	0.136522396	0.042077528
2020-05-28T04:50:00	0.2486	10.379	170.0	0.630716936	0.785711352	0.013363227	0.137865945	0.042491623
2020-05-28T04:55:00	0.2492	10.378	171.0	0.632698280	0.788667246	0.013441577	0.138674269	0.042740757
2020-05-28T05:00:00	0.2496	10.378	172.0	0.634017582	0.790637307	0.013493879	0.139213862	0.042907064
2020-05-28T05:05:00	0.2503	10.381	173.0	0.636327408	0.794090031	0.013585704	0.140161201	0.043199043
2020-05-28T05:10:00	0.2512	10.382	175.0	0.639295844	0.798533888	0.013704186	0.141383562	0.043575787
2020-05-28T05:15:00	0.2513	10.383	175.0	0.639622894	0.799023952	0.013717273	0.141518574	0.043617399
2020-05-28T05:20:00	0.2522	10.382	175.0	0.642588608	0.803472029	0.013836240	0.142745937	0.043995684
2020-05-28T05:25:00	0.2516	10.383	175.0	0.640606818	0.800498845	0.013756683	0.141925160	0.043742713
2020-05-28T05:30:00	0.2509	10.393	174.0	0.638293839	0.797033014	0.013664132	0.140970333	0.043448426
2020-05-28T05:35:00	0.2510	10.392	174.0	0.638620980	0.797522936	0.013677203	0.141105177	0.043489986
2020-05-28T05:40:00	0.2510	10.391	174.0	0.638618027	0.797518512	0.013677084	0.141103959	0.043489611
2020-05-28T05:45:00	0.2507	10.394	174.0	0.637624695	0.796031197	0.013637418	0.140694726	0.043363481
2020-05-28T05:50:00	0.2518	10.394	174.0	0.641251795	0.801466108	0.013782549	0.142192013	0.043824959
2020-05-28T05:55:00	0.2515	10.389	175.0	0.640259192	0.799977664	0.013742752	0.141781442	0.043698417
2020-05-28T06:00:00	0.2520	10.389	175.0	0.641905510	0.802446833	0.013808791	0.142462747	0.043908402
2020-05-28T06:05:00	0.2522	10.393	174.0	0.642562055	0.803432172	0.013835172	0.142734924	0.043992290
2020-05-28T06:10:00	0.2522	10.395	174.0	0.642559105	0.803427744	0.013835054	0.142733700	0.043991913
2020-05-28T06:15:00	0.2524	10.400	175.0	0.643215532	0.804413268	0.013861457	0.143006097	0.044075868
2020-05-28T06:20:00	0.2527	10.407	175.0	0.644201421	0.805894119	0.013901161	0.143415718	0.044202117
2020-05-28T06:25:00	0.2530	10.409	174.0	0.645187040	0.807375391	0.013940914	0.143825837	0.044328520
2020-05-28T06:30:00	0.2531	10.416	175.0	0.645513554	0.807866287	0.013954096	0.143961835	0.044370436
2020-05-28T06:35:00	0.2536	10.423	175.0	0.647157469	0.810339197	0.014020563	0.144647568	0.044581785
2020-05-28T06:40:00	0.2533	10.440	176.0	0.646166495	0.808848217	0.013980476	0.144233996	0.044454318
2020-05-28T06:45:00	0.2531	10.448	177.0	0.645504711	0.807852990	0.013953739	0.143958151	0.044369300
2020-05-28T06:50:00	0.2531	10.459	177.0	0.645501763	0.807848558	0.013953620	0.143956923	0.044368922
2020-05-28T06:55:00	0.2528	10.476	178.0	0.644510333	0.806358289	0.013913614	0.143544191	0.044241714
2020-05-28T07:00:00	0.2529	10.480	177.0	0.644836909	0.806849090	0.013926785	0.143680076	0.044283595
2020-05-28T07:05:00	0.2530	10.480	177.0	0.645163455	0.807339936	0.013939962	0.143816016	0.044325493
2020-05-28T07:10:00	0.2525	10.513	178.0	0.643512730	0.804859587	0.013873420	0.143129514	0.044113906
2020-05-28T07:15:00	0.2529	10.507	177.0	0.644828064	0.806835795	0.013926428	0.143676395	0.044282460
2020-05-28T07:20:00	0.2521	10.499	178.0	0.642188064	0.802870844	0.013820141	0.142579850	0.043944494
2020-05-28T07:25:00	0.2524	10.506	177.0	0.643174235	0.804351257	0.013859795	0.142988952	0.044070584
2020-05-28T07:30:00	0.2524	10.533	177.0	0.643171286	0.804346828	0.013859676	0.142987727	0.044070206
2020-05-28T07:35:00	0.2510	10.556	177.0	0.638550096	0.797416773	0.013674370	0.141075954	0.043480979
2020-05-28T07:40:00	0.2515	10.565	178.0	0.640197197	0.799884727	0.013740269	0.141755819	0.043690520
2020-05-28T07:45:00	0.2514	10.582	177.0	0.639864294	0.799385732	0.013726936	0.141618271	0.043648127
2020-05-28T07:50:00	0.2511	10.599	179.0	0.638871307	0.797897883	0.013687208	0.141208405	0.043521802
2020-05-28T07:55:00	0.2509	10.613	180.0	0.638208179	0.796904746	0.013660711	0.140935035	0.043437547
2020-05-28T08:00:00	0.2503	10.603	180.0	0.636223969	0.793935313	0.013581585	0.140118705	0.043185946
2020-05-28T08:05:00	0.2515	10.611	180.0	0.640182436	0.799862599	0.013739677	0.141749719	0.043688640
2020-05-28T08:10:00	0.2519	10.617	179.0	0.641498988	0.801836912	0.013792469	0.142294356	0.043856502
2020-05-28T08:15:00	0.2534	10.624	179.0	0.646439873	0.809259448	0.013991529	0.144348026	0.044489463
2020-05-28T08:20:00	0.2549	10.623	179.0	0.651373986	0.816692551	0.014191801	0.146414194	0.045126276
2020-05-28T08:25:00	0.2555	10.619	178.0	0.653343977	0.819666085	0.014272176	0.147243412	0.045381850
2020-05-28T08:30:00	0.2585	10.630	179.0	0.663189584	0.834576888	0.014677434	0.151424378	0.046670464
2020-05-28T08:35:00	0.2592	10.652	178.0	0.665480796	0.838058743	0.014772595	0.152406138	0.046973052
2020-05-28T08:40:00	0.2594	10.641	184.0	0.666133069	0.839050796	0.014799745	0.152686238	0.047059381
2020-05-28T08:45:00	0.2606	10.653	178.0	0.670058883	0.845029347	0.014963703	0.154377765	0.047580727
2020-05-28T08:50:00	0.2608	10.647	178.0	0.670710333	0.846022709	0.014991002	0.154659404	0.047667530
2020-05-28T08:55:00	0.2609	10.639	178.0	0.671034551	0.846517228	0.015004598	0.154799671	0.047710762
2020-05-28T09:00:00	0.2614	10.646	178.0	0.672666909	0.849008380	0.015073149	0.155506900	0.047928737
2020-05-28T09:05:00	0.2614	10.649	179.0	0.672663984	0.849003913	0.015073026	0.155505631	0.047928346
2020-05-28T09:10:00	0.2622	10.650	179.0	0.675275991	0.852994873	0.015183059	0.156640817	0.048278221
2020-05-28T09:15:00	0.2642	10.651	180.0	0.681802200	0.862992126	0.015459819	0.159496103	0.049158248
2020-05-28T09:20:00	0.2643	10.652	179.0	0.682125432	0.863488227	0.015473595	0.159638226	0.049202052
2020-05-28T09:25:00	0.2640	10.659	179.0	0.681143975	0.861982151	0.015431786	0.159206892	0.049069110
2020-05-28T09:30:00	0.2637	10.669	179.0	0.680162254	0.860476502	0.015390026	0.158776057	0.048936323
2020-05-28T09:35:00	0.2626	10.684	179.0	0.676568139	0.854971354	0.015237647	0.157203992	0.048451797
2020-05-28T09:40:00	0.2631	10.715	180.0	0.678198018	0.857466480	0.015306649	0.157915881	0.048671208
2020-05-28T09:45:00	0.2620	10.769	181.0	0.674601964	0.851964447	0.015154625	0.156347468	0.048187808
2020-05-28T09:50:00	0.2604	10.818	180.0	0.669366317	0.843973691	0.014934710	0.154078647	0.047488536
2020-05-28T09:55:00	0.2605	10.883	180.0	0.669690655	0.844468018	0.014948284	0.154218691	0.047531698
2020-05-28T10:00:00	0.2603	10.911	181.0	0.669033165	0.843466023	0.014920773	0.153934868	0.047444221
2020-05-28T10:05:00	0.2603	10.925	181.0	0.669076576	0.843532169	0.014922589	0.153953599	0.047449994
2020-05-28T10:10:00	0.2604	10.934	181.0	0.669447275	0.844097071	0.014938097	0.154113597	0.047499307
2020-05-28T10:15:00	0.2611	10.938	182.0	0.671780846	0.847655869	0.015035918	0.155122798	0.047810353
2020-05-28T10:20:00	0.2612	10.923	181.0	0.672151269	0.848221211	0.015051477	0.155283313	0.047859825
2020-05-28T10:25:00	0.2625	10.914	182.0	0.676443499	0.854780641	0.015232377	0.157149622	0.048435040
2020-05-28T10:30:00	0.2616	10.906	182.0	0.673218951	0.849851373	0.015096369	0.155746459	0.048002571
2020-05-28T10:35:00	0.2635	10.897	182.0	0.679468689	0.859413293	0.015360559	0.158472051	0.048842625
2020-05-28T10:40:00	0.2640	10.894	183.0	0.681143458	0.861981358	0.015431764	0.159206665	0.049069040
2020-05-28T10:45:00	0.2637	10.889	183.0	0.680207935	0.860546544	0.015391967	0.158796090	0.048942497
2020-05-28T10:50:00	0.2636	10.884	184.0	0.679924895	0.860112594	0.015379938	0.158671982	0.048904246
2020-05-28T10:55:00	0.2639	10.888	183.0	0.680947031	0.861680035	0.015423404	0.159120413	0.049042457
2020-05-28T11:00:00	0.2648	10.888	184.0	0.683925254	0.866252267	0.015550420	0.160430815	0.049446335
2020-05-28T11:05:00	0.2659	10.893	184.0	0.687226745	0.871329735	0.015691864	0.161890072	0.049896092
2020-05-28T11:10:00	0.2702	10.887	184.0	0.701247335	0.892997536	0.016300079	0.168164914	0.051830060
2020-05-28T11:15:00	0.2759	10.873	184.0	0.719736841	0.921832946	0.017120904	0.176633209	0.054440071
2020-05-28T11:20:00	0.2768	10.850	183.0	0.722683826	0.926456503	0.017253713	0.178003375	0.054862369
2020-05-28T11:25:00	0.2768	10.836	182.0	0.722726607	0.926523679	0.017255645	0.178023307	0.054868512
2020-05-28T11:30:00	0.2739	10.834	183.0	0.713403555	0.911922272	0.016837333	0.173707664	0.053538389
2020-05-28T11:35:00	0.2764	10.841	183.0	0.721521751	0.924632404	0.017201278	0.177462409	0.054695638
2020-05-28T11:40:00	0.2766	10.858	184.0	0.722209803	0.925712290	0.017232314	0.177782603	0.054794325
2020-05-28T11:45:00	0.2756	10.880	183.0	0.718702326	0.920211685	0.017074412	0.176153559	0.054292238
2020-05-28T11:50:00	0.2763	10.896	185.0	0.721004779	0.923821297	0.017177978	0.177222032	0.054621551
2020-05-28T11:55:00	0.2753	10.909	184.0	0.717819158	0.918828351	0.017034775	0.175744629	0.054166202
2020-05-28T12:00:00	0.2742	10.923	184.0	0.714307515	0.913334696	0.016877654	0.174123644	0.053666598
2020-05-28T12:05:00	0.2744	10.939	183.0	0.714996909	0.914412342	0.016908438	0.174441241	0.053764485
2020-05-28T12:10:00	0.2739	10.959	185.0	0.713423296	0.911953110	0.016838213	0.173716743	0.053541187
2020-05-28T12:15:00	0.2743	10.979	185.0	0.714759412	0.914041045	0.016897830	0.174331794	0.053730752
2020-05-28T12:20:00	0.2732	11.002	186.0	0.710921288	0.908047435	0.016726877	0.172568104	0.053187166
2020-05-28T12:25:00	0.2723	11.017	187.0	0.708050811	0.903573295	0.016599626	0.171255285	0.052782542
2020-05-28T12:30:00	0.2728	11.025	185.0	0.709712579	0.906162577	0.016673231	0.172014650	0.053016586
2020-05-28T12:35:00	0.2714	11.031	187.0	0.705221081	0.899169691	0.016474686	0.169966303	0.052385265
2020-05-28T12:40:00	0.2698	11.051	186.0	0.700075072	0.891179360	0.016248758	0.167635441	0.051666871
2020-05-28T12:45:00	0.2695	11.079	187.0	0.699144376	0.889736702	0.016208073	0.167215705	0.051537504
2020-05-28T12:50:00	0.2685	11.111	187.0	0.695939802	0.884775090	0.016068400	0.165774725	0.051093380
2020-05-28T12:55:00	0.2690	11.147	189.0	0.697607049	0.887355361	0.016140988	0.166523602	0.051324191
2020-05-28T13:00:00	0.2684	11.179	189.0	0.695376130	0.883903285	0.016043899	0.165521944	0.051015471
2020-05-28T13:05:00	0.2680	11.199	188.0	0.694119188	0.881960219	0.015989333	0.164958998	0.050841965
2020-05-28T13:10:00	0.2674	11.190	189.0	0.692211398	0.879013644	0.015906700	0.164106491	0.050579214
2020-05-28T13:15:00	0.2658	11.212	189.0	0.687047098	0.871053208	0.015684150	0.161810489	0.049871564
2020-05-28T13:20:00	0.2655	11.255	189.0	0.686113087	0.869615952	0.015644077	0.161397057	0.049744140
2020-05-28T13:25:00	0.2656	11.265	188.0	0.686482056	0.870183632	0.015659901	0.161560312	0.049794457
2020-05-28T13:30:00	0.2643	11.272	188.0	0.682288145	0.863737995	0.015480532	0.159709795	0.049224110
2020-05-28T13:35:00	0.2643	11.303	188.0	0.682005267	0.863303785	0.015468473	0.159585383	0.049185765
2020-05-28T13:40:00	0.2633	11.313	187.0	0.678785640	0.858366611	0.015331567	0.158172954	0.048750441
2020-05-28T13:45:00	0.2621	11.346	189.0	0.674909661	0.852434793	0.015167601	0.156481347	0.048229071
2020-05-28T13:50:00	0.2617	11.367	187.0	0.673645654	0.850503148	0.015114330	0.155931759	0.048059683
2020-05-28T13:55:00	0.2610	11.374	188.0	0.671400049	0.847074817	0.015019933	0.154957878	0.047759523
2020-05-28T14:00:00	0.2615	11.406	186.0	0.673078532	0.849636922	0.015090461	0.155685506	0.047983785
2020-05-28T14:05:00	0.2600	11.405	187.0	0.668214443	0.842218837	0.014886554	0.153581829	0.047335411
2020-05-28T14:10:00	0.2601	11.380	187.0	0.668585230	0.842783598	0.014902046	0.153741662	0.047384673
2020-05-28T14:15:00	0.2606	11.361	189.0	0.669937800	0.844844755	0.014958632	0.154325448	0.047564602
2020-05-28T14:20:00	0.2607	11.339	189.0	0.670308411	0.845409797	0.014974156	0.154485611	0.047613966
2020-05-28T14:25:00	0.2602	11.326	187.0	0.668715479	0.842982013	0.014907490	0.153797829	0.047401984
2020-05-28T14:30:00	0.2592	11.316	187.0	0.665484062	0.838063709	0.014772731	0.152407540	0.046973484
2020-05-28T14:35:00	0.2589	11.311	189.0	0.664544501	0.836635353	0.014733669	0.152004544	0.046849277
2020-05-28T14:40:00	0.2592	11.310	189.0	0.665570969	0.838195867	0.014776347	0.152444844	0.046984982
2020-05-28T14:45:00	0.2590	11.313	189.0	0.664959124	0.837265585	0.014750900	0.152182315	0.046904067
2020-05-28T14:50:00	0.2581	11.310	189.0	0.661724355	0.832352602	0.014616747	0.150798284	0.046477496
2020-05-28T14:55:00	0.2591	11.304	190.0	0.665046043	0.837397723	0.014754513	0.152219596	0.046915558
2020-05-28T15:00:00	0.2588	11.296	187.0	0.664106369	0.835969546	0.014715472	0.151816811	0.046791416
2020-05-28T15:05:00	0.2592	11.284	189.0	0.665460609	0.838028046	0.014771755	0.152397474	0.046970381
2020-05-28T15:10:00	0.2588	11.274	188.0	0.664193309	0.836101652	0.014719082	0.151854054	0.046802894
2020-05-28T15:15:00	0.2611	11.260	189.0	0.671767065	0.847634840	0.015035340	0.155116828	0.047808513
2020-05-28T15:20:00	0.2628	11.245	189.0	0.677366230	0.856192837	0.015271414	0.157552366	0.048559169
2020-05-28T15:25:00	0.2639	11.229	189.0	0.680999908	0.861761146	0.015425654	0.159143629	0.049049612
2020-05-28T15:30:00	0.2631	11.212	189.0	0.678105902	0.857325402	0.015302745	0.157875602	0.048658794
2020-05-28T15:35:00	0.2623	11.201	191.0	0.675536337	0.853392985	0.015194049	0.156754202	0.048313167
2020-05-28T15:40:00	0.2613	11.188	189.0	0.672310984	0.848465005	0.015058188	0.155352549	0.047881164
2020-05-28T15:45:00	0.2645	11.175	189.0	0.682803719	0.864529564	0.015502524	0.159936681	0.049294038
2020-05-28T15:50:00	0.2648	11.161	190.0	0.683825049	0.866098306	0.015546137	0.160386633	0.049432718
2020-05-28T15:55:00	0.2638	11.149	190.0	0.680607028	0.861158542	0.015408938	0.158971173	0.048996459
2020-05-28T16:00:00	0.2608	11.136	190.0	0.670849102	0.846234357	0.014996820	0.154719432	0.047686031
2020-05-28T16:05:00	0.2606	11.121	189.0	0.669916785	0.844812719	0.014957752	0.154316369	0.047561804
2020-05-28T16:10:00	0.2613	11.108	190.0	0.672255907	0.848380931	0.015055874	0.155328672	0.047873805
2020-05-28T16:15:00	0.2598	11.097	189.0	0.667396575	0.840973525	0.014852411	0.153229583	0.047226845
2020-05-28T16:20:00	0.2597	11.084	189.0	0.667118398	0.840550093	0.014840807	0.153109871	0.047189949
2020-05-28T16:25:00	0.2595	11.072	188.0	0.666512675	0.839628315	0.014815557	0.152849374	0.047109661
2020-05-28T16:30:00	0.2597	11.062	189.0	0.667216986	0.840700153	0.014844919	0.153152292	0.047203024
2020-05-28T16:35:00	0.2594	11.052	190.0	0.666283736	0.839280001	0.014806020	0.152750976	0.047079334
2020-05-28T16:40:00	0.2602	11.041	191.0	0.668625199	0.842844483	0.014903717	0.153758897	0.047389985
2020-05-28T16:45:00	0.2601	11.030	188.0	0.668347115	0.842420901	0.014892096	0.153639009	0.047353035
2020-05-28T16:50:00	0.2596	11.022	188.0	0.666759183	0.840003408	0.014825830	0.152955359	0.047142327
2020-05-28T16:55:00	0.2584	11.011	189.0	0.662876213	0.834101022	0.014664443	0.151290360	0.046629158
2020-05-28T17:00:00	0.2574	11.000	189.0	0.659645456	0.829199889	0.014530869	0.149912299	0.046204426
2020-05-28T17:05:00	0.2568	10.990	189.0	0.657725385	0.826291328	0.014451788	0.149096429	0.045952968
2020-05-28T17:10:00	0.2571	10.980	188.0	0.658759662	0.827857679	0.014494358	0.149535621	0.046088331
2020-05-28T17:15:00	0.2562	10.971	189.0	0.655525224	0.822962356	0.014361448	0.148164407	0.045665709
2020-05-28T17:20:00	0.2567	10.960	189.0	0.657216951	0.825521670	0.014430885	0.148880777	0.045886501
2020-05-28T17:25:00	0.2570	10.948	189.0	0.658251373	0.827087791	0.014473429	0.149319699	0.046021781
2020-05-28T17:30:00	0.2579	10.934	189.0	0.661254118	0.831639149	0.014597299	0.150597639	0.046415655
2020-05-28T17:35:00	0.2572	10.922	189.0	0.659006698	0.828231936	0.014504536	0.149640622	0.046120693
2020-05-28T17:40:00	0.2562	10.910	188.0	0.655772481	0.823336265	0.014371585	0.148268997	0.045697945
2020-05-28T17:45:00	0.2557	10.898	190.0	0.653850351	0.820430948	0.014292875	0.147456952	0.045447665
2020-05-28T17:50:00	0.2549	10.887	189.0	0.651269414	0.816534800	0.014187541	0.146370245	0.045112731
2020-05-28T17:55:00	0.2545	10.877	189.0	0.650003017	0.814625142	0.014136005	0.145838561	0.044948861
2020-05-28T18:00:00	0.2539	10.868	189.0	0.648077809	0.811724652	0.014057847	0.145032216	0.044700337
2020-05-28T18:05:00	0.2531	10.857	188.0	0.645492733	0.807834980	0.013953255	0.143953161	0.044367762
2020-05-28T18:10:00	0.2537	10.847	189.0	0.647518450	0.810882523	0.014035181	0.144798374	0.044628265
2020-05-28T18:15:00	0.2536	10.837	189.0	0.647238738	0.810461509	0.014023854	0.144681513	0.044592247
2020-05-28T18:20:00	0.2532	10.828	189.0	0.645641503	0.808058675	0.013959263	0.144015146	0.044386867
2020-05-28T18:25:00	0.2530	10.821	189.0	0.645032168	0.807142582	0.013934663	0.143761354	0.044308646
2020-05-28T18:30:00	0.2526	10.813	189.0	0.643763576	0.805236353	0.013883521	0.143233725	0.044146025
2020-05-28T18:35:00	0.2521	10.805	189.0	0.642164796	0.802835924	0.013819206	0.142570204	0.043941522
2020-05-28T18:40:00	0.2527	10.798	189.0	0.644192387	0.805880547	0.013900797	0.143411962	0.044200959
2020-05-28T18:45:00	0.2526	10.791	188.0	0.643912417	0.805459936	0.013889516	0.143295578	0.044165089
2020-05-28T18:50:00	0.2511	10.784	188.0	0.639014781	0.798112807	0.013692945	0.141267587	0.043540042
2020-05-28T18:55:00	0.2523	10.777	190.0	0.642693059	0.803628825	0.013840440	0.142789265	0.044009038
2020-05-28T19:00:00	0.2518	10.770	189.0	0.641093803	0.801229136	0.013776210	0.142126621	0.043804805
2020-05-28T19:05:00	0.2519	10.763	189.0	0.641473287	0.801798357	0.013791437	0.142283713	0.043853222
2020-05-28T19:10:00	0.2514	10.756	190.0	0.639873488	0.799399512	0.013727304	0.141622069	0.043649297
2020-05-28T19:15:00	0.2518	10.749	190.0	0.641242755	0.801452547	0.013782186	0.142188271	0.043823806
2020-05-28T19:20:00	0.2519	10.742	190.0	0.641622223	0.802021792	0.013797415	0.142345392	0.043872232
2020-05-28T19:25:00	0.2529	10.736	190.0	0.644638839	0.806551407	0.013918796	0.143597654	0.044258191
2020-05-28T19:30:00	0.2529	10.729	189.0	0.644688442	0.806625952	0.013920797	0.143618292	0.044264553
2020-05-28T19:35:00	0.2532	10.721	190.0	0.645726463	0.808186432	0.013962695	0.144050551	0.044397779
2020-05-28T19:40:00	0.2539	10.713	190.0	0.648081277	0.811729874	0.014057988	0.145033666	0.044700784
2020-05-28T19:45:00	0.2535	10.705	190.0	0.646813758	0.809821969	0.014006653	0.144504055	0.044537553
2020-05-28T19:50:00	0.2538	10.695	190.0	0.647851167	0.811383405	0.014048661	0.144937444	0.044671128
2020-05-28T19:55:00	0.2542	10.685	190.0	0.649217401	0.813441164	0.014104084	0.145509236	0.044847360
2020-05-28T20:00:00	0.2539	10.674	189.0	0.647950283	0.811532635	0.014052678	0.144978886	0.044683901
2020-05-28T20:05:00	0.2547	10.662	190.0	0.650632638	0.815574406	0.014161615	0.146102775	0.045030294
2020-05-28T20:10:00	0.2545	10.650	189.0	0.650024147	0.814656995	0.014136864	0.145847424	0.044951593
2020-05-28T20:15:00	0.2551	10.637	189.0	0.652047319	0.817708517	0.014219246	0.146697341	0.045213545
2020-05-28T20:20:00	0.2549	10.623	188.0	0.651439068	0.816790733	0.014194452	0.146441549	0.045134708
2020-05-28T20:25:00	0.2549	10.609	189.0	0.651488576	0.816865424	0.014196470	0.146462360	0.045141122
2020-05-28T20:30:00	0.2550	10.594	189.0	0.651866966	0.817436352	0.014211892	0.146621472	0.045190162
2020-05-28T20:35:00	0.2547	10.577	189.0	0.650600779	0.815526365	0.014160319	0.146089400	0.045026172
2020-05-28T20:40:00	0.2553	10.561	189.0	0.652623628	0.818578395	0.014242759	0.146939915	0.045288309
2020-05-28T20:45:00	0.2547	10.543	189.0	0.650699819	0.815675713	0.014164349	0.146130981	0.045038988
2020-05-28T20:50:00	0.2548	10.524	189.0	0.651078292	0.816246512	0.014179757	0.146289940	0.045087980
2020-05-28T20:55:00	0.2538	10.505	190.0	0.647836960	0.811362015	0.014048085	0.144931504	0.044669297
2020-05-28T21:00:00	0.2537	10.487	190.0	0.647557273	0.810940962	0.014036753	0.144814597	0.044633265
2020-05-28T21:05:00	0.2538	10.469	189.0	0.647606835	0.811015570	0.014038761	0.144835310	0.044639649
2020-05-28T21:10:00	0.2539	10.450	190.0	0.647985633	0.811585860	0.014054111	0.144993667	0.044688456
2020-05-28T21:15:00	0.2533	10.432	189.0	0.646059346	0.808687056	0.013976145	0.144189315	0.044440547
2020-05-28T21:20:00	0.2532	10.414	189.0	0.645779521	0.808266219	0.013964838	0.144072664	0.044404594
2020-05-28T21:25:00	0.2527	10.397	189.0	0.644181637	0.805864395	0.013900364	0.143407492	0.044199582
2020-05-28T21:30:00	0.2522	10.381	188.0	0.642583043	0.803463676	0.013836016	0.142743629	0.043994973
2020-05-28T21:35:00	0.2521	10.366	189.0	0.642302947	0.803043261	0.013824758	0.142627476	0.043959173
2020-05-28T21:40:00	0.2521	10.352	188.0	0.642022830	0.802622879	0.013813503	0.142511363	0.043923386
2020-05-28T21:45:00	0.2524	10.336	188.0	0.643061621	0.804182161	0.013855264	0.142942204	0.044056176
2020-05-28T21:50:00	0.2526	10.321	189.0	0.643770519	0.805246784	0.013883800	0.143236610	0.044146914
2020-05-28T21:55:00	0.2519	10.306	189.0	0.641512175	0.801856695	0.013792998	0.142299817	0.043858185
2020-05-28T22:00:00	0.2528	10.292	190.0	0.644528883	0.806386166	0.013914362	0.143551908	0.044244092
2020-05-28T22:05:00	0.2527	10.277	190.0	0.644202279	0.805895409	0.013901196	0.143416075	0.044202227
2020-05-28T22:10:00	0.2528	10.261	191.0	0.644534781	0.806395028	0.013914600	0.143554361	0.044244848
2020-05-28T22:15:00	0.2527	10.245	189.0	0.644208177	0.805904270	0.013901434	0.143418527	0.044202983
2020-05-28T22:20:00	0.2527	10.228	189.0	0.644211126	0.805908701	0.013901552	0.143419753	0.044203361
2020-05-28T22:25:00	0.2530	10.210	189.0	0.645202639	0.807398841	0.013941543	0.143832333	0.044330522
2020-05-28T22:30:00	0.2526	10.192	189.0	0.643887442	0.805422419	0.013888510	0.143285199	0.044161890
2020-05-28T22:35:00	0.2526	10.173	188.0	0.643890392	0.805426850	0.013888629	0.143286424	0.044162268
2020-05-28T22:40:00	0.2526	10.155	190.0	0.643893341	0.805431280	0.013888748	0.143287650	0.044162645
2020-05-28T22:45:00	0.2510	10.137	189.0	0.638618886	0.797519800	0.013677119	0.141104314	0.043489720
2020-05-28T22:50:00	0.2512	10.120	189.0	0.639281939	0.798513055	0.013703630	0.141377823	0.043574018
2020-05-28T22:55:00	0.2507	10.102	189.0	0.637634418	0.796045751	0.013637806	0.140698729	0.043364715
2020-05-28T23:00:00	0.2502	10.084	189.0	0.635986140	0.793579619	0.013572117	0.140021025	0.043155840
2020-05-28T23:05:00	0.2501	10.066	189.0	0.635658758	0.793090069	0.013559089	0.139886621	0.043114415
2020-05-28T23:10:00	0.2497	10.046	194.0	0.634340061	0.791119076	0.013506679	0.139345921	0.042947766
2020-05-28T23:15:00	0.2502	10.028	189.0	0.635995007	0.793592879	0.013572470	0.140024666	0.043156962
2020-05-28T23:20:00	0.2498	10.008	190.0	0.634676433	0.791621695	0.013520038	0.139483739	0.042990243
2020-05-28T23:25:00	0.2500	9.990	189.0	0.635340215	0.792613823	0.013546419	0.139755911	0.043074129
2020-05-28T23:30:00	0.2498	9.973	188.0	0.634682346	0.791630532	0.013520273	0.139486163	0.042990990
2020-05-28T23:35:00	0.2497	9.957	188.0	0.634354846	0.791141166	0.013507266	0.139351978	0.042949633
2020-05-28T23:40:00	0.2495	9.942	190.0	0.633696796	0.790158155	0.013481152	0.139082561	0.042866596
2020-05-28T23:45:00	0.2491	9.928	189.0	0.632377376	0.788188276	0.013428871	0.138543184	0.042700355
2020-05-28T23:50:00	0.2497	9.914	189.0	0.634363717	0.791154420	0.013507619	0.139355611	0.042950753
2020-05-28T23:55:00	0.2486	9.901	189.0	0.630729638	0.785730291	0.013363728	0.137871119	0.042493218
2020-05-29T00:00:00	0.2490	9.887	189.0	0.632055582	0.787708065	0.013416136	0.138411801	0.042659861
2020-05-29T00:05:00	0.2479	9.873	189.0	0.628419158	0.782287544	0.013272661	0.136931596	0.042203648
2020-05-29T00:10:00	0.2486	9.856	190.0	0.630738518	0.785743531	0.013364079	0.137874736	0.042494333
2020-05-29T00:15:00	0.2493	9.838	189.0	0.633056375	0.789201829	0.013455763	0.138820622	0.042785864
2020-05-29T00:20:00	0.2480	9.822	188.0	0.628759049	0.782793718	0.013286037	0.137069599	0.042246182
2020-05-29T00:25:00	0.2483	9.804	189.0	0.629754842	0.784277239	0.013325267	0.137474326	0.042370922
2020-05-29T00:30:00	0.2481	9.785	188.0	0.629095946	0.783295530	0.013299303	0.137206457	0.042288363
2020-05-29T00:35:00	0.2479	9.764	189.0	0.628436929	0.782314007	0.013273360	0.136938810	0.042205871
2020-05-29T00:40:00	0.2475	9.743	188.0	0.627115568	0.780347112	0.013221423	0.136402981	0.042040723
2020-05-29T00:45:00	0.2482	9.725	188.0	0.629435773	0.783801802	0.013312691	0.137344577	0.042330933
2020-05-29T00:50:00	0.2481	9.704	188.0	0.628776819	0.782820183	0.013286737	0.137076816	0.042248406
2020-05-29T00:55:00	0.2476	9.685	188.0	0.627124457	0.780360339	0.013221772	0.136406582	0.042041833
2020-05-29T01:00:00	0.2474	9.666	188.0	0.626465076	0.779379374	0.013195893	0.136139598	0.041959546
2020-05-29T01:05:00	0.2460	9.648	187.0	0.621828196	0.772491424	0.013014653	0.134269772	0.041383248
2020-05-29T01:10:00	0.2469	9.629	187.0	0.624814610	0.776925574	0.013131233	0.135472511	0.041753944
2020-05-29T01:15:00	0.2465	9.611	188.0	0.623491908	0.774960731	0.013079532	0.134939125	0.041589549
2020-05-29T01:20:00	0.2462	9.595	188.0	0.622500301	0.773488692	0.013040843	0.134539969	0.041466525
2020-05-29T01:25:00	0.2463	9.580	187.0	0.622834822	0.773985196	0.013053888	0.134674557	0.041508006
2020-05-29T01:30:00	0.2463	9.564	188.0	0.622837789	0.773989599	0.013054004	0.134675751	0.041508374
2020-05-29T01:35:00	0.2456	9.551	189.0	0.620519228	0.770550275	0.012963724	0.133744353	0.041221308
2020-05-29T01:40:00	0.2452	9.536	188.0	0.619194931	0.768587863	0.012912304	0.133213865	0.041057807
2020-05-29T01:45:00	0.2452	9.523	187.0	0.619197901	0.768592262	0.012912420	0.133215054	0.041058173
2020-05-29T01:50:00	0.2437	9.511	186.0	0.614219224	0.761227804	0.012720052	0.131230432	0.040446494
2020-05-29T01:55:00	0.2444	9.500	187.0	0.616547832	0.764669683	0.012809840	0.132156755	0.040731995
2020-05-29T02:00:00	0.2437	9.487	188.0	0.614225172	0.761236589	0.012720281	0.131232793	0.040447221
2020-05-29T02:05:00	0.2440	9.477	187.0	0.615225030	0.762713910	0.012758794	0.131630130	0.040569684
2020-05-29T02:10:00	0.2432	9.466	188.0	0.612569025	0.758791430	0.012656620	0.130576017	0.040244797
2020-05-29T02:15:00	0.2427	9.455	187.0	0.610909129	0.756343051	0.012592981	0.129919461	0.040042440
2020-05-29T02:20:00	0.2424	9.445	186.0	0.609914010	0.754876340	0.012554908	0.129526670	0.039921377
2020-05-29T02:25:00	0.2414	9.435	188.0	0.606587977	0.749980116	0.012428086	0.128218274	0.039518117
2020-05-29T02:30:00	0.2422	9.426	186.0	0.609254413	0.753904615	0.012529705	0.129266653	0.039841238
2020-05-29T02:35:00	0.2421	9.417	186.0	0.608924569	0.753418822	0.012517111	0.129136727	0.039801193
2020-05-29T02:40:00	0.2429	9.409	186.0	0.611589251	0.757345964	0.012619036	0.130188270	0.040125289
2020-05-29T02:45:00	0.2425	9.401	187.0	0.610261625	0.755388597	0.012568201	0.129663810	0.039963645
2020-05-29T02:50:00	0.2432	9.394	186.0	0.612592826	0.758826554	0.012657534	0.130585444	0.040247702
2020-05-29T02:55:00	0.2430	9.388	186.0	0.611930750	0.757849689	0.012632130	0.130323352	0.040166923
2020-05-29T03:00:00	0.2429	9.382	186.0	0.611601154	0.757363520	0.012619492	0.130192977	0.040126740
2020-05-29T03:05:00	0.2433	9.377	187.0	0.612934229	0.759330424	0.012670644	0.130720700	0.040289389
2020-05-29T03:10:00	0.2432	9.372	185.0	0.612604726	0.758844116	0.012657991	0.130590157	0.040249155
2020-05-29T03:15:00	0.2433	9.368	186.0	0.612940178	0.759339206	0.012670873	0.130723057	0.040290116
2020-05-29T03:20:00	0.2424	9.363	185.0	0.609949738	0.754928985	0.012556274	0.129540761	0.039925721
2020-05-29T03:25:00	0.2434	9.359	185.0	0.613278574	0.759838736	0.012683874	0.130857194	0.040331458
2020-05-29T03:30:00	0.2436	9.355	186.0	0.613946346	0.760824765	0.012709552	0.131122101	0.040413105
2020-05-29T03:35:00	0.2444	9.351	187.0	0.616607267	0.764757593	0.012812136	0.132180443	0.040739296
2020-05-29T03:40:00	0.2440	9.348	185.0	0.615281515	0.762797393	0.012760972	0.131652595	0.040576608
2020-05-29T03:45:00	0.2446	9.345	186.0	0.617277386	0.765748964	0.012838037	0.132447666	0.040821657
2020-05-29T03:50:00	0.2440	9.344	185.0	0.615287460	0.762806180	0.012761201	0.131654960	0.040577337
2020-05-29T03:55:00	0.2448	9.342	185.0	0.617947379	0.766740527	0.012863961	0.132715117	0.040904088
2020-05-29T04:00:00	0.2451	9.341	186.0	0.618946193	0.768219434	0.012902658	0.133114347	0.041027134
2020-05-29T04:05:00	0.2449	9.341	186.0	0.618323386	0.767297169	0.012878522	0.132865336	0.040950387
2020-05-29T04:10:00	0.2443	9.340	186.0	0.616372154	0.764409857	0.012803054	0.132086753	0.040710420
2020-05-29T04:15:00	0.2458	9.341	185.0	0.621391814	0.771844126	0.012997663	0.134094490	0.041329224
2020-05-29T04:20:00	0.2460	9.342	186.0	0.622096114	0.772888915	0.013025089	0.134377446	0.041416434
2020-05-29T04:25:00	0.2463	9.343	186.0	0.623131802	0.774426059	0.013065475	0.134794099	0.041544851
2020-05-29T04:30:00	0.2473	9.346	187.0	0.626155130	0.778918392	0.013183738	0.136014194	0.041920896
2020-05-29T04:35:00	0.2477	9.348	186.0	0.627520762	0.780950101	0.013237338	0.136567177	0.042091330
2020-05-29T04:40:00	0.2480	9.351	186.0	0.628554878	0.782489650	0.013278001	0.136986693	0.042220629
2020-05-29T04:45:00	0.2481	9.354	186.0	0.628926808	0.783043585	0.013292642	0.137137739	0.042267183
2020-05-29T04:50:00	0.2485	9.361	186.0	0.630291381	0.785076917	0.013346429	0.137692653	0.042438213
2020-05-29T04:55:00	0.2488	9.369	187.0	0.631324697	0.786617695	0.013387235	0.138113631	0.042567962
2020-05-29T05:00:00	0.2490	9.378	186.0	0.632027042	0.787665479	0.013415007	0.138400151	0.042656271
2020-05-29T05:05:00	0.2491	9.388	186.0	0.632398611	0.788219968	0.013429711	0.138551857	0.042703028
2020-05-29T05:10:00	0.2498	9.399	187.0	0.634422856	0.791242783	0.013509967	0.139379838	0.042958220
2020-05-29T05:15:00	0.2500	9.407	187.0	0.635124594	0.792291502	0.013537847	0.139667469	0.043046870
2020-05-29T05:20:00	0.2504	9.410	185.0	0.636486808	0.794328468	0.013592052	0.140226699	0.043219231
2020-05-29T05:25:00	0.2501	9.417	186.0	0.635536702	0.792907576	0.013554234	0.139836530	0.043098976
2020-05-29T05:30:00	0.2509	9.422	186.0	0.638219471	0.796921654	0.013661162	0.140939688	0.043438981
2020-05-29T05:35:00	0.2512	9.425	187.0	0.639250503	0.798465955	0.013702372	0.141364849	0.043570019
2020-05-29T05:40:00	0.2513	9.427	188.0	0.639621324	0.799021599	0.013717210	0.141517926	0.043617199
2020-05-29T05:45:00	0.2509	9.430	186.0	0.638341958	0.797105071	0.013666054	0.140990163	0.043454537
2020-05-29T05:50:00	0.2511	9.434	191.0	0.638712873	0.797660570	0.013680875	0.141143067	0.043501664
2020-05-29T05:55:00	0.2511	9.439	187.0	0.638753697	0.797721717	0.013682507	0.141159901	0.043506852
2020-05-29T06:00:00	0.2508	9.443	186.0	0.637804192	0.796299897	0.013644581	0.140768630	0.043386259
2020-05-29T06:05:00	0.2504	9.447	186.0	0.636524178	0.794384372	0.013593541	0.140242057	0.043223964
2020-05-29T06:10:00	0.2514	9.451	187.0	0.639866200	0.799388589	0.013727013	0.141619059	0.043648369
2020-05-29T06:15:00	0.2517	9.453	187.0	0.640896760	0.800933623	0.013768307	0.142045089	0.043779676
2020-05-29T06:20:00	0.2516	9.458	187.0	0.640607677	0.800500134	0.013756717	0.141925515	0.043742822
2020-05-29T06:25:00	0.2516	9.463	187.0	0.640648480	0.800561314	0.013758353	0.141942389	0.043748023
2020-05-29T06:30:00	0.2518	9.469	187.0	0.641019156	0.801117182	0.013773216	0.142095731	0.043795284
2020-05-29T06:35:00	0.2513	9.475	187.0	0.639410296	0.798705377	0.013708765	0.141430802	0.043590347
2020-05-29T06:40:00	0.2520	9.482	188.0	0.641760395	0.802229096	0.013802963	0.142402625	0.043889872
2020-05-29T06:45:00	0.2511	9.489	188.0	0.638831868	0.797838806	0.013685632	0.141192139	0.043516788
2020-05-29T06:50:00	0.2519	9.499	187.0	0.641512175	0.801856695	0.013792998	0.142299817	0.043858185
2020-05-29T06:55:00	0.2514	9.509	187.0	0.639903535	0.799444547	0.013728508	0.141634481	0.043653123
2020-05-29T07:00:00	0.2510	9.520	186.0	0.638624270	0.797527863	0.013677334	0.141106534	0.043490404
2020-05-29T07:05:00	0.2515	9.536	188.0	0.640315096	0.800061470	0.013744992	0.141804549	0.043705539
2020-05-29T07:10:00	0.2521	9.549	188.0	0.642005125	0.802596312	0.013812792	0.142504026	0.043921125
2020-05-29T07:15:00	0.2519	9.563	189.0	0.641386321	0.801667898	0.013787947	0.142247705	0.043842124
2020-05-29T07:20:00	0.2519	9.571	188.0	0.641427115	0.801729092	0.013789584	0.142264595	0.043847330
2020-05-29T07:25:00	0.2519	9.597	188.0	0.641467908	0.801790287	0.013791221	0.142281486	0.043852536
2020-05-29T07:30:00	0.2521	9.612	187.0	0.642168269	0.802841137	0.013819346	0.142571644	0.043941965
2020-05-29T07:35:00	0.2524	9.632	188.0	0.643198169	0.804387196	0.013860758	0.142998888	0.044073646
2020-05-29T07:40:00	0.2533	9.647	189.0	0.646204623	0.808905568	0.013982017	0.144249897	0.044459219
2020-05-29T07:45:00	0.2535	9.672	189.0	0.646904062	0.809957852	0.014010307	0.144541753	0.044549172
2020-05-29T07:50:00	0.2536	9.679	188.0	0.646944794	0.810019144	0.014011955	0.144558759	0.044554413
2020-05-29T07:55:00	0.2541	9.689	187.0	0.648631712	0.812558831	0.014080311	0.145263971	0.044771767
2020-05-29T08:00:00	0.2536	9.704	188.0	0.647026255	0.810141729	0.014015252	0.144592772	0.044564897
2020-05-29T08:05:00	0.2534	9.724	188.0	0.646408314	0.809211971	0.013990253	0.144334859	0.044485405
2020-05-29T08:10:00	0.2521	9.747	188.0	0.642164796	0.802835924	0.013819206	0.142570204	0.043941522
2020-05-29T08:15:00	0.2541	9.776	188.0	0.648794556	0.812804124	0.014086919	0.145332142	0.044792778
2020-05-29T08:20:00	0.2532	9.793	188.0	0.645871753	0.808404923	0.013968565	0.144111108	0.044416443
2020-05-29T08:25:00	0.2533	9.826	188.0	0.646241892	0.808961628	0.013983524	0.144265440	0.044464010
2020-05-29T08:30:00	0.2532	9.858	189.0	0.645623816	0.808032080	0.013958549	0.144007776	0.044384595
2020-05-29T08:35:00	0.2539	9.884	188.0	0.647969859	0.811562111	0.014053471	0.144987072	0.044686424
2020-05-29T08:40:00	0.2542	9.914	189.0	0.648998100	0.813110756	0.014095180	0.145417375	0.044819047
2020-05-29T08:45:00	0.2554	9.957	190.0	0.652986148	0.819125726	0.014257559	0.147092611	0.045335371
2020-05-29T08:50:00	0.2541	10.008	190.0	0.648750379	0.812737577	0.014085126	0.145313647	0.044787077
2020-05-29T08:55:00	0.2548	10.055	189.0	0.651094387	0.816270788	0.014180412	0.146296701	0.045090064
2020-05-29T09:00:00	0.2537	10.104	190.0	0.647514982	0.810877302	0.014035040	0.144796924	0.044627818
2020-05-29T09:05:00	0.2537	10.152	190.0	0.647555706	0.810938604	0.014036690	0.144813942	0.044633063
2020-05-29T09:10:00	0.2528	10.207	189.0	0.644302354	0.806045772	0.013905229	0.143457688	0.044215053
2020-05-29T09:15:00	0.2530	10.234	190.0	0.645002164	0.807097480	0.013933453	0.143748863	0.044304796
2020-05-29T09:20:00	0.2527	10.273	190.0	0.644054309	0.805673097	0.013895233	0.143354556	0.044183266
2020-05-29T09:25:00	0.2527	10.301	191.0	0.644095072	0.805734339	0.013896875	0.143371502	0.044188489
2020-05-29T09:30:00	0.2531	10.326	191.0	0.645453888	0.807776576	0.013951687	0.143936978	0.044362775
2020-05-29T09:35:00	0.2530	10.359	192.0	0.645165172	0.807342517	0.013940031	0.143816731	0.044325713
2020-05-29T09:40:00	0.2526	10.389	190.0	0.643887778	0.805422924	0.013888524	0.143285338	0.044161933
2020-05-29T09:45:00	0.2525	10.428	191.0	0.643598936	0.804989061	0.013876891	0.143165322	0.044124943
2020-05-29T09:50:00	0.2528	10.457	190.0	0.644298883	0.806040556	0.013905089	0.143456245	0.044214608
2020-05-29T09:55:00	0.2520	10.500	191.0	0.641702236	0.802141836	0.013800628	0.142378533	0.043882447
2020-05-29T10:00:00	0.2515	10.542	191.0	0.640093682	0.799729556	0.013736122	0.141713042	0.043677336
2020-05-29T10:05:00	0.2514	10.586	192.0	0.639941730	0.799501794	0.013730037	0.141650260	0.043657986
2020-05-29T10:10:00	0.2516	10.635	198.0	0.640449656	0.800263206	0.013750384	0.141860176	0.043722684
2020-05-29T10:15:00	0.2523	10.669	199.0	0.642936157	0.803993785	0.013850217	0.142890132	0.044040126
2020-05-29T10:20:00	0.2512	10.706	195.0	0.639155820	0.798324099	0.013698585	0.141325778	0.043557977
2020-05-29T10:25:00	0.2513	10.722	201.0	0.639663857	0.799085339	0.013718912	0.141535489	0.043622612
2020-05-29T10:30:00	0.2513	10.772	195.0	0.639511887	0.798857605	0.013712830	0.141472741	0.043603273
2020-05-29T10:35:00	0.2519	10.813	200.0	0.641339437	0.801597570	0.013786065	0.142228294	0.043836142
2020-05-29T10:40:00	0.2507	10.854	198.0	0.637557418	0.795930494	0.013634734	0.140667032	0.043354945
2020-05-29T10:45:00	0.2504	10.907	200.0	0.636414647	0.794220524	0.013589178	0.140197046	0.043210091
2020-05-29T10:50:00	0.2502	10.966	199.0	0.635932227	0.793498994	0.013569971	0.139998887	0.043149017
2020-05-29T10:55:00	0.2499	11.017	200.0	0.634788937	0.791789824	0.013524507	0.139529850	0.043004455
2020-05-29T11:00:00	0.2497	11.067	200.0	0.634306298	0.791068632	0.013505339	0.139332092	0.042943504
2020-05-29T11:05:00	0.2491	11.110	193.0	0.632170603	0.787879700	0.013420687	0.138458754	0.042674333
2020-05-29T11:10:00	0.2484	11.173	201.0	0.630033634	0.784692730	0.013336261	0.137587749	0.042405880
2020-05-29T11:15:00	0.2501	11.220	195.0	0.635501903	0.792855549	0.013552849	0.139822250	0.043094575
2020-05-29T11:20:00	0.2497	11.280	197.0	0.634358476	0.791146591	0.013507411	0.139353465	0.042950091
2020-05-29T11:25:00	0.2490	11.343	200.0	0.631892128	0.787464176	0.013409670	0.138345089	0.042639300
2020-05-29T11:30:00	0.2498	11.404	198.0	0.634715020	0.791679360	0.013521571	0.139499554	0.042995117
2020-05-29T11:35:00	0.2495	11.468	200.0	0.633571342	0.789970789	0.013476177	0.139031229	0.042850775
2020-05-29T11:40:00	0.2484	11.549	197.0	0.629781114	0.784316390	0.013326303	0.137485013	0.042374216
2020-05-29T11:45:00	0.2476	11.632	198.0	0.627311608	0.780638831	0.013229122	0.136482409	0.042065204
2020-05-29T11:50:00	0.2486	11.716	197.0	0.630468961	0.785341642	0.013353437	0.137764952	0.042460496
2020-05-29T11:55:00	0.2471	11.787	199.0	0.625681756	0.778214500	0.013165185	0.135822783	0.041861901
2020-05-29T12:00:00	0.2479	11.847	197.0	0.628178523	0.781929243	0.013263195	0.136833937	0.042173548
2020-05-29T12:05:00	0.2465	11.915	203.0	0.623719719	0.775299034	0.013088429	0.135030913	0.041617839
2020-05-29T12:10:00	0.2461	11.983	203.0	0.622240939	0.773103805	0.013030733	0.134435668	0.041434379
2020-05-29T12:15:00	0.2467	12.032	202.0	0.624408734	0.776322497	0.013115357	0.135308723	0.041703463
2020-05-29T12:20:00	0.2461	12.063	203.0	0.622267116	0.773142649	0.013031753	0.134446193	0.041437623
2020-05-29T12:25:00	0.2456	12.122	202.0	0.620787733	0.770948340	0.012974163	0.133852044	0.041254500
2020-05-29T12:30:00	0.2464	12.163	200.0	0.623287924	0.774657849	0.013071569	0.134856964	0.041564226
2020-05-29T12:35:00	0.2461	12.161	199.0	0.622472172	0.773446947	0.013039746	0.134528656	0.041463038
2020-05-29T12:40:00	0.2466	12.171	198.0	0.623977022	0.775681185	0.013098482	0.135134623	0.041649803
2020-05-29T12:45:00	0.2466	12.205	200.0	0.623824384	0.775454478	0.013092518	0.135073095	0.041630840
2020-05-29T12:50:00	0.2461	12.204	206.0	0.622345647	0.773259183	0.013034814	0.134477771	0.041447355
2020-05-29T12:55:00	0.2466	12.205	204.0	0.623850550	0.775493340	0.013093540	0.135083641	0.041634090
2020-05-29T13:00:00	0.2451	12.245	200.0	0.619054457	0.768379787	0.012906856	0.133157658	0.041040483
2020-05-29T13:05:00	0.2450	12.298	205.0	0.618569687	0.767661858	0.012888064	0.132963783	0.040980729
2020-05-29T13:10:00	0.2453	12.299	206.0	0.619744373	0.769401875	0.012933625	0.133433829	0.041125602
2020-05-29T13:15:00	0.2461	12.258	205.0	0.622245295	0.773110270	0.013030903	0.134437420	0.041434918
2020-05-29T13:20:00	0.2453	12.243	205.0	0.619770569	0.769440691	0.012934642	0.133444320	0.041128836
2020-05-29T13:25:00	0.2459	12.224	203.0	0.621608227	0.772165118	0.013006087	0.134181403	0.041356011
2020-05-29T13:30:00	0.2459	12.188	204.0	0.621787141	0.772430519	0.013013054	0.134253277	0.041378164
2020-05-29T13:35:00	0.2456	12.191	202.0	0.620639318	0.770728303	0.012968392	0.133792512	0.041236152
2020-05-29T13:40:00	0.2446	12.206	201.0	0.617499465	0.766077590	0.012846627	0.132536285	0.040848970
2020-05-29T13:45:00	0.2454	12.167	200.0	0.620001963	0.769783588	0.012943627	0.133537017	0.041157405
2020-05-29T13:50:00	0.2454	12.135	201.0	0.619849155	0.769557141	0.012937693	0.133475798	0.041138537
2020-05-29T13:55:00	0.2439	12.126	203.0	0.615047669	0.762451792	0.012751958	0.131559602	0.040547947
2020-05-29T14:00:00	0.2443	12.144	203.0	0.616223517	0.764190044	0.012797315	0.132027540	0.040692170
2020-05-29T14:05:00	0.2444	12.134	200.0	0.616734824	0.764946270	0.012817064	0.132231287	0.040754967
2020-05-29T14:10:00	0.2434	12.131	205.0	0.613259108	0.759809998	0.012683126	0.130849476	0.040329079
2020-05-29T14:15:00	0.2427	12.161	204.0	0.611110772	0.756640354	0.012600703	0.129999128	0.040066994
2020-05-29T14:20:00	0.2427	12.200	200.0	0.610957582	0.756414487	0.012594836	0.129938602	0.040048339
2020-05-29T14:25:00	0.2431	12.226	203.0	0.612467305	0.758641325	0.012652716	0.130535734	0.040232381
2020-05-29T14:30:00	0.2442	12.208	201.0	0.615970018	0.763815199	0.012787530	0.131926586	0.040661055
2020-05-29T14:35:00	0.2453	12.190	204.0	0.619801124	0.769485967	0.012935829	0.133456559	0.041132608
2020-05-29T14:40:00	0.2454	12.171	199.0	0.619980128	0.769751230	0.012942779	0.133528268	0.041154709
2020-05-29T14:45:00	0.2457	12.154	199.0	0.620822638	0.771000091	0.012975520	0.133866047	0.041258816
2020-05-29T14:50:00	0.2456	12.133	205.0	0.620669865	0.770773590	0.012969580	0.133804764	0.041239928
2020-05-29T14:55:00	0.2450	12.094	206.0	0.618526000	0.767597168	0.012886371	0.132946319	0.040975347
2020-05-29T15:00:00	0.2450	12.048	204.0	0.618705068	0.767862333	0.012893311	0.133017912	0.040997412
2020-05-29T15:05:00	0.2453	12.001	200.0	0.619547880	0.769110736	0.012925998	0.133355143	0.041101350
2020-05-29T15:10:00	0.2442	11.957	200.0	0.616074911	0.763970296	0.012791578	0.131968354	0.040673928
2020-05-29T15:15:00	0.2448	11.926	201.0	0.617914477	0.766691824	0.012862688	0.132701976	0.040900038
2020-05-29T15:20:00	0.2440	11.914	205.0	0.615436739	0.763026824	0.012766957	0.131714341	0.040595639
2020-05-29T15:25:00	0.2449	11.923	200.0	0.618272665	0.767222075	0.012876557	0.132845067	0.040944140
2020-05-29T15:30:00	0.2455	11.923	198.0	0.620442874	0.770437089	0.012960757	0.133713737	0.041211872
2020-05-29T15:35:00	0.2452	11.918	205.0	0.619294618	0.768735532	0.012916171	0.133253760	0.041070103
2020-05-29T15:40:00	0.2453	11.918	198.0	0.619805484	0.769492428	0.012935998	0.133458305	0.041133146
2020-05-29T15:45:00	0.2464	11.917	202.0	0.623300990	0.774677249	0.013072079	0.134862226	0.041565848
2020-05-29T15:50:00	0.2461	11.917	204.0	0.622153654	0.772974290	0.013027331	0.134400577	0.041423563
2020-05-29T15:55:00	0.2459	11.906	203.0	0.621669306	0.772255720	0.013008465	0.134205937	0.041363573
2020-05-29T16:00:00	0.2465	11.895	201.0	0.623505987	0.774981637	0.013080082	0.134944797	0.041591297
2020-05-29T16:05:00	0.2470	11.873	206.0	0.625206931	0.777508641	0.013146588	0.135630926	0.041802768
2020-05-29T16:10:00	0.2469	11.848	204.0	0.624919543	0.777081513	0.013135339	0.135514872	0.041767000
2020-05-29T16:15:00	0.2468	11.827	204.0	0.624632133	0.776654420	0.013124094	0.135398861	0.041731244
2020-05-29T16:20:00	0.2464	11.814	199.0	0.623350363	0.774750557	0.013074006	0.134882111	0.041571977
2020-05-29T16:25:00	0.2465	11.810	202.0	0.623725801	0.775308066	0.013088667	0.135033364	0.041618594
2020-05-29T16:30:00	0.2450	11.802	203.0	0.618794505	0.767994782	0.012896778	0.133053677	0.041008435
2020-05-29T16:35:00	0.2454	11.796	204.0	0.619834122	0.769534864	0.012937110	0.133469776	0.041136681
2020-05-29T16:40:00	0.2460	11.786	199.0	0.621868462	0.772551160	0.013016221	0.134285952	0.041388235
2020-05-29T16:45:00	0.2452	11.772	205.0	0.619258457	0.768681965	0.012914769	0.133239287	0.041065642
2020-05-29T16:50:00	0.2451	11.764	203.0	0.618970590	0.768255569	0.012903604	0.133124106	0.041030142
2020-05-29T16:55:00	0.2453	11.756	200.0	0.619678338	0.769304029	0.012931062	0.133407382	0.041117451
2020-05-29T17:00:00	0.2450	11.749	202.0	0.618726723	0.767894401	0.012894150	0.133026571	0.041000081
2020-05-29T17:05:00	0.2444	11.743	201.0	0.616778683	0.765011149	0.012818759	0.132248772	0.040760356
2020-05-29T17:10:00	0.2438	11.735	198.0	0.614829577	0.762129515	0.012743555	0.131472905	0.040521226
2020-05-29T17:15:00	0.2442	11.724	199.0	0.615870352	0.763667839	0.012783683	0.131886905	0.040648825
2020-05-29T17:20:00	0.2439	11.713	204.0	0.614917718	0.762259758	0.012746951	0.131507940	0.040532024
2020-05-29T17:25:00	0.2437	11.703	203.0	0.614297180	0.761342955	0.012723053	0.131261388	0.040456035
2020-05-29T17:30:00	0.2429	11.696	203.0	0.611681616	0.757482197	0.012622577	0.130224799	0.040136548
2020-05-29T17:35:00	0.2426	11.688	200.0	0.610727859	0.756075815	0.012586041	0.129847865	0.040020373
2020-05-29T17:40:00	0.2432	11.681	200.0	0.612767410	0.759084208	0.012664237	0.130654601	0.040269017
2020-05-29T17:45:00	0.2435	11.671	198.0	0.613808789	0.760621618	0.012704260	0.131067509	0.040396279
2020-05-29T17:50:00	0.2430	11.661	199.0	0.611858053	0.757742450	0.012629342	0.130294590	0.040158058
2020-05-29T17:55:00	0.2422	11.649	203.0	0.609240692	0.753884405	0.012529181	0.129261247	0.039839572
2020-05-29T18:00:00	0.2426	11.638	203.0	0.610615800	0.755910625	0.012581752	0.129803615	0.040006735
2020-05-29T18:05:00	0.2421	11.626	204.0	0.608996157	0.753524249	0.012519844	0.129164920	0.039809883
2020-05-29T18:10:00	0.2421	11.613	197.0	0.609040300	0.753589260	0.012521529	0.129182306	0.039815241
2020-05-29T18:15:00	0.2421	11.603	197.0	0.609084443	0.753654273	0.012523214	0.129199693	0.039820600
2020-05-29T18:20:00	0.2419	11.592	204.0	0.608462886	0.752739011	0.012499495	0.128954984	0.039745178
2020-05-29T18:25:00	0.2423	11.582	197.0	0.609838295	0.754764777	0.012552013	0.129496808	0.039912174
2020-05-29T18:30:00	0.2424	11.573	197.0	0.609882428	0.754829804	0.012553700	0.129514213	0.039917538
2020-05-29T18:35:00	0.2433	11.564	202.0	0.612919995	0.759309415	0.012670097	0.130715059	0.040287651
2020-05-29T18:40:00	0.2439	11.557	197.0	0.614958288	0.762319708	0.012748514	0.131524068	0.040536995
2020-05-29T18:45:00	0.2438	11.548	200.0	0.614670073	0.761893840	0.012737411	0.131409517	0.040501689
2020-05-29T18:50:00	0.2437	11.538	198.0	0.614381835	0.761468007	0.012726311	0.131295009	0.040466397
2020-05-29T18:55:00	0.2439	11.528	198.0	0.615090495	0.762515081	0.012753609	0.131576631	0.040553195
2020-05-29T19:00:00	0.2442	11.518	197.0	0.616131194	0.764053521	0.012793751	0.131990769	0.040680837
2020-05-29T19:05:00	0.2437	11.507	200.0	0.614181733	0.761172425	0.012718609	0.131215545	0.040441905
2020-05-29T19:10:00	0.2443	11.495	202.0	0.616219303	0.764183813	0.012797152	0.132025862	0.040691653
2020-05-29T19:15:00	0.2442	11.484	199.0	0.615931190	0.763757790	0.012786031	0.131911127	0.040656290
2020-05-29T19:20:00	0.2442	11.473	204.0	0.615975248	0.763822932	0.012787731	0.131928668	0.040661697
2020-05-29T19:25:00	0.2450	11.461	197.0	0.618675707	0.767818853	0.012892173	0.133006171	0.040993794
2020-05-29T19:30:00	0.2450	11.448	199.0	0.618719730	0.767884046	0.012893879	0.133023775	0.040999219
2020-05-29T19:35:00	0.2454	11.435	201.0	0.620091179	0.769915808	0.012947092	0.133572765	0.041168424
2020-05-29T19:40:00	0.2455	11.422	202.0	0.620466960	0.770472793	0.012961693	0.133723395	0.041214849
2020-05-29T19:45:00	0.2455	11.409	201.0	0.620179190	0.770046248	0.012950511	0.133608036	0.041179294
2020-05-29T19:50:00	0.2453	11.394	199.0	0.619559569	0.769128055	0.012926452	0.133359823	0.041102793
2020-05-29T19:55:00	0.2456	11.379	201.0	0.620598963	0.770668477	0.012966824	0.133776328	0.041231163
2020-05-29T20:00:00	0.2449	11.364	203.0	0.618320003	0.767292159	0.012878391	0.132863984	0.040949970
2020-05-29T20:05:00	0.2457	11.348	201.0	0.621018685	0.771290780	0.012983145	0.133944709	0.041283060
2020-05-29T20:10:00	0.2454	11.330	204.0	0.620067428	0.769880608	0.012946170	0.133563248	0.041165490
2020-05-29T20:15:00	0.2461	11.313	198.0	0.622433227	0.773389151	0.013038228	0.134512992	0.041458211
2020-05-29T20:20:00	0.2457	11.292	200.0	0.621150667	0.771486495	0.012988279	0.133997679	0.041299386
2020-05-29T20:25:00	0.2462	11.271	200.0	0.622521181	0.773519680	0.013041657	0.134548368	0.041469114
2020-05-29T20:30:00	0.2464	11.249	202.0	0.623228224	0.774569213	0.013069238	0.134832924	0.041556817
2020-05-29T20:35:00	0.2457	11.227	202.0	0.620950945	0.771190335	0.012980510	0.133917526	0.041274682
2020-05-29T20:40:00	0.2460	11.203	203.0	0.621989933	0.772731375	0.013020953	0.134334768	0.041403280
2020-05-29T20:45:00	0.2456	11.179	200.0	0.620707214	0.770828961	0.012971032	0.133819745	0.041244545
2020-05-29T20:50:00	0.2455	11.156	198.0	0.620419464	0.770402387	0.012959847	0.133704351	0.041208980
2020-05-29T20:55:00	0.2452	11.130	197.0	0.619468047	0.768992458	0.012922900	0.133323181	0.041091499
2020-05-29T21:00:00	0.2454	11.104	201.0	0.619843893	0.769549344	0.012937489	0.133473691	0.041137888
2020-05-29T21:05:00	0.2451	11.080	204.0	0.618892323	0.768139649	0.012900570	0.133092799	0.041020493
2020-05-29T21:10:00	0.2452	11.055	198.0	0.619268230	0.768696443	0.012915148	0.133243199	0.041066848
2020-05-29T21:15:00	0.2451	11.031	196.0	0.618980364	0.768270045	0.012903983	0.133128016	0.041031348
2020-05-29T21:20:00	0.2460	11.008	197.0	0.622010178	0.772761411	0.013021741	0.134342904	0.041405788
2020-05-29T21:25:00	0.2458	10.984	196.0	0.621390875	0.771842733	0.012997626	0.134094113	0.041329108
2020-05-29T21:30:00	0.2458	10.960	198.0	0.621434865	0.771907977	0.012999338	0.134111777	0.041334552
2020-05-29T21:35:00	0.2458	10.937	195.0	0.621478854	0.771973222	0.013001051	0.134129442	0.041339997
2020-05-29T21:40:00	0.2453	10.912	198.0	0.619532319	0.769087682	0.012925395	0.133348913	0.041099430
2020-05-29T21:45:00	0.2464	10.886	201.0	0.623224733	0.774564028	0.013069102	0.134831518	0.041556383
2020-05-29T21:50:00	0.2463	10.861	198.0	0.622937185	0.774137144	0.013057881	0.134715755	0.041520704
2020-05-29T21:55:00	0.2461	10.836	196.0	0.622318043	0.773218220	0.013033738	0.134466671	0.041443934
2020-05-29T22:00:00	0.2458	10.811	194.0	0.621367133	0.771807520	0.012996702	0.134084580	0.041326170
2020-05-29T22:05:00	0.2453	10.787	197.0	0.619708368	0.769348524	0.012932228	0.133419408	0.041121157
2020-05-29T22:10:00	0.2460	10.764	195.0	0.622030423	0.772791448	0.013022530	0.134351041	0.041408296
2020-05-29T22:15:00	0.2453	10.742	200.0	0.619708368	0.769348524	0.012932228	0.133419408	0.041121157
2020-05-29T22:20:00	0.2454	10.722	194.0	0.620040182	0.769840229	0.012945112	0.133552331	0.041162125
2020-05-29T22:25:00	0.2452	10.702	198.0	0.619376522	0.768856866	0.012919349	0.133286542	0.041080207
2020-05-29T22:30:00	0.2450	10.682	198.0	0.618712738	0.767873691	0.012893608	0.133020978	0.040998357
2020-05-29T22:35:00	0.2453	10.660	195.0	0.619708368	0.769348524	0.012932228	0.133419408	0.041121157
2020-05-29T22:40:00	0.2448	10.639	194.0	0.618048830	0.766890703	0.012867889	0.132755639	0.040916577
2020-05-29T22:45:00	0.2450	10.619	196.0	0.618712738	0.767873691	0.012893608	0.133020978	0.040998357
2020-05-29T22:50:00	0.2437	10.598	196.0	0.614395122	0.761487635	0.012726823	0.131300287	0.040468023
2020-05-29T22:55:00	0.2435	10.578	195.0	0.613730408	0.760505871	0.012701245	0.131036407	0.040386693
2020-05-29T23:00:00	0.2437	10.560	194.0	0.614395122	0.761487635	0.012726823	0.131300287	0.040468023
2020-05-29T23:05:00	0.2430	10.543	194.0	0.612068079	0.758052282	0.012637397	0.130377693	0.040183671
2020-05-29T23:10:00	0.2424	10.523	194.0	0.610072258	0.755109526	0.012560958	0.129589092	0.039940617
2020-05-29T23:15:00	0.2427	10.505	195.0	0.611070309	0.756580692	0.012599153	0.129983139	0.040062066
2020-05-29T23:20:00	0.2429	10.485	195.0	0.611735520	0.757561705	0.012624643	0.130246119	0.040143119
2020-05-29T23:25:00	0.2427	10.466	195.0	0.611070309	0.756580692	0.012599153	0.129983139	0.040062066
2020-05-29T23:30:00	0.2427	10.446	195.0	0.611070309	0.756580692	0.012599153	0.129983139	0.040062066
2020-05-29T23:35:00	0.2415	10.427	193.0	0.607076420	0.750698567	0.012446669	0.128409989	0.039577206
2020-05-29T23:40:00	0.2414	10.407	196.0	0.606743393	0.750208695	0.012433997	0.128279259	0.039536913
2020-05-29T23:45:00	0.2418	10.389	199.0	0.608075313	0.752168463	0.012484716	0.128802516	0.039698186
2020-05-29T23:50:00	0.2409	10.369	198.0	0.605077788	0.747760043	0.012370722	0.127626455	0.039335713
2020-05-29T23:55:00	0.2408	10.350	197.0	0.604744573	0.747270454	0.012358083	0.127496064	0.039295525
2020-05-30T00:00:00	0.2406	10.330	192.0	0.604078049	0.746291416	0.012332822	0.127235449	0.039215201
2020-05-30T00:05:00	0.2404	10.312	192.0	0.603411400	0.745312566	0.012307583	0.126975061	0.039134947
2020-05-30T00:10:00	0.2408	10.293	192.0	0.604744573	0.747270454	0.012358083	0.127496064	0.039295525
2020-05-30T00:15:00	0.2395	10.272	192.0	0.600409924	0.740910070	0.012194277	0.125806105	0.038774663
2020-05-30T00:20:00	0.2393	10.251	191.0	0.599742584	0.739932255	0.012169158	0.125546958	0.038694792
2020-05-30T00:25:00	0.2381	10.229	194.0	0.595735894	0.734069312	0.012018905	0.123996823	0.038217025
2020-05-30T00:30:00	0.2386	10.207	195.0	0.597405900	0.736511382	0.012081414	0.124641724	0.038415790
2020-05-30T00:35:00	0.2383	10.185	194.0	0.596403991	0.735045999	0.012043892	0.124254614	0.038296479
2020-05-30T00:40:00	0.2378	10.163	192.0	0.594733511	0.732604634	0.011981465	0.123610562	0.038097976
2020-05-30T00:45:00	0.2374	10.144	196.0	0.593396557	0.730652389	0.011931621	0.123096339	0.037939487
2020-05-30T00:50:00	0.2373	10.124	194.0	0.593062240	0.730164445	0.011919174	0.122967924	0.037899909
2020-05-30T00:55:00	0.2371	10.107	195.0	0.592393510	0.729188699	0.011894297	0.122711266	0.037820804
2020-05-30T01:00:00	0.2367	10.091	195.0	0.591055669	0.727237770	0.011844607	0.122198628	0.037662804
2020-05-30T01:05:00	0.2361	10.073	195.0	0.589047956	0.724312787	0.011770238	0.121431371	0.037426328
2020-05-30T01:10:00	0.2356	10.057	191.0	0.587373987	0.721876594	0.011708414	0.120793550	0.037229745
2020-05-30T01:15:00	0.2361	10.040	194.0	0.589047956	0.724312787	0.011770238	0.121431371	0.037426328
2020-05-30T01:20:00	0.2359	10.023	195.0	0.588378463	0.723338169	0.011745492	0.121176073	0.037347642
2020-05-30T01:25:00	0.2358	10.006	194.0	0.588043670	0.722850930	0.011733127	0.121048508	0.037308326
2020-05-30T01:30:00	0.2357	9.986	195.0	0.587708844	0.722363739	0.011720768	0.120921001	0.037269027
2020-05-30T01:35:00	0.2356	9.969	194.0	0.587373987	0.721876594	0.011708414	0.120793550	0.037229745
2020-05-30T01:40:00	0.2351	9.950	190.0	0.585699221	0.719441577	0.011646728	0.120157147	0.037033600
2020-05-30T01:45:00	0.2349	9.933	194.0	0.585029092	0.718467899	0.011622092	0.119902984	0.036955264
2020-05-30T01:50:00	0.2345	9.916	194.0	0.583688450	0.716521108	0.011572887	0.119395337	0.036798803
2020-05-30T01:55:00	0.2346	9.898	195.0	0.584023658	0.717007735	0.011585180	0.119522164	0.036837892
2020-05-30T02:00:00	0.2350	9.881	195.0	0.585364173	0.718954715	0.011634407	0.120030037	0.036994423
2020-05-30T02:05:00	0.2352	9.864	194.0	0.586034238	0.719928487	0.011659054	0.120284314	0.037072794
2020-05-30T02:10:00	0.2349	9.848	194.0	0.585029092	0.718467899	0.011622092	0.119902984	0.036955264
2020-05-30T02:15:00	0.2351	9.830	189.0	0.585699221	0.719441577	0.011646728	0.120157147	0.037033600
2020-05-30T02:20:00	0.2350	9.814	192.0	0.585364173	0.718954715	0.011634407	0.120030037	0.036994423
2020-05-30T02:25:00	0.2353	9.799	193.0	0.586369223	0.720415443	0.011671386	0.120411538	0.037112005
2020-05-30T02:30:00	0.2355	9.783	190.0	0.587039097	0.721389497	0.011696066	0.120666156	0.037190481
2020-05-30T02:35:00	0.2348	9.767	194.0	0.584693979	0.717981131	0.011609783	0.119775987	0.036916122
2020-05-30T02:40:00	0.2357	9.752	194.0	0.587708844	0.722363739	0.011720768	0.120921001	0.037269027
2020-05-30T02:45:00	0.2355	9.738	198.0	0.587039097	0.721389497	0.011696066	0.120666156	0.037190481
2020-05-30T02:50:00	0.2357	9.723	193.0	0.587708844	0.722363739	0.011720768	0.120921001	0.037269027
2020-05-30T02:55:00	0.2360	9.709	190.0	0.588713225	0.723825455	0.011757862	0.121303694	0.037386976
2020-05-30T03:00:00	0.2365	9.693	192.0	0.590386558	0.726262588	0.011819795	0.121942649	0.037583909
2020-05-30T03:05:00	0.2355	9.679	190.0	0.587039097	0.721389497	0.011696066	0.120666156	0.037190481
2020-05-30T03:10:00	0.2358	9.665	196.0	0.588043670	0.722850930	0.011733127	0.121048508	0.037308326
2020-05-30T03:15:00	0.2360	9.653	191.0	0.588713225	0.723825455	0.011757862	0.121303694	0.037386976
2020-05-30T03:20:00	0.2362	9.642	190.0	0.589382654	0.724800167	0.011782619	0.121559106	0.037465697
2020-05-30T03:25:00	0.2365	9.631	191.0	0.590386558	0.726262588	0.011819795	0.121942649	0.037583909
2020-05-30T03:30:00	0.2362	9.617	192.0	0.589382654	0.724800167	0.011782619	0.121559106	0.037465697
2020-05-30T03:35:00	0.2353	9.604	191.0	0.586369223	0.720415443	0.011671386	0.120411538	0.037112005
2020-05-30T03:40:00	0.2361	9.592	195.0	0.589047956	0.724312787	0.011770238	0.121431371	0.037426328
2020-05-30T03:45:00	0.2365	9.581	190.0	0.590386558	0.726262588	0.011819795	0.121942649	0.037583909
2020-05-30T03:50:00	0.2365	9.571	189.0	0.590386558	0.726262588	0.011819795	0.121942649	0.037583909
2020-05-30T03:55:00	0.2364	9.560	189.0	0.590051955	0.725775067	0.011807398	0.121814745	0.037544487
2020-05-30T04:00:00	0.2370	9.550	192.0	0.592059097	0.728700896	0.011881866	0.122583021	0.037781278
2020-05-30T04:05:00	0.2373	9.541	194.0	0.592958595	0.730013192	0.011915317	0.122928127	0.037887643
2020-05-30T04:10:00	0.2376	9.535	191.0	0.593857863	0.731325828	0.011948807	0.123273643	0.037994134
2020-05-30T04:15:00	0.2380	9.528	189.0	0.595425184	0.733615215	0.012007293	0.123877027	0.038180103
2020-05-30T04:20:00	0.2382	9.523	197.0	0.595989784	0.734440429	0.012028397	0.124094757	0.038247209
2020-05-30T04:25:00	0.2385	9.518	191.0	0.596888281	0.735754212	0.012062022	0.124441653	0.038354126
2020-05-30T04:30:00	0.2386	9.516	190.0	0.597452647	0.736579774	0.012083166	0.124659800	0.038421361
2020-05-30T04:35:00	0.2383	9.512	189.0	0.596347205	0.734962969	0.012041767	0.124232692	0.038289722
2020-05-30T04:40:00	0.2388	9.510	194.0	0.597913423	0.737254000	0.012100444	0.124838052	0.038476300
2020-05-30T04:45:00	0.2384	9.509	194.0	0.596808125	0.735636981	0.012059020	0.124410686	0.038344582
2020-05-30T04:50:00	0.2389	9.506	190.0	0.598374138	0.737928316	0.012117732	0.125016412	0.038531272
2020-05-30T04:55:00	0.2401	9.505	190.0	0.602274470	0.743644055	0.012264600	0.126531617	0.038998273
2020-05-30T05:00:00	0.2397	9.503	196.0	0.601170534	0.742025002	0.012222939	0.126101807	0.038865801
2020-05-30T05:05:00	0.2402	9.502	193.0	0.602734618	0.744319219	0.012281987	0.126710995	0.039053559
2020-05-30T05:10:00	0.2398	9.505	192.0	0.601297287	0.742210848	0.012227719	0.126151119	0.038881000
2020-05-30T05:15:00	0.2397	9.505	191.0	0.601193883	0.742059235	0.012223819	0.126110889	0.038868601
2020-05-30T05:20:00	0.2400	9.503	193.0	0.602091058	0.743374990	0.012257673	0.126460155	0.038976248
2020-05-30T05:25:00	0.2410	9.501	191.0	0.605321009	0.748117463	0.012379951	0.127721674	0.039365060
2020-05-30T05:30:00	0.2411	9.496	192.0	0.605550892	0.748455331	0.012388678	0.127811706	0.039392809
2020-05-30T05:35:00	0.2410	9.490	192.0	0.605447613	0.748303532	0.012384757	0.127771253	0.039380341
2020-05-30T05:40:00	0.2410	9.484	191.0	0.605344330	0.748151737	0.012380836	0.127730806	0.039367875
2020-05-30T05:45:00	0.2410	9.481	191.0	0.605241044	0.747999947	0.012376916	0.127690365	0.039355410
2020-05-30T05:50:00	0.2414	9.481	191.0	0.606803332	0.750296856	0.012436278	0.128302783	0.039544164
2020-05-30T05:55:00	0.2416	9.479	192.0	0.607366119	0.751124780	0.012457697	0.128523766	0.039612273
2020-05-30T06:00:00	0.2424	9.477	192.0	0.609925844	0.754893777	0.012555360	0.129531337	0.039922816
2020-05-30T06:05:00	0.2422	9.477	188.0	0.609489922	0.754251527	0.012538700	0.129359461	0.039869842
2020-05-30T06:10:00	0.2427	9.477	191.0	0.611050340	0.756551250	0.012598388	0.129975249	0.040059634
2020-05-30T06:15:00	0.2428	9.478	195.0	0.611279853	0.756889676	0.012607180	0.130065949	0.040087589
2020-05-30T06:20:00	0.2421	9.479	189.0	0.609180417	0.753795627	0.012526879	0.129237500	0.039832253
2020-05-30T06:25:00	0.2418	9.484	188.0	0.608078632	0.752173348	0.012484843	0.128803821	0.039698589
2020-05-30T06:30:00	0.2422	9.489	193.0	0.609306884	0.753981902	0.012531709	0.129287327	0.039847610
2020-05-30T06:35:00	0.2425	9.491	191.0	0.610202008	0.755300737	0.012565920	0.129640285	0.039956395
2020-05-30T06:40:00	0.2428	9.495	188.0	0.611429526	0.757110398	0.012612915	0.130125115	0.040105824
2020-05-30T06:45:00	0.2427	9.498	196.0	0.610993789	0.756467870	0.012596223	0.129952906	0.040052748
2020-05-30T06:50:00	0.2430	9.504	195.0	0.611888488	0.757787345	0.012630509	0.130306631	0.040161769
2020-05-30T06:55:00	0.2424	9.511	196.0	0.610122154	0.755183055	0.012562866	0.129608777	0.039946684
2020-05-30T07:00:00	0.2418	9.519	194.0	0.608022033	0.752090038	0.012482685	0.128781563	0.039691729
2020-05-30T07:05:00	0.2421	9.533	195.0	0.608917481	0.753408385	0.012516841	0.129133936	0.039800333
2020-05-30T07:10:00	0.2421	9.546	190.0	0.609147132	0.753746602	0.012525608	0.129224387	0.039828211
2020-05-30T07:15:00	0.2423	9.571	192.0	0.609709548	0.754575086	0.012547093	0.129446041	0.039896527
2020-05-30T07:20:00	0.2422	9.584	194.0	0.609273600	0.753932876	0.012530437	0.129274212	0.039843568
2020-05-30T07:25:00	0.2421	9.597	195.0	0.609170428	0.753780914	0.012526497	0.129233565	0.039831040
2020-05-30T07:30:00	0.2422	9.606	193.0	0.609400063	0.754119156	0.012535268	0.129324045	0.039858927
2020-05-30T07:35:00	0.2424	9.620	196.0	0.609962439	0.754947700	0.012556759	0.129545771	0.039927265
2020-05-30T07:40:00	0.2426	9.628	189.0	0.610524725	0.755776378	0.012578267	0.129767657	0.039995652
2020-05-30T07:45:00	0.2423	9.642	196.0	0.609756133	0.754643720	0.012548873	0.129464409	0.039902188
2020-05-30T07:50:00	0.2427	9.645	189.0	0.610983805	0.756453149	0.012595840	0.129948961	0.040051532
2020-05-30T07:55:00	0.2427	9.654	195.0	0.610880683	0.756301112	0.012591892	0.129908224	0.040038976
2020-05-30T08:00:00	0.2428	9.664	192.0	0.611442824	0.757130009	0.012613424	0.130130373	0.040107445
2020-05-30T08:05:00	0.2419	9.677	191.0	0.608344948	0.752565381	0.012494997	0.128908578	0.039730876
2020-05-30T08:10:00	0.2431	9.692	194.0	0.612234328	0.758297560	0.012643775	0.130443494	0.040203952
2020-05-30T08:15:00	0.2422	9.716	196.0	0.609469945	0.754222099	0.012537937	0.129351587	0.039867415
2020-05-30T08:20:00	0.2432	9.739	194.0	0.612693186	0.758974664	0.012661387	0.130625197	0.040259954
2020-05-30T08:25:00	0.2427	9.760	196.0	0.610927252	0.756369770	0.012593675	0.129926620	0.040044646
2020-05-30T08:30:00	0.2421	9.789	197.0	0.609160439	0.753766201	0.012526116	0.129229629	0.039829827
2020-05-30T08:35:00	0.2429	9.828	189.0	0.611718871	0.757537147	0.012624005	0.130239533	0.040141089
2020-05-30T08:40:00	0.2444	9.857	191.0	0.616601060	0.764748412	0.012811896	0.132177969	0.040738534
2020-05-30T08:45:00	0.2438	9.893	195.0	0.614837066	0.762140581	0.012743843	0.131475882	0.040522144
2020-05-30T08:50:00	0.2433	9.923	193.0	0.613072197	0.759534077	0.012675944	0.130775380	0.040306242
2020-05-30T08:55:00	0.2445	9.956	195.0	0.616956410	0.765274066	0.012825628	0.132319635	0.040782197
2020-05-30T09:00:00	0.2442	9.989	194.0	0.615857033	0.763648147	0.012783169	0.131881603	0.040647191
2020-05-30T09:05:00	0.2450	10.018	195.0	0.618742588	0.767917896	0.012894765	0.133032915	0.041002036
2020-05-30T09:10:00	0.2443	10.048	196.0	0.616315424	0.764325958	0.012800864	0.132064152	0.040703454
2020-05-30T09:15:00	0.2436	10.107	197.0	0.613886603	0.760736533	0.012707253	0.131098389	0.040405797
2020-05-30T09:20:00	0.2435	10.143	197.0	0.613783565	0.760584369	0.012703290	0.131057500	0.040393194
2020-05-30T09:25:00	0.2438	10.170	196.0	0.614677563	0.761904906	0.012737699	0.131412494	0.040502607
2020-05-30T09:30:00	0.2426	10.206	196.0	0.610584601	0.755864635	0.012580558	0.129791296	0.040002938
2020-05-30T09:35:00	0.2423	10.244	197.0	0.609816021	0.754731958	0.012551162	0.129488024	0.039909467
2020-05-30T09:40:00	0.2431	10.278	198.0	0.612373980	0.758503616	0.012649134	0.130498781	0.040220992
2020-05-30T09:45:00	0.2424	10.293	196.0	0.609942464	0.754918267	0.012555996	0.129537892	0.039924836
2020-05-30T09:50:00	0.2432	10.320	198.0	0.612832821	0.759180748	0.012666749	0.130680516	0.040277004
2020-05-30T09:55:00	0.2423	10.306	196.0	0.609736157	0.754614289	0.012548109	0.129456532	0.039899761
2020-05-30T10:00:00	0.2425	10.351	196.0	0.610298480	0.755442913	0.012569610	0.129678354	0.039968128
2020-05-30T10:05:00	0.2429	10.383	198.0	0.611623116	0.757395912	0.012620334	0.130201662	0.040129417
2020-05-30T10:10:00	0.2416	10.398	195.0	0.607290915	0.751014131	0.012454834	0.128494225	0.039603168
2020-05-30T10:15:00	0.2414	10.446	199.0	0.606618910	0.750025609	0.012429263	0.128230411	0.039521858
2020-05-30T10:20:00	0.2413	10.504	197.0	0.606279879	0.749527037	0.012416372	0.128097421	0.039480869
2020-05-30T10:25:00	0.2414	10.510	198.0	0.606606989	0.750008077	0.012428809	0.128225734	0.039520416
2020-05-30T10:30:00	0.2416	10.547	193.0	0.607267079	0.750979061	0.012453926	0.128484863	0.039600283
2020-05-30T10:35:00	0.2419	10.582	193.0	0.608259961	0.752440269	0.012491756	0.128875144	0.039720571
2020-05-30T10:40:00	0.2414	10.622	195.0	0.606589109	0.749981780	0.012428129	0.128218718	0.039518254
2020-05-30T10:45:00	0.2406	10.664	200.0	0.603917684	0.746055916	0.012326748	0.127172787	0.039195888
2020-05-30T10:50:00	0.2408	10.705	198.0	0.604578275	0.747026148	0.012351778	0.127431014	0.039275476
2020-05-30T10:55:00	0.2404	10.741	194.0	0.603239073	0.745059597	0.012301063	0.126907796	0.039114215
2020-05-30T11:00:00	0.2408	10.809	197.0	0.604566347	0.747008626	0.012351326	0.127426350	0.039274038
2020-05-30T11:05:00	0.2411	10.823	200.0	0.605559986	0.748468697	0.012389023	0.127815268	0.039393907
2020-05-30T11:10:00	0.2392	10.854	199.0	0.599218427	0.739164498	0.012149447	0.125343606	0.038632117
2020-05-30T11:15:00	0.2399	10.895	201.0	0.601547945	0.742578405	0.012237174	0.126248664	0.038911064
2020-05-30T11:20:00	0.2401	10.923	198.0	0.602208977	0.743547974	0.012262126	0.126506097	0.038990408
2020-05-30T11:25:00	0.2409	10.963	198.0	0.604869764	0.747454384	0.012362831	0.127545044	0.039310621
2020-05-30T11:30:00	0.2397	10.991	202.0	0.600862909	0.741574015	0.012211342	0.125982169	0.038828928
2020-05-30T11:35:00	0.2390	11.007	198.0	0.598854793	0.738632004	0.012135782	0.125202630	0.038588667
2020-05-30T11:40:00	0.2380	11.059	205.0	0.595509382	0.733738261	0.012010439	0.123909485	0.038190107
2020-05-30T11:45:00	0.2377	11.152	197.0	0.594500955	0.732264944	0.011972787	0.123521036	0.038070383
2020-05-30T11:50:00	0.2372	11.241	205.0	0.592823590	0.729816188	0.011910293	0.122876299	0.037871669
2020-05-30T11:55:00	0.2367	11.266	200.0	0.591145427	0.727368615	0.011847938	0.122232987	0.037673394
2020-05-30T12:00:00	0.2360	11.320	199.0	0.588797053	0.723947490	0.011760961	0.121335662	0.037396829
2020-05-30T12:05:00	0.2371	11.363	197.0	0.592471266	0.729302134	0.011897188	0.122741094	0.037829997
2020-05-30T12:10:00	0.2374	11.405	200.0	0.593468309	0.730757124	0.011934294	0.123123908	0.037947984
2020-05-30T12:15:00	0.2360	11.442	198.0	0.588779082	0.723921328	0.011760296	0.121328808	0.037394717
2020-05-30T12:20:00	0.2367	11.511	200.0	0.591115496	0.727324981	0.011846827	0.122221529	0.037669862
2020-05-30T12:25:00	0.2361	11.525	201.0	0.589101826	0.724391226	0.011772230	0.121451926	0.037432663
2020-05-30T12:30:00	0.2356	11.492	197.0	0.587421890	0.721946278	0.011710181	0.120811779	0.037235363
2020-05-30T12:35:00	0.2351	11.463	199.0	0.585741152	0.719502514	0.011648271	0.120173060	0.037038504
2020-05-30T12:40:00	0.2349	11.497	200.0	0.585065034	0.718520113	0.011623413	0.119916609	0.036959463
2020-05-30T12:45:00	0.2350	11.527	203.0	0.585394115	0.718998221	0.011635508	0.120041394	0.036997923
2020-05-30T12:50:00	0.2336	11.543	201.0	0.580694114	0.712178325	0.011463371	0.118265484	0.036450571
2020-05-30T12:55:00	0.2343	11.555	198.0	0.583035900	0.715574059	0.011548975	0.119148642	0.036722769
2020-05-30T13:00:00	0.2328	11.549	200.0	0.577996989	0.708272970	0.011365181	0.117252478	0.036138353
2020-05-30T13:05:00	0.2334	11.529	203.0	0.580005014	0.711179955	0.011438243	0.118006243	0.036370670
2020-05-30T13:10:00	0.2341	11.521	203.0	0.582347259	0.714575014	0.011523768	0.118888586	0.036642617
2020-05-30T13:15:00	0.2338	11.565	200.0	0.581335055	0.713107276	0.011486768	0.118506868	0.036524968
2020-05-30T13:20:00	0.2342	11.591	205.0	0.582670594	0.715044042	0.011535599	0.119010653	0.036680239
2020-05-30T13:25:00	0.2341	11.569	201.0	0.582329255	0.714548900	0.011523109	0.118881791	0.036640523
2020-05-30T13:30:00	0.2326	11.535	206.0	0.577289329	0.707249299	0.011339490	0.116987428	0.036056661
2020-05-30T13:35:00	0.2316	11.525	204.0	0.573923346	0.702385896	0.011217696	0.115730907	0.035669389
2020-05-30T13:40:00	0.2318	11.495	200.0	0.574589584	0.703347777	0.011241750	0.115979063	0.035745874
2020-05-30T13:45:00	0.2320	11.460	205.0	0.575255695	0.704309842	0.011265825	0.116227444	0.035822427
2020-05-30T13:50:00	0.2321	11.435	201.0	0.575585697	0.704786601	0.011277762	0.116350596	0.035860384
2020-05-30T13:55:00	0.2325	11.453	202.0	0.576923424	0.706720160	0.011326218	0.116850500	0.036014459
2020-05-30T14:00:00	0.2327	11.481	199.0	0.577589092	0.707682873	0.011350369	0.117099665	0.036091254
2020-05-30T14:05:00	0.2324	11.482	199.0	0.576575515	0.706217147	0.011313605	0.116720382	0.035974355
2020-05-30T14:10:00	0.2323	11.475	202.0	0.576233583	0.705722874	0.011301217	0.116592572	0.035934963
2020-05-30T14:15:00	0.2327	11.461	201.0	0.577571064	0.707656795	0.011349715	0.117092913	0.036089173
2020-05-30T14:20:00	0.2323	11.446	200.0	0.576221559	0.705705496	0.011300781	0.116588079	0.035933578
2020-05-30T14:25:00	0.2320	11.429	201.0	0.575207587	0.704240348	0.011264086	0.116209496	0.035816895
2020-05-30T14:30:00	0.2318	11.418	197.0	0.574529437	0.703260925	0.011239578	0.115956649	0.035738965
2020-05-30T14:35:00	0.2318	11.414	197.0	0.574523423	0.703252240	0.011239360	0.115954408	0.035738275
2020-05-30T14:40:00	0.2320	11.407	200.0	0.575189546	0.704214287	0.011263433	0.116202766	0.035814821
2020-05-30T14:45:00	0.2316	11.403	199.0	0.573839125	0.702264327	0.011214658	0.115699556	0.035659727
2020-05-30T14:50:00	0.2317	11.403	199.0	0.574169260	0.702740891	0.011226572	0.115822472	0.035697611
2020-05-30T14:55:00	0.2313	11.407	200.0	0.572818445	0.700791504	0.011177863	0.115319956	0.035542731
2020-05-30T15:00:00	0.2322	11.410	201.0	0.575837506	0.705150454	0.011286875	0.116444613	0.035889361
2020-05-30T15:05:00	0.2326	11.392	199.0	0.577175138	0.707084154	0.011335347	0.116944686	0.036043488
2020-05-30T15:10:00	0.2330	11.374	200.0	0.578512259	0.709018600	0.011383906	0.117445663	0.036197894
2020-05-30T15:15:00	0.2331	11.364	197.0	0.578841955	0.709495805	0.011395896	0.117569358	0.036236018
2020-05-30T15:20:00	0.2331	11.368	197.0	0.578835947	0.709487110	0.011395677	0.117567103	0.036235323
2020-05-30T15:25:00	0.2334	11.375	197.0	0.579836861	0.710936394	0.011432115	0.117943028	0.036351187
2020-05-30T15:30:00	0.2336	11.367	200.0	0.580501976	0.711899916	0.011456362	0.118193172	0.036428284
2020-05-30T15:35:00	0.2335	11.350	201.0	0.580160426	0.711405083	0.011443908	0.118064684	0.036388682
2020-05-30T15:40:00	0.2340	11.336	199.0	0.581831829	0.713827513	0.011504919	0.118694131	0.036582684
2020-05-30T15:45:00	0.2348	11.322	206.0	0.584508020	0.717711055	0.011602955	0.119705544	0.036894411
2020-05-30T15:50:00	0.2343	11.309	200.0	0.582825889	0.715269343	0.011541284	0.119069303	0.036698316
2020-05-30T15:55:00	0.2352	11.296	199.0	0.585836359	0.719640880	0.011651773	0.120209194	0.037049641
2020-05-30T16:00:00	0.2356	11.285	200.0	0.587170189	0.721580159	0.011700899	0.120716016	0.037205849
2020-05-30T16:05:00	0.2349	11.279	197.0	0.584970490	0.718382771	0.011619939	0.119880770	0.036948418
2020-05-30T16:10:00	0.2344	11.275	200.0	0.583439975	0.716160453	0.011563779	0.119301371	0.036769841
2020-05-30T16:15:00	0.2341	11.275	202.0	0.582244171	0.714425494	0.011519997	0.118849682	0.036630626
2020-05-30T16:20:00	0.2341	11.274	197.0	0.582389610	0.714636443	0.011525317	0.118904571	0.036647544
2020-05-30T16:25:00	0.2336	11.271	201.0	0.580522460	0.711929595	0.011457109	0.118200880	0.036430659
2020-05-30T16:30:00	0.2326	11.270	200.0	0.577311239	0.707280987	0.011340285	0.116995629	0.036059189
2020-05-30T16:35:00	0.2327	11.268	201.0	0.577456881	0.707491636	0.011345570	0.117050156	0.036075995
2020-05-30T16:40:00	0.2320	11.265	200.0	0.575251090	0.704303190	0.011265659	0.116225726	0.035821898
2020-05-30T16:45:00	0.2317	11.259	201.0	0.574388622	0.703057599	0.011234492	0.115904182	0.035722794
2020-05-30T16:50:00	0.2312	11.254	204.0	0.572517207	0.700356988	0.011167016	0.115208045	0.035508238
2020-05-30T16:55:00	0.2300	11.249	198.0	0.568625369	0.694750014	0.011027355	0.113767190	0.035064153
2020-05-30T17:00:00	0.2305	11.246	198.0	0.570117728	0.696898577	0.011080803	0.114318606	0.035234105
2020-05-30T17:05:00	0.2301	11.245	197.0	0.568917372	0.695170268	0.011037803	0.113874976	0.035097374
2020-05-30T17:10:00	0.2304	11.242	200.0	0.569736550	0.696349616	0.011067139	0.114177634	0.035190656
2020-05-30T17:15:00	0.2301	11.239	207.0	0.568872723	0.695106004	0.011036205	0.113858491	0.035092293
2020-05-30T17:20:00	0.2295	11.235	201.0	0.566998355	0.692409684	0.010969234	0.113167567	0.034879343
2020-05-30T17:25:00	0.2282	11.231	197.0	0.562425897	0.685844272	0.010806732	0.111491057	0.034362627
2020-05-30T17:30:00	0.2273	11.226	198.0	0.559535575	0.681703065	0.010704647	0.110437872	0.034038025
2020-05-30T17:35:00	0.2279	11.220	198.0	0.561369208	0.684329467	0.010769353	0.111105428	0.034243772
2020-05-30T17:40:00	0.2281	11.214	199.0	0.562190159	0.685506252	0.010798387	0.111404968	0.034336093
2020-05-30T17:45:00	0.2282	11.205	197.0	0.562336432	0.685715985	0.010803564	0.111458382	0.034352556
2020-05-30T17:50:00	0.2271	11.197	199.0	0.558770863	0.680608548	0.010677720	0.110160072	0.033952404
2020-05-30T17:55:00	0.2282	11.185	197.0	0.562291699	0.685651843	0.010801981	0.111442045	0.034347521
2020-05-30T18:00:00	0.2288	11.172	198.0	0.564460969	0.688764222	0.010878905	0.112235653	0.034592118
2020-05-30T18:05:00	0.2283	11.158	198.0	0.562921466	0.686555006	0.010824284	0.111672145	0.034418440
2020-05-30T18:10:00	0.2284	11.146	197.0	0.563067709	0.686764784	0.010829467	0.111725612	0.034434919
2020-05-30T18:15:00	0.2283	11.134	198.0	0.562876740	0.686490853	0.010822699	0.111655795	0.034413400
2020-05-30T18:20:00	0.2287	11.122	201.0	0.564034463	0.688151981	0.010863758	0.112079393	0.034543957
2020-05-30T18:25:00	0.2279	11.108	199.0	0.561482847	0.684492328	0.010773369	0.111146867	0.034256544
2020-05-30T18:30:00	0.2280	11.093	197.0	0.561629150	0.684702019	0.010778542	0.111200229	0.034272990
2020-05-30T18:35:00	0.2281	11.079	196.0	0.562112760	0.685395281	0.010795648	0.111376710	0.034327384
2020-05-30T18:40:00	0.2280	11.063	200.0	0.561921739	0.685121426	0.010788890	0.111306985	0.034305894
2020-05-30T18:45:00	0.2288	11.046	199.0	0.564428328	0.688717360	0.010877745	0.112223690	0.034588431
2020-05-30T18:50:00	0.2293	11.029	198.0	0.566259392	0.691347467	0.010942888	0.112895761	0.034795570
2020-05-30T18:55:00	0.2290	11.012	197.0	0.565057709	0.689621080	0.010900114	0.112454467	0.034659559
2020-05-30T19:00:00	0.2293	10.993	199.0	0.566214709	0.691283252	0.010941296	0.112879336	0.034790508
2020-05-30T19:05:00	0.2296	10.974	196.0	0.567034521	0.692461682	0.010970524	0.113180878	0.034883446
2020-05-30T19:10:00	0.2305	10.955	195.0	0.570210539	0.697032258	0.011084132	0.114352944	0.035244688
2020-05-30T19:15:00	0.2308	10.935	199.0	0.571365835	0.698696900	0.011125605	0.114780816	0.035376562
2020-05-30T19:20:00	0.2310	10.913	200.0	0.571848099	0.699392111	0.011142941	0.114959667	0.035431686
2020-05-30T19:25:00	0.2309	10.889	197.0	0.571657609	0.699117486	0.011136092	0.114889005	0.035409907
2020-05-30T19:30:00	0.2308	10.867	200.0	0.571130699	0.698358008	0.011117158	0.114693665	0.035349702
2020-05-30T19:35:00	0.2318	10.843	196.0	0.574639109	0.703419293	0.011243539	0.115997521	0.035751563
2020-05-30T19:40:00	0.2322	10.819	198.0	0.575792945	0.705086062	0.011285262	0.116427972	0.035884232
2020-05-30T19:45:00	0.2321	10.793	199.0	0.575602670	0.704811124	0.011278377	0.116356932	0.035862337
2020-05-30T19:50:00	0.2319	10.767	199.0	0.575076352	0.704050781	0.011259341	0.116160544	0.035801808
2020-05-30T19:55:00	0.2319	10.741	200.0	0.574886038	0.703775901	0.011252462	0.116089572	0.035779934
2020-05-30T20:00:00	0.2328	10.715	195.0	0.578054946	0.708356827	0.011367287	0.117274200	0.036145047
2020-05-30T20:05:00	0.2329	10.688	201.0	0.578200558	0.708567522	0.011372577	0.117328781	0.036161870
2020-05-30T20:10:00	0.2330	10.662	202.0	0.578681883	0.709264104	0.011390074	0.117509294	0.036217506
2020-05-30T20:15:00	0.2333	10.636	202.0	0.579498782	0.710446775	0.011419801	0.117815983	0.036312030
2020-05-30T20:20:00	0.2327	10.609	197.0	0.577630093	0.707742182	0.011351857	0.117115021	0.036095987
2020-05-30T20:25:00	0.2320	10.582	202.0	0.575088380	0.704068154	0.011259776	0.116165030	0.035803190
2020-05-30T20:30:00	0.2325	10.554	198.0	0.576913876	0.706706354	0.011325871	0.116846928	0.036013358
2020-05-30T20:35:00	0.2322	10.525	203.0	0.576051817	0.705460166	0.011294634	0.116524659	0.035914032
2020-05-30T20:40:00	0.2321	10.498	193.0	0.575525567	0.704699724	0.011275587	0.116328152	0.035853466
2020-05-30T20:45:00	0.2324	10.470	200.0	0.576679111	0.706366918	0.011317360	0.116759119	0.035986295
2020-05-30T20:50:00	0.2327	10.442	194.0	0.577496477	0.707548908	0.011347007	0.117064982	0.036080564
2020-05-30T20:55:00	0.2326	10.415	193.0	0.577306294	0.707273835	0.011340106	0.116993778	0.036058619
2020-05-30T21:00:00	0.2331	10.387	196.0	0.578794960	0.709427780	0.011394187	0.117551722	0.036230582
2020-05-30T21:05:00	0.2330	10.359	196.0	0.578604848	0.709152604	0.011387273	0.117480394	0.036208598
2020-05-30T21:10:00	0.2328	10.331	198.0	0.578078981	0.708391603	0.011368160	0.117283208	0.036147824
2020-05-30T21:15:00	0.2328	10.303	197.0	0.577888830	0.708116485	0.011361253	0.117211948	0.036125861
2020-05-30T21:20:00	0.2330	10.276	196.0	0.578705913	0.709298886	0.011390948	0.117518310	0.036220284
2020-05-30T21:25:00	0.2332	10.249	193.0	0.579187168	0.709995569	0.011408457	0.117698945	0.036275958
2020-05-30T21:30:00	0.2332	10.221	199.0	0.579332733	0.710206333	0.011413755	0.117753610	0.036292806
2020-05-30T21:35:00	0.2331	10.193	194.0	0.578806975	0.709445171	0.011394624	0.117556231	0.036231972
2020-05-30T21:40:00	0.2329	10.165	193.0	0.578281139	0.708684126	0.011375505	0.117358991	0.036171181
2020-05-30T21:45:00	0.2332	10.139	193.0	0.579433777	0.710352645	0.011417434	0.117791563	0.036304504
2020-05-30T21:50:00	0.2330	10.112	192.0	0.578572338	0.709105551	0.011386091	0.117468198	0.036204840
2020-05-30T21:55:00	0.2330	10.084	198.0	0.578717928	0.709316277	0.011391385	0.117522818	0.036221674
2020-05-30T22:00:00	0.2325	10.057	196.0	0.576848824	0.706612293	0.011323513	0.116822593	0.036005858
2020-05-30T22:05:00	0.2324	10.031	191.0	0.576655600	0.706332927	0.011316508	0.116750327	0.035983585
2020-05-30T22:10:00	0.2324	10.005	194.0	0.576462366	0.706053576	0.011309505	0.116678080	0.035961318
2020-05-30T22:15:00	0.2316	9.978	194.0	0.573916798	0.702376443	0.011217460	0.115728469	0.035668638
2020-05-30T22:20:00	0.2310	9.951	194.0	0.572042121	0.699671860	0.011149919	0.115031661	0.035453875
2020-05-30T22:25:00	0.2313	9.925	195.0	0.572857560	0.700847930	0.011179272	0.115334492	0.035547210
2020-05-30T22:30:00	0.2306	9.899	196.0	0.570645859	0.697659371	0.011099750	0.114514072	0.035294349
2020-05-30T22:35:00	0.2302	9.871	194.0	0.569106066	0.695441877	0.011044557	0.113944656	0.035118850
2020-05-30T22:40:00	0.2305	9.845	194.0	0.570258716	0.697101652	0.011085860	0.114370770	0.035250182
2020-05-30T22:45:00	0.2300	9.817	191.0	0.568382078	0.694399920	0.011018654	0.113677424	0.035036486
2020-05-30T22:50:00	0.2298	9.792	190.0	0.567851661	0.693636824	0.010999697	0.113481845	0.034976207
2020-05-30T22:55:00	0.2308	9.765	195.0	0.571360348	0.698688992	0.011125408	0.114778782	0.035375935
2020-05-30T23:00:00	0.2302	9.738	197.0	0.569147701	0.695501810	0.011046047	0.113960033	0.035123589
2020-05-30T23:05:00	0.2304	9.713	192.0	0.569963814	0.696676899	0.011075285	0.114261673	0.035216557
2020-05-30T23:10:00	0.2310	9.685	191.0	0.571788972	0.699306866	0.011140815	0.114937731	0.035424925
2020-05-30T23:15:00	0.2310	9.661	190.0	0.571931835	0.699512841	0.011145952	0.114990735	0.035441261
2020-05-30T23:20:00	0.2324	9.635	190.0	0.576444332	0.706027506	0.011308852	0.116671339	0.035959240
2020-05-30T23:25:00	0.2324	9.613	190.0	0.576587005	0.706233758	0.011314022	0.116724678	0.035975679
2020-05-30T23:30:00	0.2312	9.589	189.0	0.572696681	0.700615858	0.011173478	0.115274714	0.035528786
2020-05-30T23:35:00	0.2312	9.566	193.0	0.572503228	0.700336826	0.011166513	0.115202853	0.035506638
2020-05-30T23:40:00	0.2315	9.542	189.0	0.573654760	0.701998228	0.011208007	0.115630942	0.035638579
2020-05-30T23:45:00	0.2312	9.521	195.0	0.572452607	0.700263816	0.011164690	0.115184053	0.035500844
2020-05-30T23:50:00	0.2312	9.500	193.0	0.572595442	0.700469830	0.011169833	0.115237105	0.035517195
2020-05-30T23:55:00	0.2318	9.477	191.0	0.574419230	0.703101792	0.011235597	0.115915585	0.035726309
2020-05-31T00:00:00	0.2325	9.454	192.0	0.576913876	0.706706354	0.011325871	0.116846928	0.036013358
2020-05-31T00:05:00	0.2324	9.435	195.0	0.576720656	0.706426982	0.011318866	0.116774656	0.035991083
2020-05-31T00:10:00	0.2319	9.413	188.0	0.574847479	0.703720212	0.011251068	0.116075196	0.035775503
2020-05-31T00:15:00	0.2313	9.392	192.0	0.572973301	0.701014903	0.011183442	0.115377508	0.035560468
2020-05-31T00:20:00	0.2309	9.372	189.0	0.571434532	0.698795920	0.011128074	0.114806284	0.035384412
2020-05-31T00:25:00	0.2297	9.351	190.0	0.567538476	0.693186362	0.010988511	0.113366445	0.034940639
2020-05-31T00:30:00	0.2297	9.331	190.0	0.567344738	0.692907745	0.010981595	0.113295088	0.034918646
2020-05-31T00:35:00	0.2290	9.313	189.0	0.565129546	0.689724251	0.010902669	0.112480823	0.034667682
2020-05-31T00:40:00	0.2289	9.294	192.0	0.564935674	0.689445827	0.010895775	0.112409701	0.034645762
2020-05-31T00:45:00	0.2282	9.277	193.0	0.562381700	0.685780895	0.010805167	0.111474914	0.034357651
2020-05-31T00:50:00	0.2296	9.259	194.0	0.567243344	0.692761942	0.010977976	0.113257752	0.034907139
2020-05-31T00:55:00	0.2294	9.243	191.0	0.566375886	0.691514891	0.010947039	0.112938587	0.034808769
2020-05-31T01:00:00	0.2290	9.227	192.0	0.565171228	0.689784115	0.010904151	0.112496116	0.034672396
2020-05-31T01:05:00	0.2285	9.212	193.0	0.563629021	0.687570118	0.010849370	0.111930954	0.034498207
2020-05-31T01:10:00	0.2283	9.197	193.0	0.562760664	0.686324365	0.010818587	0.111613369	0.034400324
2020-05-31T01:15:00	0.2273	9.181	192.0	0.559530070	0.681695184	0.010704453	0.110435870	0.034037408
2020-05-31T01:20:00	0.2270	9.167	192.0	0.558323045	0.679967820	0.010661968	0.109997557	0.033902315
2020-05-31T01:25:00	0.2276	9.151	194.0	0.560491766	0.683072317	0.010738365	0.110785729	0.034145238
2020-05-31T01:30:00	0.2272	9.134	196.0	0.558947488	0.680861305	0.010683937	0.110224204	0.033972170
2020-05-31T01:35:00	0.2258	9.118	195.0	0.554361428	0.674306804	0.010523128	0.108565172	0.033460840
2020-05-31T01:40:00	0.2254	9.101	194.0	0.553152609	0.672582013	0.010480947	0.108130000	0.033326716
2020-05-31T01:45:00	0.2248	9.085	195.0	0.550928374	0.669411520	0.010403559	0.107331596	0.033080640
2020-05-31T01:50:00	0.2244	9.071	186.0	0.549718361	0.667688435	0.010361580	0.106898512	0.032947160
2020-05-31T01:55:00	0.2245	9.055	194.0	0.549862131	0.667893103	0.010366563	0.106949924	0.032963005
2020-05-31T02:00:00	0.2239	9.040	196.0	0.547974473	0.665207214	0.010301231	0.106275906	0.032755266
2020-05-31T02:05:00	0.2245	9.026	194.0	0.549811179	0.667820568	0.010364797	0.106931702	0.032957389
2020-05-31T02:10:00	0.2239	9.012	190.0	0.547923494	0.665134717	0.010299470	0.106257733	0.032749665
2020-05-31T02:15:00	0.2237	8.999	186.0	0.547389951	0.664376108	0.010281043	0.106067630	0.032691074
2020-05-31T02:20:00	0.2229	8.986	187.0	0.544484066	0.660248513	0.010180979	0.105035279	0.032372893
2020-05-31T02:25:00	0.2227	8.972	187.0	0.543949994	0.659490656	0.010162642	0.104846099	0.032314586
2020-05-31T02:30:00	0.2226	8.957	193.0	0.543415840	0.658732916	0.010144318	0.104657062	0.032256323
2020-05-31T02:35:00	0.2219	8.943	187.0	0.541185351	0.655571311	0.010067986	0.103869556	0.032013606
2020-05-31T02:40:00	0.2219	8.930	187.0	0.540990140	0.655294802	0.010061319	0.103800776	0.031992407
2020-05-31T02:45:00	0.2220	8.915	186.0	0.541473594	0.655979652	0.010077834	0.103971155	0.032044920
2020-05-31T02:50:00	0.2215	8.902	186.0	0.539920835	0.653780730	0.010024841	0.103424434	0.031876415
2020-05-31T02:55:00	0.2221	8.888	189.0	0.541761813	0.656388026	0.010087686	0.104072796	0.032076246
2020-05-31T03:00:00	0.2218	8.874	190.0	0.540887975	0.655150103	0.010057831	0.103764790	0.031981316
2020-05-31T03:05:00	0.2213	8.861	189.0	0.538995422	0.652471154	0.009993325	0.103099291	0.031776203
2020-05-31T03:10:00	0.2210	8.850	186.0	0.538120885	0.651234217	0.009963588	0.102792498	0.031681646
2020-05-31T03:15:00	0.2208	8.839	187.0	0.537246127	0.649997592	0.009933888	0.102486089	0.031587208
2020-05-31T03:20:00	0.2210	8.828	194.0	0.538069761	0.651161927	0.009961851	0.102774578	0.031676123
2020-05-31T03:25:00	0.2214	8.820	186.0	0.539572248	0.653287354	0.010012963	0.103301898	0.031838648
2020-05-31T03:30:00	0.2215	8.812	192.0	0.539716440	0.653491425	0.010017876	0.103352575	0.031854267
2020-05-31T03:35:00	0.2215	8.803	186.0	0.539860625	0.653695504	0.010022789	0.103403264	0.031869890
2020-05-31T03:40:00	0.2221	8.796	189.0	0.541701635	0.656302755	0.010085628	0.104051570	0.032069704
2020-05-31T03:45:00	0.2229	8.789	188.0	0.544558825	0.660354616	0.010183547	0.105061774	0.032381059
2020-05-31T03:50:00	0.2235	8.783	192.0	0.546736147	0.663446824	0.010258486	0.105834913	0.032619348
2020-05-31T03:55:00	0.2233	8.777	186.0	0.545863562	0.662207124	0.010228420	0.105524725	0.032523745
2020-05-31T04:00:00	0.2234	8.773	185.0	0.546346337	0.662892936	0.010245049	0.105696286	0.032576622
2020-05-31T04:05:00	0.2234	8.768	190.0	0.546295334	0.662820474	0.010243292	0.105678155	0.032571034
2020-05-31T04:10:00	0.2233	8.766	192.0	0.545905475	0.662266656	0.010229863	0.105539614	0.032528334
2020-05-31T04:15:00	0.2232	8.764	191.0	0.545515573	0.661712901	0.010216442	0.105401150	0.032485658
2020-05-31T04:20:00	0.2231	8.763	192.0	0.545125626	0.661159208	0.010203028	0.105262762	0.032443006
2020-05-31T04:25:00	0.2234	8.761	186.0	0.546091314	0.662530636	0.010236263	0.105605643	0.032548685
2020-05-31T04:30:00	0.2233	8.760	189.0	0.546040308	0.662458179	0.010234507	0.105587518	0.032543098
2020-05-31T04:35:00	0.2242	8.759	190.0	0.549037730	0.666719729	0.010338005	0.106655293	0.032872197
2020-05-31T04:40:00	0.2239	8.760	185.0	0.547970906	0.665202141	0.010301108	0.106274634	0.032754874
2020-05-31T04:45:00	0.2240	8.761	185.0	0.548258585	0.665611281	0.010311051	0.106377214	0.032786491
2020-05-31T04:50:00	0.2256	8.764	194.0	0.553621734	0.673251237	0.010497307	0.108298779	0.033378735
2020-05-31T04:55:00	0.2265	8.766	188.0	0.556612626	0.677522106	0.010601911	0.109377960	0.033711349
2020-05-31T05:00:00	0.2272	8.769	186.0	0.558925807	0.680830278	0.010683173	0.110216331	0.033969744
2020-05-31T05:05:00	0.2261	8.773	189.0	0.555497256	0.675928545	0.010562840	0.108974875	0.033587115
2020-05-31T05:10:00	0.2265	8.777	191.0	0.556797893	0.677786902	0.010608408	0.109444987	0.033732008
2020-05-31T05:15:00	0.2267	8.784	190.0	0.557422609	0.678679994	0.010630330	0.109671154	0.033801715
2020-05-31T05:20:00	0.2276	8.792	188.0	0.560410239	0.682955543	0.010735488	0.110756049	0.034136090
2020-05-31T05:25:00	0.2268	8.801	187.0	0.557658671	0.679017550	0.010638620	0.109756677	0.033828074
2020-05-31T05:30:00	0.2271	8.810	191.0	0.558620883	0.680393941	0.010672443	0.110105630	0.033935625
2020-05-31T05:35:00	0.2267	8.821	186.0	0.557556995	0.678872154	0.010635049	0.109719837	0.033816719
2020-05-31T05:40:00	0.2257	8.832	190.0	0.554127096	0.673972356	0.010514944	0.108480744	0.033434819
2020-05-31T05:45:00	0.2261	8.843	193.0	0.555428244	0.675829979	0.010560425	0.108949959	0.033579436
2020-05-31T05:50:00	0.2285	8.855	187.0	0.563478715	0.687354443	0.010844039	0.111875949	0.034481254
2020-05-31T05:55:00	0.2294	8.866	189.0	0.566461165	0.691637460	0.010950079	0.112969944	0.034818434
2020-05-31T06:00:00	0.2303	8.875	193.0	0.569441070	0.695924158	0.011056553	0.114068417	0.035156994
2020-05-31T06:05:00	0.2299	8.886	193.0	0.568043769	0.693913178	0.011006561	0.113552661	0.034998033
2020-05-31T06:10:00	0.2299	8.899	194.0	0.568329795	0.694324692	0.011016785	0.113658139	0.035030542
2020-05-31T06:15:00	0.2291	8.915	190.0	0.565584467	0.690377696	0.010918854	0.112647800	0.034719146
2020-05-31T06:20:00	0.2290	8.933	195.0	0.565196763	0.689820790	0.010905059	0.112505486	0.034675284
2020-05-31T06:25:00	0.2290	8.953	193.0	0.565146036	0.689747933	0.010903255	0.112486873	0.034669547
2020-05-31T06:30:00	0.2297	8.970	190.0	0.567453566	0.693064249	0.010985480	0.113335169	0.034931000
2020-05-31T06:35:00	0.2301	8.989	189.0	0.568749753	0.694929021	0.011031805	0.113813097	0.035078302
2020-05-31T06:40:00	0.2297	9.009	186.0	0.567352176	0.692918442	0.010981860	0.113297827	0.034919491
2020-05-31T06:45:00	0.2295	9.028	187.0	0.566964668	0.692361252	0.010968032	0.113155169	0.034875522
2020-05-31T06:50:00	0.2292	9.048	196.0	0.565903323	0.690835800	0.010930205	0.112764910	0.034755240
2020-05-31T06:55:00	0.2286	9.062	192.0	0.563830411	0.687859123	0.010856516	0.112004674	0.034520928
2020-05-31T07:00:00	0.2291	9.081	192.0	0.565464931	0.690205979	0.010914600	0.112603912	0.034705619
2020-05-31T07:05:00	0.2292	9.104	192.0	0.565751169	0.690617187	0.010924787	0.112709018	0.034738014
2020-05-31T07:10:00	0.2293	9.121	191.0	0.566037382	0.691028430	0.010934979	0.112814166	0.034770422
2020-05-31T07:15:00	0.2296	9.139	194.0	0.567334095	0.692892440	0.010981215	0.113291169	0.034917439
2020-05-31T07:20:00	0.2297	9.169	188.0	0.567620179	0.693303870	0.010991429	0.113396545	0.034949916
2020-05-31T07:25:00	0.2295	9.196	189.0	0.566895883	0.692262360	0.010965579	0.113129856	0.034867720
2020-05-31T07:30:00	0.2296	9.215	190.0	0.567182003	0.692673738	0.010975787	0.113235168	0.034900179
2020-05-31T07:35:00	0.2303	9.231	194.0	0.569488190	0.695992000	0.011058241	0.114085830	0.035162361
2020-05-31T07:40:00	0.2301	9.248	195.0	0.568764281	0.694949929	0.011032325	0.113818460	0.035079955
2020-05-31T07:45:00	0.2307	9.265	192.0	0.570732977	0.697784891	0.011102877	0.114546332	0.035304292
2020-05-31T07:50:00	0.2305	9.283	192.0	0.570345844	0.697227158	0.011088985	0.114403013	0.035260120
2020-05-31T07:55:00	0.2304	9.302	194.0	0.569958668	0.696669488	0.011075100	0.114259770	0.035215971
2020-05-31T08:00:00	0.2313	9.317	192.0	0.572935597	0.700960508	0.011182083	0.115363494	0.035556149
2020-05-31T08:05:00	0.2317	9.333	196.0	0.574229755	0.702828228	0.011228756	0.115845003	0.035704555
2020-05-31T08:10:00	0.2317	9.352	191.0	0.574179159	0.702755181	0.011226929	0.115826158	0.035698747
2020-05-31T08:15:00	0.2326	9.370	187.0	0.577152504	0.707051423	0.011334526	0.116936216	0.036040877
2020-05-31T08:20:00	0.2325	9.386	188.0	0.576766080	0.706492657	0.011320513	0.116791644	0.035996319
2020-05-31T08:25:00	0.2319	9.399	198.0	0.575035664	0.703992010	0.011257870	0.116145369	0.035797131
2020-05-31T08:30:00	0.2328	9.410	194.0	0.578008284	0.708289312	0.011365591	0.117256711	0.036139657
2020-05-31T08:35:00	0.2321	9.420	194.0	0.575606551	0.704816733	0.011278517	0.116358381	0.035862783
2020-05-31T08:40:00	0.2320	9.434	187.0	0.575219957	0.704258216	0.011264533	0.116214111	0.035818318
2020-05-31T08:45:00	0.2330	9.446	190.0	0.578528154	0.709041603	0.011384484	0.117451625	0.036199731
2020-05-31T08:50:00	0.2331	9.453	194.0	0.578813325	0.709454363	0.011394855	0.117558614	0.036232706
2020-05-31T08:55:00	0.2332	9.463	190.0	0.579434119	0.710353140	0.011417447	0.117791692	0.036304543
2020-05-31T09:00:00	0.2336	9.473	198.0	0.580725883	0.712224361	0.011464530	0.118277442	0.036454256
2020-05-31T09:05:00	0.2326	9.481	192.0	0.577318656	0.707291714	0.011340554	0.116998406	0.036060045
2020-05-31T09:10:00	0.2316	9.495	192.0	0.573908117	0.702363912	0.011217147	0.115725237	0.035667642
2020-05-31T09:15:00	0.2318	9.508	189.0	0.574529780	0.703261420	0.011239590	0.115956777	0.035739005
2020-05-31T09:20:00	0.2311	9.520	189.0	0.572125662	0.699792322	0.011152925	0.115062667	0.035463432
2020-05-31T09:25:00	0.2308	9.542	194.0	0.571065882	0.698264598	0.011114830	0.114669648	0.035342299
2020-05-31T09:30:00	0.2303	9.558	192.0	0.569669230	0.696252676	0.011064727	0.114152746	0.035182985
2020-05-31T09:35:00	0.2303	9.568	191.0	0.569618567	0.696179725	0.011062911	0.114134018	0.035177213
2020-05-31T09:40:00	0.2301	9.578	191.0	0.568894685	0.695137614	0.011036991	0.113866600	0.035094792
2020-05-31T09:45:00	0.2302	9.588	197.0	0.569180642	0.695549229	0.011047227	0.113972200	0.035127339
2020-05-31T09:50:00	0.2297	9.599	196.0	0.567446471	0.693054046	0.010985226	0.113332556	0.034930194
2020-05-31T09:55:00	0.2297	9.612	197.0	0.567395776	0.692981142	0.010983417	0.113313884	0.034924440
2020-05-31T10:00:00	0.2302	9.623	194.0	0.569028630	0.695330411	0.011041785	0.113916058	0.035110035
2020-05-31T10:05:00	0.2304	9.634	191.0	0.569794111	0.696432505	0.011069202	0.114198916	0.035197215
2020-05-31T10:10:00	0.2300	9.646	191.0	0.568539952	0.694627094	0.011024300	0.113735670	0.035054438
2020-05-31T10:15:00	0.2303	9.657	192.0	0.569642126	0.696213648	0.011063756	0.114142727	0.035179897
2020-05-31T10:20:00	0.2307	9.667	197.0	0.570743952	0.697800705	0.011103271	0.114550396	0.035305545
2020-05-31T10:25:00	0.2308	9.675	189.0	0.571172652	0.698418469	0.011118665	0.114709212	0.035354493
2020-05-31T10:30:00	0.2307	9.685	189.0	0.570928471	0.698066581	0.011109895	0.114618739	0.035326609
2020-05-31T10:35:00	0.2305	9.698	196.0	0.570347788	0.697229959	0.011089055	0.114403732	0.035260341
2020-05-31T10:40:00	0.2300	9.710	193.0	0.568420518	0.694455231	0.011020029	0.113691605	0.035040857
2020-05-31T10:45:00	0.2296	9.722	194.0	0.567165866	0.692650535	0.010975211	0.113229227	0.034898348
2020-05-31T10:50:00	0.2300	9.733	189.0	0.568605159	0.694720930	0.011026632	0.113759732	0.035061854
2020-05-31T10:55:00	0.2303	9.743	197.0	0.569370732	0.695822890	0.011054034	0.114042427	0.035148983
2020-05-31T11:00:00	0.2310	9.753	189.0	0.571818345	0.699349214	0.011141871	0.114948628	0.035428284
2020-05-31T11:05:00	0.2296	9.763	195.0	0.567198483	0.692697434	0.010976375	0.113241235	0.034902048
2020-05-31T11:10:00	0.2298	9.776	192.0	0.567964364	0.693798948	0.011003724	0.113523387	0.034989010
2020-05-31T11:15:00	0.2309	9.790	194.0	0.571422302	0.698778291	0.011127634	0.114801750	0.035383014
2020-05-31T11:20:00	0.2301	9.804	196.0	0.568822392	0.695033563	0.011034404	0.113839910	0.035086566
2020-05-31T11:25:00	0.2300	9.821	193.0	0.568578047	0.694681914	0.011025662	0.113749727	0.035058771
2020-05-31T11:30:00	0.2298	9.837	194.0	0.567996973	0.693845857	0.011004889	0.113535408	0.034992715
2020-05-31T11:35:00	0.2297	9.854	194.0	0.567415803	0.693009941	0.010984132	0.113321260	0.034926713
2020-05-31T11:40:00	0.2293	9.867	192.0	0.566160791	0.691205768	0.010939375	0.112859518	0.034784400
2020-05-31T11:45:00	0.2298	9.881	194.0	0.567937247	0.693759939	0.011002755	0.113513391	0.034985930
2020-05-31T11:50:00	0.2299	9.897	192.0	0.568029582	0.693892768	0.011006054	0.113547430	0.034996421
2020-05-31T11:55:00	0.2298	9.912	201.0	0.567785182	0.693541198	0.010997322	0.113457344	0.034968655
2020-05-31T12:00:00	0.2291	9.927	194.0	0.565519547	0.690284435	0.010916543	0.112623963	0.034711799
2020-05-31T12:05:00	0.2286	9.945	197.0	0.563926749	0.687997384	0.010859935	0.112039947	0.034531800
2020-05-31T12:10:00	0.2290	9.971	192.0	0.565030379	0.689581830	0.010899142	0.112444440	0.034656469
2020-05-31T12:15:00	0.2286	10.006	193.0	0.563774509	0.687778897	0.010854532	0.111984208	0.034514620
2020-05-31T12:20:00	0.2286	10.030	195.0	0.563866953	0.687911566	0.010857813	0.112018053	0.034525052
2020-05-31T12:25:00	0.2276	10.072	196.0	0.560586590	0.683208146	0.010741711	0.110820257	0.034155879
2020-05-31T12:30:00	0.2278	10.113	192.0	0.561016538	0.683824105	0.010756892	0.110976876	0.034204151
2020-05-31T12:35:00	0.2282	10.156	194.0	0.562458367	0.685890833	0.010807881	0.111502918	0.034366282
2020-05-31T12:40:00	0.2287	10.195	193.0	0.564236708	0.688442281	0.010870939	0.112153476	0.034566790
2020-05-31T12:45:00	0.2289	10.231	195.0	0.564666206	0.689058887	0.010886197	0.112310885	0.034615305
2020-05-31T12:50:00	0.2282	10.275	195.0	0.562398546	0.685805052	0.010805763	0.111481067	0.034359548
2020-05-31T12:55:00	0.2284	10.327	191.0	0.563165481	0.686905042	0.010832932	0.111761366	0.034445938
2020-05-31T13:00:00	0.2279	10.369	192.0	0.561571608	0.684619543	0.010776507	0.111179240	0.034266521
2020-05-31T13:05:00	0.2278	10.401	193.0	0.560989367	0.683785174	0.010755933	0.110966974	0.034201099
2020-05-31T13:10:00	0.2285	10.434	199.0	0.563442856	0.687302992	0.010842767	0.111862829	0.034477210
2020-05-31T13:15:00	0.2285	10.477	192.0	0.563535310	0.687435649	0.010846046	0.111896658	0.034487637
2020-05-31T13:20:00	0.2279	10.513	195.0	0.561604277	0.684666367	0.010777662	0.111191156	0.034270194
2020-05-31T13:25:00	0.2284	10.542	197.0	0.563045863	0.686733445	0.010828693	0.111717624	0.034432457
2020-05-31T13:30:00	0.2277	10.579	198.0	0.560777150	0.683481130	0.010748439	0.110889659	0.034177270
2020-05-31T13:35:00	0.2267	10.613	196.0	0.557493877	0.678781899	0.010632832	0.109696970	0.033809672
2020-05-31T13:40:00	0.2275	10.650	193.0	0.559949827	0.682296175	0.010719248	0.110588506	0.034084452
2020-05-31T13:45:00	0.2276	10.686	194.0	0.560379853	0.682912021	0.010734416	0.110744987	0.034132681
2020-05-31T13:50:00	0.2272	10.730	193.0	0.559122307	0.681111503	0.010690091	0.110287698	0.033991740
2020-05-31T13:55:00	0.2264	10.776	198.0	0.556513216	0.677380034	0.010598426	0.109342003	0.033700267
2020-05-31T14:00:00	0.2251	10.816	196.0	0.551873023	0.670757555	0.010436391	0.107670318	0.033185038
2020-05-31T14:05:00	0.2260	10.843	204.0	0.555008976	0.675231246	0.010545759	0.108798652	0.033532801
2020-05-31T14:10:00	0.2257	10.855	194.0	0.554087579	0.673915961	0.010513565	0.108466509	0.033430432
2020-05-31T14:15:00	0.2256	10.875	196.0	0.553842200	0.673565802	0.010504999	0.108378143	0.033403196
2020-05-31T14:20:00	0.2259	10.901	196.0	0.554611020	0.674663083	0.010531848	0.108655135	0.033488568
2020-05-31T14:25:00	0.2265	10.926	202.0	0.556731203	0.677691580	0.010606069	0.109420857	0.033724571
2020-05-31T14:30:00	0.2268	10.943	195.0	0.557837112	0.679272743	0.010644888	0.109821348	0.033848006
2020-05-31T14:35:00	0.2271	10.958	198.0	0.558605051	0.680371288	0.010671886	0.110099884	0.033933854
2020-05-31T14:40:00	0.2264	10.979	197.0	0.556333444	0.677123135	0.010592124	0.109276995	0.033680231
2020-05-31T14:45:00	0.2261	10.999	195.0	0.555412398	0.675807347	0.010559871	0.108944238	0.033577672
2020-05-31T14:50:00	0.2265	11.015	198.0	0.556856548	0.677870740	0.010610465	0.109466211	0.033738549
2020-05-31T14:55:00	0.2263	11.029	196.0	0.555935640	0.676554754	0.010578188	0.109133213	0.033635916
2020-05-31T15:00:00	0.2256	11.038	199.0	0.553662290	0.673309099	0.010498722	0.108313376	0.033383234
2020-05-31T15:05:00	0.2252	11.041	197.0	0.552402315	0.671512066	0.010454809	0.107860342	0.033243605
2020-05-31T15:10:00	0.2241	11.054	195.0	0.548433942	0.665860709	0.010317114	0.106439768	0.032805770
2020-05-31T15:15:00	0.2247	11.069	195.0	0.550557894	0.668883820	0.010390697	0.107198901	0.033039742
2020-05-31T15:20:00	0.2243	11.089	197.0	0.549296792	0.667088395	0.010346975	0.106747834	0.032900719
2020-05-31T15:25:00	0.2236	11.104	199.0	0.547019093	0.663848947	0.010268245	0.105935594	0.032650379
2020-05-31T15:30:00	0.2237	11.115	199.0	0.547111984	0.663980978	0.010271450	0.105968658	0.032660570
2020-05-31T15:35:00	0.2241	11.120	202.0	0.548559586	0.666039441	0.010321460	0.106484599	0.032819588
2020-05-31T15:40:00	0.2226	11.122	199.0	0.543569665	0.658951105	0.010149593	0.104711483	0.032273096
2020-05-31T15:45:00	0.2222	11.121	196.0	0.542306020	0.657159293	0.010106301	0.104264848	0.032135439
2020-05-31T15:50:00	0.2224	11.119	201.0	0.542738235	0.657772015	0.010121098	0.104417506	0.032182489
2020-05-31T15:55:00	0.2224	11.117	199.0	0.542831240	0.657903882	0.010124284	0.104450370	0.032192619
2020-05-31T16:00:00	0.2219	11.117	197.0	0.541228013	0.655631744	0.010069443	0.103884590	0.032018239
2020-05-31T16:05:00	0.2219	11.118	196.0	0.540996904	0.655304384	0.010061550	0.103803159	0.031993142
2020-05-31T16:10:00	0.2217	11.120	196.0	0.540426390	0.654496449	0.010042079	0.103602278	0.031931228
2020-05-31T16:15:00	0.2206	11.120	197.0	0.536799256	0.649366102	0.009918733	0.102329738	0.031539019
2020-05-31T16:20:00	0.2206	11.121	203.0	0.536567852	0.649039160	0.009910890	0.102248822	0.031514080
2020-05-31T16:25:00	0.2200	11.121	196.0	0.534636966	0.646312792	0.009845567	0.101574896	0.031306369
2020-05-31T16:30:00	0.2191	11.119	198.0	0.531684349	0.642149638	0.009746099	0.100548703	0.030990087
2020-05-31T16:35:00	0.2188	11.117	195.0	0.530771954	0.640864608	0.009715465	0.100232657	0.030892678
2020-05-31T16:40:00	0.2191	11.114	195.0	0.531561135	0.641976062	0.009741959	0.100505993	0.030976923
2020-05-31T16:45:00	0.2183	11.112	194.0	0.528946438	0.638295562	0.009654318	0.099601819	0.030698248
2020-05-31T16:50:00	0.2181	11.111	202.0	0.528373929	0.637490429	0.009635181	0.099404391	0.030637399
2020-05-31T16:55:00	0.2178	11.110	198.0	0.527119955	0.635727867	0.009593333	0.098972650	0.030504332
2020-05-31T17:00:00	0.2169	11.107	196.0	0.524160889	0.631573728	0.009494945	0.097957594	0.030191482
2020-05-31T17:05:00	0.2170	11.100	195.0	0.524610637	0.632204656	0.009509866	0.098111533	0.030238927
2020-05-31T17:10:00	0.2166	11.091	196.0	0.523014183	0.629965815	0.009456954	0.097565649	0.030070681
2020-05-31T17:15:00	0.2161	11.083	195.0	0.521416988	0.627728004	0.009404165	0.097021042	0.029902827
2020-05-31T17:20:00	0.2159	11.077	197.0	0.520843224	0.626924616	0.009385238	0.096825775	0.029842644
2020-05-31T17:25:00	0.2153	11.073	197.0	0.518561953	0.623733004	0.009310174	0.096051349	0.029603959
2020-05-31T17:30:00	0.2144	11.067	203.0	0.515595507	0.619589104	0.009213016	0.095048989	0.029295021
2020-05-31T17:35:00	0.2138	11.062	202.0	0.513652818	0.616879172	0.009149665	0.094395408	0.029093582
2020-05-31T17:40:00	0.2138	11.056	195.0	0.513419852	0.616554404	0.009142083	0.094317183	0.029069472
2020-05-31T17:45:00	0.2138	11.050	198.0	0.513528956	0.616706496	0.009145633	0.094353814	0.029080762
2020-05-31T17:50:00	0.2136	11.042	195.0	0.512953872	0.615904934	0.009126926	0.094160814	0.029021277
2020-05-31T17:55:00	0.2140	11.034	195.0	0.514089184	0.617487610	0.009163876	0.094542019	0.029138768
2020-05-31T18:00:00	0.2141	11.025	195.0	0.514540252	0.618116709	0.009178577	0.094693688	0.029185514
2020-05-31T18:05:00	0.2139	11.017	196.0	0.513965338	0.617314913	0.009159842	0.094500397	0.029125940
2020-05-31T18:10:00	0.2137	11.008	204.0	0.513048228	0.616036430	0.009129994	0.094192466	0.029031033
2020-05-31T18:15:00	0.2131	11.001	197.0	0.511104093	0.613328488	0.009066883	0.093541362	0.028830356
2020-05-31T18:20:00	0.2128	10.995	197.0	0.510186217	0.612051059	0.009037163	0.093234743	0.028735853
2020-05-31T18:25:00	0.2128	10.988	194.0	0.510295424	0.612203010	0.009040696	0.093271198	0.028747089
2020-05-31T18:30:00	0.2134	10.982	199.0	0.512116105	0.614737715	0.009099708	0.093880010	0.028934731
2020-05-31T18:35:00	0.2136	10.975	195.0	0.512909581	0.615843210	0.009125486	0.094145958	0.029016698
2020-05-31T18:40:00	0.2135	10.968	199.0	0.512676564	0.615518511	0.009117912	0.094067819	0.028992615
2020-05-31T18:45:00	0.2140	10.961	194.0	0.514153991	0.617577986	0.009165987	0.094563802	0.029145482
2020-05-31T18:50:00	0.2135	10.954	197.0	0.512552667	0.615345884	0.009113886	0.094026285	0.028979814
2020-05-31T18:55:00	0.2139	10.947	200.0	0.514030148	0.617405285	0.009161953	0.094522177	0.029132653
2020-05-31T19:00:00	0.2145	10.938	198.0	0.515848846	0.619942720	0.009221294	0.095134386	0.029321342
2020-05-31T19:05:00	0.2146	10.928	194.0	0.516299683	0.620572138	0.009236033	0.095286452	0.029368210
2020-05-31T19:10:00	0.2155	10.919	195.0	0.519483353	0.625021581	0.009340456	0.096363763	0.029700247
2020-05-31T19:15:00	0.2157	10.908	194.0	0.519933713	0.625651659	0.009355275	0.096516648	0.029747368
2020-05-31T19:20:00	0.2160	10.897	195.0	0.521066718	0.627237522	0.009392609	0.096901812	0.029866080
2020-05-31T19:25:00	0.2166	10.885	194.0	0.523222816	0.630258280	0.009463860	0.097636901	0.030092641
2020-05-31T19:30:00	0.2167	10.874	196.0	0.523331609	0.630410803	0.009467463	0.097674067	0.030104096
2020-05-31T19:35:00	0.2170	10.863	194.0	0.524463495	0.631998220	0.009504983	0.098061156	0.030223401
2020-05-31T19:40:00	0.2171	10.850	194.0	0.524913203	0.632629203	0.009519911	0.098215164	0.030270867
2020-05-31T19:45:00	0.2171	10.837	194.0	0.524681000	0.632303379	0.009512201	0.098135628	0.030246354
2020-05-31T19:50:00	0.2169	10.825	194.0	0.524107781	0.631499236	0.009493183	0.097939424	0.030185882
2020-05-31T19:55:00	0.2174	10.811	196.0	0.525921154	0.634044050	0.009553412	0.098560789	0.030377392
2020-05-31T20:00:00	0.2173	10.798	200.0	0.525348141	0.633239619	0.009534359	0.098364229	0.030316811
2020-05-31T20:05:00	0.2171	10.784	194.0	0.524775034	0.632435321	0.009515323	0.098167833	0.030256280
2020-05-31T20:10:00	0.2169	10.769	196.0	0.524201830	0.631631155	0.009496303	0.097971602	0.030195799
2020-05-31T20:15:00	0.2172	10.754	194.0	0.524992518	0.632740507	0.009522545	0.098242339	0.030279243
2020-05-31T20:20:00	0.2171	10.740	199.0	0.524760320	0.632414676	0.009514835	0.098162794	0.030254726
2020-05-31T20:25:00	0.2170	10.725	194.0	0.524528107	0.632088866	0.009507127	0.098083276	0.030230218
2020-05-31T20:30:00	0.2163	10.709	195.0	0.522249280	0.628893861	0.009431655	0.097304644	0.029990236
2020-05-31T20:35:00	0.2170	10.694	194.0	0.524404637	0.631915649	0.009503030	0.098041009	0.030217191
2020-05-31T20:40:00	0.2169	10.679	194.0	0.524172399	0.631589873	0.009495326	0.097961532	0.030192696
2020-05-31T20:45:00	0.2168	10.663	199.0	0.523940146	0.631264118	0.009487625	0.097882083	0.030168208
2020-05-31T20:50:00	0.2170	10.647	196.0	0.524389922	0.631895006	0.009502542	0.098035972	0.030215639
2020-05-31T20:55:00	0.2174	10.632	193.0	0.525862320	0.633961444	0.009551455	0.098540598	0.030371169
2020-05-31T21:00:00	0.2181	10.617	194.0	0.528356029	0.637465260	0.009634583	0.099398221	0.030635497
2020-05-31T21:05:00	0.2184	10.602	197.0	0.529145764	0.638575941	0.009660985	0.099670602	0.030719447
2020-05-31T21:10:00	0.2186	10.587	193.0	0.529935318	0.639686875	0.009687417	0.099943295	0.030803494
2020-05-31T21:15:00	0.2185	10.573	194.0	0.529703453	0.639360579	0.009679651	0.099863175	0.030778800
2020-05-31T21:20:00	0.2182	10.560	193.0	0.528449963	0.637597342	0.009637722	0.099430599	0.030645476
2020-05-31T21:25:00	0.2182	10.547	194.0	0.528558591	0.637750094	0.009641352	0.099468049	0.030657019
2020-05-31T21:30:00	0.2182	10.535	197.0	0.528667216	0.637902851	0.009644982	0.099505505	0.030668563
2020-05-31T21:35:00	0.2184	10.522	193.0	0.529116375	0.638534599	0.009660002	0.099660459	0.030716321
2020-05-31T21:40:00	0.2179	10.510	192.0	0.527522009	0.636292848	0.009606741	0.099110974	0.030546965
2020-05-31T21:45:00	0.2176	10.500	194.0	0.526608511	0.635009359	0.009576291	0.098796832	0.030450143
2020-05-31T21:50:00	0.2183	10.490	201.0	0.528761141	0.638034945	0.009648122	0.099537898	0.030678547
2020-05-31T21:55:00	0.2187	10.481	194.0	0.530231672	0.640103988	0.009697347	0.100045745	0.030835070
2020-05-31T22:00:00	0.2185	10.472	194.0	0.529659376	0.639298556	0.009678175	0.099847948	0.030774107
2020-05-31T22:05:00	0.2185	10.463	192.0	0.529566015	0.639167188	0.009675049	0.099815700	0.030764168
2020-05-31T22:10:00	0.2176	10.454	196.0	0.526406915	0.634726203	0.009569578	0.098727574	0.030428797
2020-05-31T22:15:00	0.2183	10.446	192.0	0.529038774	0.638425441	0.009657406	0.099633679	0.030708067
2020-05-31T22:20:00	0.2191	10.437	193.0	0.531668625	0.642127486	0.009745570	0.100543252	0.030988407
2020-05-31T22:25:00	0.2189	10.429	192.0	0.530894694	0.641037438	0.009719583	0.100275144	0.030905773
2020-05-31T22:30:00	0.2192	10.421	192.0	0.531822280	0.642343961	0.009750734	0.100596524	0.031004826
2020-05-31T22:35:00	0.2190	10.410	194.0	0.531388698	0.641733165	0.009736167	0.100446237	0.030958506
2020-05-31T22:40:00	0.2193	10.399	191.0	0.532316151	0.643039873	0.009767340	0.100767846	0.031057629
2020-05-31T22:45:00	0.2193	10.389	199.0	0.532222862	0.642908405	0.009764202	0.100735474	0.031047651
2020-05-31T22:50:00	0.2190	10.379	194.0	0.531449056	0.641818183	0.009738194	0.100467151	0.030964952
2020-05-31T22:55:00	0.2189	10.368	193.0	0.531015427	0.641207452	0.009723635	0.100316945	0.030918657
2020-05-31T23:00:00	0.2188	10.358	194.0	0.530581743	0.640596798	0.009709084	0.100166833	0.030872391
2020-05-31T23:05:00	0.2185	10.348	199.0	0.529467099	0.639028011	0.009671738	0.099781538	0.030753639
2020-05-31T23:10:00	0.2185	10.337	192.0	0.529714212	0.639375718	0.009680011	0.099866892	0.030779946
2020-05-31T23:15:00	0.2187	10.326	192.0	0.530301728	0.640202600	0.009699696	0.100069971	0.030842537
2020-05-31T23:20:00	0.2186	10.315	194.0	0.529867954	0.639592071	0.009685160	0.099920014	0.030796319
2020-05-31T23:25:00	0.2185	10.303	197.0	0.529434126	0.638981619	0.009670634	0.099770151	0.030750130
2020-05-31T23:30:00	0.2185	10.289	196.0	0.529681241	0.639329323	0.009678907	0.099855502	0.030776435
2020-05-31T23:35:00	0.2186	10.276	194.0	0.529928339	0.639677052	0.009687183	0.099940882	0.030802751
2020-05-31T23:40:00	0.2178	10.262	196.0	0.527110307	0.635714311	0.009593012	0.098969332	0.030503309
2020-05-31T23:45:00	0.2181	10.246	195.0	0.528379522	0.637498294	0.009635368	0.099406319	0.030637993
2020-05-31T23:50:00	0.2183	10.230	191.0	0.528967266	0.638324857	0.009655014	0.099609005	0.030700463
2020-05-31T23:55:00	0.2186	10.215	192.0	0.529895370	0.639630654	0.009686079	0.099929489	0.030799239
2020-06-01T00:00:00	0.2187	10.198	193.0	0.530142452	0.639978405	0.009694357	0.100014896	0.030825562
2020-06-01T00:05:00	0.2190	10.182	197.0	0.531410552	0.641763947	0.009736901	0.100453809	0.030960840
2020-06-01T00:10:00	0.2188	10.166	191.0	0.530636563	0.640673980	0.009710923	0.100185802	0.030878237
2020-06-01T00:15:00	0.2189	10.149	191.0	0.530883592	0.641021805	0.009719210	0.100271301	0.030904589
2020-06-01T00:20:00	0.2187	10.134	203.0	0.530109486	0.639932004	0.009693252	0.100003498	0.030822049
2020-06-01T00:25:00	0.2185	10.117	191.0	0.529675688	0.639321509	0.009678721	0.099853583	0.030775844
2020-06-01T00:30:00	0.2193	10.100	192.0	0.532305053	0.643024234	0.009766967	0.100763995	0.031056442
2020-06-01T00:35:00	0.2187	10.083	194.0	0.530169866	0.640016991	0.009695276	0.100024374	0.030828484
2020-06-01T00:40:00	0.2182	10.065	191.0	0.528714545	0.637969413	0.009646564	0.099521827	0.030673594
2020-06-01T00:45:00	0.2180	10.050	191.0	0.527939951	0.636880293	0.009620688	0.099254866	0.030591314
2020-06-01T00:50:00	0.2176	10.033	192.0	0.526483688	0.634834031	0.009572134	0.098753946	0.030436925
2020-06-01T00:55:00	0.2181	10.015	193.0	0.528093773	0.637096536	0.009625824	0.099307852	0.030607644
2020-06-01T01:00:00	0.2177	9.996	199.0	0.526978324	0.635528873	0.009588612	0.098923946	0.030489321
2020-06-01T01:05:00	0.2174	9.979	192.0	0.525862513	0.633961715	0.009551461	0.098540664	0.030371190
2020-06-01T01:10:00	0.2168	9.961	194.0	0.523723329	0.630960054	0.009480439	0.097807943	0.030145358
2020-06-01T01:15:00	0.2171	9.943	194.0	0.524652847	0.632263879	0.009511267	0.098125987	0.030243382
2020-06-01T01:20:00	0.2170	9.924	191.0	0.524559350	0.632132700	0.009508164	0.098093973	0.030233515
2020-06-01T01:25:00	0.2168	9.906	193.0	0.523783821	0.631044884	0.009482444	0.097828625	0.030151732
2020-06-01T01:30:00	0.2163	9.888	192.0	0.521984587	0.628523024	0.009422908	0.097214405	0.029962424
2020-06-01T01:35:00	0.2155	9.870	192.0	0.519501531	0.625047010	0.009341054	0.096369931	0.029702149
2020-06-01T01:40:00	0.2158	9.851	192.0	0.520432192	0.626349249	0.009371691	0.096686011	0.029799568
2020-06-01T01:45:00	0.2152	9.832	191.0	0.518289624	0.623352284	0.009301233	0.095959110	0.029575530
2020-06-01T01:50:00	0.2154	9.812	191.0	0.518879094	0.624176448	0.009320591	0.096158823	0.029637083
2020-06-01T01:55:00	0.2153	9.793	190.0	0.518785440	0.624045487	0.009317514	0.096127079	0.029627299
2020-06-01T02:00:00	0.2153	9.774	190.0	0.518691784	0.623914531	0.009314438	0.096095339	0.029617517
2020-06-01T02:05:00	0.2154	9.755	192.0	0.518939672	0.624261160	0.009322582	0.096179358	0.029643412
2020-06-01T02:10:00	0.2151	9.733	189.0	0.517821249	0.622697629	0.009285866	0.095800572	0.029526667
2020-06-01T02:15:00	0.2144	9.713	189.0	0.515677052	0.619702920	0.009215680	0.095076472	0.029303492
2020-06-01T02:20:00	0.2145	9.692	191.0	0.515925157	0.620049248	0.009223788	0.095160117	0.029329272
2020-06-01T02:25:00	0.2138	9.672	189.0	0.513437713	0.616579302	0.009142664	0.094323179	0.029071320
2020-06-01T02:30:00	0.2139	9.651	189.0	0.514028017	0.617402314	0.009161883	0.094521461	0.029132432
2020-06-01T02:35:00	0.2147	9.630	189.0	0.516669367	0.621088381	0.009248128	0.095411237	0.029406670
2020-06-01T02:40:00	0.2145	9.610	189.0	0.515892055	0.620003037	0.009222706	0.095148955	0.029325832
2020-06-01T02:45:00	0.2141	9.590	188.0	0.514430676	0.617963870	0.009175005	0.094656833	0.029174155
2020-06-01T02:50:00	0.2138	9.569	188.0	0.513652856	0.616879226	0.009149666	0.094395421	0.029093586
2020-06-01T02:55:00	0.2135	9.548	190.0	0.512532709	0.615318076	0.009113238	0.094019595	0.028977752
2020-06-01T03:00:00	0.2130	9.527	188.0	0.510727565	0.612804383	0.009054685	0.093415521	0.028791571
2020-06-01T03:05:00	0.2128	9.506	189.0	0.510291314	0.612197290	0.009040563	0.093269826	0.028746666
2020-06-01T03:10:00	0.2131	9.486	188.0	0.511224476	0.613496077	0.009070785	0.093581613	0.028842762
2020-06-01T03:15:00	0.2130	9.465	197.0	0.510788287	0.612888897	0.009056652	0.093435809	0.028797824
2020-06-01T03:20:00	0.2132	9.445	189.0	0.511379048	0.613711280	0.009075795	0.093633309	0.028858695
2020-06-01T03:25:00	0.2130	9.424	188.0	0.510942879	0.613104073	0.009061660	0.093487471	0.028813747
2020-06-01T03:30:00	0.2135	9.403	188.0	0.512560263	0.615356467	0.009114133	0.094028831	0.028980599
2020-06-01T03:35:00	0.2133	9.383	188.0	0.511782019	0.614272408	0.009088865	0.093768147	0.028900254
2020-06-01T03:40:00	0.2140	9.364	187.0	0.514083102	0.617479129	0.009163678	0.094539975	0.029138138
2020-06-01T03:45:00	0.2146	9.347	187.0	0.516382642	0.620687977	0.009238747	0.095314448	0.029376838
2020-06-01T03:50:00	0.2145	9.329	195.0	0.515947110	0.620079893	0.009224505	0.095167520	0.029331554
2020-06-01T03:55:00	0.2146	9.312	187.0	0.516195196	0.620426249	0.009232616	0.095251198	0.029357344
2020-06-01T04:00:00	0.2150	9.293	187.0	0.517810105	0.622682055	0.009285501	0.095796802	0.029525505
2020-06-01T04:05:00	0.2150	9.276	187.0	0.517807048	0.622677783	0.009285401	0.095795767	0.029525186
2020-06-01T04:10:00	0.2150	9.259	186.0	0.517803991	0.622673511	0.009285300	0.095794733	0.029524867
2020-06-01T04:15:00	0.2157	9.244	186.0	0.520191604	0.626012536	0.009363766	0.096604250	0.029774368
2020-06-01T04:20:00	0.2162	9.227	197.0	0.521895153	0.628397739	0.009419954	0.097183925	0.029953030
2020-06-01T04:25:00	0.2165	9.212	188.0	0.522915657	0.629827712	0.009453693	0.097532010	0.030060313
2020-06-01T04:30:00	0.2169	9.198	186.0	0.524276875	0.631736423	0.009498792	0.097997282	0.030203714
2020-06-01T04:35:00	0.2175	9.184	187.0	0.526319218	0.634603035	0.009566659	0.098697452	0.030419513
2020-06-01T04:40:00	0.2174	9.170	186.0	0.525975354	0.634120154	0.009555215	0.098579391	0.030383126
2020-06-01T04:45:00	0.2174	9.159	186.0	0.525972304	0.634115871	0.009555113	0.098578344	0.030382803
2020-06-01T04:50:00	0.2170	9.148	188.0	0.524605655	0.632197666	0.009509701	0.098109827	0.030238402
2020-06-01T04:55:00	0.2172	9.136	186.0	0.525284472	0.633150252	0.009532244	0.098342400	0.030310083
2020-06-01T05:00:00	0.2169	9.126	187.0	0.524258568	0.631710742	0.009498184	0.097991017	0.030201783
2020-06-01T05:05:00	0.2168	9.117	186.0	0.523914498	0.631228147	0.009486775	0.097873311	0.030165505
2020-06-01T05:10:00	0.2169	9.108	186.0	0.524252466	0.631702182	0.009497982	0.097988929	0.030201140
2020-06-01T05:15:00	0.2173	9.100	185.0	0.525613155	0.633611629	0.009543169	0.098455112	0.030344822
2020-06-01T05:20:00	0.2179	9.094	186.0	0.527654705	0.636479345	0.009611168	0.099156648	0.030561042
2020-06-01T05:25:00	0.2184	9.088	187.0	0.529354566	0.638869684	0.009667972	0.099742680	0.030741663
2020-06-01T05:30:00	0.2190	9.084	186.0	0.531393901	0.641740494	0.009736341	0.100448040	0.030959061
2020-06-01T05:35:00	0.2200	9.081	186.0	0.534792145	0.646531789	0.009850808	0.101628974	0.031323037
2020-06-01T05:40:00	0.2196	9.079	186.0	0.533428989	0.644608700	0.009804811	0.101154424	0.031176776
2020-06-01T05:45:00	0.2204	9.078	187.0	0.536145642	0.648442750	0.009896587	0.102101268	0.031468603
2020-06-01T05:50:00	0.2209	9.080	186.0	0.537841327	0.650838944	0.009954091	0.102694525	0.031651450
2020-06-01T05:55:00	0.2212	9.083	186.0	0.538857123	0.652275504	0.009988619	0.103050744	0.031761240
2020-06-01T06:00:00	0.2215	9.087	185.0	0.539872621	0.653712484	0.010023198	0.103407481	0.031871190
2020-06-01T06:05:00	0.2214	9.092	186.0	0.539530104	0.653227712	0.010011528	0.103287088	0.031834084
2020-06-01T06:10:00	0.2215	9.099	186.0	0.539866546	0.653703885	0.010022991	0.103405345	0.031870532
2020-06-01T06:15:00	0.2215	9.106	186.0	0.539863509	0.653699586	0.010022887	0.103404277	0.031870203
2020-06-01T06:20:00	0.2217	9.115	186.0	0.540539331	0.654656371	0.010045932	0.103642030	0.031943480
2020-06-01T06:25:00	0.2220	9.126	187.0	0.541554336	0.656094048	0.010080593	0.103999624	0.032053694
2020-06-01T06:30:00	0.2220	9.137	186.0	0.541551300	0.656089746	0.010080490	0.103998553	0.032053364
2020-06-01T06:35:00	0.2220	9.150	186.0	0.541548264	0.656085445	0.010080386	0.103997483	0.032053034
2020-06-01T06:40:00	0.2221	9.166	186.0	0.541884510	0.656561895	0.010091881	0.104116081	0.032089587
2020-06-01T06:45:00	0.2229	9.182	187.0	0.544594533	0.660405298	0.010184773	0.105074431	0.032384960
2020-06-01T06:50:00	0.2228	9.200	186.0	0.544252483	0.659919865	0.010173025	0.104953226	0.032347604
2020-06-01T06:55:00	0.2226	9.221	187.0	0.543571317	0.658953448	0.010149650	0.104712068	0.032273276
2020-06-01T07:00:00	0.2234	9.243	187.0	0.546280022	0.662798719	0.010242764	0.105672711	0.032569356
2020-06-01T07:05:00	0.2239	9.274	186.0	0.547970752	0.665201922	0.010301103	0.106274579	0.032754857
2020-06-01T07:10:00	0.2239	9.308	187.0	0.547967722	0.665197613	0.010300998	0.106273499	0.032754524
2020-06-01T07:15:00	0.2235	9.345	187.0	0.546609745	0.663267204	0.010254128	0.105789951	0.032605490
2020-06-01T07:20:00	0.2245	9.373	187.0	0.549993091	0.668079550	0.010371104	0.106996765	0.032977442
2020-06-01T07:25:00	0.2241	9.404	188.0	0.548635907	0.666148015	0.010324100	0.106511835	0.032827982
2020-06-01T07:30:00	0.2242	9.427	188.0	0.548971466	0.666625439	0.010335711	0.106631629	0.032864904
2020-06-01T07:35:00	0.2244	9.460	188.0	0.549645515	0.667584739	0.010359056	0.106872468	0.032939133
2020-06-01T07:40:00	0.2235	9.493	189.0	0.546594588	0.663245666	0.010253606	0.105784560	0.032603829
2020-06-01T07:45:00	0.2239	9.538	189.0	0.547946509	0.665167447	0.010300265	0.106265937	0.032752194
2020-06-01T07:50:00	0.2242	9.561	188.0	0.548959348	0.666608197	0.010335292	0.106627301	0.032863570
2020-06-01T07:55:00	0.2244	9.576	188.0	0.549633399	0.667567493	0.010358636	0.106868136	0.032937798
2020-06-01T08:00:00	0.2244	9.603	188.0	0.549630371	0.667563181	0.010358531	0.106867054	0.032937464
2020-06-01T08:05:00	0.2249	9.642	189.0	0.551319470	0.669968706	0.010417145	0.107471765	0.033123842
2020-06-01T08:10:00	0.2246	9.683	188.0	0.550301264	0.668518351	0.010381792	0.107107032	0.033011428
2020-06-01T08:15:00	0.2251	9.728	189.0	0.551990038	0.670924341	0.010440461	0.107712313	0.033197981
2020-06-01T08:20:00	0.2248	9.775	189.0	0.550972027	0.669473705	0.010405075	0.107347237	0.033085461
2020-06-01T08:25:00	0.2246	9.824	189.0	0.550292179	0.668505414	0.010381477	0.107103781	0.033010425
2020-06-01T08:30:00	0.2243	9.873	190.0	0.549273671	0.667055489	0.010346174	0.106739573	0.032898173
2020-06-01T08:35:00	0.2257	9.922	190.0	0.554007013	0.673800987	0.010510752	0.108437492	0.033421488
2020-06-01T08:40:00	0.2248	9.967	191.0	0.550959917	0.669456453	0.010404654	0.107342897	0.033084123
2020-06-01T08:45:00	0.2252	10.017	190.0	0.552310140	0.671380653	0.010451601	0.107827237	0.033233402
2020-06-01T08:50:00	0.2250	10.072	190.0	0.551630553	0.670411988	0.010427958	0.107583324	0.033158225
2020-06-01T08:55:00	0.2250	10.140	190.0	0.551627526	0.670407674	0.010427853	0.107582238	0.033157891
2020-06-01T09:00:00	0.2251	10.220	191.0	0.551962796	0.670885511	0.010439513	0.107702536	0.033194968
2020-06-01T09:05:00	0.2250	10.285	191.0	0.551621472	0.670399046	0.010427643	0.107580066	0.033157221
2020-06-01T09:10:00	0.2250	10.384	191.0	0.551618444	0.670394732	0.010427537	0.107578981	0.033156887
2020-06-01T09:15:00	0.2253	10.446	192.0	0.552630213	0.671837008	0.010462745	0.107942213	0.033268838
2020-06-01T09:20:00	0.2244	10.497	192.0	0.549581908	0.667494198	0.010356852	0.106849729	0.032932124
2020-06-01T09:25:00	0.2239	10.522	193.0	0.547885901	0.665081260	0.010298171	0.106244333	0.032745535
2020-06-01T09:30:00	0.2241	10.559	193.0	0.548560162	0.666040259	0.010321480	0.106484804	0.032819651
2020-06-01T09:35:00	0.2231	10.609	193.0	0.545169353	0.661221290	0.010204532	0.105278276	0.032447787
2020-06-01T09:40:00	0.2229	10.663	193.0	0.544488366	0.660254617	0.010181126	0.105036803	0.032373363
2020-06-01T09:45:00	0.2235	10.721	193.0	0.546518798	0.663137974	0.010250993	0.105757606	0.032595521
2020-06-01T09:50:00	0.2229	10.771	193.0	0.544482299	0.660246007	0.010180918	0.105034653	0.032372700
2020-06-01T09:55:00	0.2228	10.806	194.0	0.544140238	0.659760590	0.010169172	0.104913468	0.032335350
2020-06-01T10:00:00	0.2227	10.848	194.0	0.543798144	0.659275221	0.010157431	0.104792342	0.032298017
2020-06-01T10:05:00	0.2222	10.892	194.0	0.541997174	0.656721557	0.010095735	0.104155834	0.032101839
2020-06-01T10:10:00	0.2222	10.941	194.0	0.542231250	0.657053314	0.010103743	0.104238452	0.032127303
2020-06-01T10:15:00	0.2219	10.984	194.0	0.541108213	0.655462045	0.010065351	0.103842375	0.032005228
2020-06-01T10:20:00	0.2228	11.029	194.0	0.544055832	0.659640823	0.010166274	0.104883575	0.032326137
2020-06-01T10:25:00	0.2213	11.080	195.0	0.539200591	0.652761433	0.010000308	0.103171332	0.031798407
2020-06-01T10:30:00	0.2212	11.130	195.0	0.538755780	0.652132144	0.009985172	0.103015177	0.031750278
2020-06-01T10:35:00	0.2205	11.186	195.0	0.536272618	0.648622100	0.009900888	0.102145633	0.031482276
2020-06-01T10:40:00	0.2211	11.241	195.0	0.538545238	0.651834340	0.009978012	0.102941306	0.031727510
2020-06-01T10:45:00	0.2199	11.297	195.0	0.534362325	0.645925251	0.009836293	0.101479222	0.031276882
2020-06-01T10:50:00	0.2193	11.351	195.0	0.532216234	0.642899065	0.009763979	0.100733174	0.031046942
2020-06-01T10:55:00	0.2196	11.405	196.0	0.533471399	0.644668508	0.009806240	0.101169172	0.031181321
2020-06-01T11:00:00	0.2189	11.452	196.0	0.530984434	0.641163808	0.009722594	0.100306214	0.030915349
2020-06-01T11:05:00	0.2189	11.505	196.0	0.530878928	0.641015237	0.009719054	0.100269686	0.030904091
2020-06-01T11:10:00	0.2192	11.565	197.0	0.532134580	0.642783999	0.009761233	0.100704843	0.031038211
2020-06-01T11:15:00	0.2207	11.601	197.0	0.537128845	0.649831841	0.009929909	0.102445043	0.031574557
2020-06-01T11:20:00	0.2202	11.652	198.0	0.535324399	0.647283083	0.009868798	0.101814569	0.031380239
2020-06-01T11:25:00	0.2199	11.710	198.0	0.534199116	0.645694980	0.009830784	0.101422388	0.031259365
2020-06-01T11:30:00	0.2195	11.770	198.0	0.533073467	0.644107392	0.009792832	0.101030842	0.031138687
2020-06-01T11:35:00	0.2201	11.822	198.0	0.535008268	0.646836825	0.009858111	0.101704315	0.031346258
2020-06-01T11:40:00	0.2199	11.854	197.0	0.534222916	0.645728558	0.009831587	0.101430675	0.031261919
2020-06-01T11:45:00	0.2184	11.909	198.0	0.529353833	0.638868653	0.009667947	0.099742427	0.030741585
2020-06-01T11:50:00	0.2190	11.968	198.0	0.531290720	0.641595162	0.009732876	0.100412292	0.030948044
2020-06-01T11:55:00	0.2189	12.034	198.0	0.530844889	0.640967307	0.009717912	0.100257903	0.030900459
2020-06-01T12:00:00	0.2189	12.097	199.0	0.531079723	0.641297998	0.009725793	0.100339210	0.030925519
2020-06-01T12:05:00	0.2187	12.112	199.0	0.530293477	0.640190986	0.009699419	0.100067118	0.030841657
2020-06-01T12:10:00	0.2182	12.184	200.0	0.528485452	0.637647246	0.009638908	0.099442834	0.030649247
2020-06-01T12:15:00	0.2176	12.268	200.0	0.526676479	0.635104832	0.009578555	0.098820189	0.030457342
2020-06-01T12:20:00	0.2181	12.354	200.0	0.528274283	0.637350322	0.009631853	0.099370048	0.030626814
2020-06-01T12:25:00	0.2180	12.433	200.0	0.527828063	0.636723012	0.009616953	0.099216334	0.030579438
2020-06-01T12:30:00	0.2180	12.483	200.0	0.527722460	0.636574576	0.009613429	0.099179973	0.030568231
2020-06-01T12:35:00	0.2172	12.534	201.0	0.525231342	0.633075682	0.009530478	0.098324187	0.030304469
2020-06-01T12:40:00	0.2173	12.600	201.0	0.525466558	0.633405839	0.009538295	0.098404833	0.030329325
2020-06-01T12:45:00	0.2167	12.672	201.0	0.523314919	0.630387404	0.009466910	0.097668365	0.030102339
2020-06-01T12:50:00	0.2163	12.733	202.0	0.522185708	0.628804790	0.009429554	0.097282967	0.029983555
2020-06-01T12:55:00	0.2163	12.782	202.0	0.522079932	0.628656595	0.009426058	0.097246905	0.029972441
2020-06-01T13:00:00	0.2164	12.816	202.0	0.522315363	0.628986453	0.009433839	0.097327179	0.029997182
2020-06-01T13:05:00	0.2164	12.866	202.0	0.522550779	0.629316332	0.009441623	0.097407482	0.030021932
2020-06-01T13:10:00	0.2164	12.911	202.0	0.522445014	0.629168122	0.009438125	0.097371400	0.030010811
2020-06-01T13:15:00	0.2170	12.945	203.0	0.524385790	0.631889209	0.009502405	0.098034558	0.030215203
2020-06-01T13:20:00	0.2170	12.983	203.0	0.524621064	0.632219285	0.009510212	0.098115104	0.030240028
2020-06-01T13:25:00	0.2173	13.026	203.0	0.525538139	0.633506321	0.009540675	0.098429382	0.030336891
2020-06-01T13:30:00	0.2165	13.062	203.0	0.522704301	0.629531481	0.009446700	0.097459867	0.030038077
2020-06-01T13:35:00	0.2166	13.090	204.0	0.523280806	0.630339578	0.009465780	0.097656711	0.030098747
2020-06-01T13:40:00	0.2159	13.101	204.0	0.520786469	0.626845162	0.009383367	0.096806470	0.029836694
2020-06-01T13:45:00	0.2168	13.102	204.0	0.523751489	0.630999544	0.009481372	0.097817570	0.030148325
2020-06-01T13:50:00	0.2160	13.100	204.0	0.520916178	0.627026751	0.009387644	0.096850592	0.029850293
2020-06-01T13:55:00	0.2165	13.096	203.0	0.522857816	0.629746639	0.009451779	0.097512264	0.030054227
2020-06-01T14:00:00	0.2161	13.089	203.0	0.521387185	0.627686267	0.009403182	0.097010894	0.029899700
2020-06-01T14:05:00	0.2161	13.083	203.0	0.521281384	0.627538106	0.009399691	0.096974874	0.029888598
2020-06-01T14:10:00	0.2161	13.074	203.0	0.521516870	0.627867888	0.009407462	0.097055055	0.029913310
2020-06-01T14:15:00	0.2155	13.064	203.0	0.519362758	0.624852889	0.009336490	0.096322844	0.029687636
2020-06-01T14:20:00	0.2150	13.059	204.0	0.517548978	0.622317154	0.009276939	0.095708473	0.029498281
2020-06-01T14:25:00	0.2149	13.054	204.0	0.517443059	0.622169157	0.009273468	0.095672657	0.029487242
2020-06-01T14:30:00	0.2148	13.048	203.0	0.516995430	0.621543802	0.009258803	0.095521365	0.029440613
2020-06-01T14:35:00	0.2146	13.045	204.0	0.516205958	0.620441275	0.009232968	0.095254829	0.029358463
2020-06-01T14:40:00	0.2140	13.042	204.0	0.514390509	0.617907847	0.009173695	0.094643324	0.029169992
2020-06-01T14:45:00	0.2134	13.042	204.0	0.512231917	0.614899037	0.009103468	0.093918803	0.028946687
2020-06-01T14:50:00	0.2131	13.043	204.0	0.511099053	0.613321471	0.009066720	0.093539677	0.028829837
2020-06-01T14:55:00	0.2131	13.040	204.0	0.510992935	0.613173749	0.009063281	0.093504202	0.028818903
2020-06-01T15:00:00	0.2129	13.036	204.0	0.510544463	0.612549557	0.009048757	0.093354356	0.028772719
2020-06-01T15:05:00	0.2127	13.031	204.0	0.509753503	0.611449078	0.009023169	0.093090369	0.028691356
2020-06-01T15:10:00	0.2125	13.024	204.0	0.508962361	0.610348850	0.008997611	0.092826695	0.028610089
2020-06-01T15:15:00	0.2119	13.009	203.0	0.507143068	0.607820707	0.008938976	0.092221773	0.028423646
2020-06-01T15:20:00	0.2117	12.994	203.0	0.506351322	0.606721307	0.008913519	0.091959131	0.028342697
2020-06-01T15:25:00	0.2121	12.986	203.0	0.507615971	0.608477610	0.008954199	0.092378825	0.028472051
2020-06-01T15:30:00	0.2111	12.972	203.0	0.504424316	0.604047623	0.008851710	0.091321458	0.028146160
2020-06-01T15:35:00	0.2110	12.954	203.0	0.503974982	0.603424611	0.008837328	0.091173085	0.028100430
2020-06-01T15:40:00	0.2103	12.930	203.0	0.501466546	0.599949593	0.008757256	0.090346996	0.027845822
2020-06-01T15:45:00	0.2095	12.905	203.0	0.498956265	0.596477088	0.008677489	0.089524052	0.027592182
2020-06-01T15:50:00	0.2099	12.882	203.0	0.500223655	0.598229652	0.008717716	0.089939071	0.027720095
2020-06-01T15:55:00	0.2103	12.858	203.0	0.501490574	0.599982856	0.008758021	0.090354892	0.027848255
2020-06-01T16:00:00	0.2100	12.832	203.0	0.500354144	0.598410168	0.008721863	0.089981855	0.027733282
2020-06-01T16:05:00	0.2106	12.806	203.0	0.502562688	0.601467491	0.008792201	0.090707521	0.027956939
2020-06-01T16:10:00	0.2105	12.784	203.0	0.502368341	0.601198297	0.008786001	0.090643548	0.027937222
2020-06-01T16:15:00	0.2108	12.766	203.0	0.503203447	0.602355240	0.008812661	0.090918601	0.028021996
2020-06-01T16:20:00	0.2096	12.747	203.0	0.499232704	0.596859242	0.008686255	0.089614493	0.027620057
2020-06-01T16:25:00	0.2096	12.727	202.0	0.499038168	0.596590305	0.008680086	0.089550843	0.027600440
2020-06-01T16:30:00	0.2090	12.707	203.0	0.497125481	0.593947734	0.008619543	0.088926232	0.027407928
2020-06-01T16:35:00	0.2089	12.684	202.0	0.496587073	0.593204398	0.008602538	0.088750801	0.027353859
2020-06-01T16:40:00	0.2095	12.660	202.0	0.498798056	0.596258405	0.008672474	0.089472312	0.027576236
2020-06-01T16:45:00	0.2083	12.641	202.0	0.494822177	0.590769385	0.008546915	0.088176948	0.027176992
2020-06-01T16:50:00	0.2079	12.623	202.0	0.493251243	0.588604082	0.008497556	0.087667719	0.027020042
2020-06-01T16:55:00	0.2072	12.605	202.0	0.490990985	0.585492118	0.008426787	0.086937613	0.026795017
2020-06-01T17:00:00	0.2073	12.587	203.0	0.491140314	0.585697591	0.008431454	0.086985755	0.026809855
2020-06-01T17:05:00	0.2076	12.569	202.0	0.492322393	0.587324729	0.008468438	0.087367316	0.026927455
2020-06-01T17:10:00	0.2071	12.549	202.0	0.490405929	0.584687269	0.008408517	0.086749123	0.026736922
2020-06-01T17:15:00	0.2064	12.528	202.0	0.488143778	0.581577856	0.008338060	0.086022227	0.026512886
2020-06-01T17:20:00	0.2070	12.507	202.0	0.490360251	0.584624443	0.008407092	0.086734415	0.026732389
2020-06-01T17:25:00	0.2066	12.488	202.0	0.488787255	0.582461924	0.008358072	0.086228686	0.026576518
2020-06-01T17:30:00	0.2065	12.469	201.0	0.488592121	0.582193796	0.008352001	0.086166051	0.026557214
2020-06-01T17:35:00	0.2059	12.447	202.0	0.486328762	0.579086009	0.008281742	0.085441203	0.026333809
2020-06-01T17:40:00	0.2056	12.426	202.0	0.485443762	0.577871943	0.008254350	0.085158605	0.026246709
2020-06-01T17:45:00	0.2057	12.402	202.0	0.485593335	0.578077087	0.008258976	0.085206334	0.026261420
2020-06-01T17:50:00	0.2053	12.378	201.0	0.484363154	0.576390385	0.008220964	0.084814174	0.026140552
2020-06-01T17:55:00	0.2052	12.352	201.0	0.484167765	0.576122598	0.008214935	0.084751970	0.026121380
2020-06-01T18:00:00	0.2049	12.328	201.0	0.482937067	0.574436589	0.008177008	0.084360685	0.026000783
2020-06-01T18:05:00	0.2048	12.303	201.0	0.482741596	0.574168913	0.008170992	0.084298621	0.025981654
2020-06-01T18:10:00	0.2051	12.278	201.0	0.483581532	0.575319331	0.008196858	0.084565473	0.026063900
2020-06-01T18:15:00	0.2049	12.253	201.0	0.483040975	0.574578891	0.008180207	0.084393687	0.026010954
2020-06-01T18:20:00	0.2049	12.227	201.0	0.482845510	0.574311207	0.008174190	0.084331612	0.025991822
2020-06-01T18:25:00	0.2051	12.202	201.0	0.483685420	0.575461660	0.008200060	0.084598508	0.026074082
2020-06-01T18:30:00	0.2052	12.177	201.0	0.483835071	0.575666701	0.008204674	0.084646106	0.026088752
2020-06-01T18:35:00	0.2048	12.152	200.0	0.482604252	0.573980852	0.008166767	0.084255025	0.025968217
2020-06-01T18:40:00	0.2051	12.127	200.0	0.483789305	0.575603993	0.008203263	0.084631548	0.026084265
2020-06-01T18:45:00	0.2049	12.102	200.0	0.482903642	0.574390815	0.008175979	0.084350071	0.025997511
2020-06-01T18:50:00	0.2048	12.077	200.0	0.482708170	0.574123141	0.008169964	0.084288009	0.025978383
2020-06-01T18:55:00	0.2055	12.053	200.0	0.484928193	0.577164960	0.008238413	0.084994187	0.026196034
2020-06-01T19:00:00	0.2056	12.028	199.0	0.485422706	0.577843066	0.008253699	0.085151887	0.026244639
2020-06-01T19:05:00	0.2058	12.003	199.0	0.485917147	0.578521267	0.008268996	0.085309708	0.026293281
2020-06-01T19:10:00	0.2065	11.979	199.0	0.488479680	0.582039308	0.008348503	0.086129970	0.026546093
2020-06-01T19:15:00	0.2062	11.954	199.0	0.487595241	0.580824488	0.008321019	0.085846423	0.026458701
2020-06-01T19:20:00	0.2068	11.929	199.0	0.489467600	0.583397003	0.008379256	0.086447241	0.026643879
2020-06-01T19:25:00	0.2072	11.903	198.0	0.490994612	0.585497109	0.008426901	0.086938782	0.026795377
2020-06-01T19:30:00	0.2078	11.875	199.0	0.492865101	0.588072145	0.008485445	0.087542773	0.026981533
2020-06-01T19:35:00	0.2081	11.848	198.0	0.494046581	0.589700092	0.008522528	0.087925350	0.027099447
2020-06-01T19:40:00	0.2090	11.821	198.0	0.496946748	0.593700946	0.008613896	0.088867976	0.027389973
2020-06-01T19:45:00	0.2094	11.793	198.0	0.498470409	0.595805582	0.008662092	0.089365207	0.027543225
2020-06-01T19:50:00	0.2099	11.766	198.0	0.500336798	0.598386171	0.008721312	0.089976167	0.027731529
2020-06-01T19:55:00	0.2103	11.740	198.0	0.501515691	0.600017627	0.008758821	0.090363145	0.027850799
2020-06-01T20:00:00	0.2102	11.713	197.0	0.501321285	0.599748513	0.008752630	0.090299273	0.027831113
2020-06-01T20:05:00	0.2108	11.686	199.0	0.503186115	0.602331223	0.008812107	0.090912888	0.028020235
2020-06-01T20:10:00	0.2110	11.661	198.0	0.504021021	0.603488439	0.008838801	0.091188282	0.028105114
2020-06-01T20:15:00	0.2111	11.636	198.0	0.504169781	0.603694685	0.008843562	0.091237394	0.028120251
2020-06-01T20:20:00	0.2115	11.610	198.0	0.505690222	0.605803706	0.008892290	0.091740114	0.028275194
2020-06-01T20:25:00	0.2113	11.584	198.0	0.505153163	0.605058533	0.008875062	0.091562383	0.028220416
2020-06-01T20:30:00	0.2112	11.559	197.0	0.504616020	0.604313476	0.008857849	0.091384796	0.028165682
2020-06-01T20:35:00	0.2113	11.534	197.0	0.505107683	0.604995439	0.008873604	0.091547340	0.028215779
2020-06-01T20:40:00	0.2111	11.508	198.0	0.504227550	0.603774783	0.008845411	0.091256470	0.028126130
2020-06-01T20:45:00	0.2115	11.483	198.0	0.505747965	0.605883839	0.008894143	0.091759233	0.028281087
2020-06-01T20:50:00	0.2117	11.457	197.0	0.506239465	0.606566026	0.008909925	0.091922055	0.028331270
2020-06-01T20:55:00	0.2117	11.431	197.0	0.506388128	0.606772403	0.008914701	0.091971332	0.028346458
2020-06-01T21:00:00	0.2117	11.405	197.0	0.506193999	0.606502912	0.008908465	0.091906987	0.028326626
2020-06-01T21:05:00	0.2117	11.378	197.0	0.506342664	0.606709287	0.008913241	0.091956261	0.028341813
2020-06-01T21:10:00	0.2121	11.350	197.0	0.507862138	0.608819629	0.008962129	0.092460630	0.028497264
2020-06-01T21:15:00	0.2122	11.323	197.0	0.508010731	0.609026104	0.008966917	0.092510028	0.028512489
2020-06-01T21:20:00	0.2125	11.296	197.0	0.509186979	0.610661172	0.009004864	0.092901518	0.028633150
2020-06-01T21:25:00	0.2124	11.271	196.0	0.508650470	0.609915247	0.008987545	0.092722849	0.028578083
2020-06-01T21:30:00	0.2133	11.245	196.0	0.511880515	0.614409582	0.009092061	0.093801120	0.028910416
2020-06-01T21:35:00	0.2130	11.220	195.0	0.510659785	0.612710049	0.009052491	0.093392877	0.028784592
2020-06-01T21:40:00	0.2134	11.194	196.0	0.512177345	0.614823019	0.009101696	0.093900522	0.028941053
2020-06-01T21:45:00	0.2132	11.167	196.0	0.511641304	0.614076451	0.009084300	0.093721052	0.028885738
2020-06-01T21:50:00	0.2127	11.140	195.0	0.509735661	0.611424260	0.009022592	0.093084419	0.028689522
2020-06-01T21:55:00	0.2123	11.113	195.0	0.508514166	0.609725778	0.008983148	0.092677485	0.028564101
2020-06-01T22:00:00	0.2120	11.086	197.0	0.507292235	0.608027893	0.008943777	0.092271297	0.028438910
2020-06-01T22:05:00	0.2124	11.061	195.0	0.508856719	0.610201974	0.008994201	0.092791514	0.028599246
2020-06-01T22:10:00	0.2120	11.036	195.0	0.507337686	0.608091027	0.008945240	0.092286390	0.028443562
2020-06-01T22:15:00	0.2118	11.009	194.0	0.506846345	0.607408625	0.008929431	0.092123298	0.028393295
2020-06-01T22:20:00	0.2115	10.984	194.0	0.505669291	0.605774660	0.008891618	0.091733184	0.028273058
2020-06-01T22:25:00	0.2116	10.957	194.0	0.505863449	0.606044110	0.008897850	0.091797478	0.028292874
2020-06-01T22:30:00	0.2113	10.931	194.0	0.505028994	0.604886280	0.008871082	0.091521315	0.028207758
2020-06-01T22:35:00	0.2117	10.905	194.0	0.506251734	0.606583057	0.008910319	0.091926121	0.028332523
2020-06-01T22:40:00	0.2135	10.880	194.0	0.512610295	0.615426176	0.009115759	0.094045602	0.028985768
2020-06-01T22:45:00	0.2130	10.853	194.0	0.510750598	0.612836440	0.009055431	0.093423216	0.028793943
2020-06-01T22:50:00	0.2132	10.827	194.0	0.511629054	0.614059393	0.009083903	0.093716952	0.028884475
2020-06-01T22:55:00	0.2140	10.802	194.0	0.514217712	0.617666850	0.009168064	0.094585223	0.029152084
2020-06-01T23:00:00	0.2142	10.776	194.0	0.514753351	0.618413972	0.009185527	0.094765384	0.029207612
2020-06-01T23:05:00	0.2135	10.747	193.0	0.512552667	0.615345884	0.009113886	0.094026285	0.028979814
2020-06-01T23:10:00	0.2130	10.723	193.0	0.510692939	0.612756191	0.009053564	0.093403953	0.028788005
2020-06-01T23:15:00	0.2128	10.697	193.0	0.510202079	0.612073128	0.009037676	0.093240038	0.028737485
2020-06-01T23:20:00	0.2129	10.672	201.0	0.510395980	0.612342931	0.009043951	0.093304771	0.028757437
2020-06-01T23:25:00	0.2130	10.649	193.0	0.510932216	0.613089231	0.009061314	0.093483908	0.028812648
2020-06-01T23:30:00	0.2134	10.626	193.0	0.512152849	0.614788897	0.009100901	0.093892317	0.028938524
2020-06-01T23:35:00	0.2130	10.598	193.0	0.510977619	0.613152431	0.009062785	0.093499083	0.028817325
2020-06-01T23:40:00	0.2123	10.570	193.0	0.508431947	0.609611495	0.008980496	0.092650126	0.028555669
2020-06-01T23:45:00	0.2125	10.545	193.0	0.508968491	0.610357373	0.008997809	0.092828736	0.028610718
2020-06-01T23:50:00	0.2124	10.520	193.0	0.508819940	0.610150841	0.008993014	0.092779268	0.028595471
2020-06-01T23:55:00	0.2120	10.497	193.0	0.507300891	0.608039916	0.008944055	0.092274171	0.028439796
2020-06-02T00:00:00	0.2120	10.472	193.0	0.507494957	0.608309494	0.008950303	0.092338623	0.028459660
2020-06-02T00:05:00	0.2116	10.447	193.0	0.505975319	0.606199375	0.008901442	0.091834532	0.028304295
2020-06-02T00:10:00	0.2113	10.421	192.0	0.505140890	0.605041507	0.008874669	0.091558323	0.028219164
2020-06-02T00:15:00	0.2114	10.397	205.0	0.505335079	0.605310917	0.008880896	0.091622566	0.028238965
2020-06-02T00:20:00	0.2111	10.372	192.0	0.504157504	0.603677663	0.008843169	0.091233340	0.028119002
2020-06-02T00:25:00	0.2102	10.348	192.0	0.501263466	0.599668482	0.008750789	0.090280281	0.027825260
2020-06-02T00:30:00	0.2108	10.326	192.0	0.503173835	0.602314206	0.008811715	0.090908841	0.028018988
2020-06-02T00:35:00	0.2107	10.302	191.0	0.503025032	0.602108019	0.008806962	0.090859803	0.028003874
2020-06-02T00:40:00	0.2116	10.278	192.0	0.505963049	0.606182345	0.008901048	0.091830468	0.028303042
2020-06-02T00:45:00	0.2104	10.253	191.0	0.502041037	0.600745007	0.008775562	0.090535859	0.027904031
2020-06-02T00:50:00	0.2102	10.230	191.0	0.501205647	0.599588452	0.008748949	0.090261291	0.027819407
2020-06-02T00:55:00	0.2103	10.205	191.0	0.501400059	0.599857556	0.008755139	0.090325152	0.027839089
2020-06-02T01:00:00	0.2099	10.180	192.0	0.500221127	0.598226155	0.008717636	0.089938242	0.027719840
2020-06-02T01:05:00	0.2093	10.156	191.0	0.498011066	0.595170895	0.008647548	0.089215160	0.027496979
2020-06-02T01:10:00	0.2094	10.134	190.0	0.498549249	0.595914535	0.008664590	0.089390974	0.027551166
2020-06-02T01:15:00	0.2093	10.111	191.0	0.498056641	0.595233860	0.008648991	0.089230042	0.027501566
2020-06-02T01:20:00	0.2088	10.088	191.0	0.496532795	0.593129475	0.008600825	0.088733125	0.027348411
2020-06-02T01:25:00	0.2089	10.065	190.0	0.496727474	0.593398217	0.008606971	0.088796532	0.027367953
2020-06-02T01:30:00	0.2082	10.041	190.0	0.494171151	0.589871801	0.008526443	0.087965736	0.027111894
2020-06-02T01:35:00	0.2081	10.017	190.0	0.494021955	0.589666148	0.008521754	0.087917367	0.027096986
2020-06-02T01:40:00	0.2076	9.994	190.0	0.492152102	0.587090253	0.008463105	0.087312297	0.026910498
2020-06-02T01:45:00	0.2069	9.971	190.0	0.489936797	0.584042093	0.008393881	0.086598127	0.026690384
2020-06-02T01:50:00	0.2073	9.947	190.0	0.491164962	0.585731506	0.008432224	0.086993703	0.026812304
2020-06-02T01:55:00	0.2073	9.926	190.0	0.491359948	0.585999833	0.008438320	0.087056588	0.026831686
2020-06-02T02:00:00	0.2077	9.902	190.0	0.492587599	0.587689940	0.008476747	0.087453035	0.026953875
2020-06-02T02:05:00	0.2080	9.878	190.0	0.493814807	0.589380645	0.008515247	0.087850234	0.027076295
2020-06-02T02:10:00	0.2078	9.857	190.0	0.492977398	0.588226828	0.008488966	0.087579100	0.026992729
2020-06-02T02:15:00	0.2080	9.836	189.0	0.493516377	0.588969391	0.008505877	0.087753561	0.027046500
2020-06-02T02:20:00	0.2081	9.814	189.0	0.494055270	0.589712069	0.008522801	0.087928167	0.027100315
2020-06-02T02:25:00	0.2087	9.794	189.0	0.495969681	0.592352304	0.008583060	0.088549847	0.027291923
2020-06-02T02:30:00	0.2085	9.773	189.0	0.495476700	0.591672134	0.008567522	0.088389549	0.027242517
2020-06-02T02:35:00	0.2090	9.752	189.0	0.497046607	0.593838825	0.008617051	0.088900522	0.027400004
2020-06-02T02:40:00	0.2085	9.731	189.0	0.495522309	0.591735053	0.008568959	0.088404373	0.027247086
2020-06-02T02:45:00	0.2085	9.709	188.0	0.495373172	0.591529320	0.008564261	0.088355904	0.027232148
2020-06-02T02:50:00	0.2085	9.688	188.0	0.495224028	0.591323596	0.008559564	0.088307447	0.027217213
2020-06-02T02:55:00	0.2085	9.668	188.0	0.495418782	0.591592237	0.008565698	0.088370726	0.027236716
2020-06-02T03:00:00	0.2080	9.646	189.0	0.493549697	0.589015305	0.008506923	0.087764352	0.027049826
2020-06-02T03:05:00	0.2078	9.627	188.0	0.493056365	0.588335609	0.008491443	0.087604650	0.027000604
2020-06-02T03:10:00	0.2080	9.605	188.0	0.493595332	0.589078189	0.008508355	0.087779132	0.027054381
2020-06-02T03:15:00	0.2077	9.584	188.0	0.492757868	0.587924445	0.008482083	0.087508091	0.026970843
2020-06-02T03:20:00	0.2080	9.563	189.0	0.493640966	0.589141073	0.008509788	0.087793914	0.027058937
2020-06-02T03:25:00	0.2080	9.544	188.0	0.493491746	0.588935452	0.008505103	0.087745585	0.027044041
2020-06-02T03:30:00	0.2078	9.523	187.0	0.492998406	0.588255768	0.008489625	0.087585897	0.026994824
2020-06-02T03:35:00	0.2076	9.505	188.0	0.492160796	0.587102224	0.008463377	0.087315105	0.026911363
2020-06-02T03:40:00	0.2074	9.485	187.0	0.491667263	0.586422800	0.008447931	0.087155745	0.026862247
2020-06-02T03:45:00	0.2073	9.467	188.0	0.491173658	0.585743473	0.008432496	0.086996507	0.026813168
2020-06-02T03:50:00	0.2074	9.451	188.0	0.491712923	0.586485650	0.008449359	0.087170483	0.026866789
2020-06-02T03:55:00	0.2085	9.435	187.0	0.495348555	0.591495364	0.008563486	0.088347905	0.027229682
2020-06-02T04:00:00	0.2089	9.417	188.0	0.496574769	0.593187414	0.008602150	0.088746794	0.027352624
2020-06-02T04:05:00	0.2088	9.401	187.0	0.496267351	0.592763096	0.008592448	0.088646707	0.027321776
2020-06-02T04:10:00	0.2095	9.385	187.0	0.498709454	0.596135945	0.008669666	0.089443343	0.027567307
2020-06-02T04:15:00	0.2104	9.368	187.0	0.501836359	0.600461589	0.008769038	0.090468549	0.027883285
2020-06-02T04:20:00	0.2109	9.355	187.0	0.503588420	0.602888765	0.008824965	0.091045537	0.028061119
2020-06-02T04:25:00	0.2113	9.341	187.0	0.504996678	0.604841453	0.008870046	0.091510629	0.028204465
2020-06-02T04:30:00	0.2112	9.327	187.0	0.504690019	0.604416104	0.008860219	0.091409251	0.028173219
2020-06-02T04:35:00	0.2117	9.314	187.0	0.506440618	0.606845277	0.008916388	0.091988734	0.028351821
2020-06-02T04:40:00	0.2121	9.301	187.0	0.507847702	0.608799570	0.008961664	0.092455832	0.028495785
2020-06-02T04:45:00	0.2119	9.288	187.0	0.507198613	0.607897855	0.008940764	0.092240212	0.028429329
2020-06-02T04:50:00	0.2120	9.278	187.0	0.507234867	0.607948209	0.008941931	0.092252249	0.028433039
2020-06-02T04:55:00	0.2125	9.267	187.0	0.508984164	0.610379164	0.008998315	0.092833956	0.028612327
2020-06-02T05:00:00	0.2133	9.258	186.0	0.511759458	0.614240989	0.009088133	0.093760596	0.028897926
2020-06-02T05:05:00	0.2135	9.249	186.0	0.512480079	0.615244751	0.009111528	0.094001956	0.028972316
2020-06-02T05:10:00	0.2137	9.242	187.0	0.513200548	0.616248722	0.009134948	0.094243575	0.029046785
2020-06-02T05:15:00	0.2137	9.235	187.0	0.513236738	0.616299163	0.009136125	0.094255720	0.029050528
2020-06-02T05:20:00	0.2139	9.230	187.0	0.513957048	0.617303353	0.009159572	0.094497612	0.029125082
2020-06-02T05:25:00	0.2146	9.226	187.0	0.516386552	0.620693437	0.009238875	0.095315767	0.029377245
2020-06-02T05:30:00	0.2152	9.223	187.0	0.518472778	0.623608330	0.009307246	0.096021140	0.029594648
2020-06-02T05:35:00	0.2162	9.222	186.0	0.521581692	0.627958673	0.009409602	0.097077131	0.029920115
2020-06-02T05:40:00	0.2161	9.223	187.0	0.521276513	0.627531286	0.009399530	0.096973216	0.029888087
2020-06-02T05:45:00	0.2167	9.225	186.0	0.523359772	0.630450288	0.009468395	0.097683689	0.030107062
2020-06-02T05:50:00	0.2178	9.229	187.0	0.527145772	0.635764142	0.009594194	0.098981529	0.030507069
2020-06-02T05:55:00	0.2180	9.234	187.0	0.527863173	0.636772365	0.009618125	0.099228424	0.030583164
2020-06-02T06:00:00	0.2187	9.241	187.0	0.530282874	0.640176061	0.009699064	0.100063451	0.030840527
2020-06-02T06:05:00	0.2187	9.248	187.0	0.530318885	0.640226751	0.009700271	0.100075904	0.030844366
2020-06-02T06:10:00	0.2189	9.257	187.0	0.531035625	0.641235897	0.009724312	0.100323939	0.030920812
2020-06-02T06:15:00	0.2194	9.267	196.0	0.532772849	0.643683582	0.009782709	0.100926404	0.031106498
2020-06-02T06:20:00	0.2193	9.278	187.0	0.532468660	0.643254814	0.009772471	0.100820781	0.031073944
2020-06-02T06:25:00	0.2198	9.292	188.0	0.533865126	0.645223821	0.009819516	0.101306133	0.031223534
2020-06-02T06:30:00	0.2203	9.306	187.0	0.535600927	0.647673503	0.009878151	0.101911061	0.031409979
2020-06-02T06:35:00	0.2218	9.323	187.0	0.540731301	0.654928217	0.010052483	0.103709615	0.031964310
2020-06-02T06:40:00	0.2216	9.341	187.0	0.540088388	0.654017913	0.010030552	0.103483359	0.031894576
2020-06-02T06:45:00	0.2220	9.361	196.0	0.541481780	0.655991249	0.010078114	0.103974041	0.032045809
2020-06-02T06:50:00	0.2225	9.383	187.0	0.543213763	0.658446314	0.010137391	0.104585592	0.032234295
2020-06-02T06:55:00	0.2227	9.406	187.0	0.543927835	0.659459218	0.010161881	0.104838254	0.032312168
2020-06-02T07:00:00	0.2235	9.432	187.0	0.546675134	0.663360122	0.010256383	0.105813209	0.032612659
2020-06-02T07:05:00	0.2242	9.470	188.0	0.549081714	0.666782318	0.010339528	0.106671002	0.032877039
2020-06-02T07:10:00	0.2247	9.512	187.0	0.550471497	0.668760775	0.010387698	0.107167968	0.033030208
2020-06-02T07:15:00	0.2253	9.551	188.0	0.552537239	0.671704439	0.010459507	0.107908809	0.033258543
2020-06-02T07:20:00	0.2259	9.586	188.0	0.554601755	0.674649856	0.010531524	0.108651795	0.033487538
2020-06-02T07:25:00	0.2257	9.622	188.0	0.553961407	0.673735905	0.010509160	0.108421067	0.033416426
2020-06-02T07:30:00	0.2258	9.647	189.0	0.554335239	0.674269424	0.010522213	0.108555734	0.033457932
2020-06-02T07:35:00	0.2259	9.675	189.0	0.554709030	0.674802999	0.010535273	0.108690472	0.033499459
2020-06-02T07:40:00	0.2260	9.715	189.0	0.555082781	0.675336633	0.010548340	0.108825279	0.033541008
2020-06-02T07:45:00	0.2262	9.761	189.0	0.555794417	0.676353007	0.010573242	0.109082192	0.033620191
2020-06-02T07:50:00	0.2265	9.793	189.0	0.556843730	0.677852419	0.010610015	0.109461573	0.033737120
2020-06-02T07:55:00	0.2262	9.796	189.0	0.555865909	0.676455137	0.010575746	0.109108019	0.033628151
2020-06-02T08:00:00	0.2248	9.819	189.0	0.550829491	0.669270663	0.010400125	0.107296171	0.033069722
2020-06-02T08:05:00	0.2251	9.852	190.0	0.551880303	0.670767932	0.010436644	0.107672930	0.033185843
2020-06-02T08:10:00	0.2250	9.900	190.0	0.551577788	0.670336795	0.010426124	0.107564398	0.033152392
2020-06-02T08:15:00	0.2247	9.940	189.0	0.550598486	0.668941632	0.010392105	0.107213435	0.033044222
2020-06-02T08:20:00	0.2232	9.988	190.0	0.545554419	0.661768067	0.010217779	0.105414941	0.032489909
2020-06-02T08:25:00	0.2235	10.039	190.0	0.546606829	0.663263060	0.010254028	0.105788914	0.032605171
2020-06-02T08:30:00	0.2235	10.095	191.0	0.546642670	0.663313990	0.010255263	0.105801662	0.032609100
2020-06-02T08:35:00	0.2236	10.146	190.0	0.547017290	0.663846384	0.010268183	0.105934952	0.032650181
2020-06-02T08:40:00	0.2237	10.189	191.0	0.547391870	0.664378835	0.010281110	0.106068313	0.032691284
2020-06-02T08:45:00	0.2234	10.239	191.0	0.546072547	0.662503976	0.010235617	0.105598974	0.032546629
2020-06-02T08:50:00	0.2237	10.289	191.0	0.547124799	0.663999193	0.010271892	0.105973220	0.032661976
2020-06-02T08:55:00	0.2244	10.359	192.0	0.549531067	0.667421832	0.010355090	0.106831556	0.032926523
2020-06-02T09:00:00	0.2238	10.451	192.0	0.547535199	0.664582603	0.010286058	0.106119365	0.032707019
2020-06-02T09:05:00	0.2242	10.513	192.0	0.548925601	0.666560179	0.010334124	0.106615251	0.032859856
2020-06-02T09:10:00	0.2239	10.612	193.0	0.547945550	0.665166083	0.010300232	0.106265595	0.032752088
2020-06-02T09:15:00	0.2234	10.683	192.0	0.546287620	0.662809515	0.010243026	0.105675413	0.032570188
2020-06-02T09:20:00	0.2244	10.722	193.0	0.549710118	0.667676701	0.010361294	0.106895565	0.032946251
2020-06-02T09:25:00	0.2239	10.753	193.0	0.548053031	0.665318933	0.010303946	0.106303913	0.032763898
2020-06-02T09:30:00	0.2234	10.800	194.0	0.546395152	0.662962291	0.010246732	0.105713641	0.032581971
2020-06-02T09:35:00	0.2237	10.850	194.0	0.547108570	0.663976124	0.010271332	0.105967443	0.032660195
2020-06-02T09:40:00	0.2229	10.913	194.0	0.544433342	0.660176526	0.010179236	0.105017304	0.032367353
2020-06-02T09:45:00	0.2225	10.971	194.0	0.543112893	0.658303265	0.010133934	0.104549926	0.032223303
2020-06-02T09:50:00	0.2214	11.019	195.0	0.539416207	0.653066531	0.010007649	0.103247069	0.031821749
2020-06-02T09:55:00	0.2220	11.063	195.0	0.541488544	0.656000832	0.010078345	0.103976426	0.032046544
2020-06-02T10:00:00	0.2219	11.115	194.0	0.541185121	0.655570985	0.010067978	0.103869474	0.032013581
2020-06-02T10:05:00	0.2214	11.159	195.0	0.539517877	0.653210407	0.010011111	0.103282791	0.031832759
2020-06-02T10:10:00	0.2214	11.203	195.0	0.539547716	0.653252635	0.010012128	0.103293277	0.031835991
2020-06-02T10:15:00	0.2220	11.252	196.0	0.541613902	0.656178444	0.010082629	0.104020629	0.032060168
2020-06-02T10:20:00	0.2229	11.295	195.0	0.544695974	0.660549280	0.010188259	0.105110390	0.032396043
2020-06-02T10:25:00	0.2230	11.348	196.0	0.544725769	0.660591571	0.010189283	0.105120952	0.032399298
2020-06-02T10:30:00	0.2227	11.394	196.0	0.543738462	0.659190553	0.010155383	0.104771217	0.032291507
2020-06-02T10:35:00	0.2231	11.441	196.0	0.545124321	0.661157355	0.010202983	0.105262299	0.032442863
2020-06-02T10:40:00	0.2229	11.491	196.0	0.544476156	0.660237288	0.010180707	0.105032476	0.032372029
2020-06-02T10:45:00	0.2221	11.542	197.0	0.541792824	0.656431970	0.010088746	0.104083735	0.032079618
2020-06-02T10:50:00	0.2218	11.589	196.0	0.540804680	0.655032136	0.010054988	0.103735454	0.031972275
2020-06-02T10:55:00	0.2225	11.637	196.0	0.543209269	0.658439941	0.010137237	0.104584003	0.032233805
2020-06-02T11:00:00	0.2224	11.680	197.0	0.542899927	0.658001274	0.010126637	0.104474644	0.032200100
2020-06-02T11:05:00	0.2217	11.719	197.0	0.540554785	0.654678253	0.010046459	0.103647470	0.031945157
2020-06-02T11:10:00	0.2216	11.765	198.0	0.540245206	0.654239921	0.010035899	0.103538524	0.031911578
2020-06-02T11:15:00	0.2212	11.820	198.0	0.538917081	0.652360324	0.009990659	0.103071790	0.031767727
2020-06-02T11:20:00	0.2212	11.863	199.0	0.538607356	0.651922200	0.009980124	0.102963098	0.031734227
2020-06-02T11:25:00	0.2219	11.924	199.0	0.541013470	0.655327848	0.010062116	0.103808995	0.031994941
2020-06-02T11:30:00	0.2217	11.986	198.0	0.540364535	0.654408870	0.010039969	0.103580511	0.031924519
2020-06-02T11:35:00	0.2206	12.044	199.0	0.536658830	0.649167694	0.009913973	0.102280631	0.031523884
2020-06-02T11:40:00	0.2204	12.098	199.0	0.536009077	0.648249870	0.009891964	0.102053565	0.031453900
2020-06-02T11:45:00	0.2200	12.157	199.0	0.534679324	0.646372567	0.009846997	0.101589656	0.031310918
2020-06-02T11:50:00	0.2200	12.225	199.0	0.534709204	0.646414736	0.009848007	0.101600068	0.031314128
2020-06-02T11:55:00	0.2200	12.264	199.0	0.534739085	0.646456905	0.009849016	0.101610482	0.031317337
2020-06-02T12:00:00	0.2200	12.312	200.0	0.534768965	0.646499075	0.009850025	0.101620895	0.031320547
2020-06-02T12:05:00	0.2205	12.381	201.0	0.536498231	0.648940805	0.009908531	0.102224483	0.031506579
2020-06-02T12:10:00	0.2201	12.443	201.0	0.535168666	0.647063237	0.009863533	0.101760248	0.031363497
2020-06-02T12:15:00	0.2207	12.490	201.0	0.537237470	0.649985357	0.009933594	0.102483059	0.031586274
2020-06-02T12:20:00	0.2197	12.530	201.0	0.533528408	0.644748906	0.009808162	0.101188997	0.031187432
2020-06-02T12:25:00	0.2192	12.588	201.0	0.531857465	0.642393534	0.009751917	0.100608725	0.031008586
2020-06-02T12:30:00	0.2191	12.643	201.0	0.531547106	0.641956300	0.009741488	0.100501131	0.030975425
2020-06-02T12:35:00	0.2182	12.728	202.0	0.528513150	0.637686193	0.009639833	0.099452382	0.030652190
2020-06-02T12:40:00	0.2182	12.788	202.0	0.528543084	0.637728288	0.009640834	0.099462703	0.030655371
2020-06-02T12:45:00	0.2192	12.823	202.0	0.531977085	0.642562074	0.009755938	0.100650210	0.031021372
2020-06-02T12:50:00	0.2206	12.818	202.0	0.536767007	0.649320537	0.009917640	0.102318460	0.031535543
2020-06-02T12:55:00	0.2268	12.811	202.0	0.557798479	0.679217491	0.010643531	0.109807345	0.033843690
2020-06-02T13:00:00	0.2305	12.824	205.0	0.570301137	0.697162758	0.011087381	0.114386468	0.035255020
2020-06-02T13:05:00	0.2302	12.862	202.0	0.569321057	0.695751372	0.011052255	0.114024072	0.035143327
2020-06-02T13:10:00	0.2303	12.910	202.0	0.569687223	0.696278585	0.011065371	0.114159398	0.035185035
2020-06-02T13:15:00	0.2296	12.944	202.0	0.567023266	0.692445501	0.010970123	0.113176736	0.034882169
2020-06-02T13:20:00	0.2284	12.950	202.0	0.563008701	0.686680138	0.010827375	0.111704037	0.034428269
2020-06-02T13:25:00	0.2272	12.930	202.0	0.558989511	0.680921446	0.010685416	0.110239465	0.033976874
2020-06-02T13:30:00	0.2261	12.904	202.0	0.555303652	0.675652041	0.010556066	0.108904985	0.033565574
2020-06-02T13:35:00	0.2251	12.876	202.0	0.551952183	0.670870383	0.010439144	0.107698727	0.033193794
2020-06-02T13:40:00	0.2246	12.848	202.0	0.550290109	0.668502466	0.010381405	0.107103040	0.033010197
2020-06-02T13:45:00	0.2233	12.830	202.0	0.545917335	0.662283502	0.010230272	0.105543827	0.032529633
2020-06-02T13:50:00	0.2229	12.840	202.0	0.544591385	0.660400829	0.010184665	0.105073315	0.032384616
2020-06-02T13:55:00	0.2226	12.869	202.0	0.543604040	0.658999866	0.010150772	0.104723646	0.032276845
2020-06-02T14:00:00	0.2212	12.901	202.0	0.538883276	0.652312500	0.009989509	0.103059924	0.031764069
2020-06-02T14:05:00	0.2207	12.926	203.0	0.537214921	0.649953489	0.009932829	0.102475167	0.031583842
2020-06-02T14:10:00	0.2202	12.947	203.0	0.535205858	0.647115738	0.009864790	0.101773219	0.031367495
2020-06-02T14:15:00	0.2190	12.961	202.0	0.531154309	0.641403040	0.009728296	0.100365041	0.030933480
2020-06-02T14:20:00	0.2187	12.972	202.0	0.530163119	0.640007494	0.009695050	0.100022041	0.030827764
2020-06-02T14:25:00	0.2180	12.979	203.0	0.527809311	0.636696655	0.009616327	0.099209877	0.030577448
2020-06-02T14:30:00	0.2174	12.984	203.0	0.525794761	0.633866589	0.009549208	0.098517415	0.030364024
2020-06-02T14:35:00	0.2167	12.987	202.0	0.523437965	0.630559918	0.009470985	0.097710406	0.030115296
2020-06-02T14:40:00	0.2165	12.990	203.0	0.522785715	0.629645585	0.009449394	0.097487653	0.030046642
2020-06-02T14:45:00	0.2155	12.992	203.0	0.519402557	0.624908560	0.009337799	0.096336347	0.029691798
2020-06-02T14:50:00	0.2146	12.993	203.0	0.516357867	0.620653382	0.009237936	0.095306087	0.029374261
2020-06-02T14:55:00	0.2137	12.992	203.0	0.513310473	0.616401939	0.009138524	0.094280467	0.029058156
2020-06-02T15:00:00	0.2125	12.993	203.0	0.509233026	0.610725203	0.009006351	0.092916861	0.028637879
2020-06-02T15:05:00	0.2108	12.993	203.0	0.503435750	0.602677168	0.008820085	0.090995186	0.028045600
2020-06-02T15:10:00	0.2097	12.989	203.0	0.499346503	0.597016576	0.008689865	0.089651737	0.027631536
2020-06-02T15:15:00	0.2088	12.987	203.0	0.496283901	0.592785937	0.008592971	0.088652093	0.027323436
2020-06-02T15:20:00	0.2092	12.986	202.0	0.497689026	0.594726024	0.008637359	0.089110039	0.027464579
2020-06-02T15:25:00	0.2097	12.988	203.0	0.499437072	0.597141802	0.008692739	0.089681384	0.027640674
2020-06-02T15:30:00	0.2098	12.989	202.0	0.499810722	0.597658501	0.008704599	0.089803747	0.027678387
2020-06-02T15:35:00	0.2096	12.984	203.0	0.499153957	0.596750374	0.008683758	0.089588725	0.027612115
2020-06-02T15:40:00	0.2107	12.969	203.0	0.502960636	0.602018795	0.008804905	0.090838585	0.027997334
2020-06-02T15:45:00	0.2126	12.948	203.0	0.509503942	0.611101962	0.009015103	0.093007154	0.028665708
2020-06-02T15:50:00	0.2158	12.926	203.0	0.520475536	0.626409917	0.009373119	0.096700744	0.029804109
2020-06-02T15:55:00	0.2214	12.906	203.0	0.539569633	0.653283653	0.010012874	0.103300979	0.031838365
2020-06-02T16:00:00	0.2251	12.883	203.0	0.552137851	0.671135042	0.010445604	0.107765374	0.033214335
2020-06-02T16:05:00	0.2257	12.850	202.0	0.553915417	0.673670278	0.010507555	0.108404506	0.033411322
2020-06-02T16:10:00	0.2230	12.816	202.0	0.544861837	0.660784718	0.010193959	0.105169198	0.032414168
2020-06-02T16:15:00	0.2230	12.791	201.0	0.544948720	0.660908055	0.010196946	0.105200010	0.032423665
2020-06-02T16:20:00	0.2224	12.766	201.0	0.543001264	0.658144968	0.010130109	0.104510463	0.032211140
2020-06-02T16:25:00	0.2223	12.733	201.0	0.542409833	0.657306448	0.010109854	0.104301505	0.032146737
2020-06-02T16:30:00	0.2235	12.699	201.0	0.546564848	0.663203407	0.010252580	0.105773983	0.032600569
2020-06-02T16:35:00	0.2267	12.665	200.0	0.557476357	0.678756846	0.010632217	0.109690623	0.033807715
2020-06-02T16:40:00	0.2271	12.634	200.0	0.558575987	0.680329703	0.010670864	0.110089336	0.033930603
2020-06-02T16:45:00	0.2267	12.603	200.0	0.557311746	0.678521480	0.010626438	0.109631000	0.033789339
2020-06-02T16:50:00	0.2263	12.570	201.0	0.556047045	0.676713916	0.010582090	0.109173469	0.033648323
2020-06-02T16:55:00	0.2275	12.543	201.0	0.560185793	0.682634087	0.010727570	0.110674358	0.034110912
2020-06-02T17:00:00	0.2286	12.516	201.0	0.563645403	0.687593625	0.010849951	0.111936949	0.034500055
2020-06-02T17:05:00	0.2268	12.490	200.0	0.557658020	0.679016620	0.010638597	0.109756442	0.033828001
2020-06-02T17:10:00	0.2237	12.467	200.0	0.547259507	0.664190674	0.010276541	0.106021179	0.032676757
2020-06-02T17:15:00	0.2237	12.448	201.0	0.547346330	0.664314096	0.010279538	0.106052095	0.032686286
2020-06-02T17:20:00	0.2240	12.428	200.0	0.548110529	0.665400706	0.010305933	0.106324414	0.032770217
2020-06-02T17:25:00	0.2226	12.404	199.0	0.543453019	0.658785651	0.010145593	0.104670214	0.032260377
2020-06-02T17:30:00	0.2213	12.381	199.0	0.539128792	0.652659847	0.009997864	0.103146119	0.031790636
2020-06-02T17:35:00	0.2214	12.360	199.0	0.539555329	0.653263410	0.010012387	0.103295952	0.031836816
2020-06-02T17:40:00	0.2205	12.337	199.0	0.536245830	0.648584261	0.009899980	0.102136272	0.031479391
2020-06-02T17:45:00	0.2185	12.316	199.0	0.529530036	0.639116563	0.009673845	0.099803273	0.030760338
2020-06-02T17:50:00	0.2178	12.296	199.0	0.527233179	0.635886960	0.009597108	0.099011594	0.030516335
2020-06-02T17:55:00	0.2166	12.276	199.0	0.523229693	0.630267921	0.009464088	0.097639250	0.030093365
2020-06-02T18:00:00	0.2145	12.257	199.0	0.515804824	0.619881269	0.009219855	0.095119544	0.029316767
2020-06-02T18:05:00	0.2138	12.239	199.0	0.513498774	0.616664422	0.009144651	0.094343680	0.029077638
2020-06-02T18:10:00	0.2135	12.218	199.0	0.512560108	0.615356251	0.009114128	0.094028779	0.028980583
2020-06-02T18:15:00	0.2153	12.197	199.0	0.518801108	0.624067395	0.009318029	0.096132389	0.029628936
2020-06-02T18:20:00	0.2170	12.177	198.0	0.524348867	0.631837413	0.009501180	0.098021920	0.030211308
2020-06-02T18:25:00	0.2184	12.157	199.0	0.529206740	0.638661718	0.009663025	0.099691648	0.030725934
2020-06-02T18:30:00	0.2201	12.139	199.0	0.535077726	0.646934867	0.009860459	0.101728534	0.031353722
2020-06-02T18:35:00	0.2178	12.120	198.0	0.527337716	0.636033856	0.009600594	0.099047557	0.030527419
2020-06-02T18:40:00	0.2180	12.102	198.0	0.527765712	0.636635371	0.009614872	0.099194865	0.030572821
2020-06-02T18:45:00	0.2180	12.084	198.0	0.527853026	0.636758102	0.009617786	0.099224930	0.030582087
2020-06-02T18:50:00	0.2183	12.068	198.0	0.528962097	0.638317588	0.009654842	0.099607221	0.030699913
2020-06-02T18:55:00	0.2168	12.051	198.0	0.523937674	0.631260651	0.009487543	0.097881237	0.030167948
2020-06-02T19:00:00	0.2176	12.032	198.0	0.526411432	0.634732546	0.009569728	0.098729125	0.030429275
2020-06-02T19:05:00	0.2174	12.014	198.0	0.525817152	0.633898027	0.009549952	0.098525098	0.030366392
2020-06-02T19:10:00	0.2185	11.995	198.0	0.529651702	0.639287758	0.009677918	0.099845297	0.030773290
2020-06-02T19:15:00	0.2164	11.979	198.0	0.522581886	0.629359925	0.009442651	0.097418095	0.030025203
2020-06-02T19:20:00	0.2203	11.962	198.0	0.535609050	0.647684972	0.009878426	0.101913896	0.031410852
2020-06-02T19:25:00	0.2211	11.958	196.0	0.538414076	0.651648834	0.009973552	0.102895300	0.031713331
2020-06-02T19:30:00	0.2229	11.947	194.0	0.544608471	0.660425080	0.010185252	0.105079371	0.032386483
2020-06-02T19:35:00	0.2233	11.931	194.0	0.546051054	0.662473445	0.010234877	0.105591336	0.032544275
2020-06-02T19:40:00	0.2209	11.914	194.0	0.537656314	0.650577386	0.009947809	0.102629712	0.031631474
2020-06-02T19:45:00	0.2216	11.897	194.0	0.540120259	0.654063032	0.010031639	0.103494569	0.031898031
2020-06-02T19:50:00	0.2235	11.882	194.0	0.546650421	0.663325005	0.010255531	0.105804419	0.032609949
2020-06-02T19:55:00	0.2242	11.870	194.0	0.549107981	0.666819696	0.010340437	0.106680384	0.032879930
2020-06-02T20:00:00	0.2242	11.859	194.0	0.548856190	0.666461418	0.010331722	0.106590468	0.032852217
2020-06-02T20:05:00	0.2234	11.849	194.0	0.546233316	0.662732365	0.010241155	0.105656110	0.032564239
2020-06-02T20:10:00	0.2276	11.840	194.0	0.560521998	0.683115622	0.010739432	0.110796737	0.034148630
2020-06-02T20:15:00	0.2233	11.830	194.0	0.545729299	0.662016429	0.010223798	0.105477038	0.032509048
2020-06-02T20:20:00	0.2219	11.824	194.0	0.541068587	0.655405916	0.010063998	0.103828413	0.032000925
2020-06-02T20:25:00	0.2235	11.814	194.0	0.546580696	0.663225927	0.010253127	0.105779619	0.032602306
2020-06-02T20:30:00	0.2234	11.801	194.0	0.546328722	0.662867910	0.010244442	0.105690024	0.032574692
2020-06-02T20:35:00	0.2224	11.788	194.0	0.542686525	0.657698702	0.010119328	0.104399236	0.032176859
2020-06-02T20:40:00	0.2228	11.775	194.0	0.544129909	0.659745932	0.010168817	0.104909810	0.032334222
2020-06-02T20:45:00	0.2233	11.761	193.0	0.545911578	0.662275325	0.010230073	0.105541782	0.032529002
2020-06-02T20:50:00	0.2236	11.747	193.0	0.547014873	0.663842948	0.010268100	0.105934092	0.032649916
2020-06-02T20:55:00	0.2237	11.732	193.0	0.547101702	0.663966362	0.010271095	0.105964998	0.032659441
2020-06-02T21:00:00	0.2237	11.718	193.0	0.547188528	0.664089779	0.010274091	0.105995907	0.032668968
2020-06-02T21:05:00	0.2233	11.704	193.0	0.545920137	0.662287482	0.010230368	0.105544823	0.032529939
2020-06-02T21:10:00	0.2231	11.690	193.0	0.545329204	0.661448257	0.010210030	0.105334998	0.032465269
2020-06-02T21:15:00	0.2234	11.675	193.0	0.546093847	0.662534235	0.010236351	0.105606543	0.032548962
2020-06-02T21:20:00	0.2236	11.661	193.0	0.546858322	0.663620452	0.010262700	0.105878381	0.032632745
2020-06-02T21:25:00	0.2233	11.648	193.0	0.545928696	0.662299640	0.010230663	0.105547863	0.032530877
2020-06-02T21:30:00	0.2230	11.634	193.0	0.544998821	0.660979181	0.010198668	0.105217780	0.032429142
2020-06-02T21:35:00	0.2234	11.620	193.0	0.546102406	0.662546393	0.010236645	0.105609584	0.032549899
2020-06-02T21:40:00	0.2236	11.605	193.0	0.546866879	0.663632612	0.010262995	0.105881425	0.032633684
2020-06-02T21:45:00	0.2232	11.590	193.0	0.545598370	0.661830483	0.010219291	0.105430546	0.032494718
2020-06-02T21:50:00	0.2237	11.575	193.0	0.547379286	0.664360946	0.010280675	0.106063832	0.032689903
2020-06-02T21:55:00	0.2240	11.559	195.0	0.548143478	0.665447566	0.010307072	0.106336163	0.032773838
2020-06-02T22:00:00	0.2238	11.543	193.0	0.547552923	0.664607802	0.010286670	0.106125679	0.032708965
2020-06-02T22:05:00	0.2238	11.527	193.0	0.547591785	0.664663055	0.010288012	0.106139524	0.032713232
2020-06-02T22:10:00	0.2232	11.510	194.0	0.545597833	0.661829720	0.010219273	0.105430355	0.032494659
2020-06-02T22:15:00	0.2235	11.493	193.0	0.546653261	0.663329040	0.010255629	0.105805429	0.032610261
2020-06-02T22:20:00	0.2241	11.477	194.0	0.548724306	0.666273777	0.010327158	0.106543387	0.032837707
2020-06-02T22:25:00	0.2243	11.461	194.0	0.549440273	0.667292602	0.010351945	0.106799105	0.032916522
2020-06-02T22:30:00	0.2248	11.445	194.0	0.550832941	0.669275577	0.010400245	0.107297407	0.033070103
2020-06-02T22:35:00	0.2249	11.428	193.0	0.551210137	0.669812928	0.010413346	0.107432571	0.033111762
2020-06-02T22:40:00	0.2244	11.413	193.0	0.549556794	0.667458452	0.010355981	0.106840752	0.032929357
2020-06-02T22:45:00	0.2245	11.396	193.0	0.549934129	0.667995605	0.010369059	0.106975674	0.032970942
2020-06-02T22:50:00	0.2240	11.380	193.0	0.548280179	0.665641995	0.010311798	0.106384916	0.032788864
2020-06-02T22:55:00	0.2230	11.363	193.0	0.544931021	0.660882930	0.010196337	0.105193733	0.032421730
2020-06-02T23:00:00	0.2234	11.346	193.0	0.546325499	0.662863330	0.010244331	0.105688878	0.032574339
2020-06-02T23:05:00	0.2233	11.331	193.0	0.546025531	0.662437189	0.010233998	0.105582267	0.032541480
2020-06-02T23:10:00	0.2236	11.314	193.0	0.546742056	0.663455222	0.010258690	0.105837015	0.032619996
2020-06-02T23:15:00	0.2230	11.298	193.0	0.544747615	0.660622581	0.010190034	0.105128698	0.032401686
2020-06-02T23:20:00	0.2227	11.281	193.0	0.543769417	0.659234467	0.010156445	0.104782174	0.032294884
2020-06-02T23:25:00	0.2224	11.264	193.0	0.542790942	0.657846745	0.010122904	0.104436130	0.032188230
2020-06-02T23:30:00	0.2216	11.248	193.0	0.540115415	0.654056175	0.010031474	0.103492865	0.031897506
2020-06-02T23:35:00	0.2207	11.231	193.0	0.537098100	0.649788392	0.009928866	0.102434284	0.031571241
2020-06-02T23:40:00	0.2205	11.215	193.0	0.536457551	0.648883336	0.009907152	0.102210264	0.031502196
2020-06-02T23:45:00	0.2202	11.198	193.0	0.535477006	0.647498536	0.009873959	0.101867814	0.031396650
2020-06-02T23:50:00	0.2196	11.183	195.0	0.533476060	0.644675081	0.009806397	0.101170793	0.031181821
2020-06-02T23:55:00	0.2194	11.166	192.0	0.532494668	0.643291471	0.009773346	0.100829810	0.031076727
2020-06-03T00:00:00	0.2191	11.148	192.0	0.531512997	0.641908252	0.009740342	0.100489310	0.030971781
2020-06-03T00:05:00	0.2190	11.132	192.0	0.531211742	0.641483927	0.009730225	0.100384933	0.030939611
2020-06-03T00:10:00	0.2196	11.113	192.0	0.533292046	0.644415590	0.009800196	0.101106813	0.031162102
2020-06-03T00:15:00	0.2190	11.096	192.0	0.531289833	0.641593914	0.009732847	0.100411985	0.030947949
2020-06-03T00:20:00	0.2188	11.078	192.0	0.530648206	0.640690372	0.009711313	0.100189831	0.030879479
2020-06-03T00:25:00	0.2194	11.061	192.0	0.532728850	0.643621559	0.009781228	0.100911123	0.031101788
2020-06-03T00:30:00	0.2197	11.043	192.0	0.533788210	0.645115329	0.009816922	0.101279370	0.031215285
2020-06-03T00:35:00	0.2191	11.026	192.0	0.531786285	0.642293248	0.009749524	0.100584044	0.031000979
2020-06-03T00:40:00	0.2193	11.008	192.0	0.532165562	0.642827657	0.009762275	0.100715592	0.031041524
2020-06-03T00:45:00	0.2188	10.990	192.0	0.530503096	0.640486074	0.009706447	0.100139623	0.030864004
2020-06-03T00:50:00	0.2191	10.973	192.0	0.531563139	0.641978886	0.009742026	0.100506688	0.030977137
2020-06-03T00:55:00	0.2191	10.954	192.0	0.531602181	0.642033884	0.009743338	0.100520220	0.030981308
2020-06-03T01:00:00	0.2187	10.937	202.0	0.530279867	0.640171827	0.009698963	0.100062411	0.030840207
2020-06-03T01:05:00	0.2187	10.919	191.0	0.530318923	0.640226806	0.009700272	0.100075918	0.030844370
2020-06-03T01:10:00	0.2186	10.901	192.0	0.530017564	0.639802627	0.009690172	0.099971722	0.030812256
2020-06-03T01:15:00	0.2187	10.884	192.0	0.530397035	0.640336764	0.009702891	0.100102934	0.030852696
2020-06-03T01:20:00	0.2182	10.866	193.0	0.528733716	0.637996374	0.009647205	0.099528439	0.030675632
2020-06-03T01:25:00	0.2182	10.848	192.0	0.528432218	0.637572390	0.009637129	0.099424482	0.030643591
2020-06-03T01:30:00	0.2184	10.830	192.0	0.529152398	0.638585273	0.009661207	0.099672891	0.030720153
2020-06-03T01:35:00	0.2179	10.811	192.0	0.527488478	0.636245723	0.009605622	0.099099434	0.030543408
2020-06-03T01:40:00	0.2182	10.793	192.0	0.528549449	0.637737238	0.009641046	0.099464897	0.030656047
2020-06-03T01:45:00	0.2182	10.777	192.0	0.528588525	0.637792189	0.009642352	0.099478370	0.030660200
2020-06-03T01:50:00	0.2177	10.759	191.0	0.526924332	0.635453019	0.009586813	0.098905383	0.030483600
2020-06-03T01:55:00	0.2172	10.741	191.0	0.525259336	0.633114972	0.009531408	0.098333783	0.030307427
2020-06-03T02:00:00	0.2169	10.724	191.0	0.524275601	0.631734635	0.009498749	0.097996846	0.030203580
2020-06-03T02:05:00	0.2166	10.707	191.0	0.522950470	0.629876508	0.009454845	0.097543895	0.030063976
2020-06-03T02:10:00	0.2164	10.689	191.0	0.522307287	0.628975136	0.009433572	0.097324425	0.029996333
2020-06-03T02:15:00	0.2165	10.672	191.0	0.522687608	0.629508087	0.009446148	0.097454170	0.030036322
2020-06-03T02:20:00	0.2164	10.655	191.0	0.522385580	0.629084840	0.009436160	0.097351127	0.030004563
2020-06-03T02:25:00	0.2160	10.639	191.0	0.521059721	0.627227725	0.009392378	0.096899431	0.029865346
2020-06-03T02:30:00	0.2159	10.621	191.0	0.520757550	0.626804677	0.009382414	0.096796634	0.029833663
2020-06-03T02:35:00	0.2153	10.603	191.0	0.518748032	0.623993180	0.009316286	0.096114401	0.029623392
2020-06-03T02:40:00	0.2153	10.585	191.0	0.518787220	0.624047976	0.009317573	0.096127682	0.029627485
2020-06-03T02:45:00	0.2158	10.567	190.0	0.520533688	0.626491312	0.009375036	0.096720513	0.029810202
2020-06-03T02:50:00	0.2153	10.550	190.0	0.518524039	0.623679997	0.009308929	0.096038505	0.029600000
2020-06-03T02:55:00	0.2155	10.532	190.0	0.519246296	0.624689991	0.009332660	0.096283337	0.029675459
2020-06-03T03:00:00	0.2153	10.515	191.0	0.518602419	0.623789581	0.009311503	0.096065059	0.029608184
2020-06-03T03:05:00	0.2153	10.498	190.0	0.518641609	0.623844375	0.009312790	0.096078337	0.029612277
2020-06-03T03:10:00	0.2160	10.481	190.0	0.521070855	0.627243314	0.009392745	0.096903220	0.029866513
2020-06-03T03:15:00	0.2170	10.465	190.0	0.524521464	0.632079547	0.009506906	0.098081002	0.030229517
2020-06-03T03:20:00	0.2168	10.450	190.0	0.523878575	0.631177767	0.009485584	0.097861026	0.030161719
2020-06-03T03:25:00	0.2168	10.435	190.0	0.523917704	0.631232644	0.009486881	0.097874407	0.030165843
2020-06-03T03:30:00	0.2170	10.418	190.0	0.524638828	0.632244210	0.009510802	0.098121187	0.030241903
2020-06-03T03:35:00	0.2175	10.402	190.0	0.526041520	0.634213062	0.009557416	0.098602103	0.030390126
2020-06-03T03:40:00	0.2175	10.385	190.0	0.526080624	0.634267973	0.009558718	0.098615527	0.030394263
2020-06-03T03:45:00	0.2178	10.372	190.0	0.527142029	0.635758883	0.009594069	0.098980242	0.030506672
2020-06-03T03:50:00	0.2179	10.358	190.0	0.527521816	0.636292577	0.009606734	0.099110907	0.030546944
2020-06-03T03:55:00	0.2175	10.342	190.0	0.526197935	0.634432709	0.009562622	0.098655803	0.030406677
2020-06-03T04:00:00	0.2174	10.329	189.0	0.525896215	0.634009035	0.009552582	0.098552230	0.030374754
2020-06-03T04:05:00	0.2175	10.315	190.0	0.526176589	0.634402732	0.009561911	0.098648474	0.030404418
2020-06-03T04:10:00	0.2185	10.301	189.0	0.529522631	0.639106145	0.009673597	0.099800716	0.030759550
2020-06-03T04:15:00	0.2187	10.290	189.0	0.530143146	0.639979382	0.009694380	0.100015136	0.030825636
2020-06-03T04:20:00	0.2190	10.278	190.0	0.531444199	0.641811342	0.009738031	0.100465469	0.030964433
2020-06-03T04:25:00	0.2191	10.268	189.0	0.531724122	0.642205670	0.009747435	0.100562491	0.030994336
2020-06-03T04:30:00	0.2194	10.257	189.0	0.532684427	0.643558940	0.009779732	0.100895696	0.031097033
2020-06-03T04:35:00	0.2195	10.248	189.0	0.532964249	0.643953408	0.009789154	0.100992892	0.031126990
2020-06-03T04:40:00	0.2205	10.239	190.0	0.536303717	0.648666028	0.009901941	0.102156500	0.031485625
2020-06-03T04:45:00	0.2211	10.230	189.0	0.538281754	0.651461703	0.009969055	0.102848898	0.031699029
2020-06-03T04:50:00	0.2207	10.223	189.0	0.537202493	0.649935924	0.009932408	0.102470818	0.031582501
2020-06-03T04:55:00	0.2212	10.215	189.0	0.538840470	0.652251946	0.009988053	0.103044899	0.031759439
2020-06-03T05:00:00	0.2221	10.208	189.0	0.541835016	0.656491759	0.010090189	0.104098619	0.032084205
2020-06-03T05:05:00	0.2223	10.201	189.0	0.542453325	0.657368100	0.010111343	0.104316864	0.032151470
2020-06-03T05:10:00	0.2221	10.194	189.0	0.541714662	0.656321214	0.010086074	0.104056165	0.032071121
2020-06-03T05:15:00	0.2223	10.188	189.0	0.542332991	0.657197525	0.010107224	0.104274371	0.032138374
2020-06-03T05:20:00	0.2224	10.183	189.0	0.542951211	0.658073992	0.010128394	0.104492770	0.032205687
2020-06-03T05:25:00	0.2226	10.179	189.0	0.543569319	0.658950615	0.010149581	0.104711361	0.032273058
2020-06-03T05:30:00	0.2229	10.174	189.0	0.544526341	0.660308513	0.010182431	0.105050261	0.032377511
2020-06-03T05:35:00	0.2228	10.173	189.0	0.544127182	0.659742064	0.010168723	0.104908844	0.032333925
2020-06-03T05:40:00	0.2232	10.171	189.0	0.545422985	0.661581422	0.010213256	0.105368283	0.032475528
2020-06-03T05:45:00	0.2231	10.171	189.0	0.545362870	0.661496061	0.010211188	0.105346947	0.032468952
2020-06-03T05:50:00	0.2234	10.172	189.0	0.546319397	0.662854660	0.010244121	0.105686709	0.032573670
2020-06-03T05:55:00	0.2239	10.173	190.0	0.547953069	0.665176775	0.010300492	0.106268275	0.032752914
2020-06-03T06:00:00	0.2244	10.177	189.0	0.549585972	0.667499983	0.010356992	0.106851182	0.032932572
2020-06-03T06:05:00	0.2250	10.181	189.0	0.551556444	0.670306379	0.010425382	0.107556742	0.033150033
2020-06-03T06:10:00	0.2250	10.186	189.0	0.551496436	0.670220866	0.010423296	0.107535221	0.033143399
2020-06-03T06:15:00	0.2245	10.192	190.0	0.550082835	0.668207328	0.010374216	0.107028870	0.032987337
2020-06-03T06:20:00	0.2244	10.198	189.0	0.549684315	0.667639970	0.010360400	0.106886340	0.032943408
2020-06-03T06:25:00	0.2238	10.206	189.0	0.547592629	0.664664255	0.010288041	0.106139824	0.032713325
2020-06-03T06:30:00	0.2240	10.216	189.0	0.548209911	0.665542052	0.010309369	0.106359855	0.032781140
2020-06-03T06:35:00	0.2245	10.227	189.0	0.549842693	0.667865432	0.010365890	0.106942972	0.032960863
2020-06-03T06:40:00	0.2246	10.239	189.0	0.550459576	0.668743798	0.010387285	0.107163700	0.033028893
2020-06-03T06:45:00	0.2248	10.252	189.0	0.551076348	0.669622320	0.010408698	0.107384619	0.033096983
2020-06-03T06:50:00	0.2250	10.268	189.0	0.551693011	0.670500999	0.010430130	0.107605730	0.033165131
2020-06-03T06:55:00	0.2254	10.285	190.0	0.552985993	0.672344373	0.010475140	0.108070088	0.033308251
2020-06-03T07:00:00	0.2250	10.305	189.0	0.551572998	0.670329969	0.010425957	0.107562680	0.033151863
2020-06-03T07:05:00	0.2247	10.334	190.0	0.550497868	0.668798333	0.010388613	0.107177409	0.033033118
2020-06-03T07:10:00	0.2247	10.373	190.0	0.550776254	0.669194832	0.010398276	0.107277101	0.033063844
2020-06-03T07:15:00	0.2247	10.403	190.0	0.550716233	0.669109339	0.010396193	0.107255603	0.033057218
2020-06-03T07:20:00	0.2256	10.439	190.0	0.553700547	0.673363684	0.010500056	0.108327147	0.033387479
2020-06-03T07:25:00	0.2258	10.457	190.0	0.554316745	0.674243028	0.010521567	0.108549070	0.033455878
2020-06-03T07:30:00	0.2260	10.486	190.0	0.554932834	0.675122528	0.010543097	0.108771185	0.033524336
2020-06-03T07:35:00	0.2260	10.509	191.0	0.554872884	0.675036932	0.010541001	0.108749561	0.033517671
2020-06-03T07:40:00	0.2261	10.536	191.0	0.555488874	0.675916572	0.010562547	0.108971848	0.033586182
2020-06-03T07:45:00	0.2261	10.586	191.0	0.555428933	0.675830963	0.010560449	0.108950208	0.033579512
2020-06-03T07:50:00	0.2259	10.615	191.0	0.554693027	0.674780153	0.010534714	0.108684702	0.033497681
2020-06-03T07:55:00	0.2260	10.607	191.0	0.554971077	0.675177132	0.010544434	0.108784980	0.033528587
2020-06-03T08:00:00	0.2256	10.631	191.0	0.553558889	0.673161575	0.010495114	0.108276161	0.033371764
2020-06-03T08:05:00	0.2262	10.664	191.0	0.555865029	0.676453879	0.010575715	0.109107701	0.033628053
2020-06-03T08:10:00	0.2261	10.702	191.0	0.555467172	0.675885576	0.010561787	0.108964013	0.033583767
2020-06-03T08:15:00	0.2267	10.739	191.0	0.557434315	0.678696732	0.010630741	0.109675394	0.033803022
2020-06-03T08:20:00	0.2268	10.781	192.0	0.557712147	0.679094025	0.010640498	0.109776056	0.033834047
2020-06-03T08:25:00	0.2268	10.828	192.0	0.557652244	0.679008360	0.010638394	0.109754349	0.033827356
2020-06-03T08:30:00	0.2269	10.883	192.0	0.557930058	0.679405678	0.010648154	0.109855041	0.033858391
2020-06-03T08:35:00	0.2266	10.932	192.0	0.557194681	0.678354111	0.010622329	0.109588609	0.033776274
2020-06-03T08:40:00	0.2268	10.977	192.0	0.557810260	0.679234340	0.010643945	0.109811615	0.033845006
2020-06-03T08:45:00	0.2271	11.027	193.0	0.558763368	0.680597823	0.010677457	0.110157351	0.033951566
2020-06-03T08:50:00	0.2271	11.070	193.0	0.558703483	0.680512132	0.010675349	0.110135612	0.033944865
2020-06-03T08:55:00	0.2272	11.144	193.0	0.558981214	0.680909571	0.010685124	0.110236452	0.033975945
2020-06-03T09:00:00	0.2279	11.236	193.0	0.561283767	0.684207023	0.010766333	0.111074277	0.034234171
2020-06-03T09:05:00	0.2278	11.269	194.0	0.561223926	0.684121270	0.010764219	0.111052462	0.034227447
2020-06-03T09:10:00	0.2280	11.370	194.0	0.561838794	0.685002523	0.010785956	0.111276716	0.034296564
2020-06-03T09:15:00	0.2278	11.436	194.0	0.561104241	0.683949770	0.010759990	0.111008837	0.034214002
2020-06-03T09:20:00	0.2278	11.462	195.0	0.561044397	0.683864021	0.010757876	0.110987028	0.034207280
2020-06-03T09:25:00	0.2275	11.497	195.0	0.559972189	0.682328197	0.010720037	0.110596641	0.034086959
2020-06-03T09:30:00	0.2270	11.554	195.0	0.558562029	0.680309732	0.010670373	0.110084270	0.033929041
2020-06-03T09:35:00	0.2275	11.613	196.0	0.560189960	0.682640054	0.010727717	0.110675874	0.034111379
2020-06-03T09:40:00	0.2273	11.663	196.0	0.559455059	0.681587801	0.010701810	0.110408605	0.034029004
2020-06-03T09:45:00	0.2276	11.706	196.0	0.560407717	0.682951930	0.010735399	0.110755131	0.034135807
2020-06-03T09:50:00	0.2275	11.759	196.0	0.560010378	0.682382882	0.010721383	0.110610533	0.034091241
2020-06-03T09:55:00	0.2267	11.807	196.0	0.557249426	0.678432380	0.010624250	0.109608432	0.033782383
2020-06-03T10:00:00	0.2269	11.852	197.0	0.558202687	0.679795642	0.010657736	0.109953900	0.033888860
2020-06-03T10:05:00	0.2265	11.902	197.0	0.556651349	0.677577448	0.010603269	0.109391967	0.033715667
2020-06-03T10:10:00	0.2258	11.945	197.0	0.554423301	0.674395120	0.010525289	0.108587470	0.033467713
2020-06-03T10:15:00	0.2254	12.000	198.0	0.552870277	0.672179342	0.010471108	0.108028489	0.033295429
2020-06-03T10:20:00	0.2261	12.043	198.0	0.555374312	0.675752954	0.010558538	0.108930490	0.033573435
2020-06-03T10:25:00	0.2251	12.087	198.0	0.552130802	0.671124993	0.010445359	0.107762843	0.033213555
2020-06-03T10:30:00	0.2244	12.139	198.0	0.549561357	0.667464946	0.010356140	0.106842383	0.032929860
2020-06-03T10:35:00	0.2244	12.179	198.0	0.549699076	0.667660982	0.010360912	0.106891617	0.032945034
2020-06-03T10:40:00	0.2236	12.219	198.0	0.546789062	0.663522022	0.010260311	0.105853738	0.032625150
2020-06-03T10:45:00	0.2239	12.257	198.0	0.547943057	0.665162538	0.010300146	0.106264706	0.032751814
2020-06-03T10:50:00	0.2229	12.299	199.0	0.544692595	0.660544484	0.010188143	0.105109192	0.032395674
2020-06-03T10:55:00	0.2231	12.335	199.0	0.545169468	0.661221453	0.010204536	0.105278316	0.032447800
2020-06-03T11:00:00	0.2228	12.374	199.0	0.544290422	0.659973703	0.010174328	0.104966666	0.032351746
2020-06-03T11:05:00	0.2220	12.404	199.0	0.541375863	0.655841193	0.010074494	0.103936701	0.032034301
2020-06-03T11:10:00	0.2220	12.437	200.0	0.541513908	0.656036768	0.010079212	0.103985369	0.032049301
2020-06-03T11:15:00	0.2223	12.485	200.0	0.542669660	0.657674791	0.010118750	0.104393278	0.032175022
2020-06-03T11:20:00	0.2213	12.523	200.0	0.539074722	0.652583346	0.009996024	0.103127133	0.031784784
2020-06-03T11:25:00	0.2212	12.564	200.0	0.538873314	0.652298409	0.009989170	0.103056427	0.031762992
2020-06-03T11:30:00	0.2207	12.607	200.0	0.536973578	0.649612424	0.009924643	0.102390716	0.031557813
2020-06-03T11:35:00	0.2204	12.654	200.0	0.536092448	0.648367619	0.009894786	0.102082686	0.031462875
2020-06-03T11:40:00	0.2195	12.711	201.0	0.532830832	0.643765322	0.009784661	0.100946544	0.031112705
2020-06-03T11:45:00	0.2189	12.772	201.0	0.530927769	0.641084012	0.009720693	0.100286595	0.030909303
2020-06-03T11:50:00	0.2177	12.833	201.0	0.526979867	0.635531042	0.009588664	0.098924477	0.030489485
2020-06-03T11:55:00	0.2173	12.868	201.0	0.525414474	0.633332727	0.009536564	0.098386973	0.030323820
2020-06-03T12:00:00	0.2173	12.939	202.0	0.525553158	0.633527404	0.009541174	0.098434533	0.030338479
2020-06-03T12:05:00	0.2171	12.997	202.0	0.524669105	0.632286690	0.009511807	0.098131555	0.030245098
2020-06-03T12:10:00	0.2158	13.066	202.0	0.520372645	0.626265908	0.009369729	0.096665772	0.029793330
2020-06-03T12:15:00	0.2142	13.133	203.0	0.515045207	0.618821159	0.009195049	0.094863622	0.029237889
2020-06-03T12:20:00	0.2140	13.193	204.0	0.514158446	0.617584198	0.009166133	0.094565300	0.029145944
2020-06-03T12:25:00	0.2134	13.251	203.0	0.512245018	0.614917286	0.009103894	0.093923192	0.028948040
2020-06-03T12:30:00	0.2128	13.328	204.0	0.509988115	0.611775445	0.009030755	0.093168633	0.028715478
2020-06-03T12:35:00	0.2136	13.394	203.0	0.512865598	0.615781919	0.009124056	0.094131206	0.029012152
2020-06-03T12:40:00	0.2135	13.449	204.0	0.512662652	0.615499126	0.009117460	0.094063155	0.028991178
2020-06-03T12:45:00	0.2122	13.506	204.0	0.508008519	0.609023030	0.008966846	0.092509292	0.028512262
2020-06-03T12:50:00	0.2129	13.565	204.0	0.510545316	0.612550744	0.009048784	0.093354641	0.028772807
2020-06-03T12:55:00	0.2114	13.621	206.0	0.505202566	0.605127070	0.008876646	0.091578725	0.028225452
2020-06-03T13:00:00	0.2105	13.669	205.0	0.502254682	0.601040879	0.008782375	0.090606145	0.027925694
2020-06-03T13:05:00	0.2104	13.707	205.0	0.502051105	0.600758950	0.008775883	0.090539171	0.027905052
2020-06-03T13:10:00	0.2099	13.739	206.0	0.500130889	0.598101331	0.008714769	0.089908662	0.027710723
2020-06-03T13:15:00	0.2088	13.776	206.0	0.496491132	0.593071966	0.008599510	0.088719558	0.027344230
2020-06-03T13:20:00	0.2081	13.818	206.0	0.493879766	0.589470171	0.008517287	0.087871283	0.027082783
2020-06-03T13:25:00	0.2068	13.870	207.0	0.489544426	0.583502617	0.008381650	0.086471938	0.026651491
2020-06-03T13:30:00	0.2065	13.919	207.0	0.488651014	0.582274715	0.008353833	0.086184953	0.026563039
2020-06-03T13:35:00	0.2061	13.963	207.0	0.487067973	0.580100559	0.008304656	0.085677604	0.026406670
2020-06-03T13:40:00	0.2047	13.998	207.0	0.482378734	0.573672092	0.008159830	0.084183466	0.025946162
2020-06-03T13:45:00	0.2043	14.022	207.0	0.480792763	0.571501863	0.008111134	0.083681074	0.025791320
2020-06-03T13:50:00	0.2040	14.033	207.0	0.479897043	0.570277055	0.008083695	0.083397992	0.025704071
2020-06-03T13:55:00	0.2041	14.035	207.0	0.480037588	0.570469194	0.008087997	0.083442378	0.025717751
2020-06-03T14:00:00	0.2032	14.026	208.0	0.477067800	0.566412545	0.007997328	0.082506959	0.025429446
2020-06-03T14:05:00	0.2027	14.014	207.0	0.475479339	0.564245636	0.007949039	0.082008768	0.025275899
2020-06-03T14:10:00	0.2028	14.002	208.0	0.475620068	0.564437531	0.007953311	0.082052845	0.025289484
2020-06-03T14:15:00	0.2024	13.993	207.0	0.474376970	0.562743013	0.007915612	0.081663907	0.025169609
2020-06-03T14:20:00	0.2022	13.986	207.0	0.473479550	0.561520467	0.007888451	0.081383692	0.025083244
2020-06-03T14:25:00	0.2015	13.976	207.0	0.471196770	0.558413545	0.007819569	0.080673047	0.024864217
2020-06-03T14:30:00	0.2020	13.966	207.0	0.473068920	0.560961283	0.007876038	0.081255633	0.025043775
2020-06-03T14:35:00	0.2020	13.952	207.0	0.472863586	0.560681716	0.007869835	0.081191635	0.025024050
2020-06-03T14:40:00	0.2007	13.939	207.0	0.468501258	0.554750219	0.007738616	0.079837875	0.024606808
2020-06-03T14:45:00	0.1997	13.932	207.0	0.464827367	0.549766514	0.007628949	0.078706462	0.024258096
2020-06-03T14:50:00	0.1996	13.924	207.0	0.464621530	0.549487610	0.007622828	0.078643308	0.024238631
2020-06-03T14:55:00	0.1995	13.920	207.0	0.464415682	0.549208723	0.007616708	0.078580174	0.024219173
2020-06-03T15:00:00	0.1994	13.912	207.0	0.463862732	0.548459743	0.007600282	0.078410711	0.024166943
2020-06-03T15:05:00	0.1997	13.889	207.0	0.465045059	0.550061520	0.007635426	0.078773281	0.024278690
2020-06-03T15:10:00	0.1993	13.856	207.0	0.463450929	0.547902107	0.007588060	0.078284621	0.024128081
2020-06-03T15:15:00	0.1991	13.832	207.0	0.462897822	0.547153335	0.007571660	0.078115423	0.024075932
2020-06-03T15:20:00	0.1982	13.816	207.0	0.459912909	0.543116682	0.007483456	0.077205431	0.023795464
2020-06-03T15:25:00	0.1980	13.803	207.0	0.459011631	0.541899222	0.007456922	0.076931695	0.023711095
2020-06-03T15:30:00	0.1974	13.792	206.0	0.457066850	0.539274372	0.007399827	0.076342652	0.023529547
2020-06-03T15:35:00	0.1972	13.778	207.0	0.456164808	0.538057911	0.007373418	0.076070193	0.023445572
2020-06-03T15:40:00	0.1967	13.764	219.0	0.454566464	0.535904017	0.007326737	0.075588591	0.023297138
2020-06-03T15:45:00	0.1957	13.747	206.0	0.451225743	0.531408647	0.007229637	0.074586834	0.022988387
2020-06-03T15:50:00	0.1957	13.731	206.0	0.451019072	0.531130833	0.007223651	0.074525077	0.022969352
2020-06-03T15:55:00	0.1961	13.713	206.0	0.452554218	0.533195226	0.007268174	0.074984410	0.023110923
2020-06-03T16:00:00	0.1960	13.688	206.0	0.451999314	0.532448803	0.007252065	0.074818216	0.023059701
2020-06-03T16:05:00	0.1966	13.661	206.0	0.454273340	0.535509229	0.007318191	0.075500432	0.023269967
2020-06-03T16:10:00	0.1977	13.636	206.0	0.457936985	0.540448415	0.007425346	0.076605927	0.023610691
2020-06-03T16:15:00	0.1978	13.617	206.0	0.458469133	0.541166719	0.007440974	0.076767158	0.023660383
2020-06-03T16:20:00	0.1973	13.600	206.0	0.456567063	0.538600298	0.007385189	0.076191634	0.023483002
2020-06-03T16:25:00	0.1981	13.584	206.0	0.459533177	0.542603657	0.007472271	0.077090041	0.023759899
2020-06-03T16:30:00	0.1993	13.565	206.0	0.463538256	0.548020347	0.007590651	0.078311351	0.024136319
2020-06-03T16:35:00	0.1996	13.547	206.0	0.464763616	0.549680131	0.007627053	0.078686899	0.024252067
2020-06-03T16:40:00	0.2003	13.527	205.0	0.467029032	0.552751830	0.007694577	0.079383532	0.024466776
2020-06-03T16:45:00	0.2009	13.507	205.0	0.469292926	0.555825534	0.007762349	0.080082719	0.024682272
2020-06-03T16:50:00	0.2012	13.487	206.0	0.470169758	0.557017108	0.007788676	0.080354334	0.024765986
2020-06-03T16:55:00	0.2015	13.465	205.0	0.471046363	0.558208983	0.007815040	0.080626332	0.024849819
2020-06-03T17:00:00	0.2024	13.445	205.0	0.474345812	0.562700556	0.007914668	0.081654170	0.025166608
2020-06-03T17:05:00	0.2027	13.423	205.0	0.475221334	0.563893866	0.007941209	0.081927990	0.025251002
2020-06-03T17:10:00	0.2033	13.400	205.0	0.477479747	0.566974833	0.008009875	0.082636402	0.025469341
2020-06-03T17:15:00	0.2038	13.377	205.0	0.479045626	0.569113419	0.008057656	0.083129351	0.025621273
2020-06-03T17:20:00	0.2042	13.354	205.0	0.480610782	0.571252970	0.008105556	0.083623522	0.025773582
2020-06-03T17:25:00	0.2052	13.330	205.0	0.483900925	0.575756934	0.008206704	0.084667056	0.026095209
2020-06-03T17:30:00	0.2054	13.306	205.0	0.484773980	0.576953534	0.008233649	0.084945039	0.026180886
2020-06-03T17:35:00	0.2061	13.281	204.0	0.487026038	0.580042992	0.008303355	0.085664184	0.026402534
2020-06-03T17:40:00	0.2071	13.258	204.0	0.490654356	0.585028991	0.008416273	0.086829135	0.026761583
2020-06-03T17:45:00	0.2078	13.234	204.0	0.492902521	0.588123687	0.008486618	0.087554877	0.026985263
2020-06-03T17:50:00	0.2084	13.210	204.0	0.495149201	0.591220389	0.008557208	0.088283140	0.027209721
2020-06-03T17:55:00	0.2086	13.187	204.0	0.495675529	0.591946436	0.008573787	0.088454183	0.027262438
2020-06-03T18:00:00	0.2090	13.163	204.0	0.497233043	0.594096264	0.008622942	0.088961300	0.027418737
2020-06-03T18:05:00	0.2094	13.140	203.0	0.498446282	0.595772240	0.008661328	0.089357323	0.027540795
2020-06-03T18:10:00	0.2095	13.120	204.0	0.498972101	0.596498978	0.008677991	0.089529232	0.027593779
2020-06-03T18:15:00	0.2094	13.101	204.0	0.498467257	0.595801226	0.008661992	0.089364177	0.027542907
2020-06-03T18:20:00	0.2099	13.082	204.0	0.500023496	0.597952784	0.008711357	0.089873464	0.027699874
2020-06-03T18:25:00	0.2113	13.062	204.0	0.505009962	0.604859879	0.008870472	0.091515022	0.028205818
2020-06-03T18:30:00	0.2135	13.044	203.0	0.512385281	0.615112683	0.009108449	0.093970187	0.028962524
2020-06-03T18:35:00	0.2133	13.022	203.0	0.511882415	0.614412227	0.009092123	0.093801756	0.028910612
2020-06-03T18:40:00	0.2138	12.998	203.0	0.513432560	0.616572119	0.009142496	0.094321449	0.029070787
2020-06-03T18:45:00	0.2141	12.975	203.0	0.514640064	0.618255938	0.009181832	0.094727266	0.029195863
2020-06-03T18:50:00	0.2146	12.953	203.0	0.516188963	0.620417546	0.009232412	0.095249095	0.029356696
2020-06-03T18:55:00	0.2159	12.930	203.0	0.520810633	0.626878989	0.009384164	0.096814689	0.029839227
2020-06-03T19:00:00	0.2169	12.907	203.0	0.524062281	0.631435417	0.009491675	0.097923859	0.030181084
2020-06-03T19:05:00	0.2177	12.884	203.0	0.526970142	0.635517379	0.009588340	0.098921133	0.030488454
2020-06-03T19:10:00	0.2190	12.862	203.0	0.531237066	0.641519594	0.009731075	0.100393705	0.030942315
2020-06-03T19:15:00	0.2200	12.840	203.0	0.534818868	0.646569503	0.009851711	0.101638288	0.031325908
2020-06-03T19:20:00	0.2204	12.818	202.0	0.536018892	0.648263732	0.009892296	0.102056993	0.031454956
2020-06-03T19:25:00	0.2203	12.797	202.0	0.535859342	0.648038406	0.009886895	0.102001274	0.031437783
2020-06-03T19:30:00	0.2206	12.775	202.0	0.536719249	0.649253059	0.009916021	0.102301758	0.031530395
2020-06-03T19:35:00	0.2209	12.756	202.0	0.537918614	0.650948216	0.009956716	0.102721606	0.031659797
2020-06-03T19:40:00	0.2224	12.736	202.0	0.542850448	0.657931117	0.010124942	0.104457158	0.032194711
2020-06-03T19:45:00	0.2234	12.717	202.0	0.546081412	0.662516570	0.010235922	0.105602124	0.032547600
2020-06-03T19:50:00	0.2241	12.698	202.0	0.548632225	0.666142777	0.010323973	0.106510521	0.032827577
2020-06-03T19:55:00	0.2248	12.680	202.0	0.550842791	0.669289608	0.010400587	0.107300935	0.033071190
2020-06-03T20:00:00	0.2254	12.661	202.0	0.553051951	0.672438444	0.010477439	0.108093804	0.033315560
2020-06-03T20:05:00	0.2243	12.644	202.0	0.549171098	0.666909515	0.010342622	0.106702929	0.032886879
2020-06-03T20:10:00	0.2246	12.627	202.0	0.550366161	0.668610767	0.010384043	0.107130260	0.033018587
2020-06-03T20:15:00	0.2243	12.611	202.0	0.549191766	0.666938928	0.010343338	0.106710312	0.032889155
2020-06-03T20:20:00	0.2238	12.595	202.0	0.547678292	0.664786053	0.010291000	0.106170345	0.032722732
2020-06-03T20:25:00	0.2227	12.579	201.0	0.543791423	0.659265686	0.010157200	0.104789963	0.032297284
2020-06-03T20:30:00	0.2207	12.563	201.0	0.537183446	0.649909006	0.009931761	0.102464151	0.031580447
2020-06-03T20:35:00	0.2189	12.547	201.0	0.530903175	0.641049380	0.009719867	0.100278080	0.030906678
2020-06-03T20:40:00	0.2168	12.532	201.0	0.523929446	0.631249112	0.009487271	0.097878423	0.030167081
2020-06-03T20:45:00	0.2165	12.517	201.0	0.522746032	0.629589968	0.009448081	0.097474109	0.030042467
2020-06-03T20:50:00	0.2160	12.501	201.0	0.521220925	0.627453445	0.009397696	0.096954294	0.029882255
2020-06-03T20:55:00	0.2158	12.485	201.0	0.520377981	0.626273376	0.009369905	0.096667585	0.029793889
2020-06-03T21:00:00	0.2159	12.469	201.0	0.520559091	0.626526869	0.009375873	0.096729150	0.029812863
2020-06-03T21:05:00	0.2160	12.455	201.0	0.521081524	0.627258253	0.009393097	0.096906851	0.029867633
2020-06-03T21:10:00	0.2160	12.438	201.0	0.520921281	0.627033896	0.009387812	0.096852328	0.029850828
2020-06-03T21:15:00	0.2165	12.421	201.0	0.522808512	0.629677536	0.009450148	0.097495434	0.030049040
2020-06-03T21:20:00	0.2165	12.403	201.0	0.522648349	0.629453067	0.009444850	0.097440773	0.030032193
2020-06-03T21:25:00	0.2164	12.384	201.0	0.522488178	0.629228608	0.009439553	0.097386125	0.030015349
2020-06-03T21:30:00	0.2168	12.366	201.0	0.523692503	0.630916826	0.009479418	0.097797404	0.030142110
2020-06-03T21:35:00	0.2173	12.345	200.0	0.525578215	0.633562579	0.009542007	0.098443127	0.030341128
2020-06-03T21:40:00	0.2170	12.324	200.0	0.524395368	0.631902645	0.009502722	0.098037836	0.030216213
2020-06-03T21:45:00	0.2168	12.301	200.0	0.523894257	0.631199761	0.009486104	0.097866389	0.030163371
2020-06-03T21:50:00	0.2167	12.279	200.0	0.523393074	0.630496978	0.009469498	0.097695067	0.030110569
2020-06-03T21:55:00	0.2160	12.257	201.0	0.521185708	0.627404132	0.009396534	0.096942307	0.029878561
2020-06-03T22:00:00	0.2161	12.233	201.0	0.521366775	0.627657685	0.009402508	0.097003945	0.029897558
2020-06-03T22:05:00	0.2162	12.211	200.0	0.521744147	0.628186214	0.009414966	0.097132471	0.029937171
2020-06-03T22:10:00	0.2158	12.189	200.0	0.520414985	0.626325167	0.009371124	0.096680162	0.029797765
2020-06-03T22:15:00	0.2162	12.164	200.0	0.521816346	0.628287346	0.009417351	0.097157071	0.029944753
2020-06-03T22:20:00	0.2159	12.141	200.0	0.520828572	0.626904103	0.009384755	0.096820791	0.029841108
2020-06-03T22:25:00	0.2159	12.118	199.0	0.520864681	0.626954656	0.009385946	0.096833074	0.029844894
2020-06-03T22:30:00	0.2158	12.093	200.0	0.520218053	0.626049551	0.009364637	0.096613237	0.029777138
2020-06-03T22:35:00	0.2157	12.070	199.0	0.519912753	0.625622331	0.009354585	0.096509530	0.029745174
2020-06-03T22:40:00	0.2153	12.045	199.0	0.518582883	0.623762266	0.009310861	0.096058440	0.029606144
2020-06-03T22:45:00	0.2155	12.022	199.0	0.519302071	0.624768004	0.009334494	0.096302256	0.029681291
2020-06-03T22:50:00	0.2148	11.998	199.0	0.516946933	0.621476060	0.009257215	0.095504981	0.029435563
2020-06-03T22:55:00	0.2148	11.974	199.0	0.516983084	0.621526556	0.009258399	0.095517194	0.029439327
2020-06-03T23:00:00	0.2150	11.951	199.0	0.517702607	0.622531830	0.009281976	0.095760435	0.029514296
2020-06-03T23:05:00	0.2146	11.927	199.0	0.516371881	0.620672950	0.009238395	0.095310816	0.029375719
2020-06-03T23:10:00	0.2142	11.903	198.0	0.515040637	0.618814783	0.009194899	0.094862083	0.029237415
2020-06-03T23:15:00	0.2138	11.879	198.0	0.513708877	0.616957329	0.009151490	0.094414237	0.029099385
2020-06-03T23:20:00	0.2132	11.857	198.0	0.511349894	0.613670689	0.009074850	0.093623558	0.028855690
2020-06-03T23:25:00	0.2137	11.834	198.0	0.513097091	0.616104529	0.009131583	0.094208860	0.029036086
2020-06-03T23:30:00	0.2140	11.811	198.0	0.514159453	0.617585603	0.009166165	0.094565638	0.029146048
2020-06-03T23:35:00	0.2141	11.787	198.0	0.514537618	0.618113035	0.009178491	0.094692802	0.029185241
2020-06-03T23:40:00	0.2138	11.762	198.0	0.513547747	0.616732692	0.009146245	0.094360124	0.029082706
2020-06-03T23:45:00	0.2139	11.739	198.0	0.513925979	0.617260031	0.009158560	0.094487172	0.029121864
2020-06-03T23:50:00	0.2144	11.715	198.0	0.515671863	0.619695678	0.009215511	0.095074723	0.029302953
2020-06-03T23:55:00	0.2141	11.692	198.0	0.514682319	0.618314883	0.009183210	0.094741483	0.029200245
2020-06-04T00:00:00	0.2147	11.668	198.0	0.516769581	0.621228344	0.009251409	0.095445078	0.029417100
2020-06-04T00:05:00	0.2151	11.645	198.0	0.517830807	0.622710987	0.009286180	0.095803806	0.029527663
2020-06-04T00:10:00	0.2150	11.621	197.0	0.517525295	0.622284061	0.009276163	0.095700464	0.029495812
2020-06-04T00:15:00	0.2151	11.601	197.0	0.517903089	0.622812005	0.009288551	0.095828264	0.029535202
2020-06-04T00:20:00	0.2151	11.581	197.0	0.517939229	0.622862515	0.009289736	0.095840494	0.029538971
2020-06-04T00:25:00	0.2143	11.563	197.0	0.515241275	0.619094743	0.009201448	0.094929646	0.029258239
2020-06-04T00:30:00	0.2135	11.545	197.0	0.512541196	0.615329901	0.009113514	0.094022440	0.028978629
2020-06-04T00:35:00	0.2133	11.529	197.0	0.511892997	0.614426965	0.009092466	0.093805299	0.028911704
2020-06-04T00:40:00	0.2136	11.513	197.0	0.512955732	0.615907526	0.009126987	0.094161438	0.029021470
2020-06-04T00:45:00	0.2132	11.497	197.0	0.511623162	0.614051188	0.009083712	0.093714981	0.028883867
2020-06-04T00:50:00	0.2134	11.482	197.0	0.512343811	0.615054910	0.009107102	0.093956291	0.028958241
2020-06-04T00:55:00	0.2143	11.468	197.0	0.515116386	0.618920475	0.009197372	0.094887588	0.029245276
2020-06-04T01:00:00	0.2140	11.455	196.0	0.514126682	0.617539901	0.009165098	0.094554622	0.029142653
2020-06-04T01:05:00	0.2147	11.441	196.0	0.516556066	0.620930151	0.009244421	0.095372984	0.029394880
2020-06-04T01:10:00	0.2151	11.426	196.0	0.517959002	0.622890150	0.009290385	0.095847186	0.029541033
2020-06-04T01:15:00	0.2151	11.409	196.0	0.517995142	0.622940661	0.009291570	0.095859417	0.029544803
2020-06-04T01:20:00	0.2155	11.393	196.0	0.519397490	0.624901473	0.009337632	0.096334628	0.029691268
2020-06-04T01:25:00	0.2157	11.375	196.0	0.520116508	0.625907447	0.009361293	0.096578737	0.029766505
2020-06-04T01:30:00	0.2159	11.357	196.0	0.520835376	0.626913629	0.009384980	0.096823105	0.029841821
2020-06-04T01:35:00	0.2154	11.339	196.0	0.519164373	0.624575409	0.009329967	0.096255550	0.029666895
2020-06-04T01:40:00	0.2155	11.320	196.0	0.519200500	0.624625937	0.009331155	0.096267803	0.029670672
2020-06-04T01:45:00	0.2152	11.301	195.0	0.518211973	0.623243737	0.009298685	0.095932817	0.029567426
2020-06-04T01:50:00	0.2148	11.282	195.0	0.516881443	0.621384584	0.009255071	0.095482859	0.029428744
2020-06-04T01:55:00	0.2141	11.263	195.0	0.514524643	0.618094936	0.009178068	0.094688438	0.029183896
2020-06-04T02:00:00	0.2140	11.243	195.0	0.514218836	0.617668417	0.009168100	0.094585601	0.029152201
2020-06-04T02:05:00	0.2141	11.225	195.0	0.514596994	0.618195859	0.009180427	0.094712776	0.029191397
2020-06-04T02:10:00	0.2141	11.206	195.0	0.514633170	0.618246321	0.009181607	0.094724947	0.029195148
2020-06-04T02:15:00	0.2135	11.187	195.0	0.512617000	0.615435518	0.009115977	0.094047850	0.028986461
2020-06-04T02:20:00	0.2132	11.169	195.0	0.511626573	0.614055938	0.009083822	0.093716122	0.028884219
2020-06-04T02:25:00	0.2137	11.152	195.0	0.513373629	0.616489972	0.009140579	0.094301666	0.029064689
2020-06-04T02:30:00	0.2142	11.134	195.0	0.514777867	0.618448174	0.009186326	0.094773634	0.029210154
2020-06-04T02:35:00	0.2149	11.119	195.0	0.517206790	0.621839059	0.009265726	0.095592787	0.029462625
2020-06-04T02:40:00	0.2151	11.101	195.0	0.517926267	0.622844399	0.009289311	0.095836108	0.029537619
2020-06-04T02:45:00	0.2147	11.084	195.0	0.516595627	0.620985399	0.009245715	0.095386340	0.029398996
2020-06-04T02:50:00	0.2152	11.067	194.0	0.518340153	0.623422920	0.009302892	0.095976221	0.029580803
2020-06-04T02:55:00	0.2152	11.052	194.0	0.518376289	0.623473436	0.009304078	0.095988459	0.029584575
2020-06-04T03:00:00	0.2151	11.034	194.0	0.518070825	0.623046443	0.009294053	0.095885033	0.029552699
2020-06-04T03:05:00	0.2151	11.016	194.0	0.518106964	0.623096956	0.009295239	0.095897266	0.029556469
2020-06-04T03:10:00	0.2146	10.998	194.0	0.516434632	0.620760574	0.009240448	0.095331994	0.029382246
2020-06-04T03:15:00	0.2149	10.983	194.0	0.517154271	0.621765690	0.009264006	0.095575037	0.029457155
2020-06-04T03:20:00	0.2154	10.966	194.0	0.518898513	0.624203603	0.009321229	0.096165406	0.029639112
2020-06-04T03:25:00	0.2151	10.951	194.0	0.517909899	0.622821523	0.009288774	0.095830569	0.029535912
2020-06-04T03:30:00	0.2144	10.935	194.0	0.515553805	0.619530900	0.009211654	0.095034935	0.029290690
2020-06-04T03:35:00	0.2139	10.920	194.0	0.513880228	0.617196237	0.009157070	0.094471799	0.029117126
2020-06-04T03:40:00	0.2135	10.904	194.0	0.512548017	0.615339405	0.009113735	0.094024726	0.028979334
2020-06-04T03:45:00	0.2141	10.889	194.0	0.514636578	0.618251075	0.009181718	0.094726093	0.029195502
2020-06-04T03:50:00	0.2136	10.873	194.0	0.512962553	0.615917030	0.009127208	0.094163725	0.029022175
2020-06-04T03:55:00	0.2131	10.858	194.0	0.511287709	0.613584111	0.009072834	0.093602759	0.028849280
2020-06-04T04:00:00	0.2133	10.843	194.0	0.511666191	0.614111107	0.009085108	0.093729380	0.028888305
2020-06-04T04:05:00	0.2134	10.831	194.0	0.512296062	0.614988392	0.009105551	0.093940293	0.028953311
2020-06-04T04:10:00	0.2136	10.818	193.0	0.512925817	0.615865836	0.009126014	0.094151403	0.029018377
2020-06-04T04:15:00	0.2138	10.806	194.0	0.513555457	0.616743440	0.009146496	0.094362712	0.029083504
2020-06-04T04:20:00	0.2133	10.797	193.0	0.511790120	0.614283690	0.009089128	0.093770859	0.028901089
2020-06-04T04:25:00	0.2130	10.787	193.0	0.510708643	0.612778047	0.009054073	0.093409199	0.028789622
2020-06-04T04:30:00	0.2131	10.778	193.0	0.510996385	0.613178553	0.009063393	0.093505356	0.028819259
2020-06-04T04:35:00	0.2130	10.771	193.0	0.510941793	0.613102562	0.009061624	0.093487109	0.028813635
2020-06-04T04:40:00	0.2127	10.764	193.0	0.509860048	0.611597287	0.009026613	0.093125907	0.028702309
2020-06-04T04:45:00	0.2121	10.756	193.0	0.507750176	0.608664065	0.008958522	0.092423419	0.028485795
2020-06-04T04:50:00	0.2116	10.748	193.0	0.505981842	0.606208429	0.008901651	0.091836693	0.028304961
2020-06-04T04:55:00	0.2117	10.741	193.0	0.506269982	0.606608389	0.008910906	0.091932170	0.028334387
2020-06-04T05:00:00	0.2114	10.736	193.0	0.505186758	0.605105140	0.008876140	0.091573496	0.028223841
2020-06-04T05:05:00	0.2105	10.731	193.0	0.502387699	0.601225108	0.008786618	0.090649919	0.027939185
2020-06-04T05:10:00	0.2090	10.728	193.0	0.497181228	0.594024713	0.008621304	0.088944406	0.027413530
2020-06-04T05:15:00	0.2091	10.727	193.0	0.497470112	0.594423660	0.008630436	0.089038615	0.027442566
2020-06-04T05:20:00	0.2089	10.727	193.0	0.496727864	0.593398754	0.008606983	0.088796659	0.027367993
2020-06-04T05:25:00	0.2090	10.729	193.0	0.497016786	0.593797649	0.008616108	0.088890802	0.027397008
2020-06-04T05:30:00	0.2084	10.732	193.0	0.494898959	0.590875269	0.008549331	0.088201875	0.027184675
2020-06-04T05:35:00	0.2080	10.737	193.0	0.493812118	0.589376939	0.008515163	0.087849362	0.027076027
2020-06-04T05:40:00	0.2082	10.745	193.0	0.494445290	0.590249721	0.008535060	0.088054644	0.027139296
2020-06-04T05:45:00	0.2082	10.756	193.0	0.494390433	0.590174092	0.008533335	0.088036849	0.027133812
2020-06-04T05:50:00	0.2074	10.773	193.0	0.491582492	0.586306120	0.008445279	0.087128388	0.026853815
2020-06-04T05:55:00	0.2078	10.792	193.0	0.492904431	0.588126318	0.008486678	0.087555495	0.026985454
2020-06-04T06:00:00	0.2077	10.811	193.0	0.492505385	0.587576718	0.008474171	0.087426457	0.026945683
2020-06-04T06:05:00	0.2075	10.830	193.0	0.491762053	0.586553278	0.008450896	0.087186341	0.026871677
2020-06-04T06:10:00	0.2072	10.852	193.0	0.491018558	0.585530057	0.008427649	0.086946501	0.026797756
2020-06-04T06:15:00	0.2070	10.879	194.0	0.490274901	0.584507055	0.008404428	0.086706937	0.026723920
2020-06-04T06:20:00	0.2067	10.906	194.0	0.489186582	0.583010721	0.008370503	0.086356933	0.026616045
2020-06-04T06:25:00	0.2068	10.939	194.0	0.489476145	0.583408750	0.008379522	0.086449988	0.026644726
2020-06-04T06:30:00	0.2068	10.973	194.0	0.489421208	0.583333229	0.008377811	0.086432329	0.026639283
2020-06-04T06:35:00	0.2065	11.007	194.0	0.488332615	0.581837263	0.008343930	0.086082789	0.026531552
2020-06-04T06:40:00	0.2074	11.034	194.0	0.491722008	0.586498156	0.008449644	0.087173415	0.026867693
2020-06-04T06:45:00	0.2078	11.061	194.0	0.493043893	0.588318428	0.008491052	0.087600615	0.026999360
2020-06-04T06:50:00	0.2082	11.088	194.0	0.494365264	0.590139393	0.008532544	0.088028685	0.027131296
2020-06-04T06:55:00	0.2085	11.107	194.0	0.495342245	0.591486660	0.008563287	0.088345855	0.027229051
2020-06-04T07:00:00	0.2081	11.128	194.0	0.493911524	0.589513942	0.008518285	0.087881575	0.027085955
2020-06-04T07:05:00	0.2081	11.162	194.0	0.493856658	0.589438324	0.008516561	0.087863795	0.027080475
2020-06-04T07:10:00	0.2072	11.200	195.0	0.491048276	0.585570947	0.008428578	0.086956081	0.026800709
2020-06-04T07:15:00	0.2074	11.215	195.0	0.491681963	0.586443034	0.008448391	0.087160490	0.026863709
2020-06-04T07:20:00	0.2076	11.224	195.0	0.492315532	0.587315281	0.008468223	0.087365099	0.026926772
2020-06-04T07:25:00	0.2067	11.246	195.0	0.489161374	0.582976074	0.008369718	0.086348835	0.026613549
2020-06-04T07:30:00	0.2065	11.261	195.0	0.488417311	0.581953620	0.008346564	0.086109959	0.026539926
2020-06-04T07:35:00	0.2059	11.285	195.0	0.486294121	0.579038476	0.008280669	0.085430133	0.026330397
2020-06-04T07:40:00	0.2056	11.314	195.0	0.485549429	0.578016866	0.008257618	0.085192322	0.026257101
2020-06-04T07:45:00	0.2052	11.372	196.0	0.484114579	0.576049710	0.008213294	0.084735042	0.026116163
2020-06-04T07:50:00	0.2054	11.449	195.0	0.484749560	0.576920056	0.008232895	0.084937257	0.026178488
2020-06-04T07:55:00	0.2052	11.451	196.0	0.484004529	0.575898902	0.008209900	0.084700020	0.026105369
2020-06-04T08:00:00	0.2046	11.468	196.0	0.481878576	0.572987464	0.008144458	0.084024869	0.025897281
2020-06-04T08:05:00	0.2048	11.493	196.0	0.482513976	0.573857250	0.008163990	0.084226376	0.025959387
2020-06-04T08:10:00	0.2045	11.514	197.0	0.481423165	0.572364259	0.008130473	0.083880590	0.025852812
2020-06-04T08:15:00	0.2041	11.533	196.0	0.480332002	0.570871739	0.008097014	0.083535396	0.025746420
2020-06-04T08:20:00	0.2045	11.568	196.0	0.481658328	0.572686046	0.008137693	0.083955077	0.025875770
2020-06-04T08:25:00	0.2042	11.618	197.0	0.480567241	0.571193424	0.008104221	0.083609755	0.025769339
2020-06-04T08:30:00	0.2043	11.665	197.0	0.480857541	0.571590466	0.008113120	0.083701564	0.025797635
2020-06-04T08:35:00	0.2046	11.706	197.0	0.481838414	0.572932498	0.008143224	0.084012141	0.025893358
2020-06-04T08:40:00	0.2043	11.738	197.0	0.480747386	0.571439799	0.008109743	0.083666721	0.025786896
2020-06-04T08:45:00	0.2048	11.802	197.0	0.482763959	0.574199534	0.008171680	0.084305720	0.025983842
2020-06-04T08:50:00	0.2056	11.861	198.0	0.485469193	0.577906820	0.008255136	0.085166719	0.026249210
2020-06-04T08:55:00	0.2052	11.930	198.0	0.484034309	0.575939709	0.008210818	0.084709496	0.026108289
2020-06-04T09:00:00	0.2050	12.013	198.0	0.483289120	0.574918765	0.008187849	0.084472525	0.026035253
2020-06-04T09:05:00	0.2048	12.064	198.0	0.482543768	0.573898040	0.008164906	0.084235830	0.025962301
2020-06-04T09:10:00	0.2050	12.146	198.0	0.483179044	0.574767993	0.008184458	0.084437548	0.026024472
2020-06-04T09:15:00	0.2047	12.246	199.0	0.482433668	0.573747300	0.008161520	0.084200895	0.025951533
2020-06-04T09:20:00	0.2040	12.256	199.0	0.479961291	0.570364886	0.008085662	0.083418281	0.025710324
2020-06-04T09:25:00	0.2047	12.295	200.0	0.482323564	0.573596565	0.008158134	0.084165965	0.025940768
2020-06-04T09:30:00	0.2042	12.342	200.0	0.480541969	0.571158863	0.008103447	0.083601765	0.025766876
2020-06-04T09:35:00	0.2035	12.390	200.0	0.478068211	0.567778294	0.008027815	0.082821484	0.025526386
2020-06-04T09:40:00	0.2042	12.438	199.0	0.480431804	0.571008210	0.008100071	0.083566940	0.025756142
2020-06-04T09:45:00	0.2046	12.463	200.0	0.482103345	0.573295109	0.008151364	0.084096124	0.025919242
2020-06-04T09:50:00	0.2055	12.472	200.0	0.485154050	0.577474644	0.008245393	0.085066195	0.026218227
2020-06-04T09:55:00	0.2057	12.480	201.0	0.485788837	0.578345251	0.008265025	0.085268739	0.026280653
2020-06-04T10:00:00	0.2061	12.483	200.0	0.487113031	0.580162414	0.008306054	0.085692024	0.026411114
2020-06-04T10:05:00	0.2062	12.479	200.0	0.487546090	0.580756995	0.008319493	0.085830679	0.026453849
2020-06-04T10:10:00	0.2063	12.470	200.0	0.487634436	0.580878312	0.008322236	0.085858979	0.026462571
2020-06-04T10:15:00	0.2060	12.458	200.0	0.486688625	0.579579858	0.008292893	0.085556247	0.026369266
2020-06-04T10:20:00	0.2067	12.452	200.0	0.489189469	0.583014690	0.008370593	0.086357861	0.026616331
2020-06-04T10:25:00	0.2065	12.439	201.0	0.488588687	0.582189077	0.008351894	0.086164949	0.026556874
2020-06-04T10:30:00	0.2077	12.428	201.0	0.492465154	0.587521316	0.008472910	0.087413453	0.026941675
2020-06-04T10:35:00	0.2081	12.414	200.0	0.493929800	0.589539130	0.008518859	0.087887498	0.027087780
2020-06-04T10:40:00	0.2085	12.401	200.0	0.495393815	0.591557797	0.008564911	0.088362613	0.027234215
2020-06-04T10:45:00	0.2090	12.388	200.0	0.497200927	0.594051914	0.008621927	0.088950829	0.027415509
2020-06-04T10:50:00	0.2096	12.380	201.0	0.499007080	0.596547331	0.008679100	0.089540674	0.027597305
2020-06-04T10:55:00	0.2097	12.377	201.0	0.499438628	0.597143954	0.008692788	0.089681894	0.027640831
2020-06-04T11:00:00	0.2105	12.375	200.0	0.502273341	0.601066720	0.008782970	0.090612284	0.027927586
2020-06-04T11:05:00	0.2104	12.376	200.0	0.502018101	0.600713247	0.008774831	0.090528315	0.027901706
2020-06-04T11:10:00	0.2107	12.377	200.0	0.502792430	0.601785753	0.008799534	0.090783175	0.027980256
2020-06-04T11:15:00	0.2115	12.371	200.0	0.505624361	0.605712311	0.008890176	0.091718309	0.028268474
2020-06-04T11:20:00	0.2116	12.369	200.0	0.506055073	0.606310073	0.008904003	0.091860954	0.028312438
2020-06-04T11:25:00	0.2119	12.369	200.0	0.507171209	0.607859793	0.008939882	0.092231115	0.028426525
2020-06-04T11:30:00	0.2128	12.370	200.0	0.509999517	0.611791308	0.009031124	0.093172438	0.028716650
2020-06-04T11:35:00	0.2130	12.373	200.0	0.510772041	0.612866284	0.009056126	0.093430381	0.028796151
2020-06-04T11:40:00	0.2122	12.374	200.0	0.508120008	0.609177959	0.008970439	0.092546363	0.028523688
2020-06-04T11:45:00	0.2133	12.375	200.0	0.511974358	0.614540282	0.009095107	0.093832540	0.028920100
2020-06-04T11:50:00	0.2134	12.378	200.0	0.512062074	0.614662455	0.009097954	0.093861914	0.028929153
2020-06-04T11:55:00	0.2145	12.383	200.0	0.515911994	0.620030872	0.009223357	0.095155678	0.029327904
2020-06-04T12:00:00	0.2142	12.389	200.0	0.514973988	0.618721791	0.009192725	0.094839645	0.029230500
2020-06-04T12:05:00	0.2138	12.402	201.0	0.513693691	0.616936156	0.009150996	0.094409136	0.029097813
2020-06-04T12:10:00	0.2138	12.415	200.0	0.513439302	0.616581517	0.009142716	0.094323713	0.029071484
2020-06-04T12:15:00	0.2132	12.425	200.0	0.511473951	0.613843419	0.009078873	0.093665056	0.028868480
2020-06-04T12:20:00	0.2130	12.427	200.0	0.510877080	0.613012485	0.009059528	0.093465481	0.028806969
2020-06-04T12:25:00	0.2134	12.427	200.0	0.512333851	0.615041034	0.009106778	0.093952954	0.028957213
2020-06-04T12:30:00	0.2137	12.427	200.0	0.513105848	0.616116734	0.009131868	0.094211798	0.029036991
2020-06-04T12:35:00	0.2136	12.429	200.0	0.512851415	0.615762155	0.009123595	0.094126450	0.029010686
2020-06-04T12:40:00	0.2139	12.428	200.0	0.513965338	0.617314913	0.009159842	0.094500397	0.029125940
2020-06-04T12:45:00	0.2135	12.425	200.0	0.512684664	0.615529797	0.009118175	0.094070534	0.028993452
2020-06-04T12:50:00	0.2125	12.420	200.0	0.509006704	0.610410504	0.008999043	0.092841464	0.028614641
2020-06-04T12:55:00	0.2121	12.420	201.0	0.507724173	0.608627938	0.008957684	0.092414778	0.028483132
2020-06-04T13:00:00	0.2123	12.422	200.0	0.508497210	0.609702209	0.008982601	0.092671842	0.028562362
2020-06-04T13:05:00	0.2119	12.423	200.0	0.506871771	0.607443934	0.008930249	0.092131735	0.028395895
2020-06-04T13:10:00	0.2113	12.426	200.0	0.504902644	0.604711016	0.008867032	0.091479537	0.028194882
2020-06-04T13:15:00	0.2110	12.427	201.0	0.503961617	0.603406083	0.008836901	0.091168674	0.028099071
2020-06-04T13:20:00	0.2106	12.429	200.0	0.502677191	0.601626108	0.008795856	0.090745223	0.027968559
2020-06-04T13:25:00	0.2107	12.430	200.0	0.502765146	0.601747954	0.008798663	0.090774189	0.027977487
2020-06-04T13:30:00	0.2088	12.432	201.0	0.496327241	0.592845753	0.008594338	0.088666201	0.027327784
2020-06-04T13:35:00	0.2080	12.433	200.0	0.493663958	0.589172758	0.008510510	0.087801362	0.027061232
2020-06-04T13:40:00	0.2066	12.434	200.0	0.488931960	0.582660777	0.008362575	0.086275148	0.026590839
2020-06-04T13:45:00	0.2062	12.438	201.0	0.487297162	0.580415204	0.008311767	0.085750964	0.026429280
2020-06-04T13:50:00	0.2056	12.444	200.0	0.485316684	0.577697665	0.008250420	0.085118064	0.026234214
2020-06-04T13:55:00	0.2048	12.448	200.0	0.482644756	0.574036311	0.008168013	0.084267881	0.025972179
2020-06-04T14:00:00	0.2045	12.451	200.0	0.481697553	0.572739724	0.008138897	0.083967504	0.025879600
2020-06-04T14:05:00	0.2042	12.452	201.0	0.480404692	0.570971136	0.008099240	0.083558370	0.025753501
2020-06-04T14:10:00	0.2034	12.457	200.0	0.477728887	0.567314964	0.008017468	0.082714736	0.025493485
2020-06-04T14:15:00	0.2029	12.462	201.0	0.476088677	0.565076631	0.007967546	0.082199699	0.025334746
2020-06-04T14:20:00	0.2022	12.468	200.0	0.473755563	0.561896408	0.007896800	0.081469825	0.025109791
2020-06-04T14:25:00	0.2014	12.471	201.0	0.470728109	0.557776199	0.007805464	0.080527530	0.024819367
2020-06-04T14:30:00	0.2013	12.478	209.0	0.470470486	0.557425924	0.007797716	0.080447595	0.024794730
2020-06-04T14:35:00	0.2003	12.483	204.0	0.467093328	0.552839069	0.007696498	0.079403348	0.024472883
2020-06-04T14:40:00	0.2003	12.489	201.0	0.467182210	0.552959673	0.007699153	0.079430745	0.024481327
2020-06-04T14:45:00	0.2000	12.493	201.0	0.465883784	0.551198469	0.007660405	0.079030982	0.024358116
2020-06-04T14:50:00	0.2006	12.489	201.0	0.468053387	0.554142100	0.007725206	0.079699522	0.024564167
2020-06-04T14:55:00	0.2005	12.491	201.0	0.467795560	0.553792095	0.007717491	0.079619931	0.024539636
2020-06-04T15:00:00	0.1999	12.496	201.0	0.465803630	0.551089790	0.007658016	0.079006336	0.024350520
2020-06-04T15:05:00	0.1993	12.494	201.0	0.463463393	0.547918983	0.007588430	0.078288436	0.024129256
2020-06-04T15:10:00	0.1995	12.493	201.0	0.464246575	0.548979639	0.007611683	0.078528329	0.024203194
2020-06-04T15:15:00	0.2005	12.488	201.0	0.467804317	0.553803982	0.007717753	0.079622633	0.024540469
2020-06-04T15:20:00	0.2014	12.484	201.0	0.471011957	0.558162193	0.007814005	0.080615648	0.024846526
2020-06-04T15:25:00	0.2012	12.483	201.0	0.470061491	0.556869945	0.007785423	0.080320772	0.024755642
2020-06-04T15:30:00	0.2002	12.479	201.0	0.466683923	0.552283631	0.007684272	0.079277213	0.024434007
2020-06-04T15:35:00	0.1995	12.479	201.0	0.464344298	0.549112018	0.007614587	0.078558287	0.024212427
2020-06-04T15:40:00	0.2002	12.483	201.0	0.466861706	0.552524812	0.007689580	0.079331975	0.024450885
2020-06-04T15:45:00	0.2005	12.483	201.0	0.467644098	0.553586507	0.007712961	0.079573192	0.024525231
2020-06-04T15:50:00	0.2013	12.485	215.0	0.470505486	0.557473508	0.007798768	0.080458452	0.024798076
2020-06-04T15:55:00	0.2011	12.489	201.0	0.469901379	0.556652329	0.007780613	0.080271151	0.024740348
2020-06-04T16:00:00	0.2000	12.489	201.0	0.466176802	0.551595805	0.007669141	0.079121110	0.024385895
2020-06-04T16:05:00	0.2002	12.486	201.0	0.466720062	0.552332655	0.007685350	0.079288344	0.024437438
2020-06-04T16:10:00	0.1997	12.484	201.0	0.464835070	0.549776953	0.007629178	0.078708826	0.024258824
2020-06-04T16:15:00	0.1992	12.486	201.0	0.463296205	0.547692624	0.007583471	0.078237272	0.024113487
2020-06-04T16:20:00	0.1993	12.490	201.0	0.463492804	0.547958804	0.007589303	0.078297438	0.024132031
2020-06-04T16:25:00	0.1994	12.489	201.0	0.464036497	0.548695084	0.007605442	0.078463945	0.024183350
2020-06-04T16:30:00	0.1995	12.486	201.0	0.464233052	0.548961322	0.007611281	0.078524184	0.024201916
2020-06-04T16:35:00	0.1992	12.482	201.0	0.463388293	0.547817301	0.007586202	0.078265451	0.024122172
2020-06-04T16:40:00	0.1989	12.478	201.0	0.462196063	0.546203676	0.007550877	0.077901011	0.024009848
2020-06-04T16:45:00	0.1985	12.472	201.0	0.460655991	0.544120932	0.007505366	0.077431480	0.023865134
2020-06-04T16:50:00	0.1981	12.465	201.0	0.459462792	0.542508577	0.007470199	0.077068662	0.023753310
2020-06-04T16:55:00	0.1980	12.461	201.0	0.458964464	0.541835527	0.007455535	0.076917382	0.023706684
2020-06-04T17:00:00	0.1982	12.454	201.0	0.459856426	0.543040365	0.007481791	0.077188262	0.023790172
2020-06-04T17:05:00	0.1987	12.443	201.0	0.461442934	0.545184934	0.007528605	0.077671226	0.023939026
2020-06-04T17:10:00	0.1991	12.433	201.0	0.463028694	0.547330483	0.007575539	0.078155441	0.024088266
2020-06-04T17:15:00	0.1995	12.426	201.0	0.464266662	0.549006850	0.007612280	0.078534486	0.024205091
2020-06-04T17:20:00	0.1999	12.417	201.0	0.465504175	0.550683814	0.007649094	0.078914294	0.024322152
2020-06-04T17:25:00	0.2008	12.409	200.0	0.468821449	0.555185071	0.007748210	0.079936858	0.024637316
2020-06-04T17:30:00	0.2021	12.402	200.0	0.473174072	0.561104463	0.007879216	0.081288416	0.025053879
2020-06-04T17:35:00	0.2029	12.393	200.0	0.476137995	0.565143901	0.007969044	0.082215162	0.025339511
2020-06-04T17:40:00	0.2033	12.386	201.0	0.477371165	0.566826611	0.008006567	0.082602273	0.025458823
2020-06-04T17:45:00	0.2036	12.380	200.0	0.478603887	0.568509919	0.008044163	0.082990142	0.025578368
2020-06-04T17:50:00	0.2033	12.373	200.0	0.477417018	0.566889203	0.008007964	0.082616684	0.025463264
2020-06-04T17:55:00	0.2033	12.364	199.0	0.477612796	0.567156468	0.008013929	0.082678230	0.025482233
2020-06-04T18:00:00	0.2034	12.356	199.0	0.477808563	0.567423749	0.008019897	0.082739795	0.025501208
2020-06-04T18:05:00	0.2033	12.351	198.0	0.477312938	0.566747130	0.008004793	0.082583974	0.025453183
2020-06-04T18:10:00	0.2036	12.343	198.0	0.478545680	0.568430410	0.008042385	0.082971807	0.025572717
2020-06-04T18:15:00	0.2046	12.338	198.0	0.481850185	0.572948608	0.008143586	0.084015871	0.025894507
2020-06-04T18:20:00	0.2054	12.334	197.0	0.484806527	0.576998154	0.008234654	0.084955410	0.026184083
2020-06-04T18:25:00	0.2053	12.327	196.0	0.484311924	0.576320170	0.008219383	0.084797863	0.026135525
2020-06-04T18:30:00	0.2047	12.318	206.0	0.482436718	0.573751475	0.008161614	0.084201862	0.025951832
2020-06-04T18:35:00	0.2048	12.307	196.0	0.482632206	0.574019128	0.008167627	0.084263897	0.025970952
2020-06-04T18:40:00	0.2051	12.297	196.0	0.483517939	0.575232211	0.008194898	0.084545255	0.026057669
2020-06-04T18:45:00	0.2045	12.287	196.0	0.481642294	0.572664104	0.008137200	0.083949997	0.025874204
2020-06-04T18:50:00	0.2054	12.278	196.0	0.484598817	0.576713408	0.008228239	0.084889230	0.026163685
2020-06-04T18:55:00	0.2055	12.269	196.0	0.485139126	0.577454180	0.008244931	0.085061436	0.026216761
2020-06-04T19:00:00	0.2033	12.259	196.0	0.477392271	0.566855421	0.008007210	0.082608906	0.025460867
2020-06-04T19:05:00	0.2026	12.248	195.0	0.475167301	0.563820204	0.007939570	0.081911078	0.025245790
2020-06-04T19:10:00	0.2048	12.237	195.0	0.482619851	0.574002212	0.008167246	0.084259976	0.025969743
2020-06-04T19:15:00	0.2064	12.226	195.0	0.487988852	0.581365055	0.008333245	0.085972555	0.026497577
2020-06-04T19:20:00	0.2079	12.215	195.0	0.493349380	0.588739291	0.008500635	0.087699488	0.027029834
2020-06-04T19:25:00	0.2098	12.203	195.0	0.499731989	0.597549616	0.008702100	0.089777957	0.027670438
2020-06-04T19:30:00	0.2102	12.194	195.0	0.501299938	0.599718966	0.008751951	0.090292261	0.027828952
2020-06-04T19:35:00	0.2098	12.184	194.0	0.499777541	0.597612612	0.008703546	0.089792878	0.027675037
2020-06-04T19:40:00	0.2116	12.172	194.0	0.506148144	0.606439260	0.008906992	0.091891792	0.028321943
2020-06-04T19:45:00	0.2122	12.160	194.0	0.508055785	0.609088711	0.008968369	0.092525008	0.028517106
2020-06-04T19:50:00	0.2114	12.151	194.0	0.505165048	0.605075021	0.008875443	0.091566314	0.028221627
2020-06-04T19:55:00	0.2115	12.142	194.0	0.505702104	0.605820196	0.008892671	0.091744048	0.028276407
2020-06-04T20:00:00	0.2115	12.131	195.0	0.505553411	0.605613859	0.008887900	0.091694822	0.028261235
2020-06-04T20:05:00	0.2120	12.121	194.0	0.507461384	0.608262856	0.008949222	0.092327471	0.028456223
2020-06-04T20:10:00	0.2130	12.112	194.0	0.510737957	0.612818846	0.009055022	0.093418993	0.028792641
2020-06-04T20:15:00	0.2127	12.103	194.0	0.509904690	0.611659388	0.009028057	0.093140800	0.028706899
2020-06-04T20:20:00	0.2128	12.095	194.0	0.510098608	0.611929168	0.009034329	0.093205504	0.028726842
2020-06-04T20:25:00	0.2129	12.086	194.0	0.510634891	0.612675403	0.009051685	0.093384561	0.028782029
2020-06-04T20:30:00	0.2125	12.076	195.0	0.509116647	0.610563373	0.009002592	0.092878086	0.028625928
2020-06-04T20:35:00	0.2127	12.067	194.0	0.509653084	0.611309398	0.009019923	0.093056880	0.028681034
2020-06-04T20:40:00	0.2126	12.060	194.0	0.509504562	0.611102826	0.009015123	0.093007361	0.028665772
2020-06-04T20:45:00	0.2120	12.051	195.0	0.507300502	0.608039377	0.008944043	0.092274042	0.028439756
2020-06-04T20:50:00	0.2114	12.043	195.0	0.505437917	0.605453602	0.008884194	0.091656596	0.028249453
2020-06-04T20:55:00	0.2125	12.037	195.0	0.509058960	0.610483162	0.009000730	0.092858870	0.028620005
2020-06-04T21:00:00	0.2131	12.030	195.0	0.511307287	0.613611369	0.009073469	0.093609307	0.028851298
2020-06-04T21:05:00	0.2139	12.024	195.0	0.513896189	0.617218492	0.009157589	0.094477162	0.029118779
2020-06-04T21:10:00	0.2148	12.018	195.0	0.516824893	0.621305598	0.009253219	0.095463758	0.029422857
2020-06-04T21:15:00	0.2164	12.010	195.0	0.522481609	0.629219402	0.009439335	0.097383884	0.030014659
2020-06-04T21:20:00	0.2169	12.003	195.0	0.524039183	0.631403020	0.009490909	0.097915957	0.030178649
2020-06-04T21:25:00	0.2181	11.996	195.0	0.528321927	0.637417310	0.009633444	0.099386468	0.030631875
2020-06-04T21:30:00	0.2181	11.990	195.0	0.528174211	0.637209623	0.009628510	0.099335565	0.030616186
2020-06-04T21:35:00	0.2169	11.980	195.0	0.524277532	0.631737344	0.009498813	0.097997507	0.030203783
2020-06-04T21:40:00	0.2157	11.972	195.0	0.520035031	0.625793431	0.009358611	0.096551060	0.029757974
2020-06-04T21:45:00	0.2150	11.965	195.0	0.517496077	0.622243236	0.009275205	0.095690584	0.029492767
2020-06-04T21:50:00	0.2151	11.959	195.0	0.518031204	0.622991064	0.009292753	0.095871622	0.029548565
2020-06-04T21:55:00	0.2154	11.952	195.0	0.518907797	0.624216586	0.009321534	0.096168553	0.029640082
2020-06-04T22:00:00	0.2149	11.944	195.0	0.517393214	0.622099513	0.009271834	0.095655804	0.029482048
2020-06-04T22:05:00	0.2149	11.937	195.0	0.517160502	0.621774394	0.009264210	0.095577143	0.029457804
2020-06-04T22:10:00	0.2145	11.929	195.0	0.515902431	0.620017522	0.009223045	0.095152454	0.029326910
2020-06-04T22:15:00	0.2146	11.922	195.0	0.516353260	0.620646950	0.009237786	0.095304532	0.029373782
2020-06-04T22:20:00	0.2151	11.916	195.0	0.517829105	0.622708607	0.009286124	0.095803230	0.029527486
2020-06-04T22:25:00	0.2147	11.908	195.0	0.516571279	0.620951396	0.009244918	0.095378120	0.029396463
2020-06-04T22:30:00	0.2149	11.900	195.0	0.517363724	0.622058311	0.009270868	0.095645834	0.029478975
2020-06-04T22:35:00	0.2136	11.894	195.0	0.513028040	0.616008294	0.009129338	0.094185694	0.029028945
2020-06-04T22:40:00	0.2130	11.888	195.0	0.510741563	0.612823865	0.009055139	0.093420198	0.028793012
2020-06-04T22:45:00	0.2125	11.882	195.0	0.509138643	0.610593959	0.009003303	0.092885414	0.028628187
2020-06-04T22:50:00	0.2119	11.875	195.0	0.507192286	0.607889067	0.008940560	0.092238112	0.028428682
2020-06-04T22:55:00	0.2116	11.868	195.0	0.505930548	0.606137236	0.008900004	0.091819702	0.028299724
2020-06-04T23:00:00	0.2110	11.861	195.0	0.503982364	0.603434845	0.008837564	0.091175522	0.028101181
2020-06-04T23:05:00	0.2107	11.856	195.0	0.503062574	0.602160037	0.008808161	0.090872173	0.028007686
2020-06-04T23:10:00	0.2101	11.850	195.0	0.500769422	0.598984744	0.008735068	0.090118082	0.027775268
2020-06-04T23:15:00	0.2093	11.844	194.0	0.498131133	0.595336777	0.008651349	0.089254368	0.027509063
2020-06-04T23:20:00	0.2091	11.838	194.0	0.497553452	0.594538765	0.008633071	0.089065802	0.027450945
2020-06-04T23:25:00	0.2088	11.830	195.0	0.496288145	0.592791795	0.008593104	0.088653475	0.027323862
2020-06-04T23:30:00	0.2081	11.823	195.0	0.493990431	0.589622698	0.008520764	0.087907149	0.027093837
2020-06-04T23:35:00	0.2080	11.817	195.0	0.493756120	0.589299766	0.008513404	0.087831219	0.027070435
2020-06-04T23:40:00	0.2076	11.810	195.0	0.492145201	0.587080752	0.008462889	0.087310067	0.026909811
2020-06-04T23:45:00	0.2073	11.803	195.0	0.491222211	0.585810286	0.008434014	0.087012164	0.026817994
2020-06-04T23:50:00	0.2074	11.796	195.0	0.491676309	0.586435252	0.008448214	0.087158665	0.026863147
2020-06-04T23:55:00	0.2073	11.787	195.0	0.491097533	0.585638723	0.008430117	0.086971961	0.026805603
2020-06-05T00:00:00	0.2062	11.778	195.0	0.487417802	0.580580843	0.008315511	0.085789593	0.026441186
2020-06-05T00:05:00	0.2062	11.771	195.0	0.487527741	0.580731800	0.008318924	0.085824802	0.026452037
2020-06-05T00:10:00	0.2056	11.764	195.0	0.485224097	0.577570698	0.008247558	0.085088533	0.026225112
2020-06-05T00:15:00	0.2047	11.757	195.0	0.482228510	0.573466442	0.008155212	0.084135816	0.025931476
2020-06-05T00:20:00	0.2053	11.749	195.0	0.484409264	0.576453584	0.008222388	0.084828857	0.026145078
2020-06-05T00:25:00	0.2045	11.743	195.0	0.481758247	0.572822784	0.008140761	0.083986736	0.025885528
2020-06-05T00:30:00	0.2057	11.735	195.0	0.485664116	0.578174171	0.008261166	0.085228925	0.026268382
2020-06-05T00:35:00	0.2049	11.728	195.0	0.483014079	0.574542057	0.008179379	0.084385144	0.026008321
2020-06-05T00:40:00	0.2055	11.720	195.0	0.485194328	0.577529876	0.008246638	0.085079039	0.026222186
2020-06-05T00:45:00	0.2051	11.712	195.0	0.483579344	0.575316332	0.008196791	0.084564777	0.026063686
2020-06-05T00:50:00	0.2050	11.706	194.0	0.483344314	0.574994367	0.008189549	0.084490065	0.026040659
2020-06-05T00:55:00	0.2053	11.699	194.0	0.484489525	0.576563597	0.008224865	0.084854418	0.026152956
2020-06-05T01:00:00	0.2063	11.693	195.0	0.487702988	0.580972450	0.008324365	0.085880941	0.026469340
2020-06-05T01:05:00	0.2055	11.687	194.0	0.485054544	0.577338201	0.008242317	0.085034466	0.026208448
2020-06-05T01:10:00	0.2049	11.681	194.0	0.483094374	0.574652025	0.008181851	0.084410649	0.026016182
2020-06-05T01:15:00	0.2044	11.676	194.0	0.481133070	0.571967367	0.008121571	0.083788748	0.025824506
2020-06-05T01:20:00	0.2044	11.671	194.0	0.481243213	0.572118051	0.008124950	0.083823613	0.025835251
2020-06-05T01:25:00	0.2040	11.666	194.0	0.479971816	0.570379275	0.008085984	0.083421605	0.025711349
2020-06-05T01:30:00	0.2036	11.661	194.0	0.478354341	0.568169061	0.008036545	0.082911551	0.025554145
2020-06-05T01:35:00	0.2032	11.657	194.0	0.477081859	0.566431732	0.007997756	0.082511375	0.025430807
2020-06-05T01:40:00	0.2022	11.652	194.0	0.473732984	0.561865653	0.007896116	0.081462777	0.025107619
2020-06-05T01:45:00	0.2019	11.647	194.0	0.472458762	0.560130637	0.007857612	0.081065533	0.024985185
2020-06-05T01:50:00	0.2020	11.643	194.0	0.472915381	0.560752233	0.007871399	0.081207776	0.025029025
2020-06-05T01:55:00	0.2012	11.638	194.0	0.470255341	0.557133444	0.007791248	0.080380870	0.024774165
2020-06-05T02:00:00	0.2008	11.633	194.0	0.468633209	0.554929412	0.007742569	0.079878659	0.024619378
2020-06-05T02:05:00	0.1998	11.627	194.0	0.465275941	0.550374441	0.007642298	0.078844179	0.024300542
2020-06-05T02:10:00	0.2000	11.622	194.0	0.466080428	0.551465114	0.007666267	0.079091461	0.024376757
2020-06-05T02:15:00	0.1995	11.617	194.0	0.464109224	0.548793590	0.007607602	0.078486231	0.024190219
2020-06-05T02:20:00	0.1990	11.612	194.0	0.462484131	0.546593459	0.007559405	0.077988991	0.024036964
2020-06-05T02:25:00	0.1982	11.607	194.0	0.459815844	0.542985535	0.007480596	0.077175928	0.023786371
2020-06-05T02:30:00	0.1983	11.602	194.0	0.460274179	0.543604871	0.007494104	0.077315291	0.023829323
2020-06-05T02:35:00	0.1984	11.597	194.0	0.460385004	0.543754652	0.007497372	0.077349007	0.023839715
2020-06-05T02:40:00	0.1973	11.591	194.0	0.456671668	0.538741364	0.007388252	0.076223230	0.023492740
2020-06-05T02:45:00	0.1970	11.586	194.0	0.455738939	0.537483821	0.007360966	0.075941726	0.023405978
2020-06-05T02:50:00	0.1970	11.581	194.0	0.455501962	0.537164429	0.007354041	0.075870287	0.023383959
2020-06-05T02:55:00	0.1974	11.576	194.0	0.457004489	0.539190254	0.007398000	0.076323801	0.023523737
2020-06-05T03:00:00	0.1978	11.571	194.0	0.458506345	0.541216956	0.007442067	0.076778438	0.023663860
2020-06-05T03:05:00	0.1980	11.565	194.0	0.458964858	0.541836058	0.007455547	0.076917502	0.023706721
2020-06-05T03:10:00	0.1983	11.560	194.0	0.460118364	0.543394304	0.007489511	0.077267899	0.023814717
2020-06-05T03:15:00	0.1975	11.556	194.0	0.457448199	0.539788840	0.007411006	0.076457982	0.023565092
2020-06-05T03:20:00	0.1976	11.551	194.0	0.457559118	0.539938499	0.007414259	0.076491542	0.023575436
2020-06-05T03:25:00	0.1978	11.546	194.0	0.458365451	0.541026749	0.007437928	0.076735731	0.023650697
2020-06-05T03:30:00	0.1980	11.542	194.0	0.459171591	0.542115253	0.007461628	0.076980243	0.023726059
2020-06-05T03:35:00	0.1975	11.537	194.0	0.457196335	0.539449044	0.007403622	0.076381802	0.023541613
2020-06-05T03:40:00	0.1972	11.533	194.0	0.456263751	0.538191310	0.007376312	0.076100055	0.023454776
2020-06-05T03:45:00	0.1983	11.528	194.0	0.460199204	0.543503549	0.007491894	0.077292485	0.023822295
2020-06-05T03:50:00	0.1995	11.525	194.0	0.464130059	0.548821811	0.007608221	0.078492616	0.024192187
2020-06-05T03:55:00	0.1994	11.521	194.0	0.463893672	0.548501646	0.007601201	0.078420188	0.024169864
2020-06-05T04:00:00	0.1995	11.518	194.0	0.464351452	0.549121710	0.007614799	0.078560481	0.024213103
2020-06-05T04:05:00	0.1994	11.514	194.0	0.463961449	0.548593439	0.007603213	0.078440951	0.024176263
2020-06-05T04:10:00	0.1995	11.511	194.0	0.464265601	0.549005412	0.007612248	0.078534161	0.024204991
2020-06-05T04:15:00	0.2000	11.507	193.0	0.465957571	0.551298519	0.007662604	0.079053673	0.024365110
2020-06-05T04:20:00	0.1997	11.504	194.0	0.464873822	0.549829466	0.007630331	0.078720719	0.024262490
2020-06-05T04:25:00	0.2008	11.501	194.0	0.468645811	0.554946526	0.007742947	0.079882554	0.024620579
2020-06-05T04:30:00	0.2034	11.504	193.0	0.477948686	0.567615078	0.008024169	0.082783875	0.025514794
2020-06-05T04:35:00	0.2055	11.508	192.0	0.485157136	0.577478876	0.008245488	0.085067179	0.026218531
2020-06-05T04:40:00	0.2075	11.503	192.0	0.492006092	0.586889229	0.008458534	0.087265136	0.026895963
2020-06-05T04:45:00	0.2078	11.496	193.0	0.492996068	0.588252547	0.008489552	0.087585141	0.026994591
2020-06-05T04:50:00	0.2084	11.490	192.0	0.495017694	0.591039015	0.008553068	0.088240429	0.027196557
2020-06-05T04:55:00	0.2084	11.485	192.0	0.494975155	0.590980349	0.008551729	0.088226616	0.027192300
2020-06-05T05:00:00	0.2092	11.481	192.0	0.497682993	0.594717690	0.008637168	0.089108070	0.027463972
2020-06-05T05:05:00	0.2111	11.476	192.0	0.504163837	0.603686443	0.008843371	0.091235431	0.028119646
2020-06-05T05:10:00	0.2124	11.473	192.0	0.508920190	0.610290218	0.008996250	0.092812650	0.028605760
2020-06-05T05:15:00	0.2130	11.470	192.0	0.510932410	0.613089501	0.009061320	0.093483973	0.028812668
2020-06-05T05:20:00	0.2132	11.466	192.0	0.511574666	0.613983658	0.009082139	0.093698753	0.028878866
2020-06-05T05:25:00	0.2130	11.465	192.0	0.510847729	0.612971631	0.009058577	0.093455672	0.028803946
2020-06-05T05:30:00	0.2134	11.460	192.0	0.512174477	0.614819023	0.009101603	0.093899561	0.028940757
2020-06-05T05:35:00	0.2140	11.453	192.0	0.514184787	0.617620932	0.009166991	0.094574154	0.029148673
2020-06-05T05:40:00	0.2148	11.444	192.0	0.516877457	0.621379015	0.009254940	0.095481512	0.029428329
2020-06-05T05:45:00	0.2150	11.438	192.0	0.517518600	0.622274706	0.009275944	0.095698200	0.029495115
2020-06-05T05:50:00	0.2157	11.432	192.0	0.520208657	0.626036401	0.009364328	0.096610044	0.029776154
2020-06-05T05:55:00	0.2167	11.424	192.0	0.523578815	0.630757409	0.009475651	0.097758542	0.030130132
2020-06-05T06:00:00	0.2162	11.418	192.0	0.521830840	0.628307649	0.009417829	0.097162009	0.029946275
2020-06-05T06:05:00	0.2174	11.414	192.0	0.525881159	0.633987895	0.009552081	0.098547063	0.030373162
2020-06-05T06:10:00	0.2178	11.411	192.0	0.527202114	0.635843309	0.009596072	0.099000908	0.030513041
2020-06-05T06:15:00	0.2182	11.408	192.0	0.528522562	0.637699429	0.009640148	0.099455627	0.030653190
2020-06-05T06:20:00	0.2181	11.408	193.0	0.528139837	0.637161296	0.009627362	0.099323722	0.030612536
2020-06-05T06:25:00	0.2178	11.406	192.0	0.527075691	0.635665674	0.009591858	0.098957427	0.030499640
2020-06-05T06:30:00	0.2178	11.403	192.0	0.527033549	0.635606464	0.009590453	0.098942936	0.030495174
2020-06-05T06:35:00	0.2172	11.405	192.0	0.525287329	0.633154263	0.009532339	0.098343380	0.030310385
2020-06-05T06:40:00	0.2180	11.408	192.0	0.527971318	0.636924387	0.009621735	0.099265670	0.030594643
2020-06-05T06:45:00	0.2168	11.407	192.0	0.523839098	0.631122403	0.009484276	0.097847526	0.030157558
2020-06-05T06:50:00	0.2175	11.408	193.0	0.526183421	0.634412327	0.009562138	0.098650820	0.030405141
2020-06-05T06:55:00	0.2180	11.410	193.0	0.527844923	0.636746713	0.009617516	0.099222140	0.030581227
2020-06-05T07:00:00	0.2184	11.410	193.0	0.529165125	0.638603177	0.009661633	0.099677284	0.030721507
2020-06-05T07:05:00	0.2187	11.407	192.0	0.530144419	0.639981173	0.009694423	0.100015576	0.030825772
2020-06-05T07:10:00	0.2196	11.405	193.0	0.533164768	0.644236122	0.009795908	0.101062572	0.031148466
2020-06-05T07:15:00	0.2195	11.399	192.0	0.533122700	0.644176808	0.009794490	0.101047952	0.031143960
2020-06-05T07:20:00	0.2204	11.395	193.0	0.536140446	0.648435410	0.009896412	0.102099453	0.031468043
2020-06-05T07:25:00	0.2202	11.398	192.0	0.535418682	0.647416191	0.009871986	0.101847463	0.031390377
2020-06-05T07:30:00	0.2195	11.405	192.0	0.532996494	0.643998870	0.009790239	0.101004096	0.031130443
2020-06-05T07:35:00	0.2201	11.416	193.0	0.534994676	0.646817641	0.009857652	0.101699576	0.031344797
2020-06-05T07:40:00	0.2195	11.427	192.0	0.532912354	0.643880248	0.009787406	0.100974863	0.031121433
2020-06-05T07:45:00	0.2195	11.444	193.0	0.532870284	0.643820938	0.009785989	0.100960248	0.031116929
2020-06-05T07:50:00	0.2200	11.440	193.0	0.534528568	0.646159826	0.009841906	0.101537129	0.031294729
2020-06-05T07:55:00	0.2206	11.447	193.0	0.536865638	0.649459899	0.009920983	0.102352956	0.031546175
2020-06-05T08:00:00	0.2202	11.457	193.0	0.535464302	0.647480599	0.009873529	0.101863381	0.031395283
2020-06-05T08:05:00	0.2219	11.461	193.0	0.541195728	0.655586011	0.010068340	0.103873213	0.032014733
2020-06-05T08:10:00	0.2216	11.469	193.0	0.540135599	0.654084748	0.010032162	0.103499965	0.031899694
2020-06-05T08:15:00	0.2216	11.476	194.0	0.540093616	0.654025315	0.010030731	0.103485198	0.031895143
2020-06-05T08:20:00	0.2207	11.469	194.0	0.536995281	0.649643093	0.009925379	0.102398309	0.031560153
2020-06-05T08:25:00	0.2211	11.461	193.0	0.538311989	0.651504459	0.009970082	0.102859499	0.031702297
2020-06-05T08:30:00	0.2216	11.471	194.0	0.539967665	0.653847018	0.010026437	0.103440901	0.031881490
2020-06-05T08:35:00	0.2219	11.495	194.0	0.541283241	0.655709980	0.010071330	0.103904054	0.032024239
2020-06-05T08:40:00	0.2220	11.516	194.0	0.541580584	0.656131237	0.010081491	0.104008879	0.032056547
2020-06-05T08:45:00	0.2223	11.521	194.0	0.542556365	0.657514172	0.010114871	0.104353256	0.032162687
2020-06-05T08:50:00	0.2223	11.525	194.0	0.542514412	0.657454697	0.010113434	0.104338438	0.032158120
2020-06-05T08:55:00	0.2226	11.538	194.0	0.543489930	0.658838005	0.010146859	0.104683272	0.032264401
2020-06-05T09:00:00	0.2228	11.548	194.0	0.544126145	0.659740592	0.010168688	0.104908477	0.032333811
2020-06-05T09:05:00	0.2225	11.568	195.0	0.543066913	0.658238061	0.010132358	0.104533670	0.032218292
2020-06-05T09:10:00	0.2223	11.594	194.0	0.542346592	0.657216804	0.010107690	0.104279174	0.032139854
2020-06-05T09:15:00	0.2216	11.605	194.0	0.540268695	0.654273177	0.010036700	0.103546788	0.031914126
2020-06-05T09:20:00	0.2226	11.626	194.0	0.543619326	0.659021549	0.010151297	0.104729055	0.032278512
2020-06-05T09:25:00	0.2222	11.651	194.0	0.542220723	0.657038392	0.010103383	0.104234735	0.032126158
2020-06-05T09:30:00	0.2214	11.710	195.0	0.539463812	0.653133898	0.010009270	0.103263795	0.031826904
2020-06-05T09:35:00	0.2222	11.705	195.0	0.542136807	0.656919454	0.010100511	0.104205114	0.032117028
2020-06-05T09:40:00	0.2212	11.716	195.0	0.538700742	0.652054291	0.009983300	0.102995864	0.031744326
2020-06-05T09:45:00	0.2204	11.738	195.0	0.535941023	0.648153759	0.009889660	0.102029797	0.031446574
2020-06-05T09:50:00	0.2209	11.752	195.0	0.537597834	0.650494718	0.009945824	0.102609230	0.031625161
2020-06-05T09:55:00	0.2197	11.769	195.0	0.533817213	0.645156237	0.009817900	0.101289461	0.031218396
2020-06-05T10:00:00	0.2198	11.771	195.0	0.534115198	0.645576588	0.009827952	0.101393172	0.031250360
2020-06-05T10:05:00	0.2195	11.810	196.0	0.533091920	0.644133409	0.009793454	0.101037255	0.031140663
2020-06-05T10:10:00	0.2198	11.868	196.0	0.534109113	0.645568004	0.009827747	0.101391053	0.031249707
2020-06-05T10:15:00	0.2204	11.882	196.0	0.536145642	0.648442750	0.009896587	0.102101268	0.031468603
2020-06-05T10:20:00	0.2202	11.892	196.0	0.535462877	0.647478588	0.009873481	0.101862884	0.031395130
2020-06-05T10:25:00	0.2211	11.908	196.0	0.538517544	0.651795171	0.009977070	0.102931592	0.031724516
2020-06-05T10:30:00	0.2221	11.923	196.0	0.541908795	0.656596310	0.010092712	0.104124649	0.032092228
2020-06-05T10:35:00	0.2229	11.907	197.0	0.544618799	0.660439740	0.010185607	0.105083032	0.032387611
2020-06-05T10:40:00	0.2235	11.888	197.0	0.546649155	0.663323205	0.010255487	0.105803968	0.032609811
2020-06-05T10:45:00	0.2238	11.872	196.0	0.547662372	0.664763416	0.010290450	0.106164673	0.032720983
2020-06-05T10:50:00	0.2230	11.863	196.0	0.544948681	0.660908001	0.010196944	0.105199997	0.032423661
2020-06-05T10:55:00	0.2230	11.877	196.0	0.544945648	0.660903695	0.010196840	0.105198921	0.032423329
2020-06-05T11:00:00	0.2223	11.866	196.0	0.542569043	0.657532146	0.010115305	0.104357734	0.032164067
2020-06-05T11:05:00	0.2233	11.860	196.0	0.545956331	0.662338892	0.010231615	0.105557681	0.032533902
2020-06-05T11:10:00	0.2218	11.866	196.0	0.540866565	0.655119781	0.010057100	0.103757249	0.031978992
2020-06-05T11:15:00	0.2222	11.874	196.0	0.542220723	0.657038392	0.010103383	0.104234735	0.032126158
2020-06-05T11:20:00	0.2235	11.883	197.0	0.546624903	0.663288743	0.010254651	0.105795342	0.032607152
2020-06-05T11:25:00	0.2227	11.889	196.0	0.543910400	0.659434481	0.010161283	0.104832081	0.032310265
2020-06-05T11:30:00	0.2224	11.886	196.0	0.542890016	0.657987221	0.010126297	0.104471142	0.032199020
2020-06-05T11:35:00	0.2224	11.889	196.0	0.542886981	0.657982917	0.010126193	0.104470069	0.032198690
2020-06-05T11:40:00	0.2233	11.893	197.0	0.545935106	0.662308744	0.010230884	0.105550140	0.032531578
2020-06-05T11:45:00	0.2223	11.913	197.0	0.542541728	0.657493421	0.010114370	0.104348086	0.032161094
2020-06-05T11:50:00	0.2216	11.958	196.0	0.540163472	0.654124208	0.010033112	0.103509770	0.031902716
2020-06-05T11:55:00	0.2207	11.978	197.0	0.537104180	0.649796984	0.009929073	0.102436412	0.031571897
2020-06-05T12:00:00	0.2209	11.992	197.0	0.537780542	0.650753008	0.009952027	0.102673229	0.031644886
2020-06-05T12:05:00	0.2213	11.995	196.0	0.539135907	0.652669913	0.009998106	0.103148617	0.031791406
2020-06-05T12:10:00	0.2206	12.001	196.0	0.536755308	0.649304007	0.009917243	0.102314368	0.031534282
2020-06-05T12:15:00	0.2189	12.065	197.0	0.530971367	0.641145406	0.009722156	0.100301689	0.030913955
2020-06-05T12:20:00	0.2184	12.132	198.0	0.529266210	0.638745381	0.009665015	0.099712177	0.030732261
2020-06-05T12:25:00	0.2181	12.174	198.0	0.528241492	0.637304218	0.009630757	0.099358748	0.030623331
2020-06-05T12:30:00	0.2177	12.183	198.0	0.526875743	0.635384757	0.009585194	0.098888679	0.030478451
2020-06-05T12:35:00	0.2184	12.187	198.0	0.529257070	0.638732522	0.009664709	0.099709021	0.030731289
2020-06-05T12:40:00	0.2175	12.227	198.0	0.526188092	0.634418886	0.009562294	0.098652424	0.030405635
2020-06-05T12:45:00	0.2181	12.287	198.0	0.528229301	0.637287078	0.009630350	0.099354548	0.030622036
2020-06-05T12:50:00	0.2177	12.353	198.0	0.526863548	0.635367624	0.009584788	0.098884486	0.030477159
2020-06-05T12:55:00	0.2171	12.405	198.0	0.524815427	0.632492000	0.009516664	0.098181669	0.030260544
2020-06-05T13:00:00	0.2168	12.453	199.0	0.523789383	0.631052685	0.009482628	0.097830527	0.030152318
2020-06-05T13:05:00	0.2165	12.492	199.0	0.522763034	0.629613796	0.009448643	0.097479912	0.030044256
2020-06-05T13:10:00	0.2159	12.507	199.0	0.520712469	0.626741570	0.009380928	0.096781303	0.029828938
2020-06-05T13:15:00	0.2150	12.516	199.0	0.517635855	0.622438550	0.009279787	0.095737855	0.029507337
2020-06-05T13:20:00	0.2145	12.533	199.0	0.515924073	0.620047735	0.009223752	0.095159751	0.029329160
2020-06-05T13:25:00	0.2133	12.551	199.0	0.511816595	0.614320561	0.009089987	0.093779722	0.028903821
2020-06-05T13:30:00	0.2141	12.552	199.0	0.514550361	0.618130810	0.009178907	0.094697089	0.029186562
2020-06-05T13:35:00	0.2152	12.547	199.0	0.518306880	0.623376406	0.009301800	0.095964953	0.029577331
2020-06-05T13:40:00	0.2156	12.563	199.0	0.519669924	0.625282584	0.009346594	0.096427084	0.029719764
2020-06-05T13:45:00	0.2156	12.607	200.0	0.519666869	0.625278310	0.009346493	0.096426047	0.029719444
2020-06-05T13:50:00	0.2161	12.643	200.0	0.521370679	0.627663152	0.009402637	0.097005274	0.029897968
2020-06-05T13:55:00	0.2160	12.663	200.0	0.521026319	0.627180959	0.009391276	0.096888065	0.029861843
2020-06-05T14:00:00	0.2150	12.661	200.0	0.517608341	0.622400103	0.009278885	0.095728550	0.029504469
2020-06-05T14:05:00	0.2142	12.623	200.0	0.514870894	0.618577956	0.009189361	0.094804942	0.029219804
2020-06-05T14:10:00	0.2126	12.577	200.0	0.509392498	0.610946972	0.009011502	0.092970006	0.028654259
2020-06-05T14:15:00	0.2136	12.536	199.0	0.512812547	0.615707993	0.009122332	0.094113415	0.029006668
2020-06-05T14:20:00	0.2136	12.492	199.0	0.512809486	0.615703727	0.009122232	0.094112388	0.029006352
2020-06-05T14:25:00	0.2144	12.457	199.0	0.515542460	0.619515065	0.009211283	0.095031112	0.029289512
2020-06-05T14:30:00	0.2156	12.432	199.0	0.519639371	0.625239840	0.009345588	0.096416713	0.029716567
2020-06-05T14:35:00	0.2155	12.403	199.0	0.519294838	0.624757887	0.009334256	0.096299803	0.029680534
2020-06-05T14:40:00	0.2155	12.375	199.0	0.519291783	0.624753613	0.009334156	0.096298766	0.029680215
2020-06-05T14:45:00	0.2151	12.349	199.0	0.517922475	0.622839099	0.009289186	0.095834824	0.029537224
2020-06-05T14:50:00	0.2148	12.328	199.0	0.516894371	0.621402641	0.009255494	0.095487226	0.029430090
2020-06-05T14:55:00	0.2148	12.310	198.0	0.516891313	0.621398370	0.009255394	0.095486193	0.029429772
2020-06-05T15:00:00	0.2165	12.289	199.0	0.522692825	0.629515397	0.009446321	0.097455950	0.030036870
2020-06-05T15:05:00	0.2192	12.268	199.0	0.531888719	0.642437569	0.009752967	0.100619563	0.031011927
2020-06-05T15:10:00	0.2229	12.249	199.0	0.544451965	0.660202956	0.010179876	0.105023904	0.032369387
2020-06-05T15:15:00	0.2236	12.234	198.0	0.546821217	0.663567719	0.010261420	0.105865179	0.032628676
2020-06-05T15:20:00	0.2224	12.213	198.0	0.542750413	0.657789281	0.010121515	0.104421809	0.032183816
2020-06-05T15:25:00	0.2218	12.199	198.0	0.540711697	0.654900454	0.010051814	0.103702712	0.031962183
2020-06-05T15:30:00	0.2211	12.184	198.0	0.538332183	0.651533018	0.009970769	0.102866581	0.031704479
2020-06-05T15:35:00	0.2215	12.171	198.0	0.539687333	0.653450229	0.010016884	0.103342344	0.031851114
2020-06-05T15:40:00	0.2218	12.155	198.0	0.540702587	0.654887553	0.010051503	0.103699504	0.031961194
2020-06-05T15:45:00	0.2227	12.140	198.0	0.543752634	0.659210658	0.010155869	0.104776233	0.032293053
2020-06-05T15:50:00	0.2232	12.126	198.0	0.545444597	0.661612111	0.010214000	0.105375954	0.032477893
2020-06-05T15:55:00	0.2235	12.112	198.0	0.546458165	0.663051822	0.010248903	0.105736046	0.032588876
2020-06-05T16:00:00	0.2230	12.097	198.0	0.544760631	0.660641056	0.010190481	0.105133312	0.032403108
2020-06-05T16:05:00	0.2231	12.082	198.0	0.545306709	0.661416315	0.010209256	0.105327015	0.032462809
2020-06-05T16:10:00	0.2229	12.069	198.0	0.544496929	0.660266769	0.010181420	0.105039838	0.032374298
2020-06-05T16:15:00	0.2226	12.058	198.0	0.543686960	0.659117492	0.010153617	0.104752990	0.032285889
2020-06-05T16:20:00	0.2220	12.048	198.0	0.541519864	0.656045207	0.010079415	0.103987469	0.032049948
2020-06-05T16:25:00	0.2224	12.037	198.0	0.542744881	0.657781438	0.010121326	0.104419854	0.032183213
2020-06-05T16:30:00	0.2221	12.025	198.0	0.541934502	0.656632741	0.010093591	0.104133719	0.032095024
2020-06-05T16:35:00	0.2216	12.015	198.0	0.540105765	0.654042514	0.010031145	0.103489471	0.031896460
2020-06-05T16:40:00	0.2192	12.010	198.0	0.531817270	0.642336902	0.009750566	0.100594787	0.031004290
2020-06-05T16:45:00	0.2171	12.012	198.0	0.524872849	0.632572576	0.009518571	0.098201339	0.030266607
2020-06-05T16:50:00	0.2154	12.004	198.0	0.518939130	0.624260403	0.009322564	0.096179175	0.029643356
2020-06-05T16:55:00	0.2143	11.990	198.0	0.515389160	0.619301117	0.009206277	0.094979460	0.029273592
2020-06-05T17:00:00	0.2144	11.976	197.0	0.515598063	0.619592671	0.009213100	0.095049850	0.029295287
2020-06-05T17:05:00	0.2132	11.959	198.0	0.511360129	0.613684939	0.009075182	0.093626981	0.028856745
2020-06-05T17:10:00	0.2133	11.941	198.0	0.511911525	0.614452771	0.009093068	0.093811502	0.028913616
2020-06-05T17:15:00	0.2124	11.917	197.0	0.508696834	0.609979700	0.008989041	0.092738283	0.028582839
2020-06-05T17:20:00	0.2120	11.892	197.0	0.507535748	0.608366161	0.008951616	0.092352173	0.028463837
2020-06-05T17:25:00	0.2108	11.869	197.0	0.503287813	0.602472151	0.008815357	0.090946411	0.028030567
2020-06-05T17:30:00	0.2109	11.846	197.0	0.503497456	0.602762689	0.008822057	0.091015535	0.028051872
2020-06-05T17:35:00	0.2105	11.826	197.0	0.502334602	0.601151566	0.008784924	0.090632444	0.027933799
2020-06-05T17:40:00	0.2112	11.808	196.0	0.504602697	0.604294998	0.008857422	0.091380393	0.028164325
2020-06-05T17:45:00	0.2098	11.794	196.0	0.500007704	0.597930941	0.008710855	0.089868288	0.027698279
2020-06-05T17:50:00	0.2097	11.779	197.0	0.499530673	0.597271227	0.008695709	0.089712029	0.027650119
2020-06-05T17:55:00	0.2099	11.765	196.0	0.500083981	0.598036445	0.008713278	0.089893287	0.027705984
2020-06-05T18:00:00	0.2100	11.753	196.0	0.500637198	0.598801785	0.008730862	0.090074697	0.027761896
2020-06-05T18:05:00	0.2104	11.740	196.0	0.501876868	0.600517679	0.008770329	0.090481869	0.027887391
2020-06-05T18:10:00	0.2095	11.725	197.0	0.498652720	0.596057533	0.008667868	0.089424795	0.027561590
2020-06-05T18:15:00	0.2081	11.705	196.0	0.494049698	0.589704388	0.008522626	0.087926361	0.027099758
2020-06-05T18:20:00	0.2068	11.684	196.0	0.489440444	0.583359672	0.008378410	0.086438512	0.026641189
2020-06-05T18:25:00	0.2055	11.663	196.0	0.485169872	0.577496340	0.008245882	0.085071240	0.026219782
2020-06-05T18:30:00	0.2056	11.641	196.0	0.485380634	0.577785366	0.008252398	0.085138464	0.026240502
2020-06-05T18:35:00	0.2052	11.620	196.0	0.483866532	0.575709809	0.008205644	0.084656114	0.026091837
2020-06-05T18:40:00	0.2044	11.598	196.0	0.481315961	0.572217582	0.008127183	0.083846644	0.025842350
2020-06-05T18:45:00	0.2036	11.579	196.0	0.478417874	0.568255837	0.008038484	0.082931556	0.025560311
2020-06-05T18:50:00	0.2043	11.561	196.0	0.481047331	0.571850077	0.008118941	0.083761614	0.025816143
2020-06-05T18:55:00	0.2038	11.543	196.0	0.479185776	0.569304923	0.008061939	0.083173542	0.025634893
2020-06-05T19:00:00	0.2032	11.526	197.0	0.476977455	0.566289246	0.007994578	0.082478584	0.025420701
2020-06-05T19:05:00	0.2027	11.509	196.0	0.475459593	0.564218711	0.007948439	0.082002584	0.025273993
2020-06-05T19:10:00	0.2027	11.491	196.0	0.475325048	0.564035265	0.007944356	0.081960457	0.025261009
2020-06-05T19:15:00	0.2021	11.474	196.0	0.473460341	0.561494306	0.007887870	0.081377699	0.025081397
2020-06-05T19:20:00	0.2018	11.456	196.0	0.472287156	0.559897072	0.007852433	0.081012108	0.024968718
2020-06-05T19:25:00	0.2011	11.438	196.0	0.469727838	0.556416483	0.007775402	0.080217385	0.024723777
2020-06-05T19:30:00	0.2008	11.422	195.0	0.468899961	0.555291711	0.007750564	0.079961138	0.024644799
2020-06-05T19:35:00	0.2010	11.405	195.0	0.469458286	0.556050204	0.007767310	0.080133908	0.024698049
2020-06-05T19:40:00	0.1999	11.388	195.0	0.465509362	0.550690845	0.007649249	0.078915888	0.024322643
2020-06-05T19:45:00	0.1992	11.371	195.0	0.463292076	0.547687034	0.007583349	0.078236009	0.024113098
2020-06-05T19:50:00	0.1986	11.351	195.0	0.461073330	0.544685142	0.007517686	0.077558579	0.023904307
2020-06-05T19:55:00	0.1976	11.331	195.0	0.457810089	0.540277161	0.007421622	0.076567505	0.023598849
2020-06-05T20:00:00	0.1974	11.313	194.0	0.456979276	0.539156245	0.007397261	0.076316180	0.023521388
2020-06-05T20:05:00	0.1968	11.295	194.0	0.454756359	0.536159811	0.007332275	0.075645731	0.023314749
2020-06-05T20:10:00	0.1966	11.280	195.0	0.454272906	0.535508645	0.007318179	0.075500302	0.023269926
2020-06-05T20:15:00	0.1975	11.267	195.0	0.457269052	0.539547143	0.007405753	0.076403792	0.023548391
2020-06-05T20:20:00	0.1972	11.253	195.0	0.456438106	0.538426402	0.007381414	0.076152691	0.023470999
2020-06-05T20:25:00	0.1963	11.238	194.0	0.453170359	0.534024307	0.007286081	0.075169155	0.023167864
2020-06-05T20:30:00	0.1951	11.224	194.0	0.448853610	0.528221977	0.007161076	0.073879496	0.022770378
2020-06-05T20:35:00	0.1953	11.213	194.0	0.449763856	0.529444257	0.007187347	0.074150529	0.022853913
2020-06-05T20:40:00	0.1945	11.200	195.0	0.446838485	0.525518384	0.007103084	0.073281206	0.022585979
2020-06-05T20:45:00	0.1933	11.189	194.0	0.442862866	0.520193862	0.006989349	0.072107822	0.022224331
2020-06-05T20:50:00	0.1911	11.179	195.0	0.436381087	0.509757019	0.006782125	0.069969935	0.021565414
2020-06-05T20:55:00	0.1916	11.167	195.0	0.437636011	0.511901359	0.006823706	0.070398914	0.021697629
2020-06-05T21:00:00	0.1921	11.155	194.0	0.439161822	0.514514504	0.006874471	0.070922655	0.021859051
2020-06-05T21:05:00	0.1924	11.144	194.0	0.439871371	0.515731916	0.006898158	0.071167021	0.021934367
2020-06-05T21:10:00	0.1926	11.137	194.0	0.440309023	0.516483521	0.006912792	0.071318003	0.021980901
2020-06-05T21:15:00	0.1916	11.128	195.0	0.437756858	0.512108087	0.006827718	0.070440309	0.021710387
2020-06-05T21:20:00	0.1935	11.121	195.0	0.443309006	0.520790755	0.007002067	0.072239037	0.022264773
2020-06-05T21:25:00	0.1949	11.114	194.0	0.448407853	0.527623652	0.007148228	0.073746946	0.022729525
2020-06-05T21:30:00	0.1986	11.109	194.0	0.461150134	0.544788991	0.007519954	0.077581980	0.023911520
2020-06-05T21:35:00	0.2047	11.105	194.0	0.482140101	0.573345421	0.008152494	0.084107779	0.025922834
2020-06-05T21:40:00	0.2068	11.100	194.0	0.489592767	0.583569076	0.008383156	0.086487480	0.026656281
2020-06-05T21:45:00	0.2081	11.094	193.0	0.493934203	0.589545199	0.008518997	0.087888925	0.027088220
2020-06-05T21:50:00	0.2088	11.090	193.0	0.496551679	0.593155542	0.008601421	0.088739275	0.027350306
2020-06-05T21:55:00	0.2087	11.080	193.0	0.496074165	0.592496485	0.008586355	0.088583839	0.027302399
2020-06-05T22:00:00	0.2081	11.070	193.0	0.493876804	0.589466090	0.008517194	0.087870323	0.027082487
2020-06-05T22:05:00	0.2076	11.061	193.0	0.492363405	0.587381203	0.008469723	0.087380569	0.026931540
2020-06-05T22:10:00	0.2082	11.052	193.0	0.494291080	0.590037124	0.008530212	0.088004625	0.027123880
2020-06-05T22:15:00	0.2100	11.045	193.0	0.500684216	0.598866843	0.008732358	0.090090123	0.027766651
2020-06-05T22:20:00	0.2083	11.035	193.0	0.494705305	0.590608226	0.008543238	0.088139013	0.027165300
2020-06-05T22:25:00	0.2068	11.025	193.0	0.489404937	0.583310862	0.008377304	0.086427100	0.026637672
2020-06-05T22:30:00	0.2058	11.015	193.0	0.486165864	0.578862494	0.008276696	0.085389152	0.026317766
2020-06-05T22:35:00	0.2064	11.005	193.0	0.488097055	0.581513677	0.008336608	0.086007245	0.026508268
2020-06-05T22:40:00	0.2067	10.996	193.0	0.489338215	0.583219144	0.008375225	0.086405656	0.026631062
2020-06-05T22:45:00	0.2086	10.983	193.0	0.495740647	0.592036280	0.008575840	0.088475356	0.027268964
2020-06-05T22:50:00	0.2093	10.970	193.0	0.498010054	0.595169497	0.008647516	0.089214830	0.027496877
2020-06-05T22:55:00	0.2086	10.957	193.0	0.495810866	0.592133164	0.008578053	0.088498191	0.027276002
2020-06-05T23:00:00	0.2096	10.944	193.0	0.499110926	0.596690886	0.008682393	0.089574646	0.027607776
2020-06-05T23:05:00	0.2101	10.929	193.0	0.501034788	0.599351976	0.008743511	0.090205186	0.027802114
2020-06-05T23:10:00	0.2097	10.915	192.0	0.499524565	0.597262782	0.008695515	0.089710029	0.027649502
2020-06-05T23:15:00	0.2103	10.902	192.0	0.501448194	0.599924189	0.008756672	0.090340967	0.027843963
2020-06-05T23:20:00	0.2109	10.888	192.0	0.503713808	0.603062563	0.008828974	0.091086899	0.028073867
2020-06-05T23:25:00	0.2110	10.876	192.0	0.503920355	0.603348882	0.008835580	0.091155055	0.028094873
2020-06-05T23:30:00	0.2120	10.862	192.0	0.507555270	0.608393281	0.008952245	0.092358658	0.028465836
2020-06-05T23:35:00	0.2137	10.849	192.0	0.513239528	0.616303052	0.009136216	0.094256656	0.029050817
2020-06-05T23:40:00	0.2143	10.834	192.0	0.515155460	0.618974998	0.009198647	0.094900745	0.029249331
2020-06-05T23:45:00	0.2157	10.819	192.0	0.520144389	0.625946463	0.009362211	0.096588209	0.029769424
2020-06-05T23:50:00	0.2143	10.804	192.0	0.515225281	0.619072426	0.009200926	0.094924259	0.029256579
2020-06-05T23:55:00	0.2139	10.786	192.0	0.513721313	0.616974667	0.009151895	0.094418414	0.029100672
2020-06-06T00:00:00	0.2138	10.768	192.0	0.513585211	0.616784921	0.009147464	0.094372704	0.029086584
2020-06-06T00:05:00	0.2138	10.752	192.0	0.513449104	0.616595181	0.009143035	0.094327004	0.029072499
2020-06-06T00:10:00	0.2136	10.735	192.0	0.512970884	0.615928640	0.009127479	0.094166520	0.029023036
2020-06-06T00:15:00	0.2121	10.718	192.0	0.507698831	0.608592728	0.008956868	0.092406356	0.028480536
2020-06-06T00:20:00	0.2120	10.701	192.0	0.507219806	0.607927291	0.008941446	0.092247249	0.028431498
2020-06-06T00:25:00	0.2137	10.686	192.0	0.513246735	0.616313097	0.009136450	0.094259075	0.029051562
2020-06-06T00:30:00	0.2129	10.671	192.0	0.510372635	0.612310446	0.009043195	0.093296976	0.028755034
2020-06-06T00:35:00	0.2133	10.657	192.0	0.511947961	0.614503517	0.009094250	0.093823702	0.028917376
2020-06-06T00:40:00	0.2142	10.640	192.0	0.514890568	0.618605404	0.009190003	0.094811564	0.029221845
2020-06-06T00:45:00	0.2140	10.625	192.0	0.514070551	0.617461627	0.009163269	0.094535756	0.029136838
2020-06-06T00:50:00	0.2116	10.609	191.0	0.506058762	0.606315193	0.008904121	0.091862176	0.028312815
2020-06-06T00:55:00	0.2143	10.594	191.0	0.515166265	0.618990074	0.009199000	0.094904384	0.029250453
2020-06-06T01:00:00	0.2141	10.581	191.0	0.514688284	0.618323203	0.009183404	0.094743490	0.029200864
2020-06-06T01:05:00	0.2118	10.566	191.0	0.506677942	0.607174782	0.008924017	0.092067433	0.028376077
2020-06-06T01:10:00	0.2141	10.551	192.0	0.514416151	0.617943611	0.009174531	0.094651948	0.029172650
2020-06-06T01:15:00	0.2145	10.536	191.0	0.515989620	0.620139239	0.009225895	0.095181856	0.029335972
2020-06-06T01:20:00	0.2147	10.521	191.0	0.516537214	0.620903825	0.009243804	0.095366620	0.029392919
2020-06-06T01:25:00	0.2155	10.504	191.0	0.519475889	0.625011139	0.009340210	0.096361230	0.029699467
2020-06-06T01:30:00	0.2144	10.490	191.0	0.515581568	0.619569648	0.009212561	0.095044291	0.029293574
2020-06-06T01:35:00	0.2112	10.475	190.0	0.504487947	0.604135862	0.008853747	0.091342479	0.028152639
2020-06-06T01:40:00	0.2139	10.460	191.0	0.513941669	0.617281908	0.009159071	0.094492444	0.029123489
2020-06-06T01:45:00	0.2127	10.443	190.0	0.509698620	0.611372736	0.009021395	0.093072065	0.028685714
2020-06-06T01:50:00	0.2132	10.426	191.0	0.511616533	0.614041957	0.009083497	0.093712762	0.028883183
2020-06-06T01:55:00	0.2130	10.408	190.0	0.510795732	0.612899259	0.009056893	0.093438297	0.028798591
2020-06-06T02:00:00	0.2125	10.390	191.0	0.508947308	0.610327921	0.008997125	0.092821682	0.028608544
2020-06-06T02:05:00	0.2125	10.372	191.0	0.509153540	0.610614673	0.009003784	0.092890377	0.028629716
2020-06-06T02:10:00	0.2127	10.354	191.0	0.509702227	0.611377754	0.009021511	0.093073268	0.028686085
2020-06-06T02:15:00	0.2125	10.334	190.0	0.509223483	0.610711933	0.009006043	0.092913681	0.028636899
2020-06-06T02:20:00	0.2117	10.314	190.0	0.506346003	0.606713922	0.008913348	0.091957368	0.028342154
2020-06-06T02:25:00	0.2110	10.295	190.0	0.503809157	0.603194733	0.008832024	0.091118359	0.028083563
2020-06-06T02:30:00	0.2113	10.277	191.0	0.505044607	0.604907939	0.008871582	0.091526479	0.028209350
2020-06-06T02:35:00	0.2121	10.260	190.0	0.507650512	0.608525598	0.008955312	0.092390301	0.028475588
2020-06-06T02:40:00	0.2109	10.244	190.0	0.503742716	0.603102633	0.008829899	0.091096437	0.028076807
2020-06-06T02:45:00	0.2101	10.227	190.0	0.500860615	0.599110937	0.008737969	0.090148011	0.027784492
2020-06-06T02:50:00	0.2077	10.210	190.0	0.492473574	0.587532911	0.008473174	0.087416175	0.026942514
2020-06-06T02:55:00	0.2084	10.194	190.0	0.495089096	0.591137491	0.008555316	0.088263618	0.027203704
2020-06-06T03:00:00	0.2089	10.175	190.0	0.496671486	0.593320925	0.008605203	0.088778294	0.027362332
2020-06-06T03:05:00	0.2099	10.158	190.0	0.500314123	0.598354802	0.008720591	0.089968732	0.027729237
2020-06-06T03:10:00	0.2091	10.139	190.0	0.497429123	0.594367050	0.008629140	0.089025245	0.027438445
2020-06-06T03:15:00	0.2092	10.121	190.0	0.497636051	0.594652850	0.008635683	0.089092752	0.027459251
2020-06-06T03:20:00	0.2086	10.102	190.0	0.495780489	0.592091251	0.008577095	0.088488312	0.027272957
2020-06-06T03:25:00	0.2089	10.084	190.0	0.496675107	0.593325924	0.008605317	0.088779473	0.027362696
2020-06-06T03:30:00	0.2115	10.067	189.0	0.505807610	0.605966615	0.008896057	0.091778985	0.028287174
2020-06-06T03:35:00	0.2071	10.050	190.0	0.490552124	0.584888361	0.008413081	0.086796204	0.026751433
2020-06-06T03:40:00	0.2122	10.038	189.0	0.507934010	0.608919495	0.008964444	0.092484521	0.028504628
2020-06-06T03:45:00	0.2116	10.026	190.0	0.506084039	0.606350279	0.008904933	0.091870551	0.028315396
2020-06-06T03:50:00	0.2128	10.016	189.0	0.510059089	0.611874185	0.009033050	0.093192316	0.028722777
2020-06-06T03:55:00	0.2109	10.006	189.0	0.503753557	0.603117660	0.008830245	0.091100013	0.028077909
2020-06-06T04:00:00	0.2103	9.998	190.0	0.501558070	0.600076295	0.008760171	0.090377072	0.027855091
2020-06-06T04:05:00	0.2101	9.990	189.0	0.500828999	0.599067186	0.008736963	0.090137634	0.027781294
2020-06-06T04:10:00	0.2089	9.984	189.0	0.496663893	0.593310444	0.008604963	0.088775821	0.027361570
2020-06-06T04:15:00	0.2100	9.978	189.0	0.500400699	0.598474574	0.008723343	0.089997122	0.027737987
2020-06-06T04:20:00	0.2107	9.972	189.0	0.502761104	0.601742354	0.008798534	0.090772858	0.027977076
2020-06-06T04:25:00	0.2107	9.968	189.0	0.503061796	0.602158960	0.008808136	0.090871917	0.028007607
2020-06-06T04:30:00	0.2096	9.965	189.0	0.499242936	0.596873388	0.008686580	0.089617842	0.027621089
2020-06-06T04:35:00	0.2099	9.963	189.0	0.500230811	0.598239552	0.008717944	0.089941417	0.027720818
2020-06-06T04:40:00	0.2106	9.964	189.0	0.502591333	0.601507172	0.008793116	0.090716953	0.027959846
2020-06-06T04:45:00	0.2103	9.965	189.0	0.501519229	0.600022525	0.008758934	0.090364308	0.027851157
2020-06-06T04:50:00	0.2101	9.967	189.0	0.500790150	0.599013427	0.008735727	0.090124884	0.027777365
2020-06-06T04:55:00	0.2093	9.970	189.0	0.497999779	0.595155301	0.008647191	0.089211475	0.027495843
2020-06-06T05:00:00	0.2105	9.974	189.0	0.502078356	0.600796687	0.008776752	0.090548135	0.027907814
2020-06-06T05:05:00	0.2100	9.981	189.0	0.500662749	0.598837139	0.008731675	0.090083080	0.027764480
2020-06-06T05:10:00	0.2106	9.986	189.0	0.502679834	0.601629769	0.008795940	0.090746094	0.027968827
2020-06-06T05:15:00	0.2108	9.990	189.0	0.503323642	0.602521802	0.008816502	0.090958223	0.028034208
2020-06-06T05:20:00	0.2110	9.998	189.0	0.503967328	0.603414001	0.008837083	0.091170559	0.028099652
2020-06-06T05:25:00	0.2101	10.005	189.0	0.500836232	0.599077195	0.008737193	0.090140008	0.027782026
2020-06-06T05:30:00	0.2099	10.010	189.0	0.500107007	0.598068296	0.008714010	0.089900834	0.027708310
2020-06-06T05:35:00	0.2120	10.017	189.0	0.507268713	0.607995222	0.008943020	0.092263487	0.028436503
2020-06-06T05:40:00	0.2114	10.024	189.0	0.505169514	0.605081217	0.008875587	0.091567792	0.028222083
2020-06-06T05:45:00	0.2114	10.031	189.0	0.505469995	0.605498111	0.008885223	0.091667213	0.028252725
2020-06-06T05:50:00	0.2118	10.039	189.0	0.506798829	0.607342643	0.008927903	0.092107534	0.028388437
2020-06-06T05:55:00	0.2117	10.048	190.0	0.506413674	0.606807870	0.008915522	0.091979801	0.028349068
2020-06-06T06:00:00	0.2116	10.058	190.0	0.506028476	0.606273155	0.008903149	0.091852142	0.028309722
2020-06-06T06:05:00	0.2129	10.071	189.0	0.510439878	0.612404017	0.009045371	0.093319429	0.028761954
2020-06-06T06:10:00	0.2126	10.079	189.0	0.509370232	0.610916007	0.009010783	0.092962585	0.028651971
2020-06-06T06:15:00	0.2134	10.087	189.0	0.512066686	0.614668880	0.009098104	0.093863459	0.028929630
2020-06-06T06:20:00	0.2142	10.100	190.0	0.514761019	0.618424670	0.009185777	0.094767965	0.029208407
2020-06-06T06:25:00	0.2149	10.112	190.0	0.517453237	0.622183378	0.009273801	0.095676098	0.029488303
2020-06-06T06:30:00	0.2159	10.121	190.0	0.520826097	0.626900639	0.009384674	0.096819949	0.029840849
2020-06-06T06:35:00	0.2156	10.132	189.0	0.519759687	0.625408167	0.009349547	0.096457556	0.029729156
2020-06-06T06:40:00	0.2144	10.147	190.0	0.515617578	0.619619908	0.009213737	0.095056427	0.029297314
2020-06-06T06:45:00	0.2138	10.160	190.0	0.513523493	0.616698881	0.009145456	0.094351980	0.029080196
2020-06-06T06:50:00	0.2157	10.170	189.0	0.519974434	0.625708638	0.009356616	0.096530478	0.029751631
2020-06-06T06:55:00	0.2183	10.184	190.0	0.528797977	0.638086752	0.009649354	0.099550603	0.030682463
2020-06-06T07:00:00	0.2179	10.193	190.0	0.527393360	0.636112051	0.009602450	0.099066702	0.030533320
2020-06-06T07:05:00	0.2169	10.205	190.0	0.524283596	0.631745850	0.009499015	0.097999582	0.030204423
2020-06-06T07:10:00	0.2188	10.220	190.0	0.530714398	0.640783569	0.009713534	0.100212737	0.030886539
2020-06-06T07:15:00	0.2198	10.230	190.0	0.534074297	0.645518888	0.009826572	0.101378933	0.031245972
2020-06-06T07:20:00	0.2178	10.243	191.0	0.527224805	0.635875193	0.009596829	0.099008714	0.030515447
2020-06-06T07:25:00	0.2172	10.258	191.0	0.525137784	0.632944373	0.009527370	0.098292119	0.030294586
2020-06-06T07:30:00	0.2176	10.268	190.0	0.526459023	0.634799389	0.009571313	0.098745473	0.030434314
2020-06-06T07:35:00	0.2179	10.283	191.0	0.527439086	0.636176311	0.009603975	0.099082437	0.030538169
2020-06-06T07:40:00	0.2182	10.298	191.0	0.528418870	0.637553621	0.009636683	0.099419882	0.030642173
2020-06-06T07:45:00	0.2166	10.308	191.0	0.523264039	0.630316072	0.009465225	0.097650983	0.030096981
2020-06-06T07:50:00	0.2157	10.329	191.0	0.520150537	0.625955067	0.009362414	0.096590298	0.029770068
2020-06-06T07:55:00	0.2148	10.343	191.0	0.517034212	0.621597976	0.009260073	0.095534468	0.029444651
2020-06-06T08:00:00	0.2156	10.356	191.0	0.519724648	0.625359145	0.009348394	0.096445661	0.029725489
2020-06-06T08:05:00	0.2152	10.369	191.0	0.518316320	0.623389603	0.009302110	0.095968150	0.029578316
2020-06-06T08:10:00	0.2165	10.381	191.0	0.522711952	0.629542204	0.009446954	0.097462478	0.030038882
2020-06-06T08:15:00	0.2166	10.393	191.0	0.523010899	0.629961211	0.009456845	0.097564528	0.030070335
2020-06-06T08:20:00	0.2153	10.410	191.0	0.518531158	0.623689949	0.009309163	0.096040917	0.029600743
2020-06-06T08:25:00	0.2151	10.423	191.0	0.518147319	0.623153364	0.009296563	0.095910928	0.029560679
2020-06-06T08:30:00	0.2147	10.428	192.0	0.516738344	0.621184717	0.009250386	0.095434529	0.029413849
2020-06-06T08:35:00	0.2143	10.434	192.0	0.515328791	0.619216870	0.009204306	0.094959123	0.029267324
2020-06-06T08:40:00	0.2152	10.442	192.0	0.518362168	0.623453695	0.009303615	0.095983676	0.029583101
2020-06-06T08:45:00	0.2156	10.451	192.0	0.519686013	0.625305092	0.009347123	0.096432545	0.029721447
2020-06-06T08:50:00	0.2153	10.461	192.0	0.518619248	0.623813111	0.009312056	0.096070761	0.029609942
2020-06-06T08:55:00	0.2147	10.468	192.0	0.516526995	0.620889554	0.009243469	0.095363170	0.029391855
2020-06-06T09:00:00	0.2164	10.475	192.0	0.522289974	0.628950878	0.009433000	0.097318521	0.029994513
2020-06-06T09:05:00	0.2161	10.483	191.0	0.521565303	0.627935720	0.009409061	0.097071549	0.029918394
2020-06-06T09:10:00	0.2169	10.491	192.0	0.524252195	0.631701803	0.009497973	0.097988836	0.030201111
2020-06-06T09:15:00	0.2175	10.500	192.0	0.526255450	0.634513481	0.009564536	0.098675553	0.030412764
2020-06-06T09:20:00	0.2174	10.517	192.0	0.525872473	0.633975699	0.009551792	0.098544082	0.030372243
2020-06-06T09:25:00	0.2179	10.526	192.0	0.527534125	0.636309876	0.009607145	0.099115144	0.030548250
2020-06-06T09:30:00	0.2167	10.537	192.0	0.523401380	0.630508624	0.009469773	0.097697905	0.030111443
2020-06-06T09:35:00	0.2170	10.549	192.0	0.524382314	0.631884332	0.009502289	0.098033368	0.030214836
2020-06-06T09:40:00	0.2163	10.560	192.0	0.521952354	0.628477869	0.009421843	0.097203419	0.029959038
2020-06-06T09:45:00	0.2162	10.568	192.0	0.521910149	0.628418746	0.009420449	0.097189035	0.029954605
2020-06-06T09:50:00	0.2175	10.578	192.0	0.526301192	0.634577719	0.009566058	0.098691262	0.030417605
2020-06-06T09:55:00	0.2169	10.587	192.0	0.524213611	0.631647680	0.009496693	0.097975633	0.030197042
2020-06-06T10:00:00	0.2162	10.596	192.0	0.521783532	0.628241382	0.009416267	0.097145890	0.029941307
2020-06-06T10:05:00	0.2166	10.608	192.0	0.523151302	0.630158028	0.009461493	0.097612475	0.030085113
2020-06-06T10:10:00	0.2164	10.618	192.0	0.522472064	0.629206027	0.009439020	0.097380628	0.030013655
2020-06-06T10:15:00	0.2167	10.627	192.0	0.523498501	0.630644796	0.009472990	0.097731093	0.030121672
2020-06-06T10:20:00	0.2165	10.637	192.0	0.522819331	0.629692700	0.009450506	0.097499127	0.030050178
2020-06-06T10:25:00	0.2164	10.647	193.0	0.522481223	0.629218861	0.009439323	0.097383752	0.030014618
2020-06-06T10:30:00	0.2164	10.656	192.0	0.522484276	0.629223139	0.009439424	0.097384793	0.030014939
2020-06-06T10:35:00	0.2171	10.667	193.0	0.524874742	0.632575232	0.009518634	0.098201988	0.030266806
2020-06-06T10:40:00	0.2181	10.675	192.0	0.528285510	0.637366106	0.009632228	0.099373917	0.030628006
2020-06-06T10:45:00	0.2179	10.683	193.0	0.527607284	0.636412696	0.009609586	0.099140324	0.030556011
2020-06-06T10:50:00	0.2185	10.695	193.0	0.529653746	0.639290634	0.009677987	0.099846003	0.030773508
2020-06-06T10:55:00	0.2190	10.705	193.0	0.531358711	0.641690927	0.009735160	0.100435847	0.030955304
2020-06-06T11:00:00	0.2184	10.715	193.0	0.529319355	0.638820147	0.009666793	0.099730524	0.030737916
2020-06-06T11:05:00	0.2177	10.728	193.0	0.526938072	0.635472321	0.009587271	0.098910107	0.030485055
2020-06-06T11:10:00	0.2178	10.741	193.0	0.527281840	0.635955337	0.009598731	0.099028334	0.030521494
2020-06-06T11:15:00	0.2178	10.753	193.0	0.527284888	0.635959621	0.009598832	0.099029382	0.030521817
2020-06-06T11:20:00	0.2183	10.765	193.0	0.528991025	0.638358277	0.009655809	0.099617202	0.030702989
2020-06-06T11:25:00	0.2196	10.775	193.0	0.533418165	0.644593435	0.009804446	0.101150661	0.031175616
2020-06-06T11:30:00	0.2201	10.782	193.0	0.535121271	0.646996334	0.009861931	0.101743719	0.031358402
2020-06-06T11:35:00	0.2203	10.791	193.0	0.535804103	0.647960401	0.009885026	0.101981987	0.031431839
2020-06-06T11:40:00	0.2190	10.802	193.0	0.531386115	0.641729527	0.009736080	0.100445342	0.030958230
2020-06-06T11:45:00	0.2193	10.812	193.0	0.532409900	0.643171997	0.009770494	0.100800384	0.031067657
2020-06-06T11:50:00	0.2201	10.822	193.0	0.535133438	0.647013508	0.009862342	0.101747962	0.031359710
2020-06-06T11:55:00	0.2209	10.830	193.0	0.537854830	0.650858035	0.009954550	0.102699256	0.031652908
2020-06-06T12:00:00	0.2208	10.841	193.0	0.537518192	0.650382138	0.009943120	0.102581339	0.031616565
2020-06-06T12:05:00	0.2210	10.852	193.0	0.538200551	0.651346871	0.009966295	0.102820427	0.031690254
2020-06-06T12:10:00	0.2194	10.879	193.0	0.532765297	0.643672937	0.009782455	0.100923781	0.031105690
2020-06-06T12:15:00	0.2183	10.904	193.0	0.529024542	0.638405422	0.009656930	0.099628768	0.030706554
2020-06-06T12:20:00	0.2186	10.922	193.0	0.530049027	0.639846910	0.009691227	0.099982598	0.030815608
2020-06-06T12:25:00	0.2194	10.936	193.0	0.532774428	0.643685809	0.009782762	0.100926953	0.031106667
2020-06-06T12:30:00	0.2169	10.946	194.0	0.524262971	0.631716919	0.009498330	0.097992524	0.030202248
2020-06-06T12:35:00	0.2166	10.962	194.0	0.523242867	0.630286391	0.009464524	0.097643751	0.030094752
2020-06-06T12:40:00	0.2170	10.974	194.0	0.524610057	0.632203843	0.009509847	0.098111335	0.030238866
2020-06-06T12:45:00	0.2161	10.988	194.0	0.521543039	0.627904537	0.009408326	0.097063967	0.029916057
2020-06-06T12:50:00	0.2169	10.999	194.0	0.524275176	0.631734039	0.009498735	0.097996700	0.030203535
2020-06-06T12:55:00	0.2179	11.003	194.0	0.527686538	0.636524086	0.009612230	0.099167606	0.030564419
2020-06-06T13:00:00	0.2178	11.008	194.0	0.527348907	0.636049582	0.009600967	0.099051407	0.030528606
2020-06-06T13:05:00	0.2174	11.011	194.0	0.525988903	0.634139179	0.009555666	0.098584042	0.030384559
2020-06-06T13:10:00	0.2177	11.015	194.0	0.527014292	0.635579407	0.009589811	0.098936314	0.030493133
2020-06-06T13:15:00	0.2167	11.022	194.0	0.523608367	0.630798847	0.009476630	0.097768643	0.030133245
2020-06-06T13:20:00	0.2172	11.027	194.0	0.525316326	0.633194963	0.009533302	0.098353321	0.030313449
2020-06-06T13:25:00	0.2159	11.031	194.0	0.520884862	0.626982909	0.009386611	0.096839939	0.029847010
2020-06-06T13:30:00	0.2152	11.039	194.0	0.518497732	0.623643216	0.009308065	0.096029593	0.029597253
2020-06-06T13:35:00	0.2149	11.047	194.0	0.517475915	0.622215064	0.009274545	0.095683766	0.029490666
2020-06-06T13:40:00	0.2153	11.061	195.0	0.518845401	0.624129332	0.009319484	0.096147402	0.029633563
2020-06-06T13:45:00	0.2148	11.075	194.0	0.516798612	0.621268890	0.009252359	0.095454882	0.029420122
2020-06-06T13:50:00	0.2143	11.087	195.0	0.515092531	0.618887190	0.009196593	0.094879555	0.029242800
2020-06-06T13:55:00	0.2135	11.102	195.0	0.512359198	0.615076345	0.009107602	0.093961447	0.028959830
2020-06-06T14:00:00	0.2137	11.118	195.0	0.513046562	0.616034108	0.009129940	0.094191907	0.029030861
2020-06-06T14:05:00	0.2136	11.129	195.0	0.512707489	0.615561602	0.009118917	0.094078187	0.028995811
2020-06-06T14:10:00	0.2139	11.148	195.0	0.513736849	0.616996327	0.009152401	0.094423632	0.029102280
2020-06-06T14:15:00	0.2134	11.161	195.0	0.512029243	0.614616728	0.009096888	0.093850919	0.028925765
2020-06-06T14:20:00	0.2142	11.177	195.0	0.514768959	0.618435747	0.009186036	0.094770636	0.029209231
2020-06-06T14:25:00	0.2141	11.193	195.0	0.514430057	0.617963006	0.009174985	0.094656624	0.029174091
2020-06-06T14:30:00	0.2154	11.203	195.0	0.518875961	0.624172066	0.009320488	0.096157761	0.029636756
2020-06-06T14:35:00	0.2144	11.220	196.0	0.515461958	0.619402713	0.009208654	0.095003986	0.029281151
2020-06-06T14:40:00	0.2140	11.245	195.0	0.514097241	0.617498846	0.009164138	0.094544727	0.029139603
2020-06-06T14:45:00	0.2131	11.265	195.0	0.511020812	0.613212555	0.009064185	0.093513521	0.028821775
2020-06-06T14:50:00	0.2139	11.286	195.0	0.513761333	0.617030464	0.009153198	0.094431857	0.029104815
2020-06-06T14:55:00	0.2141	11.298	195.0	0.514448416	0.617988614	0.009175583	0.094662799	0.029175994
2020-06-06T15:00:00	0.2144	11.307	195.0	0.515477253	0.619424059	0.009209154	0.095009140	0.029282740
2020-06-06T15:05:00	0.2129	11.326	195.0	0.510348359	0.612276666	0.009042409	0.093288871	0.028752536
2020-06-06T15:10:00	0.2130	11.351	196.0	0.510693792	0.612757378	0.009053592	0.093404238	0.028788093
2020-06-06T15:15:00	0.2132	11.372	196.0	0.511381490	0.613714681	0.009075875	0.093634126	0.028858947
2020-06-06T15:20:00	0.2122	11.399	196.0	0.507960011	0.608955624	0.008965282	0.092493165	0.028507292
2020-06-06T15:25:00	0.2117	11.431	196.0	0.506249521	0.606579985	0.008910248	0.091925388	0.028332297
2020-06-06T15:30:00	0.2116	11.464	196.0	0.505909774	0.606108404	0.008899337	0.091812821	0.028297603
2020-06-06T15:35:00	0.2127	11.489	196.0	0.509681903	0.611349483	0.009020854	0.093066490	0.028683996
2020-06-06T15:40:00	0.2117	11.510	197.0	0.506258722	0.606592759	0.008910544	0.091928438	0.028333237
2020-06-06T15:45:00	0.2123	11.517	196.0	0.508317946	0.609453047	0.008976820	0.092612198	0.028543979
2020-06-06T15:50:00	0.2116	11.526	196.0	0.505922044	0.606125434	0.008899731	0.091816885	0.028298856
2020-06-06T15:55:00	0.2119	11.524	196.0	0.506953446	0.607557356	0.008932876	0.092158836	0.028404248
2020-06-06T16:00:00	0.2123	11.529	196.0	0.508327143	0.609465828	0.008977117	0.092615258	0.028544922
2020-06-06T16:05:00	0.2127	11.534	196.0	0.509754900	0.611451020	0.009023214	0.093090835	0.028691499
2020-06-06T16:10:00	0.2124	11.531	196.0	0.508785100	0.610102405	0.008991890	0.092767668	0.028591896
2020-06-06T16:15:00	0.2123	11.533	197.0	0.508500237	0.609706416	0.008982699	0.092672849	0.028562672
2020-06-06T16:20:00	0.2110	11.530	197.0	0.504101676	0.603600260	0.008841382	0.091214908	0.028113321
2020-06-06T16:25:00	0.2101	11.523	196.0	0.500727655	0.598926950	0.008733739	0.090104377	0.027771044
2020-06-06T16:30:00	0.2107	11.517	196.0	0.502844937	0.601858496	0.008801211	0.090800470	0.027985587
2020-06-06T16:35:00	0.2099	11.508	196.0	0.500156560	0.598136841	0.008715584	0.089917076	0.027713316
2020-06-06T16:40:00	0.2095	11.499	196.0	0.498840508	0.596317082	0.008673819	0.089486194	0.027580514
2020-06-06T16:45:00	0.2094	11.493	197.0	0.498554814	0.595922225	0.008664766	0.089392793	0.027551727
2020-06-06T16:50:00	0.2097	11.491	197.0	0.499643217	0.597426854	0.008699281	0.089748882	0.027661477
2020-06-06T16:55:00	0.2090	11.492	197.0	0.496952315	0.593708633	0.008614072	0.088869790	0.027390532
2020-06-06T17:00:00	0.2103	11.493	196.0	0.501475722	0.599962296	0.008757548	0.090350011	0.027846751
2020-06-06T17:05:00	0.2119	11.497	196.0	0.507021455	0.607651805	0.008935064	0.092181406	0.028411205
2020-06-06T17:10:00	0.2137	11.501	197.0	0.513242472	0.616307156	0.009136312	0.094257644	0.029051121
2020-06-06T17:15:00	0.2130	11.507	196.0	0.510904610	0.613050804	0.009060420	0.093474681	0.028809805
2020-06-06T17:20:00	0.2122	11.510	196.0	0.508222568	0.609320489	0.008973745	0.092580472	0.028534201
2020-06-06T17:25:00	0.2130	11.510	196.0	0.510677584	0.612734820	0.009053067	0.093398823	0.028786424
2020-06-06T17:30:00	0.2117	11.510	197.0	0.506281824	0.606624828	0.008911286	0.091936094	0.028335597
2020-06-06T17:35:00	0.2118	11.511	197.0	0.506682328	0.607180873	0.008924158	0.092068888	0.028376526
2020-06-06T17:40:00	0.2108	11.503	197.0	0.503310857	0.602504085	0.008816093	0.090954008	0.028032909
2020-06-06T17:45:00	0.2101	11.497	197.0	0.500966193	0.599257044	0.008741328	0.090182666	0.027795174
2020-06-06T17:50:00	0.2093	11.490	197.0	0.498276335	0.595537404	0.008655946	0.089301797	0.027523681
2020-06-06T17:55:00	0.2092	11.483	197.0	0.497646950	0.594667904	0.008636028	0.089096308	0.027460347
2020-06-06T18:00:00	0.2089	11.473	197.0	0.496673705	0.593323989	0.008605273	0.088779017	0.027362555
2020-06-06T18:05:00	0.2081	11.464	197.0	0.493980456	0.589608949	0.008520450	0.087903916	0.027092841
2020-06-06T18:10:00	0.2081	11.455	197.0	0.494038398	0.589688813	0.008522271	0.087922698	0.027098629
2020-06-06T18:15:00	0.2073	11.445	197.0	0.491343063	0.585976595	0.008437792	0.087051141	0.026830007
2020-06-06T18:20:00	0.2074	11.434	197.0	0.491745325	0.586530252	0.008450373	0.087180942	0.026870013
2020-06-06T18:25:00	0.2077	11.423	197.0	0.492491741	0.587557928	0.008473743	0.087422047	0.026944324
2020-06-06T18:30:00	0.2075	11.411	197.0	0.491861285	0.586689877	0.008454002	0.087218377	0.026881551
2020-06-06T18:35:00	0.2083	11.399	196.0	0.494672074	0.590562404	0.008542193	0.088128228	0.027161976
2020-06-06T18:40:00	0.2083	11.387	196.0	0.494730004	0.590642284	0.008544015	0.088147029	0.027167770
2020-06-06T18:45:00	0.2083	11.375	196.0	0.494787934	0.590722164	0.008545838	0.088165832	0.027173566
2020-06-06T18:50:00	0.2088	11.362	196.0	0.496565151	0.593174138	0.008601846	0.088743662	0.027351658
2020-06-06T18:55:00	0.2094	11.349	196.0	0.498341443	0.595627368	0.008658007	0.089323067	0.027530237
2020-06-06T19:00:00	0.2097	11.336	196.0	0.499429913	0.597131904	0.008692512	0.089679041	0.027639951
2020-06-06T19:05:00	0.2100	11.322	196.0	0.500518037	0.598636913	0.008727073	0.090035606	0.027749848
2020-06-06T19:10:00	0.2105	11.308	196.0	0.502292271	0.601092938	0.008783574	0.090618514	0.027929506
2020-06-06T19:15:00	0.2097	11.293	196.0	0.499603459	0.597371876	0.008698019	0.089735863	0.027657464
2020-06-06T19:20:00	0.2109	11.279	196.0	0.503780327	0.603154769	0.008831102	0.091108846	0.028080631
2020-06-06T19:25:00	0.2118	11.263	196.0	0.506581314	0.607040616	0.008920910	0.092035386	0.028366200
2020-06-06T19:30:00	0.2125	11.249	196.0	0.509037507	0.610453333	0.009000037	0.092851724	0.028617803
2020-06-06T19:35:00	0.2123	11.233	196.0	0.508410102	0.609581132	0.008979792	0.092642858	0.028553428
2020-06-06T19:40:00	0.2134	11.218	195.0	0.512234049	0.614902006	0.009103537	0.093919517	0.028946907
2020-06-06T19:45:00	0.2124	11.203	195.0	0.508868048	0.610217724	0.008994567	0.092795287	0.028600409
2020-06-06T19:50:00	0.2120	11.187	196.0	0.507555348	0.608393389	0.008952247	0.092358684	0.028465843
2020-06-06T19:55:00	0.2128	11.172	195.0	0.510010842	0.611807063	0.009031490	0.093176216	0.028717815
2020-06-06T20:00:00	0.2133	11.157	196.0	0.511780158	0.614269817	0.009088805	0.093767524	0.028900062
2020-06-06T20:05:00	0.2142	11.141	195.0	0.514916555	0.618641660	0.009190851	0.094820312	0.029224541
2020-06-06T20:10:00	0.2138	11.125	196.0	0.513606171	0.616814141	0.009148147	0.094379743	0.029088753
2020-06-06T20:15:00	0.2133	11.107	195.0	0.511953078	0.614510644	0.009094416	0.093825415	0.028917904
2020-06-06T20:20:00	0.2137	11.089	195.0	0.513037223	0.616021093	0.009129636	0.094188774	0.029029895
2020-06-06T20:25:00	0.2135	11.072	195.0	0.512410550	0.615147886	0.009109270	0.093978655	0.028965134
2020-06-06T20:30:00	0.2134	11.054	195.0	0.512125989	0.614751483	0.009100029	0.093883320	0.028935751
2020-06-06T20:35:00	0.2129	11.037	195.0	0.510472181	0.612448968	0.009046417	0.093330216	0.028765279
2020-06-06T20:40:00	0.2120	11.021	195.0	0.507447140	0.608243068	0.008948763	0.092322740	0.028454765
2020-06-06T20:45:00	0.2114	11.003	195.0	0.505448208	0.605467882	0.008884525	0.091660002	0.028250503
2020-06-06T20:50:00	0.2124	10.985	195.0	0.508590409	0.609831757	0.008985608	0.092702858	0.028571921
2020-06-06T20:55:00	0.2132	10.967	195.0	0.511387460	0.613722993	0.009076068	0.093636123	0.028859562
2020-06-06T21:00:00	0.2125	10.947	195.0	0.509048331	0.610468382	0.009000387	0.092855329	0.028618914
2020-06-06T21:05:00	0.2126	10.928	194.0	0.509448511	0.611024871	0.009013312	0.092988676	0.028660013
2020-06-06T21:10:00	0.2126	10.911	195.0	0.509506192	0.611105091	0.009015176	0.093007904	0.028665939
2020-06-06T21:15:00	0.2131	10.893	194.0	0.511275768	0.613567487	0.009072447	0.093598766	0.028848049
2020-06-06T21:20:00	0.2138	10.874	194.0	0.513386531	0.616507956	0.009140999	0.094305997	0.029066024
2020-06-06T21:25:00	0.2138	10.855	194.0	0.513444145	0.616588268	0.009142873	0.094325339	0.029071985
2020-06-06T21:30:00	0.2133	10.838	194.0	0.511790973	0.614284878	0.009089156	0.093771145	0.028901177
2020-06-06T21:35:00	0.2126	10.822	194.0	0.509452119	0.611029888	0.009013428	0.092989879	0.028660384
2020-06-06T21:40:00	0.2126	10.808	194.0	0.509509799	0.611110109	0.009015292	0.093009107	0.028666310
2020-06-06T21:45:00	0.2127	10.794	194.0	0.509909926	0.611666672	0.009028226	0.093142546	0.028707437
2020-06-06T21:50:00	0.2129	10.780	193.0	0.510310006	0.612223299	0.009041168	0.093276066	0.028748589
2020-06-06T21:55:00	0.2129	10.765	193.0	0.510367671	0.612303539	0.009043034	0.093295319	0.028754523
2020-06-06T22:00:00	0.2131	10.753	194.0	0.511110025	0.613336746	0.009067075	0.093543345	0.028830967
2020-06-06T22:05:00	0.2132	10.738	194.0	0.511649212	0.614087463	0.009084557	0.093723698	0.028886554
2020-06-06T22:10:00	0.2142	10.723	193.0	0.514924843	0.618653223	0.009191121	0.094823101	0.029225401
2020-06-06T22:15:00	0.2138	10.709	193.0	0.513411560	0.616542846	0.009141813	0.094314399	0.029068614
2020-06-06T22:20:00	0.2141	10.695	193.0	0.514634370	0.618247995	0.009181646	0.094725350	0.029195273
2020-06-06T22:25:00	0.2147	10.680	194.0	0.516540350	0.620908204	0.009243906	0.095367679	0.029393245
2020-06-06T22:30:00	0.2149	10.664	193.0	0.517420381	0.622137471	0.009272724	0.095664989	0.029484879
2020-06-06T22:35:00	0.2159	10.648	193.0	0.520690509	0.626710828	0.009380204	0.096773835	0.029826636
2020-06-06T22:40:00	0.2164	10.632	193.0	0.522593131	0.629375683	0.009443023	0.097421931	0.030026385
2020-06-06T22:45:00	0.2147	10.617	193.0	0.516643239	0.621051891	0.009247273	0.095402415	0.029403951
2020-06-06T22:50:00	0.2151	10.603	193.0	0.517864897	0.622758629	0.009287298	0.095815341	0.029531219
2020-06-06T22:55:00	0.2156	10.587	193.0	0.519769084	0.625421315	0.009349857	0.096460747	0.029730139
2020-06-06T23:00:00	0.2149	10.570	193.0	0.517232991	0.621875664	0.009266584	0.095601642	0.029465355
2020-06-06T23:05:00	0.2170	10.556	193.0	0.524597352	0.632186016	0.009509425	0.098106984	0.030237525
2020-06-06T23:10:00	0.2173	10.541	193.0	0.525475323	0.633418141	0.009538587	0.098407839	0.030330252
2020-06-06T23:15:00	0.2164	10.527	193.0	0.522261106	0.628910430	0.009432046	0.097308676	0.029991479
2020-06-06T23:20:00	0.2158	10.515	193.0	0.520409688	0.626317753	0.009370950	0.096678362	0.029797210
2020-06-06T23:25:00	0.2146	10.503	192.0	0.516165464	0.620384737	0.009231644	0.095241168	0.029354253
2020-06-06T23:30:00	0.2149	10.491	192.0	0.517387293	0.622091240	0.009271640	0.095653802	0.029481431
2020-06-06T23:35:00	0.2167	10.480	192.0	0.523387240	0.630488799	0.009469305	0.097693074	0.030109954
2020-06-06T23:40:00	0.2160	10.469	192.0	0.521195140	0.627417340	0.009396845	0.096945518	0.029879550
2020-06-06T23:45:00	0.2150	10.461	192.0	0.517635275	0.622437739	0.009279768	0.095737659	0.029507276
2020-06-06T23:50:00	0.2146	10.451	193.0	0.516123188	0.620325712	0.009230261	0.095226906	0.029349857
2020-06-06T23:55:00	0.2142	10.442	193.0	0.514952378	0.618691640	0.009192019	0.094832370	0.029228258
2020-06-07T00:00:00	0.2137	10.433	193.0	0.513097013	0.616104421	0.009131581	0.094208834	0.029036078
2020-06-07T00:05:00	0.2125	10.425	192.0	0.509186242	0.610660147	0.009004840	0.092901273	0.028633075
2020-06-07T00:10:00	0.2139	10.417	192.0	0.513832655	0.617129906	0.009155520	0.094455816	0.029112200
2020-06-07T00:15:00	0.2123	10.409	192.0	0.508552734	0.609779387	0.008984392	0.092690320	0.028568057
2020-06-07T00:20:00	0.2118	10.400	192.0	0.506693897	0.607196937	0.008924529	0.092072726	0.028377708
2020-06-07T00:25:00	0.2114	10.393	192.0	0.505176971	0.605091562	0.008875826	0.091570258	0.028222843
2020-06-07T00:30:00	0.2100	10.386	192.0	0.500570462	0.598709447	0.008728740	0.090052803	0.027755149
2020-06-07T00:35:00	0.2091	10.379	192.0	0.497332778	0.594233993	0.008626094	0.088993822	0.027428760
2020-06-07T00:40:00	0.2084	10.372	192.0	0.495123920	0.591185521	0.008556412	0.088274928	0.027207190
2020-06-07T00:45:00	0.2098	10.366	192.0	0.499789483	0.597629128	0.008703925	0.089796790	0.027676243
2020-06-07T00:50:00	0.2099	10.361	192.0	0.500330458	0.598377400	0.008721110	0.089974089	0.027730888
2020-06-07T00:55:00	0.2083	10.356	192.0	0.494685670	0.590581152	0.008542620	0.088132640	0.027163336
2020-06-07T01:00:00	0.2071	10.349	192.0	0.490409361	0.584691990	0.008408624	0.086750228	0.026737263
2020-06-07T01:05:00	0.2079	10.344	191.0	0.493361345	0.588755776	0.008501011	0.087703361	0.027031028
2020-06-07T01:10:00	0.2072	10.338	192.0	0.490805572	0.585237020	0.008420995	0.086877855	0.026776599
2020-06-07T01:15:00	0.2069	10.332	192.0	0.489970504	0.584088442	0.008394933	0.086608972	0.026693726
2020-06-07T01:20:00	0.2062	10.327	191.0	0.487412180	0.580573124	0.008315336	0.085787792	0.026440631
2020-06-07T01:25:00	0.2054	10.320	192.0	0.484851928	0.577060398	0.008236057	0.084969879	0.026188542
2020-06-07T01:30:00	0.2047	10.313	192.0	0.482289742	0.573550264	0.008157094	0.084155237	0.025937461
2020-06-07T01:35:00	0.2046	10.306	192.0	0.481797862	0.572876999	0.008141978	0.083999289	0.025889397
2020-06-07T01:40:00	0.2050	10.299	192.0	0.483377187	0.575039397	0.008190561	0.084500513	0.026043879
2020-06-07T01:45:00	0.2062	10.293	192.0	0.487369546	0.580514587	0.008314013	0.085774140	0.026436423
2020-06-07T01:50:00	0.2060	10.287	192.0	0.486878402	0.579840335	0.008298777	0.085616948	0.026387975
2020-06-07T01:55:00	0.2060	10.282	191.0	0.486731970	0.579639349	0.008294237	0.085570109	0.026373539
2020-06-07T02:00:00	0.2039	10.277	191.0	0.479682888	0.569984314	0.008077142	0.083330381	0.025683233
2020-06-07T02:05:00	0.2049	10.271	192.0	0.482989373	0.574508221	0.008178618	0.084377297	0.026005902
2020-06-07T02:10:00	0.2059	10.266	191.0	0.486292637	0.579036440	0.008280623	0.085429658	0.026330250
2020-06-07T02:15:00	0.2042	10.260	191.0	0.480624474	0.571271696	0.008105975	0.083627852	0.025774916
2020-06-07T02:20:00	0.2042	10.256	191.0	0.480477772	0.571071071	0.008101479	0.083581470	0.025760621
2020-06-07T02:25:00	0.2038	10.252	192.0	0.479294652	0.569453704	0.008065268	0.083207880	0.025645477
2020-06-07T02:30:00	0.2039	10.248	192.0	0.479493413	0.569725339	0.008071346	0.083270584	0.025664803
2020-06-07T02:35:00	0.2030	10.245	192.0	0.476235570	0.565277002	0.007972010	0.082245759	0.025348942
2020-06-07T02:40:00	0.2029	10.242	191.0	0.476088677	0.565076631	0.007967546	0.082199699	0.025334746
2020-06-07T02:45:00	0.2024	10.239	191.0	0.474212007	0.562518237	0.007910616	0.081612362	0.025153723
2020-06-07T02:50:00	0.2021	10.238	191.0	0.473372840	0.561375139	0.007885224	0.081350404	0.025072984
2020-06-07T02:55:00	0.2028	10.237	192.0	0.475647962	0.564475569	0.007954158	0.082061583	0.025292177
2020-06-07T03:00:00	0.2031	10.236	191.0	0.476884405	0.566162263	0.007991745	0.082449364	0.025411695
2020-06-07T03:05:00	0.2019	10.236	191.0	0.472585579	0.560303256	0.007861440	0.081105026	0.024997357
2020-06-07T03:10:00	0.2013	10.237	192.0	0.470360542	0.557276455	0.007794410	0.080413493	0.024784220
2020-06-07T03:15:00	0.2015	10.239	192.0	0.471252592	0.558489472	0.007821249	0.080690388	0.024869561
2020-06-07T03:20:00	0.2016	10.239	191.0	0.471451826	0.558760478	0.007827250	0.080752295	0.024888642
2020-06-07T03:25:00	0.2021	10.240	192.0	0.473382131	0.561387793	0.007885505	0.081353302	0.025073878
2020-06-07T03:30:00	0.2015	10.241	192.0	0.471157619	0.558360297	0.007818390	0.080660886	0.024860468
2020-06-07T03:35:00	0.2016	10.243	191.0	0.471703176	0.559102420	0.007834823	0.080830429	0.024912723
2020-06-07T03:40:00	0.2023	10.245	191.0	0.473979422	0.562201359	0.007903574	0.081539716	0.025131332
2020-06-07T03:45:00	0.2024	10.246	191.0	0.474178496	0.562472578	0.007909601	0.081601894	0.025150496
2020-06-07T03:50:00	0.2026	10.249	192.0	0.475069539	0.563686930	0.007936604	0.081880484	0.025236360
2020-06-07T03:55:00	0.2038	10.252	191.0	0.479071692	0.569149035	0.008058453	0.083137569	0.025623806
2020-06-07T04:00:00	0.2043	10.256	191.0	0.480997655	0.571782123	0.008117417	0.083745894	0.025811298
2020-06-07T04:05:00	0.2033	10.260	192.0	0.477600619	0.567139844	0.008013558	0.082674401	0.025481053
2020-06-07T04:10:00	0.2027	10.265	192.0	0.475238143	0.563916783	0.007941719	0.081933252	0.025252624
2020-06-07T04:15:00	0.2029	10.269	192.0	0.475988199	0.564939582	0.007964492	0.082168200	0.025325037
2020-06-07T04:20:00	0.2017	10.274	191.0	0.471893638	0.559361562	0.007840565	0.080889660	0.024930979
2020-06-07T04:25:00	0.2002	10.280	192.0	0.466753843	0.552378482	0.007686359	0.079298748	0.024440644
2020-06-07T04:30:00	0.2009	10.284	192.0	0.469238995	0.555752264	0.007760731	0.080066028	0.024677127
2020-06-07T04:35:00	0.2014	10.288	192.0	0.471029650	0.558186255	0.007814537	0.080621142	0.024848219
2020-06-07T04:40:00	0.2022	10.293	191.0	0.473511657	0.561564195	0.007889422	0.081393709	0.025086332
2020-06-07T04:45:00	0.2019	10.297	191.0	0.472531465	0.560229596	0.007859806	0.081088173	0.024992162
2020-06-07T04:50:00	0.2035	10.301	191.0	0.478124585	0.567855279	0.008029534	0.082839226	0.025531854
2020-06-07T04:55:00	0.2027	10.305	191.0	0.475416573	0.564160055	0.007947134	0.081989113	0.025269841
2020-06-07T05:00:00	0.2045	10.308	191.0	0.481695558	0.572736995	0.008138836	0.083966872	0.025879406
2020-06-07T05:05:00	0.2039	10.312	192.0	0.479681441	0.569982335	0.008077097	0.083329924	0.025683092
2020-06-07T05:10:00	0.2041	10.315	192.0	0.480085088	0.570534134	0.008089452	0.083457382	0.025722376
2020-06-07T05:15:00	0.2039	10.319	192.0	0.479452323	0.569669182	0.008070089	0.083257619	0.025660807
2020-06-07T05:20:00	0.2045	10.323	192.0	0.481582888	0.572582813	0.008135376	0.083931178	0.025868404
2020-06-07T05:25:00	0.2049	10.326	192.0	0.483021898	0.574552765	0.008179620	0.084387628	0.026009086
2020-06-07T05:30:00	0.2055	10.330	192.0	0.485150221	0.577469394	0.008245274	0.085064974	0.026217851
2020-06-07T05:35:00	0.2055	10.334	192.0	0.485208314	0.577549055	0.008247070	0.085083500	0.026223561
2020-06-07T05:40:00	0.2057	10.338	192.0	0.485611304	0.578101733	0.008259532	0.085212069	0.026263187
2020-06-07T05:45:00	0.2050	10.342	192.0	0.483254409	0.574871220	0.008186779	0.084461495	0.026031853
2020-06-07T05:50:00	0.2043	10.348	192.0	0.480895875	0.571642901	0.008114296	0.083713692	0.025801373
2020-06-07T05:55:00	0.2046	10.353	192.0	0.481989946	0.573139892	0.008147880	0.084060171	0.025908161
2020-06-07T06:00:00	0.2043	10.359	192.0	0.481012206	0.571802028	0.008117863	0.083750499	0.025812717
2020-06-07T06:05:00	0.2039	10.364	192.0	0.479343218	0.569520074	0.008066753	0.083223199	0.025650198
2020-06-07T06:10:00	0.2051	10.374	192.0	0.483545026	0.575269318	0.008195733	0.084553866	0.026060323
2020-06-07T06:15:00	0.2061	10.382	192.0	0.487052237	0.580078958	0.008304168	0.085672568	0.026405118
2020-06-07T06:20:00	0.2068	10.387	192.0	0.489522537	0.583472526	0.008380968	0.086464901	0.026649322
2020-06-07T06:25:00	0.2079	10.394	192.0	0.493367697	0.588764529	0.008501210	0.087705418	0.027031662
2020-06-07T06:30:00	0.2074	10.400	192.0	0.491704774	0.586474433	0.008449104	0.087167852	0.026865979
2020-06-07T06:35:00	0.2075	10.408	192.0	0.491762755	0.586554244	0.008450918	0.087186568	0.026871747
2020-06-07T06:40:00	0.2081	10.417	192.0	0.493885611	0.589478227	0.008517471	0.087873177	0.027083367
2020-06-07T06:45:00	0.2072	10.426	192.0	0.490845823	0.585292396	0.008422252	0.086890826	0.026780596
2020-06-07T06:50:00	0.2068	10.437	192.0	0.489526166	0.583477514	0.008381081	0.086466068	0.026649682
2020-06-07T06:55:00	0.2081	10.444	192.0	0.494059439	0.589717815	0.008522932	0.087929518	0.027100732
2020-06-07T07:00:00	0.2084	10.458	192.0	0.495149279	0.591220496	0.008557211	0.088283165	0.027209729
2020-06-07T07:05:00	0.2073	10.482	192.0	0.491077799	0.585611569	0.008429500	0.086965599	0.026803642
2020-06-07T07:10:00	0.2069	10.516	193.0	0.489758232	0.583796566	0.008388314	0.086540688	0.026672681
2020-06-07T07:15:00	0.2073	10.522	193.0	0.491193781	0.585771164	0.008433125	0.087002996	0.026815168
2020-06-07T07:20:00	0.2071	10.532	193.0	0.490563085	0.584903438	0.008413423	0.086799734	0.026752521
2020-06-07T07:25:00	0.2089	10.551	193.0	0.496814142	0.593517865	0.008609708	0.088824767	0.027376656
2020-06-07T07:30:00	0.2081	10.572	193.0	0.494121004	0.589802676	0.008524867	0.087949477	0.027106883
2020-06-07T07:35:00	0.2079	10.587	193.0	0.493146751	0.588460125	0.008494278	0.087633899	0.027009619
2020-06-07T07:40:00	0.2068	10.599	193.0	0.489417384	0.583327972	0.008377692	0.086431100	0.026638905
2020-06-07T07:45:00	0.2074	10.612	193.0	0.491541704	0.586249981	0.008444003	0.087115226	0.026849759
2020-06-07T07:50:00	0.2078	10.621	193.0	0.492976501	0.588225593	0.008488938	0.087578810	0.026992640
2020-06-07T07:55:00	0.2079	10.629	193.0	0.493378571	0.588779511	0.008501551	0.087708939	0.027032747
2020-06-07T08:00:00	0.2076	10.638	194.0	0.492404105	0.587437247	0.008470998	0.087393722	0.026935594
2020-06-07T08:05:00	0.2072	10.647	194.0	0.490740710	0.585147787	0.008418969	0.086856956	0.026770157
2020-06-07T08:10:00	0.2080	10.654	193.0	0.493552425	0.589019064	0.008507008	0.087765236	0.027050098
2020-06-07T08:15:00	0.2076	10.661	194.0	0.492233818	0.587202766	0.008465664	0.087338696	0.026918634
2020-06-07T08:20:00	0.2084	10.672	193.0	0.495044299	0.591075708	0.008553906	0.088249069	0.027199220
2020-06-07T08:25:00	0.2095	10.679	194.0	0.498883231	0.596376135	0.008675173	0.089500166	0.027584820
2020-06-07T08:30:00	0.2085	10.689	193.0	0.495504042	0.591709853	0.008568384	0.088398436	0.027245256
2020-06-07T08:35:00	0.2087	10.698	193.0	0.495905813	0.592264174	0.008581046	0.088529071	0.027285520
2020-06-07T08:40:00	0.2077	10.704	194.0	0.492523668	0.587601896	0.008474744	0.087432367	0.026947505
2020-06-07T08:45:00	0.2076	10.710	194.0	0.492237444	0.587207758	0.008465778	0.087339867	0.026918995
2020-06-07T08:50:00	0.2075	10.717	194.0	0.491951196	0.586813653	0.008456816	0.087247408	0.026890499
2020-06-07T08:55:00	0.2067	10.726	194.0	0.489254205	0.583103668	0.008372609	0.086378660	0.026622742
2020-06-07T09:00:00	0.2052	10.730	194.0	0.484140723	0.576085538	0.008214101	0.084743363	0.026118727
2020-06-07T09:05:00	0.2049	10.736	194.0	0.482818457	0.574274161	0.008173357	0.084323022	0.025989174
2020-06-07T09:10:00	0.2043	10.743	193.0	0.480805006	0.571518609	0.008111509	0.083684946	0.025792513
2020-06-07T09:15:00	0.2037	10.749	194.0	0.478790359	0.568764657	0.008049857	0.083048892	0.025596475
2020-06-07T09:20:00	0.2021	10.754	194.0	0.473314936	0.561296284	0.007883474	0.081332343	0.025067418
2020-06-07T09:25:00	0.2022	10.760	194.0	0.473719343	0.561847072	0.007895704	0.081458519	0.025106307
2020-06-07T09:30:00	0.2023	10.765	194.0	0.474123702	0.562397923	0.007907942	0.081584777	0.025145221
2020-06-07T09:35:00	0.2020	10.771	194.0	0.472797517	0.560591769	0.007867839	0.081171048	0.025017705
2020-06-07T09:40:00	0.2019	10.778	194.0	0.472509623	0.560199865	0.007859147	0.081081371	0.024990066
2020-06-07T09:45:00	0.2014	10.787	194.0	0.470836433	0.557923497	0.007808723	0.080561153	0.024829730
2020-06-07T09:50:00	0.2015	10.797	194.0	0.471241137	0.558473891	0.007820904	0.080686829	0.024868464
2020-06-07T09:55:00	0.2021	10.807	195.0	0.473376878	0.561380638	0.007885346	0.081351663	0.025073373
2020-06-07T10:00:00	0.2021	10.810	194.0	0.473435173	0.561460029	0.007887109	0.081369848	0.025078977
2020-06-07T10:05:00	0.2020	10.815	194.0	0.473043121	0.560926156	0.007875259	0.081247591	0.025041297
2020-06-07T10:10:00	0.2019	10.825	194.0	0.472651024	0.560392343	0.007863416	0.081125410	0.025003639
2020-06-07T10:15:00	0.2029	10.829	194.0	0.476065409	0.565044893	0.007966838	0.082192404	0.025332497
2020-06-07T10:20:00	0.2029	10.834	194.0	0.476019538	0.564982326	0.007965445	0.082178024	0.025328065
2020-06-07T10:25:00	0.2033	10.845	194.0	0.477356834	0.566807048	0.008006130	0.082597769	0.025457435
2020-06-07T10:30:00	0.2028	10.854	194.0	0.475581908	0.564385496	0.007952153	0.082040892	0.025285800
2020-06-07T10:35:00	0.2032	10.862	194.0	0.477265126	0.566681868	0.008003337	0.082568950	0.025448552
2020-06-07T10:40:00	0.2018	10.871	194.0	0.472375509	0.560017323	0.007855099	0.081039612	0.024977196
2020-06-07T10:45:00	0.2031	10.881	194.0	0.476827657	0.566084824	0.007990018	0.082431547	0.025406203
2020-06-07T10:50:00	0.2037	10.889	195.0	0.478855841	0.568854118	0.008051857	0.083069528	0.025602835
2020-06-07T10:55:00	0.2036	10.902	194.0	0.478464417	0.568319410	0.008039905	0.082946213	0.025564829
2020-06-07T11:00:00	0.2030	10.919	194.0	0.476344266	0.565425282	0.007975315	0.082279851	0.025359449
2020-06-07T11:05:00	0.2022	10.933	194.0	0.473530631	0.561590036	0.007889995	0.081399629	0.025088156
2020-06-07T11:10:00	0.2032	10.947	194.0	0.476944128	0.566243765	0.007993563	0.082468118	0.025417475
2020-06-07T11:15:00	0.2036	10.956	194.0	0.478626668	0.568541039	0.008044858	0.082997318	0.025580580
2020-06-07T11:20:00	0.2036	10.962	195.0	0.478580831	0.568478426	0.008043459	0.082982879	0.025576129
2020-06-07T11:25:00	0.2042	10.974	195.0	0.480607965	0.571249118	0.008105469	0.083622632	0.025773307
2020-06-07T11:30:00	0.2055	10.982	195.0	0.485049308	0.577331022	0.008242155	0.085032797	0.026207934
2020-06-07T11:35:00	0.2043	10.987	195.0	0.480861726	0.571596191	0.008113248	0.083702889	0.025798043
2020-06-07T11:40:00	0.2042	10.992	195.0	0.480470534	0.571061174	0.008101258	0.083579182	0.025759916
2020-06-07T11:45:00	0.2053	10.998	195.0	0.484222085	0.576197041	0.008216611	0.084769261	0.026126710
2020-06-07T11:50:00	0.2050	11.002	195.0	0.483141087	0.574716005	0.008183289	0.084425489	0.026020756
2020-06-07T11:55:00	0.2042	11.004	195.0	0.480678498	0.571345581	0.008107631	0.083644935	0.025780181
2020-06-07T12:00:00	0.2045	11.008	195.0	0.481668691	0.572700228	0.008138011	0.083958360	0.025876782
2020-06-07T12:05:00	0.2043	11.009	194.0	0.480932254	0.571692661	0.008115411	0.083725201	0.025804920
2020-06-07T12:10:00	0.2036	11.010	195.0	0.478468058	0.568324382	0.008040016	0.082947360	0.025565182
2020-06-07T12:15:00	0.2032	11.012	195.0	0.477039487	0.566373904	0.007996466	0.082498066	0.025426705
2020-06-07T12:20:00	0.2029	11.015	195.0	0.475956195	0.564895930	0.007963520	0.082158168	0.025321945
2020-06-07T12:25:00	0.2022	11.020	195.0	0.473488371	0.561532480	0.007888717	0.081386444	0.025084092
2020-06-07T12:30:00	0.2019	11.025	195.0	0.472750151	0.560527286	0.007866409	0.081156290	0.025013157
2020-06-07T12:35:00	0.2024	11.030	195.0	0.474434778	0.562821785	0.007917363	0.081681974	0.025175178
2020-06-07T12:40:00	0.2024	11.033	196.0	0.474388884	0.562759248	0.007915973	0.081667631	0.025170757
2020-06-07T12:45:00	0.2021	11.038	195.0	0.473304743	0.561282403	0.007883165	0.081329164	0.025066438
2020-06-07T12:50:00	0.2014	11.044	195.0	0.470834981	0.557921523	0.007808679	0.080560702	0.024829591
2020-06-07T12:55:00	0.2003	11.047	195.0	0.466976557	0.552680632	0.007693010	0.079367362	0.024461792
2020-06-07T13:00:00	0.1998	11.049	195.0	0.465196166	0.550266315	0.007639923	0.078819678	0.024292990
2020-06-07T13:05:00	0.1991	11.052	195.0	0.462720459	0.546913281	0.007566405	0.078061205	0.024059221
2020-06-07T13:10:00	0.1981	11.056	195.0	0.459547899	0.542623545	0.007472704	0.077094513	0.023761278
2020-06-07T13:15:00	0.1976	11.059	195.0	0.457763575	0.540214391	0.007420257	0.076553423	0.023594509
2020-06-07T13:20:00	0.1980	11.060	195.0	0.459108128	0.542029541	0.007459761	0.076960980	0.023720121
2020-06-07T13:25:00	0.1978	11.059	195.0	0.458366751	0.541028503	0.007437966	0.076736125	0.023650819
2020-06-07T13:30:00	0.1971	11.059	195.0	0.455886011	0.537682064	0.007365265	0.075986080	0.023419648
2020-06-07T13:35:00	0.1967	11.061	195.0	0.454447837	0.535744239	0.007323278	0.075552908	0.023286140
2020-06-07T13:40:00	0.1967	11.062	195.0	0.454401671	0.535682061	0.007321932	0.075539023	0.023281860
2020-06-07T13:45:00	0.1958	11.063	195.0	0.451569640	0.531870998	0.007239603	0.074689654	0.023020077
2020-06-07T13:50:00	0.1952	11.066	195.0	0.449432488	0.528999219	0.007177777	0.074051806	0.022823486
2020-06-07T13:55:00	0.1955	11.065	195.0	0.450431903	0.530341726	0.007206657	0.074349754	0.022915316
2020-06-07T14:00:00	0.1960	11.066	195.0	0.452127732	0.532621521	0.007255791	0.074856661	0.023071550
2020-06-07T14:05:00	0.1963	11.065	195.0	0.453126344	0.533965071	0.007284801	0.075155950	0.023163794
2020-06-07T14:10:00	0.1960	11.064	195.0	0.452035334	0.532497248	0.007253110	0.074828999	0.023063024
2020-06-07T14:15:00	0.1962	11.064	195.0	0.452685731	0.533372165	0.007271994	0.075023824	0.023123071
2020-06-07T14:20:00	0.1960	11.064	195.0	0.451942935	0.532372978	0.007250429	0.074801341	0.023054500
2020-06-07T14:25:00	0.1964	11.064	195.0	0.453638000	0.534653766	0.007299687	0.075309522	0.023211126
2020-06-07T14:30:00	0.1970	11.064	195.0	0.455680179	0.537404622	0.007359248	0.075924009	0.023400517
2020-06-07T14:35:00	0.1973	11.066	195.0	0.456677735	0.538749547	0.007388429	0.076225062	0.023493305
2020-06-07T14:40:00	0.1979	11.067	195.0	0.458718068	0.541502812	0.007448290	0.076842637	0.023683647
2020-06-07T14:45:00	0.1970	11.069	195.0	0.455541729	0.537218022	0.007355203	0.075882273	0.023387653
2020-06-07T14:50:00	0.1978	11.069	195.0	0.458278187	0.540908950	0.007435365	0.076709285	0.023642547
2020-06-07T14:55:00	0.1981	11.067	195.0	0.459274973	0.542254883	0.007464670	0.077011628	0.023735732
2020-06-07T15:00:00	0.1989	11.064	195.0	0.462355675	0.546419639	0.007555602	0.077949752	0.024024871
2020-06-07T15:05:00	0.1984	11.064	195.0	0.460572840	0.544008534	0.007502913	0.077406169	0.023857333
2020-06-07T15:10:00	0.1971	11.063	195.0	0.456006872	0.537844989	0.007368799	0.076022538	0.023430885
2020-06-07T15:15:00	0.1966	11.061	196.0	0.454220666	0.535438293	0.007316656	0.075484596	0.023265085
2020-06-07T15:20:00	0.1962	11.061	195.0	0.452781778	0.533501398	0.007274785	0.075052616	0.023131945
2020-06-07T15:25:00	0.1969	11.059	195.0	0.455172500	0.536720460	0.007344419	0.075771021	0.023353365
2020-06-07T15:30:00	0.1970	11.059	195.0	0.455474334	0.537127195	0.007353234	0.075861960	0.023381393
2020-06-07T15:35:00	0.1965	11.060	195.0	0.453687844	0.534720868	0.007301138	0.075324491	0.023215740
2020-06-07T15:40:00	0.1961	11.058	195.0	0.452597017	0.533252808	0.007269417	0.074997235	0.023114876
2020-06-07T15:45:00	0.1973	11.054	195.0	0.456727534	0.538816708	0.007389887	0.076240107	0.023497941
2020-06-07T15:50:00	0.1999	11.050	194.0	0.465713298	0.550967317	0.007655324	0.078978566	0.024341961
2020-06-07T15:55:00	0.2004	11.046	195.0	0.467401439	0.553257170	0.007705705	0.079498340	0.024502160
2020-06-07T16:00:00	0.2010	11.044	196.0	0.469435286	0.556018954	0.007766620	0.080126787	0.024695854
2020-06-07T16:05:00	0.2014	11.047	195.0	0.470925412	0.558044497	0.007811400	0.080588776	0.024838243
2020-06-07T16:10:00	0.2006	11.050	195.0	0.468257600	0.554419361	0.007731319	0.079762592	0.024583605
2020-06-07T16:15:00	0.2014	11.050	194.0	0.470787587	0.557857076	0.007807253	0.080545991	0.024825057
2020-06-07T16:20:00	0.2009	11.048	195.0	0.469159509	0.555644280	0.007758346	0.080041431	0.024669546
2020-06-07T16:25:00	0.2010	11.044	195.0	0.469610373	0.556256860	0.007771875	0.080181002	0.024712564
2020-06-07T16:30:00	0.2008	11.038	195.0	0.468675019	0.554986194	0.007743822	0.079891583	0.024623362
2020-06-07T16:35:00	0.2003	11.032	195.0	0.467045921	0.552774745	0.007695081	0.079388737	0.024468380
2020-06-07T16:40:00	0.1987	11.025	195.0	0.461597468	0.545393932	0.007533172	0.077718348	0.023953550
2020-06-07T16:45:00	0.1975	11.019	194.0	0.457183729	0.539432039	0.007403252	0.076377990	0.023540438
2020-06-07T16:50:00	0.1980	11.014	194.0	0.459026907	0.541919852	0.007457372	0.076936330	0.023712524
2020-06-07T16:55:00	0.2004	11.009	194.0	0.467463490	0.553341381	0.007707560	0.079517477	0.024508059
2020-06-07T17:00:00	0.2014	11.004	194.0	0.471033338	0.558191270	0.007814648	0.080622287	0.024848572
2020-06-07T17:05:00	0.2019	10.997	195.0	0.472522759	0.560217746	0.007859544	0.081085462	0.024991327
2020-06-07T17:10:00	0.2034	10.992	194.0	0.477816080	0.567434013	0.008020126	0.082742159	0.025501937
2020-06-07T17:15:00	0.2038	10.987	194.0	0.479302518	0.569464453	0.008065508	0.083210361	0.025646241
2020-06-07T17:20:00	0.2042	10.982	194.0	0.480442914	0.571023404	0.008100411	0.083570452	0.025757225
2020-06-07T17:25:00	0.2026	10.977	194.0	0.475016052	0.563614019	0.007934982	0.081863748	0.025231202
2020-06-07T17:30:00	0.2027	10.972	194.0	0.475466135	0.564227632	0.007948638	0.082004633	0.025274624
2020-06-07T17:35:00	0.2038	10.967	194.0	0.479027544	0.569088713	0.008057103	0.083123651	0.025619516
2020-06-07T17:40:00	0.2038	10.961	194.0	0.479131572	0.569230855	0.008060283	0.083156450	0.025629625
2020-06-07T17:45:00	0.2042	10.955	193.0	0.480617432	0.571262065	0.008105759	0.083625625	0.025774230
2020-06-07T17:50:00	0.2044	10.949	193.0	0.481412097	0.572349115	0.008130133	0.083877085	0.025851732
2020-06-07T17:55:00	0.2057	10.943	193.0	0.485657084	0.578164527	0.008260948	0.085226680	0.026267691
2020-06-07T18:00:00	0.2071	10.937	193.0	0.490585591	0.584934397	0.008414126	0.086806983	0.026754755
2020-06-07T18:05:00	0.2057	10.930	193.0	0.485864730	0.578449360	0.008267374	0.085292970	0.026288122
2020-06-07T18:10:00	0.2074	10.924	193.0	0.491481575	0.586167223	0.008442123	0.087095825	0.026843779
2020-06-07T18:15:00	0.2080	10.917	193.0	0.493650241	0.589153855	0.008510079	0.087796918	0.027059863
2020-06-07T18:20:00	0.2084	10.909	193.0	0.495129763	0.591193580	0.008556596	0.088276826	0.027207775
2020-06-07T18:25:00	0.2101	10.903	193.0	0.500731350	0.598932062	0.008733857	0.090105589	0.027771418
2020-06-07T18:30:00	0.2105	10.896	193.0	0.502207803	0.600975954	0.008780880	0.090590720	0.027920940
2020-06-07T18:35:00	0.2093	10.890	193.0	0.498190327	0.595418565	0.008653223	0.089273702	0.027515022
2020-06-07T18:40:00	0.2112	10.883	193.0	0.504472913	0.604115014	0.008853266	0.091337512	0.028151108
2020-06-07T18:45:00	0.2107	10.876	193.0	0.502860910	0.601880627	0.008801721	0.090805731	0.027987208
2020-06-07T18:50:00	0.2100	10.868	192.0	0.500561478	0.598697017	0.008728455	0.090049856	0.027754240
2020-06-07T18:55:00	0.2101	10.861	192.0	0.501008190	0.599315165	0.008742664	0.090196454	0.027799423
2020-06-07T19:00:00	0.2106	10.853	192.0	0.502484523	0.601359220	0.008789707	0.090681789	0.027949008
2020-06-07T19:05:00	0.2129	10.845	191.0	0.510471521	0.612448051	0.009046396	0.093329996	0.028765211
2020-06-07T19:10:00	0.2161	10.838	191.0	0.521512773	0.627862149	0.009407327	0.097053659	0.029912880
2020-06-07T19:15:00	0.2175	10.831	191.0	0.526049086	0.634223686	0.009557668	0.098604700	0.030390926
2020-06-07T19:20:00	0.2185	10.824	191.0	0.529558148	0.639156119	0.009674786	0.099812983	0.030763331
2020-06-07T19:25:00	0.2177	10.817	191.0	0.526935833	0.635469177	0.009587196	0.098909337	0.030484818
2020-06-07T19:30:00	0.2176	10.811	190.0	0.526356891	0.634655945	0.009567913	0.098710391	0.030423501
2020-06-07T19:35:00	0.2176	10.803	190.0	0.526459487	0.634800040	0.009571329	0.098745632	0.030434363
2020-06-07T19:40:00	0.2184	10.796	190.0	0.529287190	0.638774896	0.009665717	0.099719419	0.030734494
2020-06-07T19:45:00	0.2180	10.790	190.0	0.528027453	0.637003301	0.009623610	0.099285005	0.030600603
2020-06-07T19:50:00	0.2180	10.783	190.0	0.527789364	0.636668616	0.009615662	0.099203009	0.030575331
2020-06-07T19:55:00	0.2192	10.776	189.0	0.531977200	0.642562237	0.009755941	0.100650250	0.031021385
2020-06-07T20:00:00	0.2203	10.769	189.0	0.535820117	0.647983014	0.009885568	0.101987578	0.031433562
2020-06-07T20:05:00	0.2203	10.762	189.0	0.535582564	0.647647576	0.009877530	0.101904652	0.031408003
2020-06-07T20:10:00	0.2206	10.754	188.0	0.536704356	0.649232017	0.009915516	0.102296550	0.031528790
2020-06-07T20:15:00	0.2209	10.747	188.0	0.537825784	0.650816970	0.009953563	0.102689079	0.031649772
2020-06-07T20:20:00	0.2223	10.740	188.0	0.542340714	0.657208472	0.010107489	0.104277098	0.032139214
2020-06-07T20:25:00	0.2227	10.733	188.0	0.543799411	0.659277019	0.010157474	0.104792790	0.032298156
2020-06-07T20:30:00	0.2229	10.726	188.0	0.544579559	0.660384044	0.010184259	0.105069123	0.032383324
2020-06-07T20:35:00	0.2235	10.719	188.0	0.546714965	0.663416723	0.010257756	0.105827378	0.032617026
2020-06-07T20:40:00	0.2236	10.713	188.0	0.546816958	0.663561666	0.010261273	0.105863663	0.032628209
2020-06-07T20:45:00	0.2231	10.705	187.0	0.545224672	0.661299833	0.010206435	0.105297904	0.032453837
2020-06-07T20:50:00	0.2237	10.698	187.0	0.547359681	0.664333076	0.010279999	0.106056850	0.032687751
2020-06-07T20:55:00	0.2245	10.691	187.0	0.549831882	0.667850040	0.010365515	0.106939106	0.032959671
2020-06-07T21:00:00	0.2249	10.684	187.0	0.551287433	0.669923059	0.010416032	0.107460280	0.033120302
2020-06-07T21:05:00	0.2244	10.678	186.0	0.549697197	0.667658308	0.010360847	0.106890945	0.032944827
2020-06-07T21:10:00	0.2243	10.671	186.0	0.549122054	0.666839723	0.010340924	0.106685410	0.032881480
2020-06-07T21:15:00	0.2246	10.666	187.0	0.550239470	0.668430359	0.010379648	0.107084917	0.033004611
2020-06-07T21:20:00	0.2245	10.660	186.0	0.550002905	0.668093523	0.010371444	0.107000275	0.032978524
2020-06-07T21:25:00	0.2234	10.654	186.0	0.546379725	0.662940372	0.010246200	0.105708156	0.032580280
2020-06-07T21:30:00	0.2240	10.648	186.0	0.548175390	0.665492954	0.010308175	0.106347544	0.032777346
2020-06-07T21:35:00	0.2243	10.643	187.0	0.549293111	0.667083156	0.010346848	0.106746519	0.032900314
2020-06-07T21:40:00	0.2245	10.636	187.0	0.550072025	0.668191935	0.010373841	0.107025003	0.032986145
2020-06-07T21:45:00	0.2239	10.630	186.0	0.547803926	0.664964691	0.010295339	0.106215115	0.032736530
2020-06-07T21:50:00	0.2241	10.625	186.0	0.548583173	0.666072995	0.010322276	0.106493016	0.032822182
2020-06-07T21:55:00	0.2246	10.620	187.0	0.550377699	0.668627197	0.010384444	0.107134390	0.033019860
2020-06-07T22:00:00	0.2243	10.614	187.0	0.549125620	0.666844797	0.010341048	0.106686684	0.032881872
2020-06-07T22:05:00	0.2238	10.608	187.0	0.547489469	0.664517589	0.010284479	0.106103076	0.032701998
2020-06-07T22:10:00	0.2237	10.603	187.0	0.547207789	0.664117156	0.010274756	0.106002765	0.032671082
2020-06-07T22:15:00	0.2232	10.597	187.0	0.545570733	0.661791234	0.010218340	0.105420733	0.032491694
2020-06-07T22:20:00	0.2229	10.591	187.0	0.544610967	0.660428623	0.010185338	0.105080256	0.032386755
2020-06-07T22:25:00	0.2230	10.585	186.0	0.545007037	0.660990845	0.010198951	0.105220694	0.032430040
2020-06-07T22:30:00	0.2227	10.580	187.0	0.543708045	0.659147403	0.010154340	0.104760452	0.032288189
2020-06-07T22:35:00	0.2225	10.574	187.0	0.543086926	0.658266441	0.010133044	0.104540745	0.032220473
2020-06-07T22:40:00	0.2222	10.568	187.0	0.542126471	0.656904805	0.010100158	0.104201465	0.032115904
2020-06-07T22:45:00	0.2215	10.563	187.0	0.539808142	0.653621218	0.010021000	0.103384812	0.031864203
2020-06-07T22:50:00	0.2204	10.558	188.0	0.536129207	0.648419536	0.009896031	0.102095527	0.031466833
2020-06-07T22:55:00	0.2197	10.552	188.0	0.533806852	0.645141623	0.009817550	0.101285856	0.031217285
2020-06-07T23:00:00	0.2198	10.547	187.0	0.533864125	0.645222409	0.009819482	0.101305785	0.031223427
2020-06-07T23:05:00	0.2194	10.541	187.0	0.532560940	0.643384879	0.009775576	0.100852818	0.031083818
2020-06-07T23:10:00	0.2193	10.535	187.0	0.532278042	0.642986167	0.009766058	0.100754621	0.031053553
2020-06-07T23:15:00	0.2197	10.529	187.0	0.533695886	0.644985108	0.009813808	0.101247250	0.031205386
2020-06-07T23:20:00	0.2191	10.524	188.0	0.531712175	0.642188839	0.009747034	0.100558349	0.030993060
2020-06-07T23:25:00	0.2179	10.518	188.0	0.527683952	0.636520453	0.009612144	0.099166716	0.030564145
2020-06-07T23:30:00	0.2176	10.513	188.0	0.526378429	0.634686195	0.009568630	0.098717789	0.030425781
2020-06-07T23:35:00	0.2156	10.507	188.0	0.519613343	0.625203427	0.009344732	0.096407878	0.029713844
2020-06-07T23:40:00	0.2157	10.501	188.0	0.520012293	0.625761613	0.009357862	0.096543336	0.029755594
2020-06-07T23:45:00	0.2160	10.496	188.0	0.521093895	0.627275575	0.009393505	0.096911060	0.029868930
2020-06-07T23:50:00	0.2154	10.491	188.0	0.519102909	0.624489447	0.009327947	0.096234706	0.029660471
2020-06-07T23:55:00	0.2141	10.485	188.0	0.514717951	0.618364589	0.009184372	0.094753472	0.029203940
2020-06-08T00:00:00	0.2135	10.480	188.0	0.512381095	0.615106851	0.009108313	0.093968784	0.028962092
2020-06-08T00:05:00	0.2132	10.475	188.0	0.511412039	0.613757215	0.009076865	0.093644345	0.028862096
2020-06-08T00:10:00	0.2130	10.470	188.0	0.510785069	0.612884417	0.009056548	0.093434734	0.028797492
2020-06-08T00:15:00	0.2134	10.465	188.0	0.512211802	0.614871016	0.009102815	0.093912064	0.028944610
2020-06-08T00:20:00	0.2134	10.460	188.0	0.512269435	0.614951300	0.009104686	0.093931372	0.028950561
2020-06-08T00:25:00	0.2140	10.454	188.0	0.514379586	0.617892612	0.009173339	0.094639651	0.029168860
2020-06-08T00:30:00	0.2134	10.449	188.0	0.512042500	0.614635192	0.009097319	0.093855359	0.028927133
2020-06-08T00:35:00	0.2137	10.444	188.0	0.513126617	0.616145680	0.009132543	0.094218767	0.029039139
2020-06-08T00:40:00	0.2142	10.439	188.0	0.514894325	0.618610645	0.009190125	0.094812829	0.029222235
2020-06-08T00:45:00	0.2141	10.434	188.0	0.514609969	0.618213958	0.009180850	0.094717141	0.029192743
2020-06-08T00:50:00	0.2127	10.429	188.0	0.509876842	0.611620649	0.009027157	0.093131510	0.028704036
2020-06-08T00:55:00	0.2122	10.425	188.0	0.508221947	0.609319627	0.008973725	0.092580266	0.028534137
2020-06-08T01:00:00	0.2112	10.420	188.0	0.504509040	0.604165114	0.008854423	0.091349447	0.028154787
2020-06-08T01:05:00	0.2105	10.415	188.0	0.502165199	0.600916951	0.008779521	0.090576703	0.027916620
2020-06-08T01:10:00	0.2094	10.409	188.0	0.498445698	0.595771434	0.008661309	0.089357132	0.027540736
2020-06-08T01:15:00	0.2096	10.403	188.0	0.499190646	0.596801096	0.008684921	0.089600730	0.027615815
2020-06-08T01:20:00	0.2101	10.397	188.0	0.500965571	0.599256183	0.008741308	0.090182462	0.027795111
2020-06-08T01:25:00	0.2105	10.389	188.0	0.502396406	0.601237168	0.008786896	0.090652784	0.027940069
2020-06-08T01:30:00	0.2100	10.381	188.0	0.500394515	0.598466019	0.008723146	0.089995094	0.027737362
2020-06-08T01:35:00	0.2101	10.375	188.0	0.500795711	0.599021122	0.008735904	0.090126709	0.027777927
2020-06-08T01:40:00	0.2091	10.367	188.0	0.497418418	0.594352265	0.008628801	0.089021753	0.027437369
2020-06-08T01:45:00	0.2094	10.360	188.0	0.498507183	0.595856401	0.008663257	0.089377225	0.027546929
2020-06-08T01:50:00	0.2098	10.353	188.0	0.499939049	0.597835983	0.008708675	0.089845791	0.027691345
2020-06-08T01:55:00	0.2104	10.346	188.0	0.502056820	0.600766863	0.008776066	0.090541051	0.027905631
2020-06-08T02:00:00	0.2090	10.339	188.0	0.496962554	0.593722770	0.008614395	0.088873127	0.027391561
2020-06-08T02:05:00	0.2079	10.332	188.0	0.493237368	0.588584966	0.008497121	0.087663228	0.027018658
2020-06-08T02:10:00	0.2082	10.326	188.0	0.494327471	0.590087291	0.008531356	0.088016428	0.027127518
2020-06-08T02:15:00	0.2089	10.319	188.0	0.496792495	0.593487980	0.008609024	0.088817714	0.027374482
2020-06-08T02:20:00	0.2084	10.314	188.0	0.495131244	0.591195621	0.008556643	0.088277307	0.027207923
2020-06-08T02:25:00	0.2092	10.307	188.0	0.497939336	0.595071798	0.008645278	0.089191740	0.027489761
2020-06-08T02:30:00	0.2094	10.302	188.0	0.498340820	0.595626508	0.008657988	0.089322864	0.027530174
2020-06-08T02:35:00	0.2093	10.295	188.0	0.498055085	0.595231709	0.008648941	0.089229534	0.027501409
2020-06-08T02:40:00	0.2091	10.289	188.0	0.497425658	0.594362265	0.008629030	0.089024115	0.027438097
2020-06-08T02:45:00	0.2092	10.283	188.0	0.497827203	0.594916893	0.008641730	0.089155135	0.027478479
2020-06-08T02:50:00	0.2098	10.277	188.0	0.499946284	0.597845990	0.008708904	0.089848162	0.027692076
2020-06-08T02:55:00	0.2100	10.272	188.0	0.500690905	0.598876098	0.008732570	0.090092318	0.027767327
2020-06-08T03:00:00	0.2107	10.266	188.0	0.502808209	0.601807613	0.008800038	0.090788372	0.027981858
2020-06-08T03:05:00	0.2111	10.261	188.0	0.504238272	0.603789650	0.008845754	0.091260010	0.028127222
2020-06-08T03:10:00	0.2116	10.256	188.0	0.506010576	0.606248310	0.008902574	0.091846212	0.028307895
2020-06-08T03:15:00	0.2116	10.249	188.0	0.506068314	0.606328451	0.008904428	0.091865341	0.028313790
2020-06-08T03:20:00	0.2120	10.243	188.0	0.507497014	0.608312351	0.008950369	0.092339306	0.028459871
2020-06-08T03:25:00	0.2129	10.237	188.0	0.510637334	0.612678803	0.009051764	0.093385377	0.028782280
2020-06-08T03:30:00	0.2132	10.230	188.0	0.511379629	0.613712090	0.009075814	0.093633503	0.028858755
2020-06-08T03:35:00	0.2137	10.224	188.0	0.513148238	0.616175815	0.009133247	0.094226022	0.029041375
2020-06-08T03:40:00	0.2142	10.218	188.0	0.514915935	0.618640795	0.009190830	0.094820103	0.029224477
2020-06-08T03:45:00	0.2137	10.212	188.0	0.513263473	0.616336428	0.009136995	0.094264692	0.029053294
2020-06-08T03:50:00	0.2143	10.205	188.0	0.515373013	0.619278582	0.009205749	0.094974020	0.029271915
2020-06-08T03:55:00	0.2142	10.201	188.0	0.514746767	0.618404787	0.009185312	0.094763168	0.029206929
2020-06-08T04:00:00	0.2152	10.198	188.0	0.518222071	0.623257853	0.009299016	0.095936236	0.029568480
2020-06-08T04:05:00	0.2164	10.196	188.0	0.522273588	0.628927919	0.009432458	0.097312933	0.029992791
2020-06-08T04:10:00	0.2172	10.194	188.0	0.525297793	0.633168949	0.009532686	0.098346967	0.030311490
2020-06-08T04:15:00	0.2175	10.197	188.0	0.526275137	0.634541127	0.009565191	0.098682314	0.030414847
2020-06-08T04:20:00	0.2178	10.199	188.0	0.527252203	0.635913692	0.009597742	0.099018138	0.030518352
2020-06-08T04:25:00	0.2175	10.200	188.0	0.526184733	0.634414170	0.009562182	0.098651270	0.030405280
2020-06-08T04:30:00	0.2178	10.202	188.0	0.527161826	0.635786699	0.009594729	0.098987051	0.030508770
2020-06-08T04:35:00	0.2180	10.203	188.0	0.527798006	0.636680764	0.009615950	0.099205984	0.030576248
2020-06-08T04:40:00	0.2182	10.202	188.0	0.528434069	0.637574993	0.009637191	0.099425121	0.030643788
2020-06-08T04:45:00	0.2181	10.204	188.0	0.528388897	0.637511475	0.009635681	0.099409550	0.030638989
2020-06-08T04:50:00	0.2187	10.205	188.0	0.530386702	0.640322218	0.009702544	0.100099360	0.030851595
2020-06-08T04:55:00	0.2189	10.206	188.0	0.531022288	0.641217115	0.009723865	0.100319321	0.030919389
2020-06-08T05:00:00	0.2190	10.206	188.0	0.531317470	0.641632838	0.009733775	0.100421559	0.030950900
2020-06-08T05:05:00	0.2193	10.208	188.0	0.532293108	0.643007399	0.009766565	0.100759850	0.031055164
2020-06-08T05:10:00	0.2193	10.210	188.0	0.532247986	0.642943810	0.009765047	0.100744192	0.031050338
2020-06-08T05:15:00	0.2187	10.211	188.0	0.530160960	0.640004455	0.009694977	0.100021295	0.030827534
2020-06-08T05:20:00	0.2194	10.214	189.0	0.532497943	0.643296087	0.009773456	0.100830947	0.031077077
2020-06-08T05:25:00	0.2202	10.219	189.0	0.535513193	0.647549629	0.009875183	0.101880442	0.031400542
2020-06-08T05:30:00	0.2195	10.223	188.0	0.533088029	0.644127923	0.009793322	0.101035903	0.031140246
2020-06-08T05:35:00	0.2198	10.227	188.0	0.534063167	0.645503186	0.009826197	0.101375059	0.031244778
2020-06-08T05:40:00	0.2197	10.231	188.0	0.533678013	0.644959901	0.009813206	0.101241033	0.031203470
2020-06-08T05:45:00	0.2196	10.235	188.0	0.533292817	0.644416677	0.009800222	0.101107081	0.031162184
2020-06-08T05:50:00	0.2199	10.239	189.0	0.534267897	0.645792021	0.009833106	0.101446338	0.031266746
2020-06-08T05:55:00	0.2198	10.243	189.0	0.533882767	0.645248704	0.009820111	0.101312272	0.031225426
2020-06-08T06:00:00	0.2194	10.247	189.0	0.532817348	0.643746312	0.009784207	0.100941860	0.031111262
2020-06-08T06:05:00	0.2201	10.252	189.0	0.535152534	0.647040465	0.009862987	0.101754622	0.031361763
2020-06-08T06:10:00	0.2204	10.257	189.0	0.536127090	0.648416546	0.009895959	0.102094787	0.031466605
2020-06-08T06:15:00	0.2209	10.259	189.0	0.537780773	0.650753334	0.009952035	0.102673309	0.031644911
2020-06-08T06:20:00	0.2213	10.263	189.0	0.539094143	0.652610823	0.009996685	0.103133952	0.031786886
2020-06-08T06:25:00	0.2213	10.271	189.0	0.539049109	0.652547109	0.009995152	0.103118140	0.031782012
2020-06-08T06:30:00	0.2218	10.277	189.0	0.540701395	0.654885866	0.010051462	0.103699085	0.031961065
2020-06-08T06:35:00	0.2228	10.285	189.0	0.544048574	0.659630525	0.010166025	0.104881005	0.032325344
2020-06-08T06:40:00	0.2230	10.293	189.0	0.545020627	0.661010139	0.010199418	0.105225515	0.032431526
2020-06-08T06:45:00	0.2231	10.300	189.0	0.545314617	0.661427544	0.010209528	0.105329821	0.032463674
2020-06-08T06:50:00	0.2228	10.308	189.0	0.544252714	0.659920192	0.010173033	0.104953308	0.032347629
2020-06-08T06:55:00	0.2230	10.317	190.0	0.544885756	0.660818673	0.010194781	0.105177680	0.032416783
2020-06-08T07:00:00	0.2231	10.328	190.0	0.545179756	0.661236061	0.010204890	0.105281967	0.032448925
2020-06-08T07:05:00	0.2234	10.348	189.0	0.546151493	0.662616125	0.010238336	0.105627028	0.032555276
2020-06-08T07:10:00	0.2238	10.388	190.0	0.547461694	0.664478100	0.010283520	0.106093182	0.032698949
2020-06-08T07:15:00	0.2241	10.393	190.0	0.548432791	0.665859072	0.010317075	0.106439357	0.032805644
2020-06-08T07:20:00	0.2237	10.407	190.0	0.547371843	0.664350365	0.010280418	0.106061181	0.032689086
2020-06-08T07:25:00	0.2238	10.426	191.0	0.547665633	0.664768053	0.010290562	0.106165835	0.032721341
2020-06-08T07:30:00	0.2237	10.448	190.0	0.547281990	0.664222634	0.010277317	0.106029184	0.032679224
2020-06-08T07:35:00	0.2234	10.452	190.0	0.546220690	0.662714427	0.010240720	0.105651622	0.032562856
2020-06-08T07:40:00	0.2233	10.466	191.0	0.545836887	0.662169235	0.010227502	0.105515250	0.032520825
2020-06-08T07:45:00	0.2241	10.498	191.0	0.548501942	0.665957439	0.010319466	0.106464030	0.032813248
2020-06-08T07:50:00	0.2239	10.506	191.0	0.547779720	0.664930272	0.010294503	0.106206489	0.032733871
2020-06-08T07:55:00	0.2240	10.501	191.0	0.548412119	0.665829666	0.010316360	0.106431982	0.032803370
2020-06-08T08:00:00	0.2239	10.505	191.0	0.548028558	0.665284129	0.010303100	0.106295188	0.032761209
2020-06-08T08:05:00	0.2244	10.530	191.0	0.549676570	0.667628946	0.010360132	0.106883571	0.032942555
2020-06-08T08:10:00	0.2237	10.553	191.0	0.547261310	0.664193237	0.010276603	0.106021821	0.032676955
2020-06-08T08:15:00	0.2244	10.585	191.0	0.549586777	0.667501129	0.010357020	0.106851470	0.032932661
2020-06-08T08:20:00	0.2240	10.601	191.0	0.548187549	0.665510247	0.010308596	0.106351880	0.032778682
2020-06-08T08:25:00	0.2248	10.646	191.0	0.550850801	0.669301018	0.010400865	0.107303805	0.033072075
2020-06-08T08:30:00	0.2247	10.677	192.0	0.550467510	0.668755098	0.010387560	0.107166541	0.033029769
2020-06-08T08:35:00	0.2239	10.707	192.0	0.548052801	0.665318606	0.010303938	0.106303831	0.032763873
2020-06-08T08:40:00	0.2245	10.731	192.0	0.550039286	0.668145322	0.010372705	0.107013290	0.032982535
2020-06-08T08:45:00	0.2249	10.758	192.0	0.551348020	0.670009385	0.010418137	0.107482001	0.033126997
2020-06-08T08:50:00	0.2254	10.773	192.0	0.552994458	0.672356446	0.010475435	0.108073132	0.033309189
2020-06-08T08:55:00	0.2246	10.811	192.0	0.550243074	0.668435490	0.010379773	0.107086207	0.033005009
2020-06-08T09:00:00	0.2237	10.876	193.0	0.547150774	0.664036114	0.010272789	0.105982467	0.032664826
2020-06-08T09:05:00	0.2235	10.910	192.0	0.546428271	0.663009347	0.010247873	0.105725416	0.032585600
2020-06-08T09:10:00	0.2232	10.971	193.0	0.545705617	0.661982793	0.010222983	0.105468628	0.032506455
2020-06-08T09:15:00	0.2237	10.994	194.0	0.547354732	0.664326040	0.010279828	0.106055087	0.032687208
2020-06-08T09:20:00	0.2231	11.067	193.0	0.545276804	0.661373854	0.010208228	0.105316403	0.032459538
2020-06-08T09:25:00	0.2229	11.095	193.0	0.544553910	0.660347641	0.010183378	0.105060032	0.032380522
2020-06-08T09:30:00	0.2224	11.097	194.0	0.542813492	0.657878718	0.010123676	0.104444098	0.032190685
2020-06-08T09:35:00	0.2221	11.112	194.0	0.541750822	0.656372453	0.010087310	0.104068919	0.032075052
2020-06-08T09:40:00	0.2229	11.129	194.0	0.544419020	0.660156200	0.010178744	0.105012229	0.032365789
2020-06-08T09:45:00	0.2222	11.121	194.0	0.542000094	0.656725696	0.010095835	0.104156864	0.032102157
2020-06-08T09:50:00	0.2223	11.106	193.0	0.542633548	0.657623593	0.010117513	0.104380520	0.032171090
2020-06-08T09:55:00	0.2218	11.127	193.0	0.540892165	0.655156037	0.010057974	0.103766265	0.031981771
2020-06-08T10:00:00	0.2216	11.152	194.0	0.540168355	0.654131120	0.010033279	0.103511487	0.031903246
2020-06-08T10:05:00	0.2206	11.195	195.0	0.536868563	0.649464031	0.009921083	0.102353979	0.031546490
2020-06-08T10:10:00	0.2206	11.250	195.0	0.536625002	0.649119901	0.009912826	0.102268803	0.031520238
2020-06-08T10:15:00	0.2215	11.323	195.0	0.539777806	0.653578280	0.010019966	0.103374147	0.031860916
2020-06-08T10:20:00	0.2211	11.340	195.0	0.538515814	0.651792723	0.009977011	0.102930985	0.031724329
2020-06-08T10:25:00	0.2216	11.369	195.0	0.539970048	0.653850393	0.010026518	0.103441739	0.031881749
2020-06-08T10:30:00	0.2222	11.394	195.0	0.542102226	0.656870442	0.010099328	0.104192908	0.032113266
2020-06-08T10:35:00	0.2215	11.402	196.0	0.539822830	0.653642007	0.010021501	0.103389975	0.031865795
2020-06-08T10:40:00	0.2217	11.404	196.0	0.540597800	0.654739164	0.010047927	0.103662612	0.031949824
2020-06-08T10:45:00	0.2217	11.392	195.0	0.540354502	0.654394664	0.010039627	0.103576980	0.031923431
2020-06-08T10:50:00	0.2219	11.381	196.0	0.541129353	0.655491988	0.010066073	0.103849823	0.032007524
2020-06-08T10:55:00	0.2222	11.380	196.0	0.542243277	0.657070360	0.010104154	0.104242697	0.032128612
2020-06-08T11:00:00	0.2224	11.381	196.0	0.542678535	0.657687373	0.010119054	0.104396413	0.032175988
2020-06-08T11:05:00	0.2228	11.385	196.0	0.544131022	0.659747513	0.010168855	0.104910204	0.032334344
2020-06-08T11:10:00	0.2230	11.391	196.0	0.544905029	0.660846032	0.010195444	0.105184515	0.032418889
2020-06-08T11:15:00	0.2238	11.397	196.0	0.547711629	0.664833453	0.010292151	0.106182224	0.032726393
2020-06-08T11:20:00	0.2236	11.408	196.0	0.546791326	0.663525239	0.010260389	0.105854543	0.032625398
2020-06-08T11:25:00	0.2240	11.419	196.0	0.548242092	0.665587822	0.010310481	0.106371332	0.032784678
2020-06-08T11:30:00	0.2240	11.429	196.0	0.548337980	0.665724209	0.010313796	0.106405534	0.032795219
2020-06-08T11:35:00	0.2233	11.441	196.0	0.545723810	0.662008633	0.010223609	0.105475089	0.032508447
2020-06-08T11:40:00	0.2237	11.456	196.0	0.547175023	0.664070581	0.010273625	0.105991099	0.032667486
2020-06-08T11:45:00	0.2236	11.466	196.0	0.546932186	0.663725427	0.010265247	0.105904665	0.032640846
2020-06-08T11:50:00	0.2235	11.478	196.0	0.546689332	0.663380298	0.010256872	0.105818259	0.032614215
2020-06-08T11:55:00	0.2228	11.498	196.0	0.544073919	0.659666487	0.010166895	0.104889981	0.032328111
2020-06-08T12:00:00	0.2221	11.521	196.0	0.541795821	0.656436217	0.010088849	0.104084792	0.032079944
2020-06-08T12:05:00	0.2209	11.555	196.0	0.537818321	0.650806419	0.009953310	0.102686464	0.031648966
2020-06-08T12:10:00	0.2201	11.615	197.0	0.535196194	0.647102097	0.009864463	0.101769849	0.031366456
2020-06-08T12:15:00	0.2201	11.659	198.0	0.534952515	0.646758132	0.009856227	0.101684877	0.031340267
2020-06-08T12:20:00	0.2202	11.690	197.0	0.535388692	0.647373850	0.009870972	0.101836999	0.031387152
2020-06-08T12:25:00	0.2204	11.711	198.0	0.536164656	0.648469606	0.009897231	0.102107911	0.031470650
2020-06-08T12:30:00	0.2201	11.745	197.0	0.534901344	0.646685908	0.009854498	0.101667038	0.031334768
2020-06-08T12:35:00	0.2201	11.811	198.0	0.534997602	0.646821771	0.009857751	0.101700596	0.031345111
2020-06-08T12:40:00	0.2199	11.883	198.0	0.534413928	0.645998062	0.009838035	0.101497195	0.031282421
2020-06-08T12:45:00	0.2204	11.926	199.0	0.536209727	0.648533267	0.009898758	0.102123658	0.031475503
2020-06-08T12:50:00	0.2206	11.937	199.0	0.536645745	0.649149208	0.009913529	0.102276056	0.031522474
2020-06-08T12:55:00	0.2210	11.925	199.0	0.538100766	0.651205769	0.009962904	0.102785446	0.031679473
2020-06-08T13:00:00	0.2207	11.909	199.0	0.537177905	0.649901175	0.009931573	0.102462212	0.031579849
2020-06-08T13:05:00	0.2204	11.896	198.0	0.535914964	0.648116956	0.009888778	0.102020697	0.031443770
2020-06-08T13:10:00	0.2199	11.889	198.0	0.534311568	0.645853636	0.009834580	0.101461545	0.031271434
2020-06-08T13:15:00	0.2204	11.888	199.0	0.536107421	0.648388766	0.009895293	0.102087916	0.031464487
2020-06-08T13:20:00	0.2202	11.896	199.0	0.535523934	0.647564794	0.009875546	0.101884190	0.031401697
2020-06-08T13:25:00	0.2192	11.912	199.0	0.531879470	0.642424537	0.009752656	0.100616356	0.031010938
2020-06-08T13:30:00	0.2193	11.924	198.0	0.532316035	0.643039710	0.009767336	0.100767806	0.031057617
2020-06-08T13:35:00	0.2197	11.930	199.0	0.533772881	0.645093707	0.009816405	0.101274037	0.031213642
2020-06-08T13:40:00	0.2187	11.928	199.0	0.530126567	0.639956046	0.009693825	0.100009404	0.030823869
2020-06-08T13:45:00	0.2184	11.923	198.0	0.529201572	0.638654448	0.009662852	0.099689864	0.030725384
2020-06-08T13:50:00	0.2187	11.921	199.0	0.530319347	0.640227403	0.009700286	0.100076064	0.030844415
2020-06-08T13:55:00	0.2185	11.915	198.0	0.529734881	0.639404803	0.009680703	0.099874033	0.030782147
2020-06-08T14:00:00	0.2187	11.909	199.0	0.530171717	0.640019596	0.009695338	0.100025014	0.030828681
2020-06-08T14:05:00	0.2189	11.910	199.0	0.530948855	0.641113705	0.009721400	0.100293895	0.030911553
2020-06-08T14:10:00	0.2186	11.915	198.0	0.530024080	0.639811799	0.009690391	0.099973974	0.030812950
2020-06-08T14:15:00	0.2188	11.917	198.0	0.530460880	0.640426642	0.009705031	0.100125019	0.030859503
2020-06-08T14:20:00	0.2188	11.918	199.0	0.530557262	0.640562332	0.009708263	0.100158363	0.030869780
2020-06-08T14:25:00	0.2181	11.921	199.0	0.528270233	0.637344627	0.009631717	0.099368653	0.030626384
2020-06-08T14:30:00	0.2175	11.923	198.0	0.526322499	0.634607643	0.009566768	0.098698579	0.030419861
2020-06-08T14:35:00	0.2177	11.924	199.0	0.526759768	0.635221831	0.009581330	0.098848813	0.030466164
2020-06-08T14:40:00	0.2177	11.924	199.0	0.526856254	0.635357376	0.009584544	0.098881979	0.030476386
2020-06-08T14:45:00	0.2172	11.925	198.0	0.525248640	0.633099960	0.009531053	0.098330117	0.030306297
2020-06-08T14:50:00	0.2168	11.924	199.0	0.523640275	0.630843590	0.009477687	0.097779550	0.030136607
2020-06-08T14:55:00	0.2168	11.923	198.0	0.523736849	0.630979013	0.009480887	0.097812565	0.030146782
2020-06-08T15:00:00	0.2164	11.925	199.0	0.522468973	0.629201695	0.009438918	0.097379573	0.030013330
2020-06-08T15:05:00	0.2169	11.925	199.0	0.524271005	0.631728188	0.009498597	0.097995273	0.030203095
2020-06-08T15:10:00	0.2172	11.927	198.0	0.525049475	0.632820438	0.009524436	0.098261856	0.030285258
2020-06-08T15:15:00	0.2168	11.927	199.0	0.523782083	0.631042447	0.009482386	0.097828031	0.030151549
2020-06-08T15:20:00	0.2165	11.930	199.0	0.522855381	0.629743227	0.009451699	0.097511433	0.030053971
2020-06-08T15:25:00	0.2167	11.937	199.0	0.523293091	0.630356802	0.009466187	0.097660908	0.030100040
2020-06-08T15:30:00	0.2163	11.938	199.0	0.522025052	0.628579711	0.009424245	0.097228198	0.029966675
2020-06-08T15:35:00	0.2162	11.940	199.0	0.521780440	0.628237051	0.009416165	0.097144836	0.029940982
2020-06-08T15:40:00	0.2164	11.940	199.0	0.522559474	0.629328516	0.009441910	0.097410448	0.030022846
2020-06-08T15:45:00	0.2165	11.937	199.0	0.522656077	0.629463897	0.009445105	0.097443410	0.030033005
2020-06-08T15:50:00	0.2162	11.932	199.0	0.521729073	0.628165100	0.009414468	0.097127335	0.029935588
2020-06-08T15:55:00	0.2159	11.928	199.0	0.520801818	0.626866649	0.009383873	0.096811691	0.029838303
2020-06-08T16:00:00	0.2158	11.927	199.0	0.520215733	0.626046304	0.009364561	0.096612449	0.029776895
2020-06-08T16:05:00	0.2156	11.921	199.0	0.519732344	0.625369913	0.009348648	0.096448274	0.029726295
2020-06-08T16:10:00	0.2152	11.916	199.0	0.518224238	0.623260882	0.009299087	0.095936970	0.029568706
2020-06-08T16:15:00	0.2144	11.913	199.0	0.515690062	0.619721079	0.009216105	0.095080857	0.029304844
2020-06-08T16:20:00	0.2146	11.908	199.0	0.516231587	0.620477058	0.009233806	0.095263476	0.029361128
2020-06-08T16:25:00	0.2145	11.902	199.0	0.516089467	0.620278634	0.009229159	0.095215532	0.029346352
2020-06-08T16:30:00	0.2138	11.897	199.0	0.513553713	0.616741009	0.009146439	0.094362127	0.029083324
2020-06-08T16:35:00	0.2134	11.889	199.0	0.512042887	0.614635731	0.009097331	0.093855489	0.028927173
2020-06-08T16:40:00	0.2126	11.881	199.0	0.509504136	0.611102232	0.009015109	0.093007219	0.028665728
2020-06-08T16:45:00	0.2120	11.875	199.0	0.507306208	0.608047302	0.008944227	0.092275937	0.028440340
2020-06-08T16:50:00	0.2115	11.871	199.0	0.505792622	0.605945813	0.008895576	0.091774021	0.028285645
2020-06-08T16:55:00	0.2125	11.866	199.0	0.509076922	0.610508137	0.009001310	0.092864853	0.028621850
2020-06-08T17:00:00	0.2124	11.862	199.0	0.508591961	0.609833914	0.008985658	0.092703375	0.028572080
2020-06-08T17:05:00	0.2126	11.859	199.0	0.509477099	0.611064630	0.009014235	0.092998206	0.028662950
2020-06-08T17:10:00	0.2123	11.858	199.0	0.508307081	0.609437947	0.008976470	0.092608584	0.028542865
2020-06-08T17:15:00	0.2121	11.857	199.0	0.507822011	0.608763874	0.008960836	0.092447293	0.028493153
2020-06-08T17:20:00	0.2129	11.858	199.0	0.510419674	0.612375902	0.009044717	0.093312683	0.028759875
2020-06-08T17:25:00	0.2122	11.856	199.0	0.508222335	0.609320166	0.008973737	0.092580395	0.028534177
2020-06-08T17:30:00	0.2124	11.855	199.0	0.508765042	0.610074520	0.008991242	0.092760990	0.028589838
2020-06-08T17:35:00	0.2122	11.852	199.0	0.507937425	0.608924240	0.008964555	0.092485657	0.028504978
2020-06-08T17:40:00	0.2125	11.849	199.0	0.509165255	0.610630963	0.009004162	0.092894280	0.028630919
2020-06-08T17:45:00	0.2117	11.845	199.0	0.506281591	0.606624505	0.008911278	0.091936017	0.028335573
2020-06-08T17:50:00	0.2118	11.840	199.0	0.506824606	0.607378437	0.008928732	0.092116086	0.028391072
2020-06-08T17:55:00	0.2113	11.834	199.0	0.504967897	0.604801529	0.008869123	0.091501112	0.028201531
2020-06-08T18:00:00	0.2122	11.827	199.0	0.507910376	0.608886656	0.008963683	0.092476665	0.028502206
2020-06-08T18:05:00	0.2121	11.821	199.0	0.507767911	0.608688707	0.008959093	0.092429313	0.028487612
2020-06-08T18:10:00	0.2123	11.815	200.0	0.508310690	0.609442962	0.008976586	0.092609785	0.028543235
2020-06-08T18:15:00	0.2123	11.809	199.0	0.508510829	0.609721139	0.008983041	0.092676374	0.028563759
2020-06-08T18:20:00	0.2120	11.803	199.0	0.507340481	0.608094909	0.008945330	0.092287318	0.028443848
2020-06-08T18:25:00	0.2118	11.797	199.0	0.506855273	0.607421023	0.008929719	0.092126261	0.028394208
2020-06-08T18:30:00	0.2116	11.792	199.0	0.506027194	0.606271377	0.008903107	0.091851718	0.028309591
2020-06-08T18:35:00	0.2118	11.787	199.0	0.506570249	0.607025254	0.008920555	0.092031717	0.028365069
2020-06-08T18:40:00	0.2121	11.780	199.0	0.507798570	0.608731305	0.008960081	0.092439502	0.028490752
2020-06-08T18:45:00	0.2117	11.774	199.0	0.506285202	0.606629517	0.008911394	0.091937214	0.028335942
2020-06-08T18:50:00	0.2114	11.767	200.0	0.505456985	0.605480060	0.008884806	0.091662907	0.028251398
2020-06-08T18:55:00	0.2114	11.760	199.0	0.505314418	0.605282251	0.008880233	0.091615729	0.028236858
2020-06-08T19:00:00	0.2118	11.754	199.0	0.506543190	0.606987684	0.008919685	0.092022744	0.028362303
2020-06-08T19:05:00	0.2115	11.747	199.0	0.505715035	0.605838141	0.008893086	0.091748330	0.028277726
2020-06-08T19:10:00	0.2125	11.740	199.0	0.508999411	0.610400363	0.008998807	0.092839034	0.028613892
2020-06-08T19:15:00	0.2135	11.733	199.0	0.512622813	0.615443617	0.009116165	0.094049799	0.028987061
2020-06-08T19:20:00	0.2130	11.725	199.0	0.510769249	0.612862398	0.009056035	0.093429448	0.028795863
2020-06-08T19:25:00	0.2130	11.717	198.0	0.510969244	0.613140773	0.009062514	0.093496284	0.028816463
2020-06-08T19:30:00	0.2133	11.710	199.0	0.511853769	0.614372333	0.009091193	0.093792166	0.028907656
2020-06-08T19:35:00	0.2137	11.702	199.0	0.513080196	0.616080983	0.009131034	0.094203192	0.029034339
2020-06-08T19:40:00	0.2141	11.695	199.0	0.514648159	0.618267229	0.009182096	0.094729989	0.029196703
2020-06-08T19:45:00	0.2146	11.687	198.0	0.516215404	0.620454464	0.009233277	0.095258016	0.029359446
2020-06-08T19:50:00	0.2144	11.678	199.0	0.515731452	0.619778853	0.009217457	0.095094809	0.029309144
2020-06-08T19:55:00	0.2149	11.671	199.0	0.517298203	0.621966770	0.009268721	0.095623685	0.029472148
2020-06-08T20:00:00	0.2157	11.664	199.0	0.519888699	0.625588674	0.009353793	0.096501362	0.029742657
2020-06-08T20:05:00	0.2162	11.656	199.0	0.521794818	0.628257191	0.009416640	0.097149735	0.029942492
2020-06-08T20:10:00	0.2169	11.648	199.0	0.524040921	0.631405458	0.009490967	0.097916552	0.030178832
2020-06-08T20:15:00	0.2170	11.640	198.0	0.524581132	0.632163259	0.009508887	0.098101431	0.030235814
2020-06-08T20:20:00	0.2176	11.633	199.0	0.526484653	0.634835386	0.009572167	0.098754278	0.030437027
2020-06-08T20:25:00	0.2175	11.626	198.0	0.526342957	0.634636375	0.009567449	0.098705605	0.030422026
2020-06-08T20:30:00	0.2168	11.619	198.0	0.523814762	0.631088275	0.009483469	0.097839204	0.030154993
2020-06-08T20:35:00	0.2165	11.611	198.0	0.522649624	0.629454854	0.009444892	0.097441208	0.030032327
2020-06-08T20:40:00	0.2170	11.605	198.0	0.524554214	0.632125494	0.009507993	0.098092214	0.030232973
2020-06-08T20:45:00	0.2157	11.598	198.0	0.519976754	0.625711884	0.009356692	0.096531266	0.029751874
2020-06-08T20:50:00	0.2147	11.590	199.0	0.516760446	0.621215586	0.009251110	0.095441993	0.029416149
2020-06-08T20:55:00	0.2147	11.583	198.0	0.516618349	0.621017131	0.009246459	0.095394011	0.029401361
2020-06-08T21:00:00	0.2144	11.576	198.0	0.515450767	0.619387095	0.009208289	0.095000216	0.029279989
2020-06-08T21:05:00	0.2141	11.568	198.0	0.514624765	0.618234596	0.009181333	0.094722119	0.029194277
2020-06-08T21:10:00	0.2135	11.561	198.0	0.512430122	0.615175153	0.009109905	0.093985213	0.028967156
2020-06-08T21:15:00	0.2134	11.554	198.0	0.512287845	0.614976946	0.009105284	0.093937540	0.028952462
2020-06-08T21:20:00	0.2136	11.547	198.0	0.512829908	0.615732185	0.009122896	0.094119237	0.029008463
2020-06-08T21:25:00	0.2130	11.540	198.0	0.510976456	0.613150811	0.009062747	0.093498694	0.028817206
2020-06-08T21:30:00	0.2137	11.532	199.0	0.513229647	0.616289280	0.009135895	0.094253340	0.029049795
2020-06-08T21:35:00	0.2143	11.525	198.0	0.515139467	0.618952681	0.009198125	0.094895360	0.029247671
2020-06-08T21:40:00	0.2141	11.518	198.0	0.514655363	0.618277279	0.009182331	0.094732413	0.029197450
2020-06-08T21:45:00	0.2142	11.510	198.0	0.514855132	0.618555965	0.009188847	0.094799637	0.029218169
2020-06-08T21:50:00	0.2145	11.503	198.0	0.516080485	0.620266094	0.009228865	0.095212502	0.029345418
2020-06-08T21:55:00	0.2139	11.496	198.0	0.513886775	0.617205366	0.009157283	0.094473999	0.029117804
2020-06-08T22:00:00	0.2137	11.489	198.0	0.513060395	0.616053387	0.009130390	0.094196548	0.029032291
2020-06-08T22:05:00	0.2140	11.482	198.0	0.514138070	0.617555783	0.009165469	0.094558451	0.029143833
2020-06-08T22:10:00	0.2144	11.475	197.0	0.515557290	0.619535764	0.009211768	0.095036109	0.029291052
2020-06-08T22:15:00	0.2144	11.467	197.0	0.515608750	0.619607586	0.009213449	0.095053451	0.029296397
2020-06-08T22:20:00	0.2145	11.460	197.0	0.516002048	0.620156589	0.009226301	0.095186047	0.029337264
2020-06-08T22:25:00	0.2144	11.453	197.0	0.515711667	0.619751236	0.009216811	0.095088140	0.029307088
2020-06-08T22:30:00	0.2147	11.445	197.0	0.516788509	0.621254780	0.009252028	0.095451470	0.029419070
2020-06-08T22:35:00	0.2150	11.438	197.0	0.517523360	0.622281357	0.009276100	0.095699810	0.029495611
2020-06-08T22:40:00	0.2153	11.430	197.0	0.518599634	0.623785687	0.009311411	0.096064115	0.029607893
2020-06-08T22:45:00	0.2158	11.422	197.0	0.520358416	0.626245993	0.009369261	0.096660935	0.029791839
2020-06-08T22:50:00	0.2155	11.414	198.0	0.519385500	0.624884701	0.009337238	0.096330560	0.029690014
2020-06-08T22:55:00	0.2155	11.407	197.0	0.519436902	0.624956603	0.009338928	0.096348001	0.029695389
2020-06-08T23:00:00	0.2160	11.400	198.0	0.521195256	0.627417502	0.009396849	0.096945557	0.029879562
2020-06-08T23:05:00	0.2157	11.393	197.0	0.519881158	0.625578123	0.009353545	0.096498801	0.029741868
2020-06-08T23:10:00	0.2151	11.385	197.0	0.517883355	0.622784425	0.009287903	0.095821586	0.029533144
2020-06-08T23:15:00	0.2145	11.378	197.0	0.515884389	0.619992336	0.009222455	0.095146370	0.029325035
2020-06-08T23:20:00	0.2141	11.370	197.0	0.514568255	0.618155770	0.009179490	0.094703108	0.029188418
2020-06-08T23:25:00	0.2135	11.363	198.0	0.512567355	0.615366349	0.009114364	0.094031208	0.028981332
2020-06-08T23:30:00	0.2133	11.355	197.0	0.511934472	0.614484730	0.009093812	0.093819185	0.028915984
2020-06-08T23:35:00	0.2124	11.347	197.0	0.508904594	0.610268534	0.008995746	0.092807457	0.028604159
2020-06-08T23:40:00	0.2126	11.340	197.0	0.509298662	0.610816477	0.009008471	0.092938733	0.028644620
2020-06-08T23:45:00	0.2122	11.332	197.0	0.507979996	0.608983395	0.008965926	0.092499809	0.028509340
2020-06-08T23:50:00	0.2122	11.325	197.0	0.508031570	0.609055062	0.008967588	0.092516956	0.028514624
2020-06-08T23:55:00	0.2114	11.317	197.0	0.505341137	0.605319322	0.008881090	0.091624570	0.028239582
2020-06-09T00:00:00	0.2113	11.310	196.0	0.505049851	0.604915213	0.008871750	0.091528213	0.028209884
2020-06-09T00:05:00	0.2105	11.302	197.0	0.502357069	0.601182684	0.008785641	0.090639838	0.027936078
2020-06-09T00:10:00	0.2105	11.294	197.0	0.502408727	0.601254234	0.008787289	0.090656840	0.027941319
2020-06-09T00:15:00	0.2096	11.286	197.0	0.499026884	0.596574707	0.008679728	0.089547152	0.027599302
2020-06-09T00:20:00	0.2093	11.278	197.0	0.498047884	0.595221761	0.008648713	0.089227182	0.027500684
2020-06-09T00:25:00	0.2095	11.271	197.0	0.498786772	0.596242808	0.008672116	0.089468622	0.027575098
2020-06-09T00:30:00	0.2090	11.263	197.0	0.497120342	0.593940638	0.008619380	0.088924557	0.027407412
2020-06-09T00:35:00	0.2088	11.255	197.0	0.496484591	0.593062936	0.008599303	0.088717428	0.027343573
2020-06-09T00:40:00	0.2084	11.247	197.0	0.495160965	0.591236614	0.008557579	0.088286961	0.027210899
2020-06-09T00:45:00	0.2089	11.239	197.0	0.496588085	0.593205796	0.008602570	0.088751131	0.027353960
2020-06-09T00:50:00	0.2086	11.230	197.0	0.495608384	0.591853800	0.008571671	0.088432353	0.027255710
2020-06-09T00:55:00	0.2087	11.221	197.0	0.496003990	0.592399647	0.008584142	0.088561008	0.027295363
2020-06-09T01:00:00	0.2088	11.212	197.0	0.496399550	0.592945556	0.008596620	0.088689740	0.027335039
2020-06-09T01:05:00	0.2085	11.203	197.0	0.495419795	0.591593634	0.008565730	0.088371055	0.027236817
2020-06-09T01:10:00	0.2082	11.195	197.0	0.494439758	0.590242094	0.008534886	0.088052849	0.027138743
2020-06-09T01:15:00	0.2082	11.186	197.0	0.494491537	0.590313481	0.008536515	0.088069647	0.027143921
2020-06-09T01:20:00	0.2080	11.177	196.0	0.493511232	0.588962302	0.008505715	0.087751895	0.027045986
2020-06-09T01:25:00	0.2073	11.168	196.0	0.491153652	0.585715944	0.008431871	0.086990056	0.026811180
2020-06-09T01:30:00	0.2067	11.159	196.0	0.489138976	0.582945289	0.008369020	0.086341639	0.026611332
2020-06-09T01:35:00	0.2056	11.150	196.0	0.485399033	0.577810599	0.008252967	0.085144334	0.026242311
2020-06-09T01:40:00	0.2052	11.141	196.0	0.484071083	0.575990103	0.008211952	0.084721199	0.026111896
2020-06-09T01:45:00	0.2058	11.132	196.0	0.486192578	0.578899148	0.008277524	0.085397687	0.026320396
2020-06-09T01:50:00	0.2064	11.124	196.0	0.487968124	0.581336586	0.008332601	0.085965911	0.026495529
2020-06-09T01:55:00	0.2062	11.115	196.0	0.487330660	0.580461196	0.008312806	0.085761690	0.026432586
2020-06-09T02:00:00	0.2064	11.107	196.0	0.488071878	0.581479095	0.008335825	0.085999173	0.026505780
2020-06-09T02:05:00	0.2063	11.098	196.0	0.487779111	0.581076992	0.008326729	0.085905333	0.026476858
2020-06-09T02:10:00	0.2066	11.090	196.0	0.488864799	0.582568482	0.008360485	0.086253582	0.026584192
2020-06-09T02:15:00	0.2059	11.081	196.0	0.486503992	0.579326469	0.008287171	0.085497213	0.026351071
2020-06-09T02:20:00	0.2048	11.072	197.0	0.482761144	0.574195680	0.008171594	0.084304826	0.025983566
2020-06-09T02:25:00	0.2041	11.064	196.0	0.480050657	0.570487061	0.008088397	0.083446506	0.025719024
2020-06-09T02:30:00	0.2041	11.056	196.0	0.480102655	0.570558152	0.008089990	0.083462931	0.025724086
2020-06-09T02:35:00	0.2040	11.048	196.0	0.479809200	0.570156972	0.008081007	0.083370255	0.025695522
2020-06-09T02:40:00	0.2034	11.040	195.0	0.477787773	0.567395363	0.008019263	0.082733256	0.025499193
2020-06-09T02:45:00	0.2039	11.033	196.0	0.479567725	0.569826906	0.008073619	0.083294034	0.025672030
2020-06-09T02:50:00	0.2043	11.024	195.0	0.481001410	0.571787260	0.008117532	0.083747082	0.025811664
2020-06-09T02:55:00	0.2051	11.016	196.0	0.483815022	0.575639229	0.008204056	0.084639728	0.026086786
2020-06-09T03:00:00	0.2064	11.009	196.0	0.488005129	0.581387412	0.008333751	0.085977774	0.026499185
2020-06-09T03:05:00	0.2059	11.002	196.0	0.486333409	0.579092386	0.008281886	0.085442688	0.026334266
2020-06-09T03:10:00	0.2064	10.994	196.0	0.488108882	0.581529923	0.008336975	0.086011037	0.026509437
2020-06-09T03:15:00	0.2056	10.987	196.0	0.485402666	0.577815582	0.008253079	0.085145493	0.026242668
2020-06-09T03:20:00	0.2061	10.981	196.0	0.487178626	0.580252465	0.008308089	0.085713019	0.026417585
2020-06-09T03:25:00	0.2056	10.975	196.0	0.485506498	0.577957986	0.008256290	0.085178622	0.026252879
2020-06-09T03:30:00	0.2059	10.969	197.0	0.486248114	0.578975349	0.008279244	0.085415431	0.026325866
2020-06-09T03:35:00	0.2049	10.963	196.0	0.482850162	0.574317578	0.008174333	0.084333089	0.025992277
2020-06-09T03:40:00	0.2047	10.958	196.0	0.482211736	0.573443479	0.008154696	0.084130496	0.025929836
2020-06-09T03:45:00	0.2045	10.953	196.0	0.481573189	0.572569541	0.008135079	0.083928106	0.025867457
2020-06-09T03:50:00	0.2043	10.949	196.0	0.480934522	0.571695764	0.008115481	0.083725919	0.025805141
2020-06-09T03:55:00	0.2042	10.944	195.0	0.480641139	0.571294487	0.008106486	0.083633121	0.025776540
2020-06-09T04:00:00	0.2042	10.941	196.0	0.480693128	0.571365591	0.008108080	0.083649562	0.025781607
2020-06-09T04:05:00	0.2047	10.938	196.0	0.482419592	0.573728029	0.008161087	0.084196429	0.025950157
2020-06-09T04:10:00	0.2050	10.936	196.0	0.483455049	0.575146057	0.008192960	0.084525262	0.026051507
2020-06-09T04:15:00	0.2047	10.934	196.0	0.482419592	0.573728029	0.008161087	0.084196429	0.025950157
2020-06-09T04:20:00	0.2062	10.933	196.0	0.487593718	0.580822398	0.008320972	0.085845935	0.026458551
2020-06-09T04:25:00	0.2061	10.932	196.0	0.487249022	0.580349111	0.008310273	0.085735553	0.026424530
2020-06-09T04:30:00	0.2065	10.931	197.0	0.488627598	0.582242541	0.008353104	0.086177437	0.026560723
2020-06-09T04:35:00	0.2064	10.930	196.0	0.488283006	0.581769113	0.008342388	0.086066877	0.026526647
2020-06-09T04:40:00	0.2064	10.930	196.0	0.488283006	0.581769113	0.008342388	0.086066877	0.026526647
2020-06-09T04:45:00	0.2061	10.929	197.0	0.487249022	0.580349111	0.008310273	0.085735553	0.026424530
2020-06-09T04:50:00	0.2068	10.929	197.0	0.489661162	0.583663107	0.008385288	0.086509472	0.026663059
2020-06-09T04:55:00	0.2066	10.930	196.0	0.488972154	0.582716016	0.008363826	0.086288056	0.026594817
2020-06-09T05:00:00	0.2073	10.931	196.0	0.491383073	0.586031658	0.008439043	0.087064047	0.026833985
2020-06-09T05:05:00	0.2072	10.933	197.0	0.491038760	0.585557853	0.008428280	0.086953014	0.026799763
2020-06-09T05:10:00	0.2085	10.935	197.0	0.495512105	0.591720975	0.008568638	0.088401056	0.027246064
2020-06-09T05:15:00	0.2089	10.939	196.0	0.496887336	0.593618919	0.008612019	0.088848616	0.027384006
2020-06-09T05:20:00	0.2097	10.941	197.0	0.499636137	0.597417063	0.008699057	0.089746564	0.027660763
2020-06-09T05:25:00	0.2097	10.943	197.0	0.499636137	0.597417063	0.008699057	0.089746564	0.027660763
2020-06-09T05:30:00	0.2096	10.946	197.0	0.499292658	0.596942131	0.008688157	0.089634114	0.027626104
2020-06-09T05:35:00	0.2096	10.948	197.0	0.499292658	0.596942131	0.008688157	0.089634114	0.027626104
2020-06-09T05:40:00	0.2100	10.951	196.0	0.500666366	0.598842143	0.008731790	0.090084266	0.027764846
2020-06-09T05:45:00	0.2099	10.955	197.0	0.500322991	0.598367070	0.008720873	0.089971640	0.027730133
2020-06-09T05:50:00	0.2104	10.958	197.0	0.502039521	0.600742908	0.008775514	0.090535361	0.027903877
2020-06-09T05:55:00	0.2102	10.962	197.0	0.501353012	0.599792432	0.008753641	0.090309696	0.027834325
2020-06-09T06:00:00	0.2106	10.967	197.0	0.502725891	0.601693573	0.008797410	0.090761261	0.027973502
2020-06-09T06:05:00	0.2111	10.972	197.0	0.504441214	0.604071057	0.008852251	0.091327040	0.028147881
2020-06-09T06:10:00	0.2100	10.980	197.0	0.500666366	0.598842143	0.008731790	0.090084266	0.027764846
2020-06-09T06:15:00	0.2101	10.989	196.0	0.501009706	0.599317264	0.008742712	0.090196952	0.027799576
2020-06-09T06:20:00	0.2092	10.999	197.0	0.497918396	0.595042870	0.008644615	0.089184904	0.027487654
2020-06-09T06:25:00	0.2092	11.010	197.0	0.497918396	0.595042870	0.008644615	0.089184904	0.027487654
2020-06-09T06:30:00	0.2095	11.024	197.0	0.498949144	0.596467245	0.008677263	0.089521723	0.027591464
2020-06-09T06:35:00	0.2097	11.038	197.0	0.499636137	0.597417063	0.008699057	0.089746564	0.027660763
2020-06-09T06:40:00	0.2096	11.051	197.0	0.499292658	0.596942131	0.008688157	0.089634114	0.027626104
2020-06-09T06:45:00	0.2095	11.065	197.0	0.498949144	0.596467245	0.008677263	0.089521723	0.027591464
2020-06-09T06:50:00	0.2094	11.081	197.0	0.498605596	0.595992407	0.008666375	0.089409391	0.027556843
2020-06-09T06:55:00	0.2090	11.097	197.0	0.497231058	0.594093522	0.008622879	0.088960653	0.027418537
2020-06-09T07:00:00	0.2089	11.113	197.0	0.496887336	0.593618919	0.008612019	0.088848616	0.027384006
2020-06-09T07:05:00	0.2086	11.125	197.0	0.495855965	0.592195391	0.008579475	0.088512858	0.027280522
2020-06-09T07:10:00	0.2088	11.140	198.0	0.496543581	0.593144362	0.008601165	0.088736637	0.027349493
2020-06-09T07:15:00	0.2093	11.156	198.0	0.498262014	0.595517615	0.008655492	0.089297118	0.027522239
2020-06-09T07:20:00	0.2100	11.173	197.0	0.500666366	0.598842143	0.008731790	0.090084266	0.027764846
2020-06-09T07:25:00	0.2097	11.191	197.0	0.499636137	0.597417063	0.008699057	0.089746564	0.027660763
2020-06-09T07:30:00	0.2098	11.205	197.0	0.499979581	0.597892043	0.008709962	0.089859072	0.027695439
2020-06-09T07:35:00	0.2105	11.222	198.0	0.502382723	0.601218217	0.008786459	0.090648281	0.027938681
2020-06-09T07:40:00	0.2109	11.239	198.0	0.503755188	0.603119922	0.008830298	0.091100552	0.028078075
2020-06-09T07:45:00	0.2109	11.255	198.0	0.503755188	0.603119922	0.008830298	0.091100552	0.028078075
2020-06-09T07:50:00	0.2109	11.272	198.0	0.503755188	0.603119922	0.008830298	0.091100552	0.028078075
2020-06-09T07:55:00	0.2107	11.292	198.0	0.503069025	0.602168975	0.008808367	0.090874299	0.028008341
2020-06-09T08:00:00	0.2100	11.313	197.0	0.500666366	0.598842143	0.008731790	0.090084266	0.027764846
2020-06-09T08:05:00	0.2096	11.336	198.0	0.499292658	0.596942131	0.008688157	0.089634114	0.027626104
2020-06-09T08:10:00	0.2101	11.357	198.0	0.501009706	0.599317264	0.008742712	0.090196952	0.027799576
2020-06-09T08:15:00	0.2101	11.382	197.0	0.501009706	0.599317264	0.008742712	0.090196952	0.027799576
2020-06-09T08:20:00	0.2097	11.405	198.0	0.499636137	0.597417063	0.008699057	0.089746564	0.027660763
2020-06-09T08:25:00	0.2096	11.429	198.0	0.499292658	0.596942131	0.008688157	0.089634114	0.027626104
2020-06-09T08:30:00	0.2095	11.446	199.0	0.498949144	0.596467245	0.008677263	0.089521723	0.027591464
2020-06-09T08:35:00	0.2094	11.466	198.0	0.498605596	0.595992407	0.008666375	0.089409391	0.027556843
2020-06-09T08:40:00	0.2094	11.488	199.0	0.498605596	0.595992407	0.008666375	0.089409391	0.027556843
2020-06-09T08:45:00	0.2090	11.502	199.0	0.497231058	0.594093522	0.008622879	0.088960653	0.027418537
2020-06-09T08:50:00	0.2083	11.522	199.0	0.494824280	0.590772285	0.008546981	0.088177631	0.027177202
2020-06-09T08:55:00	0.2080	11.535	198.0	0.493792283	0.589349603	0.008514540	0.087842935	0.027074046
2020-06-09T09:00:00	0.2083	11.555	199.0	0.494824280	0.590772285	0.008546981	0.088177631	0.027177202
2020-06-09T09:05:00	0.2076	11.573	199.0	0.492415800	0.587453352	0.008471364	0.087397502	0.026936759
2020-06-09T09:10:00	0.2069	11.591	199.0	0.490005614	0.584136723	0.008396028	0.086620269	0.026697208
2020-06-09T09:15:00	0.2075	11.596	199.0	0.492071593	0.586979407	0.008460585	0.087286291	0.026902483
2020-06-09T09:20:00	0.2074	11.602	199.0	0.491727350	0.586505509	0.008449811	0.087175139	0.026868225
2020-06-09T09:25:00	0.2074	11.627	199.0	0.491727350	0.586505509	0.008449811	0.087175139	0.026868225
2020-06-09T09:30:00	0.2068	11.696	199.0	0.489661162	0.583663107	0.008385288	0.086509472	0.026663059
2020-06-09T09:35:00	0.2070	11.751	200.0	0.490350031	0.584610386	0.008406773	0.086731124	0.026731375
2020-06-09T09:40:00	0.2061	11.788	200.0	0.487249022	0.580349111	0.008310273	0.085735553	0.026424530
2020-06-09T09:45:00	0.2054	11.848	200.0	0.484835166	0.577037418	0.008235539	0.084964537	0.026186896
2020-06-09T09:50:00	0.2057	11.909	200.0	0.485869886	0.578456433	0.008267533	0.085294617	0.026288629
2020-06-09T09:55:00	0.2063	11.941	200.0	0.487938380	0.581295732	0.008331677	0.085956376	0.026492590
2020-06-09T10:00:00	0.2059	11.958	200.0	0.486559524	0.579402678	0.008288892	0.085514966	0.026356543
2020-06-09T10:05:00	0.2066	11.973	201.0	0.488770865	0.582439401	0.008357562	0.086223424	0.026574897
2020-06-09T10:10:00	0.2070	11.969	201.0	0.490292026	0.584530607	0.008404963	0.086712450	0.026725619
2020-06-09T10:15:00	0.2077	11.965	200.0	0.492500941	0.587570598	0.008474031	0.087425021	0.026945240
2020-06-09T10:20:00	0.2076	11.966	201.0	0.492299860	0.587293701	0.008467732	0.087360034	0.026925211
2020-06-09T10:25:00	0.2084	11.964	201.0	0.495195360	0.591284054	0.008558662	0.088298133	0.027214342
2020-06-09T10:30:00	0.2086	11.962	201.0	0.495682228	0.591955678	0.008573998	0.088456361	0.027263109
2020-06-09T10:35:00	0.2084	11.961	201.0	0.495137437	0.591204164	0.008556838	0.088279319	0.027208543
2020-06-09T10:40:00	0.2087	11.953	201.0	0.495968162	0.592350208	0.008583012	0.088549352	0.027291770
2020-06-09T10:45:00	0.2088	11.951	201.0	0.496454920	0.593021982	0.008598367	0.088707768	0.027340596
2020-06-09T10:50:00	0.2089	11.956	201.0	0.496597858	0.593219286	0.008602879	0.088754313	0.027354941
2020-06-09T10:55:00	0.2087	11.960	201.0	0.496053214	0.592467573	0.008585694	0.088577022	0.027300299
2020-06-09T11:00:00	0.2085	11.970	201.0	0.495508482	0.591715978	0.008568524	0.088399879	0.027245701
2020-06-09T11:05:00	0.2083	11.990	201.0	0.494619714	0.590490208	0.008540546	0.088111236	0.027156739
2020-06-09T11:10:00	0.2075	12.014	201.0	0.492009991	0.586894597	0.008458656	0.087266395	0.026896351
2020-06-09T11:15:00	0.2074	12.030	202.0	0.491464612	0.586143877	0.008441592	0.087090352	0.026842092
2020-06-09T11:20:00	0.2074	12.045	201.0	0.491607760	0.586340898	0.008446069	0.087136542	0.026856328
2020-06-09T11:25:00	0.2071	12.081	201.0	0.490717971	0.585116505	0.008418259	0.086849629	0.026767899
2020-06-09T11:30:00	0.2063	12.106	201.0	0.487760607	0.581051580	0.008326155	0.085899403	0.026475030
2020-06-09T11:35:00	0.2066	12.111	201.0	0.488937696	0.582668661	0.008362754	0.086276990	0.026591406
2020-06-09T11:40:00	0.2057	12.137	202.0	0.485633921	0.578132755	0.008260232	0.085219287	0.026265412
2020-06-09T11:45:00	0.2048	12.168	202.0	0.482672123	0.574073784	0.008168855	0.084276567	0.025974857
2020-06-09T11:50:00	0.2054	12.226	203.0	0.484541026	0.576634190	0.008226455	0.084870821	0.026158011
2020-06-09T11:55:00	0.2052	12.289	203.0	0.483994446	0.575885085	0.008209589	0.084696812	0.026104380
2020-06-09T12:00:00	0.2052	12.307	203.0	0.484137909	0.576081682	0.008214014	0.084742467	0.026118451
2020-06-09T12:05:00	0.2050	12.333	203.0	0.483246161	0.574859922	0.008186525	0.084458874	0.026031045
2020-06-09T12:10:00	0.2043	12.360	203.0	0.480973052	0.571748468	0.008116662	0.083738109	0.025808899
2020-06-09T12:15:00	0.2045	12.415	204.0	0.481461962	0.572417345	0.008131664	0.083892876	0.025856599
2020-06-09T12:20:00	0.2046	12.471	203.0	0.481950802	0.573086317	0.008146677	0.084047763	0.025904337
2020-06-09T12:25:00	0.2033	12.517	203.0	0.477603282	0.567143479	0.008013639	0.082675239	0.025481311
2020-06-09T12:30:00	0.2041	12.538	204.0	0.480165921	0.570644651	0.008091927	0.083482918	0.025730246
2020-06-09T12:35:00	0.2036	12.576	203.0	0.478582006	0.568480030	0.008043494	0.082983249	0.025576243
2020-06-09T12:40:00	0.2035	12.612	204.0	0.478034464	0.567732210	0.008026785	0.082810865	0.025523113
2020-06-09T12:45:00	0.2021	12.634	203.0	0.473335792	0.561324687	0.007884104	0.081338848	0.025069423
2020-06-09T12:50:00	0.2025	12.648	203.0	0.474517901	0.562935060	0.007919881	0.081707956	0.025183185
2020-06-09T12:55:00	0.2012	12.656	204.0	0.470160811	0.557004947	0.007788407	0.080351560	0.024765131
2020-06-09T13:00:00	0.2019	12.654	203.0	0.472729094	0.560498621	0.007865773	0.081149730	0.025011135
2020-06-09T13:05:00	0.2005	12.655	204.0	0.467676339	0.553630268	0.007713925	0.079583140	0.024528297
2020-06-09T13:10:00	0.2004	12.667	203.0	0.467473779	0.553355345	0.007707868	0.079520651	0.024509037
2020-06-09T13:15:00	0.2011	12.704	204.0	0.469697619	0.556375417	0.007774494	0.080208024	0.024720892
2020-06-09T13:20:00	0.1995	12.761	204.0	0.464293275	0.549042900	0.007613070	0.078542645	0.024207606
2020-06-09T13:25:00	0.1989	12.814	204.0	0.462354653	0.546418255	0.007555572	0.077949440	0.024024774
2020-06-09T13:30:00	0.1982	12.859	205.0	0.459719919	0.542855935	0.007477770	0.077146776	0.023777386
2020-06-09T13:35:00	0.1977	12.895	205.0	0.458126375	0.540704032	0.007430906	0.076663290	0.023628370
2020-06-09T13:40:00	0.1981	12.917	205.0	0.459313829	0.542307365	0.007465814	0.077023425	0.023739368
2020-06-09T13:45:00	0.1976	12.931	206.0	0.457720093	0.540155714	0.007418981	0.076540261	0.023590452
2020-06-09T13:50:00	0.1975	12.957	206.0	0.457169154	0.539412376	0.007402825	0.076373583	0.023539080
2020-06-09T13:55:00	0.1984	12.983	206.0	0.460442344	0.543832150	0.007499063	0.077366454	0.023845093
2020-06-09T14:00:00	0.1979	13.000	206.0	0.458849143	0.541679800	0.007452144	0.076882395	0.023695901
2020-06-09T14:05:00	0.1975	13.011	206.0	0.457255186	0.539528437	0.007405347	0.076399599	0.023547098
2020-06-09T14:10:00	0.1970	13.021	206.0	0.455660474	0.537378063	0.007358673	0.075918069	0.023398686
2020-06-09T14:15:00	0.1972	13.024	207.0	0.456153066	0.538042079	0.007373074	0.076066649	0.023444480
2020-06-09T14:20:00	0.1973	13.018	207.0	0.456645586	0.538706190	0.007387488	0.076215351	0.023490311
2020-06-09T14:25:00	0.1979	12.999	206.0	0.458876585	0.541716857	0.007452951	0.076890720	0.023698467
2020-06-09T14:30:00	0.1977	12.972	205.0	0.457978141	0.540503960	0.007426554	0.076618391	0.023614532
2020-06-09T14:35:00	0.1973	12.943	206.0	0.456731632	0.538822233	0.007390007	0.076241345	0.023498323
2020-06-09T14:40:00	0.1970	12.916	206.0	0.455484660	0.537141111	0.007353536	0.075865072	0.023382352
2020-06-09T14:45:00	0.1974	12.898	206.0	0.457020877	0.539212359	0.007398480	0.076328755	0.023525263
2020-06-09T14:50:00	0.1973	12.888	206.0	0.456469824	0.538469172	0.007382343	0.076162269	0.023473951
2020-06-09T14:55:00	0.1982	12.875	206.0	0.459743694	0.542888055	0.007478470	0.077154001	0.023779612
2020-06-09T15:00:00	0.1979	12.853	205.0	0.458845481	0.541674855	0.007452036	0.076881284	0.023695558
2020-06-09T15:05:00	0.1978	12.832	206.0	0.458294727	0.540931277	0.007435850	0.076714297	0.023644091
2020-06-09T15:10:00	0.1983	12.814	206.0	0.460177164	0.543473764	0.007491244	0.077285782	0.023820229
2020-06-09T15:15:00	0.1985	12.800	206.0	0.460669095	0.544138646	0.007505753	0.077435469	0.023866364
2020-06-09T15:20:00	0.1983	12.792	205.0	0.460118639	0.543394676	0.007489519	0.077267983	0.023814743
2020-06-09T15:25:00	0.1974	12.789	205.0	0.457134370	0.539365453	0.007401806	0.076363066	0.023535838
2020-06-09T15:30:00	0.1979	12.787	205.0	0.458669834	0.541437686	0.007446872	0.076828009	0.023679139
2020-06-09T15:35:00	0.1977	12.785	205.0	0.458119051	0.540694145	0.007430691	0.076661071	0.023627686
2020-06-09T15:40:00	0.1979	12.779	205.0	0.458611283	0.541358632	0.007445151	0.076810254	0.023673666
2020-06-09T15:45:00	0.1985	12.772	205.0	0.460840978	0.544371004	0.007510826	0.077487805	0.023882494
2020-06-09T15:50:00	0.1987	12.764	206.0	0.461332812	0.545036012	0.007525351	0.077637655	0.023928679
2020-06-09T15:55:00	0.1982	12.754	204.0	0.459740033	0.542883109	0.007478363	0.077152889	0.023779270
2020-06-09T16:00:00	0.1984	12.745	205.0	0.460579490	0.544017524	0.007503109	0.077408193	0.023857957
2020-06-09T16:05:00	0.1987	12.738	205.0	0.461421846	0.545156416	0.007527981	0.077664796	0.023937045
2020-06-09T16:10:00	0.1984	12.734	205.0	0.460527190	0.543946831	0.007501566	0.077392275	0.023853051
2020-06-09T16:15:00	0.1981	12.728	205.0	0.459284736	0.542268069	0.007464958	0.077014592	0.023736645
2020-06-09T16:20:00	0.1986	12.718	204.0	0.461169728	0.544815485	0.007520533	0.077587951	0.023913360
2020-06-09T16:25:00	0.1981	12.708	205.0	0.459579982	0.542666884	0.007473649	0.077104259	0.023764281
2020-06-09T16:30:00	0.1983	12.695	204.0	0.460075109	0.543335853	0.007488236	0.077254746	0.023810663
2020-06-09T16:35:00	0.1986	12.682	204.0	0.461264983	0.544944289	0.007523347	0.077616980	0.023922307
2020-06-09T16:40:00	0.1982	12.667	204.0	0.459675281	0.542795629	0.007476455	0.077133213	0.023773205
2020-06-09T16:45:00	0.1986	12.651	205.0	0.461212693	0.544873582	0.007521802	0.077601044	0.023917395
2020-06-09T16:50:00	0.1986	12.638	205.0	0.461012853	0.544603374	0.007515900	0.077540155	0.023898629
2020-06-09T16:55:00	0.1988	12.625	205.0	0.461855101	0.545742408	0.007540790	0.077796939	0.023977772
2020-06-09T17:00:00	0.1984	12.611	205.0	0.460613137	0.544063004	0.007504102	0.077418435	0.023861114
2020-06-09T17:05:00	0.1985	12.598	205.0	0.460760704	0.544262483	0.007508456	0.077463360	0.023874960
2020-06-09T17:10:00	0.1986	12.587	205.0	0.461255658	0.544931680	0.007523071	0.077614138	0.023921431
2020-06-09T17:15:00	0.1987	12.576	205.0	0.461403198	0.545131196	0.007527430	0.077659111	0.023935292
2020-06-09T17:20:00	0.1996	12.564	204.0	0.464675378	0.549560570	0.007624429	0.078659827	0.024243723
2020-06-09T17:25:00	0.1993	12.553	205.0	0.463434455	0.547879800	0.007587572	0.078279579	0.024126526
2020-06-09T17:30:00	0.1993	12.540	205.0	0.463581899	0.548079442	0.007591946	0.078324712	0.024140437
2020-06-09T17:35:00	0.1996	12.530	204.0	0.464770534	0.549689504	0.007627259	0.078689022	0.024252721
2020-06-09T17:40:00	0.1992	12.517	204.0	0.463182487	0.547538672	0.007580099	0.078202481	0.024102764
2020-06-09T17:45:00	0.1989	12.505	203.0	0.462288299	0.546328473	0.007553607	0.077929176	0.024018529
2020-06-09T17:50:00	0.1993	12.494	204.0	0.463477391	0.547937935	0.007588846	0.078292720	0.024130577
2020-06-09T17:55:00	0.1993	12.483	204.0	0.463624833	0.548137579	0.007593221	0.078337856	0.024144488
2020-06-09T18:00:00	0.1998	12.470	204.0	0.465160443	0.550217898	0.007638860	0.078808708	0.024289609
2020-06-09T18:05:00	0.2003	12.458	204.0	0.467042150	0.552769629	0.007694969	0.079387575	0.024468022
2020-06-09T18:10:00	0.2004	12.446	203.0	0.467536182	0.553440038	0.007709734	0.079539899	0.024514969
2020-06-09T18:15:00	0.2005	12.436	204.0	0.467683447	0.553639916	0.007714137	0.079585333	0.024528973
2020-06-09T18:20:00	0.2003	12.424	204.0	0.467137239	0.552898651	0.007697810	0.079416883	0.024477055
2020-06-09T18:25:00	0.2010	12.413	204.0	0.469364401	0.555922643	0.007764493	0.080104843	0.024689091
2020-06-09T18:30:00	0.2007	12.401	204.0	0.468471852	0.554710286	0.007737735	0.079828787	0.024604008
2020-06-09T18:35:00	0.2006	12.389	204.0	0.467925772	0.553968853	0.007721387	0.079660122	0.024552023
2020-06-09T18:40:00	0.2005	12.378	204.0	0.467726329	0.553698122	0.007715420	0.079598565	0.024533051
2020-06-09T18:45:00	0.2005	12.366	204.0	0.467873586	0.553898011	0.007719825	0.079644013	0.024547058
2020-06-09T18:50:00	0.2007	12.354	204.0	0.468367496	0.554568580	0.007734610	0.079796542	0.024594069
2020-06-09T18:55:00	0.2012	12.343	204.0	0.470247415	0.557122669	0.007791010	0.080378412	0.024773407
2020-06-09T19:00:00	0.2014	12.331	204.0	0.470740978	0.557793697	0.007805851	0.080531524	0.024820598
2020-06-09T19:05:00	0.2015	12.319	203.0	0.471234468	0.558464821	0.007820704	0.080684758	0.024867826
2020-06-09T19:10:00	0.2015	12.308	203.0	0.471381572	0.558664912	0.007825134	0.080730463	0.024881913
2020-06-09T19:15:00	0.2023	12.297	203.0	0.473952024	0.562164033	0.007902745	0.081531160	0.025128695
2020-06-09T19:20:00	0.2024	12.284	203.0	0.474445046	0.562835778	0.007917674	0.081685183	0.025176167
2020-06-09T19:25:00	0.2029	12.273	203.0	0.475975742	0.564922591	0.007964114	0.082164295	0.025323834
2020-06-09T19:30:00	0.2033	12.262	203.0	0.477505746	0.567010326	0.008010667	0.082644574	0.025471860
2020-06-09T19:35:00	0.2038	12.251	203.0	0.479035059	0.569098980	0.008057333	0.083126020	0.025620247
2020-06-09T19:40:00	0.2045	12.240	203.0	0.481599705	0.572605825	0.008135893	0.083936505	0.025870046
2020-06-09T19:45:00	0.2048	12.230	202.0	0.482782021	0.574224267	0.008172236	0.084311454	0.025985609
2020-06-09T19:50:00	0.2049	12.219	202.0	0.482928623	0.574425025	0.008176748	0.084358004	0.025999956
2020-06-09T19:55:00	0.2046	12.209	202.0	0.482039646	0.573207919	0.008149407	0.084075927	0.025913017
2020-06-09T20:00:00	0.2049	12.198	203.0	0.482876668	0.574353875	0.008175149	0.084341505	0.025994871
2020-06-09T20:05:00	0.2044	12.189	203.0	0.481297109	0.572191789	0.008126604	0.083840676	0.025840510
2020-06-09T20:10:00	0.2044	12.179	202.0	0.481098454	0.571920012	0.008120509	0.083777793	0.025821129
2020-06-09T20:15:00	0.2045	12.170	202.0	0.481590436	0.572593142	0.008135608	0.083933569	0.025869141
2020-06-09T20:20:00	0.2044	12.160	202.0	0.481391798	0.572321342	0.008129510	0.083870657	0.025849751
2020-06-09T20:25:00	0.2045	12.151	202.0	0.481538461	0.572522019	0.008134012	0.083917105	0.025864067
2020-06-09T20:30:00	0.2046	12.141	202.0	0.482030379	0.573195234	0.008149122	0.084072989	0.025912112
2020-06-09T20:35:00	0.2049	12.132	202.0	0.482867403	0.574341187	0.008174864	0.084338563	0.025993964
2020-06-09T20:40:00	0.2047	12.122	202.0	0.482323642	0.573596672	0.008158136	0.084165990	0.025940775
2020-06-09T20:45:00	0.2054	12.113	202.0	0.484540831	0.576633922	0.008226449	0.084870759	0.026157992
2020-06-09T20:50:00	0.2059	12.104	203.0	0.486411789	0.579199941	0.008284314	0.085467739	0.026341987
2020-06-09T20:55:00	0.2057	12.095	203.0	0.485868597	0.578454665	0.008267493	0.085294205	0.026288502
2020-06-09T21:00:00	0.2059	12.086	202.0	0.486359888	0.579128720	0.008282706	0.085451151	0.026336874
2020-06-09T21:05:00	0.2057	12.077	203.0	0.485816687	0.578383455	0.008265887	0.085277631	0.026283394
2020-06-09T21:10:00	0.2057	12.068	202.0	0.485618296	0.578111324	0.008259748	0.085214300	0.026263875
2020-06-09T21:15:00	0.2057	12.061	202.0	0.485764776	0.578312246	0.008264280	0.085261057	0.026278286
2020-06-09T21:20:00	0.2058	12.051	202.0	0.485911249	0.578513176	0.008268814	0.085307825	0.026292700
2020-06-09T21:25:00	0.2060	12.043	202.0	0.486747316	0.579660412	0.008294712	0.085575018	0.026375051
2020-06-09T21:30:00	0.2062	12.035	202.0	0.487583177	0.580807923	0.008320645	0.085842559	0.026457510
2020-06-09T21:35:00	0.2055	12.027	201.0	0.484971131	0.577223831	0.008239740	0.085007874	0.026200252
2020-06-09T21:40:00	0.2048	12.018	202.0	0.482702266	0.574115058	0.008169782	0.084286135	0.025977806
2020-06-09T21:45:00	0.2044	12.009	201.0	0.481122627	0.571953081	0.008121250	0.083785443	0.025823487
2020-06-09T21:50:00	0.2044	12.000	203.0	0.481269301	0.572153743	0.008125751	0.083831871	0.025837797
2020-06-09T21:55:00	0.2051	11.991	202.0	0.483487178	0.575190071	0.008193950	0.084535476	0.026054655
2020-06-09T22:00:00	0.2051	11.982	201.0	0.483633750	0.575390869	0.008198467	0.084582077	0.026069018
2020-06-09T22:05:00	0.2056	11.973	201.0	0.485456380	0.577889248	0.008254740	0.085162631	0.026247950
2020-06-09T22:10:00	0.2050	11.963	201.0	0.483484091	0.575185841	0.008193855	0.084534494	0.026054352
2020-06-09T22:15:00	0.2051	11.953	201.0	0.483581806	0.575319705	0.008196866	0.084565560	0.026063927
2020-06-09T22:20:00	0.2055	11.943	201.0	0.485059544	0.577345058	0.008242472	0.085036061	0.026208940
2020-06-09T22:25:00	0.2051	11.934	201.0	0.483777228	0.575587446	0.008202890	0.084627707	0.026083081
2020-06-09T22:30:00	0.2053	11.924	201.0	0.484219974	0.576194149	0.008216546	0.084768589	0.026126503
2020-06-09T22:35:00	0.2047	11.914	201.0	0.482246966	0.573491706	0.008155779	0.084141669	0.025933280
2020-06-09T22:40:00	0.2049	11.904	201.0	0.483035072	0.574570807	0.008180025	0.084391812	0.026010376
2020-06-09T22:45:00	0.2049	11.895	201.0	0.483132800	0.574704655	0.008183034	0.084422856	0.026019944
2020-06-09T22:50:00	0.2051	11.885	201.0	0.483575630	0.575311245	0.008196676	0.084563597	0.026063322
2020-06-09T22:55:00	0.2043	11.876	200.0	0.480911600	0.571664410	0.008114778	0.083718667	0.025802906
2020-06-09T23:00:00	0.2042	11.866	200.0	0.480664024	0.571325786	0.008107187	0.083640358	0.025778771
2020-06-09T23:05:00	0.2040	11.856	200.0	0.479725540	0.570042615	0.008078447	0.083343844	0.025687382
2020-06-09T23:10:00	0.2031	11.846	201.0	0.476712710	0.565927973	0.007986521	0.082395462	0.025395082
2020-06-09T23:15:00	0.2028	11.834	200.0	0.475773131	0.564646263	0.007957959	0.082100798	0.025304263
2020-06-09T23:20:00	0.2027	11.824	201.0	0.475525178	0.564308139	0.007950430	0.082023124	0.025280323
2020-06-09T23:25:00	0.2027	11.813	200.0	0.475277207	0.563970041	0.007942904	0.081945480	0.025256393
2020-06-09T23:30:00	0.2029	11.800	200.0	0.476066937	0.565046977	0.007966885	0.082192883	0.025332645
2020-06-09T23:35:00	0.2019	11.787	200.0	0.472704666	0.560465365	0.007865035	0.081142120	0.025008789
2020-06-09T23:40:00	0.2011	11.775	200.0	0.469685570	0.556359044	0.007774133	0.080204292	0.024719742
2020-06-09T23:45:00	0.2011	11.763	200.0	0.469783685	0.556492377	0.007777078	0.080234685	0.024729109
2020-06-09T23:50:00	0.2024	11.752	200.0	0.474383123	0.562751397	0.007915798	0.081665830	0.025170202
2020-06-09T23:55:00	0.2025	11.741	200.0	0.474827099	0.563356460	0.007929253	0.081804637	0.025212984
2020-06-10T00:00:00	0.2023	11.729	200.0	0.473886995	0.562075446	0.007900777	0.081510856	0.025122437
2020-06-10T00:05:00	0.2023	11.718	200.0	0.473984988	0.562208941	0.007903742	0.081541454	0.025131868
2020-06-10T00:10:00	0.2020	11.707	200.0	0.473044650	0.560928238	0.007875305	0.081248067	0.025041443
2020-06-10T00:15:00	0.2024	11.696	200.0	0.474180965	0.562475943	0.007909676	0.081602665	0.025150734
2020-06-10T00:20:00	0.2022	11.685	200.0	0.473586806	0.561666547	0.007891694	0.081417157	0.025093559
2020-06-10T00:25:00	0.2013	11.675	199.0	0.470568500	0.557559181	0.007800663	0.080478002	0.024804102
2020-06-10T00:30:00	0.2008	11.665	199.0	0.468934113	0.555338101	0.007751588	0.079971701	0.024648055
2020-06-10T00:35:00	0.2008	11.655	199.0	0.468685658	0.555000643	0.007744141	0.079894872	0.024624376
2020-06-10T00:40:00	0.2002	11.645	199.0	0.466703564	0.552310274	0.007684858	0.079283262	0.024435871
2020-06-10T00:45:00	0.2004	11.636	199.0	0.467495300	0.553384553	0.007708511	0.079527289	0.024511083
2020-06-10T00:50:00	0.2004	11.627	199.0	0.467246739	0.553047236	0.007701082	0.079450638	0.024487458
2020-06-10T00:55:00	0.2004	11.618	199.0	0.467344925	0.553180476	0.007704016	0.079480912	0.024496789
2020-06-10T01:00:00	0.1997	11.609	199.0	0.465015073	0.550020882	0.007634534	0.078764075	0.024275853
2020-06-10T01:05:00	0.2004	11.600	199.0	0.467541287	0.553446967	0.007709886	0.079541474	0.024515455
2020-06-10T01:10:00	0.2002	11.592	200.0	0.466599153	0.552168640	0.007681741	0.079251109	0.024425961
2020-06-10T01:15:00	0.2000	11.584	199.0	0.466003658	0.551361011	0.007663978	0.079067847	0.024369478
2020-06-10T01:20:00	0.2002	11.576	199.0	0.466795559	0.552435074	0.007687604	0.079311598	0.024444605
2020-06-10T01:25:00	0.2003	11.567	199.0	0.466893758	0.552568296	0.007690537	0.079341850	0.024453929
2020-06-10T01:30:00	0.2000	11.559	199.0	0.465951442	0.551290208	0.007662421	0.079051788	0.024364529
2020-06-10T01:35:00	0.2000	11.551	199.0	0.466049665	0.551423398	0.007665350	0.079081998	0.024373840
2020-06-10T01:40:00	0.2005	11.541	198.0	0.467881792	0.553909151	0.007720071	0.079646546	0.024547839
2020-06-10T01:45:00	0.2004	11.532	198.0	0.467286524	0.553101224	0.007702270	0.079462905	0.024491239
2020-06-10T01:50:00	0.2000	11.523	199.0	0.465997450	0.551352594	0.007663793	0.079065938	0.024368890
2020-06-10T01:55:00	0.2001	11.514	198.0	0.466442530	0.551956196	0.007677067	0.079202888	0.024411099
2020-06-10T02:00:00	0.1996	11.504	198.0	0.464459116	0.549267566	0.007617999	0.078593494	0.024223278
2020-06-10T02:05:00	0.1994	11.495	199.0	0.463863243	0.548460435	0.007600297	0.078410867	0.024166991
2020-06-10T02:10:00	0.1991	11.487	198.0	0.462920080	0.547183463	0.007572320	0.078122228	0.024078029
2020-06-10T02:15:00	0.1980	11.477	199.0	0.459197102	0.542149708	0.007462379	0.076987987	0.023728445
2020-06-10T02:20:00	0.1987	11.467	198.0	0.461380339	0.545100284	0.007526755	0.077652143	0.023933144
2020-06-10T02:25:00	0.1988	11.458	198.0	0.461826030	0.545703084	0.007539930	0.077788069	0.023975038
2020-06-10T02:30:00	0.1993	11.449	199.0	0.463660454	0.548185815	0.007594278	0.078348763	0.024147850
2020-06-10T02:35:00	0.1999	11.441	198.0	0.465493880	0.550669858	0.007648788	0.078911131	0.024321177
2020-06-10T02:40:00	0.2003	11.431	198.0	0.466979542	0.552684682	0.007693099	0.079368281	0.024462075
2020-06-10T02:45:00	0.2004	11.422	198.0	0.467424492	0.553288456	0.007706394	0.079505450	0.024504352
2020-06-10T02:50:00	0.2002	11.412	198.0	0.466829143	0.552480635	0.007688607	0.079321943	0.024447793
2020-06-10T02:55:00	0.2002	11.403	198.0	0.466580533	0.552143383	0.007681186	0.079245375	0.024424194
2020-06-10T03:00:00	0.2002	11.394	198.0	0.466678738	0.552276597	0.007684117	0.079275617	0.024433515
2020-06-10T03:05:00	0.2001	11.386	197.0	0.466430116	0.551939359	0.007676697	0.079199067	0.024409922
2020-06-10T03:10:00	0.1999	11.377	198.0	0.465834592	0.551131770	0.007658938	0.079015856	0.024353454
2020-06-10T03:15:00	0.1997	11.368	198.0	0.464891980	0.549854071	0.007630871	0.078726291	0.024264208
2020-06-10T03:20:00	0.1995	11.360	198.0	0.464296184	0.549046840	0.007613157	0.078543536	0.024207881
2020-06-10T03:25:00	0.1996	11.351	197.0	0.464741488	0.549650147	0.007626395	0.078680110	0.024249974
2020-06-10T03:30:00	0.2001	11.347	198.0	0.466227482	0.551664535	0.007670652	0.079136704	0.024390701
2020-06-10T03:35:00	0.2006	11.343	198.0	0.468059512	0.554150416	0.007725389	0.079701414	0.024564750
2020-06-10T03:40:00	0.2008	11.337	198.0	0.468850931	0.555225114	0.007749094	0.079945975	0.024640126
2020-06-10T03:45:00	0.2007	11.333	198.0	0.468602469	0.554887665	0.007741648	0.079869157	0.024616450
2020-06-10T03:50:00	0.2006	11.330	197.0	0.468007328	0.554079570	0.007723827	0.079685301	0.024559784
2020-06-10T03:55:00	0.2004	11.328	198.0	0.467412082	0.553271614	0.007706023	0.079501622	0.024503172
2020-06-10T04:00:00	0.2007	11.327	197.0	0.468550294	0.554816809	0.007740085	0.079853030	0.024611479
2020-06-10T04:05:00	0.2005	11.326	197.0	0.467801686	0.553800410	0.007717674	0.079621821	0.024540219
2020-06-10T04:10:00	0.2006	11.325	197.0	0.468093084	0.554195994	0.007726394	0.079711781	0.024567945
2020-06-10T04:15:00	0.2005	11.324	198.0	0.467691104	0.553650310	0.007714366	0.079587696	0.024529701
2020-06-10T04:20:00	0.2008	11.325	198.0	0.468675804	0.554987261	0.007743845	0.079891826	0.024623437
2020-06-10T04:25:00	0.2007	11.326	197.0	0.468273894	0.554441485	0.007731807	0.079767625	0.024585157
2020-06-10T04:30:00	0.2003	11.326	198.0	0.467178479	0.552954610	0.007699042	0.079429595	0.024480973
2020-06-10T04:35:00	0.2006	11.327	198.0	0.468163328	0.554291363	0.007728496	0.079733474	0.024574631
2020-06-10T04:40:00	0.2007	11.328	197.0	0.468454695	0.554686988	0.007737221	0.079823486	0.024602373
2020-06-10T04:45:00	0.2006	11.328	197.0	0.468052759	0.554141247	0.007725187	0.079699329	0.024564107
2020-06-10T04:50:00	0.2014	11.329	198.0	0.470769775	0.557832856	0.007806717	0.080540462	0.024823353
2020-06-10T04:55:00	0.2016	11.328	197.0	0.471407265	0.558699862	0.007825908	0.080738447	0.024884373
2020-06-10T05:00:00	0.2016	11.329	199.0	0.471698352	0.559095857	0.007834678	0.080828929	0.024912261
2020-06-10T05:05:00	0.2020	11.330	197.0	0.473028066	0.560905657	0.007874804	0.081242898	0.025039850
2020-06-10T05:10:00	0.2027	11.331	198.0	0.475395181	0.564130887	0.007946484	0.081982415	0.025267777
2020-06-10T05:15:00	0.2033	11.333	197.0	0.477414943	0.566886370	0.008007900	0.082616032	0.025463063
2020-06-10T05:20:00	0.2042	11.335	197.0	0.480469869	0.571060264	0.008101237	0.083578972	0.025759851
2020-06-10T05:25:00	0.2041	11.337	198.0	0.480069359	0.570512630	0.008088970	0.083452413	0.025720844
2020-06-10T05:30:00	0.2032	11.340	197.0	0.477249541	0.566660596	0.008002862	0.082564053	0.025447043
2020-06-10T05:35:00	0.2042	11.344	199.0	0.480650019	0.571306632	0.008106758	0.083635929	0.025777406
2020-06-10T05:40:00	0.2039	11.347	197.0	0.479558607	0.569814444	0.008073340	0.083291157	0.025671143
2020-06-10T05:45:00	0.2045	11.350	197.0	0.481575888	0.572573234	0.008135161	0.083928960	0.025867721
2020-06-10T05:50:00	0.2045	11.354	198.0	0.481520822	0.572497884	0.008133471	0.083911518	0.025862345
2020-06-10T05:55:00	0.2044	11.359	198.0	0.481120436	0.571950084	0.008121183	0.083784750	0.025823274
2020-06-10T06:00:00	0.2044	11.363	197.0	0.481410689	0.572347189	0.008130090	0.083876639	0.025851595
2020-06-10T06:05:00	0.2039	11.366	198.0	0.479628614	0.569910129	0.008075481	0.083313250	0.025677953
2020-06-10T06:10:00	0.2042	11.370	198.0	0.480609843	0.571251686	0.008105527	0.083623225	0.025773490
2020-06-10T06:15:00	0.2040	11.375	198.0	0.479863902	0.570231749	0.008082681	0.083387527	0.025700846
2020-06-10T06:20:00	0.2046	11.381	197.0	0.481881000	0.572990782	0.008144532	0.084025637	0.025897518
2020-06-10T06:25:00	0.2044	11.390	197.0	0.481135339	0.571970471	0.008121640	0.083789466	0.025824727
2020-06-10T06:30:00	0.2049	11.400	197.0	0.482806533	0.574257833	0.008172991	0.084319236	0.025988008
2020-06-10T06:35:00	0.2055	11.408	197.0	0.485166825	0.577492162	0.008245787	0.085070269	0.026219483
2020-06-10T06:40:00	0.2050	11.418	198.0	0.483386724	0.575052461	0.008190855	0.084503544	0.026044813
2020-06-10T06:45:00	0.2047	11.432	197.0	0.482296194	0.573559096	0.008157293	0.084157283	0.025938092
2020-06-10T06:50:00	0.2054	11.447	197.0	0.484656841	0.576792949	0.008230031	0.084907715	0.026169382
2020-06-10T06:55:00	0.2054	11.459	197.0	0.484601825	0.576717533	0.008228332	0.084890188	0.026163980
2020-06-10T07:00:00	0.2053	11.470	197.0	0.484201803	0.576169246	0.008215985	0.084762805	0.026124720
2020-06-10T07:05:00	0.2054	11.484	198.0	0.484836768	0.577039614	0.008235588	0.084965048	0.026187053
2020-06-10T07:10:00	0.2050	11.498	197.0	0.483401617	0.575072862	0.008191314	0.084508278	0.026046272
2020-06-10T07:15:00	0.2051	11.509	197.0	0.483691674	0.575470227	0.008200253	0.084600497	0.026074695
2020-06-10T07:20:00	0.2055	11.523	198.0	0.485016686	0.577286292	0.008241147	0.085022397	0.026204728
2020-06-10T07:25:00	0.2063	11.535	199.0	0.487720125	0.580995985	0.008324897	0.085886432	0.026471032
2020-06-10T07:30:00	0.2057	11.546	197.0	0.485596499	0.578081427	0.008259074	0.085207344	0.026261731
2020-06-10T07:35:00	0.2054	11.559	198.0	0.484851654	0.577060023	0.008236048	0.084969792	0.026188515
2020-06-10T07:40:00	0.2049	11.574	199.0	0.483071388	0.574620544	0.008181143	0.084403348	0.026013931
2020-06-10T07:45:00	0.2056	11.590	198.0	0.485431496	0.577855120	0.008253970	0.085154691	0.026245503
2020-06-10T07:50:00	0.2053	11.602	199.0	0.484341623	0.576360874	0.008220300	0.084807318	0.026138439
2020-06-10T07:55:00	0.2055	11.615	198.0	0.484976562	0.577231277	0.008239907	0.085009606	0.026200786
2020-06-10T08:00:00	0.2058	11.625	198.0	0.485956245	0.578574904	0.008270206	0.085322194	0.026297129
2020-06-10T08:05:00	0.2056	11.637	197.0	0.485211479	0.577553394	0.008247168	0.085084509	0.026223872
2020-06-10T08:10:00	0.2051	11.651	197.0	0.483776486	0.575586429	0.008202867	0.084627471	0.026083008
2020-06-10T08:15:00	0.2059	11.664	198.0	0.486480913	0.579294797	0.008286456	0.085489835	0.026348797
2020-06-10T08:20:00	0.2062	11.679	198.0	0.487460162	0.580639006	0.008316826	0.085803158	0.026445367
2020-06-10T08:25:00	0.2063	11.692	198.0	0.487749872	0.581036837	0.008325821	0.085895963	0.026473970
2020-06-10T08:30:00	0.2064	11.707	199.0	0.488039558	0.581434701	0.008334821	0.085988811	0.026502587
2020-06-10T08:35:00	0.2063	11.721	198.0	0.487639940	0.580885871	0.008322407	0.085860742	0.026463115
2020-06-10T08:40:00	0.2065	11.735	198.0	0.488618855	0.582230529	0.008352832	0.086174631	0.026559858
2020-06-10T08:45:00	0.2069	11.746	199.0	0.489941947	0.584049174	0.008394042	0.086599784	0.026690894
2020-06-10T08:50:00	0.2071	11.756	199.0	0.490575840	0.584920983	0.008413821	0.086803843	0.026753787
2020-06-10T08:55:00	0.2077	11.767	198.0	0.492586585	0.587688544	0.008476715	0.087452707	0.026953774
2020-06-10T09:00:00	0.2077	11.774	198.0	0.492531698	0.587612955	0.008474995	0.087434963	0.026948305
2020-06-10T09:05:00	0.2078	11.778	199.0	0.492820977	0.588011368	0.008484062	0.087528501	0.026977134
2020-06-10T09:10:00	0.2072	11.779	199.0	0.491044883	0.585566278	0.008428472	0.086954988	0.026800372
2020-06-10T09:15:00	0.2073	11.779	198.0	0.491334288	0.585964520	0.008437517	0.087048311	0.026829135
2020-06-10T09:20:00	0.2078	11.784	199.0	0.493000472	0.588258614	0.008489690	0.087586566	0.026995030
2020-06-10T09:25:00	0.2080	11.794	200.0	0.493633796	0.589131192	0.008509563	0.087791591	0.027058221
2020-06-10T09:30:00	0.2075	11.807	199.0	0.491858127	0.586685530	0.008453903	0.087217357	0.026881237
2020-06-10T09:35:00	0.2070	11.824	199.0	0.490081530	0.584241119	0.008398395	0.086644697	0.026704737
2020-06-10T09:40:00	0.2060	11.843	199.0	0.486925298	0.579904706	0.008300231	0.085631951	0.026392599
2020-06-10T09:45:00	0.2057	11.865	199.0	0.485835904	0.578409817	0.008266482	0.085283766	0.026285285
2020-06-10T09:50:00	0.2051	11.882	199.0	0.483711099	0.575496841	0.008200852	0.084606674	0.026076599
2020-06-10T09:55:00	0.2046	11.903	199.0	0.481930233	0.573058165	0.008146045	0.084041242	0.025902327
2020-06-10T10:00:00	0.2041	11.942	199.0	0.480148432	0.570620740	0.008091391	0.083477392	0.025728543
2020-06-10T10:05:00	0.2040	11.969	201.0	0.479842616	0.570202651	0.008082029	0.083380806	0.025698774
2020-06-10T10:10:00	0.2037	11.998	199.0	0.478845704	0.568840268	0.008051548	0.083066333	0.025601851
2020-06-10T10:15:00	0.2040	12.022	199.0	0.479921889	0.570311021	0.008084456	0.083405838	0.025706489
2020-06-10T10:20:00	0.2038	12.049	199.0	0.479270544	0.569420760	0.008064531	0.083200276	0.025643133
2020-06-10T10:25:00	0.2047	12.072	200.0	0.482418459	0.573726477	0.008161052	0.084196069	0.025950046
2020-06-10T10:30:00	0.2052	12.082	199.0	0.483838588	0.575671520	0.008204782	0.084647225	0.026089097
2020-06-10T10:35:00	0.2047	12.110	200.0	0.482152458	0.573362335	0.008152874	0.084111697	0.025924042
2020-06-10T10:40:00	0.2046	12.137	200.0	0.481846822	0.572944005	0.008143482	0.084014805	0.025894179
2020-06-10T10:45:00	0.2053	12.138	200.0	0.484302389	0.576307101	0.008219089	0.084794827	0.026134589
2020-06-10T10:50:00	0.2041	12.149	200.0	0.480199333	0.570690335	0.008092950	0.083493474	0.025733500
2020-06-10T10:55:00	0.2046	12.160	201.0	0.481965662	0.573106655	0.008147133	0.084052473	0.025905788
2020-06-10T11:00:00	0.2043	12.170	200.0	0.480969375	0.571743438	0.008116550	0.083736946	0.025808540
2020-06-10T11:05:00	0.2041	12.188	200.0	0.480318231	0.570852908	0.008096592	0.083531044	0.025745079
2020-06-10T11:10:00	0.2035	12.210	200.0	0.478284738	0.568073999	0.008034421	0.082889637	0.025547391
2020-06-10T11:15:00	0.2037	12.217	200.0	0.478669999	0.568600231	0.008046181	0.083010969	0.025584787
2020-06-10T11:20:00	0.2037	12.234	200.0	0.478709649	0.568654397	0.008047392	0.083023461	0.025588637
2020-06-10T11:25:00	0.2043	12.253	200.0	0.480822140	0.571542044	0.008112035	0.083690366	0.025794184
2020-06-10T11:30:00	0.2045	12.263	200.0	0.481552422	0.572541124	0.008134441	0.083921527	0.025865430
2020-06-10T11:35:00	0.2046	12.278	201.0	0.481937311	0.573067852	0.008146262	0.084043486	0.025903019
2020-06-10T11:40:00	0.2047	12.292	201.0	0.482322156	0.573594638	0.008158091	0.084165518	0.025940630
2020-06-10T11:45:00	0.2046	12.304	201.0	0.482016536	0.573176287	0.008148697	0.084068601	0.025910759
2020-06-10T11:50:00	0.2044	12.311	200.0	0.481365594	0.572285488	0.008128706	0.083862359	0.025847194
2020-06-10T11:55:00	0.2043	12.330	200.0	0.481059887	0.571867253	0.008119326	0.083765587	0.025817367
2020-06-10T12:00:00	0.2042	12.350	200.0	0.480408761	0.570976700	0.008099365	0.083559656	0.025753898
2020-06-10T12:05:00	0.2032	12.368	201.0	0.476992571	0.566309876	0.007995038	0.082483331	0.025422164
2020-06-10T12:10:00	0.2034	12.377	201.0	0.477723680	0.567307854	0.008017309	0.082713098	0.025492980
2020-06-10T12:15:00	0.2047	12.388	201.0	0.482254200	0.573501608	0.008156001	0.084143963	0.025933987
2020-06-10T12:20:00	0.2042	12.402	200.0	0.480567280	0.571193478	0.008104222	0.083609768	0.025769342
2020-06-10T12:25:00	0.2049	12.398	201.0	0.483023774	0.574555335	0.008179677	0.084388224	0.026009270
2020-06-10T12:30:00	0.2051	12.392	200.0	0.483753583	0.575555049	0.008202161	0.084620186	0.026080763
2020-06-10T12:35:00	0.2043	12.390	201.0	0.481031529	0.571828460	0.008118456	0.083756613	0.025814602
2020-06-10T12:40:00	0.2043	12.392	200.0	0.480725792	0.571410265	0.008109081	0.083659892	0.025784791
2020-06-10T12:45:00	0.2047	12.387	201.0	0.482146631	0.573354360	0.008152695	0.084109850	0.025923472
2020-06-10T12:50:00	0.2055	12.376	201.0	0.484946947	0.577190673	0.008238992	0.085000165	0.026197876
2020-06-10T12:55:00	0.2059	12.369	201.0	0.486366019	0.579137133	0.008282896	0.085453110	0.026337478
2020-06-10T13:00:00	0.2061	12.360	201.0	0.487095109	0.580137811	0.008305498	0.085686288	0.026409346
2020-06-10T13:05:00	0.2059	12.351	201.0	0.486445141	0.579245707	0.008285347	0.085478400	0.026345273
2020-06-10T13:10:00	0.2058	12.343	201.0	0.486139892	0.578826859	0.008275892	0.085380854	0.026315208
2020-06-10T13:15:00	0.2054	12.333	201.0	0.484799885	0.576989048	0.008234449	0.084953294	0.026183430
2020-06-10T13:20:00	0.2052	12.327	201.0	0.484149476	0.576097534	0.008214371	0.084746149	0.026119586
2020-06-10T13:25:00	0.2051	12.326	201.0	0.483498943	0.575206188	0.008194313	0.084539216	0.026055807
2020-06-10T13:30:00	0.2053	12.328	201.0	0.484228650	0.576206039	0.008216814	0.084771351	0.026127354
2020-06-10T13:35:00	0.2053	12.329	201.0	0.484268236	0.576260292	0.008218035	0.084783953	0.026131238
2020-06-10T13:40:00	0.2054	12.330	201.0	0.484652816	0.576787432	0.008229907	0.084906433	0.026168987
2020-06-10T13:45:00	0.2051	12.330	201.0	0.483657318	0.575423159	0.008199194	0.084589571	0.026071327
2020-06-10T13:50:00	0.2047	12.332	201.0	0.482316330	0.573586662	0.008157912	0.084163670	0.025940061
2020-06-10T13:55:00	0.2044	12.334	201.0	0.481320146	0.572223307	0.008127311	0.083847969	0.025842758
2020-06-10T14:00:00	0.2048	12.335	201.0	0.482740736	0.574167735	0.008170966	0.084298348	0.025981569
2020-06-10T14:05:00	0.2046	12.333	201.0	0.482089933	0.573276750	0.008150952	0.084091871	0.025917931
2020-06-10T14:10:00	0.2040	12.330	201.0	0.479712041	0.570024162	0.008078034	0.083339583	0.025686069
2020-06-10T14:15:00	0.2041	12.328	201.0	0.480097138	0.570550610	0.008089821	0.083461188	0.025723549
2020-06-10T14:20:00	0.2040	12.323	201.0	0.479791317	0.570132527	0.008080459	0.083364610	0.025693782
2020-06-10T14:25:00	0.2037	12.322	201.0	0.478794390	0.568770165	0.008049980	0.083050163	0.025596867
2020-06-10T14:30:00	0.2033	12.321	201.0	0.477451476	0.566936240	0.008009013	0.082627515	0.025466603
2020-06-10T14:35:00	0.2037	12.319	201.0	0.478873689	0.568878502	0.008052403	0.083075153	0.025604569
2020-06-10T14:40:00	0.2034	12.315	201.0	0.477876492	0.567516499	0.008021968	0.082761162	0.025507794
2020-06-10T14:45:00	0.2038	12.311	201.0	0.479298526	0.569458998	0.008065386	0.083209102	0.025645853
2020-06-10T14:50:00	0.2038	12.308	201.0	0.479338170	0.569513174	0.008066598	0.083221607	0.025649707
2020-06-10T14:55:00	0.2033	12.304	202.0	0.477304088	0.566735051	0.008004524	0.082581193	0.025452326
2020-06-10T15:00:00	0.2034	12.303	201.0	0.477689460	0.567261134	0.008016266	0.082702337	0.025489663
2020-06-10T15:05:00	0.2036	12.303	201.0	0.478420418	0.568259313	0.008038562	0.082932358	0.025560558
2020-06-10T15:10:00	0.2034	12.302	200.0	0.477768784	0.567369436	0.008018684	0.082727283	0.025497352
2020-06-10T15:15:00	0.2034	12.298	201.0	0.477808446	0.567423589	0.008019893	0.082739758	0.025501197
2020-06-10T15:20:00	0.2031	12.296	201.0	0.476810935	0.566062004	0.007989509	0.082426297	0.025404585
2020-06-10T15:25:00	0.2030	12.293	201.0	0.476504817	0.565644318	0.007980197	0.082330219	0.025374973
2020-06-10T15:30:00	0.2032	12.294	201.0	0.477236031	0.566642156	0.008002451	0.082559808	0.025445735
2020-06-10T15:35:00	0.2030	12.292	201.0	0.476238351	0.565280796	0.007972095	0.082246632	0.025349211
2020-06-10T15:40:00	0.2030	12.291	201.0	0.476278030	0.565334924	0.007973301	0.082259076	0.025353046
2020-06-10T15:45:00	0.2032	12.291	201.0	0.477009293	0.566332697	0.007995547	0.082488583	0.025423782
2020-06-10T15:50:00	0.2027	12.290	201.0	0.475319758	0.564028054	0.007944196	0.081958801	0.025260498
2020-06-10T15:55:00	0.2029	12.290	201.0	0.476051229	0.565025551	0.007966408	0.082187959	0.025331127
2020-06-10T16:00:00	0.2031	12.288	201.0	0.476782541	0.566023259	0.007988645	0.082417383	0.025401838
2020-06-10T16:05:00	0.2024	12.288	201.0	0.474410205	0.562788300	0.007916618	0.081674294	0.025172811
2020-06-10T16:10:00	0.2017	12.293	201.0	0.472036203	0.559555553	0.007844863	0.080934010	0.024944648
2020-06-10T16:15:00	0.2012	12.295	201.0	0.470007023	0.556795912	0.007783786	0.080303890	0.024750439
2020-06-10T16:20:00	0.2010	12.296	201.0	0.469363067	0.555920830	0.007764453	0.080104430	0.024688963
2020-06-10T16:25:00	0.2012	12.295	201.0	0.470105128	0.556929258	0.007786734	0.080334298	0.024759811
2020-06-10T16:30:00	0.2016	12.296	201.0	0.471539730	0.558880059	0.007829898	0.080779616	0.024897062
2020-06-10T16:35:00	0.2012	12.295	200.0	0.470203230	0.557062608	0.007789682	0.080364712	0.024769185
2020-06-10T16:40:00	0.2011	12.294	201.0	0.469905814	0.556658356	0.007780746	0.080272525	0.024740772
2020-06-10T16:45:00	0.2011	12.293	202.0	0.469954869	0.556725027	0.007782220	0.080287726	0.024745457
2020-06-10T16:50:00	0.2013	12.288	201.0	0.470350379	0.557262639	0.007794105	0.080410341	0.024783248
2020-06-10T16:55:00	0.2007	12.284	201.0	0.468320185	0.554504339	0.007733193	0.079781925	0.024589564
2020-06-10T17:00:00	0.2005	12.278	201.0	0.467675907	0.553629682	0.007713912	0.079583007	0.024528256
2020-06-10T17:05:00	0.2000	12.273	201.0	0.465991007	0.551343856	0.007663601	0.079063956	0.024368279
2020-06-10T17:10:00	0.1999	12.269	202.0	0.465693219	0.550940096	0.007654726	0.078972394	0.024340059
2020-06-10T17:15:00	0.1997	12.264	201.0	0.465048439	0.550066100	0.007635526	0.078774318	0.024279010
2020-06-10T17:20:00	0.1995	12.259	201.0	0.464403535	0.549192268	0.007616347	0.078576450	0.024218025
2020-06-10T17:25:00	0.1994	12.254	200.0	0.463758508	0.548318598	0.007597188	0.078378789	0.024157104
2020-06-10T17:30:00	0.1994	12.250	201.0	0.463807652	0.548385150	0.007598647	0.078393840	0.024161743
2020-06-10T17:35:00	0.1991	12.245	201.0	0.462815316	0.547041664	0.007569215	0.078090199	0.024068158
2020-06-10T17:40:00	0.1993	12.243	201.0	0.463558819	0.548048191	0.007591262	0.078317646	0.024138259
2020-06-10T17:45:00	0.1987	12.240	200.0	0.461524529	0.545295285	0.007531016	0.077696105	0.023946694
2020-06-10T17:50:00	0.1989	12.236	201.0	0.462268318	0.546301438	0.007553016	0.077923074	0.024016648
2020-06-10T17:55:00	0.1983	12.231	201.0	0.460233248	0.543549556	0.007492897	0.077302840	0.023825486
2020-06-10T18:00:00	0.1978	12.228	203.0	0.458544619	0.541268629	0.007443192	0.076790042	0.023667437
2020-06-10T18:05:00	0.1986	12.224	200.0	0.461026507	0.544621834	0.007516303	0.077544314	0.023899911
2020-06-10T18:10:00	0.1982	12.219	201.0	0.459685831	0.542809881	0.007476766	0.077136418	0.023774193
2020-06-10T18:15:00	0.1977	12.213	201.0	0.457996926	0.540529314	0.007427106	0.076624080	0.023616286
2020-06-10T18:20:00	0.1982	12.209	200.0	0.459784237	0.542942831	0.007479665	0.077166322	0.023783410
2020-06-10T18:25:00	0.1981	12.202	201.0	0.459485899	0.542539792	0.007470879	0.077075680	0.023755473
2020-06-10T18:30:00	0.1975	12.196	200.0	0.457449145	0.539790116	0.007411034	0.076458268	0.023565181
2020-06-10T18:35:00	0.1980	12.189	200.0	0.459236746	0.542203252	0.007463545	0.077000022	0.023732155
2020-06-10T18:40:00	0.1987	12.181	200.0	0.461370779	0.545087355	0.007526472	0.077649228	0.023932246
2020-06-10T18:45:00	0.1993	12.175	200.0	0.463503459	0.547973232	0.007589619	0.078300700	0.024133036
2020-06-10T18:50:00	0.1987	12.166	201.0	0.461469136	0.545220370	0.007529379	0.077679214	0.023941488
2020-06-10T18:55:00	0.1989	12.158	200.0	0.462212937	0.546226507	0.007551377	0.077906163	0.024011436
2020-06-10T19:00:00	0.1990	12.151	200.0	0.462609356	0.546762921	0.007563114	0.078027251	0.024048757
2020-06-10T19:05:00	0.1999	12.144	200.0	0.465782138	0.551060650	0.007657375	0.078999729	0.024348484
2020-06-10T19:10:00	0.2004	12.137	200.0	0.467565321	0.553479586	0.007710605	0.079548888	0.024517740
2020-06-10T19:15:00	0.2003	12.129	200.0	0.466920899	0.552605120	0.007691347	0.079350212	0.024456506
2020-06-10T19:20:00	0.2008	12.122	200.0	0.468703481	0.555024849	0.007744675	0.079900383	0.024626074
2020-06-10T19:25:00	0.2012	12.115	200.0	0.470138679	0.556974863	0.007787742	0.080344699	0.024763017
2020-06-10T19:30:00	0.2011	12.108	200.0	0.469841257	0.556570619	0.007778807	0.080252522	0.024734607
2020-06-10T19:35:00	0.2013	12.101	200.0	0.470583213	0.557579186	0.007801105	0.080482567	0.024805509
2020-06-10T19:40:00	0.2022	12.096	200.0	0.473748507	0.561886797	0.007896586	0.081467623	0.025109112
2020-06-10T19:45:00	0.2029	12.092	200.0	0.476219236	0.565254720	0.007971514	0.082240637	0.025347363
2020-06-10T19:50:00	0.2028	12.085	200.0	0.475576463	0.564378070	0.007951987	0.082039186	0.025285274
2020-06-10T19:55:00	0.2031	12.077	200.0	0.476662971	0.565860104	0.007985007	0.082379850	0.025390270
2020-06-10T20:00:00	0.2031	12.069	200.0	0.476711927	0.565926904	0.007986497	0.082395216	0.025395006
2020-06-10T20:05:00	0.2037	12.063	200.0	0.478834940	0.568825563	0.008051219	0.083062941	0.025600805
2020-06-10T20:10:00	0.2045	12.055	202.0	0.481647260	0.572670901	0.008137353	0.083951570	0.025874689
2020-06-10T20:15:00	0.2043	12.048	202.0	0.481005517	0.571792878	0.008117658	0.083748382	0.025812065
2020-06-10T20:20:00	0.2041	12.040	202.0	0.480363653	0.570915018	0.008097983	0.083545399	0.025749503
2020-06-10T20:25:00	0.2044	12.033	202.0	0.481103304	0.571926647	0.008120658	0.083779328	0.025821602
2020-06-10T20:30:00	0.2049	12.026	202.0	0.482878427	0.574356284	0.008175203	0.084342064	0.025995043
2020-06-10T20:35:00	0.2056	12.020	202.0	0.485342506	0.577733077	0.008251219	0.085126301	0.026236753
2020-06-10T20:40:00	0.2057	12.015	202.0	0.485736223	0.578273079	0.008263397	0.085251942	0.026275476
2020-06-10T20:45:00	0.2058	12.009	203.0	0.486129893	0.578813141	0.008275583	0.085377660	0.026314224
2020-06-10T20:50:00	0.2055	12.001	203.0	0.485144088	0.577460983	0.008245085	0.085063018	0.026217248
2020-06-10T20:55:00	0.2059	11.994	202.0	0.486572333	0.579420256	0.008289289	0.085519061	0.026357805
2020-06-10T21:00:00	0.2059	11.988	201.0	0.486276351	0.579014093	0.008280118	0.085424454	0.026328646
2020-06-10T21:05:00	0.2063	11.982	202.0	0.487704120	0.580974005	0.008324400	0.085881304	0.026469452
2020-06-10T21:10:00	0.2061	11.976	202.0	0.487063522	0.580094448	0.008304518	0.085676179	0.026406231
2020-06-10T21:15:00	0.2060	11.970	202.0	0.486767583	0.579688228	0.008295341	0.085581499	0.026377049
2020-06-10T21:20:00	0.2057	11.963	202.0	0.485781962	0.578335821	0.008264812	0.085266544	0.026279977
2020-06-10T21:25:00	0.2068	11.957	202.0	0.489622108	0.583609413	0.008384071	0.086496914	0.026659189
2020-06-10T21:30:00	0.2064	11.951	203.0	0.488292725	0.581782464	0.008342690	0.086069994	0.026527608
2020-06-10T21:35:00	0.2067	11.944	202.0	0.489030650	0.582796408	0.008365647	0.086306843	0.026600607
2020-06-10T21:40:00	0.2067	11.938	203.0	0.489079428	0.582863447	0.008367166	0.086322511	0.026605436
2020-06-10T21:45:00	0.2064	11.932	202.0	0.488094479	0.581510139	0.008336528	0.086006419	0.026508014
2020-06-10T21:50:00	0.2067	11.927	201.0	0.489176983	0.582997527	0.008370204	0.086353849	0.026615095
2020-06-10T21:55:00	0.2066	11.921	202.0	0.488881228	0.582591060	0.008360996	0.086258858	0.026585818
2020-06-10T22:00:00	0.2068	11.917	201.0	0.489619025	0.583605175	0.008383975	0.086495923	0.026658883
2020-06-10T22:05:00	0.2068	11.912	202.0	0.489372083	0.583265700	0.008376280	0.086416541	0.026634417
2020-06-10T22:10:00	0.2072	11.908	202.0	0.490847305	0.585294435	0.008422299	0.086891304	0.026780744
2020-06-10T22:15:00	0.2068	11.903	199.0	0.489567172	0.583533888	0.008382359	0.086479251	0.026653745
2020-06-10T22:20:00	0.2063	11.898	202.0	0.487941932	0.581300610	0.008331787	0.085957515	0.026492941
2020-06-10T22:25:00	0.2061	11.894	201.0	0.487005460	0.580014745	0.008302717	0.085657600	0.026400504
2020-06-10T22:30:00	0.2061	11.890	201.0	0.487103074	0.580148746	0.008305745	0.085688837	0.026410132
2020-06-10T22:35:00	0.2063	11.886	201.0	0.487890053	0.581229358	0.008330176	0.085940887	0.026487816
2020-06-10T22:40:00	0.2066	11.882	201.0	0.488676850	0.582310215	0.008354637	0.086193245	0.026565595
2020-06-10T22:45:00	0.2063	11.878	201.0	0.487740581	0.581024077	0.008325533	0.085892986	0.026473053
2020-06-10T22:50:00	0.2060	11.874	201.0	0.486804054	0.579738287	0.008296471	0.085593165	0.026380645
2020-06-10T22:55:00	0.2055	11.870	201.0	0.485177490	0.577506787	0.008246117	0.085073670	0.026220531
2020-06-10T23:00:00	0.2051	11.867	201.0	0.483550146	0.575276333	0.008195891	0.084555494	0.026060825
2020-06-10T23:05:00	0.2042	11.863	200.0	0.480540718	0.571157151	0.008103408	0.083601370	0.025766754
2020-06-10T23:10:00	0.2049	11.858	201.0	0.483055360	0.574598594	0.008180650	0.084398256	0.026012362
2020-06-10T23:15:00	0.2045	11.853	200.0	0.481426998	0.572369504	0.008130591	0.083881803	0.025853186
2020-06-10T23:20:00	0.2044	11.850	201.0	0.481179459	0.572030829	0.008122994	0.083803431	0.025829031
2020-06-10T23:25:00	0.2036	11.846	202.0	0.478513543	0.568386512	0.008041404	0.082961685	0.025569597
2020-06-10T23:30:00	0.2034	11.843	201.0	0.477920145	0.567576106	0.008023299	0.082774895	0.025512027
2020-06-10T23:35:00	0.2036	11.839	199.0	0.478363657	0.568181786	0.008036829	0.082914484	0.025555049
2020-06-10T23:40:00	0.2031	11.836	200.0	0.476733037	0.565955709	0.007987139	0.082401843	0.025397048
2020-06-10T23:45:00	0.2028	11.831	201.0	0.475793463	0.564673991	0.007958577	0.082107169	0.025306227
2020-06-10T23:50:00	0.2036	11.827	202.0	0.478311632	0.568110730	0.008035241	0.082898104	0.025550001
2020-06-10T23:55:00	0.2033	11.822	201.0	0.477372497	0.566828429	0.008006607	0.082602691	0.025458952
2020-06-11T00:00:00	0.2028	11.818	200.0	0.475741398	0.564602987	0.007956995	0.082090855	0.025301199
2020-06-11T00:05:00	0.2033	11.814	199.0	0.477568277	0.567095691	0.008012572	0.082664233	0.025477919
2020-06-11T00:10:00	0.2032	11.810	200.0	0.476974714	0.566285505	0.007994494	0.082477723	0.025420435
2020-06-11T00:15:00	0.2030	11.807	199.0	0.476381046	0.565475458	0.007976433	0.082291388	0.025363005
2020-06-11T00:20:00	0.2032	11.803	201.0	0.477170517	0.566552737	0.008000456	0.082539225	0.025439391
2020-06-11T00:25:00	0.2025	11.798	200.0	0.474501441	0.562912629	0.007919383	0.081702810	0.025181600
2020-06-11T00:30:00	0.2027	11.793	201.0	0.475291352	0.563989325	0.007943334	0.081949908	0.025257758
2020-06-11T00:35:00	0.2025	11.790	200.0	0.474697388	0.563179671	0.007925321	0.081764072	0.025200481
2020-06-11T00:40:00	0.2022	11.786	200.0	0.473757249	0.561898704	0.007896851	0.081470351	0.025109953
2020-06-11T00:45:00	0.2014	11.783	200.0	0.470739094	0.557791137	0.007805794	0.080530940	0.024820418
2020-06-11T00:50:00	0.2023	11.779	200.0	0.473953239	0.562165688	0.007902781	0.081531540	0.025128812
2020-06-11T00:55:00	0.2022	11.777	200.0	0.473705153	0.561827743	0.007895274	0.081454090	0.025104942
2020-06-11T01:00:00	0.2018	11.773	201.0	0.472418528	0.560075874	0.007856398	0.081053006	0.024981324
2020-06-11T01:05:00	0.2017	11.770	200.0	0.471824060	0.559266890	0.007838467	0.080868020	0.024924309
2020-06-11T01:10:00	0.2006	11.766	201.0	0.468110910	0.554220196	0.007726927	0.079717285	0.024569642
2020-06-11T01:15:00	0.1995	11.762	200.0	0.464393669	0.549178902	0.007616054	0.078573425	0.024217093
2020-06-11T01:20:00	0.1991	11.758	200.0	0.462756286	0.546961770	0.007567466	0.078072155	0.024062597
2020-06-11T01:25:00	0.1998	11.756	200.0	0.465284194	0.550385627	0.007642544	0.078846713	0.024301323
2020-06-11T01:30:00	0.1994	11.753	200.0	0.463994354	0.548638005	0.007604191	0.078451033	0.024179370
2020-06-11T01:35:00	0.1989	11.750	200.0	0.462356777	0.546421129	0.007555635	0.077950089	0.024024974
2020-06-11T01:40:00	0.1990	11.747	200.0	0.462455105	0.546554181	0.007558546	0.077980123	0.024034231
2020-06-11T01:45:00	0.1986	11.743	200.0	0.461164180	0.544807984	0.007520369	0.077586260	0.023912839
2020-06-11T01:50:00	0.1990	11.740	200.0	0.462651753	0.546820297	0.007564370	0.078040207	0.024052750
2020-06-11T01:55:00	0.1982	11.737	200.0	0.459623636	0.542725859	0.007474935	0.077117521	0.023768369
2020-06-11T02:00:00	0.1980	11.733	200.0	0.459026907	0.541919852	0.007457372	0.076936330	0.023712524
2020-06-11T02:05:00	0.1991	11.730	201.0	0.462946703	0.547219499	0.007573109	0.078130369	0.024080538
2020-06-11T02:10:00	0.1992	11.726	202.0	0.463392186	0.547822571	0.007586318	0.078266643	0.024122539
2020-06-11T02:15:00	0.1996	11.723	201.0	0.464531756	0.549365978	0.007620159	0.078615771	0.024230144
2020-06-11T02:20:00	0.1994	11.721	201.0	0.463935895	0.548558830	0.007602455	0.078433123	0.024173850
2020-06-11T02:25:00	0.1998	11.718	200.0	0.465422244	0.550572751	0.007646654	0.078889121	0.024314393
2020-06-11T02:30:00	0.1999	11.715	201.0	0.465520483	0.550705921	0.007649580	0.078919305	0.024323696
2020-06-11T02:35:00	0.1991	11.713	200.0	0.462842175	0.547078018	0.007570011	0.078098410	0.024070689
2020-06-11T02:40:00	0.1992	11.709	200.0	0.463287672	0.547681072	0.007583218	0.078234661	0.024112682
2020-06-11T02:45:00	0.1994	11.706	199.0	0.464080212	0.548754294	0.007606741	0.078477341	0.024187479
2020-06-11T02:50:00	0.1995	11.703	200.0	0.464178490	0.548887413	0.007609660	0.078507460	0.024196761
2020-06-11T02:55:00	0.1997	11.701	201.0	0.464970820	0.549960910	0.007633217	0.078750490	0.024271666
2020-06-11T03:00:00	0.1994	11.697	200.0	0.464027966	0.548683530	0.007605189	0.078461331	0.024182544
2020-06-11T03:05:00	0.1998	11.694	200.0	0.465167321	0.550227219	0.007639064	0.078810820	0.024290260
2020-06-11T03:10:00	0.1993	11.691	200.0	0.463530314	0.548009593	0.007590416	0.078308920	0.024135570
2020-06-11T03:15:00	0.1998	11.689	199.0	0.465363810	0.550493543	0.007644914	0.078871169	0.024308860
2020-06-11T03:20:00	0.1998	11.687	199.0	0.465462051	0.550626711	0.007647840	0.078901351	0.024318163
2020-06-11T03:25:00	0.2004	11.684	200.0	0.467294497	0.553112043	0.007702509	0.079465363	0.024491997
2020-06-11T03:30:00	0.2000	11.682	200.0	0.466005426	0.551363409	0.007664031	0.079068391	0.024369646
2020-06-11T03:35:00	0.2001	11.679	199.0	0.466450505	0.551967013	0.007677305	0.079205343	0.024411856
2020-06-11T03:40:00	0.2004	11.677	200.0	0.467242301	0.553041213	0.007700949	0.079449270	0.024487037
2020-06-11T03:45:00	0.2004	11.675	199.0	0.467340487	0.553174453	0.007703883	0.079479544	0.024496367
2020-06-11T03:50:00	0.2004	11.672	199.0	0.467438670	0.553307697	0.007706818	0.079509822	0.024505699
2020-06-11T03:55:00	0.2003	11.670	199.0	0.467190104	0.552970385	0.007699389	0.079433179	0.024482077
2020-06-11T04:00:00	0.2009	11.668	199.0	0.469021612	0.555456955	0.007754211	0.079998767	0.024656397
2020-06-11T04:05:00	0.2014	11.666	200.0	0.470754043	0.557811463	0.007806244	0.080535579	0.024821848
2020-06-11T04:10:00	0.2014	11.664	200.0	0.470754043	0.557811463	0.007806244	0.080535579	0.024821848
2020-06-11T04:15:00	0.2011	11.662	199.0	0.469714691	0.556398617	0.007775007	0.080213312	0.024722522
2020-06-11T04:20:00	0.2014	11.660	199.0	0.470754043	0.557811463	0.007806244	0.080535579	0.024821848
2020-06-11T04:25:00	0.2016	11.658	199.0	0.471446766	0.558753595	0.007827098	0.080750722	0.024888157
2020-06-11T04:30:00	0.2013	11.657	198.0	0.470407628	0.557340467	0.007795826	0.080428097	0.024788721
2020-06-11T04:35:00	0.2006	11.655	199.0	0.467981727	0.554044814	0.007723061	0.079677397	0.024557348
2020-06-11T04:40:00	0.2005	11.654	199.0	0.467635027	0.553574195	0.007712689	0.079570393	0.024524368
2020-06-11T04:45:00	0.2001	11.652	199.0	0.466247872	0.551692187	0.007671260	0.079142978	0.024392634
2020-06-11T04:50:00	0.2001	11.652	199.0	0.466247872	0.551692187	0.007671260	0.079142978	0.024392634
2020-06-11T04:55:00	0.2005	11.652	199.0	0.467635027	0.553574195	0.007712689	0.079570393	0.024524368
2020-06-11T05:00:00	0.2011	11.650	199.0	0.469714691	0.556398617	0.007775007	0.080213312	0.024722522
2020-06-11T05:05:00	0.2010	11.650	199.0	0.469368169	0.555927762	0.007764606	0.080106009	0.024689450
2020-06-11T05:10:00	0.2014	11.650	199.0	0.470754043	0.557811463	0.007806244	0.080535579	0.024821848
2020-06-11T05:15:00	0.2013	11.650	199.0	0.470407628	0.557340467	0.007795826	0.080428097	0.024788721
2020-06-11T05:20:00	0.2009	11.650	199.0	0.469021612	0.555456955	0.007754211	0.079998767	0.024656397
2020-06-11T05:25:00	0.2011	11.652	199.0	0.469714691	0.556398617	0.007775007	0.080213312	0.024722522
2020-06-11T05:30:00	0.2011	11.654	199.0	0.469714691	0.556398617	0.007775007	0.080213312	0.024722522
2020-06-11T05:35:00	0.2014	11.658	199.0	0.470754043	0.557811463	0.007806244	0.080535579	0.024821848
2020-06-11T05:40:00	0.2006	11.662	199.0	0.467981727	0.554044814	0.007723061	0.079677397	0.024557348
2020-06-11T05:45:00	0.2011	11.665	199.0	0.469714691	0.556398617	0.007775007	0.080213312	0.024722522
2020-06-11T05:50:00	0.2019	11.665	199.0	0.472485585	0.560167146	0.007858421	0.081073886	0.024987759
2020-06-11T05:55:00	0.2015	11.666	199.0	0.471100422	0.558282505	0.007816668	0.080643121	0.024854993
2020-06-11T06:00:00	0.2013	11.668	198.0	0.470407628	0.557340467	0.007795826	0.080428097	0.024788721
2020-06-11T06:05:00	0.2021	11.670	198.0	0.473177953	0.561109748	0.007879333	0.081289626	0.025054252
2020-06-11T06:10:00	0.2018	11.670	199.0	0.472139347	0.559695915	0.007847974	0.080966105	0.024954540
2020-06-11T06:15:00	0.2019	11.671	199.0	0.472485585	0.560167146	0.007858421	0.081073886	0.024987759
2020-06-11T06:20:00	0.2024	11.670	197.0	0.474216240	0.562524005	0.007910744	0.081613685	0.025154130
2020-06-11T06:25:00	0.2028	11.671	197.0	0.475600126	0.564410338	0.007952706	0.082046598	0.025287558
2020-06-11T06:30:00	0.2027	11.670	197.0	0.475254208	0.563938684	0.007942207	0.081938280	0.025254174
2020-06-11T06:35:00	0.2024	11.670	197.0	0.474216240	0.562524005	0.007910744	0.081613685	0.025154130
2020-06-11T06:40:00	0.2020	11.671	197.0	0.472831787	0.560638424	0.007868874	0.081181726	0.025020996
2020-06-11T06:45:00	0.2023	11.675	197.0	0.473870180	0.562052539	0.007900268	0.081505606	0.025120819
2020-06-11T06:50:00	0.2023	11.681	197.0	0.473870180	0.562052539	0.007900268	0.081505606	0.025120819
2020-06-11T06:55:00	0.2027	11.685	197.0	0.475254208	0.563938684	0.007942207	0.081938280	0.025254174
2020-06-11T07:00:00	0.2025	11.689	196.0	0.474562265	0.562995517	0.007921226	0.081721824	0.025187460
2020-06-11T07:05:00	0.2022	11.690	197.0	0.473524084	0.561581120	0.007889797	0.081397586	0.025087527
2020-06-11T07:10:00	0.2020	11.693	196.0	0.472831787	0.560638424	0.007868874	0.081181726	0.025020996
2020-06-11T07:15:00	0.2013	11.699	196.0	0.470407628	0.557340467	0.007795826	0.080428097	0.024788721
2020-06-11T07:20:00	0.2012	11.702	197.0	0.470061177	0.556869518	0.007785413	0.080320675	0.024755612
2020-06-11T07:25:00	0.2015	11.705	197.0	0.471100422	0.558282505	0.007816668	0.080643121	0.024854993
2020-06-11T07:30:00	0.2015	11.708	197.0	0.471100422	0.558282505	0.007816668	0.080643121	0.024854993
2020-06-11T07:35:00	0.2017	11.709	197.0	0.471793074	0.559224731	0.007837533	0.080858384	0.024921339
2020-06-11T07:40:00	0.2024	11.714	197.0	0.474216240	0.562524005	0.007910744	0.081613685	0.025154130
2020-06-11T07:45:00	0.2024	11.716	197.0	0.474216240	0.562524005	0.007910744	0.081613685	0.025154130
2020-06-11T07:50:00	0.2025	11.718	197.0	0.474562265	0.562995517	0.007921226	0.081721824	0.025187460
2020-06-11T07:55:00	0.2029	11.721	196.0	0.475946009	0.564882039	0.007963211	0.082154976	0.025320961
2020-06-11T08:00:00	0.2031	11.725	197.0	0.476637670	0.565825581	0.007984238	0.082371909	0.025387822
2020-06-11T08:05:00	0.2036	11.728	197.0	0.478366202	0.568185261	0.008036907	0.082915286	0.025555296
2020-06-11T08:10:00	0.2035	11.730	197.0	0.478020566	0.567713231	0.008026361	0.082806491	0.025521765
2020-06-11T08:15:00	0.2030	11.732	197.0	0.476291857	0.565353787	0.007973721	0.082263413	0.025354383
2020-06-11T08:20:00	0.2022	11.735	197.0	0.473524084	0.561581120	0.007889797	0.081397586	0.025087527
2020-06-11T08:25:00	0.2025	11.738	197.0	0.474562265	0.562995517	0.007921226	0.081721824	0.025187460
2020-06-11T08:30:00	0.2022	11.742	197.0	0.473524084	0.561581120	0.007889797	0.081397586	0.025087527
2020-06-11T08:35:00	0.2027	11.747	197.0	0.475254208	0.563938684	0.007942207	0.081938280	0.025254174
2020-06-11T08:40:00	0.2027	11.753	197.0	0.475254208	0.563938684	0.007942207	0.081938280	0.025254174
2020-06-11T08:45:00	0.2029	11.761	197.0	0.475946009	0.564882039	0.007963211	0.082154976	0.025320961
2020-06-11T08:50:00	0.2030	11.772	196.0	0.476291857	0.565353787	0.007973721	0.082263413	0.025354383
2020-06-11T08:55:00	0.2026	11.779	198.0	0.474908254	0.563467077	0.007931713	0.081830022	0.025220808
2020-06-11T09:00:00	0.2031	11.791	197.0	0.476637670	0.565825581	0.007984238	0.082371909	0.025387822
2020-06-11T09:05:00	0.2039	11.802	197.0	0.479402898	0.569601633	0.008068577	0.083242026	0.025656001
2020-06-11T09:10:00	0.2028	11.814	198.0	0.475600126	0.564410338	0.007952706	0.082046598	0.025287558
2020-06-11T09:15:00	0.2026	11.828	197.0	0.474908254	0.563467077	0.007931713	0.081830022	0.025220808
2020-06-11T09:20:00	0.2014	11.834	197.0	0.470754043	0.557811463	0.007806244	0.080535579	0.024821848
2020-06-11T09:25:00	0.2009	11.836	197.0	0.469021612	0.555456955	0.007754211	0.079998767	0.024656397
2020-06-11T09:30:00	0.1999	11.841	197.0	0.465554080	0.550751465	0.007650581	0.078929630	0.024326878
2020-06-11T09:35:00	0.2006	11.847	197.0	0.467981727	0.554044814	0.007723061	0.079677397	0.024557348
2020-06-11T09:40:00	0.2002	11.860	198.0	0.466594714	0.552162619	0.007681609	0.079249742	0.024425540
2020-06-11T09:45:00	0.1987	11.896	198.0	0.461388326	0.545111085	0.007526991	0.077654577	0.023933895
2020-06-11T09:50:00	0.1996	11.923	198.0	0.464513124	0.549340736	0.007619605	0.078610057	0.024228383
2020-06-11T09:55:00	0.2009	11.925	198.0	0.469021612	0.555456955	0.007754211	0.079998767	0.024656397
2020-06-11T10:00:00	0.2012	11.942	198.0	0.470061177	0.556869518	0.007785413	0.080320675	0.024755612
2020-06-11T10:05:00	0.2013	11.987	198.0	0.470652856	0.557673877	0.007803200	0.080504177	0.024812169
2020-06-11T10:10:00	0.2018	12.004	198.0	0.472283313	0.559891842	0.007852317	0.081010912	0.024968350
2020-06-11T10:15:00	0.2025	12.020	198.0	0.474605060	0.563053839	0.007922522	0.081735203	0.025191583
2020-06-11T10:20:00	0.2026	12.041	198.0	0.474849984	0.563387653	0.007929946	0.081811795	0.025215190
2020-06-11T10:25:00	0.2029	12.055	198.0	0.476132589	0.565136528	0.007968880	0.082213467	0.025338989
2020-06-11T10:30:00	0.2036	12.077	199.0	0.478451695	0.568302033	0.008039516	0.082942207	0.025563594
2020-06-11T10:35:00	0.2038	12.098	199.0	0.479041908	0.569108339	0.008057542	0.083128179	0.025620912
2020-06-11T10:40:00	0.2036	12.109	199.0	0.478595393	0.568498316	0.008043903	0.082987466	0.025577543
2020-06-11T10:45:00	0.2036	12.124	199.0	0.478494441	0.568360420	0.008040821	0.082955669	0.025567743
2020-06-11T10:50:00	0.2043	12.150	199.0	0.480811930	0.571528080	0.008111722	0.083687137	0.025793188
2020-06-11T10:55:00	0.2036	12.175	199.0	0.478638137	0.568556706	0.008045208	0.083000931	0.025581693
2020-06-11T11:00:00	0.2044	12.182	199.0	0.481300864	0.572196926	0.008126719	0.083841864	0.025840877
2020-06-11T11:05:00	0.2048	12.181	199.0	0.482581028	0.573949055	0.008166052	0.084247655	0.025965945
2020-06-11T11:10:00	0.2055	12.181	199.0	0.484895726	0.577120446	0.008237410	0.084983839	0.026192844
2020-06-11T11:15:00	0.2065	12.192	199.0	0.488587438	0.582187361	0.008351855	0.086164548	0.026556751
2020-06-11T11:20:00	0.2068	12.208	199.0	0.489520391	0.583469576	0.008380901	0.086464211	0.026649110
2020-06-11T11:25:00	0.2067	12.216	200.0	0.489075253	0.582857708	0.008367036	0.086321169	0.026605023
2020-06-11T11:30:00	0.2063	12.223	200.0	0.487940839	0.581299109	0.008331753	0.085957165	0.026492833
2020-06-11T11:35:00	0.2072	12.235	199.0	0.490940635	0.585422842	0.008425214	0.086921383	0.026790015
2020-06-11T11:40:00	0.2074	12.249	200.0	0.491528680	0.586232055	0.008443596	0.087111023	0.026848463
2020-06-11T11:45:00	0.2078	12.261	200.0	0.492804995	0.587989355	0.008483561	0.087523332	0.026975541
2020-06-11T11:50:00	0.2074	12.277	201.0	0.491671825	0.586429080	0.008448074	0.087157218	0.026862701
2020-06-11T11:55:00	0.2076	12.300	200.0	0.492259744	0.587238463	0.008466476	0.087347072	0.026921216
2020-06-11T12:00:00	0.2071	12.314	202.0	0.490437680	0.584730942	0.008409508	0.086759347	0.026740073
2020-06-11T12:05:00	0.2075	12.320	200.0	0.492058649	0.586961586	0.008460179	0.087282110	0.026901194
2020-06-11T12:10:00	0.2077	12.337	201.0	0.492646500	0.587771060	0.008478593	0.087472078	0.026959744
2020-06-11T12:15:00	0.2076	12.351	200.0	0.492201771	0.587158641	0.008464661	0.087328342	0.026915443
2020-06-11T12:20:00	0.2072	12.385	200.0	0.491068400	0.585598637	0.008429206	0.086962569	0.026802708
2020-06-11T12:25:00	0.2071	12.425	201.0	0.490623465	0.584986496	0.008415308	0.086819183	0.026758515
2020-06-11T12:30:00	0.2072	12.484	201.0	0.490867235	0.585321854	0.008422921	0.086897727	0.026782723
2020-06-11T12:35:00	0.2071	12.516	201.0	0.490422273	0.584709749	0.008409027	0.086754385	0.026738544
2020-06-11T12:40:00	0.2078	12.542	201.0	0.493075776	0.588362349	0.008492052	0.087610931	0.027002540
2020-06-11T12:45:00	0.2076	12.588	202.0	0.492286917	0.587275879	0.008467327	0.087355852	0.026923922
2020-06-11T12:50:00	0.2073	12.655	201.0	0.491153574	0.585715837	0.008431868	0.086990031	0.026811172
2020-06-11T12:55:00	0.2066	12.736	202.0	0.488986398	0.582735591	0.008364270	0.086292630	0.026596227
2020-06-11T13:00:00	0.2071	12.828	202.0	0.490608058	0.584965302	0.008414827	0.086814220	0.026756986
2020-06-11T13:05:00	0.2070	12.908	203.0	0.490163062	0.584353243	0.008400939	0.086670937	0.026712824
2020-06-11T13:10:00	0.2073	12.984	203.0	0.491095583	0.585636039	0.008430056	0.086971333	0.026805409
2020-06-11T13:15:00	0.2073	13.044	203.0	0.491339319	0.585971443	0.008437675	0.087049933	0.026829635
2020-06-11T13:20:00	0.2070	13.089	204.0	0.490205660	0.584411827	0.008402268	0.086684648	0.026717050
2020-06-11T13:25:00	0.2070	13.123	204.0	0.490105054	0.584273468	0.008399129	0.086652267	0.026707070
2020-06-11T13:30:00	0.2067	13.144	204.0	0.489315505	0.583187929	0.008374518	0.086398358	0.026628813
2020-06-11T13:35:00	0.2062	13.162	204.0	0.487491863	0.580682535	0.008317810	0.085813310	0.026448496
2020-06-11T13:40:00	0.2057	13.188	204.0	0.485667241	0.578178457	0.008261262	0.085229922	0.026268690
2020-06-11T13:45:00	0.2053	13.231	204.0	0.484186680	0.576148519	0.008215519	0.084757991	0.026123236
2020-06-11T13:50:00	0.2055	13.285	205.0	0.485120842	0.577429109	0.008244366	0.085055606	0.026214964
2020-06-11T13:55:00	0.2057	13.334	205.0	0.485709895	0.578236966	0.008262582	0.085243538	0.026272886
2020-06-11T14:00:00	0.2049	13.373	205.0	0.482848989	0.574315972	0.008174297	0.084332717	0.025992162
2020-06-11T14:05:00	0.2049	13.408	205.0	0.483093318	0.574650580	0.008181819	0.084410314	0.026016079
2020-06-11T14:10:00	0.2044	13.427	206.0	0.481266328	0.572149676	0.008125659	0.083830930	0.025837507
2020-06-11T14:15:00	0.2037	13.420	206.0	0.478747265	0.568705784	0.008048541	0.083035313	0.025592290
2020-06-11T14:20:00	0.2041	13.407	205.0	0.480373825	0.570928927	0.008098295	0.083548614	0.025750494
2020-06-11T14:25:00	0.2041	13.405	205.0	0.480272926	0.570790960	0.008095204	0.083516727	0.025740666
2020-06-11T14:30:00	0.2040	13.412	205.0	0.479826573	0.570180721	0.008081538	0.083375741	0.025697213
2020-06-11T14:35:00	0.2044	13.418	205.0	0.481107294	0.571932105	0.008120780	0.083780590	0.025821992
2020-06-11T14:40:00	0.2048	13.421	205.0	0.482732722	0.574156760	0.008170719	0.084295803	0.025980785
2020-06-11T14:45:00	0.2045	13.418	208.0	0.481596185	0.572601008	0.008135785	0.083935390	0.025869702
2020-06-11T14:50:00	0.2045	13.415	205.0	0.481495323	0.572462993	0.008132688	0.083903442	0.025859856
2020-06-11T14:55:00	0.2038	13.413	205.0	0.479321968	0.569491033	0.008066103	0.083216496	0.025648132
2020-06-11T15:00:00	0.2040	13.414	205.0	0.479912029	0.570297541	0.008084154	0.083402724	0.025705530
2020-06-11T15:05:00	0.2041	13.409	205.0	0.480156570	0.570631866	0.008091640	0.083479963	0.025729335
2020-06-11T15:10:00	0.2045	13.412	206.0	0.481437166	0.572383417	0.008130903	0.083885024	0.025854179
2020-06-11T15:15:00	0.2045	13.419	205.0	0.481681597	0.572717889	0.008138407	0.083962449	0.025878042
2020-06-11T15:20:00	0.2052	13.427	205.0	0.483996908	0.575888459	0.008209664	0.084697595	0.026104621
2020-06-11T15:25:00	0.2051	13.432	205.0	0.483551045	0.575277564	0.008195918	0.084555780	0.026060913
2020-06-11T15:30:00	0.2046	13.436	205.0	0.482069560	0.573248864	0.008150326	0.084085412	0.025915940
2020-06-11T15:35:00	0.2043	13.438	205.0	0.480932801	0.571693410	0.008115428	0.083725374	0.025804973
2020-06-11T15:40:00	0.2038	13.435	205.0	0.479104646	0.569194063	0.008059460	0.083147959	0.025627009
2020-06-11T15:45:00	0.2034	13.428	205.0	0.477621215	0.567167961	0.008014186	0.082680877	0.025483049
2020-06-11T15:50:00	0.2037	13.420	206.0	0.478902770	0.568918233	0.008053291	0.083084319	0.025607394
2020-06-11T15:55:00	0.2038	13.410	205.0	0.479147383	0.569252461	0.008060766	0.083161435	0.025631162
2020-06-11T16:00:00	0.2033	13.397	205.0	0.477318263	0.566754400	0.008004955	0.082585648	0.025453699
2020-06-11T16:05:00	0.2024	13.386	205.0	0.474309481	0.562651050	0.007913568	0.081642817	0.025163109
2020-06-11T16:10:00	0.2022	13.371	205.0	0.473721538	0.561850062	0.007895770	0.081459205	0.025106518
2020-06-11T16:15:00	0.2025	13.357	206.0	0.474517823	0.562934953	0.007919879	0.081707931	0.025183178
2020-06-11T16:20:00	0.2028	13.344	205.0	0.475659833	0.564491756	0.007954519	0.082065301	0.025293323
2020-06-11T16:25:00	0.2023	13.330	206.0	0.474034101	0.562275850	0.007905229	0.081556792	0.025136595
2020-06-11T16:30:00	0.2013	13.315	206.0	0.470676005	0.557705352	0.007803896	0.080511360	0.024814383
2020-06-11T16:35:00	0.2013	13.301	205.0	0.470433878	0.557376154	0.007796615	0.080436239	0.024791230
2020-06-11T16:40:00	0.2003	13.289	205.0	0.467072197	0.552810398	0.007695866	0.079396835	0.024470876
2020-06-11T16:45:00	0.2006	13.277	205.0	0.468216727	0.554363864	0.007730095	0.079749966	0.024579714
2020-06-11T16:50:00	0.1999	13.265	205.0	0.465546771	0.550741557	0.007650363	0.078927384	0.024326186
2020-06-11T16:55:00	0.2004	13.252	205.0	0.467385376	0.553235372	0.007705225	0.079493386	0.024500634
2020-06-11T17:00:00	0.2001	13.238	205.0	0.466449405	0.551965521	0.007677272	0.079205005	0.024411752
2020-06-11T17:05:00	0.2000	13.223	205.0	0.465860092	0.551166344	0.007659698	0.079023697	0.024355871
2020-06-11T17:10:00	0.1998	13.209	205.0	0.465270676	0.550367304	0.007642141	0.078842561	0.024300043
2020-06-11T17:15:00	0.1993	13.196	205.0	0.463639931	0.548158023	0.007593669	0.078342479	0.024145913
2020-06-11T17:20:00	0.1992	13.181	204.0	0.463397298	0.547829492	0.007586469	0.078268207	0.024123022
2020-06-11T17:25:00	0.1992	13.166	205.0	0.463154647	0.547500983	0.007579273	0.078193965	0.024100139
2020-06-11T17:30:00	0.2001	13.150	205.0	0.466382229	0.551874408	0.007675268	0.079184327	0.024405379
2020-06-11T17:35:00	0.2005	13.133	205.0	0.467873703	0.553898170	0.007719829	0.079644050	0.024547070
2020-06-11T17:40:00	0.2011	13.118	204.0	0.469711041	0.556393657	0.007774897	0.080212182	0.024722173
2020-06-11T17:45:00	0.2009	13.101	204.0	0.469122297	0.555593729	0.007757230	0.080029917	0.024665998
2020-06-11T17:50:00	0.2020	13.083	204.0	0.473036574	0.560917241	0.007875061	0.081245550	0.025040667
2020-06-11T17:55:00	0.2013	13.064	204.0	0.470370430	0.557289897	0.007794707	0.080416560	0.024785165
2020-06-11T18:00:00	0.2017	13.046	204.0	0.471860143	0.559315987	0.007839555	0.080879242	0.024927768
2020-06-11T18:05:00	0.2012	13.028	204.0	0.470232582	0.557102506	0.007790564	0.080373813	0.024771990
2020-06-11T18:10:00	0.2011	13.009	204.0	0.469990423	0.556773350	0.007783288	0.080298745	0.024748853
2020-06-11T18:15:00	0.2011	12.992	206.0	0.469748246	0.556444217	0.007776014	0.080223707	0.024725725
2020-06-11T18:20:00	0.2011	12.975	206.0	0.469852560	0.556585980	0.007779147	0.080256024	0.024735686
2020-06-11T18:25:00	0.2004	12.956	207.0	0.467530645	0.553432522	0.007709568	0.079538191	0.024514443
2020-06-11T18:30:00	0.2009	12.939	206.0	0.469021612	0.555456955	0.007754211	0.079998767	0.024656397
2020-06-11T18:35:00	0.2018	12.922	206.0	0.472243587	0.559837776	0.007851119	0.080998546	0.024964539
2020-06-11T18:40:00	0.2023	12.905	206.0	0.474078549	0.562336406	0.007906575	0.081570674	0.025140874
2020-06-11T18:45:00	0.2031	12.887	206.0	0.476604183	0.565779891	0.007983219	0.082361400	0.025384583
2020-06-11T18:50:00	0.2032	12.870	207.0	0.477054055	0.566393786	0.007996910	0.082502641	0.025428115
2020-06-11T18:55:00	0.2042	12.854	206.0	0.480613794	0.571257090	0.008105648	0.083624475	0.025773875
2020-06-11T19:00:00	0.2040	12.838	207.0	0.480026946	0.570454644	0.008087672	0.083439017	0.025716715
2020-06-11T19:05:00	0.2039	12.822	206.0	0.479439996	0.569652335	0.008069712	0.083253730	0.025659608
2020-06-11T19:10:00	0.2031	12.806	206.0	0.476778898	0.566018289	0.007988535	0.082416239	0.025401485
2020-06-11T19:15:00	0.2027	12.790	207.0	0.475499634	0.564273308	0.007949655	0.082015124	0.025277858
2020-06-11T19:20:00	0.2029	12.774	206.0	0.475949653	0.564887008	0.007963321	0.082156118	0.025321313
2020-06-11T19:25:00	0.2033	12.758	206.0	0.477436910	0.566916356	0.008008570	0.082622937	0.025465191
2020-06-11T19:30:00	0.2037	12.743	206.0	0.478923514	0.568946575	0.008053925	0.083090857	0.025609409
2020-06-11T19:35:00	0.2041	12.728	206.0	0.480064038	0.570505355	0.008088807	0.083450732	0.025720326
2020-06-11T19:40:00	0.2042	12.713	206.0	0.480513450	0.571119862	0.008102573	0.083592749	0.025764097
2020-06-11T19:45:00	0.2049	12.699	206.0	0.483034290	0.574569736	0.008180001	0.084391564	0.026010300
2020-06-11T19:50:00	0.2039	12.686	206.0	0.479685119	0.569987363	0.008077210	0.083331085	0.025683450
2020-06-11T19:55:00	0.2038	12.673	206.0	0.479098110	0.569185132	0.008059260	0.083145898	0.025626373
2020-06-11T20:00:00	0.2038	12.659	206.0	0.479202135	0.569327277	0.008062439	0.083178701	0.025636483
2020-06-11T20:05:00	0.2040	12.644	206.0	0.479997131	0.570413884	0.008086759	0.083429600	0.025713813
2020-06-11T20:10:00	0.2043	12.629	206.0	0.480791941	0.571500739	0.008111109	0.083680814	0.025791240
2020-06-11T20:15:00	0.2043	12.617	206.0	0.480895915	0.571642954	0.008114297	0.083713704	0.025801377
2020-06-11T20:20:00	0.2043	12.605	206.0	0.480999885	0.571785173	0.008117485	0.083746600	0.025811515
2020-06-11T20:25:00	0.2048	12.592	206.0	0.482484926	0.573817477	0.008163096	0.084217158	0.025956546
2020-06-11T20:30:00	0.2050	12.578	206.0	0.483279153	0.574905112	0.008187542	0.084469357	0.026034276
2020-06-11T20:35:00	0.2052	12.566	206.0	0.484073193	0.575992995	0.008212017	0.084721871	0.026112103
2020-06-11T20:40:00	0.2055	12.553	206.0	0.484867048	0.577081128	0.008236524	0.084974698	0.026190027
2020-06-11T20:45:00	0.2056	12.540	206.0	0.485315824	0.577696486	0.008250394	0.085117790	0.026234130
2020-06-11T20:50:00	0.2062	12.528	206.0	0.487488427	0.580677817	0.008317703	0.085812210	0.026448157
2020-06-11T20:55:00	0.2059	12.515	206.0	0.486558001	0.579400587	0.008288844	0.085514479	0.026356393
2020-06-11T21:00:00	0.2067	12.503	206.0	0.489074355	0.582856474	0.008367008	0.086320881	0.026604934
2020-06-11T21:05:00	0.2065	12.489	206.0	0.488488969	0.582052070	0.008348792	0.086132950	0.026547012
2020-06-11T21:10:00	0.2069	12.476	206.0	0.489970738	0.584088764	0.008394940	0.086609047	0.026693749
2020-06-11T21:15:00	0.2066	12.463	205.0	0.488696441	0.582337135	0.008355246	0.086199534	0.026567533
2020-06-11T21:20:00	0.2067	12.450	206.0	0.489144712	0.582953173	0.008369199	0.086343482	0.026611900
2020-06-11T21:25:00	0.2067	12.436	205.0	0.489248430	0.583095731	0.008372429	0.086376805	0.026622170
2020-06-11T21:30:00	0.2064	12.423	206.0	0.487973863	0.581344467	0.008332780	0.085967750	0.026496096
2020-06-11T21:35:00	0.2066	12.410	205.0	0.488766806	0.582433823	0.008357435	0.086222121	0.026574495
2020-06-11T21:40:00	0.2063	12.396	205.0	0.487836730	0.581156123	0.008328519	0.085923797	0.026482549
2020-06-11T21:45:00	0.2060	12.383	205.0	0.486906399	0.579878765	0.008299645	0.085625904	0.026390735
2020-06-11T21:50:00	0.2055	12.369	204.0	0.484941126	0.577182691	0.008238812	0.084998310	0.026197304
2020-06-11T21:55:00	0.2061	12.356	205.0	0.487113968	0.580163700	0.008306083	0.085692324	0.026411206
2020-06-11T22:00:00	0.2070	12.342	205.0	0.490318786	0.584567412	0.008405798	0.086721065	0.026728274
2020-06-11T22:05:00	0.2070	12.327	204.0	0.490074976	0.584232106	0.008398191	0.086642588	0.026704087
2020-06-11T22:10:00	0.2062	12.314	204.0	0.487419129	0.580582666	0.008315552	0.085790018	0.026441317
2020-06-11T22:15:00	0.2064	12.300	205.0	0.488209119	0.581667612	0.008340091	0.086043180	0.026519344
2020-06-11T22:20:00	0.2059	12.285	204.0	0.486586313	0.579439442	0.008289722	0.085523531	0.026359183
2020-06-11T22:25:00	0.2061	12.271	205.0	0.487031777	0.580050871	0.008303533	0.085666021	0.026403100
2020-06-11T22:30:00	0.2063	12.257	204.0	0.487821857	0.581135697	0.008328057	0.085919031	0.026481080
2020-06-11T22:35:00	0.2054	12.243	204.0	0.484819303	0.577015670	0.008235049	0.084959482	0.026185337
2020-06-11T22:40:00	0.2049	12.228	203.0	0.482849732	0.574316989	0.008174320	0.084332953	0.025992235
2020-06-11T22:45:00	0.2042	12.213	205.0	0.480533637	0.571147468	0.008103191	0.083599131	0.025766064
2020-06-11T22:50:00	0.2038	12.198	204.0	0.479252699	0.569396373	0.008063985	0.083194648	0.025641398
2020-06-11T22:55:00	0.2047	12.183	203.0	0.482116640	0.573313307	0.008151773	0.084100339	0.025920541
2020-06-11T23:00:00	0.2053	12.168	204.0	0.484288204	0.576287660	0.008218651	0.084790311	0.026133197
2020-06-11T23:05:00	0.2052	12.153	203.0	0.484043961	0.575952937	0.008211116	0.084712568	0.026109236
2020-06-11T23:10:00	0.2050	12.138	203.0	0.483454619	0.575145468	0.008192947	0.084525125	0.026051465
2020-06-11T23:15:00	0.2042	12.123	203.0	0.480448196	0.571030626	0.008100573	0.083572121	0.025757739
2020-06-11T23:20:00	0.2033	12.108	204.0	0.477439102	0.566919350	0.008008636	0.082623626	0.025465404
2020-06-11T23:25:00	0.2026	12.093	203.0	0.475119302	0.563754768	0.007938114	0.081896056	0.025241160
2020-06-11T23:30:00	0.2031	12.078	203.0	0.476603830	0.565779410	0.007983208	0.082361289	0.025384549
2020-06-11T23:35:00	0.2027	12.062	203.0	0.475321404	0.564030297	0.007944245	0.081959316	0.025260657
2020-06-11T23:40:00	0.2032	12.046	203.0	0.477151603	0.566526922	0.007999880	0.082533283	0.025437559
2020-06-11T23:45:00	0.2033	12.029	203.0	0.477598309	0.567136690	0.008013488	0.082673675	0.025480830
2020-06-11T23:50:00	0.2039	12.014	203.0	0.479427278	0.569634953	0.008069323	0.083249718	0.025658371
2020-06-11T23:55:00	0.2038	11.998	203.0	0.479182684	0.569300698	0.008061845	0.083172567	0.025634593
2020-06-12T00:00:00	0.2028	11.983	203.0	0.475826606	0.564719190	0.007959583	0.082117554	0.025309428
2020-06-12T00:05:00	0.2029	11.967	202.0	0.475927637	0.564856981	0.007962652	0.082149217	0.025319187
2020-06-12T00:10:00	0.2032	11.951	203.0	0.477066077	0.566410194	0.007997276	0.082506417	0.025429279
2020-06-12T00:15:00	0.2029	11.934	202.0	0.476129690	0.565132574	0.007968792	0.082212558	0.025338709
2020-06-12T00:20:00	0.2023	11.916	202.0	0.473808991	0.561969187	0.007898416	0.081486503	0.025114932
2020-06-12T00:25:00	0.2015	11.898	202.0	0.471140358	0.558336820	0.007817870	0.080655524	0.024858816
2020-06-12T00:30:00	0.2016	11.881	203.0	0.471587859	0.558945534	0.007831348	0.080794577	0.024901673
2020-06-12T00:35:00	0.2027	11.865	203.0	0.475496186	0.564268607	0.007949550	0.082014044	0.025277525
2020-06-12T00:40:00	0.2027	11.848	203.0	0.475251308	0.563934731	0.007942119	0.081937373	0.025253894
2020-06-12T00:45:00	0.2031	11.831	199.0	0.476735778	0.565959450	0.007987223	0.082402703	0.025397313
2020-06-12T00:50:00	0.2017	11.814	203.0	0.471992473	0.559496047	0.007843545	0.080920405	0.024940455
2020-06-12T00:55:00	0.2020	11.796	202.0	0.472786068	0.560576182	0.007867494	0.081167481	0.025016606
2020-06-12T01:00:00	0.2007	11.778	202.0	0.468383868	0.554590811	0.007735100	0.079801600	0.024595628
2020-06-12T01:05:00	0.1994	11.762	201.0	0.463975916	0.548613033	0.007603643	0.078445384	0.024177629
2020-06-12T01:10:00	0.1992	11.746	201.0	0.463383064	0.547810221	0.007586047	0.078263851	0.024121679
2020-06-12T01:15:00	0.1995	11.729	201.0	0.464178686	0.548887679	0.007609666	0.078507520	0.024196780
2020-06-12T01:20:00	0.1998	11.712	200.0	0.465321094	0.550435643	0.007643642	0.078858048	0.024304816
2020-06-12T01:25:00	0.2002	11.696	199.0	0.466809935	0.552454577	0.007688034	0.079316026	0.024445970
2020-06-12T01:30:00	0.2004	11.680	199.0	0.467258011	0.553062531	0.007701418	0.079454114	0.024488529
2020-06-12T01:35:00	0.2010	11.663	199.0	0.469439133	0.556024180	0.007766735	0.080127978	0.024696221
2020-06-12T01:40:00	0.2003	11.647	198.0	0.467113830	0.552866888	0.007697110	0.079409667	0.024474831
2020-06-12T01:45:00	0.2001	11.630	198.0	0.466521530	0.552063349	0.007679425	0.079227209	0.024418595
2020-06-12T01:50:00	0.1994	11.615	198.0	0.463847124	0.548438606	0.007599819	0.078405930	0.024165469
2020-06-12T01:55:00	0.1995	11.599	198.0	0.464295594	0.549046041	0.007613139	0.078543356	0.024207825
2020-06-12T02:00:00	0.2000	11.583	198.0	0.466131778	0.551534748	0.007667798	0.079107258	0.024381625
2020-06-12T02:05:00	0.2005	11.566	199.0	0.467620261	0.553554154	0.007712248	0.079565838	0.024522964
2020-06-12T02:10:00	0.1995	11.550	198.0	0.464252668	0.548987893	0.007611864	0.078530197	0.024203769
2020-06-12T02:15:00	0.2004	11.533	198.0	0.467476096	0.553358490	0.007707937	0.079521365	0.024509257
2020-06-12T02:20:00	0.2007	11.518	198.0	0.468270753	0.554437220	0.007731713	0.079766655	0.024584858
2020-06-12T02:25:00	0.2012	11.502	198.0	0.470104775	0.556928778	0.007786723	0.080334189	0.024759777
2020-06-12T02:30:00	0.2015	11.486	198.0	0.471245178	0.558479387	0.007821026	0.080688085	0.024868851
2020-06-12T02:35:00	0.2018	11.470	198.0	0.472385196	0.560030506	0.007855392	0.081042628	0.024978125
2020-06-12T02:40:00	0.2024	11.455	198.0	0.474216984	0.562525019	0.007910766	0.081613918	0.025154202
2020-06-12T02:45:00	0.2027	11.439	198.0	0.475356001	0.564077467	0.007945295	0.081970148	0.025263996
2020-06-12T02:50:00	0.2035	11.422	198.0	0.478223238	0.567990006	0.008032544	0.082870277	0.025541424
2020-06-12T02:55:00	0.2034	11.407	198.0	0.477632883	0.567183891	0.008014541	0.082684546	0.025484180
2020-06-12T03:00:00	0.2045	11.391	198.0	0.481534237	0.572516240	0.008133883	0.083915767	0.025863654
2020-06-12T03:05:00	0.2048	11.377	198.0	0.482670794	0.574071964	0.008168814	0.084276145	0.025974726
2020-06-12T03:10:00	0.2045	11.362	198.0	0.481735956	0.572792279	0.008140077	0.083979672	0.025883351
2020-06-12T03:15:00	0.2043	11.346	197.0	0.480800860	0.571512938	0.008111382	0.083683635	0.025792109
2020-06-12T03:20:00	0.2048	11.332	197.0	0.482628101	0.574013507	0.008167500	0.084262594	0.025970550
2020-06-12T03:25:00	0.2055	11.318	197.0	0.485144283	0.577461251	0.008245091	0.085063080	0.026217267
2020-06-12T03:30:00	0.2065	11.303	197.0	0.488347876	0.581858229	0.008344405	0.086087685	0.026533061
2020-06-12T03:35:00	0.2064	11.289	197.0	0.488103925	0.581523114	0.008336821	0.086009448	0.026508947
2020-06-12T03:40:00	0.2075	11.276	197.0	0.491993265	0.586871569	0.008458132	0.087260994	0.026894686
2020-06-12T03:45:00	0.2068	11.263	197.0	0.489683401	0.583693682	0.008385981	0.086516623	0.026665263
2020-06-12T03:50:00	0.2071	11.252	197.0	0.490472864	0.584779337	0.008410607	0.086770677	0.026743565
2020-06-12T03:55:00	0.2076	11.240	197.0	0.492294909	0.587286884	0.008467577	0.087358435	0.026924718
2020-06-12T04:00:00	0.2075	11.230	197.0	0.492051241	0.586951387	0.008459947	0.087279718	0.026900457
2020-06-12T04:05:00	0.2078	11.219	196.0	0.492931443	0.588163526	0.008487525	0.087564233	0.026988147
2020-06-12T04:10:00	0.2073	11.209	196.0	0.491402220	0.586058008	0.008439641	0.087070224	0.026835889
2020-06-12T04:15:00	0.2079	11.201	197.0	0.493315044	0.588691984	0.008499558	0.087688372	0.027026408
2020-06-12T04:20:00	0.2082	11.193	197.0	0.494194919	0.589904564	0.008527190	0.087973442	0.027114269
2020-06-12T04:25:00	0.2081	11.185	197.0	0.494042645	0.589694667	0.008522404	0.087924074	0.027099054
2020-06-12T04:30:00	0.2081	11.178	196.0	0.493890365	0.589484779	0.008517620	0.087874718	0.027083842
2020-06-12T04:35:00	0.2078	11.171	196.0	0.493049895	0.588326696	0.008491240	0.087602557	0.026999959
2020-06-12T04:40:00	0.2081	11.165	197.0	0.493929839	0.589539184	0.008518860	0.087887511	0.027087784
2020-06-12T04:45:00	0.2080	11.159	197.0	0.493777553	0.589329303	0.008514077	0.087838163	0.027072575
2020-06-12T04:50:00	0.2080	11.154	197.0	0.493625261	0.589119432	0.008509295	0.087788827	0.027057369
2020-06-12T04:55:00	0.2077	11.150	196.0	0.492784726	0.587961437	0.008482925	0.087516777	0.026973520
2020-06-12T05:00:00	0.2077	11.146	196.0	0.492632389	0.587751625	0.008478150	0.087467516	0.026958338
2020-06-12T05:05:00	0.2077	11.142	197.0	0.492480046	0.587541823	0.008473377	0.087418267	0.026943159
2020-06-12T05:10:00	0.2079	11.139	197.0	0.493360136	0.588754112	0.008500973	0.087702970	0.027030907
2020-06-12T05:15:00	0.2081	11.136	196.0	0.493895976	0.589492513	0.008517797	0.087876536	0.027084402
2020-06-12T05:20:00	0.2076	11.135	197.0	0.492367187	0.587386410	0.008469841	0.087381791	0.026931917
2020-06-12T05:25:00	0.2065	11.134	197.0	0.488426405	0.581966114	0.008346847	0.086112877	0.026540825
2020-06-12T05:30:00	0.2061	11.135	197.0	0.487239885	0.580336567	0.008309989	0.085732628	0.026423629
2020-06-12T05:35:00	0.2053	11.136	196.0	0.484328337	0.576342664	0.008219890	0.084803088	0.026137135
2020-06-12T05:40:00	0.2057	11.139	197.0	0.485555444	0.578025117	0.008257804	0.085194242	0.026257693
2020-06-12T05:45:00	0.2057	11.142	197.0	0.485747667	0.578288778	0.008263751	0.085255596	0.026276603
2020-06-12T05:50:00	0.2065	11.146	197.0	0.488352950	0.581865199	0.008344562	0.086089312	0.026533562
2020-06-12T05:55:00	0.2060	11.150	197.0	0.486821665	0.579762459	0.008297017	0.085598798	0.026382381
2020-06-12T06:00:00	0.2073	11.157	197.0	0.491148153	0.585708377	0.008431699	0.086988283	0.026810634
2020-06-12T06:05:00	0.2077	11.164	197.0	0.492716978	0.587868126	0.008480802	0.087494867	0.026966768
2020-06-12T06:10:00	0.2084	11.172	197.0	0.494973013	0.590977394	0.008551662	0.088225920	0.027192085
2020-06-12T06:15:00	0.2082	11.181	197.0	0.494476810	0.590293177	0.008536051	0.088064869	0.027142448
2020-06-12T06:20:00	0.2087	11.191	197.0	0.496044101	0.592454998	0.008585407	0.088574057	0.027299385
2020-06-12T06:25:00	0.2090	11.203	197.0	0.496923271	0.593668533	0.008613154	0.088860325	0.027387615
2020-06-12T06:30:00	0.2085	11.215	197.0	0.495395841	0.591560591	0.008564975	0.088363271	0.027234418
2020-06-12T06:35:00	0.2087	11.228	197.0	0.495931361	0.592299425	0.008581852	0.088537381	0.027288081
2020-06-12T06:40:00	0.2089	11.242	197.0	0.496810560	0.593512920	0.008609595	0.088823600	0.027376296
2020-06-12T06:45:00	0.2086	11.256	198.0	0.495626962	0.591879431	0.008572257	0.088438393	0.027257572
2020-06-12T06:50:00	0.2086	11.271	198.0	0.495818616	0.592143858	0.008578297	0.088500711	0.027276779
2020-06-12T06:55:00	0.2092	11.291	198.0	0.497728962	0.594781187	0.008638622	0.089123071	0.027468596
2020-06-12T07:00:00	0.2090	11.310	198.0	0.497233160	0.594096425	0.008622945	0.088961338	0.027418748
2020-06-12T07:05:00	0.2093	11.334	198.0	0.498112023	0.595310376	0.008650744	0.089248128	0.027507140
2020-06-12T07:10:00	0.2099	11.399	198.0	0.500021084	0.597949448	0.008711280	0.089872673	0.027699631
2020-06-12T07:15:00	0.2095	11.412	198.0	0.498838601	0.596314446	0.008673759	0.089485570	0.027580322
2020-06-12T07:20:00	0.2094	11.445	198.0	0.498342960	0.595629466	0.008658056	0.089323563	0.027530390
2020-06-12T07:25:00	0.2092	11.476	198.0	0.497847248	0.594944583	0.008642364	0.089161678	0.027480495
2020-06-12T07:30:00	0.2088	11.506	198.0	0.496320232	0.592836079	0.008594117	0.088663919	0.027327081
2020-06-12T07:35:00	0.2084	11.550	199.0	0.495136463	0.591202820	0.008556807	0.088279002	0.027208446
2020-06-12T07:40:00	0.2083	11.566	199.0	0.494640284	0.590518570	0.008541193	0.088117911	0.027158796
2020-06-12T07:45:00	0.2089	11.614	199.0	0.496895045	0.593629562	0.008612263	0.088851127	0.027384780
2020-06-12T07:50:00	0.2085	11.639	199.0	0.495367602	0.591521637	0.008564086	0.088354094	0.027231590
2020-06-12T07:55:00	0.2083	11.640	199.0	0.494527497	0.590363061	0.008537645	0.088081314	0.027147516
2020-06-12T08:00:00	0.2085	11.652	199.0	0.495407058	0.591576065	0.008565329	0.088366916	0.027235542
2020-06-12T08:05:00	0.2082	11.689	199.0	0.494222973	0.589943236	0.008528071	0.087982539	0.027117073
2020-06-12T08:10:00	0.2080	11.721	199.0	0.493726660	0.589259166	0.008512479	0.087821674	0.027067493
2020-06-12T08:15:00	0.2083	11.759	199.0	0.494606429	0.590471890	0.008540128	0.088106925	0.027155410
2020-06-12T08:20:00	0.2074	11.801	200.0	0.491701186	0.586469495	0.008448992	0.087166694	0.026865622
2020-06-12T08:25:00	0.2077	11.848	199.0	0.492581479	0.587681511	0.008476555	0.087451056	0.026953265
2020-06-12T08:30:00	0.2071	11.905	200.0	0.490707752	0.585102447	0.008417940	0.086846337	0.026766885
2020-06-12T08:35:00	0.2075	11.944	200.0	0.491932559	0.586787996	0.008456232	0.087241390	0.026888644
2020-06-12T08:40:00	0.2080	11.992	201.0	0.493501022	0.588948233	0.008505395	0.087748589	0.027044967
2020-06-12T08:45:00	0.2075	12.028	201.0	0.491972055	0.586842369	0.008457469	0.087254144	0.026892575
2020-06-12T08:50:00	0.2074	12.052	201.0	0.491475414	0.586158743	0.008441930	0.087093837	0.026843166
2020-06-12T08:55:00	0.2074	12.088	202.0	0.491667302	0.586422854	0.008447932	0.087155758	0.026862251
2020-06-12T09:00:00	0.2081	12.156	202.0	0.493924033	0.589531182	0.008518678	0.087885629	0.027087204
2020-06-12T09:05:00	0.2086	12.210	201.0	0.495835441	0.592167072	0.008578828	0.088506183	0.027278465
2020-06-12T09:10:00	0.2086	12.268	201.0	0.495683240	0.591957075	0.008574030	0.088456690	0.027263211
2020-06-12T09:15:00	0.2088	12.323	202.0	0.496562504	0.593170484	0.008601763	0.088742800	0.027351393
2020-06-12T09:20:00	0.2086	12.386	202.0	0.495722693	0.592011508	0.008575274	0.088469518	0.027267165
2020-06-12T09:25:00	0.2078	12.449	202.0	0.492818404	0.588007824	0.008483981	0.087527669	0.026976878
2020-06-12T09:30:00	0.2072	12.499	202.0	0.490944808	0.585428584	0.008425345	0.086922728	0.026790429
2020-06-12T09:35:00	0.2067	12.532	202.0	0.489070180	0.582850736	0.008366878	0.086319540	0.026604521
2020-06-12T09:40:00	0.2060	12.597	203.0	0.486849780	0.579801048	0.008297889	0.085607792	0.026385153
2020-06-12T09:45:00	0.2058	12.633	203.0	0.486007567	0.578645313	0.008271795	0.085338585	0.026302181
2020-06-12T09:50:00	0.2053	12.637	203.0	0.484475224	0.576543993	0.008224424	0.084849863	0.026151552
2020-06-12T09:55:00	0.2054	12.689	203.0	0.484667508	0.576807572	0.008230361	0.084911113	0.026170430
2020-06-12T10:00:00	0.2050	12.764	203.0	0.483479674	0.575179790	0.008193719	0.084533090	0.026053919
2020-06-12T10:05:00	0.2049	12.762	203.0	0.482932923	0.574430914	0.008176881	0.084359370	0.026000377
2020-06-12T10:10:00	0.2050	12.756	204.0	0.483421551	0.575100169	0.008191928	0.084514614	0.026048225
2020-06-12T10:15:00	0.2054	12.766	203.0	0.484600145	0.576715229	0.008228280	0.084889653	0.026163816
2020-06-12T10:20:00	0.2044	12.816	204.0	0.481292142	0.572184993	0.008126452	0.083839103	0.025840026
2020-06-12T10:25:00	0.2042	12.826	204.0	0.480399645	0.570964235	0.008099086	0.083556775	0.025753010
2020-06-12T10:30:00	0.2036	12.876	204.0	0.478470250	0.568327377	0.008040083	0.082948050	0.025565395
2020-06-12T10:35:00	0.2043	12.887	204.0	0.481032233	0.571829423	0.008118478	0.083756836	0.025814670
2020-06-12T10:40:00	0.2042	12.888	204.0	0.480485087	0.571081075	0.008101704	0.083583783	0.025761334
2020-06-12T10:45:00	0.2040	12.929	204.0	0.479937854	0.570332845	0.008084944	0.083410879	0.025708043
2020-06-12T10:50:00	0.2029	12.995	204.0	0.475933630	0.564865155	0.007962835	0.082151096	0.025319766
2020-06-12T10:55:00	0.2026	13.019	204.0	0.475039720	0.563646281	0.007935700	0.081871153	0.025233485
2020-06-12T11:00:00	0.2025	13.060	205.0	0.474837601	0.563370774	0.007929571	0.081807922	0.025213996
2020-06-12T11:05:00	0.2027	13.102	205.0	0.475327399	0.564038470	0.007944427	0.081961193	0.025261236
2020-06-12T11:10:00	0.2026	13.120	205.0	0.475125297	0.563762941	0.007938296	0.081897933	0.025241738
2020-06-12T11:15:00	0.2028	13.165	206.0	0.475615053	0.564430692	0.007953159	0.082051274	0.025288999
2020-06-12T11:20:00	0.2020	13.232	205.0	0.472990661	0.560854728	0.007873674	0.081231239	0.025036257
2020-06-12T11:25:00	0.2015	13.291	206.0	0.471057033	0.558223496	0.007815362	0.080629646	0.024850840
2020-06-12T11:30:00	0.2017	13.350	206.0	0.471893677	0.559361615	0.007840566	0.080889673	0.024930983
2020-06-12T11:35:00	0.2013	13.376	206.0	0.470652307	0.557673130	0.007803184	0.080504006	0.024812117
2020-06-12T11:40:00	0.2015	13.408	206.0	0.471142712	0.558340022	0.007817941	0.080656256	0.024859041
2020-06-12T11:45:00	0.2016	13.442	206.0	0.471633045	0.559007007	0.007832710	0.080808625	0.024906003
2020-06-12T11:50:00	0.2013	13.471	207.0	0.470391579	0.557318649	0.007795343	0.080423119	0.024787186
2020-06-12T11:55:00	0.2001	13.538	207.0	0.466376022	0.551865989	0.007675083	0.079182416	0.024404790
2020-06-12T12:00:00	0.1995	13.598	207.0	0.464438598	0.549239768	0.007617389	0.078587202	0.024221339
2020-06-12T12:05:00	0.1993	13.637	207.0	0.463541637	0.548024926	0.007590752	0.078312386	0.024136638
2020-06-12T12:10:00	0.1989	13.645	207.0	0.462297188	0.546340501	0.007553871	0.077931890	0.024019365
2020-06-12T12:15:00	0.2001	13.639	207.0	0.466259186	0.551707532	0.007671598	0.079146460	0.024393707
2020-06-12T12:20:00	0.2008	13.657	208.0	0.468830439	0.555197282	0.007748480	0.079939638	0.024638173
2020-06-12T12:25:00	0.2004	13.703	208.0	0.467241201	0.553039721	0.007700916	0.079448931	0.024486932
2020-06-12T12:30:00	0.2002	13.768	210.0	0.466691819	0.552294341	0.007684507	0.079279645	0.024434757
2020-06-12T12:35:00	0.2005	13.839	208.0	0.467876256	0.553901635	0.007719905	0.079644837	0.024547312
2020-06-12T12:40:00	0.2003	13.882	208.0	0.466980210	0.552685588	0.007693119	0.079368487	0.024462139
2020-06-12T12:45:00	0.2008	13.895	209.0	0.468857800	0.555234445	0.007749300	0.079948099	0.024640781
2020-06-12T12:50:00	0.2012	13.901	209.0	0.470041477	0.556842743	0.007784822	0.080314569	0.024753730
2020-06-12T12:55:00	0.2004	13.918	209.0	0.467412750	0.553272520	0.007706043	0.079501828	0.024503236
2020-06-12T13:00:00	0.2003	13.940	209.0	0.467210174	0.552997618	0.007699989	0.079439366	0.024483984
2020-06-12T13:05:00	0.1999	13.960	209.0	0.465620173	0.550841065	0.007652549	0.078949942	0.024333139
2020-06-12T13:10:00	0.1999	13.973	209.0	0.465764417	0.551036624	0.007656847	0.078994281	0.024346804
2020-06-12T13:15:00	0.1992	13.979	210.0	0.463132351	0.547470801	0.007578612	0.078187144	0.024098037
2020-06-12T13:20:00	0.1998	13.994	210.0	0.465359055	0.550487098	0.007644772	0.078869709	0.024308410
2020-06-12T13:25:00	0.1996	14.030	210.0	0.464462340	0.549271933	0.007618095	0.078594482	0.024223583
2020-06-12T13:30:00	0.1992	14.073	211.0	0.463218231	0.547587061	0.007581159	0.078213416	0.024106134
2020-06-12T13:35:00	0.1995	14.099	210.0	0.464403889	0.549192747	0.007616358	0.078576559	0.024218058
2020-06-12T13:40:00	0.1997	14.115	210.0	0.464895203	0.549858439	0.007630967	0.078727281	0.024264512
2020-06-12T13:45:00	0.1996	14.132	211.0	0.464692476	0.549583736	0.007624937	0.078665072	0.024245339
2020-06-12T13:50:00	0.1990	14.156	210.0	0.462406846	0.546488879	0.007557117	0.077965382	0.024029688
2020-06-12T13:55:00	0.1985	14.176	211.0	0.460814575	0.544335309	0.007510046	0.077479764	0.023880016
2020-06-12T14:00:00	0.1991	14.191	211.0	0.463042812	0.547349593	0.007575958	0.078159759	0.024089597
2020-06-12T14:05:00	0.1985	14.207	211.0	0.460756061	0.544256206	0.007508319	0.077461947	0.023874524
2020-06-12T14:10:00	0.1986	14.212	211.0	0.461247907	0.544921199	0.007522842	0.077611776	0.023920703
2020-06-12T14:15:00	0.1983	14.215	211.0	0.460002610	0.543237887	0.007486099	0.077232702	0.023803869
2020-06-12T14:20:00	0.1981	14.209	211.0	0.459452045	0.542494060	0.007469882	0.077065398	0.023752304
2020-06-12T14:25:00	0.1974	14.210	210.0	0.456815036	0.538934719	0.007392450	0.076266544	0.023506090
2020-06-12T14:30:00	0.1978	14.221	211.0	0.458350645	0.541006761	0.007437493	0.076731243	0.023649314
2020-06-12T14:35:00	0.1972	14.233	211.0	0.456408594	0.538386608	0.007380551	0.076143781	0.023468253
2020-06-12T14:40:00	0.1972	14.244	211.0	0.456205355	0.538112577	0.007374604	0.076082430	0.023449344
2020-06-12T14:45:00	0.1978	14.243	211.0	0.458436647	0.541122862	0.007440020	0.076757310	0.023657348
2020-06-12T14:50:00	0.1982	14.256	211.0	0.459623991	0.542726337	0.007474945	0.077117629	0.023768402
2020-06-12T14:55:00	0.1988	14.263	211.0	0.461853016	0.545739588	0.007540728	0.077796303	0.023977576
2020-06-12T15:00:00	0.1981	14.275	211.0	0.459565456	0.542647262	0.007473221	0.077099846	0.023762921
2020-06-12T15:05:00	0.1979	14.278	211.0	0.458667196	0.541434124	0.007446795	0.076827209	0.023678892
2020-06-12T15:10:00	0.1971	14.273	211.0	0.456029570	0.537875588	0.007369462	0.076029386	0.023432995
2020-06-12T15:15:00	0.1978	14.257	210.0	0.458260978	0.540885720	0.007434859	0.076704071	0.023640940
2020-06-12T15:20:00	0.1987	14.240	211.0	0.461533106	0.545306884	0.007531270	0.077698720	0.023947500
2020-06-12T15:25:00	0.1988	14.222	211.0	0.461677525	0.545502213	0.007535539	0.077742765	0.023961075
2020-06-12T15:30:00	0.1982	14.200	211.0	0.459737396	0.542879546	0.007478285	0.077152087	0.023779023
2020-06-12T15:35:00	0.1975	14.181	211.0	0.457448396	0.539789106	0.007411012	0.076458041	0.023565111
2020-06-12T15:40:00	0.1976	14.172	210.0	0.457592991	0.539984205	0.007415252	0.076501793	0.023578595
2020-06-12T15:45:00	0.1972	14.157	210.0	0.456346339	0.538302665	0.007378729	0.076124986	0.023462460
2020-06-12T15:50:00	0.1969	14.142	211.0	0.455099225	0.536621730	0.007342280	0.075748952	0.023346563
2020-06-12T15:55:00	0.1965	14.131	211.0	0.453851647	0.534941398	0.007305907	0.075373694	0.023230904
2020-06-12T16:00:00	0.1960	14.128	211.0	0.452255316	0.532793132	0.007259494	0.074894866	0.023083325
2020-06-12T16:05:00	0.1952	14.122	210.0	0.449322762	0.528851873	0.007174610	0.074019129	0.022813414
2020-06-12T16:10:00	0.1950	14.121	210.0	0.448480485	0.527721132	0.007150320	0.073768536	0.022736179
2020-06-12T16:15:00	0.1940	14.122	211.0	0.445195600	0.523316572	0.007055975	0.072795194	0.022436186
2020-06-12T16:20:00	0.1930	14.122	211.0	0.441558086	0.518449084	0.006952217	0.071724740	0.022106262
2020-06-12T16:25:00	0.1929	14.121	211.0	0.441412798	0.518254884	0.006948088	0.071682146	0.022093133
2020-06-12T16:30:00	0.1925	14.114	210.0	0.440140148	0.516193439	0.006907143	0.071259721	0.021962938
2020-06-12T16:35:00	0.1913	14.109	211.0	0.436764036	0.510410913	0.006794797	0.070100671	0.021605708
2020-06-12T16:40:00	0.1913	14.106	210.0	0.436923048	0.510682550	0.006800063	0.070155001	0.021622453
2020-06-12T16:45:00	0.1911	14.106	210.0	0.436265415	0.509559586	0.006778300	0.069930475	0.021553252
2020-06-12T16:50:00	0.1914	14.110	211.0	0.437241027	0.511225958	0.006810602	0.070263721	0.021655961
2020-06-12T16:55:00	0.1926	14.128	211.0	0.440390332	0.516623217	0.006915513	0.071346074	0.021989553
2020-06-12T17:00:00	0.1941	14.138	212.0	0.445634630	0.523904757	0.007068549	0.072924917	0.022476168
2020-06-12T17:05:00	0.1966	14.141	212.0	0.454203436	0.535415090	0.007316154	0.075479416	0.023263489
2020-06-12T17:10:00	0.1979	14.176	210.0	0.458581199	0.541318016	0.007444267	0.076801133	0.023670855
2020-06-12T17:15:00	0.1993	14.210	209.0	0.463647598	0.548168405	0.007593896	0.078344826	0.024146636
2020-06-12T17:20:00	0.1993	14.211	208.0	0.463503263	0.547972965	0.007589613	0.078300639	0.024133018
2020-06-12T17:25:00	0.1988	14.199	211.0	0.461970004	0.545897844	0.007544189	0.077832003	0.023988579
2020-06-12T17:30:00	0.1996	14.184	208.0	0.464602978	0.549462474	0.007622276	0.078637617	0.024236877
2020-06-12T17:35:00	0.2000	14.161	208.0	0.465846576	0.551148018	0.007659296	0.079019541	0.024354590
2020-06-12T17:40:00	0.2002	14.139	209.0	0.466742923	0.552363668	0.007686033	0.079295385	0.024439608
2020-06-12T17:45:00	0.2006	14.119	207.0	0.467985732	0.554050252	0.007723181	0.079678633	0.024557729
2020-06-12T17:50:00	0.2007	14.100	207.0	0.468534904	0.554795909	0.007739624	0.079848273	0.024610013
2020-06-12T17:55:00	0.2007	14.080	208.0	0.468390778	0.554600194	0.007735307	0.079803735	0.024596286
2020-06-12T18:00:00	0.2000	14.057	208.0	0.466166076	0.551581260	0.007668821	0.079117810	0.024384877
2020-06-12T18:05:00	0.2001	14.036	209.0	0.466368715	0.551856079	0.007674865	0.079180167	0.024404097
2020-06-12T18:10:00	0.1998	14.023	207.0	0.465183748	0.550249483	0.007639553	0.078815865	0.024291815
2020-06-12T18:15:00	0.1997	14.005	207.0	0.465039478	0.550053957	0.007635260	0.078771567	0.024278162
2020-06-12T18:20:00	0.1996	13.989	206.0	0.464548186	0.549388238	0.007620647	0.078620810	0.024231697
2020-06-12T18:25:00	0.1998	13.974	206.0	0.465444878	0.550603433	0.007647328	0.078896075	0.024316537
2020-06-12T18:30:00	0.1992	13.958	207.0	0.463218231	0.547587061	0.007581159	0.078213416	0.024106134
2020-06-12T18:35:00	0.1990	13.944	205.0	0.462379432	0.546451784	0.007556305	0.077957008	0.024027107
2020-06-12T18:40:00	0.1986	13.927	205.0	0.461193060	0.544847034	0.007521222	0.077595061	0.023915551
2020-06-12T18:45:00	0.1982	13.911	205.0	0.459658749	0.542773294	0.007475969	0.077128189	0.023771657
2020-06-12T18:50:00	0.1974	13.896	205.0	0.457080480	0.539292758	0.007400227	0.076346773	0.023530817
2020-06-12T18:55:00	0.1967	13.879	204.0	0.454500232	0.535814808	0.007324805	0.075568667	0.023290997
2020-06-12T19:00:00	0.1963	13.861	205.0	0.453311076	0.534213699	0.007290174	0.075211379	0.023180878
2020-06-12T19:05:00	0.1968	13.841	205.0	0.454906904	0.536362618	0.007336667	0.075691045	0.023328715
2020-06-12T19:10:00	0.1973	13.821	205.0	0.456501975	0.538512526	0.007383284	0.076171977	0.023476943
2020-06-12T19:15:00	0.1973	13.802	206.0	0.456705196	0.538786581	0.007389233	0.076233358	0.023495861
2020-06-12T19:20:00	0.1970	13.783	205.0	0.455516820	0.537184453	0.007354475	0.075874765	0.023385339
2020-06-12T19:25:00	0.1977	13.763	205.0	0.458154848	0.540742464	0.007431742	0.076671915	0.023631029
2020-06-12T19:30:00	0.1987	13.744	206.0	0.461485581	0.545242610	0.007529865	0.077684229	0.023943034
2020-06-12T19:35:00	0.1996	13.726	206.0	0.464465995	0.549276885	0.007618204	0.078595603	0.024223928
2020-06-12T19:40:00	0.1996	13.712	206.0	0.464668736	0.549551570	0.007624231	0.078657789	0.024243094
2020-06-12T19:45:00	0.1990	13.701	206.0	0.462441575	0.546535873	0.007558145	0.077975990	0.024032958
2020-06-12T19:50:00	0.1990	13.690	206.0	0.462644438	0.546810397	0.007564153	0.078037972	0.024052061
2020-06-12T19:55:00	0.1990	13.677	206.0	0.462500059	0.546615014	0.007559877	0.077993857	0.024038464
2020-06-12T20:00:00	0.1989	13.663	206.0	0.462355675	0.546419639	0.007555602	0.077949752	0.024024871
2020-06-12T20:05:00	0.1987	13.648	206.0	0.461516661	0.545284643	0.007530784	0.077693706	0.023945955
2020-06-12T20:10:00	0.1987	13.636	206.0	0.461372235	0.545089324	0.007526515	0.077649672	0.023932383
2020-06-12T20:15:00	0.1991	13.621	206.0	0.462964242	0.547243239	0.007573629	0.078135732	0.024082191
2020-06-12T20:20:00	0.1995	13.607	206.0	0.464208444	0.548927988	0.007610550	0.078516641	0.024199591
2020-06-12T20:25:00	0.1994	13.593	206.0	0.464064133	0.548732516	0.007606263	0.078472414	0.024185960
2020-06-12T20:30:00	0.1994	13.578	206.0	0.463919816	0.548537053	0.007601977	0.078428197	0.024172332
2020-06-12T20:35:00	0.1994	13.563	207.0	0.463775493	0.548341598	0.007597692	0.078383990	0.024158707
2020-06-12T20:40:00	0.1997	13.549	207.0	0.465019396	0.550026740	0.007634662	0.078765402	0.024276262
2020-06-12T20:45:00	0.2000	13.537	206.0	0.465915963	0.551242100	0.007661364	0.079040877	0.024361166
2020-06-12T20:50:00	0.1996	13.525	207.0	0.464730837	0.549635714	0.007626078	0.078676842	0.024248967
2020-06-12T20:55:00	0.1996	13.512	206.0	0.464586548	0.549440214	0.007621788	0.078632577	0.024235324
2020-06-12T21:00:00	0.1997	13.498	206.0	0.465136274	0.550185141	0.007638140	0.078801287	0.024287322
2020-06-12T21:05:00	0.2002	13.485	207.0	0.466726504	0.552341394	0.007685543	0.079290328	0.024438049
2020-06-12T21:10:00	0.2000	13.473	207.0	0.465888578	0.551204968	0.007660547	0.079032456	0.024358570
2020-06-12T21:15:00	0.2011	13.461	206.0	0.469904715	0.556656863	0.007780713	0.080272184	0.024740667
2020-06-12T21:20:00	0.2005	13.449	206.0	0.467681012	0.553636611	0.007714065	0.079584582	0.024528741
2020-06-12T21:25:00	0.2013	13.436	206.0	0.470655956	0.557678092	0.007803293	0.080505139	0.024812466
2020-06-12T21:30:00	0.2030	13.421	208.0	0.476395969	0.565495817	0.007976887	0.082296070	0.025364448
2020-06-12T21:35:00	0.2057	13.406	206.0	0.485576851	0.578054478	0.008258466	0.085201073	0.026259798
2020-06-12T21:40:00	0.2084	13.392	206.0	0.495076904	0.591120675	0.008554932	0.088259658	0.027202484
2020-06-12T21:45:00	0.2116	13.378	206.0	0.505922122	0.606125541	0.008899734	0.091816911	0.028298864
2020-06-12T21:50:00	0.2132	13.364	206.0	0.511602965	0.614023064	0.009083057	0.093708222	0.028881784
2020-06-12T21:55:00	0.2136	13.353	206.0	0.512829482	0.615731591	0.009122882	0.094119094	0.029008419
2020-06-12T22:00:00	0.2143	13.343	206.0	0.515423352	0.619348834	0.009207393	0.094990979	0.029277142
2020-06-12T22:05:00	0.2141	13.332	208.0	0.514449036	0.617989478	0.009175603	0.094663007	0.029176058
2020-06-12T22:10:00	0.2143	13.322	206.0	0.515184388	0.619015363	0.009199591	0.094910487	0.029252334
2020-06-12T22:15:00	0.2145	13.310	205.0	0.515919582	0.620041465	0.009223605	0.095158237	0.029328693
2020-06-12T22:20:00	0.2139	13.298	206.0	0.513919471	0.617250956	0.009158348	0.094484985	0.029121190
2020-06-12T22:25:00	0.2141	13.286	205.0	0.514654937	0.618276684	0.009182317	0.094732270	0.029197406
2020-06-12T22:30:00	0.2137	13.274	205.0	0.513338331	0.616440770	0.009139430	0.094289818	0.029061038
2020-06-12T22:35:00	0.2131	13.262	205.0	0.510994408	0.613175800	0.009063329	0.093504695	0.028819055
2020-06-12T22:40:00	0.2120	13.251	205.0	0.507278378	0.608008646	0.008943331	0.092266696	0.028437492
2020-06-12T22:45:00	0.2121	13.241	205.0	0.507672634	0.608556332	0.008956024	0.092397652	0.028477854
2020-06-12T22:50:00	0.2121	13.232	204.0	0.507724212	0.608627992	0.008957686	0.092414791	0.028483136
2020-06-12T22:55:00	0.2117	13.221	204.0	0.506404939	0.606795742	0.008915242	0.091976905	0.028348175
2020-06-12T23:00:00	0.2110	13.209	205.0	0.504056260	0.603537293	0.008839929	0.091199914	0.028108699
2020-06-12T23:05:00	0.2108	13.200	206.0	0.503421800	0.602657835	0.008819639	0.090990586	0.028044182
2020-06-12T23:10:00	0.2108	13.192	205.0	0.503130349	0.602253949	0.008810326	0.090894508	0.028014570
2020-06-12T23:15:00	0.2107	13.184	207.0	0.502838874	0.601850097	0.008801017	0.090798473	0.027984971
2020-06-12T23:20:00	0.2096	13.176	206.0	0.499113960	0.596695081	0.008682489	0.089575639	0.027608082
2020-06-12T23:25:00	0.2088	13.165	205.0	0.496416488	0.592968935	0.008597154	0.088695255	0.027336739
2020-06-12T23:30:00	0.2083	13.155	205.0	0.494748899	0.590668337	0.008544610	0.088153162	0.027169661
2020-06-12T23:35:00	0.2081	13.144	205.0	0.494112705	0.589791236	0.008524606	0.087946786	0.027106054
2020-06-12T23:40:00	0.2082	13.132	204.0	0.494508484	0.590336847	0.008537048	0.088075145	0.027145615
2020-06-12T23:45:00	0.2092	13.121	204.0	0.497654618	0.594678496	0.008636270	0.089098810	0.027461119
2020-06-12T23:50:00	0.2088	13.112	204.0	0.496331446	0.592851557	0.008594471	0.088667570	0.027328206
2020-06-12T23:55:00	0.2086	13.102	205.0	0.495695548	0.591974055	0.008574418	0.088460692	0.027264444
2020-06-13T00:00:00	0.2078	13.091	207.0	0.492995366	0.588251580	0.008489530	0.087584914	0.026994521
2020-06-13T00:05:00	0.2067	13.083	206.0	0.489259668	0.583111177	0.008372779	0.086380416	0.026623283
2020-06-13T00:10:00	0.2059	13.073	204.0	0.486554369	0.579395603	0.008288732	0.085513318	0.026356035
2020-06-13T00:15:00	0.2052	13.063	204.0	0.483846913	0.575682926	0.008205039	0.084649873	0.026089913
2020-06-13T00:20:00	0.2043	13.054	205.0	0.480791941	0.571500739	0.008111109	0.083680814	0.025791240
2020-06-13T00:25:00	0.2038	13.044	204.0	0.479116661	0.569210480	0.008059827	0.083151748	0.025628176
2020-06-13T00:30:00	0.2031	13.034	204.0	0.476749055	0.565977566	0.007987627	0.082406871	0.025398598
2020-06-13T00:35:00	0.2033	13.024	204.0	0.477492590	0.566992366	0.008010266	0.082640439	0.025470586
2020-06-13T00:40:00	0.2024	13.014	204.0	0.474431877	0.562817833	0.007917275	0.081681067	0.025174898
2020-06-13T00:45:00	0.2011	13.004	204.0	0.469982770	0.556762949	0.007783058	0.080296373	0.024748122
2020-06-13T00:50:00	0.2008	12.995	204.0	0.468648755	0.554950525	0.007743035	0.079883464	0.024620860
2020-06-13T00:55:00	0.2007	12.986	204.0	0.468354304	0.554550667	0.007734215	0.079792466	0.024592813
2020-06-13T01:00:00	0.1998	12.976	206.0	0.465285294	0.550387118	0.007642576	0.078847051	0.024301427
2020-06-13T01:05:00	0.1998	12.966	204.0	0.465337521	0.550457908	0.007644131	0.078863093	0.024306371
2020-06-13T01:10:00	0.1994	12.956	205.0	0.464001666	0.548647909	0.007604408	0.078453273	0.024180061
2020-06-13T01:15:00	0.1987	12.946	205.0	0.461623433	0.545429050	0.007533940	0.077726267	0.023955990
2020-06-13T01:20:00	0.1984	12.934	205.0	0.460286104	0.543620987	0.007494456	0.077318918	0.023830442
2020-06-13T01:25:00	0.1984	12.924	203.0	0.460338407	0.543691675	0.007495998	0.077334830	0.023835346
2020-06-13T01:30:00	0.1975	12.914	204.0	0.457262080	0.539537737	0.007405549	0.076401684	0.023547741
2020-06-13T01:35:00	0.1968	12.905	204.0	0.454879074	0.536325125	0.007335855	0.075682667	0.023326133
2020-06-13T01:40:00	0.1968	12.896	204.0	0.454931462	0.536395703	0.007337384	0.075698438	0.023330994
2020-06-13T01:45:00	0.1961	12.888	204.0	0.452546802	0.533185249	0.007267958	0.074982187	0.023110238
2020-06-13T01:50:00	0.1964	12.882	204.0	0.453643876	0.534661676	0.007299858	0.075311287	0.023211670
2020-06-13T01:55:00	0.1964	12.874	204.0	0.453348108	0.534263542	0.007291251	0.075222493	0.023184303
2020-06-13T02:00:00	0.1971	12.866	204.0	0.455836948	0.537615929	0.007363831	0.075971282	0.023415087
2020-06-13T02:05:00	0.1970	12.859	204.0	0.455541374	0.537217544	0.007355193	0.075882166	0.023387620
2020-06-13T02:10:00	0.1969	12.850	203.0	0.455245773	0.536819193	0.007346559	0.075793093	0.023360167
2020-06-13T02:15:00	0.1970	12.841	204.0	0.455646128	0.537358728	0.007358253	0.075913744	0.023397353
2020-06-13T02:20:00	0.1974	12.832	204.0	0.457090013	0.539305618	0.007400506	0.076349655	0.023531705
2020-06-13T02:25:00	0.1976	12.823	204.0	0.457837895	0.540314686	0.007422438	0.076575923	0.023601443
2020-06-13T02:30:00	0.1983	12.815	204.0	0.459975924	0.543201828	0.007485312	0.077224588	0.023801368
2020-06-13T02:35:00	0.1978	12.806	203.0	0.458290277	0.540925270	0.007435720	0.076712949	0.023643676
2020-06-13T02:40:00	0.1988	12.797	204.0	0.461817572	0.545691644	0.007539680	0.077785489	0.023974243
2020-06-13T02:45:00	0.1990	12.788	203.0	0.462564403	0.546702086	0.007561782	0.078013516	0.024044523
2020-06-13T02:50:00	0.1989	12.780	203.0	0.462269419	0.546302928	0.007553049	0.077923410	0.024016752
2020-06-13T02:55:00	0.1994	12.772	203.0	0.464057568	0.548723624	0.007606068	0.078470402	0.024185340
2020-06-13T03:00:00	0.2000	12.764	203.0	0.465844768	0.551145568	0.007659242	0.079018985	0.024354419
2020-06-13T03:05:00	0.1995	12.755	203.0	0.464162058	0.548865155	0.007609172	0.078502423	0.024195209
2020-06-13T03:10:00	0.1991	12.746	203.0	0.462825737	0.547055769	0.007569524	0.078093385	0.024069140
2020-06-13T03:15:00	0.1988	12.737	203.0	0.461836218	0.545716866	0.007540231	0.077791178	0.023975997
2020-06-13T03:20:00	0.1987	12.730	203.0	0.461541171	0.545317792	0.007531508	0.077701179	0.023948258
2020-06-13T03:25:00	0.1984	12.721	203.0	0.460551274	0.543979385	0.007502277	0.077399605	0.023855310
2020-06-13T03:30:00	0.1990	12.712	203.0	0.462687581	0.546868785	0.007565431	0.078051156	0.024056124
2020-06-13T03:35:00	0.1983	12.703	203.0	0.459960928	0.543181565	0.007484871	0.077220029	0.023799963
2020-06-13T03:40:00	0.1993	12.695	203.0	0.463486474	0.547950233	0.007589115	0.078295500	0.024131434
2020-06-13T03:45:00	0.1995	12.686	202.0	0.464232934	0.548961162	0.007611278	0.078524148	0.024201905
2020-06-13T03:50:00	0.1999	12.678	203.0	0.465673140	0.550912874	0.007654127	0.078966222	0.024338156
2020-06-13T03:55:00	0.2003	12.671	202.0	0.467112731	0.552865396	0.007697077	0.079409328	0.024474726
2020-06-13T04:00:00	0.2004	12.662	202.0	0.467511677	0.553406779	0.007709001	0.079532340	0.024512640
2020-06-13T04:05:00	0.2007	12.654	202.0	0.468597680	0.554881161	0.007741505	0.079867676	0.024615993
2020-06-13T04:10:00	0.2015	12.645	202.0	0.471069077	0.558239875	0.007815724	0.080633386	0.024851993
2020-06-13T04:15:00	0.2021	12.636	202.0	0.473192538	0.561129608	0.007879774	0.081294174	0.025055654
2020-06-13T04:20:00	0.2020	12.627	202.0	0.472892287	0.560720791	0.007870702	0.081200579	0.025026807
2020-06-13T04:25:00	0.2017	12.620	202.0	0.471899521	0.559369567	0.007840742	0.080891490	0.024931543
2020-06-13T04:30:00	0.2018	12.613	202.0	0.472291706	0.559903264	0.007852571	0.081013524	0.024969155
2020-06-13T04:35:00	0.2020	12.607	202.0	0.473030026	0.560908326	0.007874863	0.081243509	0.025040038
2020-06-13T04:40:00	0.2028	12.602	202.0	0.475844078	0.564743019	0.007960114	0.082123029	0.025311115
2020-06-13T04:45:00	0.2031	12.596	202.0	0.476581623	0.565749110	0.007982533	0.082354320	0.025382401
2020-06-13T04:50:00	0.2032	12.589	202.0	0.476973265	0.566283528	0.007994450	0.082477268	0.025420295
2020-06-13T04:55:00	0.2029	12.585	203.0	0.475981696	0.564930713	0.007964295	0.082166162	0.025324409
2020-06-13T05:00:00	0.2011	12.579	201.0	0.469796400	0.556509658	0.007777460	0.080238624	0.024730323
2020-06-13T05:05:00	0.2008	12.573	202.0	0.468802724	0.555159638	0.007747649	0.079931068	0.024635531
2020-06-13T05:10:00	0.2017	12.567	201.0	0.471966588	0.559460824	0.007842764	0.080912353	0.024937973
2020-06-13T05:15:00	0.2025	12.563	201.0	0.474781524	0.563294343	0.007927871	0.081790383	0.025208590
2020-06-13T05:20:00	0.2030	12.559	201.0	0.476556870	0.565715337	0.007981780	0.082346552	0.025380007
2020-06-13T05:25:00	0.2039	12.554	201.0	0.479367990	0.569553927	0.008067510	0.083231014	0.025652607
2020-06-13T05:30:00	0.2038	12.550	201.0	0.479068287	0.569144382	0.008058348	0.083136496	0.025623475
2020-06-13T05:35:00	0.2046	12.544	201.0	0.481877324	0.572985751	0.008144419	0.084024472	0.025897158
2020-06-13T05:40:00	0.2046	12.542	201.0	0.481923116	0.573048424	0.008145826	0.084038987	0.025901632
2020-06-13T05:45:00	0.2052	12.544	201.0	0.484039780	0.575947207	0.008210987	0.084711237	0.026108826
2020-06-13T05:50:00	0.2058	12.540	202.0	0.486155123	0.578847758	0.008276364	0.085385720	0.026316708
2020-06-13T05:55:00	0.2051	12.539	202.0	0.483786256	0.575599816	0.008203169	0.084630579	0.026083966
2020-06-13T06:00:00	0.2051	12.537	201.0	0.483486944	0.575189749	0.008193943	0.084535401	0.026054632
2020-06-13T06:05:00	0.2056	12.540	200.0	0.485257733	0.577616823	0.008248598	0.085099261	0.026228419
2020-06-13T06:10:00	0.2057	12.544	200.0	0.485648374	0.578152579	0.008260679	0.085223900	0.026266834
2020-06-13T06:15:00	0.2054	12.551	201.0	0.484659342	0.576796377	0.008230108	0.084908512	0.026169628
2020-06-13T06:20:00	0.2056	12.558	201.0	0.485394970	0.577805027	0.008252841	0.085143038	0.026241911
2020-06-13T06:25:00	0.2056	12.563	201.0	0.485440715	0.577867764	0.008254256	0.085157633	0.026246409
2020-06-13T06:30:00	0.2059	12.570	201.0	0.486520980	0.579349782	0.008287697	0.085502643	0.026352745
2020-06-13T06:35:00	0.2067	12.577	201.0	0.489323855	0.583199407	0.008374778	0.086401042	0.026629640
2020-06-13T06:40:00	0.2066	12.585	201.0	0.488680479	0.582315202	0.008354749	0.086194410	0.026565954
2020-06-13T06:45:00	0.2064	12.592	201.0	0.488036982	0.581431162	0.008334741	0.085987985	0.026502332
2020-06-13T06:50:00	0.2067	12.602	201.0	0.489116421	0.582914290	0.008368318	0.086334394	0.026609099
2020-06-13T06:55:00	0.2067	12.615	202.0	0.489162116	0.582977093	0.008369741	0.086349073	0.026613623
2020-06-13T07:00:00	0.2065	12.630	201.0	0.488518709	0.582092930	0.008349717	0.086142493	0.026549953
2020-06-13T07:05:00	0.2067	12.655	201.0	0.489253502	0.583102703	0.008372587	0.086378435	0.026622672
2020-06-13T07:10:00	0.2064	12.708	201.0	0.488265520	0.581745091	0.008341844	0.086061269	0.026524919
2020-06-13T07:15:00	0.2050	12.720	202.0	0.483483309	0.575184770	0.008193831	0.084534245	0.026054275
2020-06-13T07:20:00	0.2044	12.743	202.0	0.481112574	0.571939329	0.008120942	0.083782261	0.025822507
2020-06-13T07:25:00	0.2042	12.769	202.0	0.480467639	0.571057215	0.008101169	0.083578267	0.025759634
2020-06-13T07:30:00	0.2040	12.801	202.0	0.479822582	0.570175265	0.008081416	0.083374480	0.025696825
2020-06-13T07:35:00	0.2037	12.822	203.0	0.478831848	0.568821338	0.008051124	0.083061967	0.025600505
2020-06-13T07:40:00	0.2042	12.833	203.0	0.480605070	0.571245159	0.008105380	0.083621716	0.025773025
2020-06-13T07:45:00	0.2039	12.881	204.0	0.479614566	0.569890927	0.008075051	0.083308816	0.025676586
2020-06-13T07:50:00	0.2052	12.904	204.0	0.484148734	0.576096517	0.008214348	0.084745913	0.026119513
2020-06-13T07:55:00	0.2050	12.906	203.0	0.483159264	0.574740901	0.008183849	0.084431264	0.026022536
2020-06-13T08:00:00	0.2048	12.917	203.0	0.482514719	0.573858267	0.008164012	0.084226612	0.025959460
2020-06-13T08:05:00	0.2043	12.939	203.0	0.480834110	0.571558416	0.008112402	0.083694152	0.025795351
2020-06-13T08:10:00	0.2042	12.946	203.0	0.480534536	0.571148698	0.008103219	0.083599415	0.025766152
2020-06-13T08:15:00	0.2050	12.978	203.0	0.483342359	0.574991690	0.008189489	0.084489444	0.026040467
2020-06-13T08:20:00	0.2058	13.026	204.0	0.486147859	0.578837791	0.008276139	0.085383399	0.026315993
2020-06-13T08:25:00	0.2048	13.060	203.0	0.482743629	0.574171696	0.008171055	0.084299266	0.025981852
2020-06-13T08:30:00	0.2049	13.105	206.0	0.483134559	0.574707064	0.008183088	0.084423415	0.026020116
2020-06-13T08:35:00	0.2048	13.148	205.0	0.482490009	0.573824436	0.008163252	0.084218771	0.025957043
2020-06-13T08:40:00	0.2051	13.210	204.0	0.483571214	0.575305194	0.008196540	0.084562192	0.026062889
2020-06-13T08:45:00	0.2048	13.247	204.0	0.482581576	0.573949804	0.008166069	0.084247828	0.025965999
2020-06-13T08:50:00	0.2046	13.287	205.0	0.481936920	0.573067317	0.008146250	0.084043362	0.025902980
2020-06-13T08:55:00	0.2049	13.329	205.0	0.483018301	0.574547839	0.008179509	0.084386485	0.026008734
2020-06-13T09:00:00	0.2046	13.400	205.0	0.482028502	0.573192665	0.008149064	0.084072394	0.025911928
2020-06-13T09:05:00	0.2038	13.450	205.0	0.479311245	0.569476380	0.008065775	0.083213114	0.025647090
2020-06-13T09:10:00	0.2042	13.514	205.0	0.480393464	0.570955782	0.008098896	0.083554821	0.025752407
2020-06-13T09:15:00	0.2043	13.568	206.0	0.480784665	0.571490788	0.008110886	0.083678512	0.025790530
2020-06-13T09:20:00	0.2042	13.621	206.0	0.480485087	0.571081075	0.008101704	0.083583783	0.025761334
2020-06-13T09:25:00	0.2033	13.653	206.0	0.477420895	0.566894494	0.008008082	0.082617903	0.025463640
2020-06-13T09:30:00	0.2035	13.696	206.0	0.478158096	0.567901043	0.008030557	0.082849773	0.025535105
2020-06-13T09:35:00	0.2040	13.744	206.0	0.479931671	0.570324394	0.008084755	0.083408927	0.025707441
2020-06-13T09:40:00	0.2044	13.803	207.0	0.481359023	0.572276498	0.008128504	0.083860279	0.025846552
2020-06-13T09:45:00	0.2046	13.857	207.0	0.482095368	0.573284190	0.008151119	0.084093594	0.025918463
2020-06-13T09:50:00	0.2037	13.916	207.0	0.478687065	0.568623544	0.008046702	0.083016346	0.025586444
2020-06-13T09:55:00	0.2037	13.977	208.0	0.478732900	0.568686159	0.008048102	0.083030787	0.025590895
2020-06-13T10:00:00	0.2044	14.035	208.0	0.481196903	0.572054695	0.008123529	0.083808953	0.025830733
2020-06-13T10:05:00	0.2037	14.085	208.0	0.478873493	0.568878234	0.008052397	0.083075092	0.025604550
2020-06-13T10:10:00	0.2039	14.135	208.0	0.479659293	0.569952062	0.008076420	0.083322933	0.025680937
2020-06-13T10:15:00	0.2034	14.181	208.0	0.477680533	0.567248946	0.008015994	0.082699529	0.025488798
2020-06-13T10:20:00	0.2043	14.226	209.0	0.480885001	0.571628026	0.008113962	0.083710251	0.025800312
2020-06-13T10:25:00	0.2046	14.275	209.0	0.482015598	0.573175003	0.008148668	0.084068303	0.025910667
2020-06-13T10:30:00	0.2044	14.318	209.0	0.481074399	0.571887105	0.008119771	0.083770180	0.025818783
2020-06-13T10:35:00	0.2036	14.366	209.0	0.478405308	0.568238674	0.008038100	0.082927599	0.025559092
2020-06-13T10:40:00	0.2041	14.433	210.0	0.480227660	0.570729066	0.008093818	0.083502424	0.025736258
2020-06-13T10:45:00	0.2042	14.486	210.0	0.480667779	0.571330922	0.008107303	0.083641545	0.025779137
2020-06-13T10:50:00	0.2042	14.529	211.0	0.480417094	0.570988095	0.008099620	0.083562290	0.025754709
2020-06-13T10:55:00	0.2041	14.576	211.0	0.480166390	0.570645293	0.008091941	0.083483066	0.025730292
2020-06-13T11:00:00	0.2046	14.620	211.0	0.481987795	0.573136948	0.008147813	0.084059489	0.025907951
2020-06-13T11:05:00	0.2036	14.653	211.0	0.478628312	0.568543285	0.008044908	0.082997836	0.025580739
2020-06-13T11:10:00	0.2037	14.682	211.0	0.478723075	0.568672738	0.008047802	0.083027691	0.025589941
2020-06-13T11:15:00	0.2044	14.716	211.0	0.481235977	0.572108151	0.008124728	0.083821322	0.025834545
2020-06-13T11:20:00	0.2035	14.760	212.0	0.478221398	0.567987494	0.008032488	0.082869698	0.025541246
2020-06-13T11:25:00	0.2028	14.816	212.0	0.475550057	0.564342063	0.007951186	0.082030916	0.025282725
2020-06-13T11:30:00	0.2018	14.861	212.0	0.472184173	0.559756918	0.007849327	0.080980055	0.024958839
2020-06-13T11:35:00	0.2011	14.897	213.0	0.469854561	0.556588700	0.007779207	0.080256644	0.024735877
2020-06-13T11:40:00	0.2013	14.940	213.0	0.470642459	0.557659740	0.007802887	0.080500950	0.024811175
2020-06-13T11:45:00	0.2011	14.958	213.0	0.469698090	0.556376057	0.007774508	0.080208170	0.024720937
2020-06-13T11:50:00	0.2004	15.018	213.0	0.467366761	0.553210109	0.007704669	0.079487646	0.024498864
2020-06-13T11:55:00	0.1995	15.089	214.0	0.464339777	0.549105895	0.007614452	0.078556901	0.024212000
2020-06-13T12:00:00	0.1999	15.125	214.0	0.465822844	0.551115841	0.007658588	0.079012244	0.024352341
2020-06-13T12:05:00	0.2003	15.156	214.0	0.466958489	0.552656119	0.007692470	0.079361794	0.024460076
2020-06-13T12:10:00	0.1995	15.180	214.0	0.464278219	0.549022505	0.007612623	0.078538029	0.024206183
2020-06-13T12:15:00	0.1996	15.185	214.0	0.464720421	0.549621601	0.007625768	0.078673646	0.024247982
2020-06-13T12:20:00	0.1992	15.206	214.0	0.463080091	0.547400056	0.007577063	0.078171160	0.024093111
2020-06-13T12:25:00	0.1978	15.234	214.0	0.458311305	0.540953656	0.007436337	0.076719321	0.023645640
2020-06-13T12:30:00	0.1967	15.264	215.0	0.454580104	0.535922390	0.007327134	0.075592695	0.023298403
2020-06-13T12:35:00	0.1958	15.294	215.0	0.451541585	0.531833276	0.007238790	0.074681263	0.023017491
2020-06-13T12:40:00	0.1961	15.310	215.0	0.452333782	0.532898680	0.007261772	0.074918368	0.023090568
2020-06-13T12:45:00	0.1955	15.321	215.0	0.450338906	0.530216771	0.007203968	0.074322005	0.022906764
2020-06-13T12:50:00	0.1945	15.330	215.0	0.446947700	0.525664831	0.007106221	0.073313571	0.022595954
2020-06-13T12:55:00	0.1936	15.349	215.0	0.443902250	0.521584703	0.007018997	0.072413697	0.022318605
2020-06-13T13:00:00	0.1925	15.374	215.0	0.440090396	0.516107993	0.006905479	0.071242556	0.021957648
2020-06-13T13:05:00	0.1921	15.407	216.0	0.439077960	0.514370711	0.006871675	0.070893808	0.021850160
2020-06-13T13:10:00	0.1908	15.460	216.0	0.435615266	0.508450589	0.006756827	0.069708937	0.021484971
2020-06-13T13:15:00	0.1901	15.534	216.0	0.433509562	0.504866863	0.006687564	0.068994367	0.021264734
2020-06-13T13:20:00	0.1912	15.633	216.0	0.436581514	0.510099202	0.006788756	0.070038341	0.021586497
2020-06-13T13:25:00	0.1908	15.727	217.0	0.435566953	0.508368225	0.006755233	0.069692492	0.021479903
2020-06-13T13:30:00	0.1909	15.812	218.0	0.435913999	0.508960010	0.006766688	0.069810677	0.021516329
2020-06-13T13:35:00	0.1904	15.871	218.0	0.434353942	0.506302439	0.006715286	0.069280367	0.021352882
2020-06-13T13:40:00	0.1908	15.912	218.0	0.435518638	0.508285866	0.006753639	0.069676048	0.021474835
2020-06-13T13:45:00	0.1897	15.943	218.0	0.432594378	0.503313153	0.006657597	0.068685201	0.021169446
2020-06-13T13:50:00	0.1898	15.967	218.0	0.432942046	0.503903115	0.006668971	0.068802550	0.021205614
2020-06-13T13:55:00	0.1908	15.981	218.0	0.435470322	0.508203510	0.006752045	0.069659606	0.021469767
2020-06-13T14:00:00	0.1899	15.991	219.0	0.433091660	0.504157100	0.006673870	0.068853087	0.021221190
2020-06-13T14:05:00	0.1898	15.990	218.0	0.432893655	0.503820980	0.006667388	0.068786209	0.021200578
2020-06-13T14:10:00	0.1903	15.973	218.0	0.434059375	0.505801404	0.006705607	0.069180512	0.021322106
2020-06-13T14:15:00	0.1888	15.951	218.0	0.430039698	0.498988409	0.006574380	0.067826666	0.020904837
2020-06-13T14:20:00	0.1874	15.920	218.0	0.426284142	0.492663684	0.006453203	0.066576503	0.020519525
2020-06-13T14:25:00	0.1875	15.887	218.0	0.426633144	0.493249788	0.006464406	0.066692083	0.020555148
2020-06-13T14:30:00	0.1865	15.870	218.0	0.423693048	0.488322845	0.006370398	0.065722223	0.020256227
2020-06-13T14:35:00	0.1859	15.859	218.0	0.422121349	0.485698853	0.006320488	0.065207308	0.020097525
2020-06-13T14:40:00	0.1852	15.864	218.0	0.420273210	0.482622078	0.006262104	0.064604976	0.019911881
2020-06-13T14:45:00	0.1840	15.871	218.0	0.416770569	0.476816783	0.006152357	0.063472734	0.019562913
2020-06-13T14:50:00	0.1833	15.882	218.0	0.414916278	0.473757168	0.006094734	0.062878246	0.019379686
2020-06-13T14:55:00	0.1851	15.890	218.0	0.419949470	0.482084090	0.006251911	0.064499815	0.019879469
2020-06-13T15:00:00	0.1850	15.893	218.0	0.419749868	0.481752537	0.006245632	0.064435030	0.019859502
2020-06-13T15:05:00	0.1847	15.891	218.0	0.418724839	0.480051624	0.006213444	0.064102958	0.019757154
2020-06-13T15:10:00	0.1850	15.885	218.0	0.419625666	0.481546283	0.006241726	0.064394737	0.019847083
2020-06-13T15:15:00	0.1854	15.885	218.0	0.420800865	0.483499553	0.006278740	0.064776598	0.019964777
2020-06-13T15:20:00	0.1852	15.882	218.0	0.420326459	0.482710596	0.006263782	0.064622283	0.019917215
2020-06-13T15:25:00	0.1849	15.883	218.0	0.419301796	0.481008658	0.006231549	0.064289743	0.019814723
2020-06-13T15:30:00	0.1841	15.887	218.0	0.417174979	0.477485326	0.006164968	0.063602840	0.019603013
2020-06-13T15:35:00	0.1843	15.887	218.0	0.417801334	0.478521662	0.006184531	0.063804669	0.019665219
2020-06-13T15:40:00	0.1861	15.888	218.0	0.422551010	0.486415504	0.006334108	0.065347827	0.020140835
2020-06-13T15:45:00	0.1862	15.880	218.0	0.422900813	0.486999333	0.006345210	0.065462365	0.020176137
2020-06-13T15:50:00	0.1861	15.873	218.0	0.422701575	0.486666758	0.006338885	0.065397112	0.020156025
2020-06-13T15:55:00	0.1856	15.868	218.0	0.421403688	0.484502972	0.006297777	0.064973009	0.020025312
2020-06-13T16:00:00	0.1850	15.860	218.0	0.419554728	0.481428502	0.006239496	0.064371731	0.019839993
2020-06-13T16:05:00	0.1851	15.848	218.0	0.419832229	0.481889331	0.006248222	0.064461757	0.019867740
2020-06-13T16:10:00	0.1854	15.837	218.0	0.420659526	0.483264435	0.006274281	0.064730600	0.019950600
2020-06-13T16:15:00	0.1867	15.820	218.0	0.424231428	0.489223257	0.006387550	0.065899173	0.020310765
2020-06-13T16:20:00	0.1887	15.816	218.0	0.429710119	0.498431797	0.006563691	0.067716386	0.020870848
2020-06-13T16:25:00	0.1893	15.821	219.0	0.431351880	0.501207495	0.006617044	0.068266819	0.021040497
2020-06-13T16:30:00	0.1892	15.814	218.0	0.431081218	0.500749375	0.006608230	0.068175887	0.021012470
2020-06-13T16:35:00	0.1908	15.813	218.0	0.435447953	0.508165384	0.006751307	0.069651995	0.021467421
2020-06-13T16:40:00	0.1922	15.809	218.0	0.439259779	0.514682490	0.006877739	0.070956360	0.021869439
2020-06-13T16:45:00	0.1914	15.790	218.0	0.437086483	0.510961817	0.006805479	0.070210868	0.021639671
2020-06-13T16:50:00	0.1922	15.771	218.0	0.439264642	0.514690832	0.006877901	0.070958034	0.021869955
2020-06-13T16:55:00	0.1933	15.751	218.0	0.442590556	0.519829613	0.006981591	0.072027790	0.022199664
2020-06-13T17:00:00	0.1936	15.733	218.0	0.443641456	0.521235644	0.007011552	0.072336890	0.022294932
2020-06-13T17:05:00	0.1939	15.708	218.0	0.444692025	0.522642100	0.007041566	0.072646539	0.022390369
2020-06-13T17:10:00	0.1947	15.682	218.0	0.447486730	0.526387753	0.007121714	0.073473410	0.022645218
2020-06-13T17:15:00	0.1946	15.653	218.0	0.447141030	0.525924091	0.007111776	0.073370880	0.022613618
2020-06-13T17:20:00	0.1952	15.628	218.0	0.449236526	0.528736077	0.007172121	0.073993453	0.022805501
2020-06-13T17:25:00	0.1948	15.604	218.0	0.447844876	0.526868209	0.007132017	0.073579706	0.022677980
2020-06-13T17:30:00	0.1940	15.577	218.0	0.445056716	0.523130536	0.007052000	0.072754181	0.022423545
2020-06-13T17:35:00	0.1940	15.548	218.0	0.445059840	0.523134719	0.007052089	0.072755103	0.022423829
2020-06-13T17:40:00	0.1937	15.521	218.0	0.444015635	0.521736479	0.007022235	0.072447103	0.022328901
2020-06-13T17:45:00	0.1935	15.494	217.0	0.443320358	0.520805946	0.007002391	0.072242377	0.022265802
2020-06-13T17:50:00	0.1935	15.467	217.0	0.443323483	0.520810127	0.007002480	0.072243297	0.022266086
2020-06-13T17:55:00	0.1932	15.439	217.0	0.442278736	0.519412586	0.006972713	0.071936199	0.022171435
2020-06-13T18:00:00	0.1921	15.409	217.0	0.439026883	0.514283143	0.006869973	0.070876241	0.021844746
2020-06-13T18:05:00	0.1915	15.383	217.0	0.437397558	0.511493567	0.006815793	0.070317279	0.021672468
2020-06-13T18:10:00	0.1898	15.355	217.0	0.432768005	0.503607740	0.006663276	0.068743790	0.021187504
2020-06-13T18:15:00	0.1892	15.327	217.0	0.431132539	0.500836225	0.006609900	0.068193123	0.021017783
2020-06-13T18:20:00	0.1898	15.300	217.0	0.432772888	0.503616026	0.006663436	0.068745438	0.021188012
2020-06-13T18:25:00	0.1912	15.274	217.0	0.436590826	0.510115102	0.006789064	0.070041520	0.021587477
2020-06-13T18:30:00	0.1916	15.247	217.0	0.437681800	0.511979683	0.006825226	0.070414597	0.021702463
2020-06-13T18:35:00	0.1925	15.222	216.0	0.440130856	0.516177480	0.006906832	0.071256515	0.021961950
2020-06-13T18:40:00	0.1919	15.196	216.0	0.438502604	0.513384712	0.006852510	0.070696085	0.021789220
2020-06-13T18:45:00	0.1930	15.172	216.0	0.441611237	0.518520132	0.006953728	0.071740326	0.022111065
2020-06-13T18:50:00	0.1913	15.147	216.0	0.436875204	0.510600812	0.006798479	0.070138651	0.021617414
2020-06-13T18:55:00	0.1907	15.120	216.0	0.435243779	0.507817452	0.006744576	0.069582546	0.021446017
2020-06-13T19:00:00	0.1891	15.095	216.0	0.430881394	0.500411286	0.006601727	0.068108801	0.020991794
2020-06-13T19:05:00	0.1885	15.072	216.0	0.429244057	0.497645201	0.006548593	0.067560625	0.020822841
2020-06-13T19:10:00	0.1876	15.046	216.0	0.426783767	0.493502843	0.006469244	0.066742002	0.020570533
2020-06-13T19:15:00	0.1870	15.020	216.0	0.425142335	0.490748531	0.006416633	0.066199223	0.020403243
2020-06-13T19:20:00	0.1867	14.995	216.0	0.424322228	0.489375194	0.006390445	0.065929045	0.020319972
2020-06-13T19:25:00	0.1870	14.970	216.0	0.425147241	0.490756752	0.006416790	0.066200841	0.020403742
2020-06-13T19:30:00	0.1876	14.943	215.0	0.426793568	0.493519311	0.006469559	0.066745251	0.020571535
2020-06-13T19:35:00	0.1885	14.919	216.0	0.429258737	0.497669968	0.006549068	0.067565528	0.020824352
2020-06-13T19:40:00	0.1887	14.894	216.0	0.429807953	0.498596994	0.006566863	0.067749111	0.020880934
2020-06-13T19:45:00	0.1893	14.869	216.0	0.431449617	0.501372974	0.006620228	0.068299673	0.021050623
2020-06-13T19:50:00	0.1913	14.844	215.0	0.436904429	0.510650739	0.006799447	0.070148638	0.021620491
2020-06-13T19:55:00	0.1918	14.824	215.0	0.438267170	0.512981511	0.006844677	0.070615274	0.021764313
2020-06-13T20:00:00	0.1936	14.803	215.0	0.443753939	0.521386190	0.007014763	0.072370013	0.022305141
2020-06-13T20:05:00	0.1939	14.780	214.0	0.444804473	0.522792692	0.007044782	0.072679721	0.022400596
2020-06-13T20:10:00	0.1944	14.756	215.0	0.446552549	0.525135017	0.007094874	0.073196504	0.022559873
2020-06-13T20:15:00	0.1946	14.733	215.0	0.447253396	0.526074789	0.007115005	0.073404198	0.022623887
2020-06-13T20:20:00	0.1948	14.716	215.0	0.447954097	0.527014751	0.007135161	0.073612137	0.022687976
2020-06-13T20:25:00	0.1944	14.697	215.0	0.446561914	0.525147573	0.007095143	0.073199278	0.022560728
2020-06-13T20:30:00	0.1949	14.676	214.0	0.448309073	0.527491084	0.007145382	0.073717589	0.022720477
2020-06-13T20:35:00	0.1944	14.655	214.0	0.446568158	0.525155944	0.007095322	0.073201127	0.022561298
2020-06-13T20:40:00	0.1951	14.634	214.0	0.449012673	0.528435520	0.007165663	0.073926824	0.022784965
2020-06-13T20:45:00	0.1939	14.615	214.0	0.444829461	0.522826157	0.007045497	0.072687095	0.022402869
2020-06-13T20:50:00	0.1947	14.600	214.0	0.447624051	0.526571959	0.007125664	0.073514157	0.022657777
2020-06-13T20:55:00	0.1946	14.585	213.0	0.447278366	0.526108278	0.007115723	0.073411603	0.022626169
2020-06-13T21:00:00	0.1950	14.565	214.0	0.448676491	0.527984217	0.007155969	0.073826814	0.022754141
2020-06-13T21:05:00	0.1976	14.550	214.0	0.457733011	0.540173147	0.007419360	0.076544171	0.023591657
2020-06-13T21:10:00	0.1965	14.538	213.0	0.453908822	0.535018379	0.007307572	0.075390871	0.023236199
2020-06-13T21:15:00	0.1972	14.520	214.0	0.456347994	0.538304897	0.007378777	0.076125485	0.023462614
2020-06-13T21:20:00	0.1963	14.503	214.0	0.453218711	0.534089383	0.007287487	0.075183662	0.023172335
2020-06-13T21:25:00	0.1969	14.487	213.0	0.455310414	0.536906296	0.007348446	0.075812566	0.023366169
2020-06-13T21:30:00	0.1974	14.470	213.0	0.457053023	0.539255720	0.007399422	0.076338472	0.023528258
2020-06-13T21:35:00	0.1966	14.449	214.0	0.454272512	0.535508114	0.007318167	0.075500183	0.023269890
2020-06-13T21:40:00	0.1961	14.434	213.0	0.452534691	0.533168957	0.007267607	0.074978558	0.023109120
2020-06-13T21:45:00	0.1952	14.417	213.0	0.449401849	0.528958074	0.007176893	0.074042680	0.022820673
2020-06-13T21:50:00	0.1954	14.399	213.0	0.450102100	0.529898618	0.007197121	0.074251368	0.022884993
2020-06-13T21:55:00	0.1947	14.384	213.0	0.447664622	0.526626385	0.007126831	0.073526198	0.022661488
2020-06-13T22:00:00	0.1926	14.367	213.0	0.440502121	0.516815310	0.006919255	0.071384680	0.022001452
2020-06-13T22:05:00	0.1910	14.350	213.0	0.436112509	0.509298659	0.006773246	0.069878334	0.021537181
2020-06-13T22:10:00	0.1910	14.333	212.0	0.436073956	0.509232881	0.006771972	0.069865191	0.021533130
2020-06-13T22:15:00	0.1916	14.318	212.0	0.437668488	0.511956913	0.006824784	0.070410038	0.021701057
2020-06-13T22:20:00	0.1926	14.305	212.0	0.440348309	0.516551016	0.006914107	0.071331565	0.021985081
2020-06-13T22:25:00	0.1931	14.289	212.0	0.441835229	0.518819573	0.006960096	0.071806026	0.022131315
2020-06-13T22:30:00	0.1930	14.273	212.0	0.441785762	0.518753440	0.006958689	0.071791514	0.022126842
2020-06-13T22:35:00	0.1937	14.257	212.0	0.444181216	0.521958142	0.007026965	0.072495900	0.022343941
2020-06-13T22:40:00	0.1936	14.240	212.0	0.443782613	0.521424569	0.007015581	0.072378458	0.022307744
2020-06-13T22:45:00	0.1930	14.225	212.0	0.441637357	0.518555048	0.006954470	0.071747986	0.022113426
2020-06-13T22:50:00	0.1932	14.213	212.0	0.442286649	0.519423168	0.006972939	0.071938523	0.022172151
2020-06-13T22:55:00	0.1904	14.204	212.0	0.434364563	0.506320509	0.006715635	0.069283968	0.021353992
2020-06-13T23:00:00	0.1903	14.187	211.0	0.434053353	0.505791164	0.006705409	0.069178471	0.021321477
2020-06-13T23:05:00	0.1903	14.169	212.0	0.434287375	0.506189194	0.006713098	0.069257794	0.021345925
2020-06-13T23:10:00	0.1901	14.154	212.0	0.433703478	0.505196374	0.006693924	0.069059984	0.021284958
2020-06-13T23:15:00	0.1912	14.138	212.0	0.436661894	0.510236463	0.006791416	0.070065786	0.021594956
2020-06-13T23:20:00	0.1909	14.122	211.0	0.435806500	0.508776665	0.006763139	0.069774055	0.021505041
2020-06-13T23:25:00	0.1916	14.107	211.0	0.437673357	0.511965241	0.006824946	0.070411705	0.021701571
2020-06-13T23:30:00	0.1908	14.093	212.0	0.435456993	0.508180792	0.006751606	0.069655071	0.021468369
2020-06-13T23:35:00	0.1898	14.085	212.0	0.432692041	0.503478845	0.006660791	0.068718153	0.021179602
2020-06-13T23:40:00	0.1906	14.077	211.0	0.435107413	0.507585136	0.006740082	0.069536185	0.021431728
2020-06-13T23:45:00	0.1903	14.062	211.0	0.434251220	0.506127690	0.006711910	0.069245535	0.021342146
2020-06-13T23:50:00	0.1902	14.044	211.0	0.433939989	0.505598408	0.006701687	0.069140066	0.021309640
2020-06-13T23:55:00	0.1889	14.030	211.0	0.430352962	0.499517749	0.006584550	0.067931588	0.020937175
2020-06-14T00:00:00	0.1881	14.019	211.0	0.428126781	0.495761974	0.006512486	0.067188115	0.020708029
2020-06-14T00:05:00	0.1890	14.003	211.0	0.430548827	0.499848850	0.006590914	0.067997240	0.020957410
2020-06-14T00:10:00	0.1899	13.987	211.0	0.432967322	0.503946020	0.006669799	0.068811086	0.021208245
2020-06-14T00:15:00	0.1900	13.973	211.0	0.433474254	0.504806878	0.006686407	0.068982423	0.021261053
2020-06-14T00:20:00	0.1898	13.960	211.0	0.432890070	0.503814896	0.006667270	0.068784998	0.021200205
2020-06-14T00:25:00	0.1897	13.947	211.0	0.432578584	0.503286361	0.006657081	0.068679873	0.021167804
2020-06-14T00:30:00	0.1912	13.937	211.0	0.436628226	0.510178967	0.006790302	0.070054290	0.021591412
2020-06-14T00:35:00	0.1921	13.930	211.0	0.439037905	0.514302039	0.006870340	0.070880032	0.021845914
2020-06-14T00:40:00	0.1930	13.918	211.0	0.441547796	0.518435330	0.006951924	0.071721723	0.022105332
2020-06-14T00:45:00	0.1923	13.906	211.0	0.439504522	0.515102318	0.006885905	0.071040615	0.021895408
2020-06-14T00:50:00	0.1918	13.894	211.0	0.438378670	0.513172444	0.006848386	0.070653538	0.021776107
2020-06-14T00:55:00	0.1916	13.883	211.0	0.437796203	0.512175403	0.006829025	0.070453789	0.021714542
2020-06-14T01:00:00	0.1905	13.872	210.0	0.434762637	0.506997998	0.006728729	0.069419055	0.021395627
2020-06-14T01:05:00	0.1909	13.862	210.0	0.435813811	0.508789133	0.006763380	0.069776546	0.021505809
2020-06-14T01:10:00	0.1905	13.855	211.0	0.434685468	0.506866629	0.006726189	0.069392855	0.021387552
2020-06-14T01:15:00	0.1907	13.846	211.0	0.435191876	0.507729022	0.006742865	0.069564898	0.021440577
2020-06-14T01:20:00	0.1902	13.835	210.0	0.433790452	0.505344199	0.006696778	0.069089427	0.021294032
2020-06-14T01:25:00	0.1893	13.825	210.0	0.431568904	0.501574975	0.006624116	0.068339784	0.021062985
2020-06-14T01:30:00	0.1884	13.817	210.0	0.429070927	0.497353154	0.006542990	0.067502820	0.020805025
2020-06-14T01:35:00	0.1882	13.810	210.0	0.428485183	0.496365701	0.006524055	0.067307472	0.020744817
2020-06-14T01:40:00	0.1881	13.800	210.0	0.428172864	0.495839580	0.006513973	0.067203454	0.020712757
2020-06-14T01:45:00	0.1878	13.789	210.0	0.427313067	0.494392600	0.006486265	0.066917605	0.020624656
2020-06-14T01:50:00	0.1880	13.779	210.0	0.427821740	0.495248414	0.006502649	0.067086629	0.020676751
2020-06-14T01:55:00	0.1880	13.774	210.0	0.427782994	0.495183200	0.006501400	0.067073745	0.020672780
2020-06-14T02:00:00	0.1879	13.764	210.0	0.427744246	0.495117989	0.006500151	0.067060863	0.020668809
2020-06-14T02:05:00	0.1883	13.756	210.0	0.428799890	0.496896118	0.006534224	0.067412385	0.020777152
2020-06-14T02:10:00	0.1872	13.746	210.0	0.425749759	0.491766914	0.006436072	0.066399768	0.020465053
2020-06-14T02:15:00	0.1882	13.737	210.0	0.428448900	0.496304566	0.006522883	0.067295383	0.020741091
2020-06-14T02:20:00	0.1879	13.728	210.0	0.427589248	0.494857171	0.006495158	0.067009344	0.020652930
2020-06-14T02:25:00	0.1886	13.717	210.0	0.429465384	0.498018671	0.006555760	0.067634567	0.020845630
2020-06-14T02:30:00	0.1892	13.708	209.0	0.431066276	0.500724091	0.006607743	0.068170869	0.021010924
2020-06-14T02:35:00	0.1895	13.697	210.0	0.432119794	0.502508369	0.006642089	0.068525211	0.021120136
2020-06-14T02:40:00	0.1889	13.687	210.0	0.430442557	0.499669192	0.006587460	0.067961615	0.020946430
2020-06-14T02:45:00	0.1892	13.681	209.0	0.431223390	0.500989990	0.006612859	0.068223642	0.021027189
2020-06-14T02:50:00	0.1895	13.671	209.0	0.432003855	0.502311859	0.006638304	0.068486161	0.021108100
2020-06-14T02:55:00	0.1897	13.662	210.0	0.432511081	0.503171856	0.006654874	0.068657104	0.021160786
2020-06-14T03:00:00	0.1898	13.656	209.0	0.432745321	0.503569249	0.006662534	0.068736134	0.021185144
2020-06-14T03:05:00	0.1909	13.662	209.0	0.435705441	0.508604335	0.006759803	0.069739638	0.021494434
2020-06-14T03:10:00	0.1917	13.650	208.0	0.438116450	0.512723469	0.006839666	0.070563571	0.021748378
2020-06-14T03:15:00	0.1917	13.643	207.0	0.438077943	0.512657554	0.006838386	0.070550365	0.021744308
2020-06-14T03:20:00	0.1914	13.635	207.0	0.437223274	0.511195612	0.006810013	0.070257649	0.021654090
2020-06-14T03:25:00	0.1928	13.627	208.0	0.440990197	0.517654408	0.006935608	0.071553385	0.022053448
2020-06-14T03:30:00	0.1925	13.617	207.0	0.440137010	0.516188049	0.006907038	0.071258638	0.021962604
2020-06-14T03:35:00	0.1927	13.609	207.0	0.440641770	0.517055326	0.006923932	0.071432926	0.022016321
2020-06-14T03:40:00	0.1940	13.601	208.0	0.445006388	0.523063124	0.007050559	0.072739321	0.022418965
2020-06-14T03:45:00	0.1946	13.600	207.0	0.447399538	0.526270800	0.007119207	0.073447543	0.022637246
2020-06-14T03:50:00	0.1946	13.593	207.0	0.447350153	0.526204561	0.007117787	0.073432895	0.022632731
2020-06-14T03:55:00	0.1953	13.584	206.0	0.449741629	0.529414403	0.007186704	0.074143905	0.022851872
2020-06-14T04:00:00	0.1954	13.576	206.0	0.450040834	0.529816312	0.007195350	0.074233098	0.022879362
2020-06-14T04:05:00	0.1959	13.569	207.0	0.451841734	0.532236880	0.007247493	0.074771054	0.023045165
2020-06-14T04:10:00	0.1961	13.562	206.0	0.452597017	0.533252808	0.007269417	0.074997235	0.023114876
2020-06-14T04:15:00	0.1951	13.556	206.0	0.448822570	0.528180308	0.007160181	0.073870263	0.022767532
2020-06-14T04:20:00	0.1941	13.548	207.0	0.445392906	0.523580892	0.007061625	0.072853479	0.022454150
2020-06-14T04:25:00	0.1949	13.542	206.0	0.448242639	0.527401930	0.007143469	0.073697848	0.022714392
2020-06-14T04:30:00	0.1963	13.536	206.0	0.453179864	0.534037099	0.007286357	0.075172007	0.023168743
2020-06-14T04:35:00	0.1964	13.532	206.0	0.453586696	0.534584701	0.007298193	0.075294117	0.023206378
2020-06-14T04:40:00	0.1946	13.529	206.0	0.447372554	0.526234607	0.007118431	0.073439539	0.022634779
2020-06-14T04:45:00	0.1926	13.532	206.0	0.440318006	0.516498954	0.006913093	0.071321104	0.021981857
2020-06-14T04:50:00	0.1916	13.537	206.0	0.437645440	0.511917488	0.006824019	0.070402144	0.021698624
2020-06-14T04:55:00	0.1895	13.534	206.0	0.431968515	0.502251968	0.006637151	0.068474261	0.021104432
2020-06-14T05:00:00	0.1901	13.534	206.0	0.433651526	0.505108085	0.006692220	0.069042401	0.021279538
2020-06-14T05:05:00	0.1905	13.533	206.0	0.434787885	0.507040984	0.006729560	0.069427629	0.021398269
2020-06-14T05:10:00	0.1907	13.532	206.0	0.435378715	0.508047383	0.006749024	0.069628439	0.021460161
2020-06-14T05:15:00	0.1909	13.526	206.0	0.435696988	0.508589922	0.006759524	0.069736760	0.021493547
2020-06-14T05:20:00	0.1910	13.522	206.0	0.436015200	0.509132640	0.006770031	0.069845164	0.021526958
2020-06-14T05:25:00	0.1904	13.522	206.0	0.434426402	0.506425726	0.006717668	0.069304943	0.021360457
2020-06-14T05:30:00	0.1894	13.519	206.0	0.431744370	0.501872182	0.006629838	0.068398812	0.021081178
2020-06-14T05:35:00	0.1885	13.518	206.0	0.429331421	0.497792603	0.006551421	0.067589806	0.020831835
2020-06-14T05:40:00	0.1854	13.513	206.0	0.420879716	0.483630747	0.006281228	0.064802269	0.019972689
2020-06-14T05:45:00	0.1858	13.513	207.0	0.421750285	0.485080348	0.006308739	0.065086100	0.020060168
2020-06-14T05:50:00	0.1886	13.508	206.0	0.429469564	0.498025726	0.006555895	0.067635964	0.020846061
2020-06-14T05:55:00	0.1894	13.501	206.0	0.431701263	0.501799159	0.006628432	0.068384308	0.021076708
2020-06-14T06:00:00	0.1910	13.501	208.0	0.436109794	0.509294028	0.006773157	0.069877408	0.021536896
2020-06-14T06:05:00	0.1923	13.508	206.0	0.439691742	0.515423584	0.006892157	0.071105109	0.021915285
2020-06-14T06:10:00	0.1919	13.515	208.0	0.438650303	0.513637739	0.006857427	0.070746810	0.021804854
2020-06-14T06:15:00	0.1938	13.517	207.0	0.444301590	0.522119301	0.007030404	0.072531385	0.022354877
2020-06-14T06:20:00	0.1932	13.514	209.0	0.442264966	0.519394172	0.006972322	0.071932156	0.022170189
2020-06-14T06:25:00	0.1947	13.509	208.0	0.447559816	0.526485790	0.007123816	0.073495095	0.022651902
2020-06-14T06:30:00	0.1959	13.504	209.0	0.451801410	0.532182654	0.007246324	0.074758988	0.023041446
2020-06-14T06:35:00	0.1954	13.506	208.0	0.450117891	0.529919831	0.007197577	0.074256077	0.022886444
2020-06-14T06:40:00	0.1961	13.534	207.0	0.452615360	0.533277486	0.007269950	0.075002732	0.023116571
2020-06-14T06:45:00	0.1983	13.581	203.0	0.459979585	0.543206774	0.007485420	0.077225701	0.023801711
2020-06-14T06:50:00	0.2026	13.651	200.0	0.474947596	0.563520704	0.007932906	0.081842330	0.025224601
2020-06-14T06:55:00	0.2050	13.694	196.0	0.483298775	0.574931990	0.008188146	0.084475593	0.026036198
2020-06-14T07:00:00	0.2060	13.709	196.0	0.486806241	0.579741288	0.008296539	0.085593864	0.026380860
2020-06-14T07:05:00	0.2059	13.690	195.0	0.486519535	0.579347799	0.008287652	0.085502182	0.026352603
2020-06-14T07:10:00	0.2060	13.665	196.0	0.486922369	0.579900686	0.008300140	0.085631014	0.026392310
2020-06-14T07:15:00	0.2091	13.649	196.0	0.497306968	0.594198351	0.008625278	0.088985406	0.027426166
2020-06-14T07:20:00	0.2088	13.639	197.0	0.496333627	0.592854567	0.008594539	0.088668280	0.027328425
2020-06-14T07:25:00	0.2076	13.634	196.0	0.492263564	0.587243724	0.008466596	0.087348307	0.026921596
2020-06-14T07:30:00	0.2079	13.636	195.0	0.493353979	0.588745627	0.008500780	0.087700977	0.027030293
2020-06-14T07:35:00	0.2061	13.635	196.0	0.487212672	0.580299206	0.008309145	0.085723917	0.026420944
2020-06-14T07:40:00	0.2062	13.635	197.0	0.487615424	0.580852204	0.008321646	0.085852888	0.026460694
2020-06-14T07:45:00	0.2062	13.639	195.0	0.487328786	0.580458623	0.008312748	0.085761090	0.026432401
2020-06-14T07:50:00	0.2069	13.641	195.0	0.489798885	0.583852462	0.008389581	0.086553763	0.026676710
2020-06-14T07:55:00	0.2090	13.644	195.0	0.497082657	0.593888602	0.008618190	0.088912272	0.027403626
2020-06-14T08:00:00	0.2093	13.643	193.0	0.498171530	0.595392593	0.008652627	0.089267562	0.027513130
2020-06-14T08:05:00	0.2086	13.639	194.0	0.495823329	0.592150360	0.008578446	0.088502244	0.027277251
2020-06-14T08:10:00	0.2092	13.636	194.0	0.497943656	0.595077766	0.008645415	0.089193151	0.027490195
2020-06-14T08:15:00	0.2087	13.635	193.0	0.495939149	0.592310173	0.008582097	0.088539915	0.027288862
2020-06-14T08:20:00	0.2083	13.635	192.0	0.494621467	0.590492625	0.008540601	0.088111805	0.027156914
2020-06-14T08:25:00	0.2081	13.630	194.0	0.493991405	0.589624041	0.008520794	0.087907465	0.027093935
2020-06-14T08:30:00	0.2082	13.624	193.0	0.494393355	0.590178120	0.008533427	0.088037797	0.027134104
2020-06-14T08:35:00	0.2077	13.618	193.0	0.492730933	0.587887347	0.008481239	0.087499380	0.026968159
2020-06-14T08:40:00	0.2080	13.613	195.0	0.493821198	0.589389452	0.008515448	0.087852304	0.027076933
2020-06-14T08:45:00	0.2082	13.607	196.0	0.494223167	0.589943504	0.008528077	0.087982602	0.027117092
2020-06-14T08:50:00	0.2084	13.598	198.0	0.494969039	0.590971915	0.008551537	0.088224630	0.027191688
2020-06-14T08:55:00	0.2082	13.592	197.0	0.494339043	0.590103244	0.008531720	0.088020181	0.027128675
2020-06-14T09:00:00	0.2075	13.587	199.0	0.491988196	0.586864591	0.008457974	0.087259357	0.026894181
2020-06-14T09:05:00	0.2071	13.584	198.0	0.490668983	0.585049112	0.008416729	0.086833847	0.026763035
2020-06-14T09:10:00	0.2067	13.582	198.0	0.489004739	0.582760797	0.008364841	0.086298521	0.026598042
2020-06-14T09:15:00	0.2060	13.581	197.0	0.486650200	0.579527121	0.008291702	0.085543959	0.026365479
2020-06-14T09:20:00	0.2056	13.579	200.0	0.485328911	0.577714434	0.008250798	0.085121965	0.026235416
2020-06-14T09:25:00	0.2053	13.577	200.0	0.484352134	0.576375281	0.008220624	0.084810665	0.026139471
2020-06-14T09:30:00	0.2044	13.577	199.0	0.481303798	0.572200939	0.008126809	0.083842793	0.025841163
2020-06-14T09:35:00	0.2037	13.578	201.0	0.478943905	0.568974435	0.008054548	0.083097285	0.025611390
2020-06-14T09:40:00	0.2038	13.579	201.0	0.479002105	0.569053953	0.008056326	0.083115631	0.025617045
2020-06-14T09:45:00	0.2033	13.582	200.0	0.477332125	0.566773321	0.008005378	0.082590004	0.025455041
2020-06-14T09:50:00	0.2038	13.585	197.0	0.479118500	0.569212994	0.008059883	0.083152328	0.025628355
2020-06-14T09:55:00	0.2052	13.581	201.0	0.484010743	0.575907416	0.008210091	0.084701997	0.026105978
2020-06-14T10:00:00	0.2056	13.579	201.0	0.485448723	0.577878747	0.008254503	0.085160188	0.026247197
2020-06-14T10:05:00	0.2067	13.578	200.0	0.489091057	0.582879429	0.008367528	0.086326246	0.026606587
2020-06-14T10:10:00	0.2075	13.580	201.0	0.492041104	0.586937431	0.008459630	0.087276444	0.026899448
2020-06-14T10:15:00	0.2085	13.589	200.0	0.495332508	0.591473227	0.008562980	0.088342691	0.027228075
2020-06-14T10:20:00	0.2087	13.596	200.0	0.496214938	0.592690759	0.008590795	0.088629648	0.027316518
2020-06-14T10:25:00	0.2106	13.604	199.0	0.502592189	0.601508356	0.008793143	0.090717234	0.027959933
2020-06-14T10:30:00	0.2116	13.620	201.0	0.505873429	0.606057961	0.008898170	0.091800783	0.028293893
2020-06-14T10:35:00	0.2117	13.625	201.0	0.506410374	0.606803288	0.008915416	0.091978707	0.028348731
2020-06-14T10:40:00	0.2127	13.634	202.0	0.509687953	0.611357900	0.009021050	0.093068508	0.028684618
2020-06-14T10:45:00	0.2134	13.647	202.0	0.512278078	0.614963340	0.009104967	0.093934268	0.028951454
2020-06-14T10:50:00	0.2143	13.654	202.0	0.515208165	0.619048541	0.009200367	0.094918495	0.029254802
2020-06-14T10:55:00	0.2145	13.661	202.0	0.516085480	0.620273067	0.009229029	0.095214187	0.029345937
2020-06-14T11:00:00	0.2155	13.671	202.0	0.519353823	0.624840391	0.009336196	0.096319813	0.029686702
2020-06-14T11:05:00	0.2170	13.686	202.0	0.524324458	0.631803171	0.009500370	0.098013566	0.030208733
2020-06-14T11:10:00	0.2186	13.702	201.0	0.529968864	0.639734087	0.009688541	0.099954889	0.030807068
2020-06-14T11:15:00	0.2201	13.710	200.0	0.534924215	0.646718189	0.009855271	0.101675011	0.031337226
2020-06-14T11:20:00	0.2205	13.713	200.0	0.536476178	0.648909651	0.009907783	0.102216775	0.031504203
2020-06-14T11:25:00	0.2200	13.713	200.0	0.534629342	0.646302033	0.009845309	0.101572239	0.031305551
2020-06-14T11:30:00	0.2205	13.713	201.0	0.536521246	0.648973318	0.009909310	0.102232529	0.031509058
2020-06-14T11:35:00	0.2204	13.712	200.0	0.536034058	0.648285151	0.009892809	0.102062290	0.031456589
2020-06-14T11:40:00	0.2204	13.714	200.0	0.535886672	0.648077002	0.009887820	0.102010817	0.031440724
2020-06-14T11:45:00	0.2212	13.715	200.0	0.538796740	0.652190086	0.009986565	0.103029552	0.031754709
2020-06-14T11:50:00	0.2205	13.718	200.0	0.536271579	0.648620632	0.009900852	0.102145270	0.031482164
2020-06-14T11:55:00	0.2198	13.726	200.0	0.534084619	0.645533449	0.009826920	0.101382526	0.031247079
2020-06-14T12:00:00	0.2196	13.725	199.0	0.533256991	0.644366160	0.009799015	0.101094627	0.031158346
2020-06-14T12:05:00	0.2188	13.728	200.0	0.530727775	0.640802403	0.009713983	0.100217367	0.030887966
2020-06-14T12:10:00	0.2196	13.739	200.0	0.533302101	0.644429768	0.009800535	0.101110308	0.031163179
2020-06-14T12:15:00	0.2203	13.748	199.0	0.535874508	0.648059824	0.009887408	0.102006569	0.031439415
2020-06-14T12:20:00	0.2213	13.758	200.0	0.539124139	0.652653264	0.009997706	0.103144485	0.031790132
2020-06-14T12:25:00	0.2217	13.761	200.0	0.540334819	0.654366796	0.010038956	0.103570054	0.031921296
2020-06-14T12:30:00	0.2220	13.761	200.0	0.541545074	0.656080926	0.010080277	0.103996358	0.032052688
2020-06-14T12:35:00	0.2220	13.759	200.0	0.541397923	0.655872446	0.010075248	0.103944478	0.032036698
2020-06-14T12:40:00	0.2225	13.759	200.0	0.543286129	0.658548946	0.010139871	0.104611184	0.032242183
2020-06-14T12:45:00	0.2226	13.761	201.0	0.543478177	0.658821334	0.010146456	0.104679114	0.032263120
2020-06-14T12:50:00	0.2229	13.767	202.0	0.544687335	0.660537018	0.010187962	0.105107327	0.032395099
2020-06-14T12:55:00	0.2230	13.768	201.0	0.544879306	0.660809516	0.010194560	0.105175393	0.032416078
2020-06-14T13:00:00	0.2228	13.774	201.0	0.544054257	0.659638589	0.010166220	0.104883018	0.032325965
2020-06-14T13:05:00	0.2230	13.779	201.0	0.544924264	0.660873338	0.010196105	0.105191337	0.032420992
2020-06-14T13:10:00	0.2227	13.784	201.0	0.543760161	0.659221337	0.010156128	0.104778898	0.032293874
2020-06-14T13:15:00	0.2232	13.793	201.0	0.545647081	0.661899660	0.010220968	0.105447841	0.032500049
2020-06-14T13:20:00	0.2232	13.795	202.0	0.545500103	0.661690933	0.010215910	0.105395658	0.032483965
2020-06-14T13:25:00	0.2231	13.802	201.0	0.545353120	0.661482215	0.010210853	0.105343486	0.032467885
2020-06-14T13:30:00	0.2227	13.808	201.0	0.543850105	0.659348939	0.010159214	0.104810735	0.032303687
2020-06-14T13:35:00	0.2279	13.811	201.0	0.561290951	0.684217318	0.010766587	0.111076896	0.034234978
2020-06-14T13:40:00	0.2356	13.812	201.0	0.587362532	0.721859932	0.011707992	0.120789192	0.037228402
2020-06-14T13:45:00	0.2385	13.816	201.0	0.596915705	0.735794322	0.012063049	0.124452249	0.038357392
2020-06-14T13:50:00	0.2394	13.820	201.0	0.600109111	0.740469260	0.012182951	0.125689257	0.038738650
2020-06-14T13:55:00	0.2405	13.826	201.0	0.603632989	0.745637886	0.012315969	0.127061581	0.039161613
2020-06-14T14:00:00	0.2419	13.831	200.0	0.608485130	0.752771761	0.012500343	0.128963737	0.039747876
2020-06-14T14:05:00	0.2416	13.827	200.0	0.607341944	0.751089210	0.012456777	0.128514270	0.039609346
2020-06-14T14:10:00	0.2421	13.825	200.0	0.608862140	0.753326887	0.012514728	0.129112144	0.039793617
2020-06-14T14:15:00	0.2417	13.824	200.0	0.607719075	0.751644153	0.012471140	0.128662457	0.039655019
2020-06-14T14:20:00	0.2429	13.828	200.0	0.611568005	0.757314628	0.012618222	0.130179869	0.040122700
2020-06-14T14:25:00	0.2427	13.832	199.0	0.611091143	0.756611412	0.012599951	0.129991371	0.040064603
2020-06-14T14:30:00	0.2442	13.840	200.0	0.615933109	0.763760627	0.012786105	0.131911891	0.040656526
2020-06-14T14:35:00	0.2446	13.845	200.0	0.617449635	0.766003849	0.012844700	0.132516398	0.040842841
2020-06-14T14:40:00	0.2447	13.851	199.0	0.617637670	0.766282123	0.012851974	0.132591451	0.040865973
2020-06-14T14:45:00	0.2438	13.859	200.0	0.614836389	0.762139580	0.012743817	0.131475613	0.040522061
2020-06-14T14:50:00	0.2442	13.866	200.0	0.616021223	0.763890911	0.012789506	0.131946975	0.040667339
2020-06-14T14:55:00	0.2445	13.877	200.0	0.616873585	0.765151536	0.012822426	0.132286609	0.040772018
2020-06-14T15:00:00	0.2435	13.888	200.0	0.613739330	0.760519046	0.012701589	0.131039947	0.040387784
2020-06-14T15:05:00	0.2447	13.894	201.0	0.617581749	0.766199363	0.012849811	0.132569128	0.040859093
2020-06-14T15:10:00	0.2450	13.901	200.0	0.618765671	0.767952079	0.012895660	0.133042146	0.041004881
2020-06-14T15:15:00	0.2442	13.909	200.0	0.615965278	0.763808190	0.012787347	0.131924698	0.040660473
2020-06-14T15:20:00	0.2461	13.917	200.0	0.622458878	0.773427217	0.013039228	0.134523308	0.041461390
2020-06-14T15:25:00	0.2475	13.926	201.0	0.626954288	0.780107142	0.013215091	0.136337654	0.042020589
2020-06-14T15:30:00	0.2486	13.935	201.0	0.630451687	0.785315890	0.013352756	0.137757918	0.042458328
2020-06-14T15:35:00	0.2497	13.942	201.0	0.634276166	0.791023613	0.013504143	0.139319751	0.042939700
2020-06-14T15:40:00	0.2497	13.951	201.0	0.634132839	0.790809486	0.013498453	0.139261054	0.042921609
2020-06-14T15:45:00	0.2487	13.962	201.0	0.631013711	0.786153888	0.013374947	0.137986863	0.042528891
2020-06-14T15:50:00	0.2506	13.970	201.0	0.637149843	0.795320497	0.013618477	0.140499315	0.043303253
2020-06-14T15:55:00	0.2506	13.977	201.0	0.637336844	0.795600355	0.013625934	0.140576253	0.043326967
2020-06-14T16:00:00	0.2512	13.982	201.0	0.639174361	0.798351877	0.013699327	0.141333428	0.043560335
2020-06-14T16:05:00	0.2501	13.986	203.0	0.635498386	0.792850290	0.013552710	0.139820806	0.043094130
2020-06-14T16:10:00	0.2503	13.991	203.0	0.636115251	0.793772710	0.013577256	0.140074049	0.043172182
2020-06-14T16:15:00	0.2523	13.999	203.0	0.642671661	0.803596703	0.013839579	0.142780388	0.044006302
2020-06-14T16:20:00	0.2527	14.004	203.0	0.644276113	0.806006344	0.013904172	0.143446776	0.044211690
2020-06-14T16:25:00	0.2537	14.009	203.0	0.647526543	0.810894705	0.014035509	0.144801755	0.044629307
2020-06-14T16:30:00	0.2534	14.015	204.0	0.646494935	0.809342282	0.013993756	0.144370998	0.044496544
2020-06-14T16:35:00	0.2541	14.021	205.0	0.648756045	0.812746113	0.014085356	0.145316019	0.044787808
2020-06-14T16:40:00	0.2543	14.025	205.0	0.649370639	0.813672063	0.014110308	0.145573441	0.044867148
2020-06-14T16:45:00	0.2528	14.029	206.0	0.644387122	0.806173144	0.013908647	0.143492942	0.044225918
2020-06-14T16:50:00	0.2535	14.031	206.0	0.646649557	0.809574908	0.014000010	0.144435519	0.044516430
2020-06-14T16:55:00	0.2532	14.034	207.0	0.645617697	0.808022878	0.013958302	0.144005226	0.044383809
2020-06-14T17:00:00	0.2528	14.041	207.0	0.644585541	0.806471310	0.013916647	0.143575479	0.044251357
2020-06-14T17:05:00	0.2543	14.046	207.0	0.649481491	0.813839107	0.014114810	0.145619897	0.044881467
2020-06-14T17:10:00	0.2526	14.049	207.0	0.643838986	0.805349630	0.013886558	0.143265061	0.044155683
2020-06-14T17:15:00	0.2543	14.054	208.0	0.649394196	0.813707561	0.014111264	0.145583313	0.044870191
2020-06-14T17:20:00	0.2536	14.056	208.0	0.647046135	0.810171646	0.014016057	0.144601073	0.044567455
2020-06-14T17:25:00	0.2541	14.057	209.0	0.648648638	0.812584326	0.014080998	0.145271056	0.044773950
2020-06-14T17:30:00	0.2534	14.057	209.0	0.646300090	0.809049171	0.013985877	0.144289714	0.044471491
2020-06-14T17:35:00	0.2543	14.054	210.0	0.649548694	0.813940381	0.014117541	0.145648064	0.044890148
2020-06-14T17:40:00	0.2541	14.050	210.0	0.648846823	0.812882858	0.014089040	0.145354026	0.044799522
2020-06-14T17:45:00	0.2551	14.046	211.0	0.652093132	0.817777657	0.014221115	0.146716617	0.045219486
2020-06-14T17:50:00	0.2544	14.041	209.0	0.649746829	0.814238991	0.014125592	0.145731126	0.044915748
2020-06-14T17:55:00	0.2549	14.035	209.0	0.651348132	0.816653548	0.014190748	0.146403327	0.045122927
2020-06-14T18:00:00	0.2547	14.027	210.0	0.650646611	0.815595476	0.014162184	0.146108641	0.045032102
2020-06-14T18:05:00	0.2541	14.022	210.0	0.648628543	0.812554058	0.014080182	0.145262645	0.044771358
2020-06-14T18:10:00	0.2535	14.013	210.0	0.646609344	0.809514408	0.013998383	0.144418738	0.044511258
2020-06-14T18:15:00	0.2542	14.005	208.0	0.649199509	0.813414205	0.014103358	0.145501740	0.044845049
2020-06-14T18:20:00	0.2551	13.995	209.0	0.652116672	0.817813183	0.014222075	0.146726521	0.045222539
2020-06-14T18:25:00	0.2547	13.986	209.0	0.650757424	0.815762582	0.014166694	0.146155169	0.045046443
2020-06-14T18:30:00	0.2540	13.978	209.0	0.648410251	0.812225278	0.014071327	0.145171287	0.044743201
2020-06-14T18:35:00	0.2528	13.966	207.0	0.644414183	0.806213807	0.013909737	0.143504197	0.044229387
2020-06-14T18:40:00	0.2524	13.958	206.0	0.643052024	0.804167752	0.013854878	0.142938221	0.044054948
2020-06-14T18:45:00	0.2534	13.947	207.0	0.646303560	0.809054390	0.013986017	0.144291162	0.044471937
2020-06-14T18:50:00	0.2521	13.936	207.0	0.642305151	0.803046568	0.013824846	0.142628390	0.043959455
2020-06-14T18:55:00	0.2528	13.925	208.0	0.644568895	0.806446294	0.013915975	0.143568554	0.044249223
2020-06-14T19:00:00	0.2535	13.916	208.0	0.646831215	0.809848237	0.014007359	0.144511342	0.044539799
2020-06-14T19:05:00	0.2536	13.905	206.0	0.647116852	0.810278070	0.014018919	0.144630605	0.044576557
2020-06-14T19:10:00	0.2538	13.892	208.0	0.647731725	0.811203583	0.014043821	0.144887511	0.044655738
2020-06-14T19:15:00	0.2543	13.880	206.0	0.649333924	0.813616738	0.014108816	0.145558057	0.044862407
2020-06-14T19:20:00	0.2546	13.870	206.0	0.650277446	0.815038851	0.014147165	0.145953692	0.044984345
2020-06-14T19:25:00	0.2547	13.859	208.0	0.650562810	0.815469111	0.014158774	0.146073460	0.045021259
2020-06-14T19:30:00	0.2541	13.847	208.0	0.648873850	0.812923573	0.014090137	0.145365343	0.044803011
2020-06-14T19:35:00	0.2538	13.835	207.0	0.647842628	0.811370548	0.014048315	0.144933873	0.044670027
2020-06-14T19:40:00	0.2556	13.823	207.0	0.653720386	0.820234618	0.014287561	0.147402130	0.045430768
2020-06-14T19:45:00	0.2560	13.811	208.0	0.654991359	0.822155211	0.014339571	0.147938714	0.045596148
2020-06-14T19:50:00	0.2561	13.799	207.0	0.655276350	0.822586056	0.014351247	0.148059172	0.045633275
2020-06-14T19:55:00	0.2561	13.787	206.0	0.655232773	0.822520172	0.014349462	0.148040750	0.045627597
2020-06-14T20:00:00	0.2562	13.776	208.0	0.655517745	0.822951047	0.014361141	0.148161244	0.045664734
2020-06-14T20:05:00	0.2558	13.765	208.0	0.654488420	0.821395046	0.014318978	0.147726260	0.045530668
2020-06-14T20:10:00	0.2560	13.754	208.0	0.655102038	0.822322526	0.014344105	0.147985489	0.045610565
2020-06-14T20:15:00	0.2552	13.743	207.0	0.652428891	0.818284428	0.014234811	0.146857925	0.045263039
2020-06-14T20:20:00	0.2558	13.732	208.0	0.654357659	0.821197442	0.014313627	0.147671049	0.045513651
2020-06-14T20:25:00	0.2563	13.723	206.0	0.655956918	0.823615208	0.014379150	0.148347038	0.045721998
2020-06-14T20:30:00	0.2560	13.712	208.0	0.654927719	0.822059010	0.014336965	0.147911822	0.045587860
2020-06-14T20:35:00	0.2563	13.700	208.0	0.655869779	0.823483416	0.014375576	0.148310164	0.045710633
2020-06-14T20:40:00	0.2561	13.690	208.0	0.655169137	0.822423964	0.014346854	0.148013850	0.045619306
2020-06-14T20:45:00	0.2556	13.679	208.0	0.653811038	0.820371559	0.014291267	0.147440368	0.045442553
2020-06-14T20:50:00	0.2557	13.668	207.0	0.654096122	0.820802258	0.014302926	0.147560654	0.045479627
2020-06-14T20:55:00	0.2554	13.657	208.0	0.653066392	0.819246894	0.014260837	0.147126422	0.045345792
2020-06-14T21:00:00	0.2551	13.648	207.0	0.652036369	0.817691991	0.014218800	0.146692734	0.045212125
2020-06-14T21:05:00	0.2558	13.639	207.0	0.654294007	0.821101259	0.014311022	0.147644178	0.045505369
2020-06-14T21:10:00	0.2563	13.628	207.0	0.655893294	0.823518980	0.014376540	0.148320115	0.045713700
2020-06-14T21:15:00	0.2557	13.619	207.0	0.653878160	0.820472960	0.014294012	0.147468684	0.045451281
2020-06-14T21:20:00	0.2545	13.609	207.0	0.650217188	0.814948005	0.014144714	0.145928408	0.044976552
2020-06-14T21:25:00	0.2551	13.600	207.0	0.652147139	0.817859164	0.014223317	0.146739341	0.045226490
2020-06-14T21:30:00	0.2555	13.590	206.0	0.653418666	0.819778887	0.014275228	0.147274899	0.045391554
2020-06-14T21:35:00	0.2560	13.581	206.0	0.655018341	0.822195998	0.014340677	0.147950116	0.045599663
2020-06-14T21:40:00	0.2551	13.572	206.0	0.652016293	0.817661694	0.014217981	0.146684288	0.045209522
2020-06-14T21:45:00	0.2549	13.562	205.0	0.651314901	0.816603418	0.014189394	0.146389361	0.045118623
2020-06-14T21:50:00	0.2551	13.551	206.0	0.651929059	0.817530051	0.014214424	0.146647590	0.045198212
2020-06-14T21:55:00	0.2541	13.540	207.0	0.648595287	0.812503967	0.014078833	0.145248725	0.044767068
2020-06-14T22:00:00	0.2543	13.529	205.0	0.649539003	0.813925777	0.014117147	0.145644002	0.044888896
2020-06-14T22:05:00	0.2544	13.519	204.0	0.649873956	0.814430603	0.014130759	0.145784433	0.044932178
2020-06-14T22:10:00	0.2544	13.508	204.0	0.649879845	0.814439478	0.014130998	0.145786902	0.044932939
2020-06-14T22:15:00	0.2540	13.497	204.0	0.648569302	0.812464828	0.014077779	0.145237849	0.044763715
2020-06-14T22:20:00	0.2528	13.485	205.0	0.644623014	0.806527624	0.013918158	0.143591069	0.044256162
2020-06-14T22:25:00	0.2532	13.473	206.0	0.645617361	0.808022373	0.013958288	0.144005086	0.044383766
2020-06-14T22:30:00	0.2521	13.460	205.0	0.641997618	0.802585046	0.013812490	0.142500915	0.043920166
2020-06-14T22:35:00	0.2513	13.448	205.0	0.639364396	0.798636602	0.013706929	0.141411856	0.043584507
2020-06-14T22:40:00	0.2516	13.437	206.0	0.640360199	0.800129088	0.013746799	0.141823193	0.043711285
2020-06-14T22:45:00	0.2523	13.426	206.0	0.642674798	0.803601412	0.013839705	0.142781689	0.044006703
2020-06-14T22:50:00	0.2518	13.416	206.0	0.641031784	0.801136121	0.013773723	0.142100957	0.043796895
2020-06-14T22:55:00	0.2516	13.405	207.0	0.640377911	0.800155643	0.013747509	0.141830515	0.043713542
2020-06-14T23:00:00	0.2514	13.393	207.0	0.639723919	0.799175349	0.013721316	0.141560292	0.043630257
2020-06-14T23:05:00	0.2512	13.382	207.0	0.639069807	0.798195240	0.013695145	0.141290288	0.043547039
2020-06-14T23:10:00	0.2510	13.370	207.0	0.638415576	0.797215315	0.013668995	0.141020504	0.043463889
2020-06-14T23:15:00	0.2500	13.358	207.0	0.635118980	0.792283111	0.013537624	0.139665167	0.043046161
2020-06-14T23:20:00	0.2490	13.346	206.0	0.631819350	0.787355592	0.013406791	0.138315391	0.042630147
2020-06-14T23:25:00	0.2483	13.333	206.0	0.629509574	0.783911764	0.013315599	0.137374583	0.042340181
2020-06-14T23:30:00	0.2487	13.320	207.0	0.630838931	0.785893256	0.013368044	0.137915644	0.042506941
2020-06-14T23:35:00	0.2483	13.308	207.0	0.629521418	0.783929411	0.013316066	0.137379399	0.042341665
2020-06-14T23:40:00	0.2477	13.295	207.0	0.627541275	0.780980632	0.013238144	0.136575492	0.042093893
2020-06-14T23:45:00	0.2464	13.281	207.0	0.623240277	0.774587107	0.013069709	0.134837777	0.041558312
2020-06-14T23:50:00	0.2469	13.267	207.0	0.624903331	0.777057419	0.013134705	0.135508327	0.041764982
2020-06-14T23:55:00	0.2469	13.252	206.0	0.624909260	0.777066231	0.013134937	0.135510721	0.041765720
2020-06-15T00:00:00	0.2463	13.237	207.0	0.622926559	0.774121370	0.013057467	0.134711478	0.041519386
2020-06-15T00:05:00	0.2469	13.221	207.0	0.624921120	0.777083855	0.013135401	0.135515509	0.041767196
2020-06-15T00:10:00	0.2467	13.205	206.0	0.624264297	0.776107918	0.013109710	0.135250462	0.041685506
2020-06-15T00:15:00	0.2459	13.191	207.0	0.621617994	0.772179605	0.013006467	0.134185326	0.041357221
2020-06-15T00:20:00	0.2451	13.174	206.0	0.618969725	0.768254288	0.012903571	0.133123760	0.041030036
2020-06-15T00:25:00	0.2448	13.158	207.0	0.617979830	0.766788563	0.012865218	0.132728078	0.040908083
2020-06-15T00:30:00	0.2458	13.141	208.0	0.621304133	0.771714085	0.012994250	0.134059286	0.041318374
2020-06-15T00:35:00	0.2457	13.123	207.0	0.620978372	0.771231003	0.012981577	0.133928532	0.041278074
2020-06-15T00:40:00	0.2460	13.107	207.0	0.621979304	0.772715604	0.013020539	0.134330496	0.041401963
2020-06-15T00:45:00	0.2462	13.090	207.0	0.622648413	0.773708512	0.013046618	0.134599551	0.041484889
2020-06-15T00:50:00	0.2460	13.073	207.0	0.621991173	0.772733214	0.013021001	0.134335266	0.041403434
2020-06-15T00:55:00	0.2470	13.055	207.0	0.625311740	0.777664430	0.013150692	0.135673263	0.041815817
2020-06-15T01:00:00	0.2462	13.037	207.0	0.622666214	0.773734931	0.013047312	0.134606712	0.041487096
2020-06-15T01:05:00	0.2447	13.020	207.0	0.617695357	0.766367500	0.012854207	0.132614481	0.040873071
2020-06-15T01:10:00	0.2451	13.002	207.0	0.619029120	0.768342260	0.012905874	0.133147521	0.041037359
2020-06-15T01:15:00	0.2448	12.984	207.0	0.618039241	0.766876509	0.012867518	0.132751809	0.040915397
2020-06-15T01:20:00	0.2449	12.967	207.0	0.618377152	0.767376774	0.012880605	0.132886823	0.040957009
2020-06-15T01:25:00	0.2438	12.950	208.0	0.614729728	0.761981981	0.012739708	0.131433223	0.040508996
2020-06-15T01:30:00	0.2437	12.932	207.0	0.614403365	0.761499813	0.012727140	0.131303561	0.040469033
2020-06-15T01:35:00	0.2429	12.915	207.0	0.611749721	0.757582652	0.012625188	0.130251736	0.040144850
2020-06-15T01:40:00	0.2427	12.897	207.0	0.611090465	0.756610412	0.012599925	0.129991103	0.040064521
2020-06-15T01:45:00	0.2413	12.879	208.0	0.606436478	0.749757316	0.012422325	0.128158840	0.039499799
2020-06-15T01:50:00	0.2421	12.861	207.0	0.609106006	0.753686030	0.012524038	0.129208187	0.039823218
2020-06-15T01:55:00	0.2413	12.843	207.0	0.606448399	0.749774847	0.012422779	0.128163516	0.039501240
2020-06-15T02:00:00	0.2408	12.825	206.0	0.604788619	0.747335164	0.012359753	0.127513295	0.039300836
2020-06-15T02:05:00	0.2416	12.807	207.0	0.607459387	0.751262013	0.012461249	0.128560407	0.039623566
2020-06-15T02:10:00	0.2410	12.788	206.0	0.605466933	0.748331928	0.012385490	0.127778820	0.039382673
2020-06-15T02:15:00	0.2416	12.771	206.0	0.607471304	0.751279549	0.012461703	0.128565090	0.039625009
2020-06-15T02:20:00	0.2400	12.752	206.0	0.602145675	0.743455109	0.012259736	0.126481433	0.038982806
2020-06-15T02:25:00	0.2397	12.734	206.0	0.601151077	0.741996475	0.012222205	0.126094238	0.038863469
2020-06-15T02:30:00	0.2395	12.715	206.0	0.600489847	0.741027201	0.012197287	0.125837160	0.038784235
2020-06-15T02:35:00	0.2400	12.697	205.0	0.602163578	0.743481373	0.012260412	0.126488408	0.038984956
2020-06-15T02:40:00	0.2402	12.679	206.0	0.602836429	0.744468627	0.012285836	0.126750701	0.039065797
2020-06-15T02:45:00	0.2404	12.661	206.0	0.603509151	0.745456072	0.012311282	0.127013225	0.039146709
2020-06-15T02:50:00	0.2418	12.644	206.0	0.608178894	0.752320932	0.012488665	0.128843255	0.039710742
2020-06-15T02:55:00	0.2415	12.625	205.0	0.607185989	0.750859759	0.012450839	0.128453015	0.039590467
2020-06-15T03:00:00	0.2414	12.608	205.0	0.606858932	0.750378639	0.012438393	0.128324606	0.039550890
2020-06-15T03:05:00	0.2418	12.590	205.0	0.607863845	0.751857212	0.012476657	0.128719366	0.039672559
2020-06-15T03:10:00	0.2422	12.573	206.0	0.609201301	0.753826385	0.012527676	0.129245727	0.039834788
2020-06-15T03:15:00	0.2423	12.557	205.0	0.609540052	0.754325377	0.012540616	0.129379220	0.039875932
2020-06-15T03:20:00	0.2425	12.541	204.0	0.610211505	0.755314732	0.012566284	0.129644032	0.039957550
2020-06-15T03:25:00	0.2419	12.525	205.0	0.608220597	0.752382321	0.012490255	0.128859659	0.039715798
2020-06-15T03:30:00	0.2422	12.510	205.0	0.609225124	0.753861475	0.012528586	0.129255113	0.039837681
2020-06-15T03:35:00	0.2412	12.495	205.0	0.605901425	0.748970605	0.012401991	0.127949051	0.039435140
2020-06-15T03:40:00	0.2412	12.482	204.0	0.605907387	0.748979369	0.012402217	0.127951387	0.039435860
2020-06-15T03:45:00	0.2414	12.469	204.0	0.606579527	0.749967688	0.012427765	0.128214959	0.039517095
2020-06-15T03:50:00	0.2407	12.456	206.0	0.604253317	0.746548826	0.012339462	0.127303954	0.039236315
2020-06-15T03:55:00	0.2415	12.442	205.0	0.606924489	0.750475070	0.012440887	0.128350340	0.039558821
2020-06-15T04:00:00	0.2412	12.430	205.0	0.605931232	0.749014425	0.012403123	0.127960733	0.039438741
2020-06-15T04:05:00	0.2418	12.419	204.0	0.607882247	0.751884296	0.012477358	0.128726600	0.039674788
2020-06-15T04:10:00	0.2418	12.409	204.0	0.608168034	0.752304947	0.012488251	0.128838983	0.039709426
2020-06-15T04:15:00	0.2428	12.401	205.0	0.611448475	0.757138343	0.012613641	0.130132607	0.040108133
2020-06-15T04:20:00	0.2422	12.394	204.0	0.609405189	0.754126707	0.012535463	0.129326066	0.039859549
2020-06-15T04:25:00	0.2427	12.387	204.0	0.611021669	0.756508976	0.012597290	0.129963921	0.040056143
2020-06-15T04:30:00	0.2431	12.381	204.0	0.612304908	0.758401698	0.012646483	0.130471434	0.040212563
2020-06-15T04:35:00	0.2431	12.373	203.0	0.612257830	0.758332235	0.012644677	0.130452797	0.040206819
2020-06-15T04:40:00	0.2434	12.367	204.0	0.613208201	0.759734846	0.012681170	0.130829293	0.040322859
2020-06-15T04:45:00	0.2426	12.361	203.0	0.610833284	0.756231233	0.012590077	0.129889502	0.040033206
2020-06-15T04:50:00	0.2435	12.357	204.0	0.613778897	0.760577476	0.012703110	0.131055647	0.040392623
2020-06-15T04:55:00	0.2435	12.353	203.0	0.613731838	0.760507983	0.012701300	0.131036975	0.040386868
2020-06-15T05:00:00	0.2431	12.348	204.0	0.612354961	0.758475552	0.012648404	0.130491250	0.040218671
2020-06-15T05:05:00	0.2432	12.344	203.0	0.612640389	0.758896746	0.012659360	0.130604283	0.040253508
2020-06-15T05:10:00	0.2428	12.341	205.0	0.611263089	0.756864954	0.012606537	0.130059323	0.040085547
2020-06-15T05:15:00	0.2437	12.338	204.0	0.614208346	0.761211735	0.012719633	0.131226112	0.040445162
2020-06-15T05:20:00	0.2436	12.335	203.0	0.614161293	0.761142234	0.012717822	0.131207429	0.040439404
2020-06-15T05:25:00	0.2430	12.332	203.0	0.612119567	0.758128242	0.012639372	0.130398070	0.040189951
2020-06-15T05:30:00	0.2432	12.331	204.0	0.612737510	0.759040079	0.012663089	0.130642755	0.040265366
2020-06-15T05:35:00	0.2436	12.329	203.0	0.614020130	0.760933736	0.012712390	0.131151388	0.040422131
2020-06-15T05:40:00	0.2431	12.329	203.0	0.612310859	0.758410478	0.012646711	0.130473790	0.040213289
2020-06-15T05:45:00	0.2438	12.329	204.0	0.614590695	0.761776563	0.012734354	0.131377978	0.040491969
2020-06-15T05:50:00	0.2439	12.330	205.0	0.614875944	0.762198028	0.012745341	0.131491335	0.040526906
2020-06-15T05:55:00	0.2440	12.332	205.0	0.615493408	0.763110589	0.012769142	0.131736887	0.040602588
2020-06-15T06:00:00	0.2433	12.334	204.0	0.613120017	0.759604667	0.012677782	0.130794335	0.040312084
2020-06-15T06:05:00	0.2435	12.337	205.0	0.613737787	0.760516767	0.012701529	0.131039335	0.040387596
2020-06-15T06:10:00	0.2437	12.341	205.0	0.614355449	0.761429029	0.012725296	0.131284529	0.040463167
2020-06-15T06:15:00	0.2429	12.346	205.0	0.611648731	0.757433692	0.012621316	0.130211793	0.040132539
2020-06-15T06:20:00	0.2434	12.351	203.0	0.613264191	0.759817502	0.012683322	0.130851491	0.040329700
2020-06-15T06:25:00	0.2433	12.358	204.0	0.612884674	0.759257281	0.012668741	0.130701062	0.040283337
2020-06-15T06:30:00	0.2438	12.365	205.0	0.614831873	0.762132907	0.012743643	0.131473818	0.040521508
2020-06-15T06:35:00	0.2434	12.373	205.0	0.613455421	0.760099832	0.012690672	0.130927323	0.040353072
2020-06-15T06:40:00	0.2444	12.382	205.0	0.616730987	0.764940595	0.012816916	0.132229757	0.040754495
2020-06-15T06:45:00	0.2438	12.391	205.0	0.614690736	0.761924369	0.012738206	0.131417728	0.040504220
2020-06-15T06:50:00	0.2438	12.400	206.0	0.614643689	0.761854859	0.012736394	0.131399034	0.040498458
2020-06-15T06:55:00	0.2437	12.410	206.0	0.614264319	0.761294415	0.012721788	0.131248339	0.040452013
2020-06-15T07:00:00	0.2436	12.421	207.0	0.613884909	0.760734032	0.012707188	0.131097717	0.040405590
2020-06-15T07:05:00	0.2438	12.437	208.0	0.614834846	0.762137300	0.012743758	0.131475000	0.040521872
2020-06-15T07:10:00	0.2438	12.467	207.0	0.614787801	0.762067787	0.012741945	0.131456302	0.040516109
2020-06-15T07:15:00	0.2437	12.476	208.0	0.614408446	0.761507319	0.012727336	0.131305579	0.040469655
2020-06-15T07:20:00	0.2437	12.500	209.0	0.614361396	0.761437814	0.012725525	0.131286891	0.040463895
2020-06-15T07:25:00	0.2436	12.523	208.0	0.613981996	0.760877416	0.012710923	0.131136251	0.040417466
2020-06-15T07:30:00	0.2442	12.536	208.0	0.615928594	0.763753951	0.012785931	0.131910093	0.040655972
2020-06-15T07:35:00	0.2436	12.558	208.0	0.613887883	0.760738424	0.012707302	0.131098897	0.040405953
2020-06-15T07:40:00	0.2449	12.563	209.0	0.618491073	0.767545451	0.012885018	0.132932357	0.040971043
2020-06-15T07:45:00	0.2451	12.585	207.0	0.619107911	0.768458963	0.012908929	0.133179044	0.041047075
2020-06-15T07:50:00	0.2448	12.598	209.0	0.618065111	0.766914805	0.012868519	0.132762143	0.040918582
2020-06-15T07:55:00	0.2445	12.608	208.0	0.617022007	0.765371112	0.012828163	0.132345795	0.040790259
2020-06-15T08:00:00	0.2443	12.620	209.0	0.616310759	0.764319060	0.012800684	0.132062293	0.040702881
2020-06-15T08:05:00	0.2440	12.650	209.0	0.615267140	0.762776146	0.012760418	0.131646878	0.040574846
2020-06-15T08:10:00	0.2451	12.674	209.0	0.618872962	0.768110976	0.012899819	0.133085055	0.041018107
2020-06-15T08:15:00	0.2442	12.693	209.0	0.616169681	0.764110433	0.012795237	0.132006097	0.040685561
2020-06-15T08:20:00	0.2447	12.731	209.0	0.617783089	0.766497350	0.012857602	0.132649509	0.040883867
2020-06-15T08:25:00	0.2443	12.746	209.0	0.616407779	0.764462544	0.012804430	0.132100947	0.040714795
2020-06-15T08:30:00	0.2441	12.788	208.0	0.615696409	0.763410678	0.012776972	0.131817667	0.040627485
2020-06-15T08:35:00	0.2443	12.815	208.0	0.616313731	0.764323455	0.012800798	0.132063477	0.040703246
2020-06-15T08:40:00	0.2441	12.854	208.0	0.615602341	0.763271617	0.012773344	0.131780232	0.040615947
2020-06-15T08:45:00	0.2440	12.891	208.0	0.615223074	0.762711018	0.012758719	0.131629352	0.040569445
2020-06-15T08:50:00	0.2447	12.913	210.0	0.617833065	0.766571320	0.012859536	0.132669465	0.040890018
2020-06-15T08:55:00	0.2445	12.942	209.0	0.617121979	0.765519022	0.012832028	0.132385669	0.040802549
2020-06-15T09:00:00	0.2441	13.001	210.0	0.615746414	0.763484604	0.012778901	0.131837570	0.040633620
2020-06-15T09:05:00	0.2444	13.013	209.0	0.616695854	0.764888626	0.012815558	0.132215752	0.040750179
2020-06-15T09:10:00	0.2433	13.032	208.0	0.612993687	0.759418187	0.012672928	0.130744263	0.040296652
2020-06-15T09:15:00	0.2438	13.085	209.0	0.614608536	0.761802921	0.012735041	0.131385066	0.040494153
2020-06-15T09:20:00	0.2440	13.125	211.0	0.615226046	0.762715412	0.012758834	0.131630534	0.040569809
2020-06-15T09:25:00	0.2430	13.166	210.0	0.611854927	0.757737838	0.012629222	0.130293353	0.040157677
2020-06-15T09:30:00	0.2432	13.185	209.0	0.612805406	0.759140286	0.012665696	0.130669655	0.040273657
2020-06-15T09:35:00	0.2433	13.204	212.0	0.613090798	0.759561535	0.012676659	0.130782753	0.040308515
2020-06-15T09:40:00	0.2438	13.202	209.0	0.614705603	0.761946335	0.012738779	0.131423636	0.040506041
2020-06-15T09:45:00	0.2442	13.179	210.0	0.615987513	0.763841067	0.012788205	0.131933552	0.040663202
2020-06-15T09:50:00	0.2441	13.170	208.0	0.615608286	0.763280406	0.012773573	0.131782598	0.040616676
2020-06-15T09:55:00	0.2438	13.174	209.0	0.614564461	0.761737805	0.012733343	0.131367555	0.040488756
2020-06-15T10:00:00	0.2441	13.186	209.0	0.615514217	0.763141348	0.012769945	0.131745166	0.040605140
2020-06-15T10:05:00	0.2435	13.233	210.0	0.613805664	0.760617003	0.012704140	0.131066269	0.040395897
2020-06-15T10:10:00	0.2435	13.254	209.0	0.613758606	0.760547510	0.012702330	0.131047596	0.040390142
2020-06-15T10:15:00	0.2432	13.277	209.0	0.612714237	0.759005732	0.012662195	0.130633536	0.040262524
2020-06-15T10:20:00	0.2422	13.314	209.0	0.609340733	0.754031762	0.012533001	0.129300665	0.039851721
2020-06-15T10:25:00	0.2414	13.390	210.0	0.606630189	0.750042197	0.012429692	0.128234836	0.039523222
2020-06-15T10:30:00	0.2413	13.395	210.0	0.606249962	0.749483046	0.012415235	0.128085689	0.039477253
2020-06-15T10:35:00	0.2414	13.408	209.0	0.606535881	0.749903499	0.012426105	0.128197835	0.039511818
2020-06-15T10:40:00	0.2418	13.455	210.0	0.608153668	0.752283800	0.012487703	0.128833333	0.039707684
2020-06-15T10:45:00	0.2414	13.497	210.0	0.606774626	0.750254634	0.012435186	0.128291517	0.039540691
2020-06-15T10:50:00	0.2414	13.542	210.0	0.606727474	0.750185282	0.012433392	0.128273012	0.039534988
2020-06-15T10:55:00	0.2408	13.595	211.0	0.604681467	0.747177742	0.012355690	0.127471377	0.039287916
2020-06-15T11:00:00	0.2408	13.621	211.0	0.604634287	0.747108432	0.012353901	0.127452922	0.039282228
2020-06-15T11:05:00	0.2397	13.654	211.0	0.600919510	0.741656986	0.012213476	0.126004176	0.038835711
2020-06-15T11:10:00	0.2395	13.708	211.0	0.600205027	0.740609805	0.012186562	0.125726509	0.038750131
2020-06-15T11:15:00	0.2394	13.751	211.0	0.600157787	0.740540584	0.012184783	0.125708161	0.038744476
2020-06-15T11:20:00	0.2391	13.769	212.0	0.599109405	0.739004838	0.012145349	0.125301331	0.038619087
2020-06-15T11:25:00	0.2388	13.800	212.0	0.598060711	0.737469556	0.012105970	0.124895059	0.038493870
2020-06-15T11:30:00	0.2394	13.829	214.0	0.600016066	0.740332927	0.012179449	0.125653126	0.038727514
2020-06-15T11:35:00	0.2397	13.859	212.0	0.600969724	0.741730599	0.012215368	0.126023703	0.038841729
2020-06-15T11:40:00	0.2391	13.901	212.0	0.598920386	0.738728047	0.012138247	0.125228054	0.038596502
2020-06-15T11:45:00	0.2390	13.934	212.0	0.598539330	0.738170137	0.012123934	0.125080395	0.038550993
2020-06-15T11:50:00	0.2377	13.960	212.0	0.594483959	0.732240121	0.011972153	0.123514495	0.038068367
2020-06-15T11:55:00	0.2369	13.982	212.0	0.591762004	0.728267609	0.011870828	0.122469146	0.037746180
2020-06-15T12:00:00	0.2362	13.987	212.0	0.589372646	0.724785593	0.011782248	0.121555286	0.037464520
2020-06-15T12:05:00	0.2355	14.011	213.0	0.586981667	0.721305974	0.011693949	0.120644316	0.037183750
2020-06-15T12:10:00	0.2368	14.049	213.0	0.591285459	0.727572760	0.011853134	0.122286601	0.037689918
2020-06-15T12:15:00	0.2370	14.107	213.0	0.591907050	0.728479138	0.011876216	0.122524735	0.037763313
2020-06-15T12:20:00	0.2370	14.171	213.0	0.591859700	0.728410082	0.011874457	0.122506587	0.037757720
2020-06-15T12:25:00	0.2370	14.224	214.0	0.592146785	0.728828795	0.011885125	0.122616642	0.037791640
2020-06-15T12:30:00	0.2370	14.251	214.0	0.592099437	0.728759735	0.011883365	0.122598488	0.037786045
2020-06-15T12:35:00	0.2368	14.232	214.0	0.591383168	0.727715213	0.011856761	0.122324018	0.037701450
2020-06-15T12:40:00	0.2373	14.198	213.0	0.593007899	0.730085143	0.011917152	0.122947058	0.037893477
2020-06-15T12:45:00	0.2359	14.185	214.0	0.588276652	0.723189989	0.011741731	0.121137273	0.037335684
2020-06-15T12:50:00	0.2356	14.210	214.0	0.587224734	0.721659494	0.011702910	0.120736765	0.037212243
2020-06-15T12:55:00	0.2347	14.292	214.0	0.584162000	0.717208595	0.011590255	0.119574525	0.036854030
2020-06-15T13:00:00	0.2353	14.397	214.0	0.586460049	0.720547490	0.011674731	0.120446045	0.037122641
2020-06-15T13:05:00	0.2345	14.482	216.0	0.583731886	0.716584159	0.011574479	0.119411768	0.036803866
2020-06-15T13:10:00	0.2351	14.540	215.0	0.585695199	0.719435732	0.011646580	0.120155621	0.037033129
2020-06-15T13:15:00	0.2352	14.576	216.0	0.585982787	0.719853702	0.011657161	0.120264780	0.037066773
2020-06-15T13:20:00	0.2353	14.577	216.0	0.586270351	0.720271706	0.011667746	0.120373980	0.037100430
2020-06-15T13:25:00	0.2355	14.563	216.0	0.586892827	0.721176776	0.011690675	0.120610535	0.037173338
2020-06-15T13:30:00	0.2351	14.518	215.0	0.585505459	0.719160009	0.011639602	0.120083630	0.037010941
2020-06-15T13:35:00	0.2350	14.508	215.0	0.585458023	0.719091080	0.011637858	0.120065635	0.037005395
2020-06-15T13:40:00	0.2343	14.489	215.0	0.583064382	0.715615387	0.011550018	0.119159404	0.036726086
2020-06-15T13:45:00	0.2337	14.454	216.0	0.581004606	0.712628295	0.011474702	0.118382387	0.036486601
2020-06-15T13:50:00	0.2335	14.430	215.0	0.580286074	0.711587109	0.011448488	0.118111944	0.036403248
2020-06-15T13:55:00	0.2332	14.414	216.0	0.579231762	0.710060135	0.011410080	0.117715691	0.036281119
2020-06-15T14:00:00	0.2323	14.405	217.0	0.576162050	0.705619483	0.011298626	0.116565843	0.035926725
2020-06-15T14:05:00	0.2328	14.403	219.0	0.577793826	0.707979041	0.011357802	0.117176353	0.036114890
2020-06-15T14:10:00	0.2324	14.421	217.0	0.576738765	0.706453164	0.011319523	0.116781428	0.035993170
2020-06-15T14:15:00	0.2321	14.452	220.0	0.575683386	0.704927751	0.011281297	0.116387065	0.035871624
2020-06-15T14:20:00	0.2319	14.478	221.0	0.574963764	0.703888160	0.011255271	0.116118555	0.035788866
2020-06-15T14:25:00	0.2313	14.493	217.0	0.572899225	0.700908037	0.011180773	0.115349976	0.035551983
2020-06-15T14:30:00	0.2310	14.500	220.0	0.571842689	0.699384312	0.011142746	0.114957660	0.035431067
2020-06-15T14:35:00	0.2310	14.503	220.0	0.571795068	0.699315654	0.011141034	0.114939993	0.035425622
2020-06-15T14:40:00	0.2310	14.505	220.0	0.571747445	0.699246998	0.011139322	0.114922327	0.035420177
2020-06-15T14:45:00	0.2306	14.503	217.0	0.570690561	0.697723778	0.011101354	0.114530625	0.035299451
2020-06-15T14:50:00	0.2307	14.488	221.0	0.570979381	0.698139944	0.011111723	0.114637599	0.035332421
2020-06-15T14:55:00	0.2302	14.474	217.0	0.569249115	0.695647802	0.011049678	0.113997494	0.035135135
2020-06-15T15:00:00	0.2303	14.470	220.0	0.569538054	0.696063796	0.011060027	0.114104259	0.035168041
2020-06-15T15:05:00	0.2295	14.475	220.0	0.566796689	0.692119757	0.010962041	0.113093357	0.034856471
2020-06-15T15:10:00	0.2292	14.478	218.0	0.565738308	0.690598710	0.010924330	0.112704295	0.034736558
2020-06-15T15:15:00	0.2294	14.475	220.0	0.566364439	0.691498439	0.010946631	0.112934379	0.034807472
2020-06-15T15:20:00	0.2292	14.464	220.0	0.565979836	0.690945740	0.010932930	0.112793021	0.034763904
2020-06-15T15:25:00	0.2293	14.454	221.0	0.566269046	0.691361341	0.010943232	0.112899309	0.034796664
2020-06-15T15:30:00	0.2291	14.449	220.0	0.565547485	0.690324568	0.010917537	0.112634221	0.034714961
2020-06-15T15:35:00	0.2288	14.449	220.0	0.564488724	0.688804069	0.010879891	0.112245825	0.034595253
2020-06-15T15:40:00	0.2286	14.448	220.0	0.563766795	0.687767827	0.010854258	0.111981384	0.034513750
2020-06-15T15:45:00	0.2292	14.438	220.0	0.565741323	0.690603041	0.010924437	0.112705402	0.034736900
2020-06-15T15:50:00	0.2290	14.428	217.0	0.565019652	0.689566426	0.010898761	0.112440505	0.034655256
2020-06-15T15:55:00	0.2288	14.418	219.0	0.564634902	0.689013941	0.010885084	0.112299408	0.034611768
2020-06-15T16:00:00	0.2289	14.415	219.0	0.564924223	0.689429381	0.010895368	0.112405501	0.034644467
2020-06-15T16:05:00	0.2293	14.411	219.0	0.566325786	0.691442887	0.010945254	0.112920168	0.034803092
2020-06-15T16:10:00	0.2290	14.408	219.0	0.565031715	0.689583748	0.010899190	0.112444930	0.034656620
2020-06-15T16:15:00	0.2295	14.402	219.0	0.566770097	0.692081529	0.010961093	0.113083573	0.034853456
2020-06-15T16:20:00	0.2290	14.398	220.0	0.565139203	0.689738120	0.010903012	0.112484366	0.034668774
2020-06-15T16:25:00	0.2283	14.391	220.0	0.562833160	0.686428344	0.010821155	0.111639865	0.034408491
2020-06-15T16:30:00	0.2287	14.378	221.0	0.564235562	0.688440636	0.010870899	0.112153056	0.034566661
2020-06-15T16:35:00	0.2288	14.366	220.0	0.564626389	0.689001718	0.010884782	0.112296287	0.034610806
2020-06-15T16:40:00	0.2287	14.351	217.0	0.564005979	0.688111098	0.010862747	0.112068961	0.034540742
2020-06-15T16:45:00	0.2281	14.338	218.0	0.562036506	0.685285956	0.010792950	0.111348873	0.034318804
2020-06-15T16:50:00	0.2284	14.326	220.0	0.563102044	0.686814038	0.010830684	0.111738168	0.034438788
2020-06-15T16:55:00	0.2290	14.313	219.0	0.565178404	0.689794421	0.010904406	0.112498750	0.034673207
2020-06-15T17:00:00	0.2296	14.301	220.0	0.567253529	0.692776588	0.010978339	0.113261503	0.034908295
2020-06-15T17:05:00	0.2286	14.292	220.0	0.563937669	0.688013058	0.010860323	0.112043946	0.034533032
2020-06-15T17:10:00	0.2287	14.281	220.0	0.563991431	0.688090219	0.010862231	0.112063634	0.034539100
2020-06-15T17:15:00	0.2280	14.270	220.0	0.561684629	0.684781538	0.010780503	0.111220467	0.034279228
2020-06-15T17:20:00	0.2275	14.260	220.0	0.560051356	0.682441563	0.010722828	0.110625441	0.034095835
2020-06-15T17:25:00	0.2270	14.252	220.0	0.558417317	0.680102689	0.010665283	0.110031759	0.033912857
2020-06-15T17:30:00	0.2268	14.244	220.0	0.557795802	0.679213662	0.010643437	0.109806374	0.033843391
2020-06-15T17:35:00	0.2259	14.234	215.0	0.554808951	0.674945653	0.010538766	0.108726504	0.033510564
2020-06-15T17:40:00	0.2257	14.225	215.0	0.553848710	0.673575091	0.010505227	0.108380486	0.033403918
2020-06-15T17:45:00	0.2263	14.215	215.0	0.555930588	0.676547537	0.010578011	0.109131387	0.033635353
2020-06-15T17:50:00	0.2263	14.205	215.0	0.555984473	0.676624520	0.010579898	0.109150858	0.033641354
2020-06-15T17:55:00	0.2262	14.194	214.0	0.555700457	0.676218787	0.010569953	0.109048253	0.033609731
2020-06-15T18:00:00	0.2266	14.183	215.0	0.557105732	0.678226947	0.010619207	0.109556404	0.033766348
2020-06-15T18:05:00	0.2266	14.173	214.0	0.557159599	0.678303956	0.010621098	0.109575907	0.033772359
2020-06-15T18:10:00	0.2265	14.163	214.0	0.556875678	0.677898085	0.010611136	0.109473134	0.033740683
2020-06-15T18:15:00	0.2268	14.152	214.0	0.557605079	0.678940913	0.010636737	0.109737258	0.033822089
2020-06-15T18:20:00	0.2268	14.141	214.0	0.557658938	0.679017933	0.010638629	0.109756774	0.033828104
2020-06-15T18:25:00	0.2269	14.129	214.0	0.558050503	0.679577952	0.010652387	0.109898710	0.033871850
2020-06-15T18:30:00	0.2271	14.119	214.0	0.558779658	0.680621133	0.010678030	0.110163265	0.033953388
2020-06-15T18:35:00	0.2267	14.109	215.0	0.557482783	0.678766036	0.010632443	0.109692951	0.033808433
2020-06-15T18:40:00	0.2271	14.099	214.0	0.558887339	0.680775227	0.010681819	0.110202362	0.033965438
2020-06-15T18:45:00	0.2269	14.088	216.0	0.557928222	0.679403052	0.010648089	0.109854375	0.033858185
2020-06-15T18:50:00	0.2272	14.076	214.0	0.558995017	0.680929326	0.010685610	0.110241465	0.033977490
2020-06-15T18:55:00	0.2276	14.065	214.0	0.560398964	0.682939393	0.010735090	0.110751944	0.034134825
2020-06-15T19:00:00	0.2276	14.054	213.0	0.560452780	0.683016476	0.010736989	0.110771536	0.034140863
2020-06-15T19:05:00	0.2281	14.041	214.0	0.562193444	0.685510962	0.010798503	0.111406167	0.034336463
2020-06-15T19:10:00	0.2277	14.028	213.0	0.560897840	0.683654038	0.010752700	0.110933626	0.034190821
2020-06-15T19:15:00	0.2277	14.018	214.0	0.560614223	0.683247730	0.010742687	0.110830319	0.034158981
2020-06-15T19:20:00	0.2281	14.005	213.0	0.562017518	0.685258735	0.010792278	0.111341943	0.034316668
2020-06-15T19:25:00	0.2280	13.993	213.0	0.561733993	0.684852296	0.010782249	0.111238476	0.034284779
2020-06-15T19:30:00	0.2285	13.981	213.0	0.563474018	0.687347704	0.010843872	0.111874231	0.034480724
2020-06-15T19:35:00	0.2290	13.969	213.0	0.565213176	0.689844363	0.010905643	0.112511509	0.034677140
2020-06-15T19:40:00	0.2290	13.957	213.0	0.565266918	0.689921553	0.010907555	0.112531231	0.034683218
2020-06-15T19:45:00	0.2291	13.945	213.0	0.565657629	0.690482801	0.010921458	0.112674665	0.034727426
2020-06-15T19:50:00	0.2298	13.933	213.0	0.567732470	0.693465379	0.010995439	0.113437919	0.034962668
2020-06-15T19:55:00	0.2303	13.921	213.0	0.569469510	0.695965105	0.011057572	0.114078927	0.035160233
2020-06-15T20:00:00	0.2307	13.909	213.0	0.570869252	0.697981249	0.011107769	0.114596803	0.035319848
2020-06-15T20:05:00	0.2308	13.896	213.0	0.571259338	0.698543404	0.011121779	0.114741340	0.035364395
2020-06-15T20:10:00	0.2311	13.884	216.0	0.572322069	0.700075553	0.011159992	0.115135580	0.035485904
2020-06-15T20:15:00	0.2316	13.872	214.0	0.574056832	0.702578587	0.011222514	0.115780605	0.035684707
2020-06-15T20:20:00	0.2312	13.859	214.0	0.572429333	0.700230250	0.011163853	0.115175410	0.035498180
2020-06-15T20:25:00	0.2313	13.846	213.0	0.572819245	0.700792658	0.011177892	0.115320254	0.035542822
2020-06-15T20:30:00	0.2319	13.833	216.0	0.574889844	0.703781398	0.011252599	0.116090991	0.035780371
2020-06-15T20:35:00	0.2316	13.820	217.0	0.573935111	0.702402878	0.011218121	0.115735286	0.035670739
2020-06-15T20:40:00	0.2309	13.807	215.0	0.571634864	0.699084697	0.011135274	0.114880570	0.035407307
2020-06-15T20:45:00	0.2314	13.792	214.0	0.573369968	0.701587235	0.011197737	0.115524993	0.035605925
2020-06-15T20:50:00	0.2310	13.779	214.0	0.571742150	0.699239363	0.011139131	0.114920363	0.035419572
2020-06-15T20:55:00	0.2310	13.764	214.0	0.571795791	0.699316698	0.011141060	0.114940261	0.035425705
2020-06-15T21:00:00	0.2307	13.749	214.0	0.570840214	0.697939407	0.011106726	0.114586047	0.035316533
2020-06-15T21:05:00	0.2309	13.734	214.0	0.571566704	0.698986441	0.011132824	0.114855292	0.035399517
2020-06-15T21:10:00	0.2310	13.717	216.0	0.571956711	0.699548709	0.011146847	0.114999966	0.035444106
2020-06-15T21:15:00	0.2307	13.702	213.0	0.571001178	0.698171355	0.011112506	0.114645675	0.035334910
2020-06-15T21:20:00	0.2303	13.685	212.0	0.569372257	0.695825085	0.011054088	0.114042990	0.035149157
2020-06-15T21:25:00	0.2301	13.669	211.0	0.568752690	0.694933246	0.011031910	0.113814181	0.035078636
2020-06-15T21:30:00	0.2304	13.655	213.0	0.569816182	0.696464289	0.011069993	0.114207077	0.035199730
2020-06-15T21:35:00	0.2304	13.638	214.0	0.569869853	0.696541581	0.011071917	0.114226924	0.035205847
2020-06-15T21:40:00	0.2308	13.622	212.0	0.571269435	0.698557958	0.011122141	0.114745082	0.035365549
2020-06-15T21:45:00	0.2303	13.606	215.0	0.569640639	0.696211507	0.011063702	0.114142177	0.035179728
2020-06-15T21:50:00	0.2306	13.589	212.0	0.570703862	0.697742941	0.011101832	0.114535550	0.035300969
2020-06-15T21:55:00	0.2303	13.574	212.0	0.569411410	0.695881455	0.011055490	0.114057457	0.035153616
2020-06-15T22:00:00	0.2304	13.557	212.0	0.569801658	0.696443374	0.011069472	0.114201707	0.035198075
2020-06-15T22:05:00	0.2299	13.540	215.0	0.568070809	0.693952078	0.011007527	0.113562630	0.035001105
2020-06-15T22:10:00	0.2298	13.522	211.0	0.567686394	0.693399107	0.010993794	0.113420941	0.034957436
2020-06-15T22:15:00	0.2300	13.505	215.0	0.568648858	0.694783817	0.011028195	0.113775858	0.035066825
2020-06-15T22:20:00	0.2302	13.487	215.0	0.569274468	0.695684301	0.011050586	0.114006860	0.035138022
2020-06-15T22:25:00	0.2299	13.470	214.0	0.568216837	0.694162167	0.011012747	0.113616477	0.035017702
2020-06-15T22:30:00	0.2304	13.453	216.0	0.569852318	0.696516329	0.011071288	0.114220440	0.035203849
2020-06-15T22:35:00	0.2308	13.436	211.0	0.571150627	0.698386728	0.011117873	0.114701050	0.035351978
2020-06-15T22:40:00	0.2310	13.420	213.0	0.571775790	0.699287862	0.011140341	0.114932841	0.035423418
2020-06-15T22:45:00	0.2309	13.405	215.0	0.571391782	0.698734300	0.011126537	0.114790435	0.035379527
2020-06-15T22:50:00	0.2311	13.391	215.0	0.572353227	0.700120490	0.011161113	0.115147149	0.035489470
2020-06-15T22:55:00	0.2305	13.377	215.0	0.570287149	0.697142609	0.011086879	0.114381292	0.035253425
2020-06-15T23:00:00	0.2302	13.362	214.0	0.569229824	0.695620031	0.011048988	0.113990368	0.035132938
2020-06-15T23:05:00	0.2300	13.347	212.0	0.568508874	0.694582372	0.011023188	0.113724203	0.035050904
2020-06-15T23:10:00	0.2304	13.332	213.0	0.569807681	0.696452047	0.011069688	0.114203934	0.035198762
2020-06-15T23:15:00	0.2307	13.316	211.0	0.570769562	0.697837604	0.011104190	0.114559880	0.035308468
2020-06-15T23:20:00	0.2315	13.299	213.0	0.573412618	0.701648780	0.011199275	0.115540857	0.035610814
2020-06-15T23:25:00	0.2315	13.280	213.0	0.573701214	0.702065273	0.011209683	0.115648228	0.035643907
2020-06-15T23:30:00	0.2311	13.264	212.0	0.572308622	0.700056162	0.011159508	0.115130587	0.035484365
2020-06-15T23:35:00	0.2314	13.245	215.0	0.573269815	0.701442717	0.011194127	0.115487746	0.035594445
2020-06-15T23:40:00	0.2310	13.227	211.0	0.571877052	0.699433856	0.011143982	0.114970409	0.035434997
2020-06-15T23:45:00	0.2305	13.208	211.0	0.570147230	0.696941069	0.011081861	0.114329520	0.035237469
2020-06-15T23:50:00	0.2310	13.191	213.0	0.571781810	0.699296540	0.011140557	0.114935074	0.035424106
2020-06-15T23:55:00	0.2315	13.172	212.0	0.573415626	0.701653121	0.011199384	0.115541976	0.035611159
2020-06-16T00:00:00	0.2312	13.152	210.0	0.572695538	0.700614210	0.011173437	0.115274289	0.035528655
2020-06-16T00:05:00	0.2304	13.134	212.0	0.569956648	0.696666578	0.011075028	0.114259022	0.035215740
2020-06-16T00:10:00	0.2306	13.114	211.0	0.570582024	0.697567402	0.011097459	0.114490437	0.035287065
2020-06-16T00:15:00	0.2306	13.095	210.0	0.570534385	0.697498770	0.011095749	0.114472800	0.035281629
2020-06-16T00:20:00	0.2301	13.077	210.0	0.568803899	0.695006947	0.011033742	0.113833084	0.035084462
2020-06-16T00:25:00	0.2300	13.057	210.0	0.568419564	0.694453860	0.011019995	0.113691253	0.035040748
2020-06-16T00:30:00	0.2295	13.037	210.0	0.566688031	0.691963556	0.010958166	0.113053382	0.034844150
2020-06-16T00:35:00	0.2291	13.018	210.0	0.565629616	0.690442557	0.010920461	0.112664378	0.034724256
2020-06-16T00:40:00	0.2288	12.999	210.0	0.564570881	0.688922021	0.010882809	0.112275939	0.034604535
2020-06-16T00:45:00	0.2286	12.980	209.0	0.563848969	0.687885756	0.010857175	0.112011468	0.034523022
2020-06-16T00:50:00	0.2290	12.961	210.0	0.565149509	0.689752922	0.010903379	0.112488147	0.034669939
2020-06-16T00:55:00	0.2290	12.942	211.0	0.565101796	0.689684397	0.010901682	0.112470641	0.034664544
2020-06-16T01:00:00	0.2290	12.924	209.0	0.565054083	0.689615872	0.010899985	0.112453136	0.034659149
2020-06-16T01:05:00	0.2281	12.906	208.0	0.561971902	0.685193339	0.010790664	0.111325293	0.034311536
2020-06-16T01:10:00	0.2282	12.888	208.0	0.562598709	0.686092092	0.010812851	0.111554188	0.034382084
2020-06-16T01:15:00	0.2284	12.868	208.0	0.563225403	0.686991007	0.010835057	0.111783281	0.034452693
2020-06-16T01:20:00	0.2284	12.850	208.0	0.563177664	0.686922520	0.010833364	0.111765822	0.034447312
2020-06-16T01:25:00	0.2279	12.832	208.0	0.561443529	0.684435978	0.010771980	0.111132529	0.034252125
2020-06-16T01:30:00	0.2287	12.814	208.0	0.564093644	0.688236926	0.010865859	0.112101069	0.034550638
2020-06-16T01:35:00	0.2280	12.795	208.0	0.561685355	0.684782578	0.010780529	0.111220732	0.034279310
2020-06-16T01:40:00	0.2279	12.776	208.0	0.561300236	0.684230624	0.010766915	0.111080281	0.034236021
2020-06-16T01:45:00	0.2280	12.756	208.0	0.561927164	0.685129203	0.010789081	0.111308965	0.034306504
2020-06-16T01:50:00	0.2273	12.738	209.0	0.559517377	0.681677013	0.010704006	0.110431257	0.034035986
2020-06-16T01:55:00	0.2277	12.720	208.0	0.560819533	0.683541849	0.010749935	0.110905098	0.034182028
2020-06-16T02:00:00	0.2277	12.701	209.0	0.560771761	0.683473410	0.010748248	0.110887696	0.034176665
2020-06-16T02:05:00	0.2278	12.682	209.0	0.561061402	0.683888388	0.010758477	0.110993225	0.034209190
2020-06-16T02:10:00	0.2280	12.662	208.0	0.561688373	0.684786905	0.010780636	0.111221833	0.034279649
2020-06-16T02:15:00	0.2277	12.644	208.0	0.560628441	0.683268096	0.010743189	0.110835497	0.034160577
2020-06-16T02:20:00	0.2271	12.625	208.0	0.558893037	0.680783381	0.010682020	0.110204431	0.033966076
2020-06-16T02:25:00	0.2273	12.608	208.0	0.559520397	0.681681336	0.010704112	0.110432354	0.034036324
2020-06-16T02:30:00	0.2274	12.588	209.0	0.559810143	0.682096165	0.010714324	0.110537701	0.034068793
2020-06-16T02:35:00	0.2276	12.570	207.0	0.560437338	0.682994358	0.010736444	0.110765914	0.034139130
2020-06-16T02:40:00	0.2275	12.554	207.0	0.560052082	0.682442603	0.010722854	0.110625706	0.034095917
2020-06-16T02:45:00	0.2276	12.536	207.0	0.560341783	0.682857495	0.010733072	0.110731130	0.034128410
2020-06-16T02:50:00	0.2278	12.518	207.0	0.560968883	0.683755825	0.010755209	0.110959511	0.034198799
2020-06-16T02:55:00	0.2275	12.501	207.0	0.560246225	0.682720635	0.010729701	0.110696350	0.034117690
2020-06-16T03:00:00	0.2280	12.485	207.0	0.561885444	0.685069395	0.010787606	0.111293739	0.034301811
2020-06-16T03:05:00	0.2286	12.468	207.0	0.563861035	0.687903072	0.010857603	0.112015886	0.034524384
2020-06-16T03:10:00	0.2283	12.451	207.0	0.562801763	0.686383312	0.010820043	0.111628390	0.034404954
2020-06-16T03:15:00	0.2286	12.434	207.0	0.563765573	0.687766074	0.010854215	0.111980937	0.034513612
2020-06-16T03:20:00	0.2293	12.420	207.0	0.566077031	0.691085403	0.010936392	0.112828736	0.034774912
2020-06-16T03:25:00	0.2294	12.404	207.0	0.566366232	0.691501016	0.010946695	0.112935038	0.034807676
2020-06-16T03:30:00	0.2292	12.389	207.0	0.565981630	0.690948317	0.010932994	0.112793680	0.034764108
2020-06-16T03:35:00	0.2291	12.375	207.0	0.565596985	0.690395679	0.010919299	0.112652396	0.034720563
2020-06-16T03:40:00	0.2290	12.361	209.0	0.565212298	0.689843102	0.010905612	0.112511187	0.034677041
2020-06-16T03:45:00	0.2295	12.348	210.0	0.566849186	0.692195226	0.010963913	0.113112672	0.034862424
2020-06-16T03:50:00	0.2294	12.334	208.0	0.566464637	0.691642450	0.010950203	0.112971221	0.034818827
2020-06-16T03:55:00	0.2297	12.322	208.0	0.567427437	0.693026672	0.010984547	0.113325545	0.034928034
2020-06-16T04:00:00	0.2294	12.310	208.0	0.566369246	0.691505349	0.010946803	0.112936146	0.034808017
2020-06-16T04:05:00	0.2293	12.300	208.0	0.566172429	0.691222493	0.010939790	0.112863796	0.034785718
2020-06-16T04:10:00	0.2288	12.291	208.0	0.564627648	0.689003527	0.010884827	0.112296749	0.034610949
2020-06-16T04:15:00	0.2289	12.283	208.0	0.564767789	0.689204747	0.010889807	0.112348131	0.034626785
2020-06-16T04:20:00	0.2284	12.277	209.0	0.563222386	0.686986679	0.010834950	0.111782178	0.034452353
2020-06-16T04:25:00	0.2282	12.270	208.0	0.562350911	0.685736745	0.010804077	0.111463669	0.034354185
2020-06-16T04:30:00	0.2277	12.265	208.0	0.560804437	0.683520222	0.010749402	0.110899599	0.034180333
2020-06-16T04:35:00	0.2275	12.260	209.0	0.559932357	0.682271160	0.010718632	0.110582152	0.034082493
2020-06-16T04:40:00	0.2274	12.255	205.0	0.559735176	0.681988828	0.010711681	0.110510440	0.034060391
2020-06-16T04:45:00	0.2275	12.251	209.0	0.560213009	0.682673063	0.010728530	0.110684262	0.034113964
2020-06-16T04:50:00	0.2279	12.248	208.0	0.561365578	0.684324264	0.010769225	0.111104105	0.034243364
2020-06-16T04:55:00	0.2277	12.246	209.0	0.560831075	0.683558385	0.010750343	0.110909302	0.034183324
2020-06-16T05:00:00	0.2274	12.242	208.0	0.559621480	0.681826049	0.010707674	0.110469101	0.034047650
2020-06-16T05:05:00	0.2272	12.238	208.0	0.559086709	0.681060554	0.010688838	0.110274768	0.033987754
2020-06-16T05:10:00	0.2273	12.235	208.0	0.559564631	0.681744661	0.010705671	0.110448434	0.034041280
2020-06-16T05:15:00	0.2275	12.232	208.0	0.560042487	0.682428863	0.010722515	0.110622215	0.034094841
2020-06-16T05:20:00	0.2273	12.229	208.0	0.559507781	0.681663275	0.010703668	0.110427768	0.034034911
2020-06-16T05:25:00	0.2269	12.227	208.0	0.557960045	0.679448568	0.010649208	0.109865913	0.033861741
2020-06-16T05:30:00	0.2269	12.226	208.0	0.558100454	0.679649402	0.010654142	0.109916823	0.033877432
2020-06-16T05:35:00	0.2273	12.226	208.0	0.559253722	0.681299598	0.010694719	0.110335441	0.034006454
2020-06-16T05:40:00	0.2272	12.228	208.0	0.559056502	0.681017322	0.010687774	0.110263796	0.033984373
2020-06-16T05:45:00	0.2273	12.230	207.0	0.559534428	0.681701423	0.010704607	0.110437455	0.034037896
2020-06-16T05:50:00	0.2276	12.233	208.0	0.560349772	0.682868936	0.010733354	0.110734038	0.034129306
2020-06-16T05:55:00	0.2273	12.237	209.0	0.559477578	0.681620037	0.010702604	0.110416790	0.034031527
2020-06-16T06:00:00	0.2278	12.241	207.0	0.560967813	0.683754292	0.010755171	0.110959121	0.034198679
2020-06-16T06:05:00	0.2282	12.247	208.0	0.562457412	0.685889464	0.010807847	0.111502569	0.034366175
2020-06-16T06:10:00	0.2286	12.252	207.0	0.563946375	0.688025552	0.010860632	0.112047134	0.034534015
2020-06-16T06:15:00	0.2289	12.259	208.0	0.564760688	0.689194551	0.010889555	0.112345527	0.034625983
2020-06-16T06:20:00	0.2292	12.266	208.0	0.565911757	0.690847918	0.010930505	0.112768008	0.034756195
2020-06-16T06:25:00	0.2295	12.273	209.0	0.566725611	0.692017579	0.010959506	0.113067207	0.034848411
2020-06-16T06:30:00	0.2293	12.283	207.0	0.566191928	0.691250515	0.010940485	0.112870963	0.034787927
2020-06-16T06:35:00	0.2295	12.293	207.0	0.567005718	0.692420270	0.010969497	0.113170277	0.034880178
2020-06-16T06:40:00	0.2302	12.305	207.0	0.569166039	0.695528209	0.011046704	0.113966807	0.035125677
2020-06-16T06:45:00	0.2301	12.320	208.0	0.568969379	0.695245125	0.011039664	0.113894179	0.035103292
2020-06-16T06:50:00	0.2306	12.333	207.0	0.570455570	0.697385226	0.011092921	0.114443625	0.035272637
2020-06-16T06:55:00	0.2313	12.349	207.0	0.572950031	0.700981332	0.011182603	0.115368859	0.035557803
2020-06-16T07:00:00	0.2308	12.367	208.0	0.571071826	0.698273164	0.011115043	0.114671850	0.035342978
2020-06-16T07:05:00	0.2310	12.389	207.0	0.571884481	0.699444566	0.011144249	0.114973165	0.035435846
2020-06-16T07:10:00	0.2314	12.439	207.0	0.573369435	0.701586466	0.011197718	0.115524795	0.035605864
2020-06-16T07:15:00	0.2311	12.455	208.0	0.572164175	0.699847857	0.011154310	0.115076963	0.035467837
2020-06-16T07:20:00	0.2315	12.481	207.0	0.573649010	0.701989929	0.011207800	0.115628802	0.035637920
2020-06-16T07:25:00	0.2316	12.508	207.0	0.573788789	0.702191673	0.011212842	0.115680820	0.035653952
2020-06-16T07:30:00	0.2317	12.528	209.0	0.574264704	0.702878686	0.011230017	0.115858020	0.035708567
2020-06-16T07:35:00	0.2326	12.552	211.0	0.577428164	0.707450100	0.011344528	0.117039403	0.036072681
2020-06-16T07:40:00	0.2329	12.566	210.0	0.578239347	0.708623650	0.011373987	0.117343323	0.036166352
2020-06-16T07:45:00	0.2333	12.574	209.0	0.579721612	0.710769476	0.011427917	0.117899711	0.036337836
2020-06-16T07:50:00	0.2328	12.603	208.0	0.577847033	0.708056015	0.011359735	0.117196287	0.036121034
2020-06-16T07:55:00	0.2327	12.664	208.0	0.577650860	0.707772222	0.011352611	0.117122799	0.036098384
2020-06-16T08:00:00	0.2328	12.653	208.0	0.577790479	0.707974199	0.011357681	0.117175099	0.036114504
2020-06-16T08:05:00	0.2322	12.676	208.0	0.575914868	0.705262249	0.011289676	0.116473505	0.035898265
2020-06-16T08:10:00	0.2324	12.708	208.0	0.576726400	0.706435288	0.011319074	0.116776804	0.035991745
2020-06-16T08:15:00	0.2319	12.738	208.0	0.574850220	0.703724170	0.011251167	0.116076217	0.035775818
2020-06-16T08:20:00	0.2323	12.776	208.0	0.576333917	0.705867901	0.011304851	0.116630069	0.035946520
2020-06-16T08:25:00	0.2320	12.819	208.0	0.575129677	0.704127805	0.011261269	0.116180433	0.035807938
2020-06-16T08:30:00	0.2320	12.867	208.0	0.575269397	0.704329635	0.011266321	0.116232556	0.035824003
2020-06-16T08:35:00	0.2319	12.908	209.0	0.575073079	0.704046053	0.011259222	0.116159323	0.035801431
2020-06-16T08:40:00	0.2324	12.935	209.0	0.576556682	0.706189922	0.011312923	0.116713341	0.035972185
2020-06-16T08:45:00	0.2320	12.968	209.0	0.575352518	0.704449715	0.011269327	0.116263570	0.035833561
2020-06-16T08:50:00	0.2319	13.018	209.0	0.574820149	0.703680741	0.011250080	0.116065006	0.035772362
2020-06-16T08:55:00	0.2314	13.049	210.0	0.573279183	0.701456235	0.011194465	0.115491230	0.035595519
2020-06-16T09:00:00	0.2316	13.061	209.0	0.573755168	0.702143146	0.011211629	0.115668307	0.035650096
2020-06-16T09:05:00	0.2313	13.078	210.0	0.572886314	0.700889412	0.011180308	0.115345178	0.035550504
2020-06-16T09:10:00	0.2317	13.139	210.0	0.574370844	0.703031930	0.011233850	0.115897558	0.035720753
2020-06-16T09:15:00	0.2312	13.181	210.0	0.572493401	0.700322652	0.011166159	0.115199203	0.035505513
2020-06-16T09:20:00	0.2318	13.161	210.0	0.574650339	0.703435509	0.011243945	0.116001706	0.035752853
2020-06-16T09:25:00	0.2317	13.179	210.0	0.574117863	0.702666691	0.011224717	0.115803331	0.035691711
2020-06-16T09:30:00	0.2316	13.214	211.0	0.573921481	0.702383203	0.011217629	0.115730212	0.035669175
2020-06-16T09:35:00	0.2313	13.220	210.0	0.573052668	0.701129408	0.011186301	0.115407010	0.035569561
2020-06-16T09:40:00	0.2311	13.210	210.0	0.572183640	0.699875927	0.011155011	0.115084188	0.035470065
2020-06-16T09:45:00	0.2304	13.232	211.0	0.569968502	0.696683651	0.011075453	0.114263407	0.035217092
2020-06-16T09:50:00	0.2302	13.256	211.0	0.569098708	0.695431284	0.011044293	0.113941938	0.035118012
2020-06-16T09:55:00	0.2300	13.289	211.0	0.568565387	0.694663695	0.011025210	0.113745055	0.035057331
2020-06-16T10:00:00	0.2297	13.334	211.0	0.567358470	0.692927493	0.010982085	0.113300145	0.034920205
2020-06-16T10:05:00	0.2299	13.370	211.0	0.568168975	0.694093307	0.011011036	0.113598827	0.035012262
2020-06-16T10:10:00	0.2306	13.433	211.0	0.570662055	0.697682707	0.011100331	0.114520069	0.035296198
2020-06-16T10:15:00	0.2292	13.481	212.0	0.565748421	0.690613240	0.010924690	0.112708009	0.034737703
2020-06-16T10:20:00	0.2289	13.511	212.0	0.564874560	0.689358065	0.010893602	0.112387286	0.034638853
2020-06-16T10:25:00	0.2294	13.524	212.0	0.566359478	0.691491310	0.010946455	0.112932555	0.034806910
2020-06-16T10:30:00	0.2291	13.548	212.0	0.565485770	0.690235914	0.010915341	0.112611563	0.034707977
2020-06-16T10:35:00	0.2285	13.571	212.0	0.563600534	0.687529240	0.010848360	0.111920528	0.034494994
2020-06-16T10:40:00	0.2281	13.593	212.0	0.562051596	0.685307591	0.010793484	0.111354382	0.034320502
2020-06-16T10:45:00	0.2271	13.620	212.0	0.558814303	0.680670710	0.010679249	0.110175843	0.033957265
2020-06-16T10:50:00	0.2266	13.631	212.0	0.556925455	0.677969237	0.010612882	0.109491149	0.033746235
2020-06-16T10:55:00	0.2268	13.666	213.0	0.557738387	0.679131551	0.010641420	0.109785566	0.033836978
2020-06-16T11:00:00	0.2265	13.687	212.0	0.556862516	0.677879272	0.010610674	0.109468371	0.033739215
2020-06-16T11:05:00	0.2264	13.733	214.0	0.556324298	0.677110066	0.010591804	0.109273688	0.033679212
2020-06-16T11:10:00	0.2264	13.772	215.0	0.556461750	0.677306485	0.010596621	0.109323390	0.033694531
2020-06-16T11:15:00	0.2267	13.788	215.0	0.557274790	0.678468643	0.010625141	0.109617617	0.033785214
2020-06-16T11:20:00	0.2265	13.813	213.0	0.556736636	0.677699346	0.010606259	0.109422822	0.033725177
2020-06-16T11:25:00	0.2255	13.848	213.0	0.553494396	0.673069566	0.010492865	0.108252953	0.033364611
2020-06-16T11:30:00	0.2258	13.903	214.0	0.554308130	0.674230732	0.010521266	0.108545966	0.033454921
2020-06-16T11:35:00	0.2263	13.912	214.0	0.556135447	0.676840221	0.010585187	0.109205419	0.033658171
2020-06-16T11:40:00	0.2262	13.922	214.0	0.555597117	0.676071176	0.010566335	0.109010933	0.033598228
2020-06-16T11:45:00	0.2264	13.937	214.0	0.556410359	0.677233045	0.010594820	0.109304806	0.033688803
2020-06-16T11:50:00	0.2258	13.990	214.0	0.554520206	0.674533444	0.010528675	0.108622397	0.033478478
2020-06-16T11:55:00	0.2252	14.044	214.0	0.552290793	0.671353071	0.010450927	0.107820290	0.033231260
2020-06-16T12:00:00	0.2258	14.048	214.0	0.554457224	0.674443541	0.010526474	0.108599696	0.033471481
2020-06-16T12:05:00	0.2255	14.043	214.0	0.553242387	0.672710070	0.010484077	0.108162290	0.033336668
2020-06-16T12:10:00	0.2252	14.047	215.0	0.552365384	0.671459413	0.010453524	0.107847078	0.033239517
2020-06-16T12:15:00	0.2250	14.087	215.0	0.551488159	0.670209072	0.010423008	0.107532252	0.033142484
2020-06-16T12:20:00	0.2250	14.138	215.0	0.551625802	0.670405217	0.010427793	0.107581620	0.033157700
2020-06-16T12:25:00	0.2251	14.157	214.0	0.552101722	0.671083540	0.010444347	0.107752404	0.033210337
2020-06-16T12:30:00	0.2244	14.158	215.0	0.549532256	0.667423524	0.010355131	0.106831981	0.032926654
2020-06-16T12:35:00	0.2248	14.161	214.0	0.551023728	0.669547357	0.010406870	0.107365763	0.033091171
2020-06-16T12:40:00	0.2249	14.169	215.0	0.551161389	0.669743476	0.010411652	0.107415098	0.033106376
2020-06-16T12:45:00	0.2249	14.189	216.0	0.551299045	0.669939603	0.010416435	0.107464443	0.033121585
2020-06-16T12:50:00	0.2241	14.209	218.0	0.548728984	0.666280434	0.010327320	0.106545057	0.032838221
2020-06-16T12:55:00	0.2236	14.235	216.0	0.546834647	0.663586805	0.010261883	0.105869957	0.032630149
2020-06-16T13:00:00	0.2234	14.268	217.0	0.546294874	0.662819820	0.010243276	0.105677991	0.032570983
2020-06-16T13:05:00	0.2237	14.300	216.0	0.547110296	0.663978578	0.010271392	0.105968057	0.032660384
2020-06-16T13:10:00	0.2245	14.354	217.0	0.549956978	0.668028135	0.010369852	0.106983847	0.032973461
2020-06-16T13:15:00	0.2248	14.412	217.0	0.551109920	0.669670149	0.010409864	0.107396651	0.033100691
2020-06-16T13:20:00	0.2251	14.455	217.0	0.551924213	0.670830516	0.010438171	0.107688688	0.033190700
2020-06-16T13:25:00	0.2249	14.484	217.0	0.551385230	0.670062405	0.010419430	0.107495343	0.033131109
2020-06-16T13:30:00	0.2250	14.487	217.0	0.551522877	0.670258544	0.010424215	0.107544703	0.033146322
2020-06-16T13:35:00	0.2252	14.456	217.0	0.552337072	0.671419050	0.010452538	0.107836910	0.033236383
2020-06-16T13:40:00	0.2252	14.414	217.0	0.552474681	0.671615243	0.010457329	0.107886336	0.033251616
2020-06-16T13:45:00	0.2249	14.383	217.0	0.551259151	0.669882763	0.010415049	0.107450141	0.033117177
2020-06-16T13:50:00	0.2249	14.365	217.0	0.551396803	0.670078895	0.010419833	0.107499493	0.033132388
2020-06-16T13:55:00	0.2252	14.348	217.0	0.552211028	0.671239358	0.010448151	0.107791647	0.033222433
2020-06-16T14:00:00	0.2250	14.334	217.0	0.551672090	0.670471183	0.010429403	0.107598224	0.033162818
2020-06-16T14:05:00	0.2252	14.318	217.0	0.552486251	0.671631738	0.010457732	0.107890492	0.033252897
2020-06-16T14:10:00	0.2255	14.310	217.0	0.553300221	0.672792566	0.010486093	0.108183093	0.033343080
2020-06-16T14:15:00	0.2258	14.318	218.0	0.554452055	0.674436163	0.010526294	0.108597833	0.033470907
2020-06-16T14:20:00	0.2259	14.329	217.0	0.554589580	0.674632476	0.010531099	0.108647406	0.033486186
2020-06-16T14:25:00	0.2253	14.327	218.0	0.552698437	0.671934292	0.010465121	0.107966729	0.033276394
2020-06-16T14:30:00	0.2253	14.313	217.0	0.552497820	0.671648234	0.010458135	0.107894648	0.033254178
2020-06-16T14:35:00	0.2249	14.298	219.0	0.551282298	0.669915742	0.010415853	0.107458439	0.033119734
2020-06-16T14:40:00	0.2246	14.284	220.0	0.550404800	0.668665791	0.010385384	0.107144091	0.033022849
2020-06-16T14:45:00	0.2245	14.272	217.0	0.549865581	0.667898016	0.010366683	0.106951158	0.032963385
2020-06-16T14:50:00	0.2246	14.262	217.0	0.550341743	0.668575995	0.010383196	0.107121520	0.033015893
2020-06-16T14:55:00	0.2238	14.252	217.0	0.547432268	0.664436267	0.010282504	0.106082701	0.032695719
2020-06-16T15:00:00	0.2232	14.250	219.0	0.545537222	0.661743646	0.010217187	0.105408836	0.032488027
2020-06-16T15:05:00	0.2227	14.248	217.0	0.543980217	0.659533537	0.010163679	0.104856800	0.032317884
2020-06-16T15:10:00	0.2224	14.248	218.0	0.542761707	0.657805294	0.010121902	0.104425800	0.032185046
2020-06-16T15:15:00	0.2225	14.246	217.0	0.543238845	0.658481887	0.010138251	0.104594462	0.032237029
2020-06-16T15:20:00	0.2226	14.245	218.0	0.543376816	0.658677566	0.010142980	0.104643258	0.032252068
2020-06-16T15:25:00	0.2230	14.244	219.0	0.544870936	0.660797635	0.010194272	0.105172425	0.032415163
2020-06-16T15:30:00	0.2224	14.242	219.0	0.542974490	0.658107001	0.010129191	0.104500999	0.032208223
2020-06-16T15:35:00	0.2225	14.241	216.0	0.543112470	0.658302666	0.010133919	0.104549777	0.032223257
2020-06-16T15:40:00	0.2220	14.240	218.0	0.541554375	0.656094102	0.010080595	0.103999637	0.032053698
2020-06-16T15:45:00	0.2220	14.236	218.0	0.541353111	0.655808961	0.010073717	0.103928681	0.032031829
2020-06-16T15:50:00	0.2219	14.232	218.0	0.541151837	0.655523837	0.010066841	0.103857746	0.032009966
2020-06-16T15:55:00	0.2215	14.230	218.0	0.539932331	0.653797003	0.010025233	0.103428476	0.031877661
2020-06-16T16:00:00	0.2207	14.232	217.0	0.537014098	0.649669684	0.009926017	0.102404892	0.031562182
2020-06-16T16:05:00	0.2203	14.230	219.0	0.535706020	0.647821896	0.009881706	0.101947744	0.031421285
2020-06-16T16:10:00	0.2193	14.227	218.0	0.532356841	0.643097219	0.009768709	0.100781968	0.031061981
2020-06-16T16:15:00	0.2190	14.221	218.0	0.531387310	0.641731210	0.009736120	0.100445756	0.030958358
2020-06-16T16:20:00	0.2188	14.216	217.0	0.530757883	0.640844796	0.009714993	0.100227787	0.030891177
2020-06-16T16:25:00	0.2181	14.210	217.0	0.528085208	0.637084495	0.009625538	0.099304901	0.030606735
2020-06-16T16:30:00	0.2189	14.206	219.0	0.530860347	0.640989073	0.009718430	0.100263254	0.030902109
2020-06-16T16:35:00	0.2185	14.208	218.0	0.529549934	0.639144561	0.009674511	0.099810146	0.030762456
2020-06-16T16:40:00	0.2176	14.205	218.0	0.526535563	0.634906894	0.009573862	0.098771768	0.030442418
2020-06-16T16:45:00	0.2175	14.201	218.0	0.526246070	0.634500308	0.009564224	0.098672332	0.030411771
2020-06-16T16:50:00	0.2174	14.198	216.0	0.525956554	0.634093756	0.009554589	0.098572938	0.030381137
2020-06-16T16:55:00	0.2167	14.196	217.0	0.523621231	0.630816885	0.009477056	0.097773040	0.030134601
2020-06-16T17:00:00	0.2168	14.195	215.0	0.523672570	0.630888875	0.009478757	0.097790590	0.030140009
2020-06-16T17:05:00	0.2164	14.189	217.0	0.522359418	0.629048182	0.009435295	0.097342204	0.030001813
2020-06-16T17:10:00	0.2156	14.179	218.0	0.519680212	0.625296976	0.009346932	0.096430576	0.029720840
2020-06-16T17:15:00	0.2159	14.172	217.0	0.520755810	0.626802242	0.009382357	0.096796043	0.029833480
2020-06-16T17:20:00	0.2157	14.162	216.0	0.520124436	0.625918540	0.009361554	0.096581430	0.029767335
2020-06-16T17:25:00	0.2155	14.152	217.0	0.519492945	0.625034999	0.009340771	0.096367017	0.029701251
2020-06-16T17:30:00	0.2155	14.142	218.0	0.519202859	0.624629237	0.009331232	0.096268603	0.029670918
2020-06-16T17:35:00	0.2149	14.132	218.0	0.517204661	0.621836086	0.009265656	0.095592067	0.029462403
2020-06-16T17:40:00	0.2152	14.120	217.0	0.518281035	0.623340277	0.009300951	0.095956201	0.029574633
2020-06-16T17:45:00	0.2142	14.109	217.0	0.514914851	0.618639282	0.009190795	0.094819738	0.029224364
2020-06-16T17:50:00	0.2136	14.100	217.0	0.512914153	0.615849582	0.009125635	0.094147491	0.029017171
2020-06-16T17:55:00	0.2142	14.092	218.0	0.515017789	0.618782903	0.009194154	0.094854390	0.029235044
2020-06-16T18:00:00	0.2137	14.080	217.0	0.513359254	0.616469934	0.009140111	0.094296841	0.029063202
2020-06-16T18:05:00	0.2134	14.068	217.0	0.512042151	0.614634706	0.009097307	0.093855242	0.028927097
2020-06-16T18:10:00	0.2135	14.055	218.0	0.512435858	0.615183144	0.009110092	0.093987136	0.028967748
2020-06-16T18:15:00	0.2132	14.043	217.0	0.511460692	0.613824958	0.009078443	0.093660620	0.028867113
2020-06-16T18:20:00	0.2131	14.030	216.0	0.511169926	0.613420135	0.009069017	0.093563373	0.028837140
2020-06-16T18:25:00	0.2127	14.016	218.0	0.509851981	0.611586064	0.009026353	0.093123216	0.028701480
2020-06-16T18:30:00	0.2129	14.003	217.0	0.510588320	0.612610591	0.009050177	0.093369005	0.028777234
2020-06-16T18:35:00	0.2129	13.989	217.0	0.510297480	0.612205869	0.009040763	0.093271884	0.028747301
2020-06-16T18:40:00	0.2132	13.975	217.0	0.511376024	0.613707070	0.009075697	0.093632297	0.028858383
2020-06-16T18:45:00	0.2132	13.961	217.0	0.511427546	0.613778806	0.009077368	0.093649532	0.028863695
2020-06-16T18:50:00	0.2133	13.948	218.0	0.511821325	0.614327148	0.009090141	0.093781305	0.028904309
2020-06-16T18:55:00	0.2139	13.934	217.0	0.513925631	0.617259545	0.009158548	0.094487055	0.029121828
2020-06-16T19:00:00	0.2148	13.920	218.0	0.517053951	0.621625549	0.009260720	0.095541138	0.029446707
2020-06-16T19:05:00	0.2155	13.907	216.0	0.519496542	0.625040030	0.009340890	0.096368238	0.029701627
2020-06-16T19:10:00	0.2162	13.893	218.0	0.521596148	0.627978920	0.009410079	0.097082055	0.029921632
2020-06-16T19:15:00	0.2169	13.880	216.0	0.524035513	0.631397874	0.009490787	0.097914702	0.030178262
2020-06-16T19:20:00	0.2179	13.867	217.0	0.527495346	0.636255376	0.009605851	0.099101797	0.030544136
2020-06-16T19:25:00	0.2182	13.854	216.0	0.528568505	0.637764035	0.009641683	0.099471467	0.030658072
2020-06-16T19:30:00	0.2187	13.841	216.0	0.530322200	0.640231419	0.009700382	0.100077051	0.030844719
2020-06-16T19:35:00	0.2193	13.827	217.0	0.532415217	0.643179491	0.009770673	0.100802230	0.031068226
2020-06-16T19:40:00	0.2198	13.813	221.0	0.534166959	0.645649611	0.009829699	0.101411192	0.031255914
2020-06-16T19:45:00	0.2199	13.799	218.0	0.534218141	0.645721821	0.009831426	0.101429012	0.031261407
2020-06-16T19:50:00	0.2198	13.784	216.0	0.533929293	0.645314333	0.009821680	0.101328463	0.031230416
2020-06-16T19:55:00	0.2199	13.769	215.0	0.534320503	0.645866242	0.009834881	0.101464657	0.031272393
2020-06-16T20:00:00	0.2204	13.753	216.0	0.536071279	0.648337719	0.009894069	0.102075291	0.031460596
2020-06-16T20:05:00	0.2204	13.738	217.0	0.536122433	0.648409968	0.009895802	0.102093160	0.031466104
2020-06-16T20:10:00	0.2205	13.723	216.0	0.536513394	0.648962226	0.009909044	0.102229784	0.031508212
2020-06-16T20:15:00	0.2207	13.708	216.0	0.536904312	0.649514547	0.009922295	0.102366484	0.031550345
2020-06-16T20:20:00	0.2205	13.692	216.0	0.536275890	0.648626721	0.009900998	0.102146776	0.031482628
2020-06-16T20:25:00	0.2209	13.675	218.0	0.537686015	0.650619374	0.009948817	0.102640115	0.031634680
2020-06-16T20:30:00	0.2202	13.659	216.0	0.535358624	0.647331401	0.009869955	0.101826509	0.031383919
2020-06-16T20:35:00	0.2203	13.643	215.0	0.535749673	0.647883538	0.009883184	0.101962983	0.031425982
2020-06-16T20:40:00	0.2202	13.626	216.0	0.535460952	0.647475871	0.009873416	0.101862212	0.031394923
2020-06-16T20:45:00	0.2200	13.610	215.0	0.534832267	0.646588415	0.009852164	0.101642959	0.031327347
2020-06-16T20:50:00	0.2206	13.594	215.0	0.536582784	0.649060256	0.009911396	0.102254042	0.031515689
2020-06-16T20:55:00	0.2211	13.577	215.0	0.538332414	0.651533345	0.009970776	0.102866662	0.031704504
2020-06-16T21:00:00	0.2200	13.560	216.0	0.534645823	0.646325290	0.009845866	0.101577982	0.031307321
2020-06-16T21:05:00	0.2200	13.543	214.0	0.534696998	0.646397509	0.009847594	0.101595815	0.031312817
2020-06-16T21:10:00	0.2199	13.525	215.0	0.534408190	0.645989966	0.009837841	0.101495196	0.031281805
2020-06-16T21:15:00	0.2195	13.508	215.0	0.533099124	0.644143566	0.009793696	0.101039758	0.031141435
2020-06-16T21:20:00	0.2189	13.490	215.0	0.531108979	0.641339201	0.009726775	0.100349342	0.030928642
2020-06-16T21:25:00	0.2189	13.473	213.0	0.530819871	0.640932078	0.009717072	0.100249243	0.030897790
2020-06-16T21:30:00	0.2195	13.455	214.0	0.532912586	0.643880573	0.009787414	0.100974944	0.031121458
2020-06-16T21:35:00	0.2187	13.438	213.0	0.530241581	0.640117935	0.009697679	0.100049171	0.030836126
2020-06-16T21:40:00	0.2186	13.421	213.0	0.529952400	0.639710915	0.009687989	0.099949198	0.030805314
2020-06-16T21:45:00	0.2186	13.403	214.0	0.530003644	0.639783036	0.009689706	0.099966910	0.030810773
2020-06-16T21:50:00	0.2185	13.386	213.0	0.529714443	0.639376044	0.009680019	0.099866972	0.030779971
2020-06-16T21:55:00	0.2188	13.368	214.0	0.530446538	0.640406452	0.009704550	0.100120058	0.030857974
2020-06-16T22:00:00	0.2187	13.350	212.0	0.530157374	0.639999408	0.009694857	0.100020055	0.030827152
2020-06-16T22:05:00	0.2187	13.332	213.0	0.530398346	0.640338609	0.009702935	0.100103387	0.030852836
2020-06-16T22:10:00	0.2189	13.314	212.0	0.530979655	0.641157077	0.009722434	0.100304559	0.030914839
2020-06-16T22:15:00	0.2192	13.297	212.0	0.531901128	0.642455053	0.009753384	0.100623867	0.031013253
2020-06-16T22:20:00	0.2188	13.278	213.0	0.530440446	0.640397877	0.009704346	0.100117950	0.030857325
2020-06-16T22:25:00	0.2190	13.260	213.0	0.531362064	0.641695651	0.009735272	0.100437009	0.030955662
2020-06-16T22:30:00	0.2195	13.242	212.0	0.532963786	0.643952757	0.009789138	0.100992732	0.031126941
2020-06-16T22:35:00	0.2188	13.224	212.0	0.530482547	0.640457145	0.009705758	0.100132514	0.030861813
2020-06-16T22:40:00	0.2187	13.208	211.0	0.530383117	0.640317171	0.009702424	0.100098120	0.030851213
2020-06-16T22:45:00	0.2182	13.191	213.0	0.528581234	0.637781936	0.009642109	0.099475856	0.030659425
2020-06-16T22:50:00	0.2182	13.174	211.0	0.528481749	0.637642039	0.009638784	0.099441557	0.030648854
2020-06-16T22:55:00	0.2180	13.160	211.0	0.528041651	0.637023261	0.009624084	0.099289896	0.030602110
2020-06-16T23:00:00	0.2179	13.145	212.0	0.527601496	0.636404561	0.009609393	0.099138332	0.030555397
2020-06-16T23:05:00	0.2179	13.133	211.0	0.527501983	0.636264703	0.009606073	0.099104082	0.030544840
2020-06-16T23:10:00	0.2181	13.120	211.0	0.528083781	0.637082488	0.009625490	0.099304409	0.030606583
2020-06-16T23:15:00	0.2169	13.109	212.0	0.524235278	0.631678073	0.009497412	0.097983048	0.030199327
2020-06-16T23:20:00	0.2171	13.099	211.0	0.524817628	0.632495089	0.009516737	0.098182423	0.030260776
2020-06-16T23:25:00	0.2164	13.088	212.0	0.522330512	0.629007679	0.009434340	0.097332346	0.029998774
2020-06-16T23:30:00	0.2163	13.077	211.0	0.522230846	0.628868033	0.009431046	0.097298358	0.029988299
2020-06-16T23:35:00	0.2163	13.065	212.0	0.522131178	0.628728391	0.009427752	0.097264375	0.029977825
2020-06-16T23:40:00	0.2167	13.053	212.0	0.523396126	0.630501257	0.009469599	0.097696110	0.030110890
2020-06-16T23:45:00	0.2162	13.043	211.0	0.521590582	0.627971125	0.009409896	0.097080159	0.029921048
2020-06-16T23:50:00	0.2166	13.031	211.0	0.523196853	0.630221884	0.009463001	0.097628033	0.030089908
2020-06-16T23:55:00	0.2163	13.020	211.0	0.522073709	0.628647878	0.009425853	0.097244784	0.029971787
2020-06-17T00:00:00	0.2159	13.009	211.0	0.520608852	0.626596523	0.009377513	0.096746068	0.029818078
2020-06-17T00:05:00	0.2154	12.998	212.0	0.519143369	0.624546033	0.009329277	0.096248427	0.029664700
2020-06-17T00:10:00	0.2157	12.988	210.0	0.520068017	0.625839589	0.009359697	0.096562264	0.029761428
2020-06-17T00:15:00	0.2155	12.978	210.0	0.519285362	0.624744633	0.009333945	0.096296588	0.029679544
2020-06-17T00:20:00	0.2151	12.968	210.0	0.518160939	0.623172401	0.009297010	0.095915539	0.029562101
2020-06-17T00:25:00	0.2147	12.959	210.0	0.516694411	0.621123358	0.009248948	0.095419693	0.029409276
2020-06-17T00:30:00	0.2148	12.951	211.0	0.516936328	0.621461246	0.009256868	0.095501399	0.029434459
2020-06-17T00:35:00	0.2141	12.942	210.0	0.514443497	0.617981752	0.009175423	0.094661145	0.029175484
2020-06-17T00:40:00	0.2143	12.932	210.0	0.515369411	0.619273557	0.009205632	0.094972807	0.029271541
2020-06-17T00:45:00	0.2136	12.923	211.0	0.512875441	0.615795635	0.009124376	0.094134507	0.029013169
2020-06-17T00:50:00	0.2142	12.914	209.0	0.514827750	0.618517765	0.009187953	0.094790422	0.029215329
2020-06-17T00:55:00	0.2141	12.904	211.0	0.514727866	0.618378421	0.009184695	0.094756809	0.029204969
2020-06-17T01:00:00	0.2142	12.895	210.0	0.514969922	0.618716117	0.009192592	0.094838276	0.029230078
2020-06-17T01:05:00	0.2142	12.885	210.0	0.514870042	0.618576767	0.009189333	0.094804656	0.029219716
2020-06-17T01:10:00	0.2141	12.875	209.0	0.514428197	0.617960413	0.009174924	0.094655999	0.029173898
2020-06-17T01:15:00	0.2132	12.866	210.0	0.511591297	0.614006815	0.009082678	0.093704318	0.028880581
2020-06-17T01:20:00	0.2128	12.857	209.0	0.510121955	0.611961650	0.009035084	0.093213296	0.028729243
2020-06-17T01:25:00	0.2121	12.847	209.0	0.507624160	0.608488987	0.008954463	0.092381545	0.028472890
2020-06-17T01:30:00	0.2123	12.838	209.0	0.508551919	0.609778255	0.008984366	0.092690049	0.028567973
2020-06-17T01:35:00	0.2120	12.828	209.0	0.507423969	0.608210880	0.008948017	0.092315044	0.028452393
2020-06-17T01:40:00	0.2114	12.817	209.0	0.505267114	0.605216621	0.008878716	0.091600079	0.028232034
2020-06-17T01:45:00	0.2115	12.807	209.0	0.505509839	0.605553398	0.008886502	0.091680400	0.028256790
2020-06-17T01:50:00	0.2104	12.796	209.0	0.501979149	0.600659307	0.008773589	0.090515504	0.027897757
2020-06-17T01:55:00	0.2107	12.786	209.0	0.502908442	0.601946479	0.008803239	0.090821389	0.027992034
2020-06-17T02:00:00	0.2112	12.776	209.0	0.504523491	0.604185154	0.008854886	0.091354222	0.028156258
2020-06-17T02:05:00	0.2112	12.765	209.0	0.504766269	0.604521858	0.008862662	0.091434453	0.028180986
2020-06-17T02:10:00	0.2111	12.755	208.0	0.504323118	0.603907296	0.008848470	0.091288031	0.028135858
2020-06-17T02:15:00	0.2112	12.744	208.0	0.504565910	0.604243981	0.008856244	0.091368238	0.028160578
2020-06-17T02:20:00	0.2108	12.733	209.0	0.503436644	0.602678407	0.008820113	0.090995481	0.028045691
2020-06-17T02:25:00	0.2109	12.721	208.0	0.503679499	0.603015006	0.008827877	0.091075580	0.028070378
2020-06-17T02:30:00	0.2107	12.710	208.0	0.502893090	0.601925210	0.008802748	0.090816332	0.027990476
2020-06-17T02:35:00	0.2108	12.699	208.0	0.503135984	0.602261757	0.008810506	0.090896365	0.028015143
2020-06-17T02:40:00	0.2110	12.688	207.0	0.504064962	0.603549358	0.008840207	0.091202787	0.028109585
2020-06-17T02:45:00	0.2109	12.678	208.0	0.503621720	0.602934920	0.008826030	0.091056521	0.028064504
2020-06-17T02:50:00	0.2107	12.669	208.0	0.502835298	0.601845143	0.008800903	0.090797295	0.027984608
2020-06-17T02:55:00	0.2107	12.660	208.0	0.503078196	0.602181684	0.008808660	0.090877321	0.028009273
2020-06-17T03:00:00	0.2111	12.651	211.0	0.504350195	0.603944842	0.008849337	0.091296974	0.028138614
2020-06-17T03:05:00	0.2112	12.643	209.0	0.504592985	0.604281530	0.008857111	0.091377184	0.028163336
2020-06-17T03:10:00	0.2116	12.635	208.0	0.505864420	0.606045458	0.008897881	0.091797799	0.028292973
2020-06-17T03:15:00	0.2110	12.628	208.0	0.504049616	0.603528082	0.008839716	0.091197721	0.028108023
2020-06-17T03:20:00	0.2113	12.621	207.0	0.504978346	0.604816023	0.008869458	0.091504567	0.028202596
2020-06-17T03:25:00	0.2116	12.615	207.0	0.505906823	0.606104308	0.008899242	0.091811843	0.028297302
2020-06-17T03:30:00	0.2123	12.609	207.0	0.508548311	0.609773239	0.008984250	0.092688848	0.028567603
2020-06-17T03:35:00	0.2127	12.602	206.0	0.509818276	0.611539179	0.009025263	0.093111973	0.028698015
2020-06-17T03:40:00	0.2126	12.598	207.0	0.509375779	0.610923721	0.009010962	0.092964434	0.028652541
2020-06-17T03:45:00	0.2125	12.594	207.0	0.508933225	0.610308341	0.008996671	0.092816992	0.028607098
2020-06-17T03:50:00	0.2126	12.590	207.0	0.509518177	0.611121762	0.009015563	0.093011900	0.028667171
2020-06-17T03:55:00	0.2128	12.586	207.0	0.510103029	0.611935319	0.009034472	0.093206979	0.028727296
2020-06-17T04:00:00	0.2129	12.583	207.0	0.510345412	0.612272565	0.009042314	0.093287887	0.028752233
2020-06-17T04:05:00	0.2131	12.580	208.0	0.511072456	0.613284446	0.009065858	0.093530785	0.028827096
2020-06-17T04:10:00	0.2143	12.577	206.0	0.515220054	0.619065131	0.009200756	0.094922498	0.029256036
2020-06-17T04:15:00	0.2148	12.572	207.0	0.516971395	0.621510228	0.009258016	0.095513245	0.029438110
2020-06-17T04:20:00	0.2150	12.569	206.0	0.517697035	0.622524043	0.009281793	0.095758550	0.029513715
2020-06-17T04:25:00	0.2152	12.565	206.0	0.518422522	0.623538070	0.009305596	0.096004118	0.029589401
2020-06-17T04:30:00	0.2157	12.562	206.0	0.520172231	0.625985425	0.009363128	0.096597668	0.029772339
2020-06-17T04:35:00	0.2153	12.559	206.0	0.518507017	0.623656198	0.009308370	0.096032738	0.029598223
2020-06-17T04:40:00	0.2160	12.556	206.0	0.520939412	0.627059281	0.009388410	0.096858496	0.029852729
2020-06-17T04:45:00	0.2167	12.554	206.0	0.523370087	0.630464750	0.009468737	0.097687213	0.030108148
2020-06-17T04:50:00	0.2174	12.551	206.0	0.525799046	0.633872606	0.009549350	0.098518886	0.030364477
2020-06-17T04:55:00	0.2176	12.548	206.0	0.526522826	0.634889003	0.009573438	0.098767392	0.030441069
2020-06-17T05:00:00	0.2177	12.546	208.0	0.526905731	0.635426885	0.009586193	0.098898988	0.030481628
2020-06-17T05:05:00	0.2180	12.546	206.0	0.527969929	0.636922435	0.009621689	0.099265191	0.030594496
2020-06-17T05:10:00	0.2174	12.546	206.0	0.525967671	0.634109367	0.009554959	0.098576754	0.030382313
2020-06-17T05:15:00	0.2170	12.546	206.0	0.524646243	0.632254613	0.009511048	0.098123726	0.030242685
2020-06-17T05:20:00	0.2174	12.545	206.0	0.525711140	0.633749189	0.009546427	0.098488725	0.030355182
2020-06-17T05:25:00	0.2169	12.545	206.0	0.524048607	0.631416239	0.009491221	0.097919181	0.030179643
2020-06-17T05:30:00	0.2171	12.545	206.0	0.524772755	0.632432124	0.009515247	0.098167053	0.030256039
2020-06-17T05:35:00	0.2171	12.545	208.0	0.524814925	0.632491296	0.009516647	0.098181497	0.030260491
2020-06-17T05:40:00	0.2179	12.547	208.0	0.527583554	0.636379344	0.009608794	0.099132156	0.030553493
2020-06-17T05:45:00	0.2177	12.549	208.0	0.526944285	0.635481051	0.009587478	0.098912243	0.030485714
2020-06-17T05:50:00	0.2186	12.552	209.0	0.530051649	0.639850600	0.009691314	0.099983504	0.030815887
2020-06-17T05:55:00	0.2191	12.555	208.0	0.531795457	0.642306171	0.009749832	0.100587224	0.031001959
2020-06-17T06:00:00	0.2194	12.560	207.0	0.532517979	0.643324326	0.009774130	0.100837902	0.031079221
2020-06-17T06:05:00	0.2201	12.565	206.0	0.534940502	0.646741177	0.009855821	0.101680689	0.031338976
2020-06-17T06:10:00	0.2202	12.570	208.0	0.535322474	0.647280365	0.009868733	0.101813898	0.031380032
2020-06-17T06:15:00	0.2196	12.571	208.0	0.533324482	0.644461327	0.009801289	0.101118089	0.031165577
2020-06-17T06:20:00	0.2199	12.574	207.0	0.534386701	0.645959646	0.009837116	0.101487712	0.031279498
2020-06-17T06:25:00	0.2198	12.579	207.0	0.534088740	0.645539262	0.009827059	0.101383961	0.031247521
2020-06-17T06:30:00	0.2201	12.585	208.0	0.535150725	0.647037911	0.009862926	0.101753991	0.031361568
2020-06-17T06:35:00	0.2199	12.589	209.0	0.534512857	0.646137656	0.009841375	0.101531656	0.031293042
2020-06-17T06:40:00	0.2196	12.598	211.0	0.533194700	0.644278327	0.009796916	0.101072975	0.031151673
2020-06-17T06:45:00	0.2197	12.608	211.0	0.533576865	0.644817245	0.009809795	0.101205850	0.031192626
2020-06-17T06:50:00	0.2197	12.618	210.0	0.533618927	0.644876567	0.009811213	0.101220480	0.031197135
2020-06-17T06:55:00	0.2200	12.631	210.0	0.534681056	0.646375012	0.009847056	0.101590259	0.031311105
2020-06-17T07:00:00	0.2201	12.644	207.0	0.535063057	0.646914161	0.009859963	0.101723419	0.031352146
2020-06-17T07:05:00	0.2201	12.654	207.0	0.535105101	0.646973508	0.009861384	0.101738080	0.031356664
2020-06-17T07:10:00	0.2206	12.691	206.0	0.536846359	0.649432657	0.009920330	0.102346213	0.031544097
2020-06-17T07:15:00	0.2203	12.721	207.0	0.535868965	0.648051996	0.009887221	0.102004634	0.031438819
2020-06-17T07:20:00	0.2203	12.746	207.0	0.535571131	0.647631432	0.009877143	0.101900662	0.031406774
2020-06-17T07:25:00	0.2201	12.765	207.0	0.534933341	0.646731068	0.009855579	0.101678192	0.031338206
2020-06-17T07:30:00	0.2194	12.794	207.0	0.532594962	0.643432834	0.009776721	0.100864630	0.031087459
2020-06-17T07:35:00	0.2193	12.831	207.0	0.532296846	0.643012667	0.009766691	0.100761147	0.031055564
2020-06-17T07:40:00	0.2193	12.814	207.0	0.532338924	0.643071967	0.009768106	0.100775750	0.031060065
2020-06-17T07:45:00	0.2192	12.836	208.0	0.532040785	0.642651831	0.009758079	0.100672305	0.031028182
2020-06-17T07:50:00	0.2190	12.843	208.0	0.531402342	0.641752383	0.009736625	0.100450965	0.030959963
2020-06-17T07:55:00	0.2196	12.859	208.0	0.533485575	0.644688499	0.009806718	0.101174101	0.031182841
2020-06-17T08:00:00	0.2198	12.873	208.0	0.533867707	0.645227461	0.009819603	0.101307031	0.031223811
2020-06-17T08:05:00	0.2192	12.898	209.0	0.531868873	0.642409606	0.009752300	0.100612681	0.031009805
2020-06-17T08:10:00	0.2189	12.942	208.0	0.530890069	0.641030924	0.009719428	0.100273543	0.030905280
2020-06-17T08:15:00	0.2187	12.978	209.0	0.530251413	0.640131775	0.009698009	0.100052571	0.030837174
2020-06-17T08:20:00	0.2187	13.018	209.0	0.530293515	0.640191040	0.009699420	0.100067131	0.030841662
2020-06-17T08:25:00	0.2191	13.034	210.0	0.531696952	0.642167392	0.009746522	0.100553072	0.030991433
2020-06-17T08:30:00	0.2191	13.047	211.0	0.531739037	0.642226682	0.009747936	0.100567662	0.030995930
2020-06-17T08:35:00	0.2193	13.073	212.0	0.532461570	0.643244821	0.009772232	0.100818320	0.031073185
2020-06-17T08:40:00	0.2193	13.101	212.0	0.532163442	0.642824671	0.009762204	0.100714857	0.031041297
2020-06-17T08:45:00	0.2194	13.124	209.0	0.532545721	0.643363428	0.009775064	0.100847534	0.031082189
2020-06-17T08:50:00	0.2193	13.133	209.0	0.532247600	0.642943267	0.009765034	0.100744058	0.031050297
2020-06-17T08:55:00	0.2191	13.151	209.0	0.531609196	0.642043765	0.009743573	0.100522651	0.030982057
2020-06-17T09:00:00	0.2188	13.197	210.0	0.530630318	0.640665187	0.009710713	0.100183641	0.030877571
2020-06-17T09:05:00	0.2192	13.242	210.0	0.532033617	0.642641731	0.009757838	0.100669819	0.031027416
2020-06-17T09:10:00	0.2188	13.306	211.0	0.530714514	0.640783731	0.009713538	0.100212777	0.030886551
2020-06-17T09:15:00	0.2189	13.327	211.0	0.531096953	0.641322264	0.009726371	0.100345177	0.030927358
2020-06-17T09:20:00	0.2184	13.400	210.0	0.529096512	0.638506658	0.009659337	0.099653604	0.030714208
2020-06-17T09:25:00	0.2186	13.439	213.0	0.529819599	0.639524022	0.009683541	0.099903305	0.030791169
2020-06-17T09:30:00	0.2180	13.523	213.0	0.527818417	0.636709454	0.009616631	0.099213013	0.030578414
2020-06-17T09:35:00	0.2178	13.571	213.0	0.527179191	0.635811100	0.009595308	0.098993024	0.030510611
2020-06-17T09:40:00	0.2174	13.627	213.0	0.525858228	0.633955698	0.009551319	0.098539194	0.030370737
2020-06-17T09:45:00	0.2173	13.689	212.0	0.525559528	0.633536347	0.009541386	0.098436718	0.030339152
2020-06-17T09:50:00	0.2170	13.718	212.0	0.524578930	0.632160171	0.009508814	0.098100677	0.030235581
2020-06-17T09:55:00	0.2172	13.762	212.0	0.525302966	0.633176211	0.009532858	0.098348741	0.030312037
2020-06-17T10:00:00	0.2172	13.786	213.0	0.525004219	0.632756927	0.009522933	0.098246348	0.030280479
2020-06-17T10:05:00	0.2181	13.806	213.0	0.528062060	0.637051952	0.009624765	0.099296927	0.030604277
2020-06-17T10:10:00	0.2179	13.817	215.0	0.527712273	0.636560259	0.009613089	0.099176466	0.030567150
2020-06-17T10:15:00	0.2179	13.822	213.0	0.527703129	0.636547406	0.009612784	0.099173318	0.030566180
2020-06-17T10:20:00	0.2181	13.814	213.0	0.528375240	0.637492273	0.009635225	0.099404843	0.030637538
2020-06-17T10:25:00	0.2178	13.815	213.0	0.527344160	0.636042912	0.009600809	0.099049774	0.030528102
2020-06-17T10:30:00	0.2170	13.851	213.0	0.524608358	0.632201459	0.009509790	0.098110753	0.030238687
2020-06-17T10:35:00	0.2170	13.870	213.0	0.524599205	0.632188617	0.009509486	0.098107619	0.030237721
2020-06-17T10:40:00	0.2176	13.866	214.0	0.526635259	0.635046930	0.009577182	0.098806023	0.030452976
2020-06-17T10:45:00	0.2180	13.866	213.0	0.527988911	0.636949119	0.009622323	0.099271729	0.030596511
2020-06-17T10:50:00	0.2180	13.880	214.0	0.527979767	0.636936265	0.009622017	0.099268580	0.030595540
2020-06-17T10:55:00	0.2178	13.908	214.0	0.527289287	0.635965803	0.009598979	0.099030896	0.030522284
2020-06-17T11:00:00	0.2170	13.959	216.0	0.524553441	0.632124410	0.009507968	0.098091950	0.030232892
2020-06-17T11:05:00	0.2173	13.962	213.0	0.525567057	0.633546915	0.009541636	0.098439300	0.030339948
2020-06-17T11:10:00	0.2170	14.011	213.0	0.524535136	0.632098728	0.009507360	0.098085682	0.030230960
2020-06-17T11:15:00	0.2172	14.057	213.0	0.525207866	0.633042732	0.009529698	0.098316140	0.030301989
2020-06-17T11:20:00	0.2171	14.071	213.0	0.524857789	0.632551443	0.009518071	0.098196180	0.030265016
2020-06-17T11:25:00	0.2170	14.107	213.0	0.524507677	0.632060204	0.009506449	0.098076282	0.030228062
2020-06-17T11:30:00	0.2168	14.140	214.0	0.523816500	0.631090713	0.009483527	0.097839799	0.030155176
2020-06-17T11:35:00	0.2167	14.172	216.0	0.523466282	0.630599621	0.009471923	0.097720083	0.030118279
2020-06-17T11:40:00	0.2165	14.211	214.0	0.522774896	0.629630421	0.009449036	0.097483960	0.030045503
2020-06-17T11:45:00	0.2166	14.237	216.0	0.523106871	0.630095743	0.009460022	0.097597301	0.030080436
2020-06-17T11:50:00	0.2165	14.245	214.0	0.522756581	0.629604752	0.009448430	0.097477709	0.030043577
2020-06-17T11:55:00	0.2165	14.235	214.0	0.522747423	0.629591917	0.009448127	0.097474584	0.030042613
2020-06-17T12:00:00	0.2171	14.216	214.0	0.524784572	0.632448705	0.009515640	0.098171100	0.030257287
2020-06-17T12:05:00	0.2174	14.204	214.0	0.525798120	0.633871305	0.009549319	0.098518568	0.030364379
2020-06-17T12:10:00	0.2172	14.200	215.0	0.525107202	0.632901453	0.009526354	0.098281638	0.030291355
2020-06-17T12:15:00	0.2168	14.193	215.0	0.523734106	0.630975167	0.009480796	0.097811627	0.030146493
2020-06-17T12:20:00	0.2165	14.193	214.0	0.522701635	0.629527744	0.009446612	0.097458957	0.030037797
2020-06-17T12:25:00	0.2164	14.199	215.0	0.522351303	0.629036810	0.009435027	0.097339436	0.030000960
2020-06-17T12:30:00	0.2165	14.210	214.0	0.522683319	0.629502076	0.009446006	0.097452707	0.030035871
2020-06-17T12:35:00	0.2165	14.228	215.0	0.522674161	0.629489241	0.009445703	0.097449581	0.030034907
2020-06-17T12:40:00	0.2156	14.245	214.0	0.519593193	0.625175238	0.009344069	0.096401039	0.029711737
2020-06-17T12:45:00	0.2152	14.263	215.0	0.518217892	0.623252012	0.009298879	0.095934821	0.029568044
2020-06-17T12:50:00	0.2153	14.281	216.0	0.518550308	0.623716723	0.009309792	0.096047404	0.029602743
2020-06-17T12:55:00	0.2154	14.298	215.0	0.518882692	0.624181479	0.009320710	0.096160042	0.029637459
2020-06-17T13:00:00	0.2151	14.308	215.0	0.517848762	0.622736079	0.009286769	0.095809881	0.029529536
2020-06-17T13:05:00	0.2147	14.316	217.0	0.516472762	0.620813820	0.009241695	0.095344864	0.029386213
2020-06-17T13:10:00	0.2142	14.321	216.0	0.514754280	0.618415269	0.009185557	0.094765697	0.029207708
2020-06-17T13:15:00	0.2136	14.333	216.0	0.512692802	0.615541136	0.009118440	0.094073263	0.028994293
2020-06-17T13:20:00	0.2134	14.340	216.0	0.512341447	0.615051617	0.009107025	0.093955499	0.028957997
2020-06-17T13:25:00	0.2135	14.347	217.0	0.512674433	0.615515542	0.009117843	0.094067104	0.028992395
2020-06-17T13:30:00	0.2129	14.358	216.0	0.510611702	0.612643132	0.009050934	0.093376815	0.028779641
2020-06-17T13:35:00	0.2129	14.363	217.0	0.510602512	0.612630342	0.009050636	0.093373745	0.028778695
2020-06-17T13:40:00	0.2124	14.366	218.0	0.508881084	0.610235847	0.008994987	0.092799628	0.028601746
2020-06-17T13:45:00	0.2123	14.376	217.0	0.508529337	0.609746865	0.008983638	0.092682534	0.028565657
2020-06-17T13:50:00	0.2124	14.384	217.0	0.508862694	0.610210281	0.008994394	0.092793504	0.028599859
2020-06-17T13:55:00	0.2121	14.393	217.0	0.507825736	0.608769050	0.008960956	0.092448531	0.028493535
2020-06-17T14:00:00	0.2117	14.401	217.0	0.506445704	0.606852337	0.008916552	0.091990420	0.028352341
2020-06-17T14:05:00	0.2117	14.415	217.0	0.506436503	0.606839563	0.008916256	0.091987369	0.028351401
2020-06-17T14:10:00	0.2113	14.429	217.0	0.505055910	0.604923618	0.008871945	0.091530217	0.028210502
2020-06-17T14:15:00	0.2114	14.432	219.0	0.505389605	0.605386570	0.008882645	0.091640608	0.028244526
2020-06-17T14:20:00	0.2114	14.433	217.0	0.505380401	0.605373799	0.008882350	0.091637563	0.028243587
2020-06-17T14:25:00	0.2111	14.437	216.0	0.504342387	0.603934014	0.008849087	0.091294395	0.028137819
2020-06-17T14:30:00	0.2107	14.438	216.0	0.502960947	0.602019226	0.008804915	0.090838687	0.027997366
2020-06-17T14:35:00	0.2101	14.435	216.0	0.500892347	0.599154849	0.008738978	0.090158426	0.027787703
2020-06-17T14:40:00	0.2103	14.430	216.0	0.501569734	0.600092443	0.008760543	0.090380905	0.027856273
2020-06-17T14:45:00	0.2096	14.430	216.0	0.499156797	0.596754301	0.008683848	0.089589655	0.027612402
2020-06-17T14:50:00	0.2093	14.435	217.0	0.498116888	0.595317097	0.008650898	0.089249716	0.027507629
2020-06-17T14:55:00	0.2093	14.445	217.0	0.498107664	0.595304353	0.008650606	0.089246704	0.027506701
2020-06-17T15:00:00	0.2094	14.450	216.0	0.498442040	0.595766379	0.008661194	0.089355937	0.027540368
2020-06-17T15:05:00	0.2085	14.451	217.0	0.495339168	0.591482415	0.008563190	0.088344855	0.027228742
2020-06-17T15:10:00	0.2082	14.459	218.0	0.494298093	0.590046792	0.008530433	0.088006900	0.027124581
2020-06-17T15:15:00	0.2089	14.476	217.0	0.496696015	0.593354787	0.008605978	0.088786284	0.027364795
2020-06-17T15:20:00	0.2088	14.490	217.0	0.496343011	0.592867519	0.008594836	0.088671334	0.027329366
2020-06-17T15:25:00	0.2078	14.495	217.0	0.492894101	0.588112090	0.008486354	0.087552154	0.026984424
2020-06-17T15:30:00	0.2074	14.500	217.0	0.491508013	0.586203610	0.008442950	0.087104355	0.026846408
2020-06-17T15:35:00	0.2070	14.500	218.0	0.490121360	0.584295893	0.008399638	0.086657515	0.026708688
2020-06-17T15:40:00	0.2064	14.507	218.0	0.488044945	0.581442100	0.008334988	0.085990538	0.026503119
2020-06-17T15:45:00	0.2062	14.518	217.0	0.487346355	0.580482745	0.008313293	0.085766715	0.026434134
2020-06-17T15:50:00	0.2060	14.526	217.0	0.486647622	0.579523584	0.008291622	0.085543135	0.026365225
2020-06-17T15:55:00	0.2053	14.532	217.0	0.484224078	0.576199773	0.008216673	0.084769896	0.026126905
2020-06-17T16:00:00	0.2051	14.535	217.0	0.483524701	0.575241474	0.008195107	0.084547404	0.026058331
2020-06-17T16:05:00	0.2051	14.530	218.0	0.483772069	0.575580378	0.008202731	0.084626066	0.026082575
2020-06-17T16:10:00	0.2045	14.522	217.0	0.481603264	0.572610695	0.008136002	0.083937632	0.025870393
2020-06-17T16:15:00	0.2042	14.515	217.0	0.480469439	0.571059676	0.008101224	0.083578836	0.025759809
2020-06-17T16:20:00	0.2038	14.511	218.0	0.479335235	0.569509163	0.008066508	0.083220681	0.025649422
2020-06-17T16:25:00	0.2029	14.508	219.0	0.476126204	0.565127818	0.007968686	0.082211465	0.025338372
2020-06-17T16:30:00	0.2026	14.501	218.0	0.474990543	0.563579246	0.007934208	0.081855766	0.025228742
2020-06-17T16:35:00	0.2019	14.494	217.0	0.472469899	0.560145796	0.007857948	0.081069001	0.024986254
2020-06-17T16:40:00	0.2018	14.490	217.0	0.472371862	0.560012359	0.007854989	0.081038477	0.024976846
2020-06-17T16:45:00	0.2024	14.482	217.0	0.474350633	0.562707125	0.007914814	0.081655677	0.025167073
2020-06-17T16:50:00	0.2016	14.479	218.0	0.471483207	0.558803166	0.007828195	0.080762048	0.024891648
2020-06-17T16:55:00	0.2011	14.467	218.0	0.469653035	0.556314831	0.007773156	0.080194215	0.024716636
2020-06-17T17:00:00	0.2011	14.459	217.0	0.469901419	0.556652383	0.007780614	0.080271163	0.024740352
2020-06-17T17:05:00	0.2012	14.449	217.0	0.470149784	0.556989958	0.007788076	0.080348142	0.024764078
2020-06-17T17:10:00	0.2015	14.448	217.0	0.471090928	0.558269593	0.007816382	0.080640172	0.024854084
2020-06-17T17:15:00	0.2020	14.443	217.0	0.473070449	0.560963365	0.007876084	0.081256110	0.025043922
2020-06-17T17:20:00	0.2021	14.438	217.0	0.473318582	0.561301249	0.007883584	0.081333480	0.025067769
2020-06-17T17:25:00	0.2019	14.435	217.0	0.472528210	0.560225166	0.007859708	0.081087159	0.024991850
2020-06-17T17:30:00	0.2020	14.427	216.0	0.472776383	0.560562997	0.007867201	0.081164463	0.025015676
2020-06-17T17:35:00	0.2024	14.416	216.0	0.474408911	0.562786538	0.007916579	0.081673889	0.025172686
2020-06-17T17:40:00	0.2026	14.404	216.0	0.475002925	0.563596125	0.007934584	0.081859641	0.025229936
2020-06-17T17:45:00	0.2025	14.388	219.0	0.474558973	0.562991031	0.007921126	0.081720795	0.025187143
2020-06-17T17:50:00	0.2033	14.373	216.0	0.477573720	0.567103121	0.008012738	0.082665944	0.025478447
2020-06-17T17:55:00	0.2042	14.360	216.0	0.480585784	0.571218783	0.008104789	0.083615618	0.025771146
2020-06-17T18:00:00	0.2044	14.347	216.0	0.481178715	0.572029813	0.008122971	0.083803196	0.025828959
2020-06-17T18:05:00	0.2052	14.333	216.0	0.483842536	0.575676929	0.008204904	0.084648481	0.026089484
2020-06-17T18:10:00	0.2050	14.321	216.0	0.483399740	0.575070292	0.008191256	0.084507681	0.026046088
2020-06-17T18:15:00	0.2046	14.309	216.0	0.481921278	0.573045908	0.008145770	0.084038404	0.025901452
2020-06-17T18:20:00	0.2041	14.296	216.0	0.480096747	0.570550075	0.008089809	0.083461065	0.025723511
2020-06-17T18:25:00	0.2040	14.283	215.0	0.479998931	0.570416344	0.008086814	0.083430168	0.025713988
2020-06-17T18:30:00	0.2040	14.271	217.0	0.479901113	0.570282618	0.008083820	0.083399277	0.025704467
2020-06-17T18:35:00	0.2042	14.260	216.0	0.480494164	0.571093487	0.008101982	0.083586652	0.025762218
2020-06-17T18:40:00	0.2040	14.248	217.0	0.479705467	0.570015176	0.008077832	0.083337508	0.025685429
2020-06-17T18:45:00	0.2042	14.235	216.0	0.480643955	0.571298339	0.008106572	0.083634012	0.025776815
2020-06-17T18:50:00	0.2045	14.224	216.0	0.481582184	0.572581850	0.008135355	0.083930955	0.025868335
2020-06-17T18:55:00	0.2050	14.211	215.0	0.483210473	0.574811039	0.008185426	0.084447534	0.026027550
2020-06-17T19:00:00	0.2052	14.198	216.0	0.484147991	0.576095499	0.008214325	0.084745676	0.026119441
2020-06-17T19:05:00	0.2055	14.185	216.0	0.485085251	0.577380306	0.008243266	0.085044257	0.026211466
2020-06-17T19:10:00	0.2056	14.174	215.0	0.485332505	0.577719362	0.008250909	0.085123111	0.026235770
2020-06-17T19:15:00	0.2061	14.162	216.0	0.486958995	0.579950962	0.008301276	0.085642732	0.026395922
2020-06-17T19:20:00	0.2062	14.151	215.0	0.487550813	0.580763482	0.008319640	0.085832192	0.026454315
2020-06-17T19:25:00	0.2068	14.139	216.0	0.489520742	0.583470058	0.008380912	0.086464324	0.026649145
2020-06-17T19:30:00	0.2068	14.128	215.0	0.489423198	0.583335964	0.008377873	0.086432969	0.026639480
2020-06-17T19:35:00	0.2068	14.116	215.0	0.489670136	0.583675444	0.008385568	0.086512357	0.026663949
2020-06-17T19:40:00	0.2064	14.104	215.0	0.488194403	0.581647398	0.008339633	0.086038461	0.026517889
2020-06-17T19:45:00	0.2071	14.092	215.0	0.490508360	0.584828161	0.008411715	0.086782109	0.026747089
2020-06-17T19:50:00	0.2070	14.082	215.0	0.490066433	0.584220358	0.008397924	0.086639839	0.026703240
2020-06-17T19:55:00	0.2074	14.072	214.0	0.491690658	0.586455003	0.008448663	0.087163296	0.026864574
2020-06-17T20:00:00	0.2073	14.064	215.0	0.491248885	0.585846992	0.008434847	0.087020766	0.026820645
2020-06-17T20:05:00	0.2080	14.053	215.0	0.493560765	0.589030556	0.008507270	0.087767937	0.027050930
2020-06-17T20:10:00	0.2080	14.041	215.0	0.493807403	0.589370441	0.008515014	0.087847834	0.027075556
2020-06-17T20:15:00	0.2079	14.031	215.0	0.493365904	0.588762059	0.008501154	0.087704838	0.027031483
2020-06-17T20:20:00	0.2074	14.023	218.0	0.491547514	0.586257978	0.008444185	0.087117101	0.026850337
2020-06-17T20:25:00	0.2079	14.013	216.0	0.493171033	0.588493577	0.008495040	0.087641758	0.027012041
2020-06-17T20:30:00	0.2080	14.003	217.0	0.493761771	0.589307553	0.008513581	0.087833049	0.027070999
2020-06-17T20:35:00	0.2083	13.992	217.0	0.494696384	0.590595924	0.008542957	0.088136117	0.027164407
2020-06-17T20:40:00	0.2075	13.982	214.0	0.491846117	0.586668998	0.008453527	0.087213480	0.026880042
2020-06-17T20:45:00	0.2072	13.971	214.0	0.491060054	0.585587153	0.008428946	0.086959878	0.026801879
2020-06-17T20:50:00	0.2070	13.959	214.0	0.490273809	0.584505553	0.008404394	0.086706585	0.026723812
2020-06-17T20:55:00	0.2071	13.946	214.0	0.490520686	0.584845116	0.008412099	0.086786078	0.026748312
2020-06-17T21:00:00	0.2070	13.935	214.0	0.490078760	0.584237310	0.008398309	0.086643806	0.026704462
2020-06-17T21:05:00	0.2069	13.927	214.0	0.489981232	0.584103194	0.008395267	0.086612423	0.026694790
2020-06-17T21:10:00	0.2068	13.917	217.0	0.489539236	0.583495483	0.008381488	0.086470270	0.026650977
2020-06-17T21:15:00	0.2067	13.906	218.0	0.489097183	0.582887849	0.008367719	0.086328214	0.026607194
2020-06-17T21:20:00	0.2070	13.895	216.0	0.490377493	0.584648157	0.008407630	0.086739966	0.026734100
2020-06-17T21:25:00	0.2070	13.885	218.0	0.490279973	0.584514029	0.008404586	0.086708569	0.026724423
2020-06-17T21:30:00	0.2064	13.878	215.0	0.488115323	0.581538770	0.008337175	0.086013102	0.026510074
2020-06-17T21:35:00	0.2066	13.871	227.0	0.488706940	0.582351561	0.008355573	0.086202903	0.026568572
2020-06-17T21:40:00	0.2061	13.863	224.0	0.487230788	0.580324078	0.008309707	0.085729716	0.026422731
2020-06-17T21:45:00	0.2055	13.855	213.0	0.485064194	0.577351432	0.008242615	0.085037543	0.026209397
2020-06-17T21:50:00	0.2054	13.846	229.0	0.484621558	0.576744582	0.008228942	0.084896474	0.026165918
2020-06-17T21:55:00	0.2050	13.838	235.0	0.483143628	0.574719485	0.008183368	0.084426296	0.026021004
2020-06-17T22:00:00	0.2049	13.830	218.0	0.483045900	0.574585637	0.008180359	0.084395251	0.026011436
2020-06-17T22:05:00	0.2050	13.822	224.0	0.483439883	0.575125281	0.008192493	0.084520441	0.026050021
2020-06-17T22:10:00	0.2051	13.814	216.0	0.483488742	0.575192213	0.008193999	0.084535973	0.026054808
2020-06-17T22:15:00	0.2048	13.806	235.0	0.482502168	0.573841083	0.008163626	0.084222629	0.025958232
2020-06-17T22:20:00	0.2046	13.799	213.0	0.481860587	0.572962844	0.008143905	0.084019168	0.025895523
2020-06-17T22:25:00	0.2047	13.793	213.0	0.482254708	0.573502304	0.008156017	0.084144125	0.025934036
2020-06-17T22:30:00	0.2047	13.785	213.0	0.482303584	0.573569212	0.008157520	0.084159627	0.025938814
2020-06-17T22:35:00	0.2054	13.778	220.0	0.484768080	0.576945446	0.008233467	0.084943159	0.026180306
2020-06-17T22:40:00	0.2057	13.770	214.0	0.485851645	0.578431410	0.008266969	0.085288792	0.026286834
2020-06-17T22:45:00	0.2058	13.763	218.0	0.485900469	0.578498388	0.008268480	0.085304383	0.026291639
2020-06-17T22:50:00	0.2057	13.755	213.0	0.485604429	0.578092303	0.008259319	0.085209874	0.026262511
2020-06-17T22:55:00	0.2059	13.749	214.0	0.486342938	0.579105462	0.008282181	0.085445734	0.026335205
2020-06-17T23:00:00	0.2056	13.743	214.0	0.485357195	0.577753221	0.008251673	0.085130987	0.026238197
2020-06-17T23:05:00	0.2053	13.735	226.0	0.484371165	0.576401364	0.008221212	0.084816725	0.026141338
2020-06-17T23:10:00	0.2052	13.727	215.0	0.484074991	0.575995459	0.008212073	0.084722443	0.026112280
2020-06-17T23:15:00	0.2047	13.720	219.0	0.482398244	0.573698803	0.008160430	0.084189656	0.025948070
2020-06-17T23:20:00	0.2041	13.712	218.0	0.480375272	0.570930906	0.008098339	0.083549071	0.025750635
2020-06-17T23:25:00	0.2044	13.704	215.0	0.481114921	0.571942539	0.008121014	0.083783004	0.025822736
2020-06-17T23:30:00	0.2044	13.695	212.0	0.481163813	0.572009426	0.008122514	0.083798479	0.025827505
2020-06-17T23:35:00	0.2039	13.688	215.0	0.479485625	0.569714696	0.008071107	0.083268127	0.025664045
2020-06-17T23:40:00	0.2041	13.680	213.0	0.480225469	0.570726070	0.008093750	0.083501732	0.025736045
2020-06-17T23:45:00	0.2042	13.672	216.0	0.480619779	0.571265276	0.008105831	0.083626367	0.025774459
2020-06-17T23:50:00	0.2039	13.665	213.0	0.479632370	0.569915263	0.008075596	0.083314436	0.025678318
2020-06-17T23:55:00	0.2038	13.657	213.0	0.479335782	0.569509912	0.008066525	0.083220854	0.025649475
2020-06-18T00:00:00	0.2040	13.649	215.0	0.479730197	0.570048980	0.008078589	0.083345314	0.025687835
2020-06-18T00:05:00	0.2038	13.642	213.0	0.479088091	0.569171442	0.008058954	0.083142739	0.025625400
2020-06-18T00:10:00	0.2035	13.634	214.0	0.478100235	0.567822025	0.008028792	0.082831562	0.025529492
2020-06-18T00:15:00	0.2038	13.627	214.0	0.479185933	0.569305137	0.008061944	0.083173591	0.025634909
2020-06-18T00:20:00	0.2034	13.619	220.0	0.477852453	0.567483676	0.008021235	0.082753600	0.025505463
2020-06-18T00:25:00	0.2033	13.611	215.0	0.477555709	0.567078532	0.008012189	0.082660281	0.025476702
2020-06-18T00:30:00	0.2033	13.603	212.0	0.477604652	0.567145350	0.008013681	0.082675669	0.025481444
2020-06-18T00:35:00	0.2025	13.596	215.0	0.474540945	0.562966464	0.007920580	0.081715159	0.025185406
2020-06-18T00:40:00	0.2019	13.590	212.0	0.472513270	0.560204829	0.007859257	0.081082507	0.024990416
2020-06-18T00:45:00	0.2017	13.584	215.0	0.471869792	0.559329115	0.007839846	0.080882243	0.024928693
2020-06-18T00:50:00	0.2016	13.577	218.0	0.471572522	0.558924669	0.007830886	0.080789810	0.024900204
2020-06-18T00:55:00	0.2011	13.571	215.0	0.469889567	0.556636275	0.007780258	0.080267491	0.024739220
2020-06-18T01:00:00	0.2005	13.563	214.0	0.467859096	0.553878341	0.007719392	0.079639541	0.024545680
2020-06-18T01:05:00	0.2000	13.557	215.0	0.466174287	0.551592395	0.007669066	0.079120336	0.024385656
2020-06-18T01:10:00	0.2000	13.549	214.0	0.465876515	0.551188613	0.007660188	0.079028747	0.024357427
2020-06-18T01:15:00	0.1995	13.542	215.0	0.464190715	0.548903973	0.007610023	0.078511207	0.024197916
2020-06-18T01:20:00	0.1991	13.536	212.0	0.462851299	0.547090367	0.007570282	0.078101200	0.024071548
2020-06-18T01:25:00	0.1990	13.530	212.0	0.462553233	0.546686971	0.007561452	0.078010103	0.024043471
2020-06-18T01:30:00	0.1982	13.523	212.0	0.459823362	0.542995693	0.007480817	0.077178213	0.023787075
2020-06-18T01:35:00	0.1984	13.517	215.0	0.460567527	0.544001353	0.007502756	0.077404552	0.023856835
2020-06-18T01:40:00	0.1982	13.511	215.0	0.459921765	0.543128648	0.007483717	0.077208124	0.023796294
2020-06-18T01:45:00	0.1979	13.505	212.0	0.458580648	0.541317272	0.007444251	0.076800965	0.023670803
2020-06-18T01:50:00	0.1983	13.499	214.0	0.460020164	0.543261607	0.007486616	0.077238039	0.023805514
2020-06-18T01:55:00	0.1987	13.491	230.0	0.461459064	0.545206749	0.007529081	0.077676144	0.023940542
2020-06-18T02:00:00	0.1988	13.483	214.0	0.461855573	0.545743047	0.007540804	0.077797083	0.023977817
2020-06-18T02:05:00	0.1992	13.476	213.0	0.463293689	0.547689217	0.007583396	0.078236502	0.024113250
2020-06-18T02:10:00	0.1994	13.471	214.0	0.464037087	0.548695883	0.007605460	0.078464126	0.024183406
2020-06-18T02:15:00	0.1994	13.465	213.0	0.464086227	0.548762441	0.007606919	0.078479184	0.024188047
2020-06-18T02:20:00	0.1992	13.458	212.0	0.463093972	0.547418847	0.007577474	0.078175405	0.024094419
2020-06-18T02:25:00	0.1997	13.452	222.0	0.464878578	0.549835910	0.007630472	0.078722178	0.024262940
2020-06-18T02:30:00	0.2001	13.448	212.0	0.466315404	0.551783776	0.007673275	0.079163760	0.024399040
2020-06-18T02:35:00	0.2004	13.442	212.0	0.467404895	0.553261860	0.007705808	0.079499406	0.024502489
2020-06-18T02:40:00	0.2006	13.438	211.0	0.468147387	0.554269720	0.007728019	0.079728550	0.024573114
2020-06-18T02:45:00	0.2004	13.432	215.0	0.467503076	0.553395106	0.007708744	0.079529687	0.024511822
2020-06-18T02:50:00	0.2007	13.427	214.0	0.468592183	0.554873696	0.007741340	0.079865977	0.024615470
2020-06-18T02:55:00	0.2007	13.423	212.0	0.468294625	0.554469633	0.007732427	0.079774029	0.024587130
2020-06-18T03:00:00	0.2001	13.417	212.0	0.466263193	0.551712966	0.007671717	0.079147693	0.024394088
2020-06-18T03:05:00	0.1997	13.411	213.0	0.464924601	0.549898277	0.007631842	0.078736304	0.024267293
2020-06-18T03:10:00	0.2000	13.406	211.0	0.466014541	0.551375769	0.007664302	0.079071195	0.024370510
2020-06-18T03:15:00	0.2006	13.401	212.0	0.468144285	0.554265508	0.007727926	0.079727592	0.024572818
2020-06-18T03:20:00	0.2000	13.394	212.0	0.466112763	0.551508961	0.007667231	0.079101408	0.024379822
2020-06-18T03:25:00	0.1998	13.386	212.0	0.465468063	0.550634861	0.007648019	0.078903198	0.024318732
2020-06-18T03:30:00	0.2003	13.380	212.0	0.466904638	0.552583057	0.007690862	0.079345202	0.024454962
2020-06-18T03:35:00	0.2004	13.374	212.0	0.467300506	0.553120197	0.007702688	0.079467216	0.024492568
2020-06-18T03:40:00	0.2009	13.368	211.0	0.469082887	0.555540192	0.007756049	0.080017723	0.024662239
2020-06-18T03:45:00	0.2010	13.362	210.0	0.469478500	0.556077669	0.007767917	0.080140166	0.024699978
2020-06-18T03:50:00	0.2012	13.356	214.0	0.470220535	0.557086131	0.007790202	0.080370077	0.024770838
2020-06-18T03:55:00	0.2008	13.350	213.0	0.468883513	0.555269370	0.007750071	0.079956051	0.024643232
2020-06-18T04:00:00	0.2006	13.344	212.0	0.468239343	0.554394571	0.007730772	0.079756952	0.024581867
2020-06-18T04:05:00	0.2002	13.338	227.0	0.466806439	0.552449834	0.007687929	0.079314950	0.024445638
2020-06-18T04:10:00	0.2001	13.333	210.0	0.466413617	0.551916980	0.007676205	0.079193988	0.024408356
2020-06-18T04:15:00	0.1995	13.327	211.0	0.464285885	0.549032889	0.007612851	0.078540379	0.024206908
2020-06-18T04:20:00	0.2001	13.323	210.0	0.466321611	0.551792195	0.007673460	0.079165670	0.024399628
2020-06-18T04:25:00	0.1999	13.317	211.0	0.465581822	0.550789074	0.007651407	0.078938155	0.024329506
2020-06-18T04:30:00	0.2000	13.314	212.0	0.465882723	0.551197030	0.007660373	0.079030656	0.024358016
2020-06-18T04:35:00	0.1993	13.312	210.0	0.463754656	0.548313380	0.007597074	0.078377609	0.024156740
2020-06-18T04:40:00	0.1995	13.309	211.0	0.464402789	0.549191256	0.007616325	0.078576221	0.024217954
2020-06-18T04:45:00	0.1993	13.306	210.0	0.463662577	0.548188690	0.007594341	0.078349413	0.024148050
2020-06-18T04:50:00	0.1995	13.306	210.0	0.464310728	0.549066543	0.007613589	0.078547995	0.024209255
2020-06-18T04:55:00	0.1992	13.306	210.0	0.463223343	0.547593981	0.007581310	0.078214979	0.024106616
2020-06-18T05:00:00	0.1990	13.305	211.0	0.462482872	0.546591756	0.007559368	0.077988606	0.024036846
2020-06-18T05:05:00	0.1992	13.307	210.0	0.463131250	0.547469310	0.007578580	0.078186808	0.024097933
2020-06-18T05:10:00	0.1986	13.309	211.0	0.461001442	0.544587946	0.007515563	0.077536678	0.023897557
2020-06-18T05:15:00	0.1984	13.311	209.0	0.460607942	0.544055982	0.007503949	0.077416854	0.023860626
2020-06-18T05:20:00	0.1985	13.313	211.0	0.460909289	0.544463355	0.007512842	0.077508609	0.023888906
2020-06-18T05:25:00	0.1988	13.314	209.0	0.461905295	0.545810308	0.007542275	0.077812256	0.023982493
2020-06-18T05:30:00	0.1990	13.316	210.0	0.462553784	0.546687716	0.007561468	0.078010271	0.024043523
2020-06-18T05:35:00	0.1989	13.319	211.0	0.462160465	0.546155514	0.007549824	0.077890142	0.024006498
2020-06-18T05:40:00	0.1987	13.321	210.0	0.461419761	0.545153596	0.007527920	0.077664161	0.023936849
2020-06-18T05:45:00	0.1987	13.322	210.0	0.461373690	0.545091292	0.007526558	0.077650116	0.023932520
2020-06-18T05:50:00	0.1988	13.328	210.0	0.461674968	0.545498754	0.007535463	0.077741985	0.023960835
2020-06-18T05:55:00	0.1988	13.334	211.0	0.461976219	0.545906252	0.007544372	0.077833900	0.023989164
2020-06-18T06:00:00	0.1990	13.336	210.0	0.462624695	0.546783678	0.007563568	0.078031938	0.024050201
2020-06-18T06:05:00	0.1984	13.339	210.0	0.460494566	0.543902735	0.007500604	0.077382346	0.023849991
2020-06-18T06:10:00	0.1985	13.344	210.0	0.460795923	0.544310094	0.007509496	0.077474084	0.023878265
2020-06-18T06:15:00	0.1988	13.351	213.0	0.461791963	0.545657003	0.007538923	0.077777675	0.023971835
2020-06-18T06:20:00	0.1992	13.359	213.0	0.463134907	0.547474261	0.007578688	0.078187926	0.024098278
2020-06-18T06:25:00	0.1992	13.365	233.0	0.463088860	0.547411926	0.007577323	0.078173842	0.024093937
2020-06-18T06:30:00	0.1988	13.370	215.0	0.462001080	0.545939884	0.007545108	0.077841488	0.023991503
2020-06-18T06:35:00	0.1990	13.377	214.0	0.462649550	0.546817316	0.007564304	0.078039534	0.024052542
2020-06-18T06:40:00	0.1991	13.392	218.0	0.462950714	0.547224928	0.007573228	0.078131595	0.024080916
2020-06-18T06:45:00	0.1998	13.413	215.0	0.465334220	0.550453434	0.007644033	0.078862079	0.024306059
2020-06-18T06:50:00	0.2002	13.425	214.0	0.466675753	0.552272547	0.007684028	0.079274697	0.024433232
2020-06-18T06:55:00	0.2005	13.436	213.0	0.467670056	0.553621740	0.007713737	0.079581201	0.024527699
2020-06-18T07:00:00	0.2003	13.462	214.0	0.466930562	0.552618229	0.007691636	0.079353189	0.024457424
2020-06-18T07:05:00	0.2006	13.497	212.0	0.467924790	0.553967521	0.007721357	0.079659819	0.024551930
2020-06-18T07:10:00	0.2007	13.524	212.0	0.468572122	0.554846452	0.007740739	0.079859776	0.024613559
2020-06-18T07:15:00	0.2012	13.545	212.0	0.470258834	0.557138192	0.007791353	0.080381952	0.024774498
2020-06-18T07:20:00	0.2010	13.574	213.0	0.469519907	0.556133932	0.007769160	0.080152987	0.024703929
2020-06-18T07:25:00	0.2004	13.591	212.0	0.467394134	0.553247257	0.007705487	0.079496087	0.024501466
2020-06-18T07:30:00	0.2004	13.623	217.0	0.467348145	0.553184846	0.007704112	0.079481905	0.024497095
2020-06-18T07:35:00	0.2005	13.641	216.0	0.467648889	0.553593010	0.007713104	0.079574670	0.024525686
2020-06-18T07:40:00	0.2003	13.646	216.0	0.466909391	0.552589506	0.007691004	0.079346666	0.024455413
2020-06-18T07:45:00	0.1998	13.653	215.0	0.465475922	0.550645514	0.007648253	0.078905613	0.024319476
2020-06-18T07:50:00	0.2003	13.662	216.0	0.467164182	0.552935211	0.007698615	0.079425188	0.024479614
2020-06-18T07:55:00	0.2005	13.682	215.0	0.467811660	0.553813950	0.007717973	0.079624900	0.024541167
2020-06-18T08:00:00	0.2005	13.693	216.0	0.467765677	0.553751531	0.007716597	0.079610708	0.024536793
2020-06-18T08:05:00	0.2004	13.705	215.0	0.467372966	0.553218530	0.007704854	0.079489559	0.024499454
2020-06-18T08:10:00	0.2008	13.711	215.0	0.468713688	0.555038712	0.007744981	0.079903538	0.024627047
2020-06-18T08:15:00	0.2008	13.721	216.0	0.468667717	0.554976277	0.007743603	0.079889326	0.024622666
2020-06-18T08:20:00	0.2010	13.737	215.0	0.469314906	0.555855397	0.007763008	0.080089523	0.024684369
2020-06-18T08:25:00	0.2013	13.768	215.0	0.470654857	0.557676598	0.007803260	0.080504798	0.024812360
2020-06-18T08:30:00	0.2013	13.798	215.0	0.470608913	0.557614128	0.007801878	0.080490541	0.024807966
2020-06-18T08:35:00	0.2015	13.811	215.0	0.471255730	0.558493740	0.007821344	0.080691363	0.024869862
2020-06-18T08:40:00	0.2018	13.825	215.0	0.472248685	0.559844714	0.007851273	0.081000133	0.024965028
2020-06-18T08:45:00	0.2014	13.834	215.0	0.470817483	0.557897729	0.007808153	0.080555270	0.024827917
2020-06-18T08:50:00	0.2016	13.862	215.0	0.471464261	0.558777393	0.007827625	0.080756160	0.024889833
2020-06-18T08:55:00	0.2018	13.890	215.0	0.472110914	0.559657222	0.007847117	0.080957257	0.024951813
2020-06-18T09:00:00	0.2013	13.907	215.0	0.470679654	0.557710314	0.007804006	0.080512493	0.024814732
2020-06-18T09:05:00	0.2014	13.936	215.0	0.470980101	0.558118870	0.007813046	0.080605756	0.024843477
2020-06-18T09:10:00	0.2012	13.966	214.0	0.470241333	0.557114402	0.007790827	0.080376526	0.024772826
2020-06-18T09:15:00	0.2017	13.994	215.0	0.471927211	0.559407244	0.007841577	0.080900103	0.024934198
2020-06-18T09:20:00	0.2015	14.009	215.0	0.471188649	0.558402501	0.007819324	0.080670524	0.024863439
2020-06-18T09:25:00	0.2013	14.023	215.0	0.470449926	0.557397972	0.007797097	0.080441217	0.024792764
2020-06-18T09:30:00	0.2017	14.054	215.0	0.471789427	0.559219769	0.007837423	0.080857249	0.024920990
2020-06-18T09:35:00	0.2015	14.076	217.0	0.471050835	0.558215066	0.007815175	0.080627721	0.024850247
2020-06-18T09:40:00	0.2011	14.092	217.0	0.469965621	0.556739641	0.007782543	0.080291059	0.024746484
2020-06-18T09:45:00	0.2008	14.120	214.0	0.468880058	0.555264678	0.007749967	0.079954983	0.024642902
2020-06-18T09:50:00	0.2013	14.145	215.0	0.470566616	0.557556621	0.007800606	0.080477418	0.024803922
2020-06-18T09:55:00	0.2016	14.173	215.0	0.471559774	0.558907327	0.007830502	0.080785847	0.024898983
2020-06-18T10:00:00	0.2008	14.212	215.0	0.468742150	0.555077367	0.007745834	0.079912338	0.024629759
2020-06-18T10:05:00	0.2009	14.255	215.0	0.469242135	0.555756530	0.007760825	0.080067000	0.024677427
2020-06-18T10:10:00	0.2007	14.278	216.0	0.468355756	0.554552639	0.007734258	0.079792915	0.024592951
2020-06-18T10:15:00	0.2004	14.315	215.0	0.467469145	0.553349056	0.007707729	0.079519221	0.024508596
2020-06-18T10:20:00	0.2007	14.325	215.0	0.468315984	0.554498634	0.007733067	0.079780627	0.024589164
2020-06-18T10:25:00	0.2000	14.349	215.0	0.466042122	0.551413169	0.007665125	0.079079678	0.024373125
2020-06-18T10:30:00	0.1994	14.384	215.0	0.463766725	0.548329725	0.007597432	0.078381305	0.024157880
2020-06-18T10:35:00	0.1995	14.418	215.0	0.464267448	0.549007915	0.007612303	0.078534727	0.024205166
2020-06-18T10:40:00	0.1987	14.451	215.0	0.461643536	0.545456240	0.007534534	0.077732398	0.023957880
2020-06-18T10:45:00	0.1988	14.479	216.0	0.461797274	0.545664186	0.007539080	0.077779296	0.023972334
2020-06-18T10:50:00	0.1981	14.496	217.0	0.459519006	0.542584513	0.007471854	0.077085736	0.023758573
2020-06-18T10:55:00	0.1968	14.523	217.0	0.454803782	0.536223695	0.007333659	0.075660004	0.023319148
2020-06-18T11:00:00	0.1972	14.560	217.0	0.456349649	0.538307128	0.007378826	0.076125985	0.023462768
2020-06-18T11:05:00	0.1968	14.578	216.0	0.454763849	0.536169900	0.007332494	0.075647985	0.023315444
2020-06-18T11:10:00	0.1971	14.616	218.0	0.455961831	0.537784270	0.007367482	0.076008950	0.023426697
2020-06-18T11:15:00	0.1970	14.669	217.0	0.455419944	0.537053897	0.007351645	0.075845569	0.023376341
2020-06-18T11:20:00	0.1974	14.680	219.0	0.456965528	0.539137700	0.007396858	0.076312024	0.023520107
2020-06-18T11:25:00	0.1979	14.722	218.0	0.458858041	0.541691815	0.007452406	0.076885094	0.023696733
2020-06-18T11:30:00	0.1979	14.754	217.0	0.458664282	0.541430190	0.007446709	0.076826325	0.023678620
2020-06-18T11:35:00	0.1980	14.778	217.0	0.459165764	0.542107383	0.007461457	0.076978475	0.023725513
2020-06-18T11:40:00	0.1982	14.801	217.0	0.459667172	0.542784674	0.007476217	0.077130749	0.023772446
2020-06-18T11:45:00	0.1987	14.821	217.0	0.461558166	0.545340777	0.007532010	0.077706362	0.023949855
2020-06-18T11:50:00	0.1989	14.841	217.0	0.462059218	0.546018536	0.007546828	0.077859233	0.023996972
2020-06-18T11:55:00	0.2003	14.855	217.0	0.467071294	0.552809172	0.007695839	0.079396557	0.024470790
2020-06-18T12:00:00	0.1992	14.871	218.0	0.463408268	0.547844345	0.007586795	0.078271564	0.024124056
2020-06-18T12:05:00	0.1997	14.887	217.0	0.464950186	0.549932949	0.007632603	0.078744157	0.024269714
2020-06-18T12:10:00	0.1993	14.889	217.0	0.463715576	0.548260458	0.007595914	0.078365641	0.024153052
2020-06-18T12:15:00	0.2001	14.888	217.0	0.466298079	0.551760279	0.007672758	0.079158428	0.024397396
2020-06-18T12:20:00	0.2004	14.879	218.0	0.467491962	0.553380023	0.007708411	0.079526259	0.024510765
2020-06-18T12:25:00	0.2004	14.869	217.0	0.467298699	0.553117746	0.007702634	0.079466659	0.024492396
2020-06-18T12:30:00	0.1996	14.864	218.0	0.464677147	0.549562966	0.007624481	0.078660369	0.024243890
2020-06-18T12:35:00	0.1993	14.863	217.0	0.463442436	0.547890607	0.007587809	0.078282022	0.024127279
2020-06-18T12:40:00	0.2003	14.862	217.0	0.467065638	0.552801498	0.007695670	0.079394814	0.024470253
2020-06-18T12:45:00	0.2000	14.862	217.0	0.466178687	0.551598362	0.007669197	0.079121690	0.024386073
2020-06-18T12:50:00	0.2003	14.857	220.0	0.467025850	0.552747513	0.007694482	0.079382552	0.024466473
2020-06-18T12:55:00	0.2008	14.845	218.0	0.468912719	0.555309041	0.007750946	0.079965084	0.024646016
2020-06-18T13:00:00	0.2009	14.839	221.0	0.469066126	0.555517423	0.007755546	0.080012538	0.024660641
2020-06-18T13:05:00	0.1998	14.829	220.0	0.465405268	0.550549739	0.007646149	0.078883905	0.024312786
2020-06-18T13:10:00	0.1996	14.814	219.0	0.464517880	0.549347179	0.007619746	0.078611515	0.024228832
2020-06-18T13:15:00	0.2005	14.797	222.0	0.467793243	0.553788950	0.007717422	0.079619216	0.024539415
2020-06-18T13:20:00	0.2012	14.780	221.0	0.470026173	0.556821941	0.007784362	0.080309825	0.024752268
2020-06-18T13:25:00	0.2013	14.761	225.0	0.470525967	0.557501355	0.007799384	0.080464806	0.024800035
2020-06-18T13:30:00	0.2008	14.744	220.0	0.468946832	0.555355377	0.007751969	0.079975635	0.024649267
2020-06-18T13:35:00	0.2006	14.719	221.0	0.468060376	0.554151588	0.007725415	0.079701681	0.024564832
2020-06-18T13:40:00	0.2003	14.698	221.0	0.467173687	0.552948108	0.007698899	0.079428118	0.024480517
2020-06-18T13:45:00	0.2000	14.676	218.0	0.465939891	0.551274545	0.007662077	0.079048236	0.024363434
2020-06-18T13:50:00	0.2006	14.654	218.0	0.468174047	0.554305917	0.007728817	0.079736784	0.024575651
2020-06-18T13:55:00	0.2007	14.634	219.0	0.468327488	0.554514255	0.007733412	0.079784181	0.024590260
2020-06-18T14:00:00	0.2016	14.615	219.0	0.471599155	0.558960902	0.007831689	0.080798089	0.024902756
2020-06-18T14:05:00	0.2020	14.597	216.0	0.472791165	0.560583121	0.007867647	0.081169069	0.025017095
2020-06-18T14:10:00	0.2023	14.578	220.0	0.473982754	0.562205897	0.007903675	0.081540756	0.025131653
2020-06-18T14:15:00	0.2020	14.558	220.0	0.473097619	0.561000361	0.007876905	0.081264580	0.025046533
2020-06-18T14:20:00	0.2026	14.542	220.0	0.474981099	0.563566373	0.007933922	0.081852812	0.025227832
2020-06-18T14:25:00	0.2019	14.524	222.0	0.472711724	0.560474974	0.007865249	0.081144319	0.025009467
2020-06-18T14:30:00	0.2013	14.504	220.0	0.470440823	0.557385596	0.007796824	0.080438393	0.024791894
2020-06-18T14:35:00	0.1999	14.486	220.0	0.465740881	0.551004714	0.007656146	0.078987045	0.024344574
2020-06-18T14:40:00	0.1994	14.468	220.0	0.463812410	0.548391592	0.007598788	0.078395297	0.024162192
2020-06-18T14:45:00	0.1989	14.452	220.0	0.462230126	0.546249763	0.007551886	0.077911411	0.024013054
2020-06-18T14:50:00	0.1982	14.434	218.0	0.459604624	0.542700174	0.007474375	0.077111745	0.023766589
2020-06-18T14:55:00	0.1979	14.417	220.0	0.458715705	0.541499622	0.007448221	0.076841920	0.023683426
2020-06-18T15:00:00	0.1972	14.401	221.0	0.456435348	0.538422683	0.007381334	0.076151859	0.023470742
2020-06-18T15:05:00	0.1966	14.389	217.0	0.454153442	0.535347766	0.007314698	0.075464387	0.023258857
2020-06-18T15:10:00	0.1973	14.377	218.0	0.456743293	0.538837961	0.007390349	0.076244868	0.023499409
2020-06-18T15:15:00	0.1972	14.362	221.0	0.456201533	0.538107424	0.007374492	0.076081276	0.023448988
2020-06-18T15:20:00	0.1967	14.349	220.0	0.454615663	0.535970287	0.007328171	0.075603394	0.023301700
2020-06-18T15:25:00	0.1969	14.335	219.0	0.455117751	0.536646691	0.007342821	0.075754532	0.023348282
2020-06-18T15:30:00	0.1967	14.325	219.0	0.454575728	0.535916496	0.007327007	0.075591379	0.023297997
2020-06-18T15:35:00	0.1970	14.312	218.0	0.455425817	0.537061811	0.007351817	0.075847339	0.023376886
2020-06-18T15:40:00	0.1968	14.297	221.0	0.454883844	0.536331551	0.007335994	0.075684103	0.023326576
2020-06-18T15:45:00	0.1968	14.283	218.0	0.455037891	0.536539093	0.007340490	0.075730483	0.023340870
2020-06-18T15:50:00	0.1970	14.270	219.0	0.455539916	0.537215579	0.007355150	0.075881726	0.023387485
2020-06-18T15:55:00	0.1964	14.256	220.0	0.453605585	0.534610129	0.007298743	0.075299789	0.023208126
2020-06-18T16:00:00	0.1961	14.241	218.0	0.452366801	0.532943097	0.007262731	0.074928258	0.023093617
2020-06-18T16:05:00	0.1962	14.226	218.0	0.452918528	0.533685407	0.007278759	0.075093618	0.023144582
2020-06-18T16:10:00	0.1958	14.213	220.0	0.451380432	0.531616606	0.007234119	0.074633075	0.023002639
2020-06-18T16:15:00	0.1961	14.202	218.0	0.452628929	0.533295742	0.007270344	0.075006799	0.023117824
2020-06-18T16:20:00	0.1961	14.190	219.0	0.452484120	0.533100922	0.007266138	0.074963405	0.023104450
2020-06-18T16:25:00	0.1965	14.178	220.0	0.453732206	0.534780592	0.007302429	0.075337815	0.023219846
2020-06-18T16:30:00	0.1966	14.163	218.0	0.454283709	0.535523193	0.007318494	0.075503550	0.023270927
2020-06-18T16:35:00	0.1963	14.150	219.0	0.453094476	0.533922183	0.007283874	0.075146390	0.023160847
2020-06-18T16:40:00	0.1960	14.138	219.0	0.452253147	0.532790213	0.007259432	0.074894217	0.023083125
2020-06-18T16:45:00	0.1963	14.127	218.0	0.453153124	0.534001111	0.007285580	0.075163984	0.023166270
2020-06-18T16:50:00	0.1959	14.116	218.0	0.451615135	0.531932171	0.007240922	0.074703261	0.023024271
2020-06-18T16:55:00	0.1959	14.107	220.0	0.451818652	0.532205840	0.007246824	0.074764147	0.023043036
2020-06-18T17:00:00	0.1954	14.098	220.0	0.449931522	0.529669470	0.007192191	0.074200506	0.022869317
2020-06-18T17:05:00	0.1957	14.090	217.0	0.451180558	0.531347905	0.007228328	0.074573330	0.022984225
2020-06-18T17:10:00	0.1950	14.081	218.0	0.448595768	0.527875865	0.007153642	0.073802810	0.022746743
2020-06-18T17:15:00	0.1948	14.072	221.0	0.447753308	0.526745361	0.007129382	0.073552522	0.022669602
2020-06-18T17:20:00	0.1947	14.063	220.0	0.447608289	0.526550814	0.007125210	0.073509479	0.022656335
2020-06-18T17:25:00	0.1946	14.054	218.0	0.447114440	0.525888430	0.007111012	0.073362996	0.022611188
2020-06-18T17:30:00	0.1949	14.041	218.0	0.448364526	0.527565504	0.007146979	0.073734069	0.022725556
2020-06-18T17:35:00	0.1953	14.031	217.0	0.449614147	0.529243182	0.007183022	0.074105919	0.022840164
2020-06-18T17:40:00	0.1949	14.021	218.0	0.448423256	0.527644325	0.007148671	0.073751525	0.022730936
2020-06-18T17:45:00	0.1945	14.009	219.0	0.446883096	0.525578202	0.007104365	0.073294425	0.022590054
2020-06-18T17:50:00	0.1945	13.998	218.0	0.446738039	0.525383704	0.007100199	0.073251445	0.022576807
2020-06-18T17:55:00	0.1939	13.990	217.0	0.444848044	0.522851045	0.007046029	0.072692580	0.022404559
2020-06-18T18:00:00	0.1935	13.984	217.0	0.443306237	0.520787050	0.007001988	0.072238222	0.022264522
2020-06-18T18:05:00	0.1936	13.976	217.0	0.443859458	0.521527425	0.007017775	0.072401092	0.022314720
2020-06-18T18:10:00	0.1942	13.964	220.0	0.445808787	0.524138124	0.007073540	0.072976407	0.022492037
2020-06-18T18:15:00	0.1947	13.954	219.0	0.447408190	0.526282405	0.007119455	0.073450110	0.022638037
2020-06-18T18:20:00	0.1949	13.942	219.0	0.448309468	0.527491614	0.007145393	0.073717706	0.022720513
2020-06-18T18:25:00	0.1947	13.930	216.0	0.447466937	0.526361204	0.007121145	0.073467538	0.022643409
2020-06-18T18:30:00	0.1951	13.919	218.0	0.449065548	0.528506509	0.007167188	0.073942559	0.022789815
2020-06-18T18:35:00	0.1955	13.908	217.0	0.450314907	0.530184525	0.007203274	0.074314845	0.022904557
2020-06-18T18:40:00	0.1961	13.896	216.0	0.452608772	0.533268623	0.007269758	0.075000758	0.023115962
2020-06-18T18:45:00	0.1964	13.885	218.0	0.453508654	0.534479645	0.007295922	0.075270685	0.023199156
2020-06-18T18:50:00	0.1970	13.875	216.0	0.455452381	0.537097610	0.007352593	0.075855344	0.023379354
2020-06-18T18:55:00	0.1976	13.864	216.0	0.457742740	0.540186275	0.007419646	0.076547116	0.023592565
2020-06-18T19:00:00	0.1984	13.852	217.0	0.460379022	0.543746567	0.007497196	0.077347187	0.023839154
2020-06-18T19:05:00	0.1994	13.843	216.0	0.464054659	0.548719684	0.007605982	0.078469510	0.024185065
2020-06-18T19:10:00	0.1999	13.830	217.0	0.465645399	0.550875265	0.007653301	0.078957695	0.024335528
2020-06-18T19:15:00	0.2002	13.819	218.0	0.466541800	0.552090844	0.007680030	0.079233450	0.024420519
2020-06-18T19:20:00	0.2008	13.808	216.0	0.468824629	0.555189390	0.007748306	0.079937841	0.024637619
2020-06-18T19:25:00	0.2013	13.798	217.0	0.470413121	0.557347935	0.007795991	0.080429801	0.024789246
2020-06-18T19:30:00	0.2013	13.789	216.0	0.470615504	0.557623091	0.007802077	0.080492586	0.024808597
2020-06-18T19:35:00	0.2020	13.780	215.0	0.472895581	0.560725275	0.007870801	0.081201605	0.025027123
2020-06-18T19:40:00	0.2031	13.771	218.0	0.476903399	0.566188183	0.007992324	0.082455328	0.025413533
2020-06-18T19:45:00	0.2039	13.764	214.0	0.479524758	0.569768180	0.008072304	0.083280475	0.025667851
2020-06-18T19:50:00	0.2041	13.757	217.0	0.480072059	0.570516321	0.008089053	0.083453266	0.025721107
2020-06-18T19:55:00	0.2035	13.751	213.0	0.478200689	0.567959211	0.008031856	0.082863179	0.025539237
2020-06-18T20:00:00	0.2043	13.743	214.0	0.480821045	0.571540546	0.008112001	0.083690020	0.025794077
2020-06-18T20:05:00	0.2050	13.735	213.0	0.483439375	0.575124585	0.008192477	0.084520280	0.026049971
2020-06-18T20:10:00	0.2055	13.727	217.0	0.485021023	0.577292238	0.008241281	0.085023779	0.026205155
2020-06-18T20:15:00	0.2054	13.718	214.0	0.484532625	0.576622674	0.008226196	0.084868145	0.026157187
2020-06-18T20:20:00	0.2057	13.711	215.0	0.485768916	0.578317925	0.008264409	0.085262379	0.026278693
2020-06-18T20:25:00	0.2062	13.704	215.0	0.487349479	0.580487034	0.008313390	0.085767715	0.026434443
2020-06-18T20:30:00	0.2058	13.696	214.0	0.486171839	0.578870693	0.008276881	0.085391061	0.026318354
2020-06-18T20:35:00	0.2060	13.689	213.0	0.486718068	0.579620269	0.008293806	0.085565663	0.026372168
2020-06-18T20:40:00	0.2053	13.681	212.0	0.484505390	0.576585342	0.008225355	0.084859471	0.026154513
2020-06-18T20:45:00	0.2056	13.674	213.0	0.485396807	0.577807545	0.008252898	0.085143624	0.026242092
2020-06-18T20:50:00	0.2048	13.666	213.0	0.482492941	0.573828450	0.008163343	0.084219702	0.025957330
2020-06-18T20:55:00	0.2044	13.659	213.0	0.481313615	0.572214371	0.008127111	0.083845901	0.025842121
2020-06-18T21:00:00	0.2047	13.652	213.0	0.482205871	0.573435450	0.008154516	0.084128636	0.025929263
2020-06-18T21:05:00	0.2055	13.646	215.0	0.485168075	0.577493876	0.008245826	0.085070667	0.026219606
2020-06-18T21:10:00	0.2060	13.638	212.0	0.486748917	0.579662609	0.008294762	0.085575530	0.026375209
2020-06-18T21:15:00	0.2064	13.632	215.0	0.487984402	0.581358943	0.008333107	0.085971129	0.026497137
2020-06-18T21:20:00	0.2061	13.626	214.0	0.487151724	0.580215533	0.008307254	0.085704408	0.026414931
2020-06-18T21:25:00	0.2059	13.619	213.0	0.486318842	0.579072398	0.008281434	0.085438033	0.026332831
2020-06-18T21:30:00	0.2061	13.610	214.0	0.487209783	0.580295240	0.008309055	0.085722992	0.026420659
2020-06-18T21:35:00	0.2057	13.601	212.0	0.485687240	0.578205890	0.008261881	0.085236306	0.026270657
2020-06-18T21:40:00	0.2056	13.593	213.0	0.485543843	0.578009205	0.008257445	0.085190539	0.026256552
2020-06-18T21:45:00	0.2058	13.587	212.0	0.486090173	0.578758645	0.008274353	0.085364971	0.026310313
2020-06-18T21:50:00	0.2056	13.579	212.0	0.485257030	0.577615859	0.008248576	0.085099037	0.026228350
2020-06-18T21:55:00	0.2049	13.571	212.0	0.483043398	0.574582211	0.008180282	0.084394457	0.026011191
2020-06-18T22:00:00	0.2049	13.563	213.0	0.482899889	0.574385676	0.008175864	0.084348879	0.025997144
2020-06-18T22:05:00	0.2047	13.557	212.0	0.482261472	0.573511564	0.008156225	0.084146270	0.025934698
2020-06-18T22:10:00	0.2051	13.550	212.0	0.483694019	0.575473440	0.008200325	0.084601243	0.026074925
2020-06-18T22:15:00	0.2059	13.545	212.0	0.486505398	0.579328399	0.008287214	0.085497662	0.026351210
2020-06-18T22:20:00	0.2060	13.541	213.0	0.486902065	0.579872815	0.008299510	0.085624518	0.026390308
2020-06-18T22:25:00	0.2054	13.536	213.0	0.484539893	0.576632637	0.008226420	0.084870460	0.026157900
2020-06-18T22:30:00	0.2055	13.531	213.0	0.484936789	0.577176745	0.008238678	0.084996927	0.026196878
2020-06-18T22:35:00	0.2047	13.526	213.0	0.482228041	0.573465799	0.008155197	0.084135667	0.025931430
2020-06-18T22:40:00	0.2045	13.523	214.0	0.481589498	0.572591857	0.008135579	0.083933272	0.025869049
2020-06-18T22:45:00	0.2043	13.519	213.0	0.480950834	0.571718076	0.008115981	0.083731079	0.025806732
2020-06-18T22:50:00	0.2037	13.513	212.0	0.478930089	0.568955559	0.008054126	0.083092930	0.025610048
2020-06-18T22:55:00	0.2037	13.507	213.0	0.478982105	0.569026627	0.008055715	0.083109326	0.025615101
2020-06-18T23:00:00	0.2033	13.501	213.0	0.477305929	0.566737563	0.008004580	0.082581772	0.025452504
2020-06-18T23:05:00	0.2027	13.497	213.0	0.475283006	0.563977947	0.007943080	0.081947295	0.025256952
2020-06-18T23:10:00	0.2027	13.492	212.0	0.475335078	0.564048941	0.007944660	0.081963597	0.025261977
2020-06-18T23:15:00	0.2023	13.486	208.0	0.474003175	0.562233718	0.007904293	0.081547134	0.025133619
2020-06-18T23:20:00	0.2034	13.481	210.0	0.477859774	0.567493672	0.008021458	0.082755903	0.025506173
2020-06-18T23:25:00	0.2038	13.477	211.0	0.479294182	0.569453062	0.008065253	0.083207732	0.025645431
2020-06-18T23:30:00	0.2046	13.474	209.0	0.481763956	0.572830598	0.008140937	0.083988545	0.025886085
2020-06-18T23:35:00	0.2047	13.472	209.0	0.482161177	0.573374271	0.008153142	0.084114462	0.025924894
2020-06-18T23:40:00	0.2047	13.468	209.0	0.482213143	0.573445406	0.008154739	0.084130942	0.025929973
2020-06-18T23:45:00	0.2043	13.464	213.0	0.480883945	0.571626581	0.008113930	0.083709917	0.025800210
2020-06-18T23:50:00	0.2043	13.457	213.0	0.480935931	0.571697690	0.008115524	0.083726364	0.025805279
2020-06-18T23:55:00	0.2038	13.451	212.0	0.479260721	0.569407336	0.008064230	0.083197178	0.025642178
2020-06-19T00:00:00	0.2038	13.444	211.0	0.479312732	0.569478412	0.008065820	0.083213583	0.025647234
2020-06-19T00:05:00	0.2033	13.439	211.0	0.477291009	0.566717199	0.008004125	0.082577084	0.025451059
2020-06-19T00:10:00	0.2026	13.436	212.0	0.474922126	0.563485985	0.007932134	0.081834362	0.025222145
2020-06-19T00:15:00	0.2022	13.431	213.0	0.473590060	0.561670979	0.007891793	0.081418172	0.025093871
2020-06-19T00:20:00	0.2020	13.429	212.0	0.472949885	0.560799210	0.007872442	0.081218529	0.025032340
2020-06-19T00:25:00	0.2021	13.425	212.0	0.473348142	0.561341504	0.007884477	0.081342700	0.025070610
2020-06-19T00:30:00	0.2026	13.420	213.0	0.475130430	0.563769939	0.007938451	0.081899539	0.025242233
2020-06-19T00:35:00	0.2025	13.416	213.0	0.474836543	0.563369332	0.007929539	0.081807591	0.025213894
2020-06-19T00:40:00	0.2020	13.411	215.0	0.472812142	0.560611680	0.007868281	0.081175605	0.025019110
2020-06-19T00:45:00	0.2018	13.407	212.0	0.472171820	0.559740106	0.007848954	0.080976210	0.024957654
2020-06-19T00:50:00	0.2010	13.403	213.0	0.469452831	0.556042792	0.007767147	0.080132219	0.024697528
2020-06-19T00:55:00	0.2003	13.399	214.0	0.467078442	0.552818871	0.007696053	0.079398760	0.024471469
2020-06-19T01:00:00	0.2000	13.396	212.0	0.466090172	0.551478327	0.007666557	0.079094459	0.024377680
2020-06-19T01:05:00	0.1996	13.392	213.0	0.464754616	0.549667935	0.007626785	0.078684138	0.024251215
2020-06-19T01:10:00	0.1994	13.388	213.0	0.463765664	0.548328288	0.007597400	0.078380980	0.024157779
2020-06-19T01:15:00	0.1987	13.385	213.0	0.461387264	0.545109648	0.007526959	0.077654253	0.023933795
2020-06-19T01:20:00	0.1986	13.380	213.0	0.461092177	0.544710625	0.007518242	0.077564321	0.023906077
2020-06-19T01:25:00	0.1985	13.375	213.0	0.460797064	0.544311637	0.007509530	0.077474432	0.023878372
2020-06-19T01:30:00	0.1984	13.371	212.0	0.460501925	0.543912682	0.007500821	0.077384586	0.023850681
2020-06-19T01:35:00	0.1982	13.366	214.0	0.459859260	0.543044195	0.007481875	0.077189124	0.023790438
2020-06-19T01:40:00	0.1983	13.361	213.0	0.460259066	0.543584447	0.007493659	0.077310693	0.023827907
2020-06-19T01:45:00	0.1986	13.357	215.0	0.461006243	0.544594436	0.007515705	0.077538141	0.023898008
2020-06-19T01:50:00	0.1985	13.353	212.0	0.460711122	0.544195457	0.007506993	0.077448264	0.023870307
2020-06-19T01:55:00	0.1985	13.348	213.0	0.460763420	0.544266154	0.007508537	0.077464187	0.023875215
2020-06-19T02:00:00	0.1989	13.344	212.0	0.462205109	0.546215916	0.007551145	0.077903773	0.024010699
2020-06-19T02:05:00	0.1991	13.339	210.0	0.462951854	0.547226472	0.007573262	0.078131944	0.024081024
2020-06-19T02:10:00	0.1997	13.333	211.0	0.465086639	0.550117871	0.007636663	0.078786046	0.024282625
2020-06-19T02:15:00	0.1993	13.328	213.0	0.463750685	0.548308002	0.007596956	0.078376393	0.024156365
2020-06-19T02:20:00	0.2004	13.326	211.0	0.467272268	0.553081878	0.007701844	0.079458509	0.024489884
2020-06-19T02:25:00	0.2006	13.322	213.0	0.468017891	0.554093910	0.007724143	0.079688562	0.024560789
2020-06-19T02:30:00	0.2011	13.318	211.0	0.469802994	0.556518618	0.007777658	0.080240667	0.024730953
2020-06-19T02:35:00	0.2013	13.314	213.0	0.470548058	0.557531388	0.007800048	0.080471660	0.024802147
2020-06-19T02:40:00	0.2019	13.309	212.0	0.472678041	0.560429121	0.007864231	0.081133826	0.025006233
2020-06-19T02:45:00	0.2018	13.303	210.0	0.472383941	0.560028798	0.007855354	0.081042237	0.024978005
2020-06-19T02:50:00	0.2019	13.298	211.0	0.472436057	0.560099733	0.007856927	0.081058464	0.024983006
2020-06-19T02:55:00	0.2013	13.292	215.0	0.470410217	0.557343988	0.007795904	0.080428900	0.024788968
2020-06-19T03:00:00	0.2012	13.286	213.0	0.470115919	0.556943926	0.007787058	0.080337644	0.024760842
2020-06-19T03:05:00	0.2014	13.280	212.0	0.470860914	0.557956788	0.007809459	0.080568752	0.024832072
2020-06-19T03:10:00	0.2013	13.273	212.0	0.470566656	0.557556674	0.007800608	0.080477430	0.024803925
2020-06-19T03:15:00	0.2014	13.268	212.0	0.470965193	0.558098596	0.007812597	0.080601127	0.024842050
2020-06-19T03:20:00	0.2013	13.262	212.0	0.470670944	0.557698471	0.007803744	0.080509790	0.024813899
2020-06-19T03:25:00	0.2012	13.257	211.0	0.470030215	0.556827435	0.007784483	0.080311078	0.024752654
2020-06-19T03:30:00	0.2009	13.251	212.0	0.469042809	0.555485749	0.007754847	0.080005324	0.024658418
2020-06-19T03:35:00	0.2012	13.247	214.0	0.470134520	0.556969209	0.007787617	0.080343410	0.024762619
2020-06-19T03:40:00	0.2017	13.241	213.0	0.471918504	0.559395396	0.007841314	0.080897395	0.024933363
2020-06-19T03:45:00	0.2020	13.237	210.0	0.473009285	0.560880086	0.007874236	0.081237044	0.025038046
2020-06-19T03:50:00	0.2021	13.232	211.0	0.473407535	0.561422389	0.007886273	0.081361226	0.025076320
2020-06-19T03:55:00	0.2021	13.227	210.0	0.473459636	0.561493345	0.007887849	0.081377479	0.025081329
2020-06-19T04:00:00	0.2022	13.223	212.0	0.473511735	0.561564302	0.007889424	0.081393733	0.025086339
2020-06-19T04:05:00	0.2023	13.219	212.0	0.473811931	0.561973191	0.007898505	0.081487421	0.025115214
2020-06-19T04:10:00	0.2022	13.216	211.0	0.473766029	0.561910665	0.007897116	0.081473092	0.025110798
2020-06-19T04:15:00	0.2025	13.212	212.0	0.474758247	0.563262617	0.007927165	0.081783103	0.025206347
2020-06-19T04:20:00	0.2023	13.208	213.0	0.474020304	0.562257054	0.007904811	0.081552483	0.025135267
2020-06-19T04:25:00	0.2025	13.205	211.0	0.474666469	0.563137530	0.007924383	0.081754403	0.025197501
2020-06-19T04:30:00	0.2025	13.204	211.0	0.474620578	0.563074989	0.007922993	0.081740055	0.025193079
2020-06-19T04:35:00	0.2027	13.202	210.0	0.475266628	0.563955618	0.007942583	0.081942169	0.025255372
2020-06-19T04:40:00	0.2028	13.201	210.0	0.475566668	0.564364714	0.007951690	0.082036118	0.025284328
2020-06-19T04:45:00	0.2025	13.198	210.0	0.474828902	0.563358917	0.007929307	0.081805201	0.025213157
2020-06-19T04:50:00	0.2033	13.195	211.0	0.477549757	0.567070407	0.008012008	0.082658410	0.025476125
2020-06-19T04:55:00	0.2034	13.191	209.0	0.477849594	0.567479773	0.008021148	0.082752701	0.025505186
2020-06-19T05:00:00	0.2036	13.188	210.0	0.478495028	0.568361222	0.008040839	0.082955854	0.025567800
2020-06-19T05:05:00	0.2039	13.185	211.0	0.479485860	0.569715017	0.008071115	0.083268201	0.025664068
2020-06-19T05:10:00	0.2046	13.182	210.0	0.481857733	0.572958937	0.008143817	0.084018263	0.025895245
2020-06-19T05:15:00	0.2040	13.181	209.0	0.479739705	0.570061977	0.008078880	0.083348316	0.025688760
2020-06-19T05:20:00	0.2046	13.179	210.0	0.481766146	0.572833595	0.008141004	0.083989239	0.025886299
2020-06-19T05:25:00	0.2049	13.177	212.0	0.483101176	0.574661341	0.008182060	0.084412810	0.026016848
2020-06-19T05:30:00	0.2045	13.173	210.0	0.481674558	0.572708256	0.008138191	0.083960219	0.025877355
2020-06-19T05:35:00	0.2052	13.172	212.0	0.484044899	0.575954222	0.008211145	0.084712866	0.026109328
2020-06-19T05:40:00	0.2048	13.171	213.0	0.482618679	0.574000606	0.008167210	0.084259604	0.025969628
2020-06-19T05:45:00	0.2053	13.169	212.0	0.484298403	0.576301639	0.008218966	0.084793558	0.026134198
2020-06-19T05:50:00	0.2052	13.166	211.0	0.483907608	0.575766091	0.008206910	0.084669182	0.026095864
2020-06-19T05:55:00	0.2059	13.164	213.0	0.486276390	0.579014147	0.008280120	0.085424467	0.026328650
2020-06-19T06:00:00	0.2053	13.165	210.0	0.484506132	0.576586360	0.008225378	0.084859707	0.026154586
2020-06-19T06:05:00	0.2055	13.164	211.0	0.485150299	0.577469501	0.008245277	0.085064999	0.026217859
2020-06-19T06:10:00	0.2055	13.165	210.0	0.485104551	0.577406770	0.008243863	0.085050411	0.026213363
2020-06-19T06:15:00	0.2056	13.164	213.0	0.485403721	0.577817028	0.008253111	0.085145830	0.026242772
2020-06-19T06:20:00	0.2053	13.162	210.0	0.484323100	0.576335487	0.008219728	0.084801421	0.026136622
2020-06-19T06:25:00	0.2060	13.162	211.0	0.486691593	0.579583931	0.008292985	0.085557196	0.026369559
2020-06-19T06:30:00	0.2056	13.161	213.0	0.485266484	0.577628824	0.008248868	0.085102052	0.026229279
2020-06-19T06:35:00	0.2059	13.161	212.0	0.486255340	0.578985263	0.008279468	0.085417740	0.026326577
2020-06-19T06:40:00	0.2055	13.160	211.0	0.485174990	0.577503358	0.008246040	0.085072872	0.026220285
2020-06-19T06:45:00	0.2053	13.160	211.0	0.484439313	0.576494772	0.008223315	0.084838426	0.026148027
2020-06-19T06:50:00	0.2052	13.159	210.0	0.484048534	0.575959203	0.008211257	0.084714023	0.026109685
2020-06-19T06:55:00	0.2055	13.158	210.0	0.485037744	0.577315166	0.008241798	0.085029110	0.026206798
2020-06-19T07:00:00	0.2053	13.157	210.0	0.484302038	0.576306619	0.008219078	0.084794715	0.026134555
2020-06-19T07:05:00	0.2057	13.156	210.0	0.485636069	0.578135702	0.008260298	0.085219973	0.026265623
2020-06-19T07:10:00	0.2063	13.155	211.0	0.487658991	0.580912032	0.008322999	0.085866845	0.026464996
2020-06-19T07:15:00	0.2064	13.155	211.0	0.488302561	0.581795976	0.008342996	0.086073149	0.026528581
2020-06-19T07:20:00	0.2066	13.154	210.0	0.488946008	0.582680084	0.008363013	0.086279660	0.026592229
2020-06-19T07:25:00	0.2071	13.154	212.0	0.490622606	0.584985316	0.008415281	0.086818907	0.026758430
2020-06-19T07:30:00	0.2068	13.154	210.0	0.489543645	0.583501544	0.008381626	0.086471687	0.026651414
2020-06-19T07:35:00	0.2065	13.155	211.0	0.488464341	0.582018234	0.008348026	0.086125049	0.026544576
2020-06-19T07:40:00	0.2069	13.157	212.0	0.489796739	0.583849511	0.008389514	0.086553073	0.026676498
2020-06-19T07:45:00	0.2069	13.159	213.0	0.489751053	0.583786696	0.008388090	0.086538379	0.026671969
2020-06-19T07:50:00	0.2068	13.164	211.0	0.489360885	0.583250307	0.008375932	0.086412942	0.026633308
2020-06-19T07:55:00	0.2059	13.169	211.0	0.486558040	0.579400641	0.008288846	0.085514492	0.026356397
2020-06-19T08:00:00	0.2053	13.178	211.0	0.484442947	0.576499753	0.008223427	0.084839584	0.026148384
2020-06-19T08:05:00	0.2047	13.187	209.0	0.482326536	0.573600633	0.008158225	0.084166908	0.025941058
2020-06-19T08:10:00	0.2043	13.197	211.0	0.480899592	0.571647984	0.008114410	0.083714867	0.025801735
2020-06-19T08:15:00	0.2045	13.206	212.0	0.481544444	0.572530207	0.008134196	0.083919000	0.025864651
2020-06-19T08:20:00	0.2046	13.219	212.0	0.481843928	0.572940045	0.008143393	0.084013888	0.025893896
2020-06-19T08:25:00	0.2046	13.231	212.0	0.481798135	0.572877373	0.008141987	0.083999376	0.025889423
2020-06-19T08:30:00	0.2048	13.238	212.0	0.482788002	0.574232458	0.008172420	0.084313353	0.025986194
2020-06-19T08:35:00	0.2048	13.249	211.0	0.482742222	0.574169769	0.008171011	0.084298819	0.025981715
2020-06-19T08:40:00	0.2044	13.257	211.0	0.481315453	0.572216886	0.008127167	0.083846483	0.025842300
2020-06-19T08:45:00	0.2044	13.267	213.0	0.481269653	0.572154224	0.008125761	0.083831983	0.025837831
2020-06-19T08:50:00	0.2038	13.276	211.0	0.479151258	0.569257755	0.008060884	0.083162657	0.025631539
2020-06-19T08:55:00	0.2044	13.285	211.0	0.481178051	0.572028903	0.008122951	0.083802985	0.025828894
2020-06-19T09:00:00	0.2050	13.293	212.0	0.483203632	0.574801670	0.008185216	0.084445360	0.026026880
2020-06-19T09:05:00	0.2057	13.300	213.0	0.485572906	0.578049066	0.008258344	0.085199814	0.026259410
2020-06-19T09:10:00	0.2059	13.301	212.0	0.486561672	0.579405625	0.008288958	0.085515653	0.026356755
2020-06-19T09:15:00	0.2065	13.302	212.0	0.488584043	0.582182696	0.008351749	0.086163459	0.026556415
2020-06-19T09:20:00	0.2064	13.304	211.0	0.488193740	0.581646487	0.008339613	0.086038248	0.026517824
2020-06-19T09:25:00	0.2067	13.307	211.0	0.489181743	0.583004071	0.008370352	0.086355379	0.026615566
2020-06-19T09:30:00	0.2069	13.309	210.0	0.489825024	0.583888403	0.008390396	0.086562171	0.026679302
2020-06-19T09:35:00	0.2075	13.309	210.0	0.491845455	0.586668086	0.008453506	0.087213266	0.026879976
2020-06-19T09:40:00	0.2082	13.310	209.0	0.494208712	0.589923578	0.008527623	0.087977915	0.027115648
2020-06-19T09:45:00	0.2080	13.313	210.0	0.493819054	0.589386499	0.008515380	0.087851610	0.027076719
2020-06-19T09:50:00	0.2089	13.314	209.0	0.496868493	0.593592903	0.008611424	0.088842475	0.027382114
2020-06-19T09:55:00	0.2090	13.314	209.0	0.497166630	0.594004554	0.008620843	0.088939647	0.027412063
2020-06-19T10:00:00	0.2092	13.312	209.0	0.497808403	0.594890923	0.008641135	0.089148999	0.027476587
2020-06-19T10:05:00	0.2100	13.313	209.0	0.500559534	0.598694327	0.008728393	0.090049218	0.027754044
2020-06-19T10:10:00	0.2099	13.311	209.0	0.500219221	0.598223518	0.008717575	0.089937617	0.027719647
2020-06-19T10:15:00	0.2101	13.309	209.0	0.500909029	0.599177935	0.008739509	0.090163902	0.027789390
2020-06-19T10:20:00	0.2101	13.308	209.0	0.500912101	0.599182187	0.008739607	0.090164910	0.027789701
2020-06-19T10:25:00	0.2102	13.307	209.0	0.501258489	0.599661593	0.008750631	0.090278647	0.027824756
2020-06-19T10:30:00	0.2110	13.304	209.0	0.504006840	0.603468779	0.008838347	0.091183601	0.028103671
2020-06-19T10:35:00	0.2105	13.303	210.0	0.502294370	0.601095845	0.008783641	0.090619204	0.027929719
2020-06-19T10:40:00	0.2099	13.302	210.0	0.500237657	0.598249021	0.008718161	0.089943662	0.027721510
2020-06-19T10:45:00	0.2101	13.302	209.0	0.500927462	0.599203444	0.008740095	0.090169952	0.027791255
2020-06-19T10:50:00	0.2107	13.301	209.0	0.502989900	0.602059342	0.008805840	0.090848227	0.028000306
2020-06-19T10:55:00	0.2107	13.300	209.0	0.502992970	0.602063595	0.008805938	0.090849238	0.028000618
2020-06-19T11:00:00	0.2110	13.300	210.0	0.504025256	0.603494310	0.008838937	0.091189680	0.028105545
2020-06-19T11:05:00	0.2110	13.299	211.0	0.504028325	0.603498565	0.008839035	0.091190693	0.028105857
2020-06-19T11:10:00	0.2112	13.299	216.0	0.504717365	0.604454031	0.008861096	0.091418289	0.028176004
2020-06-19T11:15:00	0.2116	13.299	210.0	0.506091960	0.606361273	0.008905187	0.091873175	0.028316205
2020-06-19T11:20:00	0.2121	13.299	208.0	0.507808661	0.608745324	0.008960406	0.092442856	0.028491786
2020-06-19T11:25:00	0.2125	13.301	208.0	0.509182014	0.610654267	0.009004703	0.092899864	0.028632640
2020-06-19T11:30:00	0.2129	13.305	209.0	0.510554816	0.612563965	0.009049092	0.093357814	0.028773785
2020-06-19T11:35:00	0.2129	13.309	208.0	0.510557880	0.612568228	0.009049191	0.093358838	0.028774100
2020-06-19T11:40:00	0.2132	13.313	213.0	0.511587885	0.614002065	0.009082568	0.093703176	0.028880229
2020-06-19T11:45:00	0.2134	13.319	211.0	0.512275404	0.614959615	0.009104880	0.093933372	0.028951177
2020-06-19T11:50:00	0.2134	13.328	211.0	0.512278466	0.614963880	0.009104980	0.093934397	0.028951494
2020-06-19T11:55:00	0.2139	13.333	207.0	0.513992068	0.617352185	0.009160712	0.094509380	0.029128709
2020-06-19T12:00:00	0.2136	13.339	209.0	0.512968908	0.615925886	0.009127415	0.094165857	0.029022832
2020-06-19T12:05:00	0.2131	13.349	211.0	0.511260919	0.613546814	0.009071966	0.093593800	0.028846518
2020-06-19T12:10:00	0.2130	13.357	210.0	0.510921670	0.613074551	0.009060972	0.093480383	0.028811562
2020-06-19T12:15:00	0.2135	13.367	212.0	0.512635950	0.615461922	0.009116592	0.094054203	0.028988419
2020-06-19T12:20:00	0.2137	13.376	210.0	0.513323259	0.616419761	0.009138940	0.094284759	0.029059478
2020-06-19T12:25:00	0.2133	13.383	211.0	0.511957690	0.614517068	0.009094566	0.093826959	0.028918380
2020-06-19T12:30:00	0.2137	13.387	210.0	0.513329381	0.616428294	0.009139139	0.094286813	0.029060112
2020-06-19T12:35:00	0.2135	13.391	212.0	0.512648197	0.615478985	0.009116990	0.094058308	0.028989684
2020-06-19T12:40:00	0.2137	13.393	211.0	0.513335503	0.616436827	0.009139338	0.094288868	0.029060745
2020-06-19T12:45:00	0.2133	13.396	211.0	0.511969939	0.614534128	0.009094963	0.093831061	0.028919644
2020-06-19T12:50:00	0.2133	13.399	209.0	0.511973001	0.614538393	0.009095063	0.093832086	0.028919960
2020-06-19T12:55:00	0.2135	13.402	211.0	0.512660443	0.615496048	0.009117388	0.094062414	0.028990950
2020-06-19T13:00:00	0.2131	13.403	211.0	0.511294610	0.613593719	0.009073058	0.093605067	0.028849991
2020-06-19T13:05:00	0.2131	13.404	211.0	0.511297673	0.613597983	0.009073157	0.093606092	0.028850307
2020-06-19T13:10:00	0.2131	13.404	210.0	0.511300735	0.613602247	0.009073257	0.093607116	0.028850622
2020-06-19T13:15:00	0.2133	13.406	210.0	0.511988312	0.614559717	0.009095560	0.093837213	0.028921540
2020-06-19T13:20:00	0.2133	13.410	209.0	0.511991374	0.614563982	0.009095659	0.093838238	0.028921856
2020-06-19T13:25:00	0.2135	13.414	210.0	0.512678812	0.615521643	0.009117985	0.094068572	0.028992848
2020-06-19T13:30:00	0.2138	13.416	210.0	0.513708180	0.616956357	0.009151467	0.094414003	0.029099313
2020-06-19T13:35:00	0.2134	13.415	210.0	0.512342765	0.615053453	0.009107068	0.093955941	0.028958133
2020-06-19T13:40:00	0.2138	13.416	210.0	0.513714301	0.616964891	0.009151667	0.094416059	0.029099946
2020-06-19T13:45:00	0.2137	13.417	210.0	0.513375295	0.616492294	0.009140633	0.094302225	0.029064862
2020-06-19T13:50:00	0.2142	13.417	208.0	0.514746418	0.618404301	0.009185300	0.094763051	0.029206893
2020-06-19T13:55:00	0.2143	13.417	210.0	0.515091408	0.618885623	0.009196556	0.094879177	0.029242684
2020-06-19T14:00:00	0.2144	13.419	208.0	0.515436363	0.619366992	0.009207818	0.094995363	0.029278493
2020-06-19T14:05:00	0.2143	13.422	210.0	0.515097527	0.618894160	0.009196756	0.094881237	0.029243319
2020-06-19T14:10:00	0.2147	13.421	209.0	0.516467962	0.620807117	0.009241538	0.095343244	0.029385714
2020-06-19T14:15:00	0.2149	13.419	210.0	0.517154503	0.621766014	0.009264013	0.095575116	0.029457179
2020-06-19T14:20:00	0.2149	13.416	209.0	0.517157560	0.621770285	0.009264113	0.095576149	0.029457497
2020-06-19T14:25:00	0.2149	13.413	209.0	0.517160618	0.621774557	0.009264213	0.095577182	0.029457816
2020-06-19T14:30:00	0.2152	13.411	209.0	0.518188642	0.623211125	0.009297919	0.095924918	0.029564991
2020-06-19T14:35:00	0.2153	13.409	209.0	0.518533286	0.623692924	0.009309233	0.096041637	0.029600965
2020-06-19T14:40:00	0.2152	13.408	208.0	0.518194755	0.623219670	0.009298120	0.095926987	0.029565629
2020-06-19T14:45:00	0.2155	13.406	210.0	0.519222470	0.624656666	0.009331877	0.096275255	0.029672969
2020-06-19T14:50:00	0.2156	13.406	208.0	0.519567010	0.625138609	0.009343208	0.096392153	0.029708998
2020-06-19T14:55:00	0.2154	13.405	209.0	0.518887063	0.624187591	0.009320853	0.096161524	0.029637916
2020-06-19T15:00:00	0.2155	13.403	208.0	0.519231637	0.624669487	0.009332178	0.096278364	0.029673927
2020-06-19T15:05:00	0.2154	13.403	209.0	0.518893175	0.624196138	0.009321054	0.096163596	0.029638554
2020-06-19T15:10:00	0.2155	13.404	209.0	0.519237748	0.624678035	0.009332379	0.096280437	0.029674566
2020-06-19T15:15:00	0.2151	13.404	209.0	0.517874532	0.622772095	0.009287614	0.095818601	0.029532223
2020-06-19T15:20:00	0.2157	13.405	210.0	0.519926791	0.625641973	0.009355047	0.096514297	0.029746644
2020-06-19T15:25:00	0.2156	13.404	211.0	0.519588397	0.625168529	0.009343911	0.096399411	0.029711235
2020-06-19T15:30:00	0.2158	13.403	210.0	0.520274315	0.626128289	0.009366490	0.096632355	0.029783030
2020-06-19T15:35:00	0.2157	13.401	209.0	0.519935956	0.625654797	0.009355349	0.096517410	0.029747603
2020-06-19T15:40:00	0.2157	13.399	210.0	0.519939011	0.625659072	0.009355449	0.096518447	0.029747923
2020-06-19T15:45:00	0.2154	13.396	209.0	0.518917623	0.624230326	0.009321857	0.096171884	0.029641109
2020-06-19T15:50:00	0.2147	13.394	208.0	0.516529124	0.620892527	0.009243539	0.095363889	0.029392077
2020-06-19T15:55:00	0.2148	13.393	209.0	0.516873934	0.621374096	0.009254825	0.095480322	0.029427963
2020-06-19T16:00:00	0.2147	13.391	210.0	0.516535240	0.620901068	0.009243739	0.095365954	0.029392713
2020-06-19T16:05:00	0.2144	13.388	209.0	0.515709499	0.619748209	0.009216740	0.095087409	0.029306863
2020-06-19T16:10:00	0.2140	13.386	210.0	0.514199623	0.617641622	0.009167474	0.094579142	0.029150210
2020-06-19T16:15:00	0.2139	13.385	210.0	0.514057419	0.617443314	0.009162841	0.094531342	0.029135478
2020-06-19T16:20:00	0.2135	13.383	209.0	0.512546815	0.615337731	0.009113696	0.094024323	0.028979210
2020-06-19T16:25:00	0.2136	13.382	210.0	0.512746707	0.615616248	0.009120192	0.094091337	0.028999864
2020-06-19T16:30:00	0.2136	13.380	210.0	0.512946587	0.615894781	0.009126689	0.094158370	0.029020524
2020-06-19T16:35:00	0.2134	13.376	211.0	0.512119981	0.614743114	0.009099834	0.093881308	0.028935131
2020-06-19T16:40:00	0.2133	13.373	210.0	0.511977691	0.614544925	0.009095215	0.093833657	0.028920444
2020-06-19T16:45:00	0.2135	13.368	210.0	0.512519803	0.615300096	0.009112819	0.094015270	0.028976419
2020-06-19T16:50:00	0.2139	13.364	210.0	0.513745992	0.617009074	0.009152699	0.094426703	0.029103227
2020-06-19T16:55:00	0.2135	13.360	210.0	0.512577432	0.615380388	0.009114691	0.094034586	0.028982373
2020-06-19T17:00:00	0.2141	13.356	210.0	0.514487614	0.618043287	0.009176861	0.094675983	0.029180057
2020-06-19T17:05:00	0.2143	13.352	211.0	0.515371231	0.619276097	0.009205691	0.094973420	0.029271730
2020-06-19T17:10:00	0.2144	13.349	206.0	0.515570959	0.619554841	0.009212214	0.095040716	0.029292472
2020-06-19T17:15:00	0.2145	13.345	206.0	0.515770674	0.619833601	0.009218739	0.095108031	0.029313219
2020-06-19T17:20:00	0.2146	13.343	210.0	0.516312187	0.620589598	0.009236442	0.095290672	0.029369510
2020-06-19T17:25:00	0.2143	13.341	207.0	0.515144501	0.618959705	0.009198289	0.094897055	0.029248194
2020-06-19T17:30:00	0.2146	13.336	207.0	0.516369751	0.620669977	0.009238325	0.095310097	0.029375498
2020-06-19T17:35:00	0.2156	13.332	208.0	0.519643935	0.625246225	0.009345739	0.096418262	0.029717045
2020-06-19T17:40:00	0.2157	13.328	211.0	0.520184837	0.626003066	0.009363543	0.096601951	0.029773660
2020-06-19T17:45:00	0.2160	13.323	210.0	0.521066989	0.627237901	0.009392618	0.096901904	0.029866108
2020-06-19T17:50:00	0.2163	13.318	210.0	0.521948914	0.628473050	0.009421730	0.097202247	0.029958676
2020-06-19T17:55:00	0.2163	13.314	210.0	0.522148260	0.628752323	0.009428316	0.097270199	0.029979620
2020-06-19T18:00:00	0.2163	13.309	211.0	0.522006385	0.628553560	0.009423628	0.097221835	0.029964714
2020-06-19T18:05:00	0.2167	13.303	209.0	0.523570277	0.630745438	0.009475368	0.097755624	0.030129233
2020-06-19T18:10:00	0.2162	13.299	209.0	0.521722618	0.628156059	0.009414255	0.097125136	0.029934910
2020-06-19T18:15:00	0.2163	13.296	210.0	0.521921976	0.628435313	0.009420840	0.097193066	0.029955847
2020-06-19T18:20:00	0.2165	13.293	208.0	0.522803683	0.629670767	0.009449988	0.097493786	0.030048532
2020-06-19T18:25:00	0.2166	13.289	210.0	0.523002978	0.629950109	0.009456583	0.097561823	0.030069501
2020-06-19T18:30:00	0.2167	13.285	209.0	0.523543352	0.630707683	0.009474476	0.097746421	0.030126396
2020-06-19T18:35:00	0.2171	13.280	210.0	0.524765611	0.632422099	0.009515010	0.098164606	0.030255285
2020-06-19T18:40:00	0.2174	13.276	208.0	0.525987436	0.634137120	0.009555617	0.098583538	0.030384404
2020-06-19T18:45:00	0.2175	13.270	209.0	0.526186548	0.634416718	0.009562243	0.098651893	0.030405472
2020-06-19T18:50:00	0.2184	13.267	209.0	0.529110898	0.638526895	0.009659819	0.099658568	0.030715739
2020-06-19T18:55:00	0.2187	13.262	208.0	0.530331184	0.640244064	0.009700683	0.100080158	0.030845677
2020-06-19T19:00:00	0.2190	13.257	208.0	0.531210740	0.641482516	0.009730191	0.100384586	0.030939504
2020-06-19T19:05:00	0.2188	13.251	208.0	0.530728893	0.640803977	0.009714020	0.100217754	0.030888085
2020-06-19T19:10:00	0.2191	13.245	208.0	0.531608348	0.642042571	0.009743545	0.100522357	0.030981967
2020-06-19T19:15:00	0.2196	13.240	208.0	0.533167888	0.644240522	0.009796013	0.101063656	0.031148800
2020-06-19T19:20:00	0.2197	13.234	209.0	0.533706670	0.645000319	0.009814172	0.101251002	0.031206542
2020-06-19T19:25:00	0.2204	13.229	207.0	0.535945026	0.648159412	0.009889795	0.102031195	0.031447005
2020-06-19T19:30:00	0.2212	13.223	207.0	0.538861123	0.652281162	0.009988755	0.103052148	0.031761673
2020-06-19T19:35:00	0.2213	13.218	208.0	0.539059493	0.652561800	0.009995505	0.103121786	0.031783136
2020-06-19T19:40:00	0.2220	13.212	208.0	0.541633693	0.656206486	0.010083306	0.104027608	0.032062319
2020-06-19T19:45:00	0.2222	13.206	208.0	0.542171157	0.656968140	0.010101687	0.104217238	0.032120765
2020-06-19T19:50:00	0.2226	13.201	207.0	0.543386840	0.658691785	0.010143324	0.104646804	0.032253161
2020-06-19T19:55:00	0.2229	13.196	204.0	0.544602097	0.660416034	0.010185033	0.105077112	0.032385786
2020-06-19T20:00:00	0.2228	13.190	206.0	0.544122113	0.659734871	0.010168549	0.104907049	0.032333371
2020-06-19T20:05:00	0.2230	13.185	208.0	0.544998168	0.660978255	0.010198646	0.105217549	0.032429070
2020-06-19T20:10:00	0.2226	13.180	206.0	0.543501069	0.658853804	0.010147241	0.104687213	0.032265616
2020-06-19T20:15:00	0.2224	13.174	207.0	0.542681762	0.657691948	0.010119164	0.104397553	0.032176340
2020-06-19T20:20:00	0.2228	13.169	207.0	0.544236317	0.659896925	0.010172470	0.104947500	0.032345839
2020-06-19T20:25:00	0.2230	13.164	206.0	0.544773378	0.660659150	0.010190919	0.105137832	0.032404501
2020-06-19T20:30:00	0.2230	13.158	206.0	0.544971409	0.660940266	0.010197726	0.105208058	0.032426145
2020-06-19T20:35:00	0.2227	13.153	207.0	0.543813391	0.659296851	0.010157954	0.104797739	0.032299681
2020-06-19T20:40:00	0.2223	13.147	206.0	0.542654985	0.657653985	0.010118247	0.104388094	0.032173424
2020-06-19T20:45:00	0.2227	13.142	207.0	0.543870498	0.659377870	0.010159913	0.104817955	0.032305912
2020-06-19T20:50:00	0.2232	13.137	207.0	0.545424520	0.661583602	0.010213309	0.105368828	0.032475696
2020-06-19T20:55:00	0.2237	13.133	207.0	0.547316596	0.664271828	0.010278511	0.106041507	0.032683022
2020-06-19T21:00:00	0.2238	13.128	207.0	0.547514483	0.664553150	0.010285343	0.106111986	0.032704744
2020-06-19T21:05:00	0.2237	13.123	207.0	0.547373646	0.664352929	0.010280481	0.106061823	0.032689284
2020-06-19T21:10:00	0.2236	13.117	206.0	0.546894046	0.663671222	0.010263932	0.105891092	0.032636663
2020-06-19T21:15:00	0.2232	13.114	208.0	0.545397764	0.661545609	0.010212389	0.105359331	0.032472769
2020-06-19T21:20:00	0.2231	13.109	207.0	0.545256842	0.661345510	0.010207541	0.105309319	0.032457355
2020-06-19T21:25:00	0.2230	13.106	207.0	0.544776948	0.660664218	0.010191042	0.105139098	0.032404891
2020-06-19T21:30:00	0.2232	13.102	207.0	0.545652838	0.661907837	0.010221166	0.105449886	0.032500679
2020-06-19T21:35:00	0.2233	13.097	207.0	0.545850820	0.662189025	0.010227981	0.105520199	0.032522350
2020-06-19T21:40:00	0.2234	13.094	207.0	0.546387630	0.662951605	0.010246472	0.105710967	0.032581147
2020-06-19T21:45:00	0.2236	13.090	207.0	0.546924358	0.663714303	0.010264977	0.105901879	0.032639988
2020-06-19T21:50:00	0.2230	13.087	206.0	0.544750188	0.660626232	0.010190122	0.105129610	0.032401967
2020-06-19T21:55:00	0.2232	13.083	207.0	0.545626084	0.661869841	0.010220245	0.105440386	0.032497751
2020-06-19T22:00:00	0.2227	13.081	207.0	0.543790194	0.659263943	0.010157158	0.104789528	0.032297150
2020-06-19T22:05:00	0.2230	13.078	207.0	0.545005309	0.660988392	0.010198891	0.105220081	0.032429851
2020-06-19T22:10:00	0.2232	13.075	207.0	0.545542251	0.661750787	0.010217360	0.105410621	0.032488577
2020-06-19T22:15:00	0.2225	13.073	206.0	0.543028077	0.658182989	0.010131027	0.104519941	0.032214061
2020-06-19T22:20:00	0.2227	13.071	207.0	0.543904409	0.659425981	0.010161077	0.104829960	0.032309612
2020-06-19T22:25:00	0.2226	13.068	207.0	0.543424328	0.658744955	0.010144609	0.104660065	0.032257248
2020-06-19T22:30:00	0.2230	13.065	206.0	0.544978550	0.660950404	0.010197971	0.105210590	0.032426926
2020-06-19T22:35:00	0.2226	13.060	207.0	0.543481442	0.658825965	0.010146568	0.104680269	0.032263476
2020-06-19T22:40:00	0.2226	13.058	206.0	0.543679547	0.659106977	0.010153362	0.104750367	0.032285080
2020-06-19T22:45:00	0.2223	13.054	207.0	0.542521097	0.657464174	0.010113663	0.104340799	0.032158848
2020-06-19T22:50:00	0.2226	13.050	206.0	0.543397557	0.658706984	0.010143691	0.104650595	0.032254330
2020-06-19T22:55:00	0.2222	13.047	207.0	0.542239012	0.657064315	0.010104008	0.104241191	0.032128148
2020-06-19T23:00:00	0.2225	13.043	207.0	0.543115543	0.658307024	0.010134025	0.104550863	0.032223591
2020-06-19T23:05:00	0.2219	13.041	206.0	0.541278322	0.655703011	0.010071162	0.103902320	0.032023704
2020-06-19T23:10:00	0.2218	13.037	207.0	0.540797877	0.655022501	0.010054755	0.103733058	0.031971536
2020-06-19T23:15:00	0.2218	13.034	207.0	0.540656767	0.654822666	0.010049939	0.103683372	0.031956222
2020-06-19T23:20:00	0.2216	13.031	206.0	0.540176236	0.654142278	0.010033547	0.103514260	0.031904100
2020-06-19T23:25:00	0.2212	13.027	207.0	0.538677049	0.652020779	0.009982494	0.102987551	0.031741763
2020-06-19T23:30:00	0.2212	13.024	207.0	0.538875430	0.652301401	0.009989242	0.103057170	0.031763221
2020-06-19T23:35:00	0.2214	13.022	206.0	0.539413323	0.653062450	0.010007551	0.103246056	0.031821437
2020-06-19T23:40:00	0.2214	13.019	206.0	0.539611661	0.653343132	0.010014306	0.103315749	0.031842917
2020-06-19T23:45:00	0.2219	13.017	207.0	0.541167595	0.655546159	0.010067380	0.103863299	0.032011677
2020-06-19T23:50:00	0.2219	13.016	207.0	0.541026500	0.655346303	0.010062561	0.103813586	0.031996355
2020-06-19T23:55:00	0.2217	13.013	208.0	0.540546020	0.654665842	0.010046160	0.103644384	0.031944206
2020-06-20T00:00:00	0.2223	13.011	207.0	0.542440761	0.657350291	0.010110913	0.104312427	0.032150103
2020-06-20T00:05:00	0.2224	13.008	207.0	0.542978100	0.658112122	0.010129315	0.104502275	0.032208616
2020-06-20T00:10:00	0.2227	13.006	207.0	0.543854445	0.659355096	0.010159363	0.104812272	0.032304160
2020-06-20T00:15:00	0.2227	13.004	207.0	0.543713460	0.659155085	0.010154526	0.104762368	0.032288779
2020-06-20T00:20:00	0.2227	13.003	207.0	0.543911552	0.659436115	0.010161322	0.104832489	0.032310391
2020-06-20T00:25:00	0.2224	13.002	207.0	0.542753179	0.657793203	0.010121610	0.104422786	0.032184117
2020-06-20T00:30:00	0.2217	13.001	207.0	0.540576388	0.654708844	0.010047197	0.103655075	0.031947501
2020-06-20T00:35:00	0.2213	13.000	206.0	0.539077375	0.652587100	0.009996114	0.103128065	0.031785071
2020-06-20T00:40:00	0.2214	13.002	207.0	0.539615237	0.653348193	0.010014428	0.103317005	0.031843304
2020-06-20T00:45:00	0.2212	13.001	207.0	0.538795010	0.652187638	0.009986506	0.103028945	0.031754521
2020-06-20T00:50:00	0.2213	13.001	207.0	0.538993383	0.652468270	0.009993256	0.103098575	0.031775982
2020-06-20T00:55:00	0.2210	12.999	206.0	0.538173009	0.651307923	0.009965359	0.102810771	0.031687278
2020-06-20T01:00:00	0.2207	12.997	206.0	0.537012713	0.649667726	0.009925970	0.102404408	0.031562033
2020-06-20T01:05:00	0.2203	12.996	207.0	0.535852028	0.648028078	0.009886648	0.101998720	0.031436996
2020-06-20T01:10:00	0.2199	12.993	207.0	0.534350964	0.645909222	0.009835910	0.101475265	0.031275662
2020-06-20T01:15:00	0.2190	12.992	206.0	0.531148065	0.641394246	0.009728087	0.100362878	0.030932814
2020-06-20T01:20:00	0.2192	12.992	207.0	0.532027413	0.642632989	0.009757630	0.100667666	0.031026752
2020-06-20T01:25:00	0.2186	12.990	206.0	0.529843854	0.639558155	0.009684353	0.099911686	0.030793752
2020-06-20T01:30:00	0.2187	12.989	207.0	0.530383155	0.640317225	0.009702425	0.100098133	0.030851217
2020-06-20T01:35:00	0.2182	12.989	207.0	0.528539149	0.637722755	0.009640702	0.099461346	0.030654953
2020-06-20T01:40:00	0.2187	12.989	207.0	0.530100078	0.639918762	0.009692937	0.100000246	0.030821047
2020-06-20T01:45:00	0.2185	12.988	208.0	0.529618076	0.639240441	0.009676792	0.099833682	0.030769710
2020-06-20T01:50:00	0.2184	12.989	207.0	0.529136006	0.638562215	0.009660659	0.099667234	0.030718409
2020-06-20T01:55:00	0.2179	12.988	207.0	0.527632017	0.636447458	0.009610411	0.099148838	0.030558635
2020-06-20T02:00:00	0.2187	12.988	208.0	0.530214746	0.640080162	0.009696780	0.100039892	0.030833266
2020-06-20T02:05:00	0.2190	12.988	207.0	0.531434641	0.641797878	0.009737710	0.100462156	0.030963412
2020-06-20T02:10:00	0.2193	12.988	207.0	0.532313916	0.643036723	0.009767265	0.100767071	0.031057390
2020-06-20T02:15:00	0.2198	12.989	208.0	0.533873138	0.645235122	0.009819786	0.101308921	0.031224393
2020-06-20T02:20:00	0.2197	12.987	208.0	0.533731745	0.645035686	0.009815017	0.101259725	0.031209231
2020-06-20T02:25:00	0.2203	12.983	208.0	0.535630222	0.647714868	0.009879142	0.101921286	0.031413130
2020-06-20T02:30:00	0.2201	12.983	208.0	0.535148992	0.647035465	0.009862868	0.101753387	0.031361382
2020-06-20T02:35:00	0.2195	12.983	207.0	0.532967408	0.643957862	0.009789260	0.100993990	0.031127329
2020-06-20T02:40:00	0.2187	12.984	207.0	0.530103664	0.639923809	0.009693057	0.100001486	0.030821429
2020-06-20T02:45:00	0.2197	12.984	207.0	0.533704899	0.644997820	0.009814112	0.101250385	0.031206352
2020-06-20T02:50:00	0.2201	12.985	208.0	0.534923561	0.646717265	0.009855249	0.101674782	0.031337155
2020-06-20T02:55:00	0.2202	12.987	208.0	0.535462069	0.647477447	0.009873454	0.101862602	0.031395043
2020-06-20T03:00:00	0.2203	12.988	208.0	0.535660634	0.647757810	0.009880171	0.101931901	0.031416402
2020-06-20T03:05:00	0.2206	12.989	207.0	0.536878606	0.649478223	0.009921423	0.102357493	0.031547573
2020-06-20T03:10:00	0.2210	12.988	209.0	0.538096150	0.651199241	0.009962747	0.102783828	0.031678974
2020-06-20T03:15:00	0.2211	12.988	208.0	0.538294564	0.651479817	0.009969490	0.102853389	0.031700413
2020-06-20T03:20:00	0.2211	12.988	207.0	0.538492966	0.651760409	0.009976234	0.102922970	0.031721859
2020-06-20T03:25:00	0.2213	12.988	207.0	0.539030919	0.652521373	0.009994533	0.103111753	0.031780044
2020-06-20T03:30:00	0.2217	12.988	207.0	0.540587113	0.654724031	0.010047562	0.103658850	0.031948664
2020-06-20T03:35:00	0.2213	12.988	208.0	0.539088105	0.652602281	0.009996479	0.103131832	0.031786232
2020-06-20T03:40:00	0.2207	12.988	208.0	0.536909007	0.649521180	0.009922454	0.102368127	0.031550851
2020-06-20T03:45:00	0.2207	12.988	208.0	0.537107489	0.649801660	0.009929185	0.102437570	0.031572254
2020-06-20T03:50:00	0.2217	12.986	206.0	0.540362036	0.654405332	0.010039884	0.103579631	0.031924248
2020-06-20T03:55:00	0.2217	12.986	208.0	0.540560320	0.654686091	0.010046648	0.103649418	0.031945757
2020-06-20T04:00:00	0.2222	12.983	208.0	0.542115828	0.656889720	0.010099794	0.104197709	0.032114746
2020-06-20T04:05:00	0.2224	12.982	207.0	0.542845300	0.657923818	0.010124765	0.104455339	0.032194150
2020-06-20T04:10:00	0.2226	12.981	208.0	0.543574620	0.658958133	0.010149763	0.104713236	0.032273636
2020-06-20T04:15:00	0.2224	12.981	207.0	0.542947407	0.658068599	0.010128263	0.104491426	0.032205272
2020-06-20T04:20:00	0.2226	12.980	208.0	0.543676705	0.659102945	0.010153265	0.104749361	0.032284770
2020-06-20T04:25:00	0.2224	12.979	206.0	0.542710344	0.657732471	0.010120143	0.104407652	0.032179452
2020-06-20T04:30:00	0.2231	12.978	206.0	0.545134840	0.661172289	0.010203345	0.105266031	0.032444013
2020-06-20T04:35:00	0.2235	12.977	207.0	0.546541363	0.663170036	0.010251771	0.105765631	0.032597995
2020-06-20T04:40:00	0.2237	12.977	207.0	0.547269905	0.664205454	0.010276900	0.106024881	0.032677898
2020-06-20T04:45:00	0.2236	12.977	207.0	0.546982144	0.663796430	0.010266971	0.105922443	0.032646326
2020-06-20T04:50:00	0.2236	12.976	207.0	0.547033137	0.663868907	0.010268730	0.105940592	0.032651919
2020-06-20T04:55:00	0.2241	12.979	207.0	0.548438890	0.665867747	0.010317286	0.106441533	0.032806314
2020-06-20T05:00:00	0.2238	12.980	207.0	0.547473855	0.664495390	0.010283940	0.106097514	0.032700284
2020-06-20T05:05:00	0.2242	12.982	207.0	0.548879430	0.666494484	0.010332526	0.106598765	0.032854775
2020-06-20T05:10:00	0.2231	12.983	208.0	0.545204057	0.661270563	0.010205726	0.105290589	0.032451582
2020-06-20T05:15:00	0.2238	12.987	207.0	0.547626810	0.664712854	0.010289222	0.106152002	0.032717078
2020-06-20T05:20:00	0.2230	12.991	208.0	0.544967148	0.660934217	0.010197579	0.105206546	0.032425679
2020-06-20T05:25:00	0.2225	12.994	208.0	0.543322965	0.658601189	0.010141134	0.104624211	0.032246198
2020-06-20T05:30:00	0.2224	12.998	208.0	0.542695707	0.657711720	0.010119642	0.104402480	0.032177858
2020-06-20T05:35:00	0.2225	13.003	207.0	0.543085927	0.658265025	0.010133010	0.104540392	0.032220364
2020-06-20T05:40:00	0.2225	13.009	206.0	0.543136977	0.658337420	0.010134759	0.104558441	0.032225927
2020-06-20T05:45:00	0.2234	13.014	207.0	0.546238919	0.662740325	0.010241348	0.105658101	0.032564853
2020-06-20T05:50:00	0.2236	13.020	207.0	0.546967525	0.663775653	0.010266466	0.105917241	0.032644722
2020-06-20T05:55:00	0.2235	13.023	207.0	0.546679739	0.663366665	0.010256541	0.105814847	0.032613163
2020-06-20T06:00:00	0.2250	13.028	208.0	0.551808882	0.670666137	0.010434160	0.107647302	0.033177944
2020-06-20T06:05:00	0.2249	13.032	208.0	0.551183157	0.669774489	0.010412409	0.107422900	0.033108781
2020-06-20T06:10:00	0.2260	13.035	207.0	0.554953966	0.675152700	0.010543836	0.108778807	0.033526685
2020-06-20T06:15:00	0.2265	13.037	207.0	0.556694356	0.677638916	0.010604777	0.109407526	0.033720462
2020-06-20T06:20:00	0.2268	13.043	207.0	0.557758507	0.679160325	0.010642127	0.109792858	0.033839225
2020-06-20T06:25:00	0.2271	13.048	207.0	0.558822333	0.680682201	0.010679532	0.110178759	0.033958164
2020-06-20T06:30:00	0.2272	13.053	208.0	0.559210746	0.681238085	0.010693205	0.110319827	0.034001642
2020-06-20T06:35:00	0.2283	13.057	207.0	0.562635646	0.686145065	0.010814159	0.111567684	0.034386244
2020-06-20T06:40:00	0.2283	13.061	210.0	0.562686410	0.686217869	0.010815957	0.111586234	0.034391961
2020-06-20T06:45:00	0.2285	13.064	206.0	0.563411580	0.687258116	0.010841658	0.111851386	0.034473683
2020-06-20T06:50:00	0.2283	13.069	208.0	0.562787936	0.686363481	0.010819553	0.111623336	0.034403396
2020-06-20T06:55:00	0.2290	13.071	210.0	0.565198481	0.689823257	0.010905120	0.112506117	0.034675478
2020-06-20T07:00:00	0.2298	13.072	208.0	0.567944112	0.693769814	0.011003000	0.113515922	0.034986710
2020-06-20T07:05:00	0.2300	13.074	210.0	0.568668191	0.694811639	0.011028887	0.113782993	0.035069024
2020-06-20T07:10:00	0.2292	13.077	211.0	0.565687626	0.690525896	0.010922525	0.112685681	0.034730821
2020-06-20T07:15:00	0.2295	13.082	210.0	0.566749037	0.692051254	0.010960342	0.113075825	0.034851068
2020-06-20T07:20:00	0.2295	13.086	207.0	0.566799741	0.692124145	0.010962150	0.113094480	0.034856817
2020-06-20T07:25:00	0.2306	13.092	206.0	0.570553707	0.697526607	0.011096443	0.114479954	0.035283834
2020-06-20T07:30:00	0.2309	13.097	208.0	0.571613643	0.699054105	0.011134511	0.114872699	0.035404882
2020-06-20T07:35:00	0.2314	13.104	208.0	0.573345749	0.701552287	0.011196864	0.115515986	0.035603149
2020-06-20T07:40:00	0.2308	13.113	210.0	0.571378523	0.698715188	0.011126061	0.114785519	0.035378012
2020-06-20T07:45:00	0.2311	13.116	208.0	0.572101891	0.699758045	0.011152069	0.115053844	0.035460712
2020-06-20T07:50:00	0.2311	13.127	207.0	0.572152518	0.699831048	0.011153891	0.115072636	0.035466504
2020-06-20T07:55:00	0.2309	13.137	209.0	0.571530432	0.698934155	0.011131520	0.114841842	0.035395371
2020-06-20T08:00:00	0.2301	13.145	209.0	0.568888966	0.695129382	0.011036786	0.113864488	0.035094141
2020-06-20T08:05:00	0.2301	13.154	208.0	0.568939639	0.695202318	0.011038600	0.113883197	0.035099907
2020-06-20T08:10:00	0.2305	13.162	208.0	0.570336582	0.697213817	0.011088653	0.114399585	0.035259063
2020-06-20T08:15:00	0.2303	13.170	209.0	0.569377595	0.695832770	0.011054279	0.114044962	0.035149765
2020-06-20T08:20:00	0.2295	13.180	208.0	0.566734501	0.692030358	0.010959823	0.113070478	0.034849419
2020-06-20T08:25:00	0.2296	13.196	211.0	0.567122034	0.692587510	0.010973647	0.113213091	0.034893374
2020-06-20T08:30:00	0.2292	13.213	211.0	0.565825243	0.690723614	0.010927425	0.112736227	0.034746400
2020-06-20T08:35:00	0.2289	13.236	211.0	0.564865017	0.689344361	0.010893263	0.112383786	0.034637774
2020-06-20T08:40:00	0.2282	13.264	211.0	0.562555774	0.686030519	0.010811330	0.111538502	0.034377249
2020-06-20T08:45:00	0.2283	13.282	211.0	0.562943771	0.686587001	0.010825075	0.111680299	0.034420953
2020-06-20T08:50:00	0.2282	13.308	210.0	0.562320044	0.685692486	0.010802984	0.111452397	0.034350711
2020-06-20T08:55:00	0.2281	13.336	212.0	0.562033526	0.685281684	0.010792844	0.111347786	0.034318469
2020-06-20T09:00:00	0.2278	13.352	211.0	0.561072255	0.683903939	0.010758860	0.110997180	0.034210409
2020-06-20T09:05:00	0.2283	13.358	211.0	0.562809593	0.686394543	0.010820320	0.111631252	0.034405836
2020-06-20T09:10:00	0.2281	13.368	212.0	0.562185842	0.685500062	0.010798234	0.111403392	0.034335607
2020-06-20T09:15:00	0.2278	13.374	213.0	0.561224614	0.684122256	0.010764243	0.111052713	0.034227525
2020-06-20T09:20:00	0.2282	13.376	211.0	0.562624645	0.686129288	0.010813769	0.111563665	0.034385005
2020-06-20T09:25:00	0.2285	13.375	212.0	0.563349827	0.687169517	0.010839468	0.111828794	0.034466720
2020-06-20T09:30:00	0.2278	13.377	212.0	0.561039582	0.683857122	0.010757706	0.110985273	0.034206739
2020-06-20T09:35:00	0.2278	13.384	212.0	0.561090369	0.683929893	0.010759500	0.111003782	0.034212444
2020-06-20T09:40:00	0.2283	13.394	212.0	0.562827698	0.686420510	0.010820962	0.111637869	0.034407875
2020-06-20T09:45:00	0.2277	13.406	212.0	0.560854540	0.683592003	0.010751171	0.110917851	0.034185959
2020-06-20T09:50:00	0.2270	13.426	212.0	0.558542640	0.680281991	0.010669691	0.110077234	0.033926873
2020-06-20T09:55:00	0.2276	13.442	211.0	0.560281238	0.682770780	0.010730936	0.110709093	0.034121618
2020-06-20T10:00:00	0.2282	13.451	213.0	0.562356259	0.685744414	0.010804266	0.111465623	0.034354787
2020-06-20T10:05:00	0.2283	13.458	212.0	0.562839767	0.686437822	0.010821390	0.111642281	0.034409235
2020-06-20T10:10:00	0.2286	13.467	210.0	0.563660372	0.687615106	0.010850483	0.111942428	0.034501744
2020-06-20T10:15:00	0.2283	13.474	212.0	0.562795040	0.686373670	0.010819805	0.111625933	0.034404197
2020-06-20T10:20:00	0.2286	13.474	212.0	0.563952790	0.688034759	0.010860859	0.112049483	0.034534739
2020-06-20T10:25:00	0.2292	13.476	212.0	0.565784104	0.690664506	0.010925960	0.112721115	0.034741742
2020-06-20T10:30:00	0.2287	13.478	212.0	0.564245184	0.688454447	0.010871240	0.112156581	0.034567748
2020-06-20T10:35:00	0.2289	13.482	212.0	0.564728431	0.689148233	0.010888408	0.112333699	0.034622337
2020-06-20T10:40:00	0.2289	13.490	214.0	0.564874598	0.689358120	0.010893604	0.112387300	0.034638857
2020-06-20T10:45:00	0.2283	13.497	212.0	0.562660856	0.686181220	0.010815052	0.111576896	0.034389083
2020-06-20T10:50:00	0.2282	13.500	214.0	0.562469865	0.685907322	0.010808288	0.111507118	0.034367577
2020-06-20T10:55:00	0.2278	13.509	213.0	0.561266877	0.684182819	0.010765737	0.111068119	0.034232273
2020-06-20T11:00:00	0.2276	13.520	214.0	0.560400951	0.682942240	0.010735160	0.110752668	0.034135048
2020-06-20T11:05:00	0.2270	13.532	212.0	0.558522027	0.680252499	0.010668966	0.110069754	0.033924567
2020-06-20T11:10:00	0.2277	13.542	213.0	0.560693643	0.683361499	0.010745490	0.110859243	0.034167895
2020-06-20T11:15:00	0.2276	13.549	213.0	0.560502544	0.683087756	0.010738745	0.110789654	0.034146447
2020-06-20T11:20:00	0.2283	13.555	211.0	0.562672927	0.686198531	0.010815479	0.111581307	0.034390442
2020-06-20T11:25:00	0.2283	13.563	214.0	0.562819180	0.686408293	0.010820660	0.111634756	0.034406916
2020-06-20T11:30:00	0.2272	13.568	214.0	0.558916515	0.680816980	0.010682846	0.110212956	0.033968704
2020-06-20T11:35:00	0.2272	13.571	216.0	0.559062926	0.681026515	0.010688000	0.110266129	0.033985092
2020-06-20T11:40:00	0.2265	13.582	213.0	0.556845490	0.677854935	0.010610077	0.109462210	0.033737316
2020-06-20T11:45:00	0.2268	13.594	213.0	0.557667507	0.679030187	0.010638930	0.109759879	0.033829061
2020-06-20T11:50:00	0.2260	13.601	212.0	0.555111224	0.675377247	0.010549335	0.108835542	0.033544171
2020-06-20T11:55:00	0.2257	13.614	212.0	0.553905691	0.673656399	0.010507215	0.108401004	0.033410242
2020-06-20T12:00:00	0.2249	13.627	213.0	0.551346640	0.670007419	0.010418089	0.107481507	0.033126844
2020-06-20T12:05:00	0.2245	13.640	213.0	0.549801326	0.667806541	0.010364456	0.106928179	0.032956303
2020-06-20T12:10:00	0.2245	13.654	213.0	0.549948122	0.668015527	0.010369545	0.106980679	0.032972484
2020-06-20T12:15:00	0.2246	13.665	213.0	0.550433357	0.668706459	0.010386375	0.107154314	0.033026000
2020-06-20T12:20:00	0.2248	13.685	214.0	0.550918524	0.669397489	0.010403217	0.107328067	0.033079553
2020-06-20T12:25:00	0.2247	13.694	214.0	0.550726888	0.669124516	0.010396563	0.107259419	0.033058395
2020-06-20T12:30:00	0.2239	13.706	213.0	0.547826827	0.664997256	0.010296130	0.106223277	0.032739046
2020-06-20T12:35:00	0.2240	13.717	214.0	0.548312359	0.665687766	0.010312910	0.106396394	0.032792402
2020-06-20T12:40:00	0.2249	13.716	214.0	0.551167138	0.669751666	0.010411852	0.107417158	0.033107011
2020-06-20T12:45:00	0.2249	13.717	213.0	0.551313875	0.669960734	0.010416951	0.107469760	0.033123224
2020-06-20T12:50:00	0.2246	13.727	215.0	0.550445470	0.668723709	0.010386795	0.107158650	0.033027337
2020-06-20T12:55:00	0.2240	13.733	213.0	0.548222530	0.665560000	0.010309805	0.106364355	0.032782527
2020-06-20T13:00:00	0.2251	13.730	213.0	0.552092336	0.671070159	0.010444020	0.107749034	0.033209299
2020-06-20T13:05:00	0.2246	13.730	214.0	0.550208918	0.668386854	0.010378588	0.107073984	0.033001242
2020-06-20T13:10:00	0.2259	13.737	212.0	0.554752598	0.674865198	0.010536796	0.108706182	0.033504301
2020-06-20T13:15:00	0.2256	13.733	213.0	0.553546940	0.673144529	0.010494698	0.108271861	0.033370439
2020-06-20T13:20:00	0.2252	13.733	212.0	0.552340865	0.671424457	0.010452670	0.107838272	0.033236803
2020-06-20T13:25:00	0.2246	13.739	211.0	0.550457582	0.668740959	0.010387215	0.107162986	0.033028673
2020-06-20T13:30:00	0.2240	13.746	214.0	0.548234651	0.665577239	0.010310224	0.106368678	0.032783860
2020-06-20T13:35:00	0.2236	13.752	213.0	0.547026729	0.663859800	0.010268509	0.105938312	0.032651217
2020-06-20T13:40:00	0.2232	13.767	213.0	0.545479490	0.661661661	0.010215201	0.105388341	0.032481710
2020-06-20T13:45:00	0.2225	13.771	214.0	0.543253365	0.658502478	0.010138748	0.104599596	0.032238611
2020-06-20T13:50:00	0.2218	13.770	213.0	0.540686443	0.654864690	0.010050952	0.103693820	0.031959442
2020-06-20T13:55:00	0.2216	13.782	212.0	0.540154822	0.654111962	0.010032817	0.103506727	0.031901778
2020-06-20T14:00:00	0.2216	13.782	213.0	0.539962589	0.653839835	0.010026264	0.103439116	0.031880940
2020-06-20T14:05:00	0.2217	13.780	213.0	0.540449224	0.654528781	0.010042858	0.103610315	0.031933705
2020-06-20T14:10:00	0.2214	13.786	213.0	0.539578093	0.653295625	0.010013162	0.103303952	0.031839281
2020-06-20T14:15:00	0.2205	13.797	214.0	0.536328888	0.648701584	0.009902794	0.102165296	0.031488336
2020-06-20T14:20:00	0.2203	13.808	216.0	0.535796597	0.647949801	0.009884772	0.101979366	0.031431031
2020-06-20T14:25:00	0.2198	13.810	212.0	0.533904296	0.645279074	0.009820837	0.101319764	0.031227735
2020-06-20T14:30:00	0.2197	13.813	213.0	0.533711716	0.645007436	0.009814342	0.101252757	0.031207083
2020-06-20T14:35:00	0.2197	13.817	213.0	0.533519125	0.644735814	0.009807849	0.101185769	0.031186437
2020-06-20T14:40:00	0.2191	13.822	213.0	0.531625575	0.642066840	0.009744124	0.100528329	0.030983807
2020-06-20T14:45:00	0.2192	13.825	217.0	0.532113386	0.642754133	0.009760520	0.100697490	0.031035944
2020-06-20T14:50:00	0.2192	13.827	213.0	0.531920705	0.642482636	0.009754042	0.100630656	0.031015346
2020-06-20T14:55:00	0.2195	13.827	213.0	0.533088799	0.644129010	0.009793348	0.101036170	0.031140329
2020-06-20T15:00:00	0.2190	13.824	213.0	0.531195013	0.641460367	0.009729663	0.100379139	0.030937826
2020-06-20T15:05:00	0.2188	13.821	214.0	0.530661930	0.640709695	0.009711774	0.100194580	0.030880943
2020-06-20T15:10:00	0.2190	13.817	213.0	0.531149877	0.641396798	0.009728148	0.100363506	0.030933007
2020-06-20T15:15:00	0.2186	13.814	213.0	0.529935973	0.639687797	0.009687439	0.099943521	0.030803564
2020-06-20T15:20:00	0.2184	13.808	213.0	0.529402695	0.638937398	0.009669582	0.099759298	0.030746785
2020-06-20T15:25:00	0.2183	13.799	213.0	0.528869335	0.638187114	0.009651740	0.099575218	0.030690049
2020-06-20T15:30:00	0.2185	13.793	213.0	0.529698016	0.639352928	0.009679469	0.099861297	0.030778221
2020-06-20T15:35:00	0.2187	13.788	213.0	0.530186099	0.640039839	0.009695820	0.100029987	0.030830213
2020-06-20T15:40:00	0.2179	13.783	213.0	0.527609445	0.636415733	0.009609658	0.099141068	0.030556240
2020-06-20T15:45:00	0.2187	13.780	213.0	0.530140949	0.639976288	0.009694307	0.100014376	0.030825402
2020-06-20T15:50:00	0.2177	13.783	216.0	0.526882845	0.635394733	0.009585431	0.098891120	0.030479204
2020-06-20T15:55:00	0.2178	13.782	213.0	0.527371326	0.636081088	0.009601715	0.099059121	0.030530983
2020-06-20T16:00:00	0.2174	13.775	213.0	0.525815260	0.633895371	0.009549889	0.098524449	0.030366192
2020-06-20T16:05:00	0.2163	13.770	213.0	0.522066946	0.628638403	0.009425629	0.097242478	0.029971076
2020-06-20T16:10:00	0.2163	13.769	213.0	0.522069999	0.628642680	0.009425730	0.097243519	0.029971397
2020-06-20T16:15:00	0.2158	13.771	214.0	0.520366536	0.626257357	0.009369528	0.096663695	0.029792690
2020-06-20T16:20:00	0.2157	13.770	213.0	0.520028186	0.625783853	0.009358385	0.096548735	0.029757258
2020-06-20T16:25:00	0.2157	13.771	215.0	0.520031241	0.625788128	0.009358486	0.096549773	0.029757578
2020-06-20T16:30:00	0.2152	13.770	213.0	0.518326767	0.623404206	0.009302452	0.095971688	0.029579406
2020-06-20T16:35:00	0.2160	13.771	213.0	0.521061461	0.627230161	0.009392435	0.096900023	0.029865528
2020-06-20T16:40:00	0.2157	13.772	213.0	0.520040406	0.625800952	0.009358788	0.096552886	0.029758537
2020-06-20T16:45:00	0.2166	13.771	213.0	0.523114869	0.630106954	0.009460287	0.097600032	0.030081278
2020-06-20T16:50:00	0.2165	13.769	212.0	0.522776789	0.629633075	0.009449098	0.097484607	0.030045703
2020-06-20T16:55:00	0.2165	13.768	213.0	0.522779842	0.629637353	0.009449199	0.097485649	0.030046024
2020-06-20T17:00:00	0.2167	13.767	213.0	0.523465123	0.630597996	0.009471885	0.097719687	0.030118156
2020-06-20T17:05:00	0.2174	13.764	213.0	0.525854908	0.633951037	0.009551208	0.098538054	0.030370385
2020-06-20T17:10:00	0.2179	13.764	213.0	0.527561753	0.636348704	0.009608067	0.099124653	0.030551181
2020-06-20T17:15:00	0.2181	13.763	213.0	0.528246083	0.637310672	0.009630911	0.099360330	0.030623819
2020-06-20T17:20:00	0.2168	13.763	213.0	0.523818393	0.631093367	0.009483590	0.097840446	0.030155376
2020-06-20T17:25:00	0.2167	13.762	213.0	0.523480383	0.630619392	0.009472390	0.097724901	0.030119764
2020-06-20T17:30:00	0.2167	13.762	213.0	0.523483435	0.630623671	0.009472491	0.097725944	0.030120085
2020-06-20T17:35:00	0.2162	13.764	213.0	0.521780672	0.628237375	0.009416172	0.097144915	0.029941006
2020-06-20T17:40:00	0.2170	13.764	213.0	0.524512620	0.632067139	0.009506613	0.098077974	0.030228584
2020-06-20T17:45:00	0.2174	13.764	213.0	0.525879306	0.633985293	0.009552020	0.098546427	0.030372966
2020-06-20T17:50:00	0.2182	13.762	213.0	0.528608005	0.637819583	0.009643003	0.099485087	0.030662270
2020-06-20T17:55:00	0.2178	13.759	214.0	0.527248499	0.635908487	0.009597619	0.099016864	0.030517959
2020-06-20T18:00:00	0.2184	13.754	213.0	0.529295174	0.638786127	0.009665984	0.099722175	0.030735343
2020-06-20T18:05:00	0.2196	13.748	216.0	0.533381840	0.644542211	0.009803222	0.101138031	0.031171723
2020-06-20T18:10:00	0.2197	13.742	213.0	0.533724966	0.645026124	0.009814789	0.101257367	0.031208504
2020-06-20T18:15:00	0.2198	13.735	212.0	0.534068058	0.645510086	0.009826362	0.101376762	0.031245302
2020-06-20T18:20:00	0.2206	13.727	212.0	0.536790290	0.649353433	0.009918429	0.102326602	0.031538053
2020-06-20T18:25:00	0.2208	13.717	213.0	0.537472792	0.650317963	0.009941579	0.102565441	0.031611665
2020-06-20T18:30:00	0.2208	13.707	212.0	0.537475832	0.650322260	0.009941682	0.102566505	0.031611993
2020-06-20T18:35:00	0.2207	13.696	213.0	0.537139157	0.649846414	0.009930259	0.102448652	0.031575669
2020-06-20T18:40:00	0.2206	13.688	213.0	0.536802450	0.649370615	0.009918841	0.102330855	0.031539363
2020-06-20T18:45:00	0.2204	13.680	213.0	0.536125897	0.648414861	0.009895919	0.102094370	0.031466477
2020-06-20T18:50:00	0.2203	13.672	212.0	0.535789091	0.647939201	0.009884518	0.101976745	0.031430223
2020-06-20T18:55:00	0.2202	13.661	212.0	0.535452252	0.647463587	0.009873122	0.101859176	0.031393987
2020-06-20T19:00:00	0.2207	13.652	213.0	0.537154356	0.649867895	0.009930775	0.102453971	0.031577309
2020-06-20T19:05:00	0.2209	13.642	212.0	0.537836787	0.650832526	0.009953937	0.102692934	0.031650960
2020-06-20T19:10:00	0.2210	13.633	214.0	0.538179471	0.651317062	0.009965579	0.102813036	0.031687976
2020-06-20T19:15:00	0.2213	13.623	212.0	0.539201244	0.652762358	0.010000330	0.103171562	0.031798477
2020-06-20T19:20:00	0.2218	13.613	212.0	0.540901505	0.655169265	0.010058293	0.103769555	0.031982785
2020-06-20T19:25:00	0.2226	13.604	212.0	0.543618365	0.659020187	0.010151264	0.104728716	0.032278407
2020-06-20T19:30:00	0.2230	13.595	212.0	0.544977514	0.660948932	0.010197936	0.105210223	0.032426812
2020-06-20T19:35:00	0.2237	13.588	214.0	0.547352468	0.664322823	0.010279750	0.106054281	0.032686959
2020-06-20T19:40:00	0.2245	13.580	216.0	0.550064281	0.668180909	0.010373572	0.107022232	0.032985291
2020-06-20T19:45:00	0.2250	13.572	214.0	0.551759224	0.670595363	0.010432433	0.107629484	0.033172452
2020-06-20T19:50:00	0.2254	13.563	212.0	0.553115188	0.672528638	0.010479643	0.108116543	0.033322569
2020-06-20T19:55:00	0.2256	13.556	212.0	0.553794485	0.673497718	0.010503334	0.108360964	0.033397901
2020-06-20T20:00:00	0.2254	13.547	211.0	0.553121240	0.672537270	0.010479854	0.108118719	0.033323239
2020-06-20T20:05:00	0.2265	13.540	211.0	0.556842123	0.677850122	0.010609959	0.109460992	0.033736941
2020-06-20T20:10:00	0.2268	13.531	212.0	0.557858417	0.679303214	0.010645637	0.109829071	0.033850386
2020-06-20T20:15:00	0.2267	13.521	212.0	0.557523715	0.678824565	0.010633880	0.109707780	0.033813003
2020-06-20T20:20:00	0.2269	13.510	212.0	0.558202152	0.679794876	0.010657717	0.109953705	0.033888800
2020-06-20T20:25:00	0.2264	13.501	211.0	0.556516392	0.677384573	0.010598537	0.109343152	0.033700621
2020-06-20T20:30:00	0.2271	13.490	211.0	0.558883477	0.680769700	0.010681684	0.110200960	0.033965006
2020-06-20T20:35:00	0.2278	13.482	212.0	0.561248955	0.684157137	0.010765103	0.111061586	0.034230259
2020-06-20T20:40:00	0.2274	13.475	211.0	0.559902196	0.682227972	0.010717569	0.110571181	0.034079112
2020-06-20T20:45:00	0.2267	13.467	212.0	0.557541847	0.678850492	0.010634517	0.109714349	0.033815028
2020-06-20T20:50:00	0.2264	13.461	212.0	0.556531506	0.677406173	0.010599067	0.109348618	0.033702306
2020-06-20T20:55:00	0.2257	13.453	211.0	0.554168871	0.674031976	0.010516403	0.108495792	0.033439457
2020-06-20T21:00:00	0.2254	13.444	212.0	0.553157550	0.672589060	0.010481119	0.108131777	0.033327264
2020-06-20T21:05:00	0.2248	13.437	211.0	0.551130999	0.669700179	0.010410597	0.107404205	0.033103019
2020-06-20T21:10:00	0.2246	13.430	211.0	0.550457237	0.668740468	0.010387203	0.107162863	0.033028635
2020-06-20T21:15:00	0.2251	13.423	211.0	0.552151989	0.671155195	0.010446096	0.107770450	0.033215899
2020-06-20T21:20:00	0.2249	13.417	211.0	0.551140081	0.669713119	0.010410912	0.107407461	0.033104022
2020-06-20T21:25:00	0.2252	13.411	211.0	0.552158042	0.671163824	0.010446307	0.107772623	0.033216569
2020-06-20T21:30:00	0.2254	13.405	211.0	0.552837526	0.672132636	0.010469967	0.108016717	0.033291801
2020-06-20T21:35:00	0.2252	13.399	212.0	0.552164096	0.671172454	0.010446518	0.107774796	0.033217239
2020-06-20T21:40:00	0.2245	13.392	211.0	0.549798489	0.667802502	0.010364357	0.106927164	0.032955990
2020-06-20T21:45:00	0.2233	13.386	212.0	0.545737245	0.662027713	0.010224071	0.105479860	0.032509917
2020-06-20T21:50:00	0.2228	13.380	211.0	0.544045425	0.659626057	0.010165917	0.104879890	0.032325001
2020-06-20T21:55:00	0.2229	13.374	215.0	0.544387495	0.660111461	0.010177662	0.105001059	0.032362346
2020-06-20T22:00:00	0.2228	13.368	211.0	0.544051492	0.659634666	0.010166125	0.104882039	0.032325663
2020-06-20T22:05:00	0.2217	13.363	211.0	0.540467100	0.654554092	0.010043468	0.103616606	0.031935644
2020-06-20T22:10:00	0.2215	13.357	211.0	0.539935445	0.653801411	0.010025339	0.103429571	0.031877998
2020-06-20T22:15:00	0.2207	13.352	213.0	0.537026335	0.649686976	0.009926432	0.102409174	0.031563502
2020-06-20T22:20:00	0.2205	13.346	214.0	0.536494151	0.648935041	0.009908392	0.102223057	0.031506139
2020-06-20T22:25:00	0.2206	13.341	213.0	0.536641512	0.649143227	0.009913386	0.102274575	0.031522017
2020-06-20T22:30:00	0.2204	13.335	215.0	0.536109269	0.648391376	0.009895356	0.102088562	0.031464686
2020-06-20T22:35:00	0.2206	13.329	212.0	0.536596446	0.649079558	0.009911859	0.102258819	0.031517161
2020-06-20T22:40:00	0.2205	13.322	212.0	0.536404016	0.648807709	0.009905339	0.102191552	0.031496429
2020-06-20T22:45:00	0.2203	13.316	213.0	0.535871736	0.648055910	0.009887315	0.102005602	0.031439117
2020-06-20T22:50:00	0.2204	13.310	213.0	0.536019123	0.648264058	0.009892304	0.102057074	0.031454981
2020-06-20T22:55:00	0.2199	13.304	212.0	0.534466955	0.646072885	0.009839825	0.101515665	0.031288114
2020-06-20T23:00:00	0.2204	13.298	212.0	0.535974049	0.648200400	0.009890778	0.102041331	0.031450129
2020-06-20T23:05:00	0.2204	13.292	212.0	0.536121432	0.648408555	0.009895768	0.102092811	0.031465996
2020-06-20T23:10:00	0.2201	13.286	212.0	0.534909276	0.646697103	0.009854766	0.101669803	0.031335621
2020-06-20T23:15:00	0.2202	13.281	212.0	0.535396622	0.647385047	0.009871240	0.101839766	0.031388005
2020-06-20T23:20:00	0.2200	13.274	213.0	0.534524217	0.646153686	0.009841759	0.101535613	0.031294262
2020-06-20T23:25:00	0.2201	13.267	212.0	0.535011617	0.646841553	0.009858224	0.101705483	0.031346618
2020-06-20T23:30:00	0.2197	13.261	212.0	0.533799072	0.645130649	0.009817288	0.101283149	0.031216450
2020-06-20T23:35:00	0.2200	13.254	213.0	0.534626570	0.646298120	0.009845215	0.101571273	0.031305253
2020-06-20T23:40:00	0.2199	13.247	212.0	0.534434029	0.646026426	0.009838714	0.101504197	0.031284579
2020-06-20T23:45:00	0.2200	13.241	212.0	0.534581478	0.646234488	0.009843693	0.101555562	0.031300411
2020-06-20T23:50:00	0.2198	13.234	212.0	0.534048917	0.645483083	0.009825716	0.101370099	0.031243249
2020-06-20T23:55:00	0.2201	13.228	213.0	0.534876355	0.646650638	0.009853653	0.101658326	0.031332084
2020-06-21T00:00:00	0.2201	13.222	211.0	0.535023784	0.646858727	0.009858635	0.101709725	0.031347925
2020-06-21T00:05:00	0.2198	13.216	211.0	0.534151284	0.645627498	0.009829170	0.101405735	0.031254232
2020-06-21T00:10:00	0.2198	13.209	211.0	0.533958718	0.645355841	0.009822673	0.101338704	0.031233573
2020-06-21T00:15:00	0.2198	13.203	211.0	0.534106186	0.645563874	0.009827648	0.101390034	0.031249393
2020-06-21T00:20:00	0.2204	13.197	211.0	0.535953302	0.648171100	0.009890075	0.102034085	0.031447896
2020-06-21T00:25:00	0.2203	13.192	211.0	0.535760836	0.647899302	0.009883561	0.101966881	0.031427183
2020-06-21T00:30:00	0.2211	13.185	210.0	0.538286370	0.651468230	0.009969211	0.102850516	0.031699528
2020-06-21T00:35:00	0.2204	13.180	214.0	0.536055613	0.648315594	0.009893539	0.102069819	0.031458910
2020-06-21T00:40:00	0.2190	13.173	210.0	0.531442195	0.641808519	0.009737963	0.100464774	0.030964219
2020-06-21T00:45:00	0.2191	13.168	210.0	0.531589771	0.642016402	0.009742921	0.100515919	0.030979982
2020-06-21T00:50:00	0.2180	13.162	210.0	0.527992422	0.636954054	0.009622440	0.099272939	0.030596884
2020-06-21T00:55:00	0.2171	13.157	210.0	0.524732284	0.632375337	0.009513904	0.098153192	0.030251767
2020-06-21T01:00:00	0.2167	13.151	209.0	0.523516117	0.630669496	0.009473574	0.097737113	0.030123528
2020-06-21T01:05:00	0.2164	13.146	210.0	0.522299519	0.628964252	0.009433315	0.097321776	0.029995517
2020-06-21T01:10:00	0.2163	13.139	210.0	0.522106289	0.628693522	0.009426929	0.097255890	0.029975210
2020-06-21T01:15:00	0.2155	13.132	210.0	0.519523577	0.625077849	0.009341779	0.096377412	0.029704455
2020-06-21T01:20:00	0.2144	13.126	210.0	0.515571733	0.619555921	0.009212239	0.095040977	0.029292552
2020-06-21T01:25:00	0.2143	13.120	211.0	0.515378124	0.619285716	0.009205916	0.094975742	0.029272446
2020-06-21T01:30:00	0.2133	13.115	210.0	0.511763761	0.614246982	0.009088273	0.093762036	0.028898370
2020-06-21T01:35:00	0.2131	13.109	210.0	0.511227655	0.613500503	0.009070888	0.093582676	0.028843090
2020-06-21T01:40:00	0.2127	13.104	211.0	0.509664254	0.611324936	0.009020284	0.093060605	0.028682182
2020-06-21T01:45:00	0.2124	13.099	213.0	0.508785294	0.610102675	0.008991896	0.092767732	0.028591916
2020-06-21T01:50:00	0.2120	13.095	211.0	0.507220777	0.607928639	0.008941477	0.092247571	0.028431597
2020-06-21T01:55:00	0.2120	13.091	218.0	0.507369397	0.608135075	0.008946261	0.092296920	0.028446807
2020-06-21T02:00:00	0.2121	13.087	210.0	0.507860664	0.608817580	0.008962081	0.092460140	0.028497113
2020-06-21T02:05:00	0.2126	13.083	210.0	0.509379465	0.610928846	0.009011081	0.092965662	0.028652920
2020-06-21T02:10:00	0.2132	13.080	212.0	0.511582187	0.613994130	0.009082383	0.093701269	0.028879641
2020-06-21T02:15:00	0.2136	13.076	212.0	0.512757209	0.615630882	0.009120533	0.094094858	0.029000949
2020-06-21T02:20:00	0.2136	13.072	213.0	0.512905589	0.615837648	0.009125356	0.094144619	0.029016286
2020-06-21T02:25:00	0.2135	13.069	210.0	0.512369662	0.615090923	0.009107941	0.093964953	0.028960911
2020-06-21T02:30:00	0.2132	13.065	210.0	0.511491396	0.613867709	0.009079438	0.093670892	0.028870279
2020-06-21T02:35:00	0.2130	13.062	211.0	0.510955248	0.613121289	0.009062060	0.093491605	0.028815021
2020-06-21T02:40:00	0.2126	13.058	213.0	0.509391722	0.610945893	0.009011477	0.092969747	0.028654179
2020-06-21T02:45:00	0.2118	13.055	212.0	0.506799412	0.607343452	0.008927922	0.092107727	0.028388496
2020-06-21T02:50:00	0.2115	13.050	212.0	0.505576867	0.605646407	0.008888652	0.091702587	0.028263628
2020-06-21T02:55:00	0.2112	13.047	211.0	0.504696855	0.604425585	0.008860438	0.091411510	0.028173915
2020-06-21T03:00:00	0.2105	13.043	213.0	0.502100980	0.600828018	0.008777474	0.090555577	0.027910108
2020-06-21T03:05:00	0.2110	13.040	212.0	0.503965385	0.603411307	0.008837021	0.091169917	0.028099454
2020-06-21T03:10:00	0.2110	13.036	211.0	0.504114147	0.603617550	0.008841781	0.091219025	0.028114590
2020-06-21T03:15:00	0.2110	13.033	213.0	0.503919889	0.603348235	0.008835566	0.091154901	0.028094826
2020-06-21T03:20:00	0.2112	13.030	212.0	0.504754616	0.604505696	0.008862289	0.091430601	0.028179799
2020-06-21T03:25:00	0.2113	13.028	212.0	0.504903343	0.604711985	0.008867055	0.091479768	0.028194953
2020-06-21T03:30:00	0.2111	13.025	212.0	0.504366161	0.603966982	0.008849848	0.091302248	0.028140240
2020-06-21T03:35:00	0.2113	13.025	213.0	0.504857860	0.604648896	0.008865597	0.091464730	0.028190318
2020-06-21T03:40:00	0.2108	13.024	212.0	0.503291544	0.602477320	0.008815476	0.090947641	0.028030946
2020-06-21T03:45:00	0.2113	13.024	212.0	0.505155299	0.605061497	0.008875131	0.091563090	0.028220633
2020-06-21T03:50:00	0.2111	13.024	213.0	0.504275179	0.603840824	0.008846935	0.091272198	0.028130978
2020-06-21T03:55:00	0.2106	13.023	212.0	0.502708596	0.601669612	0.008796858	0.090755565	0.027971746
2020-06-21T04:00:00	0.2112	13.024	212.0	0.504572669	0.604253355	0.008856461	0.091370471	0.028161267
2020-06-21T04:05:00	0.2105	13.023	212.0	0.502271319	0.601063921	0.008782906	0.090611619	0.027927381
2020-06-21T04:10:00	0.2105	13.023	211.0	0.502371568	0.601202765	0.008786103	0.090644610	0.027937549
2020-06-21T04:15:00	0.2113	13.022	211.0	0.504873202	0.604670177	0.008866089	0.091469803	0.028191881
2020-06-21T04:20:00	0.2114	13.022	213.0	0.505316282	0.605284837	0.008880293	0.091616346	0.028237048
2020-06-21T04:25:00	0.2114	13.022	211.0	0.505416441	0.605423804	0.008883506	0.091649489	0.028247263
2020-06-21T04:30:00	0.2116	13.025	213.0	0.505859450	0.606038560	0.008897722	0.091796153	0.028292466
2020-06-21T04:35:00	0.2108	13.027	211.0	0.503215883	0.602372472	0.008813058	0.090922700	0.028023259
2020-06-21T04:40:00	0.2117	13.032	213.0	0.506402532	0.606792400	0.008915164	0.091976107	0.028347929
2020-06-21T04:45:00	0.2120	13.038	213.0	0.507530819	0.608359313	0.008951457	0.092350536	0.028463332
2020-06-21T04:50:00	0.2116	13.043	212.0	0.505917191	0.606118697	0.008899575	0.091815277	0.028298360
2020-06-21T04:55:00	0.2120	13.048	213.0	0.507388338	0.608161386	0.008946870	0.092303211	0.028448746
2020-06-21T05:00:00	0.2126	13.054	213.0	0.509543856	0.611157476	0.009016393	0.093020461	0.028669809
2020-06-21T05:05:00	0.2129	13.060	212.0	0.510328736	0.612249362	0.009041774	0.093282319	0.028750517
2020-06-21T05:10:00	0.2126	13.067	212.0	0.509401459	0.610959433	0.009011792	0.092972993	0.028655179
2020-06-21T05:15:00	0.2129	13.073	212.0	0.510528758	0.612527701	0.009048248	0.093349111	0.028771103
2020-06-21T05:20:00	0.2136	13.075	211.0	0.513024436	0.616003272	0.009129220	0.094184485	0.029028573
2020-06-21T05:25:00	0.2135	13.077	211.0	0.512440083	0.615189029	0.009110229	0.093988551	0.028968184
2020-06-21T05:30:00	0.2129	13.081	213.0	0.510486412	0.612468772	0.009046878	0.093334969	0.028766744
2020-06-21T05:35:00	0.2130	13.085	213.0	0.510928766	0.613084427	0.009061202	0.093482754	0.028812293
2020-06-21T05:40:00	0.2133	13.088	212.0	0.511713329	0.614176750	0.009086637	0.093745156	0.028893168
2020-06-21T05:45:00	0.2142	13.095	213.0	0.514892079	0.618607512	0.009190052	0.094812073	0.029222002
2020-06-21T05:50:00	0.2150	13.103	212.0	0.517726251	0.622564870	0.009282751	0.095768433	0.029516761
2020-06-21T05:55:00	0.2160	13.108	212.0	0.520899437	0.627003315	0.009387092	0.096844897	0.029848538
2020-06-21T06:00:00	0.2157	13.112	212.0	0.519975014	0.625709449	0.009356635	0.096530675	0.029751691
2020-06-21T06:05:00	0.2161	13.114	212.0	0.521440142	0.627760430	0.009404930	0.097028926	0.029905257
2020-06-21T06:10:00	0.2157	13.120	212.0	0.520174473	0.625988563	0.009363202	0.096598430	0.029772574
2020-06-21T06:15:00	0.2163	13.128	212.0	0.521980761	0.628517664	0.009422782	0.097213101	0.029962022
2020-06-21T06:20:00	0.2168	13.129	213.0	0.523786100	0.631048080	0.009482519	0.097829404	0.030151972
2020-06-21T06:25:00	0.2162	13.130	212.0	0.521838879	0.628318910	0.009418095	0.097164749	0.029947119
2020-06-21T06:30:00	0.2162	13.134	211.0	0.521597308	0.627980545	0.009410118	0.097082450	0.029921754
2020-06-21T06:35:00	0.2164	13.137	212.0	0.522379436	0.629076231	0.009435957	0.097349032	0.030003917
2020-06-21T06:40:00	0.2163	13.136	212.0	0.522137902	0.628737812	0.009427974	0.097266668	0.029978532
2020-06-21T06:45:00	0.2167	13.136	213.0	0.523602109	0.630790072	0.009476423	0.097766504	0.030132586
2020-06-21T06:50:00	0.2165	13.134	213.0	0.522678412	0.629495198	0.009445844	0.097451032	0.030035354
2020-06-21T06:55:00	0.2164	13.135	211.0	0.522436899	0.629156751	0.009437857	0.097368632	0.030009958
2020-06-21T07:00:00	0.2168	13.138	211.0	0.523900978	0.631209187	0.009486327	0.097868687	0.030164080
2020-06-21T07:05:00	0.2167	13.139	212.0	0.523318474	0.630392387	0.009467028	0.097669579	0.030102713
2020-06-21T07:10:00	0.2172	13.143	213.0	0.525123111	0.632923780	0.009526883	0.098287091	0.030293036
2020-06-21T07:15:00	0.2177	13.148	213.0	0.526926802	0.635456489	0.009586895	0.098906232	0.030483861
2020-06-21T07:20:00	0.2168	13.156	213.0	0.523958416	0.631289742	0.009488231	0.097888331	0.030170134
2020-06-21T07:25:00	0.2174	13.161	213.0	0.525762718	0.633821602	0.009548142	0.098506421	0.030360636
2020-06-21T07:30:00	0.2176	13.166	213.0	0.526543900	0.634918604	0.009574140	0.098774632	0.030443301
2020-06-21T07:35:00	0.2168	13.167	212.0	0.523916236	0.631230585	0.009486833	0.097873905	0.030165688
2020-06-21T07:40:00	0.2172	13.163	212.0	0.525038778	0.632805427	0.009524081	0.098258190	0.030284129
2020-06-21T07:45:00	0.2166	13.163	212.0	0.523092267	0.630075271	0.009459538	0.097592313	0.030078899
2020-06-21T07:50:00	0.2166	13.171	212.0	0.523191908	0.630214951	0.009462837	0.097626344	0.030089387
2020-06-21T07:55:00	0.2162	13.176	212.0	0.521585635	0.627964195	0.009409732	0.097078474	0.029920529
2020-06-21T08:00:00	0.2159	13.178	212.0	0.520661395	0.626670074	0.009379244	0.096763935	0.029823584
2020-06-21T08:05:00	0.2155	13.181	212.0	0.519395440	0.624898605	0.009337565	0.096333932	0.029691054
2020-06-21T08:10:00	0.2158	13.183	212.0	0.520519459	0.626471396	0.009374567	0.096715676	0.029808711
2020-06-21T08:15:00	0.2155	13.183	212.0	0.519253452	0.624700000	0.009332896	0.096285764	0.029676207
2020-06-21T08:20:00	0.2155	13.187	212.0	0.519353204	0.624839526	0.009336176	0.096319603	0.029686637
2020-06-21T08:25:00	0.2149	13.191	212.0	0.517403469	0.622113842	0.009272170	0.095659271	0.029483116
2020-06-21T08:30:00	0.2145	13.200	212.0	0.515794486	0.619866839	0.009219517	0.095116059	0.029315693
2020-06-21T08:35:00	0.2142	13.210	212.0	0.514868687	0.618574876	0.009189289	0.094804199	0.029219575
2020-06-21T08:40:00	0.2149	13.216	212.0	0.517361208	0.622054796	0.009270785	0.095644983	0.029478713
2020-06-21T08:45:00	0.2153	13.222	211.0	0.518827451	0.624104233	0.009318895	0.096141318	0.029631688
2020-06-21T08:50:00	0.2152	13.230	211.0	0.518244086	0.623288627	0.009299739	0.095943690	0.029570777
2020-06-21T08:55:00	0.2151	13.234	212.0	0.518002261	0.622950612	0.009291804	0.095861826	0.029545546
2020-06-21T09:00:00	0.2159	13.238	212.0	0.520833868	0.626911518	0.009384930	0.096822592	0.029841663
2020-06-21T09:05:00	0.2155	13.240	214.0	0.519226492	0.624662292	0.009332009	0.096276619	0.029673389
2020-06-21T09:10:00	0.2163	13.243	214.0	0.522057091	0.628624596	0.009425304	0.097239119	0.029970041
2020-06-21T09:15:00	0.2165	13.245	213.0	0.522839115	0.629720428	0.009451160	0.097505880	0.030052259
2020-06-21T09:20:00	0.2167	13.246	214.0	0.523620960	0.630816506	0.009477047	0.097772948	0.030134572
2020-06-21T09:25:00	0.2175	13.252	213.0	0.526107144	0.634305213	0.009559600	0.098624631	0.030397069
2020-06-21T09:30:00	0.2167	13.260	212.0	0.523479146	0.630617658	0.009472349	0.097724479	0.030119633
2020-06-21T09:35:00	0.2174	13.269	212.0	0.525965432	0.634106223	0.009554885	0.098575986	0.030382076
2020-06-21T09:40:00	0.2170	13.280	212.0	0.524360454	0.631853667	0.009501564	0.098025886	0.030212530
2020-06-21T09:45:00	0.2169	13.287	211.0	0.524119059	0.631515055	0.009493557	0.097943283	0.030187071
2020-06-21T09:50:00	0.2170	13.293	211.0	0.524559659	0.632133134	0.009508174	0.098094079	0.030233548
2020-06-21T09:55:00	0.2168	13.299	212.0	0.523636219	0.630837902	0.009477553	0.097778164	0.030136180
2020-06-21T10:00:00	0.2164	13.309	212.0	0.522371359	0.629064914	0.009435690	0.097346277	0.030003068
2020-06-21T10:05:00	0.2172	13.320	212.0	0.525292850	0.633162012	0.009532522	0.098345273	0.030310968
2020-06-21T10:10:00	0.2176	13.328	212.0	0.526508390	0.634868727	0.009572957	0.098762433	0.030439541
2020-06-21T10:15:00	0.2183	13.333	212.0	0.528745326	0.638012703	0.009647593	0.099532443	0.030676866
2020-06-21T10:20:00	0.2178	13.340	211.0	0.527235069	0.635889617	0.009597171	0.099012244	0.030516535
2020-06-21T10:25:00	0.2180	13.345	212.0	0.527768683	0.636639547	0.009614971	0.099195888	0.030573136
2020-06-21T10:30:00	0.2184	13.353	213.0	0.529323867	0.638826495	0.009666944	0.099732081	0.030738396
2020-06-21T10:35:00	0.2186	13.362	213.0	0.529857157	0.639576877	0.009684799	0.099916283	0.030795169
2020-06-21T10:40:00	0.2183	13.368	213.0	0.529028515	0.638411010	0.009657063	0.099630139	0.030706976
2020-06-21T10:45:00	0.2188	13.372	212.0	0.530583131	0.640598752	0.009709131	0.100167313	0.030872539
2020-06-21T10:50:00	0.2187	13.375	212.0	0.530435512	0.640390930	0.009704181	0.100116243	0.030856799
2020-06-21T10:55:00	0.2183	13.378	212.0	0.528925996	0.638266808	0.009653634	0.099594766	0.030696074
2020-06-21T11:00:00	0.2184	13.379	212.0	0.529118843	0.638538071	0.009660084	0.099661311	0.030716584
2020-06-21T11:05:00	0.2185	13.379	212.0	0.529652165	0.639288409	0.009677934	0.099845457	0.030773340
2020-06-21T11:10:00	0.2192	13.382	212.0	0.531887062	0.642435234	0.009752911	0.100618989	0.031011750
2020-06-21T11:15:00	0.2185	13.382	212.0	0.529697321	0.639351951	0.009679446	0.099861057	0.030778148
2020-06-21T11:20:00	0.2185	13.383	211.0	0.529549664	0.639144182	0.009674502	0.099810052	0.030762427
2020-06-21T11:25:00	0.2184	13.387	211.0	0.529402001	0.638936421	0.009669559	0.099759059	0.030746711
2020-06-21T11:30:00	0.2183	13.390	211.0	0.528913807	0.638249665	0.009653227	0.099590561	0.030694778
2020-06-21T11:35:00	0.2180	13.391	213.0	0.527744298	0.636605272	0.009614158	0.099187492	0.030570548
2020-06-21T11:40:00	0.2178	13.392	212.0	0.527255869	0.635918844	0.009597865	0.099019400	0.030518741
2020-06-21T11:45:00	0.2174	13.394	212.0	0.525744959	0.633796669	0.009547551	0.098500328	0.030358758
2020-06-21T11:50:00	0.2176	13.398	212.0	0.526619588	0.635024918	0.009576660	0.098800639	0.030451316
2020-06-21T11:55:00	0.2175	13.400	212.0	0.526131000	0.634338713	0.009560394	0.098632821	0.030399593
2020-06-21T12:00:00	0.2172	13.404	212.0	0.525301461	0.633174098	0.009532808	0.098348225	0.030311878
2020-06-21T12:05:00	0.2170	13.410	211.0	0.524471721	0.632009761	0.009505256	0.098063973	0.030224269
2020-06-21T12:10:00	0.2170	13.413	214.0	0.524323840	0.631802304	0.009500350	0.098013355	0.030208668
2020-06-21T12:15:00	0.2171	13.416	213.0	0.524857905	0.632551606	0.009518074	0.098196220	0.030265029
2020-06-21T12:20:00	0.2172	13.419	212.0	0.525050981	0.632822551	0.009524487	0.098262372	0.030285417
2020-06-21T12:25:00	0.2172	13.423	213.0	0.525244045	0.633093511	0.009530900	0.098328542	0.030305812
2020-06-21T12:30:00	0.2169	13.431	214.0	0.524073289	0.631450857	0.009492040	0.097927624	0.030182245
2020-06-21T12:35:00	0.2168	13.439	214.0	0.523925391	0.631243424	0.009487136	0.097877036	0.030166653
2020-06-21T12:40:00	0.2164	13.453	215.0	0.522413017	0.629123286	0.009437068	0.097360486	0.030007447
2020-06-21T12:45:00	0.2161	13.468	212.0	0.521241297	0.627481972	0.009398368	0.096961228	0.029884392
2020-06-21T12:50:00	0.2157	13.485	214.0	0.520069177	0.625841212	0.009359735	0.096562658	0.029761549
2020-06-21T12:55:00	0.2145	13.502	215.0	0.515821473	0.619904509	0.009220399	0.095125157	0.029318497
2020-06-21T13:00:00	0.2138	13.521	215.0	0.513621475	0.616835476	0.009148645	0.094384882	0.029090337
2020-06-21T13:05:00	0.2141	13.544	215.0	0.514499195	0.618059441	0.009177239	0.094679878	0.029181258
2020-06-21T13:10:00	0.2136	13.565	217.0	0.512982664	0.615945057	0.009127862	0.094170472	0.029024254
2020-06-21T13:15:00	0.2138	13.585	215.0	0.513518495	0.616691913	0.009145293	0.094350301	0.029079679
2020-06-21T13:20:00	0.2130	13.602	216.0	0.510974711	0.613148383	0.009062691	0.093498111	0.028817026
2020-06-21T13:25:00	0.2128	13.623	216.0	0.510141502	0.611988845	0.009035716	0.093219819	0.028731254
2020-06-21T13:30:00	0.2125	13.650	216.0	0.508965581	0.610353327	0.008997715	0.092827767	0.028610419
2020-06-21T13:35:00	0.2128	13.673	212.0	0.510186915	0.612052030	0.009037185	0.093234976	0.028735925
2020-06-21T13:40:00	0.2126	13.692	216.0	0.509353513	0.610892756	0.009010243	0.092957013	0.028650254
2020-06-21T13:45:00	0.2119	13.716	216.0	0.507149356	0.607829441	0.008939179	0.092223860	0.028424289
2020-06-21T13:50:00	0.2119	13.740	216.0	0.507000726	0.607623017	0.008934397	0.092174527	0.028409084
2020-06-21T13:55:00	0.2120	13.765	214.0	0.507537494	0.608368587	0.008951672	0.092352753	0.028464015
2020-06-21T14:00:00	0.2118	13.792	216.0	0.506703447	0.607210197	0.008924837	0.092075893	0.028378685
2020-06-21T14:05:00	0.2125	13.814	215.0	0.508953322	0.610336282	0.008997319	0.092823684	0.028609161
2020-06-21T14:10:00	0.2121	13.834	216.0	0.507776993	0.608701324	0.008959386	0.092432331	0.028488542
2020-06-21T14:15:00	0.2120	13.849	217.0	0.507285714	0.608018836	0.008943567	0.092269132	0.028438242
2020-06-21T14:20:00	0.2125	13.868	217.0	0.509192721	0.610669155	0.009005049	0.092903431	0.028633740
2020-06-21T14:25:00	0.2122	13.898	216.0	0.508016474	0.609034085	0.008967102	0.092511937	0.028513077
2020-06-21T14:30:00	0.2117	13.917	216.0	0.506497068	0.606923649	0.008918202	0.092007450	0.028357590
2020-06-21T14:35:00	0.2115	13.930	217.0	0.505662767	0.605765607	0.008891409	0.091731024	0.028272392
2020-06-21T14:40:00	0.2110	13.933	216.0	0.503799288	0.603181052	0.008831708	0.091115103	0.028082560
2020-06-21T14:45:00	0.2102	13.930	217.0	0.501248263	0.599647438	0.008750305	0.090275288	0.027823720
2020-06-21T14:50:00	0.2101	13.929	217.0	0.500756044	0.598966233	0.008734642	0.090113692	0.027773915
2020-06-21T14:55:00	0.2098	13.923	216.0	0.499920339	0.597810106	0.008708080	0.089839660	0.027689456
2020-06-21T15:00:00	0.2093	13.917	216.0	0.498053722	0.595229827	0.008648898	0.089229089	0.027501272
2020-06-21T15:05:00	0.2091	13.908	216.0	0.497561043	0.594549248	0.008633311	0.089068279	0.027451709
2020-06-21T15:10:00	0.2090	13.904	217.0	0.497068292	0.593868767	0.008617736	0.088907590	0.027402183
2020-06-21T15:15:00	0.2083	13.902	217.0	0.494512224	0.590342004	0.008537165	0.088076359	0.027145989
2020-06-21T15:20:00	0.2077	13.901	218.0	0.492642641	0.587765745	0.008478472	0.087470831	0.026959359
2020-06-21T15:25:00	0.2076	13.902	218.0	0.492149178	0.587086227	0.008463014	0.087311352	0.026910207
2020-06-21T15:30:00	0.2069	13.903	217.0	0.489933871	0.584038069	0.008393790	0.086597186	0.026690094
2020-06-21T15:35:00	0.2064	13.905	215.0	0.488061768	0.581465208	0.008335511	0.085995932	0.026504781
2020-06-21T15:40:00	0.2069	13.908	216.0	0.489979554	0.584100888	0.008395215	0.086611884	0.026694624
2020-06-21T15:45:00	0.2066	13.909	216.0	0.488796661	0.582474848	0.008358364	0.086231705	0.026577449
2020-06-21T15:50:00	0.2059	13.908	216.0	0.486579167	0.579429635	0.008289500	0.085521246	0.026358479
2020-06-21T15:55:00	0.2058	13.909	215.0	0.486084822	0.578751304	0.008274187	0.085363262	0.026309786
2020-06-21T16:00:00	0.2058	13.910	216.0	0.485935270	0.578546130	0.008269557	0.085315496	0.026295064
2020-06-21T16:05:00	0.2057	13.911	217.0	0.485889533	0.578483385	0.008268141	0.085300890	0.026290563
2020-06-21T16:10:00	0.2060	13.910	215.0	0.486878206	0.579840067	0.008298770	0.085616885	0.026387956
2020-06-21T16:15:00	0.2055	13.911	216.0	0.485108263	0.577411859	0.008243977	0.085051594	0.026213727
2020-06-21T16:20:00	0.2048	13.919	215.0	0.482647102	0.574039523	0.008168085	0.084268625	0.025972409
2020-06-21T16:25:00	0.2046	13.928	216.0	0.481910876	0.573031672	0.008145450	0.084035107	0.025900436
2020-06-21T16:30:00	0.2046	13.931	217.0	0.481865084	0.572968999	0.008144043	0.084020593	0.025895963
2020-06-21T16:35:00	0.2038	13.932	217.0	0.479056037	0.569127644	0.008057974	0.083132633	0.025622285
2020-06-21T16:40:00	0.2042	13.932	217.0	0.480392134	0.570953964	0.008098856	0.083554401	0.025752278
2020-06-21T16:45:00	0.2040	13.929	218.0	0.480000888	0.570419019	0.008086874	0.083430786	0.025714179
2020-06-21T16:50:00	0.2041	13.924	217.0	0.480300508	0.570828674	0.008096049	0.083525443	0.025743353
2020-06-21T16:55:00	0.2046	13.919	217.0	0.481981382	0.573128171	0.008147616	0.084057456	0.025907324
2020-06-21T17:00:00	0.2046	13.915	216.0	0.481935591	0.573065497	0.008146209	0.084042941	0.025902851
2020-06-21T17:05:00	0.2055	13.915	217.0	0.484995706	0.577257526	0.008240499	0.085015708	0.026202667
2020-06-21T17:10:00	0.2048	13.914	216.0	0.482534463	0.573885299	0.008164620	0.084232877	0.025961391
2020-06-21T17:15:00	0.2046	13.913	217.0	0.481798214	0.572877480	0.008141989	0.083999400	0.025889431
2020-06-21T17:20:00	0.2044	13.911	216.0	0.481407129	0.572342319	0.008129981	0.083875512	0.025851247
2020-06-21T17:25:00	0.2055	13.908	216.0	0.485157644	0.577479572	0.008245504	0.085067341	0.026218581
2020-06-21T17:30:00	0.2060	13.905	216.0	0.486836113	0.579782289	0.008297465	0.085603420	0.026383805
2020-06-21T17:35:00	0.2058	13.900	219.0	0.486100796	0.578773220	0.008274682	0.085368365	0.026311359
2020-06-21T17:40:00	0.2065	13.894	216.0	0.488468049	0.582023328	0.008348142	0.086126238	0.026544943
2020-06-21T17:45:00	0.2059	13.888	217.0	0.486354147	0.579120842	0.008282528	0.085449316	0.026336309
2020-06-21T17:50:00	0.2061	13.881	215.0	0.486997963	0.580004454	0.008302484	0.085655201	0.026399765
2020-06-21T17:55:00	0.2064	13.873	216.0	0.487986315	0.581361570	0.008333166	0.085971742	0.026497326
2020-06-21T18:00:00	0.2063	13.864	216.0	0.487940605	0.581298788	0.008331746	0.085957090	0.026492810
2020-06-21T18:05:00	0.2066	13.856	217.0	0.488928682	0.582656272	0.008362473	0.086274095	0.026590514
2020-06-21T18:10:00	0.2067	13.846	215.0	0.489227515	0.583066983	0.008371777	0.086370084	0.026620099
2020-06-21T18:15:00	0.2065	13.837	216.0	0.488492716	0.582057218	0.008348909	0.086134153	0.026547382
2020-06-21T18:20:00	0.2063	13.827	216.0	0.487757758	0.581047666	0.008326066	0.085898490	0.026474749
2020-06-21T18:25:00	0.2069	13.817	216.0	0.489779417	0.583825694	0.008388974	0.086547502	0.026674781
2020-06-21T18:30:00	0.2063	13.807	216.0	0.487666331	0.580922111	0.008323227	0.085869197	0.026465720
2020-06-21T18:35:00	0.2060	13.798	216.0	0.486931194	0.579912800	0.008300414	0.085633837	0.026393180
2020-06-21T18:40:00	0.2066	13.789	216.0	0.488953345	0.582690166	0.008363241	0.086282016	0.026592955
2020-06-21T18:45:00	0.2069	13.779	216.0	0.489941127	0.584048047	0.008394016	0.086599520	0.026690813
2020-06-21T18:50:00	0.2063	13.770	216.0	0.487828142	0.581144328	0.008328252	0.085921045	0.026481700
2020-06-21T18:55:00	0.2068	13.761	215.0	0.489505291	0.583448818	0.008380431	0.086459357	0.026647614
2020-06-21T19:00:00	0.2069	13.752	216.0	0.489804074	0.583859596	0.008389743	0.086555432	0.026677225
2020-06-21T19:05:00	0.2069	13.742	216.0	0.489758388	0.583796781	0.008388319	0.086540738	0.026672696
2020-06-21T19:10:00	0.2076	13.733	216.0	0.492123095	0.587050316	0.008462197	0.087302927	0.026907610
2020-06-21T19:15:00	0.2078	13.723	216.0	0.493109958	0.588409438	0.008493124	0.087621992	0.027005949
2020-06-21T19:20:00	0.2085	13.714	216.0	0.495472338	0.591666116	0.008567385	0.088388131	0.027242081
2020-06-21T19:25:00	0.2089	13.704	215.0	0.496801994	0.593501095	0.008609324	0.088820809	0.027375436
2020-06-21T19:30:00	0.2094	13.695	215.0	0.498474728	0.595811551	0.008662229	0.089366619	0.027543660
2020-06-21T19:35:00	0.2101	13.685	216.0	0.500833393	0.599073267	0.008737103	0.090139076	0.027781739
2020-06-21T19:40:00	0.2101	13.676	216.0	0.500787855	0.599010252	0.008735654	0.090124132	0.027777133
2020-06-21T19:45:00	0.2103	13.667	215.0	0.501428948	0.599897546	0.008756059	0.090334643	0.027842014
2020-06-21T19:50:00	0.2104	13.658	217.0	0.501726686	0.600309739	0.008765543	0.090432493	0.027872173
2020-06-21T19:55:00	0.2108	13.648	215.0	0.503397008	0.602623476	0.008818846	0.090982412	0.028041663
2020-06-21T20:00:00	0.2111	13.639	215.0	0.504380613	0.603987021	0.008850310	0.091307021	0.028141711
2020-06-21T20:05:00	0.2114	13.630	215.0	0.505363934	0.605350952	0.008881821	0.091632114	0.028241907
2020-06-21T20:10:00	0.2109	13.621	214.0	0.503603574	0.602909769	0.008825449	0.091050535	0.028062659
2020-06-21T20:15:00	0.2115	13.612	215.0	0.505615856	0.605700510	0.008889903	0.091715494	0.028267606
2020-06-21T20:20:00	0.2115	13.603	213.0	0.505570382	0.605637407	0.008888444	0.091700440	0.028262966
2020-06-21T20:25:00	0.2111	13.593	215.0	0.504153153	0.603671630	0.008843029	0.091231904	0.028118559
2020-06-21T20:30:00	0.2109	13.585	213.0	0.503764630	0.603133010	0.008830599	0.091103667	0.028079035
2020-06-21T20:35:00	0.2110	13.575	214.0	0.504062165	0.603545480	0.008840118	0.091201864	0.028109300
2020-06-21T20:40:00	0.2110	13.565	213.0	0.504016670	0.603482406	0.008838662	0.091186846	0.028104671
2020-06-21T20:45:00	0.2113	13.555	214.0	0.505000096	0.604846194	0.008870156	0.091511759	0.028204813
2020-06-21T20:50:00	0.2119	13.545	213.0	0.507011556	0.607638058	0.008934745	0.092178121	0.028410192
2020-06-21T20:55:00	0.2123	13.535	213.0	0.508336727	0.609479149	0.008977426	0.092618446	0.028545905
2020-06-21T21:00:00	0.2123	13.524	215.0	0.508291289	0.609415997	0.008975961	0.092603331	0.028541246
2020-06-21T21:05:00	0.2117	13.511	213.0	0.506189650	0.606496876	0.008908325	0.091905546	0.028326182
2020-06-21T21:10:00	0.2111	13.499	213.0	0.504429716	0.604055111	0.008851883	0.091323241	0.028146710
2020-06-21T21:15:00	0.2110	13.487	215.0	0.504041224	0.603516448	0.008839448	0.091194951	0.028107170
2020-06-21T21:20:00	0.2109	13.475	213.0	0.503652688	0.602977844	0.008827020	0.091066736	0.028067652
2020-06-21T21:25:00	0.2106	13.462	212.0	0.502577846	0.601488489	0.008792685	0.090712512	0.027958477
2020-06-21T21:30:00	0.2106	13.449	212.0	0.502532332	0.601425442	0.008791233	0.090697527	0.027953859
2020-06-21T21:35:00	0.2107	13.438	212.0	0.502829974	0.601837766	0.008800733	0.090795541	0.027984068
2020-06-21T21:40:00	0.2119	13.426	212.0	0.506899721	0.607482747	0.008931148	0.092141009	0.028398754
2020-06-21T21:45:00	0.2115	13.416	211.0	0.505825900	0.605991998	0.008896645	0.091785042	0.028289041
2020-06-21T21:50:00	0.2111	13.405	212.0	0.504408777	0.604026076	0.008851212	0.091316325	0.028144578
2020-06-21T21:55:00	0.2105	13.395	214.0	0.502304749	0.601110220	0.008783972	0.090622620	0.027930772
2020-06-21T22:00:00	0.2112	13.386	212.0	0.504660769	0.604375537	0.008859282	0.091399584	0.028170239
2020-06-21T22:05:00	0.2110	13.376	211.0	0.504126618	0.603634841	0.008842180	0.091223143	0.028115859
2020-06-21T22:10:00	0.2105	13.366	211.0	0.502219853	0.600992642	0.008781264	0.090594685	0.027922162
2020-06-21T22:15:00	0.2100	13.355	211.0	0.500655399	0.598826969	0.008731441	0.090080668	0.027763737
2020-06-21T22:20:00	0.2097	13.345	210.0	0.499433726	0.597137176	0.008692633	0.089680289	0.027640336
2020-06-21T22:25:00	0.2096	13.335	210.0	0.499242275	0.596872474	0.008686559	0.089617625	0.027621022
2020-06-21T22:30:00	0.2096	13.324	211.0	0.499050813	0.596607786	0.008680487	0.089554980	0.027601715
2020-06-21T22:35:00	0.2092	13.314	211.0	0.497828565	0.594918775	0.008641773	0.089155580	0.027478616
2020-06-21T22:40:00	0.2088	13.304	211.0	0.496262095	0.592755841	0.008592283	0.088644996	0.027321249
2020-06-21T22:45:00	0.2089	13.293	210.0	0.496758038	0.593440411	0.008607936	0.088806488	0.027371022
2020-06-21T22:50:00	0.2091	13.283	211.0	0.497597593	0.594599732	0.008634467	0.089080204	0.027455384
2020-06-21T22:55:00	0.2093	13.272	211.0	0.498093342	0.595284565	0.008650152	0.089242027	0.027505259
2020-06-21T23:00:00	0.2088	13.261	210.0	0.496526993	0.593121466	0.008600642	0.088731236	0.027347829
2020-06-21T23:05:00	0.2082	13.251	210.0	0.494271988	0.590010805	0.008529612	0.087998434	0.027121972
2020-06-21T23:10:00	0.2081	13.239	212.0	0.494080247	0.589746496	0.008523586	0.087936264	0.027102810
2020-06-21T23:15:00	0.2080	13.229	210.0	0.493544436	0.589008055	0.008506757	0.087762648	0.027049301
2020-06-21T23:20:00	0.2073	13.217	211.0	0.491287453	0.585900067	0.008436053	0.087033205	0.026824479
2020-06-21T23:25:00	0.2072	13.205	210.0	0.490751202	0.585162221	0.008419297	0.086860336	0.026771199
2020-06-21T23:30:00	0.2073	13.191	210.0	0.491247949	0.585845704	0.008434818	0.087020464	0.026820552
2020-06-21T23:35:00	0.2072	13.178	210.0	0.491056037	0.585581626	0.008428820	0.086958583	0.026801480
2020-06-21T23:40:00	0.2070	13.163	210.0	0.490175350	0.584370142	0.008401322	0.086674892	0.026714043
2020-06-21T23:45:00	0.2067	13.149	209.0	0.489294434	0.583158966	0.008373862	0.086391587	0.026626726
2020-06-21T23:50:00	0.2058	13.132	210.0	0.486000263	0.578635293	0.008271569	0.085336253	0.026301462
2020-06-21T23:55:00	0.2060	13.116	209.0	0.486842478	0.579791026	0.008297663	0.085605456	0.026384433
2020-06-22T00:00:00	0.2060	13.101	209.0	0.486650317	0.579527282	0.008291705	0.085543997	0.026365491
2020-06-22T00:05:00	0.2063	13.084	209.0	0.487837042	0.581156552	0.008328529	0.085923897	0.026482580
2020-06-22T00:10:00	0.2063	13.067	210.0	0.487644937	0.580892733	0.008322562	0.085862343	0.026463608
2020-06-22T00:15:00	0.2060	13.049	209.0	0.486763365	0.579682439	0.008295210	0.085580151	0.026376634
2020-06-22T00:20:00	0.2065	13.032	209.0	0.488639267	0.582258574	0.008353467	0.086181182	0.026561877
2020-06-22T00:25:00	0.2072	13.015	211.0	0.490858498	0.585309835	0.008422648	0.086894911	0.026781856
2020-06-22T00:30:00	0.2068	12.997	209.0	0.489633305	0.583624808	0.008384420	0.086500514	0.026660299
2020-06-22T00:35:00	0.2067	12.982	209.0	0.489096793	0.582887313	0.008367707	0.086328088	0.026607155
2020-06-22T00:40:00	0.2068	12.964	209.0	0.489593782	0.583570470	0.008383188	0.086487806	0.026656382
2020-06-22T00:45:00	0.2069	12.945	209.0	0.489746255	0.583780098	0.008387941	0.086536836	0.026671493
2020-06-22T00:50:00	0.2068	12.929	209.0	0.489554258	0.583516134	0.008381956	0.086475099	0.026652465
2020-06-22T00:55:00	0.2072	12.911	208.0	0.490739969	0.585146767	0.008418946	0.086856717	0.026770084
2020-06-22T01:00:00	0.2066	12.891	208.0	0.488825695	0.582514747	0.008359268	0.086241027	0.026580322
2020-06-22T01:05:00	0.2062	12.874	208.0	0.487599769	0.580830707	0.008321160	0.085847873	0.026459148
2020-06-22T01:10:00	0.2060	12.858	208.0	0.486718186	0.579620429	0.008293809	0.085565701	0.026372180
2020-06-22T01:15:00	0.2060	12.840	208.0	0.486870787	0.579829884	0.008298540	0.085614512	0.026387224
2020-06-22T01:20:00	0.2058	12.821	208.0	0.485989014	0.578619861	0.008271221	0.085332660	0.026300355
2020-06-22T01:25:00	0.2049	12.804	208.0	0.483036792	0.574573163	0.008180078	0.084392358	0.026010544
2020-06-22T01:30:00	0.2048	12.785	208.0	0.482499236	0.573837069	0.008163536	0.084221699	0.025957946
2020-06-22T01:35:00	0.2048	12.768	208.0	0.482652028	0.574046268	0.008168236	0.084270189	0.025972891
2020-06-22T01:40:00	0.2048	12.750	208.0	0.482459630	0.573782843	0.008162318	0.084209132	0.025954072
2020-06-22T01:45:00	0.2043	12.732	207.0	0.480886057	0.571629471	0.008113995	0.083710586	0.025800415
2020-06-22T01:50:00	0.2045	12.714	207.0	0.481729542	0.572783502	0.008139880	0.083977640	0.025882724
2020-06-22T01:55:00	0.2048	12.695	207.0	0.482572818	0.573937813	0.008165800	0.084245049	0.025965142
2020-06-22T02:00:00	0.2050	12.678	208.0	0.483415884	0.575092405	0.008191754	0.084512813	0.026047670
2020-06-22T02:05:00	0.2048	12.660	207.0	0.482533212	0.573883587	0.008164581	0.084232480	0.025961269
2020-06-22T02:10:00	0.2054	12.641	207.0	0.484756437	0.576929484	0.008233107	0.084939448	0.026179163
2020-06-22T02:15:00	0.2051	12.623	207.0	0.483529040	0.575247418	0.008195240	0.084548784	0.026058756
2020-06-22T02:20:00	0.2048	12.605	207.0	0.482646398	0.574038560	0.008168063	0.084268402	0.025972340
2020-06-22T02:25:00	0.2046	12.588	207.0	0.481763526	0.572830009	0.008140924	0.083988408	0.025886043
2020-06-22T02:30:00	0.2043	12.570	207.0	0.480880424	0.571621766	0.008113822	0.083708804	0.025799866
2020-06-22T02:35:00	0.2036	12.552	207.0	0.478615003	0.568525105	0.008044502	0.082993644	0.025579447
2020-06-22T02:40:00	0.2042	12.533	207.0	0.480495416	0.571095199	0.008102020	0.083587048	0.025762340
2020-06-22T02:45:00	0.2038	12.517	206.0	0.479266474	0.569415198	0.008064406	0.083198992	0.025642737
2020-06-22T02:50:00	0.2045	12.499	206.0	0.481491842	0.572458230	0.008132581	0.083902340	0.025859516
2020-06-22T02:55:00	0.2044	12.481	206.0	0.481299378	0.572194893	0.008126674	0.083841394	0.025840732
2020-06-22T03:00:00	0.2049	12.462	206.0	0.482833156	0.574294290	0.008173810	0.084327689	0.025990613
2020-06-22T03:05:00	0.2049	12.444	206.0	0.482985933	0.574503510	0.008178512	0.084376205	0.026005566
2020-06-22T03:10:00	0.2049	12.427	206.0	0.483138703	0.574712739	0.008183216	0.084424732	0.026020522
2020-06-22T03:15:00	0.2042	12.411	206.0	0.480529412	0.571141690	0.008103062	0.083597795	0.025765652
2020-06-22T03:20:00	0.2044	12.394	206.0	0.481372986	0.572295602	0.008128933	0.083864700	0.025847915
2020-06-22T03:25:00	0.2037	12.378	206.0	0.478762334	0.568726370	0.008049001	0.083040061	0.025593753
2020-06-22T03:30:00	0.2034	12.362	205.0	0.477878449	0.567519172	0.008022027	0.082761778	0.025507984
2020-06-22T03:35:00	0.2031	12.347	206.0	0.476648558	0.565840438	0.007984569	0.082375326	0.025388876
2020-06-22T03:40:00	0.2030	12.333	206.0	0.476455818	0.565577468	0.007978707	0.082314846	0.025370235
2020-06-22T03:45:00	0.2031	12.318	205.0	0.476608883	0.565786303	0.007983362	0.082362875	0.025385038
2020-06-22T03:50:00	0.2032	12.304	205.0	0.477107705	0.566467007	0.007998543	0.082519493	0.025433309
2020-06-22T03:55:00	0.2032	12.291	205.0	0.477260740	0.566675882	0.008003203	0.082567572	0.025448128
2020-06-22T04:00:00	0.2030	12.277	206.0	0.476376463	0.565469206	0.007976294	0.082289951	0.025362562
2020-06-22T04:05:00	0.2032	12.263	205.0	0.476973225	0.566283474	0.007994449	0.082477255	0.025420291
2020-06-22T04:10:00	0.2032	12.252	207.0	0.477224166	0.566625961	0.008002089	0.082556080	0.025444586
2020-06-22T04:15:00	0.2030	12.243	205.0	0.476437801	0.565552887	0.007978159	0.082309193	0.025368493
2020-06-22T04:20:00	0.2026	12.234	205.0	0.474959391	0.563536782	0.007933264	0.081846020	0.025225738
2020-06-22T04:25:00	0.2029	12.223	205.0	0.475902291	0.564822412	0.007961882	0.082141273	0.025316738
2020-06-22T04:30:00	0.2028	12.212	204.0	0.475807449	0.564693064	0.007959001	0.082111551	0.025307578
2020-06-22T04:35:00	0.2021	12.202	204.0	0.473290511	0.561263023	0.007882735	0.081324726	0.025065070
2020-06-22T04:40:00	0.2027	12.193	205.0	0.475271839	0.563962722	0.007942741	0.081943800	0.025255875
2020-06-22T04:45:00	0.2033	12.185	205.0	0.477597722	0.567135888	0.008013470	0.082673490	0.025480773
2020-06-22T04:50:00	0.2033	12.176	204.0	0.477502927	0.567006477	0.008010581	0.082643688	0.025471587
2020-06-22T04:55:00	0.2036	12.168	205.0	0.478445119	0.568293050	0.008039315	0.082940136	0.025562955
2020-06-22T05:00:00	0.2038	12.160	205.0	0.479041517	0.569107804	0.008057530	0.083128056	0.025620874
2020-06-22T05:05:00	0.2033	12.153	204.0	0.477564244	0.567090185	0.008012450	0.082662965	0.025477529
2020-06-22T05:10:00	0.2031	12.148	205.0	0.476777958	0.566017006	0.007988506	0.082415944	0.025401394
2020-06-22T05:15:00	0.2032	12.143	205.0	0.477028913	0.566359473	0.007996144	0.082494745	0.025425682
2020-06-22T05:20:00	0.2024	12.139	205.0	0.474166855	0.562456718	0.007909248	0.081598257	0.025149375
2020-06-22T05:25:00	0.2025	12.134	204.0	0.474764008	0.563270468	0.007927340	0.081784905	0.025206902
2020-06-22T05:30:00	0.2037	12.132	204.0	0.478818540	0.568803157	0.008050718	0.083057773	0.025599212
2020-06-22T05:35:00	0.2039	12.131	204.0	0.479414872	0.569617999	0.008068944	0.083245804	0.025657165
2020-06-22T05:40:00	0.2033	12.130	204.0	0.477592084	0.567128191	0.008013298	0.082671718	0.025480226
2020-06-22T05:45:00	0.2027	12.132	204.0	0.475422411	0.564168014	0.007947311	0.081990941	0.025270404
2020-06-22T05:50:00	0.2031	12.135	204.0	0.476710987	0.565925621	0.007986468	0.082394921	0.025394915
2020-06-22T05:55:00	0.2029	12.139	203.0	0.475924503	0.564852706	0.007962557	0.082148235	0.025318884
2020-06-22T06:00:00	0.2026	12.143	204.0	0.475137836	0.563780034	0.007938676	0.081901857	0.025242948
2020-06-22T06:05:00	0.2029	12.150	204.0	0.476080686	0.565065731	0.007967303	0.082197194	0.025333973
2020-06-22T06:10:00	0.2033	12.157	204.0	0.477369012	0.566823672	0.008006501	0.082601596	0.025458614
2020-06-22T06:15:00	0.2036	12.165	208.0	0.478311241	0.568110195	0.008035229	0.082897981	0.025549963
2020-06-22T06:20:00	0.2032	12.175	204.0	0.477179407	0.566564869	0.008000726	0.082542018	0.025440252
2020-06-22T06:25:00	0.2035	12.185	205.0	0.478121688	0.567851323	0.008029446	0.082838314	0.025531573
2020-06-22T06:30:00	0.2031	12.197	203.0	0.476644014	0.565834239	0.007984431	0.082373901	0.025388436
2020-06-22T06:35:00	0.2037	12.210	204.0	0.478968954	0.569008659	0.008055313	0.083105181	0.025613824
2020-06-22T06:40:00	0.2033	12.225	206.0	0.477491650	0.566991083	0.008010237	0.082640143	0.025470495
2020-06-22T06:45:00	0.2045	12.241	205.0	0.481542919	0.572528120	0.008134149	0.083918517	0.025864502
2020-06-22T06:50:00	0.2041	12.261	205.0	0.480066738	0.570509046	0.008088890	0.083451585	0.025720589
2020-06-22T06:55:00	0.2041	12.286	205.0	0.480317449	0.570851838	0.008096568	0.083530797	0.025745003
2020-06-22T07:00:00	0.2038	12.316	205.0	0.479186285	0.569305618	0.008061955	0.083173703	0.025634943
2020-06-22T07:05:00	0.2034	12.348	205.0	0.477709076	0.567287915	0.008016864	0.082708505	0.025491565
2020-06-22T07:10:00	0.2035	12.429	206.0	0.477959962	0.567630474	0.008024513	0.082787422	0.025515888
2020-06-22T07:15:00	0.2039	12.468	206.0	0.479593083	0.569861564	0.008074394	0.083302036	0.025674497
2020-06-22T07:20:00	0.2042	12.481	206.0	0.480534693	0.571148912	0.008103224	0.083599465	0.025766167
2020-06-22T07:25:00	0.2042	12.502	206.0	0.480439980	0.571019391	0.008100322	0.083569524	0.025756939
2020-06-22T07:30:00	0.2036	12.542	206.0	0.478617743	0.568528848	0.008044586	0.082994507	0.025579713
2020-06-22T07:35:00	0.2037	12.610	206.0	0.478868562	0.568871497	0.008052246	0.083073537	0.025604071
2020-06-22T07:40:00	0.2042	12.606	207.0	0.480501245	0.571103170	0.008102199	0.083588891	0.025762908
2020-06-22T07:45:00	0.2045	12.670	207.0	0.481442603	0.572390856	0.008131070	0.083886745	0.025854710
2020-06-22T07:50:00	0.2050	12.710	207.0	0.483419167	0.575096903	0.008191855	0.084513856	0.026047991
2020-06-22T07:55:00	0.2052	12.723	207.0	0.484014690	0.575912825	0.008210213	0.084703253	0.026106365
2020-06-22T08:00:00	0.2054	12.702	207.0	0.484610109	0.576728888	0.008228588	0.084892827	0.026164794
2020-06-22T08:05:00	0.2054	12.730	207.0	0.484860484	0.577072129	0.008236321	0.084972606	0.026189382
2020-06-22T08:10:00	0.2055	12.784	207.0	0.485110841	0.577415395	0.008244057	0.085052417	0.026213981
2020-06-22T08:15:00	0.2050	12.794	207.0	0.483291114	0.574921496	0.008187910	0.084473158	0.026035448
2020-06-22T08:20:00	0.2057	12.834	207.0	0.485611499	0.578102001	0.008259538	0.085212131	0.026263206
2020-06-22T08:25:00	0.2056	12.866	207.0	0.485516928	0.577972290	0.008256613	0.085181951	0.026253904
2020-06-22T08:30:00	0.2050	12.915	208.0	0.483352327	0.575005343	0.008189796	0.084492612	0.026041444
2020-06-22T08:35:00	0.2059	12.973	208.0	0.486362348	0.579132096	0.008282782	0.085451937	0.026337117
2020-06-22T08:40:00	0.2063	13.019	208.0	0.487646772	0.580895252	0.008322619	0.085862931	0.026463789
2020-06-22T08:45:00	0.2060	13.047	208.0	0.486862822	0.579818950	0.008298293	0.085611964	0.026386439
2020-06-22T08:50:00	0.2063	13.081	208.0	0.487802416	0.581108998	0.008327453	0.085912801	0.026479160
2020-06-22T08:55:00	0.2058	13.132	209.0	0.485984132	0.578613163	0.008271070	0.085331101	0.026299874
2020-06-22T09:00:00	0.2064	13.174	208.0	0.488302678	0.581796137	0.008342999	0.086073187	0.026528592
2020-06-22T09:05:00	0.2068	13.207	209.0	0.489586369	0.583560279	0.008382957	0.086485423	0.026655647
2020-06-22T09:10:00	0.2065	13.275	209.0	0.488458292	0.582009923	0.008347838	0.086123108	0.026543978
2020-06-22T09:15:00	0.2069	13.320	209.0	0.489741924	0.583774144	0.008387806	0.086535443	0.026671064
2020-06-22T09:20:00	0.2061	13.369	210.0	0.487235317	0.580330296	0.008309848	0.085731166	0.026423178
2020-06-22T09:25:00	0.2060	13.427	210.0	0.486796049	0.579727299	0.008296223	0.085590605	0.026379856
2020-06-22T09:30:00	0.2058	13.493	210.0	0.486011902	0.578651261	0.008271929	0.085339970	0.026302608
2020-06-22T09:35:00	0.2049	13.542	211.0	0.482812280	0.574265703	0.008173167	0.084321061	0.025988570
2020-06-22T09:40:00	0.2051	13.596	211.0	0.483752996	0.575554246	0.008202143	0.084620000	0.026080706
2020-06-22T09:45:00	0.2053	13.662	211.0	0.484348461	0.576370247	0.008220511	0.084809496	0.026139110
2020-06-22T09:50:00	0.2060	13.702	212.0	0.486668124	0.579551721	0.008292257	0.085549691	0.026367246
2020-06-22T09:55:00	0.2062	13.732	212.0	0.487607772	0.580841697	0.008321408	0.085850437	0.026459938
2020-06-22T10:00:00	0.2061	13.778	212.0	0.487168552	0.580238635	0.008307776	0.085709794	0.026416591
2020-06-22T10:05:00	0.2055	13.828	212.0	0.485005004	0.577270275	0.008240786	0.085018673	0.026203581
2020-06-22T10:10:00	0.2054	13.849	212.0	0.484565447	0.576667666	0.008227209	0.084878600	0.026160409
2020-06-22T10:15:00	0.2059	13.876	212.0	0.486540193	0.579376149	0.008288293	0.085508786	0.026354638
2020-06-22T10:20:00	0.2047	13.922	212.0	0.482305578	0.573571942	0.008157581	0.084160260	0.025939009
2020-06-22T10:25:00	0.2047	13.967	212.0	0.482210915	0.573442355	0.008154671	0.084130235	0.025929756
2020-06-22T10:30:00	0.2047	13.973	212.0	0.482116249	0.573312772	0.008151761	0.084100215	0.025920503
2020-06-22T10:35:00	0.2038	14.006	213.0	0.479258491	0.569404288	0.008064162	0.083196474	0.025641961
2020-06-22T10:40:00	0.2046	14.020	212.0	0.481926909	0.573053615	0.008145943	0.084040189	0.025902002
2020-06-22T10:45:00	0.2036	14.069	212.0	0.478377828	0.568201141	0.008037262	0.082918946	0.025556425
2020-06-22T10:50:00	0.2035	14.080	213.0	0.478283055	0.568071700	0.008034369	0.082889107	0.025547228
2020-06-22T10:55:00	0.2028	14.103	214.0	0.475767960	0.564639210	0.007957802	0.082099178	0.025303764
2020-06-22T11:00:00	0.2024	14.140	213.0	0.474289257	0.562623494	0.007912955	0.081636498	0.025161162
2020-06-22T11:05:00	0.2027	14.148	213.0	0.475232344	0.563908877	0.007941543	0.081931437	0.025252064
2020-06-22T11:10:00	0.2017	14.171	213.0	0.472022515	0.559536927	0.007844451	0.080929752	0.024943336
2020-06-22T11:15:00	0.2009	14.217	214.0	0.469156212	0.555639801	0.007758248	0.080040410	0.024669232
2020-06-22T11:20:00	0.2010	14.246	214.0	0.469407733	0.555981517	0.007765793	0.080118257	0.024693225
2020-06-22T11:25:00	0.2003	14.277	214.0	0.466886020	0.552557798	0.007690306	0.079339466	0.024453194
2020-06-22T11:30:00	0.2019	14.333	214.0	0.472681453	0.560433765	0.007864334	0.081134889	0.025006561
2020-06-22T11:35:00	0.2006	14.357	214.0	0.468082796	0.554182027	0.007726086	0.079708604	0.024566966
2020-06-22T11:40:00	0.2006	14.391	214.0	0.467987734	0.554052970	0.007723241	0.079679252	0.024557919
2020-06-22T11:45:00	0.2012	14.427	215.0	0.470318634	0.557219485	0.007793150	0.080400497	0.024780214
2020-06-22T11:50:00	0.2004	14.454	215.0	0.467450883	0.553324272	0.007707183	0.079513589	0.024506860
2020-06-22T11:55:00	0.2005	14.504	215.0	0.467702532	0.553665820	0.007714708	0.079591222	0.024530788
2020-06-22T12:00:00	0.2003	14.542	216.0	0.466913947	0.552595687	0.007691140	0.079348070	0.024455846
2020-06-22T12:05:00	0.2006	14.550	216.0	0.468205772	0.554348991	0.007729767	0.079746583	0.024578671
2020-06-22T12:10:00	0.2012	14.550	216.0	0.470190085	0.557044738	0.007789287	0.080360636	0.024767929
2020-06-22T12:15:00	0.2015	14.553	215.0	0.471134317	0.558328604	0.007817688	0.080653648	0.024858238
2020-06-22T12:20:00	0.2017	14.554	216.0	0.471732005	0.559141643	0.007835692	0.080839393	0.024915486
2020-06-22T12:25:00	0.2007	14.578	216.0	0.468518846	0.554774103	0.007739143	0.079843311	0.024608484
2020-06-22T12:30:00	0.2016	14.605	216.0	0.471542084	0.558883261	0.007829969	0.080780348	0.024897288
2020-06-22T12:35:00	0.2015	14.620	216.0	0.471100775	0.558282985	0.007816678	0.080643230	0.024855027
2020-06-22T12:40:00	0.2018	14.626	216.0	0.472390999	0.560038405	0.007855567	0.081044435	0.024978682
2020-06-22T12:45:00	0.2015	14.613	216.0	0.471257181	0.558495714	0.007821388	0.080691814	0.024870001
2020-06-22T12:50:00	0.2011	14.602	216.0	0.469776503	0.556482617	0.007776863	0.080232460	0.024728423
2020-06-22T12:55:00	0.2010	14.609	216.0	0.469334963	0.555882647	0.007763610	0.080095731	0.024686282
2020-06-22T13:00:00	0.2010	14.647	216.0	0.469586471	0.556224381	0.007771158	0.080173600	0.024710282
2020-06-22T13:05:00	0.2011	14.678	216.0	0.469837961	0.556566139	0.007778708	0.080251501	0.024734292
2020-06-22T13:10:00	0.2008	14.689	217.0	0.468703285	0.555024583	0.007744669	0.079900322	0.024626055
2020-06-22T13:15:00	0.2007	14.694	216.0	0.468608240	0.554895503	0.007741821	0.079870940	0.024617000
2020-06-22T13:20:00	0.2008	14.697	217.0	0.468859802	0.555237165	0.007749360	0.079948718	0.024640971
2020-06-22T13:25:00	0.2008	14.699	217.0	0.468764762	0.555108079	0.007746511	0.079919330	0.024631914
2020-06-22T13:30:00	0.2008	14.702	216.0	0.468669719	0.554978996	0.007743663	0.079889945	0.024622857
2020-06-22T13:35:00	0.2009	14.707	217.0	0.469267844	0.555791458	0.007761596	0.080074956	0.024679879
2020-06-22T13:40:00	0.2004	14.704	217.0	0.467439573	0.553308922	0.007706845	0.079510101	0.024505785
2020-06-22T13:45:00	0.2001	14.702	216.0	0.466304090	0.551768431	0.007672937	0.079160278	0.024397966
2020-06-22T13:50:00	0.1996	14.717	217.0	0.464474210	0.549288015	0.007618448	0.078598123	0.024224705
2020-06-22T13:55:00	0.2001	14.738	217.0	0.466460719	0.551980866	0.007677610	0.079208488	0.024412825
2020-06-22T14:00:00	0.1999	14.741	216.0	0.465671843	0.550911116	0.007654089	0.078965823	0.024338034
2020-06-22T14:05:00	0.2001	14.748	216.0	0.466270500	0.551722876	0.007671935	0.079149941	0.024394781
2020-06-22T14:10:00	0.1999	14.751	217.0	0.465828502	0.551123512	0.007658757	0.079013983	0.024352877
2020-06-22T14:15:00	0.1995	14.749	217.0	0.464345438	0.549113563	0.007614621	0.078558637	0.024212535
2020-06-22T14:20:00	0.1985	14.750	216.0	0.460777822	0.544285624	0.007508962	0.077468573	0.023876566
2020-06-22T14:25:00	0.1982	14.758	217.0	0.459640090	0.542748087	0.007475419	0.077122520	0.023769910
2020-06-22T14:30:00	0.1976	14.779	217.0	0.457806584	0.540272431	0.007421519	0.076566444	0.023598521
2020-06-22T14:35:00	0.1976	14.806	216.0	0.457711231	0.540143755	0.007418721	0.076537578	0.023589625
2020-06-22T14:40:00	0.1979	14.822	217.0	0.458658966	0.541423013	0.007446553	0.076824713	0.023678123
2020-06-22T14:45:00	0.1975	14.827	217.0	0.457172739	0.539417212	0.007402930	0.076374667	0.023539414
2020-06-22T14:50:00	0.1973	14.827	217.0	0.456729544	0.538819417	0.007389946	0.076240714	0.023498128
2020-06-22T14:55:00	0.1980	14.822	217.0	0.459068246	0.541975680	0.007458588	0.076948876	0.023716391
2020-06-22T15:00:00	0.1981	14.823	217.0	0.459320521	0.542316404	0.007466011	0.077025457	0.023739994
2020-06-22T15:05:00	0.1967	14.820	217.0	0.454703574	0.536088705	0.007330735	0.075629846	0.023309853
2020-06-22T15:10:00	0.1960	14.821	217.0	0.452170813	0.532679467	0.007257042	0.074869561	0.023075526
2020-06-22T15:15:00	0.1957	14.825	217.0	0.451030162	0.531145740	0.007223972	0.074528390	0.022970374
2020-06-22T15:20:00	0.1951	14.819	217.0	0.448843303	0.528208140	0.007160778	0.073876430	0.022769433
2020-06-22T15:25:00	0.1944	14.813	217.0	0.446655016	0.525272392	0.007097815	0.073226852	0.022569227
2020-06-22T15:30:00	0.1944	14.807	217.0	0.446559346	0.525144129	0.007095069	0.073198517	0.022560494
2020-06-22T15:35:00	0.1943	14.808	217.0	0.446114746	0.524548160	0.007082312	0.073066908	0.022519931
2020-06-22T15:40:00	0.1945	14.805	217.0	0.446716898	0.525355359	0.007099592	0.073245183	0.022574877
2020-06-22T15:45:00	0.1941	14.802	217.0	0.445574389	0.523824040	0.007066823	0.072907110	0.022470679
2020-06-22T15:50:00	0.1941	14.793	217.0	0.445478688	0.523695818	0.007064082	0.072878827	0.022461962
2020-06-22T15:55:00	0.1939	14.786	217.0	0.444684868	0.522632516	0.007041361	0.072644428	0.022389718
2020-06-22T16:00:00	0.1931	14.779	217.0	0.442144519	0.519233108	0.006968894	0.071896793	0.022159290
2020-06-22T16:05:00	0.1928	14.775	217.0	0.440982908	0.517641873	0.006935363	0.071550864	0.022052671
2020-06-22T16:10:00	0.1921	14.768	216.0	0.438970663	0.514186765	0.006868099	0.070856909	0.021838788
2020-06-22T16:15:00	0.1908	14.762	217.0	0.435594626	0.508415402	0.006756146	0.069701911	0.021482806
2020-06-22T16:20:00	0.1906	14.761	217.0	0.434938907	0.507298137	0.006734532	0.069478924	0.021414079
2020-06-22T16:25:00	0.1891	14.757	217.0	0.431008487	0.500626307	0.006605862	0.068151465	0.021004943
2020-06-22T16:30:00	0.1893	14.755	217.0	0.431443586	0.501362762	0.006620032	0.068297645	0.021049998
2020-06-22T16:35:00	0.1890	14.755	217.0	0.430513023	0.499788317	0.006589750	0.067985236	0.020953710
2020-06-22T16:40:00	0.1885	14.759	217.0	0.429308535	0.497753988	0.006550680	0.067582161	0.020829478
2020-06-22T16:45:00	0.1880	14.752	217.0	0.427829520	0.495261509	0.006502900	0.067089217	0.020677548
2020-06-22T16:50:00	0.1877	14.745	217.0	0.427170711	0.494153223	0.006481685	0.066870349	0.020610091
2020-06-22T16:55:00	0.1880	14.737	217.0	0.427880509	0.495347336	0.006504543	0.067106174	0.020682775
2020-06-22T17:00:00	0.1884	14.728	217.0	0.428863518	0.497003392	0.006536281	0.067433609	0.020783693
2020-06-22T17:05:00	0.1888	14.719	217.0	0.430119250	0.499122807	0.006576962	0.067853301	0.020913046
2020-06-22T17:10:00	0.1885	14.708	217.0	0.429187939	0.497550528	0.006546776	0.067541885	0.020817065
2020-06-22T17:15:00	0.1882	14.695	217.0	0.428529675	0.496440674	0.006525492	0.067322299	0.020749386
2020-06-22T17:20:00	0.1879	14.686	217.0	0.427597464	0.494870993	0.006495422	0.067012074	0.020653772
2020-06-22T17:25:00	0.1881	14.679	217.0	0.428033465	0.495604841	0.006509476	0.067157059	0.020698458
2020-06-22T17:30:00	0.1879	14.672	216.0	0.427648459	0.494956798	0.006497065	0.067029022	0.020658995
2020-06-22T17:35:00	0.1880	14.664	217.0	0.427810798	0.495229998	0.006502296	0.067082991	0.020675629
2020-06-22T17:40:00	0.1877	14.656	216.0	0.427151982	0.494121732	0.006481082	0.066864133	0.020608175
2020-06-22T17:45:00	0.1879	14.648	217.0	0.427588101	0.494855241	0.006495121	0.067008962	0.020652813
2020-06-22T17:50:00	0.1879	14.636	217.0	0.427750446	0.495128423	0.006500351	0.067062924	0.020669444
2020-06-22T17:55:00	0.1880	14.626	217.0	0.427912775	0.495401651	0.006505584	0.067116906	0.020686082
2020-06-22T18:00:00	0.1876	14.614	217.0	0.426706379	0.493372819	0.006466758	0.066716352	0.020562627
2020-06-22T18:05:00	0.1870	14.602	217.0	0.425225013	0.490887085	0.006419277	0.066226497	0.020411650
2020-06-22T18:10:00	0.1866	14.589	216.0	0.424016632	0.488863925	0.006380703	0.065828541	0.020288996
2020-06-22T18:15:00	0.1867	14.576	217.0	0.424453588	0.489595043	0.006394635	0.065972275	0.020333296
2020-06-22T18:20:00	0.1868	14.560	217.0	0.424616244	0.489867335	0.006399826	0.066025829	0.020349802
2020-06-22T18:25:00	0.1864	14.545	217.0	0.423407412	0.487845459	0.006361310	0.065628460	0.020227329
2020-06-22T18:30:00	0.1869	14.530	217.0	0.424941508	0.490412057	0.006410214	0.066133000	0.020382833
2020-06-22T18:35:00	0.1866	14.514	216.0	0.424007249	0.488848232	0.006380404	0.065825457	0.020288045
2020-06-22T18:40:00	0.1864	14.497	216.0	0.423621294	0.488202901	0.006368114	0.065698662	0.020248966
2020-06-22T18:45:00	0.1862	14.481	216.0	0.422960785	0.487099462	0.006347115	0.065482014	0.020182193
2020-06-22T18:50:00	0.1860	14.465	216.0	0.422300008	0.485996783	0.006326149	0.065265715	0.020115527
2020-06-22T18:55:00	0.1861	14.446	216.0	0.422737426	0.486726594	0.006340023	0.065408851	0.020159643
2020-06-22T19:00:00	0.1863	14.426	216.0	0.423174726	0.487456737	0.006353912	0.065552139	0.020203806
2020-06-22T19:05:00	0.1867	14.403	216.0	0.424434828	0.489563641	0.006394037	0.065966100	0.020331393
2020-06-22T19:10:00	0.1869	14.380	216.0	0.424871672	0.490295078	0.006407983	0.066109981	0.020375738
2020-06-22T19:15:00	0.1876	14.357	216.0	0.426678277	0.493325607	0.006465855	0.066707038	0.020559757
2020-06-22T19:20:00	0.1879	14.335	215.0	0.427662006	0.494979594	0.006497501	0.067033524	0.020660383
2020-06-22T19:25:00	0.1881	14.314	215.0	0.428097990	0.495713491	0.006511557	0.067178532	0.020705076
2020-06-22T19:30:00	0.1879	14.293	215.0	0.427713000	0.495065405	0.006499144	0.067050475	0.020665608
2020-06-22T19:35:00	0.1886	14.272	215.0	0.429516477	0.498104904	0.006557415	0.067651643	0.020850893
2020-06-22T19:40:00	0.1888	14.251	215.0	0.429951969	0.498840219	0.006571534	0.067797300	0.020895786
2020-06-22T19:45:00	0.1887	14.229	215.0	0.429840769	0.498652412	0.006567927	0.067760090	0.020884318
2020-06-22T19:50:00	0.1887	14.207	215.0	0.429729562	0.498464626	0.006564321	0.067722889	0.020872852
2020-06-22T19:55:00	0.1887	14.184	215.0	0.429891696	0.498738417	0.006569578	0.067777130	0.020889570
2020-06-22T20:00:00	0.1894	14.160	215.0	0.431692789	0.501784806	0.006628155	0.068381457	0.021075829
2020-06-22T20:05:00	0.1893	14.136	214.0	0.431308639	0.501134292	0.006615635	0.068252287	0.021036018
2020-06-22T20:10:00	0.1894	14.111	214.0	0.431743658	0.501870977	0.006629814	0.068398573	0.021081104
2020-06-22T20:15:00	0.1889	14.086	214.0	0.430266829	0.499372178	0.006581753	0.067902729	0.020928281
2020-06-22T20:20:00	0.1885	14.060	214.0	0.429335602	0.497799658	0.006551557	0.067591203	0.020832265
2020-06-22T20:25:00	0.1884	14.035	214.0	0.428950902	0.497150736	0.006539107	0.067462763	0.020792679
2020-06-22T20:30:00	0.1889	14.010	214.0	0.430479817	0.499732180	0.006588671	0.067974104	0.020950279
2020-06-22T20:35:00	0.1889	13.984	214.0	0.430368653	0.499544270	0.006585060	0.067936846	0.020938796
2020-06-22T20:40:00	0.1892	13.959	214.0	0.431077072	0.500742360	0.006608095	0.068174495	0.021012041
2020-06-22T20:45:00	0.1896	13.935	214.0	0.432331121	0.502866654	0.006648992	0.068596425	0.021142084
2020-06-22T20:50:00	0.1897	13.910	213.0	0.432493000	0.503141186	0.006654282	0.068651006	0.021158907
2020-06-22T20:55:00	0.1898	13.886	213.0	0.432927708	0.503878778	0.006668502	0.068797708	0.021204122
2020-06-22T21:00:00	0.1902	13.864	212.0	0.433907717	0.505543541	0.006700627	0.069129136	0.021306271
2020-06-22T21:05:00	0.1904	13.842	212.0	0.434342055	0.506282216	0.006714895	0.069276335	0.021351639
2020-06-22T21:10:00	0.1898	13.819	212.0	0.432867543	0.503776662	0.006666533	0.068777392	0.021197860
2020-06-22T21:15:00	0.1894	13.796	213.0	0.431664772	0.501737348	0.006627242	0.068372031	0.021072924
2020-06-22T21:20:00	0.1891	13.775	212.0	0.431007497	0.500624632	0.006605830	0.068151132	0.021004841
2020-06-22T21:25:00	0.1897	13.753	212.0	0.432534510	0.503211596	0.006655640	0.068665006	0.021163222
2020-06-22T21:30:00	0.1897	13.731	212.0	0.432423484	0.503023284	0.006652010	0.068627564	0.021151682
2020-06-22T21:35:00	0.1897	13.710	212.0	0.432585353	0.503297843	0.006657302	0.068682156	0.021168508
2020-06-22T21:40:00	0.1902	13.688	212.0	0.433838261	0.505425466	0.006698347	0.069105614	0.021299021
2020-06-22T21:45:00	0.1899	13.667	212.0	0.433181848	0.504310234	0.006676824	0.068883562	0.021230583
2020-06-22T21:50:00	0.1902	13.645	212.0	0.433889064	0.505511829	0.006700015	0.069122818	0.021304324
2020-06-22T21:55:00	0.1908	13.624	212.0	0.435413427	0.508106540	0.006750169	0.069640248	0.021463801
2020-06-22T22:00:00	0.1917	13.603	212.0	0.438024710	0.512566438	0.006836616	0.070532112	0.021738682
2020-06-22T22:05:00	0.1924	13.582	211.0	0.439776127	0.515568420	0.006894975	0.071134189	0.021924248
2020-06-22T22:10:00	0.1919	13.561	211.0	0.438537405	0.513444325	0.006853668	0.070708034	0.021792903
2020-06-22T22:15:00	0.1922	13.539	211.0	0.439473220	0.515048613	0.006884860	0.071029836	0.021892085
2020-06-22T22:20:00	0.1927	13.517	211.0	0.440680095	0.517121205	0.006925215	0.071446169	0.022020403
2020-06-22T22:25:00	0.1925	13.496	211.0	0.440257122	0.516394361	0.006911056	0.071300088	0.021975379
2020-06-22T22:30:00	0.1927	13.473	211.0	0.440648937	0.517067645	0.006924172	0.071435402	0.022017085
2020-06-22T22:35:00	0.1925	13.452	211.0	0.440225957	0.516340826	0.006910013	0.071289331	0.021972064
2020-06-22T22:40:00	0.1931	13.430	211.0	0.441881964	0.518882056	0.006961425	0.071819738	0.022135541
2020-06-22T22:45:00	0.1937	13.409	211.0	0.444132179	0.521892494	0.007025564	0.072481447	0.022339486
2020-06-22T22:50:00	0.1932	13.388	211.0	0.442191250	0.519295596	0.006970224	0.071910512	0.022163518
2020-06-22T22:55:00	0.1930	13.366	210.0	0.441647132	0.518568116	0.006954748	0.071750853	0.022114310
2020-06-22T23:00:00	0.1930	13.346	210.0	0.441801789	0.518774867	0.006959145	0.071796216	0.022128291
2020-06-22T23:05:00	0.1934	13.326	210.0	0.443004413	0.520383221	0.006993383	0.072149440	0.022237158
2020-06-22T23:10:00	0.1930	13.306	210.0	0.441761701	0.518721274	0.006958005	0.071784456	0.022124666
2020-06-22T23:15:00	0.1931	13.288	210.0	0.441916353	0.518928032	0.006962403	0.071829828	0.022138651
2020-06-22T23:20:00	0.1930	13.269	210.0	0.441721612	0.518667681	0.006956865	0.071772697	0.022121042
2020-06-22T23:25:00	0.1936	13.250	210.0	0.443622748	0.521210606	0.007011018	0.072331382	0.022293234
2020-06-22T23:30:00	0.1940	13.230	210.0	0.445173778	0.523287340	0.007055350	0.072788749	0.022434199
2020-06-22T23:35:00	0.1940	13.210	210.0	0.444979227	0.523026744	0.007049782	0.072731303	0.022416494
2020-06-22T23:40:00	0.1938	13.189	209.0	0.444435562	0.522298679	0.007034233	0.072570889	0.022367053
2020-06-22T23:45:00	0.1933	13.169	210.0	0.442844114	0.520168777	0.006988814	0.072102310	0.022222632
2020-06-22T23:50:00	0.1939	13.147	210.0	0.444744612	0.522712524	0.007043070	0.072662056	0.022395151
2020-06-22T23:55:00	0.1934	13.126	210.0	0.443153311	0.520582432	0.006997627	0.072193232	0.022250655
2020-06-23T00:00:00	0.1932	13.107	209.0	0.442260020	0.519387558	0.006972181	0.071930704	0.022169741
2020-06-23T00:05:00	0.1928	13.085	208.0	0.441031804	0.517725969	0.006937003	0.071567778	0.022057884
2020-06-23T00:10:00	0.1931	13.063	209.0	0.441870568	0.518866819	0.006961101	0.071816394	0.022134510
2020-06-23T00:15:00	0.1923	13.041	209.0	0.439642562	0.515339182	0.006890514	0.071088164	0.021910062
2020-06-23T00:20:00	0.1927	13.021	208.0	0.440577761	0.516945306	0.006921788	0.071410809	0.022009505
2020-06-23T00:25:00	0.1932	12.998	208.0	0.442334487	0.519487141	0.006974300	0.071952571	0.022176481
2020-06-23T00:30:00	0.1930	12.976	208.0	0.441790392	0.518759630	0.006958821	0.071792872	0.022127260
2020-06-23T00:35:00	0.1933	12.953	208.0	0.442643730	0.519900735	0.006983106	0.072043415	0.022204480
2020-06-23T00:40:00	0.1929	12.929	208.0	0.441400885	0.518238961	0.006947750	0.071678654	0.022092057
2020-06-23T00:45:00	0.1931	12.905	208.0	0.441904956	0.518912795	0.006962079	0.071826484	0.022137620
2020-06-23T00:50:00	0.1932	12.884	208.0	0.442408952	0.519586726	0.006976420	0.071974440	0.022183222
2020-06-23T00:55:00	0.1937	12.861	208.0	0.443960545	0.521662734	0.007020662	0.072430871	0.022323898
2020-06-23T01:00:00	0.1931	12.839	208.0	0.442019516	0.519065965	0.006965337	0.071860102	0.022147981
2020-06-23T01:05:00	0.1934	12.816	208.0	0.442872796	0.520207145	0.006989632	0.072110741	0.022225231
2020-06-23T01:10:00	0.1931	12.793	208.0	0.441979430	0.519012368	0.006964197	0.071848338	0.022144355
2020-06-23T01:15:00	0.1926	12.772	207.0	0.440542171	0.516884140	0.006920596	0.071398515	0.022005716
2020-06-23T01:20:00	0.1925	12.749	207.0	0.440119164	0.516157400	0.006906441	0.071252481	0.021960707
2020-06-23T01:25:00	0.1926	12.728	207.0	0.440511011	0.516830588	0.006919553	0.071387751	0.022002398
2020-06-23T01:30:00	0.1919	12.707	207.0	0.438457270	0.513307060	0.006851001	0.070680520	0.021784423
2020-06-23T01:35:00	0.1915	12.686	207.0	0.437489671	0.511651075	0.006818849	0.070348807	0.021682186
2020-06-23T01:40:00	0.1922	12.666	207.0	0.439241647	0.514651394	0.006877134	0.070950121	0.021867516
2020-06-23T01:45:00	0.1920	12.648	207.0	0.438818312	0.513925633	0.006863022	0.070804537	0.021822646
2020-06-23T01:50:00	0.1922	12.628	207.0	0.439210462	0.514597914	0.006876094	0.070939390	0.021864209
2020-06-23T01:55:00	0.1918	12.609	207.0	0.438243299	0.512940637	0.006843883	0.070607084	0.021761789
2020-06-23T02:00:00	0.1914	12.588	207.0	0.437275576	0.511285019	0.006811747	0.070275540	0.021659604
2020-06-23T02:05:00	0.1921	12.568	207.0	0.439027776	0.514284673	0.006870002	0.070876548	0.021844841
2020-06-23T02:10:00	0.1922	12.548	207.0	0.439419877	0.514957101	0.006883080	0.071011469	0.021886424
2020-06-23T02:15:00	0.1925	12.528	206.0	0.440083565	0.516096263	0.006905251	0.071240199	0.021956921
2020-06-23T02:20:00	0.1925	12.510	207.0	0.440203805	0.516302775	0.006909272	0.071281687	0.021969708
2020-06-23T02:25:00	0.1929	12.490	206.0	0.441154619	0.517909831	0.006940754	0.071606485	0.022069814
2020-06-23T02:30:00	0.1929	12.473	206.0	0.441309299	0.518116553	0.006945148	0.071651810	0.022083784
2020-06-23T02:35:00	0.1934	12.455	206.0	0.443210669	0.520659176	0.006999263	0.072210105	0.022255856
2020-06-23T02:40:00	0.1931	12.438	206.0	0.441968034	0.518997130	0.006963873	0.071844993	0.022143325
2020-06-23T02:45:00	0.1924	12.421	206.0	0.439990057	0.515935689	0.006902124	0.071207946	0.021946980
2020-06-23T02:50:00	0.1931	12.403	206.0	0.441927948	0.518943534	0.006962733	0.071833230	0.022139699
2020-06-23T02:55:00	0.1939	12.385	206.0	0.444876352	0.522888959	0.007046839	0.072700935	0.022407134
2020-06-23T03:00:00	0.1943	12.368	206.0	0.446077871	0.524498737	0.007081255	0.073055998	0.022516568
2020-06-23T03:05:00	0.1944	12.353	206.0	0.446581238	0.525173480	0.007095697	0.073205001	0.022562492
2020-06-23T03:10:00	0.1947	12.337	205.0	0.447433356	0.526316161	0.007120179	0.073457575	0.022640338
2020-06-23T03:15:00	0.1942	12.322	206.0	0.445843333	0.524184417	0.007074530	0.072986623	0.022495186
2020-06-23T03:20:00	0.1944	12.307	205.0	0.446695638	0.525326856	0.007098982	0.073238885	0.022572936
2020-06-23T03:25:00	0.1945	12.294	205.0	0.446850062	0.525533908	0.007103416	0.073284636	0.022587037
2020-06-23T03:30:00	0.1948	12.280	205.0	0.448050873	0.527144602	0.007137947	0.073640879	0.022696834
2020-06-23T03:35:00	0.1944	12.267	205.0	0.446461144	0.525012480	0.007092250	0.073169438	0.022551531
2020-06-23T03:40:00	0.1941	12.253	205.0	0.445568736	0.523816467	0.007066661	0.072905439	0.022470164
2020-06-23T03:45:00	0.1938	12.239	205.0	0.444326977	0.522153291	0.007031130	0.072538870	0.022357184
2020-06-23T03:50:00	0.1940	12.225	205.0	0.445179668	0.523295231	0.007055519	0.072790489	0.022434736
2020-06-23T03:55:00	0.1939	12.212	204.0	0.444636036	0.522567123	0.007039965	0.072630021	0.022385278
2020-06-23T04:00:00	0.1931	12.202	204.0	0.441996723	0.519035489	0.006964689	0.071853413	0.022145920
2020-06-23T04:05:00	0.1931	12.192	204.0	0.441944133	0.518965174	0.006963193	0.071837979	0.022141163
2020-06-23T04:10:00	0.1941	12.182	205.0	0.445383577	0.523568393	0.007061357	0.072850723	0.022453300
2020-06-23T04:15:00	0.1944	12.173	204.0	0.446377956	0.524900965	0.007089863	0.073144809	0.022543940
2020-06-23T04:20:00	0.1950	12.165	204.0	0.448767007	0.528105720	0.007158579	0.073853735	0.022762438
2020-06-23T04:25:00	0.1944	12.157	204.0	0.446621822	0.525227889	0.007096862	0.073217020	0.022566197
2020-06-23T04:30:00	0.1948	12.152	203.0	0.447964605	0.527028849	0.007135463	0.073615257	0.022688937
2020-06-23T04:35:00	0.1944	12.150	205.0	0.446516785	0.525087072	0.007093847	0.073185913	0.022556609
2020-06-23T04:40:00	0.1950	12.146	204.0	0.448557064	0.527823916	0.007152527	0.073791303	0.022743196
2020-06-23T04:45:00	0.1959	12.143	204.0	0.451641375	0.531967453	0.007241683	0.074711110	0.023026690
2020-06-23T04:50:00	0.1959	12.143	204.0	0.451588935	0.531896942	0.007240163	0.074695425	0.023021855
2020-06-23T04:55:00	0.1958	12.143	204.0	0.451536495	0.531826432	0.007238643	0.074679741	0.023017021
2020-06-23T05:00:00	0.1956	12.145	204.0	0.450787209	0.530819195	0.007216938	0.074455821	0.022948007
2020-06-23T05:05:00	0.1964	12.149	204.0	0.453521313	0.534496685	0.007296291	0.075274485	0.023200327
2020-06-23T05:10:00	0.1964	12.152	203.0	0.453468903	0.534426136	0.007294766	0.075258751	0.023195478
2020-06-23T05:15:00	0.1966	12.159	205.0	0.454112791	0.535293026	0.007313513	0.075452168	0.023255091
2020-06-23T05:20:00	0.1964	12.164	205.0	0.453364080	0.534285041	0.007291716	0.075227287	0.023185780
2020-06-23T05:25:00	0.1966	12.170	203.0	0.454356095	0.535620680	0.007320603	0.075525317	0.023277636
2020-06-23T05:30:00	0.1964	12.179	204.0	0.453607438	0.534612624	0.007298797	0.075300345	0.023208298
2020-06-23T05:35:00	0.1968	12.183	204.0	0.454947427	0.536417211	0.007337850	0.075703244	0.023332475
2020-06-23T05:40:00	0.1965	12.192	204.0	0.453850779	0.534940230	0.007305882	0.075373433	0.023230824
2020-06-23T05:45:00	0.1971	12.206	205.0	0.455886602	0.537682861	0.007365282	0.075986258	0.023419703
2020-06-23T05:50:00	0.1973	12.220	205.0	0.456530028	0.538550355	0.007384105	0.076180449	0.023479554
2020-06-23T05:55:00	0.1973	12.227	204.0	0.456477664	0.538479744	0.007382572	0.076164636	0.023474681
2020-06-23T06:00:00	0.1979	12.232	205.0	0.458859537	0.541693836	0.007452450	0.076885548	0.023696873
2020-06-23T06:05:00	0.1979	12.242	204.0	0.458807210	0.541623178	0.007450911	0.076869675	0.023691980
2020-06-23T06:10:00	0.1980	12.255	204.0	0.459102498	0.542021938	0.007459595	0.076959271	0.023719595
2020-06-23T06:15:00	0.1983	12.269	205.0	0.460092820	0.543359786	0.007488758	0.077260132	0.023812323
2020-06-23T06:20:00	0.1982	12.281	205.0	0.459692995	0.542819560	0.007476977	0.077138595	0.023774864
2020-06-23T06:25:00	0.1987	12.294	205.0	0.461377939	0.545097038	0.007526684	0.077651411	0.023932919
2020-06-23T06:30:00	0.1985	12.307	205.0	0.460978266	0.544556612	0.007514879	0.077529619	0.023895381
2020-06-23T06:35:00	0.1983	12.321	205.0	0.460231083	0.543546631	0.007492833	0.077302182	0.023825283
2020-06-23T06:40:00	0.1979	12.334	205.0	0.458788547	0.541597977	0.007450362	0.076864014	0.023690235
2020-06-23T06:45:00	0.1979	12.348	205.0	0.458736219	0.541527321	0.007448824	0.076848142	0.023685344
2020-06-23T06:50:00	0.1980	12.363	205.0	0.459031513	0.541926073	0.007457507	0.076937728	0.023712955
2020-06-23T06:55:00	0.1980	12.378	206.0	0.458979189	0.541855411	0.007455968	0.076921850	0.023708061
2020-06-23T07:00:00	0.1979	12.395	205.0	0.458579231	0.541315358	0.007444209	0.076800536	0.023670671
2020-06-23T07:05:00	0.1982	12.413	205.0	0.459917238	0.543122532	0.007483583	0.077206748	0.023795869
2020-06-23T07:10:00	0.1990	12.496	206.0	0.462643926	0.546809705	0.007564138	0.078037815	0.024052013
2020-06-23T07:15:00	0.1999	12.519	206.0	0.465715341	0.550970087	0.007655385	0.078979194	0.024342155
2020-06-23T07:20:00	0.2005	12.531	206.0	0.467744000	0.553722108	0.007715949	0.079604019	0.024534732
2020-06-23T07:25:00	0.2003	12.546	206.0	0.466998317	0.552710156	0.007693660	0.079374067	0.024463858
2020-06-23T07:30:00	0.2005	12.582	206.0	0.467639622	0.553580431	0.007712827	0.079571811	0.024524805
2020-06-23T07:35:00	0.2009	12.642	206.0	0.468974036	0.555392328	0.007752785	0.079984049	0.024651861
2020-06-23T07:40:00	0.2007	12.635	207.0	0.468575263	0.554850717	0.007740833	0.079860747	0.024613858
2020-06-23T07:45:00	0.2003	12.680	207.0	0.467136296	0.552897372	0.007697781	0.079416592	0.024476965
2020-06-23T07:50:00	0.2008	12.744	207.0	0.468817523	0.555179739	0.007748093	0.079935644	0.024636942
2020-06-23T07:55:00	0.2005	12.753	207.0	0.467725387	0.553696842	0.007715392	0.079598275	0.024532961
2020-06-23T08:00:00	0.1999	12.715	207.0	0.465592274	0.550803243	0.007651718	0.078941367	0.024330496
2020-06-23T08:05:00	0.1994	12.699	207.0	0.463804940	0.548381476	0.007598566	0.078393009	0.024161487
2020-06-23T08:10:00	0.1998	12.706	207.0	0.465487828	0.550661654	0.007648607	0.078909271	0.024320604
2020-06-23T08:15:00	0.2003	12.727	207.0	0.467169877	0.552942938	0.007698785	0.079426943	0.024480155
2020-06-23T08:20:00	0.2003	12.741	207.0	0.467117679	0.552872111	0.007697225	0.079410854	0.024475196
2020-06-23T08:25:00	0.2003	12.796	207.0	0.467065481	0.552801285	0.007695666	0.079394765	0.024470238
2020-06-23T08:30:00	0.2004	12.811	207.0	0.467360045	0.553200995	0.007704468	0.079485575	0.024498226
2020-06-23T08:35:00	0.2002	12.865	207.0	0.466614276	0.552189155	0.007682193	0.079255766	0.024427397
2020-06-23T08:40:00	0.2006	12.896	207.0	0.467949096	0.554000517	0.007722085	0.079667323	0.024554243
2020-06-23T08:45:00	0.2002	12.887	207.0	0.466856678	0.552517991	0.007689429	0.079330426	0.024450408
2020-06-23T08:50:00	0.2001	12.902	207.0	0.466457655	0.551976710	0.007677519	0.079207544	0.024412534
2020-06-23T08:55:00	0.2002	12.941	208.0	0.466752272	0.552376350	0.007686312	0.079298264	0.024440495
2020-06-23T09:00:00	0.2005	13.013	208.0	0.467740348	0.553717151	0.007715839	0.079602892	0.024534384
2020-06-23T09:05:00	0.2008	13.088	208.0	0.468728135	0.555058333	0.007745414	0.079908005	0.024628423
2020-06-23T09:10:00	0.2006	13.164	209.0	0.467982669	0.554046094	0.007723089	0.079677688	0.024557437
2020-06-23T09:15:00	0.1998	13.201	209.0	0.465155845	0.550211666	0.007638723	0.078807296	0.024289174
2020-06-23T09:20:00	0.2002	13.222	209.0	0.466838060	0.552492732	0.007688873	0.079324690	0.024448640
2020-06-23T09:25:00	0.1988	13.272	209.0	0.461927088	0.545839788	0.007542919	0.077818906	0.023984543
2020-06-23T09:30:00	0.1990	13.330	209.0	0.462569359	0.546708793	0.007561929	0.078015030	0.024044990
2020-06-23T09:35:00	0.1988	13.373	210.0	0.461822529	0.545698348	0.007539827	0.077787001	0.023974709
2020-06-23T09:40:00	0.1983	13.444	210.0	0.460033192	0.543279211	0.007487000	0.077242000	0.023806735
2020-06-23T09:45:00	0.1990	13.467	210.0	0.462412549	0.546496596	0.007557286	0.077967124	0.024030225
2020-06-23T09:50:00	0.1993	13.484	210.0	0.463749033	0.548305766	0.007596907	0.078375887	0.024156210
2020-06-23T09:55:00	0.1984	13.558	210.0	0.460571226	0.544006353	0.007502865	0.077405678	0.023857182
2020-06-23T10:00:00	0.1993	13.587	211.0	0.463644531	0.548164253	0.007593805	0.078343887	0.024146347
2020-06-23T10:05:00	0.1997	13.620	211.0	0.464879168	0.549836709	0.007630490	0.078722359	0.024262996
2020-06-23T10:10:00	0.1994	13.660	211.0	0.464031465	0.548688269	0.007605293	0.078462403	0.024182875
2020-06-23T10:15:00	0.1998	13.703	211.0	0.465265960	0.550360912	0.007642001	0.078841113	0.024299597
2020-06-23T10:20:00	0.2001	13.680	211.0	0.466500003	0.552034150	0.007678782	0.079220581	0.024416552
2020-06-23T10:25:00	0.1998	13.717	211.0	0.465305768	0.550414869	0.007643186	0.078853340	0.024303365
2020-06-23T10:30:00	0.1999	13.779	212.0	0.465499146	0.550676996	0.007648944	0.078912749	0.024321676
2020-06-23T10:35:00	0.1990	13.810	212.0	0.462568808	0.546708047	0.007561913	0.078014861	0.024044938
2020-06-23T10:40:00	0.1995	13.805	212.0	0.464150933	0.548850086	0.007608841	0.078499014	0.024194158
2020-06-23T10:45:00	0.1983	13.837	212.0	0.460177125	0.543473711	0.007491243	0.077285770	0.023820225
2020-06-23T10:50:00	0.1981	13.863	212.0	0.459328237	0.542326826	0.007466238	0.077027800	0.023740716
2020-06-23T10:55:00	0.1984	13.858	212.0	0.460564458	0.543997204	0.007502666	0.077403618	0.023856547
2020-06-23T11:00:00	0.1985	13.866	212.0	0.460758107	0.544258973	0.007508380	0.077462570	0.023874716
2020-06-23T11:05:00	0.1986	13.855	212.0	0.461299134	0.544990470	0.007524356	0.077627389	0.023925515
2020-06-23T11:10:00	0.1983	13.843	212.0	0.460103054	0.543373615	0.007489059	0.077263243	0.023813282
2020-06-23T11:15:00	0.1978	13.864	212.0	0.458211241	0.540818583	0.007433398	0.076689001	0.023636295
2020-06-23T11:20:00	0.1976	13.865	212.0	0.457709616	0.540141576	0.007418674	0.076537090	0.023589474
2020-06-23T11:25:00	0.1979	13.857	212.0	0.458598800	0.541341780	0.007444784	0.076806469	0.023672500
2020-06-23T11:30:00	0.1971	13.867	212.0	0.456010379	0.537849717	0.007368901	0.076023596	0.023431211
2020-06-23T11:35:00	0.1967	13.905	212.0	0.454464356	0.535766488	0.007323759	0.075557876	0.023287671
2020-06-23T11:40:00	0.1972	13.883	212.0	0.456398192	0.538372582	0.007380246	0.076140640	0.023467285
2020-06-23T11:45:00	0.1964	13.907	212.0	0.453459911	0.534414033	0.007294504	0.075256052	0.023194646
2020-06-23T11:50:00	0.1961	13.957	212.0	0.452609324	0.533269366	0.007269775	0.075000924	0.023116013
2020-06-23T11:55:00	0.1969	13.994	212.0	0.455240295	0.536811811	0.007346399	0.075791442	0.023359659
2020-06-23T12:00:00	0.1962	13.994	213.0	0.452649283	0.533323127	0.007270935	0.075012900	0.023119704
2020-06-23T12:05:00	0.1953	14.025	213.0	0.449707716	0.529368853	0.007185725	0.074133799	0.022848757
2020-06-23T12:10:00	0.1954	14.031	212.0	0.449901993	0.529629804	0.007191337	0.074191703	0.022866603
2020-06-23T12:15:00	0.1959	14.065	213.0	0.451838459	0.532232476	0.007247398	0.074770074	0.023044863
2020-06-23T12:20:00	0.1953	14.105	213.0	0.449593419	0.529215344	0.007182424	0.074099743	0.022838260
2020-06-23T12:25:00	0.1944	14.161	213.0	0.446649168	0.525264551	0.007097647	0.073225120	0.022568693
2020-06-23T12:30:00	0.1942	14.225	214.0	0.445796850	0.524122128	0.007073198	0.072972877	0.022490950
2020-06-23T12:35:00	0.1933	14.263	214.0	0.442849257	0.520175656	0.006988961	0.072103822	0.022223098
2020-06-23T12:40:00	0.1928	14.287	214.0	0.440977926	0.517633305	0.006935196	0.071549141	0.022052140
2020-06-23T12:45:00	0.1933	14.290	214.0	0.442540032	0.519762038	0.006980152	0.072012946	0.022195089
2020-06-23T12:50:00	0.1921	14.294	214.0	0.439107454	0.514421280	0.006872659	0.070903952	0.021853287
2020-06-23T12:55:00	0.1912	14.322	214.0	0.436538841	0.510026337	0.006787344	0.070023773	0.021582007
2020-06-23T13:00:00	0.1905	14.364	214.0	0.434784027	0.507034415	0.006729433	0.069426319	0.021397866
2020-06-23T13:05:00	0.1914	14.432	215.0	0.437114440	0.511009595	0.006806405	0.070220428	0.021642618
2020-06-23T13:10:00	0.1903	14.464	215.0	0.434270178	0.506159939	0.006712533	0.069251962	0.021344127
2020-06-23T13:15:00	0.1905	14.504	216.0	0.434694667	0.506882287	0.006726492	0.069395978	0.021388514
2020-06-23T13:20:00	0.1904	14.532	216.0	0.434574030	0.506676950	0.006722523	0.069355031	0.021375894
2020-06-23T13:25:00	0.1897	14.562	216.0	0.432544277	0.503228164	0.006655959	0.068668300	0.021164237
2020-06-23T13:30:00	0.1899	14.591	216.0	0.432969207	0.503949220	0.006669861	0.068811723	0.021208441
2020-06-23T13:35:00	0.1908	14.619	216.0	0.435574573	0.508381216	0.006755484	0.069695085	0.021480702
2020-06-23T13:40:00	0.1884	14.655	217.0	0.428903261	0.497070403	0.006537566	0.067446867	0.020787780
2020-06-23T13:45:00	0.1884	14.703	216.0	0.429055688	0.497327452	0.006542497	0.067497733	0.020803457
2020-06-23T13:50:00	0.1881	14.746	217.0	0.428113982	0.495740420	0.006512073	0.067183855	0.020706716
2020-06-23T13:55:00	0.1880	14.786	217.0	0.427992864	0.495536482	0.006508166	0.067143550	0.020694294
2020-06-23T14:00:00	0.1878	14.820	217.0	0.427324323	0.494411529	0.006486628	0.066921342	0.020625808
2020-06-23T14:05:00	0.1876	14.851	217.0	0.426929351	0.493747493	0.006473923	0.066790274	0.020585411
2020-06-23T14:10:00	0.1883	14.873	217.0	0.428723898	0.496768015	0.006531768	0.067387043	0.020769341
2020-06-23T14:15:00	0.1879	14.880	218.0	0.427508302	0.494720988	0.006492551	0.066982448	0.020644641
2020-06-23T14:20:00	0.1879	14.862	218.0	0.427660859	0.494977664	0.006497464	0.067033143	0.020660266
2020-06-23T14:25:00	0.1876	14.860	218.0	0.426718352	0.493392934	0.006467143	0.066720320	0.020563851
2020-06-23T14:30:00	0.1875	14.859	217.0	0.426597131	0.493189292	0.006463249	0.066680150	0.020551470
2020-06-23T14:35:00	0.1875	14.854	218.0	0.426475901	0.492985676	0.006459357	0.066639993	0.020539093
2020-06-23T14:40:00	0.1871	14.849	218.0	0.425532711	0.491402901	0.006429122	0.066328065	0.020442954
2020-06-23T14:45:00	0.1866	14.838	218.0	0.424040461	0.488903784	0.006381463	0.065836375	0.020291410
2020-06-23T14:50:00	0.1859	14.821	217.0	0.421997640	0.485492606	0.006316569	0.065166883	0.020085066
2020-06-23T14:55:00	0.1856	14.807	217.0	0.421326636	0.484374660	0.006295342	0.064947884	0.020017569
2020-06-23T15:00:00	0.1858	14.803	217.0	0.421754485	0.485087347	0.006308872	0.065087471	0.020060591
2020-06-23T15:05:00	0.1849	14.805	217.0	0.419433720	0.481227617	0.006235693	0.064332498	0.019827901
2020-06-23T15:10:00	0.1854	14.801	218.0	0.420686892	0.483309954	0.006275144	0.064739505	0.019953344
2020-06-23T15:15:00	0.1850	14.793	217.0	0.419740336	0.481736706	0.006245332	0.064431937	0.019858549
2020-06-23T15:20:00	0.1852	14.777	217.0	0.420168605	0.482448215	0.006258810	0.064570986	0.019901405
2020-06-23T15:25:00	0.1848	14.773	217.0	0.419221746	0.480875819	0.006229035	0.064263807	0.019806730
2020-06-23T15:30:00	0.1848	14.768	217.0	0.419099964	0.480673763	0.006225212	0.064224364	0.019794573
2020-06-23T15:35:00	0.1849	14.760	217.0	0.419253311	0.480928198	0.006230026	0.064274034	0.019809881
2020-06-23T15:40:00	0.1853	14.739	217.0	0.420506623	0.483010143	0.006269460	0.064680861	0.019935269
2020-06-23T15:45:00	0.1856	14.719	217.0	0.421209494	0.484179621	0.006291641	0.064909698	0.020005799
2020-06-23T15:50:00	0.1851	14.706	217.0	0.419988279	0.482148566	0.006253133	0.064512416	0.019883353
2020-06-23T15:55:00	0.1858	14.691	217.0	0.421790481	0.485147331	0.006310011	0.065099224	0.020064213
2020-06-23T16:00:00	0.1855	14.677	217.0	0.421119392	0.484029626	0.006288795	0.064880335	0.019996749
2020-06-23T16:05:00	0.1853	14.670	217.0	0.420574623	0.483123226	0.006271604	0.064702978	0.019942086
2020-06-23T16:10:00	0.1840	14.658	217.0	0.417002025	0.477199355	0.006159573	0.063547178	0.019585857
2020-06-23T16:15:00	0.1843	14.638	217.0	0.417833239	0.478574480	0.006185529	0.063814961	0.019668391
2020-06-23T16:20:00	0.1848	14.623	217.0	0.419214360	0.480863564	0.006228803	0.064261415	0.019805992
2020-06-23T16:25:00	0.1849	14.601	216.0	0.419494381	0.481328315	0.006237599	0.064352164	0.019833962
2020-06-23T16:30:00	0.1843	14.585	217.0	0.417848022	0.478598954	0.006185991	0.063819729	0.019669860
2020-06-23T16:35:00	0.1835	14.570	217.0	0.415648608	0.474964395	0.006117452	0.063112626	0.019451924
2020-06-23T16:40:00	0.1836	14.551	217.0	0.415929250	0.475427417	0.006126172	0.063202585	0.019479651
2020-06-23T16:45:00	0.1835	14.531	217.0	0.415658476	0.474980673	0.006117759	0.063115788	0.019452899
2020-06-23T16:50:00	0.1833	14.514	216.0	0.415111857	0.474079431	0.006100796	0.062940789	0.019398962
2020-06-23T16:55:00	0.1835	14.506	216.0	0.415392593	0.474542193	0.006109504	0.063030629	0.019426652
2020-06-23T17:00:00	0.1834	14.498	216.0	0.415121729	0.474095700	0.006101102	0.062943947	0.019399936
2020-06-23T17:05:00	0.1832	14.486	217.0	0.414574926	0.473194963	0.006084162	0.062769179	0.019346071
2020-06-23T17:10:00	0.1831	14.471	216.0	0.414303923	0.472748852	0.006075777	0.062682671	0.019319408
2020-06-23T17:15:00	0.1832	14.457	217.0	0.414584801	0.473211224	0.006084468	0.062772332	0.019347043
2020-06-23T17:20:00	0.1830	14.445	216.0	0.414037814	0.472310993	0.006067550	0.062597795	0.019293248
2020-06-23T17:25:00	0.1832	14.432	216.0	0.414594676	0.473227484	0.006084773	0.062775486	0.019348015
2020-06-23T17:30:00	0.1829	14.416	216.0	0.413771661	0.471873256	0.006059329	0.062512976	0.019267106
2020-06-23T17:35:00	0.1822	14.403	216.0	0.411843044	0.468707118	0.005999955	0.061900433	0.019078315
2020-06-23T17:40:00	0.1818	14.394	216.0	0.410742048	0.466904238	0.005966220	0.061552388	0.018971044
2020-06-23T17:45:00	0.1816	14.384	216.0	0.410193739	0.466007624	0.005949462	0.061379501	0.018917758
2020-06-23T17:50:00	0.1817	14.374	216.0	0.410475343	0.466468009	0.005958065	0.061468256	0.018945114
2020-06-23T17:55:00	0.1811	14.362	216.0	0.408819658	0.463764304	0.005907592	0.060947535	0.018784622
2020-06-23T18:00:00	0.1817	14.350	217.0	0.410485243	0.466484200	0.005958367	0.061471378	0.018946076
2020-06-23T18:05:00	0.1813	14.337	216.0	0.409383304	0.464683884	0.005924745	0.061124503	0.018839165
2020-06-23T18:10:00	0.1805	14.322	216.0	0.407172159	0.461081426	0.005857626	0.060432050	0.018625745
2020-06-23T18:15:00	0.1808	14.305	216.0	0.408008519	0.462442471	0.005882959	0.060693406	0.018706297
2020-06-23T18:20:00	0.1804	14.285	216.0	0.406904851	0.460646828	0.005849543	0.060348662	0.018600044
2020-06-23T18:25:00	0.1808	14.264	216.0	0.408018435	0.462458619	0.005883260	0.060696509	0.018707254
2020-06-23T18:30:00	0.1809	14.245	215.0	0.408300426	0.462917956	0.005891817	0.060784786	0.018734461
2020-06-23T18:35:00	0.1815	14.224	215.0	0.409966558	0.465636372	0.005942527	0.061307955	0.018895707
2020-06-23T18:40:00	0.1813	14.204	215.0	0.409417981	0.464740487	0.005925801	0.061135401	0.018842524
2020-06-23T18:45:00	0.1811	14.184	216.0	0.408869213	0.463845117	0.005909099	0.060963081	0.018789414
2020-06-23T18:50:00	0.1814	14.164	217.0	0.409704675	0.465208587	0.005934539	0.061225543	0.018870307
2020-06-23T18:55:00	0.1811	14.142	215.0	0.408879124	0.463861281	0.005909400	0.060966191	0.018790372
2020-06-23T19:00:00	0.1805	14.121	215.0	0.407221766	0.461162100	0.005859127	0.060447532	0.018630517
2020-06-23T19:05:00	0.1811	14.099	215.0	0.408889035	0.463877444	0.005909701	0.060969300	0.018791330
2020-06-23T19:10:00	0.1817	14.075	214.0	0.410554547	0.466597538	0.005960486	0.061493234	0.018952812
2020-06-23T19:15:00	0.1815	14.051	214.0	0.410006174	0.465701100	0.005943736	0.061320427	0.018899551
2020-06-23T19:20:00	0.1819	14.025	214.0	0.411117577	0.467518793	0.005977713	0.061670966	0.019007591
2020-06-23T19:25:00	0.1829	13.999	214.0	0.413885281	0.472060101	0.006062837	0.062549176	0.019278264
2020-06-23T19:30:00	0.1838	13.972	216.0	0.416372612	0.476159348	0.006139963	0.063344862	0.019523502
2020-06-23T19:35:00	0.1842	13.944	217.0	0.417479593	0.477989190	0.006174478	0.063700947	0.019633250
2020-06-23T19:40:00	0.1846	13.913	217.0	0.418585812	0.479821150	0.006209086	0.064057999	0.019743297
2020-06-23T19:45:00	0.1846	13.883	217.0	0.418590738	0.479829314	0.006209241	0.064059591	0.019743788
2020-06-23T19:50:00	0.1845	13.853	219.0	0.418320413	0.479381325	0.006200772	0.063972226	0.019716861
2020-06-23T19:55:00	0.1856	13.820	219.0	0.421350505	0.484414407	0.006296096	0.064955666	0.020019967
2020-06-23T20:00:00	0.1851	13.787	217.0	0.419981053	0.482136561	0.006252905	0.064510069	0.019882630
2020-06-23T20:05:00	0.1850	13.753	215.0	0.419710961	0.481687922	0.006244408	0.064422406	0.019855611
2020-06-23T20:10:00	0.1860	13.721	214.0	0.422463906	0.486270177	0.006331346	0.065319325	0.020132050
2020-06-23T20:15:00	0.1859	13.689	213.0	0.422194227	0.485820373	0.006322797	0.065231129	0.020104868
2020-06-23T20:20:00	0.1860	13.657	216.0	0.422473733	0.486286571	0.006331657	0.065322540	0.020133041
2020-06-23T20:25:00	0.1854	13.624	214.0	0.420830407	0.483548704	0.006279672	0.064786215	0.019967741
2020-06-23T20:30:00	0.1857	13.591	212.0	0.421659652	0.484929337	0.006305872	0.065056516	0.020051050
2020-06-23T20:35:00	0.1856	13.559	213.0	0.421389840	0.484479910	0.006297340	0.064968493	0.020023920
2020-06-23T20:40:00	0.1864	13.527	214.0	0.423591274	0.488152723	0.006367159	0.065688806	0.020245928
2020-06-23T20:45:00	0.1864	13.495	216.0	0.423596184	0.488160930	0.006367315	0.065690418	0.020246425
2020-06-23T20:50:00	0.1869	13.463	213.0	0.424972404	0.490463814	0.006411202	0.066143185	0.020385972
2020-06-23T20:55:00	0.1871	13.431	216.0	0.425525509	0.491390826	0.006428891	0.066325687	0.020442221
2020-06-23T21:00:00	0.1874	13.400	216.0	0.426352366	0.492778231	0.006455392	0.066599087	0.020526486
2020-06-23T21:05:00	0.1881	13.370	216.0	0.428273547	0.496009158	0.006517222	0.067236976	0.020723089
2020-06-23T21:10:00	0.1885	13.339	216.0	0.429372453	0.497861842	0.006552750	0.067603514	0.020836060
2020-06-23T21:15:00	0.1886	13.308	216.0	0.429650734	0.498331538	0.006561766	0.067696527	0.020864727
2020-06-23T21:20:00	0.1887	13.279	214.0	0.429928968	0.498801369	0.006570787	0.067789603	0.020893414
2020-06-23T21:25:00	0.1888	13.247	216.0	0.430207155	0.499271337	0.006579815	0.067882740	0.020922120
2020-06-23T21:30:00	0.1889	13.218	215.0	0.430485295	0.499741440	0.006588849	0.067975940	0.020950845
2020-06-23T21:35:00	0.1889	13.188	214.0	0.430216936	0.499287864	0.006580133	0.067886016	0.020923130
2020-06-23T21:40:00	0.1890	13.158	216.0	0.430495074	0.499757973	0.006589167	0.067979218	0.020951855
2020-06-23T21:45:00	0.1885	13.128	216.0	0.429133274	0.497458316	0.006545007	0.067523633	0.020811439
2020-06-23T21:50:00	0.1887	13.098	217.0	0.429684978	0.498389351	0.006562876	0.067707978	0.020868257
2020-06-23T21:55:00	0.1886	13.067	216.0	0.429416489	0.497936152	0.006554176	0.067618227	0.020840594
2020-06-23T22:00:00	0.1887	13.036	215.0	0.429694762	0.498405869	0.006563193	0.067711250	0.020869265
2020-06-23T22:05:00	0.1885	13.006	215.0	0.429382673	0.497879086	0.006553081	0.067606929	0.020837112
2020-06-23T22:10:00	0.1886	12.976	214.0	0.429617357	0.498275190	0.006560684	0.067685367	0.020861287
2020-06-23T22:15:00	0.1887	12.948	216.0	0.429852007	0.498671390	0.006568291	0.067763850	0.020885477
2020-06-23T22:20:00	0.1886	12.918	215.0	0.429539948	0.498144521	0.006558176	0.067659488	0.020853311
2020-06-23T22:25:00	0.1887	12.886	214.0	0.429774609	0.498540689	0.006565781	0.067737957	0.020877496
2020-06-23T22:30:00	0.1891	12.853	215.0	0.430828951	0.500322575	0.006600021	0.068091202	0.020986370
2020-06-23T22:35:00	0.1893	12.824	213.0	0.431336538	0.501181523	0.006616544	0.068261663	0.021038907
2020-06-23T22:40:00	0.1890	12.794	215.0	0.430751599	0.500191742	0.006597505	0.068065248	0.020978370
2020-06-23T22:45:00	0.1889	12.766	214.0	0.430439710	0.499664380	0.006587368	0.067960660	0.020946136
2020-06-23T22:50:00	0.1890	12.736	213.0	0.430674244	0.500060918	0.006594990	0.068039298	0.020970373
2020-06-23T22:55:00	0.1890	12.708	212.0	0.430635565	0.499995511	0.006593733	0.068026326	0.020966374
2020-06-23T23:00:00	0.1886	12.680	214.0	0.429503688	0.498083319	0.006557001	0.067647369	0.020849576
2020-06-23T23:05:00	0.1884	12.652	214.0	0.428918098	0.497095422	0.006538046	0.067451818	0.020789305
2020-06-23T23:10:00	0.1883	12.626	212.0	0.428605862	0.496569064	0.006527953	0.067347691	0.020757212
2020-06-23T23:15:00	0.1891	12.596	213.0	0.431027204	0.500657976	0.006606472	0.068157749	0.021006880
2020-06-23T23:20:00	0.1895	12.570	212.0	0.432080746	0.502442182	0.006640814	0.068512058	0.021116082
2020-06-23T23:25:00	0.1893	12.542	212.0	0.431496071	0.501451635	0.006621742	0.068315292	0.021055436
2020-06-23T23:30:00	0.1895	12.515	211.0	0.432003453	0.502311178	0.006638291	0.068486026	0.021108058
2020-06-23T23:35:00	0.1895	12.489	213.0	0.431964805	0.502245680	0.006637030	0.068473012	0.021104047
2020-06-23T23:40:00	0.1899	12.462	211.0	0.433017751	0.504031624	0.006671450	0.068828118	0.021213495
2020-06-23T23:45:00	0.1902	12.434	213.0	0.433797370	0.505355958	0.006697005	0.069091769	0.021294754
2020-06-23T23:50:00	0.1900	12.407	212.0	0.433486054	0.504826925	0.006686793	0.068986415	0.021262283
2020-06-23T23:55:00	0.1900	12.382	209.0	0.433447441	0.504761326	0.006685527	0.068973354	0.021258258
2020-06-24T00:00:00	0.1899	12.356	211.0	0.433136059	0.504232485	0.006675324	0.068868088	0.021225814
2020-06-24T00:05:00	0.1892	12.332	209.0	0.431186766	0.500928000	0.006611666	0.068211338	0.021023397
2020-06-24T00:10:00	0.1889	12.305	210.0	0.430328543	0.499476477	0.006583757	0.067923406	0.020934653
2020-06-24T00:15:00	0.1892	12.278	210.0	0.431109430	0.500797118	0.006609148	0.068185362	0.021015391
2020-06-24T00:20:00	0.1888	12.250	210.0	0.429977879	0.498883984	0.006572374	0.067805973	0.020898459
2020-06-24T00:25:00	0.1884	12.226	210.0	0.429119027	0.497434284	0.006544546	0.067518877	0.020809974
2020-06-24T00:30:00	0.1886	12.199	208.0	0.429627141	0.498291707	0.006561001	0.067688638	0.020862296
2020-06-24T00:35:00	0.1885	12.173	208.0	0.429315039	0.497764961	0.006550891	0.067584334	0.020830148
2020-06-24T00:40:00	0.1882	12.146	208.0	0.428455840	0.496316261	0.006523107	0.067297696	0.020741803
2020-06-24T00:45:00	0.1883	12.118	209.0	0.428690657	0.496711982	0.006530693	0.067375959	0.020765925
2020-06-24T00:50:00	0.1880	12.095	208.0	0.427831132	0.495264222	0.006502952	0.067089753	0.020677713
2020-06-24T00:55:00	0.1881	12.069	208.0	0.428066037	0.495659687	0.006510526	0.067167898	0.020701799
2020-06-24T01:00:00	0.1875	12.046	209.0	0.426658549	0.493292465	0.006465222	0.066700501	0.020557742
2020-06-24T01:05:00	0.1870	12.021	208.0	0.425249849	0.490928710	0.006420071	0.066234692	0.020414175
2020-06-24T01:10:00	0.1868	11.998	208.0	0.424662737	0.489945178	0.006401311	0.066041141	0.020354521
2020-06-24T01:15:00	0.1869	11.973	208.0	0.424898098	0.490339341	0.006408827	0.066118690	0.020378422
2020-06-24T01:20:00	0.1860	11.949	207.0	0.422389920	0.486146755	0.006329000	0.065295121	0.020124591
2020-06-24T01:25:00	0.1860	11.929	208.0	0.422351045	0.486081909	0.006327767	0.065282406	0.020120672
2020-06-24T01:30:00	0.1860	11.905	207.0	0.422312168	0.486017066	0.006326535	0.065269692	0.020116753
2020-06-24T01:35:00	0.1854	11.884	207.0	0.420624843	0.483206749	0.006273187	0.064719316	0.019947122
2020-06-24T01:40:00	0.1857	11.861	207.0	0.421685103	0.484971741	0.006306677	0.065064823	0.020053610
2020-06-24T01:45:00	0.1856	11.837	207.0	0.421371480	0.484449335	0.006296759	0.064962506	0.020022075
2020-06-24T01:50:00	0.1857	11.813	207.0	0.421607318	0.484842147	0.006304216	0.065039437	0.020045786
2020-06-24T01:55:00	0.1859	11.790	208.0	0.422117772	0.485692889	0.006320374	0.065206139	0.020097165
2020-06-24T02:00:00	0.1853	11.767	207.0	0.420430245	0.482883142	0.006267052	0.064656023	0.019927614
2020-06-24T02:05:00	0.1854	11.742	207.0	0.420666220	0.483275569	0.006274492	0.064732778	0.019951271
2020-06-24T02:10:00	0.1856	11.719	206.0	0.421176971	0.484125476	0.006290613	0.064899098	0.020002532
2020-06-24T02:15:00	0.1853	11.696	206.0	0.420588385	0.483146113	0.006272038	0.064707455	0.019943466
2020-06-24T02:20:00	0.1848	11.673	207.0	0.419174411	0.480797278	0.006227549	0.064248475	0.019802004
2020-06-24T02:25:00	0.1851	11.651	206.0	0.419960652	0.482102667	0.006252263	0.064503445	0.019880588
2020-06-24T02:30:00	0.1852	11.627	206.0	0.420196695	0.482494901	0.006259694	0.064580112	0.019904218
2020-06-24T02:35:00	0.1855	11.604	206.0	0.420982439	0.483801683	0.006284470	0.064835720	0.019982999
2020-06-24T02:40:00	0.1859	11.582	206.0	0.422042465	0.485567333	0.006317989	0.065181529	0.020089580
2020-06-24T02:45:00	0.1858	11.561	206.0	0.421728910	0.485044733	0.006308063	0.065079122	0.020058018
2020-06-24T02:50:00	0.1856	11.542	206.0	0.421415295	0.484522303	0.006298144	0.064976794	0.020026479
2020-06-24T02:55:00	0.1853	11.519	207.0	0.420551926	0.483085479	0.006270888	0.064695595	0.019939811
2020-06-24T03:00:00	0.1857	11.498	207.0	0.421612234	0.484850337	0.006304372	0.065041041	0.020046280
2020-06-24T03:05:00	0.1862	11.477	208.0	0.422946360	0.487075377	0.006346657	0.065477288	0.020180736
2020-06-24T03:10:00	0.1859	11.459	206.0	0.422083805	0.485636256	0.006319298	0.065195038	0.020093744
2020-06-24T03:15:00	0.1866	11.438	205.0	0.423966268	0.488779691	0.006379099	0.065811987	0.020283893
2020-06-24T03:20:00	0.1868	11.419	207.0	0.424475983	0.489632528	0.006395350	0.065979647	0.020335568
2020-06-24T03:25:00	0.1865	11.400	204.0	0.423888592	0.488649788	0.006376624	0.065786459	0.020276026
2020-06-24T03:30:00	0.1867	11.380	204.0	0.424398331	0.489502556	0.006392873	0.065954088	0.020327691
2020-06-24T03:35:00	0.1870	11.363	204.0	0.425182045	0.490815075	0.006417903	0.066212322	0.020407281
2020-06-24T03:40:00	0.1873	11.345	204.0	0.425965383	0.492128665	0.006442981	0.066471046	0.020487022
2020-06-24T03:45:00	0.1876	11.330	203.0	0.426748346	0.493443328	0.006468106	0.066730261	0.020566915
2020-06-24T03:50:00	0.1880	11.314	204.0	0.427804630	0.495219615	0.006502097	0.067080940	0.020674997
2020-06-24T03:55:00	0.1885	11.297	204.0	0.429133708	0.497459047	0.006545021	0.067523778	0.020811484
2020-06-24T04:00:00	0.1879	11.284	203.0	0.427727135	0.495089193	0.006499600	0.067055174	0.020667056
2020-06-24T04:05:00	0.1879	11.271	202.0	0.427489732	0.494689747	0.006491953	0.066976279	0.020642740
2020-06-24T04:10:00	0.1881	11.258	201.0	0.428073383	0.495672055	0.006510763	0.067170343	0.020702552
2020-06-24T04:15:00	0.1881	11.243	201.0	0.428109674	0.495733166	0.006511934	0.067182421	0.020706275
2020-06-24T04:20:00	0.1880	11.230	201.0	0.427872326	0.495333561	0.006504279	0.067103452	0.020681936
2020-06-24T04:25:00	0.1876	11.215	201.0	0.426813635	0.493553031	0.006470204	0.066751904	0.020573585
2020-06-24T04:30:00	0.1879	11.202	201.0	0.427671244	0.494995138	0.006497799	0.067036595	0.020661330
2020-06-24T04:35:00	0.1873	11.190	201.0	0.426064588	0.492295146	0.006446161	0.066503856	0.020497134
2020-06-24T04:40:00	0.1878	11.180	201.0	0.427470138	0.494656786	0.006491322	0.066969770	0.020640733
2020-06-24T04:45:00	0.1881	11.171	200.0	0.428053796	0.495639074	0.006510131	0.067163824	0.020700543
2020-06-24T04:50:00	0.1883	11.163	200.0	0.428637246	0.496621959	0.006528967	0.067358153	0.020760437
2020-06-24T04:55:00	0.1890	11.156	200.0	0.430587106	0.499913572	0.006592158	0.068010075	0.020961366
2020-06-24T05:00:00	0.1890	11.149	200.0	0.430623342	0.499974843	0.006593335	0.068022226	0.020965111
2020-06-24T05:05:00	0.1896	11.143	200.0	0.432297953	0.502810411	0.006647908	0.068585245	0.021138639
2020-06-24T05:10:00	0.1897	11.139	200.0	0.432607050	0.503334650	0.006658011	0.068689476	0.021170764
2020-06-24T05:15:00	0.1895	11.135	200.0	0.432097410	0.502470428	0.006641359	0.068517671	0.021117812
2020-06-24T05:20:00	0.1892	11.134	200.0	0.431041434	0.500682055	0.006606935	0.068162527	0.021008353
2020-06-24T05:25:00	0.1887	11.133	200.0	0.429711450	0.498434045	0.006563734	0.067716831	0.020870985
2020-06-24T05:30:00	0.1888	11.133	200.0	0.430021032	0.498956877	0.006573774	0.067820417	0.020902911
2020-06-24T05:35:00	0.1893	11.133	200.0	0.431423204	0.501328251	0.006619367	0.068290793	0.021047886
2020-06-24T05:40:00	0.1894	11.136	200.0	0.431732464	0.501852014	0.006629449	0.068394806	0.021079943
2020-06-24T05:45:00	0.1900	11.141	200.0	0.433405953	0.504690849	0.006684167	0.068959323	0.021253933
2020-06-24T05:50:00	0.1899	11.147	200.0	0.433169366	0.504289039	0.006676415	0.068879343	0.021229283
2020-06-24T05:55:00	0.1899	11.155	200.0	0.433205545	0.504350474	0.006677600	0.068891570	0.021233051
2020-06-24T06:00:00	0.1911	11.163	200.0	0.436239510	0.509515376	0.006777444	0.069921640	0.021550528
2020-06-24T06:05:00	0.1916	11.174	200.0	0.437636443	0.511902097	0.006823720	0.070399062	0.021697675
2020-06-24T06:10:00	0.1912	11.186	200.0	0.436583981	0.510103414	0.006788837	0.070039183	0.021586756
2020-06-24T06:15:00	0.1917	11.198	199.0	0.437980626	0.512490987	0.006835151	0.070516997	0.021734023
2020-06-24T06:20:00	0.1921	11.213	200.0	0.439104313	0.514415896	0.006872554	0.070902872	0.021852954
2020-06-24T06:25:00	0.1920	11.228	200.0	0.438868533	0.514011704	0.006864696	0.070821798	0.021827966
2020-06-24T06:30:00	0.1921	11.245	200.0	0.439176414	0.514539527	0.006874958	0.070927676	0.021860598
2020-06-24T06:35:00	0.1927	11.264	200.0	0.440570901	0.516933516	0.006921558	0.071408440	0.022008775
2020-06-24T06:40:00	0.1925	11.284	201.0	0.440063689	0.516062128	0.006904586	0.071233343	0.021954808
2020-06-24T06:45:00	0.1920	11.305	200.0	0.438740900	0.513792971	0.006860444	0.070777935	0.021814447
2020-06-24T06:50:00	0.1920	11.328	201.0	0.438776958	0.513854763	0.006861645	0.070790325	0.021818266
2020-06-24T06:55:00	0.1922	11.353	201.0	0.439356652	0.514848645	0.006880970	0.070989703	0.021879716
2020-06-24T07:00:00	0.1905	11.380	201.0	0.434766248	0.507004146	0.006728848	0.069420282	0.021396005
2020-06-24T07:05:00	0.1894	11.410	201.0	0.431802009	0.501969831	0.006631718	0.068418209	0.021087156
2020-06-24T07:10:00	0.1889	11.528	201.0	0.430472638	0.499720043	0.006588438	0.067971697	0.020949537
2020-06-24T07:15:00	0.1896	11.588	202.0	0.432147401	0.502555168	0.006642991	0.068534512	0.021123002
2020-06-24T07:20:00	0.1901	11.594	202.0	0.433547772	0.504931784	0.006688817	0.069007293	0.021268718
2020-06-24T07:25:00	0.1913	11.605	202.0	0.436853316	0.510563420	0.006797754	0.070131172	0.021615108
2020-06-24T07:30:00	0.1919	11.666	202.0	0.438521668	0.513417367	0.006853145	0.070702630	0.021791237
2020-06-24T07:35:00	0.1933	11.781	203.0	0.442727011	0.520012131	0.006985478	0.072067889	0.022212023
2020-06-24T07:40:00	0.1935	11.762	203.0	0.443471853	0.521008668	0.007006712	0.072286961	0.022279543
2020-06-24T07:45:00	0.1920	11.810	203.0	0.438901725	0.514068596	0.006865801	0.070833208	0.021831483
2020-06-24T07:50:00	0.1919	11.896	204.0	0.438394008	0.513198712	0.006848897	0.070658803	0.021777729
2020-06-24T07:55:00	0.1911	11.839	204.0	0.436253264	0.509538849	0.006777899	0.069926331	0.021551974
2020-06-24T08:00:00	0.1907	11.790	208.0	0.435199930	0.507742744	0.006743131	0.069567636	0.021441421
2020-06-24T08:05:00	0.1902	11.791	204.0	0.433873283	0.505485001	0.006699497	0.069117474	0.021302677
2020-06-24T08:10:00	0.1911	11.822	204.0	0.436361599	0.509723752	0.006781481	0.069963286	0.021563364
2020-06-24T08:15:00	0.1920	11.834	204.0	0.438846209	0.513973444	0.006863952	0.070814125	0.021825601
2020-06-24T08:20:00	0.1932	11.855	207.0	0.442445352	0.519635409	0.006977456	0.071985132	0.022186517
2020-06-24T08:25:00	0.1928	11.883	205.0	0.441094099	0.517828953	0.006939036	0.071588754	0.022064349
2020-06-24T08:30:00	0.1925	11.918	205.0	0.440041381	0.516023820	0.006903840	0.071225648	0.021952436
2020-06-24T08:35:00	0.1924	11.956	206.0	0.439805732	0.515619237	0.006895964	0.071144393	0.021927393
2020-06-24T08:40:00	0.1925	11.994	206.0	0.440113441	0.516147571	0.006906250	0.071250506	0.021960098
2020-06-24T08:45:00	0.1928	12.036	207.0	0.440964211	0.517609716	0.006934736	0.071544397	0.022050678
2020-06-24T08:50:00	0.1929	12.076	207.0	0.441325843	0.518138664	0.006945618	0.071656659	0.022085278
2020-06-24T08:55:00	0.1925	12.118	207.0	0.440221526	0.516333215	0.006909865	0.071287802	0.021971593
2020-06-24T09:00:00	0.1926	12.143	207.0	0.440529160	0.516861778	0.006920160	0.071394020	0.022004330
2020-06-24T09:05:00	0.1918	12.173	208.0	0.438391144	0.513193807	0.006848801	0.070657820	0.021777426
2020-06-24T09:10:00	0.1925	12.223	207.0	0.440057966	0.516052300	0.006904395	0.071231368	0.021954200
2020-06-24T09:15:00	0.1920	12.329	208.0	0.438735172	0.513783157	0.006860253	0.070775967	0.021813840
2020-06-24T09:20:00	0.1919	12.362	207.0	0.438499340	0.513379120	0.006852402	0.070694964	0.021788874
2020-06-24T09:25:00	0.1916	12.340	209.0	0.437719483	0.512044147	0.006826477	0.070427505	0.021706441
2020-06-24T09:30:00	0.1899	12.396	209.0	0.433124566	0.504212970	0.006674948	0.068864205	0.021224617
2020-06-24T09:35:00	0.1901	12.467	210.0	0.433706227	0.505201046	0.006694015	0.069060915	0.021285245
2020-06-24T09:40:00	0.1907	12.555	209.0	0.435377728	0.508045701	0.006748992	0.069628103	0.021460058
2020-06-24T09:45:00	0.1894	12.626	209.0	0.431595655	0.501620281	0.006624988	0.068348781	0.021065758
2020-06-24T09:50:00	0.1885	12.686	207.0	0.429172701	0.497524823	0.006546283	0.067536797	0.020815497
2020-06-24T09:55:00	0.1890	12.708	211.0	0.430575595	0.499894108	0.006591783	0.068006215	0.020960176
2020-06-24T10:00:00	0.1892	12.729	211.0	0.431158152	0.500879573	0.006610734	0.068201726	0.021020434
2020-06-24T10:05:00	0.1892	12.765	211.0	0.431117040	0.500809997	0.006609396	0.068187918	0.021016178
2020-06-24T10:10:00	0.1897	12.818	211.0	0.432441010	0.503053008	0.006652583	0.068633473	0.021153503
2020-06-24T10:15:00	0.1907	12.849	211.0	0.435399234	0.508082351	0.006749701	0.069635419	0.021462313
2020-06-24T10:20:00	0.1905	12.853	212.0	0.434813288	0.507084234	0.006730396	0.069436255	0.021400928
2020-06-24T10:25:00	0.1902	12.855	211.0	0.433954504	0.505623085	0.006702163	0.069144983	0.021311155
2020-06-24T10:30:00	0.1901	12.863	211.0	0.433640777	0.505089819	0.006691867	0.069038763	0.021278417
2020-06-24T10:35:00	0.1901	12.863	211.0	0.433599727	0.505020063	0.006690521	0.069024872	0.021274136
2020-06-24T10:40:00	0.1889	12.869	211.0	0.430282799	0.499399167	0.006582271	0.067908080	0.020929930
2020-06-24T10:45:00	0.1892	12.873	210.0	0.431061264	0.500715610	0.006607580	0.068169186	0.021010405
2020-06-24T10:50:00	0.1893	12.886	211.0	0.431566337	0.501570628	0.006624032	0.068338921	0.021062719
2020-06-24T10:55:00	0.1890	12.912	211.0	0.430705867	0.500114398	0.006596018	0.068049906	0.020973642
2020-06-24T11:00:00	0.1893	12.918	212.0	0.431484133	0.501431419	0.006621353	0.068311278	0.021054199
2020-06-24T11:05:00	0.1887	12.929	211.0	0.429803804	0.498589988	0.006566728	0.067747723	0.020880506
2020-06-24T11:10:00	0.1889	12.942	212.0	0.430309262	0.499443889	0.006583131	0.067916945	0.020932662
2020-06-24T11:15:00	0.1885	12.948	211.0	0.429174714	0.497528219	0.006546348	0.067537469	0.020815704
2020-06-24T11:20:00	0.1890	12.949	213.0	0.430500242	0.499766710	0.006589335	0.067980951	0.020952389
2020-06-24T11:25:00	0.1898	12.958	212.0	0.432916367	0.503859529	0.006668131	0.068793878	0.021202941
2020-06-24T11:30:00	0.1895	12.965	212.0	0.432056600	0.502401255	0.006640026	0.068503925	0.021113575
2020-06-24T11:35:00	0.1891	12.972	213.0	0.430923254	0.500482102	0.006603089	0.068122851	0.020996124
2020-06-24T11:40:00	0.1893	12.974	212.0	0.431428369	0.501336997	0.006619536	0.068292530	0.021048421
2020-06-24T11:45:00	0.1895	12.975	212.0	0.431933329	0.502192340	0.006636002	0.068462414	0.021100781
2020-06-24T11:50:00	0.1907	12.980	213.0	0.435164936	0.507683126	0.006741978	0.069555739	0.021437754
2020-06-24T11:55:00	0.1905	12.987	211.0	0.434851438	0.507149190	0.006731652	0.069449212	0.021404922
2020-06-24T12:00:00	0.1898	12.996	211.0	0.432901720	0.503834669	0.006667652	0.068788932	0.021201417
2020-06-24T12:05:00	0.1906	13.004	211.0	0.435041895	0.507473536	0.006737924	0.069513918	0.021424865
2020-06-24T12:10:00	0.1904	13.009	212.0	0.434455824	0.506475789	0.006718635	0.069314924	0.021363533
2020-06-24T12:15:00	0.1902	13.010	211.0	0.433869546	0.505478648	0.006699374	0.069116208	0.021302287
2020-06-24T12:20:00	0.1895	13.016	211.0	0.431918673	0.502167505	0.006635524	0.068457480	0.021099260
2020-06-24T12:25:00	0.1899	13.023	212.0	0.432969207	0.503949220	0.006669861	0.068811723	0.021208441
2020-06-24T12:30:00	0.1885	13.028	212.0	0.429377625	0.497870569	0.006552918	0.067605242	0.020836592
2020-06-24T12:35:00	0.1885	13.039	212.0	0.429336469	0.497801121	0.006551585	0.067591492	0.020832354
2020-06-24T12:40:00	0.1872	13.044	213.0	0.425736941	0.491745413	0.006435661	0.066395532	0.020463748
2020-06-24T12:45:00	0.1876	13.056	212.0	0.426791428	0.493515715	0.006469491	0.066744542	0.020571316
2020-06-24T12:50:00	0.1881	13.067	214.0	0.428118878	0.495748666	0.006512231	0.067185484	0.020707219
2020-06-24T12:55:00	0.1887	13.067	212.0	0.429718633	0.498446173	0.006563967	0.067719234	0.020871726
2020-06-24T13:00:00	0.1891	13.068	211.0	0.430770566	0.500223821	0.006598122	0.068071611	0.020980332
2020-06-24T13:05:00	0.1881	13.070	212.0	0.428268930	0.496001381	0.006517073	0.067235439	0.020722615
2020-06-24T13:10:00	0.1887	13.073	213.0	0.429868539	0.498699309	0.006568827	0.067769381	0.020887181
2020-06-24T13:15:00	0.1891	13.073	213.0	0.430920377	0.500477234	0.006602995	0.068121885	0.020995827
2020-06-24T13:20:00	0.1896	13.075	213.0	0.432244504	0.502719788	0.006646162	0.068567231	0.021133087
2020-06-24T13:25:00	0.1902	13.075	212.0	0.433840268	0.505428878	0.006698413	0.069106294	0.021299231
2020-06-24T13:30:00	0.1915	13.074	211.0	0.437340298	0.511395665	0.006813894	0.070297684	0.021666429
2020-06-24T13:35:00	0.1912	13.073	212.0	0.436755034	0.510395537	0.006794499	0.070097596	0.021604760
2020-06-24T13:40:00	0.1926	13.074	213.0	0.440520577	0.516847028	0.006919873	0.071391055	0.022003417
2020-06-24T13:45:00	0.1946	13.076	213.0	0.447290140	0.526124069	0.007116062	0.073415095	0.022627245
2020-06-24T13:50:00	0.1955	13.076	213.0	0.450375616	0.530266095	0.007205029	0.074332958	0.022910140
2020-06-24T13:55:00	0.1949	13.076	211.0	0.448231461	0.527386930	0.007143147	0.073694526	0.022713369
2020-06-24T14:00:00	0.1954	13.078	212.0	0.449922166	0.529656902	0.007191920	0.074197717	0.022868457
2020-06-24T14:05:00	0.1960	13.078	212.0	0.451960373	0.532396431	0.007250935	0.074806560	0.023056108
2020-06-24T14:10:00	0.1960	13.074	212.0	0.452256263	0.532794405	0.007259522	0.074895150	0.023083413
2020-06-24T14:15:00	0.1962	13.069	211.0	0.452900384	0.533660992	0.007278232	0.075088178	0.023142906
2020-06-24T14:20:00	0.1968	13.062	211.0	0.454936784	0.536402873	0.007337539	0.075700040	0.023331488
2020-06-24T14:25:00	0.1964	13.057	211.0	0.453491973	0.534457190	0.007295437	0.075265677	0.023197613
2020-06-24T14:30:00	0.1968	13.056	211.0	0.454832007	0.536261718	0.007334482	0.075668499	0.023321766
2020-06-24T14:35:00	0.1970	13.057	210.0	0.455475635	0.537128948	0.007353272	0.075862352	0.023381514
2020-06-24T14:40:00	0.1980	13.063	211.0	0.458901233	0.541750139	0.007453676	0.076898197	0.023700771
2020-06-24T14:45:00	0.1979	13.064	210.0	0.458848906	0.541679481	0.007452137	0.076882323	0.023695879
2020-06-24T14:50:00	0.1976	13.063	210.0	0.457753531	0.540200838	0.007419962	0.076550383	0.023593571
2020-06-24T14:55:00	0.1972	13.063	209.0	0.456309932	0.538253575	0.007377664	0.076113995	0.023459072
2020-06-24T15:00:00	0.1978	13.065	211.0	0.458344265	0.540998150	0.007437306	0.076729310	0.023648719
2020-06-24T15:05:00	0.1976	13.066	210.0	0.457596497	0.539988935	0.007415355	0.076502853	0.023578922
2020-06-24T15:10:00	0.1980	13.063	210.0	0.458934896	0.541795597	0.007454666	0.076908411	0.023703919
2020-06-24T15:15:00	0.1982	13.061	211.0	0.459925268	0.543133381	0.007483820	0.077209188	0.023796622
2020-06-24T15:20:00	0.1979	13.062	209.0	0.458830244	0.541654280	0.007451588	0.076876662	0.023694134
2020-06-24T15:25:00	0.1975	13.064	210.0	0.457387106	0.539706413	0.007409214	0.076439500	0.023559396
2020-06-24T15:30:00	0.1976	13.064	210.0	0.457682518	0.540105010	0.007417879	0.076528888	0.023586946
2020-06-24T15:35:00	0.1976	13.066	209.0	0.457630173	0.540034376	0.007416343	0.076513045	0.023582064
2020-06-24T15:40:00	0.1974	13.067	209.0	0.456882246	0.539025369	0.007394419	0.076286854	0.023512349
2020-06-24T15:45:00	0.1974	13.067	208.0	0.456829888	0.538954751	0.007392885	0.076271032	0.023507473
2020-06-24T15:50:00	0.1972	13.067	210.0	0.456429674	0.538415032	0.007381168	0.076150145	0.023470214
2020-06-24T15:55:00	0.1972	13.064	207.0	0.456377309	0.538344424	0.007379635	0.076134335	0.023465342
2020-06-24T16:00:00	0.1968	13.062	208.0	0.454933118	0.536397934	0.007337432	0.075698936	0.023331147
2020-06-24T16:05:00	0.1967	13.062	207.0	0.454628121	0.535987067	0.007328535	0.075607142	0.023302855
2020-06-24T16:10:00	0.1965	13.064	210.0	0.453974986	0.535107466	0.007309499	0.075410752	0.023242326
2020-06-24T16:15:00	0.1972	13.064	209.0	0.456454024	0.538447867	0.007381880	0.076157498	0.023472480
2020-06-24T16:20:00	0.1972	13.067	209.0	0.456149165	0.538036820	0.007372960	0.076065472	0.023444117
2020-06-24T16:25:00	0.1966	13.070	208.0	0.454104156	0.535281398	0.007313262	0.075449572	0.023254291
2020-06-24T16:30:00	0.1967	13.073	208.0	0.454495304	0.535808171	0.007324662	0.075567185	0.023290540
2020-06-24T16:35:00	0.1972	13.074	208.0	0.456278252	0.538210861	0.007376737	0.076104432	0.023456125
2020-06-24T16:40:00	0.1961	13.077	208.0	0.452492365	0.533112013	0.007266377	0.074965876	0.023105211
2020-06-24T16:45:00	0.1963	13.080	210.0	0.453231923	0.534107165	0.007287872	0.075187627	0.023173557
2020-06-24T16:50:00	0.1954	13.081	209.0	0.450139721	0.529949158	0.007198208	0.074262587	0.022888451
2020-06-24T16:55:00	0.1953	13.079	208.0	0.449834287	0.529538859	0.007189381	0.074171521	0.022860383
2020-06-24T17:00:00	0.1960	13.080	208.0	0.451968067	0.532406778	0.007251158	0.074808863	0.023056818
2020-06-24T17:05:00	0.1964	13.078	208.0	0.453404187	0.534339026	0.007292883	0.075239325	0.023189491
2020-06-24T17:10:00	0.1957	13.075	210.0	0.451009088	0.531117413	0.007223362	0.074522094	0.022968433
2020-06-24T17:15:00	0.1963	13.075	208.0	0.453142120	0.533986302	0.007285260	0.075160683	0.023165252
2020-06-24T17:20:00	0.1966	13.075	207.0	0.454229655	0.535450399	0.007316918	0.075487298	0.023265918
2020-06-24T17:25:00	0.1964	13.075	208.0	0.453576443	0.534570898	0.007297895	0.075291038	0.023205429
2020-06-24T17:30:00	0.1963	13.076	208.0	0.453271322	0.534160193	0.007289017	0.075199449	0.023177201
2020-06-24T17:35:00	0.1966	13.075	210.0	0.454358816	0.535624343	0.007320683	0.075526135	0.023277888
2020-06-24T17:40:00	0.1964	13.074	208.0	0.453357455	0.534276123	0.007291523	0.075225298	0.023185168
2020-06-24T17:45:00	0.1965	13.071	208.0	0.453748689	0.534802782	0.007302909	0.075342766	0.023221372
2020-06-24T17:50:00	0.1965	13.069	209.0	0.453791750	0.534860755	0.007304163	0.075355700	0.023225359
2020-06-24T17:55:00	0.1959	13.069	210.0	0.451745304	0.532107205	0.007244697	0.074742201	0.023036272
2020-06-24T18:00:00	0.1959	13.069	210.0	0.451788390	0.532165144	0.007245946	0.074755092	0.023040245
2020-06-24T18:05:00	0.1958	13.067	211.0	0.451483107	0.531754650	0.007237095	0.074663775	0.023012101
2020-06-24T18:10:00	0.1948	13.065	210.0	0.448040564	0.527130769	0.007137650	0.073637817	0.022695890
2020-06-24T18:15:00	0.1946	13.062	209.0	0.447386145	0.526252836	0.007118822	0.073443570	0.022636022
2020-06-24T18:20:00	0.1947	13.057	210.0	0.447429287	0.526310702	0.007120062	0.073456368	0.022639966
2020-06-24T18:25:00	0.1950	13.054	210.0	0.448518676	0.527772391	0.007151421	0.073779890	0.022739678
2020-06-24T18:30:00	0.1944	13.050	209.0	0.446469008	0.525023022	0.007092476	0.073171766	0.022552249
2020-06-24T18:35:00	0.1950	13.047	210.0	0.448604930	0.527888163	0.007153907	0.073805535	0.022747583
2020-06-24T18:40:00	0.1950	13.044	211.0	0.448648057	0.527946050	0.007155150	0.073818359	0.022751535
2020-06-24T18:45:00	0.1952	13.043	211.0	0.449388464	0.528940100	0.007176506	0.074038694	0.022819445
2020-06-24T18:50:00	0.1948	13.040	211.0	0.448036890	0.527125840	0.007137544	0.073636725	0.022695554
2020-06-24T18:55:00	0.1946	13.039	211.0	0.447382470	0.526247908	0.007118716	0.073442480	0.022635686
2020-06-24T19:00:00	0.1955	13.035	211.0	0.450214920	0.530050188	0.007200382	0.074285017	0.022895364
2020-06-24T19:05:00	0.1951	13.030	211.0	0.448863680	0.528235495	0.007161366	0.073882492	0.022771302
2020-06-24T19:10:00	0.1958	13.026	212.0	0.451346496	0.531570982	0.007233136	0.074622929	0.022999512
2020-06-24T19:15:00	0.1964	13.022	211.0	0.453479314	0.534440150	0.007295068	0.075261877	0.023196441
2020-06-24T19:20:00	0.1969	13.018	212.0	0.455262801	0.536842137	0.007347056	0.075798222	0.023361748
2020-06-24T19:25:00	0.1977	13.014	211.0	0.458088609	0.540653056	0.007429797	0.076651849	0.023624844
2020-06-24T19:30:00	0.1978	13.010	210.0	0.458479293	0.541180434	0.007441273	0.076770237	0.023661333
2020-06-24T19:35:00	0.1987	13.007	211.0	0.461649751	0.545464647	0.007534718	0.077734294	0.023958464
2020-06-24T19:40:00	0.1986	13.002	211.0	0.460997980	0.544583264	0.007515461	0.077535624	0.023897232
2020-06-24T19:45:00	0.1994	12.999	211.0	0.463818975	0.548400484	0.007598983	0.078397308	0.024162812
2020-06-24T19:50:00	0.1990	12.995	211.0	0.462473197	0.546578663	0.007559081	0.077985650	0.024035935
2020-06-24T19:55:00	0.1994	12.990	211.0	0.463904838	0.548516767	0.007601532	0.078423608	0.024170918
2020-06-24T20:00:00	0.1998	12.985	211.0	0.465335870	0.550455671	0.007644082	0.078862586	0.024306215
2020-06-24T20:05:00	0.1994	12.981	210.0	0.463990698	0.548633053	0.007604082	0.078449912	0.024179025
2020-06-24T20:10:00	0.1995	12.977	210.0	0.464380697	0.549161329	0.007615668	0.078569447	0.024215867
2020-06-24T20:15:00	0.1998	12.973	210.0	0.465464605	0.550630173	0.007647916	0.078902136	0.024318405
2020-06-24T20:20:00	0.2004	12.970	210.0	0.467241751	0.553040467	0.007700932	0.079449101	0.024486984
2020-06-24T20:25:00	0.2006	12.969	210.0	0.467978075	0.554039857	0.007722952	0.079676269	0.024557000
2020-06-24T20:30:00	0.2008	12.966	211.0	0.468714238	0.555039458	0.007744997	0.079903708	0.024627099
2020-06-24T20:35:00	0.2010	12.963	211.0	0.469450240	0.556039272	0.007767069	0.080131417	0.024697281
2020-06-24T20:40:00	0.2004	12.960	211.0	0.467413299	0.553273266	0.007706060	0.079501998	0.024503288
2020-06-24T20:45:00	0.2004	12.955	212.0	0.467456185	0.553331468	0.007707342	0.079515224	0.024507364
2020-06-24T20:50:00	0.1994	12.951	208.0	0.464029971	0.548686246	0.007605248	0.078461946	0.024182734
2020-06-24T20:55:00	0.1996	12.946	212.0	0.464766997	0.549684711	0.007627153	0.078687937	0.024252386
2020-06-24T21:00:00	0.2004	12.940	209.0	0.467238099	0.553035511	0.007700823	0.079447974	0.024486637
2020-06-24T21:05:00	0.2007	12.936	210.0	0.468321088	0.554505565	0.007733220	0.079782204	0.024589650
2020-06-24T21:10:00	0.2005	12.931	209.0	0.467670606	0.553622486	0.007713753	0.079581371	0.024527751
2020-06-24T21:15:00	0.2006	12.929	213.0	0.468060180	0.554151322	0.007725409	0.079701620	0.024564813
2020-06-24T21:20:00	0.2011	12.927	208.0	0.469835959	0.556563419	0.007778648	0.080250880	0.024734101
2020-06-24T21:25:00	0.2014	12.924	211.0	0.470918115	0.558034574	0.007811181	0.080586510	0.024837545
2020-06-24T21:30:00	0.2023	12.920	210.0	0.474076903	0.562334163	0.007906525	0.081570160	0.025140715
2020-06-24T21:35:00	0.2017	12.917	210.0	0.472042752	0.559564466	0.007845061	0.080936048	0.024945276
2020-06-24T21:40:00	0.2023	12.915	211.0	0.473816439	0.561979332	0.007898641	0.081488828	0.025115648
2020-06-24T21:45:00	0.2023	12.915	209.0	0.473859243	0.562037641	0.007899937	0.081502191	0.025119767
2020-06-24T21:50:00	0.2031	12.922	208.0	0.476669511	0.565869028	0.007985206	0.082381903	0.025390903
2020-06-24T21:55:00	0.2034	12.925	209.0	0.477749482	0.567343082	0.008018095	0.082721213	0.025495481
2020-06-24T22:00:00	0.2034	12.925	207.0	0.477792237	0.567401457	0.008019399	0.082734660	0.025499626
2020-06-24T22:05:00	0.2039	12.925	208.0	0.479614918	0.569891409	0.008075062	0.083308928	0.025676621
2020-06-24T22:10:00	0.2033	12.924	207.0	0.477290422	0.566716397	0.008004107	0.082576899	0.025451002
2020-06-24T22:15:00	0.2039	12.923	208.0	0.479458898	0.569678167	0.008070290	0.083259694	0.025661446
2020-06-24T22:20:00	0.2042	12.919	208.0	0.480589970	0.571224508	0.008104918	0.083616942	0.025771554
2020-06-24T22:25:00	0.2056	12.918	206.0	0.485516577	0.577971808	0.008256602	0.085181838	0.026253870
2020-06-24T22:30:00	0.2047	12.918	206.0	0.482160591	0.573373468	0.008153124	0.084114276	0.025924837
2020-06-24T22:35:00	0.2046	12.919	206.0	0.481910016	0.573030494	0.008145424	0.084034834	0.025900352
2020-06-24T22:40:00	0.2059	12.922	205.0	0.486489934	0.579307176	0.008286735	0.085492718	0.026349686
2020-06-24T22:45:00	0.2056	12.926	203.0	0.485549976	0.578017616	0.008257635	0.085192496	0.026257155
2020-06-24T22:50:00	0.2058	12.928	203.0	0.485989405	0.578620396	0.008271233	0.085332785	0.026300393
2020-06-24T22:55:00	0.2061	12.927	204.0	0.487118302	0.580169650	0.008306217	0.085693711	0.026411634
2020-06-24T23:00:00	0.2054	12.924	204.0	0.484798947	0.576987763	0.008234420	0.084952995	0.026183338
2020-06-24T23:05:00	0.2062	12.922	203.0	0.487307352	0.580429195	0.008312083	0.085754227	0.026430286
2020-06-24T23:10:00	0.2073	12.921	203.0	0.491191441	0.585767944	0.008433052	0.087002241	0.026814936
2020-06-24T23:15:00	0.2073	12.921	202.0	0.491285854	0.585897867	0.008436003	0.087032689	0.026824320
2020-06-24T23:20:00	0.2086	12.923	202.0	0.495853161	0.592191522	0.008579386	0.088511946	0.027280241
2020-06-24T23:25:00	0.2101	12.930	200.0	0.500757717	0.598968547	0.008734695	0.090114241	0.027774084
2020-06-24T23:30:00	0.2119	12.956	196.0	0.507026385	0.607658652	0.008935222	0.092183042	0.028411709
2020-06-24T23:35:00	0.2125	12.962	196.0	0.509176001	0.610645906	0.009004509	0.092897861	0.028632023
2020-06-24T23:40:00	0.2133	12.960	196.0	0.511666540	0.614111593	0.009085119	0.093729497	0.028888341
2020-06-24T23:45:00	0.2141	12.955	196.0	0.514497259	0.618056740	0.009177175	0.094679227	0.029181057
2020-06-24T23:50:00	0.2132	12.949	196.0	0.511511981	0.613896372	0.009080106	0.093677779	0.028872401
2020-06-24T23:55:00	0.2145	12.946	196.0	0.516052340	0.620226799	0.009227945	0.095203009	0.029342492
2020-06-25T00:00:00	0.2159	12.942	196.0	0.520586697	0.626565511	0.009376782	0.096738536	0.029815756
2020-06-25T00:05:00	0.2159	12.940	195.0	0.520680302	0.626696540	0.009379868	0.096770364	0.029825566
2020-06-25T00:10:00	0.2151	12.937	196.0	0.518042038	0.623006207	0.009293109	0.095875289	0.029549695
2020-06-25T00:15:00	0.2147	12.934	196.0	0.516769001	0.621227533	0.009251390	0.095444882	0.029417039
2020-06-25T00:20:00	0.2151	12.930	194.0	0.517887766	0.622790590	0.009288048	0.095823079	0.029533604
2020-06-25T00:25:00	0.2151	12.927	195.0	0.517981444	0.622921516	0.009291121	0.095854781	0.029543374
2020-06-25T00:30:00	0.2151	12.924	195.0	0.518075120	0.623052446	0.009294194	0.095886487	0.029553147
2020-06-25T00:35:00	0.2153	12.921	192.0	0.518510383	0.623660903	0.009308481	0.096033879	0.029598574
2020-06-25T00:40:00	0.2159	12.917	195.0	0.520652812	0.626658059	0.009378961	0.096761016	0.029822685
2020-06-25T00:45:00	0.2163	12.914	195.0	0.522111545	0.628700886	0.009427103	0.097257682	0.029975762
2020-06-25T00:50:00	0.2154	12.910	194.0	0.519132887	0.624531373	0.009328932	0.096244872	0.029663604
2020-06-25T00:55:00	0.2155	12.908	194.0	0.519226531	0.624662346	0.009332011	0.096276632	0.029673393
2020-06-25T01:00:00	0.2143	12.907	194.0	0.515219821	0.619064807	0.009200748	0.094922420	0.029256012
2020-06-25T01:05:00	0.2147	12.905	195.0	0.516680863	0.621104437	0.009248505	0.095415119	0.029407866
2020-06-25T01:10:00	0.2144	12.902	194.0	0.515749185	0.619803605	0.009218037	0.095100787	0.029310986
2020-06-25T01:15:00	0.2146	12.900	195.0	0.516184743	0.620411655	0.009232274	0.095247672	0.029356257
2020-06-25T01:20:00	0.2152	12.899	195.0	0.518328624	0.623406802	0.009302513	0.095972316	0.029579600
2020-06-25T01:25:00	0.2156	12.898	196.0	0.519788344	0.625448261	0.009350490	0.096467286	0.029732154
2020-06-25T01:30:00	0.2161	12.897	196.0	0.521247443	0.627490579	0.009398571	0.096963321	0.029885037
2020-06-25T01:35:00	0.2166	12.897	196.0	0.523047063	0.630011904	0.009458042	0.097576877	0.030074141
2020-06-25T01:40:00	0.2164	12.897	195.0	0.522458307	0.629186750	0.009438565	0.097375935	0.030012209
2020-06-25T01:45:00	0.2172	12.898	196.0	0.525280147	0.633144182	0.009532100	0.098340918	0.030309626
2020-06-25T01:50:00	0.2179	12.899	195.0	0.527418365	0.636147191	0.009603284	0.099075306	0.030535972
2020-06-25T01:55:00	0.2181	12.901	196.0	0.528193076	0.637236146	0.009629140	0.099342065	0.030618189
2020-06-25T02:00:00	0.2185	12.902	197.0	0.529648617	0.639283417	0.009677815	0.099844232	0.030772962
2020-06-25T02:05:00	0.2193	12.904	198.0	0.532464576	0.643249057	0.009772334	0.100819363	0.031073507
2020-06-25T02:10:00	0.2194	12.904	197.0	0.532557858	0.643380535	0.009775472	0.100851747	0.031083488
2020-06-25T02:15:00	0.2200	12.905	197.0	0.534691569	0.646389847	0.009847411	0.101593923	0.031312234
2020-06-25T02:20:00	0.2205	12.906	195.0	0.536484184	0.648920960	0.009908055	0.102219573	0.031505065
2020-06-25T02:25:00	0.2208	12.906	194.0	0.537256862	0.650012765	0.009934252	0.102489847	0.031588366
2020-06-25T02:30:00	0.2204	12.908	197.0	0.535990909	0.648224211	0.009891349	0.102047219	0.031451944
2020-06-25T02:35:00	0.2207	12.908	197.0	0.537103449	0.649795950	0.009929048	0.102436156	0.031571818
2020-06-25T02:40:00	0.2213	12.909	197.0	0.539234355	0.652809207	0.010001457	0.103183190	0.031802061
2020-06-25T02:45:00	0.2219	12.909	197.0	0.541024617	0.655343635	0.010062497	0.103812922	0.031996151
2020-06-25T02:50:00	0.2225	12.910	198.0	0.543153111	0.658360299	0.010135312	0.104564146	0.032227685
2020-06-25T02:55:00	0.2224	12.913	197.0	0.542906957	0.658011242	0.010126878	0.104477129	0.032200866
2020-06-25T03:00:00	0.2221	12.914	198.0	0.541982341	0.656700537	0.010095227	0.104150600	0.032100226
2020-06-25T03:05:00	0.2217	12.915	197.0	0.540378721	0.654428955	0.010040453	0.103585503	0.031926058
2020-06-25T03:10:00	0.2228	12.916	197.0	0.544203216	0.659849954	0.010171334	0.104935774	0.032342225
2020-06-25T03:15:00	0.2225	12.919	197.0	0.543278946	0.658538759	0.010139625	0.104608643	0.032241400
2020-06-25T03:20:00	0.2214	12.920	198.0	0.539300113	0.652902254	0.010003696	0.103206287	0.031809180
2020-06-25T03:25:00	0.2207	12.920	198.0	0.537015830	0.649672131	0.009926076	0.102405498	0.031562369
2020-06-25T03:30:00	0.2215	12.920	198.0	0.539825790	0.653646198	0.010021602	0.103391016	0.031866115
2020-06-25T03:35:00	0.2217	12.922	197.0	0.540597723	0.654739055	0.010047925	0.103662585	0.031949815
2020-06-25T03:40:00	0.2224	12.923	199.0	0.542726479	0.657755348	0.010120696	0.104413353	0.032181209
2020-06-25T03:45:00	0.2220	12.924	196.0	0.541462526	0.655963971	0.010077456	0.103967253	0.032043717
2020-06-25T03:50:00	0.2221	12.924	196.0	0.541894846	0.656576544	0.010092235	0.104119727	0.032090711
2020-06-25T03:55:00	0.2218	12.925	195.0	0.540969961	0.655266221	0.010060630	0.103793668	0.031990216
2020-06-25T04:00:00	0.2223	12.926	196.0	0.542420130	0.657321044	0.010110207	0.104305141	0.032147857
2020-06-25T04:05:00	0.2221	12.927	197.0	0.541744674	0.656363741	0.010087100	0.104066750	0.032074383
2020-06-25T04:10:00	0.2218	12.930	198.0	0.540729725	0.654925985	0.010052429	0.103709060	0.031964139
2020-06-25T04:15:00	0.2216	12.933	198.0	0.540053940	0.653969148	0.010029378	0.103471243	0.031890842
2020-06-25T04:20:00	0.2215	12.936	199.0	0.539717516	0.653492948	0.010017912	0.103352954	0.031854384
2020-06-25T04:25:00	0.2219	12.939	198.0	0.541078196	0.655419526	0.010064326	0.103831798	0.032001969
2020-06-25T04:30:00	0.2221	12.942	198.0	0.541759853	0.656385249	0.010087619	0.104072105	0.032076033
2020-06-25T04:35:00	0.2221	12.944	199.0	0.541762889	0.656389551	0.010087723	0.104073175	0.032076363
2020-06-25T04:40:00	0.2220	12.947	199.0	0.541426631	0.655913117	0.010076229	0.103954598	0.032039817
2020-06-25T04:45:00	0.2235	12.950	198.0	0.546515575	0.663133394	0.010250882	0.105756460	0.032595168
2020-06-25T04:50:00	0.2233	12.953	199.0	0.545840917	0.662174959	0.010227640	0.105516681	0.032521266
2020-06-25T04:55:00	0.2232	12.955	199.0	0.545505055	0.661697965	0.010216080	0.105397416	0.032484507
2020-06-25T05:00:00	0.2213	12.956	199.0	0.539062800	0.652566479	0.009995618	0.103122947	0.031783494
2020-06-25T05:05:00	0.2215	12.959	199.0	0.539744854	0.653531641	0.010018844	0.103362563	0.031857346
2020-06-25T05:10:00	0.2207	12.968	199.0	0.537031030	0.649693610	0.009926592	0.102410816	0.031564008
2020-06-25T05:15:00	0.2212	12.970	199.0	0.538732357	0.652099012	0.009984375	0.103006958	0.031747745
2020-06-25T05:20:00	0.2211	12.975	200.0	0.538395805	0.651622994	0.009972931	0.102888892	0.031711356
2020-06-25T05:25:00	0.2210	12.977	200.0	0.538059220	0.651147023	0.009961493	0.102770883	0.031674984
2020-06-25T05:30:00	0.2217	12.983	199.0	0.540438922	0.654514194	0.010042507	0.103606689	0.031932588
2020-06-25T05:35:00	0.2227	12.987	200.0	0.543834359	0.659326600	0.010158673	0.104805161	0.032301969
2020-06-25T05:40:00	0.2229	12.990	200.0	0.544515475	0.660293091	0.010182057	0.105046410	0.032376324
2020-06-25T05:45:00	0.2232	12.996	199.0	0.545535380	0.661741029	0.010217124	0.105408182	0.032487825
2020-06-25T05:50:00	0.2242	13.000	200.0	0.548925831	0.666560507	0.010334132	0.106615333	0.032859881
2020-06-25T05:55:00	0.2258	13.002	199.0	0.554341863	0.674278878	0.010522445	0.108558121	0.033458667
2020-06-25T06:00:00	0.2271	13.004	198.0	0.558736752	0.680559738	0.010676520	0.110147689	0.033948588
2020-06-25T06:05:00	0.2283	13.005	200.0	0.562788891	0.686364850	0.010819587	0.111623685	0.034403504
2020-06-25T06:10:00	0.2290	13.008	200.0	0.565151723	0.689756101	0.010903457	0.112488960	0.034670190
2020-06-25T06:15:00	0.2307	13.010	200.0	0.570879084	0.697995416	0.011108122	0.114600445	0.035320970
2020-06-25T06:20:00	0.2318	13.017	200.0	0.574581095	0.703335518	0.011241443	0.115975900	0.035744899
2020-06-25T06:25:00	0.2332	13.025	199.0	0.579286278	0.710139068	0.011412064	0.117736163	0.036287429
2020-06-25T06:30:00	0.2340	13.035	200.0	0.581973410	0.714032818	0.011510095	0.118747529	0.036599142
2020-06-25T06:35:00	0.2347	13.051	199.0	0.584323341	0.717442868	0.011596176	0.119635607	0.036872856
2020-06-25T06:40:00	0.2355	13.058	200.0	0.587006627	0.721342274	0.011694869	0.120653808	0.037186675
2020-06-25T06:45:00	0.2362	13.071	200.0	0.589353200	0.724757273	0.011781529	0.121547862	0.037462232
2020-06-25T06:50:00	0.2371	13.086	200.0	0.592367073	0.729150132	0.011893314	0.122701125	0.037817678
2020-06-25T06:55:00	0.2373	13.085	199.0	0.593038800	0.730130237	0.011918302	0.122958923	0.037897134
2020-06-25T07:00:00	0.2375	13.092	198.0	0.593710398	0.731110532	0.011943312	0.123216950	0.037976661
2020-06-25T07:05:00	0.2371	13.104	200.0	0.592376049	0.729163227	0.011893647	0.122704568	0.037818740
2020-06-25T07:10:00	0.2367	13.105	199.0	0.591041195	0.727216672	0.011844070	0.122193088	0.037661096
2020-06-25T07:15:00	0.2372	13.135	198.0	0.592716416	0.729659805	0.011906306	0.122835163	0.037858990
2020-06-25T07:20:00	0.2376	13.145	199.0	0.594056617	0.731616035	0.011956216	0.123350075	0.038017691
2020-06-25T07:25:00	0.2384	13.156	200.0	0.596732507	0.735526391	0.012056189	0.124381475	0.038335579
2020-06-25T07:30:00	0.2386	13.209	200.0	0.597403404	0.736507730	0.012081321	0.124640759	0.038415492
2020-06-25T07:35:00	0.2390	13.212	200.0	0.598741829	0.738466604	0.012131539	0.125158852	0.038575174
2020-06-25T07:40:00	0.2396	13.210	201.0	0.600747024	0.741404143	0.012206975	0.125937115	0.038815042
2020-06-25T07:45:00	0.2403	13.221	201.0	0.603084485	0.744832689	0.012295215	0.126847471	0.039095622
2020-06-25T07:50:00	0.2430	13.228	201.0	0.612077495	0.758066173	0.012637758	0.130381419	0.040184820
2020-06-25T07:55:00	0.2463	13.245	200.0	0.623037480	0.774286031	0.013061795	0.134756126	0.041533147
2020-06-25T08:00:00	0.2479	13.269	201.0	0.628340835	0.782170918	0.013269580	0.136899806	0.042193850
2020-06-25T08:05:00	0.2504	13.293	200.0	0.636609953	0.794512689	0.013596958	0.140277311	0.043234830
2020-06-25T08:10:00	0.2518	13.323	201.0	0.641233639	0.801438874	0.013781820	0.142184498	0.043822643
2020-06-25T08:15:00	0.2524	13.350	200.0	0.643215083	0.804412595	0.013861439	0.143005910	0.044075810
2020-06-25T08:20:00	0.2533	13.375	202.0	0.646183731	0.808874143	0.013981173	0.144241184	0.044456534
2020-06-25T08:25:00	0.2538	13.397	202.0	0.647833231	0.811356400	0.014047934	0.144929945	0.044668816
2020-06-25T08:30:00	0.2538	13.422	202.0	0.647836177	0.811360836	0.014048053	0.144931176	0.044669196
2020-06-25T08:35:00	0.2551	13.433	201.0	0.652116635	0.817813127	0.014222073	0.146726506	0.045222534
2020-06-25T08:40:00	0.2552	13.460	202.0	0.652448406	0.818313886	0.014235608	0.146866141	0.045265571
2020-06-25T08:45:00	0.2547	13.488	201.0	0.650806905	0.815837203	0.014168708	0.146175948	0.045052847
2020-06-25T08:50:00	0.2542	13.522	203.0	0.649164655	0.813361691	0.014101942	0.145487139	0.044840549
2020-06-25T08:55:00	0.2543	13.548	204.0	0.649496699	0.813862025	0.014115428	0.145626271	0.044883431
2020-06-25T09:00:00	0.2536	13.580	204.0	0.647195325	0.810396170	0.014022096	0.144663380	0.044586659
2020-06-25T09:05:00	0.2537	13.583	204.0	0.647527550	0.810896220	0.014035549	0.144802176	0.044629437
2020-06-25T09:10:00	0.2532	13.628	204.0	0.645883805	0.808423047	0.013969052	0.144116131	0.044417991
2020-06-25T09:15:00	0.2544	13.624	205.0	0.649837544	0.814375719	0.014129279	0.145769163	0.044927472
2020-06-25T09:20:00	0.2533	13.673	205.0	0.646219098	0.808927341	0.013982603	0.144255933	0.044461080
2020-06-25T09:25:00	0.2512	13.706	206.0	0.639298348	0.798537641	0.013704286	0.141384595	0.043576105
2020-06-25T09:30:00	0.2520	13.742	206.0	0.641940471	0.802499293	0.013810195	0.142477234	0.043912867
2020-06-25T09:35:00	0.2528	13.747	207.0	0.644580652	0.806463962	0.013916450	0.143573445	0.044250730
2020-06-25T09:40:00	0.2528	13.783	207.0	0.644583600	0.806468393	0.013916568	0.143574672	0.044251108
2020-06-25T09:45:00	0.2526	13.794	207.0	0.643927424	0.805482480	0.013890121	0.143301815	0.044167011
2020-06-25T09:50:00	0.2532	13.819	210.0	0.645907385	0.808458509	0.013970004	0.144125961	0.044421021
2020-06-25T09:55:00	0.2531	13.838	207.0	0.645580906	0.807967557	0.013956816	0.143989896	0.044379085
2020-06-25T10:00:00	0.2527	13.851	209.0	0.644265848	0.805990921	0.013903758	0.143442508	0.044210374
2020-06-25T10:05:00	0.2513	13.887	209.0	0.639546722	0.798909805	0.013714224	0.141487123	0.043607705
2020-06-25T10:10:00	0.2530	13.919	210.0	0.645050119	0.807169565	0.013935388	0.143768827	0.044310949
2020-06-25T10:15:00	0.2531	13.940	210.0	0.645606913	0.808006664	0.013957866	0.144000733	0.044382424
2020-06-25T10:20:00	0.2530	13.971	210.0	0.645175322	0.807357776	0.013940441	0.143820958	0.044327016
2020-06-25T10:25:00	0.2518	14.009	210.0	0.641117153	0.801264157	0.013777147	0.142136285	0.043807783
2020-06-25T10:30:00	0.2513	14.047	210.0	0.639365218	0.798637834	0.013706962	0.141412195	0.043584612
2020-06-25T10:35:00	0.2527	14.093	211.0	0.644209820	0.805906738	0.013901500	0.143419210	0.044203193
2020-06-25T10:40:00	0.2517	14.141	211.0	0.640810378	0.800804083	0.013764843	0.142009353	0.043768662
2020-06-25T10:45:00	0.2522	14.176	211.0	0.642357176	0.803124651	0.013826937	0.142649960	0.043966103
2020-06-25T10:50:00	0.2511	14.200	212.0	0.638955979	0.798024719	0.013690594	0.141243330	0.043532566
2020-06-25T10:55:00	0.2508	14.233	213.0	0.637863350	0.796388459	0.013646943	0.140792991	0.043393767
2020-06-25T11:00:00	0.2511	14.254	213.0	0.638751342	0.797718189	0.013682413	0.141158930	0.043506553
2020-06-25T11:05:00	0.2515	14.272	213.0	0.640299027	0.800037381	0.013744348	0.141797907	0.043703492
2020-06-25T11:10:00	0.2503	14.310	214.0	0.636235341	0.793952323	0.013582037	0.140123377	0.043187386
2020-06-25T11:15:00	0.2515	14.365	215.0	0.640094467	0.799730733	0.013736154	0.141713366	0.043677436
2020-06-25T11:20:00	0.2507	14.413	214.0	0.637681761	0.796116620	0.013639695	0.140718220	0.043370722
2020-06-25T11:25:00	0.2504	14.451	214.0	0.636588743	0.794480959	0.013596113	0.140268593	0.043232143
2020-06-25T11:30:00	0.2511	14.500	215.0	0.638797549	0.797787401	0.013684260	0.141177985	0.043512426
2020-06-25T11:35:00	0.2500	14.557	215.0	0.635062584	0.792198814	0.013535382	0.139642040	0.043039033
2020-06-25T11:40:00	0.2512	14.602	215.0	0.639253008	0.798469708	0.013702473	0.141365883	0.043570338
2020-06-25T11:45:00	0.2511	14.631	215.0	0.638820653	0.797822007	0.013685183	0.141187513	0.043515363
2020-06-25T11:50:00	0.2502	14.674	215.0	0.635746462	0.793221208	0.013562578	0.139922621	0.043125511
2020-06-25T11:55:00	0.2508	14.709	215.0	0.637955786	0.796526847	0.013650633	0.140831061	0.043405501
2020-06-25T12:00:00	0.2506	14.754	215.0	0.637193079	0.795385199	0.013620201	0.140517102	0.043308735
2020-06-25T12:05:00	0.2503	14.779	216.0	0.636099912	0.793749769	0.013576645	0.140067749	0.043170240
2020-06-25T12:10:00	0.2490	14.838	215.0	0.632031462	0.787672073	0.013415182	0.138401955	0.042656827
2020-06-25T12:15:00	0.2496	14.866	216.0	0.633912578	0.790480455	0.013489712	0.139170876	0.042893816
2020-06-25T12:20:00	0.2495	14.907	216.0	0.633479579	0.789833750	0.013472538	0.138993688	0.042839205
2020-06-25T12:25:00	0.2491	14.965	216.0	0.632385279	0.788200070	0.013429184	0.138546412	0.042701350
2020-06-25T12:30:00	0.2482	15.020	216.0	0.629305559	0.783607798	0.013307560	0.137291644	0.042314618
2020-06-25T12:35:00	0.2499	15.025	216.0	0.634824678	0.791843239	0.013525928	0.139544501	0.043008970
2020-06-25T12:40:00	0.2482	15.035	216.0	0.629431313	0.783795157	0.013312515	0.137342764	0.042330374
2020-06-25T12:45:00	0.2481	15.076	215.0	0.628997771	0.783149286	0.013295437	0.137166568	0.042276068
2020-06-25T12:50:00	0.2480	15.101	216.0	0.628564176	0.782503496	0.013278367	0.136990468	0.042221793
2020-06-25T12:55:00	0.2485	15.114	214.0	0.630116266	0.784815892	0.013339521	0.137621376	0.042416245
2020-06-25T13:00:00	0.2474	15.165	215.0	0.626703426	0.779733926	0.013205245	0.136236075	0.041989281
2020-06-25T13:05:00	0.2473	15.222	216.0	0.626269553	0.779088563	0.013188225	0.136060483	0.041935162
2020-06-25T13:10:00	0.2481	15.256	217.0	0.628815732	0.782878141	0.013288269	0.137092621	0.042253277
2020-06-25T13:15:00	0.2480	15.286	218.0	0.628713125	0.782725320	0.013284230	0.137050949	0.042240433
2020-06-25T13:20:00	0.2466	15.314	217.0	0.623973456	0.775675888	0.013098343	0.135133185	0.041649360
2020-06-25T13:25:00	0.2461	15.331	217.0	0.622213108	0.773062510	0.013029648	0.134424479	0.041430930
2020-06-25T13:30:00	0.2451	15.332	217.0	0.619124601	0.768483685	0.012909577	0.133185723	0.041049133
2020-06-25T13:35:00	0.2458	15.327	217.0	0.621344217	0.771773534	0.012995810	0.134075379	0.041323334
2020-06-25T13:40:00	0.2455	15.327	216.0	0.620246193	0.770145557	0.012953114	0.133634891	0.041187571
2020-06-25T13:45:00	0.2451	15.327	218.0	0.619147831	0.768518095	0.012910478	0.133195018	0.041051998
2020-06-25T13:50:00	0.2453	15.326	217.0	0.619708668	0.769348970	0.012932239	0.133419529	0.041121195
2020-06-25T13:55:00	0.2451	15.320	217.0	0.618942058	0.768213310	0.012902498	0.133112693	0.041026625
2020-06-25T14:00:00	0.2448	15.310	217.0	0.617843293	0.766586460	0.012859932	0.132673549	0.040891276
2020-06-25T14:05:00	0.2445	15.305	217.0	0.617076281	0.765451410	0.012830261	0.132367442	0.040796931
2020-06-25T14:10:00	0.2441	15.298	217.0	0.615644747	0.763334305	0.012774979	0.131797107	0.040621148
2020-06-25T14:15:00	0.2451	15.291	217.0	0.618862399	0.768095331	0.012899410	0.133080830	0.041016804
2020-06-25T14:20:00	0.2452	15.280	217.0	0.619423281	0.768926137	0.012921163	0.133305260	0.041085976
2020-06-25T14:25:00	0.2438	15.277	217.0	0.614671240	0.761895564	0.012737456	0.131409981	0.040501832
2020-06-25T14:30:00	0.2437	15.276	217.0	0.614235900	0.761252435	0.012720694	0.131237053	0.040448534
2020-06-25T14:35:00	0.2434	15.277	217.0	0.613468109	0.760118565	0.012691160	0.130932355	0.040354623
2020-06-25T14:40:00	0.2417	15.275	217.0	0.607709383	0.751629891	0.012470771	0.128658648	0.039653845
2020-06-25T14:45:00	0.2413	15.272	218.0	0.606274069	0.749518494	0.012416151	0.128095142	0.039480167
2020-06-25T14:50:00	0.2410	15.266	217.0	0.605504555	0.748387223	0.012386919	0.127793555	0.039387215
2020-06-25T14:55:00	0.2418	15.259	216.0	0.608065623	0.752154199	0.012484347	0.128798705	0.039697012
2020-06-25T15:00:00	0.2417	15.254	218.0	0.607629472	0.751512293	0.012467727	0.128627241	0.039644165
2020-06-25T15:05:00	0.2412	15.246	217.0	0.606194126	0.749400945	0.012413113	0.128063794	0.039470505
2020-06-25T15:10:00	0.2411	15.236	217.0	0.605757745	0.748759386	0.012396533	0.127892745	0.039417786
2020-06-25T15:15:00	0.2416	15.223	217.0	0.607319805	0.751056637	0.012455934	0.128505573	0.039606666
2020-06-25T15:20:00	0.2416	15.215	217.0	0.607216577	0.750904761	0.012452004	0.128465028	0.039594169
2020-06-25T15:25:00	0.2425	15.206	217.0	0.610441863	0.755654242	0.012575096	0.129734946	0.039985570
2020-06-25T15:30:00	0.2425	15.194	217.0	0.610338726	0.755502229	0.012571150	0.129694237	0.039973024
2020-06-25T15:35:00	0.2418	15.178	217.0	0.607905815	0.751918983	0.012478256	0.128735866	0.039677644
2020-06-25T15:40:00	0.2412	15.161	217.0	0.606137497	0.749317681	0.012410960	0.128041590	0.039463662
2020-06-25T15:45:00	0.2415	15.142	217.0	0.607033421	0.750635312	0.012445032	0.128393106	0.039572002
2020-06-25T15:50:00	0.2422	15.122	217.0	0.609260595	0.753913721	0.012529941	0.129269088	0.039841988
2020-06-25T15:55:00	0.2407	15.105	218.0	0.604494934	0.746903722	0.012348619	0.127398421	0.039265431
2020-06-25T16:00:00	0.2409	15.090	218.0	0.605058088	0.747731095	0.012369974	0.127618744	0.039333336
2020-06-25T16:05:00	0.2412	15.076	218.0	0.606054570	0.749195755	0.012407809	0.128009079	0.039453641
2020-06-25T16:10:00	0.2397	15.061	217.0	0.601051447	0.741850407	0.012218449	0.126055486	0.038851525
2020-06-25T16:15:00	0.2397	15.046	218.0	0.601048462	0.741846031	0.012218336	0.126054325	0.038851167
2020-06-25T16:20:00	0.2396	15.031	219.0	0.600711883	0.741352635	0.012205651	0.125923455	0.038810832
2020-06-25T16:25:00	0.2401	15.014	219.0	0.602376558	0.743793831	0.012268456	0.126571403	0.039010536
2020-06-25T16:30:00	0.2398	14.998	217.0	0.601373072	0.742321971	0.012230577	0.126180607	0.038890088
2020-06-25T16:35:00	0.2395	14.984	218.0	0.600369301	0.740850536	0.012192747	0.125790322	0.038769799
2020-06-25T16:40:00	0.2391	14.970	220.0	0.599031492	0.738890743	0.012142421	0.125271124	0.038609777
2020-06-25T16:45:00	0.2389	14.958	218.0	0.598360905	0.737908944	0.012117236	0.125011287	0.038529693
2020-06-25T16:50:00	0.2379	14.949	218.0	0.595018016	0.733020266	0.011992085	0.123720131	0.038131746
2020-06-25T16:55:00	0.2373	14.939	220.0	0.593009566	0.730087575	0.011917214	0.122947698	0.037893675
2020-06-25T17:00:00	0.2380	14.925	219.0	0.595346169	0.733499748	0.012004341	0.123846572	0.038170716
2020-06-25T17:05:00	0.2385	14.911	219.0	0.597013371	0.735937173	0.012066707	0.124489988	0.038369023
2020-06-25T17:10:00	0.2385	14.896	220.0	0.597010383	0.735932802	0.012066595	0.124488833	0.038368667
2020-06-25T17:15:00	0.2379	14.882	218.0	0.595003066	0.732998425	0.011991527	0.123714372	0.038129971
2020-06-25T17:20:00	0.2387	14.873	218.0	0.597672264	0.736901104	0.012091400	0.124744743	0.038447541
2020-06-25T17:25:00	0.2386	14.863	220.0	0.597335363	0.736408188	0.012078771	0.124614450	0.038407384
2020-06-25T17:30:00	0.2382	14.856	218.0	0.595996405	0.734450108	0.012028645	0.124097311	0.038247996
2020-06-25T17:35:00	0.2379	14.848	217.0	0.594991107	0.732980952	0.011991080	0.123709766	0.038128551
2020-06-25T17:40:00	0.2375	14.839	217.0	0.593651260	0.731024195	0.011941109	0.123194218	0.037969655
2020-06-25T17:45:00	0.2376	14.827	217.0	0.593982531	0.731507855	0.011953454	0.123321582	0.038008909
2020-06-25T17:50:00	0.2384	14.814	218.0	0.596652499	0.735409387	0.012053193	0.124350573	0.038326054
2020-06-25T17:55:00	0.2393	14.802	217.0	0.599654178	0.739802746	0.012165832	0.125512648	0.038684217
2020-06-25T18:00:00	0.2401	14.791	217.0	0.602319868	0.743710659	0.012266315	0.126549309	0.039003726
2020-06-25T18:05:00	0.2404	14.779	216.0	0.603317120	0.745174163	0.012304015	0.126938258	0.039123604
2020-06-25T18:10:00	0.2401	14.767	217.0	0.602313900	0.743701904	0.012266089	0.126546983	0.039003009
2020-06-25T18:15:00	0.2405	14.757	217.0	0.603644504	0.745654793	0.012316405	0.127066078	0.039162999
2020-06-25T18:20:00	0.2390	14.749	215.0	0.598637972	0.738314549	0.012127638	0.125118610	0.038562771
2020-06-25T18:25:00	0.2392	14.741	217.0	0.599302534	0.739287679	0.012152609	0.125376225	0.038642170
2020-06-25T18:30:00	0.2390	14.735	216.0	0.598631998	0.738305803	0.012127414	0.125116296	0.038562058
2020-06-25T18:35:00	0.2400	14.726	217.0	0.601965505	0.743190819	0.012252933	0.126411248	0.038961174
2020-06-25T18:40:00	0.2402	14.717	216.0	0.602629443	0.744164883	0.012278012	0.126669984	0.039040919
2020-06-25T18:45:00	0.2398	14.708	217.0	0.601292489	0.742203813	0.012227538	0.126149252	0.038880425
2020-06-25T18:50:00	0.2405	14.697	217.0	0.603623625	0.745624139	0.012315615	0.127057925	0.039160486
2020-06-25T18:55:00	0.2411	14.687	217.0	0.605620096	0.748557050	0.012391306	0.127838815	0.039401164
2020-06-25T19:00:00	0.2413	14.678	217.0	0.606283350	0.749532141	0.012416504	0.128098782	0.039481289
2020-06-25T19:05:00	0.2421	14.667	217.0	0.608944058	0.753447524	0.012517855	0.129144402	0.039803559
2020-06-25T19:10:00	0.2426	14.657	219.0	0.610604873	0.755894518	0.012581334	0.129799300	0.040005405
2020-06-25T19:15:00	0.2428	14.647	219.0	0.611267195	0.756871010	0.012606695	0.130060946	0.040086047
2020-06-25T19:20:00	0.2426	14.638	219.0	0.610598919	0.755885742	0.012581106	0.129796950	0.040004680
2020-06-25T19:25:00	0.2433	14.629	219.0	0.612923949	0.759315251	0.012670249	0.130716626	0.040288134
2020-06-25T19:30:00	0.2436	14.621	219.0	0.613918225	0.760783234	0.012708470	0.131110940	0.040409665
2020-06-25T19:35:00	0.2441	14.613	218.0	0.615576717	0.763233738	0.012772355	0.131770035	0.040612805
2020-06-25T19:40:00	0.2446	14.604	219.0	0.617234436	0.765685412	0.012836376	0.132430530	0.040816375
2020-06-25T19:45:00	0.2448	14.594	219.0	0.617895525	0.766663771	0.012861954	0.132694408	0.040897705
2020-06-25T19:50:00	0.2448	14.585	218.0	0.617892554	0.766659374	0.012861839	0.132693221	0.040897339
2020-06-25T19:55:00	0.2453	14.575	219.0	0.619549195	0.769112685	0.012926049	0.133355670	0.041101513
2020-06-25T20:00:00	0.2450	14.564	219.0	0.618550551	0.767633521	0.012887323	0.132956133	0.040978371
2020-06-25T20:05:00	0.2463	14.553	219.0	0.622860169	0.774022820	0.013054877	0.134684758	0.041511150
2020-06-25T20:10:00	0.2459	14.542	220.0	0.621530807	0.772050281	0.013003073	0.134150307	0.041346427
2020-06-25T20:15:00	0.2451	14.530	218.0	0.618873564	0.768111867	0.012899842	0.133085296	0.041018181
2020-06-25T20:20:00	0.2448	14.517	218.0	0.617874730	0.766632991	0.012861149	0.132686103	0.040895146
2020-06-25T20:25:00	0.2445	14.503	218.0	0.616875616	0.765154541	0.012822505	0.132287418	0.040772267
2020-06-25T20:30:00	0.2445	14.490	218.0	0.616872644	0.765150145	0.012822390	0.132286234	0.040771902
2020-06-25T20:35:00	0.2446	14.477	219.0	0.617201752	0.765637053	0.012835113	0.132417491	0.040812357
2020-06-25T20:40:00	0.2452	14.462	218.0	0.619190609	0.768581460	0.012912137	0.133212135	0.041057274
2020-06-25T20:45:00	0.2448	14.446	217.0	0.617859877	0.766611006	0.012860574	0.132680171	0.040893317
2020-06-25T20:50:00	0.2437	14.430	217.0	0.614203001	0.761203839	0.012719428	0.131223990	0.040444508
2020-06-25T20:55:00	0.2436	14.416	217.0	0.613867667	0.760708569	0.012706525	0.131090874	0.040403481
2020-06-25T21:00:00	0.2430	14.400	218.0	0.611869881	0.757759897	0.012629795	0.130299269	0.040159500
2020-06-25T21:05:00	0.2439	14.386	219.0	0.614858707	0.762172558	0.012744677	0.131484484	0.040524795
2020-06-25T21:10:00	0.2437	14.372	217.0	0.614191106	0.761186270	0.012718970	0.131219267	0.040443052
2020-06-25T21:15:00	0.2432	14.359	218.0	0.612526017	0.758727964	0.012654969	0.130558984	0.040239547
2020-06-25T21:20:00	0.2433	14.346	218.0	0.612855528	0.759214262	0.012667621	0.130689514	0.040279777
2020-06-25T21:25:00	0.2435	14.334	220.0	0.613517431	0.760191388	0.012693056	0.130951917	0.040360653
2020-06-25T21:30:00	0.2433	14.321	216.0	0.613182033	0.759696215	0.012680164	0.130818919	0.040319661
2020-06-25T21:35:00	0.2427	14.307	218.0	0.611183861	0.756748126	0.012603502	0.130028010	0.040075896
2020-06-25T21:40:00	0.2426	14.293	216.0	0.610848242	0.756253285	0.012590650	0.129895410	0.040035027
2020-06-25T21:45:00	0.2424	14.277	216.0	0.610179887	0.755268136	0.012565074	0.129631556	0.039953705
2020-06-25T21:50:00	0.2432	14.263	217.0	0.612837678	0.759187917	0.012666936	0.130682441	0.040277598
2020-06-25T21:55:00	0.2424	14.247	216.0	0.610173933	0.755259362	0.012564847	0.129629207	0.039952980
2020-06-25T22:00:00	0.2422	14.231	218.0	0.609505451	0.754274404	0.012539294	0.129365582	0.039871729
2020-06-25T22:05:00	0.2420	14.214	215.0	0.608548131	0.752864519	0.012502747	0.128988531	0.039755518
2020-06-25T22:10:00	0.2421	14.197	219.0	0.608922156	0.753415269	0.012517019	0.129135777	0.039800901
2020-06-25T22:15:00	0.2426	14.181	217.0	0.610627104	0.755927288	0.012582185	0.129808078	0.040008110
2020-06-25T22:20:00	0.2416	14.163	217.0	0.607339945	0.751086269	0.012456701	0.128513484	0.039609104
2020-06-25T22:25:00	0.2420	14.147	216.0	0.608712811	0.753106994	0.012509030	0.129053352	0.039775496
2020-06-25T22:30:00	0.2420	14.130	215.0	0.608753980	0.753167615	0.012510600	0.129069559	0.039780492
2020-06-25T22:35:00	0.2418	14.113	216.0	0.608129385	0.752248055	0.012486778	0.128823782	0.039704741
2020-06-25T22:40:00	0.2406	14.095	215.0	0.604173404	0.746431457	0.012336434	0.127272717	0.039226687
2020-06-25T22:45:00	0.2417	14.079	215.0	0.607545864	0.751389261	0.012464542	0.128594386	0.039634039
2020-06-25T22:50:00	0.2408	14.060	216.0	0.604589107	0.747042061	0.012352188	0.127435251	0.039276782
2020-06-25T22:55:00	0.2408	14.042	216.0	0.604630324	0.747102610	0.012353751	0.127451372	0.039281751
2020-06-25T23:00:00	0.2410	14.023	214.0	0.605337952	0.748142365	0.012380594	0.127728309	0.039367105
2020-06-25T23:05:00	0.2410	14.005	217.0	0.605379160	0.748202926	0.012382158	0.127744446	0.039372079
2020-06-25T23:10:00	0.2415	13.987	214.0	0.607085812	0.750712383	0.012447026	0.128413677	0.039578342
2020-06-25T23:15:00	0.2407	13.969	214.0	0.604461944	0.746855263	0.012347368	0.127385521	0.039261455
2020-06-25T23:20:00	0.2405	13.951	216.0	0.603836593	0.745936840	0.012323677	0.127141107	0.039186124
2020-06-25T23:25:00	0.2409	13.935	214.0	0.604877614	0.747465918	0.012363128	0.127548116	0.039311568
2020-06-25T23:30:00	0.2403	13.919	216.0	0.602918978	0.744589775	0.012288957	0.126782900	0.039075721
2020-06-25T23:35:00	0.2402	13.902	214.0	0.602626800	0.744161004	0.012277912	0.126668953	0.039040602
2020-06-25T23:40:00	0.2395	13.885	216.0	0.600333288	0.740797759	0.012191391	0.125776331	0.038765487
2020-06-25T23:45:00	0.2392	13.867	214.0	0.599373486	0.739391596	0.012155276	0.125403745	0.038650652
2020-06-25T23:50:00	0.2395	13.849	213.0	0.600415819	0.740918709	0.012194499	0.125808396	0.038775369
2020-06-25T23:55:00	0.2393	13.831	214.0	0.599789753	0.740001357	0.012170932	0.125565266	0.038700435
2020-06-26T00:00:00	0.2393	13.812	215.0	0.599831026	0.740061822	0.012172485	0.125581287	0.038705372
2020-06-26T00:05:00	0.2388	13.794	215.0	0.597869594	0.737189860	0.012098800	0.124821092	0.038471073
2020-06-26T00:10:00	0.2385	13.775	214.0	0.596909123	0.735784696	0.012062802	0.124449706	0.038356608
2020-06-26T00:15:00	0.2377	13.756	215.0	0.594277695	0.731938876	0.011964459	0.123435121	0.038043903
2020-06-26T00:20:00	0.2369	13.738	215.0	0.591644304	0.728095973	0.011866457	0.122424047	0.037732280
2020-06-26T00:25:00	0.2368	13.719	213.0	0.591351192	0.727668593	0.011855574	0.122311773	0.037697676
2020-06-26T00:30:00	0.2372	13.701	213.0	0.592730277	0.729680030	0.011906821	0.122840482	0.037860630
2020-06-26T00:35:00	0.2370	13.684	213.0	0.592102846	0.728764707	0.011883492	0.122599795	0.037786447
2020-06-26T00:40:00	0.2366	13.666	214.0	0.590806274	0.726874250	0.011835356	0.122103186	0.037633388
2020-06-26T00:45:00	0.2370	13.648	212.0	0.591851139	0.728397597	0.011874139	0.122503306	0.037756709
2020-06-26T00:50:00	0.2365	13.632	213.0	0.590219886	0.726019732	0.011813619	0.121878929	0.037564270
2020-06-26T00:55:00	0.2360	13.616	212.0	0.588587878	0.723642986	0.011753229	0.121255900	0.037372246
2020-06-26T01:00:00	0.2355	13.599	214.0	0.586955114	0.721267358	0.011692970	0.120634219	0.037180638
2020-06-26T01:05:00	0.2356	13.582	212.0	0.587331430	0.721814691	0.011706845	0.120777358	0.037224755
2020-06-26T01:10:00	0.2359	13.565	213.0	0.588377326	0.723336513	0.011745450	0.121175639	0.037347509
2020-06-26T01:15:00	0.2356	13.548	213.0	0.587414267	0.721935188	0.011709900	0.120808878	0.037234469
2020-06-26T01:20:00	0.2361	13.531	214.0	0.589129614	0.724431688	0.011773258	0.121462529	0.037435931
2020-06-26T01:25:00	0.2355	13.514	213.0	0.586827314	0.721081506	0.011688260	0.120585628	0.037165662
2020-06-26T01:30:00	0.2353	13.497	213.0	0.586198832	0.720167740	0.011665113	0.120346817	0.037092058
2020-06-26T01:35:00	0.2364	13.481	214.0	0.589923131	0.725587393	0.011802626	0.121765519	0.037529316
2020-06-26T01:40:00	0.2357	13.465	213.0	0.587621350	0.722236445	0.011717539	0.120887693	0.037258761
2020-06-26T01:45:00	0.2356	13.449	212.0	0.587327903	0.721809560	0.011706715	0.120776015	0.037224341
2020-06-26T01:50:00	0.2354	13.432	212.0	0.586699510	0.720895662	0.011683551	0.120537045	0.037150688
2020-06-26T01:55:00	0.2350	13.415	213.0	0.585400946	0.719008147	0.011635759	0.120043985	0.036998722
2020-06-26T02:00:00	0.2351	13.398	212.0	0.585777429	0.719555235	0.011649605	0.120186827	0.037042747
2020-06-26T02:05:00	0.2343	13.380	213.0	0.582802380	0.715235236	0.011540424	0.119060424	0.036695579
2020-06-26T02:10:00	0.2338	13.363	212.0	0.581166928	0.712863567	0.011480628	0.118443526	0.036505445
2020-06-26T02:15:00	0.2335	13.346	212.0	0.580201891	0.711465152	0.011445419	0.118080279	0.036393489
2020-06-26T02:20:00	0.2334	13.327	212.0	0.579907825	0.711039179	0.011434701	0.117969704	0.036359408
2020-06-26T02:25:00	0.2339	13.309	212.0	0.581626837	0.713530285	0.011497427	0.118616839	0.036558862
2020-06-26T02:30:00	0.2343	13.292	212.0	0.583009735	0.715536092	0.011548016	0.119138756	0.036719722
2020-06-26T02:35:00	0.2345	13.274	211.0	0.583721710	0.716569388	0.011574106	0.119407918	0.036802680
2020-06-26T02:40:00	0.2345	13.259	212.0	0.583763171	0.716629574	0.011575626	0.119423602	0.036807514
2020-06-26T02:45:00	0.2349	13.243	211.0	0.585145230	0.718636617	0.011626360	0.119947012	0.036968834
2020-06-26T02:50:00	0.2351	13.225	211.0	0.585521739	0.719183665	0.011640201	0.120089806	0.037012844
2020-06-26T02:55:00	0.2357	13.208	211.0	0.587572880	0.722165929	0.011715751	0.120869243	0.037253075
2020-06-26T03:00:00	0.2353	13.191	211.0	0.586274638	0.720277939	0.011667903	0.120375609	0.037100932
2020-06-26T03:05:00	0.2345	13.174	211.0	0.583635256	0.716443894	0.011570936	0.119375218	0.036792601
2020-06-26T03:10:00	0.2346	13.158	210.0	0.584011927	0.716990703	0.011584749	0.119517724	0.036836523
2020-06-26T03:15:00	0.2343	13.141	211.0	0.583047672	0.715591141	0.011549406	0.119153091	0.036724140
2020-06-26T03:20:00	0.2331	13.124	210.0	0.579063458	0.709816463	0.011403955	0.117652498	0.036261643
2020-06-26T03:25:00	0.2325	13.108	211.0	0.577090424	0.706961646	0.011332274	0.116912984	0.036033717
2020-06-26T03:30:00	0.2322	13.092	211.0	0.575788302	0.705079353	0.011285094	0.116426239	0.035883698
2020-06-26T03:35:00	0.2318	13.079	210.0	0.574485697	0.703197766	0.011237998	0.115940350	0.035733942
2020-06-26T03:40:00	0.2326	13.068	211.0	0.577215040	0.707141861	0.011336795	0.116959621	0.036048091
2020-06-26T03:45:00	0.2334	13.057	210.0	0.579942261	0.711089058	0.011435956	0.117982650	0.036363399
2020-06-26T03:50:00	0.2336	13.047	210.0	0.580654859	0.712121442	0.011461939	0.118250708	0.036446017
2020-06-26T03:55:00	0.2330	13.038	211.0	0.578682719	0.709265314	0.011390104	0.117509608	0.036217602
2020-06-26T04:00:00	0.2323	13.030	211.0	0.576373563	0.705925209	0.011306288	0.116644886	0.035951087
2020-06-26T04:05:00	0.2318	13.020	211.0	0.574732104	0.703553588	0.011246899	0.116032184	0.035762246
2020-06-26T04:10:00	0.2337	13.011	211.0	0.580814841	0.712353275	0.011467776	0.118310932	0.036464578
2020-06-26T04:15:00	0.2340	13.001	211.0	0.581859675	0.713867890	0.011505937	0.118704632	0.036585920
2020-06-26T04:20:00	0.2349	12.992	211.0	0.584915418	0.718302771	0.011617916	0.119859897	0.036941984
2020-06-26T04:25:00	0.2350	12.983	210.0	0.585288954	0.718845427	0.011631642	0.120001510	0.036985631
2020-06-26T04:30:00	0.2357	12.976	211.0	0.587672094	0.722310272	0.011719412	0.120907010	0.037264715
2020-06-26T04:35:00	0.2352	12.971	210.0	0.586035908	0.719930913	0.011659116	0.120284948	0.037072989
2020-06-26T04:40:00	0.2355	12.967	211.0	0.587079192	0.721447809	0.011697544	0.120681405	0.037195181
2020-06-26T04:45:00	0.2354	12.964	210.0	0.586782703	0.721016634	0.011686617	0.120568668	0.037160435
2020-06-26T04:50:00	0.2353	12.962	210.0	0.586486189	0.720585495	0.011675693	0.120455977	0.037125702
2020-06-26T04:55:00	0.2353	12.960	211.0	0.586189650	0.720154392	0.011664775	0.120343330	0.037090983
2020-06-26T05:00:00	0.2363	12.959	210.0	0.589576316	0.725082216	0.011789786	0.121633047	0.037488486
2020-06-26T05:05:00	0.2363	12.957	210.0	0.589614714	0.725138142	0.011791207	0.121647710	0.037493006
2020-06-26T05:10:00	0.2370	12.955	210.0	0.591994931	0.728607308	0.011879482	0.122558422	0.037773696
2020-06-26T05:15:00	0.2367	12.953	210.0	0.591029866	0.727200157	0.011843650	0.122188752	0.037659760
2020-06-26T05:20:00	0.2367	12.954	211.0	0.591068248	0.727256107	0.011845074	0.122203443	0.037664288
2020-06-26T05:25:00	0.2370	12.956	210.0	0.592110043	0.728775204	0.011883759	0.122602554	0.037787298
2020-06-26T05:30:00	0.2372	12.957	210.0	0.592817190	0.729806849	0.011910055	0.122873842	0.037870912
2020-06-26T05:35:00	0.2373	12.960	210.0	0.592855552	0.729862827	0.011911482	0.122888568	0.037875450
2020-06-26T05:40:00	0.2376	12.965	210.0	0.593896820	0.731382707	0.011950259	0.123288622	0.037998751
2020-06-26T05:45:00	0.2376	12.975	210.0	0.593935170	0.731438703	0.011951689	0.123303369	0.038003296
2020-06-26T05:50:00	0.2379	12.979	211.0	0.594976119	0.732959056	0.011990521	0.123703993	0.038126772
2020-06-26T05:55:00	0.2374	12.985	212.0	0.593343320	0.730574682	0.011929639	0.123075885	0.037933183
2020-06-26T06:00:00	0.2382	12.990	211.0	0.596055089	0.734535895	0.012030839	0.124119953	0.038254975
2020-06-26T06:05:00	0.2376	12.995	211.0	0.594088569	0.731662691	0.011957407	0.123362365	0.038021479
2020-06-26T06:10:00	0.2375	13.003	211.0	0.593792669	0.731230643	0.011946378	0.123248578	0.037986409
2020-06-26T06:15:00	0.2377	13.011	211.0	0.594499478	0.732262788	0.011972732	0.123520468	0.038070208
2020-06-26T06:20:00	0.2377	13.018	211.0	0.594203613	0.731830689	0.011961697	0.123406619	0.038035119
2020-06-26T06:25:00	0.2379	13.026	210.0	0.594910340	0.732862956	0.011988065	0.123678657	0.038118963
2020-06-26T06:30:00	0.2388	13.036	211.0	0.597954793	0.737314543	0.012101996	0.124854063	0.038481235
2020-06-26T06:35:00	0.2398	13.048	211.0	0.601330193	0.742259097	0.012228960	0.126163922	0.038884946
2020-06-26T06:40:00	0.2391	13.059	213.0	0.599032853	0.738892736	0.012142473	0.125271652	0.038609940
2020-06-26T06:45:00	0.2387	13.074	212.0	0.597735836	0.736994127	0.012093784	0.124769337	0.038455121
2020-06-26T06:50:00	0.2394	13.088	213.0	0.600110585	0.740471420	0.012183006	0.125689830	0.038738826
2020-06-26T06:55:00	0.2395	13.105	212.0	0.600482516	0.741016457	0.012197011	0.125834311	0.038783357
2020-06-26T07:00:00	0.2386	13.124	212.0	0.597516865	0.736673730	0.012085574	0.124684636	0.038429016
2020-06-26T07:05:00	0.2395	13.140	212.0	0.600225434	0.740639709	0.012187330	0.125734435	0.038752574
2020-06-26T07:10:00	0.2387	13.169	212.0	0.597593488	0.736785839	0.012088446	0.124714271	0.038438150
2020-06-26T07:15:00	0.2390	13.173	212.0	0.598633359	0.738307796	0.012127465	0.125116823	0.038562220
2020-06-26T07:20:00	0.2385	13.199	212.0	0.597002250	0.735920907	0.012066290	0.124485690	0.038367699
2020-06-26T07:25:00	0.2379	13.247	212.0	0.595036258	0.733046918	0.011992766	0.123727158	0.038133912
2020-06-26T07:30:00	0.2386	13.244	212.0	0.597412821	0.736521508	0.012081674	0.124644400	0.038416615
2020-06-26T07:35:00	0.2379	13.266	212.0	0.595112934	0.733158947	0.011995629	0.123756697	0.038143016
2020-06-26T07:40:00	0.2380	13.289	212.0	0.595485391	0.733703200	0.012009542	0.123900236	0.038187256
2020-06-26T07:45:00	0.2375	13.323	212.0	0.593518553	0.730830468	0.011936165	0.123143215	0.037953935
2020-06-26T07:50:00	0.2379	13.362	212.0	0.594893801	0.732838793	0.011987448	0.123672287	0.038117000
2020-06-26T07:55:00	0.2376	13.380	212.0	0.593929529	0.731430466	0.011951478	0.123301200	0.038002627
2020-06-26T08:00:00	0.2385	13.376	211.0	0.596974827	0.735880796	0.012065263	0.124475093	0.038364433
2020-06-26T08:05:00	0.2385	13.385	212.0	0.597013144	0.735936841	0.012066698	0.124489900	0.038368996
2020-06-26T08:10:00	0.2393	13.411	212.0	0.599722098	0.739902244	0.012168387	0.125539008	0.038692341
2020-06-26T08:15:00	0.2389	13.442	213.0	0.598425334	0.738003257	0.012119654	0.125036240	0.038537383
2020-06-26T08:20:00	0.2389	13.460	212.0	0.598463635	0.738059326	0.012121092	0.125051075	0.038541956
2020-06-26T08:25:00	0.2388	13.472	213.0	0.598168102	0.737626733	0.012109999	0.124936632	0.038506683
2020-06-26T08:30:00	0.2403	13.490	213.0	0.602877175	0.744528425	0.012287376	0.126766594	0.039070695
2020-06-26T08:35:00	0.2411	13.505	213.0	0.605581646	0.748500533	0.012389846	0.127823752	0.039396522
2020-06-26T08:40:00	0.2407	13.531	213.0	0.604287026	0.746598336	0.012340739	0.127317131	0.039240376
2020-06-26T08:45:00	0.2407	13.558	213.0	0.604325264	0.746654499	0.012342188	0.127332080	0.039244984
2020-06-26T08:50:00	0.2410	13.579	213.0	0.605363160	0.748179412	0.012381551	0.127738180	0.039370148
2020-06-26T08:55:00	0.2409	13.601	213.0	0.605068202	0.747745957	0.012370358	0.127622703	0.039334557
2020-06-26T09:00:00	0.2407	13.644	213.0	0.604439976	0.746822994	0.012346535	0.127376931	0.039258807
2020-06-26T09:05:00	0.2407	13.669	214.0	0.604478213	0.746879160	0.012347985	0.127391882	0.039263415
2020-06-26T09:10:00	0.2410	13.705	214.0	0.605516064	0.748404139	0.012387356	0.127798063	0.039388604
2020-06-26T09:15:00	0.2419	13.729	214.0	0.608218523	0.752379268	0.012490176	0.128858843	0.039715547
2020-06-26T09:20:00	0.2407	13.752	213.0	0.604259659	0.746558140	0.012339702	0.127306433	0.039237079
2020-06-26T09:25:00	0.2405	13.785	214.0	0.603631290	0.745635392	0.012315905	0.127060918	0.039161409
2020-06-26T09:30:00	0.2400	13.808	214.0	0.602002484	0.743245061	0.012254329	0.126425651	0.038965614
2020-06-26T09:35:00	0.2407	13.818	214.0	0.604374373	0.746726631	0.012344049	0.127351280	0.039250901
2020-06-26T09:40:00	0.2396	13.831	214.0	0.600744832	0.741400931	0.012206893	0.125936263	0.038814779
2020-06-26T09:45:00	0.2390	13.873	216.0	0.598780921	0.738523840	0.012133007	0.125174001	0.038579843
2020-06-26T09:50:00	0.2384	13.890	215.0	0.596815918	0.735648377	0.012059312	0.124413696	0.038345509
2020-06-26T09:55:00	0.2385	13.899	214.0	0.597188195	0.736192898	0.012073256	0.124557556	0.038389848
2020-06-26T10:00:00	0.2390	13.956	215.0	0.598562015	0.738203347	0.012124786	0.125089183	0.038553701
2020-06-26T10:05:00	0.2397	13.981	215.0	0.600885995	0.741607857	0.012212212	0.125991145	0.038831694
2020-06-26T10:10:00	0.2392	14.016	215.0	0.599205687	0.739145842	0.012148968	0.125338666	0.038630594
2020-06-26T10:15:00	0.2392	14.057	216.0	0.599193742	0.739128347	0.012148519	0.125334034	0.038629166
2020-06-26T10:20:00	0.2392	14.099	216.0	0.599515535	0.739599659	0.012160618	0.125458852	0.038667637
2020-06-26T10:25:00	0.2385	14.137	216.0	0.597166749	0.736161526	0.012072452	0.124549266	0.038387293
2020-06-26T10:30:00	0.2383	14.162	216.0	0.596486842	0.735167144	0.012046993	0.124286602	0.038306338
2020-06-26T10:35:00	0.2378	14.187	216.0	0.594804440	0.732708249	0.011984112	0.123637874	0.038106393
2020-06-26T10:40:00	0.2376	14.217	216.0	0.594124078	0.731714544	0.011958731	0.123376023	0.038025689
2020-06-26T10:45:00	0.2373	14.246	217.0	0.593109271	0.730233083	0.011920925	0.122985985	0.037905475
2020-06-26T10:50:00	0.2369	14.249	216.0	0.591759731	0.728264295	0.011870744	0.122468275	0.037745912
2020-06-26T10:55:00	0.2380	14.255	217.0	0.595424882	0.733614773	0.012007282	0.123876911	0.038180067
2020-06-26T11:00:00	0.2379	14.281	218.0	0.595078797	0.733109070	0.011994355	0.123743546	0.038138963
2020-06-26T11:05:00	0.2374	14.302	217.0	0.593395724	0.730651173	0.011931590	0.123096019	0.037939388
2020-06-26T11:10:00	0.2369	14.318	218.0	0.591711849	0.728194468	0.011868965	0.122449927	0.037740257
2020-06-26T11:15:00	0.2380	14.323	218.0	0.595377049	0.733544873	0.012005495	0.123858474	0.038174384
2020-06-26T11:20:00	0.2391	14.330	218.0	0.599038448	0.738900929	0.012142683	0.125273821	0.038610608
2020-06-26T11:25:00	0.2396	14.344	218.0	0.600694955	0.741327822	0.012205014	0.125916874	0.038808804
2020-06-26T11:30:00	0.2409	14.346	218.0	0.605017329	0.747671205	0.012368428	0.127602792	0.039328420
2020-06-26T11:35:00	0.2407	14.342	218.0	0.604338929	0.746674570	0.012342706	0.127337422	0.039246630
2020-06-26T11:40:00	0.2407	14.340	218.0	0.604327001	0.746657050	0.012342254	0.127332759	0.039245193
2020-06-26T11:45:00	0.2407	14.337	217.0	0.604315073	0.746639530	0.012341802	0.127328095	0.039243756
2020-06-26T11:50:00	0.2396	14.333	217.0	0.600635253	0.741240315	0.012202764	0.125893669	0.038801651
2020-06-26T11:55:00	0.2394	14.330	218.0	0.599956012	0.740244938	0.012177188	0.125629809	0.038720327
2020-06-26T12:00:00	0.2387	14.328	218.0	0.597607518	0.736806369	0.012088972	0.124719698	0.038439822
2020-06-26T12:05:00	0.2388	14.334	217.0	0.597929456	0.737277464	0.012101046	0.124844258	0.038478213
2020-06-26T12:10:00	0.2397	14.340	217.0	0.600921097	0.741659313	0.012213535	0.126004794	0.038835901
2020-06-26T12:15:00	0.2403	14.342	217.0	0.602910141	0.744576806	0.012288623	0.126779453	0.039074659
2020-06-26T12:20:00	0.2411	14.349	218.0	0.605564439	0.748475242	0.012389192	0.127817012	0.039394444
2020-06-26T12:25:00	0.2416	14.358	218.0	0.607217897	0.750906703	0.012452054	0.128465546	0.039594329
2020-06-26T12:30:00	0.2424	14.364	218.0	0.609868973	0.754809979	0.012553186	0.129508907	0.039915903
2020-06-26T12:35:00	0.2425	14.372	218.0	0.610522502	0.755773101	0.012578181	0.129766779	0.039995382
2020-06-26T12:40:00	0.2421	14.382	218.0	0.609179588	0.753794405	0.012526847	0.129237173	0.039832152
2020-06-26T12:45:00	0.2421	14.392	217.0	0.609167676	0.753776861	0.012526392	0.129232481	0.039830706
2020-06-26T12:50:00	0.2432	14.400	220.0	0.612814858	0.759154236	0.012666059	0.130673400	0.040274811
2020-06-26T12:55:00	0.2427	14.410	218.0	0.611140196	0.756683740	0.012601830	0.130010755	0.040070577
2020-06-26T13:00:00	0.2419	14.422	218.0	0.608466241	0.752743951	0.012499623	0.128956304	0.039745585
2020-06-26T13:05:00	0.2419	14.429	218.0	0.608454327	0.752726410	0.012499168	0.128951616	0.039744140
2020-06-26T13:10:00	0.2417	14.439	218.0	0.607776584	0.751728787	0.012473332	0.128685062	0.039661986
2020-06-26T13:15:00	0.2418	14.454	218.0	0.608097598	0.752201266	0.012485566	0.128811280	0.039700888
2020-06-26T13:20:00	0.2411	14.465	217.0	0.605754500	0.748754616	0.012396410	0.127891473	0.039417394
2020-06-26T13:25:00	0.2406	14.476	218.0	0.604076502	0.746289143	0.012332763	0.127234845	0.039215015
2020-06-26T13:30:00	0.2395	14.489	217.0	0.600396434	0.740890299	0.012193769	0.125800864	0.038773048
2020-06-26T13:35:00	0.2387	14.507	219.0	0.597714355	0.736962695	0.012092978	0.124761027	0.038452560
2020-06-26T13:40:00	0.2377	14.534	219.0	0.594361883	0.732061826	0.011967599	0.123467515	0.038053887
2020-06-26T13:45:00	0.2382	14.558	218.0	0.596020583	0.734485451	0.012029549	0.124106639	0.038250871
2020-06-26T13:50:00	0.2377	14.584	219.0	0.594337959	0.732026887	0.011966707	0.123458309	0.038051050
2020-06-26T13:55:00	0.2369	14.618	219.0	0.591651275	0.728106138	0.011866716	0.122426718	0.037733103
2020-06-26T14:00:00	0.2361	14.645	219.0	0.588962542	0.724188424	0.011767079	0.121398785	0.037416285
2020-06-26T14:05:00	0.2360	14.668	219.0	0.588615822	0.723683663	0.011754262	0.121266554	0.037375530
2020-06-26T14:10:00	0.2350	14.689	218.0	0.585254684	0.718795636	0.011630383	0.119988514	0.036981625
2020-06-26T14:15:00	0.2337	14.698	218.0	0.580883999	0.712453501	0.011470300	0.118336970	0.036472604
2020-06-26T14:20:00	0.2331	14.708	220.0	0.578858456	0.709519692	0.011396496	0.117575550	0.036237926
2020-06-26T14:25:00	0.2327	14.713	220.0	0.577503437	0.707558975	0.011347260	0.117067588	0.036081368
2020-06-26T14:30:00	0.2317	14.715	220.0	0.574131645	0.702686587	0.011225214	0.115808463	0.035693293
2020-06-26T14:35:00	0.2316	14.717	220.0	0.573783458	0.702183979	0.011212649	0.115678836	0.035653341
2020-06-26T14:40:00	0.2312	14.717	219.0	0.572426476	0.700226130	0.011163750	0.115174349	0.035497853
2020-06-26T14:45:00	0.2306	14.712	219.0	0.570396039	0.697299466	0.011090786	0.114421590	0.035265845
2020-06-26T14:50:00	0.2303	14.705	219.0	0.569374354	0.695828104	0.011054163	0.114043765	0.035149396
2020-06-26T14:55:00	0.2297	14.696	219.0	0.567678919	0.693388355	0.010993527	0.113418187	0.034956587
2020-06-26T15:00:00	0.2294	14.687	219.0	0.566656440	0.691918145	0.010957040	0.113041762	0.034840569
2020-06-26T15:05:00	0.2299	14.677	219.0	0.568328270	0.694322497	0.011016730	0.113657576	0.035030369
2020-06-26T15:10:00	0.2299	14.667	219.0	0.568316219	0.694305158	0.011016299	0.113653131	0.035028999
2020-06-26T15:15:00	0.2295	14.657	219.0	0.566957115	0.692350392	0.010967763	0.113152389	0.034874665
2020-06-26T15:20:00	0.2291	14.647	220.0	0.565597481	0.690396392	0.010919317	0.112652578	0.034720619
2020-06-26T15:25:00	0.2295	14.637	219.0	0.566933004	0.692315728	0.010966903	0.113143516	0.034871930
2020-06-26T15:30:00	0.2286	14.626	218.0	0.563888145	0.687941981	0.010858565	0.112025812	0.034527443
2020-06-26T15:35:00	0.2284	14.615	219.0	0.563201763	0.686957092	0.010834219	0.111774635	0.034450028
2020-06-26T15:40:00	0.2294	14.606	219.0	0.566559986	0.691779500	0.010953601	0.113006285	0.034829635
2020-06-26T15:45:00	0.2288	14.597	218.0	0.564526138	0.688857783	0.010881220	0.112259538	0.034599480
2020-06-26T15:50:00	0.2295	14.588	218.0	0.566872725	0.692229067	0.010964753	0.113121334	0.034865094
2020-06-26T15:55:00	0.2302	14.578	219.0	0.569217738	0.695602632	0.011048555	0.113985903	0.035131562
2020-06-26T16:00:00	0.2301	14.567	219.0	0.568869062	0.695100735	0.011036074	0.113857140	0.035091876
2020-06-26T16:05:00	0.2299	14.555	219.0	0.568145025	0.694058850	0.011010180	0.113589995	0.035009540
2020-06-26T16:10:00	0.2292	14.545	219.0	0.565736514	0.690596133	0.010924266	0.112703636	0.034736355
2020-06-26T16:15:00	0.2293	14.535	219.0	0.566022729	0.691007373	0.010934457	0.112808781	0.034768762
2020-06-26T16:20:00	0.2286	14.526	219.0	0.563949888	0.688030594	0.010860756	0.112048420	0.034534411
2020-06-26T16:25:00	0.2289	14.519	218.0	0.564910366	0.689409483	0.010894875	0.112400418	0.034642901
2020-06-26T16:30:00	0.2288	14.511	219.0	0.564522587	0.688852686	0.010881094	0.112258237	0.034599079
2020-06-26T16:35:00	0.2289	14.505	220.0	0.564808902	0.689263782	0.010891268	0.112363207	0.034631432
2020-06-26T16:40:00	0.2283	14.499	219.0	0.562735340	0.686288045	0.010817690	0.111604114	0.034397472
2020-06-26T16:45:00	0.2284	14.494	219.0	0.563021801	0.686698930	0.010827840	0.111708827	0.034429745
2020-06-26T16:50:00	0.2284	14.487	219.0	0.562971042	0.686626118	0.010826041	0.111690269	0.034424026
2020-06-26T16:55:00	0.2278	14.482	219.0	0.561233785	0.684135398	0.010764567	0.111056056	0.034228555
2020-06-26T17:00:00	0.2263	14.477	219.0	0.556118532	0.676816053	0.010584594	0.109199305	0.033656286
2020-06-26T17:05:00	0.2260	14.472	219.0	0.555053880	0.675295363	0.010547329	0.108814852	0.033537794
2020-06-26T17:10:00	0.2260	14.466	219.0	0.555003004	0.675222719	0.010545550	0.108796498	0.033532137
2020-06-26T17:15:00	0.2264	14.461	218.0	0.556303826	0.677080811	0.010591086	0.109266286	0.033676931
2020-06-26T17:20:00	0.2263	14.455	219.0	0.555915088	0.676525394	0.010577468	0.109125787	0.033633627
2020-06-26T17:25:00	0.2264	14.447	219.0	0.556539963	0.677418259	0.010599363	0.109351677	0.033703249
2020-06-26T17:30:00	0.2262	14.441	219.0	0.555813362	0.676380070	0.010573906	0.109089036	0.033622300
2020-06-26T17:35:00	0.2259	14.435	219.0	0.554748616	0.674859514	0.010536657	0.108704746	0.033503858
2020-06-26T17:40:00	0.2256	14.428	218.0	0.553683544	0.673339424	0.010499463	0.108321026	0.033385592
2020-06-26T17:45:00	0.2266	14.418	219.0	0.557012189	0.678093223	0.010615925	0.109522542	0.033755911
2020-06-26T17:50:00	0.2268	14.410	218.0	0.557636867	0.678986370	0.010637854	0.109748777	0.033825639
2020-06-26T17:55:00	0.2267	14.402	219.0	0.557248278	0.678430739	0.010624210	0.109608017	0.033782255
2020-06-26T18:00:00	0.2273	14.392	219.0	0.559561037	0.681739517	0.010705544	0.110447127	0.034040877
2020-06-26T18:05:00	0.2274	14.382	218.0	0.559847759	0.682150026	0.010715650	0.110551382	0.034073010
2020-06-26T18:10:00	0.2284	14.372	218.0	0.563170522	0.686912274	0.010833111	0.111763210	0.034446507
2020-06-26T18:15:00	0.2275	14.365	219.0	0.560083656	0.682487818	0.010723967	0.110637193	0.034099457
2020-06-26T18:20:00	0.2273	14.357	218.0	0.559357795	0.681448568	0.010698384	0.110373257	0.034018110
2020-06-26T18:25:00	0.2278	14.346	218.0	0.560994411	0.683792402	0.010756111	0.110968813	0.034201666
2020-06-26T18:30:00	0.2287	14.336	219.0	0.563978983	0.688072353	0.010861789	0.112059075	0.034537695
2020-06-26T18:35:00	0.2286	14.326	218.0	0.563928238	0.687999522	0.010859988	0.112040493	0.034531968
2020-06-26T18:40:00	0.2288	14.315	219.0	0.564551678	0.688894451	0.010882127	0.112268900	0.034602365
2020-06-26T18:45:00	0.2293	14.307	219.0	0.566185861	0.691241796	0.010940268	0.112868733	0.034787240
2020-06-26T18:50:00	0.2299	14.299	219.0	0.568156009	0.694074652	0.011010572	0.113594045	0.035010788
2020-06-26T18:55:00	0.2313	14.291	218.0	0.572816198	0.700788263	0.011177782	0.115319121	0.035542473
2020-06-26T19:00:00	0.2316	14.283	218.0	0.573774244	0.702170680	0.011212317	0.115675407	0.035652284
2020-06-26T19:05:00	0.2323	14.275	217.0	0.576412029	0.705980812	0.011307681	0.116659264	0.035955518
2020-06-26T19:10:00	0.2330	14.269	217.0	0.578712149	0.709307912	0.011391175	0.117520649	0.036221005
2020-06-26T19:15:00	0.2333	14.261	218.0	0.579668585	0.710692680	0.011425985	0.117879784	0.036331694
2020-06-26T19:20:00	0.2337	14.253	217.0	0.580960262	0.712564027	0.011473083	0.118365687	0.036481454
2020-06-26T19:25:00	0.2350	14.244	218.0	0.585268422	0.718815596	0.011630888	0.119993724	0.036983231
2020-06-26T19:30:00	0.2350	14.236	217.0	0.585217984	0.718742317	0.011629034	0.119974598	0.036977336
2020-06-26T19:35:00	0.2361	14.229	217.0	0.588851534	0.724026807	0.011762975	0.121356441	0.037403234
2020-06-26T19:40:00	0.2353	14.220	217.0	0.586457204	0.720543353	0.011674626	0.120444964	0.037122308
2020-06-26T19:45:00	0.2355	14.212	217.0	0.587076650	0.721444113	0.011697450	0.120680438	0.037194883
2020-06-26T19:50:00	0.2354	14.204	217.0	0.586691316	0.720883747	0.011683249	0.120533931	0.037149728
2020-06-26T19:55:00	0.2359	14.195	217.0	0.588315216	0.723246115	0.011743155	0.121151969	0.037340213
2020-06-26T20:00:00	0.2354	14.186	217.0	0.586590480	0.720737128	0.011679535	0.120495607	0.037137916
2020-06-26T20:05:00	0.2359	14.178	217.0	0.588214426	0.723099428	0.011739433	0.121113562	0.037328376
2020-06-26T20:10:00	0.2358	14.169	216.0	0.587829217	0.722538877	0.011725210	0.120966833	0.037283153
2020-06-26T20:15:00	0.2350	14.158	216.0	0.585434190	0.719056451	0.011636982	0.120056595	0.037002608
2020-06-26T20:20:00	0.2335	14.149	219.0	0.580354217	0.711685833	0.011450973	0.118137578	0.036411149
2020-06-26T20:25:00	0.2333	14.138	216.0	0.579632550	0.710640492	0.011424673	0.117866243	0.036327521
2020-06-26T20:30:00	0.2327	14.127	216.0	0.577567755	0.707652009	0.011349594	0.117091674	0.036088791
2020-06-26T20:35:00	0.2321	14.116	216.0	0.575501743	0.704665304	0.011274725	0.116319260	0.035850726
2020-06-26T20:40:00	0.2316	14.104	216.0	0.573770703	0.702165569	0.011212189	0.115674089	0.035651878
2020-06-26T20:45:00	0.2307	14.093	216.0	0.571029643	0.698212375	0.011113528	0.114656221	0.035338161
2020-06-26T20:50:00	0.2302	14.081	216.0	0.569296390	0.695715861	0.011051371	0.114014959	0.035140518
2020-06-26T20:55:00	0.2290	14.069	216.0	0.565204092	0.689831316	0.010905320	0.112508176	0.034676112
2020-06-26T21:00:00	0.2293	14.056	216.0	0.566164225	0.691210703	0.010939498	0.112860780	0.034784789
2020-06-26T21:05:00	0.2282	14.044	216.0	0.562405537	0.685815076	0.010806011	0.111483621	0.034360335
2020-06-26T21:10:00	0.2283	14.031	216.0	0.562692025	0.686225922	0.010816156	0.111588285	0.034392593
2020-06-26T21:15:00	0.2281	14.018	216.0	0.561966706	0.685185890	0.010790480	0.111323396	0.034310952
2020-06-26T21:20:00	0.2278	14.003	216.0	0.561241236	0.684146076	0.010764831	0.111058772	0.034229392
2020-06-26T21:25:00	0.2272	13.990	215.0	0.559165552	0.681173398	0.010691614	0.110303408	0.033996582
2020-06-26T21:30:00	0.2270	13.976	215.0	0.558439499	0.680134423	0.010666063	0.110039807	0.033915337
2020-06-26T21:35:00	0.2268	13.962	216.0	0.557713294	0.679095666	0.010640538	0.109776472	0.033834175
2020-06-26T21:40:00	0.2268	13.947	216.0	0.557662458	0.679022966	0.010638753	0.109758050	0.033828497
2020-06-26T21:45:00	0.2275	13.931	216.0	0.559974942	0.682332138	0.010720134	0.110597642	0.034087267
2020-06-26T21:50:00	0.2281	13.917	216.0	0.562285893	0.685643517	0.010801775	0.111439925	0.034346867
2020-06-26T21:55:00	0.2278	13.902	215.0	0.561223123	0.684120120	0.010764191	0.111052169	0.034227357
2020-06-26T22:00:00	0.2288	13.887	216.0	0.564544577	0.688884257	0.010881875	0.112266297	0.034601563
2020-06-26T22:05:00	0.2287	13.872	215.0	0.564255225	0.688468862	0.010871597	0.112160260	0.034568881
2020-06-26T22:10:00	0.2284	13.857	217.0	0.563291550	0.687085905	0.010837402	0.111807476	0.034460150
2020-06-26T22:15:00	0.2288	13.842	215.0	0.564350673	0.688605879	0.010874987	0.112195233	0.034579660
2020-06-26T22:20:00	0.2291	13.829	216.0	0.565409475	0.690126318	0.010912626	0.112583555	0.034699345
2020-06-26T22:25:00	0.2297	13.815	215.0	0.567478437	0.693100016	0.010986368	0.113344329	0.034933823
2020-06-26T22:30:00	0.2289	13.801	215.0	0.564830890	0.689295356	0.010892050	0.112371270	0.034633917
2020-06-26T22:35:00	0.2286	13.788	215.0	0.563867373	0.687912169	0.010857828	0.112018207	0.034525099
2020-06-26T22:40:00	0.2282	13.775	215.0	0.562566355	0.686045693	0.010811705	0.111542367	0.034378441
2020-06-26T22:45:00	0.2271	13.761	215.0	0.558902405	0.680796788	0.010682350	0.110207833	0.033967124
2020-06-26T22:50:00	0.2269	13.747	215.0	0.557937249	0.679415963	0.010648407	0.109857648	0.033859194
2020-06-26T22:55:00	0.2263	13.733	214.0	0.555958296	0.676587122	0.010578981	0.109141399	0.033638439
2020-06-26T23:00:00	0.2261	13.719	215.0	0.555330293	0.675690088	0.010556998	0.108914601	0.033568538
2020-06-26T23:05:00	0.2265	13.705	214.0	0.556729672	0.677689393	0.010606015	0.109420303	0.033724400
2020-06-26T23:10:00	0.2259	13.690	215.0	0.554750033	0.674861536	0.010536706	0.108705257	0.033504016
2020-06-26T23:15:00	0.2254	13.675	214.0	0.553107451	0.672517603	0.010479373	0.108113761	0.033321711
2020-06-26T23:20:00	0.2254	13.659	214.0	0.553155329	0.672585892	0.010481042	0.108130978	0.033327018
2020-06-26T23:25:00	0.2253	13.644	214.0	0.552526820	0.671689582	0.010459144	0.107905066	0.033257389
2020-06-26T23:30:00	0.2249	13.630	214.0	0.551221557	0.669829199	0.010413743	0.107436664	0.033113023
2020-06-26T23:35:00	0.2247	13.615	214.0	0.550592698	0.668933389	0.010391904	0.107211363	0.033043583
2020-06-26T23:40:00	0.2247	13.601	214.0	0.550640610	0.669001628	0.010393568	0.107228520	0.033048871
2020-06-26T23:45:00	0.2251	13.588	213.0	0.552041877	0.670998233	0.010442265	0.107730921	0.033203716
2020-06-26T23:50:00	0.2261	13.574	214.0	0.555470808	0.675890769	0.010561915	0.108965326	0.033584172
2020-06-26T23:55:00	0.2251	13.561	214.0	0.552137660	0.671134769	0.010445598	0.107765305	0.033214314
2020-06-27T00:00:00	0.2253	13.549	214.0	0.552523793	0.671685267	0.010459039	0.107903978	0.033257054
2020-06-27T00:05:00	0.2250	13.537	213.0	0.551556866	0.670306980	0.010425396	0.107556894	0.033150079
2020-06-27T00:10:00	0.2250	13.525	214.0	0.551604765	0.670375238	0.010427062	0.107574074	0.033155374
2020-06-27T00:15:00	0.2246	13.513	213.0	0.550299155	0.668515349	0.010381719	0.107106278	0.033011195
2020-06-27T00:20:00	0.2257	13.501	213.0	0.554067897	0.673887873	0.010512878	0.108459420	0.033428247
2020-06-27T00:25:00	0.2264	13.490	213.0	0.556481456	0.677334647	0.010597312	0.109330517	0.033696727
2020-06-27T00:30:00	0.2257	13.477	213.0	0.554163625	0.674024489	0.010516220	0.108493903	0.033438874
2020-06-27T00:35:00	0.2264	13.465	213.0	0.556239269	0.676988565	0.010588824	0.109242947	0.033669737
2020-06-27T00:40:00	0.2264	13.452	213.0	0.556287103	0.677056916	0.010590500	0.109260240	0.033675067
2020-06-27T00:45:00	0.2264	13.439	213.0	0.556334936	0.677125267	0.010592177	0.109277534	0.033680397
2020-06-27T00:50:00	0.2260	13.427	213.0	0.555031102	0.675262840	0.010546533	0.108806634	0.033535261
2020-06-27T00:55:00	0.2258	13.415	213.0	0.554402932	0.674366046	0.010524578	0.108580129	0.033465450
2020-06-27T01:00:00	0.2267	13.405	212.0	0.557491811	0.678778945	0.010632760	0.109696222	0.033809441
2020-06-27T01:05:00	0.2258	13.394	213.0	0.554498651	0.674502675	0.010527922	0.108614628	0.033476083
2020-06-27T01:10:00	0.2254	13.384	213.0	0.552855951	0.672158912	0.010470609	0.108023339	0.033293842
2020-06-27T01:15:00	0.2245	13.375	213.0	0.549858795	0.667888355	0.010366448	0.106948731	0.032962637
2020-06-27T01:20:00	0.2241	13.368	212.0	0.548552530	0.666029402	0.010321216	0.106482081	0.032818811
2020-06-27T01:25:00	0.2230	13.360	212.0	0.544873777	0.660801668	0.010194370	0.105173432	0.032415473
2020-06-27T01:30:00	0.2225	13.354	212.0	0.543226515	0.658464400	0.010137828	0.104590102	0.032235685
2020-06-27T01:35:00	0.2229	13.347	212.0	0.544630779	0.660456743	0.010186019	0.105087278	0.032388920
2020-06-27T01:40:00	0.2226	13.340	213.0	0.543661650	0.659081588	0.010152748	0.104744033	0.032283128
2020-06-27T01:45:00	0.2233	13.332	212.0	0.545743578	0.662036708	0.010224289	0.105482109	0.032510610
2020-06-27T01:50:00	0.2239	13.324	213.0	0.547824257	0.664993601	0.010296041	0.106222361	0.032738763
2020-06-27T01:55:00	0.2242	13.314	212.0	0.548888097	0.666506815	0.010332826	0.106601860	0.032855729
2020-06-27T02:00:00	0.2239	13.303	213.0	0.547920157	0.665129972	0.010299355	0.106256543	0.032749298
2020-06-27T02:05:00	0.2236	13.292	212.0	0.546951946	0.663753512	0.010265929	0.105911697	0.032643014
2020-06-27T02:10:00	0.2232	13.281	214.0	0.545644586	0.661896117	0.010220882	0.105446956	0.032499776
2020-06-27T02:15:00	0.2233	13.270	212.0	0.546031442	0.662445585	0.010234201	0.105584368	0.032542128
2020-06-27T02:20:00	0.2224	13.260	212.0	0.542689215	0.657702515	0.010119420	0.104400187	0.032177151
2020-06-27T02:25:00	0.2235	13.249	211.0	0.546466224	0.663063273	0.010249181	0.105738911	0.032589759
2020-06-27T02:30:00	0.2243	13.239	211.0	0.549223631	0.666984275	0.010344441	0.106721696	0.032892663
2020-06-27T02:35:00	0.2240	13.230	211.0	0.548255785	0.665607298	0.010310954	0.106376216	0.032786183
2020-06-27T02:40:00	0.2240	13.221	212.0	0.548303729	0.665675491	0.010312612	0.106393316	0.032791453
2020-06-27T02:45:00	0.2246	13.211	212.0	0.550382874	0.668634567	0.010384623	0.107136243	0.033020430
2020-06-27T02:50:00	0.2240	13.201	211.0	0.548399615	0.665811881	0.010315927	0.106427521	0.032801996
2020-06-27T02:55:00	0.2238	13.192	212.0	0.547431539	0.664435231	0.010282479	0.106082442	0.032695639
2020-06-27T03:00:00	0.2246	13.183	214.0	0.550188179	0.668357324	0.010377869	0.107066563	0.032998954
2020-06-27T03:05:00	0.2252	13.173	212.0	0.552266197	0.671318007	0.010450071	0.107811457	0.033228538
2020-06-27T03:10:00	0.2255	13.164	212.0	0.553328677	0.672833159	0.010487086	0.108193329	0.033346235
2020-06-27T03:15:00	0.2255	13.155	212.0	0.553376552	0.672901452	0.010488755	0.108210552	0.033351543
2020-06-27T03:20:00	0.2259	13.146	211.0	0.554776716	0.674899632	0.010537639	0.108714879	0.033506982
2020-06-27T03:25:00	0.2266	13.138	213.0	0.557189784	0.678347110	0.010622157	0.109586836	0.033775727
2020-06-27T03:30:00	0.2265	13.130	212.0	0.556562003	0.677449757	0.010600136	0.109359649	0.033705706
2020-06-27T03:35:00	0.2269	13.122	211.0	0.557960887	0.679449772	0.010649237	0.109866218	0.033861835
2020-06-27T03:40:00	0.2262	13.114	212.0	0.555644041	0.676138202	0.010567978	0.109027878	0.033603451
2020-06-27T03:45:00	0.2260	13.106	213.0	0.555015981	0.675241249	0.010546004	0.108801179	0.033533580
2020-06-27T03:50:00	0.2259	13.099	212.0	0.554725837	0.674826993	0.010535861	0.108696532	0.033501327
2020-06-27T03:55:00	0.2254	13.092	212.0	0.553083244	0.672483077	0.010478529	0.108105056	0.033319028
2020-06-27T04:00:00	0.2251	13.085	211.0	0.552116473	0.671104567	0.010444860	0.107757699	0.033211969
2020-06-27T04:05:00	0.2245	13.078	211.0	0.550035337	0.668139700	0.010372569	0.107011878	0.032982100
2020-06-27T04:10:00	0.2250	13.072	212.0	0.551676343	0.670477244	0.010429551	0.107599750	0.033163288
2020-06-27T04:15:00	0.2244	13.065	211.0	0.549594944	0.667512754	0.010357303	0.106854389	0.032933560
2020-06-27T04:20:00	0.2250	13.061	212.0	0.551574493	0.670332098	0.010426009	0.107563216	0.033152028
2020-06-27T04:25:00	0.2257	13.056	211.0	0.553891024	0.673635471	0.010506703	0.108395722	0.033408614
2020-06-27T04:30:00	0.2266	13.051	213.0	0.557219471	0.678389553	0.010623199	0.109597585	0.033779040
2020-06-27T04:35:00	0.2264	13.047	212.0	0.556493012	0.677351161	0.010597717	0.109334696	0.033698015
2020-06-27T04:40:00	0.2257	13.043	212.0	0.554076436	0.673900059	0.010513176	0.108462496	0.033429195
2020-06-27T04:45:00	0.2258	13.039	212.0	0.554363610	0.674309919	0.010523204	0.108565958	0.033461083
2020-06-27T04:50:00	0.2257	13.036	211.0	0.553974656	0.673754812	0.010509623	0.108425839	0.033417896
2020-06-27T04:55:00	0.2251	13.033	212.0	0.551894633	0.670788356	0.010437142	0.107678073	0.033187428
2020-06-27T05:00:00	0.2248	13.030	212.0	0.550828687	0.669269517	0.010400097	0.107295883	0.033069633
2020-06-27T05:05:00	0.2245	13.028	212.0	0.550100891	0.668233036	0.010374842	0.107035330	0.032989328
2020-06-27T05:10:00	0.2243	13.027	212.0	0.549372943	0.667196773	0.010349612	0.106775044	0.032909106
2020-06-27T05:15:00	0.2241	13.025	212.0	0.548644842	0.666160727	0.010324409	0.106515025	0.032828965
2020-06-27T05:20:00	0.2241	13.024	212.0	0.548593873	0.666088217	0.010322646	0.106496834	0.032823359
2020-06-27T05:25:00	0.2245	13.023	212.0	0.549897095	0.667942880	0.010367775	0.106962428	0.032966859
2020-06-27T05:30:00	0.2243	13.024	211.0	0.549169104	0.666906678	0.010342553	0.106702217	0.032886659
2020-06-27T05:35:00	0.2242	13.024	212.0	0.548779568	0.666352401	0.010329070	0.106563114	0.032843787
2020-06-27T05:40:00	0.2242	13.026	212.0	0.549067180	0.666761637	0.010339025	0.106665811	0.032875439
2020-06-27T05:45:00	0.2242	13.029	212.0	0.549016217	0.666689118	0.010337260	0.106647610	0.032869829
2020-06-27T05:50:00	0.2235	13.032	212.0	0.546594434	0.663245448	0.010253600	0.105784505	0.032603812
2020-06-27T05:55:00	0.2239	13.036	212.0	0.547898407	0.665099043	0.010298603	0.106248790	0.032746909
2020-06-27T06:00:00	0.2237	13.041	212.0	0.547169997	0.664063437	0.010273452	0.105989310	0.032666935
2020-06-27T06:05:00	0.2234	13.047	211.0	0.546102598	0.662546665	0.010236652	0.105609652	0.032549921
2020-06-27T06:10:00	0.2243	13.055	212.0	0.549438510	0.667290092	0.010351884	0.106798475	0.032916327
2020-06-27T06:15:00	0.2245	13.063	212.0	0.550064549	0.668181292	0.010373582	0.107022328	0.032985321
2020-06-27T06:20:00	0.2246	13.071	212.0	0.550352055	0.668590679	0.010383554	0.107125211	0.033017030
2020-06-27T06:25:00	0.2250	13.081	212.0	0.551654617	0.670446282	0.010428795	0.107591956	0.033160886
2020-06-27T06:30:00	0.2257	13.091	212.0	0.553971095	0.673749730	0.010509498	0.108424556	0.033417501
2020-06-27T06:35:00	0.2264	13.103	213.0	0.556286031	0.677055385	0.010590463	0.109259853	0.033674948
2020-06-27T06:40:00	0.2265	13.116	213.0	0.556573023	0.677465507	0.010600522	0.109363635	0.033706934
2020-06-27T06:45:00	0.2260	13.128	213.0	0.555170557	0.675461974	0.010551410	0.108856951	0.033550770
2020-06-27T06:50:00	0.2264	13.142	213.0	0.556471316	0.677320155	0.010596957	0.109326850	0.033695597
2020-06-27T06:55:00	0.2263	13.160	212.0	0.556082597	0.676764711	0.010583335	0.109186318	0.033652284
2020-06-27T07:00:00	0.2268	13.179	213.0	0.557720753	0.679106333	0.010640800	0.109779175	0.033835008
2020-06-27T07:05:00	0.2265	13.196	212.0	0.556656591	0.677584940	0.010603452	0.109393863	0.033716251
2020-06-27T07:10:00	0.2270	13.242	212.0	0.558294476	0.679926950	0.010660963	0.109987194	0.033899121
2020-06-27T07:15:00	0.2275	13.272	213.0	0.559931592	0.682270065	0.010718605	0.110581873	0.034082407
2020-06-27T07:20:00	0.2276	13.298	212.0	0.560555747	0.683163964	0.010740623	0.110809025	0.034152418
2020-06-27T07:25:00	0.2286	13.323	213.0	0.563877836	0.687927185	0.010858199	0.112022037	0.034526280
2020-06-27T07:30:00	0.2287	13.351	213.0	0.564164203	0.688338205	0.010868365	0.112126914	0.034558604
2020-06-27T07:35:00	0.2286	13.403	215.0	0.563776342	0.687781527	0.010854597	0.111984879	0.034514827
2020-06-27T07:40:00	0.2294	13.407	214.0	0.566421673	0.691580699	0.010948671	0.112955423	0.034813958
2020-06-27T07:45:00	0.2297	13.447	213.0	0.567381472	0.692960571	0.010982906	0.113308616	0.034922816
2020-06-27T07:50:00	0.2286	13.503	214.0	0.563961228	0.688046870	0.010861159	0.112052573	0.034535691
2020-06-27T07:55:00	0.2281	13.522	214.0	0.562224464	0.685555439	0.010799601	0.111417494	0.034339954
2020-06-27T08:00:00	0.2269	13.507	213.0	0.558123861	0.679682884	0.010654965	0.109925312	0.033880049
2020-06-27T08:05:00	0.2273	13.518	214.0	0.559423517	0.681542648	0.010700699	0.110397142	0.034025471
2020-06-27T08:10:00	0.2264	13.567	215.0	0.556333329	0.677122970	0.010592120	0.109276953	0.033680218
2020-06-27T08:15:00	0.2262	13.596	214.0	0.555606685	0.676084844	0.010566670	0.109014388	0.033599293
2020-06-27T08:20:00	0.2266	13.640	215.0	0.556907281	0.677943259	0.010612245	0.109484571	0.033744208
2020-06-27T08:25:00	0.2263	13.677	214.0	0.556180757	0.676904961	0.010586774	0.109221796	0.033663218
2020-06-27T08:30:00	0.2263	13.720	215.0	0.556129898	0.676832293	0.010584992	0.109203413	0.033657553
2020-06-27T08:35:00	0.2269	13.767	215.0	0.558105732	0.679656952	0.010654328	0.109918737	0.033878022
2020-06-27T08:40:00	0.2276	13.830	216.0	0.560417922	0.682966547	0.010735759	0.110758846	0.034136952
2020-06-27T08:45:00	0.2262	13.855	215.0	0.555639410	0.676131587	0.010567816	0.109026206	0.033602935
2020-06-27T08:50:00	0.2269	13.895	216.0	0.557953237	0.679438831	0.010648968	0.109863444	0.033860980
2020-06-27T08:55:00	0.2269	13.949	216.0	0.557902404	0.679366126	0.010647182	0.109845016	0.033855301
2020-06-27T09:00:00	0.2274	14.010	216.0	0.559877233	0.682192228	0.010716689	0.110562101	0.034076313
2020-06-27T09:05:00	0.2273	14.063	216.0	0.559488894	0.681636238	0.010703002	0.110420904	0.034032795
2020-06-27T09:10:00	0.2273	14.118	217.0	0.559438084	0.681563501	0.010701212	0.110402436	0.034027103
2020-06-27T09:15:00	0.2265	14.160	217.0	0.556685747	0.677626612	0.010604475	0.109404411	0.033719502
2020-06-27T09:20:00	0.2268	14.218	217.0	0.557648228	0.679002617	0.010638253	0.109752893	0.033826908
2020-06-27T09:25:00	0.2267	14.275	217.0	0.557259641	0.678446984	0.010624609	0.109612131	0.033783523
2020-06-27T09:30:00	0.2265	14.324	217.0	0.556871010	0.677891413	0.010610972	0.109471445	0.033740163
2020-06-27T09:35:00	0.2255	14.376	218.0	0.553440434	0.672992584	0.010490983	0.108233536	0.033358627
2020-06-27T09:40:00	0.2254	14.422	218.0	0.553051377	0.672437625	0.010477419	0.108093597	0.033315496
2020-06-27T09:45:00	0.2249	14.467	218.0	0.551309162	0.669954018	0.010416787	0.107468070	0.033122703
2020-06-27T09:50:00	0.2243	14.511	218.0	0.549227542	0.666989841	0.010344577	0.106723093	0.032893094
2020-06-27T09:55:00	0.2243	14.554	218.0	0.549176582	0.666917319	0.010342812	0.106704888	0.032887483
2020-06-27T10:00:00	0.2242	14.582	218.0	0.548787046	0.666363041	0.010329329	0.106565783	0.032844609
2020-06-27T10:05:00	0.2241	14.625	219.0	0.548448440	0.665881331	0.010317616	0.106444940	0.032807364
2020-06-27T10:10:00	0.2241	14.663	219.0	0.548448440	0.665881331	0.010317616	0.106444940	0.032807364
2020-06-27T10:15:00	0.2237	14.683	220.0	0.547093683	0.663954964	0.010270819	0.105962143	0.032658562
2020-06-27T10:20:00	0.2240	14.723	221.0	0.548109800	0.665399669	0.010305908	0.106324154	0.032770137
2020-06-27T10:25:00	0.2240	14.743	221.0	0.548109800	0.665399669	0.010305908	0.106324154	0.032770137
2020-06-27T10:30:00	0.2234	14.758	221.0	0.546077267	0.662510682	0.010235780	0.105600651	0.032547146
2020-06-27T10:35:00	0.2237	14.787	221.0	0.547093683	0.663954964	0.010270819	0.105962143	0.032658562
2020-06-27T10:40:00	0.2248	14.785	222.0	0.550817993	0.669254285	0.010399726	0.107292052	0.033068452
2020-06-27T10:45:00	0.2244	14.789	222.0	0.549464161	0.667326601	0.010352772	0.106807643	0.032919153
2020-06-27T10:50:00	0.2243	14.800	220.0	0.549125620	0.666844797	0.010341048	0.106686684	0.032881872
2020-06-27T10:55:00	0.2238	14.792	222.0	0.547432421	0.664436485	0.010282510	0.106082756	0.032695736
2020-06-27T11:00:00	0.2242	14.793	221.0	0.548787046	0.666363041	0.010329329	0.106565783	0.032844609
2020-06-27T11:05:00	0.2239	14.785	221.0	0.547771127	0.664918054	0.010294206	0.106203426	0.032732927
2020-06-27T11:10:00	0.2234	14.782	221.0	0.546077267	0.662510682	0.010235780	0.105600651	0.032547146
2020-06-27T11:15:00	0.2242	14.792	220.0	0.548787046	0.666363041	0.010329329	0.106565783	0.032844609
2020-06-27T11:20:00	0.2243	14.803	221.0	0.549125620	0.666844797	0.010341048	0.106686684	0.032881872
2020-06-27T11:25:00	0.2239	14.822	223.0	0.547771127	0.664918054	0.010294206	0.106203426	0.032732927
2020-06-27T11:30:00	0.2238	14.869	223.0	0.547432421	0.664436485	0.010282510	0.106082756	0.032695736
2020-06-27T11:35:00	0.2229	14.908	222.0	0.544382580	0.660104485	0.010177493	0.104999317	0.032361809
2020-06-27T11:40:00	0.2236	14.913	221.0	0.546754911	0.663473490	0.010259133	0.105841588	0.032621405
2020-06-27T11:45:00	0.2227	14.922	222.0	0.543704473	0.659142336	0.010154217	0.104759188	0.032287799
2020-06-27T11:50:00	0.2226	14.934	222.0	0.543365369	0.658661332	0.010142588	0.104639210	0.032250821
2020-06-27T11:55:00	0.2222	14.968	221.0	0.542008624	0.656737785	0.010096126	0.104159874	0.032103085
2020-06-27T12:00:00	0.2221	15.022	222.0	0.541669355	0.656257016	0.010084525	0.104040185	0.032066195
2020-06-27T12:05:00	0.2216	15.056	222.0	0.539972509	0.653853876	0.010026602	0.103442605	0.031882015
2020-06-27T12:10:00	0.2214	15.073	222.0	0.539293538	0.652892949	0.010003472	0.103203977	0.031808468
2020-06-27T12:15:00	0.2204	15.095	223.0	0.535896680	0.648091135	0.009888159	0.102014312	0.031441802
2020-06-27T12:20:00	0.2190	15.105	222.0	0.531135461	0.641376495	0.009727664	0.100358513	0.030931468
2020-06-27T12:25:00	0.2186	15.129	224.0	0.529773905	0.639459719	0.009682010	0.099887516	0.030786302
2020-06-27T12:30:00	0.2182	15.150	223.0	0.528411811	0.637543695	0.009636447	0.099417448	0.030641423
2020-06-27T12:35:00	0.2172	15.160	221.0	0.525004219	0.632756927	0.009522933	0.098246348	0.030280479
2020-06-27T12:40:00	0.2164	15.202	223.0	0.522275714	0.628930897	0.009432529	0.097313658	0.029993014
2020-06-27T12:45:00	0.2163	15.271	223.0	0.521934498	0.628452855	0.009421253	0.097197334	0.029957162
2020-06-27T12:50:00	0.2169	15.340	224.0	0.523981283	0.631321813	0.009488989	0.097896152	0.030172545
2020-06-27T12:55:00	0.2163	15.413	224.0	0.521934498	0.628452855	0.009421253	0.097197334	0.029957162
2020-06-27T13:00:00	0.2148	15.446	223.0	0.516812198	0.621287866	0.009252804	0.095459470	0.029421536
2020-06-27T13:05:00	0.2151	15.439	225.0	0.517837269	0.622720018	0.009286392	0.095805993	0.029528337
2020-06-27T13:10:00	0.2146	15.429	224.0	0.516128647	0.620333333	0.009230440	0.095228748	0.029350425
2020-06-27T13:15:00	0.2141	15.412	224.0	0.514419172	0.617947825	0.009174630	0.094652964	0.029172963
2020-06-27T13:20:00	0.2139	15.393	223.0	0.513735144	0.616993950	0.009152345	0.094423060	0.029102104
2020-06-27T13:25:00	0.2129	15.400	225.0	0.510312953	0.612227400	0.009041264	0.093277050	0.028748893
2020-06-27T13:30:00	0.2125	15.412	223.0	0.508943118	0.610322096	0.008996990	0.092820286	0.028608114
2020-06-27T13:35:00	0.2118	15.433	223.0	0.506544588	0.606989625	0.008919730	0.092023207	0.028362446
2020-06-27T13:40:00	0.2115	15.457	225.0	0.505516130	0.605562128	0.008886704	0.091682482	0.028257431
2020-06-27T13:45:00	0.2117	15.480	224.0	0.506201803	0.606513745	0.008908715	0.091909574	0.028327423
2020-06-27T13:50:00	0.2123	15.508	224.0	0.508257995	0.609369726	0.008974887	0.092592256	0.028537833
2020-06-27T13:55:00	0.2115	15.560	224.0	0.505516130	0.605562128	0.008886704	0.091682482	0.028257431
2020-06-27T14:00:00	0.2112	15.621	224.0	0.504487364	0.604135054	0.008853729	0.091342286	0.028152580
2020-06-27T14:05:00	0.2115	15.664	225.0	0.505516130	0.605562128	0.008886704	0.091682482	0.028257431
2020-06-27T14:10:00	0.2122	15.703	225.0	0.507915383	0.608893612	0.008963844	0.092478329	0.028502719
2020-06-27T14:15:00	0.2109	15.738	226.0	0.503458287	0.602708404	0.008820805	0.091002618	0.028047891
2020-06-27T14:20:00	0.2108	15.749	227.0	0.503115193	0.602232947	0.008809842	0.090889513	0.028013031
2020-06-27T14:25:00	0.2097	15.762	225.0	0.499338877	0.597006033	0.008689623	0.089649241	0.027630767
2020-06-27T14:30:00	0.2097	15.780	226.0	0.499338877	0.597006033	0.008689623	0.089649241	0.027630767
2020-06-27T14:35:00	0.2090	15.777	226.0	0.496933588	0.593682777	0.008613480	0.088863687	0.027388652
2020-06-27T14:40:00	0.2089	15.776	227.0	0.496589837	0.593208214	0.008602625	0.088751701	0.027354136
2020-06-27T14:45:00	0.2078	15.781	227.0	0.492806281	0.587991127	0.008483601	0.087523748	0.026975669
2020-06-27T14:50:00	0.2077	15.780	227.0	0.492462113	0.587517128	0.008472815	0.087412470	0.026941372
2020-06-27T14:55:00	0.2074	15.779	227.0	0.491429399	0.586095415	0.008440491	0.087078992	0.026838591
2020-06-27T15:00:00	0.2078	15.788	226.0	0.492806281	0.587991127	0.008483601	0.087523748	0.026975669
2020-06-27T15:05:00	0.2078	15.788	227.0	0.492806281	0.587991127	0.008483601	0.087523748	0.026975669
2020-06-27T15:10:00	0.2073	15.796	227.0	0.491085092	0.585621604	0.008429728	0.086967950	0.026804367
2020-06-27T15:15:00	0.2076	15.817	228.0	0.492117910	0.587043177	0.008462035	0.087301252	0.026907094
2020-06-27T15:20:00	0.2077	15.831	227.0	0.492462113	0.587517128	0.008472815	0.087412470	0.026941372
2020-06-27T15:25:00	0.2078	15.829	226.0	0.492806281	0.587991127	0.008483601	0.087523748	0.026975669
2020-06-27T15:30:00	0.2084	15.823	226.0	0.494870560	0.590836106	0.008548438	0.088192655	0.027181833
2020-06-27T15:35:00	0.2102	15.807	226.0	0.501055902	0.599381198	0.008744182	0.090212119	0.027804251
2020-06-27T15:40:00	0.2116	15.784	226.0	0.505858984	0.606037913	0.008897707	0.091795999	0.028292418
2020-06-27T15:45:00	0.2120	15.764	226.0	0.507230054	0.607941524	0.008941776	0.092250651	0.028432547
2020-06-27T15:50:00	0.2150	15.750	225.0	0.517495613	0.622242587	0.009275190	0.095690427	0.029492719
2020-06-27T15:55:00	0.2191	15.744	225.0	0.531475766	0.641855806	0.009739091	0.100476407	0.030967804
2020-06-27T16:00:00	0.2182	15.746	226.0	0.528411811	0.637543695	0.009636447	0.099417448	0.030641423
2020-06-27T16:05:00	0.2208	15.735	225.0	0.537409230	0.650228120	0.009939422	0.102543186	0.031604806
2020-06-27T16:10:00	0.2250	15.728	225.0	0.551800261	0.670653850	0.010433860	0.107644208	0.033176990
2020-06-27T16:15:00	0.2266	15.743	225.0	0.557023552	0.678109466	0.010616324	0.109526655	0.033757179
2020-06-27T16:20:00	0.2253	15.743	223.0	0.552782251	0.672053811	0.010468041	0.107996850	0.033285678
2020-06-27T16:25:00	0.2244	15.710	224.0	0.549551465	0.667450866	0.010355797	0.106838847	0.032928770
2020-06-27T16:30:00	0.2214	15.674	223.0	0.539534411	0.653233807	0.010011675	0.103288602	0.031834550
2020-06-27T16:35:00	0.2226	15.637	223.0	0.543419988	0.658738799	0.010144461	0.104658529	0.032256775
2020-06-27T16:40:00	0.2215	15.604	223.0	0.539841016	0.653667749	0.010022120	0.103396369	0.031867765
2020-06-27T16:45:00	0.2215	15.579	223.0	0.539654842	0.653404244	0.010015777	0.103330925	0.031847594
2020-06-27T16:50:00	0.2202	15.559	222.0	0.535392234	0.647378851	0.009871092	0.101838235	0.031387533
2020-06-27T16:55:00	0.2212	15.541	223.0	0.538603356	0.651916542	0.009979988	0.102961695	0.031733794
2020-06-27T17:00:00	0.2209	15.526	224.0	0.537737838	0.650692635	0.009950577	0.102658268	0.031640275
2020-06-27T17:05:00	0.2207	15.507	223.0	0.537211843	0.649949139	0.009932725	0.102474090	0.031583510
2020-06-27T17:10:00	0.2194	15.487	222.0	0.532606059	0.643448475	0.009777095	0.100868483	0.031088646
2020-06-27T17:15:00	0.2188	15.471	223.0	0.530718099	0.640788779	0.009713658	0.100214018	0.030886934
2020-06-27T17:20:00	0.2187	15.455	223.0	0.530191034	0.640046786	0.009695985	0.100031693	0.030830739
2020-06-27T17:25:00	0.2181	15.441	223.0	0.528301751	0.637388942	0.009632770	0.099379514	0.030629731
2020-06-27T17:30:00	0.2169	15.420	223.0	0.524025085	0.631383247	0.009490441	0.097911135	0.030177163
2020-06-27T17:35:00	0.2164	15.400	222.0	0.522473610	0.629208193	0.009439071	0.097381155	0.030013818
2020-06-27T17:40:00	0.2160	15.382	222.0	0.520921435	0.627034112	0.009387817	0.096852380	0.029850844
2020-06-27T17:45:00	0.2148	15.365	222.0	0.516977317	0.621518500	0.009258210	0.095515246	0.029438726
2020-06-27T17:50:00	0.2133	15.347	221.0	0.512002150	0.614578991	0.009096009	0.093841847	0.028922968
2020-06-27T17:55:00	0.2123	15.327	221.0	0.508390352	0.609553681	0.008979155	0.092636286	0.028551403
2020-06-27T18:00:00	0.2108	15.309	222.0	0.503402681	0.602631339	0.008819028	0.090984282	0.028042239
2020-06-27T18:05:00	0.2092	15.292	222.0	0.497720477	0.594769466	0.008638354	0.089120302	0.027467743
2020-06-27T18:10:00	0.2079	15.276	220.0	0.493405423	0.588816509	0.008502394	0.087717633	0.027035426
2020-06-27T18:15:00	0.2073	15.261	222.0	0.491151429	0.585712885	0.008431801	0.086989339	0.026810959
2020-06-27T18:20:00	0.2067	15.246	221.0	0.489240470	0.583084789	0.008372181	0.086374247	0.026621382
2020-06-27T18:25:00	0.2068	15.228	223.0	0.489396041	0.583298633	0.008377027	0.086424241	0.026636790
2020-06-27T18:30:00	0.2069	15.211	222.0	0.489896068	0.583986088	0.008392611	0.086585024	0.026686345
2020-06-27T18:35:00	0.2079	15.194	222.0	0.493150064	0.588464689	0.008494382	0.087634971	0.027009949
2020-06-27T18:40:00	0.2080	15.174	221.0	0.493649539	0.589152888	0.008510057	0.087796691	0.027059793
2020-06-27T18:45:00	0.2082	15.156	222.0	0.494492939	0.590315415	0.008536559	0.088070102	0.027144061
2020-06-27T18:50:00	0.2087	15.139	221.0	0.496023851	0.592427054	0.008584768	0.088567469	0.027297354
2020-06-27T18:55:00	0.2095	15.121	220.0	0.498928483	0.596438686	0.008676608	0.089514966	0.027589382
2020-06-27T19:00:00	0.2105	15.108	223.0	0.502173867	0.600928956	0.008779798	0.090579555	0.027917499
2020-06-27T19:05:00	0.2108	15.095	222.0	0.503358266	0.602569785	0.008817608	0.090969638	0.028037726
2020-06-27T19:10:00	0.2113	15.080	220.0	0.504885204	0.604686825	0.008866473	0.091473771	0.028193104
2020-06-27T19:15:00	0.2116	15.065	222.0	0.506068663	0.606328936	0.008904439	0.091865456	0.028313826
2020-06-27T19:20:00	0.2116	15.051	221.0	0.505880651	0.606067985	0.008898402	0.091803175	0.028294630
2020-06-27T19:25:00	0.2110	15.037	220.0	0.503977935	0.603428705	0.008837423	0.091174060	0.028100731
2020-06-27T19:30:00	0.2104	15.022	221.0	0.501730924	0.600315606	0.008765678	0.090433886	0.027872602
2020-06-27T19:35:00	0.2104	15.008	222.0	0.501885926	0.600530221	0.008770618	0.090484847	0.027888309
2020-06-27T19:40:00	0.2096	14.995	222.0	0.499294058	0.596944067	0.008688201	0.089634572	0.027626246
2020-06-27T19:45:00	0.2097	14.986	221.0	0.499449171	0.597158531	0.008693123	0.089685345	0.027641894
2020-06-27T19:50:00	0.2095	14.974	222.0	0.498917277	0.596423196	0.008676253	0.089511300	0.027588252
2020-06-27T19:55:00	0.2094	14.962	221.0	0.498385301	0.595687973	0.008659396	0.089337397	0.027534653
2020-06-27T20:00:00	0.2092	14.953	221.0	0.497853242	0.594952863	0.008642554	0.089163635	0.027481098
2020-06-27T20:05:00	0.2082	14.949	222.0	0.494226440	0.589948016	0.008528180	0.087983663	0.027117420
2020-06-27T20:10:00	0.2083	14.942	220.0	0.494725758	0.590636428	0.008543882	0.088145651	0.027167346
2020-06-27T20:15:00	0.2084	14.933	220.0	0.494881078	0.590850610	0.008548769	0.088196070	0.027182885
2020-06-27T20:20:00	0.2081	14.924	220.0	0.494004459	0.589642033	0.008521205	0.087911696	0.027095239
2020-06-27T20:25:00	0.2076	14.916	220.0	0.492439308	0.587485723	0.008472101	0.087405099	0.026939100
2020-06-27T20:30:00	0.2081	14.905	220.0	0.493971143	0.589596113	0.008520158	0.087900898	0.027091910
2020-06-27T20:35:00	0.2071	14.894	222.0	0.490684584	0.585070575	0.008417217	0.086838873	0.026764584
2020-06-27T20:40:00	0.2066	14.882	220.0	0.488773362	0.582442833	0.008357639	0.086224226	0.026575144
2020-06-27T20:45:00	0.2076	14.869	220.0	0.492372645	0.587393925	0.008470012	0.087383555	0.026932460
2020-06-27T20:50:00	0.2068	14.857	220.0	0.489429050	0.583344010	0.008378055	0.086434850	0.026640060
2020-06-27T20:55:00	0.2062	14.847	220.0	0.487517122	0.580717219	0.008318594	0.085821400	0.026450989
2020-06-27T21:00:00	0.2059	14.837	221.0	0.486293808	0.579038047	0.008280659	0.085430033	0.026330366
2020-06-27T21:05:00	0.2062	14.824	220.0	0.487483742	0.580671384	0.008317558	0.085810710	0.026447694
2020-06-27T21:10:00	0.2061	14.811	221.0	0.486949975	0.579938581	0.008300996	0.085639846	0.026395032
2020-06-27T21:15:00	0.2058	14.799	221.0	0.486071308	0.578732763	0.008273769	0.085358945	0.026308456
2020-06-27T21:20:00	0.2071	14.786	221.0	0.490706699	0.585100998	0.008417907	0.086845998	0.026766780
2020-06-27T21:25:00	0.2074	14.774	220.0	0.491550829	0.586262539	0.008444289	0.087118170	0.026850666
2020-06-27T21:30:00	0.2072	14.761	218.0	0.491017700	0.585528876	0.008427622	0.086946225	0.026797671
2020-06-27T21:35:00	0.2072	14.749	220.0	0.490828857	0.585269054	0.008421723	0.086885359	0.026778911
2020-06-27T21:40:00	0.2074	14.737	220.0	0.491672956	0.586430636	0.008448109	0.087157583	0.026862813
2020-06-27T21:45:00	0.2074	14.726	220.0	0.491484149	0.586170765	0.008442203	0.087096655	0.026844035
2020-06-27T21:50:00	0.2075	14.715	219.0	0.491983868	0.586858633	0.008457838	0.087257959	0.026893751
2020-06-27T21:55:00	0.2074	14.706	221.0	0.491450808	0.586124878	0.008441161	0.087085898	0.026840720
2020-06-27T22:00:00	0.2070	14.695	220.0	0.490228910	0.584443802	0.008402993	0.086692132	0.026719357
2020-06-27T22:05:00	0.2080	14.687	220.0	0.493723075	0.589254225	0.008512366	0.087820513	0.027067135
2020-06-27T22:10:00	0.2087	14.677	220.0	0.496182383	0.592645831	0.008589768	0.088619053	0.027313253
2020-06-27T22:15:00	0.2093	14.667	219.0	0.497952725	0.595090294	0.008645702	0.089196111	0.027491108
2020-06-27T22:20:00	0.2105	14.659	219.0	0.502125471	0.600861933	0.008778254	0.090563633	0.027912591
2020-06-27T22:25:00	0.2113	14.651	221.0	0.504921677	0.604737415	0.008867642	0.091485829	0.028196821
2020-06-27T22:30:00	0.2118	14.642	218.0	0.506687492	0.607188043	0.008924324	0.092070601	0.028377053
2020-06-27T22:35:00	0.2127	14.635	219.0	0.509822426	0.611544952	0.009025397	0.093113358	0.028698441
2020-06-27T22:40:00	0.2121	14.626	219.0	0.507818751	0.608759344	0.008960731	0.092446209	0.028492820
2020-06-27T22:45:00	0.2122	14.618	219.0	0.508212944	0.609307115	0.008973435	0.092577271	0.028533214
2020-06-27T22:50:00	0.2122	14.611	219.0	0.507921902	0.608902671	0.008964054	0.092480496	0.028503387
2020-06-27T22:55:00	0.2125	14.603	219.0	0.509001195	0.610402844	0.008998865	0.092839629	0.028614075
2020-06-27T23:00:00	0.2124	14.595	218.0	0.508710220	0.609998308	0.008989473	0.092742739	0.028584213
2020-06-27T23:05:00	0.2127	14.589	218.0	0.509789264	0.611498822	0.009024325	0.093102297	0.028695032
2020-06-27T23:10:00	0.2125	14.580	219.0	0.509155867	0.610617909	0.009003859	0.092891153	0.028629955
2020-06-27T23:15:00	0.2127	14.572	219.0	0.509892356	0.611642230	0.009027658	0.093136685	0.028705631
2020-06-27T23:20:00	0.2124	14.565	219.0	0.508916466	0.610285040	0.008996130	0.092811410	0.028605378
2020-06-27T23:25:00	0.2126	14.558	219.0	0.509310533	0.610832984	0.009008854	0.092942688	0.028645839
2020-06-27T23:30:00	0.2129	14.552	219.0	0.510389388	0.612333758	0.009043737	0.093302570	0.028756758
2020-06-27T23:35:00	0.2129	14.545	218.0	0.510440925	0.612405474	0.009045405	0.093319779	0.028762062
2020-06-27T23:40:00	0.2127	14.537	219.0	0.509807649	0.611524396	0.009024919	0.093108429	0.028696922
2020-06-27T23:45:00	0.2124	14.530	219.0	0.508831734	0.610167238	0.008993395	0.092783195	0.028596682
2020-06-27T23:50:00	0.2124	14.523	220.0	0.508883295	0.610238922	0.008995059	0.092800364	0.028601973
2020-06-27T23:55:00	0.2122	14.514	218.0	0.507907117	0.608882126	0.008963578	0.092475581	0.028501872
2020-06-28T00:00:00	0.2117	14.506	220.0	0.506245133	0.606573895	0.008910107	0.091923934	0.028331849
2020-06-28T00:05:00	0.2123	14.496	220.0	0.508352869	0.609501584	0.008977946	0.092623816	0.028547560
2020-06-28T00:10:00	0.2121	14.487	221.0	0.507719206	0.608621036	0.008957524	0.092413127	0.028482623
2020-06-28T00:15:00	0.2125	14.478	220.0	0.509141087	0.610597357	0.009003382	0.092886228	0.028628438
2020-06-28T00:20:00	0.2123	14.467	218.0	0.508507570	0.609716609	0.008982936	0.092675290	0.028563424
2020-06-28T00:25:00	0.2114	14.457	221.0	0.505474655	0.605504578	0.008885373	0.091668755	0.028253201
2020-06-28T00:30:00	0.2118	14.448	221.0	0.506554720	0.607003693	0.008920055	0.092026567	0.028363482
2020-06-28T00:35:00	0.2127	14.440	223.0	0.509689776	0.611360435	0.009021109	0.093069116	0.028684806
2020-06-28T00:40:00	0.2125	14.433	220.0	0.509056361	0.610479548	0.009000646	0.092858004	0.028619739
2020-06-28T00:45:00	0.2120	14.426	220.0	0.507394936	0.608170551	0.008947083	0.092305402	0.028449421
2020-06-28T00:50:00	0.2129	14.420	219.0	0.510529223	0.612528349	0.009048263	0.093349266	0.028771151
2020-06-28T00:55:00	0.2125	14.415	218.0	0.509211031	0.610694617	0.009005640	0.092909532	0.028635620
2020-06-28T01:00:00	0.2129	14.408	220.0	0.510632293	0.612671787	0.009051600	0.093383693	0.028781761
2020-06-28T01:05:00	0.2127	14.401	217.0	0.509656613	0.611314307	0.009020037	0.093058057	0.028681397
2020-06-28T01:10:00	0.2129	14.394	218.0	0.510392994	0.612338776	0.009043854	0.093303774	0.028757129
2020-06-28T01:15:00	0.2129	14.386	219.0	0.510444532	0.612410492	0.009045522	0.093320983	0.028762433
2020-06-28T01:20:00	0.2128	14.379	219.0	0.510153679	0.612005788	0.009036110	0.093223883	0.028732506
2020-06-28T01:25:00	0.2128	14.373	219.0	0.510205220	0.612077499	0.009037778	0.093241086	0.028737808
2020-06-28T01:30:00	0.2126	14.364	218.0	0.509571900	0.611196481	0.009017299	0.093029811	0.028672691
2020-06-28T01:35:00	0.2124	14.355	220.0	0.508595918	0.609839415	0.008985785	0.092704692	0.028572486
2020-06-28T01:40:00	0.2121	14.347	217.0	0.507619658	0.608482732	0.008954318	0.092380050	0.028472428
2020-06-28T01:45:00	0.2121	14.338	217.0	0.507671237	0.608554391	0.008955979	0.092397187	0.028477710
2020-06-28T01:50:00	0.2122	14.330	217.0	0.508065447	0.609102139	0.008968680	0.092528221	0.028518096
2020-06-28T01:55:00	0.2121	14.321	217.0	0.507774393	0.608697712	0.008959302	0.092431467	0.028488276
2020-06-28T02:00:00	0.2118	14.313	218.0	0.506797898	0.607341349	0.008927873	0.092107225	0.028388341
2020-06-28T02:05:00	0.2121	14.305	217.0	0.507877545	0.608841037	0.008962625	0.092465751	0.028498843
2020-06-28T02:10:00	0.2123	14.297	217.0	0.508271732	0.609388817	0.008975330	0.092596825	0.028539241
2020-06-28T02:15:00	0.2129	14.290	218.0	0.510378219	0.612318217	0.009043376	0.093298841	0.028755609
2020-06-28T02:20:00	0.2128	14.282	217.0	0.510087361	0.611913520	0.009033965	0.093201751	0.028725685
2020-06-28T02:25:00	0.2135	14.274	217.0	0.512534918	0.615321154	0.009113310	0.094020336	0.028977981
2020-06-28T02:30:00	0.2140	14.267	217.0	0.514296810	0.617777164	0.009170641	0.094611817	0.029160281
2020-06-28T02:35:00	0.2141	14.258	217.0	0.514690259	0.618325959	0.009183469	0.094744154	0.029201069
2020-06-28T02:40:00	0.2143	14.249	217.0	0.515425559	0.619351915	0.009207465	0.094991723	0.029277371
2020-06-28T02:45:00	0.2143	14.241	218.0	0.515135129	0.618946629	0.009197983	0.094893899	0.029247221
2020-06-28T02:50:00	0.2146	14.231	217.0	0.516212153	0.620449924	0.009233171	0.095256919	0.029359108
2020-06-28T02:55:00	0.2150	14.223	218.0	0.517630515	0.622431088	0.009279612	0.095736049	0.029506780
2020-06-28T03:00:00	0.2153	14.215	218.0	0.518706755	0.623935464	0.009314930	0.096100413	0.029619081
2020-06-28T03:05:00	0.2156	14.206	218.0	0.519782659	0.625440307	0.009350303	0.096465356	0.029731559
2020-06-28T03:10:00	0.2159	14.197	217.0	0.520858225	0.626945617	0.009385733	0.096830877	0.029844217
2020-06-28T03:15:00	0.2162	14.191	217.0	0.521592206	0.627973399	0.009409949	0.097080712	0.029921218
2020-06-28T03:20:00	0.2159	14.184	217.0	0.520619639	0.626611623	0.009377868	0.096749736	0.029819208
2020-06-28T03:25:00	0.2157	14.176	217.0	0.519988239	0.625727955	0.009357070	0.096535167	0.029753076
2020-06-28T03:30:00	0.2153	14.169	218.0	0.518673679	0.623889216	0.009313843	0.096089204	0.029615626
2020-06-28T03:35:00	0.2153	14.163	217.0	0.518725092	0.623961104	0.009315532	0.096106627	0.029620996
2020-06-28T03:40:00	0.2144	14.156	217.0	0.515701213	0.619736643	0.009216469	0.095084616	0.029306002
2020-06-28T03:45:00	0.2143	14.149	217.0	0.515410806	0.619331325	0.009206984	0.094986752	0.029275840
2020-06-28T03:50:00	0.2139	14.142	217.0	0.513752462	0.617018095	0.009152909	0.094428877	0.029103897
2020-06-28T03:55:00	0.2140	14.136	217.0	0.514145973	0.617566804	0.009165726	0.094561107	0.029144652
2020-06-28T04:00:00	0.2132	14.130	217.0	0.511460344	0.613824472	0.009078431	0.093660504	0.028867077
2020-06-28T04:05:00	0.2130	14.124	217.0	0.510927253	0.613082323	0.009061153	0.093482249	0.028812137
2020-06-28T04:10:00	0.2125	14.120	217.0	0.509024278	0.610434939	0.008999610	0.092847317	0.028616445
2020-06-28T04:15:00	0.2125	14.114	216.0	0.509175885	0.610645744	0.009004505	0.092897822	0.028632011
2020-06-28T04:20:00	0.2122	14.108	217.0	0.507957255	0.608951796	0.008965194	0.092492249	0.028507009
2020-06-28T04:25:00	0.2117	14.105	217.0	0.506395427	0.606782537	0.008914936	0.091973752	0.028347203
2020-06-28T04:30:00	0.2115	14.101	217.0	0.505518694	0.605565684	0.008886786	0.091683331	0.028257693
2020-06-28T04:35:00	0.2116	14.097	217.0	0.506013294	0.606252083	0.008902661	0.091847112	0.028308172
2020-06-28T04:40:00	0.2118	14.095	217.0	0.506850576	0.607414501	0.008929568	0.092124702	0.028393728
2020-06-28T04:45:00	0.2120	14.093	217.0	0.507344983	0.608101163	0.008945475	0.092288813	0.028444308
2020-06-28T04:50:00	0.2112	14.095	218.0	0.504754189	0.604505103	0.008862275	0.091430460	0.028179756
2020-06-28T04:55:00	0.2116	14.098	218.0	0.505934625	0.606142895	0.008900135	0.091821052	0.028300140
2020-06-28T05:00:00	0.2112	14.101	217.0	0.504714840	0.604450529	0.008861015	0.091417454	0.028175747
2020-06-28T05:05:00	0.2102	14.106	218.0	0.501092260	0.599431517	0.008745340	0.090224056	0.027807930
2020-06-28T05:10:00	0.2100	14.112	217.0	0.500557550	0.598691582	0.008728330	0.090048568	0.027753843
2020-06-28T05:15:00	0.2105	14.115	218.0	0.502082671	0.600802662	0.008776890	0.090549554	0.027908252
2020-06-28T05:20:00	0.2102	14.119	217.0	0.501204830	0.599587322	0.008748923	0.090261023	0.027819324
2020-06-28T05:25:00	0.2107	14.124	217.0	0.503072794	0.602174199	0.008808487	0.090875541	0.028008724
2020-06-28T05:30:00	0.2100	14.127	217.0	0.500478756	0.598582566	0.008725824	0.090022722	0.027745877
2020-06-28T05:35:00	0.2104	14.131	217.0	0.502003912	0.600693598	0.008774379	0.090523649	0.027900268
2020-06-28T05:40:00	0.2104	14.137	217.0	0.501812605	0.600428699	0.008768281	0.090460739	0.027880878
2020-06-28T05:45:00	0.2103	14.139	217.0	0.501621287	0.600163815	0.008762185	0.090397848	0.027861495
2020-06-28T05:50:00	0.2108	14.145	217.0	0.503145933	0.602275542	0.008810824	0.090899644	0.028016153
2020-06-28T05:55:00	0.2106	14.151	217.0	0.502611545	0.601535169	0.008793761	0.090723607	0.027961897
2020-06-28T06:00:00	0.2104	14.157	217.0	0.501733840	0.600319643	0.008765771	0.090434844	0.027872897
2020-06-28T06:05:00	0.2100	14.160	218.0	0.500512553	0.598629326	0.008726899	0.090033807	0.027749294
2020-06-28T06:10:00	0.2101	14.166	217.0	0.501007879	0.599314735	0.008742654	0.090196352	0.027799392
2020-06-28T06:15:00	0.2103	14.170	219.0	0.501503132	0.600000241	0.008758421	0.090359018	0.027849527
2020-06-28T06:20:00	0.2099	14.177	218.0	0.500281763	0.598310036	0.008719563	0.089958122	0.027725967
2020-06-28T06:25:00	0.2101	14.183	218.0	0.500777122	0.598995399	0.008735313	0.090120609	0.027776047
2020-06-28T06:30:00	0.2093	14.195	218.0	0.498181337	0.595406143	0.008652938	0.089270766	0.027514117
2020-06-28T06:35:00	0.2089	14.207	218.0	0.496615029	0.593242989	0.008603421	0.088759906	0.027356665
2020-06-28T06:40:00	0.2086	14.217	216.0	0.495735779	0.592029563	0.008575686	0.088473773	0.027268476
2020-06-28T06:45:00	0.2089	14.229	218.0	0.496575586	0.593188543	0.008602176	0.088747060	0.027352706
2020-06-28T06:50:00	0.2086	14.245	219.0	0.495696327	0.591975130	0.008574443	0.088460945	0.027264522
2020-06-28T06:55:00	0.2086	14.252	218.0	0.495848526	0.592185127	0.008579240	0.088510438	0.027279777
2020-06-28T07:00:00	0.2092	14.260	219.0	0.497719426	0.594768014	0.008638320	0.089119959	0.027467637
2020-06-28T07:05:00	0.2090	14.263	217.0	0.497184187	0.594028799	0.008621398	0.088945371	0.027413827
2020-06-28T07:10:00	0.2093	14.300	219.0	0.498023637	0.595188262	0.008647946	0.089219265	0.027498244
2020-06-28T07:15:00	0.2098	14.332	219.0	0.499893344	0.597772769	0.008707223	0.089830815	0.027686730
2020-06-28T07:20:00	0.2089	14.354	220.0	0.496609422	0.593235250	0.008603244	0.088758080	0.027356102
2020-06-28T07:25:00	0.2083	14.368	219.0	0.494698448	0.590598772	0.008543022	0.088136788	0.027164614
2020-06-28T07:30:00	0.2083	14.394	219.0	0.494850693	0.590808708	0.008547812	0.088186205	0.027179845
2020-06-28T07:35:00	0.2088	14.439	221.0	0.496378368	0.592916319	0.008595951	0.088682844	0.027332914
2020-06-28T07:40:00	0.2084	14.447	220.0	0.495155161	0.591228609	0.008557396	0.088285075	0.027210318
2020-06-28T07:45:00	0.2082	14.471	220.0	0.494275534	0.590015693	0.008529723	0.087999584	0.027122326
2020-06-28T07:50:00	0.2085	14.462	217.0	0.495459601	0.591648546	0.008566984	0.088383992	0.027240805
2020-06-28T07:55:00	0.2085	14.480	221.0	0.495267927	0.591384147	0.008560947	0.088321708	0.027221608
2020-06-28T08:00:00	0.2084	14.487	219.0	0.495076242	0.591119762	0.008554911	0.088259443	0.027202417
2020-06-28T08:05:00	0.2072	14.500	221.0	0.490754752	0.585167104	0.008419408	0.086861480	0.026771552
2020-06-28T08:10:00	0.2077	14.513	218.0	0.492628452	0.587746203	0.008478027	0.087466243	0.026957946
2020-06-28T08:15:00	0.2076	14.523	219.0	0.492436618	0.587482019	0.008472016	0.087404230	0.026938833
2020-06-28T08:20:00	0.2081	14.565	220.0	0.493965376	0.589588165	0.008519977	0.087899028	0.027091334
2020-06-28T08:25:00	0.2069	14.593	220.0	0.489986928	0.584111027	0.008395445	0.086614256	0.026695355
2020-06-28T08:30:00	0.2066	14.635	220.0	0.488761420	0.582426423	0.008357268	0.086220392	0.026573962
2020-06-28T08:35:00	0.2065	14.674	219.0	0.488569368	0.582162533	0.008351293	0.086158749	0.026554963
2020-06-28T08:40:00	0.2053	14.739	219.0	0.484239592	0.576221035	0.008217151	0.084774834	0.026128427
2020-06-28T08:45:00	0.2050	14.783	221.0	0.483357135	0.575011929	0.008189944	0.084494140	0.026041914
2020-06-28T08:50:00	0.2047	14.850	219.0	0.482129231	0.573330542	0.008152160	0.084104332	0.025921772
2020-06-28T08:55:00	0.2052	14.872	220.0	0.484007695	0.575903239	0.008209997	0.084701027	0.026105679
2020-06-28T09:00:00	0.2048	14.905	222.0	0.482780027	0.574221537	0.008172175	0.084310821	0.025985414
2020-06-28T09:05:00	0.2047	14.948	221.0	0.482242430	0.573485497	0.008155640	0.084140231	0.025932836
2020-06-28T09:10:00	0.2050	15.003	219.0	0.483430698	0.575112698	0.008192210	0.084517521	0.026049121
2020-06-28T09:15:00	0.2049	15.020	220.0	0.482893204	0.574376521	0.008175658	0.084346756	0.025996490
2020-06-28T09:20:00	0.2047	15.025	220.0	0.482355626	0.573640457	0.008159120	0.084176136	0.025943903
2020-06-28T09:25:00	0.2043	15.024	222.0	0.480782005	0.571487149	0.008110804	0.083677671	0.025790271
2020-06-28T09:30:00	0.2046	15.048	222.0	0.481970785	0.573113666	0.008147291	0.084054097	0.025906289
2020-06-28T09:35:00	0.2046	15.069	221.0	0.481778348	0.572850293	0.008141379	0.083993105	0.025887491
2020-06-28T09:40:00	0.2036	15.077	222.0	0.478476865	0.568336413	0.008040285	0.082950134	0.025566037
2020-06-28T09:45:00	0.2033	15.095	222.0	0.477592906	0.567129314	0.008013323	0.082671976	0.025480306
2020-06-28T09:50:00	0.2029	15.115	221.0	0.476017070	0.564978960	0.007965370	0.082177250	0.025327827
2020-06-28T09:55:00	0.2030	15.121	222.0	0.476515979	0.565659547	0.007980536	0.082333722	0.025376053
2020-06-28T10:00:00	0.2032	15.142	221.0	0.477014815	0.566340233	0.007995715	0.082490317	0.025424317
2020-06-28T10:05:00	0.2030	15.167	223.0	0.476320138	0.565392366	0.007974581	0.082272283	0.025357117
2020-06-28T10:10:00	0.2026	15.179	222.0	0.474933450	0.563501422	0.007932477	0.081837905	0.025223237
2020-06-28T10:15:00	0.2017	15.195	222.0	0.471815195	0.559254829	0.007838200	0.080865263	0.024923459
2020-06-28T10:20:00	0.2019	15.202	221.0	0.472504603	0.560193033	0.007858996	0.081079808	0.024989584
2020-06-28T10:25:00	0.2039	15.212	221.0	0.479418786	0.569623347	0.008069063	0.083247038	0.025657546
2020-06-28T10:30:00	0.2061	15.207	221.0	0.487008428	0.580018818	0.008302809	0.085658549	0.026400797
2020-06-28T10:35:00	0.2076	15.200	222.0	0.492172492	0.587118327	0.008463744	0.087318884	0.026912528
2020-06-28T10:40:00	0.2108	15.194	222.0	0.503166529	0.602304083	0.008811482	0.090906433	0.028018245
2020-06-28T10:45:00	0.2130	15.184	221.0	0.510703486	0.612770870	0.009053906	0.093407476	0.028789091
2020-06-28T10:50:00	0.2098	15.181	221.0	0.499727593	0.597543537	0.008701960	0.089776517	0.027669994
2020-06-28T10:55:00	0.2095	15.166	223.0	0.498694006	0.596114594	0.008669176	0.089438292	0.027565750
2020-06-28T11:00:00	0.2107	15.154	221.0	0.502811124	0.601811652	0.008800131	0.090789332	0.027982154
2020-06-28T11:05:00	0.2156	15.145	221.0	0.519580856	0.625157978	0.009343663	0.096396852	0.029710446
2020-06-28T11:10:00	0.2251	15.205	217.0	0.551865475	0.670746797	0.010436128	0.107667609	0.033184203
2020-06-28T11:15:00	0.2300	15.272	213.0	0.568399353	0.694424777	0.011019272	0.113683797	0.035038450
2020-06-28T11:20:00	0.2351	15.335	210.0	0.585525572	0.719189234	0.011640342	0.120091260	0.037013293
2020-06-28T11:25:00	0.2373	15.397	205.0	0.592885962	0.729907201	0.011912614	0.122900242	0.037879048
2020-06-28T11:30:00	0.2385	15.389	204.0	0.596892895	0.735760961	0.012062194	0.124443436	0.038354675
2020-06-28T11:35:00	0.2390	15.356	206.0	0.598559368	0.738199473	0.012124687	0.125088158	0.038553385
2020-06-28T11:40:00	0.2401	15.323	206.0	0.602226427	0.743573574	0.012262785	0.126512896	0.038992503
2020-06-28T11:45:00	0.2410	15.302	207.0	0.605223383	0.747973993	0.012376246	0.127683450	0.039353279
2020-06-28T11:50:00	0.2420	15.294	207.0	0.608550695	0.752868293	0.012502844	0.128989540	0.039755829
2020-06-28T11:55:00	0.2416	15.290	207.0	0.607215973	0.750903873	0.012451981	0.128464791	0.039594096
2020-06-28T12:00:00	0.2406	15.286	205.0	0.603881443	0.746002697	0.012325376	0.127158628	0.039191524
2020-06-28T12:05:00	0.2404	15.279	205.0	0.603211774	0.745019524	0.012300030	0.126897142	0.039110931
2020-06-28T12:10:00	0.2417	15.272	202.0	0.607540018	0.751380659	0.012464320	0.128592089	0.039633331
2020-06-28T12:15:00	0.2414	15.265	200.0	0.606537993	0.749906606	0.012426185	0.128198664	0.039512073
2020-06-28T12:20:00	0.2416	15.262	199.0	0.607201075	0.750881955	0.012451414	0.128458940	0.039592293
2020-06-28T12:25:00	0.2402	15.265	197.0	0.602533027	0.744023408	0.012274368	0.126632394	0.039029334
2020-06-28T12:30:00	0.2390	15.272	195.0	0.598526512	0.738151373	0.012123453	0.125075430	0.038549462
2020-06-28T12:35:00	0.2382	15.282	194.0	0.596186035	0.734727330	0.012035737	0.124170484	0.038270549
2020-06-28T12:40:00	0.2410	15.288	196.0	0.605523762	0.748415453	0.012387648	0.127801078	0.039389534
2020-06-28T12:45:00	0.2432	15.303	197.0	0.612842687	0.759195309	0.012667128	0.130684426	0.040278209
2020-06-28T12:50:00	0.2436	15.315	198.0	0.614169348	0.761154132	0.012718132	0.131210628	0.040440390
2020-06-28T12:55:00	0.2423	15.327	199.0	0.609843232	0.754772051	0.012552202	0.129498755	0.039912774
2020-06-28T13:00:00	0.2418	15.335	199.0	0.608176104	0.752316825	0.012488559	0.128842157	0.039710404
2020-06-28T13:05:00	0.2408	15.345	199.0	0.604842476	0.747414292	0.012361796	0.127534367	0.039307331
2020-06-28T13:10:00	0.2404	15.352	198.0	0.603506357	0.745451971	0.012311176	0.127012134	0.039146373
2020-06-28T13:15:00	0.2395	15.359	200.0	0.600501977	0.741044979	0.012197744	0.125841873	0.038785688
2020-06-28T13:20:00	0.2394	15.364	201.0	0.600165346	0.740551660	0.012185068	0.125711097	0.038745381
2020-06-28T13:25:00	0.2406	15.369	200.0	0.604164042	0.746417708	0.012336079	0.127269058	0.039225560
2020-06-28T13:30:00	0.2415	15.375	199.0	0.607159360	0.750820584	0.012449826	0.128442558	0.039587244
2020-06-28T13:35:00	0.2414	15.391	198.0	0.606823361	0.750326318	0.012437040	0.128310644	0.039546587
2020-06-28T13:40:00	0.2422	15.405	197.0	0.609483665	0.754242310	0.012538461	0.129356995	0.039869082
2020-06-28T13:45:00	0.2428	15.416	198.0	0.611476841	0.757180178	0.012614728	0.130143822	0.040111590
2020-06-28T13:50:00	0.2433	15.417	199.0	0.613136472	0.759628958	0.012678414	0.130800858	0.040314095
2020-06-28T13:55:00	0.2435	15.416	200.0	0.613798323	0.760606162	0.012703857	0.131063356	0.040394999
2020-06-28T14:00:00	0.2438	15.415	201.0	0.614792355	0.762074516	0.012742121	0.131458112	0.040516667
2020-06-28T14:05:00	0.2445	15.413	203.0	0.617114645	0.765508171	0.012831745	0.132382744	0.040801647
2020-06-28T14:10:00	0.2449	15.408	203.0	0.618439715	0.767469406	0.012883028	0.132911828	0.040964716
2020-06-28T14:15:00	0.2459	15.403	203.0	0.621754687	0.772382375	0.013011790	0.134240238	0.041374145
2020-06-28T14:20:00	0.2451	15.397	202.0	0.619097611	0.768443707	0.012908530	0.133174923	0.041045805
2020-06-28T14:25:00	0.2449	15.395	202.0	0.618430804	0.767456213	0.012882683	0.132908267	0.040963619
2020-06-28T14:30:00	0.2449	15.392	201.0	0.618427834	0.767451815	0.012882568	0.132907079	0.040963253
2020-06-28T14:35:00	0.2441	15.390	200.0	0.615768275	0.763516923	0.012779745	0.131846271	0.040636301
2020-06-28T14:40:00	0.2437	15.393	198.0	0.614436262	0.761548411	0.012728407	0.131316628	0.040473060
2020-06-28T14:45:00	0.2431	15.401	199.0	0.612438796	0.758599256	0.012651621	0.130524445	0.040228901
2020-06-28T14:50:00	0.2433	15.402	199.0	0.613100776	0.759576264	0.012677042	0.130786708	0.040309734
2020-06-28T14:55:00	0.2424	15.406	199.0	0.610104517	0.755157064	0.012562192	0.129601818	0.039944539
2020-06-28T15:00:00	0.2422	15.408	200.0	0.609436022	0.754172126	0.012536641	0.129338217	0.039863295
2020-06-28T15:05:00	0.2433	15.410	200.0	0.613091852	0.759563091	0.012676699	0.130783171	0.040308643
2020-06-28T15:10:00	0.2422	15.415	200.0	0.609430066	0.754163353	0.012536414	0.129335870	0.039862571
2020-06-28T15:15:00	0.2412	15.426	200.0	0.606097618	0.749259048	0.012409445	0.128025956	0.039458843
2020-06-28T15:20:00	0.2405	15.439	200.0	0.603762145	0.745827522	0.012320858	0.127112025	0.039177161
2020-06-28T15:25:00	0.2395	15.450	201.0	0.600424360	0.740931225	0.012194820	0.125811714	0.038776392
2020-06-28T15:30:00	0.2403	15.467	201.0	0.603089470	0.744840005	0.012295404	0.126849415	0.039096222
2020-06-28T15:35:00	0.2408	15.480	202.0	0.604753027	0.747282874	0.012358404	0.127499371	0.039296544
2020-06-28T15:40:00	0.2399	15.493	202.0	0.601749705	0.742874298	0.012244787	0.126327209	0.038935273
2020-06-28T15:45:00	0.2402	15.504	203.0	0.602747118	0.744337562	0.012282459	0.126715870	0.039055062
2020-06-28T15:50:00	0.2395	15.516	203.0	0.600409433	0.740909350	0.012194258	0.125805914	0.038774605
2020-06-28T15:55:00	0.2382	15.529	204.0	0.596066477	0.734552543	0.012031265	0.124124347	0.038256329
2020-06-28T16:00:00	0.2376	15.539	204.0	0.594058624	0.731618965	0.011956291	0.123350847	0.038017929
2020-06-28T16:05:00	0.2373	15.552	205.0	0.593055764	0.730154995	0.011918933	0.122965438	0.037899142
2020-06-28T16:10:00	0.2372	15.562	205.0	0.592721415	0.729667099	0.011906492	0.122837081	0.037859581
2020-06-28T16:15:00	0.2372	15.569	205.0	0.592721415	0.729667099	0.011906492	0.122837081	0.037859581
2020-06-28T16:20:00	0.2368	15.572	205.0	0.591383698	0.727715986	0.011856781	0.122324221	0.037701513
2020-06-28T16:25:00	0.2377	15.579	205.0	0.594392847	0.732107049	0.011968754	0.123479430	0.038057560
2020-06-28T16:30:00	0.2376	15.586	205.0	0.594058624	0.731618965	0.011956291	0.123350847	0.038017929
2020-06-28T16:35:00	0.2373	15.588	205.0	0.593055764	0.730154995	0.011918933	0.122965438	0.037899142
2020-06-28T16:40:00	0.2381	15.597	205.0	0.595729423	0.734059855	0.012018663	0.123994328	0.038216256
2020-06-28T16:45:00	0.2372	15.611	205.0	0.592721415	0.729667099	0.011906492	0.122837081	0.037859581
2020-06-28T16:50:00	0.2381	15.615	204.0	0.595729423	0.734059855	0.012018663	0.123994328	0.038216256
2020-06-28T16:55:00	0.2379	15.608	205.0	0.595061198	0.733083358	0.011993697	0.123736766	0.038136873
2020-06-28T17:00:00	0.2408	15.599	204.0	0.604738119	0.747260972	0.012357838	0.127493539	0.039294747
2020-06-28T17:05:00	0.2444	15.597	205.0	0.616714210	0.764915779	0.012816268	0.132223070	0.040752434
2020-06-28T17:10:00	0.2476	15.601	206.0	0.627325897	0.780660095	0.013229683	0.136488199	0.042066988
2020-06-28T17:15:00	0.2491	15.616	206.0	0.632289290	0.788056817	0.013425384	0.138507214	0.042689268
2020-06-28T17:20:00	0.2500	15.615	206.0	0.635264027	0.792499928	0.013543390	0.139724657	0.043064496
2020-06-28T17:25:00	0.2520	15.613	206.0	0.641865730	0.802387144	0.013807193	0.142446265	0.043903322
2020-06-28T17:30:00	0.2529	15.605	206.0	0.644832542	0.806842527	0.013926609	0.143678259	0.044283035
2020-06-28T17:35:00	0.2542	15.597	206.0	0.649113624	0.813284803	0.014099870	0.145465762	0.044833961
2020-06-28T17:40:00	0.2543	15.587	205.0	0.649442727	0.813780692	0.014113236	0.145603651	0.044876459
2020-06-28T17:45:00	0.2541	15.578	205.0	0.648784490	0.812788961	0.014086510	0.145327928	0.044791479
2020-06-28T17:50:00	0.2545	15.573	204.0	0.650100843	0.814772611	0.014139983	0.145879596	0.044961508
2020-06-28T17:55:00	0.2550	15.570	204.0	0.651745609	0.817253230	0.014206945	0.146570432	0.045174431
2020-06-28T18:00:00	0.2569	15.567	204.0	0.657988891	0.826690305	0.014462627	0.149208259	0.045987435
2020-06-28T18:05:00	0.2570	15.575	205.0	0.658317186	0.827187463	0.014476138	0.149347647	0.046030395
2020-06-28T18:10:00	0.2575	15.578	205.0	0.659958214	0.829673960	0.014543772	0.150045416	0.046245454
2020-06-28T18:15:00	0.2576	15.573	205.0	0.660286331	0.830171400	0.014557315	0.150185136	0.046288517
2020-06-28T18:20:00	0.2569	15.562	206.0	0.657988891	0.826690305	0.014462627	0.149208259	0.045987435
2020-06-28T18:25:00	0.2571	15.554	206.0	0.658645451	0.827684668	0.014489654	0.149487090	0.046073373
2020-06-28T18:30:00	0.2570	15.546	206.0	0.658317186	0.827187463	0.014476138	0.149347647	0.046030395
2020-06-28T18:35:00	0.2569	15.538	206.0	0.657988891	0.826690305	0.014462627	0.149208259	0.045987435
2020-06-28T18:40:00	0.2564	15.530	206.0	0.656346968	0.824205218	0.014395154	0.148512153	0.045772888
2020-06-28T18:45:00	0.2569	15.521	207.0	0.657988891	0.826690305	0.014462627	0.149208259	0.045987435
2020-06-28T18:50:00	0.2563	15.514	207.0	0.656018494	0.823708342	0.014381676	0.148373098	0.045730030
2020-06-28T18:55:00	0.2557	15.506	208.0	0.654047021	0.820728072	0.014300918	0.147539933	0.045473240
2020-06-28T19:00:00	0.2559	15.495	208.0	0.654704298	0.821721308	0.014327816	0.147817433	0.045558768
2020-06-28T19:05:00	0.2550	15.486	208.0	0.651745609	0.817253230	0.014206945	0.146570432	0.045174431
2020-06-28T19:10:00	0.2552	15.472	208.0	0.652403305	0.818245807	0.014233767	0.146847155	0.045259719
2020-06-28T19:15:00	0.2556	15.460	209.0	0.653718338	0.820231525	0.014287477	0.147401266	0.045430502
2020-06-28T19:20:00	0.2566	15.447	208.0	0.657003826	0.825199112	0.014422127	0.148790429	0.045858655
2020-06-28T19:25:00	0.2563	15.435	208.0	0.656018494	0.823708342	0.014381676	0.148373098	0.045730030
2020-06-28T19:30:00	0.2568	15.423	208.0	0.657660566	0.826193193	0.014449122	0.149068927	0.045944491
2020-06-28T19:35:00	0.2571	15.412	209.0	0.658645451	0.827684668	0.014489654	0.149487090	0.046073373
2020-06-28T19:40:00	0.2584	15.399	209.0	0.662910192	0.834152616	0.014665852	0.151304888	0.046633636
2020-06-28T19:45:00	0.2589	15.387	208.0	0.664549140	0.836642404	0.014733861	0.152006532	0.046849890
2020-06-28T19:50:00	0.2605	15.373	208.0	0.669788803	0.844617625	0.014952393	0.154261082	0.047544764
2020-06-28T19:55:00	0.2601	15.360	209.0	0.668479597	0.842622691	0.014897632	0.153696119	0.047370636
2020-06-28T20:00:00	0.2594	15.347	209.0	0.666187348	0.839133368	0.014802005	0.152709559	0.047066569
2020-06-28T20:05:00	0.2581	15.335	209.0	0.661926467	0.832659308	0.014625110	0.150884566	0.046504089
2020-06-28T20:10:00	0.2568	15.322	209.0	0.657660566	0.826193193	0.014449122	0.149068927	0.045944491
2020-06-28T20:15:00	0.2572	15.310	209.0	0.658973687	0.828181921	0.014503176	0.149626588	0.046116368
2020-06-28T20:20:00	0.2563	15.300	210.0	0.656018494	0.823708342	0.014381676	0.148373098	0.045730030
2020-06-28T20:25:00	0.2555	15.289	210.0	0.653389625	0.819735025	0.014274042	0.147262655	0.045387781
2020-06-28T20:30:00	0.2566	15.279	210.0	0.657003826	0.825199112	0.014422127	0.148790429	0.045858655
2020-06-28T20:35:00	0.2574	15.266	210.0	0.659630068	0.829176566	0.014530235	0.149905751	0.046202408
2020-06-28T20:40:00	0.2572	15.254	210.0	0.658973687	0.828181921	0.014503176	0.149626588	0.046116368
2020-06-28T20:45:00	0.2568	15.240	211.0	0.657660566	0.826193193	0.014449122	0.149068927	0.045944491
2020-06-28T20:50:00	0.2564	15.229	211.0	0.656346968	0.824205218	0.014395154	0.148512153	0.045772888
2020-06-28T20:55:00	0.2558	15.218	211.0	0.654375675	0.821224666	0.014314364	0.147678655	0.045515996
2020-06-28T21:00:00	0.2561	15.207	211.0	0.655361456	0.822714731	0.014354735	0.148095155	0.045644365
2020-06-28T21:05:00	0.2565	15.195	211.0	0.656675412	0.824702142	0.014408638	0.148651263	0.045815763
2020-06-28T21:10:00	0.2539	15.181	211.0	0.648126133	0.811797419	0.014059806	0.145052427	0.044706567
2020-06-28T21:15:00	0.2543	15.168	211.0	0.649442727	0.813780692	0.014113236	0.145603651	0.044876459
2020-06-28T21:20:00	0.2544	15.154	211.0	0.649771800	0.814276628	0.014126607	0.145741596	0.044918975
2020-06-28T21:25:00	0.2546	15.140	211.0	0.650429856	0.815268640	0.014153364	0.146017652	0.045004059
2020-06-28T21:30:00	0.2558	15.126	211.0	0.654375675	0.821224666	0.014314364	0.147678655	0.045515996
2020-06-28T21:35:00	0.2577	15.115	211.0	0.660614417	0.830668888	0.014570863	0.150324911	0.046331597
2020-06-28T21:40:00	0.2560	15.104	211.0	0.655032892	0.822217996	0.014341273	0.147956266	0.045601558
2020-06-28T21:45:00	0.2556	15.093	212.0	0.653718338	0.820231525	0.014287477	0.147401266	0.045430502
2020-06-28T21:50:00	0.2559	15.081	211.0	0.654704298	0.821721308	0.014327816	0.147817433	0.045558768
2020-06-28T21:55:00	0.2569	15.069	211.0	0.657988891	0.826690305	0.014462627	0.149208259	0.045987435
2020-06-28T22:00:00	0.2563	15.058	212.0	0.656018494	0.823708342	0.014381676	0.148373098	0.045730030
2020-06-28T22:05:00	0.2563	15.045	211.0	0.655969047	0.823633553	0.014379647	0.148352171	0.045723580
2020-06-28T22:10:00	0.2566	15.034	211.0	0.656904959	0.825049492	0.014418066	0.148748527	0.045845741
2020-06-28T22:15:00	0.2565	15.022	211.0	0.656527097	0.824477735	0.014402548	0.148588437	0.045796399
2020-06-28T22:20:00	0.2573	15.011	211.0	0.659104281	0.828379787	0.014508557	0.149682109	0.046133480
2020-06-28T22:25:00	0.2562	14.999	212.0	0.655771253	0.823334408	0.014371535	0.148268477	0.045697785
2020-06-28T22:30:00	0.2560	14.986	212.0	0.655064711	0.822266097	0.014342576	0.147969713	0.045605703
2020-06-28T22:35:00	0.2575	14.975	212.0	0.659940598	0.829647255	0.014543045	0.150037916	0.046243143
2020-06-28T22:40:00	0.2566	14.963	212.0	0.656936762	0.825097620	0.014419372	0.148762005	0.045849895
2020-06-28T22:45:00	0.2573	14.951	212.0	0.659185468	0.828502803	0.014511903	0.149716630	0.046144119
2020-06-28T22:50:00	0.2579	14.939	212.0	0.661104764	0.831412586	0.014591124	0.150533941	0.046396023
2020-06-28T22:55:00	0.2568	14.927	212.0	0.657773581	0.826364297	0.014453770	0.149116880	0.045959271
2020-06-28T23:00:00	0.2580	14.914	212.0	0.661662022	0.832258018	0.014614168	0.150771679	0.046469296
2020-06-28T23:05:00	0.2553	14.901	212.0	0.652746296	0.818763587	0.014247766	0.146991575	0.045304231
2020-06-28T23:10:00	0.2549	14.888	212.0	0.651381400	0.816703734	0.014192103	0.146417309	0.045127237
2020-06-28T23:15:00	0.2563	14.875	212.0	0.655933775	0.823580205	0.014378201	0.148337245	0.045718979
2020-06-28T23:20:00	0.2561	14.864	212.0	0.655227265	0.822511845	0.014349236	0.148038422	0.045626879
2020-06-28T23:25:00	0.2554	14.852	212.0	0.652877116	0.818961099	0.014253107	0.147046677	0.045321214
2020-06-28T23:30:00	0.2552	14.840	212.0	0.652498832	0.818390004	0.014237665	0.146887370	0.045272114
2020-06-28T23:35:00	0.2541	14.828	212.0	0.648830569	0.812858373	0.014088380	0.145347220	0.044797425
2020-06-28T23:40:00	0.2550	14.815	212.0	0.651742145	0.817248003	0.014206804	0.146568975	0.045173982
2020-06-28T23:45:00	0.2548	14.803	212.0	0.651034813	0.816180932	0.014177987	0.146271674	0.045082351
2020-06-28T23:50:00	0.2551	14.791	212.0	0.651972006	0.817594860	0.014216175	0.146665656	0.045203780
2020-06-28T23:55:00	0.2549	14.779	211.0	0.651264720	0.816527719	0.014187350	0.146368272	0.045112123
2020-06-29T00:00:00	0.2543	14.769	212.0	0.649241109	0.813476885	0.014105047	0.145519168	0.044850421
2020-06-29T00:05:00	0.2532	14.756	211.0	0.645898953	0.808445828	0.013969664	0.144122446	0.044419937
2020-06-29T00:10:00	0.2519	14.742	210.0	0.641564398	0.801935040	0.013795094	0.142321443	0.043864851
2020-06-29T00:15:00	0.2529	14.729	210.0	0.644811381	0.806810721	0.013925755	0.143669452	0.044280320
2020-06-29T00:20:00	0.2533	14.717	209.0	0.646079604	0.808717526	0.013976964	0.144197762	0.044443151
2020-06-29T00:25:00	0.2532	14.705	209.0	0.645700606	0.808147549	0.013961651	0.144039775	0.044394458
2020-06-29T00:30:00	0.2533	14.695	209.0	0.645980437	0.808568376	0.013972956	0.144156415	0.044430407
2020-06-29T00:35:00	0.2525	14.684	209.0	0.643624248	0.805027079	0.013877910	0.143175838	0.044128184
2020-06-29T00:40:00	0.2519	14.672	209.0	0.641596336	0.801982955	0.013796376	0.142334671	0.043868928
2020-06-29T00:45:00	0.2522	14.661	208.0	0.642535989	0.803393044	0.013834125	0.142724113	0.043988958
2020-06-29T00:50:00	0.2532	14.649	209.0	0.645782095	0.808270090	0.013964942	0.144073737	0.044404925
2020-06-29T00:55:00	0.2534	14.636	209.0	0.646391302	0.809186381	0.013989565	0.144327763	0.044483218
2020-06-29T01:00:00	0.2535	14.625	209.0	0.646671080	0.809607292	0.014000880	0.144444502	0.044519198
2020-06-29T01:05:00	0.2537	14.614	209.0	0.647280137	0.810523817	0.014025530	0.144698806	0.044597577
2020-06-29T01:10:00	0.2536	14.603	209.0	0.647230570	0.810449216	0.014023523	0.144678101	0.044591196
2020-06-29T01:15:00	0.2535	14.591	210.0	0.646851693	0.809879050	0.014008188	0.144519890	0.044542434
2020-06-29T01:20:00	0.2534	14.579	210.0	0.646472776	0.809308946	0.013992860	0.144361753	0.044493694
2020-06-29T01:25:00	0.2529	14.567	210.0	0.644776000	0.806757545	0.013924328	0.143654728	0.044275782
2020-06-29T01:30:00	0.2540	14.555	210.0	0.648349290	0.812133471	0.014068855	0.145145780	0.044735339
2020-06-29T01:35:00	0.2541	14.543	210.0	0.648628916	0.812554619	0.014080197	0.145262801	0.044771406
2020-06-29T01:40:00	0.2540	14.532	210.0	0.648250186	0.811984224	0.014064836	0.145104318	0.044722560
2020-06-29T01:45:00	0.2528	14.521	211.0	0.644577591	0.806459362	0.013916326	0.143572172	0.044250338
2020-06-29T01:50:00	0.2526	14.510	211.0	0.643868852	0.805394492	0.013887761	0.143277472	0.044159508
2020-06-29T01:55:00	0.2518	14.500	211.0	0.641181449	0.801360593	0.013779726	0.142162895	0.043815985
2020-06-29T02:00:00	0.2519	14.490	211.0	0.641461632	0.801780873	0.013790969	0.142278887	0.043851735
2020-06-29T02:05:00	0.2525	14.480	211.0	0.643390382	0.804675840	0.013868494	0.143078699	0.044098245
2020-06-29T02:10:00	0.2524	14.470	211.0	0.643011100	0.804106305	0.013853231	0.142921235	0.044049713
2020-06-29T02:15:00	0.2542	14.463	210.0	0.649219973	0.813445039	0.014104189	0.145510313	0.044847692
2020-06-29T02:20:00	0.2551	14.457	210.0	0.652131235	0.817835162	0.014222669	0.146732649	0.045224428
2020-06-29T02:25:00	0.2555	14.450	210.0	0.653396885	0.819745991	0.014274338	0.147265716	0.045388724
2020-06-29T02:30:00	0.2554	14.441	210.0	0.653018655	0.819174811	0.014258887	0.147106307	0.045339593
2020-06-29T02:35:00	0.2551	14.433	209.0	0.651982733	0.817611049	0.014216612	0.146670169	0.045205171
2020-06-29T02:40:00	0.2553	14.426	209.0	0.652590893	0.818528977	0.014241423	0.146926131	0.045284061
2020-06-29T02:45:00	0.2544	14.418	209.0	0.649580935	0.813988969	0.014118851	0.145661578	0.044894313
2020-06-29T02:50:00	0.2543	14.409	209.0	0.649531400	0.813914319	0.014116838	0.145640815	0.044887914
2020-06-29T02:55:00	0.2522	14.402	209.0	0.642564445	0.803435760	0.013835269	0.142735915	0.043992595
2020-06-29T03:00:00	0.2521	14.395	209.0	0.642185076	0.802866360	0.013820021	0.142578611	0.043944113
2020-06-29T03:05:00	0.2513	14.387	209.0	0.639496413	0.798834418	0.013712211	0.141466352	0.043601304
2020-06-29T03:10:00	0.2512	14.378	209.0	0.639116720	0.798265521	0.013697021	0.141309644	0.043553005
2020-06-29T03:15:00	0.2497	14.369	209.0	0.634113037	0.790779904	0.013497667	0.139252946	0.042919110
2020-06-29T03:20:00	0.2499	14.360	210.0	0.635054651	0.792186956	0.013535067	0.139638787	0.043038030
2020-06-29T03:25:00	0.2508	14.351	210.0	0.637977399	0.796559205	0.013651496	0.140839963	0.043408244
2020-06-29T03:30:00	0.2520	14.342	209.0	0.641887245	0.802419427	0.013808057	0.142455179	0.043906070
2020-06-29T03:35:00	0.2521	14.333	210.0	0.642167373	0.802839792	0.013819310	0.142571273	0.043941851
2020-06-29T03:40:00	0.2526	14.324	210.0	0.643766152	0.805240223	0.013883625	0.143234795	0.044146355
2020-06-29T03:45:00	0.2518	14.315	210.0	0.641078672	0.801206443	0.013775603	0.142120359	0.043802875
2020-06-29T03:50:00	0.2493	14.306	210.0	0.632773062	0.788778876	0.013444539	0.138704826	0.042750174
2020-06-29T03:55:00	0.2510	14.297	210.0	0.638669581	0.797595728	0.013679145	0.141125216	0.043496162
2020-06-29T04:00:00	0.2510	14.288	210.0	0.638619896	0.797521312	0.013677159	0.141104730	0.043489848
2020-06-29T04:05:00	0.2520	14.280	211.0	0.641913279	0.802458491	0.013809103	0.142465967	0.043909394
2020-06-29T04:10:00	0.2514	14.272	211.0	0.639928164	0.799481461	0.013729494	0.141644655	0.043656258
2020-06-29T04:15:00	0.2507	14.264	211.0	0.637611793	0.796011885	0.013636903	0.140689415	0.043361844
2020-06-29T04:20:00	0.2527	14.256	211.0	0.644203287	0.805896923	0.013901236	0.143416494	0.044202356
2020-06-29T04:25:00	0.2509	14.249	211.0	0.638260263	0.796982736	0.013662791	0.140956497	0.043444161
2020-06-29T04:30:00	0.2501	14.241	212.0	0.635612473	0.793020864	0.013557248	0.139867625	0.043108560
2020-06-29T04:35:00	0.2506	14.233	211.0	0.637257968	0.795482309	0.013622789	0.140543799	0.043316964
2020-06-29T04:40:00	0.2507	14.224	211.0	0.637582250	0.795967663	0.013635724	0.140677254	0.043358096
2020-06-29T04:45:00	0.2507	14.216	212.0	0.637576341	0.795958818	0.013635489	0.140674822	0.043357346
2020-06-29T04:50:00	0.2512	14.209	211.0	0.639220936	0.798421656	0.013701190	0.141352648	0.043566259
2020-06-29T04:55:00	0.2510	14.203	211.0	0.638554919	0.797423996	0.013674563	0.141077942	0.043481592
2020-06-29T05:00:00	0.2519	14.196	211.0	0.641518563	0.801866278	0.013793254	0.142302462	0.043859001
2020-06-29T05:05:00	0.2520	14.190	212.0	0.641842459	0.802352227	0.013806258	0.142436624	0.043900351
2020-06-29T05:10:00	0.2512	14.183	213.0	0.639197312	0.798386262	0.013700245	0.141342899	0.043563254
2020-06-29T05:15:00	0.2514	14.178	211.0	0.639851400	0.799366408	0.013726420	0.141612945	0.043646485
2020-06-29T05:20:00	0.2501	14.172	211.0	0.635553353	0.792932471	0.013554896	0.139843363	0.043101082
2020-06-29T05:25:00	0.2494	14.167	211.0	0.633234154	0.789467268	0.013462808	0.138893310	0.042808267
2020-06-29T05:30:00	0.2506	14.161	211.0	0.637192966	0.795385031	0.013620196	0.140517056	0.043308721
2020-06-29T05:35:00	0.2502	14.155	211.0	0.635865966	0.793399907	0.013567334	0.139971681	0.043140631
2020-06-29T05:40:00	0.2499	14.152	211.0	0.634868915	0.791909352	0.013527685	0.139562635	0.043014559
2020-06-29T05:45:00	0.2502	14.148	211.0	0.635854143	0.793382227	0.013566863	0.139966827	0.043139135
2020-06-29T05:50:00	0.2507	14.145	211.0	0.637499527	0.795843843	0.013632424	0.140643204	0.043347601
2020-06-29T05:55:00	0.2509	14.142	211.0	0.638153925	0.796823509	0.013658544	0.140912682	0.043430657
2020-06-29T06:00:00	0.2515	14.142	211.0	0.640128212	0.799781317	0.013737505	0.141727310	0.043681733
2020-06-29T06:05:00	0.2523	14.141	211.0	0.642760874	0.803730630	0.013843167	0.142817399	0.044017709
2020-06-29T06:10:00	0.2537	14.141	211.0	0.647367819	0.810655788	0.014029080	0.144735435	0.044608867
2020-06-29T06:15:00	0.2508	14.142	211.0	0.637800154	0.796293851	0.013644420	0.140766967	0.043385746
2020-06-29T06:20:00	0.2499	14.141	211.0	0.634821610	0.791838653	0.013525806	0.139543243	0.043008583
2020-06-29T06:25:00	0.2501	14.138	211.0	0.635476496	0.792817563	0.013551839	0.139811824	0.043091362
2020-06-29T06:30:00	0.2495	14.135	211.0	0.633487815	0.789846051	0.013472864	0.138997058	0.042840243
2020-06-29T06:35:00	0.2503	14.137	212.0	0.636125352	0.793787818	0.013577658	0.140078197	0.043173461
2020-06-29T06:40:00	0.2508	14.138	211.0	0.637770612	0.796249626	0.013643241	0.140754803	0.043381997
2020-06-29T06:45:00	0.2513	14.142	212.0	0.639415118	0.798712602	0.013708958	0.141432792	0.043590960
2020-06-29T06:50:00	0.2507	14.144	212.0	0.637428621	0.795737714	0.013629595	0.140614021	0.043338607
2020-06-29T06:55:00	0.2516	14.149	212.0	0.640393194	0.800178556	0.013748121	0.141836833	0.043715489
2020-06-29T07:00:00	0.2513	14.150	212.0	0.639397401	0.798686055	0.013708249	0.141425479	0.043588706
2020-06-29T07:05:00	0.2510	14.152	212.0	0.638401331	0.797193983	0.013668426	0.141014633	0.043462079
2020-06-29T07:10:00	0.2496	14.156	212.0	0.633771034	0.790269034	0.013484097	0.139112942	0.042875960
2020-06-29T07:15:00	0.2499	14.154	212.0	0.634756563	0.791741443	0.013523221	0.139516581	0.043000365
2020-06-29T07:20:00	0.2481	14.149	212.0	0.628797850	0.782851507	0.013287565	0.137085358	0.042251039
2020-06-29T07:25:00	0.2487	14.144	212.0	0.630777297	0.785801354	0.013365610	0.137890534	0.042499202
2020-06-29T07:30:00	0.2480	14.139	258.0	0.628455001	0.782340917	0.013274071	0.136946146	0.042208132
2020-06-29T07:35:00	0.2480	14.134	215.0	0.628449077	0.782332096	0.013273838	0.136943741	0.042207391
2020-06-29T07:40:00	0.2487	14.129	212.0	0.630759537	0.785774873	0.013364909	0.137883299	0.042496972
2020-06-29T07:45:00	0.2490	14.125	212.0	0.632076594	0.787739418	0.013416967	0.138420378	0.042662505
2020-06-29T07:50:00	0.2505	14.119	213.0	0.637027502	0.795137423	0.013613599	0.140448992	0.043287743
2020-06-29T07:55:00	0.2510	14.113	213.0	0.638672348	0.797599871	0.013679255	0.141126357	0.043496514
2020-06-29T08:00:00	0.2504	14.109	212.0	0.636685439	0.794625621	0.013599966	0.140308340	0.043244393
2020-06-29T08:05:00	0.2525	14.108	212.0	0.643608270	0.805003079	0.013877266	0.143169200	0.044126138
2020-06-29T08:10:00	0.2519	14.110	257.0	0.641624091	0.802024594	0.013797490	0.142346166	0.043872471
2020-06-29T08:15:00	0.2503	14.112	213.0	0.636337434	0.794105027	0.013586103	0.140165320	0.043200313
2020-06-29T08:20:00	0.2478	14.117	213.0	0.628064724	0.781759816	0.013258720	0.136787766	0.042159318
2020-06-29T08:25:00	0.2505	14.123	212.0	0.636986134	0.795075523	0.013611950	0.140431979	0.043282500
2020-06-29T08:30:00	0.2505	14.127	212.0	0.636980224	0.795066680	0.013611714	0.140429548	0.043281751
2020-06-29T08:35:00	0.2521	14.133	212.0	0.642254134	0.802970000	0.013822796	0.142607239	0.043952936
2020-06-29T08:40:00	0.2528	14.133	213.0	0.644555719	0.806426494	0.013915444	0.143563072	0.044247533
2020-06-29T08:45:00	0.2507	14.139	213.0	0.637622900	0.796028510	0.013637346	0.140693988	0.043363253
2020-06-29T08:50:00	0.2501	14.148	213.0	0.635635410	0.793055159	0.013558160	0.139877038	0.043111462
2020-06-29T08:55:00	0.2491	14.151	213.0	0.632324420	0.788109244	0.013426775	0.138521559	0.042693690
2020-06-29T09:00:00	0.2497	14.152	213.0	0.634301919	0.791062089	0.013505165	0.139330298	0.042942951
2020-06-29T09:05:00	0.2510	14.156	213.0	0.638589651	0.797476013	0.013675951	0.141092260	0.043486005
2020-06-29T09:10:00	0.2518	14.159	213.0	0.641223440	0.801423577	0.013781411	0.142180276	0.043821342
2020-06-29T09:15:00	0.2499	14.164	213.0	0.634945074	0.792023177	0.013530712	0.139593857	0.043024183
2020-06-29T09:20:00	0.2513	14.169	213.0	0.639562046	0.798932769	0.013714837	0.141493450	0.043609655
2020-06-29T09:25:00	0.2516	14.174	213.0	0.640545987	0.800407636	0.013754245	0.141900005	0.043734960
2020-06-29T09:30:00	0.2510	14.179	213.0	0.638560115	0.797431779	0.013674770	0.141080084	0.043482252
2020-06-29T09:35:00	0.2518	14.185	213.0	0.641193927	0.801379309	0.013780227	0.142168060	0.043817577
2020-06-29T09:40:00	0.2521	14.188	213.0	0.642177420	0.802854870	0.013819714	0.142575437	0.043943134
2020-06-29T09:45:00	0.2528	14.189	213.0	0.644479055	0.806311287	0.013912353	0.143531180	0.044237704
2020-06-29T09:50:00	0.2522	14.190	213.0	0.642495357	0.803332055	0.013832491	0.142707261	0.043983764
2020-06-29T09:55:00	0.2522	14.197	213.0	0.642489456	0.803323198	0.013832254	0.142704814	0.043983010
2020-06-29T10:00:00	0.2533	14.205	213.0	0.646108705	0.808761295	0.013978140	0.144209897	0.044446891
2020-06-29T10:05:00	0.2544	14.213	213.0	0.649867024	0.814420154	0.014130477	0.145781526	0.044931282
2020-06-29T10:10:00	0.2531	14.226	213.0	0.645394371	0.807687090	0.013949283	0.143912186	0.044355133
2020-06-29T10:15:00	0.2531	14.238	213.0	0.645531353	0.807893049	0.013954815	0.143969251	0.044372721
2020-06-29T10:20:00	0.2520	14.257	213.0	0.641712956	0.802157920	0.013801058	0.142382974	0.043883815
2020-06-29T10:25:00	0.2533	14.274	213.0	0.646134708	0.808800407	0.013979191	0.144220740	0.044450233
2020-06-29T10:30:00	0.2520	14.295	214.0	0.641987197	0.802569409	0.013812072	0.142496597	0.043918835
2020-06-29T10:35:00	0.2513	14.335	214.0	0.639485275	0.798817728	0.013711765	0.141461754	0.043599886
2020-06-29T10:40:00	0.2505	14.360	214.0	0.636981608	0.795068750	0.013611770	0.140430117	0.043281926
2020-06-29T10:45:00	0.2492	14.385	214.0	0.632492874	0.788360653	0.013433443	0.138590356	0.042714894
2020-06-29T10:50:00	0.2497	14.409	214.0	0.634283128	0.791034015	0.013504419	0.139322602	0.042940579
2020-06-29T10:55:00	0.2502	14.422	214.0	0.635742159	0.793214774	0.013562407	0.139920854	0.043124966
2020-06-29T11:00:00	0.2508	14.433	215.0	0.637860957	0.796384876	0.013646847	0.140792006	0.043393463
2020-06-29T11:05:00	0.2497	14.440	215.0	0.634364877	0.791156154	0.013507665	0.139356087	0.042950899
2020-06-29T11:10:00	0.2483	14.445	215.0	0.629541958	0.783960016	0.013316876	0.137387750	0.042344239
2020-06-29T11:15:00	0.2472	14.455	215.0	0.626037740	0.778743819	0.013179136	0.135966714	0.041906262
2020-06-29T11:20:00	0.2458	14.468	215.0	0.621203564	0.771564938	0.012990337	0.134018912	0.041305930
2020-06-29T11:25:00	0.2456	14.479	215.0	0.620678056	0.770785734	0.012969898	0.133808050	0.041240940
2020-06-29T11:30:00	0.2450	14.498	215.0	0.618825069	0.768040046	0.012897962	0.133065900	0.041012203
2020-06-29T11:35:00	0.2445	14.525	215.0	0.616971117	0.765295823	0.012826196	0.132325500	0.040784004
2020-06-29T11:40:00	0.2443	14.553	215.0	0.616444984	0.764517569	0.012805867	0.132115771	0.040719364
2020-06-29T11:45:00	0.2445	14.582	215.0	0.616915186	0.765213079	0.012824034	0.132303196	0.040777130
2020-06-29T11:50:00	0.2447	14.604	215.0	0.617717356	0.766400060	0.012855058	0.132623264	0.040875778
2020-06-29T11:55:00	0.2449	14.623	216.0	0.618187389	0.767095825	0.012873254	0.132810993	0.040933638
2020-06-29T12:00:00	0.2438	14.631	216.0	0.614671993	0.761896676	0.012737485	0.131410280	0.040501925
2020-06-29T12:05:00	0.2425	14.662	216.0	0.610487798	0.755721947	0.012576853	0.129753079	0.039991159
2020-06-29T12:10:00	0.2433	14.674	216.0	0.612954111	0.759359771	0.012671408	0.130728579	0.040291818
2020-06-29T12:15:00	0.2437	14.685	216.0	0.614421884	0.761527170	0.012727853	0.131310916	0.040471300
2020-06-29T12:20:00	0.2442	14.686	216.0	0.615889051	0.763695486	0.012784405	0.131894350	0.040651120
2020-06-29T12:25:00	0.2448	14.702	216.0	0.618019651	0.766847509	0.012866759	0.132743984	0.040912985
2020-06-29T12:30:00	0.2448	14.751	216.0	0.618157685	0.767051850	0.012872104	0.132799126	0.040929980
2020-06-29T12:35:00	0.2443	14.785	217.0	0.616303385	0.764308155	0.012800399	0.132059356	0.040701976
2020-06-29T12:40:00	0.2448	14.781	217.0	0.618101773	0.766969077	0.012869939	0.132776788	0.040923096
2020-06-29T12:45:00	0.2450	14.763	216.0	0.618571755	0.767664920	0.012888144	0.132964610	0.040980984
2020-06-29T12:50:00	0.2434	14.754	217.0	0.613395030	0.760010667	0.012688350	0.130903372	0.040345691
2020-06-29T12:55:00	0.2426	14.764	217.0	0.610540325	0.755799372	0.012578864	0.129773816	0.039997550
2020-06-29T13:00:00	0.2430	14.754	217.0	0.612009095	0.757965264	0.012635134	0.130354351	0.040176477
2020-06-29T13:05:00	0.2433	14.760	217.0	0.613144831	0.759641297	0.012678735	0.130804171	0.040315116
2020-06-29T13:10:00	0.2424	14.778	217.0	0.609957200	0.754939981	0.012556559	0.129543705	0.039926628
2020-06-29T13:15:00	0.2410	14.831	217.0	0.605434292	0.748283954	0.012384251	0.127766036	0.039378733
2020-06-29T13:20:00	0.2411	14.885	217.0	0.605572816	0.748487555	0.012389510	0.127820293	0.039395456
2020-06-29T13:25:00	0.2407	14.898	218.0	0.604378525	0.746732730	0.012344207	0.127352903	0.039251402
2020-06-29T13:30:00	0.2403	14.920	218.0	0.603183832	0.744978510	0.012298973	0.126886237	0.039107571
2020-06-29T13:35:00	0.2388	14.966	218.0	0.597984591	0.737358152	0.012103114	0.124865596	0.038484789
2020-06-29T13:40:00	0.2375	14.993	218.0	0.593780629	0.731213066	0.011945929	0.123243949	0.037984982
2020-06-29T13:45:00	0.2380	15.003	218.0	0.595256366	0.733368523	0.012000986	0.123811963	0.038160050
2020-06-29T13:50:00	0.2379	15.029	218.0	0.595061161	0.733083303	0.011993696	0.123736751	0.038136868
2020-06-29T13:55:00	0.2374	15.052	218.0	0.593194736	0.730357816	0.011924107	0.123018809	0.037915592
2020-06-29T14:00:00	0.2360	15.065	219.0	0.588650325	0.723733888	0.011755537	0.121279709	0.037379584
2020-06-29T14:05:00	0.2353	15.076	219.0	0.586445557	0.720526420	0.011674197	0.120440539	0.037120944
2020-06-29T14:10:00	0.2343	15.079	219.0	0.582898464	0.715374642	0.011543942	0.119096718	0.036706765
2020-06-29T14:15:00	0.2334	15.078	219.0	0.580019001	0.711200215	0.011438753	0.118011502	0.036372291
2020-06-29T14:20:00	0.2336	15.060	219.0	0.580494071	0.711888462	0.011456073	0.118190198	0.036427367
2020-06-29T14:25:00	0.2341	15.048	219.0	0.582310757	0.714522070	0.011522432	0.118874810	0.036638371
2020-06-29T14:30:00	0.2354	15.036	218.0	0.586806943	0.721051883	0.011687510	0.120577884	0.037163275
2020-06-29T14:35:00	0.2387	15.021	218.0	0.597647190	0.736864416	0.012090460	0.124735044	0.038444552
2020-06-29T14:40:00	0.2407	14.997	219.0	0.604457453	0.746848665	0.012347198	0.127383764	0.039260913
2020-06-29T14:45:00	0.2424	14.959	218.0	0.609923922	0.754890945	0.012555287	0.129530579	0.039922582
2020-06-29T14:50:00	0.2420	14.922	218.0	0.608731096	0.753133918	0.012509727	0.129060550	0.039777715
2020-06-29T14:55:00	0.2413	14.893	217.0	0.606205746	0.749418031	0.012413554	0.128068350	0.039471909
2020-06-29T15:00:00	0.2408	14.877	218.0	0.604678447	0.747173306	0.012355576	0.127470196	0.039287552
2020-06-29T15:05:00	0.2405	14.870	218.0	0.603817188	0.745908346	0.012322943	0.127133526	0.039183787
2020-06-29T15:10:00	0.2403	14.861	218.0	0.602955720	0.744643699	0.012290346	0.126797233	0.039080139
2020-06-29T15:15:00	0.2399	14.850	218.0	0.601760546	0.742890198	0.012245196	0.126331431	0.038936574
2020-06-29T15:20:00	0.2401	14.845	218.0	0.602232697	0.743582772	0.012263022	0.126515339	0.038993256
2020-06-29T15:25:00	0.2401	14.848	218.0	0.602371346	0.743786184	0.012268259	0.126569371	0.039009909
2020-06-29T15:30:00	0.2399	14.856	218.0	0.601843045	0.743011198	0.012248310	0.126363555	0.038946475
2020-06-29T15:35:00	0.2397	14.863	218.0	0.600981096	0.741747271	0.012215797	0.126028126	0.038843092
2020-06-29T15:40:00	0.2395	14.864	218.0	0.600452588	0.740972595	0.012195884	0.125822682	0.038779773
2020-06-29T15:45:00	0.2396	14.865	218.0	0.600591307	0.741175903	0.012201109	0.125876589	0.038796387
2020-06-29T15:50:00	0.2404	14.857	218.0	0.603397883	0.745292723	0.012307071	0.126969784	0.039133321
2020-06-29T15:55:00	0.2399	14.852	218.0	0.601535856	0.742560677	0.012236718	0.126243959	0.038909614
2020-06-29T16:00:00	0.2395	14.847	217.0	0.600340203	0.740807894	0.012191651	0.125779018	0.038766315
2020-06-29T16:05:00	0.2388	14.835	218.0	0.598145716	0.737593969	0.012109159	0.124927965	0.038504012
2020-06-29T16:10:00	0.2387	14.828	218.0	0.597619772	0.736824297	0.012089432	0.124724438	0.038441283
2020-06-29T16:15:00	0.2397	14.819	218.0	0.601098901	0.741919979	0.012220238	0.126073943	0.038857214
2020-06-29T16:20:00	0.2399	14.801	218.0	0.601574124	0.742616796	0.012238161	0.126258854	0.038914205
2020-06-29T16:25:00	0.2402	14.788	218.0	0.602716189	0.744292175	0.012281290	0.126703809	0.039051344
2020-06-29T16:30:00	0.2407	14.773	217.0	0.604524451	0.746947081	0.012349737	0.127409964	0.039268988
2020-06-29T16:35:00	0.2404	14.758	218.0	0.603332789	0.745197165	0.012304608	0.126944374	0.039125489
2020-06-29T16:40:00	0.2424	14.745	217.0	0.610135117	0.755202159	0.012563362	0.129613891	0.039948260
2020-06-29T16:45:00	0.2417	14.733	217.0	0.607613746	0.751489152	0.012467128	0.128621061	0.039642260
2020-06-29T16:50:00	0.2407	14.721	217.0	0.604424123	0.746799707	0.012345935	0.127370732	0.039256897
2020-06-29T16:55:00	0.2411	14.708	217.0	0.605565269	0.748476462	0.012389224	0.127817337	0.039394545
2020-06-29T17:00:00	0.2400	14.701	217.0	0.602040331	0.743300578	0.012255758	0.126440394	0.038970157
2020-06-29T17:05:00	0.2397	14.693	217.0	0.601181415	0.742040955	0.012223349	0.126106039	0.038867106
2020-06-29T17:10:00	0.2394	14.679	217.0	0.599988628	0.740292725	0.012178416	0.125642472	0.038724230
2020-06-29T17:15:00	0.2398	14.664	217.0	0.601464759	0.742456418	0.012234035	0.126216288	0.038901086
2020-06-29T17:20:00	0.2398	14.646	217.0	0.601272881	0.742175063	0.012226798	0.126141623	0.038878073
2020-06-29T17:25:00	0.2397	14.631	217.0	0.601080993	0.741893723	0.012219563	0.126066977	0.038855067
2020-06-29T17:30:00	0.2400	14.616	217.0	0.601889733	0.743079677	0.012250072	0.126381737	0.038952079
2020-06-29T17:35:00	0.2399	14.600	217.0	0.601697878	0.742798287	0.012242831	0.126307031	0.038929054
2020-06-29T17:40:00	0.2395	14.586	217.0	0.600505265	0.741049797	0.012197868	0.125843151	0.038786081
2020-06-29T17:45:00	0.2398	14.573	217.0	0.601314136	0.742235554	0.012228354	0.126157675	0.038883021
2020-06-29T17:50:00	0.2394	14.561	217.0	0.600121394	0.740487257	0.012183413	0.125694027	0.038740120
2020-06-29T17:55:00	0.2399	14.548	217.0	0.601597470	0.742651033	0.012239042	0.126267942	0.038917006
2020-06-29T18:00:00	0.2400	14.535	216.0	0.602072626	0.743347951	0.012256977	0.126452974	0.038974035
2020-06-29T18:05:00	0.2402	14.522	216.0	0.602547718	0.744044964	0.012274923	0.126638121	0.039031099
2020-06-29T18:10:00	0.2403	14.508	217.0	0.603022747	0.744742073	0.012292881	0.126823382	0.039088198
2020-06-29T18:15:00	0.2405	14.494	216.0	0.603831044	0.745928691	0.012323467	0.127138939	0.039185456
2020-06-29T18:20:00	0.2404	14.479	217.0	0.603305943	0.745157757	0.012303592	0.126933895	0.039122259
2020-06-29T18:25:00	0.2403	14.463	216.0	0.603114165	0.744876252	0.012296338	0.126859051	0.039099192
2020-06-29T18:30:00	0.2403	14.448	216.0	0.602922376	0.744594763	0.012289085	0.126784226	0.039076130
2020-06-29T18:35:00	0.2404	14.432	216.0	0.603397354	0.745291947	0.012307051	0.126969578	0.039133257
2020-06-29T18:40:00	0.2400	14.416	216.0	0.601871828	0.743053415	0.012249396	0.126374764	0.038949930
2020-06-29T18:45:00	0.2397	14.399	216.0	0.601012871	0.741793854	0.012216995	0.126040483	0.038846901
2020-06-29T18:50:00	0.2403	14.380	216.0	0.603155399	0.744936775	0.012297898	0.126875141	0.039104151
2020-06-29T18:55:00	0.2403	14.362	216.0	0.602963612	0.744655282	0.012290644	0.126800312	0.039081088
2020-06-29T19:00:00	0.2396	14.344	216.0	0.600770753	0.741438926	0.012207870	0.125946339	0.038817885
2020-06-29T19:05:00	0.2400	14.324	216.0	0.601913077	0.743113917	0.012250953	0.126390828	0.038954881
2020-06-29T19:10:00	0.2403	14.304	216.0	0.603055032	0.744789459	0.012294101	0.126835979	0.039092080
2020-06-29T19:15:00	0.2410	14.282	215.0	0.605196325	0.747934230	0.012375219	0.127672857	0.039350014
2020-06-29T19:20:00	0.2414	14.259	215.0	0.606670288	0.750101173	0.012431217	0.128250571	0.039528071
2020-06-29T19:25:00	0.2417	14.237	215.0	0.607810711	0.751779014	0.012474632	0.128698478	0.039666121
2020-06-29T19:30:00	0.2420	14.216	215.0	0.608617918	0.752967270	0.012505409	0.129015998	0.039763984
2020-06-29T19:35:00	0.2422	14.195	215.0	0.609424940	0.754155802	0.012536218	0.129333850	0.039861949
2020-06-29T19:40:00	0.2428	14.173	215.0	0.611229785	0.756815845	0.012605262	0.130046160	0.040081490
2020-06-29T19:45:00	0.2429	14.152	215.0	0.611703652	0.757514700	0.012623422	0.130233514	0.040139234
2020-06-29T19:50:00	0.2438	14.131	215.0	0.614836728	0.762140081	0.012743830	0.131475748	0.040522102
2020-06-29T19:55:00	0.2433	14.109	215.0	0.612983671	0.759403403	0.012672543	0.130740293	0.040295428
2020-06-29T20:00:00	0.2432	14.086	215.0	0.612792415	0.759121112	0.012665197	0.130664507	0.040272070
2020-06-29T20:05:00	0.2431	14.062	215.0	0.612268639	0.758348184	0.012645091	0.130457076	0.040208138
2020-06-29T20:10:00	0.2425	14.038	215.0	0.610414242	0.755613531	0.012574039	0.129724043	0.039982210
2020-06-29T20:15:00	0.2429	14.013	215.0	0.611553464	0.757293183	0.012617665	0.130174119	0.040120928
2020-06-29T20:20:00	0.2426	13.990	215.0	0.610696849	0.756030101	0.012584854	0.129835619	0.040016599
2020-06-29T20:25:00	0.2427	13.967	215.0	0.611170788	0.756728849	0.012603002	0.130022844	0.040074303
2020-06-29T20:30:00	0.2423	13.945	215.0	0.609648603	0.754485296	0.012544763	0.129422012	0.039889121
2020-06-29T20:35:00	0.2420	13.921	215.0	0.608791529	0.753222907	0.012512033	0.129084342	0.039785048
2020-06-29T20:40:00	0.2424	13.897	215.0	0.609931271	0.754901774	0.012555568	0.129533477	0.039923476
2020-06-29T20:45:00	0.2427	13.873	215.0	0.611070648	0.756581192	0.012599166	0.129983273	0.040062107
2020-06-29T20:50:00	0.2425	13.848	215.0	0.610213917	0.755318286	0.012566376	0.129644983	0.039957843
2020-06-29T20:55:00	0.2426	13.822	214.0	0.610687919	0.756016937	0.012584512	0.129832092	0.040015512
2020-06-29T21:00:00	0.2424	13.796	214.0	0.610163834	0.755244478	0.012564460	0.129625222	0.039951752
2020-06-29T21:05:00	0.2425	13.772	214.0	0.610305150	0.755452744	0.012569866	0.129680986	0.039968939
2020-06-29T21:10:00	0.2426	13.748	214.0	0.610779140	0.756151413	0.012588004	0.129868117	0.040026615
2020-06-29T21:15:00	0.2426	13.724	214.0	0.610587766	0.755869301	0.012580679	0.129792546	0.040003323
2020-06-29T21:20:00	0.2427	13.699	214.0	0.611061718	0.756568027	0.012598824	0.129979745	0.040061020
2020-06-29T21:25:00	0.2435	13.675	213.0	0.613530608	0.760210844	0.012693562	0.130957144	0.040362264
2020-06-29T21:30:00	0.2433	13.651	214.0	0.613006941	0.759437752	0.012673437	0.130749516	0.040298271
2020-06-29T21:35:00	0.2438	13.627	213.0	0.614809969	0.762100541	0.012742799	0.131465112	0.040518824
2020-06-29T21:40:00	0.2436	13.603	213.0	0.613954139	0.760836274	0.012709851	0.131125194	0.040414058
2020-06-29T21:45:00	0.2441	13.581	213.0	0.615756686	0.763499790	0.012779298	0.131841659	0.040634880
2020-06-29T21:50:00	0.2442	13.558	213.0	0.615897780	0.763708392	0.012784742	0.131897825	0.040652191
2020-06-29T21:55:00	0.2434	13.534	214.0	0.613380497	0.759989210	0.012687792	0.130897609	0.040343914
2020-06-29T22:00:00	0.2440	13.512	212.0	0.615183334	0.762652286	0.012757187	0.131613548	0.040564574
2020-06-29T22:05:00	0.2440	13.489	212.0	0.615186307	0.762656680	0.012757302	0.131614730	0.040564938
2020-06-29T22:10:00	0.2441	13.468	213.0	0.615521516	0.763152139	0.012770226	0.131748071	0.040606035
2020-06-29T22:15:00	0.2443	13.446	212.0	0.616188868	0.764138806	0.012795977	0.132013739	0.040687917
2020-06-29T22:20:00	0.2442	13.427	212.0	0.615859666	0.763652041	0.012783271	0.131882652	0.040647514
2020-06-29T22:25:00	0.2445	13.406	212.0	0.616859066	0.765130058	0.012821865	0.132280819	0.040770233
2020-06-29T22:30:00	0.2437	13.385	212.0	0.614204280	0.761205730	0.012719477	0.131224498	0.040444665
2020-06-29T22:35:00	0.2435	13.365	212.0	0.613542505	0.760228411	0.012694020	0.130961863	0.040363718
2020-06-29T22:40:00	0.2431	13.345	212.0	0.612215610	0.758269942	0.012643057	0.130436084	0.040201668
2020-06-29T22:45:00	0.2429	13.325	212.0	0.611553464	0.757293183	0.012617665	0.130174119	0.040120928
2020-06-29T22:50:00	0.2429	13.304	212.0	0.611556440	0.757297572	0.012617779	0.130175295	0.040121290
2020-06-29T22:55:00	0.2424	13.285	211.0	0.609896071	0.754849907	0.012554222	0.129519594	0.039919197
2020-06-29T23:00:00	0.2411	13.266	211.0	0.605570703	0.748484449	0.012389430	0.127819466	0.039395201
2020-06-29T23:05:00	0.2412	13.247	211.0	0.605906821	0.748978537	0.012402196	0.127951165	0.039435792
2020-06-29T23:10:00	0.2407	13.228	211.0	0.604243805	0.746534855	0.012339101	0.127300235	0.039235169
2020-06-29T23:15:00	0.2404	13.210	211.0	0.603246814	0.745070959	0.012301355	0.126910817	0.039115146
2020-06-29T23:20:00	0.2396	13.192	211.0	0.600581822	0.741162002	0.012200751	0.125872903	0.038795251
2020-06-29T23:25:00	0.2387	13.174	211.0	0.597580932	0.736767468	0.012087975	0.124709415	0.038436653
2020-06-29T23:30:00	0.2380	13.157	211.0	0.595245807	0.733353095	0.012000592	0.123807895	0.038158795
2020-06-29T23:35:00	0.2378	13.140	211.0	0.594580481	0.732381102	0.011975754	0.123551647	0.038079818
2020-06-29T23:40:00	0.2382	13.122	211.0	0.595919976	0.734338383	0.012025787	0.124067825	0.038238909
2020-06-29T23:45:00	0.2385	13.105	211.0	0.596925010	0.735807932	0.012063397	0.124455844	0.038358500
2020-06-29T23:50:00	0.2377	13.087	211.0	0.594255247	0.731906093	0.011963622	0.123426484	0.038041241
2020-06-29T23:55:00	0.2378	13.072	211.0	0.594592442	0.732398573	0.011976200	0.123556252	0.038081237
2020-06-30T00:00:00	0.2369	13.055	210.0	0.591586457	0.728011621	0.011864309	0.122401885	0.037725450
2020-06-30T00:05:00	0.2365	13.038	211.0	0.590251304	0.726065508	0.011814783	0.121890939	0.037567971
2020-06-30T00:10:00	0.2361	13.023	210.0	0.588915644	0.724120145	0.011765345	0.121380895	0.037410771
2020-06-30T00:15:00	0.2359	13.007	210.0	0.588249123	0.723149923	0.011740714	0.121126783	0.037332451
2020-06-30T00:20:00	0.2348	12.992	210.0	0.584567502	0.717797440	0.011605138	0.119728074	0.036901355
2020-06-30T00:25:00	0.2351	12.978	211.0	0.585575778	0.719262190	0.011642188	0.120110308	0.037019163
2020-06-30T00:30:00	0.2349	12.967	210.0	0.584908624	0.718292902	0.011617666	0.119857322	0.036941191
2020-06-30T00:35:00	0.2338	12.957	210.0	0.581223503	0.712945573	0.011482694	0.118464839	0.036512014
2020-06-30T00:40:00	0.2334	12.950	210.0	0.579884411	0.711005266	0.011433848	0.117960902	0.036356696
2020-06-30T00:45:00	0.2337	12.944	210.0	0.580894031	0.712468039	0.011470666	0.118340748	0.036473768
2020-06-30T00:50:00	0.2331	12.938	210.0	0.578883511	0.709555962	0.011397408	0.117584953	0.036240825
2020-06-30T00:55:00	0.2330	12.933	210.0	0.578550816	0.709074402	0.011385308	0.117460125	0.036202351
2020-06-30T01:00:00	0.2322	12.925	210.0	0.575867073	0.705193181	0.011287946	0.116455655	0.035892764
2020-06-30T01:05:00	0.2327	12.916	210.0	0.577549536	0.707625655	0.011348933	0.117084851	0.036086688
2020-06-30T01:10:00	0.2322	12.906	210.0	0.575873086	0.705201870	0.011288163	0.116457900	0.035893456
2020-06-30T01:15:00	0.2323	12.895	210.0	0.576212047	0.705691747	0.011300437	0.116584525	0.035932483
2020-06-30T01:20:00	0.2321	12.885	210.0	0.575543111	0.704725072	0.011276222	0.116334700	0.035855484
2020-06-30T01:25:00	0.2318	12.874	210.0	0.574537965	0.703273238	0.011239886	0.115959827	0.035739945
2020-06-30T01:30:00	0.2311	12.863	210.0	0.572187488	0.699881475	0.011155149	0.115085616	0.035470505
2020-06-30T01:35:00	0.2313	12.853	210.0	0.572863082	0.700855897	0.011179471	0.115336544	0.035547843
2020-06-30T01:40:00	0.2317	12.844	210.0	0.574210872	0.702800966	0.011228074	0.115837969	0.035702387
2020-06-30T01:45:00	0.2316	12.835	210.0	0.573877733	0.702320055	0.011216051	0.115713927	0.035664156
2020-06-30T01:50:00	0.2312	12.825	210.0	0.572535833	0.700383852	0.011167687	0.115214963	0.035510371
2020-06-30T01:55:00	0.2306	12.817	210.0	0.570520513	0.697478784	0.011095252	0.114467665	0.035280046
2020-06-30T02:00:00	0.2309	12.808	210.0	0.571532833	0.698937615	0.011131606	0.114842732	0.035395645
2020-06-30T02:05:00	0.2306	12.800	210.0	0.570526534	0.697487459	0.011095468	0.114469894	0.035280733
2020-06-30T02:10:00	0.2302	12.791	210.0	0.569183348	0.695553126	0.011047324	0.113973200	0.035127647
2020-06-30T02:15:00	0.2298	12.783	209.0	0.567839647	0.693619542	0.010999268	0.113477417	0.034974842
2020-06-30T02:20:00	0.2297	12.772	209.0	0.567505901	0.693139514	0.010987348	0.113354446	0.034936941
2020-06-30T02:25:00	0.2298	12.762	209.0	0.567845673	0.693628211	0.010999483	0.113479638	0.034975526
2020-06-30T02:30:00	0.2299	12.752	209.0	0.568185412	0.694116955	0.011011623	0.113604888	0.035014130
2020-06-30T02:35:00	0.2301	12.742	209.0	0.568861780	0.695090253	0.011035813	0.113854451	0.035091048
2020-06-30T02:40:00	0.2302	12.732	209.0	0.569201420	0.695579141	0.011047971	0.113979876	0.035129705
2020-06-30T02:45:00	0.2304	12.722	209.0	0.569877591	0.696552724	0.011072194	0.114229785	0.035206729
2020-06-30T02:50:00	0.2296	12.711	209.0	0.567187191	0.692681198	0.010975972	0.113237078	0.034900767
2020-06-30T02:55:00	0.2302	12.700	209.0	0.569210456	0.695592149	0.011048294	0.113983213	0.035130733
2020-06-30T03:00:00	0.2304	12.690	209.0	0.569886625	0.696565734	0.011072518	0.114233126	0.035207759
2020-06-30T03:05:00	0.2311	12.680	209.0	0.572244665	0.699963929	0.011157206	0.115106842	0.035477047
2020-06-30T03:10:00	0.2308	12.670	208.0	0.571238571	0.698513475	0.011121033	0.114733643	0.035362023
2020-06-30T03:15:00	0.2311	12.661	209.0	0.572250684	0.699972608	0.011157423	0.115109077	0.035477735
2020-06-30T03:20:00	0.2313	12.652	209.0	0.572926266	0.700947047	0.011181747	0.115360026	0.035555080
2020-06-30T03:25:00	0.2313	12.643	208.0	0.572929275	0.700951388	0.011181856	0.115361144	0.035555425
2020-06-30T03:30:00	0.2310	12.634	208.0	0.571923378	0.699500647	0.011145648	0.114987597	0.035440294
2020-06-30T03:35:00	0.2307	12.625	208.0	0.570917191	0.698050328	0.011109490	0.114614561	0.035325321
2020-06-30T03:40:00	0.2312	12.616	208.0	0.572602032	0.700479334	0.011170070	0.115239552	0.035517949
2020-06-30T03:45:00	0.2308	12.607	209.0	0.571259643	0.698543844	0.011121790	0.114741453	0.035364430
2020-06-30T03:50:00	0.2306	12.600	209.0	0.570589760	0.697578548	0.011097736	0.114493301	0.035287947
2020-06-30T03:55:00	0.2307	12.592	208.0	0.570929233	0.698067680	0.011109922	0.114619022	0.035326696
2020-06-30T04:00:00	0.2298	12.585	208.0	0.567902921	0.693710561	0.011001528	0.113500738	0.034982030
2020-06-30T04:05:00	0.2309	12.578	209.0	0.571408547	0.698758465	0.011127140	0.114796650	0.035381442
2020-06-30T04:10:00	0.2315	12.572	208.0	0.573566153	0.701870349	0.011204811	0.115597973	0.035628418
2020-06-30T04:15:00	0.2324	12.566	208.0	0.576730243	0.706440843	0.011319214	0.116778241	0.035992188
2020-06-30T04:20:00	0.2325	12.560	208.0	0.576869899	0.706642766	0.011324277	0.116830477	0.036008288
2020-06-30T04:25:00	0.2335	12.555	209.0	0.580366569	0.711703728	0.011451423	0.118142225	0.036412581
2020-06-30T04:30:00	0.2329	12.549	208.0	0.578156598	0.708503911	0.011370980	0.117312301	0.036156791
2020-06-30T04:35:00	0.2332	12.544	208.0	0.579303271	0.710163673	0.011412683	0.117742545	0.036289396
2020-06-30T04:40:00	0.2335	12.538	208.0	0.580449569	0.711823983	0.011454450	0.118173453	0.036422206
2020-06-30T04:45:00	0.2336	12.533	209.0	0.580589078	0.712026123	0.011459539	0.118225950	0.036438386
2020-06-30T04:50:00	0.2338	12.528	208.0	0.581399530	0.713200743	0.011489123	0.118531164	0.036532456
2020-06-30T04:55:00	0.2341	12.525	208.0	0.582209796	0.714375637	0.011518739	0.118836710	0.036626628
2020-06-30T05:00:00	0.2348	12.522	208.0	0.584695915	0.717983943	0.011609854	0.119776720	0.036916348
2020-06-30T05:05:00	0.2352	12.522	209.0	0.585840457	0.719646836	0.011651924	0.120210750	0.037050120
2020-06-30T05:10:00	0.2356	12.522	208.0	0.587319520	0.721797367	0.011706405	0.120772826	0.037223358
2020-06-30T05:15:00	0.2356	12.526	209.0	0.587458756	0.721999907	0.011711541	0.120825808	0.037239687
2020-06-30T05:20:00	0.2357	12.530	208.0	0.587597987	0.722202456	0.011716677	0.120878800	0.037256020
2020-06-30T05:25:00	0.2366	12.537	209.0	0.590749473	0.726791464	0.011833250	0.122081454	0.037626690
2020-06-30T05:30:00	0.2364	12.550	209.0	0.589884812	0.725531573	0.011801207	0.121750879	0.037524803
2020-06-30T05:35:00	0.2366	12.562	208.0	0.590693127	0.726709343	0.011831160	0.122059898	0.037620046
2020-06-30T05:40:00	0.2367	12.576	208.0	0.591166758	0.727399711	0.011848729	0.122241154	0.037675911
2020-06-30T05:45:00	0.2377	12.588	208.0	0.594315057	0.731993440	0.011965853	0.123449497	0.038048334
2020-06-30T05:50:00	0.2383	12.596	208.0	0.596458658	0.735125932	0.012045938	0.124275720	0.038302984
2020-06-30T05:55:00	0.2387	12.605	208.0	0.597599387	0.736794471	0.012088667	0.124716553	0.038438853
2020-06-30T06:00:00	0.2385	12.618	209.0	0.597070373	0.736020550	0.012068842	0.124512017	0.038375813
2020-06-30T06:05:00	0.2395	12.633	209.0	0.600213416	0.740622099	0.012186877	0.125729767	0.038751135
2020-06-30T06:10:00	0.2405	12.649	209.0	0.603687015	0.745717210	0.012318014	0.127082681	0.039168116
2020-06-30T06:15:00	0.2405	12.660	209.0	0.603825607	0.745920708	0.012323261	0.127136815	0.039184801
2020-06-30T06:20:00	0.2415	12.678	209.0	0.606962661	0.750531221	0.012442340	0.128365325	0.039563440
2020-06-30T06:25:00	0.2425	12.688	209.0	0.610429654	0.755636247	0.012574629	0.129730127	0.039984085
2020-06-30T06:30:00	0.2425	12.704	209.0	0.610235284	0.755349776	0.012567193	0.129653415	0.039960442
2020-06-30T06:35:00	0.2426	12.711	210.0	0.610706307	0.756044043	0.012585216	0.129839354	0.040017750
2020-06-30T06:40:00	0.2429	12.727	209.0	0.611842459	0.757719447	0.012628744	0.130288421	0.040156157
2020-06-30T06:45:00	0.2438	12.736	209.0	0.614640151	0.761849631	0.012736258	0.131397628	0.040498025
2020-06-30T06:50:00	0.2440	12.735	209.0	0.615442835	0.763035834	0.012767192	0.131716766	0.040596387
2020-06-30T06:55:00	0.2449	12.754	209.0	0.618237698	0.767170305	0.012875203	0.132831095	0.040939833
2020-06-30T07:00:00	0.2462	12.779	209.0	0.622688520	0.773768039	0.013048182	0.134615687	0.041489862
2020-06-30T07:05:00	0.2448	12.789	209.0	0.617849799	0.766596089	0.012860184	0.132676147	0.040892077
2020-06-30T07:10:00	0.2454	12.818	209.0	0.619979226	0.769749893	0.012942744	0.133527907	0.041154598
2020-06-30T07:15:00	0.2458	12.855	210.0	0.621444106	0.771921684	0.012999698	0.134115488	0.041335696
2020-06-30T07:20:00	0.2464	12.872	210.0	0.623239902	0.774586550	0.013069694	0.134837626	0.041558266
2020-06-30T07:25:00	0.2458	12.889	210.0	0.621388245	0.771838833	0.012997524	0.134093057	0.041328783
2020-06-30T07:30:00	0.2465	12.904	210.0	0.623515560	0.774995854	0.013080456	0.134948653	0.041592486
2020-06-30T07:35:00	0.2456	12.941	210.0	0.620668964	0.770772254	0.012969545	0.133804403	0.041239816
2020-06-30T07:40:00	0.2447	12.956	210.0	0.617820092	0.766552118	0.012859034	0.132664284	0.040888421
2020-06-30T07:45:00	0.2457	12.924	210.0	0.620944821	0.771181255	0.012980272	0.133915069	0.041273925
2020-06-30T07:50:00	0.2457	12.955	210.0	0.621082742	0.771385767	0.012985636	0.133970417	0.041290984
2020-06-30T07:55:00	0.2455	12.957	210.0	0.620225450	0.770114812	0.012952308	0.133626577	0.041185009
2020-06-30T08:00:00	0.2454	12.955	210.0	0.620031614	0.769827531	0.012944779	0.133548897	0.041161067
2020-06-30T08:05:00	0.2451	12.974	211.0	0.618842174	0.768065378	0.012898625	0.133072741	0.041014311
2020-06-30T08:10:00	0.2454	12.991	210.0	0.619975731	0.769744714	0.012942609	0.133526507	0.041154166
2020-06-30T08:15:00	0.2441	13.041	211.0	0.615797773	0.763560534	0.012780883	0.131858013	0.040639920
2020-06-30T08:20:00	0.2446	13.070	210.0	0.617264373	0.765729709	0.012837534	0.132442474	0.040820057
2020-06-30T08:25:00	0.2441	13.094	211.0	0.615741824	0.763477818	0.012778724	0.131835743	0.040633056
2020-06-30T08:30:00	0.2440	13.127	211.0	0.615215510	0.762699839	0.012758427	0.131626344	0.040568517
2020-06-30T08:35:00	0.2447	13.163	211.0	0.617678547	0.766342621	0.012853556	0.132607770	0.040871003
2020-06-30T08:40:00	0.2430	13.208	211.0	0.612168003	0.758199703	0.012641230	0.130417240	0.040195860
2020-06-30T08:45:00	0.2440	13.242	211.0	0.615297696	0.762821309	0.012761596	0.131659031	0.040578592
2020-06-30T08:50:00	0.2437	13.266	211.0	0.614439010	0.761552470	0.012728513	0.131317719	0.040473396
2020-06-30T08:55:00	0.2432	13.295	212.0	0.612582771	0.758811715	0.012657148	0.130581461	0.040246475
2020-06-30T09:00:00	0.2433	13.337	212.0	0.613053483	0.759506452	0.012675225	0.130767962	0.040303956
2020-06-30T09:05:00	0.2433	13.365	212.0	0.612859256	0.759219764	0.012667764	0.130690991	0.040280233
2020-06-30T09:10:00	0.2445	13.422	212.0	0.616984733	0.765315967	0.012826722	0.132330930	0.040785678
2020-06-30T09:15:00	0.2432	13.469	212.0	0.612803260	0.759137118	0.012665614	0.130668804	0.040273395
2020-06-30T09:20:00	0.2427	13.501	212.0	0.610946166	0.756397655	0.012594399	0.129934092	0.040046949
2020-06-30T09:25:00	0.2428	13.519	213.0	0.611417094	0.757092064	0.012612438	0.130120201	0.040104310
2020-06-30T09:30:00	0.2417	13.561	213.0	0.607562042	0.751413068	0.012465159	0.128600743	0.039635998
2020-06-30T09:35:00	0.2414	13.589	214.0	0.606701484	0.750147055	0.012432403	0.128262813	0.039531845
2020-06-30T09:40:00	0.2412	13.625	213.0	0.606173828	0.749371101	0.012412341	0.128055836	0.039468052
2020-06-30T09:45:00	0.2405	13.661	214.0	0.603646656	0.745657952	0.012316486	0.127066919	0.039163258
2020-06-30T09:50:00	0.2390	13.682	214.0	0.598781904	0.738525279	0.012133044	0.125174382	0.038579960
2020-06-30T09:55:00	0.2394	13.711	214.0	0.599921884	0.740194936	0.012175904	0.125616559	0.038716243
2020-06-30T10:00:00	0.2393	13.743	214.0	0.599726936	0.739909331	0.012168569	0.125540885	0.038692920
2020-06-30T10:05:00	0.2385	13.771	214.0	0.597147875	0.736133917	0.012071745	0.124541971	0.038385045
2020-06-30T10:10:00	0.2386	13.803	214.0	0.597239446	0.736267869	0.012075176	0.124577367	0.038395955
2020-06-30T10:15:00	0.2388	13.836	215.0	0.597998809	0.737378961	0.012103647	0.124871099	0.038486485
2020-06-30T10:20:00	0.2378	13.870	215.0	0.594750203	0.732629017	0.011982088	0.123616989	0.038099956
2020-06-30T10:25:00	0.2378	13.902	215.0	0.594841835	0.732762877	0.011985508	0.123652274	0.038110832
2020-06-30T10:30:00	0.2374	13.925	215.0	0.593262289	0.730456410	0.011926622	0.123044757	0.037923589
2020-06-30T10:35:00	0.2357	13.946	215.0	0.587666178	0.722301664	0.011719193	0.120904758	0.037264021
2020-06-30T10:40:00	0.2354	13.974	215.0	0.586753341	0.720973937	0.011685535	0.120557507	0.037156994
2020-06-30T10:45:00	0.2353	14.006	215.0	0.586175270	0.720133489	0.011664245	0.120337869	0.037089300
2020-06-30T10:50:00	0.2348	14.036	215.0	0.584591834	0.717832778	0.011606032	0.119737291	0.036904196
2020-06-30T10:55:00	0.2334	14.066	216.0	0.579988784	0.711156446	0.011437651	0.118000141	0.036368789
2020-06-30T11:00:00	0.2351	14.092	216.0	0.585780844	0.719560198	0.011649731	0.120188124	0.037043147
2020-06-30T11:05:00	0.2348	14.114	216.0	0.584532390	0.717746447	0.011603849	0.119714774	0.036897256
2020-06-30T11:10:00	0.2340	14.134	216.0	0.581942184	0.713987537	0.011508953	0.118735751	0.036595512
2020-06-30T11:15:00	0.2329	14.165	216.0	0.578343008	0.708773658	0.011377754	0.117382190	0.036178331
2020-06-30T11:20:00	0.2336	14.196	216.0	0.580784365	0.712309110	0.011466664	0.118299458	0.036461042
2020-06-30T11:25:00	0.2321	14.231	216.0	0.575504369	0.704669098	0.011274820	0.116320240	0.035851028
2020-06-30T11:30:00	0.2309	14.269	216.0	0.571562208	0.698979960	0.011132662	0.114853625	0.035399003
2020-06-30T11:35:00	0.2307	14.313	217.0	0.570981630	0.698143184	0.011111804	0.114638432	0.035332678
2020-06-30T11:40:00	0.2311	14.354	217.0	0.572083035	0.699730854	0.011151391	0.115046846	0.035458555
2020-06-30T11:45:00	0.2307	14.398	217.0	0.570829696	0.697924252	0.011106349	0.114582152	0.035315332
2020-06-30T11:50:00	0.2294	14.445	218.0	0.566545411	0.691758551	0.010953082	0.113000925	0.034827983
2020-06-30T11:55:00	0.2296	14.504	218.0	0.567311436	0.692859856	0.010980406	0.113282825	0.034914867
2020-06-30T12:00:00	0.2292	14.543	218.0	0.565719455	0.690571624	0.010923658	0.112697371	0.034734424
2020-06-30T12:05:00	0.2291	14.588	218.0	0.565474893	0.690220289	0.010914954	0.112607569	0.034706747
2020-06-30T12:10:00	0.2284	14.639	218.0	0.563207759	0.686965694	0.010834431	0.111776828	0.034450704
2020-06-30T12:15:00	0.2291	14.694	219.0	0.565322720	0.690001704	0.010909540	0.112551711	0.034689530
2020-06-30T12:20:00	0.2275	14.749	219.0	0.560019322	0.682395691	0.010721699	0.110613787	0.034092244
2020-06-30T12:25:00	0.2263	14.805	220.0	0.556059636	0.676731905	0.010582531	0.109178019	0.033649726
2020-06-30T12:30:00	0.2261	14.865	220.0	0.555476473	0.675898860	0.010562113	0.108967371	0.033584802
2020-06-30T12:35:00	0.2250	14.923	220.0	0.551511611	0.670242490	0.010423823	0.107540663	0.033145077
2020-06-30T12:40:00	0.2235	14.979	220.0	0.546525936	0.663148116	0.010251239	0.105760145	0.032596304
2020-06-30T12:45:00	0.2230	15.022	220.0	0.544924417	0.660873556	0.010196110	0.105191391	0.032421008
2020-06-30T12:50:00	0.2240	15.071	220.0	0.548405292	0.665819955	0.010316124	0.106429546	0.032802620
2020-06-30T12:55:00	0.2245	15.113	220.0	0.549852355	0.667879186	0.010366224	0.106946427	0.032961928
2020-06-30T13:00:00	0.2241	15.158	221.0	0.548590997	0.666084125	0.010322546	0.106495808	0.032823042
2020-06-30T13:05:00	0.2244	15.212	221.0	0.549699498	0.667661583	0.010360926	0.106891768	0.032945081
2020-06-30T13:10:00	0.2239	15.255	221.0	0.547760770	0.664903326	0.010293848	0.106199735	0.032731790
2020-06-30T13:15:00	0.2246	15.301	222.0	0.550223600	0.668407760	0.010379098	0.107079238	0.033002861
2020-06-30T13:20:00	0.2247	15.341	222.0	0.550654830	0.669021882	0.010394061	0.107233612	0.033050441
2020-06-30T13:25:00	0.2241	15.365	222.0	0.548716635	0.666262865	0.010326893	0.106540649	0.032836863
2020-06-30T13:30:00	0.2240	15.398	222.0	0.548132239	0.665431582	0.010306684	0.106332156	0.032772603
2020-06-30T13:35:00	0.2241	15.424	223.0	0.548563728	0.666045333	0.010321603	0.106486077	0.032820043
2020-06-30T13:40:00	0.2237	15.440	223.0	0.547301902	0.664250939	0.010278004	0.106036275	0.032681410
2020-06-30T13:45:00	0.2233	15.434	223.0	0.546039617	0.662457198	0.010234483	0.105587272	0.032543023
2020-06-30T13:50:00	0.2236	15.406	223.0	0.546810166	0.663552014	0.010261039	0.105861247	0.032627464
2020-06-30T13:55:00	0.2229	15.387	222.0	0.544530833	0.660314889	0.010182585	0.105051853	0.032378001
2020-06-30T14:00:00	0.2234	15.382	222.0	0.546318361	0.662853188	0.010244085	0.105686340	0.032573556
2020-06-30T14:05:00	0.2241	15.380	222.0	0.548443607	0.665874457	0.010317449	0.106443216	0.032806833
2020-06-30T14:10:00	0.2235	15.377	222.0	0.546504177	0.663117199	0.010250489	0.105752407	0.032593919
2020-06-30T14:15:00	0.2226	15.367	223.0	0.543546505	0.658918254	0.010148799	0.104703289	0.032270570
2020-06-30T14:20:00	0.2226	15.348	222.0	0.543639489	0.659050152	0.010151988	0.104736191	0.032280711
2020-06-30T14:25:00	0.2226	15.330	222.0	0.543393370	0.658701046	0.010143548	0.104649114	0.032253873
2020-06-30T14:30:00	0.2219	15.314	222.0	0.541111788	0.655467108	0.010065473	0.103843634	0.032005617
2020-06-30T14:35:00	0.2225	15.292	222.0	0.543240228	0.658483848	0.010138298	0.104594951	0.032237180
2020-06-30T14:40:00	0.2215	15.269	222.0	0.539940328	0.653808323	0.010025505	0.103431288	0.031878528
2020-06-30T14:45:00	0.2217	15.250	222.0	0.540372839	0.654420627	0.010040252	0.103583433	0.031925420
2020-06-30T14:50:00	0.2218	15.237	222.0	0.540805295	0.655033007	0.010055009	0.103735671	0.031972341
2020-06-30T14:55:00	0.2217	15.225	222.0	0.540558975	0.654684186	0.010046602	0.103648945	0.031945611
2020-06-30T15:00:00	0.2205	15.215	221.0	0.536237209	0.648572084	0.009899688	0.102133260	0.031478463
2020-06-30T15:05:00	0.2203	15.205	221.0	0.535650702	0.647743786	0.009879835	0.101928434	0.031415333
2020-06-30T15:10:00	0.2204	15.200	221.0	0.536083750	0.648355333	0.009894492	0.102079647	0.031461939
2020-06-30T15:15:00	0.2198	15.201	221.0	0.534137381	0.645607884	0.009828701	0.101400894	0.031252740
2020-06-30T15:20:00	0.2197	15.198	221.0	0.533550518	0.644780087	0.009808907	0.101196687	0.031189802
2020-06-30T15:25:00	0.2202	15.189	221.0	0.535343725	0.647310367	0.009869451	0.101821311	0.031382317
2020-06-30T15:30:00	0.2196	15.182	221.0	0.533396940	0.644563504	0.009803731	0.101143281	0.031173341
2020-06-30T15:35:00	0.2200	15.174	221.0	0.534850288	0.646613847	0.009852773	0.101649240	0.031329283
2020-06-30T15:40:00	0.2198	15.168	221.0	0.533923515	0.645306184	0.009821485	0.101326453	0.031229797
2020-06-30T15:45:00	0.2197	15.162	221.0	0.533676704	0.644958054	0.009813161	0.101240577	0.031203329
2020-06-30T15:50:00	0.2201	15.152	221.0	0.535129934	0.647008562	0.009862223	0.101746740	0.031359333
2020-06-30T15:55:00	0.2190	15.137	221.0	0.531141705	0.641385289	0.009727873	0.100360675	0.030932135
2020-06-30T16:00:00	0.2194	15.117	221.0	0.532596003	0.643434300	0.009776756	0.100864991	0.031087570
2020-06-30T16:05:00	0.2186	15.100	220.0	0.529924753	0.639672005	0.009687063	0.099939643	0.030802369
2020-06-30T16:10:00	0.2182	15.085	221.0	0.528613984	0.637827991	0.009643203	0.099487149	0.030662905
2020-06-30T16:15:00	0.2180	15.067	221.0	0.527984050	0.636942285	0.009622160	0.099270055	0.030595995
2020-06-30T16:20:00	0.2184	15.051	221.0	0.529397566	0.638930182	0.009669411	0.099757527	0.030746239
2020-06-30T16:25:00	0.2178	15.034	221.0	0.527064577	0.635650058	0.009591487	0.098953605	0.030498462
2020-06-30T16:30:00	0.2189	15.017	221.0	0.530861735	0.640991028	0.009718477	0.100263735	0.030902257
2020-06-30T16:35:00	0.2195	15.003	221.0	0.532954425	0.643939558	0.009788823	0.100989479	0.031125938
2020-06-30T16:40:00	0.2196	14.989	220.0	0.533345745	0.644491312	0.009802005	0.101125482	0.031167856
2020-06-30T16:45:00	0.2196	14.970	220.0	0.533396940	0.644563504	0.009803731	0.101143281	0.031173341
2020-06-30T16:50:00	0.2202	14.952	220.0	0.535488093	0.647514190	0.009874334	0.101871683	0.031397842
2020-06-30T16:55:00	0.2195	14.937	220.0	0.533159221	0.644228301	0.009795721	0.101060644	0.031147872
2020-06-30T17:00:00	0.2195	14.920	220.0	0.532870284	0.643820938	0.009785989	0.100960248	0.031116929
2020-06-30T17:05:00	0.2205	14.902	220.0	0.536321267	0.648690819	0.009902535	0.102162633	0.031487516
2020-06-30T17:10:00	0.2205	14.883	220.0	0.536372418	0.648763073	0.009904268	0.102180508	0.031493025
2020-06-30T17:15:00	0.2205	14.863	220.0	0.536423567	0.648835329	0.009906001	0.102198385	0.031498535
2020-06-30T17:20:00	0.2202	14.845	220.0	0.535455178	0.647467718	0.009873221	0.101860197	0.031394302
2020-06-30T17:25:00	0.2203	14.831	220.0	0.535846215	0.648019869	0.009886451	0.101996690	0.031436371
2020-06-30T17:30:00	0.2200	14.816	220.0	0.534537694	0.646172704	0.009842214	0.101540308	0.031295709
2020-06-30T17:35:00	0.2193	14.801	220.0	0.532208180	0.642887715	0.009763708	0.100730379	0.031046081
2020-06-30T17:40:00	0.2191	14.787	220.0	0.531578903	0.642001091	0.009742556	0.100512151	0.030978821
2020-06-30T17:45:00	0.2181	14.771	219.0	0.528225714	0.637282033	0.009630230	0.099353311	0.030621655
2020-06-30T17:50:00	0.2180	14.756	219.0	0.527936363	0.636875249	0.009620568	0.099253630	0.030590933
2020-06-30T17:55:00	0.2181	14.742	219.0	0.528328254	0.637426206	0.009633656	0.099388648	0.030632547
2020-06-30T18:00:00	0.2179	14.727	219.0	0.527698267	0.636540573	0.009612622	0.099171644	0.030565664
2020-06-30T18:05:00	0.2177	14.711	219.0	0.526727425	0.635176398	0.009580252	0.098837697	0.030462738
2020-06-30T18:10:00	0.2178	14.693	219.0	0.527119453	0.635727162	0.009593316	0.098972478	0.030504279
2020-06-30T18:15:00	0.2179	14.675	219.0	0.527511437	0.636277989	0.009606388	0.099107335	0.030545843
2020-06-30T18:20:00	0.2179	14.655	219.0	0.527562718	0.636350060	0.009608099	0.099124985	0.030551283
2020-06-30T18:25:00	0.2178	14.635	219.0	0.527273311	0.635943354	0.009598446	0.099025400	0.030520590
2020-06-30T18:30:00	0.2182	14.615	219.0	0.528687120	0.637930843	0.009645648	0.099512369	0.030670679
2020-06-30T18:35:00	0.2187	14.597	219.0	0.530100348	0.639919142	0.009692946	0.100000339	0.030821076
2020-06-30T18:40:00	0.2190	14.579	219.0	0.531172696	0.641428935	0.009728914	0.100371409	0.030935443
2020-06-30T18:45:00	0.2196	14.560	219.0	0.533265197	0.644377730	0.009799291	0.101097480	0.031159225
2020-06-30T18:50:00	0.2196	14.541	218.0	0.533316392	0.644449920	0.009801016	0.101115277	0.031164710
2020-06-30T18:55:00	0.2202	14.523	218.0	0.535407594	0.647400537	0.009871611	0.101843594	0.031389185
2020-06-30T19:00:00	0.2206	14.505	218.0	0.536818074	0.649392691	0.009919371	0.102336320	0.031541048
2020-06-30T19:05:00	0.2213	14.486	218.0	0.539246699	0.652826674	0.010001877	0.103187526	0.031803398
2020-06-30T19:10:00	0.2214	14.465	218.0	0.539297806	0.652898989	0.010003617	0.103205477	0.031808930
2020-06-30T19:15:00	0.2220	14.445	218.0	0.541385394	0.655854696	0.010074820	0.103940061	0.032035336
2020-06-30T19:20:00	0.2217	14.425	218.0	0.540418393	0.654485127	0.010041806	0.103599464	0.031930361
2020-06-30T19:25:00	0.2220	14.405	218.0	0.541487544	0.655999416	0.010078311	0.103976073	0.032046436
2020-06-30T19:30:00	0.2225	14.384	218.0	0.543234697	0.658476003	0.010138108	0.104592995	0.032236577
2020-06-30T19:35:00	0.2230	14.362	218.0	0.544980969	0.660953837	0.010198054	0.105211448	0.032427190
2020-06-30T19:40:00	0.2232	14.340	217.0	0.545709839	0.661988790	0.010223128	0.105470127	0.032506918
2020-06-30T19:45:00	0.2241	14.318	217.0	0.548470876	0.665913248	0.010318392	0.106452945	0.032809832
2020-06-30T19:50:00	0.2242	14.298	217.0	0.548860447	0.666467475	0.010331869	0.106591988	0.032852686
2020-06-30T19:55:00	0.2252	14.276	217.0	0.552295543	0.671359844	0.010451093	0.107821996	0.033231786
2020-06-30T20:00:00	0.2249	14.255	217.0	0.551331580	0.669985960	0.010417566	0.107476107	0.033125180
2020-06-30T20:05:00	0.2250	14.233	217.0	0.551720830	0.670540645	0.010431097	0.107615710	0.033168207
2020-06-30T20:10:00	0.2249	14.211	217.0	0.551433438	0.670131096	0.010421106	0.107512629	0.033136436
2020-06-30T20:15:00	0.2249	14.189	217.0	0.551146022	0.669721582	0.010411118	0.107409590	0.033104679
2020-06-30T20:20:00	0.2249	14.166	216.0	0.551196953	0.669794145	0.010412888	0.107427845	0.033110305
2020-06-30T20:25:00	0.2252	14.143	216.0	0.552262787	0.671313146	0.010449952	0.107810233	0.033228161
2020-06-30T20:30:00	0.2250	14.122	216.0	0.551637144	0.670421381	0.010428188	0.107585688	0.033158954
2020-06-30T20:35:00	0.2251	14.100	216.0	0.552026359	0.670976114	0.010441725	0.107725351	0.033201999
2020-06-30T20:40:00	0.2244	14.078	216.0	0.549708584	0.667674517	0.010361241	0.106895017	0.032946082
2020-06-30T20:45:00	0.2244	14.056	216.0	0.549759537	0.667747051	0.010363007	0.106913235	0.032951697
2020-06-30T20:50:00	0.2234	14.033	216.0	0.546085097	0.662521804	0.010236049	0.105603433	0.032548004
2020-06-30T20:55:00	0.2238	14.011	216.0	0.547491234	0.664520098	0.010284540	0.106103704	0.032702192
2020-06-30T21:00:00	0.2238	13.988	216.0	0.547542220	0.664592585	0.010286301	0.106121866	0.032707790
2020-06-30T21:05:00	0.2243	13.967	216.0	0.549286325	0.667073497	0.010346613	0.106744094	0.032899567
2020-06-30T21:10:00	0.2236	13.945	216.0	0.546966719	0.663774508	0.010266439	0.105916954	0.032644634
2020-06-30T21:15:00	0.2240	13.921	215.0	0.548372499	0.665773309	0.010314990	0.106417847	0.032799014
2020-06-30T21:20:00	0.2244	13.900	215.0	0.549777710	0.667772921	0.010363637	0.106919734	0.032953700
2020-06-30T21:25:00	0.2243	13.878	215.0	0.549151619	0.666881795	0.010341948	0.106695971	0.032884734
2020-06-30T21:30:00	0.2238	13.855	215.0	0.547509419	0.664545951	0.010285168	0.106110182	0.032704189
2020-06-30T21:35:00	0.2235	13.834	215.0	0.546544125	0.663173962	0.010251866	0.105766613	0.032598297
2020-06-30T21:40:00	0.2234	13.813	215.0	0.546256304	0.662765024	0.010241947	0.105664281	0.032566758
2020-06-30T21:45:00	0.2235	13.791	215.0	0.546646124	0.663318898	0.010255382	0.105802890	0.032609478
2020-06-30T21:50:00	0.2233	13.769	215.0	0.546019467	0.662428575	0.010233789	0.105580113	0.032540816
2020-06-30T21:55:00	0.2240	13.747	214.0	0.548103011	0.665390013	0.010305673	0.106321734	0.032769391
2020-06-30T22:00:00	0.2234	13.726	215.0	0.546121481	0.662573489	0.010237302	0.105616363	0.032551989
2020-06-30T22:05:00	0.2234	13.706	215.0	0.546073506	0.662505339	0.010235650	0.105599314	0.032546734
2020-06-30T22:10:00	0.2237	13.685	214.0	0.547380705	0.664362964	0.010280724	0.106064337	0.032690059
2020-06-30T22:15:00	0.2242	13.665	214.0	0.549025996	0.666703032	0.010337599	0.106651102	0.032870905
2020-06-30T22:20:00	0.2237	13.645	214.0	0.547284791	0.664226615	0.010277414	0.106030182	0.032679532
2020-06-30T22:25:00	0.2241	13.624	214.0	0.548591534	0.666084889	0.010322565	0.106495999	0.032823101
2020-06-30T22:30:00	0.2244	13.605	214.0	0.549559287	0.667461999	0.010356068	0.106841643	0.032929632
2020-06-30T22:35:00	0.2239	13.585	214.0	0.547818349	0.664985201	0.010295837	0.106220256	0.032738114
2020-06-30T22:40:00	0.2244	13.564	214.0	0.549463432	0.667325564	0.010352747	0.106807382	0.032919072
2020-06-30T22:45:00	0.2236	13.544	214.0	0.547044993	0.663885758	0.010269139	0.105944812	0.032653220
2020-06-30T22:50:00	0.2233	13.525	214.0	0.545980588	0.662373348	0.010232450	0.105566299	0.032536559
2020-06-30T22:55:00	0.2232	13.504	213.0	0.545593726	0.661823887	0.010219132	0.105428897	0.032494210
2020-06-30T23:00:00	0.2234	13.485	213.0	0.546223491	0.662718407	0.010240817	0.105652618	0.032563163
2020-06-30T23:05:00	0.2228	13.467	214.0	0.544141851	0.659762879	0.010169227	0.104914039	0.032335526
2020-06-30T23:10:00	0.2223	13.448	212.0	0.542398192	0.657289946	0.010109456	0.104297394	0.032145470
2020-06-30T23:15:00	0.2219	13.428	213.0	0.540993022	0.655298885	0.010061418	0.103801792	0.031992720
2020-06-30T23:20:00	0.2215	13.409	213.0	0.539926756	0.653789112	0.010025043	0.103426516	0.031877057
2020-06-30T23:25:00	0.2208	13.390	213.0	0.537501648	0.650358752	0.009942559	0.102575545	0.031614779
2020-06-30T23:30:00	0.2210	13.371	213.0	0.538132887	0.651251189	0.009963996	0.102796706	0.031682943
2020-06-30T23:35:00	0.2209	13.353	212.0	0.537745147	0.650702969	0.009950825	0.102660829	0.031641065
2020-06-30T23:40:00	0.2205	13.334	213.0	0.536338087	0.648714578	0.009903105	0.102168510	0.031489327
2020-06-30T23:45:00	0.2197	13.317	213.0	0.533570394	0.644808118	0.009809577	0.101203599	0.031191932
2020-06-30T23:50:00	0.2191	13.301	212.0	0.531481123	0.641863353	0.009739271	0.100478264	0.030968377
2020-06-30T23:55:00	0.2186	13.286	212.0	0.530071507	0.639878549	0.009691980	0.099990369	0.030818003
2020-07-01T00:00:00	0.2189	13.271	212.0	0.531044452	0.641248328	0.009724609	0.100326996	0.030921755
2020-07-01T00:05:00	0.2182	13.255	212.0	0.528613097	0.637826743	0.009643173	0.099486843	0.030662811
2020-07-01T00:10:00	0.2181	13.242	212.0	0.528224286	0.637280027	0.009630183	0.099352819	0.030621504
2020-07-01T00:15:00	0.2180	13.228	212.0	0.527835432	0.636733371	0.009617199	0.099218872	0.030580220
2020-07-01T00:20:00	0.2177	13.214	212.0	0.526765094	0.635229313	0.009581507	0.098850644	0.030466728
2020-07-01T00:25:00	0.2173	13.199	212.0	0.525353547	0.633247206	0.009534539	0.098366082	0.030317382
2020-07-01T00:30:00	0.2172	13.185	212.0	0.525305283	0.633179463	0.009532935	0.098349535	0.030312282
2020-07-01T00:35:00	0.2166	13.171	212.0	0.523210993	0.630241707	0.009463469	0.097632863	0.030091397
2020-07-01T00:40:00	0.2177	13.158	211.0	0.526912870	0.635436916	0.009586431	0.098901442	0.030482385
2020-07-01T00:45:00	0.2170	13.145	211.0	0.524478596	0.632019405	0.009505484	0.098066326	0.030224994
2020-07-01T00:50:00	0.2172	13.131	211.0	0.525112222	0.632908498	0.009526521	0.098283359	0.030291886
2020-07-01T00:55:00	0.2171	13.119	211.0	0.524723016	0.632362333	0.009513596	0.098150017	0.030250789
2020-07-01T01:00:00	0.2172	13.106	211.0	0.525015687	0.632773021	0.009523314	0.098250278	0.030281690
2020-07-01T01:05:00	0.2172	13.095	211.0	0.525308333	0.633183744	0.009533037	0.098350581	0.030312604
2020-07-01T01:10:00	0.2167	13.084	211.0	0.523555134	0.630724204	0.009474866	0.097750448	0.030127638
2020-07-01T01:15:00	0.2169	13.073	211.0	0.524188930	0.631613060	0.009495875	0.097967188	0.030194439
2020-07-01T01:20:00	0.2177	13.063	211.0	0.526867677	0.635373425	0.009584925	0.098885906	0.030477597
2020-07-01T01:25:00	0.2174	13.053	211.0	0.525797039	0.633869787	0.009549283	0.098518197	0.030364265
2020-07-01T01:30:00	0.2172	13.041	211.0	0.525067005	0.632845040	0.009525019	0.098267863	0.030287110
2020-07-01T01:35:00	0.2170	13.031	211.0	0.524336817	0.631820509	0.009500780	0.098017796	0.030210037
2020-07-01T01:40:00	0.2175	13.022	211.0	0.526333924	0.634623689	0.009567148	0.098702503	0.030421070
2020-07-01T01:45:00	0.2181	13.012	211.0	0.528329874	0.637428484	0.009633710	0.099389207	0.030632719
2020-07-01T01:50:00	0.2185	13.001	211.0	0.529643797	0.639276634	0.009677653	0.099842567	0.030772449
2020-07-01T01:55:00	0.2184	12.992	211.0	0.529255103	0.638729755	0.009664643	0.099708342	0.030731079
2020-07-01T02:00:00	0.2178	12.982	210.0	0.527163215	0.635788651	0.009594775	0.098987529	0.030508918
2020-07-01T02:05:00	0.2182	12.973	211.0	0.528477583	0.637636180	0.009638645	0.099440121	0.030648411
2020-07-01T02:10:00	0.2181	12.964	210.0	0.528088757	0.637089485	0.009625657	0.099306124	0.030607112
2020-07-01T02:15:00	0.2187	12.955	211.0	0.530424100	0.640374864	0.009703798	0.100112296	0.030855582
2020-07-01T02:20:00	0.2186	12.945	210.0	0.530035493	0.639827862	0.009690773	0.099977920	0.030814166
2020-07-01T02:25:00	0.2187	12.937	210.0	0.530327714	0.640239180	0.009700567	0.100078958	0.030845307
2020-07-01T02:30:00	0.2189	12.926	210.0	0.530960265	0.641129773	0.009721783	0.100297846	0.030912770
2020-07-01T02:35:00	0.2183	12.916	210.0	0.528869412	0.638187223	0.009651742	0.099575245	0.030690058
2020-07-01T02:40:00	0.2192	12.908	210.0	0.531884789	0.642432030	0.009752835	0.100618200	0.031011506
2020-07-01T02:45:00	0.2191	12.898	210.0	0.531496347	0.641884798	0.009739782	0.100483540	0.030970003
2020-07-01T02:50:00	0.2188	12.888	210.0	0.530767520	0.640858366	0.009715316	0.100231123	0.030892206
2020-07-01T02:55:00	0.2192	12.879	210.0	0.532080515	0.642707815	0.009759415	0.100686087	0.031032430
2020-07-01T03:00:00	0.2202	12.870	210.0	0.535433003	0.647436410	0.009872471	0.101852460	0.031391917
2020-07-01T03:05:00	0.2198	12.862	210.0	0.534025000	0.645449344	0.009824909	0.101361774	0.031240683
2020-07-01T03:10:00	0.2199	12.852	210.0	0.534316883	0.645861135	0.009834759	0.101463396	0.031272004
2020-07-01T03:15:00	0.2200	12.843	210.0	0.534608741	0.646272961	0.009844613	0.101565061	0.031303338
2020-07-01T03:20:00	0.2199	12.832	210.0	0.534220606	0.645725298	0.009831509	0.101429870	0.031261671
2020-07-01T03:25:00	0.2189	12.824	210.0	0.531110907	0.641341915	0.009726839	0.100350009	0.030928847
2020-07-01T03:30:00	0.2191	12.814	210.0	0.531743314	0.642232709	0.009748080	0.100569145	0.030996387
2020-07-01T03:35:00	0.2194	12.804	210.0	0.532715789	0.643603148	0.009780788	0.100906587	0.031100390
2020-07-01T03:40:00	0.2202	12.796	210.0	0.535387922	0.647372763	0.009870946	0.101836731	0.031387069
2020-07-01T03:45:00	0.2200	12.789	210.0	0.534659916	0.646345179	0.009846342	0.101582893	0.031308834
2020-07-01T03:50:00	0.2196	12.780	210.0	0.533251598	0.644358555	0.009798833	0.101092753	0.031157768
2020-07-01T03:55:00	0.2190	12.772	210.0	0.531162134	0.641414061	0.009728559	0.100367751	0.030934316
2020-07-01T04:00:00	0.2191	12.765	209.0	0.531794533	0.642304868	0.009749801	0.100586903	0.031001860
2020-07-01T04:05:00	0.2193	12.758	210.0	0.532468891	0.643255139	0.009772479	0.100820861	0.031073969
2020-07-01T04:10:00	0.2194	12.750	210.0	0.532802977	0.643726054	0.009783723	0.100936869	0.031109723
2020-07-01T04:15:00	0.2189	12.743	210.0	0.531095681	0.641320472	0.009726328	0.100344736	0.030927222
2020-07-01T04:20:00	0.2188	12.737	210.0	0.530749248	0.640832637	0.009714703	0.100224799	0.030890256
2020-07-01T04:25:00	0.2183	12.731	210.0	0.529040934	0.638428479	0.009657478	0.099634424	0.030708297
2020-07-01T04:30:00	0.2190	12.727	210.0	0.531417721	0.641774045	0.009737141	0.100456293	0.030961605
2020-07-01T04:35:00	0.2192	12.722	209.0	0.532092153	0.642724213	0.009759806	0.100690124	0.031033674
2020-07-01T04:40:00	0.2204	12.719	209.0	0.536166388	0.648472052	0.009897290	0.102108516	0.031470836
2020-07-01T04:45:00	0.2205	12.714	209.0	0.536500117	0.648943469	0.009908594	0.102225143	0.031506782
2020-07-01T04:50:00	0.2202	12.710	210.0	0.535474504	0.647495003	0.009873874	0.101866941	0.031396381
2020-07-01T04:55:00	0.2203	12.705	209.0	0.535808299	0.647966326	0.009885168	0.101983452	0.031432290
2020-07-01T05:00:00	0.2205	12.702	209.0	0.536481874	0.648917697	0.009907976	0.102218766	0.031504816
2020-07-01T05:05:00	0.2209	12.701	209.0	0.537834710	0.650829589	0.009953867	0.102692207	0.031650735
2020-07-01T05:10:00	0.2215	12.701	209.0	0.539866008	0.653703123	0.010022972	0.103405156	0.031870473
2020-07-01T05:15:00	0.2220	12.701	209.0	0.541556834	0.656097587	0.010080679	0.104000505	0.032053966
2020-07-01T05:20:00	0.2218	12.702	209.0	0.540872100	0.655127620	0.010057289	0.103759198	0.031979593
2020-07-01T05:25:00	0.2229	12.704	209.0	0.544597029	0.660408840	0.010184859	0.105075315	0.032385233
2020-07-01T05:30:00	0.2235	12.707	209.0	0.546624366	0.663287980	0.010254632	0.105795151	0.032607093
2020-07-01T05:35:00	0.2239	12.711	209.0	0.547973245	0.665205468	0.010301189	0.106275468	0.032755131
2020-07-01T05:40:00	0.2246	12.716	209.0	0.550337067	0.668569335	0.010383034	0.107119846	0.033015377
2020-07-01T05:45:00	0.2246	12.721	209.0	0.550331010	0.668560710	0.010382824	0.107117679	0.033014709
2020-07-01T05:50:00	0.2241	12.728	209.0	0.548632340	0.666142940	0.010323977	0.106510562	0.032827590
2020-07-01T05:55:00	0.2253	12.737	209.0	0.552687175	0.671918233	0.010464729	0.107962682	0.033275147
2020-07-01T06:00:00	0.2246	12.747	209.0	0.550312840	0.668534836	0.010382193	0.107111175	0.033012705
2020-07-01T06:05:00	0.2243	12.757	210.0	0.549291309	0.667080591	0.010346785	0.106745875	0.032900115
2020-07-01T06:10:00	0.2241	12.771	209.0	0.548608102	0.666108459	0.010323138	0.106501912	0.032824924
2020-07-01T06:15:00	0.2245	12.786	210.0	0.549956211	0.668027043	0.010369825	0.106983573	0.032973376
2020-07-01T06:20:00	0.2238	12.802	210.0	0.547580007	0.664646310	0.010287605	0.106135328	0.032711939
2020-07-01T06:25:00	0.2243	12.818	210.0	0.549267076	0.667046102	0.010345946	0.106737217	0.032897447
2020-07-01T06:30:00	0.2236	12.836	210.0	0.546890400	0.663666041	0.010263806	0.105889795	0.032636263
2020-07-01T06:35:00	0.2241	12.852	210.0	0.548577804	0.666065357	0.010322090	0.106491100	0.032821591
2020-07-01T06:40:00	0.2237	12.868	210.0	0.547217035	0.664130300	0.010275075	0.106006057	0.032672096
2020-07-01T06:45:00	0.2233	12.888	210.0	0.545855733	0.662196003	0.010228151	0.105521944	0.032522888
2020-07-01T06:50:00	0.2222	12.908	211.0	0.542120016	0.656895656	0.010099937	0.104199187	0.032115201
2020-07-01T06:55:00	0.2222	12.930	210.0	0.542113945	0.656887052	0.010099729	0.104197044	0.032114541
2020-07-01T07:00:00	0.2212	12.953	210.0	0.538713780	0.652072735	0.009983743	0.103000439	0.031745736
2020-07-01T07:05:00	0.2220	12.979	211.0	0.541423249	0.655908326	0.010076114	0.103953406	0.032039449
2020-07-01T07:10:00	0.2227	13.018	211.0	0.543791538	0.659265850	0.010157204	0.104790004	0.032297297
2020-07-01T07:15:00	0.2232	13.093	211.0	0.545480450	0.661663024	0.010215234	0.105388681	0.032481815
2020-07-01T07:20:00	0.2240	13.108	211.0	0.548184634	0.665506101	0.010308495	0.106350840	0.032778362
2020-07-01T07:25:00	0.2235	13.141	211.0	0.546484913	0.663089827	0.010249825	0.105745557	0.032591808
2020-07-01T07:30:00	0.2236	13.180	211.0	0.546817649	0.663562648	0.010261297	0.105863909	0.032628285
2020-07-01T07:35:00	0.2233	13.247	211.0	0.545795088	0.662109867	0.010226063	0.105500404	0.032516249
2020-07-01T07:40:00	0.2232	13.265	212.0	0.545450124	0.661619961	0.010214190	0.105377917	0.032478497
2020-07-01T07:45:00	0.2235	13.292	212.0	0.546460660	0.663055366	0.010248989	0.105736933	0.032589150
2020-07-01T07:50:00	0.2236	13.337	212.0	0.546793398	0.663528184	0.010260461	0.105855281	0.032625626
2020-07-01T07:55:00	0.2231	13.368	212.0	0.545092995	0.661112879	0.010201906	0.105251186	0.032439438
2020-07-01T08:00:00	0.2240	13.341	212.0	0.548136151	0.665437146	0.010306819	0.106333551	0.032773033
2020-07-01T08:05:00	0.2231	13.360	212.0	0.545080863	0.661095656	0.010201489	0.105246882	0.032438111
2020-07-01T08:10:00	0.2231	13.405	212.0	0.545074797	0.661087044	0.010201280	0.105244730	0.032437448
2020-07-01T08:15:00	0.2234	13.431	213.0	0.546085442	0.662522295	0.010236061	0.105603556	0.032548042
2020-07-01T08:20:00	0.2233	13.476	212.0	0.545740507	0.662032347	0.010224184	0.105481019	0.032510274
2020-07-01T08:25:00	0.2231	13.502	213.0	0.545056600	0.661061209	0.010200655	0.105238275	0.032435458
2020-07-01T08:30:00	0.2231	13.548	213.0	0.545050534	0.661052597	0.010200446	0.105236123	0.032434795
2020-07-01T08:35:00	0.2222	13.589	213.0	0.541992524	0.656714968	0.010095576	0.104154193	0.032101334
2020-07-01T08:40:00	0.2218	13.635	213.0	0.540968539	0.655264207	0.010060582	0.103793167	0.031990062
2020-07-01T08:45:00	0.2221	13.677	214.0	0.541980382	0.656697760	0.010095160	0.104149908	0.032100013
2020-07-01T08:50:00	0.2214	13.710	214.0	0.539598703	0.653324793	0.010013865	0.103311195	0.031841513
2020-07-01T08:55:00	0.2214	13.719	214.0	0.539592627	0.653316195	0.010013658	0.103309059	0.031840855
2020-07-01T09:00:00	0.2220	13.755	214.0	0.541622894	0.656191186	0.010082937	0.104023800	0.032061145
2020-07-01T09:05:00	0.2222	13.800	214.0	0.542295338	0.657144153	0.010105936	0.104261077	0.032134277
2020-07-01T09:10:00	0.2217	13.881	214.0	0.540592726	0.654731979	0.010047754	0.103660826	0.031949273
2020-07-01T09:15:00	0.2216	13.934	215.0	0.540247243	0.654242806	0.010035969	0.103539240	0.031911799
2020-07-01T09:20:00	0.2220	13.983	215.0	0.541598607	0.656156773	0.010082107	0.104015235	0.032058506
2020-07-01T09:25:00	0.2224	13.979	215.0	0.542949443	0.658071486	0.010128333	0.104492146	0.032205494
2020-07-01T09:30:00	0.2227	14.000	215.0	0.543960708	0.659505858	0.010163009	0.104849893	0.032315755
2020-07-01T09:35:00	0.2223	14.049	216.0	0.542598126	0.657573376	0.010116301	0.104368008	0.032167234
2020-07-01T09:40:00	0.2228	14.093	215.0	0.544287619	0.659969725	0.010174232	0.104965673	0.032351440
2020-07-01T09:45:00	0.2221	14.104	216.0	0.541907527	0.656594513	0.010092669	0.104124201	0.032092090
2020-07-01T09:50:00	0.2223	14.126	216.0	0.542579916	0.657547559	0.010115677	0.104361575	0.032165251
2020-07-01T09:55:00	0.2223	14.190	216.0	0.542573846	0.657538954	0.010115469	0.104359431	0.032164590
2020-07-01T10:00:00	0.2227	14.192	216.0	0.543924302	0.659454205	0.010161760	0.104837003	0.032311782
2020-07-01T10:05:00	0.2230	14.216	216.0	0.544980239	0.660952802	0.010198029	0.105211189	0.032427110
2020-07-01T10:10:00	0.2206	14.276	216.0	0.536874566	0.649472514	0.009921286	0.102356079	0.031547138
2020-07-01T10:15:00	0.2208	14.306	216.0	0.537253284	0.650007707	0.009934131	0.102488595	0.031587980
2020-07-01T10:20:00	0.2200	14.346	217.0	0.534573468	0.646223185	0.009843422	0.101552772	0.031299551
2020-07-01T10:25:00	0.2200	14.357	217.0	0.534612476	0.646278232	0.009844740	0.101566363	0.031303739
2020-07-01T10:30:00	0.2204	14.371	217.0	0.536011117	0.648252751	0.009892033	0.102054277	0.031454119
2020-07-01T10:35:00	0.2205	14.376	217.0	0.536389929	0.648787811	0.009904861	0.102186629	0.031494911
2020-07-01T10:40:00	0.2204	14.373	217.0	0.536089100	0.648362889	0.009894673	0.102081516	0.031462515
2020-07-01T10:45:00	0.2199	14.383	217.0	0.534428523	0.646018656	0.009838528	0.101502278	0.031283988
2020-07-01T10:50:00	0.2203	14.402	217.0	0.535827238	0.647993070	0.009885809	0.101990064	0.031434328
2020-07-01T10:55:00	0.2200	14.417	217.0	0.534846514	0.646608522	0.009852645	0.101647925	0.031328878
2020-07-01T11:00:00	0.2202	14.437	217.0	0.535225454	0.647143402	0.009865452	0.101780055	0.031369601
2020-07-01T11:05:00	0.2197	14.474	217.0	0.533564462	0.644799752	0.009809377	0.101201536	0.031191296
2020-07-01T11:10:00	0.2210	14.526	217.0	0.538021675	0.651093934	0.009960217	0.102757724	0.031670928
2020-07-01T11:15:00	0.2210	14.571	218.0	0.538060644	0.651149035	0.009961541	0.102771382	0.031675138
2020-07-01T11:20:00	0.2210	14.612	218.0	0.538099612	0.651204137	0.009962865	0.102785041	0.031679348
2020-07-01T11:25:00	0.2205	14.650	218.0	0.536440001	0.648858544	0.009906558	0.102204129	0.031500305
2020-07-01T11:30:00	0.2195	14.695	218.0	0.533079361	0.644115702	0.009793030	0.101032890	0.031139318
2020-07-01T11:35:00	0.2202	14.770	218.0	0.535498449	0.647528811	0.009874684	0.101875297	0.031398956
2020-07-01T11:40:00	0.2194	14.853	219.0	0.532817271	0.643746204	0.009784204	0.100941833	0.031111253
2020-07-01T11:45:00	0.2194	14.922	219.0	0.532516130	0.643321720	0.009774068	0.100837260	0.031079023
2020-07-01T11:50:00	0.2187	14.968	220.0	0.530173066	0.640021496	0.009695383	0.100025481	0.030828825
2020-07-01T11:55:00	0.2195	15.013	220.0	0.532934353	0.643911261	0.009788147	0.100982506	0.031123789
2020-07-01T12:00:00	0.2205	15.065	220.0	0.536373110	0.648764052	0.009904292	0.102180750	0.031493100
2020-07-01T12:05:00	0.2196	15.088	220.0	0.533352525	0.644500873	0.009802234	0.101127839	0.031168582
2020-07-01T12:10:00	0.2192	15.129	220.0	0.532030881	0.642637876	0.009757746	0.100668870	0.031027123
2020-07-01T12:15:00	0.2192	15.190	220.0	0.532069918	0.642692882	0.009759059	0.100682411	0.031031297
2020-07-01T12:20:00	0.2171	15.226	220.0	0.524956800	0.632690382	0.009521359	0.098230100	0.030275471
2020-07-01T12:25:00	0.2175	15.263	220.0	0.526018551	0.634180809	0.009556652	0.098594218	0.030387696
2020-07-01T12:30:00	0.2174	15.332	221.0	0.525716815	0.633757156	0.009546615	0.098490672	0.030355782
2020-07-01T12:35:00	0.2176	15.361	221.0	0.526437563	0.634769247	0.009570599	0.098738101	0.030432042
2020-07-01T12:40:00	0.2174	15.389	222.0	0.525795031	0.633866969	0.009549217	0.098517508	0.030364053
2020-07-01T12:45:00	0.2169	15.427	222.0	0.524129488	0.631529682	0.009493903	0.097946850	0.030188171
2020-07-01T12:50:00	0.2174	15.469	222.0	0.525873245	0.633976783	0.009551818	0.098544347	0.030372325
2020-07-01T12:55:00	0.2172	15.539	223.0	0.525230608	0.633074652	0.009530454	0.098323936	0.030304392
2020-07-01T13:00:00	0.2170	15.600	223.0	0.524587851	0.632172687	0.009509110	0.098103731	0.030236523
2020-07-01T13:05:00	0.2175	15.651	223.0	0.526331377	0.634620112	0.009567063	0.098701628	0.030420800
2020-07-01T13:10:00	0.2169	15.680	223.0	0.523984103	0.631325768	0.009489083	0.097897117	0.030172842
2020-07-01T13:15:00	0.2171	15.709	223.0	0.524705213	0.632337353	0.009513005	0.098143920	0.030248909
2020-07-01T13:20:00	0.2163	15.746	224.0	0.522015622	0.628566500	0.009423933	0.097224983	0.029965684
2020-07-01T13:25:00	0.2160	15.795	224.0	0.521030959	0.627187454	0.009391429	0.096889644	0.029862329
2020-07-01T13:30:00	0.2169	15.850	224.0	0.524140612	0.631545285	0.009494272	0.097950656	0.030189344
2020-07-01T13:35:00	0.2175	15.897	225.0	0.526225187	0.634470981	0.009563529	0.098665161	0.030409561
2020-07-01T13:40:00	0.2176	15.946	225.0	0.526605076	0.635004534	0.009576177	0.098795652	0.030449779
2020-07-01T13:45:00	0.2179	15.988	225.0	0.527666319	0.636495669	0.009611555	0.099160646	0.030562274
2020-07-01T13:50:00	0.2175	16.036	225.0	0.526342493	0.634635724	0.009567433	0.098705446	0.030421977
2020-07-01T13:55:00	0.2176	16.084	226.0	0.526381595	0.634690640	0.009568735	0.098718876	0.030426116
2020-07-01T14:00:00	0.2173	16.116	225.0	0.525398180	0.633309857	0.009536022	0.098381386	0.030322099
2020-07-01T14:05:00	0.2175	16.128	225.0	0.526118995	0.634321854	0.009559994	0.098628700	0.030398323
2020-07-01T14:10:00	0.2180	16.112	226.0	0.527861745	0.636770359	0.009618078	0.099227933	0.030583013
2020-07-01T14:15:00	0.2198	16.075	225.0	0.534026926	0.645452060	0.009824974	0.101362444	0.031240890
2020-07-01T14:20:00	0.2181	16.046	226.0	0.528280533	0.637359109	0.009632061	0.099372202	0.030627478
2020-07-01T14:25:00	0.2178	16.016	225.0	0.527297661	0.635977570	0.009599258	0.099033777	0.030523172
2020-07-01T14:30:00	0.2192	15.996	225.0	0.532103212	0.642739798	0.009760178	0.100693961	0.031034857
2020-07-01T14:35:00	0.2181	15.989	225.0	0.528057160	0.637045064	0.009624601	0.099295239	0.030603757
2020-07-01T14:40:00	0.2181	15.967	225.0	0.528096242	0.637100007	0.009625906	0.099308702	0.030607906
2020-07-01T14:45:00	0.2180	15.937	225.0	0.527794688	0.636676100	0.009615839	0.099204842	0.030575896
2020-07-01T14:50:00	0.2184	15.906	225.0	0.529196095	0.638646744	0.009662669	0.099687974	0.030724802
2020-07-01T14:55:00	0.2179	15.878	225.0	0.527532196	0.636307164	0.009607081	0.099114480	0.030548045
2020-07-01T15:00:00	0.2181	15.853	224.0	0.528252564	0.637319785	0.009631127	0.099362564	0.030624507
2020-07-01T15:05:00	0.2170	15.831	224.0	0.524542975	0.632109727	0.009507620	0.098088367	0.030231787
2020-07-01T15:10:00	0.2179	15.807	224.0	0.527649458	0.636471970	0.009610993	0.099154842	0.030560485
2020-07-01T15:15:00	0.2175	15.786	224.0	0.526325625	0.634612034	0.009566872	0.098699653	0.030420192
2020-07-01T15:20:00	0.2181	15.768	224.0	0.528068271	0.637060684	0.009624972	0.099299066	0.030604937
2020-07-01T15:25:00	0.2175	15.755	224.0	0.526063021	0.634243255	0.009558132	0.098609484	0.030392401
2020-07-01T15:30:00	0.2170	15.738	224.0	0.524397608	0.631905788	0.009502797	0.098038603	0.030216450
2020-07-01T15:35:00	0.2170	15.723	224.0	0.524436731	0.631960673	0.009504095	0.098051995	0.030220577
2020-07-01T15:40:00	0.2166	15.716	224.0	0.523111662	0.630102459	0.009460180	0.097598937	0.030080940
2020-07-01T15:45:00	0.2177	15.702	224.0	0.526900984	0.635420216	0.009586035	0.098897356	0.030481126
2020-07-01T15:50:00	0.2169	15.692	224.0	0.524213109	0.631646975	0.009496677	0.097975461	0.030196989
2020-07-01T15:55:00	0.2160	15.689	224.0	0.521181842	0.627398719	0.009396406	0.096940992	0.029878155
2020-07-01T16:00:00	0.2158	15.685	224.0	0.520538328	0.626497807	0.009375188	0.096722091	0.029810688
2020-07-01T16:05:00	0.2152	15.678	224.0	0.518356635	0.623445961	0.009303433	0.095981803	0.029582524
2020-07-01T16:10:00	0.2138	15.674	224.0	0.513438023	0.616579734	0.009142674	0.094323283	0.029071352
2020-07-01T16:15:00	0.2123	15.670	224.0	0.508512343	0.609723243	0.008983089	0.092676878	0.028563914
2020-07-01T16:20:00	0.2114	15.665	224.0	0.505294455	0.605254555	0.008879593	0.091609125	0.028234822
2020-07-01T16:25:00	0.2109	15.660	223.0	0.503446125	0.602691547	0.008820416	0.090998608	0.028046655
2020-07-01T16:30:00	0.2101	15.652	224.0	0.500910196	0.599179550	0.008739546	0.090164285	0.027789508
2020-07-01T16:35:00	0.2093	15.645	224.0	0.498028775	0.595195360	0.008648109	0.089220942	0.027498761
2020-07-01T16:40:00	0.2084	15.643	224.0	0.495144916	0.591214479	0.008557073	0.088281748	0.027209292
2020-07-01T16:45:00	0.2076	15.644	223.0	0.492258613	0.587236907	0.008466441	0.087346707	0.026921103
2020-07-01T16:50:00	0.2070	15.650	224.0	0.490058787	0.584209843	0.008397686	0.086637378	0.026702481
2020-07-01T16:55:00	0.2065	15.643	223.0	0.488546771	0.582131485	0.008350590	0.086151498	0.026552728
2020-07-01T17:00:00	0.2059	15.638	224.0	0.486344540	0.579107659	0.008282231	0.085446245	0.026335363
2020-07-01T17:05:00	0.2055	15.633	224.0	0.485175810	0.577504483	0.008246065	0.085073134	0.026220366
2020-07-01T17:10:00	0.2053	15.630	223.0	0.484351705	0.576374692	0.008220611	0.084810529	0.026139429
2020-07-01T17:15:00	0.2043	15.624	223.0	0.480765537	0.571464624	0.008110299	0.083672462	0.025788665
2020-07-01T17:20:00	0.2041	15.625	223.0	0.480285798	0.570808560	0.008095598	0.083520795	0.025741920
2020-07-01T17:25:00	0.2025	15.625	223.0	0.474619951	0.563074134	0.007922974	0.081739859	0.025193018
2020-07-01T17:30:00	0.2024	15.623	223.0	0.474485373	0.562890733	0.007918896	0.081697788	0.025180052
2020-07-01T17:35:00	0.2016	15.622	223.0	0.471581426	0.558936782	0.007831155	0.080792578	0.024901057
2020-07-01T17:40:00	0.2006	15.616	223.0	0.467981687	0.554044761	0.007723060	0.079677385	0.024557344
2020-07-01T17:45:00	0.1999	15.608	223.0	0.465766028	0.551038808	0.007656895	0.078994776	0.024346957
2020-07-01T17:50:00	0.1994	15.601	223.0	0.463896031	0.548504841	0.007601271	0.078420911	0.024170086
2020-07-01T17:55:00	0.1987	15.593	223.0	0.461330334	0.545032661	0.007525277	0.077636899	0.023928446
2020-07-01T18:00:00	0.1982	15.585	223.0	0.459805414	0.542971442	0.007480289	0.077172758	0.023785393
2020-07-01T18:05:00	0.1973	15.577	223.0	0.456540941	0.538565072	0.007384424	0.076183745	0.023480570
2020-07-01T18:10:00	0.1965	15.569	223.0	0.453969624	0.535100246	0.007309343	0.075409141	0.023241830
2020-07-01T18:15:00	0.1957	15.560	223.0	0.451047921	0.531169611	0.007224487	0.074533696	0.022972009
2020-07-01T18:20:00	0.1950	15.553	223.0	0.448472388	0.527710266	0.007150087	0.073766129	0.022735437
2020-07-01T18:25:00	0.1949	15.545	223.0	0.448336760	0.527528241	0.007146180	0.073725817	0.022723013
2020-07-01T18:30:00	0.1945	15.538	222.0	0.446805925	0.525474727	0.007102149	0.073271558	0.022583006
2020-07-01T18:35:00	0.1938	15.532	223.0	0.444576251	0.522487065	0.007038255	0.072612384	0.022379842
2020-07-01T18:40:00	0.1937	15.525	223.0	0.444091327	0.521837806	0.007024397	0.072469408	0.022335775
2020-07-01T18:45:00	0.1934	15.517	223.0	0.442907847	0.520254034	0.006990631	0.072121046	0.022228407
2020-07-01T18:50:00	0.1923	15.508	223.0	0.439679986	0.515403407	0.006891764	0.071101058	0.021914037
2020-07-01T18:55:00	0.1927	15.498	223.0	0.440660902	0.517088212	0.006924572	0.071439537	0.022018359
2020-07-01T19:00:00	0.1920	15.484	223.0	0.438925003	0.514108495	0.006866577	0.070841210	0.021833949
2020-07-01T19:05:00	0.1914	15.470	223.0	0.437187305	0.511134131	0.006808820	0.070245346	0.021650298
2020-07-01T19:10:00	0.1917	15.456	223.0	0.437897691	0.512349056	0.006832396	0.070488568	0.021725261
2020-07-01T19:15:00	0.1913	15.440	223.0	0.436975607	0.510772351	0.006801805	0.070172964	0.021627989
2020-07-01T19:20:00	0.1913	15.424	223.0	0.436869748	0.510591490	0.006798298	0.070136787	0.021616839
2020-07-01T19:25:00	0.1910	15.413	223.0	0.435947096	0.509016464	0.006767782	0.069821954	0.021519804
2020-07-01T19:30:00	0.1907	15.400	222.0	0.435296391	0.507907097	0.006746310	0.069600438	0.021451531
2020-07-01T19:35:00	0.1901	15.387	222.0	0.433554908	0.504943907	0.006689051	0.069009707	0.021269462
2020-07-01T19:40:00	0.1891	15.374	222.0	0.430992369	0.500599035	0.006605338	0.068146053	0.021003275
2020-07-01T19:45:00	0.1889	15.360	222.0	0.430339716	0.499495361	0.006584120	0.067927150	0.020935807
2020-07-01T19:50:00	0.1886	15.346	223.0	0.429413423	0.497930978	0.006554077	0.067617203	0.020840279
2020-07-01T19:55:00	0.1875	15.331	222.0	0.426570578	0.493144691	0.006462397	0.066671353	0.020548759
2020-07-01T20:00:00	0.1872	15.317	222.0	0.425642154	0.491586433	0.006432626	0.066364214	0.020454095
2020-07-01T20:05:00	0.1871	15.300	222.0	0.425535566	0.491407690	0.006429213	0.066329008	0.020443244
2020-07-01T20:10:00	0.1866	15.286	222.0	0.424058046	0.488933197	0.006382023	0.065842156	0.020293192
2020-07-01T20:15:00	0.1869	15.271	222.0	0.424774102	0.490131664	0.006404867	0.066077828	0.020365828
2020-07-01T20:20:00	0.1874	15.256	221.0	0.426311816	0.492710148	0.006454091	0.066585664	0.020522348
2020-07-01T20:25:00	0.1870	15.242	222.0	0.425109145	0.490692916	0.006415572	0.066188275	0.020399869
2020-07-01T20:30:00	0.1871	15.226	221.0	0.425550714	0.491433089	0.006429698	0.066334011	0.020444786
2020-07-01T20:35:00	0.1870	15.211	221.0	0.425170030	0.490794940	0.006417519	0.066208358	0.020406059
2020-07-01T20:40:00	0.1867	15.196	221.0	0.424240809	0.489238954	0.006387849	0.065902259	0.020311716
2020-07-01T20:45:00	0.1863	15.182	221.0	0.423311059	0.487684475	0.006358246	0.065596850	0.020217586
2020-07-01T20:50:00	0.1858	15.167	221.0	0.421831517	0.485215717	0.006311310	0.065112623	0.020068343
2020-07-01T20:55:00	0.1860	15.152	221.0	0.422273975	0.485953366	0.006325324	0.065257202	0.020112904
2020-07-01T21:00:00	0.1859	15.137	220.0	0.422167167	0.485775250	0.006321939	0.065222283	0.020102141
2020-07-01T21:05:00	0.1859	15.122	221.0	0.422060351	0.485597153	0.006318556	0.065187373	0.020091382
2020-07-01T21:10:00	0.1862	15.105	221.0	0.423051780	0.487251406	0.006350005	0.065511835	0.020191384
2020-07-01T21:15:00	0.1861	15.089	221.0	0.422670511	0.486614916	0.006337900	0.065386942	0.020152891
2020-07-01T21:20:00	0.1876	15.074	221.0	0.426676819	0.493323157	0.006465809	0.066706555	0.020559608
2020-07-01T21:25:00	0.1870	15.061	221.0	0.425200331	0.490845720	0.006418488	0.066218354	0.020409140
2020-07-01T21:30:00	0.1865	15.046	221.0	0.423722507	0.488372092	0.006371336	0.065731898	0.020259209
2020-07-01T21:35:00	0.1869	15.031	221.0	0.424987091	0.490488418	0.006411671	0.066148027	0.020387464
2020-07-01T21:40:00	0.1871	15.016	221.0	0.425428692	0.491228498	0.006425793	0.066293719	0.020432368
2020-07-01T21:45:00	0.1871	15.002	221.0	0.425322090	0.491049795	0.006422382	0.066258531	0.020421523
2020-07-01T21:50:00	0.1873	14.987	221.0	0.426037592	0.492249840	0.006445296	0.066494926	0.020494382
2020-07-01T21:55:00	0.1899	14.971	220.0	0.433039256	0.504068133	0.006672154	0.068835383	0.021215734
2020-07-01T22:00:00	0.1897	14.956	220.0	0.432660301	0.503424993	0.006659753	0.068707443	0.021176301
2020-07-01T22:05:00	0.1910	14.942	220.0	0.436206234	0.509458589	0.006776344	0.069910291	0.021547031
2020-07-01T22:10:00	0.1920	14.925	220.0	0.438929313	0.514115883	0.006866721	0.070842692	0.021834406
2020-07-01T22:15:00	0.1931	14.910	220.0	0.442159595	0.519253267	0.006969323	0.071901219	0.022160654
2020-07-01T22:20:00	0.1936	14.896	220.0	0.443909053	0.521593809	0.007019191	0.072415701	0.022319222
2020-07-01T22:25:00	0.1948	14.882	220.0	0.448099655	0.527210059	0.007139351	0.073655368	0.022701300
2020-07-01T22:30:00	0.1959	14.867	220.0	0.451588343	0.531896146	0.007240146	0.074695248	0.023021801
2020-07-01T22:35:00	0.1980	14.853	220.0	0.458899382	0.541747640	0.007453621	0.076897636	0.023700598
2020-07-01T22:40:00	0.1987	14.841	220.0	0.461334937	0.545038886	0.007525413	0.077638302	0.023928879
2020-07-01T22:45:00	0.1991	14.829	220.0	0.462727223	0.546922436	0.007566605	0.078063272	0.024059859
2020-07-01T22:50:00	0.1996	14.813	220.0	0.464465995	0.549276885	0.007618204	0.078595603	0.024223928
2020-07-01T22:55:00	0.2001	14.798	219.0	0.466203870	0.551632514	0.007669948	0.079129439	0.024388461
2020-07-01T23:00:00	0.2002	14.784	220.0	0.466553821	0.552107149	0.007680388	0.079237151	0.024421659
2020-07-01T23:05:00	0.2002	14.769	219.0	0.466556924	0.552111359	0.007680481	0.079238106	0.024421954
2020-07-01T23:10:00	0.2004	14.754	219.0	0.467253612	0.553056562	0.007701287	0.079452757	0.024488111
2020-07-01T23:15:00	0.2017	14.741	219.0	0.471761540	0.559181826	0.007836583	0.080848577	0.024918317
2020-07-01T23:20:00	0.2009	14.725	219.0	0.468993153	0.555418296	0.007753358	0.079989963	0.024653683
2020-07-01T23:25:00	0.2021	14.711	219.0	0.473152626	0.561075261	0.007878568	0.081281729	0.025051818
2020-07-01T23:30:00	0.2022	14.698	219.0	0.473501857	0.561550847	0.007889125	0.081390651	0.025085389
2020-07-01T23:35:00	0.2022	14.683	219.0	0.473504954	0.561555065	0.007889219	0.081391617	0.025085687
2020-07-01T23:40:00	0.2009	14.670	219.0	0.469005557	0.555435146	0.007753730	0.079993800	0.024654866
2020-07-01T23:45:00	0.2016	14.658	219.0	0.471433821	0.558735986	0.007826708	0.080746700	0.024886917
2020-07-01T23:50:00	0.2023	14.645	219.0	0.473860341	0.562039136	0.007899970	0.081502534	0.025119873
2020-07-01T23:55:00	0.2016	14.630	218.0	0.471440019	0.558744417	0.007826894	0.080748626	0.024887511
2020-07-02T00:00:00	0.2011	14.616	218.0	0.469711041	0.556393657	0.007774897	0.080212182	0.024722173
2020-07-02T00:05:00	0.2003	14.603	218.0	0.466940971	0.552632351	0.007691947	0.079356396	0.024458412
2020-07-02T00:10:00	0.2000	14.591	218.0	0.465903547	0.551225266	0.007660994	0.079037059	0.024359989
2020-07-02T00:15:00	0.1994	14.577	218.0	0.463824636	0.548408151	0.007599151	0.078399042	0.024163346
2020-07-02T00:20:00	0.1993	14.563	218.0	0.463480615	0.547942301	0.007588941	0.078293707	0.024130881
2020-07-02T00:25:00	0.1992	14.549	218.0	0.463136558	0.547476497	0.007578737	0.078188431	0.024098434
2020-07-02T00:30:00	0.1992	14.536	218.0	0.463139665	0.547480702	0.007578829	0.078189382	0.024098727
2020-07-02T00:35:00	0.2002	14.524	218.0	0.466612784	0.552187130	0.007682148	0.079255306	0.024427255
2020-07-02T00:40:00	0.1997	14.512	218.0	0.464881329	0.549839638	0.007630554	0.078723022	0.024263200
2020-07-02T00:45:00	0.1996	14.499	218.0	0.464537416	0.549373646	0.007620327	0.078617507	0.024230679
2020-07-02T00:50:00	0.2007	14.485	218.0	0.468355756	0.554552639	0.007734258	0.079792915	0.024592951
2020-07-02T00:55:00	0.2008	14.472	218.0	0.468705483	0.555027569	0.007744735	0.079901002	0.024626265
2020-07-02T01:00:00	0.2010	14.460	218.0	0.469401728	0.555973358	0.007765613	0.080116398	0.024692652
2020-07-02T01:05:00	0.2013	14.447	217.0	0.470444276	0.557390290	0.007796928	0.080439464	0.024792224
2020-07-02T01:10:00	0.2014	14.434	218.0	0.470793786	0.557865506	0.007807440	0.080547915	0.024825650
2020-07-02T01:15:00	0.2018	14.421	218.0	0.472182173	0.559754196	0.007849266	0.080979432	0.024958647
2020-07-02T01:20:00	0.2031	14.409	218.0	0.476683532	0.565888160	0.007985633	0.082386304	0.025392259
2020-07-02T01:25:00	0.2032	14.396	217.0	0.477032399	0.566364230	0.007996250	0.082495839	0.025426019
2020-07-02T01:30:00	0.2047	14.384	217.0	0.482217836	0.573451829	0.008154884	0.084132430	0.025930432
2020-07-02T01:35:00	0.2041	14.371	217.0	0.480148941	0.570621435	0.008091407	0.083477553	0.025728593
2020-07-02T01:40:00	0.2029	14.358	217.0	0.476004260	0.564961488	0.007964980	0.082173235	0.025326589
2020-07-02T01:45:00	0.2029	14.347	217.0	0.476007355	0.564965709	0.007965074	0.082174205	0.025326888
2020-07-02T01:50:00	0.2024	14.334	216.0	0.474280713	0.562611852	0.007912696	0.081633829	0.025160339
2020-07-02T01:55:00	0.2021	14.322	217.0	0.473245543	0.561201787	0.007881376	0.081310702	0.025060748
2020-07-02T02:00:00	0.2019	14.310	217.0	0.472556287	0.560263383	0.007860556	0.081095903	0.024994545
2020-07-02T02:05:00	0.2018	14.299	217.0	0.472213155	0.559796359	0.007850201	0.080989074	0.024961619
2020-07-02T02:10:00	0.2016	14.287	217.0	0.471523687	0.558858234	0.007829415	0.080774630	0.024895525
2020-07-02T02:15:00	0.2018	14.275	216.0	0.472219351	0.559804792	0.007850388	0.080991003	0.024962214
2020-07-02T02:20:00	0.2023	14.264	216.0	0.473953239	0.562165688	0.007902781	0.081531540	0.025128812
2020-07-02T02:25:00	0.2031	14.253	216.0	0.476723755	0.565943043	0.007986857	0.082398929	0.025396150
2020-07-02T02:30:00	0.2032	14.242	216.0	0.477072617	0.566419119	0.007997475	0.082508472	0.025429912
2020-07-02T02:35:00	0.2027	14.230	216.0	0.475346519	0.564064539	0.007945008	0.081967179	0.025263081
2020-07-02T02:40:00	0.2027	14.219	216.0	0.475349614	0.564068759	0.007945102	0.081968148	0.025263379
2020-07-02T02:45:00	0.2027	14.207	216.0	0.475352709	0.564072980	0.007945195	0.081969117	0.025263678
2020-07-02T02:50:00	0.2021	14.195	216.0	0.473279612	0.561248181	0.007882406	0.081321327	0.025064023
2020-07-02T02:55:00	0.2028	14.185	216.0	0.475704808	0.564553088	0.007955884	0.082079391	0.025297666
2020-07-02T03:00:00	0.2030	14.174	216.0	0.476399612	0.565500787	0.007976997	0.082297212	0.025364800
2020-07-02T03:05:00	0.2024	14.163	216.0	0.474327157	0.562675136	0.007914103	0.081648341	0.025164812
2020-07-02T03:10:00	0.2019	14.153	216.0	0.472599656	0.560322418	0.007861865	0.081109411	0.024998708
2020-07-02T03:15:00	0.2011	14.143	216.0	0.469831956	0.556557979	0.007778528	0.080249640	0.024733718
2020-07-02T03:20:00	0.2011	14.133	216.0	0.469835057	0.556562192	0.007778621	0.080250601	0.024734015
2020-07-02T03:25:00	0.2004	14.124	217.0	0.467411846	0.553271294	0.007706016	0.079501550	0.024503150
2020-07-02T03:30:00	0.1998	14.115	216.0	0.465333866	0.550452954	0.007644022	0.078861971	0.024306025
2020-07-02T03:35:00	0.2006	14.108	216.0	0.468111460	0.554220942	0.007726944	0.079717455	0.024569694
2020-07-02T03:40:00	0.1995	14.102	216.0	0.464299053	0.549050727	0.007613242	0.078544416	0.024208152
2020-07-02T03:45:00	0.1987	14.095	217.0	0.461524529	0.545295285	0.007531016	0.077696105	0.023946694
2020-07-02T03:50:00	0.1983	14.089	217.0	0.460137964	0.543420791	0.007490088	0.077273860	0.023816554
2020-07-02T03:55:00	0.1988	14.084	217.0	0.461878074	0.545773484	0.007541469	0.077803949	0.023979933
2020-07-02T04:00:00	0.1991	14.078	217.0	0.462922950	0.547187349	0.007572405	0.078123106	0.024078300
2020-07-02T04:05:00	0.1989	14.074	217.0	0.462231581	0.546251732	0.007551929	0.077911856	0.024013191
2020-07-02T04:10:00	0.1992	14.071	217.0	0.463276348	0.547665741	0.007582882	0.078231196	0.024111615
2020-07-02T04:15:00	0.1996	14.069	217.0	0.464667832	0.549550345	0.007624204	0.078657511	0.024243009
2020-07-02T04:20:00	0.2000	14.067	216.0	0.466058741	0.551435705	0.007665620	0.079084790	0.024374700
2020-07-02T04:25:00	0.1995	14.064	217.0	0.464327002	0.549088588	0.007614073	0.078552984	0.024210793
2020-07-02T04:30:00	0.1996	14.063	216.0	0.464677147	0.549562966	0.007624481	0.078660369	0.024243890
2020-07-02T04:35:00	0.2001	14.063	217.0	0.466414913	0.551918739	0.007676243	0.079194387	0.024408479
2020-07-02T04:40:00	0.2010	14.065	217.0	0.469538157	0.556158731	0.007769707	0.080158639	0.024705671
2020-07-02T04:45:00	0.2001	14.062	217.0	0.466421120	0.551927157	0.007676429	0.079196298	0.024409068
2020-07-02T04:50:00	0.2014	14.062	217.0	0.470930160	0.558050953	0.007811543	0.080590250	0.024838698
2020-07-02T04:55:00	0.2009	14.060	217.0	0.469200920	0.555700538	0.007759589	0.080054245	0.024673496
2020-07-02T05:00:00	0.2011	14.059	217.0	0.469897063	0.556646462	0.007780483	0.080269813	0.024739936
2020-07-02T05:05:00	0.2030	14.059	216.0	0.476476969	0.565606324	0.007979350	0.082321481	0.025372280
2020-07-02T05:10:00	0.2023	14.058	217.0	0.474058520	0.562309118	0.007905968	0.081564418	0.025138946
2020-07-02T05:15:00	0.2029	14.062	216.0	0.476137329	0.565142993	0.007969024	0.082214953	0.025339447
2020-07-02T05:20:00	0.2036	14.066	216.0	0.478560477	0.568450622	0.008042837	0.082976468	0.025574153
2020-07-02T05:25:00	0.2030	14.070	216.0	0.476489345	0.565623210	0.007979726	0.082325365	0.025373477
2020-07-02T05:30:00	0.2040	14.073	215.0	0.479948770	0.570347769	0.008085278	0.083414327	0.025709106
2020-07-02T05:35:00	0.2036	14.074	215.0	0.478569754	0.568463294	0.008043120	0.082979390	0.025575054
2020-07-02T05:40:00	0.2038	14.079	217.0	0.479263970	0.569411775	0.008064330	0.083198202	0.025642494
2020-07-02T05:45:00	0.2047	14.087	216.0	0.482375371	0.573667489	0.008159727	0.084182400	0.025945833
2020-07-02T05:50:00	0.2049	14.090	216.0	0.483068808	0.574617011	0.008181064	0.084402528	0.026013679
2020-07-02T05:55:00	0.2057	14.094	216.0	0.485831881	0.578404298	0.008266357	0.085282482	0.026284889
2020-07-02T06:00:00	0.2051	14.104	216.0	0.483765190	0.575570953	0.008202519	0.084623878	0.026081901
2020-07-02T06:05:00	0.2049	14.118	216.0	0.483078073	0.574629700	0.008181349	0.084405471	0.026014586
2020-07-02T06:10:00	0.2053	14.127	216.0	0.484461430	0.576525087	0.008223998	0.084845470	0.026150198
2020-07-02T06:15:00	0.2069	14.136	216.0	0.489979983	0.584101478	0.008395228	0.086612022	0.026694666
2020-07-02T06:20:00	0.2068	14.143	216.0	0.489638611	0.583632103	0.008384585	0.086502221	0.026660824
2020-07-02T06:25:00	0.2073	14.158	216.0	0.491363614	0.586004878	0.008438434	0.087057770	0.026832050
2020-07-02T06:30:00	0.2073	14.178	217.0	0.491366694	0.586009117	0.008438531	0.087058764	0.026832356
2020-07-02T06:35:00	0.2078	14.192	216.0	0.493090821	0.588383074	0.008492524	0.087615800	0.027004040
2020-07-02T06:40:00	0.2083	14.212	216.0	0.494814074	0.590758211	0.008546660	0.088174318	0.027176181
2020-07-02T06:45:00	0.2091	14.224	217.0	0.497567621	0.594558334	0.008633519	0.089070425	0.027452370
2020-07-02T06:50:00	0.2103	14.238	216.0	0.501692241	0.600262048	0.008764446	0.090421170	0.027868683
2020-07-02T06:55:00	0.2100	14.249	216.0	0.500665394	0.598840798	0.008731759	0.090083947	0.027764747
2020-07-02T07:00:00	0.2110	14.257	216.0	0.504100316	0.603598374	0.008841338	0.091214459	0.028113182
2020-07-02T07:05:00	0.2113	14.260	216.0	0.505132268	0.605029545	0.008874392	0.091555471	0.028218285
2020-07-02T07:10:00	0.2127	14.264	216.0	0.509932692	0.611698343	0.009028963	0.093150142	0.028709778
2020-07-02T07:15:00	0.2153	14.268	216.0	0.518827335	0.624104070	0.009318891	0.096141279	0.029631676
2020-07-02T07:20:00	0.2159	14.279	216.0	0.520879025	0.626974736	0.009386419	0.096837953	0.029846398
2020-07-02T07:25:00	0.2146	14.289	216.0	0.516441832	0.620770629	0.009240683	0.095334424	0.029382995
2020-07-02T07:30:00	0.2162	14.296	216.0	0.521908990	0.628417122	0.009420411	0.097188640	0.029954483
2020-07-02T07:35:00	0.2167	14.291	216.0	0.523617793	0.630812064	0.009476942	0.097771865	0.030134238
2020-07-02T07:40:00	0.2182	14.291	216.0	0.528733021	0.637995398	0.009647182	0.099528200	0.030675558
2020-07-02T07:45:00	0.2187	14.290	216.0	0.530098034	0.639915886	0.009692869	0.099999539	0.030820829
2020-07-02T07:50:00	0.2176	14.290	216.0	0.526354382	0.634652421	0.009567829	0.098709530	0.030423236
2020-07-02T07:55:00	0.2179	14.303	216.0	0.527379661	0.636092801	0.009601993	0.099061989	0.030531867
2020-07-02T08:00:00	0.2180	14.322	216.0	0.527723386	0.636575878	0.009613460	0.099180292	0.030568329
2020-07-02T08:05:00	0.2175	14.336	216.0	0.526022720	0.634186663	0.009556791	0.098595649	0.030388137
2020-07-02T08:10:00	0.2174	14.336	216.0	0.525684926	0.633712387	0.009545555	0.098479732	0.030352410
2020-07-02T08:15:00	0.2158	14.348	216.0	0.520229885	0.626066110	0.009365027	0.096617257	0.029778377
2020-07-02T08:20:00	0.2151	14.381	216.0	0.517842300	0.622727048	0.009286557	0.095807695	0.029528862
2020-07-02T08:25:00	0.2157	14.410	217.0	0.519894577	0.625596899	0.009353987	0.096503358	0.029743272
2020-07-02T08:30:00	0.2151	14.403	216.0	0.517848413	0.622735592	0.009286757	0.095809763	0.029529500
2020-07-02T08:35:00	0.2143	14.411	217.0	0.515117277	0.618921718	0.009197401	0.094887888	0.029245369
2020-07-02T08:40:00	0.2138	14.437	216.0	0.513410359	0.616541172	0.009141774	0.094313996	0.029068490
2020-07-02T08:45:00	0.2134	14.475	217.0	0.512044825	0.614638431	0.009097394	0.093856138	0.028927373
2020-07-02T08:50:00	0.2130	14.507	217.0	0.510678747	0.612736439	0.009053105	0.093399211	0.028786544
2020-07-02T08:55:00	0.2123	14.543	217.0	0.508284498	0.609406560	0.008975742	0.092601072	0.028540550
2020-07-02T09:00:00	0.2120	14.544	217.0	0.507259631	0.607982606	0.008942727	0.092260471	0.028435573
2020-07-02T09:05:00	0.2115	14.550	217.0	0.505548790	0.605607446	0.008887751	0.091693293	0.028260763
2020-07-02T09:10:00	0.2109	14.599	217.0	0.503494037	0.602757950	0.008821948	0.091014408	0.028051524
2020-07-02T09:15:00	0.2103	14.658	218.0	0.501438046	0.599910141	0.008756348	0.090337632	0.027842936
2020-07-02T09:20:00	0.2090	14.698	218.0	0.496975557	0.593740723	0.008614806	0.088877365	0.027392867
2020-07-02T09:25:00	0.2090	14.704	218.0	0.496978633	0.593744970	0.008614903	0.088878367	0.027393176
2020-07-02T09:30:00	0.2082	14.702	219.0	0.494230765	0.589953978	0.008528316	0.087985066	0.027117852
2020-07-02T09:35:00	0.2077	14.710	218.0	0.492513376	0.587587723	0.008474421	0.087429040	0.026946479
2020-07-02T09:40:00	0.2073	14.723	218.0	0.491139456	0.585696410	0.008431427	0.086985479	0.026809769
2020-07-02T09:45:00	0.2076	14.731	218.0	0.492175338	0.587122246	0.008463833	0.087319803	0.026912811
2020-07-02T09:50:00	0.2072	14.735	218.0	0.490801282	0.585231117	0.008420861	0.086876473	0.026776173
2020-07-02T09:55:00	0.2074	14.741	218.0	0.491493000	0.586182948	0.008442480	0.087099511	0.026844915
2020-07-02T10:00:00	0.2066	14.758	218.0	0.488740697	0.582397947	0.008356623	0.086213740	0.026571912
2020-07-02T10:05:00	0.2070	14.778	218.0	0.490213111	0.584422074	0.008402500	0.086687046	0.026717790
2020-07-02T10:10:00	0.2070	14.799	218.0	0.490307551	0.584551960	0.008405447	0.086717448	0.026727160
2020-07-02T10:15:00	0.2076	14.837	218.0	0.492123524	0.587050906	0.008462210	0.087303065	0.026907653
2020-07-02T10:20:00	0.2085	14.857	218.0	0.495314396	0.591448244	0.008562410	0.088336806	0.027226262
2020-07-02T10:25:00	0.2094	14.874	218.0	0.498502280	0.595849625	0.008663102	0.089375623	0.027546435
2020-07-02T10:30:00	0.2091	14.917	218.0	0.497565636	0.594555592	0.008633456	0.089069777	0.027452170
2020-07-02T10:35:00	0.2092	14.964	219.0	0.497659872	0.594685754	0.008636437	0.089100525	0.027461647
2020-07-02T10:40:00	0.2093	15.034	219.0	0.498097740	0.595290642	0.008650292	0.089243463	0.027505702
2020-07-02T10:45:00	0.2086	15.070	220.0	0.495785863	0.592098666	0.008577265	0.088490060	0.027273496
2020-07-02T10:50:00	0.2088	15.104	220.0	0.496567760	0.593177740	0.008601929	0.088744511	0.027351920
2020-07-02T10:55:00	0.2080	15.148	220.0	0.493566766	0.589038826	0.008507458	0.087769880	0.027051530
2020-07-02T11:00:00	0.2084	15.186	220.0	0.495037093	0.591065769	0.008553679	0.088246729	0.027198499
2020-07-02T11:05:00	0.2086	15.195	220.0	0.495819162	0.592144610	0.008578314	0.088500888	0.027276833
2020-07-02T11:10:00	0.2081	15.208	220.0	0.493849800	0.589428872	0.008516346	0.087861573	0.027079790
2020-07-02T11:15:00	0.2079	15.215	220.0	0.493255998	0.588610633	0.008497705	0.087669258	0.027020517
2020-07-02T11:20:00	0.2079	15.214	220.0	0.493350354	0.588740633	0.008500666	0.087699803	0.027029931
2020-07-02T11:25:00	0.2081	15.231	220.0	0.494132810	0.589818950	0.008525238	0.087953305	0.027108063
2020-07-02T11:30:00	0.2071	15.256	220.0	0.490440957	0.584735449	0.008409611	0.086760402	0.026740399
2020-07-02T11:35:00	0.2069	15.268	220.0	0.489846560	0.583918014	0.008391068	0.086569098	0.026681437
2020-07-02T11:40:00	0.2063	15.273	220.0	0.487873736	0.581206948	0.008329669	0.085935657	0.026486204
2020-07-02T11:45:00	0.2062	15.286	220.0	0.487278890	0.580390117	0.008311200	0.085745115	0.026427477
2020-07-02T11:50:00	0.2076	15.323	220.0	0.492195806	0.587150428	0.008464474	0.087326415	0.026914849
2020-07-02T11:55:00	0.2075	15.347	220.0	0.491945971	0.586806460	0.008456652	0.087245721	0.026889979
2020-07-02T12:00:00	0.2071	15.353	221.0	0.490663171	0.585041118	0.008416548	0.086831974	0.026762458
2020-07-02T12:05:00	0.2072	15.371	220.0	0.490757599	0.585171021	0.008419497	0.086862397	0.026771834
2020-07-02T12:10:00	0.2075	15.369	221.0	0.491884913	0.586722404	0.008454741	0.087226006	0.026883902
2020-07-02T12:15:00	0.2070	15.360	221.0	0.490257699	0.584483395	0.008403891	0.086701399	0.026722213
2020-07-02T12:20:00	0.2056	15.382	221.0	0.485527124	0.577986274	0.008256928	0.085185204	0.026254907
2020-07-02T12:25:00	0.2060	15.435	221.0	0.486656174	0.579535321	0.008291887	0.085545870	0.026366068
2020-07-02T12:30:00	0.2056	15.467	221.0	0.485371375	0.577772668	0.008252111	0.085135511	0.026239591
2020-07-02T12:35:00	0.2053	15.490	222.0	0.484431107	0.576483524	0.008223062	0.084835813	0.026147222
2020-07-02T12:40:00	0.2050	15.511	222.0	0.483145465	0.574722002	0.008183424	0.084426880	0.026021184
2020-07-02T12:45:00	0.2058	15.523	222.0	0.485999951	0.578634864	0.008271559	0.085336153	0.026301431
2020-07-02T12:50:00	0.2059	15.532	222.0	0.486439322	0.579237722	0.008285167	0.085476540	0.026344700
2020-07-02T12:55:00	0.2051	15.557	222.0	0.483774453	0.575583644	0.008202805	0.084626824	0.026082809
2020-07-02T13:00:00	0.2055	15.574	222.0	0.484904087	0.577131909	0.008237668	0.084986504	0.026193666
2020-07-02T13:05:00	0.2068	15.587	222.0	0.489479969	0.583414007	0.008379642	0.086451217	0.026645105
2020-07-02T13:10:00	0.2057	15.604	222.0	0.485783056	0.578337321	0.008264846	0.085266893	0.026280085
2020-07-02T13:15:00	0.2061	15.629	223.0	0.487256752	0.580359724	0.008310513	0.085738028	0.026425293
2020-07-02T13:20:00	0.2059	15.659	223.0	0.486317007	0.579069879	0.008281378	0.085437446	0.026332651
2020-07-02T13:25:00	0.2058	15.692	223.0	0.486066739	0.578726494	0.008273627	0.085357485	0.026308006
2020-07-02T13:30:00	0.2058	15.734	223.0	0.486161294	0.578856225	0.008276555	0.085387692	0.026317316
2020-07-02T13:35:00	0.2057	15.780	223.0	0.485566148	0.578039797	0.008258135	0.085197657	0.026258745
2020-07-02T13:40:00	0.2049	15.821	223.0	0.482900593	0.574386639	0.008175885	0.084349103	0.025997213
2020-07-02T13:45:00	0.2050	15.852	223.0	0.483340366	0.574988959	0.008189427	0.084488810	0.026040272
2020-07-02T13:50:00	0.2052	15.872	224.0	0.484125130	0.576064170	0.008213620	0.084738400	0.026117198
2020-07-02T13:55:00	0.2048	15.883	224.0	0.482494192	0.573830163	0.008163381	0.084220099	0.025957452
2020-07-02T14:00:00	0.2048	15.889	224.0	0.482588848	0.573959761	0.008166293	0.084250136	0.025966710
2020-07-02T14:05:00	0.2045	15.891	224.0	0.481647808	0.572671650	0.008137370	0.083951744	0.025874743
2020-07-02T14:10:00	0.2041	15.889	224.0	0.480361110	0.570911540	0.008097905	0.083544595	0.025749256
2020-07-02T14:15:00	0.2036	15.880	224.0	0.478382760	0.568207877	0.008037412	0.082920499	0.025556903
2020-07-02T14:20:00	0.2031	15.872	224.0	0.476749055	0.565977566	0.007987627	0.082406871	0.025398598
2020-07-02T14:25:00	0.2028	15.876	224.0	0.475806391	0.564691622	0.007958969	0.082111220	0.025307475
2020-07-02T14:30:00	0.2024	15.877	224.0	0.474171441	0.562462966	0.007909387	0.081599690	0.025149817
2020-07-02T14:35:00	0.2024	15.880	224.0	0.474266329	0.562592253	0.007912261	0.081629334	0.025158954
2020-07-02T14:40:00	0.2026	15.876	224.0	0.475053199	0.563664656	0.007936109	0.081875371	0.025234784
2020-07-02T14:45:00	0.2028	15.876	224.0	0.475839886	0.564737302	0.007959987	0.082121716	0.025310710
2020-07-02T14:50:00	0.2023	15.873	224.0	0.473858891	0.562037160	0.007899926	0.081502081	0.025119733
2020-07-02T14:55:00	0.2019	15.870	224.0	0.472569227	0.560280998	0.007860946	0.081099933	0.024995787
2020-07-02T15:00:00	0.2023	15.869	224.0	0.474048682	0.562295715	0.007905671	0.081561346	0.025137999
2020-07-02T15:05:00	0.2019	15.879	224.0	0.472759091	0.560539456	0.007866679	0.081159076	0.025014015
2020-07-02T15:10:00	0.2018	15.891	224.0	0.472161584	0.559726176	0.007848645	0.080973025	0.024956673
2020-07-02T15:15:00	0.2014	15.897	224.0	0.470871272	0.557970872	0.007809771	0.080571968	0.024833063
2020-07-02T15:20:00	0.2021	15.899	224.0	0.473390011	0.561398524	0.007885743	0.081355760	0.025074635
2020-07-02T15:25:00	0.2018	15.890	224.0	0.472100168	0.559642598	0.007846793	0.080953913	0.024950782
2020-07-02T15:30:00	0.2009	15.878	224.0	0.469077431	0.555532780	0.007755885	0.080016035	0.024661719
2020-07-02T15:35:00	0.2012	15.864	224.0	0.470211981	0.557074502	0.007789945	0.080367425	0.024770021
2020-07-02T15:40:00	0.2006	15.859	224.0	0.468227682	0.554378738	0.007730423	0.079753350	0.024580757
2020-07-02T15:45:00	0.2008	15.859	224.0	0.468669366	0.554978517	0.007743653	0.079889836	0.024622823
2020-07-02T15:50:00	0.1999	15.859	224.0	0.465643552	0.550872761	0.007653246	0.078957127	0.024335353
2020-07-02T15:55:00	0.1999	15.865	224.0	0.465738680	0.551001731	0.007656080	0.078986369	0.024344366
2020-07-02T16:00:00	0.1996	15.869	224.0	0.464792937	0.549719861	0.007627925	0.078695896	0.024254840
2020-07-02T16:05:00	0.1996	15.869	224.0	0.464605730	0.549466202	0.007622358	0.078638461	0.024237137
2020-07-02T16:10:00	0.1981	15.868	224.0	0.459556323	0.542634925	0.007472952	0.077097072	0.023762066
2020-07-02T16:15:00	0.1974	15.864	224.0	0.456934957	0.539096466	0.007395963	0.076302784	0.023517259
2020-07-02T16:20:00	0.1970	15.845	224.0	0.455703628	0.537436227	0.007359934	0.075931079	0.023402696
2020-07-02T16:25:00	0.1961	15.835	224.0	0.452382738	0.532964537	0.007263194	0.074933032	0.023095088
2020-07-02T16:30:00	0.1958	15.826	224.0	0.451498141	0.531774863	0.007237531	0.074668271	0.023013486
2020-07-02T16:35:00	0.1951	15.813	224.0	0.448870472	0.528244614	0.007161562	0.073884513	0.022771924
2020-07-02T16:40:00	0.1944	15.799	224.0	0.446589656	0.525184764	0.007095939	0.073207493	0.022563260
2020-07-02T16:45:00	0.1942	15.785	224.0	0.445703527	0.523997075	0.007070523	0.072945284	0.022482445
2020-07-02T16:50:00	0.1940	15.768	224.0	0.445166227	0.523277225	0.007055134	0.072786519	0.022433512
2020-07-02T16:55:00	0.1941	15.749	224.0	0.445326968	0.523492554	0.007059736	0.072833998	0.022448146
2020-07-02T17:00:00	0.1933	15.733	224.0	0.442694451	0.519968578	0.006984550	0.072058320	0.022209074
2020-07-02T17:05:00	0.1933	15.719	224.0	0.442855310	0.520183753	0.006989133	0.072105601	0.022223646
2020-07-02T17:10:00	0.1928	15.705	224.0	0.440956338	0.517596177	0.006934472	0.071541674	0.022049839
2020-07-02T17:15:00	0.1917	15.691	224.0	0.438092268	0.512682074	0.006838862	0.070555277	0.021745822
2020-07-02T17:20:00	0.1907	15.678	223.0	0.435223290	0.507782542	0.006743901	0.069575579	0.021443869
2020-07-02T17:25:00	0.1902	15.663	223.0	0.433986065	0.505676747	0.006703200	0.069155674	0.021314450
2020-07-02T17:30:00	0.1898	15.649	223.0	0.432747917	0.503573654	0.006662619	0.068737010	0.021185414
2020-07-02T17:35:00	0.1894	15.632	223.0	0.431781879	0.501935727	0.006631061	0.068411434	0.021085068
2020-07-02T17:40:00	0.1895	15.614	224.0	0.431907604	0.502148748	0.006635163	0.068453753	0.021098111
2020-07-02T17:45:00	0.1895	15.595	223.0	0.432033319	0.502361797	0.006639266	0.068496084	0.021111158
2020-07-02T17:50:00	0.1893	15.577	223.0	0.431339972	0.501187335	0.006616656	0.068262817	0.021039263
2020-07-02T17:55:00	0.1893	15.558	223.0	0.431465730	0.501400259	0.006620753	0.068305090	0.021052292
2020-07-02T18:00:00	0.1888	15.540	223.0	0.429952402	0.498840951	0.006571548	0.067797445	0.020895831
2020-07-02T18:05:00	0.1879	15.524	222.0	0.427616777	0.494903489	0.006496044	0.067018492	0.020655750
2020-07-02T18:10:00	0.1874	15.510	223.0	0.426373835	0.492814279	0.006456081	0.066606195	0.020528676
2020-07-02T18:15:00	0.1870	15.493	222.0	0.425129947	0.490727773	0.006416237	0.066195137	0.020401984
2020-07-02T18:20:00	0.1862	15.478	223.0	0.423061915	0.487268330	0.006350327	0.065515157	0.020192408
2020-07-02T18:25:00	0.1858	15.463	223.0	0.421815495	0.485189015	0.006310803	0.065107391	0.020066730
2020-07-02T18:30:00	0.1855	15.447	223.0	0.421117804	0.484026984	0.006288745	0.064879818	0.019996590
2020-07-02T18:35:00	0.1846	15.431	222.0	0.418494254	0.479669396	0.006206217	0.064028401	0.019734175
2020-07-02T18:40:00	0.1841	15.415	222.0	0.417244305	0.477599977	0.006167132	0.063625160	0.019609892
2020-07-02T18:45:00	0.1839	15.400	222.0	0.416544635	0.476443481	0.006145318	0.063400118	0.019540532
2020-07-02T18:50:00	0.1835	15.385	222.0	0.415568937	0.474832988	0.006114978	0.063087102	0.019444058
2020-07-02T18:55:00	0.1834	15.369	222.0	0.415144378	0.474133027	0.006101805	0.062951192	0.019402169
2020-07-02T19:00:00	0.1831	15.353	222.0	0.414443790	0.472979069	0.006080104	0.062727309	0.019333166
2020-07-02T19:05:00	0.1825	15.337	222.0	0.412638269	0.470011371	0.006024394	0.062152559	0.019156022
2020-07-02T19:10:00	0.1824	15.319	222.0	0.412489232	0.469766802	0.006019809	0.062105259	0.019141444
2020-07-02T19:15:00	0.1827	15.301	222.0	0.413445013	0.471336291	0.006049248	0.062408972	0.019235051
2020-07-02T19:20:00	0.1832	15.284	222.0	0.414676145	0.473361638	0.006087296	0.062801508	0.019356035
2020-07-02T19:25:00	0.1839	15.265	222.0	0.416733181	0.476754998	0.006151192	0.063460714	0.019559208
2020-07-02T19:30:00	0.1843	15.246	222.0	0.417686431	0.478331469	0.006180940	0.063767616	0.019653798
2020-07-02T19:35:00	0.1843	15.228	222.0	0.417813248	0.478541385	0.006184904	0.063808512	0.019666403
2020-07-02T19:40:00	0.1844	15.211	221.0	0.417940054	0.478751328	0.006188869	0.063849422	0.019679012
2020-07-02T19:45:00	0.1855	15.194	221.0	0.421092500	0.483984864	0.006287945	0.064871573	0.019994049
2020-07-02T19:50:00	0.1861	15.177	221.0	0.422592369	0.486484515	0.006335420	0.065361363	0.020145007
2020-07-02T19:55:00	0.1864	15.161	221.0	0.423542171	0.488070656	0.006365597	0.065672686	0.020240960
2020-07-02T20:00:00	0.1853	15.145	221.0	0.420372795	0.482787626	0.006265242	0.064637345	0.019921858
2020-07-02T20:05:00	0.1872	15.130	221.0	0.425714161	0.491707202	0.006434932	0.066388004	0.020461428
2020-07-02T20:10:00	0.1900	15.117	221.0	0.433221765	0.504378019	0.006678132	0.068897052	0.021234741
2020-07-02T20:15:00	0.1927	15.108	221.0	0.440695535	0.517147747	0.006925732	0.071451505	0.022022048
2020-07-02T20:20:00	0.1911	15.104	221.0	0.436470358	0.509909413	0.006785078	0.070000398	0.021574803
2020-07-02T20:25:00	0.1915	15.097	221.0	0.437412197	0.511518596	0.006816279	0.070322289	0.021674012
2020-07-02T20:30:00	0.1911	15.087	220.0	0.436448865	0.509872722	0.006784367	0.069993063	0.021572542
2020-07-02T20:35:00	0.1924	15.075	220.0	0.439837767	0.515674228	0.006897035	0.071155436	0.021930796
2020-07-02T20:40:00	0.1924	15.061	220.0	0.439962886	0.515889036	0.006901216	0.071198576	0.021944092
2020-07-02T20:45:00	0.1933	15.047	221.0	0.442597955	0.519839509	0.006981802	0.072029964	0.022200334
2020-07-02T20:50:00	0.1936	15.036	220.0	0.443806541	0.521456595	0.007016264	0.072385505	0.022309916
2020-07-02T20:55:00	0.1943	15.023	221.0	0.446061706	0.524477072	0.007080791	0.073051216	0.022515094
2020-07-02T21:00:00	0.1942	15.009	221.0	0.445873452	0.524224779	0.007075393	0.072995530	0.022497931
2020-07-02T21:05:00	0.1936	14.994	220.0	0.443590592	0.521167571	0.007010100	0.072321914	0.022290316
2020-07-02T21:10:00	0.1935	14.978	220.0	0.443402198	0.520915457	0.007004725	0.072266461	0.022273225
2020-07-02T21:15:00	0.1937	14.963	220.0	0.444261373	0.522065457	0.007029255	0.072519529	0.022351223
2020-07-02T21:20:00	0.1935	14.948	220.0	0.443374628	0.520878565	0.007003939	0.072258347	0.022270724
2020-07-02T21:25:00	0.1921	14.934	220.0	0.439187004	0.514557687	0.006875311	0.070931319	0.021861721
2020-07-02T21:30:00	0.1931	14.918	220.0	0.441949831	0.518972792	0.006963355	0.071839652	0.022141678
2020-07-02T21:35:00	0.1929	14.902	220.0	0.441411927	0.518253720	0.006948064	0.071681890	0.022093055
2020-07-02T21:40:00	0.1931	14.886	220.0	0.441922249	0.518935916	0.006962571	0.071831558	0.022139184
2020-07-02T21:45:00	0.1934	14.870	220.0	0.443131079	0.520552687	0.006996994	0.072186693	0.022248640
2020-07-02T21:50:00	0.1932	14.854	220.0	0.442244035	0.519366181	0.006971726	0.071926010	0.022168295
2020-07-02T21:55:00	0.1941	14.838	220.0	0.445547430	0.523787919	0.007066051	0.072899142	0.022468224
2020-07-02T22:00:00	0.1946	14.822	219.0	0.447103811	0.525874177	0.007110706	0.073359845	0.022610217
2020-07-02T22:05:00	0.1936	14.808	219.0	0.443626070	0.521215052	0.007011113	0.072332360	0.022293536
2020-07-02T22:10:00	0.1937	14.793	220.0	0.443987754	0.521699156	0.007021439	0.072438888	0.022326369
2020-07-02T22:15:00	0.1937	14.779	219.0	0.444000251	0.521715885	0.007021796	0.072442570	0.022327504
2020-07-02T22:20:00	0.1931	14.765	219.0	0.441917105	0.518929038	0.006962424	0.071830048	0.022138719
2020-07-02T22:25:00	0.1927	14.752	219.0	0.440654812	0.517077744	0.006924368	0.071437432	0.022017710
2020-07-02T22:30:00	0.1915	14.739	219.0	0.437402613	0.511502208	0.006815961	0.070319009	0.021673001
2020-07-02T22:35:00	0.1916	14.725	219.0	0.437684419	0.511984163	0.006825313	0.070415494	0.021702739
2020-07-02T22:40:00	0.1916	14.712	219.0	0.437694155	0.512000819	0.006825636	0.070418829	0.021703767
2020-07-02T22:45:00	0.1910	14.700	219.0	0.436070841	0.509227566	0.006771869	0.069864129	0.021532803
2020-07-02T22:50:00	0.1889	14.687	219.0	0.430352281	0.499516598	0.006584528	0.067931360	0.020937105
2020-07-02T22:55:00	0.1879	14.673	219.0	0.427627317	0.494921224	0.006496384	0.067021995	0.020656830
2020-07-02T23:00:00	0.1878	14.660	219.0	0.427363390	0.494477233	0.006487885	0.066934315	0.020629806
2020-07-02T23:05:00	0.1874	14.648	219.0	0.426277843	0.492653110	0.006453001	0.066574418	0.020518882
2020-07-02T23:10:00	0.1869	14.636	218.0	0.424917443	0.490371745	0.006409445	0.066125067	0.020380388
2020-07-02T23:15:00	0.1860	14.623	219.0	0.422457997	0.486260319	0.006331158	0.065317392	0.020131454
2020-07-02T23:20:00	0.1852	14.611	219.0	0.420269784	0.482616384	0.006261996	0.064603863	0.019911538
2020-07-02T23:25:00	0.1848	14.599	218.0	0.419179491	0.480805706	0.006227708	0.064250120	0.019802511
2020-07-02T23:30:00	0.1848	14.588	218.0	0.419189338	0.480822045	0.006228018	0.064253309	0.019803494
2020-07-02T23:35:00	0.1851	14.577	218.0	0.420024346	0.482208492	0.006254268	0.064524128	0.019886963
2020-07-02T23:40:00	0.1844	14.566	218.0	0.418108167	0.479029730	0.006194128	0.063903682	0.019695735
2020-07-02T23:45:00	0.1832	14.555	218.0	0.414810918	0.473583607	0.006091470	0.062844570	0.019369307
2020-07-02T23:50:00	0.1835	14.544	218.0	0.415648202	0.474963725	0.006117440	0.063112496	0.019451884
2020-07-02T23:55:00	0.1834	14.534	218.0	0.415382316	0.474525249	0.006109185	0.063027339	0.019425638
2020-07-03T00:00:00	0.1842	14.523	218.0	0.417321459	0.477727588	0.006169540	0.063650006	0.019617550
2020-07-03T00:05:00	0.1853	14.512	218.0	0.420358346	0.482763606	0.006264787	0.064632648	0.019920410
2020-07-03T00:10:00	0.1848	14.502	218.0	0.418992977	0.480496287	0.006221854	0.064189724	0.019783896
2020-07-03T00:15:00	0.1843	14.492	218.0	0.417626451	0.478232200	0.006179065	0.063748278	0.019647838
2020-07-03T00:20:00	0.1849	14.482	218.0	0.419287805	0.480985440	0.006231110	0.064285209	0.019813326
2020-07-03T00:25:00	0.1859	14.473	218.0	0.422046384	0.485573868	0.006318113	0.065182809	0.020089975
2020-07-03T00:30:00	0.1870	14.464	218.0	0.425074433	0.490634753	0.006414463	0.066176827	0.020396341
2020-07-03T00:35:00	0.1869	14.454	218.0	0.424810094	0.490191941	0.006406016	0.066089687	0.020369483
2020-07-03T00:40:00	0.1873	14.446	218.0	0.425916228	0.492046186	0.006441405	0.066454793	0.020482012
2020-07-03T00:45:00	0.1862	14.436	217.0	0.422909394	0.487013659	0.006345483	0.065465176	0.020177003
2020-07-03T00:50:00	0.1855	14.427	218.0	0.420996633	0.483825305	0.006284918	0.064840343	0.019984424
2020-07-03T00:55:00	0.1854	14.419	217.0	0.420731629	0.483384372	0.006276555	0.064754063	0.019957831
2020-07-03T01:00:00	0.1848	14.411	218.0	0.419091456	0.480659649	0.006224945	0.064221609	0.019793724
2020-07-03T01:05:00	0.1847	14.403	217.0	0.418826140	0.480219592	0.006216621	0.064135730	0.019767255
2020-07-03T01:10:00	0.1850	14.395	217.0	0.419661336	0.481605513	0.006242848	0.064406307	0.019850649
2020-07-03T01:15:00	0.1852	14.388	217.0	0.420221173	0.482535584	0.006260465	0.064588066	0.019906669
2020-07-03T01:20:00	0.1848	14.380	217.0	0.419130847	0.480724998	0.006226181	0.064234365	0.019797655
2020-07-03T01:25:00	0.1846	14.373	217.0	0.418590332	0.479828642	0.006209228	0.064059460	0.019743748
2020-07-03T01:30:00	0.1844	14.366	217.0	0.418049637	0.478932792	0.006192297	0.063884787	0.019689912
2020-07-03T01:35:00	0.1844	14.358	217.0	0.418059491	0.478949112	0.006192605	0.063887968	0.019690892
2020-07-03T01:40:00	0.1826	14.349	217.0	0.413105974	0.470779267	0.006038795	0.062301135	0.019201815
2020-07-03T01:45:00	0.1822	14.342	217.0	0.412010797	0.468982107	0.006005106	0.061953567	0.019094691
2020-07-03T01:50:00	0.1827	14.334	216.0	0.413401886	0.471265419	0.006047917	0.062395249	0.019230822
2020-07-03T01:55:00	0.1830	14.326	217.0	0.414239909	0.472643504	0.006073797	0.062662247	0.019313113
2020-07-03T02:00:00	0.1828	14.318	217.0	0.413697744	0.471751721	0.006057046	0.062489432	0.019259850
2020-07-03T02:05:00	0.1835	14.310	217.0	0.415638926	0.474948425	0.006117152	0.063109524	0.019450968
2020-07-03T02:10:00	0.1841	14.303	217.0	0.417302335	0.477695955	0.006168943	0.063643846	0.019615652
2020-07-03T02:15:00	0.1848	14.297	216.0	0.419239164	0.480904723	0.006229582	0.064269450	0.019808469
2020-07-03T02:20:00	0.1836	14.292	216.0	0.415668533	0.474997261	0.006118071	0.063119011	0.019453892
2020-07-03T02:25:00	0.1834	14.288	216.0	0.415126852	0.474104144	0.006101261	0.062945586	0.019400441
2020-07-03T02:30:00	0.1834	14.283	217.0	0.415136724	0.474120413	0.006101567	0.062948744	0.019401414
2020-07-03T02:35:00	0.1834	14.279	217.0	0.415146596	0.474136683	0.006101873	0.062951902	0.019402388
2020-07-03T02:40:00	0.1837	14.273	217.0	0.415983705	0.475517286	0.006127865	0.063220050	0.019485033
2020-07-03T02:45:00	0.1845	14.267	217.0	0.418197440	0.479177600	0.006196922	0.063932507	0.019704620
2020-07-03T02:50:00	0.1842	14.263	216.0	0.417381202	0.477826413	0.006171405	0.063669248	0.019623481
2020-07-03T02:55:00	0.1842	14.260	217.0	0.417391060	0.477842721	0.006171713	0.063672424	0.019624459
2020-07-03T03:00:00	0.1842	14.259	217.0	0.417400918	0.477859029	0.006172021	0.063675599	0.019625438
2020-07-03T03:05:00	0.1845	14.256	217.0	0.418236852	0.479242889	0.006198156	0.063945235	0.019708542
2020-07-03T03:10:00	0.1838	14.253	216.0	0.416318545	0.476070061	0.006138280	0.063327501	0.019518151
2020-07-03T03:15:00	0.1837	14.250	216.0	0.416052770	0.475631278	0.006130012	0.063242204	0.019491862
2020-07-03T03:20:00	0.1845	14.247	216.0	0.418266411	0.479291857	0.006199082	0.063954782	0.019711485
2020-07-03T03:25:00	0.1841	14.243	216.0	0.417174761	0.477484965	0.006164961	0.063602770	0.019602991
2020-07-03T03:30:00	0.1841	14.242	217.0	0.417184620	0.477501269	0.006165269	0.063605944	0.019603970
2020-07-03T03:35:00	0.1840	14.239	216.0	0.416918989	0.477062089	0.006156984	0.063520465	0.019577624
2020-07-03T03:40:00	0.1835	14.238	216.0	0.415550698	0.474802907	0.006114412	0.063081260	0.019442257
2020-07-03T03:45:00	0.1836	14.235	216.0	0.415836291	0.475274023	0.006123283	0.063172779	0.019470464
2020-07-03T03:50:00	0.1841	14.234	216.0	0.417224057	0.477566489	0.006166500	0.063618641	0.019607883
2020-07-03T03:55:00	0.1850	14.233	216.0	0.419711148	0.481688232	0.006244414	0.064422467	0.019855630
2020-07-03T04:00:00	0.1860	14.231	216.0	0.422469006	0.486278685	0.006331507	0.065320993	0.020132565
2020-07-03T04:05:00	0.1863	14.228	216.0	0.423336267	0.487726589	0.006359047	0.065605119	0.020220135
2020-07-03T04:10:00	0.1872	14.223	216.0	0.425573869	0.491471918	0.006430439	0.066341658	0.020447143
2020-07-03T04:15:00	0.1882	14.217	216.0	0.428355664	0.496147485	0.006519873	0.067264324	0.020731518
2020-07-03T04:20:00	0.1890	14.211	216.0	0.430586425	0.499912421	0.006592135	0.068009847	0.020961295
2020-07-03T04:25:00	0.1898	14.205	216.0	0.432814174	0.503686089	0.006664787	0.068759375	0.021192307
2020-07-03T04:30:00	0.1897	14.200	216.0	0.432584828	0.503296952	0.006657285	0.068681979	0.021168453
2020-07-03T04:35:00	0.1900	14.195	216.0	0.433446761	0.504760171	0.006685505	0.068973124	0.021258187
2020-07-03T04:40:00	0.1911	14.188	216.0	0.436487594	0.509938841	0.006785648	0.070006281	0.021576616
2020-07-03T04:45:00	0.1926	14.183	216.0	0.440337941	0.516533204	0.006913760	0.071327986	0.021983978
2020-07-03T04:50:00	0.1926	14.177	216.0	0.440381257	0.516607624	0.006915209	0.071342941	0.021988587
2020-07-03T04:55:00	0.1932	14.172	216.0	0.442332152	0.519484019	0.006974234	0.071951885	0.022176270
2020-07-03T05:00:00	0.1934	14.165	216.0	0.443086458	0.520492987	0.006995721	0.072173568	0.022244595
2020-07-03T05:05:00	0.1942	14.159	216.0	0.445935032	0.524307304	0.007077159	0.073013743	0.022503545
2020-07-03T05:10:00	0.1941	14.152	216.0	0.445641706	0.523914238	0.007068752	0.072927008	0.022476812
2020-07-03T05:15:00	0.1952	14.144	216.0	0.449185431	0.528667471	0.007170647	0.073978242	0.022800813
2020-07-03T05:20:00	0.1961	14.134	216.0	0.452377137	0.532957001	0.007263031	0.074931354	0.023094571
2020-07-03T05:25:00	0.1963	14.124	216.0	0.453129184	0.533968893	0.007284884	0.075156802	0.023164056
2020-07-03T05:30:00	0.1967	14.114	216.0	0.454577266	0.535918567	0.007327052	0.075591841	0.023298140
2020-07-03T05:35:00	0.1972	14.105	216.0	0.456372621	0.538338102	0.007379498	0.076132920	0.023464905
2020-07-03T05:40:00	0.1969	14.096	216.0	0.455384315	0.537005883	0.007350605	0.075834833	0.023373032
2020-07-03T05:45:00	0.1974	14.091	216.0	0.456831425	0.538956824	0.007392930	0.076271496	0.023507616
2020-07-03T05:50:00	0.1982	14.085	215.0	0.459668353	0.542786270	0.007476251	0.077131108	0.023772556
2020-07-03T05:55:00	0.1990	14.079	216.0	0.462502891	0.546618846	0.007559961	0.077994722	0.024038731
2020-07-03T06:00:00	0.2001	14.075	215.0	0.466375747	0.551865616	0.007675075	0.079182332	0.024404764
2020-07-03T06:05:00	0.2007	14.071	215.0	0.468511466	0.554764080	0.007738922	0.079841029	0.024607781
2020-07-03T06:10:00	0.2004	14.068	216.0	0.467526718	0.553427193	0.007709451	0.079536980	0.024514070
2020-07-03T06:15:00	0.2000	14.066	215.0	0.465847951	0.551149883	0.007659337	0.079019963	0.024354720
2020-07-03T06:20:00	0.1997	14.064	215.0	0.464862425	0.549814021	0.007629992	0.078717221	0.024261412
2020-07-03T06:25:00	0.1996	14.066	215.0	0.464570747	0.549418805	0.007621318	0.078627730	0.024233830
2020-07-03T06:30:00	0.1990	14.071	215.0	0.462543283	0.546673506	0.007561157	0.078007063	0.024042534
2020-07-03T06:35:00	0.1990	14.080	215.0	0.462598659	0.546748444	0.007562797	0.078023983	0.024047749
2020-07-03T06:40:00	0.1990	14.088	215.0	0.462654034	0.546823384	0.007564437	0.078040904	0.024052965
2020-07-03T06:45:00	0.1991	14.093	216.0	0.463056614	0.547368277	0.007576367	0.078163980	0.024090898
2020-07-03T06:50:00	0.1988	14.099	215.0	0.461722963	0.545563671	0.007536882	0.077756625	0.023965347
2020-07-03T06:55:00	0.1993	14.104	215.0	0.463514508	0.547988191	0.007589947	0.078304082	0.024134078
2020-07-03T07:00:00	0.1996	14.104	215.0	0.464611114	0.549473498	0.007622518	0.078640112	0.024237646
2020-07-03T07:05:00	0.1997	14.110	215.0	0.465013461	0.550018698	0.007634486	0.078763580	0.024275700
2020-07-03T07:10:00	0.1999	14.122	215.0	0.465762688	0.551034280	0.007656796	0.078993749	0.024346641
2020-07-03T07:15:00	0.2005	14.176	216.0	0.467898795	0.553932232	0.007720579	0.079651795	0.024549457
2020-07-03T07:20:00	0.1995	14.183	216.0	0.464138393	0.548833100	0.007608469	0.078495170	0.024192974
2020-07-03T07:25:00	0.1999	14.191	216.0	0.465581743	0.550788967	0.007651405	0.078938131	0.024329499
2020-07-03T07:30:00	0.2004	14.160	216.0	0.467371238	0.553216185	0.007704802	0.079489026	0.024499290
2020-07-03T07:35:00	0.1997	14.193	216.0	0.464998488	0.549998406	0.007634040	0.078758984	0.024274284
2020-07-03T07:40:00	0.2001	14.222	216.0	0.466441470	0.551954758	0.007677036	0.079202562	0.024410999
2020-07-03T07:45:00	0.1996	14.184	216.0	0.464762162	0.549678160	0.007627010	0.078686453	0.024251929
2020-07-03T07:50:00	0.1996	14.247	216.0	0.464470476	0.549282956	0.007618337	0.078596977	0.024224352
2020-07-03T07:55:00	0.1994	14.257	216.0	0.463831674	0.548417681	0.007599360	0.078401197	0.024164010
2020-07-03T08:00:00	0.1997	14.200	216.0	0.464928177	0.549903123	0.007631948	0.078737401	0.024267632
2020-07-03T08:05:00	0.1994	14.198	216.0	0.463942382	0.548567615	0.007602647	0.078435110	0.024174463
2020-07-03T08:10:00	0.1996	14.230	216.0	0.464691847	0.549582884	0.007624919	0.078664879	0.024245280
2020-07-03T08:15:00	0.1991	14.248	216.0	0.463011667	0.547307434	0.007575034	0.078150234	0.024086661
2020-07-03T08:20:00	0.1989	14.286	216.0	0.462025311	0.545972664	0.007545825	0.077848884	0.023993782
2020-07-03T08:25:00	0.1979	14.275	216.0	0.458606006	0.541351509	0.007444996	0.076808654	0.023673173
2020-07-03T08:30:00	0.1980	14.289	216.0	0.459009071	0.541895766	0.007456847	0.076930918	0.023710856
2020-07-03T08:35:00	0.1972	14.317	216.0	0.456282547	0.538216652	0.007376862	0.076105728	0.023456525
2020-07-03T08:40:00	0.1971	14.347	216.0	0.455990124	0.537822412	0.007368309	0.076017485	0.023429327
2020-07-03T08:45:00	0.1976	14.382	217.0	0.457784725	0.540242932	0.007420878	0.076559826	0.023596482
2020-07-03T08:50:00	0.1983	14.422	216.0	0.460273392	0.543603808	0.007494081	0.077315051	0.023829250
2020-07-03T08:55:00	0.1977	14.435	217.0	0.457895632	0.540392605	0.007424132	0.076593405	0.023606831
2020-07-03T09:00:00	0.1982	14.422	217.0	0.459689216	0.542814455	0.007476866	0.077137447	0.023774510
2020-07-03T09:05:00	0.1983	14.418	217.0	0.460092151	0.543358882	0.007488738	0.077259928	0.023812260
2020-07-03T09:10:00	0.1980	14.475	217.0	0.459104939	0.542025234	0.007459667	0.076960012	0.023719823
2020-07-03T09:15:00	0.1978	14.545	217.0	0.458465117	0.541161296	0.007440856	0.076765940	0.023660008
2020-07-03T09:20:00	0.1978	14.606	217.0	0.458520560	0.541236147	0.007442485	0.076782748	0.023665188
2020-07-03T09:25:00	0.1982	14.600	217.0	0.459618795	0.542719318	0.007474792	0.077116050	0.023767916
2020-07-03T09:30:00	0.1984	14.576	217.0	0.460369223	0.543733323	0.007496907	0.077344206	0.023838235
2020-07-03T09:35:00	0.1972	14.601	217.0	0.456252521	0.538176169	0.007375984	0.076096665	0.023453731
2020-07-03T09:40:00	0.1976	14.595	217.0	0.457699258	0.540127598	0.007418370	0.076533954	0.023588508
2020-07-03T09:45:00	0.1970	14.625	217.0	0.455667646	0.537387730	0.007358882	0.075920231	0.023399353
2020-07-03T09:50:00	0.1967	14.677	218.0	0.454679133	0.536055782	0.007330023	0.075622491	0.023307586
2020-07-03T09:55:00	0.1963	14.703	218.0	0.452993941	0.533786889	0.007280952	0.075116235	0.023151553
2020-07-03T10:00:00	0.1963	14.712	218.0	0.453049474	0.533861621	0.007282566	0.075132891	0.023156687
2020-07-03T10:05:00	0.1965	14.691	218.0	0.453745850	0.534798960	0.007302826	0.075341913	0.023221109
2020-07-03T10:10:00	0.1970	14.708	218.0	0.455486158	0.537143130	0.007353579	0.075865524	0.023382491
2020-07-03T10:15:00	0.1969	14.718	218.0	0.455138168	0.536674202	0.007343417	0.075760681	0.023350178
2020-07-03T10:20:00	0.1960	14.733	218.0	0.452004640	0.532455966	0.007252219	0.074819811	0.023060192
2020-07-03T10:25:00	0.1964	14.749	218.0	0.453397680	0.534330267	0.007292693	0.075237372	0.023188889
2020-07-03T10:30:00	0.1971	14.767	218.0	0.455834111	0.537612105	0.007363748	0.075970427	0.023414823
2020-07-03T10:35:00	0.1966	14.808	218.0	0.454093984	0.535267700	0.007312965	0.075446515	0.023253349
2020-07-03T10:40:00	0.1974	14.836	218.0	0.456877755	0.539019311	0.007394287	0.076285497	0.023511931
2020-07-03T10:45:00	0.1976	14.864	219.0	0.457573337	0.539957685	0.007414676	0.076495845	0.023576762
2020-07-03T10:50:00	0.1978	14.883	218.0	0.458268775	0.540896246	0.007435088	0.076706434	0.023641668
2020-07-03T10:55:00	0.1978	14.907	219.0	0.458268775	0.540896246	0.007435088	0.076706434	0.023641668
2020-07-03T11:00:00	0.1974	14.941	219.0	0.456877755	0.539019311	0.007394287	0.076285497	0.023511931
2020-07-03T11:05:00	0.1987	14.974	219.0	0.461396470	0.545122098	0.007527232	0.077657060	0.023934660
2020-07-03T11:10:00	0.1979	14.996	219.0	0.458616441	0.541365597	0.007445303	0.076811818	0.023674148
2020-07-03T11:15:00	0.1978	15.016	220.0	0.458268775	0.540896246	0.007435088	0.076706434	0.023641668
2020-07-03T11:20:00	0.1981	15.021	220.0	0.459311664	0.542304440	0.007465750	0.077022768	0.023739165
2020-07-03T11:25:00	0.1981	15.020	220.0	0.459311664	0.542304440	0.007465750	0.077022768	0.023739165
2020-07-03T11:30:00	0.1974	15.029	220.0	0.456877755	0.539019311	0.007394287	0.076285497	0.023511931
2020-07-03T11:35:00	0.1977	15.058	220.0	0.457921074	0.540426942	0.007424879	0.076601109	0.023609206
2020-07-03T11:40:00	0.1972	15.078	220.0	0.456182028	0.538081126	0.007373922	0.076075390	0.023447174
2020-07-03T11:45:00	0.1974	15.111	220.0	0.456877755	0.539019311	0.007394287	0.076285497	0.023511931
2020-07-03T11:50:00	0.1970	15.144	220.0	0.455486158	0.537143130	0.007353579	0.075865524	0.023382491
2020-07-03T11:55:00	0.1968	15.168	220.0	0.454790143	0.536205321	0.007333261	0.075655898	0.023317883
2020-07-03T12:00:00	0.1962	15.165	220.0	0.452701232	0.533393023	0.007272445	0.075028471	0.023124503
2020-07-03T12:05:00	0.1973	15.180	220.0	0.456529909	0.538550195	0.007384101	0.076180413	0.023479543
2020-07-03T12:10:00	0.1962	15.181	220.0	0.452701232	0.533393023	0.007272445	0.075028471	0.023124503
2020-07-03T12:15:00	0.1968	15.192	221.0	0.454790143	0.536205321	0.007333261	0.075655898	0.023317883
2020-07-03T12:20:00	0.1951	15.216	221.0	0.448868182	0.528241539	0.007161496	0.073883831	0.022771714
2020-07-03T12:25:00	0.1955	15.244	220.0	0.450262525	0.530114147	0.007201759	0.074299218	0.022899741
2020-07-03T12:30:00	0.1957	15.256	220.0	0.450959480	0.531050734	0.007221925	0.074507274	0.022963865
2020-07-03T12:35:00	0.1957	15.273	221.0	0.450959480	0.531050734	0.007221925	0.074507274	0.022963865
2020-07-03T12:40:00	0.1956	15.288	221.0	0.450611021	0.530582417	0.007211839	0.074403216	0.022931794
2020-07-03T12:45:00	0.1951	15.291	221.0	0.448868182	0.528241539	0.007161496	0.073883831	0.022771714
2020-07-03T12:50:00	0.1946	15.282	221.0	0.447124436	0.525901836	0.007111299	0.073365960	0.022612101
2020-07-03T12:55:00	0.1933	15.288	221.0	0.442586442	0.519824110	0.006981474	0.072026581	0.022199292
2020-07-03T13:00:00	0.1927	15.310	221.0	0.440622269	0.517021807	0.006923278	0.071426187	0.022014245
2020-07-03T13:05:00	0.1919	15.356	221.0	0.438448307	0.513291709	0.006850703	0.070677443	0.021783474
2020-07-03T13:10:00	0.1918	15.400	222.0	0.438176364	0.512826037	0.006841658	0.070584121	0.021754712
2020-07-03T13:15:00	0.1918	15.402	222.0	0.438176364	0.512826037	0.006841658	0.070584121	0.021754712
2020-07-03T13:20:00	0.1920	15.408	222.0	0.438720206	0.513757512	0.006859755	0.070770825	0.021812255
2020-07-03T13:25:00	0.1910	15.414	222.0	0.435999223	0.509105384	0.006769503	0.069839718	0.021525279
2020-07-03T13:30:00	0.1916	15.411	222.0	0.437632344	0.511895087	0.006823584	0.070397659	0.021697242
2020-07-03T13:35:00	0.1911	15.398	222.0	0.436271521	0.509570007	0.006778502	0.069932558	0.021553893
2020-07-03T13:40:00	0.1913	15.381	222.0	0.436815983	0.510499646	0.006796517	0.070118417	0.021611177
2020-07-03T13:45:00	0.1919	15.369	222.0	0.438448307	0.513291709	0.006850703	0.070677443	0.021783474
2020-07-03T13:50:00	0.1912	15.382	222.0	0.436543774	0.510034761	0.006787507	0.070025457	0.021582526
2020-07-03T13:55:00	0.1918	15.409	222.0	0.438176364	0.512826037	0.006841658	0.070584121	0.021754712
2020-07-03T14:00:00	0.1913	15.446	222.0	0.436815983	0.510499646	0.006796517	0.070118417	0.021611177
2020-07-03T14:05:00	0.1923	15.480	222.0	0.439535640	0.515155709	0.006886944	0.071051332	0.021898711
2020-07-03T14:10:00	0.1925	15.511	222.0	0.440079042	0.516088495	0.006905100	0.071238639	0.021956440
2020-07-03T14:15:00	0.1921	15.535	223.0	0.438992062	0.514223447	0.006868812	0.070864267	0.021841055
2020-07-03T14:20:00	0.1920	15.558	223.0	0.438720206	0.513757512	0.006859755	0.070770825	0.021812255
2020-07-03T14:25:00	0.1921	15.572	223.0	0.438992062	0.514223447	0.006868812	0.070864267	0.021841055
2020-07-03T14:30:00	0.1923	15.580	223.0	0.439535640	0.515155709	0.006886944	0.071051332	0.021898711
2020-07-03T14:35:00	0.1918	15.587	223.0	0.438176364	0.512826037	0.006841658	0.070584121	0.021754712
2020-07-03T14:40:00	0.1922	15.576	223.0	0.439263873	0.514689512	0.006877875	0.070957769	0.021869874
2020-07-03T14:45:00	0.1918	15.563	223.0	0.438176364	0.512826037	0.006841658	0.070584121	0.021754712
2020-07-03T14:50:00	0.1909	15.565	223.0	0.435726881	0.508640893	0.006760510	0.069746939	0.021496684
2020-07-03T14:55:00	0.1912	15.570	223.0	0.436543774	0.510034761	0.006787507	0.070025457	0.021582526
2020-07-03T15:00:00	0.1914	15.569	223.0	0.437088148	0.510964662	0.006805534	0.070211437	0.021639847
2020-07-03T15:05:00	0.1907	15.569	223.0	0.435182063	0.507712304	0.006742542	0.069561562	0.021439549
2020-07-03T15:10:00	0.1905	15.569	223.0	0.434637066	0.506784239	0.006724597	0.069376425	0.021382488
2020-07-03T15:15:00	0.1906	15.576	223.0	0.434909587	0.507248206	0.006733566	0.069468963	0.021411009
2020-07-03T15:20:00	0.1909	15.578	223.0	0.435726881	0.508640893	0.006760510	0.069746939	0.021496684
2020-07-03T15:25:00	0.1912	15.571	223.0	0.436543774	0.510034761	0.006787507	0.070025457	0.021582526
2020-07-03T15:30:00	0.1908	15.557	223.0	0.435454494	0.508176533	0.006751523	0.069654220	0.021468107
2020-07-03T15:35:00	0.1906	15.546	223.0	0.434909587	0.507248206	0.006733566	0.069468963	0.021411009
2020-07-03T15:40:00	0.1905	15.539	223.0	0.434637066	0.506784239	0.006724597	0.069376425	0.021382488
2020-07-03T15:45:00	0.1906	15.522	223.0	0.434909587	0.507248206	0.006733566	0.069468963	0.021411009
2020-07-03T15:50:00	0.1901	15.503	223.0	0.433546537	0.504929684	0.006688777	0.069006875	0.021268589
2020-07-03T15:55:00	0.1889	15.493	223.0	0.430270636	0.499378611	0.006581876	0.067904005	0.020928674
2020-07-03T16:00:00	0.1895	15.486	223.0	0.431909397	0.502151787	0.006635221	0.068454357	0.021098298
2020-07-03T16:05:00	0.1893	15.475	223.0	0.431329548	0.501169689	0.006616316	0.068259313	0.021038183
2020-07-03T16:10:00	0.1894	15.454	223.0	0.431841867	0.502037362	0.006633018	0.068431624	0.021091291
2020-07-03T16:15:00	0.1886	15.436	223.0	0.429622589	0.498284023	0.006560854	0.067687117	0.020861827
2020-07-03T16:20:00	0.1878	15.426	223.0	0.427400317	0.494539342	0.006489074	0.066946578	0.020633586
2020-07-03T16:25:00	0.1877	15.410	223.0	0.427092691	0.494022052	0.006479175	0.066844458	0.020602111
2020-07-03T16:30:00	0.1876	15.395	223.0	0.426785007	0.493504927	0.006469284	0.066742414	0.020570660
2020-07-03T16:35:00	0.1866	15.386	222.0	0.424010356	0.488853428	0.006380503	0.065826478	0.020288360
2020-07-03T16:40:00	0.1865	15.373	223.0	0.423702091	0.488337962	0.006370686	0.065725193	0.020257143
2020-07-03T16:45:00	0.1867	15.356	222.0	0.424216796	0.489198776	0.006387083	0.065894360	0.020309282
2020-07-03T16:50:00	0.1862	15.341	222.0	0.423085385	0.487307525	0.006351073	0.065522850	0.020194779
2020-07-03T16:55:00	0.1858	15.325	222.0	0.421953186	0.485418505	0.006315162	0.065152360	0.020080590
2020-07-03T17:00:00	0.1862	15.309	222.0	0.423017490	0.487194146	0.006348916	0.065500597	0.020187920
2020-07-03T17:05:00	0.1860	15.292	222.0	0.422434486	0.486221097	0.006330413	0.065309700	0.020129084
2020-07-03T17:10:00	0.1854	15.271	222.0	0.420752207	0.483418604	0.006277204	0.064760761	0.019959895
2020-07-03T17:15:00	0.1851	15.250	222.0	0.419893405	0.481990950	0.006250147	0.064481614	0.019873860
2020-07-03T17:20:00	0.1851	15.231	222.0	0.419859391	0.481934448	0.006249077	0.064470573	0.019870457
2020-07-03T17:25:00	0.1850	15.213	222.0	0.419550335	0.481421209	0.006239358	0.064370307	0.019839554
2020-07-03T17:30:00	0.1849	15.196	222.0	0.419516314	0.481364727	0.006238289	0.064359275	0.019836154
2020-07-03T17:35:00	0.1847	15.180	222.0	0.418932047	0.480395228	0.006219943	0.064170002	0.019777818
2020-07-03T17:40:00	0.1849	15.164	221.0	0.419448270	0.481251769	0.006236150	0.064337215	0.019829354
2020-07-03T17:45:00	0.1847	15.147	221.0	0.418863978	0.480282339	0.006217807	0.064147973	0.019771028
2020-07-03T17:50:00	0.1852	15.129	221.0	0.420205291	0.482509187	0.006259965	0.064582905	0.019905079
2020-07-03T17:55:00	0.1852	15.110	221.0	0.420171283	0.482452666	0.006258894	0.064571856	0.019901673
2020-07-03T18:00:00	0.1853	15.092	221.0	0.420412216	0.482853167	0.006266484	0.064650161	0.019925808
2020-07-03T18:05:00	0.1848	15.075	221.0	0.419003012	0.480512932	0.006222169	0.064192973	0.019784898
2020-07-03T18:10:00	0.1846	15.056	221.0	0.418693793	0.480000152	0.006212471	0.064092917	0.019754059
2020-07-03T18:15:00	0.1848	15.038	221.0	0.419210091	0.480856481	0.006228669	0.064260032	0.019805566
2020-07-03T18:20:00	0.1852	15.021	221.0	0.420276199	0.482627048	0.006262198	0.064605947	0.019912180
2020-07-03T18:25:00	0.1857	15.002	220.0	0.421616341	0.484857179	0.006304502	0.065042381	0.020046694
2020-07-03T18:30:00	0.1853	14.983	220.0	0.420483115	0.482971053	0.006268719	0.064673216	0.019932913
2020-07-03T18:35:00	0.1851	14.964	220.0	0.419899198	0.482000574	0.006250329	0.064483494	0.019874439
2020-07-03T18:40:00	0.1855	14.944	221.0	0.420964852	0.483772415	0.006283915	0.064829992	0.019981233
2020-07-03T18:45:00	0.1863	14.925	221.0	0.423128005	0.487378703	0.006352427	0.065536821	0.020199085
2020-07-03T18:50:00	0.1858	14.905	220.0	0.421995835	0.485489599	0.006316512	0.065166293	0.020084884
2020-07-03T18:55:00	0.1865	14.884	220.0	0.423883309	0.488640956	0.006376456	0.065784724	0.020275491
2020-07-03T19:00:00	0.1870	14.861	220.0	0.425220480	0.490879488	0.006419132	0.066225002	0.020411189
2020-07-03T19:05:00	0.1872	14.839	220.0	0.425734707	0.491741665	0.006435590	0.066394793	0.020463520
2020-07-03T19:10:00	0.1868	14.814	220.0	0.424604349	0.489847420	0.006399447	0.066021912	0.020348594
2020-07-03T19:15:00	0.1873	14.790	220.0	0.425940929	0.492087634	0.006442197	0.066462960	0.020484530
2020-07-03T19:20:00	0.1877	14.763	220.0	0.427002634	0.493870666	0.006476279	0.066814581	0.020592903
2020-07-03T19:25:00	0.1885	14.736	220.0	0.429157804	0.497499693	0.006545801	0.067531823	0.020813964
2020-07-03T19:30:00	0.1890	14.708	219.0	0.430490680	0.499750544	0.006589024	0.067977745	0.020951401
2020-07-03T19:35:00	0.1888	14.682	219.0	0.430183632	0.499231588	0.006579052	0.067874862	0.020919692
2020-07-03T19:40:00	0.1896	14.654	219.0	0.432334645	0.502872630	0.006649107	0.068597613	0.021142451
2020-07-03T19:45:00	0.1899	14.627	219.0	0.433119468	0.504204314	0.006674781	0.068862482	0.021224086
2020-07-03T19:50:00	0.1900	14.599	219.0	0.433358503	0.504610249	0.006682612	0.068943278	0.021248988
2020-07-03T19:55:00	0.1908	14.573	218.0	0.435505402	0.508263304	0.006753202	0.069671544	0.021473446
2020-07-03T20:00:00	0.1909	14.545	219.0	0.435744094	0.508670245	0.006761079	0.069752801	0.021498491
2020-07-03T20:05:00	0.1910	14.517	218.0	0.435982752	0.509077287	0.006768959	0.069834105	0.021523549
2020-07-03T20:10:00	0.1914	14.489	218.0	0.437038028	0.510879012	0.006803873	0.070194302	0.021634566
2020-07-03T20:15:00	0.1912	14.461	218.0	0.436732189	0.510356517	0.006793743	0.070089793	0.021602355
2020-07-03T20:20:00	0.1914	14.431	218.0	0.437242845	0.511229067	0.006810662	0.070264343	0.021656153
2020-07-03T20:25:00	0.1922	14.402	218.0	0.439384756	0.514896853	0.006881908	0.070999377	0.021882698
2020-07-03T20:30:00	0.1922	14.375	218.0	0.439351142	0.514839194	0.006880787	0.070987806	0.021879131
2020-07-03T20:35:00	0.1920	14.347	217.0	0.438773879	0.513849486	0.006861542	0.070789267	0.021817940
2020-07-03T20:40:00	0.1923	14.317	218.0	0.439555677	0.515190088	0.006887613	0.071058234	0.021900838
2020-07-03T20:45:00	0.1923	14.291	217.0	0.439522066	0.515132419	0.006886491	0.071046658	0.021897270
2020-07-03T20:50:00	0.1927	14.263	217.0	0.440575115	0.516940759	0.006921699	0.071409895	0.022009223
2020-07-03T20:55:00	0.1926	14.237	217.0	0.440541525	0.516883029	0.006920575	0.071398291	0.022005647
2020-07-03T21:00:00	0.1926	14.208	217.0	0.440507935	0.516825301	0.006919450	0.071386688	0.022002071
2020-07-03T21:05:00	0.1923	14.182	217.0	0.439659366	0.515368020	0.006891075	0.071093953	0.021911847
2020-07-03T21:10:00	0.1924	14.154	216.0	0.439897466	0.515776716	0.006899030	0.071176018	0.021937140
2020-07-03T21:15:00	0.1923	14.128	216.0	0.439592149	0.515252671	0.006888831	0.071070796	0.021904710
2020-07-03T21:20:00	0.1927	14.102	216.0	0.440645154	0.517061142	0.006924045	0.071434095	0.022016682
2020-07-03T21:25:00	0.1928	14.074	216.0	0.440883114	0.517470255	0.006932018	0.071516351	0.022042034
2020-07-03T21:30:00	0.1931	14.048	216.0	0.441830757	0.518813594	0.006959969	0.071804714	0.022130910
2020-07-03T21:35:00	0.1930	14.023	216.0	0.441787543	0.518755821	0.006958740	0.071792036	0.022127003
2020-07-03T21:40:00	0.1929	14.000	216.0	0.441394908	0.518230973	0.006947580	0.071676902	0.022091517
2020-07-03T21:45:00	0.1927	13.975	216.0	0.440748775	0.517239274	0.006927516	0.071469907	0.022027719
2020-07-03T21:50:00	0.1924	13.950	215.0	0.439900328	0.515781629	0.006899125	0.071177004	0.021937444
2020-07-03T21:55:00	0.1915	13.926	215.0	0.437419716	0.511531454	0.006816528	0.070324863	0.021674806
2020-07-03T22:00:00	0.1912	13.902	215.0	0.436569582	0.510078827	0.006788361	0.070034267	0.021585241
2020-07-03T22:05:00	0.1914	13.878	215.0	0.437150041	0.511070440	0.006807585	0.070232602	0.021646370
2020-07-03T22:10:00	0.1913	13.855	215.0	0.436913985	0.510667066	0.006799763	0.070151903	0.021621498
2020-07-03T22:15:00	0.1918	13.831	215.0	0.438310354	0.513055455	0.006846114	0.070630093	0.021768880
2020-07-03T22:20:00	0.1914	13.807	215.0	0.437258317	0.511255515	0.006811175	0.070269636	0.021657784
2020-07-03T22:25:00	0.1921	13.783	215.0	0.439198087	0.514576692	0.006875681	0.070935132	0.021862897
2020-07-03T22:30:00	0.1924	13.759	215.0	0.439777635	0.515571008	0.006895026	0.071134709	0.021924408
2020-07-03T22:35:00	0.1925	13.735	214.0	0.440085350	0.516099327	0.006905310	0.071240815	0.021957111
2020-07-03T22:40:00	0.1935	13.716	214.0	0.443339424	0.520831458	0.007002935	0.072247988	0.022267531
2020-07-03T22:45:00	0.1932	13.695	214.0	0.442337889	0.519491692	0.006974397	0.071953570	0.022176789
2020-07-03T22:50:00	0.1938	13.672	214.0	0.444479573	0.522357608	0.007035491	0.072583868	0.022371053
2020-07-03T22:55:00	0.1941	13.650	214.0	0.445573045	0.523822240	0.007066785	0.072906713	0.022470557
2020-07-03T23:00:00	0.1940	13.626	214.0	0.445270318	0.523416663	0.007058114	0.072817263	0.022442988
2020-07-03T23:05:00	0.1942	13.603	214.0	0.445665620	0.523946282	0.007069437	0.072934078	0.022478991
2020-07-03T23:10:00	0.1944	13.580	214.0	0.446409809	0.524943663	0.007090777	0.073154239	0.022546847
2020-07-03T23:15:00	0.1947	13.556	214.0	0.447502651	0.526409109	0.007122172	0.073478134	0.022646674
2020-07-03T23:20:00	0.1949	13.533	214.0	0.448246431	0.527407019	0.007143578	0.073698974	0.022714740
2020-07-03T23:25:00	0.1952	13.510	213.0	0.449338674	0.528873240	0.007175069	0.074023867	0.022814875
2020-07-03T23:30:00	0.1954	13.488	214.0	0.450082047	0.529871678	0.007196541	0.074245388	0.022883150
2020-07-03T23:35:00	0.1959	13.466	213.0	0.451870457	0.532275507	0.007248327	0.074779650	0.023047814
2020-07-03T23:40:00	0.1960	13.447	212.0	0.452264982	0.532806133	0.007259775	0.074897761	0.023084217
2020-07-03T23:45:00	0.1964	13.426	213.0	0.453355917	0.534274053	0.007291478	0.075224837	0.023185025
2020-07-03T23:50:00	0.1969	13.406	213.0	0.455142583	0.536680150	0.007343546	0.075762010	0.023350587
2020-07-03T23:55:00	0.1968	13.385	212.0	0.454840719	0.536273454	0.007334736	0.075671121	0.023322575
2020-07-04T00:00:00	0.1966	13.361	213.0	0.454190740	0.535397993	0.007315784	0.075475599	0.023262313
2020-07-04T00:05:00	0.1963	13.338	212.0	0.453192445	0.534054032	0.007286723	0.075175781	0.023169906
2020-07-04T00:10:00	0.1965	13.317	212.0	0.453934964	0.535053578	0.007308333	0.075398726	0.023238620
2020-07-04T00:15:00	0.1964	13.296	212.0	0.453632992	0.534647024	0.007299541	0.075308019	0.023210663
2020-07-04T00:20:00	0.1958	13.279	212.0	0.451241173	0.531429389	0.007230084	0.074591446	0.022989808
2020-07-04T00:25:00	0.1962	13.260	212.0	0.452680721	0.533365425	0.007271849	0.075022322	0.023122608
2020-07-04T00:30:00	0.1952	13.242	212.0	0.449242527	0.528744136	0.007172294	0.073995240	0.022806052
2020-07-04T00:35:00	0.1958	13.224	212.0	0.451379801	0.531615757	0.007234101	0.074632886	0.023002580
2020-07-04T00:40:00	0.1956	13.207	212.0	0.450729151	0.530741170	0.007215258	0.074438484	0.022942664
2020-07-04T00:45:00	0.1959	13.188	211.0	0.451820586	0.532208440	0.007246880	0.074764726	0.023043215
2020-07-04T00:50:00	0.1963	13.172	211.0	0.453259885	0.534144799	0.007288685	0.075196017	0.023176143
2020-07-04T00:55:00	0.1960	13.155	211.0	0.452261313	0.532801198	0.007259669	0.074896662	0.023083879
2020-07-04T01:00:00	0.1959	13.138	211.0	0.451610834	0.531926388	0.007240798	0.074701975	0.023023874
2020-07-04T01:05:00	0.1957	13.121	211.0	0.450960230	0.531051742	0.007221947	0.074507498	0.022963934
2020-07-04T01:10:00	0.1956	13.105	211.0	0.450657989	0.530645536	0.007213198	0.074417237	0.022936115
2020-07-04T01:15:00	0.1958	13.090	211.0	0.451401070	0.531644353	0.007234717	0.074639245	0.023004540
2020-07-04T01:20:00	0.1955	13.074	211.0	0.450401944	0.530301471	0.007205791	0.074340814	0.022912561
2020-07-04T01:25:00	0.1952	13.059	211.0	0.449402520	0.528958976	0.007176912	0.074042880	0.022820735
2020-07-04T01:30:00	0.1951	13.045	211.0	0.449100139	0.528552952	0.007168186	0.073952854	0.022792988
2020-07-04T01:35:00	0.1945	13.029	210.0	0.446705083	0.525339518	0.007099253	0.073241683	0.022573798
2020-07-04T01:40:00	0.1946	13.015	211.0	0.447100216	0.525869355	0.007110603	0.073358779	0.022609888
2020-07-04T01:45:00	0.1945	13.002	211.0	0.446797627	0.525463600	0.007101910	0.073269100	0.022582248
2020-07-04T01:50:00	0.1949	12.988	211.0	0.448239084	0.527397160	0.007143366	0.073696791	0.022714067
2020-07-04T01:55:00	0.1952	12.972	211.0	0.449331330	0.528863378	0.007174857	0.074021681	0.022814201
2020-07-04T02:00:00	0.1952	12.957	211.0	0.449377566	0.528925466	0.007176192	0.074035449	0.022818444
2020-07-04T02:05:00	0.1956	12.942	210.0	0.450817914	0.530860463	0.007217827	0.074464990	0.022950833
2020-07-04T02:10:00	0.1954	12.928	210.0	0.450167156	0.529986017	0.007199001	0.074270770	0.022890973
2020-07-04T02:15:00	0.1961	12.911	210.0	0.452303840	0.532858403	0.007260903	0.074909399	0.023087804
2020-07-04T02:20:00	0.1966	12.895	210.0	0.454091066	0.535263771	0.007312880	0.075445638	0.023253078
2020-07-04T02:25:00	0.1965	12.881	210.0	0.453789108	0.534857198	0.007304086	0.075354906	0.023225114
2020-07-04T02:30:00	0.1967	12.867	210.0	0.454531495	0.535856917	0.007325717	0.075578072	0.023293896
2020-07-04T02:35:00	0.1966	12.854	210.0	0.454229576	0.535450292	0.007316916	0.075487274	0.023265911
2020-07-04T02:40:00	0.1971	12.841	210.0	0.456015778	0.537856995	0.007369059	0.076025225	0.023431713
2020-07-04T02:45:00	0.1964	12.827	210.0	0.453625657	0.534637150	0.007299327	0.075305816	0.023209984
2020-07-04T02:50:00	0.1966	12.811	210.0	0.454368081	0.535636821	0.007320953	0.075528921	0.023278747
2020-07-04T02:55:00	0.1969	12.797	210.0	0.455110340	0.536636706	0.007342605	0.075752300	0.023347595
2020-07-04T03:00:00	0.1974	12.784	210.0	0.456896074	0.539044020	0.007394824	0.076291033	0.023513637
2020-07-04T03:05:00	0.1970	12.771	210.0	0.455550636	0.537230026	0.007355463	0.075884957	0.023388481
2020-07-04T03:10:00	0.1970	12.759	210.0	0.455596786	0.537292225	0.007356812	0.075898869	0.023392768
2020-07-04T03:15:00	0.1972	12.747	209.0	0.456338774	0.538292465	0.007378507	0.076122702	0.023461756
2020-07-04T03:20:00	0.1974	12.737	209.0	0.457080598	0.539292918	0.007400230	0.076346809	0.023530828
2020-07-04T03:25:00	0.1977	12.725	209.0	0.458169970	0.540762875	0.007432186	0.076676497	0.023632441
2020-07-04T03:30:00	0.1979	12.711	209.0	0.458563756	0.541294465	0.007443755	0.076795844	0.023669225
2020-07-04T03:35:00	0.1982	12.699	209.0	0.459652647	0.542765051	0.007475789	0.077126336	0.023771086
2020-07-04T03:40:00	0.1989	12.688	209.0	0.462130611	0.546115123	0.007548940	0.077881028	0.024003689
2020-07-04T03:45:00	0.1986	12.676	208.0	0.461134671	0.544768083	0.007519497	0.077577269	0.023910068
2020-07-04T03:50:00	0.1992	12.666	208.0	0.463264394	0.547649557	0.007582528	0.078227539	0.024110487
2020-07-04T03:55:00	0.1990	12.655	210.0	0.462616042	0.546771969	0.007563312	0.078029294	0.024049386
2020-07-04T04:00:00	0.1988	12.645	209.0	0.461967565	0.545894545	0.007544116	0.077831259	0.023988350
2020-07-04T04:05:00	0.1997	12.635	209.0	0.464987365	0.549983333	0.007633709	0.078755569	0.024273231
2020-07-04T04:10:00	0.1997	12.625	209.0	0.464882901	0.549841769	0.007630601	0.078723505	0.024263349
2020-07-04T04:15:00	0.2000	12.617	208.0	0.466166194	0.551581420	0.007668824	0.079117846	0.024384889
2020-07-04T04:20:00	0.1999	12.606	208.0	0.465714869	0.550969448	0.007655371	0.078979049	0.024342110
2020-07-04T04:25:00	0.2000	12.597	208.0	0.465957336	0.551298199	0.007662597	0.079053601	0.024365087
2020-07-04T04:30:00	0.2001	12.587	208.0	0.466199785	0.551626973	0.007669826	0.079128181	0.024388074
2020-07-04T04:35:00	0.2001	12.580	208.0	0.466442216	0.551955770	0.007677058	0.079202792	0.024411070
2020-07-04T04:40:00	0.2006	12.571	209.0	0.468071606	0.554166834	0.007725751	0.079705148	0.024565901
2020-07-04T04:45:00	0.1997	12.564	208.0	0.464845642	0.549791279	0.007629493	0.078712070	0.024259824
2020-07-04T04:50:00	0.1996	12.557	208.0	0.464741174	0.549649721	0.007626385	0.078680013	0.024249944
2020-07-04T04:55:00	0.1991	12.549	208.0	0.462901125	0.547157807	0.007571758	0.078116433	0.024076243
2020-07-04T05:00:00	0.1997	12.545	208.0	0.464879246	0.549836816	0.007630492	0.078722383	0.024263003
2020-07-04T05:05:00	0.1997	12.542	208.0	0.465121773	0.550165487	0.007637709	0.078796834	0.024285950
2020-07-04T05:10:00	0.2000	12.539	209.0	0.466058113	0.551434852	0.007665601	0.079084597	0.024374641
2020-07-04T05:15:00	0.2004	12.536	208.0	0.467340958	0.553175093	0.007703897	0.079479689	0.024496412
2020-07-04T05:20:00	0.2003	12.534	209.0	0.466889791	0.552562914	0.007690418	0.079340627	0.024453552
2020-07-04T05:25:00	0.2003	12.534	209.0	0.467132172	0.552891776	0.007697658	0.079415321	0.024476573
2020-07-04T05:30:00	0.1999	12.535	209.0	0.465640369	0.550868446	0.007653151	0.078956149	0.024335052
2020-07-04T05:35:00	0.2000	12.537	208.0	0.465882841	0.551197190	0.007660376	0.079030692	0.024358027
2020-07-04T05:40:00	0.2003	12.540	208.0	0.467165753	0.552937342	0.007698662	0.079425672	0.024479764
2020-07-04T05:45:00	0.1999	12.545	208.0	0.465673965	0.550913993	0.007654152	0.078966475	0.024338235
2020-07-04T05:50:00	0.2007	12.550	208.0	0.468343821	0.554536432	0.007733901	0.079789227	0.024591815
2020-07-04T05:55:00	0.2002	12.557	209.0	0.466852554	0.552512396	0.007689306	0.079329155	0.024450016
2020-07-04T06:00:00	0.2004	12.565	208.0	0.467441694	0.553311801	0.007706909	0.079510755	0.024505987
2020-07-04T06:05:00	0.2017	12.576	208.0	0.471842023	0.559291332	0.007839009	0.080873607	0.024926031
2020-07-04T06:10:00	0.2024	12.588	209.0	0.474160976	0.562448708	0.007909070	0.081596421	0.025148809
2020-07-04T06:15:00	0.2025	12.603	209.0	0.474748842	0.563249798	0.007926880	0.081780162	0.025205440
2020-07-04T06:20:00	0.2030	12.620	208.0	0.476374230	0.565466160	0.007976226	0.082289250	0.025362346
2020-07-04T06:25:00	0.2031	12.639	208.0	0.476615932	0.565795923	0.007983577	0.082365087	0.025385720
2020-07-04T06:30:00	0.2037	12.662	209.0	0.478931615	0.568957644	0.008054172	0.083093411	0.025610196
2020-07-04T06:35:00	0.2038	12.689	208.0	0.479173135	0.569287650	0.008061553	0.083169556	0.025633665
2020-07-04T06:40:00	0.2044	12.718	209.0	0.481141753	0.571979246	0.008121837	0.083791497	0.025825353
2020-07-04T06:45:00	0.2049	12.748	209.0	0.483109228	0.574672370	0.008182308	0.084415368	0.026017636
2020-07-04T06:50:00	0.2053	12.778	209.0	0.484385623	0.576421181	0.008221658	0.084821329	0.026142757
2020-07-04T06:55:00	0.2051	12.808	209.0	0.483591655	0.575333199	0.008197170	0.084568692	0.026064892
2020-07-04T07:00:00	0.2048	12.837	209.0	0.482452318	0.573772833	0.008162093	0.084206812	0.025953357
2020-07-04T07:05:00	0.2047	12.866	210.0	0.482348392	0.573630555	0.008158897	0.084173841	0.025943195
2020-07-04T07:10:00	0.2045	12.897	210.0	0.481553948	0.572543212	0.008134488	0.083922011	0.025865579
2020-07-04T07:15:00	0.2049	12.979	210.0	0.482830928	0.574291239	0.008173741	0.084326982	0.025990395
2020-07-04T07:20:00	0.2048	12.997	210.0	0.482727014	0.574148945	0.008170544	0.084293991	0.025980227
2020-07-04T07:25:00	0.2047	13.050	210.0	0.482277895	0.573534045	0.008156730	0.084151479	0.025936303
2020-07-04T07:30:00	0.2047	13.089	210.0	0.482173964	0.573391774	0.008153535	0.084118517	0.025926144
2020-07-04T07:35:00	0.2052	13.169	211.0	0.484140840	0.576085699	0.008214104	0.084743400	0.026118739
2020-07-04T07:40:00	0.2060	13.232	211.0	0.486796166	0.579727460	0.008296227	0.085590642	0.026379867
2020-07-04T07:45:00	0.2060	13.225	211.0	0.486692374	0.579585003	0.008293009	0.085557446	0.026369636
2020-07-04T07:50:00	0.2069	13.270	211.0	0.490034639	0.584176636	0.008396933	0.086629608	0.026700086
2020-07-04T07:55:00	0.2070	13.391	212.0	0.490275370	0.584507699	0.008404443	0.086707087	0.026723966
2020-07-04T08:00:00	0.2063	13.316	211.0	0.487759905	0.581050615	0.008326133	0.085899178	0.026474961
2020-07-04T08:05:00	0.2062	13.281	211.0	0.487311451	0.580434823	0.008312210	0.085755539	0.026430690
2020-07-04T08:10:00	0.2053	13.305	211.0	0.484448809	0.576507787	0.008223608	0.084841450	0.026148959
2020-07-04T08:15:00	0.2050	13.334	212.0	0.483309759	0.574947035	0.008188484	0.084479084	0.026037274
2020-07-04T08:20:00	0.2055	13.385	212.0	0.484931045	0.577168871	0.008238501	0.084995096	0.026196314
2020-07-04T08:25:00	0.2051	13.399	211.0	0.483792158	0.575607902	0.008203351	0.084632456	0.026084545
2020-07-04T08:30:00	0.2041	13.435	212.0	0.480235758	0.570740139	0.008094066	0.083504983	0.025737047
2020-07-04T08:35:00	0.2028	13.489	212.0	0.475638089	0.564462106	0.007953858	0.082058490	0.025291224
2020-07-04T08:40:00	0.2021	13.524	212.0	0.473457871	0.561490942	0.007887795	0.081376929	0.025081160
2020-07-04T08:45:00	0.2028	13.574	212.0	0.475775717	0.564649789	0.007958038	0.082101608	0.025304513
2020-07-04T08:50:00	0.2036	13.647	212.0	0.478437603	0.568282785	0.008039086	0.082937769	0.025562226
2020-07-04T08:55:00	0.2031	13.675	214.0	0.476605005	0.565781013	0.007983244	0.082361658	0.025384663
2020-07-04T09:00:00	0.2032	13.719	213.0	0.477192447	0.566582668	0.008001123	0.082546115	0.025441514
2020-07-04T09:05:00	0.2034	13.825	214.0	0.477779786	0.567384458	0.008019019	0.082730744	0.025498419
2020-07-04T09:10:00	0.2042	13.851	214.0	0.480440098	0.571019552	0.008100325	0.083569561	0.025756950
2020-07-04T09:15:00	0.2034	14.000	215.0	0.477917326	0.567572257	0.008023213	0.082774009	0.025511753
2020-07-04T09:20:00	0.2042	14.124	215.0	0.480577530	0.571207495	0.008104536	0.083613008	0.025770341
2020-07-04T09:25:00	0.2036	14.096	215.0	0.478400493	0.568232098	0.008037953	0.082926083	0.025558624
2020-07-04T09:30:00	0.2040	14.047	215.0	0.480024129	0.570450793	0.008087585	0.083438127	0.025716441
2020-07-04T09:35:00	0.2037	14.077	215.0	0.478883591	0.568892031	0.008052705	0.083078274	0.025605531
2020-07-04T09:40:00	0.2037	14.129	215.0	0.478779556	0.568749898	0.008049527	0.083045488	0.025595426
2020-07-04T09:45:00	0.2020	14.172	216.0	0.472795439	0.560588940	0.007867777	0.081170401	0.025017506
2020-07-04T09:50:00	0.2038	14.209	216.0	0.479262600	0.569409903	0.008064288	0.083197770	0.025642361
2020-07-04T09:55:00	0.2037	14.254	216.0	0.478813021	0.568795618	0.008050549	0.083056034	0.025598676
2020-07-04T10:00:00	0.2041	14.301	216.0	0.480091035	0.570542265	0.008089634	0.083459260	0.025722955
2020-07-04T10:05:00	0.2034	14.349	216.0	0.477763773	0.567362594	0.008018531	0.082725707	0.025496866
2020-07-04T10:10:00	0.2024	14.391	216.0	0.474396997	0.562770303	0.007916218	0.081670166	0.025171538
2020-07-04T10:15:00	0.2027	14.435	216.0	0.475526667	0.564310170	0.007950475	0.082023590	0.025280467
2020-07-04T10:20:00	0.2021	14.482	217.0	0.473196262	0.561134680	0.007879886	0.081295335	0.025056012
2020-07-04T10:25:00	0.2016	14.516	217.0	0.471556950	0.558903485	0.007830417	0.080784969	0.024898712
2020-07-04T10:30:00	0.2003	14.552	217.0	0.467143837	0.552907604	0.007698007	0.079418917	0.024477681
2020-07-04T10:35:00	0.2005	14.587	218.0	0.467582561	0.553502985	0.007711120	0.079554207	0.024519379
2020-07-04T10:40:00	0.2006	14.627	218.0	0.468021228	0.554098441	0.007724243	0.079689593	0.024561106
2020-07-04T10:45:00	0.2001	14.670	218.0	0.466379400	0.551870572	0.007675184	0.079183456	0.024405110
2020-07-04T10:50:00	0.2003	14.712	218.0	0.467165007	0.552936330	0.007698639	0.079425442	0.024479693
2020-07-04T10:55:00	0.1995	14.756	218.0	0.464134737	0.548828148	0.007608360	0.078494050	0.024192629
2020-07-04T11:00:00	0.1983	14.795	219.0	0.460059405	0.543314632	0.007487773	0.077249971	0.023809191
2020-07-04T11:05:00	0.1984	14.832	219.0	0.460499053	0.543908799	0.007500736	0.077383712	0.023850412
2020-07-04T11:10:00	0.1968	14.864	219.0	0.455027525	0.536525125	0.007340187	0.075727361	0.023339908
2020-07-04T11:15:00	0.1971	14.892	219.0	0.455815786	0.537587404	0.007363212	0.075964900	0.023413120
2020-07-04T11:20:00	0.1965	14.910	219.0	0.453819865	0.534898608	0.007304981	0.075364146	0.023227962
2020-07-04T11:25:00	0.1964	14.934	219.0	0.453564060	0.534554230	0.007297535	0.075287320	0.023204283
2020-07-04T11:30:00	0.1967	14.954	220.0	0.454700736	0.536084882	0.007330653	0.075628992	0.023309590
2020-07-04T11:35:00	0.1959	14.986	220.0	0.451659209	0.531991434	0.007242200	0.074716445	0.023028334
2020-07-04T11:40:00	0.1955	15.019	220.0	0.450357893	0.530242282	0.007204517	0.074327670	0.022908510
2020-07-04T11:45:00	0.1947	15.055	220.0	0.447661225	0.526621827	0.007126733	0.073525190	0.022661178
2020-07-04T11:50:00	0.1949	15.096	220.0	0.448102499	0.527213875	0.007139433	0.073656213	0.022701560
2020-07-04T11:55:00	0.1944	15.145	220.0	0.446450908	0.524998759	0.007091956	0.073166407	0.022550597
2020-07-04T12:00:00	0.1929	15.197	220.0	0.441305856	0.518111951	0.006945050	0.071650801	0.022083473
2020-07-04T12:05:00	0.1925	15.234	221.0	0.440242016	0.516368412	0.006910550	0.071294874	0.021973773
2020-07-04T12:10:00	0.1914	15.269	221.0	0.437051467	0.510901978	0.006804318	0.070198896	0.021635982
2020-07-04T12:15:00	0.1916	15.292	221.0	0.437667841	0.511955806	0.006824762	0.070409816	0.021700989
2020-07-04T12:20:00	0.1918	15.321	221.0	0.438283988	0.513010307	0.006845237	0.070621045	0.021766092
2020-07-04T12:25:00	0.1922	15.351	221.0	0.439443517	0.514997655	0.006883869	0.071019608	0.021888933
2020-07-04T12:30:00	0.1918	15.391	222.0	0.438156310	0.512791707	0.006840991	0.070577242	0.021752592
2020-07-04T12:35:00	0.1912	15.433	222.0	0.436595913	0.510123789	0.006789232	0.070043257	0.021588012
2020-07-04T12:40:00	0.1906	15.470	222.0	0.435034056	0.507460185	0.006737666	0.069511254	0.021424044
2020-07-04T12:45:00	0.1907	15.499	222.0	0.435378777	0.508047488	0.006749026	0.069628460	0.021460168
2020-07-04T12:50:00	0.1903	15.535	222.0	0.434088432	0.505850818	0.006706561	0.069190358	0.021325140
2020-07-04T12:55:00	0.1913	15.567	222.0	0.436884730	0.510617085	0.006798794	0.070141906	0.021618417
2020-07-04T13:00:00	0.1910	15.594	223.0	0.436140235	0.509345968	0.006774163	0.069887787	0.021540095
2020-07-04T13:05:00	0.1900	15.612	223.0	0.433487383	0.504829182	0.006686837	0.068986864	0.021262422
2020-07-04T13:10:00	0.1905	15.645	223.0	0.434650247	0.506806675	0.006725030	0.069380899	0.021383867
2020-07-04T13:15:00	0.1901	15.663	223.0	0.433632067	0.505075017	0.006691582	0.069035816	0.021277509
2020-07-04T13:20:00	0.1899	15.691	223.0	0.433158923	0.504271307	0.006676073	0.068875814	0.021228195
2020-07-04T13:25:00	0.1902	15.720	224.0	0.433776739	0.505320890	0.006696328	0.069084784	0.021292601
2020-07-04T13:30:00	0.1890	15.755	224.0	0.430573769	0.499891021	0.006591724	0.068005603	0.020959987
2020-07-04T13:35:00	0.1883	15.785	224.0	0.428732727	0.496782898	0.006532053	0.067389987	0.020770248
2020-07-04T13:40:00	0.1877	15.818	224.0	0.427163424	0.494140970	0.006481451	0.066867930	0.020609346
2020-07-04T13:45:00	0.1872	15.849	224.0	0.425592617	0.491503357	0.006431040	0.066347850	0.020449052
2020-07-04T13:50:00	0.1864	15.874	224.0	0.423471592	0.487952704	0.006363351	0.065649521	0.020233820
2020-07-04T13:55:00	0.1870	15.895	225.0	0.425189868	0.490828186	0.006418153	0.066214903	0.020408076
2020-07-04T14:00:00	0.1877	15.916	225.0	0.427180138	0.494169072	0.006481988	0.066873478	0.020611055
2020-07-04T14:05:00	0.1873	15.941	225.0	0.425883364	0.491991047	0.006440352	0.066443927	0.020478664
2020-07-04T14:10:00	0.1866	15.966	225.0	0.424037044	0.488898067	0.006381354	0.065835251	0.020291064
2020-07-04T14:15:00	0.1868	15.990	225.0	0.424658296	0.489937742	0.006401169	0.066039678	0.020354070
2020-07-04T14:20:00	0.1872	16.014	225.0	0.425827409	0.491897172	0.006438559	0.066425431	0.020472963
2020-07-04T14:25:00	0.1872	16.034	225.0	0.425626076	0.491559469	0.006432111	0.066358903	0.020452458
2020-07-04T14:30:00	0.1872	16.051	226.0	0.425698766	0.491681382	0.006434439	0.066382918	0.020459860
2020-07-04T14:35:00	0.1867	16.065	225.0	0.424400815	0.489506715	0.006392952	0.065954906	0.020327943
2020-07-04T14:40:00	0.1868	16.078	225.0	0.424473560	0.489628472	0.006395273	0.065978850	0.020335322
2020-07-04T14:45:00	0.1865	16.086	226.0	0.423723439	0.488373651	0.006371366	0.065732204	0.020259304
2020-07-04T14:50:00	0.1865	16.095	226.0	0.423796214	0.488495322	0.006373683	0.065756108	0.020266671
2020-07-04T14:55:00	0.1859	16.101	226.0	0.422222158	0.485866951	0.006323682	0.065240260	0.020107682
2020-07-04T15:00:00	0.1855	16.098	226.0	0.420921429	0.483700155	0.006282544	0.064815851	0.019976875
2020-07-04T15:05:00	0.1854	16.092	226.0	0.420719487	0.483364175	0.006276172	0.064750112	0.019956613
2020-07-04T15:10:00	0.1850	16.092	226.0	0.419692612	0.481657451	0.006243831	0.064416454	0.019853777
2020-07-04T15:15:00	0.1849	16.086	226.0	0.419490518	0.481321902	0.006237478	0.064350911	0.019833576
2020-07-04T15:20:00	0.1858	16.075	226.0	0.421762481	0.485100671	0.006309125	0.065090082	0.020061395
2020-07-04T15:25:00	0.1866	16.062	226.0	0.424031265	0.488888401	0.006381170	0.065833352	0.020290478
2020-07-04T15:30:00	0.1865	16.058	226.0	0.423829710	0.488551329	0.006374749	0.065767113	0.020270063
2020-07-04T15:35:00	0.1860	16.053	226.0	0.422530269	0.486380896	0.006333450	0.065341039	0.020138743
2020-07-04T15:40:00	0.1864	16.050	226.0	0.423426526	0.487877398	0.006361918	0.065634732	0.020229262
2020-07-04T15:45:00	0.1870	16.047	226.0	0.425144850	0.490752745	0.006416714	0.066200052	0.020403499
2020-07-04T15:50:00	0.1860	16.041	226.0	0.422474199	0.486287350	0.006331672	0.065322693	0.020133088
2020-07-04T15:55:00	0.1861	16.028	226.0	0.422547030	0.486408863	0.006333982	0.065346524	0.020140433
2020-07-04T16:00:00	0.1861	16.016	226.0	0.422619857	0.486530385	0.006336292	0.065370360	0.020147780
2020-07-04T16:05:00	0.1860	16.006	226.0	0.422345291	0.486072312	0.006327585	0.065280524	0.020120092
2020-07-04T16:10:00	0.1858	15.996	226.0	0.421796019	0.485156560	0.006310187	0.065101032	0.020064770
2020-07-04T16:15:00	0.1840	15.986	226.0	0.416844157	0.476938399	0.006154651	0.063496397	0.019570206
2020-07-04T16:20:00	0.1839	15.974	226.0	0.416568606	0.476483081	0.006146065	0.063407820	0.019542906
2020-07-04T16:25:00	0.1845	15.946	226.0	0.418221200	0.479216959	0.006197666	0.063940180	0.019706984
2020-07-04T16:30:00	0.1837	15.917	226.0	0.416017364	0.475572838	0.006128911	0.063230846	0.019488361
2020-07-04T16:35:00	0.1827	15.893	226.0	0.413258300	0.471029492	0.006043490	0.062349571	0.019216743
2020-07-04T16:40:00	0.1828	15.871	226.0	0.413534421	0.471483236	0.006052006	0.062437429	0.019243822
2020-07-04T16:45:00	0.1829	15.848	225.0	0.413810494	0.471937112	0.006060528	0.062525347	0.019270919
2020-07-04T16:50:00	0.1828	15.825	225.0	0.413534421	0.471483236	0.006052006	0.062437429	0.019243822
2020-07-04T16:55:00	0.1826	15.797	226.0	0.412982131	0.470575879	0.006034980	0.062261773	0.019189683
2020-07-04T17:00:00	0.1812	15.769	225.0	0.409110726	0.464239068	0.005916446	0.061038883	0.018812776
2020-07-04T17:05:00	0.1825	15.743	225.0	0.412705915	0.470122397	0.006026475	0.062174034	0.019162641
2020-07-04T17:10:00	0.1826	15.717	225.0	0.412982131	0.470575879	0.006034980	0.062261773	0.019189683
2020-07-04T17:15:00	0.1839	15.691	225.0	0.416568606	0.476483081	0.006146065	0.063407820	0.019542906
2020-07-04T17:20:00	0.1844	15.665	225.0	0.417945886	0.478760985	0.006189051	0.063851303	0.019679592
2020-07-04T17:25:00	0.1848	15.641	225.0	0.419046861	0.480585668	0.006223545	0.064207169	0.019789273
2020-07-04T17:30:00	0.1852	15.619	225.0	0.420147085	0.482412451	0.006258132	0.064563994	0.019899250
2020-07-04T17:35:00	0.1853	15.597	224.0	0.420422024	0.482869474	0.006266793	0.064653351	0.019926791
2020-07-04T17:40:00	0.1842	15.578	224.0	0.417395115	0.477849430	0.006171839	0.063673730	0.019624862
2020-07-04T17:45:00	0.1851	15.559	224.0	0.419872099	0.481955558	0.006249477	0.064474698	0.019871728
2020-07-04T17:50:00	0.1850	15.542	224.0	0.419597067	0.481498797	0.006240827	0.064385462	0.019844225
2020-07-04T17:55:00	0.1852	15.525	224.0	0.420147085	0.482412451	0.006258132	0.064563994	0.019899250
2020-07-04T18:00:00	0.1850	15.508	224.0	0.419597067	0.481498797	0.006240827	0.064385462	0.019844225
2020-07-04T18:05:00	0.1852	15.493	224.0	0.420147085	0.482412451	0.006258132	0.064563994	0.019899250
2020-07-04T18:10:00	0.1860	15.477	224.0	0.422345291	0.486072312	0.006327585	0.065280524	0.020120092
2020-07-04T18:15:00	0.1852	15.463	224.0	0.420147085	0.482412451	0.006258132	0.064563994	0.019899250
2020-07-04T18:20:00	0.1850	15.452	224.0	0.419597067	0.481498797	0.006240827	0.064385462	0.019844225
2020-07-04T18:25:00	0.1848	15.442	224.0	0.419046861	0.480585668	0.006223545	0.064207169	0.019789273
2020-07-04T18:30:00	0.1856	15.428	224.0	0.421246561	0.484241332	0.006292812	0.064921779	0.020009523
2020-07-04T18:35:00	0.1847	15.414	224.0	0.418771688	0.480129301	0.006214913	0.064118113	0.019761825
2020-07-04T18:40:00	0.1849	15.400	224.0	0.419321987	0.481042167	0.006232183	0.064296285	0.019816740
2020-07-04T18:45:00	0.1851	15.385	223.0	0.419872099	0.481955558	0.006249477	0.064474698	0.019871728
2020-07-04T18:50:00	0.1849	15.370	223.0	0.419321987	0.481042167	0.006232183	0.064296285	0.019816740
2020-07-04T18:55:00	0.1844	15.357	223.0	0.417945886	0.478760985	0.006189051	0.063851303	0.019679592
2020-07-04T19:00:00	0.1840	15.342	223.0	0.416844157	0.476938399	0.006154651	0.063496397	0.019570206
2020-07-04T19:05:00	0.1844	15.327	223.0	0.417945886	0.478760985	0.006189051	0.063851303	0.019679592
2020-07-04T19:10:00	0.1849	15.311	223.0	0.419321987	0.481042167	0.006232183	0.064296285	0.019816740
2020-07-04T19:15:00	0.1847	15.294	223.0	0.418771688	0.480129301	0.006214913	0.064118113	0.019761825
2020-07-04T19:20:00	0.1846	15.277	223.0	0.418496467	0.479673064	0.006206287	0.064029116	0.019734395
2020-07-04T19:25:00	0.1846	15.261	223.0	0.418496467	0.479673064	0.006206287	0.064029116	0.019734395
2020-07-04T19:30:00	0.1849	15.242	223.0	0.419321987	0.481042167	0.006232183	0.064296285	0.019816740
2020-07-04T19:35:00	0.1854	15.224	223.0	0.420696916	0.483326629	0.006275460	0.064742767	0.019954349
2020-07-04T19:40:00	0.1856	15.207	222.0	0.421246561	0.484241332	0.006292812	0.064921779	0.020009523
2020-07-04T19:45:00	0.1857	15.190	223.0	0.421521313	0.484698880	0.006301496	0.065011375	0.020037137
2020-07-04T19:50:00	0.1857	15.175	222.0	0.421521313	0.484698880	0.006301496	0.065011375	0.020037137
2020-07-04T19:55:00	0.1867	15.159	223.0	0.424266282	0.489281577	0.006388661	0.065910639	0.020314299
2020-07-04T20:00:00	0.1865	15.142	222.0	0.423717659	0.488363988	0.006371182	0.065730306	0.020258719
2020-07-04T20:05:00	0.1867	15.125	222.0	0.424266282	0.489281577	0.006388661	0.065910639	0.020314299
2020-07-04T20:10:00	0.1860	15.108	222.0	0.422345291	0.486072312	0.006327585	0.065280524	0.020120092
2020-07-04T20:15:00	0.1858	15.091	222.0	0.421796019	0.485156560	0.006310187	0.065101032	0.020064770
2020-07-04T20:20:00	0.1865	15.074	222.0	0.423717659	0.488363988	0.006371182	0.065730306	0.020258719
2020-07-04T20:25:00	0.1868	15.058	222.0	0.424540525	0.489740568	0.006397410	0.066000895	0.020342117
2020-07-04T20:30:00	0.1863	15.041	222.0	0.423168851	0.487446924	0.006353725	0.065550213	0.020203212
2020-07-04T20:35:00	0.1857	15.026	222.0	0.421521313	0.484698880	0.006301496	0.065011375	0.020037137
2020-07-04T20:40:00	0.1854	15.011	222.0	0.420696916	0.483326629	0.006275460	0.064742767	0.019954349
2020-07-04T20:45:00	0.1865	14.998	222.0	0.423717659	0.488363988	0.006371182	0.065730306	0.020258719
2020-07-04T20:50:00	0.1866	14.984	222.0	0.423991994	0.488822717	0.006379918	0.065820442	0.020286500
2020-07-04T20:55:00	0.1871	14.971	222.0	0.425362975	0.491118328	0.006423690	0.066272025	0.020425682
2020-07-04T21:00:00	0.1861	14.960	222.0	0.422619857	0.486530385	0.006336292	0.065370360	0.020147780
2020-07-04T21:05:00	0.1856	14.949	222.0	0.421246561	0.484241332	0.006292812	0.064921779	0.020009523
2020-07-04T21:10:00	0.1856	14.938	222.0	0.421246561	0.484241332	0.006292812	0.064921779	0.020009523
2020-07-04T21:15:00	0.1866	14.927	222.0	0.423991994	0.488822717	0.006379918	0.065820442	0.020286500
2020-07-04T21:20:00	0.1865	14.916	222.0	0.423717659	0.488363988	0.006371182	0.065730306	0.020258719
2020-07-04T21:25:00	0.1862	14.905	222.0	0.422894377	0.486988589	0.006345006	0.065460257	0.020175487
2020-07-04T21:30:00	0.1868	14.896	221.0	0.424540525	0.489740568	0.006397410	0.066000895	0.020342117
2020-07-04T21:35:00	0.1880	14.888	221.0	0.427827846	0.495258692	0.006502846	0.067088660	0.020677377
2020-07-04T21:40:00	0.1885	14.877	221.0	0.429195620	0.497563485	0.006547025	0.067544450	0.020817855
2020-07-04T21:45:00	0.1884	14.868	221.0	0.428922156	0.497102264	0.006538177	0.067453171	0.020789723
2020-07-04T21:50:00	0.1885	14.857	221.0	0.429195620	0.497563485	0.006547025	0.067544450	0.020817855
2020-07-04T21:55:00	0.1888	14.848	220.0	0.430015738	0.498947935	0.006573602	0.067818645	0.020902365
2020-07-04T22:00:00	0.1888	14.839	220.0	0.430015738	0.498947935	0.006573602	0.067818645	0.020902365
2020-07-04T22:05:00	0.1890	14.829	220.0	0.430637174	0.499998232	0.006593785	0.068026865	0.020966541
2020-07-04T22:10:00	0.1889	14.819	220.0	0.430438875	0.499662967	0.006587341	0.067960380	0.020946049
2020-07-04T22:15:00	0.1890	14.810	221.0	0.430513797	0.499789625	0.006589775	0.067985495	0.020953790
2020-07-04T22:20:00	0.1885	14.801	221.0	0.429222100	0.497608157	0.006547882	0.067553292	0.020820581
2020-07-04T22:25:00	0.1895	14.791	220.0	0.432029053	0.502354565	0.006639127	0.068494647	0.021110716
2020-07-04T22:30:00	0.1892	14.783	221.0	0.431284822	0.501093974	0.006614859	0.068244283	0.021033551
2020-07-04T22:35:00	0.1889	14.774	221.0	0.430267015	0.499372492	0.006581759	0.067902792	0.020928300
2020-07-04T22:40:00	0.1889	14.765	221.0	0.430341944	0.499499127	0.006584192	0.067927896	0.020936037
2020-07-04T22:45:00	0.1898	14.756	221.0	0.432874187	0.503787938	0.006666750	0.068779635	0.021198552
2020-07-04T22:50:00	0.1899	14.748	220.0	0.432948999	0.503914916	0.006669199	0.068804898	0.021206338
2020-07-04T22:55:00	0.1897	14.739	220.0	0.432478101	0.503115917	0.006653795	0.068645981	0.021157358
2020-07-04T23:00:00	0.1904	14.730	220.0	0.434462029	0.506486348	0.006718840	0.069317029	0.021364182
2020-07-04T23:05:00	0.1904	14.721	220.0	0.434536769	0.506613536	0.006721298	0.069342387	0.021371997
2020-07-04T23:10:00	0.1896	14.713	220.0	0.432156769	0.502571047	0.006643297	0.068537668	0.021123975
2020-07-04T23:15:00	0.1889	14.706	220.0	0.430319939	0.499461936	0.006583477	0.067920523	0.020933765
2020-07-04T23:20:00	0.1897	14.697	219.0	0.432579357	0.503287671	0.006657106	0.068680134	0.021167884
2020-07-04T23:25:00	0.1890	14.689	219.0	0.430742998	0.500177194	0.006597226	0.068062362	0.020977481
2020-07-04T23:30:00	0.1894	14.679	220.0	0.431637218	0.501690677	0.006626343	0.068362762	0.021070067
2020-07-04T23:35:00	0.1892	14.669	220.0	0.431165947	0.500892766	0.006610988	0.068204345	0.021021241
2020-07-04T23:40:00	0.1888	14.658	219.0	0.430148067	0.499171496	0.006577897	0.067862951	0.020916021
2020-07-04T23:45:00	0.1892	14.648	219.0	0.431042610	0.500684044	0.006606973	0.068162922	0.021008475
2020-07-04T23:50:00	0.1890	14.638	219.0	0.430571169	0.499886626	0.006591640	0.068004731	0.020959719
2020-07-04T23:55:00	0.1896	14.628	219.0	0.432284475	0.502787558	0.006647468	0.068580702	0.021137238
2020-07-05T00:00:00	0.1892	14.617	219.0	0.431267283	0.501064286	0.006614288	0.068238390	0.021031734
2020-07-05T00:05:00	0.1894	14.606	219.0	0.431615230	0.501653436	0.006625626	0.068355366	0.021067788
2020-07-05T00:10:00	0.1898	14.593	219.0	0.432781850	0.503631234	0.006663729	0.068748463	0.021188944
2020-07-05T00:15:00	0.1899	14.581	219.0	0.433129478	0.504221311	0.006675109	0.068865865	0.021225128
2020-07-05T00:20:00	0.1893	14.568	219.0	0.431566801	0.501571413	0.006624047	0.068339077	0.021062767
2020-07-05T00:25:00	0.1889	14.554	219.0	0.430275928	0.499387555	0.006582048	0.067905778	0.020929220
2020-07-05T00:30:00	0.1891	14.539	219.0	0.430897266	0.500438136	0.006602243	0.068114128	0.020993436
2020-07-05T00:35:00	0.1891	14.524	218.0	0.430972167	0.500564854	0.006604680	0.068139271	0.021001185
2020-07-05T00:40:00	0.1888	14.508	218.0	0.429954167	0.498843931	0.006571605	0.067798036	0.020896013
2020-07-05T00:45:00	0.1889	14.492	218.0	0.430302391	0.499432277	0.006582908	0.067914643	0.020931953
2020-07-05T00:50:00	0.1885	14.475	218.0	0.429283977	0.497712552	0.006549885	0.067573958	0.020826950
2020-07-05T00:55:00	0.1889	14.458	218.0	0.430452244	0.499685567	0.006587775	0.067964861	0.020947430
2020-07-05T01:00:00	0.1888	14.442	218.0	0.429980635	0.498888638	0.006572464	0.067806895	0.020898743
2020-07-05T01:05:00	0.1892	14.425	218.0	0.431148408	0.500863082	0.006610417	0.068198453	0.021019426
2020-07-05T01:10:00	0.1903	14.409	218.0	0.434224728	0.506082627	0.006711039	0.069236554	0.021339378
2020-07-05T01:15:00	0.1900	14.394	218.0	0.433481482	0.504819158	0.006686644	0.068984868	0.021261806
2020-07-05T01:20:00	0.1899	14.379	218.0	0.433010737	0.504019717	0.006671220	0.068825749	0.021212764
2020-07-05T01:25:00	0.1894	14.364	217.0	0.431720992	0.501832579	0.006629075	0.068390946	0.021078754
2020-07-05T01:30:00	0.1890	14.348	218.0	0.430703454	0.500110316	0.006595940	0.068049096	0.020973392
2020-07-05T01:35:00	0.1894	14.332	217.0	0.431597696	0.501623737	0.006625055	0.068349468	0.021065970
2020-07-05T01:40:00	0.1895	14.318	217.0	0.431945573	0.502213089	0.006636402	0.068466536	0.021102051
2020-07-05T01:45:00	0.1892	14.305	217.0	0.431201304	0.500952608	0.006612139	0.068216222	0.021024902
2020-07-05T01:50:00	0.1894	14.293	217.0	0.431822294	0.502004199	0.006632379	0.068425036	0.021089261
2020-07-05T01:55:00	0.1884	14.280	217.0	0.428891490	0.497050556	0.006537186	0.067442940	0.020786569
2020-07-05T02:00:00	0.1880	14.269	217.0	0.427872202	0.495333353	0.006504275	0.067103411	0.020681923
2020-07-05T02:05:00	0.1883	14.258	217.0	0.428767982	0.496842327	0.006533193	0.067401743	0.020773872
2020-07-05T02:10:00	0.1884	14.248	217.0	0.429116457	0.497429948	0.006544463	0.067518018	0.020809709
2020-07-05T02:15:00	0.1886	14.241	217.0	0.429464858	0.498017782	0.006555743	0.067634391	0.020845576
2020-07-05T02:20:00	0.1890	14.233	216.0	0.430632996	0.499991168	0.006593649	0.068025464	0.020966109
2020-07-05T02:25:00	0.1894	14.227	217.0	0.431800308	0.501966950	0.006631662	0.068417637	0.021086980
2020-07-05T02:30:00	0.1891	14.222	217.0	0.430782819	0.500244545	0.006598521	0.068075722	0.020981599
2020-07-05T02:35:00	0.1894	14.216	216.0	0.431677018	0.501758091	0.006627641	0.068376151	0.021074194
2020-07-05T02:40:00	0.1897	14.211	218.0	0.432570734	0.503273043	0.006656824	0.068677225	0.021166988
2020-07-05T02:45:00	0.1900	14.207	222.0	0.433463967	0.504789402	0.006686069	0.068978944	0.021259980
2020-07-05T02:50:00	0.1903	14.203	222.0	0.434084109	0.505843466	0.006706419	0.069188893	0.021324689
2020-07-05T02:55:00	0.1908	14.199	216.0	0.435521415	0.508290599	0.006753731	0.069676993	0.021475126
2020-07-05T03:00:00	0.1911	14.195	216.0	0.436413065	0.509811606	0.006783183	0.069980847	0.021568777
2020-07-05T03:05:00	0.1913	14.192	216.0	0.437032110	0.510868898	0.006803677	0.070192278	0.021633942
2020-07-05T03:10:00	0.1916	14.188	216.0	0.437650925	0.511926869	0.006824201	0.070404022	0.021699203
2020-07-05T03:15:00	0.1915	14.185	216.0	0.437453461	0.511589155	0.006817648	0.070336413	0.021678365
2020-07-05T03:20:00	0.1916	14.182	217.0	0.437800116	0.512182098	0.006829155	0.070455130	0.021714955
2020-07-05T03:25:00	0.1916	14.179	216.0	0.437602670	0.511844332	0.006822599	0.070387497	0.021694110
2020-07-05T03:30:00	0.1921	14.177	217.0	0.439036951	0.514300403	0.006870308	0.070879703	0.021845813
2020-07-05T03:35:00	0.1922	14.176	216.0	0.439383278	0.514894318	0.006881859	0.070998869	0.021882541
2020-07-05T03:40:00	0.1927	14.175	216.0	0.440816038	0.517354919	0.006929770	0.071493159	0.022034886
2020-07-05T03:45:00	0.1931	14.175	216.0	0.441883468	0.518884066	0.006961468	0.071820179	0.022135677
2020-07-05T03:50:00	0.1934	14.174	216.0	0.443027238	0.520413758	0.006994033	0.072156152	0.022239227
2020-07-05T03:55:00	0.1943	14.174	216.0	0.446264849	0.524749351	0.007086618	0.073111329	0.022533621
2020-07-05T04:00:00	0.1936	14.174	217.0	0.443568007	0.521137346	0.007009456	0.072315266	0.022288267
2020-07-05T04:05:00	0.1945	14.175	216.0	0.446805095	0.525473614	0.007102125	0.073271312	0.022582930
2020-07-05T04:10:00	0.1949	14.174	217.0	0.448295921	0.527473433	0.007145003	0.073713680	0.022719272
2020-07-05T04:15:00	0.1949	14.173	217.0	0.448391541	0.527601760	0.007147758	0.073742098	0.022728031
2020-07-05T04:20:00	0.1948	14.173	216.0	0.447789691	0.526794171	0.007130429	0.073563322	0.022672930
2020-07-05T04:25:00	0.1949	14.174	216.0	0.448234068	0.527390428	0.007143222	0.073695301	0.022713607
2020-07-05T04:30:00	0.1950	14.176	216.0	0.448678387	0.527986762	0.007156024	0.073827378	0.022754315
2020-07-05T04:35:00	0.1955	14.178	216.0	0.450516884	0.530455918	0.007209116	0.074375116	0.022923133
2020-07-05T04:40:00	0.1953	14.180	216.0	0.449566848	0.529179658	0.007181657	0.074091827	0.022835821
2020-07-05T04:45:00	0.1953	14.185	216.0	0.449662432	0.529308032	0.007184417	0.074120305	0.022844598
2020-07-05T04:50:00	0.1952	14.188	216.0	0.449409429	0.528968255	0.007177112	0.074044938	0.022821369
2020-07-05T04:55:00	0.1951	14.191	216.0	0.448807761	0.528160429	0.007159754	0.073865858	0.022766175
2020-07-05T05:00:00	0.1952	14.195	216.0	0.449252004	0.528756861	0.007172568	0.073998062	0.022806921
2020-07-05T05:05:00	0.1954	14.199	216.0	0.450044742	0.529821562	0.007195463	0.074234263	0.022879721
2020-07-05T05:10:00	0.1953	14.207	216.0	0.449791768	0.529481748	0.007188153	0.074158848	0.022856477
2020-07-05T05:15:00	0.1950	14.214	216.0	0.448492847	0.527737724	0.007150676	0.073772211	0.022737312
2020-07-05T05:20:00	0.1950	14.219	216.0	0.448588462	0.527866058	0.007153432	0.073800638	0.022746073
2020-07-05T05:25:00	0.1956	14.227	216.0	0.450775487	0.530803441	0.007216599	0.074452320	0.022946928
2020-07-05T05:30:00	0.1954	14.236	216.0	0.450174064	0.529995297	0.007199201	0.074272831	0.022891608
2020-07-05T05:35:00	0.1956	14.245	216.0	0.450618125	0.530591964	0.007212045	0.074405336	0.022932447
2020-07-05T05:40:00	0.1954	14.256	216.0	0.450016674	0.529783857	0.007194652	0.074225894	0.022877141
2020-07-05T05:45:00	0.1949	14.269	216.0	0.448369147	0.527571706	0.007147112	0.073735442	0.022725979
2020-07-05T05:50:00	0.1944	14.281	217.0	0.446371910	0.524892859	0.007089689	0.073143019	0.022543389
2020-07-05T05:55:00	0.1944	14.299	217.0	0.446467585	0.525021115	0.007092435	0.073171345	0.022552119
2020-07-05T06:00:00	0.1944	14.319	217.0	0.446563258	0.525149374	0.007095181	0.073199676	0.022560851
2020-07-05T06:05:00	0.1946	14.335	217.0	0.447356632	0.526213252	0.007117973	0.073434816	0.022633324
2020-07-05T06:10:00	0.1943	14.346	217.0	0.446056766	0.524470451	0.007080649	0.073049754	0.022514644
2020-07-05T06:15:00	0.1948	14.358	217.0	0.447896702	0.526937743	0.007133509	0.073595094	0.022682723
2020-07-05T06:20:00	0.1950	14.371	217.0	0.448689761	0.528002029	0.007156352	0.073830761	0.022755357
2020-07-05T06:25:00	0.1951	14.384	217.0	0.449134019	0.528598441	0.007169164	0.073962939	0.022796096
2020-07-05T06:30:00	0.1949	14.403	217.0	0.448183590	0.527322690	0.007141768	0.073680303	0.022708985
2020-07-05T06:35:00	0.1949	14.436	217.0	0.448279214	0.527451012	0.007144522	0.073708716	0.022717742
2020-07-05T06:40:00	0.1948	14.461	217.0	0.448026107	0.527111371	0.007137234	0.073633523	0.022694567
2020-07-05T06:45:00	0.1958	14.482	217.0	0.451258891	0.531453209	0.007230598	0.074596742	0.022991440
2020-07-05T06:50:00	0.1954	14.499	217.0	0.449960538	0.529708447	0.007193029	0.074209157	0.022871983
2020-07-05T06:55:00	0.1953	14.515	217.0	0.449707558	0.529368641	0.007185720	0.074133752	0.022848742
2020-07-05T07:00:00	0.1955	14.534	217.0	0.450500188	0.530433482	0.007208633	0.074370133	0.022921597
2020-07-05T07:05:00	0.1954	14.547	217.0	0.449898716	0.529625402	0.007191243	0.074190726	0.022866302
2020-07-05T07:10:00	0.1959	14.567	217.0	0.451736545	0.532095426	0.007244443	0.074739580	0.023035465
2020-07-05T07:15:00	0.1959	14.589	218.0	0.451832067	0.532223880	0.007247213	0.074768162	0.023044274
2020-07-05T07:20:00	0.1966	14.608	217.0	0.454365084	0.535632786	0.007320865	0.075528020	0.023278469
2020-07-05T07:25:00	0.1969	14.634	218.0	0.455156615	0.536699057	0.007343956	0.075766237	0.023351890
2020-07-05T07:30:00	0.1974	14.656	218.0	0.456991568	0.539172824	0.007397621	0.076319895	0.023522533
2020-07-05T07:35:00	0.1974	14.672	218.0	0.457086941	0.539301473	0.007400416	0.076348726	0.023531419
2020-07-05T07:40:00	0.1969	14.696	218.0	0.455094889	0.536615888	0.007342154	0.075747647	0.023346160
2020-07-05T07:45:00	0.1970	14.723	218.0	0.455538300	0.537213401	0.007355103	0.075881239	0.023387335
2020-07-05T07:50:00	0.1977	14.740	218.0	0.458068524	0.540625948	0.007429208	0.076645765	0.023622969
2020-07-05T07:55:00	0.1975	14.751	218.0	0.457468406	0.539816103	0.007411598	0.076464095	0.023566977
2020-07-05T08:00:00	0.1967	14.766	218.0	0.454432501	0.535723584	0.007322831	0.075548295	0.023284718
2020-07-05T08:05:00	0.1969	14.781	218.0	0.455224016	0.536789876	0.007345924	0.075786539	0.023358147
2020-07-05T08:10:00	0.1971	14.803	218.0	0.456015344	0.537856411	0.007369046	0.076025094	0.023431672
2020-07-05T08:15:00	0.1970	14.831	219.0	0.455762821	0.537516011	0.007361664	0.075948928	0.023408197
2020-07-05T08:20:00	0.1965	14.854	219.0	0.453769983	0.534831450	0.007303529	0.075349162	0.023223343
2020-07-05T08:25:00	0.1967	14.862	219.0	0.454561654	0.535897539	0.007326596	0.075587144	0.023296692
2020-07-05T08:30:00	0.1968	14.877	219.0	0.455005135	0.536494960	0.007339534	0.075720619	0.023337830
2020-07-05T08:35:00	0.1967	14.899	219.0	0.454404470	0.535685831	0.007322014	0.075539864	0.023282120
2020-07-05T08:40:00	0.1956	14.930	219.0	0.450668922	0.530660228	0.007213515	0.074420501	0.022937121
2020-07-05T08:45:00	0.1964	14.967	220.0	0.453551007	0.534536658	0.007297155	0.075283401	0.023203075
2020-07-05T08:50:00	0.1968	15.038	220.0	0.455038837	0.536540367	0.007340518	0.075730767	0.023340958
2020-07-05T08:55:00	0.1956	15.062	220.0	0.450607113	0.530577166	0.007211726	0.074402049	0.022931434
2020-07-05T09:00:00	0.1949	15.078	220.0	0.448262506	0.527428591	0.007144041	0.073703751	0.022716212
2020-07-05T09:05:00	0.1939	15.152	220.0	0.444869196	0.522879375	0.007046634	0.072698823	0.022406483
2020-07-05T09:10:00	0.1937	15.182	220.0	0.443917556	0.521605190	0.007019434	0.072418206	0.022319994
2020-07-05T09:15:00	0.1941	15.253	221.0	0.445409667	0.523603347	0.007062105	0.072858432	0.022455676
2020-07-05T09:20:00	0.1944	15.296	221.0	0.446552233	0.525134593	0.007094865	0.073196410	0.022559845
2020-07-05T09:25:00	0.1941	15.310	221.0	0.445601071	0.523859791	0.007067587	0.072914997	0.022473110
2020-07-05T09:30:00	0.1930	15.288	221.0	0.441506280	0.518379836	0.006950745	0.071709551	0.022101580
2020-07-05T09:35:00	0.1929	15.331	221.0	0.441252660	0.518040856	0.006943539	0.071635212	0.022078668
2020-07-05T09:40:00	0.1928	15.387	221.0	0.441017812	0.517701903	0.006936534	0.071562938	0.022056392
2020-07-05T09:45:00	0.1924	15.422	221.0	0.440005934	0.515962952	0.006902655	0.071213422	0.021948668
2020-07-05T09:50:00	0.1921	15.457	222.0	0.438993447	0.514225822	0.006868858	0.070864743	0.021841202
2020-07-05T09:55:00	0.1918	15.461	222.0	0.438252324	0.512956090	0.006844184	0.070610180	0.021762743
2020-07-05T10:00:00	0.1908	15.465	222.0	0.435605270	0.508433548	0.006756497	0.069705534	0.021483923
2020-07-05T10:05:00	0.1906	15.507	222.0	0.435094112	0.507562479	0.006739644	0.069531665	0.021430334
2020-07-05T10:10:00	0.1899	15.534	222.0	0.432946681	0.503910983	0.006669123	0.068804115	0.021206096
2020-07-05T10:15:00	0.1912	15.559	222.0	0.436523239	0.509999698	0.006786827	0.070018448	0.021580366
2020-07-05T10:20:00	0.1908	15.565	223.0	0.435467638	0.508198935	0.006751957	0.069658693	0.021469486
2020-07-05T10:25:00	0.1917	15.570	223.0	0.437951143	0.512440529	0.006834172	0.070506890	0.021730908
2020-07-05T10:30:00	0.1929	15.586	224.0	0.441292201	0.518093701	0.006944662	0.071646799	0.022082239
2020-07-05T10:35:00	0.1933	15.606	223.0	0.442732906	0.520020016	0.006985646	0.072069621	0.022212557
2020-07-05T10:40:00	0.1935	15.619	223.0	0.443474622	0.521012374	0.007006791	0.072287776	0.022279795
2020-07-05T10:45:00	0.1932	15.636	223.0	0.442470002	0.519668375	0.006978158	0.071992373	0.022188749
2020-07-05T10:50:00	0.1929	15.653	223.0	0.441465080	0.518324766	0.006949574	0.071697472	0.022097857
2020-07-05T10:55:00	0.1931	15.671	223.0	0.441857706	0.518849624	0.006960735	0.071812620	0.022133347
2020-07-05T11:00:00	0.1931	15.699	224.0	0.441900920	0.518907398	0.006961964	0.071825299	0.022137255
2020-07-05T11:05:00	0.1924	15.719	224.0	0.439851215	0.515697314	0.006897484	0.071160072	0.021932225
2020-07-05T11:10:00	0.1921	15.739	224.0	0.439069555	0.514356301	0.006871395	0.070890917	0.021849269
2020-07-05T11:15:00	0.1916	15.782	224.0	0.437743547	0.512085315	0.006827276	0.070435749	0.021708982
2020-07-05T11:20:00	0.1922	15.821	224.0	0.439408581	0.514937722	0.006882703	0.071007579	0.021885226
2020-07-05T11:25:00	0.1915	15.842	224.0	0.437538791	0.511735079	0.006820479	0.070365624	0.021687369
2020-07-05T11:30:00	0.1914	15.880	224.0	0.437300356	0.511327380	0.006812569	0.070284018	0.021662217
2020-07-05T11:35:00	0.1917	15.925	225.0	0.437878127	0.512315579	0.006831746	0.070481863	0.021723195
2020-07-05T11:40:00	0.1915	15.959	225.0	0.437367665	0.511442455	0.006814801	0.070307049	0.021669315
2020-07-05T11:45:00	0.1915	15.990	225.0	0.437401318	0.511499995	0.006815918	0.070318566	0.021672865
2020-07-05T11:50:00	0.1928	16.013	225.0	0.440968362	0.517616856	0.006934876	0.071545833	0.022051121
2020-07-05T11:55:00	0.1929	16.054	226.0	0.441328060	0.518141627	0.006945681	0.071657308	0.022085478
2020-07-05T12:00:00	0.1923	16.096	226.0	0.439677462	0.515399076	0.006891680	0.071100188	0.021913769
2020-07-05T12:05:00	0.1929	16.145	226.0	0.441414500	0.518257159	0.006948137	0.071682644	0.022093287
2020-07-05T12:10:00	0.1916	16.164	226.0	0.437841618	0.512253107	0.006830533	0.070469351	0.021719338
2020-07-05T12:15:00	0.1923	16.177	226.0	0.439506554	0.515105804	0.006885973	0.071041315	0.021895623
2020-07-05T12:20:00	0.1940	16.212	226.0	0.445036553	0.523103529	0.007051423	0.072748228	0.022421710
2020-07-05T12:25:00	0.1935	16.250	226.0	0.443334005	0.520824206	0.007002780	0.072246393	0.022267040
2020-07-05T12:30:00	0.1924	16.279	226.0	0.439879095	0.515745176	0.006898416	0.071169684	0.021935188
2020-07-05T12:35:00	0.1929	16.294	226.0	0.441324379	0.518136707	0.006945576	0.071656229	0.022085146
2020-07-05T12:40:00	0.1935	16.314	226.0	0.443463586	0.520997606	0.007006477	0.072284528	0.022278794
2020-07-05T12:45:00	0.1924	16.338	227.0	0.439979903	0.515918253	0.006901785	0.071204444	0.021945901
2020-07-05T12:50:00	0.1922	16.366	227.0	0.439470080	0.515043226	0.006884756	0.071028755	0.021891752
2020-07-05T12:55:00	0.1930	16.392	227.0	0.441497257	0.518367774	0.006950488	0.071706905	0.022100765
2020-07-05T13:00:00	0.1928	16.415	227.0	0.440895477	0.517491515	0.006932432	0.071520626	0.022043352
2020-07-05T13:05:00	0.1920	16.450	227.0	0.438755496	0.513817983	0.006860930	0.070782950	0.021815993
2020-07-05T13:10:00	0.1926	16.464	227.0	0.440419526	0.516673379	0.006916490	0.071356155	0.021992660
2020-07-05T13:15:00	0.1932	16.483	227.0	0.442368870	0.519533124	0.006975279	0.071962668	0.022179593
2020-07-05T13:20:00	0.1922	16.494	227.0	0.439399993	0.514922990	0.006882417	0.071004623	0.021884314
2020-07-05T13:25:00	0.1936	16.498	227.0	0.443852300	0.521517843	0.007017571	0.072398983	0.022314070
2020-07-05T13:30:00	0.1932	16.498	228.0	0.442498489	0.519706475	0.006978969	0.072000741	0.022191328
2020-07-05T13:35:00	0.1930	16.480	228.0	0.441493576	0.518362854	0.006950384	0.071705826	0.022100432
2020-07-05T13:40:00	0.1933	16.470	228.0	0.442584899	0.519822046	0.006981430	0.072026128	0.022199152
2020-07-05T13:45:00	0.1928	16.470	228.0	0.440926200	0.517544347	0.006933462	0.071531251	0.022046626
2020-07-05T13:50:00	0.1922	16.475	228.0	0.439329903	0.514802762	0.006880078	0.070980495	0.021876878
2020-07-05T13:55:00	0.1920	16.488	228.0	0.438819883	0.513928324	0.006863075	0.070805077	0.021822812
2020-07-05T14:00:00	0.1917	16.505	228.0	0.438037742	0.512588742	0.006837050	0.070536580	0.021740059
2020-07-05T14:05:00	0.1917	16.528	228.0	0.438071382	0.512646323	0.006838168	0.070548115	0.021743614
2020-07-05T14:10:00	0.1911	16.545	228.0	0.436472362	0.509912835	0.006785144	0.070001082	0.021575013
2020-07-05T14:15:00	0.1908	16.561	229.0	0.435416728	0.508112167	0.006750278	0.069641371	0.021464147
2020-07-05T14:20:00	0.1899	16.572	229.0	0.432996925	0.503996270	0.006670768	0.068821084	0.021211326
2020-07-05T14:25:00	0.1901	16.577	229.0	0.433576190	0.504980069	0.006689749	0.069016908	0.021271681
2020-07-05T14:30:00	0.1905	16.576	229.0	0.434700408	0.506892061	0.006726681	0.069397927	0.021389115
2020-07-05T14:35:00	0.1910	16.569	229.0	0.436096193	0.509270821	0.006772707	0.069872771	0.021535467
2020-07-05T14:40:00	0.1903	16.562	229.0	0.434222690	0.506079160	0.006710972	0.069235863	0.021339165
2020-07-05T14:45:00	0.1897	16.561	229.0	0.432619969	0.503356567	0.006658434	0.068693834	0.021172107
2020-07-05T14:50:00	0.1894	16.556	229.0	0.431834910	0.502025574	0.006632791	0.068429282	0.021090569
2020-07-05T14:55:00	0.1893	16.549	229.0	0.431322589	0.501157907	0.006616089	0.068256975	0.021037462
2020-07-05T15:00:00	0.1890	16.541	229.0	0.430536913	0.499828707	0.006590526	0.067993245	0.020956179
2020-07-05T15:05:00	0.1881	16.535	229.0	0.428109953	0.495733636	0.006511943	0.067182514	0.020706303
2020-07-05T15:10:00	0.1870	16.533	229.0	0.425131251	0.490729958	0.006416279	0.066195567	0.020402117
2020-07-05T15:15:00	0.1864	16.526	229.0	0.423519640	0.488032999	0.006364880	0.065665291	0.020238680
2020-07-05T15:20:00	0.1860	16.522	229.0	0.422455664	0.486256428	0.006331084	0.065316629	0.020131219
2020-07-05T15:25:00	0.1858	16.520	229.0	0.421940401	0.485397193	0.006314757	0.065148184	0.020079303
2020-07-05T15:30:00	0.1859	16.518	229.0	0.422249000	0.485911714	0.006324533	0.065249036	0.020110387
2020-07-05T15:35:00	0.1866	16.515	229.0	0.423929729	0.488718584	0.006377935	0.065799978	0.020280192
2020-07-05T15:40:00	0.1863	16.519	229.0	0.423140501	0.487399574	0.006352824	0.065540918	0.020200348
2020-07-05T15:45:00	0.1858	16.521	230.0	0.421801619	0.485165892	0.006310364	0.065102860	0.020065334
2020-07-05T15:50:00	0.1859	16.519	230.0	0.422110245	0.485680338	0.006320136	0.065203678	0.020096407
2020-07-05T15:55:00	0.1863	16.518	231.0	0.423242334	0.487569668	0.006356061	0.065574309	0.020210639
2020-07-05T16:00:00	0.1855	16.517	230.0	0.421079334	0.483962949	0.006287530	0.064867284	0.019992727
2020-07-05T16:05:00	0.1856	16.521	231.0	0.421429454	0.484545883	0.006298592	0.064981412	0.020027902
2020-07-05T16:10:00	0.1849	16.525	231.0	0.419305442	0.481014708	0.006231664	0.064290924	0.019815087
2020-07-05T16:15:00	0.1848	16.523	231.0	0.419105760	0.480683379	0.006225394	0.064226241	0.019795151
2020-07-05T16:20:00	0.1861	16.517	231.0	0.422753905	0.486754099	0.006340546	0.065414247	0.020161306
2020-07-05T16:25:00	0.1857	16.509	231.0	0.421456060	0.484590195	0.006299433	0.064990090	0.020030577
2020-07-05T16:30:00	0.1851	16.502	231.0	0.419882191	0.481972323	0.006249794	0.064477974	0.019872738
2020-07-05T16:35:00	0.1842	16.497	231.0	0.417480747	0.477991100	0.006174514	0.063701319	0.019633365
2020-07-05T16:40:00	0.1841	16.495	231.0	0.417280839	0.477660401	0.006168272	0.063636924	0.019613518
2020-07-05T16:45:00	0.1848	16.499	231.0	0.419008154	0.480521462	0.006222331	0.064194638	0.019785411
2020-07-05T16:50:00	0.1850	16.496	231.0	0.419633797	0.481559784	0.006241982	0.064397375	0.019847896
2020-07-05T16:55:00	0.1855	16.482	231.0	0.421083816	0.483970410	0.006287671	0.064868744	0.019993177
2020-07-05T17:00:00	0.1860	16.467	231.0	0.422532539	0.486384684	0.006333522	0.065341782	0.020138972
2020-07-05T17:05:00	0.1869	16.449	231.0	0.424802703	0.490179563	0.006405780	0.066087252	0.020368733
2020-07-05T17:10:00	0.1868	16.437	232.0	0.424603697	0.489846328	0.006399426	0.066021697	0.020348528
2020-07-05T17:15:00	0.1863	16.423	231.0	0.423307329	0.487678244	0.006358127	0.065595627	0.020217209
2020-07-05T17:20:00	0.1860	16.413	232.0	0.422284550	0.485971003	0.006325659	0.065260660	0.020113969
2020-07-05T17:25:00	0.1852	16.403	231.0	0.420161660	0.482436673	0.006258591	0.064568729	0.019900709
2020-07-05T17:30:00	0.1851	16.392	232.0	0.419962085	0.482105047	0.006252308	0.064503911	0.019880732
2020-07-05T17:35:00	0.1840	16.376	232.0	0.417009857	0.477212303	0.006159817	0.063549698	0.019586634
2020-07-05T17:40:00	0.1836	16.356	231.0	0.415707382	0.475061346	0.006119278	0.063131460	0.019457729
2020-07-05T17:45:00	0.1825	16.336	231.0	0.412747308	0.470190342	0.006027749	0.062187178	0.019166692
2020-07-05T17:50:00	0.1817	16.315	230.0	0.410611755	0.466691104	0.005962235	0.061511279	0.018958373
2020-07-05T17:55:00	0.1821	16.296	230.0	0.411793581	0.468626052	0.005998437	0.061884771	0.019073487
2020-07-05T18:00:00	0.1830	16.274	230.0	0.414078923	0.472378621	0.006068821	0.062610902	0.019297288
2020-07-05T18:05:00	0.1825	16.254	230.0	0.412774058	0.470234253	0.006028573	0.062195673	0.019169310
2020-07-05T18:10:00	0.1817	16.235	230.0	0.410638541	0.466734918	0.005963054	0.061519729	0.018960978
2020-07-05T18:15:00	0.1819	16.216	229.0	0.410990949	0.467311522	0.005973836	0.061630966	0.018995262
2020-07-05T18:20:00	0.1818	16.199	229.0	0.410790227	0.466983062	0.005967693	0.061567593	0.018975730
2020-07-05T18:25:00	0.1817	16.181	229.0	0.410589480	0.466654671	0.005961554	0.061504252	0.018956208
2020-07-05T18:30:00	0.1822	16.169	229.0	0.412047701	0.469042612	0.006006239	0.061965260	0.019098295
2020-07-05T18:35:00	0.1824	16.154	229.0	0.412399796	0.469620068	0.006017059	0.062076886	0.019132699
2020-07-05T18:40:00	0.1821	16.139	229.0	0.411646500	0.468385034	0.005993925	0.061838214	0.019059138
2020-07-05T18:45:00	0.1817	16.120	229.0	0.410616267	0.466698483	0.005962373	0.061512702	0.018958812
2020-07-05T18:50:00	0.1821	16.103	228.0	0.411798089	0.468633440	0.005998576	0.061886198	0.019073927
2020-07-05T18:55:00	0.1812	16.084	228.0	0.409107621	0.464234003	0.005916352	0.061037908	0.018812476
2020-07-05T19:00:00	0.1818	16.065	228.0	0.410843793	0.467070706	0.005969332	0.061584501	0.018980941
2020-07-05T19:05:00	0.1817	16.045	228.0	0.410643053	0.466742297	0.005963192	0.061521152	0.018961416
2020-07-05T19:10:00	0.1823	16.025	228.0	0.412101225	0.469130372	0.006007883	0.061982221	0.019103522
2020-07-05T19:15:00	0.1836	16.005	227.0	0.415765280	0.475156862	0.006121076	0.063150016	0.019463448
2020-07-05T19:20:00	0.1838	15.984	227.0	0.416392184	0.476191672	0.006140572	0.063351148	0.019525439
2020-07-05T19:25:00	0.1843	15.962	228.0	0.417845122	0.478594152	0.006185900	0.063818794	0.019669572
2020-07-05T19:30:00	0.1851	15.941	227.0	0.419846869	0.481913648	0.006248683	0.064466509	0.019869204
2020-07-05T19:35:00	0.1853	15.920	227.0	0.420472186	0.482952880	0.006268374	0.064669662	0.019931818
2020-07-05T19:40:00	0.1859	15.899	227.0	0.422196093	0.485823485	0.006322856	0.065231739	0.020105056
2020-07-05T19:45:00	0.1862	15.880	227.0	0.422820505	0.486865267	0.006342660	0.065436059	0.020168029
2020-07-05T19:50:00	0.1862	15.860	227.0	0.422895776	0.486990925	0.006345050	0.065460715	0.020175628
2020-07-05T19:55:00	0.1856	15.842	227.0	0.421323306	0.484369115	0.006295237	0.064946798	0.020017234
2020-07-05T20:00:00	0.1856	15.823	227.0	0.421398647	0.484494577	0.006297618	0.064971365	0.020024806
2020-07-05T20:05:00	0.1850	15.803	227.0	0.419549681	0.481420123	0.006239337	0.064370095	0.019839488
2020-07-05T20:10:00	0.1846	15.784	227.0	0.418524524	0.479719565	0.006207166	0.064038186	0.019737191
2020-07-05T20:15:00	0.1847	15.764	226.0	0.418875199	0.480300947	0.006218159	0.064151604	0.019772147
2020-07-05T20:20:00	0.1846	15.745	226.0	0.418675464	0.479969766	0.006211896	0.064086989	0.019752232
2020-07-05T20:25:00	0.1847	15.726	226.0	0.418750928	0.480094881	0.006214262	0.064111397	0.019759755
2020-07-05T20:30:00	0.1845	15.707	226.0	0.418275920	0.479307611	0.006199379	0.063957854	0.019712432
2020-07-05T20:35:00	0.1846	15.689	226.0	0.418626649	0.479888842	0.006210366	0.064071203	0.019747367
2020-07-05T20:40:00	0.1854	15.672	226.0	0.420627427	0.483211047	0.006273269	0.064720156	0.019947381
2020-07-05T20:45:00	0.1861	15.655	226.0	0.422625735	0.486540192	0.006336479	0.065372284	0.020148373
2020-07-05T20:50:00	0.1859	15.638	226.0	0.422151863	0.485749732	0.006321455	0.065217281	0.020100599
2020-07-05T20:55:00	0.1855	15.622	226.0	0.421128356	0.484044547	0.006289078	0.064883256	0.019997650
2020-07-05T21:00:00	0.1857	15.607	226.0	0.421478465	0.484627511	0.006300141	0.064997398	0.020032829
2020-07-05T21:05:00	0.1852	15.591	226.0	0.420179598	0.482466486	0.006259156	0.064574557	0.019902506
2020-07-05T21:10:00	0.1855	15.576	226.0	0.421079614	0.483963416	0.006287538	0.064867375	0.019992755
2020-07-05T21:15:00	0.1848	15.562	226.0	0.419230284	0.480889986	0.006229303	0.064266573	0.019807582
2020-07-05T21:20:00	0.1857	15.548	226.0	0.421505070	0.484671825	0.006300983	0.065006077	0.020035504
2020-07-05T21:25:00	0.1849	15.534	226.0	0.419381157	0.481140371	0.006234042	0.064315461	0.019822650
2020-07-05T21:30:00	0.1856	15.519	226.0	0.421381002	0.484465192	0.006297060	0.064965611	0.020023032
2020-07-05T21:35:00	0.1860	15.506	226.0	0.422280351	0.485964000	0.006325526	0.065259287	0.020113546
2020-07-05T21:40:00	0.1858	15.493	225.0	0.421806379	0.485173824	0.006310514	0.065104414	0.020065813
2020-07-05T21:45:00	0.1855	15.480	225.0	0.421057484	0.483926581	0.006286840	0.064860165	0.019990533
2020-07-05T21:50:00	0.1850	15.467	225.0	0.419758279	0.481766506	0.006245896	0.064437759	0.019860343
2020-07-05T21:55:00	0.1849	15.455	224.0	0.419283568	0.480978408	0.006230977	0.064283836	0.019812903
2020-07-05T22:00:00	0.1835	15.445	225.0	0.415503037	0.474724307	0.006112932	0.063065995	0.019437552
2020-07-05T22:05:00	0.1833	15.434	224.0	0.414990482	0.473879425	0.006097034	0.062901971	0.019386998
2020-07-05T22:10:00	0.1832	15.425	225.0	0.414753673	0.473489319	0.006089697	0.062826277	0.019363669
2020-07-05T22:15:00	0.1828	15.415	224.0	0.413688833	0.471737070	0.006056771	0.062486593	0.019258975
2020-07-05T22:20:00	0.1829	15.406	224.0	0.414003957	0.472255299	0.006066504	0.062587002	0.019289922
2020-07-05T22:25:00	0.1827	15.397	224.0	0.413214793	0.470958017	0.006042149	0.062335734	0.019212479
2020-07-05T22:30:00	0.1821	15.388	224.0	0.411596155	0.468302548	0.005992380	0.061822283	0.019054228
2020-07-05T22:35:00	0.1818	15.382	224.0	0.410805796	0.467008535	0.005968170	0.061572507	0.018977245
2020-07-05T22:40:00	0.1815	15.375	224.0	0.410015043	0.465715593	0.005944007	0.061323220	0.018900412
2020-07-05T22:45:00	0.1818	15.368	224.0	0.410884107	0.467136673	0.005970566	0.061597228	0.018984864
2020-07-05T22:50:00	0.1811	15.360	224.0	0.408986226	0.464035967	0.005912658	0.060999800	0.018800731
2020-07-05T22:55:00	0.1807	15.354	224.0	0.407917512	0.462294279	0.005880199	0.060664934	0.018697522
2020-07-05T23:00:00	0.1806	15.350	225.0	0.407402505	0.461456086	0.005864597	0.060503963	0.018647909
2020-07-05T23:05:00	0.1800	15.345	225.0	0.405777910	0.458816761	0.005815542	0.059997873	0.018491927
2020-07-05T23:10:00	0.1800	15.340	225.0	0.405817190	0.458880492	0.005816725	0.060010079	0.018495689
2020-07-05T23:15:00	0.1796	15.334	225.0	0.404746323	0.457144590	0.005784522	0.059677850	0.018393293
2020-07-05T23:20:00	0.1798	15.331	224.0	0.405340788	0.458107844	0.005802385	0.059862141	0.018450093
2020-07-05T23:25:00	0.1796	15.328	225.0	0.404824936	0.457271917	0.005786883	0.059702201	0.018400798
2020-07-05T23:30:00	0.1803	15.323	224.0	0.406806338	0.460486712	0.005846566	0.060317947	0.018590577
2020-07-05T23:35:00	0.1810	15.320	225.0	0.408508303	0.463256705	0.005898129	0.060849912	0.018754534
2020-07-05T23:40:00	0.1803	15.316	224.0	0.406607566	0.460163722	0.005840562	0.060256004	0.018571486
2020-07-05T23:45:00	0.1804	15.312	224.0	0.406924101	0.460678118	0.005850125	0.060354664	0.018601894
2020-07-05T23:50:00	0.1814	15.305	224.0	0.409733357	0.465255430	0.005935413	0.061234566	0.018873088
2020-07-05T23:55:00	0.1817	15.299	224.0	0.410602576	0.466676090	0.005961954	0.061508383	0.018957481
2020-07-06T00:00:00	0.1809	15.293	224.0	0.408427395	0.463124847	0.005895672	0.060824559	0.018746720
2020-07-06T00:05:00	0.1806	15.286	224.0	0.407635453	0.461835127	0.005871651	0.060576741	0.018670340
2020-07-06T00:10:00	0.1809	15.280	224.0	0.408228827	0.462801307	0.005889643	0.060762365	0.018727551
2020-07-06T00:15:00	0.1804	15.272	224.0	0.406882367	0.460610281	0.005848864	0.060341651	0.018597883
2020-07-06T00:20:00	0.1805	15.265	224.0	0.407198847	0.461124826	0.005858434	0.060440379	0.018628312
2020-07-06T00:25:00	0.1799	15.255	224.0	0.405574041	0.458486066	0.005809404	0.059934546	0.018472409
2020-07-06T00:30:00	0.1794	15.246	224.0	0.404225306	0.456301142	0.005768894	0.059516612	0.018343598
2020-07-06T00:35:00	0.1797	15.241	224.0	0.405097565	0.457713616	0.005795073	0.059786698	0.018426841
2020-07-06T00:40:00	0.1805	15.232	224.0	0.407355823	0.461380146	0.005863184	0.060489385	0.018643416
2020-07-06T00:45:00	0.1796	15.224	224.0	0.404620944	0.456941552	0.005780759	0.059639025	0.018381327
2020-07-06T00:50:00	0.1801	15.219	224.0	0.406047891	0.459254874	0.005823677	0.060081799	0.018517794
2020-07-06T00:55:00	0.1800	15.213	224.0	0.405809743	0.458868408	0.005816501	0.060007765	0.018494976
2020-07-06T01:00:00	0.1797	15.207	224.0	0.405016482	0.457582229	0.005792636	0.059761560	0.018419093
2020-07-06T01:05:00	0.1797	15.204	224.0	0.405055782	0.457645909	0.005793817	0.059773743	0.018422848
2020-07-06T01:10:00	0.1791	15.200	224.0	0.403428757	0.455013085	0.005745049	0.059270615	0.018267779
2020-07-06T01:15:00	0.1779	15.193	224.0	0.400130192	0.449697591	0.005646943	0.058258472	0.017955827
2020-07-06T01:20:00	0.1778	15.186	224.0	0.399612616	0.448866232	0.005631642	0.058100612	0.017907173
2020-07-06T01:25:00	0.1772	15.179	225.0	0.397979896	0.446248451	0.005583538	0.057604329	0.017754214
2020-07-06T01:30:00	0.1769	15.170	223.0	0.397182639	0.444972826	0.005560139	0.057362927	0.017679811
2020-07-06T01:35:00	0.1766	15.162	223.0	0.396384972	0.443698273	0.005536787	0.057122013	0.017605559
2020-07-06T01:40:00	0.1768	15.154	223.0	0.396982637	0.444653090	0.005554278	0.057302465	0.017661176
2020-07-06T01:45:00	0.1775	15.147	223.0	0.398974019	0.447841490	0.005612798	0.057906198	0.017847252
2020-07-06T01:50:00	0.1783	15.138	223.0	0.401241131	0.451484506	0.005679871	0.058598180	0.018060528
2020-07-06T01:55:00	0.1788	15.127	223.0	0.402393134	0.453341026	0.005714138	0.058951706	0.018169488
2020-07-06T02:00:00	0.1790	15.118	222.0	0.402988492	0.454301901	0.005731896	0.059134913	0.018225955
2020-07-06T02:05:00	0.1789	15.105	223.0	0.402749879	0.453916676	0.005724775	0.059061444	0.018203311
2020-07-06T02:10:00	0.1791	15.092	222.0	0.403345101	0.454877911	0.005742549	0.059244815	0.018259828
2020-07-06T02:15:00	0.1786	15.079	222.0	0.401994443	0.452698103	0.005702264	0.058829210	0.018131734
2020-07-06T02:20:00	0.1791	15.065	222.0	0.403423784	0.455005050	0.005744901	0.059269081	0.018267306
2020-07-06T02:25:00	0.1800	15.051	222.0	0.405961893	0.459115299	0.005821085	0.060055058	0.018509552
2020-07-06T02:30:00	0.1810	15.039	222.0	0.408495911	0.463236509	0.005897753	0.060846028	0.018753337
2020-07-06T02:35:00	0.1806	15.028	222.0	0.407426865	0.461495717	0.005865334	0.060511571	0.018650254
2020-07-06T02:40:00	0.1804	15.016	222.0	0.406911697	0.460657956	0.005849750	0.060350796	0.018600702
2020-07-06T02:45:00	0.1801	15.005	221.0	0.406118992	0.459370287	0.005825820	0.060103913	0.018524610
2020-07-06T02:50:00	0.1804	14.996	221.0	0.406990201	0.460785572	0.005852123	0.060375279	0.018608247
2020-07-06T02:55:00	0.1794	14.988	221.0	0.404254686	0.456348684	0.005769774	0.059525697	0.018346398
2020-07-06T03:00:00	0.1805	14.980	221.0	0.407345903	0.461364008	0.005862883	0.060486287	0.018642461
2020-07-06T03:05:00	0.1810	14.974	220.0	0.408493433	0.463232470	0.005897678	0.060845252	0.018753097
2020-07-06T03:10:00	0.1802	14.966	220.0	0.406315345	0.459689081	0.005831742	0.060165009	0.018543440
2020-07-06T03:15:00	0.1812	14.963	220.0	0.409125684	0.464263472	0.005916901	0.061043579	0.018814224
2020-07-06T03:20:00	0.1819	14.959	220.0	0.411101698	0.467492799	0.005977227	0.061665949	0.019006044
2020-07-06T03:25:00	0.1815	14.959	220.0	0.410034412	0.465747242	0.005944598	0.061329319	0.018902292
2020-07-06T03:30:00	0.1808	14.958	220.0	0.408135511	0.462649299	0.005886812	0.060733150	0.018718547
2020-07-06T03:35:00	0.1809	14.958	220.0	0.408451740	0.463164521	0.005896411	0.060832187	0.018749071
2020-07-06T03:40:00	0.1807	14.958	220.0	0.407659810	0.461874768	0.005872389	0.060584354	0.018672686
2020-07-06T03:45:00	0.1807	14.959	220.0	0.407699044	0.461938625	0.005873578	0.060596618	0.018676466
2020-07-06T03:50:00	0.1800	14.959	220.0	0.405797330	0.458848269	0.005816127	0.060003908	0.018493787
2020-07-06T03:55:00	0.1801	14.959	220.0	0.406114028	0.459362228	0.005825671	0.060102369	0.018524134
2020-07-06T04:00:00	0.1799	14.959	220.0	0.405598430	0.458525621	0.005810138	0.059942120	0.018474743
2020-07-06T04:05:00	0.1787	14.958	220.0	0.402191313	0.453015518	0.005708125	0.058889678	0.018150371
2020-07-06T04:10:00	0.1773	14.955	220.0	0.398219242	0.446631747	0.005590574	0.057676920	0.017776587
2020-07-06T04:15:00	0.1778	14.955	220.0	0.399817263	0.449194860	0.005637689	0.058162998	0.017926401
2020-07-06T04:20:00	0.1772	14.954	220.0	0.398071325	0.446394850	0.005586225	0.057632052	0.017762758
2020-07-06T04:25:00	0.1762	14.953	220.0	0.395206443	0.441818326	0.005502394	0.056767188	0.017496199
2020-07-06T04:30:00	0.1764	14.951	220.0	0.395690956	0.442590747	0.005516518	0.056912901	0.017541109
2020-07-06T04:35:00	0.1776	14.948	220.0	0.399243128	0.448273188	0.005620734	0.057988077	0.017872489
2020-07-06T04:40:00	0.1800	14.947	220.0	0.405842015	0.458920771	0.005817473	0.060017794	0.018498067
2020-07-06T04:45:00	0.1816	14.948	219.0	0.410201448	0.466020224	0.005949697	0.061381929	0.018918507
2020-07-06T04:50:00	0.1825	14.950	220.0	0.412892536	0.470428762	0.006032220	0.062233305	0.019180909
2020-07-06T04:55:00	0.1835	14.948	220.0	0.415579088	0.474849729	0.006115293	0.063090354	0.019445060
2020-07-06T05:00:00	0.1834	14.940	220.0	0.415230161	0.474274416	0.006104465	0.062978639	0.019410628
2020-07-06T05:05:00	0.1833	14.931	220.0	0.414881158	0.473699312	0.006093646	0.062867020	0.019376226
2020-07-06T05:10:00	0.1821	14.921	220.0	0.411770446	0.468588137	0.005997727	0.061877447	0.019071230
2020-07-06T05:15:00	0.1818	14.910	220.0	0.410867662	0.467109763	0.005970063	0.061592036	0.018983264
2020-07-06T05:20:00	0.1838	14.897	220.0	0.416316172	0.476066143	0.006138206	0.063326740	0.019517916
2020-07-06T05:25:00	0.1847	14.887	220.0	0.418721815	0.480046611	0.006213349	0.064101980	0.019756853
2020-07-06T05:30:00	0.1848	14.878	220.0	0.419199154	0.480838332	0.006228326	0.064256489	0.019804474
2020-07-06T05:35:00	0.1860	14.868	220.0	0.422424441	0.486204340	0.006330094	0.065306414	0.020128071
2020-07-06T05:40:00	0.1860	14.857	219.0	0.422351605	0.486082843	0.006327785	0.065282589	0.020120728
2020-07-06T05:45:00	0.1878	14.847	219.0	0.427214092	0.494226164	0.006483081	0.066884747	0.020614529
2020-07-06T05:50:00	0.1876	14.837	219.0	0.426867664	0.493643822	0.006471941	0.066769818	0.020579106
2020-07-06T05:55:00	0.1885	14.826	219.0	0.429257746	0.497668296	0.006549036	0.067565197	0.020824250
2020-07-06T06:00:00	0.1886	14.815	219.0	0.429458634	0.498007278	0.006555541	0.067632311	0.020844935
2020-07-06T06:05:00	0.1878	14.808	219.0	0.427471130	0.494658455	0.006491354	0.066970099	0.020640835
2020-07-06T06:10:00	0.1859	14.801	219.0	0.422189157	0.485811919	0.006322636	0.065229472	0.020104357
2020-07-06T06:15:00	0.1869	14.798	219.0	0.424860276	0.490275989	0.006407619	0.066106225	0.020374580
2020-07-06T06:20:00	0.1865	14.797	219.0	0.423690469	0.488318533	0.006370316	0.065721376	0.020255966
2020-07-06T06:25:00	0.1866	14.794	219.0	0.424166346	0.489114368	0.006385475	0.065877767	0.020304168
2020-07-06T06:30:00	0.1865	14.785	219.0	0.423819270	0.488533872	0.006374417	0.065763683	0.020269006
2020-07-06T06:35:00	0.1879	14.779	219.0	0.427582924	0.494846530	0.006494954	0.067007242	0.020652283
2020-07-06T06:40:00	0.1880	14.775	219.0	0.427784016	0.495184922	0.006501433	0.067074086	0.020672885
2020-07-06T06:45:00	0.1866	14.775	219.0	0.424149601	0.489086354	0.006384941	0.065872260	0.020302470
2020-07-06T06:50:00	0.1872	14.773	219.0	0.425721796	0.491720009	0.006435176	0.066390527	0.020462205
2020-07-06T06:55:00	0.1854	14.771	219.0	0.420709027	0.483346774	0.006275842	0.064746708	0.019955564
2020-07-06T07:00:00	0.1855	14.770	219.0	0.420910969	0.483682751	0.006282214	0.064812445	0.019975825
2020-07-06T07:05:00	0.1847	14.776	219.0	0.418913005	0.480363645	0.006219345	0.064163839	0.019775918
2020-07-06T07:10:00	0.1829	14.792	219.0	0.413879028	0.472049817	0.006062644	0.062547184	0.019277649
2020-07-06T07:15:00	0.1844	14.803	219.0	0.417941208	0.478753239	0.006188905	0.063849794	0.019679127
2020-07-06T07:20:00	0.1846	14.807	219.0	0.418694011	0.480000514	0.006212478	0.064092987	0.019754081
2020-07-06T07:25:00	0.1832	14.804	219.0	0.414763266	0.473505119	0.006089994	0.062829342	0.019364614
2020-07-06T07:30:00	0.1842	14.837	219.0	0.417446682	0.477934740	0.006173450	0.063690343	0.019629982
2020-07-06T07:35:00	0.1853	14.872	219.0	0.420400570	0.482833804	0.006266117	0.064646375	0.019924641
2020-07-06T07:40:00	0.1854	14.883	219.0	0.420877413	0.483626914	0.006281155	0.064801519	0.019972457
2020-07-06T07:45:00	0.1866	14.859	219.0	0.424099366	0.489002316	0.006383340	0.065855741	0.020297379
2020-07-06T07:50:00	0.1845	14.863	219.0	0.418255934	0.479274501	0.006198754	0.063951398	0.019710442
2020-07-06T07:55:00	0.1843	14.873	219.0	0.417632221	0.478241750	0.006179246	0.063750138	0.019648412
2020-07-06T08:00:00	0.1843	14.870	219.0	0.417834549	0.478576649	0.006185570	0.063815383	0.019668521
2020-07-06T08:05:00	0.1826	14.878	219.0	0.413073380	0.470725733	0.006037791	0.062290774	0.019198621
2020-07-06T08:10:00	0.1820	14.885	219.0	0.411342119	0.467886442	0.005984592	0.061741934	0.019029464
2020-07-06T08:15:00	0.1819	14.903	219.0	0.410992264	0.467313675	0.005973876	0.061631381	0.018995390
2020-07-06T08:20:00	0.1817	14.928	219.0	0.410642332	0.466741118	0.005963170	0.061520924	0.018961346
2020-07-06T08:25:00	0.1815	14.918	219.0	0.410015639	0.465716566	0.005944025	0.061323408	0.018900470
2020-07-06T08:30:00	0.1799	14.909	219.0	0.405508479	0.458379741	0.005807430	0.059914189	0.018466135
2020-07-06T08:35:00	0.1801	14.924	219.0	0.405989795	0.459160581	0.005821926	0.060063733	0.018512226
2020-07-06T08:40:00	0.1796	14.926	219.0	0.404806101	0.457241408	0.005786317	0.059696367	0.018399000
2020-07-06T08:45:00	0.1791	14.936	219.0	0.403343653	0.454875572	0.005742505	0.059244369	0.018259690
2020-07-06T08:50:00	0.1792	14.964	220.0	0.403547812	0.455205493	0.005748609	0.059307343	0.018279099
2020-07-06T08:55:00	0.1801	14.983	220.0	0.406250253	0.459583387	0.005829779	0.060144751	0.018537196
2020-07-06T09:00:00	0.1794	15.011	220.0	0.404233799	0.456314886	0.005769148	0.059519238	0.018344407
2020-07-06T09:05:00	0.1792	15.095	220.0	0.403604551	0.455297204	0.005750307	0.059324852	0.018284496
2020-07-06T09:10:00	0.1791	15.094	220.0	0.403252974	0.454729070	0.005739795	0.059216411	0.018251073
2020-07-06T09:15:00	0.1789	15.135	220.0	0.402901319	0.454161147	0.005729294	0.059108066	0.018217680
2020-07-06T09:20:00	0.1777	15.323	221.0	0.399488306	0.448666668	0.005627971	0.058062736	0.017895499
2020-07-06T09:25:00	0.1785	15.208	221.0	0.401641496	0.452129306	0.005691766	0.058720898	0.018098351
2020-07-06T09:30:00	0.1789	15.162	220.0	0.402680104	0.453804059	0.005722693	0.059039971	0.018196693
2020-07-06T09:35:00	0.1795	15.140	220.0	0.404551253	0.456828714	0.005778668	0.059617451	0.018374678
2020-07-06T09:40:00	0.1802	15.184	220.0	0.406420171	0.459859319	0.005834905	0.060197641	0.018553498
2020-07-06T09:45:00	0.1794	15.209	220.0	0.404126215	0.456140814	0.005765924	0.059485976	0.018334156
2020-07-06T09:50:00	0.1797	15.215	221.0	0.404885591	0.457370169	0.005788704	0.059720994	0.018406590
2020-07-06T09:55:00	0.1799	15.228	220.0	0.405644598	0.458600504	0.005811528	0.059956458	0.018479163
2020-07-06T10:00:00	0.1789	15.216	221.0	0.402793644	0.453987319	0.005726080	0.059074915	0.018207463
2020-07-06T10:05:00	0.1797	15.222	221.0	0.404907946	0.457406384	0.005789376	0.059727921	0.018408725
2020-07-06T10:10:00	0.1788	15.233	221.0	0.402577389	0.453638300	0.005719630	0.059008369	0.018186952
2020-07-06T10:15:00	0.1781	15.263	221.0	0.400521761	0.450327035	0.005658536	0.058378071	0.017992689
2020-07-06T10:20:00	0.1774	15.278	221.0	0.398742145	0.447469680	0.005605965	0.057835703	0.017825525
2020-07-06T10:25:00	0.1777	15.290	221.0	0.399469691	0.448636786	0.005627421	0.058057066	0.017893751
2020-07-06T10:30:00	0.1774	15.299	221.0	0.398525327	0.447122147	0.005599580	0.057769833	0.017805224
2020-07-06T10:35:00	0.1772	15.293	221.0	0.398138117	0.446501813	0.005588188	0.057652310	0.017769002
2020-07-06T10:40:00	0.1754	15.308	221.0	0.393002475	0.438312758	0.005438423	0.056107202	0.017292785
2020-07-06T10:45:00	0.1756	15.330	222.0	0.393732732	0.439472824	0.005459569	0.056325365	0.017360025
2020-07-06T10:50:00	0.1747	15.350	222.0	0.391105217	0.435305582	0.005383714	0.055542781	0.017118825
2020-07-06T10:55:00	0.1743	15.377	222.0	0.389875411	0.433361534	0.005348429	0.055178756	0.017006628
2020-07-06T11:00:00	0.1744	15.397	222.0	0.390326952	0.434074844	0.005361368	0.055312246	0.017047771
2020-07-06T11:05:00	0.1732	15.420	222.0	0.386851167	0.428598275	0.005262252	0.054289687	0.016732609
2020-07-06T11:10:00	0.1728	15.433	222.0	0.385617913	0.426662958	0.005227352	0.053929623	0.016621634
2020-07-06T11:15:00	0.1737	15.437	223.0	0.388317227	0.430904269	0.005303923	0.054719596	0.016865111
2020-07-06T11:20:00	0.1724	15.436	222.0	0.384555553	0.424999111	0.005197399	0.053620607	0.016526392
2020-07-06T11:25:00	0.1736	15.429	222.0	0.388098931	0.430560539	0.005297706	0.054655453	0.016845341
2020-07-06T11:30:00	0.1732	15.424	222.0	0.386866692	0.428622664	0.005262693	0.054294229	0.016734009
2020-07-06T11:35:00	0.1720	15.424	222.0	0.383382952	0.423166137	0.005164458	0.053280761	0.016421648
2020-07-06T11:40:00	0.1730	15.429	222.0	0.386367247	0.427838381	0.005248541	0.054148229	0.016689010
2020-07-06T11:45:00	0.1722	15.439	223.0	0.384008396	0.424143350	0.005182012	0.053461867	0.016477467
2020-07-06T11:50:00	0.1715	15.446	222.0	0.382209436	0.421335441	0.005131617	0.052941947	0.016317222
2020-07-06T11:55:00	0.1700	15.469	223.0	0.377867433	0.414594056	0.005011196	0.051699581	0.015934313
2020-07-06T12:00:00	0.1712	15.471	223.0	0.381144667	0.419677595	0.005101928	0.052635651	0.016222819
2020-07-06T12:05:00	0.1705	15.481	223.0	0.379342269	0.416878206	0.005051907	0.052119591	0.016063764
2020-07-06T12:10:00	0.1702	15.488	223.0	0.378385324	0.415395474	0.005025469	0.051846836	0.015979698
2020-07-06T12:15:00	0.1711	15.495	223.0	0.381097628	0.419604426	0.005100619	0.052622144	0.016218656
2020-07-06T12:20:00	0.1685	15.500	223.0	0.373638617	0.408076999	0.004895555	0.050506538	0.015566605
2020-07-06T12:25:00	0.1697	15.503	223.0	0.376925167	0.413137778	0.004985289	0.051432304	0.015851936
2020-07-06T12:30:00	0.1697	15.506	223.0	0.377097927	0.413404601	0.004990033	0.051481246	0.015867020
2020-07-06T12:35:00	0.1708	15.507	224.0	0.380094736	0.418045836	0.005072754	0.052334665	0.016130052
2020-07-06T12:40:00	0.1693	15.507	224.0	0.375746567	0.411319592	0.004952997	0.051099155	0.015749256
2020-07-06T12:45:00	0.1695	15.502	224.0	0.376485220	0.412458651	0.004973220	0.051307795	0.015813561
2020-07-06T12:50:00	0.1681	15.497	224.0	0.372410081	0.406192662	0.004862262	0.050163058	0.015460742
2020-07-06T12:55:00	0.1688	15.519	224.0	0.374567030	0.409503683	0.004920805	0.050767038	0.015646894
2020-07-06T13:00:00	0.1673	15.509	225.0	0.370202586	0.402816912	0.004802779	0.049549389	0.015271603
2020-07-06T13:05:00	0.1674	15.520	224.0	0.370376133	0.403081834	0.004807440	0.049597471	0.015286422
2020-07-06T13:10:00	0.1681	15.536	225.0	0.372536058	0.406385700	0.004865669	0.050198215	0.015471577
2020-07-06T13:15:00	0.1678	15.529	225.0	0.371574708	0.404913662	0.004839701	0.049930300	0.015389003
2020-07-06T13:20:00	0.1670	15.524	225.0	0.369476487	0.401709388	0.004783310	0.049348524	0.015209694
2020-07-06T13:25:00	0.1654	15.526	225.0	0.364811795	0.394627751	0.004659352	0.048069674	0.014815541
2020-07-06T13:30:00	0.1663	15.528	225.0	0.367264569	0.398344181	0.004724289	0.048739621	0.015022024
2020-07-06T13:35:00	0.1660	15.539	225.0	0.366584515	0.397312165	0.004706231	0.048553319	0.014964604
2020-07-06T13:40:00	0.1649	15.538	225.0	0.363338083	0.392402473	0.004620592	0.047669800	0.014692295
2020-07-06T13:45:00	0.1637	15.529	224.0	0.360084360	0.387509795	0.004535698	0.046793964	0.014422354
2020-07-06T13:50:00	0.1638	15.520	224.0	0.360259119	0.387771872	0.004540234	0.046840760	0.014436777
2020-07-06T13:55:00	0.1638	15.521	225.0	0.360147885	0.387605050	0.004537347	0.046810971	0.014427596
2020-07-06T14:00:00	0.1627	15.521	225.0	0.357173560	0.383156507	0.004460543	0.046018598	0.014183379
2020-07-06T14:05:00	0.1611	15.525	225.0	0.352468844	0.376167548	0.004340640	0.044781585	0.013802119
2020-07-06T14:10:00	0.1628	15.532	225.0	0.357237214	0.383251466	0.004462178	0.046035472	0.014188580
2020-07-06T14:15:00	0.1629	15.532	225.0	0.357698838	0.383940438	0.004474050	0.046157951	0.014226329
2020-07-06T14:20:00	0.1611	15.515	225.0	0.352420871	0.376096583	0.004339428	0.044769074	0.013798263
2020-07-06T14:25:00	0.1589	15.496	225.0	0.346257042	0.367028868	0.004185281	0.043178771	0.013308117
2020-07-06T14:30:00	0.1594	15.504	225.0	0.347588128	0.368978623	0.004218290	0.043519324	0.013413078
2020-07-06T14:35:00	0.1619	15.514	226.0	0.354671522	0.379432417	0.004396536	0.045358250	0.013979853
2020-07-06T14:40:00	0.1612	15.512	226.0	0.352836096	0.376711013	0.004349930	0.044877429	0.013831659
2020-07-06T14:45:00	0.1605	15.499	226.0	0.350710427	0.373570330	0.004296322	0.044324360	0.013661198
2020-07-06T14:50:00	0.1596	15.481	226.0	0.348293197	0.370013276	0.004235837	0.043700353	0.013468873
2020-07-06T14:55:00	0.1589	15.469	226.0	0.346160670	0.366887885	0.004182897	0.043154176	0.013300536
2020-07-06T15:00:00	0.1595	15.457	226.0	0.347780374	0.369260606	0.004223071	0.043568640	0.013428278
2020-07-06T15:05:00	0.1583	15.437	226.0	0.344490850	0.364448931	0.004141717	0.042729334	0.013169596
2020-07-06T15:10:00	0.1577	15.421	226.0	0.342642109	0.361757137	0.004096405	0.042261857	0.013025515
2020-07-06T15:15:00	0.1573	15.403	226.0	0.341660469	0.360331478	0.004072465	0.042014868	0.012949390
2020-07-06T15:20:00	0.1567	15.392	225.0	0.339807963	0.357647878	0.004027510	0.041551082	0.012806447
2020-07-06T15:25:00	0.1558	15.386	225.0	0.337081091	0.353713880	0.003961871	0.040873893	0.012597731
2020-07-06T15:30:00	0.1571	15.377	225.0	0.341032461	0.359420724	0.004057192	0.041857303	0.012900827
2020-07-06T15:35:00	0.1570	15.368	225.0	0.340629758	0.358837254	0.004047416	0.041756449	0.012869743
2020-07-06T15:40:00	0.1566	15.352	225.0	0.339356482	0.356995201	0.004016599	0.041438509	0.012771751
2020-07-06T15:45:00	0.1575	15.340	225.0	0.342143223	0.361032279	0.004084228	0.042136226	0.012986794
2020-07-06T15:50:00	0.1570	15.337	225.0	0.340581378	0.358767186	0.004046243	0.041744342	0.012866012
2020-07-06T15:55:00	0.1565	15.331	225.0	0.339308058	0.356925229	0.004015429	0.041426446	0.012768033
2020-07-06T16:00:00	0.1572	15.314	224.0	0.341225611	0.359700726	0.004061886	0.041905726	0.012915752
2020-07-06T16:05:00	0.1559	15.292	224.0	0.337339354	0.354085643	0.003968061	0.040937750	0.012617412
2020-07-06T16:10:00	0.1566	15.254	224.0	0.339549865	0.357274698	0.004021270	0.041486705	0.012786606
2020-07-06T16:15:00	0.1565	15.224	224.0	0.339146731	0.356692159	0.004011535	0.041386271	0.012755651
2020-07-06T16:20:00	0.1559	15.198	224.0	0.337581506	0.354434370	0.003973869	0.040997676	0.012635882
2020-07-06T16:25:00	0.1553	15.175	224.0	0.335723526	0.351762550	0.003929429	0.040539193	0.012494573
2020-07-06T16:30:00	0.1552	15.152	223.0	0.335319273	0.351182410	0.003919798	0.040439838	0.012463951
2020-07-06T16:35:00	0.1550	15.138	223.0	0.334914901	0.350602522	0.003910179	0.040340598	0.012433364
2020-07-06T16:40:00	0.1555	15.134	223.0	0.336256888	0.352528621	0.003942156	0.040670498	0.012535042
2020-07-06T16:45:00	0.1563	15.114	223.0	0.338759529	0.356133039	0.004002198	0.041289941	0.012725961
2020-07-06T16:50:00	0.1555	15.090	223.0	0.336321497	0.352621469	0.003943699	0.040686420	0.012539950
2020-07-06T16:55:00	0.1570	15.057	223.0	0.340565054	0.358743545	0.004045847	0.041740258	0.012864753
2020-07-06T17:00:00	0.1560	15.033	223.0	0.337839675	0.354806333	0.003980068	0.041061623	0.012655591
2020-07-06T17:05:00	0.1561	15.013	223.0	0.338017212	0.355062224	0.003984333	0.041105632	0.012669155
2020-07-06T17:10:00	0.1565	15.001	223.0	0.339065913	0.356575425	0.004009585	0.041366154	0.012749450
2020-07-06T17:15:00	0.1558	14.990	223.0	0.337209932	0.353899322	0.003964958	0.040905743	0.012607547
2020-07-06T17:20:00	0.1565	14.966	222.0	0.339130390	0.356668555	0.004011141	0.041382203	0.012754397
2020-07-06T17:25:00	0.1563	14.940	223.0	0.338727134	0.356086279	0.004001418	0.041281887	0.012723479
2020-07-06T17:30:00	0.1562	14.915	223.0	0.338323760	0.355504256	0.003991705	0.041181685	0.012692595
2020-07-06T17:35:00	0.1567	14.896	223.0	0.339662438	0.357437444	0.004023991	0.041514777	0.012795257
2020-07-06T17:40:00	0.1615	14.872	223.0	0.353697650	0.377987343	0.004371770	0.045102750	0.013901105
2020-07-06T17:45:00	0.1623	14.839	223.0	0.355882575	0.381232914	0.004427448	0.045677169	0.014078147
2020-07-06T17:50:00	0.1633	14.799	223.0	0.358923153	0.385770453	0.004505627	0.046483725	0.014326735
2020-07-06T17:55:00	0.1632	14.770	223.0	0.358525520	0.385175666	0.004495357	0.046377771	0.014294079
2020-07-06T18:00:00	0.1640	14.739	223.0	0.360703097	0.388438043	0.004551770	0.046959772	0.014473458
2020-07-06T18:05:00	0.1640	14.707	223.0	0.360877782	0.388700293	0.004556314	0.047006647	0.014487905
2020-07-06T18:10:00	0.1647	14.669	222.0	0.362766357	0.391540729	0.004605607	0.047515203	0.014644647
2020-07-06T18:15:00	0.1649	14.632	222.0	0.363511576	0.392664146	0.004625145	0.047716772	0.014706773
2020-07-06T18:20:00	0.1644	14.602	222.0	0.361973100	0.390346511	0.004584864	0.047301199	0.014578689
2020-07-06T18:25:00	0.1642	14.569	222.0	0.361290561	0.389320311	0.004567061	0.047117523	0.014522078
2020-07-06T18:30:00	0.1634	14.538	222.0	0.359177441	0.386151039	0.004512202	0.046551558	0.014347642
2020-07-06T18:35:00	0.1637	14.507	222.0	0.359924515	0.387270156	0.004531552	0.046751185	0.014409169
2020-07-06T18:40:00	0.1647	14.478	222.0	0.362671096	0.391397229	0.004603114	0.047489474	0.014636717
2020-07-06T18:45:00	0.1649	14.444	221.0	0.363416364	0.392520532	0.004622646	0.047690991	0.014698826
2020-07-06T18:50:00	0.1647	14.408	220.0	0.362734507	0.391492748	0.004604774	0.047506600	0.014641995
2020-07-06T18:55:00	0.1639	14.379	220.0	0.360623503	0.388318576	0.004549701	0.046938423	0.014466878
2020-07-06T19:00:00	0.1641	14.351	220.0	0.361084041	0.389010049	0.004561682	0.047062031	0.014504975
2020-07-06T19:05:00	0.1630	14.320	220.0	0.357825219	0.384129161	0.004477304	0.046191516	0.014236674
2020-07-06T19:10:00	0.1633	14.293	219.0	0.358859283	0.385674886	0.004503977	0.046466696	0.014321487
2020-07-06T19:15:00	0.1640	14.266	219.0	0.360750502	0.388509203	0.004553003	0.046972490	0.014477378
2020-07-06T19:20:00	0.1643	14.244	220.0	0.361782467	0.390059769	0.004579888	0.047249855	0.014562864
2020-07-06T19:25:00	0.1645	14.215	219.0	0.362242635	0.390752098	0.004591906	0.047373849	0.014601080
2020-07-06T19:30:00	0.1648	14.182	219.0	0.362988124	0.391874888	0.004611417	0.047575134	0.014663118
2020-07-06T19:35:00	0.1645	14.151	219.0	0.362306065	0.390847574	0.004593564	0.047390956	0.014606353
2020-07-06T19:40:00	0.1645	14.125	219.0	0.362194988	0.390680387	0.004590661	0.047361002	0.014597121
2020-07-06T19:45:00	0.1645	14.099	218.0	0.362369492	0.390943055	0.004595223	0.047408065	0.014611626
2020-07-06T19:50:00	0.1649	14.073	218.0	0.363400301	0.392496305	0.004622225	0.047686642	0.014697486
2020-07-06T19:55:00	0.1642	14.047	218.0	0.361290270	0.389319873	0.004567053	0.047117445	0.014522054
2020-07-06T20:00:00	0.1650	14.021	218.0	0.363748998	0.393022368	0.004631380	0.047781097	0.014726598
2020-07-06T20:05:00	0.1653	14.000	218.0	0.364493712	0.394146964	0.004650970	0.047983198	0.014788888
2020-07-06T20:10:00	0.1659	13.982	218.0	0.366092784	0.396566705	0.004693199	0.048418873	0.014923167
2020-07-06T20:15:00	0.1659	13.963	217.0	0.366266820	0.396830468	0.004697809	0.048466431	0.014937825
2020-07-06T20:20:00	0.1659	13.947	218.0	0.366156046	0.396662573	0.004694875	0.048436157	0.014928494
2020-07-06T20:25:00	0.1650	13.930	217.0	0.363764766	0.393046165	0.004631795	0.047785371	0.014727915
2020-07-06T20:30:00	0.1650	13.911	217.0	0.363653801	0.392878717	0.004628880	0.047755299	0.014718647
2020-07-06T20:35:00	0.1655	13.887	217.0	0.364968776	0.394865129	0.004663492	0.048112387	0.014828705
2020-07-06T20:40:00	0.1655	13.868	217.0	0.365142946	0.395128576	0.004668088	0.048159802	0.014843319
2020-07-06T20:45:00	0.1654	13.852	217.0	0.364747021	0.394529823	0.004657644	0.048052057	0.014810111
2020-07-06T20:50:00	0.1652	13.833	217.0	0.364350988	0.393931323	0.004647212	0.047944426	0.014776938
2020-07-06T20:55:00	0.1647	13.809	217.0	0.362813403	0.391611607	0.004606839	0.047527914	0.014648565
2020-07-06T21:00:00	0.1645	13.787	217.0	0.362131262	0.390584485	0.004588996	0.047343822	0.014591826
2020-07-06T21:05:00	0.1645	13.764	217.0	0.362305773	0.390847135	0.004593557	0.047390877	0.014606329
2020-07-06T21:10:00	0.1649	13.740	216.0	0.363336628	0.392400280	0.004620554	0.047669406	0.014692174
2020-07-06T21:15:00	0.1651	13.717	216.0	0.364081555	0.393524382	0.004640122	0.047871284	0.014754395
2020-07-06T21:20:00	0.1656	13.693	216.0	0.365396142	0.395511700	0.004674774	0.048228781	0.014864579
2020-07-06T21:25:00	0.1653	13.673	216.0	0.364430087	0.394050827	0.004649294	0.047965912	0.014783560
2020-07-06T21:30:00	0.1654	13.652	216.0	0.364889415	0.394745116	0.004661399	0.048090791	0.014822049
2020-07-06T21:35:00	0.1659	13.633	216.0	0.366203273	0.396734149	0.004696126	0.048449062	0.014932472
2020-07-06T21:40:00	0.1668	13.612	216.0	0.368653710	0.400456095	0.004761304	0.049121501	0.015139724
2020-07-06T21:45:00	0.1673	13.595	216.0	0.370248234	0.402886588	0.004804005	0.049562034	0.015275500
2020-07-06T21:50:00	0.1679	13.577	216.0	0.371841029	0.405321211	0.004846886	0.050004434	0.015411852
2020-07-06T21:55:00	0.1676	13.560	216.0	0.371163096	0.404284148	0.004828607	0.049815851	0.015353729
2020-07-06T22:00:00	0.1673	13.542	216.0	0.370200848	0.402814261	0.004802733	0.049548908	0.015271455
2020-07-06T22:05:00	0.1676	13.526	216.0	0.371057772	0.404123139	0.004825771	0.049786590	0.015344711
2020-07-06T22:10:00	0.1671	13.509	216.0	0.369642847	0.401963014	0.004787766	0.049394502	0.015223865
2020-07-06T22:15:00	0.1670	13.490	216.0	0.369363767	0.401537581	0.004780291	0.049317385	0.015200097
2020-07-06T22:20:00	0.1673	13.473	216.0	0.370221180	0.402845293	0.004803279	0.049554540	0.015273190
2020-07-06T22:25:00	0.1674	13.454	216.0	0.370510260	0.403286636	0.004811044	0.049634651	0.015297881
2020-07-06T22:30:00	0.1681	13.432	216.0	0.372501786	0.406333181	0.004864742	0.050188649	0.015468629
2020-07-06T22:35:00	0.1690	13.415	216.0	0.375056927	0.410257431	0.004934160	0.050904819	0.015689360
2020-07-06T22:40:00	0.1690	13.395	217.0	0.375061993	0.410265229	0.004934298	0.050906245	0.015689799
2020-07-06T22:45:00	0.1688	13.375	217.0	0.374500762	0.409401772	0.004919000	0.050748417	0.015641155
2020-07-06T22:50:00	0.1684	13.357	216.0	0.373372588	0.407668620	0.004888334	0.050432042	0.015543645
2020-07-06T22:55:00	0.1685	13.338	216.0	0.373661051	0.408111447	0.004896164	0.050512823	0.015568543
2020-07-06T23:00:00	0.1682	13.318	216.0	0.372815789	0.406814494	0.004873241	0.050276333	0.015495654
2020-07-06T23:05:00	0.1687	13.299	216.0	0.374237808	0.408997506	0.004911842	0.050674571	0.015618395
2020-07-06T23:10:00	0.1684	13.279	216.0	0.373392876	0.407699757	0.004888885	0.050437720	0.015545395
2020-07-06T23:15:00	0.1683	13.259	216.0	0.373114506	0.407272621	0.004881335	0.050359833	0.015521390
2020-07-06T23:20:00	0.1689	13.240	215.0	0.374819407	0.409891906	0.004927682	0.050837990	0.015668762
2020-07-06T23:25:00	0.1693	13.222	215.0	0.375956605	0.411643337	0.004958742	0.051158431	0.015767525
2020-07-06T23:30:00	0.1693	13.203	215.0	0.375961668	0.411651142	0.004958881	0.051159860	0.015767966
2020-07-06T23:35:00	0.1701	13.184	215.0	0.378228392	0.415152551	0.005021141	0.051802188	0.015965938
2020-07-06T23:40:00	0.1696	13.163	215.0	0.376820317	0.412975878	0.004982411	0.051402614	0.015842785
2020-07-06T23:45:00	0.1696	13.142	215.0	0.376825377	0.412983691	0.004982550	0.051404047	0.015843226
2020-07-06T23:50:00	0.1706	13.123	215.0	0.379655340	0.417363824	0.005060574	0.052209010	0.016091324
2020-07-06T23:55:00	0.1702	13.107	215.0	0.378531075	0.415621149	0.005029490	0.051888324	0.015992485
2020-07-07T00:00:00	0.1706	13.092	215.0	0.379665441	0.417379497	0.005060854	0.052211896	0.016092214
2020-07-07T00:05:00	0.1710	13.078	215.0	0.380798946	0.419139962	0.005092310	0.052536428	0.016192237
2020-07-07T00:10:00	0.1712	13.061	214.0	0.381367899	0.420024914	0.005108144	0.052699778	0.016242583
2020-07-07T00:15:00	0.1714	13.043	214.0	0.381936636	0.420910401	0.005124001	0.052863370	0.016293004
2020-07-07T00:20:00	0.1725	13.028	214.0	0.385038207	0.425754656	0.005210994	0.053760868	0.016569622
2020-07-07T00:25:00	0.1732	13.016	213.0	0.386729573	0.428407278	0.005258805	0.054254122	0.016721647
2020-07-07T00:30:00	0.1737	13.005	213.0	0.388138441	0.430622743	0.005298831	0.054667059	0.016848919
2020-07-07T00:35:00	0.1739	12.994	213.0	0.388704635	0.431514600	0.005314968	0.054833540	0.016900230
2020-07-07T00:40:00	0.1738	12.983	213.0	0.388429096	0.431080469	0.005307111	0.054752484	0.016875247
2020-07-07T00:45:00	0.1736	12.972	212.0	0.387872846	0.430204681	0.005291271	0.054589070	0.016824882
2020-07-07T00:50:00	0.1733	12.961	212.0	0.387035576	0.428888016	0.005267483	0.054343651	0.016749241
2020-07-07T00:55:00	0.1730	12.951	213.0	0.386197843	0.427572517	0.005243746	0.054098762	0.016673764
2020-07-07T01:00:00	0.1733	12.944	212.0	0.387045628	0.428903811	0.005267768	0.054346594	0.016750148
2020-07-07T01:05:00	0.1722	12.936	212.0	0.383958259	0.424064976	0.005180604	0.053447336	0.016472988
2020-07-07T01:10:00	0.1682	12.927	174.0	0.372664175	0.406582063	0.004869137	0.050233984	0.015482602
2020-07-07T01:15:00	0.1683	12.915	172.0	0.372952777	0.407024555	0.004876952	0.050314615	0.015507453
2020-07-07T01:20:00	0.1677	12.903	171.0	0.371255876	0.404426004	0.004831106	0.049841634	0.015361676
2020-07-07T01:25:00	0.1685	12.890	171.0	0.373529810	0.407909948	0.004892601	0.050476061	0.015557212
2020-07-07T01:30:00	0.1689	12.874	172.0	0.374667999	0.409658979	0.004923556	0.050795416	0.015655641
2020-07-07T01:35:00	0.1688	12.864	171.0	0.374389869	0.409231264	0.004915981	0.050717267	0.015631554
2020-07-07T01:40:00	0.1685	12.853	171.0	0.373545024	0.407933304	0.004893014	0.050480322	0.015558525
2020-07-07T01:45:00	0.1686	12.842	171.0	0.373833453	0.408376212	0.004900847	0.050561140	0.015583434
2020-07-07T01:50:00	0.1686	12.831	171.0	0.373838524	0.408384000	0.004900985	0.050562561	0.015583872
2020-07-07T01:55:00	0.1699	12.821	171.0	0.377522296	0.414060368	0.005001697	0.051601586	0.015904110
2020-07-07T02:00:00	0.1696	12.812	170.0	0.376679234	0.412758078	0.004978540	0.051362680	0.015830477
2020-07-07T02:05:00	0.1691	12.806	171.0	0.375269691	0.410584987	0.004939967	0.050964727	0.015707824
2020-07-07T02:10:00	0.1695	12.801	171.0	0.376406544	0.412337256	0.004971064	0.051285548	0.015806704
2020-07-07T02:15:00	0.1686	12.796	171.0	0.373863875	0.408422940	0.004901674	0.050569669	0.015586063
2020-07-07T02:20:00	0.1682	12.792	170.0	0.372735215	0.406690962	0.004871060	0.050253824	0.015488717
2020-07-07T02:25:00	0.1686	12.788	171.0	0.373874016	0.408438516	0.004901950	0.050572512	0.015586939
2020-07-07T02:30:00	0.1691	12.783	170.0	0.375295018	0.410623987	0.004940658	0.050971861	0.015710023
2020-07-07T02:35:00	0.1693	12.777	170.0	0.375866075	0.411503783	0.004956265	0.051132877	0.015759649
2020-07-07T02:40:00	0.1698	12.771	169.0	0.377285170	0.413693884	0.004995177	0.051534322	0.015883379
2020-07-07T02:45:00	0.1701	12.766	169.0	0.378138000	0.415012659	0.005018650	0.051776482	0.015958015
2020-07-07T02:50:00	0.1696	12.761	169.0	0.376729840	0.412836196	0.004979928	0.051377002	0.015834891
2020-07-07T02:55:00	0.1700	12.759	169.0	0.377865577	0.414591184	0.005011144	0.051699054	0.015934150
2020-07-07T03:00:00	0.1680	12.755	170.0	0.372208631	0.405884061	0.004856815	0.050106869	0.015443424
2020-07-07T03:05:00	0.1677	12.748	170.0	0.371362536	0.404589112	0.004833980	0.049871285	0.015370815
2020-07-07T03:10:00	0.1678	12.741	170.0	0.371651392	0.405030992	0.004841769	0.049951639	0.015395580
2020-07-07T03:15:00	0.1682	12.734	170.0	0.372791029	0.406776532	0.004872571	0.050269416	0.015493522
2020-07-07T03:20:00	0.1685	12.726	170.0	0.373646448	0.408089024	0.004895768	0.050508732	0.015567282
2020-07-07T03:25:00	0.1686	12.721	170.0	0.373934857	0.408531979	0.004903603	0.050589572	0.015592197
2020-07-07T03:30:00	0.1686	12.716	171.0	0.373939927	0.408539767	0.004903741	0.050590994	0.015592636
2020-07-07T03:35:00	0.1687	12.712	170.0	0.374228279	0.408982861	0.004911583	0.050671896	0.015617571
2020-07-07T03:40:00	0.1683	12.708	171.0	0.373099898	0.407250211	0.004880939	0.050355748	0.015520131
2020-07-07T03:45:00	0.1689	12.701	170.0	0.374804815	0.409869455	0.004927284	0.050833886	0.015667497
2020-07-07T03:50:00	0.1694	12.698	170.0	0.376224925	0.412057089	0.004966088	0.051234214	0.015790882
2020-07-07T03:55:00	0.1697	12.698	170.0	0.377078363	0.413374380	0.004989495	0.051475702	0.015865311
2020-07-07T04:00:00	0.1700	12.694	170.0	0.377931311	0.414692866	0.005012955	0.051717731	0.015939907
2020-07-07T04:05:00	0.1704	12.690	173.0	0.378938630	0.416252491	0.005040745	0.052004438	0.016028273
2020-07-07T04:10:00	0.1705	12.685	169.0	0.379380827	0.416938001	0.005052974	0.052130598	0.016067157
2020-07-07T04:15:00	0.1709	12.683	170.0	0.380387169	0.418500026	0.005080869	0.052418394	0.016155858
2020-07-07T04:20:00	0.1713	12.680	170.0	0.381392835	0.420063720	0.005108838	0.052706944	0.016244792
2020-07-07T04:25:00	0.1713	12.678	170.0	0.381552469	0.420312182	0.005113287	0.052752835	0.016258936
2020-07-07T04:30:00	0.1718	12.674	170.0	0.382839004	0.422317112	0.005149220	0.053123553	0.016373195
2020-07-07T04:35:00	0.1719	12.669	171.0	0.383280052	0.423005464	0.005161573	0.053251000	0.016412475
2020-07-07T04:40:00	0.1726	12.665	170.0	0.385127610	0.425894677	0.005213515	0.053786873	0.016577637
2020-07-07T04:45:00	0.1725	12.663	170.0	0.385005654	0.425703680	0.005210077	0.053751401	0.016566704
2020-07-07T04:50:00	0.1724	12.659	171.0	0.384602421	0.425072450	0.005198718	0.053634217	0.016530587
2020-07-07T04:55:00	0.1729	12.658	170.0	0.385886355	0.427083868	0.005234937	0.054007876	0.016645752
2020-07-07T05:00:00	0.1731	12.657	170.0	0.386607461	0.428215506	0.005255344	0.054218420	0.016710644
2020-07-07T05:05:00	0.1725	12.658	169.0	0.384799018	0.425380152	0.005204254	0.053691331	0.016548190
2020-07-07T05:10:00	0.1726	12.662	170.0	0.385239492	0.426069934	0.005216670	0.053819427	0.016587670
2020-07-07T05:15:00	0.1725	12.663	170.0	0.384836321	0.425438548	0.005205305	0.053702172	0.016551531
2020-07-07T05:20:00	0.1728	12.666	169.0	0.385839018	0.427009631	0.005233599	0.053994072	0.016641497
2020-07-07T05:25:00	0.1729	12.668	169.0	0.385998181	0.427259266	0.005238098	0.054040494	0.016655805
2020-07-07T05:30:00	0.1739	12.672	169.0	0.388964779	0.431924665	0.005322392	0.054910134	0.016923837
2020-07-07T05:35:00	0.1746	12.671	169.0	0.390805426	0.434831302	0.005375099	0.055453909	0.017091433
2020-07-07T05:40:00	0.1742	12.670	169.0	0.389562835	0.432868073	0.005339483	0.055086462	0.016978183
2020-07-07T05:45:00	0.1749	12.671	169.0	0.391682772	0.436219982	0.005400333	0.055714236	0.017171669
2020-07-07T05:50:00	0.1757	12.671	169.0	0.393799775	0.439579400	0.005461513	0.056345420	0.017366206
2020-07-07T05:55:00	0.1753	12.679	169.0	0.392839417	0.438053925	0.005433707	0.056058559	0.017277792
2020-07-07T06:00:00	0.1758	12.685	168.0	0.394116427	0.440082930	0.005470699	0.056440198	0.017395417
2020-07-07T06:05:00	0.1761	12.691	169.0	0.395113040	0.441669496	0.005499674	0.056739124	0.017487549
2020-07-07T06:10:00	0.1764	12.695	169.0	0.395829803	0.442812218	0.005520570	0.056954700	0.017553992
2020-07-07T06:15:00	0.1771	12.704	169.0	0.397662237	0.445739983	0.005574208	0.057508072	0.017724546
2020-07-07T06:20:00	0.1766	12.711	169.0	0.396425186	0.443762488	0.005537963	0.057134144	0.017609298
2020-07-07T06:25:00	0.1770	12.723	169.0	0.397420308	0.445352920	0.005567108	0.057434827	0.017701972
2020-07-07T06:30:00	0.1765	12.727	169.0	0.396183063	0.443375929	0.005530886	0.057061129	0.017586794
2020-07-07T06:35:00	0.1764	12.730	168.0	0.395782773	0.442737197	0.005519197	0.056940540	0.017549627
2020-07-07T06:40:00	0.1770	12.721	169.0	0.397615263	0.445664817	0.005572829	0.057493846	0.017720162
2020-07-07T06:45:00	0.1776	12.712	168.0	0.399166980	0.448151012	0.005618488	0.057964901	0.017865345
2020-07-07T06:50:00	0.1782	12.707	168.0	0.400717146	0.450641271	0.005664326	0.058437805	0.018011099
2020-07-07T06:55:00	0.1784	12.708	169.0	0.401431321	0.451790759	0.005685520	0.058656457	0.018078490
2020-07-07T07:00:00	0.1784	12.711	168.0	0.401310655	0.451596445	0.005681935	0.058619479	0.018067093
2020-07-07T07:05:00	0.1804	12.709	169.0	0.407022701	0.460838408	0.005853106	0.060385417	0.018611372
2020-07-07T07:10:00	0.1808	12.704	168.0	0.408011092	0.462446661	0.005883037	0.060694211	0.018706545
2020-07-07T07:15:00	0.1808	12.699	168.0	0.408167988	0.462702198	0.005887797	0.060743317	0.018721680
2020-07-07T07:20:00	0.1809	12.702	169.0	0.408324867	0.462957778	0.005892559	0.060792441	0.018736821
2020-07-07T07:25:00	0.1802	12.718	169.0	0.406541701	0.460056720	0.005838574	0.060235487	0.018565162
2020-07-07T07:30:00	0.1803	12.755	168.0	0.406698742	0.460311863	0.005843316	0.060284412	0.018580241
2020-07-07T07:35:00	0.1808	12.783	169.0	0.407964429	0.462370673	0.005881622	0.060679611	0.018702046
2020-07-07T07:40:00	0.1806	12.769	169.0	0.407567151	0.461723974	0.005869582	0.060555397	0.018663761
2020-07-07T07:45:00	0.1809	12.762	169.0	0.408278213	0.462881764	0.005891142	0.060777830	0.018732317
2020-07-07T07:50:00	0.1811	12.753	169.0	0.408988955	0.464040417	0.005912741	0.061000656	0.018800995
2020-07-07T07:55:00	0.1813	12.747	168.0	0.409422590	0.464748010	0.005925942	0.061136849	0.018842971
2020-07-07T08:00:00	0.1820	12.743	169.0	0.411515656	0.468170672	0.005989912	0.061796815	0.019046379
2020-07-07T08:05:00	0.1820	12.736	169.0	0.411395760	0.467974290	0.005986236	0.061758895	0.019034691
2020-07-07T08:10:00	0.1816	12.735	169.0	0.410169515	0.465968031	0.005948722	0.061371870	0.018915406
2020-07-07T08:15:00	0.1819	12.753	168.0	0.411155942	0.467581600	0.005978888	0.061683088	0.019011327
2020-07-07T08:20:00	0.1817	12.768	168.0	0.410482862	0.466480306	0.005958295	0.061470627	0.018945844
2020-07-07T08:25:00	0.1828	12.772	169.0	0.413679202	0.471721236	0.006056474	0.062483526	0.019258030
2020-07-07T08:30:00	0.1836	12.777	168.0	0.415766685	0.475159180	0.006121120	0.063150466	0.019463587
2020-07-07T08:35:00	0.1842	12.776	169.0	0.417576075	0.478148836	0.006177491	0.063732040	0.019642834
2020-07-07T08:40:00	0.1841	12.788	169.0	0.417181188	0.477495594	0.006165162	0.063604839	0.019603629
2020-07-07T08:45:00	0.1844	12.811	168.0	0.417887973	0.478665096	0.006187240	0.063832618	0.019673833
2020-07-07T08:50:00	0.1847	12.830	168.0	0.418869651	0.480291746	0.006217985	0.064149809	0.019771594
2020-07-07T08:55:00	0.1854	12.842	169.0	0.420675559	0.483291104	0.006274787	0.064735817	0.019952208
2020-07-07T09:00:00	0.1855	12.866	168.0	0.421106039	0.484007400	0.006288373	0.064875984	0.019995408
2020-07-07T09:05:00	0.1855	12.871	168.0	0.420986859	0.483809039	0.006284610	0.064837160	0.019983442
2020-07-07T09:10:00	0.1848	12.867	169.0	0.419217788	0.480869252	0.006228911	0.064262525	0.019806334
2020-07-07T09:15:00	0.1842	12.913	168.0	0.417446776	0.477934895	0.006173453	0.063690373	0.019629992
2020-07-07T09:20:00	0.1839	12.975	169.0	0.416500780	0.476371038	0.006143953	0.063386028	0.019536190
2020-07-07T09:25:00	0.1833	12.930	169.0	0.415002635	0.473899450	0.006097410	0.062905857	0.019388196
2020-07-07T09:30:00	0.1832	12.962	169.0	0.414607114	0.473247964	0.006085159	0.062779459	0.019349239
2020-07-07T09:35:00	0.1826	13.006	168.0	0.413107194	0.470781271	0.006038833	0.062301523	0.019201934
2020-07-07T09:40:00	0.1827	12.999	168.0	0.413263586	0.471038176	0.006043653	0.062351252	0.019217261
2020-07-07T09:45:00	0.1824	12.983	168.0	0.412591397	0.469934448	0.006022952	0.062137681	0.019151437
2020-07-07T09:50:00	0.1820	13.035	168.0	0.411366075	0.467925673	0.005985326	0.061749508	0.019031798
2020-07-07T09:55:00	0.1830	13.042	169.0	0.414284700	0.472717216	0.006075182	0.062676537	0.019317518
2020-07-07T10:00:00	0.1831	13.048	168.0	0.414440977	0.472974439	0.006080017	0.062726411	0.019332889
2020-07-07T10:05:00	0.1822	13.101	168.0	0.412065543	0.469071865	0.006006787	0.061970913	0.019100037
2020-07-07T10:10:00	0.1818	13.169	169.0	0.410793234	0.466987982	0.005967785	0.061568542	0.018976023
2020-07-07T10:15:00	0.1828	13.221	169.0	0.413666413	0.471700211	0.006056079	0.062479454	0.019256774
2020-07-07T10:20:00	0.1823	13.237	169.0	0.412119066	0.469159626	0.006008431	0.061987875	0.019105265
2020-07-07T10:25:00	0.1818	13.250	170.0	0.410846800	0.467075627	0.005969424	0.061585451	0.018981234
2020-07-07T10:30:00	0.1827	13.262	169.0	0.413443793	0.471334287	0.006049210	0.062408584	0.019234932
2020-07-07T10:35:00	0.1828	13.253	169.0	0.413553653	0.471514848	0.006052599	0.062443551	0.019245709
2020-07-07T10:40:00	0.1827	13.266	169.0	0.413387406	0.471241624	0.006047471	0.062390641	0.019229402
2020-07-07T10:45:00	0.1830	13.279	169.0	0.414049381	0.472330021	0.006067907	0.062601483	0.019294385
2020-07-07T10:50:00	0.1828	13.315	170.0	0.413607126	0.471602746	0.006054249	0.062460575	0.019250956
2020-07-07T10:55:00	0.1823	13.355	170.0	0.412336050	0.469515494	0.006015099	0.062056667	0.019126467
2020-07-07T11:00:00	0.1822	13.376	170.0	0.411893318	0.468789523	0.006001499	0.061916354	0.019083222
2020-07-07T11:05:00	0.1826	13.399	171.0	0.413108351	0.470783171	0.006038868	0.062301891	0.019202048
2020-07-07T11:10:00	0.1817	13.418	170.0	0.410454319	0.466433631	0.005957422	0.061461627	0.018943070
2020-07-07T11:15:00	0.1822	13.420	170.0	0.411946847	0.468877268	0.006003142	0.061933308	0.019088447
2020-07-07T11:20:00	0.1830	13.443	170.0	0.414266102	0.472686610	0.006074607	0.062670604	0.019315689
2020-07-07T11:25:00	0.1819	13.465	170.0	0.411061045	0.467426253	0.005975982	0.061653106	0.019002086
2020-07-07T11:30:00	0.1826	13.491	170.0	0.413105442	0.470778393	0.006038779	0.062300966	0.019201763
2020-07-07T11:35:00	0.1834	13.496	170.0	0.415147221	0.474137713	0.006101893	0.062952102	0.019402449
2020-07-07T11:40:00	0.1838	13.497	170.0	0.416359782	0.476138160	0.006139563	0.063340742	0.019522232
2020-07-07T11:45:00	0.1843	13.520	169.0	0.417846806	0.478596940	0.006185953	0.063819337	0.019669739
2020-07-07T11:50:00	0.1830	13.537	170.0	0.414097023	0.472408399	0.006069380	0.062616674	0.019299067
2020-07-07T11:55:00	0.1833	13.548	170.0	0.415034565	0.473952062	0.006098400	0.062916068	0.019391343
2020-07-07T12:00:00	0.1831	13.555	170.0	0.414316645	0.472769789	0.006076170	0.062686730	0.019320659
2020-07-07T12:05:00	0.1836	13.569	170.0	0.415805563	0.475223324	0.006122328	0.063162928	0.019467428
2020-07-07T12:10:00	0.1844	13.604	170.0	0.418119237	0.479048064	0.006194475	0.063907256	0.019696837
2020-07-07T12:15:00	0.1850	13.621	171.0	0.419604637	0.481511367	0.006241065	0.064387917	0.019844981
2020-07-07T12:20:00	0.1850	13.629	170.0	0.419714076	0.481693095	0.006244506	0.064423417	0.019855923
2020-07-07T12:25:00	0.1847	13.654	171.0	0.418723062	0.480048678	0.006213388	0.064102384	0.019756977
2020-07-07T12:30:00	0.1837	13.682	171.0	0.416078341	0.475673486	0.006130807	0.063250408	0.019494390
2020-07-07T12:35:00	0.1822	13.715	171.0	0.412048077	0.469043228	0.006006250	0.061965379	0.019098332
2020-07-07T12:40:00	0.1837	13.726	171.0	0.416022047	0.475580568	0.006129057	0.063232348	0.019488824
2020-07-07T12:45:00	0.1846	13.734	172.0	0.418610657	0.479862333	0.006209865	0.064066032	0.019745773
2020-07-07T12:50:00	0.1839	13.744	171.0	0.416517011	0.476397849	0.006144458	0.063391243	0.019537797
2020-07-07T12:55:00	0.1834	13.761	171.0	0.415248248	0.474304229	0.006105026	0.062984427	0.019412412
2020-07-07T13:00:00	0.1838	13.762	171.0	0.416460733	0.476304888	0.006142706	0.063373164	0.019532225
2020-07-07T13:05:00	0.1835	13.758	172.0	0.415467712	0.474666055	0.006111836	0.063054682	0.019434065
2020-07-07T13:10:00	0.1832	13.772	172.0	0.414749986	0.473483246	0.006089582	0.062825099	0.019363306
2020-07-07T13:15:00	0.1830	13.800	171.0	0.414031937	0.472301325	0.006067368	0.062595922	0.019292671
2020-07-07T13:20:00	0.1846	13.833	171.0	0.418551552	0.479764363	0.006208013	0.064046923	0.019739884
2020-07-07T13:25:00	0.1842	13.869	171.0	0.417559824	0.478121943	0.006176984	0.063726802	0.019641219
2020-07-07T13:30:00	0.1842	13.913	171.0	0.417393992	0.477847572	0.006171804	0.063673368	0.019624751
2020-07-07T13:35:00	0.1834	13.948	171.0	0.415298759	0.474387495	0.006106593	0.063000592	0.019417394
2020-07-07T13:40:00	0.1830	13.974	171.0	0.414029030	0.472296542	0.006067279	0.062594995	0.019292385
2020-07-07T13:45:00	0.1823	13.992	172.0	0.412205731	0.469301748	0.006011094	0.062015346	0.019113732
2020-07-07T13:50:00	0.1816	14.009	171.0	0.410380342	0.466312671	0.005955162	0.061438305	0.018935882
2020-07-07T13:55:00	0.1820	14.031	171.0	0.411320073	0.467850339	0.005983917	0.061734964	0.019027315
2020-07-07T14:00:00	0.1822	14.034	173.0	0.411982908	0.468936383	0.006004249	0.061944731	0.019091968
2020-07-07T14:05:00	0.1814	14.030	173.0	0.409603797	0.465043853	0.005931464	0.061193816	0.018860528
2020-07-07T14:10:00	0.1811	14.025	171.0	0.408883421	0.463868288	0.005909531	0.060967539	0.018790788
2020-07-07T14:15:00	0.1815	14.034	172.0	0.410100758	0.465855661	0.005946623	0.061350212	0.018908731
2020-07-07T14:20:00	0.1810	14.042	170.0	0.408549931	0.463324556	0.005899394	0.060862958	0.018758555
2020-07-07T14:25:00	0.1806	14.046	170.0	0.407551958	0.461699252	0.005869122	0.060550650	0.018662298
2020-07-07T14:30:00	0.1814	14.049	171.0	0.409600882	0.465039092	0.005931375	0.061192899	0.018860246
2020-07-07T14:35:00	0.1824	14.060	169.0	0.412476214	0.469745443	0.006019409	0.062101129	0.019140171
2020-07-07T14:40:00	0.1808	14.070	170.0	0.408159798	0.462688858	0.005887549	0.060740753	0.018720890
2020-07-07T14:45:00	0.1805	14.081	170.0	0.407161578	0.461064220	0.005857306	0.060428747	0.018624727
2020-07-07T14:50:00	0.1796	14.099	174.0	0.404775190	0.457191343	0.005785389	0.059686792	0.018396049
2020-07-07T14:55:00	0.1804	14.103	171.0	0.406827725	0.460521469	0.005847213	0.060324614	0.018592632
2020-07-07T15:00:00	0.1803	14.104	175.0	0.406660771	0.460250166	0.005842169	0.060272580	0.018576595
2020-07-07T15:05:00	0.1792	14.097	175.0	0.403718086	0.455480744	0.005753703	0.059359897	0.018295297
2020-07-07T15:10:00	0.1771	14.094	175.0	0.397705071	0.445808531	0.005575465	0.057521046	0.017728545
2020-07-07T15:15:00	0.1784	14.096	175.0	0.401437151	0.451800148	0.005685693	0.058658244	0.018079040
2020-07-07T15:20:00	0.1785	14.093	175.0	0.401547850	0.451978448	0.005688982	0.058692180	0.018089500
2020-07-07T15:25:00	0.1784	14.090	175.0	0.401380333	0.451708645	0.005684005	0.058640830	0.018073673
2020-07-07T15:30:00	0.1785	14.093	176.0	0.401769225	0.452335111	0.005695564	0.058760082	0.018110428
2020-07-07T15:35:00	0.1792	14.095	176.0	0.403547875	0.455205594	0.005748611	0.059307363	0.018279105
2020-07-07T15:40:00	0.1791	14.095	175.0	0.403380572	0.454935224	0.005743609	0.059255754	0.018263199
2020-07-07T15:45:00	0.1784	14.097	176.0	0.401266691	0.451525658	0.005680630	0.058606010	0.018062941
2020-07-07T15:50:00	0.1779	14.094	175.0	0.399985611	0.449465283	0.005642666	0.058214349	0.017942228
2020-07-07T15:55:00	0.1775	14.085	175.0	0.398982162	0.447854550	0.005613038	0.057908674	0.017848016
2020-07-07T16:00:00	0.1782	14.080	175.0	0.400763995	0.450716633	0.005665715	0.058452133	0.018015515
2020-07-07T16:05:00	0.1771	14.081	175.0	0.397820143	0.445992704	0.005578844	0.057555908	0.017739290
2020-07-07T16:10:00	0.1773	14.082	175.0	0.398219905	0.446632809	0.005590593	0.057677122	0.017776649
2020-07-07T16:15:00	0.1763	14.077	175.0	0.395550515	0.442366787	0.005512422	0.056870642	0.017528084
2020-07-07T16:20:00	0.1766	14.067	175.0	0.396509183	0.443896630	0.005540420	0.057159488	0.017617109
2020-07-07T16:25:00	0.1765	14.050	175.0	0.396071949	0.443198583	0.005527640	0.057027640	0.017576472
2020-07-07T16:30:00	0.1756	14.048	175.0	0.393678481	0.439386592	0.005457996	0.056309140	0.017355024
2020-07-07T16:35:00	0.1744	14.049	174.0	0.390160624	0.433812027	0.005356600	0.055263051	0.017032609
2020-07-07T16:40:00	0.1735	14.045	170.0	0.387757884	0.430023782	0.005288001	0.054555333	0.016814483
2020-07-07T16:45:00	0.1730	14.034	170.0	0.386194565	0.427567373	0.005243653	0.054097805	0.016673469
2020-07-07T16:50:00	0.1730	14.026	170.0	0.386316424	0.427758612	0.005247102	0.054133386	0.016684435
2020-07-07T16:55:00	0.1730	14.016	175.0	0.386438274	0.427949875	0.005250552	0.054168978	0.016695405
2020-07-07T17:00:00	0.1724	14.003	171.0	0.384592321	0.425056645	0.005198434	0.053631284	0.016529683
2020-07-07T17:05:00	0.1719	13.990	171.0	0.383307284	0.423047983	0.005162337	0.053258875	0.016414903
2020-07-07T17:10:00	0.1714	13.976	171.0	0.381739346	0.420603134	0.005118497	0.052806587	0.016275503
2020-07-07T17:15:00	0.1706	13.965	170.0	0.379605409	0.417286356	0.005059191	0.052194742	0.016086927
2020-07-07T17:20:00	0.1700	13.953	169.0	0.377751030	0.414414026	0.005007991	0.051666518	0.015924123
2020-07-07T17:25:00	0.1692	13.943	171.0	0.375611376	0.411111275	0.004949301	0.051061025	0.015737504
2020-07-07T17:30:00	0.1691	13.936	169.0	0.375168058	0.410428505	0.004937193	0.050936105	0.015699002
2020-07-07T17:35:00	0.1686	13.925	169.0	0.373874882	0.408439847	0.004901973	0.050572755	0.015587014
2020-07-07T17:40:00	0.1689	13.908	169.0	0.374847403	0.409934983	0.004928446	0.050845864	0.015671189
2020-07-07T17:45:00	0.1676	13.891	174.0	0.371001281	0.404036794	0.004824250	0.049770901	0.015339875
2020-07-07T17:50:00	0.1674	13.875	171.0	0.370556575	0.403357366	0.004812288	0.049647493	0.015301839
2020-07-07T17:55:00	0.1675	13.860	174.0	0.370679720	0.403545455	0.004815599	0.049681648	0.015312366
2020-07-07T18:00:00	0.1672	13.845	173.0	0.369950865	0.402432801	0.004796024	0.049479699	0.015250124
2020-07-07T18:05:00	0.1676	13.832	174.0	0.370925978	0.403921707	0.004822223	0.049749991	0.015333430
2020-07-07T18:10:00	0.1667	13.819	171.0	0.368492068	0.400210087	0.004756988	0.049076973	0.015126000
2020-07-07T18:15:00	0.1664	13.805	170.0	0.367762124	0.399100025	0.004737527	0.048876196	0.015064118
2020-07-07T18:20:00	0.1663	13.789	171.0	0.367316434	0.398422939	0.004725668	0.048753847	0.015026409
2020-07-07T18:25:00	0.1661	13.773	171.0	0.366870607	0.397746174	0.004713823	0.048631642	0.014988744
2020-07-07T18:30:00	0.1658	13.754	171.0	0.365855004	0.396206462	0.004686905	0.048353940	0.014903154
2020-07-07T18:35:00	0.1657	13.734	171.0	0.365693665	0.395962115	0.004682638	0.048309911	0.014889584
2020-07-07T18:40:00	0.1655	13.712	171.0	0.364962318	0.394855363	0.004663322	0.048110629	0.014828163
2020-07-07T18:45:00	0.1649	13.689	171.0	0.363374768	0.392457797	0.004621555	0.047679730	0.014695356
2020-07-07T18:50:00	0.1652	13.666	171.0	0.364354283	0.393936300	0.004647298	0.047945321	0.014777214
2020-07-07T18:55:00	0.1649	13.642	171.0	0.363336919	0.392400719	0.004620562	0.047669485	0.014692198
2020-07-07T19:00:00	0.1648	13.616	171.0	0.363175301	0.392157028	0.004616323	0.047625753	0.014678719
2020-07-07T19:05:00	0.1650	13.590	171.0	0.363584419	0.392774036	0.004627058	0.047736502	0.014712854
2020-07-07T19:10:00	0.1651	13.565	171.0	0.363993423	0.393391313	0.004637804	0.047847373	0.014747025
2020-07-07T19:15:00	0.1654	13.540	171.0	0.364687444	0.394439761	0.004656074	0.048035857	0.014805118
2020-07-07T19:20:00	0.1663	13.513	171.0	0.367374550	0.398511198	0.004727213	0.048769790	0.015031323
2020-07-07T19:25:00	0.1659	13.488	172.0	0.366359297	0.396970657	0.004700260	0.048491713	0.014945617
2020-07-07T19:30:00	0.1643	13.464	171.0	0.361633909	0.389836382	0.004576012	0.047209867	0.014550540
2020-07-07T19:35:00	0.1647	13.438	171.0	0.362900087	0.391742218	0.004609110	0.047551338	0.014655784
2020-07-07T19:40:00	0.1649	13.414	171.0	0.363309284	0.392359045	0.004619837	0.047662005	0.014689893
2020-07-07T19:45:00	0.1643	13.393	171.0	0.361719920	0.389965710	0.004578255	0.047233017	0.014557674
2020-07-07T19:50:00	0.1627	13.371	171.0	0.356979303	0.382866779	0.004455554	0.045967126	0.014167515
2020-07-07T19:55:00	0.1639	13.349	171.0	0.360538787	0.388191441	0.004547499	0.046915707	0.014459876
2020-07-07T20:00:00	0.1639	13.327	171.0	0.360376855	0.387948479	0.004543292	0.046872303	0.014446499
2020-07-07T20:05:00	0.1635	13.307	172.0	0.359356686	0.386419413	0.004516840	0.046599408	0.014362390
2020-07-07T20:10:00	0.1630	13.288	171.0	0.358049402	0.384464031	0.004483078	0.046251093	0.014255036
2020-07-07T20:15:00	0.1638	13.268	171.0	0.360176974	0.387648673	0.004538102	0.046818760	0.014429997
2020-07-07T20:20:00	0.1636	13.248	171.0	0.359728945	0.386977049	0.004526482	0.046698878	0.014393048
2020-07-07T20:25:00	0.1641	13.228	171.0	0.360996794	0.388879010	0.004559411	0.047038599	0.014497753
2020-07-07T20:30:00	0.1629	13.208	170.0	0.357686961	0.383922706	0.004473745	0.046154797	0.014225357
2020-07-07T20:35:00	0.1625	13.191	170.0	0.356378154	0.381970817	0.004440135	0.045808058	0.014118488
2020-07-07T20:40:00	0.1622	13.174	170.0	0.355642064	0.380875036	0.004421299	0.045613728	0.014058594
2020-07-07T20:45:00	0.1623	13.155	170.0	0.356053331	0.381487092	0.004431817	0.045722243	0.014092039
2020-07-07T20:50:00	0.1620	13.138	170.0	0.355030079	0.379965089	0.004405675	0.045452535	0.014008913
2020-07-07T20:55:00	0.1602	13.123	170.0	0.349979161	0.372492625	0.004277970	0.044135032	0.013602846
2020-07-07T21:00:00	0.1597	13.108	170.0	0.348374888	0.370133237	0.004237873	0.043721356	0.013475347
2020-07-07T21:05:00	0.1595	13.091	170.0	0.347923129	0.369470057	0.004226622	0.043605281	0.013439571
2020-07-07T21:10:00	0.1594	13.076	170.0	0.347471225	0.368807200	0.004215385	0.043489352	0.013403841
2020-07-07T21:15:00	0.1595	13.064	170.0	0.347884869	0.369413916	0.004225670	0.043595459	0.013436544
2020-07-07T21:20:00	0.1592	13.052	170.0	0.347144355	0.368328076	0.004207268	0.043405611	0.013378031
2020-07-07T21:25:00	0.1590	13.039	169.0	0.346403451	0.367243099	0.004188904	0.043216152	0.013319638
2020-07-07T21:30:00	0.1592	13.026	170.0	0.347106073	0.368271981	0.004206318	0.043395810	0.013375010
2020-07-07T21:35:00	0.1597	13.011	169.0	0.348385209	0.370148395	0.004238130	0.043724010	0.013476165
2020-07-07T21:40:00	0.1589	12.998	170.0	0.346201594	0.366947751	0.004183909	0.043164620	0.013303755
2020-07-07T21:45:00	0.1592	12.987	171.0	0.346904318	0.367976410	0.004201314	0.043344177	0.013359096
2020-07-07T21:50:00	0.1595	12.976	170.0	0.347895193	0.369429066	0.004225927	0.043598110	0.013437361
2020-07-07T21:55:00	0.1596	12.965	170.0	0.348308712	0.370036059	0.004236224	0.043704342	0.013470103
2020-07-07T22:00:00	0.1591	12.955	170.0	0.346702534	0.367680903	0.004196312	0.043292573	0.013343191
2020-07-07T22:05:00	0.1598	12.944	170.0	0.348760347	0.370699513	0.004247487	0.043820540	0.013505916
2020-07-07T22:10:00	0.1600	12.934	170.0	0.349375043	0.371603363	0.004262845	0.043978985	0.013554750
2020-07-07T22:15:00	0.1588	12.922	171.0	0.345951058	0.366581323	0.004177714	0.043100710	0.013284057
2020-07-07T22:20:00	0.1581	12.912	170.0	0.343965855	0.363683624	0.004128820	0.042596274	0.013128585
2020-07-07T22:25:00	0.1581	12.901	170.0	0.343714918	0.363318076	0.004122664	0.042532761	0.013109010
2020-07-07T22:30:00	0.1577	12.891	170.0	0.342595505	0.361689396	0.004095267	0.042250112	0.013021895
2020-07-07T22:35:00	0.1579	12.880	169.0	0.343212908	0.362587277	0.004110364	0.042405867	0.013069900
2020-07-07T22:40:00	0.1576	12.871	170.0	0.342382733	0.361380194	0.004090071	0.042196513	0.013005375
2020-07-07T22:45:00	0.1573	12.862	169.0	0.341552062	0.360174191	0.004069826	0.041987644	0.012941000
2020-07-07T22:50:00	0.1562	12.852	169.0	0.338399293	0.355613209	0.003993523	0.041200437	0.012698375
2020-07-07T22:55:00	0.1565	12.843	170.0	0.339308847	0.356926370	0.004015449	0.041426642	0.012768094
2020-07-07T23:00:00	0.1575	12.833	170.0	0.341957091	0.360762004	0.004079690	0.042089411	0.012972365
2020-07-07T23:05:00	0.1578	12.823	169.0	0.342864318	0.362080205	0.004101836	0.042317885	0.013042783
2020-07-07T23:10:00	0.1578	12.813	169.0	0.342902716	0.362136044	0.004102775	0.042327571	0.013045769
2020-07-07T23:15:00	0.1575	12.805	170.0	0.342072356	0.360929365	0.004082500	0.042118398	0.012981299
2020-07-07T23:20:00	0.1592	12.798	170.0	0.347026467	0.368155345	0.004204343	0.043375433	0.013368730
2020-07-07T23:25:00	0.1630	12.789	170.0	0.357990910	0.384376647	0.004481571	0.046235544	0.014250244
2020-07-07T23:30:00	0.1638	12.784	170.0	0.360318458	0.387860877	0.004541775	0.046856656	0.014441677
2020-07-07T23:35:00	0.1647	12.780	170.0	0.362927730	0.391783874	0.004609834	0.047558809	0.014658087
2020-07-07T23:40:00	0.1651	12.781	170.0	0.363821667	0.393132041	0.004633290	0.047800796	0.014732669
2020-07-07T23:45:00	0.1652	12.785	169.0	0.364144742	0.393619800	0.004641784	0.047888431	0.014759680
2020-07-07T23:50:00	0.1662	12.786	169.0	0.367031815	0.397990827	0.004718104	0.048675810	0.015002357
2020-07-07T23:55:00	0.1670	12.786	170.0	0.369344905	0.401508834	0.004779786	0.049312175	0.015198491
2020-07-08T00:00:00	0.1675	12.785	169.0	0.370802854	0.403733569	0.004818911	0.049715814	0.015322897
2020-07-08T00:05:00	0.1680	12.788	170.0	0.372259358	0.405961759	0.004858186	0.050121015	0.015447783
2020-07-08T00:10:00	0.1687	12.794	169.0	0.374281022	0.409063931	0.004913018	0.050686702	0.015622134
2020-07-08T00:15:00	0.1691	12.797	170.0	0.375168058	0.410428505	0.004937193	0.050936105	0.015699002
2020-07-08T00:20:00	0.1696	12.798	169.0	0.376620267	0.412667062	0.004976923	0.051345995	0.015825334
2020-07-08T00:25:00	0.1692	12.797	169.0	0.375526179	0.410980019	0.004946972	0.051037003	0.015730100
2020-07-08T00:30:00	0.1707	12.798	169.0	0.379802661	0.417592432	0.005064656	0.052251120	0.016104303
2020-07-08T00:35:00	0.1708	12.798	170.0	0.380122250	0.418088560	0.005073517	0.052342540	0.016132479
2020-07-08T00:40:00	0.1715	12.796	170.0	0.382133263	0.421216737	0.005129490	0.052919999	0.016310458
2020-07-08T00:45:00	0.1727	12.795	170.0	0.385547834	0.426553108	0.005225373	0.053909206	0.016615341
2020-07-08T00:50:00	0.1736	12.793	170.0	0.388113012	0.430582708	0.005298107	0.054659589	0.016846616
2020-07-08T00:55:00	0.1731	12.790	170.0	0.386465482	0.427992586	0.005251323	0.054176927	0.016697855
2020-07-08T01:00:00	0.1712	12.784	169.0	0.381155397	0.419694286	0.005102227	0.052638732	0.016223768
2020-07-08T01:05:00	0.1719	12.779	169.0	0.383165027	0.422825891	0.005158350	0.053217744	0.016402226
2020-07-08T01:10:00	0.1726	12.772	170.0	0.385171975	0.425964169	0.005214766	0.053799780	0.016581615
2020-07-08T01:15:00	0.1728	12.764	170.0	0.385771528	0.426903799	0.005231691	0.053974394	0.016635433
2020-07-08T01:20:00	0.1727	12.756	170.0	0.385527711	0.426521567	0.005224804	0.053903344	0.016613534
2020-07-08T01:25:00	0.1723	12.749	170.0	0.384440115	0.424818498	0.005194150	0.053587093	0.016516062
2020-07-08T01:30:00	0.1721	12.740	169.0	0.383914686	0.423996869	0.005179380	0.053434709	0.016469096
2020-07-08T01:35:00	0.1728	12.732	169.0	0.385639563	0.426696898	0.005227963	0.053935932	0.016623578
2020-07-08T01:40:00	0.1704	12.723	170.0	0.378915412	0.416216511	0.005040104	0.051997819	0.016026233
2020-07-08T01:45:00	0.1696	12.716	169.0	0.376692302	0.412778250	0.004978899	0.051366379	0.015831617
2020-07-08T01:50:00	0.1691	12.710	170.0	0.375315247	0.410655138	0.004941211	0.050977560	0.015711779
2020-07-08T01:55:00	0.1696	12.701	168.0	0.376767312	0.412894045	0.004980956	0.051387609	0.015838160
2020-07-08T02:00:00	0.1695	12.692	170.0	0.376522026	0.412515447	0.004974229	0.051318204	0.015816769
2020-07-08T02:05:00	0.1699	12.681	170.0	0.377690345	0.414320184	0.005006321	0.051649286	0.015918812
2020-07-08T02:10:00	0.1696	12.673	169.0	0.376597045	0.412631221	0.004976286	0.051339425	0.015823309
2020-07-08T02:15:00	0.1692	12.668	169.0	0.375502939	0.410944219	0.004946337	0.051030452	0.015728081
2020-07-08T02:20:00	0.1690	12.661	169.0	0.374974358	0.410130348	0.004931908	0.050881581	0.015682197
2020-07-08T02:25:00	0.1675	12.654	169.0	0.370759216	0.403666898	0.004817737	0.049703704	0.015319164
2020-07-08T02:30:00	0.1683	12.646	168.0	0.373066442	0.407198891	0.004880032	0.050346392	0.015517247
2020-07-08T02:35:00	0.1686	12.639	169.0	0.373954206	0.408561704	0.004904129	0.050594998	0.015593870
2020-07-08T02:40:00	0.1678	12.631	169.0	0.371723637	0.405141545	0.004843718	0.049971748	0.015401778
2020-07-08T02:45:00	0.1680	12.627	170.0	0.372328618	0.406067855	0.004860059	0.050140332	0.015453737
2020-07-08T02:50:00	0.1681	12.621	169.0	0.372366234	0.406125484	0.004861076	0.050150825	0.015456971
2020-07-08T02:55:00	0.1679	12.613	168.0	0.371836530	0.405314325	0.004846765	0.050003181	0.015411466
2020-07-08T03:00:00	0.1685	12.606	169.0	0.373575420	0.407979969	0.004893839	0.050488835	0.015561149
2020-07-08T03:05:00	0.1679	12.601	169.0	0.371911787	0.405429523	0.004848797	0.050024141	0.015417926
2020-07-08T03:10:00	0.1665	12.596	169.0	0.367972337	0.399419561	0.004743127	0.048933967	0.015081924
2020-07-08T03:15:00	0.1677	12.591	168.0	0.371419559	0.404676327	0.004835517	0.049887142	0.015375702
2020-07-08T03:20:00	0.1691	12.586	169.0	0.375424884	0.410823988	0.004944205	0.051008452	0.015721300
2020-07-08T03:25:00	0.1694	12.579	169.0	0.376028352	0.411753952	0.004960706	0.051178688	0.015773769
2020-07-08T03:30:00	0.1699	12.571	169.0	0.377479721	0.413994555	0.005000526	0.051589505	0.015900386
2020-07-08T03:35:00	0.1698	12.566	169.0	0.377234552	0.413615671	0.004993786	0.051519971	0.015878955
2020-07-08T03:40:00	0.1695	12.562	169.0	0.376423778	0.412363847	0.004971536	0.051290421	0.015808206
2020-07-08T03:45:00	0.1702	12.558	169.0	0.378439774	0.415479776	0.005026971	0.051862333	0.015984475
2020-07-08T03:50:00	0.1712	12.554	169.0	0.381299027	0.419917744	0.005106226	0.052679988	0.016236484
2020-07-08T03:55:00	0.1712	12.551	168.0	0.381336417	0.419975924	0.005107267	0.052690731	0.016239795
2020-07-08T04:00:00	0.1718	12.547	168.0	0.383064249	0.422668590	0.005155527	0.053188617	0.016393248
2020-07-08T04:05:00	0.1708	12.543	168.0	0.380203319	0.418214454	0.005075766	0.052365745	0.016139631
2020-07-08T04:10:00	0.1705	12.540	169.0	0.379314229	0.416834725	0.005051131	0.052111586	0.016061297
2020-07-08T04:15:00	0.1704	12.535	168.0	0.378989415	0.416331192	0.005042149	0.052018918	0.016032736
2020-07-08T04:20:00	0.1702	12.531	168.0	0.378382093	0.415390471	0.005025380	0.051845917	0.015979415
2020-07-08T04:25:00	0.1712	12.529	169.0	0.381161624	0.419703973	0.005102400	0.052640520	0.016224320
2020-07-08T04:30:00	0.1709	12.527	169.0	0.380273104	0.418322840	0.005077703	0.052385725	0.016145789
2020-07-08T04:35:00	0.1708	12.524	169.0	0.380230639	0.418256884	0.005076524	0.052373567	0.016142042
2020-07-08T04:40:00	0.1709	12.523	169.0	0.380470268	0.418629133	0.005083177	0.052442201	0.016163196
2020-07-08T04:45:00	0.1712	12.523	169.0	0.381273802	0.419878495	0.005105523	0.052672741	0.016234250
2020-07-08T04:50:00	0.1714	12.521	169.0	0.381795111	0.420689973	0.005120052	0.052822633	0.016280449
2020-07-08T04:55:00	0.1709	12.520	169.0	0.380342886	0.418431234	0.005079640	0.052405710	0.016151949
2020-07-08T05:00:00	0.1713	12.520	169.0	0.381428403	0.420119074	0.005109829	0.052717167	0.016247943
2020-07-08T05:05:00	0.1711	12.521	169.0	0.380822071	0.419175914	0.005092953	0.052543061	0.016194282
2020-07-08T05:10:00	0.1706	12.521	168.0	0.379651152	0.417357327	0.005060458	0.052207813	0.016090955
2020-07-08T05:15:00	0.1705	12.523	169.0	0.379326411	0.416853614	0.005051468	0.052115064	0.016062369
2020-07-08T05:20:00	0.1710	12.527	168.0	0.380694719	0.418977941	0.005089413	0.052506536	0.016183024
2020-07-08T05:25:00	0.1710	12.530	169.0	0.380652265	0.418911956	0.005088233	0.052494364	0.016179273
2020-07-08T05:30:00	0.1712	12.535	169.0	0.381173791	0.419722900	0.005102739	0.052644014	0.016225396
2020-07-08T05:35:00	0.1720	12.541	169.0	0.383385216	0.423169673	0.005164521	0.053281416	0.016421850
2020-07-08T05:40:00	0.1716	12.546	169.0	0.382498012	0.421785278	0.005139681	0.053025143	0.016342864
2020-07-08T05:45:00	0.1724	12.551	169.0	0.384707492	0.425236889	0.005201676	0.053664737	0.016539993
2020-07-08T05:50:00	0.1725	12.556	168.0	0.384946409	0.425610908	0.005208407	0.053734174	0.016561394
2020-07-08T05:55:00	0.1723	12.561	168.0	0.384341494	0.424664224	0.005191376	0.053558471	0.016507241
2020-07-08T06:00:00	0.1721	12.567	169.0	0.383736336	0.423718146	0.005174372	0.053383043	0.016453172
2020-07-08T06:05:00	0.1723	12.574	169.0	0.384256792	0.424531746	0.005188994	0.053533896	0.016499667
2020-07-08T06:10:00	0.1729	12.581	169.0	0.385901698	0.427107932	0.005235370	0.054012350	0.016647131
2020-07-08T06:15:00	0.1727	12.587	169.0	0.385578305	0.426600870	0.005226233	0.053918083	0.016618077
2020-07-08T06:20:00	0.1730	12.595	169.0	0.386379117	0.427857012	0.005248877	0.054151696	0.016690079
2020-07-08T06:25:00	0.1733	12.601	168.0	0.387179505	0.429114220	0.005271568	0.054385792	0.016762229
2020-07-08T06:30:00	0.1738	12.608	168.0	0.388540703	0.431256289	0.005310292	0.054785307	0.016885364
2020-07-08T06:35:00	0.1739	12.616	168.0	0.388779016	0.431631829	0.005317090	0.054855434	0.016906977
2020-07-08T06:40:00	0.1740	12.628	169.0	0.389017292	0.432007463	0.005323891	0.054925603	0.016928604
2020-07-08T06:45:00	0.1736	12.639	169.0	0.387852722	0.430173012	0.005290699	0.054583163	0.016823061
2020-07-08T06:50:00	0.1748	12.648	169.0	0.391455189	0.435859559	0.005393780	0.055646637	0.017150834
2020-07-08T06:55:00	0.1738	12.653	169.0	0.388610104	0.431365636	0.005312271	0.054805724	0.016891656
2020-07-08T07:00:00	0.1740	12.659	168.0	0.389128888	0.432183443	0.005327078	0.054958485	0.016938739
2020-07-08T07:05:00	0.1739	12.664	168.0	0.388806182	0.431674646	0.005317865	0.054863431	0.016909442
2020-07-08T07:10:00	0.1738	12.671	169.0	0.388483407	0.431166023	0.005308659	0.054768455	0.016880170
2020-07-08T07:15:00	0.1740	12.679	168.0	0.389002234	0.431983720	0.005323461	0.054921167	0.016927237
2020-07-08T07:20:00	0.1729	12.691	168.0	0.386152553	0.427501452	0.005242465	0.054085541	0.016669689
2020-07-08T07:25:00	0.1728	12.705	169.0	0.385829213	0.426994255	0.005233321	0.053991213	0.016640616
2020-07-08T07:30:00	0.1717	12.718	169.0	0.382691917	0.422087667	0.005145104	0.053081090	0.016360108
2020-07-08T07:35:00	0.1720	12.730	169.0	0.383494262	0.423339975	0.005167580	0.053312965	0.016431574
2020-07-08T07:40:00	0.1717	12.743	168.0	0.382607123	0.421955420	0.005142732	0.053056620	0.016352566
2020-07-08T07:45:00	0.1715	12.755	169.0	0.382001267	0.421011080	0.005125804	0.052881980	0.016298740
2020-07-08T07:50:00	0.1709	12.772	169.0	0.380267161	0.418313609	0.005077538	0.052384024	0.016145265
2020-07-08T07:55:00	0.1716	12.790	168.0	0.382479922	0.421757072	0.005139175	0.053019926	0.016341256
2020-07-08T08:00:00	0.1725	12.803	168.0	0.384970681	0.425648914	0.005209091	0.053741231	0.016563569
2020-07-08T08:05:00	0.1705	12.817	168.0	0.379293127	0.416802003	0.005050547	0.052105563	0.016059441
2020-07-08T08:10:00	0.1714	12.834	169.0	0.381789174	0.420680727	0.005119886	0.052820925	0.016279922
2020-07-08T08:15:00	0.1717	12.850	168.0	0.382592001	0.421931838	0.005142309	0.053052257	0.016351221
2020-07-08T08:20:00	0.1709	12.863	169.0	0.380294480	0.418356042	0.005078296	0.052391847	0.016147676
2020-07-08T08:25:00	0.1720	12.879	168.0	0.383633524	0.423557513	0.005171487	0.053353273	0.016443997
2020-07-08T08:30:00	0.1717	12.896	169.0	0.382746466	0.422172753	0.005146630	0.053096836	0.016364960
2020-07-08T08:35:00	0.1717	12.910	169.0	0.382704071	0.422106624	0.005145444	0.053084598	0.016361189
2020-07-08T08:40:00	0.1720	12.923	169.0	0.383506410	0.423358948	0.005167920	0.053316481	0.016432657
2020-07-08T08:45:00	0.1726	12.933	168.0	0.385152134	0.425933089	0.005214207	0.053794007	0.016579836
2020-07-08T08:50:00	0.1730	12.944	169.0	0.386234189	0.427629552	0.005244775	0.054109373	0.016677034
2020-07-08T08:55:00	0.1726	12.957	169.0	0.385067478	0.425800497	0.005211819	0.053769381	0.016572245
2020-07-08T09:00:00	0.1731	12.973	170.0	0.386711502	0.428378895	0.005258293	0.054248838	0.016720019
2020-07-08T09:05:00	0.1735	12.982	169.0	0.387792443	0.430078159	0.005288984	0.054565474	0.016817609
2020-07-08T09:10:00	0.1734	12.988	169.0	0.387469454	0.429570081	0.005279802	0.054470745	0.016788413
2020-07-08T09:15:00	0.1727	12.997	168.0	0.385460525	0.426416269	0.005222908	0.053883775	0.016607503
2020-07-08T09:20:00	0.1732	13.013	169.0	0.386823267	0.428554446	0.005261461	0.054281525	0.016730093
2020-07-08T09:25:00	0.1735	13.024	170.0	0.387623421	0.429812245	0.005284178	0.054515890	0.016802327
2020-07-08T09:30:00	0.1737	13.030	169.0	0.388142542	0.430629198	0.005298947	0.054668264	0.016849290
2020-07-08T09:35:00	0.1737	13.036	169.0	0.388380917	0.431004580	0.005305738	0.054738319	0.016870881
2020-07-08T09:40:00	0.1735	13.039	170.0	0.387777373	0.430054447	0.005288555	0.054561052	0.016816246
2020-07-08T09:45:00	0.1745	13.042	169.0	0.390539661	0.434411056	0.005367470	0.055375196	0.017067173
2020-07-08T09:50:00	0.1744	13.043	169.0	0.390217254	0.433901500	0.005358223	0.055279797	0.017037770
2020-07-08T09:55:00	0.1753	13.043	169.0	0.392695355	0.437825308	0.005429544	0.056015603	0.017264553
2020-07-08T10:00:00	0.1757	13.045	170.0	0.393772065	0.439535349	0.005460709	0.056337130	0.017363651
2020-07-08T10:05:00	0.1762	13.048	170.0	0.395132405	0.441700350	0.005500238	0.056744942	0.017489342
2020-07-08T10:10:00	0.1763	13.051	169.0	0.395653980	0.442531778	0.005515440	0.056901773	0.017537679
2020-07-08T10:15:00	0.1767	13.057	168.0	0.396733617	0.444255143	0.005546986	0.057227237	0.017637990
2020-07-08T10:20:00	0.1771	13.062	169.0	0.397812499	0.445980469	0.005578620	0.057553592	0.017738576
2020-07-08T10:25:00	0.1773	13.065	170.0	0.398333171	0.446814250	0.005593925	0.057711493	0.017787243
2020-07-08T10:30:00	0.1777	13.071	169.0	0.399410939	0.448542485	0.005625687	0.058039171	0.017888236
2020-07-08T10:35:00	0.1779	13.078	169.0	0.399931074	0.449377671	0.005641054	0.058197711	0.017937100
2020-07-08T10:40:00	0.1779	13.085	169.0	0.399894137	0.449318336	0.005639962	0.058186443	0.017933627
2020-07-08T10:45:00	0.1782	13.089	169.0	0.400970823	0.451049413	0.005671848	0.058515414	0.018035019
2020-07-08T10:50:00	0.1784	13.090	169.0	0.401490438	0.451885971	0.005687276	0.058674578	0.018084075
2020-07-08T10:55:00	0.1790	13.089	169.0	0.403121967	0.454517454	0.005735882	0.059176034	0.018238628
2020-07-08T11:00:00	0.1790	13.086	169.0	0.403085105	0.454457919	0.005734781	0.059164676	0.018235128
2020-07-08T11:05:00	0.1801	13.085	169.0	0.406102561	0.459343613	0.005825325	0.060098802	0.018523034
2020-07-08T11:10:00	0.1799	13.083	169.0	0.405510867	0.458383614	0.005807502	0.059914931	0.018466364
2020-07-08T11:15:00	0.1806	13.081	169.0	0.407415407	0.461477076	0.005864987	0.060507992	0.018649151
2020-07-08T11:20:00	0.1811	13.080	169.0	0.408763891	0.463673368	0.005905896	0.060930042	0.018779231
2020-07-08T11:25:00	0.1814	13.080	169.0	0.409834509	0.465420647	0.005938498	0.061266392	0.018882897
2020-07-08T11:30:00	0.1817	13.082	169.0	0.410627827	0.466717392	0.005962726	0.061516348	0.018959936
2020-07-08T11:35:00	0.1815	13.088	168.0	0.410037828	0.465752824	0.005944702	0.061330394	0.018902623
2020-07-08T11:40:00	0.1828	13.094	169.0	0.413594305	0.471581670	0.006053854	0.062456493	0.019249698
2020-07-08T11:45:00	0.1828	13.092	169.0	0.413557687	0.471521478	0.006052724	0.062444835	0.019246105
2020-07-08T11:50:00	0.1827	13.094	169.0	0.413244945	0.471007551	0.006043078	0.062345323	0.019215434
2020-07-08T11:55:00	0.1824	13.099	169.0	0.412379643	0.469587006	0.006016439	0.062070493	0.019130729
2020-07-08T12:00:00	0.1814	13.107	169.0	0.409854319	0.465453006	0.005939103	0.061272626	0.018884818
2020-07-08T12:05:00	0.1818	13.114	169.0	0.410924201	0.467202284	0.005971793	0.061609887	0.018988766
2020-07-08T12:10:00	0.1822	13.118	169.0	0.411993362	0.468953523	0.006004570	0.061948043	0.019092989
2020-07-08T12:15:00	0.1827	13.119	169.0	0.413337961	0.471160375	0.006045946	0.062374910	0.019224553
2020-07-08T12:20:00	0.1831	13.121	169.0	0.414405504	0.472916046	0.006078919	0.062715088	0.019329399
2020-07-08T12:25:00	0.1824	13.122	169.0	0.412436066	0.469679571	0.006018174	0.062088391	0.019136245
2020-07-08T12:30:00	0.1826	13.122	169.0	0.412951912	0.470526256	0.006034049	0.062252170	0.019186723
2020-07-08T12:35:00	0.1823	13.123	169.0	0.412086451	0.469106147	0.006007429	0.061977539	0.019102079
2020-07-08T12:40:00	0.1820	13.127	169.0	0.411496994	0.468140103	0.005989340	0.061790912	0.019044559
2020-07-08T12:45:00	0.1821	13.133	169.0	0.411736760	0.468532934	0.005996694	0.061866783	0.019067943
2020-07-08T12:50:00	0.1825	13.139	169.0	0.412805376	0.470285664	0.006029537	0.062205619	0.019172376
2020-07-08T12:55:00	0.1828	13.144	169.0	0.413597213	0.471586451	0.006053943	0.062457419	0.019249983
2020-07-08T13:00:00	0.1833	13.149	168.0	0.414940461	0.473797010	0.006095483	0.062885978	0.019382069
2020-07-08T13:05:00	0.1828	13.150	169.0	0.413523976	0.471466069	0.006051684	0.062434104	0.019242797
2020-07-08T13:10:00	0.1832	13.152	168.0	0.414591395	0.473222081	0.006084672	0.062774438	0.019347692
2020-07-08T13:15:00	0.1833	13.165	169.0	0.415106546	0.474070678	0.006100631	0.062939090	0.019398439
2020-07-08T13:20:00	0.1828	13.178	168.0	0.413690208	0.471739332	0.006056814	0.062487032	0.019259110
2020-07-08T13:25:00	0.1833	13.188	168.0	0.415033378	0.473950106	0.006098363	0.062915689	0.019391226
2020-07-08T13:30:00	0.1831	13.191	168.0	0.414445009	0.472981076	0.006080141	0.062727698	0.019333286
2020-07-08T13:35:00	0.1833	13.188	167.0	0.414960207	0.473829543	0.006096095	0.062892291	0.019384015
2020-07-08T13:40:00	0.1834	13.183	168.0	0.415199453	0.474223801	0.006103512	0.062968813	0.019407600
2020-07-08T13:45:00	0.1835	13.178	168.0	0.415438664	0.474618157	0.006110934	0.063045380	0.019431199
2020-07-08T13:50:00	0.1823	13.177	168.0	0.412089362	0.469110920	0.006007519	0.061978461	0.019102364
2020-07-08T13:55:00	0.1826	13.180	168.0	0.413157741	0.470864298	0.006040390	0.062317593	0.019206887
2020-07-08T14:00:00	0.1832	13.188	168.0	0.414777265	0.473528176	0.006090427	0.062833816	0.019365992
2020-07-08T14:05:00	0.1832	13.197	168.0	0.414740674	0.473467909	0.006089294	0.062822124	0.019362389
2020-07-08T14:10:00	0.1832	13.202	168.0	0.414704082	0.473407645	0.006088161	0.062810433	0.019358785
2020-07-08T14:15:00	0.1832	13.208	168.0	0.414667489	0.473347383	0.006087028	0.062798743	0.019355182
2020-07-08T14:20:00	0.1833	13.225	168.0	0.414906779	0.473741520	0.006094440	0.062875210	0.019378750
2020-07-08T14:25:00	0.1838	13.240	168.0	0.416248929	0.475955109	0.006136114	0.063305152	0.019511263
2020-07-08T14:30:00	0.1835	13.251	168.0	0.415661006	0.474984846	0.006117837	0.063116599	0.019453149
2020-07-08T14:35:00	0.1841	13.262	168.0	0.417278000	0.477655705	0.006168183	0.063636010	0.019613236
2020-07-08T14:40:00	0.1845	13.273	169.0	0.418342923	0.479418623	0.006201477	0.063979498	0.019719103
2020-07-08T14:45:00	0.1845	13.282	169.0	0.418306413	0.479358131	0.006200334	0.063967704	0.019715467
2020-07-08T14:50:00	0.1838	13.286	169.0	0.416341770	0.476108415	0.006139003	0.063334959	0.019520449
2020-07-08T14:55:00	0.1844	13.288	168.0	0.417958079	0.478781175	0.006189433	0.063855238	0.019680805
2020-07-08T15:00:00	0.1849	13.292	169.0	0.419297683	0.481001832	0.006231420	0.064288410	0.019814312
2020-07-08T15:05:00	0.1845	13.298	169.0	0.418160366	0.479116188	0.006195762	0.063920535	0.019700930
2020-07-08T15:10:00	0.1838	13.309	168.0	0.416471158	0.476322109	0.006143030	0.063376513	0.019533257
2020-07-08T15:15:00	0.1834	13.316	169.0	0.415331839	0.474442029	0.006107619	0.063011181	0.019420658
2020-07-08T15:20:00	0.1828	13.319	169.0	0.413639646	0.471656207	0.006055253	0.062470930	0.019254147
2020-07-08T15:25:00	0.1836	13.324	169.0	0.415810185	0.475230949	0.006122472	0.063164410	0.019467885
2020-07-08T15:30:00	0.1839	13.330	169.0	0.416600536	0.476535831	0.006147060	0.063418080	0.019546068
2020-07-08T15:35:00	0.1836	13.333	169.0	0.415737049	0.475110288	0.006120199	0.063140968	0.019460659
2020-07-08T15:40:00	0.1834	13.336	168.0	0.415148939	0.474140544	0.006101946	0.062952652	0.019402619
2020-07-08T15:45:00	0.1825	13.342	169.0	0.412904236	0.470447972	0.006032581	0.062237022	0.019182055
2020-07-08T15:50:00	0.1829	13.347	169.0	0.413972069	0.472202846	0.006065519	0.062576837	0.019286789
2020-07-08T15:55:00	0.1832	13.350	170.0	0.414763328	0.473505222	0.006089996	0.062829362	0.019364620
2020-07-08T16:00:00	0.1835	13.354	169.0	0.415554196	0.474808676	0.006114520	0.063082380	0.019442602
2020-07-08T16:05:00	0.1831	13.359	168.0	0.414492358	0.473059023	0.006081607	0.062742814	0.019337945
2020-07-08T16:10:00	0.1832	13.363	169.0	0.414809793	0.473581754	0.006091435	0.062844210	0.019369196
2020-07-08T16:15:00	0.1825	13.364	169.0	0.412642837	0.470018868	0.006024534	0.062154009	0.019156469
2020-07-08T16:20:00	0.1825	13.363	169.0	0.412684420	0.470087116	0.006025814	0.062167210	0.019160538
2020-07-08T16:25:00	0.1818	13.365	169.0	0.410791167	0.466984600	0.005967722	0.061567890	0.018975822
2020-07-08T16:30:00	0.1825	13.368	169.0	0.412767582	0.470223622	0.006028373	0.062193616	0.019168676
2020-07-08T16:35:00	0.1817	13.371	169.0	0.410597845	0.466668353	0.005961810	0.061506891	0.018957021
2020-07-08T16:40:00	0.1821	13.371	168.0	0.411745495	0.468547248	0.005996962	0.061869548	0.019068795
2020-07-08T16:45:00	0.1816	13.371	169.0	0.410404500	0.466352170	0.005955900	0.061445921	0.018938230
2020-07-08T16:50:00	0.1823	13.373	169.0	0.412105075	0.469136684	0.006008001	0.061983441	0.019103898
2020-07-08T16:55:00	0.1826	13.371	169.0	0.412975468	0.470564937	0.006034774	0.062259655	0.019189030
2020-07-08T17:00:00	0.1831	13.372	169.0	0.414397378	0.472902670	0.006078668	0.062712495	0.019328600
2020-07-08T17:05:00	0.1819	13.372	169.0	0.411124185	0.467529611	0.005977916	0.061673053	0.019008234
2020-07-08T17:10:00	0.1818	13.372	168.0	0.410889275	0.467145130	0.005970724	0.061598860	0.018985367
2020-07-08T17:15:00	0.1826	13.368	169.0	0.413141758	0.470838043	0.006039898	0.062312511	0.019205321
2020-07-08T17:20:00	0.1820	13.367	169.0	0.411525519	0.468186829	0.005990214	0.061799935	0.019047340
2020-07-08T17:25:00	0.1819	13.367	169.0	0.411014158	0.467349508	0.005974547	0.061638296	0.018997521
2020-07-08T17:30:00	0.1803	13.365	169.0	0.406625155	0.460192298	0.005841093	0.060261483	0.018573174
2020-07-08T17:35:00	0.1808	13.362	169.0	0.408052765	0.462514528	0.005884301	0.060707252	0.018710565
2020-07-08T17:40:00	0.1812	13.360	169.0	0.409202259	0.464388417	0.005919232	0.061067626	0.018821636
2020-07-08T17:45:00	0.1814	13.361	169.0	0.409797522	0.465360231	0.005937370	0.061254754	0.018879310
2020-07-08T17:50:00	0.1818	13.360	169.0	0.410945751	0.467237551	0.005972453	0.061616692	0.018990863
2020-07-08T17:55:00	0.1821	13.360	169.0	0.411540360	0.468211142	0.005990669	0.061804630	0.019048787
2020-07-08T18:00:00	0.1828	13.360	170.0	0.413515845	0.471452705	0.006051433	0.062431516	0.019242000
2020-07-08T18:05:00	0.1827	13.354	169.0	0.413281289	0.471067261	0.006044199	0.062356883	0.019218997
2020-07-08T18:10:00	0.1826	13.349	169.0	0.413046697	0.470681911	0.006036969	0.062282292	0.019196007
2020-07-08T18:15:00	0.1826	13.344	169.0	0.413088269	0.470750188	0.006038249	0.062295507	0.019200080
2020-07-08T18:20:00	0.1830	13.338	169.0	0.414234126	0.472633988	0.006073618	0.062660402	0.019312544
2020-07-08T18:25:00	0.1836	13.332	169.0	0.415930624	0.475429684	0.006126215	0.063203026	0.019479786
2020-07-08T18:30:00	0.1842	13.325	169.0	0.417349911	0.477774652	0.006170428	0.063659169	0.019620374
2020-07-08T18:35:00	0.1841	13.317	170.0	0.417115915	0.477387658	0.006163125	0.063583828	0.019597153
2020-07-08T18:40:00	0.1838	13.309	169.0	0.416330750	0.476090217	0.006138660	0.063331421	0.019519359
2020-07-08T18:45:00	0.1840	13.296	168.0	0.416923358	0.477069310	0.006157120	0.063521870	0.019578057
2020-07-08T18:50:00	0.1851	13.282	169.0	0.419992546	0.482155656	0.006253267	0.064513801	0.019883780
2020-07-08T18:55:00	0.1862	13.266	169.0	0.423055915	0.487258310	0.006350137	0.065513190	0.020191801
2020-07-08T19:00:00	0.1863	13.249	169.0	0.423097229	0.487327305	0.006351449	0.065526732	0.020195975
2020-07-08T19:05:00	0.1870	13.232	169.0	0.425058598	0.490608221	0.006413956	0.066171605	0.020394731
2020-07-08T19:10:00	0.1871	13.214	169.0	0.425373964	0.491136750	0.006424042	0.066275653	0.020426800
2020-07-08T19:15:00	0.1880	13.197	169.0	0.427880013	0.495346501	0.006504527	0.067106009	0.020682724
2020-07-08T19:20:00	0.1881	13.177	169.0	0.428194835	0.495876584	0.006514682	0.067210769	0.020715012
2020-07-08T19:25:00	0.1874	13.160	169.0	0.426319697	0.492723379	0.006454344	0.066588272	0.020523152
2020-07-08T19:30:00	0.1879	13.143	169.0	0.427729925	0.495093888	0.006499690	0.067056101	0.020667342
2020-07-08T19:35:00	0.1886	13.124	168.0	0.429412370	0.497929202	0.006554043	0.067616851	0.020840170
2020-07-08T19:40:00	0.1887	13.105	169.0	0.429726900	0.498460130	0.006564235	0.067721998	0.020872578
2020-07-08T19:45:00	0.1889	13.086	169.0	0.430314647	0.499452991	0.006583306	0.067918750	0.020933218
2020-07-08T19:50:00	0.1884	13.067	170.0	0.428988970	0.497214932	0.006540338	0.067475466	0.020796594
2020-07-08T19:55:00	0.1886	13.045	169.0	0.429576981	0.498207032	0.006559376	0.067671868	0.020857127
2020-07-08T20:00:00	0.1891	13.024	169.0	0.430984418	0.500585582	0.006605079	0.068143384	0.021002453
2020-07-08T20:05:00	0.1893	13.005	169.0	0.431571718	0.501579741	0.006624208	0.068340730	0.021063277
2020-07-08T20:10:00	0.1889	12.985	169.0	0.430247051	0.499338755	0.006581111	0.067896104	0.020926239
2020-07-08T20:15:00	0.1899	12.964	169.0	0.433018523	0.504032935	0.006671475	0.068828379	0.021213575
2020-07-08T20:20:00	0.1882	12.942	169.0	0.428415436	0.496248185	0.006521803	0.067284235	0.020737655
2020-07-08T20:25:00	0.1900	12.920	168.0	0.433373424	0.504635593	0.006683101	0.068948323	0.021250543
2020-07-08T20:30:00	0.1905	12.897	169.0	0.434777638	0.507023537	0.006729223	0.069424149	0.021397197
2020-07-08T20:35:00	0.1907	12.875	169.0	0.435363596	0.508021618	0.006748526	0.069623296	0.021458576
2020-07-08T20:40:00	0.1895	12.854	169.0	0.431859399	0.502067067	0.006633590	0.068437525	0.021093110
2020-07-08T20:45:00	0.1892	12.833	169.0	0.431081310	0.500749532	0.006608233	0.068175918	0.021012480
2020-07-08T20:50:00	0.1888	12.812	169.0	0.430029575	0.498971310	0.006574051	0.067823277	0.020903793
2020-07-08T20:55:00	0.1899	12.790	169.0	0.433074233	0.504127514	0.006673299	0.068847199	0.021219375
2020-07-08T21:00:00	0.1902	12.767	169.0	0.433933473	0.505587329	0.006701473	0.069137859	0.021308960
2020-07-08T21:05:00	0.1908	12.748	169.0	0.435609620	0.508440964	0.006756641	0.069707015	0.021484379
2020-07-08T21:10:00	0.1903	12.727	169.0	0.434288178	0.506190560	0.006713124	0.069258066	0.021346009
2020-07-08T21:15:00	0.1898	12.705	168.0	0.432692845	0.503480209	0.006660817	0.068718424	0.021179686
2020-07-08T21:20:00	0.1898	12.683	168.0	0.432733917	0.503549899	0.006662161	0.068732285	0.021183958
2020-07-08T21:25:00	0.1902	12.662	168.0	0.433866025	0.505472663	0.006699259	0.069115016	0.021301919
2020-07-08T21:30:00	0.1915	12.641	168.0	0.437447914	0.511579670	0.006817463	0.070334514	0.021677780
2020-07-08T21:35:00	0.1913	12.619	168.0	0.436944627	0.510719418	0.006800778	0.070162375	0.021624726
2020-07-08T21:40:00	0.1911	12.597	168.0	0.436441187	0.509859614	0.006784113	0.069990443	0.021571734
2020-07-08T21:45:00	0.1914	12.576	168.0	0.437298691	0.511324535	0.006812514	0.070283449	0.021662041
2020-07-08T21:50:00	0.1908	12.554	168.0	0.435433853	0.508141352	0.006750842	0.069647197	0.021465943
2020-07-08T21:55:00	0.1908	12.536	168.0	0.435474857	0.508211241	0.006752195	0.069661149	0.021470243
2020-07-08T22:00:00	0.1905	12.515	168.0	0.434698463	0.506888750	0.006726617	0.069397267	0.021388912
2020-07-08T22:05:00	0.1900	12.493	168.0	0.433294183	0.504501003	0.006680504	0.068921531	0.021242285
2020-07-08T22:10:00	0.1892	12.471	168.0	0.431069524	0.500729587	0.006607849	0.068171960	0.021011260
2020-07-08T22:15:00	0.1886	12.449	168.0	0.429662159	0.498350826	0.006562136	0.067700348	0.020865905
2020-07-08T22:20:00	0.1883	12.429	168.0	0.428800695	0.496897476	0.006534250	0.067412654	0.020777235
2020-07-08T22:25:00	0.1877	12.406	167.0	0.427117623	0.494063967	0.006479977	0.066852731	0.020604661
2020-07-08T22:30:00	0.1881	12.385	168.0	0.428171221	0.495836814	0.006513920	0.067202907	0.020712589
2020-07-08T22:35:00	0.1881	12.365	168.0	0.428130035	0.495767454	0.006512591	0.067189198	0.020708363
2020-07-08T22:40:00	0.1885	12.347	168.0	0.429182984	0.497542169	0.006546616	0.067540230	0.020816555
2020-07-08T22:45:00	0.1876	12.329	168.0	0.426678928	0.493326701	0.006465876	0.066707254	0.020559824
2020-07-08T22:50:00	0.1863	12.309	168.0	0.423347984	0.487746167	0.006359420	0.065608963	0.020221320
2020-07-08T22:55:00	0.1863	12.290	169.0	0.423306676	0.487677154	0.006358106	0.065595413	0.020217143
2020-07-08T23:00:00	0.1862	12.270	168.0	0.422990910	0.487149762	0.006348072	0.065491886	0.020185235
2020-07-08T23:05:00	0.1862	12.247	167.0	0.422949593	0.487080775	0.006346759	0.065478347	0.020181063
2020-07-08T23:10:00	0.1859	12.229	162.0	0.422084583	0.485637552	0.006319323	0.065195292	0.020093822
2020-07-08T23:15:00	0.1859	12.211	169.0	0.422043243	0.485568630	0.006318014	0.065181783	0.020089658
2020-07-08T23:20:00	0.1861	12.194	168.0	0.422551104	0.486415660	0.006334111	0.065347858	0.020140844
2020-07-08T23:25:00	0.1855	12.176	163.0	0.421136386	0.484057914	0.006289331	0.064885872	0.019998456
2020-07-08T23:30:00	0.1868	12.158	167.0	0.424663513	0.489946478	0.006401335	0.066041397	0.020354600
2020-07-08T23:35:00	0.1860	12.139	168.0	0.422427115	0.486208802	0.006330179	0.065307289	0.020128341
2020-07-08T23:40:00	0.1859	12.119	167.0	0.422111178	0.485681894	0.006320166	0.065203983	0.020096501
2020-07-08T23:45:00	0.1867	12.102	166.0	0.424265443	0.489280173	0.006388634	0.065910363	0.020314214
2020-07-08T23:50:00	0.1868	12.083	166.0	0.424498408	0.489670065	0.006396066	0.065987029	0.020337843
2020-07-08T23:55:00	0.1861	12.065	166.0	0.422810898	0.486849230	0.006342355	0.065432912	0.020167059
2020-07-09T00:00:00	0.1857	12.048	166.0	0.421671133	0.484948465	0.006306235	0.065060263	0.020052205
2020-07-09T00:05:00	0.1845	12.032	165.0	0.418329891	0.479397030	0.006201069	0.063975288	0.019717805
2020-07-09T00:10:00	0.1845	12.017	165.0	0.418288454	0.479328377	0.006199772	0.063961902	0.019713679
2020-07-09T00:15:00	0.1847	12.002	165.0	0.418797496	0.480172094	0.006215722	0.064126462	0.019764398
2020-07-09T00:20:00	0.1854	11.991	165.0	0.420681319	0.483300684	0.006274968	0.064737691	0.019952785
2020-07-09T00:25:00	0.1856	11.981	165.0	0.421189607	0.484146512	0.006291012	0.064903216	0.020003801
2020-07-09T00:30:00	0.1846	11.971	165.0	0.418673220	0.479966045	0.006211826	0.064086263	0.019752009
2020-07-09T00:35:00	0.1842	11.961	165.0	0.417530533	0.478073475	0.006176069	0.063717362	0.019638310
2020-07-09T00:40:00	0.1841	11.954	165.0	0.417213636	0.477549255	0.006166174	0.063615285	0.019606849
2020-07-09T00:45:00	0.1823	11.943	165.0	0.412206013	0.469302210	0.006011102	0.062015435	0.019113759
2020-07-09T00:50:00	0.1834	11.937	165.0	0.415201203	0.474226684	0.006103567	0.062969373	0.019407772
2020-07-09T00:55:00	0.1837	11.931	165.0	0.415986921	0.475522593	0.006127965	0.063221081	0.019485351
2020-07-09T01:00:00	0.1839	11.925	165.0	0.416496691	0.476364284	0.006143825	0.063384715	0.019535785
2020-07-09T01:05:00	0.1833	11.919	165.0	0.415076648	0.474021408	0.006099705	0.062929527	0.019395491
2020-07-09T01:10:00	0.1816	11.913	165.0	0.410338981	0.466245048	0.005953898	0.061425268	0.018931864
2020-07-09T01:15:00	0.1832	11.908	165.0	0.414717737	0.473430135	0.006088584	0.062814796	0.019360130
2020-07-09T01:20:00	0.1820	11.902	165.0	0.411361972	0.467918955	0.005985201	0.061748211	0.019031398
2020-07-09T01:25:00	0.1818	11.896	165.0	0.410767297	0.466945546	0.005966992	0.061560356	0.018973500
2020-07-09T01:30:00	0.1826	11.891	165.0	0.412936803	0.470501445	0.006033584	0.062247369	0.019185244
2020-07-09T01:35:00	0.1840	11.883	165.0	0.417032979	0.477250530	0.006160538	0.063557138	0.019588927
2020-07-09T01:40:00	0.1851	11.875	165.0	0.420019175	0.482199901	0.006254105	0.064522449	0.019886445
2020-07-09T01:45:00	0.1863	11.866	164.0	0.423274319	0.487623098	0.006357078	0.065584799	0.020213872
2020-07-09T01:50:00	0.1856	11.858	165.0	0.421310795	0.484348284	0.006294841	0.064942719	0.020015977
2020-07-09T01:55:00	0.1856	11.849	165.0	0.421269435	0.484279417	0.006293535	0.064929236	0.020011821
2020-07-09T02:00:00	0.1863	11.841	165.0	0.423150386	0.487416084	0.006353139	0.065544159	0.020201346
2020-07-09T02:05:00	0.1870	11.831	165.0	0.425029163	0.490558905	0.006413016	0.066161899	0.020391740
2020-07-09T02:10:00	0.1846	11.822	165.0	0.418670321	0.479961239	0.006211735	0.064085326	0.019751720
2020-07-09T02:15:00	0.1838	11.813	165.0	0.416425616	0.476246887	0.006141613	0.063361885	0.019528748
2020-07-09T02:20:00	0.1845	11.804	164.0	0.418312213	0.479367740	0.006200516	0.063969577	0.019716045
2020-07-09T02:25:00	0.1845	11.796	165.0	0.418270776	0.479299088	0.006199218	0.063956192	0.019711919
2020-07-09T02:30:00	0.1841	11.790	164.0	0.417127803	0.477407315	0.006163496	0.063587655	0.019598333
2020-07-09T02:35:00	0.1820	11.784	165.0	0.411290668	0.467802187	0.005983015	0.061725668	0.019024450
2020-07-09T02:40:00	0.1827	11.777	165.0	0.413459461	0.471360036	0.006049693	0.062413570	0.019236469
2020-07-09T02:45:00	0.1850	11.772	164.0	0.419756036	0.481762781	0.006245826	0.064437031	0.019860119
2020-07-09T02:50:00	0.1862	11.767	165.0	0.423011708	0.487184491	0.006348732	0.065498702	0.020187336
2020-07-09T02:55:00	0.1858	11.765	164.0	0.421872085	0.485283327	0.006312594	0.065125871	0.020072426
2020-07-09T03:00:00	0.1848	11.762	164.0	0.419081640	0.480643363	0.006224637	0.064218430	0.019792744
2020-07-09T03:05:00	0.1864	11.758	164.0	0.423436658	0.487894329	0.006362240	0.065638057	0.020230287
2020-07-09T03:10:00	0.1863	11.755	164.0	0.423120917	0.487366866	0.006352202	0.065534498	0.020198369
2020-07-09T03:15:00	0.1855	11.754	165.0	0.421157207	0.484092576	0.006289989	0.064892657	0.020000547
2020-07-09T03:20:00	0.1874	11.754	164.0	0.426328632	0.492738381	0.006454630	0.066591230	0.020524064
2020-07-09T03:25:00	0.1869	11.754	164.0	0.424917195	0.490371329	0.006409437	0.066124985	0.020380363
2020-07-09T03:30:00	0.1869	11.754	165.0	0.424875926	0.490302203	0.006408119	0.066111383	0.020376170
2020-07-09T03:35:00	0.1864	11.755	165.0	0.423463231	0.487938733	0.006363085	0.065646777	0.020232974
2020-07-09T03:40:00	0.1858	11.756	164.0	0.421774645	0.485120942	0.006309510	0.065094053	0.020062619
2020-07-09T03:45:00	0.1859	11.757	165.0	0.422007967	0.485509823	0.006316897	0.065170257	0.020086106
2020-07-09T03:50:00	0.1850	11.758	164.0	0.419767905	0.481782492	0.006246199	0.064440882	0.019861306
2020-07-09T03:55:00	0.1834	11.762	165.0	0.415319938	0.474422408	0.006107250	0.063007371	0.019419484
2020-07-09T04:00:00	0.1825	11.765	165.0	0.412794332	0.470267534	0.006029197	0.062202111	0.019171295
2020-07-09T04:05:00	0.1822	11.767	165.0	0.411918893	0.468831445	0.006002284	0.061924454	0.019085718
2020-07-09T04:10:00	0.1825	11.771	165.0	0.412701284	0.470114796	0.006026333	0.062172564	0.019162188
2020-07-09T04:15:00	0.1833	11.775	164.0	0.414863224	0.473669768	0.006093090	0.062861287	0.019374459
2020-07-09T04:20:00	0.1831	11.781	164.0	0.414540861	0.473138878	0.006083108	0.062758301	0.019342718
2020-07-09T04:25:00	0.1838	11.787	164.0	0.416424742	0.476245444	0.006141585	0.063361604	0.019528662
2020-07-09T04:30:00	0.1836	11.792	165.0	0.415827016	0.475258720	0.006122995	0.063169806	0.019469548
2020-07-09T04:35:00	0.1845	11.799	164.0	0.418260050	0.479281319	0.006198882	0.063952727	0.019710852
2020-07-09T04:40:00	0.1848	11.805	164.0	0.419039350	0.480573209	0.006223310	0.064204737	0.019788524
2020-07-09T04:45:00	0.1847	11.812	165.0	0.418717825	0.480039996	0.006213224	0.064100690	0.019756455
2020-07-09T04:50:00	0.1853	11.819	165.0	0.420596822	0.483160145	0.006272304	0.064710200	0.019944312
2020-07-09T04:55:00	0.1867	11.825	165.0	0.424394479	0.489496110	0.006392750	0.065952821	0.020327300
2020-07-09T05:00:00	0.1859	11.832	165.0	0.422152796	0.485751288	0.006321484	0.065217586	0.020100693
2020-07-09T05:05:00	0.1863	11.838	165.0	0.423204692	0.487506789	0.006354864	0.065561965	0.020206834
2020-07-09T05:10:00	0.1872	11.847	164.0	0.425626666	0.491560458	0.006432130	0.066359098	0.020452518
2020-07-09T05:15:00	0.1878	11.855	165.0	0.427223953	0.494242744	0.006483398	0.066888021	0.020615538
2020-07-09T05:20:00	0.1881	11.863	165.0	0.428272587	0.496007540	0.006517191	0.067236656	0.020722991
2020-07-09T05:25:00	0.1882	11.872	165.0	0.428500086	0.496390813	0.006524536	0.067312438	0.020746347
2020-07-09T05:30:00	0.1879	11.881	165.0	0.427633114	0.494930978	0.006496571	0.067023922	0.020657424
2020-07-09T05:35:00	0.1874	11.892	165.0	0.426217900	0.492552478	0.006451078	0.066554580	0.020512768
2020-07-09T05:40:00	0.1878	11.906	164.0	0.427267178	0.494315428	0.006484789	0.066902369	0.020619960
2020-07-09T05:45:00	0.1877	11.919	165.0	0.426947276	0.493777621	0.006474500	0.066796219	0.020587243
2020-07-09T05:50:00	0.1870	11.930	165.0	0.425257393	0.490941354	0.006420313	0.066237181	0.020414943
2020-07-09T05:55:00	0.1850	11.943	165.0	0.419719839	0.481702666	0.006244687	0.064425287	0.019856499
2020-07-09T06:00:00	0.1852	11.958	166.0	0.420223508	0.482539466	0.006260539	0.064588825	0.019906903
2020-07-09T06:05:00	0.1857	11.974	165.0	0.421551403	0.484749001	0.006302448	0.065021192	0.020040163
2020-07-09T06:10:00	0.1859	11.988	166.0	0.422054503	0.485587403	0.006318370	0.065185462	0.020090793
2020-07-09T06:15:00	0.1863	12.005	165.0	0.423106462	0.487342724	0.006351743	0.065529759	0.020196908
2020-07-09T06:20:00	0.1865	12.024	161.0	0.423883434	0.488641163	0.006376460	0.065784764	0.020275503
2020-07-09T06:25:00	0.1869	12.043	167.0	0.424934211	0.490399833	0.006409981	0.066130594	0.020382091
2020-07-09T06:30:00	0.1882	12.061	162.0	0.428448249	0.496303470	0.006522862	0.067295167	0.020741024
2020-07-09T06:35:00	0.1887	12.076	167.0	0.429769470	0.498532011	0.006565615	0.067736237	0.020876966
2020-07-09T06:40:00	0.1895	12.092	168.0	0.431908810	0.502150791	0.006635202	0.068454159	0.021098237
2020-07-09T06:45:00	0.1902	12.111	167.0	0.433772724	0.505314066	0.006696196	0.069083425	0.021292182
2020-07-09T06:50:00	0.1900	12.132	167.0	0.433454082	0.504772609	0.006685745	0.068975601	0.021258950
2020-07-09T06:55:00	0.1900	12.156	167.0	0.433408147	0.504694575	0.006684239	0.068960065	0.021254162
2020-07-09T07:00:00	0.1899	12.179	161.0	0.433089435	0.504153323	0.006673797	0.068852335	0.021220958
2020-07-09T07:05:00	0.1900	12.202	162.0	0.433316272	0.504538519	0.006681228	0.068928999	0.021244587
2020-07-09T07:10:00	0.1902	12.224	168.0	0.433815777	0.505387246	0.006697609	0.069098001	0.021296675
2020-07-09T07:15:00	0.1904	12.250	167.0	0.434315132	0.506236414	0.006714010	0.069267206	0.021348825
2020-07-09T07:20:00	0.1910	12.278	167.0	0.436176350	0.509407593	0.006775356	0.069900101	0.021543890
2020-07-09T07:25:00	0.1918	12.305	167.0	0.438307459	0.513050497	0.006846017	0.070629099	0.021768574
2020-07-09T07:30:00	0.1913	12.330	167.0	0.436901346	0.510645472	0.006799345	0.070147584	0.021620167
2020-07-09T07:35:00	0.1908	12.352	168.0	0.435494048	0.508243951	0.006752828	0.069667680	0.021472256
2020-07-09T07:40:00	0.1897	12.386	167.0	0.432448954	0.503066481	0.006652843	0.068636152	0.021154329
2020-07-09T07:45:00	0.1905	12.435	168.0	0.434584835	0.506695339	0.006722878	0.069358698	0.021377024
2020-07-09T07:50:00	0.1907	12.471	169.0	0.435356407	0.508009366	0.006748289	0.069620851	0.021457822
2020-07-09T07:55:00	0.1907	12.476	168.0	0.435310523	0.507931178	0.006746776	0.069605244	0.021453012
2020-07-09T08:00:00	0.1906	12.495	168.0	0.434992177	0.507388857	0.006736286	0.069497023	0.021419657
2020-07-09T08:05:00	0.1895	12.521	168.0	0.431946161	0.502214085	0.006636421	0.068466734	0.021102112
2020-07-09T08:10:00	0.1892	12.543	168.0	0.431081001	0.500749009	0.006608223	0.068175814	0.021012448
2020-07-09T08:15:00	0.1896	12.573	169.0	0.432127182	0.502520894	0.006642331	0.068527701	0.021120903
2020-07-09T08:20:00	0.1890	12.603	169.0	0.430715831	0.500131248	0.006596342	0.068053248	0.020974672
2020-07-09T08:25:00	0.1888	12.619	169.0	0.430123336	0.499129710	0.006577094	0.067854669	0.020913468
2020-07-09T08:30:00	0.1883	12.635	168.0	0.428710267	0.496745038	0.006531327	0.067382498	0.020767940
2020-07-09T08:35:00	0.1891	12.652	169.0	0.430850981	0.500359838	0.006600738	0.068098594	0.020988648
2020-07-09T08:40:00	0.1893	12.663	169.0	0.431351230	0.501206396	0.006617022	0.068266601	0.021040429
2020-07-09T08:45:00	0.1889	12.671	168.0	0.430485759	0.499742225	0.006588864	0.067976096	0.020950893
2020-07-09T08:50:00	0.1884	12.682	168.0	0.429073002	0.497356654	0.006543057	0.067503512	0.020805238
2020-07-09T08:55:00	0.1885	12.695	169.0	0.429300391	0.497740246	0.006550417	0.067579441	0.020828640
2020-07-09T09:00:00	0.1893	12.709	168.0	0.431440338	0.501357263	0.006619926	0.068296554	0.021049661
2020-07-09T09:05:00	0.1902	12.724	168.0	0.433850213	0.505445783	0.006698740	0.069109662	0.021300269
2020-07-09T09:10:00	0.1909	12.736	169.0	0.435711950	0.508615434	0.006760018	0.069741855	0.021495117
2020-07-09T09:15:00	0.1917	12.749	169.0	0.438115649	0.512722098	0.006839639	0.070563296	0.021748293
2020-07-09T09:20:00	0.1918	12.764	168.0	0.438341802	0.513109307	0.006847160	0.070640885	0.021772207
2020-07-09T09:25:00	0.1920	12.777	168.0	0.438839805	0.513962467	0.006863738	0.070811924	0.021824923
2020-07-09T09:30:00	0.1909	12.789	169.0	0.435800824	0.508766986	0.006762951	0.069772122	0.021504446
2020-07-09T09:35:00	0.1903	12.802	169.0	0.434119991	0.505904487	0.006707598	0.069201053	0.021328436
2020-07-09T09:40:00	0.1900	12.816	168.0	0.433255966	0.504436099	0.006679252	0.068908613	0.021238304
2020-07-09T09:45:00	0.1908	12.836	169.0	0.435663208	0.508532326	0.006758409	0.069725259	0.021490002
2020-07-09T09:50:00	0.1913	12.863	168.0	0.436978689	0.510777618	0.006801907	0.070174018	0.021628314
2020-07-09T09:55:00	0.1913	12.891	169.0	0.436932851	0.510699298	0.006800388	0.070158351	0.021623485
2020-07-09T10:00:00	0.1914	12.917	169.0	0.437159164	0.511086033	0.006807888	0.070235722	0.021647332
2020-07-09T10:05:00	0.1911	12.964	170.0	0.436255731	0.509543060	0.006777980	0.069927172	0.021552234
2020-07-09T10:10:00	0.1910	12.995	169.0	0.436168886	0.509394857	0.006775110	0.069897556	0.021543106
2020-07-09T10:15:00	0.1912	13.012	169.0	0.436626561	0.510176124	0.006790246	0.070053721	0.021591237
2020-07-09T10:20:00	0.1917	13.034	169.0	0.437900340	0.512353590	0.006832484	0.070489476	0.021725541
2020-07-09T10:25:00	0.1919	13.052	170.0	0.438629455	0.513602019	0.006856733	0.070739648	0.021802647
2020-07-09T10:30:00	0.1916	13.069	170.0	0.437726816	0.512056693	0.006826721	0.070430017	0.021707215
2020-07-09T10:35:00	0.1917	13.088	170.0	0.437912078	0.512373677	0.006832874	0.070493500	0.021726781
2020-07-09T10:40:00	0.1911	13.110	169.0	0.436464653	0.509899674	0.006784889	0.069998451	0.021574203
2020-07-09T10:45:00	0.1921	13.128	170.0	0.439098187	0.514405391	0.006872350	0.070900765	0.021852304
2020-07-09T10:50:00	0.1921	13.145	169.0	0.439011489	0.514256752	0.006869460	0.070870947	0.021843114
2020-07-09T10:55:00	0.1915	13.162	170.0	0.437565015	0.511779928	0.006821349	0.070374603	0.021690136
2020-07-09T11:00:00	0.1910	13.173	169.0	0.436117289	0.509306815	0.006773404	0.069879963	0.021537683
2020-07-09T11:05:00	0.1918	13.182	169.0	0.438207537	0.512879407	0.006842694	0.070594815	0.021758007
2020-07-09T11:10:00	0.1918	13.200	170.0	0.438392745	0.513196550	0.006848855	0.070658370	0.021777596
2020-07-09T11:15:00	0.1926	13.214	170.0	0.440480157	0.516777566	0.006918520	0.071377094	0.021999114
2020-07-09T11:20:00	0.1927	13.220	170.0	0.440665116	0.517095456	0.006924714	0.071440993	0.022018808
2020-07-09T11:25:00	0.1922	13.225	171.0	0.439220067	0.514614386	0.006876414	0.070942695	0.021865228
2020-07-09T11:30:00	0.1919	13.238	170.0	0.438589667	0.513533854	0.006855408	0.070725982	0.021798435
2020-07-09T11:35:00	0.1910	13.254	170.0	0.436053939	0.509198730	0.006771311	0.069858368	0.021531027
2020-07-09T11:40:00	0.1910	13.277	170.0	0.435967084	0.509050558	0.006768442	0.069828765	0.021521904
2020-07-09T11:45:00	0.1906	13.299	170.0	0.435063005	0.507509491	0.006738619	0.069521092	0.021427076
2020-07-09T11:50:00	0.1915	13.309	170.0	0.437426681	0.511543363	0.006816759	0.070327246	0.021675540
2020-07-09T11:55:00	0.1916	13.312	170.0	0.437611976	0.511860249	0.006822908	0.070390683	0.021695092
2020-07-09T12:00:00	0.1920	13.319	170.0	0.438885006	0.514039939	0.006865244	0.070827461	0.021829711
2020-07-09T12:05:00	0.1922	13.331	170.0	0.439341938	0.514823407	0.006880479	0.070984638	0.021878155
2020-07-09T12:10:00	0.1902	13.343	170.0	0.433810589	0.505378427	0.006697439	0.069096244	0.021296134
2020-07-09T12:15:00	0.1904	13.366	170.0	0.434541493	0.506621575	0.006721453	0.069343990	0.021372491
2020-07-09T12:20:00	0.1904	13.389	170.0	0.434454558	0.506473635	0.006718594	0.069314494	0.021363400
2020-07-09T12:25:00	0.1901	13.401	170.0	0.433549657	0.504934985	0.006688879	0.069007931	0.021268914
2020-07-09T12:30:00	0.1910	13.418	170.0	0.436187792	0.509427117	0.006775734	0.069904002	0.021545092
2020-07-09T12:35:00	0.1906	13.447	170.0	0.435011373	0.507421551	0.006736918	0.069503546	0.021421668
2020-07-09T12:40:00	0.1904	13.480	170.0	0.434379382	0.506345722	0.006716122	0.069288995	0.021355541
2020-07-09T12:45:00	0.1896	13.515	170.0	0.432383145	0.502954875	0.006650692	0.068613963	0.021147490
2020-07-09T12:50:00	0.1896	13.553	170.0	0.432296098	0.502807266	0.006647848	0.068584620	0.021138446
2020-07-09T12:55:00	0.1893	13.591	170.0	0.431390017	0.501272061	0.006618286	0.068279637	0.021044447
2020-07-09T13:00:00	0.1891	13.629	171.0	0.431029802	0.500662373	0.006606556	0.068158621	0.021007149
2020-07-09T13:05:00	0.1894	13.661	171.0	0.431761934	0.501901937	0.006630410	0.068404722	0.021083000
2020-07-09T13:10:00	0.1905	13.697	171.0	0.434675467	0.506849604	0.006725860	0.069389460	0.021386506
2020-07-09T13:15:00	0.1903	13.739	171.0	0.434043348	0.505774151	0.006705081	0.069175081	0.021320432
2020-07-09T13:20:00	0.1913	13.758	172.0	0.436952888	0.510733533	0.006801052	0.070165199	0.021625596
2020-07-09T13:25:00	0.1914	13.771	171.0	0.437138236	0.511050263	0.006807194	0.070228565	0.021645126
2020-07-09T13:30:00	0.1919	13.782	171.0	0.438411626	0.513228884	0.006849483	0.070664850	0.021779593
2020-07-09T13:35:00	0.1916	13.798	171.0	0.437780921	0.512149257	0.006828517	0.070448553	0.021712928
2020-07-09T13:40:00	0.1917	13.821	171.0	0.437966177	0.512466259	0.006834671	0.070512044	0.021732497
2020-07-09T13:45:00	0.1920	13.840	171.0	0.438695263	0.513714773	0.006858924	0.070762255	0.021809614
2020-07-09T13:50:00	0.1909	13.847	171.0	0.435887380	0.508914606	0.006765809	0.069801607	0.021513533
2020-07-09T13:55:00	0.1918	13.848	171.0	0.438249890	0.512951923	0.006844103	0.070609345	0.021762486
2020-07-09T14:00:00	0.1909	13.849	171.0	0.435713647	0.508618327	0.006760074	0.069742433	0.021495295
2020-07-09T14:05:00	0.1898	13.855	171.0	0.432900731	0.503832990	0.006667619	0.068788598	0.021201314
2020-07-09T14:10:00	0.1880	13.868	171.0	0.427895231	0.495372119	0.006505018	0.067111071	0.020684284
2020-07-09T14:15:00	0.1895	13.890	171.0	0.431907913	0.502149272	0.006635173	0.068453857	0.021098144
2020-07-09T14:20:00	0.1890	13.906	171.0	0.430728455	0.500152598	0.006596753	0.068057483	0.020975977
2020-07-09T14:25:00	0.1892	13.918	171.0	0.431187632	0.500929466	0.006611694	0.068211629	0.021023487
2020-07-09T14:30:00	0.1901	13.925	172.0	0.433556823	0.504947161	0.006689114	0.069010355	0.021269662
2020-07-09T14:35:00	0.1910	13.924	171.0	0.436194946	0.509439327	0.006775971	0.069906442	0.021545844
2020-07-09T14:40:00	0.1918	13.932	171.0	0.438285097	0.513012206	0.006845274	0.070621426	0.021766209
2020-07-09T14:45:00	0.1914	13.955	172.0	0.437110156	0.511002273	0.006806263	0.070218963	0.021642166
2020-07-09T14:50:00	0.1914	13.975	172.0	0.437295486	0.511319055	0.006812407	0.070282352	0.021661703
2020-07-09T14:55:00	0.1913	13.986	172.0	0.436936550	0.510705618	0.006800511	0.070159615	0.021623875
2020-07-09T15:00:00	0.1915	13.998	172.0	0.437394014	0.511487507	0.006815675	0.070316066	0.021672095
2020-07-09T15:05:00	0.1913	14.015	171.0	0.436762926	0.510409017	0.006794761	0.070100292	0.021605591
2020-07-09T15:10:00	0.1907	14.031	173.0	0.435314504	0.507937961	0.006746907	0.069606598	0.021453430
2020-07-09T15:15:00	0.1901	14.046	172.0	0.433592129	0.505007152	0.006690272	0.069022301	0.021273344
2020-07-09T15:20:00	0.1897	14.054	172.0	0.432413871	0.503006981	0.006651696	0.068624322	0.021150683
2020-07-09T15:25:00	0.1896	14.066	173.0	0.432326825	0.502859368	0.006648852	0.068594977	0.021141638
2020-07-09T15:30:00	0.1878	14.089	172.0	0.427319579	0.494403551	0.006486475	0.066919767	0.020625322
2020-07-09T15:35:00	0.1877	14.114	170.0	0.426958472	0.493796438	0.006474860	0.066799932	0.020588388
2020-07-09T15:40:00	0.1874	14.123	170.0	0.426323389	0.492729577	0.006454462	0.066589494	0.020523529
2020-07-09T15:45:00	0.1868	14.134	170.0	0.424591585	0.489826049	0.006399039	0.066017708	0.020347299
2020-07-09T15:50:00	0.1857	14.146	174.0	0.421484844	0.484638136	0.006300343	0.064999479	0.020033471
2020-07-09T15:55:00	0.1849	14.164	170.0	0.419472821	0.481292524	0.006236922	0.064345174	0.019831808
2020-07-09T16:00:00	0.1846	14.176	170.0	0.418559595	0.479777694	0.006208265	0.064049523	0.019740685
2020-07-09T16:05:00	0.1836	14.188	170.0	0.415729305	0.475097512	0.006119959	0.063138486	0.019459894
2020-07-09T16:10:00	0.1840	14.201	170.0	0.417031762	0.477248518	0.006160500	0.063556746	0.019588806
2020-07-09T16:15:00	0.1833	14.221	175.0	0.415026505	0.473938780	0.006098150	0.062913490	0.019390549
2020-07-09T16:20:00	0.1833	14.240	175.0	0.414950865	0.473814152	0.006095806	0.062889304	0.019383094
2020-07-09T16:25:00	0.1832	14.259	175.0	0.414599333	0.473235151	0.006084918	0.062776973	0.019348473
2020-07-09T16:30:00	0.1828	14.266	175.0	0.413695680	0.471748328	0.006056983	0.062488774	0.019259647
2020-07-09T16:35:00	0.1827	14.264	175.0	0.413343872	0.471170088	0.006046128	0.062376791	0.019225133
2020-07-09T16:40:00	0.1830	14.267	175.0	0.414096366	0.472407319	0.006069360	0.062616465	0.019299002
2020-07-09T16:45:00	0.1827	14.270	175.0	0.413192429	0.470921279	0.006041459	0.062328623	0.019210287
2020-07-09T16:50:00	0.1822	14.279	175.0	0.412011643	0.468983493	0.006005132	0.061953835	0.019094774
2020-07-09T16:55:00	0.1813	14.289	175.0	0.409446543	0.464787111	0.005926672	0.061144377	0.018845291
2020-07-09T17:00:00	0.1810	14.300	176.0	0.408539955	0.463308296	0.005899091	0.060859832	0.018757591
2020-07-09T17:05:00	0.1808	14.304	175.0	0.408187002	0.462733172	0.005888374	0.060749270	0.018723515
2020-07-09T17:10:00	0.1806	14.303	176.0	0.407556855	0.461707220	0.005869270	0.060552180	0.018662770
2020-07-09T17:15:00	0.1807	14.306	175.0	0.407757987	0.462034568	0.005875364	0.060615045	0.018682146
2020-07-09T17:20:00	0.1800	14.307	175.0	0.405740985	0.458756857	0.005814430	0.059986400	0.018488391
2020-07-09T17:25:00	0.1796	14.310	176.0	0.404832262	0.457283784	0.005787103	0.059704471	0.018401498
2020-07-09T17:30:00	0.1795	14.313	176.0	0.404478477	0.456710895	0.005776485	0.059594927	0.018367735
2020-07-09T17:35:00	0.1794	14.315	176.0	0.404124611	0.456138219	0.005765876	0.059485480	0.018334003
2020-07-09T17:40:00	0.1802	14.317	176.0	0.406268945	0.459613738	0.005830342	0.060150568	0.018538989
2020-07-09T17:45:00	0.1793	14.319	175.0	0.403972283	0.455891804	0.005761313	0.059438404	0.018319493
2020-07-09T17:50:00	0.1792	14.319	175.0	0.403618303	0.455319433	0.005750718	0.059329096	0.018285804
2020-07-09T17:55:00	0.1792	14.320	176.0	0.403542116	0.455196286	0.005748439	0.059305586	0.018278558
2020-07-09T18:00:00	0.1789	14.321	175.0	0.402910102	0.454175329	0.005729556	0.059110771	0.018218514
2020-07-09T18:05:00	0.1801	14.322	175.0	0.406166025	0.459446638	0.005827238	0.060118544	0.018529119
2020-07-09T18:10:00	0.1792	14.322	176.0	0.403591397	0.455275941	0.005749913	0.059320793	0.018283244
2020-07-09T18:15:00	0.1789	14.320	176.0	0.402681427	0.453806194	0.005722733	0.059040378	0.018196818
2020-07-09T18:20:00	0.1789	14.317	176.0	0.402883184	0.454131869	0.005728752	0.059102482	0.018215959
2020-07-09T18:25:00	0.1788	14.315	176.0	0.402528958	0.453560153	0.005718186	0.058993472	0.018182361
2020-07-09T18:30:00	0.1786	14.311	175.0	0.401896534	0.452540283	0.005699351	0.058799152	0.018122470
2020-07-09T18:35:00	0.1782	14.307	175.0	0.400985576	0.451073153	0.005672286	0.058519929	0.018036411
2020-07-09T18:40:00	0.1784	14.305	176.0	0.401465796	0.451846281	0.005686544	0.058667024	0.018081747
2020-07-09T18:45:00	0.1779	14.303	175.0	0.399997723	0.449484742	0.005643025	0.058218044	0.017943367
2020-07-09T18:50:00	0.1778	14.301	176.0	0.399642840	0.448914759	0.005632535	0.058109823	0.017910012
2020-07-09T18:55:00	0.1780	14.298	176.0	0.400401908	0.450134327	0.005654986	0.058341448	0.017981401
2020-07-09T19:00:00	0.1781	14.293	175.0	0.400603960	0.450459222	0.005660971	0.058403197	0.018000432
2020-07-09T19:05:00	0.1785	14.289	176.0	0.401640771	0.452128139	0.005691744	0.058720676	0.018098282
2020-07-09T19:10:00	0.1793	14.287	176.0	0.403788506	0.455594602	0.005755811	0.059381639	0.018301998
2020-07-09T19:15:00	0.1792	14.282	176.0	0.403712328	0.455471434	0.005753531	0.059358119	0.018294749
2020-07-09T19:20:00	0.1794	14.276	175.0	0.404191710	0.456246782	0.005767887	0.059506224	0.018340396
2020-07-09T19:25:00	0.1798	14.269	175.0	0.405226144	0.457922004	0.005798938	0.059826573	0.018439131
2020-07-09T19:30:00	0.1795	14.261	175.0	0.404594810	0.456899237	0.005779975	0.059630935	0.018378833
2020-07-09T19:35:00	0.1796	14.252	176.0	0.404796321	0.457225569	0.005786023	0.059693337	0.018398066
2020-07-09T19:40:00	0.1797	14.243	176.0	0.404997807	0.457551969	0.005792075	0.059755771	0.018417309
2020-07-09T19:45:00	0.1798	14.234	176.0	0.405199266	0.457878439	0.005798130	0.059818236	0.018436561
2020-07-09T19:50:00	0.1796	14.225	175.0	0.404845563	0.457305329	0.005787502	0.059708592	0.018402768
2020-07-09T19:55:00	0.1787	14.216	175.0	0.402268763	0.453140420	0.005710432	0.058913477	0.018157706
2020-07-09T20:00:00	0.1780	14.207	176.0	0.400244674	0.449881576	0.005650331	0.058293423	0.017966599
2020-07-09T20:05:00	0.1780	14.197	175.0	0.400168322	0.449758866	0.005648071	0.058270112	0.017959414
2020-07-09T20:10:00	0.1775	14.186	175.0	0.398977712	0.447847412	0.005612906	0.057907321	0.017847599
2020-07-09T20:15:00	0.1769	14.176	175.0	0.397228331	0.445045886	0.005561478	0.057376746	0.017684070
2020-07-09T20:20:00	0.1762	14.166	175.0	0.395197647	0.441804310	0.005502138	0.056764545	0.017495384
2020-07-09T20:25:00	0.1766	14.155	175.0	0.396517213	0.443909455	0.005540654	0.057161911	0.017617856
2020-07-09T20:30:00	0.1768	14.144	175.0	0.396998818	0.444678953	0.005554752	0.057307355	0.017662683
2020-07-09T20:35:00	0.1761	14.134	176.0	0.394967831	0.441438161	0.005495447	0.056695510	0.017474107
2020-07-09T20:40:00	0.1758	14.124	175.0	0.394052785	0.439981707	0.005468852	0.056421141	0.017389544
2020-07-09T20:45:00	0.1761	14.114	175.0	0.395093992	0.441639146	0.005499119	0.056733402	0.017485785
2020-07-09T20:50:00	0.1764	14.106	175.0	0.395855294	0.442852883	0.005521314	0.056962376	0.017556357
2020-07-09T20:55:00	0.1764	14.096	175.0	0.395778725	0.442730739	0.005519079	0.056939321	0.017549252
2020-07-09T21:00:00	0.1766	14.087	175.0	0.396260561	0.443499639	0.005533150	0.057084493	0.017593995
2020-07-09T21:05:00	0.1754	14.077	175.0	0.393110105	0.438483645	0.005441536	0.056139325	0.017302685
2020-07-09T21:10:00	0.1755	14.068	175.0	0.393313114	0.438806053	0.005447412	0.056199943	0.017321368
2020-07-09T21:15:00	0.1754	14.058	175.0	0.392956690	0.438240073	0.005437098	0.056093541	0.017288574
2020-07-09T21:20:00	0.1748	14.048	174.0	0.391480499	0.435899635	0.005394509	0.055654152	0.017153150
2020-07-09T21:25:00	0.1745	14.038	175.0	0.390563368	0.434448535	0.005368150	0.055382215	0.017069336
2020-07-09T21:30:00	0.1748	14.028	175.0	0.391326921	0.435656482	0.005390089	0.055608559	0.017139098
2020-07-09T21:35:00	0.1756	14.018	170.0	0.393489014	0.439085499	0.005452506	0.056252498	0.017337566
2020-07-09T21:40:00	0.1777	14.008	175.0	0.399552829	0.448770245	0.005629876	0.058082394	0.017901558
2020-07-09T21:45:00	0.1790	13.999	175.0	0.403093699	0.454471799	0.005735037	0.059167323	0.018235944
2020-07-09T21:50:00	0.1798	13.991	170.0	0.405239442	0.457943558	0.005799338	0.059830698	0.018440402
2020-07-09T21:55:00	0.1807	13.983	175.0	0.407659402	0.461874104	0.005872377	0.060584226	0.018672647
2020-07-09T22:00:00	0.1810	13.974	175.0	0.408691560	0.463555435	0.005903698	0.060907359	0.018772240
2020-07-09T22:05:00	0.1815	13.965	174.0	0.410104926	0.465862472	0.005946750	0.061351525	0.018909136
2020-07-09T22:10:00	0.1821	13.956	171.0	0.411793456	0.468625847	0.005998433	0.061884731	0.019073475
2020-07-09T22:15:00	0.1832	13.948	170.0	0.414584239	0.473210297	0.006084450	0.062772153	0.019346987
2020-07-09T22:20:00	0.1826	13.941	174.0	0.412957105	0.470534783	0.006034209	0.062253820	0.019187232
2020-07-09T22:25:00	0.1831	13.932	170.0	0.414366685	0.472852150	0.006077718	0.062702699	0.019325581
2020-07-09T22:30:00	0.1833	13.923	174.0	0.414947678	0.473808901	0.006095707	0.062888285	0.019382780
2020-07-09T22:35:00	0.1844	13.913	170.0	0.418008318	0.478864366	0.006191004	0.063871451	0.019685802
2020-07-09T22:40:00	0.1846	13.902	170.0	0.418587994	0.479824767	0.006209155	0.064058705	0.019743515
2020-07-09T22:45:00	0.1844	13.893	170.0	0.418066569	0.478960835	0.006192827	0.063890253	0.019691596
2020-07-09T22:50:00	0.1843	13.884	170.0	0.417820358	0.478553157	0.006185126	0.063810806	0.019667110
2020-07-09T22:55:00	0.1840	13.875	170.0	0.417023212	0.477234383	0.006160234	0.063553995	0.019587959
2020-07-09T23:00:00	0.1843	13.865	170.0	0.417603244	0.478193795	0.006178340	0.063740797	0.019645533
2020-07-09T23:05:00	0.1853	13.853	172.0	0.420383942	0.482806159	0.006265593	0.064640969	0.019922975
2020-07-09T23:10:00	0.1866	13.842	172.0	0.423983015	0.488807699	0.006379632	0.065817491	0.020285590
2020-07-09T23:15:00	0.1863	13.830	172.0	0.423188901	0.487480413	0.006354363	0.065556787	0.020205238
2020-07-09T23:20:00	0.1874	13.819	172.0	0.426234003	0.492579511	0.006451594	0.066559909	0.020514410
2020-07-09T23:25:00	0.1875	13.809	174.0	0.426536889	0.493088106	0.006461315	0.066660194	0.020545319
2020-07-09T23:30:00	0.1878	13.798	174.0	0.427387295	0.494517439	0.006488655	0.066942254	0.020632253
2020-07-09T23:35:00	0.1879	13.787	170.0	0.427689968	0.495026646	0.006498402	0.067042818	0.020663248
2020-07-09T23:40:00	0.1873	13.776	172.0	0.426075976	0.492314259	0.006446526	0.066507623	0.020498295
2020-07-09T23:45:00	0.1878	13.765	174.0	0.427474168	0.494663566	0.006491451	0.066971108	0.020641146
2020-07-09T23:50:00	0.1883	13.754	172.0	0.428597651	0.496555228	0.006527688	0.067344954	0.020756369
2020-07-09T23:55:00	0.1895	13.742	172.0	0.431905749	0.502145604	0.006635102	0.068453128	0.021097919
2020-07-10T00:00:00	0.1903	13.730	171.0	0.434117088	0.505899551	0.006707503	0.069200069	0.021328133
2020-07-10T00:05:00	0.1908	13.719	171.0	0.435508487	0.508268564	0.006753304	0.069672593	0.021473770
2020-07-10T00:10:00	0.1910	13.708	172.0	0.436082006	0.509246615	0.006772238	0.069867935	0.021533976
2020-07-10T00:15:00	0.1909	13.697	172.0	0.435838488	0.508831219	0.006764195	0.069784952	0.021508400
2020-07-10T00:20:00	0.1914	13.685	172.0	0.437228452	0.511204463	0.006810185	0.070259420	0.021654636
2020-07-10T00:25:00	0.1921	13.673	171.0	0.439160960	0.514513026	0.006874443	0.070922359	0.021858960
2020-07-10T00:30:00	0.1924	13.661	172.0	0.440004919	0.515961209	0.006902621	0.071213071	0.021948560
2020-07-10T00:35:00	0.1934	13.650	171.0	0.442877385	0.520213284	0.006989762	0.072112091	0.022225647
2020-07-10T00:40:00	0.1938	13.638	172.0	0.444311159	0.522132114	0.007030678	0.072534207	0.022355747
2020-07-10T00:45:00	0.1942	13.626	171.0	0.445744320	0.524051736	0.007071692	0.072957345	0.022486162
2020-07-10T00:50:00	0.1949	13.615	171.0	0.448223206	0.527375852	0.007142909	0.073692074	0.022712613
2020-07-10T00:55:00	0.1947	13.603	171.0	0.447562581	0.526489500	0.007123895	0.073495916	0.022652155
2020-07-10T01:00:00	0.1956	13.592	171.0	0.450737124	0.530751884	0.007215488	0.074440865	0.022943397
2020-07-10T01:05:00	0.1961	13.581	171.0	0.452515836	0.533143589	0.007267059	0.074972908	0.023107378
2020-07-10T01:10:00	0.1950	13.570	171.0	0.448719459	0.528041893	0.007157208	0.073839593	0.022758080
2020-07-10T01:15:00	0.1948	13.560	171.0	0.448058931	0.527155414	0.007138179	0.073643272	0.022697572
2020-07-10T01:20:00	0.1959	13.549	171.0	0.451929757	0.532355256	0.007250047	0.074797397	0.023053284
2020-07-10T01:25:00	0.1956	13.537	172.0	0.450572972	0.530531287	0.007210738	0.074391858	0.022928293
2020-07-10T01:30:00	0.1953	13.526	171.0	0.449564242	0.529176158	0.007181581	0.074091051	0.022835581
2020-07-10T01:35:00	0.1954	13.516	171.0	0.449949682	0.529693864	0.007192716	0.074205920	0.022870985
2020-07-10T01:40:00	0.1954	13.504	171.0	0.449986553	0.529743394	0.007193781	0.074216913	0.022874373
2020-07-10T01:45:00	0.1947	13.493	171.0	0.447582768	0.526516580	0.007124476	0.073501906	0.022654001
2020-07-10T01:50:00	0.1947	13.482	171.0	0.447619666	0.526566077	0.007125537	0.073512856	0.022657376
2020-07-10T01:55:00	0.1955	13.472	171.0	0.450445679	0.530360236	0.007207056	0.074353865	0.022916583
2020-07-10T02:00:00	0.1951	13.463	172.0	0.449088293	0.528537047	0.007167844	0.073949329	0.022791901
2020-07-10T02:05:00	0.1954	13.453	171.0	0.450170906	0.529991055	0.007199110	0.074271889	0.022891317
2020-07-10T02:10:00	0.1956	13.443	172.0	0.450556276	0.530508851	0.007210255	0.074386874	0.022926757
2020-07-10T02:15:00	0.1959	13.434	171.0	0.451638415	0.531963474	0.007241597	0.074710225	0.023026417
2020-07-10T02:20:00	0.1957	13.424	171.0	0.450978463	0.531076249	0.007222475	0.074512945	0.022965613
2020-07-10T02:25:00	0.1954	13.414	171.0	0.449969855	0.529720962	0.007193298	0.074211934	0.022872839
2020-07-10T02:30:00	0.1953	13.405	171.0	0.449658168	0.529302305	0.007184294	0.074119035	0.022844206
2020-07-10T02:35:00	0.1959	13.397	172.0	0.451785825	0.532161695	0.007245872	0.074754325	0.023040009
2020-07-10T02:40:00	0.1960	13.387	172.0	0.452171010	0.532679732	0.007257047	0.074869620	0.023075544
2020-07-10T02:45:00	0.1959	13.378	172.0	0.451859528	0.532260809	0.007248010	0.074776379	0.023046806
2020-07-10T02:50:00	0.1965	13.371	172.0	0.453985790	0.535122013	0.007309814	0.075413999	0.023243327
2020-07-10T02:55:00	0.1960	13.363	172.0	0.452281551	0.532828421	0.007260256	0.074902723	0.023085747
2020-07-10T03:00:00	0.1972	13.355	172.0	0.456147510	0.538034589	0.007372912	0.076064973	0.023443963
2020-07-10T03:05:00	0.1969	13.347	172.0	0.455140454	0.536677282	0.007343484	0.075761369	0.023350390
2020-07-10T03:10:00	0.1979	13.339	171.0	0.458655501	0.541418335	0.007446451	0.076823663	0.023677799
2020-07-10T03:15:00	0.1983	13.332	172.0	0.460082548	0.543345905	0.007488455	0.077257008	0.023811360
2020-07-10T03:20:00	0.1989	13.324	171.0	0.462203615	0.546213894	0.007551101	0.077903317	0.024010559
2020-07-10T03:25:00	0.1988	13.317	172.0	0.461893061	0.545793758	0.007541913	0.077808523	0.023981342
2020-07-10T03:30:00	0.1997	13.310	171.0	0.465054098	0.550073770	0.007635695	0.078776056	0.024279545
2020-07-10T03:35:00	0.1990	13.302	172.0	0.462661073	0.546832911	0.007564646	0.078043055	0.024053628
2020-07-10T03:40:00	0.1988	13.294	171.0	0.462003283	0.545942864	0.007545173	0.077842160	0.023991710
2020-07-10T03:45:00	0.1982	13.287	170.0	0.459608088	0.542704853	0.007474477	0.077112798	0.023766913
2020-07-10T03:50:00	0.1984	13.281	171.0	0.460339864	0.543693643	0.007496041	0.077335273	0.023835482
2020-07-10T03:55:00	0.1984	13.274	170.0	0.460376621	0.543743322	0.007497125	0.077346457	0.023838929
2020-07-10T04:00:00	0.1990	13.269	171.0	0.462497503	0.546611554	0.007559801	0.077993076	0.024038223
2020-07-10T04:05:00	0.1989	13.262	171.0	0.462091748	0.546062545	0.007547791	0.077869164	0.024000032
2020-07-10T04:10:00	0.1980	13.258	170.0	0.458906154	0.541756785	0.007453820	0.076899691	0.023701231
2020-07-10T04:15:00	0.1981	13.252	171.0	0.459542782	0.542616632	0.007472554	0.077092959	0.023760799
2020-07-10T04:20:00	0.1977	13.247	171.0	0.458093728	0.540659967	0.007429948	0.076653400	0.023625322
2020-07-10T04:25:00	0.1972	13.242	170.0	0.456296180	0.538235034	0.007377261	0.076109844	0.023457793
2020-07-10T04:30:00	0.1960	13.240	170.0	0.452060269	0.532530784	0.007253834	0.074836463	0.023065325
2020-07-10T04:35:00	0.1950	13.240	171.0	0.448516464	0.527769423	0.007151357	0.073779232	0.022739476
2020-07-10T04:40:00	0.1945	13.239	170.0	0.446713776	0.525351174	0.007099502	0.073244258	0.022574592
2020-07-10T04:45:00	0.1937	13.239	170.0	0.444211903	0.521999226	0.007027842	0.072504946	0.022346728
2020-07-10T04:50:00	0.1936	13.238	171.0	0.443803931	0.521453101	0.007016190	0.072384736	0.022309679
2020-07-10T04:55:00	0.1934	13.238	171.0	0.443046662	0.520439744	0.006994587	0.072161864	0.022240987
2020-07-10T05:00:00	0.1927	13.238	171.0	0.440662778	0.517091437	0.006924635	0.071440185	0.022018559
2020-07-10T05:05:00	0.1924	13.239	171.0	0.439802132	0.515613056	0.006895844	0.071143152	0.021927010
2020-07-10T05:10:00	0.1928	13.242	170.0	0.440842857	0.517401032	0.006930669	0.071502431	0.022037744
2020-07-10T05:15:00	0.1920	13.246	170.0	0.438895259	0.514057513	0.006865586	0.070830985	0.021830798
2020-07-10T05:20:00	0.1922	13.251	170.0	0.439393098	0.514911162	0.006882186	0.071002249	0.021883583
2020-07-10T05:25:00	0.1915	13.257	170.0	0.437443816	0.511572662	0.006817327	0.070333111	0.021677348
2020-07-10T05:30:00	0.1915	13.258	171.0	0.437397990	0.511494304	0.006815807	0.070317427	0.021672514
2020-07-10T05:35:00	0.1912	13.260	170.0	0.436535665	0.510020915	0.006787239	0.070022689	0.021581673
2020-07-10T05:40:00	0.1923	13.264	171.0	0.439481776	0.515063293	0.006885146	0.071032782	0.021892993
2020-07-10T05:45:00	0.1921	13.270	171.0	0.439164223	0.514518622	0.006874552	0.070923481	0.021859306
2020-07-10T05:50:00	0.1918	13.278	171.0	0.438302808	0.513042533	0.006845863	0.070627503	0.021768082
2020-07-10T05:55:00	0.1922	13.289	171.0	0.439344463	0.514827736	0.006880564	0.070985507	0.021878423
2020-07-10T06:00:00	0.1921	13.300	171.0	0.439026883	0.514283143	0.006869973	0.070876241	0.021844746
2020-07-10T06:05:00	0.1920	13.309	171.0	0.438709244	0.513738728	0.006859390	0.070767058	0.021811095
2020-07-10T06:10:00	0.1921	13.313	171.0	0.439207138	0.514592213	0.006875983	0.070938246	0.021863856
2020-07-10T06:15:00	0.1917	13.333	171.0	0.438073784	0.512650436	0.006838248	0.070548939	0.021743868
2020-07-10T06:20:00	0.1917	13.351	171.0	0.438027976	0.512572028	0.006836725	0.070533231	0.021739027
2020-07-10T06:25:00	0.1912	13.368	171.0	0.436621628	0.510167699	0.006790083	0.070052037	0.021590718
2020-07-10T06:30:00	0.1916	13.397	172.0	0.437664329	0.511949797	0.006824646	0.070408613	0.021700618
2020-07-10T06:35:00	0.1916	13.420	172.0	0.437618509	0.511871422	0.006823125	0.070392920	0.021695782
2020-07-10T06:40:00	0.1915	13.439	172.0	0.437572688	0.511793051	0.006821604	0.070377230	0.021690946
2020-07-10T06:45:00	0.1917	13.459	171.0	0.438070919	0.512645532	0.006838152	0.070547956	0.021743565
2020-07-10T06:50:00	0.1920	13.475	172.0	0.438840882	0.513964314	0.006863774	0.070812294	0.021825037
2020-07-10T06:55:00	0.1919	13.492	172.0	0.438523208	0.513420004	0.006853196	0.070703159	0.021791400
2020-07-10T07:00:00	0.1919	13.511	172.0	0.438477412	0.513341560	0.006851672	0.070687435	0.021786554
2020-07-10T07:05:00	0.1919	13.530	171.0	0.438431614	0.513263119	0.006850148	0.070671712	0.021781708
2020-07-10T07:10:00	0.1917	13.551	172.0	0.438113862	0.512719040	0.006839580	0.070562683	0.021748104
2020-07-10T07:15:00	0.1915	13.573	172.0	0.437524000	0.511709782	0.006819988	0.070360560	0.021685808
2020-07-10T07:20:00	0.1915	13.597	172.0	0.437478176	0.511631419	0.006818468	0.070344873	0.021680973
2020-07-10T07:25:00	0.1918	13.622	172.0	0.438248412	0.512949392	0.006844053	0.070608838	0.021762330
2020-07-10T07:30:00	0.1919	13.646	171.0	0.438474547	0.513336654	0.006851576	0.070686451	0.021786251
2020-07-10T07:35:00	0.1923	13.671	171.0	0.439516095	0.515122174	0.006886292	0.071044601	0.021896636
2020-07-10T07:40:00	0.1926	13.690	171.0	0.440556998	0.516909621	0.006921093	0.071403636	0.022007294
2020-07-10T07:45:00	0.1925	13.710	172.0	0.440239648	0.516364343	0.006910471	0.071294056	0.021973521
2020-07-10T07:50:00	0.1929	13.734	172.0	0.441336648	0.518153106	0.006945925	0.071659825	0.022086254
2020-07-10T07:55:00	0.1922	13.763	172.0	0.439333012	0.514808095	0.006880182	0.070981565	0.021877208
2020-07-10T08:00:00	0.1922	13.798	172.0	0.439287237	0.514729584	0.006878654	0.070965810	0.021872352
2020-07-10T08:05:00	0.1913	13.828	172.0	0.436793540	0.510461308	0.006795774	0.070110750	0.021608814
2020-07-10T08:10:00	0.1906	13.853	172.0	0.435113709	0.507595860	0.006740290	0.069538325	0.021432387
2020-07-10T08:15:00	0.1903	13.877	172.0	0.434250201	0.506125957	0.006711876	0.069245189	0.021342040
2020-07-10T08:20:00	0.1903	13.897	172.0	0.434204287	0.506047859	0.006710367	0.069229624	0.021337243
2020-07-10T08:25:00	0.1904	13.917	172.0	0.434430971	0.506433501	0.006717818	0.069306493	0.021360934
2020-07-10T08:30:00	0.1905	13.943	174.0	0.434657625	0.506819233	0.006725273	0.069383404	0.021384639
2020-07-10T08:35:00	0.1894	13.973	174.0	0.431610994	0.501646260	0.006625488	0.068353941	0.021067348
2020-07-10T08:40:00	0.1891	14.019	175.0	0.431018820	0.500643790	0.006606199	0.068154934	0.021006013
2020-07-10T08:45:00	0.1890	14.069	171.0	0.430699648	0.500103880	0.006595816	0.068047820	0.020972999
2020-07-10T08:50:00	0.1885	14.112	171.0	0.429287074	0.497717777	0.006549985	0.067574993	0.020827269
2020-07-10T08:55:00	0.1879	14.145	171.0	0.427599603	0.494874592	0.006495491	0.067012785	0.020653991
2020-07-10T09:00:00	0.1888	14.188	175.0	0.430015088	0.498946837	0.006573581	0.067818427	0.020902298
2020-07-10T09:05:00	0.1892	14.249	175.0	0.431061945	0.500716762	0.006607602	0.068169415	0.021010476
2020-07-10T09:10:00	0.1893	14.296	175.0	0.431562131	0.501563505	0.006623895	0.068337506	0.021062283
2020-07-10T09:15:00	0.1896	14.318	175.0	0.432335109	0.502873416	0.006649122	0.068597769	0.021142499
2020-07-10T09:20:00	0.1903	14.406	176.0	0.434198544	0.506038090	0.006710179	0.069227678	0.021336643
2020-07-10T09:25:00	0.1910	14.443	176.0	0.436059892	0.509208886	0.006771508	0.069860397	0.021531653
2020-07-10T09:30:00	0.1907	14.462	176.0	0.435196875	0.507737539	0.006743030	0.069566598	0.021441101
2020-07-10T09:35:00	0.1903	14.491	176.0	0.434060795	0.505803820	0.006705654	0.069180993	0.021322254
2020-07-10T09:40:00	0.1910	14.524	176.0	0.436194607	0.509438748	0.006775960	0.069906327	0.021545809
2020-07-10T09:45:00	0.1915	14.556	176.0	0.437509671	0.511685277	0.006819513	0.070355654	0.021684296
2020-07-10T09:50:00	0.1911	14.581	177.0	0.436375167	0.509746913	0.006781929	0.069967915	0.021564791
2020-07-10T09:55:00	0.1915	14.607	176.0	0.437418021	0.511528556	0.006816472	0.070324282	0.021674627
2020-07-10T10:00:00	0.1912	14.627	176.0	0.436555707	0.510055135	0.006787902	0.070029531	0.021583782
2020-07-10T10:05:00	0.1894	14.644	177.0	0.431701665	0.501799840	0.006628445	0.068384443	0.021076749
2020-07-10T10:10:00	0.1886	14.664	176.0	0.429569395	0.498194226	0.006559130	0.067669332	0.020856345
2020-07-10T10:15:00	0.1876	14.683	177.0	0.426886800	0.493675981	0.006472556	0.066776163	0.020581062
2020-07-10T10:20:00	0.1870	14.696	176.0	0.425022426	0.490547616	0.006412800	0.066159677	0.020391055
2020-07-10T10:25:00	0.1862	14.714	177.0	0.422881444	0.486966997	0.006344595	0.065456020	0.020174181
2020-07-10T10:30:00	0.1852	14.741	176.0	0.420187820	0.482480150	0.006259415	0.064577228	0.019903329
2020-07-10T10:35:00	0.1849	14.775	176.0	0.419416459	0.481198965	0.006235151	0.064326903	0.019826176
2020-07-10T10:40:00	0.1835	14.799	176.0	0.415614473	0.474908091	0.006116392	0.063101690	0.019448554
2020-07-10T10:45:00	0.1827	14.825	176.0	0.413184829	0.470908793	0.006041225	0.062326206	0.019209542
2020-07-10T10:50:00	0.1817	14.856	176.0	0.410474873	0.466467241	0.005958050	0.061468108	0.018945068
2020-07-10T10:55:00	0.1811	14.891	176.0	0.408868304	0.463843634	0.005909071	0.060962796	0.018789326
2020-07-10T11:00:00	0.1798	14.917	177.0	0.405318564	0.458071816	0.005801717	0.059855245	0.018447968
2020-07-10T11:05:00	0.1791	14.945	176.0	0.403428883	0.455013289	0.005745053	0.059270654	0.018267791
2020-07-10T11:10:00	0.1784	14.974	177.0	0.401536916	0.451960835	0.005688657	0.058688828	0.018088467
2020-07-10T11:15:00	0.1779	14.998	177.0	0.399921170	0.449361760	0.005640761	0.058194689	0.017936168
2020-07-10T11:20:00	0.1769	15.031	176.0	0.397188201	0.444981719	0.005560302	0.057364609	0.017680330
2020-07-10T11:25:00	0.1763	15.066	176.0	0.395567912	0.442394528	0.005512929	0.056875876	0.017529697
2020-07-10T11:30:00	0.1745	15.104	176.0	0.390587359	0.434486466	0.005368839	0.055389318	0.017071526
2020-07-10T11:35:00	0.1747	15.138	176.0	0.391202321	0.435459257	0.005386506	0.055571586	0.017127702
2020-07-10T11:40:00	0.1735	15.181	174.0	0.387611815	0.429793988	0.005283848	0.054512486	0.016801278
2020-07-10T11:45:00	0.1729	15.232	174.0	0.385981342	0.427232853	0.005237622	0.054035581	0.016654291
2020-07-10T11:50:00	0.1719	15.276	179.0	0.383223322	0.422916895	0.005159983	0.053234597	0.016407420
2020-07-10T11:55:00	0.1725	15.309	179.0	0.384966604	0.425642530	0.005208976	0.053740046	0.016563204
2020-07-10T12:00:00	0.1707	15.341	179.0	0.379951087	0.417822813	0.005068770	0.052293566	0.016117385
2020-07-10T12:05:00	0.1711	15.361	179.0	0.380852414	0.419223090	0.005093797	0.052551766	0.016196965
2020-07-10T12:10:00	0.1694	15.383	179.0	0.376105991	0.411873668	0.004962831	0.051200614	0.015780527
2020-07-10T12:15:00	0.1692	15.395	179.0	0.375595350	0.411086583	0.004948863	0.051056505	0.015736111
2020-07-10T12:20:00	0.1691	15.406	179.0	0.375367598	0.410735759	0.004942640	0.050992309	0.015716325
2020-07-10T12:25:00	0.1679	15.413	179.0	0.372022640	0.405599238	0.004851790	0.050055026	0.015427445
2020-07-10T12:30:00	0.1673	15.423	179.0	0.370091015	0.402646642	0.004799785	0.049518493	0.015262081
2020-07-10T12:35:00	0.1659	15.441	179.0	0.366164498	0.396675382	0.004695099	0.048438466	0.014929206
2020-07-10T12:40:00	0.1658	15.457	179.0	0.365935279	0.396328064	0.004689030	0.048375856	0.014909908
2020-07-10T12:45:00	0.1656	15.476	180.0	0.365421091	0.395549461	0.004675433	0.048235581	0.014866675
2020-07-10T12:50:00	0.1651	15.493	180.0	0.364051284	0.393478674	0.004639326	0.047863071	0.014751863
2020-07-10T12:55:00	0.1645	15.511	180.0	0.362109070	0.390551091	0.004588416	0.047337840	0.014589982
2020-07-10T13:00:00	0.1643	15.525	180.0	0.361593524	0.389775664	0.004574958	0.047199000	0.014547190
2020-07-10T13:05:00	0.1642	15.547	180.0	0.361363581	0.389430037	0.004568963	0.047137153	0.014528128
2020-07-10T13:10:00	0.1627	15.579	180.0	0.357126751	0.383086684	0.004459340	0.046006192	0.014179555
2020-07-10T13:15:00	0.1627	15.608	180.0	0.357182714	0.383170162	0.004460778	0.046021025	0.014184127
2020-07-10T13:20:00	0.1626	15.635	180.0	0.356665398	0.382398811	0.004447499	0.045884024	0.014141902
2020-07-10T13:25:00	0.1632	15.661	180.0	0.358440454	0.385048477	0.004493162	0.046355123	0.014287099
2020-07-10T13:30:00	0.1619	15.691	180.0	0.354769234	0.379577544	0.004399025	0.045383932	0.013987769
2020-07-10T13:35:00	0.1616	15.722	180.0	0.353963832	0.378382068	0.004378531	0.045172499	0.013922603
2020-07-10T13:40:00	0.1621	15.763	180.0	0.355455334	0.380597286	0.004416528	0.045564508	0.014043424
2020-07-10T13:45:00	0.1609	15.808	180.0	0.351776413	0.375143844	0.004323156	0.044601207	0.013746525
2020-07-10T13:50:00	0.1621	15.853	181.0	0.355280443	0.380337230	0.004412063	0.045518438	0.014029225
2020-07-10T13:55:00	0.1631	15.894	181.0	0.358203228	0.384693883	0.004487043	0.046291998	0.014267643
2020-07-10T14:00:00	0.1629	15.932	175.0	0.357686280	0.383921689	0.004473727	0.046154617	0.014225301
2020-07-10T14:05:00	0.1627	15.966	176.0	0.357169146	0.383149921	0.004460429	0.046017428	0.014183018
2020-07-10T14:10:00	0.1636	15.988	178.0	0.359515946	0.386657936	0.004520964	0.046641948	0.014375501
2020-07-10T14:15:00	0.1641	16.007	178.0	0.361001683	0.388886352	0.004559538	0.047039912	0.014498158
2020-07-10T14:20:00	0.1636	16.021	183.0	0.359627683	0.386825324	0.004523858	0.046671807	0.014384704
2020-07-10T14:25:00	0.1641	16.033	179.0	0.361113305	0.389054006	0.004562444	0.047069891	0.014507398
2020-07-10T14:30:00	0.1641	16.042	183.0	0.361169113	0.389137841	0.004563897	0.047084885	0.014512019
2020-07-10T14:35:00	0.1638	16.050	183.0	0.360367301	0.387934145	0.004543044	0.046869743	0.014445710
2020-07-10T14:40:00	0.1638	16.054	183.0	0.360137162	0.387588972	0.004537069	0.046808100	0.014426711
2020-07-10T14:45:00	0.1634	16.059	179.0	0.359048585	0.385958161	0.004508870	0.046517177	0.014337046
2020-07-10T14:50:00	0.1636	16.068	183.0	0.359676776	0.386898879	0.004525130	0.046684930	0.014388749
2020-07-10T14:55:00	0.1638	16.074	179.0	0.360304693	0.387840228	0.004541418	0.046852968	0.014440540
2020-07-10T15:00:00	0.1629	16.082	178.0	0.357784597	0.384068496	0.004476258	0.046180726	0.014233348
2020-07-10T15:05:00	0.1635	16.091	183.0	0.359272123	0.386292790	0.004514652	0.046576830	0.014355431
2020-07-10T15:10:00	0.1638	16.095	183.0	0.360186238	0.387662566	0.004538342	0.046821241	0.014430761
2020-07-10T15:15:00	0.1643	16.097	183.0	0.361671285	0.389892578	0.004576986	0.047219926	0.014553640
2020-07-10T15:20:00	0.1646	16.103	183.0	0.362583881	0.391265871	0.004600831	0.047465924	0.014629459
2020-07-10T15:25:00	0.1638	16.109	183.0	0.360353762	0.387913836	0.004542692	0.046866115	0.014444592
2020-07-10T15:30:00	0.1643	16.121	184.0	0.361552942	0.389714656	0.004573900	0.047188081	0.014543825
2020-07-10T15:35:00	0.1636	16.134	184.0	0.359607365	0.386794884	0.004523331	0.046666377	0.014383031
2020-07-10T15:40:00	0.1616	16.141	183.0	0.353929834	0.378331642	0.004377667	0.045163587	0.013919856
2020-07-10T15:45:00	0.1611	16.140	183.0	0.352549024	0.376286169	0.004342667	0.044802500	0.013808565
2020-07-10T15:50:00	0.1602	16.136	184.0	0.350015179	0.372545673	0.004278873	0.044144346	0.013605716
2020-07-10T15:55:00	0.1601	16.129	184.0	0.349495247	0.371780228	0.004265852	0.044010008	0.013564312
2020-07-10T16:00:00	0.1583	16.123	183.0	0.344355509	0.364251569	0.004138390	0.042695008	0.013159016
2020-07-10T16:05:00	0.1584	16.115	184.0	0.344752422	0.364830503	0.004148152	0.042795720	0.013190057
2020-07-10T16:10:00	0.1578	16.107	184.0	0.342835003	0.362037576	0.004101119	0.042310491	0.013040504
2020-07-10T16:15:00	0.1568	16.105	183.0	0.340044919	0.357990642	0.004033244	0.041610236	0.012824679
2020-07-10T16:20:00	0.1566	16.102	184.0	0.339572742	0.357307768	0.004021823	0.041492409	0.012788363
2020-07-10T16:25:00	0.1566	16.098	178.0	0.339390670	0.357044607	0.004017424	0.041447027	0.012774376
2020-07-10T16:30:00	0.1563	16.089	184.0	0.338627905	0.355943063	0.003999027	0.041257225	0.012715877
2020-07-10T16:35:00	0.1559	16.074	184.0	0.337574132	0.354423750	0.003973692	0.040995851	0.012635319
2020-07-10T16:40:00	0.1553	16.056	183.0	0.335646759	0.351652350	0.003927599	0.040520315	0.012488754
2020-07-10T16:45:00	0.1543	16.038	183.0	0.332842103	0.347636688	0.003861088	0.039834138	0.012277268
2020-07-10T16:50:00	0.1547	16.022	183.0	0.333825276	0.349042062	0.003884328	0.040073895	0.012351164
2020-07-10T16:55:00	0.1542	16.007	183.0	0.332476150	0.347114225	0.003852459	0.039745112	0.012249829
2020-07-10T17:00:00	0.1526	15.992	184.0	0.327910050	0.340624364	0.003745739	0.038644098	0.011910486
2020-07-10T17:05:00	0.1514	15.977	184.0	0.324209251	0.335403767	0.003660526	0.037764973	0.011639532
2020-07-10T17:10:00	0.1506	15.961	184.0	0.321968908	0.332260478	0.003609496	0.037238509	0.011477270
2020-07-10T17:15:00	0.1492	15.947	183.0	0.317956871	0.326663545	0.003519153	0.036306450	0.011190001
2020-07-10T17:20:00	0.1485	15.931	183.0	0.316090514	0.323542596	0.003471878	0.035818722	0.011039678
2020-07-10T17:25:00	0.1484	15.913	183.0	0.315962291	0.323286486	0.003468191	0.035780689	0.011027956
2020-07-10T17:30:00	0.1488	15.896	184.0	0.316651578	0.324664466	0.003488038	0.035985442	0.011091063
2020-07-10T17:35:00	0.1500	15.882	183.0	0.320163654	0.329736992	0.003568680	0.036817419	0.011347486
2020-07-10T17:40:00	0.1494	15.868	184.0	0.318506122	0.327427339	0.003531442	0.036433238	0.011229078
2020-07-10T17:45:00	0.1492	15.856	183.0	0.317731529	0.326350405	0.003514118	0.036254508	0.011173991
2020-07-10T17:50:00	0.1488	15.847	184.0	0.316751827	0.324865128	0.003490930	0.036015283	0.011100260
2020-07-10T17:55:00	0.1500	15.838	183.0	0.320308046	0.329938523	0.003571935	0.036850997	0.011357835
2020-07-10T18:00:00	0.1504	15.826	183.0	0.321300360	0.331324970	0.003594349	0.037082239	0.011429106
2020-07-10T18:05:00	0.1501	15.810	184.0	0.320527386	0.330244766	0.003576883	0.036902038	0.011373566
2020-07-10T18:10:00	0.1508	15.793	184.0	0.322695294	0.333278217	0.003625996	0.037408733	0.011529735
2020-07-10T18:15:00	0.1500	15.776	184.0	0.320158086	0.329729222	0.003568555	0.036816124	0.011347087
2020-07-10T18:20:00	0.1515	15.756	183.0	0.324675666	0.336059786	0.003671203	0.037875120	0.011673480
2020-07-10T18:25:00	0.1535	15.732	183.0	0.330347270	0.344081724	0.003802484	0.039229526	0.012090921
2020-07-10T18:30:00	0.1528	15.702	183.0	0.328409687	0.341331885	0.003757331	0.038763693	0.011947347
2020-07-10T18:35:00	0.1545	15.671	183.0	0.333482928	0.348552416	0.003876226	0.039990314	0.012325403
2020-07-10T18:40:00	0.1560	15.641	183.0	0.337665933	0.354555991	0.003975896	0.041018582	0.012642325
2020-07-10T18:45:00	0.1571	15.612	179.0	0.340966857	0.359325643	0.004055599	0.041840863	0.012895760
2020-07-10T18:50:00	0.1544	15.584	183.0	0.333225788	0.348184841	0.003870148	0.039927603	0.012306075
2020-07-10T18:55:00	0.1544	15.555	177.0	0.333042876	0.347923475	0.003865828	0.039883030	0.012292337
2020-07-10T19:00:00	0.1542	15.525	176.0	0.332568292	0.347245741	0.003854631	0.039767516	0.012256735
2020-07-10T19:05:00	0.1544	15.498	176.0	0.332968601	0.347817367	0.003864074	0.039864938	0.012286761
2020-07-10T19:10:00	0.1545	15.469	176.0	0.333368793	0.348389241	0.003873528	0.039962472	0.012316822
2020-07-10T19:15:00	0.1554	15.439	182.0	0.336098269	0.352300718	0.003938369	0.040631422	0.012522999
2020-07-10T19:20:00	0.1552	15.410	180.0	0.335333681	0.351203079	0.003920141	0.040443377	0.012465042
2020-07-10T19:25:00	0.1545	15.378	180.0	0.333403163	0.348438376	0.003874340	0.039970855	0.012319406
2020-07-10T19:30:00	0.1567	15.345	180.0	0.339909375	0.357794556	0.004029964	0.041576392	0.012814248
2020-07-10T19:35:00	0.1589	15.312	180.0	0.346096386	0.366793856	0.004181307	0.043137775	0.013295481
2020-07-10T19:40:00	0.1611	15.282	180.0	0.352543781	0.376278411	0.004342535	0.044801132	0.013808144
2020-07-10T19:45:00	0.1612	15.252	180.0	0.352650919	0.376436940	0.004345245	0.044829087	0.013816760
2020-07-10T19:50:00	0.1611	15.219	182.0	0.352470538	0.376170053	0.004340683	0.044782027	0.013802256
2020-07-10T19:55:00	0.1618	15.184	180.0	0.354588893	0.379309712	0.004394431	0.045336539	0.013973162
2020-07-10T20:00:00	0.1615	15.145	180.0	0.353547048	0.377764097	0.004367948	0.045063315	0.013888951
2020-07-10T20:05:00	0.1609	15.107	180.0	0.351929255	0.375369701	0.004327012	0.044640985	0.013758785
2020-07-10T20:10:00	0.1607	15.072	180.0	0.351461066	0.374678045	0.004315208	0.044519202	0.013721250
2020-07-10T20:15:00	0.1614	15.036	180.0	0.353293580	0.377388499	0.004361519	0.044996991	0.013868510
2020-07-10T20:20:00	0.1614	14.999	180.0	0.353400662	0.377547156	0.004364235	0.045025003	0.013877143
2020-07-10T20:25:00	0.1608	14.965	180.0	0.351494992	0.374728146	0.004316062	0.044528020	0.013723968
2020-07-10T20:30:00	0.1602	14.931	180.0	0.349874854	0.372339017	0.004275357	0.044108066	0.013594534
2020-07-10T20:35:00	0.1578	14.902	180.0	0.343052033	0.362353224	0.004106427	0.042365250	0.013057381
2020-07-10T20:40:00	0.1582	14.876	180.0	0.344027976	0.363774143	0.004130345	0.042612006	0.013133434
2020-07-10T20:45:00	0.1573	14.847	180.0	0.341530104	0.360142335	0.004069292	0.041982131	0.012939301
2020-07-10T20:50:00	0.1574	14.821	180.0	0.341927822	0.360719512	0.004078977	0.042082052	0.012970097
2020-07-10T20:55:00	0.1575	14.795	179.0	0.342035772	0.360876244	0.004081608	0.042109197	0.012978463
2020-07-10T21:00:00	0.1565	14.768	179.0	0.339244082	0.356832794	0.004013885	0.041410511	0.012763122
2020-07-10T21:05:00	0.1562	14.743	180.0	0.338190779	0.355312471	0.003988506	0.041148683	0.012682424
2020-07-10T21:10:00	0.1552	14.714	179.0	0.335391311	0.351285760	0.003921514	0.040457533	0.012469405
2020-07-10T21:15:00	0.1553	14.686	179.0	0.335790797	0.351859131	0.003931033	0.040555740	0.012499673
2020-07-10T21:20:00	0.1554	14.659	179.0	0.335899227	0.352014829	0.003933619	0.040582420	0.012507896
2020-07-10T21:25:00	0.1548	14.636	179.0	0.334260854	0.349665487	0.003894650	0.040180385	0.012383985
2020-07-10T21:30:00	0.1540	14.614	179.0	0.332037063	0.346487805	0.003842120	0.039638448	0.012216955
2020-07-10T21:35:00	0.1529	14.591	179.0	0.328640072	0.341658342	0.003762683	0.038818911	0.011964366
2020-07-10T21:40:00	0.1545	14.567	179.0	0.333420991	0.348463864	0.003874762	0.039975204	0.012320746
2020-07-10T21:45:00	0.1546	14.546	179.0	0.333529609	0.348619165	0.003877331	0.040001705	0.012328914
2020-07-10T21:50:00	0.1533	14.525	175.0	0.329844108	0.343366700	0.003790728	0.039108243	0.012053540
2020-07-10T21:55:00	0.1523	14.505	181.0	0.327027488	0.339376164	0.003725313	0.038433372	0.011845538
2020-07-10T22:00:00	0.1506	14.485	182.0	0.321855098	0.332101141	0.003606915	0.037211880	0.011469063
2020-07-10T22:05:00	0.1508	14.467	174.0	0.322450846	0.332935570	0.003620439	0.037351398	0.011512063
2020-07-10T22:10:00	0.1509	14.448	175.0	0.322752564	0.333358515	0.003627299	0.037422173	0.011533877
2020-07-10T22:15:00	0.1508	14.430	181.0	0.322466623	0.332957679	0.003620797	0.037355096	0.011513203
2020-07-10T22:20:00	0.1503	14.411	179.0	0.321004412	0.330911213	0.003587656	0.037013185	0.011407823
2020-07-10T22:25:00	0.1502	14.391	178.0	0.320718097	0.330511136	0.003581187	0.036946450	0.011387255
2020-07-10T22:30:00	0.1504	14.372	174.0	0.321314351	0.331344537	0.003594666	0.037085506	0.011430113
2020-07-10T22:35:00	0.1516	14.351	182.0	0.324846950	0.336300839	0.003675128	0.037915617	0.011685961
2020-07-10T22:40:00	0.1526	14.330	174.0	0.327785037	0.340447437	0.003742842	0.038614208	0.011901274
2020-07-10T22:45:00	0.1533	14.312	175.0	0.329840268	0.343361246	0.003790638	0.039107318	0.012053255
2020-07-10T22:50:00	0.1536	14.296	177.0	0.330724611	0.344618377	0.003811314	0.039320626	0.012118999
2020-07-10T22:55:00	0.1543	14.279	179.0	0.332775414	0.347541452	0.003859515	0.039817906	0.012272265
2020-07-10T23:00:00	0.1553	14.261	177.0	0.335696466	0.351723702	0.003928784	0.040532538	0.012492522
2020-07-10T23:05:00	0.1550	14.243	179.0	0.334830964	0.350482207	0.003908184	0.040320016	0.012427021
2020-07-10T23:10:00	0.1556	14.227	173.0	0.336584843	0.353000031	0.003949994	0.040751359	0.012559965
2020-07-10T23:15:00	0.1560	14.209	176.0	0.337755456	0.354684974	0.003978045	0.041040756	0.012649160
2020-07-10T23:20:00	0.1548	14.192	179.0	0.334271907	0.349681314	0.003894912	0.040183089	0.012384818
2020-07-10T23:25:00	0.1553	14.175	176.0	0.335735524	0.351779774	0.003929715	0.040542144	0.012495482
2020-07-10T23:30:00	0.1552	14.155	178.0	0.335452301	0.351373270	0.003922966	0.040472517	0.012474023
2020-07-10T23:35:00	0.1549	14.137	177.0	0.334586646	0.350132103	0.003902381	0.040260143	0.012408567
2020-07-10T23:40:00	0.1545	14.120	176.0	0.333428981	0.348475287	0.003874951	0.039977153	0.012321347
2020-07-10T23:45:00	0.1544	14.103	176.0	0.333145282	0.348069794	0.003868246	0.039907981	0.012300027
2020-07-10T23:50:00	0.1537	14.087	177.0	0.331110711	0.345167867	0.003820362	0.039413968	0.012147768
2020-07-10T23:55:00	0.1539	14.069	178.0	0.331702399	0.346010694	0.003834251	0.039557264	0.012191933
2020-07-11T00:00:00	0.1539	14.052	176.0	0.331710234	0.346021860	0.003834435	0.039559163	0.012192518
2020-07-11T00:05:00	0.1539	14.035	176.0	0.331718068	0.346033026	0.003834620	0.039561063	0.012193104
2020-07-11T00:10:00	0.1551	14.018	176.0	0.335223722	0.351045348	0.003917524	0.040416375	0.012456719
2020-07-11T00:15:00	0.1549	14.001	176.0	0.334649189	0.350221712	0.003903866	0.040275465	0.012413289
2020-07-11T00:20:00	0.1551	13.985	176.0	0.335239351	0.351067765	0.003917896	0.040420213	0.012457902
2020-07-11T00:25:00	0.1546	13.970	176.0	0.333790850	0.348992811	0.003883513	0.040065486	0.012348572
2020-07-11T00:30:00	0.1540	13.954	176.0	0.332049060	0.346504914	0.003842403	0.039641360	0.012217852
2020-07-11T00:35:00	0.1543	13.939	176.0	0.332931974	0.347765048	0.003863209	0.039856019	0.012284012
2020-07-11T00:40:00	0.1542	13.925	176.0	0.332648171	0.347359773	0.003856514	0.039786945	0.012262723
2020-07-11T00:45:00	0.1537	13.911	177.0	0.330904924	0.344874947	0.003815538	0.039364201	0.012132429
2020-07-11T00:50:00	0.1524	13.897	177.0	0.327111043	0.339494250	0.003727244	0.038453293	0.011851678
2020-07-11T00:55:00	0.1511	13.884	176.0	0.323306503	0.334135628	0.003639913	0.037552316	0.011573988
2020-07-11T01:00:00	0.1503	13.870	177.0	0.320962928	0.330853233	0.003586718	0.037003512	0.011404842
2020-07-11T01:05:00	0.1508	13.856	177.0	0.322440961	0.332921717	0.003620214	0.037349080	0.011511349
2020-07-11T01:10:00	0.1512	13.841	176.0	0.323623792	0.334581103	0.003647150	0.037626979	0.011597000
2020-07-11T01:15:00	0.1509	13.828	176.0	0.322750568	0.333355716	0.003627253	0.037421704	0.011533733
2020-07-11T01:20:00	0.1503	13.814	176.0	0.320994516	0.330897381	0.003587432	0.037010878	0.011407112
2020-07-11T01:25:00	0.1489	13.798	177.0	0.316901493	0.325164821	0.003495251	0.036059862	0.011114000
2020-07-11T01:30:00	0.1499	13.782	177.0	0.319833073	0.329275789	0.003561235	0.036740610	0.011323813
2020-07-11T01:35:00	0.1487	13.770	176.0	0.316503735	0.324368656	0.003483775	0.035941463	0.011077508
2020-07-11T01:40:00	0.1488	13.758	177.0	0.316713588	0.324788581	0.003489827	0.036003899	0.011096751
2020-07-11T01:45:00	0.1481	13.744	177.0	0.315288376	0.321942134	0.003448856	0.035581215	0.010966476
2020-07-11T01:50:00	0.1474	13.726	177.0	0.313862860	0.319107899	0.003408182	0.035161588	0.010837143
2020-07-11T01:55:00	0.1486	13.712	177.0	0.316321306	0.324003834	0.003478519	0.035887243	0.011060797
2020-07-11T02:00:00	0.1485	13.696	177.0	0.316122414	0.323606327	0.003472795	0.035828188	0.011042595
2020-07-11T02:05:00	0.1490	13.680	177.0	0.317235923	0.325662157	0.003503059	0.036140419	0.011138828
2020-07-11T02:10:00	0.1492	13.664	177.0	0.317833734	0.326492415	0.003516401	0.036278061	0.011181251
2020-07-11T02:15:00	0.1480	13.647	176.0	0.315116888	0.321600501	0.003443947	0.035530568	0.010950866
2020-07-11T02:20:00	0.1490	13.629	176.0	0.317259680	0.325695134	0.003503589	0.036145883	0.011140512
2020-07-11T02:25:00	0.1495	13.610	176.0	0.318741813	0.327755329	0.003536723	0.036487723	0.011245871
2020-07-11T02:30:00	0.1492	13.592	177.0	0.317865396	0.326536414	0.003517108	0.036285360	0.011183500
2020-07-11T02:35:00	0.1488	13.577	176.0	0.316773932	0.324909383	0.003491568	0.036021865	0.011102289
2020-07-11T02:40:00	0.1492	13.563	176.0	0.317881227	0.326558414	0.003517462	0.036289009	0.011184625
2020-07-11T02:45:00	0.1497	13.550	176.0	0.319362668	0.328619998	0.003550657	0.036631474	0.011290176
2020-07-11T02:50:00	0.1505	13.537	176.0	0.321724827	0.331918800	0.003603962	0.037181412	0.011459672
2020-07-11T02:55:00	0.1516	13.524	176.0	0.324963066	0.336464295	0.003677790	0.037943084	0.011694427
2020-07-11T03:00:00	0.1508	13.511	176.0	0.322622381	0.333175996	0.003624338	0.037391625	0.011524462
2020-07-11T03:05:00	0.1506	13.496	176.0	0.322042490	0.332363512	0.003611166	0.037255732	0.011482578
2020-07-11T03:10:00	0.1499	13.483	176.0	0.319991138	0.329496275	0.003564794	0.036777324	0.011335128
2020-07-11T03:15:00	0.1532	13.471	176.0	0.329679380	0.343132754	0.003786884	0.039068585	0.012041317
2020-07-11T03:20:00	0.1526	13.460	175.0	0.327932326	0.340655895	0.003746255	0.038649425	0.011912128
2020-07-11T03:25:00	0.1532	13.450	175.0	0.329695073	0.343155037	0.003787250	0.039072362	0.012042481
2020-07-11T03:30:00	0.1532	13.439	176.0	0.329702919	0.343166179	0.003787433	0.039074250	0.012043063
2020-07-11T03:35:00	0.1527	13.429	175.0	0.328248531	0.341103606	0.003753590	0.038725094	0.011935450
2020-07-11T03:40:00	0.1534	13.419	178.0	0.330303061	0.344018874	0.003801450	0.039218861	0.012087634
2020-07-11T03:45:00	0.1534	13.409	176.0	0.330310904	0.344030023	0.003801634	0.039220753	0.012088217
2020-07-11T03:50:00	0.1546	13.398	175.0	0.333528718	0.348617890	0.003877309	0.040001487	0.012328847
2020-07-11T03:55:00	0.1538	13.387	175.0	0.331202779	0.345298954	0.003822521	0.039436245	0.012154634
2020-07-11T04:00:00	0.1543	13.376	171.0	0.332669676	0.347390475	0.003857021	0.039792177	0.012264335
2020-07-11T04:05:00	0.1549	13.365	171.0	0.334464949	0.349957770	0.003899492	0.040230339	0.012399381
2020-07-11T04:10:00	0.1563	13.354	171.0	0.338583074	0.355878367	0.003997947	0.041246085	0.012712444
2020-07-11T04:15:00	0.1572	13.342	171.0	0.341240482	0.359722289	0.004062247	0.041909456	0.012916901
2020-07-11T04:20:00	0.1576	13.330	174.0	0.342445580	0.361471513	0.004091606	0.042212340	0.013010253
2020-07-11T04:25:00	0.1594	13.317	170.0	0.347694663	0.369134874	0.004220939	0.043546649	0.013421500
2020-07-11T04:30:00	0.1598	13.306	176.0	0.348605921	0.370472600	0.004243634	0.043780788	0.013493664
2020-07-11T04:35:00	0.1601	13.296	175.0	0.349516591	0.371811636	0.004266386	0.044015518	0.013566010
2020-07-11T04:40:00	0.1601	13.287	175.0	0.349562542	0.371879259	0.004267536	0.044027382	0.013569667
2020-07-11T04:45:00	0.1602	13.278	173.0	0.349896584	0.372371015	0.004275901	0.044113683	0.013596265
2020-07-11T04:50:00	0.1603	13.268	175.0	0.350230548	0.372862948	0.004284274	0.044200063	0.013622889
2020-07-11T04:55:00	0.1615	13.257	173.0	0.353728107	0.378032499	0.004372544	0.045110727	0.013903564
2020-07-11T05:00:00	0.1611	13.248	172.0	0.352624347	0.376397620	0.004344572	0.044822153	0.013814623
2020-07-11T05:05:00	0.1612	13.238	172.0	0.352670197	0.376465468	0.004345732	0.044834118	0.013818311
2020-07-11T05:10:00	0.1614	13.230	172.0	0.353290911	0.377384545	0.004361452	0.044996293	0.013868294
2020-07-11T05:15:00	0.1623	13.223	172.0	0.355920685	0.381289636	0.004428423	0.045687227	0.014081247
2020-07-11T05:20:00	0.1638	13.215	172.0	0.360262520	0.387776973	0.004540323	0.046841671	0.014437058
2020-07-11T05:25:00	0.1636	13.206	173.0	0.359736074	0.386987732	0.004526666	0.046700784	0.014393635
2020-07-11T05:30:00	0.1643	13.197	172.0	0.361782822	0.390060304	0.004579897	0.047249951	0.014562894
2020-07-11T05:35:00	0.1651	13.189	172.0	0.363826675	0.393139600	0.004633421	0.047802154	0.014733088
2020-07-11T05:40:00	0.1654	13.179	172.0	0.364727711	0.394500631	0.004657135	0.048046806	0.014808492
2020-07-11T05:45:00	0.1642	13.171	172.0	0.361348078	0.389406739	0.004568559	0.047132985	0.014526844
2020-07-11T05:50:00	0.1655	13.162	172.0	0.365103691	0.395069192	0.004667052	0.048149113	0.014840024
2020-07-11T05:55:00	0.1653	13.155	173.0	0.364579004	0.394275858	0.004653217	0.048006377	0.014796032
2020-07-11T06:00:00	0.1655	13.147	173.0	0.365194596	0.395206716	0.004669451	0.048173869	0.014847654
2020-07-11T06:05:00	0.1653	13.138	173.0	0.364384805	0.393982412	0.004648102	0.047953611	0.014779769
2020-07-11T06:10:00	0.1655	13.132	172.0	0.365000480	0.394913078	0.004664328	0.048121016	0.014831364
2020-07-11T06:15:00	0.1660	13.126	173.0	0.366470411	0.397139127	0.004703205	0.048522101	0.014954983
2020-07-11T06:20:00	0.1666	13.120	172.0	0.368223303	0.399801197	0.004749817	0.049002990	0.015103197
2020-07-11T06:25:00	0.1670	13.112	172.0	0.369405837	0.401601699	0.004781418	0.049329005	0.015203678
2020-07-11T06:30:00	0.1669	13.106	172.0	0.369166954	0.401237680	0.004775024	0.049263043	0.015183348
2020-07-11T06:35:00	0.1675	13.101	172.0	0.370632701	0.403473635	0.004814335	0.049668605	0.015308346
2020-07-11T06:40:00	0.1664	13.098	173.0	0.367551333	0.398779729	0.004731916	0.048818308	0.015046277
2020-07-11T06:45:00	0.1670	13.093	173.0	0.369302930	0.401444867	0.004778663	0.049300583	0.015194919
2020-07-11T06:50:00	0.1685	13.086	172.0	0.373605013	0.408025403	0.004894642	0.050497124	0.015563704
2020-07-11T06:55:00	0.1695	13.080	172.0	0.376481152	0.412452373	0.004973109	0.051306644	0.015813206
2020-07-11T07:00:00	0.1697	13.074	172.0	0.377091779	0.413395104	0.004989864	0.051479504	0.015866483
2020-07-11T07:05:00	0.1705	13.070	173.0	0.379396749	0.416962693	0.005053414	0.052135144	0.016068558
2020-07-11T07:10:00	0.1716	13.069	172.0	0.382261738	0.421416952	0.005133078	0.052957019	0.016321868
2020-07-11T07:15:00	0.1706	13.069	172.0	0.379486776	0.417102325	0.005055906	0.052160853	0.016076482
2020-07-11T07:20:00	0.1694	13.072	172.0	0.376140980	0.411927624	0.004963789	0.051210498	0.015783573
2020-07-11T07:25:00	0.1696	13.071	173.0	0.376751747	0.412870015	0.004980529	0.051383203	0.015836802
2020-07-11T07:30:00	0.1700	13.067	173.0	0.377927471	0.414686925	0.005012849	0.051716639	0.015939570
2020-07-11T07:35:00	0.1702	13.060	173.0	0.378537505	0.415631106	0.005029668	0.051890155	0.015993050
2020-07-11T07:40:00	0.1709	13.060	173.0	0.380276140	0.418327554	0.005077787	0.052386595	0.016146057
2020-07-11T07:45:00	0.1708	13.060	173.0	0.380039004	0.417959302	0.005071208	0.052318717	0.016125137
2020-07-11T07:50:00	0.1704	13.059	173.0	0.378955004	0.416277865	0.005041198	0.052009107	0.016029712
2020-07-11T07:55:00	0.1712	13.059	173.0	0.381257102	0.419852511	0.005105058	0.052667944	0.016232772
2020-07-11T08:00:00	0.1726	13.057	172.0	0.385243664	0.426076470	0.005216788	0.053820641	0.016588044
2020-07-11T08:05:00	0.1732	13.050	172.0	0.386974565	0.428792146	0.005265752	0.054325794	0.016743737
2020-07-11T08:10:00	0.1740	13.046	173.0	0.388983999	0.431954969	0.005322940	0.054915795	0.016925581
2020-07-11T08:15:00	0.1731	13.044	173.0	0.386502362	0.428050486	0.005252367	0.054187703	0.016701176
2020-07-11T08:20:00	0.1728	13.043	173.0	0.385704130	0.426798124	0.005229787	0.053954749	0.016629378
2020-07-11T08:25:00	0.1733	13.043	172.0	0.387153710	0.429073675	0.005270836	0.054378238	0.016759901
2020-07-11T08:30:00	0.1732	13.044	173.0	0.386917655	0.428702729	0.005264138	0.054309140	0.016738604
2020-07-11T08:35:00	0.1732	13.056	173.0	0.386962445	0.428773102	0.005265408	0.054322247	0.016742644
2020-07-11T08:40:00	0.1736	13.090	173.0	0.388130209	0.430609781	0.005298596	0.054664641	0.016848173
2020-07-11T08:45:00	0.1745	13.125	173.0	0.390418362	0.434219313	0.005363990	0.055339293	0.017056107
2020-07-11T08:50:00	0.1745	13.131	173.0	0.390463049	0.434289947	0.005365272	0.055352518	0.017060184
2020-07-11T08:55:00	0.1748	13.144	173.0	0.391348109	0.435690025	0.005390699	0.055614848	0.017141036
2020-07-11T09:00:00	0.1750	13.155	173.0	0.391952746	0.436647720	0.005408112	0.055794491	0.017196404
2020-07-11T09:05:00	0.1753	13.141	173.0	0.392836945	0.438050002	0.005433636	0.056057821	0.017277565
2020-07-11T09:10:00	0.1757	13.142	172.0	0.394000223	0.439898115	0.005467327	0.056405405	0.017384694
2020-07-11T09:15:00	0.1766	13.144	173.0	0.396279626	0.443530076	0.005533708	0.057090242	0.017595767
2020-07-11T09:20:00	0.1761	13.232	173.0	0.394927801	0.441374398	0.005494282	0.056683491	0.017470402
2020-07-11T09:25:00	0.1766	13.206	173.0	0.396368658	0.443672225	0.005536310	0.057117092	0.017604043
2020-07-11T09:30:00	0.1769	13.200	173.0	0.397250323	0.445081054	0.005562123	0.057383398	0.017686120
2020-07-11T09:35:00	0.1760	13.228	172.0	0.394782068	0.441142303	0.005490041	0.056639746	0.017456920
2020-07-11T09:40:00	0.1757	13.264	173.0	0.393988159	0.439878930	0.005466977	0.056401794	0.017383581
2020-07-11T09:45:00	0.1756	13.293	173.0	0.393473525	0.439060889	0.005452057	0.056247869	0.017336140
2020-07-11T09:50:00	0.1757	13.299	173.0	0.393797749	0.439576178	0.005461454	0.056344814	0.017366019
2020-07-11T09:55:00	0.1756	13.303	172.0	0.393562719	0.439202617	0.005454641	0.056274529	0.017344356
2020-07-11T10:00:00	0.1759	13.285	172.0	0.394445991	0.440607284	0.005480271	0.056538943	0.017425851
2020-07-11T10:05:00	0.1756	13.285	173.0	0.393570226	0.439214546	0.005454859	0.056276773	0.017345048
2020-07-11T10:10:00	0.1752	13.302	173.0	0.392414134	0.437379186	0.005421422	0.055931807	0.017238726
2020-07-11T10:15:00	0.1746	13.324	172.0	0.390696936	0.434659727	0.005371984	0.055421769	0.017081528
2020-07-11T10:20:00	0.1745	13.332	173.0	0.390379577	0.434158012	0.005362877	0.055327816	0.017052570
2020-07-11T10:25:00	0.1741	13.377	173.0	0.389501481	0.432771245	0.005337728	0.055068357	0.016972602
2020-07-11T10:30:00	0.1743	13.448	173.0	0.390024977	0.433597745	0.005352713	0.055222951	0.017020250
2020-07-11T10:35:00	0.1742	13.458	173.0	0.389707478	0.433096386	0.005343622	0.055129159	0.016991342
2020-07-11T10:40:00	0.1744	13.453	173.0	0.390230903	0.433923067	0.005358614	0.055283834	0.017039015
2020-07-11T10:45:00	0.1744	13.451	173.0	0.390193732	0.433864336	0.005357549	0.055272841	0.017035627
2020-07-11T10:50:00	0.1743	13.448	173.0	0.389876268	0.433362888	0.005348454	0.055179009	0.017006706
2020-07-11T10:55:00	0.1742	13.444	173.0	0.389558738	0.432861608	0.005339366	0.055085253	0.016977810
2020-07-11T11:00:00	0.1744	13.443	173.0	0.390362469	0.434130975	0.005362387	0.055322754	0.017051010
2020-07-11T11:05:00	0.1747	13.456	173.0	0.391165777	0.435401420	0.005385455	0.055560744	0.017124361
2020-07-11T11:10:00	0.1742	13.489	173.0	0.389727546	0.433128067	0.005344196	0.055135084	0.016993168
2020-07-11T11:15:00	0.1738	13.520	173.0	0.388568540	0.431300147	0.005311086	0.054793496	0.016887888
2020-07-11T11:20:00	0.1736	13.560	173.0	0.387970094	0.430357731	0.005294038	0.054617618	0.016833680
2020-07-11T11:25:00	0.1736	13.583	173.0	0.387932868	0.430299141	0.005292979	0.054606689	0.016830312
2020-07-11T11:30:00	0.1738	13.586	173.0	0.388456904	0.431124272	0.005307903	0.054760661	0.016877768
2020-07-11T11:35:00	0.1741	13.568	173.0	0.389261216	0.432392161	0.005330859	0.054997491	0.016950761
2020-07-11T11:40:00	0.1740	13.561	173.0	0.389224022	0.432333491	0.005329796	0.054986526	0.016947381
2020-07-11T11:45:00	0.1737	13.568	176.0	0.388345259	0.430948417	0.005304722	0.054727836	0.016867650
2020-07-11T11:50:00	0.1735	13.583	176.0	0.387746724	0.430006224	0.005287684	0.054552059	0.016813474
2020-07-11T11:55:00	0.1735	13.601	171.0	0.387709493	0.429947647	0.005286625	0.054541136	0.016810108
2020-07-11T12:00:00	0.1735	13.608	176.0	0.387672260	0.429889073	0.005285566	0.054530214	0.016806742
2020-07-11T12:05:00	0.1734	13.607	176.0	0.387354270	0.429388960	0.005276530	0.054436988	0.016778008
2020-07-11T12:10:00	0.1733	13.596	173.0	0.387036212	0.428889015	0.005267501	0.054343837	0.016749298
2020-07-11T12:15:00	0.1729	13.597	171.0	0.386156181	0.427507145	0.005242567	0.054086600	0.016670015
2020-07-11T12:20:00	0.1721	13.634	173.0	0.383869137	0.423925676	0.005178101	0.053421511	0.016465028
2020-07-11T12:25:00	0.1723	13.662	174.0	0.384394581	0.424747266	0.005192869	0.053573877	0.016511989
2020-07-11T12:30:00	0.1734	13.677	171.0	0.387448847	0.429537676	0.005279217	0.054464705	0.016786551
2020-07-11T12:35:00	0.1733	13.684	175.0	0.387130809	0.429037681	0.005270186	0.054371532	0.016757834
2020-07-11T12:40:00	0.1733	13.698	171.0	0.387093563	0.428979143	0.005269128	0.054360627	0.016754473
2020-07-11T12:45:00	0.1732	13.717	176.0	0.386775451	0.428479336	0.005260106	0.054267539	0.016725783
2020-07-11T12:50:00	0.1728	13.726	176.0	0.385614188	0.426657119	0.005227246	0.053928538	0.016621299
2020-07-11T12:55:00	0.1716	13.735	176.0	0.382481485	0.421759509	0.005139219	0.053020376	0.016341395
2020-07-11T13:00:00	0.1718	13.744	176.0	0.383007414	0.422579891	0.005153935	0.053172196	0.016388187
2020-07-11T13:05:00	0.1711	13.752	176.0	0.380997574	0.419448810	0.005097835	0.052593421	0.016209803
2020-07-11T13:10:00	0.1709	13.750	176.0	0.380396115	0.418513924	0.005081118	0.052420956	0.016156648
2020-07-11T13:15:00	0.1723	13.740	176.0	0.384302776	0.424603665	0.005190287	0.053547237	0.016503778
2020-07-11T13:20:00	0.1721	13.732	176.0	0.383702640	0.423665496	0.005173426	0.053373285	0.016450165
2020-07-11T13:25:00	0.1716	13.738	176.0	0.382257302	0.421410039	0.005132954	0.052955741	0.016321474
2020-07-11T13:30:00	0.1717	13.755	176.0	0.382783310	0.422230226	0.005147661	0.053107472	0.016368239
2020-07-11T13:35:00	0.1713	13.772	176.0	0.381618967	0.420415703	0.005115140	0.052771958	0.016264830
2020-07-11T13:40:00	0.1713	13.786	176.0	0.381581584	0.420357505	0.005114098	0.052761207	0.016261516
2020-07-11T13:45:00	0.1713	13.788	176.0	0.381544200	0.420299310	0.005113056	0.052750457	0.016258203
2020-07-11T13:50:00	0.1710	13.787	177.0	0.380660954	0.418925461	0.005088475	0.052496855	0.016180041
2020-07-11T13:55:00	0.1708	13.792	177.0	0.380059360	0.417990908	0.005071773	0.052324542	0.016126932
2020-07-11T14:00:00	0.1710	13.798	176.0	0.380586139	0.418809186	0.005086396	0.052475408	0.016173430
2020-07-11T14:05:00	0.1711	13.804	177.0	0.380830759	0.419189421	0.005093195	0.052545554	0.016195050
2020-07-11T14:10:00	0.1705	13.813	177.0	0.379382649	0.416940827	0.005053024	0.052131119	0.016067317
2020-07-11T14:15:00	0.1699	13.822	176.0	0.377650559	0.414258665	0.005005226	0.051637991	0.015915330
2020-07-11T14:20:00	0.1695	13.828	177.0	0.376482209	0.412454004	0.004973138	0.051306943	0.015813298
2020-07-11T14:25:00	0.1692	13.835	177.0	0.375595959	0.411087522	0.004948879	0.051056677	0.015736164
2020-07-11T14:30:00	0.1689	13.844	177.0	0.374709180	0.409722326	0.004924678	0.050806994	0.015659209
2020-07-11T14:35:00	0.1688	13.844	177.0	0.374388426	0.409229044	0.004915941	0.050716862	0.015631429
2020-07-11T14:40:00	0.1692	13.842	177.0	0.375483354	0.410914049	0.004945802	0.051024931	0.015726379
2020-07-11T14:45:00	0.1696	13.840	177.0	0.376860253	0.413037540	0.004983507	0.051413921	0.015846270
2020-07-11T14:50:00	0.1693	13.838	177.0	0.375974229	0.411670508	0.004959225	0.051163407	0.015769059
2020-07-11T14:55:00	0.1693	13.842	177.0	0.375936705	0.411612658	0.004958198	0.051152813	0.015765794
2020-07-11T15:00:00	0.1698	13.851	177.0	0.377313184	0.413737172	0.004995947	0.051542266	0.015885827
2020-07-11T15:05:00	0.1691	13.857	177.0	0.375295659	0.410624974	0.004940676	0.050972042	0.015710078
2020-07-11T15:10:00	0.1685	13.858	177.0	0.373558794	0.407954444	0.004893388	0.050484178	0.015559714
2020-07-11T15:15:00	0.1670	13.860	177.0	0.369264205	0.401385857	0.004777626	0.049289890	0.015191623
2020-07-11T15:20:00	0.1673	13.860	177.0	0.370078918	0.402628182	0.004799460	0.049515144	0.015261048
2020-07-11T15:25:00	0.1668	13.860	179.0	0.368904558	0.400838008	0.004768007	0.049190649	0.015161036
2020-07-11T15:30:00	0.1658	13.860	180.0	0.366021196	0.396458231	0.004691304	0.048399318	0.014917140
2020-07-11T15:35:00	0.1659	13.859	178.0	0.366268239	0.396832620	0.004697847	0.048466819	0.014937944
2020-07-11T15:40:00	0.1662	13.863	178.0	0.367084623	0.398070985	0.004719507	0.048690283	0.015006818
2020-07-11T15:45:00	0.1662	13.873	178.0	0.367046871	0.398013680	0.004718504	0.048679936	0.015003629
2020-07-11T15:50:00	0.1663	13.882	178.0	0.367293741	0.398388479	0.004725065	0.048747622	0.015024491
2020-07-11T15:55:00	0.1656	13.888	178.0	0.365262416	0.395309331	0.004671242	0.048192342	0.014853348
2020-07-11T16:00:00	0.1658	13.890	178.0	0.365794504	0.396114827	0.004685305	0.048337427	0.014898064
2020-07-11T16:05:00	0.1656	13.885	178.0	0.365434001	0.395569002	0.004675774	0.048239100	0.014867759
2020-07-11T16:10:00	0.1648	13.877	178.0	0.363076834	0.392008593	0.004613741	0.047599120	0.014670511
2020-07-11T16:15:00	0.1642	13.877	178.0	0.361287486	0.389315690	0.004566981	0.047116696	0.014521823
2020-07-11T16:20:00	0.1649	13.877	178.0	0.363496193	0.392640941	0.004624742	0.047712606	0.014705489
2020-07-11T16:25:00	0.1645	13.875	178.0	0.362278636	0.390806286	0.004592847	0.047383558	0.014604073
2020-07-11T16:30:00	0.1644	13.876	177.0	0.361917258	0.390262507	0.004583406	0.047286155	0.014574052
2020-07-11T16:35:00	0.1646	13.881	178.0	0.362412702	0.391008109	0.004596353	0.047419723	0.014615219
2020-07-11T16:40:00	0.1641	13.888	178.0	0.361194232	0.389175578	0.004564551	0.047091634	0.014514099
2020-07-11T16:45:00	0.1639	13.894	178.0	0.360546689	0.388203299	0.004547704	0.046917825	0.014460529
2020-07-11T16:50:00	0.1641	13.900	178.0	0.361042603	0.388947810	0.004560603	0.047050901	0.014501545
2020-07-11T16:55:00	0.1643	13.904	178.0	0.361538347	0.389692716	0.004573519	0.047184155	0.014542615
2020-07-11T17:00:00	0.1641	13.897	178.0	0.361176784	0.389149366	0.004564097	0.047086946	0.014512654
2020-07-11T17:05:00	0.1635	13.879	178.0	0.359385078	0.386461931	0.004517575	0.046606990	0.014364727
2020-07-11T17:10:00	0.1631	13.863	178.0	0.358164043	0.384635326	0.004486033	0.046281576	0.014264431
2020-07-11T17:15:00	0.1640	13.843	178.0	0.360663463	0.388378551	0.004550740	0.046949141	0.014470181
2020-07-11T17:20:00	0.1643	13.826	178.0	0.361730824	0.389982108	0.004578540	0.047235952	0.014558579
2020-07-11T17:25:00	0.1642	13.812	178.0	0.361369310	0.389438647	0.004569113	0.047138693	0.014528603
2020-07-11T17:30:00	0.1642	13.804	178.0	0.361293507	0.389324737	0.004567137	0.047118315	0.014522322
2020-07-11T17:35:00	0.1644	13.795	178.0	0.362074812	0.390499542	0.004587521	0.047328606	0.014587136
2020-07-11T17:40:00	0.1637	13.787	178.0	0.359998220	0.387380645	0.004533464	0.046770908	0.014415248
2020-07-11T17:45:00	0.1632	13.779	178.0	0.358491403	0.385124654	0.004494477	0.046368687	0.014291280
2020-07-11T17:50:00	0.1632	13.772	179.0	0.358415449	0.385011094	0.004492517	0.046348466	0.014285048
2020-07-11T17:55:00	0.1625	13.766	178.0	0.356620293	0.382331591	0.004446342	0.045872090	0.014138224
2020-07-11T18:00:00	0.1623	13.758	178.0	0.355970684	0.381364060	0.004429702	0.045700424	0.014085315
2020-07-11T18:05:00	0.1625	13.749	178.0	0.356468181	0.382104935	0.004442442	0.045831859	0.014125824
2020-07-11T18:10:00	0.1625	13.739	178.0	0.356392119	0.381991621	0.004440493	0.045811749	0.014119626
2020-07-11T18:15:00	0.1630	13.726	177.0	0.358035615	0.384443433	0.004482723	0.046247427	0.014253906
2020-07-11T18:20:00	0.1638	13.709	178.0	0.360249305	0.387757151	0.004539980	0.046838132	0.014435967
2020-07-11T18:25:00	0.1641	13.691	177.0	0.361031176	0.388930646	0.004560306	0.047047832	0.014500599
2020-07-11T18:30:00	0.1643	13.671	177.0	0.361526923	0.389675543	0.004573221	0.047181081	0.014541668
2020-07-11T18:35:00	0.1650	13.648	177.0	0.363735265	0.393001643	0.004631020	0.047777375	0.014725451
2020-07-11T18:40:00	0.1654	13.625	177.0	0.364800364	0.394610469	0.004659051	0.048066565	0.014814582
2020-07-11T18:45:00	0.1657	13.601	177.0	0.365579781	0.395789681	0.004679627	0.048278847	0.014880010
2020-07-11T18:50:00	0.1651	13.577	177.0	0.364078776	0.393520186	0.004640049	0.047870530	0.014754162
2020-07-11T18:55:00	0.1652	13.552	177.0	0.364288326	0.393836663	0.004645562	0.047927410	0.014771693
2020-07-11T19:00:00	0.1651	13.527	176.0	0.363927450	0.393291715	0.004636070	0.047829479	0.014741510
2020-07-11T19:05:00	0.1650	13.495	177.0	0.363566484	0.392746977	0.004626587	0.047731644	0.014711356
2020-07-11T19:10:00	0.1656	13.463	176.0	0.365486803	0.395648925	0.004677169	0.048253494	0.014872196
2020-07-11T19:15:00	0.1656	13.433	172.0	0.365411215	0.395534513	0.004675172	0.048232889	0.014865845
2020-07-11T19:20:00	0.1654	13.402	172.0	0.364765556	0.394557843	0.004658133	0.048057098	0.014811664
2020-07-11T19:25:00	0.1655	13.371	172.0	0.364975007	0.394874552	0.004663656	0.048114083	0.014829228
2020-07-11T19:30:00	0.1657	13.337	172.0	0.365754330	0.396053985	0.004684242	0.048326464	0.014894685
2020-07-11T19:35:00	0.1659	13.306	177.0	0.366248466	0.396802647	0.004697323	0.048461414	0.014936278
2020-07-11T19:40:00	0.1662	13.274	175.0	0.367027108	0.397983683	0.004717979	0.048674520	0.015001960
2020-07-11T19:45:00	0.1667	13.240	174.0	0.368374216	0.400030766	0.004753843	0.049044524	0.015115999
2020-07-11T19:50:00	0.1666	13.207	174.0	0.368298777	0.399916001	0.004751831	0.049023759	0.015109599
2020-07-11T19:55:00	0.1660	13.174	175.0	0.366515854	0.397208036	0.004704410	0.048534532	0.014958814
2020-07-11T20:00:00	0.1656	13.139	173.0	0.365300827	0.395367455	0.004672256	0.048202807	0.014856573
2020-07-11T20:05:00	0.1658	13.102	173.0	0.365795117	0.396115755	0.004685321	0.048337594	0.014898116
2020-07-11T20:10:00	0.1659	13.068	177.0	0.366289238	0.396864451	0.004698403	0.048472559	0.014939714
2020-07-11T20:15:00	0.1660	13.041	176.0	0.366498470	0.397181675	0.004703949	0.048529777	0.014957348
2020-07-11T20:20:00	0.1665	13.010	179.0	0.367846065	0.399227605	0.004739763	0.048899260	0.015071227
2020-07-11T20:25:00	0.1658	12.975	178.0	0.366062588	0.396520948	0.004692400	0.048410624	0.014920624
2020-07-11T20:30:00	0.1663	12.941	176.0	0.367410585	0.398565928	0.004728172	0.048779677	0.015034370
2020-07-11T20:35:00	0.1662	12.907	175.0	0.367050482	0.398019161	0.004718600	0.048680925	0.015003934
2020-07-11T20:40:00	0.1663	12.875	175.0	0.367259605	0.398336643	0.004724157	0.048738259	0.015021605
2020-07-11T20:45:00	0.1663	12.841	171.0	0.367468697	0.398654196	0.004729718	0.048795625	0.015039286
2020-07-11T20:50:00	0.1668	12.809	175.0	0.368815398	0.400702243	0.004765624	0.049166065	0.015153459
2020-07-11T20:55:00	0.1668	12.776	171.0	0.368739982	0.400587424	0.004763609	0.049145276	0.015147051
2020-07-11T21:00:00	0.1668	12.745	171.0	0.368664562	0.400472614	0.004761594	0.049124491	0.015140645
2020-07-11T21:05:00	0.1667	12.713	170.0	0.368589139	0.400357814	0.004759580	0.049103710	0.015134240
2020-07-11T21:10:00	0.1663	12.681	174.0	0.367375839	0.398513156	0.004727248	0.048770144	0.015031432
2020-07-11T21:15:00	0.1665	12.649	172.0	0.367869425	0.399263114	0.004740385	0.048905680	0.015073205
2020-07-11T21:20:00	0.1666	12.618	172.0	0.368078431	0.399580874	0.004745955	0.048963139	0.015090915
2020-07-11T21:25:00	0.1667	12.591	172.0	0.368571780	0.400331394	0.004759117	0.049098929	0.015132767
2020-07-11T21:30:00	0.1671	12.563	173.0	0.369633354	0.401948538	0.004787512	0.049391877	0.015223056
2020-07-11T21:35:00	0.1676	12.537	172.0	0.370978067	0.404001313	0.004823625	0.049764454	0.015337888
2020-07-11T21:40:00	0.1676	12.508	172.0	0.371186629	0.404320127	0.004829241	0.049822390	0.015355744
2020-07-11T21:45:00	0.1674	12.481	172.0	0.370543517	0.403337423	0.004811937	0.049643872	0.015300723
2020-07-11T21:50:00	0.1674	12.454	172.0	0.370468190	0.403222393	0.004809913	0.049622987	0.015294287
2020-07-11T21:55:00	0.1681	12.422	172.0	0.372379469	0.406145760	0.004861434	0.050154517	0.015458109
2020-07-11T22:00:00	0.1678	12.387	172.0	0.371736878	0.405161807	0.004844076	0.049975434	0.015402914
2020-07-11T22:05:00	0.1680	12.356	172.0	0.372148682	0.405792246	0.004855195	0.050090156	0.015438272
2020-07-11T22:10:00	0.1674	12.331	172.0	0.370574007	0.403383988	0.004812757	0.049652327	0.015303329
2020-07-11T22:15:00	0.1675	12.305	172.0	0.370702231	0.403579843	0.004816204	0.049687893	0.015314291
2020-07-11T22:20:00	0.1676	12.277	171.0	0.371114325	0.404209588	0.004827294	0.049802300	0.015349553
2020-07-11T22:25:00	0.1675	12.251	172.0	0.370674735	0.403537840	0.004815465	0.049680265	0.015311940
2020-07-11T22:30:00	0.1670	12.225	172.0	0.369382694	0.401566426	0.004780798	0.049322612	0.015201708
2020-07-11T22:35:00	0.1673	12.198	172.0	0.370079240	0.402628673	0.004799469	0.049515233	0.015261076
2020-07-11T22:40:00	0.1663	12.170	173.0	0.367364461	0.398495876	0.004726945	0.048767022	0.015030470
2020-07-11T22:45:00	0.1653	12.140	172.0	0.364644624	0.394375037	0.004654946	0.048024215	0.014801529
2020-07-11T22:50:00	0.1649	12.112	172.0	0.363347230	0.392416267	0.004620832	0.047672276	0.014693058
2020-07-11T22:55:00	0.1644	12.083	172.0	0.362048673	0.390460212	0.004586838	0.047321562	0.014584965
2020-07-11T23:00:00	0.1638	12.058	171.0	0.360177071	0.387648818	0.004538104	0.046818786	0.014430005
2020-07-11T23:05:00	0.1639	12.032	171.0	0.360592156	0.388271531	0.004548886	0.046930017	0.014464287
2020-07-11T23:10:00	0.1643	12.003	171.0	0.361578670	0.389753333	0.004574571	0.047195003	0.014545958
2020-07-11T23:15:00	0.1637	11.978	171.0	0.359992518	0.387372097	0.004533316	0.046769382	0.014414778
2020-07-11T23:20:00	0.1633	11.951	171.0	0.358690936	0.385423047	0.004499628	0.046421830	0.014307659
2020-07-11T23:25:00	0.1632	11.924	171.0	0.358533920	0.385188226	0.004495574	0.046380008	0.014294769
2020-07-11T23:30:00	0.1624	11.896	171.0	0.356084225	0.381533087	0.004432608	0.045730401	0.014094554
2020-07-11T23:35:00	0.1626	11.872	171.0	0.356787195	0.382580355	0.004450623	0.045916258	0.014151837
2020-07-11T23:40:00	0.1616	11.844	171.0	0.354047311	0.378505898	0.004380653	0.045194387	0.013929349
2020-07-11T23:45:00	0.1621	11.814	171.0	0.355325330	0.380403967	0.004413209	0.045530260	0.014032868
2020-07-11T23:50:00	0.1625	11.787	171.0	0.356602206	0.382304636	0.004445878	0.045867305	0.014136749
2020-07-11T23:55:00	0.1627	11.764	171.0	0.357018326	0.382924972	0.004456556	0.045977463	0.014170701
2020-07-12T00:00:00	0.1634	11.742	170.0	0.359152546	0.386113771	0.004511558	0.046544914	0.014345595
2020-07-12T00:05:00	0.1629	11.719	171.0	0.357563715	0.383738710	0.004470573	0.046122080	0.014215273
2020-07-12T00:10:00	0.1629	11.697	170.0	0.357693094	0.383931863	0.004473902	0.046156426	0.014225859
2020-07-12T00:15:00	0.1630	11.675	170.0	0.357822462	0.384125042	0.004477233	0.046190784	0.014236448
2020-07-12T00:20:00	0.1627	11.650	170.0	0.357092244	0.383035215	0.004458454	0.045997048	0.014176737
2020-07-12T00:25:00	0.1627	11.626	169.0	0.357221666	0.383228270	0.004461779	0.046031350	0.014187309
2020-07-12T00:30:00	0.1623	11.605	169.0	0.355917566	0.381284994	0.004428344	0.045686404	0.014080993
2020-07-12T00:35:00	0.1616	11.582	172.0	0.354037942	0.378491999	0.004380415	0.045191930	0.013928592
2020-07-12T00:40:00	0.1618	11.555	170.0	0.354454809	0.379110634	0.004391018	0.045301320	0.013962307
2020-07-12T00:45:00	0.1608	11.530	171.0	0.351710430	0.375046358	0.004321492	0.044584041	0.013741234
2020-07-12T00:50:00	0.1613	11.506	169.0	0.352990550	0.376939681	0.004353841	0.044917774	0.013844094
2020-07-12T00:55:00	0.1615	11.485	170.0	0.353695047	0.377983484	0.004371704	0.045102068	0.013900895
2020-07-12T01:00:00	0.1618	11.463	170.0	0.354399195	0.379028075	0.004389602	0.045286718	0.013957806
2020-07-12T01:05:00	0.1613	11.438	170.0	0.353092511	0.377090669	0.004356424	0.044944419	0.013852306
2020-07-12T01:10:00	0.1609	11.413	170.0	0.351784625	0.375155976	0.004323363	0.044603344	0.013747184
2020-07-12T01:15:00	0.1610	11.389	171.0	0.352202154	0.375773118	0.004333901	0.044712061	0.013780692
2020-07-12T01:20:00	0.1609	11.366	167.0	0.352044422	0.375539924	0.004329919	0.044670972	0.013768027
2020-07-12T01:25:00	0.1609	11.345	165.0	0.351886672	0.375306769	0.004325938	0.044629901	0.013755369
2020-07-12T01:30:00	0.1610	11.325	164.0	0.352304172	0.375923978	0.004336478	0.044738649	0.013788886
2020-07-12T01:35:00	0.1612	11.306	172.0	0.352721548	0.376541464	0.004347031	0.044847522	0.013822442
2020-07-12T01:40:00	0.1606	11.286	173.0	0.351125534	0.374182720	0.004306760	0.044432046	0.013694388
2020-07-12T01:45:00	0.1607	11.265	170.0	0.351255499	0.374374544	0.004310031	0.044465793	0.013704789
2020-07-12T01:50:00	0.1608	11.243	170.0	0.351673184	0.374991336	0.004320553	0.044574353	0.013738249
2020-07-12T01:55:00	0.1609	11.220	169.0	0.351803099	0.375183274	0.004323829	0.044608151	0.013748665
2020-07-12T02:00:00	0.1608	11.200	169.0	0.351645323	0.374950179	0.004319851	0.044567107	0.013736015
2020-07-12T02:05:00	0.1607	11.180	170.0	0.351199760	0.374292269	0.004308628	0.044451318	0.013700328
2020-07-12T02:10:00	0.1611	11.161	169.0	0.352480340	0.376184555	0.004340931	0.044784583	0.013803044
2020-07-12T02:15:00	0.1611	11.142	169.0	0.352610181	0.376376659	0.004344214	0.044818456	0.013813483
2020-07-12T02:20:00	0.1614	11.122	169.0	0.353314867	0.377420036	0.004362059	0.045002559	0.013870226
2020-07-12T02:25:00	0.1614	11.102	169.0	0.353444631	0.377612312	0.004365350	0.045036509	0.013880689
2020-07-12T02:30:00	0.1616	11.084	169.0	0.353861673	0.378230553	0.004375936	0.045145722	0.013914350
2020-07-12T02:35:00	0.1618	11.065	168.0	0.354565739	0.379275331	0.004393842	0.045330456	0.013971287
2020-07-12T02:40:00	0.1619	11.047	169.0	0.354695390	0.379467864	0.004397144	0.045364523	0.013981786
2020-07-12T02:45:00	0.1623	11.028	169.0	0.355972828	0.381367252	0.004429757	0.045700990	0.014085489
2020-07-12T02:50:00	0.1627	11.008	169.0	0.356962519	0.382841751	0.004455123	0.045962681	0.014166145
2020-07-12T02:55:00	0.1622	10.991	169.0	0.355658182	0.380899014	0.004421711	0.045617978	0.014059904
2020-07-12T03:00:00	0.1621	10.972	169.0	0.355500833	0.380664954	0.004417690	0.045576498	0.014047119
2020-07-12T03:05:00	0.1618	10.953	169.0	0.354482323	0.379151480	0.004391718	0.045308546	0.013964534
2020-07-12T03:10:00	0.1614	10.935	168.0	0.353463085	0.377639658	0.004365818	0.045041338	0.013882178
2020-07-12T03:15:00	0.1619	10.922	169.0	0.354741628	0.379536540	0.004398322	0.045376676	0.013985532
2020-07-12T03:20:00	0.1613	10.908	169.0	0.353147884	0.377172678	0.004357827	0.044958893	0.013856767
2020-07-12T03:25:00	0.1623	10.893	168.0	0.355861716	0.381201871	0.004426915	0.045671665	0.014076451
2020-07-12T03:30:00	0.1616	10.874	169.0	0.353982018	0.378409043	0.004378993	0.045177267	0.013924072
2020-07-12T03:35:00	0.1619	10.855	168.0	0.354686025	0.379453956	0.004396905	0.045362061	0.013981028
2020-07-12T03:40:00	0.1619	10.839	168.0	0.354815664	0.379646514	0.004400208	0.045396139	0.013991531
2020-07-12T03:45:00	0.1618	10.824	168.0	0.354371094	0.378986363	0.004388887	0.045279340	0.013955532
2020-07-12T03:50:00	0.1617	10.810	168.0	0.354213603	0.378752626	0.004384881	0.045238006	0.013942793
2020-07-12T03:55:00	0.1619	10.794	168.0	0.354917495	0.379797798	0.004402804	0.045422918	0.013999784
2020-07-12T04:00:00	0.1619	10.778	168.0	0.354760064	0.379563924	0.004398792	0.045381522	0.013987026
2020-07-12T04:05:00	0.1623	10.766	168.0	0.355826691	0.381149746	0.004426019	0.045662424	0.014073603
2020-07-12T04:10:00	0.1625	10.755	168.0	0.356605843	0.382310056	0.004445971	0.045868268	0.014137046
2020-07-12T04:15:00	0.1630	10.741	168.0	0.357957560	0.384326826	0.004480712	0.046226680	0.014247512
2020-07-12T04:20:00	0.1644	10.728	169.0	0.361881216	0.390208291	0.004582465	0.047276447	0.014571060
2020-07-12T04:25:00	0.1646	10.716	168.0	0.362657094	0.391376139	0.004602747	0.047485692	0.014635552
2020-07-12T04:30:00	0.1650	10.707	168.0	0.363717880	0.392975409	0.004630563	0.047772663	0.014723999
2020-07-12T04:35:00	0.1654	10.696	168.0	0.364777891	0.394576491	0.004658458	0.048060453	0.014812698
2020-07-12T04:40:00	0.1654	10.687	168.0	0.364697164	0.394454453	0.004656330	0.048038499	0.014805932
2020-07-12T04:45:00	0.1663	10.680	168.0	0.367464830	0.398648321	0.004729615	0.048794563	0.015038958
2020-07-12T04:50:00	0.1667	10.673	163.0	0.368522118	0.400255815	0.004757791	0.049085249	0.015128551
2020-07-12T04:55:00	0.1672	10.669	169.0	0.369862765	0.402298407	0.004793661	0.049455322	0.015242611
2020-07-12T05:00:00	0.1678	10.665	163.0	0.371485998	0.404777953	0.004837309	0.049905621	0.015381397
2020-07-12T05:05:00	0.1682	10.661	168.0	0.372823946	0.406827000	0.004873462	0.050278612	0.015496356
2020-07-12T05:10:00	0.1689	10.660	167.0	0.374727108	0.409749906	0.004925166	0.050812034	0.015660762
2020-07-12T05:15:00	0.1690	10.659	167.0	0.374930074	0.410062197	0.004930700	0.050869121	0.015678357
2020-07-12T05:20:00	0.1695	10.662	167.0	0.376547748	0.412555141	0.004974934	0.051325480	0.015819011
2020-07-12T05:25:00	0.1699	10.665	168.0	0.377598545	0.414178245	0.005003795	0.051623226	0.015910779
2020-07-12T05:30:00	0.1701	10.673	168.0	0.378083667	0.414928582	0.005017152	0.051761034	0.015953253
2020-07-12T05:35:00	0.1706	10.684	168.0	0.379415675	0.416992046	0.005053938	0.052140549	0.016070223
2020-07-12T05:40:00	0.1708	10.694	168.0	0.380182357	0.418181900	0.005075185	0.052359744	0.016137782
2020-07-12T05:45:00	0.1705	10.705	168.0	0.379255814	0.416744147	0.005049515	0.052094913	0.016056158
2020-07-12T05:50:00	0.1703	10.715	168.0	0.378611143	0.415745146	0.005031700	0.051911123	0.015999512
2020-07-12T05:55:00	0.1705	10.727	168.0	0.379378237	0.416933984	0.005052902	0.052129859	0.016066929
2020-07-12T06:00:00	0.1707	10.739	162.0	0.379862781	0.417685741	0.005066322	0.052268310	0.016109601
2020-07-12T06:05:00	0.1712	10.754	170.0	0.381193206	0.419753103	0.005103279	0.052649590	0.016227115
2020-07-12T06:10:00	0.1712	10.770	166.0	0.381113372	0.419628915	0.005101057	0.052626664	0.016220049
2020-07-12T06:15:00	0.1711	10.787	163.0	0.381033534	0.419504737	0.005098835	0.052603743	0.016212984
2020-07-12T06:20:00	0.1720	10.804	170.0	0.383489352	0.423332306	0.005167442	0.053311544	0.016431136
2020-07-12T06:25:00	0.1720	10.824	169.0	0.383409640	0.423207815	0.005165206	0.053288481	0.016424027
2020-07-12T06:30:00	0.1725	10.845	169.0	0.385018172	0.425723282	0.005210430	0.053755041	0.016567826
2020-07-12T06:35:00	0.1733	10.868	169.0	0.387186725	0.429125568	0.005271773	0.054387907	0.016762881
2020-07-12T06:40:00	0.1736	10.892	171.0	0.387949462	0.430325258	0.005293451	0.054611560	0.016831813
2020-07-12T06:45:00	0.1736	10.919	171.0	0.387869985	0.430200178	0.005291190	0.054588230	0.016824623
2020-07-12T06:50:00	0.1741	10.946	169.0	0.389473788	0.432727544	0.005336936	0.055060186	0.016970084
2020-07-12T06:55:00	0.1741	10.975	169.0	0.389394391	0.432602261	0.005334666	0.055036764	0.016962865
2020-07-12T07:00:00	0.1739	11.008	169.0	0.388754043	0.431592468	0.005316377	0.054848082	0.016904712
2020-07-12T07:05:00	0.1739	11.044	169.0	0.388955122	0.431909439	0.005322116	0.054907289	0.016922960
2020-07-12T07:10:00	0.1734	11.078	164.0	0.387472538	0.429574932	0.005279890	0.054471650	0.016788691
2020-07-12T07:15:00	0.1738	11.136	169.0	0.388515726	0.431216938	0.005309580	0.054777960	0.016883099
2020-07-12T07:20:00	0.1736	11.205	169.0	0.387875008	0.430208083	0.005291333	0.054589704	0.016825077
2020-07-12T07:25:00	0.1736	11.268	169.0	0.388076203	0.430524759	0.005297059	0.054648778	0.016843284
2020-07-12T07:30:00	0.1735	11.374	170.0	0.387716042	0.429957952	0.005286811	0.054543057	0.016810700
2020-07-12T07:35:00	0.1737	11.394	165.0	0.388197912	0.430716379	0.005300524	0.054684531	0.016854304
2020-07-12T07:40:00	0.1740	11.416	171.0	0.389240602	0.432359644	0.005330270	0.054991414	0.016948888
2020-07-12T07:45:00	0.1745	11.416	170.0	0.390562796	0.434447632	0.005368134	0.055382046	0.017069284
2020-07-12T07:50:00	0.1742	11.472	170.0	0.389642604	0.432993979	0.005341765	0.055110006	0.016985439
2020-07-12T07:55:00	0.1740	11.623	170.0	0.389002361	0.431983921	0.005323465	0.054921204	0.016927249
2020-07-12T08:00:00	0.1745	11.581	170.0	0.390604972	0.434514313	0.005369344	0.055394534	0.017073133
2020-07-12T08:05:00	0.1744	11.556	169.0	0.390245409	0.433945988	0.005359030	0.055288125	0.017040337
2020-07-12T08:10:00	0.1741	11.568	170.0	0.389325026	0.432492823	0.005332683	0.055016307	0.016956560
2020-07-12T08:15:00	0.1739	11.579	170.0	0.388965161	0.431925266	0.005322403	0.054910246	0.016923871
2020-07-12T08:20:00	0.1749	11.588	170.0	0.391688163	0.436228521	0.005400488	0.055715838	0.017172162
2020-07-12T08:25:00	0.1741	11.611	170.0	0.389367236	0.432559417	0.005333890	0.055028755	0.016960397
2020-07-12T08:30:00	0.1749	11.640	170.0	0.391529595	0.435977380	0.005395922	0.055668732	0.017157644
2020-07-12T08:35:00	0.1748	11.672	169.0	0.391450305	0.435851825	0.005393640	0.055645187	0.017150387
2020-07-12T08:40:00	0.1745	11.710	170.0	0.390530648	0.434396808	0.005367211	0.055372528	0.017066351
2020-07-12T08:45:00	0.1754	11.754	170.0	0.392971139	0.438263010	0.005437516	0.056097852	0.017289903
2020-07-12T08:50:00	0.1747	11.795	170.0	0.391212409	0.435475223	0.005386796	0.055574578	0.017128625
2020-07-12T08:55:00	0.1746	11.840	170.0	0.390852989	0.434906533	0.005376466	0.055468004	0.017095777
2020-07-12T09:00:00	0.1748	11.883	171.0	0.391333867	0.435667479	0.005390289	0.055610621	0.017139733
2020-07-12T09:05:00	0.1748	11.918	172.0	0.391254567	0.435541950	0.005388008	0.055587087	0.017132480
2020-07-12T09:10:00	0.1747	11.955	172.0	0.391175262	0.435416431	0.005385728	0.055563558	0.017125228
2020-07-12T09:15:00	0.1745	12.014	172.0	0.390535662	0.434404735	0.005367355	0.055374012	0.017066808
2020-07-12T09:20:00	0.1739	12.246	173.0	0.388774123	0.431624117	0.005316950	0.054853993	0.016906533
2020-07-12T09:25:00	0.1742	12.199	171.0	0.389536064	0.432825823	0.005338717	0.055078562	0.016975748
2020-07-12T09:30:00	0.1743	12.203	171.0	0.390017358	0.433585711	0.005352494	0.055220699	0.017019556
2020-07-12T09:35:00	0.1734	12.216	171.0	0.387413135	0.429481518	0.005278202	0.054454238	0.016783325
2020-07-12T09:40:00	0.1742	12.223	172.0	0.389578268	0.432892432	0.005339924	0.055091017	0.016979586
2020-07-12T09:45:00	0.1740	12.217	172.0	0.389218463	0.432324723	0.005329637	0.054984887	0.016946876
2020-07-12T09:50:00	0.1739	12.261	172.0	0.388858573	0.431757230	0.005319360	0.054878856	0.016914196
2020-07-12T09:55:00	0.1736	12.326	172.0	0.387937350	0.430306196	0.005293107	0.054608005	0.016830717
2020-07-12T10:00:00	0.1729	12.417	172.0	0.385891766	0.427092356	0.005235090	0.054009454	0.016646238
2020-07-12T10:05:00	0.1747	12.446	172.0	0.391098459	0.435294889	0.005383519	0.055540777	0.017118207
2020-07-12T10:10:00	0.1743	12.448	171.0	0.389853599	0.433327091	0.005347804	0.055172312	0.017004642
2020-07-12T10:15:00	0.1734	12.527	172.0	0.387485099	0.429594686	0.005280247	0.054475332	0.016789826
2020-07-12T10:20:00	0.1737	12.598	173.0	0.388202934	0.430724286	0.005300667	0.054686007	0.016854758
2020-07-12T10:25:00	0.1743	12.579	173.0	0.390041993	0.433624623	0.005353200	0.055227980	0.017021800
2020-07-12T10:30:00	0.1742	12.568	173.0	0.389637587	0.432986060	0.005341622	0.055108525	0.016984983
2020-07-12T10:35:00	0.1744	12.572	173.0	0.390354407	0.434118233	0.005362155	0.055320368	0.017050275
2020-07-12T10:40:00	0.1739	12.584	174.0	0.388828454	0.431709753	0.005318500	0.054869988	0.016911463
2020-07-12T10:45:00	0.1742	12.598	173.0	0.389545655	0.432840959	0.005338992	0.055081392	0.016976620
2020-07-12T10:50:00	0.1745	12.616	173.0	0.390542739	0.434415923	0.005367558	0.055376108	0.017067454
2020-07-12T10:55:00	0.1749	12.626	173.0	0.391539173	0.435992547	0.005396198	0.055671577	0.017158521
2020-07-12T11:00:00	0.1750	12.637	174.0	0.391975194	0.436683295	0.005408759	0.055801167	0.017198462
2020-07-12T11:05:00	0.1742	12.663	173.0	0.389609992	0.432942503	0.005340832	0.055100380	0.016982472
2020-07-12T11:10:00	0.1742	12.702	173.0	0.389766252	0.433189175	0.005345304	0.055146514	0.016996691
2020-07-12T11:15:00	0.1741	12.716	173.0	0.389361773	0.432550798	0.005333733	0.055027144	0.016959900
2020-07-12T11:20:00	0.1745	12.716	173.0	0.390639182	0.434568403	0.005370326	0.055404664	0.017076256
2020-07-12T11:25:00	0.1748	12.723	174.0	0.391355531	0.435701775	0.005390913	0.055617051	0.017141715
2020-07-12T11:30:00	0.1742	12.733	173.0	0.389550228	0.432848176	0.005339122	0.055082741	0.016977036
2020-07-12T11:35:00	0.1738	12.759	173.0	0.388584683	0.431325581	0.005311546	0.054798245	0.016889351
2020-07-12T11:40:00	0.1744	12.786	174.0	0.390143038	0.433784244	0.005356096	0.055257851	0.017031006
2020-07-12T11:45:00	0.1741	12.792	174.0	0.389458290	0.432703088	0.005336493	0.055055614	0.016968675
2020-07-12T11:50:00	0.1745	12.793	173.0	0.390455432	0.434277907	0.005365053	0.055350264	0.017059489
2020-07-12T11:55:00	0.1751	12.796	174.0	0.392291778	0.437185153	0.005417890	0.055895372	0.017227497
2020-07-12T12:00:00	0.1749	12.802	173.0	0.391607993	0.436101539	0.005398179	0.055692019	0.017164821
2020-07-12T12:05:00	0.1744	12.824	174.0	0.390363548	0.434132680	0.005362418	0.055323073	0.017051108
2020-07-12T12:10:00	0.1734	12.849	173.0	0.387434410	0.429514973	0.005278806	0.054460473	0.016785247
2020-07-12T12:15:00	0.1739	12.864	173.0	0.388713436	0.431528471	0.005315219	0.054836131	0.016901028
2020-07-12T12:20:00	0.1740	12.865	173.0	0.389150266	0.432217159	0.005327689	0.054964785	0.016940681
2020-07-12T12:25:00	0.1745	12.870	174.0	0.390427851	0.434234312	0.005364262	0.055342101	0.017056973
2020-07-12T12:30:00	0.1742	12.884	173.0	0.389743231	0.433152831	0.005344645	0.055139716	0.016994596
2020-07-12T12:35:00	0.1740	12.903	173.0	0.389058304	0.432072132	0.005325062	0.054937686	0.016932328
2020-07-12T12:40:00	0.1740	12.929	174.0	0.389214620	0.432318661	0.005329528	0.054983754	0.016946527
2020-07-12T12:45:00	0.1735	12.957	174.0	0.387687522	0.429913082	0.005286000	0.054534691	0.016808121
2020-07-12T12:50:00	0.1728	12.975	174.0	0.385877855	0.427070538	0.005234696	0.054005397	0.016644988
2020-07-12T12:55:00	0.1726	12.993	174.0	0.385191180	0.425994252	0.005215308	0.053805368	0.016583337
2020-07-12T13:00:00	0.1723	13.008	174.0	0.384222853	0.424478668	0.005188040	0.053524051	0.016496632
2020-07-12T13:05:00	0.1723	13.029	174.0	0.384379669	0.424723938	0.005192450	0.053569549	0.016510655
2020-07-12T13:10:00	0.1717	13.063	175.0	0.382566031	0.421891341	0.005141583	0.053044765	0.016348912
2020-07-12T13:15:00	0.1718	13.096	174.0	0.383004640	0.422575561	0.005153857	0.053171394	0.016387940
2020-07-12T13:20:00	0.1702	13.118	174.0	0.378367344	0.415367638	0.005024973	0.051841720	0.015978122
2020-07-12T13:25:00	0.1709	13.118	180.0	0.380500523	0.418676142	0.005084017	0.052450870	0.016165868
2020-07-12T13:30:00	0.1710	13.124	174.0	0.380657728	0.418920446	0.005088385	0.052495930	0.016179756
2020-07-12T13:35:00	0.1705	13.143	174.0	0.379404230	0.416974295	0.005053621	0.052137280	0.016069216
2020-07-12T13:40:00	0.1712	13.164	174.0	0.381254036	0.419847742	0.005104973	0.052667063	0.016232500
2020-07-12T13:45:00	0.1711	13.181	176.0	0.380847272	0.419215095	0.005093654	0.052550291	0.016196510
2020-07-12T13:50:00	0.1706	13.206	176.0	0.379593933	0.417268552	0.005058873	0.052191464	0.016085916
2020-07-12T13:55:00	0.1707	13.231	177.0	0.379751233	0.417512621	0.005063231	0.052236417	0.016099771
2020-07-12T14:00:00	0.1700	13.245	172.0	0.377931983	0.414693906	0.005012973	0.051717921	0.015939966
2020-07-12T14:05:00	0.1699	13.249	172.0	0.377524313	0.414063486	0.005001752	0.051602158	0.015904286
2020-07-12T14:10:00	0.1688	13.263	174.0	0.374570013	0.409508270	0.004920886	0.050767876	0.015647152
2020-07-12T14:15:00	0.1686	13.288	172.0	0.373878123	0.408444826	0.004902061	0.050573663	0.015587294
2020-07-12T14:20:00	0.1686	13.312	176.0	0.373752710	0.408252202	0.004898654	0.050538508	0.015576459
2020-07-12T14:25:00	0.1686	13.330	179.0	0.373910630	0.408494761	0.004902945	0.050582778	0.015590103
2020-07-12T14:30:00	0.1686	13.348	177.0	0.373785220	0.408302130	0.004899537	0.050547619	0.015579267
2020-07-12T14:35:00	0.1688	13.360	177.0	0.374509647	0.409415436	0.004919242	0.050750913	0.015641924
2020-07-12T14:40:00	0.1690	13.368	177.0	0.374950629	0.410093829	0.004931260	0.050874904	0.015680140
2020-07-12T14:45:00	0.1696	13.377	177.0	0.376805969	0.412953726	0.004982017	0.051398552	0.015841533
2020-07-12T14:50:00	0.1690	13.387	177.0	0.374983113	0.410143821	0.004932146	0.050884045	0.015682957
2020-07-12T14:55:00	0.1679	13.388	177.0	0.372023733	0.405600911	0.004851820	0.050055330	0.015427539
2020-07-12T15:00:00	0.1677	13.392	178.0	0.371330648	0.404540345	0.004833121	0.049862420	0.015368082
2020-07-12T15:05:00	0.1677	13.395	177.0	0.371205018	0.404348242	0.004829736	0.049827500	0.015357319
2020-07-12T15:10:00	0.1667	13.401	177.0	0.368522408	0.400256256	0.004757798	0.049085329	0.015128575
2020-07-12T15:15:00	0.1667	13.407	177.0	0.368396537	0.400064727	0.004754439	0.049050669	0.015117893
2020-07-12T15:20:00	0.1667	13.413	177.0	0.368555033	0.400305907	0.004758669	0.049094315	0.015131345
2020-07-12T15:25:00	0.1659	13.427	178.0	0.366152401	0.396657049	0.004694778	0.048435161	0.014928187
2020-07-12T15:30:00	0.1651	13.439	178.0	0.364031060	0.393448139	0.004638794	0.047857584	0.014750172
2020-07-12T15:35:00	0.1648	13.451	178.0	0.363048773	0.391966297	0.004613006	0.047591532	0.014668172
2020-07-12T15:40:00	0.1649	13.459	178.0	0.363493220	0.392636456	0.004624664	0.047711801	0.014705240
2020-07-12T15:45:00	0.1654	13.465	178.0	0.364793034	0.394599387	0.004658857	0.048064572	0.014813968
2020-07-12T15:50:00	0.1653	13.474	179.0	0.364381705	0.393977727	0.004648020	0.047952769	0.014779509
2020-07-12T15:55:00	0.1652	13.480	179.0	0.364255476	0.393787043	0.004644698	0.047918490	0.014768944
2020-07-12T16:00:00	0.1650	13.482	178.0	0.363558695	0.392735227	0.004626382	0.047729534	0.014710706
2020-07-12T16:05:00	0.1650	13.486	178.0	0.363642039	0.392860969	0.004628571	0.047752112	0.014717665
2020-07-12T16:10:00	0.1641	13.486	178.0	0.361155452	0.389117320	0.004563541	0.047081215	0.014510888
2020-07-12T16:15:00	0.1640	13.484	178.0	0.360667251	0.388384238	0.004550838	0.046950157	0.014470494
2020-07-12T16:20:00	0.1630	13.483	178.0	0.357889104	0.384224574	0.004478949	0.046208489	0.014241905
2020-07-12T16:25:00	0.1626	13.485	178.0	0.356826580	0.382639068	0.004451634	0.045926684	0.014155050
2020-07-12T16:30:00	0.1624	13.491	178.0	0.356336905	0.381909374	0.004439079	0.045797155	0.014115128
2020-07-12T16:35:00	0.1624	13.491	178.0	0.356133894	0.381607040	0.004433880	0.045743518	0.014098597
2020-07-12T16:40:00	0.1622	13.492	178.0	0.355643982	0.380877888	0.004421348	0.045614233	0.014058750
2020-07-12T16:45:00	0.1619	13.500	178.0	0.354866873	0.379722589	0.004401514	0.045409604	0.013995681
2020-07-12T16:50:00	0.1613	13.509	178.0	0.352940022	0.376864868	0.004352561	0.044904573	0.013840026
2020-07-12T16:55:00	0.1615	13.515	178.0	0.353598726	0.377840695	0.004369259	0.045076844	0.013893121
2020-07-12T17:00:00	0.1613	13.509	178.0	0.353107941	0.377113521	0.004356814	0.044948452	0.013853549
2020-07-12T17:05:00	0.1613	13.500	178.0	0.353191893	0.377237864	0.004358942	0.044970399	0.013860314
2020-07-12T17:10:00	0.1613	13.494	178.0	0.352988434	0.376936548	0.004353787	0.044917221	0.013843924
2020-07-12T17:15:00	0.1612	13.490	179.0	0.352784945	0.376635296	0.004348636	0.044864072	0.013827543
2020-07-12T17:20:00	0.1612	13.488	179.0	0.352868916	0.376759597	0.004350761	0.044886000	0.013834301
2020-07-12T17:25:00	0.1613	13.481	178.0	0.352952882	0.376883908	0.004352887	0.044907933	0.013841061
2020-07-12T17:30:00	0.1615	13.470	178.0	0.353611580	0.377859749	0.004369586	0.045080210	0.013894158
2020-07-12T17:35:00	0.1612	13.460	178.0	0.352833361	0.376706964	0.004349861	0.044876715	0.013831439
2020-07-12T17:40:00	0.1611	13.454	178.0	0.352342312	0.375980387	0.004337442	0.044748591	0.013791950
2020-07-12T17:45:00	0.1603	13.448	178.0	0.350124042	0.372706032	0.004281603	0.044172504	0.013614395
2020-07-12T17:50:00	0.1604	13.444	178.0	0.350496142	0.373254381	0.004290939	0.044268831	0.013644084
2020-07-12T17:55:00	0.1599	13.440	178.0	0.349139891	0.371257478	0.004256966	0.043918332	0.013536056
2020-07-12T18:00:00	0.1596	13.431	178.0	0.348070802	0.369686782	0.004230298	0.043643204	0.013451259
2020-07-12T18:05:00	0.1601	13.421	178.0	0.349596416	0.371929113	0.004268384	0.044036129	0.013572363
2020-07-12T18:10:00	0.1597	13.413	179.0	0.348527673	0.370357647	0.004241682	0.043760654	0.013487459
2020-07-12T18:15:00	0.1594	13.405	179.0	0.347458119	0.368787984	0.004215060	0.043485992	0.013402805
2020-07-12T18:20:00	0.1598	13.396	178.0	0.348696117	0.370605125	0.004245884	0.043804004	0.013500819
2020-07-12T18:25:00	0.1600	13.389	179.0	0.349356797	0.371576520	0.004262389	0.043974277	0.013553299
2020-07-12T18:30:00	0.1598	13.380	172.0	0.348864540	0.370852649	0.004250088	0.043847373	0.013514186
2020-07-12T18:35:00	0.1601	13.371	174.0	0.349525142	0.371824219	0.004266600	0.044017726	0.013566691
2020-07-12T18:40:00	0.1596	13.359	177.0	0.348167957	0.369829398	0.004232717	0.043668165	0.013458953
2020-07-12T18:45:00	0.1599	13.345	179.0	0.349117138	0.371224018	0.004256397	0.043912466	0.013534248
2020-07-12T18:50:00	0.1602	13.330	177.0	0.349777621	0.372195852	0.004272921	0.044082937	0.013586789
2020-07-12T18:55:00	0.1602	13.312	177.0	0.349861771	0.372319752	0.004275029	0.044104684	0.013593492
2020-07-12T19:00:00	0.1606	13.295	177.0	0.351097662	0.374141587	0.004306058	0.044424811	0.013692158
2020-07-12T19:05:00	0.1607	13.273	177.0	0.351469507	0.374690510	0.004315420	0.044521396	0.013721927
2020-07-12T19:10:00	0.1612	13.248	177.0	0.352703997	0.376515489	0.004346587	0.044842940	0.013821030
2020-07-12T19:15:00	0.1612	13.221	181.0	0.352787973	0.376639779	0.004348712	0.044864863	0.013827786
2020-07-12T19:20:00	0.1617	13.192	178.0	0.354308516	0.378893482	0.004387295	0.045262914	0.013950470
2020-07-12T19:25:00	0.1627	13.163	179.0	0.356974433	0.382859518	0.004455429	0.045965837	0.014167117
2020-07-12T19:30:00	0.1635	13.134	180.0	0.359349264	0.386408299	0.004516648	0.046597426	0.014361779
2020-07-12T19:35:00	0.1640	13.105	181.0	0.360862856	0.388677882	0.004555925	0.047002641	0.014486670
2020-07-12T19:40:00	0.1643	13.075	174.0	0.361517926	0.389662019	0.004572987	0.047178661	0.014540922
2020-07-12T19:45:00	0.1645	13.045	171.0	0.362172700	0.390646845	0.004590078	0.047354993	0.014595269
2020-07-12T19:50:00	0.1648	13.015	173.0	0.363112620	0.392062537	0.004614680	0.047608798	0.014673494
2020-07-12T19:55:00	0.1649	12.988	177.0	0.363481359	0.392618564	0.004624352	0.047708589	0.014704250
2020-07-12T20:00:00	0.1649	12.963	177.0	0.363279353	0.392313911	0.004619052	0.047653905	0.014687396
2020-07-12T20:05:00	0.1646	12.939	177.0	0.362506363	0.391149134	0.004598803	0.047444999	0.014623009
2020-07-12T20:10:00	0.1642	12.915	176.0	0.361447245	0.389555776	0.004571144	0.047159650	0.014535062
2020-07-12T20:15:00	0.1639	12.889	176.0	0.360387349	0.387964222	0.004543564	0.046875115	0.014447366
2020-07-12T20:20:00	0.1636	12.865	177.0	0.359612809	0.386803040	0.004523473	0.046667832	0.014383479
2020-07-12T20:25:00	0.1644	12.842	178.0	0.361983291	0.390361842	0.004585130	0.047303944	0.014579535
2020-07-12T20:30:00	0.1640	12.814	176.0	0.360923789	0.388769375	0.004557511	0.047018997	0.014491712
2020-07-12T20:35:00	0.1635	12.789	176.0	0.359291279	0.386321472	0.004515147	0.046581944	0.014357008
2020-07-12T20:40:00	0.1630	12.765	183.0	0.357943382	0.384305648	0.004480347	0.046222912	0.014246350
2020-07-12T20:45:00	0.1629	12.740	182.0	0.357740598	0.384002794	0.004475125	0.046169040	0.014229747
2020-07-12T20:50:00	0.1629	12.715	181.0	0.357537786	0.383700005	0.004469906	0.046115198	0.014213152
2020-07-12T20:55:00	0.1627	12.690	176.0	0.357048354	0.382969755	0.004457327	0.045985419	0.014173153
2020-07-12T21:00:00	0.1631	12.667	178.0	0.358278026	0.384805672	0.004488972	0.046311896	0.014273776
2020-07-12T21:05:00	0.1632	12.639	184.0	0.358648003	0.385358833	0.004498519	0.046410393	0.014304134
2020-07-12T21:10:00	0.1630	12.610	182.0	0.357872525	0.384199811	0.004478522	0.046204084	0.014240547
2020-07-12T21:15:00	0.1625	12.582	185.0	0.356523293	0.382187047	0.004443855	0.045846433	0.014130316
2020-07-12T21:20:00	0.1621	12.552	178.0	0.355459754	0.380603859	0.004416641	0.045565673	0.014043783
2020-07-12T21:25:00	0.1621	12.520	185.0	0.355256618	0.380301809	0.004411455	0.045512164	0.014027291
2020-07-12T21:30:00	0.1620	12.488	171.0	0.355053453	0.379999825	0.004406271	0.045458685	0.014010808
2020-07-12T21:35:00	0.1618	12.461	172.0	0.354563170	0.379271516	0.004393776	0.045329781	0.013971079
2020-07-12T21:40:00	0.1621	12.430	172.0	0.355221123	0.380249042	0.004410549	0.045502818	0.014024411
2020-07-12T21:45:00	0.1622	12.400	176.0	0.355591891	0.380800396	0.004420017	0.045600500	0.014054517
2020-07-12T21:50:00	0.1623	12.369	176.0	0.355962562	0.381351970	0.004429495	0.045698280	0.014084654
2020-07-12T21:55:00	0.1621	12.339	175.0	0.355472591	0.380622951	0.004416969	0.045569056	0.014044826
2020-07-12T22:00:00	0.1626	12.311	177.0	0.356703617	0.382455774	0.004448479	0.045894137	0.014145019
2020-07-12T22:05:00	0.1629	12.280	184.0	0.357520294	0.383673896	0.004469456	0.046110556	0.014211721
2020-07-12T22:10:00	0.1632	12.247	178.0	0.358622839	0.385321199	0.004497869	0.046403689	0.014302068
2020-07-12T22:15:00	0.1631	12.216	185.0	0.358293400	0.384828651	0.004489368	0.046315986	0.014275037
2020-07-12T22:20:00	0.1635	12.189	185.0	0.359395352	0.386477317	0.004517841	0.046609734	0.014365573
2020-07-12T22:25:00	0.1639	12.162	183.0	0.360496460	0.388127927	0.004546399	0.046904359	0.014456379
2020-07-12T22:30:00	0.1640	12.133	176.0	0.360739331	0.388492433	0.004552712	0.046969493	0.014476454
2020-07-12T22:35:00	0.1640	12.105	176.0	0.360696297	0.388427836	0.004551593	0.046957948	0.014472896
2020-07-12T22:40:00	0.1641	12.076	176.0	0.361224950	0.389221729	0.004565351	0.047099889	0.014516643
2020-07-12T22:45:00	0.1641	12.046	177.0	0.361181931	0.389157098	0.004564231	0.047088329	0.014513080
2020-07-12T22:50:00	0.1634	12.017	183.0	0.359136889	0.386090334	0.004511153	0.046540737	0.014344307
2020-07-12T22:55:00	0.1634	11.990	182.0	0.359093807	0.386025847	0.004510039	0.046529242	0.014340764
2020-07-12T23:00:00	0.1633	11.961	177.0	0.358764477	0.385533051	0.004501527	0.046441426	0.014313699
2020-07-12T23:05:00	0.1639	11.934	183.0	0.360438068	0.388040314	0.004544882	0.046888707	0.014451555
2020-07-12T23:10:00	0.1640	11.906	174.0	0.360680949	0.388404797	0.004551194	0.046953831	0.014471627
2020-07-12T23:15:00	0.1644	11.879	179.0	0.362066724	0.390487373	0.004587310	0.047326427	0.014586464
2020-07-12T23:20:00	0.1645	11.851	173.0	0.362309331	0.390852491	0.004593650	0.047391837	0.014606624
2020-07-12T23:25:00	0.1647	11.822	176.0	0.362837395	0.391647754	0.004607468	0.047534396	0.014650562
2020-07-12T23:30:00	0.1647	11.793	184.0	0.362794423	0.391583012	0.004606342	0.047522786	0.014646984
2020-07-12T23:35:00	0.1651	11.766	183.0	0.363892944	0.393239627	0.004635163	0.047820122	0.014738626
2020-07-12T23:40:00	0.1652	11.737	184.0	0.364135245	0.393605458	0.004641534	0.047885854	0.014758885
2020-07-12T23:45:00	0.1650	11.708	184.0	0.363521757	0.392679503	0.004625413	0.047719529	0.014707622
2020-07-12T23:50:00	0.1649	11.680	182.0	0.363478806	0.392614713	0.004624285	0.047707898	0.014704037
2020-07-12T23:55:00	0.1655	11.652	182.0	0.365146949	0.395134632	0.004668194	0.048160892	0.014843655
2020-07-13T00:00:00	0.1658	11.627	179.0	0.365958864	0.396363794	0.004689654	0.048382295	0.014911893
2020-07-13T00:05:00	0.1660	11.602	178.0	0.366485602	0.397162161	0.004703608	0.048526256	0.014956264
2020-07-13T00:10:00	0.1659	11.576	177.0	0.366157949	0.396665458	0.004694925	0.048436677	0.014928654
2020-07-13T00:15:00	0.1659	11.551	175.0	0.366115076	0.396600485	0.004693790	0.048424963	0.014925044
2020-07-13T00:20:00	0.1663	11.525	175.0	0.367495674	0.398695174	0.004730435	0.048803029	0.015041568
2020-07-13T00:25:00	0.1662	11.500	175.0	0.367168248	0.398197935	0.004721729	0.048713208	0.015013884
2020-07-13T00:30:00	0.1657	11.473	176.0	0.365701571	0.395974087	0.004682847	0.048312068	0.014890249
2020-07-13T00:35:00	0.1659	11.447	174.0	0.366228402	0.396772236	0.004696791	0.048455930	0.014934588
2020-07-13T00:40:00	0.1658	11.423	178.0	0.365900691	0.396275668	0.004688114	0.048366412	0.014906998
2020-07-13T00:45:00	0.1658	11.397	183.0	0.365857811	0.396210714	0.004686980	0.048354706	0.014903390
2020-07-13T00:50:00	0.1656	11.373	182.0	0.365245050	0.395283054	0.004670783	0.048187612	0.014851890
2020-07-13T00:55:00	0.1663	11.347	176.0	0.367480397	0.398671968	0.004730029	0.048798836	0.015040275
2020-07-13T01:00:00	0.1665	11.323	176.0	0.368006586	0.399471631	0.004744040	0.048943383	0.015084826
2020-07-13T01:05:00	0.1665	11.298	177.0	0.367963767	0.399406531	0.004742899	0.048931611	0.015081198
2020-07-13T01:10:00	0.1667	11.271	176.0	0.368489781	0.400206607	0.004756927	0.049076344	0.015125806
2020-07-13T01:15:00	0.1668	11.248	181.0	0.368731320	0.400574237	0.004763378	0.049142888	0.015146315
2020-07-13T01:20:00	0.1669	11.223	175.0	0.368972818	0.400941961	0.004769832	0.049209476	0.015166838
2020-07-13T01:25:00	0.1676	11.200	175.0	0.370918614	0.403910454	0.004822025	0.049747946	0.015332800
2020-07-13T01:30:00	0.1676	11.178	178.0	0.371159753	0.404279037	0.004828517	0.049814922	0.015353443
2020-07-13T01:35:00	0.1673	11.157	179.0	0.370265219	0.402912514	0.004804461	0.049566739	0.015276950
2020-07-13T01:40:00	0.1672	11.137	176.0	0.369938413	0.402413805	0.004795690	0.049476253	0.015249062
2020-07-13T01:45:00	0.1675	11.113	177.0	0.370747671	0.403649261	0.004817426	0.049700500	0.015318177
2020-07-13T01:50:00	0.1670	11.091	178.0	0.369284581	0.401416907	0.004778172	0.049295517	0.015193357
2020-07-13T01:55:00	0.1673	11.067	176.0	0.370094200	0.402651502	0.004799870	0.049519375	0.015262352
2020-07-13T02:00:00	0.1667	11.044	174.0	0.368630458	0.400420703	0.004760683	0.049115094	0.015137749
2020-07-13T02:05:00	0.1665	11.017	176.0	0.368018861	0.399490295	0.004744367	0.048946758	0.015085866
2020-07-13T02:10:00	0.1673	10.994	175.0	0.370249971	0.402889239	0.004804052	0.049562515	0.015275648
2020-07-13T02:15:00	0.1671	10.971	179.0	0.369639050	0.401957224	0.004787665	0.049393452	0.015223542
2020-07-13T02:20:00	0.1677	10.951	172.0	0.371300174	0.404493742	0.004832300	0.049853948	0.015365471
2020-07-13T02:25:00	0.1673	10.938	177.0	0.370121708	0.402693479	0.004800608	0.049526991	0.015264700
2020-07-13T02:30:00	0.1673	10.921	175.0	0.370078951	0.402628232	0.004799461	0.049515153	0.015261051
2020-07-13T02:35:00	0.1672	10.900	161.0	0.370036192	0.402562987	0.004798313	0.049503316	0.015257403
2020-07-13T02:40:00	0.1672	10.880	157.0	0.369993433	0.402497746	0.004797166	0.049491480	0.015253755
2020-07-13T02:45:00	0.1672	10.861	170.0	0.369950672	0.402432507	0.004796019	0.049479646	0.015250107
2020-07-13T02:50:00	0.1674	10.842	178.0	0.370475974	0.403234279	0.004810122	0.049625145	0.015294952
2020-07-13T02:55:00	0.1675	10.824	175.0	0.370717185	0.403602687	0.004816607	0.049692042	0.015315570
2020-07-13T03:00:00	0.1677	10.804	170.0	0.371242213	0.404405113	0.004830738	0.049837837	0.015360505
2020-07-13T03:05:00	0.1678	10.786	177.0	0.371483299	0.404773823	0.004837236	0.049904870	0.015381166
2020-07-13T03:10:00	0.1672	10.768	176.0	0.370020942	0.402539718	0.004797904	0.049499094	0.015256102
2020-07-13T03:15:00	0.1672	10.749	176.0	0.369978182	0.402474477	0.004796757	0.049487259	0.015252454
2020-07-13T03:20:00	0.1675	10.728	177.0	0.370787418	0.403709985	0.004818496	0.049711530	0.015321576
2020-07-13T03:25:00	0.1677	10.708	177.0	0.371312421	0.404512472	0.004832630	0.049857353	0.015366520
2020-07-13T03:30:00	0.1685	10.688	172.0	0.373538540	0.407923351	0.004892838	0.050478506	0.015557966
2020-07-13T03:35:00	0.1689	10.669	170.0	0.374629030	0.409599039	0.004922494	0.050784462	0.015652265
2020-07-13T03:40:00	0.1691	10.652	178.0	0.375435719	0.410840676	0.004944501	0.051011505	0.015722241
2020-07-13T03:45:00	0.1693	10.635	174.0	0.375959072	0.411647141	0.004958810	0.051159127	0.015767740
2020-07-13T03:50:00	0.1692	10.619	174.0	0.375633524	0.411145400	0.004949906	0.051067270	0.015739429
2020-07-13T03:55:00	0.1694	10.606	173.0	0.376156808	0.411952034	0.004964223	0.051214969	0.015784951
2020-07-13T04:00:00	0.1690	10.589	174.0	0.374982215	0.410142439	0.004932122	0.050883792	0.015682879
2020-07-13T04:05:00	0.1689	10.574	177.0	0.374811742	0.409880113	0.004927473	0.050835834	0.015668098
2020-07-13T04:10:00	0.1693	10.557	172.0	0.375773521	0.411361130	0.004953734	0.051106760	0.015751600
2020-07-13T04:15:00	0.1697	10.542	169.0	0.377017426	0.413280259	0.004987822	0.051458437	0.015859990
2020-07-13T04:20:00	0.1698	10.528	175.0	0.377412590	0.413890795	0.004998680	0.051570460	0.015894517
2020-07-13T04:25:00	0.1704	10.514	176.0	0.378937511	0.416250756	0.005040714	0.052004119	0.016028175
2020-07-13T04:30:00	0.1708	10.500	158.0	0.380178778	0.418176342	0.005075085	0.052358720	0.016137466
2020-07-13T04:35:00	0.1706	10.488	156.0	0.379444481	0.417036722	0.005054735	0.052148774	0.016072759
2020-07-13T04:40:00	0.1703	10.478	157.0	0.378709822	0.415897990	0.005034425	0.051939231	0.016008175
2020-07-13T04:45:00	0.1703	10.467	158.0	0.378822184	0.416072058	0.005037528	0.051971246	0.016018043
2020-07-13T04:50:00	0.1712	10.456	159.0	0.381191705	0.419750768	0.005103237	0.052649159	0.016226982
2020-07-13T04:55:00	0.1709	10.448	169.0	0.380457905	0.418609922	0.005082834	0.052438658	0.016162104
2020-07-13T05:00:00	0.1717	10.439	169.0	0.382543188	0.421855720	0.005140944	0.053038175	0.016346881
2020-07-13T05:05:00	0.1717	10.433	170.0	0.382655263	0.422030498	0.005144079	0.053070512	0.016356847
2020-07-13T05:10:00	0.1727	10.428	165.0	0.385581075	0.426605212	0.005226311	0.053918890	0.016618326
2020-07-13T05:15:00	0.1726	10.426	167.0	0.385130636	0.425899417	0.005213600	0.053787753	0.016577908
2020-07-13T05:20:00	0.1732	10.426	164.0	0.386928630	0.428719972	0.005264449	0.054312351	0.016739594
2020-07-13T05:25:00	0.1732	10.427	165.0	0.386759512	0.428454300	0.005259654	0.054262878	0.016724346
2020-07-13T05:30:00	0.1737	10.430	167.0	0.388274988	0.430837749	0.005302720	0.054707181	0.016861284
2020-07-13T05:35:00	0.1736	10.432	166.0	0.388106019	0.430571698	0.005297908	0.054657535	0.016845983
2020-07-13T05:40:00	0.1735	10.436	163.0	0.387656331	0.429864013	0.005285113	0.054525542	0.016805301
2020-07-13T05:45:00	0.1738	10.442	169.0	0.388609913	0.431365336	0.005312266	0.054805668	0.016891639
2020-07-13T05:50:00	0.1740	10.450	170.0	0.389002044	0.431983420	0.005323456	0.054921111	0.016927220
2020-07-13T05:55:00	0.1743	10.459	169.0	0.389954783	0.433486880	0.005350702	0.055202207	0.017013856
2020-07-13T06:00:00	0.1747	10.469	170.0	0.391187031	0.435435058	0.005386066	0.055567049	0.017126304
2020-07-13T06:05:00	0.1749	10.481	171.0	0.391578499	0.436054827	0.005397330	0.055683258	0.017162121
2020-07-13T06:10:00	0.1752	10.493	171.0	0.392529633	0.437562385	0.005424757	0.055966214	0.017249331
2020-07-13T06:15:00	0.1752	10.509	171.0	0.392361135	0.437295136	0.005419892	0.055916024	0.017233862
2020-07-13T06:20:00	0.1752	10.525	165.0	0.392472487	0.437471738	0.005423106	0.055949188	0.017244083
2020-07-13T06:25:00	0.1751	10.543	170.0	0.392303982	0.437204505	0.005418242	0.055899006	0.017228617
2020-07-13T06:30:00	0.1760	10.563	170.0	0.394652527	0.440936043	0.005486274	0.056600878	0.017444940
2020-07-13T06:35:00	0.1765	10.584	167.0	0.396160202	0.443339438	0.005530218	0.057054238	0.017584670
2020-07-13T06:40:00	0.1770	10.608	169.0	0.397387482	0.445300412	0.005566145	0.057424893	0.017698910
2020-07-13T06:45:00	0.1774	10.633	165.0	0.398613788	0.447263923	0.005602184	0.057796702	0.017813505
2020-07-13T06:50:00	0.1773	10.661	171.0	0.398445954	0.446994953	0.005597244	0.057745730	0.017797795
2020-07-13T06:55:00	0.1770	10.689	169.0	0.397441508	0.445386831	0.005567730	0.057441243	0.017703949
2020-07-13T07:00:00	0.1772	10.720	169.0	0.398110232	0.446457155	0.005587369	0.057643852	0.017766395
2020-07-13T07:05:00	0.1772	10.753	169.0	0.397942344	0.446188328	0.005582434	0.057592945	0.017750705
2020-07-13T07:10:00	0.1770	10.789	177.0	0.397495532	0.445473254	0.005569315	0.057457595	0.017708989
2020-07-13T07:15:00	0.1779	10.849	175.0	0.400114675	0.449672655	0.005646484	0.058253735	0.017954367
2020-07-13T07:20:00	0.1775	10.906	175.0	0.398832645	0.447614779	0.005608631	0.057863211	0.017834004
2020-07-13T07:25:00	0.1772	10.994	174.0	0.398107295	0.446452452	0.005587282	0.057642961	0.017766120
2020-07-13T07:30:00	0.1774	11.125	177.0	0.398497007	0.447076763	0.005598746	0.057761233	0.017802573
2020-07-13T07:35:00	0.1771	11.134	176.0	0.397771500	0.445914846	0.005577416	0.057541170	0.017734747
2020-07-13T07:40:00	0.1766	11.178	177.0	0.396487528	0.443862046	0.005539786	0.057152953	0.017615095
2020-07-13T07:45:00	0.1768	11.333	177.0	0.396877648	0.444485292	0.005551203	0.057270741	0.017651399
2020-07-13T07:50:00	0.1772	11.272	177.0	0.398104358	0.446447749	0.005587196	0.057642070	0.017765846
2020-07-13T07:55:00	0.1771	11.458	177.0	0.397657593	0.445732552	0.005574071	0.057506665	0.017724113
2020-07-13T08:00:00	0.1773	11.337	177.0	0.398326224	0.446803121	0.005593721	0.057709385	0.017786593
2020-07-13T08:05:00	0.1771	11.312	174.0	0.397879523	0.446087757	0.005580589	0.057573904	0.017744836
2020-07-13T08:10:00	0.1769	11.335	178.0	0.397153726	0.444926597	0.005559291	0.057354184	0.017677117
2020-07-13T08:15:00	0.1774	11.372	170.0	0.398658963	0.447336335	0.005603515	0.057810427	0.017817735
2020-07-13T08:20:00	0.1779	11.426	177.0	0.399884264	0.449302477	0.005639670	0.058183432	0.017932699
2020-07-13T08:25:00	0.1786	11.446	178.0	0.401943221	0.452615535	0.005700740	0.058813484	0.018126887
2020-07-13T08:30:00	0.1787	11.491	179.0	0.402331973	0.453242371	0.005712315	0.058932905	0.018163694
2020-07-13T08:35:00	0.1788	11.528	173.0	0.402442609	0.453420839	0.005715612	0.058966917	0.018174177
2020-07-13T08:40:00	0.1782	11.570	179.0	0.400884199	0.450910023	0.005669279	0.058488905	0.018026849
2020-07-13T08:45:00	0.1786	11.613	177.0	0.401829620	0.452432438	0.005697360	0.058778615	0.018116140
2020-07-13T08:50:00	0.1782	11.662	168.0	0.400827361	0.450818574	0.005667593	0.058471516	0.018021489
2020-07-13T08:55:00	0.1783	11.717	172.0	0.401216391	0.451444675	0.005679136	0.058590602	0.018058192
2020-07-13T09:00:00	0.1786	11.781	179.0	0.401883492	0.452519262	0.005698963	0.058795149	0.018121236
2020-07-13T09:05:00	0.1785	11.847	176.0	0.401716011	0.452249364	0.005693981	0.058743755	0.018105396
2020-07-13T09:10:00	0.1781	11.976	175.0	0.400435301	0.450188015	0.005655975	0.058351651	0.017984545
2020-07-13T09:15:00	0.1779	12.173	174.0	0.399989207	0.449471060	0.005642773	0.058215446	0.017942566
2020-07-13T09:20:00	0.1780	12.401	174.0	0.400378447	0.450096609	0.005654291	0.058334281	0.017979192
2020-07-13T09:25:00	0.1786	12.281	174.0	0.401880562	0.452514539	0.005698876	0.058794249	0.018120959
2020-07-13T09:30:00	0.1785	12.252	174.0	0.401713081	0.452244643	0.005693894	0.058742856	0.018105119
2020-07-13T09:35:00	0.1789	12.279	174.0	0.402658000	0.453768386	0.005722034	0.059033170	0.018194596
2020-07-13T09:40:00	0.1783	12.317	181.0	0.401099806	0.451257000	0.005675676	0.058554898	0.018047188
2020-07-13T09:45:00	0.1786	12.366	179.0	0.402045096	0.452779761	0.005703772	0.058844765	0.018136528
2020-07-13T09:50:00	0.1784	12.438	178.0	0.401321244	0.451613495	0.005682250	0.058622723	0.018068093
2020-07-13T09:55:00	0.1789	12.509	179.0	0.402822452	0.454033824	0.005726940	0.059083784	0.018210196
2020-07-13T10:00:00	0.1792	12.537	177.0	0.403488868	0.455110227	0.005746847	0.059289157	0.018273494
2020-07-13T10:05:00	0.1793	12.547	176.0	0.403992732	0.455924881	0.005761925	0.059444723	0.018321441
2020-07-13T10:10:00	0.1792	12.571	182.0	0.403663176	0.455391972	0.005752060	0.059342946	0.018290072
2020-07-13T10:15:00	0.1791	12.631	184.0	0.403333550	0.454859248	0.005742203	0.059241254	0.018258730
2020-07-13T10:20:00	0.1791	12.629	179.0	0.403281774	0.454775597	0.005740656	0.059225290	0.018253810
2020-07-13T10:25:00	0.1790	12.665	178.0	0.402952068	0.454243087	0.005730808	0.059123695	0.018222497
2020-07-13T10:30:00	0.1788	12.714	181.0	0.402622293	0.453710760	0.005720969	0.059022183	0.018191210
2020-07-13T10:35:00	0.1784	12.761	179.0	0.401458012	0.451833745	0.005686313	0.058664638	0.018081011
2020-07-13T10:40:00	0.1781	12.795	179.0	0.400571264	0.450406640	0.005660002	0.058393202	0.017997352
2020-07-13T10:45:00	0.1779	12.825	179.0	0.399962522	0.449428190	0.005641984	0.058207304	0.017940057
2020-07-13T10:50:00	0.1776	12.849	182.0	0.399074921	0.448003331	0.005615773	0.057936890	0.017856712
2020-07-13T10:55:00	0.1777	12.879	185.0	0.399580214	0.448814211	0.005630685	0.058090738	0.017904130
2020-07-13T11:00:00	0.1769	12.916	184.0	0.397298192	0.445157606	0.005563527	0.057397878	0.017690583
2020-07-13T11:05:00	0.1772	12.959	183.0	0.398082915	0.446413410	0.005586566	0.057635567	0.017763841
2020-07-13T11:10:00	0.1767	13.000	181.0	0.396636166	0.444099457	0.005544135	0.057197814	0.017628922
2020-07-13T11:15:00	0.1760	13.026	183.0	0.394629263	0.440899007	0.005485598	0.056593900	0.017442790
2020-07-13T11:20:00	0.1761	13.064	182.0	0.394856629	0.441261043	0.005492211	0.056662125	0.017463817
2020-07-13T11:25:00	0.1752	13.081	184.0	0.392567603	0.437622618	0.005425853	0.055977527	0.017252818
2020-07-13T11:30:00	0.1747	13.112	182.0	0.391115654	0.435322099	0.005384014	0.055545877	0.017119779
2020-07-13T11:35:00	0.1742	13.142	180.0	0.389662324	0.433025107	0.005342329	0.055115828	0.016987233
2020-07-13T11:40:00	0.1749	13.176	184.0	0.391571395	0.436043577	0.005397125	0.055681148	0.017161470
2020-07-13T11:45:00	0.1734	13.215	183.0	0.387313180	0.429324358	0.005275363	0.054424948	0.016774298
2020-07-13T11:50:00	0.1738	13.256	180.0	0.388664218	0.431450907	0.005313815	0.054821646	0.016896564
2020-07-13T11:55:00	0.1741	13.297	184.0	0.389453367	0.432695320	0.005336352	0.055054161	0.016968227
2020-07-13T12:00:00	0.1740	13.330	181.0	0.389120692	0.432170518	0.005326844	0.054956070	0.016937994
2020-07-13T12:05:00	0.1741	13.362	182.0	0.389348878	0.432530454	0.005333365	0.055023341	0.016958728
2020-07-13T12:10:00	0.1738	13.399	174.0	0.388455124	0.431121468	0.005307853	0.054760138	0.016877606
2020-07-13T12:15:00	0.1729	13.442	183.0	0.386156468	0.427507594	0.005242575	0.054086684	0.016670041
2020-07-13T12:20:00	0.1728	13.482	180.0	0.385823069	0.426984620	0.005233148	0.053989421	0.016640064
2020-07-13T12:25:00	0.1729	13.516	180.0	0.386051751	0.427343302	0.005239613	0.054056124	0.016660622
2020-07-13T12:30:00	0.1725	13.551	180.0	0.384874833	0.425498842	0.005206390	0.053713366	0.016554981
2020-07-13T12:35:00	0.1719	13.590	181.0	0.383133965	0.422777405	0.005157480	0.053208766	0.016399458
2020-07-13T12:40:00	0.1714	13.628	180.0	0.381672949	0.420499748	0.005116645	0.052787485	0.016269616
2020-07-13T12:45:00	0.1713	13.667	181.0	0.381620435	0.420417989	0.005115181	0.052772380	0.016264960
2020-07-13T12:50:00	0.1707	13.697	187.0	0.379875789	0.417705931	0.005066683	0.052272030	0.016110747
2020-07-13T12:55:00	0.1707	13.731	185.0	0.379823213	0.417624328	0.005065225	0.052256996	0.016106114
2020-07-13T13:00:00	0.1704	13.745	183.0	0.378923791	0.416229495	0.005040335	0.052000208	0.016026969
2020-07-13T13:05:00	0.1708	13.756	183.0	0.380000239	0.417899118	0.005070133	0.052307626	0.016121718
2020-07-13T13:10:00	0.1707	13.773	189.0	0.379947667	0.417817504	0.005068675	0.052292587	0.016117083
2020-07-13T13:15:00	0.1697	13.795	190.0	0.377070646	0.413362460	0.004989283	0.051473515	0.015864637
2020-07-13T13:20:00	0.1697	13.813	187.0	0.377017970	0.413281100	0.004987837	0.051458591	0.015860037
2020-07-13T13:25:00	0.1695	13.830	185.0	0.376399720	0.412326728	0.004970877	0.051283619	0.015806109
2020-07-13T13:30:00	0.1695	13.854	183.0	0.376347021	0.412245426	0.004969433	0.051268721	0.015801518
2020-07-13T13:35:00	0.1700	13.871	182.0	0.377990514	0.414784455	0.005014586	0.051734555	0.015945092
2020-07-13T13:40:00	0.1695	13.900	182.0	0.376524461	0.412519204	0.004974296	0.051318893	0.015816981
2020-07-13T13:45:00	0.1694	13.933	182.0	0.376188912	0.412001546	0.004965102	0.051224039	0.015787746
2020-07-13T13:50:00	0.1686	13.962	182.0	0.373871352	0.408434425	0.004901877	0.050571765	0.015586709
2020-07-13T13:55:00	0.1697	13.983	182.0	0.376931956	0.413148262	0.004985475	0.051434227	0.015852528
2020-07-13T14:00:00	0.1694	13.998	177.0	0.376030787	0.411757707	0.004960773	0.051179376	0.015773981
2020-07-13T14:05:00	0.1695	14.021	188.0	0.376543808	0.412549061	0.004974826	0.051324365	0.015818668
2020-07-13T14:10:00	0.1690	14.035	191.0	0.375076325	0.410287291	0.004934689	0.050910279	0.015691042
2020-07-13T14:15:00	0.1684	14.047	183.0	0.373323986	0.407594033	0.004887016	0.050418439	0.015539452
2020-07-13T14:20:00	0.1683	14.052	186.0	0.372987712	0.407078134	0.004877899	0.050324380	0.015510463
2020-07-13T14:25:00	0.1686	14.058	185.0	0.373785156	0.408302031	0.004899535	0.050547601	0.015579262
2020-07-13T14:30:00	0.1684	14.068	183.0	0.373448986	0.407785879	0.004890407	0.050453429	0.015550237
2020-07-13T14:35:00	0.1683	14.080	178.0	0.373112740	0.407269912	0.004881287	0.050359339	0.015521238
2020-07-13T14:40:00	0.1681	14.090	178.0	0.372492857	0.406319497	0.004864501	0.050186157	0.015467861
2020-07-13T14:45:00	0.1680	14.098	177.0	0.372156393	0.405804055	0.004855404	0.050092305	0.015438935
2020-07-13T14:50:00	0.1674	14.104	184.0	0.370400579	0.403119158	0.004808097	0.049604246	0.015288510
2020-07-13T14:55:00	0.1679	14.112	178.0	0.371766989	0.405207890	0.004844888	0.049983817	0.015405498
2020-07-13T15:00:00	0.1676	14.118	185.0	0.371146539	0.404258836	0.004828161	0.049811250	0.015352311
2020-07-13T15:05:00	0.1679	14.126	179.0	0.371944979	0.405480337	0.004849693	0.050033388	0.015420776
2020-07-13T15:10:00	0.1677	14.135	179.0	0.371324604	0.404531103	0.004832958	0.049860740	0.015367564
2020-07-13T15:15:00	0.1672	14.141	178.0	0.369851922	0.402281866	0.004793371	0.049452322	0.015241686
2020-07-13T15:20:00	0.1676	14.148	185.0	0.370934981	0.403935466	0.004822466	0.049752491	0.015334201
2020-07-13T15:25:00	0.1670	14.154	184.0	0.369461907	0.401687162	0.004782919	0.049344495	0.015208453
2020-07-13T15:30:00	0.1671	14.159	185.0	0.369693116	0.402039666	0.004789113	0.049408400	0.015228149
2020-07-13T15:35:00	0.1663	14.163	185.0	0.367365299	0.398497148	0.004726967	0.048767252	0.015030541
2020-07-13T15:40:00	0.1667	14.164	185.0	0.368450198	0.400146374	0.004755871	0.049065443	0.015122446
2020-07-13T15:45:00	0.1662	14.162	185.0	0.366974621	0.397904020	0.004716585	0.048660137	0.014997527
2020-07-13T15:50:00	0.1667	14.165	185.0	0.368628590	0.400417860	0.004760634	0.049114579	0.015137590
2020-07-13T15:55:00	0.1660	14.165	185.0	0.366583838	0.397311138	0.004706213	0.048553133	0.014964547
2020-07-13T16:00:00	0.1658	14.167	193.0	0.365961187	0.396367313	0.004689715	0.048382930	0.014912089
2020-07-13T16:05:00	0.1660	14.169	187.0	0.366568551	0.397287954	0.004705808	0.048548950	0.014963258
2020-07-13T16:10:00	0.1656	14.170	185.0	0.365466954	0.395618880	0.004676645	0.048248083	0.014870528
2020-07-13T16:15:00	0.1650	14.174	193.0	0.363794073	0.393090395	0.004632565	0.047793315	0.014730364
2020-07-13T16:20:00	0.1645	14.179	183.0	0.362119260	0.390566425	0.004588682	0.047340587	0.014590829
2020-07-13T16:25:00	0.1646	14.183	186.0	0.362442716	0.391053298	0.004597138	0.047427822	0.014617715
2020-07-13T16:30:00	0.1639	14.185	186.0	0.360480429	0.388103873	0.004545982	0.046900062	0.014455055
2020-07-13T16:35:00	0.1636	14.185	179.0	0.359660314	0.386874215	0.004524703	0.046680530	0.014387393
2020-07-13T16:40:00	0.1634	14.181	179.0	0.359125965	0.386073982	0.004510871	0.046537822	0.014343409
2020-07-13T16:45:00	0.1629	14.178	180.0	0.357732227	0.383990293	0.004474910	0.046166817	0.014229061
2020-07-13T16:50:00	0.1622	14.172	179.0	0.355763494	0.381055704	0.004424403	0.045645752	0.014068464
2020-07-13T16:55:00	0.1625	14.167	184.0	0.356375166	0.381966366	0.004440059	0.045807268	0.014118245
2020-07-13T17:00:00	0.1617	14.162	184.0	0.354117382	0.378609854	0.004382434	0.045212764	0.013935013
2020-07-13T17:05:00	0.1616	14.158	186.0	0.353868245	0.378240300	0.004376103	0.045147444	0.013914881
2020-07-13T17:10:00	0.1611	14.152	187.0	0.352469365	0.376168319	0.004340653	0.044781721	0.013802161
2020-07-13T17:15:00	0.1611	14.145	184.0	0.352507501	0.376224737	0.004341618	0.044791668	0.013805227
2020-07-13T17:20:00	0.1608	14.137	184.0	0.351682797	0.375005537	0.004320796	0.044576853	0.013739019
2020-07-13T17:25:00	0.1606	14.125	183.0	0.351145452	0.374212115	0.004307261	0.044437217	0.013695982
2020-07-13T17:30:00	0.1606	14.113	180.0	0.351183624	0.374268453	0.004308222	0.044447128	0.013699037
2020-07-13T17:35:00	0.1606	14.100	184.0	0.350933972	0.373900059	0.004301941	0.044382332	0.013679066
2020-07-13T17:40:00	0.1603	14.087	184.0	0.350108350	0.372682916	0.004281209	0.044168445	0.013613144
2020-07-13T17:45:00	0.1605	14.073	184.0	0.350722459	0.373588074	0.004296624	0.044327479	0.013662160
2020-07-13T17:50:00	0.1602	14.058	184.0	0.349896715	0.372371208	0.004275904	0.044113717	0.013596276
2020-07-13T17:55:00	0.1603	14.042	184.0	0.350222947	0.372851750	0.004284083	0.044198096	0.013622283
2020-07-13T18:00:00	0.1601	14.024	185.0	0.349685047	0.372059570	0.004270603	0.044059020	0.013579418
2020-07-13T18:05:00	0.1597	14.008	188.0	0.348570390	0.370420400	0.004242748	0.043771645	0.013490846
2020-07-13T18:10:00	0.1600	13.990	186.0	0.349185168	0.371324065	0.004258097	0.043930006	0.013539655
2020-07-13T18:15:00	0.1601	13.971	181.0	0.349511565	0.371804240	0.004266260	0.044014221	0.013565610
2020-07-13T18:20:00	0.1604	13.952	185.0	0.350413922	0.373133185	0.004288875	0.044247536	0.013637520
2020-07-13T18:25:00	0.1602	13.933	186.0	0.349876094	0.372340843	0.004275388	0.044108386	0.013594633
2020-07-13T18:30:00	0.1602	13.914	184.0	0.349914301	0.372397105	0.004276345	0.044118263	0.013597677
2020-07-13T18:35:00	0.1605	13.894	184.0	0.350816400	0.373726624	0.004298985	0.044351837	0.013669667
2020-07-13T18:40:00	0.1604	13.874	186.0	0.350566683	0.373358375	0.004292711	0.044287106	0.013649716
2020-07-13T18:45:00	0.1610	13.854	184.0	0.352331336	0.375964153	0.004337165	0.044745730	0.013791069
2020-07-13T18:50:00	0.1613	13.832	186.0	0.352944482	0.376871472	0.004352674	0.044905738	0.013840385
2020-07-13T18:55:00	0.1614	13.811	185.0	0.353270014	0.377353587	0.004360922	0.044990827	0.013866610
2020-07-13T19:00:00	0.1616	13.789	187.0	0.353882756	0.378261820	0.004376471	0.045151247	0.013916053
2020-07-13T19:05:00	0.1618	13.767	162.0	0.354495234	0.379170649	0.004392047	0.045311937	0.013965579
2020-07-13T19:10:00	0.1622	13.744	181.0	0.355681351	0.380933483	0.004422303	0.045624087	0.014061787
2020-07-13T19:15:00	0.1628	13.722	186.0	0.357439679	0.383553576	0.004467383	0.046089167	0.014205129
2020-07-13T19:20:00	0.1633	13.696	186.0	0.358909634	0.385750223	0.004505278	0.046480120	0.014325624
2020-07-13T19:25:00	0.1634	13.672	182.0	0.358947599	0.385807032	0.004506259	0.046490243	0.014328744
2020-07-13T19:30:00	0.1638	13.646	187.0	0.360130036	0.387578285	0.004536884	0.046806192	0.014426123
2020-07-13T19:35:00	0.1639	13.620	184.0	0.360453937	0.388064124	0.004545294	0.046892961	0.014452866
2020-07-13T19:40:00	0.1643	13.594	185.0	0.361635139	0.389838231	0.004576044	0.047210198	0.014550642
2020-07-13T19:45:00	0.1649	13.567	184.0	0.363386209	0.392475052	0.004621855	0.047682827	0.014696310
2020-07-13T19:50:00	0.1656	13.542	184.0	0.365420155	0.395548045	0.004675408	0.048235326	0.014866596
2020-07-13T19:55:00	0.1650	13.516	183.0	0.363747220	0.393019686	0.004631334	0.047780615	0.014726450
2020-07-13T20:00:00	0.1650	13.490	182.0	0.363785058	0.393076789	0.004632328	0.047790871	0.014729611
2020-07-13T20:05:00	0.1653	13.464	178.0	0.364393332	0.393995294	0.004648326	0.047955927	0.014780483
2020-07-13T20:10:00	0.1652	13.437	178.0	0.364145970	0.393621654	0.004641816	0.047888765	0.014759782
2020-07-13T20:15:00	0.1659	13.413	177.0	0.366178853	0.396697138	0.004695479	0.048442389	0.014930415
2020-07-13T20:20:00	0.1658	13.386	188.0	0.365931794	0.396322785	0.004688938	0.048374904	0.014909615
2020-07-13T20:25:00	0.1654	13.361	183.0	0.364829715	0.394654845	0.004659824	0.048074549	0.014817043
2020-07-13T20:30:00	0.1652	13.335	184.0	0.364297274	0.393850179	0.004645798	0.047929839	0.014772442
2020-07-13T20:35:00	0.1650	13.308	186.0	0.363764637	0.393045969	0.004631791	0.047785336	0.014727905
2020-07-13T20:40:00	0.1646	13.282	183.0	0.362375378	0.390951917	0.004595377	0.047409653	0.014612116
2020-07-13T20:45:00	0.1646	13.256	184.0	0.362413252	0.391008937	0.004596367	0.047419872	0.014615265
2020-07-13T20:50:00	0.1649	13.229	182.0	0.363307506	0.392356364	0.004619790	0.047661524	0.014689745
2020-07-13T20:55:00	0.1648	13.201	184.0	0.363059958	0.391983157	0.004613299	0.047594557	0.014669105
2020-07-13T21:00:00	0.1648	13.174	185.0	0.363097814	0.392040218	0.004614291	0.047604794	0.014672260
2020-07-13T21:05:00	0.1647	13.149	182.0	0.362850231	0.391667095	0.004607804	0.047537864	0.014651631
2020-07-13T21:10:00	0.1647	13.121	184.0	0.362888092	0.391724143	0.004608796	0.047548096	0.014654785
2020-07-13T21:15:00	0.1647	13.095	183.0	0.362925952	0.391781194	0.004609788	0.047558328	0.014657939
2020-07-13T21:20:00	0.1643	13.066	185.0	0.361535888	0.389689018	0.004573455	0.047183493	0.014542411
2020-07-13T21:25:00	0.1640	13.039	178.0	0.360716373	0.388457971	0.004552115	0.046963334	0.014474556
2020-07-13T21:30:00	0.1639	13.012	183.0	0.360468381	0.388085796	0.004545669	0.046896833	0.014454059
2020-07-13T21:35:00	0.1634	12.989	185.0	0.359075945	0.385999112	0.004509577	0.046524476	0.014339295
2020-07-13T21:40:00	0.1630	12.965	184.0	0.357968623	0.384343352	0.004480997	0.046229620	0.014248418
2020-07-13T21:45:00	0.1631	12.941	183.0	0.358293011	0.384828069	0.004489358	0.046315883	0.014275005
2020-07-13T21:50:00	0.1630	12.919	176.0	0.358044601	0.384456858	0.004482955	0.046249816	0.014254643
2020-07-13T21:55:00	0.1627	12.898	176.0	0.356936481	0.382802925	0.004454454	0.045955785	0.014164019
2020-07-13T22:00:00	0.1622	12.880	180.0	0.355540611	0.380724118	0.004418707	0.045586982	0.014050351
2020-07-13T22:05:00	0.1635	12.875	192.0	0.359465746	0.386582744	0.004519664	0.046628536	0.014371368
2020-07-13T22:10:00	0.1639	12.851	192.0	0.360523761	0.388168893	0.004547108	0.046911678	0.014458635
2020-07-13T22:15:00	0.1641	12.833	192.0	0.361009453	0.388898021	0.004559740	0.047041998	0.014498801
2020-07-13T22:20:00	0.1640	12.816	193.0	0.360923400	0.388768792	0.004557501	0.047018893	0.014491679
2020-07-13T22:25:00	0.1638	12.797	193.0	0.360265500	0.387781442	0.004540400	0.046842470	0.014437304
2020-07-13T22:30:00	0.1637	12.780	193.0	0.359893380	0.387223486	0.004530744	0.046742856	0.014406602
2020-07-13T22:35:00	0.1635	12.765	192.0	0.359235009	0.386237224	0.004513691	0.046566923	0.014352378
2020-07-13T22:40:00	0.1632	12.751	192.0	0.358576337	0.385251656	0.004496669	0.046391304	0.014298250
2020-07-13T22:45:00	0.1628	12.737	192.0	0.357344357	0.383411327	0.004464932	0.046063882	0.014197336
2020-07-13T22:50:00	0.1625	12.722	192.0	0.356398095	0.382000523	0.004440646	0.045813329	0.014120113
2020-07-13T22:55:00	0.1630	12.707	192.0	0.358031333	0.384437035	0.004482613	0.046246289	0.014253555
2020-07-13T23:00:00	0.1632	12.694	192.0	0.358517867	0.385164222	0.004495160	0.046375733	0.014293451
2020-07-13T23:05:00	0.1631	12.682	196.0	0.358145294	0.384607308	0.004485550	0.046276589	0.014262894
2020-07-13T23:10:00	0.1628	12.669	192.0	0.357486121	0.383622889	0.004468577	0.046101488	0.014208926
2020-07-13T23:15:00	0.1628	12.656	192.0	0.357399857	0.383494146	0.004466359	0.046078603	0.014201873
2020-07-13T23:20:00	0.1629	12.642	192.0	0.357600125	0.383793063	0.004471510	0.046131744	0.014218252
2020-07-13T23:25:00	0.1629	12.628	192.0	0.357513868	0.383664305	0.004469291	0.046108851	0.014211196
2020-07-13T23:30:00	0.1632	12.613	192.0	0.358573321	0.385247146	0.004496591	0.046390500	0.014298003
2020-07-13T23:35:00	0.1632	12.598	191.0	0.358487123	0.385118253	0.004494366	0.046367547	0.014290928
2020-07-13T23:40:00	0.1627	12.583	191.0	0.356968460	0.382850610	0.004455275	0.045964254	0.014166630
2020-07-13T23:45:00	0.1627	12.570	192.0	0.357168788	0.383149389	0.004460420	0.046017334	0.014182989
2020-07-13T23:50:00	0.1623	12.555	191.0	0.355935597	0.381311832	0.004428805	0.045691163	0.014082460
2020-07-13T23:55:00	0.1619	12.539	191.0	0.354701340	0.379476702	0.004397295	0.045366086	0.013982268
2020-07-14T00:00:00	0.1622	12.523	191.0	0.355762877	0.381054785	0.004424387	0.045645589	0.014068414
2020-07-14T00:05:00	0.1623	12.507	191.0	0.355963374	0.381353179	0.004429515	0.045698495	0.014084720
2020-07-14T00:10:00	0.1619	12.492	191.0	0.354729142	0.379517994	0.004398004	0.045373394	0.013984521
2020-07-14T00:15:00	0.1620	12.477	191.0	0.354929785	0.379816057	0.004403117	0.045426150	0.014000781
2020-07-14T00:20:00	0.1625	12.460	191.0	0.356564698	0.382248744	0.004444916	0.045857384	0.014133691
2020-07-14T00:25:00	0.1625	12.444	191.0	0.356478379	0.382120128	0.004442704	0.045834555	0.014126655
2020-07-14T00:30:00	0.1623	12.427	191.0	0.355818438	0.381137465	0.004425808	0.045660247	0.014072931
2020-07-14T00:35:00	0.1619	12.412	191.0	0.354871165	0.379728965	0.004401623	0.045410733	0.013996029
2020-07-14T00:40:00	0.1615	12.396	191.0	0.353635986	0.377895927	0.004370205	0.045086601	0.013896128
2020-07-14T00:45:00	0.1614	12.379	191.0	0.353262137	0.377341918	0.004360722	0.044988767	0.013865975
2020-07-14T00:50:00	0.1611	12.363	191.0	0.352600705	0.376362637	0.004343974	0.044815984	0.013812721
2020-07-14T00:55:00	0.1610	12.347	191.0	0.352226584	0.375809242	0.004334518	0.044718427	0.013782654
2020-07-14T01:00:00	0.1607	12.331	191.0	0.351276915	0.374406157	0.004310570	0.044471356	0.013706504
2020-07-14T01:05:00	0.1606	12.316	191.0	0.351190274	0.374278268	0.004308389	0.044448855	0.013699569
2020-07-14T01:10:00	0.1611	12.299	191.0	0.352541989	0.376275761	0.004342490	0.044800664	0.013808000
2020-07-14T01:15:00	0.1611	12.282	191.0	0.352455426	0.376147698	0.004340301	0.044778086	0.013801041
2020-07-14T01:20:00	0.1612	12.267	191.0	0.352656390	0.376445036	0.004345383	0.044830515	0.013817200
2020-07-14T01:25:00	0.1609	12.252	191.0	0.351994675	0.375466391	0.004328663	0.044658018	0.013764035
2020-07-14T01:30:00	0.1605	12.235	191.0	0.350756991	0.373639001	0.004297492	0.044336432	0.013664919
2020-07-14T01:35:00	0.1602	12.219	190.0	0.349806335	0.372238127	0.004273640	0.044090357	0.013589076
2020-07-14T01:40:00	0.1604	12.204	191.0	0.350583640	0.373383377	0.004293137	0.044291500	0.013651070
2020-07-14T01:45:00	0.1611	12.191	191.0	0.352511116	0.376230085	0.004341709	0.044792611	0.013805518
2020-07-14T01:50:00	0.1602	12.175	191.0	0.349834233	0.372279203	0.004274339	0.044097567	0.013591298
2020-07-14T01:55:00	0.1601	12.161	190.0	0.349747503	0.372151512	0.004272167	0.044075155	0.013584391
2020-07-14T02:00:00	0.1606	12.148	191.0	0.351100596	0.374145917	0.004306132	0.044425573	0.013692393
2020-07-14T02:05:00	0.1604	12.135	190.0	0.350438154	0.373168904	0.004289484	0.044253811	0.013639454
2020-07-14T02:10:00	0.1602	12.122	190.0	0.349775402	0.372192585	0.004272865	0.044082364	0.013586613
2020-07-14T02:15:00	0.1602	12.108	191.0	0.349976747	0.372489069	0.004277910	0.044134408	0.013602653
2020-07-14T02:20:00	0.1608	12.094	190.0	0.351617363	0.374908879	0.004319146	0.044559836	0.013733774
2020-07-14T02:25:00	0.1604	12.081	190.0	0.350379349	0.373082229	0.004288008	0.044238583	0.013634761
2020-07-14T02:30:00	0.1606	12.069	190.0	0.351156340	0.374228184	0.004307535	0.044440044	0.013696853
2020-07-14T02:35:00	0.1605	12.056	190.0	0.350781837	0.373675646	0.004298116	0.044342874	0.013666904
2020-07-14T02:40:00	0.1608	12.044	190.0	0.351558607	0.374822095	0.004317665	0.044544558	0.013729065
2020-07-14T02:45:00	0.1608	12.033	190.0	0.351759698	0.375119147	0.004322735	0.044596858	0.013745185
2020-07-14T02:50:00	0.1610	12.021	190.0	0.352248375	0.375841466	0.004335069	0.044724106	0.013784404
2020-07-14T02:55:00	0.1610	12.009	190.0	0.352161794	0.375713443	0.004332882	0.044701545	0.013777450
2020-07-14T03:00:00	0.1605	11.996	190.0	0.350636372	0.373461127	0.004294461	0.044305165	0.013655282
2020-07-14T03:05:00	0.1603	11.985	190.0	0.350261731	0.372908897	0.004285056	0.044208134	0.013625376
2020-07-14T03:10:00	0.1606	11.973	190.0	0.351038787	0.374054707	0.004304577	0.044409530	0.013687448
2020-07-14T03:15:00	0.1607	11.960	190.0	0.351239951	0.374351593	0.004309639	0.044461755	0.013703545
2020-07-14T03:20:00	0.1611	11.947	190.0	0.352591619	0.376349193	0.004343745	0.044813613	0.013811991
2020-07-14T03:25:00	0.1612	11.936	190.0	0.352792564	0.376646574	0.004348828	0.044866062	0.013828156
2020-07-14T03:30:00	0.1614	11.925	190.0	0.353280886	0.377369693	0.004361197	0.044993671	0.013867486
2020-07-14T03:35:00	0.1613	11.914	190.0	0.353194367	0.377241529	0.004359004	0.044971046	0.013860513
2020-07-14T03:40:00	0.1612	11.905	190.0	0.352820403	0.376687782	0.004349533	0.044873331	0.013830396
2020-07-14T03:45:00	0.1611	11.896	190.0	0.352446339	0.376134257	0.004340071	0.044775716	0.013800310
2020-07-14T03:50:00	0.1613	11.884	190.0	0.352934780	0.376857107	0.004352429	0.044903204	0.013839603
2020-07-14T03:55:00	0.1612	11.876	190.0	0.352848241	0.376728991	0.004350238	0.044880600	0.013832637
2020-07-14T04:00:00	0.1617	11.868	189.0	0.354198380	0.378730036	0.004384494	0.045234012	0.013941562
2020-07-14T04:05:00	0.1620	11.860	189.0	0.355090057	0.380054226	0.004407205	0.045468318	0.014013777
2020-07-14T04:10:00	0.1628	11.852	188.0	0.357414624	0.383516184	0.004466739	0.046082520	0.014203080
2020-07-14T04:15:00	0.1626	11.845	188.0	0.356871743	0.382706400	0.004452793	0.045938641	0.014158735
2020-07-14T04:20:00	0.1635	11.838	189.0	0.359479584	0.386603471	0.004520022	0.046632233	0.014372507
2020-07-14T04:25:00	0.1637	11.831	188.0	0.360081995	0.387506249	0.004535637	0.046793331	0.014422159
2020-07-14T04:30:00	0.1644	11.824	189.0	0.361827280	0.390127167	0.004581057	0.047261922	0.014566583
2020-07-14T04:35:00	0.1645	11.818	189.0	0.362143134	0.390602350	0.004589306	0.047347022	0.014592812
2020-07-14T04:40:00	0.1656	11.812	188.0	0.365311544	0.395383671	0.004672539	0.048205727	0.014857473
2020-07-14T04:45:00	0.1665	11.807	188.0	0.367904224	0.399316012	0.004741312	0.048915244	0.015076153
2020-07-14T04:50:00	0.1661	11.803	189.0	0.366795994	0.397632963	0.004711842	0.048611208	0.014982446
2020-07-14T04:55:00	0.1668	11.800	188.0	0.368817555	0.400705528	0.004765682	0.049166659	0.015153642
2020-07-14T05:00:00	0.1671	11.797	188.0	0.369700260	0.402050560	0.004789305	0.049410375	0.015228758
2020-07-14T05:05:00	0.1666	11.795	188.0	0.368309020	0.399931584	0.004752104	0.049026578	0.015110468
2020-07-14T05:10:00	0.1671	11.794	188.0	0.369760373	0.402142234	0.004790916	0.049426999	0.015233881
2020-07-14T05:15:00	0.1673	11.794	189.0	0.370074511	0.402621457	0.004799342	0.049513924	0.015260672
2020-07-14T05:20:00	0.1676	11.795	188.0	0.370956460	0.403968291	0.004823044	0.049758454	0.015336039
2020-07-14T05:25:00	0.1680	11.797	189.0	0.372121566	0.405750720	0.004854463	0.050082597	0.015435943
2020-07-14T05:30:00	0.1683	11.801	188.0	0.373002290	0.407100492	0.004878294	0.050328456	0.015511719
2020-07-14T05:35:00	0.1686	11.804	188.0	0.373882487	0.408451530	0.004902180	0.050574887	0.015587671
2020-07-14T05:40:00	0.1691	11.809	188.0	0.375328359	0.410675330	0.004941569	0.050981254	0.015712918
2020-07-14T05:45:00	0.1693	11.816	189.0	0.375924271	0.411593491	0.004957858	0.051149303	0.015764712
2020-07-14T05:50:00	0.1694	11.825	188.0	0.376237100	0.412075867	0.004966421	0.051237654	0.015791943
2020-07-14T05:55:00	0.1693	11.834	188.0	0.375984131	0.411685774	0.004959496	0.051166202	0.015769920
2020-07-14T06:00:00	0.1699	11.845	188.0	0.377710574	0.414351464	0.005006877	0.051655030	0.015920582
2020-07-14T06:05:00	0.1703	11.858	188.0	0.378587984	0.415709278	0.005031061	0.051904528	0.015997480
2020-07-14T06:10:00	0.1705	11.872	189.0	0.379182592	0.416630624	0.005047490	0.052074019	0.016049718
2020-07-14T06:15:00	0.1707	11.887	190.0	0.379776963	0.417552551	0.005063944	0.052243773	0.016102038
2020-07-14T06:20:00	0.1704	11.905	189.0	0.378959993	0.416285596	0.005041336	0.052010529	0.016030150
2020-07-14T06:25:00	0.1710	11.924	190.0	0.380682995	0.418959719	0.005089087	0.052503175	0.016181988
2020-07-14T06:30:00	0.1716	11.944	189.0	0.382404017	0.421638732	0.005137054	0.052998036	0.016334509
2020-07-14T06:35:00	0.1728	11.965	190.0	0.385810431	0.426964801	0.005232791	0.053985736	0.016638928
2020-07-14T06:40:00	0.1729	11.988	190.0	0.386121202	0.427452262	0.005241578	0.054076391	0.016666869
2020-07-14T06:45:00	0.1732	12.012	190.0	0.386993715	0.428822236	0.005266295	0.054331398	0.016745465
2020-07-14T06:50:00	0.1732	12.039	190.0	0.386742554	0.428427666	0.005259173	0.054257918	0.016722817
2020-07-14T06:55:00	0.1734	12.068	190.0	0.387333948	0.429357008	0.005275953	0.054431033	0.016776173
2020-07-14T07:00:00	0.1735	12.098	191.0	0.387644407	0.429845256	0.005284775	0.054522044	0.016804224
2020-07-14T07:05:00	0.1739	12.130	191.0	0.388796587	0.431659522	0.005317591	0.054860606	0.016908572
2020-07-14T07:10:00	0.1741	12.166	191.0	0.389387181	0.432590886	0.005334460	0.055034638	0.016962210
2020-07-14T07:15:00	0.1751	12.229	191.0	0.392218297	0.437068644	0.005415770	0.055873498	0.017220755
2020-07-14T07:20:00	0.1750	12.275	191.0	0.391967997	0.436671889	0.005408551	0.055799026	0.017197802
2020-07-14T07:25:00	0.1755	12.372	192.0	0.393396616	0.438938699	0.005449830	0.056224888	0.017329056
2020-07-14T07:30:00	0.1762	12.536	192.0	0.395382632	0.442099138	0.005507528	0.056820150	0.017512522
2020-07-14T07:35:00	0.1761	12.523	192.0	0.394853464	0.441256003	0.005492119	0.056661175	0.017463524
2020-07-14T07:40:00	0.1765	12.561	192.0	0.396000229	0.443084131	0.005525545	0.057006030	0.017569812
2020-07-14T07:45:00	0.1769	12.736	193.0	0.397146142	0.444914471	0.005559069	0.057351891	0.017676410
2020-07-14T07:50:00	0.1766	12.591	192.0	0.396338465	0.443624016	0.005535428	0.057107986	0.017601236
2020-07-14T07:55:00	0.1773	12.857	193.0	0.398320698	0.446794268	0.005593558	0.057707707	0.017786076
2020-07-14T08:00:00	0.1773	12.668	192.0	0.398350190	0.446841516	0.005594426	0.057716659	0.017788835
2020-07-14T08:05:00	0.1771	12.642	193.0	0.397822038	0.445995738	0.005578900	0.057556483	0.017739467
2020-07-14T08:10:00	0.1775	12.651	192.0	0.398966602	0.447829594	0.005612579	0.057903942	0.017846557
2020-07-14T08:15:00	0.1776	12.691	193.0	0.399274717	0.448323874	0.005621666	0.057997693	0.017875452
2020-07-14T08:20:00	0.1782	12.726	193.0	0.400974921	0.451056008	0.005671970	0.058516668	0.018035405
2020-07-14T08:25:00	0.1776	12.748	193.0	0.399055038	0.447971437	0.005615186	0.057930841	0.017854848
2020-07-14T08:30:00	0.1782	12.769	193.0	0.400755483	0.450702939	0.005665462	0.058449529	0.018014713
2020-07-14T08:35:00	0.1784	12.803	193.0	0.401341508	0.451646125	0.005682852	0.058628932	0.018070006
2020-07-14T08:40:00	0.1790	12.842	194.0	0.403039459	0.454384204	0.005733418	0.059150613	0.018230793
2020-07-14T08:45:00	0.1782	12.881	193.0	0.400843817	0.450845050	0.005668081	0.058476550	0.018023041
2020-07-14T08:50:00	0.1787	12.929	193.0	0.402264259	0.453133156	0.005710298	0.058912093	0.018157279
2020-07-14T08:55:00	0.1784	12.981	193.0	0.401459241	0.451835725	0.005686349	0.058665015	0.018081127
2020-07-14T09:00:00	0.1784	13.035	193.0	0.401488673	0.451883128	0.005687224	0.058674037	0.018083908
2020-07-14T09:05:00								
2020-07-14T09:10:00								
2020-07-14T09:15:00								
2020-07-14T09:20:00								
2020-07-14T09:25:00								
2020-07-14T09:30:00	0.2087	13.545	213.0	0.496037286	0.592445594	0.008585192	0.088571840	0.027298701
2020-07-14T09:35:00	0.2077	13.494	212.0	0.492633714	0.587753451	0.008478192	0.087467944	0.026958470
2020-07-14T09:40:00	0.2068	13.548	212.0	0.489571230	0.583539467	0.008382485	0.086480556	0.026654147
2020-07-14T09:45:00	0.2072	13.588	212.0	0.490985291	0.585484284	0.008426610	0.086935777	0.026794451
2020-07-14T09:50:00	0.2065	13.640	212.0	0.488610542	0.582219107	0.008352574	0.086171963	0.026559036
2020-07-14T09:55:00	0.2060	13.697	213.0	0.486923697	0.579902509	0.008300181	0.085631439	0.026392441
2020-07-14T10:00:00	0.2059	13.755	213.0	0.486270610	0.579006216	0.008279940	0.085422620	0.026328081
2020-07-14T10:05:00	0.2057	13.814	214.0	0.485815788	0.578382222	0.008265859	0.085277344	0.026283306
2020-07-14T10:10:00	0.2057	13.894	214.0	0.485705794	0.578231340	0.008262455	0.085242228	0.026272483
2020-07-14T10:15:00	0.2061	13.940	214.0	0.486975043	0.579972991	0.008301774	0.085647867	0.026397504
2020-07-14T10:20:00	0.2062	14.013	214.0	0.487554522	0.580768575	0.008319755	0.085833380	0.026454681
2020-07-14T10:25:00	0.2059	14.023	215.0	0.486410345	0.579197958	0.008284269	0.085467277	0.026341845
2020-07-14T10:30:00	0.2053	14.028	215.0	0.484230877	0.576209092	0.008216882	0.084772060	0.026127572
2020-07-14T10:35:00	0.2040	14.051	215.0	0.479977920	0.570387620	0.008086171	0.083423532	0.025711943
2020-07-14T10:40:00	0.2047	14.090	215.0	0.482285128	0.573543948	0.008156952	0.084153773	0.025937010
2020-07-14T10:45:00	0.2044	14.118	215.0	0.481139172	0.571975715	0.008121758	0.083790680	0.025825101
2020-07-14T10:50:00	0.2039	14.141	215.0	0.479647358	0.569935748	0.008076055	0.083319166	0.025679776
2020-07-14T10:55:00	0.2039	14.169	215.0	0.479537163	0.569785134	0.008072684	0.083284389	0.025669058
2020-07-14T11:00:00	0.2042	14.206	216.0	0.480463336	0.571051330	0.008101037	0.083576907	0.025759214
2020-07-14T11:05:00	0.2036	14.249	216.0	0.478625650	0.568539649	0.008044827	0.082996998	0.025580481
2020-07-14T11:10:00	0.2041	14.289	216.0	0.480242996	0.570750036	0.008094287	0.083507270	0.025737752
2020-07-14T11:15:00	0.2033	14.326	216.0	0.477368189	0.566822549	0.008006476	0.082601338	0.025458535
2020-07-14T11:20:00	0.2023	14.357	216.0	0.474144906	0.562426813	0.007908584	0.081591401	0.025147262
2020-07-14T11:25:00	0.2025	14.359	216.0	0.474726583	0.563219461	0.007926206	0.081773201	0.025203295
2020-07-14T11:30:00	0.2022	14.375	216.0	0.473578065	0.561654641	0.007891430	0.081414429	0.025092718
2020-07-14T11:35:00	0.2012	14.390	217.0	0.470004707	0.556792765	0.007783717	0.080303172	0.024750218
2020-07-14T11:40:00	0.2007	14.409	216.0	0.468507971	0.554759335	0.007738817	0.079839950	0.024607448
2020-07-14T11:45:00	0.2004	14.437	216.0	0.467357335	0.553197317	0.007704387	0.079484739	0.024497969
2020-07-14T11:50:00	0.1998	14.453	216.0	0.465165552	0.550224822	0.007639012	0.078810277	0.024290093
2020-07-14T11:55:00	0.1997	14.482	217.0	0.465054884	0.550074835	0.007635718	0.078776297	0.024279620
2020-07-14T12:00:00	0.1997	14.500	217.0	0.464944212	0.549924853	0.007632425	0.078742323	0.024269149
2020-07-14T12:05:00	0.2000	14.533	217.0	0.465874394	0.551185736	0.007660125	0.079028094	0.024357226
2020-07-14T12:10:00	0.1993	14.567	217.0	0.463681646	0.548214511	0.007594907	0.078355252	0.024149850
2020-07-14T12:15:00	0.1990	14.597	217.0	0.462529360	0.546654665	0.007560745	0.078002809	0.024041223
2020-07-14T12:20:00	0.1977	14.621	217.0	0.457901264	0.540400206	0.007424298	0.076595110	0.023607357
2020-07-14T12:25:00	0.1977	14.646	218.0	0.458138072	0.540719819	0.007431250	0.076666833	0.023629462
2020-07-14T12:30:00	0.1984	14.668	218.0	0.460460250	0.543856352	0.007499592	0.077371903	0.023846772
2020-07-14T12:35:00	0.1965	14.690	218.0	0.453741039	0.534792483	0.007302686	0.075340468	0.023220664
2020-07-14T12:40:00	0.1966	14.711	218.0	0.454326250	0.535580485	0.007319734	0.075516342	0.023274870
2020-07-14T12:45:00	0.1963	14.740	218.0	0.453170753	0.534024838	0.007286093	0.075169273	0.023167900
2020-07-14T12:50:00	0.1962	14.768	218.0	0.452711449	0.533406768	0.007272741	0.075031533	0.023125447
2020-07-14T12:55:00	0.1958	14.828	218.0	0.451555396	0.531851845	0.007239190	0.074685393	0.023018764
2020-07-14T13:00:00	0.1946	14.810	218.0	0.447260982	0.526084963	0.007115223	0.073406448	0.022624580
2020-07-14T13:05:00	0.1939	14.828	218.0	0.444706971	0.522662115	0.007041994	0.072650949	0.022391728
2020-07-14T13:10:00	0.1942	14.861	219.0	0.445991749	0.524383315	0.007078785	0.073030520	0.022508716
2020-07-14T13:15:00	0.1938	14.870	219.0	0.444484278	0.522363909	0.007035626	0.072585256	0.022371481
2020-07-14T13:20:00	0.1939	14.882	218.0	0.444722035	0.522682289	0.007042424	0.072655394	0.022393098
2020-07-14T13:25:00	0.1930	14.901	219.0	0.441816709	0.518794813	0.006959569	0.071800592	0.022129640
2020-07-14T13:30:00	0.1939	14.916	219.0	0.444848439	0.522851575	0.007046040	0.072692697	0.022404595
2020-07-14T13:35:00	0.1934	14.935	219.0	0.442991200	0.520365544	0.006993006	0.072145555	0.022235961
2020-07-14T13:40:00	0.1927	14.956	219.0	0.440578776	0.516947050	0.006921822	0.071411160	0.022009613
2020-07-14T13:45:00	0.1931	14.978	219.0	0.442069731	0.519133107	0.006966766	0.071874840	0.022152524
2020-07-14T13:50:00	0.1924	14.997	220.0	0.439862232	0.515716226	0.006897852	0.071163870	0.021933396
2020-07-14T13:55:00	0.1927	15.019	220.0	0.440590495	0.516967193	0.006922214	0.071415209	0.022010861
2020-07-14T14:00:00	0.1916	15.037	220.0	0.437785789	0.512157585	0.006828679	0.070450221	0.021713442
2020-07-14T14:05:00	0.1919	15.055	220.0	0.438514954	0.513405866	0.006852921	0.070700325	0.021790527
2020-07-14T14:10:00	0.1921	15.069	220.0	0.438971987	0.514189034	0.006868143	0.070857364	0.021838928
2020-07-14T14:15:00	0.1914	15.089	220.0	0.437253386	0.511247085	0.006811011	0.070267949	0.021657264
2020-07-14T14:20:00	0.1916	15.108	220.0	0.437710763	0.512029230	0.006826187	0.070424518	0.021705520
2020-07-14T14:25:00	0.1921	15.126	221.0	0.438983718	0.514209143	0.006868534	0.070861398	0.021840171
2020-07-14T14:30:00	0.1915	15.143	220.0	0.437537220	0.511732391	0.006820427	0.070365086	0.021687203
2020-07-14T14:35:00	0.1918	15.158	221.0	0.438266493	0.512980350	0.006844655	0.070615042	0.021764242
2020-07-14T14:40:00	0.1906	15.173	221.0	0.434912982	0.507253987	0.006733678	0.069470117	0.021411365
2020-07-14T14:45:00	0.1907	15.187	221.0	0.435371001	0.508034237	0.006748770	0.069625815	0.021459352
2020-07-14T14:50:00	0.1909	15.198	221.0	0.435828895	0.508814858	0.006763878	0.069781684	0.021507393
2020-07-14T14:55:00	0.1906	15.206	221.0	0.434924741	0.507274012	0.006734065	0.069474112	0.021412596
2020-07-14T15:00:00	0.1906	15.216	221.0	0.435110314	0.507590077	0.006740178	0.069537171	0.021432032
2020-07-14T15:05:00	0.1898	15.225	221.0	0.432842141	0.503733551	0.006665702	0.068768816	0.021195217
2020-07-14T15:10:00	0.1898	15.231	221.0	0.432755118	0.503585873	0.006662854	0.068739440	0.021186163
2020-07-14T15:15:00	0.1888	15.236	221.0	0.430210467	0.499276933	0.006579923	0.067883850	0.020922462
2020-07-14T15:20:00	0.1894	15.235	221.0	0.431762212	0.501902409	0.006630420	0.068404816	0.021083029
2020-07-14T15:25:00	0.1892	15.237	221.0	0.431128981	0.500830204	0.006609784	0.068191928	0.021017415
2020-07-14T15:30:00	0.1890	15.234	222.0	0.430495507	0.499758705	0.006589181	0.067979364	0.020951900
2020-07-14T15:35:00	0.1884	15.231	221.0	0.429041595	0.497303683	0.006542041	0.067493029	0.020802007
2020-07-14T15:40:00	0.1886	15.229	221.0	0.429501242	0.498079190	0.006556922	0.067646551	0.020849324
2020-07-14T15:45:00	0.1887	15.226	221.0	0.429687424	0.498393480	0.006562955	0.067708796	0.020868509
2020-07-14T15:50:00	0.1884	15.221	221.0	0.429053396	0.497323586	0.006542423	0.067496968	0.020803221
2020-07-14T15:55:00	0.1886	15.217	221.0	0.429513040	0.498099103	0.006557304	0.067650494	0.020850539
2020-07-14T16:00:00	0.1885	15.210	221.0	0.429152415	0.497490603	0.006545627	0.067530024	0.020813409
2020-07-14T16:05:00	0.1884	15.204	221.0	0.429033821	0.497290571	0.006541789	0.067490434	0.020801207
2020-07-14T16:10:00	0.1873	15.197	221.0	0.425904094	0.492025828	0.006441017	0.066450781	0.020480776
2020-07-14T16:15:00	0.1869	15.190	221.0	0.424963026	0.490448105	0.006410902	0.066140093	0.020385019
2020-07-14T16:20:00	0.1869	15.185	221.0	0.424844128	0.490248944	0.006407103	0.066100903	0.020372940
2020-07-14T16:25:00	0.1866	15.181	221.0	0.424176753	0.489131779	0.006385807	0.065881190	0.020305223
2020-07-14T16:30:00	0.1859	15.177	221.0	0.422136560	0.485724215	0.006320970	0.065212279	0.020099058
2020-07-14T16:35:00	0.1860	15.173	221.0	0.422292077	0.485983556	0.006325898	0.065263121	0.020114728
2020-07-14T16:40:00	0.1855	15.168	221.0	0.421074136	0.483954298	0.006287365	0.064865590	0.019992205
2020-07-14T16:45:00	0.1855	15.160	221.0	0.420954953	0.483755943	0.006283603	0.064826769	0.019980240
2020-07-14T16:50:00	0.1855	15.151	221.0	0.421110584	0.484014964	0.006288516	0.064877465	0.019995865
2020-07-14T16:55:00	0.1852	15.142	221.0	0.420166736	0.482445110	0.006258751	0.064570378	0.019901218
2020-07-14T17:00:00	0.1847	15.132	221.0	0.418947194	0.480420350	0.006220418	0.064174905	0.019779329
2020-07-14T17:05:00	0.1849	15.121	221.0	0.419378135	0.481135355	0.006233947	0.064314481	0.019822348
2020-07-14T17:10:00	0.1840	15.109	221.0	0.416780899	0.476833854	0.006152679	0.063476056	0.019563937
2020-07-14T17:15:00	0.1839	15.098	221.0	0.416661398	0.476636386	0.006148955	0.063437640	0.019552097
2020-07-14T17:20:00	0.1840	15.085	221.0	0.416817443	0.476894249	0.006153818	0.063487806	0.019567558
2020-07-14T17:25:00	0.1844	15.072	221.0	0.418075114	0.478974985	0.006193094	0.063893011	0.019692447
2020-07-14T17:30:00	0.1838	15.057	221.0	0.416302842	0.476044132	0.006137791	0.063322460	0.019516597
2020-07-14T17:35:00	0.1838	15.042	221.0	0.416458922	0.476301898	0.006142649	0.063372582	0.019532045
2020-07-14T17:40:00	0.1834	15.028	221.0	0.415236565	0.474284972	0.006104664	0.062980688	0.019411260
2020-07-14T17:45:00	0.1835	15.012	221.0	0.415392749	0.474542450	0.006109509	0.063030679	0.019426668
2020-07-14T17:50:00	0.1832	14.995	221.0	0.414721456	0.473436259	0.006088699	0.062815984	0.019360496
2020-07-14T17:55:00	0.1831	14.978	221.0	0.414325865	0.472784965	0.006076456	0.062689672	0.019321566
2020-07-14T18:00:00	0.1833	14.960	220.0	0.415033909	0.473950981	0.006098380	0.062915858	0.019391279
2020-07-14T18:05:00	0.1832	14.940	221.0	0.414638396	0.473299474	0.006086127	0.062789450	0.019352318
2020-07-14T18:10:00	0.1832	14.919	221.0	0.414794638	0.473556792	0.006090965	0.062839367	0.019367703
2020-07-14T18:15:00	0.1828	14.898	220.0	0.413571008	0.471543376	0.006053135	0.062449076	0.019247412
2020-07-14T18:20:00	0.1828	14.876	220.0	0.413727355	0.471800406	0.006057961	0.062498863	0.019262756
2020-07-14T18:25:00	0.1822	14.854	220.0	0.411950259	0.468882861	0.006003247	0.061934389	0.019088780
2020-07-14T18:30:00	0.1820	14.830	220.0	0.411277516	0.467780650	0.005982612	0.061721510	0.019023169
2020-07-14T18:35:00	0.1823	14.804	220.0	0.412263255	0.469396093	0.006012861	0.062033583	0.019119353
2020-07-14T18:40:00	0.1822	14.780	220.0	0.411867054	0.468746473	0.006000692	0.061908036	0.019080658
2020-07-14T18:45:00	0.1821	14.752	220.0	0.411747185	0.468550018	0.005997014	0.061870083	0.019068960
2020-07-14T18:50:00	0.1824	14.727	220.0	0.412456375	0.469712892	0.006018798	0.062094834	0.019138231
2020-07-14T18:55:00	0.1826	14.700	219.0	0.413165248	0.470876629	0.006040622	0.062319980	0.019207623
2020-07-14T19:00:00	0.1827	14.673	219.0	0.413321635	0.471133550	0.006045443	0.062369717	0.019222952
2020-07-14T19:05:00	0.1830	14.646	219.0	0.414030124	0.472298342	0.006067312	0.062595343	0.019292493
2020-07-14T19:10:00	0.1829	14.618	219.0	0.413910418	0.472101442	0.006063614	0.062557187	0.019280733
2020-07-14T19:15:00	0.1825	14.590	219.0	0.412686110	0.470089889	0.006025866	0.062167746	0.019160703
2020-07-14T19:20:00	0.1828	14.562	219.0	0.413670978	0.471707716	0.006056220	0.062480907	0.019257222
2020-07-14T19:25:00	0.1825	14.533	219.0	0.412722748	0.470150026	0.006026993	0.062179379	0.019164289
2020-07-14T19:30:00	0.1829	14.504	219.0	0.413983637	0.472221873	0.006065876	0.062580524	0.019287925
2020-07-14T19:35:00	0.1828	14.477	219.0	0.413587863	0.471571081	0.006053655	0.062454442	0.019249066
2020-07-14T19:40:00	0.1831	14.448	218.0	0.414296234	0.472736198	0.006075539	0.062680217	0.019318652
2020-07-14T19:45:00	0.1840	14.420	218.0	0.416934030	0.477086952	0.006157453	0.063525303	0.019579115
2020-07-14T19:50:00	0.1840	14.391	218.0	0.416814541	0.476889453	0.006153728	0.063486873	0.019567271
2020-07-14T19:55:00	0.1838	14.364	218.0	0.416419467	0.476236731	0.006141421	0.063359910	0.019528139
2020-07-14T20:00:00	0.1844	14.335	218.0	0.417952809	0.478772448	0.006189268	0.063853537	0.019680280
2020-07-14T20:05:00	0.1844	14.307	218.0	0.418108729	0.479030659	0.006194146	0.063903863	0.019695791
2020-07-14T20:10:00	0.1844	14.279	217.0	0.417989327	0.478832917	0.006190410	0.063865322	0.019683912
2020-07-14T20:15:00	0.1843	14.250	217.0	0.417869916	0.478635200	0.006186676	0.063826792	0.019672037
2020-07-14T20:20:00	0.1849	14.220	218.0	0.419401877	0.481174762	0.006234693	0.064322177	0.019824720
2020-07-14T20:25:00	0.1849	14.193	217.0	0.419282571	0.480976753	0.006230945	0.064283513	0.019812803
2020-07-14T20:30:00	0.1848	14.167	217.0	0.419163255	0.480778769	0.006227199	0.064244861	0.019800890
2020-07-14T20:35:00	0.1847	14.139	217.0	0.418768758	0.480124443	0.006214821	0.064117165	0.019761533
2020-07-14T20:40:00	0.1842	14.111	217.0	0.417548157	0.478102638	0.006176619	0.063723042	0.019640060
2020-07-14T20:45:00	0.1847	14.085	217.0	0.418805257	0.480184963	0.006215966	0.064128973	0.019765172
2020-07-14T20:50:00	0.1842	14.058	217.0	0.417584684	0.478163082	0.006177760	0.063734815	0.019643689
2020-07-14T20:55:00	0.1844	14.030	216.0	0.418015989	0.478877070	0.006191244	0.063873927	0.019686565
2020-07-14T21:00:00	0.1842	14.004	216.0	0.417345793	0.477767840	0.006170300	0.063657843	0.019619965
2020-07-14T21:05:00	0.1841	13.978	216.0	0.417226335	0.477570255	0.006166571	0.063619374	0.019608109
2020-07-14T21:10:00	0.1842	13.953	216.0	0.417382325	0.477828271	0.006171440	0.063669610	0.019623592
2020-07-14T21:15:00	0.1844	13.927	216.0	0.418089021	0.478998019	0.006193529	0.063897501	0.019693830
2020-07-14T21:20:00	0.1842	13.902	216.0	0.417418856	0.477888704	0.006172581	0.063681378	0.019627219
2020-07-14T21:25:00	0.1843	13.878	216.0	0.417850205	0.478602568	0.006186059	0.063820434	0.019670077
2020-07-14T21:30:00	0.1845	13.855	216.0	0.418281439	0.479316754	0.006199552	0.063959636	0.019712981
2020-07-14T21:35:00	0.1842	13.832	216.0	0.417335935	0.477751532	0.006169992	0.063654668	0.019618987
2020-07-14T21:40:00	0.1847	13.810	216.0	0.418868404	0.480289679	0.006217946	0.064149405	0.019771470
2020-07-14T21:45:00	0.1839	13.787	215.0	0.416545946	0.476445647	0.006145359	0.063400539	0.019540662
2020-07-14T21:50:00	0.1837	13.765	215.0	0.416150806	0.475793108	0.006133061	0.063273659	0.019501556
2020-07-14T21:55:00	0.1843	13.742	215.0	0.417684404	0.478328114	0.006180876	0.063766962	0.019653597
2020-07-14T22:00:00	0.1841	13.719	215.0	0.417289544	0.477674798	0.006168544	0.063639727	0.019614382
2020-07-14T22:05:00	0.1836	13.696	215.0	0.415911701	0.475398458	0.006125626	0.063196958	0.019477916
2020-07-14T22:10:00	0.1830	13.674	215.0	0.414256725	0.472671178	0.006074317	0.062667612	0.019314767
2020-07-14T22:15:00	0.1829	13.652	215.0	0.413980729	0.472217090	0.006065786	0.062579597	0.019287640
2020-07-14T22:20:00	0.1824	13.630	215.0	0.412600033	0.469948620	0.006023217	0.062140422	0.019152281
2020-07-14T22:25:00	0.1820	13.607	215.0	0.411494614	0.468136205	0.005989267	0.061790159	0.019044327
2020-07-14T22:30:00	0.1817	13.585	215.0	0.410665045	0.466778271	0.005963864	0.061528090	0.018963555
2020-07-14T22:35:00	0.1817	13.564	215.0	0.410665045	0.466778271	0.005963864	0.061528090	0.018963555
2020-07-14T22:40:00	0.1821	13.543	214.0	0.411771041	0.468589112	0.005997746	0.061877635	0.019071288
2020-07-14T22:45:00	0.1813	13.522	214.0	0.409558278	0.464969529	0.005930076	0.061179503	0.018856117
2020-07-14T22:50:00	0.1816	13.501	214.0	0.410388426	0.466325889	0.005955409	0.061440854	0.018936668
2020-07-14T22:55:00	0.1813	13.482	214.0	0.409558278	0.464969529	0.005930076	0.061179503	0.018856117
2020-07-14T23:00:00	0.1809	13.463	214.0	0.408450736	0.463162885	0.005896381	0.060831872	0.018748974
2020-07-14T23:05:00	0.1803	13.443	214.0	0.406787966	0.460456854	0.005846011	0.060312221	0.018588812
2020-07-14T23:10:00	0.1801	13.425	215.0	0.406233320	0.459555894	0.005829268	0.060139482	0.018535572
2020-07-14T23:15:00	0.1797	13.408	214.0	0.405123439	0.457755546	0.005795850	0.059794721	0.018429314
2020-07-14T23:20:00	0.1794	13.391	214.0	0.404290513	0.456406663	0.005770848	0.059536777	0.018349813
2020-07-14T23:25:00	0.1791	13.375	213.0	0.403457144	0.455058960	0.005745898	0.059279371	0.018270478
2020-07-14T23:30:00	0.1791	13.358	214.0	0.403457144	0.455058960	0.005745898	0.059279371	0.018270478
2020-07-14T23:35:00	0.1789	13.342	213.0	0.402901319	0.454161147	0.005729294	0.059108066	0.018217680
2020-07-14T23:40:00	0.1786	13.329	213.0	0.402067209	0.452815412	0.005704430	0.058851556	0.018138621
2020-07-14T23:45:00	0.1786	13.314	213.0	0.402067209	0.452815412	0.005704430	0.058851556	0.018138621
2020-07-14T23:50:00	0.1781	13.300	214.0	0.400676035	0.450575143	0.005663107	0.058425233	0.018007224
2020-07-14T23:55:00	0.1772	13.288	214.0	0.398168780	0.446550923	0.005589090	0.057661611	0.017771869
2020-07-15T00:00:00	0.1770	13.274	213.0	0.397611061	0.445658094	0.005572705	0.057492574	0.017719770
2020-07-15T00:05:00	0.1764	13.261	213.0	0.395936697	0.442982757	0.005523690	0.056986892	0.017563914
2020-07-15T00:10:00	0.1760	13.250	213.0	0.394819444	0.441201823	0.005491129	0.056650963	0.017460377
2020-07-15T00:15:00	0.1755	13.238	213.0	0.393421735	0.438978606	0.005450557	0.056232393	0.017331370
2020-07-15T00:20:00	0.1756	13.227	213.0	0.393701379	0.439422987	0.005458660	0.056315988	0.017357134
2020-07-15T00:25:00	0.1750	13.217	213.0	0.392022752	0.436758668	0.005410130	0.055815313	0.017202821
2020-07-15T00:30:00	0.1747	13.209	213.0	0.391182749	0.435428280	0.005385943	0.055565779	0.017125913
2020-07-15T00:35:00	0.1741	13.200	213.0	0.389501354	0.432771044	0.005337724	0.055068319	0.016972591
2020-07-15T00:40:00	0.1743	13.193	213.0	0.390062025	0.433656265	0.005353774	0.055233901	0.017023625
2020-07-15T00:45:00	0.1740	13.185	213.0	0.389220941	0.432328631	0.005329708	0.054985618	0.016947101
2020-07-15T00:50:00	0.1735	13.178	213.0	0.387818100	0.430118531	0.005289714	0.054573003	0.016819929
2020-07-15T00:55:00	0.1732	13.172	212.0	0.386975774	0.428794045	0.005265786	0.054326148	0.016743846
2020-07-15T01:00:00	0.1726	13.167	213.0	0.385289714	0.426148615	0.005218087	0.053834044	0.016592175
2020-07-15T01:05:00	0.1724	13.163	213.0	0.384727276	0.425267854	0.005202234	0.053670485	0.016541765
2020-07-15T01:10:00	0.1722	13.158	212.0	0.384164628	0.424387618	0.005186403	0.053507164	0.016491428
2020-07-15T01:15:00	0.1717	13.153	213.0	0.382757089	0.422189323	0.005146927	0.053099902	0.016365906
2020-07-15T01:20:00	0.1712	13.150	212.0	0.381348231	0.419994308	0.005107596	0.052694126	0.016240841
2020-07-15T01:25:00	0.1707	13.146	213.0	0.379938047	0.417802571	0.005068408	0.052289836	0.016116235
2020-07-15T01:30:00	0.1704	13.142	213.0	0.379091299	0.416489104	0.005044965	0.052047975	0.016041691
2020-07-15T01:35:00	0.1697	13.139	213.0	0.377113681	0.413428937	0.004990465	0.051485710	0.015868396
2020-07-15T01:40:00	0.1690	13.137	212.0	0.375133430	0.410375197	0.004936247	0.050926355	0.015695997
2020-07-15T01:45:00	0.1692	13.133	213.0	0.375699486	0.411247038	0.004951710	0.051085874	0.015745163
2020-07-15T01:50:00	0.1691	13.130	212.0	0.375416485	0.410811052	0.004943976	0.051006085	0.015720571
2020-07-15T01:55:00	0.1691	13.127	212.0	0.375416485	0.410811052	0.004943976	0.051006085	0.015720571
2020-07-15T02:00:00	0.1688	13.126	213.0	0.374567158	0.409503880	0.004920808	0.050767074	0.015646905
2020-07-15T02:05:00	0.1687	13.123	212.0	0.374283941	0.409068419	0.004913098	0.050687522	0.015622387
2020-07-15T02:10:00	0.1688	13.120	212.0	0.374567158	0.409503880	0.004920808	0.050767074	0.015646905
2020-07-15T02:15:00	0.1692	13.118	212.0	0.375699486	0.411247038	0.004951710	0.051085874	0.015745163
2020-07-15T02:20:00	0.1708	13.115	212.0	0.380220190	0.418240656	0.005076234	0.052370575	0.016141120
2020-07-15T02:25:00	0.1720	13.114	212.0	0.383601770	0.423507906	0.005170596	0.053344081	0.016441164
2020-07-15T02:30:00	0.1723	13.110	212.0	0.384445978	0.424827670	0.005194315	0.053588795	0.016516587
2020-07-15T02:35:00	0.1723	13.107	213.0	0.384445978	0.424827670	0.005194315	0.053588795	0.016516587
2020-07-15T02:40:00	0.1724	13.101	212.0	0.384727276	0.425267854	0.005202234	0.053670485	0.016541765
2020-07-15T02:45:00	0.1724	13.095	212.0	0.384727276	0.425267854	0.005202234	0.053670485	0.016541765
2020-07-15T02:50:00	0.1730	13.088	212.0	0.386413963	0.427911710	0.005249864	0.054161875	0.016693216
2020-07-15T02:55:00	0.1738	13.082	212.0	0.388659960	0.431444197	0.005313693	0.054820393	0.016896178
2020-07-15T03:00:00	0.1745	13.076	212.0	0.390622489	0.434542010	0.005369847	0.055399721	0.017074732
2020-07-15T03:05:00	0.1748	13.072	212.0	0.391462801	0.435871611	0.005393999	0.055648897	0.017151531
2020-07-15T03:10:00	0.1744	13.066	212.0	0.390342283	0.434099072	0.005361808	0.055316781	0.017049169
2020-07-15T03:15:00	0.1743	13.058	212.0	0.390062025	0.433656265	0.005353774	0.055233901	0.017023625
2020-07-15T03:20:00	0.1744	13.049	212.0	0.390342283	0.434099072	0.005361808	0.055316781	0.017049169
2020-07-15T03:25:00	0.1754	13.036	212.0	0.393142041	0.438534356	0.005442460	0.056148858	0.017305623
2020-07-15T03:30:00	0.1754	13.023	212.0	0.393142041	0.438534356	0.005442460	0.056148858	0.017305623
2020-07-15T03:35:00	0.1756	13.012	212.0	0.393701379	0.439422987	0.005458660	0.056315988	0.017357134
2020-07-15T03:40:00	0.1759	12.999	212.0	0.394540004	0.440756917	0.005483003	0.056567130	0.017434539
2020-07-15T03:45:00	0.1758	12.987	211.0	0.394260513	0.440312143	0.005474883	0.056483356	0.017408719
2020-07-15T03:50:00	0.1762	12.976	212.0	0.395378172	0.442092028	0.005507398	0.056818808	0.017512109
2020-07-15T03:55:00	0.1761	12.964	212.0	0.395098833	0.441646860	0.005499260	0.056734856	0.017486234
2020-07-15T04:00:00	0.1764	12.952	211.0	0.395936697	0.442982757	0.005523690	0.056986892	0.017563914
2020-07-15T04:05:00	0.1768	12.940	211.0	0.396816112	0.444386955	0.005549401	0.057252152	0.017645669
2020-07-15T04:10:00	0.1770	12.931	211.0	0.397416106	0.445346198	0.005566985	0.057433556	0.017701580
2020-07-15T04:15:00	0.1767	12.922	211.0	0.396621056	0.444075321	0.005543692	0.057193252	0.017627516
2020-07-15T04:20:00	0.1774	12.916	211.0	0.398615398	0.447266504	0.005602232	0.057797191	0.017813656
2020-07-15T04:25:00	0.1768	12.912	211.0	0.396984122	0.444655464	0.005554322	0.057302913	0.017661314
2020-07-15T04:30:00	0.1771	12.908	211.0	0.397862941	0.446061213	0.005580101	0.057568878	0.017743287
2020-07-15T04:35:00	0.1772	12.907	211.0	0.398183748	0.446574896	0.005589530	0.057666152	0.017773268
2020-07-15T04:40:00	0.1768	12.905	211.0	0.396831093	0.444410895	0.005549840	0.057256677	0.017647064
2020-07-15T04:45:00	0.1765	12.904	211.0	0.396035742	0.443140801	0.005526582	0.057016730	0.017573110
2020-07-15T04:50:00	0.1769	12.902	211.0	0.397194110	0.444991167	0.005560475	0.057366396	0.017680880
2020-07-15T04:55:00	0.1768	12.903	211.0	0.396957101	0.444612275	0.005553530	0.057294748	0.017658798
2020-07-15T05:00:00	0.1770	12.906	211.0	0.397557041	0.445571661	0.005571120	0.057476217	0.017714728
2020-07-15T05:05:00	0.1772	12.908	211.0	0.398156749	0.446531653	0.005588736	0.057657961	0.017770744
2020-07-15T05:10:00	0.1772	12.909	211.0	0.398198716	0.446598870	0.005589970	0.057670693	0.017774668
2020-07-15T05:15:00	0.1769	12.911	211.0	0.397125097	0.444880824	0.005558452	0.057345528	0.017674449
2020-07-15T05:20:00	0.1769	12.914	211.0	0.397167093	0.444947968	0.005559683	0.057358226	0.017678362
2020-07-15T05:25:00	0.1771	12.918	211.0	0.397766951	0.445907566	0.005577282	0.057539792	0.017734323
2020-07-15T05:30:00	0.1764	12.922	211.0	0.395855578	0.442853337	0.005521322	0.056962461	0.017556384
2020-07-15T05:35:00	0.1760	12.927	211.0	0.394780327	0.441139531	0.005489991	0.056639224	0.017456759
2020-07-15T05:40:00	0.1760	12.934	211.0	0.394822387	0.441206510	0.005491214	0.056651847	0.017460649
2020-07-15T05:45:00	0.1760	12.942	211.0	0.394585014	0.440828565	0.005484311	0.056580628	0.017438699
2020-07-15T05:50:00	0.1758	12.952	211.0	0.394068078	0.440006030	0.005469296	0.056425720	0.017390955
2020-07-15T05:55:00	0.1759	12.965	211.0	0.394389676	0.440517663	0.005478634	0.056522062	0.017420648
2020-07-15T06:00:00	0.1762	12.982	211.0	0.395269973	0.441919572	0.005504245	0.056786282	0.017502083
2020-07-15T06:05:00	0.1768	13.000	211.0	0.396987061	0.444660162	0.005554408	0.057303802	0.017661588
2020-07-15T06:10:00	0.1764	13.018	211.0	0.395912599	0.442944309	0.005522987	0.056979634	0.017561676
2020-07-15T06:15:00	0.1760	13.038	212.0	0.394837388	0.441230399	0.005491651	0.056656349	0.017462037
2020-07-15T06:20:00	0.1755	13.061	211.0	0.393202109	0.438629746	0.005444198	0.056166792	0.017311151
2020-07-15T06:25:00	0.1758	13.086	212.0	0.394083086	0.440029900	0.005469732	0.056430214	0.017392340
2020-07-15T06:30:00	0.1757	13.101	212.0	0.393845599	0.439652250	0.005462842	0.056359130	0.017370431
2020-07-15T06:35:00	0.1754	13.116	212.0	0.393048703	0.438386151	0.005439760	0.056120998	0.017297037
2020-07-15T06:40:00	0.1759	13.130	212.0	0.394488820	0.440675448	0.005481515	0.056551783	0.017429809
2020-07-15T06:45:00	0.1762	13.144	212.0	0.395369061	0.442077504	0.005507132	0.056816069	0.017511264
2020-07-15T06:50:00	0.1765	13.158	212.0	0.395969618	0.443035285	0.005524651	0.056996809	0.017566970
2020-07-15T06:55:00	0.1765	13.180	212.0	0.396011645	0.443102348	0.005525878	0.057009470	0.017570872
2020-07-15T07:00:00	0.1769	13.213	212.0	0.397170031	0.444952667	0.005559769	0.057359115	0.017678636
2020-07-15T07:05:00	0.1772	13.245	213.0	0.398048744	0.446358691	0.005585561	0.057625205	0.017760648
2020-07-15T07:10:00	0.1774	13.267	213.0	0.398648261	0.447319181	0.005603199	0.057807175	0.017816733
2020-07-15T07:15:00	0.1773	13.301	213.0	0.398411476	0.446939708	0.005596229	0.057735263	0.017794569
2020-07-15T07:20:00	0.1767	13.324	213.0	0.396779985	0.444329229	0.005548344	0.057241240	0.017642306
2020-07-15T07:25:00	0.1774	13.340	213.0	0.398495397	0.447074182	0.005598699	0.057760744	0.017802422
2020-07-15T07:30:00	0.1780	13.352	213.0	0.400208911	0.449824097	0.005649273	0.058282504	0.017963234
2020-07-15T07:35:00	0.1781	13.367	213.0	0.400529234	0.450339051	0.005658757	0.058380355	0.017993393
2020-07-15T07:40:00	0.1783	13.396	213.0	0.401127794	0.451302052	0.005676506	0.058563469	0.018049830
2020-07-15T07:45:00	0.1783	13.491	213.0	0.401169682	0.451369481	0.005677750	0.058576296	0.018053783
2020-07-15T07:50:00	0.1777	13.505	214.0	0.399541092	0.448751403	0.005629529	0.058078818	0.017900456
2020-07-15T07:55:00	0.1774	13.511	214.0	0.398747132	0.447477676	0.005606111	0.057837219	0.017825993
2020-07-15T08:00:00	0.1774	13.526	213.0	0.398510362	0.447098164	0.005599139	0.057765288	0.017803823
2020-07-15T08:05:00	0.1780	13.546	214.0	0.400223860	0.449848123	0.005649715	0.058287068	0.017964640
2020-07-15T08:10:00	0.1786	13.562	214.0	0.401935472	0.452603043	0.005700509	0.058811105	0.018126154
2020-07-15T08:15:00	0.1790	13.582	214.0	0.403089449	0.454464935	0.005734910	0.059166014	0.018235540
2020-07-15T08:20:00	0.1792	13.584	214.0	0.403687028	0.455430532	0.005752774	0.059350309	0.018292342
2020-07-15T08:25:00	0.1794	13.582	214.0	0.404284379	0.456396736	0.005770664	0.059534880	0.018349228
2020-07-15T08:30:00	0.1802	13.579	214.0	0.406268945	0.459613738	0.005830342	0.060150568	0.018538989
2020-07-15T08:35:00	0.1801	13.583	214.0	0.406033312	0.459231211	0.005823237	0.060077265	0.018516397
2020-07-15T08:40:00	0.1798	13.592	214.0	0.405242648	0.457948755	0.005799434	0.059831693	0.018440709
2020-07-15T08:45:00	0.1801	13.604	214.0	0.406116825	0.459366768	0.005825755	0.060103238	0.018524402
2020-07-15T08:50:00	0.1798	13.614	214.0	0.405326202	0.458084199	0.005801947	0.059857615	0.018448698
2020-07-15T08:55:00	0.1799	13.622	214.0	0.405645478	0.458601931	0.005811554	0.059956732	0.018479247
2020-07-15T09:00:00	0.1799	13.632	214.0	0.405687245	0.458669680	0.005812812	0.059969705	0.018483246
2020-07-15T09:05:00	0.1799	13.645	214.0	0.405451525	0.458287387	0.005805717	0.059896509	0.018460686
2020-07-15T09:10:00	0.1808	13.659	214.0	0.407988843	0.462410429	0.005882363	0.060687250	0.018704400
2020-07-15T09:15:00	0.1807	13.670	214.0	0.407753468	0.462027211	0.005875227	0.060613632	0.018681710
2020-07-15T09:20:00	0.1807	13.677	214.0	0.407795179	0.462095111	0.005876491	0.060626674	0.018685730
2020-07-15T09:25:00	0.1814	13.676	214.0	0.409775330	0.465323982	0.005936693	0.061247771	0.018877158
2020-07-15T09:30:00	0.1817	13.673	214.0	0.410647000	0.466748754	0.005963313	0.061522397	0.018961800
2020-07-15T09:35:00	0.1815	13.669	214.0	0.410135356	0.465912203	0.005947679	0.061361110	0.018912090
2020-07-15T09:40:00	0.1814	13.669	214.0	0.409623547	0.465076102	0.005932066	0.061200027	0.018862443
2020-07-15T09:45:00	0.1814	13.669	214.0	0.409665209	0.465144135	0.005933336	0.061213129	0.018866481
2020-07-15T09:50:00	0.1818	13.668	214.0	0.410813533	0.467021194	0.005968406	0.061574949	0.018977997
2020-07-15T09:55:00	0.1825	13.669	214.0	0.412789921	0.470260292	0.006029061	0.062200710	0.019170863
2020-07-15T10:00:00	0.1822	13.670	214.0	0.412002628	0.468968713	0.006004855	0.061950979	0.019093893
2020-07-15T10:05:00	0.1831	13.671	214.0	0.414490420	0.473055833	0.006081547	0.062742196	0.019337754
2020-07-15T10:10:00	0.1828	13.672	214.0	0.413664881	0.471697692	0.006056032	0.062478966	0.019256624
2020-07-15T10:15:00	0.1833	13.674	214.0	0.415047125	0.473972758	0.006098789	0.062920085	0.019392581
2020-07-15T10:20:00	0.1838	13.675	214.0	0.416428176	0.476251115	0.006141692	0.063362707	0.019529002
2020-07-15T10:25:00	0.1843	13.678	214.0	0.417808039	0.478532763	0.006184741	0.063806832	0.019665885
2020-07-15T10:30:00	0.1847	13.681	214.0	0.418911571	0.480361267	0.006219300	0.064163375	0.019775775
2020-07-15T10:35:00	0.1851	13.685	214.0	0.420014348	0.482191880	0.006253953	0.064520881	0.019885962
2020-07-15T10:40:00	0.1855	13.689	214.0	0.421116373	0.484024601	0.006288699	0.064879351	0.019996446
2020-07-15T10:45:00	0.1857	13.691	214.0	0.421668333	0.484943799	0.006306146	0.065059349	0.020051923
2020-07-15T10:50:00	0.1860	13.690	214.0	0.422494693	0.486321541	0.006332322	0.065329398	0.020135155
2020-07-15T10:55:00	0.1860	13.688	214.0	0.422497150	0.486325639	0.006332400	0.065330202	0.020135403
2020-07-15T11:00:00	0.1864	13.686	214.0	0.423597489	0.488163112	0.006367357	0.065690846	0.020246557
2020-07-15T11:05:00	0.1858	13.685	214.0	0.421952844	0.485417935	0.006315151	0.065152249	0.020080556
2020-07-15T11:10:00	0.1856	13.685	214.0	0.421405898	0.484506652	0.006297847	0.064973729	0.020025534
2020-07-15T11:15:00	0.1849	13.683	214.0	0.419483975	0.481311040	0.006237272	0.064348790	0.019832922
2020-07-15T11:20:00	0.1848	13.684	214.0	0.419211338	0.480858549	0.006228708	0.064260436	0.019805690
2020-07-15T11:25:00	0.1848	13.684	214.0	0.419213800	0.480862634	0.006228786	0.064261233	0.019805936
2020-07-15T11:30:00	0.1848	13.685	214.0	0.419216261	0.480866718	0.006228863	0.064262031	0.019806182
2020-07-15T11:35:00	0.1850	13.687	214.0	0.419768870	0.481784096	0.006246229	0.064441196	0.019861402
2020-07-15T11:40:00	0.1848	13.693	214.0	0.419221185	0.480874888	0.006229018	0.064263626	0.019806674
2020-07-15T11:45:00	0.1847	13.698	214.0	0.418948503	0.480422521	0.006220459	0.064175328	0.019779459
2020-07-15T11:50:00	0.1846	13.702	214.0	0.418675776	0.479970283	0.006211906	0.064087090	0.019752263
2020-07-15T11:55:00	0.1844	13.702	214.0	0.418127719	0.479062112	0.006194740	0.063909994	0.019697681
2020-07-15T12:00:00	0.1839	13.701	214.0	0.416753061	0.476787850	0.006151812	0.063467105	0.019561178
2020-07-15T12:05:00	0.1842	13.699	214.0	0.417581939	0.478158540	0.006177675	0.063733930	0.019643416
2020-07-15T12:10:00	0.1842	13.698	214.0	0.417584403	0.478162617	0.006177752	0.063734724	0.019643661
2020-07-15T12:15:00	0.1839	13.697	214.0	0.416760457	0.476800073	0.006152042	0.063469483	0.019561911
2020-07-15T12:20:00	0.1838	13.698	214.0	0.416487358	0.476348867	0.006143535	0.063381717	0.019534861
2020-07-15T12:25:00	0.1837	13.698	214.0	0.416214213	0.475897791	0.006135033	0.063294009	0.019507828
2020-07-15T12:30:00	0.1831	13.699	214.0	0.414562019	0.473173712	0.006083763	0.062765057	0.019344800
2020-07-15T12:35:00	0.1826	13.699	214.0	0.412908115	0.470454342	0.006032700	0.062238255	0.019182435
2020-07-15T12:40:00	0.1821	13.699	214.0	0.411528963	0.468192471	0.005990320	0.061801025	0.019047676
2020-07-15T12:45:00	0.1816	13.700	214.0	0.410148612	0.465933868	0.005948084	0.061365285	0.018913377
2020-07-15T12:50:00	0.1812	13.698	214.0	0.409043961	0.464130147	0.005914414	0.061017922	0.018806316
2020-07-15T12:55:00	0.1803	13.698	214.0	0.406552568	0.460074374	0.005838902	0.060238872	0.018566205
2020-07-15T13:00:00	0.1805	13.704	214.0	0.407109583	0.460979670	0.005855733	0.060412522	0.018619726
2020-07-15T13:05:00	0.1801	13.710	214.0	0.406002803	0.459181694	0.005822318	0.060067778	0.018513472
2020-07-15T13:10:00	0.1788	13.721	214.0	0.402394772	0.453343668	0.005714187	0.058952209	0.018169643
2020-07-15T13:15:00	0.1784	13.736	214.0	0.401284655	0.451554581	0.005681163	0.058611513	0.018064638
2020-07-15T13:20:00	0.1788	13.755	214.0	0.402399747	0.453351695	0.005714335	0.058953739	0.018170115
2020-07-15T13:25:00	0.1788	13.760	214.0	0.402402235	0.453355708	0.005714409	0.058954504	0.018170351
2020-07-15T13:30:00	0.1789	13.757	214.0	0.402682749	0.453808328	0.005722772	0.059040785	0.018196943
2020-07-15T13:35:00	0.1789	13.750	214.0	0.402685237	0.453812343	0.005722846	0.059041550	0.018197179
2020-07-15T13:40:00	0.1784	13.746	214.0	0.401297104	0.451574625	0.005681533	0.058615327	0.018065813
2020-07-15T13:45:00	0.1783	13.741	214.0	0.401021321	0.451130679	0.005673347	0.058530870	0.018039783
2020-07-15T13:50:00	0.1790	13.737	214.0	0.402970674	0.454273129	0.005731364	0.059129425	0.018224263
2020-07-15T13:55:00	0.1806	13.735	214.0	0.407414057	0.461474880	0.005864946	0.060507571	0.018649021
2020-07-15T14:00:00	0.1800	13.734	214.0	0.405752675	0.458775822	0.005814782	0.059990032	0.018489511
2020-07-15T14:05:00	0.1801	13.735	214.0	0.406032590	0.459230038	0.005823215	0.060077040	0.018516327
2020-07-15T14:10:00	0.1804	13.739	214.0	0.406867073	0.460585424	0.005848402	0.060336882	0.018596413
2020-07-15T14:15:00	0.1814	13.741	214.0	0.409639723	0.465102516	0.005932559	0.061205114	0.018864011
2020-07-15T14:20:00	0.1830	13.748	214.0	0.414064418	0.472354758	0.006068372	0.062606277	0.019295863
2020-07-15T14:25:00	0.1850	13.752	213.0	0.419577502	0.481466313	0.006240212	0.064379117	0.019842269
2020-07-15T14:30:00	0.1857	13.752	213.0	0.421504230	0.484670425	0.006300956	0.065005802	0.020035420
2020-07-15T14:35:00	0.1862	13.749	213.0	0.422879765	0.486964194	0.006344542	0.065455470	0.020174011
2020-07-15T14:40:00	0.1870	13.745	212.0	0.425076731	0.490638602	0.006414536	0.066177585	0.020396574
2020-07-15T14:45:00	0.1868	13.744	212.0	0.424530834	0.489724346	0.006397100	0.065997705	0.020341134
2020-07-15T14:50:00	0.1868	13.747	212.0	0.424533288	0.489728453	0.006397179	0.065998513	0.020341383
2020-07-15T14:55:00	0.1870	13.756	211.0	0.425084089	0.490650932	0.006414771	0.066180012	0.020397322
2020-07-15T15:00:00	0.1869	13.767	211.0	0.424812392	0.490195790	0.006406090	0.066090445	0.020369717
2020-07-15T15:05:00	0.1867	13.772	211.0	0.424266406	0.489281785	0.006388665	0.065910680	0.020314312
2020-07-15T15:10:00	0.1869	13.767	211.0	0.424817298	0.490204007	0.006406246	0.066092061	0.020370215
2020-07-15T15:15:00	0.1867	13.758	211.0	0.424271315	0.489289998	0.006388822	0.065912294	0.020314809
2020-07-15T15:20:00	0.1868	13.753	211.0	0.424548010	0.489753099	0.006397648	0.066003360	0.020342877
2020-07-15T15:25:00	0.1869	13.749	211.0	0.424824658	0.490216333	0.006406481	0.066094487	0.020370963
2020-07-15T15:30:00	0.1872	13.747	211.0	0.425649417	0.491598614	0.006432858	0.066366613	0.020454835
2020-07-15T15:35:00	0.1869	13.756	211.0	0.424829564	0.490224551	0.006406638	0.066096103	0.020371461
2020-07-15T15:40:00	0.1869	13.768	211.0	0.424832018	0.490228659	0.006406716	0.066096912	0.020371710
2020-07-15T15:45:00	0.1862	13.780	211.0	0.422914151	0.487021601	0.006345634	0.065466735	0.020177483
2020-07-15T15:50:00	0.1852	13.783	211.0	0.420169352	0.482449457	0.006258833	0.064571228	0.019901480
2020-07-15T15:55:00	0.1847	13.780	211.0	0.418796436	0.480170337	0.006215689	0.064126119	0.019764293
2020-07-15T16:00:00	0.1853	13.776	211.0	0.420449207	0.482914671	0.006267650	0.064662189	0.019929515
2020-07-15T16:05:00	0.1849	13.770	211.0	0.419393059	0.481160126	0.006234416	0.064319319	0.019823839
2020-07-15T16:10:00	0.1852	13.764	211.0	0.420261968	0.482603392	0.006261750	0.064601322	0.019910755
2020-07-15T16:15:00	0.1856	13.761	211.0	0.421405182	0.484505460	0.006297825	0.064973496	0.020025462
2020-07-15T16:20:00	0.1863	13.759	211.0	0.423096608	0.487326267	0.006351430	0.065526529	0.020195913
2020-07-15T16:25:00	0.1867	13.764	211.0	0.424237827	0.489233964	0.006387754	0.065901278	0.020311414
2020-07-15T16:30:00	0.1873	13.771	211.0	0.425926313	0.492063109	0.006441729	0.066458127	0.020483040
2020-07-15T16:35:00	0.1872	13.778	211.0	0.425696004	0.491676749	0.006434350	0.066382005	0.020459579
2020-07-15T16:40:00	0.1870	13.781	212.0	0.425191576	0.490831048	0.006418208	0.066215466	0.020408250
2020-07-15T16:45:00	0.1870	13.783	211.0	0.425235289	0.490904307	0.006419606	0.066229888	0.020412695
2020-07-15T16:50:00	0.1865	13.784	211.0	0.423907949	0.488682159	0.006377241	0.065792820	0.020277986
2020-07-15T16:55:00	0.1863	13.781	211.0	0.423128533	0.487379586	0.006352444	0.065536995	0.020199138
2020-07-15T17:00:00	0.1862	13.781	211.0	0.422897828	0.486994350	0.006345116	0.065461387	0.020175835
2020-07-15T17:05:00	0.1861	13.779	211.0	0.422667091	0.486609208	0.006337791	0.065385823	0.020152546
2020-07-15T17:10:00	0.1859	13.775	211.0	0.422161723	0.485766173	0.006321767	0.065220504	0.020101593
2020-07-15T17:15:00	0.1862	13.769	211.0	0.423029148	0.487213613	0.006349286	0.065504417	0.020189098
2020-07-15T17:20:00	0.1863	13.763	211.0	0.423347363	0.487745128	0.006359400	0.065608759	0.020221257
2020-07-15T17:25:00	0.1863	13.755	211.0	0.423116689	0.487359805	0.006352068	0.065533112	0.020197941
2020-07-15T17:30:00	0.1863	13.749	211.0	0.423160458	0.487432906	0.006353459	0.065547461	0.020202364
2020-07-15T17:35:00	0.1866	13.742	211.0	0.424027350	0.488881854	0.006381045	0.065832065	0.020290082
2020-07-15T17:40:00	0.1869	13.733	211.0	0.424893782	0.490332111	0.006408689	0.066117268	0.020377984
2020-07-15T17:45:00	0.1870	13.728	211.0	0.425211632	0.490864659	0.006418849	0.066222083	0.020410289
2020-07-15T17:50:00	0.1868	13.722	211.0	0.424707054	0.490019385	0.006402726	0.066055739	0.020359020
2020-07-15T17:55:00	0.1875	13.718	211.0	0.426395055	0.492849912	0.006456762	0.066613221	0.020530842
2020-07-15T18:00:00	0.1876	13.715	211.0	0.426712614	0.493383293	0.006466958	0.066718418	0.020563264
2020-07-15T18:05:00	0.1877	13.710	211.0	0.427030111	0.493916852	0.006477163	0.066823695	0.020595712
2020-07-15T18:10:00	0.1882	13.705	211.0	0.428442176	0.496293238	0.006522666	0.067293143	0.020740400
2020-07-15T18:15:00	0.1885	13.700	210.0	0.429306275	0.497750174	0.006550607	0.067581406	0.020829246
2020-07-15T18:20:00	0.1889	13.694	210.0	0.430443176	0.499670239	0.006587481	0.067961822	0.020946494
2020-07-15T18:25:00	0.1896	13.687	210.0	0.432398230	0.502980456	0.006651185	0.068619049	0.021149057
2020-07-15T18:30:00	0.1902	13.681	210.0	0.433805709	0.505370132	0.006697279	0.069094592	0.021295624
2020-07-15T18:35:00	0.1903	13.673	210.0	0.434121843	0.505907638	0.006707659	0.069201680	0.021328630
2020-07-15T18:40:00	0.1911	13.664	210.0	0.436344854	0.509695171	0.006780927	0.069957573	0.021561604
2020-07-15T18:45:00	0.1919	13.655	211.0	0.438564907	0.513491436	0.006854584	0.070717479	0.021795814
2020-07-15T18:50:00	0.1919	13.646	210.0	0.438608268	0.513565720	0.006856027	0.070732371	0.021800404
2020-07-15T18:55:00	0.1927	13.638	210.0	0.440825327	0.517370889	0.006930081	0.071496370	0.022035876
2020-07-15T19:00:00	0.1939	13.632	211.0	0.444649282	0.522584861	0.007040344	0.072633928	0.022386482
2020-07-15T19:05:00	0.1947	13.626	210.0	0.447496527	0.526400895	0.007121996	0.073476317	0.022646114
2020-07-15T19:10:00	0.1955	13.620	211.0	0.450341354	0.530220060	0.007204038	0.074322735	0.022906989
2020-07-15T19:15:00	0.1953	13.614	211.0	0.449699859	0.529358301	0.007185498	0.074131458	0.022848035
2020-07-15T19:20:00	0.1959	13.605	210.0	0.451846192	0.532242875	0.007247623	0.074772388	0.023045576
2020-07-15T19:25:00	0.1962	13.595	210.0	0.452946611	0.533723197	0.007279576	0.075102040	0.023147178
2020-07-15T19:30:00	0.1969	13.581	211.0	0.455090868	0.536610471	0.007342036	0.075746436	0.023345787
2020-07-15T19:35:00	0.1972	13.569	210.0	0.456190224	0.538092177	0.007374161	0.076077863	0.023447936
2020-07-15T19:40:00	0.1976	13.557	210.0	0.457636987	0.540043571	0.007416543	0.076515107	0.023582699
2020-07-15T19:45:00	0.1974	13.545	211.0	0.456996886	0.539179998	0.007397777	0.076321503	0.023523028
2020-07-15T19:50:00	0.1979	13.533	211.0	0.458790949	0.541601220	0.007450433	0.076864742	0.023690460
2020-07-15T19:55:00	0.1981	13.520	211.0	0.459541562	0.542614983	0.007472518	0.077092588	0.023760684
2020-07-15T20:00:00	0.1987	13.506	210.0	0.461334268	0.545037981	0.007525394	0.077638098	0.023928816
2020-07-15T20:05:00	0.1991	13.494	211.0	0.462778820	0.546992269	0.007568134	0.078079043	0.024064719
2020-07-15T20:10:00	0.2000	13.482	210.0	0.465957650	0.551298625	0.007662606	0.079053697	0.024365117
2020-07-15T20:15:00	0.1998	13.469	210.0	0.465319129	0.550432980	0.007643584	0.078857444	0.024304630
2020-07-15T20:20:00	0.2008	13.456	211.0	0.468842176	0.555213224	0.007748832	0.079943268	0.024639291
2020-07-15T20:25:00	0.2009	13.445	210.0	0.469244019	0.555759090	0.007760881	0.080067583	0.024677607
2020-07-15T20:30:00	0.2011	13.433	210.0	0.469992306	0.556775910	0.007783344	0.080299329	0.024749033
2020-07-15T20:35:00	0.2012	13.421	210.0	0.470047560	0.556851010	0.007785004	0.080316454	0.024754311
2020-07-15T20:40:00	0.2011	13.408	210.0	0.469756331	0.556455204	0.007776257	0.080226211	0.024726497
2020-07-15T20:45:00	0.2004	13.395	210.0	0.467385259	0.553235212	0.007705222	0.079493350	0.024500623
2020-07-15T20:50:00	0.1999	13.382	210.0	0.465706421	0.550957995	0.007655119	0.078976452	0.024341309
2020-07-15T20:55:00	0.1998	13.371	210.0	0.465414817	0.550562683	0.007646433	0.078886839	0.024313690
2020-07-15T21:00:00	0.1997	13.358	210.0	0.465123187	0.550167405	0.007637751	0.078797268	0.024286083
2020-07-15T21:05:00	0.1994	13.346	210.0	0.463790354	0.548361724	0.007598133	0.078388542	0.024160110
2020-07-15T21:10:00	0.1991	13.335	210.0	0.462804225	0.547026653	0.007568887	0.078086809	0.024067113
2020-07-15T21:15:00	0.1990	13.325	210.0	0.462512370	0.546631672	0.007560241	0.077997618	0.024039623
2020-07-15T21:20:00	0.1994	13.312	210.0	0.463956417	0.548586624	0.007603064	0.078439410	0.024175788
2020-07-15T21:25:00	0.1997	13.299	210.0	0.465052880	0.550072119	0.007635659	0.078775682	0.024279430
2020-07-15T21:30:00	0.1997	13.288	210.0	0.465108214	0.550147112	0.007637305	0.078792671	0.024284666
2020-07-15T21:35:00	0.1998	13.276	210.0	0.465163548	0.550222106	0.007638952	0.078809662	0.024289903
2020-07-15T21:40:00	0.2000	13.266	209.0	0.465912741	0.551237732	0.007661268	0.079039886	0.024360861
2020-07-15T21:45:00	0.2001	13.254	209.0	0.466314933	0.551783137	0.007673261	0.079163615	0.024398995
2020-07-15T21:50:00	0.1996	13.243	209.0	0.464635562	0.549506622	0.007623245	0.078647612	0.024239958
2020-07-15T21:55:00	0.1987	13.234	209.0	0.461566271	0.545351738	0.007532250	0.077708834	0.023950617
2020-07-15T22:00:00	0.1987	13.223	209.0	0.461621662	0.545426656	0.007533887	0.077725727	0.023955824
2020-07-15T22:05:00	0.1983	13.211	209.0	0.460087546	0.543352660	0.007488602	0.077258528	0.023811829
2020-07-15T22:10:00	0.1980	13.200	210.0	0.458900366	0.541748970	0.007453650	0.076897935	0.023700690
2020-07-15T22:15:00	0.1989	13.189	209.0	0.462230362	0.546250082	0.007551893	0.077911483	0.024013076
2020-07-15T22:20:00	0.1987	13.180	209.0	0.461391316	0.545115128	0.007527079	0.077655489	0.023934176
2020-07-15T22:25:00	0.1983	13.167	209.0	0.460204596	0.543510836	0.007492053	0.077294125	0.023822800
2020-07-15T22:30:00	0.1985	13.156	209.0	0.460755038	0.544254823	0.007508289	0.077461635	0.023874428
2020-07-15T22:35:00	0.1980	13.147	209.0	0.459220527	0.542181345	0.007463068	0.076995098	0.023730637
2020-07-15T22:40:00	0.1982	13.138	209.0	0.459771129	0.542925122	0.007479279	0.077162338	0.023782182
2020-07-15T22:45:00	0.1979	13.129	209.0	0.458583838	0.541321578	0.007444345	0.076801932	0.023671101
2020-07-15T22:50:00	0.1971	13.120	209.0	0.456004744	0.537842121	0.007368736	0.076021896	0.023430687
2020-07-15T22:55:00	0.1976	13.110	209.0	0.457599293	0.539992708	0.007415437	0.076503700	0.023579183
2020-07-15T23:00:00	0.1978	13.101	209.0	0.458497839	0.541205473	0.007441818	0.076775860	0.023663066
2020-07-15T23:05:00	0.1982	13.093	209.0	0.459743694	0.542888055	0.007478470	0.077154001	0.023779612
2020-07-15T23:10:00	0.1972	13.083	209.0	0.456121936	0.538000111	0.007372164	0.076057256	0.023441585
2020-07-15T23:15:00	0.1974	13.075	209.0	0.457020877	0.539212359	0.007398480	0.076328755	0.023525263
2020-07-15T23:20:00	0.1968	13.067	208.0	0.454788645	0.536203303	0.007333217	0.075655448	0.023317744
2020-07-15T23:25:00	0.1967	13.057	208.0	0.454643929	0.536008361	0.007328996	0.075611898	0.023304321
2020-07-15T23:30:00	0.1978	13.051	208.0	0.458325836	0.540973272	0.007436764	0.076723725	0.023646997
2020-07-15T23:35:00	0.1979	13.042	208.0	0.458876585	0.541716857	0.007452951	0.076890720	0.023698467
2020-07-15T23:40:00	0.1979	13.034	208.0	0.458732046	0.541521685	0.007448701	0.076846876	0.023684954
2020-07-15T23:45:00	0.1978	13.027	209.0	0.458239831	0.540857175	0.007434238	0.076697663	0.023638965
2020-07-15T23:50:00	0.1977	13.019	208.0	0.458095264	0.540662040	0.007429993	0.076653865	0.023625466
2020-07-15T23:55:00	0.1973	13.012	209.0	0.456559538	0.538590150	0.007384969	0.076189361	0.023482301
2020-07-16T00:00:00	0.1975	13.006	208.0	0.457458362	0.539802551	0.007411304	0.076461056	0.023566040
2020-07-16T00:05:00	0.1976	12.998	208.0	0.457661525	0.540076682	0.007417263	0.076522534	0.023584988
2020-07-16T00:10:00	0.1968	12.991	208.0	0.454733692	0.536129276	0.007331614	0.075638909	0.023312646
2020-07-16T00:15:00	0.1964	12.984	208.0	0.453544619	0.534528058	0.007296969	0.075281483	0.023202484
2020-07-16T00:20:00	0.1959	12.977	208.0	0.451658460	0.531990426	0.007242178	0.074716220	0.023028265
2020-07-16T00:25:00	0.1956	12.970	208.0	0.450816770	0.530858925	0.007217794	0.074464648	0.022950728
2020-07-16T00:30:00	0.1955	12.963	208.0	0.450323393	0.530195928	0.007203519	0.074317377	0.022905337
2020-07-16T00:35:00	0.1952	12.957	208.0	0.449481368	0.529064862	0.007179188	0.074066364	0.022827973
2020-07-16T00:40:00	0.1953	12.950	209.0	0.449685015	0.529338363	0.007185069	0.074127034	0.022846672
2020-07-16T00:45:00	0.1953	12.944	208.0	0.449540079	0.529143708	0.007180884	0.074083853	0.022833363
2020-07-16T00:50:00	0.1945	12.938	208.0	0.446954022	0.525673308	0.007106402	0.073315444	0.022596532
2020-07-16T00:55:00	0.1946	12.933	208.0	0.447157822	0.525946610	0.007112258	0.073375858	0.022615152
2020-07-16T01:00:00	0.1943	12.927	208.0	0.446315001	0.524816575	0.007088057	0.073126173	0.022538197
2020-07-16T01:05:00	0.1944	12.922	208.0	0.446518840	0.525089827	0.007093906	0.073186522	0.022556797
2020-07-16T01:10:00	0.1948	12.917	208.0	0.447769149	0.526766613	0.007129838	0.073557224	0.022671051
2020-07-16T01:15:00	0.1953	12.911	207.0	0.449716204	0.529380254	0.007185970	0.074136328	0.022849536
2020-07-16T01:20:00	0.1947	12.905	207.0	0.447479105	0.526377525	0.007121495	0.073471148	0.022644521
2020-07-16T01:25:00	0.1949	12.900	207.0	0.448380364	0.527586759	0.007147436	0.073738776	0.022727007
2020-07-16T01:30:00	0.1947	12.895	207.0	0.447537850	0.526456326	0.007123184	0.073488578	0.022649893
2020-07-16T01:35:00	0.1942	12.891	207.0	0.445997283	0.524390731	0.007078944	0.073032157	0.022509220
2020-07-16T01:40:00	0.1944	12.886	206.0	0.446550059	0.525131679	0.007094802	0.073195767	0.022559646
2020-07-16T01:45:00	0.1947	12.883	206.0	0.447451569	0.526340590	0.007120703	0.073462978	0.022642003
2020-07-16T01:50:00	0.1949	12.879	206.0	0.448352835	0.527549814	0.007146643	0.073730594	0.022724485
2020-07-16T01:55:00	0.1951	12.876	206.0	0.448905223	0.528291266	0.007162564	0.073894852	0.022775111
2020-07-16T02:00:00	0.1947	12.873	206.0	0.447714081	0.526692736	0.007128254	0.073540878	0.022666013
2020-07-16T02:05:00	0.1950	12.869	206.0	0.448615277	0.527902051	0.007154205	0.073808611	0.022748531
2020-07-16T02:10:00	0.1953	12.866	206.0	0.449516231	0.529111681	0.007180195	0.074076749	0.022831173
2020-07-16T02:15:00	0.1960	12.862	206.0	0.452158977	0.532663548	0.007256698	0.074866017	0.023074434
2020-07-16T02:20:00	0.1979	12.854	205.0	0.458625930	0.541378409	0.007445582	0.076814696	0.023675035
2020-07-16T02:25:00	0.1989	12.851	205.0	0.462303481	0.546349016	0.007554057	0.077933812	0.024019958
2020-07-16T02:30:00	0.1997	12.846	203.0	0.464936195	0.549913988	0.007632187	0.078739862	0.024268390
2020-07-16T02:35:00	0.1998	12.842	202.0	0.465485864	0.550658991	0.007648549	0.078908668	0.024320418
2020-07-16T02:40:00	0.2010	12.836	202.0	0.469502481	0.556110254	0.007768637	0.080147591	0.024702266
2020-07-16T02:45:00	0.2015	12.834	201.0	0.471090654	0.558269220	0.007816374	0.080640087	0.024854058
2020-07-16T02:50:00	0.2018	12.830	198.0	0.472331863	0.559957918	0.007853782	0.081026024	0.024973008
2020-07-16T02:55:00	0.2019	12.829	198.0	0.472534131	0.560233225	0.007859887	0.081089003	0.024992418
2020-07-16T03:00:00	0.2020	12.827	198.0	0.473082564	0.560979861	0.007876450	0.081259886	0.025045086
2020-07-16T03:05:00	0.2026	12.826	198.0	0.475015033	0.563612630	0.007934951	0.081863429	0.025231104
2020-07-16T03:10:00	0.2035	12.823	197.0	0.477983530	0.567662657	0.008025232	0.082794838	0.025518173
2020-07-16T03:15:00	0.2037	12.822	197.0	0.478876664	0.568882566	0.008052493	0.083076091	0.025604858
2020-07-16T03:20:00	0.2047	12.821	197.0	0.482187024	0.573409651	0.008153936	0.084122659	0.025927420
2020-07-16T03:25:00	0.2043	12.818	198.0	0.481007590	0.571795714	0.008117722	0.083749038	0.025812267
2020-07-16T03:30:00	0.2045	12.817	197.0	0.481554652	0.572544175	0.008134509	0.083922234	0.025865647
2020-07-16T03:35:00	0.2053	12.814	198.0	0.484517425	0.576601839	0.008225726	0.084863304	0.026155694
2020-07-16T03:40:00	0.2058	12.814	198.0	0.486098570	0.578770166	0.008274613	0.085367653	0.026311140
2020-07-16T03:45:00	0.2061	12.812	197.0	0.486989569	0.579992930	0.008302224	0.085652515	0.026398937
2020-07-16T03:50:00	0.2060	12.810	197.0	0.486846226	0.579796171	0.008297779	0.085606655	0.026384802
2020-07-16T03:55:00	0.2062	12.809	198.0	0.487392347	0.580545892	0.008314721	0.085781441	0.026438673
2020-07-16T04:00:00	0.2064	12.808	198.0	0.488283006	0.581769113	0.008342388	0.086066877	0.026526647
2020-07-16T04:05:00	0.2064	12.808	198.0	0.488231133	0.581697853	0.008340775	0.086050240	0.026521520
2020-07-16T04:10:00	0.2065	12.808	198.0	0.488523861	0.582100009	0.008349877	0.086144146	0.026550463
2020-07-16T04:15:00	0.2065	12.808	198.0	0.488471991	0.582028744	0.008348264	0.086127503	0.026545333
2020-07-16T04:20:00	0.2071	12.810	198.0	0.490487063	0.584798867	0.008411050	0.086775250	0.026744975
2020-07-16T04:25:00	0.2069	12.811	198.0	0.489746372	0.583780259	0.008387944	0.086536874	0.026671505
2020-07-16T04:30:00	0.2066	12.812	198.0	0.488660966	0.582288390	0.008354142	0.086188147	0.026564024
2020-07-16T04:35:00	0.2067	12.816	198.0	0.489298180	0.583164115	0.008373978	0.086392791	0.026627097
2020-07-16T04:40:00	0.2079	12.816	197.0	0.493377947	0.588778651	0.008501532	0.087708737	0.027032684
2020-07-16T04:45:00	0.2084	12.816	197.0	0.495046208	0.591078341	0.008553966	0.088249689	0.027199411
2020-07-16T04:50:00	0.2086	12.817	197.0	0.495682228	0.591955678	0.008573998	0.088456361	0.027263109
2020-07-16T04:55:00	0.2092	12.819	197.0	0.497693036	0.594731562	0.008637486	0.089111347	0.027464983
2020-07-16T05:00:00	0.2093	12.821	196.0	0.497984951	0.595134815	0.008646722	0.089206633	0.027494351
2020-07-16T05:05:00	0.2094	12.824	196.0	0.498620422	0.596012896	0.008666845	0.089414237	0.027558336
2020-07-16T05:10:00	0.2096	12.826	196.0	0.499255775	0.596891138	0.008686987	0.089622043	0.027622384
2020-07-16T05:15:00	0.2101	12.829	196.0	0.500921162	0.599194726	0.008739895	0.090167884	0.027790618
2020-07-16T05:20:00	0.2108	12.831	197.0	0.503271997	0.602450233	0.008814851	0.090941197	0.028028960
2020-07-16T05:25:00	0.2113	12.833	196.0	0.504935426	0.604756488	0.008868083	0.091490375	0.028198222
2020-07-16T05:30:00	0.2119	12.837	197.0	0.506940791	0.607539782	0.008932469	0.092154637	0.028402954
2020-07-16T05:35:00	0.2125	12.841	197.0	0.508944981	0.610324685	0.008997050	0.092820906	0.028608305
2020-07-16T05:40:00	0.2127	12.848	198.0	0.509920863	0.611681887	0.009028580	0.093146195	0.028708562
2020-07-16T05:45:00	0.2130	12.853	197.0	0.510896467	0.613039470	0.009060156	0.093471960	0.028808966
2020-07-16T05:50:00	0.2137	12.858	198.0	0.513240458	0.616304348	0.009136246	0.094256968	0.029050913
2020-07-16T05:55:00	0.2141	12.861	198.0	0.514557100	0.618140211	0.009179126	0.094699356	0.029187261
2020-07-16T06:00:00	0.2148	12.867	198.0	0.516898590	0.621408534	0.009255632	0.095488651	0.029430530
2020-07-16T06:05:00	0.2143	12.874	199.0	0.515138034	0.618950681	0.009198078	0.094894877	0.029247523
2020-07-16T06:10:00	0.2144	12.880	199.0	0.515428463	0.619355968	0.009207560	0.094992701	0.029277673
2020-07-16T06:15:00	0.2158	12.886	199.0	0.520501441	0.626446176	0.009373973	0.096709551	0.029806823
2020-07-16T06:20:00	0.2163	12.889	199.0	0.522156530	0.628763910	0.009428589	0.097273019	0.029980489
2020-07-16T06:25:00	0.2177	12.890	199.0	0.526878870	0.635389149	0.009585298	0.098889753	0.030478782
2020-07-16T06:30:00	0.2187	12.891	199.0	0.530233368	0.640106376	0.009697404	0.100046331	0.030835251
2020-07-16T06:35:00	0.2196	12.892	200.0	0.533244510	0.644348561	0.009798594	0.101090289	0.031157009
2020-07-16T06:40:00	0.2200	12.893	200.0	0.534553521	0.646195038	0.009842749	0.101545822	0.031297409
2020-07-16T06:45:00	0.2205	12.893	200.0	0.536541682	0.649002188	0.009910003	0.102239673	0.031511260
2020-07-16T06:50:00	0.2205	12.902	200.0	0.536490534	0.648929931	0.009908270	0.102221793	0.031505749
2020-07-16T06:55:00	0.2205	12.916	200.0	0.536439385	0.648857674	0.009906537	0.102203914	0.031500239
2020-07-16T07:00:00	0.2206	12.926	201.0	0.536728024	0.649265456	0.009916318	0.102304827	0.031531341
2020-07-16T07:05:00	0.2207	12.938	200.0	0.537016638	0.649673273	0.009926104	0.102405781	0.031562456
2020-07-16T07:10:00	0.2213	12.947	201.0	0.539003383	0.652482417	0.009993596	0.103102086	0.031777064
2020-07-16T07:15:00	0.2217	12.957	201.0	0.540310215	0.654331961	0.010038116	0.103561396	0.031918628
2020-07-16T07:20:00	0.2220	12.970	201.0	0.541616553	0.656182201	0.010082720	0.104021564	0.032060456
2020-07-16T07:25:00	0.2223	12.985	201.0	0.542583220	0.657552243	0.010115790	0.104362742	0.032165611
2020-07-16T07:30:00	0.2216	13.004	202.0	0.540156936	0.654114955	0.010032889	0.103507471	0.031902008
2020-07-16T07:35:00	0.2213	13.020	201.0	0.539087374	0.652601247	0.009996454	0.103131575	0.031786153
2020-07-16T07:40:00	0.2208	13.035	202.0	0.537338126	0.650127620	0.009937009	0.102518293	0.031597134
2020-07-16T07:45:00	0.2210	13.043	201.0	0.537966355	0.651015717	0.009958338	0.102738336	0.031664953
2020-07-16T07:50:00	0.2220	13.059	202.0	0.541649410	0.656228756	0.010083843	0.104033151	0.032064027
2020-07-16T07:55:00	0.2226	13.072	202.0	0.543633498	0.659041653	0.010151783	0.104734070	0.032280058
2020-07-16T08:00:00	0.2231	13.084	202.0	0.545277533	0.661374889	0.010208253	0.105316661	0.032459618
2020-07-16T08:05:00	0.2229	13.091	202.0	0.544548573	0.660340066	0.010183195	0.105058141	0.032379939
2020-07-16T08:10:00	0.2226	13.095	202.0	0.543480366	0.658824440	0.010146531	0.104679889	0.032263358
2020-07-16T08:15:00	0.2227	13.101	202.0	0.543768418	0.659233051	0.010156411	0.104781820	0.032294775
2020-07-16T08:20:00	0.2230	13.109	202.0	0.544734484	0.660603942	0.010189582	0.105124042	0.032400251
2020-07-16T08:25:00	0.2231	13.120	202.0	0.545361373	0.661493935	0.010211137	0.105346415	0.032468788
2020-07-16T08:30:00	0.2233	13.120	202.0	0.545988149	0.662384088	0.010232710	0.105568985	0.032537387
2020-07-16T08:35:00	0.2241	13.117	202.0	0.548647029	0.666163837	0.010324485	0.106515805	0.032829205
2020-07-16T08:40:00	0.2246	13.116	202.0	0.550288690	0.668500447	0.010381356	0.107102532	0.033010041
2020-07-16T08:45:00	0.2251	13.121	202.0	0.551929577	0.670838162	0.010438358	0.107690613	0.033191293
2020-07-16T08:50:00	0.2255	13.125	203.0	0.553231548	0.672694609	0.010483699	0.108158391	0.033335467
2020-07-16T08:55:00	0.2260	13.126	203.0	0.554871046	0.675034308	0.010540936	0.108748899	0.033517467
2020-07-16T09:00:00	0.2264	13.129	203.0	0.556509772	0.677375113	0.010598305	0.109340757	0.033699883
2020-07-16T09:05:00	0.2267	13.135	203.0	0.557472302	0.678751048	0.010632075	0.109689154	0.033807263
2020-07-16T09:10:00	0.2268	13.144	203.0	0.557759196	0.679161310	0.010642151	0.109793107	0.033839302
2020-07-16T09:15:00	0.2266	13.154	203.0	0.557032849	0.678122756	0.010616650	0.109530020	0.033758216
2020-07-16T09:20:00	0.2261	13.171	203.0	0.555292628	0.675636297	0.010555680	0.108901006	0.033564348
2020-07-16T09:25:00	0.2261	13.206	203.0	0.555241756	0.675563648	0.010553900	0.108882645	0.033558689
2020-07-16T09:30:00	0.2264	13.217	203.0	0.556542488	0.677421868	0.010599452	0.109352590	0.033703530
2020-07-16T09:35:00	0.2262	13.261	203.0	0.555815888	0.676383679	0.010573994	0.109089948	0.033622582
2020-07-16T09:40:00	0.2264	13.312	203.0	0.556440780	0.677276518	0.010595886	0.109315807	0.033692193
2020-07-16T09:45:00	0.2267	13.307	203.0	0.557403329	0.678652426	0.010629653	0.109664170	0.033799562
2020-07-16T09:50:00	0.2265	13.304	203.0	0.556676908	0.677613979	0.010604165	0.109401214	0.033718517
2020-07-16T09:55:00	0.2269	13.310	204.0	0.557977104	0.679472968	0.010649807	0.109872097	0.033863647
2020-07-16T10:00:00	0.2266	13.328	204.0	0.556913020	0.677951463	0.010612446	0.109486649	0.033744848
2020-07-16T10:05:00	0.2266	13.355	204.0	0.557110361	0.678233565	0.010619370	0.109558080	0.033766864
2020-07-16T10:10:00	0.2256	13.374	204.0	0.553590331	0.673206433	0.010496211	0.108287477	0.033375252
2020-07-16T10:15:00	0.2245	13.396	204.0	0.550066734	0.668184403	0.010373657	0.107023110	0.032985562
2020-07-16T10:20:00	0.2232	13.460	204.0	0.545522981	0.661723422	0.010216697	0.105403780	0.032486469
2020-07-16T10:25:00	0.2219	13.488	204.0	0.541312604	0.655751576	0.010072333	0.103914403	0.032027428
2020-07-16T10:30:00	0.2220	13.491	204.0	0.541510833	0.656032412	0.010079107	0.103984285	0.032048966
2020-07-16T10:35:00	0.2206	13.514	205.0	0.536616073	0.649107287	0.009912524	0.102265681	0.031519276
2020-07-16T10:40:00	0.2198	13.557	205.0	0.534095403	0.645548661	0.009827284	0.101386280	0.031248236
2020-07-16T10:45:00	0.2187	13.607	205.0	0.530211507	0.640075604	0.009696671	0.100038772	0.030832921
2020-07-16T10:50:00	0.2190	13.634	205.0	0.531431403	0.641793318	0.009737601	0.100461034	0.030963066
2020-07-16T10:55:00	0.2176	13.671	206.0	0.526522324	0.634888298	0.009573421	0.098767220	0.030441016
2020-07-16T11:00:00	0.2173	13.690	206.0	0.525358103	0.633253602	0.009534690	0.098367644	0.030317863
2020-07-16T11:05:00	0.2182	13.696	206.0	0.528623743	0.637841715	0.009643529	0.099490514	0.030663943
2020-07-16T11:10:00	0.2171	13.712	206.0	0.524733674	0.632377288	0.009513950	0.098153668	0.030251914
2020-07-16T11:15:00	0.2160	13.720	206.0	0.521180528	0.627396879	0.009396363	0.096940544	0.029878017
2020-07-16T11:20:00	0.2160	13.728	206.0	0.521038613	0.627198171	0.009391682	0.096892249	0.029863132
2020-07-16T11:25:00	0.2154	13.743	206.0	0.518848070	0.624133064	0.009319572	0.096148307	0.029633842
2020-07-16T11:30:00	0.2144	13.765	206.0	0.515630704	0.619638229	0.009214166	0.095060851	0.029298677
2020-07-16T11:35:00	0.2137	13.791	206.0	0.513094611	0.616101072	0.009131502	0.094208028	0.029035829
2020-07-16T11:40:00	0.2125	13.816	207.0	0.509186902	0.610661064	0.009004861	0.092901492	0.028633142
2020-07-16T11:45:00	0.2114	13.840	207.0	0.505274726	0.605227182	0.008878960	0.091602597	0.028232810
2020-07-16T11:50:00	0.2106	13.858	207.0	0.502730944	0.601700572	0.008797572	0.090762925	0.027974015
2020-07-16T11:55:00	0.2097	13.886	207.0	0.499498384	0.597226579	0.008694684	0.089701457	0.027646860
2020-07-16T12:00:00	0.2087	13.908	207.0	0.495918938	0.592282283	0.008581460	0.088533340	0.027286835
2020-07-16T12:05:00	0.2091	13.933	207.0	0.497494791	0.594457745	0.008631216	0.089046665	0.027445047
2020-07-16T12:10:00	0.2080	13.968	208.0	0.493569182	0.589042155	0.008507534	0.087770663	0.027051771
2020-07-16T12:15:00	0.2070	14.015	207.0	0.490327914	0.584579966	0.008406082	0.086724003	0.026729180
2020-07-16T12:20:00	0.2071	14.034	208.0	0.490529111	0.584856705	0.008412362	0.086788792	0.026749149
2020-07-16T12:25:00	0.2073	14.047	208.0	0.491074640	0.585607223	0.008429401	0.086964581	0.026803328
2020-07-16T12:30:00	0.2070	14.069	208.0	0.490242719	0.584462794	0.008403424	0.086696577	0.026720727
2020-07-16T12:35:00	0.2069	14.100	209.0	0.489755072	0.583792221	0.008388215	0.086539672	0.026672367
2020-07-16T12:40:00	0.2067	14.136	208.0	0.489267355	0.583121743	0.008373018	0.086382886	0.026624044
2020-07-16T12:45:00	0.2062	14.170	209.0	0.487401053	0.580557846	0.008314991	0.085784229	0.026439533
2020-07-16T12:50:00	0.2058	14.195	209.0	0.486223432	0.578941482	0.008278479	0.085407545	0.026323435
2020-07-16T12:55:00	0.2060	14.225	209.0	0.486769652	0.579691068	0.008295405	0.085582161	0.026377253
2020-07-16T13:00:00	0.2053	14.268	210.0	0.484212002	0.576183224	0.008216300	0.084766052	0.026125720
2020-07-16T13:05:00	0.2044	14.291	210.0	0.481307122	0.572205488	0.008126911	0.083843846	0.025841487
2020-07-16T13:10:00	0.2049	14.314	210.0	0.482889764	0.574371810	0.008175552	0.084345664	0.025996153
2020-07-16T13:15:00	0.2044	14.326	210.0	0.481365281	0.572285060	0.008128696	0.083862260	0.025847163
2020-07-16T13:20:00	0.2043	14.333	210.0	0.480876356	0.571616201	0.008113697	0.083707517	0.025799470
2020-07-16T13:25:00	0.2043	14.324	210.0	0.480732755	0.571419789	0.008109294	0.083662094	0.025785470
2020-07-16T13:30:00	0.2037	14.304	210.0	0.478861751	0.568862192	0.008052038	0.083071391	0.025603409
2020-07-16T13:35:00	0.2027	14.288	210.0	0.475260477	0.563947231	0.007942397	0.081940243	0.025254779
2020-07-16T13:40:00	0.2024	14.275	210.0	0.474424666	0.562808007	0.007917057	0.081678813	0.025174204
2020-07-16T13:45:00	0.2013	14.266	210.0	0.470472252	0.557428325	0.007797769	0.080448143	0.024794899
2020-07-16T13:50:00	0.1999	14.262	210.0	0.465821469	0.551113976	0.007658547	0.079011821	0.024352211
2020-07-16T13:55:00	0.2001	14.261	210.0	0.466370993	0.551859169	0.007674933	0.079180869	0.024404313
2020-07-16T14:00:00	0.2000	14.269	210.0	0.465879894	0.551193194	0.007660289	0.079029786	0.024357747
2020-07-16T14:05:00	0.2013	14.277	210.0	0.470588942	0.557586975	0.007801278	0.080484344	0.024806057
2020-07-16T14:10:00	0.2009	14.279	210.0	0.469058903	0.555507611	0.007755329	0.080010303	0.024659952
2020-07-16T14:15:00	0.2010	14.275	210.0	0.469607901	0.556253500	0.007771801	0.080180236	0.024712328
2020-07-16T14:20:00	0.2000	14.272	210.0	0.465996743	0.551351635	0.007663772	0.079065720	0.024368823
2020-07-16T14:25:00	0.1999	14.283	210.0	0.465505590	0.550685732	0.007649136	0.078914729	0.024322286
2020-07-16T14:30:00	0.1991	14.309	210.0	0.462931799	0.547199325	0.007572667	0.078125811	0.024079134
2020-07-16T14:35:00	0.1989	14.340	210.0	0.462092928	0.546064142	0.007547825	0.077869524	0.024000143
2020-07-16T14:40:00	0.1978	14.365	210.0	0.458473701	0.541172885	0.007441108	0.076768542	0.023660810
2020-07-16T14:45:00	0.1969	14.388	210.0	0.455198593	0.536755619	0.007345181	0.075778881	0.023355787
2020-07-16T14:50:00	0.1969	14.413	211.0	0.455401893	0.537029571	0.007351118	0.075840130	0.023374665
2020-07-16T14:55:00	0.1956	14.436	211.0	0.450730217	0.530742602	0.007215289	0.074438802	0.022942762
2020-07-16T15:00:00	0.1954	14.453	211.0	0.449888294	0.529611403	0.007190942	0.074187619	0.022865345
2020-07-16T15:05:00	0.1946	14.466	211.0	0.447302506	0.526140655	0.007116417	0.073418763	0.022628376
2020-07-16T15:10:00	0.1941	14.479	211.0	0.445412830	0.523607584	0.007062195	0.072859366	0.022455964
2020-07-16T15:15:00	0.1972	14.470	211.0	0.456418208	0.538399572	0.007380832	0.076146683	0.023469147
2020-07-16T15:20:00	0.1990	14.449	211.0	0.462529754	0.546655197	0.007560756	0.078002929	0.024041260
2020-07-16T15:25:00	0.1989	14.420	211.0	0.462038095	0.545989959	0.007546203	0.077852786	0.023994985
2020-07-16T15:30:00	0.1994	14.384	211.0	0.463976899	0.548614364	0.007603672	0.078445685	0.024177722
2020-07-16T15:35:00	0.1994	14.351	211.0	0.463832578	0.548418906	0.007599387	0.078401474	0.024164096
2020-07-16T15:40:00	0.1995	14.319	211.0	0.464382427	0.549163672	0.007615720	0.078569978	0.024216030
2020-07-16T15:45:00	0.2004	14.288	211.0	0.467360281	0.553201315	0.007704475	0.079485647	0.024498248
2020-07-16T15:50:00	0.2013	14.255	210.0	0.470681930	0.557713408	0.007804075	0.080513199	0.024814950
2020-07-16T15:55:00	0.2006	14.224	210.0	0.468112088	0.554221795	0.007726963	0.079717649	0.024569754
2020-07-16T16:00:00	0.2000	14.196	210.0	0.465887202	0.551203103	0.007660506	0.079032033	0.024358440
2020-07-16T16:05:00	0.1986	14.174	210.0	0.460984169	0.544564592	0.007515053	0.077531417	0.023895936
2020-07-16T16:10:00	0.1980	14.156	210.0	0.459203716	0.542158641	0.007462573	0.076989995	0.023729064
2020-07-16T16:15:00	0.1982	14.137	210.0	0.459855835	0.543039568	0.007481774	0.077188083	0.023790117
2020-07-16T16:20:00	0.1979	14.120	210.0	0.458770120	0.541573096	0.007449820	0.076858424	0.023688513
2020-07-16T16:25:00	0.1977	14.101	210.0	0.458031780	0.540576355	0.007428129	0.076634636	0.023619539
2020-07-16T16:30:00	0.1978	14.085	210.0	0.458336468	0.540987624	0.007437076	0.076726947	0.023647990
2020-07-16T16:35:00	0.1978	14.066	210.0	0.458293466	0.540929576	0.007435813	0.076713916	0.023643974
2020-07-16T16:40:00	0.1984	14.046	210.0	0.460335928	0.543688324	0.007495925	0.077334076	0.023835113
2020-07-16T16:45:00	0.1984	14.026	210.0	0.460292952	0.543630242	0.007494658	0.077321001	0.023831084
2020-07-16T16:50:00	0.1987	14.006	210.0	0.461639602	0.545450919	0.007534418	0.077731198	0.023957510
2020-07-16T16:55:00	0.1970	13.986	210.0	0.455686681	0.537413386	0.007359438	0.075925970	0.023401121
2020-07-16T17:00:00	0.1985	13.964	210.0	0.460858922	0.544395262	0.007511355	0.077493269	0.023884178
2020-07-16T17:05:00	0.1986	13.945	209.0	0.461163354	0.544806867	0.007520345	0.077586009	0.023912761
2020-07-16T17:10:00	0.1985	13.923	209.0	0.460772982	0.544279081	0.007508819	0.077467099	0.023876112
2020-07-16T17:15:00	0.1985	13.903	209.0	0.460730011	0.544220991	0.007507551	0.077454015	0.023872080
2020-07-16T17:20:00	0.1982	13.884	209.0	0.459644578	0.542754150	0.007475551	0.077123884	0.023770330
2020-07-16T17:25:00	0.1979	13.867	209.0	0.458558794	0.541287767	0.007443609	0.076794339	0.023668761
2020-07-16T17:30:00	0.1980	13.849	209.0	0.459211039	0.542168531	0.007462789	0.076992218	0.023729749
2020-07-16T17:35:00	0.1987	13.831	209.0	0.461600300	0.545397764	0.007533256	0.077719212	0.023953816
2020-07-16T17:40:00	0.1990	13.813	209.0	0.462599209	0.546749189	0.007562813	0.078024151	0.024047801
2020-07-16T17:45:00	0.1994	13.794	209.0	0.463944937	0.548571076	0.007602723	0.078435893	0.024174704
2020-07-16T17:50:00	0.1997	13.775	209.0	0.464943151	0.549923415	0.007632394	0.078741997	0.024269048
2020-07-16T17:55:00	0.2006	13.756	209.0	0.468021778	0.554099187	0.007724260	0.079689763	0.024561159
2020-07-16T18:00:00	0.2007	13.740	209.0	0.468325564	0.554511642	0.007733354	0.079783587	0.024590076
2020-07-16T18:05:00	0.2001	13.726	209.0	0.466202142	0.551630170	0.007669896	0.079128907	0.024388298
2020-07-16T18:10:00	0.2003	13.712	208.0	0.467199687	0.552983389	0.007699676	0.079436133	0.024482988
2020-07-16T18:15:00	0.2001	13.696	209.0	0.466463194	0.551984223	0.007677684	0.079209249	0.024413060
2020-07-16T18:20:00	0.2008	13.681	209.0	0.468847319	0.555220209	0.007748986	0.079944858	0.024639782
2020-07-16T18:25:00	0.2005	13.665	209.0	0.467764499	0.553749932	0.007716562	0.079610344	0.024536681
2020-07-16T18:30:00	0.2004	13.650	208.0	0.467374890	0.553221141	0.007704912	0.079490153	0.024499637
2020-07-16T18:35:00	0.2003	13.636	208.0	0.466985237	0.552692410	0.007693269	0.079370036	0.024462616
2020-07-16T18:40:00	0.1999	13.622	209.0	0.465554905	0.550752584	0.007650605	0.078929883	0.024326957
2020-07-16T18:45:00	0.1993	13.607	208.0	0.463429736	0.547873412	0.007587432	0.078278135	0.024126081
2020-07-16T18:50:00	0.1998	13.594	209.0	0.465469085	0.550636246	0.007648049	0.078903512	0.024318829
2020-07-16T18:55:00	0.1998	13.580	208.0	0.465426174	0.550578077	0.007646771	0.078890328	0.024314765
2020-07-16T19:00:00	0.1994	13.564	208.0	0.463995179	0.548639123	0.007604215	0.078451286	0.024179448
2020-07-16T19:05:00	0.1991	13.550	208.0	0.462910799	0.547170901	0.007572045	0.078119391	0.024077155
2020-07-16T19:10:00	0.1989	13.535	208.0	0.462173367	0.546172970	0.007550206	0.077894081	0.024007712
2020-07-16T19:15:00	0.1992	13.520	209.0	0.463172106	0.547524619	0.007579791	0.078199305	0.024101785
2020-07-16T19:20:00	0.1991	13.506	208.0	0.462781967	0.546996527	0.007568227	0.078080005	0.024065016
2020-07-16T19:25:00	0.1991	13.491	208.0	0.462739021	0.546938404	0.007566955	0.078066878	0.024060970
2020-07-16T19:30:00	0.1992	13.477	208.0	0.463390456	0.547820229	0.007586267	0.078266113	0.024122376
2020-07-16T19:35:00	0.2000	13.462	208.0	0.466123645	0.551523719	0.007667555	0.079104756	0.024380854
2020-07-16T19:40:00	0.2003	13.450	208.0	0.467121214	0.552876907	0.007697331	0.079411943	0.024475532
2020-07-16T19:45:00	0.2011	13.436	208.0	0.469851382	0.556584380	0.007779111	0.080255659	0.024735574
2020-07-16T19:50:00	0.2008	13.423	208.0	0.468768884	0.555113677	0.007746635	0.079920604	0.024632306
2020-07-16T19:55:00	0.2004	13.411	208.0	0.467339309	0.553172854	0.007703848	0.079479180	0.024496255
2020-07-16T20:00:00	0.2002	13.399	208.0	0.466602845	0.552173649	0.007681851	0.079252246	0.024426312
2020-07-16T20:05:00	0.1999	13.388	208.0	0.465519304	0.550704322	0.007649545	0.078918943	0.024323585
2020-07-16T20:10:00	0.1999	13.376	208.0	0.465823315	0.551116480	0.007658602	0.079012389	0.024352386
2020-07-16T20:15:00	0.2001	13.363	208.0	0.466474154	0.551999089	0.007678011	0.079212623	0.024414100
2020-07-16T20:20:00	0.2004	13.352	208.0	0.467471619	0.553352414	0.007707803	0.079519985	0.024508832
2020-07-16T20:25:00	0.2007	13.342	208.0	0.468468790	0.554706128	0.007737643	0.079827841	0.024603716
2020-07-16T20:30:00	0.2016	13.331	207.0	0.471544202	0.558886142	0.007830033	0.080781006	0.024897491
2020-07-16T20:35:00	0.2017	13.321	207.0	0.471847671	0.559299016	0.007839179	0.080875363	0.024926572
2020-07-16T20:40:00	0.2015	13.311	208.0	0.471112191	0.558298512	0.007817022	0.080646776	0.024856120
2020-07-16T20:45:00	0.2014	13.302	207.0	0.470722969	0.557769210	0.007805309	0.080525935	0.024818875
2020-07-16T20:50:00	0.2010	13.291	207.0	0.469640750	0.556298138	0.007772787	0.080190410	0.024715463
2020-07-16T20:55:00	0.2013	13.277	207.0	0.470637280	0.557652698	0.007802732	0.080499343	0.024810679
2020-07-16T21:00:00	0.2015	13.267	207.0	0.471287191	0.558536532	0.007822291	0.080701137	0.024872874
2020-07-16T21:05:00	0.2015	13.256	207.0	0.471244354	0.558478267	0.007821001	0.080687829	0.024868772
2020-07-16T21:10:00	0.2019	13.242	207.0	0.472586637	0.560304697	0.007861472	0.081105356	0.024997458
2020-07-16T21:15:00	0.2018	13.231	207.0	0.472197585	0.559775171	0.007849731	0.080984229	0.024960126
2020-07-16T21:20:00	0.2015	13.219	206.0	0.471115839	0.558303474	0.007817132	0.080647909	0.024856469
2020-07-16T21:25:00	0.2013	13.208	206.0	0.470380200	0.557303180	0.007795001	0.080419590	0.024786099
2020-07-16T21:30:00	0.2012	13.198	206.0	0.470337351	0.557244929	0.007793713	0.080406301	0.024782003
2020-07-16T21:35:00	0.2016	13.187	206.0	0.471679996	0.559070883	0.007834125	0.080823222	0.024910502
2020-07-16T21:40:00	0.2005	13.177	206.0	0.467825640	0.553832926	0.007718391	0.079629214	0.024542497
2020-07-16T21:45:00	0.2007	13.166	206.0	0.468476092	0.554716044	0.007737862	0.079830098	0.024604411
2020-07-16T21:50:00	0.2004	13.156	206.0	0.467393152	0.553245924	0.007705457	0.079495784	0.024501373
2020-07-16T21:55:00	0.1996	13.146	206.0	0.464575150	0.549424770	0.007621449	0.078629081	0.024234246
2020-07-16T22:00:00	0.1994	13.137	206.0	0.463838082	0.548426360	0.007599550	0.078403160	0.024164615
2020-07-16T22:05:00	0.1988	13.127	206.0	0.461810177	0.545681640	0.007539461	0.077783232	0.023973548
2020-07-16T22:10:00	0.1993	13.118	206.0	0.463601675	0.548106221	0.007592533	0.078330766	0.024142303
2020-07-16T22:15:00	0.1997	13.109	206.0	0.465045255	0.550061786	0.007635432	0.078773341	0.024278709
2020-07-16T22:20:00	0.2001	13.099	206.0	0.466488218	0.552018165	0.007678431	0.079216953	0.024415434
2020-07-16T22:25:00	0.1992	13.090	206.0	0.463073445	0.547391060	0.007576866	0.078169127	0.024092484
2020-07-16T22:30:00	0.1981	13.082	206.0	0.459307648	0.542299016	0.007465632	0.077021549	0.023738789
2020-07-16T22:35:00	0.1992	13.073	206.0	0.463184178	0.547540961	0.007580149	0.078202998	0.024102924
2020-07-16T22:40:00	0.1993	13.063	206.0	0.463586695	0.548085937	0.007592089	0.078326180	0.024140889
2020-07-16T22:45:00	0.1980	13.054	206.0	0.459126356	0.542054159	0.007460297	0.076966513	0.023721827
2020-07-16T22:50:00	0.1969	13.045	206.0	0.455356134	0.536967907	0.007349782	0.075826342	0.023370415
2020-07-16T22:55:00	0.1953	13.037	206.0	0.449839341	0.529545647	0.007189527	0.074173027	0.022860847
2020-07-16T23:00:00	0.1947	13.028	206.0	0.447454176	0.526344087	0.007120778	0.073463752	0.022642242
2020-07-16T23:05:00	0.1954	13.021	206.0	0.449950511	0.529694977	0.007192739	0.074206167	0.022871061
2020-07-16T23:10:00	0.1944	13.012	206.0	0.446518880	0.525089880	0.007093907	0.073186534	0.022556800
2020-07-16T23:15:00	0.1945	13.004	206.0	0.446923400	0.525632246	0.007105523	0.073306369	0.022593735
2020-07-16T23:20:00	0.1949	12.997	206.0	0.448374163	0.527578437	0.007147257	0.073736933	0.022726439
2020-07-16T23:25:00	0.1940	12.989	206.0	0.445289965	0.523442984	0.007058677	0.072823067	0.022444777
2020-07-16T23:30:00	0.1939	12.981	206.0	0.444647503	0.522582478	0.007040293	0.072633403	0.022386320
2020-07-16T23:35:00	0.1941	12.973	206.0	0.445401287	0.523592119	0.007061865	0.072855955	0.022454913
2020-07-16T23:40:00	0.1936	12.965	206.0	0.443711422	0.521329285	0.007013549	0.072357492	0.022301282
2020-07-16T23:45:00	0.1939	12.958	206.0	0.444814516	0.522806142	0.007045070	0.072682685	0.022401509
2020-07-16T23:50:00	0.1941	12.948	206.0	0.445568262	0.523815831	0.007066647	0.072905299	0.022470121
2020-07-16T23:55:00	0.1937	12.937	206.0	0.444227642	0.522020297	0.007028291	0.072509585	0.022348158
2020-07-17T00:00:00	0.1939	12.926	206.0	0.444632438	0.522562305	0.007039862	0.072628959	0.022384951
2020-07-17T00:05:00	0.1936	12.913	206.0	0.443640665	0.521234585	0.007011529	0.072336657	0.022294860
2020-07-17T00:10:00	0.1946	12.899	206.0	0.447186507	0.525985080	0.007113083	0.073384363	0.022617773
2020-07-17T00:15:00	0.1946	12.885	205.0	0.447242136	0.526059687	0.007114682	0.073400859	0.022622858
2020-07-17T00:20:00	0.1952	12.869	206.0	0.449390043	0.528942221	0.007176552	0.074039165	0.022819590
2020-07-17T00:25:00	0.1966	12.853	205.0	0.454322465	0.535575387	0.007319623	0.075515204	0.023274519
2020-07-17T00:30:00	0.1980	12.836	206.0	0.458900051	0.541748544	0.007453641	0.076897839	0.023700661
2020-07-17T00:35:00	0.1989	12.818	205.0	0.462082544	0.546050093	0.007547518	0.077866354	0.023999166
2020-07-17T00:40:00	0.1996	12.799	205.0	0.464568035	0.549415131	0.007621237	0.078626898	0.024233574
2020-07-17T00:45:00	0.1999	12.782	205.0	0.465664299	0.550900888	0.007653864	0.078963504	0.024337319
2020-07-17T00:50:00	0.2002	12.760	205.0	0.466760207	0.552387114	0.007686549	0.079300708	0.024441248
2020-07-17T00:55:00	0.2010	12.742	205.0	0.469588787	0.556227527	0.007771227	0.080174317	0.024710503
2020-07-17T01:00:00	0.2011	12.724	205.0	0.469990541	0.556773510	0.007783291	0.080298781	0.024748864
2020-07-17T01:05:00	0.2020	12.703	205.0	0.472816416	0.560617498	0.007868410	0.081176937	0.025019520
2020-07-17T01:10:00	0.2016	12.686	205.0	0.471486619	0.558807809	0.007828298	0.080763109	0.024891974
2020-07-17T01:15:00	0.2017	12.667	204.0	0.471888147	0.559354090	0.007840399	0.080887953	0.024930453
2020-07-17T01:20:00	0.2023	12.646	204.0	0.474020382	0.562257161	0.007904814	0.081552507	0.025135275
2020-07-17T01:25:00	0.2027	12.625	204.0	0.475459514	0.564218604	0.007948437	0.082002560	0.025273985
2020-07-17T01:30:00	0.2025	12.604	204.0	0.474822788	0.563350585	0.007929122	0.081803289	0.025212568
2020-07-17T01:35:00	0.2021	12.583	204.0	0.473147647	0.561068481	0.007878417	0.081280177	0.025051340
2020-07-17T01:40:00	0.2014	12.561	204.0	0.470778956	0.557845339	0.007806993	0.080543312	0.024824231
2020-07-17T01:45:00	0.2007	12.541	204.0	0.468408602	0.554624398	0.007735841	0.079809243	0.024597984
2020-07-17T01:50:00	0.2013	12.519	204.0	0.470543035	0.557524560	0.007799897	0.080470101	0.024801667
2020-07-17T01:55:00	0.2017	12.495	204.0	0.471983648	0.559484039	0.007843279	0.080917660	0.024939609
2020-07-17T02:00:00	0.2014	12.472	204.0	0.470999913	0.558145813	0.007813642	0.080611908	0.024845373
2020-07-17T02:05:00	0.2016	12.452	204.0	0.471401499	0.558692018	0.007825734	0.080736655	0.024883821
2020-07-17T02:10:00	0.2008	12.430	204.0	0.468684991	0.554999737	0.007744121	0.079894666	0.024624312
2020-07-17T02:15:00	0.2012	12.405	203.0	0.470126397	0.556958168	0.007787373	0.080340892	0.024761843
2020-07-17T02:20:00	0.2017	12.382	203.0	0.471913484	0.559388565	0.007841163	0.080895833	0.024932882
2020-07-17T02:25:00	0.2019	12.359	203.0	0.472661180	0.560406168	0.007863722	0.081128574	0.025004614
2020-07-17T02:30:00	0.2026	12.336	203.0	0.475138894	0.563781476	0.007938708	0.081902188	0.025243050
2020-07-17T02:35:00	0.2028	12.312	203.0	0.475539988	0.564328333	0.007950880	0.082027762	0.025281753
2020-07-17T02:40:00	0.2024	12.287	203.0	0.474211262	0.562517222	0.007910593	0.081612130	0.025153651
2020-07-17T02:45:00	0.2025	12.265	202.0	0.474612466	0.563063933	0.007922747	0.081737519	0.025192297
2020-07-17T02:50:00	0.2021	12.245	202.0	0.473283376	0.561253306	0.007882520	0.081322501	0.025064385
2020-07-17T02:55:00	0.2024	12.222	202.0	0.474376813	0.562742799	0.007915607	0.081663858	0.025169594
2020-07-17T03:00:00	0.2019	12.200	202.0	0.472701450	0.560460988	0.007864938	0.081141119	0.025008481
2020-07-17T03:05:00	0.2017	12.177	202.0	0.472064205	0.559593659	0.007845708	0.080942723	0.024947333
2020-07-17T03:10:00	0.2023	12.153	202.0	0.473850267	0.562025413	0.007899665	0.081499389	0.025118903
2020-07-17T03:15:00	0.2024	12.130	202.0	0.474251514	0.562572067	0.007911812	0.081624705	0.025157527
2020-07-17T03:20:00	0.2026	12.110	201.0	0.474998693	0.563590356	0.007934456	0.081858316	0.025229528
2020-07-17T03:25:00	0.2030	12.090	201.0	0.476437409	0.565552353	0.007978147	0.082309070	0.025368455
2020-07-17T03:30:00	0.2031	12.069	201.0	0.476838349	0.566099414	0.007990344	0.082434904	0.025407238
2020-07-17T03:35:00	0.2039	12.048	201.0	0.479658510	0.569950992	0.008076396	0.083322686	0.025680861
2020-07-17T03:40:00	0.2043	12.028	201.0	0.480749889	0.571443223	0.008109820	0.083667513	0.025787140
2020-07-17T03:45:00	0.2036	12.008	201.0	0.478386518	0.568213010	0.008037527	0.082921683	0.025557268
2020-07-17T03:50:00	0.2042	11.989	201.0	0.480514663	0.571121521	0.008102610	0.083593133	0.025764215
2020-07-17T03:55:00	0.2050	11.971	201.0	0.483331766	0.574977180	0.008189162	0.084486077	0.026039430
2020-07-17T04:00:00	0.2055	11.955	200.0	0.485111896	0.577416841	0.008244090	0.085052753	0.026214084
2020-07-17T04:05:00	0.2055	11.936	201.0	0.485111896	0.577416841	0.008244090	0.085052753	0.026214084
2020-07-17T04:10:00	0.2049	11.919	200.0	0.483041678	0.574579855	0.008180229	0.084393910	0.026011023
2020-07-17T04:15:00	0.2049	11.902	200.0	0.483041678	0.574579855	0.008180229	0.084393910	0.026011023
2020-07-17T04:20:00	0.2046	11.887	200.0	0.482006095	0.573161997	0.008148376	0.084065291	0.025909739
2020-07-17T04:25:00	0.2055	11.873	200.0	0.485111896	0.577416841	0.008244090	0.085052753	0.026214084
2020-07-17T04:30:00	0.2056	11.858	200.0	0.485456809	0.577889837	0.008254753	0.085162768	0.026247992
2020-07-17T04:35:00	0.2050	11.845	200.0	0.483386802	0.575052569	0.008190858	0.084503569	0.026044821
2020-07-17T04:40:00	0.2056	11.832	200.0	0.485456809	0.577889837	0.008254753	0.085162768	0.026247992
2020-07-17T04:45:00	0.2064	11.819	200.0	0.488214856	0.581675494	0.008340269	0.086045020	0.026519911
2020-07-17T04:50:00	0.2062	11.806	200.0	0.487525555	0.580728798	0.008318856	0.085824101	0.026451822
2020-07-17T04:55:00	0.2061	11.794	200.0	0.487180851	0.580255520	0.008308158	0.085713731	0.026417804
2020-07-17T05:00:00	0.2062	11.783	199.0	0.487525555	0.580728798	0.008318856	0.085824101	0.026451822
2020-07-17T05:05:00	0.2064	11.773	200.0	0.488214856	0.581675494	0.008340269	0.086045020	0.026519911
2020-07-17T05:10:00	0.2065	11.764	200.0	0.488559455	0.582148913	0.008350985	0.086155568	0.026553983
2020-07-17T05:15:00	0.2072	11.754	200.0	0.490970666	0.585464161	0.008426153	0.086931063	0.026792998
2020-07-17T05:20:00	0.2068	11.748	200.0	0.489593040	0.583569451	0.008383165	0.086487568	0.026656308
2020-07-17T05:25:00	0.2081	11.741	199.0	0.494068285	0.589730007	0.008523210	0.087932386	0.027101615
2020-07-17T05:30:00	0.2083	11.736	199.0	0.494756262	0.590678490	0.008544841	0.088155552	0.027170397
2020-07-17T05:35:00	0.2075	11.732	199.0	0.492003519	0.586885686	0.008458453	0.087264305	0.026895706
2020-07-17T05:40:00	0.2084	11.730	200.0	0.495100198	0.591152803	0.008555665	0.088267223	0.027204815
2020-07-17T05:45:00	0.2083	11.728	200.0	0.494756262	0.590678490	0.008544841	0.088155552	0.027170397
2020-07-17T05:50:00	0.2085	11.727	199.0	0.495444100	0.591627162	0.008566495	0.088378954	0.027239252
2020-07-17T05:55:00	0.2087	11.727	200.0	0.496131799	0.592576021	0.008588172	0.088602592	0.027308179
2020-07-17T06:00:00	0.2095	11.729	200.0	0.498881208	0.596373339	0.008675109	0.089499504	0.027584616
2020-07-17T06:05:00	0.2101	11.732	200.0	0.500941811	0.599223302	0.008740552	0.090174663	0.027792707
2020-07-17T06:10:00	0.2108	11.738	200.0	0.503344276	0.602550398	0.008817161	0.090965026	0.028036304
2020-07-17T06:15:00	0.2101	11.745	200.0	0.500941811	0.599223302	0.008740552	0.090174663	0.027792707
2020-07-17T06:20:00	0.2100	11.752	199.0	0.500598464	0.598748190	0.008729631	0.090061989	0.027757980
2020-07-17T06:25:00	0.2104	11.761	200.0	0.501971646	0.600648918	0.008773350	0.090513037	0.027896997
2020-07-17T06:30:00	0.2104	11.771	200.0	0.501971646	0.600648918	0.008773350	0.090513037	0.027896997
2020-07-17T06:35:00	0.2111	11.785	200.0	0.504373387	0.603977001	0.008850079	0.091304635	0.028140975
2020-07-17T06:40:00	0.2116	11.801	200.0	0.506087883	0.606355614	0.008905056	0.091871825	0.028315789
2020-07-17T06:45:00	0.2111	11.818	200.0	0.504373387	0.603977001	0.008850079	0.091304635	0.028140975
2020-07-17T06:50:00	0.2122	11.839	200.0	0.508144144	0.609211502	0.008971217	0.092554390	0.028526162
2020-07-17T06:55:00	0.2121	11.865	200.0	0.507801520	0.608735403	0.008960176	0.092440482	0.028491054
2020-07-17T07:00:00	0.2125	11.887	200.0	0.509171811	0.610640080	0.009004374	0.092896465	0.028631593
2020-07-17T07:05:00	0.2131	11.902	200.0	0.511226221	0.613498506	0.009070841	0.093582197	0.028842942
2020-07-17T07:10:00	0.2134	11.929	200.0	0.512252963	0.614928354	0.009104152	0.093925853	0.028948860
2020-07-17T07:15:00	0.2143	11.951	200.0	0.515331346	0.619220436	0.009204389	0.094959984	0.029267589
2020-07-17T07:20:00	0.2141	11.996	201.0	0.514647500	0.618266311	0.009182074	0.094729768	0.029196634
2020-07-17T07:25:00	0.2147	12.031	201.0	0.516698630	0.621129251	0.009249086	0.095421118	0.029409715
2020-07-17T07:30:00	0.2153	12.005	201.0	0.518748535	0.623993883	0.009316302	0.096114571	0.029623444
2020-07-17T07:35:00	0.2154	12.016	201.0	0.519090067	0.624471487	0.009327525	0.096230351	0.029659129
2020-07-17T07:40:00	0.2155	12.032	201.0	0.519431565	0.624949137	0.009338753	0.096346190	0.029694831
2020-07-17T07:45:00	0.2155	12.065	201.0	0.519431565	0.624949137	0.009338753	0.096346190	0.029694831
2020-07-17T07:50:00	0.2158	12.079	201.0	0.520455855	0.626382370	0.009372471	0.096694054	0.029802047
2020-07-17T07:55:00	0.2160	12.114	201.0	0.521138545	0.627338094	0.009394978	0.096926256	0.029873613
2020-07-17T08:00:00	0.2150	12.121	201.0	0.517723736	0.622561355	0.009282669	0.095767582	0.029516499
2020-07-17T08:05:00	0.2154	12.143	201.0	0.519090067	0.624471487	0.009327525	0.096230351	0.029659129
2020-07-17T08:10:00	0.2151	12.172	201.0	0.518065370	0.623038818	0.009293874	0.095883187	0.029552129
2020-07-17T08:15:00	0.2155	12.190	201.0	0.519431565	0.624949137	0.009338753	0.096346190	0.029694831
2020-07-17T08:20:00	0.2159	12.208	201.0	0.520797217	0.626860208	0.009383722	0.096810126	0.029837821
2020-07-17T08:25:00	0.2158	12.237	201.0	0.520455855	0.626382370	0.009372471	0.096694054	0.029802047
2020-07-17T08:30:00	0.2161	12.266	202.0	0.521479840	0.627816026	0.009406240	0.097042444	0.029909424
2020-07-17T08:35:00	0.2161	12.300	202.0	0.521479840	0.627816026	0.009406240	0.097042444	0.029909424
2020-07-17T08:40:00	0.2163	12.334	202.0	0.522162327	0.628772032	0.009428781	0.097274995	0.029981098
2020-07-17T08:45:00	0.2162	12.359	202.0	0.521821100	0.628294006	0.009417508	0.097158690	0.029945252
2020-07-17T08:50:00	0.2162	12.381	202.0	0.521821100	0.628294006	0.009417508	0.097158690	0.029945252
2020-07-17T08:55:00	0.2165	12.409	202.0	0.522844679	0.629728226	0.009451345	0.097507780	0.030052845
2020-07-17T09:00:00	0.2165	12.437	202.0	0.522844679	0.629728226	0.009451345	0.097507780	0.030052845
2020-07-17T09:05:00	0.2165	12.450	202.0	0.522844679	0.629728226	0.009451345	0.097507780	0.030052845
2020-07-17T09:10:00	0.2164	12.456	202.0	0.522503520	0.629250106	0.009440060	0.097391358	0.030016962
2020-07-17T09:15:00	0.2153	12.468	202.0	0.518748535	0.623993883	0.009316302	0.096114571	0.029623444
2020-07-17T09:20:00	0.2153	12.491	203.0	0.518748535	0.623993883	0.009316302	0.096114571	0.029623444
2020-07-17T09:25:00	0.2147	12.518	203.0	0.516698630	0.621129251	0.009249086	0.095421118	0.029409715
2020-07-17T09:30:00	0.2147	12.545	203.0	0.516698630	0.621129251	0.009249086	0.095421118	0.029409715
2020-07-17T09:35:00	0.2139	12.569	202.0	0.513963517	0.617312374	0.009159782	0.094499786	0.029125752
2020-07-17T09:40:00	0.2137	12.589	203.0	0.513279398	0.616358625	0.009137513	0.094270037	0.029054941
2020-07-17T09:45:00	0.2132	12.602	203.0	0.511568502	0.613975075	0.009081939	0.093696690	0.028878230
2020-07-17T09:50:00	0.2129	12.616	202.0	0.510541554	0.612545509	0.009048663	0.093353385	0.028772420
2020-07-17T09:55:00	0.2127	12.645	203.0	0.509856751	0.611592700	0.009026507	0.093124808	0.028701970
2020-07-17T10:00:00	0.2128	12.674	203.0	0.510199170	0.612069081	0.009037582	0.093239067	0.028737186
2020-07-17T10:05:00	0.2127	12.701	204.0	0.509908297	0.611664406	0.009028174	0.093142003	0.028707270
2020-07-17T10:10:00	0.2122	12.725	203.0	0.507904672	0.608878729	0.008963499	0.092474768	0.028501622
2020-07-17T10:15:00	0.2118	12.742	204.0	0.506585468	0.607046384	0.008921044	0.092036764	0.028366624
2020-07-17T10:20:00	0.2116	12.753	203.0	0.505951477	0.606166284	0.008900676	0.091826635	0.028301861
2020-07-17T10:25:00	0.2114	12.760	204.0	0.505317369	0.605286346	0.008880328	0.091616706	0.028237159
2020-07-17T10:30:00	0.2114	12.775	204.0	0.505368983	0.605357957	0.008881983	0.091633784	0.028242422
2020-07-17T10:35:00	0.2109	12.800	204.0	0.503705765	0.603051414	0.008828717	0.091084246	0.028073049
2020-07-17T10:40:00	0.2101	12.828	204.0	0.501011923	0.599320331	0.008742783	0.090197679	0.027799801
2020-07-17T10:45:00	0.2099	12.866	204.0	0.500033493	0.597966611	0.008711674	0.089876740	0.027700884
2020-07-17T10:50:00	0.2095	12.892	205.0	0.498711244	0.596138419	0.008669722	0.089443928	0.027567487
2020-07-17T10:55:00	0.2095	12.923	205.0	0.498762958	0.596209894	0.008671361	0.089460836	0.027572698
2020-07-17T11:00:00	0.2085	12.954	205.0	0.495377495	0.591535284	0.008564397	0.088357309	0.027232581
2020-07-17T11:05:00	0.2080	12.986	205.0	0.493709397	0.589235375	0.008511937	0.087816081	0.027065769
2020-07-17T11:10:00	0.2083	13.006	205.0	0.494793193	0.590729417	0.008546003	0.088167539	0.027174092
2020-07-17T11:15:00	0.2079	13.018	205.0	0.493468909	0.588903984	0.008504387	0.087738189	0.027041762
2020-07-17T11:20:00	0.2065	13.059	205.0	0.488355604	0.581868845	0.008344645	0.086090164	0.026533825
2020-07-17T11:25:00	0.2058	13.097	205.0	0.485994443	0.578627309	0.008271389	0.085334394	0.026300889
2020-07-17T11:30:00	0.2066	13.137	205.0	0.488803919	0.582484823	0.008358590	0.086234036	0.026578167
2020-07-17T11:35:00	0.2059	13.172	205.0	0.486443071	0.579242867	0.008285283	0.085477738	0.026345069
2020-07-17T11:40:00	0.2059	13.201	205.0	0.486494971	0.579314090	0.008286891	0.085494329	0.026350182
2020-07-17T11:45:00	0.2071	13.209	206.0	0.490681776	0.585066712	0.008417129	0.086837968	0.026764305
2020-07-17T11:50:00	0.2066	13.216	206.0	0.488666820	0.582296434	0.008354324	0.086190026	0.026564603
2020-07-17T11:55:00	0.2062	13.236	206.0	0.487340148	0.580474222	0.008313101	0.085764727	0.026433522
2020-07-17T12:00:00	0.2063	13.255	206.0	0.487736716	0.581018770	0.008325413	0.085891748	0.026472671
2020-07-17T12:05:00	0.2067	13.276	206.0	0.489166954	0.582983744	0.008369891	0.086350627	0.026614102
2020-07-17T12:10:00	0.2062	13.302	206.0	0.487495806	0.580687949	0.008317932	0.085814573	0.026448885
2020-07-17T12:15:00	0.2059	13.340	206.0	0.486513482	0.579339492	0.008287465	0.085500246	0.026352006
2020-07-17T12:20:00	0.2055	13.378	207.0	0.485185968	0.577518412	0.008246379	0.085076373	0.026221364
2020-07-17T12:25:00	0.2057	13.405	207.0	0.485582788	0.578062621	0.008258650	0.085202968	0.026260382
2020-07-17T12:30:00	0.2060	13.429	207.0	0.486669178	0.579553168	0.008292290	0.085550028	0.026367350
2020-07-17T12:35:00	0.2054	13.452	207.0	0.484651839	0.576786093	0.008229877	0.084906121	0.026168891
2020-07-17T12:40:00	0.2055	13.471	207.0	0.485048722	0.577330219	0.008242137	0.085032611	0.026207876
2020-07-17T12:45:00	0.2052	13.486	208.0	0.484065690	0.575982713	0.008211786	0.084719483	0.026111367
2020-07-17T12:50:00	0.2057	13.490	207.0	0.485842349	0.578418658	0.008266681	0.085285824	0.026285919
2020-07-17T12:55:00	0.2055	13.490	207.0	0.485204486	0.577543805	0.008246952	0.085082279	0.026223185
2020-07-17T13:00:00	0.2051	13.501	208.0	0.483531385	0.575250631	0.008195313	0.084549529	0.026058986
2020-07-17T13:05:00	0.2049	13.510	207.0	0.482893087	0.574376360	0.008175654	0.084346719	0.025996478
2020-07-17T13:10:00	0.2040	13.522	207.0	0.479837255	0.570195323	0.008081865	0.083379113	0.025698252
2020-07-17T13:15:00	0.2031	13.522	208.0	0.476778663	0.566017968	0.007988527	0.082416165	0.025401463
2020-07-17T13:20:00	0.2034	13.526	208.0	0.477867878	0.567504738	0.008021705	0.082758453	0.025506959
2020-07-17T13:25:00	0.2025	13.542	208.0	0.474807506	0.563329754	0.007928659	0.081798509	0.025211095
2020-07-17T13:30:00	0.2025	13.554	208.0	0.474513590	0.562929185	0.007919751	0.081706608	0.025182770
2020-07-17T13:35:00	0.2027	13.565	207.0	0.475257617	0.563943331	0.007942310	0.081939348	0.025254503
2020-07-17T13:40:00	0.2027	13.566	208.0	0.475309689	0.564014325	0.007943890	0.081955649	0.025259527
2020-07-17T13:45:00	0.2035	13.564	208.0	0.478128030	0.567859984	0.008029639	0.082840310	0.025532188
2020-07-17T13:50:00	0.2032	13.559	207.0	0.477142988	0.566515163	0.007999617	0.082530577	0.025436725
2020-07-17T13:55:00	0.2037	13.553	208.0	0.478923279	0.568946254	0.008053918	0.083090783	0.025609386
2020-07-17T14:00:00	0.2038	13.551	208.0	0.479320833	0.569489482	0.008066068	0.083216138	0.025648022
2020-07-17T14:05:00	0.2042	13.551	208.0	0.480409230	0.570977342	0.008099379	0.083559805	0.025753943
2020-07-17T14:10:00	0.2044	13.552	209.0	0.481151962	0.571993212	0.008122150	0.083794728	0.025826349
2020-07-17T14:15:00	0.2044	13.555	208.0	0.481203943	0.572064326	0.008123745	0.083811182	0.025831420
2020-07-17T14:20:00	0.2047	13.559	208.0	0.482291736	0.573552994	0.008157155	0.084155869	0.025937656
2020-07-17T14:25:00	0.2046	13.562	208.0	0.481998470	0.573151560	0.008148141	0.084062873	0.025908994
2020-07-17T14:30:00	0.2047	13.565	208.0	0.482395664	0.573695270	0.008160351	0.084188837	0.025947817
2020-07-17T14:35:00	0.2046	13.566	208.0	0.482102407	0.573293824	0.008151336	0.084095826	0.025919150
2020-07-17T14:40:00	0.2051	13.564	208.0	0.483535020	0.575255610	0.008195425	0.084550685	0.026059342
2020-07-17T14:45:00	0.2054	13.559	208.0	0.484622066	0.576745278	0.008228957	0.084896636	0.026165968
2020-07-17T14:50:00	0.2052	13.558	208.0	0.483983973	0.575870733	0.008209266	0.084693479	0.026103353
2020-07-17T14:55:00	0.2062	13.554	208.0	0.487484562	0.580672510	0.008317583	0.085810972	0.026447775
2020-07-17T15:00:00	0.2072	13.548	208.0	0.490981547	0.585479132	0.008426493	0.086934570	0.026794079
2020-07-17T15:05:00	0.2076	13.539	208.0	0.492410421	0.587445944	0.008471196	0.087395763	0.026936223
2020-07-17T15:10:00	0.2073	13.529	208.0	0.491085209	0.585621765	0.008429732	0.086967988	0.026804379
2020-07-17T15:15:00	0.2078	13.518	208.0	0.492858202	0.588062641	0.008485229	0.087540541	0.026980845
2020-07-17T15:20:00	0.2085	13.508	208.0	0.495318135	0.591453402	0.008562528	0.088338021	0.027226636
2020-07-17T15:25:00	0.2086	13.501	208.0	0.495713775	0.591999203	0.008574993	0.088466618	0.027266271
2020-07-17T15:30:00	0.2096	13.493	208.0	0.499202318	0.596817233	0.008685291	0.089604550	0.027616992
2020-07-17T15:35:00	0.2092	13.483	208.0	0.497879747	0.594989479	0.008643392	0.089172287	0.027483765
2020-07-17T15:40:00	0.2093	13.472	207.0	0.498275090	0.595535683	0.008655906	0.089301390	0.027523556
2020-07-17T15:45:00	0.2092	13.460	208.0	0.497639554	0.594657689	0.008635794	0.089093895	0.027459604
2020-07-17T15:50:00	0.2091	13.448	208.0	0.497347609	0.594254476	0.008626563	0.088998659	0.027430251
2020-07-17T15:55:00	0.2093	13.436	208.0	0.498086648	0.595275317	0.008649940	0.089239841	0.027504586
2020-07-17T16:00:00	0.2094	13.427	208.0	0.498481967	0.595821554	0.008662458	0.089368984	0.027544389
2020-07-17T16:05:00	0.2090	13.418	208.0	0.496964462	0.593725404	0.008614455	0.088873749	0.027391752
2020-07-17T16:10:00	0.2090	13.411	208.0	0.497165267	0.594002673	0.008620800	0.088939203	0.027411926
2020-07-17T16:15:00	0.2089	13.404	208.0	0.496678611	0.593330761	0.008605428	0.088780615	0.027363048
2020-07-17T16:20:00	0.2084	13.399	208.0	0.495160302	0.591235700	0.008557558	0.088286746	0.027210832
2020-07-17T16:25:00	0.2081	13.394	207.0	0.493985366	0.589615716	0.008520605	0.087905507	0.027093331
2020-07-17T16:30:00	0.2082	13.390	207.0	0.494186347	0.589892748	0.008526920	0.087970663	0.027113413
2020-07-17T16:35:00	0.2079	13.390	207.0	0.493355187	0.588747292	0.008500818	0.087701368	0.027030413
2020-07-17T16:40:00	0.2079	13.388	207.0	0.493212113	0.588550172	0.008496328	0.087655053	0.027016139
2020-07-17T16:45:00	0.2073	13.385	207.0	0.491347976	0.585983357	0.008437945	0.087052726	0.026830496
2020-07-17T16:50:00	0.2076	13.381	207.0	0.492237600	0.587207973	0.008465783	0.087339918	0.026919011
2020-07-17T16:55:00	0.2069	13.376	207.0	0.490028514	0.584168213	0.008396742	0.086627637	0.026699479
2020-07-17T17:00:00	0.2062	13.372	207.0	0.487473318	0.580657071	0.008317234	0.085807371	0.026446665
2020-07-17T17:05:00	0.2057	13.368	207.0	0.485606030	0.578094500	0.008259369	0.085210386	0.026262668
2020-07-17T17:10:00	0.2047	13.365	207.0	0.482357151	0.573642545	0.008159167	0.084176619	0.025944052
2020-07-17T17:15:00	0.2045	13.363	207.0	0.481523091	0.572500988	0.008133540	0.083912237	0.025862566
2020-07-17T17:20:00	0.2037	13.361	207.0	0.478961479	0.568998446	0.008055085	0.083102824	0.025613097
2020-07-17T17:25:00	0.2034	13.358	207.0	0.477780922	0.567386008	0.008019054	0.082731101	0.025498529
2020-07-17T17:30:00	0.2042	13.355	207.0	0.480401602	0.570966910	0.008099146	0.083557393	0.025753200
2020-07-17T17:35:00	0.2036	13.351	207.0	0.478530414	0.568409557	0.008041919	0.082966999	0.025571235
2020-07-17T17:40:00	0.2031	13.348	208.0	0.476658192	0.565853584	0.007984862	0.082378350	0.025389808
2020-07-17T17:45:00	0.2030	13.343	208.0	0.476514413	0.565657410	0.007980489	0.082333230	0.025375901
2020-07-17T17:50:00	0.2035	13.337	208.0	0.478099295	0.567820742	0.008028763	0.082831266	0.025529401
2020-07-17T17:55:00	0.2027	13.332	207.0	0.475535090	0.564321655	0.007950731	0.082026228	0.025281280
2020-07-17T18:00:00	0.2024	13.326	207.0	0.474353337	0.562710810	0.007914896	0.081656522	0.025167333
2020-07-17T18:05:00	0.2028	13.321	207.0	0.475593348	0.564401096	0.007952500	0.082044475	0.025286904
2020-07-17T18:10:00	0.2024	13.317	206.0	0.474411615	0.562790223	0.007916661	0.081674735	0.025172946
2020-07-17T18:15:00	0.2021	13.311	207.0	0.473229469	0.561179898	0.007880890	0.081305690	0.025059203
2020-07-17T18:20:00	0.2024	13.306	207.0	0.474469893	0.562869637	0.007918427	0.081692949	0.025178560
2020-07-17T18:25:00	0.2025	13.301	207.0	0.474672033	0.563145115	0.007924552	0.081756143	0.025198037
2020-07-17T18:30:00	0.2030	13.296	206.0	0.476257779	0.565307299	0.007972685	0.082252725	0.025351089
2020-07-17T18:35:00	0.2026	13.290	207.0	0.475076278	0.563696118	0.007936809	0.081882593	0.025237010
2020-07-17T18:40:00	0.2032	13.284	206.0	0.477007609	0.566330399	0.007995496	0.082488054	0.025423619
2020-07-17T18:45:00	0.2034	13.277	207.0	0.477901000	0.567549964	0.008022715	0.082768873	0.025510170
2020-07-17T18:50:00	0.2032	13.273	206.0	0.477065842	0.566409873	0.007997268	0.082506344	0.025429256
2020-07-17T18:55:00	0.2034	13.268	206.0	0.477613540	0.567157484	0.008013952	0.082678464	0.025482306
2020-07-17T19:00:00	0.2036	13.263	206.0	0.478506771	0.568377262	0.008041198	0.082959552	0.025568940
2020-07-17T19:05:00	0.2037	13.260	206.0	0.478708671	0.568653060	0.008047362	0.083023153	0.025588542
2020-07-17T19:10:00	0.2041	13.254	206.0	0.480292527	0.570817761	0.008095804	0.083522921	0.025742576
2020-07-17T19:15:00	0.2048	13.248	206.0	0.482566093	0.573928606	0.008165593	0.084242915	0.025964485
2020-07-17T19:20:00	0.2046	13.243	206.0	0.482077342	0.573259515	0.008150565	0.084087879	0.025916701
2020-07-17T19:25:00	0.2051	13.238	206.0	0.483659624	0.575426318	0.008199265	0.084590305	0.026071553
2020-07-17T19:30:00	0.2050	13.232	206.0	0.483171031	0.574757017	0.008184212	0.084435002	0.026023688
2020-07-17T19:35:00	0.2048	13.226	206.0	0.482682366	0.574087810	0.008169170	0.084279819	0.025975859
2020-07-17T19:40:00	0.2052	13.221	207.0	0.483919332	0.575782157	0.008207272	0.084672912	0.026097014
2020-07-17T19:45:00	0.2052	13.217	206.0	0.484120910	0.576058386	0.008213489	0.084737057	0.026116784
2020-07-17T19:50:00	0.2055	13.212	206.0	0.485012427	0.577280453	0.008241016	0.085021039	0.026204310
2020-07-17T19:55:00	0.2061	13.207	206.0	0.486938105	0.579922287	0.008300628	0.085636048	0.026393862
2020-07-17T20:00:00	0.2061	13.202	206.0	0.487139503	0.580198756	0.008306875	0.085700496	0.026413725
2020-07-17T20:05:00	0.2060	13.195	206.0	0.486651410	0.579528783	0.008291739	0.085544347	0.026365598
2020-07-17T20:10:00	0.2064	13.189	206.0	0.488231562	0.581698443	0.008340789	0.086050378	0.026521562
2020-07-17T20:15:00	0.2065	13.184	206.0	0.488432884	0.581975015	0.008347048	0.086114956	0.026541466
2020-07-17T20:20:00	0.2065	13.179	206.0	0.488634193	0.582251603	0.008353309	0.086179554	0.026561375
2020-07-17T20:25:00	0.2072	13.173	206.0	0.490902180	0.585369933	0.008424013	0.086908989	0.026786194
2020-07-17T20:30:00	0.2078	13.165	207.0	0.492824524	0.588016253	0.008484173	0.087529648	0.026977488
2020-07-17T20:35:00	0.2080	13.159	206.0	0.493713761	0.589241390	0.008512074	0.087817495	0.027066205
2020-07-17T20:40:00	0.2084	13.150	206.0	0.494946718	0.590941132	0.008550834	0.088217382	0.027189454
2020-07-17T20:45:00	0.2086	13.143	206.0	0.495835402	0.592167018	0.008578826	0.088506170	0.027278461
2020-07-17T20:50:00	0.2086	13.138	206.0	0.495692432	0.591969757	0.008574320	0.088459679	0.027264132
2020-07-17T20:55:00	0.2092	13.132	206.0	0.497612073	0.594619732	0.008634925	0.089084928	0.027456840
2020-07-17T21:00:00	0.2092	13.126	206.0	0.497812841	0.594897053	0.008641276	0.089150447	0.027477034
2020-07-17T21:05:00	0.2082	13.118	206.0	0.494231623	0.589955160	0.008528343	0.087985344	0.027117937
2020-07-17T21:10:00	0.2082	13.111	206.0	0.494432589	0.590232210	0.008534661	0.088050524	0.027138027
2020-07-17T21:15:00	0.2082	13.105	206.0	0.494289560	0.590035029	0.008530164	0.088004133	0.027123728
2020-07-17T21:20:00	0.2076	13.098	206.0	0.492426014	0.587467417	0.008471684	0.087400803	0.026937776
2020-07-17T21:25:00	0.2079	13.092	206.0	0.493315356	0.588692413	0.008499568	0.087688473	0.027026439
2020-07-17T21:30:00	0.2083	13.087	206.0	0.494548457	0.590391960	0.008538305	0.088088114	0.027149612
2020-07-17T21:35:00	0.2082	13.082	206.0	0.494405433	0.590194772	0.008533807	0.088041715	0.027135312
2020-07-17T21:40:00	0.2079	13.077	206.0	0.493230236	0.588575140	0.008496897	0.087660919	0.027017947
2020-07-17T21:45:00	0.2083	13.072	206.0	0.494807334	0.590748917	0.008546448	0.088172130	0.027175507
2020-07-17T21:50:00	0.2077	13.067	206.0	0.492599917	0.587706905	0.008477133	0.087457017	0.026955102
2020-07-17T21:55:00	0.2071	13.061	206.0	0.490391067	0.584666828	0.008408053	0.086744337	0.026735447
2020-07-17T22:00:00	0.2077	13.056	206.0	0.492657883	0.587786736	0.008478949	0.087475759	0.026960878
2020-07-17T22:05:00	0.2081	13.051	206.0	0.494034268	0.589683120	0.008522141	0.087921359	0.027098217
2020-07-17T22:10:00	0.2083	13.047	206.0	0.494722252	0.590631594	0.008543771	0.088144513	0.027166995
2020-07-17T22:15:00	0.2083	13.042	206.0	0.494722252	0.590631594	0.008543771	0.088144513	0.027166995
2020-07-17T22:20:00	0.2082	13.037	206.0	0.494378277	0.590157333	0.008532953	0.088032906	0.027132597
2020-07-17T22:25:00	0.2084	13.032	206.0	0.495066191	0.591105901	0.008554595	0.088256179	0.027201411
2020-07-17T22:30:00	0.2086	13.027	206.0	0.495753967	0.592054657	0.008576259	0.088479687	0.027270299
2020-07-17T22:35:00	0.2083	13.023	205.0	0.494722252	0.590631594	0.008543771	0.088144513	0.027166995
2020-07-17T22:40:00	0.2090	13.019	206.0	0.497129101	0.593952733	0.008619657	0.088927412	0.027408292
2020-07-17T22:45:00	0.2090	13.015	206.0	0.497129101	0.593952733	0.008619657	0.088927412	0.027408292
2020-07-17T22:50:00	0.2087	13.010	206.0	0.496097802	0.592529105	0.008587100	0.088591530	0.027304770
2020-07-17T22:55:00	0.2087	13.005	206.0	0.496097802	0.592529105	0.008587100	0.088591530	0.027304770
2020-07-17T23:00:00	0.2087	13.001	206.0	0.496097802	0.592529105	0.008587100	0.088591530	0.027304770
2020-07-17T23:05:00	0.2086	12.996	206.0	0.495753967	0.592054657	0.008576259	0.088479687	0.027270299
2020-07-17T23:10:00	0.2086	12.992	206.0	0.495753967	0.592054657	0.008576259	0.088479687	0.027270299
2020-07-17T23:15:00	0.2089	12.987	206.0	0.496785370	0.593478143	0.008608799	0.088815393	0.027373767
2020-07-17T23:20:00	0.2090	12.982	206.0	0.497129101	0.593952733	0.008619657	0.088927412	0.027408292
2020-07-17T23:25:00	0.2089	12.977	206.0	0.496785370	0.593478143	0.008608799	0.088815393	0.027373767
2020-07-17T23:30:00	0.2089	12.971	205.0	0.496785370	0.593478143	0.008608799	0.088815393	0.027373767
2020-07-17T23:35:00	0.2091	12.965	205.0	0.497472798	0.594427370	0.008630521	0.089039491	0.027442836
2020-07-17T23:40:00	0.2097	12.960	205.0	0.499534252	0.597276176	0.008695823	0.089713201	0.027650480
2020-07-17T23:45:00	0.2099	12.953	205.0	0.500221127	0.598226155	0.008717636	0.089938242	0.027719840
2020-07-17T23:50:00	0.2100	12.947	205.0	0.500564512	0.598701214	0.008728551	0.090050851	0.027754547
2020-07-17T23:55:00	0.2100	12.941	205.0	0.500564512	0.598701214	0.008728551	0.090050851	0.027754547
2020-07-18T00:00:00	0.2098	12.934	205.0	0.499877707	0.597751142	0.008706726	0.089825692	0.027685151
2020-07-18T00:05:00	0.2099	12.927	205.0	0.500221127	0.598226155	0.008717636	0.089938242	0.027719840
2020-07-18T00:10:00	0.2099	12.921	205.0	0.500221127	0.598226155	0.008717636	0.089938242	0.027719840
2020-07-18T00:15:00	0.2099	12.914	205.0	0.500221127	0.598226155	0.008717636	0.089938242	0.027719840
2020-07-18T00:20:00	0.2102	12.908	205.0	0.501251179	0.599651475	0.008750398	0.090276246	0.027824016
2020-07-18T00:25:00	0.2095	12.901	205.0	0.498847239	0.596326386	0.008674033	0.089488395	0.027581193
2020-07-18T00:30:00	0.2095	12.894	205.0	0.498847239	0.596326386	0.008674033	0.089488395	0.027581193
2020-07-18T00:35:00	0.2098	12.889	205.0	0.499877707	0.597751142	0.008706726	0.089825692	0.027685151
2020-07-18T00:40:00	0.2099	12.881	205.0	0.500221127	0.598226155	0.008717636	0.089938242	0.027719840
2020-07-18T00:45:00	0.2096	12.876	205.0	0.499190763	0.596801258	0.008684925	0.089600769	0.027615827
2020-07-18T00:50:00	0.2089	12.869	205.0	0.496785370	0.593478143	0.008608799	0.088815393	0.027373767
2020-07-18T00:55:00	0.2093	12.863	205.0	0.498160088	0.595376784	0.008652265	0.089263825	0.027511978
2020-07-18T01:00:00	0.2096	12.856	205.0	0.499190763	0.596801258	0.008684925	0.089600769	0.027615827
2020-07-18T01:05:00	0.2095	12.850	205.0	0.498847239	0.596326386	0.008674033	0.089488395	0.027581193
2020-07-18T01:10:00	0.2094	12.843	205.0	0.498503681	0.595851561	0.008663146	0.089376081	0.027546576
2020-07-18T01:15:00	0.2098	12.836	205.0	0.499877707	0.597751142	0.008706726	0.089825692	0.027685151
2020-07-18T01:20:00	0.2094	12.829	205.0	0.498503681	0.595851561	0.008663146	0.089376081	0.027546576
2020-07-18T01:25:00	0.2099	12.821	205.0	0.500221127	0.598226155	0.008717636	0.089938242	0.027719840
2020-07-18T01:30:00	0.2098	12.812	205.0	0.499877707	0.597751142	0.008706726	0.089825692	0.027685151
2020-07-18T01:35:00	0.2101	12.803	205.0	0.500907863	0.599176321	0.008739472	0.090163519	0.027789272
2020-07-18T01:40:00	0.2099	12.794	205.0	0.500221127	0.598226155	0.008717636	0.089938242	0.027719840
2020-07-18T01:45:00	0.2091	12.785	205.0	0.497472798	0.594427370	0.008630521	0.089039491	0.027442836
2020-07-18T01:50:00	0.2090	12.774	204.0	0.497129101	0.593952733	0.008619657	0.088927412	0.027408292
2020-07-18T01:55:00	0.2090	12.762	205.0	0.497129101	0.593952733	0.008619657	0.088927412	0.027408292
2020-07-18T02:00:00	0.2087	12.750	204.0	0.496097802	0.592529105	0.008587100	0.088591530	0.027304770
2020-07-18T02:05:00	0.2092	12.737	204.0	0.497816460	0.594902053	0.008641390	0.089151629	0.027477398
2020-07-18T02:10:00	0.2094	12.724	204.0	0.498503681	0.595851561	0.008663146	0.089376081	0.027546576
2020-07-18T02:15:00	0.2087	12.711	204.0	0.496097802	0.592529105	0.008587100	0.088591530	0.027304770
2020-07-18T02:20:00	0.2086	12.696	204.0	0.495753967	0.592054657	0.008576259	0.088479687	0.027270299
2020-07-18T02:25:00	0.2088	12.682	204.0	0.496441603	0.593003601	0.008597947	0.088703432	0.027339259
2020-07-18T02:30:00	0.2091	12.667	204.0	0.497472798	0.594427370	0.008630521	0.089039491	0.027442836
2020-07-18T02:35:00	0.2092	12.651	204.0	0.497816460	0.594902053	0.008641390	0.089151629	0.027477398
2020-07-18T02:40:00	0.2087	12.635	204.0	0.496097802	0.592529105	0.008587100	0.088591530	0.027304770
2020-07-18T02:45:00	0.2092	12.618	203.0	0.497816460	0.594902053	0.008641390	0.089151629	0.027477398
2020-07-18T02:50:00	0.2095	12.601	203.0	0.498847239	0.596326386	0.008674033	0.089488395	0.027581193
2020-07-18T02:55:00	0.2094	12.584	203.0	0.498503681	0.595851561	0.008663146	0.089376081	0.027546576
2020-07-18T03:00:00	0.2092	12.566	203.0	0.497816460	0.594902053	0.008641390	0.089151629	0.027477398
2020-07-18T03:05:00	0.2088	12.547	203.0	0.496441603	0.593003601	0.008597947	0.088703432	0.027339259
2020-07-18T03:10:00	0.2091	12.529	203.0	0.497472798	0.594427370	0.008630521	0.089039491	0.027442836
2020-07-18T03:15:00	0.2097	12.512	203.0	0.499534252	0.597276176	0.008695823	0.089713201	0.027650480
2020-07-18T03:20:00	0.2095	12.495	203.0	0.498847239	0.596326386	0.008674033	0.089488395	0.027581193
2020-07-18T03:25:00	0.2088	12.477	203.0	0.496441603	0.593003601	0.008597947	0.088703432	0.027339259
2020-07-18T03:30:00	0.2090	12.459	203.0	0.497129101	0.593952733	0.008619657	0.088927412	0.027408292
2020-07-18T03:35:00	0.2086	12.443	203.0	0.495753967	0.592054657	0.008576259	0.088479687	0.027270299
2020-07-18T03:40:00	0.2083	12.427	203.0	0.494722252	0.590631594	0.008543771	0.088144513	0.027166995
2020-07-18T03:45:00	0.2081	12.412	203.0	0.494034268	0.589683120	0.008522141	0.087921359	0.027098217
2020-07-18T03:50:00	0.2080	12.399	203.0	0.493690224	0.589208953	0.008511335	0.087809870	0.027063855
2020-07-18T03:55:00	0.2078	12.386	203.0	0.493002031	0.588260762	0.008489739	0.087587070	0.026995186
2020-07-18T04:00:00	0.2083	12.373	203.0	0.494722252	0.590631594	0.008543771	0.088144513	0.027166995
2020-07-18T04:05:00	0.2084	12.361	202.0	0.494962651	0.590963104	0.008551336	0.088222555	0.027191048
2020-07-18T04:10:00	0.2088	12.350	202.0	0.496234603	0.592717898	0.008591415	0.088636048	0.027318491
2020-07-18T04:15:00	0.2085	12.339	202.0	0.495443398	0.591626194	0.008566473	0.088378726	0.027239182
2020-07-18T04:20:00	0.2089	12.332	202.0	0.496715171	0.593381232	0.008606582	0.088792524	0.027366718
2020-07-18T04:25:00	0.2093	12.324	202.0	0.497986469	0.595136912	0.008646770	0.089207129	0.027494503
2020-07-18T04:30:00	0.2100	12.319	202.0	0.500631015	0.598793229	0.008730666	0.090072668	0.027761271
2020-07-18T04:35:00	0.2107	12.314	202.0	0.502930400	0.601976902	0.008803940	0.090828623	0.027994264
2020-07-18T04:40:00	0.2109	12.311	202.0	0.503513310	0.602784662	0.008822564	0.091020764	0.028053483
2020-07-18T04:45:00	0.2108	12.311	202.0	0.503410026	0.602641517	0.008819262	0.090986704	0.028042986
2020-07-18T04:50:00	0.2109	12.312	202.0	0.503649813	0.602973859	0.008826928	0.091065788	0.028067360
2020-07-18T04:55:00	0.2111	12.314	202.0	0.504232600	0.603781786	0.008845572	0.091258137	0.028126644
2020-07-18T05:00:00	0.2115	12.316	202.0	0.505501101	0.605541274	0.008886221	0.091677508	0.028255898
2020-07-18T05:05:00	0.2114	12.320	202.0	0.505397877	0.605398047	0.008882910	0.091643346	0.028245369
2020-07-18T05:10:00	0.2119	12.325	202.0	0.507008684	0.607634069	0.008934653	0.092177168	0.028409898
2020-07-18T05:15:00	0.2122	12.330	202.0	0.507933544	0.608918848	0.008964429	0.092484366	0.028504580
2020-07-18T05:20:00	0.2124	12.336	202.0	0.508858155	0.610203970	0.008994247	0.092791992	0.028599393
2020-07-18T05:25:00	0.2124	12.344	202.0	0.508755032	0.610060604	0.008990919	0.092757657	0.028588811
2020-07-18T05:30:00	0.2126	12.352	202.0	0.509336950	0.610869721	0.009009708	0.092951492	0.028648553
2020-07-18T05:35:00	0.2124	12.359	202.0	0.508891326	0.610250087	0.008995318	0.092803038	0.028602798
2020-07-18T05:40:00	0.2135	12.367	202.0	0.512554101	0.615347882	0.009113933	0.094026766	0.028979962
2020-07-18T05:45:00	0.2140	12.377	202.0	0.514161545	0.617588520	0.009166234	0.094566341	0.029146265
2020-07-18T05:50:00	0.2145	12.389	202.0	0.516110064	0.620307389	0.009229832	0.095222479	0.029348493
2020-07-18T05:55:00	0.2143	12.402	203.0	0.515323447	0.619209412	0.009204131	0.094957323	0.029266769
2020-07-18T06:00:00	0.2143	12.414	202.0	0.515220518	0.619065779	0.009200771	0.094922655	0.029256084
2020-07-18T06:05:00	0.2146	12.429	203.0	0.516143164	0.620353603	0.009230915	0.095233645	0.029351934
2020-07-18T06:10:00	0.2144	12.437	203.0	0.515698425	0.619732752	0.009216378	0.095083676	0.029305712
2020-07-18T06:15:00	0.2143	12.443	203.0	0.515253628	0.619111981	0.009201852	0.094933806	0.029259521
2020-07-18T06:20:00	0.2140	12.452	203.0	0.514124822	0.617537308	0.009165037	0.094553997	0.029142460
2020-07-18T06:25:00	0.2137	12.461	204.0	0.513337750	0.616439960	0.009139411	0.094289623	0.029060977
2020-07-18T06:30:00	0.2146	12.472	203.0	0.516312264	0.620589706	0.009236445	0.095290698	0.029369518
2020-07-18T06:35:00	0.2155	12.480	203.0	0.519284202	0.624743010	0.009333907	0.096296194	0.029679422
2020-07-18T06:40:00	0.2156	12.488	203.0	0.519864335	0.625554585	0.009352991	0.096493088	0.029740107
2020-07-18T06:45:00	0.2152	12.501	203.0	0.518395479	0.623500263	0.009304708	0.095994958	0.029586578
2020-07-18T06:50:00	0.2150	12.507	203.0	0.517609386	0.622401563	0.009278920	0.095728903	0.029504578
2020-07-18T06:55:00	0.2153	12.514	203.0	0.518531390	0.623690273	0.009309170	0.096040995	0.029600767
2020-07-18T07:00:00	0.2154	12.529	203.0	0.519111651	0.624501673	0.009328234	0.096237671	0.029661385
2020-07-18T07:05:00	0.2165	12.545	203.0	0.522763536	0.629614500	0.009448660	0.097480083	0.030044308
2020-07-18T07:10:00	0.2165	12.560	203.0	0.522660830	0.629470558	0.009445263	0.097445032	0.030033505
2020-07-18T07:15:00	0.2164	12.592	204.0	0.522558121	0.629326621	0.009441866	0.097409986	0.030022704
2020-07-18T07:20:00	0.2163	12.601	204.0	0.522114212	0.628704622	0.009427191	0.097258591	0.029976042
2020-07-18T07:25:00	0.2163	12.596	203.0	0.522011486	0.628560707	0.009423797	0.097223574	0.029965250
2020-07-18T07:30:00	0.2168	12.609	203.0	0.523955558	0.631285733	0.009488136	0.097887354	0.030169833
2020-07-18T07:35:00	0.2170	12.659	204.0	0.524534904	0.632098403	0.009507352	0.098085603	0.030230935
2020-07-18T07:40:00	0.2173	12.642	204.0	0.525455053	0.633389688	0.009537913	0.098400888	0.030328109
2020-07-18T07:45:00	0.2179	12.678	204.0	0.527397180	0.636117420	0.009602577	0.099068017	0.030533725
2020-07-18T07:50:00	0.2181	12.658	204.0	0.528316565	0.637409771	0.009633265	0.099384620	0.030631305
2020-07-18T07:55:00	0.2179	12.668	204.0	0.527532736	0.636307924	0.009607099	0.099114666	0.030548103
2020-07-18T08:00:00	0.2184	12.674	204.0	0.529133191	0.638558254	0.009660564	0.099666262	0.030718110
2020-07-18T08:05:00	0.2179	12.734	204.0	0.527668287	0.636498435	0.009611621	0.099161324	0.030562483
2020-07-18T08:10:00	0.2181	12.752	205.0	0.528247009	0.637311974	0.009630942	0.099360649	0.030623917
2020-07-18T08:15:00	0.2181	12.804	205.0	0.528144466	0.637167805	0.009627517	0.099325317	0.030613027
2020-07-18T08:20:00	0.2185	12.836	205.0	0.529744637	0.639418532	0.009681030	0.099877404	0.030783186
2020-07-18T08:25:00	0.2189	12.831	205.0	0.531003747	0.641191004	0.009723243	0.100312901	0.030917410
2020-07-18T08:30:00	0.2191	12.864	205.0	0.531581909	0.642005326	0.009742657	0.100513193	0.030979142
2020-07-18T08:35:00	0.2197	12.884	205.0	0.533520589	0.644737878	0.009807898	0.101186278	0.031186594
2020-07-18T08:40:00	0.2192	12.901	205.0	0.532057548	0.642675452	0.009758643	0.100678120	0.031029974
2020-07-18T08:45:00	0.2190	12.950	205.0	0.531274570	0.641572416	0.009732334	0.100406697	0.030946319
2020-07-18T08:50:00	0.2196	13.003	205.0	0.533213422	0.644304726	0.009797547	0.101079483	0.031153678
2020-07-18T08:55:00	0.2186	13.058	206.0	0.530048526	0.639846205	0.009691210	0.099982425	0.030815554
2020-07-18T09:00:00	0.2182	13.108	206.0	0.528584012	0.637785842	0.009642201	0.099476814	0.030659720
2020-07-18T09:05:00	0.2177	13.156	206.0	0.526778139	0.635247639	0.009581942	0.098855128	0.030468110
2020-07-18T09:10:00	0.2178	13.387	208.0	0.527357010	0.636060970	0.009601237	0.099054195	0.030529465
2020-07-18T09:15:00	0.2175	13.551	208.0	0.526232174	0.634480793	0.009563761	0.098667560	0.030410300
2020-07-18T09:20:00	0.2167	13.630	209.0	0.523401959	0.630509436	0.009469792	0.097698103	0.030111504
2020-07-18T09:25:00	0.2170	13.406	207.0	0.524322411	0.631800300	0.009500302	0.098012866	0.030208517
2020-07-18T09:30:00	0.2162	13.411	207.0	0.521831884	0.628309111	0.009417864	0.097162365	0.029946384
2020-07-18T09:35:00	0.2162	13.435	207.0	0.521729150	0.628165208	0.009414471	0.097127362	0.029935596
2020-07-18T09:40:00	0.2167	13.494	207.0	0.523332304	0.630411778	0.009467486	0.097674304	0.030104169
2020-07-18T09:45:00	0.2167	13.501	208.0	0.523570702	0.630746034	0.009475382	0.097755769	0.030129277
2020-07-18T09:50:00	0.2171	13.519	208.0	0.524832071	0.632515355	0.009517217	0.098187370	0.030262301
2020-07-18T09:55:00	0.2161	13.579	208.0	0.521318184	0.627589640	0.009400905	0.096987402	0.029892459
2020-07-18T10:00:00	0.2163	13.646	209.0	0.522239194	0.628879729	0.009431321	0.097301204	0.029989176
2020-07-18T10:05:00	0.2170	13.705	209.0	0.524327973	0.631808102	0.009500487	0.098014769	0.030209104
2020-07-18T10:10:00	0.2176	13.692	209.0	0.526415484	0.634738238	0.009569863	0.098730517	0.030429704
2020-07-18T10:15:00	0.2171	13.697	209.0	0.524753292	0.632404814	0.009514601	0.098160387	0.030253985
2020-07-18T10:20:00	0.2163	13.763	209.0	0.522066791	0.628638186	0.009425624	0.097242426	0.029971060
2020-07-18T10:25:00	0.2152	13.762	209.0	0.518353579	0.623441688	0.009303333	0.095980767	0.029582205
2020-07-18T10:30:00	0.2151	13.772	209.0	0.518054226	0.623023242	0.009293509	0.095879415	0.029550967
2020-07-18T10:35:00	0.2165	13.773	209.0	0.522875744	0.629771768	0.009452372	0.097518384	0.030056113
2020-07-18T10:40:00	0.2168	13.781	209.0	0.523941189	0.631265581	0.009487660	0.097882439	0.030168318
2020-07-18T10:45:00	0.2159	13.808	209.0	0.520571386	0.626544080	0.009376278	0.096733330	0.029814152
2020-07-18T10:50:00	0.2150	13.842	209.0	0.517539961	0.622304554	0.009276644	0.095705424	0.029497341
2020-07-18T10:55:00	0.2149	13.874	210.0	0.517240538	0.621886207	0.009266832	0.095604193	0.029466141
2020-07-18T11:00:00	0.2153	13.901	210.0	0.518649307	0.623855139	0.009313043	0.096080946	0.029613081
2020-07-18T11:05:00	0.2148	13.929	210.0	0.516983354	0.621526934	0.009258408	0.095517286	0.029439355
2020-07-18T11:10:00	0.2150	13.968	210.0	0.517708992	0.622540752	0.009282185	0.095762595	0.029514962
2020-07-18T11:15:00	0.2152	14.023	210.0	0.518434477	0.623554783	0.009305988	0.096008167	0.029590649
2020-07-18T11:20:00	0.2148	14.027	211.0	0.517110149	0.621704053	0.009262560	0.095560127	0.029452559
2020-07-18T11:25:00	0.2134	14.036	211.0	0.512022964	0.614607982	0.009096684	0.093848817	0.028925117
2020-07-18T11:30:00	0.2138	14.050	210.0	0.513433877	0.616573955	0.009142539	0.094321892	0.029070923
2020-07-18T11:35:00	0.2127	14.068	211.0	0.509711303	0.611390378	0.009021805	0.093076295	0.028687018
2020-07-18T11:40:00	0.2117	14.111	211.0	0.506327483	0.606688213	0.008912753	0.091951229	0.028340262
2020-07-18T11:45:00	0.2119	14.150	211.0	0.507055381	0.607698922	0.008936155	0.092192666	0.028414675
2020-07-18T11:50:00	0.2133	14.177	211.0	0.511892377	0.614426102	0.009092446	0.093805091	0.028911640
2020-07-18T11:55:00	0.2130	14.193	211.0	0.510907867	0.613055337	0.009060525	0.093475770	0.028810140
2020-07-18T12:00:00	0.2131	14.234	211.0	0.511292516	0.613590804	0.009072990	0.093604367	0.028849775
2020-07-18T12:05:00	0.2130	14.282	212.0	0.510650208	0.612696720	0.009052181	0.093389678	0.028783606
2020-07-18T12:10:00	0.2133	14.300	212.0	0.511719454	0.614185279	0.009086835	0.093747206	0.028893799
2020-07-18T12:15:00	0.2119	14.317	212.0	0.506966993	0.607576170	0.008933312	0.092163332	0.028405634
2020-07-18T12:20:00	0.2129	14.341	212.0	0.510434876	0.612397056	0.009045209	0.093317759	0.028761440
2020-07-18T12:25:00	0.2126	14.359	212.0	0.509449947	0.611026867	0.009013358	0.092989155	0.028660161
2020-07-18T12:30:00	0.2119	14.368	212.0	0.507094159	0.607752779	0.008937403	0.092205538	0.028418642
2020-07-18T12:35:00	0.2113	14.392	212.0	0.505079680	0.604956592	0.008872707	0.091538078	0.028212925
2020-07-18T12:40:00	0.2107	14.422	213.0	0.503064012	0.602162029	0.008808207	0.090872647	0.028007832
2020-07-18T12:45:00	0.2104	14.458	213.0	0.501733723	0.600319482	0.008765767	0.090434806	0.027872886
2020-07-18T12:50:00	0.2106	14.484	213.0	0.502462601	0.601328854	0.008789008	0.090674573	0.027946784
2020-07-18T12:55:00	0.2107	14.501	213.0	0.502848201	0.601863019	0.008801315	0.090801545	0.027985918
2020-07-18T13:00:00	0.2103	14.528	213.0	0.501517829	0.600020587	0.008758889	0.090363848	0.027851015
2020-07-18T13:05:00	0.2100	14.544	213.0	0.500530327	0.598653916	0.008727464	0.090039637	0.027751091
2020-07-18T13:10:00	0.2097	14.560	213.0	0.499542538	0.597287634	0.008696086	0.089715914	0.027651316
2020-07-18T13:15:00	0.2099	14.592	213.0	0.500271884	0.598296369	0.008719249	0.089954883	0.027724969
2020-07-18T13:20:00	0.2092	14.595	213.0	0.497909756	0.595030934	0.008644342	0.089182083	0.027486784
2020-07-18T13:25:00	0.2098	14.622	213.0	0.499669981	0.597463865	0.008700131	0.089757648	0.027664179
2020-07-18T13:30:00	0.2103	14.644	213.0	0.501429298	0.599898031	0.008756070	0.090334758	0.027842050
2020-07-18T13:35:00	0.2103	14.666	213.0	0.501471756	0.599956806	0.008757422	0.090348708	0.027846349
2020-07-18T13:40:00	0.2103	14.688	214.0	0.501514213	0.600015581	0.008758774	0.090362659	0.027850649
2020-07-18T13:45:00	0.2101	14.709	214.0	0.500870064	0.599124013	0.008738269	0.090151112	0.027785448
2020-07-18T13:50:00	0.2104	14.723	214.0	0.501942373	0.600608383	0.008772417	0.090503410	0.027894030
2020-07-18T13:55:00	0.2100	14.744	214.0	0.500611647	0.598766432	0.008730050	0.090066314	0.027759313
2020-07-18T14:00:00	0.2097	14.766	214.0	0.499623883	0.597400118	0.008698668	0.089742551	0.027659526
2020-07-18T14:05:00	0.2094	14.791	214.0	0.498292252	0.595559397	0.008656450	0.089306996	0.027525284
2020-07-18T14:10:00	0.2093	14.819	214.0	0.497991139	0.595143365	0.008646917	0.089208654	0.027494973
2020-07-18T14:15:00	0.2094	14.847	214.0	0.498377245	0.595676842	0.008659141	0.089334765	0.027533842
2020-07-18T14:20:00	0.2095	14.872	215.0	0.498763308	0.596210378	0.008671372	0.089460950	0.027572734
2020-07-18T14:25:00	0.2095	14.896	215.0	0.498805799	0.596269108	0.008672719	0.089474844	0.027577016
2020-07-18T14:30:00	0.2090	14.917	215.0	0.497130152	0.593954184	0.008619690	0.088927755	0.027408398
2020-07-18T14:35:00	0.2089	14.934	215.0	0.496828937	0.593538291	0.008610175	0.088829587	0.027378141
2020-07-18T14:40:00	0.2081	14.937	215.0	0.494120420	0.589801870	0.008524848	0.087949287	0.027106825
2020-07-18T14:45:00	0.2077	14.933	216.0	0.492786636	0.587964068	0.008482985	0.087517394	0.026973711
2020-07-18T14:50:00	0.2071	14.924	215.0	0.490419308	0.584705672	0.008408935	0.086753431	0.026738250
2020-07-18T14:55:00	0.2066	14.911	216.0	0.488739527	0.582396338	0.008356587	0.086213364	0.026571796
2020-07-18T15:00:00	0.2069	14.899	216.0	0.489815661	0.583875528	0.008390104	0.086559159	0.026678374
2020-07-18T15:05:00	0.2069	14.888	216.0	0.489858264	0.583934107	0.008391433	0.086572863	0.026682597
2020-07-18T15:10:00	0.2067	14.883	216.0	0.489211906	0.583045529	0.008371291	0.086365070	0.026618553
2020-07-18T15:15:00	0.2061	14.881	216.0	0.487186825	0.580263721	0.008308343	0.085715643	0.026418394
2020-07-18T15:20:00	0.2060	14.876	216.0	0.486884727	0.579849018	0.008298973	0.085618971	0.026388599
2020-07-18T15:25:00	0.2053	14.870	215.0	0.484513283	0.576596162	0.008225599	0.084861985	0.026155288
2020-07-18T15:30:00	0.2053	14.862	215.0	0.484210947	0.576181778	0.008216267	0.084765716	0.026125617
2020-07-18T15:35:00	0.2052	14.857	215.0	0.483908585	0.575767430	0.008206941	0.084669493	0.026095960
2020-07-18T15:40:00	0.2048	14.856	216.0	0.482570785	0.573935030	0.008165737	0.084244404	0.025964943
2020-07-18T15:45:00	0.2050	14.848	215.0	0.483303779	0.574938843	0.008188300	0.084477183	0.026036688
2020-07-18T15:50:00	0.2037	14.840	216.0	0.478857054	0.568855775	0.008051894	0.083069911	0.025602953
2020-07-18T15:55:00	0.2034	14.836	215.0	0.477862945	0.567498002	0.008021555	0.082756901	0.025506481
2020-07-18T16:00:00	0.2030	14.834	215.0	0.476522755	0.565668792	0.007980742	0.082335848	0.025376708
2020-07-18T16:05:00	0.2021	14.836	215.0	0.473461165	0.561495427	0.007887895	0.081377956	0.025081476
2020-07-18T16:10:00	0.2023	14.842	215.0	0.473859361	0.562037801	0.007899940	0.081502228	0.025119778
2020-07-18T16:15:00	0.2020	14.845	216.0	0.472873074	0.560694634	0.007870121	0.081194592	0.025024962
2020-07-18T16:20:00	0.2021	14.849	215.0	0.473271340	0.561236916	0.007882156	0.081318747	0.025063228
2020-07-18T16:25:00	0.2014	14.852	216.0	0.470899637	0.558009445	0.007810625	0.080580774	0.024835777
2020-07-18T16:30:00	0.2010	14.851	215.0	0.469565984	0.556196542	0.007770543	0.080167255	0.024708327
2020-07-18T16:35:00	0.2009	14.846	216.0	0.469271613	0.555796578	0.007761709	0.080076123	0.024680239
2020-07-18T16:40:00	0.2012	14.842	216.0	0.470016794	0.556809193	0.007784080	0.080306918	0.024751372
2020-07-18T16:45:00	0.2006	14.840	216.0	0.467989501	0.554055369	0.007723294	0.079679797	0.024558087
2020-07-18T16:50:00	0.2002	14.836	216.0	0.466654698	0.552243986	0.007683399	0.079268213	0.024431233
2020-07-18T16:55:00	0.1990	14.830	216.0	0.462542575	0.546672547	0.007561136	0.078006846	0.024042468
2020-07-18T17:00:00	0.1991	14.821	216.0	0.462942063	0.547213218	0.007572971	0.078128950	0.024080101
2020-07-18T17:05:00	0.1984	14.811	216.0	0.460563080	0.543995342	0.007502625	0.077403199	0.023856418
2020-07-18T17:10:00	0.1979	14.803	216.0	0.458877727	0.541718399	0.007452984	0.076891066	0.023698573
2020-07-18T17:15:00	0.1976	14.796	216.0	0.457539306	0.539911766	0.007413678	0.076485547	0.023573588
2020-07-18T17:20:00	0.1979	14.788	216.0	0.458634750	0.541390318	0.007445841	0.076817370	0.023675860
2020-07-18T17:25:00	0.1979	14.781	216.0	0.458687080	0.541460972	0.007447379	0.076833239	0.023680750
2020-07-18T17:30:00	0.1975	14.772	215.0	0.457348582	0.539654438	0.007408085	0.076427847	0.023555805
2020-07-18T17:35:00	0.1979	14.764	215.0	0.458791736	0.541602284	0.007450456	0.076864981	0.023690534
2020-07-18T17:40:00	0.1978	14.752	215.0	0.458496422	0.541203559	0.007441776	0.076775430	0.023662933
2020-07-18T17:45:00	0.1979	14.740	215.0	0.458548753	0.541274211	0.007443314	0.076791295	0.023667823
2020-07-18T17:50:00	0.1981	14.728	215.0	0.459296310	0.542283702	0.007465298	0.077018106	0.023737728
2020-07-18T17:55:00	0.1984	14.716	215.0	0.460391183	0.543763003	0.007497554	0.077350887	0.023840295
2020-07-18T18:00:00	0.1985	14.704	215.0	0.460790925	0.544303338	0.007509348	0.077472563	0.023877796
2020-07-18T18:05:00	0.1987	14.691	215.0	0.461537984	0.545313482	0.007531414	0.077700208	0.023947959
2020-07-18T18:10:00	0.1986	14.679	215.0	0.461242910	0.544914442	0.007522695	0.077610253	0.023920234
2020-07-18T18:15:00	0.1987	14.668	215.0	0.461642552	0.545454910	0.007534505	0.077732098	0.023957788
2020-07-18T18:20:00	0.1989	14.657	215.0	0.462042146	0.545995440	0.007546323	0.077854022	0.023995366
2020-07-18T18:25:00	0.1986	14.643	215.0	0.461052397	0.544656840	0.007517068	0.077552201	0.023902342
2020-07-18T18:30:00	0.1992	14.629	215.0	0.463188385	0.547546657	0.007580274	0.078204285	0.024103320
2020-07-18T18:35:00	0.1991	14.619	215.0	0.462893456	0.547147427	0.007571531	0.078114088	0.024075521
2020-07-18T18:40:00	0.1991	14.606	215.0	0.462945720	0.547218168	0.007573080	0.078130068	0.024080446
2020-07-18T18:45:00	0.1992	14.595	214.0	0.463345159	0.547758901	0.007584923	0.078252252	0.024118104
2020-07-18T18:50:00	0.1999	14.580	215.0	0.465826616	0.551120955	0.007658701	0.079013403	0.024352698
2020-07-18T18:55:00	0.2011	14.568	215.0	0.469692556	0.556368537	0.007774342	0.080206456	0.024720409
2020-07-18T19:00:00	0.2014	14.556	215.0	0.470784056	0.557852275	0.007807147	0.080544895	0.024824719
2020-07-18T19:05:00	0.2012	14.546	214.0	0.470143349	0.556981210	0.007787882	0.080346147	0.024763463
2020-07-18T19:10:00	0.2021	14.533	214.0	0.473312152	0.561292493	0.007883389	0.081331475	0.025067151
2020-07-18T19:15:00	0.2024	14.521	215.0	0.474402484	0.562777779	0.007916385	0.081671881	0.025172067
2020-07-18T19:20:00	0.2027	14.509	214.0	0.475492464	0.564263532	0.007949437	0.082012878	0.025277166
2020-07-18T19:25:00	0.2034	14.498	214.0	0.477619335	0.567165395	0.008014128	0.082680286	0.025482867
2020-07-18T19:30:00	0.2034	14.487	214.0	0.477671371	0.567236437	0.008015714	0.082696648	0.025487910
2020-07-18T19:35:00	0.2038	14.475	214.0	0.479105859	0.569195721	0.008059497	0.083148342	0.025627126
2020-07-18T19:40:00	0.2053	14.464	214.0	0.484336973	0.576354500	0.008220156	0.084805838	0.026137983
2020-07-18T19:45:00	0.2057	14.454	214.0	0.485768643	0.578317550	0.008264400	0.085262292	0.026278666
2020-07-18T19:50:00	0.2057	14.448	214.0	0.485820554	0.578388759	0.008266006	0.085278865	0.026283774
2020-07-18T19:55:00	0.2061	14.442	214.0	0.487251598	0.580352648	0.008310353	0.085736378	0.026424784
2020-07-18T20:00:00	0.2063	14.428	214.0	0.487648178	0.580897182	0.008322663	0.085863381	0.026463928
2020-07-18T20:05:00	0.2066	14.412	214.0	0.488733907	0.582388616	0.008356412	0.086211560	0.026571240
2020-07-18T20:10:00	0.2063	14.397	214.0	0.487751941	0.581039678	0.008325886	0.085896626	0.026474174
2020-07-18T20:15:00	0.2067	14.384	214.0	0.489182172	0.583004661	0.008370365	0.086355517	0.026615609
2020-07-18T20:20:00	0.2065	14.371	214.0	0.488544936	0.582128965	0.008350533	0.086150909	0.026552547
2020-07-18T20:25:00	0.2065	14.359	214.0	0.488596805	0.582200231	0.008352146	0.086167554	0.026557677
2020-07-18T20:30:00	0.2069	14.348	214.0	0.490026681	0.584165692	0.008396685	0.086627047	0.026699297
2020-07-18T20:35:00	0.2074	14.338	214.0	0.491455955	0.586131963	0.008441322	0.087087559	0.026841231
2020-07-18T20:40:00	0.2073	14.326	214.0	0.491163480	0.585729467	0.008432178	0.086993225	0.026812157
2020-07-18T20:45:00	0.2075	14.315	214.0	0.491903862	0.586748490	0.008455334	0.087232124	0.026885788
2020-07-18T20:50:00	0.2071	14.302	214.0	0.490578453	0.584924578	0.008413903	0.086804684	0.026754047
2020-07-18T20:55:00	0.2073	14.289	214.0	0.491318963	0.585943430	0.008437038	0.087043368	0.026827611
2020-07-18T21:00:00	0.2073	14.278	213.0	0.491370789	0.586014752	0.008438659	0.087060085	0.026832764
2020-07-18T21:05:00	0.2068	14.266	214.0	0.489356241	0.583243924	0.008375787	0.086411449	0.026632848
2020-07-18T21:10:00	0.2068	14.254	214.0	0.489408097	0.583315207	0.008377402	0.086428116	0.026637985
2020-07-18T21:15:00	0.2071	14.244	213.0	0.490493265	0.584807397	0.008411243	0.086777247	0.026745590
2020-07-18T21:20:00	0.2079	14.235	214.0	0.493299026	0.588669914	0.008499055	0.087683187	0.027024810
2020-07-18T21:25:00	0.2095	14.227	213.0	0.498851908	0.596332840	0.008674181	0.089489922	0.027581663
2020-07-18T21:30:00	0.2097	14.219	213.0	0.499590622	0.597354124	0.008697612	0.089731659	0.027656169
2020-07-18T21:35:00	0.2102	14.214	213.0	0.501359195	0.599800989	0.008753837	0.090311727	0.027834951
2020-07-18T21:40:00	0.2101	14.210	213.0	0.500724233	0.598922215	0.008733630	0.090103254	0.027770698
2020-07-18T21:45:00	0.2102	14.200	213.0	0.501119246	0.599468867	0.008746199	0.090232918	0.027810662
2020-07-18T21:50:00	0.2103	14.191	212.0	0.501514213	0.600015581	0.008758774	0.090362659	0.027850649
2020-07-18T21:55:00	0.2096	14.182	212.0	0.499162166	0.596761723	0.008684018	0.089591412	0.027612943
2020-07-18T22:00:00	0.2091	14.172	212.0	0.497495920	0.594459304	0.008631252	0.089047034	0.027445161
2020-07-18T22:05:00	0.2085	14.164	212.0	0.495527528	0.591742253	0.008569124	0.088406070	0.027247609
2020-07-18T22:10:00	0.2083	14.154	212.0	0.494590066	0.590449329	0.008539613	0.088101615	0.027153773
2020-07-18T22:15:00	0.2080	14.145	212.0	0.493652345	0.589156755	0.008510145	0.087797600	0.027060073
2020-07-18T22:20:00	0.2078	14.135	212.0	0.493058509	0.588338562	0.008491510	0.087605344	0.027000818
2020-07-18T22:25:00	0.2081	14.126	212.0	0.493841032	0.589416788	0.008516071	0.087858731	0.027078914
2020-07-18T22:30:00	0.2083	14.117	212.0	0.494623376	0.590495257	0.008540661	0.088112424	0.027157105
2020-07-18T22:35:00	0.2074	14.109	212.0	0.491620666	0.586358663	0.008446473	0.087140707	0.026857612
2020-07-18T22:40:00	0.2077	14.100	212.0	0.492747695	0.587910433	0.008481764	0.087504801	0.026969829
2020-07-18T22:45:00	0.2067	14.092	212.0	0.489054337	0.582828962	0.008366385	0.086314451	0.026602952
2020-07-18T22:50:00	0.2063	14.084	212.0	0.487770445	0.581065090	0.008326460	0.085902556	0.026476002
2020-07-18T22:55:00	0.2050	14.078	212.0	0.483381525	0.575045340	0.008190695	0.084501892	0.026044304
2020-07-18T23:00:00	0.2054	14.072	211.0	0.484856265	0.577066344	0.008236191	0.084971261	0.026188968
2020-07-18T23:05:00	0.2055	14.063	212.0	0.484950854	0.577196030	0.008239113	0.085001411	0.026198260
2020-07-18T23:10:00	0.2054	14.054	212.0	0.484700485	0.576852780	0.008231379	0.084921620	0.026173668
2020-07-18T23:15:00	0.2048	14.047	211.0	0.482724668	0.574145733	0.008170471	0.084293247	0.025979997
2020-07-18T23:20:00	0.2055	14.039	212.0	0.484889670	0.577112143	0.008237223	0.084981908	0.026192249
2020-07-18T23:25:00	0.2057	14.031	211.0	0.485674076	0.578187834	0.008261474	0.085232104	0.026269362
2020-07-18T23:30:00	0.2059	14.026	211.0	0.486458301	0.579263767	0.008285755	0.085482606	0.026346570
2020-07-18T23:35:00	0.2065	14.019	211.0	0.488620924	0.582233371	0.008352897	0.086175295	0.026560063
2020-07-18T23:40:00	0.2062	14.012	211.0	0.487336868	0.580469719	0.008312999	0.085763677	0.026433198
2020-07-18T23:45:00	0.2058	14.005	211.0	0.486052327	0.578706721	0.008273181	0.085352882	0.026306587
2020-07-18T23:50:00	0.2062	13.998	211.0	0.487525906	0.580729280	0.008318867	0.085824214	0.026451856
2020-07-18T23:55:00	0.2067	13.990	211.0	0.489343365	0.583226224	0.008375386	0.086407311	0.026631573
2020-07-19T00:00:00	0.2073	13.985	211.0	0.491159853	0.585724476	0.008432065	0.086992055	0.026811796
2020-07-19T00:05:00	0.2068	13.979	212.0	0.489532291	0.583485935	0.008381272	0.086468037	0.026650289
2020-07-19T00:10:00	0.2067	13.972	211.0	0.489282260	0.583142232	0.008373482	0.086387675	0.026625520
2020-07-19T00:15:00	0.2067	13.965	211.0	0.489032211	0.582798553	0.008365696	0.086307344	0.026600762
2020-07-19T00:20:00	0.2073	13.957	211.0	0.491193196	0.585770359	0.008433107	0.087002807	0.026815110
2020-07-19T00:25:00	0.2067	13.949	211.0	0.489221154	0.583058240	0.008371579	0.086368041	0.026619469
2020-07-19T00:30:00	0.2066	13.941	211.0	0.488971100	0.582714568	0.008363794	0.086287718	0.026594713
2020-07-19T00:35:00	0.2064	13.933	211.0	0.488031829	0.581424085	0.008334581	0.085986333	0.026501823
2020-07-19T00:40:00	0.2063	13.925	211.0	0.487781688	0.581080530	0.008326809	0.085906158	0.026477112
2020-07-19T00:45:00	0.2070	13.916	210.0	0.490287891	0.584524920	0.008404834	0.086711119	0.026725209
2020-07-19T00:50:00	0.2075	13.906	211.0	0.491759635	0.586549950	0.008450821	0.087185561	0.026871437
2020-07-19T00:55:00	0.2070	13.895	210.0	0.490132361	0.584311022	0.008399981	0.086661056	0.026709779
2020-07-19T01:00:00	0.2073	13.884	210.0	0.491259882	0.585862126	0.008435191	0.087024313	0.026821738
2020-07-19T01:05:00	0.2071	13.873	210.0	0.490665628	0.585044498	0.008416625	0.086832766	0.026762702
2020-07-19T01:10:00	0.2073	13.862	210.0	0.491104396	0.585648167	0.008430331	0.086974174	0.026806285
2020-07-19T01:15:00	0.2073	13.850	210.0	0.491198812	0.585778087	0.008433282	0.087004618	0.026815668
2020-07-19T01:20:00	0.2067	13.839	210.0	0.489226773	0.583065964	0.008371754	0.086369846	0.026620025
2020-07-19T01:25:00	0.2069	13.828	210.0	0.490010179	0.584143000	0.008396170	0.086621737	0.026697661
2020-07-19T01:30:00	0.2074	13.817	210.0	0.491482043	0.586167867	0.008442137	0.087095976	0.026843826
2020-07-19T01:35:00	0.2073	13.806	210.0	0.491232155	0.585823970	0.008434324	0.087015371	0.026818982
2020-07-19T01:40:00	0.2073	13.794	210.0	0.491326567	0.585953894	0.008437276	0.087045820	0.026828367
2020-07-19T01:45:00	0.2077	13.783	210.0	0.492453693	0.587505533	0.008472551	0.087409749	0.026940533
2020-07-19T01:50:00	0.2070	13.771	210.0	0.490137978	0.584318747	0.008400156	0.086662864	0.026710336
2020-07-19T01:55:00	0.2069	13.759	209.0	0.489887992	0.583974983	0.008392360	0.086582426	0.026685545
2020-07-19T02:00:00	0.2072	13.747	210.0	0.491015594	0.585525978	0.008427556	0.086945546	0.026797462
2020-07-19T02:05:00	0.2070	13.735	209.0	0.490076888	0.584234735	0.008398251	0.086643203	0.026704277
2020-07-19T02:10:00	0.2065	13.723	209.0	0.488448808	0.581996893	0.008347543	0.086120065	0.026543040
2020-07-19T02:15:00	0.2069	13.712	209.0	0.489921348	0.584020849	0.008393400	0.086593157	0.026688852
2020-07-19T02:20:00	0.2063	13.699	209.0	0.487948568	0.581309725	0.008331994	0.085959642	0.026493597
2020-07-19T02:25:00	0.2062	13.687	209.0	0.487353734	0.580492877	0.008313522	0.085769078	0.026434863
2020-07-19T02:30:00	0.2056	13.675	209.0	0.485379462	0.577783758	0.008252361	0.085138090	0.026240386
2020-07-19T02:35:00	0.2056	13.662	209.0	0.485474037	0.577913464	0.008255286	0.085168264	0.026249686
2020-07-19T02:40:00	0.2058	13.650	209.0	0.485913476	0.578516231	0.008268882	0.085308536	0.026292919
2020-07-19T02:45:00	0.2063	13.639	209.0	0.487731798	0.581012015	0.008325260	0.085890172	0.026472185
2020-07-19T02:50:00	0.2065	13.627	209.0	0.488515548	0.582088587	0.008349619	0.086141479	0.026549640
2020-07-19T02:55:00	0.2067	13.615	209.0	0.489299117	0.583165402	0.008374008	0.086393092	0.026627190
2020-07-19T03:00:00	0.2075	13.604	209.0	0.491804202	0.586611299	0.008452215	0.087199948	0.026875871
2020-07-19T03:05:00	0.2082	13.593	209.0	0.494307444	0.590059683	0.008530726	0.088009932	0.027125516
2020-07-19T03:10:00	0.2076	13.583	209.0	0.492337208	0.587345128	0.008468902	0.087372103	0.026928931
2020-07-19T03:15:00	0.2078	13.572	209.0	0.493119897	0.588423130	0.008493436	0.087625209	0.027006940
2020-07-19T03:20:00	0.2073	13.562	209.0	0.491148972	0.585709504	0.008431724	0.086988547	0.026810715
2020-07-19T03:25:00	0.2069	13.552	209.0	0.489865871	0.583944567	0.008391670	0.086575310	0.026683351
2020-07-19T03:30:00	0.2070	13.543	208.0	0.490304743	0.584548097	0.008405359	0.086716544	0.026726881
2020-07-19T03:35:00	0.2079	13.533	209.0	0.493153221	0.588469038	0.008494481	0.087635993	0.027010264
2020-07-19T03:40:00	0.2073	13.524	208.0	0.491182316	0.585755387	0.008432767	0.086999299	0.026814029
2020-07-19T03:45:00	0.2073	13.516	208.0	0.491276729	0.585885309	0.008435718	0.087029746	0.026823413
2020-07-19T03:50:00	0.2075	13.509	208.0	0.492059662	0.586962982	0.008460211	0.087282438	0.026901295
2020-07-19T03:55:00	0.2075	13.501	208.0	0.491809817	0.586619028	0.008452391	0.087201761	0.026876430
2020-07-19T04:00:00	0.2074	13.493	208.0	0.491559953	0.586275098	0.008444574	0.087121115	0.026851574
2020-07-19T04:05:00	0.2069	13.485	208.0	0.489929502	0.584032061	0.008393654	0.086595780	0.026689660
2020-07-19T04:10:00	0.2072	13.477	208.0	0.491054009	0.585578835	0.008428757	0.086957930	0.026801278
2020-07-19T04:15:00	0.2074	13.469	208.0	0.491489647	0.586178332	0.008442375	0.087098429	0.026844582
2020-07-19T04:20:00	0.2078	13.464	208.0	0.492957792	0.588199821	0.008488351	0.087572757	0.026990774
2020-07-19T04:25:00	0.2079	13.458	208.0	0.493393185	0.588799647	0.008502010	0.087713670	0.027034205
2020-07-19T04:30:00	0.2081	13.453	208.0	0.493828524	0.589399549	0.008515678	0.087854678	0.027077665
2020-07-19T04:35:00	0.2081	13.447	208.0	0.493919785	0.589525328	0.008518544	0.087884252	0.027086780
2020-07-19T04:40:00	0.2081	13.440	208.0	0.494011044	0.589651110	0.008521411	0.087913831	0.027095896
2020-07-19T04:45:00	0.2084	13.434	208.0	0.495134204	0.591199704	0.008556736	0.088278268	0.027208220
2020-07-19T04:50:00	0.2087	13.429	208.0	0.495913174	0.592274330	0.008581278	0.088531465	0.027286257
2020-07-19T04:55:00	0.2089	13.423	208.0	0.496691966	0.593349197	0.008605850	0.088784965	0.027364388
2020-07-19T05:00:00	0.2091	13.419	208.0	0.497470579	0.594424305	0.008630451	0.089038767	0.027442613
2020-07-19T05:05:00	0.2093	13.414	208.0	0.498249015	0.595499655	0.008655081	0.089292872	0.027520930
2020-07-19T05:10:00	0.2093	13.410	208.0	0.497996549	0.595150839	0.008647089	0.089210420	0.027495518
2020-07-19T05:15:00	0.2096	13.406	208.0	0.499118396	0.596701213	0.008682630	0.089577090	0.027608529
2020-07-19T05:20:00	0.2099	13.403	208.0	0.500239874	0.598252088	0.008718232	0.089944388	0.027721734
2020-07-19T05:25:00	0.2108	13.400	208.0	0.503420090	0.602655465	0.008819584	0.090990023	0.028044009
2020-07-19T05:30:00	0.2113	13.398	207.0	0.504883107	0.604683916	0.008866406	0.091473077	0.028192891
2020-07-19T05:35:00	0.2120	13.396	208.0	0.507373705	0.608141060	0.008946399	0.092298351	0.028447248
2020-07-19T05:40:00	0.2124	13.395	207.0	0.508835032	0.610171823	0.008993501	0.092784293	0.028597020
2020-07-19T05:45:00	0.2126	13.395	207.0	0.509610882	0.611250700	0.009018559	0.093042808	0.028676697
2020-07-19T05:50:00	0.2127	13.395	208.0	0.509701723	0.611377052	0.009021495	0.093073100	0.028686033
2020-07-19T05:55:00	0.2125	13.396	208.0	0.509107608	0.610550805	0.009002301	0.092875075	0.028625000
2020-07-19T06:00:00	0.2125	13.398	208.0	0.509198462	0.610677139	0.009005234	0.092905344	0.028634329
2020-07-19T06:05:00	0.2125	13.400	208.0	0.508946804	0.610327220	0.008997109	0.092821514	0.028608492
2020-07-19T06:10:00	0.2131	13.403	208.0	0.511092152	0.613311864	0.009066496	0.093537370	0.028829126
2020-07-19T06:15:00	0.2132	13.408	208.0	0.511525239	0.613914833	0.009080536	0.093682215	0.028873768
2020-07-19T06:20:00	0.2134	13.413	208.0	0.512300480	0.614994547	0.009105695	0.093941773	0.028953767
2020-07-19T06:25:00	0.2136	13.419	208.0	0.512733415	0.615597726	0.009119760	0.094086880	0.028998490
2020-07-19T06:30:00	0.2133	13.426	208.0	0.511797601	0.614294109	0.009089371	0.093773363	0.028901861
2020-07-19T06:35:00	0.2138	13.433	208.0	0.513599120	0.616804311	0.009147917	0.094377375	0.029088024
2020-07-19T06:40:00	0.2139	13.442	208.0	0.514031891	0.617407716	0.009162009	0.094522763	0.029132833
2020-07-19T06:45:00	0.2140	13.453	209.0	0.514122614	0.617534229	0.009164965	0.094553255	0.029142232
2020-07-19T06:50:00	0.2149	13.464	209.0	0.517289960	0.621955253	0.009268451	0.095620898	0.029471289
2020-07-19T06:55:00	0.2154	13.476	209.0	0.519088597	0.624469431	0.009327476	0.096229853	0.029658975
2020-07-19T07:00:00	0.2155	13.491	209.0	0.519520676	0.625073791	0.009341684	0.096376428	0.029704151
2020-07-19T07:05:00	0.2159	13.507	209.0	0.520635491	0.626633812	0.009378391	0.096755126	0.029820870
2020-07-19T07:10:00	0.2158	13.524	209.0	0.520384671	0.626282738	0.009370126	0.096669859	0.029794589
2020-07-19T07:15:00	0.2160	13.543	209.0	0.521157913	0.627365213	0.009395617	0.096932847	0.029875645
2020-07-19T07:20:00	0.2162	13.576	209.0	0.521589732	0.627969934	0.009409868	0.097079870	0.029920959
2020-07-19T07:25:00	0.2164	13.613	209.0	0.522362703	0.629052784	0.009435404	0.097343325	0.030002158
2020-07-19T07:30:00	0.2169	13.697	210.0	0.524158688	0.631570640	0.009494872	0.097956841	0.030191250
2020-07-19T07:35:00	0.2171	13.758	210.0	0.524931082	0.632654292	0.009520504	0.098221289	0.030272755
2020-07-19T07:40:00	0.2174	13.855	210.0	0.525703303	0.633738186	0.009546166	0.098486036	0.030354353
2020-07-19T07:45:00	0.2173	13.776	210.0	0.525452852	0.633386599	0.009537840	0.098400133	0.030327877
2020-07-19T07:50:00	0.2170	13.764	210.0	0.524520499	0.632078193	0.009506874	0.098080671	0.030229415
2020-07-19T07:55:00	0.2170	13.963	211.0	0.524610946	0.632205089	0.009509876	0.098111639	0.030238960
2020-07-19T08:00:00	0.2172	13.790	210.0	0.525042331	0.632810412	0.009524199	0.098259408	0.030284504
2020-07-19T08:05:00	0.2172	13.778	210.0	0.525132764	0.632937328	0.009527203	0.098290399	0.030294056
2020-07-19T08:10:00	0.2173	13.787	210.0	0.525564084	0.633542742	0.009541537	0.098438280	0.030339634
2020-07-19T08:15:00	0.2173	13.807	211.0	0.525654504	0.633669677	0.009544543	0.098469295	0.030349193
2020-07-19T08:20:00	0.2172	13.834	211.0	0.525063144	0.632839621	0.009524891	0.098266540	0.030286702
2020-07-19T08:25:00	0.2168	13.856	211.0	0.523789654	0.631053064	0.009482637	0.097830619	0.030152347
2020-07-19T08:30:00	0.2163	13.887	210.0	0.522174500	0.628789088	0.009429183	0.097279146	0.029982377
2020-07-19T08:35:00	0.2166	13.910	211.0	0.522947340	0.629872121	0.009454742	0.097542827	0.030063647
2020-07-19T08:40:00	0.2166	13.936	210.0	0.523037828	0.629998960	0.009457736	0.097573723	0.030073169
2020-07-19T08:45:00	0.2167	13.969	210.0	0.523469411	0.630604009	0.009472027	0.097721152	0.030118608
2020-07-19T08:50:00	0.2166	14.014	210.0	0.523218798	0.630252648	0.009463727	0.097635529	0.030092218
2020-07-19T08:55:00	0.2167	14.059	211.0	0.523309279	0.630379497	0.009466723	0.097666438	0.030101745
2020-07-19T09:00:00	0.2162	14.106	211.0	0.521693900	0.628115834	0.009413307	0.097115353	0.029931895
2020-07-19T09:05:00	0.2158	14.162	212.0	0.520419161	0.626331011	0.009371262	0.096681582	0.029798202
2020-07-19T09:10:00	0.2153	14.385	212.0	0.518802423	0.624069234	0.009318072	0.096132835	0.029629073
2020-07-19T09:15:00	0.2151	14.597	214.0	0.517868264	0.622763334	0.009287408	0.095816480	0.029531570
2020-07-19T09:20:00	0.2155	14.609	214.0	0.519325124	0.624800248	0.009335252	0.096310076	0.029683701
2020-07-19T09:25:00	0.2159	14.470	213.0	0.520781366	0.626838018	0.009383199	0.096804734	0.029836159
2020-07-19T09:30:00	0.2149	14.445	213.0	0.517456836	0.622188406	0.009273919	0.095677315	0.029488678
2020-07-19T09:35:00	0.2153	14.466	213.0	0.518572321	0.623747500	0.009310515	0.096054862	0.029605041
2020-07-19T09:40:00	0.2147	14.517	213.0	0.516612968	0.621009617	0.009246283	0.095392195	0.029400801
2020-07-19T09:45:00	0.2146	14.571	213.0	0.516361854	0.620658950	0.009238067	0.095307432	0.029374676
2020-07-19T09:50:00	0.2147	14.626	214.0	0.516794276	0.621262835	0.009252217	0.095453418	0.029419670
2020-07-19T09:55:00	0.2144	14.669	214.0	0.515517717	0.619480532	0.009210475	0.095022774	0.029286942
2020-07-19T10:00:00	0.2146	14.700	214.0	0.516292056	0.620561490	0.009235784	0.095283879	0.029367417
2020-07-19T10:05:00	0.2143	14.721	214.0	0.515311869	0.619193255	0.009203753	0.094953423	0.029265567
2020-07-19T10:10:00	0.2134	14.742	214.0	0.512278854	0.614964420	0.009104992	0.093934527	0.028951534
2020-07-19T10:15:00	0.2132	14.824	214.0	0.511639792	0.614074346	0.009084251	0.093720546	0.028885582
2020-07-19T10:20:00	0.2130	14.882	214.0	0.510658273	0.612707945	0.009052442	0.093392372	0.028784436
2020-07-19T10:25:00	0.2136	14.845	214.0	0.512757170	0.615630828	0.009120532	0.094094845	0.029000945
2020-07-19T10:30:00	0.2126	14.849	214.0	0.509379426	0.610928792	0.009011080	0.092965649	0.028652916
2020-07-19T10:35:00	0.2120	14.879	214.0	0.507369358	0.608135021	0.008946259	0.092296908	0.028446803
2020-07-19T10:40:00	0.2114	14.925	215.0	0.505358109	0.605342870	0.008881635	0.091630186	0.028241313
2020-07-19T10:45:00	0.2118	14.946	215.0	0.506774838	0.607309329	0.008927132	0.092099575	0.028385984
2020-07-19T10:50:00	0.2105	14.964	215.0	0.502361772	0.601189198	0.008785791	0.090641386	0.027936555
2020-07-19T10:55:00	0.2096	14.994	214.0	0.499317246	0.596976126	0.008688937	0.089642161	0.027628585
2020-07-19T11:00:00	0.2089	15.029	215.0	0.496613783	0.593241269	0.008603381	0.088759500	0.027356540
2020-07-19T11:05:00	0.2082	15.069	215.0	0.494252195	0.589983519	0.008528990	0.087992015	0.027119994
2020-07-19T11:10:00	0.2069	15.116	215.0	0.489822879	0.583885452	0.008390329	0.086561481	0.026679089
2020-07-19T11:15:00	0.2072	15.187	215.0	0.490901751	0.585369343	0.008424000	0.086908851	0.026786152
2020-07-19T11:20:00	0.2071	15.206	216.0	0.490603065	0.584958434	0.008414671	0.086812612	0.026756490
2020-07-19T11:25:00	0.2074	15.211	216.0	0.491681690	0.586442659	0.008448382	0.087160402	0.026863682
2020-07-19T11:30:00	0.2069	15.238	216.0	0.490005614	0.584136723	0.008396028	0.086620269	0.026697208
2020-07-19T11:35:00	0.2055	15.270	216.0	0.484880918	0.577100144	0.008236952	0.084979119	0.026191390
2020-07-19T11:40:00	0.2047	15.316	216.0	0.482165948	0.573380801	0.008153289	0.084115975	0.025925360
2020-07-19T11:45:00	0.2045	15.371	216.0	0.481521213	0.572498419	0.008133483	0.083911642	0.025862383
2020-07-19T11:50:00	0.2045	15.405	216.0	0.481567010	0.572561086	0.008134889	0.083926148	0.025866854
2020-07-19T11:55:00	0.2039	15.437	217.0	0.479540450	0.569789627	0.008072784	0.083285427	0.025669377
2020-07-19T12:00:00	0.2034	15.484	217.0	0.477858364	0.567491748	0.008021415	0.082755460	0.025506037
2020-07-19T12:05:00	0.2040	15.541	217.0	0.479977568	0.570387138	0.008086160	0.083423421	0.025711909
2020-07-19T12:10:00	0.2039	15.554	217.0	0.479677919	0.569977521	0.008076990	0.083328812	0.025682749
2020-07-19T12:15:00	0.2036	15.566	217.0	0.478341540	0.568151578	0.008036154	0.082907521	0.025552903
2020-07-19T12:20:00	0.2027	15.585	218.0	0.475275405	0.563967583	0.007942850	0.081944916	0.025256219
2020-07-19T12:25:00	0.2015	15.602	218.0	0.471167583	0.558373849	0.007818690	0.080663981	0.024861422
2020-07-19T12:30:00	0.2013	15.629	218.0	0.470520749	0.557494260	0.007799227	0.080463187	0.024799536
2020-07-19T12:35:00	0.2007	15.659	218.0	0.468487556	0.554731612	0.007738206	0.079833640	0.024605503
2020-07-19T12:40:00	0.2002	15.700	218.0	0.466799958	0.552441042	0.007687736	0.079312953	0.024445022
2020-07-19T12:45:00	0.1998	15.747	218.0	0.465458475	0.550621863	0.007647733	0.078900252	0.024317824
2020-07-19T12:50:00	0.1998	15.791	219.0	0.465157535	0.550213957	0.007638773	0.078807815	0.024289334
2020-07-19T12:55:00	0.1991	15.818	219.0	0.462773904	0.546985616	0.007567988	0.078077541	0.024064256
2020-07-19T13:00:00	0.1991	15.841	219.0	0.462819956	0.547047944	0.007569353	0.078091618	0.024068595
2020-07-19T13:05:00	0.1987	15.856	219.0	0.461476886	0.545230851	0.007529608	0.077681578	0.023942217
2020-07-19T13:10:00	0.1985	15.865	219.0	0.460828190	0.544353715	0.007510448	0.077483910	0.023881294
2020-07-19T13:15:00	0.1983	15.864	219.0	0.460179368	0.543476743	0.007491309	0.077286452	0.023820435
2020-07-19T13:20:00	0.1980	15.854	219.0	0.459182851	0.542130460	0.007461960	0.076983661	0.023727112
2020-07-19T13:25:00	0.1975	15.839	219.0	0.457490582	0.539846024	0.007412249	0.076470804	0.023569045
2020-07-19T13:30:00	0.1975	15.831	219.0	0.457188929	0.539439053	0.007403405	0.076379563	0.023540923
2020-07-19T13:35:00	0.1972	15.831	219.0	0.456191525	0.538093930	0.007374199	0.076078256	0.023448057
2020-07-19T13:40:00	0.1965	15.847	220.0	0.453801529	0.534873921	0.007304447	0.075358638	0.023226264
2020-07-19T13:45:00	0.1965	15.869	220.0	0.453847703	0.534936089	0.007305792	0.075372509	0.023230539
2020-07-19T13:50:00	0.1959	15.891	220.0	0.451804409	0.532186686	0.007246411	0.074759885	0.023041723
2020-07-19T13:55:00	0.1962	15.904	220.0	0.452895494	0.533654411	0.007278090	0.075086711	0.023142454
2020-07-19T14:00:00	0.1961	15.916	221.0	0.452593427	0.533247978	0.007269313	0.074996160	0.023114545
2020-07-19T14:05:00	0.1960	15.928	221.0	0.451943013	0.532373084	0.007250431	0.074801365	0.023054507
2020-07-19T14:10:00	0.1964	15.941	221.0	0.453382261	0.534309512	0.007292245	0.075232744	0.023187462
2020-07-19T14:15:00	0.1964	15.944	221.0	0.453428441	0.534371672	0.007293588	0.075246605	0.023191735
2020-07-19T14:20:00	0.1962	15.931	221.0	0.452778189	0.533496568	0.007274681	0.075051540	0.023131613
2020-07-19T14:25:00	0.1964	15.908	221.0	0.453520800	0.534495995	0.007296276	0.075274332	0.023200280
2020-07-19T14:30:00	0.1987	15.883	220.0	0.461565366	0.545350515	0.007532223	0.077708558	0.023950532
2020-07-19T14:35:00	0.2060	15.867	222.0	0.486872349	0.579832028	0.008298589	0.085615012	0.026387378
2020-07-19T14:40:00	0.2151	15.934	218.0	0.518146584	0.623152336	0.009296539	0.095910679	0.029560603
2020-07-19T14:45:00	0.2308	16.077	214.0	0.571075370	0.698278271	0.011115170	0.114673163	0.035343383
2020-07-19T14:50:00	0.2470	16.264	182.0	0.625204004	0.777504290	0.013146473	0.135629743	0.041802404
2020-07-19T14:55:00	0.2530	16.336	154.0	0.645071876	0.807202270	0.013936266	0.143777885	0.044313741
2020-07-19T15:00:00	0.2579	16.347	149.0	0.661224247	0.831593836	0.014596064	0.150584899	0.046411728
2020-07-19T15:05:00	0.2692	16.284	150.0	0.698145589	0.888189334	0.016164472	0.166765879	0.051398864
2020-07-19T15:10:00	0.2873	16.190	157.0	0.756498865	0.980055414	0.018816902	0.194130511	0.059832909
2020-07-19T15:15:00	0.2935	16.143	153.0	0.776307391	1.011922906	0.019766444	0.203926760	0.062852208
2020-07-19T15:20:00	0.2943	16.114	152.0	0.778574718	1.015592808	0.019876738	0.205064646	0.063202916
2020-07-19T15:25:00	0.2955	16.045	148.0	0.782428336	1.021840821	0.020064959	0.207006480	0.063801408
2020-07-19T15:30:00	0.2986	15.957	145.0	0.792298974	1.037905039	0.020551443	0.212025451	0.065348303
2020-07-19T15:35:00	0.3031	15.883	139.0	0.806563125	1.061274078	0.021265639	0.219393679	0.067619263
2020-07-19T15:40:00	0.3040	15.829	133.0	0.809443036	1.066014476	0.021411443	0.220897911	0.068082881
2020-07-19T15:45:00	0.3046	15.797	122.0	0.811375706	1.069199890	0.021509594	0.221910517	0.068394976
2020-07-19T15:50:00	0.3007	15.772	120.0	0.799110327	1.049041294	0.020890831	0.215526855	0.066427470
2020-07-19T15:55:00	0.2975	15.743	124.0	0.789024503	1.032566247	0.020389358	0.210353252	0.064832915
2020-07-19T16:00:00	0.2945	15.708	137.0	0.779229633	1.016653711	0.019908659	0.205393960	0.063304413
2020-07-19T16:05:00	0.2918	15.664	143.0	0.770824360	1.003067001	0.019501089	0.201189144	0.062008448
2020-07-19T16:10:00	0.2894	15.623	149.0	0.763038596	0.990537821	0.019127610	0.197336026	0.060820880
2020-07-19T16:15:00	0.2878	15.593	153.0	0.758113422	0.982639830	0.018893357	0.194919280	0.060076015
2020-07-19T16:20:00	0.2873	15.575	155.0	0.756379751	0.979864838	0.018811268	0.194072387	0.059814995
2020-07-19T16:25:00	0.2879	15.558	157.0	0.758481012	0.983228553	0.018910787	0.195099102	0.060131438
2020-07-19T16:30:00	0.2875	15.544	160.0	0.757067125	0.980964762	0.018843792	0.194407931	0.059918412
2020-07-19T16:35:00	0.2875	15.529	163.0	0.756931376	0.980747506	0.018837367	0.194341640	0.059897981
2020-07-19T16:40:00	0.2865	15.512	165.0	0.753917898	0.975928864	0.018695030	0.192873181	0.059445388
2020-07-19T16:45:00	0.2850	15.492	166.0	0.748980745	0.968051577	0.018463084	0.190480232	0.058707857
2020-07-19T16:50:00	0.2825	15.467	164.0	0.741149532	0.955600945	0.018098355	0.186717393	0.057548114
2020-07-19T16:55:00	0.2819	15.445	164.0	0.739086863	0.952330562	0.018002937	0.185732978	0.057244708
2020-07-19T17:00:00	0.2800	15.426	163.0	0.733165248	0.942962586	0.017730501	0.182922314	0.056378434
2020-07-19T17:05:00	0.2788	15.410	164.0	0.729166680	0.936654294	0.017547793	0.181037350	0.055797469
2020-07-19T17:10:00	0.2780	15.397	164.0	0.726452955	0.932381012	0.017424369	0.179764002	0.055405011
2020-07-19T17:15:00	0.2768	15.383	165.0	0.722769716	0.926591372	0.017257592	0.178043393	0.054874703
2020-07-19T17:20:00	0.2756	15.365	167.0	0.718759929	0.920301934	0.017076999	0.176180248	0.054300464
2020-07-19T17:25:00	0.2750	15.348	169.0	0.717007861	0.917558192	0.016998406	0.175369423	0.054050559
2020-07-19T17:30:00	0.2754	15.335	171.0	0.718162684	0.919366345	0.017050186	0.175903631	0.054215207
2020-07-19T17:35:00	0.2749	15.322	173.0	0.716410334	0.916623076	0.016971647	0.175093353	0.053965472
2020-07-19T17:40:00	0.2738	15.306	179.0	0.713040503	0.911355209	0.016821154	0.173540745	0.053486943
2020-07-19T17:45:00	0.2741	15.288	176.0	0.713873251	0.912656075	0.016858277	0.173923741	0.053604986
2020-07-19T17:50:00	0.2748	15.270	181.0	0.716321734	0.916484446	0.016967681	0.175052438	0.053952861
2020-07-19T17:55:00	0.2741	15.252	181.0	0.713921920	0.912732122	0.016860448	0.173946138	0.053611889
2020-07-19T18:00:00	0.2728	15.237	181.0	0.709902522	0.906458689	0.016681655	0.172101560	0.053043372
2020-07-19T18:05:00	0.2719	15.221	181.0	0.706850700	0.901704842	0.016546577	0.170707987	0.052613860
2020-07-19T18:10:00	0.2717	15.208	181.0	0.706065138	0.900482477	0.016511901	0.170350243	0.052503599
2020-07-19T18:15:00	0.2710	15.193	181.0	0.703982851	0.897244959	0.016420173	0.169403895	0.052211926
2020-07-19T18:20:00	0.2691	15.177	182.0	0.697680026	0.887468357	0.016144170	0.166556422	0.051334307
2020-07-19T18:25:00	0.2675	15.162	182.0	0.692667379	0.879717619	0.015926429	0.164310037	0.050641949
2020-07-19T18:30:00	0.2661	15.144	182.0	0.687973495	0.872479491	0.015723951	0.162221101	0.049998119
2020-07-19T18:35:00	0.2645	15.127	182.0	0.682947531	0.864750401	0.015508661	0.159999998	0.049313553
2020-07-19T18:40:00	0.2648	15.110	183.0	0.683787130	0.866040047	0.015544517	0.160369916	0.049427566
2020-07-19T18:45:00	0.2646	15.096	183.0	0.682996611	0.864825774	0.015510756	0.160021610	0.049320214
2020-07-19T18:50:00	0.2643	15.078	183.0	0.682205922	0.863611777	0.015477026	0.159673627	0.049212963
2020-07-19T18:55:00	0.2640	15.062	184.0	0.681088847	0.861897580	0.015429439	0.159182682	0.049061649
2020-07-19T19:00:00	0.2641	15.047	184.0	0.681602706	0.862685984	0.015451320	0.159408420	0.049131223
2020-07-19T19:05:00	0.2647	15.034	185.0	0.683420805	0.865477288	0.015528867	0.160208462	0.049377804
2020-07-19T19:10:00	0.2638	15.019	185.0	0.680673140	0.861259935	0.015411750	0.159000186	0.049005401
2020-07-19T19:15:00	0.2635	15.005	186.0	0.679555595	0.859546494	0.015364249	0.158510127	0.048854361
2020-07-19T19:20:00	0.2644	14.990	186.0	0.682353192	0.863837849	0.015483306	0.159738411	0.049232930
2020-07-19T19:25:00	0.2635	14.974	187.0	0.679604721	0.859621793	0.015366336	0.158531653	0.048860995
2020-07-19T19:30:00	0.2634	14.957	187.0	0.679139713	0.858909131	0.015346592	0.158327960	0.048798215
2020-07-19T19:35:00	0.2634	14.941	188.0	0.679327476	0.859196870	0.015354563	0.158410191	0.048823559
2020-07-19T19:40:00	0.2631	14.925	188.0	0.678209518	0.857484093	0.015307137	0.157920910	0.048672758
2020-07-19T19:45:00	0.2626	14.910	189.0	0.676764617	0.855272014	0.015245956	0.157289719	0.048478219
2020-07-19T19:50:00	0.2630	14.895	189.0	0.677932167	0.857059341	0.015295383	0.157799649	0.048635384
2020-07-19T19:55:00	0.2628	14.881	190.0	0.677140378	0.855847114	0.015261854	0.157453738	0.048528771
2020-07-19T20:00:00	0.2627	14.868	190.0	0.677001664	0.855634798	0.015255984	0.157393179	0.048510106
2020-07-19T20:05:00	0.2639	14.853	190.0	0.680780119	0.861424015	0.015416301	0.159047140	0.049019873
2020-07-19T20:10:00	0.2643	14.839	191.0	0.682272521	0.863714010	0.015479866	0.159702922	0.049221992
2020-07-19T20:15:00	0.2641	14.826	191.0	0.681481674	0.862500267	0.015446165	0.159355236	0.049114831
2020-07-19T20:20:00	0.2638	14.811	191.0	0.680690656	0.861286800	0.015412495	0.159007873	0.049007771
2020-07-19T20:25:00	0.2642	14.798	192.0	0.681856949	0.863076148	0.015462152	0.159520171	0.049165666
2020-07-19T20:30:00	0.2649	14.784	192.0	0.684000904	0.866368506	0.015553653	0.160464174	0.049456617
2020-07-19T20:35:00	0.2646	14.770	192.0	0.683210432	0.865154158	0.015519884	0.160115781	0.049349239
2020-07-19T20:40:00	0.2661	14.753	192.0	0.687959443	0.872457852	0.015723347	0.162214868	0.049996198
2020-07-19T20:45:00	0.2679	14.738	193.0	0.694002841	0.881780431	0.015984287	0.164906940	0.050825921
2020-07-19T20:50:00	0.2676	14.727	193.0	0.692889364	0.880060399	0.015936039	0.164409177	0.050672505
2020-07-19T20:55:00	0.2673	14.715	194.0	0.691775549	0.878340919	0.015887854	0.163912057	0.050519288
2020-07-19T21:00:00	0.2665	14.702	194.0	0.689359664	0.874615027	0.015783603	0.162836525	0.050187798
2020-07-19T21:05:00	0.2662	14.689	194.0	0.688244774	0.872897295	0.015735616	0.162341445	0.050035210
2020-07-19T21:10:00	0.2657	14.676	195.0	0.686803841	0.870678812	0.015673708	0.161702760	0.049838361
2020-07-19T21:15:00	0.2648	14.664	195.0	0.683732743	0.865956488	0.015542193	0.160345940	0.049420176
2020-07-19T21:20:00	0.2646	14.653	195.0	0.683268261	0.865242979	0.015522353	0.160141255	0.049357090
2020-07-19T21:25:00	0.2649	14.641	195.0	0.684107786	0.866532743	0.015558222	0.160511312	0.049471145
2020-07-19T21:30:00	0.2634	14.631	196.0	0.679076495	0.858812259	0.015343909	0.158300279	0.048789683
2020-07-19T21:35:00	0.2634	14.620	196.0	0.679264261	0.859099992	0.015351879	0.158382504	0.048815026
2020-07-19T21:40:00	0.2632	14.609	196.0	0.678472761	0.857887300	0.015318297	0.158036048	0.048708245
2020-07-19T21:45:00	0.2625	14.598	196.0	0.676374722	0.854675410	0.015229469	0.157119625	0.048425794
2020-07-19T21:50:00	0.2614	14.587	196.0	0.672640911	0.848968686	0.015072056	0.155495623	0.047925261
2020-07-19T21:55:00	0.2608	14.576	196.0	0.670866665	0.846261146	0.014997557	0.154727030	0.047688373
2020-07-19T22:00:00	0.2602	14.564	196.0	0.668764233	0.843056287	0.014909528	0.153818855	0.047408465
2020-07-19T22:05:00	0.2603	14.552	196.0	0.669134963	0.843621137	0.014925031	0.153978794	0.047457760
2020-07-19T22:10:00	0.2603	14.539	196.0	0.669178374	0.843687285	0.014926847	0.153997527	0.047463534
2020-07-19T22:15:00	0.2601	14.524	196.0	0.668567137	0.842756036	0.014901290	0.153733861	0.047382269
2020-07-19T22:20:00	0.2602	14.511	197.0	0.668610554	0.842822173	0.014903104	0.153752582	0.047388039
2020-07-19T22:25:00	0.2598	14.498	196.0	0.667344354	0.840894030	0.014850232	0.153207106	0.047219918
2020-07-19T22:30:00	0.2592	14.484	196.0	0.665422498	0.837970095	0.014770170	0.152381117	0.046965340
2020-07-19T22:35:00	0.2586	14.469	197.0	0.663499623	0.835047778	0.014690292	0.151557032	0.046711349
2020-07-19T22:40:00	0.2577	14.455	197.0	0.660591639	0.830634346	0.014569922	0.150315204	0.046328606
2020-07-19T22:45:00	0.2572	14.441	197.0	0.658994430	0.828213349	0.014504030	0.149635406	0.046119086
2020-07-19T22:50:00	0.2567	14.428	197.0	0.657396516	0.825793467	0.014438265	0.148956921	0.045909970
2020-07-19T22:55:00	0.2560	14.414	197.0	0.655140816	0.822381150	0.014345694	0.148001880	0.045615617
2020-07-19T23:00:00	0.2555	14.399	197.0	0.653212467	0.819467478	0.014266803	0.147187980	0.045364765
2020-07-19T23:05:00	0.2545	14.385	198.0	0.649967165	0.814571100	0.014134548	0.145823524	0.044944226
2020-07-19T23:10:00	0.2543	14.372	198.0	0.649352673	0.813644990	0.014109578	0.145565913	0.044864828
2020-07-19T23:15:00	0.2540	14.359	198.0	0.648408908	0.812223257	0.014071273	0.145170726	0.044743028
2020-07-19T23:20:00	0.2541	14.347	198.0	0.648781732	0.812784805	0.014086398	0.145326773	0.044791123
2020-07-19T23:25:00	0.2539	14.333	198.0	0.648167037	0.811859012	0.014061464	0.145069536	0.044711840
2020-07-19T23:30:00	0.2539	14.322	198.0	0.648210700	0.811924762	0.014063235	0.145087800	0.044717469
2020-07-19T23:35:00	0.2536	14.310	199.0	0.646937334	0.810007918	0.014011653	0.144555644	0.044553453
2020-07-19T23:40:00	0.2538	14.298	199.0	0.647639577	0.811064860	0.014040088	0.144848995	0.044643867
2020-07-19T23:45:00	0.2540	14.286	199.0	0.648341684	0.812122016	0.014068546	0.145142598	0.044734358
2020-07-19T23:50:00	0.2538	14.276	199.0	0.647726915	0.811196340	0.014043626	0.144885500	0.044655118
2020-07-19T23:55:00	0.2538	14.266	199.0	0.647770583	0.811262082	0.014045395	0.144903754	0.044660744
2020-07-20T00:00:00	0.2536	14.255	199.0	0.647155716	0.810336558	0.014020492	0.144646836	0.044581560
2020-07-20T00:05:00	0.2533	14.245	199.0	0.646211375	0.808915725	0.013982290	0.144252713	0.044460087
2020-07-20T00:10:00	0.2522	14.235	199.0	0.642630060	0.803534253	0.013837907	0.142763131	0.044000984
2020-07-20T00:15:00	0.2521	14.225	199.0	0.642014314	0.802610100	0.013813161	0.142507834	0.043922299
2020-07-20T00:20:00	0.2517	14.214	200.0	0.640738752	0.800696676	0.013761972	0.141979725	0.043759530
2020-07-20T00:25:00	0.2511	14.204	200.0	0.638802671	0.797795072	0.013684464	0.141180097	0.043513077
2020-07-20T00:30:00	0.2501	14.194	200.0	0.635544336	0.792918989	0.013554537	0.139839662	0.043099942
2020-07-20T00:35:00	0.2497	14.184	200.0	0.634266471	0.791009129	0.013503758	0.139315780	0.042938476
2020-07-20T00:40:00	0.2487	14.174	199.0	0.631004007	0.786139418	0.013374564	0.137982909	0.042527673
2020-07-20T00:45:00	0.2477	14.164	200.0	0.627738567	0.781274285	0.013245897	0.136655479	0.042118546
2020-07-20T00:50:00	0.2478	14.154	200.0	0.627782478	0.781339648	0.013247623	0.136673286	0.042124034
2020-07-20T00:55:00	0.2472	14.143	200.0	0.625839380	0.778448860	0.013171361	0.135886503	0.041881540
2020-07-20T01:00:00	0.2465	14.133	200.0	0.623563767	0.775067438	0.013082338	0.134968074	0.041598471
2020-07-20T01:05:00	0.2462	14.121	200.0	0.622613188	0.773656231	0.013045244	0.134585380	0.041480521
2020-07-20T01:10:00	0.2466	14.111	200.0	0.623983141	0.775690273	0.013098721	0.135137090	0.041650563
2020-07-20T01:15:00	0.2460	14.099	200.0	0.622037972	0.772802649	0.013022824	0.134354076	0.041409231
2020-07-20T01:20:00	0.2445	14.088	200.0	0.617104339	0.765492923	0.012831346	0.132378633	0.040800380
2020-07-20T01:25:00	0.2439	14.078	201.0	0.615155411	0.762611019	0.012756111	0.131602444	0.040561151
2020-07-20T01:30:00	0.2438	14.066	201.0	0.614534915	0.761694154	0.012732205	0.131355817	0.040485138
2020-07-20T01:35:00	0.2437	14.056	201.0	0.614246665	0.761268337	0.012721108	0.131241328	0.040449852
2020-07-20T01:40:00	0.2441	14.046	201.0	0.615619838	0.763297482	0.012774019	0.131787194	0.040618093
2020-07-20T01:45:00	0.2438	14.036	201.0	0.614667138	0.761889503	0.012737298	0.131408351	0.040501330
2020-07-20T01:50:00	0.2437	14.027	201.0	0.614378899	0.761463670	0.012726198	0.131293843	0.040466038
2020-07-20T01:55:00	0.2433	14.017	201.0	0.613093434	0.759565425	0.012676760	0.130783797	0.040308837
2020-07-20T02:00:00	0.2430	14.008	201.0	0.612140056	0.758158471	0.012640158	0.130406179	0.040192451
2020-07-20T02:05:00	0.2423	14.000	201.0	0.609855669	0.754790377	0.012552678	0.129503660	0.039914286
2020-07-20T02:10:00	0.2420	13.992	201.0	0.608568566	0.752894605	0.012503526	0.128996574	0.039757997
2020-07-20T02:15:00	0.2415	13.984	202.0	0.606947988	0.750509637	0.012441781	0.128359565	0.039561664
2020-07-20T02:20:00	0.2413	13.974	202.0	0.606326056	0.749594938	0.012418127	0.128115530	0.039486451
2020-07-20T02:25:00	0.2410	13.966	201.0	0.605370858	0.748190725	0.012381843	0.127741195	0.039371077
2020-07-20T02:30:00	0.2410	13.958	202.0	0.605415047	0.748255669	0.012383521	0.127758499	0.039376410
2020-07-20T02:35:00	0.2410	13.949	202.0	0.605459235	0.748320614	0.012385198	0.127775805	0.039381744
2020-07-20T02:40:00	0.2407	13.940	202.0	0.604503804	0.746916752	0.012348955	0.127401890	0.039266500
2020-07-20T02:45:00	0.2409	13.931	202.0	0.604881237	0.747471241	0.012363266	0.127549534	0.039312005
2020-07-20T02:50:00	0.2408	13.921	202.0	0.604592202	0.747046608	0.012352306	0.127436462	0.039277155
2020-07-20T02:55:00	0.2411	13.912	202.0	0.605635982	0.748580400	0.012391909	0.127845038	0.039403082
2020-07-20T03:00:00	0.2410	13.905	202.0	0.605347009	0.748155675	0.012380938	0.127731855	0.039368198
2020-07-20T03:05:00	0.2406	13.896	202.0	0.604058268	0.746262366	0.012332073	0.127227719	0.039212819
2020-07-20T03:10:00	0.2407	13.889	202.0	0.604435749	0.746816784	0.012346375	0.127375278	0.039258298
2020-07-20T03:15:00	0.2409	13.881	202.0	0.605146397	0.747860861	0.012373325	0.127653311	0.039343990
2020-07-20T03:20:00	0.2409	13.875	202.0	0.605190589	0.747925801	0.012375002	0.127670611	0.039349322
2020-07-20T03:25:00	0.2410	13.869	202.0	0.605234779	0.747990741	0.012376679	0.127687912	0.039354655
2020-07-20T03:30:00	0.2406	13.863	202.0	0.603945998	0.746097493	0.012327820	0.127183849	0.039199298
2020-07-20T03:35:00	0.2407	13.858	202.0	0.604323490	0.746651894	0.012342121	0.127331386	0.039244770
2020-07-20T03:40:00	0.2408	13.853	202.0	0.604700942	0.747206354	0.012356429	0.127478995	0.039290264
2020-07-20T03:45:00	0.2404	13.849	202.0	0.603411966	0.745313397	0.012307604	0.126975282	0.039135015
2020-07-20T03:50:00	0.2401	13.844	202.0	0.602455983	0.743910364	0.012271457	0.126602360	0.039020077
2020-07-20T03:55:00	0.2400	13.841	202.0	0.602166751	0.743486027	0.012260532	0.126489644	0.038985337
2020-07-20T04:00:00	0.2402	13.837	203.0	0.602544432	0.744040143	0.012274799	0.126636840	0.039030704
2020-07-20T04:05:00	0.2406	13.834	203.0	0.603928104	0.746071216	0.012327143	0.127176858	0.039197143
2020-07-20T04:10:00	0.2405	13.831	202.0	0.603644957	0.745655458	0.012316422	0.127066255	0.039163054
2020-07-20T04:15:00	0.2403	13.827	203.0	0.603028411	0.744750386	0.012293095	0.126825592	0.039088879
2020-07-20T04:20:00	0.2398	13.825	203.0	0.601411266	0.742377976	0.012232018	0.126195470	0.038894669
2020-07-20T04:25:00	0.2394	13.823	204.0	0.600127063	0.740495563	0.012183627	0.125696229	0.038740798
2020-07-20T04:30:00	0.2391	13.821	203.0	0.599176164	0.739102605	0.012147859	0.125327217	0.038627066
2020-07-20T04:35:00	0.2387	13.819	204.0	0.597557257	0.736732828	0.012087088	0.124700258	0.038433830
2020-07-20T04:40:00	0.2388	13.817	203.0	0.597941406	0.737294952	0.012101494	0.124848882	0.038479638
2020-07-20T04:45:00	0.2391	13.816	204.0	0.598993121	0.738834555	0.012140980	0.125256249	0.038605192
2020-07-20T04:50:00	0.2388	13.812	204.0	0.598041918	0.737442051	0.012105265	0.124887784	0.038491628
2020-07-20T04:55:00	0.2391	13.809	204.0	0.599093603	0.738981698	0.012144756	0.125295205	0.038617199
2020-07-20T05:00:00	0.2389	13.807	204.0	0.598476264	0.738077813	0.012121566	0.125055966	0.038543463
2020-07-20T05:05:00	0.2390	13.806	204.0	0.598526512	0.738151373	0.012123453	0.125075430	0.038549462
2020-07-20T05:10:00	0.2391	13.806	204.0	0.598910556	0.738713654	0.012137877	0.125224244	0.038595328
2020-07-20T05:15:00	0.2387	13.807	204.0	0.597625445	0.736832598	0.012089644	0.124726632	0.038441959
2020-07-20T05:20:00	0.2384	13.808	203.0	0.596673873	0.735440643	0.012053993	0.124358828	0.038328598
2020-07-20T05:25:00	0.2377	13.807	203.0	0.594385466	0.732096268	0.011968479	0.123476590	0.038056684
2020-07-20T05:30:00	0.2378	13.806	204.0	0.594769960	0.732657879	0.011982825	0.123624596	0.038102301
2020-07-20T05:35:00	0.2371	13.807	204.0	0.592480318	0.729315340	0.011897525	0.122744567	0.037831068
2020-07-20T05:40:00	0.2365	13.808	204.0	0.590189188	0.725975006	0.011812482	0.121867195	0.037560653
2020-07-20T05:45:00	0.2364	13.808	204.0	0.589904938	0.725560891	0.011801952	0.121758568	0.037527173
2020-07-20T05:50:00	0.2369	13.808	204.0	0.591628052	0.728072275	0.011865853	0.122417821	0.037730361
2020-07-20T05:55:00	0.2365	13.810	204.0	0.590340287	0.726195163	0.011818080	0.121924957	0.037578456
2020-07-20T06:00:00	0.2366	13.813	204.0	0.590725222	0.726756120	0.011832350	0.122072176	0.037623830
2020-07-20T06:05:00	0.2360	13.817	204.0	0.588767708	0.723904769	0.011759876	0.121324471	0.037393380
2020-07-20T06:10:00	0.2359	13.821	204.0	0.588483343	0.723490824	0.011749367	0.121216048	0.037359963
2020-07-20T06:15:00	0.2355	13.826	204.0	0.586859521	0.721128341	0.011689447	0.120597872	0.037169435
2020-07-20T06:20:00	0.2351	13.834	204.0	0.585570010	0.719253808	0.011641976	0.120108119	0.037018489
2020-07-20T06:25:00	0.2351	13.845	204.0	0.585620443	0.719327095	0.011643831	0.120127254	0.037024386
2020-07-20T06:30:00	0.2351	13.855	204.0	0.585670875	0.719400383	0.011645686	0.120146391	0.037030284
2020-07-20T06:35:00	0.2353	13.863	205.0	0.586391304	0.720447544	0.011672199	0.120419927	0.037114591
2020-07-20T06:40:00	0.2344	13.876	205.0	0.583425774	0.716139842	0.011563258	0.119296002	0.036768186
2020-07-20T06:45:00	0.2341	13.885	205.0	0.582135003	0.714267164	0.011516004	0.118808489	0.036617930
2020-07-20T06:50:00	0.2341	13.898	205.0	0.582185485	0.714340379	0.011517850	0.118827537	0.036623801
2020-07-20T06:55:00	0.2337	13.913	205.0	0.580894259	0.712468370	0.011470674	0.118340833	0.036473794
2020-07-20T07:00:00	0.2339	13.927	205.0	0.581615667	0.713514091	0.011497019	0.118612629	0.036557564
2020-07-20T07:05:00	0.2339	13.941	205.0	0.581666157	0.713587294	0.011498864	0.118631663	0.036563431
2020-07-20T07:10:00	0.2338	13.955	205.0	0.581381217	0.713174195	0.011488454	0.118524263	0.036530329
2020-07-20T07:15:00	0.2341	13.974	205.0	0.582437885	0.714706467	0.011527083	0.118922793	0.036653160
2020-07-20T07:20:00	0.2339	13.995	205.0	0.581482203	0.713320594	0.011492143	0.118562321	0.036542059
2020-07-20T07:25:00	0.2339	14.039	205.0	0.581532694	0.713393794	0.011493988	0.118581352	0.036547924
2020-07-20T07:30:00	0.2340	14.039	205.0	0.581918594	0.713953328	0.011508091	0.118726853	0.036592769
2020-07-20T07:35:00	0.2341	14.082	205.0	0.582304452	0.714512925	0.011522202	0.118872430	0.036637637
2020-07-20T07:40:00	0.2342	14.064	206.0	0.582690267	0.715072583	0.011536320	0.119018082	0.036682529
2020-07-20T07:45:00	0.2337	14.081	206.0	0.581063767	0.712714043	0.011476862	0.118404668	0.036493469
2020-07-20T07:50:00	0.2330	14.120	206.0	0.578765189	0.709384686	0.011393104	0.117540551	0.036227139
2020-07-20T07:55:00	0.2339	14.238	206.0	0.581500211	0.713346701	0.011492801	0.118569108	0.036544151
2020-07-20T08:00:00	0.2330	14.140	206.0	0.578530549	0.709045070	0.011384571	0.117452523	0.036200008
2020-07-20T08:05:00	0.2327	14.154	206.0	0.577573802	0.707660756	0.011349814	0.117093939	0.036089489
2020-07-20T08:10:00	0.2332	14.167	206.0	0.579302967	0.710163232	0.011412672	0.117742431	0.036289361
2020-07-20T08:15:00	0.2333	14.200	206.0	0.579689112	0.710722407	0.011426733	0.117887497	0.036334072
2020-07-20T08:20:00	0.2328	14.223	206.0	0.578061221	0.708365906	0.011367514	0.117276551	0.036145772
2020-07-20T08:25:00	0.2335	14.255	207.0	0.580125726	0.711354815	0.011442643	0.118051634	0.036384660
2020-07-20T08:30:00	0.2336	14.282	207.0	0.580511781	0.711914122	0.011456719	0.118196862	0.036429421
2020-07-20T08:35:00	0.2340	14.305	207.0	0.581904121	0.713932341	0.011507562	0.118721395	0.036591087
2020-07-20T08:40:00	0.2344	14.329	207.0	0.583295909	0.715951369	0.011558499	0.119246907	0.036753055
2020-07-20T08:45:00	0.2339	14.353	207.0	0.581669690	0.713592417	0.011498993	0.118632995	0.036563841
2020-07-20T08:50:00	0.2344	14.376	207.0	0.583396840	0.716097848	0.011562198	0.119285062	0.036764815
2020-07-20T08:55:00	0.2346	14.404	208.0	0.584117734	0.717144324	0.011588631	0.119557770	0.036848866
2020-07-20T09:00:00	0.2346	14.423	207.0	0.583832993	0.716730932	0.011578187	0.119450017	0.036815655
2020-07-20T09:05:00	0.2345	14.446	208.0	0.583548229	0.716317575	0.011567746	0.119342305	0.036782458
2020-07-20T09:10:00	0.2344	14.489	209.0	0.583263442	0.715904252	0.011557310	0.119234635	0.036749272
2020-07-20T09:15:00	0.2349	14.644	209.0	0.584989809	0.718410834	0.011620649	0.119888093	0.036950675
2020-07-20T09:20:00	0.2345	14.589	208.0	0.583699613	0.716537312	0.011573296	0.119399560	0.036800104
2020-07-20T09:25:00	0.2349	14.581	209.0	0.585090691	0.718557385	0.011624356	0.119926335	0.036962461
2020-07-20T09:30:00	0.2348	14.614	209.0	0.584806029	0.718143878	0.011613898	0.119818442	0.036929208
2020-07-20T09:35:00	0.2349	14.636	209.0	0.584856473	0.718217149	0.011615751	0.119837558	0.036935099
2020-07-20T09:40:00	0.2352	14.674	209.0	0.585912097	0.719750957	0.011654560	0.120237943	0.037058502
2020-07-20T09:45:00	0.2348	14.719	209.0	0.584622239	0.717876936	0.011607148	0.119748808	0.036907746
2020-07-20T09:50:00	0.2343	14.756	209.0	0.582996633	0.715517082	0.011547537	0.119133806	0.036718196
2020-07-20T09:55:00	0.2346	14.795	209.0	0.584052815	0.717050067	0.011586249	0.119533199	0.036841293
2020-07-20T10:00:00	0.2344	14.832	210.0	0.583432837	0.716150093	0.011563517	0.119298672	0.036769009
2020-07-20T10:05:00	0.2343	14.877	210.0	0.583014634	0.715543201	0.011548196	0.119140607	0.036720292
2020-07-20T10:10:00	0.2335	14.917	210.0	0.580248297	0.711532379	0.011447111	0.118097734	0.036398868
2020-07-20T10:15:00	0.2333	14.953	210.0	0.579494106	0.710440004	0.011419631	0.117814226	0.036311489
2020-07-20T10:20:00	0.2326	14.979	210.0	0.577396708	0.707404603	0.011343386	0.117027626	0.036069051
2020-07-20T10:25:00	0.2319	15.004	210.0	0.574962013	0.703885631	0.011255208	0.116117902	0.035788665
2020-07-20T10:30:00	0.2321	15.022	210.0	0.575550951	0.704736399	0.011276505	0.116337626	0.035856386
2020-07-20T10:35:00	0.2312	15.039	211.0	0.572442436	0.700249148	0.011164324	0.115180276	0.035499680
2020-07-20T10:40:00	0.2308	15.059	210.0	0.571350175	0.698674329	0.011125042	0.114775011	0.035374773
2020-07-20T10:45:00	0.2300	15.084	211.0	0.568574615	0.694676975	0.011025540	0.113748460	0.035058380
2020-07-20T10:50:00	0.2293	15.105	211.0	0.566133774	0.691166944	0.010938413	0.112849589	0.034781339
2020-07-20T10:55:00	0.2287	15.130	211.0	0.564028353	0.688143213	0.010863542	0.112077156	0.034543268
2020-07-20T11:00:00	0.2279	15.159	211.0	0.561584332	0.684637780	0.010776957	0.111183881	0.034267952
2020-07-20T11:05:00	0.2274	15.192	211.0	0.559813698	0.682101255	0.010714449	0.110538994	0.034069192
2020-07-20T11:10:00	0.2268	15.226	212.0	0.557704458	0.679083029	0.010640228	0.109773270	0.033833188
2020-07-20T11:15:00	0.2256	15.282	212.0	0.553565783	0.673171410	0.010495355	0.108278642	0.033372529
2020-07-20T11:20:00	0.2245	15.306	212.0	0.550099166	0.668230580	0.010374782	0.107034713	0.032989138
2020-07-20T11:25:00	0.2243	15.329	212.0	0.549338434	0.667147659	0.010348417	0.106762713	0.032905305
2020-07-20T11:30:00	0.2236	15.364	212.0	0.546884069	0.663657043	0.010263588	0.105887542	0.032635569
2020-07-20T11:35:00	0.2236	15.400	213.0	0.546800266	0.663537945	0.010260697	0.105857724	0.032626379
2020-07-20T11:40:00	0.2227	15.433	213.0	0.544005064	0.659568791	0.010164532	0.104865598	0.032320596
2020-07-20T11:45:00	0.2228	15.459	213.0	0.544260240	0.659930873	0.010173292	0.104955974	0.032348451
2020-07-20T11:50:00	0.2219	15.500	213.0	0.541123664	0.655483931	0.010065879	0.103847819	0.032006906
2020-07-20T11:55:00	0.2219	15.536	213.0	0.541039722	0.655365031	0.010063012	0.103818244	0.031997791
2020-07-20T12:00:00	0.2211	15.545	214.0	0.538579470	0.651882758	0.009979176	0.102953315	0.031731212
2020-07-20T12:05:00	0.2204	15.565	214.0	0.536117467	0.648402955	0.009895633	0.102091426	0.031465569
2020-07-20T12:10:00	0.2194	15.595	214.0	0.532633337	0.643486925	0.009778013	0.100877955	0.031091565
2020-07-20T12:15:00	0.2184	15.606	214.0	0.529145687	0.638575832	0.009660982	0.099670575	0.030719439
2020-07-20T12:20:00	0.2171	15.600	214.0	0.524972709	0.632712708	0.009521887	0.098235551	0.030277151
2020-07-20T12:25:00	0.2171	15.614	214.0	0.524888373	0.632594360	0.009519086	0.098206657	0.030268246
2020-07-20T12:30:00	0.2168	15.629	214.0	0.523781040	0.631040984	0.009482352	0.097827674	0.030151439
2020-07-20T12:35:00	0.2156	15.637	214.0	0.519601547	0.625186925	0.009344344	0.096403875	0.029712610
2020-07-20T12:40:00	0.2144	15.659	214.0	0.515758826	0.619817063	0.009218352	0.095104037	0.029311988
2020-07-20T12:45:00	0.2147	15.692	214.0	0.516699675	0.621130710	0.009249120	0.095421471	0.029409824
2020-07-20T12:50:00	0.2143	15.765	215.0	0.515247819	0.619103876	0.009201662	0.094931850	0.029258918
2020-07-20T12:55:00	0.2143	15.813	215.0	0.515163244	0.618985859	0.009198901	0.094903367	0.029250139
2020-07-20T13:00:00	0.2145	15.858	215.0	0.516104256	0.620299281	0.009229643	0.095220520	0.029347889
2020-07-20T13:05:00	0.2134	15.889	215.0	0.512257614	0.614934833	0.009104303	0.093927412	0.028949340
2020-07-20T13:10:00	0.2126	15.922	216.0	0.509434237	0.611005018	0.009012851	0.092983918	0.028658547
2020-07-20T13:15:00	0.2133	16.004	216.0	0.511746085	0.614222365	0.009087699	0.093756119	0.028896547
2020-07-20T13:20:00	0.2139	16.004	216.0	0.514056373	0.617441856	0.009162807	0.094530991	0.029135369
2020-07-20T13:25:00	0.2130	16.040	216.0	0.510892163	0.613033480	0.009060017	0.093470522	0.028808523
2020-07-20T13:30:00	0.2127	16.068	216.0	0.509780305	0.611486359	0.009024035	0.093099308	0.028694111
2020-07-20T13:35:00	0.2115	16.092	216.0	0.505583702	0.605655891	0.008888872	0.091704849	0.028264325
2020-07-20T13:40:00	0.2118	16.124	217.0	0.506870102	0.607441616	0.008930196	0.092131181	0.028395725
2020-07-20T13:45:00	0.2110	16.160	217.0	0.504042273	0.603517902	0.008839481	0.091195297	0.028107276
2020-07-20T13:50:00	0.2118	16.201	217.0	0.506700536	0.607206155	0.008924743	0.092074928	0.028378387
2020-07-20T13:55:00	0.2116	16.226	217.0	0.505930160	0.606136697	0.008899992	0.091819573	0.028299684
2020-07-20T14:00:00	0.2111	16.254	217.0	0.504130736	0.603640550	0.008842312	0.091224502	0.028116278
2020-07-20T14:05:00	0.2110	16.273	217.0	0.504045886	0.603522911	0.008839597	0.091196490	0.028107644
2020-07-20T14:10:00	0.2117	16.284	218.0	0.506361377	0.606735267	0.008913842	0.091962464	0.028343725
2020-07-20T14:15:00	0.2123	16.291	218.0	0.508332730	0.609473594	0.008977297	0.092617116	0.028545495
2020-07-20T14:20:00	0.2112	16.300	218.0	0.504477342	0.604121156	0.008853408	0.091338975	0.028151559
2020-07-20T14:25:00	0.2107	16.309	218.0	0.503020291	0.602101450	0.008806810	0.090858240	0.028003392
2020-07-20T14:30:00	0.2102	16.319	218.0	0.501219334	0.599607396	0.008749384	0.090265786	0.027820792
2020-07-20T14:35:00	0.2118	16.310	218.0	0.506622970	0.607098454	0.008922249	0.092049201	0.028370458
2020-07-20T14:40:00	0.2116	16.300	218.0	0.505852577	0.606029021	0.008897501	0.091793877	0.028291764
2020-07-20T14:45:00	0.2126	16.294	218.0	0.509536990	0.611147927	0.009016171	0.093018172	0.028669104
2020-07-20T14:50:00	0.2124	16.277	218.0	0.508767253	0.610077594	0.008991314	0.092761726	0.028590065
2020-07-20T14:55:00	0.2132	16.252	218.0	0.511421848	0.613770872	0.009077183	0.093647626	0.028863108
2020-07-20T15:00:00	0.2143	16.223	218.0	0.515100276	0.618897997	0.009196846	0.094882163	0.029243604
2020-07-20T15:05:00	0.2157	16.199	218.0	0.520140677	0.625941268	0.009362089	0.096586948	0.029769035
2020-07-20T15:10:00	0.2174	16.178	217.0	0.525855448	0.633951796	0.009551226	0.098538240	0.030370443
2020-07-20T15:15:00	0.2186	16.157	218.0	0.529858931	0.639579373	0.009684858	0.099916896	0.030795358
2020-07-20T15:20:00	0.2200	16.133	218.0	0.534537810	0.646172867	0.009842218	0.101540349	0.031295722
2020-07-20T15:25:00	0.2225	16.102	217.0	0.543282288	0.658543499	0.010139740	0.104609825	0.032241764
2020-07-20T15:30:00	0.2221	16.067	217.0	0.541841587	0.656501070	0.010090414	0.104100937	0.032084920
2020-07-20T15:35:00	0.2236	16.026	217.0	0.546843089	0.663598802	0.010262174	0.105872961	0.032631075
2020-07-20T15:40:00	0.2253	15.986	216.0	0.552513910	0.671671175	0.010458695	0.107900428	0.033255960
2020-07-20T15:45:00	0.2256	15.945	217.0	0.553782920	0.673481216	0.010502931	0.108356800	0.033396618
2020-07-20T15:50:00	0.2260	15.909	216.0	0.555051468	0.675291920	0.010547245	0.108813982	0.033537526
2020-07-20T15:55:00	0.2237	15.872	216.0	0.547185420	0.664085361	0.010273984	0.105994801	0.032668627
2020-07-20T16:00:00	0.2226	15.839	216.0	0.543373320	0.658672609	0.010142860	0.104642022	0.032251687
2020-07-20T16:05:00	0.2203	15.808	215.0	0.535573903	0.647635346	0.009877237	0.101901629	0.031407072
2020-07-20T16:10:00	0.2220	15.779	215.0	0.541356224	0.655813372	0.010073823	0.103929779	0.032032167
2020-07-20T16:15:00	0.2208	15.752	215.0	0.537291146	0.650061219	0.009935415	0.102501847	0.031592065
2020-07-20T16:20:00	0.2209	15.727	215.0	0.537639963	0.650554272	0.009947254	0.102623985	0.031629709
2020-07-20T16:25:00	0.2195	15.701	215.0	0.532890279	0.643849126	0.009786663	0.100967194	0.031119070
2020-07-20T16:30:00	0.2196	15.682	215.0	0.533239541	0.644341554	0.009798427	0.101088561	0.031156476
2020-07-20T16:35:00	0.2192	15.665	215.0	0.531887949	0.642436483	0.009752941	0.100619296	0.031011844
2020-07-20T16:40:00	0.2177	15.645	215.0	0.526789602	0.635263742	0.009582324	0.098859067	0.030469325
2020-07-20T16:45:00	0.2171	15.633	215.0	0.524753640	0.632405302	0.009514613	0.098160506	0.030254021
2020-07-20T16:50:00	0.2168	15.616	215.0	0.523739784	0.630983130	0.009480984	0.097813569	0.030147092
2020-07-20T16:55:00	0.2163	15.599	215.0	0.522043255	0.628605213	0.009424846	0.097234402	0.029968587
2020-07-20T17:00:00	0.2160	15.581	215.0	0.521028600	0.627184152	0.009391351	0.096888842	0.029862082
2020-07-20T17:05:00	0.2151	15.562	214.0	0.517964497	0.622897829	0.009290565	0.095849045	0.029541607
2020-07-20T17:10:00	0.2151	15.546	214.0	0.517973667	0.622910646	0.009290866	0.095852149	0.029542563
2020-07-20T17:15:00	0.2144	15.530	215.0	0.515590629	0.619582294	0.009212857	0.095047344	0.029294515
2020-07-20T17:20:00	0.2143	15.509	214.0	0.515257926	0.619117979	0.009201992	0.094935254	0.029259967
2020-07-20T17:25:00	0.2147	15.489	214.0	0.516634413	0.621039566	0.009246985	0.095399435	0.029403032
2020-07-20T17:30:00	0.2144	15.469	214.0	0.515618159	0.619620719	0.009213756	0.095056623	0.029297374
2020-07-20T17:35:00	0.2143	15.452	214.0	0.515285459	0.619156400	0.009202891	0.094944527	0.029262825
2020-07-20T17:40:00	0.2144	15.440	214.0	0.515636512	0.619646336	0.009214356	0.095062808	0.029299281
2020-07-20T17:45:00	0.2149	15.427	214.0	0.517354552	0.622045496	0.009270567	0.095642733	0.029478019
2020-07-20T17:50:00	0.2143	15.411	214.0	0.515312992	0.619194822	0.009203790	0.094953801	0.029265684
2020-07-20T17:55:00	0.2146	15.392	213.0	0.516347686	0.620639166	0.009237603	0.095302651	0.029373203
2020-07-20T18:00:00	0.2144	15.371	213.0	0.515673219	0.619697569	0.009215555	0.095075180	0.029303094
2020-07-20T18:05:00	0.2155	15.349	213.0	0.519440731	0.624961959	0.009339054	0.096349300	0.029695790
2020-07-20T18:10:00	0.2160	15.327	213.0	0.521156869	0.627363751	0.009395582	0.096932492	0.029875535
2020-07-20T18:15:00	0.2160	15.310	213.0	0.521166031	0.627376580	0.009395885	0.096935610	0.029876497
2020-07-20T18:20:00	0.2169	15.291	213.0	0.524245591	0.631692539	0.009497754	0.097986576	0.030200414
2020-07-20T18:25:00	0.2170	15.272	213.0	0.524595730	0.632183741	0.009509371	0.098106429	0.030237354
2020-07-20T18:30:00	0.2176	15.256	213.0	0.526650079	0.635067749	0.009577676	0.098811116	0.030454546
2020-07-20T18:35:00	0.2179	15.239	213.0	0.527681367	0.636516819	0.009612058	0.099165826	0.030563871
2020-07-20T18:40:00	0.2179	15.219	213.0	0.527690512	0.636529672	0.009612363	0.099168975	0.030564841
2020-07-20T18:45:00	0.2181	15.199	213.0	0.528380911	0.637500246	0.009635415	0.099406797	0.030638140
2020-07-20T18:50:00	0.2179	15.180	213.0	0.527708801	0.636555378	0.009612973	0.099175271	0.030566782
2020-07-20T18:55:00	0.2180	15.161	213.0	0.527717945	0.636568231	0.009613278	0.099178419	0.030567752
2020-07-20T19:00:00	0.2186	15.143	213.0	0.529770434	0.639454835	0.009681894	0.099886317	0.030785933
2020-07-20T19:05:00	0.2193	15.124	212.0	0.532161939	0.642822553	0.009762153	0.100714335	0.031041136
2020-07-20T19:10:00	0.2202	15.106	212.0	0.535231691	0.647152207	0.009865663	0.101782230	0.031370272
2020-07-20T19:15:00	0.2194	15.090	213.0	0.532520407	0.643327748	0.009774212	0.100838745	0.031079481
2020-07-20T19:20:00	0.2195	15.073	213.0	0.532869706	0.643820123	0.009785970	0.100960047	0.031116867
2020-07-20T19:25:00	0.2195	15.054	212.0	0.532878837	0.643832995	0.009786277	0.100963219	0.031117845
2020-07-20T19:30:00	0.2199	15.037	212.0	0.534248295	0.645764364	0.009832444	0.101439512	0.031264643
2020-07-20T19:35:00	0.2193	15.017	212.0	0.532216735	0.642899770	0.009763996	0.100733348	0.031046996
2020-07-20T19:40:00	0.2195	14.999	212.0	0.532906229	0.643871612	0.009787200	0.100972735	0.031120778
2020-07-20T19:45:00	0.2198	14.980	212.0	0.533935648	0.645323298	0.009821894	0.101330675	0.031231098
2020-07-20T19:50:00	0.2199	14.960	212.0	0.534284804	0.645815874	0.009833676	0.101452225	0.031268561
2020-07-20T19:55:00	0.2198	14.940	212.0	0.533953903	0.645349050	0.009822510	0.101337028	0.031233056
2020-07-20T20:00:00	0.2203	14.919	212.0	0.535662828	0.647760908	0.009880245	0.101932667	0.031416638
2020-07-20T20:05:00	0.2207	14.897	212.0	0.537031184	0.649693827	0.009926597	0.102410870	0.031564025
2020-07-20T20:10:00	0.2209	14.875	212.0	0.537719717	0.650667018	0.009949962	0.102651921	0.031638319
2020-07-20T20:15:00	0.2207	14.853	212.0	0.537049423	0.649719603	0.009927215	0.102417252	0.031565992
2020-07-20T20:20:00	0.2205	14.829	212.0	0.536378999	0.648772370	0.009904491	0.102182808	0.031493734
2020-07-20T20:25:00	0.2202	14.808	212.0	0.535368557	0.647345424	0.009870291	0.101829975	0.031384987
2020-07-20T20:30:00	0.2203	14.784	212.0	0.535717568	0.647838204	0.009882097	0.101951775	0.031422527
2020-07-20T20:35:00	0.2201	14.761	212.0	0.535046886	0.646891335	0.009859416	0.101717780	0.031350408
2020-07-20T20:40:00	0.2206	14.738	211.0	0.536755270	0.649303953	0.009917242	0.102314355	0.031534278
2020-07-20T20:45:00	0.2205	14.716	211.0	0.536424606	0.648836797	0.009906036	0.102198749	0.031498647
2020-07-20T20:50:00	0.2210	14.694	211.0	0.538132310	0.651250373	0.009963976	0.102796503	0.031682881
2020-07-20T20:55:00	0.2211	14.673	211.0	0.538481042	0.651743545	0.009975829	0.102918788	0.031720570
2020-07-20T21:00:00	0.2214	14.653	211.0	0.539508802	0.653197565	0.010010802	0.103279603	0.031831777
2020-07-20T21:05:00	0.2219	14.632	211.0	0.541214984	0.655613287	0.010068998	0.103879998	0.032016824
2020-07-20T21:10:00	0.2213	14.612	211.0	0.539187516	0.652742933	0.009999863	0.103166741	0.031796991
2020-07-20T21:15:00	0.2204	14.592	211.0	0.536139522	0.648434106	0.009896380	0.102099130	0.031467944
2020-07-20T21:20:00	0.2209	14.574	211.0	0.537847367	0.650847483	0.009954296	0.102696641	0.031652102
2020-07-20T21:25:00	0.2206	14.555	211.0	0.536837354	0.649419933	0.009920024	0.102343063	0.031543126
2020-07-20T21:30:00	0.2210	14.536	210.0	0.538205244	0.651353507	0.009966454	0.102822072	0.031690761
2020-07-20T21:35:00	0.2214	14.517	210.0	0.539572594	0.653287843	0.010012975	0.103302019	0.031838686
2020-07-20T21:40:00	0.2213	14.499	210.0	0.539242200	0.652820308	0.010001724	0.103185946	0.031802911
2020-07-20T21:45:00	0.2203	14.481	210.0	0.535854414	0.648031448	0.009886728	0.101999553	0.031437253
2020-07-20T21:50:00	0.2205	14.463	210.0	0.536543182	0.649004309	0.009910054	0.102240197	0.031511422
2020-07-20T21:55:00	0.2209	14.443	210.0	0.537911189	0.650937719	0.009956464	0.102719005	0.031658995
2020-07-20T22:00:00	0.2216	14.423	210.0	0.539957630	0.653832814	0.010026095	0.103437372	0.031880403
2020-07-20T22:05:00	0.2227	14.405	210.0	0.543692644	0.659125555	0.010153811	0.104755001	0.032286509
2020-07-20T22:10:00	0.2232	14.386	210.0	0.545390701	0.661535580	0.010212146	0.105356824	0.032471996
2020-07-20T22:15:00	0.2227	14.367	210.0	0.543698712	0.659134164	0.010154020	0.104757149	0.032287171
2020-07-20T22:20:00	0.2224	14.347	210.0	0.542684336	0.657695597	0.010119253	0.104398463	0.032176620
2020-07-20T22:25:00	0.2230	14.328	210.0	0.544721891	0.660586067	0.010189150	0.105119578	0.032398875
2020-07-20T22:30:00	0.2237	14.308	210.0	0.547097021	0.663959708	0.010270934	0.105963332	0.032658928
2020-07-20T22:35:00	0.2238	14.289	210.0	0.547438790	0.664445539	0.010282729	0.106085024	0.032696435
2020-07-20T22:40:00	0.2240	14.269	210.0	0.548119198	0.665413034	0.010306233	0.106327505	0.032771170
2020-07-20T22:45:00	0.2242	14.251	209.0	0.548799472	0.666380719	0.010329759	0.106570219	0.032845976
2020-07-20T22:50:00	0.2239	14.233	210.0	0.547786587	0.664940036	0.010294740	0.106208936	0.032734625
2020-07-20T22:55:00	0.2236	14.216	209.0	0.546773406	0.663499773	0.010259771	0.105848168	0.032623433
2020-07-20T23:00:00	0.2232	14.198	210.0	0.545421027	0.661578642	0.010213189	0.105367588	0.032475314
2020-07-20T23:05:00	0.2231	14.180	209.0	0.545085124	0.661101706	0.010201636	0.105248394	0.032438577
2020-07-20T23:10:00	0.2230	14.163	209.0	0.544749189	0.660624815	0.010190088	0.105129256	0.032401858
2020-07-20T23:15:00	0.2235	14.144	209.0	0.546446729	0.663035574	0.010248509	0.105731979	0.032587623
2020-07-20T23:20:00	0.2236	14.126	209.0	0.546788563	0.663521313	0.010260294	0.105853561	0.032625095
2020-07-20T23:25:00	0.2240	14.108	209.0	0.548146469	0.665451821	0.010307176	0.106337230	0.032774167
2020-07-20T23:30:00	0.2237	14.090	209.0	0.547133394	0.664011409	0.010272189	0.105976279	0.032662919
2020-07-20T23:35:00	0.2237	14.071	209.0	0.547136425	0.664015717	0.010272294	0.105977358	0.032663251
2020-07-20T23:40:00	0.2243	14.052	208.0	0.549171367	0.666909897	0.010342632	0.106703025	0.032886909
2020-07-20T23:45:00	0.2241	14.035	208.0	0.548497225	0.665950729	0.010319303	0.106462346	0.032812729
2020-07-20T23:50:00	0.2250	14.017	208.0	0.551546481	0.670292181	0.010425035	0.107553169	0.033148931
2020-07-20T23:55:00	0.2257	13.999	208.0	0.553916949	0.673672464	0.010507608	0.108405058	0.033411492
2020-07-21T00:00:00	0.2262	13.981	208.0	0.555610015	0.676089600	0.010566787	0.109015590	0.033599664
2020-07-21T00:05:00	0.2263	13.965	209.0	0.555950948	0.676576624	0.010578724	0.109138744	0.033637621
2020-07-21T00:10:00	0.2261	13.949	209.0	0.555278121	0.675615579	0.010555173	0.108895770	0.033562734
2020-07-21T00:15:00	0.2260	13.935	207.0	0.554943170	0.675137286	0.010543458	0.108774913	0.033525485
2020-07-21T00:20:00	0.2259	13.922	208.0	0.554608187	0.674659038	0.010531749	0.108654113	0.033488253
2020-07-21T00:25:00	0.2263	13.908	208.0	0.555963042	0.676593902	0.010579147	0.109143114	0.033638968
2020-07-21T00:30:00	0.2269	13.897	208.0	0.557992824	0.679495453	0.010650360	0.109877797	0.033865404
2020-07-21T00:35:00	0.2266	13.886	208.0	0.556982615	0.678050946	0.010614887	0.109511837	0.033752612
2020-07-21T00:40:00	0.2255	13.876	208.0	0.553267934	0.672746510	0.010484968	0.108171479	0.033339500
2020-07-21T00:45:00	0.2253	13.866	208.0	0.552594587	0.671786208	0.010461504	0.107929413	0.033264893
2020-07-21T00:50:00	0.2256	13.856	208.0	0.553612122	0.673237522	0.010496971	0.108295319	0.033377669
2020-07-21T00:55:00	0.2253	13.847	208.0	0.552600639	0.671794839	0.010461715	0.107931587	0.033265563
2020-07-21T01:00:00	0.2251	13.840	208.0	0.551927163	0.670834722	0.010438274	0.107689747	0.033191026
2020-07-21T01:05:00	0.2252	13.831	208.0	0.552268457	0.671321229	0.010450150	0.107812269	0.033228788
2020-07-21T01:10:00	0.2253	13.823	208.0	0.552609718	0.671807784	0.010462031	0.107934849	0.033266569
2020-07-21T01:15:00	0.2256	13.815	208.0	0.553627249	0.673259105	0.010497499	0.108300764	0.033379347
2020-07-21T01:20:00	0.2233	13.810	208.0	0.545844832	0.662180520	0.010227775	0.105518072	0.032521695
2020-07-21T01:25:00	0.2232	13.802	207.0	0.545508970	0.661703525	0.010216215	0.105398806	0.032484936
2020-07-21T01:30:00	0.2236	13.796	207.0	0.546867378	0.663633321	0.010263012	0.105881603	0.032633738
2020-07-21T01:35:00	0.2234	13.790	208.0	0.546192789	0.662674790	0.010239759	0.105641705	0.032559799
2020-07-21T01:40:00	0.2234	13.783	207.0	0.546195820	0.662679097	0.010239863	0.105642783	0.032560132
2020-07-21T01:45:00	0.2229	13.777	208.0	0.544504224	0.660277123	0.010181671	0.105042423	0.032375095
2020-07-21T01:50:00	0.2225	13.771	208.0	0.543150959	0.658357249	0.010135238	0.104563385	0.032227451
2020-07-21T01:55:00	0.2226	13.765	207.0	0.543493118	0.658842527	0.010146968	0.104684400	0.032264749
2020-07-21T02:00:00	0.2226	13.758	208.0	0.543496152	0.658846831	0.010147072	0.104685474	0.032265080
2020-07-21T02:05:00	0.2230	13.753	208.0	0.544855348	0.660775508	0.010193736	0.105166897	0.032413459
2020-07-21T02:10:00	0.2225	13.746	207.0	0.543163098	0.658374462	0.010135654	0.104567677	0.032228774
2020-07-21T02:15:00	0.2226	13.740	207.0	0.543505255	0.658859742	0.010147384	0.104688694	0.032266072
2020-07-21T02:20:00	0.2221	13.734	208.0	0.541812345	0.656459632	0.010089414	0.104090621	0.032081740
2020-07-21T02:25:00	0.2212	13.728	207.0	0.538760587	0.652138945	0.009985335	0.103016864	0.031750798
2020-07-21T02:30:00	0.2210	13.722	207.0	0.538084417	0.651182651	0.009962349	0.102779715	0.031677706
2020-07-21T02:35:00	0.2211	13.715	207.0	0.538427077	0.651667221	0.009973994	0.102899860	0.031714736
2020-07-21T02:40:00	0.2203	13.709	208.0	0.535712217	0.647830648	0.009881916	0.101949908	0.031421952
2020-07-21T02:45:00	0.2187	13.700	207.0	0.530273042	0.640162221	0.009698734	0.100060051	0.030839479
2020-07-21T02:50:00	0.2187	13.692	207.0	0.530276088	0.640166509	0.009698836	0.100061104	0.030839804
2020-07-21T02:55:00	0.2186	13.683	207.0	0.529938711	0.639691650	0.009687531	0.099944467	0.030803855
2020-07-21T03:00:00	0.2192	13.673	208.0	0.531983790	0.642571522	0.009756163	0.100652535	0.031022089
2020-07-21T03:05:00	0.2193	13.662	207.0	0.532327056	0.643055241	0.009767707	0.100771631	0.031058795
2020-07-21T03:10:00	0.2189	13.650	208.0	0.530969015	0.641142095	0.009722077	0.100300875	0.030913704
2020-07-21T03:15:00	0.2184	13.638	207.0	0.529269951	0.638750644	0.009665140	0.099713468	0.030732659
2020-07-21T03:20:00	0.2184	13.626	207.0	0.529272998	0.638754930	0.009665242	0.099714520	0.030732983
2020-07-21T03:25:00	0.2189	13.615	207.0	0.530978151	0.641154960	0.009722384	0.100304038	0.030914679
2020-07-21T03:30:00	0.2189	13.602	207.0	0.530981196	0.641159248	0.009722486	0.100305093	0.030915004
2020-07-21T03:35:00	0.2183	13.589	207.0	0.528941617	0.638288780	0.009654157	0.099600155	0.030697735
2020-07-21T03:40:00	0.2180	13.577	207.0	0.527922898	0.636856321	0.009620119	0.099248993	0.030589504
2020-07-21T03:45:00	0.2180	13.566	207.0	0.527925946	0.636860606	0.009620221	0.099250043	0.030589827
2020-07-21T03:50:00	0.2182	13.552	207.0	0.528610204	0.637822675	0.009643077	0.099485845	0.030662504
2020-07-21T03:55:00	0.2182	13.542	206.0	0.528613251	0.637826960	0.009643179	0.099486896	0.030662828
2020-07-21T04:00:00	0.2175	13.531	207.0	0.526231479	0.634479817	0.009563738	0.098667322	0.030410227
2020-07-21T04:05:00	0.2184	13.522	206.0	0.529104534	0.638517943	0.009659606	0.099656372	0.030715062
2020-07-21T04:10:00	0.2181	13.512	207.0	0.528230536	0.637288813	0.009630391	0.099354973	0.030622168
2020-07-21T04:15:00	0.2180	13.505	207.0	0.528037638	0.637017620	0.009623950	0.099288514	0.030601684
2020-07-21T04:20:00	0.2174	13.499	207.0	0.525800243	0.633874286	0.009549390	0.098519296	0.030364604
2020-07-21T04:25:00	0.2176	13.494	207.0	0.526629662	0.635039069	0.009576996	0.098804100	0.030452383
2020-07-21T04:30:00	0.2168	13.489	206.0	0.523709306	0.630940390	0.009479974	0.097803149	0.030143880
2020-07-21T04:35:00	0.2163	13.482	207.0	0.522151583	0.628756980	0.009428426	0.097271332	0.029979969
2020-07-21T04:40:00	0.2163	13.478	206.0	0.521958345	0.628486261	0.009422041	0.097205461	0.029959667
2020-07-21T04:45:00	0.2164	13.475	206.0	0.522447526	0.629171642	0.009438208	0.097372257	0.030011075
2020-07-21T04:50:00	0.2167	13.472	206.0	0.523618836	0.630813527	0.009476977	0.097772222	0.030134348
2020-07-21T04:55:00	0.2167	13.471	206.0	0.523425680	0.630542693	0.009470578	0.097706208	0.030114002
2020-07-21T05:00:00	0.2167	13.470	206.0	0.523573600	0.630750096	0.009475478	0.097756760	0.030129583
2020-07-21T05:05:00	0.2170	13.469	206.0	0.524403555	0.631914132	0.009502994	0.098040639	0.030217077
2020-07-21T05:10:00	0.2175	13.470	206.0	0.526255875	0.634514077	0.009564550	0.098675699	0.030412809
2020-07-21T05:15:00	0.2168	13.471	206.0	0.523676278	0.630894075	0.009478880	0.097791858	0.030140400
2020-07-21T05:20:00	0.2171	13.473	207.0	0.524847170	0.632536542	0.009517718	0.098192542	0.030263895
2020-07-21T05:25:00	0.2176	13.472	206.0	0.526358474	0.634658168	0.009567965	0.098710935	0.030423669
2020-07-21T05:30:00	0.2180	13.476	207.0	0.527869114	0.636780718	0.009618324	0.099230471	0.030583795
2020-07-21T05:35:00	0.2188	13.481	207.0	0.530740805	0.640820750	0.009714420	0.100221877	0.030889356
2020-07-21T05:40:00	0.2198	13.484	207.0	0.533950167	0.645343780	0.009822384	0.101335728	0.031232656
2020-07-21T05:45:00	0.2190	13.487	206.0	0.531376325	0.641715738	0.009735751	0.100441950	0.030957185
2020-07-21T05:50:00	0.2191	13.489	207.0	0.531523904	0.641923616	0.009740708	0.100493090	0.030972946
2020-07-21T05:55:00	0.2192	13.492	207.0	0.532011729	0.642610889	0.009757102	0.100662226	0.031025076
2020-07-21T06:00:00	0.2201	13.498	207.0	0.534879974	0.646655747	0.009853776	0.101659588	0.031332472
2020-07-21T06:05:00	0.2198	13.511	207.0	0.534007438	0.645424569	0.009824316	0.101355661	0.031238799
2020-07-21T06:10:00	0.2191	13.522	206.0	0.531773914	0.642275819	0.009749108	0.100579754	0.030999657
2020-07-21T06:15:00	0.2189	13.525	207.0	0.530900592	0.641045743	0.009719781	0.100277186	0.030906403
2020-07-21T06:20:00	0.2198	13.537	208.0	0.534109806	0.645568982	0.009827770	0.101391295	0.031249782
2020-07-21T06:25:00	0.2203	13.546	207.0	0.535617057	0.647696278	0.009878696	0.101916691	0.031411714
2020-07-21T06:30:00	0.2199	13.554	207.0	0.534404724	0.645985076	0.009837724	0.101493989	0.031281433
2020-07-21T06:35:00	0.2201	13.569	207.0	0.534892142	0.646672920	0.009854187	0.101663830	0.031333780
2020-07-21T06:40:00	0.2206	13.578	207.0	0.536738838	0.649280735	0.009916685	0.102308608	0.031532507
2020-07-21T06:45:00	0.2201	13.585	207.0	0.535186992	0.647089107	0.009864152	0.101766640	0.031365467
2020-07-21T06:50:00	0.2195	13.591	207.0	0.532954232	0.643939287	0.009788816	0.100989412	0.031125918
2020-07-21T06:55:00	0.2197	13.598	207.0	0.533781932	0.645106473	0.009816710	0.101277186	0.031214612
2020-07-21T07:00:00	0.2201	13.619	207.0	0.534949397	0.646753730	0.009856122	0.101683789	0.031339931
2020-07-21T07:05:00	0.2194	13.633	208.0	0.532716482	0.643604126	0.009780811	0.100906828	0.031100464
2020-07-21T07:10:00	0.2193	13.652	207.0	0.532183634	0.642853125	0.009762883	0.100721863	0.031043456
2020-07-21T07:15:00	0.2194	13.673	208.0	0.532671366	0.643540529	0.009779293	0.100891160	0.031095635
2020-07-21T07:20:00	0.2197	13.710	208.0	0.533839206	0.645187258	0.009818641	0.101297114	0.031220754
2020-07-21T07:25:00	0.2199	13.732	208.0	0.534326703	0.645874990	0.009835091	0.101466816	0.031273058
2020-07-21T07:30:00	0.2189	13.747	208.0	0.531072553	0.641287901	0.009725552	0.100336727	0.030924754
2020-07-21T07:35:00	0.2191	13.806	208.0	0.531560442	0.641975085	0.009741936	0.100505753	0.030976849
2020-07-21T07:40:00	0.2187	13.830	208.0	0.530346683	0.640265882	0.009701203	0.100085519	0.030847329
2020-07-21T07:45:00	0.2191	13.882	208.0	0.531515310	0.641911509	0.009740419	0.100490111	0.030972028
2020-07-21T07:50:00	0.2192	13.843	208.0	0.532003135	0.642598781	0.009756813	0.100659245	0.031024157
2020-07-21T07:55:00	0.2190	13.912	208.0	0.531129871	0.641368623	0.009727476	0.100356577	0.030930872
2020-07-21T08:00:00	0.2196	13.856	208.0	0.533318703	0.644453180	0.009801094	0.101116080	0.031164958
2020-07-21T08:05:00	0.2191	13.877	208.0	0.531765320	0.642263711	0.009748820	0.100576775	0.030998739
2020-07-21T08:10:00	0.2198	13.857	209.0	0.533953749	0.645348833	0.009822505	0.101336975	0.031233040
2020-07-21T08:15:00	0.2197	13.854	208.0	0.533761172	0.645077191	0.009816010	0.101269963	0.031212386
2020-07-21T08:20:00	0.2197	13.862	208.0	0.533568583	0.644805565	0.009809516	0.101202970	0.031191738
2020-07-21T08:25:00	0.2197	13.869	209.0	0.533716069	0.645013575	0.009814489	0.101254271	0.031207550
2020-07-21T08:30:00	0.2197	13.881	208.0	0.533523478	0.644741952	0.009807996	0.101187282	0.031186903
2020-07-21T08:35:00	0.2193	13.904	208.0	0.532310409	0.643031782	0.009767147	0.100765854	0.031057015
2020-07-21T08:40:00	0.2189	13.929	208.0	0.531096914	0.641322209	0.009726370	0.100345163	0.030927354
2020-07-21T08:45:00	0.2191	13.952	209.0	0.531584799	0.642009398	0.009742754	0.100514195	0.030979451
2020-07-21T08:50:00	0.2190	13.979	209.0	0.531392090	0.641737942	0.009736281	0.100447412	0.030958868
2020-07-21T08:55:00	0.2191	14.010	209.0	0.531539668	0.641945822	0.009741238	0.100498553	0.030974630
2020-07-21T09:00:00	0.2196	14.032	209.0	0.533388157	0.644551119	0.009803435	0.101140227	0.031172400
2020-07-21T09:05:00	0.2190	14.053	209.0	0.531154232	0.641402932	0.009728294	0.100365014	0.030933472
2020-07-21T09:10:00	0.2191	14.057	209.0	0.531642109	0.642090132	0.009744679	0.100534060	0.030985574
2020-07-21T09:15:00	0.2198	14.093	209.0	0.534170656	0.645654827	0.009829824	0.101412479	0.031256311
2020-07-21T09:20:00	0.2190	14.152	210.0	0.531256685	0.641547226	0.009731734	0.100400502	0.030944410
2020-07-21T09:25:00	0.2188	14.179	210.0	0.530723612	0.640796541	0.009713843	0.100215926	0.030887522
2020-07-21T09:30:00	0.2174	14.228	210.0	0.525762216	0.633820897	0.009548125	0.098506249	0.030360583
2020-07-21T09:35:00	0.2173	14.253	210.0	0.525569180	0.633549896	0.009541707	0.098440028	0.030340173
2020-07-21T09:40:00	0.2175	14.262	210.0	0.526057849	0.634235991	0.009557960	0.098607708	0.030391853
2020-07-21T09:45:00	0.2185	14.238	210.0	0.529612060	0.639231977	0.009676591	0.099831604	0.030769070
2020-07-21T09:50:00	0.2182	14.278	210.0	0.528397615	0.637523734	0.009635973	0.099412555	0.030639915
2020-07-21T09:55:00	0.2175	14.338	210.0	0.526160453	0.634380073	0.009561374	0.098642934	0.030402710
2020-07-21T10:00:00	0.2179	14.387	211.0	0.527671181	0.636502502	0.009611718	0.099162320	0.030562790
2020-07-21T10:05:00	0.2177	14.385	210.0	0.526790721	0.635265314	0.009582361	0.098859452	0.030469443
2020-07-21T10:10:00	0.2173	14.383	211.0	0.525569180	0.633549896	0.009541707	0.098440028	0.030340173
2020-07-21T10:15:00	0.2181	14.392	210.0	0.528096088	0.637099790	0.009625901	0.099308649	0.030607890
2020-07-21T10:20:00	0.2188	14.401	211.0	0.530621143	0.640652269	0.009710406	0.100180466	0.030876593
2020-07-21T10:25:00	0.2194	14.415	211.0	0.532804210	0.643727792	0.009783765	0.100937297	0.031109855
2020-07-21T10:30:00	0.2192	14.423	211.0	0.531925060	0.642488772	0.009754189	0.100632166	0.031015811
2020-07-21T10:35:00	0.2192	14.422	211.0	0.532066527	0.642688104	0.009758945	0.100681234	0.031030934
2020-07-21T10:40:00	0.2198	14.412	210.0	0.533908649	0.645285213	0.009820984	0.101321279	0.031228202
2020-07-21T10:45:00	0.2195	14.406	211.0	0.533029780	0.644045798	0.009791361	0.101015661	0.031134008
2020-07-21T10:50:00	0.2195	14.408	211.0	0.532831064	0.643765647	0.009784669	0.100946624	0.031112730
2020-07-21T10:55:00	0.2192	14.406	211.0	0.531951920	0.642526617	0.009755092	0.100641482	0.031018682
2020-07-21T11:00:00	0.2192	14.406	211.0	0.532093386	0.642725951	0.009759848	0.100690552	0.031033806
2020-07-21T11:05:00	0.2192	14.401	212.0	0.531894616	0.642445876	0.009753165	0.100621608	0.031012557
2020-07-21T11:10:00	0.2191	14.400	211.0	0.531695834	0.642165818	0.009746485	0.100552684	0.030991314
2020-07-21T11:15:00	0.2188	14.402	210.0	0.530476031	0.640447973	0.009705539	0.100130260	0.030861119
2020-07-21T11:20:00	0.2183	14.410	211.0	0.528915273	0.638251727	0.009653276	0.099591066	0.030694934
2020-07-21T11:25:00	0.2182	14.416	211.0	0.528716319	0.637971908	0.009646624	0.099522439	0.030673782
2020-07-21T11:30:00	0.2184	14.425	211.0	0.529198448	0.638650053	0.009662748	0.099688786	0.030725052
2020-07-21T11:35:00	0.2196	14.431	212.0	0.533423596	0.644601095	0.009804629	0.101152549	0.031176198
2020-07-21T11:40:00	0.2201	14.440	212.0	0.534925062	0.646719384	0.009855299	0.101675306	0.031337317
2020-07-21T11:45:00	0.2203	14.463	211.0	0.535746208	0.647878646	0.009883066	0.101961774	0.031425609
2020-07-21T11:50:00	0.2199	14.483	212.0	0.534187832	0.645679060	0.009830403	0.101418459	0.031258154
2020-07-21T11:55:00	0.2193	14.499	211.0	0.532288561	0.643000992	0.009766412	0.100758272	0.031054678
2020-07-21T12:00:00	0.2178	14.532	212.0	0.527323323	0.636013630	0.009600114	0.099042605	0.030525893
2020-07-21T12:05:00	0.2180	14.548	212.0	0.527805646	0.636691503	0.009616205	0.099208615	0.030577059
2020-07-21T12:10:00	0.2179	14.570	212.0	0.527606628	0.636411774	0.009609564	0.099140099	0.030555941
2020-07-21T12:15:00	0.2187	14.601	212.0	0.530132042	0.639963752	0.009694008	0.100011297	0.030824453
2020-07-21T12:20:00	0.2192	14.626	212.0	0.531975196	0.642559414	0.009755874	0.100649555	0.031021170
2020-07-21T12:25:00	0.2187	14.657	212.0	0.530415117	0.640362218	0.009703497	0.100109189	0.030854624
2020-07-21T12:30:00	0.2183	14.684	212.0	0.528854331	0.638166011	0.009651238	0.099570042	0.030688454
2020-07-21T12:35:00	0.2181	14.705	212.0	0.528314790	0.637407276	0.009633206	0.099384008	0.030631117
2020-07-21T12:40:00	0.2181	14.736	212.0	0.528115802	0.637127506	0.009626560	0.099315441	0.030609983
2020-07-21T12:45:00	0.2183	14.769	213.0	0.528938570	0.638284494	0.009654055	0.099599104	0.030697411
2020-07-21T12:50:00	0.2185	14.801	212.0	0.529420667	0.638962683	0.009670184	0.099765504	0.030748697
2020-07-21T12:55:00	0.2182	14.830	213.0	0.528540654	0.637724870	0.009640752	0.099461865	0.030655113
2020-07-21T13:00:00	0.2174	14.853	213.0	0.525956669	0.634093918	0.009554593	0.098572978	0.030381149
2020-07-21T13:05:00	0.2175	14.871	213.0	0.526098381	0.634292908	0.009559308	0.098621623	0.030396142
2020-07-21T13:10:00	0.2182	14.885	213.0	0.528624900	0.637843343	0.009643568	0.099490913	0.030664066
2020-07-21T13:15:00	0.2183	14.900	214.0	0.528766502	0.638042485	0.009648301	0.099539747	0.030679117
2020-07-21T13:20:00	0.2179	14.914	213.0	0.527545663	0.636326090	0.009607530	0.099119115	0.030549474
2020-07-21T13:25:00	0.2178	14.927	213.0	0.527346630	0.636046383	0.009600891	0.099050624	0.030528364
2020-07-21T13:30:00	0.2173	14.935	214.0	0.525443586	0.633373591	0.009537532	0.098396955	0.030326897
2020-07-21T13:35:00	0.2159	14.929	214.0	0.520809821	0.626877853	0.009384137	0.096814413	0.029839142
2020-07-21T13:40:00	0.2158	14.924	214.0	0.520269017	0.626120875	0.009366316	0.096630554	0.029782475
2020-07-21T13:45:00	0.2158	14.929	214.0	0.520410964	0.626319538	0.009370992	0.096678795	0.029797344
2020-07-21T13:50:00	0.2166	14.921	214.0	0.522941661	0.629864160	0.009454554	0.097540888	0.030063049
2020-07-21T13:55:00	0.2163	14.910	214.0	0.522059990	0.628628657	0.009425399	0.097240107	0.029970345
2020-07-21T14:00:00	0.2161	14.903	213.0	0.521519383	0.627871406	0.009407545	0.097055910	0.029913574
2020-07-21T14:05:00	0.2167	14.900	214.0	0.523367151	0.630460634	0.009468640	0.097686210	0.030107839
2020-07-21T14:10:00	0.2166	14.901	214.0	0.523167877	0.630181263	0.009462041	0.097618136	0.030086858
2020-07-21T14:15:00	0.2154	14.902	214.0	0.518872595	0.624167360	0.009320378	0.096156620	0.029636404
2020-07-21T14:20:00	0.2147	14.899	214.0	0.516623110	0.621023780	0.009246615	0.095395619	0.029401856
2020-07-21T14:25:00	0.2142	14.905	214.0	0.515056051	0.618836289	0.009195402	0.094867272	0.029239015
2020-07-21T14:30:00	0.2138	14.923	214.0	0.513488275	0.616649785	0.009144309	0.094340155	0.029076552
2020-07-21T14:35:00	0.2129	14.948	215.0	0.510550590	0.612558083	0.009048955	0.093356403	0.028773350
2020-07-21T14:40:00	0.2127	14.973	214.0	0.509665728	0.611326986	0.009020331	0.093061097	0.028682334
2020-07-21T14:45:00	0.2136	14.994	214.0	0.512888694	0.615814103	0.009124807	0.094138952	0.029014539
2020-07-21T14:50:00	0.2134	15.010	215.0	0.512346640	0.615058852	0.009107194	0.093957239	0.028958534
2020-07-21T14:55:00	0.2139	15.022	215.0	0.513857333	0.617164314	0.009156324	0.094464107	0.029114755
2020-07-21T15:00:00	0.2133	15.031	215.0	0.511946798	0.614501898	0.009094212	0.093823312	0.028917256
2020-07-21T15:05:00	0.2130	15.036	215.0	0.510719965	0.612793806	0.009054439	0.093412982	0.028790788
2020-07-21T15:10:00	0.2124	15.040	215.0	0.508807680	0.610133797	0.008992618	0.092775186	0.028594213
2020-07-21T15:15:00	0.2124	15.041	215.0	0.508607558	0.609855596	0.008986161	0.092708566	0.028573681
2020-07-21T15:20:00	0.2117	15.040	215.0	0.506351322	0.606721307	0.008913519	0.091959131	0.028342697
2020-07-21T15:25:00	0.2117	15.043	215.0	0.506493846	0.606919175	0.008918099	0.092006382	0.028357260
2020-07-21T15:30:00	0.2121	15.043	215.0	0.507664484	0.608545009	0.008955762	0.092394944	0.028477019
2020-07-21T15:35:00	0.2112	15.040	216.0	0.504721793	0.604460172	0.008861237	0.091419752	0.028176456
2020-07-21T15:40:00	0.2117	15.032	215.0	0.506235854	0.606561013	0.008909809	0.091920858	0.028330901
2020-07-21T15:45:00	0.2116	15.021	214.0	0.506035581	0.606283018	0.008903377	0.091854496	0.028310448
2020-07-21T15:50:00	0.2116	15.013	215.0	0.506178118	0.606480868	0.008907955	0.091901725	0.028325004
2020-07-21T15:55:00	0.2122	15.008	215.0	0.508034170	0.609058675	0.008967672	0.092517821	0.028514891
2020-07-21T16:00:00	0.2111	14.999	215.0	0.504405902	0.604022089	0.008851120	0.091315375	0.028144285
2020-07-21T16:05:00	0.2109	14.990	214.0	0.503680509	0.603016406	0.008827909	0.091075914	0.028070481
2020-07-21T16:10:00	0.2100	14.985	215.0	0.500552222	0.598684211	0.008728160	0.090046820	0.027753304
2020-07-21T16:15:00	0.2100	14.979	214.0	0.500512825	0.598629702	0.008726908	0.090033897	0.027749321
2020-07-21T16:20:00	0.2087	14.969	215.0	0.496006599	0.592403248	0.008584224	0.088561857	0.027295624
2020-07-21T16:25:00	0.2083	14.954	215.0	0.494591546	0.590451370	0.008539660	0.088102096	0.027153922
2020-07-21T16:30:00	0.2080	14.939	214.0	0.493520001	0.588974385	0.008505990	0.087754735	0.027046862
2020-07-21T16:35:00	0.2078	14.924	215.0	0.492792288	0.587971852	0.008483162	0.087519222	0.026974274
2020-07-21T16:40:00	0.2069	14.909	215.0	0.489998436	0.584126852	0.008395804	0.086617959	0.026696496
2020-07-21T16:45:00	0.2068	14.903	214.0	0.489614460	0.583598900	0.008383833	0.086494455	0.026658431
2020-07-21T16:50:00	0.2058	14.895	214.0	0.486128409	0.578811105	0.008275537	0.085377186	0.026314078
2020-07-21T16:55:00	0.2053	14.883	214.0	0.484364248	0.576391884	0.008220998	0.084814523	0.026140660
2020-07-21T17:00:00	0.2050	14.872	214.0	0.483289472	0.574919247	0.008187859	0.084472637	0.026035287
2020-07-21T17:05:00	0.2042	14.862	214.0	0.480487787	0.571084767	0.008101786	0.083584636	0.025761597
2020-07-21T17:10:00	0.2038	14.850	214.0	0.479066252	0.569141601	0.008058286	0.083135854	0.025623278
2020-07-21T17:15:00	0.2037	14.835	215.0	0.478681037	0.568615310	0.008046518	0.083014446	0.025585859
2020-07-21T17:20:00	0.2034	14.820	214.0	0.477950135	0.567617056	0.008024213	0.082784331	0.025514935
2020-07-21T17:25:00	0.2035	14.808	214.0	0.478256122	0.568034916	0.008033547	0.082880629	0.025544615
2020-07-21T17:30:00	0.2034	14.794	214.0	0.477870815	0.567508748	0.008021795	0.082759377	0.025507244
2020-07-21T17:35:00	0.2034	14.777	214.0	0.477831154	0.567454594	0.008020585	0.082746901	0.025503398
2020-07-21T17:40:00	0.2033	14.763	214.0	0.477445798	0.566928490	0.008008840	0.082625730	0.025466053
2020-07-21T17:45:00	0.2031	14.747	214.0	0.476714629	0.565930591	0.007986579	0.082396065	0.025395267
2020-07-21T17:50:00	0.2033	14.731	214.0	0.477366466	0.566820197	0.008006424	0.082600796	0.025458368
2020-07-21T17:55:00	0.2028	14.712	214.0	0.475597736	0.564407079	0.007952633	0.082045850	0.025287328
2020-07-21T18:00:00	0.2024	14.693	213.0	0.474174145	0.562466651	0.007909469	0.081600534	0.025150077
2020-07-21T18:05:00	0.2023	14.673	213.0	0.474134441	0.562412555	0.007908267	0.081588132	0.025146255
2020-07-21T18:10:00	0.2016	14.650	214.0	0.471671484	0.559059303	0.007833868	0.080820575	0.024909686
2020-07-21T18:15:00	0.2013	14.628	214.0	0.470592669	0.557592043	0.007801390	0.080485501	0.024806413
2020-07-21T18:20:00	0.2015	14.606	214.0	0.471245688	0.558480081	0.007821041	0.080688243	0.024868900
2020-07-21T18:25:00	0.2018	14.584	214.0	0.472244842	0.559839484	0.007851157	0.080998937	0.024964659
2020-07-21T18:30:00	0.2014	14.561	213.0	0.470819837	0.557900930	0.007808223	0.080556001	0.024828142
2020-07-21T18:35:00	0.2020	14.537	214.0	0.472857822	0.560673869	0.007869661	0.081189839	0.025023497
2020-07-21T18:40:00	0.2026	14.514	213.0	0.474894578	0.563448436	0.007931298	0.081825744	0.025219489
2020-07-21T18:45:00	0.2023	14.487	213.0	0.473816792	0.561979813	0.007898652	0.081488938	0.025115682
2020-07-21T18:50:00	0.2024	14.461	213.0	0.474469187	0.562868676	0.007918405	0.081692729	0.025178492
2020-07-21T18:55:00	0.2024	14.432	213.0	0.474429487	0.562814576	0.007917203	0.081680320	0.025174668
2020-07-21T19:00:00	0.2026	14.404	212.0	0.475081764	0.563703596	0.007936975	0.081884309	0.025237539
2020-07-21T19:05:00	0.2029	14.375	213.0	0.476079785	0.565064502	0.007967275	0.082196911	0.025333886
2020-07-21T19:10:00	0.2024	14.345	212.0	0.474310382	0.562652279	0.007913595	0.081643099	0.025163196
2020-07-21T19:15:00	0.2027	14.318	212.0	0.475308631	0.564012883	0.007943858	0.081955317	0.025259425
2020-07-21T19:20:00	0.2035	14.289	213.0	0.478035286	0.567733333	0.008026810	0.082811123	0.025523192
2020-07-21T19:25:00	0.2040	14.258	212.0	0.479723467	0.570039780	0.008078383	0.083343190	0.025687181
2020-07-21T19:30:00	0.2039	14.226	212.0	0.479683828	0.569985598	0.008077170	0.083330677	0.025683324
2020-07-21T19:35:00	0.2042	14.195	212.0	0.480680493	0.571348310	0.008107692	0.083645566	0.025780376
2020-07-21T19:40:00	0.2041	14.165	212.0	0.480295461	0.570821773	0.008095894	0.083523849	0.025742861
2020-07-21T19:45:00	0.2046	14.135	212.0	0.481982516	0.573129723	0.008147651	0.084057816	0.025907435
2020-07-21T19:50:00	0.2051	14.105	211.0	0.483668731	0.575438795	0.008199546	0.084593201	0.026072446
2020-07-21T19:55:00	0.2054	14.075	211.0	0.484664226	0.576803072	0.008230259	0.084910068	0.026170107
2020-07-21T20:00:00	0.2060	14.045	211.0	0.486693897	0.579587093	0.008293056	0.085557933	0.026369786
2020-07-21T20:05:00	0.2062	14.014	211.0	0.487343818	0.580479261	0.008313215	0.085765902	0.026433884
2020-07-21T20:10:00	0.2064	13.983	211.0	0.487993614	0.581371596	0.008333393	0.085974082	0.026498047
2020-07-21T20:15:00	0.2056	13.952	211.0	0.485540718	0.578004919	0.008257348	0.085189542	0.026256244
2020-07-21T20:20:00	0.2059	13.921	211.0	0.486535663	0.579369933	0.008288152	0.085507338	0.026354192
2020-07-21T20:25:00	0.2060	13.890	211.0	0.486840877	0.579788828	0.008297613	0.085604944	0.026384275
2020-07-21T20:30:00	0.2064	13.861	211.0	0.488180078	0.581627721	0.008339188	0.086033867	0.026516473
2020-07-21T20:35:00	0.2068	13.831	209.0	0.489518752	0.583467323	0.008380850	0.086463685	0.026648947
2020-07-21T20:40:00	0.2074	13.800	209.0	0.491545526	0.586255240	0.008444123	0.087116459	0.026850139
2020-07-21T20:45:00	0.2076	13.772	210.0	0.492194520	0.587148656	0.008464433	0.087326000	0.026914721
2020-07-21T20:50:00	0.2075	13.742	210.0	0.491810792	0.586620369	0.008452422	0.087202075	0.026876526
2020-07-21T20:55:00	0.2074	13.710	210.0	0.491427021	0.586092141	0.008440417	0.087078224	0.026838354
2020-07-21T21:00:00	0.2077	13.682	209.0	0.492764417	0.587933465	0.008482289	0.087510209	0.026971496
2020-07-21T21:05:00	0.2074	13.653	209.0	0.491692296	0.586457257	0.008448714	0.087163825	0.026864737
2020-07-21T21:10:00	0.2077	13.626	209.0	0.492685442	0.587824693	0.008479813	0.087484670	0.026963625
2020-07-21T21:15:00	0.2076	13.597	209.0	0.492301770	0.587296332	0.008467792	0.087360652	0.026925401
2020-07-21T21:20:00	0.2080	13.569	209.0	0.493638823	0.589138120	0.008509721	0.087793219	0.027058723
2020-07-21T21:25:00	0.2078	13.538	209.0	0.492911135	0.588135553	0.008486888	0.087557664	0.026986122
2020-07-21T21:30:00	0.2083	13.510	209.0	0.494591936	0.590451907	0.008539672	0.088102222	0.027153961
2020-07-21T21:35:00	0.2081	13.481	209.0	0.493864452	0.589449065	0.008516806	0.087866320	0.027081253
2020-07-21T21:40:00	0.2081	13.452	208.0	0.493824978	0.589394662	0.008515566	0.087853529	0.027077311
2020-07-21T21:45:00	0.2082	13.421	208.0	0.494473537	0.590288665	0.008535949	0.088063807	0.027142121
2020-07-21T21:50:00	0.2085	13.392	208.0	0.495465872	0.591657197	0.008567181	0.088386030	0.027241433
2020-07-21T21:55:00	0.2084	13.361	208.0	0.495082513	0.591128412	0.008555109	0.088261480	0.027203045
2020-07-21T22:00:00	0.2094	13.332	208.0	0.498480566	0.595819618	0.008662414	0.089368527	0.027544248
2020-07-21T22:05:00	0.2093	13.307	207.0	0.498140045	0.595349091	0.008651631	0.089257279	0.027509960
2020-07-21T22:10:00	0.2094	13.279	208.0	0.498486714	0.595828114	0.008662609	0.089370536	0.027544867
2020-07-21T22:15:00	0.2092	13.253	207.0	0.497802565	0.594882858	0.008640950	0.089147093	0.027476000
2020-07-21T22:20:00	0.2091	13.225	207.0	0.497461977	0.594412424	0.008630179	0.089035961	0.027441748
2020-07-21T22:25:00	0.2096	13.197	208.0	0.499183020	0.596790554	0.008684679	0.089598235	0.027615046
2020-07-21T22:30:00	0.2098	13.169	208.0	0.499873039	0.597744686	0.008706578	0.089824163	0.027684679
2020-07-21T22:35:00	0.2107	13.142	207.0	0.502965649	0.602025741	0.008805065	0.090840237	0.027997843
2020-07-21T22:40:00	0.2108	13.116	207.0	0.503311829	0.602505431	0.008816124	0.090954328	0.028033007
2020-07-21T22:45:00	0.2112	13.091	207.0	0.504686989	0.604411901	0.008860122	0.091408249	0.028172910
2020-07-21T22:50:00	0.2108	13.064	207.0	0.503317968	0.602513940	0.008816320	0.090956352	0.028033631
2020-07-21T22:55:00	0.2106	13.038	206.0	0.502634787	0.601567366	0.008794502	0.090731260	0.027964256
2020-07-21T23:00:00	0.2109	13.013	207.0	0.503667182	0.602997933	0.008827483	0.091071517	0.028069126
2020-07-21T23:05:00	0.2105	12.981	206.0	0.502297752	0.601100529	0.008783749	0.090620317	0.027930062
2020-07-21T23:10:00	0.2108	12.956	206.0	0.503330248	0.602530957	0.008816713	0.090960401	0.028034879
2020-07-21T23:15:00	0.2102	12.929	206.0	0.501274159	0.599683283	0.008751130	0.090283794	0.027826342
2020-07-21T23:20:00	0.2105	12.905	206.0	0.502306964	0.601113288	0.008784043	0.090623349	0.027930996
2020-07-21T23:25:00	0.2105	12.880	206.0	0.502310035	0.601117542	0.008784141	0.090624359	0.027931308
2020-07-21T23:30:00	0.2103	12.852	206.0	0.501626653	0.600171243	0.008762356	0.090399611	0.027862038
2020-07-21T23:35:00	0.2102	12.824	206.0	0.501286446	0.599700290	0.008751521	0.090287829	0.027827586
2020-07-21T23:40:00	0.2102	12.797	206.0	0.501289518	0.599704542	0.008751619	0.090288838	0.027827897
2020-07-21T23:45:00	0.2102	12.770	205.0	0.501292589	0.599708794	0.008751717	0.090289847	0.027828208
2020-07-21T23:50:00	0.2110	12.744	205.0	0.504040913	0.603516017	0.008839438	0.091194848	0.028107138
2020-07-21T23:55:00	0.2109	12.720	205.0	0.503700947	0.603044735	0.008828563	0.091082656	0.028072559
2020-07-22T00:00:00	0.2106	12.696	205.0	0.502674704	0.601622662	0.008795776	0.090744404	0.027968307
2020-07-22T00:05:00	0.2111	12.670	205.0	0.504393122	0.604004367	0.008850711	0.091311153	0.028142984
2020-07-22T00:10:00	0.2109	12.645	205.0	0.503710156	0.603057500	0.008828857	0.091085694	0.028073496
2020-07-22T00:15:00	0.2110	12.620	205.0	0.504056260	0.603537293	0.008839929	0.091199914	0.028108699
2020-07-22T00:20:00	0.2113	12.595	204.0	0.505088224	0.604968446	0.008872980	0.091540904	0.028213796
2020-07-22T00:25:00	0.2111	12.571	205.0	0.504405397	0.604021389	0.008851104	0.091315208	0.028144234
2020-07-22T00:30:00	0.2111	12.548	204.0	0.504408466	0.604025645	0.008851202	0.091316222	0.028144546
2020-07-22T00:35:00	0.2111	12.523	204.0	0.504411535	0.604029900	0.008851301	0.091317236	0.028144859
2020-07-22T00:40:00	0.2113	12.499	204.0	0.505100497	0.604985472	0.008873374	0.091544963	0.028215047
2020-07-22T00:45:00	0.2111	12.476	205.0	0.504417673	0.604038412	0.008851497	0.091319263	0.028145484
2020-07-22T00:50:00	0.2112	12.452	204.0	0.504763705	0.604518303	0.008862580	0.091433606	0.028180725
2020-07-22T00:55:00	0.2110	12.426	204.0	0.504080813	0.603571335	0.008840714	0.091208020	0.028111198
2020-07-22T01:00:00	0.2104	12.403	204.0	0.502025176	0.600723044	0.008775057	0.090530642	0.027902423
2020-07-22T01:05:00	0.2100	12.378	204.0	0.500655088	0.598826538	0.008731431	0.090080566	0.027763705
2020-07-22T01:10:00	0.2101	12.355	204.0	0.501001501	0.599305909	0.008742451	0.090194258	0.027798746
2020-07-22T01:15:00	0.2113	12.333	203.0	0.505121976	0.605015267	0.008874063	0.091552067	0.028217236
2020-07-22T01:20:00	0.2114	12.312	204.0	0.505467936	0.605495255	0.008885157	0.091666531	0.028252515
2020-07-22T01:25:00	0.2113	12.290	203.0	0.505128112	0.605023780	0.008874259	0.091554097	0.028217862
2020-07-22T01:30:00	0.2118	12.266	202.0	0.506845297	0.607407169	0.008929398	0.092122951	0.028393188
2020-07-22T01:35:00	0.2114	12.244	203.0	0.505477140	0.605508026	0.008885453	0.091669577	0.028253454
2020-07-22T01:40:00	0.2111	12.223	203.0	0.504451431	0.604085224	0.008852578	0.091330415	0.028148921
2020-07-22T01:45:00	0.2114	12.202	202.0	0.505483276	0.605516540	0.008885650	0.091671608	0.028254080
2020-07-22T01:50:00	0.2116	12.178	202.0	0.506172023	0.606472406	0.008907759	0.091899705	0.028324382
2020-07-22T01:55:00	0.2114	12.155	203.0	0.505489412	0.605525054	0.008885846	0.091673639	0.028254706
2020-07-22T02:00:00	0.2113	12.134	203.0	0.505149590	0.605053576	0.008874948	0.091561201	0.028220051
2020-07-22T02:05:00	0.2112	12.113	202.0	0.504809734	0.604582144	0.008864055	0.091448821	0.028185415
2020-07-22T02:10:00	0.2118	12.090	202.0	0.506869830	0.607441239	0.008930187	0.092131091	0.028395697
2020-07-22T02:15:00	0.2120	12.066	201.0	0.507215614	0.607921469	0.008941311	0.092245857	0.028431069
2020-07-22T02:20:00	0.2121	12.047	201.0	0.507561364	0.608401746	0.008952441	0.092360683	0.028466459
2020-07-22T02:25:00	0.2122	12.025	202.0	0.507907078	0.608882072	0.008963577	0.092475568	0.028501868
2020-07-22T02:30:00	0.2125	12.003	202.0	0.508937881	0.610314814	0.008996821	0.092818542	0.028607576
2020-07-22T02:35:00	0.2122	11.984	201.0	0.507913209	0.608890592	0.008963774	0.092477607	0.028502496
2020-07-22T02:40:00	0.2123	11.965	201.0	0.508258888	0.609370967	0.008974916	0.092592553	0.028537924
2020-07-22T02:45:00	0.2123	11.942	201.0	0.508261953	0.609375227	0.008975015	0.092593573	0.028538238
2020-07-22T02:50:00	0.2128	11.922	201.0	0.509977566	0.611760769	0.009030414	0.093165113	0.028714393
2020-07-22T02:55:00	0.2127	11.905	201.0	0.509638189	0.611288681	0.009019441	0.093051914	0.028679503
2020-07-22T03:00:00	0.2127	11.886	201.0	0.509641253	0.611292943	0.009019540	0.093052935	0.028679818
2020-07-22T03:05:00	0.2132	11.865	201.0	0.511356175	0.613679434	0.009075054	0.093625658	0.028856337
2020-07-22T03:10:00	0.2136	11.846	201.0	0.512728106	0.615590329	0.009119587	0.094085100	0.028997942
2020-07-22T03:15:00	0.2142	11.825	201.0	0.514783444	0.618455954	0.009186508	0.094775511	0.029210733
2020-07-22T03:20:00	0.2146	11.807	200.0	0.516154004	0.620368737	0.009231269	0.095237302	0.029353061
2020-07-22T03:25:00	0.2147	11.789	200.0	0.516498853	0.620850254	0.009242549	0.095353671	0.029388927
2020-07-22T03:30:00	0.2145	11.770	200.0	0.515818298	0.619900077	0.009220295	0.095124086	0.029318167
2020-07-22T03:35:00	0.2148	11.752	200.0	0.516846724	0.621336090	0.009253934	0.095471132	0.029425130
2020-07-22T03:40:00	0.2148	11.733	200.0	0.516849782	0.621340361	0.009254034	0.095472164	0.029425448
2020-07-22T03:45:00	0.2149	11.717	200.0	0.517194560	0.621821974	0.009265325	0.095588653	0.029461351
2020-07-22T03:50:00	0.2147	11.698	200.0	0.516514143	0.620871607	0.009243049	0.095358832	0.029390518
2020-07-22T03:55:00	0.2140	11.683	200.0	0.514123970	0.617536120	0.009165009	0.094553711	0.029142372
2020-07-22T04:00:00	0.2141	11.667	200.0	0.514469022	0.618017355	0.009176255	0.094669730	0.029178130
2020-07-22T04:05:00	0.2142	11.651	200.0	0.514756449	0.618418295	0.009185628	0.094766427	0.029207933
2020-07-22T04:10:00	0.2153	11.637	199.0	0.518802887	0.624069883	0.009318088	0.096132992	0.029629122
2020-07-22T04:15:00	0.2154	11.625	199.0	0.519089951	0.624471324	0.009327521	0.096230312	0.029659117
2020-07-22T04:20:00	0.2158	11.612	200.0	0.520401297	0.626306009	0.009370673	0.096675510	0.029796331
2020-07-22T04:25:00	0.2156	11.601	200.0	0.519664007	0.625274306	0.009346399	0.096425075	0.029719145
2020-07-22T04:30:00	0.2158	11.590	199.0	0.520292411	0.626153615	0.009367086	0.096638504	0.029784926
2020-07-22T04:35:00	0.2167	11.578	199.0	0.523309201	0.630379388	0.009466721	0.097666411	0.030101737
2020-07-22T04:40:00	0.2165	11.567	199.0	0.522913687	0.629824950	0.009453628	0.097531337	0.030060105
2020-07-22T04:45:00	0.2164	11.558	199.0	0.522518127	0.629270575	0.009440543	0.097396341	0.030018498
2020-07-22T04:50:00	0.2163	11.546	199.0	0.522122521	0.628716263	0.009427466	0.097261424	0.029976915
2020-07-22T04:55:00	0.2161	11.539	200.0	0.521385600	0.627684047	0.009403130	0.097010354	0.029899533
2020-07-22T05:00:00	0.2163	11.532	199.0	0.522013689	0.628563793	0.009423870	0.097224325	0.029965481
2020-07-22T05:05:00	0.2159	11.524	199.0	0.520594082	0.626575849	0.009377026	0.096741046	0.029816530
2020-07-22T05:10:00	0.2153	11.517	199.0	0.518832364	0.624111102	0.009319056	0.096142983	0.029632201
2020-07-22T05:15:00	0.2150	11.512	199.0	0.517753106	0.622602399	0.009283632	0.095777518	0.029519561
2020-07-22T05:20:00	0.2152	11.508	199.0	0.518381860	0.623481225	0.009304261	0.095990346	0.029585157
2020-07-22T05:25:00	0.2155	11.505	199.0	0.519352005	0.624837849	0.009336136	0.096319196	0.029686512
2020-07-22T05:30:00	0.2163	11.503	199.0	0.522028414	0.628584422	0.009424356	0.097229344	0.029967028
2020-07-22T05:35:00	0.2165	11.503	200.0	0.522656386	0.629464331	0.009445116	0.097443516	0.030033038
2020-07-22T05:40:00	0.2166	11.504	199.0	0.522943129	0.629866218	0.009454602	0.097541389	0.030063203
2020-07-22T05:45:00	0.2170	11.505	198.0	0.524593992	0.632181302	0.009509313	0.098105834	0.030237171
2020-07-22T05:50:00	0.2170	11.509	199.0	0.524539616	0.632105013	0.009507509	0.098087216	0.030231433
2020-07-22T05:55:00	0.2175	11.513	198.0	0.526189713	0.634421163	0.009562348	0.098652980	0.030405807
2020-07-22T06:00:00	0.2177	11.520	199.0	0.526816926	0.635302128	0.009583234	0.098868460	0.030472220
2020-07-22T06:05:00	0.2185	11.528	199.0	0.529487538	0.639056768	0.009672422	0.099788596	0.030755814
2020-07-22T06:10:00	0.2187	11.537	199.0	0.530114151	0.639938571	0.009693409	0.100005111	0.030822547
2020-07-22T06:15:00	0.2187	11.548	199.0	0.530400273	0.640341323	0.009702999	0.100104054	0.030853042
2020-07-22T06:20:00	0.2183	11.559	199.0	0.528984121	0.638348565	0.009655578	0.099614820	0.030702255
2020-07-22T06:25:00	0.2189	11.571	199.0	0.530972446	0.641146926	0.009722192	0.100302063	0.030914070
2020-07-22T06:30:00	0.2192	11.584	199.0	0.531939049	0.642508482	0.009754659	0.100637018	0.031017306
2020-07-22T06:35:00	0.2198	11.599	199.0	0.533925672	0.645309226	0.009821558	0.101327203	0.031230028
2020-07-22T06:40:00	0.2200	11.615	199.0	0.534551480	0.646192158	0.009842680	0.101545111	0.031297189
2020-07-22T06:45:00	0.2195	11.633	199.0	0.533137031	0.644197014	0.009794973	0.101052932	0.031145495
2020-07-22T06:50:00	0.2201	11.651	200.0	0.535122965	0.646998725	0.009861988	0.101744310	0.031358584
2020-07-22T06:55:00	0.2205	11.671	200.0	0.536428224	0.648841907	0.009906159	0.102200013	0.031499037
2020-07-22T07:00:00	0.2206	11.694	200.0	0.536713823	0.649245393	0.009915837	0.102299861	0.031529811
2020-07-22T07:05:00	0.2205	11.719	200.0	0.536319843	0.648688808	0.009902487	0.102162135	0.031487362
2020-07-22T07:10:00	0.2210	11.744	200.0	0.537964317	0.651012834	0.009958269	0.102737622	0.031664733
2020-07-22T07:15:00	0.2210	11.775	200.0	0.538249789	0.651416498	0.009967968	0.102837690	0.031695575
2020-07-22T07:20:00	0.2209	11.825	200.0	0.537855984	0.650859667	0.009954589	0.102699661	0.031653033
2020-07-22T07:25:00	0.2207	11.860	200.0	0.537122419	0.649822759	0.009929691	0.102442794	0.031573864
2020-07-22T07:30:00	0.2207	11.959	200.0	0.537068240	0.649746194	0.009927854	0.102423836	0.031568021
2020-07-22T07:35:00	0.2212	12.015	201.0	0.538712357	0.652070722	0.009983695	0.102999940	0.031745582
2020-07-22T07:40:00	0.2214	11.995	201.0	0.539337299	0.652954872	0.010004962	0.103219349	0.031813206
2020-07-22T07:45:00	0.2215	12.133	201.0	0.539622658	0.653358696	0.010014681	0.103319613	0.031844108
2020-07-22T07:50:00	0.2216	12.055	201.0	0.540247436	0.654243078	0.010035975	0.103539308	0.031911820
2020-07-22T07:55:00	0.2213	12.128	201.0	0.539174863	0.652725032	0.009999432	0.103162297	0.031795622
2020-07-22T08:00:00	0.2221	12.125	201.0	0.541835939	0.656493066	0.010090220	0.104098945	0.032084306
2020-07-22T08:05:00	0.2214	12.121	201.0	0.539406093	0.653052220	0.010007305	0.103243516	0.031820654
2020-07-22T08:10:00	0.2212	12.134	201.0	0.538672857	0.652014849	0.009982351	0.102986080	0.031741310
2020-07-22T08:15:00	0.2216	12.157	201.0	0.539976777	0.653859917	0.010026747	0.103444105	0.031882478
2020-07-22T08:20:00	0.2212	12.146	201.0	0.538904121	0.652341989	0.009990218	0.103067240	0.031766324
2020-07-22T08:25:00	0.2211	12.185	202.0	0.538510390	0.651785053	0.009976827	0.102929082	0.031723743
2020-07-22T08:30:00	0.2210	12.230	202.0	0.538116615	0.651228179	0.009963443	0.102791002	0.031681185
2020-07-22T08:35:00	0.2214	12.271	203.0	0.539420744	0.653072952	0.010007803	0.103248663	0.031822241
2020-07-22T08:40:00	0.2217	12.309	203.0	0.540384987	0.654437827	0.010040667	0.103587708	0.031926738
2020-07-22T08:45:00	0.2219	12.357	203.0	0.541009627	0.655322404	0.010061985	0.103807641	0.031994523
2020-07-22T08:50:00	0.2219	12.407	203.0	0.541294848	0.655726422	0.010071726	0.103908145	0.032025499
2020-07-22T08:55:00	0.2213	12.440	203.0	0.539204167	0.652766494	0.010000430	0.103172588	0.031798794
2020-07-22T09:00:00	0.2210	12.480	203.0	0.538131271	0.651248904	0.009963941	0.102796139	0.031682768
2020-07-22T09:05:00	0.2205	12.530	203.0	0.536378499	0.648771664	0.009904474	0.102182634	0.031493680
2020-07-22T09:10:00	0.2202	12.657	204.0	0.535304726	0.647255310	0.009868133	0.101807706	0.031378124
2020-07-22T09:15:00	0.2210	12.997	205.0	0.537968779	0.651019144	0.009958420	0.102739186	0.031665215
2020-07-22T09:20:00	0.2216	13.008	206.0	0.540291377	0.654305290	0.010037474	0.103554768	0.031916585
2020-07-22T09:25:00	0.2218	12.821	205.0	0.540916034	0.655189843	0.010058789	0.103774673	0.031984362
2020-07-22T09:30:00	0.2210	12.818	205.0	0.538145928	0.651269629	0.009964439	0.102801277	0.031684352
2020-07-22T09:35:00	0.2202	12.823	205.0	0.535373600	0.647352544	0.009870462	0.101831734	0.031385529
2020-07-22T09:40:00	0.2203	12.846	205.0	0.535659287	0.647755907	0.009880125	0.101931431	0.031416257
2020-07-22T09:45:00	0.2198	12.867	205.0	0.533905259	0.645280432	0.009820869	0.101320099	0.031227839
2020-07-22T09:50:00	0.2190	12.916	205.0	0.531129524	0.641368135	0.009727464	0.100356457	0.030930835
2020-07-22T09:55:00	0.2185	12.964	206.0	0.529713672	0.639374959	0.009679993	0.099866705	0.030779889
2020-07-22T10:00:00	0.2183	12.954	206.0	0.528978374	0.638340482	0.009655386	0.099612837	0.030701644
2020-07-22T10:05:00	0.2178	12.996	206.0	0.527359557	0.636064548	0.009601322	0.099055072	0.030529735
2020-07-22T10:10:00	0.2175	13.039	206.0	0.526080817	0.634268244	0.009558724	0.098615593	0.030394284
2020-07-22T10:15:00	0.2175	13.122	206.0	0.526165124	0.634386632	0.009561530	0.098644537	0.030403204
2020-07-22T10:20:00	0.2177	13.124	206.0	0.526930970	0.635462345	0.009587034	0.098907665	0.030484303
2020-07-22T10:25:00	0.2180	13.226	206.0	0.528037291	0.637017132	0.009623938	0.099288394	0.030601647
2020-07-22T10:30:00	0.2185	13.176	206.0	0.529483759	0.639051451	0.009672296	0.099787291	0.030755412
2020-07-22T10:35:00	0.2179	13.207	206.0	0.527524517	0.636296373	0.009606824	0.099111837	0.030547231
2020-07-22T10:40:00	0.2179	13.235	206.0	0.527608789	0.636414811	0.009609636	0.099140842	0.030556170
2020-07-22T10:45:00	0.2171	13.279	207.0	0.524966685	0.632704254	0.009521687	0.098233487	0.030276515
2020-07-22T10:50:00	0.2172	13.325	207.0	0.525051019	0.632822605	0.009524488	0.098262385	0.030285421
2020-07-22T10:55:00	0.2179	13.368	207.0	0.527520929	0.636291329	0.009606705	0.099110602	0.030546850
2020-07-22T11:00:00	0.2179	13.400	207.0	0.527605200	0.636409767	0.009609516	0.099139607	0.030555790
2020-07-22T11:05:00	0.2174	13.409	207.0	0.525985738	0.634134735	0.009555560	0.098582955	0.030384224
2020-07-22T11:10:00	0.2176	13.426	207.0	0.526410853	0.634731732	0.009569709	0.098728926	0.030429214
2020-07-22T11:15:00	0.2174	13.467	207.0	0.525813523	0.633892932	0.009549832	0.098523853	0.030366008
2020-07-22T11:20:00	0.2171	13.542	208.0	0.524875166	0.632575828	0.009518648	0.098202133	0.030266851
2020-07-22T11:25:00	0.2173	13.536	209.0	0.525641300	0.633651140	0.009544104	0.098464766	0.030347797
2020-07-22T11:30:00	0.2172	13.546	208.0	0.525043837	0.632812526	0.009524249	0.098259924	0.030284663
2020-07-22T11:35:00	0.2178	13.561	208.0	0.527173055	0.635802478	0.009595103	0.098990913	0.030509961
2020-07-22T11:40:00	0.2172	13.600	209.0	0.525212499	0.633049235	0.009529852	0.098317728	0.030302479
2020-07-22T11:45:00	0.2164	13.620	208.0	0.522568555	0.629341242	0.009442211	0.097413546	0.030023801
2020-07-22T11:50:00	0.2159	13.653	209.0	0.520605372	0.626591652	0.009377398	0.096744885	0.029817713
2020-07-22T11:55:00	0.2160	13.696	209.0	0.521031152	0.627187724	0.009391436	0.096889710	0.029862350
2020-07-22T12:00:00	0.2159	13.746	209.0	0.520774252	0.626828059	0.009382964	0.096802315	0.029835414
2020-07-22T12:05:00	0.2158	13.778	210.0	0.520517333	0.626468420	0.009374497	0.096714953	0.029808488
2020-07-22T12:10:00	0.2157	13.813	210.0	0.519918979	0.625631043	0.009354790	0.096511644	0.029745826
2020-07-22T12:15:00	0.2149	13.855	210.0	0.517270958	0.621928705	0.009267828	0.095614475	0.029469310
2020-07-22T12:20:00	0.2149	13.898	210.0	0.517355481	0.622046794	0.009270598	0.095643047	0.029478116
2020-07-22T12:25:00	0.2145	13.932	210.0	0.516073013	0.620255662	0.009228621	0.095209982	0.029344641
2020-07-22T12:30:00	0.2144	13.955	210.0	0.515473884	0.619419358	0.009209044	0.095008005	0.029282390
2020-07-22T12:35:00	0.2143	13.982	210.0	0.515216568	0.619060267	0.009200642	0.094921325	0.029255674
2020-07-22T12:40:00	0.2131	14.012	210.0	0.511195980	0.613456406	0.009069861	0.093572085	0.028839825
2020-07-22T12:45:00	0.2132	14.050	211.0	0.511622929	0.614050864	0.009083704	0.093714903	0.028883843
2020-07-22T12:50:00	0.2129	14.084	211.0	0.510338315	0.612262690	0.009042084	0.093285517	0.028751502
2020-07-22T12:55:00	0.2135	14.118	211.0	0.512476668	0.615240000	0.009111417	0.094000812	0.028971963
2020-07-22T13:00:00	0.2132	14.150	211.0	0.511534659	0.613927950	0.009080841	0.093685367	0.028874740
2020-07-22T13:05:00	0.2125	14.173	211.0	0.509222669	0.610710800	0.009006016	0.092913410	0.028636815
2020-07-22T13:10:00	0.2133	14.220	212.0	0.511703987	0.614163740	0.009086334	0.093742029	0.028892204
2020-07-22T13:15:00	0.2134	14.252	212.0	0.512130873	0.614758285	0.009100187	0.093884956	0.028936255
2020-07-22T13:20:00	0.2128	14.253	212.0	0.510161707	0.612016957	0.009036370	0.093226563	0.028733332
2020-07-22T13:25:00	0.2128	14.279	212.0	0.510246406	0.612134804	0.009039110	0.093254834	0.028742046
2020-07-22T13:30:00	0.2125	14.317	213.0	0.508961275	0.610347340	0.008997576	0.092826333	0.028609977
2020-07-22T13:35:00	0.2119	14.351	213.0	0.506990284	0.607608516	0.008934061	0.092171061	0.028408016
2020-07-22T13:40:00	0.2121	14.386	212.0	0.507760421	0.608678300	0.008958852	0.092426824	0.028486845
2020-07-22T13:45:00	0.2115	14.418	213.0	0.505788738	0.605940424	0.008895452	0.091772735	0.028285248
2020-07-22T13:50:00	0.2119	14.445	213.0	0.506901895	0.607485766	0.008931218	0.092141730	0.028398976
2020-07-22T13:55:00	0.2112	14.467	213.0	0.504586770	0.604272910	0.008856912	0.091375130	0.028162703
2020-07-22T14:00:00	0.2122	14.486	214.0	0.508099441	0.609149378	0.008969776	0.092539524	0.028521580
2020-07-22T14:05:00	0.2115	14.499	213.0	0.505785127	0.605935412	0.008895336	0.091771539	0.028284880
2020-07-22T14:10:00	0.2117	14.508	213.0	0.506212752	0.606528944	0.008909067	0.091913202	0.028328542
2020-07-22T14:15:00	0.2111	14.514	213.0	0.504240176	0.603792290	0.008845815	0.091260639	0.028127415
2020-07-22T14:20:00	0.2104	14.522	214.0	0.501923246	0.600581898	0.008771807	0.090497120	0.027892091
2020-07-22T14:25:00	0.2103	14.533	214.0	0.501664909	0.600224208	0.008763575	0.090412186	0.027865914
2020-07-22T14:30:00	0.2108	14.543	213.0	0.503122538	0.602243125	0.008810076	0.090891934	0.028013777
2020-07-22T14:35:00	0.2099	14.550	214.0	0.500118092	0.598083630	0.008714362	0.089904467	0.027709430
2020-07-22T14:40:00	0.2105	14.551	213.0	0.502262845	0.601052184	0.008782635	0.090608831	0.027926522
2020-07-22T14:45:00	0.2103	14.556	213.0	0.501661293	0.600219202	0.008763460	0.090410997	0.027865547
2020-07-22T14:50:00	0.2107	14.567	213.0	0.502775795	0.601762707	0.008799003	0.090777696	0.027978568
2020-07-22T14:55:00	0.2098	14.578	213.0	0.499771044	0.597603628	0.008703340	0.089790750	0.027674381
2020-07-22T15:00:00	0.2093	14.581	213.0	0.498138371	0.595346779	0.008651578	0.089256733	0.027509792
2020-07-22T15:05:00	0.2091	14.579	213.0	0.497536092	0.594514787	0.008632522	0.089060139	0.027449200
2020-07-22T15:10:00	0.2086	14.575	214.0	0.495558492	0.591784969	0.008570099	0.088416135	0.027250711
2020-07-22T15:15:00	0.2082	14.566	214.0	0.494267819	0.590005058	0.008529481	0.087997082	0.027121555
2020-07-22T15:20:00	0.2078	14.553	214.0	0.492976657	0.588225808	0.008488943	0.087578861	0.026992655
2020-07-22T15:25:00	0.2075	14.545	214.0	0.492029251	0.586921113	0.008459259	0.087272616	0.026898268
2020-07-22T15:30:00	0.2073	14.539	214.0	0.491081582	0.585616775	0.008429618	0.086966819	0.026804018
2020-07-22T15:35:00	0.2066	14.535	214.0	0.488755683	0.582418540	0.008357089	0.086218550	0.026573395
2020-07-22T15:40:00	0.2065	14.536	214.0	0.488496345	0.582062204	0.008349022	0.086135317	0.026547741
2020-07-22T15:45:00	0.2065	14.537	214.0	0.488581584	0.582179318	0.008351673	0.086162670	0.026556172
2020-07-22T15:50:00	0.2071	14.533	214.0	0.490389234	0.584664306	0.008407996	0.086743747	0.026735265
2020-07-22T15:55:00	0.2071	14.529	214.0	0.490474425	0.584781483	0.008410655	0.086771180	0.026743720
2020-07-22T16:00:00	0.2070	14.523	213.0	0.490215218	0.584424971	0.008402566	0.086687724	0.026717999
2020-07-22T16:05:00	0.2069	14.519	214.0	0.489968319	0.584085438	0.008394864	0.086608269	0.026693510
2020-07-22T16:10:00	0.2063	14.513	214.0	0.487653994	0.580905170	0.008322844	0.085865245	0.026464502
2020-07-22T16:15:00	0.2060	14.503	214.0	0.486717444	0.579619411	0.008293786	0.085565464	0.026372107
2020-07-22T16:20:00	0.2052	14.490	214.0	0.484055881	0.575969271	0.008211483	0.084716361	0.026110405
2020-07-22T16:25:00	0.2056	14.478	214.0	0.485533413	0.577994900	0.008257123	0.085187211	0.026255526
2020-07-22T16:30:00	0.2050	14.464	214.0	0.483216062	0.574818696	0.008185598	0.084449310	0.026028097
2020-07-22T16:35:00	0.2044	14.449	214.0	0.481242470	0.572117034	0.008124927	0.083823377	0.025835179
2020-07-22T16:40:00	0.2039	14.431	214.0	0.479613235	0.569889109	0.008075011	0.083308397	0.025676457
2020-07-22T16:45:00	0.2034	14.412	214.0	0.477637542	0.567190252	0.008014683	0.082686011	0.025484632
2020-07-22T16:50:00	0.2030	14.392	213.0	0.476352413	0.565436397	0.007975562	0.082282407	0.025360237
2020-07-22T16:55:00	0.2026	14.371	213.0	0.475066796	0.563683191	0.007936521	0.081879626	0.025236096
2020-07-22T17:00:00	0.2022	14.351	213.0	0.473780690	0.561930635	0.007897560	0.081477668	0.025112209
2020-07-22T17:05:00	0.2018	14.330	213.0	0.472147858	0.559707497	0.007848231	0.080968753	0.024955356
2020-07-22T17:10:00	0.2014	14.309	213.0	0.470860640	0.557956414	0.007809451	0.080568667	0.024832046
2020-07-22T17:15:00	0.2009	14.290	213.0	0.469226395	0.555735146	0.007760353	0.080062128	0.024675926
2020-07-22T17:20:00	0.2009	14.271	213.0	0.468977961	0.555397661	0.007752902	0.079985264	0.024652235
2020-07-22T17:25:00	0.2009	14.253	213.0	0.469076096	0.555530967	0.007755845	0.080015622	0.024661592
2020-07-22T17:30:00	0.2004	14.236	213.0	0.467440987	0.553310841	0.007706887	0.079510537	0.024505920
2020-07-22T17:35:00	0.2000	14.218	212.0	0.466151972	0.551562133	0.007668400	0.079113471	0.024383540
2020-07-22T17:40:00	0.1998	14.202	212.0	0.465209449	0.550284318	0.007640318	0.078823757	0.024294248
2020-07-22T17:45:00	0.1999	14.185	212.0	0.465654633	0.550887783	0.007653576	0.078960533	0.024336403
2020-07-22T17:50:00	0.1999	14.166	213.0	0.465752865	0.551020962	0.007656503	0.078990729	0.024345710
2020-07-22T17:55:00	0.1992	14.148	212.0	0.463074743	0.547392816	0.007576904	0.078169524	0.024092607
2020-07-22T18:00:00	0.1987	14.128	213.0	0.461436718	0.545176528	0.007528421	0.077669330	0.023938442
2020-07-22T18:05:00	0.1990	14.107	212.0	0.462576949	0.546719065	0.007562154	0.078017349	0.024045705
2020-07-22T18:10:00	0.1983	14.087	212.0	0.460243796	0.543563810	0.007493208	0.077306048	0.023826475
2020-07-22T18:15:00	0.1984	14.066	212.0	0.460342186	0.543696782	0.007496109	0.077335980	0.023835700
2020-07-22T18:20:00	0.1987	14.045	212.0	0.461482788	0.545238832	0.007529782	0.077683377	0.023942771
2020-07-22T18:25:00	0.1985	14.022	213.0	0.460886388	0.544432394	0.007512166	0.077501634	0.023886756
2020-07-22T18:30:00	0.1983	13.999	212.0	0.459942389	0.543156516	0.007484324	0.077214393	0.023798226
2020-07-22T18:35:00	0.1989	13.975	212.0	0.462125143	0.546107726	0.007548779	0.077879358	0.024003175
2020-07-22T18:40:00	0.1986	13.951	211.0	0.461181493	0.544831393	0.007520880	0.077591536	0.023914465
2020-07-22T18:45:00	0.1991	13.927	212.0	0.463016268	0.547313662	0.007575171	0.078151641	0.024087095
2020-07-22T18:50:00	0.1987	13.904	211.0	0.461378215	0.545097411	0.007526692	0.077651495	0.023932945
2020-07-22T18:55:00	0.1991	13.880	212.0	0.462865692	0.547109848	0.007570708	0.078105600	0.024072904
2020-07-22T19:00:00	0.1993	13.854	211.0	0.463658331	0.548182940	0.007594215	0.078348113	0.024147649
2020-07-22T19:05:00	0.1998	13.829	211.0	0.465491758	0.550666981	0.007648724	0.078910479	0.024320976
2020-07-22T19:10:00	0.2005	13.804	211.0	0.467670920	0.553622912	0.007713763	0.079581468	0.024527781
2020-07-22T19:15:00	0.2013	13.775	211.0	0.470541584	0.557522586	0.007799854	0.080469651	0.024801528
2020-07-22T19:20:00	0.2016	13.748	211.0	0.471678740	0.559069175	0.007834087	0.080822831	0.024910382
2020-07-22T19:25:00	0.2024	13.721	211.0	0.474199974	0.562501843	0.007910251	0.081608603	0.025152564
2020-07-22T19:30:00	0.2029	13.694	211.0	0.476027686	0.564993439	0.007965692	0.082180578	0.025328852
2020-07-22T19:35:00	0.2034	13.665	211.0	0.477854410	0.567486348	0.008021294	0.082754216	0.025505653
2020-07-22T19:40:00	0.2042	13.636	211.0	0.480716443	0.571397478	0.008108794	0.083656935	0.025783880
2020-07-22T19:45:00	0.2045	13.609	211.0	0.481504905	0.572476104	0.008132982	0.083906477	0.025860791
2020-07-22T19:50:00	0.2047	13.584	211.0	0.482293183	0.573554974	0.008157200	0.084156328	0.025937798
2020-07-22T19:55:00	0.2047	13.557	210.0	0.482390933	0.573688793	0.008160206	0.084187336	0.025947355
2020-07-22T20:00:00	0.2055	13.529	211.0	0.484904204	0.577132070	0.008237672	0.084986541	0.026193677
2020-07-22T20:05:00	0.2061	13.502	210.0	0.487070901	0.580104579	0.008304747	0.085678541	0.026406958
2020-07-22T20:10:00	0.2054	13.473	210.0	0.484754601	0.576926966	0.008233050	0.084938863	0.026178983
2020-07-22T20:15:00	0.2051	13.447	210.0	0.483817249	0.575642282	0.008204124	0.084640437	0.026087005
2020-07-22T20:20:00	0.2047	13.420	210.0	0.482189252	0.573412702	0.008154005	0.084123365	0.025927638
2020-07-22T20:25:00	0.2054	13.392	210.0	0.484702673	0.576855779	0.008231447	0.084922317	0.026173883
2020-07-22T20:30:00	0.2062	13.366	209.0	0.487558934	0.580774632	0.008319892	0.085834793	0.026455117
2020-07-22T20:35:00	0.2057	13.340	209.0	0.485587866	0.578069586	0.008258807	0.085204589	0.026260882
2020-07-22T20:40:00	0.2054	13.315	209.0	0.484650745	0.576784593	0.008229843	0.084905773	0.026168784
2020-07-22T20:45:00	0.2056	13.290	209.0	0.485438293	0.577864442	0.008254181	0.085156860	0.026246171
2020-07-22T20:50:00	0.2063	13.263	209.0	0.487949309	0.581310743	0.008332017	0.085959880	0.026493670
2020-07-22T20:55:00	0.2062	13.239	209.0	0.487357560	0.580498130	0.008313641	0.085770303	0.026435240
2020-07-22T21:00:00	0.2062	13.215	208.0	0.487455164	0.580632144	0.008316671	0.085801557	0.026444873
2020-07-22T21:05:00	0.2063	13.190	208.0	0.487897431	0.581239491	0.008330405	0.085943251	0.026488545
2020-07-22T21:10:00	0.2058	13.168	208.0	0.485926560	0.578534181	0.008269287	0.085312714	0.026294207
2020-07-22T21:15:00	0.2058	13.146	208.0	0.486024205	0.578668140	0.008272310	0.085343900	0.026303819
2020-07-22T21:20:00	0.2056	13.124	208.0	0.485432121	0.577855977	0.008253990	0.085154891	0.026245564
2020-07-22T21:25:00	0.2062	13.102	208.0	0.487598481	0.580828938	0.008321120	0.085847461	0.026459021
2020-07-22T21:30:00	0.2053	13.077	208.0	0.484247642	0.576232068	0.008217400	0.084777397	0.026129217
2020-07-22T21:35:00	0.2055	13.056	207.0	0.485035283	0.577311791	0.008241722	0.085028326	0.026206556
2020-07-22T21:40:00	0.2047	13.036	207.0	0.482372400	0.573663421	0.008159636	0.084181457	0.025945543
2020-07-22T21:45:00	0.2053	13.015	207.0	0.484195707	0.576160891	0.008215797	0.084760864	0.026124122
2020-07-22T21:50:00	0.2055	12.992	207.0	0.484983360	0.577240598	0.008240117	0.085011773	0.026201454
2020-07-22T21:55:00	0.2050	12.966	207.0	0.483355923	0.575010269	0.008189906	0.084493755	0.026041796
2020-07-22T22:00:00	0.2052	12.944	207.0	0.484143771	0.576089715	0.008214195	0.084744333	0.026119026
2020-07-22T22:05:00	0.2049	12.921	207.0	0.483007707	0.574533331	0.008179183	0.084383120	0.026007697
2020-07-22T22:10:00	0.2044	12.898	207.0	0.481180671	0.572032488	0.008123031	0.083803815	0.025829150
2020-07-22T22:15:00	0.2043	12.873	207.0	0.480734438	0.571422090	0.008109346	0.083662626	0.025785634
2020-07-22T22:20:00	0.2039	12.850	207.0	0.479597230	0.569867233	0.008074521	0.083303345	0.025674900
2020-07-22T22:25:00	0.2042	12.827	207.0	0.480532659	0.571146130	0.008103161	0.083598822	0.025765969
2020-07-22T22:30:00	0.2045	12.807	206.0	0.481467829	0.572425372	0.008131844	0.083894734	0.025857172
2020-07-22T22:35:00	0.2043	12.784	207.0	0.481021633	0.571814923	0.008118152	0.083753482	0.025813636
2020-07-22T22:40:00	0.2041	12.762	207.0	0.480229968	0.570732222	0.008093888	0.083503153	0.025736483
2020-07-22T22:45:00	0.2043	12.737	206.0	0.480819871	0.571538941	0.008111965	0.083689648	0.025793962
2020-07-22T22:50:00	0.2039	12.715	206.0	0.479682693	0.569984047	0.008077136	0.083330319	0.025683214
2020-07-22T22:55:00	0.2042	12.693	206.0	0.480618097	0.571262975	0.008105780	0.083625835	0.025774295
2020-07-22T23:00:00	0.2040	12.667	206.0	0.479826338	0.570180400	0.008081531	0.083375666	0.025697190
2020-07-22T23:05:00	0.2039	12.644	207.0	0.479379926	0.569570239	0.008067875	0.083234779	0.025653767
2020-07-22T23:10:00	0.2034	12.619	206.0	0.477896615	0.567543977	0.008022581	0.082767493	0.025509745
2020-07-22T23:15:00	0.2035	12.597	205.0	0.478141302	0.567878108	0.008030044	0.082844487	0.025533475
2020-07-22T23:20:00	0.2043	12.574	206.0	0.480804420	0.571517807	0.008111491	0.083684761	0.025792456
2020-07-22T23:25:00	0.2034	12.549	206.0	0.477939368	0.567602355	0.008023885	0.082780943	0.025513891
2020-07-22T23:30:00	0.2034	12.527	205.0	0.477838397	0.567464484	0.008020806	0.082749179	0.025504101
2020-07-22T23:35:00	0.2031	12.504	205.0	0.476700217	0.565910925	0.007986141	0.082391541	0.025393873
2020-07-22T23:40:00	0.2033	12.481	205.0	0.477290735	0.566716824	0.008004117	0.082576997	0.025451033
2020-07-22T23:45:00	0.2032	12.459	204.0	0.477189745	0.566578980	0.008001041	0.082545266	0.025441253
2020-07-22T23:50:00	0.2033	12.435	205.0	0.477434482	0.566913042	0.008008496	0.082622173	0.025464956
2020-07-22T23:55:00	0.2034	12.412	204.0	0.477679202	0.567247128	0.008015953	0.082699111	0.025488669
2020-07-23T00:00:00	0.2029	12.392	204.0	0.476195146	0.565221859	0.007970781	0.082233083	0.025345035
2020-07-23T00:05:00	0.2022	12.372	204.0	0.473672303	0.561782998	0.007894281	0.081443838	0.025101782
2020-07-23T00:10:00	0.2017	12.353	205.0	0.471840219	0.559288877	0.007838954	0.080873046	0.024925858
2020-07-23T00:15:00	0.2014	12.334	204.0	0.470700017	0.557738001	0.007804619	0.080518812	0.024816680
2020-07-23T00:20:00	0.2022	12.316	203.0	0.473715109	0.561841305	0.007895576	0.081457198	0.025105900
2020-07-23T00:25:00	0.2024	12.296	204.0	0.474306149	0.562646511	0.007913467	0.081641776	0.025162788
2020-07-23T00:30:00	0.2020	12.277	204.0	0.472820612	0.560623210	0.007868537	0.081178244	0.025019923
2020-07-23T00:35:00	0.2016	12.262	203.0	0.471680741	0.559071896	0.007834147	0.080823453	0.024910573
2020-07-23T00:40:00	0.2013	12.248	204.0	0.470540485	0.557521092	0.007799820	0.080469310	0.024801423
2020-07-23T00:45:00	0.2011	12.231	204.0	0.469746362	0.556441657	0.007775958	0.080223123	0.024725546
2020-07-23T00:50:00	0.2010	12.217	204.0	0.469645146	0.556304112	0.007772919	0.080191771	0.024715883
2020-07-23T00:55:00	0.2013	12.202	204.0	0.470583331	0.557579346	0.007801109	0.080482604	0.024805520
2020-07-23T01:00:00	0.2010	12.186	203.0	0.469442704	0.556029033	0.007766843	0.080129084	0.024696562
2020-07-23T01:05:00	0.2006	12.171	203.0	0.467955025	0.554008566	0.007722262	0.079669153	0.024554807
2020-07-23T01:10:00	0.2002	12.160	203.0	0.466813510	0.552459426	0.007688140	0.079317128	0.024446309
2020-07-23T01:15:00	0.1999	12.148	203.0	0.465671608	0.550910796	0.007654082	0.078965751	0.024338011
2020-07-23T01:20:00	0.1999	12.135	203.0	0.465570269	0.550773412	0.007651063	0.078934605	0.024328412
2020-07-23T01:25:00	0.2005	12.123	203.0	0.467896636	0.553929301	0.007720515	0.079651128	0.024549251
2020-07-23T01:30:00	0.2004	12.111	203.0	0.467448645	0.553321234	0.007707116	0.079512899	0.024506648
2020-07-23T01:35:00	0.2003	12.100	203.0	0.467000595	0.552713247	0.007693728	0.079374769	0.024464075
2020-07-23T01:40:00	0.2000	12.087	203.0	0.465858756	0.551164533	0.007659659	0.079023286	0.024355744
2020-07-23T01:45:00	0.1998	12.076	203.0	0.465410494	0.550556824	0.007646304	0.078885511	0.024313281
2020-07-23T01:50:00	0.2005	12.064	203.0	0.467736971	0.553712567	0.007715738	0.079601849	0.024534063
2020-07-23T01:55:00	0.2005	12.052	203.0	0.467635694	0.553575101	0.007712709	0.079570599	0.024524431
2020-07-23T02:00:00	0.2007	12.040	203.0	0.468574438	0.554849598	0.007740808	0.079860492	0.024613779
2020-07-23T02:05:00	0.2008	12.030	203.0	0.468819800	0.555182832	0.007748161	0.079936348	0.024637159
2020-07-23T02:10:00	0.2001	12.019	203.0	0.466291440	0.551751275	0.007672560	0.079156385	0.024396767
2020-07-23T02:15:00	0.1998	12.009	203.0	0.465149361	0.550202878	0.007638530	0.078805305	0.024288560
2020-07-23T02:20:00	0.1998	11.997	203.0	0.465394972	0.550535783	0.007645842	0.078880742	0.024311811
2020-07-23T02:25:00	0.2007	11.987	203.0	0.468414806	0.554632822	0.007736027	0.079811160	0.024598575
2020-07-23T02:30:00	0.1998	11.976	203.0	0.465192275	0.550261041	0.007639807	0.078818483	0.024292622
2020-07-23T02:35:00	0.1992	11.965	203.0	0.463355579	0.547773009	0.007585232	0.078255440	0.024119087
2020-07-23T02:40:00	0.1990	11.954	202.0	0.462559762	0.546695806	0.007561645	0.078012098	0.024044086
2020-07-23T02:45:00	0.1992	11.942	202.0	0.463152759	0.547498428	0.007579217	0.078193387	0.024099961
2020-07-23T02:50:00	0.1996	11.930	202.0	0.464786845	0.549711606	0.007627744	0.078694027	0.024254263
2020-07-23T02:55:00	0.2001	11.920	202.0	0.466420138	0.551925825	0.007676399	0.079195996	0.024408975
2020-07-23T03:00:00	0.1996	11.911	202.0	0.464584111	0.549436912	0.007621715	0.078631829	0.024235093
2020-07-23T03:05:00	0.2000	11.902	202.0	0.465870622	0.551180622	0.007660012	0.079026934	0.024356869
2020-07-23T03:10:00	0.2008	11.892	202.0	0.468890029	0.555278221	0.007750266	0.079958067	0.024643853
2020-07-23T03:15:00	0.2007	11.882	203.0	0.468442171	0.554669981	0.007736846	0.079819615	0.024601181
2020-07-23T03:20:00	0.2009	11.873	202.0	0.469034134	0.555473965	0.007754587	0.080002640	0.024657591
2020-07-23T03:25:00	0.2012	11.866	202.0	0.470318948	0.557219912	0.007793160	0.080400594	0.024780244
2020-07-23T03:30:00	0.2016	11.857	201.0	0.471603274	0.558966505	0.007831813	0.080799369	0.024903150
2020-07-23T03:35:00	0.2019	11.850	202.0	0.472540915	0.560242460	0.007860092	0.081091116	0.024993070
2020-07-23T03:40:00	0.2027	11.841	202.0	0.475208443	0.563876292	0.007940818	0.081923955	0.025249759
2020-07-23T03:45:00	0.2024	11.836	202.0	0.474415417	0.562795403	0.007916776	0.081675923	0.025173313
2020-07-23T03:50:00	0.2024	11.829	202.0	0.474314341	0.562657672	0.007913715	0.081644336	0.025163577
2020-07-23T03:55:00	0.2030	11.823	202.0	0.476288880	0.565349726	0.007973631	0.082262479	0.025354095
2020-07-23T04:00:00	0.2029	11.817	201.0	0.476187860	0.565211921	0.007970560	0.082230798	0.025344331
2020-07-23T04:05:00	0.2032	11.811	201.0	0.477121137	0.566485340	0.007998952	0.082523713	0.025434610
2020-07-23T04:10:00	0.2036	11.807	202.0	0.478399789	0.568231135	0.008037932	0.082925861	0.025558556
2020-07-23T04:15:00	0.2035	11.805	201.0	0.478295739	0.568089023	0.008034756	0.082893100	0.025548459
2020-07-23T04:20:00	0.2041	11.804	201.0	0.480264867	0.570779939	0.008094957	0.083514181	0.025739882
2020-07-23T04:25:00	0.2043	11.802	201.0	0.480851673	0.571582440	0.008112940	0.083699708	0.025797063
2020-07-23T04:30:00	0.2045	11.800	201.0	0.481438379	0.572385076	0.008130940	0.083885408	0.025854297
2020-07-23T04:35:00	0.2042	11.802	201.0	0.480643721	0.571298018	0.008106565	0.083633938	0.025776792
2020-07-23T04:40:00	0.2043	11.803	201.0	0.480885118	0.571628187	0.008113966	0.083710289	0.025800324
2020-07-23T04:45:00	0.2040	11.806	201.0	0.479744871	0.570069037	0.008079038	0.083349947	0.025689263
2020-07-23T04:50:00	0.2043	11.810	201.0	0.481022532	0.571816154	0.008118180	0.083753766	0.025813724
2020-07-23T04:55:00	0.2043	11.815	201.0	0.480918563	0.571673934	0.008114991	0.083720869	0.025803585
2020-07-23T05:00:00	0.2045	11.819	201.0	0.481505257	0.572476585	0.008132993	0.083906588	0.025860825
2020-07-23T05:05:00	0.2054	11.825	202.0	0.484852631	0.577061362	0.008236078	0.084970103	0.026188611
2020-07-23T05:10:00	0.2059	11.831	201.0	0.486473180	0.579284186	0.008286216	0.085487363	0.026348035
2020-07-23T05:15:00	0.2062	11.842	201.0	0.487403630	0.580561384	0.008315071	0.085785054	0.026439787
2020-07-23T05:20:00	0.2063	11.851	202.0	0.487644547	0.580892196	0.008322550	0.085862218	0.026463569
2020-07-23T05:25:00	0.2065	11.863	202.0	0.488574676	0.582169826	0.008351458	0.086160453	0.026555488
2020-07-23T05:30:00	0.2064	11.874	201.0	0.488126330	0.581553890	0.008337518	0.086016632	0.026511161
2020-07-23T05:35:00	0.2072	11.885	201.0	0.490778543	0.585199835	0.008420151	0.086869146	0.026773914
2020-07-23T05:40:00	0.2073	11.893	201.0	0.491363536	0.586004770	0.008438432	0.087057745	0.026832042
2020-07-23T05:45:00	0.2077	11.899	201.0	0.492636833	0.587757746	0.008478290	0.087468953	0.026958781
2020-07-23T05:50:00	0.2074	11.907	201.0	0.491500526	0.586193306	0.008442715	0.087101939	0.026845664
2020-07-23T05:55:00	0.2071	11.926	201.0	0.490708221	0.585103091	0.008417955	0.086846488	0.026766931
2020-07-23T06:00:00	0.2073	11.946	201.0	0.491293225	0.585908010	0.008436234	0.087035066	0.026825053
2020-07-23T06:05:00	0.2067	11.960	201.0	0.489123055	0.582923407	0.008368525	0.086336525	0.026609755
2020-07-23T06:10:00	0.2066	11.973	201.0	0.488674781	0.582307373	0.008354572	0.086192581	0.026565391
2020-07-23T06:15:00	0.2067	11.987	202.0	0.489260136	0.583111821	0.008372793	0.086380566	0.026623329
2020-07-23T06:20:00	0.2069	12.004	201.0	0.489845389	0.583916404	0.008391031	0.086568722	0.026681321
2020-07-23T06:25:00	0.2070	12.021	202.0	0.490086133	0.584247449	0.008398539	0.086646179	0.026705194
2020-07-23T06:30:00	0.2078	12.039	202.0	0.493080959	0.588369490	0.008492214	0.087612609	0.027003057
2020-07-23T06:35:00	0.2081	12.060	202.0	0.494009603	0.589649123	0.008521366	0.087913363	0.027095752
2020-07-23T06:40:00	0.2082	12.078	202.0	0.494250052	0.589980565	0.008528922	0.087991320	0.027119779
2020-07-23T06:45:00	0.2092	12.101	202.0	0.497928555	0.595056904	0.008644937	0.089188220	0.027488676
2020-07-23T06:50:00	0.2101	12.123	202.0	0.500916496	0.599188268	0.008739746	0.090166353	0.027790146
2020-07-23T06:55:00	0.2105	12.149	202.0	0.502186229	0.600946075	0.008780192	0.090583622	0.027918752
2020-07-23T07:00:00	0.2111	12.174	202.0	0.504141576	0.603655579	0.008842659	0.091228081	0.028117381
2020-07-23T07:05:00	0.2108	12.196	202.0	0.503352204	0.602561384	0.008817414	0.090967639	0.028037110
2020-07-23T07:10:00	0.2105	12.216	202.0	0.502219465	0.600992104	0.008781252	0.090594557	0.027922122
2020-07-23T07:15:00	0.2103	12.237	202.0	0.501429648	0.599898515	0.008756081	0.090334873	0.027842085
2020-07-23T07:20:00	0.2109	12.256	202.0	0.503728495	0.603082921	0.008829444	0.091091745	0.028075360
2020-07-23T07:25:00	0.2107	12.275	202.0	0.502939028	0.601988856	0.008804215	0.090831466	0.027995140
2020-07-23T07:30:00	0.2110	12.406	203.0	0.503864990	0.603272130	0.008833809	0.091136783	0.028089242
2020-07-23T07:35:00	0.2108	12.504	203.0	0.503418652	0.602653473	0.008819538	0.090989549	0.028043863
2020-07-23T07:40:00	0.2109	12.463	203.0	0.503658439	0.602985815	0.008827204	0.091068633	0.028068237
2020-07-23T07:45:00	0.2114	12.540	204.0	0.505270066	0.605220717	0.008878811	0.091601055	0.028232335
2020-07-23T07:50:00	0.2119	12.482	204.0	0.506880933	0.607456656	0.008930544	0.092134774	0.028396832
2020-07-23T07:55:00	0.2121	12.497	203.0	0.507805828	0.608741388	0.008960315	0.092441914	0.028491496
2020-07-23T08:00:00	0.2124	12.539	204.0	0.508730473	0.610026463	0.008990127	0.092749481	0.028586291
2020-07-23T08:05:00	0.2126	12.511	203.0	0.509312395	0.610835573	0.009008914	0.092943309	0.028646030
2020-07-23T08:10:00	0.2117	12.547	203.0	0.506468183	0.606883546	0.008917274	0.091997873	0.028354638
2020-07-23T08:15:00	0.2117	12.577	204.0	0.506364988	0.606740279	0.008913958	0.091963661	0.028344093
2020-07-23T08:20:00	0.2115	12.623	204.0	0.505576129	0.605645383	0.008888629	0.091702343	0.028263553
2020-07-23T08:25:00	0.2115	12.602	204.0	0.505815765	0.605977932	0.008896319	0.091781685	0.028288007
2020-07-23T08:30:00	0.2111	12.628	204.0	0.504340871	0.603931914	0.008849038	0.091293895	0.028137665
2020-07-23T08:35:00	0.2114	12.650	204.0	0.505266454	0.605215705	0.008878695	0.091599860	0.028231967
2020-07-23T08:40:00	0.2114	12.678	204.0	0.505163222	0.605072488	0.008875385	0.091565710	0.028221441
2020-07-23T08:45:00	0.2111	12.710	204.0	0.504374086	0.603977971	0.008850101	0.091304865	0.028141046
2020-07-23T08:50:00	0.2103	12.744	205.0	0.501525761	0.600031567	0.008759142	0.090366454	0.027851819
2020-07-23T08:55:00	0.2107	12.786	205.0	0.502795267	0.601789683	0.008799625	0.090784109	0.027980544
2020-07-23T09:00:00	0.2098	12.828	205.0	0.499945623	0.597845075	0.008708883	0.089847945	0.027692009
2020-07-23T09:05:00	0.2096	12.874	206.0	0.499155280	0.596752203	0.008683799	0.089589158	0.027612249
2020-07-23T09:10:00	0.2101	12.983	206.0	0.500769033	0.598984206	0.008735055	0.090117955	0.027775229
2020-07-23T09:15:00	0.2106	13.319	207.0	0.502725192	0.601692603	0.008797388	0.090761030	0.027973431
2020-07-23T09:20:00	0.2104	13.324	207.0	0.501935492	0.600598855	0.008772198	0.090501147	0.027893332
2020-07-23T09:25:00	0.2091	13.339	207.0	0.497367112	0.594281409	0.008627179	0.089005019	0.027432211
2020-07-23T09:30:00	0.2105	13.274	207.0	0.502072058	0.600787966	0.008776551	0.090546063	0.027907176
2020-07-23T09:35:00	0.2097	13.194	206.0	0.499565296	0.597319104	0.008696808	0.089723366	0.027653613
2020-07-23T09:40:00	0.2093	13.181	206.0	0.498087699	0.595276769	0.008649974	0.089240184	0.027504691
2020-07-23T09:45:00	0.2092	13.227	207.0	0.497640605	0.594659141	0.008635827	0.089094238	0.027459709
2020-07-23T09:50:00	0.2090	13.267	207.0	0.497193452	0.594041593	0.008621691	0.088948392	0.027414758
2020-07-23T09:55:00	0.2087	13.308	207.0	0.496058666	0.592475097	0.008585866	0.088578796	0.027300845
2020-07-23T10:00:00	0.2085	13.346	207.0	0.495267420	0.591383448	0.008560931	0.088321544	0.027221558
2020-07-23T10:05:00	0.2083	13.387	207.0	0.494768182	0.590694929	0.008545216	0.088159421	0.027171590
2020-07-23T10:10:00	0.2083	13.415	208.0	0.494612857	0.590480753	0.008540330	0.088109011	0.027156053
2020-07-23T10:15:00	0.2085	13.438	208.0	0.495489319	0.591689543	0.008567920	0.088393651	0.027243782
2020-07-23T10:20:00	0.2088	13.472	208.0	0.496365557	0.592898637	0.008595547	0.088678674	0.027331628
2020-07-23T10:25:00	0.2076	13.534	208.0	0.492426326	0.587467847	0.008471694	0.087400904	0.026937807
2020-07-23T10:30:00	0.2082	13.500	208.0	0.494335497	0.590098356	0.008531608	0.088019031	0.027128320
2020-07-23T10:35:00	0.2081	13.520	208.0	0.493836122	0.589410021	0.008515916	0.087857140	0.027078424
2020-07-23T10:40:00	0.2068	13.548	208.0	0.489549498	0.583509590	0.008381808	0.086473569	0.026651994
2020-07-23T10:45:00	0.2062	13.577	208.0	0.487326327	0.580455246	0.008312672	0.085760302	0.026432158
2020-07-23T10:50:00	0.2053	13.611	208.0	0.484411765	0.576457012	0.008222465	0.084829654	0.026145323
2020-07-23T10:55:00	0.2053	13.650	209.0	0.484255965	0.576243475	0.008217656	0.084780047	0.026130034
2020-07-23T11:00:00	0.2056	13.690	209.0	0.485480013	0.577921661	0.008255471	0.085170171	0.026250274
2020-07-23T11:05:00	0.2049	13.728	209.0	0.482909037	0.574398203	0.008176145	0.084351784	0.025998039
2020-07-23T11:10:00	0.2046	13.749	209.0	0.482062756	0.573239551	0.008150117	0.084083254	0.025915276
2020-07-23T11:15:00	0.2045	13.769	209.0	0.481561574	0.572553647	0.008134722	0.083924426	0.025866323
2020-07-23T11:20:00	0.2051	13.774	210.0	0.483821939	0.575648708	0.008204269	0.084641929	0.026087464
2020-07-23T11:25:00	0.2049	13.785	209.0	0.482975886	0.574489751	0.008178203	0.084373014	0.026004582
2020-07-23T11:30:00	0.2048	13.808	210.0	0.482474839	0.573803666	0.008162786	0.084213958	0.025955560
2020-07-23T11:35:00	0.2040	13.841	210.0	0.479901582	0.570283260	0.008083834	0.083399425	0.025704513
2020-07-23T11:40:00	0.2038	13.879	210.0	0.479054550	0.569125612	0.008057929	0.083132165	0.025622140
2020-07-23T11:45:00	0.2033	13.915	210.0	0.477515966	0.567024277	0.008010978	0.082647787	0.025472851
2020-07-23T11:50:00	0.2032	13.946	210.0	0.477014110	0.566339271	0.007995693	0.082490096	0.025424249
2020-07-23T11:55:00	0.2033	13.978	210.0	0.477549444	0.567069980	0.008011999	0.082658312	0.025476094
2020-07-23T12:00:00	0.2037	14.017	210.0	0.478775916	0.568744925	0.008049416	0.083044341	0.025595072
2020-07-23T12:05:00	0.2029	14.034	211.0	0.476199846	0.565228271	0.007970924	0.082234557	0.025345489
2020-07-23T12:10:00	0.2024	14.050	211.0	0.474313949	0.562657138	0.007913703	0.081644213	0.025163540
2020-07-23T12:15:00	0.2024	14.068	211.0	0.474157684	0.562444222	0.007908971	0.081595392	0.025148492
2020-07-23T12:20:00	0.2026	14.089	211.0	0.475039445	0.563645907	0.007935692	0.081871067	0.025233458
2020-07-23T12:25:00	0.2020	14.111	211.0	0.472806731	0.560604313	0.007868118	0.081173919	0.025018590
2020-07-23T12:30:00	0.2017	14.122	211.0	0.471957920	0.559449030	0.007842503	0.080909656	0.024937142
2020-07-23T12:35:00	0.2009	14.141	211.0	0.469030091	0.555468472	0.007754465	0.080001390	0.024657205
2020-07-23T12:40:00	0.2007	14.168	211.0	0.468526973	0.554785140	0.007739386	0.079845822	0.024609258
2020-07-23T12:45:00	0.2002	14.202	211.0	0.466636785	0.552219687	0.007682865	0.079262697	0.024429533
2020-07-23T12:50:00	0.1998	14.247	212.0	0.465439495	0.550596135	0.007647168	0.078894421	0.024316027
2020-07-23T12:55:00	0.2000	14.272	212.0	0.465976666	0.551324411	0.007663173	0.079059546	0.024366920
2020-07-23T13:00:00	0.1999	14.292	212.0	0.465820015	0.551112005	0.007658504	0.079011374	0.024352073
2020-07-23T13:05:00	0.2000	14.304	212.0	0.466010259	0.551369962	0.007664175	0.079069877	0.024370104
2020-07-23T13:10:00	0.2001	14.318	212.0	0.466200492	0.551627932	0.007669847	0.079128399	0.024388141
2020-07-23T13:15:00	0.1991	14.344	213.0	0.462920473	0.547183995	0.007572332	0.078122348	0.024078067
2020-07-23T13:20:00	0.1984	14.345	212.0	0.460332268	0.543683378	0.007495817	0.077332962	0.023834770
2020-07-23T13:25:00	0.1984	14.365	212.0	0.460522822	0.543940927	0.007501437	0.077390946	0.023852641
2020-07-23T13:30:00	0.1979	14.392	212.0	0.458628135	0.541381386	0.007445647	0.076815364	0.023675241
2020-07-23T13:35:00	0.1976	14.420	213.0	0.457775745	0.540230814	0.007420614	0.076557107	0.023595644
2020-07-23T13:40:00	0.1981	14.457	213.0	0.459357015	0.542365696	0.007467085	0.077036539	0.023743409
2020-07-23T13:45:00	0.1978	14.489	213.0	0.458504809	0.541214883	0.007442022	0.076777972	0.023663717
2020-07-23T13:50:00	0.1971	14.511	214.0	0.455913202	0.537718718	0.007366060	0.075994281	0.023422176
2020-07-23T13:55:00	0.1969	14.525	214.0	0.455408120	0.537037963	0.007351300	0.075842006	0.023375243
2020-07-23T14:00:00	0.1970	14.540	214.0	0.455598954	0.537295147	0.007356875	0.075899522	0.023392970
2020-07-23T14:05:00	0.1976	14.549	214.0	0.457529025	0.539897895	0.007413376	0.076482436	0.023572630
2020-07-23T14:10:00	0.1976	14.550	214.0	0.457719738	0.540155236	0.007418971	0.076540154	0.023590419
2020-07-23T14:15:00	0.1975	14.541	213.0	0.457214928	0.539474126	0.007404167	0.076387424	0.023543346
2020-07-23T14:20:00	0.1978	14.530	213.0	0.458448815	0.541139288	0.007440377	0.076760998	0.023658485
2020-07-23T14:25:00	0.1974	14.524	213.0	0.456900801	0.539050396	0.007394962	0.076292462	0.023514078
2020-07-23T14:30:00	0.1975	14.520	213.0	0.457439337	0.539776882	0.007410746	0.076455300	0.023564266
2020-07-23T14:35:00	0.1976	14.519	214.0	0.457630055	0.540034217	0.007416340	0.076513009	0.023582053
2020-07-23T14:40:00	0.1976	14.517	214.0	0.457820762	0.540291565	0.007421935	0.076570736	0.023599845
2020-07-23T14:45:00	0.1976	14.518	214.0	0.457663731	0.540079658	0.007417328	0.076523201	0.023585194
2020-07-23T14:50:00	0.1979	14.522	214.0	0.458549817	0.541275646	0.007443345	0.076791617	0.023667922
2020-07-23T14:55:00	0.1976	14.529	214.0	0.457697406	0.540125100	0.007418316	0.076533394	0.023588335
2020-07-23T15:00:00	0.1973	14.533	214.0	0.456496931	0.538505725	0.007383136	0.076170454	0.023476474
2020-07-23T15:05:00	0.1972	14.537	214.0	0.456339838	0.538293899	0.007378539	0.076123023	0.023461855
2020-07-23T15:10:00	0.1973	14.543	214.0	0.456530619	0.538551152	0.007384122	0.076180627	0.023479609
2020-07-23T15:15:00	0.1972	14.548	214.0	0.456373527	0.538339324	0.007379524	0.076133193	0.023464990
2020-07-23T15:20:00	0.1972	14.552	215.0	0.456216428	0.538127505	0.007374928	0.076085772	0.023450374
2020-07-23T15:25:00	0.1970	14.557	215.0	0.455711391	0.537446691	0.007360161	0.075933420	0.023403418
2020-07-23T15:30:00	0.1967	14.559	215.0	0.454510206	0.535828243	0.007325096	0.075571668	0.023291922
2020-07-23T15:35:00	0.1962	14.556	215.0	0.452960376	0.533741721	0.007279976	0.075106168	0.023148450
2020-07-23T15:40:00	0.1959	14.551	215.0	0.451758206	0.532124555	0.007245071	0.074746061	0.023037462
2020-07-23T15:45:00	0.1957	14.550	214.0	0.450904070	0.530976258	0.007220321	0.074490722	0.022958764
2020-07-23T15:50:00	0.1952	14.549	215.0	0.449352572	0.528891904	0.007175470	0.074028006	0.022816150
2020-07-23T15:55:00	0.1951	14.547	214.0	0.448846502	0.528212434	0.007160871	0.073877382	0.022769727
2020-07-23T16:00:00	0.1947	14.540	215.0	0.447642855	0.526597185	0.007126204	0.073519738	0.022659497
2020-07-23T16:05:00	0.1949	14.532	215.0	0.448386605	0.527595134	0.007147615	0.073740631	0.022727578
2020-07-23T16:10:00	0.1952	14.522	214.0	0.449478802	0.529061415	0.007179114	0.074065600	0.022827737
2020-07-23T16:15:00	0.1955	14.511	215.0	0.450222144	0.530059893	0.007200591	0.074287172	0.022896028
2020-07-23T16:20:00	0.1957	14.501	214.0	0.450965321	0.531058585	0.007222095	0.074509019	0.022964403
2020-07-23T16:25:00	0.1961	14.489	214.0	0.452404987	0.532994467	0.007263840	0.074939697	0.023097143
2020-07-23T16:30:00	0.1957	14.476	214.0	0.451057748	0.531182819	0.007224771	0.074536632	0.022972914
2020-07-23T16:35:00	0.1950	14.465	214.0	0.448664091	0.527967572	0.007155612	0.073823127	0.022753005
2020-07-23T16:40:00	0.1947	14.451	214.0	0.447664148	0.526625749	0.007126817	0.073526057	0.022661445
2020-07-23T16:45:00	0.1952	14.438	214.0	0.449453848	0.529027905	0.007178394	0.074058167	0.022825446
2020-07-23T16:50:00	0.1953	14.427	214.0	0.449500083	0.529089995	0.007179729	0.074071939	0.022829691
2020-07-23T16:55:00	0.1954	14.416	214.0	0.449894887	0.529620258	0.007191132	0.074189585	0.022865950
2020-07-23T17:00:00	0.1949	14.406	214.0	0.448197928	0.527341930	0.007142181	0.073684563	0.022710298
2020-07-23T17:05:00	0.1948	14.395	214.0	0.447895438	0.526936047	0.007133472	0.073594718	0.022682607
2020-07-23T17:10:00	0.1951	14.386	214.0	0.448987795	0.528402120	0.007164945	0.073919421	0.022782683
2020-07-23T17:15:00	0.1949	14.374	214.0	0.448336681	0.527528135	0.007146177	0.073725793	0.022723006
2020-07-23T17:20:00	0.1952	14.361	214.0	0.449428895	0.528994394	0.007177674	0.074050735	0.022823156
2020-07-23T17:25:00	0.1949	14.349	214.0	0.448429181	0.527652276	0.007148842	0.073753285	0.022731479
2020-07-23T17:30:00	0.1954	14.336	214.0	0.449869936	0.529586744	0.007190411	0.074182147	0.022863658
2020-07-23T17:35:00	0.1951	14.322	214.0	0.448870354	0.528244455	0.007161558	0.073884478	0.022771914
2020-07-23T17:40:00	0.1949	14.306	214.0	0.448219217	0.527370499	0.007142794	0.073690888	0.022712247
2020-07-23T17:45:00	0.1944	14.291	214.0	0.446521409	0.525093270	0.007093980	0.073187283	0.022557031
2020-07-23T17:50:00	0.1948	14.274	214.0	0.447962985	0.527026676	0.007135416	0.073614776	0.022688789
2020-07-23T17:55:00	0.1947	14.259	214.0	0.447660474	0.526620820	0.007126711	0.073524967	0.022661109
2020-07-23T18:00:00	0.1946	14.243	213.0	0.447357936	0.526215000	0.007118011	0.073435203	0.022633443
2020-07-23T18:05:00	0.1945	14.227	214.0	0.446706505	0.525341425	0.007099294	0.073242104	0.022573928
2020-07-23T18:10:00	0.1942	14.211	214.0	0.445705978	0.524000359	0.007070593	0.072946009	0.022482668
2020-07-23T18:15:00	0.1938	14.193	213.0	0.444356041	0.522192206	0.007031960	0.072547440	0.022359825
2020-07-23T18:20:00	0.1944	14.176	213.0	0.446496434	0.525059788	0.007093263	0.073179887	0.022554752
2020-07-23T18:25:00	0.1944	14.158	213.0	0.446542709	0.525121825	0.007094591	0.073193590	0.022558975
2020-07-23T18:30:00	0.1946	14.141	213.0	0.447286703	0.526119459	0.007115963	0.073414076	0.022626931
2020-07-23T18:35:00	0.1948	14.122	213.0	0.448030531	0.527117307	0.007137361	0.073634837	0.022694972
2020-07-23T18:40:00	0.1950	14.104	213.0	0.448774194	0.528115368	0.007158786	0.073855873	0.022763097
2020-07-23T18:45:00	0.1947	14.084	213.0	0.447425494	0.526305615	0.007119953	0.073455243	0.022639619
2020-07-23T18:50:00	0.1949	14.064	213.0	0.448169292	0.527303503	0.007141356	0.073676055	0.022707676
2020-07-23T18:55:00	0.1947	14.044	212.0	0.447518018	0.526429723	0.007122614	0.073482693	0.022648080
2020-07-23T19:00:00	0.1950	14.024	213.0	0.448610499	0.527895637	0.007154067	0.073807190	0.022748093
2020-07-23T19:05:00	0.1954	14.002	213.0	0.450051177	0.529830207	0.007195649	0.074236182	0.022880312
2020-07-23T19:10:00	0.1959	13.980	213.0	0.451839603	0.532234014	0.007247432	0.074770417	0.023044969
2020-07-23T19:15:00	0.1962	13.957	213.0	0.452930676	0.533701754	0.007279112	0.075097261	0.023145705
2020-07-23T19:20:00	0.1967	13.934	212.0	0.454717569	0.536107557	0.007331144	0.075634057	0.023311151
2020-07-23T19:25:00	0.1968	13.911	212.0	0.454763731	0.536169741	0.007332490	0.075647949	0.023315433
2020-07-23T19:30:00	0.1970	13.888	212.0	0.455505903	0.537169740	0.007354156	0.075871475	0.023384325
2020-07-23T19:35:00	0.1972	13.863	212.0	0.456247911	0.538169953	0.007375849	0.076095274	0.023453302
2020-07-23T19:40:00	0.1973	13.838	212.0	0.456641922	0.538701249	0.007387381	0.076214244	0.023489970
2020-07-23T19:45:00	0.1971	13.813	212.0	0.455992292	0.537825334	0.007368372	0.076018139	0.023429529
2020-07-23T19:50:00	0.1972	13.789	212.0	0.456386332	0.538356591	0.007379899	0.076137059	0.023466181
2020-07-23T19:55:00	0.1974	13.765	211.0	0.457128146	0.539357057	0.007401623	0.076361184	0.023535258
2020-07-23T20:00:00	0.1975	13.740	211.0	0.457174275	0.539419285	0.007402975	0.076375131	0.023539557
2020-07-23T20:05:00	0.1979	13.714	211.0	0.458611283	0.541358632	0.007445151	0.076810254	0.023673666
2020-07-23T20:10:00	0.1983	13.689	212.0	0.460047676	0.543298783	0.007487427	0.077246404	0.023808092
2020-07-23T20:15:00	0.1990	13.666	211.0	0.462525349	0.546649236	0.007560626	0.078001583	0.024040845
2020-07-23T20:20:00	0.1994	13.640	211.0	0.463960073	0.548591575	0.007603173	0.078440530	0.024176133
2020-07-23T20:25:00	0.1992	13.612	211.0	0.463311855	0.547713811	0.007583935	0.078242061	0.024114963
2020-07-23T20:30:00	0.1994	13.589	211.0	0.464052143	0.548716276	0.007605907	0.078468740	0.024184828
2020-07-23T20:35:00	0.1997	13.564	211.0	0.465139261	0.550189189	0.007638229	0.078802204	0.024287605
2020-07-23T20:40:00	0.1997	13.538	211.0	0.464838293	0.549781320	0.007629274	0.078709815	0.024259129
2020-07-23T20:45:00	0.1993	13.511	211.0	0.463496028	0.547963170	0.007589398	0.078298425	0.024132335
2020-07-23T20:50:00	0.1996	13.487	211.0	0.464583325	0.549435847	0.007621692	0.078631588	0.024235019
2020-07-23T20:55:00	0.1993	13.461	211.0	0.463588111	0.548087854	0.007592131	0.078326613	0.024141023
2020-07-23T21:00:00	0.1992	13.438	211.0	0.463287004	0.547680167	0.007583198	0.078234457	0.024112619
2020-07-23T21:05:00	0.1995	13.412	211.0	0.464374369	0.549152755	0.007615480	0.078567507	0.024215269
2020-07-23T21:10:00	0.1993	13.387	210.0	0.463726230	0.548274886	0.007596230	0.078368904	0.024154057
2020-07-23T21:15:00	0.1994	13.365	210.0	0.463772269	0.548337232	0.007597597	0.078383003	0.024158403
2020-07-23T21:20:00	0.1995	13.341	210.0	0.464165399	0.548869681	0.007609271	0.078503447	0.024195525
2020-07-23T21:25:00	0.2000	13.317	210.0	0.465946334	0.551283282	0.007662269	0.079050217	0.024364045
2020-07-23T21:30:00	0.1999	13.292	210.0	0.465645438	0.550875318	0.007653302	0.078957707	0.024335532
2020-07-23T21:35:00	0.2003	13.270	210.0	0.467078835	0.552819404	0.007696065	0.079398881	0.024471506
2020-07-23T21:40:00	0.2004	13.245	210.0	0.467471580	0.553352361	0.007707802	0.079519972	0.024508828
2020-07-23T21:45:00	0.2005	13.221	210.0	0.467864279	0.553885377	0.007719547	0.079641141	0.024546173
2020-07-23T21:50:00	0.1998	13.194	210.0	0.465482563	0.550654516	0.007648450	0.078907654	0.024320105
2020-07-23T21:55:00	0.2000	13.170	210.0	0.465875494	0.551187228	0.007660157	0.079028433	0.024357330
2020-07-23T22:00:00	0.2005	13.145	210.0	0.467655526	0.553602018	0.007713302	0.079576718	0.024526317
2020-07-23T22:05:00	0.2009	13.121	210.0	0.469081867	0.555538805	0.007756018	0.080017407	0.024662142
2020-07-23T22:10:00	0.2016	13.099	209.0	0.471546712	0.558889557	0.007830109	0.080781787	0.024897731
2020-07-23T22:15:00	0.2021	13.076	209.0	0.473317562	0.561299861	0.007883553	0.081333163	0.025067671
2020-07-23T22:20:00	0.2022	13.053	209.0	0.473703389	0.561825340	0.007895221	0.081453540	0.025104772
2020-07-23T22:25:00	0.2021	13.031	209.0	0.473396989	0.561408027	0.007885954	0.081357936	0.025075306
2020-07-23T22:30:00	0.2030	13.007	209.0	0.476550368	0.565706466	0.007981582	0.082344512	0.025379378
2020-07-23T22:35:00	0.2028	12.985	209.0	0.475552486	0.564345375	0.007951259	0.082031676	0.025282959
2020-07-23T22:40:00	0.2030	12.962	208.0	0.476283906	0.565342939	0.007973480	0.082260919	0.025353614
2020-07-23T22:45:00	0.2032	12.939	209.0	0.477015168	0.566340714	0.007995726	0.082490428	0.025424351
2020-07-23T22:50:00	0.2029	12.918	208.0	0.476017422	0.564979441	0.007965380	0.082177361	0.025327861
2020-07-23T22:55:00	0.2033	12.894	208.0	0.477440238	0.566920900	0.008008671	0.082623983	0.025465514
2020-07-23T23:00:00	0.2027	12.871	208.0	0.475405015	0.564144296	0.007946783	0.081985494	0.025268726
2020-07-23T23:05:00	0.2034	12.850	208.0	0.477865255	0.567501156	0.008021625	0.082757628	0.025506705
2020-07-23T23:10:00	0.2036	12.833	208.0	0.478596175	0.568499386	0.008043927	0.082987713	0.025577619
2020-07-23T23:15:00	0.2038	12.812	208.0	0.479326938	0.569497825	0.008066255	0.083218064	0.025648615
2020-07-23T23:20:00	0.2035	12.792	208.0	0.477984235	0.567663620	0.008025253	0.082795060	0.025518241
2020-07-23T23:25:00	0.2040	12.768	208.0	0.479751718	0.570078398	0.008079248	0.083352108	0.025689929
2020-07-23T23:30:00	0.2032	12.747	207.0	0.477026446	0.566356106	0.007996069	0.082493970	0.025425443
2020-07-23T23:35:00	0.2024	12.727	207.0	0.474298977	0.562636738	0.007913249	0.081639535	0.025162098
2020-07-23T23:40:00	0.2023	12.708	208.0	0.473992632	0.562219354	0.007903974	0.081543841	0.025132604
2020-07-23T23:45:00	0.2020	12.690	207.0	0.472993994	0.560859266	0.007873774	0.081232277	0.025036577
2020-07-23T23:50:00	0.2020	12.673	207.0	0.473033712	0.560913344	0.007874974	0.081244658	0.025040392
2020-07-23T23:55:00	0.2016	12.657	207.0	0.471688507	0.559082462	0.007834381	0.080825868	0.024911318
2020-07-24T00:00:00	0.2020	12.642	206.0	0.473113145	0.561021501	0.007877374	0.081269420	0.025048025
2020-07-24T00:05:00	0.2019	12.624	206.0	0.472460488	0.560132986	0.007857664	0.081066071	0.024985350
2020-07-24T00:10:00	0.2021	12.606	206.0	0.473192577	0.561129661	0.007879775	0.081294186	0.025055658
2020-07-24T00:15:00	0.2019	12.589	206.0	0.472539935	0.560241125	0.007860062	0.081090811	0.024992975
2020-07-24T00:20:00	0.2018	12.570	206.0	0.472233430	0.559823952	0.007850812	0.080995385	0.024963564
2020-07-24T00:25:00	0.2019	12.553	206.0	0.472619380	0.560349267	0.007862460	0.081115554	0.025000601
2020-07-24T00:30:00	0.2022	12.536	206.0	0.473697548	0.561817384	0.007895044	0.081451717	0.025104210
2020-07-24T00:35:00	0.2020	12.518	206.0	0.473045003	0.560928719	0.007875315	0.081248177	0.025041477
2020-07-24T00:40:00	0.2024	12.502	206.0	0.474469070	0.562868516	0.007918402	0.081692692	0.025178481
2020-07-24T00:45:00	0.2024	12.483	205.0	0.474162740	0.562451111	0.007909124	0.081596972	0.025148979
2020-07-24T00:50:00	0.2024	12.466	206.0	0.474202444	0.562505207	0.007910326	0.081609375	0.025152802
2020-07-24T00:55:00	0.2030	12.451	205.0	0.476317748	0.565389107	0.007974508	0.082271533	0.025356886
2020-07-24T01:00:00	0.2029	12.434	205.0	0.476011586	0.564971480	0.007965203	0.082175531	0.025327297
2020-07-24T01:05:00	0.2033	12.415	205.0	0.477434404	0.566912935	0.008008493	0.082622149	0.025464949
2020-07-24T01:10:00	0.2032	12.397	206.0	0.477128342	0.566495174	0.007999171	0.082525976	0.025435307
2020-07-24T01:15:00	0.2036	12.381	206.0	0.478550691	0.568437254	0.008042538	0.082973385	0.025573203
2020-07-24T01:20:00	0.2035	12.365	205.0	0.478244730	0.568019358	0.008033200	0.082877042	0.025543509
2020-07-24T01:25:00	0.2031	12.351	205.0	0.476901598	0.566185725	0.007992269	0.082454763	0.025413359
2020-07-24T01:30:00	0.2038	12.334	205.0	0.479015216	0.569071868	0.008056727	0.083119764	0.025618319
2020-07-24T01:35:00	0.2038	12.319	205.0	0.479054863	0.569126040	0.008057938	0.083132263	0.025622171
2020-07-24T01:40:00	0.2041	12.304	205.0	0.480130982	0.570596881	0.008090857	0.083471880	0.025726844
2020-07-24T01:45:00	0.2042	12.289	205.0	0.480516032	0.571123393	0.008102652	0.083593565	0.025764349
2020-07-24T01:50:00	0.2039	12.275	205.0	0.479519319	0.569760746	0.008072138	0.083278759	0.025667322
2020-07-24T01:55:00	0.2044	12.259	204.0	0.481286002	0.572176592	0.008126263	0.083837159	0.025839427
2020-07-24T02:00:00	0.2045	12.244	205.0	0.481670921	0.572703279	0.008138080	0.083959066	0.025877000
2020-07-24T02:05:00	0.2047	12.230	205.0	0.482401020	0.573702603	0.008160516	0.084190537	0.025948341
2020-07-24T02:10:00	0.2044	12.217	205.0	0.481404861	0.572339215	0.008129911	0.083874793	0.025851026
2020-07-24T02:15:00	0.2040	12.203	205.0	0.479717519	0.570031650	0.008078201	0.083341312	0.025686602
2020-07-24T02:20:00	0.2036	12.187	205.0	0.478374970	0.568197238	0.008037174	0.082918047	0.025556147
2020-07-24T02:25:00	0.2038	12.173	204.0	0.479105781	0.569195614	0.008059494	0.083148317	0.025627119
2020-07-24T02:30:00	0.2032	12.161	204.0	0.477071559	0.566417676	0.007997442	0.082508140	0.025429810
2020-07-24T02:35:00	0.2030	12.151	203.0	0.476419666	0.565528146	0.007977607	0.082303504	0.025366739
2020-07-24T02:40:00	0.2034	12.138	204.0	0.477842312	0.567469830	0.008020926	0.082750411	0.025504480
2020-07-24T02:45:00	0.2031	12.127	204.0	0.476844811	0.566108232	0.007990540	0.082436932	0.025407863
2020-07-24T02:50:00	0.2027	12.121	204.0	0.475501122	0.564275338	0.007949700	0.082015590	0.025278001
2020-07-24T02:55:00	0.2034	12.115	203.0	0.477615615	0.567160317	0.008014015	0.082679116	0.025482507
2020-07-24T03:00:00	0.2032	12.110	204.0	0.476963827	0.566270648	0.007994163	0.082474304	0.025419381
2020-07-24T03:05:00	0.2030	12.103	203.0	0.476311912	0.565381145	0.007974331	0.082269703	0.025356321
2020-07-24T03:10:00	0.2032	12.099	204.0	0.477043168	0.566378928	0.007996578	0.082499222	0.025427061
2020-07-24T03:15:00	0.2032	12.096	204.0	0.477082838	0.566433069	0.007997786	0.082511682	0.025430902
2020-07-24T03:20:00	0.2028	12.090	203.0	0.475739244	0.564600049	0.007956930	0.082090180	0.025300991
2020-07-24T03:25:00	0.2027	12.087	204.0	0.475433029	0.564182491	0.007947633	0.081994266	0.025271429
2020-07-24T03:30:00	0.2026	12.083	203.0	0.475126786	0.563764971	0.007938341	0.081898399	0.025241882
2020-07-24T03:35:00	0.2028	12.078	203.0	0.475858298	0.564762413	0.007960546	0.082127486	0.025312489
2020-07-24T03:40:00	0.2031	12.073	203.0	0.476589652	0.565760065	0.007982777	0.082356840	0.025383178
2020-07-24T03:45:00	0.2036	12.067	203.0	0.478357864	0.568173873	0.008036652	0.082912660	0.025554487
2020-07-24T03:50:00	0.2033	12.063	203.0	0.477360514	0.566812073	0.008006242	0.082598926	0.025457791
2020-07-24T03:55:00	0.2039	12.058	203.0	0.479473846	0.569698597	0.008070747	0.083264410	0.025662900
2020-07-24T04:00:00	0.2038	12.056	203.0	0.479167969	0.569280590	0.008061395	0.083167927	0.025633163
2020-07-24T04:05:00	0.2030	12.053	203.0	0.476347399	0.565429557	0.007975410	0.082280834	0.025359752
2020-07-24T04:10:00	0.2032	12.051	203.0	0.476983838	0.566297958	0.007994772	0.082480588	0.025421318
2020-07-24T04:15:00	0.2037	12.049	203.0	0.478657082	0.568582586	0.008045787	0.083006899	0.025583533
2020-07-24T04:20:00	0.2037	12.048	202.0	0.478947545	0.568979408	0.008054659	0.083098432	0.025611744
2020-07-24T04:25:00	0.2038	12.045	203.0	0.479237984	0.569376265	0.008063535	0.083190007	0.025639968
2020-07-24T04:30:00	0.2035	12.044	203.0	0.478146117	0.567884683	0.008030191	0.082846002	0.025533942
2020-07-24T04:35:00	0.2033	12.043	202.0	0.477399632	0.566865470	0.008007434	0.082611220	0.025461580
2020-07-24T04:40:00	0.2030	12.042	202.0	0.476307172	0.565374679	0.007974187	0.082268216	0.025355863
2020-07-24T04:45:00	0.2029	12.040	202.0	0.475906169	0.564827702	0.007962000	0.082142489	0.025317113
2020-07-24T04:50:00	0.2031	12.040	202.0	0.476888478	0.566167821	0.007991869	0.082450643	0.025412089
2020-07-24T04:55:00	0.2031	12.038	203.0	0.476833336	0.566092573	0.007990191	0.082433330	0.025406753
2020-07-24T05:00:00	0.2033	12.038	202.0	0.477469684	0.566961096	0.008009568	0.082633238	0.025468367
2020-07-24T05:05:00	0.2025	12.039	202.0	0.474647697	0.563111947	0.007923815	0.081748534	0.025195692
2020-07-24T05:10:00	0.2021	12.039	202.0	0.473208220	0.561150963	0.007880248	0.081299064	0.025057161
2020-07-24T05:15:00	0.2023	12.044	202.0	0.473845250	0.562018578	0.007899513	0.081497822	0.025118420
2020-07-24T05:20:00	0.2018	12.052	203.0	0.472405430	0.560058047	0.007856002	0.081048928	0.024980067
2020-07-24T05:25:00	0.2021	12.060	202.0	0.473388757	0.561396815	0.007885705	0.081355368	0.025074515
2020-07-24T05:30:00	0.2023	12.069	202.0	0.474025752	0.562264476	0.007904976	0.081554184	0.025135792
2020-07-24T05:35:00	0.2024	12.076	203.0	0.474316614	0.562660770	0.007913784	0.081645046	0.025163796
2020-07-24T05:40:00	0.2025	12.083	203.0	0.474607450	0.563057097	0.007922595	0.081735950	0.025191814
2020-07-24T05:45:00	0.2027	12.091	203.0	0.475244216	0.563925062	0.007941903	0.081935153	0.025253210
2020-07-24T05:50:00	0.2029	12.106	203.0	0.476226717	0.565264926	0.007971741	0.082242983	0.025348086
2020-07-24T05:55:00	0.2028	12.125	203.0	0.475825704	0.564717961	0.007959556	0.082117272	0.025309341
2020-07-24T06:00:00	0.2028	12.145	203.0	0.475770545	0.564642736	0.007957881	0.082099988	0.025304014
2020-07-24T06:05:00	0.2031	12.161	203.0	0.476752893	0.565982803	0.007987743	0.082408076	0.025398969
2020-07-24T06:10:00	0.2029	12.178	203.0	0.476006101	0.564963999	0.007965036	0.082173812	0.025326767
2020-07-24T06:15:00	0.2024	12.195	203.0	0.474221178	0.562530733	0.007910893	0.081615228	0.025154606
2020-07-24T06:20:00	0.2026	12.211	203.0	0.474858017	0.563398602	0.007930190	0.081814308	0.025215964
2020-07-24T06:25:00	0.2026	12.230	203.0	0.475148807	0.563794991	0.007939009	0.081905290	0.025244006
2020-07-24T06:30:00	0.2027	12.248	203.0	0.475439572	0.564191413	0.007947832	0.081996315	0.025272061
2020-07-24T06:35:00	0.2026	12.266	203.0	0.475038466	0.563644572	0.007935662	0.081870761	0.025233364
2020-07-24T06:40:00	0.2026	12.287	203.0	0.474983294	0.563569364	0.007933989	0.081853498	0.025228043
2020-07-24T06:45:00	0.2032	12.309	203.0	0.477003302	0.566324520	0.007995364	0.082486701	0.025423202
2020-07-24T06:50:00	0.2036	12.331	203.0	0.478330931	0.568137088	0.008035830	0.082904180	0.025551874
2020-07-24T06:55:00	0.2039	12.355	204.0	0.479658040	0.569950350	0.008076381	0.083322538	0.025680815
2020-07-24T07:00:00	0.2041	12.380	203.0	0.480293857	0.570819580	0.008095845	0.083523342	0.025742705
2020-07-24T07:05:00	0.2042	12.404	203.0	0.480584180	0.571216590	0.008104740	0.083615111	0.025770989
2020-07-24T07:10:00	0.2048	12.428	204.0	0.482600850	0.573976195	0.008166662	0.084253946	0.025967884
2020-07-24T07:15:00	0.2048	12.450	203.0	0.482545802	0.573900823	0.008164969	0.084236476	0.025962500
2020-07-24T07:20:00	0.2053	12.472	203.0	0.484216301	0.576189115	0.008216433	0.084767420	0.026126142
2020-07-24T07:25:00	0.2049	12.496	204.0	0.483126037	0.574695392	0.008182826	0.084420708	0.026019282
2020-07-24T07:30:00	0.2045	12.518	204.0	0.481690162	0.572729609	0.008138670	0.083965162	0.025878879
2020-07-24T07:35:00	0.2042	12.540	204.0	0.480599085	0.571236974	0.008105197	0.083619824	0.025772442
2020-07-24T07:40:00	0.2046	12.564	204.0	0.481925306	0.573051421	0.008145893	0.084039681	0.025901846
2020-07-24T07:45:00	0.2051	12.596	205.0	0.483596111	0.575339304	0.008197307	0.084570109	0.026065329
2020-07-24T07:50:00	0.2048	12.624	205.0	0.482505648	0.573845848	0.008163734	0.084223734	0.025958573
2020-07-24T07:55:00	0.2049	12.649	205.0	0.482795782	0.574243111	0.008172660	0.084315823	0.025986956
2020-07-24T08:00:00	0.2052	12.675	205.0	0.484121144	0.576058707	0.008213497	0.084737131	0.026116807
2020-07-24T08:05:00	0.2053	12.701	205.0	0.484411140	0.576456155	0.008222445	0.084829454	0.026145262
2020-07-24T08:10:00	0.2050	12.733	205.0	0.483320939	0.574962348	0.008188829	0.084482636	0.026038369
2020-07-24T08:15:00	0.2056	12.760	205.0	0.485335982	0.577724130	0.008251017	0.085124220	0.026236111
2020-07-24T08:20:00	0.2053	12.783	205.0	0.484246079	0.576229925	0.008217351	0.084776899	0.026129064
2020-07-24T08:25:00	0.2054	12.810	206.0	0.484536063	0.576627388	0.008226302	0.084869241	0.026157524
2020-07-24T08:30:00	0.2052	12.837	206.0	0.484136033	0.576079111	0.008213956	0.084741870	0.026118267
2020-07-24T08:35:00	0.2046	12.865	206.0	0.482010162	0.573167563	0.008148501	0.084066580	0.025910136
2020-07-24T08:40:00	0.2046	12.905	206.0	0.481955104	0.573092204	0.008146809	0.084049126	0.025904757
2020-07-24T08:45:00	0.2043	12.968	206.0	0.480864113	0.571599454	0.008113322	0.083703643	0.025798276
2020-07-24T08:50:00	0.2047	13.011	206.0	0.482190230	0.573414040	0.008154035	0.084123675	0.025927734
2020-07-24T08:55:00	0.2052	13.041	207.0	0.483860905	0.575702098	0.008205470	0.084654324	0.026091285
2020-07-24T09:00:00	0.2053	13.066	207.0	0.484495934	0.576572381	0.008225063	0.084856459	0.026153585
2020-07-24T09:05:00	0.2056	13.086	207.0	0.485475755	0.577915821	0.008255339	0.085168813	0.026249855
2020-07-24T09:10:00	0.2055	13.108	206.0	0.485075836	0.577367396	0.008242975	0.085041255	0.026210541
2020-07-24T09:15:00	0.2067	13.131	206.0	0.489157589	0.582970872	0.008369600	0.086347619	0.026613175
2020-07-24T09:20:00	0.2071	13.153	206.0	0.490480471	0.584789799	0.008410844	0.086773127	0.026744320
2020-07-24T09:25:00	0.2075	13.176	206.0	0.491802838	0.586609420	0.008452173	0.087199507	0.026875735
2020-07-24T09:30:00	0.2076	13.201	206.0	0.492436384	0.587481697	0.008472009	0.087404154	0.026938809
2020-07-24T09:35:00	0.2075	13.227	206.0	0.492037283	0.586932171	0.008459510	0.087275210	0.026899067
2020-07-24T09:40:00	0.2085	13.256	207.0	0.495422989	0.591598040	0.008565830	0.088372093	0.027237137
2020-07-24T09:45:00	0.2088	13.291	207.0	0.496399667	0.592945717	0.008596623	0.088689778	0.027335051
2020-07-24T09:50:00	0.2092	13.325	207.0	0.497719737	0.594768444	0.008638330	0.089120061	0.027467668
2020-07-24T09:55:00	0.2089	13.356	208.0	0.496633796	0.593268896	0.008604013	0.088766018	0.027358549
2020-07-24T10:00:00	0.2085	13.388	208.0	0.495203617	0.591295444	0.008558922	0.088300816	0.027215169
2020-07-24T10:05:00	0.2079	13.425	208.0	0.493380052	0.588781551	0.008501598	0.087709418	0.027032894
2020-07-24T10:10:00	0.2078	13.450	208.0	0.492932339	0.588164761	0.008487553	0.087564523	0.026988236
2020-07-24T10:15:00	0.2080	13.479	208.0	0.493516961	0.588970196	0.008505895	0.087753750	0.027046558
2020-07-24T10:20:00	0.2071	13.518	208.0	0.490659544	0.585036128	0.008416435	0.086830806	0.026762098
2020-07-24T10:25:00	0.2073	13.551	209.0	0.491244556	0.585841036	0.008434712	0.087019370	0.026820215
2020-07-24T10:30:00	0.2066	13.588	209.0	0.488729809	0.582382985	0.008356284	0.086210244	0.026570835
2020-07-24T10:35:00	0.2058	13.635	209.0	0.486213199	0.578927442	0.008278162	0.085404275	0.026322427
2020-07-24T10:40:00	0.2061	13.674	210.0	0.487143720	0.580204545	0.008307006	0.085701846	0.026414141
2020-07-24T10:45:00	0.2056	13.715	210.0	0.485315824	0.577696486	0.008250394	0.085117790	0.026234130
2020-07-24T10:50:00	0.2055	13.763	210.0	0.484867048	0.577081128	0.008236524	0.084974698	0.026190027
2020-07-24T10:55:00	0.2059	13.813	210.0	0.486487591	0.579303961	0.008286662	0.085491969	0.026349455
2020-07-24T11:00:00	0.2058	13.859	210.0	0.486038969	0.578688395	0.008272767	0.085348615	0.026305272
2020-07-24T11:05:00	0.2062	13.901	210.0	0.487314262	0.580438682	0.008312297	0.085756439	0.026430968
2020-07-24T11:10:00	0.2062	13.930	210.0	0.487555186	0.580769486	0.008319776	0.085833592	0.026454747
2020-07-24T11:15:00	0.2062	13.956	211.0	0.487451416	0.580626998	0.008316554	0.085800357	0.026444503
2020-07-24T11:20:00	0.2055	14.098	211.0	0.484933859	0.577172728	0.008238588	0.084995993	0.026196591
2020-07-24T11:25:00	0.2059	14.071	212.0	0.486554369	0.579395603	0.008288732	0.085513318	0.026356035
2020-07-24T11:30:00	0.2051	14.079	211.0	0.483691087	0.575469424	0.008200235	0.084600310	0.026074637
2020-07-24T11:35:00	0.2056	14.114	212.0	0.485312191	0.577691504	0.008250281	0.085116631	0.026233772
2020-07-24T11:40:00	0.2055	14.151	212.0	0.485208353	0.577549108	0.008247071	0.085083512	0.026223565
2020-07-24T11:45:00	0.2051	14.204	212.0	0.483724504	0.575515208	0.008201265	0.084610938	0.026077913
2020-07-24T11:50:00	0.2046	14.253	212.0	0.481894765	0.573009621	0.008144955	0.084030000	0.025898862
2020-07-24T11:55:00	0.2040	14.308	212.0	0.479718575	0.570033094	0.008078233	0.083341646	0.025686705
2020-07-24T12:00:00	0.2037	14.349	213.0	0.478923514	0.568946575	0.008053925	0.083090857	0.025609409
2020-07-24T12:05:00	0.2023	14.383	213.0	0.473978011	0.562199436	0.007903531	0.081539275	0.025131197
2020-07-24T12:10:00	0.2014	14.420	212.0	0.470757691	0.557816424	0.007806354	0.080536711	0.024822197
2020-07-24T12:15:00	0.1999	14.454	213.0	0.465800212	0.551085156	0.007657914	0.079005285	0.024350196
2020-07-24T12:20:00	0.1997	14.492	213.0	0.465001867	0.550002986	0.007634141	0.078760021	0.024274603
2020-07-24T12:25:00	0.1990	14.534	213.0	0.462467533	0.546570999	0.007558914	0.077983920	0.024035402
2020-07-24T12:30:00	0.1986	14.586	214.0	0.461321049	0.545020104	0.007525003	0.077634069	0.023927574
2020-07-24T12:35:00	0.1991	14.629	214.0	0.462952916	0.547227909	0.007573293	0.078132268	0.024081124
2020-07-24T12:40:00	0.1994	14.663	214.0	0.463889859	0.548496481	0.007601088	0.078419020	0.024169504
2020-07-24T12:45:00	0.1989	14.693	214.0	0.462049345	0.546005178	0.007546536	0.077856220	0.023996043
2020-07-24T12:50:00	0.1987	14.739	214.0	0.461597468	0.545393932	0.007533172	0.077718348	0.023953550
2020-07-24T12:55:00	0.1990	14.772	215.0	0.462534788	0.546662009	0.007560905	0.078004467	0.024041734
2020-07-24T13:00:00	0.1985	14.788	215.0	0.460693532	0.544171679	0.007506474	0.077442909	0.023868657
2020-07-24T13:05:00	0.1991	14.808	215.0	0.463020161	0.547318932	0.007575286	0.078152832	0.024087462
2020-07-24T13:10:00	0.1987	14.831	215.0	0.461526536	0.545297999	0.007531075	0.077696717	0.023946883
2020-07-24T13:15:00	0.1984	14.852	215.0	0.460379730	0.543747524	0.007497217	0.077347403	0.023839221
2020-07-24T13:20:00	0.1979	14.871	215.0	0.458884932	0.541728128	0.007453196	0.076893252	0.023699247
2020-07-24T13:25:00	0.1979	14.885	215.0	0.458780279	0.541586812	0.007450119	0.076861506	0.023689462
2020-07-24T13:30:00	0.1980	14.896	215.0	0.459023245	0.541914907	0.007457264	0.076935219	0.023712182
2020-07-24T13:35:00	0.1977	14.905	215.0	0.457875586	0.540365551	0.007423544	0.076587335	0.023604960
2020-07-24T13:40:00	0.1977	14.915	215.0	0.458118617	0.540693560	0.007430678	0.076660939	0.023627646
2020-07-24T13:45:00	0.1976	14.924	215.0	0.457666212	0.540083006	0.007417400	0.076523952	0.023585425
2020-07-24T13:50:00	0.1976	14.927	215.0	0.457561521	0.539941741	0.007414329	0.076492269	0.023575660
2020-07-24T13:55:00	0.1975	14.930	215.0	0.457456826	0.539800479	0.007411259	0.076460591	0.023565897
2020-07-24T14:00:00	0.1973	14.932	215.0	0.456656499	0.538720908	0.007387807	0.076218648	0.023491327
2020-07-24T14:05:00	0.1969	14.937	215.0	0.455160044	0.536703678	0.007344056	0.075767270	0.023352208
2020-07-24T14:10:00	0.1961	14.944	216.0	0.452618279	0.533281413	0.007270035	0.075003607	0.023116840
2020-07-24T14:15:00	0.1956	14.950	215.0	0.450771579	0.530798190	0.007216486	0.074451153	0.022946569
2020-07-24T14:20:00	0.1945	14.938	215.0	0.446831293	0.525508741	0.007102877	0.073279075	0.022585323
2020-07-24T14:25:00	0.1942	14.931	216.0	0.445679455	0.523964819	0.007069833	0.072938168	0.022480252
2020-07-24T14:30:00	0.1937	14.927	216.0	0.444178091	0.521953960	0.007026876	0.072494979	0.022343657
2020-07-24T14:35:00	0.1933	14.933	216.0	0.442676054	0.519943970	0.006984026	0.072052913	0.022207408
2020-07-24T14:40:00	0.1936	14.939	216.0	0.443618674	0.521205154	0.007010902	0.072330182	0.022292865
2020-07-24T14:45:00	0.1932	14.934	216.0	0.442465729	0.519662660	0.006978037	0.071991118	0.022188362
2020-07-24T14:50:00	0.1937	14.930	216.0	0.444106790	0.521858506	0.007024839	0.072473965	0.022337180
2020-07-24T14:55:00	0.1928	14.930	216.0	0.440908025	0.517513092	0.006932853	0.071524965	0.022044689
2020-07-24T15:00:00	0.1926	14.932	216.0	0.440554721	0.516905709	0.006921016	0.071402850	0.022007052
2020-07-24T15:05:00	0.1917	14.928	216.0	0.438026836	0.512570077	0.006836687	0.070532840	0.021738906
2020-07-24T15:10:00	0.1919	14.921	216.0	0.438488868	0.513361184	0.006852053	0.070691368	0.021787766
2020-07-24T15:15:00	0.1911	14.914	217.0	0.436230166	0.509499429	0.006777135	0.069918453	0.021549546
2020-07-24T15:20:00	0.1907	14.908	217.0	0.435331105	0.507966249	0.006747455	0.069612244	0.021455170
2020-07-24T15:25:00	0.1907	14.905	216.0	0.435249087	0.507826496	0.006744751	0.069584351	0.021446573
2020-07-24T15:30:00	0.1906	14.905	217.0	0.434894587	0.507222663	0.006733073	0.069463868	0.021409439
2020-07-24T15:35:00	0.1903	14.910	217.0	0.434267430	0.506155264	0.006712442	0.069251031	0.021343840
2020-07-24T15:40:00	0.1902	14.915	217.0	0.433912720	0.505552046	0.006700791	0.069130830	0.021306793
2020-07-24T15:45:00	0.1909	14.919	217.0	0.435738264	0.508660303	0.006760886	0.069750816	0.021497879
2020-07-24T15:50:00	0.1906	14.923	217.0	0.435111425	0.507591970	0.006740214	0.069537549	0.021432148
2020-07-24T15:55:00	0.1906	14.930	217.0	0.435029396	0.507452248	0.006737512	0.069509670	0.021423555
2020-07-24T16:00:00	0.1905	14.933	218.0	0.434674849	0.506848553	0.006725840	0.069389251	0.021386441
2020-07-24T16:05:00	0.1906	14.933	217.0	0.434879957	0.507197751	0.006732591	0.069458899	0.021407907
2020-07-24T16:10:00	0.1906	14.931	217.0	0.435085039	0.507547024	0.006739345	0.069528581	0.021429384
2020-07-24T16:15:00	0.1902	14.931	218.0	0.433927358	0.505576933	0.006701272	0.069135788	0.021308321
2020-07-24T16:20:00	0.1895	14.927	218.0	0.431950118	0.502220791	0.006636550	0.068468067	0.021102523
2020-07-24T16:25:00	0.1887	14.922	218.0	0.429697177	0.498409947	0.006563271	0.067712058	0.020869514
2020-07-24T16:30:00	0.1885	14.916	218.0	0.429356164	0.497834355	0.006552223	0.067598072	0.020834382
2020-07-24T16:35:00	0.1884	14.911	218.0	0.429015081	0.497258968	0.006541183	0.067484180	0.020799280
2020-07-24T16:40:00	0.1883	14.904	218.0	0.428673927	0.496683784	0.006530153	0.067370381	0.020764206
2020-07-24T16:45:00	0.1884	14.895	218.0	0.428879781	0.497030813	0.006536807	0.067439034	0.020785365
2020-07-24T16:50:00	0.1874	14.887	218.0	0.426348736	0.492772136	0.006455275	0.066597886	0.020526115
2020-07-24T16:55:00	0.1869	14.878	218.0	0.424910767	0.490360562	0.006409232	0.066122866	0.020379710
2020-07-24T17:00:00	0.1863	14.868	217.0	0.423197107	0.487494120	0.006354623	0.065559478	0.020206068
2020-07-24T17:05:00	0.1859	14.855	217.0	0.422031018	0.485548250	0.006317627	0.065177788	0.020088427
2020-07-24T17:10:00	0.1855	14.843	217.0	0.421138907	0.484062111	0.006289411	0.064886694	0.019998709
2020-07-24T17:15:00	0.1855	14.831	217.0	0.421070930	0.483948962	0.006287264	0.064864546	0.019991883
2020-07-24T17:20:00	0.1860	14.819	217.0	0.422376454	0.486124292	0.006328573	0.065290717	0.020123233
2020-07-24T17:25:00	0.1857	14.808	217.0	0.421484533	0.484637618	0.006300333	0.064999377	0.020033439
2020-07-24T17:30:00	0.1849	14.797	217.0	0.419492200	0.481324695	0.006237531	0.064351457	0.019833744
2020-07-24T17:35:00	0.1846	14.787	217.0	0.418598687	0.479842490	0.006209490	0.064062162	0.019744580
2020-07-24T17:40:00	0.1843	14.778	217.0	0.417704678	0.478361669	0.006181510	0.063773499	0.019655612
2020-07-24T17:45:00	0.1837	14.768	217.0	0.415983361	0.475516719	0.006127854	0.063219940	0.019484999
2020-07-24T17:50:00	0.1832	14.758	217.0	0.414812042	0.473585460	0.006091505	0.062844929	0.019369418
2020-07-24T17:55:00	0.1833	14.748	217.0	0.415019663	0.473927506	0.006097938	0.062911302	0.019389874
2020-07-24T18:00:00	0.1828	14.737	217.0	0.413571571	0.471544301	0.006053152	0.062449255	0.019247467
2020-07-24T18:05:00	0.1823	14.726	216.0	0.412122164	0.469164707	0.006008526	0.061988857	0.019105568
2020-07-24T18:10:00	0.1818	14.716	216.0	0.410948006	0.467241242	0.005972522	0.061617404	0.018991082
2020-07-24T18:15:00	0.1813	14.706	217.0	0.409496204	0.464868183	0.005928185	0.061159988	0.018850102
2020-07-24T18:20:00	0.1815	14.696	216.0	0.409981257	0.465660389	0.005942975	0.061312583	0.018897133
2020-07-24T18:25:00	0.1815	14.687	216.0	0.409912806	0.465548552	0.005940887	0.061291034	0.018890492
2020-07-24T18:30:00	0.1806	14.679	216.0	0.407628893	0.461824451	0.005871452	0.060574691	0.018669708
2020-07-24T18:35:00	0.1808	14.667	216.0	0.408114519	0.462615107	0.005886175	0.060726580	0.018716522
2020-07-24T18:40:00	0.1804	14.657	216.0	0.406937384	0.460699711	0.005850527	0.060358807	0.018603170
2020-07-24T18:45:00	0.1809	14.648	216.0	0.408254493	0.462843120	0.005890422	0.060770402	0.018730028
2020-07-24T18:50:00	0.1822	14.640	216.0	0.412059627	0.469062165	0.006006605	0.061969039	0.019099460
2020-07-24T18:55:00	0.1885	14.632	216.0	0.429308690	0.497754249	0.006550685	0.067582213	0.020829494
2020-07-24T19:00:00	0.1882	14.625	216.0	0.428420548	0.496256798	0.006521968	0.067285938	0.020738180
2020-07-24T19:05:00	0.1891	14.619	215.0	0.430813265	0.500296041	0.006599511	0.068085938	0.020984747
2020-07-24T19:10:00	0.1897	14.614	216.0	0.432656871	0.503419173	0.006659641	0.068706285	0.021175944
2020-07-24T19:15:00	0.1906	14.602	215.0	0.435043469	0.507476217	0.006737976	0.069514453	0.021425029
2020-07-24T19:20:00	0.1912	14.585	215.0	0.436610189	0.510148166	0.006789705	0.070048131	0.021589514
2020-07-24T19:25:00	0.1921	14.567	215.0	0.438991138	0.514221863	0.006868781	0.070863949	0.021840957
2020-07-24T19:30:00	0.1922	14.548	215.0	0.439467495	0.515038791	0.006884669	0.071027864	0.021891478
2020-07-24T19:35:00	0.1932	14.530	215.0	0.442412433	0.519591383	0.006976519	0.071975463	0.022183537
2020-07-24T19:40:00	0.1928	14.513	215.0	0.440962919	0.517607495	0.006934693	0.071543950	0.022050540
2020-07-24T19:45:00	0.1942	14.506	215.0	0.445731276	0.524034257	0.007071318	0.072953488	0.022484974
2020-07-24T19:50:00	0.1949	14.504	215.0	0.448435737	0.527661075	0.007149031	0.073755234	0.022732080
2020-07-24T19:55:00	0.1961	14.495	214.0	0.452531417	0.533164552	0.007267512	0.074977577	0.023108817
2020-07-24T20:00:00	0.1962	14.481	214.0	0.452793533	0.533517213	0.007275127	0.075056140	0.023133031
2020-07-24T20:05:00	0.1967	14.465	214.0	0.454448232	0.535744770	0.007323289	0.075553026	0.023286176
2020-07-24T20:10:00	0.1972	14.449	214.0	0.456450005	0.538442447	0.007381763	0.076156284	0.023472106
2020-07-24T20:15:00	0.1965	14.432	214.0	0.453927906	0.535044075	0.007308128	0.075396605	0.023237966
2020-07-24T20:20:00	0.1958	14.418	214.0	0.451403911	0.531648172	0.007234800	0.074640095	0.023004802
2020-07-24T20:25:00	0.1956	14.403	214.0	0.450620849	0.530595624	0.007212124	0.074406149	0.022932698
2020-07-24T20:30:00	0.1960	14.387	214.0	0.452276619	0.532821787	0.007260113	0.074901247	0.023085292
2020-07-24T20:35:00	0.1963	14.370	214.0	0.453235236	0.534111624	0.007287968	0.075188621	0.023173863
2020-07-24T20:40:00	0.1966	14.354	214.0	0.454193579	0.535401816	0.007315867	0.075476452	0.023262576
2020-07-24T20:45:00	0.1967	14.339	213.0	0.454455565	0.535754647	0.007323503	0.075555232	0.023286856
2020-07-24T20:50:00	0.1966	14.324	213.0	0.454369461	0.535638680	0.007320993	0.075529336	0.023278875
2020-07-24T20:55:00	0.1967	14.309	213.0	0.454631432	0.535991528	0.007328631	0.075608138	0.023303162
2020-07-24T21:00:00	0.1962	14.294	213.0	0.452804537	0.533532021	0.007275446	0.075059439	0.023134048
2020-07-24T21:05:00	0.1960	14.280	213.0	0.452021802	0.532479048	0.007252717	0.074824948	0.023061776
2020-07-24T21:10:00	0.1958	14.266	212.0	0.451238884	0.531426312	0.007230018	0.074590762	0.022989597
2020-07-24T21:15:00	0.1952	14.253	212.0	0.449410140	0.528969209	0.007177132	0.074045150	0.022821434
2020-07-24T21:20:00	0.1942	14.240	211.0	0.445835981	0.524174566	0.007074319	0.072984449	0.022494516
2020-07-24T21:25:00	0.1936	14.227	211.0	0.443655101	0.521253906	0.007011941	0.072340908	0.022296170
2020-07-24T21:30:00	0.1925	14.215	211.0	0.440028089	0.516000995	0.006903396	0.071221063	0.021951023
2020-07-24T21:35:00	0.1917	14.204	211.0	0.438058073	0.512623544	0.006837725	0.070543551	0.021742208
2020-07-24T21:40:00	0.1912	14.191	211.0	0.436630261	0.510182442	0.006790369	0.070054984	0.021591627
2020-07-24T21:45:00	0.1914	14.179	211.0	0.437107289	0.510997374	0.006806168	0.070217982	0.021641864
2020-07-24T21:50:00	0.1913	14.167	211.0	0.436767797	0.510417337	0.006794922	0.070101956	0.021606104
2020-07-24T21:55:00	0.1907	14.156	211.0	0.435338880	0.507979500	0.006747711	0.069614889	0.021455985
2020-07-24T22:00:00	0.1904	14.145	211.0	0.434453972	0.506472637	0.006718575	0.069314296	0.021363339
2020-07-24T22:05:00	0.1902	14.133	211.0	0.433990820	0.505684833	0.006703356	0.069157285	0.021314947
2020-07-24T22:10:00	0.1905	14.121	211.0	0.434618081	0.506751926	0.006723972	0.069369982	0.021380502
2020-07-24T22:15:00	0.1908	14.109	211.0	0.435517527	0.508283973	0.006753602	0.069675670	0.021474718
2020-07-24T22:20:00	0.1895	14.098	211.0	0.432054745	0.502398111	0.006639966	0.068503300	0.021113382
2020-07-24T22:25:00	0.1893	14.087	211.0	0.431317856	0.501149896	0.006615935	0.068255384	0.021036972
2020-07-24T22:30:00	0.1892	14.076	211.0	0.431126970	0.500826801	0.006609719	0.068191253	0.021017206
2020-07-24T22:35:00	0.1893	14.065	211.0	0.431482277	0.501428277	0.006621292	0.068310654	0.021054007
2020-07-24T22:40:00	0.1894	14.053	211.0	0.431837507	0.502029974	0.006632876	0.068430157	0.021090839
2020-07-24T22:45:00	0.1900	14.041	211.0	0.433284080	0.504483846	0.006680173	0.068918116	0.021241233
2020-07-24T22:50:00	0.1897	14.028	210.0	0.432547738	0.503234036	0.006656072	0.068669468	0.021164597
2020-07-24T22:55:00	0.1894	14.015	211.0	0.431811069	0.501985181	0.006632013	0.068421258	0.021088096
2020-07-24T23:00:00	0.1899	14.003	210.0	0.432984874	0.503975813	0.006670373	0.068817014	0.021210072
2020-07-24T23:05:00	0.1902	13.991	211.0	0.433885204	0.505505266	0.006699888	0.069121511	0.021303921
2020-07-24T23:10:00	0.1903	13.978	211.0	0.434239919	0.506108467	0.006711538	0.069241704	0.021340966
2020-07-24T23:15:00	0.1904	13.966	211.0	0.434321987	0.506248074	0.006714235	0.069269530	0.021349542
2020-07-24T23:20:00	0.1903	13.952	211.0	0.434131447	0.505923970	0.006707974	0.069204935	0.021329633
2020-07-24T23:25:00	0.1904	13.939	210.0	0.434486110	0.506527325	0.006719631	0.069325198	0.021366699
2020-07-24T23:30:00	0.1907	13.926	210.0	0.435385627	0.508059162	0.006749252	0.069630790	0.021460886
2020-07-24T23:35:00	0.1908	13.914	210.0	0.435467638	0.508198935	0.006751957	0.069658693	0.021469486
2020-07-24T23:40:00	0.1906	13.902	210.0	0.435004768	0.507410302	0.006736701	0.069501302	0.021420976
2020-07-24T23:45:00	0.1906	13.889	210.0	0.435086798	0.507550020	0.006739403	0.069529179	0.021429568
2020-07-24T23:50:00	0.1903	13.877	210.0	0.434078644	0.505834171	0.006706240	0.069187041	0.021324118
2020-07-24T23:55:00	0.1906	13.864	210.0	0.434978381	0.507365361	0.006735832	0.069492336	0.021418213
2020-07-25T00:00:00	0.1906	13.851	210.0	0.435060412	0.507505076	0.006738534	0.069520211	0.021426804
2020-07-25T00:05:00	0.1904	13.837	210.0	0.434324858	0.506252959	0.006714330	0.069270504	0.021349842
2020-07-25T00:10:00	0.1908	13.822	210.0	0.435496887	0.508248790	0.006752921	0.069668646	0.021472553
2020-07-25T00:15:00	0.1913	13.808	210.0	0.436940280	0.510711991	0.006800634	0.070160890	0.021624268
2020-07-25T00:20:00	0.1907	13.795	210.0	0.435388496	0.508064052	0.006749347	0.069631767	0.021461187
2020-07-25T00:25:00	0.1909	13.779	210.0	0.435742891	0.508668194	0.006761039	0.069752391	0.021498364
2020-07-25T00:30:00	0.1910	13.764	210.0	0.436097211	0.509272558	0.006772741	0.069873118	0.021535574
2020-07-25T00:35:00	0.1912	13.749	210.0	0.436723680	0.510341984	0.006793461	0.070086887	0.021601459
2020-07-25T00:40:00	0.1915	13.733	210.0	0.437349913	0.511412105	0.006814213	0.070300974	0.021667443
2020-07-25T00:45:00	0.1916	13.716	210.0	0.437703892	0.512017476	0.006825959	0.070422164	0.021704795
2020-07-25T00:50:00	0.1917	13.700	210.0	0.438057796	0.512623069	0.006837716	0.070543456	0.021742178
2020-07-25T00:55:00	0.1921	13.685	210.0	0.438955392	0.514160586	0.006867590	0.070851658	0.021837169
2020-07-25T01:00:00	0.1913	13.670	210.0	0.436861208	0.510576902	0.006798015	0.070133869	0.021615940
2020-07-25T01:05:00	0.1910	13.653	210.0	0.436126449	0.509322445	0.006773707	0.069883086	0.021538646
2020-07-25T01:10:00	0.1909	13.637	210.0	0.435936115	0.508997733	0.006767419	0.069818213	0.021518651
2020-07-25T01:15:00	0.1912	13.622	210.0	0.436562644	0.510066981	0.006788131	0.070031899	0.021584511
2020-07-25T01:20:00	0.1919	13.605	210.0	0.438549016	0.513464214	0.006854055	0.070712022	0.021794132
2020-07-25T01:25:00	0.1916	13.589	210.0	0.437814998	0.512207560	0.006829649	0.070460229	0.021716527
2020-07-25T01:30:00	0.1924	13.573	210.0	0.439799885	0.515609200	0.006895769	0.071142378	0.021926772
2020-07-25T01:35:00	0.1919	13.557	210.0	0.438522684	0.513419108	0.006853179	0.070702979	0.021791345
2020-07-25T01:40:00	0.1921	13.540	210.0	0.439148245	0.514491224	0.006874019	0.070917985	0.021857612
2020-07-25T01:45:00	0.1918	13.524	210.0	0.438142541	0.512768134	0.006840533	0.070572519	0.021751136
2020-07-25T01:50:00	0.1914	13.508	210.0	0.437136232	0.511046839	0.006807127	0.070227879	0.021644914
2020-07-25T01:55:00	0.1918	13.492	210.0	0.438306289	0.513048493	0.006845978	0.070628697	0.021768450
2020-07-25T02:00:00	0.1918	13.475	210.0	0.438388156	0.513188690	0.006848702	0.070656794	0.021777110
2020-07-25T02:05:00	0.1913	13.458	210.0	0.436837717	0.510536773	0.006797237	0.070125843	0.021613466
2020-07-25T02:10:00	0.1910	13.443	210.0	0.436102948	0.509282345	0.006772930	0.069875074	0.021536176
2020-07-25T02:15:00	0.1902	13.424	210.0	0.434005180	0.505709249	0.006703827	0.069162150	0.021316446
2020-07-25T02:20:00	0.1904	13.405	210.0	0.434359870	0.506312525	0.006715481	0.069282377	0.021353501
2020-07-25T02:25:00	0.1901	13.388	209.0	0.433624005	0.505061318	0.006691317	0.069033087	0.021276668
2020-07-25T02:30:00	0.1902	13.373	209.0	0.433978777	0.505664355	0.006702960	0.069153205	0.021313689
2020-07-25T02:35:00	0.1895	13.356	209.0	0.431878323	0.502099131	0.006634207	0.068443895	0.021095073
2020-07-25T02:40:00	0.1895	13.337	209.0	0.431960507	0.502238397	0.006636889	0.068471565	0.021103601
2020-07-25T02:45:00	0.1887	13.321	209.0	0.429857487	0.498680644	0.006568469	0.067765683	0.020886042
2020-07-25T02:50:00	0.1884	13.305	209.0	0.429119616	0.497435277	0.006544565	0.067519073	0.020810034
2020-07-25T02:55:00	0.1887	13.288	209.0	0.429748727	0.498496985	0.006564942	0.067729299	0.020874828
2020-07-25T03:00:00	0.1889	13.270	209.0	0.430377598	0.499559388	0.006585350	0.067939843	0.020939720
2020-07-25T03:05:00	0.1884	13.254	209.0	0.429093134	0.497390610	0.006543708	0.067510233	0.020807309
2020-07-25T03:10:00	0.1883	13.238	209.0	0.428628478	0.496607182	0.006528684	0.067355230	0.020759536
2020-07-25T03:15:00	0.1884	13.222	209.0	0.428984324	0.497207097	0.006540188	0.067473915	0.020796116
2020-07-25T03:20:00	0.1875	13.205	209.0	0.426603645	0.493200235	0.006463458	0.066682309	0.020552135
2020-07-25T03:25:00	0.1869	13.187	209.0	0.424767953	0.490121366	0.006404670	0.066075802	0.020365204
2020-07-25T03:30:00	0.1872	13.173	209.0	0.425672788	0.491637811	0.006433607	0.066374335	0.020457215
2020-07-25T03:35:00	0.1868	13.159	208.0	0.424658855	0.489938678	0.006401187	0.066039863	0.020354127
2020-07-25T03:40:00	0.1871	13.142	209.0	0.425289680	0.490995469	0.006421345	0.066247835	0.020418226
2020-07-25T03:45:00	0.1876	13.127	208.0	0.426742018	0.493432696	0.006467903	0.066728164	0.020566268
2020-07-25T03:50:00	0.1880	13.112	208.0	0.427919438	0.495412869	0.006505798	0.067119123	0.020686766
2020-07-25T03:55:00	0.1892	13.098	208.0	0.431282223	0.501089576	0.006614775	0.068243410	0.021033282
2020-07-25T04:00:00	0.1894	13.085	209.0	0.431637497	0.501691149	0.006626352	0.068362855	0.021070096
2020-07-25T04:05:00	0.1898	13.072	208.0	0.432883797	0.503804249	0.006667065	0.068782880	0.021199552
2020-07-25T04:10:00	0.1905	13.060	208.0	0.434674325	0.506847660	0.006725823	0.069389073	0.021386386
2020-07-25T04:15:00	0.1908	13.047	208.0	0.435645993	0.508502976	0.006757841	0.069719398	0.021488195
2020-07-25T04:20:00	0.1909	13.035	208.0	0.435800238	0.508765986	0.006762932	0.069771922	0.021504384
2020-07-25T04:25:00	0.1916	13.024	208.0	0.437587633	0.511818612	0.006822100	0.070382347	0.021692523
2020-07-25T04:30:00	0.1923	13.011	209.0	0.439644870	0.515343143	0.006890591	0.071088959	0.021910308
2020-07-25T04:35:00	0.1932	13.003	208.0	0.442226031	0.519342106	0.006971213	0.071920724	0.022166666
2020-07-25T04:40:00	0.1934	12.995	208.0	0.443122456	0.520541149	0.006996748	0.072184156	0.022247858
2020-07-25T04:45:00	0.1940	12.989	208.0	0.445065968	0.523142928	0.007052264	0.072756913	0.022424387
2020-07-25T04:50:00	0.1946	12.985	208.0	0.447357185	0.526213993	0.007117989	0.073434980	0.022633374
2020-07-25T04:55:00	0.1955	12.982	208.0	0.450343919	0.530223507	0.007204113	0.074323501	0.022907225
2020-07-25T05:00:00	0.1957	12.979	208.0	0.450889744	0.530957003	0.007219906	0.074486443	0.022957445
2020-07-25T05:05:00	0.1961	12.978	208.0	0.452480491	0.533096039	0.007266033	0.074962318	0.023104114
2020-07-25T05:10:00	0.1968	12.979	208.0	0.454766648	0.536173671	0.007332575	0.075648827	0.023315703
2020-07-25T05:15:00	0.1970	12.981	208.0	0.455659725	0.537377053	0.007358651	0.075917843	0.023398616
2020-07-25T05:20:00	0.1972	12.985	208.0	0.456204685	0.538111674	0.007374584	0.076082228	0.023449281
2020-07-25T05:25:00	0.1983	12.989	209.0	0.460226164	0.543539982	0.007492688	0.077300685	0.023824822
2020-07-25T05:30:00	0.1981	12.993	208.0	0.459380398	0.542397282	0.007467773	0.077043639	0.023745598
2020-07-25T05:35:00	0.1989	12.997	208.0	0.462356462	0.546420703	0.007555625	0.077949993	0.024024945
2020-07-25T05:40:00	0.1992	12.998	208.0	0.463247525	0.547626720	0.007582027	0.078222378	0.024108897
2020-07-25T05:45:00	0.1998	12.997	208.0	0.465179425	0.550243624	0.007639425	0.078814537	0.024291406
2020-07-25T05:50:00	0.1998	13.001	208.0	0.465375914	0.550509949	0.007645274	0.078874887	0.024310006
2020-07-25T05:55:00	0.2001	13.007	208.0	0.466266179	0.551717016	0.007671806	0.079148611	0.024394371
2020-07-25T06:00:00	0.2002	13.009	208.0	0.466809425	0.552453884	0.007688018	0.079315869	0.024445921
2020-07-25T06:05:00	0.2007	13.010	208.0	0.468392662	0.554602753	0.007735363	0.079804318	0.024596466
2020-07-25T06:10:00	0.2007	13.019	208.0	0.468588964	0.554869325	0.007741243	0.079864982	0.024615163
2020-07-25T06:15:00	0.2010	13.021	208.0	0.469478382	0.556077509	0.007767913	0.080140130	0.024699966
2020-07-25T06:20:00	0.2017	13.022	207.0	0.471753028	0.559170246	0.007836326	0.080845931	0.024917501
2020-07-25T06:25:00	0.2014	13.030	207.0	0.470910151	0.558023743	0.007810941	0.080584038	0.024836783
2020-07-25T06:30:00	0.2014	13.039	207.0	0.470759928	0.557819465	0.007806421	0.080537406	0.024822411
2020-07-25T06:35:00	0.2019	13.043	207.0	0.472687530	0.560442039	0.007864518	0.081136782	0.025007144
2020-07-25T06:40:00	0.2020	13.051	207.0	0.472883582	0.560708940	0.007870439	0.081197866	0.025025971
2020-07-25T06:45:00	0.2018	13.063	207.0	0.472387235	0.560033281	0.007855453	0.081043263	0.024978321
2020-07-25T06:50:00	0.2012	13.074	207.0	0.470158967	0.557002440	0.007788352	0.080350989	0.024764955
2020-07-25T06:55:00	0.2007	13.085	207.0	0.468275897	0.554444203	0.007731867	0.079768243	0.024585347
2020-07-25T07:00:00	0.1999	13.098	207.0	0.465698013	0.550946595	0.007654868	0.078973867	0.024340513
2020-07-25T07:05:00	0.1993	13.112	207.0	0.463465320	0.547921591	0.007588487	0.078289026	0.024129438
2020-07-25T07:10:00	0.1991	13.129	207.0	0.462967584	0.547247764	0.007573728	0.078136754	0.024082506
2020-07-25T07:15:00	0.1989	13.147	207.0	0.462122508	0.546104160	0.007548701	0.077878554	0.024002927
2020-07-25T07:20:00	0.1984	13.184	207.0	0.460582402	0.544021460	0.007503195	0.077409080	0.023858230
2020-07-25T07:25:00	0.1990	13.269	208.0	0.462515831	0.546636356	0.007560344	0.077998675	0.024039949
2020-07-25T07:30:00	0.1988	13.263	208.0	0.462017955	0.545962713	0.007545607	0.077846638	0.023993090
2020-07-25T07:35:00	0.2003	13.338	208.0	0.467072983	0.552811464	0.007695890	0.079397078	0.024470950
2020-07-25T07:40:00	0.2003	13.386	208.0	0.466922588	0.552607411	0.007691398	0.079350732	0.024456666
2020-07-25T07:45:00	0.2007	13.401	208.0	0.468505773	0.554756350	0.007738751	0.079839270	0.024607238
2020-07-25T07:50:00	0.2004	13.346	208.0	0.467315351	0.553140343	0.007703132	0.079471793	0.024493978
2020-07-25T07:55:00	0.2002	13.353	208.0	0.466818184	0.552465768	0.007688280	0.079318567	0.024446753
2020-07-25T08:00:00	0.2009	13.391	208.0	0.469094624	0.555556136	0.007756401	0.080021354	0.024663359
2020-07-25T08:05:00	0.2002	13.388	208.0	0.466864181	0.552528169	0.007689653	0.079332737	0.024451120
2020-07-25T08:10:00	0.2004	13.425	208.0	0.467407330	0.553265165	0.007705881	0.079500157	0.024502720
2020-07-25T08:15:00	0.2003	13.457	208.0	0.466910176	0.552590571	0.007691027	0.079346908	0.024455488
2020-07-25T08:20:00	0.1998	13.524	209.0	0.465372259	0.550504995	0.007645166	0.078873765	0.024309660
2020-07-25T08:25:00	0.2000	13.475	208.0	0.465915649	0.551241674	0.007661354	0.079040781	0.024361136
2020-07-25T08:30:00	0.1999	13.506	209.0	0.465765203	0.551037690	0.007656871	0.078994522	0.024346879
2020-07-25T08:35:00	0.2001	13.521	208.0	0.466308529	0.551774452	0.007673070	0.079161644	0.024398388
2020-07-25T08:40:00	0.1995	13.546	208.0	0.464423307	0.549219053	0.007616935	0.078582513	0.024219894
2020-07-25T08:45:00	0.2001	13.581	208.0	0.466354533	0.551836844	0.007674442	0.079175802	0.024402751
2020-07-25T08:50:00	0.2004	13.617	209.0	0.467244540	0.553044251	0.007701016	0.079449960	0.024487249
2020-07-25T08:55:00	0.2001	13.658	209.0	0.466400535	0.551899237	0.007675814	0.079189962	0.024407115
2020-07-25T09:00:00	0.2007	13.703	209.0	0.468330629	0.554518520	0.007733506	0.079785152	0.024590559
2020-07-25T09:05:00	0.2005	13.768	210.0	0.467833611	0.553843747	0.007718629	0.079631675	0.024543255
2020-07-25T09:10:00	0.2007	13.795	210.0	0.468376604	0.554580948	0.007734882	0.079799356	0.024594937
2020-07-25T09:15:00	0.2012	14.034	210.0	0.470305568	0.557201722	0.007792758	0.080396444	0.024778965
2020-07-25T09:20:00	0.2013	13.973	210.0	0.470501758	0.557468440	0.007798656	0.080457296	0.024797720
2020-07-25T09:25:00	0.2010	14.023	211.0	0.469312041	0.555851504	0.007762922	0.080088636	0.024684095
2020-07-25T09:30:00	0.2011	14.027	211.0	0.469854797	0.556589020	0.007779214	0.080256717	0.024735900
2020-07-25T09:35:00	0.2005	14.117	211.0	0.467624856	0.553560390	0.007712385	0.079567255	0.024523401
2020-07-25T09:40:00	0.2000	14.105	211.0	0.466087265	0.551474384	0.007666471	0.079093564	0.024377405
2020-07-25T09:45:00	0.1999	14.172	211.0	0.465589916	0.550800047	0.007651648	0.078940643	0.024330273
2020-07-25T09:50:00	0.2003	14.202	211.0	0.467173726	0.552948161	0.007698900	0.079428130	0.024480521
2020-07-25T09:55:00	0.2004	14.234	211.0	0.467370099	0.553214639	0.007704768	0.079488675	0.024499182
2020-07-25T10:00:00	0.1991	14.231	212.0	0.463056025	0.547367478	0.007576349	0.078163799	0.024090842
2020-07-25T10:05:00	0.1998	14.236	212.0	0.465479262	0.550650042	0.007648352	0.078906639	0.024319793
2020-07-25T10:10:00	0.1995	14.243	212.0	0.464432073	0.549230929	0.007617195	0.078585201	0.024220722
2020-07-25T10:15:00	0.1999	14.261	212.0	0.465813767	0.551103535	0.007658318	0.079009453	0.024351481
2020-07-25T10:20:00	0.2007	14.284	212.0	0.468581662	0.554859408	0.007741025	0.079862725	0.024614467
2020-07-25T10:25:00	0.2013	14.342	212.0	0.470654544	0.557676171	0.007803251	0.080504700	0.024812330
2020-07-25T10:30:00	0.2014	14.331	212.0	0.470994735	0.558138771	0.007813487	0.080610300	0.024844877
2020-07-25T10:35:00	0.2018	14.316	212.0	0.472373745	0.560014921	0.007855046	0.081039063	0.024977026
2020-07-25T10:40:00	0.2022	14.314	212.0	0.473752192	0.561891816	0.007896698	0.081468773	0.025109467
2020-07-25T10:45:00	0.2029	14.325	212.0	0.476167765	0.565184510	0.007969949	0.082224497	0.025342388
2020-07-25T10:50:00	0.2029	14.347	212.0	0.476161576	0.565176067	0.007969761	0.082222556	0.025341790
2020-07-25T10:55:00	0.2027	14.365	213.0	0.475463628	0.564224213	0.007948562	0.082003848	0.025274382
2020-07-25T11:00:00	0.2027	14.372	212.0	0.475457438	0.564215773	0.007948374	0.082001909	0.025273785
2020-07-25T11:05:00	0.2024	14.375	213.0	0.474413340	0.562792573	0.007916713	0.081675274	0.025173113
2020-07-25T11:10:00	0.2028	14.377	212.0	0.475790956	0.564670572	0.007958501	0.082106383	0.025305985
2020-07-25T11:15:00	0.2027	14.372	212.0	0.475438867	0.564190451	0.007947810	0.081996094	0.025271993
2020-07-25T11:20:00	0.2028	14.366	212.0	0.475778576	0.564653689	0.007958125	0.082102504	0.025304789
2020-07-25T11:25:00	0.2030	14.363	212.0	0.476464082	0.565588743	0.007978958	0.082317438	0.025371034
2020-07-25T11:30:00	0.2036	14.361	212.0	0.478532137	0.568411910	0.008041972	0.082967541	0.025571402
2020-07-25T11:35:00	0.2043	14.362	212.0	0.480944301	0.571709140	0.008115781	0.083729013	0.025806095
2020-07-25T11:40:00	0.2061	14.359	213.0	0.487148835	0.580211566	0.008307164	0.085703483	0.026414646
2020-07-25T11:45:00	0.2094	14.376	213.0	0.498499595	0.595845915	0.008663017	0.089374745	0.027546165
2020-07-25T11:50:00	0.2112	14.415	212.0	0.504672228	0.604391430	0.008859650	0.091403371	0.028171407
2020-07-25T11:55:00	0.2113	14.431	212.0	0.505009030	0.604858586	0.008870442	0.091514714	0.028205723
2020-07-25T12:00:00	0.2105	14.443	211.0	0.502258414	0.601046047	0.008782494	0.090607373	0.027926072
2020-07-25T12:05:00	0.2095	14.446	210.0	0.498818562	0.596286748	0.008673124	0.089479018	0.027578302
2020-07-25T12:10:00	0.2098	14.451	210.0	0.499842892	0.597702992	0.008705621	0.089814286	0.027681635
2020-07-25T12:15:00	0.2096	14.448	210.0	0.499149794	0.596744619	0.008683625	0.089587363	0.027611695
2020-07-25T12:20:00	0.2099	14.441	210.0	0.500174025	0.598160998	0.008716139	0.089922801	0.027715081
2020-07-25T12:25:00	0.2107	14.433	210.0	0.502914038	0.601954233	0.008803417	0.090823233	0.027992602
2020-07-25T12:30:00	0.2113	14.427	210.0	0.504966072	0.604798997	0.008869065	0.091500508	0.028201345
2020-07-25T12:35:00	0.2125	14.420	210.0	0.509072577	0.610502095	0.009001169	0.092863406	0.028621403
2020-07-25T12:40:00	0.2135	14.415	210.0	0.512489884	0.615258412	0.009111847	0.094005242	0.028973328
2020-07-25T12:45:00	0.2135	14.411	210.0	0.512483761	0.615249881	0.009111648	0.094003189	0.028972696
2020-07-25T12:50:00	0.2131	14.410	210.0	0.511108668	0.613334857	0.009067031	0.093542891	0.028830828
2020-07-25T12:55:00	0.2128	14.422	210.0	0.510075455	0.611896955	0.009033580	0.093197777	0.028724460
2020-07-25T13:00:00	0.2124	14.442	210.0	0.508699395	0.609983260	0.008989124	0.092739135	0.028583102
2020-07-25T13:05:00	0.2128	14.448	210.0	0.510063200	0.611879905	0.009033183	0.093193688	0.028723200
2020-07-25T13:10:00	0.2131	14.451	210.0	0.511084165	0.613300746	0.009066237	0.093534699	0.028828303
2020-07-25T13:15:00	0.2134	14.458	210.0	0.512104826	0.614722005	0.009099342	0.093876232	0.028933566
2020-07-25T13:20:00	0.2140	14.476	210.0	0.514151357	0.617574312	0.009165902	0.094562917	0.029145209
2020-07-25T13:25:00	0.2143	14.498	210.0	0.515171105	0.618996828	0.009199158	0.094906014	0.029250955
2020-07-25T13:30:00	0.2139	14.516	210.0	0.513797091	0.617080320	0.009154362	0.094443869	0.029108518
2020-07-25T13:35:00	0.2134	14.528	210.0	0.512080330	0.614687884	0.009098547	0.093868028	0.028931038
2020-07-25T13:40:00	0.2134	14.545	210.0	0.512074206	0.614679354	0.009098348	0.093865977	0.028930406
2020-07-25T13:45:00	0.2136	14.559	210.0	0.512752443	0.615624240	0.009120378	0.094093260	0.029000457
2020-07-25T13:50:00	0.2141	14.567	210.0	0.514456628	0.618000067	0.009175851	0.094665561	0.029176845
2020-07-25T13:55:00	0.2145	14.576	210.0	0.515818143	0.619899861	0.009220290	0.095124034	0.029318151
2020-07-25T14:00:00	0.2139	14.590	210.0	0.513760365	0.617029114	0.009153166	0.094431531	0.029104715
2020-07-25T14:05:00	0.2135	14.610	210.0	0.512385785	0.615113384	0.009108465	0.093970356	0.028962576
2020-07-25T14:10:00	0.2127	14.624	210.0	0.509641098	0.611292727	0.009019535	0.093052884	0.028679802
2020-07-25T14:15:00	0.2129	14.633	210.0	0.510319817	0.612236951	0.009041486	0.093279342	0.028749599
2020-07-25T14:20:00	0.2130	14.647	210.0	0.510656063	0.612704869	0.009052370	0.093391634	0.028784208
2020-07-25T14:25:00	0.2129	14.657	210.0	0.510307563	0.612219899	0.009041089	0.093275250	0.028748338
2020-07-25T14:30:00	0.2125	14.665	210.0	0.508931596	0.610306076	0.008996618	0.092816449	0.028606931
2020-07-25T14:35:00	0.2120	14.669	209.0	0.507555076	0.608393012	0.008952238	0.092358594	0.028465816
2020-07-25T14:40:00	0.2120	14.666	209.0	0.507548944	0.608384493	0.008952041	0.092356557	0.028465188
2020-07-25T14:45:00	0.2116	14.666	209.0	0.506171867	0.606472191	0.008907754	0.091899653	0.028324366
2020-07-25T14:50:00	0.2118	14.671	209.0	0.506851275	0.607415471	0.008929590	0.092124934	0.028393799
2020-07-25T14:55:00	0.2130	14.677	209.0	0.510955519	0.613121667	0.009062069	0.093491696	0.028815049
2020-07-25T15:00:00	0.2132	14.683	209.0	0.511633977	0.614066249	0.009084063	0.093718600	0.028884983
2020-07-25T15:05:00	0.2129	14.686	209.0	0.510600922	0.612628129	0.009050585	0.093373214	0.028778531
2020-07-25T15:10:00	0.2127	14.689	209.0	0.509910003	0.611666780	0.009028229	0.093142572	0.028707445
2020-07-25T15:15:00	0.2127	14.695	209.0	0.509903875	0.611658255	0.009028031	0.093140528	0.028706815
2020-07-25T15:20:00	0.2124	14.704	209.0	0.508870298	0.610220853	0.008994639	0.092796036	0.028600640
2020-07-25T15:25:00	0.2116	14.716	209.0	0.506122789	0.606404066	0.008906177	0.091883390	0.028319353
2020-07-25T15:30:00	0.2110	14.728	209.0	0.504059173	0.603541333	0.008840022	0.091200876	0.028108996
2020-07-25T15:35:00	0.2115	14.740	210.0	0.505767692	0.605911216	0.008894776	0.091765766	0.028283100
2020-07-25T15:40:00	0.2115	14.752	210.0	0.505761556	0.605902701	0.008894579	0.091763734	0.028282474
2020-07-25T15:45:00	0.2108	14.763	210.0	0.503354652	0.602564776	0.008817493	0.090968446	0.028037359
2020-07-25T15:50:00	0.2105	14.774	210.0	0.502319092	0.601130085	0.008784430	0.090627340	0.027932226
2020-07-25T15:55:00	0.2100	14.782	210.0	0.500596558	0.598745553	0.008729570	0.090061364	0.027757787
2020-07-25T16:00:00	0.2098	14.783	210.0	0.499903613	0.597786972	0.008707549	0.089834180	0.027687767
2020-07-25T16:05:00	0.2095	14.786	210.0	0.498724163	0.596156274	0.008670132	0.089448152	0.027568789
2020-07-25T16:10:00	0.2087	14.790	210.0	0.496169338	0.592627827	0.008589357	0.088614808	0.027311944
2020-07-25T16:15:00	0.2087	14.794	210.0	0.496020229	0.592422056	0.008584654	0.088566291	0.027296991
2020-07-25T16:20:00	0.2077	14.796	210.0	0.492775137	0.587948229	0.008482625	0.087513675	0.026972565
2020-07-25T16:25:00	0.2077	14.796	210.0	0.492625879	0.587742660	0.008477946	0.087465411	0.026957689
2020-07-25T16:30:00	0.2076	14.794	210.0	0.492132413	0.587063145	0.008462489	0.087305937	0.026908538
2020-07-25T16:35:00	0.2075	14.792	210.0	0.491983128	0.586857614	0.008457815	0.087257720	0.026893677
2020-07-25T16:40:00	0.2076	14.791	210.0	0.492178067	0.587126003	0.008463918	0.087320685	0.026913083
2020-07-25T16:45:00	0.2072	14.792	210.0	0.490995938	0.585498933	0.008426942	0.086939209	0.026795509
2020-07-25T16:50:00	0.2070	14.794	211.0	0.490157835	0.584346054	0.008400776	0.086669254	0.026712306
2020-07-25T16:55:00	0.2070	14.795	211.0	0.490352879	0.584614303	0.008406862	0.086732041	0.026731657
2020-07-25T17:00:00	0.2069	14.798	211.0	0.489859083	0.583935233	0.008391458	0.086573127	0.026682678
2020-07-25T17:05:00	0.2072	14.802	211.0	0.490742934	0.585150845	0.008419039	0.086857672	0.026770378
2020-07-25T17:10:00	0.2070	14.804	211.0	0.490249195	0.584471700	0.008403626	0.086698661	0.026721369
2020-07-25T17:15:00	0.2069	14.806	211.0	0.489755384	0.583792651	0.008388225	0.086539772	0.026672398
2020-07-25T17:20:00	0.2068	14.808	211.0	0.489605994	0.583587260	0.008383569	0.086491733	0.026657592
2020-07-25T17:25:00	0.2066	14.808	212.0	0.488767547	0.582434842	0.008357459	0.086222359	0.026574568
2020-07-25T17:30:00	0.2067	14.808	211.0	0.489307194	0.583176504	0.008374259	0.086395687	0.026627990
2020-07-25T17:35:00	0.2065	14.809	211.0	0.488468674	0.582024186	0.008348161	0.086126439	0.026545005
2020-07-25T17:40:00	0.2072	14.809	212.0	0.490730609	0.585133890	0.008418654	0.086853701	0.026769154
2020-07-25T17:45:00	0.2068	14.810	212.0	0.489547976	0.583507498	0.008381761	0.086473080	0.026651843
2020-07-25T17:50:00	0.2067	14.809	212.0	0.489054064	0.582828586	0.008366376	0.086314363	0.026602925
2020-07-25T17:55:00	0.2070	14.809	212.0	0.490282547	0.584517570	0.008404667	0.086709398	0.026724679
2020-07-25T18:00:00	0.2064	14.808	212.0	0.488066023	0.581471052	0.008335643	0.085997296	0.026505202
2020-07-25T18:05:00	0.2064	14.806	212.0	0.488261187	0.581739139	0.008341709	0.086059879	0.026524491
2020-07-25T18:10:00	0.2065	14.803	212.0	0.488456340	0.582007242	0.008347777	0.086122481	0.026543785
2020-07-25T18:15:00	0.2063	14.799	212.0	0.487962269	0.581328543	0.008332419	0.085964034	0.026494950
2020-07-25T18:20:00	0.2065	14.795	212.0	0.488502044	0.582070033	0.008349199	0.086137146	0.026548305
2020-07-25T18:25:00	0.2064	14.788	212.0	0.488007979	0.581391326	0.008333840	0.085978687	0.026499466
2020-07-25T18:30:00	0.2070	14.781	212.0	0.490270220	0.584500617	0.008404282	0.086705430	0.026723456
2020-07-25T18:35:00	0.2069	14.775	212.0	0.489776413	0.583821564	0.008388881	0.086546536	0.026674483
2020-07-25T18:40:00	0.2071	14.770	212.0	0.490660285	0.585037147	0.008416458	0.086831045	0.026762171
2020-07-25T18:45:00	0.2070	14.765	212.0	0.490166534	0.584358017	0.008401047	0.086672054	0.026713169
2020-07-25T18:50:00	0.2069	14.761	212.0	0.490017162	0.584152602	0.008396388	0.086623984	0.026698353
2020-07-25T18:55:00	0.2071	14.754	212.0	0.490556610	0.584894531	0.008413221	0.086797649	0.026751878
2020-07-25T19:00:00	0.2078	14.747	213.0	0.492817157	0.588006106	0.008483942	0.087527266	0.026976753
2020-07-25T19:05:00	0.2078	14.739	212.0	0.493012048	0.588274561	0.008490053	0.087590311	0.026996185
2020-07-25T19:10:00	0.2076	14.730	212.0	0.492174441	0.587121011	0.008463805	0.087319513	0.026912722
2020-07-25T19:15:00	0.2074	14.722	212.0	0.491680910	0.586441585	0.008448358	0.087160150	0.026863605
2020-07-25T19:20:00	0.2077	14.716	212.0	0.492564287	0.587657836	0.008476016	0.087445498	0.026951552
2020-07-25T19:25:00	0.2082	14.709	212.0	0.494479537	0.590296937	0.008536137	0.088065754	0.027142721
2020-07-25T19:30:00	0.2081	14.701	212.0	0.493986340	0.589617059	0.008520635	0.087905823	0.027093428
2020-07-25T19:35:00	0.2082	14.693	212.0	0.494181165	0.589885604	0.008526757	0.087968982	0.027112895
2020-07-25T19:40:00	0.2081	14.689	213.0	0.494031969	0.589679951	0.008522069	0.087920613	0.027097987
2020-07-25T19:45:00	0.2081	14.685	212.0	0.493882766	0.589474307	0.008517382	0.087872255	0.027083083
2020-07-25T19:50:00	0.2080	14.677	212.0	0.493733558	0.589268671	0.008512695	0.087823909	0.027068182
2020-07-25T19:55:00	0.2075	14.670	212.0	0.491863546	0.586692991	0.008454072	0.087219107	0.026881776
2020-07-25T20:00:00	0.2073	14.663	213.0	0.491369970	0.586013625	0.008438633	0.087059820	0.026832682
2020-07-25T20:05:00	0.2074	14.655	213.0	0.491564945	0.586281968	0.008444730	0.087122725	0.026852070
2020-07-25T20:10:00	0.2082	14.649	212.0	0.494168852	0.589868632	0.008526370	0.087964990	0.027111664
2020-07-25T20:15:00	0.2082	14.641	213.0	0.494363666	0.590137191	0.008532494	0.088028167	0.027131136
2020-07-25T20:20:00	0.2075	14.634	213.0	0.491805567	0.586613177	0.008452258	0.087200389	0.026876007
2020-07-25T20:25:00	0.2073	14.628	213.0	0.491311982	0.585933823	0.008436820	0.087041116	0.026826917
2020-07-25T20:30:00	0.2076	14.621	213.0	0.492195455	0.587149945	0.008464463	0.087326302	0.026914814
2020-07-25T20:35:00	0.2077	14.615	213.0	0.492734558	0.587892340	0.008481353	0.087500553	0.026968520
2020-07-25T20:40:00	0.2081	14.609	213.0	0.493961713	0.589583116	0.008519862	0.087897841	0.027090968
2020-07-25T20:45:00	0.2079	14.603	213.0	0.493468441	0.588903340	0.008504372	0.087738038	0.027041715
2020-07-25T20:50:00	0.2081	14.596	213.0	0.494007343	0.589646008	0.008521295	0.087912631	0.027095527
2020-07-25T20:55:00	0.2079	14.589	213.0	0.493169981	0.588492127	0.008495007	0.087641417	0.027011936
2020-07-25T21:00:00	0.2079	14.582	213.0	0.493364852	0.588760609	0.008501121	0.087704497	0.027031378
2020-07-25T21:05:00	0.2074	14.575	213.0	0.491494638	0.586185202	0.008442531	0.087100040	0.026845078
2020-07-25T21:10:00	0.2078	14.567	213.0	0.493066382	0.588349408	0.008491757	0.087607892	0.027001603
2020-07-25T21:15:00	0.2082	14.559	213.0	0.494293418	0.590040347	0.008530286	0.088005383	0.027124114
2020-07-25T21:20:00	0.2087	14.553	213.0	0.496207695	0.592680763	0.008590566	0.088627291	0.027315792
2020-07-25T21:25:00	0.2084	14.550	212.0	0.495026965	0.591051801	0.008553360	0.088243440	0.027197485
2020-07-25T21:30:00	0.2081	14.544	213.0	0.493845825	0.589423394	0.008516221	0.087860285	0.027079393
2020-07-25T21:35:00	0.2088	14.538	212.0	0.496447989	0.593012415	0.008598148	0.088705511	0.027339900
2020-07-25T21:40:00	0.2089	14.528	212.0	0.496642673	0.593281151	0.008604293	0.088768909	0.027359440
2020-07-25T21:45:00	0.2089	14.518	213.0	0.496837346	0.593549901	0.008610440	0.088832327	0.027378986
2020-07-25T21:50:00	0.2090	14.507	213.0	0.497032008	0.593818667	0.008616589	0.088895763	0.027398538
2020-07-25T21:55:00	0.2093	14.496	212.0	0.498257616	0.595511539	0.008655353	0.089295682	0.027521796
2020-07-25T22:00:00	0.2093	14.483	212.0	0.498108599	0.595305644	0.008650635	0.089247009	0.027506795
2020-07-25T22:05:00	0.2095	14.470	212.0	0.498789612	0.596246734	0.008672206	0.089469551	0.027575385
2020-07-25T22:10:00	0.2094	14.457	212.0	0.498439899	0.595763421	0.008661126	0.089355237	0.027540152
2020-07-25T22:15:00	0.2092	14.443	212.0	0.497746516	0.594805435	0.008639177	0.089128800	0.027470362
2020-07-25T22:20:00	0.2095	14.429	212.0	0.498771168	0.596221242	0.008671622	0.089463520	0.027573526
2020-07-25T22:25:00	0.2093	14.413	212.0	0.498077852	0.595263165	0.008649662	0.089236968	0.027503700
2020-07-25T22:30:00	0.2093	14.403	212.0	0.498071703	0.595254669	0.008649467	0.089234960	0.027503081
2020-07-25T22:35:00	0.2100	14.389	212.0	0.500470045	0.598570513	0.008725547	0.090019865	0.027744997
2020-07-25T22:40:00	0.2103	14.369	212.0	0.501493879	0.599987431	0.008758127	0.090355978	0.027848590
2020-07-25T22:45:00	0.2100	14.352	212.0	0.500457755	0.598553510	0.008725157	0.090015834	0.027743754
2020-07-25T22:50:00	0.2100	14.336	212.0	0.500451610	0.598545008	0.008724961	0.090013819	0.027743133
2020-07-25T22:55:00	0.2093	14.321	212.0	0.498040957	0.595212190	0.008648494	0.089224920	0.027499987
2020-07-25T23:00:00	0.2091	14.305	212.0	0.497347492	0.594254314	0.008626559	0.088998621	0.027430239
2020-07-25T23:05:00	0.2081	14.289	212.0	0.493902679	0.589501751	0.008518007	0.087878708	0.027085071
2020-07-25T23:10:00	0.2079	14.274	212.0	0.493208371	0.588545017	0.008496211	0.087653842	0.027015766
2020-07-25T23:15:00	0.2084	14.259	212.0	0.494922332	0.590907502	0.008550067	0.088209464	0.027187013
2020-07-25T23:20:00	0.2078	14.243	212.0	0.492851926	0.588053997	0.008485032	0.087538511	0.026980219
2020-07-25T23:25:00	0.2073	14.226	212.0	0.491124598	0.585675965	0.008430963	0.086980688	0.026808293
2020-07-25T23:30:00	0.2070	14.210	212.0	0.490085314	0.584246323	0.008398513	0.086645915	0.026705112
2020-07-25T23:35:00	0.2074	14.195	212.0	0.491456579	0.586132821	0.008441341	0.087087760	0.026841294
2020-07-25T23:40:00	0.2074	14.178	211.0	0.491450418	0.586124342	0.008441148	0.087085773	0.026840681
2020-07-25T23:45:00	0.2075	14.163	211.0	0.491788528	0.586589722	0.008451725	0.087194888	0.026874311
2020-07-25T23:50:00	0.2075	14.147	211.0	0.491782367	0.586581241	0.008451532	0.087192899	0.026873698
2020-07-25T23:55:00	0.2071	14.130	211.0	0.490398908	0.584677612	0.008408298	0.086746862	0.026736225
2020-07-26T00:00:00	0.2070	14.115	211.0	0.490048332	0.584195466	0.008397360	0.086634014	0.026701445
2020-07-26T00:05:00	0.2072	14.099	211.0	0.490730960	0.585134373	0.008418665	0.086853814	0.026769189
2020-07-26T00:10:00	0.2072	14.085	211.0	0.490724797	0.585125895	0.008418472	0.086851829	0.026768577
2020-07-26T00:15:00	0.2071	14.069	211.0	0.490718634	0.585117417	0.008418280	0.086849843	0.026767965
2020-07-26T00:20:00	0.2076	14.054	211.0	0.492433850	0.587478208	0.008471930	0.087403335	0.026938557
2020-07-26T00:25:00	0.2080	14.039	211.0	0.493804169	0.589365983	0.008514913	0.087846786	0.027075233
2020-07-26T00:30:00	0.2085	14.023	211.0	0.495517830	0.591728874	0.008568818	0.088402917	0.027246638
2020-07-26T00:35:00	0.2079	14.008	211.0	0.493447786	0.588874879	0.008503724	0.087731350	0.027039654
2020-07-26T00:40:00	0.2079	13.992	211.0	0.493441628	0.588866395	0.008503530	0.087729356	0.027039039
2020-07-26T00:45:00	0.2075	13.977	210.0	0.492058844	0.586961854	0.008460185	0.087282173	0.026901213
2020-07-26T00:50:00	0.2073	13.962	211.0	0.491364160	0.586005629	0.008438451	0.087057946	0.026832104
2020-07-26T00:55:00	0.2074	13.949	211.0	0.491702278	0.586470997	0.008449026	0.087167047	0.026865730
2020-07-26T01:00:00	0.2071	13.935	210.0	0.490663171	0.585041118	0.008416548	0.086831974	0.026762458
2020-07-26T01:05:00	0.2069	13.922	210.0	0.489968202	0.584085277	0.008394861	0.086608231	0.026693498
2020-07-26T01:10:00	0.2065	13.908	210.0	0.488584003	0.582182642	0.008351748	0.086163446	0.026556411
2020-07-26T01:15:00	0.2067	13.896	210.0	0.489266925	0.583121153	0.008373005	0.086382748	0.026624002
2020-07-26T01:20:00	0.2063	13.885	210.0	0.487882441	0.581218903	0.008329939	0.085938447	0.026487064
2020-07-26T01:25:00	0.2059	13.874	210.0	0.486497393	0.579317412	0.008286966	0.085495103	0.026350421
2020-07-26T01:30:00	0.2055	13.863	210.0	0.485111779	0.577416681	0.008244086	0.085052716	0.026214073
2020-07-26T01:35:00	0.2051	13.853	210.0	0.483725599	0.575516708	0.008201299	0.084611286	0.026078020
2020-07-26T01:40:00	0.2050	13.844	210.0	0.483374333	0.575035488	0.008190474	0.084499606	0.026043599
2020-07-26T01:45:00	0.2048	13.835	210.0	0.482677870	0.574081653	0.008169031	0.084278392	0.025975419
2020-07-26T01:50:00	0.2049	13.827	210.0	0.483016855	0.574545858	0.008179464	0.084386026	0.026008593
2020-07-26T01:55:00	0.2047	13.818	210.0	0.482320319	0.573592122	0.008158034	0.084164936	0.025940451
2020-07-26T02:00:00	0.2045	13.810	210.0	0.481623639	0.572638577	0.008136628	0.083944087	0.025872383
2020-07-26T02:05:00	0.2042	13.801	210.0	0.480581442	0.571212845	0.008104656	0.083614245	0.025770722
2020-07-26T02:10:00	0.2043	13.793	210.0	0.480920636	0.571676769	0.008115055	0.083721525	0.025803787
2020-07-26T02:15:00	0.2040	13.784	210.0	0.479878223	0.570251326	0.008083119	0.083392049	0.025702239
2020-07-26T02:20:00	0.2034	13.775	210.0	0.477798619	0.567410171	0.008019593	0.082736667	0.025500244
2020-07-26T02:25:00	0.2032	13.766	210.0	0.477101008	0.566457868	0.007998339	0.082517390	0.025432661
2020-07-26T02:30:00	0.2027	13.758	210.0	0.475365639	0.564090608	0.007945588	0.081973165	0.025264926
2020-07-26T02:35:00	0.2032	13.750	210.0	0.477088634	0.566440979	0.007997962	0.082513503	0.025431463
2020-07-26T02:40:00	0.2030	13.741	210.0	0.476390877	0.565488870	0.007976732	0.082294472	0.025363956
2020-07-26T02:45:00	0.2028	13.732	210.0	0.475692976	0.564536954	0.007955525	0.082075685	0.025296523
2020-07-26T02:50:00	0.2030	13.724	210.0	0.476378500	0.565471985	0.007976356	0.082290590	0.025362759
2020-07-26T02:55:00	0.2027	13.717	210.0	0.475334686	0.564048406	0.007944649	0.081963474	0.025261939
2020-07-26T03:00:00	0.2033	13.708	210.0	0.477403431	0.566870655	0.008007550	0.082612414	0.025461948
2020-07-26T03:05:00	0.2032	13.701	210.0	0.477051509	0.566390312	0.007996832	0.082501842	0.025427869
2020-07-26T03:10:00	0.2033	13.694	210.0	0.477391057	0.566853764	0.008007173	0.082608525	0.025460750
2020-07-26T03:15:00	0.2036	13.687	209.0	0.478421867	0.568261291	0.008038606	0.082932814	0.025560699
2020-07-26T03:20:00	0.2034	13.680	210.0	0.477724385	0.567308817	0.008017330	0.082713320	0.025493048
2020-07-26T03:25:00	0.2032	13.672	209.0	0.477026759	0.566356534	0.007996079	0.082494068	0.025425473
2020-07-26T03:30:00	0.2027	13.666	210.0	0.475291352	0.563989325	0.007943334	0.081949908	0.025257758
2020-07-26T03:35:00	0.2023	13.661	209.0	0.473901146	0.562094723	0.007901205	0.081515274	0.025123799
2020-07-26T03:40:00	0.2024	13.655	209.0	0.474241010	0.562557755	0.007911494	0.081621424	0.025156515
2020-07-26T03:45:00	0.2025	13.651	209.0	0.474580840	0.563020833	0.007921788	0.081727631	0.025189250
2020-07-26T03:50:00	0.2021	13.648	209.0	0.473190342	0.561126618	0.007879707	0.081293489	0.025055443
2020-07-26T03:55:00	0.2023	13.643	209.0	0.473876373	0.562060976	0.007900455	0.081507539	0.025121415
2020-07-26T04:00:00	0.2026	13.640	209.0	0.474908254	0.563467077	0.007931713	0.081830022	0.025220808
2020-07-26T04:05:00	0.2024	13.636	209.0	0.474274521	0.562603414	0.007912509	0.081631894	0.025159742
2020-07-26T04:10:00	0.2022	13.632	209.0	0.473640668	0.561739910	0.007893324	0.081433965	0.025098739
2020-07-26T04:15:00	0.2017	13.629	209.0	0.471968039	0.559462799	0.007842808	0.080912804	0.024938112
2020-07-26T04:20:00	0.2013	13.626	209.0	0.470641007	0.557657766	0.007802844	0.080500500	0.024811036
2020-07-26T04:25:00	0.2017	13.624	209.0	0.471738398	0.559150341	0.007835885	0.080841381	0.024916099
2020-07-26T04:30:00	0.2009	13.621	209.0	0.469025263	0.555461914	0.007754321	0.079999896	0.024656745
2020-07-26T04:35:00	0.2009	13.620	209.0	0.469083633	0.555541205	0.007756071	0.080017954	0.024662311
2020-07-26T04:40:00	0.2003	13.618	209.0	0.467061985	0.552796542	0.007695561	0.079393688	0.024469906
2020-07-26T04:45:00	0.2000	13.618	209.0	0.466079918	0.551464421	0.007666252	0.079091304	0.024376708
2020-07-26T04:50:00	0.1998	13.615	209.0	0.465444525	0.550602953	0.007647318	0.078895966	0.024316503
2020-07-26T04:55:00	0.1995	13.613	209.0	0.464114924	0.548801311	0.007607772	0.078487978	0.024190757
2020-07-26T05:00:00	0.1994	13.612	209.0	0.463826288	0.548410387	0.007599200	0.078399548	0.024163502
2020-07-26T05:05:00	0.1989	13.611	209.0	0.462148783	0.546139709	0.007549478	0.077886576	0.024005399
2020-07-26T05:10:00	0.1982	13.612	209.0	0.459775459	0.542930972	0.007479406	0.077163654	0.023782588
2020-07-26T05:15:00	0.1976	13.617	209.0	0.457748214	0.540193662	0.007419806	0.076548773	0.023593075
2020-07-26T05:20:00	0.1973	13.627	209.0	0.456763425	0.538865113	0.007390939	0.076250950	0.023501283
2020-07-26T05:25:00	0.1967	13.635	209.0	0.454386295	0.535661352	0.007321484	0.075534398	0.023280435
2020-07-26T05:30:00	0.1966	13.640	209.0	0.454096823	0.535271523	0.007313048	0.075447368	0.023253612
2020-07-26T05:35:00	0.1966	13.646	209.0	0.454155453	0.535350474	0.007314756	0.075464991	0.023259043
2020-07-26T05:40:00	0.1967	13.650	209.0	0.454562166	0.535898229	0.007326611	0.075587299	0.023296740
2020-07-26T05:45:00	0.1961	13.652	209.0	0.452531772	0.533165030	0.007267522	0.074977684	0.023108850
2020-07-26T05:50:00	0.1963	13.657	209.0	0.453286900	0.534181160	0.007289471	0.075204124	0.023178641
2020-07-26T05:55:00	0.1958	13.665	209.0	0.451255734	0.531448965	0.007230506	0.074595798	0.022991150
2020-07-26T06:00:00	0.1960	13.674	209.0	0.452011150	0.532464721	0.007252408	0.074821759	0.023060793
2020-07-26T06:05:00	0.1966	13.685	209.0	0.454159119	0.535355411	0.007314863	0.075466093	0.023259383
2020-07-26T06:10:00	0.1970	13.695	210.0	0.455609871	0.537309860	0.007357194	0.075902813	0.023393984
2020-07-26T06:15:00	0.1970	13.708	210.0	0.455668474	0.537388846	0.007358906	0.075920480	0.023399429
2020-07-26T06:20:00	0.1961	13.723	209.0	0.452594098	0.533248880	0.007269332	0.074996361	0.023114607
2020-07-26T06:25:00	0.1963	13.738	210.0	0.453001001	0.533796389	0.007281157	0.075118352	0.023152206
2020-07-26T06:30:00	0.1964	13.753	210.0	0.453407855	0.534343963	0.007292989	0.075240426	0.023189830
2020-07-26T06:35:00	0.1964	13.767	210.0	0.453466497	0.534422898	0.007294696	0.075258029	0.023195255
2020-07-26T06:40:00	0.1967	13.781	210.0	0.454569499	0.535908106	0.007326825	0.075589505	0.023297419
2020-07-26T06:45:00	0.1966	13.796	210.0	0.454280043	0.535518255	0.007318387	0.075502448	0.023270588
2020-07-26T06:50:00	0.1967	13.810	210.0	0.454686741	0.536066030	0.007330244	0.075624780	0.023308292
2020-07-26T06:55:00	0.1968	13.824	210.0	0.454745361	0.536144995	0.007331954	0.075642421	0.023313729
2020-07-26T07:00:00	0.1973	13.837	210.0	0.456543739	0.538568844	0.007384506	0.076184590	0.023480830
2020-07-26T07:05:00	0.1984	13.848	210.0	0.460426563	0.543810821	0.007498598	0.077361652	0.023843613
2020-07-26T07:10:00	0.2030	13.855	210.0	0.476430202	0.565542520	0.007977928	0.082306809	0.025367758
2020-07-26T07:15:00	0.2046	13.860	210.0	0.482016888	0.573176769	0.008148707	0.084068712	0.025910794
2020-07-26T07:20:00	0.2066	13.870	210.0	0.488972817	0.582716927	0.008363847	0.086288269	0.026594883
2020-07-26T07:25:00	0.2080	13.883	210.0	0.493506828	0.588956234	0.008505577	0.087750469	0.027045547
2020-07-26T07:30:00	0.2110	13.901	210.0	0.503871401	0.603281017	0.008834014	0.091138899	0.028089894
2020-07-26T07:35:00	0.2117	13.923	210.0	0.506329541	0.606691069	0.008912819	0.091951911	0.028340472
2020-07-26T07:40:00	0.2131	13.948	210.0	0.511182876	0.613438162	0.009069436	0.093567703	0.028838475
2020-07-26T07:45:00	0.2149	13.977	210.0	0.517396348	0.622103892	0.009271937	0.095656864	0.029482374
2020-07-26T07:50:00	0.2148	14.003	210.0	0.517112200	0.621706919	0.009262627	0.095560820	0.029452773
2020-07-26T07:55:00	0.2152	14.021	211.0	0.518194716	0.623219616	0.009298118	0.095926974	0.029565625
2020-07-26T08:00:00	0.2164	14.036	211.0	0.522348984	0.629033562	0.009434951	0.097338646	0.030000716
2020-07-26T08:05:00	0.2166	14.052	211.0	0.523088751	0.630070342	0.009459422	0.097591113	0.030078529
2020-07-26T08:10:00	0.2157	14.069	211.0	0.520074822	0.625849113	0.009359921	0.096564576	0.029762140
2020-07-26T08:15:00	0.2162	14.086	211.0	0.521838957	0.628319018	0.009418097	0.097164775	0.029947127
2020-07-26T08:20:00	0.2161	14.093	211.0	0.521555176	0.627921536	0.009408727	0.097068100	0.029917331
2020-07-26T08:25:00	0.2161	14.099	211.0	0.521271372	0.627524086	0.009399360	0.096971466	0.029887548
2020-07-26T08:30:00	0.2165	14.099	211.0	0.522693752	0.629516697	0.009446351	0.097456267	0.030036968
2020-07-26T08:35:00	0.2167	14.099	211.0	0.523433445	0.630553581	0.009470835	0.097708862	0.030114820
2020-07-26T08:40:00	0.2164	14.099	211.0	0.522467505	0.629199637	0.009438869	0.097379072	0.030013176
2020-07-26T08:45:00	0.2155	14.098	211.0	0.519453031	0.624979164	0.009339459	0.096353473	0.029697076
2020-07-26T08:50:00	0.2163	14.097	211.0	0.522241242	0.628882598	0.009431389	0.097301903	0.029989391
2020-07-26T08:55:00	0.2163	14.097	211.0	0.521957494	0.628485070	0.009422013	0.097205171	0.029959578
2020-07-26T09:00:00	0.2152	14.099	211.0	0.518259446	0.623310098	0.009300243	0.095948891	0.029572380
2020-07-26T09:05:00	0.2146	14.103	211.0	0.516266816	0.620526247	0.009234958	0.095275362	0.029364792
2020-07-26T09:10:00	0.2137	14.103	211.0	0.513246890	0.616313313	0.009136455	0.094259127	0.029051578
2020-07-26T09:15:00	0.2132	14.099	211.0	0.511593623	0.614010054	0.009082754	0.093705096	0.028880821
2020-07-26T09:20:00	0.2125	14.098	211.0	0.509254634	0.610755250	0.009007049	0.092924061	0.028640098
2020-07-26T09:25:00	0.2117	14.096	211.0	0.506228516	0.606550826	0.008909573	0.091918426	0.028330152
2020-07-26T09:30:00	0.2101	14.096	211.0	0.500797150	0.599023113	0.008735950	0.090127182	0.027778073
2020-07-26T09:35:00	0.2098	14.097	211.0	0.499824804	0.597677976	0.008705047	0.089808360	0.027679809
2020-07-26T09:40:00	0.2099	14.101	211.0	0.500226066	0.598232988	0.008717793	0.089939862	0.027720339
2020-07-26T09:45:00	0.2097	14.106	211.0	0.499597040	0.597363000	0.008697816	0.089733761	0.027656817
2020-07-26T09:50:00	0.2083	14.112	211.0	0.494843057	0.590798179	0.008547572	0.088183727	0.027179081
2020-07-26T09:55:00	0.2077	14.115	211.0	0.492492559	0.587559056	0.008473769	0.087422311	0.026944405
2020-07-26T10:00:00	0.2064	14.118	211.0	0.488073283	0.581481025	0.008335869	0.085999623	0.026505919
2020-07-26T10:05:00	0.2057	14.119	211.0	0.485864574	0.578449146	0.008267369	0.085292921	0.026288106
2020-07-26T10:10:00	0.2064	14.121	211.0	0.488137493	0.581569224	0.008337865	0.086020212	0.026512265
2020-07-26T10:15:00	0.2066	14.126	211.0	0.488686490	0.582323461	0.008354936	0.086196339	0.026566549
2020-07-26T10:20:00	0.2064	14.133	211.0	0.488201702	0.581657425	0.008339860	0.086040802	0.026518611
2020-07-26T10:25:00	0.2063	14.140	211.0	0.487716846	0.580991482	0.008324796	0.085885381	0.026470709
2020-07-26T10:30:00	0.2055	14.145	211.0	0.485162996	0.577486912	0.008245669	0.085069048	0.026219107
2020-07-26T10:35:00	0.2053	14.153	211.0	0.484332713	0.576348663	0.008220025	0.084804482	0.026137565
2020-07-26T10:40:00	0.2051	14.163	211.0	0.483502227	0.575210686	0.008194414	0.084540259	0.026056129
2020-07-26T10:45:00	0.2045	14.174	211.0	0.481635841	0.572655274	0.008137002	0.083947953	0.025873574
2020-07-26T10:50:00	0.2036	14.187	211.0	0.478386244	0.568212636	0.008037518	0.082921596	0.025557241
2020-07-26T10:55:00	0.2028	14.200	211.0	0.475825352	0.564717480	0.007959545	0.082117161	0.025309307
2020-07-26T11:00:00	0.2019	14.217	211.0	0.472570168	0.560282279	0.007860975	0.081100226	0.024995877
2020-07-26T11:05:00	0.2007	14.235	211.0	0.468272049	0.554438979	0.007731751	0.079767055	0.024584981
2020-07-26T11:10:00	0.2009	14.252	211.0	0.469170853	0.555659691	0.007758687	0.080044941	0.024670628
2020-07-26T11:15:00	0.2005	14.265	212.0	0.467643274	0.553585388	0.007712936	0.079572938	0.024525152
2020-07-26T11:20:00	0.2002	14.279	212.0	0.466808678	0.552452872	0.007687996	0.079315639	0.024445850
2020-07-26T11:25:00	0.1999	14.296	212.0	0.465626970	0.550850281	0.007652752	0.078952031	0.024333783
2020-07-26T11:30:00	0.2000	14.315	212.0	0.466179630	0.551599641	0.007669225	0.079121980	0.024386163
2020-07-26T11:35:00	0.2005	14.341	212.0	0.467772470	0.553760753	0.007716800	0.079612805	0.024537440
2020-07-26T11:40:00	0.1998	14.367	212.0	0.465203515	0.550276275	0.007640142	0.078821935	0.024293686
2020-07-26T11:45:00	0.2001	14.389	212.0	0.466449994	0.551966320	0.007677290	0.079205186	0.024411808
2020-07-26T11:50:00	0.2002	14.403	212.0	0.466655719	0.552245371	0.007683430	0.079268528	0.024431330
2020-07-26T11:55:00	0.1995	14.424	212.0	0.464432977	0.549232153	0.007617222	0.078585478	0.024220808
2020-07-26T12:00:00	0.1982	14.453	213.0	0.459776955	0.542932993	0.007479450	0.077164109	0.023782728
2020-07-26T12:05:00	0.1982	14.485	213.0	0.459635564	0.542741972	0.007475286	0.077121145	0.023769486
2020-07-26T12:10:00	0.1968	14.516	213.0	0.454972891	0.536451519	0.007338593	0.075710911	0.023334838
2020-07-26T12:15:00	0.1961	14.541	213.0	0.452394139	0.532979873	0.007263525	0.074936448	0.023096141
2020-07-26T12:20:00	0.1954	14.561	213.0	0.450161945	0.529979016	0.007198851	0.074269216	0.022890494
2020-07-26T12:25:00	0.1957	14.591	213.0	0.451065601	0.531193376	0.007224999	0.074538978	0.022973637
2020-07-26T12:30:00	0.1931	14.622	213.0	0.441852008	0.518842005	0.006960573	0.071810949	0.022132832
2020-07-26T12:35:00	0.1936	14.658	213.0	0.443805631	0.521455378	0.007016238	0.072385237	0.022309833
2020-07-26T12:40:00	0.1921	14.691	214.0	0.439014907	0.514262610	0.006869573	0.070872123	0.021843476
2020-07-26T12:45:00	0.1920	14.721	214.0	0.438904312	0.514073029	0.006865888	0.070834097	0.021831757
2020-07-26T12:50:00	0.1914	14.757	214.0	0.437161723	0.511090405	0.006807972	0.070236597	0.021647601
2020-07-26T12:55:00	0.1897	14.789	214.0	0.432418044	0.503014058	0.006651832	0.068625729	0.021151116
2020-07-26T13:00:00	0.1893	14.816	214.0	0.431488029	0.501438018	0.006621480	0.068312588	0.021054603
2020-07-26T13:05:00	0.1884	14.859	215.0	0.428917386	0.497094221	0.006538023	0.067451580	0.020789232
2020-07-26T13:10:00	0.1881	14.944	215.0	0.428259014	0.495984678	0.006516753	0.067232137	0.020721598
2020-07-26T13:15:00	0.1873	14.947	215.0	0.425957314	0.492115127	0.006442722	0.066468378	0.020486200
2020-07-26T13:20:00	0.1863	14.980	215.0	0.423103540	0.487337844	0.006351650	0.065528801	0.020196613
2020-07-26T13:25:00	0.1850	15.025	215.0	0.419694762	0.481661021	0.006243899	0.064417151	0.019853992
2020-07-26T13:30:00	0.1838	15.066	216.0	0.416278773	0.476004388	0.006137042	0.063314733	0.019514216
2020-07-26T13:35:00	0.1840	15.103	216.0	0.416993350	0.477185014	0.006159302	0.063544387	0.019584997
2020-07-26T13:40:00	0.1838	15.151	216.0	0.416330126	0.476089186	0.006138640	0.063331220	0.019519297
2020-07-26T13:45:00	0.1839	15.191	216.0	0.416769164	0.476814462	0.006152313	0.063472283	0.019562774
2020-07-26T13:50:00	0.1830	15.225	216.0	0.414175110	0.472536877	0.006071794	0.062641577	0.019306742
2020-07-26T13:55:00	0.1821	15.263	217.0	0.411576837	0.468270899	0.005991788	0.061816171	0.019052344
2020-07-26T14:00:00	0.1834	15.294	217.0	0.415330058	0.474439093	0.006107564	0.063010611	0.019420482
2020-07-26T14:05:00	0.1836	15.323	217.0	0.415769371	0.475163611	0.006121203	0.063151327	0.019463852
2020-07-26T14:10:00	0.1857	15.361	217.0	0.421711861	0.485016323	0.006307523	0.065073557	0.020056302
2020-07-26T14:15:00	0.1887	15.387	217.0	0.429820801	0.498618690	0.006567279	0.067753409	0.020882259
2020-07-26T14:20:00	0.1954	15.402	218.0	0.449895597	0.529621213	0.007191153	0.074189796	0.022866016
2020-07-26T14:25:00	0.2017	15.428	217.0	0.471988316	0.559490390	0.007843419	0.080919112	0.024940056
2020-07-26T14:30:00	0.2035	15.467	215.0	0.478074827	0.567787329	0.008028016	0.082823566	0.025527027
2020-07-26T14:35:00	0.2066	15.479	213.0	0.488977383	0.582723202	0.008363989	0.086289735	0.026595334
2020-07-26T14:40:00	0.2056	15.475	210.0	0.485389931	0.577798116	0.008252685	0.085141430	0.026241416
2020-07-26T14:45:00	0.2039	15.476	209.0	0.479380943	0.569571630	0.008067906	0.083235100	0.025653866
2020-07-26T14:50:00	0.2035	15.483	208.0	0.478203625	0.567963221	0.008031946	0.082864103	0.025539521
2020-07-26T14:55:00	0.2033	15.477	207.0	0.477371635	0.566827253	0.008006581	0.082602421	0.025458868
2020-07-26T15:00:00	0.2040	15.463	206.0	0.479995723	0.570411958	0.008086716	0.083429155	0.025713676
2020-07-26T15:05:00	0.2042	15.449	205.0	0.480546038	0.571164427	0.008103571	0.083603052	0.025767272
2020-07-26T15:10:00	0.2060	15.432	205.0	0.486617202	0.579481835	0.008290679	0.085533408	0.026362227
2020-07-26T15:15:00	0.2062	15.419	205.0	0.487511149	0.580709017	0.008318409	0.085819487	0.026450399
2020-07-26T15:20:00	0.2068	15.416	206.0	0.489438493	0.583356990	0.008378349	0.086437885	0.026640996
2020-07-26T15:25:00	0.2066	15.407	206.0	0.488953813	0.582690810	0.008363256	0.086282166	0.026593001
2020-07-26T15:30:00	0.2059	15.385	206.0	0.486400894	0.579184989	0.008283976	0.085464257	0.026340914
2020-07-26T15:35:00	0.2044	15.366	206.0	0.481084451	0.571900856	0.008120079	0.083773361	0.025819763
2020-07-26T15:40:00	0.2035	15.355	207.0	0.478179980	0.567930929	0.008031224	0.082856661	0.025537227
2020-07-26T15:45:00	0.2036	15.341	207.0	0.478384992	0.568210925	0.008037480	0.082921202	0.025557120
2020-07-26T15:50:00	0.2041	15.323	206.0	0.480317527	0.570851945	0.008096570	0.083530822	0.025745010
2020-07-26T15:55:00	0.2032	15.310	206.0	0.477066664	0.566410995	0.007997293	0.082506602	0.025429336
2020-07-26T16:00:00	0.2031	15.299	206.0	0.476580213	0.565747186	0.007982490	0.082353878	0.025382265
2020-07-26T16:05:00	0.2031	15.285	207.0	0.476892512	0.566173326	0.007991992	0.082451910	0.025412479
2020-07-26T16:10:00	0.2030	15.265	207.0	0.476513238	0.565655807	0.007980453	0.082332861	0.025375787
2020-07-26T16:15:00	0.2030	15.246	207.0	0.476479749	0.565610118	0.007979434	0.082322354	0.025372549
2020-07-26T16:20:00	0.2025	15.225	206.0	0.474716747	0.563206055	0.007925907	0.081770125	0.025202347
2020-07-26T16:25:00	0.2020	15.205	206.0	0.472952825	0.560803214	0.007872530	0.081219446	0.025032622
2020-07-26T16:30:00	0.2020	15.188	207.0	0.472919302	0.560757572	0.007871518	0.081208998	0.025029402
2020-07-26T16:35:00	0.2004	15.169	207.0	0.467342372	0.553177011	0.007703940	0.079480125	0.024496546
2020-07-26T16:40:00	0.1999	15.152	206.0	0.465574591	0.550779272	0.007651192	0.078935933	0.024328821
2020-07-26T16:45:00	0.2004	15.136	207.0	0.467275213	0.553085875	0.007701932	0.079459417	0.024490164
2020-07-26T16:50:00	0.2015	15.120	206.0	0.471053816	0.558219121	0.007815265	0.080628647	0.024850532
2020-07-26T16:55:00	0.2010	15.106	207.0	0.469634510	0.556289659	0.007772600	0.080188477	0.024714868
2020-07-26T17:00:00	0.1998	15.092	206.0	0.465440202	0.550597094	0.007647189	0.078894638	0.024316094
2020-07-26T17:05:00	0.1998	15.075	207.0	0.465406604	0.550551550	0.007646188	0.078884316	0.024312912
2020-07-26T17:10:00	0.1988	15.058	207.0	0.461901715	0.545805465	0.007542169	0.077811163	0.023982156
2020-07-26T17:15:00	0.1975	15.042	207.0	0.457350001	0.539656352	0.007408127	0.076428276	0.023555937
2020-07-26T17:20:00	0.1977	15.031	207.0	0.458011813	0.540549406	0.007427543	0.076628589	0.023617675
2020-07-26T17:25:00	0.1975	15.027	208.0	0.457282642	0.539565477	0.007406152	0.076407902	0.023549658
2020-07-26T17:30:00	0.1969	15.020	209.0	0.455161582	0.536705749	0.007344101	0.075767733	0.023352351
2020-07-26T17:35:00	0.1964	15.012	208.0	0.453387387	0.534316413	0.007292394	0.075234282	0.023187937
2020-07-26T17:40:00	0.1953	15.001	208.0	0.449521364	0.529118574	0.007180343	0.074078278	0.022831645
2020-07-26T17:45:00	0.1932	14.990	207.0	0.442508460	0.519719810	0.006979253	0.072003670	0.022192230
2020-07-26T17:50:00	0.1917	14.980	207.0	0.438089310	0.512677012	0.006838764	0.070554263	0.021745509
2020-07-26T17:55:00	0.1909	14.969	207.0	0.435885683	0.508911712	0.006765753	0.069801029	0.021513355
2020-07-26T18:00:00	0.1909	14.957	207.0	0.435859310	0.508866730	0.006764882	0.069792045	0.021510586
2020-07-26T18:05:00	0.1910	14.945	207.0	0.436105261	0.509286292	0.006773007	0.069875863	0.021536420
2020-07-26T18:10:00	0.1914	14.933	207.0	0.437167764	0.511100731	0.006808173	0.070238663	0.021648238
2020-07-26T18:15:00	0.1917	14.920	207.0	0.437957613	0.512451601	0.006834387	0.070509108	0.021731592
2020-07-26T18:20:00	0.1918	14.907	207.0	0.438203255	0.512872077	0.006842552	0.070593346	0.021757555
2020-07-26T18:25:00	0.1918	14.893	207.0	0.438176918	0.512826987	0.006841676	0.070584311	0.021754770
2020-07-26T18:30:00	0.1905	14.883	207.0	0.434611228	0.506740262	0.006723747	0.069367656	0.021379785
2020-07-26T18:35:00	0.1903	14.872	207.0	0.434039642	0.505767850	0.006704959	0.069173826	0.021320045
2020-07-26T18:40:00	0.1898	14.859	207.0	0.432922300	0.503869599	0.006668325	0.068795882	0.021203559
2020-07-26T18:45:00	0.1899	14.846	207.0	0.433168686	0.504287885	0.006676393	0.068879114	0.021229212
2020-07-26T18:50:00	0.1884	14.835	207.0	0.429045374	0.497310056	0.006542163	0.067494290	0.020802396
2020-07-26T18:55:00	0.1886	14.826	208.0	0.429565741	0.498188059	0.006559011	0.067668111	0.020855969
2020-07-26T19:00:00	0.1893	14.812	208.0	0.431451844	0.501376745	0.006620301	0.068300422	0.021050853
2020-07-26T19:05:00	0.1900	14.799	209.0	0.433335796	0.504571681	0.006681868	0.068935600	0.021246622
2020-07-26T19:10:00	0.1899	14.786	208.0	0.433036599	0.504063622	0.006672067	0.068834485	0.021215457
2020-07-26T19:15:00	0.1897	14.772	209.0	0.432464470	0.503092798	0.006653350	0.068641384	0.021155941
2020-07-26T19:20:00	0.1901	14.756	209.0	0.433529300	0.504900399	0.006688211	0.069001044	0.021266792
2020-07-26T19:25:00	0.1901	14.740	209.0	0.433502889	0.504855527	0.006687345	0.068992110	0.021264038
2020-07-26T19:30:00	0.1905	14.723	209.0	0.434839586	0.507129009	0.006731262	0.069445186	0.021403681
2020-07-26T19:35:00	0.1906	14.709	209.0	0.435085687	0.507548128	0.006739366	0.069528801	0.021429452
2020-07-26T19:40:00	0.1915	14.693	210.0	0.437509763	0.511685435	0.006819516	0.070355686	0.021684306
2020-07-26T19:45:00	0.1925	14.676	210.0	0.440201990	0.516299657	0.006909211	0.071281060	0.021969515
2020-07-26T19:50:00	0.1927	14.661	210.0	0.440718880	0.517187879	0.006926515	0.071459574	0.022024535
2020-07-26T19:55:00	0.1926	14.646	210.0	0.440421002	0.516675916	0.006916540	0.071356665	0.021992817
2020-07-26T20:00:00	0.1928	14.632	210.0	0.440937825	0.517564339	0.006933852	0.071535271	0.022047865
2020-07-26T20:05:00	0.1932	14.617	210.0	0.442259902	0.519387399	0.006972177	0.071930669	0.022169731
2020-07-26T20:10:00	0.1935	14.602	210.0	0.443273959	0.520743860	0.007001068	0.072228725	0.022261595
2020-07-26T20:15:00	0.1927	14.587	210.0	0.440587388	0.516961853	0.006922110	0.071414136	0.022010530
2020-07-26T20:20:00	0.1928	14.575	210.0	0.441110169	0.517850429	0.006939492	0.071593462	0.022065800
2020-07-26T20:25:00	0.1935	14.560	210.0	0.443521730	0.521075415	0.007008136	0.072301643	0.022284068
2020-07-26T20:30:00	0.1937	14.545	210.0	0.444186277	0.521964919	0.007027109	0.072497392	0.022344400
2020-07-26T20:35:00	0.1956	14.531	210.0	0.450779749	0.530809170	0.007216722	0.074453593	0.022947320
2020-07-26T20:40:00	0.1964	14.516	210.0	0.453532552	0.534511814	0.007296618	0.075277860	0.023201367
2020-07-26T20:45:00	0.1961	14.501	210.0	0.452454140	0.533060590	0.007265267	0.074954423	0.023101681
2020-07-26T20:50:00	0.1966	14.487	210.0	0.454161406	0.535358491	0.007314930	0.075466781	0.023259595
2020-07-26T20:55:00	0.1954	14.474	210.0	0.449947747	0.529691265	0.007192660	0.074205343	0.022870807
2020-07-26T21:00:00	0.1942	14.463	210.0	0.445728785	0.524030920	0.007071247	0.072952752	0.022484747
2020-07-26T21:05:00	0.1943	14.453	211.0	0.446043960	0.524453288	0.007080282	0.073045965	0.022513476
2020-07-26T21:10:00	0.1947	14.440	211.0	0.447405701	0.526279066	0.007119384	0.073449371	0.022637810
2020-07-26T21:15:00	0.1954	14.429	211.0	0.450161274	0.529978115	0.007198831	0.074269016	0.022890432
2020-07-26T21:20:00	0.1965	14.417	211.0	0.453959135	0.535086123	0.007309037	0.075405989	0.023240858
2020-07-26T21:25:00	0.1984	14.404	210.0	0.460533447	0.543955288	0.007501751	0.077394180	0.023853638
2020-07-26T21:30:00	0.1986	14.392	210.0	0.461194634	0.544849162	0.007521268	0.077595541	0.023915699
2020-07-26T21:35:00	0.1985	14.381	210.0	0.460813591	0.544333979	0.007510017	0.077479464	0.023879923
2020-07-26T21:40:00	0.1978	14.370	211.0	0.458347101	0.541001977	0.007437389	0.076730169	0.023648983
2020-07-26T21:45:00	0.1977	14.359	210.0	0.457965735	0.540487217	0.007426190	0.076614634	0.023613374
2020-07-26T21:50:00	0.1988	14.347	210.0	0.461754788	0.545606718	0.007537823	0.077766334	0.023968339
2020-07-26T21:55:00	0.1985	14.335	210.0	0.460679012	0.544152051	0.007506046	0.077438488	0.023867294
2020-07-26T22:00:00	0.1981	14.323	210.0	0.459255328	0.542228349	0.007464092	0.077005664	0.023733893
2020-07-26T22:05:00	0.1985	14.311	210.0	0.460799150	0.544314456	0.007509591	0.077475067	0.023878568
2020-07-26T22:10:00	0.1987	14.301	210.0	0.461647666	0.545461827	0.007534656	0.077733658	0.023958268
2020-07-26T22:15:00	0.1983	14.289	211.0	0.460064364	0.543321333	0.007487919	0.077251478	0.023809656
2020-07-26T22:20:00	0.1992	14.278	210.0	0.463344058	0.547757411	0.007584890	0.078251915	0.024118000
2020-07-26T22:25:00	0.1989	14.267	210.0	0.462108859	0.546085694	0.007548297	0.077874387	0.024001642
2020-07-26T22:30:00	0.1996	14.254	210.0	0.464692594	0.549583896	0.007624941	0.078665108	0.024245350
2020-07-26T22:35:00	0.2003	14.242	210.0	0.466927577	0.552614179	0.007691547	0.079352269	0.024457140
2020-07-26T22:40:00	0.2009	14.230	210.0	0.469161079	0.555646413	0.007758394	0.080041916	0.024669696
2020-07-26T22:45:00	0.2002	14.217	210.0	0.466540975	0.552089725	0.007680005	0.079233196	0.024420440
2020-07-26T22:50:00	0.2002	14.205	210.0	0.466694490	0.552297965	0.007684587	0.079280468	0.024435010
2020-07-26T22:55:00	0.2001	14.194	210.0	0.466501181	0.552035748	0.007678817	0.079220944	0.024416664
2020-07-26T23:00:00	0.2015	14.183	210.0	0.471160326	0.558363978	0.007818471	0.080661727	0.024860727
2020-07-26T23:05:00	0.2015	14.171	210.0	0.471313630	0.558572495	0.007823088	0.080709352	0.024875406
2020-07-26T23:10:00	0.2013	14.158	210.0	0.470427796	0.557367886	0.007796432	0.080434353	0.024790649
2020-07-26T23:15:00	0.2010	14.146	210.0	0.469541729	0.556163584	0.007769815	0.080159744	0.024706012
2020-07-26T23:20:00	0.2014	14.133	210.0	0.470734465	0.557784841	0.007805655	0.080529503	0.024819975
2020-07-26T23:25:00	0.2023	14.121	210.0	0.474003803	0.562234573	0.007904312	0.081547330	0.025133679
2020-07-26T23:30:00	0.2027	14.108	210.0	0.475194964	0.563857916	0.007940409	0.081919737	0.025248458
2020-07-26T23:35:00	0.2032	14.096	210.0	0.477077277	0.566425479	0.007997617	0.082509935	0.025430363
2020-07-26T23:40:00	0.2024	14.085	210.0	0.474463309	0.562860665	0.007918227	0.081690891	0.025177926
2020-07-26T23:45:00	0.2041	14.073	210.0	0.480147962	0.570620098	0.008091377	0.083477244	0.025728497
2020-07-26T23:50:00	0.2028	14.062	210.0	0.475807410	0.564693011	0.007959000	0.082111539	0.025307574
2020-07-26T23:55:00	0.2020	14.052	210.0	0.472846294	0.560658175	0.007869313	0.081186247	0.025022390
2020-07-27T00:00:00	0.2023	14.041	210.0	0.474037864	0.562280977	0.007905343	0.081557967	0.025136957
2020-07-27T00:05:00	0.2023	14.031	210.0	0.473844975	0.562018205	0.007899505	0.081497737	0.025118394
2020-07-27T00:10:00	0.2019	14.023	210.0	0.472613616	0.560341421	0.007862286	0.081113758	0.025000048
2020-07-27T00:15:00	0.2012	14.013	210.0	0.470342649	0.557252131	0.007793872	0.080407944	0.024782509
2020-07-27T00:20:00	0.2003	14.004	210.0	0.467029974	0.552753109	0.007694605	0.079383823	0.024466865
2020-07-27T00:25:00	0.1998	13.995	210.0	0.465449201	0.550609292	0.007647457	0.078897403	0.024316946
2020-07-27T00:30:00	0.1976	13.986	210.0	0.457613985	0.540012532	0.007415868	0.076508146	0.023580554
2020-07-27T00:35:00	0.1968	13.976	210.0	0.454984874	0.536467663	0.007338943	0.075714519	0.023335950
2020-07-27T00:40:00	0.1991	13.967	209.0	0.462786371	0.547002488	0.007568358	0.078081351	0.024065431
2020-07-27T00:45:00	0.1990	13.958	210.0	0.462592838	0.546740567	0.007562625	0.078022204	0.024047201
2020-07-27T00:50:00	0.1996	13.949	210.0	0.464482190	0.549298825	0.007618685	0.078600570	0.024225459
2020-07-27T00:55:00	0.1989	13.942	210.0	0.462205739	0.546216768	0.007551164	0.077903965	0.024010759
2020-07-27T01:00:00	0.1972	13.934	209.0	0.456450832	0.538443563	0.007381787	0.076156534	0.023472183
2020-07-27T01:05:00	0.1976	13.926	210.0	0.457648212	0.540058718	0.007416872	0.076518504	0.023583746
2020-07-27T01:10:00	0.1981	13.917	209.0	0.459540341	0.542613335	0.007472482	0.077092217	0.023760570
2020-07-27T01:15:00	0.1974	13.910	210.0	0.456912738	0.539066497	0.007395312	0.076296069	0.023515190
2020-07-27T01:20:00	0.1982	13.901	209.0	0.459848003	0.543028985	0.007481543	0.077185702	0.023789383
2020-07-27T01:25:00	0.1990	13.891	209.0	0.462433473	0.546524909	0.007557905	0.077973515	0.024032195
2020-07-27T01:30:00	0.1994	13.882	209.0	0.463975838	0.548612927	0.007603641	0.078445360	0.024177622
2020-07-27T01:35:00	0.1994	13.873	209.0	0.463782373	0.548350915	0.007597896	0.078386098	0.024159357
2020-07-27T01:40:00	0.1996	13.862	209.0	0.464630138	0.549499273	0.007623084	0.078645948	0.024239445
2020-07-27T01:45:00	0.1995	13.852	209.0	0.464436711	0.549237212	0.007617333	0.078586623	0.024221160
2020-07-27T01:50:00	0.1993	13.843	209.0	0.463549068	0.548034988	0.007590972	0.078314661	0.024137339
2020-07-27T01:55:00	0.1999	13.830	209.0	0.465784809	0.551064273	0.007657455	0.079000550	0.024348737
2020-07-27T02:00:00	0.2008	13.818	209.0	0.468712353	0.555036899	0.007744941	0.079903126	0.024626919
2020-07-27T02:05:00	0.2009	13.805	209.0	0.469212343	0.555716056	0.007759931	0.080057780	0.024674585
2020-07-27T02:10:00	0.2009	13.794	209.0	0.469019178	0.555453649	0.007754138	0.079998014	0.024656165
2020-07-27T02:15:00	0.2005	13.781	209.0	0.467786057	0.553779196	0.007717207	0.079616998	0.024538732
2020-07-27T02:20:00	0.2014	13.768	209.0	0.470711866	0.557754113	0.007804975	0.080522489	0.024817813
2020-07-27T02:25:00	0.2005	13.754	209.0	0.467746278	0.553725199	0.007716017	0.079604721	0.024534948
2020-07-27T02:30:00	0.2002	13.740	209.0	0.466859506	0.552521828	0.007689514	0.079331297	0.024450676
2020-07-27T02:35:00	0.2005	13.727	209.0	0.467706498	0.553671204	0.007714827	0.079592446	0.024531165
2020-07-27T02:40:00	0.2004	13.711	209.0	0.467513247	0.553408911	0.007709048	0.079532825	0.024512789
2020-07-27T02:45:00	0.2002	13.697	209.0	0.466626415	0.552205620	0.007682555	0.079259503	0.024428549
2020-07-27T02:50:00	0.2004	13.681	209.0	0.467473465	0.553354919	0.007707858	0.079520554	0.024509007
2020-07-27T02:55:00	0.2005	13.665	208.0	0.467626937	0.553563215	0.007712447	0.079567897	0.024523599
2020-07-27T03:00:00	0.2004	13.650	208.0	0.467433682	0.553300928	0.007706669	0.079508284	0.024505225
2020-07-27T03:05:00	0.1996	13.634	209.0	0.464465209	0.549275820	0.007618180	0.078595362	0.024223854
2020-07-27T03:10:00	0.1997	13.617	209.0	0.464965828	0.549954146	0.007633068	0.078748958	0.024271194
2020-07-27T03:15:00	0.2000	13.602	208.0	0.466160183	0.551573268	0.007668645	0.079115997	0.024384319
2020-07-27T03:20:00	0.2001	13.586	209.0	0.466313715	0.551781485	0.007673224	0.079163240	0.024398879
2020-07-27T03:25:00	0.2002	13.570	208.0	0.466814060	0.552460172	0.007688157	0.079317297	0.024446361
2020-07-27T03:30:00	0.2012	13.555	208.0	0.470087194	0.556904882	0.007786195	0.080328739	0.024758098
2020-07-27T03:35:00	0.2007	13.540	208.0	0.468507854	0.554759175	0.007738814	0.079839913	0.024607437
2020-07-27T03:40:00	0.2010	13.528	208.0	0.469354432	0.555909098	0.007764194	0.080101757	0.024688139
2020-07-27T03:45:00	0.2016	13.515	208.0	0.471586329	0.558943453	0.007831302	0.080794102	0.024901527
2020-07-27T03:50:00	0.2017	13.503	208.0	0.471739614	0.559151995	0.007835922	0.080841759	0.024916215
2020-07-27T03:55:00	0.2013	13.492	208.0	0.470507487	0.557476229	0.007798828	0.080459073	0.024798268
2020-07-27T04:00:00	0.2009	13.482	207.0	0.469274910	0.555801057	0.007761808	0.080077143	0.024680553
2020-07-27T04:05:00	0.2014	13.471	208.0	0.470801751	0.557876336	0.007807679	0.080550387	0.024826412
2020-07-27T04:10:00	0.2018	13.460	208.0	0.472327902	0.559952527	0.007853663	0.081024791	0.024972628
2020-07-27T04:15:00	0.2022	13.449	208.0	0.473507266	0.561558215	0.007889289	0.081392339	0.025085909
2020-07-27T04:20:00	0.2030	13.442	207.0	0.476415749	0.565522802	0.007977488	0.082302275	0.025366360
2020-07-27T04:25:00	0.2035	13.433	208.0	0.478285012	0.568074373	0.008034429	0.082889724	0.025547418
2020-07-27T04:30:00	0.2035	13.424	208.0	0.478079995	0.567794386	0.008028174	0.082825192	0.025527529
2020-07-27T04:35:00	0.2039	13.416	208.0	0.479602865	0.569874935	0.008074693	0.083305124	0.025675448
2020-07-27T04:40:00	0.2042	13.409	208.0	0.480434308	0.571011634	0.008100148	0.083567731	0.025756386
2020-07-27T04:45:00	0.2046	13.402	208.0	0.481956120	0.573093596	0.008146840	0.084049448	0.025904856
2020-07-27T04:50:00	0.2049	13.395	207.0	0.483132136	0.574703744	0.008183014	0.084422645	0.026019879
2020-07-27T04:55:00	0.2055	13.388	208.0	0.484997698	0.577260258	0.008240561	0.085016344	0.026202863
2020-07-27T05:00:00	0.2062	13.382	207.0	0.487551672	0.580764661	0.008319667	0.085832467	0.026454400
2020-07-27T05:05:00	0.2071	13.375	207.0	0.490448134	0.584745321	0.008409835	0.086762713	0.026741111
2020-07-27T05:10:00	0.2075	13.370	207.0	0.491965466	0.586833298	0.008457262	0.087252016	0.026891919
2020-07-27T05:15:00	0.2085	13.363	207.0	0.495202098	0.591293348	0.008558874	0.088300323	0.027215017
2020-07-27T05:20:00	0.2088	13.357	207.0	0.496373539	0.592909655	0.008595799	0.088681272	0.027332429
2020-07-27T05:25:00	0.2090	13.353	207.0	0.497200888	0.594051860	0.008621925	0.088950816	0.027415505
2020-07-27T05:30:00	0.2091	13.349	207.0	0.497340719	0.594244960	0.008626345	0.088996412	0.027429559
2020-07-27T05:35:00	0.2092	13.344	207.0	0.497824206	0.594912753	0.008641635	0.089154157	0.027478177
2020-07-27T05:40:00	0.2095	13.340	207.0	0.498651202	0.596055436	0.008667820	0.089424299	0.027561438
2020-07-27T05:45:00	0.2097	13.336	207.0	0.499477998	0.597198392	0.008694038	0.089694783	0.027644803
2020-07-27T05:50:00	0.2098	13.334	207.0	0.499961182	0.597866595	0.008709378	0.089853043	0.027693581
2020-07-27T05:55:00	0.2104	13.332	207.0	0.501817542	0.600435536	0.008768438	0.090462362	0.027881379
2020-07-27T06:00:00	0.2104	13.331	207.0	0.501957184	0.600628893	0.008772889	0.090508281	0.027895531
2020-07-27T06:05:00	0.2110	13.333	207.0	0.503812460	0.603199311	0.008832129	0.091119449	0.028083899
2020-07-27T06:10:00	0.2114	13.335	207.0	0.505323855	0.605295344	0.008880536	0.091618852	0.028237820
2020-07-27T06:15:00	0.2113	13.337	207.0	0.505120461	0.605013166	0.008874014	0.091551566	0.028217082
2020-07-27T06:20:00	0.2115	13.340	207.0	0.505602847	0.605682457	0.008889486	0.091711187	0.028266279
2020-07-27T06:25:00	0.2115	13.345	207.0	0.505742334	0.605876025	0.008893962	0.091757369	0.028280512
2020-07-27T06:30:00	0.2113	13.350	207.0	0.504853160	0.604642377	0.008865446	0.091463176	0.028189839
2020-07-27T06:35:00	0.2121	13.356	207.0	0.507734962	0.608642928	0.008958032	0.092418363	0.028484237
2020-07-27T06:40:00	0.2122	13.363	207.0	0.508216980	0.609312724	0.008973565	0.092578614	0.028533628
2020-07-27T06:45:00	0.2128	13.372	207.0	0.510068862	0.611887782	0.009033367	0.093195577	0.028723782
2020-07-27T06:50:00	0.2125	13.381	207.0	0.509180811	0.610652595	0.009004664	0.092899463	0.028632517
2020-07-27T06:55:00	0.2125	13.393	207.0	0.508977646	0.610370102	0.008998105	0.092831786	0.028611658
2020-07-27T07:00:00	0.2126	13.406	207.0	0.509459489	0.611040138	0.009013666	0.092992335	0.028661141
2020-07-27T07:05:00	0.2129	13.419	208.0	0.510626050	0.612663099	0.009051398	0.093381608	0.028781118
2020-07-27T07:10:00	0.2137	13.435	208.0	0.513160909	0.616193474	0.009133659	0.094230273	0.029042685
2020-07-27T07:15:00	0.2140	13.458	208.0	0.514326210	0.617818167	0.009171600	0.094621703	0.029163328
2020-07-27T07:20:00	0.2139	13.534	208.0	0.513781324	0.617058336	0.009153849	0.094438572	0.029106885
2020-07-27T07:25:00	0.2141	13.593	208.0	0.514604470	0.618206286	0.009180671	0.094715291	0.029192173
2020-07-27T07:30:00	0.2141	13.565	209.0	0.514743591	0.618400357	0.009185208	0.094762100	0.029206599
2020-07-27T07:35:00	0.2135	13.577	209.0	0.512488334	0.615256252	0.009111796	0.094004722	0.028973168
2020-07-27T07:40:00	0.2137	13.694	209.0	0.513311790	0.616403775	0.009138567	0.094280909	0.029058292
2020-07-27T07:45:00	0.2146	13.694	209.0	0.516186485	0.620414087	0.009232331	0.095248260	0.029356439
2020-07-27T07:50:00	0.2145	13.652	209.0	0.515983735	0.620131024	0.009225702	0.095179871	0.029335361
2020-07-27T07:55:00	0.2150	13.638	209.0	0.517489769	0.622234422	0.009274999	0.095688451	0.029492110
2020-07-27T08:00:00	0.2155	13.653	209.0	0.519336650	0.624816370	0.009335631	0.096313987	0.029684906
2020-07-27T08:05:00	0.2158	13.689	209.0	0.520499856	0.626443958	0.009373921	0.096709012	0.029806657
2020-07-27T08:10:00	0.2158	13.712	209.0	0.520297361	0.626160542	0.009367249	0.096640186	0.029785444
2020-07-27T08:15:00	0.2158	13.738	209.0	0.520436251	0.626354932	0.009371825	0.096687391	0.029799993
2020-07-27T08:20:00	0.2167	13.773	209.0	0.523304990	0.630373484	0.009466581	0.097664973	0.030101293
2020-07-27T08:25:00	0.2165	13.766	209.0	0.522761527	0.629611684	0.009448594	0.097479397	0.030044097
2020-07-27T08:30:00	0.2166	13.772	209.0	0.523241437	0.630284387	0.009464477	0.097643262	0.030094602
2020-07-27T08:35:00	0.2176	13.783	209.0	0.526448641	0.634784806	0.009570967	0.098741906	0.030433214
2020-07-27T08:40:00	0.2172	13.808	210.0	0.525223928	0.633065276	0.009530232	0.098321646	0.030303686
2020-07-27T08:45:00	0.2168	13.819	210.0	0.523657736	0.630868074	0.009478266	0.097785519	0.030138447
2020-07-27T08:50:00	0.2171	13.824	209.0	0.524819482	0.632497690	0.009516799	0.098183058	0.030260972
2020-07-27T08:55:00	0.2168	13.834	210.0	0.523935240	0.631257238	0.009487463	0.097880405	0.030167691
2020-07-27T09:00:00	0.2164	13.871	210.0	0.522368461	0.629060852	0.009435594	0.097345288	0.030002763
2020-07-27T09:05:00	0.2169	13.892	210.0	0.524212722	0.631646433	0.009496664	0.097975329	0.030196948
2020-07-27T09:10:00	0.2173	13.902	210.0	0.525374281	0.633276309	0.009535228	0.098373191	0.030319573
2020-07-27T09:15:00	0.2173	13.925	210.0	0.525512966	0.633470984	0.009539838	0.098420748	0.030334231
2020-07-27T09:20:00	0.2173	13.952	210.0	0.525651647	0.633665666	0.009544448	0.098468315	0.030348891
2020-07-27T09:25:00	0.2166	13.989	210.0	0.523062440	0.630033459	0.009458551	0.097582128	0.030075759
2020-07-27T09:30:00	0.2160	14.080	211.0	0.521153970	0.627359691	0.009395487	0.096931505	0.029875231
2020-07-27T09:35:00	0.2156	14.096	211.0	0.519585922	0.625165066	0.009343830	0.096398571	0.029710976
2020-07-27T09:40:00	0.2159	14.093	211.0	0.520749044	0.626792770	0.009382133	0.096793742	0.029832771
2020-07-27T09:45:00	0.2159	14.116	211.0	0.520887917	0.626987185	0.009386712	0.096840978	0.029847330
2020-07-27T09:50:00	0.2157	14.144	211.0	0.520002664	0.625748139	0.009357545	0.096540066	0.029754586
2020-07-27T09:55:00	0.2153	14.172	211.0	0.518775653	0.624031802	0.009317193	0.096123762	0.029626277
2020-07-27T10:00:00	0.2157	14.199	211.0	0.519939050	0.625659126	0.009355451	0.096518461	0.029747927
2020-07-27T10:05:00	0.2160	14.215	211.0	0.521144267	0.627346105	0.009395167	0.096928203	0.029874213
2020-07-27T10:10:00	0.2156	14.239	211.0	0.519618448	0.625210569	0.009344900	0.096409611	0.029714378
2020-07-27T10:15:00	0.2158	14.276	211.0	0.520482418	0.626419550	0.009373346	0.096703084	0.029804830
2020-07-27T10:20:00	0.2162	14.318	212.0	0.521687445	0.628106793	0.009413094	0.097113154	0.029931217
2020-07-27T10:25:00	0.2158	14.362	212.0	0.520503259	0.626448720	0.009374033	0.096710169	0.029807013
2020-07-27T10:30:00	0.2158	14.408	212.0	0.520342988	0.626224400	0.009368752	0.096655692	0.029790223
2020-07-27T10:35:00	0.2159	14.414	212.0	0.520865455	0.626955738	0.009385971	0.096833337	0.029844975
2020-07-27T10:40:00	0.2160	14.432	212.0	0.521046538	0.627209267	0.009391943	0.096894945	0.029863963
2020-07-27T10:45:00	0.2155	14.463	212.0	0.519520676	0.625073791	0.009341684	0.096376428	0.029704151
2020-07-27T10:50:00	0.2152	14.502	212.0	0.518335743	0.623416754	0.009302747	0.095974727	0.029580343
2020-07-27T10:55:00	0.2149	14.545	213.0	0.517150400	0.621760283	0.009263879	0.095573729	0.029456752
2020-07-27T11:00:00	0.2141	14.583	213.0	0.514597072	0.618195967	0.009180430	0.094712802	0.029191406
2020-07-27T11:05:00	0.2139	14.616	212.0	0.513752500	0.617018149	0.009152910	0.094428890	0.029103901
2020-07-27T11:10:00	0.2145	14.645	213.0	0.515985516	0.620133510	0.009225761	0.095180472	0.029335546
2020-07-27T11:15:00	0.2132	14.668	213.0	0.511378234	0.613710147	0.009075769	0.093633037	0.028858611
2020-07-27T11:20:00	0.2132	14.708	213.0	0.511559819	0.613962983	0.009081657	0.093693785	0.028877334
2020-07-27T11:25:00	0.2131	14.755	213.0	0.511056831	0.613262695	0.009065352	0.093525562	0.028825486
2020-07-27T11:30:00	0.2123	14.776	214.0	0.508498956	0.609704636	0.008982658	0.092672423	0.028562541
2020-07-27T11:35:00	0.2125	14.803	214.0	0.509023231	0.610433482	0.008999576	0.092846968	0.028616337
2020-07-27T11:40:00	0.2113	14.850	214.0	0.505092458	0.604974318	0.008873116	0.091542304	0.028214227
2020-07-27T11:45:00	0.2106	14.893	214.0	0.502530116	0.601422373	0.008791162	0.090696798	0.027953634
2020-07-27T11:50:00	0.2114	14.938	214.0	0.505456286	0.605479090	0.008884784	0.091662675	0.028251327
2020-07-27T11:55:00	0.2127	14.978	215.0	0.509750013	0.611444222	0.009023056	0.093089205	0.028690997
2020-07-27T12:00:00	0.2126	15.026	215.0	0.509589239	0.611220596	0.009017859	0.093035592	0.028674473
2020-07-27T12:05:00	0.2121	15.074	215.0	0.507715635	0.608616075	0.008957409	0.092411941	0.028482258
2020-07-27T12:10:00	0.2113	15.110	215.0	0.505155260	0.605061443	0.008875130	0.091563077	0.028220629
2020-07-27T12:15:00	0.2113	15.129	216.0	0.504994270	0.604838113	0.008869969	0.091509833	0.028204219
2020-07-27T12:20:00	0.2104	15.162	216.0	0.501745425	0.600335684	0.008766140	0.090438653	0.027874071
2020-07-27T12:25:00	0.2105	15.201	216.0	0.502270736	0.601063113	0.008782887	0.090611427	0.027927322
2020-07-27T12:30:00	0.2099	15.234	216.0	0.500049713	0.597989046	0.008712190	0.089882055	0.027702522
2020-07-27T12:35:00	0.2100	15.267	216.0	0.500575285	0.598716120	0.008728893	0.090054385	0.027755636
2020-07-27T12:40:00	0.2097	15.309	216.0	0.499383773	0.597068108	0.008691048	0.089663937	0.027635296
2020-07-27T12:45:00	0.2093	15.344	216.0	0.498191845	0.595420662	0.008653271	0.089274198	0.027515175
2020-07-27T12:50:00	0.2091	15.377	217.0	0.497343210	0.594248401	0.008626424	0.088997224	0.027429809
2020-07-27T12:55:00	0.2093	15.401	217.0	0.498212822	0.595449646	0.008653935	0.089281049	0.027517287
2020-07-27T13:00:00	0.2083	15.427	217.0	0.494613558	0.590481720	0.008540352	0.088109238	0.027156123
2020-07-27T13:05:00	0.2073	15.479	217.0	0.491354800	0.585992749	0.008438159	0.087054927	0.026831174
2020-07-27T13:10:00	0.2072	15.505	217.0	0.490848826	0.585296527	0.008422346	0.086891794	0.026780895
2020-07-27T13:15:00	0.2081	15.498	217.0	0.494129070	0.589813794	0.008525120	0.087952092	0.027107689
2020-07-27T13:20:00	0.2076	15.516	217.0	0.492246956	0.587220856	0.008466076	0.087342941	0.026919943
2020-07-27T13:25:00	0.2075	15.543	218.0	0.492085355	0.586998355	0.008461015	0.087290736	0.026903853
2020-07-27T13:30:00	0.2072	15.567	218.0	0.490890870	0.585354372	0.008423660	0.086905344	0.026785071
2020-07-27T13:35:00	0.2068	15.599	218.0	0.489351481	0.583237381	0.008375639	0.086409920	0.026632376
2020-07-27T13:40:00	0.2066	15.624	218.0	0.488845208	0.582541561	0.008359875	0.086247292	0.026582253
2020-07-27T13:45:00	0.2065	15.647	218.0	0.488338860	0.581845842	0.008344124	0.086084793	0.026532169
2020-07-27T13:50:00	0.2063	15.671	218.0	0.487832436	0.581150225	0.008328386	0.085922421	0.026482125
2020-07-27T13:55:00	0.2073	15.697	218.0	0.491115589	0.585663568	0.008430681	0.086977783	0.026807398
2020-07-27T14:00:00	0.2071	15.733	218.0	0.490609579	0.584967395	0.008414875	0.086814710	0.026757137
2020-07-27T14:05:00	0.2071	15.766	218.0	0.490447900	0.584744999	0.008409827	0.086762638	0.026741088
2020-07-27T14:10:00	0.2067	15.790	219.0	0.489252839	0.583101791	0.008372566	0.086378221	0.026622607
2020-07-27T14:15:00	0.2062	15.806	219.0	0.487368024	0.580512496	0.008313966	0.085773653	0.026436273
2020-07-27T14:20:00	0.2052	15.816	219.0	0.484102308	0.576032893	0.008212916	0.084731136	0.026114959
2020-07-27T14:25:00	0.2052	15.831	219.0	0.483940319	0.575810914	0.008207919	0.084679589	0.026099072
2020-07-27T14:30:00	0.2050	15.846	219.0	0.483433238	0.575116179	0.008192288	0.084518329	0.026049370
2020-07-27T14:35:00	0.2061	15.858	219.0	0.487065396	0.580097021	0.008304576	0.085676779	0.026406415
2020-07-27T14:40:00	0.2058	15.865	219.0	0.486213980	0.578928513	0.008278187	0.085404525	0.026322504
2020-07-27T14:45:00	0.2052	15.863	219.0	0.483982449	0.575868644	0.008209218	0.084692994	0.026103203
2020-07-27T14:50:00	0.2049	15.862	219.0	0.483130259	0.574701175	0.008182956	0.084422049	0.026019695
2020-07-27T14:55:00	0.2043	15.863	219.0	0.480896697	0.571644024	0.008114321	0.083713952	0.025801453
2020-07-27T15:00:00	0.2050	15.859	219.0	0.483151329	0.574730033	0.008183605	0.084428743	0.026021759
2020-07-27T15:05:00	0.2038	15.849	219.0	0.479190551	0.569311448	0.008062085	0.083175048	0.025635358
2020-07-27T15:10:00	0.2043	15.845	220.0	0.480755640	0.571451088	0.008109996	0.083669332	0.025787701
2020-07-27T15:15:00	0.2040	15.843	220.0	0.479902639	0.570284704	0.008083866	0.083399759	0.025704616
2020-07-27T15:20:00	0.2043	15.831	220.0	0.480776724	0.571479926	0.008110642	0.083676001	0.025789756
2020-07-27T15:25:00	0.2036	15.816	220.0	0.478541609	0.568424849	0.008042261	0.082970525	0.025572322
2020-07-27T15:30:00	0.2037	15.800	220.0	0.478724954	0.568675305	0.008047860	0.083028283	0.025590123
2020-07-27T15:35:00	0.2032	15.790	219.0	0.477180033	0.566565725	0.008000745	0.082542215	0.025440312
2020-07-27T15:40:00	0.2040	15.781	219.0	0.479782631	0.570120653	0.008080194	0.083361867	0.025692937
2020-07-27T15:45:00	0.2050	15.776	222.0	0.483418698	0.575096260	0.008191840	0.084513707	0.026047945
2020-07-27T15:50:00	0.2040	15.773	222.0	0.479803721	0.570149483	0.008080839	0.083368526	0.025694989
2020-07-27T15:55:00	0.2032	15.765	220.0	0.477222247	0.566623342	0.008002031	0.082555478	0.025444400
2020-07-27T16:00:00	0.2029	15.754	220.0	0.476022515	0.564986387	0.007965535	0.082178957	0.025328353
2020-07-27T16:05:00	0.2024	15.744	220.0	0.474234504	0.562548890	0.007911297	0.081619391	0.025155889
2020-07-27T16:10:00	0.2019	15.732	223.0	0.472445547	0.560112650	0.007857213	0.081061419	0.024983916
2020-07-27T16:15:00	0.2015	15.719	220.0	0.471348386	0.558619771	0.007824134	0.080720151	0.024878734
2020-07-27T16:20:00	0.2016	15.705	220.0	0.471636379	0.559011543	0.007832810	0.080809661	0.024906322
2020-07-27T16:25:00	0.2018	15.687	222.0	0.472270607	0.559874549	0.007851934	0.081006957	0.024967131
2020-07-27T16:30:00	0.2020	15.674	219.0	0.472904716	0.560737713	0.007871077	0.081204452	0.025028001
2020-07-27T16:35:00	0.2015	15.662	219.0	0.471115055	0.558302406	0.007817108	0.080647665	0.024856394
2020-07-27T16:40:00	0.2015	15.656	219.0	0.471056720	0.558223069	0.007815352	0.080629548	0.024850810
2020-07-27T16:45:00	0.2013	15.646	219.0	0.470651993	0.557672704	0.007803174	0.080503909	0.024812087
2020-07-27T16:50:00	0.2012	15.632	219.0	0.470247219	0.557122403	0.007791004	0.080378351	0.024773388
2020-07-27T16:55:00	0.2019	15.615	220.0	0.472613184	0.560340834	0.007862273	0.081113624	0.025000007
2020-07-27T17:00:00	0.2020	15.599	220.0	0.472901070	0.560732749	0.007870967	0.081203316	0.025027651
2020-07-27T17:05:00	0.2018	15.585	219.0	0.472150328	0.559710859	0.007848306	0.080969522	0.024955593
2020-07-27T17:10:00	0.2021	15.571	219.0	0.473130631	0.561045311	0.007877903	0.081274872	0.025049705
2020-07-27T17:15:00	0.2020	15.559	221.0	0.473072331	0.560965928	0.007876141	0.081256696	0.025044103
2020-07-27T17:20:00	0.2025	15.546	219.0	0.474744414	0.563243763	0.007926746	0.081778777	0.025205013
2020-07-27T17:25:00	0.2034	15.536	219.0	0.477798658	0.567410224	0.008019595	0.082736679	0.025500248
2020-07-27T17:30:00	0.2030	15.523	219.0	0.476357427	0.565443236	0.007975715	0.082283979	0.025360722
2020-07-27T17:35:00	0.2030	15.513	219.0	0.476299182	0.565363779	0.007973944	0.082265710	0.025355091
2020-07-27T17:40:00	0.2036	15.502	219.0	0.478315312	0.568115756	0.008035354	0.082899263	0.025550358
2020-07-27T17:45:00	0.2027	15.492	219.0	0.475490936	0.564261448	0.007949391	0.082012400	0.025277018
2020-07-27T17:50:00	0.2027	15.483	219.0	0.475432676	0.564182011	0.007947622	0.081994156	0.025271395
2020-07-27T17:55:00	0.2030	15.471	219.0	0.476412028	0.565517726	0.007977375	0.082301107	0.025366001
2020-07-27T18:00:00	0.2020	15.458	219.0	0.472893777	0.560722820	0.007870747	0.081201043	0.025026950
2020-07-27T18:05:00	0.2017	15.447	218.0	0.471796761	0.559229748	0.007837644	0.080859530	0.024921693
2020-07-27T18:10:00	0.2017	15.434	218.0	0.471738438	0.559150395	0.007835886	0.080841393	0.024916103
2020-07-27T18:15:00	0.2024	15.420	218.0	0.474449396	0.562841706	0.007917806	0.081686543	0.025176586
2020-07-27T18:20:00	0.2024	15.405	218.0	0.474391118	0.562762292	0.007916040	0.081668329	0.025170972
2020-07-27T18:25:00	0.2018	15.391	218.0	0.472256019	0.559854695	0.007851494	0.081002416	0.024965731
2020-07-27T18:30:00	0.2030	15.376	218.0	0.476350141	0.565433297	0.007975493	0.082281694	0.025360017
2020-07-27T18:35:00	0.2032	15.363	218.0	0.476983486	0.566297477	0.007994761	0.082480478	0.025421284
2020-07-27T18:40:00	0.2038	15.349	218.0	0.478999208	0.569049996	0.008056238	0.083114718	0.025616763
2020-07-27T18:45:00	0.2036	15.334	218.0	0.478595432	0.568498370	0.008043904	0.082987478	0.025577547
2020-07-27T18:50:00	0.2036	15.319	218.0	0.478537225	0.568418861	0.008042127	0.082969144	0.025571896
2020-07-27T18:55:00	0.2033	15.304	218.0	0.477442039	0.566923358	0.008008726	0.082624549	0.025465688
2020-07-27T19:00:00	0.2037	15.287	218.0	0.478766405	0.568731932	0.008049126	0.083041344	0.025594149
2020-07-27T19:05:00	0.2047	15.269	218.0	0.482162272	0.573375770	0.008153176	0.084114809	0.025925001
2020-07-27T19:10:00	0.2045	15.251	218.0	0.481413583	0.572351149	0.008130179	0.083877555	0.025851877
2020-07-27T19:15:00	0.2048	15.234	218.0	0.482736397	0.574161793	0.008170832	0.084296970	0.025981145
2020-07-27T19:20:00	0.2056	15.215	218.0	0.485438566	0.577864817	0.008254189	0.085156947	0.026246198
2020-07-27T19:25:00	0.2057	15.197	218.0	0.485725364	0.578258183	0.008263061	0.085248475	0.026274408
2020-07-27T19:30:00	0.2059	15.180	218.0	0.486356959	0.579124701	0.008282615	0.085450214	0.026336586
2020-07-27T19:35:00	0.2065	15.163	217.0	0.488367118	0.581884663	0.008345003	0.086093857	0.026534963
2020-07-27T19:40:00	0.2064	15.143	217.0	0.488309079	0.581804930	0.008343198	0.086075240	0.026529225
2020-07-27T19:45:00	0.2072	15.125	218.0	0.491006819	0.585513905	0.008427282	0.086942717	0.026796590
2020-07-27T19:50:00	0.2067	15.108	217.0	0.489226695	0.583065856	0.008371752	0.086369821	0.026620018
2020-07-27T19:55:00	0.2068	15.091	217.0	0.489513173	0.583459652	0.008380676	0.086461891	0.026648395
2020-07-27T20:00:00	0.2053	15.075	217.0	0.484283867	0.576281715	0.008218517	0.084788930	0.026132772
2020-07-27T20:05:00	0.2043	15.058	217.0	0.480773790	0.571475914	0.008110552	0.083675073	0.025789470
2020-07-27T20:10:00	0.2036	15.041	217.0	0.478642716	0.568562962	0.008045348	0.083002374	0.025582138
2020-07-27T20:15:00	0.2040	15.025	217.0	0.479966612	0.570372161	0.008085825	0.083419961	0.025710842
2020-07-27T20:20:00	0.2042	15.007	217.0	0.480599281	0.571237241	0.008105203	0.083619886	0.025772461
2020-07-27T20:25:00	0.2045	14.991	217.0	0.481577139	0.572574946	0.008135200	0.083929357	0.025867843
2020-07-27T20:30:00	0.2038	14.976	217.0	0.479101045	0.569189143	0.008059350	0.083146824	0.025626659
2020-07-27T20:35:00	0.2037	14.960	217.0	0.478697281	0.568637500	0.008047014	0.083019564	0.025587436
2020-07-27T20:40:00	0.2040	14.944	217.0	0.480021155	0.570446728	0.008087494	0.083437188	0.025716152
2020-07-27T20:45:00	0.2043	14.927	216.0	0.480999181	0.571784210	0.008117464	0.083746377	0.025811447
2020-07-27T20:50:00	0.2038	14.910	217.0	0.479213798	0.569343214	0.008062796	0.083182379	0.025637617
2020-07-27T20:55:00	0.2032	14.893	216.0	0.477081741	0.566431572	0.007997752	0.082511338	0.025430796
2020-07-27T21:00:00	0.2043	14.875	217.0	0.480824683	0.571545522	0.008112113	0.083691170	0.025794431
2020-07-27T21:05:00	0.2041	14.859	216.0	0.480075697	0.570521296	0.008089164	0.083454415	0.025721461
2020-07-27T21:10:00	0.2042	14.839	216.0	0.480708345	0.571386403	0.008108546	0.083654374	0.025783091
2020-07-27T21:15:00	0.2030	14.820	216.0	0.476503015	0.565641860	0.007980142	0.082329654	0.025374799
2020-07-27T21:20:00	0.2017	14.800	216.0	0.471946193	0.559433073	0.007842149	0.080906008	0.024936018
2020-07-27T21:25:00	0.2017	14.779	217.0	0.471887872	0.559353717	0.007840391	0.080887867	0.024930426
2020-07-27T21:30:00	0.2025	14.758	216.0	0.474598711	0.563045187	0.007922330	0.081733218	0.025190972
2020-07-27T21:35:00	0.2026	14.737	216.0	0.474886427	0.563437326	0.007931051	0.081823195	0.025218703
2020-07-27T21:40:00	0.2021	14.718	216.0	0.473443955	0.561471989	0.007887374	0.081372587	0.025079822
2020-07-27T21:45:00	0.2018	14.698	216.0	0.472347117	0.559978680	0.007854243	0.081030773	0.024974471
2020-07-27T21:50:00	0.2005	14.678	216.0	0.467784683	0.553777330	0.007717165	0.079616574	0.024538601
2020-07-27T21:55:00	0.2001	14.658	215.0	0.466339172	0.551816011	0.007673984	0.079171075	0.024401294
2020-07-27T22:00:00	0.2002	14.639	216.0	0.466627593	0.552207218	0.007682590	0.079259866	0.024428661
2020-07-27T22:05:00	0.2006	14.618	216.0	0.468152531	0.554276703	0.007728173	0.079730139	0.024573603
2020-07-27T22:10:00	0.1998	14.599	215.0	0.465169168	0.550229722	0.007639119	0.078811387	0.024290435
2020-07-27T22:15:00	0.1989	14.582	215.0	0.462183161	0.546186221	0.007550496	0.077897071	0.024008634
2020-07-27T22:20:00	0.1991	14.564	215.0	0.463015796	0.547313024	0.007575157	0.078151497	0.024087050
2020-07-27T22:25:00	0.1998	14.546	215.0	0.465236368	0.550320804	0.007641120	0.078832025	0.024296796
2020-07-27T22:30:00	0.2013	14.530	215.0	0.470574660	0.557567557	0.007800848	0.080479913	0.024804691
2020-07-27T22:35:00	0.2010	14.512	215.0	0.469326603	0.555871289	0.007763359	0.080093143	0.024685485
2020-07-27T22:40:00	0.2017	14.495	218.0	0.471889324	0.559355691	0.007840435	0.080888319	0.024930565
2020-07-27T22:45:00	0.2014	14.480	220.0	0.470988144	0.558129807	0.007813288	0.080608254	0.024844247
2020-07-27T22:50:00	0.2008	14.466	215.0	0.468700576	0.555020904	0.007744588	0.079899485	0.024625797
2020-07-27T22:55:00	0.2007	14.452	217.0	0.468491875	0.554737476	0.007738335	0.079834975	0.024605915
2020-07-27T23:00:00	0.1999	14.438	216.0	0.465508812	0.550690100	0.007649232	0.078915719	0.024322591
2020-07-27T23:05:00	0.1993	14.427	218.0	0.463564677	0.548056124	0.007591435	0.078319440	0.024138812
2020-07-27T23:10:00	0.1992	14.416	215.0	0.463355658	0.547773115	0.007585234	0.078255464	0.024119094
2020-07-27T23:15:00	0.1993	14.405	215.0	0.463493787	0.547960135	0.007589332	0.078297739	0.024132124
2020-07-27T23:20:00	0.1995	14.396	215.0	0.464326098	0.549087363	0.007614046	0.078552707	0.024210707
2020-07-27T23:25:00	0.2001	14.387	215.0	0.466198960	0.551625854	0.007669801	0.079127928	0.024387996
2020-07-27T23:30:00	0.2004	14.377	215.0	0.467377365	0.553224499	0.007704986	0.079490916	0.024499872
2020-07-27T23:35:00	0.2000	14.368	215.0	0.466128124	0.551529793	0.007667689	0.079106134	0.024381279
2020-07-27T23:40:00	0.1995	14.361	218.0	0.464184347	0.548895347	0.007609834	0.078509255	0.024197315
2020-07-27T23:45:00	0.1992	14.353	218.0	0.463281106	0.547672182	0.007583023	0.078232652	0.024112063
2020-07-27T23:50:00	0.1991	14.347	216.0	0.462724863	0.546919243	0.007566535	0.078062551	0.024059636
2020-07-27T23:55:00	0.1986	14.339	215.0	0.461126526	0.544757070	0.007519257	0.077574787	0.023909303
2020-07-28T00:00:00	0.1981	14.333	215.0	0.459527430	0.542595893	0.007472102	0.077088295	0.023759361
2020-07-28T00:05:00	0.1981	14.327	215.0	0.459318159	0.542313214	0.007465941	0.077024740	0.023739773
2020-07-28T00:10:00	0.1979	14.318	215.0	0.458761261	0.541561134	0.007449560	0.076855737	0.023687685
2020-07-28T00:15:00	0.1979	14.311	215.0	0.458551943	0.541278517	0.007443407	0.076792262	0.023668121
2020-07-28T00:20:00	0.1984	14.303	215.0	0.460428019	0.543812789	0.007498641	0.077362095	0.023843749
2020-07-28T00:25:00	0.1980	14.296	214.0	0.459176197	0.542121474	0.007461764	0.076981641	0.023726490
2020-07-28T00:30:00	0.1980	14.289	215.0	0.458966905	0.541838823	0.007455607	0.076918123	0.023706913
2020-07-28T00:35:00	0.1980	14.282	214.0	0.459105214	0.542025607	0.007459675	0.076960096	0.023719849
2020-07-28T00:40:00	0.1984	14.276	214.0	0.460286104	0.543620987	0.007494456	0.077318918	0.023830442
2020-07-28T00:45:00	0.1988	14.269	214.0	0.461813914	0.545686695	0.007539572	0.077784372	0.023973899
2020-07-28T00:50:00	0.1987	14.261	214.0	0.461604785	0.545403829	0.007533388	0.077720579	0.023954237
2020-07-28T00:55:00	0.1986	14.253	214.0	0.461048266	0.544651254	0.007516946	0.077550943	0.023901954
2020-07-28T01:00:00	0.1984	14.246	214.0	0.460491654	0.543898799	0.007500518	0.077381460	0.023849718
2020-07-28T01:05:00	0.1980	14.239	214.0	0.459239856	0.542207453	0.007463637	0.077000966	0.023732446
2020-07-28T01:10:00	0.1979	14.231	214.0	0.458682946	0.541455390	0.007447258	0.076831985	0.023680364
2020-07-28T01:15:00	0.1977	14.224	214.0	0.458125942	0.540703447	0.007430893	0.076663158	0.023628330
2020-07-28T01:20:00	0.1979	14.216	214.0	0.458611952	0.541359536	0.007445171	0.076810457	0.023673729
2020-07-28T01:25:00	0.1980	14.210	213.0	0.459097891	0.542015717	0.007459460	0.076957873	0.023719164
2020-07-28T01:30:00	0.1979	14.203	214.0	0.458888594	0.541733073	0.007453304	0.076894363	0.023699589
2020-07-28T01:35:00	0.1977	14.197	214.0	0.457983930	0.540511773	0.007426724	0.076620144	0.023615072
2020-07-28T01:40:00	0.1972	14.191	214.0	0.456383338	0.538352553	0.007379812	0.076136155	0.023465903
2020-07-28T01:45:00	0.1972	14.190	214.0	0.456173871	0.538070130	0.007373683	0.076072928	0.023446415
2020-07-28T01:50:00	0.1975	14.183	214.0	0.457355791	0.539664164	0.007408296	0.076430027	0.023556477
2020-07-28T01:55:00	0.1973	14.175	214.0	0.456798568	0.538912509	0.007391968	0.076261568	0.023504556
2020-07-28T02:00:00	0.1969	14.169	213.0	0.455197411	0.536754026	0.007345147	0.075778524	0.023355677
2020-07-28T02:05:00	0.1970	14.163	213.0	0.455683844	0.537409561	0.007359356	0.075925114	0.023400858
2020-07-28T02:10:00	0.1965	14.158	214.0	0.453734020	0.534783034	0.007302482	0.075338360	0.023220014
2020-07-28T02:15:00	0.1959	14.153	214.0	0.451783063	0.532157981	0.007245792	0.074753499	0.023039754
2020-07-28T02:20:00	0.1958	14.149	214.0	0.451573310	0.531875932	0.007239710	0.074690751	0.023020415
2020-07-28T02:25:00	0.1957	14.145	213.0	0.451015126	0.531125529	0.007223537	0.074523898	0.022968989
2020-07-28T02:30:00	0.1953	14.142	214.0	0.449759790	0.529438795	0.007187229	0.074149317	0.022853540
2020-07-28T02:35:00	0.1954	14.141	214.0	0.449898479	0.529625084	0.007191236	0.074190655	0.022866281
2020-07-28T02:40:00	0.1955	14.137	214.0	0.450385681	0.530279620	0.007205320	0.074335962	0.022911065
2020-07-28T02:45:00	0.1952	14.135	214.0	0.449478723	0.529061309	0.007179112	0.074065576	0.022827730
2020-07-28T02:50:00	0.1953	14.134	214.0	0.449617423	0.529247583	0.007183117	0.074106895	0.022840465
2020-07-28T02:55:00	0.1952	14.132	213.0	0.449407534	0.528965709	0.007177057	0.074044374	0.022821195
2020-07-28T03:00:00	0.1946	14.130	213.0	0.447105234	0.525876084	0.007110747	0.073360267	0.022610347
2020-07-28T03:05:00	0.1954	14.129	213.0	0.450033491	0.529806448	0.007195138	0.074230908	0.022878687
2020-07-28T03:10:00	0.1961	14.127	213.0	0.452610942	0.533271542	0.007269822	0.075001408	0.023116162
2020-07-28T03:15:00	0.1960	14.125	213.0	0.452052930	0.532520914	0.007253621	0.074834267	0.023064648
2020-07-28T03:20:00	0.1968	14.122	213.0	0.454976873	0.536456882	0.007338709	0.075712110	0.023335207
2020-07-28T03:25:00	0.1972	14.121	213.0	0.456159213	0.538050367	0.007373254	0.076068504	0.023445052
2020-07-28T03:30:00	0.1973	14.121	214.0	0.456645507	0.538706084	0.007387486	0.076215327	0.023490304
2020-07-28T03:35:00	0.1978	14.119	213.0	0.458522647	0.541238965	0.007442546	0.076783380	0.023665383
2020-07-28T03:40:00	0.1977	14.117	213.0	0.457965617	0.540487057	0.007426187	0.076614598	0.023613363
2020-07-28T03:45:00	0.1980	14.117	213.0	0.459146907	0.542081914	0.007460902	0.076972750	0.023723749
2020-07-28T03:50:00	0.1983	14.115	213.0	0.459980293	0.543207732	0.007485441	0.077225917	0.023801778
2020-07-28T03:55:00	0.1993	14.114	213.0	0.463591689	0.548092699	0.007592237	0.078327709	0.024141361
2020-07-28T04:00:00	0.1992	14.112	213.0	0.463382671	0.547809688	0.007586036	0.078263731	0.024121642
2020-07-28T04:05:00	0.1994	14.111	213.0	0.463981734	0.548620913	0.007603816	0.078447166	0.024178179
2020-07-28T04:10:00	0.1989	14.112	213.0	0.462150593	0.546142157	0.007549532	0.077887128	0.024005569
2020-07-28T04:15:00	0.1979	14.115	213.0	0.458580648	0.541317272	0.007444251	0.076800965	0.023670803
2020-07-28T04:20:00	0.1976	14.119	213.0	0.457789924	0.540249948	0.007421030	0.076561400	0.023596967
2020-07-28T04:25:00	0.1978	14.123	213.0	0.458389984	0.541059867	0.007438649	0.076743166	0.023652989
2020-07-28T04:30:00	0.1972	14.126	213.0	0.456207917	0.538116030	0.007374679	0.076083203	0.023449582
2020-07-28T04:35:00	0.1968	14.131	213.0	0.454720604	0.536111646	0.007331232	0.075634971	0.023311432
2020-07-28T04:40:00	0.1962	14.135	213.0	0.452884410	0.533639497	0.007277768	0.075083388	0.023141429
2020-07-28T04:45:00	0.1958	14.141	214.0	0.451395624	0.531637031	0.007234560	0.074637617	0.023004039
2020-07-28T04:50:00	0.1954	14.147	214.0	0.449906177	0.529635425	0.007191458	0.074192950	0.022866988
2020-07-28T04:55:00	0.1945	14.155	213.0	0.447020956	0.525763065	0.007108325	0.073335283	0.022602647
2020-07-28T05:00:00	0.1944	14.164	213.0	0.446576417	0.525167016	0.007095559	0.073203573	0.022562052
2020-07-28T05:05:00	0.1940	14.174	213.0	0.445084826	0.523168187	0.007052804	0.072762481	0.022426103
2020-07-28T05:10:00	0.1928	14.184	213.0	0.440861433	0.517432972	0.006931291	0.071508854	0.022039723
2020-07-28T05:15:00	0.1925	14.193	213.0	0.440243801	0.516371478	0.006910610	0.071295490	0.021973962
2020-07-28T05:20:00	0.1920	14.203	213.0	0.438810553	0.513912334	0.006862764	0.070801870	0.021821824
2020-07-28T05:25:00	0.1919	14.212	214.0	0.438464107	0.513318771	0.006851229	0.070682867	0.021785146
2020-07-28T05:30:00	0.1921	14.220	214.0	0.439205137	0.514588781	0.006875916	0.070937558	0.021863644
2020-07-28T05:35:00	0.1916	14.232	214.0	0.437771000	0.512132283	0.006828188	0.070445154	0.021711881
2020-07-28T05:40:00	0.1920	14.246	214.0	0.438784225	0.513867216	0.006861887	0.070792822	0.021819035
2020-07-28T05:45:00	0.1924	14.259	214.0	0.439796838	0.515603970	0.006895667	0.071141328	0.021926448
2020-07-28T05:50:00	0.1921	14.270	214.0	0.439178815	0.514543645	0.006875038	0.070928502	0.021860853
2020-07-28T05:55:00	0.1923	14.277	214.0	0.439647825	0.515348213	0.006890690	0.071089977	0.021910621
2020-07-28T06:00:00	0.1922	14.286	214.0	0.439301552	0.514754135	0.006879132	0.070970737	0.021873870
2020-07-28T06:05:00	0.1923	14.300	214.0	0.439498797	0.515092496	0.006885714	0.071038644	0.021894800
2020-07-28T06:10:00	0.1918	14.317	214.0	0.438336874	0.513100868	0.006846996	0.070639193	0.021771685
2020-07-28T06:15:00	0.1915	14.334	214.0	0.437446250	0.511576825	0.006817408	0.070333944	0.021677605
2020-07-28T06:20:00	0.1907	14.354	215.0	0.435193450	0.507731703	0.006742917	0.069565433	0.021440742
2020-07-28T06:25:00	0.1908	14.373	215.0	0.435663578	0.508532957	0.006758421	0.069725385	0.021490041
2020-07-28T06:30:00	0.1901	14.394	215.0	0.433681085	0.505158318	0.006693190	0.069052405	0.021282622
2020-07-28T06:35:00	0.1906	14.411	215.0	0.434969307	0.507349908	0.006735533	0.069489253	0.021417263
2020-07-28T06:40:00	0.1905	14.424	214.0	0.434622064	0.506758704	0.006724103	0.069371333	0.021380919
2020-07-28T06:45:00	0.1902	14.436	215.0	0.434002123	0.505704051	0.006703727	0.069161114	0.021316127
2020-07-28T06:50:00	0.1905	14.452	215.0	0.434745135	0.506968202	0.006728153	0.069413113	0.021393795
2020-07-28T06:55:00	0.1904	14.477	215.0	0.434397845	0.506377135	0.006716729	0.069295257	0.021357471
2020-07-28T07:00:00	0.1908	14.489	215.0	0.435413118	0.508106015	0.006750159	0.069640143	0.021463768
2020-07-28T07:05:00	0.1902	14.510	215.0	0.433975719	0.505659157	0.006702860	0.069152169	0.021313370
2020-07-28T07:10:00	0.1897	14.530	215.0	0.432537075	0.503215948	0.006655723	0.068665871	0.021163488
2020-07-28T07:15:00	0.1898	14.539	215.0	0.432735123	0.503551944	0.006662200	0.068732692	0.021184083
2020-07-28T07:20:00	0.1891	14.551	215.0	0.431022285	0.500649653	0.006606311	0.068156097	0.021006371
2020-07-28T07:25:00	0.1886	14.567	215.0	0.429581068	0.498213931	0.006559508	0.067673235	0.020857548
2020-07-28T07:30:00	0.1878	14.599	215.0	0.427317532	0.494400109	0.006486409	0.066919088	0.020625113
2020-07-28T07:35:00	0.1871	14.627	215.0	0.425324977	0.491054634	0.006422474	0.066259484	0.020421817
2020-07-28T07:40:00	0.1865	14.638	215.0	0.423878742	0.488633318	0.006376311	0.065783223	0.020275028
2020-07-28T07:45:00	0.1863	14.636	216.0	0.423254737	0.487590385	0.006356455	0.065578377	0.020211893
2020-07-28T07:50:00	0.1860	14.708	216.0	0.422355928	0.486090053	0.006327922	0.065284003	0.020121164
2020-07-28T07:55:00	0.1858	14.722	216.0	0.421731337	0.485048776	0.006308140	0.065079915	0.020058262
2020-07-28T08:00:00	0.1846	14.748	216.0	0.418631418	0.479896748	0.006210516	0.064072745	0.019747842
2020-07-28T08:05:00	0.1851	14.760	216.0	0.419931529	0.482054285	0.006251347	0.064493990	0.019877674
2020-07-28T08:10:00	0.1851	14.779	216.0	0.419856120	0.481929015	0.006248974	0.064469511	0.019870130
2020-07-28T08:15:00	0.1856	14.862	217.0	0.421430015	0.484546816	0.006298610	0.064981595	0.020027959
2020-07-28T08:20:00	0.1849	14.918	220.0	0.419430230	0.481221825	0.006235584	0.064331367	0.019827552
2020-07-28T08:25:00	0.1856	14.935	217.0	0.421279332	0.484295895	0.006293847	0.064932462	0.020012815
2020-07-28T08:30:00	0.1852	14.939	217.0	0.420104481	0.482341650	0.006256791	0.064550154	0.019894984
2020-07-28T08:35:00	0.1853	14.956	217.0	0.420578951	0.483130423	0.006271740	0.064704386	0.019942520
2020-07-28T08:40:00	0.1859	15.014	217.0	0.422152143	0.485750199	0.006321463	0.065217373	0.020100628
2020-07-28T08:45:00	0.1870	15.084	218.0	0.425095018	0.490669244	0.006415121	0.066183616	0.020398433
2020-07-28T08:50:00	0.1879	15.142	218.0	0.427485236	0.494682185	0.006491808	0.066974785	0.020642279
2020-07-28T08:55:00	0.1888	15.210	218.0	0.430145281	0.499166789	0.006577807	0.067862018	0.020915733
2020-07-28T09:00:00	0.1894	15.276	218.0	0.431709303	0.501812778	0.006628694	0.068387013	0.021077541
2020-07-28T09:05:00	0.1889	15.337	219.0	0.430268686	0.499375316	0.006581813	0.067903352	0.020928472
2020-07-28T09:10:00	0.1893	15.377	219.0	0.431559564	0.501559157	0.006623812	0.068336643	0.021062017
2020-07-28T09:15:00	0.1893	15.535	220.0	0.431484689	0.501432362	0.006621371	0.068311465	0.021054257
2020-07-28T09:20:00	0.1903	15.852	221.0	0.434138302	0.505935629	0.006708200	0.069207258	0.021330349
2020-07-28T09:25:00	0.1904	15.587	220.0	0.434336158	0.506272184	0.006714701	0.069274336	0.021351023
2020-07-28T09:30:00	0.1911	15.565	220.0	0.436440817	0.509858982	0.006784101	0.069990317	0.021571695
2020-07-28T09:35:00	0.1910	15.564	220.0	0.436093880	0.509266874	0.006772631	0.069871983	0.021535224
2020-07-28T09:40:00	0.1915	15.572	220.0	0.437380239	0.511463953	0.006815218	0.070311352	0.021670641
2020-07-28T09:45:00	0.1912	15.596	220.0	0.436489105	0.509941420	0.006785698	0.070006797	0.021576775
2020-07-28T09:50:00	0.1917	15.618	221.0	0.438047168	0.512604877	0.006837363	0.070539812	0.021741055
2020-07-28T09:55:00	0.1910	15.671	220.0	0.436067510	0.509221883	0.006771759	0.069862994	0.021532453
2020-07-28T10:00:00	0.1914	15.769	220.0	0.437081767	0.510953758	0.006805322	0.070209256	0.021639175
2020-07-28T10:05:00	0.1911	15.791	221.0	0.436229025	0.509497482	0.006777097	0.069918064	0.021549426
2020-07-28T10:10:00	0.1914	15.791	222.0	0.437281710	0.511295504	0.006811951	0.070277639	0.021660251
2020-07-28T10:15:00	0.1913	15.833	222.0	0.436973480	0.510768716	0.006801734	0.070172237	0.021627765
2020-07-28T10:20:00	0.1918	15.852	221.0	0.438297664	0.513033725	0.006845692	0.070625738	0.021767538
2020-07-28T10:25:00	0.1901	15.905	221.0	0.433632005	0.505074912	0.006691580	0.069035795	0.021277502
2020-07-28T10:30:00	0.1889	15.973	222.0	0.430320032	0.499462092	0.006583480	0.067920554	0.020933774
2020-07-28T10:35:00	0.1899	15.996	222.0	0.433014135	0.504025487	0.006671332	0.068826897	0.021213118
2020-07-28T10:40:00	0.1897	16.025	222.0	0.432432231	0.503038120	0.006652296	0.068630513	0.021152591
2020-07-28T10:45:00	0.1889	16.057	222.0	0.430484552	0.499740185	0.006588825	0.067975691	0.020950768
2020-07-28T10:50:00	0.1894	16.074	222.0	0.431813914	0.501990001	0.006632106	0.068422216	0.021088391
2020-07-28T10:55:00	0.1901	16.085	222.0	0.433687695	0.505169551	0.006693407	0.069054642	0.021283311
2020-07-28T11:00:00	0.1894	16.097	222.0	0.431741494	0.501867310	0.006629744	0.068397844	0.021080880
2020-07-28T11:05:00	0.1889	16.116	222.0	0.430339592	0.499495151	0.006584116	0.067927108	0.020935794
2020-07-28T11:10:00	0.1895	16.136	222.0	0.431942079	0.502207168	0.006636288	0.068465360	0.021101689
2020-07-28T11:15:00	0.1885	16.153	222.0	0.429173692	0.497526495	0.006546315	0.067537128	0.020815599
2020-07-28T11:20:00	0.1889	16.165	222.0	0.430230864	0.499311401	0.006580585	0.067890682	0.020924567
2020-07-28T11:25:00	0.1896	16.181	222.0	0.432379374	0.502948480	0.006650569	0.068612692	0.021147098
2020-07-28T11:30:00	0.1891	16.194	222.0	0.430978014	0.500574747	0.006604871	0.068141234	0.021001790
2020-07-28T11:35:00	0.1897	16.207	222.0	0.432579882	0.503288563	0.006657123	0.068680311	0.021167939
2020-07-28T11:40:00	0.1888	16.224	222.0	0.430085882	0.499066432	0.006575879	0.067842128	0.020909603
2020-07-28T11:45:00	0.1889	16.233	222.0	0.430322911	0.499466957	0.006583574	0.067921519	0.020934072
2020-07-28T11:50:00	0.1877	16.251	222.0	0.427004278	0.493873429	0.006476332	0.066815126	0.020593071
2020-07-28T11:55:00	0.1885	16.267	222.0	0.429156999	0.497498335	0.006545775	0.067531554	0.020813881
2020-07-28T12:00:00	0.1880	16.276	223.0	0.428026553	0.495593204	0.006509253	0.067154759	0.020697749
2020-07-28T12:05:00	0.1882	16.287	223.0	0.428537452	0.496453778	0.006525743	0.067324890	0.020750185
2020-07-28T12:10:00	0.1890	16.298	223.0	0.430688168	0.500084466	0.006595443	0.068043969	0.020971812
2020-07-28T12:15:00	0.1888	16.305	222.0	0.430105444	0.499099483	0.006576514	0.067848678	0.020911622
2020-07-28T12:20:00	0.1883	16.315	223.0	0.428702150	0.496731356	0.006531065	0.067379791	0.020767106
2020-07-28T12:25:00	0.1882	16.332	223.0	0.428392321	0.496209241	0.006521056	0.067276534	0.020735281
2020-07-28T12:30:00	0.1889	16.343	223.0	0.430269986	0.499377513	0.006581855	0.067903787	0.020928607
2020-07-28T12:35:00	0.1899	16.350	223.0	0.432964171	0.503940670	0.006669696	0.068810021	0.021207917
2020-07-28T12:40:00	0.1900	16.363	223.0	0.433473544	0.504805671	0.006686383	0.068982183	0.021260979
2020-07-28T12:45:00	0.1892	16.374	223.0	0.431254014	0.501041824	0.006613856	0.068233931	0.021030360
2020-07-28T12:50:00	0.1906	16.386	223.0	0.435036865	0.507464968	0.006737758	0.069512208	0.021424338
2020-07-28T12:55:00	0.1877	16.399	223.0	0.427079791	0.494000365	0.006478760	0.066840178	0.020600792
2020-07-28T13:00:00	0.1882	16.408	224.0	0.428411904	0.496242233	0.006521688	0.067283058	0.020737292
2020-07-28T13:05:00	0.1873	16.422	224.0	0.425911573	0.492038376	0.006441256	0.066453254	0.020481538
2020-07-28T13:10:00	0.1881	16.431	224.0	0.428065728	0.495659165	0.006510516	0.067167795	0.020701767
2020-07-28T13:15:00	0.1875	16.446	224.0	0.426386803	0.492836055	0.006456497	0.066610489	0.020530000
2020-07-28T13:20:00	0.1887	16.466	224.0	0.429907515	0.498765135	0.006570092	0.067782423	0.020891201
2020-07-28T13:25:00	0.1869	16.480	224.0	0.424943961	0.490416166	0.006410293	0.066133808	0.020383082
2020-07-28T13:30:00	0.1888	16.491	225.0	0.430108323	0.499104346	0.006576607	0.067849642	0.020911919
2020-07-28T13:35:00	0.1887	16.504	225.0	0.429798758	0.498581467	0.006566564	0.067746035	0.020879986
2020-07-28T13:40:00	0.1894	16.519	225.0	0.431674823	0.501754372	0.006627569	0.068375412	0.021073966
2020-07-28T13:45:00	0.1895	16.534	224.0	0.431911623	0.502155559	0.006635294	0.068455106	0.021098529
2020-07-28T13:50:00	0.1881	16.544	225.0	0.428049023	0.495631038	0.006509977	0.067162236	0.020700053
2020-07-28T13:55:00	0.1864	16.554	225.0	0.423628659	0.488215211	0.006368349	0.065701080	0.020249711
2020-07-28T14:00:00	0.1861	16.560	225.0	0.422768923	0.486779166	0.006341023	0.065419165	0.020162822
2020-07-28T14:05:00	0.1868	16.563	225.0	0.424653047	0.489928954	0.006401001	0.066037950	0.020353537
2020-07-28T14:10:00	0.1617	16.569	224.0	0.354223687	0.378767590	0.004385137	0.045240652	0.013943608
2020-07-28T14:15:00	0.1618	16.576	224.0	0.354472762	0.379137285	0.004391475	0.045306035	0.013963760
2020-07-28T14:20:00	0.1621	16.580	224.0	0.355295850	0.380360136	0.004412456	0.045522496	0.014030475
2020-07-28T14:25:00	0.1611	16.583	225.0	0.352385110	0.376043686	0.004338524	0.044759749	0.013795389
2020-07-28T14:30:00	0.1613	16.579	225.0	0.352921985	0.376838164	0.004352105	0.044899861	0.013838573
2020-07-28T14:35:00	0.1601	16.566	224.0	0.349718299	0.372108518	0.004271435	0.044067610	0.013582065
2020-07-28T14:40:00	0.1601	16.567	224.0	0.349680087	0.372052269	0.004270478	0.044057739	0.013579023
2020-07-28T14:45:00	0.1597	16.559	225.0	0.348488939	0.370300749	0.004240716	0.043750690	0.013484387
2020-07-28T14:50:00	0.1589	16.561	224.0	0.346141925	0.366860465	0.004182433	0.043149393	0.013299062
2020-07-28T14:55:00	0.1591	16.559	225.0	0.346681180	0.367649637	0.004195782	0.043287114	0.013341509
2020-07-28T15:00:00	0.1586	16.557	225.0	0.345198491	0.365481628	0.004159139	0.042909072	0.013224993
2020-07-28T15:05:00	0.1576	16.563	225.0	0.342266804	0.361211777	0.004087242	0.042167327	0.012996380
2020-07-28T15:10:00	0.1569	16.563	225.0	0.340489442	0.358634052	0.004044014	0.041721342	0.012858923
2020-07-28T15:15:00	0.1561	16.558	225.0	0.338128923	0.355223278	0.003987019	0.041133337	0.012677694
2020-07-28T15:20:00	0.1565	16.559	225.0	0.339251939	0.356844146	0.004014075	0.041412468	0.012763725
2020-07-28T15:25:00	0.1566	16.561	225.0	0.339503683	0.357207942	0.004020154	0.041475193	0.012783057
2020-07-28T15:30:00	0.1554	16.563	225.0	0.335978155	0.352128183	0.003935502	0.040601847	0.012513884
2020-07-28T15:35:00	0.1556	16.567	225.0	0.336521366	0.352908767	0.003948476	0.040735700	0.012555138
2020-07-28T15:40:00	0.1550	16.564	225.0	0.334736600	0.350346966	0.003905942	0.040296885	0.012419891
2020-07-28T15:45:00	0.1541	16.559	225.0	0.332074441	0.346541111	0.003843000	0.039647521	0.012219751
2020-07-28T15:50:00	0.1525	16.557	225.0	0.327651824	0.340258949	0.003739756	0.038582372	0.011891462
2020-07-28T15:55:00	0.1520	16.552	225.0	0.326148499	0.338135010	0.003705035	0.038224168	0.011781060
2020-07-28T16:00:00	0.1528	16.548	225.0	0.328452136	0.341392025	0.003758317	0.038773863	0.011950481
2020-07-28T16:05:00	0.1524	16.542	225.0	0.327341184	0.339819592	0.003732566	0.038508195	0.011868600
2020-07-28T16:10:00	0.1507	16.542	225.0	0.322120496	0.332472756	0.003612936	0.037273995	0.011488207
2020-07-28T16:15:00	0.1499	16.533	225.0	0.319827070	0.329267417	0.003561100	0.036739216	0.011323383
2020-07-28T16:20:00	0.1497	16.527	225.0	0.319298214	0.328530186	0.003549209	0.036616536	0.011285572
2020-07-28T16:25:00	0.1489	16.510	225.0	0.316999932	0.325334656	0.003497801	0.036086167	0.011122107
2020-07-28T16:30:00	0.1480	16.499	225.0	0.315188567	0.321743276	0.003445999	0.035551732	0.010957389
2020-07-28T16:35:00	0.1481	16.480	225.0	0.315230311	0.321826437	0.003447194	0.035564061	0.010961189
2020-07-28T16:40:00	0.1477	16.466	225.0	0.314454373	0.320282399	0.003425023	0.035335329	0.010890692
2020-07-28T16:45:00	0.1471	16.451	225.0	0.313269419	0.317931787	0.003391339	0.034987824	0.010783587
2020-07-28T16:50:00	0.1475	16.434	225.0	0.314128995	0.319636060	0.003415753	0.035239691	0.010861215
2020-07-28T16:55:00	0.1466	16.421	225.0	0.312330516	0.316075561	0.003364799	0.034714015	0.010699196
2020-07-28T17:00:00	0.1460	16.404	225.0	0.310940640	0.313337960	0.003325753	0.034311180	0.010575039
2020-07-28T17:05:00	0.1447	16.389	225.0	0.308322829	0.308214814	0.003252989	0.033560489	0.010343669
2020-07-28T17:10:00	0.1441	16.377	225.0	0.307136748	0.305907843	0.003220355	0.033223811	0.010239901
2020-07-28T17:15:00	0.1428	16.362	225.0	0.304517350	0.300844447	0.003149019	0.032487853	0.010013072
2020-07-28T17:20:00	0.1415	16.345	225.0	0.301896827	0.295822175	0.003078660	0.031761968	0.009789347
2020-07-28T17:25:00	0.1406	16.330	225.0	0.299889914	0.292005177	0.003025453	0.031213042	0.009620163
2020-07-28T17:30:00	0.1399	16.316	225.0	0.298497222	0.289371311	0.002988874	0.030835665	0.009503851
2020-07-28T17:35:00	0.1399	16.302	225.0	0.298539078	0.289450289	0.002989969	0.030846964	0.009507334
2020-07-28T17:40:00	0.1393	16.287	225.0	0.297351064	0.287212863	0.002958981	0.030527263	0.009408799
2020-07-28T17:45:00	0.1405	16.271	225.0	0.299852385	0.291934042	0.003024464	0.031202835	0.009617017
2020-07-28T17:50:00	0.1410	16.256	225.0	0.300713813	0.293569098	0.003047225	0.031437662	0.009689393
2020-07-28T17:55:00	0.1414	16.242	225.0	0.301575115	0.295208594	0.003070091	0.031673567	0.009762101
2020-07-28T18:00:00	0.1415	16.227	224.0	0.301821795	0.295679013	0.003076660	0.031741337	0.009782988
2020-07-28T18:05:00	0.1403	16.213	225.0	0.299405017	0.291086749	0.003012685	0.031081321	0.009579565
2020-07-28T18:10:00	0.1398	16.201	224.0	0.298422147	0.289229675	0.002986910	0.030815404	0.009497607
2020-07-28T18:15:00	0.1395	16.188	224.0	0.297644103	0.287763926	0.002966606	0.030605926	0.009433043
2020-07-28T18:20:00	0.1384	16.175	224.0	0.295430650	0.283614901	0.002909319	0.030014911	0.009250887
2020-07-28T18:25:00	0.1370	16.158	224.0	0.292600836	0.278355524	0.002837106	0.029269897	0.009021267
2020-07-28T18:30:00	0.1358	16.143	224.0	0.290180105	0.273896518	0.002776239	0.028641950	0.008827727
2020-07-28T18:35:00	0.1351	16.130	224.0	0.288784978	0.271343463	0.002741539	0.028283951	0.008717388
2020-07-28T18:40:00	0.1340	16.113	224.0	0.286362508	0.266939538	0.002681940	0.027669076	0.008527878
2020-07-28T18:45:00	0.1342	16.100	224.0	0.286815267	0.267759820	0.002693016	0.027783347	0.008563097
2020-07-28T18:50:00	0.1335	16.083	224.0	0.285419242	0.265234736	0.002658956	0.027431962	0.008454797
2020-07-28T18:55:00	0.1337	16.074	224.0	0.285872085	0.266052476	0.002669974	0.027545635	0.008489832
2020-07-28T19:00:00	0.1346	16.063	224.0	0.287762605	0.269480330	0.002716285	0.028023408	0.008637087
2020-07-28T19:05:00	0.1337	16.053	224.0	0.285750553	0.265832889	0.002667015	0.027515099	0.008480421
2020-07-28T19:10:00	0.1320	16.037	224.0	0.282298859	0.259635101	0.002583815	0.026656746	0.008215868
2020-07-28T19:15:00	0.1333	16.023	224.0	0.285012649	0.264501612	0.002649088	0.027330153	0.008423418
2020-07-28T19:20:00	0.1314	16.008	224.0	0.281149208	0.257587484	0.002556474	0.026374667	0.008128928
2020-07-28T19:25:00	0.1319	15.998	224.0	0.282013637	0.259126321	0.002577015	0.026586587	0.008194244
2020-07-28T19:30:00	0.1323	15.984	224.0	0.282877914	0.260669599	0.002597656	0.026799543	0.008259879
2020-07-28T19:35:00	0.1328	15.968	224.0	0.283947559	0.262586104	0.002623347	0.027064592	0.008341570
2020-07-28T19:40:00	0.1329	15.954	224.0	0.284195034	0.263030537	0.002629314	0.027126149	0.008360543
2020-07-28T19:45:00	0.1327	15.939	224.0	0.283825982	0.262367908	0.002620419	0.027034383	0.008332259
2020-07-28T19:50:00	0.1327	15.927	224.0	0.283662431	0.262074529	0.002616484	0.026993778	0.008319745
2020-07-28T19:55:00	0.1314	15.914	224.0	0.281031894	0.257379007	0.002553694	0.026345989	0.008120090
2020-07-28T20:00:00	0.1309	15.897	224.0	0.280045623	0.255629748	0.002530400	0.026105673	0.008046022
2020-07-28T20:05:00	0.1309	15.882	223.0	0.280087624	0.255704117	0.002531389	0.026115879	0.008049167
2020-07-28T20:10:00	0.1309	15.870	223.0	0.280129625	0.255778496	0.002532379	0.026126087	0.008052314
2020-07-28T20:15:00	0.1308	15.854	223.0	0.279760270	0.255124786	0.002523686	0.026036403	0.008024672
2020-07-28T20:20:00	0.1306	15.836	223.0	0.279390886	0.254471887	0.002515011	0.025946908	0.007997089
2020-07-28T20:25:00	0.1313	15.821	223.0	0.280872584	0.257096038	0.002549922	0.026307077	0.008108097
2020-07-28T20:30:00	0.1314	15.803	223.0	0.281120212	0.257535947	0.002555786	0.026367577	0.008126743
2020-07-28T20:35:00	0.1313	15.786	223.0	0.280956572	0.257245198	0.002551910	0.026327587	0.008114418
2020-07-28T20:40:00	0.1322	15.770	223.0	0.282643367	0.260250319	0.002592044	0.026741645	0.008242035
2020-07-28T20:45:00	0.1322	15.753	223.0	0.282685346	0.260325335	0.002593048	0.026752001	0.008245227
2020-07-28T20:50:00	0.1331	15.738	223.0	0.284577046	0.263717340	0.002638541	0.027221345	0.008389883
2020-07-28T20:55:00	0.1337	15.722	223.0	0.285851771	0.266015767	0.002669480	0.027540529	0.008488259
2020-07-28T21:00:00	0.1336	15.703	223.0	0.285688286	0.265720418	0.002665499	0.027499462	0.008475601
2020-07-28T21:05:00	0.1335	15.687	223.0	0.285319342	0.265054511	0.002656530	0.027406926	0.008447081
2020-07-28T21:10:00	0.1338	15.671	223.0	0.285977628	0.266243252	0.002672547	0.027572171	0.008498011
2020-07-28T21:15:00	0.1335	15.655	222.0	0.285403256	0.265205891	0.002658568	0.027427955	0.008453562
2020-07-28T21:20:00	0.1343	15.637	223.0	0.287088565	0.268255590	0.002699716	0.027852468	0.008584401
2020-07-28T21:25:00	0.1352	15.618	222.0	0.288978644	0.271697134	0.002746339	0.028333477	0.008732653
2020-07-28T21:30:00	0.1360	15.601	222.0	0.290457552	0.274405704	0.002783173	0.028713484	0.008849775
2020-07-28T21:35:00	0.1362	15.583	222.0	0.290909960	0.275237027	0.002794503	0.028830371	0.008885800
2020-07-28T21:40:00	0.1367	15.566	222.0	0.291977957	0.277204647	0.002821364	0.029107497	0.008971213
2020-07-28T21:45:00	0.1361	15.549	222.0	0.290788545	0.275013794	0.002791459	0.028798972	0.008876123
2020-07-28T21:50:00	0.1361	15.532	222.0	0.290830458	0.275090845	0.002792510	0.028809809	0.008879463
2020-07-28T21:55:00	0.1368	15.512	222.0	0.292103668	0.277436723	0.002824537	0.029140227	0.008981301
2020-07-28T22:00:00	0.1377	15.493	222.0	0.293991982	0.280934743	0.002872463	0.029634669	0.009133693
2020-07-28T22:05:00	0.1392	15.474	221.0	0.297131525	0.286800372	0.002953277	0.030468414	0.009390661
2020-07-28T22:10:00	0.1393	15.455	221.0	0.297400079	0.287304999	0.002960256	0.030540411	0.009412851
2020-07-28T22:15:00	0.1403	15.437	221.0	0.299308297	0.290903732	0.003010143	0.031055089	0.009571480
2020-07-28T22:20:00	0.1404	15.418	221.0	0.299576750	0.291411854	0.003017203	0.031127931	0.009593931
2020-07-28T22:25:00	0.1400	15.400	221.0	0.298820542	0.289981685	0.002997341	0.030923016	0.009530774
2020-07-28T22:30:00	0.1405	15.382	221.0	0.299703800	0.291652489	0.003020549	0.031162443	0.009604568
2020-07-28T22:35:00	0.1411	15.363	221.0	0.300996681	0.294107025	0.003054723	0.031515015	0.009713234
2020-07-28T22:40:00	0.1408	15.343	221.0	0.300445552	0.293059416	0.003040125	0.031364414	0.009666817
2020-07-28T22:45:00	0.1417	15.325	221.0	0.302147948	0.296301576	0.003085359	0.031831080	0.009810648
2020-07-28T22:50:00	0.1422	15.305	221.0	0.303235507	0.298382364	0.003114477	0.032131487	0.009903236
2020-07-28T22:55:00	0.1427	15.285	221.0	0.304322869	0.300470234	0.003143763	0.032433625	0.009996358
2020-07-28T23:00:00	0.1426	15.265	221.0	0.303976818	0.299804965	0.003134424	0.032337277	0.009966663
2020-07-28T23:05:00	0.1436	15.244	221.0	0.306087629	0.303874661	0.003191663	0.032927795	0.010148666
2020-07-28T23:10:00	0.1443	15.228	221.0	0.307583800	0.306776334	0.003232631	0.033350458	0.010278935
2020-07-28T23:15:00	0.1446	15.213	221.0	0.308261155	0.308094639	0.003251287	0.033542929	0.010338257
2020-07-28T23:20:00	0.1454	15.200	221.0	0.309756810	0.311015810	0.003292722	0.033970402	0.010470008
2020-07-28T23:25:00	0.1459	15.188	221.0	0.310843037	0.313146171	0.003323022	0.034283002	0.010566354
2020-07-28T23:30:00	0.1462	15.176	220.0	0.311520046	0.314477719	0.003341995	0.034478751	0.010626686
2020-07-28T23:35:00	0.1459	15.164	220.0	0.310765310	0.312993482	0.003320848	0.034260573	0.010559441
2020-07-28T23:40:00	0.1461	15.152	220.0	0.311237798	0.313922239	0.003334077	0.034397057	0.010601507
2020-07-28T23:45:00	0.1467	15.140	220.0	0.312528272	0.316466064	0.003370378	0.034771573	0.010716936
2020-07-28T23:50:00	0.1469	15.129	220.0	0.312796151	0.316995434	0.003377945	0.034849637	0.010740996
2020-07-28T23:55:00	0.1466	15.119	217.0	0.312246067	0.315908875	0.003362419	0.034689453	0.010691626
2020-07-29T00:00:00	0.1458	15.107	205.0	0.310673264	0.312812713	0.003318274	0.034234025	0.010551259
2020-07-29T00:05:00	0.1453	15.098	219.0	0.309509265	0.310531356	0.003285841	0.033899415	0.010448129
2020-07-29T00:10:00	0.1450	15.088	219.0	0.308958901	0.309455654	0.003270576	0.033741926	0.010399589
2020-07-29T00:15:00	0.1449	15.079	206.0	0.308817722	0.309180024	0.003266667	0.033701602	0.010387161
2020-07-29T00:20:00	0.1439	15.070	206.0	0.306630062	0.304925023	0.003206477	0.033080637	0.010195774
2020-07-29T00:25:00	0.1437	15.059	206.0	0.306284141	0.304254971	0.003197025	0.032983115	0.010165716
2020-07-29T00:30:00	0.1436	15.048	206.0	0.306142902	0.303981605	0.003193170	0.032943349	0.010153460
2020-07-29T00:35:00	0.1432	15.039	195.0	0.305387523	0.302521724	0.003172605	0.032731186	0.010088069
2020-07-29T00:40:00	0.1429	15.028	217.0	0.304632051	0.301065262	0.003152122	0.032519862	0.010022937
2020-07-29T00:45:00	0.1428	15.020	200.0	0.304490773	0.300793295	0.003148301	0.032480439	0.010010787
2020-07-29T00:50:00	0.1422	15.011	199.0	0.303325621	0.298555112	0.003116898	0.032156459	0.009910933
2020-07-29T00:55:00	0.1417	15.001	215.0	0.302160244	0.296325060	0.003085687	0.031834466	0.009811692
2020-07-29T01:00:00	0.1410	14.989	220.0	0.300789764	0.293713484	0.003049237	0.031458419	0.009695790
2020-07-29T01:05:00	0.1407	14.977	220.0	0.300238615	0.292666557	0.003034656	0.031307984	0.009649425
2020-07-29T01:10:00	0.1417	14.964	220.0	0.302145906	0.296297677	0.003085304	0.031830518	0.009810475
2020-07-29T01:15:00	0.1421	14.952	219.0	0.303028667	0.297986051	0.003108926	0.032074217	0.009885585
2020-07-29T01:20:00	0.1425	14.942	219.0	0.303911298	0.299679090	0.003132658	0.032319055	0.009961047
2020-07-29T01:25:00	0.1421	14.932	220.0	0.302950842	0.297837005	0.003106839	0.032052685	0.009878949
2020-07-29T01:30:00	0.1427	14.922	220.0	0.304243020	0.300316660	0.003141607	0.032411377	0.009989501
2020-07-29T01:35:00	0.1423	14.911	220.0	0.303487406	0.298865379	0.003121246	0.032201322	0.009924760
2020-07-29T01:40:00	0.1420	14.900	219.0	0.302936507	0.297809554	0.003106455	0.032048719	0.009877727
2020-07-29T01:45:00	0.1420	14.887	220.0	0.302795190	0.297539023	0.003102667	0.032009648	0.009865684
2020-07-29T01:50:00	0.1424	14.875	219.0	0.303677855	0.299230828	0.003126370	0.032254184	0.009941053
2020-07-29T01:55:00	0.1423	14.863	219.0	0.303536556	0.298959669	0.003122568	0.032214959	0.009928963
2020-07-29T02:00:00	0.1420	14.850	219.0	0.302780854	0.297511586	0.003102283	0.032005686	0.009864463
2020-07-29T02:05:00	0.1420	14.837	219.0	0.302844345	0.297633109	0.003103984	0.032023235	0.009869872
2020-07-29T02:10:00	0.1418	14.825	219.0	0.302498210	0.296970905	0.003094718	0.031927635	0.009840407
2020-07-29T02:15:00	0.1411	14.810	219.0	0.300922937	0.293966738	0.003052767	0.031494837	0.009707015
2020-07-29T02:20:00	0.1402	14.794	219.0	0.299142312	0.290589788	0.003005783	0.031010104	0.009557615
2020-07-29T02:25:00	0.1401	14.775	219.0	0.299000905	0.290322466	0.003002071	0.030971813	0.009545813
2020-07-29T02:30:00	0.1404	14.752	219.0	0.299474300	0.291217885	0.003014508	0.031100120	0.009585359
2020-07-29T02:35:00	0.1405	14.725	219.0	0.299742745	0.291726273	0.003021574	0.031173027	0.009607830
2020-07-29T02:40:00	0.1407	14.705	218.0	0.300216081	0.292623793	0.003034061	0.031301843	0.009647532
2020-07-29T02:45:00	0.1408	14.679	218.0	0.300279599	0.292744342	0.003035739	0.031319155	0.009652868
2020-07-29T02:50:00	0.1402	14.651	218.0	0.299113622	0.290535541	0.003005029	0.031002333	0.009555220
2020-07-29T02:55:00	0.1408	14.623	218.0	0.300406634	0.292985512	0.003039096	0.031353797	0.009663545
2020-07-29T03:00:00	0.1400	14.596	218.0	0.298830802	0.290001065	0.002997610	0.030925791	0.009531629
2020-07-29T03:05:00	0.1407	14.568	213.0	0.300123877	0.292448849	0.003031626	0.031276724	0.009639790
2020-07-29T03:10:00	0.1407	14.541	208.0	0.300187396	0.292569363	0.003033303	0.031294028	0.009645123
2020-07-29T03:15:00	0.1409	14.511	218.0	0.300660696	0.293468142	0.003045819	0.031423150	0.009684920
2020-07-29T03:20:00	0.1413	14.483	217.0	0.301338820	0.294758339	0.003063807	0.031608736	0.009742120
2020-07-29T03:25:00	0.1417	14.455	217.0	0.302221700	0.296442447	0.003087328	0.031851396	0.009816909
2020-07-29T03:30:00	0.1412	14.424	217.0	0.301260973	0.294610080	0.003061739	0.031587396	0.009735542
2020-07-29T03:35:00	0.1412	14.395	217.0	0.301119617	0.294340966	0.003057985	0.031548670	0.009723607
2020-07-29T03:40:00	0.1414	14.362	217.0	0.301592842	0.295242385	0.003070563	0.031678434	0.009763601
2020-07-29T03:45:00	0.1418	14.334	217.0	0.302475684	0.296927836	0.003094116	0.031921420	0.009838492
2020-07-29T03:50:00	0.1422	14.306	217.0	0.303153602	0.298225399	0.003112278	0.032108802	0.009896244
2020-07-29T03:55:00	0.1418	14.281	217.0	0.302397852	0.296779049	0.003092035	0.031899951	0.009831875
2020-07-29T04:00:00	0.1419	14.252	216.0	0.302666165	0.297292132	0.003099212	0.031974000	0.009854697
2020-07-29T04:05:00	0.1434	14.230	216.0	0.305710446	0.303145381	0.003181387	0.032821779	0.010115991
2020-07-29T04:10:00	0.1440	14.206	216.0	0.306911449	0.305470629	0.003214180	0.033160100	0.010220265
2020-07-29T04:15:00	0.1442	14.182	216.0	0.307293635	0.306212484	0.003224660	0.033268221	0.010253589
2020-07-29T04:20:00	0.1449	14.159	216.0	0.308698950	0.308948238	0.003263381	0.033667702	0.010376713
2020-07-29T04:25:00	0.1455	14.130	216.0	0.310103953	0.311695836	0.003302386	0.034070108	0.010500738
2020-07-29T04:30:00	0.1455	14.108	216.0	0.310076821	0.311642659	0.003301630	0.034062309	0.010498334
2020-07-29T04:35:00	0.1457	14.088	216.0	0.310458817	0.312391769	0.003312284	0.034172223	0.010532211
2020-07-29T04:40:00	0.1457	14.068	216.0	0.310431686	0.312338534	0.003311527	0.034164409	0.010529803
2020-07-29T04:45:00	0.1459	14.046	216.0	0.310813660	0.313088459	0.003322200	0.034274524	0.010563741
2020-07-29T04:50:00	0.1461	14.034	215.0	0.311195612	0.313839259	0.003332894	0.034384857	0.010597747
2020-07-29T04:55:00	0.1466	14.014	215.0	0.312191079	0.315800365	0.003360869	0.034673467	0.010686699
2020-07-29T05:00:00	0.1469	13.996	215.0	0.312777438	0.316958439	0.003377416	0.034844180	0.010739315
2020-07-29T05:05:00	0.1469	13.982	209.0	0.312954799	0.317309159	0.003382431	0.034895921	0.010755262
2020-07-29T05:10:00	0.1467	13.967	215.0	0.312518706	0.316447170	0.003370108	0.034768787	0.010716078
2020-07-29T05:15:00	0.1472	13.957	215.0	0.313513971	0.318416185	0.003398274	0.035059365	0.010805637
2020-07-29T05:20:00	0.1477	13.945	215.0	0.314509087	0.320391150	0.003426583	0.035351428	0.010895653
2020-07-29T05:25:00	0.1474	13.934	215.0	0.313868649	0.319119383	0.003408347	0.035163286	0.010837666
2020-07-29T05:30:00	0.1469	13.919	215.0	0.312819196	0.317040995	0.003378596	0.034856357	0.010743068
2020-07-29T05:35:00	0.1470	13.915	215.0	0.312996556	0.317391760	0.003383613	0.034908110	0.010759018
2020-07-29T05:40:00	0.1465	13.909	215.0	0.311946963	0.315318870	0.003353995	0.034602551	0.010664842
2020-07-29T05:45:00	0.1470	13.905	215.0	0.313146792	0.317689036	0.003387866	0.034951985	0.010772541
2020-07-29T05:50:00	0.1469	13.903	215.0	0.312915195	0.317230828	0.003381311	0.034884363	0.010751700
2020-07-29T05:55:00	0.1470	13.903	215.0	0.313092553	0.317581695	0.003386330	0.034936141	0.010767658
2020-07-29T06:00:00	0.1474	13.907	215.0	0.313883284	0.319148416	0.003408763	0.035167578	0.010838989
2020-07-29T06:05:00	0.1478	13.909	215.0	0.314673922	0.320718894	0.003431287	0.035399954	0.010910610
2020-07-29T06:10:00	0.1482	13.914	215.0	0.315464466	0.322293129	0.003453902	0.035633268	0.010982519
2020-07-29T06:15:00	0.1480	13.921	215.0	0.315028538	0.321424565	0.003441420	0.035504492	0.010942829
2020-07-29T06:20:00	0.1481	13.928	215.0	0.315410246	0.322185032	0.003452348	0.035617235	0.010977578
2020-07-29T06:25:00	0.1478	13.938	215.0	0.314769894	0.320909797	0.003434027	0.035428227	0.010919323
2020-07-29T06:30:00	0.1481	13.950	215.0	0.315356025	0.322076954	0.003450794	0.035601207	0.010972638
2020-07-29T06:35:00	0.1484	13.965	215.0	0.315942104	0.323246175	0.003467611	0.035774704	0.011026111
2020-07-29T06:40:00	0.1487	13.978	215.0	0.316528133	0.324417462	0.003484478	0.035948718	0.011079744
2020-07-29T06:45:00	0.1485	13.996	215.0	0.316092274	0.323546111	0.003471928	0.035819244	0.011039839
2020-07-29T06:50:00	0.1497	14.015	215.0	0.319209000	0.328405891	0.003547205	0.036595864	0.011279201
2020-07-29T06:55:00	0.1496	14.040	215.0	0.318875311	0.327941170	0.003539717	0.036518605	0.011255389
2020-07-29T07:00:00	0.1497	14.067	216.0	0.319425418	0.328707446	0.003552067	0.036646022	0.011294660
2020-07-29T07:05:00	0.1503	14.094	216.0	0.321152411	0.331118098	0.003591002	0.037047709	0.011418464
2020-07-29T07:10:00	0.1509	14.125	216.0	0.322877179	0.333533267	0.003630134	0.037451427	0.011542893
2020-07-29T07:15:00	0.1507	14.169	216.0	0.322250528	0.332654895	0.003615888	0.037304451	0.011497594
2020-07-29T07:20:00	0.1509	14.224	216.0	0.322799250	0.333423980	0.003628361	0.037433131	0.011537255
2020-07-29T07:25:00	0.1515	14.281	216.0	0.324521907	0.335843460	0.003667681	0.037838788	0.011662282
2020-07-29T07:30:00	0.1528	14.215	216.0	0.328292078	0.341165284	0.003754601	0.038735522	0.011938664
2020-07-29T07:35:00	0.1521	14.238	216.0	0.326496513	0.338626176	0.003713056	0.038306917	0.011806564
2020-07-29T07:40:00	0.1528	14.633	218.0	0.328507041	0.341469820	0.003759592	0.038787021	0.011954537
2020-07-29T07:45:00	0.1528	14.653	218.0	0.328468240	0.341414842	0.003758691	0.038777722	0.011951671
2020-07-29T07:50:00	0.1523	14.453	217.0	0.326965821	0.339289024	0.003723889	0.038418673	0.011841008
2020-07-29T07:55:00	0.1530	14.395	217.0	0.328975654	0.342134111	0.003770488	0.038899426	0.011989181
2020-07-29T08:00:00	0.1534	14.370	217.0	0.330106187	0.343739049	0.003796849	0.039171388	0.012073002
2020-07-29T08:05:00	0.1537	14.403	217.0	0.330943788	0.344930259	0.003816449	0.039373597	0.012135325
2020-07-29T08:10:00	0.1537	14.481	217.0	0.330905056	0.344875135	0.003815541	0.039364233	0.012132439
2020-07-29T08:15:00	0.1545	14.498	217.0	0.333492172	0.348565634	0.003876445	0.039992569	0.012326098
2020-07-29T08:20:00	0.1542	14.480	217.0	0.332578764	0.347260690	0.003854878	0.039770063	0.012257520
2020-07-29T08:25:00	0.1539	14.484	217.0	0.331664746	0.345957033	0.003833367	0.039548136	0.012189120
2020-07-29T08:30:00	0.1544	14.526	217.0	0.333084651	0.347983161	0.003866814	0.039893207	0.012295474
2020-07-29T08:35:00	0.1541	14.550	217.0	0.332170972	0.346678792	0.003845272	0.039670960	0.012226975
2020-07-29T08:40:00	0.1544	14.565	217.0	0.333007307	0.347872661	0.003864988	0.039874366	0.012289667
2020-07-29T08:45:00	0.1551	14.546	217.0	0.335008263	0.350736371	0.003912399	0.040363498	0.012440422
2020-07-29T08:50:00	0.1546	14.556	217.0	0.333804482	0.349012312	0.003883836	0.040068815	0.012349598
2020-07-29T08:55:00	0.1554	14.556	218.0	0.336095237	0.352296363	0.003938296	0.040630676	0.012522769
2020-07-29T09:00:00	0.1556	14.590	218.0	0.336638402	0.353077045	0.003951275	0.040764573	0.012564037
2020-07-29T09:05:00	0.1557	14.616	218.0	0.336890622	0.353439817	0.003957310	0.040826837	0.012583228
2020-07-29T09:10:00	0.1554	14.669	218.0	0.335979473	0.352130077	0.003935533	0.040602172	0.012513984
2020-07-29T09:15:00	0.1562	14.640	218.0	0.338266615	0.355421835	0.003990330	0.041167501	0.012688224
2020-07-29T09:20:00	0.1556	14.852	219.0	0.336484109	0.352855205	0.003947585	0.040726512	0.012552306
2020-07-29T09:25:00	0.1559	14.777	219.0	0.337317823	0.354054643	0.003967544	0.040932424	0.012615771
2020-07-29T09:30:00	0.1555	14.834	219.0	0.336406956	0.352744298	0.003945741	0.040707487	0.012546443
2020-07-29T09:35:00	0.1549	14.776	219.0	0.334622041	0.350182814	0.003903221	0.040268814	0.012411239
2020-07-29T09:40:00	0.1542	14.770	218.0	0.332543151	0.347209854	0.003854038	0.039761402	0.012254850
2020-07-29T09:45:00	0.1549	14.811	219.0	0.334544784	0.350072130	0.003901387	0.040249889	0.012405407
2020-07-29T09:50:00	0.1549	14.802	219.0	0.334506154	0.350016792	0.003900470	0.040240429	0.012402491
2020-07-29T09:55:00	0.1552	14.870	219.0	0.335341066	0.351213674	0.003920317	0.040445191	0.012465601
2020-07-29T10:00:00	0.1552	14.957	220.0	0.335302458	0.351158288	0.003919398	0.040435709	0.012462678
2020-07-29T10:05:00	0.1541	14.937	219.0	0.332261878	0.346808473	0.003847412	0.039693039	0.012233780
2020-07-29T10:10:00	0.1552	14.904	219.0	0.335341066	0.351213674	0.003920317	0.040445191	0.012465601
2020-07-29T10:15:00	0.1547	14.909	219.0	0.334049864	0.349363444	0.003889648	0.040128781	0.012368080
2020-07-29T10:20:00	0.1541	14.931	219.0	0.332174045	0.346683176	0.003845344	0.039671706	0.012227205
2020-07-29T10:25:00	0.1543	14.963	219.0	0.332922594	0.347751650	0.003862988	0.039853735	0.012283308
2020-07-29T10:30:00	0.1555	14.986	219.0	0.336291219	0.352577956	0.003942976	0.040678958	0.012537650
2020-07-29T10:35:00	0.1562	15.001	219.0	0.338199958	0.355325708	0.003988727	0.041150960	0.012683126
2020-07-29T10:40:00	0.1555	15.036	219.0	0.336329799	0.352633401	0.003943898	0.040688467	0.012540581
2020-07-29T10:45:00	0.1557	15.056	220.0	0.336785333	0.353288358	0.003954790	0.040800838	0.012575215
2020-07-29T10:50:00	0.1557	15.079	220.0	0.336949999	0.353525243	0.003958731	0.040841503	0.012587748
2020-07-29T10:55:00	0.1557	15.107	220.0	0.336823900	0.353343833	0.003955713	0.040810360	0.012578149
2020-07-29T11:00:00	0.1561	15.119	220.0	0.338151033	0.355255159	0.003987550	0.041138822	0.012679384
2020-07-29T11:05:00	0.1554	15.143	220.0	0.335989887	0.352145033	0.003935782	0.040604735	0.012514774
2020-07-29T11:10:00	0.1552	15.173	220.0	0.335281620	0.351128397	0.003918902	0.040430592	0.012461101
2020-07-29T11:15:00	0.1545	15.193	220.0	0.333407488	0.348444559	0.003874443	0.039971910	0.012319731
2020-07-29T11:20:00	0.1556	15.229	220.0	0.336484109	0.352855205	0.003947585	0.040726512	0.012552306
2020-07-29T11:25:00	0.1550	15.239	221.0	0.334902830	0.350585219	0.003909892	0.040337638	0.012432452
2020-07-29T11:30:00	0.1552	15.238	221.0	0.335358837	0.351239169	0.003920740	0.040449556	0.012466946
2020-07-29T11:35:00	0.1552	15.255	221.0	0.335523673	0.351475689	0.003924666	0.040490056	0.012479429
2020-07-29T11:40:00	0.1558	15.286	221.0	0.337142797	0.353802688	0.003963349	0.040889145	0.012602432
2020-07-29T11:45:00	0.1541	15.274	221.0	0.332357074	0.346944296	0.003849654	0.039716169	0.012240909
2020-07-29T11:50:00	0.1552	15.291	221.0	0.335436048	0.351349949	0.003922579	0.040468524	0.012472792
2020-07-29T11:55:00	0.1555	15.310	221.0	0.336182819	0.352422192	0.003940387	0.040652248	0.012529418
2020-07-29T12:00:00	0.1551	15.326	221.0	0.335183561	0.350987746	0.003916569	0.040406516	0.012453681
2020-07-29T12:05:00	0.1549	15.348	221.0	0.334474879	0.349971994	0.003899728	0.040232771	0.012400131
2020-07-29T12:10:00	0.1551	15.355	221.0	0.335222172	0.351043125	0.003917487	0.040415995	0.012456602
2020-07-29T12:15:00	0.1539	15.381	221.0	0.331597769	0.345861589	0.003831793	0.039531902	0.012184116
2020-07-29T12:20:00	0.1543	15.393	221.0	0.332929959	0.347762170	0.003863162	0.039855528	0.012283861
2020-07-29T12:25:00	0.1537	15.410	221.0	0.331052603	0.345085144	0.003818999	0.039399912	0.012143435
2020-07-29T12:30:00	0.1540	15.437	221.0	0.331801766	0.346152325	0.003836587	0.039581358	0.012199359
2020-07-29T12:35:00	0.1542	15.449	221.0	0.332550518	0.347220370	0.003854212	0.039763194	0.012255403
2020-07-29T12:40:00	0.1537	15.470	221.0	0.330964692	0.344960010	0.003816939	0.039378652	0.012136883
2020-07-29T12:45:00	0.1527	15.490	221.0	0.328207071	0.341044888	0.003752628	0.038715168	0.011932391
2020-07-29T12:50:00	0.1527	15.508	221.0	0.328080163	0.340865183	0.003749683	0.038684792	0.011923029
2020-07-29T12:55:00	0.1528	15.521	221.0	0.328538453	0.341514331	0.003760322	0.038794550	0.011956857
2020-07-29T13:00:00	0.1515	15.539	221.0	0.324602826	0.335957299	0.003669534	0.037857906	0.011668174
2020-07-29T13:05:00	0.1514	15.568	221.0	0.324182126	0.335365633	0.003659906	0.037758574	0.011637559
2020-07-29T13:10:00	0.1526	15.600	222.0	0.327865132	0.340560787	0.003744698	0.038633356	0.011907176
2020-07-29T13:15:00	0.1522	15.595	222.0	0.326566828	0.338725453	0.003714678	0.038323649	0.011811721
2020-07-29T13:20:00	0.1508	15.618	222.0	0.322625442	0.333180288	0.003624407	0.037392344	0.011524683
2020-07-29T13:25:00	0.1504	15.631	222.0	0.321322079	0.331355345	0.003594841	0.037087310	0.011430669
2020-07-29T13:30:00	0.1511	15.650	222.0	0.323545575	0.334471261	0.003645366	0.037608565	0.011591325
2020-07-29T13:35:00	0.1501	15.668	222.0	0.320478488	0.330176484	0.003575779	0.036890655	0.011370058
2020-07-29T13:40:00	0.1502	15.685	222.0	0.320645142	0.330409227	0.003579540	0.036929457	0.011382017
2020-07-29T13:45:00	0.1503	15.704	222.0	0.321105967	0.331053169	0.003589952	0.037036873	0.011415124
2020-07-29T13:50:00	0.1496	15.717	223.0	0.318917494	0.327999902	0.003540663	0.036528367	0.011258397
2020-07-29T13:55:00	0.1501	15.735	223.0	0.320556551	0.330285496	0.003577541	0.036908828	0.011375659
2020-07-29T14:00:00	0.1491	15.771	223.0	0.317482596	0.326004634	0.003508561	0.036197177	0.011156321
2020-07-29T14:05:00	0.1481	15.789	223.0	0.315392604	0.322149866	0.003451842	0.035612020	0.010975970
2020-07-29T14:10:00	0.1477	15.804	223.0	0.314486280	0.320345816	0.003425933	0.035344717	0.010893585
2020-07-29T14:15:00	0.1480	15.821	223.0	0.315215308	0.321796548	0.003446764	0.035559629	0.010959823
2020-07-29T14:20:00	0.1489	15.841	223.0	0.316970823	0.325294269	0.003497153	0.036079478	0.011120046
2020-07-29T14:25:00	0.1489	15.851	223.0	0.316877490	0.325116748	0.003494558	0.036052710	0.011111795
2020-07-29T14:30:00	0.1483	15.875	223.0	0.315766976	0.322896569	0.003462580	0.035722805	0.011010115
2020-07-29T14:35:00	0.1487	15.878	223.0	0.316495865	0.324352913	0.003483548	0.035939123	0.011076787
2020-07-29T14:40:00	0.1472	15.897	223.0	0.313545397	0.318478458	0.003399166	0.035068565	0.010808472
2020-07-29T14:45:00	0.1473	15.902	224.0	0.313661185	0.318707960	0.003402452	0.035102475	0.010818924
2020-07-29T14:50:00	0.1469	15.916	224.0	0.312959107	0.317317679	0.003382553	0.034897178	0.010755649
2020-07-29T14:55:00	0.1463	15.928	224.0	0.311643422	0.314720687	0.003345461	0.034514499	0.010637704
2020-07-29T15:00:00	0.1461	15.943	224.0	0.311145666	0.313741027	0.003331495	0.034370417	0.010593296
2020-07-29T15:05:00	0.1460	15.949	224.0	0.311056961	0.313566607	0.003329010	0.034344780	0.010585395
2020-07-29T15:10:00	0.1458	15.963	224.0	0.310559160	0.312588700	0.003315086	0.034201132	0.010541121
2020-07-29T15:15:00	0.1456	15.974	224.0	0.310265887	0.312013311	0.003306900	0.034116682	0.010515093
2020-07-29T15:20:00	0.1453	15.976	224.0	0.309563442	0.310637348	0.003287346	0.033914943	0.010452915
2020-07-29T15:25:00	0.1458	15.988	224.0	0.310702131	0.312869400	0.003319081	0.034242349	0.010553825
2020-07-29T15:30:00	0.1455	15.981	224.0	0.309999733	0.311491598	0.003299483	0.034040155	0.010491506
2020-07-29T15:35:00	0.1457	15.991	224.0	0.310320150	0.312119731	0.003308414	0.034132297	0.010519906
2020-07-29T15:40:00	0.1453	15.997	224.0	0.309617711	0.310743540	0.003288854	0.033930502	0.010457710
2020-07-29T15:45:00	0.1448	15.992	224.0	0.308505967	0.308571817	0.003258046	0.033612665	0.010359750
2020-07-29T15:50:00	0.1452	15.989	224.0	0.309440258	0.310396374	0.003283924	0.033879643	0.010442035
2020-07-29T15:55:00	0.1451	15.998	224.0	0.309146934	0.309822955	0.003275786	0.033795681	0.010416157
2020-07-29T16:00:00	0.1447	15.990	224.0	0.308444365	0.308451709	0.003256345	0.033595109	0.010354339
2020-07-29T16:05:00	0.1440	15.989	225.0	0.306841648	0.305335240	0.003212268	0.033140377	0.010214186
2020-07-29T16:10:00	0.1438	15.982	224.0	0.306466760	0.304608611	0.003202013	0.033034576	0.010181577
2020-07-29T16:15:00	0.1441	15.975	224.0	0.307115259	0.305866128	0.003219766	0.033217731	0.010238027
2020-07-29T16:20:00	0.1441	15.981	224.0	0.307149730	0.305933044	0.003220711	0.033227484	0.010241033
2020-07-29T16:25:00	0.1435	15.974	224.0	0.305956100	0.303620249	0.003188077	0.032890801	0.010137264
2020-07-29T16:30:00	0.1431	15.948	224.0	0.305171713	0.302105300	0.003166746	0.032670730	0.010069436
2020-07-29T16:35:00	0.1432	15.951	224.0	0.305206194	0.302171814	0.003167681	0.032680385	0.010072412
2020-07-29T16:40:00	0.1428	15.935	224.0	0.304421711	0.300660391	0.003146434	0.032461178	0.010004850
2020-07-29T16:45:00	0.1426	15.928	224.0	0.304046675	0.299939200	0.003136308	0.032356712	0.009972653
2020-07-29T16:50:00	0.1428	15.911	224.0	0.304490681	0.300793117	0.003148298	0.032480413	0.010010779
2020-07-29T16:55:00	0.1431	15.891	224.0	0.305139388	0.302042952	0.003165868	0.032661681	0.010066647
2020-07-29T17:00:00	0.1426	15.883	224.0	0.304150136	0.300138067	0.003139099	0.032385510	0.009981529
2020-07-29T17:05:00	0.1425	15.860	224.0	0.303775084	0.299417486	0.003128988	0.032281193	0.009949377
2020-07-29T17:10:00	0.1423	15.852	224.0	0.303400008	0.298697748	0.003118897	0.032177082	0.009917289
2020-07-29T17:15:00	0.1417	15.838	224.0	0.302205646	0.296411780	0.003086899	0.031846973	0.009815546
2020-07-29T17:20:00	0.1418	15.813	224.0	0.302444969	0.296869115	0.003093294	0.031912947	0.009835880
2020-07-29T17:25:00	0.1415	15.799	224.0	0.301864972	0.295761391	0.003077811	0.031753208	0.009786647
2020-07-29T17:30:00	0.1415	15.780	224.0	0.301899472	0.295827222	0.003078731	0.031762695	0.009789571
2020-07-29T17:35:00	0.1410	15.762	224.0	0.300704809	0.293551984	0.003046987	0.031435202	0.009688634
2020-07-29T17:40:00	0.1410	15.749	223.0	0.300739316	0.293617576	0.003047901	0.031444631	0.009691541
2020-07-29T17:45:00	0.1404	15.723	223.0	0.299544418	0.291350633	0.003016353	0.031119153	0.009591225
2020-07-29T17:50:00	0.1405	15.700	223.0	0.299783849	0.291804156	0.003022657	0.031184200	0.009611273
2020-07-29T17:55:00	0.1404	15.677	223.0	0.299613445	0.291481344	0.003018169	0.031137897	0.009597002
2020-07-29T18:00:00	0.1402	15.652	223.0	0.299238106	0.290770952	0.003008298	0.031036061	0.009565615
2020-07-29T18:05:00	0.1408	15.629	223.0	0.300297190	0.292777732	0.003036203	0.031323951	0.009654346
2020-07-29T18:10:00	0.1407	15.607	223.0	0.300126801	0.292454396	0.003031703	0.031277521	0.009640036
2020-07-29T18:15:00	0.1405	15.584	222.0	0.299751495	0.291742852	0.003021805	0.031175405	0.009608563
2020-07-29T18:20:00	0.1404	15.557	222.0	0.299581090	0.291420072	0.003017318	0.031129110	0.009594294
2020-07-29T18:25:00	0.1401	15.527	223.0	0.299000812	0.290322290	0.003002069	0.030971788	0.009545806
2020-07-29T18:30:00	0.1402	15.502	222.0	0.299240265	0.290775035	0.003008355	0.031036646	0.009565796
2020-07-29T18:35:00	0.1406	15.473	222.0	0.299889543	0.292004473	0.003025443	0.031212941	0.009620132
2020-07-29T18:40:00	0.1408	15.442	222.0	0.300333857	0.292847336	0.003037172	0.031333948	0.009657427
2020-07-29T18:45:00	0.1407	15.408	222.0	0.300163469	0.292523964	0.003032671	0.031287509	0.009643114
2020-07-29T18:50:00	0.1411	15.378	221.0	0.301017519	0.294146671	0.003055276	0.031520718	0.009714991
2020-07-29T18:55:00	0.1418	15.341	221.0	0.302485938	0.296947441	0.003094390	0.031924249	0.009839364
2020-07-29T19:00:00	0.1420	15.299	221.0	0.302930058	0.297797207	0.003106282	0.032046936	0.009877177
2020-07-29T19:05:00	0.1426	15.259	221.0	0.303988484	0.299827380	0.003134739	0.032340522	0.009967663
2020-07-29T19:10:00	0.1425	15.226	220.0	0.303818201	0.299500281	0.003130149	0.032293174	0.009953070
2020-07-29T19:15:00	0.1428	15.180	220.0	0.304466980	0.300747503	0.003147658	0.032473802	0.010008741
2020-07-29T19:20:00	0.1430	15.144	221.0	0.304910955	0.301602537	0.003159674	0.032597777	0.010046952
2020-07-29T19:25:00	0.1433	15.092	220.0	0.305559618	0.302854006	0.003177283	0.032779446	0.010102944
2020-07-29T19:30:00	0.1439	15.060	221.0	0.306822268	0.305297654	0.003211737	0.033134902	0.010212499
2020-07-29T19:35:00	0.1442	15.015	220.0	0.307266073	0.306158954	0.003223903	0.033260417	0.010251183
2020-07-29T19:40:00	0.1444	14.979	220.0	0.307709848	0.307021436	0.003236098	0.033386222	0.010289958
2020-07-29T19:45:00	0.1445	14.942	220.0	0.307948956	0.307486661	0.003242680	0.033454131	0.010310888
2020-07-29T19:50:00	0.1440	14.902	220.0	0.306960153	0.305565118	0.003215514	0.033173866	0.010224508
2020-07-29T19:55:00	0.1436	14.853	219.0	0.306175893	0.304045449	0.003194070	0.032952635	0.010156322
2020-07-29T20:00:00	0.1432	14.820	219.0	0.305391534	0.302529467	0.003172714	0.032732310	0.010088416
2020-07-29T20:05:00	0.1431	14.781	219.0	0.305016558	0.301806097	0.003162537	0.032627310	0.010056054
2020-07-29T20:10:00	0.1439	14.752	219.0	0.306688691	0.305038663	0.003208081	0.033097184	0.010200873
2020-07-29T20:15:00	0.1437	14.706	219.0	0.306313793	0.304312378	0.003197834	0.032991467	0.010168291
2020-07-29T20:20:00	0.1432	14.677	218.0	0.305324730	0.302400531	0.003170900	0.032713588	0.010082646
2020-07-29T20:25:00	0.1434	14.637	218.0	0.305768644	0.303257847	0.003182971	0.032838123	0.010121028
2020-07-29T20:30:00	0.1434	14.606	218.0	0.305803121	0.303324484	0.003183910	0.032847808	0.010124013
2020-07-29T20:35:00	0.1433	14.568	218.0	0.305428170	0.302600189	0.003173710	0.032742580	0.010091581
2020-07-29T20:40:00	0.1428	14.526	218.0	0.304438965	0.300693592	0.003146900	0.032465989	0.010006333
2020-07-29T20:45:00	0.1425	14.490	218.0	0.303859160	0.299578943	0.003131253	0.032304559	0.009956579
2020-07-29T20:50:00	0.1425	14.451	218.0	0.303893648	0.299645186	0.003132182	0.032314147	0.009959534
2020-07-29T20:55:00	0.1425	14.418	218.0	0.303928136	0.299711436	0.003133112	0.032323737	0.009962490
2020-07-29T21:00:00	0.1417	14.379	217.0	0.302324241	0.296638365	0.003090067	0.031879655	0.009825619
2020-07-29T21:05:00	0.1424	14.339	217.0	0.303587560	0.299057534	0.003123940	0.032229115	0.009933326
2020-07-29T21:10:00	0.1421	14.308	217.0	0.303007674	0.297945843	0.003108363	0.032068408	0.009883795
2020-07-29T21:15:00	0.1418	14.277	217.0	0.302427732	0.296836165	0.003092833	0.031908192	0.009834415
2020-07-29T21:20:00	0.1421	14.234	216.0	0.303076660	0.298077984	0.003110214	0.032087499	0.009889679
2020-07-29T21:25:00	0.1422	14.201	217.0	0.303315949	0.298536567	0.003116638	0.032153778	0.009910107
2020-07-29T21:30:00	0.1423	14.173	216.0	0.303555227	0.298995493	0.003123070	0.032220141	0.009930560
2020-07-29T21:35:00	0.1419	14.131	216.0	0.302565717	0.297099997	0.003096524	0.031946266	0.009846149
2020-07-29T21:40:00	0.1412	14.088	216.0	0.301166326	0.294429877	0.003059225	0.031561463	0.009727550
2020-07-29T21:45:00	0.1407	14.058	216.0	0.300176419	0.292548534	0.003033013	0.031291037	0.009644201
2020-07-29T21:50:00	0.1404	14.014	216.0	0.299596200	0.291448686	0.003017715	0.031133213	0.009595559
2020-07-29T21:55:00	0.1404	13.977	216.0	0.299630713	0.291514048	0.003018624	0.031142587	0.009598448
2020-07-29T22:00:00	0.1417	13.944	215.0	0.302123727	0.296255320	0.003084712	0.031824410	0.009808592
2020-07-29T22:05:00	0.1420	13.911	215.0	0.302799853	0.297547947	0.003102792	0.032010936	0.009866081
2020-07-29T22:10:00	0.1425	13.876	215.0	0.303885461	0.299629460	0.003131962	0.032311871	0.009958832
2020-07-29T22:15:00	0.1426	13.842	215.0	0.304151876	0.300141411	0.003139146	0.032385994	0.009981678
2020-07-29T22:20:00	0.1424	13.813	215.0	0.303599204	0.299079878	0.003124253	0.032232347	0.009934322
2020-07-29T22:25:00	0.1426	13.783	215.0	0.304070401	0.299984799	0.003136948	0.032363314	0.009974688
2020-07-29T22:30:00	0.1426	13.727	215.0	0.304132046	0.300103291	0.003138611	0.032380473	0.009979976
2020-07-29T22:35:00	0.1431	13.707	214.0	0.305012685	0.301798631	0.003162432	0.032626226	0.010055720
2020-07-29T22:40:00	0.1436	13.681	214.0	0.306097900	0.303894532	0.003191943	0.032930685	0.010149557
2020-07-29T22:45:00	0.1431	13.664	214.0	0.305135956	0.302036333	0.003165775	0.032660720	0.010066351
2020-07-29T22:50:00	0.1432	13.629	214.0	0.305197591	0.302155219	0.003167448	0.032677976	0.010071669
2020-07-29T22:55:00	0.1426	13.591	214.0	0.304030742	0.299908580	0.003135878	0.032352278	0.009971286
2020-07-29T23:00:00	0.1424	13.579	214.0	0.303682842	0.299240400	0.003126504	0.032255569	0.009941480
2020-07-29T23:05:00	0.1426	13.536	213.0	0.304154032	0.300145557	0.003139205	0.032386595	0.009981863
2020-07-29T23:10:00	0.1430	13.513	213.0	0.304829931	0.301446404	0.003157479	0.032575130	0.010039971
2020-07-29T23:15:00	0.1434	13.475	213.0	0.305710469	0.303145426	0.003181387	0.032821786	0.010115993
2020-07-29T23:20:00	0.1430	13.450	213.0	0.304953205	0.301683971	0.003160819	0.032609591	0.010050593
2020-07-29T23:25:00	0.1433	13.434	213.0	0.305424298	0.302592714	0.003173605	0.032741495	0.010091247
2020-07-29T23:30:00	0.1436	13.391	213.0	0.306100056	0.303898704	0.003192002	0.032931292	0.010149744
2020-07-29T23:35:00	0.1433	13.363	212.0	0.305547561	0.302830720	0.003176955	0.032776063	0.010101901
2020-07-29T23:40:00	0.1437	13.329	212.0	0.306223305	0.304137210	0.003195364	0.032965983	0.010160436
2020-07-29T23:45:00	0.1439	13.306	212.0	0.306694301	0.305049538	0.003208235	0.033098767	0.010201362
2020-07-29T23:50:00	0.1437	13.290	212.0	0.306346552	0.304375806	0.003198729	0.033000696	0.010171135
2020-07-29T23:55:00	0.1436	13.261	212.0	0.306203483	0.304098843	0.003194823	0.032960402	0.010158716
2020-07-30T00:00:00	0.1435	13.223	212.0	0.305855707	0.303426135	0.003185342	0.032862582	0.010128567
2020-07-30T00:05:00	0.1437	13.200	212.0	0.306326730	0.304337425	0.003198188	0.032995112	0.010169414
2020-07-30T00:10:00	0.1434	13.169	211.0	0.305774255	0.303268691	0.003183124	0.032839699	0.010121514
2020-07-30T00:15:00	0.1437	13.145	211.0	0.306245284	0.304179752	0.003195964	0.032972172	0.010162344
2020-07-30T00:20:00	0.1432	13.114	211.0	0.305283363	0.302320703	0.003169776	0.032701998	0.010079074
2020-07-30T00:25:00	0.1428	13.076	211.0	0.304526047	0.300861186	0.003149255	0.032490279	0.010013819
2020-07-30T00:30:00	0.1428	13.056	211.0	0.304382935	0.300585785	0.003145386	0.032450367	0.010001518
2020-07-30T00:35:00	0.1429	13.031	211.0	0.304649327	0.301098529	0.003152589	0.032524685	0.010024424
2020-07-30T00:40:00	0.1425	13.004	211.0	0.303891932	0.299641890	0.003132136	0.032313670	0.009959387
2020-07-30T00:45:00	0.1421	12.966	211.0	0.303134442	0.298188686	0.003111764	0.032103496	0.009894609
2020-07-30T00:50:00	0.1422	12.947	210.0	0.303196097	0.298306833	0.003113419	0.032120571	0.009899872
2020-07-30T00:55:00	0.1421	12.919	210.0	0.303052954	0.298032571	0.003109577	0.032080938	0.009887657
2020-07-30T01:00:00	0.1425	12.906	210.0	0.303933749	0.299722219	0.003133263	0.032325298	0.009962971
2020-07-30T01:05:00	0.1421	12.863	210.0	0.302971464	0.297876495	0.003107392	0.032058389	0.009880707
2020-07-30T01:10:00	0.1420	12.850	210.0	0.302828316	0.297602426	0.003103555	0.032018804	0.009868506
2020-07-30T01:15:00	0.1423	12.822	210.0	0.303504362	0.298897905	0.003121702	0.032206026	0.009926210
2020-07-30T01:20:00	0.1425	12.797	210.0	0.303770793	0.299409248	0.003128872	0.032280000	0.009949010
2020-07-30T01:25:00	0.1426	12.764	210.0	0.304037212	0.299921015	0.003136053	0.032354079	0.009971841
2020-07-30T01:30:00	0.1432	12.751	205.0	0.305327327	0.302405543	0.003170970	0.032714316	0.010082870
2020-07-30T01:35:00	0.1434	12.731	194.0	0.305798391	0.303315342	0.003183781	0.032846479	0.010123604
2020-07-30T01:40:00	0.1436	12.712	210.0	0.306064722	0.303830346	0.003191038	0.032921351	0.010146680
2020-07-30T01:45:00	0.1436	12.673	209.0	0.306126348	0.303949574	0.003192719	0.032938690	0.010152024
2020-07-30T01:50:00	0.1434	12.657	209.0	0.305778567	0.303277026	0.003183241	0.032840910	0.010121887
2020-07-30T01:55:00	0.1436	12.629	209.0	0.306044899	0.303791998	0.003190497	0.032915774	0.010144961
2020-07-30T02:00:00	0.1441	12.596	209.0	0.307129933	0.305894613	0.003220168	0.033221882	0.010239307
2020-07-30T02:05:00	0.1444	12.571	209.0	0.307805506	0.307207512	0.003238730	0.033413379	0.010298328
2020-07-30T02:10:00	0.1441	12.547	209.0	0.307048498	0.305736547	0.003217935	0.033198846	0.010232207
2020-07-30T02:15:00	0.1437	12.529	209.0	0.306291398	0.304269019	0.003197223	0.032985159	0.010166346
2020-07-30T02:20:00	0.1439	12.499	209.0	0.306762388	0.305181540	0.003210098	0.033117991	0.010207286
2020-07-30T02:25:00	0.1436	12.491	208.0	0.306209951	0.304111363	0.003195000	0.032962223	0.010159277
2020-07-30T02:30:00	0.1436	12.458	209.0	0.306066879	0.303834517	0.003191097	0.032921957	0.010146867
2020-07-30T02:35:00	0.1439	12.442	208.0	0.306742567	0.305143110	0.003209556	0.033112394	0.010205561
2020-07-30T02:40:00	0.1438	12.435	187.0	0.306599507	0.304865807	0.003205642	0.033072016	0.010193116
2020-07-30T02:45:00	0.1440	12.387	187.0	0.306865803	0.305382090	0.003212930	0.033147202	0.010216289
2020-07-30T02:50:00	0.1438	12.375	187.0	0.306518064	0.304708000	0.003203415	0.033049043	0.010186036
2020-07-30T02:55:00	0.1432	12.364	187.0	0.305351466	0.302452129	0.003171626	0.032721080	0.010084955
2020-07-30T03:00:00	0.1434	12.340	187.0	0.305617816	0.302966419	0.003178866	0.032795777	0.010107977
2020-07-30T03:05:00	0.1431	12.320	187.0	0.305065277	0.301900032	0.003163858	0.032640940	0.010060255
2020-07-30T03:10:00	0.1435	12.295	187.0	0.305945782	0.303600297	0.003187796	0.032887901	0.010136370
2020-07-30T03:15:00	0.1428	12.280	187.0	0.304574330	0.300954130	0.003150560	0.032503751	0.010017972
2020-07-30T03:20:00	0.1427	12.253	187.0	0.304226461	0.300284817	0.003141160	0.032406765	0.009988080
2020-07-30T03:25:00	0.1423	12.235	192.0	0.303469013	0.298830096	0.003120752	0.032196220	0.009923188
2020-07-30T03:30:00	0.1424	12.211	190.0	0.303735446	0.299341382	0.003127921	0.032270180	0.009945983
2020-07-30T03:35:00	0.1422	12.183	190.0	0.303182736	0.298281228	0.003113060	0.032116870	0.009898731
2020-07-30T03:40:00	0.1422	12.180	189.0	0.303244391	0.298399392	0.003114716	0.032133949	0.009903995
2020-07-30T03:45:00	0.1428	12.165	189.0	0.304534674	0.300877792	0.003149488	0.032492686	0.010014561
2020-07-30T03:50:00	0.1425	12.132	188.0	0.303777264	0.299421673	0.003129047	0.032281798	0.009949564
2020-07-30T03:55:00	0.1426	12.129	192.0	0.304043683	0.299933451	0.003136227	0.032355879	0.009972396
2020-07-30T04:00:00	0.1426	12.115	189.0	0.304105329	0.300051933	0.003137890	0.032373036	0.009977684
2020-07-30T04:05:00	0.1431	12.101	189.0	0.305127237	0.302019518	0.003165539	0.032658280	0.010065599
2020-07-30T04:10:00	0.1436	12.088	189.0	0.306148976	0.303993360	0.003193336	0.032945059	0.010153987
2020-07-30T04:15:00	0.1437	12.078	189.0	0.306351838	0.304386042	0.003198873	0.033002186	0.010171594
2020-07-30T04:20:00	0.1442	12.064	188.0	0.307373375	0.306367382	0.003226849	0.033290808	0.010260550
2020-07-30T04:25:00	0.1444	12.046	191.0	0.307780844	0.307159533	0.003238051	0.033406376	0.010296170
2020-07-30T04:30:00	0.1450	12.029	190.0	0.309006756	0.309549111	0.003271901	0.033755602	0.010403804
2020-07-30T04:35:00	0.1444	12.031	190.0	0.307777182	0.307152409	0.003237950	0.033405336	0.010295849
2020-07-30T04:40:00	0.1445	12.012	192.0	0.307979991	0.307547071	0.003243535	0.033462951	0.010313607
2020-07-30T04:45:00	0.1447	12.001	191.0	0.308387421	0.308340704	0.003254772	0.033578885	0.010349339
2020-07-30T04:50:00	0.1444	11.997	189.0	0.307771689	0.307141723	0.003237799	0.033403777	0.010295368
2020-07-30T04:55:00	0.1444	11.985	190.0	0.307769858	0.307138161	0.003237749	0.033403257	0.010295208
2020-07-30T05:00:00	0.1444	11.967	190.0	0.307768026	0.307134599	0.003237698	0.033402737	0.010295048
2020-07-30T05:05:00	0.1447	11.962	190.0	0.308380098	0.308326429	0.003254570	0.033576799	0.010348696
2020-07-30T05:10:00	0.1443	11.955	191.0	0.307559717	0.306729515	0.003231969	0.033343628	0.010276830
2020-07-30T05:15:00	0.1448	11.952	191.0	0.308581057	0.308718254	0.003260122	0.033634073	0.010366348
2020-07-30T05:20:00	0.1451	11.951	191.0	0.309193049	0.309913069	0.003277065	0.033808872	0.010420223
2020-07-30T05:25:00	0.1454	11.957	191.0	0.309804983	0.311110132	0.003294062	0.033984227	0.010474269
2020-07-30T05:30:00	0.1460	11.954	191.0	0.311030505	0.313514596	0.003328269	0.034337136	0.010583039
2020-07-30T05:35:00	0.1468	11.963	191.0	0.312664784	0.316735776	0.003374233	0.034811340	0.010729193
2020-07-30T05:40:00	0.1466	11.973	192.0	0.312253965	0.315924463	0.003362641	0.034691750	0.010692334
2020-07-30T05:45:00	0.1471	11.982	193.0	0.313274560	0.317941967	0.003391485	0.034989327	0.010784050
2020-07-30T05:50:00	0.1470	12.002	193.0	0.313068258	0.317533621	0.003385642	0.034929046	0.010765471
2020-07-30T05:55:00	0.1474	12.022	193.0	0.313884280	0.319150391	0.003408791	0.035167870	0.010839079
2020-07-30T06:00:00	0.1475	12.040	193.0	0.314086898	0.319552486	0.003414555	0.035227330	0.010857405
2020-07-30T06:05:00	0.1474	12.058	193.0	0.313880621	0.319143133	0.003408687	0.035166797	0.010838748
2020-07-30T06:10:00	0.1469	12.080	192.0	0.312856461	0.317114678	0.003379650	0.034867227	0.010746418
2020-07-30T06:15:00	0.1473	12.101	193.0	0.313672509	0.318730409	0.003402774	0.035105793	0.010819946
2020-07-30T06:20:00	0.1471	12.129	193.0	0.313261753	0.317916610	0.003391122	0.034985583	0.010782896
2020-07-30T06:25:00	0.1475	12.155	193.0	0.314077751	0.319534329	0.003414294	0.035224644	0.010856577
2020-07-30T06:30:00	0.1478	12.181	192.0	0.314689227	0.320749334	0.003431724	0.035404461	0.010911999
2020-07-30T06:35:00	0.1480	12.214	193.0	0.315096236	0.321559371	0.003443356	0.035524472	0.010948987
2020-07-30T06:40:00	0.1480	12.247	193.0	0.315094407	0.321555728	0.003443304	0.035523932	0.010948821
2020-07-30T06:45:00	0.1485	12.280	193.0	0.316114566	0.323590648	0.003472569	0.035825859	0.011041878
2020-07-30T06:50:00	0.1494	12.319	193.0	0.318393585	0.327270782	0.003528922	0.036407240	0.011221065
2020-07-30T06:55:00	0.1501	12.357	192.0	0.320452655	0.330140412	0.003575196	0.036884643	0.011368205
2020-07-30T07:00:00	0.1503	12.399	194.0	0.321038498	0.330958856	0.003588427	0.037021135	0.011410273
2020-07-30T07:05:00	0.1510	12.447	194.0	0.323093505	0.333836723	0.003635060	0.037502243	0.011558555
2020-07-30T07:10:00	0.1513	12.496	194.0	0.323971760	0.335069948	0.003655097	0.037708960	0.011622268
2020-07-30T07:15:00	0.1514	12.568	194.0	0.324262634	0.335478822	0.003661747	0.037777571	0.011643414
2020-07-30T07:20:00	0.1513	12.631	195.0	0.323966507	0.335062566	0.003654977	0.037707722	0.011621886
2020-07-30T07:25:00	0.1516	13.107	197.0	0.324844193	0.336296958	0.003675065	0.037914965	0.011685760
2020-07-30T07:30:00	0.1523	13.209	195.0	0.326893403	0.339186705	0.003722216	0.038401416	0.011835689
2020-07-30T07:35:00	0.1520	13.056	197.0	0.326011804	0.337942172	0.003701888	0.038191694	0.011771051
2020-07-30T07:40:00	0.1516	13.512	197.0	0.324836318	0.336285874	0.003674884	0.037913102	0.011685186
2020-07-30T07:45:00	0.1543	13.581	198.0	0.332730920	0.347477918	0.003858466	0.039807078	0.012268928
2020-07-30T07:50:00	0.1523	13.065	196.0	0.326882920	0.339171894	0.003721974	0.038398918	0.011834919
2020-07-30T07:55:00	0.1528	13.115	196.0	0.328344008	0.341238841	0.003755806	0.038747959	0.011942497
2020-07-30T08:00:00	0.1529	13.174	197.0	0.328633942	0.341649655	0.003762541	0.038817442	0.011963913
2020-07-30T08:05:00	0.1526	13.176	197.0	0.327753476	0.340402776	0.003742110	0.038606664	0.011898949
2020-07-30T08:10:00	0.1524	13.196	196.0	0.327165307	0.339570948	0.003728499	0.038466234	0.011855667
2020-07-30T08:15:00	0.1520	13.296	196.0	0.325990824	0.337912579	0.003701405	0.038186711	0.011769515
2020-07-30T08:20:00	0.1514	13.295	196.0	0.324228497	0.335430826	0.003660966	0.037769515	0.011640931
2020-07-30T08:25:00	0.1506	13.285	195.0	0.321876009	0.332130415	0.003607389	0.037216772	0.011470571
2020-07-30T08:30:00	0.1511	13.291	197.0	0.323342526	0.334186192	0.003640735	0.037560788	0.011576600
2020-07-30T08:35:00	0.1512	13.328	197.0	0.323633536	0.334594788	0.003647373	0.037629273	0.011597707
2020-07-30T08:40:00	0.1512	13.378	197.0	0.323630909	0.334591098	0.003647313	0.037628655	0.011597517
2020-07-30T08:45:00	0.1508	13.428	197.0	0.322453342	0.332939068	0.003620495	0.037351983	0.011512244
2020-07-30T08:50:00	0.1507	13.483	197.0	0.322156817	0.332523627	0.003613761	0.037282501	0.011490829
2020-07-30T08:55:00	0.1509	13.534	197.0	0.322741916	0.333343584	0.003627057	0.037419674	0.011533107
2020-07-30T09:00:00	0.1510	13.580	197.0	0.323033056	0.333751914	0.003633683	0.037488039	0.011554178
2020-07-30T09:05:00	0.1510	13.971	302.0	0.323030427	0.333748227	0.003633623	0.037487421	0.011553987
2020-07-30T09:10:00	0.1522	13.818	273.0	0.326548047	0.338698935	0.003714245	0.038319180	0.011810343
2020-07-30T09:15:00	0.1512	14.362	258.0	0.323612519	0.334565271	0.003646893	0.037624325	0.011596182
2020-07-30T09:20:00	0.1546	15.049	247.0	0.333556019	0.348656931	0.003877955	0.040008150	0.012330900
2020-07-30T09:25:00	0.1534	14.197	237.0	0.330051313	0.343661072	0.003795567	0.039158162	0.012068926
2020-07-30T09:30:00	0.1527	14.286	234.0	0.328001639	0.340754012	0.003747862	0.038666005	0.011917238
2020-07-30T09:35:00	0.1526	14.163	230.0	0.327706331	0.340336067	0.003741018	0.038595397	0.011895476
2020-07-30T09:40:00	0.1525	14.126	228.0	0.327410958	0.339918256	0.003734180	0.038524849	0.011873733
2020-07-30T09:45:00	0.1524	14.017	226.0	0.327115521	0.339500578	0.003727348	0.038454361	0.011852007
2020-07-30T09:50:00	0.1524	14.037	225.0	0.327112901	0.339496875	0.003727287	0.038453736	0.011851815
2020-07-30T09:55:00	0.1525	14.078	224.0	0.327403099	0.339907142	0.003733998	0.038522973	0.011873154
2020-07-30T10:00:00	0.1518	14.376	225.0	0.325349414	0.337008406	0.003686657	0.038034560	0.011722621
2020-07-30T10:05:00	0.1519	14.215	224.0	0.325844884	0.337706760	0.003698046	0.038152061	0.011758836
2020-07-30T10:10:00	0.1532	14.190	223.0	0.329559530	0.342962587	0.003784089	0.039039745	0.012032429
2020-07-30T10:15:00	0.1522	14.214	209.0	0.326542339	0.338690876	0.003714113	0.038317821	0.011809925
2020-07-30T10:20:00	0.1521	14.243	225.0	0.326451514	0.338562650	0.003712019	0.038296212	0.011803264
2020-07-30T10:25:00	0.1525	14.330	225.0	0.327532225	0.340089764	0.003736987	0.038553804	0.011882657
2020-07-30T10:30:00	0.1516	14.340	222.0	0.324803891	0.336240232	0.003674141	0.037905434	0.011682823
2020-07-30T10:35:00	0.1519	14.382	222.0	0.325885919	0.337764626	0.003698990	0.038161802	0.011761838
2020-07-30T10:40:00	0.1516	14.427	214.0	0.324915358	0.336397133	0.003676696	0.037931798	0.011690948
2020-07-30T10:45:00	0.1513	14.469	223.0	0.323944099	0.335031077	0.003654465	0.037702440	0.011620258
2020-07-30T10:50:00	0.1512	14.522	223.0	0.323853099	0.334903211	0.003652386	0.037680992	0.011613648
2020-07-30T10:55:00	0.1511	14.555	223.0	0.323468483	0.334363016	0.003643607	0.037590421	0.011585733
2020-07-30T11:00:00	0.1515	14.604	222.0	0.324551584	0.335885208	0.003668360	0.037845799	0.011664443
2020-07-30T11:05:00	0.1513	14.653	221.0	0.323873646	0.334932081	0.003652855	0.037685834	0.011615140
2020-07-30T11:10:00	0.1512	14.678	221.0	0.323782642	0.334804225	0.003650777	0.037664391	0.011608531
2020-07-30T11:15:00	0.1503	14.717	221.0	0.321046694	0.330970313	0.003588612	0.037023047	0.011410863
2020-07-30T11:20:00	0.1515	14.762	220.0	0.324481163	0.335786147	0.003666748	0.037829164	0.011659316
2020-07-30T11:25:00	0.1441	14.870	198.0	0.307193588	0.306018195	0.003221914	0.033239896	0.010244859
2020-07-30T11:30:00	0.1444	14.937	209.0	0.307744106	0.307088069	0.003237040	0.033395946	0.010292955
2020-07-30T11:35:00	0.1444	14.941	209.0	0.307680666	0.306964681	0.003235295	0.033377940	0.010287405
2020-07-30T11:40:00	0.1433	15.015	197.0	0.305570400	0.302874830	0.003177576	0.032782471	0.010103876
2020-07-30T11:45:00	0.1435	14.980	186.0	0.305916360	0.303543403	0.003186994	0.032879629	0.010133821
2020-07-30T11:50:00	0.1437	14.980	210.0	0.306262301	0.304212692	0.003196429	0.032976964	0.010163821
2020-07-30T11:55:00	0.1430	15.063	210.0	0.304970551	0.301717406	0.003161290	0.032614442	0.010052088
2020-07-30T12:00:00	0.1432	15.037	209.0	0.305316545	0.302384734	0.003170677	0.032711295	0.010081939
2020-07-30T12:05:00	0.1432	15.053	209.0	0.305253080	0.302262271	0.003168954	0.032693516	0.010076459
2020-07-30T12:10:00	0.1426	15.080	208.0	0.304165884	0.300168342	0.003139524	0.032389894	0.009982880
2020-07-30T12:15:00	0.1421	15.092	207.0	0.303078493	0.298081494	0.003110263	0.032088007	0.009889835
2020-07-30T12:20:00	0.1422	15.137	209.0	0.303219803	0.298352266	0.003114056	0.032127137	0.009901896
2020-07-30T12:25:00	0.1414	15.178	211.0	0.301517713	0.295099183	0.003068564	0.031657810	0.009757245
2020-07-30T12:30:00	0.1420	15.233	212.0	0.302888025	0.297716729	0.003105155	0.032035312	0.009873594
2020-07-30T12:35:00	0.1419	15.227	211.0	0.302619722	0.297203289	0.003097969	0.031961175	0.009850745
2020-07-30T12:40:00	0.1412	15.241	211.0	0.301122332	0.294346134	0.003058057	0.031549414	0.009723836
2020-07-30T12:45:00	0.1421	15.257	211.0	0.303107163	0.298136421	0.003111032	0.032095943	0.009892281
2020-07-30T12:50:00	0.1418	15.286	210.0	0.302429240	0.296839047	0.003092874	0.031908608	0.009834543
2020-07-30T12:55:00	0.1419	15.314	211.0	0.302570565	0.297109269	0.003096654	0.031947604	0.009846562
2020-07-30T13:00:00	0.1419	15.344	210.0	0.302711888	0.297379611	0.003100436	0.031986630	0.009858590
2020-07-30T13:05:00	0.1403	15.386	210.0	0.299370456	0.291021345	0.003011777	0.031071946	0.009576675
2020-07-30T13:10:00	0.1409	15.422	209.0	0.300536381	0.293231937	0.003042528	0.031389203	0.009674457
2020-07-30T13:15:00	0.1409	15.411	179.0	0.300677752	0.293500557	0.003046270	0.031427809	0.009686356
2020-07-30T13:20:00	0.1413	15.423	178.0	0.301433720	0.294939126	0.003066330	0.031634763	0.009750141
2020-07-30T13:25:00	0.1407	15.465	206.0	0.300140934	0.292481210	0.003032076	0.031281370	0.009641222
2020-07-30T13:30:00	0.1397	15.472	205.0	0.298028019	0.288486704	0.002976614	0.030709177	0.009464867
2020-07-30T13:35:00	0.1397	15.477	202.0	0.298169450	0.288753204	0.002980306	0.030747269	0.009476607
2020-07-30T13:40:00	0.1398	15.509	199.0	0.298310878	0.289019823	0.002984001	0.030785391	0.009488356
2020-07-30T13:45:00	0.1393	15.542	195.0	0.297222407	0.286971092	0.002955637	0.030492766	0.009398167
2020-07-30T13:50:00	0.1390	15.565	194.0	0.296748826	0.286082047	0.002943350	0.030366000	0.009359096
2020-07-30T13:55:00	0.1387	15.588	181.0	0.296070164	0.284810470	0.002925798	0.030184920	0.009303285
2020-07-30T14:00:00	0.1382	15.646	182.0	0.294981263	0.282776316	0.002897775	0.029895808	0.009214178
2020-07-30T14:05:00	0.1384	15.667	178.0	0.295532916	0.283805915	0.002911951	0.030042057	0.009259254
2020-07-30T14:10:00	0.1385	15.665	175.0	0.295674410	0.284070305	0.002915593	0.030079641	0.009270837
2020-07-30T14:15:00	0.1389	15.671	173.0	0.296431032	0.285486251	0.002935123	0.030281121	0.009332936
2020-07-30T14:20:00	0.1386	15.689	171.0	0.295957386	0.284599445	0.002922888	0.030154895	0.009294031
2020-07-30T14:25:00	0.1401	15.680	172.0	0.298968779	0.290261751	0.003001228	0.030963118	0.009543134
2020-07-30T14:30:00	0.1382	15.698	169.0	0.295009973	0.282829854	0.002898511	0.029903408	0.009216521
2020-07-30T14:35:00	0.1392	15.719	169.0	0.297201904	0.286932573	0.002955105	0.030487271	0.009396473
2020-07-30T14:40:00	0.1391	15.719	168.0	0.296933340	0.286428264	0.002948134	0.030415351	0.009374306
2020-07-30T14:45:00	0.1390	15.742	168.0	0.296664764	0.285924386	0.002941172	0.030343534	0.009352172
2020-07-30T14:50:00	0.1395	15.772	169.0	0.297626249	0.287730335	0.002966141	0.030601129	0.009431565
2020-07-30T14:55:00	0.1392	15.765	169.0	0.297152701	0.286840147	0.002953827	0.030474087	0.009392410
2020-07-30T15:00:00	0.1396	15.758	170.0	0.297909128	0.288262774	0.002973512	0.030677179	0.009455004
2020-07-30T15:05:00	0.1401	15.766	171.0	0.298870404	0.290075874	0.002998648	0.030936501	0.009534930
2020-07-30T15:10:00	0.1402	15.783	171.0	0.299216752	0.290730562	0.003007738	0.031030273	0.009563832
2020-07-30T15:15:00	0.1400	15.786	170.0	0.298743335	0.289835871	0.002995318	0.030902143	0.009524341
2020-07-30T15:20:00	0.1406	15.759	168.0	0.299909386	0.292042090	0.003025967	0.031218339	0.009621795
2020-07-30T15:25:00	0.1400	15.776	164.0	0.298821216	0.289982957	0.002997359	0.030923198	0.009530830
2020-07-30T15:30:00	0.1403	15.768	163.0	0.299372498	0.291025210	0.003011830	0.031072500	0.009576846
2020-07-30T15:35:00	0.1408	15.768	162.0	0.300333532	0.292846720	0.003037164	0.031333860	0.009657400
2020-07-30T15:40:00	0.1413	15.777	164.0	0.301499267	0.295064028	0.003068073	0.031652748	0.009755684
2020-07-30T15:45:00	0.1414	15.749	164.0	0.301640614	0.295333464	0.003071835	0.031691553	0.009767644
2020-07-30T15:50:00	0.1412	15.747	163.0	0.301167394	0.294431909	0.003059254	0.031561756	0.009727640
2020-07-30T15:55:00	0.1414	15.754	162.0	0.301513606	0.295091356	0.003068455	0.031656683	0.009756897
2020-07-30T16:00:00	0.1411	15.754	158.0	0.301040375	0.294190161	0.003055882	0.031526974	0.009716920
2020-07-30T16:05:00	0.1408	15.770	157.0	0.300340541	0.292860025	0.003037349	0.031335771	0.009657989
2020-07-30T16:10:00	0.1402	15.766	157.0	0.299230771	0.290757078	0.003008106	0.031034073	0.009565003
2020-07-30T16:15:00	0.1391	15.732	155.0	0.296890823	0.286348467	0.002947031	0.030403974	0.009370800
2020-07-30T16:20:00	0.1387	15.719	152.0	0.295985441	0.284651933	0.002923612	0.030162362	0.009296333
2020-07-30T16:25:00	0.1383	15.725	151.0	0.295284992	0.283342956	0.002905574	0.029976274	0.009238979
2020-07-30T16:30:00	0.1381	15.725	149.0	0.294789553	0.282418962	0.002892859	0.029845090	0.009198547
2020-07-30T16:35:00	0.1378	15.705	147.0	0.294294070	0.281496433	0.002880177	0.029714257	0.009158223
2020-07-30T16:40:00	0.1369	15.718	147.0	0.292362448	0.277914772	0.002831075	0.029207676	0.009002089
2020-07-30T16:45:00	0.1366	15.723	145.0	0.291866746	0.276999423	0.002818560	0.029078562	0.008962295
2020-07-30T16:50:00	0.1356	15.705	143.0	0.289728984	0.273069634	0.002764989	0.028525878	0.008791953
2020-07-30T16:55:00	0.1346	15.711	143.0	0.287590364	0.269167093	0.002712045	0.027979664	0.008623604
2020-07-30T17:00:00	0.1343	15.689	142.0	0.287094218	0.268265849	0.002699854	0.027853899	0.008584842
2020-07-30T17:05:00	0.1340	15.667	141.0	0.286392614	0.266994042	0.002682675	0.027676665	0.008530217
2020-07-30T17:10:00	0.1334	15.639	141.0	0.285280015	0.264983579	0.002655575	0.027397073	0.008444044
2020-07-30T17:15:00	0.1330	15.615	141.0	0.284372672	0.263349790	0.002633602	0.027170389	0.008374178
2020-07-30T17:20:00	0.1329	15.595	141.0	0.284081726	0.262827002	0.002626581	0.027097953	0.008351852
2020-07-30T17:25:00	0.1327	15.575	140.0	0.283790763	0.262304718	0.002619571	0.027025636	0.008329563
2020-07-30T17:30:00	0.1320	15.556	138.0	0.282266446	0.259577258	0.002583042	0.026648767	0.008213409
2020-07-30T17:35:00	0.1313	15.539	137.0	0.280947302	0.257228733	0.002551691	0.026325323	0.008113720
2020-07-30T17:40:00	0.1308	15.519	135.0	0.279833491	0.255254309	0.002525408	0.026054167	0.008030147
2020-07-30T17:45:00	0.1308	15.491	132.0	0.279953652	0.255466940	0.002528235	0.026083334	0.008039137
2020-07-30T17:50:00	0.1305	15.457	131.0	0.279251047	0.254224939	0.002511732	0.025913078	0.007986662
2020-07-30T17:55:00	0.1297	15.428	131.0	0.277519535	0.251177415	0.002471354	0.025496502	0.007858270
2020-07-30T18:00:00	0.1294	15.398	131.0	0.277022381	0.250305896	0.002459837	0.025377683	0.007821648
2020-07-30T18:05:00	0.1294	15.363	129.0	0.276936809	0.250156044	0.002457858	0.025357266	0.007815356
2020-07-30T18:10:00	0.1295	15.337	128.0	0.277262842	0.250727232	0.002465403	0.025435109	0.007839348
2020-07-30T18:15:00	0.1289	15.314	128.0	0.275942325	0.248417907	0.002434933	0.025120759	0.007742462
2020-07-30T18:20:00	0.1291	15.287	127.0	0.276268427	0.248987173	0.002442436	0.025198158	0.007766317
2020-07-30T18:25:00	0.1287	15.259	128.0	0.275565276	0.247760539	0.002426277	0.025031456	0.007714938
2020-07-30T18:30:00	0.1289	15.236	127.0	0.275891404	0.248329076	0.002433763	0.025108687	0.007738741
2020-07-30T18:35:00	0.1292	15.209	126.0	0.276629171	0.249617694	0.002450752	0.025283954	0.007792760
2020-07-30T18:40:00	0.1292	15.190	119.0	0.276543592	0.249468042	0.002448777	0.025263584	0.007786482
2020-07-30T18:45:00	0.1289	15.161	126.0	0.276046334	0.248599400	0.002437325	0.025145429	0.007750065
2020-07-30T18:50:00	0.1294	15.130	124.0	0.276989887	0.250248987	0.002459085	0.025369929	0.007819258
2020-07-30T18:55:00	0.1294	15.105	125.0	0.276904314	0.250099151	0.002457107	0.025349516	0.007812967
2020-07-30T19:00:00	0.1301	15.067	125.0	0.278464961	0.252839058	0.002493350	0.025723428	0.007928210
2020-07-30T19:05:00	0.1303	15.033	124.0	0.278790889	0.253413202	0.002500961	0.025801954	0.007952413
2020-07-30T19:10:00	0.1300	14.990	123.0	0.278293868	0.252537934	0.002489360	0.025682267	0.007915524
2020-07-30T19:15:00	0.1314	14.962	123.0	0.281088001	0.257478703	0.002555023	0.026359702	0.008124316
2020-07-30T19:20:00	0.1312	14.920	123.0	0.280591216	0.256596658	0.002543269	0.026238441	0.008086942
2020-07-30T19:25:00	0.1316	14.870	123.0	0.281533875	0.258271679	0.002565601	0.026468838	0.008157953
2020-07-30T19:30:00	0.1320	14.852	123.0	0.282270777	0.259584987	0.002583145	0.026649833	0.008213737
2020-07-30T19:35:00	0.1328	14.824	123.0	0.284035220	0.262743487	0.002625460	0.027086386	0.008348287
2020-07-30T19:40:00	0.1333	14.775	123.0	0.284977228	0.264437796	0.002648229	0.027321295	0.008420688
2020-07-30T19:45:00	0.1336	14.749	123.0	0.285508181	0.265395238	0.002661118	0.027454264	0.008461671
2020-07-30T19:50:00	0.1342	14.716	123.0	0.286860725	0.267842249	0.002694129	0.027794836	0.008566639
2020-07-30T19:55:00	0.1346	14.679	123.0	0.287596853	0.269178892	0.002712204	0.027981311	0.008624112
2020-07-30T20:00:00	0.1344	14.648	122.0	0.287306090	0.268650523	0.002705056	0.027907561	0.008601381
2020-07-30T20:05:00	0.1349	14.603	122.0	0.288247500	0.270363163	0.002728244	0.028146789	0.008675114
2020-07-30T20:10:00	0.1349	14.572	122.0	0.288367461	0.270581801	0.002731208	0.028177366	0.008684538
2020-07-30T20:15:00	0.1352	14.539	122.0	0.288898067	0.271549956	0.002744341	0.028312864	0.008726300
2020-07-30T20:20:00	0.1349	14.486	122.0	0.288196706	0.270270613	0.002726990	0.028133849	0.008671125
2020-07-30T20:25:00	0.1335	14.459	120.0	0.285441140	0.265274248	0.002659488	0.027437452	0.008456489
2020-07-30T20:30:00	0.1336	14.409	121.0	0.285561166	0.265490881	0.002662406	0.027467556	0.008465768
2020-07-30T20:35:00	0.1332	14.366	120.0	0.284859353	0.264225478	0.002645373	0.027291830	0.008411607
2020-07-30T20:40:00	0.1334	14.346	121.0	0.285184859	0.264811996	0.002653265	0.027373244	0.008436700
2020-07-30T20:45:00	0.1329	14.301	121.0	0.284071996	0.262809529	0.002626347	0.027095533	0.008351106
2020-07-30T20:50:00	0.1319	14.257	120.0	0.282136608	0.259345616	0.002579945	0.026616821	0.008203563
2020-07-30T20:55:00	0.1319	14.239	119.0	0.282051127	0.259193168	0.002577908	0.026595802	0.008197084
2020-07-30T21:00:00	0.1311	14.228	118.0	0.280526275	0.256481471	0.002541735	0.026222615	0.008082065
2020-07-30T21:05:00	0.1309	14.180	117.0	0.280029432	0.255601084	0.002530019	0.026101740	0.008044810
2020-07-30T21:10:00	0.1315	14.125	117.0	0.281383454	0.258004018	0.002562030	0.026431987	0.008146595
2020-07-30T21:15:00	0.1330	14.086	117.0	0.284381331	0.263365356	0.002633811	0.027172547	0.008374843
2020-07-30T21:20:00	0.1329	14.061	118.0	0.284090385	0.262842553	0.002626790	0.027100107	0.008352516
2020-07-30T21:25:00	0.1339	14.036	118.0	0.286265046	0.266763131	0.002679559	0.027644517	0.008520308
2020-07-30T21:30:00	0.1340	14.010	118.0	0.286385053	0.266980353	0.002682490	0.027674759	0.008529629
2020-07-30T21:35:00	0.1352	13.991	118.0	0.288969388	0.271680227	0.002746110	0.028331109	0.008731923
2020-07-30T21:40:00	0.1353	13.974	118.0	0.289089333	0.271899380	0.002749085	0.028361808	0.008741385
2020-07-30T21:45:00	0.1361	13.931	118.0	0.290646205	0.274752207	0.002787894	0.028762189	0.008864786
2020-07-30T21:50:00	0.1354	13.905	118.0	0.289329214	0.272337945	0.002755043	0.028423267	0.008760327
2020-07-30T21:55:00	0.1358	13.869	117.0	0.290064998	0.273685409	0.002773366	0.028612305	0.008818590
2020-07-30T22:00:00	0.1351	13.836	117.0	0.288747863	0.271275710	0.002740619	0.028274466	0.008714465
2020-07-30T22:05:00	0.1347	13.803	117.0	0.287868365	0.269672758	0.002718890	0.028050290	0.008645372
2020-07-30T22:10:00	0.1348	13.776	117.0	0.288015571	0.269940712	0.002722520	0.028087732	0.008656912
2020-07-30T22:15:00	0.1346	13.750	116.0	0.287752068	0.269461162	0.002716025	0.028020731	0.008636261
2020-07-30T22:20:00	0.1343	13.699	116.0	0.287077794	0.268236042	0.002699451	0.027849742	0.008583561
2020-07-30T22:25:00	0.1345	13.684	117.0	0.287430399	0.268876349	0.002708110	0.027939077	0.008611095
2020-07-30T22:30:00	0.1343	13.647	116.0	0.286961479	0.268024994	0.002696599	0.027820313	0.008574491
2020-07-30T22:35:00	0.1348	13.627	117.0	0.288135537	0.270159184	0.002725480	0.028118270	0.008666324
2020-07-30T22:40:00	0.1347	13.587	117.0	0.287872040	0.269679446	0.002718981	0.028051224	0.008645660
2020-07-30T22:45:00	0.1347	13.567	117.0	0.287813892	0.269573637	0.002717548	0.028036442	0.008641104
2020-07-30T22:50:00	0.1347	13.532	116.0	0.287961099	0.269841543	0.002721176	0.028073873	0.008652640
2020-07-30T22:55:00	0.1347	13.489	116.0	0.287902952	0.269735703	0.002719743	0.028059084	0.008648082
2020-07-30T23:00:00	0.1341	13.469	116.0	0.286612518	0.267392332	0.002688052	0.027732139	0.008547314
2020-07-30T23:05:00	0.1347	13.424	116.0	0.287786655	0.269524083	0.002716877	0.028029520	0.008638970
2020-07-30T23:10:00	0.1361	13.417	117.0	0.290808026	0.275049605	0.002791948	0.028804008	0.008877675
2020-07-30T23:15:00	0.1350	13.390	117.0	0.288491745	0.270808414	0.002734280	0.028209067	0.008694308
2020-07-30T23:20:00	0.1345	13.342	116.0	0.287406835	0.268833535	0.002707531	0.027933101	0.008609253
2020-07-30T23:25:00	0.1332	13.319	116.0	0.284883580	0.264269108	0.002645960	0.027297884	0.008413473
2020-07-30T23:30:00	0.1322	13.300	116.0	0.282770211	0.260477024	0.002595079	0.026772947	0.008251682
2020-07-30T23:35:00	0.1319	13.269	116.0	0.282095277	0.259271899	0.002578960	0.026606657	0.008200430
2020-07-30T23:40:00	0.1326	13.232	116.0	0.283475992	0.261740298	0.002612002	0.026947538	0.008305493
2020-07-30T23:45:00	0.1320	13.196	116.0	0.282390017	0.259797818	0.002585991	0.026679194	0.008222787
2020-07-30T23:50:00	0.1318	13.162	115.0	0.281920632	0.258960530	0.002574800	0.026563734	0.008187201
2020-07-30T23:55:00	0.1323	13.132	115.0	0.282890300	0.260691750	0.002597953	0.026802603	0.008260822
2020-07-31T00:00:00	0.1320	13.116	115.0	0.282420962	0.259853066	0.002586730	0.026686817	0.008225136
2020-07-31T00:05:00	0.1326	13.091	115.0	0.283596064	0.261955528	0.002614888	0.026977312	0.008314670
2020-07-31T00:10:00	0.1326	13.060	115.0	0.283537868	0.261851199	0.002613488	0.026962879	0.008310221
2020-07-31T00:15:00	0.1330	13.028	116.0	0.284301729	0.263222267	0.002631889	0.027152716	0.008368731
2020-07-31T00:20:00	0.1320	12.998	116.0	0.282393696	0.259804386	0.002586079	0.026680100	0.008223066
2020-07-31T00:25:00	0.1324	12.979	115.0	0.283157732	0.261170258	0.002604362	0.026868720	0.008281201
2020-07-31T00:30:00	0.1324	12.954	116.0	0.283099530	0.261066081	0.002602966	0.026854322	0.008276763
2020-07-31T00:35:00	0.1322	12.922	114.0	0.282630212	0.260226813	0.002591730	0.026738400	0.008241034
2020-07-31T00:40:00	0.1322	12.884	115.0	0.282777568	0.260490176	0.002595255	0.026774763	0.008252242
2020-07-31T00:45:00	0.1323	12.851	115.0	0.282924920	0.260753669	0.002598782	0.026811156	0.008263459
2020-07-31T00:50:00	0.1325	12.847	115.0	0.283277812	0.261385261	0.002607243	0.026898441	0.008290361
2020-07-31T00:55:00	0.1327	12.812	115.0	0.283836201	0.262386245	0.002620665	0.027036921	0.008333042
2020-07-31T01:00:00	0.1324	12.785	115.0	0.283161411	0.261176843	0.002604450	0.026869630	0.008281481
2020-07-31T01:05:00	0.1324	12.770	115.0	0.283103209	0.261072664	0.002603054	0.026855232	0.008277043
2020-07-31T01:10:00	0.1329	12.737	114.0	0.284072648	0.262810700	0.002626362	0.027095695	0.008351156
2020-07-31T01:15:00	0.1319	12.697	115.0	0.282164528	0.259395417	0.002580611	0.026623688	0.008205679
2020-07-31T01:20:00	0.1320	12.689	114.0	0.282311898	0.259658373	0.002584126	0.026659956	0.008216857
2020-07-31T01:25:00	0.1318	12.648	114.0	0.281842505	0.258821302	0.002572940	0.026544547	0.008181287
2020-07-31T01:30:00	0.1320	12.642	114.0	0.282401054	0.259817522	0.002586255	0.026681913	0.008223625
2020-07-31T01:35:00	0.1316	12.638	114.0	0.281520461	0.258247804	0.002565283	0.026465550	0.008156940
2020-07-31T01:40:00	0.1309	12.602	113.0	0.280022723	0.255589206	0.002529861	0.026100110	0.008044307
2020-07-31T01:45:00	0.1311	12.586	112.0	0.280375823	0.256214711	0.002538184	0.026185975	0.008070772
2020-07-31T01:50:00	0.1303	12.559	113.0	0.278877733	0.253566295	0.002502992	0.025822903	0.007958869
2020-07-31T01:55:00	0.1309	12.541	114.0	0.280053683	0.255644018	0.002530590	0.026107631	0.008046626
2020-07-31T02:00:00	0.1302	12.506	112.0	0.278555493	0.252998468	0.002495462	0.025745225	0.007934928
2020-07-31T02:05:00	0.1306	12.479	113.0	0.279525829	0.254710304	0.002518178	0.025979580	0.008007159
2020-07-31T02:10:00	0.1300	12.454	112.0	0.278233231	0.252431257	0.002487947	0.025667689	0.007911031
2020-07-31T02:15:00	0.1290	12.424	112.0	0.276116978	0.248722710	0.002438950	0.025162193	0.007755232
2020-07-31T02:20:00	0.1293	12.430	112.0	0.276676191	0.249699938	0.002451837	0.025295151	0.007796211
2020-07-31T02:25:00	0.1305	12.400	112.0	0.279292845	0.254298740	0.002512712	0.025923187	0.007989778
2020-07-31T02:30:00	0.1309	12.381	112.0	0.280057364	0.255650535	0.002530677	0.026108526	0.008046901
2020-07-31T02:35:00	0.1300	12.362	111.0	0.278147681	0.252280790	0.002485954	0.025647131	0.007904695
2020-07-31T02:40:00	0.1310	12.333	111.0	0.280352226	0.256172886	0.002537627	0.026180231	0.008069002
2020-07-31T02:45:00	0.1307	12.302	111.0	0.279676960	0.254977458	0.002521728	0.026016202	0.008018446
2020-07-31T02:50:00	0.1313	12.279	108.0	0.280852716	0.257060760	0.002549452	0.026302227	0.008106602
2020-07-31T02:55:00	0.1311	12.260	112.0	0.280383184	0.256227759	0.002538358	0.026187767	0.008071324
2020-07-31T03:00:00	0.1313	12.254	108.0	0.280941899	0.257219136	0.002551563	0.026324003	0.008113313
2020-07-31T03:05:00	0.1316	12.234	111.0	0.281500550	0.258212367	0.002564810	0.026460671	0.008155436
2020-07-31T03:10:00	0.1318	12.191	112.0	0.281853543	0.258840970	0.002573203	0.026547258	0.008182123
2020-07-31T03:15:00	0.1316	12.165	112.0	0.281589720	0.258371086	0.002566928	0.026482527	0.008162172
2020-07-31T03:20:00	0.1311	12.159	112.0	0.280503331	0.256440781	0.002541194	0.026217026	0.008080342
2020-07-31T03:25:00	0.1305	12.145	112.0	0.279210995	0.254154234	0.002510794	0.025903394	0.007983678
2020-07-31T03:30:00	0.1300	12.133	112.0	0.278124073	0.252239277	0.002485404	0.025641460	0.007902947
2020-07-31T03:35:00	0.1315	12.111	111.0	0.281356835	0.257956667	0.002561398	0.026425470	0.008144586
2020-07-31T03:40:00	0.1310	12.104	112.0	0.280270394	0.256027865	0.002535697	0.026160319	0.008062864
2020-07-31T03:45:00	0.1312	12.059	112.0	0.280623476	0.256653889	0.002544032	0.026246304	0.008089366
2020-07-31T03:50:00	0.1314	12.013	112.0	0.281182163	0.257646064	0.002557255	0.026382726	0.008131412
2020-07-31T03:55:00	0.1298	12.026	111.0	0.277832756	0.251727295	0.002478627	0.025571542	0.007881398
2020-07-31T04:00:00	0.1298	12.003	110.0	0.277774491	0.251624959	0.002477273	0.025557573	0.007877092
2020-07-31T04:05:00	0.1299	12.000	111.0	0.278065811	0.252136841	0.002484048	0.025627467	0.007898634
2020-07-31T04:10:00	0.1301	11.988	111.0	0.278357114	0.252649225	0.002490834	0.025697478	0.007920212
2020-07-31T04:15:00	0.1306	11.988	112.0	0.279471265	0.254613887	0.002516897	0.025966366	0.008003086
2020-07-31T04:20:00	0.1302	11.979	112.0	0.278528205	0.252950414	0.002494825	0.025738654	0.007932903
2020-07-31T04:25:00	0.1311	11.974	112.0	0.280465014	0.256372834	0.002540289	0.026207692	0.008077465
2020-07-31T04:30:00	0.1315	11.960	112.0	0.281373067	0.257985541	0.002561783	0.026429444	0.008145811
2020-07-31T04:35:00	0.1322	11.963	112.0	0.282692098	0.260337402	0.002593210	0.026753667	0.008245740
2020-07-31T04:40:00	0.1326	11.953	112.0	0.283599742	0.261962122	0.002614976	0.026978225	0.008314951
2020-07-31T04:45:00	0.1326	11.955	112.0	0.283479670	0.261746890	0.002612090	0.026948450	0.008305774
2020-07-31T04:50:00	0.1321	11.979	111.0	0.282537381	0.260060971	0.002589511	0.026715508	0.008233979
2020-07-31T04:55:00	0.1326	12.007	111.0	0.283650583	0.262053282	0.002616199	0.026990838	0.008318838
2020-07-31T05:00:00	0.1326	12.026	110.0	0.283530511	0.261838013	0.002613312	0.026961055	0.008309659
2020-07-31T05:05:00	0.1328	12.055	111.0	0.284027003	0.262728733	0.002625262	0.027084343	0.008347658
2020-07-31T05:10:00	0.1333	12.096	112.0	0.284934407	0.264360656	0.002647192	0.027310589	0.008417389
2020-07-31T05:15:00	0.1336	12.121	111.0	0.285636210	0.265626373	0.002664232	0.027486388	0.008471572
2020-07-31T05:20:00	0.1338	12.155	108.0	0.285927067	0.266151851	0.002671314	0.027559457	0.008494092
2020-07-31T05:25:00	0.1341	12.182	112.0	0.286628734	0.267421713	0.002688449	0.027736232	0.008548576
2020-07-31T05:30:00	0.1342	12.223	112.0	0.286919535	0.267948910	0.002695571	0.027809705	0.008571221
2020-07-31T05:35:00	0.1344	12.269	112.0	0.287210320	0.268476609	0.002702704	0.027883297	0.008593903
2020-07-31T05:40:00	0.1354	12.292	112.0	0.289349095	0.272374309	0.002755537	0.028428364	0.008761898
2020-07-31T05:45:00	0.1365	12.303	112.0	0.291487009	0.276299257	0.002808996	0.028979897	0.008931886
2020-07-31T05:50:00	0.1368	12.309	112.0	0.292187939	0.277592351	0.002826665	0.029162181	0.008988067
2020-07-31T05:55:00	0.1372	12.322	113.0	0.293093938	0.279268352	0.002849607	0.029398867	0.009061016
2020-07-31T06:00:00	0.1376	12.347	112.0	0.293794662	0.280568165	0.002867431	0.029582756	0.009117693
2020-07-31T06:05:00	0.1382	12.360	113.0	0.295110575	0.283017491	0.002901094	0.029930050	0.009224732
2020-07-31T06:10:00	0.1386	12.366	113.0	0.295811045	0.284325739	0.002919114	0.030115962	0.009282032
2020-07-31T06:15:00	0.1387	12.379	113.0	0.296101354	0.284868845	0.002926603	0.030193227	0.009305846
2020-07-31T06:20:00	0.1387	12.417	113.0	0.295981563	0.284644677	0.002923512	0.030161330	0.009296015
2020-07-31T06:25:00	0.1388	12.475	114.0	0.296271862	0.285188079	0.002931008	0.030238665	0.009319850
2020-07-31T06:30:00	0.1389	12.521	113.0	0.296562146	0.285731984	0.002938515	0.030316122	0.009343723
2020-07-31T06:35:00	0.1387	12.556	103.0	0.296032285	0.284739584	0.002924820	0.030174833	0.009300177
2020-07-31T06:40:00	0.1387	12.583	100.0	0.296117541	0.284899144	0.002927021	0.030197539	0.009307175
2020-07-31T06:45:00	0.1386	12.625	94.0	0.295792698	0.284291431	0.002918641	0.030111083	0.009280528
2020-07-31T06:50:00	0.1385	12.655	108.0	0.295672900	0.284067484	0.002915555	0.030079239	0.009270714
2020-07-31T06:55:00	0.1388	12.695	101.0	0.296373301	0.285378084	0.002933630	0.030265718	0.009328188
2020-07-31T07:00:00	0.1388	12.736	111.0	0.296253515	0.285153721	0.002930534	0.030233774	0.009318343
2020-07-31T07:05:00	0.1378	12.783	104.0	0.294288029	0.281485197	0.002880023	0.029712665	0.009157732
2020-07-31T07:10:00	0.1386	12.846	90.0	0.295808886	0.284321700	0.002919058	0.030115388	0.009281855
2020-07-31T07:15:00	0.1390	12.925	114.0	0.296714296	0.286017279	0.002942455	0.030356770	0.009356251
2020-07-31T07:20:00	0.1391	13.010	91.0	0.296799541	0.286177186	0.002944664	0.030379559	0.009363275
2020-07-31T07:25:00	0.1389	13.469	93.0	0.296474737	0.285568151	0.002936253	0.030292785	0.009336531
2020-07-31T07:30:00	0.1400	13.500	88.0	0.298814855	0.289970943	0.002997192	0.030921478	0.009530300
2020-07-31T07:35:00	0.1397	13.748	85.0	0.298080232	0.288585075	0.002977977	0.030723236	0.009469200
2020-07-31T07:40:00	0.1393	14.154	97.0	0.297345515	0.287202433	0.002958837	0.030525774	0.009408340
2020-07-31T07:45:00	0.1415	14.422	91.0	0.301734094	0.295511723	0.003074324	0.031717232	0.009775559
2020-07-31T07:50:00	0.1388	13.680	107.0	0.296285889	0.285214349	0.002931370	0.030242405	0.009321003
2020-07-31T07:55:00	0.1378	13.589	95.0	0.294320414	0.281545444	0.002880851	0.029721205	0.009160364
2020-07-31T08:00:00	0.1377	13.680	70.0	0.293995467	0.280941219	0.002872552	0.029635587	0.009133976
2020-07-31T08:05:00	0.1376	13.705	85.0	0.293875631	0.280718557	0.002869495	0.029604052	0.009124256
2020-07-31T08:10:00	0.1372	13.700	108.0	0.292935207	0.278974342	0.002845579	0.029357312	0.009048209
2020-07-31T08:15:00	0.1368	13.710	107.0	0.292199814	0.277614287	0.002826965	0.029165275	0.008989021
2020-07-31T08:20:00	0.1378	13.723	88.0	0.294131493	0.281194073	0.002876024	0.029671408	0.009145016
2020-07-31T08:25:00	0.1385	13.732	115.0	0.295652392	0.284029155	0.002915026	0.030073790	0.009269034
2020-07-31T08:30:00	0.1385	13.743	115.0	0.295737653	0.284188521	0.002917223	0.030096449	0.009276018
2020-07-31T08:35:00	0.1392	13.804	115.0	0.297053111	0.286653114	0.002951241	0.030447412	0.009384188
2020-07-31T08:40:00	0.1391	13.852	115.0	0.296933340	0.286428264	0.002948134	0.030415351	0.009374306
2020-07-31T08:45:00	0.1383	13.913	114.0	0.295173175	0.283134280	0.002902701	0.029946635	0.009229844
2020-07-31T08:50:00	0.1385	13.972	116.0	0.295668580	0.284059410	0.002915443	0.030078091	0.009270360
2020-07-31T08:55:00	0.1397	14.029	108.0	0.298214001	0.288837177	0.002981470	0.030759275	0.009480307
2020-07-31T09:00:00	0.1397	14.076	89.0	0.298094254	0.288611496	0.002978343	0.030727013	0.009470364
2020-07-31T09:05:00	0.1378	14.508	83.0	0.294283708	0.281477158	0.002879912	0.029711525	0.009157381
2020-07-31T09:10:00	0.1398	14.505	99.0	0.298264703	0.288932760	0.002982795	0.030772941	0.009484519
2020-07-31T09:15:00	0.1378	14.403	112.0	0.294249163	0.281412899	0.002879030	0.029702418	0.009154574
2020-07-31T09:20:00	0.1392	15.326	92.0	0.297000239	0.286553843	0.002949869	0.030433256	0.009379825
2020-07-31T09:25:00	0.1405	15.085	95.0	0.299749987	0.291739993	0.003021765	0.031174995	0.009608436
2020-07-31T09:30:00	0.1387	15.147	102.0	0.296145595	0.284951659	0.002927746	0.030205012	0.009309478
2020-07-31T09:35:00	0.1385	14.825	73.0	0.295615695	0.283960577	0.002914081	0.030064041	0.009266029
2020-07-31T09:40:00	0.1386	14.765	117.0	0.295906013	0.284503344	0.002921563	0.030141224	0.009289818
2020-07-31T09:45:00	0.1382	14.786	114.0	0.294965932	0.282747730	0.002897381	0.029891750	0.009212928
2020-07-31T09:50:00	0.1389	14.605	118.0	0.296486604	0.285590390	0.002936560	0.030295953	0.009337507
2020-07-31T09:55:00	0.1385	14.568	118.0	0.295751681	0.284214746	0.002917584	0.030100178	0.009277167
2020-07-31T10:00:00	0.1387	14.785	118.0	0.296041993	0.284757750	0.002925071	0.030177418	0.009300973
2020-07-31T10:05:00	0.1387	14.860	119.0	0.296067353	0.284805210	0.002925726	0.030184171	0.009303055
2020-07-31T10:10:00	0.1388	14.784	117.0	0.296297756	0.285236575	0.002931677	0.030245569	0.009321978
2020-07-31T10:15:00	0.1395	14.727	117.0	0.297758194	0.287978622	0.002969578	0.030636587	0.009442494
2020-07-31T10:20:00	0.1387	14.704	118.0	0.296143435	0.284947616	0.002927690	0.030204437	0.009309301
2020-07-31T10:25:00	0.1376	14.762	118.0	0.293912874	0.280787747	0.002870445	0.029613850	0.009127276
2020-07-31T10:30:00	0.1377	14.779	118.0	0.293938244	0.280834885	0.002871092	0.029620526	0.009129334
2020-07-31T10:35:00	0.1381	14.793	118.0	0.294784048	0.282408703	0.002892718	0.029843634	0.009198098
2020-07-31T10:40:00	0.1378	14.821	118.0	0.294194103	0.281310496	0.002877623	0.029687905	0.009150101
2020-07-31T10:45:00	0.1372	14.859	118.0	0.292988652	0.279073318	0.002846935	0.029371299	0.009052520
2020-07-31T10:50:00	0.1373	14.906	118.0	0.293219182	0.279500446	0.002852787	0.029431681	0.009071130
2020-07-31T10:55:00	0.1369	14.952	118.0	0.292423893	0.278028344	0.002832628	0.029223706	0.009007030
2020-07-31T11:00:00	0.1364	15.008	117.0	0.291423275	0.276181833	0.002807393	0.028963358	0.008926788
2020-07-31T11:05:00	0.1369	15.057	118.0	0.292474648	0.278122173	0.002833912	0.029236951	0.009011112
2020-07-31T11:10:00	0.1368	15.081	117.0	0.292089654	0.277410846	0.002824183	0.029136577	0.008980176
2020-07-31T11:15:00	0.1368	15.117	117.0	0.292115033	0.277457708	0.002824824	0.029143187	0.008982213
2020-07-31T11:20:00	0.1367	15.171	117.0	0.291935216	0.277125765	0.002820286	0.029096374	0.008967785
2020-07-31T11:25:00	0.1361	15.299	118.0	0.290729266	0.274904838	0.002789974	0.028783650	0.008871400
2020-07-31T11:30:00	0.1361	15.364	118.0	0.290754652	0.274951494	0.002790610	0.028790211	0.008873423
2020-07-31T11:35:00	0.1363	15.402	118.0	0.291190507	0.275753196	0.002801543	0.028903006	0.008908187
2020-07-31T11:40:00	0.1360	15.441	94.0	0.290600176	0.274667643	0.002786742	0.028750301	0.008861122
2020-07-31T11:45:00	0.1363	15.403	118.0	0.291241274	0.275846652	0.002802818	0.028916162	0.008912242
2020-07-31T11:50:00	0.1364	15.367	117.0	0.291266656	0.275893386	0.002803456	0.028922741	0.008914270
2020-07-31T11:55:00	0.1355	15.524	79.0	0.289444709	0.272549230	0.002757914	0.028452888	0.008769456
2020-07-31T12:00:00	0.1360	15.455	120.0	0.290496469	0.274477165	0.002784147	0.028723527	0.008852870
2020-07-31T12:05:00	0.1359	15.438	122.0	0.290316598	0.274146958	0.002779649	0.028677128	0.008838569
2020-07-31T12:10:00	0.1353	15.432	112.0	0.289110285	0.271937671	0.002749605	0.028367172	0.008743038
2020-07-31T12:15:00	0.1351	15.457	103.0	0.288725049	0.271234069	0.002740054	0.028268636	0.008712668
2020-07-31T12:20:00	0.1352	15.489	121.0	0.288955761	0.271655334	0.002745772	0.028327622	0.008730848
2020-07-31T12:25:00	0.1352	15.511	121.0	0.288981155	0.271701722	0.002746402	0.028334119	0.008732851
2020-07-31T12:30:00	0.1347	15.545	121.0	0.287774537	0.269502036	0.002716579	0.028026440	0.008638021
2020-07-31T12:35:00	0.1354	15.548	121.0	0.289237249	0.272169765	0.002752758	0.028399695	0.008753062
2020-07-31T12:40:00	0.1354	15.542	121.0	0.289262641	0.272216196	0.002753389	0.028406202	0.008755067
2020-07-31T12:45:00	0.1342	15.551	120.0	0.286823852	0.267775385	0.002693226	0.027785516	0.008563766
2020-07-31T12:50:00	0.1339	15.585	121.0	0.286233031	0.266705198	0.002678777	0.027636452	0.008517823
2020-07-31T12:55:00	0.1337	15.604	120.0	0.285847583	0.266008198	0.002669378	0.027539477	0.008487934
2020-07-31T13:00:00	0.1337	15.619	87.0	0.285872992	0.266054116	0.002669997	0.027545863	0.008489902
2020-07-31T13:05:00	0.1343	15.674	121.0	0.287130856	0.268332350	0.002700753	0.027863174	0.008587701
2020-07-31T13:10:00	0.1337	15.689	120.0	0.285718373	0.265774759	0.002666231	0.027507017	0.008477930
2020-07-31T13:15:00	0.1338	15.684	114.0	0.285949218	0.266191892	0.002671854	0.027565026	0.008495809
2020-07-31T13:20:00	0.1342	15.711	120.0	0.286796284	0.267725401	0.002692551	0.027778550	0.008561619
2020-07-31T13:25:00	0.1341	15.724	120.0	0.286616287	0.267399161	0.002688144	0.027733090	0.008547608
2020-07-31T13:30:00	0.1336	15.718	119.0	0.285614569	0.265587297	0.002663705	0.027480957	0.008469898
2020-07-31T13:35:00	0.1336	15.728	119.0	0.285639979	0.265633180	0.002664324	0.027487335	0.008471863
2020-07-31T13:40:00	0.1321	15.752	119.0	0.282582807	0.260142118	0.002590597	0.026726708	0.008237431
2020-07-31T13:45:00	0.1317	15.780	121.0	0.281785894	0.258720442	0.002571593	0.026530650	0.008177004
2020-07-31T13:50:00	0.1316	15.807	117.0	0.281400106	0.258033641	0.002562425	0.026436065	0.008147852
2020-07-31T13:55:00	0.1318	15.846	116.0	0.281836753	0.258811054	0.002572803	0.026543135	0.008180852
2020-07-31T14:00:00	0.1316	15.884	93.0	0.281450968	0.258124136	0.002563632	0.026448523	0.008151692
2020-07-31T14:05:00	0.1326	15.935	121.0	0.283532118	0.261840892	0.002613350	0.026961453	0.008309782
2020-07-31T14:10:00	0.1326	15.914	120.0	0.283557538	0.261886460	0.002613961	0.026967757	0.008311725
2020-07-31T14:15:00	0.1316	15.926	121.0	0.281527261	0.258259907	0.002565444	0.026467217	0.008157453
2020-07-31T14:20:00	0.1324	15.944	121.0	0.283197309	0.261241110	0.002605311	0.026878514	0.008284219
2020-07-31T14:25:00	0.1322	15.985	117.0	0.282811630	0.260551073	0.002596070	0.026783173	0.008254834
2020-07-31T14:30:00	0.1325	15.981	120.0	0.283248154	0.261332148	0.002606531	0.026891098	0.008288098
2020-07-31T14:35:00	0.1330	15.983	121.0	0.284301171	0.263221263	0.002631876	0.027152577	0.008368688
2020-07-31T14:40:00	0.1336	15.984	120.0	0.285559420	0.265487731	0.002662364	0.027467118	0.008465633
2020-07-31T14:45:00	0.1333	16.026	121.0	0.284968455	0.264421990	0.002648017	0.027319101	0.008420012
2020-07-31T14:50:00	0.1323	16.032	121.0	0.282938750	0.260778406	0.002599113	0.026814573	0.008264512
2020-07-31T14:55:00	0.1313	16.038	122.0	0.280908220	0.257159320	0.002550766	0.026315778	0.008110778
2020-07-31T15:00:00	0.1311	16.041	121.0	0.280522362	0.256474531	0.002541643	0.026221662	0.008081771
2020-07-31T15:05:00	0.1315	16.072	117.0	0.281370342	0.257980694	0.002561718	0.026428777	0.008145606
2020-07-31T15:10:00	0.1323	16.088	118.0	0.283040443	0.260960340	0.002601550	0.026839710	0.008272259
2020-07-31T15:15:00	0.1308	16.096	121.0	0.279775995	0.255152600	0.002524056	0.026040218	0.008025848
2020-07-31T15:20:00	0.1306	16.109	121.0	0.279390047	0.254470405	0.002514992	0.025946705	0.007997026
2020-07-31T15:25:00	0.1307	16.124	121.0	0.279621186	0.254878850	0.002520418	0.026002683	0.008014279
2020-07-31T15:30:00	0.1313	16.126	116.0	0.280880619	0.257110307	0.002550112	0.026309039	0.008108701
2020-07-31T15:35:00	0.1312	16.141	116.0	0.280700411	0.256790401	0.002545850	0.026265064	0.008095148
2020-07-31T15:40:00	0.1314	16.151	118.0	0.281137120	0.257565999	0.002556187	0.026371711	0.008128017
2020-07-31T15:45:00	0.1315	16.152	116.0	0.281368176	0.257976841	0.002561667	0.026428247	0.008145442
2020-07-31T15:50:00	0.1309	16.154	115.0	0.280159745	0.255831843	0.002533089	0.026133409	0.008054570
2020-07-31T15:55:00	0.1304	16.149	117.0	0.278951014	0.253695517	0.002504706	0.025840589	0.007964320
2020-07-31T16:00:00	0.1307	16.169	119.0	0.279593579	0.254830047	0.002519769	0.025995993	0.008012217
2020-07-31T16:05:00	0.1307	16.156	99.0	0.279682784	0.254987757	0.002521865	0.026017614	0.008018881
2020-07-31T16:10:00	0.1307	16.170	105.0	0.279566297	0.254781826	0.002519128	0.025989383	0.008010180
2020-07-31T16:15:00	0.1307	16.160	121.0	0.279655503	0.254939520	0.002521224	0.026011000	0.008016843
2020-07-31T16:20:00	0.1315	16.151	120.0	0.281389928	0.258015536	0.002562183	0.026433573	0.008147084
2020-07-31T16:25:00	0.1314	16.151	121.0	0.281067855	0.257442903	0.002554546	0.026354778	0.008122798
2020-07-31T16:30:00	0.1313	16.128	116.0	0.280951401	0.257236014	0.002551788	0.026326324	0.008114029
2020-07-31T16:35:00	0.1309	16.112	117.0	0.280012310	0.255570771	0.002529616	0.026097580	0.008043528
2020-07-31T16:40:00	0.1302	16.099	120.0	0.278661588	0.253185349	0.002497940	0.025770783	0.007942806
2020-07-31T16:45:00	0.1295	16.109	116.0	0.277104688	0.250450074	0.002461741	0.025397330	0.007827704
2020-07-31T16:50:00	0.1293	16.110	115.0	0.276782328	0.249885636	0.002454288	0.025320436	0.007804004
2020-07-31T16:55:00	0.1293	16.113	115.0	0.276665770	0.249681710	0.002451597	0.025292669	0.007795446
2020-07-31T17:00:00	0.1292	16.115	114.0	0.276549210	0.249477865	0.002448907	0.025264921	0.007786894
2020-07-31T17:05:00	0.1291	16.107	113.0	0.276432646	0.249274100	0.002446219	0.025237192	0.007778348
2020-07-31T17:10:00	0.1292	16.082	114.0	0.276521911	0.249430136	0.002448277	0.025258425	0.007784892
2020-07-31T17:15:00	0.1295	16.080	114.0	0.277228601	0.250667213	0.002464610	0.025426926	0.007836826
2020-07-31T17:20:00	0.1294	16.057	114.0	0.276906249	0.250102538	0.002457151	0.025349978	0.007813109
2020-07-31T17:25:00	0.1294	16.035	115.0	0.276995505	0.250258825	0.002459215	0.025371269	0.007819672
2020-07-31T17:30:00	0.1294	15.992	116.0	0.276878952	0.250054752	0.002456520	0.025343469	0.007811103
2020-07-31T17:35:00	0.1297	15.962	113.0	0.277585589	0.251293324	0.002472887	0.025512315	0.007863143
2020-07-31T17:40:00	0.1292	15.967	105.0	0.276645839	0.249646847	0.002451136	0.025287923	0.007793983
2020-07-31T17:45:00	0.1294	15.940	101.0	0.276940912	0.250163227	0.002457953	0.025358245	0.007815657
2020-07-31T17:50:00	0.1287	15.899	98.0	0.275589316	0.247802425	0.002426829	0.025037144	0.007716691
2020-07-31T17:55:00	0.1283	15.872	99.0	0.274649165	0.246167071	0.002405327	0.024815315	0.007648321
2020-07-31T18:00:00	0.1283	15.829	104.0	0.274738464	0.246322163	0.002407364	0.024836331	0.007654799
2020-07-31T18:05:00	0.1284	15.786	103.0	0.274827761	0.246477303	0.002409402	0.024857359	0.007661279
2020-07-31T18:10:00	0.1287	15.753	111.0	0.275534707	0.247707282	0.002425576	0.025024224	0.007712709
2020-07-31T18:15:00	0.1294	15.720	100.0	0.277064829	0.250380246	0.002460819	0.025387814	0.007824771
2020-07-31T18:20:00	0.1292	15.686	100.0	0.276536644	0.249455895	0.002448617	0.025261931	0.007785972
2020-07-31T18:25:00	0.1292	15.655	102.0	0.276625907	0.249611986	0.002450676	0.025283177	0.007792521
2020-07-31T18:30:00	0.1292	15.626	108.0	0.276509345	0.249408169	0.002447987	0.025255435	0.007783970
2020-07-31T18:35:00	0.1293	15.599	103.0	0.276804427	0.249924310	0.002454798	0.025325703	0.007805627
2020-07-31T18:40:00	0.1299	15.571	109.0	0.277922624	0.251885178	0.002480717	0.025593098	0.007888041
2020-07-31T18:45:00	0.1304	15.541	123.0	0.279040557	0.253853461	0.002506802	0.025862209	0.007970984
2020-07-31T18:50:00	0.1299	15.511	116.0	0.278101095	0.252198874	0.002484869	0.025635940	0.007901246
2020-07-31T18:55:00	0.1300	15.482	121.0	0.278190328	0.252355793	0.002486947	0.025657378	0.007907853
2020-07-31T19:00:00	0.1309	15.449	120.0	0.280130953	0.255780848	0.002532410	0.026126410	0.008052413
2020-07-31T19:05:00	0.1321	15.418	121.0	0.282481966	0.259961998	0.002588187	0.026701849	0.008229769
2020-07-31T19:10:00	0.1323	15.389	125.0	0.282982240	0.260856203	0.002600155	0.026825321	0.008267825
2020-07-31T19:15:00	0.1320	15.359	120.0	0.282249122	0.259546344	0.002582629	0.026644503	0.008212095
2020-07-31T19:20:00	0.1332	15.330	119.0	0.284804615	0.264126913	0.002644048	0.027278154	0.008407392
2020-07-31T19:25:00	0.1334	15.300	120.0	0.285099197	0.264657579	0.002651187	0.027351804	0.008430092
2020-07-31T19:30:00	0.1322	15.270	119.0	0.282722156	0.260391124	0.002593929	0.026761085	0.008248026
2020-07-31T19:35:00	0.1321	15.235	124.0	0.282605741	0.260183091	0.002591145	0.026732364	0.008239174
2020-07-31T19:40:00	0.1328	15.203	118.0	0.283928123	0.262551215	0.002622879	0.027059761	0.008340081
2020-07-31T19:45:00	0.1334	15.174	114.0	0.285250158	0.264929736	0.002654850	0.027389595	0.008441739
2020-07-31T19:50:00	0.1334	15.147	118.0	0.285133802	0.264719953	0.002652026	0.027360464	0.008432761
2020-07-31T19:55:00	0.1336	15.117	118.0	0.285633813	0.265622045	0.002664173	0.027485787	0.008471386
2020-07-31T20:00:00	0.1335	15.085	120.0	0.285312012	0.265041289	0.002656352	0.027405089	0.008446515
2020-07-31T20:05:00	0.1331	15.053	120.0	0.284579234	0.263721276	0.002638594	0.027221891	0.008390051
2020-07-31T20:10:00	0.1338	15.032	119.0	0.286106530	0.266476343	0.002675690	0.027604602	0.008508006
2020-07-31T20:15:00	0.1334	15.006	117.0	0.285168406	0.264782334	0.002652866	0.027369126	0.008435430
2020-07-31T20:20:00	0.1338	14.977	119.0	0.286079284	0.266427066	0.002675025	0.027597745	0.008505893
2020-07-31T20:25:00	0.1344	14.944	119.0	0.287195386	0.268449494	0.002702337	0.027879515	0.008592737
2020-07-31T20:30:00	0.1343	14.919	118.0	0.287079074	0.268238364	0.002699483	0.027850066	0.008583661
2020-07-31T20:35:00	0.1338	14.899	118.0	0.285935699	0.266167455	0.002671525	0.027561627	0.008494761
2020-07-31T20:40:00	0.1342	14.873	115.0	0.286846441	0.267816346	0.002693779	0.027791226	0.008565526
2020-07-31T20:45:00	0.1348	14.843	115.0	0.288167726	0.270217820	0.002726274	0.028126467	0.008668850
2020-07-31T20:50:00	0.1346	14.816	113.0	0.287640722	0.269258656	0.002713284	0.027992449	0.008627545
2020-07-31T20:55:00	0.1349	14.787	114.0	0.288345832	0.270542374	0.002730673	0.028171852	0.008682838
2020-07-31T21:00:00	0.1353	14.766	114.0	0.289050848	0.271829053	0.002748130	0.028351955	0.008738348
2020-07-31T21:05:00	0.1351	14.736	113.0	0.288729258	0.271241752	0.002740159	0.028269712	0.008713000
2020-07-31T21:10:00	0.1354	14.709	115.0	0.289228924	0.272154544	0.002752551	0.028397562	0.008752404
2020-07-31T21:15:00	0.1360	14.681	121.0	0.290549613	0.274574766	0.002785476	0.028737245	0.008857098
2020-07-31T21:20:00	0.1358	14.648	118.0	0.290228114	0.273984592	0.002777438	0.028654320	0.008831540
2020-07-31T21:25:00	0.1353	14.622	119.0	0.289085426	0.271892241	0.002748988	0.028360807	0.008741076
2020-07-31T21:30:00	0.1348	14.576	120.0	0.288147841	0.270181595	0.002725783	0.028121403	0.008667290
2020-07-31T21:35:00	0.1356	14.536	120.0	0.289674088	0.272969099	0.002763621	0.028511773	0.008787605
2020-07-31T21:40:00	0.1352	14.516	116.0	0.288941925	0.271630060	0.002745429	0.028324082	0.008729757
2020-07-31T21:45:00	0.1352	14.498	117.0	0.288825651	0.271417721	0.002742547	0.028294348	0.008720593
2020-07-31T21:50:00	0.1350	14.463	120.0	0.288504048	0.270830851	0.002734585	0.028212206	0.008695276
2020-07-31T21:55:00	0.1348	14.422	119.0	0.287977078	0.269870631	0.002721570	0.028077938	0.008653893
2020-07-31T22:00:00	0.1346	14.400	119.0	0.287655423	0.269285387	0.002713646	0.027996182	0.008628695
2020-07-31T22:05:00	0.1357	14.369	116.0	0.289941169	0.273458399	0.002770277	0.028580435	0.008808768
2020-07-31T22:10:00	0.1353	14.343	115.0	0.289147235	0.272005206	0.002750523	0.028376635	0.008745954
2020-07-31T22:15:00	0.1357	14.304	119.0	0.289995620	0.273558211	0.002771635	0.028594446	0.008813086
2020-07-31T22:20:00	0.1365	14.286	119.0	0.291664771	0.276626905	0.002813471	0.029026057	0.008946113
2020-07-31T22:25:00	0.1364	14.256	119.0	0.291281556	0.275920820	0.002803831	0.028926603	0.008915460
2020-07-31T22:30:00	0.1357	14.233	120.0	0.289872023	0.273331678	0.002768553	0.028562649	0.008803286
2020-07-31T22:35:00	0.1358	14.206	119.0	0.290104522	0.273757888	0.002774352	0.028622482	0.008821727
2020-07-31T22:40:00	0.1355	14.177	114.0	0.289515907	0.272679519	0.002759685	0.028471157	0.008775087
2020-07-31T22:45:00	0.1364	14.160	114.0	0.291390431	0.276121332	0.002806567	0.028954837	0.008924162
2020-07-31T22:50:00	0.1367	14.130	114.0	0.292033271	0.277306751	0.002822760	0.029121896	0.008975651
2020-07-31T22:55:00	0.1375	14.113	118.0	0.293701797	0.280395725	0.002865065	0.029558344	0.009110169
2020-07-31T23:00:00	0.1380	14.090	117.0	0.294549471	0.281971766	0.002886710	0.029781651	0.009178994
2020-07-31T23:05:00	0.1386	14.055	118.0	0.295807144	0.284318443	0.002919014	0.030114925	0.009281712
2020-07-31T23:10:00	0.1378	14.018	118.0	0.294193662	0.281309675	0.002877612	0.029687789	0.009150065
2020-07-31T23:15:00	0.1372	13.983	115.0	0.292990046	0.279075901	0.002846970	0.029371664	0.009052632
2020-07-31T23:20:00	0.1376	13.949	118.0	0.293837830	0.280648340	0.002868531	0.029594109	0.009121192
2020-07-31T23:25:00	0.1370	13.916	118.0	0.292634136	0.278417122	0.002837949	0.029278596	0.009023948
2020-07-31T23:30:00	0.1369	13.904	118.0	0.292456173	0.278088016	0.002833445	0.029232129	0.009009626
2020-07-31T23:35:00	0.1365	13.880	118.0	0.291662610	0.276622920	0.002813416	0.029025496	0.008945940
2020-07-31T23:40:00	0.1365	13.845	114.0	0.291484615	0.276294846	0.002808936	0.028979275	0.008931694
2020-07-31T23:45:00	0.1366	13.809	114.0	0.291717044	0.276723291	0.002814787	0.029039640	0.008950299
2020-07-31T23:50:00	0.1363	13.785	117.0	0.291128606	0.275639264	0.002799989	0.028886969	0.008903245
2020-07-31T23:55:00	0.1361	13.777	117.0	0.290745353	0.274934404	0.002790377	0.028787807	0.008872682
2020-08-01T00:00:00	0.1359	13.748	118.0	0.290362072	0.274230419	0.002780786	0.028688854	0.008842183
2020-08-01T00:05:00	0.1362	13.699	117.0	0.291005035	0.275411896	0.002796888	0.028854973	0.008893383
2020-08-01T00:10:00	0.1359	13.681	116.0	0.290416520	0.274330368	0.002782147	0.028702898	0.008846512
2020-08-01T00:15:00	0.1358	13.662	113.0	0.290033215	0.273627135	0.002772573	0.028604123	0.008816068
2020-08-01T00:20:00	0.1362	13.619	114.0	0.290881460	0.275184619	0.002793788	0.028822999	0.008883528
2020-08-01T00:25:00	0.1365	13.607	116.0	0.291524361	0.276368087	0.002809936	0.028989592	0.008934874
2020-08-01T00:30:00	0.1365	13.573	113.0	0.291551578	0.276418248	0.002810621	0.028996658	0.008937052
2020-08-01T00:35:00	0.1355	13.535	112.0	0.289526278	0.272698500	0.002759943	0.028473819	0.008775908
2020-08-01T00:40:00	0.1357	13.530	116.0	0.289964070	0.273500376	0.002770848	0.028586327	0.008810584
2020-08-01T00:45:00	0.1350	13.504	116.0	0.288554189	0.270922306	0.002735825	0.028225003	0.008699220
2020-08-01T00:50:00	0.1350	13.463	117.0	0.288581422	0.270971984	0.002736499	0.028231955	0.008701363
2020-08-01T00:55:00	0.1348	13.449	116.0	0.287992638	0.269898959	0.002721954	0.028081897	0.008655113
2020-08-01T01:00:00	0.1342	13.424	116.0	0.286787630	0.267709711	0.002692339	0.027776363	0.008560945
2020-08-01T01:05:00	0.1341	13.386	116.0	0.286609470	0.267386810	0.002687978	0.027731369	0.008547077
2020-08-01T01:10:00	0.1336	13.373	117.0	0.285609589	0.265578306	0.002663584	0.027479707	0.008469513
2020-08-01T01:15:00	0.1338	13.338	116.0	0.286047710	0.266369967	0.002674255	0.027589800	0.008503444
2020-08-01T01:20:00	0.1335	13.319	112.0	0.285458639	0.265305827	0.002659914	0.027441840	0.008457842
2020-08-01T01:25:00	0.1332	13.312	112.0	0.284869500	0.264243751	0.002645619	0.027294366	0.008412389
2020-08-01T01:30:00	0.1338	13.280	112.0	0.285924019	0.266146341	0.002671240	0.027558690	0.008493856
2020-08-01T01:35:00	0.1335	13.259	112.0	0.285334934	0.265082634	0.002656908	0.027410832	0.008448285
2020-08-01T01:40:00	0.1331	13.220	111.0	0.284540296	0.263651229	0.002637653	0.027212178	0.008387057
2020-08-01T01:45:00	0.1332	13.191	113.0	0.284773033	0.264070053	0.002643283	0.027270266	0.008404961
2020-08-01T01:50:00	0.1334	13.183	118.0	0.285211226	0.264859533	0.002653905	0.027379846	0.008438734
2020-08-01T01:55:00	0.1335	13.168	114.0	0.285443932	0.265279287	0.002659556	0.027438152	0.008456705
2020-08-01T02:00:00	0.1335	13.120	117.0	0.285471181	0.265328461	0.002660219	0.027444985	0.008458811
2020-08-01T02:05:00	0.1330	13.099	117.0	0.284471078	0.263526732	0.002635980	0.027194917	0.008381737
2020-08-01T02:10:00	0.1328	13.081	111.0	0.283881825	0.262468118	0.002621764	0.027048256	0.008336535
2020-08-01T02:15:00	0.1327	13.055	112.0	0.283703564	0.262148298	0.002617473	0.027003986	0.008322891
2020-08-01T02:20:00	0.1327	13.033	117.0	0.283730823	0.262197190	0.002618129	0.027010753	0.008324976
2020-08-01T02:25:00	0.1321	13.006	117.0	0.282524808	0.260038514	0.002589211	0.026712408	0.008233024
2020-08-01T02:30:00	0.1314	12.982	113.0	0.281112875	0.257522908	0.002555612	0.026365783	0.008126190
2020-08-01T02:35:00	0.1308	12.945	112.0	0.279906221	0.255382999	0.002527119	0.026071819	0.008035588
2020-08-01T02:40:00	0.1305	12.921	112.0	0.279316424	0.254340375	0.002513265	0.025928891	0.007991536
2020-08-01T02:45:00	0.1306	12.884	113.0	0.279343706	0.254388557	0.002513905	0.025935491	0.007993570
2020-08-01T02:50:00	0.1303	12.897	112.0	0.278753840	0.253347903	0.002500095	0.025793020	0.007949659
2020-08-01T02:55:00	0.1303	12.849	109.0	0.278781126	0.253395993	0.002500733	0.025799600	0.007951687
2020-08-01T03:00:00	0.1303	12.835	113.0	0.278808412	0.253444088	0.002501371	0.025806180	0.007953715
2020-08-01T03:05:00	0.1301	12.823	113.0	0.278424228	0.252767350	0.002492399	0.025713625	0.007925189
2020-08-01T03:10:00	0.1299	12.798	113.0	0.278040013	0.252091488	0.002483448	0.025621272	0.007896725
2020-08-01T03:15:00	0.1299	12.784	112.0	0.278067303	0.252139463	0.002484083	0.025627825	0.007898745
2020-08-01T03:20:00	0.1301	12.791	112.0	0.278506091	0.252911474	0.002494309	0.025733329	0.007931262
2020-08-01T03:25:00	0.1302	12.764	112.0	0.278533378	0.252959524	0.002494946	0.025739899	0.007933287
2020-08-01T03:30:00	0.1302	12.739	112.0	0.278560666	0.253007579	0.002495583	0.025746471	0.007935312
2020-08-01T03:35:00	0.1305	12.729	112.0	0.279205124	0.254143869	0.002510656	0.025901975	0.007983240
2020-08-01T03:40:00	0.1303	12.715	112.0	0.278820971	0.253466227	0.002501664	0.025809209	0.007954649
2020-08-01T03:45:00	0.1299	12.707	112.0	0.278025284	0.252065597	0.002483105	0.025617736	0.007895635
2020-08-01T03:50:00	0.1305	12.684	111.0	0.279286974	0.254288373	0.002512574	0.025921767	0.007989340
2020-08-01T03:55:00	0.1301	12.673	112.0	0.278491364	0.252885543	0.002493966	0.025729784	0.007930169
2020-08-01T04:00:00	0.1298	12.667	112.0	0.277695621	0.251486469	0.002475441	0.025538671	0.007871266
2020-08-01T04:05:00	0.1300	12.584	112.0	0.278190864	0.252356735	0.002486960	0.025657507	0.007907893
2020-08-01T04:10:00	0.1301	12.527	113.0	0.278480318	0.252866095	0.002493708	0.025727125	0.007929350
2020-08-01T04:15:00	0.1299	12.534	112.0	0.277946768	0.251927605	0.002481278	0.025598891	0.007889827
2020-08-01T04:20:00	0.1301	12.572	114.0	0.278441985	0.252798608	0.002492814	0.025717898	0.007926506
2020-08-01T04:25:00	0.1305	12.606	114.0	0.279142867	0.254033986	0.002509197	0.025886927	0.007978602
2020-08-01T04:30:00	0.1309	12.592	114.0	0.280049327	0.255636306	0.002530487	0.026106573	0.008046299
2020-08-01T04:35:00	0.1319	12.535	113.0	0.282189280	0.259439573	0.002581201	0.026629778	0.008207556
2020-08-01T04:40:00	0.1327	12.509	102.0	0.283711781	0.262163036	0.002617671	0.027006026	0.008323520
2020-08-01T04:45:00	0.1330	12.481	112.0	0.284411914	0.263420343	0.002634550	0.027180169	0.008377192
2020-08-01T04:50:00	0.1330	12.501	113.0	0.284290022	0.263201226	0.002631607	0.027149800	0.008367832
2020-08-01T04:55:00	0.1325	12.509	113.0	0.283346046	0.261507473	0.002608880	0.026915339	0.008295569
2020-08-01T05:00:00	0.1339	12.510	113.0	0.286306320	0.266837831	0.002680567	0.027654916	0.008523514
2020-08-01T05:05:00	0.1336	12.507	113.0	0.285568170	0.265503526	0.002662577	0.027469313	0.008466309
2020-08-01T05:10:00	0.1334	12.535	112.0	0.285240850	0.264912950	0.002654624	0.027387264	0.008441021
2020-08-01T05:15:00	0.1336	12.524	112.0	0.285529891	0.265434426	0.002661646	0.027459710	0.008463349
2020-08-01T05:20:00	0.1328	12.512	113.0	0.283969649	0.262625759	0.002623880	0.027070083	0.008343262
2020-08-01T05:25:00	0.1332	12.527	113.0	0.284875225	0.264254061	0.002645758	0.027295796	0.008412830
2020-08-01T05:30:00	0.1333	12.545	113.0	0.284958820	0.264404633	0.002647783	0.027316692	0.008419270
2020-08-01T05:35:00	0.1344	12.563	114.0	0.287302065	0.268643214	0.002704957	0.027906542	0.008601067
2020-08-01T05:40:00	0.1346	12.573	113.0	0.287590992	0.269168235	0.002712060	0.027979824	0.008623653
2020-08-01T05:45:00	0.1343	12.595	116.0	0.287058416	0.268200876	0.002698976	0.027844838	0.008582049
2020-08-01T05:50:00	0.1351	12.611	115.0	0.288784792	0.271343123	0.002741534	0.028283903	0.008717374
2020-08-01T05:55:00	0.1357	12.639	115.0	0.289894808	0.273373432	0.002769121	0.028568509	0.008805092
2020-08-01T06:00:00	0.1351	12.672	115.0	0.288746537	0.271273291	0.002740587	0.028274127	0.008714361
2020-08-01T06:05:00	0.1349	12.710	116.0	0.288214079	0.270302267	0.002727419	0.028138274	0.008672489
2020-08-01T06:10:00	0.1348	12.737	120.0	0.288092277	0.270080392	0.002724412	0.028107256	0.008662929
2020-08-01T06:15:00	0.1347	12.765	114.0	0.287970472	0.269858606	0.002721407	0.028076258	0.008653375
2020-08-01T06:20:00	0.1354	12.811	114.0	0.289285964	0.272258845	0.002753968	0.028412180	0.008756910
2020-08-01T06:25:00	0.1355	12.858	98.0	0.289574781	0.272787280	0.002761149	0.028486270	0.008779745
2020-08-01T06:30:00	0.1351	12.894	114.0	0.288631771	0.271063844	0.002737745	0.028244810	0.008705325
2020-08-01T06:35:00	0.1350	12.945	114.0	0.288509978	0.270841667	0.002734731	0.028213720	0.008695742
2020-08-01T06:40:00	0.1350	12.987	114.0	0.288388183	0.270619578	0.002731720	0.028182650	0.008686167
2020-08-01T06:45:00	0.1353	13.041	114.0	0.289087682	0.271896363	0.002749044	0.028361385	0.008741254
2020-08-01T06:50:00	0.1346	13.092	115.0	0.287733879	0.269428076	0.002715577	0.028016110	0.008634837
2020-08-01T06:55:00	0.1341	13.152	114.0	0.286585135	0.267342719	0.002687382	0.027725227	0.008545184
2020-08-01T07:00:00	0.1341	13.200	113.0	0.286668702	0.267494141	0.002689427	0.027746323	0.008551686
2020-08-01T07:05:00	0.1344	13.276	114.0	0.287163051	0.268390792	0.002701543	0.027871326	0.008590213
2020-08-01T07:10:00	0.1333	13.351	114.0	0.284986933	0.264455280	0.002648465	0.027323722	0.008421436
2020-08-01T07:15:00	0.1322	13.442	114.0	0.282809884	0.260547951	0.002596028	0.026782742	0.008254701
2020-08-01T07:20:00	0.1326	13.527	119.0	0.283510142	0.261801504	0.002612822	0.026956004	0.008308102
2020-08-01T07:25:00	0.1324	13.847	109.0	0.283182689	0.261214936	0.002604960	0.026874896	0.008283104
2020-08-01T07:30:00	0.1334	13.886	112.0	0.285115836	0.264687569	0.002651590	0.027355968	0.008431375
2020-08-01T07:35:00	0.1333	14.285	103.0	0.284993961	0.264467942	0.002648635	0.027325479	0.008421978
2020-08-01T07:40:00	0.1354	14.697	116.0	0.289390555	0.272450149	0.002756567	0.028438996	0.008765175
2020-08-01T07:45:00	0.1346	14.472	115.0	0.287626115	0.269232095	0.002712924	0.027988740	0.008626402
2020-08-01T07:50:00	0.1338	14.342	116.0	0.286066510	0.266403965	0.002674714	0.027594530	0.008504902
2020-08-01T07:55:00	0.1336	14.285	116.0	0.285533777	0.265441440	0.002661740	0.027460685	0.008463650
2020-08-01T08:00:00	0.1336	14.310	116.0	0.285617361	0.265592339	0.002663773	0.027481658	0.008470114
2020-08-01T08:05:00	0.1333	14.376	116.0	0.285084582	0.264631239	0.002650832	0.027348147	0.008428965
2020-08-01T08:10:00	0.1339	14.331	116.0	0.286195386	0.266637083	0.002677858	0.027626971	0.008514901
2020-08-01T08:15:00	0.1334	14.326	115.0	0.285251764	0.264932631	0.002654889	0.027389997	0.008441863
2020-08-01T08:20:00	0.1330	14.410	117.0	0.284307967	0.263233479	0.002632040	0.027154269	0.008369210
2020-08-01T08:25:00	0.1336	14.496	117.0	0.285624389	0.265605028	0.002663944	0.027483421	0.008470657
2020-08-01T08:30:00	0.1323	14.495	116.0	0.283036532	0.260953342	0.002601456	0.026838743	0.008271961
2020-08-01T08:35:00	0.1329	14.614	116.0	0.284147784	0.262945652	0.002628174	0.027114389	0.008356918
2020-08-01T08:40:00	0.1322	14.618	116.0	0.282792678	0.260517190	0.002595616	0.026778493	0.008253392
2020-08-01T08:45:00	0.1324	14.649	117.0	0.283081860	0.261034456	0.002602543	0.026849952	0.008275416
2020-08-01T08:50:00	0.1327	14.757	117.0	0.283782080	0.262289141	0.002619362	0.027023480	0.008328899
2020-08-01T08:55:00	0.1322	14.813	118.0	0.282632447	0.260230807	0.002591783	0.026738951	0.008241204
2020-08-01T09:00:00	0.1324	14.833	118.0	0.283127188	0.261115583	0.002603629	0.026861163	0.008278871
2020-08-01T09:05:00	0.1318	14.948	134.0	0.281977404	0.259061725	0.002576152	0.026577682	0.008191500
2020-08-01T09:10:00	0.1319	15.578	128.0	0.282061047	0.259210856	0.002578144	0.026598240	0.008197836
2020-08-01T09:15:00	0.1347	15.643	131.0	0.287897835	0.269726390	0.002719617	0.028057783	0.008647681
2020-08-01T09:20:00	0.1339	15.535	125.0	0.286132891	0.266524026	0.002676333	0.027611237	0.008510051
2020-08-01T09:25:00	0.1356	15.979	127.0	0.289707454	0.273030201	0.002764452	0.028520345	0.008790247
2020-08-01T09:30:00	0.1344	15.702	126.0	0.287327025	0.268688548	0.002705570	0.027912867	0.008603017
2020-08-01T09:35:00	0.1352	15.597	126.0	0.288847999	0.271458526	0.002743100	0.028300061	0.008722354
2020-08-01T09:40:00	0.1345	15.648	127.0	0.287494134	0.268992172	0.002709678	0.027955243	0.008616078
2020-08-01T09:45:00	0.1345	15.682	127.0	0.287372316	0.268770820	0.002706683	0.027924348	0.008606555
2020-08-01T09:50:00	0.1346	15.586	126.0	0.287661238	0.269295962	0.002713789	0.027997659	0.008629150
2020-08-01T09:55:00	0.1344	15.505	125.0	0.287334050	0.268701309	0.002705743	0.027914648	0.008603566
2020-08-01T10:00:00	0.1352	15.868	125.0	0.288855022	0.271471350	0.002743274	0.028301857	0.008722907
2020-08-01T10:05:00	0.1359	15.894	126.0	0.290317435	0.274148494	0.002779670	0.028677344	0.008838636
2020-08-01T10:10:00	0.1359	15.730	125.0	0.290342823	0.274195088	0.002780305	0.028683890	0.008840653
2020-08-01T10:15:00	0.1357	15.694	125.0	0.289957676	0.273488656	0.002770688	0.028584682	0.008810077
2020-08-01T10:20:00	0.1358	15.658	124.0	0.290188335	0.273911616	0.002776445	0.028644070	0.008828381
2020-08-01T10:25:00	0.1359	15.792	124.0	0.290418984	0.274334892	0.002782209	0.028703533	0.008846708
2020-08-01T10:30:00	0.1365	15.891	116.0	0.291470552	0.276268935	0.002808582	0.028975626	0.008930569
2020-08-01T10:35:00	0.1366	15.813	125.0	0.291701146	0.276693975	0.002814387	0.029035509	0.008949026
2020-08-01T10:40:00	0.1367	15.824	125.0	0.291931730	0.277119332	0.002820198	0.029095467	0.008967506
2020-08-01T10:45:00	0.1362	15.809	125.0	0.290931021	0.275275759	0.002795031	0.028835820	0.008887480
2020-08-01T10:50:00	0.1362	15.826	123.0	0.290956405	0.275322445	0.002795668	0.028842388	0.008889504
2020-08-01T10:55:00	0.1348	15.836	124.0	0.288107721	0.270108519	0.002724793	0.028111187	0.008664141
2020-08-01T11:00:00	0.1340	15.880	119.0	0.286490097	0.267170566	0.002685058	0.027701248	0.008537794
2020-08-01T11:05:00	0.1347	15.957	126.0	0.287953168	0.269827105	0.002720981	0.028071856	0.008652019
2020-08-01T11:10:00	0.1340	16.012	125.0	0.286335496	0.266890641	0.002681280	0.027662268	0.008525780
2020-08-01T11:15:00	0.1340	16.148	126.0	0.286360903	0.266936632	0.002681900	0.027668671	0.008527753
2020-08-01T11:20:00	0.1333	16.225	126.0	0.284948208	0.264385516	0.002647526	0.027314039	0.008418452
2020-08-01T11:25:00	0.1326	16.286	128.0	0.283535121	0.261846275	0.002613422	0.026962198	0.008310011
2020-08-01T11:30:00	0.1319	16.595	0.0	0.282121636	0.259318911	0.002579588	0.026613139	0.008202428
2020-08-01T11:35:00	0.1331	16.605	0.0	0.284613493	0.263782914	0.002639423	0.027230438	0.008392686
2020-08-01T11:40:00	0.1318	16.516	0.0	0.281966901	0.259043004	0.002575902	0.026575102	0.008190704
2020-08-01T11:45:00	0.1310	16.479	0.0	0.280347311	0.256164174	0.002537511	0.026179035	0.008068633
2020-08-01T11:50:00	0.1307	16.425	31.0	0.279550036	0.254753084	0.002518746	0.025985443	0.008008966
2020-08-01T11:55:00	0.1303	16.498	0.0	0.278752628	0.253345768	0.002500067	0.025792728	0.007949569
2020-08-01T12:00:00	0.1317	16.610	0.0	0.281657418	0.258491618	0.002568537	0.026499127	0.008167288
2020-08-01T12:05:00	0.1318	16.619	0.0	0.281888450	0.258903174	0.002574034	0.026555830	0.008184765
2020-08-01T12:10:00	0.1318	16.608	0.0	0.281913878	0.258948494	0.002574639	0.026562075	0.008186690
2020-08-01T12:15:00	0.1313	16.586	0.0	0.280911224	0.257164656	0.002550837	0.026316512	0.008111004
2020-08-01T12:20:00	0.1311	16.623	0.0	0.280525367	0.256479860	0.002541714	0.026222394	0.008081997
2020-08-01T12:25:00	0.1307	16.594	0.0	0.279728120	0.255067927	0.002522930	0.026028606	0.008022269
2020-08-01T12:30:00	0.1300	16.626	0.0	0.278107783	0.252210634	0.002485025	0.025637547	0.007901741
2020-08-01T12:35:00	0.1305	16.672	0.0	0.279161903	0.254067582	0.002509643	0.025891527	0.007980020
2020-08-01T12:40:00	0.1299	16.689	102.0	0.277952921	0.251938417	0.002481421	0.025600368	0.007890282
2020-08-01T12:45:00	0.1301	16.686	0.0	0.278389879	0.252706890	0.002491598	0.025705360	0.007922642
2020-08-01T12:50:00	0.1295	16.730	0.0	0.277180701	0.250583263	0.002463501	0.025415483	0.007833299
2020-08-01T12:55:00	0.1288	16.661	0.0	0.275765358	0.248109261	0.002430868	0.025078820	0.007729536
2020-08-01T13:00:00	0.1281	16.668	0.0	0.274349585	0.245647135	0.002398501	0.024744891	0.007626616
2020-08-01T13:05:00	0.1284	16.699	0.0	0.274992777	0.246764125	0.002413172	0.024896246	0.007673265
2020-08-01T13:10:00	0.1287	16.774	0.0	0.275430010	0.247524927	0.002423177	0.024999468	0.007705079
2020-08-01T13:15:00	0.1277	16.790	91.0	0.273396280	0.243996386	0.002376861	0.024521636	0.007557806
2020-08-01T13:20:00	0.1277	16.791	0.0	0.273421754	0.244040424	0.002377438	0.024527585	0.007559640
2020-08-01T13:25:00	0.1277	16.832	0.0	0.273447228	0.244084465	0.002378014	0.024533535	0.007561474
2020-08-01T13:30:00	0.1277	16.811	0.0	0.273472703	0.244128510	0.002378591	0.024539486	0.007563308
2020-08-01T13:35:00	0.1282	16.770	0.0	0.274527866	0.245956483	0.002402562	0.024786785	0.007639528
2020-08-01T13:40:00	0.1282	16.795	0.0	0.274553334	0.246000690	0.002403142	0.024792774	0.007641374
2020-08-01T13:45:00	0.1284	16.819	52.0	0.274990609	0.246760354	0.002413122	0.024895734	0.007673107
2020-08-01T13:50:00	0.1282	16.812	0.0	0.274604270	0.246089118	0.002404303	0.024804753	0.007645066
2020-08-01T13:55:00	0.1278	16.785	0.0	0.273600071	0.244348792	0.002381477	0.024569254	0.007572483
2020-08-01T14:00:00	0.1282	16.816	0.0	0.274449292	0.245820118	0.002400771	0.024768316	0.007633835
2020-08-01T14:05:00	0.1276	16.877	0.0	0.273239091	0.243724747	0.002373305	0.024484947	0.007546498
2020-08-01T14:10:00	0.1283	16.926	0.0	0.274706140	0.246266019	0.002406627	0.024828723	0.007652453
2020-08-01T14:15:00	0.1286	16.941	0.0	0.275349283	0.247384368	0.002421327	0.024980389	0.007699199
2020-08-01T14:20:00	0.1284	16.955	0.0	0.274962974	0.246712310	0.002412490	0.024889219	0.007671099
2020-08-01T14:25:00	0.1272	16.960	0.0	0.272517044	0.242478973	0.002357012	0.024316861	0.007494693
2020-08-01T14:30:00	0.1277	16.960	0.0	0.273572428	0.244300975	0.002380850	0.024562792	0.007570491
2020-08-01T14:35:00	0.1274	16.935	0.0	0.272774001	0.242921934	0.002362802	0.024376594	0.007513103
2020-08-01T14:40:00	0.1276	16.940	0.0	0.273211446	0.243676990	0.002372680	0.024478498	0.007544511
2020-08-01T14:45:00	0.1281	17.010	0.0	0.274266669	0.245503330	0.002396614	0.024725422	0.007620615
2020-08-01T14:50:00	0.1280	17.027	170.0	0.274086209	0.245190499	0.002392510	0.024683083	0.007607566
2020-08-01T14:55:00	0.1275	16.975	0.0	0.273081896	0.243453254	0.002369752	0.024448291	0.007535201
2020-08-01T15:00:00	0.1269	16.931	0.0	0.271871331	0.241367683	0.002342502	0.024167165	0.007448555
2020-08-01T15:05:00	0.1261	16.981	0.0	0.270248238	0.238585891	0.002306280	0.023793463	0.007333376
2020-08-01T15:10:00	0.1268	17.005	0.0	0.271716260	0.241101191	0.002339026	0.024131302	0.007437502
2020-08-01T15:15:00	0.1268	16.958	0.0	0.271535698	0.240791085	0.002334983	0.024089586	0.007424644
2020-08-01T15:20:00	0.1271	16.956	0.0	0.272179288	0.241897358	0.002349415	0.024238486	0.007470537
2020-08-01T15:25:00	0.1274	16.960	0.0	0.272822787	0.243006082	0.002363902	0.024387945	0.007516602
2020-08-01T15:30:00	0.1277	16.951	0.0	0.273466194	0.244117256	0.002378444	0.024537966	0.007562839
2020-08-01T15:35:00	0.1272	16.923	0.0	0.272461745	0.242383698	0.002355767	0.024304018	0.007490734
2020-08-01T15:40:00	0.1272	16.913	0.0	0.272487224	0.242427595	0.002356341	0.024309935	0.007492558
2020-08-01T15:45:00	0.1268	16.947	0.0	0.271688605	0.241053683	0.002338407	0.024124910	0.007435532
2020-08-01T15:50:00	0.1252	16.940	0.0	0.268416183	0.235465904	0.002265822	0.023376069	0.007204731
2020-08-01T15:55:00	0.1251	16.916	0.0	0.268029275	0.234809705	0.002257336	0.023288517	0.007177747
2020-08-01T16:00:00	0.1261	16.947	0.0	0.270116432	0.238360720	0.002303354	0.023763277	0.007324073
2020-08-01T16:05:00	0.1249	16.963	0.0	0.267671531	0.234203806	0.002249507	0.023207751	0.007152854
2020-08-01T16:10:00	0.1247	17.001	0.0	0.267288248	0.233555546	0.002241139	0.023121415	0.007126245
2020-08-01T16:15:00	0.1242	17.096	0.0	0.266286077	0.231864917	0.002219351	0.022896635	0.007056965
2020-08-01T16:20:00	0.1238	17.089	0.0	0.265490013	0.230526490	0.002202140	0.022719073	0.007002239
2020-08-01T16:25:00	0.1230	17.019	0.0	0.263868207	0.227812088	0.002167339	0.022360034	0.006891580
2020-08-01T16:30:00	0.1234	16.986	0.0	0.264516636	0.228895370	0.002181211	0.022503150	0.006935689
2020-08-01T16:35:00	0.1235	16.966	0.0	0.264752235	0.229289624	0.002186265	0.022555293	0.006951760
2020-08-01T16:40:00	0.1228	16.891	0.0	0.263336592	0.226925933	0.002156007	0.022243131	0.006855549
2020-08-01T16:45:00	0.1227	16.831	0.0	0.263159371	0.226630918	0.002152238	0.022204246	0.006843564
2020-08-01T16:50:00	0.1219	16.795	0.0	0.261536649	0.223938804	0.002117921	0.021850198	0.006734443
2020-08-01T16:55:00	0.1218	16.749	0.0	0.261359350	0.223645669	0.002114192	0.021811733	0.006722588
2020-08-01T17:00:00	0.1223	16.714	0.0	0.262421178	0.225404192	0.002136584	0.022042739	0.006793786
2020-08-01T17:05:00	0.1224	16.693	0.0	0.262450413	0.225452709	0.002137202	0.022049121	0.006795753
2020-08-01T17:10:00	0.1228	16.657	0.0	0.263305516	0.226874188	0.002155346	0.022236309	0.006853446
2020-08-01T17:15:00	0.1236	16.628	0.0	0.264985975	0.229681112	0.002191287	0.022607100	0.006967728
2020-08-01T17:20:00	0.1236	16.608	0.0	0.265015191	0.229730070	0.002191915	0.022613581	0.006969725
2020-08-01T17:25:00	0.1234	16.586	0.0	0.264631667	0.229087821	0.002183678	0.022528599	0.006943533
2020-08-01T17:30:00	0.1234	16.558	0.0	0.264660886	0.229136718	0.002184304	0.022535066	0.006945526
2020-08-01T17:35:00	0.1235	16.527	0.0	0.264896478	0.229531173	0.002189363	0.022587254	0.006961611
2020-08-01T17:40:00	0.1239	16.493	0.0	0.265544747	0.230618386	0.002203321	0.022731253	0.007005993
2020-08-01T17:45:00	0.1233	16.464	0.0	0.264335773	0.228592949	0.002177336	0.022463173	0.006923368
2020-08-01T17:50:00	0.1229	16.459	0.0	0.263539337	0.227263681	0.002160324	0.022287669	0.006869276
2020-08-01T17:55:00	0.1226	16.435	0.0	0.262949218	0.226281336	0.002147774	0.022158191	0.006829370
2020-08-01T18:00:00	0.1225	16.425	0.0	0.262771981	0.225986726	0.002144014	0.022119397	0.006817413
2020-08-01T18:05:00	0.1224	16.401	0.0	0.262594736	0.225692300	0.002140258	0.022080644	0.006805469
2020-08-01T18:10:00	0.1228	16.370	0.0	0.263449809	0.227114506	0.002158417	0.022267995	0.006863212
2020-08-01T18:15:00	0.1225	16.342	0.0	0.262653202	0.225789399	0.002141496	0.022093422	0.006809407
2020-08-01T18:20:00	0.1225	16.314	0.0	0.262682435	0.225837955	0.002142116	0.022099813	0.006811377
2020-08-01T18:25:00	0.1233	16.277	0.0	0.264363147	0.228638708	0.002177922	0.022469221	0.006925232
2020-08-01T18:30:00	0.1234	16.243	0.0	0.264598755	0.229032749	0.002182972	0.022521316	0.006941288
2020-08-01T18:35:00	0.1237	16.211	0.0	0.265247070	0.230118823	0.002196905	0.022665059	0.006985591
2020-08-01T18:40:00	0.1245	16.183	0.0	0.266926751	0.232944983	0.002233264	0.023040173	0.007101205
2020-08-01T18:45:00	0.1251	16.149	0.0	0.268193376	0.235087905	0.002260933	0.023325625	0.007189184
2020-08-01T18:50:00	0.1256	16.115	0.0	0.269047316	0.236538335	0.002279708	0.023519331	0.007248886
2020-08-01T18:55:00	0.1262	16.086	0.0	0.270313322	0.238697119	0.002307725	0.023808377	0.007337973
2020-08-01T19:00:00	0.1259	16.056	0.0	0.269724141	0.237691197	0.002294660	0.023673581	0.007296428
2020-08-01T19:05:00	0.1266	16.021	0.0	0.271196024	0.240208270	0.002327388	0.024011234	0.007400496
2020-08-01T19:10:00	0.1270	15.984	0.0	0.272049383	0.241673852	0.002346498	0.024208384	0.007461259
2020-08-01T19:15:00	0.1280	15.957	0.0	0.274138340	0.245280847	0.002393695	0.024695309	0.007611334
2020-08-01T19:20:00	0.1284	15.923	0.0	0.274991145	0.246761287	0.002413134	0.024895861	0.007673146
2020-08-01T19:25:00	0.1288	15.893	0.0	0.275637932	0.247887142	0.002427944	0.025048649	0.007720237
2020-08-01T19:30:00	0.1287	15.855	0.0	0.275461210	0.247579261	0.002423892	0.025006843	0.007707352
2020-08-01T19:35:00	0.1279	15.814	0.0	0.273843088	0.244769369	0.002386988	0.024626115	0.007590008
2020-08-01T19:40:00	0.1279	15.773	0.0	0.273872246	0.244819856	0.002387650	0.024632943	0.007592112
2020-08-01T19:45:00	0.1281	15.742	0.0	0.274313270	0.245584147	0.002397674	0.024736363	0.007623987
2020-08-01T19:50:00	0.1291	15.709	0.0	0.276401197	0.249219138	0.002445494	0.025229713	0.007776043
2020-08-01T19:55:00	0.1300	15.671	0.0	0.278282449	0.252517843	0.002489094	0.025679522	0.007914678
2020-08-01T20:00:00	0.1306	15.632	0.0	0.279340212	0.254382385	0.002513823	0.025934646	0.007993310
2020-08-01T20:05:00	0.1307	15.601	0.0	0.279575034	0.254797268	0.002519334	0.025991500	0.008010833
2020-08-01T20:10:00	0.1307	15.560	0.0	0.279604156	0.254848744	0.002520017	0.025998556	0.008013007
2020-08-01T20:15:00	0.1309	15.518	0.0	0.280044644	0.255628015	0.002530377	0.026105435	0.008045949
2020-08-01T20:20:00	0.1304	15.488	0.0	0.279045287	0.253861806	0.002506912	0.025863352	0.007971336
2020-08-01T20:25:00	0.1306	15.455	0.0	0.279485827	0.254639616	0.002517239	0.025969892	0.008004173
2020-08-01T20:30:00	0.1319	15.424	0.0	0.282188279	0.259437787	0.002581177	0.026629531	0.008207480
2020-08-01T20:35:00	0.1320	15.386	0.0	0.282422964	0.259856641	0.002586778	0.026687310	0.008225288
2020-08-01T20:40:00	0.1313	15.352	0.0	0.280807205	0.256979956	0.002548375	0.026291118	0.008103178
2020-08-01T20:45:00	0.1310	15.312	0.0	0.280219356	0.255937438	0.002534494	0.026147904	0.008059038
2020-08-01T20:50:00	0.1309	15.277	0.0	0.280042804	0.255624757	0.002530334	0.026104988	0.008045811
2020-08-01T20:55:00	0.1314	15.235	0.0	0.281100182	0.257500350	0.002555312	0.026362680	0.008125234
2020-08-01T21:00:00	0.1314	15.212	0.0	0.281129295	0.257552090	0.002556002	0.026369797	0.008127428
2020-08-01T21:05:00	0.1311	15.181	0.0	0.280541485	0.256508448	0.002542095	0.026226321	0.008083207
2020-08-01T21:10:00	0.1311	15.138	0.0	0.280570602	0.256560091	0.002542782	0.026233417	0.008085394
2020-08-01T21:15:00	0.1314	15.099	0.0	0.281011003	0.257341890	0.002553199	0.026340884	0.008118516
2020-08-01T21:20:00	0.1316	15.058	0.0	0.281451364	0.258124840	0.002563642	0.026448620	0.008151722
2020-08-01T21:25:00	0.1319	15.003	0.0	0.282097279	0.259275470	0.002579008	0.026607149	0.008200582
2020-08-01T21:30:00	0.1322	14.959	0.0	0.282743110	0.260428579	0.002594430	0.026766257	0.008249620
2020-08-01T21:35:00	0.1319	14.926	0.0	0.282155493	0.259379301	0.002580396	0.026621466	0.008204994
2020-08-01T21:40:00	0.1310	14.888	0.0	0.280333987	0.256140559	0.002537197	0.026175792	0.008067633
2020-08-01T21:45:00	0.1314	14.859	0.0	0.281185680	0.257652315	0.002557338	0.026383586	0.008131678
2020-08-01T21:50:00	0.1309	14.828	0.0	0.279980885	0.255515142	0.002528876	0.026089948	0.008041175
2020-08-01T21:55:00	0.1312	14.795	0.0	0.280626993	0.256660129	0.002544115	0.026247162	0.008089630
2020-08-01T22:00:00	0.1311	14.748	0.0	0.280450456	0.256347021	0.002539945	0.026204147	0.008076372
2020-08-01T22:05:00	0.1312	14.716	0.0	0.280770730	0.256915206	0.002547513	0.026282218	0.008100435
2020-08-01T22:10:00	0.1322	14.688	0.0	0.282735753	0.260415428	0.002594254	0.026764441	0.008249061
2020-08-01T22:15:00	0.1315	14.674	0.0	0.281205593	0.257687715	0.002557810	0.026388457	0.008133179
2020-08-01T22:20:00	0.1312	14.636	0.0	0.280703299	0.256795527	0.002545918	0.026265768	0.008095365
2020-08-01T22:25:00	0.1308	14.607	0.0	0.279789600	0.255176666	0.002524376	0.026043518	0.008026865
2020-08-01T22:30:00	0.1304	14.586	0.0	0.279081449	0.253925606	0.002507759	0.025872087	0.007974028
2020-08-01T22:35:00	0.1301	14.571	0.0	0.278373193	0.252677524	0.002491209	0.025701346	0.007921404
2020-08-01T22:40:00	0.1300	14.550	0.0	0.278282123	0.252517269	0.002489086	0.025679443	0.007914654
2020-08-01T22:45:00	0.1306	14.540	0.0	0.279425414	0.254532880	0.002515821	0.025955265	0.007999665
2020-08-01T22:50:00	0.1309	14.523	0.0	0.280157113	0.255827180	0.002533027	0.026132769	0.008054373
2020-08-01T22:55:00	0.1321	14.492	0.0	0.282533539	0.260054109	0.002589419	0.026714561	0.008233687
2020-08-01T23:00:00	0.1332	14.455	0.0	0.284703353	0.263944623	0.002641597	0.027252866	0.008399598
2020-08-01T23:05:00	0.1332	14.420	0.0	0.284817881	0.264150798	0.002644369	0.027281468	0.008408413
2020-08-01T23:10:00	0.1332	14.426	0.0	0.284726929	0.263987059	0.002642167	0.027258753	0.008401412
2020-08-01T23:15:00	0.1329	14.398	0.0	0.284224990	0.263084360	0.002630037	0.027133606	0.008362841
2020-08-01T23:20:00	0.1325	14.407	0.0	0.283311941	0.261446384	0.002608062	0.026906892	0.008292965
2020-08-01T23:25:00	0.1322	14.384	0.0	0.282809861	0.260547910	0.002596027	0.026782736	0.008254699
2020-08-01T23:30:00	0.1324	14.382	0.0	0.283129982	0.261120584	0.002603696	0.026861855	0.008279084
2020-08-01T23:35:00	0.1320	14.384	0.0	0.282422312	0.259855477	0.002586762	0.026687150	0.008225239
2020-08-01T23:40:00	0.1315	14.378	0.0	0.281303316	0.257861479	0.002560128	0.026412369	0.008140548
2020-08-01T23:45:00	0.1318	14.367	0.0	0.281829138	0.258797486	0.002572622	0.026541266	0.008180276
2020-08-01T23:50:00	0.1317	14.365	0.0	0.281738132	0.258635363	0.002570457	0.026518928	0.008173391
2020-08-01T23:55:00	0.1323	14.356	0.0	0.282880615	0.260674429	0.002597721	0.026800210	0.008260085
2020-08-02T00:00:00	0.1318	14.348	0.0	0.281967321	0.259043751	0.002575912	0.026575205	0.008190736
2020-08-02T00:05:00	0.1314	14.337	0.0	0.281053857	0.257418031	0.002554214	0.026351356	0.008121744
2020-08-02T00:10:00	0.1309	14.320	0.0	0.280140224	0.255797268	0.002532629	0.026128663	0.008053108
2020-08-02T00:15:00	0.1315	14.337	0.0	0.281283078	0.257825487	0.002559648	0.026407415	0.008139022
2020-08-02T00:20:00	0.1320	14.331	0.0	0.282220086	0.259494535	0.002581936	0.026637358	0.008209892
2020-08-02T00:25:00	0.1323	14.328	0.0	0.282951368	0.260800977	0.002599416	0.026817692	0.008265473
2020-08-02T00:30:00	0.1326	14.333	0.0	0.283477016	0.261742134	0.002612026	0.026947792	0.008305571
2020-08-02T00:35:00	0.1326	14.327	0.0	0.283591572	0.261947473	0.002614779	0.026976198	0.008314326
2020-08-02T00:40:00	0.1327	14.320	0.0	0.283706125	0.262152890	0.002617535	0.027004622	0.008323087
2020-08-02T00:45:00	0.1323	14.342	0.0	0.282998537	0.260885360	0.002600546	0.026829350	0.008269066
2020-08-02T00:50:00	0.1323	14.340	0.0	0.282907552	0.260722605	0.002598366	0.026806865	0.008262136
2020-08-02T00:55:00	0.1322	14.338	0.0	0.282816566	0.260559898	0.002596188	0.026784392	0.008255210
2020-08-02T01:00:00	0.1324	14.338	0.0	0.283136687	0.261132585	0.002603857	0.026863513	0.008279596
2020-08-02T01:05:00	0.1318	14.335	0.0	0.281812255	0.258767406	0.002572220	0.026537121	0.008178998
2020-08-02T01:10:00	0.1319	14.313	0.0	0.282132440	0.259338182	0.002579846	0.026615796	0.008203247
2020-08-02T01:15:00	0.1322	14.312	0.0	0.282658175	0.260276779	0.002592399	0.026745298	0.008243160
2020-08-02T01:20:00	0.1311	14.330	0.0	0.280511065	0.256454496	0.002541376	0.026218910	0.008080923
2020-08-02T01:25:00	0.1298	14.334	0.0	0.277745730	0.251574454	0.002476605	0.025550679	0.007874967
2020-08-02T01:30:00	0.1288	14.338	0.0	0.275802291	0.248173659	0.002431716	0.025087569	0.007732232
2020-08-02T01:35:00	0.1286	14.338	0.0	0.275299428	0.247297582	0.002420186	0.024968611	0.007695568
2020-08-02T01:40:00	0.1279	14.344	0.0	0.273972826	0.244994052	0.002389934	0.024656505	0.007599374
2020-08-02T01:45:00	0.1299	14.329	0.0	0.277998716	0.252018899	0.002482487	0.025611359	0.007893669
2020-08-02T01:50:00	0.1301	14.315	0.0	0.278319152	0.252582423	0.002489949	0.025688347	0.007917398
2020-08-02T01:55:00	0.1296	14.334	0.0	0.277405000	0.250976495	0.002468698	0.025469097	0.007849823
2020-08-02T02:00:00	0.1296	14.341	0.0	0.277313911	0.250816763	0.002466586	0.025447316	0.007843110
2020-08-02T02:05:00	0.1291	14.344	0.0	0.276399565	0.249216287	0.002445457	0.025229325	0.007775923
2020-08-02T02:10:00	0.1295	14.349	0.0	0.277131728	0.250497448	0.002462367	0.025403786	0.007829694
2020-08-02T02:15:00	0.1287	14.350	0.0	0.275599786	0.247820667	0.002427069	0.025039621	0.007717454
2020-08-02T02:20:00	0.1286	14.351	0.0	0.275302786	0.247303427	0.002420263	0.024969404	0.007695813
2020-08-02T02:25:00	0.1288	14.357	0.0	0.275829267	0.248220702	0.002432336	0.025093960	0.007734202
2020-08-02T02:30:00	0.1285	14.366	0.0	0.275120524	0.246986284	0.002416092	0.024926376	0.007682551
2020-08-02T02:35:00	0.1284	14.373	0.0	0.274823493	0.246469887	0.002409305	0.024856353	0.007660970
2020-08-02T02:40:00	0.1287	14.382	0.0	0.275555903	0.247744208	0.002426062	0.025029238	0.007714254
2020-08-02T02:45:00	0.1278	14.390	0.0	0.273611548	0.244368646	0.002381737	0.024571938	0.007573310
2020-08-02T02:50:00	0.1281	14.399	0.0	0.274344151	0.245637708	0.002398377	0.024743615	0.007626222
2020-08-02T02:55:00	0.1282	14.399	0.0	0.274458924	0.245836833	0.002400991	0.024770580	0.007634533
2020-08-02T03:00:00	0.1280	14.394	0.0	0.274161851	0.245321600	0.002394230	0.024700824	0.007613034
2020-08-02T03:05:00	0.1269	14.384	0.0	0.271804846	0.241253409	0.002341012	0.024151785	0.007443815
2020-08-02T03:10:00	0.1257	14.378	0.0	0.269446601	0.237218103	0.002288521	0.023610252	0.007276909
2020-08-02T03:15:00	0.1248	14.375	0.0	0.267499586	0.233912875	0.002245751	0.023168994	0.007140909
2020-08-02T03:20:00	0.1243	14.375	0.0	0.266376947	0.232017950	0.002221321	0.022916959	0.007063229
2020-08-02T03:25:00	0.1238	14.379	0.0	0.265460356	0.230476704	0.002201501	0.022712475	0.007000205
2020-08-02T03:30:00	0.1239	14.383	0.0	0.265575361	0.230669795	0.002203981	0.022738068	0.007008093
2020-08-02T03:35:00	0.1239	14.394	0.0	0.265690364	0.230862964	0.002206464	0.022763679	0.007015987
2020-08-02T03:40:00	0.1242	14.390	0.0	0.266217988	0.231750282	0.002217876	0.022881413	0.007052274
2020-08-02T03:45:00	0.1246	14.390	11.0	0.267158081	0.233335601	0.002238301	0.023092141	0.007117222
2020-08-02T03:50:00	0.1242	14.377	0.0	0.266241658	0.231790129	0.002218388	0.022886704	0.007053905
2020-08-02T03:55:00	0.1238	14.380	0.0	0.265531379	0.230595940	0.002203032	0.022728278	0.007005076
2020-08-02T04:00:00	0.1241	14.381	0.0	0.266059023	0.231482762	0.002214433	0.022845901	0.007041329
2020-08-02T04:05:00	0.1247	14.382	0.0	0.267294859	0.233566720	0.002241283	0.023122902	0.007126703
2020-08-02T04:10:00	0.1248	14.375	0.0	0.267499259	0.233912321	0.002245743	0.023168921	0.007140886
2020-08-02T04:15:00	0.1248	14.384	1.0	0.267497413	0.233909200	0.002245703	0.023168505	0.007140758
2020-08-02T04:20:00	0.1249	14.391	0.0	0.267701804	0.234255046	0.002250169	0.023214578	0.007154958
2020-08-02T04:25:00	0.1246	14.400	0.0	0.267081221	0.233205781	0.002236627	0.023074866	0.007111898
2020-08-02T04:30:00	0.1248	14.412	0.0	0.267491877	0.233899836	0.002245582	0.023167258	0.007140374
2020-08-02T04:35:00	0.1250	14.425	0.0	0.267902494	0.234594887	0.002254559	0.023259874	0.007168919
2020-08-02T04:40:00	0.1266	14.433	0.0	0.271198942	0.240213273	0.002327453	0.024011906	0.007400703
2020-08-02T04:45:00	0.1264	14.436	0.0	0.270784946	0.239503911	0.002318218	0.023916627	0.007371337
2020-08-02T04:50:00	0.1270	14.448	0.0	0.272019444	0.241622356	0.002345826	0.024201450	0.007459122
2020-08-02T04:55:00	0.1272	14.472	0.0	0.272429638	0.242328391	0.002355045	0.024296563	0.007488437
2020-08-02T05:00:00	0.1280	14.478	0.0	0.274075573	0.245172068	0.002392268	0.024680589	0.007606797
2020-08-02T05:05:00	0.1290	14.472	0.0	0.276132622	0.248750021	0.002439310	0.025165907	0.007756377
2020-08-02T05:10:00	0.1289	14.485	0.0	0.275924932	0.248387563	0.002434534	0.025116635	0.007741191
2020-08-02T05:15:00	0.1293	14.504	0.0	0.276746429	0.249822818	0.002453459	0.025311882	0.007801368
2020-08-02T05:20:00	0.1292	14.497	0.0	0.276538766	0.249459605	0.002448666	0.025262436	0.007786128
2020-08-02T05:25:00	0.1290	14.519	0.0	0.276125255	0.248737159	0.002439140	0.025164158	0.007755838
2020-08-02T05:30:00	0.1289	14.532	0.0	0.275917564	0.248374710	0.002434364	0.025114888	0.007740652
2020-08-02T05:35:00	0.1291	14.557	30.0	0.276327410	0.249090211	0.002443794	0.025212173	0.007770637
2020-08-02T05:40:00	0.1289	14.590	0.0	0.275913880	0.248368284	0.002434280	0.025114015	0.007740383
2020-08-02T05:45:00	0.1288	14.623	0.0	0.275706181	0.248006095	0.002429510	0.025064805	0.007725216
2020-08-02T05:50:00	0.1283	14.645	0.0	0.274674912	0.246211784	0.002405914	0.024821373	0.007650188
2020-08-02T05:55:00	0.1279	14.661	0.0	0.273849363	0.244780234	0.002387130	0.024627584	0.007590461
2020-08-02T06:00:00	0.1275	14.672	0.0	0.273023665	0.243352721	0.002368436	0.024434721	0.007531018
2020-08-02T06:05:00	0.1278	14.720	0.0	0.273639727	0.244417397	0.002382375	0.024578527	0.007575341
2020-08-02T06:10:00	0.1283	14.740	0.0	0.274667543	0.246198985	0.002405746	0.024819639	0.007649654
2020-08-02T06:15:00	0.1285	14.734	0.0	0.275077499	0.246911450	0.002415108	0.024916225	0.007679423
2020-08-02T06:20:00	0.1285	14.740	64.0	0.275075657	0.246908246	0.002415066	0.024915791	0.007679289
2020-08-02T06:25:00	0.1274	14.759	0.0	0.272808462	0.242981371	0.002363579	0.024384612	0.007515574
2020-08-02T06:30:00	0.1265	14.768	0.0	0.270952305	0.239790541	0.002321949	0.023955115	0.007383199
2020-08-02T06:35:00	0.1260	14.771	67.0	0.269919952	0.238025267	0.002298997	0.023718326	0.007310218
2020-08-02T06:40:00	0.1256	14.847	0.0	0.269093527	0.236616957	0.002280727	0.023529842	0.007252126
2020-08-02T06:45:00	0.1250	14.948	0.0	0.267854518	0.234513623	0.002253509	0.023249041	0.007165580
2020-08-02T06:50:00	0.1241	14.988	0.0	0.265996258	0.231377180	0.002213075	0.022831889	0.007037010
2020-08-02T06:55:00	0.1231	15.038	0.0	0.263930771	0.227916493	0.002168675	0.022373817	0.006895828
2020-08-02T07:00:00	0.1227	15.075	0.0	0.263103180	0.226537419	0.002151044	0.022191926	0.006839767
2020-08-02T07:05:00	0.1228	15.097	0.0	0.263307784	0.226877964	0.002155394	0.022236807	0.006853600
2020-08-02T07:10:00	0.1219	15.199	0.0	0.261447497	0.223791382	0.002116045	0.021830851	0.006728480
2020-08-02T07:15:00	0.1222	15.263	0.0	0.262065224	0.224813895	0.002129061	0.021965127	0.006769866
2020-08-02T07:20:00	0.1218	15.328	123.0	0.261237255	0.223443919	0.002111627	0.021785269	0.006714431
2020-08-02T07:25:00	0.1214	15.474	134.0	0.260409117	0.222077980	0.002094281	0.021606310	0.006659275
2020-08-02T07:30:00	0.1207	15.566	0.0	0.258960847	0.219699572	0.002064163	0.021295586	0.006563506
2020-08-02T07:35:00	0.1206	15.788	0.0	0.258752323	0.219358213	0.002059849	0.021251082	0.006549790
2020-08-02T07:40:00	0.1214	16.208	111.0	0.260403571	0.222068848	0.002094165	0.021605115	0.006658906
2020-08-02T07:45:00	0.1209	16.015	0.0	0.259368617	0.220367893	0.002072615	0.021382784	0.006590382
2020-08-02T07:50:00	0.1200	16.002	0.0	0.257506495	0.217324464	0.002034196	0.020986421	0.006468219
2020-08-02T07:55:00	0.1201	15.980	0.0	0.257711386	0.217658266	0.002038401	0.021029804	0.006481590
2020-08-02T08:00:00	0.1198	15.931	0.0	0.257089280	0.216645567	0.002025650	0.020898259	0.006441046
2020-08-02T08:05:00	0.1204	15.955	172.0	0.258327843	0.218664175	0.002051085	0.021160671	0.006521924
2020-08-02T08:10:00	0.1206	15.922	0.0	0.258739378	0.219337030	0.002059581	0.021248321	0.006548939
2020-08-02T08:15:00	0.1203	15.923	0.0	0.258117436	0.218320572	0.002046750	0.021115946	0.006508140
2020-08-02T08:20:00	0.1201	16.048	0.0	0.257702137	0.217643192	0.002038211	0.021027844	0.006480986
2020-08-02T08:25:00	0.1203	16.104	0.0	0.258113737	0.218314534	0.002046674	0.021115160	0.006507897
2020-08-02T08:30:00	0.1204	16.078	0.0	0.258318596	0.218649067	0.002050895	0.021158704	0.006521318
2020-08-02T08:35:00	0.1203	16.112	0.0	0.258110038	0.218308495	0.002046598	0.021114374	0.006507655
2020-08-02T08:40:00	0.1206	16.231	0.0	0.258728282	0.219318874	0.002059352	0.021245955	0.006548210
2020-08-02T08:45:00	0.1214	16.311	0.0	0.260379540	0.222029276	0.002093663	0.021599936	0.006657310
2020-08-02T08:50:00	0.1217	16.421	0.0	0.260997430	0.223047905	0.002106594	0.021733347	0.006698429
2020-08-02T08:55:00	0.1212	16.453	0.0	0.259962630	0.221343333	0.002084966	0.021510213	0.006629656
2020-08-02T09:00:00	0.1215	16.555	0.0	0.260787164	0.222700999	0.002102188	0.021687889	0.006684418
2020-08-02T09:05:00	0.1220	16.632	0.0	0.261818056	0.224404473	0.002123847	0.021911337	0.006753287
2020-08-02T09:10:00	0.1219	17.241	0.0	0.261609681	0.224059609	0.002119458	0.021866054	0.006739330
2020-08-02T09:15:00	0.1240	17.334	0.0	0.265942722	0.231287142	0.002211917	0.022819942	0.007033328
2020-08-02T09:20:00	0.1222	17.209	0.0	0.262225535	0.225079648	0.002132447	0.022000060	0.006780632
2020-08-02T09:25:00	0.1246	18.140	0.0	0.267176746	0.233367134	0.002238708	0.023096337	0.007118515
2020-08-02T09:30:00	0.1248	17.561	0.0	0.267587393	0.234061421	0.002247668	0.023188781	0.007147007
2020-08-02T09:35:00	0.1232	17.132	0.0	0.264284483	0.228507225	0.002176238	0.022451845	0.006919877
2020-08-02T09:40:00	0.1232	16.953	0.0	0.264282637	0.228504139	0.002176198	0.022451437	0.006919751
2020-08-02T09:45:00	0.1226	16.888	0.0	0.263042218	0.226436004	0.002149749	0.022178564	0.006835649
2020-08-02T09:50:00	0.1223	16.996	0.0	0.262420945	0.225403804	0.002136579	0.022042688	0.006793770
2020-08-02T09:55:00	0.1231	17.081	0.0	0.264070693	0.228150082	0.002171665	0.022404663	0.006905335
2020-08-02T10:00:00	0.1233	17.169	0.0	0.264481642	0.228836841	0.002180461	0.022495412	0.006933304
2020-08-02T10:05:00	0.1229	17.243	0.0	0.263511724	0.227217665	0.002159736	0.022281600	0.006867405
2020-08-02T10:10:00	0.1220	17.273	0.0	0.261715554	0.224234796	0.002121687	0.021889055	0.006746419
2020-08-02T10:15:00	0.1219	17.310	0.0	0.261571200	0.223995952	0.002118648	0.021857699	0.006736755
2020-08-02T10:20:00	0.1225	17.415	0.0	0.262665901	0.225810491	0.002141765	0.022096198	0.006810263
2020-08-02T10:25:00	0.1224	17.477	0.0	0.262521581	0.225570839	0.002138709	0.022064662	0.006800543
2020-08-02T10:30:00	0.1235	17.644	0.0	0.264854428	0.229460743	0.002188460	0.022577934	0.006958739
2020-08-02T10:35:00	0.1232	17.745	0.0	0.264297411	0.228528830	0.002176515	0.022454700	0.006920756
2020-08-02T10:40:00	0.1228	17.695	0.0	0.263327449	0.226910709	0.002155813	0.022241124	0.006854930
2020-08-02T10:45:00	0.1229	17.652	0.0	0.263596037	0.227358182	0.002161533	0.022300135	0.006873118
2020-08-02T10:50:00	0.1227	17.527	0.0	0.263245305	0.226773945	0.002154065	0.022223096	0.006849374
2020-08-02T10:55:00	0.1218	17.532	0.0	0.261242472	0.223452538	0.002111737	0.021786399	0.006714780
2020-08-02T11:00:00	0.1213	17.598	0.0	0.260271783	0.221851878	0.002091413	0.021576723	0.006650155
2020-08-02T11:05:00	0.1221	17.654	0.0	0.261986423	0.224683323	0.002127398	0.021947969	0.006764577
2020-08-02T11:10:00	0.1216	17.692	0.0	0.260809345	0.222737581	0.002102653	0.021692682	0.006685895
2020-08-02T11:15:00	0.1211	17.781	0.0	0.259838550	0.221139396	0.002082382	0.021483555	0.006621440
2020-08-02T11:20:00	0.1213	17.797	0.0	0.260313973	0.221921327	0.002092294	0.021585809	0.006652956
2020-08-02T11:25:00	0.1215	17.832	0.0	0.260582760	0.222364032	0.002097911	0.021643756	0.006670816
2020-08-02T11:30:00	0.1205	17.822	0.0	0.258578599	0.219074031	0.002056260	0.021214050	0.006538376
2020-08-02T11:35:00	0.1204	17.856	0.0	0.258434132	0.218837853	0.002053278	0.021183286	0.006528895
2020-08-02T11:40:00	0.1207	17.891	0.0	0.259116390	0.219954378	0.002067384	0.021328821	0.006573750
2020-08-02T11:45:00	0.1352	17.890	0.0	0.288835976	0.271436573	0.002742802	0.028296987	0.008721406
2020-08-02T11:50:00	0.1353	17.967	0.0	0.289103099	0.271924539	0.002749427	0.028365332	0.008742471
2020-08-02T11:55:00	0.1351	17.956	0.0	0.288754281	0.271287426	0.002740778	0.028276106	0.008714970
2020-08-02T12:00:00	0.1342	17.937	0.0	0.286762504	0.267664161	0.002691723	0.027770015	0.008558988
2020-08-02T12:05:00	0.1331	17.940	0.0	0.284564478	0.263694729	0.002638237	0.027218210	0.008388917
2020-08-02T12:10:00	0.1324	17.975	0.0	0.283187741	0.261223980	0.002605082	0.026876146	0.008283489
2020-08-02T12:15:00	0.1320	18.099	0.0	0.282221809	0.259497609	0.002581977	0.026637782	0.008210023
2020-08-02T12:20:00	0.1314	18.221	0.0	0.281050061	0.257411285	0.002554124	0.026350429	0.008121458
2020-08-02T12:25:00	0.1322	18.230	0.0	0.282756730	0.260452926	0.002594756	0.026769619	0.008250656
2020-08-02T12:30:00	0.1318	18.246	0.0	0.281996312	0.259095434	0.002576602	0.026582329	0.008192932
2020-08-02T12:35:00	0.1311	18.313	0.0	0.280413209	0.256280986	0.002539066	0.026195077	0.008073577
2020-08-02T12:40:00	0.1315	18.437	0.0	0.281297680	0.257851455	0.002559994	0.026410989	0.008140123
2020-08-02T12:45:00	0.1315	18.505	0.0	0.281359583	0.257961555	0.002561463	0.026426142	0.008144794
2020-08-02T12:50:00	0.1312	18.569	0.0	0.280598949	0.256610377	0.002543452	0.026240326	0.008087523
2020-08-02T12:55:00	0.1313	18.622	0.0	0.280866505	0.257085243	0.002549778	0.026305593	0.008107639
2020-08-02T13:00:00	0.1313	18.687	0.0	0.280928413	0.257195184	0.002551244	0.026320709	0.008112298
2020-08-02T13:05:00	0.1312	18.817	0.0	0.280579034	0.256575048	0.002542982	0.026235472	0.008086027
2020-08-02T13:10:00	0.1320	18.869	0.0	0.282285866	0.259611913	0.002583505	0.026653547	0.008214882
2020-08-02T13:15:00	0.1325	18.939	0.0	0.283375541	0.261560310	0.002609589	0.026922645	0.008297821
2020-08-02T13:20:00	0.1318	19.012	0.0	0.281998477	0.259099295	0.002576654	0.026582861	0.008193096
2020-08-02T13:25:00	0.1316	18.975	0.0	0.281443563	0.258110959	0.002563457	0.026446709	0.008151133
2020-08-02T13:30:00	0.1316	18.951	0.0	0.281505463	0.258221112	0.002564927	0.026461875	0.008155807
2020-08-02T13:35:00	0.1310	18.958	0.0	0.280333545	0.256139775	0.002537186	0.026175685	0.008067600
2020-08-02T13:40:00	0.1305	18.924	0.0	0.279161344	0.254066595	0.002509630	0.025891392	0.007979978
2020-08-02T13:45:00	0.1296	18.906	0.0	0.277371530	0.250917796	0.002467922	0.025461092	0.007847356
2020-08-02T13:50:00	0.1278	18.897	0.0	0.273727856	0.244569897	0.002384374	0.024599143	0.007581695
2020-08-02T13:55:00	0.1272	18.893	0.0	0.272347994	0.242187780	0.002353208	0.024277613	0.007482596
2020-08-02T14:00:00	0.1269	18.923	0.0	0.271791941	0.241231231	0.002340722	0.024148800	0.007442895
2020-08-02T14:05:00	0.1265	18.954	0.0	0.271029749	0.239923239	0.002323676	0.023972938	0.007388692
2020-08-02T14:10:00	0.1265	18.962	0.0	0.271091788	0.240029566	0.002325061	0.023987222	0.007393095
2020-08-02T14:15:00	0.1262	18.959	0.0	0.270329476	0.238724731	0.002308084	0.023812080	0.007339114
2020-08-02T14:20:00	0.1263	18.918	0.0	0.270597624	0.239183297	0.002314047	0.023873594	0.007358074
2020-08-02T14:25:00	0.1253	18.836	0.0	0.268598274	0.235775059	0.002269823	0.023417345	0.007217453
2020-08-02T14:30:00	0.1255	18.784	0.0	0.268866528	0.236230881	0.002275725	0.023478237	0.007236221
2020-08-02T14:35:00	0.1249	18.759	0.0	0.267691386	0.234237412	0.002249941	0.023212229	0.007154234
2020-08-02T14:40:00	0.1248	18.701	0.0	0.267547239	0.233993485	0.002246791	0.023179731	0.007144218
2020-08-02T14:45:00	0.1241	18.637	0.0	0.265959126	0.231314729	0.002212272	0.022823603	0.007034456
2020-08-02T14:50:00	0.1241	18.572	0.0	0.266021238	0.231419198	0.002213616	0.022837465	0.007038729
2020-08-02T14:55:00	0.1251	18.499	0.0	0.268145940	0.235007469	0.002259893	0.023314895	0.007185877
2020-08-02T15:00:00	0.1260	18.464	0.0	0.270063484	0.238270297	0.002302179	0.023751158	0.007320338
2020-08-02T15:05:00	0.1265	18.423	0.0	0.270949924	0.239786462	0.002321895	0.023954567	0.007383030
2020-08-02T15:10:00	0.1261	18.362	0.0	0.270187588	0.238482266	0.002304933	0.023779570	0.007329094
2020-08-02T15:15:00	0.1274	18.340	0.0	0.272928266	0.243188067	0.002366282	0.024412500	0.007524170
2020-08-02T15:20:00	0.1297	18.392	0.0	0.277519699	0.251177701	0.002471358	0.025496541	0.007858282
2020-08-02T15:25:00	0.1313	18.423	0.0	0.280873003	0.257096782	0.002549932	0.026307179	0.008108128
2020-08-02T15:30:00	0.1348	18.392	0.0	0.288127048	0.270143722	0.002725270	0.028116108	0.008665658
2020-08-02T15:35:00	0.1368	18.329	0.0	0.292088957	0.277409559	0.002824166	0.029136396	0.008980120
2020-08-02T15:40:00	0.1401	18.198	0.0	0.298917920	0.290165647	0.002999894	0.030949355	0.009538892
2020-08-02T15:45:00	0.1412	18.056	0.0	0.301233547	0.294557856	0.003061010	0.031579880	0.009733226
2020-08-02T15:50:00	0.1419	17.941	0.0	0.302729077	0.297412502	0.003100897	0.031991379	0.009860054
2020-08-02T15:55:00	0.1417	17.827	0.0	0.302176275	0.296355678	0.003086115	0.031838882	0.009813053
2020-08-02T16:00:00	0.1414	17.725	0.0	0.301623422	0.295300684	0.003071377	0.031686831	0.009766189
2020-08-02T16:05:00	0.1428	17.635	0.0	0.304548611	0.300904621	0.003149865	0.032496575	0.010015760
2020-08-02T16:10:00	0.1425	17.534	0.0	0.303787539	0.299441402	0.003129323	0.032284653	0.009950444
2020-08-02T16:15:00	0.1431	17.439	0.0	0.305074043	0.301916934	0.003164096	0.032643393	0.010061011
2020-08-02T16:20:00	0.1442	17.362	0.0	0.307383644	0.306387333	0.003227131	0.033293717	0.010261447
2020-08-02T16:25:00	0.1446	17.301	0.0	0.308260159	0.308092697	0.003251260	0.033542646	0.010338169
2020-08-02T16:30:00	0.1441	17.243	0.0	0.307090224	0.305817532	0.003219079	0.033210648	0.010235844
2020-08-02T16:35:00	0.1439	17.166	0.0	0.306738835	0.305135873	0.003209453	0.033111340	0.010205237
2020-08-02T16:40:00	0.1443	17.098	0.0	0.307615440	0.306837848	0.003233501	0.033359433	0.010281701
2020-08-02T16:45:00	0.1451	17.026	0.0	0.309105754	0.309742496	0.003274645	0.033783904	0.010412527
2020-08-02T16:50:00	0.1456	16.945	0.0	0.310186601	0.311857847	0.003304690	0.034093873	0.010508063
2020-08-02T16:55:00	0.1454	16.864	0.0	0.309835383	0.311169663	0.003294908	0.033992954	0.010476958
2020-08-02T17:00:00	0.1457	16.768	210.0	0.310507008	0.312486339	0.003313630	0.034186105	0.010536490
2020-08-02T17:05:00	0.1455	16.678	0.0	0.309951238	0.311396585	0.003298132	0.034026223	0.010487212
2020-08-02T17:10:00	0.1446	16.536	4.0	0.308167752	0.307912681	0.003248710	0.033516347	0.010330064
2020-08-02T17:15:00	0.1427	16.380	0.0	0.304336529	0.300496509	0.003144132	0.032437432	0.009997532
2020-08-02T17:20:00	0.1417	16.319	0.0	0.302141777	0.296289790	0.003085194	0.031829380	0.009810124
2020-08-02T17:25:00	0.1414	16.239	10.0	0.301585255	0.295227922	0.003070361	0.031676351	0.009762959
2020-08-02T17:30:00	0.1417	16.194	0.0	0.302257775	0.296511366	0.003088292	0.031861336	0.009819973
2020-08-02T17:35:00	0.1414	16.153	0.0	0.301701264	0.295449112	0.003073450	0.031708212	0.009772779
2020-08-02T17:40:00	0.1401	16.111	0.0	0.298890738	0.290114290	0.002999181	0.030942002	0.009536625
2020-08-02T17:45:00	0.1397	16.088	0.0	0.298128939	0.288676855	0.002979248	0.030736355	0.009473243
2020-08-02T17:50:00	0.1404	16.065	0.0	0.299621591	0.291496773	0.003018384	0.031140109	0.009597684
2020-08-02T17:55:00	0.1409	16.047	0.0	0.300499228	0.293161362	0.003041545	0.031379061	0.009671331
2020-08-02T18:00:00	0.1403	16.031	0.0	0.299327794	0.290940621	0.003010655	0.031060376	0.009573109
2020-08-02T18:05:00	0.1401	15.981	0.0	0.298975951	0.290275306	0.003001416	0.030965059	0.009543732
2020-08-02T18:10:00	0.1401	15.952	0.0	0.299033982	0.290384985	0.003002939	0.030980767	0.009548573
2020-08-02T18:15:00	0.1393	15.921	0.0	0.297247275	0.287017816	0.002956284	0.030499432	0.009400221
2020-08-02T18:20:00	0.1393	15.902	0.0	0.297305323	0.287126895	0.002957792	0.030514995	0.009405018
2020-08-02T18:25:00	0.1391	15.876	0.0	0.296953356	0.286465835	0.002948653	0.030420707	0.009375957
2020-08-02T18:30:00	0.1388	15.868	0.0	0.296191300	0.285037223	0.002928926	0.030217191	0.009313232
2020-08-02T18:35:00	0.1381	15.855	0.0	0.294813897	0.282464328	0.002893483	0.029851527	0.009200531
2020-08-02T18:40:00	0.1374	15.833	0.0	0.293436156	0.279902764	0.002858303	0.029488584	0.009088668
2020-08-02T18:45:00	0.1369	15.814	0.0	0.292468443	0.278110701	0.002833755	0.029235331	0.009010613
2020-08-02T18:50:00	0.1367	15.808	0.0	0.291910975	0.277081032	0.002819675	0.029090067	0.008965841
2020-08-02T18:55:00	0.1367	15.780	0.0	0.291969079	0.277188261	0.002821140	0.029105186	0.008970501
2020-08-02T19:00:00	0.1351	15.792	0.0	0.288743049	0.271266923	0.002740500	0.028273236	0.008714086
2020-08-02T19:05:00	0.1346	15.759	0.0	0.287569127	0.269128485	0.002711522	0.027974274	0.008621943
2020-08-02T19:10:00	0.1352	15.747	0.0	0.288859324	0.271479206	0.002743381	0.028302957	0.008723246
2020-08-02T19:15:00	0.1366	15.731	0.0	0.291791094	0.276859861	0.002816653	0.029058888	0.008956232
2020-08-02T19:20:00	0.1376	15.726	0.0	0.293900839	0.280765388	0.002870138	0.029610683	0.009126300
2020-08-02T19:25:00	0.1390	15.678	0.0	0.296624892	0.285849621	0.002940140	0.030332881	0.009348889
2020-08-02T19:30:00	0.1396	15.657	74.0	0.297912958	0.288269988	0.002973612	0.030678209	0.009455322
2020-08-02T19:35:00	0.1409	15.645	67.0	0.300635100	0.293419500	0.003045141	0.031416158	0.009682765
2020-08-02T19:40:00	0.1415	15.621	71.0	0.301717435	0.295479952	0.003073880	0.031712655	0.009774148
2020-08-02T19:45:00	0.1422	15.605	61.0	0.303209179	0.298331905	0.003113770	0.032124194	0.009900989
2020-08-02T19:50:00	0.1425	15.587	70.0	0.303881518	0.299621887	0.003131855	0.032310775	0.009958495
2020-08-02T19:55:00	0.1425	15.570	75.0	0.303939501	0.299733269	0.003133418	0.032326898	0.009963464
2020-08-02T20:00:00	0.1425	15.574	24.0	0.303792711	0.299451333	0.003129463	0.032286091	0.009950887
2020-08-02T20:05:00	0.1430	15.562	16.0	0.304874478	0.301532241	0.003158686	0.032587580	0.010043809
2020-08-02T20:10:00	0.1431	15.533	25.0	0.305137185	0.302038704	0.003165809	0.032661064	0.010066457
2020-08-02T20:15:00	0.1436	15.516	15.0	0.306014017	0.303732262	0.003189655	0.032907088	0.010142284
2020-08-02T20:20:00	0.1437	15.510	22.0	0.306276676	0.304240518	0.003196821	0.032981012	0.010165068
2020-08-02T20:25:00	0.1444	15.508	27.0	0.307767308	0.307133201	0.003237679	0.033402533	0.010294985
2020-08-02T20:30:00	0.1446	15.488	0.0	0.308234525	0.308042755	0.003250552	0.033535349	0.010335920
2020-08-02T20:35:00	0.1453	15.480	0.0	0.309520110	0.310552571	0.003286142	0.033902523	0.010449087
2020-08-02T20:40:00	0.1448	15.480	0.0	0.308555030	0.308667494	0.003259402	0.033626652	0.010364061
2020-08-02T20:45:00	0.1432	15.482	0.0	0.305338249	0.302426620	0.003171267	0.032717376	0.010083813
2020-08-02T20:50:00	0.1433	15.456	0.0	0.305600937	0.302933813	0.003178407	0.032791039	0.010106517
2020-08-02T20:55:00	0.1399	15.434	0.0	0.298489678	0.289357075	0.002988677	0.030833628	0.009503224
2020-08-02T21:00:00	0.1394	15.423	0.0	0.297522835	0.287535815	0.002963449	0.030573357	0.009423006
2020-08-02T21:05:00	0.1387	15.402	0.0	0.296145758	0.284951963	0.002927750	0.030205056	0.009309492
2020-08-02T21:10:00	0.1391	15.393	0.0	0.296818908	0.286213521	0.002945166	0.030384738	0.009364871
2020-08-02T21:15:00	0.1387	15.377	6.0	0.296056833	0.284785522	0.002925454	0.030181370	0.009302191
2020-08-02T21:20:00	0.1384	15.372	0.0	0.295499726	0.283743914	0.002911096	0.030033245	0.009256538
2020-08-02T21:25:00	0.1385	15.364	0.0	0.295762853	0.284235632	0.002917872	0.030103148	0.009278083
2020-08-02T21:30:00	0.1379	15.353	0.0	0.294385346	0.281666261	0.002882511	0.029738332	0.009165643
2020-08-02T21:35:00	0.1376	15.334	0.0	0.293828072	0.280630216	0.002868283	0.029591542	0.009120401
2020-08-02T21:40:00	0.1373	15.326	0.0	0.293270742	0.279596024	0.002854097	0.029445197	0.009075296
2020-08-02T21:45:00	0.1378	15.314	0.0	0.294149359	0.281227291	0.002876480	0.029676115	0.009146467
2020-08-02T21:50:00	0.1372	15.315	0.0	0.292976615	0.279051026	0.002846629	0.029368149	0.009051549
2020-08-02T21:55:00	0.1361	15.299	0.0	0.290777503	0.274993497	0.002791183	0.028796118	0.008875243
2020-08-02T22:00:00	0.1364	15.286	0.0	0.291451307	0.276233476	0.002808098	0.028970631	0.008929030
2020-08-02T22:05:00	0.1369	15.281	0.0	0.292475462	0.278123677	0.002833933	0.029237163	0.009011178
2020-08-02T22:10:00	0.1365	15.270	0.0	0.291652848	0.276604922	0.002813170	0.029022960	0.008945158
2020-08-02T22:15:00	0.1355	15.259	0.0	0.289598521	0.272830740	0.002761740	0.028492365	0.008781624
2020-08-02T22:20:00	0.1351	15.248	0.0	0.288775467	0.271326100	0.002741303	0.028281520	0.008716639
2020-08-02T22:25:00	0.1357	15.238	0.0	0.290005409	0.273576155	0.002771879	0.028596966	0.008813863
2020-08-02T22:30:00	0.1362	15.249	0.0	0.291029838	0.275457525	0.002797510	0.028861394	0.008895362
2020-08-02T22:35:00	0.1364	15.238	0.0	0.291438453	0.276209795	0.002807775	0.028967296	0.008928002
2020-08-02T22:40:00	0.1359	15.224	0.0	0.290410429	0.274319186	0.002781995	0.028701326	0.008846028
2020-08-02T22:45:00	0.1368	15.215	0.0	0.292255591	0.277717322	0.002828374	0.029179813	0.008993502
2020-08-02T22:50:00	0.1379	15.211	0.0	0.294510351	0.281898932	0.002885708	0.029771322	0.009175811
2020-08-02T22:55:00	0.1374	15.196	0.0	0.293482905	0.279989486	0.002859492	0.029500853	0.009092449
2020-08-02T23:00:00	0.1363	15.188	0.0	0.291224049	0.275814942	0.002802386	0.028911698	0.008910866
2020-08-02T23:05:00	0.1365	15.180	0.0	0.291632650	0.276567685	0.002812662	0.029017713	0.008943541
2020-08-02T23:10:00	0.1365	15.173	0.0	0.291630814	0.276564300	0.002812616	0.029017236	0.008943394
2020-08-02T23:15:00	0.1369	15.160	0.0	0.292449759	0.278076159	0.002833283	0.029230455	0.009009110
2020-08-02T23:20:00	0.1379	15.163	16.0	0.294499340	0.281878433	0.002885427	0.029768415	0.009174915
2020-08-02T23:25:00	0.1385	15.156	0.0	0.295727991	0.284170460	0.002916974	0.030093881	0.009275226
2020-08-02T23:30:00	0.1377	15.145	0.0	0.294085447	0.281108466	0.002874848	0.029659279	0.009141278
2020-08-02T23:35:00	0.1374	15.138	0.0	0.293468220	0.279962244	0.002859119	0.029496999	0.009091261
2020-08-02T23:40:00	0.1371	15.140	0.0	0.292850924	0.278818295	0.002843442	0.029335263	0.009041413
2020-08-02T23:45:00	0.1366	15.129	0.0	0.291823168	0.276919026	0.002817461	0.029067228	0.008958802
2020-08-02T23:50:00	0.1369	15.123	0.0	0.292436908	0.278052401	0.002832958	0.029227102	0.009008077
2020-08-02T23:55:00	0.1360	15.120	84.0	0.290588134	0.274645522	0.002786440	0.028747191	0.008860164
2020-08-03T00:00:00	0.1351	15.110	71.0	0.288738723	0.271259028	0.002740393	0.028272130	0.008713745
2020-08-03T00:05:00	0.1345	15.111	78.0	0.287504811	0.269011577	0.002709940	0.027957952	0.008616912
2020-08-03T00:10:00	0.1353	15.100	78.0	0.289145677	0.272002359	0.002750484	0.028376236	0.008745831
2020-08-03T00:15:00	0.1356	15.092	79.0	0.289759722	0.273125934	0.002765754	0.028533777	0.008794387
2020-08-03T00:20:00	0.1354	15.088	84.0	0.289347305	0.272371034	0.002755492	0.028427905	0.008761756
2020-08-03T00:25:00	0.1349	15.082	70.0	0.288318877	0.270493242	0.002730007	0.028164980	0.008680720
2020-08-03T00:30:00	0.1350	15.071	74.0	0.288522374	0.270864275	0.002735038	0.028216883	0.008696717
2020-08-03T00:35:00	0.1351	15.062	84.0	0.288725863	0.271235555	0.002740075	0.028268844	0.008712732
2020-08-03T00:40:00	0.1349	15.054	76.0	0.288313365	0.270483196	0.002729871	0.028163575	0.008680287
2020-08-03T00:45:00	0.1360	15.062	77.0	0.290569768	0.274611787	0.002785981	0.028742449	0.008858702
2020-08-03T00:50:00	0.1360	15.069	75.0	0.290567932	0.274608413	0.002785935	0.028741975	0.008858556
2020-08-03T00:55:00	0.1361	15.053	77.0	0.290771343	0.274982173	0.002791028	0.028794525	0.008874752
2020-08-03T01:00:00	0.1352	15.064	76.0	0.288921996	0.271593659	0.002744935	0.028318985	0.008728186
2020-08-03T01:05:00	0.1353	15.071	77.0	0.289125469	0.271965424	0.002749982	0.028371061	0.008744236
2020-08-03T01:10:00	0.1351	15.068	77.0	0.288713003	0.271212083	0.002739756	0.028265559	0.008711720
2020-08-03T01:15:00	0.1351	15.067	76.0	0.288711166	0.271208730	0.002739711	0.028265089	0.008711575
2020-08-03T01:20:00	0.1355	15.060	77.0	0.289530556	0.272706330	0.002760049	0.028474917	0.008776246
2020-08-03T01:25:00	0.1354	15.063	74.0	0.289323424	0.272327355	0.002754899	0.028421782	0.008759869
2020-08-03T01:30:00	0.1354	15.044	73.0	0.289321587	0.272323995	0.002754853	0.028421312	0.008759724
2020-08-03T01:35:00	0.1351	15.038	73.0	0.288703817	0.271195317	0.002739529	0.028263212	0.008710996
2020-08-03T01:40:00	0.1349	15.022	78.0	0.288291317	0.270443013	0.002729326	0.028157956	0.008678555
2020-08-03T01:45:00	0.1355	15.015	73.0	0.289521372	0.272689520	0.002759821	0.028472560	0.008775519
2020-08-03T01:50:00	0.1355	15.020	77.0	0.289519535	0.272686158	0.002759775	0.028472088	0.008775374
2020-08-03T01:55:00	0.1359	15.012	77.0	0.290338801	0.274187706	0.002780204	0.028682853	0.008840334
2020-08-03T02:00:00	0.1355	15.001	76.0	0.289515861	0.272679434	0.002759683	0.028471145	0.008775083
2020-08-03T02:05:00	0.1356	14.988	80.0	0.289719312	0.273051919	0.002764748	0.028523392	0.008791187
2020-08-03T02:10:00	0.1357	14.989	81.0	0.289922755	0.273424649	0.002769818	0.028575698	0.008807308
2020-08-03T02:15:00	0.1357	14.973	81.0	0.289920918	0.273421283	0.002769772	0.028575225	0.008807162
2020-08-03T02:20:00	0.1358	14.960	87.0	0.290124353	0.273794259	0.002774847	0.028627589	0.008823301
2020-08-03T02:25:00	0.1352	14.961	87.0	0.288890765	0.271536621	0.002744160	0.028310997	0.008725724
2020-08-03T02:30:00	0.1350	14.948	87.0	0.288478280	0.270783857	0.002733947	0.028205632	0.008693250
2020-08-03T02:35:00	0.1353	14.945	86.0	0.289092403	0.271904990	0.002749162	0.028362594	0.008741627
2020-08-03T02:40:00	0.1350	14.939	86.0	0.288474605	0.270777156	0.002733857	0.028204694	0.008692961
2020-08-03T02:45:00	0.1354	14.930	86.0	0.289294033	0.272273601	0.002754168	0.028414248	0.008757547
2020-08-03T02:50:00	0.1360	14.925	87.0	0.290523855	0.274527458	0.002784832	0.028730596	0.008855049
2020-08-03T02:55:00	0.1354	14.915	86.0	0.289290359	0.272266882	0.002754077	0.028413306	0.008757257
2020-08-03T03:00:00	0.1351	14.915	87.0	0.288672585	0.271138319	0.002738755	0.028255234	0.008708537
2020-08-03T03:05:00	0.1345	14.907	86.0	0.287438657	0.268891354	0.002708313	0.027941171	0.008611740
2020-08-03T03:10:00	0.1338	14.901	87.0	0.285999011	0.266281911	0.002673068	0.027577549	0.008499668
2020-08-03T03:15:00	0.1345	14.896	87.0	0.287434981	0.268884676	0.002708223	0.027940239	0.008611453
2020-08-03T03:20:00	0.1348	14.885	88.0	0.288049226	0.270001993	0.002723350	0.028096297	0.008659552
2020-08-03T03:25:00	0.1347	14.883	87.0	0.287842036	0.269624846	0.002718241	0.028043596	0.008643309
2020-08-03T03:30:00	0.1345	14.869	86.0	0.287429469	0.268874659	0.002708088	0.027938841	0.008611022
2020-08-03T03:35:00	0.1353	14.865	87.0	0.289070358	0.271864704	0.002748615	0.028356950	0.008739887
2020-08-03T03:40:00	0.1353	14.861	87.0	0.289068521	0.271861347	0.002748569	0.028356479	0.008739742
2020-08-03T03:45:00	0.1358	14.860	88.0	0.290093129	0.273736996	0.002774068	0.028619548	0.008820823
2020-08-03T03:50:00	0.1361	14.851	87.0	0.290707066	0.274864039	0.002789418	0.028777913	0.008869632
2020-08-03T03:55:00	0.1365	14.846	88.0	0.291526150	0.276371385	0.002809981	0.028990057	0.008935017
2020-08-03T04:00:00	0.1362	14.850	87.0	0.290908635	0.275234590	0.002794470	0.028830028	0.008885695
2020-08-03T04:05:00	0.1360	14.838	89.0	0.290556262	0.274586978	0.002785643	0.028738962	0.008857627
2020-08-03T04:10:00	0.1363	14.835	92.0	0.291230093	0.275826068	0.002802538	0.028913264	0.008911349
2020-08-03T04:15:00	0.1360	14.823	87.0	0.290467247	0.274423504	0.002783416	0.028715986	0.008850546
2020-08-03T04:20:00	0.1366	14.823	92.0	0.291756742	0.276796501	0.002815787	0.029049958	0.008953479
2020-08-03T04:25:00	0.1369	14.814	99.0	0.292430424	0.278040415	0.002832794	0.029225410	0.009007555
2020-08-03T04:30:00	0.1367	14.816	96.0	0.291872952	0.277010872	0.002818716	0.029080176	0.008962793
2020-08-03T04:35:00	0.1366	14.806	96.0	0.291725853	0.276739535	0.002815009	0.029041929	0.008951005
2020-08-03T04:40:00	0.1363	14.810	98.0	0.291168309	0.275712335	0.002800986	0.028897254	0.008906414
2020-08-03T04:45:00	0.1376	14.807	98.0	0.293893706	0.280752137	0.002869956	0.029608807	0.009125722
2020-08-03T04:50:00	0.1375	14.800	112.0	0.293541526	0.280098251	0.002860984	0.029516243	0.009097193
2020-08-03T04:55:00	0.1385	14.795	108.0	0.295650603	0.284025812	0.002914980	0.030073315	0.009268888
2020-08-03T05:00:00	0.1389	14.793	109.0	0.296528846	0.285669562	0.002937654	0.030307230	0.009340983
2020-08-03T05:05:00	0.1389	14.791	109.0	0.296586901	0.285778392	0.002939156	0.030322733	0.009345761
2020-08-03T05:10:00	0.1386	14.789	109.0	0.295824795	0.284351449	0.002919469	0.030119619	0.009283159
2020-08-03T05:15:00	0.1388	14.787	109.0	0.296292949	0.285227571	0.002931553	0.030244288	0.009321583
2020-08-03T05:20:00	0.1386	14.789	109.0	0.295940920	0.284568641	0.002922463	0.030150512	0.009292681
2020-08-03T05:25:00	0.1390	14.784	111.0	0.296614094	0.285829375	0.002939860	0.030329997	0.009347999
2020-08-03T05:30:00	0.1387	14.798	115.0	0.296057042	0.284785913	0.002925459	0.030181425	0.009302208
2020-08-03T05:35:00	0.1386	14.786	111.0	0.295910054	0.284510903	0.002921667	0.030142299	0.009290149
2020-08-03T05:40:00	0.1388	14.780	111.0	0.296378201	0.285387264	0.002933757	0.030267025	0.009328591
2020-08-03T05:45:00	0.1396	14.786	111.0	0.297871307	0.288191560	0.002972526	0.030667004	0.009451868
2020-08-03T05:50:00	0.1398	14.785	116.0	0.298339293	0.289073406	0.002984744	0.030793053	0.009490718
2020-08-03T05:55:00	0.1404	14.787	117.0	0.299626976	0.291506971	0.003018526	0.031141572	0.009598135
2020-08-03T06:00:00	0.1412	14.784	118.0	0.301119246	0.294340260	0.003057975	0.031548568	0.009723575
2020-08-03T06:05:00	0.1419	14.793	116.0	0.302611139	0.297186871	0.003097739	0.031958806	0.009850014
2020-08-03T06:10:00	0.1426	14.781	120.0	0.304102662	0.300046806	0.003137818	0.032372293	0.009977455
2020-08-03T06:15:00	0.1431	14.784	131.0	0.305184374	0.302129722	0.003167089	0.032674275	0.010070529
2020-08-03T06:20:00	0.1442	14.773	141.0	0.307289277	0.306204020	0.003224540	0.033266987	0.010253209
2020-08-03T06:25:00	0.1449	14.763	160.0	0.308779669	0.309105752	0.003265614	0.033690738	0.010383813
2020-08-03T06:30:00	0.1454	14.761	167.0	0.309860570	0.311218989	0.003295608	0.034000185	0.010479187
2020-08-03T06:35:00	0.1462	14.751	172.0	0.311350360	0.314143708	0.003337233	0.034429622	0.010611544
2020-08-03T06:40:00	0.1472	14.749	172.0	0.313453228	0.318295832	0.003396551	0.035041587	0.010800157
2020-08-03T06:45:00	0.1475	14.746	174.0	0.314124480	0.319627095	0.003415624	0.035238365	0.010860806
2020-08-03T06:50:00	0.1476	14.745	175.0	0.314386807	0.320148129	0.003423097	0.035315456	0.010884567
2020-08-03T06:55:00	0.1475	14.749	176.0	0.314035816	0.319451089	0.003413101	0.035212333	0.010852783
2020-08-03T07:00:00	0.1477	14.747	178.0	0.314502581	0.320378217	0.003426398	0.035349513	0.010895063
2020-08-03T07:05:00	0.1470	14.751	180.0	0.313129306	0.317654430	0.003387371	0.034946877	0.010770967
2020-08-03T07:10:00	0.1471	14.751	180.0	0.313187205	0.317769026	0.003389010	0.034963794	0.010776181
2020-08-03T07:15:00	0.1468	14.748	177.0	0.312631664	0.316670328	0.003373298	0.034801689	0.010726219
2020-08-03T07:20:00	0.1468	14.744	183.0	0.312689566	0.316784752	0.003374933	0.034818563	0.010731419
2020-08-03T07:25:00	0.1471	14.739	179.0	0.313360896	0.318112936	0.003393932	0.035014574	0.010791832
2020-08-03T07:30:00	0.1467	14.746	179.0	0.312396389	0.316205611	0.003366657	0.034733181	0.010705104
2020-08-03T07:35:00	0.1456	14.747	179.0	0.310204464	0.311892871	0.003305188	0.034099011	0.010509647
2020-08-03T07:40:00	0.1451	14.750	183.0	0.309239488	0.310003831	0.003278353	0.033822160	0.010424318
2020-08-03T07:45:00	0.1449	14.748	179.0	0.308683608	0.308918304	0.003262957	0.033663324	0.010375363
2020-08-03T07:50:00	0.1453	14.744	179.0	0.309559943	0.310630502	0.003287249	0.033913940	0.010452606
2020-08-03T07:55:00	0.1454	14.739	179.0	0.309822454	0.311144343	0.003294548	0.033989242	0.010475815
2020-08-03T08:00:00	0.1450	14.740	179.0	0.309062025	0.309657068	0.003273433	0.033771401	0.010408674
2020-08-03T08:05:00	0.1453	14.734	179.0	0.309529147	0.310570251	0.003286393	0.033905113	0.010449885
2020-08-03T08:10:00	0.1457	14.732	179.0	0.310405366	0.312286895	0.003310792	0.034156829	0.010527467
2020-08-03T08:15:00	0.1464	14.732	180.0	0.311895031	0.315216486	0.003352534	0.034587476	0.010660196
2020-08-03T08:20:00	0.1473	14.727	159.0	0.313588818	0.318564512	0.003400398	0.035081279	0.010812391
2020-08-03T08:25:00	0.1475	14.724	158.0	0.314055614	0.319490386	0.003413664	0.035218145	0.010854574
2020-08-03T08:30:00	0.1482	14.724	161.0	0.315544453	0.322452629	0.003456195	0.035656929	0.010989812
2020-08-03T08:35:00	0.1480	14.716	157.0	0.315193522	0.321753146	0.003446140	0.035553195	0.010957840
2020-08-03T08:40:00	0.1482	14.708	157.0	0.315455807	0.322275865	0.003453654	0.035630708	0.010981730
2020-08-03T08:45:00	0.1477	14.701	156.0	0.314491605	0.320356401	0.003426085	0.035346284	0.010894068
2020-08-03T08:50:00	0.1479	14.693	160.0	0.314958339	0.321284808	0.003439412	0.035483783	0.010936446
2020-08-03T08:55:00	0.1481	14.685	160.0	0.315220633	0.321807157	0.003446917	0.035561202	0.010960308
2020-08-03T09:00:00	0.1488	14.677	160.0	0.316709214	0.324779824	0.003489700	0.036002596	0.011096350
2020-08-03T09:05:00	0.1490	14.666	153.0	0.317273547	0.325714383	0.003503898	0.036149072	0.011141495
2020-08-03T09:10:00	0.1486	14.656	158.0	0.316416214	0.324193604	0.003481253	0.035915444	0.011069489
2020-08-03T09:15:00	0.1487	14.647	158.0	0.316474083	0.324309343	0.003482920	0.035932647	0.011074791
2020-08-03T09:20:00	0.1485	14.639	158.0	0.316123201	0.323607899	0.003472818	0.035828421	0.011042667
2020-08-03T09:25:00	0.1484	14.631	158.0	0.315976690	0.323315241	0.003468605	0.035784959	0.011029272
2020-08-03T09:30:00	0.1484	14.624	158.0	0.316034563	0.323430827	0.003470269	0.035802123	0.011034562
2020-08-03T09:35:00	0.1491	14.617	157.0	0.317479723	0.326000644	0.003508497	0.036196516	0.011156118
2020-08-03T09:40:00	0.1494	14.612	158.0	0.318447768	0.327346155	0.003530135	0.036419756	0.011224922
2020-08-03T09:45:00	0.1497	14.603	158.0	0.319415110	0.328693080	0.003551835	0.036643632	0.011293923
2020-08-03T09:50:00	0.1495	14.601	157.0	0.318614676	0.327578387	0.003533874	0.036458327	0.011236810
2020-08-03T09:55:00	0.1501	14.595	158.0	0.320465088	0.330157773	0.003575477	0.036887537	0.011369097
2020-08-03T10:00:00	0.1505	14.587	155.0	0.321725027	0.331919079	0.003603967	0.037181459	0.011459687
2020-08-03T10:05:00	0.1504	14.581	155.0	0.321425709	0.331500286	0.003597187	0.037111510	0.011438128
2020-08-03T10:10:00	0.1501	14.579	161.0	0.320537886	0.330259429	0.003577119	0.036904482	0.011374320
2020-08-03T10:15:00	0.1503	14.575	161.0	0.321121060	0.331074269	0.003590293	0.037040394	0.011416209
2020-08-03T10:20:00	0.1505	14.570	161.0	0.321703980	0.331889624	0.003603490	0.037176538	0.011458170
2020-08-03T10:25:00	0.1509	14.563	165.0	0.322874317	0.333529253	0.003630069	0.037450755	0.011542686
2020-08-03T10:30:00	0.1509	14.558	165.0	0.322869060	0.333521880	0.003629950	0.037449521	0.011542306
2020-08-03T10:35:00	0.1512	14.552	161.0	0.323744835	0.334751115	0.003649914	0.037655485	0.011605786
2020-08-03T10:40:00	0.1517	14.547	163.0	0.325206693	0.336807361	0.003683380	0.038000753	0.011712201
2020-08-03T10:45:00	0.1522	14.540	175.0	0.326666969	0.338866862	0.003716989	0.038347486	0.011819068
2020-08-03T10:50:00	0.1523	14.536	183.0	0.326954642	0.339273228	0.003723630	0.038416009	0.011840187
2020-08-03T10:55:00	0.1518	14.532	180.0	0.325484183	0.337198297	0.003689753	0.038066500	0.011732465
2020-08-03T11:00:00	0.1523	14.528	185.0	0.326944159	0.339258417	0.003723388	0.038413511	0.011839417
2020-08-03T11:05:00	0.1528	14.521	170.0	0.328402563	0.341321792	0.003757166	0.038761986	0.011946821
2020-08-03T11:10:00	0.1528	14.516	175.0	0.328397327	0.341314374	0.003757044	0.038760732	0.011946434
2020-08-03T11:15:00	0.1530	14.511	171.0	0.328977112	0.342136178	0.003770522	0.038899776	0.011989289
2020-08-03T11:20:00	0.1532	14.507	175.0	0.329556649	0.342958497	0.003784021	0.039039052	0.012032215
2020-08-03T11:25:00	0.1524	14.507	175.0	0.327210812	0.339635273	0.003729551	0.038477088	0.011859012
2020-08-03T11:30:00	0.1531	14.508	174.0	0.329253830	0.342528713	0.003776964	0.038966242	0.012009774
2020-08-03T11:35:00	0.1527	14.506	170.0	0.328078539	0.340862884	0.003749646	0.038684404	0.011922909
2020-08-03T11:40:00	0.1525	14.503	173.0	0.327487891	0.340027058	0.003735961	0.038543216	0.011879394
2020-08-03T11:45:00	0.1526	14.500	162.0	0.327775390	0.340433785	0.003742618	0.038611902	0.011900563
2020-08-03T11:50:00	0.1527	14.500	167.0	0.328062828	0.340840639	0.003749281	0.038680644	0.011921750
2020-08-03T11:55:00	0.1530	14.498	167.0	0.328935243	0.342076803	0.003769547	0.038889725	0.011986191
2020-08-03T12:00:00	0.1522	14.502	167.0	0.326588330	0.338755814	0.003715174	0.038328767	0.011813298
2020-08-03T12:05:00	0.1522	14.504	167.0	0.326583087	0.338748411	0.003715053	0.038327519	0.011812914
2020-08-03T12:10:00	0.1517	14.502	167.0	0.325112224	0.336674315	0.003681212	0.037978385	0.011705307
2020-08-03T12:15:00	0.1518	14.499	158.0	0.325400228	0.337079998	0.003687824	0.038046601	0.011726332
2020-08-03T12:20:00	0.1526	14.498	170.0	0.327738722	0.340381900	0.003741769	0.038603138	0.011897862
2020-08-03T12:25:00	0.1528	14.493	170.0	0.328318789	0.341203118	0.003755221	0.038741919	0.011940636
2020-08-03T12:30:00	0.1527	14.490	170.0	0.328020931	0.340781323	0.003748310	0.038670620	0.011918661
2020-08-03T12:35:00	0.1516	14.486	170.0	0.324792660	0.336224427	0.003673883	0.037902778	0.011682004
2020-08-03T12:40:00	0.1506	14.484	168.0	0.321850669	0.332094942	0.003606815	0.037210844	0.011468743
2020-08-03T12:45:00	0.1517	14.478	168.0	0.325075484	0.336622578	0.003680369	0.037969688	0.011702627
2020-08-03T12:50:00	0.1522	14.474	168.0	0.326535902	0.338681787	0.003713965	0.038316290	0.011809453
2020-08-03T12:55:00	0.1525	14.470	168.0	0.327409300	0.339915911	0.003734142	0.038524453	0.011873611
2020-08-03T13:00:00	0.1522	14.466	168.0	0.326525416	0.338666982	0.003713723	0.038313794	0.011808684
2020-08-03T13:05:00	0.1525	14.463	168.0	0.327398821	0.339901092	0.003733899	0.038521951	0.011872840
2020-08-03T13:10:00	0.1522	14.464	173.0	0.326514930	0.338652178	0.003713481	0.038311299	0.011807915
2020-08-03T13:15:00	0.1521	14.465	168.0	0.326509687	0.338644775	0.003713360	0.038310052	0.011807530
2020-08-03T13:20:00	0.1517	14.466	168.0	0.325332010	0.336983887	0.003686257	0.038030437	0.011721350
2020-08-03T13:25:00	0.1521	14.469	169.0	0.326499201	0.338629971	0.003713118	0.038307557	0.011806761
2020-08-03T13:30:00	0.1526	14.470	176.0	0.327958083	0.340692354	0.003746852	0.038655586	0.011914027
2020-08-03T13:35:00	0.1525	14.473	161.0	0.327660146	0.340270723	0.003739949	0.038584361	0.011892075
2020-08-03T13:40:00	0.1514	14.476	156.0	0.324431013	0.335715608	0.003665600	0.037817320	0.011655665
2020-08-03T13:45:00	0.1507	14.478	167.0	0.322370163	0.332822509	0.003618605	0.037332485	0.011506234
2020-08-03T13:50:00	0.1503	14.478	163.0	0.321188858	0.331169056	0.003591827	0.037056214	0.011421085
2020-08-03T13:55:00	0.1503	14.475	189.0	0.321183594	0.331161697	0.003591708	0.037054985	0.011420706
2020-08-03T14:00:00	0.1513	14.477	189.0	0.324116540	0.335273435	0.003658406	0.037743101	0.011632790
2020-08-03T14:05:00	0.1513	14.479	184.0	0.324111287	0.335266051	0.003658286	0.037741863	0.011632409
2020-08-03T14:10:00	0.1522	14.481	188.0	0.326744973	0.338977029	0.003718789	0.038366059	0.011824792
2020-08-03T14:15:00	0.1530	14.482	189.0	0.329081149	0.342283735	0.003772943	0.038924757	0.011996988
2020-08-03T14:20:00	0.1528	14.482	189.0	0.328490938	0.341447002	0.003759218	0.038783162	0.011953347
2020-08-03T14:25:00	0.1530	14.483	189.0	0.329070683	0.342268889	0.003772699	0.038922244	0.011996213
2020-08-03T14:30:00	0.1543	14.481	189.0	0.332861722	0.347664708	0.003861551	0.039838914	0.012278740
2020-08-03T14:35:00	0.1551	14.488	190.0	0.335187452	0.350993326	0.003916661	0.040407471	0.012453975
2020-08-03T14:40:00	0.1524	14.508	185.0	0.327299265	0.339760322	0.003731596	0.038498191	0.011865516
2020-08-03T14:45:00	0.1518	14.520	189.0	0.325536021	0.337271350	0.003690944	0.038078789	0.011736253
2020-08-03T14:50:00	0.1515	14.535	185.0	0.324650910	0.336024952	0.003670635	0.037869269	0.011671677
2020-08-03T14:55:00	0.1509	14.547	189.0	0.322884200	0.333543113	0.003630294	0.037453075	0.011543402
2020-08-03T15:00:00	0.1503	14.565	192.0	0.321115163	0.331066025	0.003590160	0.037039018	0.011415785
2020-08-03T15:05:00	0.1494	14.588	187.0	0.318459853	0.327362967	0.003530406	0.036422548	0.011225783
2020-08-03T15:10:00	0.1495	14.600	191.0	0.318749289	0.327765735	0.003536891	0.036489452	0.011246404
2020-08-03T15:15:00	0.1496	14.605	191.0	0.319038662	0.328168630	0.003543382	0.036556414	0.011267042
2020-08-03T15:20:00	0.1498	14.606	191.0	0.319622490	0.328982146	0.003556498	0.036691731	0.011308748
2020-08-03T15:25:00	0.1486	14.605	191.0	0.316348436	0.324058075	0.003479301	0.035895303	0.011063281
2020-08-03T15:30:00	0.1483	14.609	191.0	0.315731625	0.322826023	0.003461566	0.035712334	0.011006888
2020-08-03T15:35:00	0.1477	14.614	191.0	0.314501492	0.320376054	0.003426367	0.035349193	0.010894965
2020-08-03T15:40:00	0.1474	14.623	191.0	0.313884512	0.319150851	0.003408798	0.035167938	0.010839100
2020-08-03T15:45:00	0.1487	14.633	191.0	0.316538179	0.324437560	0.003484768	0.035951706	0.011080665
2020-08-03T15:50:00	0.1509	14.637	191.0	0.322826370	0.333462010	0.003628978	0.037439497	0.011539217
2020-08-03T15:55:00	0.1502	14.636	187.0	0.320763054	0.330573942	0.003582203	0.036956925	0.011390483
2020-08-03T16:00:00	0.1501	14.641	186.0	0.320463521	0.330155585	0.003575442	0.036887172	0.011368985
2020-08-03T16:05:00	0.1494	14.644	186.0	0.318571382	0.327518142	0.003532904	0.036448320	0.011233726
2020-08-03T16:10:00	0.1485	14.649	191.0	0.316149220	0.323659887	0.003473566	0.035836144	0.011045047
2020-08-03T16:15:00	0.1499	14.652	191.0	0.319794054	0.329221372	0.003560357	0.036731550	0.011321020
2020-08-03T16:20:00	0.1506	14.644	186.0	0.322022713	0.332335818	0.003610717	0.037251103	0.011481152
2020-08-03T16:25:00	0.1500	14.646	186.0	0.320132780	0.329693907	0.003567985	0.036810241	0.011345274
2020-08-03T16:30:00	0.1490	14.648	191.0	0.317355507	0.325828165	0.003505726	0.036167928	0.011147307
2020-08-03T16:35:00	0.1484	14.654	190.0	0.315919557	0.323201153	0.003466963	0.035768019	0.011024051
2020-08-03T16:40:00	0.1487	14.656	190.0	0.316445889	0.324252952	0.003482108	0.035924265	0.011072207
2020-08-03T16:45:00	0.1485	14.657	190.0	0.316154706	0.323670850	0.003473724	0.035837772	0.011045549
2020-08-03T16:50:00	0.1474	14.656	190.0	0.313819302	0.319021498	0.003406944	0.035148816	0.010833206
2020-08-03T16:55:00	0.1471	14.656	191.0	0.313323541	0.318038957	0.003392873	0.035003649	0.010788464
2020-08-03T17:00:00	0.1484	14.650	190.0	0.315894277	0.323150680	0.003466237	0.035760525	0.011021741
2020-08-03T17:05:00	0.1495	14.645	190.0	0.318837533	0.327888574	0.003538870	0.036509865	0.011252695
2020-08-03T17:10:00	0.1492	14.646	184.0	0.317828023	0.326484479	0.003516273	0.036276745	0.011180845
2020-08-03T17:15:00	0.1495	14.641	184.0	0.318587205	0.327540159	0.003533259	0.036451977	0.011234853
2020-08-03T17:20:00	0.1490	14.642	184.0	0.317282535	0.325726860	0.003504099	0.036151140	0.011142132
2020-08-03T17:25:00	0.1495	14.643	184.0	0.318631566	0.327601891	0.003534252	0.036462231	0.011238014
2020-08-03T17:30:00	0.1501	14.640	189.0	0.320567917	0.330301369	0.003577797	0.036911474	0.011376475
2020-08-03T17:35:00	0.1506	14.638	184.0	0.321913636	0.332183091	0.003608243	0.037225575	0.011473284
2020-08-03T17:40:00	0.1492	14.635	184.0	0.317961179	0.326669533	0.003519249	0.036307444	0.011190307
2020-08-03T17:45:00	0.1488	14.628	184.0	0.316748031	0.324857529	0.003490821	0.036014152	0.011099912
2020-08-03T17:50:00	0.1480	14.621	184.0	0.315026107	0.321419724	0.003441350	0.035503775	0.010942608
2020-08-03T17:55:00	0.1473	14.618	184.0	0.313712664	0.318810022	0.003403914	0.035117558	0.010823573
2020-08-03T18:00:00	0.1467	14.617	184.0	0.312398960	0.316210688	0.003366730	0.034733929	0.010705334
2020-08-03T18:05:00	0.1466	14.612	184.0	0.312312103	0.316039212	0.003364280	0.034708658	0.010697546
2020-08-03T18:10:00	0.1467	14.605	184.0	0.312429742	0.316271470	0.003367598	0.034742887	0.010708095
2020-08-03T18:15:00	0.1469	14.600	184.0	0.312956350	0.317312228	0.003382475	0.034896374	0.010755401
2020-08-03T18:20:00	0.1477	14.591	184.0	0.314505151	0.320383326	0.003426471	0.035350269	0.010895296
2020-08-03T18:25:00	0.1460	14.583	184.0	0.310942030	0.313340692	0.003325792	0.034311581	0.010575163
2020-08-03T18:30:00	0.1460	14.572	184.0	0.311059695	0.313571982	0.003329086	0.034345570	0.010585638
2020-08-03T18:35:00	0.1469	14.563	184.0	0.312813429	0.317029593	0.003378433	0.034854675	0.010742549
2020-08-03T18:40:00	0.1471	14.551	184.0	0.313340007	0.318071565	0.003393340	0.035008464	0.010789949
2020-08-03T18:45:00	0.1477	14.541	184.0	0.314479866	0.320333067	0.003425750	0.035342829	0.010893003
2020-08-03T18:50:00	0.1481	14.532	184.0	0.315415130	0.322194770	0.003452488	0.035618679	0.010978023
2020-08-03T18:55:00	0.1479	14.523	184.0	0.314919488	0.321207475	0.003438302	0.035472324	0.010932915
2020-08-03T19:00:00	0.1479	14.514	184.0	0.314832663	0.321034685	0.003435820	0.035446726	0.010925025
2020-08-03T19:05:00	0.1476	14.503	184.0	0.314336977	0.320049125	0.003421676	0.035300805	0.010880051
2020-08-03T19:10:00	0.1478	14.490	184.0	0.314659011	0.320689239	0.003430861	0.035395562	0.010909256
2020-08-03T19:15:00	0.1479	14.477	184.0	0.314981028	0.321329977	0.003440061	0.035490476	0.010938509
2020-08-03T19:20:00	0.1485	14.463	184.0	0.316120608	0.323602719	0.003472743	0.035827652	0.011042430
2020-08-03T19:25:00	0.1484	14.449	184.0	0.316033799	0.323429301	0.003470247	0.035801896	0.011034492
2020-08-03T19:30:00	0.1490	14.436	184.0	0.317269804	0.325709188	0.003503815	0.036148212	0.011141230
2020-08-03T19:35:00	0.1501	14.423	184.0	0.320385919	0.330047236	0.003573691	0.036869113	0.011363419
2020-08-03T19:40:00	0.1507	14.410	183.0	0.322319734	0.332751851	0.003617460	0.037320666	0.011502592
2020-08-03T19:45:00	0.1514	14.398	184.0	0.324250767	0.335462138	0.003661476	0.037774770	0.011642551
2020-08-03T19:50:00	0.1502	14.385	183.0	0.320893752	0.330756559	0.003585155	0.036987384	0.011399871
2020-08-03T19:55:00	0.1499	14.370	183.0	0.319885797	0.329349327	0.003562422	0.036752854	0.011327586
2020-08-03T20:00:00	0.1509	14.357	183.0	0.322702050	0.333287688	0.003626150	0.037410318	0.011530223
2020-08-03T20:05:00	0.1517	14.342	183.0	0.325219182	0.336824952	0.003683667	0.038003711	0.011713113
2020-08-03T20:10:00	0.1526	14.329	183.0	0.327731627	0.340371860	0.003741604	0.038601442	0.011897339
2020-08-03T20:15:00	0.1527	14.318	188.0	0.328192654	0.341024471	0.003752293	0.038711716	0.011931327
2020-08-03T20:20:00	0.1529	14.306	183.0	0.328653523	0.341677407	0.003762996	0.038822137	0.011965360
2020-08-03T20:25:00	0.1530	14.293	183.0	0.329114236	0.342330669	0.003773713	0.038932704	0.011999437
2020-08-03T20:30:00	0.1533	14.284	183.0	0.329867081	0.343399332	0.003791264	0.039113776	0.012055246
2020-08-03T20:35:00	0.1531	14.273	183.0	0.329158252	0.342393109	0.003774738	0.038943277	0.012002696
2020-08-03T20:40:00	0.1527	14.263	183.0	0.328156461	0.340973219	0.003751453	0.038703053	0.011928657
2020-08-03T20:45:00	0.1519	14.251	183.0	0.325688934	0.337486884	0.003694459	0.038115055	0.011747430
2020-08-03T20:50:00	0.1515	14.240	183.0	0.324684571	0.336072316	0.003671407	0.037877225	0.011674129
2020-08-03T20:55:00	0.1505	14.229	183.0	0.321622719	0.331775909	0.003601648	0.037157542	0.011452315
2020-08-03T21:00:00	0.1492	14.218	183.0	0.317964285	0.326673850	0.003519318	0.036308160	0.011190528
2020-08-03T21:05:00	0.1483	14.207	183.0	0.315728292	0.322819371	0.003461470	0.035711347	0.011006584
2020-08-03T21:10:00	0.1488	14.194	183.0	0.316663383	0.324688092	0.003488378	0.035988955	0.011092145
2020-08-03T21:15:00	0.1488	14.183	183.0	0.316780946	0.324923425	0.003491771	0.036023953	0.011102932
2020-08-03T21:20:00	0.1481	14.172	183.0	0.315263441	0.321892448	0.003448142	0.035573848	0.010964205
2020-08-03T21:25:00	0.1475	14.159	183.0	0.314154490	0.319686679	0.003416479	0.035247179	0.010863523
2020-08-03T21:30:00	0.1474	14.147	183.0	0.313863207	0.319108588	0.003408192	0.035161690	0.010837174
2020-08-03T21:35:00	0.1484	14.135	182.0	0.316024979	0.323411685	0.003469993	0.035799280	0.011033686
2020-08-03T21:40:00	0.1493	14.123	182.0	0.318141805	0.326920630	0.003523288	0.036349112	0.011203149
2020-08-03T21:45:00	0.1500	14.112	182.0	0.320078866	0.329618675	0.003566770	0.036797710	0.011341411
2020-08-03T21:50:00	0.1497	14.100	183.0	0.319364870	0.328623066	0.003550707	0.036631985	0.011290333
2020-08-03T21:55:00	0.1494	14.087	182.0	0.318355760	0.327218167	0.003528075	0.036398503	0.011218372
2020-08-03T22:00:00	0.1487	14.074	182.0	0.316612829	0.324586923	0.003486920	0.035973912	0.011087509
2020-08-03T22:05:00	0.1483	14.063	182.0	0.315741094	0.322844918	0.003461837	0.035715139	0.011007753
2020-08-03T22:10:00	0.1483	14.053	187.0	0.315686876	0.322736731	0.003460281	0.035699083	0.011002804
2020-08-03T22:15:00	0.1476	14.043	182.0	0.314201727	0.319780479	0.003417824	0.035261055	0.010867800
2020-08-03T22:20:00	0.1473	14.031	182.0	0.313738600	0.318861450	0.003404651	0.035125159	0.010825915
2020-08-03T22:25:00	0.1471	14.017	182.0	0.313275440	0.317943709	0.003391510	0.034989584	0.010784130
2020-08-03T22:30:00	0.1467	14.008	182.0	0.312403268	0.316219194	0.003366851	0.034735183	0.010705721
2020-08-03T22:35:00	0.1457	13.996	182.0	0.310508282	0.312488840	0.003313665	0.034186472	0.010536603
2020-08-03T22:40:00	0.1462	13.985	182.0	0.311476728	0.314392433	0.003340779	0.034466205	0.010622819
2020-08-03T22:45:00	0.1454	13.971	182.0	0.309786052	0.311073064	0.003293535	0.033978794	0.010472594
2020-08-03T22:50:00	0.1444	13.957	182.0	0.307685649	0.306974373	0.003235432	0.033379354	0.010287841
2020-08-03T22:55:00	0.1434	13.942	182.0	0.305789256	0.303297685	0.003183532	0.032843913	0.010122813
2020-08-03T23:00:00	0.1435	13.931	186.0	0.305939662	0.303588460	0.003187629	0.032886180	0.010135840
2020-08-03T23:05:00	0.1434	13.920	186.0	0.305680652	0.303087812	0.003180576	0.032813414	0.010113413
2020-08-03T23:10:00	0.1441	13.909	182.0	0.307059184	0.305757287	0.003218228	0.033201868	0.010233138
2020-08-03T23:15:00	0.1440	13.897	186.0	0.307004894	0.305651929	0.003216740	0.033186515	0.010228406
2020-08-03T23:20:00	0.1437	13.888	182.0	0.306336560	0.304356458	0.003198456	0.032997881	0.010170267
2020-08-03T23:25:00	0.1437	13.881	182.0	0.306282263	0.304251335	0.003196973	0.032982586	0.010165553
2020-08-03T23:30:00	0.1433	13.873	186.0	0.305409133	0.302563439	0.003173193	0.032737243	0.010089936
2020-08-03T23:35:00	0.1427	13.863	182.0	0.304331125	0.300486115	0.003143986	0.032435926	0.009997067
2020-08-03T23:40:00	0.1432	13.855	186.0	0.305300522	0.302353814	0.003170242	0.032706806	0.010080555
2020-08-03T23:45:00	0.1430	13.847	181.0	0.304836748	0.301459540	0.003157664	0.032577035	0.010040559
2020-08-03T23:50:00	0.1426	13.840	182.0	0.304168180	0.300172756	0.003139586	0.032390534	0.009983077
2020-08-03T23:55:00	0.1427	13.831	181.0	0.304318625	0.300462070	0.003143649	0.032432442	0.009995994
2020-08-04T00:00:00	0.1424	13.826	181.0	0.303649999	0.299177361	0.003125620	0.032246449	0.009938669
2020-08-04T00:05:00	0.1420	13.823	181.0	0.302776493	0.297503239	0.003102167	0.032004480	0.009864092
2020-08-04T00:10:00	0.1419	13.818	181.0	0.302722164	0.297399274	0.003100711	0.031989469	0.009859465
2020-08-04T00:15:00	0.1419	13.811	182.0	0.302667835	0.297295327	0.003099257	0.031974462	0.009854840
2020-08-04T00:20:00	0.1420	13.808	181.0	0.302818318	0.297583289	0.003103287	0.032016040	0.009867654
2020-08-04T00:25:00	0.1427	13.805	181.0	0.304197494	0.300229118	0.003140378	0.032398697	0.009985593
2020-08-04T00:30:00	0.1422	13.801	181.0	0.303324067	0.298552132	0.003116856	0.032156028	0.009910800
2020-08-04T00:35:00	0.1424	13.797	182.0	0.303679317	0.299233633	0.003126409	0.032254590	0.009941178
2020-08-04T00:40:00	0.1417	13.794	182.0	0.302191355	0.296384482	0.003086518	0.031843036	0.009814333
2020-08-04T00:45:00	0.1410	13.792	181.0	0.300703023	0.293548588	0.003046940	0.031434713	0.009688484
2020-08-04T00:50:00	0.1406	13.788	181.0	0.300033992	0.292278357	0.003029253	0.031252249	0.009632247
2020-08-04T00:55:00	0.1397	13.785	182.0	0.298135184	0.288688624	0.002979411	0.030738038	0.009473762
2020-08-04T01:00:00	0.1390	13.782	181.0	0.296645815	0.285888853	0.002940682	0.030338471	0.009350611
2020-08-04T01:05:00	0.1385	13.779	181.0	0.295566200	0.283868096	0.002912807	0.030050895	0.009261978
2020-08-04T01:10:00	0.1380	13.774	182.0	0.294691477	0.282236234	0.002890346	0.029819164	0.009190556
2020-08-04T01:15:00	0.1378	13.770	182.0	0.294226860	0.281371417	0.002878460	0.029696539	0.009152762
2020-08-04T01:20:00	0.1372	13.768	181.0	0.292941620	0.278986218	0.002845741	0.029358990	0.009048726
2020-08-04T01:25:00	0.1363	13.763	181.0	0.291245644	0.275854697	0.002802928	0.028917294	0.008912591
2020-08-04T01:30:00	0.1364	13.759	181.0	0.291396428	0.276132378	0.002806718	0.028956393	0.008924642
2020-08-04T01:35:00	0.1365	13.755	181.0	0.291547209	0.276410194	0.002810511	0.028995524	0.008936702
2020-08-04T01:40:00	0.1366	13.751	181.0	0.291697985	0.276688146	0.002814307	0.029034687	0.008948773
2020-08-04T01:45:00	0.1379	13.747	182.0	0.294515741	0.281908966	0.002885846	0.029772745	0.009176249
2020-08-04T01:50:00	0.1385	13.744	182.0	0.295691829	0.284102863	0.002916042	0.030084270	0.009272264
2020-08-04T01:55:00	0.1387	13.741	181.0	0.296047543	0.284768137	0.002925214	0.030178896	0.009301429
2020-08-04T02:00:00	0.1388	13.737	181.0	0.296198197	0.285050137	0.002929104	0.030219029	0.009313798
2020-08-04T02:05:00	0.1380	13.732	181.0	0.294708319	0.282267608	0.002890777	0.029823615	0.009191928
2020-08-04T02:10:00	0.1383	13.728	181.0	0.295269175	0.283313432	0.002905168	0.029972080	0.009237686
2020-08-04T02:15:00	0.1372	13.722	181.0	0.292958467	0.279017416	0.002846169	0.029363399	0.009050085
2020-08-04T02:20:00	0.1374	13.721	181.0	0.293314356	0.279676883	0.002855206	0.029456632	0.009078820
2020-08-04T02:25:00	0.1370	13.715	181.0	0.292644454	0.278436209	0.002838210	0.029281291	0.009024778
2020-08-04T02:30:00	0.1364	13.710	181.0	0.291358843	0.276063149	0.002805773	0.028946644	0.008921637
2020-08-04T02:35:00	0.1356	13.704	181.0	0.289662370	0.272947641	0.002763330	0.028508763	0.008786678
2020-08-04T02:40:00	0.1358	13.700	181.0	0.290223743	0.273976573	0.002777329	0.028653194	0.008831193
2020-08-04T02:45:00	0.1372	13.696	181.0	0.293042260	0.279172613	0.002848295	0.029385334	0.009056845
2020-08-04T02:50:00	0.1382	13.693	181.0	0.295039055	0.282884090	0.002899258	0.029911108	0.009218894
2020-08-04T02:55:00	0.1389	13.688	181.0	0.296420071	0.285465712	0.002934839	0.030278196	0.009332034
2020-08-04T03:00:00	0.1390	13.684	181.0	0.296775740	0.286132533	0.002944047	0.030373195	0.009361314
2020-08-04T03:05:00	0.1382	13.679	181.0	0.295080936	0.282962203	0.002900333	0.029922199	0.009222312
2020-08-04T03:10:00	0.1373	13.674	181.0	0.293180470	0.279428698	0.002851804	0.029421536	0.009068003
2020-08-04T03:15:00	0.1381	13.670	181.0	0.294767044	0.282377018	0.002892282	0.029839138	0.009196712
2020-08-04T03:20:00	0.1384	13.666	181.0	0.295532963	0.283806002	0.002911952	0.030042069	0.009259257
2020-08-04T03:25:00	0.1389	13.663	181.0	0.296503812	0.285622641	0.002937006	0.030300547	0.009338923
2020-08-04T03:30:00	0.1383	13.658	181.0	0.295219096	0.283219970	0.002903881	0.029958805	0.009233595
2020-08-04T03:35:00	0.1382	13.654	181.0	0.294959613	0.282735950	0.002897219	0.029890078	0.009212412
2020-08-04T03:40:00	0.1390	13.650	181.0	0.296750707	0.286085575	0.002943399	0.030366503	0.009359251
2020-08-04T03:45:00	0.1392	13.647	181.0	0.297106355	0.286753099	0.002952623	0.030461671	0.009388583
2020-08-04T03:50:00	0.1392	13.643	181.0	0.297051973	0.286650977	0.002951212	0.030447107	0.009384094
2020-08-04T03:55:00	0.1394	13.639	181.0	0.297612596	0.287704652	0.002965785	0.030597462	0.009430435
2020-08-04T04:00:00	0.1394	13.634	181.0	0.297558220	0.287602366	0.002964370	0.030582858	0.009425934
2020-08-04T04:05:00	0.1396	13.630	181.0	0.298002713	0.288439034	0.002975954	0.030702364	0.009462767
2020-08-04T04:10:00	0.1392	13.627	181.0	0.297012267	0.286576425	0.002950181	0.030436476	0.009380817
2020-08-04T04:15:00	0.1393	13.622	181.0	0.297251802	0.287026323	0.002956401	0.030500646	0.009400595
2020-08-04T04:20:00	0.1400	13.620	181.0	0.298721167	0.289794010	0.002994737	0.030896151	0.009522494
2020-08-04T04:25:00	0.1404	13.618	167.0	0.299575427	0.291409348	0.003017169	0.031127572	0.009593820
2020-08-04T04:30:00	0.1420	13.614	181.0	0.302887747	0.297716196	0.003105148	0.032035235	0.009873570
2020-08-04T04:35:00	0.1416	13.610	181.0	0.302102963	0.296215669	0.003084158	0.031818693	0.009806830
2020-08-04T04:40:00	0.1409	13.606	158.0	0.300498578	0.293160128	0.003041528	0.031378884	0.009671277
2020-08-04T04:45:00	0.1405	13.604	155.0	0.299713478	0.291670825	0.003020804	0.031165073	0.009605378
2020-08-04T04:50:00	0.1410	13.601	162.0	0.300772476	0.293680616	0.003048779	0.031453694	0.009694334
2020-08-04T04:55:00	0.1410	13.596	158.0	0.300806983	0.293746221	0.003049694	0.031463126	0.009697241
2020-08-04T05:00:00	0.1410	13.590	180.0	0.300841488	0.293811834	0.003050608	0.031472561	0.009700149
2020-08-04T05:05:00	0.1412	13.588	169.0	0.301285731	0.294657228	0.003062397	0.031594182	0.009737634
2020-08-04T05:10:00	0.1415	13.580	162.0	0.301729941	0.295503802	0.003074213	0.031716091	0.009775207
2020-08-04T05:15:00	0.1415	13.577	158.0	0.301764442	0.295569605	0.003075132	0.031725572	0.009778129
2020-08-04T05:20:00	0.1423	13.575	158.0	0.303437468	0.298769591	0.003119904	0.032187470	0.009920491
2020-08-04T05:25:00	0.1414	13.572	181.0	0.301628596	0.295310549	0.003071515	0.031688252	0.009766627
2020-08-04T05:30:00	0.1411	13.569	181.0	0.301048520	0.294205659	0.003056098	0.031529203	0.009717607
2020-08-04T05:35:00	0.1415	13.564	160.0	0.301902442	0.295832889	0.003078810	0.031763512	0.009789823
2020-08-04T05:40:00	0.1413	13.560	181.0	0.301322392	0.294727049	0.003063371	0.031604232	0.009740731
2020-08-04T05:45:00	0.1415	13.555	161.0	0.301766599	0.295573721	0.003075190	0.031726165	0.009778312
2020-08-04T05:50:00	0.1424	13.552	181.0	0.303644409	0.299166633	0.003125470	0.032244897	0.009938190
2020-08-04T05:55:00	0.1426	13.548	181.0	0.304088445	0.300019479	0.003137435	0.032368336	0.009976236
2020-08-04T06:00:00	0.1427	13.546	181.0	0.304327693	0.300479513	0.003143893	0.032434970	0.009996773
2020-08-04T06:05:00	0.1424	13.544	181.0	0.303747878	0.299365250	0.003128255	0.032273634	0.009947047
2020-08-04T06:10:00	0.1433	13.539	157.0	0.305420356	0.302585104	0.003173498	0.032740390	0.010090906
2020-08-04T06:15:00	0.1432	13.540	161.0	0.305250112	0.302256544	0.003168874	0.032692684	0.010076203
2020-08-04T06:20:00	0.1431	13.541	181.0	0.305079863	0.301928158	0.003164254	0.032645021	0.010061513
2020-08-04T06:25:00	0.1435	13.545	181.0	0.305933216	0.303575996	0.003187453	0.032884368	0.010135281
2020-08-04T06:30:00	0.1441	13.548	181.0	0.307195790	0.306022471	0.003221975	0.033240520	0.010245051
2020-08-04T06:35:00	0.1443	13.551	181.0	0.307639569	0.306884765	0.003234164	0.033366279	0.010283811
2020-08-04T06:40:00	0.1437	13.556	181.0	0.306241343	0.304172123	0.003195856	0.032971062	0.010162001
2020-08-04T06:45:00	0.1432	13.560	181.0	0.305252268	0.302260705	0.003168932	0.032693288	0.010076389
2020-08-04T06:50:00	0.1428	13.565	181.0	0.304467791	0.300749065	0.003147679	0.032474029	0.010008811
2020-08-04T06:55:00	0.1418	13.570	165.0	0.302454411	0.296887166	0.003093547	0.031915551	0.009836683
2020-08-04T07:00:00	0.1411	13.573	159.0	0.301054994	0.294217979	0.003056270	0.031530976	0.009718153
2020-08-04T07:05:00	0.1402	13.578	158.0	0.299245395	0.290784738	0.003008490	0.031038036	0.009566224
2020-08-04T07:10:00	0.1399	13.584	181.0	0.298460126	0.289301320	0.002987904	0.030825652	0.009500765
2020-08-04T07:15:00	0.1404	13.591	157.0	0.299519351	0.291303173	0.003015693	0.031112348	0.009589128
2020-08-04T07:20:00	0.1401	13.596	159.0	0.298939067	0.290205605	0.003000449	0.030955077	0.009540655
2020-08-04T07:25:00	0.1405	13.602	158.0	0.299793295	0.291822056	0.003022906	0.031186768	0.009612065
2020-08-04T07:30:00	0.1407	13.609	176.0	0.300237617	0.292664664	0.003034629	0.031307713	0.009649341
2020-08-04T07:35:00	0.1403	13.611	154.0	0.299452482	0.291176586	0.003013934	0.031094199	0.009583534
2020-08-04T07:40:00	0.1398	13.613	153.0	0.298257321	0.288918842	0.002982602	0.030770951	0.009483906
2020-08-04T07:45:00	0.1395	13.616	158.0	0.297676910	0.287825653	0.002967460	0.030614740	0.009435760
2020-08-04T07:50:00	0.1391	13.626	159.0	0.296891427	0.286349600	0.002947047	0.030404136	0.009370850
2020-08-04T07:55:00	0.1391	13.632	160.0	0.296925956	0.286414405	0.002947942	0.030413375	0.009373697
2020-08-04T08:00:00	0.1390	13.640	155.0	0.296755467	0.286094505	0.002943522	0.030367776	0.009359643
2020-08-04T08:05:00	0.1391	13.646	181.0	0.296995014	0.286544035	0.002949734	0.030431857	0.009379394
2020-08-04T08:10:00	0.1394	13.651	182.0	0.297439551	0.287379207	0.002961282	0.030551002	0.009416116
2020-08-04T08:15:00	0.1388	13.657	162.0	0.296243971	0.285135847	0.002930287	0.030231230	0.009317559
2020-08-04T08:20:00	0.1389	13.667	180.0	0.296483539	0.285584645	0.002936481	0.030295135	0.009337255
2020-08-04T08:25:00	0.1388	13.673	160.0	0.296313037	0.285265196	0.002932072	0.030249644	0.009323234
2020-08-04T08:30:00	0.1396	13.675	155.0	0.297987623	0.288410608	0.002975560	0.030698302	0.009461515
2020-08-04T08:35:00	0.1405	13.680	159.0	0.299866636	0.291961052	0.003024839	0.031206711	0.009618211
2020-08-04T08:40:00	0.1409	13.683	158.0	0.300515844	0.293192923	0.003041985	0.031383597	0.009672729
2020-08-04T08:45:00	0.1410	13.692	154.0	0.300755235	0.293647838	0.003048323	0.031448981	0.009692881
2020-08-04T08:50:00	0.1404	13.703	181.0	0.299560340	0.291380781	0.003016772	0.031123476	0.009592558
2020-08-04T08:55:00	0.1413	13.714	177.0	0.301438848	0.294948896	0.003066467	0.031636170	0.009750575
2020-08-04T09:00:00	0.1417	13.729	156.0	0.302292714	0.296578121	0.003089225	0.031870965	0.009822941
2020-08-04T09:05:00	0.1423	13.741	160.0	0.303556039	0.298997051	0.003123092	0.032220366	0.009930630
2020-08-04T09:10:00	0.1420	13.753	162.0	0.302771343	0.297493383	0.003102029	0.032003057	0.009863653
2020-08-04T09:15:00	0.1408	13.766	182.0	0.300347619	0.292873462	0.003037536	0.031337701	0.009658584
2020-08-04T09:20:00	0.1403	13.781	182.0	0.299357574	0.290996968	0.003011438	0.031068452	0.009575599
2020-08-04T09:25:00	0.1402	13.797	182.0	0.299187157	0.290674590	0.003006960	0.031022254	0.009561360
2020-08-04T09:30:00	0.1406	13.804	182.0	0.300041349	0.292292310	0.003029448	0.031254252	0.009632864
2020-08-04T09:35:00	0.1411	13.813	158.0	0.300895417	0.293914393	0.003052038	0.031487309	0.009704694
2020-08-04T09:40:00	0.1412	13.820	167.0	0.301134792	0.294369851	0.003058388	0.031552826	0.009724887
2020-08-04T09:45:00	0.1408	13.826	182.0	0.300349777	0.292877560	0.003037593	0.031338289	0.009658765
2020-08-04T09:50:00	0.1415	13.830	182.0	0.301818361	0.295672462	0.003076569	0.031740393	0.009782697
2020-08-04T09:55:00	0.1416	13.837	186.0	0.302057700	0.296129242	0.003082950	0.031806231	0.009802989
2020-08-04T10:00:00	0.1420	13.846	182.0	0.302911477	0.297761630	0.003105784	0.032041797	0.009875593
2020-08-04T10:05:00	0.1426	13.855	182.0	0.304027889	0.299903098	0.003135801	0.032351485	0.009971042
2020-08-04T10:10:00	0.1427	13.863	186.0	0.304325119	0.300474561	0.003143824	0.032434252	0.009996551
2020-08-04T10:15:00	0.1420	13.870	187.0	0.302779323	0.297508655	0.003102242	0.032005262	0.009864333
2020-08-04T10:20:00	0.1428	13.872	182.0	0.304510045	0.300830387	0.003148822	0.032485815	0.010012444
2020-08-04T10:25:00	0.1428	13.874	182.0	0.304397754	0.300614296	0.003145786	0.032454499	0.010002792
2020-08-04T10:30:00	0.1427	13.887	182.0	0.304285461	0.300398282	0.003142753	0.032423201	0.009993145
2020-08-04T10:35:00	0.1427	13.897	182.0	0.304173166	0.300182343	0.003139721	0.032391922	0.009983505
2020-08-04T10:40:00	0.1430	13.909	182.0	0.304879881	0.301542653	0.003158832	0.032589091	0.010044274
2020-08-04T10:45:00	0.1427	13.916	182.0	0.304358097	0.300538000	0.003144715	0.032443444	0.009999384
2020-08-04T10:50:00	0.1430	13.926	182.0	0.304860054	0.301504446	0.003158295	0.032583549	0.010042566
2020-08-04T10:55:00	0.1433	13.941	182.0	0.305566690	0.302867665	0.003177476	0.032781430	0.010103555
2020-08-04T11:00:00	0.1425	13.953	187.0	0.303816438	0.299496896	0.003130102	0.032292684	0.009952919
2020-08-04T11:05:00	0.1428	13.964	182.0	0.304523194	0.300855696	0.003149177	0.032489483	0.010013574
2020-08-04T11:10:00	0.1429	13.976	187.0	0.304615655	0.301033693	0.003151678	0.032515285	0.010021527
2020-08-04T11:15:00	0.1427	13.983	183.0	0.304298611	0.300423573	0.003143108	0.032426865	0.009994275
2020-08-04T11:20:00	0.1424	13.990	186.0	0.303571997	0.299027670	0.003123521	0.032224795	0.009931995
2020-08-04T11:25:00	0.1424	13.996	182.0	0.303664472	0.299205140	0.003126010	0.032250468	0.009939907
2020-08-04T11:30:00	0.1416	13.996	180.0	0.302118507	0.296245352	0.003084573	0.031822973	0.009808149
2020-08-04T11:35:00	0.1417	14.003	161.0	0.302211005	0.296422017	0.003087043	0.031848449	0.009816001
2020-08-04T11:40:00	0.1418	14.016	180.0	0.302508324	0.296990245	0.003094989	0.031930426	0.009841267
2020-08-04T11:45:00	0.1422	14.026	166.0	0.303215234	0.298343508	0.003113933	0.032125871	0.009901506
2020-08-04T11:50:00	0.1422	14.037	183.0	0.303307714	0.298520780	0.003116417	0.032151496	0.009909403
2020-08-04T11:55:00	0.1416	14.052	187.0	0.301966499	0.295955142	0.003080518	0.031781133	0.009795254
2020-08-04T12:00:00	0.1414	14.058	187.0	0.301649315	0.295350053	0.003072066	0.031693942	0.009768381
2020-08-04T12:05:00	0.1413	14.066	183.0	0.301332114	0.294745566	0.003063629	0.031606898	0.009741553
2020-08-04T12:10:00	0.1414	14.066	183.0	0.301629478	0.295312230	0.003071538	0.031688494	0.009766702
2020-08-04T12:15:00	0.1413	14.070	183.0	0.301312276	0.294707781	0.003063102	0.031601459	0.009739877
2020-08-04T12:20:00	0.1424	14.065	183.0	0.303657792	0.299192319	0.003125830	0.032248613	0.009939336
2020-08-04T12:25:00	0.1429	14.053	183.0	0.304774067	0.301338777	0.003155966	0.032559521	0.010035161
2020-08-04T12:30:00	0.1427	14.066	183.0	0.304252274	0.300334455	0.003141857	0.032413955	0.009990296
2020-08-04T12:35:00	0.1427	14.075	183.0	0.304344739	0.300512302	0.003144354	0.032439720	0.009998237
2020-08-04T12:40:00	0.1425	14.078	183.0	0.303822909	0.299509322	0.003130276	0.032294483	0.009953473
2020-08-04T12:45:00	0.1425	14.083	183.0	0.303915380	0.299686931	0.003132768	0.032320190	0.009961396
2020-08-04T12:50:00	0.1429	14.096	183.0	0.304622125	0.301046151	0.003151853	0.032517091	0.010022083
2020-08-04T12:55:00	0.1425	14.095	183.0	0.303895550	0.299648839	0.003132234	0.032314676	0.009959697
2020-08-04T13:00:00	0.1434	14.100	183.0	0.305625955	0.302982141	0.003179088	0.032798061	0.010108681
2020-08-04T13:05:00	0.1436	14.106	183.0	0.306127808	0.303952400	0.003192759	0.032939101	0.010152151
2020-08-04T13:10:00	0.1440	14.106	183.0	0.306834299	0.305320987	0.003212067	0.033138301	0.010213546
2020-08-04T13:15:00	0.1450	14.118	183.0	0.308973107	0.309483396	0.003270969	0.033745986	0.010400841
2020-08-04T13:20:00	0.1451	14.119	184.0	0.309270100	0.310063666	0.003279202	0.033830920	0.010427018
2020-08-04T13:25:00	0.1457	14.127	184.0	0.310385371	0.312247668	0.003310234	0.034151072	0.010525692
2020-08-04T13:30:00	0.1451	14.131	184.0	0.309250287	0.310024938	0.003278652	0.033825250	0.010425271
2020-08-04T13:35:00	0.1458	14.134	184.0	0.310570119	0.312610211	0.003315392	0.034204290	0.010542094
2020-08-04T13:40:00	0.1453	14.139	183.0	0.309639654	0.310786484	0.003289464	0.033936794	0.010459650
2020-08-04T13:45:00	0.1452	14.146	183.0	0.309322865	0.310166818	0.003280666	0.033846024	0.010431673
2020-08-04T13:50:00	0.1454	14.146	181.0	0.309824423	0.311148200	0.003294603	0.033989808	0.010475989
2020-08-04T13:55:00	0.1453	14.155	180.0	0.309507643	0.310528182	0.003285796	0.033898950	0.010447986
2020-08-04T14:00:00	0.1445	14.156	185.0	0.307963141	0.307514271	0.003243071	0.033458162	0.010312130
2020-08-04T14:05:00	0.1438	14.154	181.0	0.306622944	0.304911229	0.003206283	0.033078629	0.010195155
2020-08-04T14:10:00	0.1436	14.152	181.0	0.306101308	0.303901126	0.003192036	0.032931644	0.010149853
2020-08-04T14:15:00	0.1428	14.154	181.0	0.304555963	0.300918772	0.003150064	0.032498626	0.010016392
2020-08-04T14:20:00	0.1429	14.157	182.0	0.304648423	0.301096788	0.003152565	0.032524432	0.010024346
2020-08-04T14:25:00	0.1430	14.157	182.0	0.304945623	0.301669355	0.003160614	0.032607470	0.010049939
2020-08-04T14:30:00	0.1429	14.159	183.0	0.304628595	0.301058608	0.003152029	0.032518897	0.010022640
2020-08-04T14:35:00	0.1429	14.163	183.0	0.304721055	0.301236664	0.003154531	0.032544713	0.010030597
2020-08-04T14:40:00	0.1433	14.166	183.0	0.305427706	0.302599294	0.003173697	0.032742450	0.010091541
2020-08-04T14:45:00	0.1434	14.166	184.0	0.305724868	0.303173249	0.003181779	0.032825829	0.010117239
2020-08-04T14:50:00	0.1430	14.171	184.0	0.304793685	0.301376572	0.003156497	0.032565002	0.010036850
2020-08-04T14:55:00	0.1416	14.176	184.0	0.302019118	0.296055583	0.003081921	0.031795612	0.009799716
2020-08-04T15:00:00	0.1413	14.183	184.0	0.301497086	0.295059872	0.003068015	0.031652149	0.009755500
2020-08-04T15:05:00	0.1406	14.184	184.0	0.299950558	0.292120146	0.003027052	0.031229541	0.009625248
2020-08-04T15:10:00	0.1396	14.187	184.0	0.297993682	0.288422022	0.002975718	0.030699933	0.009462018
2020-08-04T15:15:00	0.1391	14.192	184.0	0.296856270	0.286283626	0.002946135	0.030394731	0.009367951
2020-08-04T15:20:00	0.1385	14.195	184.0	0.295718631	0.284152963	0.002916733	0.030091393	0.009274460
2020-08-04T15:25:00	0.1385	14.202	184.0	0.295606172	0.283942782	0.002913836	0.030061511	0.009265250
2020-08-04T15:30:00	0.1388	14.201	184.0	0.296313919	0.285266849	0.002932095	0.030249880	0.009323307
2020-08-04T15:35:00	0.1381	14.203	184.0	0.294765998	0.282375071	0.002892255	0.029838862	0.009196627
2020-08-04T15:40:00	0.1380	14.204	184.0	0.294653520	0.282165530	0.002889374	0.029809134	0.009187465
2020-08-04T15:45:00	0.1376	14.211	184.0	0.293720570	0.280430580	0.002865543	0.029563278	0.009111689
2020-08-04T15:50:00	0.1379	14.214	184.0	0.294428555	0.281746676	0.002883616	0.029749732	0.009169156
2020-08-04T15:55:00	0.1376	14.217	184.0	0.293905834	0.280774668	0.002870265	0.029611998	0.009126705
2020-08-04T16:00:00	0.1378	14.218	185.0	0.294203582	0.281328124	0.002877865	0.029690403	0.009150871
2020-08-04T16:05:00	0.1373	14.220	185.0	0.293270556	0.279595679	0.002854093	0.029445148	0.009075281
2020-08-04T16:10:00	0.1368	14.221	185.0	0.292132184	0.277489381	0.002825257	0.029147655	0.008983590
2020-08-04T16:15:00	0.1362	14.224	184.0	0.290993575	0.275390815	0.002796600	0.028852007	0.008892469
2020-08-04T16:20:00	0.1360	14.224	184.0	0.290470524	0.274429523	0.002783498	0.028716832	0.008850806
2020-08-04T16:25:00	0.1364	14.228	185.0	0.291384155	0.276109772	0.002806409	0.028953209	0.008923660
2020-08-04T16:30:00	0.1363	14.229	185.0	0.291066379	0.275524756	0.002798427	0.028870854	0.008898278
2020-08-04T16:35:00	0.1359	14.233	185.0	0.290338080	0.274186383	0.002780186	0.028682667	0.008840276
2020-08-04T16:40:00	0.1359	14.236	185.0	0.290430771	0.274356532	0.002782503	0.028706574	0.008847645
2020-08-04T16:45:00	0.1357	14.237	185.0	0.289907665	0.273396995	0.002769441	0.028571816	0.008806111
2020-08-04T16:50:00	0.1357	14.244	185.0	0.290000363	0.273566906	0.002771753	0.028595667	0.008813462
2020-08-04T16:55:00	0.1358	14.252	185.0	0.290093060	0.273736868	0.002774066	0.028619530	0.008820817
2020-08-04T17:00:00	0.1362	14.255	185.0	0.291006755	0.275415061	0.002796931	0.028855418	0.008893520
2020-08-04T17:05:00	0.1367	14.255	185.0	0.291920295	0.277098230	0.002819910	0.029092492	0.008966589
2020-08-04T17:10:00	0.1366	14.259	185.0	0.291807758	0.276890600	0.002817073	0.029063221	0.008957567
2020-08-04T17:15:00	0.1371	14.263	185.0	0.292721164	0.278578134	0.002840153	0.029301336	0.009030956
2020-08-04T17:20:00	0.1381	14.260	185.0	0.294865095	0.282559747	0.002894795	0.029865068	0.009204704
2020-08-04T17:25:00	0.1383	14.259	185.0	0.295162792	0.283114908	0.002902435	0.029943883	0.009228996
2020-08-04T17:30:00	0.1386	14.253	185.0	0.295870595	0.284437100	0.002920649	0.030131801	0.009286914
2020-08-04T17:35:00	0.1384	14.248	185.0	0.295553077	0.283843579	0.002912469	0.030047410	0.009260904
2020-08-04T17:40:00	0.1388	14.247	183.0	0.296260831	0.285167420	0.002930723	0.030235724	0.009318944
2020-08-04T17:45:00	0.1387	14.242	183.0	0.296148382	0.284956876	0.002927818	0.030205755	0.009309707
2020-08-04T17:50:00	0.1391	14.240	183.0	0.296856061	0.286283234	0.002946130	0.030394675	0.009367934
2020-08-04T17:55:00	0.1398	14.238	185.0	0.298383564	0.289156899	0.002985901	0.030804994	0.009494398
2020-08-04T18:00:00	0.1400	14.232	185.0	0.298681077	0.289718316	0.002993687	0.030885318	0.009519155
2020-08-04T18:05:00	0.1403	14.229	185.0	0.299388444	0.291055385	0.003012250	0.031076825	0.009578179
2020-08-04T18:10:00	0.1404	14.224	185.0	0.299480985	0.291230539	0.003014684	0.031101934	0.009585918
2020-08-04T18:15:00	0.1406	14.219	185.0	0.299983352	0.292182325	0.003027917	0.031238465	0.009627998
2020-08-04T18:20:00	0.1409	14.212	189.0	0.300485676	0.293135620	0.003041187	0.031375363	0.009670192
2020-08-04T18:25:00	0.1420	14.209	185.0	0.302831517	0.297608554	0.003103641	0.032019689	0.009868779
2020-08-04T18:30:00	0.1423	14.206	185.0	0.303538388	0.298963185	0.003122617	0.032215468	0.009929120
2020-08-04T18:35:00	0.1428	14.198	185.0	0.304449934	0.300714701	0.003147197	0.032469048	0.010007276
2020-08-04T18:40:00	0.1430	14.193	185.0	0.304951884	0.301681423	0.003160784	0.032609221	0.010050479
2020-08-04T18:45:00	0.1433	14.189	185.0	0.305453792	0.302649655	0.003174406	0.032749764	0.010093795
2020-08-04T18:50:00	0.1430	14.185	185.0	0.304932057	0.301643208	0.003160246	0.032603677	0.010048770
2020-08-04T18:55:00	0.1430	14.177	185.0	0.304819774	0.301426834	0.003157204	0.032572292	0.010039097
2020-08-04T19:00:00	0.1435	14.172	185.0	0.305935836	0.303581062	0.003187525	0.032885104	0.010135509
2020-08-04T19:05:00	0.1440	14.166	185.0	0.306847026	0.305345670	0.003212415	0.033141897	0.010214654
2020-08-04T19:10:00	0.1448	14.160	185.0	0.308576607	0.308709575	0.003259999	0.033632804	0.010365957
2020-08-04T19:15:00	0.1447	14.153	185.0	0.308464389	0.308490748	0.003256898	0.033600815	0.010356098
2020-08-04T19:20:00	0.1453	14.148	184.0	0.309579801	0.310669358	0.003287801	0.033919633	0.010454360
2020-08-04T19:25:00	0.1451	14.142	184.0	0.309263009	0.310049805	0.003279005	0.033828891	0.010426393
2020-08-04T19:30:00	0.1454	14.136	185.0	0.309764572	0.311031008	0.003292938	0.033972630	0.010470694
2020-08-04T19:35:00	0.1450	14.129	185.0	0.309038597	0.309611303	0.003272783	0.033764703	0.010406609
2020-08-04T19:40:00	0.1455	14.122	185.0	0.309949338	0.311392862	0.003298079	0.034025677	0.010487044
2020-08-04T19:45:00	0.1456	14.116	165.0	0.310246286	0.311974873	0.003306354	0.034111042	0.010513354
2020-08-04T19:50:00	0.1461	14.107	166.0	0.311156855	0.313763032	0.003331808	0.034373651	0.010594293
2020-08-04T19:55:00	0.1466	14.099	166.0	0.312271800	0.315959663	0.003363144	0.034696937	0.010693933
2020-08-04T20:00:00	0.1463	14.091	178.0	0.311546107	0.314529033	0.003342727	0.034486300	0.010629013
2020-08-04T20:05:00	0.1459	14.082	169.0	0.310820333	0.313101566	0.003322387	0.034276450	0.010564335
2020-08-04T20:10:00	0.1459	14.073	188.0	0.310912701	0.313283054	0.003324971	0.034303112	0.010572552
2020-08-04T20:15:00	0.1456	14.063	184.0	0.310186855	0.311858347	0.003304697	0.034093947	0.010508085
2020-08-04T20:20:00	0.1451	14.053	184.0	0.309256335	0.310036760	0.003278820	0.033826981	0.010425804
2020-08-04T20:25:00	0.1456	14.043	185.0	0.310167045	0.311819509	0.003304144	0.034088249	0.010506330
2020-08-04T20:30:00	0.1457	14.032	184.0	0.310463983	0.312401908	0.003312428	0.034173711	0.010532670
2020-08-04T20:35:00	0.1458	14.020	184.0	0.310556357	0.312583197	0.003315008	0.034200324	0.010540872
2020-08-04T20:40:00	0.1451	14.009	178.0	0.309216709	0.309959309	0.003277721	0.033815642	0.010422309
2020-08-04T20:45:00	0.1444	13.993	185.0	0.307672136	0.306948093	0.003235060	0.033375519	0.010286659
2020-08-04T20:50:00	0.1440	13.975	184.0	0.306945920	0.305537503	0.003215124	0.033169843	0.010223268
2020-08-04T20:55:00	0.1448	13.951	185.0	0.308470856	0.308503355	0.003257076	0.033602658	0.010356665
2020-08-04T21:00:00	0.1450	13.929	184.0	0.308972481	0.309482174	0.003270952	0.033745807	0.010400785
2020-08-04T21:05:00	0.1451	13.908	189.0	0.309269475	0.310062443	0.003279184	0.033830741	0.010426963
2020-08-04T21:10:00	0.1460	13.889	184.0	0.310998396	0.313451477	0.003327370	0.034327860	0.010580180
2020-08-04T21:15:00	0.1457	13.867	184.0	0.310477120	0.312427686	0.003312795	0.034177495	0.010533836
2020-08-04T21:20:00	0.1444	13.843	189.0	0.307705096	0.307012194	0.003235967	0.033384873	0.010289542
2020-08-04T21:25:00	0.1449	13.821	188.0	0.308820642	0.309185723	0.003266748	0.033702436	0.010387418
2020-08-04T21:30:00	0.1454	13.792	184.0	0.309731414	0.310966092	0.003292015	0.033963115	0.010467762
2020-08-04T21:35:00	0.1449	13.764	188.0	0.308800827	0.309147048	0.003266200	0.033696779	0.010385674
2020-08-04T21:40:00	0.1447	13.739	188.0	0.308279372	0.308130134	0.003251790	0.033548115	0.010339855
2020-08-04T21:45:00	0.1443	13.704	184.0	0.307553227	0.306716898	0.003231791	0.033341787	0.010276263
2020-08-04T21:50:00	0.1442	13.685	184.0	0.307440991	0.306498760	0.003228706	0.033309968	0.010266456
2020-08-04T21:55:00	0.1437	13.647	183.0	0.306305378	0.304296084	0.003197605	0.032989097	0.010167560
2020-08-04T22:00:00	0.1440	13.622	188.0	0.307011848	0.305665424	0.003216931	0.033188482	0.010229012
2020-08-04T22:05:00	0.1436	13.591	183.0	0.306051878	0.303805498	0.003190688	0.032917737	0.010145566
2020-08-04T22:10:00	0.1433	13.566	187.0	0.305501210	0.302741211	0.003175695	0.032763062	0.010097894
2020-08-04T22:15:00	0.1438	13.541	188.0	0.306588170	0.304843838	0.003205332	0.033068817	0.010192131
2020-08-04T22:20:00	0.1443	13.511	174.0	0.307470290	0.306555698	0.003229511	0.033318273	0.010269015
2020-08-04T22:25:00	0.1441	13.487	169.0	0.307124416	0.305883903	0.003220017	0.033220321	0.010238826
2020-08-04T22:30:00	0.1441	13.461	182.0	0.307187862	0.306007078	0.003221757	0.033238276	0.010244359
2020-08-04T22:35:00	0.1437	13.427	183.0	0.306227919	0.304146140	0.003195490	0.032967282	0.010160836
2020-08-04T22:40:00	0.1437	13.405	187.0	0.306291374	0.304268974	0.003197222	0.032985152	0.010166344
2020-08-04T22:45:00	0.1440	13.375	187.0	0.306968870	0.305582029	0.003215753	0.033176330	0.010225267
2020-08-04T22:50:00	0.1434	13.348	182.0	0.305804188	0.303326546	0.003183939	0.032848107	0.010124106
2020-08-04T22:55:00	0.1438	13.323	182.0	0.306481736	0.304637622	0.003202422	0.033038799	0.010182879
2020-08-04T23:00:00	0.1438	13.296	182.0	0.306545189	0.304760553	0.003204157	0.033056693	0.010188394
2020-08-04T23:05:00	0.1434	13.265	182.0	0.305789859	0.303298850	0.003183548	0.032844082	0.010122865
2020-08-04T23:10:00	0.1434	13.246	182.0	0.305648608	0.303025903	0.003179704	0.032804419	0.010110640
2020-08-04T23:15:00	0.1433	13.218	182.0	0.305507354	0.302753076	0.003175862	0.032764785	0.010098425
2020-08-04T23:20:00	0.1425	13.181	182.0	0.303932868	0.299720526	0.003133239	0.032325053	0.009962895
2020-08-04T23:25:00	0.1427	13.157	182.0	0.304201112	0.300236075	0.003140475	0.032399705	0.009985904
2020-08-04T23:30:00	0.1425	13.135	182.0	0.303855055	0.299571059	0.003131142	0.032303418	0.009956227
2020-08-04T23:35:00	0.1419	13.116	182.0	0.302689780	0.297337312	0.003099844	0.031980523	0.009856708
2020-08-04T23:40:00	0.1420	13.085	182.0	0.302753272	0.297458801	0.003101545	0.031998064	0.009862114
2020-08-04T23:45:00	0.1412	13.058	182.0	0.301178067	0.294452229	0.003059537	0.031564680	0.009728541
2020-08-04T23:50:00	0.1414	13.034	181.0	0.301651287	0.295353813	0.003072119	0.031694484	0.009768548
2020-08-04T23:55:00	0.1416	13.006	181.0	0.301919634	0.295865697	0.003079268	0.031768241	0.009791280
2020-08-05T00:00:00	0.1413	12.977	181.0	0.301368590	0.294815044	0.003064599	0.031616899	0.009744635
2020-08-05T00:05:00	0.1414	12.958	181.0	0.301636949	0.295326474	0.003071737	0.031690546	0.009767334
2020-08-05T00:10:00	0.1406	12.931	181.0	0.300061447	0.292330428	0.003029978	0.031259724	0.009634550
2020-08-05T00:15:00	0.1409	12.911	181.0	0.300534757	0.293228851	0.003042485	0.031388759	0.009674320
2020-08-05T00:20:00	0.1417	12.885	181.0	0.302237128	0.296471920	0.003087740	0.031855646	0.009818220
2020-08-05T00:25:00	0.1417	12.858	181.0	0.302300625	0.296593237	0.003089436	0.031873145	0.009823613
2020-08-05T00:30:00	0.1413	12.833	181.0	0.301339911	0.294760416	0.003063836	0.031609035	0.009742212
2020-08-05T00:35:00	0.1407	12.807	185.0	0.300174145	0.292544219	0.003032953	0.031290417	0.009644010
2020-08-05T00:40:00	0.1408	12.783	181.0	0.300442558	0.293053730	0.003040046	0.031363597	0.009666565
2020-08-05T00:45:00	0.1403	12.754	185.0	0.299276614	0.290843793	0.003009310	0.031046499	0.009568832
2020-08-05T00:50:00	0.1401	12.731	181.0	0.298930269	0.290188981	0.003000218	0.030952697	0.009539922
2020-08-05T00:55:00	0.1399	12.719	179.0	0.298583904	0.289534886	0.002991143	0.030859068	0.009511064
2020-08-05T01:00:00	0.1394	12.695	179.0	0.297417586	0.287337911	0.002960711	0.030545108	0.009414299
2020-08-05T01:05:00	0.1395	12.671	179.0	0.297686127	0.287842997	0.002967700	0.030617217	0.009436524
2020-08-05T01:10:00	0.1397	12.640	179.0	0.298159630	0.288734695	0.002980050	0.030744624	0.009475792
2020-08-05T01:15:00	0.1402	12.619	179.0	0.299247925	0.290789524	0.003008556	0.031038722	0.009566436
2020-08-05T01:20:00	0.1406	12.606	179.0	0.299926212	0.292073989	0.003026410	0.031222917	0.009623206
2020-08-05T01:25:00	0.1404	12.569	179.0	0.299579906	0.291417831	0.003017287	0.031128789	0.009594195
2020-08-05T01:30:00	0.1403	12.547	179.0	0.299438510	0.291150139	0.003013566	0.031090408	0.009582366
2020-08-05T01:35:00	0.1404	12.532	179.0	0.299502036	0.291270392	0.003015237	0.031107648	0.009587679
2020-08-05T01:40:00	0.1414	12.495	178.0	0.301614420	0.295283522	0.003071137	0.031684359	0.009765427
2020-08-05T01:45:00	0.1416	12.476	178.0	0.302087605	0.296186342	0.003083748	0.031814464	0.009805527
2020-08-05T01:50:00	0.1412	12.457	179.0	0.301126857	0.294354746	0.003058177	0.031550653	0.009724218
2020-08-05T01:55:00	0.1403	12.437	178.0	0.299346293	0.290975623	0.003011142	0.031065392	0.009574656
2020-08-05T02:00:00	0.1411	12.424	178.0	0.301049007	0.294206587	0.003056111	0.031529337	0.009717648
2020-08-05T02:05:00	0.1412	12.393	178.0	0.301112517	0.294327452	0.003057797	0.031546726	0.009723007
2020-08-05T02:10:00	0.1409	12.377	178.0	0.300561398	0.293279461	0.003043190	0.031396032	0.009676562
2020-08-05T02:15:00	0.1413	12.346	178.0	0.301444393	0.294959462	0.003066614	0.031637691	0.009751044
2020-08-05T02:20:00	0.1413	12.314	178.0	0.301507898	0.295080478	0.003068303	0.031655117	0.009756414
2020-08-05T02:25:00	0.1413	12.306	178.0	0.301366548	0.294811155	0.003064544	0.031616339	0.009744463
2020-08-05T02:30:00	0.1410	12.296	178.0	0.300815452	0.293762326	0.003049918	0.031465442	0.009697955
2020-08-05T02:35:00	0.1416	12.273	178.0	0.302108090	0.296225460	0.003084295	0.031820104	0.009807265
2020-08-05T02:40:00	0.1417	12.251	178.0	0.302171589	0.296346727	0.003085990	0.031837591	0.009812655
2020-08-05T02:45:00	0.1416	12.225	178.0	0.302030254	0.296076843	0.003082218	0.031798677	0.009800661
2020-08-05T02:50:00	0.1421	12.207	178.0	0.303117834	0.298156865	0.003111318	0.032098898	0.009893192
2020-08-05T02:55:00	0.1423	12.186	177.0	0.303386114	0.298671104	0.003118523	0.032173229	0.009916102
2020-08-05T03:00:00	0.1420	12.168	177.0	0.302835205	0.297615614	0.003103739	0.032020708	0.009869093
2020-08-05T03:05:00	0.1419	12.143	177.0	0.302693886	0.297345168	0.003099954	0.031981657	0.009857057
2020-08-05T03:10:00	0.1418	12.130	177.0	0.302347742	0.296683276	0.003090695	0.031886134	0.009827616
2020-08-05T03:15:00	0.1420	12.113	177.0	0.302820869	0.297588173	0.003103355	0.032016745	0.009867872
2020-08-05T03:20:00	0.1426	12.091	182.0	0.304113075	0.300066822	0.003138099	0.032375192	0.009978349
2020-08-05T03:25:00	0.1431	12.075	177.0	0.304995549	0.301765594	0.003161967	0.032621433	0.010054242
2020-08-05T03:30:00	0.1427	12.052	177.0	0.304240028	0.300310907	0.003141526	0.032410544	0.009989244
2020-08-05T03:35:00	0.1421	12.031	177.0	0.303074828	0.298074473	0.003110164	0.032086992	0.009889523
2020-08-05T03:40:00	0.1417	12.004	177.0	0.302319068	0.296628479	0.003089929	0.031878229	0.009825180
2020-08-05T03:45:00	0.1413	11.988	177.0	0.301358357	0.294795553	0.003064327	0.031614093	0.009743771
2020-08-05T03:50:00	0.1411	11.968	177.0	0.301012136	0.294136428	0.003055133	0.031519244	0.009714537
2020-08-05T03:55:00	0.1416	11.952	177.0	0.302099901	0.296209821	0.003084077	0.031817849	0.009806570
2020-08-05T04:00:00	0.1419	11.926	177.0	0.302573048	0.297114016	0.003096720	0.031948290	0.009846773
2020-08-05T04:05:00	0.1423	11.911	177.0	0.303479242	0.298849717	0.003121027	0.032199057	0.009924062
2020-08-05T04:10:00	0.1422	11.894	177.0	0.303156641	0.298231222	0.003112360	0.032109643	0.009896504
2020-08-05T04:15:00	0.1420	11.882	177.0	0.302834022	0.297613349	0.003103708	0.032020381	0.009868992
2020-08-05T04:20:00	0.1423	11.868	177.0	0.303535396	0.298957444	0.003122537	0.032214637	0.009928864
2020-08-05T04:25:00	0.1427	11.852	176.0	0.304236689	0.300304485	0.003141436	0.032409614	0.009988958
2020-08-05T04:30:00	0.1427	11.843	176.0	0.304323658	0.300471750	0.003143784	0.032433845	0.009996426
2020-08-05T04:35:00	0.1438	11.832	176.0	0.306457834	0.304591322	0.003201769	0.033032060	0.010180802
2020-08-05T04:40:00	0.1447	11.821	176.0	0.308386657	0.308339214	0.003254751	0.033578668	0.010349271
2020-08-05T04:45:00	0.1444	11.811	176.0	0.307655030	0.306914829	0.003234590	0.033370665	0.010285163
2020-08-05T04:50:00	0.1446	11.803	176.0	0.308151227	0.307880493	0.003248255	0.033511646	0.010328615
2020-08-05T04:55:00	0.1442	11.790	176.0	0.307419573	0.306457142	0.003228118	0.033303898	0.010264585
2020-08-05T05:00:00	0.1442	11.785	176.0	0.307301841	0.306228423	0.003224885	0.033270545	0.010254305
2020-08-05T05:05:00	0.1440	11.778	176.0	0.306979440	0.305602539	0.003216043	0.033179319	0.010226188
2020-08-05T05:10:00	0.1446	11.770	176.0	0.308089622	0.307760517	0.003246556	0.033494122	0.010323214
2020-08-05T05:15:00	0.1458	11.772	176.0	0.310631631	0.312730968	0.003317111	0.034222021	0.010547559
2020-08-05T05:20:00	0.1453	11.770	176.0	0.309695683	0.310896147	0.003291022	0.033952865	0.010464603
2020-08-05T05:25:00	0.1456	11.768	176.0	0.310191721	0.311867886	0.003304832	0.034095346	0.010508517
2020-08-05T05:30:00	0.1451	11.765	176.0	0.309255710	0.310035537	0.003278803	0.033826802	0.010425749
2020-08-05T05:35:00	0.1455	11.763	176.0	0.309956358	0.311406616	0.003298275	0.034027694	0.010487666
2020-08-05T05:40:00	0.1453	11.772	176.0	0.309634093	0.310775600	0.003289309	0.033935200	0.010459158
2020-08-05T05:45:00	0.1462	11.787	176.0	0.311357426	0.314157612	0.003337432	0.034431667	0.010612174
2020-08-05T05:50:00	0.1458	11.791	176.0	0.310626140	0.312720187	0.003316957	0.034220438	0.010547071
2020-08-05T05:55:00	0.1457	11.806	176.0	0.310508467	0.312489204	0.003313670	0.034186525	0.010536619
2020-08-05T06:00:00	0.1463	11.817	176.0	0.311618034	0.314670681	0.003344747	0.034507141	0.010635436
2020-08-05T06:05:00	0.1463	11.830	176.0	0.311704901	0.314841795	0.003347188	0.034532322	0.010643197
2020-08-05T06:10:00	0.1461	11.852	176.0	0.311178191	0.313804995	0.003332406	0.034379820	0.010596194
2020-08-05T06:15:00	0.1458	11.873	176.0	0.310651439	0.312769860	0.003317664	0.034227732	0.010549319
2020-08-05T06:20:00	0.1461	11.889	176.0	0.311147403	0.313744444	0.003331543	0.034370919	0.010593451
2020-08-05T06:25:00	0.1466	11.909	176.0	0.312256860	0.315930177	0.003362723	0.034692592	0.010692594
2020-08-05T06:30:00	0.1465	11.934	177.0	0.312139218	0.315698042	0.003359408	0.034658393	0.010682053
2020-08-05T06:35:00	0.1467	11.955	177.0	0.312430576	0.316273116	0.003367621	0.034743130	0.010708170
2020-08-05T06:40:00	0.1466	11.981	176.0	0.312312936	0.316040858	0.003364304	0.034708901	0.010697620
2020-08-05T06:45:00	0.1475	12.011	177.0	0.314035561	0.319450583	0.003413094	0.035212259	0.010852760
2020-08-05T06:50:00	0.1474	12.039	177.0	0.313917950	0.319217191	0.003409748	0.035177747	0.010842123
2020-08-05T06:55:00	0.1474	12.071	177.0	0.313800337	0.318983882	0.003406405	0.035143255	0.010831493
2020-08-05T07:00:00	0.1473	12.102	177.0	0.313682721	0.318750656	0.003403064	0.035108785	0.010820868
2020-08-05T07:05:00	0.1471	12.139	177.0	0.313360641	0.318112431	0.003393925	0.035014499	0.010791809
2020-08-05T07:10:00	0.1471	12.183	177.0	0.313243018	0.317879516	0.003390591	0.034980106	0.010781208
2020-08-05T07:15:00	0.1463	12.228	177.0	0.311693921	0.314820163	0.003346879	0.034529138	0.010642216
2020-08-05T07:20:00	0.1467	12.274	182.0	0.312394305	0.316201495	0.003366598	0.034732574	0.010704917
2020-08-05T07:25:00	0.1466	12.341	178.0	0.312276664	0.315969263	0.003363281	0.034698351	0.010694369
2020-08-05T07:30:00	0.1471	12.380	178.0	0.313181461	0.317757657	0.003388848	0.034962115	0.010775663
2020-08-05T07:35:00	0.1471	12.585	179.0	0.313268307	0.317929586	0.003391308	0.034987499	0.010783487
2020-08-05T07:40:00	0.1479	12.767	174.0	0.314990683	0.321349197	0.003440337	0.035493324	0.010939387
2020-08-05T07:45:00	0.1465	12.827	183.0	0.312010593	0.315444338	0.003355786	0.034621027	0.010670537
2020-08-05T07:50:00	0.1473	12.820	179.0	0.313733297	0.318850934	0.003404501	0.035123605	0.010825436
2020-08-05T07:55:00	0.1460	12.636	179.0	0.310957182	0.313370470	0.003326216	0.034315956	0.010576511
2020-08-05T08:00:00	0.1462	12.648	179.0	0.311453122	0.314345964	0.003340117	0.034459369	0.010620712
2020-08-05T08:05:00	0.1456	12.689	179.0	0.310108170	0.311704101	0.003302504	0.034071321	0.010501112
2020-08-05T08:10:00	0.1463	12.733	183.0	0.311626859	0.314688064	0.003344995	0.034509699	0.010636224
2020-08-05T08:15:00	0.1458	12.774	179.0	0.310691057	0.312847653	0.003318772	0.034239156	0.010552840
2020-08-05T08:20:00	0.1461	12.830	179.0	0.311187018	0.313822354	0.003332654	0.034382372	0.010596981
2020-08-05T08:25:00	0.1466	12.865	179.0	0.312296468	0.316008351	0.003363839	0.034704111	0.010696144
2020-08-05T08:30:00	0.1461	12.883	179.0	0.311156230	0.313761802	0.003331791	0.034373471	0.010594237
2020-08-05T08:35:00	0.1462	12.935	196.0	0.311447632	0.314335156	0.003339963	0.034457780	0.010620222
2020-08-05T08:40:00	0.1460	13.008	183.0	0.311125442	0.313701256	0.003330928	0.034364570	0.010591494
2020-08-05T08:45:00	0.1462	13.076	181.0	0.311416845	0.314274556	0.003339099	0.034448866	0.010617475
2020-08-05T08:50:00	0.1453	13.135	181.0	0.309662733	0.310831653	0.003290106	0.033943413	0.010461690
2020-08-05T08:55:00	0.1458	13.240	181.0	0.310567895	0.312605845	0.003315330	0.034203649	0.010541897
2020-08-05T09:00:00	0.1456	13.253	181.0	0.310245660	0.311973646	0.003306336	0.034110862	0.010513299
2020-08-05T09:05:00	0.1460	13.321	181.0	0.310946201	0.313348888	0.003325909	0.034312785	0.010575534
2020-08-05T09:10:00	0.1459	13.683	182.0	0.310828534	0.313117678	0.003322616	0.034278817	0.010565064
2020-08-05T09:15:00	0.1463	13.436	181.0	0.311733532	0.314898204	0.003347993	0.034540624	0.010645756
2020-08-05T09:20:00	0.1470	13.612	182.0	0.313047368	0.317492288	0.003385051	0.034922945	0.010763591
2020-08-05T09:25:00	0.1468	13.614	171.0	0.312725257	0.316855292	0.003375941	0.034828966	0.010734626
2020-08-05T09:30:00	0.1464	13.528	170.0	0.311789612	0.315008708	0.003349569	0.034556889	0.010650769
2020-08-05T09:35:00	0.1469	13.554	171.0	0.312898960	0.317198720	0.003380852	0.034879626	0.010750239
2020-08-05T09:40:00	0.1465	13.678	175.0	0.311963340	0.315351160	0.003354456	0.034607305	0.010666308
2020-08-05T09:45:00	0.1469	13.862	175.0	0.312868180	0.317137851	0.003379981	0.034870646	0.010747472
2020-08-05T09:50:00	0.1480	14.278	171.0	0.315203917	0.321773855	0.003446438	0.035556265	0.010958786
2020-08-05T09:55:00	0.1474	14.046	170.0	0.313859734	0.319101697	0.003408093	0.035160672	0.010836860
2020-08-05T10:00:00	0.1478	13.939	171.0	0.314764314	0.320898696	0.003433868	0.035426582	0.010918817
2020-08-05T10:05:00	0.1472	13.769	174.0	0.313535833	0.318459504	0.003398894	0.035065765	0.010807609
2020-08-05T10:10:00	0.1471	13.805	169.0	0.313329539	0.318050835	0.003393043	0.035005403	0.010789005
2020-08-05T10:15:00	0.1465	13.934	169.0	0.312100790	0.315622236	0.003358326	0.034647227	0.010678612
2020-08-05T10:20:00	0.1465	13.895	173.0	0.312098961	0.315618626	0.003358274	0.034646695	0.010678448
2020-08-05T10:25:00	0.1468	13.923	173.0	0.312710619	0.316826361	0.003375528	0.034824699	0.010733311
2020-08-05T10:30:00	0.1468	13.960	178.0	0.312708789	0.316822744	0.003375476	0.034824166	0.010733146
2020-08-05T10:35:00	0.1473	13.998	178.0	0.313729314	0.318843036	0.003404387	0.035122437	0.010825076
2020-08-05T10:40:00	0.1470	14.037	173.0	0.313114091	0.317624317	0.003386940	0.034942432	0.010769597
2020-08-05T10:45:00	0.1471	14.083	194.0	0.313316732	0.318025474	0.003392680	0.035001658	0.010787851
2020-08-05T10:50:00	0.1470	14.130	186.0	0.313110432	0.317617076	0.003386836	0.034941363	0.010769268
2020-08-05T10:55:00	0.1468	14.173	185.0	0.312699641	0.316804663	0.003375218	0.034821499	0.010732324
2020-08-05T11:00:00	0.1464	14.186	185.0	0.311879812	0.315186486	0.003352106	0.034583059	0.010658835
2020-08-05T11:05:00	0.1463	14.226	185.0	0.311673466	0.314779869	0.003346305	0.034523208	0.010640388
2020-08-05T11:10:00	0.1465	14.259	185.0	0.312080662	0.315582531	0.003357759	0.034641379	0.010676809
2020-08-05T11:15:00	0.1460	14.298	189.0	0.311056220	0.313565150	0.003328989	0.034344566	0.010585329
2020-08-05T11:20:00	0.1456	14.333	189.0	0.310236184	0.311955064	0.003306072	0.034108136	0.010512459
2020-08-05T11:25:00	0.1450	14.341	185.0	0.309006848	0.309549292	0.003271904	0.033755628	0.010403812
2020-08-05T11:30:00	0.1451	14.476	190.0	0.309209618	0.309945450	0.003277524	0.033813613	0.010421684
2020-08-05T11:35:00	0.1449	14.417	189.0	0.308798579	0.309142661	0.003266137	0.033696137	0.010385477
2020-08-05T11:40:00	0.1448	14.553	191.0	0.308592135	0.308739861	0.003260428	0.033637232	0.010367322
2020-08-05T11:45:00	0.1444	14.522	186.0	0.307771781	0.307141903	0.003237802	0.033403803	0.010295377
2020-08-05T11:50:00	0.1440	14.474	190.0	0.306951321	0.305547982	0.003215272	0.033171370	0.010223738
2020-08-05T11:55:00	0.1435	14.515	186.0	0.305926052	0.303562143	0.003187258	0.032882354	0.010134661
2020-08-05T12:00:00	0.1430	14.535	185.0	0.304900612	0.301582605	0.003159394	0.032594886	0.010046060
2020-08-05T12:05:00	0.1431	14.666	190.0	0.305103516	0.301973769	0.003164895	0.032651640	0.010063553
2020-08-05T12:10:00	0.1428	14.579	190.0	0.304487457	0.300786913	0.003148211	0.032479514	0.010010502
2020-08-05T12:15:00	0.1422	14.583	190.0	0.303256986	0.298423534	0.003115054	0.032137438	0.009905071
2020-08-05T12:20:00	0.1421	14.616	186.0	0.303050356	0.298027594	0.003109508	0.032080219	0.009887435
2020-08-05T12:25:00	0.1415	14.605	190.0	0.301819591	0.295674808	0.003076602	0.031740731	0.009782801
2020-08-05T12:30:00	0.1414	14.653	186.0	0.301612911	0.295280646	0.003071097	0.031683945	0.009765299
2020-08-05T12:35:00	0.1411	14.679	186.0	0.300996496	0.294106671	0.003054718	0.031514964	0.009713218
2020-08-05T12:40:00	0.1405	14.714	186.0	0.299765305	0.291769018	0.003022169	0.031179159	0.009609720
2020-08-05T12:45:00	0.1399	14.752	191.0	0.298533855	0.289440433	0.002989833	0.030845554	0.009506899
2020-08-05T12:50:00	0.1397	14.783	187.0	0.298122090	0.288663949	0.002979069	0.030734510	0.009472675
2020-08-05T12:55:00	0.1392	14.821	187.0	0.297095302	0.286732342	0.002952336	0.030458711	0.009387670
2020-08-05T13:00:00	0.1394	14.854	192.0	0.297503471	0.287499399	0.002962945	0.030568159	0.009421403
2020-08-05T13:05:00	0.1385	14.911	192.0	0.295656386	0.284036621	0.002915129	0.030074852	0.009269361
2020-08-05T13:10:00	0.1378	14.899	187.0	0.294218938	0.281356683	0.002878257	0.029694451	0.009152118
2020-08-05T13:15:00	0.1380	14.925	192.0	0.294627316	0.282116726	0.002888702	0.029802211	0.009185331
2020-08-05T13:20:00	0.1380	14.947	160.0	0.294625481	0.282113308	0.002888656	0.029801726	0.009185181
2020-08-05T13:25:00	0.1375	15.061	153.0	0.293598056	0.280203156	0.002862423	0.029531088	0.009101768
2020-08-05T13:30:00	0.1371	15.001	147.0	0.292775611	0.278678891	0.002841533	0.029315568	0.009035343
2020-08-05T13:35:00	0.1366	15.009	142.0	0.291747840	0.276780084	0.002815563	0.029047644	0.008952766
2020-08-05T13:40:00	0.1356	15.034	142.0	0.289693550	0.273004738	0.002764106	0.028516773	0.008789146
2020-08-05T13:45:00	0.1351	15.034	138.0	0.288665189	0.271124824	0.002738572	0.028253345	0.008707955
2020-08-05T13:50:00	0.1347	15.068	136.0	0.287841989	0.269624761	0.002718240	0.028043584	0.008643305
2020-08-05T13:55:00	0.1344	15.091	133.0	0.287224045	0.268501529	0.002703041	0.027886774	0.008594974
2020-08-05T14:00:00	0.1346	15.101	129.0	0.287632953	0.269244529	0.002713093	0.027990477	0.008626937
2020-08-05T14:05:00	0.1345	15.168	127.0	0.287425747	0.268867896	0.002707996	0.027937897	0.008610731
2020-08-05T14:10:00	0.1349	15.176	127.0	0.288245337	0.270359222	0.002728190	0.028146238	0.008674944
2020-08-05T14:15:00	0.1343	15.181	122.0	0.287011309	0.268115397	0.002697821	0.027832918	0.008578376
2020-08-05T14:20:00	0.1338	15.218	117.0	0.285982421	0.266251917	0.002672663	0.027573376	0.008498382
2020-08-05T14:25:00	0.1336	15.226	112.0	0.285569706	0.265506298	0.002662614	0.027469699	0.008466428
2020-08-05T14:30:00	0.1335	15.239	105.0	0.285362416	0.265132211	0.002657576	0.027417719	0.008450407
2020-08-05T14:35:00	0.1327	15.250	98.0	0.283716669	0.262171804	0.002617788	0.027007240	0.008323894
2020-08-05T14:40:00	0.1323	15.264	96.0	0.282892675	0.260695997	0.002598010	0.026803189	0.008261003
2020-08-05T14:45:00	0.1321	15.284	93.0	0.282479707	0.259957965	0.002588133	0.026701292	0.008229598
2020-08-05T14:50:00	0.1319	15.319	96.0	0.282066705	0.259220946	0.002578279	0.026599632	0.008198265
2020-08-05T14:55:00	0.1312	15.336	95.0	0.280625526	0.256657526	0.002544080	0.026246804	0.008089520
2020-08-05T15:00:00	0.1312	15.340	94.0	0.280623686	0.256654261	0.002544036	0.026246356	0.008089382
2020-08-05T15:05:00	0.1315	15.347	90.0	0.281238758	0.257746679	0.002558597	0.026396570	0.008135679
2020-08-05T15:10:00	0.1312	15.352	93.0	0.280620005	0.256647732	0.002543950	0.026245458	0.008089105
2020-08-05T15:15:00	0.1312	15.334	89.0	0.280618165	0.256644468	0.002543906	0.026245010	0.008088967
2020-08-05T15:20:00	0.1315	15.345	93.0	0.281233238	0.257736865	0.002558466	0.026395220	0.008135263
2020-08-05T15:25:00	0.1311	15.357	93.0	0.280408830	0.256273222	0.002538963	0.026194011	0.008073248
2020-08-05T15:30:00	0.1306	15.359	93.0	0.279378584	0.254450158	0.002514723	0.025943931	0.007996171
2020-08-05T15:35:00	0.1314	15.363	94.0	0.281022089	0.257361586	0.002553462	0.026343593	0.008119351
2020-08-05T15:40:00	0.1307	15.376	87.0	0.279580602	0.254807110	0.002519464	0.025992849	0.008011248
2020-08-05T15:45:00	0.1306	15.374	90.0	0.279373063	0.254440405	0.002514593	0.025942595	0.007995760
2020-08-05T15:50:00	0.1305	15.381	87.0	0.279165514	0.254073956	0.002509728	0.025892400	0.007980289
2020-08-05T15:55:00	0.1306	15.388	88.0	0.279369382	0.254433903	0.002514507	0.025941704	0.007995485
2020-08-05T16:00:00	0.1310	15.382	88.0	0.280190285	0.255885938	0.002533808	0.026140834	0.008056859
2020-08-05T16:05:00	0.1307	15.381	93.0	0.279547799	0.254749131	0.002518694	0.025984902	0.008008799
2020-08-05T16:10:00	0.1298	15.371	90.0	0.277876501	0.251804142	0.002479644	0.025582034	0.007884631
2020-08-05T16:15:00	0.1298	15.367	88.0	0.277851051	0.251759433	0.002479053	0.025575930	0.007882750
2020-08-05T16:20:00	0.1299	15.356	93.0	0.278031366	0.252076289	0.002483247	0.025619197	0.007896085
2020-08-05T16:25:00	0.1291	15.349	90.0	0.276359536	0.249146340	0.002444534	0.025219809	0.007772990
2020-08-05T16:30:00	0.1287	15.346	88.0	0.275510667	0.247665404	0.002425025	0.025018538	0.007710957
2020-08-05T16:35:00	0.1281	15.327	89.0	0.274249806	0.245474089	0.002396230	0.024721464	0.007619395
2020-08-05T16:40:00	0.1275	15.312	94.0	0.272988599	0.243292192	0.002367644	0.024426551	0.007528500
2020-08-05T16:45:00	0.1272	15.310	94.0	0.272345124	0.242182837	0.002353143	0.024276947	0.007482391
2020-08-05T16:50:00	0.1269	15.320	78.0	0.271907596	0.241430025	0.002343316	0.024175557	0.007451141
2020-08-05T16:55:00	0.1265	15.288	89.0	0.271057898	0.239971479	0.002324304	0.023979419	0.007390690
2020-08-05T17:00:00	0.1264	15.300	88.0	0.270826331	0.239574773	0.002319140	0.023926141	0.007374269
2020-08-05T17:05:00	0.1259	15.295	94.0	0.269770299	0.237769924	0.002295682	0.023684124	0.007299677
2020-08-05T17:10:00	0.1254	15.295	88.0	0.268714013	0.235971668	0.002272368	0.023443604	0.007225547
2020-08-05T17:15:00	0.1259	15.266	83.0	0.269719308	0.237682954	0.002294553	0.023672477	0.007296087
2020-08-05T17:20:00	0.1260	15.249	91.0	0.269899944	0.237991120	0.002298553	0.023713751	0.007308808
2020-08-05T17:25:00	0.1260	15.224	84.0	0.269874450	0.237947614	0.002297988	0.023707923	0.007307012
2020-08-05T17:30:00	0.1264	15.196	89.0	0.270879480	0.239665794	0.002320325	0.023938362	0.007378036
2020-08-05T17:35:00	0.1262	15.176	84.0	0.270441808	0.238916776	0.002310581	0.023837837	0.007347053
2020-08-05T17:40:00	0.1270	15.147	80.0	0.272064831	0.241700425	0.002346845	0.024211963	0.007462362
2020-08-05T17:45:00	0.1265	15.118	91.0	0.271009093	0.239887841	0.002323215	0.023968184	0.007387227
2020-08-05T17:50:00	0.1266	15.093	91.0	0.271189676	0.240197385	0.002327246	0.024009771	0.007400045
2020-08-05T17:55:00	0.1264	15.072	85.0	0.270752034	0.239447563	0.002317485	0.023909063	0.007369005
2020-08-05T18:00:00	0.1264	15.047	88.0	0.270726545	0.239403929	0.002316917	0.023903206	0.007367200
2020-08-05T18:05:00	0.1269	15.022	88.0	0.271731382	0.241127172	0.002339365	0.024134798	0.007438579
2020-08-05T18:10:00	0.1268	14.995	90.0	0.271705898	0.241083390	0.002338794	0.024128907	0.007436763
2020-08-05T18:15:00	0.1276	14.969	78.0	0.273328464	0.243879174	0.002375326	0.024505803	0.007552926
2020-08-05T18:20:00	0.1274	14.943	77.0	0.272891030	0.243123815	0.002365442	0.024403830	0.007521497
2020-08-05T18:25:00	0.1282	14.917	69.0	0.274513173	0.245930980	0.002402227	0.024783331	0.007638463
2020-08-05T18:30:00	0.1283	14.891	89.0	0.274693616	0.246244267	0.002406341	0.024825775	0.007651545
2020-08-05T18:35:00	0.1285	14.864	91.0	0.275079947	0.246915708	0.002415164	0.024916803	0.007679601
2020-08-05T18:40:00	0.1296	14.839	92.0	0.277318736	0.250825223	0.002466698	0.025448469	0.007843465
2020-08-05T18:45:00	0.1299	14.811	77.0	0.277910621	0.251864088	0.002480438	0.025590218	0.007887154
2020-08-05T18:50:00	0.1300	14.784	93.0	0.278296688	0.252542895	0.002489426	0.025682945	0.007915733
2020-08-05T18:55:00	0.1306	14.753	91.0	0.279505583	0.254674526	0.002517703	0.025974676	0.008005648
2020-08-05T19:00:00	0.1305	14.724	93.0	0.279274439	0.254266240	0.002512281	0.025918735	0.007988406
2020-08-05T19:05:00	0.1312	14.690	80.0	0.280688741	0.256769693	0.002545574	0.026262218	0.008094271
2020-08-05T19:10:00	0.1315	14.658	86.0	0.281280213	0.257820393	0.002559580	0.026406714	0.008138806
2020-08-05T19:15:00	0.1320	14.624	92.0	0.282282792	0.259606428	0.002583432	0.026652791	0.008214649
2020-08-05T19:20:00	0.1320	14.589	83.0	0.282257365	0.259561053	0.002582825	0.026646532	0.008212720
2020-08-05T19:25:00	0.1317	14.555	94.0	0.281615151	0.258416360	0.002567533	0.026488762	0.008164094
2020-08-05T19:30:00	0.1314	14.527	84.0	0.281178484	0.257639522	0.002557168	0.026381826	0.008131135
2020-08-05T19:35:00	0.1320	14.494	85.0	0.282386664	0.259791832	0.002585911	0.026678368	0.008222532
2020-08-05T19:40:00	0.1325	14.456	84.0	0.283389020	0.261584458	0.002609912	0.026925985	0.008298850
2020-08-05T19:45:00	0.1325	14.416	91.0	0.283363599	0.261538916	0.002609302	0.026919687	0.008296909
2020-08-05T19:50:00	0.1327	14.383	87.0	0.283749235	0.262230218	0.002618572	0.027015324	0.008326385
2020-08-05T19:55:00	0.1330	14.324	84.0	0.284340343	0.263291673	0.002632822	0.027162334	0.008371695
2020-08-05T20:00:00	0.1337	14.303	77.0	0.285753206	0.265837681	0.002667079	0.027515765	0.008480626
2020-08-05T20:05:00	0.1333	14.274	80.0	0.284905968	0.264309431	0.002646503	0.027303480	0.008415198
2020-08-05T20:10:00	0.1332	14.230	90.0	0.284880554	0.264263659	0.002645887	0.027297128	0.008413240
2020-08-05T20:15:00	0.1331	14.176	72.0	0.284649661	0.263847994	0.002640298	0.027239464	0.008395467
2020-08-05T20:20:00	0.1330	14.152	75.0	0.284418757	0.263432646	0.002634715	0.027181874	0.008377718
2020-08-05T20:25:00	0.1326	14.108	89.0	0.283571296	0.261911123	0.002614292	0.026971169	0.008312776
2020-08-05T20:30:00	0.1329	14.075	72.0	0.284162425	0.262971952	0.002628527	0.027118032	0.008358041
2020-08-05T20:35:00	0.1337	14.054	84.0	0.285780779	0.265887494	0.002667751	0.027522691	0.008482761
2020-08-05T20:40:00	0.1340	14.019	83.0	0.286371652	0.266956091	0.002682163	0.027671381	0.008528588
2020-08-05T20:45:00	0.1344	13.982	79.0	0.287167843	0.268399492	0.002701661	0.027872539	0.008590587
2020-08-05T20:50:00	0.1341	13.937	80.0	0.286731656	0.267608241	0.002690968	0.027762222	0.008556586
2020-08-05T20:55:00	0.1342	13.905	84.0	0.286911649	0.267934605	0.002695377	0.027807711	0.008570607
2020-08-05T21:00:00	0.1346	13.858	83.0	0.287707758	0.269380565	0.002714934	0.028009474	0.008632792
2020-08-05T21:05:00	0.1344	13.827	90.0	0.287271616	0.268587913	0.002704209	0.027898826	0.008598689
2020-08-05T21:10:00	0.1345	13.791	80.0	0.287451590	0.268914856	0.002708631	0.027944451	0.008612751
2020-08-05T21:15:00	0.1337	13.776	86.0	0.285782943	0.265891403	0.002667803	0.027523235	0.008482928
2020-08-05T21:20:00	0.1334	13.718	64.0	0.285141179	0.264733251	0.002652205	0.027362310	0.008433330
2020-08-05T21:25:00	0.1334	13.669	88.0	0.285115766	0.264687444	0.002651589	0.027355950	0.008431370
2020-08-05T21:30:00	0.1334	13.644	89.0	0.285295816	0.265012077	0.002655958	0.027401032	0.008445264
2020-08-05T21:35:00	0.1333	13.640	89.0	0.285064941	0.264595841	0.002650356	0.027343233	0.008427450
2020-08-05T21:40:00	0.1327	13.599	87.0	0.283806569	0.262333075	0.002619952	0.027029561	0.008330773
2020-08-05T21:45:00	0.1331	13.553	90.0	0.284603160	0.263764321	0.002639173	0.027227860	0.008391891
2020-08-05T21:50:00	0.1326	13.525	83.0	0.283550205	0.261873315	0.002613785	0.026965938	0.008311164
2020-08-05T21:55:00	0.1326	13.498	88.0	0.283524785	0.261827748	0.002613174	0.026959635	0.008309221
2020-08-05T22:00:00	0.1325	13.469	89.0	0.283293829	0.261413945	0.002607627	0.026902407	0.008291583
2020-08-05T22:05:00	0.1330	13.421	74.0	0.284383286	0.263368871	0.002633859	0.027173034	0.008374993
2020-08-05T22:10:00	0.1332	13.364	88.0	0.284856118	0.264219652	0.002645295	0.027291022	0.008411358
2020-08-05T22:15:00	0.1325	13.326	80.0	0.283273925	0.261378298	0.002607149	0.026897479	0.008290064
2020-08-05T22:20:00	0.1322	13.350	81.0	0.282719152	0.260385756	0.002593857	0.026760344	0.008247798
2020-08-05T22:25:00	0.1321	13.317	80.0	0.282575473	0.260129015	0.002590421	0.026724900	0.008236874
2020-08-05T22:30:00	0.1322	13.286	79.0	0.282637359	0.260239585	0.002591901	0.026740163	0.008241578
2020-08-05T22:35:00	0.1314	13.253	80.0	0.281054463	0.257419107	0.002554228	0.026351504	0.008121790
2020-08-05T22:40:00	0.1313	13.260	72.0	0.280910735	0.257163788	0.002550825	0.026316392	0.008110968
2020-08-05T22:45:00	0.1308	13.217	86.0	0.279944357	0.255450489	0.002528016	0.026081077	0.008038441
2020-08-05T22:50:00	0.1303	13.211	75.0	0.278772062	0.253380018	0.002500521	0.025797414	0.007951014
2020-08-05T22:55:00	0.1297	13.191	72.0	0.277599480	0.251317704	0.002473209	0.025515642	0.007864169
2020-08-05T23:00:00	0.1293	13.163	83.0	0.276838251	0.249983508	0.002455580	0.025333765	0.007808112
2020-08-05T23:05:00	0.1295	13.137	83.0	0.277106017	0.250452401	0.002461772	0.025397647	0.007827801
2020-08-05T23:10:00	0.1293	13.115	79.0	0.276756359	0.249840195	0.002453688	0.025314248	0.007802097
2020-08-05T23:15:00	0.1294	13.099	70.0	0.277024130	0.250308958	0.002459877	0.025378100	0.007821777
2020-08-05T23:20:00	0.1296	13.089	76.0	0.277291885	0.250778146	0.002466076	0.025442050	0.007841487
2020-08-05T23:25:00	0.1296	13.080	70.0	0.277353839	0.250886773	0.002467512	0.025456862	0.007846052
2020-08-05T23:30:00	0.1291	13.057	79.0	0.276386743	0.249193880	0.002445161	0.025226277	0.007774983
2020-08-05T23:35:00	0.1283	13.026	85.0	0.274801781	0.246432162	0.002408809	0.024851240	0.007659393
2020-08-05T23:40:00	0.1281	12.999	87.0	0.274246028	0.245467537	0.002396144	0.024720577	0.007619122
2020-08-05T23:45:00	0.1282	12.965	91.0	0.274513942	0.245932316	0.002402244	0.024783512	0.007638519
2020-08-05T23:50:00	0.1277	12.924	83.0	0.273546255	0.244255705	0.002380257	0.024556674	0.007568605
2020-08-05T23:55:00	0.1278	12.913	83.0	0.273608259	0.244362956	0.002381662	0.024571169	0.007573073
2020-08-06T00:00:00	0.1271	12.889	83.0	0.272228361	0.241981816	0.002350518	0.024249863	0.007474043
2020-08-06T00:05:00	0.1268	12.870	84.0	0.271672293	0.241025661	0.002338041	0.024121140	0.007434370
2020-08-06T00:10:00	0.1264	12.861	79.0	0.270703996	0.239365332	0.002316415	0.023898025	0.007365603
2020-08-06T00:15:00	0.1260	12.824	76.0	0.269941618	0.238062245	0.002299477	0.023723280	0.007311745
2020-08-06T00:20:00	0.1260	12.799	79.0	0.270003672	0.238168173	0.002300853	0.023737473	0.007316120
2020-08-06T00:25:00	0.1261	12.786	79.0	0.270271839	0.238626223	0.002306804	0.023798870	0.007335043
2020-08-06T00:30:00	0.1265	12.764	77.0	0.270952164	0.239790301	0.002321945	0.023955083	0.007383189
2020-08-06T00:35:00	0.1262	12.748	77.0	0.270395937	0.238838345	0.002309561	0.023827317	0.007343810
2020-08-06T00:40:00	0.1261	12.730	78.0	0.270251879	0.238592114	0.002306361	0.023794297	0.007333633
2020-08-06T00:45:00	0.1256	12.722	77.0	0.269077111	0.236589027	0.002280365	0.023526108	0.007250975
2020-08-06T00:50:00	0.1254	12.685	74.0	0.268726833	0.235993453	0.002272650	0.023446514	0.007226443
2020-08-06T00:55:00	0.1249	12.678	81.0	0.267757887	0.234349989	0.002251395	0.023227231	0.007158858
2020-08-06T01:00:00	0.1245	12.670	78.0	0.266788722	0.232712072	0.002230262	0.023009201	0.007091659
2020-08-06T01:05:00	0.1249	12.660	77.0	0.267675829	0.234211080	0.002249601	0.023208720	0.007153153
2020-08-06T01:10:00	0.1248	12.635	77.0	0.267531682	0.233967166	0.002246451	0.023176225	0.007143138
2020-08-06T01:15:00	0.1245	12.614	75.0	0.266975017	0.233026457	0.002234314	0.023051010	0.007104545
2020-08-06T01:20:00	0.1248	12.600	74.0	0.267449620	0.233828367	0.002244660	0.023157740	0.007137440
2020-08-06T01:25:00	0.1250	12.572	80.0	0.267924170	0.234631607	0.002255034	0.023264770	0.007170428
2020-08-06T01:30:00	0.1241	12.541	77.0	0.266129896	0.231602013	0.002215968	0.022861730	0.007046207
2020-08-06T01:35:00	0.1243	12.544	76.0	0.266398303	0.232053924	0.002221784	0.022921737	0.007064702
2020-08-06T01:40:00	0.1242	12.540	73.0	0.266254112	0.231811097	0.002218658	0.022889488	0.007054763
2020-08-06T01:45:00	0.1244	12.546	75.0	0.266728795	0.232610987	0.002228959	0.022995762	0.007087517
2020-08-06T01:50:00	0.1246	12.542	78.0	0.266997165	0.233063847	0.002234797	0.023055984	0.007106078
2020-08-06T01:55:00	0.1240	12.510	77.0	0.265821511	0.231083353	0.002209297	0.022792907	0.007024995
2020-08-06T02:00:00	0.1244	12.497	78.0	0.266708819	0.232577297	0.002228525	0.022991283	0.007086137
2020-08-06T02:05:00	0.1245	12.492	76.0	0.266977190	0.233030125	0.002234362	0.023051498	0.007104696
2020-08-06T02:10:00	0.1247	12.463	77.0	0.267245544	0.233483378	0.002240208	0.023111808	0.007123284
2020-08-06T02:15:00	0.1243	12.465	77.0	0.266482558	0.232195875	0.002223612	0.022940595	0.007070514
2020-08-06T02:20:00	0.1240	12.447	87.0	0.265925757	0.231258614	0.002211550	0.022816157	0.007032161
2020-08-06T02:25:00	0.1242	12.437	86.0	0.266194178	0.231710201	0.002217360	0.022876092	0.007050634
2020-08-06T02:30:00	0.1246	12.417	79.0	0.267081408	0.233206096	0.002236631	0.023074908	0.007111911
2020-08-06T02:35:00	0.1247	12.399	78.0	0.267349756	0.233659514	0.002242480	0.023135256	0.007130511
2020-08-06T02:40:00	0.1247	12.375	83.0	0.267205597	0.233415878	0.002239337	0.023102824	0.007120515
2020-08-06T02:45:00	0.1247	12.388	83.0	0.267267690	0.233520803	0.002240690	0.023116790	0.007124819
2020-08-06T02:50:00	0.1239	12.397	84.0	0.265679474	0.230844669	0.002206229	0.022761253	0.007015239
2020-08-06T02:55:00	0.1243	12.379	84.0	0.266566812	0.232337869	0.002225441	0.022959462	0.007076329
2020-08-06T03:00:00	0.1240	12.348	80.0	0.265803704	0.231053423	0.002208912	0.022788937	0.007023772
2020-08-06T03:05:00	0.1243	12.338	83.0	0.266484731	0.232199537	0.002223659	0.022941081	0.007070664
2020-08-06T03:10:00	0.1247	12.316	83.0	0.267371901	0.233696953	0.002242963	0.023140241	0.007132047
2020-08-06T03:15:00	0.1247	12.323	84.0	0.267227743	0.233453298	0.002239819	0.023107805	0.007122050
2020-08-06T03:20:00	0.1246	12.318	60.0	0.267083581	0.233209765	0.002236678	0.023075396	0.007112061
2020-08-06T03:25:00	0.1248	12.295	83.0	0.267558171	0.234011980	0.002247030	0.023182195	0.007144978
2020-08-06T03:30:00	0.1247	12.280	59.0	0.267207770	0.233419549	0.002239384	0.023103313	0.007120665
2020-08-06T03:35:00	0.1249	12.287	60.0	0.267682346	0.234222111	0.002249744	0.023210190	0.007153606
2020-08-06T03:40:00	0.1245	12.279	60.0	0.266919438	0.232932640	0.002233105	0.023038532	0.007100699
2020-08-06T03:45:00	0.1244	12.269	59.0	0.266568985	0.232341531	0.002225488	0.022959948	0.007076479
2020-08-06T03:50:00	0.1245	12.251	84.0	0.266837365	0.232794138	0.002231320	0.023020113	0.007095022
2020-08-06T03:55:00	0.1248	12.249	83.0	0.267518227	0.233944406	0.002246158	0.023173194	0.007142203
2020-08-06T04:00:00	0.1244	12.241	83.0	0.266755289	0.232655675	0.002229535	0.023001703	0.007089348
2020-08-06T04:05:00	0.1241	12.211	83.0	0.266107206	0.231563832	0.002215476	0.022856662	0.007044645
2020-08-06T04:10:00	0.1249	12.203	79.0	0.267728152	0.234299649	0.002250745	0.023220522	0.007156790
2020-08-06T04:15:00	0.1250	12.171	79.0	0.267905180	0.234599437	0.002254618	0.023260481	0.007169106
2020-08-06T04:20:00	0.1248	12.181	81.0	0.267463519	0.233851873	0.002244963	0.023160870	0.007138405
2020-08-06T04:25:00	0.1245	12.166	83.0	0.266815543	0.232757321	0.002230845	0.023015217	0.007093513
2020-08-06T04:30:00	0.1246	12.151	83.0	0.266992609	0.233056156	0.002234697	0.023054961	0.007105763
2020-08-06T04:35:00	0.1246	12.138	59.0	0.267169668	0.233355176	0.002238554	0.023094746	0.007118025
2020-08-06T04:40:00	0.1243	12.149	0.0	0.266521648	0.232261748	0.002224460	0.022949347	0.007073212
2020-08-06T04:45:00	0.1249	12.148	0.0	0.267729997	0.234302772	0.002250785	0.023220938	0.007156919
2020-08-06T04:50:00	0.1254	12.139	0.0	0.268731831	0.236001944	0.002272760	0.023447649	0.007226793
2020-08-06T04:55:00	0.1251	12.134	0.0	0.268084046	0.234902539	0.002258536	0.023300899	0.007181563
2020-08-06T05:00:00	0.1257	12.125	0.0	0.269291958	0.236954710	0.002285105	0.023575012	0.007266048
2020-08-06T05:05:00	0.1263	12.134	0.0	0.270499536	0.239015502	0.002311865	0.023851081	0.007351135
2020-08-06T05:10:00	0.1267	12.141	0.0	0.271500737	0.240731066	0.002334200	0.024081514	0.007422157
2020-08-06T05:15:00	0.1268	12.129	0.0	0.271677613	0.241034801	0.002338160	0.024122369	0.007434749
2020-08-06T05:20:00	0.1274	12.136	0.0	0.272884544	0.243112624	0.002365296	0.024402320	0.007521032
2020-08-06T05:25:00	0.1277	12.132	0.0	0.273473309	0.244129558	0.002378605	0.024539628	0.007563352
2020-08-06T05:30:00	0.1284	12.120	0.0	0.274885667	0.246577932	0.002410724	0.024871000	0.007665484
2020-08-06T05:35:00	0.1281	12.106	0.0	0.274238774	0.245454960	0.002395979	0.024718875	0.007618597
2020-08-06T05:40:00	0.1284	12.132	0.0	0.274827364	0.246476614	0.002409393	0.024857265	0.007661251
2020-08-06T05:45:00	0.1289	12.167	0.0	0.276033464	0.248576939	0.002437029	0.025142375	0.007749124
2020-08-06T05:50:00	0.1287	12.190	0.0	0.275592604	0.247808154	0.002426904	0.025037922	0.007716931
2020-08-06T05:55:00	0.1286	12.206	0.0	0.275357584	0.247398820	0.002421518	0.024982350	0.007699803
2020-08-06T06:00:00	0.1278	12.226	0.0	0.273681109	0.244488999	0.002383314	0.024588206	0.007578324
2020-08-06T06:05:00	0.1282	12.256	0.0	0.274475693	0.245865933	0.002401373	0.024774521	0.007635748
2020-08-06T06:10:00	0.1288	12.282	0.0	0.275681885	0.247963745	0.002428952	0.025059053	0.007723443
2020-08-06T06:15:00	0.1292	12.323	0.0	0.276476125	0.249350095	0.002447221	0.025247532	0.007781535
2020-08-06T06:20:00	0.1294	12.365	0.0	0.277064432	0.250379552	0.002460810	0.025387719	0.007824742
2020-08-06T06:25:00	0.1291	12.414	0.0	0.276417843	0.249248228	0.002445878	0.025233671	0.007777263
2020-08-06T06:30:00	0.1293	12.452	0.0	0.276800348	0.249917170	0.002454704	0.025324730	0.007805328
2020-08-06T06:35:00	0.1297	12.495	0.0	0.277594399	0.251308786	0.002473091	0.025514425	0.007863794
2020-08-06T06:40:00	0.1301	12.538	0.0	0.278388317	0.252704142	0.002491562	0.025704984	0.007922526
2020-08-06T06:45:00	0.1305	12.581	0.0	0.279182104	0.254103236	0.002510117	0.025896410	0.007981525
2020-08-06T06:50:00	0.1304	12.633	0.0	0.278947262	0.253688901	0.002504618	0.025839683	0.007964041
2020-08-06T06:55:00	0.1301	12.680	0.0	0.278506674	0.252912500	0.002494323	0.025733469	0.007931305
2020-08-06T07:00:00	0.1295	12.739	0.0	0.277242936	0.250692339	0.002464942	0.025430352	0.007837881
2020-08-06T07:05:00	0.1298	12.796	0.0	0.277831148	0.251724470	0.002478590	0.025571157	0.007881279
2020-08-06T07:10:00	0.1294	12.857	0.0	0.276978861	0.250229678	0.002458830	0.025367298	0.007818448
2020-08-06T07:15:00	0.1296	12.937	0.0	0.277361321	0.250899893	0.002467685	0.025458651	0.007846603
2020-08-06T07:20:00	0.1292	13.011	0.0	0.276508949	0.249407476	0.002447978	0.025255341	0.007783941
2020-08-06T07:25:00	0.1296	13.104	0.0	0.277303049	0.250797720	0.002466335	0.025444719	0.007842310
2020-08-06T07:30:00	0.1298	13.190	101.0	0.277891254	0.251830061	0.002479987	0.025585572	0.007885722
2020-08-06T07:35:00	0.1296	13.722	0.0	0.277450568	0.251056420	0.002469754	0.025479998	0.007853183
2020-08-06T07:40:00	0.1315	14.047	0.0	0.281329796	0.257908573	0.002560756	0.026418850	0.008142546
2020-08-06T07:45:00	0.1296	14.163	0.0	0.277392297	0.250954216	0.002468403	0.025466059	0.007848887
2020-08-06T07:50:00	0.1299	14.469	0.0	0.277980491	0.251986869	0.002482063	0.025606984	0.007892321
2020-08-06T07:55:00	0.1311	13.968	0.0	0.280419895	0.256292838	0.002539224	0.026196705	0.008074079
2020-08-06T08:00:00	0.1294	13.780	0.0	0.276893288	0.250079848	0.002456852	0.025346887	0.007812157
2020-08-06T08:05:00	0.1293	13.742	0.0	0.276864150	0.250028840	0.002456178	0.025339939	0.007810015
2020-08-06T08:10:00	0.1292	13.783	0.0	0.276629194	0.249617735	0.002450752	0.025283960	0.007792762
2020-08-06T08:15:00	0.1283	13.889	0.0	0.274747279	0.246337477	0.002407565	0.024838407	0.007655438
2020-08-06T08:20:00	0.1286	14.075	0.0	0.275335805	0.247360904	0.002421019	0.024977205	0.007698217
2020-08-06T08:25:00	0.1293	14.092	0.0	0.276747594	0.249824858	0.002453486	0.025312159	0.007801453
2020-08-06T08:30:00	0.1288	14.077	0.0	0.275689253	0.247976588	0.002429121	0.025060797	0.007723981
2020-08-06T08:35:00	0.1289	14.106	0.0	0.275865967	0.248284707	0.002433179	0.025102657	0.007736883
2020-08-06T08:40:00	0.1289	14.170	0.0	0.276042674	0.248593011	0.002437240	0.025144560	0.007749798
2020-08-06T08:45:00	0.1297	14.330	0.0	0.277660032	0.251423989	0.002474615	0.025530144	0.007868638
2020-08-06T08:50:00	0.1300	14.411	0.0	0.278248192	0.252457575	0.002488295	0.025671286	0.007912140
2020-08-06T08:55:00	0.1291	14.647	0.0	0.276366927	0.249159253	0.002444705	0.025221566	0.007773532
2020-08-06T09:00:00	0.1295	14.647	7.0	0.277161051	0.250548829	0.002463046	0.025410789	0.007831852
2020-08-06T09:05:00	0.1291	14.600	0.0	0.276308643	0.249057424	0.002443362	0.025207713	0.007769262
2020-08-06T09:10:00	0.1288	14.883	0.0	0.275661949	0.247928998	0.002428495	0.025054333	0.007721989
2020-08-06T09:15:00	0.1290	14.832	0.0	0.276250359	0.248955615	0.002442020	0.025193865	0.007764994
2020-08-06T09:20:00	0.1278	15.117	0.0	0.273750483	0.244609058	0.002384887	0.024604438	0.007583327
2020-08-06T09:25:00	0.1291	15.261	0.0	0.276397910	0.249213394	0.002445418	0.025228932	0.007775802
2020-08-06T09:30:00	0.1282	15.085	0.0	0.274515901	0.245935716	0.002402289	0.024783973	0.007638661
2020-08-06T09:35:00	0.1289	15.138	0.0	0.275927940	0.248392810	0.002434603	0.025117348	0.007741411
2020-08-06T09:40:00	0.1280	15.143	0.0	0.274045740	0.245120374	0.002391590	0.024673595	0.007604642
2020-08-06T09:45:00	0.1275	15.929	0.0	0.272986779	0.243289051	0.002367603	0.024426128	0.007528370
2020-08-06T09:50:00	0.1288	16.826	0.0	0.275840506	0.248240301	0.002432594	0.025096623	0.007735023
2020-08-06T09:55:00	0.1301	16.588	0.0	0.278486750	0.252877419	0.002493858	0.025728673	0.007929827
2020-08-06T10:00:00	0.1298	16.120	0.0	0.277840354	0.251740641	0.002478804	0.025573364	0.007881959
2020-08-06T10:05:00	0.1272	15.455	0.0	0.272427118	0.242324050	0.002354988	0.024295978	0.007488256
2020-08-06T10:10:00	0.1268	15.272	0.0	0.271542816	0.240803306	0.002335142	0.024091230	0.007425151
2020-08-06T10:15:00	0.1265	15.357	0.0	0.271070502	0.239993081	0.002324586	0.023982321	0.007391584
2020-08-06T10:20:00	0.1272	15.293	0.0	0.272452598	0.242367942	0.002355562	0.024301894	0.007490080
2020-08-06T10:25:00	0.1272	15.170	0.0	0.272392421	0.242264289	0.002354207	0.024287924	0.007485774
2020-08-06T10:30:00	0.1265	15.176	0.0	0.271095989	0.240036768	0.002325154	0.023988190	0.007393393
2020-08-06T10:35:00	0.1260	15.166	90.0	0.270005306	0.238170963	0.002300889	0.023737847	0.007316235
2020-08-06T10:40:00	0.1260	15.222	0.0	0.269945096	0.238068182	0.002299554	0.023724075	0.007311990
2020-08-06T10:45:00	0.1253	15.240	0.0	0.268441756	0.235509309	0.002266384	0.023381863	0.007206517
2020-08-06T10:50:00	0.1251	15.274	0.0	0.268175322	0.235057290	0.002260537	0.023321541	0.007187925
2020-08-06T10:55:00	0.1244	15.313	0.0	0.266671367	0.232514139	0.002227711	0.022982888	0.007083549
2020-08-06T11:00:00	0.1241	15.364	0.0	0.265992215	0.231370380	0.002212988	0.022830987	0.007036732
2020-08-06T11:05:00	0.1233	15.512	0.0	0.264487486	0.228846615	0.002180586	0.022496704	0.006933703
2020-08-06T11:10:00	0.1237	15.599	129.0	0.265252679	0.230128232	0.002197025	0.022666305	0.006985975
2020-08-06T11:15:00	0.1241	15.613	126.0	0.266017733	0.231413301	0.002213540	0.022836683	0.007038487
2020-08-06T11:20:00	0.1229	15.735	0.0	0.263480953	0.227166395	0.002159081	0.022274838	0.006865321
2020-08-06T11:25:00	0.1229	15.732	109.0	0.263627087	0.227409942	0.002162195	0.022306963	0.006875223
2020-08-06T11:30:00	0.1231	15.828	0.0	0.263979633	0.227998050	0.002169718	0.022384586	0.006899147
2020-08-06T11:35:00	0.1235	15.864	0.0	0.264744919	0.229277376	0.002186108	0.022553673	0.006951261
2020-08-06T11:40:00	0.1233	16.184	0.0	0.264478253	0.228831172	0.002180388	0.022494662	0.006933073
2020-08-06T11:45:00	0.1239	16.199	0.0	0.265656127	0.230805449	0.002205724	0.022756053	0.007013636
2020-08-06T11:50:00	0.1233	16.044	0.0	0.264357677	0.228629563	0.002177805	0.022468012	0.006924860
2020-08-06T11:55:00	0.1233	16.114	0.0	0.264503779	0.228873865	0.002180935	0.022500307	0.006934813
2020-08-06T12:00:00	0.1226	16.184	0.0	0.262998513	0.226363311	0.002148821	0.022168988	0.006832698
2020-08-06T12:05:00	0.1230	16.446	0.0	0.263763980	0.227638210	0.002165114	0.022337083	0.006884506
2020-08-06T12:10:00	0.1232	16.267	0.0	0.264116515	0.228226604	0.002172644	0.022414770	0.006908450
2020-08-06T12:15:00	0.1228	16.277	169.0	0.263436949	0.227093083	0.002158144	0.022265170	0.006862342
2020-08-06T12:20:00	0.1220	16.160	168.0	0.261724770	0.224250050	0.002121881	0.021891058	0.006747037
2020-08-06T12:25:00	0.1212	16.088	0.0	0.260011868	0.221424287	0.002085992	0.021520797	0.006632919
2020-08-06T12:30:00	0.1210	16.067	0.0	0.259744891	0.220985522	0.002080433	0.021463447	0.006615243
2020-08-06T12:35:00	0.1205	16.078	0.0	0.258651241	0.219192837	0.002057760	0.021229530	0.006543147
2020-08-06T12:40:00	0.1203	16.052	0.0	0.258177467	0.218418576	0.002047987	0.021128700	0.006512070
2020-08-06T12:45:00	0.1200	16.145	0.0	0.257496894	0.217308829	0.002033999	0.020984390	0.006467593
2020-08-06T12:50:00	0.1199	16.175	0.0	0.257436502	0.217210494	0.002032760	0.020971614	0.006463655
2020-08-06T12:55:00	0.1194	16.284	0.0	0.256342204	0.215432654	0.002010405	0.020740979	0.006392571
2020-08-06T13:00:00	0.1193	16.415	0.0	0.256074976	0.214999650	0.002004970	0.020684903	0.006375288
2020-08-06T13:05:00	0.1190	16.472	0.0	0.255600886	0.214232562	0.001995350	0.020585655	0.006344699
2020-08-06T13:10:00	0.1187	16.515	0.0	0.254919857	0.213133119	0.001981582	0.020443615	0.006300921
2020-08-06T13:15:00	0.1176	16.497	0.0	0.252582949	0.209382647	0.001934797	0.019960941	0.006152156
2020-08-06T13:20:00	0.1185	16.468	0.0	0.254385181	0.212271993	0.001970815	0.020332536	0.006266685
2020-08-06T13:25:00	0.1176	16.564	0.0	0.252669023	0.209520176	0.001936507	0.019978590	0.006157595
2020-08-06T13:30:00	0.1175	16.639	0.0	0.252401533	0.209092934	0.001931194	0.019923776	0.006140701
2020-08-06T13:35:00	0.1175	16.582	0.0	0.252341059	0.208996405	0.001929995	0.019911398	0.006136886
2020-08-06T13:40:00	0.1169	16.523	0.0	0.251245275	0.207251302	0.001908335	0.019687936	0.006068013
2020-08-06T13:45:00	0.1163	16.564	0.0	0.249941999	0.205185596	0.001882775	0.019424239	0.005986739
2020-08-06T13:50:00	0.1167	16.543	0.0	0.250710067	0.206401699	0.001897812	0.019579372	0.006034553
2020-08-06T13:55:00	0.1161	16.572	44.0	0.249613789	0.204667064	0.001876372	0.019358186	0.005966381
2020-08-06T14:00:00	0.1169	16.578	0.0	0.251210396	0.207195879	0.001907648	0.019680849	0.006065829
2020-08-06T14:05:00	0.1158	16.745	0.0	0.248871117	0.203496235	0.001861936	0.019209248	0.005920477
2020-08-06T14:10:00	0.1176	16.630	0.0	0.252538821	0.209312158	0.001933920	0.019951897	0.006149368
2020-08-06T14:15:00	0.1170	16.584	0.0	0.251443095	0.207565785	0.001912233	0.019728159	0.006080410
2020-08-06T14:20:00	0.1166	16.601	0.0	0.250554177	0.206154573	0.001894753	0.019547822	0.006024829
2020-08-06T14:25:00	0.1163	16.603	0.0	0.249872216	0.205075290	0.001881412	0.019410183	0.005982407
2020-08-06T14:30:00	0.1166	16.619	0.0	0.250640299	0.206291079	0.001896443	0.019565248	0.006030199
2020-08-06T14:35:00	0.1175	16.666	0.0	0.252443482	0.209159906	0.001932027	0.019932366	0.006143349
2020-08-06T14:40:00	0.1168	16.690	0.0	0.250933533	0.206756216	0.001902201	0.019624655	0.006048509
2020-08-06T14:45:00	0.1170	16.756	0.0	0.251287237	0.207317990	0.001909161	0.019696463	0.006070641
2020-08-06T14:50:00	0.1171	16.839	0.0	0.251640906	0.207880497	0.001916137	0.019768432	0.006092823
2020-08-06T14:55:00	0.1173	16.872	0.0	0.251994540	0.208443736	0.001923128	0.019840559	0.006115053
2020-08-06T15:00:00	0.1172	16.985	0.0	0.251727002	0.208017550	0.001917838	0.019785977	0.006098230
2020-08-06T15:05:00	0.1166	17.050	0.0	0.250631032	0.206276389	0.001896261	0.019563373	0.006029621
2020-08-06T15:10:00	0.1167	16.997	0.0	0.250777653	0.206508886	0.001899138	0.019593060	0.006038772
2020-08-06T15:15:00	0.1165	17.028	0.0	0.250302885	0.205756534	0.001889830	0.019497033	0.006009175
2020-08-06T15:20:00	0.1168	17.204	0.0	0.250863769	0.206645505	0.001900830	0.019610511	0.006044150
2020-08-06T15:25:00	0.1174	17.273	0.0	0.252252797	0.208855562	0.001928244	0.019893339	0.006131320
2020-08-06T15:30:00	0.1171	17.237	0.0	0.251571155	0.207769497	0.001914760	0.019754225	0.006088444
2020-08-06T15:35:00	0.1180	17.240	0.0	0.253373880	0.210648154	0.001950552	0.020123485	0.006202254
2020-08-06T15:40:00	0.1172	17.303	0.0	0.251864315	0.208236232	0.001920552	0.019813979	0.006106861
2020-08-06T15:45:00	0.1177	17.344	0.0	0.252838984	0.209791878	0.001939888	0.020013467	0.006168345
2020-08-06T15:50:00	0.1176	17.390	0.0	0.252571507	0.209364368	0.001934569	0.019958596	0.006151433
2020-08-06T15:55:00	0.1173	17.546	0.0	0.252096973	0.208607029	0.001925156	0.019861483	0.006121502
2020-08-06T16:00:00	0.1177	17.572	0.0	0.252864586	0.209832822	0.001940398	0.020018725	0.006169965
2020-08-06T16:05:00	0.1171	17.509	0.0	0.251506962	0.207667367	0.001913493	0.019741156	0.006084416
2020-08-06T16:10:00	0.1172	17.465	0.0	0.251805685	0.208142844	0.001919393	0.019802020	0.006103175
2020-08-06T16:15:00	0.1161	17.510	0.0	0.249411832	0.204348333	0.001872439	0.019317612	0.005953876
2020-08-06T16:20:00	0.1162	17.458	0.0	0.249710728	0.204820145	0.001878262	0.019377680	0.005972389
2020-08-06T16:25:00	0.1169	17.414	0.0	0.251252358	0.207262559	0.001908474	0.019689375	0.006068457
2020-08-06T16:30:00	0.1163	17.405	0.0	0.249894132	0.205109929	0.001881840	0.019414596	0.005983767
2020-08-06T16:35:00	0.1170	17.364	0.0	0.251435684	0.207553998	0.001912087	0.019726651	0.006079945
2020-08-06T16:40:00	0.1162	17.406	0.0	0.249663186	0.204745061	0.001877335	0.019368118	0.005969442
2020-08-06T16:45:00	0.1159	17.487	0.0	0.249133305	0.203909181	0.001867024	0.019261745	0.005936657
2020-08-06T16:50:00	0.1162	17.547	0.0	0.249639415	0.204707525	0.001876872	0.019363338	0.005967969
2020-08-06T16:55:00	0.1163	17.522	0.0	0.249938292	0.205179735	0.001882702	0.019423492	0.005986509
2020-08-06T17:00:00	0.1159	17.413	0.0	0.249201249	0.204016263	0.001868344	0.019275363	0.005940854
2020-08-06T17:05:00	0.1159	17.386	0.0	0.249085756	0.203834258	0.001866101	0.019252217	0.005933720
2020-08-06T17:10:00	0.1165	17.492	0.0	0.250420521	0.205942817	0.001892134	0.019520798	0.006016500
2020-08-06T17:15:00	0.1164	17.492	0.0	0.250097916	0.205432163	0.001885821	0.019455667	0.005996426
2020-08-06T17:20:00	0.1166	17.412	0.0	0.250603889	0.206233363	0.001895728	0.019557880	0.006027929
2020-08-06T17:25:00	0.1313	17.370	0.0	0.280821669	0.257005635	0.002548717	0.026294648	0.008104266
2020-08-06T17:30:00	0.1317	17.305	0.0	0.281735175	0.258630095	0.002570386	0.026518203	0.008173168
2020-08-06T17:35:00	0.1314	17.326	0.0	0.281003713	0.257328939	0.002553026	0.026339103	0.008117967
2020-08-06T17:40:00	0.1318	17.268	0.0	0.281917185	0.258954387	0.002574718	0.026562888	0.008186940
2020-08-06T17:45:00	0.1312	17.185	0.0	0.280774480	0.256921863	0.002547601	0.026283133	0.008100717
2020-08-06T17:50:00	0.1310	17.163	0.0	0.280248544	0.255989150	0.002535182	0.026155003	0.008061226
2020-08-06T17:55:00	0.1312	17.107	0.0	0.280750885	0.256879982	0.002547043	0.026277376	0.008098943
2020-08-06T18:00:00	0.1316	17.032	0.0	0.281458793	0.258138060	0.002563818	0.026450440	0.008152282
2020-08-06T18:05:00	0.1314	16.970	0.0	0.281138564	0.257568565	0.002556221	0.026372064	0.008128126
2020-08-06T18:10:00	0.1318	16.936	0.0	0.281846417	0.258828273	0.002573033	0.026545508	0.008181583
2020-08-06T18:15:00	0.1316	16.870	0.0	0.281526213	0.258258042	0.002565419	0.026466960	0.008157374
2020-08-06T18:20:00	0.1322	16.813	0.0	0.282645159	0.260253522	0.002592087	0.026742087	0.008242171
2020-08-06T18:25:00	0.1323	16.752	0.0	0.282941707	0.260783694	0.002599184	0.026815304	0.008264737
2020-08-06T18:30:00	0.1324	16.705	0.0	0.283238236	0.261314390	0.002606293	0.026888643	0.008287341
2020-08-06T18:35:00	0.1331	16.655	0.0	0.284562290	0.263690794	0.002638185	0.027217664	0.008388748
2020-08-06T18:40:00	0.1333	16.613	0.0	0.285064196	0.264594499	0.002650338	0.027343047	0.008427393
2020-08-06T18:45:00	0.1341	16.569	0.0	0.286593185	0.267357303	0.002687579	0.027727259	0.008545810
2020-08-06T18:50:00	0.1347	16.517	0.0	0.287916372	0.269760129	0.002720074	0.028062497	0.008649134
2020-08-06T18:55:00	0.1351	16.479	0.0	0.288623282	0.271048357	0.002737535	0.028242643	0.008704657
2020-08-06T19:00:00	0.1352	16.449	0.0	0.288919484	0.271589072	0.002744872	0.028318342	0.008727988
2020-08-06T19:05:00	0.1358	16.403	0.0	0.290036819	0.273633742	0.002772663	0.028605050	0.008816354
2020-08-06T19:10:00	0.1363	16.358	0.0	0.291153920	0.275685852	0.002800624	0.028893527	0.008905266
2020-08-06T19:15:00	0.1367	16.314	0.0	0.292065600	0.277366434	0.002823576	0.029130313	0.008978245
2020-08-06T19:20:00	0.1373	16.276	0.0	0.293182283	0.279432057	0.002851850	0.029422011	0.009068150
2020-08-06T19:25:00	0.1370	16.227	0.0	0.292657607	0.278460541	0.002838543	0.029284727	0.009025837
2020-08-06T19:30:00	0.1373	16.189	0.0	0.293158744	0.279388435	0.002851252	0.029415843	0.009066249
2020-08-06T19:35:00	0.1375	16.152	0.0	0.293659836	0.280317827	0.002863996	0.029547318	0.009106770
2020-08-06T19:40:00	0.1378	16.109	0.0	0.294160882	0.281248718	0.002876774	0.029679151	0.009147403
2020-08-06T19:45:00	0.1381	16.066	0.0	0.294866976	0.282563254	0.002894843	0.029865566	0.009204858
2020-08-06T19:50:00	0.1382	16.028	0.0	0.294957755	0.282732485	0.002897172	0.029889586	0.009212261
2020-08-06T19:55:00	0.1382	16.000	0.0	0.295048532	0.282901765	0.002899501	0.029913618	0.009219668
2020-08-06T20:00:00	0.1383	15.966	0.0	0.295344385	0.283453826	0.002907101	0.029992024	0.009243833
2020-08-06T20:05:00	0.1385	15.937	0.0	0.295640221	0.284006410	0.002914713	0.030070557	0.009268038
2020-08-06T20:10:00	0.1382	15.916	0.0	0.295115778	0.283027197	0.002901227	0.029931428	0.009225157
2020-08-06T20:15:00	0.1384	15.896	0.0	0.295411627	0.283579378	0.002908830	0.030009863	0.009249331
2020-08-06T20:20:00	0.1382	15.871	0.0	0.295092248	0.282983304	0.002900623	0.029925195	0.009223236
2020-08-06T20:25:00	0.1381	15.845	0.0	0.294772851	0.282387839	0.002892431	0.029840674	0.009197185
2020-08-06T20:30:00	0.1377	15.814	0.0	0.294043210	0.281029954	0.002873770	0.029648156	0.009137850
2020-08-06T20:35:00	0.1374	15.783	0.0	0.293313473	0.279675246	0.002855183	0.029456401	0.009078749
2020-08-06T20:40:00	0.1375	15.748	0.0	0.293609417	0.280224243	0.002862712	0.029534073	0.009102688
2020-08-06T20:45:00	0.1375	15.723	0.0	0.293700217	0.280392792	0.002865024	0.029557929	0.009110041
2020-08-06T20:50:00	0.1374	15.695	0.0	0.293380740	0.279799982	0.002856894	0.029474044	0.009084187
2020-08-06T20:55:00	0.1375	15.672	0.0	0.293676681	0.280349097	0.002864425	0.029551744	0.009108134
2020-08-06T21:00:00	0.1375	15.645	0.0	0.293562344	0.280136882	0.002861514	0.029521709	0.009098878
2020-08-06T21:05:00	0.1376	15.620	0.0	0.293858275	0.280686318	0.002869053	0.029599486	0.009122849
2020-08-06T21:10:00	0.1377	15.596	0.0	0.293949071	0.280855002	0.002871368	0.029623375	0.009130212
2020-08-06T21:15:00	0.1375	15.569	0.0	0.293629608	0.280261718	0.002863226	0.029539376	0.009104323
2020-08-06T21:20:00	0.1376	15.542	0.0	0.293720407	0.280430278	0.002865539	0.029563235	0.009111676
2020-08-06T21:25:00	0.1372	15.514	0.0	0.292990627	0.279076977	0.002846985	0.029371816	0.009052679
2020-08-06T21:30:00	0.1373	15.486	0.0	0.293286589	0.279625403	0.002854500	0.029449352	0.009076576
2020-08-06T21:35:00	0.1377	15.460	0.0	0.293992795	0.280936254	0.002872484	0.029634883	0.009133759
2020-08-06T21:40:00	0.1374	15.427	0.0	0.293468197	0.279962200	0.002859118	0.029496993	0.009091260
2020-08-06T21:45:00	0.1373	15.398	0.0	0.293148706	0.279369833	0.002850997	0.029413213	0.009065438
2020-08-06T21:50:00	0.1375	15.372	0.0	0.293649799	0.280299195	0.002863740	0.029544681	0.009105958
2020-08-06T21:55:00	0.1375	15.346	0.0	0.293535462	0.280086998	0.002860829	0.029514651	0.009096702
2020-08-06T22:00:00	0.1371	15.319	236.0	0.292805657	0.278734503	0.002842294	0.029323424	0.009037764
2020-08-06T22:05:00	0.1368	15.288	194.0	0.292102971	0.277435436	0.002824519	0.029140045	0.008981245
2020-08-06T22:10:00	0.1367	15.262	55.0	0.292015817	0.277274530	0.002822320	0.029117352	0.008974251
2020-08-06T22:15:00	0.1362	15.237	0.0	0.290902568	0.275223433	0.002794318	0.028828459	0.008885211
2020-08-06T22:20:00	0.1367	15.212	0.0	0.292046705	0.277331550	0.002823099	0.029125393	0.008976729
2020-08-06T22:25:00	0.1365	15.187	0.0	0.291549138	0.276413750	0.002810560	0.028996025	0.008936856
2020-08-06T22:30:00	0.1365	15.160	0.0	0.291461975	0.276253132	0.002808367	0.028973400	0.008929883
2020-08-06T22:35:00	0.1364	15.134	0.0	0.291374811	0.276092560	0.002806175	0.028950786	0.008922913
2020-08-06T22:40:00	0.1364	15.108	0.0	0.291287646	0.275932034	0.002803984	0.028928182	0.008915947
2020-08-06T22:45:00	0.1358	15.085	0.0	0.290174246	0.273885771	0.002776093	0.028640440	0.008827262
2020-08-06T22:50:00	0.1359	15.062	0.0	0.290292327	0.274102416	0.002779043	0.028670871	0.008836641
2020-08-06T22:55:00	0.1356	15.039	0.0	0.289794598	0.273189822	0.002766623	0.028542741	0.008797150
2020-08-06T23:00:00	0.1356	15.019	0.0	0.289707407	0.273030116	0.002764451	0.028520333	0.008790244
2020-08-06T23:05:00	0.1352	14.998	0.0	0.288799001	0.271369064	0.002741886	0.028287535	0.008718493
2020-08-06T23:10:00	0.1351	14.977	0.0	0.288711794	0.271209876	0.002739726	0.028265250	0.008711624
2020-08-06T23:15:00	0.1349	14.959	0.0	0.288213916	0.270301970	0.002727415	0.028138233	0.008672477
2020-08-06T23:20:00	0.1348	14.940	0.0	0.288126699	0.270143086	0.002725261	0.028116020	0.008665630
2020-08-06T23:25:00	0.1349	14.920	0.0	0.288244826	0.270358290	0.002728178	0.028146108	0.008674904
2020-08-06T23:30:00	0.1347	14.901	0.0	0.287952261	0.269825454	0.002720958	0.028071625	0.008651948
2020-08-06T23:35:00	0.1344	14.881	0.0	0.287248935	0.268546726	0.002703652	0.027893079	0.008596918
2020-08-06T23:40:00	0.1344	14.859	0.0	0.287161702	0.268388343	0.002701510	0.027870984	0.008590108
2020-08-06T23:45:00	0.1344	14.838	0.0	0.287279850	0.268602867	0.002704411	0.027900912	0.008599332
2020-08-06T23:50:00	0.1336	14.819	0.0	0.285549298	0.265469458	0.002662118	0.027464579	0.008464850
2020-08-06T23:55:00	0.1340	14.800	0.0	0.286489190	0.267168922	0.002685036	0.027701019	0.008537723
2020-08-07T00:00:00	0.1340	14.782	0.0	0.286401944	0.267010934	0.002682903	0.027679017	0.008530942
2020-08-07T00:05:00	0.1337	14.764	0.0	0.285903846	0.266109878	0.002670748	0.027553618	0.008492293
2020-08-07T00:10:00	0.1339	14.748	0.0	0.286227447	0.266695093	0.002678641	0.027635046	0.008517390
2020-08-07T00:15:00	0.1339	14.727	0.0	0.286140197	0.266537241	0.002676512	0.027613076	0.008510618
2020-08-07T00:20:00	0.1332	14.699	0.0	0.284820231	0.264155030	0.002644426	0.027282055	0.008408594
2020-08-07T00:25:00	0.1337	14.674	0.0	0.285760256	0.265850417	0.002667251	0.027517536	0.008481172
2020-08-07T00:30:00	0.1328	14.652	0.0	0.284029191	0.262732661	0.002625315	0.027084887	0.008347825
2020-08-07T00:35:00	0.1327	14.632	0.0	0.283736386	0.262207169	0.002618263	0.027012134	0.008325402
2020-08-07T00:40:00	0.1321	14.604	0.0	0.282621364	0.260211004	0.002591518	0.026736217	0.008240362
2020-08-07T00:45:00	0.1317	14.584	0.0	0.281711701	0.258588287	0.002569828	0.026512443	0.008171393
2020-08-07T00:50:00	0.1316	14.565	0.0	0.281418760	0.258066829	0.002562868	0.026440634	0.008149260
2020-08-07T00:55:00	0.1314	14.543	0.0	0.281125801	0.257545881	0.002555919	0.026368943	0.008127164
2020-08-07T01:00:00	0.1307	14.534	0.0	0.279598821	0.254839313	0.002519892	0.025997263	0.008012609
2020-08-07T01:05:00	0.1307	14.519	0.0	0.279717147	0.255048522	0.002522672	0.026025945	0.008021449
2020-08-07T01:10:00	0.1311	14.487	0.0	0.280452482	0.256350614	0.002539993	0.026204640	0.008076525
2020-08-07T01:15:00	0.1311	14.467	0.0	0.280570788	0.256560422	0.002542787	0.026233462	0.008085408
2020-08-07T01:20:00	0.1311	14.445	0.0	0.280483439	0.256405506	0.002540724	0.026212180	0.008078848
2020-08-07T01:25:00	0.1312	14.422	0.0	0.280601744	0.256615335	0.002543518	0.026241007	0.008087733
2020-08-07T01:30:00	0.1314	14.401	0.0	0.281131321	0.257555692	0.002556050	0.026370293	0.008127580
2020-08-07T01:35:00	0.1312	14.393	0.0	0.280632700	0.256670254	0.002544250	0.026248553	0.008090059
2020-08-07T01:40:00	0.1315	14.361	0.0	0.281367897	0.257976344	0.002561660	0.026428178	0.008145421
2020-08-07T01:45:00	0.1308	14.351	0.0	0.279840992	0.255267581	0.002525584	0.026055987	0.008030708
2020-08-07T01:50:00	0.1309	14.345	0.0	0.279959313	0.255476959	0.002528368	0.026084709	0.008039561
2020-08-07T01:55:00	0.1305	14.335	0.0	0.279254868	0.254231685	0.002511822	0.025914002	0.007986947
2020-08-07T02:00:00	0.1298	14.302	0.0	0.277727295	0.251542082	0.002476177	0.025546261	0.007873606
2020-08-07T02:05:00	0.1292	14.295	0.0	0.276610894	0.249585730	0.002450330	0.025279603	0.007791419
2020-08-07T02:10:00	0.1297	14.290	0.0	0.277552492	0.251235244	0.002472119	0.025504391	0.007860701
2020-08-07T02:15:00	0.1295	14.267	0.0	0.277259299	0.250721021	0.002465321	0.025434262	0.007839087
2020-08-07T02:20:00	0.1290	14.264	0.0	0.276142787	0.248767768	0.002439543	0.025168320	0.007757121
2020-08-07T02:25:00	0.1289	14.237	0.0	0.275849506	0.248255997	0.002432801	0.025098756	0.007735680
2020-08-07T02:30:00	0.1292	14.209	0.0	0.276585437	0.249541212	0.002449743	0.025273543	0.007789551
2020-08-07T02:35:00	0.1296	14.196	0.0	0.277321253	0.250829636	0.002466756	0.025449071	0.007843651
2020-08-07T02:40:00	0.1292	14.171	0.0	0.276616419	0.249595392	0.002450458	0.025280918	0.007791825
2020-08-07T02:45:00	0.1293	14.155	0.0	0.276734820	0.249802506	0.002453191	0.025309116	0.007800515
2020-08-07T02:50:00	0.1295	14.142	0.0	0.277264823	0.250730705	0.002465449	0.025435582	0.007839493
2020-08-07T02:55:00	0.1303	14.128	0.0	0.278823511	0.253470704	0.002501724	0.025809822	0.007954838
2020-08-07T03:00:00	0.1306	14.115	0.0	0.279353282	0.254405469	0.002514129	0.025937808	0.007994284
2020-08-07T03:05:00	0.1311	14.120	0.0	0.280500001	0.256434874	0.002541115	0.026216214	0.008080092
2020-08-07T03:10:00	0.1312	14.102	0.0	0.280618305	0.256644715	0.002543909	0.026245044	0.008088977
2020-08-07T03:15:00	0.1313	14.095	0.0	0.280942248	0.257219756	0.002551571	0.026324088	0.008113340
2020-08-07T03:20:00	0.1318	14.071	0.0	0.281883000	0.258893464	0.002573904	0.026554491	0.008184352
2020-08-07T03:25:00	0.1320	14.069	0.0	0.282412440	0.259837850	0.002586527	0.026684717	0.008224489
2020-08-07T03:30:00	0.1324	14.063	0.0	0.283147372	0.261151713	0.002604113	0.026866157	0.008280411
2020-08-07T03:35:00	0.1323	14.046	0.0	0.282854516	0.260627756	0.002597096	0.026793764	0.008258098
2020-08-07T03:40:00	0.1327	14.040	0.0	0.283794906	0.262312152	0.002619671	0.027026665	0.008329881
2020-08-07T03:45:00	0.1329	14.036	0.0	0.284118642	0.262893306	0.002627471	0.027107138	0.008354683
2020-08-07T03:50:00	0.1336	14.042	0.0	0.285675162	0.265696716	0.002665180	0.027496167	0.008474586
2020-08-07T03:55:00	0.1340	14.033	0.0	0.286409621	0.267024835	0.002683091	0.027680953	0.008531539
2020-08-07T04:00:00	0.1339	14.027	0.0	0.286322374	0.266866888	0.002680959	0.027658961	0.008524760
2020-08-07T04:05:00	0.1345	14.005	0.0	0.287405672	0.268831422	0.002707503	0.027932806	0.008609162
2020-08-07T04:10:00	0.1350	14.002	0.0	0.288488745	0.270802942	0.002734206	0.028208302	0.008694073
2020-08-07T04:15:00	0.1350	13.996	0.0	0.288545049	0.270905634	0.002735599	0.028222670	0.008698501
2020-08-07T04:20:00	0.1349	13.992	0.0	0.288190682	0.270259639	0.002726841	0.028132314	0.008670652
2020-08-07T04:25:00	0.1352	13.995	0.0	0.288862975	0.271485873	0.002743472	0.028303890	0.008723534
2020-08-07T04:30:00	0.1348	13.999	0.0	0.288097952	0.270090728	0.002724552	0.028108701	0.008663374
2020-08-07T04:35:00	0.1354	14.004	0.0	0.289386183	0.272442152	0.002756459	0.028437875	0.008764829
2020-08-07T04:40:00	0.1358	14.003	0.0	0.290058325	0.273673174	0.002773199	0.028610587	0.008818061
2020-08-07T04:45:00	0.1357	13.999	0.0	0.289909339	0.273400063	0.002769483	0.028572247	0.008806244
2020-08-07T04:50:00	0.1361	14.001	0.0	0.290786662	0.275010333	0.002791412	0.028798485	0.008875973
2020-08-07T04:55:00	0.1362	14.004	0.0	0.291048178	0.275491268	0.002797970	0.028866142	0.008896825
2020-08-07T05:00:00	0.1367	14.005	0.0	0.291925315	0.277107494	0.002820037	0.029093798	0.008966991
2020-08-07T05:05:00	0.1372	14.014	0.0	0.293007474	0.279108179	0.002847412	0.029376227	0.009054038
2020-08-07T05:10:00	0.1375	14.025	0.0	0.293679167	0.280353712	0.002864488	0.029552397	0.009108336
2020-08-07T05:15:00	0.1380	14.037	0.0	0.294555883	0.281983704	0.002886874	0.029783344	0.009179516
2020-08-07T05:20:00	0.1382	14.046	0.0	0.295022307	0.282852856	0.002898828	0.029906674	0.009217527
2020-08-07T05:25:00	0.1380	14.057	0.0	0.294668364	0.282193179	0.002889754	0.029813056	0.009188673
2020-08-07T05:30:00	0.1379	14.070	0.0	0.294519504	0.281915972	0.002885943	0.029773738	0.009176555
2020-08-07T05:35:00	0.1381	14.083	0.0	0.294780842	0.282402729	0.002892635	0.029842786	0.009197837
2020-08-07T05:40:00	0.1382	14.102	0.0	0.295042168	0.282889895	0.002899338	0.029911933	0.009219148
2020-08-07T05:45:00	0.1383	14.123	0.0	0.295303481	0.283377468	0.002906049	0.029981177	0.009240490
2020-08-07T05:50:00	0.1386	14.146	0.0	0.295769844	0.284248702	0.002918052	0.030105007	0.009278655
2020-08-07T05:55:00	0.1385	14.169	0.0	0.295621013	0.283970516	0.002914218	0.030065454	0.009266465
2020-08-07T06:00:00	0.1385	14.198	0.0	0.295677243	0.284075601	0.002915666	0.030080394	0.009271069
2020-08-07T06:05:00	0.1390	14.229	0.0	0.296758672	0.286100516	0.002943605	0.030368632	0.009359907
2020-08-07T06:10:00	0.1388	14.263	0.0	0.296199799	0.285053138	0.002929146	0.030219456	0.009313930
2020-08-07T06:15:00	0.1391	14.299	0.0	0.296871109	0.286311470	0.002946520	0.030398700	0.009369175
2020-08-07T06:20:00	0.1393	14.341	0.0	0.297337342	0.287187071	0.002958624	0.030523582	0.009407664
2020-08-07T06:25:00	0.1395	14.384	0.0	0.297803537	0.288063971	0.002970759	0.030648778	0.009446251
2020-08-07T06:30:00	0.1401	14.426	0.0	0.298884563	0.290102624	0.002999020	0.030940331	0.009536111
2020-08-07T06:35:00	0.1400	14.463	0.0	0.298735814	0.289821669	0.002995121	0.030900110	0.009523714
2020-08-07T06:40:00	0.1405	14.501	0.0	0.299816667	0.291866347	0.003023522	0.031193122	0.009614023
2020-08-07T06:45:00	0.1400	14.541	0.0	0.298643262	0.289646927	0.002992697	0.030875101	0.009516006
2020-08-07T06:50:00	0.1401	14.585	0.0	0.298904410	0.290140122	0.002999540	0.030945700	0.009537765
2020-08-07T06:55:00	0.1400	14.625	0.0	0.298755662	0.289859148	0.002995641	0.030905475	0.009525367
2020-08-07T07:00:00	0.1394	14.667	0.0	0.297582042	0.287647174	0.002964990	0.030589255	0.009427906
2020-08-07T07:05:00	0.1394	14.712	0.0	0.297433259	0.287367376	0.002961119	0.030549314	0.009415595
2020-08-07T07:10:00	0.1395	14.784	0.0	0.297694462	0.287858682	0.002967917	0.030619457	0.009437214
2020-08-07T07:15:00	0.1400	14.845	0.0	0.298775509	0.289896630	0.002996161	0.030910840	0.009527021
2020-08-07T07:20:00	0.1400	14.916	0.0	0.298831708	0.290002775	0.002997634	0.030926036	0.009531705
2020-08-07T07:25:00	0.1400	14.991	0.0	0.298682957	0.289721866	0.002993736	0.030885826	0.009519311
2020-08-07T07:30:00	0.1397	15.114	0.0	0.298124273	0.288668061	0.002979126	0.030735098	0.009472856
2020-08-07T07:35:00	0.1395	15.425	0.0	0.297770522	0.288001826	0.002969899	0.030639901	0.009443515
2020-08-07T07:40:00	0.1403	16.131	0.0	0.299261434	0.290815077	0.003008911	0.031042384	0.009567564
2020-08-07T07:45:00	0.1413	16.052	0.0	0.301366571	0.294811199	0.003064545	0.031616346	0.009744465
2020-08-07T07:50:00	0.1419	16.246	0.0	0.302651759	0.297264572	0.003098827	0.031970022	0.009853471
2020-08-07T07:55:00	0.1426	16.294	0.0	0.304141439	0.300121347	0.003138865	0.032383088	0.009980782
2020-08-07T08:00:00	0.1422	16.038	0.0	0.303173690	0.298263892	0.003112818	0.032114364	0.009897959
2020-08-07T08:05:00	0.1412	16.009	0.0	0.301181548	0.294458855	0.003059629	0.031565633	0.009728835
2020-08-07T08:10:00	0.1416	16.034	0.0	0.302057120	0.296128135	0.003082935	0.031806072	0.009802940
2020-08-07T08:15:00	0.1412	16.042	0.0	0.301293899	0.294672782	0.003062614	0.031596421	0.009738324
2020-08-07T08:20:00	0.1414	16.085	0.0	0.301554929	0.295170116	0.003069554	0.031668026	0.009760393
2020-08-07T08:25:00	0.1418	16.189	0.0	0.302430446	0.296841353	0.003092906	0.031908941	0.009834645
2020-08-07T08:30:00	0.1417	16.320	0.0	0.302281787	0.296557242	0.003088933	0.031867953	0.009822013
2020-08-07T08:35:00	0.1420	16.417	0.0	0.302747589	0.297447925	0.003101392	0.031996493	0.009861630
2020-08-07T08:40:00	0.1430	16.426	0.0	0.304851497	0.301487958	0.003158063	0.032581157	0.010041829
2020-08-07T08:45:00	0.1434	16.701	0.0	0.305726538	0.303176475	0.003181825	0.032826298	0.010117384
2020-08-07T08:50:00	0.1432	16.586	0.0	0.305373239	0.302494153	0.003172217	0.032727182	0.010086835
2020-08-07T08:55:00	0.1436	16.539	0.0	0.306043508	0.303789307	0.003190460	0.032915383	0.010144841
2020-08-07T09:00:00	0.1424	16.574	0.0	0.303642763	0.299163472	0.003125426	0.032244440	0.009938049
2020-08-07T09:05:00	0.1423	16.836	0.0	0.303494133	0.298878282	0.003121427	0.032203188	0.009925335
2020-08-07T09:10:00	0.1423	17.072	0.0	0.303550287	0.298986014	0.003122937	0.032218770	0.009930138
2020-08-07T09:15:00	0.1425	17.014	0.0	0.303811219	0.299486874	0.003129961	0.032291234	0.009952472
2020-08-07T09:20:00	0.1431	17.702	0.0	0.305095886	0.301959057	0.003164688	0.032649505	0.010062895
2020-08-07T09:25:00	0.1438	17.417	0.0	0.306584971	0.304837639	0.003205244	0.033067915	0.010191852
2020-08-07T09:30:00	0.1425	17.541	0.0	0.303774898	0.299417130	0.003128983	0.032281141	0.009949361
2020-08-07T09:35:00	0.1419	17.928	0.0	0.302602277	0.297169921	0.003097502	0.031956359	0.009849260
2020-08-07T09:40:00	0.1429	18.189	0.0	0.304706236	0.301208123	0.003154130	0.032540575	0.010029321
2020-08-07T09:45:00	0.1415	18.470	0.0	0.301895296	0.295819253	0.003078619	0.031761547	0.009789217
2020-08-07T09:50:00	0.1435	18.367	0.0	0.305842143	0.303399914	0.003184972	0.032858771	0.010127392
2020-08-07T09:55:00	0.1395	19.711	0.0	0.297704492	0.287877556	0.002968179	0.030622152	0.009438045
2020-08-07T10:00:00	0.1414	19.701	0.0	0.301654118	0.295359210	0.003072194	0.031695261	0.009768787
2020-08-07T10:05:00	0.1430	19.507	0.0	0.304898154	0.301577868	0.003159327	0.032594199	0.010045849
2020-08-07T10:10:00	0.1422	19.504	0.0	0.303227365	0.298366759	0.003114259	0.032129232	0.009902541
2020-08-07T10:15:00	0.1408	19.395	0.0	0.300326872	0.292834076	0.003036988	0.031332043	0.009656840
2020-08-07T10:20:00	0.1414	19.298	0.0	0.301523444	0.295110105	0.003068717	0.031659383	0.009757729
2020-08-07T10:25:00	0.1422	19.093	0.0	0.303334180	0.298571522	0.003117128	0.032158832	0.009911664
2020-08-07T10:30:00	0.1417	18.947	0.0	0.302277472	0.296548998	0.003088818	0.031866764	0.009821646
2020-08-07T10:35:00	0.1417	18.856	0.0	0.302244807	0.296486590	0.003087945	0.031857762	0.009818872
2020-08-07T10:40:00	0.1418	18.901	0.0	0.302416968	0.296815588	0.003092546	0.031905223	0.009833500
2020-08-07T10:45:00	0.1406	19.042	0.0	0.299925911	0.292073417	0.003026402	0.031222835	0.009623181
2020-08-07T10:50:00	0.1403	19.011	0.0	0.299278471	0.290847306	0.003009359	0.031047002	0.009568988
2020-08-07T10:55:00	0.1407	19.127	0.0	0.300270363	0.292726811	0.003035495	0.031316638	0.009652092
2020-08-07T11:00:00	0.1402	19.245	0.0	0.299213108	0.290723669	0.003007642	0.031029286	0.009563527
2020-08-07T11:05:00	0.1402	19.144	0.0	0.299180426	0.290661861	0.003006783	0.031020430	0.009560798
2020-08-07T11:10:00	0.1409	19.023	0.0	0.300582121	0.293318833	0.003043739	0.031401690	0.009678306
2020-08-07T11:15:00	0.1401	19.200	0.0	0.298910121	0.290150911	0.002999690	0.030947245	0.009538242
2020-08-07T11:20:00	0.1396	19.304	0.0	0.297852618	0.288156371	0.002972039	0.030661977	0.009450319
2020-08-07T11:25:00	0.1395	19.307	0.0	0.297614941	0.287709063	0.002965847	0.030598092	0.009430629
2020-08-07T11:30:00	0.1405	19.322	0.0	0.299836719	0.291904350	0.003024051	0.031198575	0.009615704
2020-08-07T11:35:00	0.1404	19.408	0.0	0.299599124	0.291454224	0.003017792	0.031134007	0.009595803
2020-08-07T11:40:00	0.1379	19.967	0.0	0.294441123	0.281770067	0.002883937	0.029753049	0.009170179
2020-08-07T11:45:00	0.1399	19.908	0.0	0.298509062	0.289393649	0.002989184	0.030838860	0.009504836
2020-08-07T11:50:00	0.1395	19.692	0.0	0.297656478	0.287787210	0.002966928	0.030609250	0.009434068
2020-08-07T11:55:00	0.1392	19.533	0.0	0.297008784	0.286569886	0.002950091	0.030435543	0.009380530
2020-08-07T12:00:00	0.1391	19.557	0.0	0.296976089	0.286508508	0.002949243	0.030426791	0.009377833
2020-08-07T12:05:00	0.1372	20.210	0.0	0.293046767	0.279180964	0.002848409	0.029386514	0.009057209
2020-08-07T12:10:00	0.1384	20.149	0.0	0.295475408	0.283698492	0.002910471	0.030026789	0.009254548
2020-08-07T12:15:00	0.1389	19.958	0.0	0.296467956	0.285555443	0.002936078	0.030290976	0.009335973
2020-08-07T12:20:00	0.1391	19.869	0.0	0.296845310	0.286263060	0.002945851	0.030391800	0.009367048
2020-08-07T12:25:00	0.1386	19.795	0.0	0.295787425	0.284281574	0.002918505	0.030109681	0.009280096
2020-08-07T12:30:00	0.1379	19.781	0.0	0.294524243	0.281924795	0.002886064	0.029774990	0.009176941
2020-08-07T12:35:00	0.1382	19.665	0.0	0.295106812	0.283010472	0.002900997	0.029929053	0.009224425
2020-08-07T12:40:00	0.1383	19.591	0.0	0.295279186	0.283332117	0.002905425	0.029974734	0.009238504
2020-08-07T12:45:00	0.1381	19.557	0.0	0.294836314	0.282506104	0.002894057	0.029857456	0.009202358
2020-08-07T12:50:00	0.1382	19.533	0.0	0.295008696	0.282827472	0.002898479	0.029903070	0.009216417
2020-08-07T12:55:00	0.1380	19.548	0.0	0.294565802	0.282002174	0.002887128	0.029785963	0.009180323
2020-08-07T13:00:00	0.1374	19.580	0.0	0.293507487	0.280035093	0.002860118	0.029507306	0.009094438
2020-08-07T13:05:00	0.1370	19.641	0.0	0.292654145	0.278454136	0.002838456	0.029283823	0.009025559
2020-08-07T13:10:00	0.1377	19.642	0.0	0.294057451	0.281056425	0.002874134	0.029651907	0.009139006
2020-08-07T13:15:00	0.1376	19.604	0.0	0.293819615	0.280614508	0.002868067	0.029589318	0.009119715
2020-08-07T13:20:00	0.1376	19.588	0.0	0.293786902	0.280553753	0.002867233	0.029580716	0.009117064
2020-08-07T13:25:00	0.1381	19.628	0.0	0.294779750	0.282400695	0.002892607	0.029842498	0.009197748
2020-08-07T13:30:00	0.1383	19.644	0.0	0.295157217	0.283104507	0.002902291	0.029942406	0.009228540
2020-08-07T13:35:00	0.1387	19.672	0.0	0.296149822	0.284959571	0.002927855	0.030206139	0.009309825
2020-08-07T13:40:00	0.1381	19.705	0.0	0.294886721	0.282600058	0.002895350	0.029870790	0.009206467
2020-08-07T13:45:00	0.1378	19.803	0.0	0.294238709	0.281393454	0.002878762	0.029699662	0.009153724
2020-08-07T13:50:00	0.1370	19.915	0.0	0.292564839	0.278288947	0.002836195	0.029260496	0.009018369
2020-08-07T13:55:00	0.1377	19.924	0.0	0.293968168	0.280890489	0.002871855	0.029628401	0.009131761
2020-08-07T14:00:00	0.1376	19.879	0.0	0.293730328	0.280448698	0.002865792	0.029565843	0.009112480
2020-08-07T14:05:00	0.1374	19.934	0.0	0.293492477	0.280007245	0.002859736	0.029503366	0.009093224
2020-08-07T14:10:00	0.1369	19.909	0.0	0.292433956	0.278046945	0.002832883	0.029226332	0.009007839
2020-08-07T14:15:00	0.1373	19.905	0.0	0.293221900	0.279505485	0.002852856	0.029432394	0.009071350
2020-08-07T14:20:00	0.1371	19.944	0.0	0.292778864	0.278684912	0.002841615	0.029316419	0.009035605
2020-08-07T14:25:00	0.1376	19.892	0.0	0.293771893	0.280525880	0.002866851	0.029576770	0.009115848
2020-08-07T14:30:00	0.1374	19.965	0.0	0.293328901	0.279703853	0.002855576	0.029460447	0.009079996
2020-08-07T14:35:00	0.1383	19.951	0.0	0.295347288	0.283459247	0.002907176	0.029992795	0.009244071
2020-08-07T14:40:00	0.1377	19.890	0.0	0.294084006	0.281105788	0.002874811	0.029658900	0.009141161
2020-08-07T14:45:00	0.1368	19.901	0.0	0.292204904	0.277623688	0.002827093	0.029166602	0.008989430
2020-08-07T14:50:00	0.1377	19.899	0.0	0.294018583	0.280984181	0.002873142	0.029641672	0.009135851
2020-08-07T14:55:00	0.1380	19.927	0.0	0.294601205	0.282068099	0.002888034	0.029795314	0.009183205
2020-08-07T15:00:00	0.1389	19.862	0.0	0.296414103	0.285454530	0.002934685	0.030276604	0.009331543
2020-08-07T15:05:00	0.1386	19.823	0.0	0.295971321	0.284625515	0.002923247	0.030158604	0.009295175
2020-08-07T15:10:00	0.1388	19.789	0.0	0.296348707	0.285332012	0.002932994	0.030259158	0.009326166
2020-08-07T15:15:00	0.1388	19.722	0.0	0.296316009	0.285270763	0.002932149	0.030250437	0.009323478
2020-08-07T15:20:00	0.1389	19.701	0.0	0.296488346	0.285593654	0.002936606	0.030296418	0.009337650
2020-08-07T15:25:00	0.1388	19.649	0.0	0.296250612	0.285148285	0.002930459	0.030233000	0.009318104
2020-08-07T15:30:00	0.1398	19.630	0.0	0.298267953	0.288938888	0.002982879	0.030773817	0.009484789
2020-08-07T15:35:00	0.1401	19.591	0.0	0.298850139	0.290037591	0.002998117	0.030931020	0.009533241
2020-08-07T15:40:00	0.1399	19.600	0.0	0.298612504	0.289588867	0.002991891	0.030866792	0.009513445
2020-08-07T15:45:00	0.1399	19.585	0.0	0.298579818	0.289527175	0.002991036	0.030857965	0.009510724
2020-08-07T15:50:00	0.1403	19.596	0.0	0.299366905	0.291014625	0.003011683	0.031070982	0.009576379
2020-08-07T15:55:00	0.1400	19.585	0.0	0.298719402	0.289790679	0.002994691	0.030895674	0.009522347
2020-08-07T16:00:00	0.1406	19.519	0.0	0.299916302	0.292055201	0.003026149	0.031220221	0.009622375
2020-08-07T16:05:00	0.1403	19.476	0.0	0.299332390	0.290949316	0.003010776	0.031061622	0.009573494
2020-08-07T16:10:00	0.1400	19.411	0.0	0.298748419	0.289845471	0.002995451	0.030903517	0.009524764
2020-08-07T16:15:00	0.1397	19.344	0.0	0.298164389	0.288743665	0.002980174	0.030745906	0.009476187
2020-08-07T16:20:00	0.1397	19.308	0.0	0.298195243	0.288801818	0.002980980	0.030754219	0.009478749
2020-08-07T16:25:00	0.1398	19.261	0.0	0.298431061	0.289246490	0.002987144	0.030817809	0.009498348
2020-08-07T16:30:00	0.1396	19.211	0.0	0.297846999	0.288145793	0.002971892	0.030660466	0.009449853
2020-08-07T16:35:00	0.1389	19.150	0.0	0.296442806	0.285508313	0.002935427	0.030284263	0.009333904
2020-08-07T16:40:00	0.1393	19.082	0.0	0.297293736	0.287105121	0.002957491	0.030511889	0.009404060
2020-08-07T16:45:00	0.1392	19.042	0.0	0.297119590	0.286777956	0.002952967	0.030465216	0.009389676
2020-08-07T16:50:00	0.1388	18.987	0.0	0.296330361	0.285297646	0.002932520	0.030254265	0.009324658
2020-08-07T16:55:00	0.1387	18.948	0.0	0.296156185	0.284971484	0.002928019	0.030207834	0.009310348
2020-08-07T17:00:00	0.1387	18.900	0.0	0.295982004	0.284645502	0.002923523	0.030161447	0.009296051
2020-08-07T17:05:00	0.1385	18.834	0.0	0.295602758	0.283936403	0.002913748	0.030060604	0.009264970
2020-08-07T17:10:00	0.1380	18.756	0.0	0.294608221	0.282081164	0.002888214	0.029797167	0.009183776
2020-08-07T17:15:00	0.1378	18.690	0.0	0.294228882	0.281375176	0.002878511	0.029697072	0.009152926
2020-08-07T17:20:00	0.1375	18.640	0.0	0.293644385	0.280289146	0.002863602	0.029543258	0.009105519
2020-08-07T17:25:00	0.1378	18.588	0.0	0.294290631	0.281490037	0.002880089	0.029713351	0.009157943
2020-08-07T17:30:00	0.1380	18.520	0.0	0.294731711	0.282311188	0.002891376	0.029829798	0.009193833
2020-08-07T17:35:00	0.1382	18.456	0.0	0.294967674	0.282750979	0.002897426	0.029892211	0.009213070
2020-08-07T17:40:00	0.1382	18.395	0.0	0.294998545	0.282808542	0.002898218	0.029900383	0.009215588
2020-08-07T17:45:00	0.1383	18.332	0.0	0.295234496	0.283248709	0.002904277	0.029962887	0.009234853
2020-08-07T17:50:00	0.1386	18.263	0.0	0.295880558	0.284455734	0.002920906	0.030134452	0.009287731
2020-08-07T17:55:00	0.1390	18.173	0.0	0.296731573	0.286049684	0.002942903	0.030361388	0.009357675
2020-08-07T18:00:00	0.1388	18.101	0.0	0.296352377	0.285338886	0.002933089	0.030260137	0.009326468
2020-08-07T18:05:00	0.1390	18.027	0.0	0.296793295	0.286165467	0.002944502	0.030377889	0.009362760
2020-08-07T18:10:00	0.1391	18.003	0.0	0.296824156	0.286223368	0.002945302	0.030386142	0.009365304
2020-08-07T18:15:00	0.1392	17.926	0.0	0.297060031	0.286666107	0.002951421	0.030449265	0.009384759
2020-08-07T18:20:00	0.1393	17.861	0.0	0.297295896	0.287109179	0.002957547	0.030512468	0.009404239
2020-08-07T18:25:00	0.1391	17.806	0.0	0.296916738	0.286397102	0.002947703	0.030410908	0.009372937
2020-08-07T18:30:00	0.1390	17.778	0.0	0.296742580	0.286070330	0.002943188	0.030364330	0.009358581
2020-08-07T18:35:00	0.1394	17.741	0.0	0.297593465	0.287668662	0.002965287	0.030592323	0.009428851
2020-08-07T18:40:00	0.1393	17.695	0.0	0.297214326	0.286955911	0.002955427	0.030490601	0.009397499
2020-08-07T18:45:00	0.1390	17.654	0.0	0.296630140	0.285859462	0.002940276	0.030334283	0.009349321
2020-08-07T18:50:00	0.1396	17.620	0.0	0.297891019	0.288228674	0.002973040	0.030672307	0.009453503
2020-08-07T18:55:00	0.1397	17.594	0.0	0.298126849	0.288672918	0.002979194	0.030735792	0.009473070
2020-08-07T19:00:00	0.1398	17.541	0.0	0.298362671	0.289117493	0.002985355	0.030799359	0.009492661
2020-08-07T19:05:00	0.1398	17.497	0.0	0.298393523	0.289175683	0.002986162	0.030807681	0.009495227
2020-08-07T19:10:00	0.1400	17.468	0.0	0.298834284	0.290007642	0.002997701	0.030926732	0.009531919
2020-08-07T19:15:00	0.1403	17.442	0.0	0.299275012	0.290840763	0.003009268	0.031046065	0.009568699
2020-08-07T19:20:00	0.1405	17.429	0.0	0.299715706	0.291675046	0.003020862	0.031165679	0.009605565
2020-08-07T19:25:00	0.1409	17.411	0.0	0.300566155	0.293288499	0.003043316	0.031397331	0.009676962
2020-08-07T19:30:00	0.1411	17.391	0.0	0.301006752	0.294126185	0.003054990	0.031517771	0.009714083
2020-08-07T19:35:00	0.1413	17.364	0.0	0.301447317	0.294965033	0.003066692	0.031638493	0.009751291
2020-08-07T19:40:00	0.1419	17.331	0.0	0.302707155	0.297370556	0.003100310	0.031985323	0.009858187
2020-08-07T19:45:00	0.1421	17.294	0.0	0.302942793	0.297821592	0.003106623	0.032050458	0.009878262
2020-08-07T19:50:00	0.1421	17.272	0.0	0.302973622	0.297880627	0.003107450	0.032058986	0.009880891
2020-08-07T19:55:00	0.1429	17.245	0.0	0.304642649	0.301085669	0.003152409	0.032522820	0.010023849
2020-08-07T20:00:00	0.1431	17.207	0.0	0.305082947	0.301934105	0.003164337	0.032645884	0.010061779
2020-08-07T20:05:00	0.1433	17.171	0.0	0.305523214	0.302783703	0.003176293	0.032769234	0.010099796
2020-08-07T20:10:00	0.1432	17.136	0.0	0.305349309	0.302447967	0.003171567	0.032720476	0.010084768
2020-08-07T20:15:00	0.1426	17.189	0.0	0.304151667	0.300141010	0.003139141	0.032385936	0.009981660
2020-08-07T20:20:00	0.1429	17.021	0.0	0.304592001	0.300988151	0.003151038	0.032508683	0.010019492
2020-08-07T20:25:00	0.1426	16.907	0.0	0.304008546	0.299865929	0.003135280	0.032346103	0.009969383
2020-08-07T20:30:00	0.1428	16.821	0.0	0.304448891	0.300712692	0.003147169	0.032468757	0.010007186
2020-08-07T20:35:00	0.1422	16.752	0.0	0.303251071	0.298412197	0.003114895	0.032135800	0.009904566
2020-08-07T20:40:00	0.1420	16.694	0.0	0.302872298	0.297686619	0.003104733	0.032030963	0.009872254
2020-08-07T20:45:00	0.1420	16.653	0.0	0.302903126	0.297745641	0.003105560	0.032039488	0.009874881
2020-08-07T20:50:00	0.1417	16.609	0.0	0.302319509	0.296629322	0.003089941	0.031878350	0.009825217
2020-08-07T20:55:00	0.1422	16.562	0.0	0.303169584	0.298256024	0.003112707	0.032113227	0.009897609
2020-08-07T21:00:00	0.1420	16.521	0.0	0.302790806	0.297530632	0.003102550	0.032008436	0.009865311
2020-08-07T21:05:00	0.1419	16.481	0.0	0.302616823	0.297197743	0.003097891	0.031960375	0.009850498
2020-08-07T21:10:00	0.1419	16.443	0.0	0.302647653	0.297256717	0.003098717	0.031968888	0.009853122
2020-08-07T21:15:00	0.1413	16.404	0.0	0.301449474	0.294969144	0.003066749	0.031639085	0.009751473
2020-08-07T21:20:00	0.1418	16.368	0.0	0.302504497	0.296982926	0.003094886	0.031929370	0.009840942
2020-08-07T21:25:00	0.1418	16.336	0.0	0.302330505	0.296650335	0.003090235	0.031881382	0.009826151
2020-08-07T21:30:00	0.1418	16.303	0.0	0.302361337	0.296709257	0.003091059	0.031889882	0.009828771
2020-08-07T21:35:00	0.1418	16.272	0.0	0.302392168	0.296768185	0.003091883	0.031898384	0.009831392
2020-08-07T21:40:00	0.1413	16.235	0.0	0.301398800	0.294872595	0.003065402	0.031625185	0.009747189
2020-08-07T21:45:00	0.1410	16.203	0.0	0.300815035	0.293761532	0.003049907	0.031465328	0.009697920
2020-08-07T21:50:00	0.1416	16.146	0.0	0.302075007	0.296162288	0.003083412	0.031810996	0.009804458
2020-08-07T21:55:00	0.1415	16.078	0.0	0.301901003	0.295830144	0.003078771	0.031763117	0.009789701
2020-08-07T22:00:00	0.1415	16.025	0.0	0.301726994	0.295498182	0.003074135	0.031715281	0.009774958
2020-08-07T22:05:00	0.1415	15.977	0.0	0.301904669	0.295837140	0.003078869	0.031764125	0.009790012
2020-08-07T22:10:00	0.1415	15.933	0.0	0.301877501	0.295785297	0.003078145	0.031756653	0.009787709
2020-08-07T22:15:00	0.1416	15.899	0.0	0.302055171	0.296124414	0.003082883	0.031805535	0.009802775
2020-08-07T22:20:00	0.1414	15.868	0.0	0.301618317	0.295290953	0.003071241	0.031685429	0.009765757
2020-08-07T22:25:00	0.1410	15.839	0.0	0.300771687	0.293679116	0.003048758	0.031453478	0.009694267
2020-08-07T22:30:00	0.1409	15.810	0.0	0.300539630	0.293238108	0.003042614	0.031390089	0.009674730
2020-08-07T22:35:00	0.1410	15.782	0.0	0.300717340	0.293575803	0.003047319	0.031438626	0.009689690
2020-08-07T22:40:00	0.1410	15.751	0.0	0.300690167	0.293524153	0.003046599	0.031431201	0.009687401
2020-08-07T22:45:00	0.1411	15.721	0.0	0.301072745	0.294251759	0.003056741	0.031535836	0.009719651
2020-08-07T22:50:00	0.1409	15.693	0.0	0.300635819	0.293420867	0.003045160	0.031416355	0.009682826
2020-08-07T22:55:00	0.1408	15.667	0.0	0.300403756	0.292980048	0.003039020	0.031353012	0.009663303
2020-08-07T23:00:00	0.1411	15.639	0.0	0.300991228	0.294096650	0.003054578	0.031513522	0.009712774
2020-08-07T23:05:00	0.1406	15.615	0.0	0.299939604	0.292099377	0.003026763	0.031226561	0.009624329
2020-08-07T23:10:00	0.1405	15.587	0.0	0.299707514	0.291659524	0.003020646	0.031163452	0.009604879
2020-08-07T23:15:00	0.1405	15.558	0.0	0.299680335	0.291608039	0.003019931	0.031156067	0.009602603
2020-08-07T23:20:00	0.1402	15.532	0.0	0.299243306	0.290780786	0.003008435	0.031037470	0.009566050
2020-08-07T23:25:00	0.1401	15.503	0.0	0.299011188	0.290341901	0.003002341	0.030974596	0.009546671
2020-08-07T23:30:00	0.1406	15.471	0.0	0.300008626	0.292230251	0.003028584	0.031245344	0.009630118
2020-08-07T23:35:00	0.1403	15.443	0.0	0.299366696	0.291014229	0.003011678	0.031070926	0.009576361
2020-08-07T23:40:00	0.1397	15.415	0.0	0.298109809	0.288640806	0.002978749	0.030731202	0.009471655
2020-08-07T23:45:00	0.1393	15.384	0.0	0.297262669	0.287046741	0.002956684	0.030503559	0.009401493
2020-08-07T23:50:00	0.1395	15.358	0.0	0.297645473	0.287766504	0.002966642	0.030606294	0.009433157
2020-08-07T23:55:00	0.1395	15.326	0.0	0.297618285	0.287715353	0.002965934	0.030598990	0.009430906
2020-08-08T00:00:00	0.1390	15.296	0.0	0.296771072	0.286123777	0.002943927	0.030371947	0.009360929
2020-08-08T00:05:00	0.1388	15.270	0.0	0.296333821	0.285304128	0.002932609	0.030255187	0.009324943
2020-08-08T00:10:00	0.1388	15.239	0.0	0.296306627	0.285253190	0.002931906	0.030247935	0.009322707
2020-08-08T00:15:00	0.1386	15.215	0.0	0.295869341	0.284434754	0.002920617	0.030131467	0.009286811
2020-08-08T00:20:00	0.1385	15.183	0.0	0.295637086	0.284000551	0.002914632	0.030069724	0.009267781
2020-08-08T00:25:00	0.1383	15.149	0.0	0.295199747	0.283183863	0.002903384	0.029953677	0.009232014
2020-08-08T00:30:00	0.1381	15.123	0.0	0.294762374	0.282368318	0.002892162	0.029837904	0.009196332
2020-08-08T00:35:00	0.1377	15.099	0.0	0.294119854	0.281172432	0.002875727	0.029668342	0.009144071
2020-08-08T00:40:00	0.1378	15.070	0.0	0.294297763	0.281503305	0.002880272	0.029715231	0.009158523
2020-08-08T00:45:00	0.1376	15.044	0.0	0.293860320	0.280690116	0.002869105	0.029600024	0.009123015
2020-08-08T00:50:00	0.1371	15.022	0.0	0.292807377	0.278737685	0.002842338	0.029323874	0.009037903
2020-08-08T00:55:00	0.1369	15.000	0.0	0.292369815	0.277928388	0.002831261	0.029209598	0.009002682
2020-08-08T01:00:00	0.1369	14.975	0.0	0.292342601	0.277878094	0.002830573	0.029202500	0.009000494
2020-08-08T01:05:00	0.1369	14.953	0.0	0.292315388	0.277827805	0.002829885	0.029195403	0.008998307
2020-08-08T01:10:00	0.1365	14.928	0.0	0.291467368	0.276263068	0.002808502	0.028974799	0.008930315
2020-08-08T01:15:00	0.1363	14.905	0.0	0.291234928	0.275834969	0.002802659	0.028914517	0.008911735
2020-08-08T01:20:00	0.1362	14.880	0.0	0.291002478	0.275407192	0.002796823	0.028854311	0.008893179
2020-08-08T01:25:00	0.1363	14.862	0.0	0.291180489	0.275734755	0.002801292	0.028900410	0.008907387
2020-08-08T01:30:00	0.1362	14.832	0.0	0.290948036	0.275307054	0.002795458	0.028840222	0.008888837
2020-08-08T01:35:00	0.1361	14.811	0.0	0.290715574	0.274879675	0.002789631	0.028780112	0.008870310
2020-08-08T01:40:00	0.1358	14.790	0.0	0.290072577	0.273699308	0.002773555	0.028614256	0.008819192
2020-08-08T01:45:00	0.1355	14.773	0.0	0.289429502	0.272521405	0.002757536	0.028448986	0.008768254
2020-08-08T01:50:00	0.1351	14.753	0.0	0.288786350	0.271345968	0.002741573	0.028284302	0.008717496
2020-08-08T01:55:00	0.1350	14.731	0.0	0.288553793	0.270921585	0.002735815	0.028224902	0.008699189
2020-08-08T02:00:00	0.1349	14.713	0.0	0.288321226	0.270497523	0.002730065	0.028165579	0.008680905
2020-08-08T02:05:00	0.1346	14.697	0.0	0.287677939	0.269326333	0.002714200	0.028001900	0.008630458
2020-08-08T02:10:00	0.1347	14.678	0.0	0.287856061	0.269650368	0.002718587	0.028047161	0.008644408
2020-08-08T02:15:00	0.1347	14.660	0.0	0.287828825	0.269600807	0.002717916	0.028040238	0.008642274
2020-08-08T02:20:00	0.1344	14.646	0.0	0.287185476	0.268431503	0.002702094	0.027877005	0.008591964
2020-08-08T02:25:00	0.1341	14.627	0.0	0.286542048	0.267264664	0.002686328	0.027714354	0.008541833
2020-08-08T02:30:00	0.1338	14.615	0.0	0.286103970	0.266471714	0.002675628	0.027603958	0.008507808
2020-08-08T02:35:00	0.1338	14.594	0.0	0.286076724	0.266422437	0.002674963	0.027597101	0.008505694
2020-08-08T02:40:00	0.1339	14.578	0.0	0.286254902	0.266744774	0.002679311	0.027641961	0.008519521
2020-08-08T02:45:00	0.1340	14.556	0.0	0.286433073	0.267067299	0.002683664	0.027686866	0.008533361
2020-08-08T02:50:00	0.1342	14.540	0.0	0.286816640	0.267762309	0.002693049	0.027783694	0.008563204
2020-08-08T02:55:00	0.1343	14.532	0.0	0.286994792	0.268085430	0.002697416	0.027828739	0.008577088
2020-08-08T03:00:00	0.1341	14.528	0.0	0.286556752	0.267291299	0.002686688	0.027718064	0.008542977
2020-08-08T03:05:00	0.1339	14.508	0.0	0.286324096	0.266870005	0.002681001	0.027659395	0.008524894
2020-08-08T03:10:00	0.1339	14.498	0.0	0.286296851	0.266820692	0.002680336	0.027652530	0.008522778
2020-08-08T03:15:00	0.1341	14.488	0.0	0.286680428	0.267515391	0.002689714	0.027749284	0.008552599
2020-08-08T03:20:00	0.1341	14.471	0.0	0.286653185	0.267466021	0.002689047	0.027742405	0.008550479
2020-08-08T03:25:00	0.1342	14.459	0.0	0.286831343	0.267788968	0.002693410	0.027787410	0.008564350
2020-08-08T03:30:00	0.1345	14.448	0.0	0.287420257	0.268857921	0.002707861	0.027936504	0.008610302
2020-08-08T03:35:00	0.1343	14.438	0.0	0.286982253	0.268062681	0.002697108	0.027825567	0.008576110
2020-08-08T03:40:00	0.1339	14.423	0.0	0.286133380	0.266524910	0.002676345	0.027611360	0.008510089
2020-08-08T03:45:00	0.1338	14.412	0.0	0.286106134	0.266475628	0.002675680	0.027604502	0.008507976
2020-08-08T03:50:00	0.1344	14.397	0.0	0.287311300	0.268659987	0.002705184	0.027908882	0.008601788
2020-08-08T03:55:00	0.1347	14.391	0.0	0.287900161	0.269730623	0.002719674	0.028058374	0.008647863
2020-08-08T04:00:00	0.1343	14.379	0.0	0.287051437	0.268188212	0.002698805	0.027843072	0.008581505
2020-08-08T04:05:00	0.1348	14.367	0.0	0.288103674	0.270101148	0.002724693	0.028110157	0.008663823
2020-08-08T04:10:00	0.1350	14.369	0.0	0.288539747	0.270895962	0.002735468	0.028221317	0.008698084
2020-08-08T04:15:00	0.1354	14.369	0.0	0.289386392	0.272442535	0.002756464	0.028437929	0.008764846
2020-08-08T04:20:00	0.1363	14.365	0.0	0.291053897	0.275501789	0.002798114	0.028867622	0.008897282
2020-08-08T04:25:00	0.1367	14.361	0.0	0.291900145	0.277061047	0.002819402	0.029087250	0.008964973
2020-08-08T04:30:00	0.1376	14.367	0.0	0.293772009	0.280526096	0.002866854	0.029576800	0.009115857
2020-08-08T04:35:00	0.1378	14.368	0.0	0.294207624	0.281335641	0.002877968	0.029691469	0.009151199
2020-08-08T04:40:00	0.1383	14.375	0.0	0.295258467	0.283293446	0.002904893	0.029969241	0.009236811
2020-08-08T04:45:00	0.1389	14.376	0.0	0.296514146	0.285642009	0.002937273	0.030303305	0.009339773
2020-08-08T04:50:00	0.1392	14.384	0.0	0.297154559	0.286843636	0.002953875	0.030474585	0.009392563
2020-08-08T04:55:00	0.1399	14.388	0.0	0.298614779	0.289593161	0.002991951	0.030867407	0.009513635
2020-08-08T05:00:00	0.1405	14.396	0.0	0.299664808	0.291578627	0.003019522	0.031151849	0.009601302
2020-08-08T05:05:00	0.1405	14.405	0.0	0.299690153	0.291626636	0.003020189	0.031158735	0.009603425
2020-08-08T05:10:00	0.1408	14.414	0.0	0.300330214	0.292840420	0.003037076	0.031332955	0.009657121
2020-08-08T05:15:00	0.1411	14.427	0.0	0.300970205	0.294056654	0.003054021	0.031507769	0.009711001
2020-08-08T05:20:00	0.1411	14.437	0.0	0.300995544	0.294104861	0.003054693	0.031514704	0.009713138
2020-08-08T05:25:00	0.1418	14.452	0.0	0.302454805	0.296887920	0.003093557	0.031915660	0.009836716
2020-08-08T05:30:00	0.1414	14.465	0.0	0.301660800	0.295371951	0.003072372	0.031697097	0.009769353
2020-08-08T05:35:00	0.1414	14.482	0.0	0.301686136	0.295420264	0.003073047	0.031704056	0.009771498
2020-08-08T05:40:00	0.1416	14.503	0.0	0.302121152	0.296250402	0.003084644	0.031823701	0.009808374
2020-08-08T05:45:00	0.1415	14.527	0.0	0.301736809	0.295516900	0.003074396	0.031717978	0.009775789
2020-08-08T05:50:00	0.1412	14.552	0.0	0.301147578	0.294394188	0.003058728	0.031556328	0.009725967
2020-08-08T05:55:00	0.1417	14.580	0.0	0.302197155	0.296395560	0.003086673	0.031844633	0.009814825
2020-08-08T06:00:00	0.1416	14.610	0.0	0.302017656	0.296052793	0.003081882	0.031795210	0.009799592
2020-08-08T06:05:00	0.1417	14.643	0.0	0.302247823	0.296492352	0.003088026	0.031858593	0.009819128
2020-08-08T06:10:00	0.1417	14.681	0.0	0.302273157	0.296540753	0.003088703	0.031865574	0.009821280
2020-08-08T06:15:00	0.1415	14.719	0.0	0.301888823	0.295806901	0.003078447	0.031759767	0.009788669
2020-08-08T06:20:00	0.1419	14.755	0.0	0.302733461	0.297420891	0.003101014	0.031992590	0.009860427
2020-08-08T06:25:00	0.1421	14.793	0.0	0.302963601	0.297861436	0.003107181	0.032056214	0.009880036
2020-08-08T06:30:00	0.1419	14.839	0.0	0.302579311	0.297125996	0.003096888	0.031950019	0.009847306
2020-08-08T06:35:00	0.1425	14.883	0.0	0.303833415	0.299529500	0.003130559	0.032297403	0.009954373
2020-08-08T06:40:00	0.1427	14.930	0.0	0.304268276	0.300365230	0.003142289	0.032418413	0.009991670
2020-08-08T06:45:00	0.1432	14.983	0.0	0.305317310	0.302386211	0.003170698	0.032711509	0.010082005
2020-08-08T06:50:00	0.1432	15.031	0.0	0.305342631	0.302435078	0.003171386	0.032718604	0.010084192
2020-08-08T06:55:00	0.1432	15.090	0.0	0.305367952	0.302483949	0.003172074	0.032725700	0.010086379
2020-08-08T07:00:00	0.1434	15.151	0.0	0.305802704	0.303323677	0.003183898	0.032847690	0.010123977
2020-08-08T07:05:00	0.1433	15.214	0.0	0.305418594	0.302581702	0.003173450	0.032739896	0.010090754
2020-08-08T07:10:00	0.1434	15.284	0.0	0.305648631	0.303025948	0.003179705	0.032804425	0.010110642
2020-08-08T07:15:00	0.1432	15.358	0.0	0.305264512	0.302284328	0.003169264	0.032696718	0.010077446
2020-08-08T07:20:00	0.1435	15.437	0.0	0.305903979	0.303519463	0.003186657	0.032876149	0.010132748
2020-08-08T07:25:00	0.1436	15.526	0.0	0.306133999	0.303964378	0.003192927	0.032940843	0.010152688
2020-08-08T07:30:00	0.1436	15.647	0.0	0.306159316	0.304013369	0.003193618	0.032947969	0.010154884
2020-08-08T07:35:00	0.1432	16.025	0.0	0.305365796	0.302479787	0.003172015	0.032725096	0.010086192
2020-08-08T07:40:00	0.1443	16.236	0.0	0.307642652	0.306890760	0.003234249	0.033367153	0.010284081
2020-08-08T07:45:00	0.1435	16.320	0.0	0.305825866	0.303368450	0.003184529	0.032854198	0.010125983
2020-08-08T07:50:00	0.1458	17.044	0.0	0.310557677	0.312585789	0.003315045	0.034200705	0.010540989
2020-08-08T07:55:00	0.1453	16.748	0.0	0.309560128	0.310630865	0.003287254	0.033913993	0.010452622
2020-08-08T08:00:00	0.1448	16.549	0.0	0.308562423	0.308681913	0.003259607	0.033628760	0.010364710
2020-08-08T08:05:00	0.1452	16.437	0.0	0.309406148	0.310329665	0.003282977	0.033869873	0.010439024
2020-08-08T08:10:00	0.1445	16.369	0.0	0.307999159	0.307584385	0.003244063	0.033468400	0.010315286
2020-08-08T08:15:00	0.1440	16.452	0.0	0.307001208	0.305644776	0.003216639	0.033185473	0.010228085
2020-08-08T08:20:00	0.1450	16.475	0.0	0.309072871	0.309678254	0.003273733	0.033774501	0.010409629
2020-08-08T08:25:00	0.1449	16.363	0.0	0.308688961	0.308928749	0.003263105	0.033664852	0.010375834
2020-08-08T08:30:00	0.1445	16.414	0.0	0.307895763	0.307383132	0.003241215	0.033439016	0.010306229
2020-08-08T08:35:00	0.1451	16.415	0.0	0.309148788	0.309826577	0.003275837	0.033796211	0.010416320
2020-08-08T08:40:00	0.1449	16.375	0.0	0.308764883	0.309076897	0.003265205	0.033686518	0.010382512
2020-08-08T08:45:00	0.1450	16.335	0.0	0.308994798	0.309525757	0.003271570	0.033752184	0.010402751
2020-08-08T08:50:00	0.1451	16.344	0.0	0.309224704	0.309974934	0.003277943	0.033817929	0.010423014
2020-08-08T08:55:00	0.1450	16.334	0.0	0.309045410	0.309624611	0.003272972	0.033766651	0.010407210
2020-08-08T09:00:00	0.1453	16.337	0.0	0.309684492	0.310874240	0.003290711	0.033949654	0.010463613
2020-08-08T09:05:00	0.1453	16.350	0.0	0.309505210	0.310523423	0.003285728	0.033898253	0.010447771
2020-08-08T09:10:00	0.1459	16.317	0.0	0.310757919	0.312978965	0.003320641	0.034258441	0.010558784
2020-08-08T09:15:00	0.1456	16.335	0.0	0.310169548	0.311824415	0.003304214	0.034088969	0.010506551
2020-08-08T09:20:00	0.1458	16.360	0.0	0.310603968	0.312676658	0.003316338	0.034214046	0.010545101
2020-08-08T09:25:00	0.1457	16.380	0.0	0.310424712	0.312324851	0.003311332	0.034162400	0.010529184
2020-08-08T09:30:00	0.1455	16.412	0.0	0.310040884	0.311572232	0.003300629	0.034051980	0.010495151
2020-08-08T09:35:00	0.1448	16.516	0.0	0.308634036	0.308821594	0.003261586	0.033649182	0.010371005
2020-08-08T09:40:00	0.1435	17.151	0.0	0.305998784	0.303702799	0.003189240	0.032902804	0.010140964
2020-08-08T09:45:00	0.1489	18.055	0.0	0.316864065	0.325089862	0.003494170	0.036048710	0.011110563
2020-08-08T09:50:00	0.1477	17.425	0.0	0.314436590	0.320247057	0.003424516	0.035330098	0.010889079
2020-08-08T09:55:00	0.1461	17.352	0.0	0.311190145	0.313828506	0.003332741	0.034383276	0.010597260
2020-08-08T10:00:00	0.1463	17.232	0.0	0.311624497	0.314683410	0.003344929	0.034509014	0.010636013
2020-08-08T10:05:00	0.1447	17.352	0.0	0.308318703	0.308206775	0.003252875	0.033559314	0.010343306
2020-08-08T10:10:00	0.1452	17.580	0.0	0.309309124	0.310139952	0.003280284	0.033842090	0.010430461
2020-08-08T10:15:00	0.1455	17.675	0.0	0.310094824	0.311677943	0.003302132	0.034067484	0.010499929
2020-08-08T10:20:00	0.1458	17.950	0.0	0.310675882	0.312817854	0.003318348	0.034234780	0.010551492
2020-08-08T10:25:00	0.1455	17.881	0.0	0.310029577	0.311550075	0.003300314	0.034048730	0.010494149
2020-08-08T10:30:00	0.1445	18.061	0.0	0.307950903	0.307490450	0.003242734	0.033454684	0.010311059
2020-08-08T10:35:00	0.1443	18.249	0.0	0.307508977	0.306630886	0.003230574	0.033329240	0.010272395
2020-08-08T10:40:00	0.1440	18.458	0.0	0.306862349	0.305375390	0.003212835	0.033146226	0.010215989
2020-08-08T10:45:00	0.1430	18.717	0.0	0.304987363	0.301749814	0.003161745	0.032619143	0.010053537
2020-08-08T10:50:00	0.1436	18.870	0.0	0.306183011	0.304059223	0.003194265	0.032954639	0.010156940
2020-08-08T10:55:00	0.1436	18.930	0.0	0.306150367	0.303996051	0.003193374	0.032945450	0.010154108
2020-08-08T11:00:00	0.1439	18.976	0.0	0.306731787	0.305122210	0.003209261	0.033109350	0.010204623
2020-08-08T11:05:00	0.1434	19.171	0.0	0.305675667	0.303078180	0.003180440	0.032812015	0.010112982
2020-08-08T11:10:00	0.1436	19.318	0.0	0.306052434	0.303806574	0.003190703	0.032917894	0.010145615
2020-08-08T11:15:00	0.1439	19.303	0.0	0.306633864	0.304932392	0.003206581	0.033081710	0.010196104
2020-08-08T11:20:00	0.1440	19.206	0.0	0.307010573	0.305662950	0.003216896	0.033188121	0.010228901
2020-08-08T11:25:00	0.1440	19.113	0.0	0.306977934	0.305599616	0.003216001	0.033178893	0.010226057
2020-08-08T11:30:00	0.1433	19.083	0.0	0.305512432	0.302762882	0.003176000	0.032766209	0.010098864
2020-08-08T11:35:00	0.1434	19.030	0.0	0.305684501	0.303095249	0.003180681	0.032814495	0.010113746
2020-08-08T11:40:00	0.1432	18.992	0.0	0.305242413	0.302241691	0.003168665	0.032690528	0.010075538
2020-08-08T11:45:00	0.1428	18.911	0.0	0.304390797	0.300600910	0.003145598	0.032452559	0.010002194
2020-08-08T11:50:00	0.1424	18.855	0.0	0.303743842	0.299357502	0.003128147	0.032272513	0.009946702
2020-08-08T11:55:00	0.1428	18.859	0.0	0.304530244	0.300869266	0.003149368	0.032491450	0.010014180
2020-08-08T12:00:00	0.1421	18.909	0.0	0.303064158	0.298054033	0.003109878	0.032084039	0.009888612
2020-08-08T12:05:00	0.1410	19.457	0.0	0.300778254	0.293691601	0.003048932	0.031455273	0.009694821
2020-08-08T12:10:00	0.1422	19.583	0.0	0.303203636	0.298321280	0.003113621	0.032122659	0.009900515
2020-08-08T12:15:00	0.1419	19.600	0.0	0.302556554	0.297082472	0.003096279	0.031943737	0.009845370
2020-08-08T12:20:00	0.1410	19.642	0.0	0.300885114	0.293894798	0.003051764	0.031484491	0.009703826
2020-08-08T12:25:00	0.1407	19.787	0.0	0.300237780	0.292664972	0.003034634	0.031307757	0.009649355
2020-08-08T12:30:00	0.1399	19.865	0.0	0.298565681	0.289500494	0.002990666	0.030854147	0.009509548
2020-08-08T12:35:00	0.1395	19.978	0.0	0.297713106	0.287893766	0.002968403	0.030624467	0.009438758
2020-08-08T12:40:00	0.1403	20.026	0.0	0.299320088	0.290926041	0.003010453	0.031058286	0.009572465
2020-08-08T12:45:00	0.1408	20.079	0.0	0.300311973	0.292805793	0.003036594	0.031327981	0.009655588
2020-08-08T12:50:00	0.1404	20.032	0.0	0.299459654	0.291190162	0.003014122	0.031096145	0.009584134
2020-08-08T12:55:00	0.1406	20.036	0.0	0.300041720	0.292293014	0.003029457	0.031254353	0.009632895
2020-08-08T13:00:00	0.1404	20.036	0.0	0.299599217	0.291454400	0.003017795	0.031134033	0.009595811
2020-08-08T13:05:00	0.1405	20.021	0.0	0.299771455	0.291780672	0.003022331	0.031180831	0.009610235
2020-08-08T13:10:00	0.1399	20.063	0.0	0.298509155	0.289393825	0.002989186	0.030838886	0.009504844
2020-08-08T13:15:00	0.1401	20.117	0.0	0.298886374	0.290106045	0.002999067	0.030940821	0.009536262
2020-08-08T13:20:00	0.1401	20.107	0.0	0.298853690	0.290044300	0.002998210	0.030931981	0.009533537
2020-08-08T13:25:00	0.1401	20.202	0.0	0.299025951	0.290369804	0.003002728	0.030978593	0.009547903
2020-08-08T13:30:00	0.1397	20.313	0.0	0.298173443	0.288760730	0.002980410	0.030748345	0.009476939
2020-08-08T13:35:00	0.1399	20.326	0.0	0.298550685	0.289472193	0.002990273	0.030850098	0.009508300
2020-08-08T13:40:00	0.1395	20.372	0.0	0.297698107	0.287865541	0.002968012	0.030620436	0.009437516
2020-08-08T13:45:00	0.1396	20.404	0.0	0.297870402	0.288189855	0.002972503	0.030666760	0.009451793
2020-08-08T13:50:00	0.1395	20.485	0.0	0.297632726	0.287742522	0.002966310	0.030602869	0.009432102
2020-08-08T13:55:00	0.1389	20.512	0.0	0.296574988	0.285756058	0.002938848	0.030319552	0.009344780
2020-08-08T14:00:00	0.1391	20.531	0.0	0.296952335	0.286463917	0.002948626	0.030420434	0.009375873
2020-08-08T14:05:00	0.1386	20.642	0.0	0.295894470	0.284481754	0.002921265	0.030138153	0.009288871
2020-08-08T14:10:00	0.1391	20.671	0.0	0.296886945	0.286341190	0.002946930	0.030402937	0.009370480
2020-08-08T14:15:00	0.1389	20.661	0.0	0.296444200	0.285510924	0.002935463	0.030284635	0.009334019
2020-08-08T14:20:00	0.1393	20.670	0.0	0.297231578	0.286988324	0.002955876	0.030495225	0.009398924
2020-08-08T14:25:00	0.1382	20.730	0.0	0.295148460	0.283088169	0.002902067	0.029940086	0.009227825
2020-08-08T14:30:00	0.1385	20.718	0.0	0.295730964	0.284176017	0.002917050	0.030094671	0.009275470
2020-08-08T14:35:00	0.1383	20.738	0.0	0.295288128	0.283348809	0.002905655	0.029977105	0.009239235
2020-08-08T14:40:00	0.1383	20.622	0.0	0.295255424	0.283287767	0.002904814	0.029968434	0.009236563
2020-08-08T14:45:00	0.1385	20.636	0.0	0.295632859	0.283992651	0.002914523	0.030068601	0.009267435
2020-08-08T14:50:00	0.1386	20.617	0.0	0.295805216	0.284314838	0.002918964	0.030114412	0.009281554
2020-08-08T14:55:00	0.1393	20.474	0.0	0.297207732	0.286943522	0.002955256	0.030488833	0.009396955
2020-08-08T15:00:00	0.1392	20.373	0.0	0.297175039	0.286882106	0.002954407	0.030480072	0.009394254
2020-08-08T15:05:00	0.1395	20.267	0.0	0.297757335	0.287977005	0.002969555	0.030636356	0.009442422
2020-08-08T15:10:00	0.1395	20.123	0.0	0.297724645	0.287915481	0.002968704	0.030627569	0.009439714
2020-08-08T15:15:00	0.1401	19.983	0.0	0.298921750	0.290172884	0.002999995	0.030950392	0.009539211
2020-08-08T15:20:00	0.1401	19.866	0.0	0.298889067	0.290111132	0.002999138	0.030941550	0.009536486
2020-08-08T15:25:00	0.1396	19.799	0.0	0.297831560	0.288116726	0.002971490	0.030656313	0.009448574
2020-08-08T15:30:00	0.1401	19.717	0.0	0.299028643	0.290374894	0.003002799	0.030979322	0.009548128
2020-08-08T15:35:00	0.1401	19.657	0.0	0.298995960	0.290313121	0.003001941	0.030970474	0.009545401
2020-08-08T15:40:00	0.1405	19.588	0.0	0.299782990	0.291802529	0.003022635	0.031183967	0.009611201
2020-08-08T15:45:00	0.1405	19.534	0.0	0.299750312	0.291740609	0.003021774	0.031175084	0.009608464
2020-08-08T15:50:00	0.1404	19.477	0.0	0.299512713	0.291290605	0.003015518	0.031110546	0.009588572
2020-08-08T15:55:00	0.1403	19.420	0.0	0.299275105	0.290840939	0.003009271	0.031046090	0.009568706
2020-08-08T16:00:00	0.1397	19.369	0.0	0.298217669	0.288844091	0.002981566	0.030760263	0.009480612
2020-08-08T16:05:00	0.1397	19.318	0.0	0.298188650	0.288789391	0.002980808	0.030752443	0.009478202
2020-08-08T16:10:00	0.1390	19.267	0.0	0.296724653	0.286036704	0.002942724	0.030359538	0.009357105
2020-08-08T16:15:00	0.1385	19.196	0.0	0.295670415	0.284062839	0.002915491	0.030078579	0.009270510
2020-08-08T16:20:00	0.1385	19.138	0.0	0.295641383	0.284008580	0.002914743	0.030070865	0.009268133
2020-08-08T16:25:00	0.1381	19.095	0.0	0.294792039	0.282423593	0.002892922	0.029845747	0.009198749
2020-08-08T16:30:00	0.1381	19.040	0.0	0.294763002	0.282369487	0.002892178	0.029838070	0.009196383
2020-08-08T16:35:00	0.1383	19.008	0.0	0.295349216	0.283462846	0.002907225	0.029993306	0.009244228
2020-08-08T16:40:00	0.1384	18.978	0.0	0.295525252	0.283791597	0.002911753	0.030040022	0.009258626
2020-08-08T16:45:00	0.1385	18.950	0.0	0.295701282	0.284120532	0.002916286	0.030086782	0.009273038
2020-08-08T16:50:00	0.1387	18.911	0.0	0.296082356	0.284833289	0.002926113	0.030188167	0.009304286
2020-08-08T16:55:00	0.1387	18.875	0.0	0.296053326	0.284778959	0.002925363	0.030180436	0.009301903
2020-08-08T17:00:00	0.1385	18.827	0.0	0.295614185	0.283957756	0.002914043	0.030063640	0.009265906
2020-08-08T17:05:00	0.1384	18.769	0.0	0.295380085	0.283520480	0.002908019	0.030001494	0.009246752
2020-08-08T17:10:00	0.1386	18.733	0.0	0.295966234	0.284615999	0.002923116	0.030157250	0.009294757
2020-08-08T17:15:00	0.1387	18.694	0.0	0.296142251	0.284945398	0.002927659	0.030204122	0.009309204
2020-08-08T17:20:00	0.1390	18.653	0.0	0.296728322	0.286043586	0.002942819	0.030360519	0.009357407
2020-08-08T17:25:00	0.1393	18.621	0.0	0.297314332	0.287143826	0.002958026	0.030517411	0.009405763
2020-08-08T17:30:00	0.1394	18.560	0.0	0.297490307	0.287474643	0.002962603	0.030564625	0.009420314
2020-08-08T17:35:00	0.1395	18.513	0.0	0.297666276	0.287805645	0.002967183	0.030611883	0.009434880
2020-08-08T17:40:00	0.1395	18.461	0.0	0.297637254	0.287751040	0.002966427	0.030604086	0.009432476
2020-08-08T17:45:00	0.1398	18.401	0.0	0.298428136	0.289240973	0.002987067	0.030817020	0.009498105
2020-08-08T17:50:00	0.1401	18.343	0.0	0.299013973	0.290347166	0.003002414	0.030975350	0.009546904
2020-08-08T17:55:00	0.1402	18.293	0.0	0.299189896	0.290679770	0.003007032	0.031022996	0.009561589
2020-08-08T18:00:00	0.1401	18.244	0.0	0.298955942	0.290237493	0.003000891	0.030959644	0.009542063
2020-08-08T18:05:00	0.1410	18.191	0.0	0.300771130	0.293678057	0.003048744	0.031453326	0.009694221
2020-08-08T18:10:00	0.1413	18.156	0.0	0.301356733	0.294792459	0.003064284	0.031613648	0.009743633
2020-08-08T18:15:00	0.1416	18.139	0.0	0.301942277	0.295908912	0.003079872	0.031774470	0.009793200
2020-08-08T18:20:00	0.1420	18.123	0.0	0.302937388	0.297811242	0.003106478	0.032048963	0.009877802
2020-08-08T18:25:00	0.1419	18.120	0.0	0.302703583	0.297363721	0.003100214	0.031984336	0.009857883
2020-08-08T18:30:00	0.1420	18.105	0.0	0.302879396	0.297700208	0.003104924	0.032032926	0.009872859
2020-08-08T18:35:00	0.1423	18.101	0.0	0.303464792	0.298821999	0.003120638	0.032195049	0.009922827
2020-08-08T18:40:00	0.1425	18.068	0.0	0.303845360	0.299552439	0.003130881	0.032300723	0.009955397
2020-08-08T18:45:00	0.1427	18.007	0.0	0.304225905	0.300283747	0.003141145	0.032406610	0.009988032
2020-08-08T18:50:00	0.1434	17.935	0.0	0.305630082	0.302990114	0.003179200	0.032799219	0.010109038
2020-08-08T18:55:00	0.1434	17.878	0.0	0.305805811	0.303329683	0.003183983	0.032848563	0.010124246
2020-08-08T19:00:00	0.1436	17.824	0.0	0.306186234	0.304065460	0.003194352	0.032955546	0.010157219
2020-08-08T19:05:00	0.1437	17.767	0.0	0.306361946	0.304405615	0.003199149	0.033005034	0.010172472
2020-08-08T19:10:00	0.1441	17.748	0.0	0.307151677	0.305936824	0.003220765	0.033228035	0.010241203
2020-08-08T19:15:00	0.1441	17.743	0.0	0.307122701	0.305880573	0.003219970	0.033219836	0.010238676
2020-08-08T19:20:00	0.1444	17.732	0.0	0.307707692	0.307017243	0.003236038	0.033385610	0.010289769
2020-08-08T19:25:00	0.1445	17.709	0.0	0.307883362	0.307359001	0.003240873	0.033435493	0.010305144
2020-08-08T19:30:00	0.1446	17.676	0.0	0.308263658	0.308099516	0.003251356	0.033543642	0.010338476
2020-08-08T19:35:00	0.1448	17.636	0.0	0.308643932	0.308840898	0.003261860	0.033652005	0.010371875
2020-08-08T19:40:00	0.1446	17.592	0.0	0.308205716	0.307986631	0.003249758	0.033527150	0.010333393
2020-08-08T19:45:00	0.1442	17.544	0.0	0.307358169	0.306337841	0.003226432	0.033286500	0.010259223
2020-08-08T19:50:00	0.1452	17.496	0.0	0.309375444	0.310269623	0.003282125	0.033861079	0.010436313
2020-08-08T19:55:00	0.1452	17.449	0.0	0.309346478	0.310212985	0.003281321	0.033852785	0.010433757
2020-08-08T20:00:00	0.1445	17.398	0.0	0.307885193	0.307362564	0.003240924	0.033436013	0.010305304
2020-08-08T20:05:00	0.1448	17.349	0.0	0.308470114	0.308501909	0.003257056	0.033602446	0.010356600
2020-08-08T20:10:00	0.1442	17.302	0.0	0.307417950	0.306453989	0.003228073	0.033303438	0.010264443
2020-08-08T20:15:00	0.1436	17.253	0.0	0.306160916	0.304016465	0.003193662	0.032948419	0.010155023
2020-08-08T20:20:00	0.1432	17.202	0.0	0.305313090	0.302378067	0.003170584	0.032710327	0.010081640
2020-08-08T20:25:00	0.1431	17.156	0.0	0.305079376	0.301927219	0.003164240	0.032644885	0.010061471
2020-08-08T20:30:00	0.1430	17.104	0.0	0.304845653	0.301476698	0.003157905	0.032579524	0.010041326
2020-08-08T20:35:00	0.1431	17.050	0.0	0.305021404	0.301815441	0.003162668	0.032628665	0.010056472
2020-08-08T20:40:00	0.1429	17.007	0.0	0.304582933	0.300970694	0.003150793	0.032506152	0.010018712
2020-08-08T20:45:00	0.1427	16.966	0.0	0.304349191	0.300520868	0.003144474	0.032440961	0.009998619
2020-08-08T20:50:00	0.1434	16.838	0.0	0.305753341	0.303228272	0.003182554	0.032833825	0.010119704
2020-08-08T20:55:00	0.1426	16.608	0.0	0.304086450	0.300015646	0.003137381	0.032367781	0.009976064
2020-08-08T21:00:00	0.1424	16.566	0.0	0.303647912	0.299173355	0.003125564	0.032245869	0.009938490
2020-08-08T21:05:00	0.1427	16.517	0.0	0.304233233	0.300297840	0.003141342	0.032408651	0.009988661
2020-08-08T21:10:00	0.1429	16.464	0.0	0.304613753	0.301030032	0.003151627	0.032514754	0.010021363
2020-08-08T21:15:00	0.1427	16.417	0.0	0.304175253	0.300186356	0.003139777	0.032392503	0.009983684
2020-08-08T21:20:00	0.1425	16.379	0.0	0.303941496	0.299737101	0.003133472	0.032327452	0.009963635
2020-08-08T21:25:00	0.1419	16.342	0.0	0.302683749	0.297325773	0.003099683	0.031978857	0.009856194
2020-08-08T21:30:00	0.1415	16.304	0.0	0.301835437	0.295705040	0.003077024	0.031745087	0.009784144
2020-08-08T21:35:00	0.1415	16.267	0.0	0.301806436	0.295649712	0.003076251	0.031737114	0.009781687
2020-08-08T21:40:00	0.1418	16.235	0.0	0.302391936	0.296767741	0.003091876	0.031898320	0.009831372
2020-08-08T21:45:00	0.1414	16.204	0.0	0.301543583	0.295148490	0.003069252	0.031664911	0.009759433
2020-08-08T21:50:00	0.1411	16.171	0.0	0.300899988	0.293923087	0.003052159	0.031488559	0.009705080
2020-08-08T21:55:00	0.1411	16.141	0.0	0.301075854	0.294257677	0.003056824	0.031536687	0.009719913
2020-08-08T22:00:00	0.1408	16.116	0.0	0.300432208	0.293034075	0.003039773	0.031360773	0.009665695
2020-08-08T22:05:00	0.1412	16.090	141.0	0.301193707	0.294482002	0.003059952	0.031568964	0.009729861
2020-08-08T22:10:00	0.1415	16.070	107.0	0.301750265	0.295542566	0.003074755	0.031721676	0.009776929
2020-08-08T22:15:00	0.1415	16.037	85.0	0.301897106	0.295822706	0.003078667	0.031762045	0.009789371
2020-08-08T22:20:00	0.1415	16.002	96.0	0.301839103	0.295712034	0.003077121	0.031746095	0.009784455
2020-08-08T22:25:00	0.1412	15.972	38.0	0.301166535	0.294430275	0.003059231	0.031561521	0.009727567
2020-08-08T22:30:00	0.1413	15.948	52.0	0.301313390	0.294709902	0.003063132	0.031601764	0.009739971
2020-08-08T22:35:00	0.1415	15.923	0.0	0.301869937	0.295770865	0.003077943	0.031754573	0.009787068
2020-08-08T22:40:00	0.1415	15.900	0.0	0.301811935	0.295660201	0.003076397	0.031738626	0.009782153
2020-08-08T22:45:00	0.1418	15.878	0.0	0.302368436	0.296722825	0.003091248	0.031891839	0.009829375
2020-08-08T22:50:00	0.1409	15.858	0.0	0.300671602	0.293488870	0.003046107	0.031426129	0.009685838
2020-08-08T22:55:00	0.1411	15.830	0.0	0.301023343	0.294157753	0.003055430	0.031522312	0.009715483
2020-08-08T23:00:00	0.1410	15.804	0.0	0.300760456	0.293657764	0.003048461	0.031450408	0.009693321
2020-08-08T23:05:00	0.1411	15.779	0.0	0.300907321	0.293937034	0.003052353	0.031490565	0.009705698
2020-08-08T23:10:00	0.1406	15.754	0.0	0.300029745	0.292270302	0.003029141	0.031251093	0.009631890
2020-08-08T23:15:00	0.1407	15.735	0.0	0.300176628	0.292548930	0.003033019	0.031291094	0.009644219
2020-08-08T23:20:00	0.1413	15.706	0.0	0.301347893	0.294775619	0.003064049	0.031611224	0.009742886
2020-08-08T23:25:00	0.1410	15.676	0.0	0.300880148	0.293885353	0.003051633	0.031483133	0.009703407
2020-08-08T23:30:00	0.1406	15.652	0.0	0.300002568	0.292218764	0.003028424	0.031243695	0.009629610
2020-08-08T23:35:00	0.1406	15.623	0.0	0.299944547	0.292108749	0.003026894	0.031227906	0.009624744
2020-08-08T23:40:00	0.1403	15.597	0.0	0.299271763	0.290834616	0.003009183	0.031045184	0.009568427
2020-08-08T23:45:00	0.1401	15.581	0.0	0.299008797	0.290337382	0.003002278	0.030973949	0.009546472
2020-08-08T23:50:00	0.1402	15.557	0.0	0.299155705	0.290615113	0.003006134	0.031013732	0.009558734
2020-08-08T23:55:00	0.1400	15.529	0.0	0.298687786	0.289730982	0.002993863	0.030887130	0.009519714
2020-08-09T00:00:00	0.1396	15.505	0.0	0.298014855	0.288461906	0.002976270	0.030705633	0.009463774
2020-08-09T00:05:00	0.1390	15.485	0.0	0.296726812	0.286040755	0.002942780	0.030360116	0.009357282
2020-08-09T00:10:00	0.1389	15.465	0.0	0.296463730	0.285547522	0.002935969	0.030289848	0.009335625
2020-08-09T00:15:00	0.1383	15.447	0.0	0.295175335	0.283138311	0.002902757	0.029947207	0.009230020
2020-08-09T00:20:00	0.1383	15.423	0.0	0.295322342	0.283412676	0.002906534	0.029986178	0.009242031
2020-08-09T00:25:00	0.1382	15.393	0.0	0.295059194	0.282921650	0.002899775	0.029916441	0.009220538
2020-08-09T00:30:00	0.1379	15.360	0.0	0.294385833	0.281667169	0.002882523	0.029738460	0.009165682
2020-08-09T00:35:00	0.1383	15.341	0.0	0.295353211	0.283470305	0.002907328	0.029994366	0.009244555
2020-08-09T00:40:00	0.1385	15.312	0.0	0.295705277	0.284127999	0.002916389	0.030087844	0.009273366
2020-08-09T00:45:00	0.1384	15.289	0.0	0.295442147	0.283636372	0.002909615	0.030017962	0.009251827
2020-08-09T00:50:00	0.1385	15.276	0.0	0.295589147	0.283910971	0.002913398	0.030056989	0.009263856
2020-08-09T00:55:00	0.1385	15.262	0.0	0.295736144	0.284185699	0.002917184	0.030096048	0.009275894
2020-08-09T01:00:00	0.1385	15.244	0.0	0.295678079	0.284077164	0.002915688	0.030080616	0.009271138
2020-08-09T01:05:00	0.1386	15.220	0.0	0.295825074	0.284351970	0.002919476	0.030119693	0.009283182
2020-08-09T01:10:00	0.1377	15.197	0.0	0.294126312	0.281184440	0.002875892	0.029670043	0.009144596
2020-08-09T01:15:00	0.1381	15.178	0.0	0.294888649	0.282603652	0.002895399	0.029871300	0.009206625
2020-08-09T01:20:00	0.1374	15.159	0.0	0.293394750	0.279825967	0.002857250	0.029477720	0.009085319
2020-08-09T01:25:00	0.1372	15.138	0.0	0.292926353	0.278957948	0.002845354	0.029354995	0.009047495
2020-08-09T01:30:00	0.1372	15.114	0.0	0.293073420	0.279230338	0.002849086	0.029393493	0.009059360
2020-08-09T01:35:00	0.1369	15.100	0.0	0.292399817	0.277983840	0.002832020	0.029217424	0.009005094
2020-08-09T01:40:00	0.1368	15.082	0.0	0.292136530	0.277497407	0.002825367	0.029148787	0.008983939
2020-08-09T01:45:00	0.1367	15.067	0.0	0.291873231	0.277011387	0.002818723	0.029080248	0.008962815
2020-08-09T01:50:00	0.1363	15.054	0.0	0.291199480	0.275769712	0.002801769	0.028905331	0.008908904
2020-08-09T01:55:00	0.1365	15.038	0.0	0.291551811	0.276418676	0.002810627	0.028996719	0.008937070
2020-08-09T02:00:00	0.1365	15.018	0.0	0.291493703	0.276311592	0.002809165	0.028981634	0.008932421
2020-08-09T02:05:00	0.1369	15.011	0.0	0.292461588	0.278098027	0.002833582	0.029233542	0.009010062
2020-08-09T02:10:00	0.1371	15.004	0.0	0.292813837	0.278749643	0.002842501	0.029325563	0.009038423
2020-08-09T02:15:00	0.1372	14.976	0.0	0.292960907	0.279021935	0.002846231	0.029364038	0.009050282
2020-08-09T02:20:00	0.1368	14.955	0.0	0.292082101	0.277396900	0.002823993	0.029134610	0.008979570
2020-08-09T02:25:00	0.1370	14.941	0.0	0.292639551	0.278427138	0.002838086	0.029280010	0.009024384
2020-08-09T02:30:00	0.1369	14.934	0.0	0.292376276	0.277940328	0.002831424	0.029211283	0.009003201
2020-08-09T02:35:00	0.1369	14.921	0.0	0.292318176	0.277832958	0.002829956	0.029196130	0.008998531
2020-08-09T02:40:00	0.1370	14.915	0.0	0.292670435	0.278484273	0.002838868	0.029288079	0.009026870
2020-08-09T02:45:00	0.1371	14.904	0.0	0.292817509	0.278756439	0.002842594	0.029326523	0.009038719
2020-08-09T02:50:00	0.1372	14.902	0.0	0.292964578	0.279028734	0.002846324	0.029364999	0.009050578
2020-08-09T02:55:00	0.1376	14.891	0.0	0.293727075	0.280442659	0.002865709	0.029564988	0.009112216
2020-08-09T03:00:00	0.1370	14.878	0.0	0.292643223	0.278433931	0.002838179	0.029280969	0.009024679
2020-08-09T03:05:00	0.1367	14.877	0.0	0.291969567	0.277189162	0.002821153	0.029105313	0.008970540
2020-08-09T03:10:00	0.1371	14.876	0.0	0.292732202	0.278598559	0.002840433	0.029304221	0.009031845
2020-08-09T03:15:00	0.1371	14.869	0.0	0.292879274	0.278870779	0.002844160	0.029342678	0.009043698
2020-08-09T03:20:00	0.1369	14.859	0.0	0.292410833	0.278004202	0.002832298	0.029220298	0.009005980
2020-08-09T03:25:00	0.1365	14.839	0.0	0.291531938	0.276382051	0.002810127	0.028991559	0.008935480
2020-08-09T03:30:00	0.1365	14.836	0.0	0.291473830	0.276274974	0.002808665	0.028976476	0.008930831
2020-08-09T03:35:00	0.1364	14.830	0.0	0.291415721	0.276167917	0.002807203	0.028961398	0.008926184
2020-08-09T03:40:00	0.1366	14.821	0.0	0.291768038	0.276817335	0.002816072	0.029052894	0.008954384
2020-08-09T03:45:00	0.1367	14.813	0.0	0.291915136	0.277088709	0.002819780	0.029091150	0.008966175
2020-08-09T03:50:00	0.1363	14.803	0.0	0.291241390	0.275846866	0.002802821	0.028916192	0.008912251
2020-08-09T03:55:00	0.1360	14.791	0.0	0.290567560	0.274607730	0.002785925	0.028741879	0.008858526
2020-08-09T04:00:00	0.1354	14.779	0.0	0.289277779	0.272243877	0.002753765	0.028410082	0.008756263
2020-08-09T04:05:00	0.1363	14.779	0.0	0.291121493	0.275626174	0.002799810	0.028885127	0.008902677
2020-08-09T04:10:00	0.1367	14.777	0.0	0.291938679	0.277132156	0.002820374	0.029097275	0.008968063
2020-08-09T04:15:00	0.1366	14.779	0.0	0.291729804	0.276746822	0.002815109	0.029042956	0.008951321
2020-08-09T04:20:00	0.1369	14.769	0.0	0.292341718	0.277876462	0.002830551	0.029202269	0.009000423
2020-08-09T04:25:00	0.1374	14.764	0.0	0.293363871	0.279768699	0.002856465	0.029469619	0.009082823
2020-08-09T04:30:00	0.1379	14.767	0.0	0.294385833	0.281667169	0.002882523	0.029738460	0.009165682
2020-08-09T04:35:00	0.1382	14.777	0.0	0.294997453	0.282806506	0.002898190	0.029900094	0.009215499
2020-08-09T04:40:00	0.1386	14.786	0.0	0.295814065	0.284331384	0.002919192	0.030116765	0.009282280
2020-08-09T04:45:00	0.1395	14.796	0.0	0.297655596	0.287785550	0.002966905	0.030609013	0.009433995
2020-08-09T04:50:00	0.1393	14.808	0.0	0.297241934	0.287007781	0.002956145	0.030498001	0.009399780
2020-08-09T04:55:00	0.1397	14.822	0.0	0.298058223	0.288543607	0.002977402	0.030717310	0.009467373
2020-08-09T05:00:00	0.1397	14.839	0.0	0.298054555	0.288536697	0.002977306	0.030716322	0.009467069
2020-08-09T05:05:00	0.1401	14.855	0.0	0.298870729	0.290076488	0.002998657	0.030936589	0.009534957
2020-08-09T05:10:00	0.1404	14.870	0.0	0.299481867	0.291232209	0.003014707	0.031102173	0.009585992
2020-08-09T05:15:00	0.1404	14.886	0.0	0.299478199	0.291225267	0.003014610	0.031101178	0.009585685
2020-08-09T05:20:00	0.1408	14.903	0.0	0.300294173	0.292772005	0.003036124	0.031323128	0.009654092
2020-08-09T05:25:00	0.1409	14.922	0.0	0.300495399	0.293154089	0.003041444	0.031378016	0.009671009
2020-08-09T05:30:00	0.1410	14.943	0.0	0.300696618	0.293536415	0.003046770	0.031432963	0.009687945
2020-08-09T05:35:00	0.1413	14.965	0.0	0.301307566	0.294698810	0.003062977	0.031600168	0.009739479
2020-08-09T05:40:00	0.1415	14.993	0.0	0.301713607	0.295472651	0.003073778	0.031711603	0.009773824
2020-08-09T05:45:00	0.1415	15.026	0.0	0.301914785	0.295856443	0.003079139	0.031766907	0.009790869
2020-08-09T05:50:00	0.1417	15.065	0.0	0.302320785	0.296631760	0.003089975	0.031878702	0.009825326
2020-08-09T05:55:00	0.1421	15.110	0.0	0.303136367	0.298192375	0.003111816	0.032104029	0.009894774
2020-08-09T06:00:00	0.1423	15.157	0.0	0.303542285	0.298970661	0.003122722	0.032216549	0.009929453
2020-08-09T06:05:00	0.1424	15.211	0.0	0.303743401	0.299356656	0.003128135	0.032272390	0.009946664
2020-08-09T06:10:00	0.1428	15.266	0.0	0.304558792	0.300924219	0.003150140	0.032499415	0.010016635
2020-08-09T06:15:00	0.1430	15.330	0.0	0.304964614	0.301705963	0.003161129	0.032612781	0.010051576
2020-08-09T06:20:00	0.1437	15.392	0.0	0.306393940	0.304467571	0.003200023	0.033014050	0.010175251
2020-08-09T06:25:00	0.1438	15.465	0.0	0.306594963	0.304857001	0.003205518	0.033070734	0.010192721
2020-08-09T06:30:00	0.1437	15.542	0.0	0.306386614	0.304453383	0.003199823	0.033011985	0.010174614
2020-08-09T06:35:00	0.1438	15.624	0.0	0.306587637	0.304842805	0.003205317	0.033068667	0.010192084
2020-08-09T06:40:00	0.1442	15.699	0.0	0.307402651	0.306424263	0.003227653	0.033299103	0.010263107
2020-08-09T06:45:00	0.1442	15.777	0.0	0.307398989	0.306417147	0.003227553	0.033298065	0.010262787
2020-08-09T06:50:00	0.1442	15.867	0.0	0.307395326	0.306410031	0.003227452	0.033297027	0.010262467
2020-08-09T06:55:00	0.1442	15.965	0.0	0.307391664	0.306402915	0.003227351	0.033295990	0.010262147
2020-08-09T07:00:00	0.1446	16.064	0.0	0.308206574	0.307988302	0.003249781	0.033527394	0.010333468
2020-08-09T07:05:00	0.1449	16.154	0.0	0.308816772	0.309178169	0.003266641	0.033701331	0.010387077
2020-08-09T07:10:00	0.1448	16.255	0.0	0.308608497	0.308771775	0.003260880	0.033641898	0.010368760
2020-08-09T07:15:00	0.1449	16.359	0.0	0.308809448	0.309163875	0.003266438	0.033699240	0.010386433
2020-08-09T07:20:00	0.1449	16.469	0.0	0.308805787	0.309156728	0.003266337	0.033698195	0.010386111
2020-08-09T07:25:00	0.1446	16.597	0.0	0.308188264	0.307952635	0.003249276	0.033522184	0.010331863
2020-08-09T07:30:00	0.1452	16.787	0.0	0.309412266	0.310341628	0.003283147	0.033871625	0.010439564
2020-08-09T07:35:00	0.1451	17.122	0.0	0.309204010	0.309934490	0.003277369	0.033812008	0.010421189
2020-08-09T07:40:00	0.1459	17.376	0.0	0.310836921	0.313134155	0.003322851	0.034281237	0.010565810
2020-08-09T07:45:00	0.1451	17.602	0.0	0.309196687	0.309920179	0.003277166	0.033809913	0.010420544
2020-08-09T07:50:00	0.1456	18.326	0.0	0.310215933	0.311915358	0.003305507	0.034102311	0.010510663
2020-08-09T07:55:00	0.1466	18.338	0.0	0.312257602	0.315931640	0.003362744	0.034692808	0.010692660
2020-08-09T08:00:00	0.1463	18.312	0.0	0.311640411	0.314714756	0.003345376	0.034513627	0.010637435
2020-08-09T08:05:00	0.1465	18.353	0.0	0.312045778	0.315513728	0.003356777	0.034631246	0.010673686
2020-08-09T08:10:00	0.1461	18.458	0.0	0.311224037	0.313895170	0.003333691	0.034393077	0.010600280
2020-08-09T08:15:00	0.1461	18.521	0.0	0.311220377	0.313887970	0.003333589	0.034392019	0.010599954
2020-08-09T08:20:00	0.1461	18.549	0.0	0.311216717	0.313880770	0.003333486	0.034390960	0.010599628
2020-08-09T08:25:00	0.1461	18.623	0.0	0.311213056	0.313873571	0.003333383	0.034389902	0.010599302
2020-08-09T08:30:00	0.1459	18.744	0.0	0.310800316	0.313062244	0.003321827	0.034270674	0.010562554
2020-08-09T08:35:00	0.1459	18.801	0.0	0.310796655	0.313055054	0.003321724	0.034269617	0.010562229
2020-08-09T08:40:00	0.1459	18.965	0.0	0.310792995	0.313047863	0.003321622	0.034268561	0.010561903
2020-08-09T08:45:00	0.1454	19.727	0.0	0.309766518	0.311034819	0.003292992	0.033973188	0.010470867
2020-08-09T08:50:00	0.1453	20.069	0.0	0.309558275	0.310627238	0.003287202	0.033913462	0.010452458
2020-08-09T08:55:00	0.1460	20.021	0.0	0.310986557	0.313428207	0.003327038	0.034324441	0.010579126
2020-08-09T09:00:00	0.1450	19.996	0.0	0.308937163	0.309413207	0.003269974	0.033735716	0.010397675
2020-08-09T09:05:00	0.1451	20.015	0.0	0.309138105	0.309805703	0.003275541	0.033793156	0.010415379
2020-08-09T09:10:00	0.1446	20.246	0.0	0.308111362	0.307802854	0.003247156	0.033500305	0.010325119
2020-08-09T09:15:00	0.1443	20.502	0.0	0.307493771	0.306601332	0.003230156	0.033324929	0.010271067
2020-08-09T09:20:00	0.1437	21.041	0.0	0.306262070	0.304212244	0.003196422	0.032976899	0.010163800
2020-08-09T09:25:00	0.1437	21.479	0.0	0.306258406	0.304205153	0.003196322	0.032975867	0.010163482
2020-08-09T09:30:00	0.1446	21.932	0.0	0.308096714	0.307774328	0.003246752	0.033496139	0.010323835
2020-08-09T09:35:00	0.1448	22.311	0.0	0.308502305	0.308564676	0.003257945	0.033611621	0.010359428
2020-08-09T09:40:00	0.1443	22.841	0.0	0.307475459	0.306565743	0.003229653	0.033319738	0.010269467
2020-08-09T09:45:00	0.1448	22.811	0.0	0.308494982	0.308550396	0.003257743	0.033609534	0.010358785
2020-08-09T09:50:00	0.1454	23.855	0.0	0.309718924	0.310941642	0.003291668	0.033959532	0.010466658
2020-08-09T09:55:00	0.1439	23.133	0.0	0.306645803	0.304955532	0.003206908	0.033085079	0.010197143
2020-08-09T10:00:00	0.1443	22.780	0.0	0.307460810	0.306537274	0.003229251	0.033315585	0.010268187
2020-08-09T10:05:00	0.1438	22.313	0.0	0.306520730	0.304713166	0.003203488	0.033049795	0.010186268
2020-08-09T10:10:00	0.1430	21.965	0.0	0.304966330	0.301709270	0.003161175	0.032613261	0.010051724
2020-08-09T10:15:00	0.1422	21.709	0.0	0.303206744	0.298327237	0.003113705	0.032123520	0.009900781
2020-08-09T10:20:00	0.1428	21.647	0.0	0.304518695	0.300847036	0.003149056	0.032488228	0.010013187
2020-08-09T10:25:00	0.1422	21.431	0.0	0.303168587	0.298254113	0.003112681	0.032112951	0.009897523
2020-08-09T10:30:00	0.1418	21.321	0.0	0.302432673	0.296845611	0.003092966	0.031909555	0.009834835
2020-08-09T10:35:00	0.1416	21.160	0.0	0.302106350	0.296222137	0.003084249	0.031819625	0.009807117
2020-08-09T10:40:00	0.1419	21.148	0.0	0.302599331	0.297164286	0.003097423	0.031955545	0.009849009
2020-08-09T10:45:00	0.1422	21.171	0.0	0.303297068	0.298500369	0.003116131	0.032148545	0.009908494
2020-08-09T10:50:00	0.1425	21.108	0.0	0.303789951	0.299446033	0.003129388	0.032285324	0.009950650
2020-08-09T10:55:00	0.1417	20.996	0.0	0.302234854	0.296467576	0.003087679	0.031855020	0.009818026
2020-08-09T11:00:00	0.1418	20.953	0.0	0.302523009	0.297018324	0.003095381	0.031934479	0.009842516
2020-08-09T11:05:00	0.1412	20.947	0.0	0.301172452	0.294441539	0.003059388	0.031563141	0.009728067
2020-08-09T11:10:00	0.1416	21.010	0.0	0.302075193	0.296162642	0.003083417	0.031811047	0.009804474
2020-08-09T11:15:00	0.1407	21.123	0.0	0.300109859	0.292422257	0.003031256	0.031272906	0.009638613
2020-08-09T11:20:00	0.1406	21.293	0.0	0.299988318	0.292191743	0.003028048	0.031239817	0.009628415
2020-08-09T11:25:00	0.1413	21.385	0.0	0.301505833	0.295076542	0.003068248	0.031654550	0.009756240
2020-08-09T11:30:00	0.1413	21.219	0.0	0.301384321	0.294845012	0.003065017	0.031621214	0.009745965
2020-08-09T11:35:00	0.1409	21.404	0.0	0.300648188	0.293444372	0.003045487	0.031419733	0.009683867
2020-08-09T11:40:00	0.1401	21.891	0.0	0.298887326	0.290107843	0.002999092	0.030941079	0.009536341
2020-08-09T11:45:00	0.1405	21.818	0.0	0.299790417	0.291816603	0.003022831	0.031185986	0.009611824
2020-08-09T11:50:00	0.1404	21.679	0.0	0.299463948	0.291198290	0.003014235	0.031097310	0.009584493
2020-08-09T11:55:00	0.1403	21.620	0.0	0.299342394	0.290968245	0.003011039	0.031064335	0.009574330
2020-08-09T12:00:00	0.1399	21.800	0.0	0.298606004	0.289576598	0.002991721	0.030865037	0.009512904
2020-08-09T12:05:00	0.1397	21.840	0.0	0.298074498	0.288574270	0.002977827	0.030721692	0.009468724
2020-08-09T12:10:00	0.1397	21.817	0.0	0.298157889	0.288731414	0.002980004	0.030744154	0.009475647
2020-08-09T12:15:00	0.1397	21.804	0.0	0.298036307	0.288502318	0.002976830	0.030711409	0.009465554
2020-08-09T12:20:00	0.1403	21.782	0.0	0.299349404	0.290981508	0.003011223	0.031066236	0.009574916
2020-08-09T12:25:00	0.1398	21.748	0.0	0.298408056	0.289203094	0.002986542	0.030811602	0.009496435
2020-08-09T12:30:00	0.1397	21.703	0.0	0.298081509	0.288587480	0.002978010	0.030723580	0.009469306
2020-08-09T12:35:00	0.1388	21.705	0.0	0.296319864	0.285277984	0.002932248	0.030251465	0.009323795
2020-08-09T12:40:00	0.1385	21.658	0.0	0.295583085	0.283899644	0.002913242	0.030055379	0.009263360
2020-08-09T12:45:00	0.1392	21.660	0.0	0.297101757	0.286744464	0.002952504	0.030460440	0.009388203
2020-08-09T12:50:00	0.1391	21.581	0.0	0.296980153	0.286516136	0.002949348	0.030427879	0.009378168
2020-08-09T12:55:00	0.1390	21.626	0.0	0.296653525	0.285903310	0.002940881	0.030340531	0.009351246
2020-08-09T13:00:00	0.1390	21.613	0.0	0.296736937	0.286059745	0.002943042	0.030362822	0.009358117
2020-08-09T13:05:00	0.1388	21.654	0.0	0.296205257	0.285063356	0.002929287	0.030220911	0.009314378
2020-08-09T13:10:00	0.1383	21.747	0.0	0.295263391	0.283302637	0.002905019	0.029970547	0.009237214
2020-08-09T13:15:00	0.1380	21.766	0.0	0.294731572	0.282310928	0.002891373	0.029829761	0.009193822
2020-08-09T13:20:00	0.1379	21.906	0.0	0.294404813	0.281702490	0.002883009	0.029743468	0.009167226
2020-08-09T13:25:00	0.1377	21.804	0.0	0.294078035	0.281094689	0.002874659	0.029657327	0.009140676
2020-08-09T13:30:00	0.1372	21.808	0.0	0.292930652	0.278965908	0.002845463	0.029356120	0.009047841
2020-08-09T13:35:00	0.1377	21.790	0.0	0.294039818	0.281023649	0.002873684	0.029647263	0.009137574
2020-08-09T13:40:00	0.1374	21.680	0.0	0.293507882	0.280035826	0.002860128	0.029507410	0.009094470
2020-08-09T13:45:00	0.1369	21.671	0.0	0.292360380	0.277910950	0.002831022	0.029207137	0.009001923
2020-08-09T13:50:00	0.1365	21.727	0.0	0.291623074	0.276550032	0.002812421	0.029015225	0.008942774
2020-08-09T13:55:00	0.1370	21.709	0.0	0.292527331	0.278219584	0.002835245	0.029250703	0.009015351
2020-08-09T14:00:00	0.1369	21.686	0.0	0.292405627	0.277994579	0.002832167	0.029218940	0.009005561
2020-08-09T14:05:00	0.1373	21.509	0.0	0.293104604	0.279288113	0.002849877	0.029401660	0.009061877
2020-08-09T14:10:00	0.1372	21.380	0.0	0.292982912	0.279062688	0.002846789	0.029369797	0.009052057
2020-08-09T14:15:00	0.1376	21.295	0.0	0.293886945	0.280739577	0.002869784	0.029607028	0.009125174
2020-08-09T14:20:00	0.1366	21.200	0.0	0.291713581	0.276716905	0.002814700	0.029038740	0.008950022
2020-08-09T14:25:00	0.1368	21.150	0.0	0.292207460	0.277628410	0.002827158	0.029167268	0.008989635
2020-08-09T14:30:00	0.1362	21.154	0.0	0.290854448	0.275134952	0.002793111	0.028816013	0.008881375
2020-08-09T14:35:00	0.1361	21.036	0.0	0.290732707	0.274911161	0.002790060	0.028784539	0.008871674
2020-08-09T14:40:00	0.1359	21.078	0.0	0.290405709	0.274310522	0.002781877	0.028700109	0.008845652
2020-08-09T14:45:00	0.1367	21.040	0.0	0.291925803	0.277108395	0.002820049	0.029093925	0.008967030
2020-08-09T14:50:00	0.1363	21.103	0.0	0.291188439	0.275749388	0.002801491	0.028902470	0.008908022
2020-08-09T14:55:00	0.1366	21.125	0.0	0.291682366	0.276659346	0.002813914	0.029030629	0.008947522
2020-08-09T15:00:00	0.1359	21.202	0.0	0.290329222	0.274170126	0.002779965	0.028680383	0.008839573
2020-08-09T15:05:00	0.1362	21.152	0.0	0.291028466	0.275455002	0.002797475	0.028861039	0.008895252
2020-08-09T15:10:00	0.1362	21.094	0.0	0.290906729	0.275231085	0.002794422	0.028829535	0.008885543
2020-08-09T15:15:00	0.1361	21.103	0.0	0.290784988	0.275007256	0.002791370	0.028798053	0.008875839
2020-08-09T15:20:00	0.1365	21.049	0.0	0.291484173	0.276294032	0.002808925	0.028979161	0.008931659
2020-08-09T15:25:00	0.1365	21.035	0.0	0.291567663	0.276447892	0.002811026	0.029000835	0.008938339
2020-08-09T15:30:00	0.1367	20.988	0.0	0.292061556	0.277358968	0.002823474	0.029129260	0.008977921
2020-08-09T15:35:00	0.1364	20.995	0.0	0.291324209	0.275999364	0.002804903	0.028937662	0.008918869
2020-08-09T15:40:00	0.1357	21.156	0.0	0.289970975	0.273513034	0.002771020	0.028588104	0.008811131
2020-08-09T15:45:00	0.1360	21.162	0.0	0.290465015	0.274419406	0.002783360	0.028715410	0.008850368
2020-08-09T15:50:00	0.1358	21.090	0.0	0.290138001	0.273819289	0.002775188	0.028631104	0.008824384
2020-08-09T15:55:00	0.1354	21.050	0.0	0.289400390	0.272468143	0.002756812	0.028441519	0.008765952
2020-08-09T16:00:00	0.1353	20.980	0.0	0.289073311	0.271870101	0.002748688	0.028357706	0.008740120
2020-08-09T16:05:00	0.1342	20.968	0.0	0.286845347	0.267814363	0.002693753	0.027790949	0.008565441
2020-08-09T16:10:00	0.1335	21.044	0.0	0.285438301	0.265269125	0.002659419	0.027436741	0.008456270
2020-08-09T16:15:00	0.1332	21.103	0.0	0.284852837	0.264213743	0.002645216	0.027290202	0.008411105
2020-08-09T16:20:00	0.1328	21.226	0.0	0.284061801	0.262791220	0.002626101	0.027092997	0.008350325
2020-08-09T16:25:00	0.1330	21.095	0.0	0.284298238	0.263215992	0.002631805	0.027151846	0.008368463
2020-08-09T16:30:00	0.1330	21.037	0.0	0.284329171	0.263271591	0.002632552	0.027159551	0.008370837
2020-08-09T16:35:00	0.1329	21.115	0.0	0.284154604	0.262957903	0.002628339	0.027116086	0.008357441
2020-08-09T16:40:00	0.1330	21.036	0.0	0.284391036	0.263382806	0.002634046	0.027174965	0.008375588
2020-08-09T16:45:00	0.1331	20.961	0.0	0.284627458	0.263808041	0.002639761	0.027233923	0.008393760
2020-08-09T16:50:00	0.1336	20.797	0.0	0.285685703	0.265715753	0.002665436	0.027498813	0.008475401
2020-08-09T16:55:00	0.1329	20.655	0.0	0.284072834	0.262811034	0.002626367	0.027095742	0.008351171
2020-08-09T17:00:00	0.1328	20.562	0.0	0.283898258	0.262497612	0.002622160	0.027052339	0.008337794
2020-08-09T17:05:00	0.1325	20.449	0.0	0.283312616	0.261447593	0.002608078	0.026907059	0.008293017
2020-08-09T17:10:00	0.1330	20.433	0.0	0.284371136	0.263347029	0.002633565	0.027170007	0.008374060
2020-08-09T17:15:00	0.1326	20.326	0.0	0.283580025	0.261926773	0.002614502	0.026973334	0.008313443
2020-08-09T17:20:00	0.1327	20.209	0.0	0.283816485	0.262350868	0.002620191	0.027032024	0.008331532
2020-08-09T17:25:00	0.1329	20.124	0.0	0.284258437	0.263144463	0.002630844	0.027141934	0.008365408
2020-08-09T17:30:00	0.1339	20.029	0.0	0.286138522	0.266534211	0.002676471	0.027612654	0.008510488
2020-08-09T17:35:00	0.1349	19.935	0.0	0.288223266	0.270319005	0.002727645	0.028140615	0.008673211
2020-08-09T17:40:00	0.1351	19.841	0.0	0.288664840	0.271124187	0.002738564	0.028253256	0.008707928
2020-08-09T17:45:00	0.1358	19.744	0.0	0.290132816	0.273809780	0.002775059	0.028629769	0.008823973
2020-08-09T17:50:00	0.1364	19.656	0.0	0.291395173	0.276130066	0.002806687	0.028956067	0.008924541
2020-08-09T17:55:00	0.1368	19.565	0.0	0.292246876	0.277701221	0.002828154	0.029177541	0.008992801
2020-08-09T18:00:00	0.1372	19.466	0.0	0.293098446	0.279276704	0.002849721	0.029400048	0.009061380
2020-08-09T18:05:00	0.1375	19.363	0.0	0.293539621	0.280094716	0.002860935	0.029515743	0.009097038
2020-08-09T18:10:00	0.1378	19.288	0.0	0.294185879	0.281295202	0.002877413	0.029685738	0.009149433
2020-08-09T18:15:00	0.1387	19.236	0.0	0.296062476	0.284796083	0.002925600	0.030182872	0.009302654
2020-08-09T18:20:00	0.1388	19.170	0.0	0.296298383	0.285237749	0.002931693	0.030245737	0.009322030
2020-08-09T18:25:00	0.1391	19.082	0.0	0.296944324	0.286448880	0.002948418	0.030418290	0.009375212
2020-08-09T18:30:00	0.1394	18.990	0.0	0.297590191	0.287662504	0.002965202	0.030591444	0.009428580
2020-08-09T18:35:00	0.1391	18.926	0.0	0.296801028	0.286179974	0.002944703	0.030379957	0.009363398
2020-08-09T18:40:00	0.1390	18.870	0.0	0.296626866	0.285853322	0.002940191	0.030333408	0.009349051
2020-08-09T18:45:00	0.1390	18.802	0.0	0.296657728	0.285911192	0.002940990	0.030341654	0.009351592
2020-08-09T18:50:00	0.1396	18.760	0.0	0.297918600	0.288280612	0.002973759	0.030679727	0.009455790
2020-08-09T18:55:00	0.1401	18.751	0.0	0.298974257	0.290272104	0.003001372	0.030964600	0.009543590
2020-08-09T19:00:00	0.1408	18.731	0.0	0.300439518	0.293047957	0.003039966	0.031362768	0.009666310
2020-08-09T19:05:00	0.1406	18.655	0.0	0.300060565	0.292328756	0.003029955	0.031259484	0.009634476
2020-08-09T19:10:00	0.1410	18.596	0.0	0.300706086	0.293554410	0.003047021	0.031435550	0.009688742
2020-08-09T19:15:00	0.1410	18.552	0.0	0.300736926	0.293613032	0.003047837	0.031443978	0.009691339
2020-08-09T19:20:00	0.1411	18.560	0.0	0.300972642	0.294061289	0.003054085	0.031508436	0.009711206
2020-08-09T19:25:00	0.1411	18.518	0.0	0.301003480	0.294119960	0.003054903	0.031516875	0.009713807
2020-08-09T19:30:00	0.1416	18.443	0.0	0.302058581	0.296130926	0.003082974	0.031806474	0.009803064
2020-08-09T19:35:00	0.1421	18.407	0.0	0.303113496	0.298148554	0.003111202	0.032097697	0.009892822
2020-08-09T19:40:00	0.1426	18.373	0.0	0.304168226	0.300172845	0.003139588	0.032390547	0.009983081
2020-08-09T19:45:00	0.1428	18.319	0.0	0.304403807	0.300625942	0.003145950	0.032456186	0.010003312
2020-08-09T19:50:00	0.1438	18.255	0.0	0.306481829	0.304637802	0.003202425	0.033038825	0.010182887
2020-08-09T19:55:00	0.1445	18.190	0.0	0.307945271	0.307479487	0.003242578	0.033453083	0.010310565
2020-08-09T20:00:00	0.1448	18.148	0.0	0.308589956	0.308735612	0.003260368	0.033636611	0.010367130
2020-08-09T20:05:00	0.1444	18.129	0.0	0.307802238	0.307201153	0.003238640	0.033412451	0.010298042
2020-08-09T20:10:00	0.1447	18.092	0.0	0.308446938	0.308456724	0.003256416	0.033595842	0.010354565
2020-08-09T20:15:00	0.1446	18.062	0.0	0.308068484	0.307719356	0.003245974	0.033488110	0.010321361
2020-08-09T20:20:00	0.1448	18.017	0.0	0.308508540	0.308576833	0.003258118	0.033613398	0.010359976
2020-08-09T20:25:00	0.1448	17.959	0.0	0.308539340	0.308636896	0.003258969	0.033622179	0.010362682
2020-08-09T20:30:00	0.1451	17.920	0.0	0.309183965	0.309895317	0.003276813	0.033806273	0.010419422
2020-08-09T20:35:00	0.1448	17.883	0.0	0.308600941	0.308757038	0.003260671	0.033639744	0.010368096
2020-08-09T20:40:00	0.1450	17.856	0.0	0.309040960	0.309615920	0.003272849	0.033765379	0.010406818
2020-08-09T20:45:00	0.1444	17.844	0.0	0.307844029	0.307282462	0.003239790	0.033424320	0.010301700
2020-08-09T20:50:00	0.1441	17.786	0.0	0.307056217	0.305751528	0.003218147	0.033201029	0.010232880
2020-08-09T20:55:00	0.1441	17.722	0.0	0.307087025	0.305811323	0.003218992	0.033209743	0.010235565
2020-08-09T21:00:00	0.1440	17.656	0.0	0.306913164	0.305473957	0.003214227	0.033160585	0.010220414
2020-08-09T21:05:00	0.1441	17.612	0.0	0.307148640	0.305930929	0.003220681	0.033227176	0.010240938
2020-08-09T21:10:00	0.1444	17.600	0.0	0.307793407	0.307183973	0.003238397	0.033409943	0.010297269
2020-08-09T21:15:00	0.1438	17.588	0.0	0.306596238	0.304859472	0.003205552	0.033071093	0.010192832
2020-08-09T21:20:00	0.1433	17.564	0.0	0.305603557	0.302938874	0.003178478	0.032791775	0.010106743
2020-08-09T21:25:00	0.1437	17.556	0.0	0.306248484	0.304185945	0.003196051	0.032973073	0.010162621
2020-08-09T21:30:00	0.1442	17.514	0.0	0.307302675	0.306230044	0.003224908	0.033270782	0.010254378
2020-08-09T21:35:00	0.1432	17.484	0.0	0.305286563	0.302326878	0.003169863	0.032702895	0.010079350
2020-08-09T21:40:00	0.1430	17.457	0.0	0.304907917	0.301596682	0.003159592	0.032596928	0.010046690
2020-08-09T21:45:00	0.1430	17.425	0.0	0.304938735	0.301656080	0.003160427	0.032605545	0.010049346
2020-08-09T21:50:00	0.1426	17.403	0.0	0.304150554	0.300138869	0.003139111	0.032385626	0.009981564
2020-08-09T21:55:00	0.1422	17.375	0.0	0.303157476	0.298232822	0.003112382	0.032109874	0.009896575
2020-08-09T22:00:00	0.1416	17.352	0.0	0.301959400	0.295941591	0.003080328	0.031779180	0.009794652
2020-08-09T22:05:00	0.1413	17.331	0.0	0.301375690	0.294828570	0.003064787	0.031618847	0.009745236
2020-08-09T22:10:00	0.1412	17.312	0.0	0.301201665	0.294497155	0.003060164	0.031571145	0.009730533
2020-08-09T22:15:00	0.1416	17.286	0.0	0.302051900	0.296118169	0.003082796	0.031804635	0.009802497
2020-08-09T22:20:00	0.1414	17.242	0.0	0.301673051	0.295395311	0.003072698	0.031700462	0.009770390
2020-08-09T22:25:00	0.1408	17.205	0.0	0.300474676	0.293114728	0.003040896	0.031372361	0.009669266
2020-08-09T22:30:00	0.1411	17.166	0.0	0.300915280	0.293952173	0.003052564	0.031492742	0.009706369
2020-08-09T22:35:00	0.1410	17.125	0.0	0.300741242	0.293621237	0.003047952	0.031445157	0.009691703
2020-08-09T22:40:00	0.1406	17.091	0.0	0.299952508	0.292123842	0.003027104	0.031230072	0.009625411
2020-08-09T22:45:00	0.1406	17.063	0.0	0.299983352	0.292182325	0.003027917	0.031238465	0.009627998
2020-08-09T22:50:00	0.1405	17.029	0.0	0.299809286	0.291852360	0.003023328	0.031191116	0.009613405
2020-08-09T22:55:00	0.1401	16.987	0.0	0.299020426	0.290359362	0.003002583	0.030977097	0.009547442
2020-08-09T23:00:00	0.1395	16.956	0.0	0.297616520	0.287712034	0.002965888	0.030598516	0.009430760
2020-08-09T23:05:00	0.1396	16.922	0.0	0.297852363	0.288155890	0.002972032	0.030661908	0.009450298
2020-08-09T23:10:00	0.1399	16.899	0.0	0.298498128	0.289373019	0.002988898	0.030835909	0.009503927
2020-08-09T23:15:00	0.1390	16.866	0.0	0.296684061	0.285960575	0.002941672	0.030348690	0.009353761
2020-08-09T23:20:00	0.1392	16.828	0.0	0.297124954	0.286788030	0.002953106	0.030466653	0.009390118
2020-08-09T23:25:00	0.1396	16.801	0.0	0.297975782	0.288388306	0.002975251	0.030695115	0.009460533
2020-08-09T23:30:00	0.1398	16.773	0.0	0.298416575	0.289219165	0.002986765	0.030813900	0.009497143
2020-08-09T23:35:00	0.1403	16.750	0.0	0.299267213	0.290826010	0.003009063	0.031043951	0.009568047
2020-08-09T23:40:00	0.1401	16.724	0.0	0.298888185	0.290109466	0.002999114	0.030941311	0.009536413
2020-08-09T23:45:00	0.1394	16.708	0.0	0.297484247	0.287463247	0.002962445	0.030562998	0.009419813
2020-08-09T23:50:00	0.1390	16.689	0.0	0.296695068	0.285981218	0.002941957	0.030351632	0.009354668
2020-08-09T23:55:00	0.1382	16.665	0.0	0.295085512	0.282970739	0.002900450	0.029923411	0.009222686
2020-08-10T00:00:00	0.1380	16.644	0.0	0.294706205	0.282263670	0.002890723	0.029823056	0.009191756
2020-08-10T00:05:00	0.1377	16.608	0.0	0.294121759	0.281175974	0.002875775	0.029668844	0.009144226
2020-08-10T00:10:00	0.1369	16.578	0.0	0.292306278	0.277810971	0.002829655	0.029193027	0.008997575
2020-08-10T00:15:00	0.1359	16.555	0.0	0.290284934	0.274088849	0.002778858	0.028668965	0.008836053
2020-08-10T00:20:00	0.1356	16.537	0.0	0.289700013	0.273016575	0.002764267	0.028518434	0.008789658
2020-08-10T00:25:00	0.1356	16.514	0.0	0.289730914	0.273073168	0.002765037	0.028526374	0.008792105
2020-08-10T00:30:00	0.1350	16.488	0.0	0.288529979	0.270878146	0.002735226	0.028218824	0.008697316
2020-08-10T00:35:00	0.1355	16.467	0.0	0.289587430	0.272810436	0.002761464	0.028489518	0.008780746
2020-08-10T00:40:00	0.1354	16.441	0.0	0.289207740	0.272115814	0.002752025	0.028392134	0.008750731
2020-08-10T00:45:00	0.1352	16.421	0.0	0.288828023	0.271422051	0.002742605	0.028294954	0.008720780
2020-08-10T00:50:00	0.1345	16.398	0.0	0.287421513	0.268860204	0.002707892	0.027936823	0.008610400
2020-08-10T00:55:00	0.1345	16.379	0.0	0.287452427	0.268916377	0.002708652	0.027944663	0.008612817
2020-08-10T01:00:00	0.1348	16.368	0.0	0.288099417	0.270093396	0.002724588	0.028109074	0.008663489
2020-08-10T01:05:00	0.1343	16.119	153.0	0.287103499	0.268282695	0.002700082	0.027856249	0.008585566
2020-08-10T01:10:00	0.1333	15.973	132.0	0.285080160	0.264623270	0.002650725	0.027347041	0.008428624
2020-08-10T01:15:00	0.1335	15.924	127.0	0.285316550	0.265049474	0.002656462	0.027406226	0.008446865
2020-08-10T01:20:00	0.1335	15.899	145.0	0.285347477	0.265105260	0.002657213	0.027413975	0.008449253
2020-08-10T01:25:00	0.1330	15.881	134.0	0.284351026	0.263310878	0.002633080	0.027164996	0.008372516
2020-08-10T01:30:00	0.1326	15.868	115.0	0.283559913	0.261890716	0.002614018	0.026968346	0.008311906
2020-08-10T01:35:00	0.1324	15.857	128.0	0.283179779	0.261209726	0.002604891	0.026874175	0.008282882
2020-08-10T01:40:00	0.1324	15.842	135.0	0.283210719	0.261265119	0.002605633	0.026881832	0.008285242
2020-08-10T01:45:00	0.1324	15.829	126.0	0.283241658	0.261320517	0.002606375	0.026889491	0.008287602
2020-08-10T01:50:00	0.1325	15.819	95.0	0.283272598	0.261375922	0.002607117	0.026897150	0.008289963
2020-08-10T01:55:00	0.1323	15.807	118.0	0.282892442	0.260695581	0.002598004	0.026803132	0.008260986
2020-08-10T02:00:00	0.1320	15.794	84.0	0.282306682	0.259649064	0.002584002	0.026658672	0.008216462
2020-08-10T02:05:00	0.1324	15.780	135.0	0.283159874	0.261174092	0.002604413	0.026869250	0.008281364
2020-08-10T02:10:00	0.1323	15.764	130.0	0.282985266	0.260861618	0.002600228	0.026826070	0.008268055
2020-08-10T02:15:00	0.1320	15.757	111.0	0.282399517	0.259814778	0.002586218	0.026681534	0.008223508
2020-08-10T02:20:00	0.1316	15.752	133.0	0.281402481	0.258037867	0.002562481	0.026436647	0.008148031
2020-08-10T02:25:00	0.1316	15.746	142.0	0.281433432	0.258092933	0.002563216	0.026444227	0.008150368
2020-08-10T02:30:00	0.1308	15.737	153.0	0.279819187	0.255229004	0.002525071	0.026050696	0.008029078
2020-08-10T02:35:00	0.1304	15.727	150.0	0.279027346	0.253830155	0.002506492	0.025859019	0.007970001
2020-08-10T02:40:00	0.1294	15.718	142.0	0.277000703	0.250267928	0.002459335	0.025372510	0.007820054
2020-08-10T02:45:00	0.1293	15.709	138.0	0.276825873	0.249961844	0.002455294	0.025330814	0.007807203
2020-08-10T02:50:00	0.1290	15.705	148.0	0.276239378	0.248936436	0.002441767	0.025191257	0.007764190
2020-08-10T02:55:00	0.1294	15.701	131.0	0.276887834	0.250070299	0.002456726	0.025345586	0.007811756
2020-08-10T03:00:00	0.1294	15.702	97.0	0.276918814	0.250124536	0.002457442	0.025352974	0.007814033
2020-08-10T03:05:00	0.1294	15.702	143.0	0.276949793	0.250178778	0.002458158	0.025360364	0.007816310
2020-08-10T03:10:00	0.1295	15.695	144.0	0.277186574	0.250593557	0.002463637	0.025416886	0.007833731
2020-08-10T03:15:00	0.1297	15.688	163.0	0.277629127	0.251369739	0.002473897	0.025522742	0.007866357
2020-08-10T03:20:00	0.1296	15.683	164.0	0.277454320	0.251063003	0.002469841	0.025480896	0.007853460
2020-08-10T03:25:00	0.1299	15.672	149.0	0.278102610	0.252201537	0.002484905	0.025636304	0.007901358
2020-08-10T03:30:00	0.1303	15.672	150.0	0.278750811	0.253342565	0.002500024	0.025792290	0.007949434
2020-08-10T03:35:00	0.1308	15.672	145.0	0.279810311	0.255213302	0.002524863	0.026048542	0.008028414
2020-08-10T03:40:00	0.1311	15.674	134.0	0.280458282	0.256360898	0.002540130	0.026206053	0.008076960
2020-08-10T03:45:00	0.1314	15.668	127.0	0.281106168	0.257510987	0.002555454	0.026364143	0.008125685
2020-08-10T03:50:00	0.1311	15.664	134.0	0.280520196	0.256470689	0.002541592	0.026221134	0.008081608
2020-08-10T03:55:00	0.1310	15.665	119.0	0.280345494	0.256160954	0.002537468	0.026178593	0.008068497
2020-08-10T04:00:00	0.1315	15.671	141.0	0.281199025	0.257676039	0.002557655	0.026386850	0.008132684
2020-08-10T04:05:00	0.1313	15.663	128.0	0.280909734	0.257162009	0.002550801	0.026316148	0.008110892
2020-08-10T04:10:00	0.1309	15.654	129.0	0.280003435	0.255555059	0.002529407	0.026095425	0.008042863
2020-08-10T04:15:00	0.1307	15.651	152.0	0.279714072	0.255043083	0.002522600	0.026025200	0.008021219
2020-08-10T04:20:00	0.1309	15.654	45.0	0.280041756	0.255622901	0.002530309	0.026104734	0.008045732
2020-08-10T04:25:00	0.1311	15.664	150.0	0.280369417	0.256203356	0.002538033	0.026184416	0.008070291
2020-08-10T04:30:00	0.1338	15.702	122.0	0.286041009	0.266357850	0.002674092	0.027588114	0.008502925
2020-08-10T04:35:00	0.1333	15.716	123.0	0.284930172	0.264353026	0.002647089	0.027309530	0.008417062
2020-08-10T04:40:00	0.1348	15.738	108.0	0.288133142	0.270154821	0.002725420	0.028117660	0.008666136
2020-08-10T04:45:00	0.1338	15.749	78.0	0.285995707	0.266275937	0.002672987	0.027576718	0.008499412
2020-08-10T04:50:00	0.1337	15.788	74.0	0.285912129	0.266124850	0.002670950	0.027555701	0.008492935
2020-08-10T04:55:00	0.1333	15.753	127.0	0.285006737	0.264490962	0.002648945	0.027328674	0.008422963
2020-08-10T05:00:00	0.1336	15.739	119.0	0.285539525	0.265451815	0.002661880	0.027462127	0.008464094
2020-08-10T05:05:00	0.1334	15.721	119.0	0.285250484	0.264930323	0.002654858	0.027389677	0.008441764
2020-08-10T05:10:00	0.1329	15.719	115.0	0.284139474	0.262930725	0.002627974	0.027112321	0.008356281
2020-08-10T05:15:00	0.1314	15.732	115.0	0.281177925	0.257638529	0.002557154	0.026381689	0.008131093
2020-08-10T05:20:00	0.1312	15.746	112.0	0.280682988	0.256759484	0.002545438	0.026260815	0.008093838
2020-08-10T05:25:00	0.1313	15.755	103.0	0.280804969	0.256975987	0.002548322	0.026290573	0.008103010
2020-08-10T05:30:00	0.1308	15.766	115.0	0.279898650	0.255369601	0.002526941	0.026069981	0.008035021
2020-08-10T05:35:00	0.1303	15.760	122.0	0.278786439	0.253405357	0.002500857	0.025800881	0.007952082
2020-08-10T05:40:00	0.1299	15.777	116.0	0.278085504	0.252171462	0.002484507	0.025632196	0.007900092
2020-08-10T05:45:00	0.1301	15.786	93.0	0.278413298	0.252748112	0.002492144	0.025710995	0.007924378
2020-08-10T05:50:00	0.1308	15.804	131.0	0.279769612	0.255141310	0.002523906	0.026038669	0.008025371
2020-08-10T05:55:00	0.1311	15.820	129.0	0.280508619	0.256450158	0.002541318	0.026218314	0.008080739
2020-08-10T06:00:00	0.1311	15.830	125.0	0.280424949	0.256301799	0.002539343	0.026197935	0.008074458
2020-08-10T06:05:00	0.1308	15.880	0.0	0.279929937	0.255424968	0.002527677	0.026077576	0.008037362
2020-08-10T06:10:00	0.1326	15.912	55.0	0.283547156	0.261867848	0.002613712	0.026965182	0.008310931
2020-08-10T06:15:00	0.1329	15.947	0.0	0.284080097	0.262824076	0.002626542	0.027097548	0.008351728
2020-08-10T06:20:00	0.1332	15.950	0.0	0.284818463	0.264151846	0.002644383	0.027281614	0.008408458
2020-08-10T06:25:00	0.1326	15.990	0.0	0.283501832	0.261786608	0.002612622	0.026953944	0.008307467
2020-08-10T06:30:00	0.1328	15.976	0.0	0.284034777	0.262742693	0.002625449	0.027086276	0.008348253
2020-08-10T06:35:00	0.1333	15.971	0.0	0.284978625	0.264440311	0.002648263	0.027321644	0.008420796
2020-08-10T06:40:00	0.1335	15.986	0.0	0.285305962	0.265030376	0.002656205	0.027403573	0.008446047
2020-08-10T06:45:00	0.1324	16.018	0.0	0.283167347	0.261187470	0.002604592	0.026871099	0.008281934
2020-08-10T06:50:00	0.1326	16.083	0.0	0.283494801	0.261774008	0.002612453	0.026952201	0.008306930
2020-08-10T06:55:00	0.1326	16.167	0.0	0.283616713	0.261992549	0.002615384	0.026982434	0.008316248
2020-08-10T07:00:00	0.1327	16.232	0.0	0.283738621	0.262211178	0.002618317	0.027012689	0.008325573
2020-08-10T07:05:00	0.1327	16.299	0.0	0.283860526	0.262429895	0.002621251	0.027042964	0.008334904
2020-08-10T07:10:00	0.1323	16.327	0.0	0.282954768	0.260807058	0.002599497	0.026818532	0.008265732
2020-08-10T07:15:00	0.1328	16.383	111.0	0.283898817	0.262498615	0.002622173	0.027052478	0.008337836
2020-08-10T07:20:00	0.1339	16.521	188.0	0.286280821	0.266791679	0.002679944	0.027648491	0.008521533
2020-08-10T07:25:00	0.1351	16.612	0.0	0.288661724	0.271118501	0.002738486	0.028252460	0.008707683
2020-08-10T07:30:00	0.1360	16.638	0.0	0.290631071	0.274724402	0.002787515	0.028758280	0.008863581
2020-08-10T07:35:00	0.1356	16.629	0.0	0.289726496	0.273065077	0.002764927	0.028525238	0.008791756
2020-08-10T07:40:00	0.1353	16.602	0.0	0.289027082	0.271785629	0.002747541	0.028345872	0.008736473
2020-08-10T07:45:00	0.1347	16.675	0.0	0.287916884	0.269761060	0.002720086	0.028062627	0.008649174
2020-08-10T07:50:00	0.1351	16.678	0.0	0.288654701	0.271105685	0.002738313	0.028250666	0.008707130
2020-08-10T07:55:00	0.1355	16.710	0.0	0.289597707	0.272829250	0.002761720	0.028492156	0.008781559
2020-08-10T08:00:00	0.1351	16.702	0.0	0.288692957	0.271175497	0.002739260	0.028260438	0.008710141
2020-08-10T08:05:00	0.1337	16.696	0.0	0.285734056	0.265803088	0.002666613	0.027510955	0.008479144
2020-08-10T08:10:00	0.1324	16.809	0.0	0.283184552	0.261218270	0.002605005	0.026875356	0.008283246
2020-08-10T08:15:00	0.1325	16.898	0.0	0.283306470	0.261436585	0.002607930	0.026905537	0.008292548
2020-08-10T08:20:00	0.1326	16.957	0.0	0.283633915	0.262023394	0.002615798	0.026986702	0.008317564
2020-08-10T08:25:00	0.1331	16.921	0.0	0.284577837	0.263718763	0.002638560	0.027221542	0.008389944
2020-08-10T08:30:00	0.1349	16.907	0.0	0.288191728	0.270261546	0.002726867	0.028132581	0.008670735
2020-08-10T08:35:00	0.1341	17.017	0.0	0.286670564	0.267497514	0.002689473	0.027746793	0.008551831
2020-08-10T08:40:00	0.1338	17.089	0.0	0.285970741	0.266230800	0.002672379	0.027570439	0.008497477
2020-08-10T08:45:00	0.1340	17.108	0.0	0.286503428	0.267194710	0.002685384	0.027704611	0.008538830
2020-08-10T08:50:00	0.1342	17.149	0.0	0.286830668	0.267787745	0.002693393	0.027787239	0.008564297
2020-08-10T08:55:00	0.1344	17.180	0.0	0.287157887	0.268381417	0.002701417	0.027870018	0.008589810
2020-08-10T09:00:00	0.1340	17.352	0.0	0.286458130	0.267112673	0.002684276	0.027693185	0.008535309
2020-08-10T09:05:00	0.1342	17.301	0.0	0.286785373	0.267705620	0.002692284	0.027775793	0.008560769
2020-08-10T09:10:00	0.1343	17.231	0.0	0.287112595	0.268299204	0.002700305	0.027858551	0.008586276
2020-08-10T09:15:00	0.1343	17.323	0.0	0.287029035	0.268147561	0.002698255	0.027837403	0.008579758
2020-08-10T09:20:00	0.1351	17.405	0.0	0.288588352	0.270984628	0.002736670	0.028233724	0.008701908
2020-08-10T09:25:00	0.1357	17.400	0.0	0.289941936	0.273459805	0.002770296	0.028580633	0.008808829
2020-08-10T09:30:00	0.1347	17.350	0.0	0.287805239	0.269557894	0.002717335	0.028034243	0.008640426
2020-08-10T09:35:00	0.1341	17.350	0.0	0.286694782	0.267541406	0.002690065	0.027752909	0.008553716
2020-08-10T09:40:00	0.1327	17.375	0.0	0.283734733	0.262204205	0.002618223	0.027011724	0.008325276
2020-08-10T09:45:00	0.1320	17.441	0.0	0.282417819	0.259847453	0.002586655	0.026686042	0.008224897
2020-08-10T09:50:00	0.1312	17.587	0.0	0.280689277	0.256770644	0.002545587	0.026262349	0.008094311
2020-08-10T09:55:00	0.1317	17.704	0.0	0.281633758	0.258449489	0.002567975	0.026493325	0.008165500
2020-08-10T10:00:00	0.1314	17.691	0.0	0.281138867	0.257569104	0.002556228	0.026372138	0.008128149
2020-08-10T10:05:00	0.1314	17.708	0.0	0.281046009	0.257404085	0.002554028	0.026349438	0.008121153
2020-08-10T10:10:00	0.1311	17.651	0.0	0.280541858	0.256509109	0.002542103	0.026226412	0.008083235
2020-08-10T10:15:00	0.1321	17.792	0.0	0.282505133	0.260003373	0.002588741	0.026707559	0.008231529
2020-08-10T10:20:00	0.1325	17.825	0.0	0.283440072	0.261675930	0.002611139	0.026938635	0.008302749
2020-08-10T10:25:00	0.1320	17.954	0.0	0.282319466	0.259671879	0.002584307	0.026661819	0.008217432
2020-08-10T10:30:00	0.1308	17.985	0.0	0.279759012	0.255122561	0.002523656	0.026036098	0.008024578
2020-08-10T10:35:00	0.1306	18.031	0.0	0.279460432	0.254594745	0.002516643	0.025963743	0.008002278
2020-08-10T10:40:00	0.1296	18.012	0.0	0.277310065	0.250810020	0.002466497	0.025446396	0.007842826
2020-08-10T10:45:00	0.1285	18.156	0.0	0.275158721	0.247052731	0.002416966	0.024935390	0.007685329
2020-08-10T10:50:00	0.1298	18.248	0.0	0.277741559	0.251567128	0.002476508	0.025549679	0.007874659
2020-08-10T10:55:00	0.1311	18.235	0.0	0.280528651	0.256485685	0.002541791	0.026223194	0.008082243
2020-08-10T11:00:00	0.1323	18.132	0.0	0.282903059	0.260714568	0.002598259	0.026805755	0.008261794
2020-08-10T11:05:00	0.1335	18.021	0.0	0.285481792	0.265347612	0.002660477	0.027447646	0.008459631
2020-08-10T11:10:00	0.1344	17.963	0.0	0.287237770	0.268526450	0.002703378	0.027890250	0.008596046
2020-08-10T11:15:00	0.1356	17.917	0.0	0.289814338	0.273225985	0.002767115	0.028547816	0.008798714
2020-08-10T11:20:00	0.1363	17.901	0.0	0.291158430	0.275694152	0.002800738	0.028894695	0.008905626
2020-08-10T11:25:00	0.1387	17.855	0.0	0.295989111	0.284658799	0.002923706	0.030163339	0.009296634
2020-08-10T11:30:00	0.1406	17.753	0.0	0.299996093	0.292206486	0.003028253	0.031241933	0.009629067
2020-08-10T11:35:00	0.1409	17.723	0.0	0.300518257	0.293197508	0.003042049	0.031384255	0.009672932
2020-08-10T11:40:00	0.1414	17.620	0.0	0.301654953	0.295360803	0.003072216	0.031695491	0.009768858
2020-08-10T11:45:00	0.1415	17.594	0.0	0.301767295	0.295575049	0.003075208	0.031726356	0.009778371
2020-08-10T11:50:00	0.1414	17.493	0.0	0.301674791	0.295398629	0.003072745	0.031700940	0.009770537
2020-08-10T11:55:00	0.1422	17.472	0.0	0.303220870	0.298354311	0.003114084	0.032127433	0.009901987
2020-08-10T12:00:00	0.1435	17.452	0.0	0.305994889	0.303695266	0.003189134	0.032901708	0.010140626
2020-08-10T12:05:00	0.1424	17.419	0.0	0.303650278	0.299177896	0.003125628	0.032246526	0.009938693
2020-08-10T12:10:00	0.1435	17.341	0.0	0.305810007	0.303337794	0.003184097	0.032849742	0.010124610
2020-08-10T12:15:00	0.1438	17.333	0.0	0.306536356	0.304743439	0.003203915	0.033054201	0.010187626
2020-08-10T12:20:00	0.1437	17.291	0.0	0.306239233	0.304168039	0.003195799	0.032970468	0.010161818
2020-08-10T12:25:00	0.1437	17.244	0.0	0.306351490	0.304385368	0.003198864	0.033002088	0.010171564
2020-08-10T12:30:00	0.1440	17.208	0.0	0.306873106	0.305396253	0.003213130	0.033149265	0.010216925
2020-08-10T12:35:00	0.1439	17.202	0.0	0.306780679	0.305217006	0.003210599	0.033123156	0.010208878
2020-08-10T12:40:00	0.1438	17.151	0.0	0.306483568	0.304641170	0.003202472	0.033039315	0.010183038
2020-08-10T12:45:00	0.1439	17.133	0.0	0.306800499	0.305255440	0.003211141	0.033128754	0.010210604
2020-08-10T12:50:00	0.1430	17.107	0.0	0.304865689	0.301515305	0.003158448	0.032585124	0.010043052
2020-08-10T12:55:00	0.1417	17.076	0.0	0.302315820	0.296622273	0.003089842	0.031877334	0.009824904
2020-08-10T13:00:00	0.1417	17.050	0.0	0.302223324	0.296445550	0.003087372	0.031851843	0.009817047
2020-08-10T13:05:00	0.1403	17.021	0.0	0.299262478	0.290817053	0.003008939	0.031042667	0.009567651
2020-08-10T13:10:00	0.1397	16.986	0.0	0.298145167	0.288707437	0.002979672	0.030740727	0.009474591
2020-08-10T13:15:00	0.1394	16.989	0.0	0.297437647	0.287375627	0.002961233	0.030550492	0.009415958
2020-08-10T13:20:00	0.1395	16.964	0.0	0.297755060	0.287972723	0.002969496	0.030635744	0.009442234
2020-08-10T13:25:00	0.1395	16.964	0.0	0.297662491	0.287798524	0.002967085	0.030610866	0.009434566
2020-08-10T13:30:00	0.1407	17.019	0.0	0.300234206	0.292658189	0.003034539	0.031306783	0.009649055
2020-08-10T13:35:00	0.1412	17.064	0.0	0.301166094	0.294429436	0.003059219	0.031561400	0.009727530
2020-08-10T13:40:00	0.1413	17.022	0.0	0.301483304	0.295033607	0.003067649	0.031648367	0.009754334
2020-08-10T13:45:00	0.1418	17.070	0.0	0.302414996	0.296811819	0.003092493	0.031904679	0.009833332
2020-08-10T13:50:00	0.1416	16.981	0.0	0.302117672	0.296243757	0.003084551	0.031822743	0.009808078
2020-08-10T13:55:00	0.1414	16.934	0.0	0.301615487	0.295285556	0.003071166	0.031684652	0.009765517
2020-08-10T14:00:00	0.1417	16.894	0.0	0.302137508	0.296281638	0.003085080	0.031828205	0.009809762
2020-08-10T14:05:00	0.1427	16.862	0.0	0.304297776	0.300421967	0.003143085	0.032426633	0.009994203
2020-08-10T14:10:00	0.1446	16.857	0.0	0.308094558	0.307770130	0.003246692	0.033495526	0.010323646
2020-08-10T14:15:00	0.1474	16.873	0.0	0.313933858	0.319248755	0.003410201	0.035182414	0.010843562
2020-08-10T14:20:00	0.1453	17.084	0.0	0.309546642	0.310604479	0.003286879	0.033910128	0.010451431
2020-08-10T14:25:00	0.1471	16.989	0.0	0.313340284	0.318072115	0.003393348	0.035008545	0.010789974
2020-08-10T14:30:00	0.1453	16.966	0.0	0.309566454	0.310643242	0.003287430	0.033915807	0.010453181
2020-08-10T14:35:00	0.1435	17.013	0.0	0.305995098	0.303695669	0.003189140	0.032901767	0.010140644
2020-08-10T14:40:00	0.1425	16.985	0.0	0.303855264	0.299571460	0.003131148	0.032303476	0.009956245
2020-08-10T14:45:00	0.1416	16.939	0.0	0.301919518	0.295865476	0.003079265	0.031768209	0.009791270
2020-08-10T14:50:00	0.1403	16.919	0.0	0.299368390	0.291017436	0.003011722	0.031071385	0.009576503
2020-08-10T14:55:00	0.1392	16.896	0.0	0.297021160	0.286593122	0.002950412	0.030438857	0.009381551
2020-08-10T15:00:00	0.1386	16.916	0.0	0.295903411	0.284498479	0.002921496	0.030140532	0.009289605
2020-08-10T15:05:00	0.1385	16.937	0.0	0.295605754	0.283942001	0.002913825	0.030061400	0.009265216
2020-08-10T15:10:00	0.1386	16.968	0.0	0.295923269	0.284535622	0.002922008	0.030145815	0.009291233
2020-08-10T15:15:00	0.1374	16.931	0.0	0.293369470	0.279779083	0.002856607	0.029471088	0.009083275
2020-08-10T15:20:00	0.1374	16.929	0.0	0.293481975	0.279987761	0.002859468	0.029500609	0.009092374
2020-08-10T15:25:00	0.1373	16.901	0.0	0.293184188	0.279435588	0.002851898	0.029422510	0.009068303
2020-08-10T15:30:00	0.1377	16.893	0.0	0.294117228	0.281167551	0.002875660	0.029667651	0.009143858
2020-08-10T15:35:00	0.1388	16.930	0.0	0.296280478	0.285204215	0.002931230	0.030240962	0.009320558
2020-08-10T15:40:00	0.1391	16.950	0.0	0.296802978	0.286183634	0.002944753	0.030380478	0.009363559
2020-08-10T15:45:00	0.1390	16.945	0.0	0.296710395	0.286009962	0.002942354	0.030355728	0.009355930
2020-08-10T15:50:00	0.1388	17.014	0.0	0.296207742	0.285068009	0.002929351	0.030221573	0.009314582
2020-08-10T15:55:00	0.1394	16.972	0.0	0.297550279	0.287587431	0.002964163	0.030580726	0.009425277
2020-08-10T16:00:00	0.1382	16.929	0.0	0.294997221	0.282806073	0.002898184	0.029900032	0.009215480
2020-08-10T16:05:00	0.1377	16.941	0.0	0.294062493	0.281065797	0.002874262	0.029653234	0.009139415
2020-08-10T16:10:00	0.1367	16.919	0.0	0.291896542	0.277054399	0.002819311	0.029086312	0.008964684
2020-08-10T16:15:00	0.1360	16.877	0.0	0.290550799	0.274576943	0.002785506	0.028737551	0.008857192
2020-08-10T16:20:00	0.1361	16.883	0.0	0.290641649	0.274743836	0.002787780	0.028761012	0.008864423
2020-08-10T16:25:00	0.1349	16.858	0.0	0.288268990	0.270402324	0.002728775	0.028152265	0.008676802
2020-08-10T16:30:00	0.1350	16.855	0.0	0.288565212	0.270942414	0.002736098	0.028227817	0.008700087
2020-08-10T16:35:00	0.1354	16.862	0.0	0.289272035	0.272233374	0.002753622	0.028408610	0.008755809
2020-08-10T16:40:00	0.1355	16.861	0.0	0.289568201	0.272775235	0.002760986	0.028484581	0.008779224
2020-08-10T16:45:00	0.1352	16.842	0.0	0.288837860	0.271440012	0.002742849	0.028297469	0.008721555
2020-08-10T16:50:00	0.1350	16.787	0.0	0.288518095	0.270856470	0.002734932	0.028215791	0.008696381
2020-08-10T16:55:00	0.1346	16.760	0.0	0.287582246	0.269152334	0.002711845	0.027977603	0.008622969
2020-08-10T17:00:00	0.1346	16.763	0.0	0.287673147	0.269317619	0.002714082	0.028000683	0.008630083
2020-08-10T17:05:00	0.1338	16.738	0.0	0.286120909	0.266502351	0.002676041	0.027608221	0.008509122
2020-08-10T17:10:00	0.1339	16.798	0.0	0.286211835	0.266666845	0.002678260	0.027631114	0.008516178
2020-08-10T17:15:00	0.1333	16.738	0.0	0.285070107	0.264605152	0.002650481	0.027344526	0.008427848
2020-08-10T17:20:00	0.1327	16.710	0.0	0.283722605	0.262182451	0.002617931	0.027008713	0.008324348
2020-08-10T17:25:00	0.1330	16.692	0.0	0.284430091	0.263453027	0.002634989	0.027184699	0.008378588
2020-08-10T17:30:00	0.1337	16.666	0.0	0.285753834	0.265838816	0.002667095	0.027515923	0.008480675
2020-08-10T17:35:00	0.1333	16.653	0.0	0.285022958	0.264520188	0.002649338	0.027332731	0.008424213
2020-08-10T17:40:00	0.1326	16.634	0.0	0.283469916	0.261729410	0.002611856	0.026946032	0.008305029
2020-08-10T17:45:00	0.1321	16.633	0.0	0.282533143	0.260053402	0.002589410	0.026714463	0.008233657
2020-08-10T17:50:00	0.1334	16.638	0.0	0.285295792	0.265012035	0.002655958	0.027401026	0.008445262
2020-08-10T17:55:00	0.1330	16.623	0.0	0.284359359	0.263325857	0.002633281	0.027167072	0.008373155
2020-08-10T18:00:00	0.1327	16.575	0.0	0.283833803	0.262381942	0.002620608	0.027036325	0.008332858
2020-08-10T18:05:00	0.1327	16.566	0.0	0.283719253	0.262176438	0.002617850	0.027007881	0.008324091
2020-08-10T18:10:00	0.1330	16.536	0.0	0.284426740	0.263447001	0.002634908	0.027183864	0.008378331
2020-08-10T18:15:00	0.1334	16.542	0.0	0.285134127	0.264720540	0.002652034	0.027360546	0.008432786
2020-08-10T18:20:00	0.1339	16.577	0.0	0.286252273	0.266740016	0.002679247	0.027641299	0.008519317
2020-08-10T18:25:00	0.1339	16.534	0.0	0.286137777	0.266532864	0.002676453	0.027612467	0.008510431
2020-08-10T18:30:00	0.1333	16.495	0.0	0.284996032	0.264471674	0.002648685	0.027325997	0.008422138
2020-08-10T18:35:00	0.1329	16.505	0.0	0.284265047	0.263156342	0.002631004	0.027143580	0.008365915
2020-08-10T18:40:00	0.1329	16.519	0.0	0.284150507	0.262950544	0.002628240	0.027115067	0.008357127
2020-08-10T18:45:00	0.1336	16.495	0.0	0.285679769	0.265705037	0.002665292	0.027497324	0.008474942
2020-08-10T18:50:00	0.1348	16.457	0.0	0.288030038	0.269967053	0.002722876	0.028091414	0.008658047
2020-08-10T18:55:00	0.1345	16.434	0.0	0.287504857	0.269011661	0.002709941	0.027957964	0.008616916
2020-08-10T19:00:00	0.1346	16.428	0.0	0.287595760	0.269176904	0.002712177	0.027981034	0.008624026
2020-08-10T19:05:00	0.1354	16.474	0.0	0.289329307	0.272338115	0.002755045	0.028423291	0.008760334
2020-08-10T19:10:00	0.1363	16.442	0.0	0.291062288	0.275517229	0.002798324	0.028869795	0.008897951
2020-08-10T19:15:00	0.1364	16.404	0.0	0.291358355	0.276062249	0.002805761	0.028946517	0.008921598
2020-08-10T19:20:00	0.1362	16.430	0.0	0.291038741	0.275473904	0.002797733	0.028863698	0.008896072
2020-08-10T19:25:00	0.1365	16.442	0.0	0.291540027	0.276396958	0.002810330	0.028993659	0.008936127
2020-08-10T19:30:00	0.1368	16.405	0.0	0.292246458	0.277700449	0.002828143	0.029177432	0.008992768
2020-08-10T19:35:00	0.1365	16.378	0.0	0.291516481	0.276353567	0.002809738	0.028987547	0.008934243
2020-08-10T19:40:00	0.1374	16.336	0.0	0.293453907	0.279935692	0.002858754	0.029493242	0.009090104
2020-08-10T19:45:00	0.1375	16.347	0.0	0.293544709	0.280104157	0.002861065	0.029517079	0.009097450
2020-08-10T19:50:00	0.1377	16.340	0.0	0.294045765	0.281034704	0.002873835	0.029648829	0.009138057
2020-08-10T19:55:00	0.1375	16.329	0.0	0.293521172	0.280060485	0.002860466	0.029510899	0.009095546
2020-08-10T20:00:00	0.1367	16.320	0.0	0.291970636	0.277191135	0.002821180	0.029105592	0.008970626
2020-08-10T20:05:00	0.1363	16.309	0.0	0.291240623	0.275845454	0.002802802	0.028915993	0.008912190
2020-08-10T20:10:00	0.1366	16.281	0.0	0.291741890	0.276769111	0.002815413	0.029046098	0.008952289
2020-08-10T20:15:00	0.1368	16.251	0.0	0.292243111	0.277694266	0.002828059	0.029176560	0.008992499
2020-08-10T20:20:00	0.1366	16.243	0.0	0.291718345	0.276725691	0.002814820	0.029039978	0.008950403
2020-08-10T20:25:00	0.1366	16.226	0.0	0.291809176	0.276893216	0.002817109	0.029063590	0.008957681
2020-08-10T20:30:00	0.1369	16.226	0.0	0.292310391	0.277818572	0.002829759	0.029194100	0.008997905
2020-08-10T20:35:00	0.1373	16.216	0.0	0.293221877	0.279505442	0.002852856	0.029432388	0.009071348
2020-08-10T20:40:00	0.1361	16.200	0.0	0.290645113	0.274750200	0.002787867	0.028761907	0.008864699
2020-08-10T20:45:00	0.1355	16.203	0.0	0.289504351	0.272658370	0.002759397	0.028468191	0.008774173
2020-08-10T20:50:00	0.1354	16.175	0.0	0.289389927	0.272449001	0.002756552	0.028438835	0.008765125
2020-08-10T20:55:00	0.1362	16.165	0.0	0.290917654	0.275251177	0.002794696	0.028832362	0.008886414
2020-08-10T21:00:00	0.1364	16.154	0.0	0.291418951	0.276173868	0.002807284	0.028962236	0.008926442
2020-08-10T21:05:00	0.1368	16.149	0.0	0.292125398	0.277476849	0.002825086	0.029145887	0.008983045
2020-08-10T21:10:00	0.1365	16.174	0.0	0.291600621	0.276508642	0.002811855	0.029009394	0.008940977
2020-08-10T21:15:00	0.1371	16.150	0.0	0.292717400	0.278571168	0.002840058	0.029300352	0.009030653
2020-08-10T21:20:00	0.1366	16.163	0.0	0.291782285	0.276843613	0.002816431	0.029056598	0.008955526
2020-08-10T21:25:00	0.1365	16.168	0.0	0.291462696	0.276254460	0.002808385	0.028973587	0.008929941
2020-08-10T21:30:00	0.1368	16.133	0.0	0.292169137	0.277557625	0.002826190	0.029157282	0.008986557
2020-08-10T21:35:00	0.1368	16.119	0.0	0.292259960	0.277725394	0.002828484	0.029180952	0.008993853
2020-08-10T21:40:00	0.1369	16.091	0.0	0.292350782	0.277893212	0.002830780	0.029204633	0.009001152
2020-08-10T21:45:00	0.1368	16.076	0.0	0.292236418	0.277681901	0.002827890	0.029174815	0.008991961
2020-08-10T21:50:00	0.1362	16.095	0.0	0.290890759	0.275201718	0.002794021	0.028825404	0.008884269
2020-08-10T21:55:00	0.1359	16.078	0.0	0.290365862	0.274237375	0.002780880	0.028689831	0.008842485
2020-08-10T22:00:00	0.1353	16.066	0.0	0.289019734	0.271772203	0.002747359	0.028343992	0.008735893
2020-08-10T22:05:00	0.1352	16.049	0.0	0.288903462	0.271559809	0.002744475	0.028314244	0.008726725
2020-08-10T22:10:00	0.1357	16.063	0.0	0.290018963	0.273601005	0.002772217	0.028600454	0.008814938
2020-08-10T22:15:00	0.1354	16.046	0.0	0.289286847	0.272260461	0.002753990	0.028412406	0.008756980
2020-08-10T22:20:00	0.1352	16.049	0.0	0.288965272	0.271672708	0.002746008	0.028330055	0.008731598
2020-08-10T22:25:00	0.1353	16.024	0.0	0.289054313	0.271835384	0.002748216	0.028352842	0.008738621
2020-08-10T22:30:00	0.1354	16.000	0.0	0.289348653	0.272373501	0.002755526	0.028428251	0.008761863
2020-08-10T22:35:00	0.1353	16.036	0.0	0.289027082	0.271785629	0.002747541	0.028345872	0.008736473
2020-08-10T22:40:00	0.1357	16.050	0.0	0.289937286	0.273451283	0.002770180	0.028579436	0.008808460
2020-08-10T22:45:00	0.1351	16.033	0.0	0.288589212	0.270986197	0.002736692	0.028233944	0.008701976
2020-08-10T22:50:00	0.1354	15.985	0.0	0.289294195	0.272273899	0.002754172	0.028414290	0.008757560
2020-08-10T22:55:00	0.1372	15.963	0.0	0.293077301	0.279237528	0.002849184	0.029394510	0.009059673
2020-08-10T23:00:00	0.1377	16.072	0.0	0.293986824	0.280925158	0.002872331	0.029633312	0.009133274
2020-08-10T23:05:00	0.1376	16.054	0.0	0.293870659	0.280709321	0.002869368	0.029602744	0.009123853
2020-08-10T23:10:00	0.1372	16.006	0.0	0.292933905	0.278971932	0.002845546	0.029356971	0.009048104
2020-08-10T23:15:00	0.1377	15.965	0.0	0.294048577	0.281039929	0.002873907	0.029649570	0.009138285
2020-08-10T23:20:00	0.1382	15.951	0.0	0.294957941	0.282732831	0.002897176	0.029889635	0.009212276
2020-08-10T23:25:00	0.1377	15.978	0.0	0.294021371	0.280989363	0.002873213	0.029642406	0.009136078
2020-08-10T23:30:00	0.1376	15.963	0.0	0.293905207	0.280773502	0.002870249	0.029611833	0.009126654
2020-08-10T23:35:00	0.1367	15.932	0.0	0.291942561	0.277139319	0.002820472	0.029098285	0.008968374
2020-08-10T23:40:00	0.1360	15.946	0.0	0.290594992	0.274658120	0.002786612	0.028748962	0.008860709
2020-08-10T23:45:00	0.1361	15.932	0.0	0.290684005	0.274821661	0.002788841	0.028771954	0.008867796
2020-08-10T23:50:00	0.1357	15.926	0.0	0.289951980	0.273478215	0.002770546	0.028583217	0.008809625
2020-08-10T23:55:00	0.1354	15.947	0.0	0.289219855	0.272137964	0.002752326	0.028395238	0.008751688
2020-08-11T00:00:00	0.1353	15.932	0.0	0.289103588	0.271925431	0.002749439	0.028365457	0.008742509
2020-08-11T00:05:00	0.1351	15.931	0.0	0.288782001	0.271338029	0.002741465	0.028283190	0.008717154
2020-08-11T00:10:00	0.1351	15.925	0.0	0.288665724	0.271125800	0.002738585	0.028253482	0.008707997
2020-08-11T00:15:00	0.1345	15.900	0.0	0.287522699	0.269044089	0.002710380	0.027962491	0.008618311
2020-08-11T00:20:00	0.1343	15.894	0.0	0.286995629	0.268086949	0.002697436	0.027828951	0.008577153
2020-08-11T00:25:00	0.1350	15.906	0.0	0.288522211	0.270863978	0.002735034	0.028216842	0.008696705
2020-08-11T00:30:00	0.1349	15.879	0.0	0.288200590	0.270277690	0.002727085	0.028134838	0.008671430
2020-08-11T00:35:00	0.1346	15.857	0.0	0.287673589	0.269318423	0.002714093	0.028000795	0.008630117
2020-08-11T00:40:00	0.1344	15.870	0.0	0.287351915	0.268733760	0.002706182	0.027919177	0.008604961
2020-08-11T00:45:00	0.1341	15.896	0.0	0.286619428	0.267404851	0.002688221	0.027733883	0.008547852
2020-08-11T00:50:00	0.1343	15.904	0.0	0.287119295	0.268311364	0.002700470	0.027860247	0.008586799
2020-08-11T00:55:00	0.1341	15.900	0.0	0.286592185	0.267355491	0.002687555	0.027727006	0.008545733
2020-08-11T01:00:00	0.1339	15.864	0.0	0.286270444	0.266772900	0.002679691	0.027645876	0.008520728
2020-08-11T01:05:00	0.1341	15.849	0.0	0.286564941	0.267306135	0.002686888	0.027720131	0.008543614
2020-08-11T01:10:00	0.1342	15.832	0.0	0.286859422	0.267839886	0.002694097	0.027794507	0.008566537
2020-08-11T01:15:00	0.1338	15.816	0.0	0.285921436	0.266141673	0.002671177	0.027558041	0.008493656
2020-08-11T01:20:00	0.1335	15.816	0.0	0.285394204	0.265189559	0.002658348	0.027425686	0.008452863
2020-08-11T01:25:00	0.1334	15.835	0.0	0.285277850	0.264979676	0.002655522	0.027396531	0.008443877
2020-08-11T01:30:00	0.1336	15.805	0.0	0.285572405	0.265511171	0.002662680	0.027470376	0.008466637
2020-08-11T01:35:00	0.1333	15.788	0.0	0.285045136	0.264560152	0.002649876	0.027338279	0.008425923
2020-08-11T01:40:00	0.1328	15.794	0.0	0.283901308	0.262503085	0.002622233	0.027053097	0.008338027
2020-08-11T01:45:00	0.1330	15.776	0.0	0.284401440	0.263401511	0.002634297	0.027177558	0.008376387
2020-08-11T01:50:00	0.1331	15.763	0.0	0.284490559	0.263561767	0.002636451	0.027199774	0.008383235
2020-08-11T01:55:00	0.1337	15.760	0.0	0.285812448	0.265944711	0.002668522	0.027530648	0.008485213
2020-08-11T02:00:00	0.1341	15.745	0.0	0.286723211	0.267592934	0.002690761	0.027760089	0.008555929
2020-08-11T02:05:00	0.1337	15.756	0.0	0.285785200	0.265895481	0.002667858	0.027523802	0.008483103
2020-08-11T02:10:00	0.1334	15.759	0.0	0.285257954	0.264943794	0.002655039	0.027391548	0.008442341
2020-08-11T02:15:00	0.1329	15.763	0.0	0.284114173	0.262885279	0.002627364	0.027106026	0.008354340
2020-08-11T02:20:00	0.1325	15.747	0.0	0.283381222	0.261570487	0.002609725	0.026924053	0.008298255
2020-08-11T02:25:00	0.1328	15.734	0.0	0.283881406	0.262467366	0.002621754	0.027048151	0.008336503
2020-08-11T02:30:00	0.1334	15.720	0.0	0.285203453	0.264845519	0.002653716	0.027377900	0.008438135
2020-08-11T02:35:00	0.1335	15.711	0.0	0.285498012	0.265376884	0.002660871	0.027451714	0.008460885
2020-08-11T02:40:00	0.1336	15.707	0.0	0.285587111	0.265537722	0.002663037	0.027474066	0.008467774
2020-08-11T02:45:00	0.1337	15.703	0.0	0.285881648	0.266069759	0.002670207	0.027548038	0.008490573
2020-08-11T02:50:00	0.1338	15.705	0.0	0.285970741	0.266230800	0.002672379	0.027570439	0.008497477
2020-08-11T02:55:00	0.1342	15.735	0.0	0.286881476	0.267879882	0.002694638	0.027800082	0.008568255
2020-08-11T03:00:00	0.1336	15.711	0.0	0.285532614	0.265439340	0.002661712	0.027460393	0.008463560
2020-08-11T03:05:00	0.1332	15.703	0.0	0.284799867	0.264118365	0.002643933	0.027276968	0.008407027
2020-08-11T03:10:00	0.1330	15.699	0.0	0.284478014	0.263539206	0.002636147	0.027196646	0.008382270
2020-08-11T03:15:00	0.1332	15.691	0.0	0.284772615	0.264069299	0.002643273	0.027270161	0.008404929
2020-08-11T03:20:00	0.1324	15.688	0.0	0.283217656	0.261277540	0.002605799	0.026883549	0.008285771
2020-08-11T03:25:00	0.1333	15.674	0.0	0.284950838	0.264390253	0.002647590	0.027314696	0.008418655
2020-08-11T03:30:00	0.1328	15.661	0.0	0.284012502	0.262702695	0.002624912	0.027080737	0.008346546
2020-08-11T03:35:00	0.1334	15.661	0.0	0.285129054	0.264711395	0.002651911	0.027359276	0.008432395
2020-08-11T03:40:00	0.1337	15.639	0.0	0.285834506	0.265984568	0.002669059	0.027536190	0.008486921
2020-08-11T03:45:00	0.1346	15.636	0.0	0.287566801	0.269124256	0.002711465	0.027973683	0.008621761
2020-08-11T03:50:00	0.1355	15.618	0.0	0.289503816	0.272657391	0.002759384	0.028468054	0.008774131
2020-08-11T03:55:00	0.1356	15.612	0.0	0.289798132	0.273196296	0.002766711	0.028543650	0.008797430
2020-08-11T04:00:00	0.1359	15.601	0.0	0.290297697	0.274112271	0.002779177	0.028672255	0.008837067
2020-08-11T04:05:00	0.1360	15.600	0.0	0.290532015	0.274542444	0.002785036	0.028732702	0.008855698
2020-08-11T04:10:00	0.1359	15.583	0.0	0.290355819	0.274218941	0.002780629	0.028687241	0.008841686
2020-08-11T04:15:00	0.1361	15.580	0.0	0.290795380	0.275026357	0.002791631	0.028800739	0.008876667
2020-08-11T04:20:00	0.1364	15.567	0.0	0.291440126	0.276212878	0.002807817	0.028967730	0.008928136
2020-08-11T04:25:00	0.1365	15.570	0.0	0.291469181	0.276266408	0.002808548	0.028975270	0.008930460
2020-08-11T04:30:00	0.1361	15.560	0.0	0.290677310	0.274809359	0.002788673	0.028770225	0.008867263
2020-08-11T04:35:00	0.1359	15.565	0.0	0.290295861	0.274108900	0.002779131	0.028671782	0.008836922
2020-08-11T04:40:00	0.1359	15.560	0.0	0.290324921	0.274162232	0.002779857	0.028679274	0.008839231
2020-08-11T04:45:00	0.1357	15.560	0.0	0.289943447	0.273462575	0.002770334	0.028581021	0.008808948
2020-08-11T04:50:00	0.1354	15.560	0.0	0.289356652	0.272388132	0.002755725	0.028430302	0.008762495
2020-08-11T04:55:00	0.1352	15.571	0.0	0.288975109	0.271690677	0.002746252	0.028332572	0.008732374
2020-08-11T05:00:00	0.1347	15.564	0.0	0.287772164	0.269497720	0.002716520	0.028025837	0.008637835
2020-08-11T05:05:00	0.1349	15.570	0.0	0.288211939	0.270298368	0.002727366	0.028137729	0.008672321
2020-08-11T05:10:00	0.1345	15.569	0.0	0.287419583	0.268856696	0.002707845	0.027936333	0.008610249
2020-08-11T05:15:00	0.1344	15.570	0.0	0.287243283	0.268536461	0.002703513	0.027891647	0.008596477
2020-08-11T05:20:00	0.1344	15.568	0.0	0.287272360	0.268589265	0.002704227	0.027899014	0.008598747
2020-08-11T05:25:00	0.1344	15.574	0.0	0.287301437	0.268642073	0.002704941	0.027906382	0.008601018
2020-08-11T05:30:00	0.1340	15.567	0.0	0.286508942	0.267204697	0.002685519	0.027706002	0.008539259
2020-08-11T05:35:00	0.1342	15.572	0.0	0.286743428	0.267629579	0.002691256	0.027765196	0.008557503
2020-08-11T05:40:00	0.1345	15.590	0.0	0.287388668	0.268800528	0.002707085	0.027928494	0.008607833
2020-08-11T05:45:00	0.1344	15.610	0.0	0.287212367	0.268480326	0.002702754	0.027883816	0.008594063
2020-08-11T05:50:00	0.1339	15.623	0.0	0.286214441	0.266671560	0.002678324	0.027631770	0.008516380
2020-08-11T05:55:00	0.1343	15.645	0.0	0.287065139	0.268213076	0.002699141	0.027846539	0.008582574
2020-08-11T06:00:00	0.1343	15.659	0.0	0.287094218	0.268265849	0.002699854	0.027853899	0.008584842
2020-08-11T06:05:00	0.1344	15.686	0.0	0.287328677	0.268691548	0.002705611	0.027913286	0.008603146
2020-08-11T06:10:00	0.1343	15.708	0.0	0.286946986	0.267998703	0.002696244	0.027816647	0.008573361
2020-08-11T06:15:00	0.1344	15.736	0.0	0.287181452	0.268424197	0.002701995	0.027875986	0.008591650
2020-08-11T06:20:00	0.1348	15.756	0.0	0.288031991	0.269970610	0.002722925	0.028091911	0.008658200
2020-08-11T06:25:00	0.1351	15.784	0.0	0.288677073	0.271146510	0.002738866	0.028256380	0.008708891
2020-08-11T06:30:00	0.1356	15.812	0.0	0.289732658	0.273076362	0.002765080	0.028526822	0.008792243
2020-08-11T06:35:00	0.1358	15.844	0.0	0.290172270	0.273882146	0.002776044	0.028639931	0.008827105
2020-08-11T06:40:00	0.1355	15.885	0.0	0.289585500	0.272806903	0.002761416	0.028489022	0.008780593
2020-08-11T06:45:00	0.1364	15.907	0.0	0.291256615	0.275874897	0.002803204	0.028920138	0.008913467
2020-08-11T06:50:00	0.1370	15.953	0.0	0.292516874	0.278200247	0.002834981	0.029247973	0.009014509
2020-08-11T06:55:00	0.1374	16.000	0.0	0.293366566	0.279773697	0.002856533	0.029470326	0.009083041
2020-08-11T07:00:00	0.1376	16.048	0.0	0.293805884	0.280589006	0.002867717	0.029585707	0.009118602
2020-08-11T07:05:00	0.1378	16.102	0.0	0.294245167	0.281405467	0.002878928	0.029701364	0.009154249
2020-08-11T07:10:00	0.1381	16.147	0.0	0.294889509	0.282605254	0.002895421	0.029871527	0.009206695
2020-08-11T07:15:00	0.1378	16.198	0.0	0.294303246	0.281513504	0.002880412	0.029716677	0.009158969
2020-08-11T07:20:00	0.1375	16.253	0.0	0.293716922	0.280423807	0.002865450	0.029562319	0.009111394
2020-08-11T07:25:00	0.1374	16.311	0.0	0.293335686	0.279716434	0.002855748	0.029462226	0.009080544
2020-08-11T07:30:00	0.1376	16.413	0.0	0.293775006	0.280531662	0.002866930	0.029577588	0.009116100
2020-08-11T07:35:00	0.1379	16.636	0.0	0.294419402	0.281729641	0.002883382	0.029747317	0.009168412
2020-08-11T07:40:00	0.1384	16.710	0.0	0.295473875	0.283695629	0.002910431	0.030026383	0.009254423
2020-08-11T07:45:00	0.1386	16.703	0.0	0.295913027	0.284516464	0.002921744	0.030143090	0.009290393
2020-08-11T07:50:00	0.1395	17.162	0.0	0.297787215	0.288033248	0.002970334	0.030644389	0.009444898
2020-08-11T07:55:00	0.1393	17.018	0.0	0.297406255	0.287316610	0.002960416	0.030542068	0.009413362
2020-08-11T08:00:00	0.1394	17.161	0.0	0.297435279	0.287371174	0.002961171	0.030549856	0.009415762
2020-08-11T08:05:00	0.1393	17.170	0.0	0.297259302	0.287040415	0.002956596	0.030502657	0.009401215
2020-08-11T08:10:00	0.1396	17.103	0.0	0.297903300	0.288251801	0.002973360	0.030675611	0.009454521
2020-08-11T08:15:00	0.1397	17.225	0.0	0.298137297	0.288692605	0.002979467	0.030738607	0.009473937
2020-08-11T08:20:00	0.1400	17.417	0.0	0.298781196	0.289907371	0.002996310	0.030912378	0.009527495
2020-08-11T08:25:00	0.1403	17.398	0.0	0.299425024	0.291124615	0.003013212	0.031086749	0.009581238
2020-08-11T08:30:00	0.1406	17.672	0.0	0.300068781	0.292344338	0.003030171	0.031261720	0.009635166
2020-08-11T08:35:00	0.1404	17.719	0.0	0.299483050	0.291234450	0.003014738	0.031102495	0.009586091
2020-08-11T08:40:00	0.1405	17.902	0.0	0.299716983	0.291677464	0.003020896	0.031166026	0.009605672
2020-08-11T08:45:00	0.1410	18.003	0.0	0.300770481	0.293676822	0.003048726	0.031453148	0.009694166
2020-08-11T08:50:00	0.1410	18.037	0.0	0.300799487	0.293731970	0.003049495	0.031461077	0.009696610
2020-08-11T08:55:00	0.1412	18.291	0.0	0.301238234	0.294566781	0.003061135	0.031581165	0.009733622
2020-08-11T09:00:00	0.1407	18.295	0.0	0.300242839	0.292674573	0.003034767	0.031309136	0.009649780
2020-08-11T09:05:00	0.1409	18.359	0.0	0.300681627	0.293507923	0.003046373	0.031428868	0.009686682
2020-08-11T09:10:00	0.1407	18.256	0.0	0.300095958	0.292395887	0.003030889	0.031269121	0.009637447
2020-08-11T09:15:00	0.1412	18.186	0.0	0.301149387	0.294397633	0.003058776	0.031556824	0.009726120
2020-08-11T09:20:00	0.1407	18.261	0.0	0.300153977	0.292505955	0.003032420	0.031284923	0.009642317
2020-08-11T09:25:00	0.1395	18.596	0.0	0.297723670	0.287913646	0.002968678	0.030627306	0.009439633
2020-08-11T09:30:00	0.1406	18.570	0.0	0.300007094	0.292227346	0.003028544	0.031244927	0.009629990
2020-08-11T09:35:00	0.1402	18.482	0.0	0.299216427	0.290729947	0.003007729	0.031030185	0.009563804
2020-08-11T09:40:00	0.1405	18.423	0.0	0.299860207	0.291948867	0.003024670	0.031204962	0.009617672
2020-08-11T09:45:00	0.1398	18.411	0.0	0.298249706	0.288904486	0.002982403	0.030768898	0.009483273
2020-08-11T09:50:00	0.1400	18.389	0.0	0.298688644	0.289732604	0.002993885	0.030887362	0.009519785
2020-08-11T09:55:00	0.1401	18.351	0.0	0.298922609	0.290174507	0.003000017	0.030950624	0.009539283
2020-08-11T10:00:00	0.1388	18.521	0.0	0.296286748	0.285215958	0.002931392	0.030242634	0.009321074
2020-08-11T10:05:00	0.1398	18.527	0.0	0.298394800	0.289178091	0.002986195	0.030808026	0.009495333
2020-08-11T10:10:00	0.1407	18.374	0.0	0.300092291	0.292388931	0.003030792	0.031268122	0.009637139
2020-08-11T10:15:00	0.1413	18.210	0.0	0.301379588	0.294835995	0.003064891	0.031619916	0.009745565
2020-08-11T10:20:00	0.1401	18.226	0.0	0.298978807	0.290280702	0.003001491	0.030965831	0.009543970
2020-08-11T10:25:00	0.1406	18.237	0.0	0.300061447	0.292330428	0.003029978	0.031259724	0.009634550
2020-08-11T10:30:00	0.1429	18.227	0.0	0.304625604	0.301052848	0.003151948	0.032518062	0.010022383
2020-08-11T10:35:00	0.1439	18.114	0.0	0.306730697	0.305120097	0.003209231	0.033109042	0.010204528
2020-08-11T10:40:00	0.1425	17.877	0.0	0.303922524	0.299700654	0.003132961	0.032322176	0.009962009
2020-08-11T10:45:00	0.1410	17.695	0.0	0.300703301	0.293549118	0.003046947	0.031434789	0.009688507
2020-08-11T10:50:00	0.1402	17.568	0.0	0.299122048	0.290551472	0.003005250	0.031004615	0.009555923
2020-08-11T10:55:00	0.1391	17.499	0.0	0.296925352	0.286413272	0.002947926	0.030413213	0.009373648
2020-08-11T11:00:00	0.1388	17.480	0.0	0.296368331	0.285368774	0.002933501	0.030264392	0.009327780
2020-08-11T11:05:00	0.1390	17.544	0.0	0.296631418	0.285861856	0.002940309	0.030334624	0.009349426
2020-08-11T11:10:00	0.1396	17.666	0.0	0.297919482	0.288282274	0.002973782	0.030679965	0.009455863
2020-08-11T11:15:00	0.1398	17.801	0.0	0.298387464	0.289164255	0.002986003	0.030806047	0.009494723
2020-08-11T11:20:00	0.1391	18.041	0.0	0.296805579	0.286188513	0.002944821	0.030381174	0.009363773
2020-08-11T11:25:00	0.1381	18.107	0.0	0.294813084	0.282462813	0.002893462	0.029851312	0.009200464
2020-08-11T11:30:00	0.1367	18.343	0.0	0.291999153	0.277243770	0.002821899	0.029113014	0.008972914
2020-08-11T11:35:00	0.1392	18.761	0.0	0.297184745	0.286900338	0.002954659	0.030482673	0.009395056
2020-08-11T11:40:00	0.1387	18.603	0.0	0.296012637	0.284702818	0.002924313	0.030169602	0.009298564
2020-08-11T11:45:00	0.1370	18.556	0.0	0.292583825	0.278324061	0.002836675	0.029265455	0.009019897
2020-08-11T11:50:00	0.1364	18.524	0.0	0.291410746	0.276158753	0.002807078	0.028960107	0.008925786
2020-08-11T11:55:00	0.1353	18.697	0.0	0.289005688	0.271746542	0.002747010	0.028340397	0.008734786
2020-08-11T12:00:00	0.1355	18.868	0.0	0.289474426	0.272603606	0.002758653	0.028460512	0.008771806
2020-08-11T12:05:00	0.1344	19.089	0.0	0.287273872	0.268592010	0.002704264	0.027899397	0.008598865
2020-08-11T12:10:00	0.1356	18.959	0.0	0.289795970	0.273192335	0.002766657	0.028543094	0.008797259
2020-08-11T12:15:00	0.1367	18.749	0.0	0.291906490	0.277072755	0.002819562	0.029088900	0.008965482
2020-08-11T12:20:00	0.1374	18.575	0.0	0.293400792	0.279837171	0.002857403	0.029479305	0.009085808
2020-08-11T12:25:00	0.1393	18.413	0.0	0.297355220	0.287220675	0.002959089	0.030528377	0.009409142
2020-08-11T12:30:00	0.1396	18.326	0.0	0.297823248	0.288101078	0.002971273	0.030654078	0.009447885
2020-08-11T12:35:00	0.1393	18.130	0.0	0.297266315	0.287053591	0.002956778	0.030504536	0.009401794
2020-08-11T12:40:00	0.1396	18.086	0.0	0.297939332	0.288319656	0.002974300	0.030685306	0.009457509
2020-08-11T12:45:00	0.1409	18.015	0.0	0.300661461	0.293469597	0.003045839	0.031423359	0.009684984
2020-08-11T12:50:00	0.1415	17.877	0.0	0.301743792	0.295530220	0.003074582	0.031719897	0.009776380
2020-08-11T12:55:00	0.1442	17.753	0.0	0.307330051	0.306283219	0.003225660	0.033278535	0.010256768
2020-08-11T13:00:00	0.1471	17.943	0.0	0.313320275	0.318032490	0.003392781	0.035002694	0.010788170
2020-08-11T13:05:00	0.1484	17.894	0.0	0.316035697	0.323433093	0.003470301	0.035802459	0.011034666
2020-08-11T13:10:00	0.1482	17.823	0.0	0.315480394	0.322324887	0.003454358	0.035637979	0.010983971
2020-08-11T13:15:00	0.1480	17.667	0.0	0.315129460	0.321625540	0.003444307	0.035534279	0.010952010
2020-08-11T13:20:00	0.1474	17.587	0.0	0.313960766	0.319302147	0.003410966	0.035190308	0.010845995
2020-08-11T13:25:00	0.1465	17.606	0.0	0.311973879	0.315371941	0.003354753	0.034610365	0.010667251
2020-08-11T13:30:00	0.1456	17.577	0.0	0.310190957	0.311866387	0.003304811	0.034095126	0.010508449
2020-08-11T13:35:00	0.1456	17.430	0.0	0.310248881	0.311979961	0.003306426	0.034111789	0.010513585
2020-08-11T13:40:00	0.1457	17.337	0.0	0.310511363	0.312494888	0.003313751	0.034187360	0.010536876
2020-08-11T13:45:00	0.1447	17.310	0.0	0.308318796	0.308206955	0.003252878	0.033559340	0.010343315
2020-08-11T13:50:00	0.1442	17.358	0.0	0.307353533	0.306328834	0.003226304	0.033285187	0.010258818
2020-08-11T13:55:00	0.1451	17.297	0.0	0.309253114	0.310030464	0.003278731	0.033826059	0.010425520
2020-08-11T14:00:00	0.1465	17.346	0.0	0.311970220	0.315364724	0.003354650	0.034609303	0.010666923
2020-08-11T14:05:00	0.1463	17.396	0.0	0.311619099	0.314672780	0.003344777	0.034507450	0.010635531
2020-08-11T14:10:00	0.1444	17.276	0.0	0.307789977	0.307177299	0.003238302	0.033408969	0.010296969
2020-08-11T14:15:00	0.1422	17.227	0.0	0.303344177	0.298590690	0.003117396	0.032161603	0.009912518
2020-08-11T14:20:00	0.1418	17.198	0.0	0.302378133	0.296741358	0.003091508	0.031894513	0.009830199
2020-08-11T14:25:00	0.1404	17.141	0.0	0.299567930	0.291395152	0.003016971	0.031125537	0.009593193
2020-08-11T14:30:00	0.1401	17.147	0.0	0.299011164	0.290341857	0.003002340	0.030974590	0.009546669
2020-08-11T14:35:00	0.1391	17.101	0.0	0.296814426	0.286205112	0.002945050	0.030383540	0.009364502
2020-08-11T14:40:00	0.1377	17.044	0.0	0.294001507	0.280952445	0.002872706	0.029637177	0.009134466
2020-08-11T14:45:00	0.1361	16.992	0.0	0.290776689	0.274992001	0.002791162	0.028795907	0.008875178
2020-08-11T14:50:00	0.1362	16.993	0.0	0.291040042	0.275476299	0.002797766	0.028864035	0.008896176
2020-08-11T14:55:00	0.1361	17.025	0.0	0.290687678	0.274828411	0.002788933	0.028772903	0.008868088
2020-08-11T15:00:00	0.1363	17.077	0.0	0.291156268	0.275690173	0.002800683	0.028894135	0.008905453
2020-08-11T15:05:00	0.1367	17.022	0.0	0.292035224	0.277310355	0.002822809	0.029122404	0.008975808
2020-08-11T15:10:00	0.1366	16.991	0.0	0.291682924	0.276660375	0.002813928	0.029030774	0.008947566
2020-08-11T15:15:00	0.1364	16.977	0.0	0.291330601	0.276011136	0.002805063	0.028939320	0.008919379
2020-08-11T15:20:00	0.1360	16.960	0.0	0.290567769	0.274608115	0.002785931	0.028741933	0.008858543
2020-08-11T15:25:00	0.1359	16.998	0.0	0.290420634	0.274337922	0.002782250	0.028703959	0.008846839
2020-08-11T15:30:00	0.1367	16.958	0.0	0.291915345	0.277089095	0.002819785	0.029091204	0.008966192
2020-08-11T15:35:00	0.1367	16.962	0.0	0.291973448	0.277196325	0.002821251	0.029106324	0.008970852
2020-08-11T15:40:00	0.1379	16.999	0.0	0.294493346	0.281867275	0.002885273	0.029766833	0.009174427
2020-08-11T15:45:00	0.1382	17.104	0.0	0.294961611	0.282739674	0.002897271	0.029890607	0.009212575
2020-08-11T15:50:00	0.1379	17.129	0.0	0.294404395	0.281701712	0.002882998	0.029743357	0.009167192
2020-08-11T15:55:00	0.1380	17.120	0.0	0.294667574	0.282191708	0.002889733	0.029812847	0.009188609
2020-08-11T16:00:00	0.1373	17.093	0.0	0.293289796	0.279631347	0.002854582	0.029450192	0.009076835
2020-08-11T16:05:00	0.1373	17.135	0.0	0.293262586	0.279580904	0.002853890	0.029443059	0.009074637
2020-08-11T16:10:00	0.1379	17.163	0.0	0.294466143	0.281816637	0.002884577	0.029759652	0.009172214
2020-08-11T16:15:00	0.1379	17.148	0.0	0.294438940	0.281766003	0.002883881	0.029752473	0.009170001
2020-08-11T16:20:00	0.1379	17.182	0.0	0.294411736	0.281715373	0.002883186	0.029745294	0.009167789
2020-08-11T16:25:00	0.1375	17.158	0.0	0.293564040	0.280140029	0.002861557	0.029522155	0.009099015
2020-08-11T16:30:00	0.1363	17.241	0.0	0.291074608	0.275539897	0.002798633	0.028872985	0.008898934
2020-08-11T16:35:00	0.1352	17.184	0.0	0.288994666	0.271726404	0.002746737	0.028337576	0.008733916
2020-08-11T16:40:00	0.1348	17.126	0.0	0.288146120	0.270178460	0.002725741	0.028120965	0.008667154
2020-08-11T16:45:00	0.1343	17.073	0.0	0.287092054	0.268261923	0.002699801	0.027853352	0.008584673
2020-08-11T16:50:00	0.1347	17.071	0.0	0.287886298	0.269705394	0.002719332	0.028054849	0.008646777
2020-08-11T16:55:00	0.1350	17.056	0.0	0.288475094	0.270778046	0.002733869	0.028204819	0.008692999
2020-08-11T17:00:00	0.1344	17.033	0.0	0.287215717	0.268486408	0.002702836	0.027884664	0.008594324
2020-08-11T17:05:00	0.1350	17.010	0.0	0.288420627	0.270678728	0.002732522	0.028190924	0.008688717
2020-08-11T17:10:00	0.1353	16.991	0.0	0.289009362	0.271753254	0.002747101	0.028341337	0.008735075
2020-08-11T17:15:00	0.1354	16.942	0.0	0.289392740	0.272454148	0.002756622	0.028439557	0.008765348
2020-08-11T17:20:00	0.1350	16.943	0.0	0.288544258	0.270904192	0.002735579	0.028222468	0.008698439
2020-08-11T17:25:00	0.1347	16.967	0.0	0.287900998	0.269732147	0.002719695	0.028058587	0.008647929
2020-08-11T17:30:00	0.1344	16.950	0.0	0.287257659	0.268562567	0.002703866	0.027895289	0.008597599
2020-08-11T17:35:00	0.1345	16.889	0.0	0.287435796	0.268886155	0.002708243	0.027940445	0.008611517
2020-08-11T17:40:00	0.1355	16.912	0.0	0.289461893	0.272580672	0.002758341	0.028457296	0.008770815
2020-08-11T17:45:00	0.1351	16.913	0.0	0.288613422	0.271030366	0.002737291	0.028240125	0.008703881
2020-08-11T17:50:00	0.1352	16.876	0.0	0.288996828	0.271730355	0.002746790	0.028338130	0.008734087
2020-08-11T17:55:00	0.1359	16.843	0.0	0.290406593	0.274312144	0.002781899	0.028700337	0.008845723
2020-08-11T18:00:00	0.1358	16.773	0.0	0.290174107	0.273885515	0.002776090	0.028640405	0.008827251
2020-08-11T18:05:00	0.1354	16.771	0.0	0.289325749	0.272331608	0.002754957	0.028422379	0.008760053
2020-08-11T18:10:00	0.1355	16.768	0.0	0.289503816	0.272657391	0.002759384	0.028468054	0.008774131
2020-08-11T18:15:00	0.1360	16.753	0.0	0.290502955	0.274489076	0.002784309	0.028725201	0.008853386
2020-08-11T18:20:00	0.1356	16.702	0.0	0.289654650	0.272933506	0.002763138	0.028506780	0.008786067
2020-08-11T18:25:00	0.1349	16.671	0.0	0.288190217	0.270258792	0.002726829	0.028132196	0.008670616
2020-08-11T18:30:00	0.1351	16.659	0.0	0.288778978	0.271332510	0.002741390	0.028282417	0.008716916
2020-08-11T18:35:00	0.1351	16.647	0.0	0.288751746	0.271282799	0.002740716	0.028275458	0.008714771
2020-08-11T18:40:00	0.1358	16.639	0.0	0.290161575	0.273862529	0.002775777	0.028637176	0.008826256
2020-08-11T18:45:00	0.1354	16.601	0.0	0.289313216	0.272308685	0.002754645	0.028419165	0.008759063
2020-08-11T18:50:00	0.1367	16.564	0.0	0.291954228	0.277160851	0.002820766	0.029101322	0.008969310
2020-08-11T18:55:00	0.1370	16.549	0.0	0.292542576	0.278247775	0.002835631	0.029254683	0.009016577
2020-08-11T19:00:00	0.1371	16.544	0.0	0.292720537	0.278576973	0.002840137	0.029301172	0.009030906
2020-08-11T19:05:00	0.1370	16.530	0.0	0.292488150	0.278147137	0.002834254	0.029240475	0.009012198
2020-08-11T19:10:00	0.1373	16.500	0.0	0.293281593	0.279616141	0.002854373	0.029448042	0.009076172
2020-08-11T19:15:00	0.1378	16.473	0.0	0.294280038	0.281470330	0.002879819	0.029710558	0.009157082
2020-08-11T19:20:00	0.1384	16.462	0.0	0.295483374	0.283713372	0.002910676	0.030028904	0.009255200
2020-08-11T19:25:00	0.1388	16.446	0.0	0.296276390	0.285196560	0.002931125	0.030239873	0.009320222
2020-08-11T19:30:00	0.1393	16.424	0.0	0.297274302	0.287068600	0.002956986	0.030506678	0.009402454
2020-08-11T19:35:00	0.1394	16.407	0.0	0.297452112	0.287402824	0.002961609	0.030554373	0.009417155
2020-08-11T19:40:00	0.1396	16.389	0.0	0.297834903	0.288123020	0.002971577	0.030657212	0.009448851
2020-08-11T19:45:00	0.1399	16.366	0.0	0.298627593	0.289617348	0.002992286	0.030870868	0.009514701
2020-08-11T19:50:00	0.1398	16.341	0.0	0.298395450	0.289179317	0.002986212	0.030808201	0.009495387
2020-08-11T19:55:00	0.1398	16.325	0.0	0.298368266	0.289128045	0.002985501	0.030800868	0.009493127
2020-08-11T20:00:00	0.1398	16.302	0.0	0.298341081	0.289076777	0.002984791	0.030793536	0.009490867
2020-08-11T20:05:00	0.1396	16.279	0.0	0.297903950	0.288253025	0.002973377	0.030675786	0.009454575
2020-08-11T20:10:00	0.1400	16.262	0.0	0.298696630	0.289747681	0.002994094	0.030889520	0.009520450
2020-08-11T20:15:00	0.1397	16.237	0.0	0.298054555	0.288536697	0.002977306	0.030716322	0.009467069
2020-08-11T20:20:00	0.1396	16.224	0.0	0.297822389	0.288099461	0.002971251	0.030653847	0.009447813
2020-08-11T20:25:00	0.1404	16.230	0.0	0.299639765	0.291531192	0.003018862	0.031145046	0.009599206
2020-08-11T20:30:00	0.1400	16.226	0.0	0.298792849	0.289929379	0.002996615	0.030915528	0.009528466
2020-08-11T20:35:00	0.1402	16.192	0.0	0.299175551	0.290652642	0.003006655	0.031019109	0.009560391
2020-08-11T20:40:00	0.1405	16.165	0.0	0.299763146	0.291764928	0.003022112	0.031178572	0.009609539
2020-08-11T20:45:00	0.1412	16.149	0.0	0.301170201	0.294437254	0.003059328	0.031562525	0.009727877
2020-08-11T20:50:00	0.1405	16.151	0.0	0.299708790	0.291661943	0.003020680	0.031163799	0.009604986
2020-08-11T20:55:00	0.1411	16.135	0.0	0.300910987	0.293944008	0.003052450	0.031491568	0.009706007
2020-08-11T21:00:00	0.1406	16.109	0.0	0.300064255	0.292335754	0.003030052	0.031260488	0.009634786
2020-08-11T21:05:00	0.1406	16.074	0.0	0.300037079	0.292284211	0.003029335	0.031253089	0.009632506
2020-08-11T21:10:00	0.1400	16.054	0.0	0.298780337	0.289905749	0.002996287	0.030912145	0.009527423
2020-08-11T21:15:00	0.1392	16.032	0.0	0.297113321	0.286766181	0.002952804	0.030463537	0.009389158
2020-08-11T21:20:00	0.1395	16.025	0.0	0.297701126	0.287871221	0.002968091	0.030621247	0.009437766
2020-08-11T21:25:00	0.1402	15.998	0.0	0.299108678	0.290526194	0.003004899	0.031000994	0.009554807
2020-08-11T21:30:00	0.1396	15.981	0.0	0.297851736	0.288154710	0.002972016	0.030661740	0.009450246
2020-08-11T21:35:00	0.1394	15.966	0.0	0.297414568	0.287332236	0.002960632	0.030544299	0.009414049
2020-08-11T21:40:00	0.1390	15.944	0.0	0.296772349	0.286126173	0.002943960	0.030372289	0.009361034
2020-08-11T21:45:00	0.1391	15.926	0.0	0.296950175	0.286459864	0.002948570	0.030419856	0.009375695
2020-08-11T21:50:00	0.1392	15.904	0.0	0.297127996	0.286793743	0.002953185	0.030467468	0.009390370
2020-08-11T21:55:00	0.1393	15.888	0.0	0.297305810	0.287127811	0.002957805	0.030515126	0.009405058
2020-08-11T22:00:00	0.1397	15.869	0.0	0.298098573	0.288619633	0.002978455	0.030728176	0.009470722
2020-08-11T22:05:00	0.1401	15.845	0.0	0.298889392	0.290111746	0.002999146	0.030941637	0.009536513
2020-08-11T22:10:00	0.1394	15.834	0.0	0.297425573	0.287352927	0.002960919	0.030547252	0.009414960
2020-08-11T22:15:00	0.1393	15.817	0.0	0.297396550	0.287298364	0.002960164	0.030539464	0.009412560
2020-08-11T22:20:00	0.1394	15.793	0.0	0.297572522	0.287629268	0.002964742	0.030586699	0.009427118
2020-08-11T22:25:00	0.1395	15.772	0.0	0.297748489	0.287960356	0.002969325	0.030633978	0.009441689
2020-08-11T22:30:00	0.1398	15.750	0.0	0.298334395	0.289064169	0.002984616	0.030791732	0.009490311
2020-08-11T22:35:00	0.1399	15.728	0.0	0.298510339	0.289396059	0.002989217	0.030839205	0.009504943
2020-08-11T22:40:00	0.1393	15.708	0.0	0.297251431	0.287025625	0.002956392	0.030500546	0.009400565
2020-08-11T22:45:00	0.1400	15.688	0.0	0.298657260	0.289673352	0.002993063	0.030878882	0.009517171
2020-08-11T22:50:00	0.1400	15.666	0.0	0.298833193	0.290005582	0.002997673	0.030926437	0.009531828
2020-08-11T22:55:00	0.1396	15.651	0.0	0.297984326	0.288404399	0.002975474	0.030697415	0.009461241
2020-08-11T23:00:00	0.1398	15.623	0.0	0.298365248	0.289122353	0.002985423	0.030800054	0.009492876
2020-08-11T23:05:00	0.1390	15.603	0.0	0.296696276	0.285983482	0.002941989	0.030351954	0.009354767
2020-08-11T23:10:00	0.1387	15.593	0.0	0.296052142	0.284776742	0.002925333	0.030180120	0.009301806
2020-08-11T23:15:00	0.1387	15.572	0.0	0.296023111	0.284722418	0.002924584	0.030172391	0.009299424
2020-08-11T23:20:00	0.1387	15.555	0.0	0.295994081	0.284668098	0.002923835	0.030164662	0.009297042
2020-08-11T23:25:00	0.1386	15.536	0.0	0.295965050	0.284613783	0.002923086	0.030156935	0.009294660
2020-08-11T23:30:00	0.1380	15.515	0.0	0.294705578	0.282262501	0.002890707	0.029822891	0.009191705
2020-08-11T23:35:00	0.1375	15.493	0.0	0.293650960	0.280301352	0.002863770	0.029544986	0.009106052
2020-08-11T23:40:00	0.1371	15.471	0.0	0.292801312	0.278726459	0.002842184	0.029322288	0.009037414
2020-08-11T23:45:00	0.1369	15.456	0.0	0.292361914	0.277913785	0.002831061	0.029207537	0.009002046
2020-08-11T23:50:00	0.1370	15.426	0.0	0.292538044	0.278239395	0.002835516	0.029253500	0.009016213
2020-08-11T23:55:00	0.1373	15.408	0.0	0.293124494	0.279324967	0.002850382	0.029406870	0.009063483
2020-08-12T00:00:00	0.1366	15.392	0.0	0.291864376	0.276995049	0.002818500	0.029077945	0.008962105
2020-08-12T00:05:00	0.1364	15.367	0.0	0.291424902	0.276184830	0.002807434	0.028963780	0.008926918
2020-08-12T00:10:00	0.1365	15.349	0.0	0.291601063	0.276509456	0.002811867	0.029009508	0.008941012
2020-08-12T00:15:00	0.1363	15.327	0.0	0.291161568	0.275699928	0.002800817	0.028895508	0.008905876
2020-08-12T00:20:00	0.1359	15.309	0.0	0.290311530	0.274137656	0.002779523	0.028675821	0.008838167
2020-08-12T00:25:00	0.1358	15.304	0.0	0.290077204	0.273707792	0.002773671	0.028615447	0.008819559
2020-08-12T00:30:00	0.1357	15.286	0.0	0.289842867	0.273278254	0.002767826	0.028555151	0.008800975
2020-08-12T00:35:00	0.1356	15.270	0.0	0.289813803	0.273225005	0.002767102	0.028547679	0.008798672
2020-08-12T00:40:00	0.1355	15.255	0.0	0.289579455	0.272795836	0.002761266	0.028487470	0.008780115
2020-08-12T00:45:00	0.1347	15.237	0.0	0.287907813	0.269744550	0.002719863	0.028060320	0.008648463
2020-08-12T00:50:00	0.1346	15.224	0.0	0.287673380	0.269318042	0.002714088	0.028000742	0.008630101
2020-08-12T00:55:00	0.1342	15.209	0.0	0.286822782	0.267773445	0.002693200	0.027785246	0.008563683
2020-08-12T01:00:00	0.1341	15.196	0.0	0.286588299	0.267348452	0.002687460	0.027726026	0.008545430
2020-08-12T01:05:00	0.1343	15.185	0.0	0.286970017	0.268040482	0.002696808	0.027822472	0.008575156
2020-08-12T01:10:00	0.1344	15.167	0.0	0.287351706	0.268733380	0.002706176	0.027919123	0.008604945
2020-08-12T01:15:00	0.1345	15.152	0.0	0.287528002	0.269053728	0.002710510	0.027963837	0.008618726
2020-08-12T01:20:00	0.1351	15.127	0.0	0.288731003	0.271244935	0.002740202	0.028270158	0.008713137
2020-08-12T01:25:00	0.1349	15.113	0.0	0.288291271	0.270442928	0.002729325	0.028157944	0.008678552
2020-08-12T01:30:00	0.1344	15.100	0.0	0.287235397	0.268522142	0.002703320	0.027889649	0.008595861
2020-08-12T01:35:00	0.1341	15.056	0.0	0.286590137	0.267351782	0.002687505	0.027726490	0.008545573
2020-08-12T01:40:00	0.1339	15.055	0.0	0.286150225	0.266555381	0.002676756	0.027615601	0.008511396
2020-08-12T01:45:00	0.1336	15.052	0.0	0.285710275	0.265760133	0.002666034	0.027504983	0.008477303
2020-08-12T01:50:00	0.1339	15.046	0.0	0.286297479	0.266821829	0.002680351	0.027652688	0.008522827
2020-08-12T01:55:00	0.1340	15.029	0.0	0.286473811	0.267141071	0.002684660	0.027697140	0.008536528
2020-08-12T02:00:00	0.1339	15.018	0.0	0.286239313	0.266716565	0.002678931	0.027638035	0.008518311
2020-08-12T02:05:00	0.1337	15.008	0.0	0.285799371	0.265921083	0.002668203	0.027527362	0.008484200
2020-08-12T02:10:00	0.1333	14.994	0.0	0.284948464	0.264385977	0.002647532	0.027314103	0.008418472
2020-08-12T02:15:00	0.1336	14.980	0.0	0.285535755	0.265445011	0.002661788	0.027461181	0.008463803
2020-08-12T02:20:00	0.1337	14.945	0.0	0.285917550	0.266134650	0.002671082	0.027557064	0.008493355
2020-08-12T02:25:00	0.1337	14.927	0.0	0.285888465	0.266082081	0.002670374	0.027549752	0.008491101
2020-08-12T02:30:00	0.1332	14.909	0.0	0.284832100	0.264176402	0.002644713	0.027285021	0.008409508
2020-08-12T02:35:00	0.1323	14.907	0.0	0.282953371	0.260804559	0.002599464	0.026818186	0.008265626
2020-08-12T02:40:00	0.1320	14.887	0.0	0.282307567	0.259650643	0.002584023	0.026658890	0.008216529
2020-08-12T02:45:00	0.1321	14.875	0.0	0.282484038	0.259965699	0.002588237	0.026702359	0.008229926
2020-08-12T02:50:00	0.1326	14.865	0.0	0.283482696	0.261752313	0.002612163	0.026949200	0.008306005
2020-08-12T02:55:00	0.1331	14.854	0.0	0.284481156	0.263544856	0.002636223	0.027197429	0.008382512
2020-08-12T03:00:00	0.1325	14.845	0.0	0.283424498	0.261648024	0.002610764	0.026934776	0.008301559
2020-08-12T03:05:00	0.1326	14.823	0.0	0.283600930	0.261964251	0.002615004	0.026978519	0.008315042
2020-08-12T03:10:00	0.1322	14.794	0.0	0.282749652	0.260440274	0.002594587	0.026767872	0.008250118
2020-08-12T03:15:00	0.1322	14.774	0.0	0.282720549	0.260388253	0.002593890	0.026760689	0.008247904
2020-08-12T03:20:00	0.1317	14.762	0.0	0.281663519	0.258502482	0.002568683	0.026500624	0.008167750
2020-08-12T03:25:00	0.1318	14.738	0.0	0.281840013	0.258816863	0.002572881	0.026543936	0.008181099
2020-08-12T03:30:00	0.1323	14.739	0.0	0.282838801	0.260599655	0.002596720	0.026789882	0.008256902
2020-08-12T03:35:00	0.1319	14.705	0.0	0.282192982	0.259446179	0.002581290	0.026630689	0.008207837
2020-08-12T03:40:00	0.1321	14.704	0.0	0.282575030	0.260128225	0.002590411	0.026724791	0.008236840
2020-08-12T03:45:00	0.1321	14.716	0.0	0.282545926	0.260076235	0.002589715	0.026717615	0.008234628
2020-08-12T03:50:00	0.1322	14.686	0.0	0.282722389	0.260391540	0.002593934	0.026761142	0.008248044
2020-08-12T03:55:00	0.1321	14.702	0.0	0.282487717	0.259972269	0.002588324	0.026703266	0.008230206
2020-08-12T04:00:00	0.1328	14.711	0.0	0.283897420	0.262496108	0.002622140	0.027052131	0.008337729
2020-08-12T04:05:00	0.1330	14.671	0.0	0.284364782	0.263335606	0.002633412	0.027168423	0.008373572
2020-08-12T04:10:00	0.1334	14.659	0.0	0.285243037	0.264916895	0.002654677	0.027387812	0.008441190
2020-08-12T04:15:00	0.1342	14.646	0.0	0.286942775	0.267991065	0.002696140	0.027815582	0.008573033
2020-08-12T04:20:00	0.1344	14.637	0.0	0.287204482	0.268466008	0.002702560	0.027881818	0.008593447
2020-08-12T04:25:00	0.1345	14.662	0.0	0.287466175	0.268941359	0.002708990	0.027948151	0.008613891
2020-08-12T04:30:00	0.1347	14.661	0.0	0.287933212	0.269790779	0.002720489	0.028066780	0.008650454
2020-08-12T04:35:00	0.1351	14.654	0.0	0.288605538	0.271015982	0.002737096	0.028238112	0.008703260
2020-08-12T04:40:00	0.1347	14.652	0.0	0.287840477	0.269622010	0.002718203	0.028043200	0.008643187
2020-08-12T04:45:00	0.1349	14.642	0.0	0.288307481	0.270472471	0.002729726	0.028162075	0.008679825
2020-08-12T04:50:00	0.1351	14.648	0.0	0.288774443	0.271324232	0.002741278	0.028281258	0.008716559
2020-08-12T04:55:00	0.1358	14.648	0.0	0.290062510	0.273680848	0.002773304	0.028611664	0.008818393
2020-08-12T05:00:00	0.1355	14.654	0.0	0.289502956	0.272655817	0.002759362	0.028467833	0.008774063
2020-08-12T05:05:00	0.1358	14.646	0.0	0.290175083	0.273887306	0.002776114	0.028640656	0.008827328
2020-08-12T05:10:00	0.1359	14.644	0.0	0.290231369	0.273990564	0.002777520	0.028655159	0.008831798
2020-08-12T05:15:00	0.1357	14.648	0.0	0.289877114	0.273341009	0.002768680	0.028563958	0.008803689
2020-08-12T05:20:00	0.1361	14.666	0.0	0.290754442	0.274951110	0.002790605	0.028790157	0.008873406
2020-08-12T05:25:00	0.1369	14.679	0.0	0.292452408	0.278081056	0.002833350	0.029231147	0.009009323
2020-08-12T05:30:00	0.1367	14.689	0.0	0.291893103	0.277048052	0.002819224	0.029085417	0.008964408
2020-08-12T05:35:00	0.1363	14.688	0.0	0.291128513	0.275639093	0.002799987	0.028886945	0.008903237
2020-08-12T05:40:00	0.1358	14.704	0.0	0.290158553	0.273856985	0.002775701	0.028636398	0.008826016
2020-08-12T05:45:00	0.1360	14.720	0.0	0.290625353	0.274713896	0.002787372	0.028756803	0.008863126
2020-08-12T05:50:00	0.1366	14.740	0.0	0.291707770	0.276706190	0.002814554	0.029037230	0.008949556
2020-08-12T05:55:00	0.1369	14.759	0.0	0.292379622	0.277946513	0.002831509	0.029212156	0.009003470
2020-08-12T06:00:00	0.1368	14.783	0.0	0.292230701	0.277671340	0.002827745	0.029173325	0.008991502
2020-08-12T06:05:00	0.1377	14.814	0.0	0.293928207	0.280816236	0.002870836	0.029617885	0.009128520
2020-08-12T06:10:00	0.1375	14.843	0.0	0.293574194	0.280158872	0.002861815	0.029524821	0.009099837
2020-08-12T06:15:00	0.1376	14.875	0.0	0.293835576	0.280644154	0.002868474	0.029593516	0.009121009
2020-08-12T06:20:00	0.1375	14.909	0.0	0.293686694	0.280367687	0.002864680	0.029554375	0.009108946
2020-08-12T06:25:00	0.1381	14.945	0.0	0.294768507	0.282379745	0.002892319	0.029839525	0.009196831
2020-08-12T06:30:00	0.1383	14.981	0.0	0.295234914	0.283249489	0.002904287	0.029962997	0.009234887
2020-08-12T06:35:00	0.1384	15.025	0.0	0.295496219	0.283737363	0.002911006	0.030032314	0.009256251
2020-08-12T06:40:00	0.1386	15.069	0.0	0.295962565	0.284609134	0.002923021	0.030156273	0.009294456
2020-08-12T06:45:00	0.1394	15.111	0.0	0.297453947	0.287406273	0.002961657	0.030554866	0.009417306
2020-08-12T06:50:00	0.1396	15.160	0.0	0.297920132	0.288283498	0.002973799	0.030680139	0.009455917
2020-08-12T06:55:00	0.1398	15.212	0.0	0.298386280	0.289162022	0.002985972	0.030805727	0.009494624
2020-08-12T07:00:00	0.1404	15.252	0.0	0.299467198	0.291204441	0.003014321	0.031098192	0.009584765
2020-08-12T07:05:00	0.1402	15.307	0.0	0.299113530	0.290535366	0.003005027	0.031002308	0.009555212
2020-08-12T07:10:00	0.1403	15.360	0.0	0.299374657	0.291029295	0.003011887	0.031073085	0.009577027
2020-08-12T07:15:00	0.1402	15.429	0.0	0.299225920	0.290747903	0.003007978	0.031032758	0.009564597
2020-08-12T07:20:00	0.1403	15.495	0.0	0.299282115	0.290854200	0.003009455	0.031047990	0.009569292
2020-08-12T07:25:00	0.1401	15.580	0.0	0.298928435	0.290185516	0.003000170	0.030952200	0.009539769
2020-08-12T07:30:00	0.1402	15.720	0.0	0.299189571	0.290679156	0.003007024	0.031022908	0.009561561
2020-08-12T07:35:00	0.1401	15.915	0.0	0.299040830	0.290397929	0.003003119	0.030982621	0.009549145
2020-08-12T07:40:00	0.1408	16.033	0.0	0.300326524	0.292833415	0.003036979	0.031331948	0.009656811
2020-08-12T07:45:00	0.1406	16.020	0.0	0.299972908	0.292162522	0.003027642	0.031235623	0.009627122
2020-08-12T07:50:00	0.1410	16.210	0.0	0.300848659	0.293825469	0.003050798	0.031474522	0.009700753
2020-08-12T07:55:00	0.1412	16.368	0.0	0.301109709	0.294322108	0.003057722	0.031545957	0.009722770
2020-08-12T08:00:00	0.1421	16.659	0.0	0.303009391	0.297949130	0.003108409	0.032068882	0.009883941
2020-08-12T08:05:00	0.1419	16.586	0.0	0.302655934	0.297272560	0.003098938	0.031971175	0.009853827
2020-08-12T08:10:00	0.1425	16.574	0.0	0.303940846	0.299735853	0.003133454	0.032327272	0.009963579
2020-08-12T08:15:00	0.1428	16.610	0.0	0.304406520	0.300631163	0.003146023	0.032456943	0.010003545
2020-08-12T08:20:00	0.1427	16.687	0.0	0.304257909	0.300345293	0.003142009	0.032415525	0.009990780
2020-08-12T08:25:00	0.1429	16.765	0.0	0.304723559	0.301241488	0.003154599	0.032545413	0.010030812
2020-08-12T08:30:00	0.1428	16.901	0.0	0.304574956	0.300955336	0.003150577	0.032503926	0.010018026
2020-08-12T08:35:00	0.1429	17.017	0.0	0.304631100	0.301063431	0.003152096	0.032519596	0.010022855
2020-08-12T08:40:00	0.1434	17.082	0.0	0.305710887	0.303146232	0.003181399	0.032821903	0.010116029
2020-08-12T08:45:00	0.1438	17.435	0.0	0.306585805	0.304839256	0.003205267	0.033068150	0.010191925
2020-08-12T08:50:00	0.1449	17.613	0.0	0.308688405	0.308927664	0.003263090	0.033664693	0.010375785
2020-08-12T08:55:00	0.1455	18.191	0.0	0.309972068	0.311437394	0.003298712	0.034032207	0.010489057
2020-08-12T09:00:00	0.1464	18.033	0.0	0.311869041	0.315165254	0.003351803	0.034579934	0.010657871
2020-08-12T09:05:00	0.1456	17.988	0.0	0.310288825	0.312058294	0.003307540	0.034123282	0.010517127
2020-08-12T09:10:00	0.1464	18.438	0.0	0.311776686	0.314983237	0.003349206	0.034553139	0.010649613
2020-08-12T09:15:00	0.1463	18.239	0.0	0.311628249	0.314690802	0.003345034	0.034510102	0.010636349
2020-08-12T09:20:00	0.1462	19.087	0.0	0.311479809	0.314398499	0.003340866	0.034467097	0.010623094
2020-08-12T09:25:00	0.1439	19.702	0.0	0.306830126	0.305312895	0.003211953	0.033137122	0.010213183
2020-08-12T09:30:00	0.1477	20.002	0.0	0.314454651	0.320282951	0.003425031	0.035335411	0.010890717
2020-08-12T09:35:00	0.1475	19.757	0.0	0.314101833	0.319582135	0.003414980	0.035231715	0.010858757
2020-08-12T09:40:00	0.1486	19.745	0.0	0.316406376	0.324173930	0.003480969	0.035912520	0.011068587
2020-08-12T09:45:00	0.1469	19.248	0.0	0.312782718	0.316968878	0.003377565	0.034845719	0.010739789
2020-08-12T09:50:00	0.1452	19.192	0.0	0.309361657	0.310242663	0.003281742	0.033857131	0.010435097
2020-08-12T09:55:00	0.1461	19.150	0.0	0.311258809	0.313963574	0.003334666	0.034403134	0.010603380
2020-08-12T10:00:00	0.1456	18.865	0.0	0.310292161	0.312064837	0.003307633	0.034124242	0.010517423
2020-08-12T10:05:00	0.1455	18.753	0.0	0.310024178	0.311539496	0.003300164	0.034047179	0.010493671
2020-08-12T10:10:00	0.1437	19.093	0.0	0.306277371	0.304241865	0.003196840	0.032981208	0.010165129
2020-08-12T10:15:00	0.1449	19.108	0.0	0.308874384	0.309290632	0.003268235	0.033717783	0.010392148
2020-08-12T10:20:00	0.1461	18.935	0.0	0.311265805	0.313977337	0.003334862	0.034405158	0.010604004
2020-08-12T10:25:00	0.1451	18.953	0.0	0.309156736	0.309842109	0.003276058	0.033798485	0.010417021
2020-08-12T10:30:00	0.1452	18.912	0.0	0.309297908	0.310118026	0.003279973	0.033838880	0.010429471
2020-08-12T10:35:00	0.1453	18.839	0.0	0.309643663	0.310794329	0.003289576	0.033937944	0.010460004
2020-08-12T10:40:00	0.1456	18.854	0.0	0.310193969	0.311872292	0.003304895	0.034095993	0.010508716
2020-08-12T10:45:00	0.1453	18.805	0.0	0.309516820	0.310546134	0.003286051	0.033901580	0.010448796
2020-08-12T10:50:00	0.1453	18.749	0.0	0.309657983	0.310822356	0.003289974	0.033942051	0.010461270
2020-08-12T10:55:00	0.1451	18.746	0.0	0.309185379	0.309898079	0.003276852	0.033806678	0.010419546
2020-08-12T11:00:00	0.1450	18.793	0.0	0.308917349	0.309374518	0.003269425	0.033730055	0.010395931
2020-08-12T11:05:00	0.1450	18.906	0.0	0.309058526	0.309650233	0.003273336	0.033770400	0.010408365
2020-08-12T11:10:00	0.1448	18.998	0.0	0.308585877	0.308727656	0.003260255	0.033635448	0.010366772
2020-08-12T11:15:00	0.1447	19.024	0.0	0.308317822	0.308205058	0.003252851	0.033559063	0.010343229
2020-08-12T11:20:00	0.1455	19.160	0.0	0.310095774	0.311679805	0.003302158	0.034067757	0.010500014
2020-08-12T11:25:00	0.1455	19.131	0.0	0.310032357	0.311555523	0.003300391	0.034049530	0.010494396
2020-08-12T11:30:00	0.1443	19.530	0.0	0.307513590	0.306639852	0.003230701	0.033330548	0.010272799
2020-08-12T11:35:00	0.1462	19.824	0.0	0.311337388	0.314118180	0.003336870	0.034425868	0.010610387
2020-08-12T11:40:00	0.1462	19.669	0.0	0.311478511	0.314395945	0.003340829	0.034466721	0.010622978
2020-08-12T11:45:00	0.1449	19.534	0.0	0.308755706	0.309058987	0.003264951	0.033683899	0.010381705
2020-08-12T11:50:00	0.1439	19.496	0.0	0.306645803	0.304955532	0.003206908	0.033085079	0.010197143
2020-08-12T11:55:00	0.1432	19.560	0.0	0.305354132	0.302457275	0.003171698	0.032721827	0.010085185
2020-08-12T12:00:00	0.1430	19.649	0.0	0.304881203	0.301545200	0.003158868	0.032589460	0.010044388
2020-08-12T12:05:00	0.1433	19.494	0.0	0.305431926	0.302607441	0.003173812	0.032743633	0.010091906
2020-08-12T12:10:00	0.1426	19.389	0.0	0.304140001	0.300118583	0.003138826	0.032382688	0.009980659
2020-08-12T12:15:00	0.1429	19.524	0.0	0.304690792	0.301178378	0.003153712	0.032536262	0.010027992
2020-08-12T12:20:00	0.1420	19.657	0.0	0.302784310	0.297518201	0.003102376	0.032006641	0.009864758
2020-08-12T12:25:00	0.1422	19.693	0.0	0.303335224	0.298573523	0.003117156	0.032159121	0.009911753
2020-08-12T12:30:00	0.1427	19.824	0.0	0.304295619	0.300417819	0.003143027	0.032426032	0.009994018
2020-08-12T12:35:00	0.1420	19.945	0.0	0.302798646	0.297545638	0.003102760	0.032010603	0.009865979
2020-08-12T12:40:00	0.1417	19.859	0.0	0.302325517	0.296640804	0.003090101	0.031880007	0.009825728
2020-08-12T12:45:00	0.1418	19.793	0.0	0.302466845	0.296910938	0.003093879	0.031918982	0.009837740
2020-08-12T12:50:00	0.1415	19.826	0.0	0.301788849	0.295616163	0.003075782	0.031732280	0.009780197
2020-08-12T12:55:00	0.1407	19.958	0.0	0.300086350	0.292377662	0.003030635	0.031266504	0.009636640
2020-08-12T13:00:00	0.1402	20.153	0.0	0.299203150	0.290704836	0.003007380	0.031026587	0.009562696
2020-08-12T13:05:00	0.1405	20.133	0.0	0.299754396	0.291748349	0.003021881	0.031176194	0.009608806
2020-08-12T13:10:00	0.1411	20.087	0.0	0.300920246	0.293961618	0.003052696	0.031494101	0.009706788
2020-08-12T13:15:00	0.1405	20.027	0.0	0.299832263	0.291895905	0.003023933	0.031197363	0.009615330
2020-08-12T13:20:00	0.1404	19.945	0.0	0.299563822	0.291387373	0.003016863	0.031124421	0.009592849
2020-08-12T13:25:00	0.1405	19.979	0.0	0.299705216	0.291655172	0.003020586	0.031162828	0.009604686
2020-08-12T13:30:00	0.1403	19.952	0.0	0.299436769	0.291146844	0.003013520	0.031089935	0.009582220
2020-08-12T13:35:00	0.1399	20.018	0.0	0.298553470	0.289477450	0.002990346	0.030850850	0.009508532
2020-08-12T13:40:00	0.1395	20.084	0.0	0.297670037	0.287812722	0.002967281	0.030612893	0.009435191
2020-08-12T13:45:00	0.1395	20.114	0.0	0.297811477	0.288078919	0.002970966	0.030650913	0.009446909
2020-08-12T13:50:00	0.1400	20.107	0.0	0.298772770	0.289891457	0.002996089	0.030910100	0.009526793
2020-08-12T13:55:00	0.1396	20.138	0.0	0.297889370	0.288225570	0.002972997	0.030671863	0.009453366
2020-08-12T14:00:00	0.1391	20.136	0.0	0.296800819	0.286179582	0.002944697	0.030379901	0.009363381
2020-08-12T14:05:00	0.1393	20.060	0.0	0.297352295	0.287215176	0.002959013	0.030527593	0.009408901
2020-08-12T14:10:00	0.1394	20.075	0.0	0.297493743	0.287481105	0.002962692	0.030565547	0.009420598
2020-08-12T14:15:00	0.1395	20.066	0.0	0.297635187	0.287747152	0.002966374	0.030603530	0.009432305
2020-08-12T14:20:00	0.1394	20.144	0.0	0.297571640	0.287627608	0.002964719	0.030586462	0.009427045
2020-08-12T14:25:00	0.1401	20.152	0.0	0.298942874	0.290212798	0.003000549	0.030956107	0.009540973
2020-08-12T14:30:00	0.1397	20.088	0.0	0.298059500	0.288546013	0.002977436	0.030717653	0.009467479
2020-08-12T14:35:00	0.1391	20.072	0.0	0.296970981	0.286498918	0.002949110	0.030425424	0.009377411
2020-08-12T14:40:00	0.1384	20.035	0.0	0.295472133	0.283692375	0.002910386	0.030025920	0.009254280
2020-08-12T14:45:00	0.1380	20.031	0.0	0.294588220	0.282043917	0.002887701	0.029791884	0.009182148
2020-08-12T14:50:00	0.1381	19.974	0.0	0.294934828	0.282689740	0.002896584	0.029883519	0.009210391
2020-08-12T14:55:00	0.1377	19.925	0.0	0.294050830	0.281044118	0.002873965	0.029650163	0.009138468
2020-08-12T15:00:00	0.1381	19.961	0.0	0.294807672	0.282452726	0.002893323	0.029849881	0.009200023
2020-08-12T15:05:00	0.1387	19.973	0.0	0.296179572	0.285015266	0.002928623	0.030214066	0.009312268
2020-08-12T15:10:00	0.1389	19.993	0.0	0.296526082	0.285664382	0.002937582	0.030306492	0.009340755
2020-08-12T15:15:00	0.1384	19.946	0.0	0.295437269	0.283627263	0.002909490	0.030016667	0.009251428
2020-08-12T15:20:00	0.1380	19.915	0.0	0.294553351	0.281978989	0.002886809	0.029782675	0.009179310
2020-08-12T15:25:00	0.1379	19.871	0.0	0.294489769	0.281860615	0.002885182	0.029765888	0.009174136
2020-08-12T15:30:00	0.1387	19.861	0.0	0.296066796	0.284804167	0.002925711	0.030184023	0.009303009
2020-08-12T15:35:00	0.1385	19.843	0.0	0.295593119	0.283918392	0.002913500	0.030058044	0.009264181
2020-08-12T15:40:00	0.1379	19.839	0.0	0.294504125	0.281887342	0.002885549	0.029769678	0.009175304
2020-08-12T15:45:00	0.1379	19.778	0.0	0.294440543	0.281768986	0.002883922	0.029752896	0.009170131
2020-08-12T15:50:00	0.1378	19.761	0.0	0.294171847	0.281269108	0.002877054	0.029682040	0.009148293
2020-08-12T15:55:00	0.1370	19.742	0.0	0.292672248	0.278487626	0.002838914	0.029288553	0.009027016
2020-08-12T16:00:00	0.1374	19.696	0.0	0.293429278	0.279890007	0.002858128	0.029486779	0.009088112
2020-08-12T16:05:00	0.1372	19.671	0.0	0.293077068	0.279237097	0.002849178	0.029394449	0.009059655
2020-08-12T16:10:00	0.1368	19.625	0.0	0.292109292	0.277447108	0.002824679	0.029141692	0.008981752
2020-08-12T16:15:00	0.1364	19.569	0.0	0.291346570	0.276040545	0.002805465	0.028943461	0.008920656
2020-08-12T16:20:00	0.1361	19.516	0.0	0.290788987	0.275014606	0.002791470	0.028799086	0.008876158
2020-08-12T16:25:00	0.1357	19.424	0.0	0.289820802	0.273237827	0.002767276	0.028549478	0.008799226
2020-08-12T16:30:00	0.1356	19.367	0.0	0.289673646	0.272968290	0.002763610	0.028511660	0.008787570
2020-08-12T16:35:00	0.1355	19.313	0.0	0.289526487	0.272698883	0.002759948	0.028473873	0.008775924
2020-08-12T16:40:00	0.1356	19.268	0.0	0.289789902	0.273181218	0.002766506	0.028541534	0.008796778
2020-08-12T16:45:00	0.1356	19.195	0.0	0.289642745	0.272911708	0.002762841	0.028503723	0.008785124
2020-08-12T16:50:00	0.1354	19.150	0.0	0.289290289	0.272266755	0.002754075	0.028413288	0.008757251
2020-08-12T16:55:00	0.1348	19.106	0.0	0.288116489	0.270124489	0.002725009	0.028113420	0.008664829
2020-08-12T17:00:00	0.1351	19.049	0.0	0.288790629	0.271353780	0.002741679	0.028285395	0.008717834
2020-08-12T17:05:00	0.1349	18.994	0.0	0.288232778	0.270336338	0.002727880	0.028143038	0.008673958
2020-08-12T17:10:00	0.1357	18.949	0.0	0.289933380	0.273444123	0.002770083	0.028578431	0.008808150
2020-08-12T17:15:00	0.1351	18.900	0.0	0.288759723	0.271297360	0.002740913	0.028277496	0.008715399
2020-08-12T17:20:00	0.1361	18.833	0.0	0.290665407	0.274787488	0.002788375	0.028767150	0.008866315
2020-08-12T17:25:00	0.1360	18.776	0.0	0.290518275	0.274517211	0.002784692	0.028729156	0.008854605
2020-08-12T17:30:00	0.1364	18.713	0.0	0.291397335	0.276134048	0.002806741	0.028956628	0.008924714
2020-08-12T17:35:00	0.1369	18.647	0.0	0.292481434	0.278134719	0.002834084	0.029238722	0.009011658
2020-08-12T17:40:00	0.1375	18.571	0.0	0.293565318	0.280142401	0.002861589	0.029522490	0.009099118
2020-08-12T17:45:00	0.1375	18.502	0.0	0.293623404	0.280250203	0.002863068	0.029537747	0.009103820
2020-08-12T17:50:00	0.1378	18.434	0.0	0.294296857	0.281501619	0.002880248	0.029714993	0.009158449
2020-08-12T17:55:00	0.1382	18.376	0.0	0.294970229	0.282755743	0.002897492	0.029892888	0.009213278
2020-08-12T18:00:00	0.1386	18.328	0.0	0.295848577	0.284395923	0.002920082	0.030125944	0.009285109
2020-08-12T18:05:00	0.1384	18.295	0.0	0.295496520	0.283737927	0.002911014	0.030032394	0.009256275
2020-08-12T18:10:00	0.1389	18.293	0.0	0.296579818	0.285765114	0.002938973	0.030320842	0.009345178
2020-08-12T18:15:00	0.1394	18.265	0.0	0.297457917	0.287413738	0.002961760	0.030555931	0.009417635
2020-08-12T18:20:00	0.1397	18.186	0.0	0.298130912	0.288680574	0.002979300	0.030736887	0.009473407
2020-08-12T18:25:00	0.1398	18.138	0.0	0.298393918	0.289176427	0.002986172	0.030807788	0.009495259
2020-08-12T18:30:00	0.1397	18.092	0.0	0.298042018	0.288513078	0.002976979	0.030712946	0.009466028
2020-08-12T18:35:00	0.1399	18.045	0.0	0.298509990	0.289395402	0.002989208	0.030839111	0.009504914
2020-08-12T18:40:00	0.1400	18.008	0.0	0.298772979	0.289891851	0.002996095	0.030910156	0.009526810
2020-08-12T18:45:00	0.1402	17.951	0.0	0.299240892	0.290776220	0.003008372	0.031036816	0.009565848
2020-08-12T18:50:00	0.1410	17.878	0.0	0.300733259	0.293606063	0.003047740	0.031442976	0.009691030
2020-08-12T18:55:00	0.1413	17.814	0.0	0.301405877	0.294886077	0.003065590	0.031627126	0.009747787
2020-08-12T19:00:00	0.1414	17.747	0.0	0.301668735	0.295387082	0.003072583	0.031699276	0.009770025
2020-08-12T19:05:00	0.1417	17.699	0.0	0.302136418	0.296279555	0.003085051	0.031827905	0.009809669
2020-08-12T19:10:00	0.1417	17.670	0.0	0.302194417	0.296390331	0.003086600	0.031843879	0.009814593
2020-08-12T19:15:00	0.1419	17.627	0.0	0.302662059	0.297284276	0.003099102	0.031972866	0.009854348
2020-08-12T19:20:00	0.1418	17.580	0.0	0.302515237	0.297003464	0.003095173	0.031932334	0.009841855
2020-08-12T19:25:00	0.1421	17.541	0.0	0.302982854	0.297898307	0.003107697	0.032061540	0.009881678
2020-08-12T19:30:00	0.1422	17.500	0.0	0.303245643	0.298401793	0.003114749	0.032134296	0.009904102
2020-08-12T19:35:00	0.1426	17.457	0.0	0.304122746	0.300085413	0.003138360	0.032377884	0.009979178
2020-08-12T19:40:00	0.1427	17.415	0.0	0.304180727	0.300196879	0.003139925	0.032394027	0.009984154
2020-08-12T19:45:00	0.1430	17.372	0.0	0.304852958	0.301490773	0.003158103	0.032581565	0.010041955
2020-08-12T19:50:00	0.1428	17.333	0.0	0.304501441	0.300813827	0.003148589	0.032483415	0.010011704
2020-08-12T19:55:00	0.1428	17.290	0.0	0.304559418	0.300925424	0.003150157	0.032499590	0.010016689
2020-08-12T20:00:00	0.1430	17.238	0.0	0.304822139	0.301431391	0.003157268	0.032572953	0.010039300
2020-08-12T20:05:00	0.1428	17.183	0.0	0.304470620	0.300754510	0.003147756	0.032474818	0.010009054
2020-08-12T20:10:00	0.1433	17.138	0.0	0.305552267	0.302839811	0.003177083	0.032777384	0.010102308
2020-08-12T20:15:00	0.1432	17.086	0.0	0.305200791	0.302161392	0.003167535	0.032678872	0.010071946
2020-08-12T20:20:00	0.1427	17.030	0.0	0.304235042	0.300301318	0.003141391	0.032409155	0.009988816
2020-08-12T20:25:00	0.1421	16.984	0.0	0.303064343	0.298054388	0.003109883	0.032084090	0.009888628
2020-08-12T20:30:00	0.1422	16.940	0.0	0.303327129	0.298558002	0.003116938	0.032156877	0.009911062
2020-08-12T20:35:00	0.1421	16.893	0.0	0.302975524	0.297884269	0.003107501	0.032059512	0.009881053
2020-08-12T20:40:00	0.1418	16.845	0.0	0.302419079	0.296819623	0.003092602	0.031905805	0.009833679
2020-08-12T20:45:00	0.1416	16.802	0.0	0.302067421	0.296147802	0.003083210	0.031808907	0.009803814
2020-08-12T20:50:00	0.1415	16.760	0.0	0.301715742	0.295476722	0.003073835	0.031712190	0.009774005
2020-08-12T20:55:00	0.1411	16.718	0.0	0.300954310	0.294026415	0.003053599	0.031503420	0.009709660
2020-08-12T21:00:00	0.1414	16.676	0.0	0.301626902	0.295307320	0.003071470	0.031687787	0.009766484
2020-08-12T21:05:00	0.1416	16.636	0.0	0.302094588	0.296199676	0.003083935	0.031816387	0.009806119
2020-08-12T21:10:00	0.1417	16.587	0.0	0.302152588	0.296310438	0.003085483	0.031832358	0.009811042
2020-08-12T21:15:00	0.1415	16.542	0.0	0.301800914	0.295639178	0.003076104	0.031735596	0.009781219
2020-08-12T21:20:00	0.1418	16.505	0.0	0.302473410	0.296923490	0.003094055	0.031920793	0.009838298
2020-08-12T21:25:00	0.1409	16.475	0.0	0.300687753	0.293519566	0.003046535	0.031430541	0.009687198
2020-08-12T21:30:00	0.1405	16.438	0.0	0.299721277	0.291685599	0.003021009	0.031167192	0.009606031
2020-08-12T21:35:00	0.1408	16.400	0.0	0.300394010	0.292961541	0.003038763	0.031350353	0.009662483
2020-08-12T21:40:00	0.1410	16.367	0.0	0.300861793	0.293850446	0.003051146	0.031478113	0.009701860
2020-08-12T21:45:00	0.1417	16.342	0.0	0.302148922	0.296303437	0.003085385	0.031831348	0.009810731
2020-08-12T21:50:00	0.1407	16.307	0.0	0.300158271	0.292514100	0.003032534	0.031286093	0.009642678
2020-08-12T21:55:00	0.1406	16.268	0.0	0.300011387	0.292235488	0.003028657	0.031246096	0.009630350
2020-08-12T22:00:00	0.1422	16.233	0.0	0.303346961	0.298596027	0.003117471	0.032162374	0.009912756
2020-08-12T22:05:00	0.1423	16.204	0.0	0.303432110	0.298759314	0.003119760	0.032185984	0.009920033
2020-08-12T22:10:00	0.1419	16.174	0.0	0.302698062	0.297353157	0.003100066	0.031982811	0.009857413
2020-08-12T22:15:00	0.1417	16.140	0.0	0.302168758	0.296341322	0.003085915	0.031836811	0.009812414
2020-08-12T22:20:00	0.1412	16.105	0.0	0.301229695	0.294550522	0.003060908	0.031578825	0.009732901
2020-08-12T22:25:00	0.1406	16.071	0.0	0.299880677	0.291987668	0.003025210	0.031210530	0.009619388
2020-08-12T22:30:00	0.1408	16.044	0.0	0.300375676	0.292926731	0.003038278	0.031345352	0.009660942
2020-08-12T22:35:00	0.1410	16.006	0.0	0.300870634	0.293867260	0.003051381	0.031480531	0.009702605
2020-08-12T22:40:00	0.1411	15.975	0.0	0.300955818	0.294029285	0.003053639	0.031503833	0.009709787
2020-08-12T22:45:00	0.1411	15.935	0.0	0.301041002	0.294191353	0.003055899	0.031527145	0.009716972
2020-08-12T22:50:00	0.1410	15.888	0.0	0.300716435	0.293574083	0.003047295	0.031438378	0.009689613
2020-08-12T22:55:00	0.1417	15.847	0.0	0.302235597	0.296468995	0.003087699	0.031855224	0.009818090
2020-08-12T23:00:00	0.1416	15.808	0.0	0.302115932	0.296240434	0.003084504	0.031822263	0.009807931
2020-08-12T23:05:00	0.1422	15.766	0.0	0.303225161	0.298362535	0.003114199	0.032128621	0.009902353
2020-08-12T23:10:00	0.1422	15.735	0.0	0.303310312	0.298525761	0.003116486	0.032152216	0.009909625
2020-08-12T23:15:00	0.1421	15.702	0.0	0.302985869	0.297904082	0.003107778	0.032062375	0.009881935
2020-08-12T23:20:00	0.1418	15.682	0.0	0.302456591	0.296891335	0.003093605	0.031916153	0.009836868
2020-08-12T23:25:00	0.1411	15.662	0.0	0.300902981	0.293928781	0.003052238	0.031489378	0.009705332
2020-08-12T23:30:00	0.1410	15.645	0.0	0.300783290	0.293701175	0.003049066	0.031456650	0.009695245
2020-08-12T23:35:00	0.1402	15.626	0.0	0.299229239	0.290754181	0.003008066	0.031033658	0.009564875
2020-08-12T23:40:00	0.1406	15.608	0.0	0.299929206	0.292079664	0.003026489	0.031223732	0.009623457
2020-08-12T23:45:00	0.1404	15.605	0.0	0.299604579	0.291464553	0.003017936	0.031135489	0.009596260
2020-08-12T23:50:00	0.1405	15.597	0.0	0.299689781	0.291625933	0.003020179	0.031158634	0.009603394
2020-08-12T23:55:00	0.1401	15.595	0.0	0.298955269	0.290236221	0.003000874	0.030959462	0.009542007
2020-08-13T00:00:00	0.1392	15.591	0.0	0.297195727	0.286920970	0.002954944	0.030485616	0.009395963
2020-08-13T00:05:00	0.1395	15.585	0.0	0.297690956	0.287852085	0.002967826	0.030618515	0.009436924
2020-08-13T00:10:00	0.1392	15.582	0.0	0.297161200	0.286856110	0.002954048	0.030476364	0.009393111
2020-08-13T00:15:00	0.1388	15.582	0.0	0.296221328	0.285093447	0.002929702	0.030225194	0.009315698
2020-08-13T00:20:00	0.1387	15.579	0.0	0.296101539	0.284869193	0.002926608	0.030193276	0.009305861
2020-08-13T00:25:00	0.1391	15.575	0.0	0.296801887	0.286181586	0.002944725	0.030380187	0.009363469
2020-08-13T00:30:00	0.1389	15.571	0.0	0.296477083	0.285572546	0.002936314	0.030293412	0.009336724
2020-08-13T00:35:00	0.1390	15.568	0.0	0.296767357	0.286116808	0.002943830	0.030370954	0.009360623
2020-08-13T00:40:00	0.1383	15.566	0.0	0.295212220	0.283207139	0.002903704	0.029956982	0.009233033
2020-08-13T00:45:00	0.1380	15.560	0.0	0.294682232	0.282219012	0.002890109	0.029816721	0.009189803
2020-08-13T00:50:00	0.1370	15.554	0.0	0.292511017	0.278189418	0.002834832	0.029246444	0.009014038
2020-08-13T00:55:00	0.1370	15.547	0.0	0.292596327	0.278347185	0.002836992	0.029268720	0.009020904
2020-08-13T01:00:00	0.1376	15.542	0.0	0.293912525	0.280787099	0.002870436	0.029613758	0.009127248
2020-08-13T01:05:00	0.1372	15.537	0.0	0.292972107	0.279042677	0.002846515	0.029366969	0.009051185
2020-08-13T01:10:00	0.1370	15.530	0.0	0.292647080	0.278441067	0.002838277	0.029281977	0.009024990
2020-08-13T01:15:00	0.1360	15.522	0.0	0.290475058	0.274437847	0.002783611	0.028718002	0.008851167
2020-08-13T01:20:00	0.1359	15.517	0.0	0.290355144	0.274217703	0.002780613	0.028687067	0.008841633
2020-08-13T01:25:00	0.1355	15.510	0.0	0.289414109	0.272493242	0.002757153	0.028445038	0.008767037
2020-08-13T01:30:00	0.1353	15.502	0.0	0.289088868	0.271898530	0.002749074	0.028361689	0.008741348
2020-08-13T01:35:00	0.1352	15.494	0.0	0.288968923	0.271679377	0.002746098	0.028330990	0.008731886
2020-08-13T01:40:00	0.1347	15.490	0.0	0.287822289	0.269588914	0.002717755	0.028038576	0.008641761
2020-08-13T01:45:00	0.1340	15.482	0.0	0.286469996	0.267134161	0.002684566	0.027696178	0.008536231
2020-08-13T01:50:00	0.1337	15.475	0.0	0.285733707	0.265802457	0.002666605	0.027510868	0.008479117
2020-08-13T01:55:00	0.1332	15.472	0.0	0.284791838	0.264103909	0.002643739	0.027274963	0.008406408
2020-08-13T02:00:00	0.1334	15.463	0.0	0.285288206	0.264998352	0.002655773	0.027399125	0.008444677
2020-08-13T02:05:00	0.1334	15.457	0.0	0.285168174	0.264781914	0.002652860	0.027369067	0.008435412
2020-08-13T02:10:00	0.1334	15.448	0.0	0.285253602	0.264935947	0.002654933	0.027390458	0.008442005
2020-08-13T02:15:00	0.1335	15.436	0.0	0.285339029	0.265090022	0.002657008	0.027411858	0.008448601
2020-08-13T02:20:00	0.1331	15.429	0.0	0.284602578	0.263763275	0.002639159	0.027227715	0.008391846
2020-08-13T02:25:00	0.1329	15.426	0.0	0.284071531	0.262808693	0.002626335	0.027095417	0.008351071
2020-08-13T02:30:00	0.1329	15.421	0.0	0.284156978	0.262962168	0.002628396	0.027116677	0.008357623
2020-08-13T02:35:00	0.1329	15.414	0.0	0.284242423	0.263115686	0.002630458	0.027137947	0.008364179
2020-08-13T02:40:00	0.1332	15.408	0.0	0.284738845	0.264008508	0.002642456	0.027261728	0.008402329
2020-08-13T02:45:00	0.1331	15.401	0.0	0.284618800	0.263792462	0.002639551	0.027231762	0.008393094
2020-08-13T02:50:00	0.1333	15.392	0.0	0.284909715	0.264316180	0.002646593	0.027304416	0.008415486
2020-08-13T02:55:00	0.1332	15.382	0.0	0.284789674	0.264100012	0.002643686	0.027274422	0.008406242
2020-08-13T03:00:00	0.1332	15.371	0.0	0.284875109	0.264253852	0.002645755	0.027295767	0.008412821
2020-08-13T03:05:00	0.1333	15.362	0.0	0.284960542	0.264407735	0.002647825	0.027317123	0.008419403
2020-08-13T03:10:00	0.1332	15.352	0.0	0.284840502	0.264191531	0.002644917	0.027287120	0.008410155
2020-08-13T03:15:00	0.1338	15.343	0.0	0.285953197	0.266199085	0.002671951	0.027566027	0.008496117
2020-08-13T03:20:00	0.1333	15.333	0.0	0.285011369	0.264499306	0.002649057	0.027329833	0.008423320
2020-08-13T03:25:00	0.1339	15.320	0.0	0.286124026	0.266507991	0.002676117	0.027609006	0.008509364
2020-08-13T03:30:00	0.1340	15.308	0.0	0.286414856	0.267034313	0.002683219	0.027682273	0.008531945
2020-08-13T03:35:00	0.1339	15.299	0.0	0.286294850	0.266817071	0.002680287	0.027652025	0.008522623
2020-08-13T03:40:00	0.1338	15.287	0.0	0.285969415	0.266228403	0.002672346	0.027570105	0.008497374
2020-08-13T03:45:00	0.1339	15.276	0.0	0.286260253	0.266754458	0.002679442	0.027643309	0.008519936
2020-08-13T03:50:00	0.1341	15.267	0.0	0.286551075	0.267281016	0.002686549	0.027716632	0.008542535
2020-08-13T03:55:00	0.1340	15.257	0.0	0.286431072	0.267063676	0.002683615	0.027686362	0.008533206
2020-08-13T04:00:00	0.1347	15.237	0.0	0.287954145	0.269828883	0.002721005	0.028072104	0.008652095
2020-08-13T04:05:00	0.1353	15.213	0.0	0.289153374	0.272016428	0.002750675	0.028378207	0.008746439
2020-08-13T04:10:00	0.1357	15.204	0.0	0.289941797	0.273459550	0.002770292	0.028580597	0.008808817
2020-08-13T04:15:00	0.1363	15.193	0.0	0.291140578	0.275661296	0.002800289	0.028890070	0.008904200
2020-08-13T04:20:00	0.1364	15.190	0.0	0.291313075	0.275978860	0.002804623	0.028934775	0.008917979
2020-08-13T04:25:00	0.1361	15.194	0.0	0.290664640	0.274786079	0.002788356	0.028766951	0.008866254
2020-08-13T04:30:00	0.1362	15.186	0.0	0.291042390	0.275480619	0.002797825	0.028864643	0.008896363
2020-08-13T04:35:00	0.1359	15.187	0.0	0.290393922	0.274288884	0.002781582	0.028697069	0.008844715
2020-08-13T04:40:00	0.1357	15.188	0.0	0.289950655	0.273475786	0.002770513	0.028582876	0.008809520
2020-08-13T04:45:00	0.1359	15.182	0.0	0.290328455	0.274168718	0.002779945	0.028680185	0.008839512
2020-08-13T04:50:00	0.1371	15.169	0.0	0.292758299	0.278646852	0.002841094	0.029311042	0.009033948
2020-08-13T04:55:00	0.1376	15.167	0.0	0.293751331	0.280487698	0.002866327	0.029571364	0.009114182
2020-08-13T05:00:00	0.1375	15.171	0.0	0.293513482	0.280046215	0.002860270	0.029508880	0.009094923
2020-08-13T05:05:00	0.1378	15.173	0.0	0.294301271	0.281509831	0.002880361	0.029716156	0.009158808
2020-08-13T05:10:00	0.1378	15.167	0.0	0.294268561	0.281448982	0.002879525	0.029707532	0.009156150
2020-08-13T05:15:00	0.1381	15.176	0.0	0.294851157	0.282533769	0.002894438	0.029861382	0.009203568
2020-08-13T05:20:00	0.1380	15.189	0.0	0.294613355	0.282090725	0.002888345	0.029798523	0.009184194
2020-08-13T05:25:00	0.1378	15.196	0.0	0.294170430	0.281266473	0.002877018	0.029681667	0.009148178
2020-08-13T05:30:00	0.1379	15.205	0.0	0.294342832	0.281587155	0.002881424	0.029727117	0.009162186
2020-08-13T05:35:00	0.1376	15.216	0.0	0.293899886	0.280763618	0.002870114	0.029610433	0.009126223
2020-08-13T05:40:00	0.1369	15.230	0.0	0.292431098	0.278041661	0.002832811	0.029225586	0.009007609
2020-08-13T05:45:00	0.1359	15.248	0.0	0.290346170	0.274201232	0.002780388	0.028684753	0.008840919
2020-08-13T05:50:00	0.1362	15.271	0.0	0.290929184	0.275272381	0.002794985	0.028835345	0.008887333
2020-08-13T05:55:00	0.1365	15.298	0.0	0.291512135	0.276345557	0.002809628	0.028986418	0.008933896
2020-08-13T06:00:00	0.1366	15.336	0.0	0.291684621	0.276663503	0.002813970	0.029031215	0.008947702
2020-08-13T06:05:00	0.1361	15.373	0.0	0.290830993	0.275091828	0.002792523	0.028809947	0.008879505
2020-08-13T06:10:00	0.1369	15.425	0.0	0.292439952	0.278058029	0.002833035	0.029227896	0.009008321
2020-08-13T06:15:00	0.1370	15.468	0.0	0.292612408	0.278376930	0.002837399	0.029272920	0.009022198
2020-08-13T06:20:00	0.1374	15.525	0.0	0.293400327	0.279836309	0.002857392	0.029479183	0.009085770
2020-08-13T06:25:00	0.1383	15.573	0.0	0.295213614	0.283209740	0.002903740	0.029957352	0.009233147
2020-08-13T06:30:00	0.1384	15.617	0.0	0.295385984	0.283531496	0.002908171	0.030003060	0.009247234
2020-08-13T06:35:00	0.1396	15.666	0.0	0.298018593	0.288468948	0.002976368	0.030706639	0.009464084
2020-08-13T06:40:00	0.1401	15.745	0.0	0.299010700	0.290340979	0.003002328	0.030974464	0.009546631
2020-08-13T06:45:00	0.1402	15.793	0.0	0.299182956	0.290666645	0.003006850	0.031021115	0.009561009
2020-08-13T06:50:00	0.1404	15.878	0.0	0.299560132	0.291380386	0.003016766	0.031123419	0.009592540
2020-08-13T06:55:00	0.1404	15.968	0.0	0.299527452	0.291318509	0.003015906	0.031114547	0.009589805
2020-08-13T07:00:00	0.1403	16.047	0.0	0.299289844	0.290868822	0.003009658	0.031050086	0.009569938
2020-08-13T07:05:00	0.1405	16.160	0.0	0.299667013	0.291582803	0.003019580	0.031152448	0.009601487
2020-08-13T07:10:00	0.1408	16.200	0.0	0.300453952	0.293075370	0.003040348	0.031366706	0.009667523
2020-08-13T07:15:00	0.1404	16.271	0.0	0.299601654	0.291459015	0.003017859	0.031134695	0.009596015
2020-08-13T07:20:00	0.1404	16.395	0.0	0.299568975	0.291397130	0.003016999	0.031125820	0.009593280
2020-08-13T07:25:00	0.1398	16.468	0.0	0.298306630	0.289011812	0.002983890	0.030784245	0.009488003
2020-08-13T07:30:00	0.1400	16.591	0.0	0.298683863	0.289723576	0.002993760	0.030886070	0.009519387
2020-08-13T07:35:00	0.1406	16.675	0.0	0.299880770	0.291987844	0.003025212	0.031210555	0.009619396
2020-08-13T07:40:00	0.1404	16.772	0.0	0.299643177	0.291537654	0.003018952	0.031145972	0.009599491
2020-08-13T07:45:00	0.1406	16.943	0.0	0.300020322	0.292252433	0.003028893	0.031248528	0.009631100
2020-08-13T07:50:00	0.1411	17.145	0.0	0.301012089	0.294136340	0.003055132	0.031519232	0.009714533
2020-08-13T07:55:00	0.1422	17.373	0.0	0.303232584	0.298376762	0.003114399	0.032130678	0.009902987
2020-08-13T08:00:00	0.1440	17.877	0.0	0.306885137	0.305419590	0.003213459	0.033152665	0.010217973
2020-08-13T08:05:00	0.1441	17.809	0.0	0.307057168	0.305753373	0.003218173	0.033201298	0.010232962
2020-08-13T08:10:00	0.1435	17.762	0.0	0.306001103	0.303707283	0.003189303	0.032903456	0.010141165
2020-08-13T08:15:00	0.1439	17.870	0.0	0.306787216	0.305229682	0.003210778	0.033125002	0.010209447
2020-08-13T08:20:00	0.1438	17.991	0.0	0.306549895	0.304769672	0.003204285	0.033058020	0.010188803
2020-08-13T08:25:00	0.1437	18.081	0.0	0.306312565	0.304309999	0.003197801	0.032991121	0.010168184
2020-08-13T08:30:00	0.1435	18.100	0.0	0.305870522	0.303454777	0.003185745	0.032866746	0.010129850
2020-08-13T08:35:00	0.1434	18.227	0.0	0.305633166	0.302996071	0.003179284	0.032800084	0.010109305
2020-08-13T08:40:00	0.1433	18.390	0.0	0.305600519	0.302933007	0.003178396	0.032790922	0.010106481
2020-08-13T08:45:00	0.1428	18.770	0.0	0.304544205	0.300896139	0.003149746	0.032495345	0.010015381
2020-08-13T08:50:00	0.1445	18.998	0.0	0.307991348	0.307569179	0.003243848	0.033466180	0.010314602
2020-08-13T08:55:00	0.1436	19.647	0.0	0.306116703	0.303930912	0.003192456	0.032935976	0.010151188
2020-08-13T09:00:00	0.1456	19.722	0.0	0.310176707	0.311838451	0.003304414	0.034091028	0.010507186
2020-08-13T09:05:00	0.1447	19.719	0.0	0.308302711	0.308175611	0.003252434	0.033554760	0.010341903
2020-08-13T09:10:00	0.1469	19.588	0.0	0.312770304	0.316944337	0.003377215	0.034842099	0.010738673
2020-08-13T09:15:00	0.1472	19.205	0.0	0.313555586	0.318498651	0.003399455	0.035071548	0.010809392
2020-08-13T09:20:00	0.1466	19.816	0.0	0.312296097	0.316007620	0.003363829	0.034704003	0.010696111
2020-08-13T09:25:00	0.1457	20.260	0.0	0.310422720	0.312320942	0.003311276	0.034161827	0.010529007
2020-08-13T09:30:00	0.1474	20.586	0.0	0.313866681	0.319115478	0.003408291	0.035162709	0.010837488
2020-08-13T09:35:00	0.1468	20.678	0.0	0.312607252	0.316622094	0.003372608	0.034794577	0.010724027
2020-08-13T09:40:00	0.1453	21.145	0.0	0.309506554	0.310526052	0.003285766	0.033898638	0.010447890
2020-08-13T09:45:00	0.1462	20.905	0.0	0.311519490	0.314476625	0.003341980	0.034478590	0.010626636
2020-08-13T09:50:00	0.1453	20.609	0.0	0.309645888	0.310798683	0.003289637	0.033938582	0.010460201
2020-08-13T09:55:00	0.1459	20.422	0.0	0.310840651	0.313141483	0.003322955	0.034282314	0.010566142
2020-08-13T10:00:00	0.1455	20.279	0.0	0.309989793	0.311472122	0.003299206	0.034037299	0.010490626
2020-08-13T10:05:00	0.1458	20.156	0.0	0.310541900	0.312554821	0.003314604	0.034196158	0.010539588
2020-08-13T10:10:00	0.1454	20.139	0.0	0.309866618	0.311230833	0.003295777	0.034001921	0.010479722
2020-08-13T10:15:00	0.1454	20.359	0.0	0.309805029	0.311110222	0.003294063	0.033984241	0.010474273
2020-08-13T10:20:00	0.1463	20.451	0.0	0.311584398	0.314604438	0.003343803	0.034497394	0.010632432
2020-08-13T10:25:00	0.1460	20.492	0.0	0.311113766	0.313678296	0.003330601	0.034361196	0.010590454
2020-08-13T10:30:00	0.1454	20.437	0.0	0.309824840	0.311149017	0.003294614	0.033989927	0.010476026
2020-08-13T10:35:00	0.1449	20.438	0.0	0.308740271	0.309028867	0.003264524	0.033679493	0.010380347
2020-08-13T10:40:00	0.1443	20.421	0.0	0.307450865	0.306517949	0.003228978	0.033312767	0.010267318
2020-08-13T10:45:00	0.1437	20.472	0.0	0.306365888	0.304413247	0.003199257	0.033006145	0.010172814
2020-08-13T10:50:00	0.1430	20.443	0.0	0.304871254	0.301526029	0.003158599	0.032586679	0.010043531
2020-08-13T10:55:00	0.1430	20.502	0.0	0.304809617	0.301407265	0.003156929	0.032569453	0.010038222
2020-08-13T11:00:00	0.1425	20.623	0.0	0.303928948	0.299712996	0.003133134	0.032323963	0.009962559
2020-08-13T11:05:00	0.1433	20.724	0.0	0.305505267	0.302749046	0.003175805	0.032764200	0.010098245
2020-08-13T11:10:00	0.1423	20.784	0.0	0.303396088	0.298690231	0.003118791	0.032175995	0.009916954
2020-08-13T11:15:00	0.1422	20.816	0.0	0.303334435	0.298572011	0.003117135	0.032158902	0.009911686
2020-08-13T11:20:00	0.1430	20.834	0.0	0.304910908	0.301602448	0.003159673	0.032597764	0.010046948
2020-08-13T11:25:00	0.1422	20.909	0.0	0.303211128	0.298335639	0.003113823	0.032124734	0.009901155
2020-08-13T11:30:00	0.1415	21.303	0.0	0.301715718	0.295476677	0.003073834	0.031712183	0.009774003
2020-08-13T11:35:00	0.1428	21.604	0.0	0.304521246	0.300851946	0.003149125	0.032488940	0.010013407
2020-08-13T11:40:00	0.1422	21.577	0.0	0.303230960	0.298373650	0.003114355	0.032130228	0.009902848
2020-08-13T11:45:00	0.1422	21.621	0.0	0.303169306	0.298255491	0.003112700	0.032113150	0.009897585
2020-08-13T11:50:00	0.1411	21.513	0.0	0.301059310	0.294226192	0.003056385	0.031532157	0.009718517
2020-08-13T11:55:00	0.1400	21.523	0.0	0.298743614	0.289836397	0.002995325	0.030902218	0.009524364
2020-08-13T12:00:00	0.1404	21.506	0.0	0.299501665	0.291269689	0.003015228	0.031107547	0.009587648
2020-08-13T12:05:00	0.1395	21.441	0.0	0.297800333	0.288057940	0.002970676	0.030647916	0.009445985
2020-08-13T12:10:00	0.1394	21.528	0.0	0.297533632	0.287556120	0.002963730	0.030576256	0.009423899
2020-08-13T12:15:00	0.1394	21.424	0.0	0.297471918	0.287440064	0.002962124	0.030559689	0.009418793
2020-08-13T12:20:00	0.1392	21.320	0.0	0.297000192	0.286553756	0.002949868	0.030433243	0.009379821
2020-08-13T12:25:00	0.1388	21.252	0.0	0.296323394	0.285284596	0.002932340	0.030252407	0.009324086
2020-08-13T12:30:00	0.1387	21.241	0.0	0.296056624	0.284785131	0.002925449	0.030181314	0.009302174
2020-08-13T12:35:00	0.1381	21.213	0.0	0.294764465	0.282372214	0.002892216	0.029838457	0.009196502
2020-08-13T12:40:00	0.1378	21.110	0.0	0.294292513	0.281493538	0.002880137	0.029713847	0.009158096
2020-08-13T12:45:00	0.1377	21.059	0.0	0.294025646	0.280997308	0.002873322	0.029643532	0.009136424
2020-08-13T12:50:00	0.1373	21.110	0.0	0.293143339	0.279359887	0.002850861	0.029411807	0.009065005
2020-08-13T12:55:00	0.1377	21.109	0.0	0.294107262	0.281149022	0.002875405	0.029665025	0.009143049
2020-08-13T13:00:00	0.1371	21.040	0.0	0.292814650	0.278751148	0.002842522	0.029325776	0.009038489
2020-08-13T13:05:00	0.1373	20.980	0.0	0.293163206	0.279396703	0.002851366	0.029417012	0.009066609
2020-08-13T13:10:00	0.1372	20.936	0.0	0.293101443	0.279282258	0.002849797	0.029400833	0.009061622
2020-08-13T13:15:00	0.1367	20.836	0.0	0.292013795	0.277270798	0.002822269	0.029116825	0.008974088
2020-08-13T13:20:00	0.1366	20.707	0.0	0.291746817	0.276778198	0.002815537	0.029047378	0.008952684
2020-08-13T13:25:00	0.1360	20.739	0.0	0.290453647	0.274398533	0.002783075	0.028712476	0.008849464
2020-08-13T13:30:00	0.1360	20.684	0.0	0.290597107	0.274662006	0.002786665	0.028749509	0.008860878
2020-08-13T13:35:00	0.1358	20.689	0.0	0.290124795	0.273795069	0.002774858	0.028627703	0.008823336
2020-08-13T13:40:00	0.1349	20.701	0.0	0.288215242	0.270304386	0.002727447	0.028138571	0.008672581
2020-08-13T13:45:00	0.1345	20.714	0.0	0.287537353	0.269070725	0.002710740	0.027966210	0.008619457
2020-08-13T13:50:00	0.1345	20.754	0.0	0.287475525	0.268958353	0.002709220	0.027950523	0.008614623
2020-08-13T13:55:00	0.1354	20.805	0.0	0.289261734	0.272214537	0.002753366	0.028405970	0.008754996
2020-08-13T14:00:00	0.1352	20.850	0.0	0.288994619	0.271726319	0.002746736	0.028337565	0.008733913
2020-08-13T14:05:00	0.1350	20.928	0.0	0.288522165	0.270863893	0.002735033	0.028216830	0.008696701
2020-08-13T14:10:00	0.1350	21.070	0.0	0.288460349	0.270751158	0.002733504	0.028201057	0.008691840
2020-08-13T14:15:00	0.1353	21.162	0.0	0.289014502	0.271762644	0.002747229	0.028342653	0.008735481
2020-08-13T14:20:00	0.1342	21.210	0.0	0.286899156	0.267911947	0.002695071	0.027804552	0.008569633
2020-08-13T14:25:00	0.1346	21.119	0.0	0.287658842	0.269291605	0.002713730	0.027997050	0.008628963
2020-08-13T14:30:00	0.1342	21.116	0.0	0.286775486	0.267687695	0.002692041	0.027773295	0.008559999
2020-08-13T14:35:00	0.1343	21.076	0.0	0.287124436	0.268320696	0.002700596	0.027861549	0.008587200
2020-08-13T14:40:00	0.1345	21.021	0.0	0.287473362	0.268954421	0.002709167	0.027949974	0.008614453
2020-08-13T14:45:00	0.1343	21.037	0.0	0.287000771	0.268096277	0.002697562	0.027830252	0.008577554
2020-08-13T14:50:00	0.1339	21.160	0.0	0.286322723	0.266867520	0.002680968	0.027659049	0.008524787
2020-08-13T14:55:00	0.1341	21.156	0.0	0.286671704	0.267499580	0.002689501	0.027747081	0.008551920
2020-08-13T15:00:00	0.1331	21.231	0.0	0.284555401	0.263678400	0.002638018	0.027215945	0.008388219
2020-08-13T15:05:00	0.1333	21.178	0.0	0.284904502	0.264306790	0.002646467	0.027303113	0.008415085
2020-08-13T15:10:00	0.1333	21.126	0.0	0.285048115	0.264565520	0.002649948	0.027339024	0.008426153
2020-08-13T15:15:00	0.1327	21.122	0.0	0.283753286	0.262237484	0.002618669	0.027016330	0.008326695
2020-08-13T15:20:00	0.1327	21.071	0.0	0.283691413	0.262126504	0.002617181	0.027000971	0.008321961
2020-08-13T15:25:00	0.1322	21.041	0.0	0.282807370	0.260543456	0.002595968	0.026782121	0.008254510
2020-08-13T15:30:00	0.1324	21.028	0.0	0.283156592	0.261168216	0.002604334	0.026868438	0.008281114
2020-08-13T15:35:00	0.1326	20.938	0.0	0.283505789	0.261793701	0.002612718	0.026954925	0.008307770
2020-08-13T15:40:00	0.1327	20.823	0.0	0.283854963	0.262419911	0.002621117	0.027041582	0.008334478
2020-08-13T15:45:00	0.1317	20.864	0.0	0.281737480	0.258634202	0.002570441	0.026518768	0.008173342
2020-08-13T15:50:00	0.1321	20.936	0.0	0.282497938	0.259990524	0.002588569	0.026705785	0.008230982
2020-08-13T15:55:00	0.1316	21.023	0.0	0.281408070	0.258047811	0.002562614	0.026438016	0.008148453
2020-08-13T16:00:00	0.1316	20.970	0.0	0.281551784	0.258303555	0.002566027	0.026473227	0.008159306
2020-08-13T16:05:00	0.1314	20.902	0.0	0.281140544	0.257572084	0.002556268	0.026372548	0.008128275
2020-08-13T16:10:00	0.1312	20.825	0.0	0.280729270	0.256841618	0.002546532	0.026272103	0.008097317
2020-08-13T16:15:00	0.1307	20.735	0.0	0.279700933	0.255019848	0.002522291	0.026022014	0.008020237
2020-08-13T16:20:00	0.1305	20.696	0.0	0.279289537	0.254292898	0.002512634	0.025922387	0.007989531
2020-08-13T16:25:00	0.1311	20.653	0.0	0.280523620	0.256476762	0.002541673	0.026221968	0.008081865
2020-08-13T16:30:00	0.1310	20.591	0.0	0.280317961	0.256112156	0.002536819	0.026171892	0.008066431
2020-08-13T16:35:00	0.1314	20.527	0.0	0.281140544	0.257572084	0.002556268	0.026372548	0.008128275
2020-08-13T16:40:00	0.1318	20.466	0.0	0.281962989	0.259036030	0.002575808	0.026574140	0.008190408
2020-08-13T16:45:00	0.1319	20.400	0.0	0.282168579	0.259402645	0.002580708	0.026624685	0.008205987
2020-08-13T16:50:00	0.1323	20.328	0.0	0.282990854	0.260871614	0.002600362	0.026827451	0.008268481
2020-08-13T16:55:00	0.1330	20.242	0.0	0.284429510	0.263451981	0.002634975	0.027184554	0.008378544
2020-08-13T17:00:00	0.1333	20.182	0.0	0.285045951	0.264561620	0.002649895	0.027338482	0.008425986
2020-08-13T17:05:00	0.1335	20.134	0.0	0.285456870	0.265302635	0.002659871	0.027441396	0.008457705
2020-08-13T17:10:00	0.1337	20.048	0.0	0.285867757	0.266044655	0.002669869	0.027544547	0.008489497
2020-08-13T17:15:00	0.1341	19.960	0.0	0.286689431	0.267531708	0.002689934	0.027751558	0.008553300
2020-08-13T17:20:00	0.1343	19.867	0.0	0.287100219	0.268276742	0.002700002	0.027855418	0.008585310
2020-08-13T17:25:00	0.1343	19.763	0.0	0.287100219	0.268276742	0.002700002	0.027855418	0.008585310
2020-08-13T17:30:00	0.1349	19.659	0.0	0.288332390	0.270517871	0.002730341	0.028168425	0.008681782
2020-08-13T17:35:00	0.1358	19.544	0.0	0.290180105	0.273896518	0.002776239	0.028641950	0.008827727
2020-08-13T17:40:00	0.1359	19.450	0.0	0.290385367	0.274273179	0.002781368	0.028694862	0.008844035
2020-08-13T17:45:00	0.1361	19.370	0.0	0.290795868	0.275027255	0.002791643	0.028800865	0.008876706
2020-08-13T17:50:00	0.1367	19.302	0.0	0.292027182	0.277295510	0.002822606	0.029120310	0.008975163
2020-08-13T17:55:00	0.1373	19.226	0.0	0.293258218	0.279572806	0.002853779	0.029441914	0.009074284
2020-08-13T18:00:00	0.1368	19.139	0.0	0.292232374	0.277674431	0.002827787	0.029173761	0.008991636
2020-08-13T18:05:00	0.1377	19.051	0.0	0.294078756	0.281096028	0.002874677	0.029657517	0.009140735
2020-08-13T18:10:00	0.1379	18.998	0.0	0.294488979	0.281859145	0.002885162	0.029765680	0.009174072
2020-08-13T18:15:00	0.1379	18.942	0.0	0.294488979	0.281859145	0.002885162	0.029765680	0.009174072
2020-08-13T18:20:00	0.1380	18.848	0.0	0.294694079	0.282241081	0.002890412	0.029819852	0.009190768
2020-08-13T18:25:00	0.1384	18.810	0.0	0.295514405	0.283771334	0.002911474	0.030037142	0.009257739
2020-08-13T18:30:00	0.1385	18.768	0.0	0.295719468	0.284154526	0.002916754	0.030091615	0.009274528
2020-08-13T18:35:00	0.1385	18.707	0.0	0.295719468	0.284154526	0.002916754	0.030091615	0.009274528
2020-08-13T18:40:00	0.1385	18.651	0.0	0.295719468	0.284154526	0.002916754	0.030091615	0.009274528
2020-08-13T18:45:00	0.1387	18.585	0.0	0.296129571	0.284921662	0.002927332	0.030200743	0.009308162
2020-08-13T18:50:00	0.1398	18.506	0.0	0.298384609	0.289158869	0.002985929	0.030805276	0.009494485
2020-08-13T18:55:00	0.1406	18.438	0.0	0.300024082	0.292259563	0.003028992	0.031249551	0.009631415
2020-08-13T19:00:00	0.1408	18.381	0.0	0.300433879	0.293037248	0.003039817	0.031361229	0.009665835
2020-08-13T19:05:00	0.1410	18.325	0.0	0.300843647	0.293815938	0.003050665	0.031473151	0.009700331
2020-08-13T19:10:00	0.1415	18.266	0.0	0.301867942	0.295767058	0.003077890	0.031754024	0.009786899
2020-08-13T19:15:00	0.1417	18.213	0.0	0.302277611	0.296549264	0.003088822	0.031866802	0.009821658
2020-08-13T19:20:00	0.1417	18.166	0.0	0.302277611	0.296549264	0.003088822	0.031866802	0.009821658
2020-08-13T19:25:00	0.1420	18.141	0.0	0.302892061	0.297724456	0.003105263	0.032036428	0.009873938
2020-08-13T19:30:00	0.1421	18.136	0.0	0.303096864	0.298116690	0.003110756	0.032093092	0.009891403
2020-08-13T19:35:00	0.1420	18.131	0.0	0.302892061	0.297724456	0.003105263	0.032036428	0.009873938
2020-08-13T19:40:00	0.1423	18.118	0.0	0.303506449	0.298901910	0.003121758	0.032206605	0.009926389
2020-08-13T19:45:00	0.1423	18.085	0.0	0.303506449	0.298901910	0.003121758	0.032206605	0.009926389
2020-08-13T19:50:00	0.1420	18.056	0.0	0.302892061	0.297724456	0.003105263	0.032036428	0.009873938
2020-08-13T19:55:00	0.1421	18.018	0.0	0.303096864	0.298116690	0.003110756	0.032093092	0.009891403
2020-08-13T20:00:00	0.1425	17.960	0.0	0.303916007	0.299688134	0.003132785	0.032320364	0.009961450
2020-08-13T20:05:00	0.1423	17.895	0.0	0.303506449	0.298901910	0.003121758	0.032206605	0.009926389
2020-08-13T20:10:00	0.1423	17.803	0.0	0.303506449	0.298901910	0.003121758	0.032206605	0.009926389
2020-08-13T20:15:00	0.1424	17.727	0.0	0.303711231	0.299294896	0.003127269	0.032263454	0.009943910
2020-08-13T20:20:00	0.1426	17.682	0.0	0.304120775	0.300081624	0.003138307	0.032377335	0.009979009
2020-08-13T20:25:00	0.1427	17.649	0.0	0.304325536	0.300475364	0.003143835	0.032434368	0.009996587
2020-08-13T20:30:00	0.1422	17.623	0.0	0.303301660	0.298509174	0.003116254	0.032149818	0.009908886
2020-08-13T20:35:00	0.1417	17.610	0.0	0.302277611	0.296549264	0.003088822	0.031866802	0.009821658
2020-08-13T20:40:00	0.1413	17.593	0.0	0.301458245	0.294985856	0.003066982	0.031641492	0.009752215
2020-08-13T20:45:00	0.1416	17.560	0.0	0.302072780	0.296158035	0.003083353	0.031810383	0.009804269
2020-08-13T20:50:00	0.1416	17.538	0.0	0.302072780	0.296158035	0.003083353	0.031810383	0.009804269
2020-08-13T20:55:00	0.1417	17.520	0.0	0.302277611	0.296549264	0.003088822	0.031866802	0.009821658
2020-08-13T21:00:00	0.1424	17.495	0.0	0.303711231	0.299294896	0.003127269	0.032263454	0.009943910
2020-08-13T21:05:00	0.1425	17.485	0.0	0.303916007	0.299688134	0.003132785	0.032320364	0.009961450
2020-08-13T21:10:00	0.1419	17.478	0.0	0.302687252	0.297332474	0.003099777	0.031979825	0.009856493
2020-08-13T21:15:00	0.1417	17.465	0.0	0.302277611	0.296549264	0.003088822	0.031866802	0.009821658
2020-08-13T21:20:00	0.1418	17.466	0.0	0.302482435	0.296940743	0.003094296	0.031923283	0.009839066
2020-08-13T21:25:00	0.1415	17.454	0.0	0.301867942	0.295767058	0.003077890	0.031754024	0.009786899
2020-08-13T21:30:00	0.1422	17.433	0.0	0.303301660	0.298509174	0.003116254	0.032149818	0.009908886
2020-08-13T21:35:00	0.1426	17.415	0.0	0.304120775	0.300081624	0.003138307	0.032377335	0.009979009
2020-08-13T21:40:00	0.1429	17.374	0.0	0.304735038	0.301263598	0.003154909	0.032548619	0.010031800
2020-08-13T21:45:00	0.1437	17.336	0.0	0.306372773	0.304426580	0.003199445	0.033008085	0.010173412
2020-08-13T21:50:00	0.1436	17.301	0.0	0.306168080	0.304030328	0.003193857	0.032950436	0.010155644
2020-08-13T21:55:00	0.1436	17.276	0.0	0.306168080	0.304030328	0.003193857	0.032950436	0.010155644
2020-08-13T22:00:00	0.1435	17.252	0.0	0.305963380	0.303634328	0.003188275	0.032892848	0.010137895
2020-08-13T22:05:00	0.1442	17.225	0.0	0.307280237	0.306186462	0.003224292	0.033264427	0.010252420
2020-08-13T22:10:00	0.1439	17.196	0.0	0.306754993	0.305167201	0.003209896	0.033115902	0.010206643
2020-08-13T22:15:00	0.1435	17.158	0.0	0.305820302	0.303357693	0.003184377	0.032852634	0.010125501
2020-08-13T22:20:00	0.1432	17.122	0.0	0.305294934	0.302343030	0.003170091	0.032705240	0.010080073
2020-08-13T22:25:00	0.1426	17.084	0.0	0.304155262	0.300147921	0.003139238	0.032386937	0.009981968
2020-08-13T22:30:00	0.1420	17.044	0.0	0.302810570	0.297568459	0.003103079	0.032013898	0.009866994
2020-08-13T22:35:00	0.1415	17.006	0.0	0.301875274	0.295781047	0.003078085	0.031756041	0.009787520
2020-08-13T22:40:00	0.1413	16.975	0.0	0.301349563	0.294778802	0.003064093	0.031611682	0.009743027
2020-08-13T22:45:00	0.1412	16.936	0.0	0.301233547	0.294557856	0.003061010	0.031579880	0.009733226
2020-08-13T22:50:00	0.1405	16.901	0.0	0.299683283	0.291613622	0.003020008	0.031156868	0.009602849
2020-08-13T22:55:00	0.1401	16.858	0.0	0.298952437	0.290230870	0.003000799	0.030958695	0.009541771
2020-08-13T23:00:00	0.1394	16.820	0.0	0.297606560	0.287693296	0.002965628	0.030595840	0.009429935
2020-08-13T23:05:00	0.1394	16.786	0.0	0.297490469	0.287474948	0.002962607	0.030564668	0.009420328
2020-08-13T23:10:00	0.1392	16.754	0.0	0.297169373	0.286871463	0.002954260	0.030478554	0.009393786
2020-08-13T23:15:00	0.1391	16.721	0.0	0.296848259	0.286268594	0.002945927	0.030392588	0.009367291
2020-08-13T23:20:00	0.1382	16.699	0.0	0.295091737	0.282982351	0.002900610	0.029925060	0.009223194
2020-08-13T23:25:00	0.1378	16.671	0.0	0.294155190	0.281238134	0.002876629	0.029677651	0.009146940
2020-08-13T23:30:00	0.1382	16.643	0.0	0.295064537	0.282931615	0.002899912	0.029917856	0.009220974
2020-08-13T23:35:00	0.1384	16.618	0.0	0.295563622	0.283863279	0.002912741	0.030050210	0.009261767
2020-08-13T23:40:00	0.1383	16.593	0.0	0.295242416	0.283263491	0.002904480	0.029964986	0.009235500
2020-08-13T23:45:00	0.1379	16.567	0.0	0.294511002	0.281900143	0.002885725	0.029771494	0.009175863
2020-08-13T23:50:00	0.1385	16.543	0.0	0.295625357	0.283978632	0.002914330	0.030066608	0.009266820
2020-08-13T23:55:00	0.1384	16.522	0.0	0.295509225	0.283761659	0.002911341	0.030035767	0.009257315
2020-08-14T00:00:00	0.1387	16.504	0.0	0.296008271	0.284694649	0.002924201	0.030168440	0.009298206
2020-08-14T00:05:00	0.1384	16.490	0.0	0.295482027	0.283710856	0.002910641	0.030028547	0.009255090
2020-08-14T00:10:00	0.1378	16.477	0.0	0.294135326	0.281201200	0.002876122	0.029672418	0.009145327
2020-08-14T00:15:00	0.1373	16.469	0.0	0.293198618	0.279462331	0.002852265	0.029426292	0.009069469
2020-08-14T00:20:00	0.1372	16.464	0.0	0.293082436	0.279247042	0.002849315	0.029395854	0.009060088
2020-08-14T00:25:00	0.1372	16.450	0.0	0.292966251	0.279031832	0.002846366	0.029365436	0.009050713
2020-08-14T00:30:00	0.1371	16.447	0.0	0.292850065	0.278816704	0.002843420	0.029335038	0.009041343
2020-08-14T00:35:00	0.1370	16.450	0.0	0.292528702	0.278222120	0.002835280	0.029251061	0.009015461
2020-08-14T00:40:00	0.1372	16.440	0.0	0.293028015	0.279146228	0.002847933	0.029381604	0.009055696
2020-08-14T00:45:00	0.1368	16.425	0.0	0.292091118	0.277413550	0.002824220	0.029136959	0.008980294
2020-08-14T00:50:00	0.1365	16.391	0.0	0.291564502	0.276442066	0.002810946	0.029000014	0.008938086
2020-08-14T00:55:00	0.1361	16.350	0.0	0.290832597	0.275094777	0.002792563	0.028810362	0.008879633
2020-08-14T01:00:00	0.1368	16.308	0.0	0.292152892	0.277527622	0.002825780	0.029153049	0.008985253
2020-08-14T01:05:00	0.1375	16.274	0.0	0.293678005	0.280351556	0.002864459	0.029552092	0.009108242
2020-08-14T01:10:00	0.1386	16.250	0.0	0.295817897	0.284338550	0.002919291	0.030117784	0.009282594
2020-08-14T01:15:00	0.1392	16.243	0.0	0.297137005	0.286810664	0.002953419	0.030469882	0.009391113
2020-08-14T01:20:00	0.1386	16.228	0.0	0.295790700	0.284287697	0.002918590	0.030110552	0.009280365
2020-08-14T01:25:00	0.1378	16.216	0.0	0.294238964	0.281393929	0.002878769	0.029699729	0.009153745
2020-08-14T01:30:00	0.1374	16.202	0.0	0.293507417	0.280034964	0.002860116	0.029507288	0.009094433
2020-08-14T01:35:00	0.1372	16.201	0.0	0.292980937	0.279059030	0.002846739	0.029369280	0.009051897
2020-08-14T01:40:00	0.1377	16.191	0.0	0.294095599	0.281127340	0.002875107	0.029661953	0.009142102
2020-08-14T01:45:00	0.1379	16.174	0.0	0.294389667	0.281674302	0.002882621	0.029739472	0.009165994
2020-08-14T01:50:00	0.1383	16.164	0.0	0.295298975	0.283369057	0.002905934	0.029979982	0.009240122
2020-08-14T01:55:00	0.1378	16.165	0.0	0.294157350	0.281242151	0.002876684	0.029678221	0.009147116
2020-08-14T02:00:00	0.1375	16.164	0.0	0.293630932	0.280264176	0.002863260	0.029539724	0.009104430
2020-08-14T02:05:00	0.1370	16.155	0.0	0.292488963	0.278148640	0.002834274	0.029240687	0.009012264
2020-08-14T02:10:00	0.1365	16.136	0.0	0.291551974	0.276418976	0.002810631	0.028996761	0.008937083
2020-08-14T02:15:00	0.1359	16.135	0.0	0.290409568	0.274317607	0.002781973	0.028701104	0.008845959
2020-08-14T02:20:00	0.1357	16.132	0.0	0.289882788	0.273351404	0.002768821	0.028565417	0.008804139
2020-08-14T02:25:00	0.1354	16.122	0.0	0.289355955	0.272386856	0.002755707	0.028430123	0.008762440
2020-08-14T02:30:00	0.1346	16.115	0.0	0.287597016	0.269179188	0.002712208	0.027981353	0.008624125
2020-08-14T02:35:00	0.1349	16.109	0.0	0.288302132	0.270462722	0.002729593	0.028160712	0.008679405
2020-08-14T02:40:00	0.1349	16.105	0.0	0.288185844	0.270250826	0.002726721	0.028131082	0.008670273
2020-08-14T02:45:00	0.1347	16.104	0.0	0.287864202	0.269665182	0.002718788	0.028049231	0.008645045
2020-08-14T02:50:00	0.1344	16.112	0.0	0.287337167	0.268706971	0.002705819	0.027915438	0.008603809
2020-08-14T02:55:00	0.1343	16.100	0.0	0.287015473	0.268122953	0.002697923	0.027833972	0.008578700
2020-08-14T03:00:00	0.1342	16.088	0.0	0.286899156	0.267911947	0.002695071	0.027804552	0.008569633
2020-08-14T03:05:00	0.1345	16.083	0.0	0.287398996	0.268819292	0.002707339	0.027931113	0.008608640
2020-08-14T03:10:00	0.1343	16.081	0.0	0.287077306	0.268235156	0.002699439	0.027849619	0.008583523
2020-08-14T03:15:00	0.1342	16.068	0.0	0.286755595	0.267651636	0.002691554	0.027768269	0.008558450
2020-08-14T03:20:00	0.1338	16.064	0.0	0.286023023	0.266325327	0.002673653	0.027583589	0.008501530
2020-08-14T03:25:00	0.1344	16.066	0.0	0.287344518	0.268720323	0.002706000	0.027917301	0.008604383
2020-08-14T03:30:00	0.1346	16.054	0.0	0.287638955	0.269255441	0.002713240	0.027992000	0.008627406
2020-08-14T03:35:00	0.1345	16.053	0.0	0.287522652	0.269044004	0.002710379	0.027962479	0.008618308
2020-08-14T03:40:00	0.1343	16.066	0.0	0.286995583	0.268086865	0.002697435	0.027828940	0.008577149
2020-08-14T03:45:00	0.1345	16.069	0.0	0.287495414	0.268994497	0.002709709	0.027955568	0.008616178
2020-08-14T03:50:00	0.1345	16.078	0.0	0.287379108	0.268783159	0.002706850	0.027926070	0.008607086
2020-08-14T03:55:00	0.1345	16.080	0.0	0.287468175	0.268944995	0.002709039	0.027948658	0.008614048
2020-08-14T04:00:00	0.1339	16.071	0.0	0.286324887	0.266871436	0.002681020	0.027659594	0.008524956
2020-08-14T04:05:00	0.1337	16.059	0.0	0.285795857	0.265914735	0.002668118	0.027526479	0.008483928
2020-08-14T04:10:00	0.1342	16.065	0.0	0.286910183	0.267931947	0.002695341	0.027807340	0.008570492
2020-08-14T04:15:00	0.1342	16.065	0.0	0.286792027	0.267717683	0.002692446	0.027777474	0.008561287
2020-08-14T04:20:00	0.1340	16.067	0.0	0.286468460	0.267131380	0.002684529	0.027695790	0.008536112
2020-08-14T04:25:00	0.1341	16.069	0.0	0.286555705	0.267289403	0.002686662	0.027717800	0.008542895
2020-08-14T04:30:00	0.1343	16.085	0.0	0.287053740	0.268192391	0.002698861	0.027843655	0.008581685
2020-08-14T04:35:00	0.1344	16.078	0.0	0.287346356	0.268723661	0.002706045	0.027917767	0.008604527
2020-08-14T04:40:00	0.1354	16.068	0.0	0.289281615	0.272250893	0.002753860	0.028411065	0.008756566
2020-08-14T04:45:00	0.1360	16.062	0.0	0.290600455	0.274668156	0.002786749	0.028750373	0.008861144
2020-08-14T04:50:00	0.1361	16.066	0.0	0.290687631	0.274828325	0.002788931	0.028772891	0.008868085
2020-08-14T04:55:00	0.1363	16.064	0.0	0.291185277	0.275743569	0.002801412	0.028901651	0.008907769
2020-08-14T05:00:00	0.1364	16.068	0.0	0.291272444	0.275904042	0.002803602	0.028924241	0.008914732
2020-08-14T05:05:00	0.1375	16.075	0.0	0.293616574	0.280237525	0.002862894	0.029535952	0.009103267
2020-08-14T05:10:00	0.1388	16.077	0.0	0.296369794	0.285371514	0.002933539	0.030264783	0.009327900
2020-08-14T05:15:00	0.1389	16.091	0.0	0.296456879	0.285534684	0.002935791	0.030288019	0.009335062
2020-08-14T05:20:00	0.1386	16.129	0.0	0.295928843	0.284546049	0.002922152	0.030147299	0.009291690
2020-08-14T05:25:00	0.1389	16.146	0.0	0.296426016	0.285476852	0.002934993	0.030279783	0.009332523
2020-08-14T05:30:00	0.1389	16.188	0.0	0.296513101	0.285640051	0.002937246	0.030303026	0.009339687
2020-08-14T05:35:00	0.1394	16.226	0.0	0.297420233	0.287342887	0.002960780	0.030545819	0.009414518
2020-08-14T05:40:00	0.1399	16.271	0.0	0.298532183	0.289437279	0.002989789	0.030845102	0.009506760
2020-08-14T05:45:00	0.1395	16.303	0.0	0.297799358	0.288056105	0.002970651	0.030647654	0.009445905
2020-08-14T05:50:00	0.1394	16.359	0.0	0.297476445	0.287448577	0.002962242	0.030560904	0.009419167
2020-08-14T05:55:00	0.1393	16.412	0.0	0.297358518	0.287226873	0.002959175	0.030529262	0.009409415
2020-08-14T06:00:00	0.1390	16.455	0.0	0.296625542	0.285850840	0.002940157	0.030333055	0.009348942
2020-08-14T06:05:00	0.1392	16.531	0.0	0.297122655	0.286783712	0.002953047	0.030466038	0.009389929
2020-08-14T06:10:00	0.1400	16.598	0.0	0.298644585	0.289649425	0.002992731	0.030875458	0.009516116
2020-08-14T06:15:00	0.1398	16.644	0.0	0.298321720	0.289040266	0.002984285	0.030788314	0.009489257
2020-08-14T06:20:00	0.1395	16.733	0.0	0.297793856	0.288045747	0.002970507	0.030646174	0.009445449
2020-08-14T06:25:00	0.1400	16.848	0.0	0.298700785	0.289755526	0.002994203	0.030890643	0.009520796
2020-08-14T06:30:00	0.1401	16.942	0.0	0.298992780	0.290307111	0.003001858	0.030969614	0.009545136
2020-08-14T06:35:00	0.1402	17.024	0.0	0.299079826	0.290471646	0.003004142	0.030993180	0.009552399
2020-08-14T06:40:00	0.1402	17.093	0.0	0.299166870	0.290636226	0.003006427	0.031016757	0.009559666
2020-08-14T06:45:00	0.1406	17.179	0.0	0.300073585	0.292353450	0.003030298	0.031263029	0.009635569
2020-08-14T06:50:00	0.1415	17.300	0.0	0.301799592	0.295636655	0.003076069	0.031735233	0.009781107
2020-08-14T06:55:00	0.1422	17.346	0.0	0.303320309	0.298544928	0.003116755	0.032154987	0.009910479
2020-08-14T07:00:00	0.1427	17.486	0.0	0.304226392	0.300284683	0.003141158	0.032406745	0.009988074
2020-08-14T07:05:00	0.1427	17.589	0.0	0.304313361	0.300451944	0.003143506	0.032430975	0.009995542
2020-08-14T07:10:00	0.1436	17.642	0.0	0.306038152	0.303778947	0.003190314	0.032913876	0.010144376
2020-08-14T07:15:00	0.1436	17.703	0.0	0.306125096	0.303947151	0.003192685	0.032938338	0.010151916
2020-08-14T07:20:00	0.1430	17.716	0.0	0.304983745	0.301742841	0.003161647	0.032618132	0.010053225
2020-08-14T07:25:00	0.1426	17.748	0.0	0.304046953	0.299939735	0.003136316	0.032356789	0.009972677
2020-08-14T07:30:00	0.1428	17.842	0.0	0.304543440	0.300894666	0.003149725	0.032495132	0.010015315
2020-08-14T07:35:00	0.1426	17.870	0.0	0.304016130	0.299880502	0.003135484	0.032348213	0.009970033
2020-08-14T07:40:00	0.1417	18.013	0.0	0.302259933	0.296515488	0.003088349	0.031861930	0.009820156
2020-08-14T07:45:00	0.1425	18.058	0.0	0.303780534	0.299427952	0.003129135	0.032282707	0.009949844
2020-08-14T07:50:00	0.1423	18.125	0.0	0.303457949	0.298808874	0.003120454	0.032193151	0.009922242
2020-08-14T07:55:00	0.1421	18.340	0.0	0.303135347	0.298190420	0.003111788	0.032103747	0.009894686
2020-08-14T08:00:00	0.1424	18.645	0.0	0.303631908	0.299142639	0.003125133	0.032241426	0.009937121
2020-08-14T08:05:00	0.1426	18.661	0.0	0.304128428	0.300096336	0.003138514	0.032379466	0.009979666
2020-08-14T08:10:00	0.1433	18.804	0.0	0.305443845	0.302630450	0.003174136	0.032746975	0.010092936
2020-08-14T08:15:00	0.1424	18.786	0.0	0.303688061	0.299250417	0.003126645	0.032257018	0.009941926
2020-08-14T08:20:00	0.1419	18.803	0.0	0.302546254	0.297062775	0.003096003	0.031940894	0.009844494
2020-08-14T08:25:00	0.1413	18.861	0.0	0.301404229	0.294882939	0.003065546	0.031626674	0.009747648
2020-08-14T08:30:00	0.1407	18.930	0.0	0.300261985	0.292710910	0.003035273	0.031314354	0.009651388
2020-08-14T08:35:00	0.1403	19.286	0.0	0.299324452	0.290934297	0.003010567	0.031059469	0.009572830
2020-08-14T08:40:00	0.1399	19.300	0.0	0.298591727	0.289549652	0.002991348	0.030861181	0.009511716
2020-08-14T08:45:00	0.1394	19.681	0.0	0.297448931	0.287396843	0.002961526	0.030553520	0.009416892
2020-08-14T08:50:00	0.1394	19.641	0.0	0.297536000	0.287560574	0.002963792	0.030576892	0.009424095
2020-08-14T08:55:00	0.1369	20.334	0.0	0.292290800	0.277782373	0.002829264	0.029188992	0.008996331
2020-08-14T09:00:00	0.1395	20.596	0.0	0.297710134	0.287888173	0.002968326	0.030623668	0.009438512
2020-08-14T09:05:00	0.1387	20.340	0.0	0.296157091	0.284973179	0.002928043	0.030208075	0.009310422
2020-08-14T09:10:00	0.1374	20.625	0.0	0.293372886	0.279785417	0.002856694	0.029471984	0.009083552
2020-08-14T09:15:00	0.1383	20.427	0.0	0.295305990	0.283382151	0.002906114	0.029981842	0.009240695
2020-08-14T09:20:00	0.1378	20.212	0.0	0.294162531	0.281251785	0.002876817	0.029679586	0.009147537
2020-08-14T09:25:00	0.1379	20.153	0.0	0.294454760	0.281795449	0.002884286	0.029756648	0.009171288
2020-08-14T09:30:00	0.1373	20.351	0.0	0.293105974	0.279290653	0.002849912	0.029402019	0.009061988
2020-08-14T09:35:00	0.1369	20.370	0.0	0.292372441	0.277933241	0.002831327	0.029210283	0.009002893
2020-08-14T09:40:00	0.1367	20.546	0.0	0.292049215	0.277336184	0.002823162	0.029126047	0.008976930
2020-08-14T09:45:00	0.1368	20.472	0.0	0.292136368	0.277497106	0.002825363	0.029148745	0.008983926
2020-08-14T09:50:00	0.1363	20.534	0.0	0.291197481	0.275766032	0.002801718	0.028904813	0.008908744
2020-08-14T09:55:00	0.1365	20.512	0.0	0.291489868	0.276304525	0.002809068	0.028980639	0.008932114
2020-08-14T10:00:00	0.1369	20.319	0.0	0.292397819	0.277980146	0.002831969	0.029216903	0.009004933
2020-08-14T10:05:00	0.1364	20.279	0.0	0.291342758	0.276033524	0.002805369	0.028942472	0.008920351
2020-08-14T10:10:00	0.1360	20.391	0.0	0.290492749	0.274470334	0.002784054	0.028722567	0.008852574
2020-08-14T10:15:00	0.1370	20.234	0.0	0.292515851	0.278198356	0.002834955	0.029247706	0.009014427
2020-08-14T10:20:00	0.1372	20.026	0.0	0.293102303	0.279283850	0.002849819	0.029401058	0.009061692
2020-08-14T10:25:00	0.1369	19.896	0.0	0.292457753	0.278090938	0.002833485	0.029232542	0.009009753
2020-08-14T10:30:00	0.1368	19.875	0.0	0.292223520	0.277658074	0.002827564	0.029171453	0.008990925
2020-08-14T10:35:00	0.1357	19.884	0.0	0.289936914	0.273450601	0.002770171	0.028579340	0.008808430
2020-08-14T10:40:00	0.1353	19.929	0.0	0.289086682	0.271894536	0.002749020	0.028361129	0.008741175
2020-08-14T10:45:00	0.1351	19.909	0.0	0.288646980	0.271091596	0.002738121	0.028248694	0.008706522
2020-08-14T10:50:00	0.1359	19.966	0.0	0.290260267	0.274043586	0.002778242	0.028662606	0.008834094
2020-08-14T10:55:00	0.1352	19.937	0.0	0.288794164	0.271360233	0.002741766	0.028286299	0.008718112
2020-08-14T11:00:00	0.1357	19.779	0.0	0.289996876	0.273560513	0.002771666	0.028594770	0.008813186
2020-08-14T11:05:00	0.1365	19.729	0.0	0.291609756	0.276525481	0.002812085	0.029011766	0.008941708
2020-08-14T11:10:00	0.1369	19.746	0.0	0.292401491	0.277986933	0.002832062	0.029217861	0.009005228
2020-08-14T11:15:00	0.1371	19.746	0.0	0.292782791	0.278692181	0.002841715	0.029317446	0.009035921
2020-08-14T11:20:00	0.1370	19.712	0.0	0.292548572	0.278258863	0.002835783	0.029256249	0.009017060
2020-08-14T11:25:00	0.1373	19.716	0.0	0.293135020	0.279344472	0.002850650	0.029409628	0.009064333
2020-08-14T11:30:00	0.1376	19.753	0.0	0.293721406	0.280432133	0.002865564	0.029563498	0.009111757
2020-08-14T11:35:00	0.1374	19.795	0.0	0.293487226	0.279997503	0.002859602	0.029501987	0.009092799
2020-08-14T11:40:00	0.1363	19.916	0.0	0.291201153	0.275772793	0.002801811	0.028905764	0.008909037
2020-08-14T11:45:00	0.1349	20.008	0.0	0.288298132	0.270455432	0.002729495	0.028159692	0.008679091
2020-08-14T11:50:00	0.1334	20.128	0.0	0.285188047	0.264817744	0.002653342	0.027374043	0.008436946
2020-08-14T11:55:00	0.1324	20.306	0.0	0.283103907	0.261073914	0.002603071	0.026855405	0.008277097
2020-08-14T12:00:00	0.1324	20.435	0.0	0.283074806	0.261021832	0.002602373	0.026848207	0.008274878
2020-08-14T12:05:00	0.1318	20.405	0.0	0.281812255	0.258767406	0.002572220	0.026537121	0.008178998
2020-08-14T12:10:00	0.1314	20.344	0.0	0.281166303	0.257617870	0.002556879	0.026378847	0.008130217
2020-08-14T12:15:00	0.1307	20.338	0.0	0.279697578	0.255013916	0.002522212	0.026021200	0.008019987
2020-08-14T12:20:00	0.1299	20.293	0.0	0.278022650	0.252060968	0.002483044	0.025617104	0.007895440
2020-08-14T12:25:00	0.1292	20.246	0.0	0.276552963	0.249484428	0.002448993	0.025265814	0.007787169
2020-08-14T12:30:00	0.1287	20.270	0.0	0.275494578	0.247637379	0.002424656	0.025014733	0.007709784
2020-08-14T12:35:00	0.1286	20.192	0.0	0.275259553	0.247228181	0.002419273	0.024959194	0.007692666
2020-08-14T12:40:00	0.1272	20.187	0.0	0.272347131	0.242186293	0.002353189	0.024277413	0.007482534
2020-08-14T12:45:00	0.1256	20.240	0.0	0.269226672	0.236843557	0.002283664	0.023560144	0.007261465
2020-08-14T12:50:00	0.1256	20.225	0.0	0.269197484	0.236793873	0.002283020	0.023553499	0.007259417
2020-08-14T12:55:00	0.1255	20.351	0.0	0.268962130	0.236393439	0.002277831	0.023499962	0.007242916
2020-08-14T13:00:00	0.1255	20.368	0.0	0.268932940	0.236343800	0.002277188	0.023493327	0.007240872
2020-08-14T13:05:00	0.1256	20.356	0.0	0.269109919	0.236644849	0.002281089	0.023533571	0.007253275
2020-08-14T13:10:00	0.1261	20.319	0.0	0.270111436	0.238352187	0.002303243	0.023762134	0.007323720
2020-08-14T13:15:00	0.1267	20.298	0.0	0.271318790	0.240418828	0.002330131	0.024039533	0.007409218
2020-08-14T13:20:00	0.1263	20.328	0.0	0.270671387	0.239309520	0.002315689	0.023890534	0.007363295
2020-08-14T13:25:00	0.1266	20.467	0.0	0.271260442	0.240318742	0.002328827	0.024026081	0.007405071
2020-08-14T13:30:00	0.1272	20.653	0.0	0.272467485	0.242393587	0.002355897	0.024305351	0.007491145
2020-08-14T13:35:00	0.1284	20.685	0.0	0.274909757	0.246619802	0.002411275	0.024876677	0.007667233
2020-08-14T13:40:00	0.1295	20.632	0.0	0.277144944	0.250520605	0.002462673	0.025406942	0.007830666
2020-08-14T13:45:00	0.1298	20.603	0.0	0.277733168	0.251552395	0.002476313	0.025547668	0.007874039
2020-08-14T13:50:00	0.1296	20.614	0.0	0.277292467	0.250779167	0.002466089	0.025442189	0.007841530
2020-08-14T13:55:00	0.1278	20.629	0.0	0.273763522	0.244631628	0.002385183	0.024607489	0.007584267
2020-08-14T14:00:00	0.1288	20.516	0.0	0.275793407	0.248158168	0.002431512	0.025085464	0.007731584
2020-08-14T14:05:00	0.1289	20.322	0.0	0.275970117	0.248466397	0.002435572	0.025127349	0.007744493
2020-08-14T14:10:00	0.1294	20.172	0.0	0.276970120	0.250214371	0.002458628	0.025365213	0.007817805
2020-08-14T14:15:00	0.1300	20.065	0.0	0.278175669	0.252330012	0.002486606	0.025653856	0.007906767
2020-08-14T14:20:00	0.1301	19.972	0.0	0.278352290	0.252640736	0.002490722	0.025696317	0.007919855
2020-08-14T14:25:00	0.1299	19.918	0.0	0.277911647	0.251865890	0.002480462	0.025590464	0.007887230
2020-08-14T14:30:00	0.1289	19.826	0.0	0.276030247	0.248571324	0.002436955	0.025141612	0.007748889
2020-08-14T14:35:00	0.1283	19.728	0.0	0.274765843	0.246369725	0.002407989	0.024842777	0.007656785
2020-08-14T14:40:00	0.1288	19.578	0.0	0.275766104	0.248110562	0.002430885	0.025078996	0.007729590
2020-08-14T14:45:00	0.1300	19.425	0.0	0.278206641	0.252384485	0.002487327	0.025661298	0.007909061
2020-08-14T14:50:00	0.1326	19.254	0.0	0.283524180	0.261826664	0.002613159	0.026959485	0.008309175
2020-08-14T14:55:00	0.1323	19.093	0.0	0.282878450	0.260670557	0.002597669	0.026799675	0.008259920
2020-08-14T15:00:00	0.1310	18.935	0.0	0.280176378	0.255861303	0.002533481	0.026137453	0.008055817
2020-08-14T15:05:00	0.1301	18.795	0.0	0.278501617	0.252903596	0.002494205	0.025732252	0.007930930
2020-08-14T15:10:00	0.1301	18.657	0.0	0.278472488	0.252852310	0.002493525	0.025725240	0.007928769
2020-08-14T15:15:00	0.1298	18.548	0.0	0.277826091	0.251715587	0.002478472	0.025569944	0.007880905
2020-08-14T15:20:00	0.1307	18.405	0.0	0.279648537	0.254927204	0.002521060	0.026009312	0.008016323
2020-08-14T15:25:00	0.1328	18.284	0.0	0.283937061	0.262567260	0.002623094	0.027061982	0.008340766
2020-08-14T15:30:00	0.1346	18.081	0.0	0.287605878	0.269195300	0.002712426	0.027983603	0.008624818
2020-08-14T15:35:00	0.1357	17.980	0.0	0.289835357	0.273264494	0.002767639	0.028553220	0.008800380
2020-08-14T15:40:00	0.1383	17.850	0.0	0.295346034	0.283456905	0.002907143	0.029992462	0.009243968
2020-08-14T15:45:00	0.1411	17.632	0.0	0.301056177	0.294220231	0.003056302	0.031531300	0.009718253
2020-08-14T15:50:00	0.1429	17.724	0.0	0.304713703	0.301222505	0.003154332	0.032542660	0.010029964
2020-08-14T15:55:00	0.1434	17.720	0.0	0.305708359	0.303141349	0.003181330	0.032821193	0.010115811
2020-08-14T16:00:00	0.1420	17.569	0.0	0.302812727	0.297572589	0.003103137	0.032014495	0.009867178
2020-08-14T16:05:00	0.1404	17.545	0.0	0.299478687	0.291226190	0.003014623	0.031101310	0.009585726
2020-08-14T16:10:00	0.1401	17.494	0.0	0.299012627	0.290344621	0.003002379	0.030974986	0.009546791
2020-08-14T16:15:00	0.1402	17.389	0.0	0.299161369	0.290625823	0.003006283	0.031015267	0.009559206
2020-08-14T16:20:00	0.1403	17.355	0.0	0.299310107	0.290907157	0.003010190	0.031055580	0.009571631
2020-08-14T16:25:00	0.1414	17.318	0.0	0.301712586	0.295470704	0.003073751	0.031711323	0.009773738
2020-08-14T16:30:00	0.1428	17.243	0.0	0.304523612	0.300856499	0.003149189	0.032489600	0.010013610
2020-08-14T16:35:00	0.1419	17.230	0.0	0.302624408	0.297212253	0.003098094	0.031962469	0.009851143
2020-08-14T16:40:00	0.1409	17.208	23.0	0.300519719	0.293200285	0.003042087	0.031384654	0.009673055
2020-08-14T16:45:00	0.1395	17.159	0.0	0.297799358	0.288056105	0.002970651	0.030647654	0.009445905
2020-08-14T16:50:00	0.1393	17.178	0.0	0.297333162	0.287179216	0.002958516	0.030522461	0.009407319
2020-08-14T16:55:00	0.1389	17.136	0.0	0.296456879	0.285534684	0.002935791	0.030288019	0.009335062
2020-08-14T17:00:00	0.1391	17.125	0.0	0.296810711	0.286198142	0.002944954	0.030382546	0.009364196
2020-08-14T17:05:00	0.1388	17.117	0.0	0.296344434	0.285324008	0.002932883	0.030258018	0.009325815
2020-08-14T17:10:00	0.1382	17.112	0.0	0.295057847	0.282919138	0.002899740	0.029916084	0.009220428
2020-08-14T17:15:00	0.1361	17.117	0.0	0.290693141	0.274838450	0.002789069	0.028774315	0.008868523
2020-08-14T17:20:00	0.1358	17.113	0.0	0.290226347	0.273981351	0.002777394	0.028653865	0.008831399
2020-08-14T17:25:00	0.1357	17.111	0.0	0.289964791	0.273501697	0.002770866	0.028586513	0.008810641
2020-08-14T17:30:00	0.1350	17.115	0.0	0.288471373	0.270771260	0.002733777	0.028203869	0.008692706
2020-08-14T17:35:00	0.1351	17.088	0.0	0.288620399	0.271043095	0.002737464	0.028241906	0.008704430
2020-08-14T17:40:00	0.1349	17.071	0.0	0.288358763	0.270565945	0.002730993	0.028175149	0.008683854
2020-08-14T17:45:00	0.1337	17.052	0.0	0.285837810	0.265990539	0.002669140	0.027537021	0.008487177
2020-08-14T17:50:00	0.1336	17.042	0.0	0.285576035	0.265517725	0.002662768	0.027471287	0.008466917
2020-08-14T17:55:00	0.1324	17.034	0.0	0.283053713	0.260984086	0.002601868	0.026842991	0.008273271
2020-08-14T18:00:00	0.1318	17.037	0.0	0.281969486	0.259047612	0.002575963	0.026575737	0.008190900
2020-08-14T18:05:00	0.1321	17.083	53.0	0.282529860	0.260047538	0.002589331	0.026713654	0.008233408
2020-08-14T18:10:00	0.1322	17.072	87.0	0.282679059	0.260314101	0.002592898	0.026750450	0.008244749
2020-08-14T18:15:00	0.1326	16.996	23.0	0.283650420	0.262052990	0.002616195	0.026990798	0.008318826
2020-08-14T18:20:00	0.1312	17.026	0.0	0.280715854	0.256817807	0.002546215	0.026268831	0.008096309
2020-08-14T18:25:00	0.1320	17.060	0.0	0.282304377	0.259644950	0.002583947	0.026658105	0.008216287
2020-08-14T18:30:00	0.1319	17.063	0.0	0.282042418	0.259177639	0.002577701	0.026593661	0.008196425
2020-08-14T18:35:00	0.1311	16.983	0.0	0.280546680	0.256517661	0.002542217	0.026227587	0.008083597
2020-08-14T18:40:00	0.1309	16.920	0.0	0.280078958	0.255688772	0.002531185	0.026113773	0.008048518
2020-08-14T18:45:00	0.1301	16.886	0.0	0.278376875	0.252684004	0.002491295	0.025702232	0.007921677
2020-08-14T18:50:00	0.1305	16.811	0.0	0.279143380	0.254034891	0.002509209	0.025887050	0.007978640
2020-08-14T18:55:00	0.1318	16.760	0.0	0.281966133	0.259041634	0.002575883	0.026574913	0.008190646
2020-08-14T19:00:00	0.1328	16.786	0.0	0.283965296	0.262617945	0.002623775	0.027069001	0.008342929
2020-08-14T19:05:00	0.1334	16.763	0.0	0.285141877	0.264734509	0.002652222	0.027362485	0.008433384
2020-08-14T19:10:00	0.1330	16.687	0.0	0.284469100	0.263523174	0.002635932	0.027194424	0.008381585
2020-08-14T19:15:00	0.1336	16.689	0.0	0.285645564	0.265643264	0.002664459	0.027488736	0.008472296
2020-08-14T19:20:00	0.1330	16.660	0.0	0.284356403	0.263320543	0.002633209	0.027166336	0.008372928
2020-08-14T19:25:00	0.1334	16.641	0.0	0.285121980	0.264698643	0.002651739	0.027357505	0.008431849
2020-08-14T19:30:00	0.1339	16.610	0.0	0.286298294	0.266823303	0.002680371	0.027652893	0.008522890
2020-08-14T19:35:00	0.1343	16.594	0.0	0.287063581	0.268210248	0.002699103	0.027846145	0.008582452
2020-08-14T19:40:00	0.1347	16.588	0.0	0.287828755	0.269600680	0.002717914	0.028040220	0.008642268
2020-08-14T19:45:00	0.1355	16.578	0.0	0.289415063	0.272494986	0.002757177	0.028445282	0.008767112
2020-08-14T19:50:00	0.1358	16.604	0.0	0.290179896	0.273896134	0.002776234	0.028641896	0.008827710
2020-08-14T19:55:00	0.1363	16.568	0.0	0.291149852	0.275678365	0.002800522	0.028892473	0.008904941
2020-08-14T20:00:00	0.1365	16.585	0.0	0.291504023	0.276330609	0.002809424	0.028984313	0.008933247
2020-08-14T20:05:00	0.1363	16.577	0.0	0.291242529	0.275848963	0.002802850	0.028916487	0.008912342
2020-08-14T20:10:00	0.1362	16.578	0.0	0.290981022	0.275367725	0.002796285	0.028848758	0.008891467
2020-08-14T20:15:00	0.1369	16.590	0.0	0.292361216	0.277912496	0.002831044	0.029207355	0.009001990
2020-08-14T20:20:00	0.1371	16.592	0.0	0.292715308	0.278567298	0.002840005	0.029299805	0.009030485
2020-08-14T20:25:00	0.1364	16.562	0.0	0.291427877	0.276190311	0.002807509	0.028964552	0.008927156
2020-08-14T20:30:00	0.1362	16.533	0.0	0.290961147	0.275331167	0.002795787	0.028843615	0.008889882
2020-08-14T20:35:00	0.1365	16.519	0.0	0.291520549	0.276361062	0.002809840	0.028988603	0.008934569
2020-08-14T20:40:00	0.1370	16.515	0.0	0.292490265	0.278151047	0.002834307	0.029241027	0.009012368
2020-08-14T20:45:00	0.1362	16.520	0.0	0.290997550	0.275398127	0.002796700	0.028853036	0.008892786
2020-08-14T20:50:00	0.1364	16.498	0.0	0.291351730	0.276050049	0.002805594	0.028944799	0.008921068
2020-08-14T20:55:00	0.1365	16.519	0.0	0.291500676	0.276324441	0.002809340	0.028983444	0.008932979
2020-08-14T21:00:00	0.1359	16.512	0.0	0.290418217	0.274333484	0.002782189	0.028703335	0.008846647
2020-08-14T21:05:00	0.1362	16.496	0.0	0.290977675	0.275361568	0.002796201	0.028847892	0.008891200
2020-08-14T21:10:00	0.1366	16.483	0.0	0.291742285	0.276769839	0.002815423	0.029046200	0.008952321
2020-08-14T21:15:00	0.1365	16.428	0.0	0.291480803	0.276287822	0.002808840	0.028978286	0.008931389
2020-08-14T21:20:00	0.1357	16.435	0.0	0.289987808	0.273543890	0.002771440	0.028592436	0.008812466
2020-08-14T21:25:00	0.1353	16.419	0.0	0.289110354	0.271937798	0.002749607	0.028367190	0.008743044
2020-08-14T21:30:00	0.1355	16.400	0.0	0.289464660	0.272585735	0.002758410	0.028458006	0.008771034
2020-08-14T21:35:00	0.1358	16.403	0.0	0.290229486	0.273987109	0.002777473	0.028654673	0.008831649
2020-08-14T21:40:00	0.1352	16.404	0.0	0.288941460	0.271629211	0.002745417	0.028323963	0.008729721
2020-08-14T21:45:00	0.1354	16.387	0.0	0.289295777	0.272276791	0.002754212	0.028414695	0.008757685
2020-08-14T21:50:00	0.1357	16.373	0.0	0.289855352	0.273301131	0.002768137	0.028558362	0.008801964
2020-08-14T21:55:00	0.1357	16.375	0.0	0.290004339	0.273574195	0.002771852	0.028596690	0.008813778
2020-08-14T22:00:00	0.1357	16.347	0.0	0.289948051	0.273471013	0.002770448	0.028582206	0.008809313
2020-08-14T22:05:00	0.1361	16.337	0.0	0.290681913	0.274817817	0.002788788	0.028771414	0.008867629
2020-08-14T22:10:00	0.1362	16.318	0.0	0.291005221	0.275412238	0.002796892	0.028855021	0.008893398
2020-08-14T22:15:00	0.1361	16.298	0.0	0.290712808	0.274874591	0.002789562	0.028779397	0.008870090
2020-08-14T22:20:00	0.1363	16.288	0.0	0.291241343	0.275846780	0.002802820	0.028916180	0.008912247
2020-08-14T22:25:00	0.1365	16.271	0.0	0.291564618	0.276442280	0.002810949	0.029000044	0.008938095
2020-08-14T22:30:00	0.1361	16.257	0.0	0.290656527	0.274771172	0.002788153	0.028764856	0.008865608
2020-08-14T22:35:00	0.1356	16.245	0.0	0.289748283	0.273104980	0.002765469	0.028530837	0.008793481
2020-08-14T22:40:00	0.1357	16.237	0.0	0.289866373	0.273321325	0.002768412	0.028561196	0.008802838
2020-08-14T22:45:00	0.1356	16.232	0.0	0.289779183	0.273161582	0.002766239	0.028538779	0.008795929
2020-08-14T22:50:00	0.1357	16.237	0.0	0.289897273	0.273377949	0.002769182	0.028569143	0.008805287
2020-08-14T22:55:00	0.1361	16.224	0.0	0.290836386	0.275101743	0.002792658	0.028811342	0.008879935
2020-08-14T23:00:00	0.1364	16.205	0.0	0.291364910	0.276074322	0.002805926	0.028948217	0.008922122
2020-08-14T23:05:00	0.1369	16.196	0.0	0.292303768	0.277806334	0.002829591	0.029192373	0.008997373
2020-08-14T23:10:00	0.1370	16.194	0.0	0.292626979	0.278403882	0.002837768	0.029276726	0.009023371
2020-08-14T23:15:00	0.1367	16.178	0.0	0.291924270	0.277105564	0.002820010	0.029093526	0.008966907
2020-08-14T23:20:00	0.1358	16.173	0.0	0.290195240	0.273924282	0.002776617	0.028645849	0.008828929
2020-08-14T23:25:00	0.1356	16.157	0.0	0.289697502	0.273011976	0.002764205	0.028517789	0.008789459
2020-08-14T23:30:00	0.1352	16.152	0.0	0.288994410	0.271725937	0.002746730	0.028337511	0.008733896
2020-08-14T23:35:00	0.1360	16.150	0.0	0.290549473	0.274574510	0.002785473	0.028737209	0.008857087
2020-08-14T23:40:00	0.1362	16.144	0.0	0.290872789	0.275168676	0.002793571	0.028820756	0.008882837
2020-08-14T23:45:00	0.1355	16.130	0.0	0.289554017	0.272749272	0.002760633	0.028480939	0.008778102
2020-08-14T23:50:00	0.1348	16.121	0.0	0.288029573	0.269966206	0.002722865	0.028091296	0.008658010
2020-08-14T23:55:00	0.1347	16.118	0.0	0.287942352	0.269807418	0.002720714	0.028069105	0.008651171
2020-08-15T00:00:00	0.1348	16.118	0.0	0.288060483	0.270022492	0.002723627	0.028099162	0.008660435
2020-08-15T00:05:00	0.1349	16.105	0.0	0.288178611	0.270237648	0.002726543	0.028129240	0.008669705
2020-08-15T00:10:00	0.1344	16.078	0.0	0.287269941	0.268584871	0.002704168	0.027898401	0.008598558
2020-08-15T00:15:00	0.1342	16.057	0.0	0.286771926	0.267681242	0.002691954	0.027772395	0.008559722
2020-08-15T00:20:00	0.1338	16.078	0.0	0.286068441	0.266407457	0.002674761	0.027595016	0.008505052
2020-08-15T00:25:00	0.1342	16.065	0.0	0.286802844	0.267737296	0.002692711	0.027780208	0.008562130
2020-08-15T00:30:00	0.1343	16.061	33.0	0.287126390	0.268324242	0.002700644	0.027862043	0.008587352
2020-08-15T00:35:00	0.1338	16.045	43.0	0.286012111	0.266305596	0.002673387	0.027580844	0.008500684
2020-08-15T00:40:00	0.1342	16.041	68.0	0.286746522	0.267635188	0.002691332	0.027765977	0.008557744
2020-08-15T00:45:00	0.1340	16.038	68.0	0.286453873	0.267104963	0.002684172	0.027692111	0.008534978
2020-08-15T00:50:00	0.1347	16.031	69.0	0.287804332	0.269556244	0.002717313	0.028034012	0.008640355
2020-08-15T00:55:00	0.1350	16.039	68.0	0.288538491	0.270893671	0.002735437	0.028220996	0.008697985
2020-08-15T01:00:00	0.1347	16.029	69.0	0.287835244	0.269612488	0.002718074	0.028041869	0.008642776
2020-08-15T01:05:00	0.1347	16.017	0.0	0.287953377	0.269827486	0.002720986	0.028071909	0.008652035
2020-08-15T01:10:00	0.1346	15.996	70.0	0.287660796	0.269295158	0.002713778	0.027997547	0.008629116
2020-08-15T01:15:00	0.1345	15.991	41.0	0.287368198	0.268763340	0.002706582	0.027923304	0.008606234
2020-08-15T01:20:00	0.1335	15.989	21.0	0.285432227	0.265258166	0.002659272	0.027435218	0.008455801
2020-08-15T01:25:00	0.1338	15.984	20.0	0.285961294	0.266213723	0.002672148	0.027568063	0.008496745
2020-08-15T01:30:00	0.1337	15.982	11.0	0.285874039	0.266056008	0.002670022	0.027546126	0.008489984
2020-08-15T01:35:00	0.1335	15.976	0.0	0.285375890	0.265156518	0.002657903	0.027421096	0.008451448
2020-08-15T01:40:00	0.1327	15.973	0.0	0.283850214	0.262411390	0.002621003	0.027040402	0.008334115
2020-08-15T01:45:00	0.1325	15.969	0.0	0.283351866	0.261517898	0.002609020	0.026916781	0.008296013
2020-08-15T01:50:00	0.1326	15.939	0.0	0.283470102	0.261729743	0.002611860	0.026946078	0.008305043
2020-08-15T01:55:00	0.1321	15.921	0.0	0.282560595	0.260102437	0.002590066	0.026721231	0.008235743
2020-08-15T02:00:00	0.1322	15.935	0.0	0.282678850	0.260313726	0.002592893	0.026750399	0.008244733
2020-08-15T02:05:00	0.1325	15.929	0.0	0.283413743	0.261628753	0.002610506	0.026932110	0.008300738
2020-08-15T02:10:00	0.1326	15.922	0.0	0.283531978	0.261840642	0.002613347	0.026961418	0.008309771
2020-08-15T02:15:00	0.1319	15.917	0.0	0.282211331	0.259478914	0.002581727	0.026635203	0.008209228
2020-08-15T02:20:00	0.1311	15.918	0.0	0.280479037	0.256397699	0.002540620	0.026211108	0.008078518
2020-08-15T02:25:00	0.1306	15.920	0.0	0.279363277	0.254423122	0.002514364	0.025940227	0.007995030
2020-08-15T02:30:00	0.1305	15.908	0.0	0.279275907	0.254268832	0.002512315	0.025919090	0.007988515
2020-08-15T02:35:00	0.1310	15.909	0.0	0.280216980	0.255933229	0.002534438	0.026147326	0.008058860
2020-08-15T02:40:00	0.1304	15.898	0.0	0.279101161	0.253960388	0.002508221	0.025876849	0.007975496
2020-08-15T02:45:00	0.1298	15.885	0.0	0.277779315	0.251633432	0.002477385	0.025558729	0.007877449
2020-08-15T02:50:00	0.1289	15.894	0.0	0.276045425	0.248597813	0.002437304	0.025145213	0.007749999
2020-08-15T02:55:00	0.1292	15.894	0.0	0.276575506	0.249523846	0.002449514	0.025271179	0.007788823
2020-08-15T03:00:00	0.1294	15.901	0.0	0.276899722	0.250091112	0.002457001	0.025348421	0.007812630
2020-08-15T03:05:00	0.1293	15.880	0.0	0.276812306	0.249938099	0.002454980	0.025327580	0.007806206
2020-08-15T03:10:00	0.1287	15.864	0.0	0.275489821	0.247629093	0.002424547	0.025013609	0.007709437
2020-08-15T03:15:00	0.1281	15.868	0.0	0.274372885	0.245687553	0.002399031	0.024750364	0.007628303
2020-08-15T03:20:00	0.1283	15.863	0.0	0.274697254	0.246250586	0.002406424	0.024826631	0.007651809
2020-08-15T03:25:00	0.1290	15.864	0.0	0.276050951	0.248607457	0.002437431	0.025146524	0.007750403
2020-08-15T03:30:00	0.1288	15.842	0.0	0.275757663	0.248095846	0.002430692	0.025076997	0.007728974
2020-08-15T03:35:00	0.1292	15.830	0.0	0.276493609	0.249380659	0.002447625	0.025251692	0.007782817
2020-08-15T03:40:00	0.1290	15.819	0.0	0.276200350	0.248868278	0.002440868	0.025181988	0.007761333
2020-08-15T03:45:00	0.1289	15.815	0.0	0.275907072	0.248356407	0.002434123	0.025112401	0.007739886
2020-08-15T03:50:00	0.1290	15.812	0.0	0.276231334	0.248922388	0.002441582	0.025189346	0.007763601
2020-08-15T03:55:00	0.1296	15.806	0.0	0.277378802	0.250930549	0.002468090	0.025462831	0.007847892
2020-08-15T04:00:00	0.1295	15.796	0.0	0.277085598	0.250416629	0.002461299	0.025392772	0.007826299
2020-08-15T04:05:00	0.1294	15.782	0.0	0.277058302	0.250368813	0.002460668	0.025386256	0.007824291
2020-08-15T04:10:00	0.1302	15.766	0.0	0.278677154	0.253212773	0.002498303	0.025774535	0.007943962
2020-08-15T04:15:00	0.1303	15.778	0.0	0.278855597	0.253527268	0.002502474	0.025817562	0.007957223
2020-08-15T04:20:00	0.1302	15.773	0.0	0.278622580	0.253116631	0.002497029	0.025761384	0.007939909
2020-08-15T04:25:00	0.1303	15.784	80.0	0.278801025	0.253431068	0.002501198	0.025804399	0.007953166
2020-08-15T04:30:00	0.1309	15.775	83.0	0.280007954	0.255563060	0.002529513	0.026096522	0.008043202
2020-08-15T04:35:00	0.1309	15.761	66.0	0.279980675	0.255514771	0.002528871	0.026089897	0.008041160
2020-08-15T04:40:00	0.1303	15.768	11.0	0.278924894	0.253649454	0.002504095	0.025834284	0.007962377
2020-08-15T04:45:00	0.1303	15.774	19.0	0.278897608	0.253601340	0.002503456	0.025827699	0.007960348
2020-08-15T04:50:00	0.1300	15.774	0.0	0.278253109	0.252466226	0.002488410	0.025672468	0.007912504
2020-08-15T04:55:00	0.1304	15.781	0.0	0.279048759	0.253867931	0.002506994	0.025864190	0.007971595
2020-08-15T05:00:00	0.1304	15.775	0.0	0.279021474	0.253819797	0.002506355	0.025857601	0.007969564
2020-08-15T05:05:00	0.1308	15.776	0.0	0.279816997	0.255225130	0.002525020	0.026050165	0.008028914
2020-08-15T05:10:00	0.1312	15.764	0.0	0.280612389	0.256634219	0.002543770	0.026243602	0.008088533
2020-08-15T05:15:00	0.1315	15.762	0.0	0.281202030	0.257681380	0.002557726	0.026387585	0.008132910
2020-08-15T05:20:00	0.1308	15.775	0.0	0.279940839	0.255444263	0.002527933	0.026080223	0.008038178
2020-08-15T05:25:00	0.1309	15.786	0.0	0.280119235	0.255760096	0.002532134	0.026123562	0.008051535
2020-08-15T05:30:00	0.1313	15.783	0.0	0.280914578	0.257170613	0.002550916	0.026317331	0.008111257
2020-08-15T05:35:00	0.1312	15.793	0.0	0.280681661	0.256757128	0.002545407	0.026260491	0.008093738
2020-08-15T05:40:00	0.1318	15.828	0.0	0.281888124	0.258902593	0.002574026	0.026555750	0.008184740
2020-08-15T05:45:00	0.1318	15.817	0.0	0.281860855	0.258854000	0.002573377	0.026549053	0.008182676
2020-08-15T05:50:00	0.1321	15.816	0.0	0.282450346	0.259905534	0.002587432	0.026694057	0.008227368
2020-08-15T05:55:00	0.1319	15.823	0.0	0.282217501	0.259489924	0.002581874	0.026636722	0.008209696
2020-08-15T06:00:00	0.1325	15.835	0.0	0.283423590	0.261646397	0.002610743	0.026934551	0.008301490
2020-08-15T06:05:00	0.1328	15.850	0.0	0.284012897	0.262703405	0.002624922	0.027080835	0.008346576
2020-08-15T06:10:00	0.1324	15.863	0.0	0.283163529	0.261180635	0.002604501	0.026870155	0.008281643
2020-08-15T06:15:00	0.1324	15.871	0.0	0.283136268	0.261131835	0.002603847	0.026863410	0.008279564
2020-08-15T06:20:00	0.1328	15.882	0.0	0.283931126	0.262556605	0.002622951	0.027060507	0.008340311
2020-08-15T06:25:00	0.1329	15.889	0.0	0.284109378	0.262876667	0.002627248	0.027104833	0.008353973
2020-08-15T06:30:00	0.1333	15.909	0.0	0.284904083	0.264306036	0.002646457	0.027303009	0.008415052
2020-08-15T06:35:00	0.1334	15.929	0.0	0.285287764	0.264997555	0.002655763	0.027399014	0.008444642
2020-08-15T06:40:00	0.1339	15.931	0.0	0.286287707	0.266804143	0.002680112	0.027650226	0.008522068
2020-08-15T06:45:00	0.1348	15.936	0.0	0.288108907	0.270110679	0.002724822	0.028111489	0.008664234
2020-08-15T06:50:00	0.1342	15.942	0.0	0.286849442	0.267821788	0.002693853	0.027791984	0.008565759
2020-08-15T06:55:00	0.1348	15.955	0.0	0.288054436	0.270011480	0.002723478	0.028097623	0.008659960
2020-08-15T07:00:00	0.1350	15.968	0.0	0.288437883	0.270710192	0.002732949	0.028195326	0.008690073
2020-08-15T07:05:00	0.1352	15.982	0.0	0.288821303	0.271409781	0.002742439	0.028293236	0.008720250
2020-08-15T07:10:00	0.1348	15.998	0.0	0.287972728	0.269862713	0.002721463	0.028076832	0.008653552
2020-08-15T07:15:00	0.1348	16.026	0.0	0.288150841	0.270187061	0.002725857	0.028122167	0.008667525
2020-08-15T07:20:00	0.1346	16.044	0.0	0.287712898	0.269389915	0.002715061	0.028010780	0.008633194
2020-08-15T07:25:00	0.1352	16.062	0.0	0.288917694	0.271585802	0.002744828	0.028317884	0.008727847
2020-08-15T07:30:00	0.1348	16.086	0.0	0.288069135	0.270038247	0.002723841	0.028101365	0.008661114
2020-08-15T07:35:00	0.1345	16.119	0.0	0.287425817	0.268868023	0.002707998	0.027937914	0.008610737
2020-08-15T07:40:00	0.1349	16.150	0.0	0.288220010	0.270313073	0.002727565	0.028139785	0.008672955
2020-08-15T07:45:00	0.1354	16.195	0.0	0.289219390	0.272137113	0.002752314	0.028395119	0.008751651
2020-08-15T07:50:00	0.1356	16.289	0.0	0.289808037	0.273214442	0.002766958	0.028546196	0.008798215
2020-08-15T07:55:00	0.1363	16.371	55.0	0.291217587	0.275803046	0.002802223	0.028910023	0.008910350
2020-08-15T08:00:00	0.1367	16.389	85.0	0.292011215	0.277266036	0.002822204	0.029116154	0.008973881
2020-08-15T08:05:00	0.1371	16.379	0.0	0.292804728	0.278732782	0.002842271	0.029323181	0.009037689
2020-08-15T08:10:00	0.1373	16.377	0.0	0.293187836	0.279442349	0.002851991	0.029423466	0.009068598
2020-08-15T08:15:00	0.1372	16.364	0.0	0.292955469	0.279011865	0.002846093	0.029362615	0.009049843
2020-08-15T08:20:00	0.1373	16.409	0.0	0.293133417	0.279341501	0.002850609	0.029409208	0.009064204
2020-08-15T08:25:00	0.1372	16.452	87.0	0.292901048	0.278911092	0.002844712	0.029348374	0.009045454
2020-08-15T08:30:00	0.1372	16.580	0.0	0.293078997	0.279240670	0.002849227	0.029394954	0.009059810
2020-08-15T08:35:00	0.1375	16.611	0.0	0.293667224	0.280331542	0.002864184	0.029549259	0.009107369
2020-08-15T08:40:00	0.1382	16.642	0.0	0.295075779	0.282952585	0.002900200	0.029920833	0.009221891
2020-08-15T08:45:00	0.1380	16.640	0.0	0.294638397	0.282137364	0.002888986	0.029805139	0.009186233
2020-08-15T08:50:00	0.1385	16.643	0.0	0.295636598	0.283999639	0.002914620	0.030069594	0.009267741
2020-08-15T08:55:00	0.1383	16.705	0.0	0.295199259	0.283182953	0.002903371	0.029953547	0.009231974
2020-08-15T09:00:00	0.1379	16.755	0.0	0.294351684	0.281603624	0.002881650	0.029729452	0.009162906
2020-08-15T09:05:00	0.1373	16.809	0.0	0.293298834	0.279648105	0.002854811	0.029452562	0.009077566
2020-08-15T09:10:00	0.1373	16.882	0.0	0.293271625	0.279597661	0.002854120	0.029445428	0.009075367
2020-08-15T09:15:00	0.1379	16.922	0.0	0.294475180	0.281833458	0.002884808	0.029762037	0.009172949
2020-08-15T09:20:00	0.1379	16.984	0.0	0.294447976	0.281782823	0.002884113	0.029754858	0.009170736
2020-08-15T09:25:00	0.1378	17.045	0.0	0.294215663	0.281350591	0.002878174	0.029693587	0.009151852
2020-08-15T09:30:00	0.1371	17.121	0.0	0.292752466	0.278636058	0.002840946	0.029309518	0.009033478
2020-08-15T09:35:00	0.1379	17.112	0.0	0.294366366	0.281630943	0.002882025	0.029733325	0.009164099
2020-08-15T09:40:00	0.1380	17.187	0.0	0.294544268	0.281962077	0.002886576	0.029780277	0.009178571
2020-08-15T09:45:00	0.1374	17.183	0.0	0.293491455	0.280005349	0.002859710	0.029503097	0.009093141
2020-08-15T09:50:00	0.1374	17.201	0.0	0.293464247	0.279954873	0.002859017	0.029495956	0.009090940
2020-08-15T09:55:00	0.1375	17.312	0.0	0.293642178	0.280285049	0.002863546	0.029542679	0.009105340
2020-08-15T10:00:00	0.1373	17.325	0.0	0.293204682	0.279473572	0.002852419	0.029427881	0.009069959
2020-08-15T10:05:00	0.1375	17.309	0.0	0.293673056	0.280342368	0.002864333	0.029550792	0.009107841
2020-08-15T10:10:00	0.1373	17.310	0.0	0.293115711	0.279308692	0.002850159	0.029404570	0.009062774
2020-08-15T10:15:00	0.1374	17.394	0.0	0.293378950	0.279796664	0.002856848	0.029473575	0.009084042
2020-08-15T10:20:00	0.1380	17.391	0.0	0.294667760	0.282192054	0.002889738	0.029812897	0.009188624
2020-08-15T10:25:00	0.1379	17.484	0.0	0.294520735	0.281918264	0.002885974	0.029774063	0.009176655
2020-08-15T10:30:00	0.1380	17.540	0.0	0.294578811	0.282026398	0.002887461	0.029789399	0.009181382
2020-08-15T10:35:00	0.1382	17.566	0.0	0.295047069	0.282899036	0.002899463	0.029913230	0.009219548
2020-08-15T10:40:00	0.1381	17.626	0.0	0.294900055	0.282624913	0.002895692	0.029874317	0.009207555
2020-08-15T10:45:00	0.1380	17.663	0.0	0.294547938	0.281968911	0.002886670	0.029781246	0.009178869
2020-08-15T10:50:00	0.1383	17.666	0.0	0.295221279	0.283224044	0.002903937	0.029959383	0.009233773
2020-08-15T10:55:00	0.1390	17.673	0.0	0.296714691	0.286018019	0.002942466	0.030356876	0.009356284
2020-08-15T11:00:00	0.1387	17.679	0.0	0.296157648	0.284974223	0.002928057	0.030208224	0.009310468
2020-08-15T11:05:00	0.1387	17.704	0.0	0.296010663	0.284699125	0.002924262	0.030169076	0.009298402
2020-08-15T11:10:00	0.1395	17.681	0.0	0.297708857	0.287885770	0.002968292	0.030623325	0.009438406
2020-08-15T11:15:00	0.1390	17.607	0.0	0.296741883	0.286069023	0.002943170	0.030364144	0.009358524
2020-08-15T11:20:00	0.1393	17.618	0.0	0.297209961	0.286947710	0.002955314	0.030489431	0.009397139
2020-08-15T11:25:00	0.1393	17.663	0.0	0.297268010	0.287056776	0.002956822	0.030504991	0.009401934
2020-08-15T11:30:00	0.1387	17.737	0.0	0.296095919	0.284858674	0.002926463	0.030191779	0.009305400
2020-08-15T11:35:00	0.1391	17.726	0.0	0.296974092	0.286504759	0.002949191	0.030426257	0.009377668
2020-08-15T11:40:00	0.1383	17.814	0.0	0.295186740	0.283159592	0.002903050	0.029950229	0.009230952
2020-08-15T11:45:00	0.1383	17.882	0.0	0.295244809	0.283267956	0.002904542	0.029965620	0.009235695
2020-08-15T11:50:00	0.1377	17.966	0.0	0.294072297	0.281084021	0.002874513	0.029655816	0.009140211
2020-08-15T11:55:00	0.1382	18.081	0.0	0.294950786	0.282719492	0.002896993	0.029887742	0.009211692
2020-08-15T12:00:00	0.1382	18.265	0.0	0.295008858	0.282827775	0.002898483	0.029903113	0.009216430
2020-08-15T12:05:00	0.1368	18.724	0.0	0.292195027	0.277605444	0.002826844	0.029164028	0.008988637
2020-08-15T12:10:00	0.1382	18.548	0.0	0.295125000	0.283044400	0.002901464	0.029933871	0.009225910
2020-08-15T12:15:00	0.1380	18.416	0.0	0.294567800	0.282005894	0.002887179	0.029786491	0.009180486
2020-08-15T12:20:00	0.1370	18.367	0.0	0.292574506	0.278306826	0.002836439	0.029263021	0.009019147
2020-08-15T12:25:00	0.1358	18.486	0.0	0.290169968	0.273877924	0.002775986	0.028639338	0.008826922
2020-08-15T12:30:00	0.1358	18.489	0.0	0.290228091	0.273984550	0.002777438	0.028654314	0.008831538
2020-08-15T12:35:00	0.1359	18.429	0.0	0.290286213	0.274091195	0.002778890	0.028669294	0.008836155
2020-08-15T12:40:00	0.1359	18.398	0.0	0.290344334	0.274197861	0.002780342	0.028684279	0.008840774
2020-08-15T12:45:00	0.1351	18.446	0.0	0.288760141	0.271298124	0.002740924	0.028277603	0.008715432
2020-08-15T12:50:00	0.1352	18.509	0.0	0.288818279	0.271404261	0.002742364	0.028292463	0.008720012
2020-08-15T12:55:00	0.1346	18.571	0.0	0.287644374	0.269265296	0.002713374	0.027993377	0.008627831
2020-08-15T13:00:00	0.1353	18.639	0.0	0.289139863	0.271991733	0.002750340	0.028374747	0.008745373
2020-08-15T13:05:00	0.1351	18.582	0.0	0.288787373	0.271347836	0.002741598	0.028284563	0.008717577
2020-08-15T13:10:00	0.1348	18.563	0.0	0.288024177	0.269956381	0.002722732	0.028089922	0.008657587
2020-08-15T13:15:00	0.1349	18.602	0.0	0.288287666	0.270436358	0.002729236	0.028157025	0.008678269
2020-08-15T13:20:00	0.1342	18.611	0.0	0.286908252	0.267928445	0.002695294	0.027806852	0.008570342
2020-08-15T13:25:00	0.1337	18.654	0.0	0.285733916	0.265802835	0.002666610	0.027510920	0.008479133
2020-08-15T13:30:00	0.1340	18.617	0.0	0.286408365	0.267022560	0.002683060	0.027680636	0.008531441
2020-08-15T13:35:00	0.1339	18.562	0.0	0.286261114	0.266756016	0.002679463	0.027643526	0.008520003
2020-08-15T13:40:00	0.1333	18.575	0.0	0.285086630	0.264634930	0.002650882	0.027348660	0.008429122
2020-08-15T13:45:00	0.1327	18.560	0.0	0.283706357	0.262153308	0.002617540	0.027004680	0.008323105
2020-08-15T13:50:00	0.1314	18.665	0.0	0.281092077	0.257485946	0.002555120	0.026360698	0.008124623
2020-08-15T13:55:00	0.1306	18.797	0.0	0.279505001	0.254673497	0.002517689	0.025974535	0.008005604
2020-08-15T14:00:00	0.1312	18.826	0.0	0.280591612	0.256597361	0.002543279	0.026238537	0.008086972
2020-08-15T14:05:00	0.1312	18.903	0.0	0.280649843	0.256700671	0.002544655	0.026252733	0.008091347
2020-08-15T14:10:00	0.1312	18.956	0.0	0.280708074	0.256804001	0.002546031	0.026266933	0.008095724
2020-08-15T14:15:00	0.1315	19.001	0.0	0.281383198	0.258003563	0.002562024	0.026431925	0.008146576
2020-08-15T14:20:00	0.1313	19.100	0.0	0.280824534	0.257010721	0.002548785	0.026295348	0.008104482
2020-08-15T14:25:00	0.1315	19.177	0.0	0.281294024	0.257844953	0.002559908	0.026410094	0.008139848
2020-08-15T14:30:00	0.1316	19.314	0.0	0.281557862	0.258314374	0.002566171	0.026474717	0.008159765
2020-08-15T14:35:00	0.1328	19.369	0.0	0.283877262	0.262459930	0.002621654	0.027047122	0.008336186
2020-08-15T14:40:00	0.1347	19.305	0.0	0.287838710	0.269618794	0.002718159	0.028042750	0.008643048
2020-08-15T14:45:00	0.1364	19.082	0.0	0.291386736	0.276114524	0.002806474	0.028953879	0.008923867
2020-08-15T14:50:00	0.1454	18.587	0.0	0.309884714	0.311266276	0.003296280	0.034007117	0.010481324
2020-08-15T14:55:00	0.1423	17.425	136.0	0.303392864	0.298684048	0.003118705	0.032175101	0.009916679
2020-08-15T15:00:00	0.1460	17.242	169.0	0.311023346	0.313500523	0.003328068	0.034335068	0.010582401
2020-08-15T15:05:00	0.1492	17.301	167.0	0.317919333	0.326611373	0.003518314	0.036297795	0.011187333
2020-08-15T15:10:00	0.1491	17.287	168.0	0.317413006	0.325908000	0.003507008	0.036181159	0.011151385
2020-08-15T15:15:00	0.1493	17.257	171.0	0.318086307	0.326843471	0.003522047	0.036336306	0.011199202
2020-08-15T15:20:00	0.1475	17.228	183.0	0.314117834	0.319613901	0.003415435	0.035236414	0.010860205
2020-08-15T15:25:00	0.1455	17.206	188.0	0.310085626	0.311659915	0.003301875	0.034064840	0.010499114
2020-08-15T15:30:00	0.1429	17.206	188.0	0.304617812	0.301037845	0.003151737	0.032515887	0.010021712
2020-08-15T15:35:00	0.1409	17.216	186.0	0.300579475	0.293313806	0.003043669	0.031400968	0.009678083
2020-08-15T15:40:00	0.1382	17.212	178.0	0.295102979	0.283003322	0.002900899	0.029928038	0.009224112
2020-08-15T15:45:00	0.1371	17.216	172.0	0.292699553	0.278538145	0.002839606	0.029295688	0.009029215
2020-08-15T15:50:00	0.1363	17.209	167.0	0.291116054	0.275616164	0.002799674	0.028883718	0.008902242
2020-08-15T15:55:00	0.1377	17.184	170.0	0.294046602	0.281036258	0.002873857	0.029649050	0.009138125
2020-08-15T16:00:00	0.1401	17.169	179.0	0.299025370	0.290368707	0.003002713	0.030978436	0.009547855
2020-08-15T16:05:00	0.1482	17.107	201.0	0.315427540	0.322219509	0.003452843	0.035622349	0.010979154
2020-08-15T16:10:00	0.1570	17.111	201.0	0.340550241	0.358722093	0.004045488	0.041736552	0.012863611
2020-08-15T16:15:00	0.1596	17.134	204.0	0.348110592	0.369745188	0.004231289	0.043653426	0.013454410
2020-08-15T16:20:00	0.1605	17.130	209.0	0.350744828	0.373621063	0.004297186	0.044333278	0.013663947
2020-08-15T16:25:00	0.1605	17.112	212.0	0.350785587	0.373681177	0.004298211	0.044343846	0.013667204
2020-08-15T16:30:00	0.1605	17.083	216.0	0.350826345	0.373741292	0.004299235	0.044354416	0.013670462
2020-08-15T16:35:00	0.1604	17.044	217.0	0.350579205	0.373376838	0.004293025	0.044290351	0.013650716
2020-08-15T16:40:00	0.1587	17.003	218.0	0.345427920	0.365816726	0.004164797	0.042967442	0.013242983
2020-08-15T16:45:00	0.1574	16.965	218.0	0.341707137	0.360399198	0.004073601	0.042026591	0.012953003
2020-08-15T16:50:00	0.1567	16.930	217.0	0.339718474	0.357518468	0.004025346	0.041528754	0.012799565
2020-08-15T16:55:00	0.1560	16.901	216.0	0.337726954	0.354643907	0.003977361	0.041033695	0.012646983
2020-08-15T17:00:00	0.1548	16.881	215.0	0.334276757	0.349688259	0.003895027	0.040184276	0.012385184
2020-08-15T17:05:00	0.1538	16.862	215.0	0.331401842	0.345582455	0.003827192	0.039484436	0.012169487
2020-08-15T17:10:00	0.1525	16.848	214.0	0.327642938	0.340246378	0.003739550	0.038580249	0.011890808
2020-08-15T17:15:00	0.1510	16.836	215.0	0.322992633	0.333695207	0.003632763	0.037478542	0.011551251
2020-08-15T17:20:00	0.1506	16.826	214.0	0.321858761	0.332106269	0.003606998	0.037212737	0.011469327
2020-08-15T17:25:00	0.1498	16.819	215.0	0.319546440	0.328876128	0.003554788	0.036674088	0.011303310
2020-08-15T17:30:00	0.1496	16.814	211.0	0.318999019	0.328113423	0.003542492	0.036547236	0.011264213
2020-08-15T17:35:00	0.1495	16.810	214.0	0.318746085	0.327761276	0.003536819	0.036488711	0.011246175
2020-08-15T17:40:00	0.1487	16.811	214.0	0.316590492	0.324542226	0.003486276	0.035967267	0.011085461
2020-08-15T17:45:00	0.1479	16.811	214.0	0.314984293	0.321336476	0.003440154	0.035491439	0.010938806
2020-08-15T17:50:00	0.1471	16.814	214.0	0.313377709	0.318146236	0.003394409	0.035019491	0.010793347
2020-08-15T17:55:00	0.1465	16.810	214.0	0.311975246	0.315374636	0.003354791	0.034610762	0.010667373
2020-08-15T18:00:00	0.1458	16.803	213.0	0.310572482	0.312614850	0.003315458	0.034204971	0.010542304
2020-08-15T18:05:00	0.1452	16.804	210.0	0.309374008	0.310266814	0.003282085	0.033860668	0.010436187
2020-08-15T18:10:00	0.1446	16.795	208.0	0.308175308	0.307927398	0.003248919	0.033518497	0.010330726
2020-08-15T18:15:00	0.1441	16.793	204.0	0.307181047	0.305993846	0.003221570	0.033236347	0.010243765
2020-08-15T18:20:00	0.1437	16.783	198.0	0.306391320	0.304462497	0.003199952	0.033013311	0.010175023
2020-08-15T18:25:00	0.1429	16.773	194.0	0.304782577	0.301355173	0.003156197	0.032561899	0.010035893
2020-08-15T18:30:00	0.1423	16.759	188.0	0.303378205	0.298655937	0.003118311	0.032171036	0.009915426
2020-08-15T18:35:00	0.1410	16.751	176.0	0.300744352	0.293627148	0.003048034	0.031446007	0.009691965
2020-08-15T18:40:00	0.1404	16.738	167.0	0.299543954	0.291349754	0.003016340	0.031119027	0.009591186
2020-08-15T18:45:00	0.1406	16.734	158.0	0.299982795	0.292181269	0.003027903	0.031238314	0.009627952
2020-08-15T18:50:00	0.1403	16.725	151.0	0.299397055	0.291071682	0.003012476	0.031079161	0.009578899
2020-08-15T18:55:00	0.1407	16.714	142.0	0.300245717	0.292680035	0.003034843	0.031309920	0.009650021
2020-08-15T19:00:00	0.1407	16.703	136.0	0.300274726	0.292735092	0.003035610	0.031317827	0.009652458
2020-08-15T19:05:00	0.1405	16.694	128.0	0.299689016	0.291624482	0.003020159	0.031158426	0.009603329
2020-08-15T19:10:00	0.1406	16.685	117.0	0.299922940	0.292067785	0.003026324	0.031222027	0.009622932
2020-08-15T19:15:00	0.1403	16.673	114.0	0.299337195	0.290958407	0.003010902	0.031062925	0.009573895
2020-08-15T19:20:00	0.1400	16.666	112.0	0.298751390	0.289851082	0.002995529	0.030904320	0.009525012
2020-08-15T19:25:00	0.1405	16.658	112.0	0.299805062	0.291844355	0.003023216	0.031189967	0.009613051
2020-08-15T19:30:00	0.1402	16.654	112.0	0.299219305	0.290735391	0.003007805	0.031030965	0.009564045
2020-08-15T19:35:00	0.1401	16.650	111.0	0.299043383	0.290402755	0.003003186	0.030983312	0.009549358
2020-08-15T19:40:00	0.1403	16.652	111.0	0.299277333	0.290845154	0.003009329	0.031046694	0.009568893
2020-08-15T19:45:00	0.1405	16.647	111.0	0.299716194	0.291675969	0.003020875	0.031165811	0.009605606
2020-08-15T19:50:00	0.1396	16.625	112.0	0.297900677	0.288246861	0.002973292	0.030674905	0.009454304
2020-08-15T19:55:00	0.1390	16.620	112.0	0.296699689	0.285989884	0.002942077	0.030352867	0.009355048
2020-08-15T20:00:00	0.1387	16.611	112.0	0.296113616	0.284891797	0.002926920	0.030196493	0.009306852
2020-08-15T20:05:00	0.1382	16.604	113.0	0.295117334	0.283030101	0.002901267	0.029931840	0.009225284
2020-08-15T20:10:00	0.1375	16.594	113.0	0.293710625	0.280412117	0.002865290	0.029560665	0.009110884
2020-08-15T20:15:00	0.1373	16.595	109.0	0.293124238	0.279324494	0.002850376	0.029406804	0.009063462
2020-08-15T20:20:00	0.1369	16.579	114.0	0.292332608	0.277859627	0.002830320	0.029199894	0.008999691
2020-08-15T20:25:00	0.1363	16.561	110.0	0.291130419	0.275642601	0.002800034	0.028887439	0.008903389
2020-08-15T20:30:00	0.1353	16.541	115.0	0.289106797	0.271931296	0.002749519	0.028366279	0.008742763
2020-08-15T20:35:00	0.1352	16.537	115.0	0.288930553	0.271609290	0.002745147	0.028321174	0.008728861
2020-08-15T20:40:00	0.1355	16.549	116.0	0.289575525	0.272788642	0.002761168	0.028486461	0.008779804
2020-08-15T20:45:00	0.1357	16.527	111.0	0.290015150	0.273594015	0.002772122	0.028599473	0.008814635
2020-08-15T20:50:00	0.1355	16.523	112.0	0.289428363	0.272519321	0.002757507	0.028448694	0.008768164
2020-08-15T20:55:00	0.1353	16.504	117.0	0.289046825	0.271821702	0.002748031	0.028350926	0.008738031
2020-08-15T21:00:00	0.1353	16.503	113.0	0.289075892	0.271874818	0.002748752	0.028358367	0.008740324
2020-08-15T21:05:00	0.1352	16.486	113.0	0.288899648	0.271552844	0.002744381	0.028313269	0.008726424
2020-08-15T21:10:00	0.1357	16.478	113.0	0.289955189	0.273484096	0.002770626	0.028584042	0.008809879
2020-08-15T21:15:00	0.1358	16.471	114.0	0.290189521	0.273913791	0.002776475	0.028644376	0.008828475
2020-08-15T21:20:00	0.1355	16.461	114.0	0.289602753	0.272838487	0.002761846	0.028493452	0.008781959
2020-08-15T21:25:00	0.1355	16.440	115.0	0.289426526	0.272515960	0.002757462	0.028448223	0.008768019
2020-08-15T21:30:00	0.1356	16.422	115.0	0.289660881	0.272944916	0.002763293	0.028508381	0.008786560
2020-08-15T21:35:00	0.1360	16.418	115.0	0.290511022	0.274503890	0.002784511	0.028727283	0.008854028
2020-08-15T21:40:00	0.1358	16.415	116.0	0.290129561	0.273803810	0.002774977	0.028628930	0.008823714
2020-08-15T21:45:00	0.1359	16.399	116.0	0.290363886	0.274233748	0.002780831	0.028689322	0.008842328
2020-08-15T21:50:00	0.1364	16.405	116.0	0.291419137	0.276174211	0.002807289	0.028962284	0.008926457
2020-08-15T21:55:00	0.1359	16.395	116.0	0.290422006	0.274340441	0.002782284	0.028704313	0.008846948
2020-08-15T22:00:00	0.1353	16.381	117.0	0.289014083	0.271761879	0.002747218	0.028342545	0.008735448
2020-08-15T22:05:00	0.1355	16.371	117.0	0.289513722	0.272675519	0.002759630	0.028470596	0.008774914
2020-08-15T22:10:00	0.1352	16.354	117.0	0.288986852	0.271712130	0.002746543	0.028335577	0.008733300
2020-08-15T22:15:00	0.1351	16.346	117.0	0.288665259	0.271124951	0.002738574	0.028253363	0.008707961
2020-08-15T22:20:00	0.1343	16.345	118.0	0.287111478	0.268297177	0.002700278	0.027858268	0.008586189
2020-08-15T22:25:00	0.1341	16.332	118.0	0.286584368	0.267341329	0.002687363	0.027725033	0.008545125
2020-08-15T22:30:00	0.1337	16.325	118.0	0.285851771	0.266015767	0.002669480	0.027540529	0.008488259
2020-08-15T22:35:00	0.1331	16.311	118.0	0.284502638	0.263583493	0.002636742	0.027202786	0.008384163
2020-08-15T22:40:00	0.1328	16.302	118.0	0.283975259	0.262635830	0.002624015	0.027071477	0.008343692
2020-08-15T22:45:00	0.1329	16.299	0.0	0.284269889	0.263165042	0.002631121	0.027144786	0.008366287
2020-08-15T22:50:00	0.1328	16.285	0.0	0.283948001	0.262586898	0.002623358	0.027064702	0.008341604
2020-08-15T22:55:00	0.1325	16.272	0.0	0.283420564	0.261640974	0.002610670	0.026933801	0.008301259
2020-08-15T23:00:00	0.1323	16.251	0.0	0.282893071	0.260696705	0.002598019	0.026803287	0.008261033
2020-08-15T23:05:00	0.1314	16.244	0.0	0.281131903	0.257556726	0.002556063	0.026370435	0.008127624
2020-08-15T23:10:00	0.1310	16.230	0.0	0.280192847	0.255890477	0.002533869	0.026141458	0.008057051
2020-08-15T23:15:00	0.1307	16.210	0.0	0.279665008	0.254956326	0.002521447	0.026013305	0.008017553
2020-08-15T23:20:00	0.1296	16.200	0.0	0.277285335	0.250766663	0.002465924	0.025440485	0.007841004
2020-08-15T23:25:00	0.1293	16.184	0.0	0.276757175	0.249841622	0.002453707	0.025314442	0.007802157
2020-08-15T23:30:00	0.1282	16.165	0.0	0.274581951	0.246050368	0.002403794	0.024799504	0.007643448
2020-08-15T23:35:00	0.1282	16.150	0.0	0.274465338	0.245847963	0.002401137	0.024772087	0.007634998
2020-08-15T23:40:00	0.1277	16.128	0.0	0.273524957	0.244218870	0.002379775	0.024551696	0.007567071
2020-08-15T23:45:00	0.1277	16.109	0.0	0.273408317	0.244017195	0.002377133	0.024524447	0.007558673
2020-08-15T23:50:00	0.1275	16.101	0.0	0.273085699	0.243459820	0.002369838	0.024449177	0.007535474
2020-08-15T23:55:00	0.1273	16.087	0.0	0.272557059	0.242547927	0.002357913	0.024326157	0.007497558
2020-08-16T00:00:00	0.1277	16.062	0.0	0.273470323	0.244124395	0.002378537	0.024538930	0.007563137
2020-08-16T00:05:00	0.1279	16.046	0.0	0.273971543	0.244991830	0.002389904	0.024656204	0.007599282
2020-08-16T00:10:00	0.1277	16.027	0.0	0.273443006	0.244077164	0.002377919	0.024532549	0.007561170
2020-08-16T00:15:00	0.1284	15.996	0.0	0.274973818	0.246731162	0.002412738	0.024891776	0.007671887
2020-08-16T00:20:00	0.1286	15.978	0.0	0.275268997	0.247244617	0.002419489	0.024961424	0.007693353
2020-08-16T00:25:00	0.1279	15.960	9.0	0.273916915	0.244897211	0.002388664	0.024643405	0.007595337
2020-08-16T00:30:00	0.1282	15.937	116.0	0.274418085	0.245765971	0.002400061	0.024760983	0.007631575
2020-08-16T00:35:00	0.1278	15.916	67.0	0.273683652	0.244493399	0.002383371	0.024588801	0.007578507
2020-08-16T00:40:00	0.1274	15.887	0.0	0.272949101	0.243224022	0.002366753	0.024417352	0.007525665
2020-08-16T00:45:00	0.1267	15.871	0.0	0.271390277	0.240541481	0.002331729	0.024056022	0.007414300
2020-08-16T00:50:00	0.1273	15.846	0.0	0.272715789	0.242821547	0.002361490	0.024363054	0.007508930
2020-08-16T00:55:00	0.1277	15.822	0.0	0.273423061	0.244042682	0.002377467	0.024527890	0.007559734
2020-08-16T01:00:00	0.1283	15.809	0.0	0.274747979	0.246338692	0.002407581	0.024838571	0.007655489
2020-08-16T01:05:00	0.1284	15.782	0.0	0.274837276	0.246493837	0.002409619	0.024859600	0.007661970
2020-08-16T01:10:00	0.1286	15.748	0.0	0.275338347	0.247365329	0.002421077	0.024977805	0.007698402
2020-08-16T01:15:00	0.1279	15.727	0.0	0.273986284	0.245017366	0.002390239	0.024659659	0.007600346
2020-08-16T01:20:00	0.1279	15.713	0.0	0.273869657	0.244815372	0.002387591	0.024632336	0.007591925
2020-08-16T01:25:00	0.1281	15.699	0.0	0.274370833	0.245683992	0.002398985	0.024749882	0.007628154
2020-08-16T01:30:00	0.1281	15.671	0.0	0.274254214	0.245481733	0.002396330	0.024722499	0.007619714
2020-08-16T01:35:00	0.1278	15.657	0.0	0.273725710	0.244566182	0.002384325	0.024598641	0.007581540
2020-08-16T01:40:00	0.1278	15.624	0.0	0.273609076	0.244364368	0.002381681	0.024571360	0.007573132
2020-08-16T01:45:00	0.1270	15.605	0.0	0.272050480	0.241675739	0.002346522	0.024208638	0.007461337
2020-08-16T01:50:00	0.1267	15.588	0.0	0.271315662	0.240413463	0.002330061	0.024038812	0.007408995
2020-08-16T01:55:00	0.1260	15.566	0.0	0.269962396	0.238097711	0.002299938	0.023728032	0.007313210
2020-08-16T02:00:00	0.1261	15.551	0.0	0.270257902	0.238602407	0.002306494	0.023795677	0.007334059
2020-08-16T02:05:00	0.1258	15.533	0.0	0.269522788	0.237347923	0.002290205	0.023627625	0.007282264
2020-08-16T02:10:00	0.1261	15.481	0.0	0.270230566	0.238555695	0.002305887	0.023789414	0.007332128
2020-08-16T02:15:00	0.1259	15.467	0.0	0.269701588	0.237652734	0.002294160	0.023668431	0.007294840
2020-08-16T02:20:00	0.1259	15.440	0.0	0.269790985	0.237805210	0.002296140	0.023688849	0.007301133
2020-08-16T02:25:00	0.1264	15.427	0.0	0.270704813	0.239366730	0.002316433	0.023898212	0.007365661
2020-08-16T02:30:00	0.1266	15.414	0.0	0.271206341	0.240225960	0.002327619	0.024013611	0.007401228
2020-08-16T02:35:00	0.1263	15.392	0.0	0.270677479	0.239319947	0.002315824	0.023891933	0.007363726
2020-08-16T02:40:00	0.1259	15.365	0.0	0.269736305	0.237711942	0.002294929	0.023676359	0.007297284
2020-08-16T02:45:00	0.1257	15.337	0.0	0.269413422	0.237161579	0.002287788	0.023602688	0.007274578
2020-08-16T02:50:00	0.1260	15.313	0.0	0.269915096	0.238016979	0.002298889	0.023717216	0.007309876
2020-08-16T02:55:00	0.1258	15.300	0.0	0.269592226	0.237466274	0.002291741	0.023643467	0.007287146
2020-08-16T03:00:00	0.1255	15.278	0.0	0.268857000	0.236214683	0.002275515	0.023476072	0.007235553
2020-08-16T03:05:00	0.1249	15.254	0.0	0.267709208	0.234267580	0.002250331	0.023216249	0.007155473
2020-08-16T03:10:00	0.1244	15.226	0.0	0.266767392	0.232676089	0.002229798	0.023004417	0.007090185
2020-08-16T03:15:00	0.1247	15.203	0.0	0.267269372	0.233523646	0.002240727	0.023117168	0.007124936
2020-08-16T03:20:00	0.1246	15.186	0.0	0.267152567	0.233326287	0.002238181	0.023090901	0.007116840
2020-08-16T03:25:00	0.1249	15.158	0.0	0.267654503	0.234174986	0.002249135	0.023203911	0.007151671
2020-08-16T03:30:00	0.1247	15.142	0.0	0.267331465	0.233628594	0.002242081	0.023131139	0.007129242
2020-08-16T03:35:00	0.1245	15.121	0.0	0.266802133	0.232734696	0.002230553	0.023012209	0.007092586
2020-08-16T03:40:00	0.1239	15.090	0.0	0.265653790	0.230801523	0.002205674	0.022755532	0.007013476
2020-08-16T03:45:00	0.1244	15.082	0.0	0.266568494	0.232340704	0.002225477	0.022959838	0.007076445
2020-08-16T03:50:00	0.1246	15.045	0.0	0.267070498	0.233187672	0.002236393	0.023072457	0.007111155
2020-08-16T03:55:00	0.1248	15.031	0.0	0.267572443	0.234036127	0.002247342	0.023185411	0.007145969
2020-08-16T04:00:00	0.1247	15.005	0.0	0.267249399	0.233489892	0.002240292	0.023112675	0.007123551
2020-08-16T04:05:00	0.1255	14.987	0.0	0.269014017	0.236481690	0.002278974	0.023511758	0.007246552
2020-08-16T04:10:00	0.1259	14.993	0.0	0.269747372	0.237730818	0.002295174	0.023678887	0.007298063
2020-08-16T04:15:00	0.1264	14.961	0.0	0.270892785	0.239688582	0.002320621	0.023941422	0.007378979
2020-08-16T04:20:00	0.1266	14.959	0.0	0.271213716	0.240238608	0.002327783	0.024015311	0.007401752
2020-08-16T04:25:00	0.1270	14.951	0.0	0.271946707	0.241497270	0.002344193	0.024184609	0.007453931
2020-08-16T04:30:00	0.1270	14.936	0.0	0.272061540	0.241694765	0.002346771	0.024211201	0.007462127
2020-08-16T04:35:00	0.1270	14.929	0.0	0.271970346	0.241537919	0.002344724	0.024190082	0.007455618
2020-08-16T04:40:00	0.1268	14.922	0.0	0.271673109	0.241027064	0.002338059	0.024121329	0.007434428
2020-08-16T04:45:00	0.1275	14.919	0.0	0.273024015	0.243353325	0.002368444	0.024434802	0.007531043
2020-08-16T04:50:00	0.1279	14.907	0.0	0.273962656	0.244976436	0.002389703	0.024654122	0.007598640
2020-08-16T04:55:00	0.1280	14.903	0.0	0.274077439	0.245175301	0.002392311	0.024681027	0.007606932
2020-08-16T05:00:00	0.1288	14.890	0.0	0.275839363	0.248238309	0.002432568	0.025096353	0.007734940
2020-08-16T05:05:00	0.1292	14.898	0.0	0.276571613	0.249517038	0.002449424	0.025270253	0.007788537
2020-08-16T05:10:00	0.1295	14.898	0.0	0.277097952	0.250438272	0.002461585	0.025395721	0.007827208
2020-08-16T05:15:00	0.1295	14.879	0.0	0.277212657	0.250639269	0.002464241	0.025423117	0.007835652
2020-08-16T05:20:00	0.1303	14.863	0.0	0.278767681	0.253372297	0.002500419	0.025796358	0.007950688
2020-08-16T05:25:00	0.1311	14.885	0.0	0.280527859	0.256484280	0.002541773	0.026223001	0.008082184
2020-08-16T05:30:00	0.1310	14.898	0.0	0.280231167	0.255958362	0.002534772	0.026150777	0.008059923
2020-08-16T05:35:00	0.1308	14.897	0.0	0.279934456	0.255432966	0.002527783	0.026078673	0.008037700
2020-08-16T05:40:00	0.1306	14.896	0.0	0.279432031	0.254544570	0.002515977	0.025956867	0.008000159
2020-08-16T05:45:00	0.1299	14.905	0.0	0.277900833	0.251846890	0.002480210	0.025587870	0.007886430
2020-08-16T05:50:00	0.1301	14.924	0.0	0.278427024	0.252772273	0.002492465	0.025714298	0.007925396
2020-08-16T05:55:00	0.1305	14.937	0.0	0.279158874	0.254062236	0.002509572	0.025890795	0.007979794
2020-08-16T06:00:00	0.1307	14.943	0.0	0.279684927	0.254991546	0.002521915	0.026018133	0.008019041
2020-08-16T06:05:00	0.1312	14.960	0.0	0.280622242	0.256651699	0.002544002	0.026246003	0.008089273
2020-08-16T06:10:00	0.1309	14.984	0.0	0.280119888	0.255761251	0.002532150	0.026123720	0.008051584
2020-08-16T06:15:00	0.1312	15.003	0.0	0.280645837	0.256693562	0.002544560	0.026251756	0.008091046
2020-08-16T06:20:00	0.1315	15.021	0.0	0.281377352	0.257993164	0.002561885	0.026430493	0.008146135
2020-08-16T06:25:00	0.1316	15.044	0.0	0.281491956	0.258197073	0.002564606	0.026458565	0.008154787
2020-08-16T06:30:00	0.1317	15.071	0.0	0.281606557	0.258401061	0.002567329	0.026486655	0.008163444
2020-08-16T06:35:00	0.1320	15.091	0.0	0.282337930	0.259704837	0.002584748	0.026666366	0.008218833
2020-08-16T06:40:00	0.1321	15.126	0.0	0.282452512	0.259909400	0.002587484	0.026694590	0.008227532
2020-08-16T06:45:00	0.1324	15.159	0.0	0.283183760	0.261216853	0.002604986	0.026875161	0.008283185
2020-08-16T06:50:00	0.1325	15.191	0.0	0.283298322	0.261421992	0.002607735	0.026903520	0.008291926
2020-08-16T06:55:00	0.1325	15.222	0.0	0.283412882	0.261627210	0.002610485	0.026931897	0.008300672
2020-08-16T07:00:00	0.1328	15.254	0.0	0.283938481	0.262569808	0.002623129	0.027062335	0.008340875
2020-08-16T07:05:00	0.1325	15.289	0.0	0.283436464	0.261669464	0.002611052	0.026937741	0.008302473
2020-08-16T07:10:00	0.1324	15.324	0.0	0.283139946	0.261138419	0.002603935	0.026864320	0.008279844
2020-08-16T07:15:00	0.1329	15.362	0.0	0.284076605	0.262817806	0.002626458	0.027096680	0.008351460
2020-08-16T07:20:00	0.1328	15.404	0.0	0.283985640	0.262654467	0.002624265	0.027074058	0.008344488
2020-08-16T07:25:00	0.1331	15.459	0.0	0.284511180	0.263598856	0.002636949	0.027204916	0.008384819
2020-08-16T07:30:00	0.1327	15.513	0.0	0.283803705	0.262327938	0.002619883	0.027028850	0.008330554
2020-08-16T07:35:00	0.1326	15.557	0.0	0.283507209	0.261796246	0.002612752	0.026955277	0.008307878
2020-08-16T07:40:00	0.1324	15.607	0.0	0.283210696	0.261265077	0.002605632	0.026881827	0.008285240
2020-08-16T07:45:00	0.1327	15.682	0.0	0.283736316	0.262207044	0.002618261	0.027012117	0.008325397
2020-08-16T07:50:00	0.1323	15.719	0.0	0.283028733	0.260939386	0.002601269	0.026836815	0.008271367
2020-08-16T07:55:00	0.1321	15.759	0.0	0.282526624	0.260041757	0.002589254	0.026712856	0.008233162
2020-08-16T08:00:00	0.1322	15.941	0.0	0.282641201	0.260246449	0.002591993	0.026741110	0.008241870
2020-08-16T08:05:00	0.1325	16.066	0.0	0.283372422	0.261554722	0.002609514	0.026921873	0.008297583
2020-08-16T08:10:00	0.1337	16.263	0.0	0.285747319	0.265827046	0.002666936	0.027514286	0.008480170
2020-08-16T08:15:00	0.1323	16.097	0.0	0.282984917	0.260860993	0.002600219	0.026825983	0.008268029
2020-08-16T08:20:00	0.1323	16.062	0.0	0.282893932	0.260698245	0.002598040	0.026803500	0.008261099
2020-08-16T08:25:00	0.1320	16.109	0.0	0.282391810	0.259801019	0.002586034	0.026679636	0.008222923
2020-08-16T08:30:00	0.1320	16.109	0.0	0.282300815	0.259638592	0.002583862	0.026657227	0.008216016
2020-08-16T08:35:00	0.1337	16.775	0.0	0.285908965	0.266119131	0.002670873	0.027554905	0.008492689
2020-08-16T08:40:00	0.1332	16.551	0.0	0.284790744	0.264101939	0.002643712	0.027274690	0.008406324
2020-08-16T08:45:00	0.1337	16.959	0.0	0.285727098	0.265790520	0.002666444	0.027509208	0.008478605
2020-08-16T08:50:00	0.1336	16.587	0.0	0.285636163	0.265626289	0.002664231	0.027486377	0.008471568
2020-08-16T08:55:00	0.1329	16.516	0.0	0.284106888	0.262872193	0.002627188	0.027104213	0.008353782
2020-08-16T09:00:00	0.1328	16.527	0.0	0.284015923	0.262708838	0.002624995	0.027081588	0.008346808
2020-08-16T09:05:00	0.1329	16.468	0.0	0.284130466	0.262914545	0.002627757	0.027110080	0.008355590
2020-08-16T09:10:00	0.1331	16.954	0.0	0.284655991	0.263859386	0.002640451	0.027241044	0.008395954
2020-08-16T09:15:00	0.1334	16.752	0.0	0.285181462	0.264805870	0.002653182	0.027372394	0.008436438
2020-08-16T09:20:00	0.1329	16.722	0.0	0.284268585	0.263162700	0.002631089	0.027144461	0.008366187
2020-08-16T09:25:00	0.1347	17.306	0.0	0.287875343	0.269685457	0.002719062	0.028052064	0.008645919
2020-08-16T09:30:00	0.1330	17.015	0.0	0.284292163	0.263205074	0.002631658	0.027150333	0.008367996
2020-08-16T09:35:00	0.1320	16.936	0.0	0.282351342	0.259728777	0.002585068	0.026669669	0.008219851
2020-08-16T09:40:00	0.1317	16.830	0.0	0.281643562	0.258466945	0.002568208	0.026495729	0.008166241
2020-08-16T09:45:00	0.1309	16.898	0.0	0.280113062	0.255749164	0.002531989	0.026122061	0.008051073
2020-08-16T09:50:00	0.1308	16.907	20.0	0.279816345	0.255223976	0.002525005	0.026050006	0.008028865
2020-08-16T09:55:00	0.1308	16.908	42.0	0.279930985	0.255426823	0.002527702	0.026077831	0.008037441
2020-08-16T10:00:00	0.1298	16.876	0.0	0.277782671	0.251639326	0.002477463	0.025559534	0.007877696
2020-08-16T10:05:00	0.1296	16.889	0.0	0.277483968	0.251115012	0.002470529	0.025487990	0.007855646
2020-08-16T10:10:00	0.1297	17.127	0.0	0.277596823	0.251313041	0.002473147	0.025515005	0.007863972
2020-08-16T10:15:00	0.1305	17.259	0.0	0.279149880	0.254046364	0.002509362	0.025888621	0.007979125
2020-08-16T10:20:00	0.1302	17.109	0.0	0.278645533	0.253157064	0.002497565	0.025766915	0.007941613
2020-08-16T10:25:00	0.1293	17.046	0.0	0.276700621	0.249742676	0.002452401	0.025300969	0.007798005
2020-08-16T10:30:00	0.1288	17.102	0.0	0.275784314	0.248142312	0.002431303	0.025083310	0.007730920
2020-08-16T10:35:00	0.1292	17.130	0.0	0.276514731	0.249417583	0.002448112	0.025256717	0.007784365
2020-08-16T10:40:00	0.1295	17.139	0.0	0.277245034	0.250696016	0.002464991	0.025430853	0.007838036
2020-08-16T10:45:00	0.1296	17.129	0.0	0.277357894	0.250893885	0.002467606	0.025457832	0.007846351
2020-08-16T10:50:00	0.1297	17.156	0.0	0.277676533	0.251452957	0.002474998	0.025534097	0.007869857
2020-08-16T10:55:00	0.1296	17.166	0.0	0.277377823	0.250928832	0.002468067	0.025462597	0.007847820
2020-08-16T11:00:00	0.1294	17.192	0.0	0.276873288	0.250044836	0.002456390	0.025342118	0.007810687
2020-08-16T11:05:00	0.1301	17.245	0.0	0.278426581	0.252771493	0.002492454	0.025714191	0.007925363
2020-08-16T11:10:00	0.1307	17.301	0.0	0.279567998	0.254784832	0.002519168	0.025989795	0.008010307
2020-08-16T11:15:00	0.1308	17.320	0.0	0.279886490	0.255348082	0.002526655	0.026067029	0.008034112
2020-08-16T11:20:00	0.1308	17.312	0.0	0.279793607	0.255183754	0.002524470	0.026044490	0.008027165
2020-08-16T11:25:00	0.1302	17.338	0.0	0.278672167	0.253203987	0.002498187	0.025773333	0.007943591
2020-08-16T11:30:00	0.1308	17.592	0.0	0.279813526	0.255218989	0.002524938	0.026049322	0.008028654
2020-08-16T11:35:00	0.1308	17.531	0.0	0.279926326	0.255418577	0.002527592	0.026076700	0.008037092
2020-08-16T11:40:00	0.1313	17.484	0.0	0.280861753	0.257076806	0.002549666	0.026304433	0.008107282
2020-08-16T11:45:00	0.1313	17.349	0.0	0.280974529	0.257277096	0.002552335	0.026331973	0.008115770
2020-08-16T11:50:00	0.1310	17.396	0.0	0.280264711	0.256017794	0.002535563	0.026158936	0.008062438
2020-08-16T11:55:00	0.1310	17.463	0.0	0.280171835	0.255853257	0.002533374	0.026136348	0.008055476
2020-08-16T12:00:00	0.1309	17.573	0.0	0.280078958	0.255688772	0.002531185	0.026113773	0.008048518
2020-08-16T12:05:00	0.1313	17.711	0.0	0.280808718	0.256982644	0.002548411	0.026291488	0.008103292
2020-08-16T12:10:00	0.1311	17.735	0.0	0.280510203	0.256452967	0.002541356	0.026218700	0.008080858
2020-08-16T12:15:00	0.1315	17.666	0.0	0.281239899	0.257748708	0.002558624	0.026396850	0.008135765
2020-08-16T12:20:00	0.1309	17.689	0.0	0.280118793	0.255759312	0.002532124	0.026123454	0.008051502
2020-08-16T12:25:00	0.1308	17.767	0.0	0.279820235	0.255230859	0.002525096	0.026050950	0.008029156
2020-08-16T12:30:00	0.1306	17.771	0.0	0.279521659	0.254702934	0.002518080	0.025978570	0.008006847
2020-08-16T12:35:00	0.1297	17.766	0.0	0.277577105	0.251278435	0.002472690	0.025510284	0.007862517
2020-08-16T12:40:00	0.1304	17.790	0.0	0.279130169	0.254011577	0.002508900	0.025883858	0.007977656
2020-08-16T12:45:00	0.1302	17.810	0.0	0.278625819	0.253122336	0.002497104	0.025762165	0.007940149
2020-08-16T12:50:00	0.1294	17.784	0.0	0.276886715	0.250068340	0.002456700	0.025345319	0.007811674
2020-08-16T12:55:00	0.1293	17.868	0.0	0.276793774	0.249905666	0.002454552	0.025323164	0.007804845
2020-08-16T13:00:00	0.1290	17.869	0.0	0.276083335	0.248663981	0.002438176	0.025154209	0.007752771
2020-08-16T13:05:00	0.1284	17.819	0.0	0.274961015	0.246708905	0.002412446	0.024888758	0.007670957
2020-08-16T13:10:00	0.1286	17.810	0.0	0.275279817	0.247263449	0.002419737	0.024963979	0.007694141
2020-08-16T13:15:00	0.1289	17.833	0.0	0.276010313	0.248536535	0.002436496	0.025136883	0.007747431
2020-08-16T13:20:00	0.1282	17.875	0.0	0.274476160	0.245866743	0.002401383	0.024774630	0.007635782
2020-08-16T13:25:00	0.1281	17.934	0.0	0.274383171	0.245705396	0.002399266	0.024752780	0.007629047
2020-08-16T13:30:00	0.1287	17.975	0.0	0.275525567	0.247691359	0.002425367	0.025022062	0.007712043
2020-08-16T13:35:00	0.1283	17.906	0.0	0.274609028	0.246097378	0.002404412	0.024805872	0.007645411
2020-08-16T13:40:00	0.1284	17.777	0.0	0.274927854	0.246651258	0.002411688	0.024880941	0.007668548
2020-08-16T13:45:00	0.1275	17.764	0.0	0.272981390	0.243279749	0.002367482	0.024424872	0.007527983
2020-08-16T13:50:00	0.1277	17.831	0.0	0.273506295	0.244186597	0.002379352	0.024547335	0.007565727
2020-08-16T13:55:00	0.1281	17.846	0.0	0.274237071	0.245452007	0.002395940	0.024718475	0.007618474
2020-08-16T14:00:00	0.1277	17.818	0.0	0.273526240	0.244221089	0.002379804	0.024551996	0.007567164
2020-08-16T14:05:00	0.1274	17.843	0.0	0.272815298	0.242993163	0.002363733	0.024386203	0.007516064
2020-08-16T14:10:00	0.1272	18.075	0.0	0.272516274	0.242477646	0.002356995	0.024316682	0.007494638
2020-08-16T14:15:00	0.1279	18.145	0.0	0.273865085	0.244807456	0.002387487	0.024631266	0.007591595
2020-08-16T14:20:00	0.1272	18.180	0.0	0.272536223	0.242512021	0.002357444	0.024321316	0.007496066
2020-08-16T14:25:00	0.1273	18.053	0.0	0.272649199	0.242706739	0.002359989	0.024347570	0.007504158
2020-08-16T14:30:00	0.1273	17.958	0.0	0.272556173	0.242546399	0.002357893	0.024325951	0.007497494
2020-08-16T14:35:00	0.1268	17.977	0.0	0.271639037	0.240968540	0.002337296	0.024113455	0.007432001
2020-08-16T14:40:00	0.1269	18.007	0.0	0.271752035	0.241162658	0.002339828	0.024139573	0.007440051
2020-08-16T14:45:00	0.1268	17.995	0.0	0.271658990	0.241002812	0.002337743	0.024118066	0.007433422
2020-08-16T14:50:00	0.1271	17.965	0.0	0.272184049	0.241905550	0.002349522	0.024239589	0.007470877
2020-08-16T14:55:00	0.1270	17.948	0.0	0.272091013	0.241745466	0.002347432	0.024218028	0.007464232
2020-08-16T15:00:00	0.1261	17.983	0.0	0.270143325	0.238406655	0.002303951	0.023769434	0.007325971
2020-08-16T15:05:00	0.1267	17.997	0.0	0.271492849	0.240717525	0.002334024	0.024079693	0.007421595
2020-08-16T15:10:00	0.1271	17.997	0.0	0.272223951	0.241974225	0.002350419	0.024248840	0.007473728
2020-08-16T15:15:00	0.1267	18.065	0.0	0.271512803	0.240751780	0.002334470	0.024084300	0.007423015
2020-08-16T15:20:00	0.1266	18.028	0.0	0.271213693	0.240238568	0.002327783	0.024015306	0.007401750
2020-08-16T15:25:00	0.1270	18.000	0.0	0.271944840	0.241494060	0.002344151	0.024184177	0.007453798
2020-08-16T15:30:00	0.1268	17.897	0.0	0.271645758	0.240980084	0.002337447	0.024115008	0.007432480
2020-08-16T15:35:00	0.1264	17.794	0.0	0.270728435	0.239407165	0.002316959	0.023903640	0.007367334
2020-08-16T15:40:00	0.1258	17.713	0.0	0.269604787	0.237487687	0.002292019	0.023646333	0.007288030
2020-08-16T15:45:00	0.1245	17.743	0.0	0.266830986	0.232783376	0.002231181	0.023018682	0.007094581
2020-08-16T15:50:00	0.1246	17.752	0.0	0.267150371	0.233322578	0.002238133	0.023090408	0.007116688
2020-08-16T15:55:00	0.1248	17.719	0.0	0.267469732	0.233862382	0.002245099	0.023162269	0.007138836
2020-08-16T16:00:00	0.1249	17.771	0.0	0.267789070	0.234402788	0.002252077	0.023234267	0.007161027
2020-08-16T16:05:00	0.1245	17.762	0.0	0.266903832	0.232906301	0.002232765	0.023035029	0.007099620
2020-08-16T16:10:00	0.1238	17.740	0.0	0.265399428	0.230374442	0.002200187	0.022698924	0.006996029
2020-08-16T16:15:00	0.1239	17.686	0.0	0.265545494	0.230619641	0.002203337	0.022731420	0.007006044
2020-08-16T16:20:00	0.1234	17.643	0.0	0.264659788	0.229134880	0.002184281	0.022534823	0.006945451
2020-08-16T16:25:00	0.1235	17.616	0.0	0.264805880	0.229379442	0.002187417	0.022567176	0.006955423
2020-08-16T16:30:00	0.1235	17.552	0.0	0.264745597	0.229278511	0.002186122	0.022553823	0.006951307
2020-08-16T16:35:00	0.1232	17.526	0.0	0.264272538	0.228487262	0.002175982	0.022449207	0.006919063
2020-08-16T16:40:00	0.1225	17.486	0.0	0.262767186	0.225978760	0.002143912	0.022118348	0.006817090
2020-08-16T16:45:00	0.1222	17.465	0.0	0.262087397	0.224850643	0.002129529	0.021969957	0.006771354
2020-08-16T16:50:00	0.1218	17.436	0.0	0.261407495	0.223725248	0.002115204	0.021822173	0.006725806
2020-08-16T16:55:00	0.1213	17.424	0.0	0.260314301	0.221921866	0.002092301	0.021585880	0.006652978
2020-08-16T17:00:00	0.1215	17.400	0.0	0.260667134	0.222503094	0.002099676	0.021661967	0.006676429
2020-08-16T17:05:00	0.1220	17.357	0.0	0.261639576	0.224109070	0.002120087	0.021872548	0.006741332
2020-08-16T17:10:00	0.1215	17.323	0.0	0.260753027	0.222644705	0.002101474	0.021680515	0.006682145
2020-08-16T17:15:00	0.1215	17.274	0.0	0.260692685	0.222545214	0.002100210	0.021667483	0.006678129
2020-08-16T17:20:00	0.1213	17.234	0.0	0.260219155	0.221765265	0.002090315	0.021565391	0.006646663
2020-08-16T17:25:00	0.1218	17.198	0.0	0.261398254	0.223709973	0.002115010	0.021820169	0.006725188
2020-08-16T17:30:00	0.1218	17.156	0.0	0.261337921	0.223610253	0.002113742	0.021807086	0.006721156
2020-08-16T17:35:00	0.1219	17.118	0.0	0.261484131	0.223851954	0.002116816	0.021838800	0.006730930
2020-08-16T17:40:00	0.1226	17.091	0.0	0.262869334	0.226148527	0.002146079	0.022140701	0.006823979
2020-08-16T17:45:00	0.1228	17.055	0.0	0.263428391	0.227078827	0.002157961	0.022263290	0.006861762
2020-08-16T17:50:00	0.1233	17.032	0.0	0.264400176	0.228700613	0.002178715	0.022477403	0.006927754
2020-08-16T17:55:00	0.1232	17.005	0.0	0.264133487	0.228254951	0.002173007	0.022418514	0.006909604
2020-08-16T18:00:00	0.1236	16.966	0.0	0.265105107	0.229880777	0.002193849	0.022633534	0.006975875
2020-08-16T18:05:00	0.1238	16.931	0.0	0.265457528	0.230471957	0.002201440	0.022711846	0.007000011
2020-08-16T18:10:00	0.1241	16.897	0.0	0.266016237	0.231410786	0.002213508	0.022836349	0.007038385
2020-08-16T18:15:00	0.1246	16.861	0.0	0.266987423	0.233047400	0.002234584	0.023053796	0.007105404
2020-08-16T18:20:00	0.1254	16.826	0.0	0.268783183	0.236089212	0.002273890	0.023459307	0.007230386
2020-08-16T18:25:00	0.1260	16.786	0.0	0.269959874	0.238093407	0.002299882	0.023727455	0.007313032
2020-08-16T18:30:00	0.1260	16.755	0.0	0.269899664	0.237990642	0.002298547	0.023713687	0.007308789
2020-08-16T18:35:00	0.1265	16.715	0.0	0.271076057	0.240002602	0.002324710	0.023983600	0.007391978
2020-08-16T18:40:00	0.1269	16.675	0.0	0.271840084	0.241313972	0.002341802	0.024159936	0.007446327
2020-08-16T18:45:00	0.1271	16.634	0.0	0.272191959	0.241919164	0.002349700	0.024241423	0.007471442
2020-08-16T18:50:00	0.1275	16.593	0.0	0.273161777	0.243591198	0.002371557	0.024466914	0.007540940
2020-08-16T18:55:00	0.1275	16.555	0.0	0.273101610	0.243487294	0.002370197	0.024452886	0.007536617
2020-08-16T19:00:00	0.1283	16.513	0.0	0.274688999	0.246236247	0.002406236	0.024824688	0.007651210
2020-08-16T19:05:00	0.1286	16.476	0.0	0.275246541	0.247205536	0.002418975	0.024956121	0.007691719
2020-08-16T19:10:00	0.1286	16.434	0.0	0.275392282	0.247459230	0.002422312	0.024990550	0.007702330
2020-08-16T19:15:00	0.1289	16.404	0.0	0.275949740	0.248430843	0.002435104	0.025122517	0.007743004
2020-08-16T19:20:00	0.1295	16.366	0.0	0.277124571	0.250484909	0.002462201	0.025402077	0.007829167
2020-08-16T19:25:00	0.1295	16.337	0.0	0.277270254	0.250740226	0.002465575	0.025436880	0.007839894
2020-08-16T19:30:00	0.1298	16.304	0.0	0.277827489	0.251718043	0.002478505	0.025570279	0.007881008
2020-08-16T19:35:00	0.1305	16.271	0.0	0.279207570	0.254148188	0.002510713	0.025902566	0.007983422
2020-08-16T19:40:00	0.1308	16.234	0.0	0.279764580	0.255132409	0.002523787	0.026037449	0.008024995
2020-08-16T19:45:00	0.1311	16.197	0.0	0.280527184	0.256483082	0.002541757	0.026222837	0.008082133
2020-08-16T19:50:00	0.1305	16.161	0.0	0.279233013	0.254193102	0.002511310	0.025908717	0.007985318
2020-08-16T19:55:00	0.1304	16.122	0.0	0.278967208	0.253724078	0.002505085	0.025844498	0.007965525
2020-08-16T20:00:00	0.1306	16.072	0.0	0.279524245	0.254707504	0.002518141	0.025979196	0.008007041
2020-08-16T20:05:00	0.1306	16.032	0.0	0.279464159	0.254601332	0.002516731	0.025964645	0.008002556
2020-08-16T20:10:00	0.1308	16.007	0.0	0.279815459	0.255222410	0.002524984	0.026049792	0.008028799
2020-08-16T20:15:00	0.1310	15.962	0.0	0.280166734	0.255844221	0.002533253	0.026135108	0.008055094
2020-08-16T20:20:00	0.1316	15.935	0.0	0.281546148	0.258293523	0.002565893	0.026471846	0.008158880
2020-08-16T20:25:00	0.1319	15.895	0.0	0.282102891	0.259285479	0.002579142	0.026608529	0.008201007
2020-08-16T20:30:00	0.1316	15.843	0.0	0.281426026	0.258079757	0.002563040	0.026442413	0.008149809
2020-08-16T20:35:00	0.1317	15.798	0.0	0.281777185	0.258704927	0.002571386	0.026528512	0.008176345
2020-08-16T20:40:00	0.1329	15.767	0.0	0.284183769	0.263010297	0.002629042	0.027123345	0.008359678
2020-08-16T20:45:00	0.1323	15.724	0.0	0.282890556	0.260692208	0.002597959	0.026802666	0.008260842
2020-08-16T20:50:00	0.1314	15.646	0.0	0.281185773	0.257652481	0.002557340	0.026383609	0.008131685
2020-08-16T20:55:00	0.1317	15.638	0.0	0.281742557	0.258643244	0.002570562	0.026520014	0.008173726
2020-08-16T21:00:00	0.1318	15.602	0.0	0.281888100	0.258902552	0.002574025	0.026555744	0.008184738
2020-08-16T21:05:00	0.1325	15.564	0.0	0.283267034	0.261365958	0.002606984	0.026895773	0.008289538
2020-08-16T21:10:00	0.1327	15.531	0.0	0.283823584	0.262363606	0.002620362	0.027033787	0.008332076
2020-08-16T21:15:00	0.1324	15.495	0.0	0.283146953	0.261150963	0.002604103	0.026866053	0.008280379
2020-08-16T21:20:00	0.1330	15.473	0.0	0.284320047	0.263255191	0.002632331	0.027157278	0.008370137
2020-08-16T21:25:00	0.1328	15.444	0.0	0.284054516	0.262778137	0.002625925	0.027091185	0.008349766
2020-08-16T21:30:00	0.1329	15.403	0.0	0.284199992	0.263039445	0.002629434	0.027127383	0.008360923
2020-08-16T21:35:00	0.1323	15.364	0.0	0.282906784	0.260721230	0.002598348	0.026806675	0.008262078
2020-08-16T21:40:00	0.1324	15.319	0.0	0.283052293	0.260981545	0.002601834	0.026842640	0.008273162
2020-08-16T21:45:00	0.1318	15.275	0.0	0.281964387	0.259038521	0.002575842	0.026574484	0.008190514
2020-08-16T21:50:00	0.1316	15.226	0.0	0.281493121	0.258199146	0.002564633	0.026458850	0.008154875
2020-08-16T21:55:00	0.1313	15.217	0.0	0.280816172	0.256995876	0.002548587	0.026293307	0.008103853
2020-08-16T22:00:00	0.1311	15.187	0.0	0.280550453	0.256524353	0.002542306	0.026228507	0.008083880
2020-08-16T22:05:00	0.1306	15.138	0.0	0.279401906	0.254491353	0.002515270	0.025949575	0.007997911
2020-08-16T22:10:00	0.1304	15.103	0.0	0.279076020	0.253916028	0.002507632	0.025870775	0.007973624
2020-08-16T22:15:00	0.1305	15.082	0.0	0.279161554	0.254066965	0.002509635	0.025891443	0.007979994
2020-08-16T22:20:00	0.1310	15.047	0.0	0.280275519	0.256036946	0.002535818	0.026161565	0.008063249
2020-08-16T22:25:00	0.1311	15.035	0.0	0.280566688	0.256553150	0.002542690	0.026232463	0.008085100
2020-08-16T22:30:00	0.1307	15.024	0.0	0.279623842	0.254883545	0.002520480	0.026003327	0.008014478
2020-08-16T22:35:00	0.1309	15.004	0.0	0.280120726	0.255762736	0.002532169	0.026123924	0.008051647
2020-08-16T22:40:00	0.1304	14.993	0.0	0.278972077	0.253732667	0.002505199	0.025845673	0.007965888
2020-08-16T22:45:00	0.1304	14.959	0.0	0.279057613	0.253883551	0.002507201	0.025866329	0.007972254
2020-08-16T22:50:00	0.1302	14.921	0.0	0.278525968	0.252946475	0.002494773	0.025738115	0.007932737
2020-08-16T22:55:00	0.1303	14.900	0.0	0.278817243	0.253459655	0.002501577	0.025808310	0.007954372
2020-08-16T23:00:00	0.1299	14.877	0.0	0.278079817	0.252161464	0.002484374	0.025630830	0.007899671
2020-08-16T23:05:00	0.1380	15.114	0.0	0.294598859	0.282063730	0.002887974	0.029794694	0.009183014
2020-08-16T23:10:00	0.1350	15.014	0.0	0.288527770	0.270874116	0.002735171	0.028218260	0.008697142
2020-08-16T23:15:00	0.1344	14.923	0.0	0.287175660	0.268413681	0.002701853	0.027874519	0.008591197
2020-08-16T23:20:00	0.1339	14.876	0.0	0.286234055	0.266707050	0.002678802	0.027636710	0.008517902
2020-08-16T23:25:00	0.1338	14.855	0.0	0.286114045	0.266489936	0.002675873	0.027606493	0.008508589
2020-08-16T23:30:00	0.1342	14.837	0.0	0.286815686	0.267760580	0.002693026	0.027783453	0.008563130
2020-08-16T23:35:00	0.1342	14.815	0.0	0.286901087	0.267915449	0.002695118	0.027805041	0.008569784
2020-08-16T23:40:00	0.1333	14.814	0.0	0.284932173	0.264356631	0.002647138	0.027310030	0.008417217
2020-08-16T23:45:00	0.1336	14.814	0.0	0.285633976	0.265622339	0.002664177	0.027485828	0.008471399
2020-08-16T23:50:00	0.1333	14.793	0.0	0.284897567	0.264294299	0.002646299	0.027301380	0.008414550
2020-08-16T23:55:00	0.1321	14.736	0.0	0.282516752	0.260024125	0.002589018	0.026710423	0.008232412
2020-08-17T00:00:00	0.1317	14.739	0.0	0.281779886	0.258709739	0.002571450	0.026529175	0.008176549
2020-08-17T00:05:00	0.1315	14.739	0.0	0.281248539	0.257764071	0.002558829	0.026398964	0.008136417
2020-08-17T00:10:00	0.1314	14.685	0.0	0.281128410	0.257550517	0.002555981	0.026369581	0.008127361
2020-08-17T00:15:00	0.1313	14.654	0.0	0.280802639	0.256971852	0.002548267	0.026290004	0.008102835
2020-08-17T00:20:00	0.1307	14.655	0.0	0.279654152	0.254937131	0.002521192	0.026010673	0.008016742
2020-08-17T00:25:00	0.1311	14.643	0.0	0.280562356	0.256545465	0.002542588	0.026231407	0.008084774
2020-08-17T00:30:00	0.1312	14.628	0.0	0.280647863	0.256697158	0.002544608	0.026252250	0.008091198
2020-08-17T00:35:00	0.1314	14.611	0.0	0.281144643	0.257579370	0.002556365	0.026373550	0.008128584
2020-08-17T00:40:00	0.1315	14.593	0.0	0.281230140	0.257731358	0.002558392	0.026394462	0.008135030
2020-08-17T00:45:00	0.1320	14.603	0.0	0.282343635	0.259715019	0.002584884	0.026667771	0.008219266
2020-08-17T00:50:00	0.1323	14.578	0.0	0.282840244	0.260602236	0.002596755	0.026790239	0.008257012
2020-08-17T00:55:00	0.1324	14.573	0.0	0.283131262	0.261122876	0.002603727	0.026862171	0.008279182
2020-08-17T01:00:00	0.1318	14.562	0.0	0.281983318	0.259072270	0.002576293	0.026579136	0.008191948
2020-08-17T01:05:00	0.1322	14.561	0.0	0.282685532	0.260325668	0.002593053	0.026752047	0.008245241
2020-08-17T01:10:00	0.1326	14.550	0.0	0.283593178	0.261950353	0.002614818	0.026976596	0.008314449
2020-08-17T01:15:00	0.1319	14.523	0.0	0.282034175	0.259162940	0.002577504	0.026591635	0.008195800
2020-08-17T01:20:00	0.1317	14.515	0.0	0.281708464	0.258582522	0.002569751	0.026511649	0.008171148
2020-08-17T01:25:00	0.1313	14.473	0.0	0.280971478	0.257271676	0.002552263	0.026331228	0.008115540
2020-08-17T01:30:00	0.1305	14.473	0.0	0.279205939	0.254145309	0.002510675	0.025902172	0.007983301
2020-08-17T01:35:00	0.1300	14.472	0.0	0.278262827	0.252483321	0.002488636	0.025674804	0.007913224
2020-08-17T01:40:00	0.1305	14.430	0.0	0.279171293	0.254084155	0.002509863	0.025893797	0.007980720
2020-08-17T01:45:00	0.1298	14.397	0.0	0.277816652	0.251699008	0.002478253	0.025567680	0.007880207
2020-08-17T01:50:00	0.1302	14.371	0.0	0.278519467	0.252935027	0.002494621	0.025736550	0.007932255
2020-08-17T01:55:00	0.1296	14.370	0.0	0.277370434	0.250915875	0.002467896	0.025460830	0.007847275
2020-08-17T02:00:00	0.1301	14.340	0.0	0.278484816	0.252874014	0.002493813	0.025728207	0.007929683
2020-08-17T02:05:00	0.1302	14.336	0.0	0.278570360	0.253024651	0.002495809	0.025748805	0.007936032
2020-08-17T02:10:00	0.1301	14.357	0.0	0.278450164	0.252813008	0.002493004	0.025719867	0.007927113
2020-08-17T02:15:00	0.1305	14.325	0.0	0.279152886	0.254051668	0.002509432	0.025889348	0.007979348
2020-08-17T02:20:00	0.1303	14.321	0.0	0.278826983	0.253476824	0.002501805	0.025810660	0.007955096
2020-08-17T02:25:00	0.1302	14.297	0.0	0.278706794	0.253264998	0.002498996	0.025781679	0.007946164
2020-08-17T02:30:00	0.1305	14.300	0.0	0.279203772	0.254141484	0.002510624	0.025901648	0.007983139
2020-08-17T02:35:00	0.1296	14.264	0.0	0.277437585	0.251033647	0.002469453	0.025476892	0.007852226
2020-08-17T02:40:00	0.1293	14.247	0.0	0.276699945	0.249741493	0.002452385	0.025300808	0.007797955
2020-08-17T02:45:00	0.1290	14.241	0.0	0.276168036	0.248811853	0.002440124	0.025174314	0.007758968
2020-08-17T02:50:00	0.1292	14.245	0.0	0.276459456	0.249320959	0.002446837	0.025243568	0.007780313
2020-08-17T02:55:00	0.1293	14.225	0.0	0.276750858	0.249830568	0.002453561	0.025312937	0.007801693
2020-08-17T03:00:00	0.1297	14.217	0.0	0.277659612	0.251423253	0.002474605	0.025530044	0.007868607
2020-08-17T03:05:00	0.1305	14.216	0.0	0.279185366	0.254108994	0.002510193	0.025897198	0.007981768
2020-08-17T03:10:00	0.1298	14.205	0.0	0.277830729	0.251723734	0.002478580	0.025571056	0.007881248
2020-08-17T03:15:00	0.1296	14.217	0.0	0.277298947	0.250790528	0.002466240	0.025443738	0.007842007
2020-08-17T03:20:00	0.1293	14.206	0.0	0.276767106	0.249858999	0.002453936	0.025316808	0.007802886
2020-08-17T03:25:00	0.1291	14.204	0.0	0.276441039	0.249288769	0.002446413	0.025239187	0.007778963
2020-08-17T03:30:00	0.1295	14.181	0.0	0.277144058	0.250519053	0.002462652	0.025406731	0.007830601
2020-08-17T03:35:00	0.1295	14.177	0.0	0.277229626	0.250669010	0.002464634	0.025427171	0.007836901
2020-08-17T03:40:00	0.1292	14.172	0.0	0.276491954	0.249377766	0.002447586	0.025251298	0.007782695
2020-08-17T03:45:00	0.1291	14.163	0.0	0.276371706	0.249167604	0.002444815	0.025222702	0.007773882
2020-08-17T03:50:00	0.1290	14.158	0.0	0.276251454	0.248957528	0.002442045	0.025194126	0.007765074
2020-08-17T03:55:00	0.1297	14.157	0.0	0.277571884	0.251269273	0.002472569	0.025509034	0.007862132
2020-08-17T04:00:00	0.1297	14.146	0.0	0.277657445	0.251419448	0.002474555	0.025529525	0.007868447
2020-08-17T04:05:00	0.1294	14.138	0.0	0.276948977	0.250177349	0.002458139	0.025360169	0.007816250
2020-08-17T04:10:00	0.1293	14.098	0.0	0.276857879	0.250017864	0.002456033	0.025338444	0.007809555
2020-08-17T04:15:00	0.1294	14.119	0.0	0.276972591	0.250218698	0.002458685	0.025365802	0.007817987
2020-08-17T04:20:00	0.1299	14.104	0.0	0.277910435	0.251863761	0.002480433	0.025590174	0.007887140
2020-08-17T04:25:00	0.1297	14.109	0.0	0.277613581	0.251342453	0.002473536	0.025519018	0.007865209
2020-08-17T04:30:00	0.1296	14.110	0.0	0.277316708	0.250821667	0.002466651	0.025447984	0.007843316
2020-08-17T04:35:00	0.1295	14.103	0.0	0.277225617	0.250661983	0.002464541	0.025426214	0.007836606
2020-08-17T04:40:00	0.1296	14.109	0.0	0.277340320	0.250863067	0.002467198	0.025453629	0.007845056
2020-08-17T04:45:00	0.1304	14.123	0.0	0.279101021	0.253960141	0.002508217	0.025876815	0.007975486
2020-08-17T04:50:00	0.1308	14.124	0.0	0.279832768	0.255253032	0.002525391	0.026053992	0.008030093
2020-08-17T04:55:00	0.1311	14.131	0.0	0.280564406	0.256549101	0.002542636	0.026231907	0.008084928
2020-08-17T05:00:00	0.1308	14.115	0.0	0.279856368	0.255294784	0.002525946	0.026059718	0.008031858
2020-08-17T05:05:00	0.1310	14.134	0.0	0.280176681	0.255861840	0.002533488	0.026137527	0.008055840
2020-08-17T05:10:00	0.1313	14.130	0.0	0.280908266	0.257159403	0.002550767	0.026315789	0.008110782
2020-08-17T05:15:00	0.1313	14.132	0.0	0.280817243	0.256997778	0.002548613	0.026293568	0.008103933
2020-08-17T05:20:00	0.1314	14.135	0.0	0.281137493	0.257566661	0.002556196	0.026371802	0.008128045
2020-08-17T05:25:00	0.1313	14.134	0.0	0.280840838	0.257039669	0.002549171	0.026299327	0.008105708
2020-08-17T05:30:00	0.1313	14.137	0.0	0.280955454	0.257243213	0.002551884	0.026327314	0.008114334
2020-08-17T05:35:00	0.1316	14.145	0.0	0.281481313	0.258178133	0.002564353	0.026455957	0.008153983
2020-08-17T05:40:00	0.1317	14.171	0.0	0.281801520	0.258748280	0.002571965	0.026534485	0.008178186
2020-08-17T05:45:00	0.1320	14.187	0.0	0.282327289	0.259685844	0.002584494	0.026663746	0.008218025
2020-08-17T05:50:00	0.1315	14.218	0.0	0.281208271	0.257692477	0.002557874	0.026389112	0.008133381
2020-08-17T05:55:00	0.1323	14.256	0.0	0.282967572	0.260829964	0.002599804	0.026821696	0.008266707
2020-08-17T06:00:00	0.1322	14.292	0.0	0.282671027	0.260299746	0.002592706	0.026748468	0.008244138
2020-08-17T06:05:00	0.1324	14.328	0.0	0.283196704	0.261240027	0.002605297	0.026878364	0.008284173
2020-08-17T06:10:00	0.1325	14.365	0.0	0.283311266	0.261445175	0.002608046	0.026906725	0.008292914
2020-08-17T06:15:00	0.1318	14.400	0.0	0.281986881	0.259078621	0.002576377	0.026580011	0.008192218
2020-08-17T06:20:00	0.1317	14.431	0.0	0.281690277	0.258550132	0.002569319	0.026507187	0.008169773
2020-08-17T06:25:00	0.1322	14.470	0.0	0.282832770	0.260588872	0.002596576	0.026788393	0.008256443
2020-08-17T06:30:00	0.1320	14.489	0.0	0.282330642	0.259691828	0.002584574	0.026664571	0.008218280
2020-08-17T06:35:00	0.1324	14.523	0.0	0.283061908	0.260998751	0.002602064	0.026845018	0.008273895
2020-08-17T06:40:00	0.1317	14.533	0.0	0.281737457	0.258634160	0.002570441	0.026518763	0.008173340
2020-08-17T06:45:00	0.1314	14.529	0.0	0.281029589	0.257374911	0.002553639	0.026345426	0.008119916
2020-08-17T06:50:00	0.1316	14.578	0.0	0.281555440	0.258310063	0.002566114	0.026474123	0.008159582
2020-08-17T06:55:00	0.1310	14.650	0.0	0.280230584	0.255957330	0.002534758	0.026150635	0.008059880
2020-08-17T07:00:00	0.1311	14.723	0.0	0.280550873	0.256525097	0.002542316	0.026228609	0.008083912
2020-08-17T07:05:00	0.1300	14.781	0.0	0.278197086	0.252367679	0.002487105	0.025659002	0.007908354
2020-08-17T07:10:00	0.1307	14.766	0.0	0.279546098	0.254746125	0.002518654	0.025984490	0.008008672
2020-08-17T07:15:00	0.1300	14.789	0.0	0.278220693	0.252409203	0.002487655	0.025664676	0.007910102
2020-08-17T07:20:00	0.1300	14.860	0.0	0.278129620	0.252249030	0.002485534	0.025642792	0.007903358
2020-08-17T07:25:00	0.1299	14.956	0.0	0.278038544	0.252088907	0.002483414	0.025620920	0.007896616
2020-08-17T07:30:00	0.1300	15.030	0.0	0.278153227	0.252290544	0.002486083	0.025648464	0.007905106
2020-08-17T07:35:00	0.1300	15.098	0.0	0.278267907	0.252492259	0.002488755	0.025676025	0.007913600
2020-08-17T07:40:00	0.1301	15.178	0.0	0.278382585	0.252694052	0.002491428	0.025703605	0.007922101
2020-08-17T07:45:00	0.1305	15.288	0.0	0.279320151	0.254346959	0.002513352	0.025929792	0.007991814
2020-08-17T07:50:00	0.1309	15.367	0.0	0.280051866	0.255640801	0.002530547	0.026107190	0.008046489
2020-08-17T07:55:00	0.1311	15.445	0.0	0.280372166	0.256208229	0.002538098	0.026185085	0.008070497
2020-08-17T08:00:00	0.1319	15.606	0.0	0.282131765	0.259336977	0.002579830	0.026615630	0.008203196
2020-08-17T08:05:00	0.1316	15.706	0.0	0.281423953	0.258076069	0.002562991	0.026441906	0.008149652
2020-08-17T08:10:00	0.1327	15.970	0.0	0.283799771	0.262320880	0.002619788	0.027027873	0.008330253
2020-08-17T08:15:00	0.1330	15.965	0.0	0.284325331	0.263264688	0.002632459	0.027158595	0.008370543
2020-08-17T08:20:00	0.1325	15.947	0.0	0.283412300	0.261626167	0.002610471	0.026931753	0.008300628
2020-08-17T08:25:00	0.1330	16.048	0.0	0.284348908	0.263307070	0.002633028	0.027164468	0.008372353
2020-08-17T08:30:00	0.1333	16.179	0.0	0.285079881	0.264622767	0.002650718	0.027346971	0.008428602
2020-08-17T08:35:00	0.1332	16.368	0.0	0.284783460	0.264088824	0.002643536	0.027272870	0.008405763
2020-08-17T08:40:00	0.1344	16.544	0.0	0.287157701	0.268381079	0.002701412	0.027869971	0.008589796
2020-08-17T08:45:00	0.1349	16.601	0.0	0.288298969	0.270456958	0.002729515	0.028159906	0.008679156
2020-08-17T08:50:00	0.1346	16.662	0.0	0.287592015	0.269170096	0.002712085	0.027980083	0.008623733
2020-08-17T08:55:00	0.1343	16.561	0.0	0.287090356	0.268258841	0.002699760	0.027852922	0.008584541
2020-08-17T09:00:00	0.1340	16.605	0.0	0.286383238	0.266977067	0.002682446	0.027674301	0.008529488
2020-08-17T09:05:00	0.1334	16.683	0.0	0.285265121	0.264956720	0.002655213	0.027393343	0.008442894
2020-08-17T09:10:00	0.1346	17.307	0.0	0.287639141	0.269255780	0.002713245	0.027992048	0.008627421
2020-08-17T09:15:00	0.1345	17.087	0.0	0.287548239	0.269090513	0.002711008	0.027968972	0.008620309
2020-08-17T09:20:00	0.1338	16.903	0.0	0.286019533	0.266319017	0.002673568	0.027582711	0.008501259
2020-08-17T09:25:00	0.1351	17.570	0.0	0.288598538	0.271003211	0.002736922	0.028236325	0.008702709
2020-08-17T09:30:00	0.1343	17.236	0.0	0.287070141	0.268222153	0.002699264	0.027847805	0.008582964
2020-08-17T09:35:00	0.1330	17.086	0.0	0.284308456	0.263234357	0.002632052	0.027154391	0.008369247
2020-08-17T09:40:00	0.1320	17.080	0.0	0.282367641	0.259757872	0.002585457	0.026673683	0.008221088
2020-08-17T09:45:00	0.1320	17.061	0.0	0.282276645	0.259595458	0.002583285	0.026651278	0.008214183
2020-08-17T09:50:00	0.1318	17.111	0.0	0.281980058	0.259066458	0.002576215	0.026578335	0.008191701
2020-08-17T09:55:00	0.1315	17.131	0.0	0.281272225	0.257806188	0.002559390	0.026404759	0.008138203
2020-08-17T10:00:00	0.1317	17.243	0.0	0.281798050	0.258742098	0.002571882	0.026533634	0.008177924
2020-08-17T10:05:00	0.1314	17.356	0.0	0.281004691	0.257330677	0.002553050	0.026339342	0.008118041
2020-08-17T10:10:00	0.1321	17.428	0.0	0.282473025	0.259946031	0.002587973	0.026699645	0.008229090
2020-08-17T10:15:00	0.1314	17.392	0.0	0.281062917	0.257434129	0.002554429	0.026353571	0.008122426
2020-08-17T10:20:00	0.1312	17.411	0.0	0.280680752	0.256755516	0.002545385	0.026260270	0.008093670
2020-08-17T10:25:00	0.1309	17.526	0.0	0.280092889	0.255713439	0.002531514	0.026117158	0.008049562
2020-08-17T10:30:00	0.1316	17.569	0.0	0.281561495	0.258320841	0.002566258	0.026475607	0.008160039
2020-08-17T10:35:00	0.1314	17.578	0.0	0.281179369	0.257641095	0.002557189	0.026382043	0.008131202
2020-08-17T10:40:00	0.1319	17.600	0.0	0.282030915	0.259157128	0.002577426	0.026590833	0.008195553
2020-08-17T10:45:00	0.1320	17.515	0.0	0.282265608	0.259575762	0.002583022	0.026648561	0.008213345
2020-08-17T10:50:00	0.1314	17.602	0.0	0.281061078	0.257430860	0.002554385	0.026353121	0.008122288
2020-08-17T10:55:00	0.1321	17.739	0.0	0.282529395	0.260046706	0.002589320	0.026713539	0.008233372
2020-08-17T11:00:00	0.1322	17.830	0.0	0.282764064	0.260466036	0.002594931	0.026771429	0.008251214
2020-08-17T11:05:00	0.1316	17.779	0.0	0.281559655	0.258317566	0.002566214	0.026475156	0.008159900
2020-08-17T11:10:00	0.1322	17.788	0.0	0.282822270	0.260570097	0.002596324	0.026785800	0.008255644
2020-08-17T11:15:00	0.1315	17.776	0.0	0.281206641	0.257689579	0.002557835	0.026388713	0.008133258
2020-08-17T11:20:00	0.1307	17.854	0.0	0.279590480	0.254824570	0.002519696	0.025995242	0.008011986
2020-08-17T11:25:00	0.1302	17.952	0.0	0.278591029	0.253061055	0.002496292	0.025753784	0.007937566
2020-08-17T11:30:00	0.1302	18.015	0.0	0.278620157	0.253112362	0.002496972	0.025760801	0.007939729
2020-08-17T11:35:00	0.1293	18.001	0.0	0.276797317	0.249911867	0.002454634	0.025324008	0.007805105
2020-08-17T11:40:00	0.1286	18.082	0.0	0.275385543	0.247447497	0.002422158	0.024988957	0.007701839
2020-08-17T11:45:00	0.1295	18.025	0.0	0.277267201	0.250734873	0.002465504	0.025436150	0.007839669
2020-08-17T11:50:00	0.1287	18.106	0.0	0.275443838	0.247549007	0.002423494	0.025002736	0.007706086
2020-08-17T11:55:00	0.1295	18.158	0.0	0.277119676	0.250476333	0.002462088	0.025400909	0.007828807
2020-08-17T12:00:00	0.1299	18.466	0.0	0.277971938	0.251971837	0.002481864	0.025604931	0.007891689
2020-08-17T12:05:00	0.1302	18.564	0.0	0.278618316	0.253109119	0.002496929	0.025760357	0.007939592
2020-08-17T12:10:00	0.1292	18.464	0.0	0.276589657	0.249548590	0.002449840	0.025274548	0.007789861
2020-08-17T12:15:00	0.1286	18.394	0.0	0.275383701	0.247444289	0.002422116	0.024988522	0.007701705
2020-08-17T12:20:00	0.1274	18.363	0.0	0.272941681	0.243211218	0.002366585	0.024415624	0.007525132
2020-08-17T12:25:00	0.1273	18.361	0.0	0.272558856	0.242551023	0.002357954	0.024326574	0.007497686
2020-08-17T12:30:00	0.1275	18.249	0.0	0.273000008	0.243311884	0.002367902	0.024429209	0.007529320
2020-08-17T12:35:00	0.1276	18.070	0.0	0.273235148	0.243717936	0.002373215	0.024484027	0.007546215
2020-08-17T12:40:00	0.1273	17.980	0.0	0.272646353	0.242701832	0.002359925	0.024346909	0.007503954
2020-08-17T12:45:00	0.1269	17.917	0.0	0.271851449	0.241333506	0.002342056	0.024162565	0.007447137
2020-08-17T12:50:00	0.1269	17.853	0.0	0.271880619	0.241383649	0.002342711	0.024169314	0.007449217
2020-08-17T12:55:00	0.1270	17.799	0.0	0.272115818	0.241788142	0.002347990	0.024223776	0.007466003
2020-08-17T13:00:00	0.1260	17.741	0.0	0.269878162	0.237953949	0.002298071	0.023708772	0.007307274
2020-08-17T13:05:00	0.1251	17.713	0.0	0.268051815	0.234847905	0.002257830	0.023293612	0.007179317
2020-08-17T13:10:00	0.1240	17.763	0.0	0.265812070	0.231067484	0.002209093	0.022790802	0.007024347
2020-08-17T13:15:00	0.1240	17.787	0.0	0.265841280	0.231116585	0.002209724	0.022797315	0.007026354
2020-08-17T13:20:00	0.1242	17.843	0.0	0.266283110	0.231859920	0.002219287	0.022895971	0.007056761
2020-08-17T13:25:00	0.1236	17.952	0.0	0.265074348	0.229829217	0.002193187	0.022626707	0.006973771
2020-08-17T13:30:00	0.1236	18.014	0.0	0.265103564	0.229878191	0.002193816	0.022633191	0.006975769
2020-08-17T13:35:00	0.1236	18.086	0.0	0.264926419	0.229581330	0.002190006	0.022593893	0.006963657
2020-08-17T13:40:00	0.1227	18.055	0.0	0.263097942	0.226528704	0.002150933	0.022190778	0.006839413
2020-08-17T13:45:00	0.1225	18.071	0.0	0.262714241	0.225890791	0.002142790	0.022106768	0.006813521
2020-08-17T13:50:00	0.1218	18.093	0.0	0.261297894	0.223544107	0.002112901	0.021798410	0.006718482
2020-08-17T13:55:00	0.1222	18.050	0.0	0.262153239	0.224959780	0.002130919	0.021984302	0.006775775
2020-08-17T14:00:00	0.1220	17.936	0.0	0.261769448	0.224324002	0.002122823	0.021900769	0.006750030
2020-08-17T14:05:00	0.1226	17.918	0.0	0.263037635	0.226428380	0.002149652	0.022177560	0.006835339
2020-08-17T14:10:00	0.1224	17.900	0.0	0.262447443	0.225447779	0.002137139	0.022048472	0.006795553
2020-08-17T14:15:00	0.1224	17.945	0.0	0.262476677	0.225496301	0.002137758	0.022054855	0.006797521
2020-08-17T14:20:00	0.1222	17.985	0.0	0.262092917	0.224859792	0.002129645	0.021971159	0.006771725
2020-08-17T14:25:00	0.1224	17.981	0.0	0.262535146	0.225593358	0.002138996	0.022067625	0.006801456
2020-08-17T14:30:00	0.1226	17.937	0.0	0.262977326	0.226328077	0.002148371	0.022164347	0.006831267
2020-08-17T14:35:00	0.1225	17.903	0.0	0.262800090	0.226033437	0.002144610	0.022125547	0.006819308
2020-08-17T14:40:00	0.1229	17.876	0.0	0.263655121	0.227456678	0.002162792	0.022313129	0.006877123
2020-08-17T14:45:00	0.1242	17.908	0.0	0.266160740	0.231653921	0.002216636	0.022868620	0.007048331
2020-08-17T14:50:00	0.1254	17.957	0.0	0.268664878	0.235888191	0.002271287	0.023432454	0.007222110
2020-08-17T14:55:00	0.1262	17.932	0.0	0.270343226	0.238748234	0.002308390	0.023815231	0.007340086
2020-08-17T15:00:00	0.1259	17.876	0.0	0.269754049	0.237742207	0.002295322	0.023680412	0.007298533
2020-08-17T15:05:00	0.1260	17.817	0.0	0.269989361	0.238143741	0.002300535	0.023734199	0.007315111
2020-08-17T15:10:00	0.1257	17.763	0.0	0.269400136	0.237138947	0.002287495	0.023599660	0.007273644
2020-08-17T15:15:00	0.1259	17.739	0.0	0.269841601	0.237891564	0.002297261	0.023700415	0.007304698
2020-08-17T15:20:00	0.1260	17.663	0.0	0.269870784	0.237941360	0.002297907	0.023707085	0.007306754
2020-08-17T15:25:00	0.1258	17.655	0.0	0.269487695	0.237288121	0.002289429	0.023619622	0.007279797
2020-08-17T15:30:00	0.1256	17.647	0.0	0.269104572	0.236635750	0.002280971	0.023532355	0.007252900
2020-08-17T15:35:00	0.1259	17.573	0.0	0.269752205	0.237739061	0.002295281	0.023679990	0.007298403
2020-08-17T15:40:00	0.1263	17.520	0.0	0.270605841	0.239197355	0.002314230	0.023875481	0.007358655
2020-08-17T15:45:00	0.1293	17.498	0.0	0.276813565	0.249940302	0.002455010	0.025327880	0.007806299
2020-08-17T15:50:00	0.1282	17.584	0.0	0.274578219	0.246043890	0.002403709	0.024798626	0.007643177
2020-08-17T15:55:00	0.1297	17.557	0.0	0.277489235	0.251124254	0.002470651	0.025489250	0.007856035
2020-08-17T16:00:00	0.1289	17.564	0.0	0.275871819	0.248294914	0.002433313	0.025104044	0.007737310
2020-08-17T16:05:00	0.1287	17.591	0.0	0.275432785	0.247529759	0.002423240	0.025000124	0.007705281
2020-08-17T16:10:00	0.1291	17.564	0.0	0.276434744	0.249277767	0.002446267	0.025237691	0.007778501
2020-08-17T16:15:00	0.1286	17.517	0.0	0.275378174	0.247434667	0.002421989	0.024987216	0.007701303
2020-08-17T16:20:00	0.1281	17.500	0.0	0.274321363	0.245598184	0.002397858	0.024738264	0.007624573
2020-08-17T16:25:00	0.1282	17.529	0.0	0.274499972	0.245908069	0.002401926	0.024780228	0.007637507
2020-08-17T16:30:00	0.1282	17.528	0.0	0.274472661	0.245860671	0.002401304	0.024773808	0.007635528
2020-08-17T16:35:00	0.1280	17.491	0.0	0.274033495	0.245099157	0.002391312	0.024670724	0.007603757
2020-08-17T16:40:00	0.1273	17.532	0.0	0.272564386	0.242560553	0.002358078	0.024327859	0.007498082
2020-08-17T16:45:00	0.1278	17.518	0.0	0.273772923	0.244647900	0.002385396	0.024609689	0.007584945
2020-08-17T16:50:00	0.1267	17.514	0.0	0.271479593	0.240694770	0.002333727	0.024076633	0.007420652
2020-08-17T16:55:00	0.1263	17.494	0.0	0.270627970	0.239235220	0.002314722	0.023880562	0.007360221
2020-08-17T17:00:00	0.1266	17.435	0.0	0.271218874	0.240247453	0.002327898	0.024016500	0.007402118
2020-08-17T17:05:00	0.1274	17.412	0.0	0.272839772	0.243035382	0.002364286	0.024391898	0.007517820
2020-08-17T17:10:00	0.1273	17.355	0.0	0.272606454	0.242633058	0.002359026	0.024337635	0.007501095
2020-08-17T17:15:00	0.1273	17.328	0.0	0.272579132	0.242585967	0.002358410	0.024331286	0.007499139
2020-08-17T17:20:00	0.1264	17.336	0.0	0.270697390	0.239354025	0.002316268	0.023896507	0.007365136
2020-08-17T17:25:00	0.1256	17.294	0.0	0.269227185	0.236844432	0.002283676	0.023560261	0.007261501
2020-08-17T17:30:00	0.1247	17.235	0.0	0.267344009	0.233649800	0.002242355	0.023133963	0.007130112
2020-08-17T17:35:00	0.1244	17.175	0.0	0.266697861	0.232558818	0.002228287	0.022988827	0.007085380
2020-08-17T17:40:00	0.1239	17.157	0.0	0.265638974	0.230776635	0.002205354	0.022752232	0.007012459
2020-08-17T17:45:00	0.1242	17.112	0.0	0.266230559	0.231771444	0.002218148	0.022884223	0.007053140
2020-08-17T17:50:00	0.1234	17.053	0.0	0.264552448	0.228955275	0.002181979	0.022511071	0.006938131
2020-08-17T17:55:00	0.1233	17.021	0.0	0.264318684	0.228564385	0.002176970	0.022459398	0.006922205
2020-08-17T18:00:00	0.1238	16.967	0.0	0.265529509	0.230592801	0.002202992	0.022727862	0.007004948
2020-08-17T18:05:00	0.1238	16.966	0.0	0.265502143	0.230546853	0.002202402	0.022721772	0.007003071
2020-08-17T18:10:00	0.1237	16.919	0.0	0.265268432	0.230154654	0.002197365	0.022669805	0.006987054
2020-08-17T18:15:00	0.1228	16.909	0.0	0.263383497	0.227004048	0.002157006	0.022253430	0.006858723
2020-08-17T18:20:00	0.1233	16.876	0.0	0.264388207	0.228680602	0.002178459	0.022474758	0.006926939
2020-08-17T18:25:00	0.1233	16.855	0.0	0.264360833	0.228634839	0.002177873	0.022468709	0.006925074
2020-08-17T18:30:00	0.1238	16.818	0.0	0.265365306	0.230317182	0.002199452	0.022691337	0.006993690
2020-08-17T18:35:00	0.1245	16.773	0.0	0.266782111	0.232700918	0.002230118	0.023007718	0.007091202
2020-08-17T18:40:00	0.1252	16.753	0.0	0.268404646	0.235446323	0.002265569	0.023373455	0.007203926
2020-08-17T18:45:00	0.1256	16.748	0.0	0.269202014	0.236801584	0.002283120	0.023554530	0.007259735
2020-08-17T18:50:00	0.1265	16.715	0.0	0.271029726	0.239923199	0.002323676	0.023972933	0.007388691
2020-08-17T18:55:00	0.1271	16.697	0.0	0.272238674	0.241999569	0.002350750	0.024252255	0.007474780
2020-08-17T19:00:00	0.1284	16.709	0.0	0.274888815	0.246583403	0.002410796	0.024871742	0.007665712
2020-08-17T19:05:00	0.1292	16.671	0.0	0.276508413	0.249406538	0.002447966	0.025255214	0.007783902
2020-08-17T19:10:00	0.1299	16.640	0.0	0.277921691	0.251883540	0.002480695	0.025592874	0.007887972
2020-08-17T19:15:00	0.1302	16.601	0.0	0.278717396	0.253283680	0.002499243	0.025784234	0.007946951
2020-08-17T19:20:00	0.1304	16.591	0.0	0.279101557	0.253961086	0.002508230	0.025876944	0.007975526
2020-08-17T19:25:00	0.1300	16.558	0.0	0.278251338	0.252463110	0.002488369	0.025672042	0.007912373
2020-08-17T19:30:00	0.1308	16.513	0.0	0.279869786	0.255318526	0.002526262	0.026062975	0.008032862
2020-08-17T19:35:00	0.1308	16.483	0.0	0.279842506	0.255270260	0.002525620	0.026056354	0.008030822
2020-08-17T19:40:00	0.1309	16.448	0.0	0.280020906	0.255585989	0.002529818	0.026099669	0.008044171
2020-08-17T19:45:00	0.1318	16.442	0.0	0.281844368	0.258824622	0.002572984	0.026545005	0.008181428
2020-08-17T19:50:00	0.1325	16.427	0.0	0.283256092	0.261346364	0.002606721	0.026893064	0.008288703
2020-08-17T19:55:00	0.1329	16.428	0.0	0.284256435	0.263140866	0.002630796	0.027141436	0.008365254
2020-08-17T20:00:00	0.1330	16.395	0.0	0.284434677	0.263461272	0.002635100	0.027185842	0.008378941
2020-08-17T20:05:00	0.1329	16.377	0.0	0.284201924	0.263042916	0.002629480	0.027127864	0.008361071
2020-08-17T20:10:00	0.1332	16.362	0.0	0.284791140	0.264102652	0.002643722	0.027274788	0.008406355
2020-08-17T20:15:00	0.1330	16.354	0.0	0.284352912	0.263314267	0.002633125	0.027165466	0.008372660
2020-08-17T20:20:00	0.1335	16.338	0.0	0.285353038	0.265115293	0.002657348	0.027415369	0.008449683
2020-08-17T20:25:00	0.1335	16.312	0.0	0.285325788	0.265066138	0.002656686	0.027408541	0.008447578
2020-08-17T20:30:00	0.1339	16.315	0.0	0.286325724	0.266872953	0.002681041	0.027659805	0.008525021
2020-08-17T20:35:00	0.1340	16.293	0.0	0.286503893	0.267195553	0.002685395	0.027704728	0.008538866
2020-08-17T20:40:00	0.1341	16.273	0.0	0.286682056	0.267518342	0.002689754	0.027749695	0.008552726
2020-08-17T20:45:00	0.1346	16.263	0.0	0.287681730	0.269333228	0.002714293	0.028002863	0.008630754
2020-08-17T20:50:00	0.1349	16.235	0.0	0.288270549	0.270405163	0.002728813	0.028152663	0.008676924
2020-08-17T20:55:00	0.1346	16.245	0.0	0.287627255	0.269234167	0.002712952	0.027989030	0.008626491
2020-08-17T21:00:00	0.1348	16.233	0.0	0.288010733	0.269931904	0.002722400	0.028086501	0.008656533
2020-08-17T21:05:00	0.1350	16.230	0.0	0.288394184	0.270630517	0.002731868	0.028184180	0.008686638
2020-08-17T21:10:00	0.1347	16.249	0.0	0.287956261	0.269832736	0.002721057	0.028072643	0.008652261
2020-08-17T21:15:00	0.1349	16.236	0.0	0.288339716	0.270531224	0.002730522	0.028170292	0.008682358
2020-08-17T21:20:00	0.1350	16.226	0.0	0.288517816	0.270855961	0.002734925	0.028215720	0.008696359
2020-08-17T21:25:00	0.1347	16.228	0.0	0.287874552	0.269684018	0.002719043	0.028051863	0.008645857
2020-08-17T21:30:00	0.1344	16.208	0.0	0.287231210	0.268514539	0.002703217	0.027888589	0.008595534
2020-08-17T21:35:00	0.1338	16.210	0.0	0.285971532	0.266232231	0.002672398	0.027570638	0.008497538
2020-08-17T21:40:00	0.1339	16.192	0.0	0.286149713	0.266554455	0.002676744	0.027615472	0.008511357
2020-08-17T21:45:00	0.1331	16.171	0.0	0.284684292	0.263910318	0.002641135	0.027248108	0.008398131
2020-08-17T21:50:00	0.1337	16.154	0.0	0.285889792	0.266084478	0.002670406	0.027550086	0.008491204
2020-08-17T21:55:00	0.1338	16.164	0.0	0.286067976	0.266406616	0.002674750	0.027594899	0.008505016
2020-08-17T22:00:00	0.1341	16.142	0.0	0.286656977	0.267472893	0.002689140	0.027743363	0.008550774
2020-08-17T22:05:00	0.1336	16.139	0.0	0.285571684	0.265509869	0.002662662	0.027470195	0.008466581
2020-08-17T22:10:00	0.1332	16.134	0.0	0.284691646	0.263923554	0.002641313	0.027249944	0.008398697
2020-08-17T22:15:00	0.1327	16.111	0.0	0.283811457	0.262341846	0.002620070	0.027030775	0.008331147
2020-08-17T22:20:00	0.1321	16.109	0.0	0.282519988	0.260029905	0.002589095	0.026711220	0.008232658
2020-08-17T22:25:00	0.1320	16.114	0.0	0.282256201	0.259558976	0.002582797	0.026646245	0.008212632
2020-08-17T22:30:00	0.1325	16.100	0.0	0.283431342	0.261660287	0.002610929	0.026936472	0.008302082
2020-08-17T22:35:00	0.1318	16.088	0.0	0.281934184	0.258984685	0.002575122	0.026567063	0.008188227
2020-08-17T22:40:00	0.1314	16.082	0.0	0.281053508	0.257417410	0.002554206	0.026351271	0.008121718
2020-08-17T22:45:00	0.1313	16.076	0.0	0.280789643	0.256948779	0.002547960	0.026286833	0.008101857
2020-08-17T22:50:00	0.1313	16.059	0.0	0.280937054	0.257210531	0.002551448	0.026322820	0.008112949
2020-08-17T22:55:00	0.1309	16.057	0.0	0.280056199	0.255648473	0.002530649	0.026108243	0.008046814
2020-08-17T23:00:00	0.1300	16.053	0.0	0.278146515	0.252278741	0.002485927	0.025646851	0.007904609
2020-08-17T23:05:00	0.1303	16.046	0.0	0.278911216	0.253625335	0.002503775	0.025830983	0.007961360
2020-08-17T23:10:00	0.1305	16.047	0.0	0.279264397	0.254248510	0.002512045	0.025916307	0.007987657
2020-08-17T23:15:00	0.1299	16.044	0.0	0.277971728	0.251971468	0.002481859	0.025604881	0.007891673
2020-08-17T23:20:00	0.1292	16.024	0.0	0.276472884	0.249344431	0.002447147	0.025246762	0.007781297
2020-08-17T23:25:00	0.1286	16.029	0.0	0.275385333	0.247447131	0.002422153	0.024988908	0.007701824
2020-08-17T23:30:00	0.1284	16.006	0.0	0.274915260	0.246629368	0.002411400	0.024877974	0.007667633
2020-08-17T23:35:00	0.1283	15.994	0.0	0.274651054	0.246170352	0.002405370	0.024815759	0.007648458
2020-08-17T23:40:00	0.1281	16.007	0.0	0.274386832	0.245711749	0.002399349	0.024753640	0.007629312
2020-08-17T23:45:00	0.1272	16.006	0.0	0.272474835	0.242406249	0.002356062	0.024307057	0.007491671
2020-08-17T23:50:00	0.1279	16.000	0.0	0.273858343	0.244795783	0.002387334	0.024629687	0.007591109
2020-08-17T23:55:00	0.1282	15.993	0.0	0.274417829	0.245765526	0.002400055	0.024760923	0.007631557
2020-08-18T00:00:00	0.1277	15.984	0.0	0.273535758	0.244237549	0.002380019	0.024554220	0.007567849
2020-08-18T00:05:00	0.1286	15.981	0.0	0.275330721	0.247352055	0.002420902	0.024976004	0.007697847
2020-08-18T00:10:00	0.1289	15.975	0.0	0.275890028	0.248326677	0.002433732	0.025108361	0.007738641
2020-08-18T00:15:00	0.1290	15.972	0.0	0.276243434	0.248943521	0.002441860	0.025192221	0.007764487
2020-08-18T00:20:00	0.1293	15.963	0.0	0.276802632	0.249921168	0.002454757	0.025325275	0.007805496
2020-08-18T00:25:00	0.1291	15.943	0.0	0.276332702	0.249099457	0.002443916	0.025213431	0.007771024
2020-08-18T00:30:00	0.1296	15.948	0.0	0.277303492	0.250798496	0.002466345	0.025444825	0.007842342
2020-08-18T00:35:00	0.1299	15.950	0.0	0.278068328	0.252141265	0.002484107	0.025628071	0.007898820
2020-08-18T00:40:00	0.1296	15.944	0.0	0.277392740	0.250954993	0.002468413	0.025466165	0.007848919
2020-08-18T00:45:00	0.1293	15.928	0.0	0.276717056	0.249771428	0.002452780	0.025304884	0.007799211
2020-08-18T00:50:00	0.1294	15.910	0.0	0.277070400	0.250390005	0.002460948	0.025389144	0.007825181
2020-08-18T00:55:00	0.1297	15.904	0.0	0.277629500	0.251370394	0.002473906	0.025522831	0.007866384
2020-08-18T01:00:00	0.1299	15.909	0.0	0.277982775	0.251990883	0.002482116	0.025607532	0.007892490
2020-08-18T01:05:00	0.1299	15.895	0.0	0.277924511	0.251888495	0.002480761	0.025593551	0.007888181
2020-08-18T01:10:00	0.1296	15.886	0.0	0.277454693	0.251063657	0.002469850	0.025480985	0.007853487
2020-08-18T01:15:00	0.1293	15.890	0.0	0.276779018	0.249879844	0.002454211	0.025319647	0.007803761
2020-08-18T01:20:00	0.1297	15.887	0.0	0.277543938	0.251220234	0.002471920	0.025502344	0.007860070
2020-08-18T01:25:00	0.1294	15.878	0.0	0.277074083	0.250396456	0.002461033	0.025390023	0.007825452
2020-08-18T01:30:00	0.1291	15.875	0.0	0.276398353	0.249214168	0.002445429	0.025229037	0.007775834
2020-08-18T01:35:00	0.1294	15.867	0.0	0.276957532	0.250192329	0.002458337	0.025362210	0.007816879
2020-08-18T01:40:00	0.1292	15.863	0.0	0.276487618	0.249370186	0.002447486	0.025250266	0.007782377
2020-08-18T01:45:00	0.1289	15.856	0.0	0.276017657	0.248549352	0.002436665	0.025138625	0.007747968
2020-08-18T01:50:00	0.1293	15.848	0.0	0.276782701	0.249886289	0.002454297	0.025320525	0.007804032
2020-08-18T01:55:00	0.1294	15.843	0.0	0.276930236	0.250144534	0.002457706	0.025355699	0.007814873
2020-08-18T02:00:00	0.1288	15.836	0.0	0.275636930	0.247885395	0.002427921	0.025048411	0.007720164
2020-08-18T02:05:00	0.1290	15.846	0.0	0.276196200	0.248861031	0.002440773	0.025181002	0.007761029
2020-08-18T02:10:00	0.1293	15.838	0.0	0.276755404	0.249838522	0.002453666	0.025314020	0.007802027
2020-08-18T02:15:00	0.1287	15.832	0.0	0.275462049	0.247580723	0.002423911	0.025007042	0.007707413
2020-08-18T02:20:00	0.1281	15.834	156.0	0.274374261	0.245689940	0.002399063	0.024750687	0.007628402
2020-08-18T02:25:00	0.1276	15.833	169.0	0.273286215	0.243806167	0.002374370	0.024495942	0.007549887
2020-08-18T02:30:00	0.1278	15.833	0.0	0.273639821	0.244417559	0.002382377	0.024578549	0.007575348
2020-08-18T02:35:00	0.1273	15.826	0.0	0.272551600	0.242538518	0.002357790	0.024324888	0.007497167
2020-08-18T02:40:00	0.1269	15.817	0.0	0.271875205	0.241374342	0.002342589	0.024168061	0.007448831
2020-08-18T02:45:00	0.1268	15.821	0.0	0.271610822	0.240920082	0.002336664	0.024106937	0.007429992
2020-08-18T02:50:00	0.1262	15.803	0.0	0.270316007	0.238701708	0.002307785	0.023808992	0.007338163
2020-08-18T02:55:00	0.1254	15.805	0.0	0.268814639	0.236142675	0.002274583	0.023466450	0.007232588
2020-08-18T03:00:00	0.1256	15.821	0.0	0.269168599	0.236744710	0.002282383	0.023546925	0.007257391
2020-08-18T03:05:00	0.1259	15.808	27.0	0.269728671	0.237698921	0.002294760	0.023674615	0.007296746
2020-08-18T03:10:00	0.1261	15.799	0.0	0.270082557	0.238302868	0.002302602	0.023755524	0.007321683
2020-08-18T03:15:00	0.1254	15.785	0.0	0.268787293	0.236096197	0.002273981	0.023460240	0.007230674
2020-08-18T03:20:00	0.1251	15.792	0.0	0.268110322	0.234947082	0.002259112	0.023306840	0.007183394
2020-08-18T03:25:00	0.1253	15.775	0.0	0.268464340	0.235547644	0.002266880	0.023386980	0.007208094
2020-08-18T03:30:00	0.1248	15.776	0.0	0.267581086	0.234050750	0.002247531	0.023187359	0.007146569
2020-08-18T03:35:00	0.1254	15.777	0.0	0.268759948	0.236049723	0.002273379	0.023454032	0.007228760
2020-08-18T03:40:00	0.1253	15.779	0.0	0.268495377	0.235600335	0.002267562	0.023394015	0.007210263
2020-08-18T03:45:00	0.1252	15.783	0.0	0.268230791	0.235151360	0.002261753	0.023334091	0.007191794
2020-08-18T03:50:00	0.1248	15.786	0.0	0.267553733	0.234004471	0.002246933	0.023181194	0.007144669
2020-08-18T03:55:00	0.1252	15.774	9.0	0.268320219	0.235303059	0.002263715	0.023354334	0.007198033
2020-08-18T04:00:00	0.1257	15.752	156.0	0.269292729	0.236956022	0.002285122	0.023575187	0.007266102
2020-08-18T04:05:00	0.1264	15.749	0.0	0.270733734	0.239416236	0.002317077	0.023904857	0.007367709
2020-08-18T04:10:00	0.1268	15.738	0.0	0.271556165	0.240826226	0.002335441	0.024094312	0.007426101
2020-08-18T04:15:00	0.1269	15.748	0.0	0.271760366	0.241176973	0.002340015	0.024141499	0.007440644
2020-08-18T04:20:00	0.1269	15.762	0.0	0.271758523	0.241173805	0.002339973	0.024141073	0.007440513
2020-08-18T04:25:00	0.1273	15.757	0.0	0.272580765	0.242588781	0.002358447	0.024331665	0.007499255
2020-08-18T04:30:00	0.1275	15.746	0.0	0.272990909	0.243296179	0.002367697	0.024427089	0.007528666
2020-08-18T04:35:00	0.1280	15.748	2.0	0.274018870	0.245073818	0.002390980	0.024667296	0.007602700
2020-08-18T04:40:00	0.1279	15.743	175.0	0.273811085	0.244713961	0.002386262	0.024618622	0.007587698
2020-08-18T04:45:00	0.1283	15.747	0.0	0.274632956	0.246138926	0.002404957	0.024811502	0.007647146
2020-08-18T04:50:00	0.1286	15.740	0.0	0.275248803	0.247209473	0.002419027	0.024956655	0.007691884
2020-08-18T04:55:00	0.1286	15.740	0.0	0.275246961	0.247206267	0.002418985	0.024956220	0.007691749
2020-08-18T05:00:00	0.1284	15.746	0.0	0.274833334	0.246486988	0.002409529	0.024858671	0.007661684
2020-08-18T05:05:00	0.1287	15.743	0.0	0.275449154	0.247558266	0.002423615	0.025003993	0.007706474
2020-08-18T05:10:00	0.1287	15.732	0.0	0.275447312	0.247555058	0.002423573	0.025003558	0.007706339
2020-08-18T05:15:00	0.1292	15.741	0.0	0.276474726	0.249347650	0.002447189	0.025247200	0.007781432
2020-08-18T05:20:00	0.1301	15.743	0.0	0.278324978	0.252592674	0.002490085	0.025689748	0.007917830
2020-08-18T05:25:00	0.1301	15.742	0.0	0.278323137	0.252589435	0.002490042	0.025689306	0.007917694
2020-08-18T05:30:00	0.1300	15.745	0.0	0.278115544	0.252224279	0.002485206	0.025639411	0.007902315
2020-08-18T05:35:00	0.1302	15.754	0.0	0.278525199	0.252945121	0.002494755	0.025737930	0.007932680
2020-08-18T05:40:00	0.1298	15.749	0.0	0.277700329	0.251494735	0.002475551	0.025539799	0.007871614
2020-08-18T05:45:00	0.1295	15.758	0.0	0.277081122	0.250408788	0.002461196	0.025391703	0.007825970
2020-08-18T05:50:00	0.1292	15.766	0.0	0.276461834	0.249325116	0.002446892	0.025244133	0.007780487
2020-08-18T05:55:00	0.1295	15.760	0.0	0.277077439	0.250402337	0.002461111	0.025390824	0.007825699
2020-08-18T06:00:00	0.1298	15.773	0.0	0.277898735	0.251843205	0.002480161	0.025587367	0.007886275
2020-08-18T06:05:00	0.1292	15.782	0.0	0.276662134	0.249675349	0.002451513	0.025291803	0.007795179
2020-08-18T06:10:00	0.1295	15.792	0.0	0.277277713	0.250753301	0.002465748	0.025438663	0.007840443
2020-08-18T06:15:00	0.1303	15.798	0.0	0.278921934	0.253644235	0.002504026	0.025833570	0.007962157
2020-08-18T06:20:00	0.1306	15.822	0.0	0.279537222	0.254730438	0.002518446	0.025982339	0.008008009
2020-08-18T06:25:00	0.1306	15.843	0.0	0.279535381	0.254727185	0.002518402	0.025981894	0.008007872
2020-08-18T06:30:00	0.1305	15.834	0.0	0.279327840	0.254360536	0.002513533	0.025931652	0.007992387
2020-08-18T06:35:00	0.1309	15.828	0.0	0.280148750	0.255812368	0.002532830	0.026130736	0.008053747
2020-08-18T06:40:00	0.1311	15.871	0.0	0.280558233	0.256538153	0.002542490	0.026230402	0.008084465
2020-08-18T06:45:00	0.1317	15.910	0.0	0.281790156	0.258728034	0.002571694	0.026531696	0.008177326
2020-08-18T06:50:00	0.1301	15.883	0.0	0.278497585	0.252896498	0.002494111	0.025731282	0.007930631
2020-08-18T06:55:00	0.1296	15.890	186.0	0.277466930	0.251085123	0.002470134	0.025483913	0.007854389
2020-08-18T07:00:00	0.1302	15.925	0.0	0.278699640	0.253252393	0.002498829	0.025779954	0.007945632
2020-08-18T07:05:00	0.1299	15.943	0.0	0.278080563	0.252162776	0.002484392	0.025631009	0.007899726
2020-08-18T07:10:00	0.1301	15.987	0.0	0.278490222	0.252883532	0.002493939	0.025729509	0.007930084
2020-08-18T07:15:00	0.1303	16.114	0.0	0.278899845	0.253605285	0.002503509	0.025828239	0.007960514
2020-08-18T07:20:00	0.1305	16.162	175.0	0.279309434	0.254328033	0.002513101	0.025927200	0.007991015
2020-08-18T07:25:00	0.1305	16.182	184.0	0.279307593	0.254324782	0.002513058	0.025926754	0.007990878
2020-08-18T07:30:00	0.1309	16.226	0.0	0.280128507	0.255776516	0.002532353	0.026125815	0.008052230
2020-08-18T07:35:00	0.1310	16.263	0.0	0.280332333	0.256137628	0.002537158	0.026175390	0.008067509
2020-08-18T07:40:00	0.1314	16.176	0.0	0.281153074	0.257594355	0.002556565	0.026375612	0.008129220
2020-08-18T07:45:00	0.1321	16.201	185.0	0.282590421	0.260155720	0.002590779	0.026728586	0.008238010
2020-08-18T07:50:00	0.1320	16.192	0.0	0.282383009	0.259785306	0.002585824	0.026677468	0.008222255
2020-08-18T07:55:00	0.1321	16.283	0.0	0.282586742	0.260149148	0.002590691	0.026727679	0.008237730
2020-08-18T08:00:00	0.1326	16.249	0.0	0.283612639	0.261985245	0.002615286	0.026981424	0.008315937
2020-08-18T08:05:00	0.1330	16.251	0.0	0.284432838	0.263457966	0.002635056	0.027185384	0.008378799
2020-08-18T08:10:00	0.1334	16.301	187.0	0.285252904	0.264934688	0.002654916	0.027390283	0.008441951
2020-08-18T08:15:00	0.1340	16.356	0.0	0.286483676	0.267158936	0.002684901	0.027699628	0.008537294
2020-08-18T08:20:00	0.1340	16.426	0.0	0.286481838	0.267155607	0.002684856	0.027699164	0.008537151
2020-08-18T08:25:00	0.1343	16.421	0.0	0.287096195	0.268269438	0.002699903	0.027854400	0.008584996
2020-08-18T08:30:00	0.1347	16.452	0.0	0.287915837	0.269759155	0.002720060	0.028062361	0.008649092
2020-08-18T08:35:00	0.1346	16.418	0.0	0.287708642	0.269382173	0.002714956	0.028009699	0.008632861
2020-08-18T08:40:00	0.1353	16.435	0.0	0.289144142	0.271999553	0.002750446	0.028375843	0.008745710
2020-08-18T08:45:00	0.1355	16.448	0.0	0.289552901	0.272747229	0.002760605	0.028480653	0.008778014
2020-08-18T08:50:00	0.1358	16.554	0.0	0.290166899	0.273872295	0.002775910	0.028638548	0.008826679
2020-08-18T08:55:00	0.1354	16.585	0.0	0.289343933	0.272364867	0.002755408	0.028427041	0.008761490
2020-08-18T09:00:00	0.1364	16.533	0.0	0.291394685	0.276129167	0.002806674	0.028955941	0.008924502
2020-08-18T09:05:00	0.1363	16.601	0.0	0.291187625	0.275747890	0.002801471	0.028902259	0.008907957
2020-08-18T09:10:00	0.1360	16.739	0.0	0.290570071	0.274612342	0.002785988	0.028742527	0.008858726
2020-08-18T09:15:00	0.1364	16.790	106.0	0.291389176	0.276119020	0.002806536	0.028954512	0.008924062
2020-08-18T09:20:00	0.1365	16.748	0.0	0.291592556	0.276493776	0.002811652	0.029007299	0.008940331
2020-08-18T09:25:00	0.1363	16.886	0.0	0.291180280	0.275734370	0.002801286	0.028900356	0.008907370
2020-08-18T09:30:00	0.1360	16.825	0.0	0.290562724	0.274598848	0.002785804	0.028740630	0.008858141
2020-08-18T09:35:00	0.1359	16.838	0.0	0.290355633	0.274218599	0.002780625	0.028687193	0.008841672
2020-08-18T09:40:00	0.1361	16.933	0.0	0.290764299	0.274969227	0.002790852	0.028792704	0.008874191
2020-08-18T09:45:00	0.1359	16.987	47.0	0.290351959	0.274211857	0.002780533	0.028686246	0.008841380
2020-08-18T09:50:00	0.1362	17.030	0.0	0.290965866	0.275339847	0.002795905	0.028844836	0.008890259
2020-08-18T09:55:00	0.1364	17.029	0.0	0.291374486	0.276091961	0.002806166	0.028950701	0.008922887
2020-08-18T10:00:00	0.1365	17.008	0.0	0.291577866	0.276466699	0.002811283	0.029003484	0.008939156
2020-08-18T10:05:00	0.1359	16.963	0.0	0.290317389	0.274148408	0.002779669	0.028677332	0.008838632
2020-08-18T10:10:00	0.1353	16.942	0.0	0.289056615	0.271839591	0.002748274	0.028353432	0.008738803
2020-08-18T10:15:00	0.1356	16.983	139.0	0.289643443	0.272912985	0.002762858	0.028503902	0.008785179
2020-08-18T10:20:00	0.1347	17.010	247.0	0.287971821	0.269861062	0.002721441	0.028076601	0.008653481
2020-08-18T10:25:00	0.1339	17.011	0.0	0.286299666	0.266825787	0.002680404	0.027653239	0.008522997
2020-08-18T10:30:00	0.1331	17.009	0.0	0.284626969	0.263807161	0.002639749	0.027233801	0.008393722
2020-08-18T10:35:00	0.1323	17.058	0.0	0.282953720	0.260805184	0.002599472	0.026818273	0.008265652
2020-08-18T10:40:00	0.1306	17.131	0.0	0.279428956	0.254539137	0.002515904	0.025956123	0.007999929
2020-08-18T10:45:00	0.1305	17.204	0.0	0.279194126	0.254124457	0.002510398	0.025899316	0.007982421
2020-08-18T10:50:00	0.1299	17.284	0.0	0.277930571	0.251899142	0.002480902	0.025595005	0.007888629
2020-08-18T10:55:00	0.1291	17.248	0.0	0.276255021	0.248963759	0.002442127	0.025194973	0.007765335
2020-08-18T11:00:00	0.1287	17.304	0.0	0.275608320	0.247835538	0.002427265	0.025041640	0.007718077
2020-08-18T11:05:00	0.1279	17.300	0.0	0.273931936	0.244923227	0.002389005	0.024646924	0.007596421
2020-08-18T11:10:00	0.1272	17.309	0.0	0.272460951	0.242382332	0.002355750	0.024303834	0.007490678
2020-08-18T11:15:00	0.1275	17.328	0.0	0.273049771	0.243397789	0.002369026	0.024440804	0.007532893
2020-08-18T11:20:00	0.1278	17.349	0.0	0.273638514	0.244415299	0.002382348	0.024578244	0.007575253
2020-08-18T11:25:00	0.1271	17.573	0.0	0.272167434	0.241876959	0.002349149	0.024235738	0.007469690
2020-08-18T11:30:00	0.1267	17.469	0.0	0.271314098	0.240410781	0.002330026	0.024038452	0.007408884
2020-08-18T11:35:00	0.1258	17.352	0.0	0.269636120	0.237541104	0.002292712	0.023653485	0.007290234
2020-08-18T11:40:00	0.1254	17.334	0.0	0.268782296	0.236087703	0.002273871	0.023459106	0.007230324
2020-08-18T11:45:00	0.1250	17.327	0.0	0.267928304	0.234638611	0.002255124	0.023265703	0.007170716
2020-08-18T11:50:00	0.1248	17.379	0.0	0.267486645	0.233890986	0.002245468	0.023166079	0.007140011
2020-08-18T11:55:00	0.1251	17.445	0.0	0.268076129	0.234889118	0.002258362	0.023299108	0.007181012
2020-08-18T12:00:00	0.1253	17.409	0.0	0.268459342	0.235539160	0.002266770	0.023385848	0.007207745
2020-08-18T12:05:00	0.1242	17.499	0.0	0.266161394	0.231655022	0.002216650	0.022868767	0.007048376
2020-08-18T12:10:00	0.1244	17.399	0.0	0.266751060	0.232648542	0.002229443	0.023000755	0.007089056
2020-08-18T12:15:00	0.1240	17.338	0.0	0.265896664	0.231209695	0.002210921	0.022809667	0.007030161
2020-08-18T12:20:00	0.1221	17.476	0.0	0.261945536	0.224615590	0.002126535	0.021939070	0.006761834
2020-08-18T12:25:00	0.1221	17.579	0.0	0.261916298	0.224567160	0.002125918	0.021932707	0.006759873
2020-08-18T12:30:00	0.1220	17.541	0.0	0.261680536	0.224176845	0.002120950	0.021881446	0.006744074
2020-08-18T12:35:00	0.1216	17.482	0.0	0.260825091	0.222763552	0.002102983	0.021696084	0.006686944
2020-08-18T12:40:00	0.1219	17.470	0.0	0.261415519	0.223738513	0.002115373	0.021823914	0.006726342
2020-08-18T12:45:00	0.1218	17.433	0.0	0.261386276	0.223690174	0.002114758	0.021817572	0.006724387
2020-08-18T12:50:00	0.1229	17.434	0.0	0.263628396	0.227412124	0.002162222	0.022307251	0.006875311
2020-08-18T12:55:00	0.1229	17.393	0.0	0.263599170	0.227363405	0.002161599	0.022300824	0.006873330
2020-08-18T13:00:00	0.1232	17.371	0.0	0.264189197	0.228348010	0.002174199	0.022430808	0.006913393
2020-08-18T13:05:00	0.1229	17.337	0.0	0.263540717	0.227265980	0.002160354	0.022287972	0.006869370
2020-08-18T13:10:00	0.1223	17.271	0.0	0.262272687	0.225157844	0.002133443	0.022010341	0.006783801
2020-08-18T13:15:00	0.1246	17.271	0.0	0.266990226	0.233052133	0.002234645	0.023054425	0.007105598
2020-08-18T13:20:00	0.1265	17.284	0.0	0.271084389	0.240016884	0.002324896	0.023985519	0.007392570
2020-08-18T13:25:00	0.1262	17.183	0.0	0.270436952	0.238908473	0.002310473	0.023836723	0.007346710
2020-08-18T13:30:00	0.1257	17.123	0.0	0.269377137	0.237099772	0.002286986	0.023594418	0.007272029
2020-08-18T13:35:00	0.1252	17.028	0.0	0.268317066	0.235297710	0.002263646	0.023353620	0.007197812
2020-08-18T13:40:00	0.1242	16.968	0.0	0.266225348	0.231762672	0.002218035	0.022883059	0.007052781
2020-08-18T13:45:00	0.1256	16.916	0.0	0.269083416	0.236599753	0.002280504	0.023527542	0.007251417
2020-08-18T13:50:00	0.1252	16.828	0.0	0.268229483	0.235149142	0.002261725	0.023333795	0.007191702
2020-08-18T13:55:00	0.1250	16.729	0.0	0.267994077	0.234750054	0.002256565	0.023280563	0.007175296
2020-08-18T14:00:00	0.1236	16.674	0.0	0.265076849	0.229833409	0.002193241	0.022627262	0.006973942
2020-08-18T14:05:00	0.1220	16.648	0.0	0.261744560	0.224282804	0.002122298	0.021895359	0.006748362
2020-08-18T14:10:00	0.1207	16.667	0.0	0.259029572	0.219812137	0.002065586	0.021310266	0.006568031
2020-08-18T14:15:00	0.1213	16.704	0.0	0.260240122	0.221799770	0.002090752	0.021569905	0.006648054
2020-08-18T14:20:00	0.1207	16.745	0.0	0.258971053	0.219716286	0.002064374	0.021297766	0.006564178
2020-08-18T14:25:00	0.1208	16.790	0.0	0.259148458	0.220006930	0.002068049	0.021335677	0.006575863
2020-08-18T14:30:00	0.1212	16.817	0.0	0.260152369	0.221655376	0.002088921	0.021551017	0.006642233
2020-08-18T14:35:00	0.1218	16.855	0.0	0.261362578	0.223651005	0.002114260	0.021812433	0.006722804
2020-08-18T14:40:00	0.1237	16.851	0.0	0.265255834	0.230133524	0.002197093	0.022667006	0.006986191
2020-08-18T14:45:00	0.1244	16.831	0.0	0.266670829	0.232513233	0.002227700	0.022982768	0.007083512
2020-08-18T14:50:00	0.1239	16.817	0.0	0.265610089	0.230728119	0.002204731	0.022745800	0.007010476
2020-08-18T14:55:00	0.1234	16.849	0.0	0.264549082	0.228949644	0.002181906	0.022510326	0.006937901
2020-08-18T15:00:00	0.1229	16.866	0.0	0.263487804	0.227177809	0.002159227	0.022276343	0.006865785
2020-08-18T15:05:00	0.1228	16.925	0.0	0.263458577	0.227129114	0.002158604	0.022269921	0.006863806
2020-08-18T15:10:00	0.1226	16.931	0.0	0.263016448	0.226393141	0.002149202	0.022172918	0.006833909
2020-08-18T15:15:00	0.1231	16.904	0.0	0.264019400	0.228064439	0.002170568	0.022393352	0.006901849
2020-08-18T15:20:00	0.1235	16.882	0.0	0.264815744	0.229395959	0.002187629	0.022569362	0.006956096
2020-08-18T15:25:00	0.1243	16.894	0.0	0.266437183	0.232119422	0.002222627	0.022930438	0.007067384
2020-08-18T15:30:00	0.1240	16.911	0.0	0.265789051	0.231028796	0.002208595	0.022785671	0.007022765
2020-08-18T15:35:00	0.1246	16.913	0.0	0.266997609	0.233064596	0.002234806	0.023056083	0.007106109
2020-08-18T15:40:00	0.1236	16.914	0.0	0.265111605	0.229891669	0.002193989	0.022634976	0.006976319
2020-08-18T15:45:00	0.1234	16.947	0.0	0.264669652	0.229151389	0.002184493	0.022537007	0.006946124
2020-08-18T15:50:00	0.1233	16.926	0.0	0.264434048	0.228757249	0.002179441	0.022484890	0.006930061
2020-08-18T15:55:00	0.1230	16.926	0.0	0.263785607	0.227674283	0.002165576	0.022341844	0.006885973
2020-08-18T16:00:00	0.1229	16.910	0.0	0.263549952	0.227281372	0.002160551	0.022290002	0.006869995
2020-08-18T16:05:00	0.1217	16.884	0.0	0.261015351	0.223077485	0.002106970	0.021737224	0.006699624
2020-08-18T16:10:00	0.1208	16.875	0.0	0.259305843	0.220264940	0.002071312	0.021369346	0.006586240
2020-08-18T16:15:00	0.1197	16.848	0.0	0.256975320	0.216460321	0.002023320	0.020874218	0.006433637
2020-08-18T16:20:00	0.1185	16.844	0.0	0.254436482	0.212354538	0.001971847	0.020343177	0.006269965
2020-08-18T16:25:00	0.1180	16.837	0.0	0.253345023	0.210601912	0.001949976	0.020117540	0.006200421
2020-08-18T16:30:00	0.1177	16.804	0.0	0.252874293	0.209848346	0.001940591	0.020020718	0.006170580
2020-08-18T16:35:00	0.1172	16.794	0.0	0.251782373	0.208105719	0.001918932	0.019797266	0.006101710
2020-08-18T16:40:00	0.1173	16.774	0.0	0.251932653	0.208345109	0.001921904	0.019827925	0.006111159
2020-08-18T16:45:00	0.1172	16.759	0.0	0.251875876	0.208254650	0.001920780	0.019816338	0.006107588
2020-08-18T16:50:00	0.1173	16.740	0.0	0.252026152	0.208494123	0.001923754	0.019847015	0.006117043
2020-08-18T16:55:00	0.1173	16.720	0.0	0.251969377	0.208403632	0.001922630	0.019835422	0.006113470
2020-08-18T17:00:00	0.1178	16.708	0.0	0.252947723	0.209965804	0.001942053	0.020035802	0.006175229
2020-08-18T17:05:00	0.1175	16.671	0.0	0.252476942	0.209213334	0.001932691	0.019939219	0.006145461
2020-08-18T17:10:00	0.1179	16.667	0.0	0.253248181	0.210446769	0.001948043	0.020097597	0.006194275
2020-08-18T17:15:00	0.1185	16.649	0.0	0.254433108	0.212349107	0.001971779	0.020342477	0.006269749
2020-08-18T17:20:00	0.1184	16.627	0.0	0.254376370	0.212257816	0.001970638	0.020330708	0.006266122
2020-08-18T17:25:00	0.1182	16.599	0.0	0.253905770	0.211501403	0.001961193	0.020233264	0.006236088
2020-08-18T17:30:00	0.1183	16.575	0.0	0.254055963	0.211742663	0.001964204	0.020264331	0.006245664
2020-08-18T17:35:00	0.1188	16.552	0.0	0.255033760	0.213316800	0.001983880	0.020467328	0.006308229
2020-08-18T17:40:00	0.1192	16.516	0.0	0.256011305	0.214896547	0.002003676	0.020671556	0.006371174
2020-08-18T17:45:00	0.1197	16.477	0.0	0.256988599	0.216481902	0.002023591	0.020877019	0.006434500
2020-08-18T17:50:00	0.1198	16.441	0.0	0.257138671	0.216725879	0.002026661	0.020908683	0.006444259
2020-08-18T17:55:00	0.1209	16.411	0.0	0.259355767	0.220346817	0.002072348	0.021380033	0.006589534
2020-08-18T18:00:00	0.1209	16.380	0.0	0.259505748	0.220592881	0.002075462	0.021412159	0.006599435
2020-08-18T18:05:00	0.1214	16.352	0.0	0.260482169	0.222198300	0.002095807	0.021622059	0.006664129
2020-08-18T18:10:00	0.1216	16.333	0.0	0.260838684	0.222785974	0.002103267	0.021699022	0.006687849
2020-08-18T18:15:00	0.1221	16.306	0.0	0.262021297	0.224741105	0.002128134	0.021955562	0.006766917
2020-08-18T18:20:00	0.1222	16.275	0.0	0.262171178	0.224989521	0.002131298	0.021988211	0.006776980
2020-08-18T18:25:00	0.1223	16.238	0.0	0.262321054	0.225238070	0.002134466	0.022020890	0.006787052
2020-08-18T18:30:00	0.1221	16.193	0.0	0.261851412	0.224459703	0.002124550	0.021918591	0.006755523
2020-08-18T18:35:00	0.1230	16.178	0.0	0.263859487	0.227797538	0.002167153	0.022358113	0.006890988
2020-08-18T18:40:00	0.1231	16.155	0.0	0.264009301	0.228047577	0.002170352	0.022391126	0.006901162
2020-08-18T18:45:00	0.1237	16.122	0.0	0.265191001	0.230024790	0.002195697	0.022652604	0.006981753
2020-08-18T18:50:00	0.1233	16.093	0.0	0.264308912	0.228548053	0.002176761	0.022457240	0.006921539
2020-08-18T18:55:00	0.1233	16.061	0.0	0.264458710	0.228798490	0.002179969	0.022490341	0.006931742
2020-08-18T19:00:00	0.1239	16.034	0.0	0.265640283	0.230778833	0.002205382	0.022752524	0.007012549
2020-08-18T19:05:00	0.1245	16.005	0.0	0.266821524	0.232767412	0.002230975	0.023016559	0.007093927
2020-08-18T19:10:00	0.1250	15.973	0.0	0.268002439	0.234764224	0.002256748	0.023282452	0.007175878
2020-08-18T19:15:00	0.1259	15.940	0.0	0.269801467	0.237823093	0.002296372	0.023691244	0.007301872
2020-08-18T19:20:00	0.1260	15.914	0.0	0.269951073	0.238078384	0.002299687	0.023725442	0.007312412
2020-08-18T19:25:00	0.1261	15.888	0.0	0.270100673	0.238333807	0.002303004	0.023759670	0.007322961
2020-08-18T19:30:00	0.1260	15.851	0.0	0.270044154	0.238237290	0.002301750	0.023746735	0.007318974
2020-08-18T19:35:00	0.1262	15.832	0.0	0.270399859	0.238845050	0.002309648	0.023828216	0.007344088
2020-08-18T19:40:00	0.1267	15.816	0.0	0.271373753	0.240513128	0.002331360	0.024052210	0.007413125
2020-08-18T19:45:00	0.1265	15.795	0.0	0.270905109	0.239709692	0.002320896	0.023944257	0.007379853
2020-08-18T19:50:00	0.1273	15.791	0.0	0.272702956	0.242799420	0.002361200	0.024360069	0.007508010
2020-08-18T19:55:00	0.1274	15.779	0.0	0.272852464	0.243057277	0.002364572	0.024394852	0.007518730
2020-08-18T20:00:00	0.1275	15.773	0.0	0.273001967	0.243315267	0.002367946	0.024429666	0.007529460
2020-08-18T20:05:00	0.1268	15.767	0.0	0.271709399	0.241089404	0.002338872	0.024129716	0.007437013
2020-08-18T20:10:00	0.1266	15.760	0.0	0.271240790	0.240285038	0.002328388	0.024021551	0.007403675
2020-08-18T20:15:00	0.1275	15.755	0.0	0.273038503	0.243378335	0.002368771	0.024438178	0.007532084
2020-08-18T20:20:00	0.1288	15.745	0.0	0.275659034	0.247923918	0.002428428	0.025053643	0.007721776
2020-08-18T20:25:00	0.1284	15.731	0.0	0.274984942	0.246750502	0.002412992	0.024894398	0.007672695
2020-08-18T20:30:00	0.1282	15.723	0.0	0.274516671	0.245937052	0.002402307	0.024784154	0.007638717
2020-08-18T20:35:00	0.1285	15.718	0.0	0.275077919	0.246912180	0.002415118	0.024916325	0.007679453
2020-08-18T20:40:00	0.1286	15.712	0.0	0.275227349	0.247172139	0.002418536	0.024951590	0.007690322
2020-08-18T20:45:00	0.1292	15.698	0.0	0.276611873	0.249587442	0.002450353	0.025279836	0.007791491
2020-08-18T20:50:00	0.1287	15.679	0.0	0.275526196	0.247692456	0.002425381	0.025022211	0.007712089
2020-08-18T20:55:00	0.1291	15.671	0.0	0.276293163	0.249030381	0.002443005	0.025204035	0.007768128
2020-08-18T21:00:00	0.1293	15.654	0.0	0.276854196	0.250011417	0.002455948	0.025337566	0.007809284
2020-08-18T21:05:00	0.1287	15.636	0.0	0.275562711	0.247756070	0.002426219	0.025030849	0.007714751
2020-08-18T21:10:00	0.1288	15.624	0.0	0.275712126	0.248016459	0.002429646	0.025066213	0.007725650
2020-08-18T21:15:00	0.1288	15.611	0.0	0.275655677	0.247918066	0.002428351	0.025052849	0.007721531
2020-08-18T21:20:00	0.1290	15.606	0.0	0.276216786	0.248896982	0.002441247	0.025185891	0.007762536
2020-08-18T21:25:00	0.1288	15.599	0.0	0.275748640	0.248080114	0.002430484	0.025074860	0.007728315
2020-08-18T21:30:00	0.1286	15.597	0.0	0.275280446	0.247264545	0.002419751	0.024964128	0.007694187
2020-08-18T21:35:00	0.1282	15.591	0.0	0.274400383	0.245735258	0.002399657	0.024756824	0.007630294
2020-08-18T21:40:00	0.1288	15.588	0.0	0.275785153	0.248143776	0.002431323	0.025083509	0.007730981
2020-08-18T21:45:00	0.1277	15.583	0.0	0.273463675	0.244112900	0.002378387	0.024537377	0.007562658
2020-08-18T21:50:00	0.1273	15.569	0.0	0.272583262	0.242593084	0.002358503	0.024332245	0.007499434
2020-08-18T21:55:00	0.1270	15.549	0.0	0.272114744	0.241786295	0.002347965	0.024223527	0.007465926
2020-08-18T22:00:00	0.1261	15.530	0.0	0.270203626	0.238509666	0.002305289	0.023783243	0.007330227
2020-08-18T22:05:00	0.1264	15.515	0.0	0.270765409	0.239470461	0.002317783	0.023912137	0.007369953
2020-08-18T22:10:00	0.1267	15.502	0.0	0.271327122	0.240433122	0.002330317	0.024041455	0.007409810
2020-08-18T22:15:00	0.1263	15.475	0.0	0.270652386	0.239277002	0.002315266	0.023886170	0.007361949
2020-08-18T22:20:00	0.1256	15.442	0.0	0.269152978	0.236718123	0.002282038	0.023543369	0.007256295
2020-08-18T22:25:00	0.1253	15.409	0.0	0.268477909	0.235570678	0.002267178	0.023390055	0.007209042
2020-08-18T22:30:00	0.1250	15.400	0.0	0.268008955	0.234775267	0.002256891	0.023283925	0.007176332
2020-08-18T22:35:00	0.1261	15.387	0.0	0.270220224	0.238538025	0.002305658	0.023787045	0.007331398
2020-08-18T22:40:00	0.1259	15.361	0.0	0.269751458	0.237737786	0.002295264	0.023679820	0.007298350
2020-08-18T22:45:00	0.1259	15.342	0.0	0.269694933	0.237641386	0.002294013	0.023666911	0.007294372
2020-08-18T22:50:00	0.1250	15.338	0.0	0.267988985	0.234741426	0.002256453	0.023279412	0.007174941
2020-08-18T22:55:00	0.1251	15.296	0.0	0.268138653	0.234995114	0.002259733	0.023313247	0.007185369
2020-08-18T23:00:00	0.1250	15.294	0.0	0.267875890	0.234549822	0.002253977	0.023253866	0.007167067
2020-08-18T23:05:00	0.1257	15.268	0.0	0.269262677	0.236904855	0.002284459	0.023568343	0.007263992
2020-08-18T23:10:00	0.1253	15.254	0.0	0.268587625	0.235756973	0.002269589	0.023414930	0.007216709
2020-08-18T23:15:00	0.1255	15.244	0.0	0.268943449	0.236361670	0.002277419	0.023495715	0.007241608
2020-08-18T23:20:00	0.1252	15.246	0.0	0.268268347	0.235215061	0.002262577	0.023342591	0.007194413
2020-08-18T23:25:00	0.1248	15.237	0.0	0.267593139	0.234071144	0.002247794	0.023190076	0.007147407
2020-08-18T23:30:00	0.1239	15.226	0.0	0.265680034	0.230845611	0.002206241	0.022761378	0.007015278
2020-08-18T23:35:00	0.1239	15.216	0.0	0.265623457	0.230750571	0.002205019	0.022748777	0.007011394
2020-08-18T23:40:00	0.1244	15.212	0.0	0.266598424	0.232391157	0.002226127	0.022966543	0.007078512
2020-08-18T23:45:00	0.1236	15.196	0.0	0.265097604	0.229868200	0.002193687	0.022631868	0.006975362
2020-08-18T23:50:00	0.1231	15.202	0.0	0.264009090	0.228047226	0.002170348	0.022391079	0.006901148
2020-08-18T23:55:00	0.1224	15.186	0.0	0.262507338	0.225547195	0.002138407	0.022061551	0.006799584
2020-08-19T00:00:00	0.1216	15.173	0.0	0.260798465	0.222719637	0.002102425	0.021690331	0.006685171
2020-08-19T00:05:00	0.1212	15.163	0.0	0.260122042	0.221605484	0.002088289	0.021544492	0.006640222
2020-08-19T00:10:00	0.1211	15.155	0.0	0.259858770	0.221172623	0.002082803	0.021487898	0.006622779
2020-08-19T00:15:00	0.1220	15.162	0.0	0.261661308	0.224145027	0.002120545	0.021877268	0.006742787
2020-08-19T00:20:00	0.1220	15.162	0.0	0.261811202	0.224393125	0.002123702	0.021909847	0.006752828
2020-08-19T00:25:00	0.1219	15.169	0.0	0.261548041	0.223957646	0.002118160	0.021852671	0.006735205
2020-08-19T00:30:00	0.1218	15.170	0.0	0.261284863	0.223522575	0.002112627	0.021795585	0.006717611
2020-08-19T00:35:00	0.1216	15.168	0.0	0.260815100	0.222747074	0.002102773	0.021693925	0.006686278
2020-08-19T00:40:00	0.1220	15.168	0.0	0.261791202	0.224360015	0.002123281	0.021905498	0.006751487
2020-08-19T00:45:00	0.1216	15.162	0.0	0.260908383	0.222900958	0.002104728	0.021714088	0.006692493
2020-08-19T00:50:00	0.1213	15.162	0.0	0.260231979	0.221786368	0.002090582	0.021568152	0.006647514
2020-08-19T00:55:00	0.1211	15.175	0.0	0.259762092	0.221013778	0.002080791	0.021467139	0.006616381
2020-08-19T01:00:00	0.1206	15.173	0.0	0.258878825	0.219565266	0.002062465	0.021278073	0.006558109
2020-08-19T01:05:00	0.1214	15.168	0.0	0.260475220	0.222186853	0.002095662	0.021620560	0.006663667
2020-08-19T01:10:00	0.1219	15.154	0.0	0.261451404	0.223797841	0.002116128	0.021831698	0.006728741
2020-08-19T01:15:00	0.1221	15.155	0.0	0.262014351	0.224729594	0.002127987	0.021954049	0.006766451
2020-08-19T01:20:00	0.1224	15.158	0.0	0.262577219	0.225663214	0.002139887	0.022076816	0.006804289
2020-08-19T01:25:00	0.1222	15.158	0.0	0.262107606	0.224884137	0.002129956	0.021974359	0.006772711
2020-08-19T01:30:00	0.1217	15.151	0.0	0.261018299	0.223082351	0.002107032	0.021737862	0.006699820
2020-08-19T01:35:00	0.1218	15.131	0.0	0.261374767	0.223671150	0.002114516	0.021815076	0.006723618
2020-08-19T01:40:00	0.1218	15.104	0.0	0.261318130	0.223577546	0.002113326	0.021802796	0.006719833
2020-08-19T01:45:00	0.1216	15.093	0.0	0.260848371	0.222801952	0.002103470	0.021701115	0.006688495
2020-08-19T01:50:00	0.1214	15.070	0.0	0.260378557	0.222027657	0.002093643	0.021599724	0.006657245
2020-08-19T01:55:00	0.1209	15.048	0.0	0.259495427	0.220575943	0.002075248	0.021409947	0.006598754
2020-08-19T02:00:00	0.1212	15.032	0.0	0.260058647	0.221501214	0.002086967	0.021530856	0.006636019
2020-08-19T02:05:00	0.1207	15.010	0.0	0.258968782	0.219712568	0.002064327	0.021297281	0.006564029
2020-08-19T02:10:00	0.1206	15.004	0.0	0.258912111	0.219619766	0.002063154	0.021285179	0.006560299
2020-08-19T02:15:00	0.1215	14.958	0.0	0.260715076	0.222582130	0.002100679	0.021672318	0.006679619
2020-08-19T02:20:00	0.1210	14.937	0.0	0.259625391	0.220789275	0.002077948	0.021437809	0.006607341
2020-08-19T02:25:00	0.1207	14.916	0.0	0.258948769	0.219679792	0.002063913	0.021293007	0.006562711
2020-08-19T02:30:00	0.1211	14.895	0.0	0.259925327	0.221282012	0.002084189	0.021502196	0.006627186
2020-08-19T02:35:00	0.1205	14.887	0.0	0.258628744	0.219156039	0.002057295	0.021224735	0.006541670
2020-08-19T02:40:00	0.1202	14.850	0.0	0.257951949	0.218050522	0.002043345	0.021080811	0.006497311
2020-08-19T02:45:00	0.1197	14.820	0.0	0.257068273	0.216611413	0.002025220	0.020893826	0.006439680
2020-08-19T02:50:00	0.1198	14.793	0.0	0.257218341	0.216855460	0.002028291	0.020925506	0.006449444
2020-08-19T02:55:00	0.1196	14.775	0.0	0.256748093	0.216091198	0.002018679	0.020826336	0.006418879
2020-08-19T03:00:00	0.1200	14.775	0.0	0.257518461	0.217343951	0.002034441	0.020988953	0.006468999
2020-08-19T03:05:00	0.1204	14.752	0.0	0.258495375	0.218937958	0.002054541	0.021196325	0.006532913
2020-08-19T03:10:00	0.1209	14.730	0.0	0.259472045	0.220537574	0.002074762	0.021404937	0.006597209
2020-08-19T03:15:00	0.1211	14.716	0.0	0.259828651	0.221123129	0.002082176	0.021481429	0.006620785
2020-08-19T03:20:00	0.1210	14.697	0.0	0.259565360	0.220690722	0.002076701	0.021424936	0.006603373
2020-08-19T03:25:00	0.1213	14.677	0.0	0.260335174	0.221956228	0.002092736	0.021590376	0.006654364
2020-08-19T03:30:00	0.1216	14.673	0.0	0.260898276	0.222884282	0.002104516	0.021711903	0.006691819
2020-08-19T03:35:00	0.1218	14.661	0.0	0.261254754	0.223472829	0.002111995	0.021789061	0.006715600
2020-08-19T03:40:00	0.1218	14.657	0.0	0.261404664	0.223720569	0.002115145	0.021821559	0.006725617
2020-08-19T03:45:00	0.1217	14.647	0.0	0.261141477	0.223285720	0.002109616	0.021764524	0.006708038
2020-08-19T03:50:00	0.1230	14.642	0.0	0.263769217	0.227646946	0.002165226	0.022338236	0.006884861
2020-08-19T03:55:00	0.1229	14.633	0.0	0.263506182	0.227208432	0.002159618	0.022280382	0.006867030
2020-08-19T04:00:00	0.1232	14.630	0.0	0.264275249	0.228491794	0.002176040	0.022449805	0.006919248
2020-08-19T04:05:00	0.1224	14.620	0.0	0.262623735	0.225740459	0.002140872	0.022086981	0.006807422
2020-08-19T04:10:00	0.1228	14.613	0.0	0.263449575	0.227114117	0.002158412	0.022267943	0.006863196
2020-08-19T04:15:00	0.1233	14.607	0.0	0.264481642	0.228836841	0.002180461	0.022495412	0.006933304
2020-08-19T04:20:00	0.1235	14.594	0.0	0.264894397	0.229527688	0.002189318	0.022586793	0.006961469
2020-08-19T04:25:00	0.1237	14.590	0.0	0.265307112	0.230219541	0.002198198	0.022678401	0.006989703
2020-08-19T04:30:00	0.1238	14.592	0.0	0.265513454	0.230565844	0.002202646	0.022724289	0.007003847
2020-08-19T04:35:00	0.1236	14.586	0.0	0.265100760	0.229873489	0.002193755	0.022632569	0.006975577
2020-08-19T04:40:00	0.1240	14.570	0.0	0.265926107	0.231259203	0.002211558	0.022816235	0.007032185
2020-08-19T04:45:00	0.1243	14.565	0.0	0.266545012	0.232301126	0.002224967	0.022954579	0.007074824
2020-08-19T04:50:00	0.1241	14.558	0.0	0.266132419	0.231606260	0.002216022	0.022862293	0.007046381
2020-08-19T04:55:00	0.1237	14.555	0.0	0.265307112	0.230219541	0.002198198	0.022678401	0.006989703
2020-08-19T05:00:00	0.1238	14.558	0.0	0.265513454	0.230565844	0.002202646	0.022724289	0.007003847
2020-08-19T05:05:00	0.1235	14.564	0.0	0.264894397	0.229527688	0.002189318	0.022586793	0.006961469
2020-08-19T05:10:00	0.1231	14.546	0.0	0.264068846	0.228146998	0.002171625	0.022404255	0.006905209
2020-08-19T05:15:00	0.1228	14.554	0.0	0.263449575	0.227114117	0.002158412	0.022267943	0.006863196
2020-08-19T05:20:00	0.1231	14.546	0.0	0.264068846	0.228146998	0.002171625	0.022404255	0.006905209
2020-08-19T05:25:00	0.1231	14.535	0.0	0.264068846	0.228146998	0.002171625	0.022404255	0.006905209
2020-08-19T05:30:00	0.1233	14.540	0.0	0.264481642	0.228836841	0.002180461	0.022495412	0.006933304
2020-08-19T05:35:00	0.1235	14.533	0.0	0.264894397	0.229527688	0.002189318	0.022586793	0.006961469
2020-08-19T05:40:00	0.1231	14.532	0.0	0.264068846	0.228146998	0.002171625	0.022404255	0.006905209
2020-08-19T05:45:00	0.1234	14.533	0.0	0.264688025	0.229182139	0.002184887	0.022541074	0.006947378
2020-08-19T05:50:00	0.1235	14.539	0.0	0.264894397	0.229527688	0.002189318	0.022586793	0.006961469
2020-08-19T05:55:00	0.1233	14.542	0.0	0.264481642	0.228836841	0.002180461	0.022495412	0.006933304
2020-08-19T06:00:00	0.1237	14.555	0.0	0.265307112	0.230219541	0.002198198	0.022678401	0.006989703
2020-08-19T06:05:00	0.1235	14.577	0.0	0.264894397	0.229527688	0.002189318	0.022586793	0.006961469
2020-08-19T06:10:00	0.1240	14.624	0.0	0.265926107	0.231259203	0.002211558	0.022816235	0.007032185
2020-08-19T06:15:00	0.1241	14.651	0.0	0.266132419	0.231606260	0.002216022	0.022862293	0.007046381
2020-08-19T06:20:00	0.1244	14.673	0.0	0.266751294	0.232648936	0.002229448	0.023000807	0.007089072
2020-08-19T06:25:00	0.1243	14.713	0.0	0.266545012	0.232301126	0.002224967	0.022954579	0.007074824
2020-08-19T06:30:00	0.1246	14.752	0.0	0.267163827	0.233345309	0.002238426	0.023093433	0.007117620
2020-08-19T06:35:00	0.1254	14.790	0.0	0.268813565	0.236140849	0.002274559	0.023466206	0.007232513
2020-08-19T06:40:00	0.1254	14.837	0.0	0.268813565	0.236140849	0.002274559	0.023466206	0.007232513
2020-08-19T06:45:00	0.1254	14.893	0.0	0.268813565	0.236140849	0.002274559	0.023466206	0.007232513
2020-08-19T06:50:00	0.1258	14.949	0.0	0.269638198	0.237544647	0.002292758	0.023653959	0.007290380
2020-08-19T06:55:00	0.1261	14.986	0.0	0.270256572	0.238600133	0.002306465	0.023795372	0.007333965
2020-08-19T07:00:00	0.1265	15.043	0.0	0.271080935	0.240010963	0.002324818	0.023984723	0.007392325
2020-08-19T07:05:00	0.1261	15.102	0.0	0.270256572	0.238600133	0.002306465	0.023795372	0.007333965
2020-08-19T07:10:00	0.1272	15.167	0.0	0.272523204	0.242489586	0.002357151	0.024318292	0.007495134
2020-08-19T07:15:00	0.1266	15.274	0.0	0.271287002	0.240364299	0.002329421	0.024032204	0.007406959
2020-08-19T07:20:00	0.1264	15.394	0.0	0.270874858	0.239657879	0.002320222	0.023937300	0.007377708
2020-08-19T07:25:00	0.1263	15.451	0.0	0.270668772	0.239305046	0.002315631	0.023889933	0.007363109
2020-08-19T07:30:00	0.1261	15.543	0.0	0.270256572	0.238600133	0.002306465	0.023795372	0.007333965
2020-08-19T07:35:00	0.1264	15.630	0.0	0.270874858	0.239657879	0.002320222	0.023937300	0.007377708
2020-08-19T07:40:00	0.1264	15.705	0.0	0.270874858	0.239657879	0.002320222	0.023937300	0.007377708
2020-08-19T07:45:00	0.1263	15.731	0.0	0.270668772	0.239305046	0.002315631	0.023889933	0.007363109
2020-08-19T07:50:00	0.1270	15.820	0.0	0.272111174	0.241780153	0.002347885	0.024222700	0.007465671
2020-08-19T07:55:00	0.1278	15.945	0.0	0.273759067	0.244623916	0.002385082	0.024606447	0.007583946
2020-08-19T08:00:00	0.1270	15.801	0.0	0.272111174	0.241780153	0.002347885	0.024222700	0.007465671
2020-08-19T08:05:00	0.1264	15.831	0.0	0.270874858	0.239657879	0.002320222	0.023937300	0.007377708
2020-08-19T08:10:00	0.1277	15.977	0.0	0.273553113	0.244267567	0.002380412	0.024558277	0.007569099
2020-08-19T08:15:00	0.1276	16.033	0.0	0.273347150	0.243911468	0.002375749	0.024510165	0.007554271
2020-08-19T08:20:00	0.1272	16.014	0.0	0.272523204	0.242489586	0.002357151	0.024318292	0.007495134
2020-08-19T08:25:00	0.1275	16.040	0.0	0.273141177	0.243555621	0.002371091	0.024462110	0.007539460
2020-08-19T08:30:00	0.1277	15.948	0.0	0.273553113	0.244267567	0.002380412	0.024558277	0.007569099
2020-08-19T08:35:00	0.1272	15.968	0.0	0.272523204	0.242489586	0.002357151	0.024318292	0.007495134
2020-08-19T08:40:00	0.1280	16.383	0.0	0.274170947	0.245337369	0.002394436	0.024702959	0.007613692
2020-08-19T08:45:00	0.1282	16.293	0.0	0.274582790	0.246051826	0.002403814	0.024799701	0.007643509
2020-08-19T08:50:00	0.1278	16.434	0.0	0.273759067	0.244623916	0.002385082	0.024606447	0.007583946
2020-08-19T08:55:00	0.1271	16.382	0.0	0.272317194	0.242134744	0.002352515	0.024270467	0.007480394
2020-08-19T09:00:00	0.1268	16.414	0.0	0.271699107	0.241071723	0.002338642	0.024127337	0.007436280
2020-08-19T09:05:00	0.1264	16.264	0.0	0.270874858	0.239657879	0.002320222	0.023937300	0.007377708
2020-08-19T09:10:00	0.1268	16.375	0.0	0.271699107	0.241071723	0.002338642	0.024127337	0.007436280
2020-08-19T09:15:00	0.1275	16.598	0.0	0.273141177	0.243555621	0.002371091	0.024462110	0.007539460
2020-08-19T09:20:00	0.1265	16.641	0.0	0.271080935	0.240010963	0.002324818	0.023984723	0.007392325
2020-08-19T09:25:00	0.1268	16.416	0.0	0.271699107	0.241071723	0.002338642	0.024127337	0.007436280
2020-08-19T09:30:00	0.1258	16.349	0.0	0.269638198	0.237544647	0.002292758	0.023653959	0.007290380
2020-08-19T09:35:00	0.1252	16.474	0.0	0.268401190	0.235440457	0.002265493	0.023372672	0.007203684
2020-08-19T09:40:00	0.1251	16.442	0.0	0.268194987	0.235090638	0.002260968	0.023325990	0.007189297
2020-08-19T09:45:00	0.1250	16.316	0.0	0.267988775	0.234741070	0.002256449	0.023279365	0.007174926
2020-08-19T09:50:00	0.1244	16.475	0.0	0.266751294	0.232648936	0.002229448	0.023000807	0.007089072
2020-08-19T09:55:00	0.1242	16.549	0.0	0.266338721	0.231953567	0.002220492	0.022908408	0.007060594
2020-08-19T10:00:00	0.1248	16.534	0.0	0.267576321	0.234042687	0.002247427	0.023186285	0.007146238
2020-08-19T10:05:00	0.1251	16.602	0.0	0.268074517	0.234886386	0.002258327	0.023298744	0.007180899
2020-08-19T10:10:00	0.1255	16.617	0.0	0.268985014	0.236432360	0.002278335	0.023505164	0.007244520
2020-08-19T10:15:00	0.1240	16.660	0.0	0.265770824	0.230998163	0.002208202	0.022781608	0.007021513
2020-08-19T10:20:00	0.1240	16.749	0.0	0.265856610	0.231142356	0.002210055	0.022800734	0.007027408
2020-08-19T10:25:00	0.1249	16.779	0.0	0.267798833	0.234419320	0.002252291	0.023236471	0.007161706
2020-08-19T10:30:00	0.1239	16.746	0.0	0.265615534	0.230737264	0.002204848	0.022747012	0.007010850
2020-08-19T10:35:00	0.1241	16.876	0.0	0.266113959	0.231575195	0.002215623	0.022858170	0.007045110
2020-08-19T10:40:00	0.1245	16.915	0.0	0.266818604	0.232762484	0.002230912	0.023015904	0.007093725
2020-08-19T10:45:00	0.1245	16.837	0.0	0.266904369	0.232907208	0.002232777	0.023035149	0.007099657
2020-08-19T10:50:00	0.1246	16.707	0.0	0.266990133	0.233051975	0.002234643	0.023054404	0.007105591
2020-08-19T10:55:00	0.1244	16.655	0.0	0.266663353	0.232500626	0.002227537	0.022981092	0.007082996
2020-08-19T11:00:00	0.1239	16.743	0.0	0.265717612	0.230908746	0.002207052	0.022769750	0.007017858
2020-08-19T11:05:00	0.1245	16.813	0.0	0.266834888	0.232789959	0.002231266	0.023019557	0.007094851
2020-08-19T11:10:00	0.1247	16.739	0.0	0.267333170	0.233631477	0.002242118	0.023131523	0.007129360
2020-08-19T11:15:00	0.1250	16.710	0.0	0.267831394	0.234474460	0.002253003	0.023243820	0.007163971
2020-08-19T11:20:00	0.1252	16.678	0.0	0.268329561	0.235318909	0.002263920	0.023356449	0.007198684
2020-08-19T11:25:00	0.1243	16.744	0.0	0.266559125	0.232324912	0.002225274	0.022957740	0.007075798
2020-08-19T11:30:00	0.1249	16.895	0.0	0.267676180	0.234211673	0.002249609	0.023208799	0.007153177
2020-08-19T11:35:00	0.1248	17.026	0.0	0.267555695	0.234007790	0.002246976	0.023181637	0.007144806
2020-08-19T11:40:00	0.1260	17.185	0.0	0.269909423	0.238007297	0.002298763	0.023715918	0.007309476
2020-08-19T11:45:00	0.1261	17.240	0.0	0.270201245	0.238505598	0.002305236	0.023782698	0.007330058
2020-08-19T11:50:00	0.1262	17.250	0.0	0.270286943	0.238652035	0.002307139	0.023802331	0.007336110
2020-08-19T11:55:00	0.1254	17.291	0.0	0.268723494	0.235987778	0.002272577	0.023445756	0.007226210
2020-08-19T12:00:00	0.1279	18.005	0.0	0.273960673	0.244973002	0.002389658	0.024653657	0.007598497
2020-08-19T12:05:00	0.1265	17.631	0.0	0.270956202	0.239797219	0.002322035	0.023956012	0.007383476
2020-08-19T12:10:00	0.1256	17.379	0.0	0.269186836	0.236775749	0.002282785	0.023551075	0.007258670
2020-08-19T12:15:00	0.1250	17.203	0.0	0.267829222	0.234470781	0.002252956	0.023243330	0.007163820
2020-08-19T12:20:00	0.1238	17.120	0.0	0.265439603	0.230441869	0.002201053	0.022707859	0.006998783
2020-08-19T12:25:00	0.1242	17.055	0.0	0.266350661	0.231973676	0.002220751	0.022911079	0.007061417
2020-08-19T12:30:00	0.1241	17.068	0.0	0.266023832	0.231423561	0.002213672	0.022838044	0.007038907
2020-08-19T12:35:00	0.1241	17.075	0.0	0.266109613	0.231567882	0.002215528	0.022857199	0.007044811
2020-08-19T12:40:00	0.1232	17.059	0.0	0.264131851	0.228252218	0.002172972	0.022418153	0.006909493
2020-08-19T12:45:00	0.1233	17.067	0.0	0.264424066	0.228740559	0.002179227	0.022482683	0.006929381
2020-08-19T12:50:00	0.1233	17.073	0.0	0.264303489	0.228538989	0.002176645	0.022456042	0.006921170
2020-08-19T12:55:00	0.1230	17.049	0.0	0.263770082	0.227648389	0.002165244	0.022338427	0.006884920
2020-08-19T13:00:00	0.1225	17.022	0.0	0.262823686	0.226072652	0.002145111	0.022130710	0.006820900
2020-08-19T13:05:00	0.1225	17.026	0.0	0.262703062	0.225872220	0.002142553	0.022104323	0.006812767
2020-08-19T13:10:00	0.1222	17.081	0.0	0.262169448	0.224986652	0.002131262	0.021987834	0.006776864
2020-08-19T13:15:00	0.1214	17.133	0.0	0.260396387	0.222057018	0.002094015	0.021603566	0.006658429
2020-08-19T13:20:00	0.1204	17.244	0.0	0.258415847	0.218807971	0.002052900	0.021179395	0.006527695
2020-08-19T13:25:00	0.1196	17.281	0.0	0.256847890	0.216253275	0.002020716	0.020847357	0.006425358
2020-08-19T13:30:00	0.1199	17.225	0.0	0.257347398	0.217065451	0.002030934	0.020952774	0.006457849
2020-08-19T13:35:00	0.1193	17.284	0.0	0.256192663	0.215190290	0.002007362	0.020709587	0.006382896
2020-08-19T13:40:00	0.1198	17.313	0.0	0.257105814	0.216672450	0.002025988	0.020901748	0.006442122
2020-08-19T13:45:00	0.1198	17.316	0.0	0.257191785	0.216812262	0.002027748	0.020919897	0.006447716
2020-08-19T13:50:00	0.1197	17.330	0.0	0.256864215	0.216279793	0.002021050	0.020850797	0.006426418
2020-08-19T13:55:00	0.1195	17.321	0.0	0.256536616	0.215747953	0.002014365	0.020781836	0.006405164
2020-08-19T14:00:00	0.1190	17.345	0.0	0.255588492	0.214212528	0.001995099	0.020583065	0.006343900
2020-08-19T14:05:00	0.1184	17.325	0.0	0.254226306	0.212016462	0.001967623	0.020299603	0.006256535
2020-08-19T14:10:00	0.1188	17.353	0.0	0.255139929	0.213488081	0.001986024	0.020489447	0.006315046
2020-08-19T14:15:00	0.1184	17.498	0.0	0.254191455	0.211960430	0.001966923	0.020292384	0.006254310
2020-08-19T14:20:00	0.1205	17.768	0.0	0.258620363	0.219142332	0.002057122	0.021222949	0.006541119
2020-08-19T14:25:00	0.1209	17.575	0.0	0.259532944	0.220637516	0.002076027	0.021417988	0.006601232
2020-08-19T14:30:00	0.1204	17.463	0.0	0.258378857	0.218747524	0.002052137	0.021171523	0.006525269
2020-08-19T14:35:00	0.1205	17.400	0.0	0.258671490	0.219225961	0.002058178	0.021233846	0.006544478
2020-08-19T14:40:00	0.1202	17.434	0.0	0.257930619	0.218015727	0.002042906	0.021076285	0.006495916
2020-08-19T14:45:00	0.1201	17.397	0.0	0.257809847	0.217818770	0.002040423	0.021050671	0.006488021
2020-08-19T14:50:00	0.1194	17.359	0.0	0.256241644	0.215269659	0.002008359	0.020719866	0.006386064
2020-08-19T14:55:00	0.1198	17.346	0.0	0.257154783	0.216752082	0.002026990	0.020912085	0.006445308
2020-08-19T15:00:00	0.1195	17.311	0.0	0.256620422	0.215883943	0.002016074	0.020799463	0.006410597
2020-08-19T15:05:00	0.1199	17.303	0.0	0.257326721	0.217031799	0.002030511	0.020948404	0.006456502
2020-08-19T15:10:00	0.1202	17.332	0.0	0.258032891	0.218182585	0.002045010	0.021097991	0.006502606
2020-08-19T15:15:00	0.1204	17.372	0.0	0.258325549	0.218660426	0.002051038	0.021160183	0.006521774
2020-08-19T15:20:00	0.1207	17.382	0.0	0.259031539	0.219815358	0.002065626	0.021310687	0.006568161
2020-08-19T15:25:00	0.1208	17.388	0.0	0.259324123	0.220294917	0.002071691	0.021373258	0.006587446
2020-08-19T15:30:00	0.1215	17.468	0.0	0.260649726	0.222474399	0.002099311	0.021658209	0.006675270
2020-08-19T15:35:00	0.1212	17.476	0.0	0.260115840	0.221595283	0.002088160	0.021543158	0.006639810
2020-08-19T15:40:00	0.1210	17.456	0.0	0.259581883	0.220717846	0.002077044	0.021428479	0.006604465
2020-08-19T15:45:00	0.1214	17.448	0.0	0.260494243	0.222218189	0.002096060	0.021624662	0.006664931
2020-08-19T15:50:00	0.1212	17.441	0.0	0.260166948	0.221679362	0.002089226	0.021554154	0.006643200
2020-08-19T15:55:00	0.1215	17.421	0.0	0.260666035	0.222501281	0.002099653	0.021661729	0.006676355
2020-08-19T16:00:00	0.1212	17.370	0.0	0.260132151	0.221622115	0.002088500	0.021546667	0.006640892
2020-08-19T16:05:00	0.1204	17.357	0.0	0.258391148	0.218767608	0.002052391	0.021174139	0.006526075
2020-08-19T16:10:00	0.1203	17.335	0.0	0.258303355	0.218624169	0.002050581	0.021155462	0.006520319
2020-08-19T16:15:00	0.1203	17.303	0.0	0.258215559	0.218480776	0.002048771	0.021136796	0.006514566
2020-08-19T16:20:00	0.1203	17.279	0.0	0.258127761	0.218337427	0.002046963	0.021118139	0.006508816
2020-08-19T16:25:00	0.1199	17.270	0.0	0.257419758	0.217183235	0.002032417	0.020968073	0.006462564
2020-08-19T16:30:00	0.1198	17.206	0.0	0.257125182	0.216703943	0.002026385	0.020905836	0.006443382
2020-08-19T16:35:00	0.1194	17.168	0.0	0.256416995	0.215553923	0.002011928	0.020756691	0.006397414
2020-08-19T16:40:00	0.1189	17.150	0.0	0.255294970	0.213738335	0.001989158	0.020521774	0.006325010
2020-08-19T16:45:00	0.1190	17.144	0.0	0.255413970	0.213930517	0.001991565	0.020546609	0.006332664
2020-08-19T16:50:00	0.1187	17.127	0.0	0.254912358	0.213121030	0.001981431	0.020442055	0.006300440
2020-08-19T16:55:00	0.1190	17.096	0.0	0.255445108	0.213980819	0.001992195	0.020553110	0.006334668
2020-08-19T17:00:00	0.1188	17.058	0.0	0.255150379	0.213504944	0.001986235	0.020491625	0.006315718
2020-08-19T17:05:00	0.1191	17.021	0.0	0.255683095	0.214365477	0.001997016	0.020602844	0.006349997
2020-08-19T17:10:00	0.1187	16.975	0.0	0.254974641	0.213221455	0.001982687	0.020455018	0.006304435
2020-08-19T17:15:00	0.1184	16.936	0.0	0.254266055	0.212080378	0.001968421	0.020307840	0.006259073
2020-08-19T17:20:00	0.1190	16.883	0.0	0.255419523	0.213939487	0.001991677	0.020547768	0.006333022
2020-08-19T17:25:00	0.1191	16.839	0.0	0.255745366	0.214466184	0.001998278	0.020615869	0.006354011
2020-08-19T17:30:00	0.1193	16.792	0.0	0.256071181	0.214993504	0.002004893	0.020684107	0.006375043
2020-08-19T17:35:00	0.1191	16.726	0.0	0.255776501	0.214516546	0.001998910	0.020622384	0.006356019
2020-08-19T17:40:00	0.1187	16.676	0.0	0.254861181	0.213038530	0.001980399	0.020431406	0.006297158
2020-08-19T17:45:00	0.1191	16.614	0.0	0.255807635	0.214566913	0.001999541	0.020628900	0.006358027
2020-08-19T17:50:00	0.1195	16.571	0.0	0.256547063	0.215764902	0.002014578	0.020784032	0.006405841
2020-08-19T17:55:00	0.1197	16.515	0.0	0.256872810	0.216293756	0.002021225	0.020852608	0.006426976
2020-08-19T18:00:00	0.1198	16.471	0.0	0.257198529	0.216823233	0.002027886	0.020921322	0.006448154
2020-08-19T18:05:00	0.1205	16.424	0.0	0.258557811	0.219040038	0.002055830	0.021209622	0.006537011
2020-08-19T18:10:00	0.1205	16.384	0.0	0.258676710	0.219234501	0.002058286	0.021234959	0.006544821
2020-08-19T18:15:00	0.1207	16.335	0.0	0.259002279	0.219767430	0.002065020	0.021304436	0.006566234
2020-08-19T18:20:00	0.1213	16.286	0.0	0.260360937	0.221998645	0.002093274	0.021595927	0.006656074
2020-08-19T18:25:00	0.1214	16.235	0.0	0.260479782	0.222194369	0.002095758	0.021621544	0.006663970
2020-08-19T18:30:00	0.1217	16.183	0.0	0.261011771	0.223071576	0.002106895	0.021736450	0.006699385
2020-08-19T18:35:00	0.1214	16.138	0.0	0.260510880	0.222245596	0.002096408	0.021628250	0.006666037
2020-08-19T18:40:00	0.1222	16.091	0.0	0.262075539	0.224830989	0.002129279	0.021967374	0.006770558
2020-08-19T18:45:00	0.1218	16.047	0.0	0.261368240	0.223660362	0.002114379	0.021813660	0.006723182
2020-08-19T18:50:00	0.1221	15.995	0.0	0.261900111	0.224540351	0.002125577	0.021929185	0.006758788
2020-08-19T18:55:00	0.1223	15.947	0.0	0.262431913	0.225422007	0.002136811	0.022045082	0.006794508
2020-08-19T19:00:00	0.1222	15.902	0.0	0.262137708	0.224934035	0.002130591	0.021980918	0.006774732
2020-08-19T19:05:00	0.1223	15.855	0.0	0.262256502	0.225131001	0.002133101	0.022006812	0.006782713
2020-08-19T19:10:00	0.1218	15.810	0.0	0.261342694	0.223618140	0.002113842	0.021808121	0.006721475
2020-08-19T19:15:00	0.1219	15.766	0.0	0.261461510	0.223814550	0.002116340	0.021833891	0.006729417
2020-08-19T19:20:00	0.1221	15.713	0.0	0.261993370	0.224694832	0.002127544	0.021949481	0.006765043
2020-08-19T19:25:00	0.1222	15.666	0.0	0.262112167	0.224891697	0.002130052	0.021975353	0.006773017
2020-08-19T19:30:00	0.1213	15.617	0.0	0.260372028	0.222016908	0.002093506	0.021598317	0.006656811
2020-08-19T19:35:00	0.1219	15.567	0.0	0.261523689	0.223917371	0.002117648	0.021847385	0.006733576
2020-08-19T19:40:00	0.1220	15.524	0.0	0.261642500	0.224113907	0.002120149	0.021873183	0.006741527
2020-08-19T19:45:00	0.1216	15.474	0.0	0.260935126	0.222945084	0.002105288	0.021719871	0.006694275
2020-08-19T19:50:00	0.1222	15.423	0.0	0.262086625	0.224849364	0.002129513	0.021969789	0.006771302
2020-08-19T19:55:00	0.1224	15.376	0.0	0.262618403	0.225731603	0.002140759	0.022085816	0.006807063
2020-08-19T20:00:00	0.1224	15.329	0.0	0.262530702	0.225585981	0.002138902	0.022066654	0.006801157
2020-08-19T20:05:00	0.1230	15.284	0.0	0.263681751	0.227501080	0.002163360	0.022318988	0.006878929
2020-08-19T20:10:00	0.1228	15.245	0.0	0.263387636	0.227010941	0.002157094	0.022254339	0.006859003
2020-08-19T20:15:00	0.1230	15.211	0.0	0.263712824	0.227552894	0.002164023	0.022325825	0.006881036
2020-08-19T20:20:00	0.1231	15.150	0.0	0.264037986	0.228095470	0.002170965	0.022397450	0.006903112
2020-08-19T20:25:00	0.1224	15.088	0.0	0.262505163	0.225543585	0.002138361	0.022061076	0.006799438
2020-08-19T20:30:00	0.1216	15.048	0.0	0.260971764	0.223005546	0.002106056	0.021727795	0.006696717
2020-08-19T20:35:00	0.1220	15.017	0.0	0.261710220	0.224225969	0.002121575	0.021887896	0.006746062
2020-08-19T20:40:00	0.1217	14.968	0.0	0.261002858	0.223056864	0.002106708	0.021734521	0.006698791
2020-08-19T20:45:00	0.1217	14.922	0.0	0.261121684	0.223253036	0.002109201	0.021760238	0.006706717
2020-08-19T20:50:00	0.1216	14.882	0.0	0.260827384	0.222767334	0.002103031	0.021696580	0.006687097
2020-08-19T20:55:00	0.1219	14.840	0.0	0.261565866	0.223987130	0.002118536	0.021856541	0.006736398
2020-08-19T21:00:00	0.1225	14.802	0.0	0.262717187	0.225895686	0.002142852	0.022107412	0.006813719
2020-08-19T21:05:00	0.1216	14.762	0.0	0.260977309	0.223014697	0.002106173	0.021728994	0.006697087
2020-08-19T21:10:00	0.1222	14.716	0.0	0.262128797	0.224919263	0.002130403	0.021978976	0.006774134
2020-08-19T21:15:00	0.1216	14.689	0.0	0.260801834	0.222725193	0.002102496	0.021691059	0.006685395
2020-08-19T21:20:00	0.1212	14.661	0.0	0.260094311	0.221559870	0.002087711	0.021538526	0.006638383
2020-08-19T21:25:00	0.1213	14.647	0.0	0.260213165	0.221755407	0.002090190	0.021564102	0.006646266
2020-08-19T21:30:00	0.1211	14.610	0.0	0.259918798	0.221271279	0.002084053	0.021500793	0.006626753
2020-08-19T21:35:00	0.1216	14.581	0.0	0.260864023	0.222827773	0.002103798	0.021704499	0.006689537
2020-08-19T21:40:00	0.1211	14.534	0.0	0.259949899	0.221322404	0.002084701	0.021507477	0.006628813
2020-08-19T21:45:00	0.1218	14.509	0.0	0.261308234	0.223561193	0.002113118	0.021800651	0.006719172
2020-08-19T21:50:00	0.1221	14.486	0.0	0.261840114	0.224440995	0.002124312	0.021916134	0.006754765
2020-08-19T21:55:00	0.1218	14.455	0.0	0.261339325	0.223612573	0.002113771	0.021807391	0.006721250
2020-08-19T22:00:00	0.1208	14.401	0.0	0.259185558	0.220067735	0.002068818	0.021343610	0.006578308
2020-08-19T22:05:00	0.1205	14.377	0.0	0.258596648	0.219103548	0.002056632	0.021217896	0.006539562
2020-08-19T22:10:00	0.1204	14.361	0.0	0.258421068	0.218816503	0.002053008	0.021180506	0.006528038
2020-08-19T22:15:00	0.1200	14.320	0.0	0.257625310	0.217518001	0.002036633	0.021011571	0.006475970
2020-08-19T22:20:00	0.1197	14.301	0.0	0.257036165	0.216559216	0.002024564	0.020887052	0.006437592
2020-08-19T22:25:00	0.1202	14.278	0.0	0.258101000	0.218293743	0.002046412	0.021112454	0.006507064
2020-08-19T22:30:00	0.1241	14.268	0.0	0.265979527	0.231349039	0.002212713	0.022828155	0.007035859
2020-08-19T22:35:00	0.1246	14.244	0.0	0.267042020	0.233139582	0.002235773	0.023066059	0.007109183
2020-08-19T22:40:00	0.1246	14.231	0.0	0.267073068	0.233192011	0.002236449	0.023073034	0.007111333
2020-08-19T22:45:00	0.1244	14.211	0.0	0.266691577	0.232548219	0.002228151	0.022987418	0.007084946
2020-08-19T22:50:00	0.1248	14.198	0.0	0.267547659	0.233994196	0.002246800	0.023179826	0.007144247
2020-08-19T22:55:00	0.1251	14.181	0.0	0.268197369	0.235094678	0.002261020	0.023326529	0.007189463
2020-08-19T23:00:00	0.1254	14.152	0.0	0.268640801	0.235847290	0.002270758	0.023426991	0.007220426
2020-08-19T23:05:00	0.1246	14.165	0.0	0.267022046	0.233105854	0.002235338	0.023061572	0.007107800
2020-08-19T23:10:00	0.1252	14.159	0.0	0.268290488	0.235252619	0.002263063	0.023347603	0.007195958
2020-08-19T23:15:00	0.1249	14.135	0.0	0.267702878	0.234256865	0.002250192	0.023214821	0.007155033
2020-08-19T23:20:00	0.1250	14.112	0.0	0.267940146	0.234658673	0.002255384	0.023268378	0.007171540
2020-08-19T23:25:00	0.1250	14.085	0.0	0.267971187	0.234711268	0.002256063	0.023275391	0.007173702
2020-08-19T23:30:00	0.1249	14.036	0.0	0.267796007	0.234414535	0.002252229	0.023235833	0.007161509
2020-08-19T23:35:00	0.1247	14.024	0.0	0.267208330	0.233420496	0.002239396	0.023103439	0.007120704
2020-08-19T23:40:00	0.1247	14.016	0.0	0.267239377	0.233472956	0.002240073	0.023110421	0.007122856
2020-08-19T23:45:00	0.1246	14.000	0.0	0.267064167	0.233176980	0.002236255	0.023071034	0.007110717
2020-08-19T23:50:00	0.1246	13.996	0.0	0.267095215	0.233229414	0.002236932	0.023078011	0.007112867
2020-08-19T23:55:00	0.1245	13.988	0.0	0.266919999	0.232933587	0.002233117	0.023038658	0.007100738
2020-08-20T00:00:00	0.1242	13.962	0.0	0.266332202	0.231942588	0.002220351	0.022906950	0.007060144
2020-08-20T00:05:00	0.1242	13.941	0.0	0.266156954	0.231647550	0.002216554	0.022867775	0.007048070
2020-08-20T00:10:00	0.1240	13.921	0.0	0.265775381	0.231005821	0.002208300	0.022782624	0.007021826
2020-08-20T00:15:00	0.1232	13.924	0.0	0.264155533	0.228291774	0.002173479	0.022423379	0.006911103
2020-08-20T00:20:00	0.1235	13.911	0.0	0.264805763	0.229379246	0.002187414	0.022567150	0.006955415
2020-08-20T00:25:00	0.1234	13.886	0.0	0.264630452	0.229085787	0.002183652	0.022528330	0.006943450
2020-08-20T00:30:00	0.1232	13.872	0.0	0.264248739	0.228447494	0.002175473	0.022443952	0.006917444
2020-08-20T00:35:00	0.1231	13.867	0.0	0.264073405	0.228154610	0.002171723	0.022405261	0.006905519
2020-08-20T00:40:00	0.1233	13.842	0.0	0.264310876	0.228551335	0.002176803	0.022457674	0.006921673
2020-08-20T00:45:00	0.1236	13.844	0.0	0.264961082	0.229639403	0.002190751	0.022601579	0.006966026
2020-08-20T00:50:00	0.1231	13.837	0.0	0.263960205	0.227965621	0.002169303	0.022380304	0.006897827
2020-08-20T00:55:00	0.1224	13.810	0.0	0.262546138	0.225611608	0.002139228	0.022070026	0.006802196
2020-08-20T01:00:00	0.1222	13.783	0.0	0.262164232	0.224978005	0.002131152	0.021986697	0.006776514
2020-08-20T01:05:00	0.1221	13.788	0.0	0.261988808	0.224687275	0.002127448	0.021948488	0.006764737
2020-08-20T01:10:00	0.1219	13.785	0.0	0.261606850	0.224054926	0.002119398	0.021865440	0.006739141
2020-08-20T01:15:00	0.1216	13.773	0.0	0.260811731	0.222741517	0.002102703	0.021693197	0.006686054
2020-08-20T01:20:00	0.1216	13.768	0.0	0.260842826	0.222792805	0.002103354	0.021699917	0.006688125
2020-08-20T01:25:00	0.1217	13.740	0.0	0.261080485	0.223185009	0.002108337	0.021751319	0.006703968
2020-08-20T01:30:00	0.1213	13.738	0.0	0.260285261	0.221874064	0.002091694	0.021579625	0.006651050
2020-08-20T01:35:00	0.1210	13.732	0.0	0.259696516	0.220906067	0.002079427	0.021453066	0.006612043
2020-08-20T01:40:00	0.1214	13.722	0.0	0.260554050	0.222316724	0.002097310	0.021637562	0.006668907
2020-08-20T01:45:00	0.1218	13.713	0.0	0.261204854	0.223390394	0.002110947	0.021778249	0.006712268
2020-08-20T01:50:00	0.1224	13.696	0.0	0.262475064	0.225493622	0.002137724	0.022054503	0.006797412
2020-08-20T01:55:00	0.1230	13.689	0.0	0.263744878	0.227606351	0.002164707	0.022332879	0.006883210
2020-08-20T02:00:00	0.1223	13.681	0.0	0.262330737	0.225254133	0.002134671	0.022023003	0.006787703
2020-08-20T02:05:00	0.1223	13.672	0.0	0.262361820	0.225305699	0.002135328	0.022029784	0.006789793
2020-08-20T02:10:00	0.1220	13.658	0.0	0.261773378	0.224330508	0.002122905	0.021901623	0.006750293
2020-08-20T02:15:00	0.1219	13.649	0.0	0.261597938	0.224040182	0.002119211	0.021863504	0.006738544
2020-08-20T02:20:00	0.1216	13.647	0.0	0.260802817	0.222726814	0.002102516	0.021691271	0.006685460
2020-08-20T02:25:00	0.1214	13.653	0.0	0.260420746	0.222097132	0.002094524	0.021608817	0.006660047
2020-08-20T02:30:00	0.1203	13.659	0.0	0.258178684	0.218420564	0.002048012	0.021128959	0.006512150
2020-08-20T02:35:00	0.1208	13.663	0.0	0.259243208	0.220162240	0.002070013	0.021355942	0.006582109
2020-08-20T02:40:00	0.1208	13.669	0.0	0.259274315	0.220213242	0.002070658	0.021362598	0.006584160
2020-08-20T02:45:00	0.1212	13.664	0.0	0.260131940	0.221621768	0.002088495	0.021546621	0.006640878
2020-08-20T02:50:00	0.1212	13.667	0.0	0.260163040	0.221672932	0.002089144	0.021553313	0.006642941
2020-08-20T02:55:00	0.1210	13.676	0.0	0.259574277	0.220705359	0.002076886	0.021426848	0.006603963
2020-08-20T03:00:00	0.1208	13.669	0.0	0.259192088	0.220078440	0.002068953	0.021345007	0.006578738
2020-08-20T03:05:00	0.1213	13.662	0.0	0.260256339	0.221826459	0.002091091	0.021573397	0.006649130
2020-08-20T03:10:00	0.1202	13.660	0.0	0.258014183	0.218152059	0.002044625	0.021094020	0.006501382
2020-08-20T03:15:00	0.1203	13.651	0.0	0.258252012	0.218540307	0.002049522	0.021144545	0.006516954
2020-08-20T03:20:00	0.1211	13.623	0.0	0.259936419	0.221300246	0.002084420	0.021504580	0.006627920
2020-08-20T03:25:00	0.1208	13.597	0.0	0.259140968	0.219994654	0.002067893	0.021334075	0.006575369
2020-08-20T03:30:00	0.1209	13.603	0.0	0.259378728	0.220384478	0.002072825	0.021384949	0.006591049
2020-08-20T03:35:00	0.1210	13.594	0.0	0.259616475	0.220774634	0.002077763	0.021435897	0.006606751
2020-08-20T03:40:00	0.1211	13.589	0.0	0.259854207	0.221165123	0.002082708	0.021486918	0.006622477
2020-08-20T03:45:00	0.1210	13.599	0.0	0.259678682	0.220876780	0.002079056	0.021449240	0.006610864
2020-08-20T03:50:00	0.1213	13.604	0.0	0.260329628	0.221947098	0.002092621	0.021589182	0.006653995
2020-08-20T03:55:00	0.1209	13.612	0.0	0.259534255	0.220639667	0.002076054	0.021418269	0.006601318
2020-08-20T04:00:00	0.1209	13.598	0.0	0.259358716	0.220351654	0.002072409	0.021380664	0.006589728
2020-08-20T04:05:00	0.1206	13.607	0.0	0.258828356	0.219482648	0.002061421	0.021267302	0.006554789
2020-08-20T04:10:00	0.1213	13.615	0.0	0.260364423	0.222004386	0.002093347	0.021596678	0.006656306
2020-08-20T04:15:00	0.1214	13.613	0.0	0.260454020	0.222151934	0.002095219	0.021615989	0.006662258
2020-08-20T04:20:00	0.1214	13.611	0.0	0.260543615	0.222299529	0.002097092	0.021635311	0.006668213
2020-08-20T04:25:00	0.1216	13.624	0.0	0.260839784	0.222787788	0.002103290	0.021699260	0.006687923
2020-08-20T04:30:00	0.1217	13.619	0.0	0.261135932	0.223276564	0.002109500	0.021763323	0.006707668
2020-08-20T04:35:00	0.1216	13.644	0.0	0.260812386	0.222742597	0.002102717	0.021693339	0.006686098
2020-08-20T04:40:00	0.1214	13.671	0.0	0.260488815	0.222209247	0.002095946	0.021623492	0.006664570
2020-08-20T04:45:00	0.1217	13.685	0.0	0.261198116	0.223379265	0.002110805	0.021776790	0.006711818
2020-08-20T04:50:00	0.1214	13.704	0.0	0.260461414	0.222164113	0.002095374	0.021617584	0.006662749
2020-08-20T04:55:00	0.1215	13.726	0.0	0.260757590	0.222652229	0.002101569	0.021681500	0.006682449
2020-08-20T05:00:00	0.1219	13.737	0.0	0.261466844	0.223823369	0.002116452	0.021835048	0.006729774
2020-08-20T05:05:00	0.1214	13.746	0.0	0.260523609	0.222266567	0.002096674	0.021630996	0.006666883
2020-08-20T05:10:00	0.1212	13.743	0.0	0.259993404	0.221393928	0.002085607	0.021516827	0.006631695
2020-08-20T05:15:00	0.1219	13.756	0.0	0.261529023	0.223926192	0.002117760	0.021848542	0.006733933
2020-08-20T05:20:00	0.1227	13.768	0.0	0.263064059	0.226472335	0.002150213	0.022183351	0.006837124
2020-08-20T05:25:00	0.1236	13.771	0.0	0.265011265	0.229723490	0.002191830	0.022612710	0.006969457
2020-08-20T05:30:00	0.1234	13.783	0.0	0.264688025	0.229182139	0.002184887	0.022541074	0.006947378
2020-08-20T05:35:00	0.1235	13.800	0.0	0.264777527	0.229331968	0.002186808	0.022560895	0.006953487
2020-08-20T05:40:00	0.1237	13.819	0.0	0.265279744	0.230173629	0.002197608	0.022672319	0.006987829
2020-08-20T05:45:00	0.1236	13.840	0.0	0.264956525	0.229631766	0.002190653	0.022600568	0.006965715
2020-08-20T05:50:00	0.1232	13.852	0.0	0.264220499	0.228400308	0.002174868	0.022437717	0.006915522
2020-08-20T05:55:00	0.1237	13.878	0.0	0.265135515	0.229931754	0.002194503	0.022640284	0.006977955
2020-08-20T06:00:00	0.1242	13.908	0.0	0.266256636	0.231815346	0.002218713	0.022890052	0.007054936
2020-08-20T06:05:00	0.1248	13.942	0.0	0.267583702	0.234055176	0.002247588	0.023187949	0.007146751
2020-08-20T06:10:00	0.1250	13.981	0.0	0.267879370	0.234555717	0.002254053	0.023254652	0.007167310
2020-08-20T06:15:00	0.1251	14.014	0.0	0.268175018	0.235056775	0.002260530	0.023321472	0.007187904
2020-08-20T06:20:00	0.1258	14.053	0.0	0.269501494	0.237311635	0.002289734	0.023622769	0.007280767
2020-08-20T06:25:00	0.1268	14.095	0.0	0.271651826	0.240990506	0.002337583	0.024116410	0.007432912
2020-08-20T06:30:00	0.1269	14.147	0.0	0.271741183	0.241144013	0.002339585	0.024137064	0.007439277
2020-08-20T06:35:00	0.1273	14.195	0.0	0.272654612	0.242716071	0.002360111	0.024348829	0.007504546
2020-08-20T06:40:00	0.1270	14.242	0.0	0.272125922	0.241805527	0.002348217	0.024226117	0.007466725
2020-08-20T06:45:00	0.1269	14.293	0.0	0.271803212	0.241250601	0.002340975	0.024151407	0.007443698
2020-08-20T06:50:00	0.1265	14.349	0.0	0.271068354	0.239989401	0.002324538	0.023981826	0.007391432
2020-08-20T06:55:00	0.1261	14.403	0.0	0.270127264	0.238379221	0.002303594	0.023765757	0.007324837
2020-08-20T07:00:00	0.1259	14.464	0.0	0.269804409	0.237828111	0.002296437	0.023691917	0.007302079
2020-08-20T07:05:00	0.1257	14.523	0.0	0.269275380	0.236926482	0.002284739	0.023571236	0.007264884
2020-08-20T07:10:00	0.1259	14.594	0.0	0.269777070	0.237781473	0.002295832	0.023685670	0.007300154
2020-08-20T07:15:00	0.1258	14.667	0.0	0.269660332	0.237582385	0.002293247	0.023659011	0.007291937
2020-08-20T07:20:00	0.1257	14.742	0.0	0.269337443	0.237032166	0.002286110	0.023585373	0.007269241
2020-08-20T07:25:00	0.1255	14.828	0.0	0.269014531	0.236482564	0.002278986	0.023511875	0.007246588
2020-08-20T07:30:00	0.1256	14.917	0.0	0.269103942	0.236634677	0.002280957	0.023532211	0.007252856
2020-08-20T07:35:00	0.1260	14.985	0.0	0.270017913	0.238192486	0.002301168	0.023740731	0.007317124
2020-08-20T07:40:00	0.1263	15.078	0.0	0.270519518	0.239049679	0.002312309	0.023855666	0.007352548
2020-08-20T07:45:00	0.1263	15.176	0.0	0.270608899	0.239202588	0.002314298	0.023876183	0.007358872
2020-08-20T07:50:00	0.1259	15.261	0.0	0.269667710	0.237594965	0.002293411	0.023660696	0.007292456
2020-08-20T07:55:00	0.1265	15.402	0.0	0.270993735	0.239861525	0.002322873	0.023964649	0.007386137
2020-08-20T08:00:00	0.1267	15.512	0.0	0.271495230	0.240721611	0.002334077	0.024080243	0.007421765
2020-08-20T08:05:00	0.1266	15.542	0.0	0.271172475	0.240167890	0.002326862	0.024005808	0.007398823
2020-08-20T08:10:00	0.1270	15.476	0.0	0.272086019	0.241736875	0.002347320	0.024216871	0.007463875
2020-08-20T08:15:00	0.1272	15.389	0.0	0.272381385	0.242245281	0.002353959	0.024285362	0.007484985
2020-08-20T08:20:00	0.1278	15.471	0.0	0.273706606	0.244533120	0.002383892	0.024594171	0.007580162
2020-08-20T08:25:00	0.1278	15.563	0.0	0.273589971	0.244331319	0.002381248	0.024566893	0.007571755
2020-08-20T08:30:00	0.1281	15.493	0.0	0.274297107	0.245556114	0.002397306	0.024732568	0.007622818
2020-08-20T08:35:00	0.1273	15.529	0.0	0.272738747	0.242861136	0.002362007	0.024368393	0.007510575
2020-08-20T08:40:00	0.1275	15.526	0.0	0.273034070	0.243370683	0.002368671	0.024437145	0.007531765
2020-08-20T08:45:00	0.1268	15.562	0.0	0.271681324	0.241041175	0.002338243	0.024123227	0.007435013
2020-08-20T08:50:00	0.1271	15.817	0.0	0.272182742	0.241903301	0.002349493	0.024239286	0.007470783
2020-08-20T08:55:00	0.1276	15.975	0.0	0.273302056	0.243833538	0.002374729	0.024499639	0.007551027
2020-08-20T09:00:00	0.1281	15.920	0.0	0.274215170	0.245414034	0.002395442	0.024713335	0.007616890
2020-08-20T09:05:00	0.1270	15.865	0.0	0.272038742	0.241655549	0.002346259	0.024205920	0.007460500
2020-08-20T09:10:00	0.1269	15.939	0.0	0.271922064	0.241454900	0.002343640	0.024178905	0.007452173
2020-08-20T09:15:00	0.1267	15.936	0.0	0.271393287	0.240546647	0.002331797	0.024056717	0.007414514
2020-08-20T09:20:00	0.1265	16.136	0.0	0.271070525	0.239993121	0.002324586	0.023982326	0.007391586
2020-08-20T09:25:00	0.1296	16.889	0.0	0.277337733	0.250858531	0.002467138	0.025453011	0.007844865
2020-08-20T09:30:00	0.1283	16.594	0.0	0.274750987	0.246343918	0.002407650	0.024839280	0.007655707
2020-08-20T09:35:00	0.1276	16.341	0.0	0.273192782	0.243644751	0.002372258	0.024474144	0.007543169
2020-08-20T09:40:00	0.1271	16.436	0.0	0.272252138	0.242022745	0.002351053	0.024255377	0.007475743
2020-08-20T09:45:00	0.1272	16.528	0.0	0.272341484	0.242176569	0.002353062	0.024276103	0.007482131
2020-08-20T09:50:00	0.1271	16.730	0.0	0.272224814	0.241975711	0.002350438	0.024249041	0.007473790
2020-08-20T09:55:00	0.1266	17.042	0.0	0.271283968	0.240359094	0.002329353	0.024031504	0.007406743
2020-08-20T10:00:00	0.1268	16.845	0.0	0.271579386	0.240866099	0.002335961	0.024099675	0.007427754
2020-08-20T10:05:00	0.1265	16.851	0.0	0.270902845	0.239705814	0.002320846	0.023943736	0.007379692
2020-08-20T10:10:00	0.1257	16.950	0.0	0.269401677	0.237141572	0.002287529	0.023600011	0.007273753
2020-08-20T10:15:00	0.1263	17.095	0.0	0.270580047	0.239153224	0.002313656	0.023869559	0.007356830
2020-08-20T10:20:00	0.1257	17.108	0.0	0.269284930	0.236942743	0.002284950	0.023573411	0.007265554
2020-08-20T10:25:00	0.1262	17.175	0.0	0.270463331	0.238953581	0.002311059	0.023842774	0.007348575
2020-08-20T10:30:00	0.1244	17.230	0.0	0.266693539	0.232551528	0.002228193	0.022987858	0.007085081
2020-08-20T10:35:00	0.1252	17.327	0.0	0.268285069	0.235243428	0.002262944	0.023346376	0.007195580
2020-08-20T10:40:00	0.1250	17.403	0.0	0.267814250	0.234445426	0.002252628	0.023239950	0.007162778
2020-08-20T10:45:00	0.1251	17.483	0.0	0.268168292	0.235045369	0.002260383	0.023319951	0.007187435
2020-08-20T10:50:00	0.1244	17.539	0.0	0.266666180	0.232505393	0.002227599	0.022981726	0.007083191
2020-08-20T10:55:00	0.1246	17.642	0.0	0.267020317	0.233102936	0.002235301	0.023061184	0.007107681
2020-08-20T11:00:00	0.1253	17.755	0.0	0.268611726	0.235797905	0.002270119	0.023420396	0.007218393
2020-08-20T11:05:00	0.1256	17.782	0.0	0.269171869	0.236750274	0.002282455	0.023547669	0.007257620
2020-08-20T11:10:00	0.1259	17.784	0.0	0.269731939	0.237704496	0.002294832	0.023675362	0.007296976
2020-08-20T11:15:00	0.1260	17.869	0.0	0.269879703	0.237956578	0.002298105	0.023709124	0.007307382
2020-08-20T11:20:00	0.1260	17.982	0.0	0.270027461	0.238208789	0.002301380	0.023742916	0.007317797
2020-08-20T11:25:00	0.1259	17.976	0.0	0.269762968	0.237757419	0.002295519	0.023682449	0.007299161
2020-08-20T11:30:00	0.1252	18.039	0.0	0.268261410	0.235203294	0.002262425	0.023341021	0.007193929
2020-08-20T11:35:00	0.1241	18.126	0.0	0.266140457	0.231619787	0.002216196	0.022864089	0.007046934
2020-08-20T11:40:00	0.1239	18.134	0.0	0.265669401	0.230827748	0.002206011	0.022759009	0.007014548
2020-08-20T11:45:00	0.1239	18.046	0.0	0.265610977	0.230729610	0.002204750	0.022745998	0.007010537
2020-08-20T11:50:00	0.1260	18.035	0.0	0.269883392	0.237962873	0.002298187	0.023709967	0.007307642
2020-08-20T11:55:00	0.1256	17.859	0.0	0.269206590	0.236809374	0.002283221	0.023555572	0.007260056
2020-08-20T12:00:00	0.1258	17.978	0.0	0.269560519	0.237412229	0.002291040	0.023636232	0.007284916
2020-08-20T12:05:00	0.1261	17.931	0.0	0.270120540	0.238367737	0.002303445	0.023764218	0.007324363
2020-08-20T12:10:00	0.1251	17.958	0.0	0.268206712	0.235110521	0.002261225	0.023328643	0.007190114
2020-08-20T12:15:00	0.1255	17.958	0.0	0.268973082	0.236412065	0.002278072	0.023502451	0.007243684
2020-08-20T12:20:00	0.1258	17.946	0.0	0.269533178	0.237365630	0.002290435	0.023629995	0.007282994
2020-08-20T12:25:00	0.1247	17.953	0.0	0.267206602	0.233417575	0.002239359	0.023103050	0.007120584
2020-08-20T12:30:00	0.1247	18.010	0.0	0.267354451	0.233667452	0.002242583	0.023136313	0.007130836
2020-08-20T12:35:00	0.1244	18.132	0.0	0.266677254	0.232524067	0.002227839	0.022984208	0.007083956
2020-08-20T12:40:00	0.1240	18.141	0.0	0.265793632	0.231036495	0.002208694	0.022786692	0.007023080
2020-08-20T12:45:00	0.1235	18.273	0.0	0.264909824	0.229553530	0.002189650	0.022590213	0.006962523
2020-08-20T12:50:00	0.1227	18.299	0.0	0.263200105	0.226698710	0.002153104	0.022213180	0.006846318
2020-08-20T12:55:00	0.1225	18.299	0.0	0.262728717	0.225914841	0.002143097	0.022109933	0.006814496
2020-08-20T13:00:00	0.1225	18.262	0.0	0.262670251	0.225817716	0.002141858	0.022097149	0.006810556
2020-08-20T13:05:00	0.1223	18.241	0.0	0.262405298	0.225377840	0.002136248	0.022039273	0.006792718
2020-08-20T13:10:00	0.1226	18.200	0.0	0.262966265	0.226309684	0.002148136	0.022161925	0.006830520
2020-08-20T13:15:00	0.1223	18.176	0.0	0.262288357	0.225183834	0.002133775	0.022013758	0.006784854
2020-08-20T13:20:00	0.1224	18.130	0.0	0.262642865	0.225772230	0.002141277	0.022091163	0.006808711
2020-08-20T13:25:00	0.1225	18.158	0.0	0.262790876	0.226018125	0.002144415	0.022123531	0.006818687
2020-08-20T13:30:00	0.1234	18.128	0.0	0.264590270	0.229018552	0.002182790	0.022519438	0.006940710
2020-08-20T13:35:00	0.1228	18.125	0.0	0.263293334	0.226853904	0.002155087	0.022233635	0.006852622
2020-08-20T13:40:00	0.1240	18.244	0.0	0.265917859	0.231245332	0.002211380	0.022814395	0.007031618
2020-08-20T13:45:00	0.1241	18.328	0.0	0.266065753	0.231494084	0.002214579	0.022847404	0.007041792
2020-08-20T13:50:00	0.1242	18.330	0.0	0.266213642	0.231742965	0.002217781	0.022880442	0.007051974
2020-08-20T13:55:00	0.1239	18.342	0.0	0.265742594	0.230950723	0.002207592	0.022775316	0.007019574
2020-08-20T14:00:00	0.1243	18.341	0.0	0.266509405	0.232241115	0.002224195	0.022946605	0.007072367
2020-08-20T14:05:00	0.1243	18.319	0.0	0.266450992	0.232142688	0.002222927	0.022933529	0.007068336
2020-08-20T14:10:00	0.1236	18.257	0.0	0.264948274	0.229617943	0.002190476	0.022598738	0.006965151
2020-08-20T14:15:00	0.1238	18.293	0.0	0.265508897	0.230558192	0.002202547	0.022723275	0.007003534
2020-08-20T14:20:00	0.1233	18.295	0.0	0.264418643	0.228731490	0.002179111	0.022481485	0.006929012
2020-08-20T14:25:00	0.1229	18.254	0.0	0.263534544	0.227255694	0.002160222	0.022286615	0.006868951
2020-08-20T14:30:00	0.1233	18.222	0.0	0.264301759	0.228536098	0.002176608	0.022455660	0.006921052
2020-08-20T14:35:00	0.1235	18.254	0.0	0.264862469	0.229474209	0.002188632	0.022579716	0.006959288
2020-08-20T14:40:00	0.1235	18.225	0.0	0.264804033	0.229376350	0.002187377	0.022566767	0.006955297
2020-08-20T14:45:00	0.1219	18.260	0.0	0.261442281	0.223782757	0.002115936	0.021829719	0.006728131
2020-08-20T14:50:00	0.1216	18.324	0.0	0.260970688	0.223003770	0.002106034	0.021727562	0.006696646
2020-08-20T14:55:00	0.1213	18.287	0.0	0.260292445	0.221885889	0.002091844	0.021581173	0.006651527
2020-08-20T15:00:00	0.1216	18.259	0.0	0.260853705	0.222810752	0.002103582	0.021702268	0.006688850
2020-08-20T15:05:00	0.1213	18.286	0.0	0.260175443	0.221693338	0.002089403	0.021555983	0.006643763
2020-08-20T15:10:00	0.1215	18.276	0.0	0.260736719	0.222617815	0.002101132	0.021676992	0.006681060
2020-08-20T15:15:00	0.1214	18.308	0.0	0.260471640	0.222180956	0.002095587	0.021619788	0.006663429
2020-08-20T15:20:00	0.1209	18.333	0.0	0.259380039	0.220386628	0.002072852	0.021385230	0.006591135
2020-08-20T15:25:00	0.1208	18.321	0.0	0.259321525	0.220290657	0.002071637	0.021372702	0.006587274
2020-08-20T15:30:00	0.1203	18.295	0.0	0.258229606	0.218503715	0.002049061	0.021139781	0.006515486
2020-08-20T15:35:00	0.1206	18.251	0.0	0.258791159	0.219421767	0.002060652	0.021259366	0.006552343
2020-08-20T15:40:00	0.1205	18.291	0.0	0.258525949	0.218987943	0.002055172	0.021202835	0.006534920
2020-08-20T15:45:00	0.1200	18.302	0.0	0.257640553	0.217542838	0.002036946	0.021014800	0.006476965
2020-08-20T15:50:00	0.1200	18.282	0.0	0.257582013	0.217447465	0.002035745	0.021002404	0.006473145
2020-08-20T15:55:00	0.1206	18.217	0.0	0.258763747	0.219376906	0.002060085	0.021253519	0.006550541
2020-08-20T16:00:00	0.1204	18.197	0.0	0.258498535	0.218943125	0.002054607	0.021196997	0.006533120
2020-08-20T16:05:00	0.1202	18.134	0.0	0.258028442	0.218175326	0.002044918	0.021097047	0.006502315
2020-08-20T16:10:00	0.1205	18.110	0.0	0.258591873	0.219095738	0.002056534	0.021216878	0.006539248
2020-08-20T16:15:00	0.1203	18.052	0.0	0.258121791	0.218327681	0.002046840	0.021116871	0.006508425
2020-08-20T16:20:00	0.1196	18.027	0.0	0.256824610	0.216215461	0.002020241	0.020842452	0.006423846
2020-08-20T16:25:00	0.1197	18.033	0.0	0.256974688	0.216459293	0.002023307	0.020874085	0.006433596
2020-08-20T16:30:00	0.1193	18.000	0.0	0.256090788	0.215025258	0.002005291	0.020688219	0.006376310
2020-08-20T16:35:00	0.1185	17.929	0.0	0.254586022	0.212595247	0.001974855	0.020374216	0.006279531
2020-08-20T16:40:00	0.1181	17.895	0.0	0.253701565	0.211173610	0.001957103	0.020191072	0.006223085
2020-08-20T16:45:00	0.1182	17.861	0.0	0.253851766	0.211414690	0.001960111	0.020222101	0.006232648
2020-08-20T16:50:00	0.1184	17.781	0.0	0.254208893	0.211988464	0.001967273	0.020295996	0.006255423
2020-08-20T16:55:00	0.1183	17.760	0.0	0.254152151	0.211897247	0.001966134	0.020284244	0.006251801
2020-08-20T17:00:00	0.1187	17.736	0.0	0.254923043	0.213138257	0.001981646	0.020444278	0.006301125
2020-08-20T17:05:00	0.1197	17.641	0.0	0.256934640	0.216394213	0.002022488	0.020865641	0.006430993
2020-08-20T17:10:00	0.1196	17.613	0.0	0.256671154	0.215966286	0.002017109	0.020810139	0.006413887
2020-08-20T17:15:00	0.1198	17.575	0.0	0.257234781	0.216882204	0.002028628	0.020928978	0.006450514
2020-08-20T17:20:00	0.1197	17.514	0.0	0.256971316	0.216453812	0.002023238	0.020873374	0.006433377
2020-08-20T17:25:00	0.1198	17.471	0.0	0.257121388	0.216697774	0.002026307	0.020905035	0.006443135
2020-08-20T17:30:00	0.1198	17.414	0.0	0.257271454	0.216941868	0.002029379	0.020936725	0.006452902
2020-08-20T17:35:00	0.1195	17.371	0.0	0.256594423	0.215841750	0.002015544	0.020793994	0.006408911
2020-08-20T17:40:00	0.1202	17.360	0.0	0.257985033	0.218104496	0.002044025	0.021087832	0.006499475
2020-08-20T17:45:00	0.1210	17.315	0.0	0.259581789	0.220717692	0.002077042	0.021428459	0.006604459
2020-08-20T17:50:00	0.1210	17.252	0.0	0.259731762	0.220963956	0.002080160	0.021460629	0.006614374
2020-08-20T17:55:00	0.1211	17.247	0.0	0.259881728	0.221210352	0.002083281	0.021492829	0.006624299
2020-08-20T18:00:00	0.1213	17.190	0.0	0.260238297	0.221796766	0.002090714	0.021569512	0.006647933
2020-08-20T18:05:00	0.1214	17.170	0.0	0.260388244	0.222043609	0.002093845	0.021601812	0.006657888
2020-08-20T18:10:00	0.1215	17.149	0.0	0.260744768	0.222631086	0.002101301	0.021678731	0.006681595
2020-08-20T18:15:00	0.1219	17.115	0.0	0.261514355	0.223901935	0.002117452	0.021845359	0.006732952
2020-08-20T18:20:00	0.1219	17.069	0.0	0.261457720	0.223808284	0.002116260	0.021833069	0.006729164
2020-08-20T18:25:00	0.1216	17.009	0.0	0.260987978	0.223032304	0.002106396	0.021731302	0.006697798
2020-08-20T18:30:00	0.1222	16.967	0.0	0.262170547	0.224988474	0.002131285	0.021988074	0.006776938
2020-08-20T18:35:00	0.1225	16.918	0.0	0.262733394	0.225922612	0.002143196	0.022110956	0.006814812
2020-08-20T18:40:00	0.1232	16.923	0.0	0.264121868	0.228235545	0.002172759	0.022415951	0.006908814
2020-08-20T18:45:00	0.1237	16.877	0.0	0.265303536	0.230213542	0.002198121	0.022677606	0.006989458
2020-08-20T18:50:00	0.1245	16.834	0.0	0.266897431	0.232895498	0.002232626	0.023033592	0.007099177
2020-08-20T18:55:00	0.1246	16.796	0.0	0.267047136	0.233148221	0.002235884	0.023067208	0.007109538
2020-08-20T19:00:00	0.1246	16.760	0.0	0.266990577	0.233052724	0.002234653	0.023054504	0.007105622
2020-08-20T19:05:00	0.1246	16.731	0.0	0.267140279	0.233305530	0.002237913	0.023088139	0.007115989
2020-08-20T19:10:00	0.1242	16.699	0.0	0.266258599	0.231818650	0.002218755	0.022890491	0.007055072
2020-08-20T19:15:00	0.1244	16.680	0.0	0.266614615	0.232418453	0.002226479	0.022970171	0.007079630
2020-08-20T19:20:00	0.1238	16.644	0.0	0.265526494	0.230587739	0.002202927	0.022727191	0.007004741
2020-08-20T19:25:00	0.1234	16.615	0.0	0.264644477	0.229109257	0.002183952	0.022531434	0.006944407
2020-08-20T19:30:00	0.1228	16.577	0.0	0.263349406	0.226947271	0.002156280	0.022245944	0.006856416
2020-08-20T19:35:00	0.1230	16.548	0.0	0.263705669	0.227540963	0.002163870	0.022324250	0.006880551
2020-08-20T19:40:00	0.1226	16.527	0.0	0.263029731	0.226415233	0.002149484	0.022175828	0.006834806
2020-08-20T19:45:00	0.1228	16.499	0.0	0.263386022	0.227008254	0.002157059	0.022253984	0.006858894
2020-08-20T19:50:00	0.1227	16.468	0.0	0.263122963	0.226570334	0.002151465	0.022196263	0.006841104
2020-08-20T19:55:00	0.1224	16.443	0.0	0.262446928	0.225446926	0.002137128	0.022048360	0.006795519
2020-08-20T20:00:00	0.1223	16.408	0.0	0.262390306	0.225352964	0.002135930	0.022036001	0.006791709
2020-08-20T20:05:00	0.1219	16.379	0.0	0.261507618	0.223890793	0.002117310	0.021843896	0.006732501
2020-08-20T20:10:00	0.1220	16.360	0.0	0.261657518	0.224138756	0.002120465	0.021876445	0.006742533
2020-08-20T20:15:00	0.1221	16.339	0.0	0.262013930	0.224728897	0.002127978	0.021953957	0.006766423
2020-08-20T20:20:00	0.1214	16.318	0.0	0.260511441	0.222246522	0.002096419	0.021628371	0.006666074
2020-08-20T20:25:00	0.1206	16.299	0.0	0.258801716	0.219439046	0.002060870	0.021261618	0.006553037
2020-08-20T20:30:00	0.1203	16.282	0.0	0.258124952	0.218332841	0.002046905	0.021117542	0.006508632
2020-08-20T20:35:00	0.1207	16.264	0.0	0.259101714	0.219930330	0.002067080	0.021325684	0.006572783
2020-08-20T20:40:00	0.1203	16.242	0.0	0.258218298	0.218485249	0.002048828	0.021137378	0.006514745
2020-08-20T20:45:00	0.1203	16.222	0.0	0.258161616	0.218392697	0.002047660	0.021125332	0.006511032
2020-08-20T20:50:00	0.1386	16.202	0.0	0.295772352	0.284253392	0.002918117	0.030105674	0.009278861
2020-08-20T20:55:00	0.1382	16.183	0.0	0.295100912	0.282999466	0.002900846	0.029927490	0.009223943
2020-08-20T21:00:00	0.1383	16.162	0.0	0.295249756	0.283277190	0.002904669	0.029966932	0.009236099
2020-08-20T21:05:00	0.1381	16.142	0.0	0.294783351	0.282407404	0.002892700	0.029843450	0.009198041
2020-08-20T21:10:00	0.1380	16.123	0.0	0.294727112	0.282302619	0.002891259	0.029828582	0.009193459
2020-08-20T21:15:00	0.1378	16.104	0.0	0.294260663	0.281434289	0.002879323	0.029705449	0.009155508
2020-08-20T21:20:00	0.1380	16.086	0.0	0.294614632	0.282093104	0.002888378	0.029798861	0.009184298
2020-08-20T21:25:00	0.1382	16.070	0.0	0.294968580	0.282752668	0.002897449	0.029892451	0.009213144
2020-08-20T21:30:00	0.1377	16.058	0.0	0.294091928	0.281120516	0.002875014	0.029660986	0.009141804
2020-08-20T21:35:00	0.1380	16.046	0.0	0.294651011	0.282160857	0.002889309	0.029808471	0.009187260
2020-08-20T21:40:00	0.1387	16.036	0.0	0.296030287	0.284735846	0.002924769	0.030174301	0.009300013
2020-08-20T21:45:00	0.1389	16.026	0.0	0.296589177	0.285782658	0.002939215	0.030323341	0.009345948
2020-08-20T21:50:00	0.1395	16.012	0.0	0.297763000	0.287987668	0.002969703	0.030637879	0.009442892
2020-08-20T21:55:00	0.1393	15.997	0.0	0.297296801	0.287110881	0.002957571	0.030512710	0.009404314
2020-08-20T22:00:00	0.1391	15.990	0.0	0.296830565	0.286235393	0.002945469	0.030387856	0.009365832
2020-08-20T22:05:00	0.1401	15.978	0.0	0.298851369	0.290039915	0.002998149	0.030931353	0.009533343
2020-08-20T22:10:00	0.1402	15.971	0.0	0.299232234	0.290759844	0.003008144	0.031034469	0.009565125
2020-08-20T22:15:00	0.1403	15.963	0.0	0.299408150	0.291092679	0.003012768	0.031082171	0.009579827
2020-08-20T22:20:00	0.1404	15.949	0.0	0.299584061	0.291425698	0.003017396	0.031129917	0.009594543
2020-08-20T22:25:00	0.1400	15.943	0.0	0.298735304	0.289820704	0.002995108	0.030899972	0.009523671
2020-08-20T22:30:00	0.1405	15.922	0.0	0.299730955	0.291703935	0.003021264	0.031169823	0.009606842
2020-08-20T22:35:00	0.1399	15.917	0.0	0.298472313	0.289324314	0.002988223	0.030828941	0.009501779
2020-08-20T22:40:00	0.1401	15.910	0.0	0.298853203	0.290043379	0.002998197	0.030931849	0.009533496
2020-08-20T22:45:00	0.1407	15.899	0.0	0.300258643	0.292704568	0.003035185	0.031313443	0.009651107
2020-08-20T22:50:00	0.1409	15.886	0.0	0.300639416	0.293427702	0.003045255	0.031417337	0.009683128
2020-08-20T22:55:00	0.1414	15.874	0.0	0.301634744	0.295322272	0.003071678	0.031689940	0.009767147
2020-08-20T23:00:00	0.1417	15.866	0.0	0.302220262	0.296439700	0.003087290	0.031850999	0.009816787
2020-08-20T23:05:00	0.1416	15.852	0.0	0.301986428	0.295993182	0.003081049	0.031786617	0.009796944
2020-08-20T23:10:00	0.1406	15.837	0.0	0.299908690	0.292040770	0.003025948	0.031218150	0.009621737
2020-08-20T23:15:00	0.1403	15.814	0.0	0.299264915	0.290821663	0.003009003	0.031043328	0.009567855
2020-08-20T23:20:00	0.1410	15.799	0.0	0.300875136	0.293875821	0.003051500	0.031481762	0.009702985
2020-08-20T23:25:00	0.1409	15.782	0.0	0.300641249	0.293431186	0.003045304	0.031417838	0.009683283
2020-08-20T23:30:00	0.1406	15.767	0.0	0.299997555	0.292209258	0.003028292	0.031242331	0.009629190
2020-08-20T23:35:00	0.1406	15.755	0.0	0.299968545	0.292154249	0.003027527	0.031234436	0.009626756
2020-08-20T23:40:00	0.1400	15.743	0.0	0.298709954	0.289772839	0.002994443	0.030893121	0.009521560
2020-08-20T23:45:00	0.1400	15.727	0.0	0.298680938	0.289718053	0.002993683	0.030885280	0.009519143
2020-08-20T23:50:00	0.1403	15.721	0.0	0.299266749	0.290825132	0.003009051	0.031043825	0.009568008
2020-08-20T23:55:00	0.1400	15.710	0.0	0.298827854	0.289995497	0.002997533	0.030924993	0.009531383
2020-08-21T00:00:00	0.1394	15.702	0.0	0.297569016	0.287622673	0.002964651	0.030585757	0.009426827
2020-08-21T00:05:00	0.1390	15.693	0.0	0.296719962	0.286027906	0.002942602	0.030358285	0.009356718
2020-08-21T00:10:00	0.1388	15.683	0.0	0.296280873	0.285204954	0.002931240	0.030241068	0.009320591
2020-08-21T00:15:00	0.1383	15.673	0.0	0.295226552	0.283233884	0.002904073	0.029960781	0.009234204
2020-08-21T00:20:00	0.1385	15.657	0.0	0.295607658	0.283945560	0.002913875	0.030061906	0.009265371
2020-08-21T00:25:00	0.1388	15.650	0.0	0.296193784	0.285041876	0.002928990	0.030217853	0.009313436
2020-08-21T00:30:00	0.1392	15.641	0.0	0.297189876	0.286909978	0.002954792	0.030484048	0.009395480
2020-08-21T00:35:00	0.1382	15.633	0.0	0.295110412	0.283017188	0.002901090	0.029930007	0.009224719
2020-08-21T00:40:00	0.1374	15.622	0.0	0.293440477	0.279910780	0.002858413	0.029489718	0.009089017
2020-08-21T00:45:00	0.1381	15.611	0.0	0.294847255	0.282526496	0.002894338	0.029860350	0.009203250
2020-08-21T00:50:00	0.1377	15.603	0.0	0.293997790	0.280945537	0.002872611	0.029636198	0.009134164
2020-08-21T00:55:00	0.1377	15.588	0.0	0.293968749	0.280891568	0.002871870	0.029628554	0.009131808
2020-08-21T01:00:00	0.1376	15.576	0.0	0.293734580	0.280456593	0.002865900	0.029566961	0.009112824
2020-08-21T01:05:00	0.1374	15.570	0.0	0.293500400	0.280021945	0.002859937	0.029505446	0.009093865
2020-08-21T01:10:00	0.1373	15.556	0.0	0.293266211	0.279587624	0.002853982	0.029444009	0.009074930
2020-08-21T01:15:00	0.1375	15.546	0.0	0.293647452	0.280294839	0.002863681	0.029544064	0.009105768
2020-08-21T01:20:00	0.1373	15.539	0.0	0.293208121	0.279479946	0.002852506	0.029428782	0.009070237
2020-08-21T01:25:00	0.1376	15.529	0.0	0.293794500	0.280567863	0.002867427	0.029582714	0.009117680
2020-08-21T01:30:00	0.1377	15.523	0.0	0.293970584	0.280894979	0.002871917	0.029629037	0.009131957
2020-08-21T01:35:00	0.1372	15.520	0.0	0.292915827	0.278938457	0.002845087	0.029352241	0.009046646
2020-08-21T01:40:00	0.1366	15.515	0.0	0.291860866	0.276988574	0.002818412	0.029077032	0.008961824
2020-08-21T01:45:00	0.1362	15.514	0.0	0.291010939	0.275422758	0.002797036	0.028856502	0.008893854
2020-08-21T01:50:00	0.1363	15.516	0.0	0.291187114	0.275746949	0.002801458	0.028902126	0.008907916
2020-08-21T01:55:00	0.1368	15.514	0.0	0.292184104	0.277585268	0.002826568	0.029161181	0.008987759
2020-08-21T02:00:00	0.1377	15.512	0.0	0.294001461	0.280952359	0.002872705	0.029637165	0.009134462
2020-08-21T02:05:00	0.1374	15.516	0.0	0.293357016	0.279755987	0.002856290	0.029467821	0.009082269
2020-08-21T02:10:00	0.1387	15.515	0.0	0.295994243	0.284668402	0.002923839	0.030164705	0.009297055
2020-08-21T02:15:00	0.1386	15.512	0.0	0.295965213	0.284614087	0.002923090	0.030156978	0.009294673
2020-08-21T02:20:00	0.1387	15.507	0.0	0.296141229	0.284943486	0.002927633	0.030203849	0.009309120
2020-08-21T02:25:00	0.1389	15.502	0.0	0.296522274	0.285657244	0.002937483	0.030305475	0.009340442
2020-08-21T02:30:00	0.1386	15.496	0.0	0.295878120	0.284451173	0.002920843	0.030133803	0.009287531
2020-08-21T02:35:00	0.1388	15.489	0.0	0.296259182	0.285164332	0.002930680	0.030235285	0.009318808
2020-08-21T02:40:00	0.1386	15.481	0.0	0.295820057	0.284342589	0.002919346	0.030118359	0.009282771
2020-08-21T02:45:00	0.1385	15.473	0.0	0.295585965	0.283905026	0.002913316	0.030056144	0.009263596
2020-08-21T02:50:00	0.1381	15.461	0.0	0.294941704	0.282702558	0.002896760	0.029885338	0.009210951
2020-08-21T02:55:00	0.1374	15.447	0.0	0.293476863	0.279978278	0.002859338	0.029499267	0.009091961
2020-08-21T03:00:00	0.1374	15.434	0.0	0.293447820	0.279924400	0.002858600	0.029491645	0.009089611
2020-08-21T03:05:00	0.1374	15.420	0.0	0.293418776	0.279870527	0.002857861	0.029484023	0.009087262
2020-08-21T03:10:00	0.1379	15.408	0.0	0.294415360	0.281722118	0.002883278	0.029746251	0.009168083
2020-08-21T03:15:00	0.1380	15.391	0.0	0.294591425	0.282049887	0.002887784	0.029792731	0.009182409
2020-08-21T03:20:00	0.1381	15.380	0.0	0.294767485	0.282377841	0.002892293	0.029839255	0.009196748
2020-08-21T03:25:00	0.1379	15.372	0.0	0.294533349	0.281941749	0.002886297	0.029777394	0.009177682
2020-08-21T03:30:00	0.1385	15.365	0.0	0.295734796	0.284183181	0.002917149	0.030095690	0.009275784
2020-08-21T03:35:00	0.1382	15.359	0.0	0.295090552	0.282980141	0.002900580	0.029924746	0.009223097
2020-08-21T03:40:00	0.1381	15.353	0.0	0.294856430	0.282543597	0.002894573	0.029862777	0.009203998
2020-08-21T03:45:00	0.1384	15.344	0.0	0.295442635	0.283637283	0.002909628	0.030018091	0.009251867
2020-08-21T03:50:00	0.1386	15.337	0.0	0.295823726	0.284349451	0.002919441	0.030119335	0.009283071
2020-08-21T03:55:00	0.1384	15.327	0.0	0.295384567	0.283528850	0.002908134	0.030002684	0.009247118
2020-08-21T04:00:00	0.1388	15.315	0.0	0.296380802	0.285392137	0.002933824	0.030267719	0.009328805
2020-08-21T04:05:00	0.1392	15.306	0.0	0.297052089	0.286651195	0.002951215	0.030447138	0.009384104
2020-08-21T04:10:00	0.1394	15.297	0.0	0.297518308	0.287527301	0.002963331	0.030572142	0.009422631
2020-08-21T04:15:00	0.1394	15.287	0.0	0.297574519	0.287633024	0.002964794	0.030587235	0.009427283
2020-08-21T04:20:00	0.1397	15.276	0.0	0.298040695	0.288510585	0.002976945	0.030712590	0.009465918
2020-08-21T04:25:00	0.1401	15.263	0.0	0.298916736	0.290163410	0.002999863	0.030949035	0.009538793
2020-08-21T04:30:00	0.1403	15.259	0.0	0.299382804	0.291044712	0.003012101	0.031075295	0.009577708
2020-08-21T04:35:00	0.1398	15.251	0.0	0.298414277	0.289214830	0.002986705	0.030813280	0.009496952
2020-08-21T04:40:00	0.1401	15.241	0.0	0.298880385	0.290094731	0.002998910	0.030939201	0.009535762
2020-08-21T04:45:00	0.1403	15.228	0.0	0.299346456	0.290975931	0.003011146	0.031065436	0.009574669
2020-08-21T04:50:00	0.1406	15.226	0.0	0.300017398	0.292246887	0.003028816	0.031247732	0.009630854
2020-08-21T04:55:00	0.1411	15.221	0.0	0.301098014	0.294299850	0.003057412	0.031542754	0.009721783
2020-08-21T05:00:00	0.1414	15.218	0.0	0.301563909	0.295187232	0.003069793	0.031670491	0.009761153
2020-08-21T05:05:00	0.1413	15.217	0.0	0.301415227	0.294903892	0.003065838	0.031629691	0.009748578
2020-08-21T05:10:00	0.1410	15.217	0.0	0.300856804	0.293840958	0.003051014	0.031476749	0.009701440
2020-08-21T05:15:00	0.1415	15.215	0.0	0.301732424	0.295508537	0.003074279	0.031716773	0.009775418
2020-08-21T05:20:00	0.1409	15.223	0.0	0.300559402	0.293275670	0.003043137	0.031395487	0.009676394
2020-08-21T05:25:00	0.1414	15.235	0.0	0.301639918	0.295332136	0.003071816	0.031691361	0.009767585
2020-08-21T05:30:00	0.1413	15.250	0.0	0.301491239	0.295048729	0.003067860	0.031650545	0.009755005
2020-08-21T05:35:00	0.1415	15.267	0.0	0.301752261	0.295546372	0.003074808	0.031722224	0.009777098
2020-08-21T05:40:00	0.1414	15.295	0.0	0.301603584	0.295262865	0.003070849	0.031681384	0.009764510
2020-08-21T05:45:00	0.1414	15.330	0.0	0.301659756	0.295369961	0.003072344	0.031696810	0.009769265
2020-08-21T05:50:00	0.1410	15.359	0.0	0.300691605	0.293526888	0.003046637	0.031431594	0.009687522
2020-08-21T05:55:00	0.1412	15.394	0.0	0.301157532	0.294413137	0.003058992	0.031559054	0.009726807
2020-08-21T06:00:00	0.1417	15.419	0.0	0.302237940	0.296473471	0.003087762	0.031855870	0.009818289
2020-08-21T06:05:00	0.1425	15.468	0.0	0.303932497	0.299719813	0.003133229	0.032324950	0.009962863
2020-08-21T06:10:00	0.1423	15.523	0.0	0.303374308	0.298648464	0.003118206	0.032169956	0.009915093
2020-08-21T06:15:00	0.1421	15.588	0.0	0.303020873	0.297971122	0.003108717	0.032072060	0.009884920
2020-08-21T06:20:00	0.1412	15.641	0.0	0.301233547	0.294557856	0.003061010	0.031579880	0.009733226
2020-08-21T06:25:00	0.1418	15.706	0.0	0.302518764	0.297010206	0.003095268	0.031933307	0.009842155
2020-08-21T06:30:00	0.1422	15.764	0.0	0.303189347	0.298293897	0.003113238	0.032118701	0.009899296
2020-08-21T06:35:00	0.1420	15.816	0.0	0.302835901	0.297616946	0.003103758	0.032020900	0.009869153
2020-08-21T06:40:00	0.1421	15.863	0.0	0.303096864	0.298116690	0.003110756	0.032093092	0.009891403
2020-08-21T06:45:00	0.1412	15.919	0.0	0.301104697	0.294312569	0.003057589	0.031544584	0.009722347
2020-08-21T06:50:00	0.1416	15.967	0.0	0.301980280	0.295981446	0.003080885	0.031784925	0.009796423
2020-08-21T06:55:00	0.1416	16.060	0.0	0.302036448	0.296088669	0.003082383	0.031800382	0.009801187
2020-08-21T07:00:00	0.1418	16.114	0.0	0.302502269	0.296978668	0.003094827	0.031928756	0.009840753
2020-08-21T07:05:00	0.1418	16.161	0.0	0.302353612	0.296694493	0.003090852	0.031887752	0.009828115
2020-08-21T07:10:00	0.1420	16.263	0.0	0.302819408	0.297585376	0.003103316	0.032016341	0.009867747
2020-08-21T07:15:00	0.1423	16.341	0.0	0.303489958	0.298870273	0.003121315	0.032202030	0.009924978
2020-08-21T07:20:00	0.1430	16.418	0.0	0.304979432	0.301734526	0.003161530	0.032616925	0.010052853
2020-08-21T07:25:00	0.1434	16.512	0.0	0.305649744	0.303028098	0.003179735	0.032804738	0.010110739
2020-08-21T07:30:00	0.1440	16.590	0.0	0.306934028	0.305514431	0.003214798	0.033166481	0.010222232
2020-08-21T07:35:00	0.1433	16.713	0.0	0.305557299	0.302849528	0.003177220	0.032778795	0.010102743
2020-08-21T07:40:00	0.1434	16.782	0.0	0.305613434	0.302957954	0.003178747	0.032794547	0.010107598
2020-08-21T07:45:00	0.1429	16.899	0.0	0.304645918	0.301091965	0.003152497	0.032523733	0.010024130
2020-08-21T07:50:00	0.1431	17.023	0.0	0.305111539	0.301989242	0.003165113	0.032653886	0.010064245
2020-08-21T07:55:00	0.1439	17.078	0.0	0.306805298	0.305264746	0.003211273	0.033130109	0.010211021
2020-08-21T08:00:00	0.1440	17.173	0.0	0.306861422	0.305373592	0.003212810	0.033145964	0.010215908
2020-08-21T08:05:00	0.1445	17.305	0.0	0.307940821	0.307470826	0.003242456	0.033451819	0.010310175
2020-08-21T08:10:00	0.1450	17.444	0.0	0.309020034	0.309575046	0.003272269	0.033759397	0.010404974
2020-08-21T08:15:00	0.1456	17.600	0.0	0.310303630	0.312087331	0.003307953	0.034127543	0.010518440
2020-08-21T08:20:00	0.1464	17.693	0.0	0.311791488	0.315012406	0.003349622	0.034557433	0.010650936
2020-08-21T08:25:00	0.1474	17.755	0.0	0.313892385	0.319166470	0.003409022	0.035170248	0.010839812
2020-08-21T08:30:00	0.1480	17.867	0.0	0.315175023	0.321716296	0.003445611	0.035547732	0.010956156
2020-08-21T08:35:00	0.1490	17.894	0.0	0.317121542	0.325503404	0.003500510	0.036114118	0.011130722
2020-08-21T08:40:00	0.1498	18.123	0.0	0.319560516	0.328895750	0.003555104	0.036677353	0.011304316
2020-08-21T08:45:00	0.1507	18.139	0.0	0.322288977	0.332708759	0.003616761	0.037313459	0.011500371
2020-08-21T08:50:00	0.1507	18.143	0.0	0.322369564	0.332821670	0.003618592	0.037332344	0.011506191
2020-08-21T08:55:00	0.1503	18.317	0.0	0.320980022	0.330877123	0.003587105	0.037007498	0.011406070
2020-08-21T09:00:00	0.1493	18.717	0.0	0.318115759	0.326884418	0.003522705	0.036343102	0.011201297
2020-08-21T09:05:00	0.1492	19.175	0.0	0.317901766	0.326586959	0.003517921	0.036293744	0.011186085
2020-08-21T09:10:00	0.1497	19.464	0.0	0.319456042	0.328750125	0.003552755	0.036653122	0.011296848
2020-08-21T09:15:00	0.1506	19.435	0.0	0.321890760	0.332151066	0.003607724	0.037220223	0.011471634
2020-08-21T09:20:00	0.1499	19.400	0.0	0.319912008	0.329385888	0.003563012	0.036758941	0.011329463
2020-08-21T09:25:00	0.1502	19.856	0.0	0.320875658	0.330731275	0.003584746	0.036983166	0.011398571
2020-08-21T09:30:00	0.1504	19.643	0.0	0.321250490	0.331255233	0.003593221	0.037070598	0.011425518
2020-08-21T09:35:00	0.1500	19.409	0.0	0.320154186	0.329723778	0.003568467	0.036815217	0.011346808
2020-08-21T09:40:00	0.1499	19.314	0.0	0.319940519	0.329425660	0.003563654	0.036765564	0.011331504
2020-08-21T09:45:00	0.1492	19.304	0.0	0.317958874	0.326666330	0.003519198	0.036306913	0.011190143
2020-08-21T09:50:00	0.1494	19.493	0.0	0.318334526	0.327188633	0.003527600	0.036393600	0.011216861
2020-08-21T09:55:00	0.1481	19.517	0.0	0.315310254	0.321985733	0.003449483	0.035587679	0.010968468
2020-08-21T10:00:00	0.1481	19.482	0.0	0.315366304	0.322097442	0.003451089	0.035604245	0.010973574
2020-08-21T10:05:00	0.1476	19.490	0.0	0.314342373	0.320059843	0.003421830	0.035302391	0.010880540
2020-08-21T10:10:00	0.1467	19.506	0.0	0.312500362	0.316410937	0.003369591	0.034763446	0.010714432
2020-08-21T10:15:00	0.1475	19.437	0.0	0.314134275	0.319646542	0.003415903	0.035241242	0.010861693
2020-08-21T10:20:00	0.1470	19.458	0.0	0.313110154	0.317616526	0.003386828	0.034941282	0.010769243
2020-08-21T10:25:00	0.1464	19.502	0.0	0.311881364	0.315189546	0.003352150	0.034583510	0.010658974
2020-08-21T10:30:00	0.1468	19.458	0.0	0.312697533	0.316800498	0.003375158	0.034820885	0.010732135
2020-08-21T10:35:00	0.1463	19.532	0.0	0.311673188	0.314779322	0.003346297	0.034523128	0.010640363
2020-08-21T10:40:00	0.1467	19.624	0.0	0.312489384	0.316389253	0.003369281	0.034760249	0.010713446
2020-08-21T10:45:00	0.1465	19.602	0.0	0.312078554	0.315578373	0.003357699	0.034640767	0.010676621
2020-08-21T10:50:00	0.1462	19.664	0.0	0.311463176	0.314365755	0.003340399	0.034462281	0.010621610
2020-08-21T10:55:00	0.1471	19.735	0.0	0.313301818	0.317995940	0.003392258	0.034997297	0.010786507
2020-08-21T11:00:00	0.1468	19.694	0.0	0.312686555	0.316778801	0.003374848	0.034817685	0.010731149
2020-08-21T11:05:00	0.1473	19.755	0.0	0.313707083	0.318798957	0.003403756	0.035115923	0.010823068
2020-08-21T11:10:00	0.1473	19.733	0.0	0.313705253	0.318795329	0.003403704	0.035115387	0.010822903
2020-08-21T11:15:00	0.1471	19.806	0.0	0.313294500	0.317981449	0.003392050	0.034995157	0.010785847
2020-08-21T11:20:00	0.1468	19.845	0.0	0.312679236	0.316764337	0.003374641	0.034815552	0.010730491
2020-08-21T11:25:00	0.1475	19.944	0.0	0.314108664	0.319595697	0.003415174	0.035233721	0.010859375
2020-08-21T11:30:00	0.1467	19.997	0.0	0.312471086	0.316353115	0.003368764	0.034754922	0.010711805
2020-08-21T11:35:00	0.1464	20.152	0.0	0.311855745	0.315139047	0.003351429	0.034576075	0.010656682
2020-08-21T11:40:00	0.1476	20.155	0.0	0.314307617	0.319990796	0.003420840	0.035292173	0.010877391
2020-08-21T11:45:00	0.1470	20.167	0.0	0.313079051	0.317554977	0.003385948	0.034932198	0.010766443
2020-08-21T11:50:00	0.1464	20.196	0.0	0.311850255	0.315128226	0.003351275	0.034574482	0.010656191
2020-08-21T11:55:00	0.1462	20.306	0.0	0.311439385	0.314318923	0.003339731	0.034455392	0.010619486
2020-08-21T12:00:00	0.1468	20.779	0.0	0.312664598	0.316735410	0.003374228	0.034811286	0.010729177
2020-08-21T12:05:00	0.1466	20.523	0.0	0.312253780	0.315924097	0.003362636	0.034691696	0.010692318
2020-08-21T12:10:00	0.1467	20.344	0.0	0.312456448	0.316324207	0.003368351	0.034750661	0.010710491
2020-08-21T12:15:00	0.1466	20.298	0.0	0.312250120	0.315916875	0.003362533	0.034690632	0.010691990
2020-08-21T12:20:00	0.1464	20.248	0.0	0.311839276	0.315106585	0.003350966	0.034571296	0.010655209
2020-08-21T12:25:00	0.1460	20.164	0.0	0.311019339	0.313492644	0.003327956	0.034333910	0.010582044
2020-08-21T12:30:00	0.1463	20.197	0.0	0.311631098	0.314696414	0.003345114	0.034510928	0.010636603
2020-08-21T12:35:00	0.1463	20.181	0.0	0.311629268	0.314692809	0.003345063	0.034510397	0.010636440
2020-08-21T12:40:00	0.1462	20.213	0.0	0.311422915	0.314286503	0.003339269	0.034450623	0.010618017
2020-08-21T12:45:00	0.1460	20.286	0.0	0.311012018	0.313478254	0.003327751	0.034331795	0.010581393
2020-08-21T12:50:00	0.1451	20.277	0.0	0.309169065	0.309866199	0.003276400	0.033802011	0.010418108
2020-08-21T12:55:00	0.1447	20.319	0.0	0.308348786	0.308265402	0.003253706	0.033567881	0.010345947
2020-08-21T13:00:00	0.1439	20.362	0.0	0.306709741	0.305079469	0.003208657	0.033103126	0.010202705
2020-08-21T13:05:00	0.1432	20.482	0.0	0.305274993	0.302304551	0.003169549	0.032699653	0.010078351
2020-08-21T13:10:00	0.1425	20.413	0.0	0.303839910	0.299541971	0.003130734	0.032299208	0.009954930
2020-08-21T13:15:00	0.1426	20.346	0.0	0.304042848	0.299931846	0.003136205	0.032355647	0.009972325
2020-08-21T13:20:00	0.1423	20.425	0.0	0.303426682	0.298748905	0.003119614	0.032184479	0.009919569
2020-08-21T13:25:00	0.1414	20.502	0.0	0.301581473	0.295220713	0.003070261	0.031675312	0.009762639
2020-08-21T13:30:00	0.1420	20.595	0.0	0.302808621	0.297564730	0.003103027	0.032013360	0.009866828
2020-08-21T13:35:00	0.1408	20.670	0.0	0.300348571	0.292875269	0.003037561	0.031337960	0.009658664
2020-08-21T13:40:00	0.1418	20.588	0.0	0.302395323	0.296774215	0.003091967	0.031899254	0.009831660
2020-08-21T13:45:00	0.1413	20.562	0.0	0.301369286	0.294816370	0.003064617	0.031617090	0.009744694
2020-08-21T13:50:00	0.1413	20.541	0.0	0.301367453	0.294812879	0.003064568	0.031616588	0.009744539
2020-08-21T13:55:00	0.1406	20.500	0.0	0.299931434	0.292083888	0.003026548	0.031224338	0.009623644
2020-08-21T14:00:00	0.1404	20.577	0.0	0.299519769	0.291303964	0.003015704	0.031112461	0.009589163
2020-08-21T14:05:00	0.1394	20.630	0.0	0.297468342	0.287433340	0.002962031	0.030558729	0.009418497
2020-08-21T14:10:00	0.1398	20.595	0.0	0.298286433	0.288973729	0.002983362	0.030778799	0.009486325
2020-08-21T14:15:00	0.1391	20.572	0.0	0.296849652	0.286271208	0.002945963	0.030392961	0.009367406
2020-08-21T14:20:00	0.1386	20.757	0.0	0.295822635	0.284347410	0.002919413	0.030119044	0.009282982
2020-08-21T14:25:00	0.1391	20.723	0.0	0.296845984	0.286264324	0.002945868	0.030391980	0.009367103
2020-08-21T14:30:00	0.1387	20.623	0.0	0.296024017	0.284724112	0.002924607	0.030172632	0.009299498
2020-08-21T14:35:00	0.1380	20.657	0.0	0.294586663	0.282041019	0.002887662	0.029791473	0.009182021
2020-08-21T14:40:00	0.1381	20.629	0.0	0.294789925	0.282419654	0.002892868	0.029845188	0.009198577
2020-08-21T14:45:00	0.1385	20.615	0.0	0.295608402	0.283946949	0.002913894	0.030062104	0.009265432
2020-08-21T14:50:00	0.1388	20.607	0.0	0.296221722	0.285094186	0.002929712	0.030225299	0.009315731
2020-08-21T14:55:00	0.1387	20.643	0.0	0.296014843	0.284706947	0.002924370	0.030170189	0.009298745
2020-08-21T15:00:00	0.1390	20.663	0.0	0.296628120	0.285855673	0.002940223	0.030333743	0.009349154
2020-08-21T15:05:00	0.1391	20.572	0.0	0.296831308	0.286236787	0.002945488	0.030388055	0.009365894
2020-08-21T15:10:00	0.1396	20.543	0.0	0.297854475	0.288159868	0.002972087	0.030662476	0.009450473
2020-08-21T15:15:00	0.1396	20.621	0.0	0.297852641	0.288156414	0.002972039	0.030661983	0.009450321
2020-08-21T15:20:00	0.1397	20.551	0.0	0.298055785	0.288539015	0.002977339	0.030716653	0.009467171
2020-08-21T15:25:00	0.1402	20.519	0.0	0.299078735	0.290469583	0.003004113	0.030992884	0.009552308
2020-08-21T15:30:00	0.1407	20.428	0.0	0.300101504	0.292406409	0.003031035	0.031270631	0.009637912
2020-08-21T15:35:00	0.1405	20.424	0.0	0.299689851	0.291626065	0.003020181	0.031158653	0.009603399
2020-08-21T15:40:00	0.1409	20.416	0.0	0.300507629	0.293177319	0.003041767	0.031381354	0.009672038
2020-08-21T15:45:00	0.1404	20.364	0.0	0.299481263	0.291231067	0.003014691	0.031102010	0.009585941
2020-08-21T15:50:00	0.1401	20.325	0.0	0.298864624	0.290064954	0.002998497	0.030934938	0.009534448
2020-08-21T15:55:00	0.1399	20.419	0.0	0.298452883	0.289287656	0.002987714	0.030823698	0.009500163
2020-08-21T16:00:00	0.1403	20.384	0.0	0.299270834	0.290832860	0.003009158	0.031044932	0.009568350
2020-08-21T16:05:00	0.1399	20.372	0.0	0.298456551	0.289294576	0.002987810	0.030824687	0.009500468
2020-08-21T16:10:00	0.1396	20.326	0.0	0.297847139	0.288146055	0.002971896	0.030660503	0.009449865
2020-08-21T16:15:00	0.1386	20.303	0.0	0.295802452	0.284309670	0.002918893	0.030113677	0.009281328
2020-08-21T16:20:00	0.1378	20.271	0.0	0.294167271	0.281260598	0.002876938	0.029680835	0.009147921
2020-08-21T16:25:00	0.1375	20.225	0.0	0.293557395	0.280127698	0.002861388	0.029520410	0.009098477
2020-08-21T16:30:00	0.1373	20.225	0.0	0.293152610	0.279377067	0.002851096	0.029414236	0.009065753
2020-08-21T16:35:00	0.1366	20.167	0.0	0.291721855	0.276732163	0.002814908	0.029040890	0.008950684
2020-08-21T16:40:00	0.1362	20.114	0.0	0.290906473	0.275230615	0.002794415	0.028829469	0.008885522
2020-08-21T16:45:00	0.1357	20.045	0.0	0.289885694	0.273356730	0.002768894	0.028566165	0.008804369
2020-08-21T16:50:00	0.1356	19.894	0.0	0.289685923	0.272990772	0.002763916	0.028514814	0.008788543
2020-08-21T16:55:00	0.1352	19.911	0.0	0.288870231	0.271499122	0.002743651	0.028305746	0.008724106
2020-08-21T17:00:00	0.1352	19.880	0.0	0.288875742	0.271509187	0.002743788	0.028307155	0.008724540
2020-08-21T17:05:00	0.1353	19.894	0.0	0.289086566	0.271894323	0.002749017	0.028361099	0.008741166
2020-08-21T17:10:00	0.1356	19.854	0.0	0.289707965	0.273031138	0.002764465	0.028520477	0.008790288
2020-08-21T17:15:00	0.1348	19.782	0.0	0.288070949	0.270041551	0.002723886	0.028101827	0.008661256
2020-08-21T17:20:00	0.1349	19.735	0.0	0.288281805	0.270425677	0.002729091	0.028155531	0.008677808
2020-08-21T17:25:00	0.1356	19.641	0.0	0.289724497	0.273061415	0.002764877	0.028524725	0.008791597
2020-08-21T17:30:00	0.1356	19.576	0.0	0.289730007	0.273071507	0.002765014	0.028526141	0.008792034
2020-08-21T17:35:00	0.1358	19.531	0.0	0.290146068	0.273834086	0.002775389	0.028633182	0.008825025
2020-08-21T17:40:00	0.1360	19.481	0.0	0.290562097	0.274597696	0.002785789	0.028740468	0.008858091
2020-08-21T17:45:00	0.1358	19.396	0.0	0.290157088	0.273854299	0.002775665	0.028636020	0.008825900
2020-08-21T17:50:00	0.1361	19.323	0.0	0.290778363	0.274995078	0.002791204	0.028796340	0.008875312
2020-08-21T17:55:00	0.1357	19.269	0.0	0.289962838	0.273498117	0.002770817	0.028586010	0.008810486
2020-08-21T18:00:00	0.1363	19.230	0.0	0.291199852	0.275770397	0.002801778	0.028905427	0.008908933
2020-08-21T18:05:00	0.1363	19.178	0.0	0.291205361	0.275780538	0.002801916	0.028906855	0.008909373
2020-08-21T18:10:00	0.1362	19.138	0.0	0.291005639	0.275413008	0.002796903	0.028855130	0.008893431
2020-08-21T18:15:00	0.1368	19.101	0.0	0.292242414	0.277692978	0.002828041	0.029176378	0.008992443
2020-08-21T18:20:00	0.1367	19.063	0.0	0.292042730	0.277324213	0.002822999	0.029124358	0.008976410
2020-08-21T18:25:00	0.1366	19.047	0.0	0.291843040	0.276955686	0.002817962	0.029072396	0.008960395
2020-08-21T18:30:00	0.1364	19.010	0.0	0.291438127	0.276209195	0.002807767	0.028967211	0.008927976
2020-08-21T18:35:00	0.1374	19.008	0.0	0.293495428	0.280012720	0.002859811	0.029504140	0.009093463
2020-08-21T18:40:00	0.1375	18.980	0.0	0.293706072	0.280403662	0.002865174	0.029559468	0.009110515
2020-08-21T18:45:00	0.1374	18.914	0.0	0.293506441	0.280033153	0.002860091	0.029507032	0.009094354
2020-08-21T18:50:00	0.1375	18.870	0.0	0.293717085	0.280424109	0.002865454	0.029562362	0.009111407
2020-08-21T18:55:00	0.1375	18.847	0.0	0.293517455	0.280053587	0.002860371	0.029509923	0.009095245
2020-08-21T19:00:00	0.1375	18.814	0.0	0.293522961	0.280063804	0.002860511	0.029511369	0.009095690
2020-08-21T19:05:00	0.1371	18.789	0.0	0.292707849	0.278553496	0.002839816	0.029297856	0.009029884
2020-08-21T19:10:00	0.1368	18.762	0.0	0.292097811	0.277425909	0.002824389	0.029138702	0.008980831
2020-08-21T19:15:00	0.1364	18.719	0.0	0.291282486	0.275922532	0.002803854	0.028926844	0.008915534
2020-08-21T19:20:00	0.1362	18.675	0.0	0.290877532	0.275177396	0.002793690	0.028821983	0.008883215
2020-08-21T19:25:00	0.1356	18.646	0.0	0.289651465	0.272927673	0.002763058	0.028505962	0.008785814
2020-08-21T19:30:00	0.1353	18.602	0.0	0.289041081	0.271811207	0.002747888	0.028349455	0.008737577
2020-08-21T19:35:00	0.1351	18.572	0.0	0.288635957	0.271071482	0.002737849	0.028245879	0.008705654
2020-08-21T19:40:00	0.1345	18.524	0.0	0.287409371	0.268838142	0.002707594	0.027933744	0.008609451
2020-08-21T19:45:00	0.1341	18.488	0.0	0.286593325	0.267357556	0.002687583	0.027727294	0.008545821
2020-08-21T19:50:00	0.1343	18.452	0.0	0.287009634	0.268112358	0.002697780	0.027832494	0.008578245
2020-08-21T19:55:00	0.1338	18.403	0.0	0.285988098	0.266262181	0.002672802	0.027574804	0.008498822
2020-08-21T20:00:00	0.1333	18.364	0.0	0.284966360	0.264418216	0.002647966	0.027318577	0.008419851
2020-08-21T20:05:00	0.1325	18.335	0.0	0.283327841	0.261474863	0.002608443	0.026910830	0.008294179
2020-08-21T20:10:00	0.1321	18.305	0.0	0.282511140	0.260014102	0.002588884	0.026709039	0.008231985
2020-08-21T20:15:00	0.1318	18.238	0.0	0.281899907	0.258923592	0.002574306	0.026558644	0.008185632
2020-08-21T20:20:00	0.1308	18.232	0.0	0.279849029	0.255281801	0.002525773	0.026057937	0.008031309
2020-08-21T20:25:00	0.1304	18.201	0.0	0.279031750	0.253837924	0.002506595	0.025860082	0.007970328
2020-08-21T20:30:00	0.1300	18.160	0.0	0.278214331	0.252398012	0.002487507	0.025663147	0.007909631
2020-08-21T20:35:00	0.1293	18.146	0.0	0.276779368	0.249880455	0.002454220	0.025319730	0.007803787
2020-08-21T20:40:00	0.1291	18.113	0.0	0.276373244	0.249170293	0.002444850	0.025223068	0.007773994
2020-08-21T20:45:00	0.1290	18.075	0.0	0.276172932	0.248820402	0.002440237	0.025175477	0.007759327
2020-08-21T20:50:00	0.1286	18.062	0.0	0.275355019	0.247394354	0.002421459	0.024981744	0.007699616
2020-08-21T20:55:00	0.1280	18.039	0.0	0.274125115	0.245257925	0.002393394	0.024692207	0.007610378
2020-08-21T21:00:00	0.1287	18.037	0.0	0.275571945	0.247772158	0.002426430	0.025033034	0.007715424
2020-08-21T21:05:00	0.1290	18.054	0.0	0.276195034	0.248858996	0.002440746	0.025180725	0.007760944
2020-08-21T21:10:00	0.1285	18.057	0.0	0.275171243	0.247074517	0.002417252	0.024938345	0.007686240
2020-08-21T21:15:00	0.1287	18.067	0.0	0.275588523	0.247801044	0.002426810	0.025036956	0.007716633
2020-08-21T21:20:00	0.1289	18.059	0.0	0.276005766	0.248528602	0.002436392	0.025135805	0.007747099
2020-08-21T21:25:00	0.1282	18.063	0.0	0.274570126	0.246029841	0.002403525	0.024796723	0.007642591
2020-08-21T21:30:00	0.1288	18.053	0.0	0.275810964	0.248188784	0.002431915	0.025089624	0.007732866
2020-08-21T21:35:00	0.1302	18.035	0.0	0.278697613	0.253248821	0.002498781	0.025779466	0.007945482
2020-08-21T21:40:00	0.1304	17.993	0.0	0.279114581	0.253984070	0.002508535	0.025880091	0.007976496
2020-08-21T21:45:00	0.1305	17.982	0.0	0.279325813	0.254356957	0.002513485	0.025931162	0.007992236
2020-08-21T21:50:00	0.1321	17.928	0.0	0.282621504	0.260211254	0.002591522	0.026736252	0.008240372
2020-08-21T21:55:00	0.1317	17.931	0.0	0.281804687	0.258753922	0.002572040	0.026535263	0.008178426
2020-08-21T22:00:00	0.1314	17.946	0.0	0.280987735	0.257300555	0.002552648	0.026335199	0.008116764
2020-08-21T22:05:00	0.1323	17.963	0.0	0.282987292	0.260865242	0.002600276	0.026826570	0.008268209
2020-08-21T22:10:00	0.1328	17.963	0.0	0.283958592	0.262605910	0.002623613	0.027067334	0.008342415
2020-08-21T22:15:00	0.1334	17.975	0.0	0.285135175	0.264722428	0.002652059	0.027360808	0.008432867
2020-08-21T22:20:00	0.1336	17.907	0.0	0.285695197	0.265732899	0.002665667	0.027501197	0.008476136
2020-08-21T22:25:00	0.1336	17.924	0.0	0.285638862	0.265631163	0.002664296	0.027487054	0.008471777
2020-08-21T22:30:00	0.1341	17.894	0.0	0.286609657	0.267387147	0.002687982	0.027731416	0.008547092
2020-08-21T22:35:00	0.1340	17.855	0.0	0.286347920	0.266913130	0.002681583	0.027665399	0.008526745
2020-08-21T22:40:00	0.1339	17.832	0.0	0.286291593	0.266811175	0.002680207	0.027651205	0.008522370
2020-08-21T22:45:00	0.1339	17.796	0.0	0.286235265	0.266709239	0.002678832	0.027637015	0.008517996
2020-08-21T22:50:00	0.1343	17.745	0.0	0.287000561	0.268095897	0.002697557	0.027830199	0.008577538
2020-08-21T22:55:00	0.1346	17.830	0.0	0.287765745	0.269486042	0.002716362	0.028024206	0.008637332
2020-08-21T23:00:00	0.1346	17.872	0.0	0.287709433	0.269383611	0.002714975	0.028009899	0.008632923
2020-08-21T23:05:00	0.1349	17.818	0.0	0.288269176	0.270402663	0.002728779	0.028152313	0.008676816
2020-08-21T23:10:00	0.1342	17.755	0.0	0.286775276	0.267687315	0.002692036	0.027773242	0.008559983
2020-08-21T23:15:00	0.1344	17.746	0.0	0.287335120	0.268703252	0.002705769	0.027914919	0.008603649
2020-08-21T23:20:00	0.1347	17.668	0.0	0.287894904	0.269721056	0.002719544	0.028057038	0.008647451
2020-08-21T23:25:00	0.1358	17.606	0.0	0.290097035	0.273744159	0.002774165	0.028620554	0.008821133
2020-08-21T23:30:00	0.1362	17.572	0.0	0.290861771	0.275148416	0.002793295	0.028817906	0.008881959
2020-08-21T23:35:00	0.1357	17.535	0.0	0.289984460	0.273537753	0.002771357	0.028591574	0.008812201
2020-08-21T23:40:00	0.1366	17.509	0.0	0.291775336	0.276830795	0.002816256	0.029054792	0.008954969
2020-08-21T23:45:00	0.1386	17.536	0.0	0.295821683	0.284345629	0.002919388	0.030118791	0.009282904
2020-08-21T23:50:00	0.1372	17.528	0.0	0.293099073	0.279277866	0.002849737	0.029400212	0.009061431
2020-08-21T23:55:00	0.1363	17.499	0.0	0.291196086	0.275763465	0.002801683	0.028904451	0.008908633
2020-08-22T00:00:00	0.1353	17.461	0.0	0.289087124	0.271895343	0.002749031	0.028361242	0.008741210
2020-08-22T00:05:00	0.1344	17.445	0.0	0.287182708	0.268426477	0.002702026	0.027876304	0.008591748
2020-08-22T00:10:00	0.1327	17.436	0.0	0.283839180	0.262391591	0.002620737	0.027037661	0.008333270
2020-08-22T00:15:00	0.1319	17.347	0.0	0.282138401	0.259348814	0.002579988	0.026617262	0.008203699
2020-08-22T00:20:00	0.1315	17.341	0.0	0.281259602	0.257783742	0.002559091	0.026401671	0.008137251
2020-08-22T00:25:00	0.1327	17.337	0.0	0.283670113	0.262088305	0.002616668	0.026995684	0.008320332
2020-08-22T00:30:00	0.1327	17.284	0.0	0.283819278	0.262355880	0.002620258	0.027032718	0.008331746
2020-08-22T00:35:00	0.1327	17.241	0.0	0.283762923	0.262254772	0.002618901	0.027018722	0.008327433
2020-08-22T00:40:00	0.1325	17.339	0.0	0.283295505	0.261416947	0.002607667	0.026902822	0.008291711
2020-08-22T00:45:00	0.1328	17.300	0.0	0.284061243	0.262790217	0.002626087	0.027092858	0.008350282
2020-08-22T00:50:00	0.1324	17.244	0.0	0.283182782	0.261215102	0.002604963	0.026874919	0.008283111
2020-08-22T00:55:00	0.1327	17.173	0.0	0.283743020	0.262219070	0.002618422	0.027013781	0.008325910
2020-08-22T01:00:00	0.1318	17.206	0.0	0.281836613	0.258810805	0.002572800	0.026543101	0.008180841
2020-08-22T01:05:00	0.1318	17.170	0.0	0.281985833	0.259076753	0.002576352	0.026579754	0.008192138
2020-08-22T01:10:00	0.1321	17.140	0.0	0.282546205	0.260076734	0.002589722	0.026717683	0.008234650
2020-08-22T01:15:00	0.1323	17.146	0.0	0.282900963	0.260710820	0.002598208	0.026805237	0.008261634
2020-08-22T01:20:00	0.1315	17.139	0.0	0.281199864	0.257677530	0.002557674	0.026387056	0.008132747
2020-08-22T01:25:00	0.1309	17.167	0.0	0.280115229	0.255753000	0.002532040	0.026122588	0.008051235
2020-08-22T01:30:00	0.1312	17.115	0.0	0.280675814	0.256746753	0.002545268	0.026259066	0.008093299
2020-08-22T01:35:00	0.1308	17.084	0.0	0.279796752	0.255189317	0.002524544	0.026045253	0.008027400
2020-08-22T01:40:00	0.1303	17.050	0.0	0.278917531	0.253636470	0.002503922	0.025832507	0.007961829
2020-08-22T01:45:00	0.1293	17.041	0.0	0.276803425	0.249922555	0.002454775	0.025325464	0.007805554
2020-08-22T01:50:00	0.1294	16.986	0.0	0.276952800	0.250184043	0.002458228	0.025361081	0.007816531
2020-08-22T01:55:00	0.1282	16.947	0.0	0.274425992	0.245779689	0.002400241	0.024762841	0.007632148
2020-08-22T02:00:00	0.1277	16.954	0.0	0.273545765	0.244254857	0.002380246	0.024556559	0.007568570
2020-08-22T02:05:00	0.1266	16.987	0.0	0.271223145	0.240254778	0.002327994	0.024017484	0.007402422
2020-08-22T02:10:00	0.1269	17.020	0.0	0.271784800	0.241218959	0.002340562	0.024147149	0.007442386
2020-08-22T02:15:00	0.1263	16.977	0.0	0.270491880	0.239002406	0.002311694	0.023849324	0.007350593
2020-08-22T02:20:00	0.1255	16.981	0.0	0.268992417	0.236444950	0.002278498	0.023506847	0.007245039
2020-08-22T02:25:00	0.1252	16.984	0.0	0.268317323	0.235298146	0.002263652	0.023353678	0.007197830
2020-08-22T02:30:00	0.1248	16.993	0.0	0.267435884	0.233805139	0.002244360	0.023154646	0.007136487
2020-08-22T02:35:00	0.1253	17.026	0.0	0.268616630	0.235806235	0.002270227	0.023421508	0.007218736
2020-08-22T02:40:00	0.1260	17.031	0.0	0.270003182	0.238167336	0.002300842	0.023737361	0.007316085
2020-08-22T02:45:00	0.1249	17.066	0.0	0.267678702	0.234215943	0.002249664	0.023209368	0.007153353
2020-08-22T02:50:00	0.1238	17.046	0.0	0.265352966	0.230296475	0.002199186	0.022688593	0.006992845
2020-08-22T02:55:00	0.1245	17.038	0.0	0.266946842	0.232978896	0.002233701	0.023044684	0.007102595
2020-08-22T03:00:00	0.1240	17.003	0.0	0.265858807	0.231146048	0.002210103	0.022801224	0.007027559
2020-08-22T03:05:00	0.1233	16.999	0.0	0.264357724	0.228629642	0.002177806	0.022468022	0.006924863
2020-08-22T03:10:00	0.1231	16.960	0.0	0.263888314	0.227845639	0.002167768	0.022364463	0.006892945
2020-08-22T03:15:00	0.1233	16.928	0.0	0.264450926	0.228785472	0.002179802	0.022488621	0.006931211
2020-08-22T03:20:00	0.1232	16.914	0.0	0.264187934	0.228345901	0.002174172	0.022430529	0.006913307
2020-08-22T03:25:00	0.1228	16.935	0.0	0.263305633	0.226874383	0.002155349	0.022236335	0.006853454
2020-08-22T03:30:00	0.1229	16.888	0.0	0.263661901	0.227467983	0.002162937	0.022314621	0.006877583
2020-08-22T03:35:00	0.1229	16.874	0.0	0.263605296	0.227373616	0.002161730	0.022302171	0.006873746
2020-08-22T03:40:00	0.1228	16.868	0.0	0.263342250	0.226935356	0.002156128	0.022244373	0.006855932
2020-08-22T03:45:00	0.1228	16.851	0.0	0.263285641	0.226841096	0.002154923	0.022231947	0.006852102
2020-08-22T03:50:00	0.1230	16.842	0.0	0.263848335	0.227778930	0.002166914	0.022355657	0.006890231
2020-08-22T03:55:00	0.1237	16.835	0.0	0.265236436	0.230100987	0.002196676	0.022662697	0.006984863
2020-08-22T04:00:00	0.1238	16.823	0.0	0.265386200	0.230352243	0.002199902	0.022695982	0.006995122
2020-08-22T04:05:00	0.1238	16.831	0.0	0.265450166	0.230459600	0.002201281	0.022710208	0.006999507
2020-08-22T04:10:00	0.1234	16.818	0.0	0.264688703	0.229183274	0.002184901	0.022541224	0.006947424
2020-08-22T04:15:00	0.1234	16.793	0.0	0.264546300	0.228944991	0.002181847	0.022509711	0.006937712
2020-08-22T04:20:00	0.1238	16.845	0.0	0.265435723	0.230435357	0.002200969	0.022706996	0.006998517
2020-08-22T04:25:00	0.1245	16.812	0.0	0.266943805	0.232973769	0.002233635	0.023044002	0.007102385
2020-08-22T04:30:00	0.1247	16.809	0.0	0.267214007	0.233430088	0.002239520	0.023104716	0.007121098
2020-08-22T04:35:00	0.1254	16.802	0.0	0.268721462	0.235984326	0.002272532	0.023445295	0.007226068
2020-08-22T04:40:00	0.1253	16.791	0.0	0.268579194	0.235742655	0.002269404	0.023413018	0.007216119
2020-08-22T04:45:00	0.1262	16.804	0.0	0.270292289	0.238661171	0.002307258	0.023803556	0.007336487
2020-08-22T04:50:00	0.1273	16.810	0.0	0.272622764	0.242661170	0.002359393	0.024341426	0.007502264
2020-08-22T04:55:00	0.1292	16.910	0.0	0.276598912	0.249564775	0.002450054	0.025276751	0.007790540
2020-08-22T05:00:00	0.1300	16.984	0.0	0.278308992	0.252564545	0.002489712	0.025685904	0.007916645
2020-08-22T05:05:00	0.1302	16.953	0.0	0.278578516	0.253039015	0.002496000	0.025750770	0.007936637
2020-08-22T05:10:00	0.1294	16.923	0.0	0.276996134	0.250259927	0.002459230	0.025371419	0.007819718
2020-08-22T05:15:00	0.1298	16.889	0.0	0.277883074	0.251815689	0.002479797	0.025583610	0.007885117
2020-08-22T05:20:00	0.1306	16.900	0.0	0.279386995	0.254465014	0.002514920	0.025945966	0.007996799
2020-08-22T05:25:00	0.1305	16.877	0.0	0.279245059	0.254214368	0.002511592	0.025911630	0.007986216
2020-08-22T05:30:00	0.1305	16.875	0.0	0.279308828	0.254326963	0.002513087	0.025927053	0.007990970
2020-08-22T05:35:00	0.1315	16.962	0.0	0.281223573	0.257719681	0.002558237	0.026392855	0.008134534
2020-08-22T05:40:00	0.1322	17.068	0.0	0.282726463	0.260398823	0.002594032	0.026762148	0.008248354
2020-08-22T05:45:00	0.1328	17.061	0.0	0.284023395	0.262722254	0.002625175	0.027083446	0.008347381
2020-08-22T05:50:00	0.1333	17.172	0.0	0.284909063	0.264315006	0.002646578	0.027304254	0.008415436
2020-08-22T05:55:00	0.1339	17.227	0.0	0.286205437	0.266655268	0.002678104	0.027629503	0.008515681
2020-08-22T06:00:00	0.1336	17.289	0.0	0.285652824	0.265656375	0.002664636	0.027490559	0.008472857
2020-08-22T06:05:00	0.1338	17.342	0.0	0.285921948	0.266142598	0.002671189	0.027558170	0.008493695
2020-08-22T06:10:00	0.1342	17.300	0.0	0.286807288	0.267745352	0.002692820	0.027781330	0.008562476
2020-08-22T06:15:00	0.1354	17.348	0.0	0.289335120	0.272348748	0.002755189	0.028424781	0.008760794
2020-08-22T06:20:00	0.1366	17.510	0.0	0.291861749	0.276990203	0.002818434	0.029077262	0.008961895
2020-08-22T06:25:00	0.1386	17.812	0.0	0.295822774	0.284347671	0.002919416	0.030119082	0.009282993
2020-08-22T06:30:00	0.1409	18.049	0.0	0.300600616	0.293353974	0.003044228	0.031406740	0.009679862
2020-08-22T06:35:00	0.1434	18.098	0.0	0.305784016	0.303287557	0.003183389	0.032842441	0.010122359
2020-08-22T06:40:00	0.1433	18.130	0.0	0.305438048	0.302619259	0.003173978	0.032745350	0.010092435
2020-08-22T06:45:00	0.1435	17.918	0.0	0.305910935	0.303532912	0.003186846	0.032878104	0.010133351
2020-08-22T06:50:00	0.1419	17.808	0.0	0.302698271	0.297353557	0.003100072	0.031982868	0.009857431
2020-08-22T06:55:00	0.1413	17.690	0.0	0.301327915	0.294737567	0.003063518	0.031605746	0.009741198
2020-08-22T07:00:00	0.1407	17.717	0.0	0.300162146	0.292521454	0.003032636	0.031287148	0.009643003
2020-08-22T07:05:00	0.1418	17.732	0.0	0.302479117	0.296934401	0.003094207	0.031922367	0.009838784
2020-08-22T07:10:00	0.1433	17.656	0.0	0.305409388	0.302563932	0.003173200	0.032737315	0.010089958
2020-08-22T07:15:00	0.1433	17.688	0.0	0.305472852	0.302686455	0.003174924	0.032755109	0.010095443
2020-08-22T07:20:00	0.1438	17.876	0.0	0.306559817	0.304788898	0.003204557	0.033060819	0.010189665
2020-08-22T07:25:00	0.1446	17.956	0.0	0.308260506	0.308093374	0.003251269	0.033542745	0.010338200
2020-08-22T07:30:00	0.1447	17.882	0.0	0.308323941	0.308216982	0.003253020	0.033560805	0.010343766
2020-08-22T07:35:00	0.1463	17.852	0.0	0.311660517	0.314754361	0.003345941	0.034519455	0.010639231
2020-08-22T07:40:00	0.1474	17.820	0.0	0.313973224	0.319326869	0.003411320	0.035193964	0.010847121
2020-08-22T07:45:00	0.1447	17.562	0.0	0.308309618	0.308189070	0.003252624	0.033556727	0.010342509
2020-08-22T07:50:00	0.1443	17.514	0.0	0.307554501	0.306719377	0.003231826	0.033342149	0.010276374
2020-08-22T07:55:00	0.1449	17.417	0.0	0.308845717	0.309234670	0.003267442	0.033709596	0.010389625
2020-08-22T08:00:00	0.1435	17.281	0.0	0.305839291	0.303394401	0.003184895	0.032857970	0.010127145
2020-08-22T08:05:00	0.1424	17.273	0.0	0.303650579	0.299178474	0.003125636	0.032246610	0.009938718
2020-08-22T08:10:00	0.1425	17.248	0.0	0.303918836	0.299693570	0.003132861	0.032321151	0.009961693
2020-08-22T08:15:00	0.1439	17.343	0.0	0.306643739	0.304951533	0.003206852	0.033084497	0.010196963
2020-08-22T08:20:00	0.1453	17.271	0.0	0.309572039	0.310654169	0.003287585	0.033917408	0.010453674
2020-08-22T08:25:00	0.1444	17.281	0.0	0.307793940	0.307185010	0.003238412	0.033410095	0.010297316
2020-08-22T08:30:00	0.1439	17.305	0.0	0.306629412	0.304923765	0.003206460	0.033080454	0.010195717
2020-08-22T08:35:00	0.1428	17.270	0.0	0.304440982	0.300697475	0.003146955	0.032466552	0.010006507
2020-08-22T08:40:00	0.1427	17.269	0.0	0.304299701	0.300425670	0.003143137	0.032427169	0.009994368
2020-08-22T08:45:00	0.1412	17.311	0.0	0.301291045	0.294667347	0.003062538	0.031595639	0.009738083
2020-08-22T08:50:00	0.1387	17.374	0.0	0.296025782	0.284727415	0.002924653	0.030173102	0.009299643
2020-08-22T08:55:00	0.1395	17.403	0.0	0.297729474	0.287924569	0.002968829	0.030628867	0.009440114
2020-08-22T09:00:00	0.1401	17.303	0.0	0.299022794	0.290363837	0.003002645	0.030977738	0.009547640
2020-08-22T09:05:00	0.1378	17.238	0.0	0.294165691	0.281257660	0.002876897	0.029680418	0.009147793
2020-08-22T09:10:00	0.1400	17.228	0.0	0.298739969	0.289829515	0.002995230	0.030901233	0.009524060
2020-08-22T09:15:00	0.1394	17.208	0.0	0.297573683	0.287631451	0.002964772	0.030587010	0.009427214
2020-08-22T09:20:00	0.1370	17.193	0.0	0.292510158	0.278187828	0.002834811	0.029246220	0.009013969
2020-08-22T09:25:00	0.1374	17.122	0.0	0.293394402	0.279825320	0.002857241	0.029477628	0.009085291
2020-08-22T09:30:00	0.1361	17.037	0.0	0.290790498	0.275017384	0.002791508	0.028799477	0.008876278
2020-08-22T09:35:00	0.1365	16.971	0.0	0.291469808	0.276267565	0.002808564	0.028975433	0.008930510
2020-08-22T09:40:00	0.1405	16.957	0.0	0.299735945	0.291713389	0.003021395	0.031171179	0.009607260
2020-08-22T09:45:00	0.1415	16.962	0.0	0.301848244	0.295729474	0.003077365	0.031748608	0.009785229
2020-08-22T09:50:00	0.1331	16.928	0.0	0.284678939	0.263900684	0.002641006	0.027246772	0.008397720
2020-08-22T09:55:00	0.1352	16.915	0.0	0.288850604	0.271463282	0.002743165	0.028300727	0.008722559
2020-08-22T10:00:00	0.1334	16.933	0.0	0.285217276	0.264870443	0.002654052	0.027381361	0.008439201
2020-08-22T10:05:00	0.1321	16.850	0.0	0.282512793	0.260017055	0.002588924	0.026709447	0.008232111
2020-08-22T10:10:00	0.1296	16.774	0.0	0.277337989	0.250858980	0.002467144	0.025453072	0.007844884
2020-08-22T10:15:00	0.1306	16.743	57.0	0.279362648	0.254422011	0.002514349	0.025940074	0.007994983
2020-08-22T10:20:00	0.1319	16.714	0.0	0.282208863	0.259474511	0.002581668	0.026634596	0.008209041
2020-08-22T10:25:00	0.1323	16.702	0.0	0.282998350	0.260885027	0.002600541	0.026829304	0.008269052
2020-08-22T10:30:00	0.1345	16.713	0.0	0.287485714	0.268976869	0.002709470	0.027953107	0.008615419
2020-08-22T10:35:00	0.1360	16.726	0.0	0.290532642	0.274543597	0.002785052	0.028732864	0.008855748
2020-08-22T10:40:00	0.1362	16.690	0.0	0.290910401	0.275237839	0.002794514	0.028830485	0.008885836
2020-08-22T10:45:00	0.1361	16.688	0.0	0.290672428	0.274800388	0.002788551	0.028768963	0.008866874
2020-08-22T10:50:00	0.1371	16.674	0.0	0.292896958	0.278903520	0.002844609	0.029347304	0.009045124
2020-08-22T10:55:00	0.1383	16.669	0.0	0.295325663	0.283418876	0.002906620	0.029987059	0.009242303
2020-08-22T11:00:00	0.1378	16.654	0.0	0.294267493	0.281446994	0.002879498	0.029707250	0.009156063
2020-08-22T11:05:00	0.1398	16.649	0.0	0.298335556	0.289066358	0.002984646	0.030792045	0.009490407
2020-08-22T11:10:00	0.1407	16.643	85.0	0.300147270	0.292493230	0.003032243	0.031283096	0.009641754
2020-08-22T11:15:00	0.1421	16.627	0.0	0.302982529	0.297897685	0.003107689	0.032061450	0.009881650
2020-08-22T11:20:00	0.1450	16.624	39.0	0.308886319	0.309313933	0.003268566	0.033721191	0.010393199
2020-08-22T11:25:00	0.1490	16.612	96.0	0.317362256	0.325837536	0.003505876	0.036169481	0.011147785
2020-08-22T11:30:00	0.1474	16.608	0.0	0.313934275	0.319249582	0.003410213	0.035182536	0.010843599
2020-08-22T11:35:00	0.1494	16.601	72.0	0.318447668	0.327346016	0.003530133	0.036419733	0.011224915
2020-08-22T11:40:00	0.1511	16.592	97.0	0.323402130	0.334269862	0.003642094	0.037574809	0.011580921
2020-08-22T11:45:00	0.1538	16.581	108.0	0.331261112	0.345382020	0.003823890	0.039450363	0.012158985
2020-08-22T11:50:00	0.1555	16.575	112.0	0.336169014	0.352402356	0.003940058	0.040648847	0.012528370
2020-08-22T11:55:00	0.1538	16.568	138.0	0.331459935	0.345665209	0.003828556	0.039498507	0.012173823
2020-08-22T12:00:00	0.1551	16.557	149.0	0.335203147	0.351015837	0.003917035	0.040411324	0.012455163
2020-08-22T12:05:00	0.1583	16.556	157.0	0.344441556	0.364377042	0.004140505	0.042716830	0.013165742
2020-08-22T12:10:00	0.1582	16.554	162.0	0.344106214	0.363888160	0.004132266	0.042631824	0.013139542
2020-08-22T12:15:00	0.1603	16.555	173.0	0.350121497	0.372702283	0.004281539	0.044171846	0.013614192
2020-08-22T12:20:00	0.1610	16.553	184.0	0.352090323	0.375607778	0.004331077	0.044682927	0.013771712
2020-08-22T12:25:00	0.1604	16.547	191.0	0.350605588	0.373415736	0.004293688	0.044297187	0.013652823
2020-08-22T12:30:00	0.1604	16.547	197.0	0.350559671	0.373348038	0.004292535	0.044285289	0.013649156
2020-08-22T12:35:00	0.1626	16.542	201.0	0.356834307	0.382650588	0.004451832	0.045928730	0.014155681
2020-08-22T12:40:00	0.1625	16.533	203.0	0.356501892	0.382155160	0.004443306	0.045840773	0.014128571
2020-08-22T12:45:00	0.1643	16.528	203.0	0.361608183	0.389797703	0.004575340	0.047202944	0.014548406
2020-08-22T12:50:00	0.1651	16.518	203.0	0.363846579	0.393169642	0.004633944	0.047807550	0.014734751
2020-08-22T12:55:00	0.1679	16.511	204.0	0.371767086	0.405208038	0.004844891	0.049983844	0.015405506
2020-08-22T13:00:00	0.1682	16.502	204.0	0.372856347	0.406876682	0.004874340	0.050287665	0.015499147
2020-08-22T13:05:00	0.1685	16.494	205.0	0.373661468	0.408112087	0.004896175	0.050512940	0.015568579
2020-08-22T13:10:00	0.1674	16.485	206.0	0.370495883	0.403264681	0.004810657	0.049630665	0.015296653
2020-08-22T13:15:00	0.1676	16.471	206.0	0.371018450	0.404063036	0.004824712	0.049775669	0.015341345
2020-08-22T13:20:00	0.1619	16.460	207.0	0.354701308	0.379476654	0.004397295	0.045366078	0.013982266
2020-08-22T13:25:00	0.1607	16.448	208.0	0.351206149	0.374301699	0.004308789	0.044452977	0.013700839
2020-08-22T13:30:00	0.1598	16.437	208.0	0.348855920	0.370839979	0.004249873	0.043845153	0.013513502
2020-08-22T13:35:00	0.1601	16.424	208.0	0.349674540	0.372044103	0.004270340	0.044056306	0.013578581
2020-08-22T13:40:00	0.1659	16.413	209.0	0.366242369	0.396793406	0.004697161	0.048459748	0.014935765
2020-08-22T13:45:00	0.1681	16.401	210.0	0.372449366	0.406252854	0.004863324	0.050174020	0.015464120
2020-08-22T13:50:00	0.1666	16.389	211.0	0.368143894	0.399680424	0.004747700	0.048981144	0.015096464
2020-08-22T13:55:00	0.1676	16.380	212.0	0.370940158	0.403943377	0.004822605	0.049753928	0.015334644
2020-08-22T14:00:00	0.1683	16.370	213.0	0.373164303	0.407349015	0.004882685	0.050373761	0.015525682
2020-08-22T14:05:00	0.1680	16.359	213.0	0.372268449	0.405975685	0.004858432	0.050123550	0.015448565
2020-08-22T14:10:00	0.1659	16.350	214.0	0.366254659	0.396812035	0.004697487	0.048463107	0.014936800
2020-08-22T14:15:00	0.1648	16.343	215.0	0.363072987	0.392002794	0.004613641	0.047598080	0.014670190
2020-08-22T14:20:00	0.1641	16.336	215.0	0.361028068	0.388925978	0.004560225	0.047046997	0.014500341
2020-08-22T14:25:00	0.1633	16.331	215.0	0.358693984	0.385427606	0.004499707	0.046422642	0.014307909
2020-08-22T14:30:00	0.1632	16.328	216.0	0.358648327	0.385359318	0.004498527	0.046410479	0.014304160
2020-08-22T14:35:00	0.1608	16.325	217.0	0.351714699	0.375052665	0.004321600	0.044585151	0.013741577
2020-08-22T14:40:00	0.1591	16.321	217.0	0.346769374	0.367778776	0.004197968	0.043309662	0.013348459
2020-08-22T14:45:00	0.1598	16.318	217.0	0.348742878	0.370673840	0.004247051	0.043816042	0.013504530
2020-08-22T14:50:00	0.1612	16.319	217.0	0.352727474	0.376550235	0.004347181	0.044849069	0.013822918
2020-08-22T14:55:00	0.1610	16.321	218.0	0.352106513	0.375631713	0.004331486	0.044687144	0.013773012
2020-08-22T15:00:00	0.1612	16.325	218.0	0.352635777	0.376414533	0.004344862	0.044825135	0.013815542
2020-08-22T15:05:00	0.1610	16.331	218.0	0.352302380	0.375921329	0.004336433	0.044738182	0.013788742
2020-08-22T15:10:00	0.1603	16.338	219.0	0.350241997	0.372879819	0.004284561	0.044203026	0.013623802
2020-08-22T15:15:00	0.1589	16.343	219.0	0.346158249	0.366884344	0.004182837	0.043153559	0.013300346
2020-08-22T15:20:00	0.1582	16.347	219.0	0.344088850	0.363862854	0.004131839	0.042627425	0.013138186
2020-08-22T15:25:00	0.1573	16.357	219.0	0.341436886	0.360007114	0.004067024	0.041958732	0.012932089
2020-08-22T15:30:00	0.1561	16.370	220.0	0.337908488	0.354905506	0.003981721	0.041078677	0.012660847
2020-08-22T15:35:00	0.1553	16.376	219.0	0.335826755	0.351910760	0.003931890	0.040564586	0.012502400
2020-08-22T15:40:00	0.1555	16.379	220.0	0.336362218	0.352679994	0.003944672	0.040696458	0.012543043
2020-08-22T15:45:00	0.1552	16.383	220.0	0.335442905	0.351359789	0.003922742	0.040470209	0.012473311
2020-08-22T15:50:00	0.1550	16.384	220.0	0.334814209	0.350458193	0.003907786	0.040315908	0.012425755
2020-08-22T15:55:00	0.1557	16.386	220.0	0.336804732	0.353316261	0.003955254	0.040805627	0.012576691
2020-08-22T16:00:00	0.1554	16.384	220.0	0.335885715	0.351995425	0.003933296	0.040579095	0.012506871
2020-08-22T16:05:00	0.1545	16.381	220.0	0.333308337	0.348302824	0.003872099	0.039947729	0.012312278
2020-08-22T16:10:00	0.1536	16.368	220.0	0.330726100	0.344620495	0.003811349	0.039320985	0.012119110
2020-08-22T16:15:00	0.1522	16.366	219.0	0.326675032	0.338878248	0.003717175	0.038349405	0.011819659
2020-08-22T16:20:00	0.1515	16.365	219.0	0.324667027	0.336047629	0.003671005	0.037873078	0.011672850
2020-08-22T16:25:00	0.1510	16.364	218.0	0.323243535	0.334047252	0.003638478	0.037537509	0.011569425
2020-08-22T16:30:00	0.1495	16.372	217.0	0.318580595	0.327530962	0.003533110	0.036450449	0.011234382
2020-08-22T16:35:00	0.1498	16.372	215.0	0.319508781	0.328823633	0.003553941	0.036665353	0.011300618
2020-08-22T16:40:00	0.1492	16.374	210.0	0.317784937	0.326424611	0.003515311	0.036266815	0.011177784
2020-08-22T16:45:00	0.1484	16.377	205.0	0.315925946	0.323213911	0.003467147	0.035769913	0.011024635
2020-08-22T16:50:00	0.1474	16.366	202.0	0.313912531	0.319206440	0.003409594	0.035176157	0.010841633
2020-08-22T16:55:00	0.1466	16.364	199.0	0.312307516	0.316030159	0.003364151	0.034707324	0.010697134
2020-08-22T17:00:00	0.1455	16.370	197.0	0.310088429	0.311665410	0.003301954	0.034065646	0.010499363
2020-08-22T17:05:00	0.1445	16.368	192.0	0.307868575	0.307330224	0.003240466	0.033431292	0.010303849
2020-08-22T17:10:00	0.1443	16.366	186.0	0.307490086	0.306594169	0.003230055	0.033323884	0.010270745
2020-08-22T17:15:00	0.1438	16.362	178.0	0.306497547	0.304668252	0.003202854	0.033043257	0.010184253
2020-08-22T17:20:00	0.1418	16.374	170.0	0.302433300	0.296846808	0.003092982	0.031909728	0.009834888
2020-08-22T17:25:00	0.1408	16.370	160.0	0.300415569	0.293002478	0.003039333	0.031356234	0.009664296
2020-08-22T17:30:00	0.1412	16.372	154.0	0.301265916	0.294619492	0.003061870	0.031588751	0.009735960
2020-08-22T17:35:00	0.1403	16.365	145.0	0.299452714	0.291177026	0.003013940	0.031094262	0.009583554
2020-08-22T17:40:00	0.1411	16.351	138.0	0.300917856	0.293957072	0.003052633	0.031493447	0.009706586
2020-08-22T17:45:00	0.1411	16.347	132.0	0.300948695	0.294015733	0.003053450	0.031501884	0.009709187
2020-08-22T17:50:00	0.1414	16.339	125.0	0.301594118	0.295244818	0.003070597	0.031678784	0.009763709
2020-08-22T17:55:00	0.1408	16.330	120.0	0.300395727	0.292964801	0.003038808	0.031350821	0.009662628
2020-08-22T18:00:00	0.1405	16.321	118.0	0.299811862	0.291857242	0.003023396	0.031191816	0.009613621
2020-08-22T18:05:00	0.1402	16.310	117.0	0.299227940	0.290751722	0.003008031	0.031033305	0.009564766
2020-08-22T18:10:00	0.1405	16.305	116.0	0.299668638	0.291585881	0.003019623	0.031152889	0.009601623
2020-08-22T18:15:00	0.1407	16.295	115.0	0.300109302	0.292421201	0.003031241	0.031272755	0.009638567
2020-08-22T18:20:00	0.1406	16.284	115.0	0.299935240	0.292091105	0.003026648	0.031225373	0.009623963
2020-08-22T18:25:00	0.1407	16.282	114.0	0.300170988	0.292538230	0.003032870	0.031289557	0.009643745
2020-08-22T18:30:00	0.1412	16.274	114.0	0.301226238	0.294543939	0.003060816	0.031577877	0.009732609
2020-08-22T18:35:00	0.1419	16.266	114.0	0.302690940	0.297339531	0.003099875	0.031980843	0.009856807
2020-08-22T18:40:00	0.1419	16.249	114.0	0.302721770	0.297398520	0.003100701	0.031989360	0.009859431
2020-08-22T18:45:00	0.1419	16.237	114.0	0.302547785	0.297065703	0.003096044	0.031941316	0.009844624
2020-08-22T18:50:00	0.1415	16.228	114.0	0.301759291	0.295559781	0.003074995	0.031724156	0.009777693
2020-08-22T18:55:00	0.1416	16.218	114.0	0.301994966	0.296009479	0.003081277	0.031788966	0.009797668
2020-08-22T19:00:00	0.1423	16.205	114.0	0.303459480	0.298811811	0.003120495	0.032193575	0.009922373
2020-08-22T19:05:00	0.1426	16.188	114.0	0.304104633	0.300050595	0.003137872	0.032372842	0.009977624
2020-08-22T19:10:00	0.1430	16.174	115.0	0.304954458	0.301686385	0.003160853	0.032609941	0.010050701
2020-08-22T19:15:00	0.1432	16.161	114.0	0.305394734	0.302535644	0.003172801	0.032733207	0.010088692
2020-08-22T19:20:00	0.1428	16.147	115.0	0.304401859	0.300622194	0.003145897	0.032455643	0.010003144
2020-08-22T19:25:00	0.1428	16.131	115.0	0.304432680	0.300681499	0.003146730	0.032464237	0.010005793
2020-08-22T19:30:00	0.1432	16.115	111.0	0.305282459	0.302318958	0.003169752	0.032701745	0.010078995
2020-08-22T19:35:00	0.1429	16.097	115.0	0.304699070	0.301194323	0.003153936	0.032538574	0.010028704
2020-08-22T19:40:00	0.1421	16.079	115.0	0.303091715	0.298106824	0.003110617	0.032091667	0.009890963
2020-08-22T19:45:00	0.1422	16.058	116.0	0.303327338	0.298558402	0.003116944	0.032156935	0.009911080
2020-08-22T19:50:00	0.1421	16.041	116.0	0.302948569	0.297832652	0.003106778	0.032052056	0.009878755
2020-08-22T19:55:00	0.1421	16.024	117.0	0.302979398	0.297891688	0.003107605	0.032060584	0.009881383
2020-08-22T20:00:00	0.1423	16.007	117.0	0.303419817	0.298735737	0.003119429	0.032182575	0.009918982
2020-08-22T20:05:00	0.1425	15.986	117.0	0.303860204	0.299580948	0.003131281	0.032304849	0.009956668
2020-08-22T20:10:00	0.1422	15.965	112.0	0.303276679	0.298461284	0.003115583	0.032142895	0.009906752
2020-08-22T20:15:00	0.1413	15.945	117.0	0.301464092	0.294996998	0.003067138	0.031643096	0.009752709
2020-08-22T20:20:00	0.1411	15.926	116.0	0.301085205	0.294275473	0.003057072	0.031539247	0.009720702
2020-08-22T20:25:00	0.1404	15.906	116.0	0.299476876	0.291222762	0.003014575	0.031100819	0.009585574
2020-08-22T20:30:00	0.1399	15.888	112.0	0.298483015	0.289344505	0.002988503	0.030831830	0.009502669
2020-08-22T20:35:00	0.1400	15.872	117.0	0.298718822	0.289789583	0.002994676	0.030895517	0.009522299
2020-08-22T20:40:00	0.1397	15.853	111.0	0.298134789	0.288687880	0.002979401	0.030737931	0.009473729
2020-08-22T20:45:00	0.1398	15.835	117.0	0.298370610	0.289132467	0.002985563	0.030801500	0.009493321
2020-08-22T20:50:00	0.1401	15.818	112.0	0.299016318	0.290351597	0.003002475	0.030975985	0.009547099
2020-08-22T20:55:00	0.1397	15.798	117.0	0.298227350	0.288862340	0.002981819	0.030762872	0.009481416
2020-08-22T21:00:00	0.1400	15.775	118.0	0.298668124	0.289693862	0.002993348	0.030881818	0.009518076
2020-08-22T21:05:00	0.1403	15.761	118.0	0.299313798	0.290914140	0.003010287	0.031056580	0.009571940
2020-08-22T21:10:00	0.1396	15.744	113.0	0.297909963	0.288264348	0.002973534	0.030677403	0.009455074
2020-08-22T21:15:00	0.1387	15.725	113.0	0.296095710	0.284858282	0.002926458	0.030191724	0.009305382
2020-08-22T21:20:00	0.1393	15.711	114.0	0.297356707	0.287223468	0.002959128	0.030528776	0.009409265
2020-08-22T21:25:00	0.1388	15.693	114.0	0.296362479	0.285357810	0.002933350	0.030262831	0.009327298
2020-08-22T21:30:00	0.1390	15.675	114.0	0.296598373	0.285799899	0.002939453	0.030325797	0.009346705
2020-08-22T21:35:00	0.1388	15.659	114.0	0.296219168	0.285089403	0.002929646	0.030224618	0.009315521
2020-08-22T21:40:00	0.1388	15.644	114.0	0.296250032	0.285147197	0.002930444	0.030232845	0.009318057
2020-08-22T21:45:00	0.1389	15.622	114.0	0.296485931	0.285589128	0.002936543	0.030295773	0.009337452
2020-08-22T21:50:00	0.1395	15.612	114.0	0.297746841	0.287957254	0.002969282	0.030633535	0.009441553
2020-08-22T21:55:00	0.1390	15.593	114.0	0.296752681	0.286089278	0.002943450	0.030367031	0.009359414
2020-08-22T22:00:00	0.1389	15.577	114.0	0.296578518	0.285762676	0.002938939	0.030320494	0.009345071
2020-08-22T22:05:00	0.1394	15.566	114.0	0.297545520	0.287578479	0.002964039	0.030579448	0.009424883
2020-08-22T22:10:00	0.1396	15.554	114.0	0.297897450	0.288240784	0.002973208	0.030674037	0.009454036
2020-08-22T22:15:00	0.1395	15.533	115.0	0.297634421	0.287745711	0.002966354	0.030603325	0.009432242
2020-08-22T22:20:00	0.1395	15.510	119.0	0.297781365	0.288022235	0.002970182	0.030642816	0.009444413
2020-08-22T22:25:00	0.1391	15.492	115.0	0.296903316	0.286371913	0.002947355	0.030407317	0.009371830
2020-08-22T22:30:00	0.1393	15.482	115.0	0.297255285	0.287032867	0.002956492	0.030501580	0.009400883
2020-08-22T22:35:00	0.1393	15.465	115.0	0.297402239	0.287309058	0.002960312	0.030540991	0.009413030
2020-08-22T22:40:00	0.1388	15.449	115.0	0.296319098	0.285276549	0.002932228	0.030251261	0.009323732
2020-08-22T22:45:00	0.1391	15.433	115.0	0.296876124	0.286320883	0.002946650	0.030400042	0.009369588
2020-08-22T22:50:00	0.1398	15.425	114.0	0.298253026	0.288910745	0.002982489	0.030769793	0.009483549
2020-08-22T22:55:00	0.1394	15.408	114.0	0.297580045	0.287643418	0.002964938	0.030588719	0.009427740
2020-08-22T23:00:00	0.1390	15.396	114.0	0.296701965	0.285994152	0.002942136	0.030353475	0.009355236
2020-08-22T23:05:00	0.1391	15.382	115.0	0.296848933	0.286269857	0.002945945	0.030392768	0.009367346
2020-08-22T23:10:00	0.1382	15.371	115.0	0.295150481	0.283091939	0.002902118	0.029940622	0.009227990
2020-08-22T23:15:00	0.1381	15.349	115.0	0.294887325	0.282601184	0.002895365	0.029870949	0.009206517
2020-08-22T23:20:00	0.1380	15.324	115.0	0.294624157	0.282110842	0.002888622	0.029801377	0.009185074
2020-08-22T23:25:00	0.1378	15.302	115.0	0.294155864	0.281239387	0.002876646	0.029677829	0.009146995
2020-08-22T23:30:00	0.1375	15.287	115.0	0.293687531	0.280369240	0.002864701	0.029554595	0.009109013
2020-08-22T23:35:00	0.1372	15.279	115.0	0.293014004	0.279120274	0.002847578	0.029377936	0.009054565
2020-08-22T23:40:00	0.1366	15.265	115.0	0.291724807	0.276737606	0.002814983	0.029041658	0.008950921
2020-08-22T23:45:00	0.1366	15.242	115.0	0.291871906	0.277008943	0.002818690	0.029079904	0.008962709
2020-08-22T23:50:00	0.1359	15.238	115.0	0.290377184	0.274258157	0.002781164	0.028692751	0.008843385
2020-08-22T23:55:00	0.1359	15.218	115.0	0.290319063	0.274151480	0.002779711	0.028677763	0.008838765
2020-08-23T00:00:00	0.1354	15.203	115.0	0.289234528	0.272164791	0.002752690	0.028398998	0.008752847
2020-08-23T00:05:00	0.1352	15.190	115.0	0.288971086	0.271683328	0.002746152	0.028331543	0.008732057
2020-08-23T00:10:00	0.1345	15.173	115.0	0.287475549	0.268958395	0.002709221	0.027950529	0.008614624
2020-08-23T00:15:00	0.1343	15.152	115.0	0.287006633	0.268106913	0.002697706	0.027831735	0.008578011
2020-08-23T00:20:00	0.1339	15.148	115.0	0.286126842	0.266513083	0.002676186	0.027609714	0.008509582
2020-08-23T00:25:00	0.1340	15.132	115.0	0.286479511	0.267151394	0.002684799	0.027698578	0.008536971
2020-08-23T00:30:00	0.1340	15.128	115.0	0.286421347	0.267046067	0.002683377	0.027683909	0.008532450
2020-08-23T00:35:00	0.1339	15.097	115.0	0.286157763	0.266569018	0.002676940	0.027617499	0.008511981
2020-08-23T00:40:00	0.1340	15.091	116.0	0.286510431	0.267207394	0.002685555	0.027706377	0.008539375
2020-08-23T00:45:00	0.1336	15.081	115.0	0.285630555	0.265616163	0.002664094	0.027484969	0.008471134
2020-08-23T00:50:00	0.1331	15.064	115.0	0.284545044	0.263659769	0.002637768	0.027213362	0.008387422
2020-08-23T00:55:00	0.1332	15.044	115.0	0.284692345	0.263924810	0.002641330	0.027250118	0.008398751
2020-08-23T01:00:00	0.1330	15.032	115.0	0.284428672	0.263450474	0.002634955	0.027184345	0.008378479
2020-08-23T01:05:00	0.1328	15.020	115.0	0.283959477	0.262607498	0.002623635	0.027067554	0.008342483
2020-08-23T01:10:00	0.1325	15.000	115.0	0.283284703	0.261397602	0.002607408	0.026900147	0.008290887
2020-08-23T01:15:00	0.1319	14.978	115.0	0.282198687	0.259456356	0.002581426	0.026632092	0.008208269
2020-08-23T01:20:00	0.1316	14.964	115.0	0.281523675	0.258253524	0.002565359	0.026466338	0.008157182
2020-08-23T01:25:00	0.1314	14.943	115.0	0.281054207	0.257418652	0.002554222	0.026351442	0.008121770
2020-08-23T01:30:00	0.1314	14.936	115.0	0.280995980	0.257315202	0.002552843	0.026337214	0.008117385
2020-08-23T01:35:00	0.1313	14.907	116.0	0.280937753	0.257211772	0.002551465	0.026322990	0.008113001
2020-08-23T01:40:00	0.1311	14.889	116.0	0.280468229	0.256378534	0.002540365	0.026208475	0.008077707
2020-08-23T01:45:00	0.1311	14.874	116.0	0.280409995	0.256275287	0.002538990	0.026194294	0.008073336
2020-08-23T01:50:00	0.1312	14.846	116.0	0.280763067	0.256901604	0.002547331	0.026280348	0.008099859
2020-08-23T01:55:00	0.1305	14.838	116.0	0.279265096	0.254249744	0.002512062	0.025916476	0.007987709
2020-08-23T02:00:00	0.1304	14.807	116.0	0.279001133	0.253783916	0.002505879	0.025852689	0.007968050
2020-08-23T02:05:00	0.1309	14.796	116.0	0.279971380	0.255498318	0.002528652	0.026087639	0.008040464
2020-08-23T02:10:00	0.1305	14.771	116.0	0.279296060	0.254304417	0.002512787	0.025923965	0.007990018
2020-08-23T02:15:00	0.1315	14.747	116.0	0.281294466	0.257845740	0.002559918	0.026410203	0.008139881
2020-08-23T02:20:00	0.1309	14.731	116.0	0.280002340	0.255553121	0.002529381	0.026095159	0.008042781
2020-08-23T02:25:00	0.1303	14.707	116.0	0.278915597	0.253633059	0.002503877	0.025832040	0.007961686
2020-08-23T02:30:00	0.1298	14.700	116.0	0.277828608	0.251720008	0.002478531	0.025570547	0.007881091
2020-08-23T02:35:00	0.1300	14.682	116.0	0.278181868	0.252340914	0.002486750	0.025655345	0.007907227
2020-08-23T02:40:00	0.1289	14.663	116.0	0.275859741	0.248273849	0.002433036	0.025101182	0.007736428
2020-08-23T02:45:00	0.1284	14.662	116.0	0.274977946	0.246738339	0.002412833	0.024892749	0.007672187
2020-08-23T02:50:00	0.1283	14.660	116.0	0.274713743	0.246279224	0.002406800	0.024830512	0.007653005
2020-08-23T02:55:00	0.1288	14.660	116.0	0.275684869	0.247968947	0.002429021	0.025059759	0.007723661
2020-08-23T03:00:00	0.1285	14.637	117.0	0.275214827	0.247150349	0.002418249	0.024948633	0.007689411
2020-08-23T03:05:00	0.1287	14.627	116.0	0.275568284	0.247765779	0.002426346	0.025032168	0.007715157
2020-08-23T03:10:00	0.1284	14.633	117.0	0.274892336	0.246589524	0.002410877	0.024872572	0.007665968
2020-08-23T03:15:00	0.1284	14.634	117.0	0.274834034	0.246488204	0.002409545	0.024858836	0.007661735
2020-08-23T03:20:00	0.1285	14.606	116.0	0.275187520	0.247102836	0.002417625	0.024942187	0.007687424
2020-08-23T03:25:00	0.1289	14.601	116.0	0.275952701	0.248436009	0.002435172	0.025123219	0.007743220
2020-08-23T03:30:00	0.1291	14.607	117.0	0.276306102	0.249052985	0.002443303	0.025207109	0.007769076
2020-08-23T03:35:00	0.1291	14.597	116.0	0.276453651	0.249310813	0.002446703	0.025242187	0.007779887
2020-08-23T03:40:00	0.1286	14.598	116.0	0.275366095	0.247413637	0.002421713	0.024984362	0.007700423
2020-08-23T03:45:00	0.1280	14.603	117.0	0.274072354	0.245166490	0.002392195	0.024679834	0.007606565
2020-08-23T03:50:00	0.1284	14.603	116.0	0.274837719	0.246494607	0.002409630	0.024859704	0.007662002
2020-08-23T03:55:00	0.1285	14.583	117.0	0.275191205	0.247109247	0.002417709	0.024943057	0.007687692
2020-08-23T04:00:00	0.1280	14.576	117.0	0.274103353	0.245220209	0.002392900	0.024687103	0.007608805
2020-08-23T04:05:00	0.1283	14.569	116.0	0.274690118	0.246238192	0.002406261	0.024824952	0.007651291
2020-08-23T04:10:00	0.1285	14.556	117.0	0.275070923	0.246900012	0.002414958	0.024914674	0.007678945
2020-08-23T04:15:00	0.1290	14.543	116.0	0.276069276	0.248639442	0.002437852	0.025150872	0.007751743
2020-08-23T04:20:00	0.1291	14.533	116.0	0.276449968	0.249304375	0.002446618	0.025241311	0.007779617
2020-08-23T04:25:00	0.1289	14.522	116.0	0.276007305	0.248531287	0.002436427	0.025136170	0.007747212
2020-08-23T04:30:00	0.1290	14.513	116.0	0.276182165	0.248836523	0.002440450	0.025177669	0.007760002
2020-08-23T04:35:00	0.1289	14.503	116.0	0.275945333	0.248423155	0.002435003	0.025121472	0.007742682
2020-08-23T04:40:00	0.1279	14.494	116.0	0.273855358	0.244790614	0.002387266	0.024628988	0.007590893
2020-08-23T04:45:00	0.1304	14.462	116.0	0.278970167	0.253729297	0.002505154	0.025845212	0.007965745
2020-08-23T04:50:00	0.1297	14.454	116.0	0.277498931	0.251141265	0.002470876	0.025491571	0.007856750
2020-08-23T04:55:00	0.1289	14.472	116.0	0.276027239	0.248566075	0.002436885	0.025140898	0.007748669
2020-08-23T05:00:00	0.1291	14.477	117.0	0.276407935	0.249230913	0.002445650	0.025231315	0.007776536
2020-08-23T05:05:00	0.1287	14.489	117.0	0.275553548	0.247740105	0.002426008	0.025028681	0.007714083
2020-08-23T05:10:00	0.1287	14.507	117.0	0.275522559	0.247686119	0.002425298	0.025021351	0.007711823
2020-08-23T05:15:00	0.1295	14.517	117.0	0.277138254	0.250508883	0.002462518	0.025405345	0.007830174
2020-08-23T05:20:00	0.1296	14.535	117.0	0.277313072	0.250815292	0.002466567	0.025447115	0.007843048
2020-08-23T05:25:00	0.1319	14.527	117.0	0.282218596	0.259491876	0.002581900	0.026636991	0.008209779
2020-08-23T05:30:00	0.1318	14.564	117.0	0.281982061	0.259070028	0.002576263	0.026578827	0.008191852
2020-08-23T05:35:00	0.1326	14.604	117.0	0.283595599	0.261954693	0.002614876	0.026977197	0.008314634
2020-08-23T05:40:00	0.1333	14.619	117.0	0.285003154	0.264484504	0.002648858	0.027327778	0.008422687
2020-08-23T05:45:00	0.1336	14.632	117.0	0.285588600	0.265540411	0.002663074	0.027474440	0.008467889
2020-08-23T05:50:00	0.1333	14.666	117.0	0.284941296	0.264373065	0.002647359	0.027312311	0.008417919
2020-08-23T05:55:00	0.1336	14.698	117.0	0.285526750	0.265428755	0.002661570	0.027458922	0.008463106
2020-08-23T06:00:00	0.1327	14.724	117.0	0.283851960	0.262414523	0.002621045	0.027040836	0.008334248
2020-08-23T06:05:00	0.1322	14.739	117.0	0.282793330	0.260518356	0.002595632	0.026778654	0.008253441
2020-08-23T06:10:00	0.1324	14.761	117.0	0.283173493	0.261198473	0.002604740	0.026872620	0.008282402
2020-08-23T06:15:00	0.1318	14.796	118.0	0.281909128	0.258940027	0.002574526	0.026560909	0.008186330
2020-08-23T06:20:00	0.1317	14.821	118.0	0.281672578	0.258518614	0.002568898	0.026502846	0.008168434
2020-08-23T06:25:00	0.1315	14.847	118.0	0.281230397	0.257731813	0.002558398	0.026394525	0.008135049
2020-08-23T06:30:00	0.1317	14.891	118.0	0.281610679	0.258408399	0.002567426	0.026487666	0.008163756
2020-08-23T06:35:00	0.1318	14.915	118.0	0.281990933	0.259085844	0.002576474	0.026581007	0.008192524
2020-08-23T06:40:00	0.1323	14.940	118.0	0.282987851	0.260866241	0.002600290	0.026826708	0.008268252
2020-08-23T06:45:00	0.1332	14.950	118.0	0.284806547	0.264130391	0.002644095	0.027278637	0.008407541
2020-08-23T06:50:00	0.1332	14.983	118.0	0.284775617	0.264074704	0.002643346	0.027270911	0.008405160
2020-08-23T06:55:00	0.1338	15.010	118.0	0.285977419	0.266242873	0.002672542	0.027572118	0.008497995
2020-08-23T07:00:00	0.1350	15.007	118.0	0.288411091	0.270661342	0.002732286	0.028188492	0.008687967
2020-08-23T07:05:00	0.1352	15.045	118.0	0.288996154	0.271729123	0.002746774	0.028337957	0.008734034
2020-08-23T07:10:00	0.1348	15.093	119.0	0.288143933	0.270174478	0.002725687	0.028120408	0.008666983
2020-08-23T07:15:00	0.1346	15.140	118.0	0.287702315	0.269370666	0.002714800	0.028008092	0.008632366
2020-08-23T07:20:00	0.1340	15.198	119.0	0.286439076	0.267078168	0.002683811	0.027688380	0.008533828
2020-08-23T07:25:00	0.1346	15.226	119.0	0.287640490	0.269258233	0.002713278	0.027992390	0.008627527
2020-08-23T07:30:00	0.1346	15.222	119.0	0.287609577	0.269202025	0.002712517	0.027984542	0.008625107
2020-08-23T07:35:00	0.1352	15.283	119.0	0.288810721	0.271390462	0.002742177	0.028290531	0.008719416
2020-08-23T07:40:00	0.1349	15.292	119.0	0.288369159	0.270584896	0.002731250	0.028177799	0.008684671
2020-08-23T07:45:00	0.1349	15.330	119.0	0.288338251	0.270528554	0.002730486	0.028169919	0.008682243
2020-08-23T07:50:00	0.1343	15.468	119.0	0.287075165	0.268231272	0.002699387	0.027849077	0.008583356
2020-08-23T07:55:00	0.1336	15.630	120.0	0.285606332	0.265572424	0.002663505	0.027478890	0.008469261
2020-08-23T08:00:00	0.1334	15.852	121.0	0.285164497	0.264775286	0.002652771	0.027368147	0.008435129
2020-08-23T08:05:00	0.1341	15.853	120.0	0.286571618	0.267318231	0.002687052	0.027721816	0.008544133
2020-08-23T08:10:00	0.1330	15.924	121.0	0.284280712	0.263184493	0.002631382	0.027147481	0.008367117
2020-08-23T08:15:00	0.1327	15.925	121.0	0.283838761	0.262390839	0.002620727	0.027037557	0.008333238
2020-08-23T08:20:00	0.1328	15.903	121.0	0.284013340	0.262704199	0.002624933	0.027080945	0.008346610
2020-08-23T08:25:00	0.1335	15.931	121.0	0.285420778	0.265237507	0.002658994	0.027432348	0.008454916
2020-08-23T08:30:00	0.1336	15.993	122.0	0.285595302	0.265552510	0.002663237	0.027476122	0.008468408
2020-08-23T08:35:00	0.1337	15.984	122.0	0.285769820	0.265867694	0.002667484	0.027519938	0.008481912
2020-08-23T08:40:00	0.1343	16.101	122.0	0.286971389	0.268042972	0.002696842	0.027822819	0.008575263
2020-08-23T08:45:00	0.1359	16.153	122.0	0.290430980	0.274356916	0.002782509	0.028706628	0.008847662
2020-08-23T08:50:00	0.1360	16.101	122.0	0.290605337	0.274677124	0.002786871	0.028751634	0.008861533
2020-08-23T08:55:00	0.1364	16.297	122.0	0.291395382	0.276130451	0.002806692	0.028956122	0.008924558
2020-08-23T09:00:00	0.1361	16.474	123.0	0.290748794	0.274940727	0.002790463	0.028788697	0.008872956
2020-08-23T09:05:00	0.1352	16.357	123.0	0.288870370	0.271499377	0.002743655	0.028305781	0.008724117
2020-08-23T09:10:00	0.1346	16.434	124.0	0.287607414	0.269198092	0.002712464	0.027983992	0.008624938
2020-08-23T09:15:00	0.1346	16.349	124.0	0.287576500	0.269141889	0.002711703	0.027976145	0.008622520
2020-08-23T09:20:00	0.1330	16.463	124.0	0.284464142	0.263514259	0.002635812	0.027193188	0.008381205
2020-08-23T09:25:00	0.1337	16.588	125.0	0.285871456	0.266051341	0.002669959	0.027545477	0.008489783
2020-08-23T09:30:00	0.1320	16.433	124.0	0.282346918	0.259720880	0.002584962	0.026668579	0.008219515
2020-08-23T09:35:00	0.1323	16.442	124.0	0.282932673	0.260767536	0.002598968	0.026813072	0.008264049
2020-08-23T09:40:00	0.1325	16.480	125.0	0.283312826	0.261447969	0.002608083	0.026907111	0.008293033
2020-08-23T09:45:00	0.1319	16.523	125.0	0.282048496	0.259188476	0.002577845	0.026595155	0.008196885
2020-08-23T09:50:00	0.1320	16.527	125.0	0.282223136	0.259499977	0.002582009	0.026638108	0.008210124
2020-08-23T09:55:00	0.1323	16.418	125.0	0.283014461	0.260913851	0.002600927	0.026833286	0.008270279
2020-08-23T10:00:00	0.1313	16.412	125.0	0.280927575	0.257193695	0.002551224	0.026320504	0.008112235
2020-08-23T10:05:00	0.1317	16.490	125.0	0.281689997	0.258549634	0.002569312	0.026507119	0.008169751
2020-08-23T10:10:00	0.1323	16.428	125.0	0.282863433	0.260643702	0.002597310	0.026795966	0.008258777
2020-08-23T10:15:00	0.1310	16.463	126.0	0.280336060	0.256144234	0.002537246	0.026176297	0.008067789
2020-08-23T10:20:00	0.1315	16.388	126.0	0.281304201	0.257863052	0.002560149	0.026412585	0.008140615
2020-08-23T10:25:00	0.1314	16.434	119.0	0.281038509	0.257390760	0.002553851	0.026347605	0.008120588
2020-08-23T10:30:00	0.1311	16.337	120.0	0.280567154	0.256553977	0.002542701	0.026232576	0.008085135
2020-08-23T10:35:00	0.1304	16.410	119.0	0.279067282	0.253900611	0.002507427	0.025868664	0.007972974
2020-08-23T10:40:00	0.1297	16.495	127.0	0.277566943	0.251260602	0.002472454	0.025507851	0.007861767
2020-08-23T10:45:00	0.1293	16.486	120.0	0.276683627	0.249712947	0.002452009	0.025296922	0.007796757
2020-08-23T10:50:00	0.1297	16.506	120.0	0.277652504	0.251410774	0.002474440	0.025528341	0.007868083
2020-08-23T10:55:00	0.1296	16.474	120.0	0.277386610	0.250944242	0.002468271	0.025464699	0.007848467
2020-08-23T11:00:00	0.1287	16.527	121.0	0.275474011	0.247601557	0.002424185	0.025009870	0.007708285
2020-08-23T11:05:00	0.1287	16.633	121.0	0.275619745	0.247855448	0.002427527	0.025044344	0.007718910
2020-08-23T11:10:00	0.1295	16.694	122.0	0.277206271	0.250628075	0.002464093	0.025421591	0.007835181
2020-08-23T11:15:00	0.1293	16.646	121.0	0.276734540	0.249802017	0.002453184	0.025309049	0.007800495
2020-08-23T11:20:00	0.1291	16.642	122.0	0.276262762	0.248977278	0.002442305	0.025196812	0.007765902
2020-08-23T11:25:00	0.1285	16.639	122.0	0.275173319	0.247078128	0.002417300	0.024938835	0.007686391
2020-08-23T11:30:00	0.1286	16.709	122.0	0.275319062	0.247331759	0.002420635	0.024973249	0.007696998
2020-08-23T11:35:00	0.1285	16.687	122.0	0.275053036	0.246868906	0.002414549	0.024910455	0.007677644
2020-08-23T11:40:00	0.1279	16.743	123.0	0.273963309	0.244977567	0.002389717	0.024654275	0.007598687
2020-08-23T11:45:00	0.1274	16.765	122.0	0.272873322	0.243093262	0.002365042	0.024399707	0.007520227
2020-08-23T11:50:00	0.1270	16.827	122.0	0.271989107	0.241570183	0.002345145	0.024194426	0.007456957
2020-08-23T11:55:00	0.1275	16.961	124.0	0.272958969	0.243241053	0.002366976	0.024419650	0.007526373
2020-08-23T12:00:00	0.1275	16.935	123.0	0.273104783	0.243492772	0.002370269	0.024453626	0.007536845
2020-08-23T12:05:00	0.1263	16.875	125.0	0.270572157	0.239139725	0.002313480	0.023867748	0.007356272
2020-08-23T12:10:00	0.1261	16.829	124.0	0.270099740	0.238332212	0.002302984	0.023759456	0.007322895
2020-08-23T12:15:00	0.1261	16.829	125.0	0.270245646	0.238581464	0.002306222	0.023792869	0.007333193
2020-08-23T12:20:00	0.1257	16.799	125.0	0.269360909	0.237072132	0.002286628	0.023590720	0.007270889
2020-08-23T12:25:00	0.1253	16.838	125.0	0.268475994	0.235567427	0.002267136	0.023389621	0.007208908
2020-08-23T12:30:00	0.1255	16.763	126.0	0.269034309	0.236516208	0.002279422	0.023516373	0.007247974
2020-08-23T12:35:00	0.1249	16.782	127.0	0.267736888	0.234314438	0.002250936	0.023222493	0.007157398
2020-08-23T12:40:00	0.1238	16.778	126.0	0.265407491	0.230387974	0.002200361	0.022700717	0.006996581
2020-08-23T12:45:00	0.1230	16.799	126.0	0.263696130	0.227525056	0.002163667	0.022322151	0.006879904
2020-08-23T12:50:00	0.1232	16.782	126.0	0.264255075	0.228458080	0.002175608	0.022445351	0.006917875
2020-08-23T12:55:00	0.1223	16.735	126.0	0.262336748	0.225264104	0.002134798	0.022024314	0.006788107
2020-08-23T13:00:00	0.1222	16.717	126.0	0.262069925	0.224821686	0.002129160	0.021966151	0.006770181
2020-08-23T13:05:00	0.1223	16.716	125.0	0.262422605	0.225406560	0.002136614	0.022043050	0.006793882
2020-08-23T13:10:00	0.1222	16.702	126.0	0.262155788	0.224964007	0.002130973	0.021984857	0.006775947
2020-08-23T13:15:00	0.1218	16.667	127.0	0.261269353	0.223496948	0.002112301	0.021792224	0.006716575
2020-08-23T13:20:00	0.1228	16.645	127.0	0.263274020	0.226821748	0.002154676	0.022229397	0.006851316
2020-08-23T13:25:00	0.1261	16.609	127.0	0.270227204	0.238549951	0.002305813	0.023788644	0.007331891
2020-08-23T13:30:00	0.1363	16.528	120.0	0.291143925	0.275667456	0.002800374	0.028890937	0.008904467
2020-08-23T13:35:00	0.1399	16.395	114.0	0.298467369	0.289314985	0.002988093	0.030827607	0.009501368
2020-08-23T13:40:00	0.1401	16.281	110.0	0.299022353	0.290363004	0.003002634	0.030977619	0.009547603
2020-08-23T13:45:00	0.1406	16.183	109.0	0.299987111	0.292189454	0.003028017	0.031239488	0.009628314
2020-08-23T13:50:00	0.1388	16.135	109.0	0.296237723	0.285124149	0.002930125	0.030229564	0.009317045
2020-08-23T13:55:00	0.1381	16.127	120.0	0.294947442	0.282713256	0.002896907	0.029886857	0.009211419
2020-08-23T14:00:00	0.1380	16.106	120.0	0.294682441	0.282219401	0.002890114	0.029816776	0.009189820
2020-08-23T14:05:00	0.1373	16.162	116.0	0.293186651	0.279440153	0.002851961	0.029423156	0.009068502
2020-08-23T14:10:00	0.1371	16.179	116.0	0.292716400	0.278569319	0.002840032	0.029300091	0.009030573
2020-08-23T14:15:00	0.1367	16.174	114.0	0.292040918	0.277320866	0.002822953	0.029123886	0.008976265
2020-08-23T14:20:00	0.1361	16.183	116.0	0.290749654	0.274942308	0.002790485	0.028788919	0.008873024
2020-08-23T14:25:00	0.1347	16.197	116.0	0.287815474	0.269576515	0.002717587	0.028036844	0.008641228
2020-08-23T14:30:00	0.1338	16.222	118.0	0.286112346	0.266486864	0.002675832	0.027606066	0.008508458
2020-08-23T14:35:00	0.1338	16.236	117.0	0.286052340	0.266378340	0.002674368	0.027590965	0.008503803
2020-08-23T14:40:00	0.1341	16.239	115.0	0.286608586	0.267385208	0.002687956	0.027731146	0.008547009
2020-08-23T14:45:00	0.1325	16.251	117.0	0.283261004	0.261355160	0.002606839	0.026894280	0.008289078
2020-08-23T14:50:00	0.1323	16.272	118.0	0.282995417	0.260879778	0.002600471	0.026828579	0.008268828
2020-08-23T14:55:00	0.1319	16.243	118.0	0.282113090	0.259303669	0.002579385	0.026611037	0.008201780
2020-08-23T15:00:00	0.1315	16.233	117.0	0.281230606	0.257732186	0.002558403	0.026394576	0.008135065
2020-08-23T15:05:00	0.1306	16.244	118.0	0.279525247	0.254709275	0.002518164	0.025979439	0.008007115
2020-08-23T15:10:00	0.1309	16.247	119.0	0.280082220	0.255694547	0.002531262	0.026114565	0.008048763
2020-08-23T15:15:00	0.1306	16.250	119.0	0.279405075	0.254496950	0.002515344	0.025950342	0.007998147
2020-08-23T15:20:00	0.1300	16.314	119.0	0.278110603	0.252215592	0.002485091	0.025638224	0.007901950
2020-08-23T15:25:00	0.1308	16.321	122.0	0.279901982	0.255375496	0.002527019	0.026070790	0.008035271
2020-08-23T15:30:00	0.1297	16.322	0.0	0.277578853	0.251281503	0.002472730	0.025510702	0.007862646
2020-08-23T15:35:00	0.1293	16.319	0.0	0.276695540	0.249733785	0.002452284	0.025299759	0.007797631
2020-08-23T15:40:00	0.1282	16.319	0.0	0.274576750	0.246041339	0.002403676	0.024798280	0.007643071
2020-08-23T15:45:00	0.1279	16.290	0.0	0.273898814	0.244865863	0.002388253	0.024639165	0.007594030
2020-08-23T15:50:00	0.1280	16.265	0.0	0.274044597	0.245118394	0.002391564	0.024673327	0.007604559
2020-08-23T15:55:00	0.1271	16.205	0.0	0.272336631	0.242168212	0.002352952	0.024274977	0.007481784
2020-08-23T16:00:00	0.1277	16.162	0.0	0.273512383	0.244197126	0.002379490	0.024548758	0.007566166
2020-08-23T16:05:00	0.1275	16.139	0.0	0.273104130	0.243491644	0.002370254	0.024453473	0.007536798
2020-08-23T16:10:00	0.1267	16.122	0.0	0.271459685	0.240660599	0.002333282	0.024072038	0.007419236
2020-08-23T16:15:00	0.1274	16.102	0.0	0.272905519	0.243148815	0.002365769	0.024407203	0.007522537
2020-08-23T16:20:00	0.1284	16.075	0.0	0.274968618	0.246722121	0.002412619	0.024890550	0.007671509
2020-08-23T16:25:00	0.1312	16.069	0.0	0.280733835	0.256849720	0.002546640	0.026273217	0.008097661
2020-08-23T16:30:00	0.1350	16.109	0.0	0.288545956	0.270907288	0.002735621	0.028222902	0.008698572
2020-08-23T16:35:00	0.1366	16.062	0.0	0.291833882	0.276938792	0.002817731	0.029070014	0.008959661
2020-08-23T16:40:00	0.1398	15.953	0.0	0.298400163	0.289188206	0.002986335	0.030809472	0.009495779
2020-08-23T16:45:00	0.1406	15.887	0.0	0.300043299	0.292296007	0.003029499	0.031254783	0.009633028
2020-08-23T16:50:00	0.1408	15.862	0.0	0.300456760	0.293080703	0.003040422	0.031367472	0.009667760
2020-08-23T16:55:00	0.1404	15.850	0.0	0.299640809	0.291533171	0.003018890	0.031145329	0.009599293
2020-08-23T17:00:00	0.1403	15.823	0.0	0.299439554	0.291152116	0.003013594	0.031090691	0.009582453
2020-08-23T17:05:00	0.1396	15.800	0.0	0.298008564	0.288450055	0.002976106	0.030703939	0.009463252
2020-08-23T17:10:00	0.1403	15.784	0.0	0.299446889	0.291165998	0.003013787	0.031092681	0.009583066
2020-08-23T17:15:00	0.1399	15.771	0.0	0.298630796	0.289623395	0.002992370	0.030871733	0.009514968
2020-08-23T17:20:00	0.1365	15.750	0.0	0.291661727	0.276621292	0.002813394	0.029025266	0.008945869
2020-08-23T17:25:00	0.1350	15.733	0.0	0.288586375	0.270981021	0.002736621	0.028233219	0.008701752
2020-08-23T17:30:00	0.1355	15.720	0.0	0.289411296	0.272488095	0.002757083	0.028444316	0.008766814
2020-08-23T17:35:00	0.1345	15.707	114.0	0.287361615	0.268751381	0.002706420	0.027921636	0.008605719
2020-08-23T17:40:00	0.1344	15.689	111.0	0.287159911	0.268385091	0.002701466	0.027870531	0.008589968
2020-08-23T17:45:00	0.1342	15.670	111.0	0.286752803	0.267646575	0.002691486	0.027767564	0.008558233
2020-08-23T17:50:00	0.1341	15.654	111.0	0.286551075	0.267281016	0.002686549	0.027716632	0.008542535
2020-08-23T17:55:00	0.1334	15.644	110.0	0.285116697	0.264689121	0.002651611	0.027356183	0.008431441
2020-08-23T18:00:00	0.1335	15.628	110.0	0.285325835	0.265066222	0.002656687	0.027408552	0.008447582
2020-08-23T18:05:00	0.1337	15.608	111.0	0.285740408	0.265814562	0.002666768	0.027512551	0.008479635
2020-08-23T18:10:00	0.1339	15.593	112.0	0.286154948	0.266563926	0.002676871	0.027616790	0.008511763
2020-08-23T18:15:00	0.1339	15.571	112.0	0.286158624	0.266570576	0.002676961	0.027617715	0.008512048
2020-08-23T18:20:00	0.1347	15.542	112.0	0.287805426	0.269558233	0.002717339	0.028034290	0.008640440
2020-08-23T18:25:00	0.1344	15.516	112.0	0.287192990	0.268445144	0.002702278	0.027878908	0.008592550
2020-08-23T18:30:00	0.1340	15.504	113.0	0.286375072	0.266962283	0.002682247	0.027672243	0.008528854
2020-08-23T18:35:00	0.1346	15.492	112.0	0.287611089	0.269204774	0.002712555	0.027984925	0.008625226
2020-08-23T18:40:00	0.1346	15.480	112.0	0.287614764	0.269211456	0.002712645	0.027985858	0.008625513
2020-08-23T18:45:00	0.1341	15.463	112.0	0.286591510	0.267354269	0.002687538	0.027726836	0.008545680
2020-08-23T18:50:00	0.1345	15.431	112.0	0.287416745	0.268851539	0.002707775	0.027935614	0.008610027
2020-08-23T18:55:00	0.1348	15.402	112.0	0.288036504	0.269978826	0.002723036	0.028093059	0.008658554
2020-08-23T19:00:00	0.1348	15.383	111.0	0.288040178	0.269985518	0.002723127	0.028093995	0.008658842
2020-08-23T19:05:00	0.1355	15.355	118.0	0.289481099	0.272615817	0.002758819	0.028462224	0.008772334
2020-08-23T19:10:00	0.1359	15.330	118.0	0.290305881	0.274127289	0.002779381	0.028674365	0.008837718
2020-08-23T19:15:00	0.1358	15.313	117.0	0.290104289	0.273757462	0.002774347	0.028622422	0.008821708
2020-08-23T19:20:00	0.1362	15.287	112.0	0.290928975	0.275271996	0.002794980	0.028835290	0.008887317
2020-08-23T19:25:00	0.1356	15.258	118.0	0.289701083	0.273018534	0.002764294	0.028518709	0.008789743
2020-08-23T19:30:00	0.1352	15.241	112.0	0.288883556	0.271523456	0.002743982	0.028309153	0.008725156
2020-08-23T19:35:00	0.1349	15.219	118.0	0.288271246	0.270406435	0.002728830	0.028152840	0.008676979
2020-08-23T19:40:00	0.1350	15.195	117.0	0.288480257	0.270787462	0.002733996	0.028206136	0.008693405
2020-08-23T19:45:00	0.1346	15.164	111.0	0.287662540	0.269298331	0.002713821	0.027997990	0.008629252
2020-08-23T19:50:00	0.1355	15.123	118.0	0.289514164	0.272676328	0.002759641	0.028470710	0.008774949
2020-08-23T19:55:00	0.1357	15.102	117.0	0.289928405	0.273435004	0.002769959	0.028577151	0.008807756
2020-08-23T20:00:00	0.1361	15.096	117.0	0.290753117	0.274948674	0.002790572	0.028789814	0.008873300
2020-08-23T20:05:00	0.1362	15.077	117.0	0.290962030	0.275332792	0.002795809	0.028843843	0.008889953
2020-08-23T20:10:00	0.1363	15.039	116.0	0.291170935	0.275717170	0.002801052	0.028897935	0.008906624
2020-08-23T20:15:00	0.1362	15.007	116.0	0.290969376	0.275346303	0.002795993	0.028845744	0.008890539
2020-08-23T20:20:00	0.1358	14.985	116.0	0.290152043	0.273845045	0.002775539	0.028634721	0.008825499
2020-08-23T20:25:00	0.1363	15.005	113.0	0.291181953	0.275737450	0.002801328	0.028900789	0.008907504
2020-08-23T20:30:00	0.1368	14.969	115.0	0.292211667	0.277636180	0.002827264	0.029168364	0.008989973
2020-08-23T20:35:00	0.1370	14.945	115.0	0.292625701	0.278401518	0.002837735	0.029276392	0.009023268
2020-08-23T20:40:00	0.1366	14.934	115.0	0.291808618	0.276892187	0.002817095	0.029063445	0.008957636
2020-08-23T20:45:00	0.1362	14.923	114.0	0.290991413	0.275386838	0.002796546	0.028851448	0.008892296
2020-08-23T20:50:00	0.1373	14.906	114.0	0.293252200	0.279561650	0.002853626	0.029440336	0.009073797
2020-08-23T20:55:00	0.1365	14.896	114.0	0.291614428	0.276534093	0.002812203	0.029012979	0.008942082
2020-08-23T21:00:00	0.1364	14.873	113.0	0.291412885	0.276162693	0.002807132	0.028960662	0.008925957
2020-08-23T21:05:00	0.1356	14.855	114.0	0.289774556	0.273153107	0.002766124	0.028537590	0.008795562
2020-08-23T21:10:00	0.1358	14.823	114.0	0.290188777	0.273912426	0.002776456	0.028644184	0.008828416
2020-08-23T21:15:00	0.1357	14.798	115.0	0.289987181	0.273542739	0.002771424	0.028592274	0.008812417
2020-08-23T21:20:00	0.1359	14.767	115.0	0.290401385	0.274302584	0.002781769	0.028698994	0.008845309
2020-08-23T21:25:00	0.1349	14.743	115.0	0.288352088	0.270553778	0.002730828	0.028173447	0.008683330
2020-08-23T21:30:00	0.1349	14.729	115.0	0.288355763	0.270560476	0.002730919	0.028174384	0.008683619
2020-08-23T21:35:00	0.1350	14.722	115.0	0.288564770	0.270941608	0.002736087	0.028227704	0.008700053
2020-08-23T21:40:00	0.1350	14.692	115.0	0.288568445	0.270948311	0.002736178	0.028228642	0.008700342
2020-08-23T21:45:00	0.1349	14.664	115.0	0.288366787	0.270580572	0.002731191	0.028177194	0.008684485
2020-08-23T21:50:00	0.1347	14.630	115.0	0.287959773	0.269839129	0.002721144	0.028073536	0.008652537
2020-08-23T21:55:00	0.1351	14.622	115.0	0.288784792	0.271343123	0.002741534	0.028283903	0.008717374
2020-08-23T22:00:00	0.1350	14.591	115.0	0.288583143	0.270975124	0.002736541	0.028232394	0.008701498
2020-08-23T22:05:00	0.1360	14.575	115.0	0.290459830	0.274409887	0.002783230	0.028714072	0.008849956
2020-08-23T22:10:00	0.1364	14.555	114.0	0.291309844	0.275972910	0.002804541	0.028933938	0.008917721
2020-08-23T22:15:00	0.1371	14.548	115.0	0.292775262	0.278678246	0.002841524	0.029315477	0.009035315
2020-08-23T22:20:00	0.1373	14.532	115.0	0.293214627	0.279492005	0.002852672	0.029430487	0.009070762
2020-08-23T22:25:00	0.1371	14.499	115.0	0.292833357	0.278785775	0.002842996	0.029330668	0.009039997
2020-08-23T22:30:00	0.1373	14.490	115.0	0.293272717	0.279599685	0.002854148	0.029445715	0.009075455
2020-08-23T22:35:00	0.1373	14.463	115.0	0.293301762	0.279653533	0.002854886	0.029453330	0.009077802
2020-08-23T22:40:00	0.1378	14.435	115.0	0.294151333	0.281230963	0.002876531	0.029676635	0.009146627
2020-08-23T22:45:00	0.1379	14.401	115.0	0.294385485	0.281666521	0.002882514	0.029738368	0.009165654
2020-08-23T22:50:00	0.1378	14.393	115.0	0.294209413	0.281338968	0.002878014	0.029691940	0.009151344
2020-08-23T22:55:00	0.1381	14.366	114.0	0.294853759	0.282538618	0.002894505	0.029862070	0.009203780
2020-08-23T23:00:00	0.1387	14.355	115.0	0.296113198	0.284891015	0.002926909	0.030196382	0.009306818
2020-08-23T23:05:00	0.1390	14.325	114.0	0.296757325	0.286097989	0.002943570	0.030368272	0.009359796
2020-08-23T23:10:00	0.1391	14.285	115.0	0.296991368	0.286537191	0.002949639	0.030430881	0.009379093
2020-08-23T23:15:00	0.1392	14.275	115.0	0.297020394	0.286591684	0.002950392	0.030438652	0.009381488
2020-08-23T23:20:00	0.1395	14.259	114.0	0.297664419	0.287802150	0.002967135	0.030611384	0.009434726
2020-08-23T23:25:00	0.1396	14.213	114.0	0.297898425	0.288242620	0.002973233	0.030674299	0.009454117
2020-08-23T23:30:00	0.1395	14.198	114.0	0.297722462	0.287911374	0.002968647	0.030626982	0.009439533
2020-08-23T23:35:00	0.1395	14.186	114.0	0.297751484	0.287965993	0.002969403	0.030634783	0.009441938
2020-08-23T23:40:00	0.1389	14.169	114.0	0.296550465	0.285710088	0.002938213	0.030313003	0.009342762
2020-08-23T23:45:00	0.1391	14.142	114.0	0.296989534	0.286533747	0.002949591	0.030430390	0.009378942
2020-08-23T23:50:00	0.1396	14.126	114.0	0.297838548	0.288129882	0.002971672	0.030658193	0.009449153
2020-08-23T23:55:00	0.1390	14.116	113.0	0.296637548	0.285873352	0.002940468	0.030336262	0.009349931
2020-08-24T00:00:00	0.1385	14.070	113.0	0.295641359	0.284008537	0.002914742	0.030070859	0.009268131
2020-08-24T00:05:00	0.1387	14.063	113.0	0.296080498	0.284829812	0.002926065	0.030187672	0.009304134
2020-08-24T00:10:00	0.1391	14.041	114.0	0.296929648	0.286421334	0.002948038	0.030414363	0.009374002
2020-08-24T00:15:00	0.1388	14.023	113.0	0.296343598	0.285322442	0.002932862	0.030257795	0.009325746
2020-08-24T00:20:00	0.1390	14.013	113.0	0.296782683	0.286145559	0.002944227	0.030375052	0.009361886
2020-08-24T00:25:00	0.1391	13.980	113.0	0.296811709	0.286200015	0.002944980	0.030382813	0.009364278
2020-08-24T00:30:00	0.1386	13.953	111.0	0.295815551	0.284334164	0.002919230	0.030117161	0.009282401
2020-08-24T00:35:00	0.1385	13.940	111.0	0.295639524	0.284005108	0.002914695	0.030070371	0.009267981
2020-08-24T00:40:00	0.1381	13.913	111.0	0.294848254	0.282528357	0.002894363	0.029860614	0.009203331
2020-08-24T00:45:00	0.1382	13.874	112.0	0.295082376	0.282964889	0.002900370	0.029922581	0.009222430
2020-08-24T00:50:00	0.1381	13.841	111.0	0.294906326	0.282636604	0.002895853	0.029875977	0.009208066
2020-08-24T00:55:00	0.1381	13.788	111.0	0.294935363	0.282690736	0.002896597	0.029883660	0.009210434
2020-08-24T01:00:00	0.1374	13.805	111.0	0.293323464	0.279693772	0.002855437	0.029459021	0.009079556
2020-08-24T01:05:00	0.1372	13.795	111.0	0.292942201	0.278987294	0.002845756	0.029359142	0.009048773
2020-08-24T01:10:00	0.1375	13.768	111.0	0.293586694	0.280182070	0.002862134	0.029528104	0.009100848
2020-08-24T01:15:00	0.1377	13.736	111.0	0.294025995	0.280997956	0.002873331	0.029643624	0.009136453
2020-08-24T01:20:00	0.1380	13.674	112.0	0.294670361	0.282196900	0.002889805	0.029813584	0.009188836
2020-08-24T01:25:00	0.1382	13.667	111.0	0.295109576	0.283015628	0.002901068	0.029929785	0.009224650
2020-08-24T01:30:00	0.1379	13.645	111.0	0.294523337	0.281923108	0.002886041	0.029774750	0.009176867
2020-08-24T01:35:00	0.1377	13.623	111.0	0.293937036	0.280832640	0.002871061	0.029620208	0.009129236
2020-08-24T01:40:00	0.1377	13.616	110.0	0.293966077	0.280886603	0.002871802	0.029627851	0.009131591
2020-08-24T01:45:00	0.1379	13.576	110.0	0.294405348	0.281703484	0.002883022	0.029743609	0.009167269
2020-08-24T01:50:00	0.1381	13.568	110.0	0.294844583	0.282521517	0.002894269	0.029859643	0.009203032
2020-08-24T01:55:00	0.1382	13.566	111.0	0.295078706	0.282958044	0.002900276	0.029921609	0.009222130
2020-08-24T02:00:00	0.1384	13.542	110.0	0.295517889	0.283777843	0.002911564	0.030038067	0.009258024
2020-08-24T02:05:00	0.1382	13.525	110.0	0.295136776	0.283066371	0.002901767	0.029936991	0.009226871
2020-08-24T02:10:00	0.1382	13.500	111.0	0.294960728	0.282738029	0.002897248	0.029890373	0.009212503
2020-08-24T02:15:00	0.1382	13.459	110.0	0.294989764	0.282792169	0.002897993	0.029898059	0.009214872
2020-08-24T02:20:00	0.1377	13.462	110.0	0.293993283	0.280937160	0.002872496	0.029635012	0.009133798
2020-08-24T02:25:00	0.1379	13.440	109.0	0.294432551	0.281754113	0.002883718	0.029750787	0.009169481
2020-08-24T02:30:00	0.1369	13.420	109.0	0.292410159	0.278002956	0.002832281	0.029220122	0.009005925
2020-08-24T02:35:00	0.1366	13.408	109.0	0.291823633	0.276919883	0.002817473	0.029067349	0.008958839
2020-08-24T02:40:00	0.1366	13.349	109.0	0.291852685	0.276973480	0.002818205	0.029074904	0.008961168
2020-08-24T02:45:00	0.1365	13.336	109.0	0.291471319	0.276270348	0.002808602	0.028975825	0.008930631
2020-08-24T02:50:00	0.1362	13.321	109.0	0.290884691	0.275190561	0.002793869	0.028823835	0.008883786
2020-08-24T02:55:00	0.1360	13.302	111.0	0.290503257	0.274489631	0.002784316	0.028725279	0.008853410
2020-08-24T03:00:00	0.1353	13.283	109.0	0.289095356	0.271910387	0.002749235	0.028363350	0.008741860
2020-08-24T03:05:00	0.1347	13.241	109.0	0.287892439	0.269716569	0.002719484	0.028056411	0.008647258
2020-08-24T03:10:00	0.1342	13.241	109.0	0.286894643	0.267903762	0.002694961	0.027803411	0.008569281
2020-08-24T03:15:00	0.1344	13.242	109.0	0.287334492	0.268702112	0.002705754	0.027914760	0.008603600
2020-08-24T03:20:00	0.1347	13.207	109.0	0.287774304	0.269501613	0.002716573	0.028026381	0.008638003
2020-08-24T03:25:00	0.1351	13.177	109.0	0.288624747	0.271051030	0.002737571	0.028243017	0.008704772
2020-08-24T03:30:00	0.1353	13.178	108.0	0.289064451	0.271853911	0.002748468	0.028355438	0.008739421
2020-08-24T03:35:00	0.1346	13.145	109.0	0.287656167	0.269286741	0.002713664	0.027996371	0.008628753
2020-08-24T03:40:00	0.1349	13.142	109.0	0.288301295	0.270461196	0.002729573	0.028160499	0.008679339
2020-08-24T03:45:00	0.1357	13.113	109.0	0.289972812	0.273516400	0.002771066	0.028588577	0.008811277
2020-08-24T03:50:00	0.1362	13.098	108.0	0.291028141	0.275454403	0.002797467	0.028860954	0.008895226
2020-08-24T03:55:00	0.1365	13.087	109.0	0.291467647	0.276263582	0.002808509	0.028974872	0.008930337
2020-08-24T04:00:00	0.1363	13.070	109.0	0.291086254	0.275561326	0.002798926	0.028876001	0.008899864
2020-08-24T04:05:00	0.1362	13.051	108.0	0.290937297	0.275287302	0.002795188	0.028837444	0.008887980
2020-08-24T04:10:00	0.1364	12.994	108.0	0.291404029	0.276146379	0.002806909	0.028958365	0.008925249
2020-08-24T04:15:00	0.1370	12.987	108.0	0.292691466	0.278523183	0.002839401	0.029293574	0.009028564
2020-08-24T04:20:00	0.1367	13.011	108.0	0.291926989	0.277110582	0.002820079	0.029094234	0.008967125
2020-08-24T04:25:00	0.1369	13.020	109.0	0.292393636	0.277972414	0.002831863	0.029215812	0.009004597
2020-08-24T04:30:00	0.1376	12.993	108.0	0.293885970	0.280737764	0.002869759	0.029606771	0.009125094
2020-08-24T04:35:00	0.1383	12.974	108.0	0.295172826	0.283133630	0.002902692	0.029946542	0.009229815
2020-08-24T04:40:00	0.1392	12.972	108.0	0.297074450	0.286693184	0.002951795	0.030453126	0.009385949
2020-08-24T04:45:00	0.1402	12.963	107.0	0.299180379	0.290661773	0.003006782	0.031020417	0.009560794
2020-08-24T04:50:00	0.1399	12.973	108.0	0.298621743	0.289606306	0.002992133	0.030869288	0.009514214
2020-08-24T04:55:00	0.1402	12.978	110.0	0.299087834	0.290486785	0.003004352	0.030995349	0.009553067
2020-08-24T05:00:00	0.1396	13.009	113.0	0.297914282	0.288272480	0.002973647	0.030678565	0.009455432
2020-08-24T05:05:00	0.1401	13.010	108.0	0.298995287	0.290311849	0.003001924	0.030970292	0.009545345
2020-08-24T05:10:00	0.1397	12.963	108.0	0.298026696	0.288484211	0.002976579	0.030708821	0.009464757
2020-08-24T05:15:00	0.1402	12.995	108.0	0.299107680	0.290524306	0.003004873	0.031000723	0.009554724
2020-08-24T05:20:00	0.1403	12.991	108.0	0.299368808	0.291018226	0.003011733	0.031071499	0.009576538
2020-08-24T05:25:00	0.1411	12.974	112.0	0.301064183	0.294235465	0.003056514	0.031533491	0.009718928
2020-08-24T05:30:00	0.1414	12.994	112.0	0.301530080	0.295122753	0.003068893	0.031661205	0.009758291
2020-08-24T05:35:00	0.1406	13.013	108.0	0.299947216	0.292113809	0.003026964	0.031228632	0.009624968
2020-08-24T05:40:00	0.1407	13.004	108.0	0.300208306	0.292609040	0.003033855	0.031299725	0.009646879
2020-08-24T05:45:00	0.1411	13.015	108.0	0.301084022	0.294273221	0.003057040	0.031538923	0.009720602
2020-08-24T05:50:00	0.1415	13.027	107.0	0.301754767	0.295551151	0.003074874	0.031722913	0.009777310
2020-08-24T05:55:00	0.1415	13.046	107.0	0.301810937	0.295658298	0.003076371	0.031738352	0.009782068
2020-08-24T06:00:00	0.1422	13.035	106.0	0.303300825	0.298507573	0.003116232	0.032149587	0.009908815
2020-08-24T06:05:00	0.1424	13.041	106.0	0.303561768	0.299008043	0.003123246	0.032221956	0.009931120
2020-08-24T06:10:00	0.1425	13.063	106.0	0.303822700	0.299508921	0.003130271	0.032294425	0.009953455
2020-08-24T06:15:00	0.1427	13.088	107.0	0.304288383	0.300403902	0.003142832	0.032424015	0.009993396
2020-08-24T06:20:00	0.1426	13.123	107.0	0.304139769	0.300118137	0.003138820	0.032382623	0.009980639
2020-08-24T06:25:00	0.1430	13.154	111.0	0.304810173	0.301408337	0.003156944	0.032569609	0.010038270
2020-08-24T06:30:00	0.1432	13.187	112.0	0.305275781	0.302306072	0.003169570	0.032699874	0.010078419
2020-08-24T06:35:00	0.1431	13.212	107.0	0.305127191	0.302019428	0.003165538	0.032658267	0.010065595
2020-08-24T06:40:00	0.1427	13.222	108.0	0.304364359	0.300550046	0.003144884	0.032445189	0.009999922
2020-08-24T06:45:00	0.1431	13.284	107.0	0.305034738	0.301841148	0.003163030	0.032632396	0.010057621
2020-08-24T06:50:00	0.1425	13.313	107.0	0.303862361	0.299585091	0.003131339	0.032305449	0.009956853
2020-08-24T06:55:00	0.1427	13.359	107.0	0.304328041	0.300480182	0.003143903	0.032435066	0.009996802
2020-08-24T07:00:00	0.1425	13.423	108.0	0.303769888	0.299407511	0.003128848	0.032279749	0.009948932
2020-08-24T07:05:00	0.1420	13.458	107.0	0.302802080	0.297552209	0.003102852	0.032011552	0.009866271
2020-08-24T07:10:00	0.1420	13.494	108.0	0.302858240	0.297659708	0.003104357	0.032027076	0.009871056
2020-08-24T07:15:00	0.1418	13.547	107.0	0.302504775	0.296983458	0.003094894	0.031929447	0.009840966
2020-08-24T07:20:00	0.1419	13.579	113.0	0.302560938	0.297090857	0.003096396	0.031944947	0.009845743
2020-08-24T07:25:00	0.1415	13.644	108.0	0.301797782	0.295633203	0.003076020	0.031734735	0.009780954
2020-08-24T07:30:00	0.1420	13.714	109.0	0.302878074	0.297697677	0.003104888	0.032032560	0.009872746
2020-08-24T07:35:00	0.1425	13.785	109.0	0.303958171	0.299769138	0.003133921	0.032332090	0.009965064
2020-08-24T07:40:00	0.1426	13.824	109.0	0.304014321	0.299877026	0.003135435	0.032347710	0.009969878
2020-08-24T07:45:00	0.1438	13.860	109.0	0.306527175	0.304725652	0.003203664	0.033051612	0.010186828
2020-08-24T07:50:00	0.1439	13.914	113.0	0.306787981	0.305231166	0.003210799	0.033125218	0.010209514
2020-08-24T07:55:00	0.1435	13.890	109.0	0.305820650	0.303358366	0.003184387	0.032852732	0.010125531
2020-08-24T08:00:00	0.1442	14.028	114.0	0.307309560	0.306243416	0.003225097	0.033272731	0.010254979
2020-08-24T08:05:00	0.1435	14.055	114.0	0.305932915	0.303575413	0.003187445	0.032884283	0.010135255
2020-08-24T08:10:00	0.1433	14.122	109.0	0.305579628	0.302892654	0.003177827	0.032785060	0.010104674
2020-08-24T08:15:00	0.1442	14.084	108.0	0.307273259	0.306172910	0.003224101	0.033262451	0.010251811
2020-08-24T08:20:00	0.1445	14.048	109.0	0.307943324	0.307475698	0.003242525	0.033452530	0.010310395
2020-08-24T08:25:00	0.1438	14.109	109.0	0.306566819	0.304802464	0.003204748	0.033062794	0.010190274
2020-08-24T08:30:00	0.1445	14.179	114.0	0.308055551	0.307694174	0.003245617	0.033484433	0.010320227
2020-08-24T08:35:00	0.1440	14.174	105.0	0.306883746	0.305416892	0.003213421	0.033152272	0.010217852
2020-08-24T08:40:00	0.1444	14.239	110.0	0.307758500	0.307116067	0.003237436	0.033400032	0.010294214
2020-08-24T08:45:00	0.1448	14.315	110.0	0.308633132	0.308819831	0.003261561	0.033648925	0.010370925
2020-08-24T08:50:00	0.1447	14.338	110.0	0.308279998	0.308131353	0.003251807	0.033548294	0.010339910
2020-08-24T08:55:00	0.1448	14.402	114.0	0.308540731	0.308639607	0.003259007	0.033622575	0.010362804
2020-08-24T09:00:00	0.1445	14.399	110.0	0.307982958	0.307552846	0.003243617	0.033463795	0.010313867
2020-08-24T09:05:00	0.1437	14.432	115.0	0.306401776	0.304482746	0.003200237	0.033016258	0.010175931
2020-08-24T09:10:00	0.1435	14.510	110.0	0.305843812	0.303403141	0.003185018	0.032859240	0.010127537
2020-08-24T09:15:00	0.1437	14.643	110.0	0.306309342	0.304303760	0.003197713	0.032990213	0.010167904
2020-08-24T09:20:00	0.1429	14.591	110.0	0.304727733	0.301249528	0.003154712	0.032546579	0.010031172
2020-08-24T09:25:00	0.1426	14.578	110.0	0.304169618	0.300175520	0.003139625	0.032390934	0.009983200
2020-08-24T09:30:00	0.1432	14.574	111.0	0.305249486	0.302255336	0.003168857	0.032692509	0.010076149
2020-08-24T09:35:00	0.1424	14.657	116.0	0.303667604	0.299211150	0.003126094	0.032251337	0.009940175
2020-08-24T09:40:00	0.1418	14.710	111.0	0.302494962	0.296964695	0.003094631	0.031926739	0.009840131
2020-08-24T09:45:00	0.1419	14.682	111.0	0.302551125	0.297072091	0.003096133	0.031942238	0.009844908
2020-08-24T09:50:00	0.1419	14.656	111.0	0.302607288	0.297179506	0.003097636	0.031957742	0.009849687
2020-08-24T09:55:00	0.1421	14.674	112.0	0.303073065	0.298071096	0.003110117	0.032086504	0.009889372
2020-08-24T10:00:00	0.1417	14.666	112.0	0.302309974	0.296611102	0.003089686	0.031875722	0.009824407
2020-08-24T10:05:00	0.1417	14.662	113.0	0.302159478	0.296323597	0.003085667	0.031834256	0.009811627
2020-08-24T10:10:00	0.1413	14.752	112.0	0.301394438	0.294864285	0.003065286	0.031623988	0.009746820
2020-08-24T10:15:00	0.1411	14.906	112.0	0.301039052	0.294187644	0.003055847	0.031526612	0.009716808
2020-08-24T10:20:00	0.1405	14.993	112.0	0.299864059	0.291956169	0.003024772	0.031206010	0.009617995
2020-08-24T10:25:00	0.1411	14.955	113.0	0.300942870	0.294004654	0.003053296	0.031500290	0.009708695
2020-08-24T10:30:00	0.1413	14.921	113.0	0.301406944	0.294888111	0.003065618	0.031627418	0.009747878
2020-08-24T10:35:00	0.1411	14.897	113.0	0.301051560	0.294211444	0.003056179	0.031530036	0.009717863
2020-08-24T10:40:00	0.1404	14.929	118.0	0.299466733	0.291203562	0.003014309	0.031098066	0.009584726
2020-08-24T10:45:00	0.1406	14.951	114.0	0.299930924	0.292082920	0.003026535	0.031224199	0.009623601
2020-08-24T10:50:00	0.1402	14.958	114.0	0.299165594	0.290633812	0.003006394	0.031016411	0.009559559
2020-08-24T10:55:00	0.1397	14.983	114.0	0.298195196	0.288801731	0.002980979	0.030754207	0.009478745
2020-08-24T11:00:00	0.1400	15.010	114.0	0.298659488	0.289677559	0.002993122	0.030879485	0.009517357
2020-08-24T11:05:00	0.1401	15.018	114.0	0.298918802	0.290167314	0.002999917	0.030949594	0.009538965
2020-08-24T11:10:00	0.1399	15.042	114.0	0.298563267	0.289495938	0.002990603	0.030853495	0.009509347
2020-08-24T11:15:00	0.1400	15.081	113.0	0.298822585	0.289985543	0.002997395	0.030923569	0.009530944
2020-08-24T11:20:00	0.1401	15.134	114.0	0.298876950	0.290088240	0.002998820	0.030938272	0.009535476
2020-08-24T11:25:00	0.1404	15.177	114.0	0.299546113	0.291353841	0.003016397	0.031119613	0.009591367
2020-08-24T11:30:00	0.1408	15.212	115.0	0.300420094	0.293011071	0.003039452	0.031357468	0.009664676
2020-08-24T11:35:00	0.1407	15.260	115.0	0.300269550	0.292725269	0.003035473	0.031316416	0.009652024
2020-08-24T11:40:00	0.1409	15.308	115.0	0.300528793	0.293217521	0.003042327	0.031387131	0.009673819
2020-08-24T11:45:00	0.1403	15.350	115.0	0.299353698	0.290989634	0.003011336	0.031067400	0.009575275
2020-08-24T11:50:00	0.1400	15.358	116.0	0.298793244	0.289930124	0.002996626	0.030915635	0.009528499
2020-08-24T11:55:00	0.1393	15.411	117.0	0.297207802	0.286943653	0.002955258	0.030488852	0.009396960
2020-08-24T12:00:00	0.1394	15.407	117.0	0.297467181	0.287431158	0.002962001	0.030558418	0.009418401
2020-08-24T12:05:00	0.1388	15.417	117.0	0.296291462	0.285224787	0.002931514	0.030243891	0.009321461
2020-08-24T12:10:00	0.1383	15.426	117.0	0.295320577	0.283409380	0.002906489	0.029985710	0.009241887
2020-08-24T12:15:00	0.1380	15.434	117.0	0.294554628	0.281981368	0.002886842	0.029783013	0.009179414
2020-08-24T12:20:00	0.1374	15.446	117.0	0.293378300	0.279795457	0.002856832	0.029473404	0.009083989
2020-08-24T12:25:00	0.1372	15.495	117.0	0.293022415	0.279135854	0.002847791	0.029380138	0.009055244
2020-08-24T12:30:00	0.1374	15.487	117.0	0.293487133	0.279997331	0.002859600	0.029501963	0.009092792
2020-08-24T12:35:00	0.1371	15.512	118.0	0.292720932	0.278577704	0.002840147	0.029301275	0.009030938
2020-08-24T12:40:00	0.1367	15.513	118.0	0.291954623	0.277161580	0.002820776	0.029101424	0.008969342
2020-08-24T12:45:00	0.1364	15.526	118.0	0.291393430	0.276126855	0.002806643	0.028955615	0.008924402
2020-08-24T12:50:00	0.1361	15.512	118.0	0.290832178	0.275094008	0.002792553	0.028810254	0.008879600
2020-08-24T12:55:00	0.1360	15.496	119.0	0.290476127	0.274439811	0.002783638	0.028718277	0.008851252
2020-08-24T13:00:00	0.1361	15.463	118.0	0.290735822	0.274916886	0.002790138	0.028785344	0.008871923
2020-08-24T13:05:00	0.1359	15.469	118.0	0.290379764	0.274262894	0.002781228	0.028693417	0.008843590
2020-08-24T13:10:00	0.1362	15.475	118.0	0.291049945	0.275494518	0.002798014	0.028866599	0.008896966
2020-08-24T13:15:00	0.1355	15.485	117.0	0.289462288	0.272581395	0.002758351	0.028457398	0.008770846
2020-08-24T13:20:00	0.1355	15.495	118.0	0.289516745	0.272681051	0.002759705	0.028471372	0.008775153
2020-08-24T13:25:00	0.1358	15.504	118.0	0.290187033	0.273909227	0.002776412	0.028643735	0.008828277
2020-08-24T13:30:00	0.1364	15.520	118.0	0.291267702	0.275895312	0.002803482	0.028923012	0.008914353
2020-08-24T13:35:00	0.1355	15.539	118.0	0.289474821	0.272604329	0.002758663	0.028460613	0.008771837
2020-08-24T13:40:00	0.1359	15.562	119.0	0.290350378	0.274208955	0.002780493	0.028685838	0.008841254
2020-08-24T13:45:00	0.1360	15.582	118.0	0.290610079	0.274685836	0.002786990	0.028752858	0.008861910
2020-08-24T13:50:00	0.1362	15.602	119.0	0.290869767	0.275163119	0.002793495	0.028819974	0.008882596
2020-08-24T13:55:00	0.1364	15.593	119.0	0.291334669	0.276018627	0.002805165	0.028940375	0.008919705
2020-08-24T14:00:00	0.1356	15.580	119.0	0.289747097	0.273102808	0.002765440	0.028530532	0.008793387
2020-08-24T14:05:00	0.1359	15.603	119.0	0.290417356	0.274331905	0.002782168	0.028703114	0.008846578
2020-08-24T14:10:00	0.1364	15.614	119.0	0.291292760	0.275941450	0.002804112	0.028929508	0.008916355
2020-08-24T14:15:00	0.1362	15.623	120.0	0.290936739	0.275286276	0.002795174	0.028837299	0.008887936
2020-08-24T14:20:00	0.1364	15.595	119.0	0.291401635	0.276141969	0.002806849	0.028957744	0.008925058
2020-08-24T14:25:00	0.1366	15.577	120.0	0.291866491	0.276998951	0.002818553	0.029078495	0.008962275
2020-08-24T14:30:00	0.1369	15.563	120.0	0.292331307	0.277857222	0.002830287	0.029199554	0.008999586
2020-08-24T14:35:00	0.1391	15.558	120.0	0.296897905	0.286361759	0.002947215	0.030405869	0.009371384
2020-08-24T14:40:00	0.1392	15.568	120.0	0.297157299	0.286848783	0.002953946	0.030475319	0.009392789
2020-08-24T14:45:00	0.1403	15.553	120.0	0.299261364	0.290814945	0.003008910	0.031042365	0.009567558
2020-08-24T14:50:00	0.1413	15.534	120.0	0.301364668	0.294807575	0.003064494	0.031615824	0.009744304
2020-08-24T14:55:00	0.1415	15.527	120.0	0.301828709	0.295692203	0.003076844	0.031743237	0.009783574
2020-08-24T15:00:00	0.1413	15.521	121.0	0.301473350	0.295014639	0.003067384	0.031645636	0.009753492
2020-08-24T15:05:00	0.1415	15.500	120.0	0.301732540	0.295508758	0.003074282	0.031716805	0.009775427
2020-08-24T15:10:00	0.1410	15.486	121.0	0.300762568	0.293661778	0.003048517	0.031450986	0.009693499
2020-08-24T15:15:00	0.1406	15.494	121.0	0.299997346	0.292208862	0.003028287	0.031242274	0.009629172
2020-08-24T15:20:00	0.1404	15.510	120.0	0.299641877	0.291535193	0.003018918	0.031145619	0.009599382
2020-08-24T15:25:00	0.1401	15.527	121.0	0.298876509	0.290087407	0.002998808	0.030938152	0.009535439
2020-08-24T15:30:00	0.1402	15.523	121.0	0.299135813	0.290577498	0.003005612	0.031008344	0.009557073
2020-08-24T15:35:00	0.1396	15.512	121.0	0.297960436	0.288359402	0.002974851	0.030690985	0.009459260
2020-08-24T15:40:00	0.1399	15.506	120.0	0.298629705	0.289621336	0.002992342	0.030871439	0.009514877
2020-08-24T15:45:00	0.1399	15.528	121.0	0.298479115	0.289337147	0.002988401	0.030830777	0.009502345
2020-08-24T15:50:00	0.1393	15.536	120.0	0.297303605	0.287123666	0.002957747	0.030514535	0.009404876
2020-08-24T15:55:00	0.1390	15.542	120.0	0.296742951	0.286071027	0.002943198	0.030364430	0.009358612
2020-08-24T16:00:00	0.1385	15.531	121.0	0.295567082	0.283869745	0.002912830	0.030051129	0.009262050
2020-08-24T16:05:00	0.1379	15.521	121.0	0.294516298	0.281910003	0.002885861	0.029772892	0.009176294
2020-08-24T16:10:00	0.1375	15.493	121.0	0.293670454	0.280337538	0.002864266	0.029550108	0.009107630
2020-08-24T16:15:00	0.1372	15.459	120.0	0.293029642	0.279149241	0.002847975	0.029382030	0.009055827
2020-08-24T16:20:00	0.1370	15.456	120.0	0.292593934	0.278342758	0.002836931	0.029268095	0.009020711
2020-08-24T16:25:00	0.1374	15.439	120.0	0.293389197	0.279815667	0.002857109	0.029476263	0.009084870
2020-08-24T16:30:00	0.1369	15.426	120.0	0.292338000	0.277869591	0.002830457	0.029201300	0.009000124
2020-08-24T16:35:00	0.1365	15.416	120.0	0.291491820	0.276308123	0.002809117	0.028981145	0.008932270
2020-08-24T16:40:00	0.1360	15.407	120.0	0.290440256	0.274373946	0.002782741	0.028709021	0.008848399
2020-08-24T16:45:00	0.1350	15.392	120.0	0.288567235	0.270946105	0.002736148	0.028228333	0.008700246
2020-08-24T16:50:00	0.1344	15.371	120.0	0.287309719	0.268657114	0.002705145	0.027908481	0.008601665
2020-08-24T16:55:00	0.1346	15.367	119.0	0.287695058	0.269357467	0.002714621	0.028006248	0.008631798
2020-08-24T17:00:00	0.1347	15.354	119.0	0.287875018	0.269684864	0.002719054	0.028051981	0.008645893
2020-08-24T17:05:00	0.1347	15.340	120.0	0.287849618	0.269638644	0.002718428	0.028045524	0.008643903
2020-08-24T17:10:00	0.1344	15.333	119.0	0.287208110	0.268472597	0.002702650	0.027882737	0.008593730
2020-08-24T17:15:00	0.1334	15.319	119.0	0.285128472	0.264710347	0.002651897	0.027359130	0.008432350
2020-08-24T17:20:00	0.1325	15.305	119.0	0.283253531	0.261341778	0.002606660	0.026892430	0.008288508
2020-08-24T17:25:00	0.1326	15.287	118.0	0.283639176	0.262032828	0.002615924	0.026988008	0.008317966
2020-08-24T17:30:00	0.1326	15.263	118.0	0.283613756	0.261987248	0.002615313	0.026981701	0.008316022
2020-08-24T17:35:00	0.1318	15.243	118.0	0.281943848	0.259001910	0.002575353	0.026569438	0.008188959
2020-08-24T17:40:00	0.1324	15.219	118.0	0.283151842	0.261159714	0.002604221	0.026867263	0.008280751
2020-08-24T17:45:00	0.1318	15.189	118.0	0.281892990	0.258911267	0.002574142	0.026556945	0.008185108
2020-08-24T17:50:00	0.1316	15.153	118.0	0.281456348	0.258133708	0.002563760	0.026449841	0.008152098
2020-08-24T17:55:00	0.1317	15.130	118.0	0.281636529	0.258454423	0.002568041	0.026494004	0.008165709
2020-08-24T18:00:00	0.1317	15.099	118.0	0.281611098	0.258409146	0.002567436	0.026487768	0.008163787
2020-08-24T18:05:00	0.1318	15.064	118.0	0.281996871	0.259096430	0.002576615	0.026582466	0.008192974
2020-08-24T18:10:00	0.1320	15.036	117.0	0.282382613	0.259784599	0.002585814	0.026677370	0.008222225
2020-08-24T18:15:00	0.1325	15.012	118.0	0.283384970	0.261577201	0.002609815	0.026924981	0.008298541
2020-08-24T18:20:00	0.1333	14.976	117.0	0.285003572	0.264485259	0.002648868	0.027327883	0.008422719
2020-08-24T18:25:00	0.1328	14.934	117.0	0.283950702	0.262591745	0.002623423	0.027065373	0.008341811
2020-08-24T18:30:00	0.1328	14.904	117.0	0.283925283	0.262546118	0.002622811	0.027059055	0.008339864
2020-08-24T18:35:00	0.1330	14.870	117.0	0.284310877	0.263238708	0.002632110	0.027154994	0.008369433
2020-08-24T18:40:00	0.1328	14.839	117.0	0.283874446	0.262454875	0.002621586	0.027046422	0.008335970
2020-08-24T18:45:00	0.1332	14.818	117.0	0.284876505	0.264256366	0.002645789	0.027296116	0.008412928
2020-08-24T18:50:00	0.1331	14.799	117.0	0.284645611	0.263840707	0.002640200	0.027238453	0.008395156
2020-08-24T18:55:00	0.1333	14.781	116.0	0.285031150	0.264534949	0.002649537	0.027334780	0.008424845
2020-08-24T19:00:00	0.1333	14.765	116.0	0.285005737	0.264489159	0.002648920	0.027328424	0.008422886
2020-08-24T19:05:00	0.1330	14.760	116.0	0.284363874	0.263333974	0.002633390	0.027168197	0.008373502
2020-08-24T19:10:00	0.1331	14.755	116.0	0.284543950	0.263657802	0.002637741	0.027213089	0.008387338
2020-08-24T19:15:00	0.1334	14.734	116.0	0.285134965	0.264722050	0.002652054	0.027360755	0.008432850
2020-08-24T19:20:00	0.1339	14.725	116.0	0.286136777	0.266531054	0.002676428	0.027612215	0.008510353
2020-08-24T19:25:00	0.1337	14.697	116.0	0.285905940	0.266113663	0.002670799	0.027554145	0.008492455
2020-08-24T19:30:00	0.1339	14.696	117.0	0.286291383	0.266810796	0.002680202	0.027651152	0.008522354
2020-08-24T19:35:00	0.1338	14.655	115.0	0.286060553	0.266393193	0.002674569	0.027593032	0.008504440
2020-08-24T19:40:00	0.1339	14.631	116.0	0.286240570	0.266718838	0.002678961	0.027638351	0.008518408
2020-08-24T19:45:00	0.1343	14.597	115.0	0.287036782	0.268161618	0.002698445	0.027839363	0.008580362
2020-08-24T19:50:00	0.1337	14.568	115.0	0.285778895	0.265884089	0.002667705	0.027522218	0.008482615
2020-08-24T19:55:00	0.1339	14.524	115.0	0.286164348	0.266580930	0.002677101	0.027619156	0.008512492
2020-08-24T20:00:00	0.1345	14.491	115.0	0.287371339	0.268769045	0.002706659	0.027924101	0.008606479
2020-08-24T20:05:00	0.1338	14.459	115.0	0.286113533	0.266489011	0.002675861	0.027606364	0.008508550
2020-08-24T20:10:00	0.1340	14.459	115.0	0.286498961	0.267186620	0.002685275	0.027703484	0.008538483
2020-08-24T20:15:00	0.1346	14.465	115.0	0.287705874	0.269377139	0.002714888	0.028008995	0.008632644
2020-08-24T20:20:00	0.1346	14.458	112.0	0.287680474	0.269330944	0.002714262	0.028002544	0.008630656
2020-08-24T20:25:00	0.1353	14.444	114.0	0.289092426	0.271905032	0.002749162	0.028362600	0.008741629
2020-08-24T20:30:00	0.1354	14.434	114.0	0.289272338	0.272233927	0.002753629	0.028408687	0.008755833
2020-08-24T20:35:00	0.1353	14.423	114.0	0.289041639	0.271812227	0.002747902	0.028349598	0.008737622
2020-08-24T20:40:00	0.1355	14.413	114.0	0.289426852	0.272516555	0.002757470	0.028448306	0.008768044
2020-08-24T20:45:00	0.1352	14.404	114.0	0.288990852	0.271719437	0.002746642	0.028336601	0.008733615
2020-08-24T20:50:00	0.1362	14.401	114.0	0.291018192	0.275436100	0.002797218	0.028858379	0.008894433
2020-08-24T20:55:00	0.1362	14.401	113.0	0.290992808	0.275389404	0.002796581	0.028851809	0.008892408
2020-08-24T21:00:00	0.1359	14.406	113.0	0.290351680	0.274211345	0.002780526	0.028686174	0.008841357
2020-08-24T21:05:00	0.1361	14.403	113.0	0.290736798	0.274918681	0.002790163	0.028785596	0.008872000
2020-08-24T21:10:00	0.1367	14.380	113.0	0.291942747	0.277139662	0.002820476	0.029098334	0.008968389
2020-08-24T21:15:00	0.1372	14.386	113.0	0.292943270	0.278989273	0.002845783	0.029359422	0.009048859
2020-08-24T21:20:00	0.1373	14.377	113.0	0.293123053	0.279322298	0.002850346	0.029406493	0.009063367
2020-08-24T21:25:00	0.1367	14.367	113.0	0.292071805	0.277377891	0.002823733	0.029131929	0.008978743
2020-08-24T21:30:00	0.1362	14.357	113.0	0.291020353	0.275440077	0.002797272	0.028858938	0.008894605
2020-08-24T21:35:00	0.1370	14.348	113.0	0.292636600	0.278421679	0.002838011	0.029279239	0.009024146
2020-08-24T21:40:00	0.1373	14.336	113.0	0.293226710	0.279514401	0.002852979	0.029433654	0.009071738
2020-08-24T21:45:00	0.1373	14.326	112.0	0.293201336	0.279467370	0.002852334	0.029427004	0.009069688
2020-08-24T21:50:00	0.1369	14.306	112.0	0.292355290	0.277901544	0.002830894	0.029205809	0.009001514
2020-08-24T21:55:00	0.1370	14.270	112.0	0.292535093	0.278233938	0.002835442	0.029252730	0.009015975
2020-08-24T22:00:00	0.1369	14.246	112.0	0.292304535	0.277807751	0.002829611	0.029192573	0.008997434
2020-08-24T22:05:00	0.1366	14.237	112.0	0.291776103	0.276832210	0.002816275	0.029054991	0.008955030
2020-08-24T22:10:00	0.1364	14.228	112.0	0.291452841	0.276236302	0.002808137	0.028971029	0.008929153
2020-08-24T22:15:00	0.1361	14.215	112.0	0.290719084	0.274886126	0.002789719	0.028781019	0.008870589
2020-08-24T22:20:00	0.1362	14.207	112.0	0.291011497	0.275423784	0.002797050	0.028856646	0.008893899
2020-08-24T22:25:00	0.1361	14.205	112.0	0.290688189	0.274829351	0.002788945	0.028773035	0.008868129
2020-08-24T22:30:00	0.1370	14.187	112.0	0.292622238	0.278395113	0.002837648	0.029275488	0.009022990
2020-08-24T22:35:00	0.1368	14.172	112.0	0.292093837	0.277418571	0.002824289	0.029137667	0.008980512
2020-08-24T22:40:00	0.1368	14.147	112.0	0.292180990	0.277579516	0.002826489	0.029160370	0.008987509
2020-08-24T22:45:00	0.1372	14.130	112.0	0.293088826	0.279258880	0.002849477	0.029397528	0.009060604
2020-08-24T22:50:00	0.1376	14.126	111.0	0.293791386	0.280562081	0.002867347	0.029581895	0.009117427
2020-08-24T22:55:00	0.1385	14.132	110.0	0.295724345	0.284163643	0.002916880	0.030092912	0.009274928
2020-08-24T23:00:00	0.1386	14.138	110.0	0.295811440	0.284326477	0.002919124	0.030116067	0.009282064
2020-08-24T23:05:00	0.1387	14.117	109.0	0.296103583	0.284873018	0.002926661	0.030193821	0.009306029
2020-08-24T23:10:00	0.1391	14.110	109.0	0.296805765	0.286188862	0.002944826	0.030381224	0.009363788
2020-08-24T23:15:00	0.1391	14.097	110.0	0.296892843	0.286352259	0.002947083	0.030404515	0.009370967
2020-08-24T23:20:00	0.1391	14.093	110.0	0.296979921	0.286515700	0.002949342	0.030427817	0.009378149
2020-08-24T23:25:00	0.1394	14.064	110.0	0.297477002	0.287449625	0.002962256	0.030561054	0.009419214
2020-08-24T23:30:00	0.1392	14.071	109.0	0.297154071	0.286842720	0.002953862	0.030474454	0.009392523
2020-08-24T23:35:00	0.1400	14.061	110.0	0.298675993	0.289708718	0.002993554	0.030883944	0.009518731
2020-08-24T23:40:00	0.1395	14.045	110.0	0.297738204	0.287940999	0.002969057	0.030631213	0.009440837
2020-08-24T23:45:00	0.1392	14.030	110.0	0.297005277	0.286563303	0.002950000	0.030434605	0.009380241
2020-08-24T23:50:00	0.1390	13.983	109.0	0.296682320	0.285957309	0.002941627	0.030348225	0.009353618
2020-08-24T23:55:00	0.1390	13.961	110.0	0.296769400	0.286120641	0.002943883	0.030371500	0.009360791
2020-08-25T00:00:00	0.1389	13.957	115.0	0.296446429	0.285515101	0.002935521	0.030285230	0.009334202
2020-08-25T00:05:00	0.1392	13.958	115.0	0.297148568	0.286832384	0.002953720	0.030472980	0.009392068
2020-08-25T00:10:00	0.1388	13.943	114.0	0.296210529	0.285073227	0.002929423	0.030222316	0.009314811
2020-08-25T00:15:00	0.1394	13.935	114.0	0.297527711	0.287544985	0.002963576	0.030574666	0.009423409
2020-08-25T00:20:00	0.1388	13.885	114.0	0.296179664	0.285015440	0.002928626	0.030214090	0.009312276
2020-08-25T00:25:00	0.1384	13.900	109.0	0.295446537	0.283644571	0.002909728	0.030019127	0.009252186
2020-08-25T00:30:00	0.1378	13.909	109.0	0.294303107	0.281513245	0.002880408	0.029716640	0.009158957
2020-08-25T00:35:00	0.1374	13.902	109.0	0.293364591	0.279770034	0.002856483	0.029469808	0.009082881
2020-08-25T00:40:00	0.1373	13.892	110.0	0.293246577	0.279551227	0.002853483	0.029438862	0.009073343
2020-08-25T00:45:00	0.1372	13.879	109.0	0.292923402	0.278952483	0.002845279	0.029354223	0.009047257
2020-08-25T00:50:00	0.1372	13.863	108.0	0.293010541	0.279113861	0.002847490	0.029377029	0.009054286
2020-08-25T00:55:00	0.1377	13.850	109.0	0.294123362	0.281178955	0.002875816	0.029669266	0.009144356
2020-08-25T01:00:00	0.1376	13.836	109.0	0.293800238	0.280578520	0.002867573	0.029584223	0.009118145
2020-08-25T01:05:00	0.1374	13.821	110.0	0.293477096	0.279978709	0.002859344	0.029499328	0.009091979
2020-08-25T01:10:00	0.1373	13.785	110.0	0.293153934	0.279379521	0.002851130	0.029414583	0.009065860
2020-08-25T01:15:00	0.1380	13.741	109.0	0.294676935	0.282209146	0.002889973	0.029815321	0.009189372
2020-08-25T01:20:00	0.1377	13.705	109.0	0.293943611	0.280844857	0.002871229	0.029621938	0.009129769
2020-08-25T01:25:00	0.1378	13.680	108.0	0.294235851	0.281388139	0.002878689	0.029698909	0.009153492
2020-08-25T01:30:00	0.1376	13.657	110.0	0.293912734	0.280787488	0.002870441	0.029613813	0.009127265
2020-08-25T01:35:00	0.1372	13.628	108.0	0.292974152	0.279046464	0.002846567	0.029367504	0.009051350
2020-08-25T01:40:00	0.1370	13.613	109.0	0.292650961	0.278448246	0.002838375	0.029282991	0.009025302
2020-08-25T01:45:00	0.1378	13.569	107.0	0.294174101	0.281273299	0.002877112	0.029682634	0.009148476
2020-08-25T01:50:00	0.1377	13.545	108.0	0.294056104	0.281053921	0.002874099	0.029651552	0.009138896
2020-08-25T01:55:00	0.1380	13.534	108.0	0.294553444	0.281979162	0.002886811	0.029782700	0.009179317
2020-08-25T02:00:00	0.1376	13.494	109.0	0.293820103	0.280615414	0.002868079	0.029589446	0.009119755
2020-08-25T02:05:00	0.1373	13.469	108.0	0.293291817	0.279635095	0.002854633	0.029450722	0.009076999
2020-08-25T02:10:00	0.1378	13.430	107.0	0.294199470	0.281320476	0.002877760	0.029689320	0.009150537
2020-08-25T02:15:00	0.1383	13.389	108.0	0.295312052	0.283393467	0.002906270	0.029983449	0.009241190
2020-08-25T02:20:00	0.1387	13.358	108.0	0.296014332	0.284705991	0.002924357	0.030170053	0.009298703
2020-08-25T02:25:00	0.1381	13.301	107.0	0.294871018	0.282570788	0.002894947	0.029866635	0.009205187
2020-08-25T02:30:00	0.1380	13.309	107.0	0.294547938	0.281968911	0.002886670	0.029781246	0.009178869
2020-08-25T02:35:00	0.1376	13.252	109.0	0.293814597	0.280605187	0.002867939	0.029587998	0.009119308
2020-08-25T02:40:00	0.1376	13.250	107.0	0.293901722	0.280767028	0.002870160	0.029610916	0.009126372
2020-08-25T02:45:00	0.1377	13.236	107.0	0.293988845	0.280928914	0.002872383	0.029633844	0.009133438
2020-08-25T02:50:00	0.1385	13.215	108.0	0.295716681	0.284149316	0.002916682	0.030090874	0.009274300
2020-08-25T02:55:00	0.1380	13.149	107.0	0.294573306	0.282016146	0.002887320	0.029787945	0.009180934
2020-08-25T03:00:00	0.1375	13.149	107.0	0.293634836	0.280271421	0.002863359	0.029540750	0.009104746
2020-08-25T03:05:00	0.1376	13.085	107.0	0.293721964	0.280433168	0.002865578	0.029563645	0.009111802
2020-08-25T03:10:00	0.1370	13.079	107.0	0.292578178	0.278313617	0.002836532	0.029263980	0.009019443
2020-08-25T03:15:00	0.1365	13.069	107.0	0.291639367	0.276580069	0.002812831	0.029019458	0.008944079
2020-08-25T03:20:00	0.1367	13.023	107.0	0.291931730	0.277119332	0.002820198	0.029095467	0.008967506
2020-08-25T03:25:00	0.1368	13.006	106.0	0.292224077	0.277659105	0.002827578	0.029171599	0.008990970
2020-08-25T03:30:00	0.1366	12.997	107.0	0.291695638	0.276683818	0.002814248	0.029034077	0.008948585
2020-08-25T03:35:00	0.1372	12.966	107.0	0.293013887	0.279120058	0.002847575	0.029377905	0.009054556
2020-08-25T03:40:00	0.1377	12.958	106.0	0.294126707	0.281185175	0.002875902	0.029670147	0.009144628
2020-08-25T03:45:00	0.1377	12.934	106.0	0.294008709	0.280965830	0.002872890	0.029639073	0.009135050
2020-08-25T03:50:00	0.1381	12.910	112.0	0.294916245	0.282655095	0.002896107	0.029878601	0.009208875
2020-08-25T03:55:00	0.1385	12.890	111.0	0.295618575	0.283965958	0.002914156	0.030064806	0.009266265
2020-08-25T04:00:00	0.1382	12.847	106.0	0.295090459	0.282979968	0.002900577	0.029924721	0.009223090
2020-08-25T04:05:00	0.1383	12.826	107.0	0.295204764	0.283193226	0.002903513	0.029955006	0.009232424
2020-08-25T04:10:00	0.1393	12.802	106.0	0.297369430	0.287247385	0.002959459	0.030532189	0.009410317
2020-08-25T04:15:00	0.1394	12.800	110.0	0.297483689	0.287462199	0.002962430	0.030562849	0.009419767
2020-08-25T04:20:00	0.1391	12.791	106.0	0.296982939	0.286521367	0.002949420	0.030428625	0.009378398
2020-08-25T04:25:00	0.1388	12.765	111.0	0.296277110	0.285197908	0.002931143	0.030240065	0.009320282
2020-08-25T04:30:00	0.1392	12.735	107.0	0.297006462	0.286565527	0.002950031	0.030434922	0.009380338
2020-08-25T04:35:00	0.1394	12.730	107.0	0.297530730	0.287550662	0.002963654	0.030575477	0.009423659
2020-08-25T04:40:00	0.1397	12.710	105.0	0.298054950	0.288537440	0.002977317	0.030716428	0.009467101
2020-08-25T04:45:00	0.1398	12.694	106.0	0.298374162	0.289139166	0.002985656	0.030802458	0.009493617
2020-08-25T04:50:00	0.1403	12.673	110.0	0.299308181	0.290903513	0.003010140	0.031055057	0.009571470
2020-08-25T04:55:00	0.1399	12.667	106.0	0.298602638	0.289570245	0.002991633	0.030864128	0.009512624
2020-08-25T05:00:00	0.1396	12.644	106.0	0.297897008	0.288239953	0.002973196	0.030673918	0.009453999
2020-08-25T05:05:00	0.1399	12.620	106.0	0.298626153	0.289614632	0.002992249	0.030870479	0.009514582
2020-08-25T05:10:00	0.1405	12.629	107.0	0.299765050	0.291768534	0.003022162	0.031179090	0.009609698
2020-08-25T05:15:00	0.1409	12.617	110.0	0.300493960	0.293151356	0.003041406	0.031377624	0.009670888
2020-08-25T05:20:00	0.1407	12.612	106.0	0.300198373	0.292590192	0.003033593	0.031297018	0.009646045
2020-08-25T05:25:00	0.1409	12.603	106.0	0.300517468	0.293196009	0.003042028	0.031384040	0.009672866
2020-08-25T05:30:00	0.1408	12.584	110.0	0.300426777	0.293023763	0.003039629	0.031359292	0.009665238
2020-08-25T05:35:00	0.1408	12.583	106.0	0.300336085	0.292851566	0.003037231	0.031334556	0.009657614
2020-08-25T05:40:00	0.1412	12.586	105.0	0.301269791	0.294626871	0.003061973	0.031589813	0.009736287
2020-08-25T05:45:00	0.1414	12.600	105.0	0.301588828	0.295234733	0.003070456	0.031677332	0.009763261
2020-08-25T05:50:00	0.1418	12.568	104.0	0.302522336	0.297017038	0.003095363	0.031934293	0.009842459
2020-08-25T05:55:00	0.1417	12.582	105.0	0.302226850	0.296452286	0.003087466	0.031852815	0.009817347
2020-08-25T06:00:00	0.1415	12.600	106.0	0.301726507	0.295497253	0.003074122	0.031715148	0.009774917
2020-08-25T06:05:00	0.1411	12.614	111.0	0.301021255	0.294153779	0.003055375	0.031521740	0.009715306
2020-08-25T06:10:00	0.1414	12.640	106.0	0.301545161	0.295151498	0.003069294	0.031665344	0.009759567
2020-08-25T06:15:00	0.1413	12.645	106.0	0.301454486	0.294978694	0.003066882	0.031640460	0.009751897
2020-08-25T06:20:00	0.1418	12.672	110.0	0.302388016	0.296760248	0.003091772	0.031897239	0.009831039
2020-08-25T06:25:00	0.1424	12.718	111.0	0.303730969	0.299332789	0.003127800	0.032268937	0.009945600
2020-08-25T06:30:00	0.1420	12.734	111.0	0.302821148	0.297588706	0.003103363	0.032016822	0.009867896
2020-08-25T06:35:00	0.1419	12.767	107.0	0.302730492	0.297415210	0.003100935	0.031991770	0.009860174
2020-08-25T06:40:00	0.1416	12.796	107.0	0.302025359	0.296067498	0.003082088	0.031797330	0.009800246
2020-08-25T06:45:00	0.1415	12.807	111.0	0.301729848	0.295503625	0.003074211	0.031716066	0.009775199
2020-08-25T06:50:00	0.1415	12.852	111.0	0.301844022	0.295721418	0.003077253	0.031747447	0.009784872
2020-08-25T06:55:00	0.1415	12.891	112.0	0.301753351	0.295548452	0.003074837	0.031722524	0.009777190
2020-08-25T07:00:00	0.1420	12.932	112.0	0.302891644	0.297723657	0.003105252	0.032036312	0.009873903
2020-08-25T07:05:00	0.1421	12.967	112.0	0.303005795	0.297942244	0.003108313	0.032067888	0.009883634
2020-08-25T07:10:00	0.1426	13.019	112.0	0.304143851	0.300125984	0.003138930	0.032383760	0.009980989
2020-08-25T07:15:00	0.1431	13.074	112.0	0.305076965	0.301922568	0.003164175	0.032644210	0.010061263
2020-08-25T07:20:00	0.1431	13.118	112.0	0.305191075	0.302142649	0.003167271	0.032676151	0.010071107
2020-08-25T07:25:00	0.1431	13.184	111.0	0.305100455	0.301967866	0.003164812	0.032650784	0.010063289
2020-08-25T07:30:00	0.1438	13.236	112.0	0.306442811	0.304562223	0.003201358	0.033027825	0.010179496
2020-08-25T07:35:00	0.1436	13.298	112.0	0.306147515	0.303990533	0.003193296	0.032944647	0.010153860
2020-08-25T07:40:00	0.1443	13.373	112.0	0.307489645	0.306593314	0.003230043	0.033323759	0.010270706
2020-08-25T07:45:00	0.1443	13.405	112.0	0.307603711	0.306815044	0.003233178	0.033356106	0.010280676
2020-08-25T07:50:00	0.1438	13.488	112.0	0.306489781	0.304653206	0.003202642	0.033041067	0.010183578
2020-08-25T07:55:00	0.1436	13.554	112.0	0.306194487	0.304081433	0.003194578	0.032957869	0.010157935
2020-08-25T08:00:00	0.1446	13.650	113.0	0.308150532	0.307879139	0.003248236	0.033511448	0.010328554
2020-08-25T08:05:00	0.1449	13.806	113.0	0.308878439	0.309298550	0.003268348	0.033718941	0.010392505
2020-08-25T08:10:00	0.1439	13.742	113.0	0.306741431	0.305140907	0.003209525	0.033112073	0.010205462
2020-08-25T08:15:00	0.1446	13.770	113.0	0.308083433	0.307748466	0.003246386	0.033492362	0.010322671
2020-08-25T08:20:00	0.1449	13.797	114.0	0.308811349	0.309167584	0.003266491	0.033699783	0.010386600
2020-08-25T08:25:00	0.1455	13.841	109.0	0.309948341	0.311390911	0.003298052	0.034025391	0.010486956
2020-08-25T08:30:00	0.1450	13.916	110.0	0.309039431	0.309612933	0.003272807	0.033764942	0.010406683
2020-08-25T08:35:00	0.1452	13.878	109.0	0.309358065	0.310235640	0.003281643	0.033856103	0.010434780
2020-08-25T08:40:00	0.1449	13.963	109.0	0.308858301	0.309259235	0.003267790	0.033713189	0.010390732
2020-08-25T08:45:00	0.1449	13.926	109.0	0.308767734	0.309082460	0.003265284	0.033687332	0.010382763
2020-08-25T08:50:00	0.1450	13.901	109.0	0.308881776	0.309305065	0.003268440	0.033719894	0.010392799
2020-08-25T08:55:00	0.1451	14.049	110.0	0.309200418	0.309927471	0.003277269	0.033810981	0.010420873
2020-08-25T09:00:00	0.1452	13.991	109.0	0.309314453	0.310150372	0.003280432	0.033843616	0.010430931
2020-08-25T09:05:00	0.1445	13.987	109.0	0.307996193	0.307578610	0.003243981	0.033467557	0.010315026
2020-08-25T09:10:00	0.1440	14.027	109.0	0.306882332	0.305414150	0.003213382	0.033151872	0.010217729
2020-08-25T09:15:00	0.1437	14.058	110.0	0.306382371	0.304445167	0.003199707	0.033010790	0.010174246
2020-08-25T09:20:00	0.1429	14.187	110.0	0.304654012	0.301107550	0.003152716	0.032525993	0.010024827
2020-08-25T09:25:00	0.1426	14.316	110.0	0.304153870	0.300145245	0.003139200	0.032386549	0.009981849
2020-08-25T09:30:00	0.1426	14.287	111.0	0.304063234	0.299971025	0.003136755	0.032361320	0.009974073
2020-08-25T09:35:00	0.1417	14.290	111.0	0.302129388	0.296266131	0.003084864	0.031825969	0.009809073
2020-08-25T09:40:00	0.1415	14.373	112.0	0.301833883	0.295702074	0.003076982	0.031744660	0.009784012
2020-08-25T09:45:00	0.1416	14.554	113.0	0.301948054	0.295919938	0.003080026	0.031776059	0.009793690
2020-08-25T09:50:00	0.1418	14.710	113.0	0.302471879	0.296920562	0.003094014	0.031920370	0.009838168
2020-08-25T09:55:00	0.1413	14.632	113.0	0.301357011	0.294792989	0.003064291	0.031613724	0.009743657
2020-08-25T10:00:00	0.1413	14.696	118.0	0.301471192	0.295010527	0.003067327	0.031645044	0.009753310
2020-08-25T10:05:00	0.1414	14.657	113.0	0.301637877	0.295328244	0.003071762	0.031690801	0.009767413
2020-08-25T10:10:00	0.1417	14.578	112.0	0.302214230	0.296428177	0.003087129	0.031849337	0.009816275
2020-08-25T10:15:00	0.1417	14.623	113.0	0.302176066	0.296355280	0.003086110	0.031838824	0.009813035
2020-08-25T10:20:00	0.1423	14.674	113.0	0.303366770	0.298634009	0.003118003	0.032167866	0.009914449
2020-08-25T10:25:00	0.1426	14.725	114.0	0.304147724	0.300133430	0.003139034	0.032384838	0.009981322
2020-08-25T10:30:00	0.1425	14.739	114.0	0.303904804	0.299666615	0.003132483	0.032317249	0.009960490
2020-08-25T10:35:00	0.1422	14.757	114.0	0.303252300	0.298414553	0.003114928	0.032136140	0.009904671
2020-08-25T10:40:00	0.1428	14.742	115.0	0.304442791	0.300700955	0.003147004	0.032467057	0.010006662
2020-08-25T10:45:00	0.1428	14.704	115.0	0.304404642	0.300627549	0.003145973	0.032456419	0.010003384
2020-08-25T10:50:00	0.1429	14.732	115.0	0.304775991	0.301342485	0.003156018	0.032560059	0.010035326
2020-08-25T10:55:00	0.1428	14.743	116.0	0.304533097	0.300874757	0.003149445	0.032492246	0.010014426
2020-08-25T11:00:00	0.1426	14.772	116.0	0.304085430	0.300013684	0.003137353	0.032367497	0.009975977
2020-08-25T11:05:00	0.1423	14.852	115.0	0.303432945	0.298760916	0.003119782	0.032186216	0.009920104
2020-08-25T11:10:00	0.1423	14.987	116.0	0.303394789	0.298687740	0.003118756	0.032175635	0.009916843
2020-08-25T11:15:00	0.1435	15.104	117.0	0.305813624	0.303344786	0.003184196	0.032850758	0.010124923
2020-08-25T11:20:00	0.1437	15.005	116.0	0.306389581	0.304459130	0.003199904	0.033012821	0.010174872
2020-08-25T11:25:00	0.1438	14.991	116.0	0.306556131	0.304781755	0.003204456	0.033059779	0.010189345
2020-08-25T11:30:00	0.1440	14.956	116.0	0.306927351	0.305501479	0.003214615	0.033164594	0.010221650
2020-08-25T11:35:00	0.1432	15.005	116.0	0.305251619	0.302259452	0.003168914	0.032693106	0.010076333
2020-08-25T11:40:00	0.1436	15.002	117.0	0.306032333	0.303767690	0.003190155	0.032912239	0.010143872
2020-08-25T11:45:00	0.1441	15.016	116.0	0.307222285	0.306073919	0.003222702	0.033248019	0.010247362
2020-08-25T11:50:00	0.1444	14.998	117.0	0.307798112	0.307193127	0.003238526	0.033411280	0.010297681
2020-08-25T11:55:00	0.1442	15.012	117.0	0.307350682	0.306323296	0.003226226	0.033284379	0.010258569
2020-08-25T12:00:00	0.1454	15.000	117.0	0.309767978	0.311037677	0.003293032	0.033973607	0.010470996
2020-08-25T12:05:00	0.1452	15.014	117.0	0.309320687	0.310162559	0.003280605	0.033845401	0.010431481
2020-08-25T12:10:00	0.1451	15.053	117.0	0.309282567	0.310088037	0.003279548	0.033834489	0.010428118
2020-08-25T12:15:00	0.1455	15.109	118.0	0.310062780	0.311615141	0.003301239	0.034058273	0.010497090
2020-08-25T12:20:00	0.1451	15.124	118.0	0.309206327	0.309939019	0.003277433	0.033812671	0.010421394
2020-08-25T12:25:00	0.1452	15.126	118.0	0.309372803	0.310264457	0.003282052	0.033860323	0.010436080
2020-08-25T12:30:00	0.1450	15.126	118.0	0.308925484	0.309390400	0.003269650	0.033732379	0.010396647
2020-08-25T12:35:00	0.1454	15.137	119.0	0.309705740	0.310915833	0.003291301	0.033955749	0.010465492
2020-08-25T12:40:00	0.1448	15.137	119.0	0.308644627	0.308842255	0.003261879	0.033652204	0.010371936
2020-08-25T12:45:00	0.1453	15.138	119.0	0.309629505	0.310766621	0.003289182	0.033933884	0.010458753
2020-08-25T12:50:00	0.1462	15.187	119.0	0.311432389	0.314305152	0.003339535	0.034453366	0.010618862
2020-08-25T12:55:00	0.1464	15.214	119.0	0.311803325	0.315035732	0.003349955	0.034560867	0.010651995
2020-08-25T13:00:00	0.1461	15.233	119.0	0.311151643	0.313752781	0.003331662	0.034372144	0.010593829
2020-08-25T13:05:00	0.1462	15.270	119.0	0.311522595	0.314482737	0.003342067	0.034479489	0.010626913
2020-08-25T13:10:00	0.1459	15.295	119.0	0.310870884	0.313200884	0.003323801	0.034291040	0.010568832
2020-08-25T13:15:00	0.1456	15.303	120.0	0.310219108	0.311921582	0.003305596	0.034103224	0.010510945
2020-08-25T13:20:00	0.1451	15.328	120.0	0.309158080	0.309844735	0.003276095	0.033798869	0.010417140
2020-08-25T13:25:00	0.1453	15.353	120.0	0.309529147	0.310570251	0.003286393	0.033905113	0.010449885
2020-08-25T13:30:00	0.1450	15.374	121.0	0.309081839	0.309695774	0.003273982	0.033777066	0.010410420
2020-08-25T13:35:00	0.1452	15.338	114.0	0.309452910	0.310421120	0.003284276	0.033883268	0.010443152
2020-08-25T13:40:00	0.1461	15.320	121.0	0.311255844	0.313957740	0.003334583	0.034402277	0.010603116
2020-08-25T13:45:00	0.1465	15.330	121.0	0.312035818	0.315494084	0.003356496	0.034628353	0.010672795
2020-08-25T13:50:00	0.1458	15.358	121.0	0.310565995	0.312602116	0.003315277	0.034203102	0.010541728
2020-08-25T13:55:00	0.1453	15.358	121.0	0.309505025	0.310523060	0.003285723	0.033898200	0.010447754
2020-08-25T14:00:00	0.1460	15.326	121.0	0.311103410	0.313657934	0.003330311	0.034358203	0.010589532
2020-08-25T14:05:00	0.1455	15.378	121.0	0.310042529	0.311575456	0.003300675	0.034052453	0.010495297
2020-08-25T14:10:00	0.1462	15.416	114.0	0.311436258	0.314312767	0.003339644	0.034454487	0.010619207
2020-08-25T14:15:00	0.1456	15.428	121.0	0.310170868	0.311827004	0.003304251	0.034089349	0.010506668
2020-08-25T14:20:00	0.1442	15.434	114.0	0.307268160	0.306163006	0.003223961	0.033261007	0.010251365
2020-08-25T14:25:00	0.1428	15.423	121.0	0.304568857	0.300943594	0.003150412	0.032502224	0.010017501
2020-08-25T14:30:00	0.1426	15.391	121.0	0.304121192	0.300082426	0.003138318	0.032377452	0.009979045
2020-08-25T14:35:00	0.1429	15.334	121.0	0.304697308	0.301190928	0.003153888	0.032538082	0.010028553
2020-08-25T14:40:00	0.1433	15.314	121.0	0.305478092	0.302696573	0.003175067	0.032756578	0.010095896
2020-08-25T14:45:00	0.1434	15.327	121.0	0.305644666	0.303018288	0.003179597	0.032803312	0.010110299
2020-08-25T14:50:00	0.1425	15.353	121.0	0.303763812	0.299395843	0.003128684	0.032278061	0.009948412
2020-08-25T14:55:00	0.1441	15.379	121.0	0.307205897	0.306042096	0.003222252	0.033243380	0.010245933
2020-08-25T15:00:00	0.1443	15.388	121.0	0.307577078	0.306763266	0.003232446	0.033348552	0.010278347
2020-08-25T15:05:00	0.1433	15.401	121.0	0.305492097	0.302723615	0.003175447	0.032760506	0.010097106
2020-08-25T15:10:00	0.1428	15.375	121.0	0.304430268	0.300676857	0.003146665	0.032463564	0.010005586
2020-08-25T15:15:00	0.1424	15.366	121.0	0.303573041	0.299029673	0.003123550	0.032225085	0.009932084
2020-08-25T15:20:00	0.1426	15.356	121.0	0.304149208	0.300136283	0.003139074	0.032385251	0.009981449
2020-08-25T15:25:00	0.1427	15.341	121.0	0.304315819	0.300456672	0.003143573	0.032431660	0.009995753
2020-08-25T15:30:00	0.1423	15.342	121.0	0.303458575	0.298810075	0.003120471	0.032193324	0.009922295
2020-08-25T15:35:00	0.1422	15.361	121.0	0.303215628	0.298344264	0.003113943	0.032125981	0.009901539
2020-08-25T15:40:00	0.1425	15.371	121.0	0.303791830	0.299449641	0.003129439	0.032285846	0.009950811
2020-08-25T15:45:00	0.1418	15.353	121.0	0.302524888	0.297021917	0.003095432	0.031934997	0.009842676
2020-08-25T15:50:00	0.1418	15.342	114.0	0.302486726	0.296948949	0.003094411	0.031924467	0.009839431
2020-08-25T15:55:00	0.1418	15.345	121.0	0.302448565	0.296875989	0.003093390	0.031913939	0.009836186
2020-08-25T16:00:00	0.1428	15.358	121.0	0.304458283	0.300730767	0.003147422	0.032471377	0.010007994
2020-08-25T16:05:00	0.1420	15.373	114.0	0.302841701	0.297628047	0.003103914	0.032022504	0.009869647
2020-08-25T16:10:00	0.1415	15.350	115.0	0.301839242	0.295712299	0.003077125	0.031746133	0.009784467
2020-08-25T16:15:00	0.1424	15.332	114.0	0.303704204	0.299281406	0.003127079	0.032261502	0.009943308
2020-08-25T16:20:00	0.1426	15.334	121.0	0.304135409	0.300109755	0.003138702	0.032381410	0.009980265
2020-08-25T16:25:00	0.1428	15.347	121.0	0.304566584	0.300939219	0.003150351	0.032501590	0.010017306
2020-08-25T16:30:00	0.1427	15.344	115.0	0.304178732	0.300193044	0.003139871	0.032393472	0.009983983
2020-08-25T16:35:00	0.1427	15.320	114.0	0.304200393	0.300234693	0.003140456	0.032399504	0.009985842
2020-08-25T16:40:00	0.1422	15.298	121.0	0.303198161	0.298310789	0.003113474	0.032121142	0.009900048
2020-08-25T16:45:00	0.1417	15.277	121.0	0.302195763	0.296392902	0.003086636	0.031844250	0.009814707
2020-08-25T16:50:00	0.1417	15.264	121.0	0.302217431	0.296434293	0.003087214	0.031850219	0.009816547
2020-08-25T16:55:00	0.1408	15.239	121.0	0.300395356	0.292964096	0.003038798	0.031350720	0.009662596
2020-08-25T17:00:00	0.1406	15.224	121.0	0.300007233	0.292227610	0.003028547	0.031244965	0.009630002
2020-08-25T17:05:00	0.1407	15.208	121.0	0.300233811	0.292657441	0.003034529	0.031306675	0.009649021
2020-08-25T17:10:00	0.1406	15.192	121.0	0.300050586	0.292309828	0.003029691	0.031256767	0.009633639
2020-08-25T17:15:00	0.1413	15.172	120.0	0.301506413	0.295077648	0.003068264	0.031654709	0.009756289
2020-08-25T17:20:00	0.1418	15.153	116.0	0.302347441	0.296682699	0.003090687	0.031886051	0.009827590
2020-08-25T17:25:00	0.1414	15.136	114.0	0.301549755	0.295160254	0.003069417	0.031666605	0.009759955
2020-08-25T17:30:00	0.1431	15.118	116.0	0.305052895	0.301876156	0.003163522	0.032637475	0.010059187
2020-08-25T17:35:00	0.1434	15.104	122.0	0.305688721	0.303103402	0.003180795	0.032815679	0.010114111
2020-08-25T17:40:00	0.1438	15.091	122.0	0.306529169	0.304729515	0.003203719	0.033052175	0.010187001
2020-08-25T17:45:00	0.1442	15.078	115.0	0.307369504	0.306359862	0.003226743	0.033289711	0.010260212
2020-08-25T17:50:00	0.1445	15.063	116.0	0.308005093	0.307595936	0.003244226	0.033470087	0.010315806
2020-08-25T17:55:00	0.1454	15.044	115.0	0.309868193	0.311233919	0.003295821	0.034002373	0.010479862
2020-08-25T18:00:00	0.1456	15.023	121.0	0.310298973	0.312078197	0.003307823	0.034126203	0.010518027
2020-08-25T18:05:00	0.1467	15.008	114.0	0.312365908	0.316145430	0.003365797	0.034724311	0.010702370
2020-08-25T18:10:00	0.1469	14.995	114.0	0.312796522	0.316996167	0.003377956	0.034849745	0.010741030
2020-08-25T18:15:00	0.1472	14.981	121.0	0.313431575	0.318252936	0.003395936	0.035035251	0.010798204
2020-08-25T18:20:00	0.1479	14.966	114.0	0.314884295	0.321137432	0.003437296	0.035461947	0.010929716
2020-08-25T18:25:00	0.1488	14.951	120.0	0.316745439	0.324852339	0.003490746	0.036013380	0.011099674
2020-08-25T18:30:00	0.1496	14.939	120.0	0.319042366	0.328173789	0.003543465	0.036557272	0.011267306
2020-08-25T18:35:00	0.1501	14.926	120.0	0.320545752	0.330270414	0.003577297	0.036906314	0.011374884
2020-08-25T18:40:00	0.1503	14.914	114.0	0.321165304	0.331136124	0.003591294	0.037050717	0.011419391
2020-08-25T18:45:00	0.1511	14.901	113.0	0.323547470	0.334473923	0.003645409	0.037609011	0.011591463
2020-08-25T18:50:00	0.1517	14.895	120.0	0.325045819	0.336580807	0.003679688	0.037962667	0.011700463
2020-08-25T18:55:00	0.1522	14.886	120.0	0.326542505	0.338691110	0.003714117	0.038317861	0.011809937
2020-08-25T19:00:00	0.1523	14.879	120.0	0.326866432	0.339148601	0.003721593	0.038394990	0.011833709
2020-08-25T19:05:00	0.1523	14.864	120.0	0.326897417	0.339192376	0.003722309	0.038402372	0.011835984
2020-08-25T19:10:00	0.1519	14.855	120.0	0.325756337	0.337581908	0.003696009	0.038131046	0.011752359
2020-08-25T19:15:00	0.1528	14.845	112.0	0.328423008	0.341350758	0.003757641	0.038766884	0.011948330
2020-08-25T19:20:00	0.1533	14.828	119.0	0.329915971	0.343468782	0.003792406	0.039125552	0.012058875
2020-08-25T19:25:00	0.1530	14.819	119.0	0.329069888	0.342267762	0.003772681	0.038922053	0.011996155
2020-08-25T19:30:00	0.1538	14.811	119.0	0.331438180	0.345634217	0.003828045	0.039493237	0.012172199
2020-08-25T19:35:00	0.1539	14.798	119.0	0.331760942	0.346094135	0.003835627	0.039571458	0.012196308
2020-08-25T19:40:00	0.1539	14.793	119.0	0.331499941	0.345722203	0.003829495	0.039508198	0.012176810
2020-08-25T19:45:00	0.1548	14.784	118.0	0.334155396	0.349514504	0.003892149	0.040154587	0.012376034
2020-08-25T19:50:00	0.1545	14.780	119.0	0.333311936	0.348307968	0.003872184	0.039948606	0.012312548
2020-08-25T19:55:00	0.1549	14.769	118.0	0.334508331	0.350019911	0.003900522	0.040240962	0.012402655
2020-08-25T20:00:00	0.1552	14.771	118.0	0.335412641	0.351316364	0.003922022	0.040462773	0.012471020
2020-08-25T20:05:00	0.1553	14.770	118.0	0.335734469	0.351778260	0.003929690	0.040541884	0.012495402
2020-08-25T20:10:00	0.1549	14.766	118.0	0.334600765	0.350152330	0.003902716	0.040263602	0.012409633
2020-08-25T20:15:00	0.1536	14.761	118.0	0.330840224	0.344782875	0.003814022	0.039348562	0.012127609
2020-08-25T20:20:00	0.1540	14.758	118.0	0.332038782	0.346490256	0.003842161	0.039638865	0.012217083
2020-08-25T20:25:00	0.1538	14.753	118.0	0.331194016	0.345286476	0.003822315	0.039434124	0.012153980
2020-08-25T20:30:00	0.1528	14.748	118.0	0.328302119	0.341179507	0.003754834	0.038737927	0.011939405
2020-08-25T20:35:00	0.1508	14.741	118.0	0.322468653	0.332960525	0.003620843	0.037355572	0.011513350
2020-08-25T20:40:00	0.1512	14.738	118.0	0.323674638	0.334652515	0.003648311	0.037638952	0.011600690
2020-08-25T20:45:00	0.1515	14.733	117.0	0.324586178	0.335933876	0.003669153	0.037853972	0.011666962
2020-08-25T20:50:00	0.1527	14.733	118.0	0.328133327	0.340940460	0.003750917	0.038697515	0.011926950
2020-08-25T20:55:00	0.1536	14.727	118.0	0.330795336	0.344719003	0.003812971	0.039337714	0.012124266
2020-08-25T21:00:00	0.1528	14.722	118.0	0.328487823	0.341442589	0.003759146	0.038782415	0.011953117
2020-08-25T21:05:00	0.1522	14.718	117.0	0.326762358	0.339001585	0.003719190	0.038370199	0.011826068
2020-08-25T21:10:00	0.1527	14.717	117.0	0.328257148	0.341115810	0.003753790	0.038727157	0.011936086
2020-08-25T21:15:00	0.1538	14.722	117.0	0.331210914	0.345310538	0.003822712	0.039438214	0.012155241
2020-08-25T21:20:00	0.1535	14.725	117.0	0.330365635	0.344107834	0.003802913	0.039233957	0.012092287
2020-08-25T21:25:00	0.1525	14.723	117.0	0.327471974	0.340004547	0.003735592	0.038539416	0.011878222
2020-08-25T21:30:00	0.1523	14.720	116.0	0.326917289	0.339220451	0.003722768	0.038407107	0.011837443
2020-08-25T21:35:00	0.1522	14.724	117.0	0.326655356	0.338850462	0.003716721	0.038344721	0.011818215
2020-08-25T21:40:00	0.1540	14.721	117.0	0.331949083	0.346362350	0.003840051	0.039617096	0.012210374
2020-08-25T21:45:00	0.1542	14.717	117.0	0.332563435	0.347238809	0.003854516	0.039766335	0.012256371
2020-08-25T21:50:00	0.1544	14.716	117.0	0.333177511	0.348115849	0.003869007	0.039915836	0.012302448
2020-08-25T21:55:00	0.1539	14.714	117.0	0.331749869	0.346078351	0.003835367	0.039568773	0.012195480
2020-08-25T22:00:00	0.1538	14.709	117.0	0.331196926	0.345290619	0.003822384	0.039434829	0.012154197
2020-08-25T22:05:00	0.1539	14.714	117.0	0.331687655	0.345989682	0.003833905	0.039553689	0.012190831
2020-08-25T22:10:00	0.1542	14.717	117.0	0.332469939	0.347105360	0.003852313	0.039743602	0.012249364
2020-08-25T22:15:00	0.1541	14.721	117.0	0.332085149	0.346556382	0.003843252	0.039650121	0.012220552
2020-08-25T22:20:00	0.1531	14.725	117.0	0.329363343	0.342684114	0.003779515	0.038992564	0.012017887
2020-08-25T22:25:00	0.1535	14.729	117.0	0.330439125	0.344212327	0.003804632	0.039251691	0.012097752
2020-08-25T22:30:00	0.1535	14.730	117.0	0.330345947	0.344079842	0.003802453	0.039229207	0.012090823
2020-08-25T22:35:00	0.1531	14.731	118.0	0.329375960	0.342702019	0.003779809	0.038995597	0.012018822
2020-08-25T22:40:00	0.1523	14.732	117.0	0.326941638	0.339254854	0.003723330	0.038412910	0.011839232
2020-08-25T22:45:00	0.1522	14.732	117.0	0.326555281	0.338709148	0.003714412	0.038320901	0.011810874
2020-08-25T22:50:00	0.1518	14.733	117.0	0.325582578	0.337336966	0.003692014	0.038089829	0.011739655
2020-08-25T22:55:00	0.1510	14.732	117.0	0.323141410	0.333903939	0.003636151	0.037513501	0.011562025
2020-08-25T23:00:00	0.1510	14.736	117.0	0.323047727	0.333772497	0.003634017	0.037491486	0.011555240
2020-08-25T23:05:00	0.1501	14.742	117.0	0.320601948	0.330348896	0.003578565	0.036919398	0.011378917
2020-08-25T23:10:00	0.1504	14.743	117.0	0.321390667	0.331451271	0.003596393	0.037103326	0.011435605
2020-08-25T23:15:00	0.1498	14.742	116.0	0.319530996	0.328854599	0.003554440	0.036670505	0.011302206
2020-08-25T23:20:00	0.1497	14.743	116.0	0.319437061	0.328723671	0.003552329	0.036648721	0.011295492
2020-08-25T23:25:00	0.1494	14.741	116.0	0.318459185	0.327362038	0.003530391	0.036422393	0.011225735
2020-08-25T23:30:00	0.1490	14.741	117.0	0.317185600	0.325592309	0.003501938	0.036128846	0.011135261
2020-08-25T23:35:00	0.1480	14.746	117.0	0.315210261	0.321786493	0.003446620	0.035558139	0.010959364
2020-08-25T23:40:00	0.1472	14.741	116.0	0.313509571	0.318407466	0.003398149	0.035058077	0.010805240
2020-08-25T23:45:00	0.1464	14.738	116.0	0.311808444	0.315045821	0.003350099	0.034562352	0.010652452
2020-08-25T23:50:00	0.1459	14.737	116.0	0.310720549	0.312905571	0.003319596	0.034247662	0.010555462
2020-08-25T23:55:00	0.1461	14.743	117.0	0.311268933	0.313983490	0.003334950	0.034406063	0.010604283
2020-08-26T00:00:00	0.1457	14.743	117.0	0.310385510	0.312247941	0.003310238	0.034151112	0.010525705
2020-08-26T00:05:00	0.1454	14.740	116.0	0.309706551	0.310917420	0.003291324	0.033955982	0.010465563
2020-08-26T00:10:00	0.1463	14.742	116.0	0.311686809	0.314806154	0.003346680	0.034527077	0.010641580
2020-08-26T00:15:00	0.1460	14.744	117.0	0.311007987	0.313470330	0.003327638	0.034330631	0.010581034
2020-08-26T00:20:00	0.1446	14.747	116.0	0.308078520	0.307738898	0.003246250	0.033490964	0.010322240
2020-08-26T00:25:00	0.1450	14.750	116.0	0.309036349	0.309606912	0.003272721	0.033764060	0.010406411
2020-08-26T00:30:00	0.1449	14.754	116.0	0.308766482	0.309080017	0.003265249	0.033686974	0.010382653
2020-08-26T00:35:00	0.1446	14.753	116.0	0.308087350	0.307756094	0.003246494	0.033493476	0.010323014
2020-08-26T00:40:00	0.1442	14.745	116.0	0.307408145	0.306434937	0.003227804	0.033300660	0.010263587
2020-08-26T00:45:00	0.1441	14.750	116.0	0.307138209	0.305910678	0.003220395	0.033224224	0.010240029
2020-08-26T00:50:00	0.1441	14.755	116.0	0.307072931	0.305783967	0.003218605	0.033205756	0.010234337
2020-08-26T00:55:00	0.1430	14.758	116.0	0.304960626	0.301698274	0.003161021	0.032611666	0.010051232
2020-08-26T01:00:00	0.1430	14.757	116.0	0.304895325	0.301572416	0.003159251	0.032593408	0.010045605
2020-08-26T01:05:00	0.1427	14.760	116.0	0.304215770	0.300264258	0.003140871	0.032403787	0.009987162
2020-08-26T01:10:00	0.1418	14.758	116.0	0.302512129	0.296997520	0.003095090	0.031931476	0.009841591
2020-08-26T01:15:00	0.1410	14.756	116.0	0.300808004	0.293748163	0.003049721	0.031463406	0.009697327
2020-08-26T01:20:00	0.1404	14.757	116.0	0.299513247	0.291291616	0.003015532	0.031110691	0.009588617
2020-08-26T01:25:00	0.1398	14.759	117.0	0.298423168	0.289231601	0.002986937	0.030815679	0.009497692
2020-08-26T01:30:00	0.1399	14.760	116.0	0.298562756	0.289494974	0.002990589	0.030853357	0.009509304
2020-08-26T01:35:00	0.1398	14.758	116.0	0.298292422	0.288985022	0.002983519	0.030780414	0.009486823
2020-08-26T01:40:00	0.1397	14.762	116.0	0.298227048	0.288861771	0.002981811	0.030762791	0.009481391
2020-08-26T01:45:00	0.1393	14.763	116.0	0.297341730	0.287195320	0.002958738	0.030524759	0.009408027
2020-08-26T01:50:00	0.1394	14.758	116.0	0.297481344	0.287457790	0.002962369	0.030562219	0.009419573
2020-08-26T01:55:00	0.1387	14.767	116.0	0.295980796	0.284643243	0.002923492	0.030161126	0.009295952
2020-08-26T02:00:00	0.1377	14.769	116.0	0.294069625	0.281079055	0.002874444	0.029655112	0.009139994
2020-08-26T02:05:00	0.1380	14.771	116.0	0.294619534	0.282102233	0.002888503	0.029800155	0.009184697
2020-08-26T02:10:00	0.1381	14.767	116.0	0.294759215	0.282362432	0.002892081	0.029837069	0.009196074
2020-08-26T02:15:00	0.1378	14.768	116.0	0.294283592	0.281476942	0.002879909	0.029711495	0.009157371
2020-08-26T02:20:00	0.1381	14.768	116.0	0.294833480	0.282500823	0.002893985	0.029856706	0.009202127
2020-08-26T02:25:00	0.1383	14.770	116.0	0.295178238	0.283143729	0.002902831	0.029947976	0.009230257
2020-08-26T02:30:00	0.1381	14.774	116.0	0.294907743	0.282639246	0.002895889	0.029876352	0.009208182
2020-08-26T02:35:00	0.1378	14.777	116.0	0.294227023	0.281371720	0.002878464	0.029696582	0.009152775
2020-08-26T02:40:00	0.1373	14.777	116.0	0.293135926	0.279346151	0.002850673	0.029409865	0.009064406
2020-08-26T02:45:00	0.1373	14.772	116.0	0.293275645	0.279605113	0.002854222	0.029446482	0.009075692
2020-08-26T02:50:00	0.1373	14.766	116.0	0.293210213	0.279483822	0.002852559	0.029429330	0.009070405
2020-08-26T02:55:00	0.1377	14.767	116.0	0.293965334	0.280885222	0.002871783	0.029627655	0.009131531
2020-08-26T03:00:00	0.1378	14.763	116.0	0.294310146	0.281526341	0.002880588	0.029718497	0.009159529
2020-08-26T03:05:00	0.1370	14.767	116.0	0.292603578	0.278360596	0.002837175	0.029270613	0.009021487
2020-08-26T03:10:00	0.1373	14.760	117.0	0.293153632	0.279378962	0.002851122	0.029414504	0.009065836
2020-08-26T03:15:00	0.1374	14.757	117.0	0.293498495	0.280018410	0.002859889	0.029504945	0.009093711
2020-08-26T03:20:00	0.1380	14.756	117.0	0.294663787	0.282184655	0.002889636	0.029811847	0.009188301
2020-08-26T03:25:00	0.1378	14.747	117.0	0.294188156	0.281299436	0.002877471	0.029686338	0.009149618
2020-08-26T03:30:00	0.1380	14.745	116.0	0.294738053	0.282323003	0.002891539	0.029831474	0.009194350
2020-08-26T03:35:00	0.1378	14.740	116.0	0.294262428	0.281437573	0.002879369	0.029705915	0.009155651
2020-08-26T03:40:00	0.1388	14.735	116.0	0.296247779	0.285142979	0.002930385	0.030232245	0.009317871
2020-08-26T03:45:00	0.1396	14.732	116.0	0.297822482	0.288099636	0.002971253	0.030653872	0.009447821
2020-08-26T03:50:00	0.1403	14.714	116.0	0.299396754	0.291071111	0.003012468	0.031079079	0.009578874
2020-08-26T03:55:00	0.1408	14.702	116.0	0.300355950	0.292889279	0.003037756	0.031339973	0.009659284
2020-08-26T04:00:00	0.1415	14.695	116.0	0.301724697	0.295493802	0.003074074	0.031714650	0.009774763
2020-08-26T04:05:00	0.1413	14.668	116.0	0.301347661	0.294775177	0.003064042	0.031611160	0.009742867
2020-08-26T04:10:00	0.1406	14.669	116.0	0.299946148	0.292111785	0.003026936	0.031228341	0.009624878
2020-08-26T04:15:00	0.1403	14.645	116.0	0.299364073	0.291009266	0.003011609	0.031070214	0.009576142
2020-08-26T04:20:00	0.1397	14.631	116.0	0.298167059	0.288748697	0.002980244	0.030746625	0.009476408
2020-08-26T04:25:00	0.1398	14.619	116.0	0.298404713	0.289196789	0.002986454	0.030810700	0.009496157
2020-08-26T04:30:00	0.1388	14.610	116.0	0.296182382	0.285020527	0.002928696	0.030214814	0.009312499
2020-08-26T04:35:00	0.1378	14.593	115.0	0.294164297	0.281255068	0.002876862	0.029680051	0.009147680
2020-08-26T04:40:00	0.1379	14.571	116.0	0.294402119	0.281697475	0.002882940	0.029742757	0.009167006
2020-08-26T04:45:00	0.1377	14.570	116.0	0.294024601	0.280995365	0.002873295	0.029643257	0.009136340
2020-08-26T04:50:00	0.1374	14.560	116.0	0.293441918	0.279913453	0.002858449	0.029490096	0.009089134
2020-08-26T04:55:00	0.1373	14.552	116.0	0.293269488	0.279593698	0.002854066	0.029444868	0.009075194
2020-08-26T05:00:00	0.1375	14.530	116.0	0.293712484	0.280415568	0.002865337	0.029561153	0.009111034
2020-08-26T05:05:00	0.1373	14.521	116.0	0.293129769	0.279334741	0.002850516	0.029408252	0.009063909
2020-08-26T05:10:00	0.1368	14.504	115.0	0.292136623	0.277497579	0.002825369	0.029148811	0.008983947
2020-08-26T05:15:00	0.1376	14.502	116.0	0.293810624	0.280597808	0.002867838	0.029586954	0.009118986
2020-08-26T05:20:00	0.1384	14.491	116.0	0.295484118	0.283714760	0.002910695	0.030029101	0.009255261
2020-08-26T05:25:00	0.1380	14.464	116.0	0.294696495	0.282245581	0.002890474	0.029820490	0.009190965
2020-08-26T05:30:00	0.1369	14.469	116.0	0.292472696	0.278118564	0.002833863	0.029236441	0.009010955
2020-08-26T05:35:00	0.1367	14.465	116.0	0.291889849	0.277042049	0.002819142	0.029084571	0.008964147
2020-08-26T05:40:00	0.1366	14.467	116.0	0.291717369	0.276723891	0.002814795	0.029039725	0.008950325
2020-08-26T05:45:00	0.1352	14.458	117.0	0.288876440	0.271510461	0.002743805	0.028307333	0.008724595
2020-08-26T05:50:00	0.1356	14.472	116.0	0.289730379	0.273072189	0.002765023	0.028526236	0.008792063
2020-08-26T05:55:00	0.1347	14.486	116.0	0.287915256	0.269758097	0.002720046	0.028062213	0.008649047
2020-08-26T06:00:00	0.1338	14.519	116.0	0.286099503	0.266463634	0.002675519	0.027602833	0.008507461
2020-08-26T06:05:00	0.1324	14.554	117.0	0.283049965	0.260977379	0.002601778	0.026842064	0.008272985
2020-08-26T06:10:00	0.1320	14.580	116.0	0.282260485	0.259566621	0.002582900	0.026647300	0.008212957
2020-08-26T06:15:00	0.1331	14.639	116.0	0.284554144	0.263676140	0.002637988	0.027215632	0.008388122
2020-08-26T06:20:00	0.1338	14.672	116.0	0.286025117	0.266329114	0.002673704	0.027584116	0.008501692
2020-08-26T06:25:00	0.1341	14.693	116.0	0.286674123	0.267503965	0.002689560	0.027747692	0.008552108
2020-08-26T06:30:00	0.1323	14.709	117.0	0.283008315	0.260902854	0.002600780	0.026831767	0.008269811
2020-08-26T06:35:00	0.1325	14.729	117.0	0.283246640	0.261329438	0.002606495	0.026890724	0.008287982
2020-08-26T06:40:00	0.1326	14.810	117.0	0.283484954	0.261756360	0.002612217	0.026949760	0.008306178
2020-08-26T06:45:00	0.1333	14.871	117.0	0.284956237	0.264399979	0.002647721	0.027316046	0.008419071
2020-08-26T06:50:00	0.1337	14.923	117.0	0.285810819	0.265941768	0.002668482	0.027530238	0.008485087
2020-08-26T06:55:00	0.1335	15.045	117.0	0.285432693	0.265259006	0.002659283	0.027435334	0.008455837
2020-08-26T07:00:00	0.1327	15.125	117.0	0.283821583	0.262360014	0.002620313	0.027033290	0.008331923
2020-08-26T07:05:00	0.1331	15.137	117.0	0.284676356	0.263896034	0.002640943	0.027246127	0.008397521
2020-08-26T07:10:00	0.1330	15.113	117.0	0.284298145	0.263215825	0.002631803	0.027151823	0.008368456
2020-08-26T07:15:00	0.1339	15.181	117.0	0.286180053	0.266609342	0.002677484	0.027623111	0.008513711
2020-08-26T07:20:00	0.1320	15.227	118.0	0.282308312	0.259651973	0.002584041	0.026659073	0.008216585
2020-08-26T07:25:00	0.1324	15.303	118.0	0.283163343	0.261180302	0.002604496	0.026870108	0.008281628
2020-08-26T07:30:00	0.1331	15.357	119.0	0.284634719	0.263821107	0.002639936	0.027235735	0.008394318
2020-08-26T07:35:00	0.1329	15.387	119.0	0.284256505	0.263140991	0.002630798	0.027141453	0.008365259
2020-08-26T07:40:00	0.1330	15.512	119.0	0.284289277	0.263199887	0.002631589	0.027149614	0.008367775
2020-08-26T07:45:00	0.1319	15.557	119.0	0.282061070	0.259210898	0.002578145	0.026598246	0.008197838
2020-08-26T07:50:00	0.1319	15.587	119.0	0.282093856	0.259269366	0.002578926	0.026606307	0.008200322
2020-08-26T07:55:00	0.1314	15.629	120.0	0.281098598	0.257497535	0.002555274	0.026362293	0.008125115
2020-08-26T08:00:00	0.1320	15.595	119.0	0.282365010	0.259753175	0.002585394	0.026673035	0.008220888
2020-08-26T08:05:00	0.1319	15.484	119.0	0.282192214	0.259444808	0.002581271	0.026630500	0.008207779
2020-08-26T08:10:00	0.1318	15.534	119.0	0.281813815	0.258770185	0.002572257	0.026537504	0.008179116
2020-08-26T08:15:00	0.1321	15.517	119.0	0.282463362	0.259928776	0.002587743	0.026697264	0.008228356
2020-08-26T08:20:00	0.1309	15.516	119.0	0.280028664	0.255599723	0.002530001	0.026101553	0.008044752
2020-08-26T08:25:00	0.1329	15.468	120.0	0.284173225	0.262991355	0.002628788	0.027120720	0.008358869
2020-08-26T08:30:00	0.1343	15.441	120.0	0.287082214	0.268244064	0.002699560	0.027850861	0.008583906
2020-08-26T08:35:00	0.1346	15.426	121.0	0.287731088	0.269422999	0.002715508	0.028015401	0.008634619
2020-08-26T08:40:00	0.1347	15.394	121.0	0.287969193	0.269856277	0.002721376	0.028075933	0.008653275
2020-08-26T08:45:00	0.1339	15.430	122.0	0.286153459	0.266561232	0.002676835	0.027616415	0.008511647
2020-08-26T08:50:00	0.1339	15.618	115.0	0.286186219	0.266620497	0.002677635	0.027624663	0.008514189
2020-08-26T08:55:00	0.1326	15.684	116.0	0.283547808	0.261869017	0.002613727	0.026965344	0.008310981
2020-08-26T09:00:00	0.1312	15.787	116.0	0.280702367	0.256793873	0.002545896	0.026265541	0.008095295
2020-08-26T09:05:00	0.1337	15.756	123.0	0.285873644	0.266055294	0.002670012	0.027546027	0.008489953
2020-08-26T09:10:00	0.1333	15.813	124.0	0.285084605	0.264631281	0.002650833	0.027348153	0.008428966
2020-08-26T09:15:00	0.1319	15.814	117.0	0.282034454	0.259163439	0.002577511	0.026591703	0.008195821
2020-08-26T09:20:00	0.1320	15.949	118.0	0.282272826	0.259588643	0.002583194	0.026650338	0.008213893
2020-08-26T09:25:00	0.1322	15.990	118.0	0.282716754	0.260381470	0.002593800	0.026759752	0.008247615
2020-08-26T09:30:00	0.1330	16.032	118.0	0.284393759	0.263387702	0.002634112	0.027175644	0.008375797
2020-08-26T09:35:00	0.1324	16.077	118.0	0.283193421	0.261234150	0.002605218	0.026877551	0.008283922
2020-08-26T09:40:00	0.1317	16.060	118.0	0.281787198	0.258722766	0.002571624	0.026530970	0.008177103
2020-08-26T09:45:00	0.1308	16.042	118.0	0.279763554	0.255130596	0.002523763	0.026037200	0.008024918
2020-08-26T09:50:00	0.1306	15.992	118.0	0.279384968	0.254461434	0.002514872	0.025945476	0.007996648
2020-08-26T09:55:00	0.1306	15.965	118.0	0.279417772	0.254519381	0.002515642	0.025953416	0.007999095
2020-08-26T10:00:00	0.1305	15.972	119.0	0.279244872	0.254214039	0.002511587	0.025911585	0.007986202
2020-08-26T10:05:00	0.1314	15.949	119.0	0.281163322	0.257612571	0.002556808	0.026378118	0.008129992
2020-08-26T10:10:00	0.1322	16.007	126.0	0.282669909	0.260297749	0.002592679	0.026748193	0.008244053
2020-08-26T10:15:00	0.1328	16.017	119.0	0.283970534	0.262627347	0.002623901	0.027070303	0.008343330
2020-08-26T10:20:00	0.1324	15.934	119.0	0.283215817	0.261274247	0.002605755	0.026883094	0.008285631
2020-08-26T10:25:00	0.1323	15.871	119.0	0.282872117	0.260659232	0.002597518	0.026798111	0.008259438
2020-08-26T10:30:00	0.1323	15.864	119.0	0.282939518	0.260779780	0.002599132	0.026814763	0.008264570
2020-08-26T10:35:00	0.1324	15.851	121.0	0.283212465	0.261268245	0.002605675	0.026882264	0.008285375
2020-08-26T10:40:00	0.1321	15.844	120.0	0.282457634	0.259918547	0.002587606	0.026695853	0.008227921
2020-08-26T10:45:00	0.1303	15.837	120.0	0.278823371	0.253470458	0.002501720	0.025809788	0.007954827
2020-08-26T10:50:00	0.1313	15.824	120.0	0.280947628	0.257229312	0.002551698	0.026325402	0.008113745
2020-08-26T10:55:00	0.1292	15.842	120.0	0.276488993	0.249372590	0.002447518	0.025250594	0.007782478
2020-08-26T11:00:00	0.1293	15.881	120.0	0.276762304	0.249850596	0.002453825	0.025315664	0.007802534
2020-08-26T11:05:00	0.1290	15.881	120.0	0.276212310	0.248889164	0.002441144	0.025184828	0.007762209
2020-08-26T11:10:00	0.1300	15.856	119.0	0.278131973	0.252253169	0.002485588	0.025643358	0.007903532
2020-08-26T11:15:00	0.1294	15.873	120.0	0.276964758	0.250204983	0.002458504	0.025363934	0.007817411
2020-08-26T11:20:00	0.1296	15.933	120.0	0.277443832	0.251044604	0.002469598	0.025478386	0.007852686
2020-08-26T11:25:00	0.1299	16.018	121.0	0.277922857	0.251885587	0.002480722	0.025593154	0.007888059
2020-08-26T11:30:00	0.1276	16.028	121.0	0.273255398	0.243752920	0.002373673	0.024488751	0.007547671
2020-08-26T11:35:00	0.1276	15.996	121.0	0.273322935	0.243869619	0.002375201	0.024504512	0.007552529
2020-08-26T11:40:00	0.1283	15.930	121.0	0.274626099	0.246127020	0.002404801	0.024809888	0.007646649
2020-08-26T11:45:00	0.1287	15.905	121.0	0.275517172	0.247676736	0.002425174	0.025020077	0.007711431
2020-08-26T11:50:00	0.1294	15.937	123.0	0.277025528	0.250311407	0.002459910	0.025378434	0.007821880
2020-08-26T11:55:00	0.1305	15.906	123.0	0.279150579	0.254047597	0.002509378	0.025888790	0.007979177
2020-08-26T12:00:00	0.1304	15.898	123.0	0.279012317	0.253803644	0.002506140	0.025855389	0.007968882
2020-08-26T12:05:00	0.1295	15.921	123.0	0.277227972	0.250666110	0.002464595	0.025426776	0.007836779
2020-08-26T12:10:00	0.1299	15.910	123.0	0.277912789	0.251867897	0.002480488	0.025590738	0.007887314
2020-08-26T12:15:00	0.1294	15.894	123.0	0.276951332	0.250181472	0.002458194	0.025360731	0.007816423
2020-08-26T12:20:00	0.1271	15.987	125.0	0.272282893	0.242075688	0.002351744	0.024262510	0.007477941
2020-08-26T12:25:00	0.1291	16.024	125.0	0.276263018	0.248977726	0.002442311	0.025196873	0.007765921
2020-08-26T12:30:00	0.1288	16.067	126.0	0.275712966	0.248017922	0.002429666	0.025066412	0.007725712
2020-08-26T12:35:00	0.1295	16.066	126.0	0.277221259	0.250654344	0.002464440	0.025425172	0.007836285
2020-08-26T12:40:00	0.1305	16.059	127.0	0.279140514	0.254029833	0.002509142	0.025886358	0.007978427
2020-08-26T12:45:00	0.1291	16.074	127.0	0.276327154	0.249089763	0.002443788	0.025212112	0.007770618
2020-08-26T12:50:00	0.1297	16.073	129.0	0.277629476	0.251370353	0.002473905	0.025522825	0.007866383
2020-08-26T12:55:00	0.1296	15.994	129.0	0.277285381	0.250766745	0.002465925	0.025440496	0.007841008
2020-08-26T13:00:00	0.1298	15.997	119.0	0.277764422	0.251607278	0.002477039	0.025555159	0.007876348
2020-08-26T13:05:00	0.1298	15.988	119.0	0.277831894	0.251725780	0.002478607	0.025571335	0.007881334
2020-08-26T13:10:00	0.1298	15.994	118.0	0.277899364	0.251844310	0.002480176	0.025587518	0.007886321
2020-08-26T13:15:00	0.1322	15.997	119.0	0.282697080	0.260346307	0.002593329	0.026754897	0.008246119
2020-08-26T13:20:00	0.1315	15.955	120.0	0.281325348	0.257900662	0.002560651	0.026417761	0.008142211
2020-08-26T13:25:00	0.1296	16.023	120.0	0.277484457	0.251115871	0.002470540	0.025488107	0.007855682
2020-08-26T13:30:00	0.1291	16.052	120.0	0.276317082	0.249072168	0.002443556	0.025209719	0.007769880
2020-08-26T13:35:00	0.1279	16.032	120.0	0.273913929	0.244892040	0.002388596	0.024642706	0.007595121
2020-08-26T13:40:00	0.1277	16.016	120.0	0.273569559	0.244296012	0.002380785	0.024562121	0.007570284
2020-08-26T13:45:00	0.1266	16.023	130.0	0.271164959	0.240155004	0.002326694	0.024004076	0.007398289
2020-08-26T13:50:00	0.1266	16.043	122.0	0.271232528	0.240270868	0.002328204	0.024019646	0.007403088
2020-08-26T13:55:00	0.1258	16.108	125.0	0.269651297	0.237566979	0.002293048	0.023656949	0.007291301
2020-08-26T14:00:00	0.1283	16.161	120.0	0.274663391	0.246191776	0.002405651	0.024818662	0.007649353
2020-08-26T14:05:00	0.1277	16.175	120.0	0.273495307	0.244167597	0.002379103	0.024544768	0.007564936
2020-08-26T14:10:00	0.1293	16.149	123.0	0.276856993	0.250016313	0.002456013	0.025338233	0.007809489
2020-08-26T14:15:00	0.1270	16.077	123.0	0.271982433	0.241558706	0.002344995	0.024192880	0.007456481
2020-08-26T14:20:00	0.1269	16.061	124.0	0.271843958	0.241320630	0.002341889	0.024160832	0.007446603
2020-08-26T14:25:00	0.1270	16.108	128.0	0.272117545	0.241791113	0.002348028	0.024224176	0.007466126
2020-08-26T14:30:00	0.1266	16.139	127.0	0.271154876	0.240137717	0.002326469	0.024001753	0.007397574
2020-08-26T14:35:00	0.1258	16.119	127.0	0.269573617	0.237434555	0.002291329	0.023639221	0.007285837
2020-08-26T14:40:00	0.1247	16.070	106.0	0.267373093	0.233698967	0.002242989	0.023140509	0.007132130
2020-08-26T14:45:00	0.1262	16.066	125.0	0.270327165	0.238720780	0.002308033	0.023811550	0.007338951
2020-08-26T14:50:00	0.1260	16.090	125.0	0.269982520	0.238132064	0.002300384	0.023732635	0.007314628
2020-08-26T14:55:00	0.1240	16.065	108.0	0.265925757	0.231258614	0.002211550	0.022816157	0.007032161
2020-08-26T15:00:00	0.1249	16.069	109.0	0.267643595	0.234156524	0.002248897	0.023201451	0.007150912
2020-08-26T15:05:00	0.1252	16.068	109.0	0.268329864	0.235319424	0.002263927	0.023356518	0.007198706
2020-08-26T15:10:00	0.1255	16.023	128.0	0.269016025	0.236485106	0.002279019	0.023512215	0.007246693
2020-08-26T15:15:00	0.1272	15.976	125.0	0.272381035	0.242244678	0.002353951	0.024285281	0.007484959
2020-08-26T15:20:00	0.1276	15.924	112.0	0.273272545	0.243782546	0.002374061	0.024492752	0.007548904
2020-08-26T15:25:00	0.1260	15.890	130.0	0.270043383	0.238235975	0.002301733	0.023746559	0.007318920
2020-08-26T15:30:00	0.1286	15.879	110.0	0.275260929	0.247230576	0.002419305	0.024959519	0.007692766
2020-08-26T15:35:00	0.1274	15.872	110.0	0.272857224	0.243065488	0.002364679	0.024395960	0.007519072
2020-08-26T15:40:00	0.1270	15.878	128.0	0.272100743	0.241762207	0.002347651	0.024220283	0.007464926
2020-08-26T15:45:00	0.1249	15.884	109.0	0.267633504	0.234139447	0.002248676	0.023199176	0.007150211
2020-08-26T15:50:00	0.1272	15.863	129.0	0.272441865	0.242349452	0.002355320	0.024299402	0.007489312
2020-08-26T15:55:00	0.1256	15.828	108.0	0.269212101	0.236818754	0.002283343	0.023556827	0.007260443
2020-08-26T16:00:00	0.1260	15.827	133.0	0.269898123	0.237988013	0.002298513	0.023713335	0.007308680
2020-08-26T16:05:00	0.1253	15.818	112.0	0.268608340	0.235792154	0.002270044	0.023419628	0.007218157
2020-08-26T16:10:00	0.1249	15.791	114.0	0.267730651	0.234303880	0.002250800	0.023221086	0.007156964
2020-08-26T16:15:00	0.1265	15.767	103.0	0.270976252	0.239831570	0.002322483	0.023960625	0.007384897
2020-08-26T16:20:00	0.1266	15.759	121.0	0.271129506	0.240094222	0.002325903	0.023995909	0.007395772
2020-08-26T16:25:00	0.1258	15.737	114.0	0.269633949	0.237537402	0.002292664	0.023652989	0.007290081
2020-08-26T16:30:00	0.1247	15.726	0.0	0.267312963	0.233597320	0.002241678	0.023126976	0.007127959
2020-08-26T16:35:00	0.1258	15.714	0.0	0.269528275	0.237357274	0.002290327	0.023628877	0.007282649
2020-08-26T16:40:00	0.1252	15.669	0.0	0.268238382	0.235164234	0.002261920	0.023335809	0.007192323
2020-08-26T16:45:00	0.1251	15.662	0.0	0.268185528	0.235074597	0.002260761	0.023323850	0.007188637
2020-08-26T16:50:00	0.1249	15.632	0.0	0.267720234	0.234286244	0.002250572	0.023218736	0.007156240
2020-08-26T16:55:00	0.1272	15.617	0.0	0.272408148	0.242291376	0.002354561	0.024291574	0.007486899
2020-08-26T17:00:00	0.1257	15.593	0.0	0.269264078	0.236907241	0.002284490	0.023568662	0.007264090
2020-08-26T17:05:00	0.1285	15.583	0.0	0.275185841	0.247099915	0.002417586	0.024941791	0.007687302
2020-08-26T17:10:00	0.1303	15.555	0.0	0.278837585	0.253495514	0.002502053	0.025813217	0.007955884
2020-08-26T17:15:00	0.1305	15.535	0.0	0.279196293	0.254128282	0.002510449	0.025899840	0.007982582
2020-08-26T17:20:00	0.1302	15.515	0.0	0.278526388	0.252947214	0.002494783	0.025738216	0.007932768
2020-08-26T17:25:00	0.1318	15.479	0.0	0.281969999	0.259048525	0.002575975	0.026575863	0.008190939
2020-08-26T17:30:00	0.1312	15.453	0.0	0.280683571	0.256760517	0.002545452	0.026260957	0.008093882
2020-08-26T17:35:00	0.1330	15.435	0.0	0.284331173	0.263275189	0.002632600	0.027160050	0.008370991
2020-08-26T17:40:00	0.1319	15.426	0.0	0.282017502	0.259133213	0.002577107	0.026587537	0.008194537
2020-08-26T17:45:00	0.1311	15.411	0.0	0.280525437	0.256479984	0.002541716	0.026222411	0.008082002
2020-08-26T17:50:00	0.1305	15.395	0.0	0.279238628	0.254203015	0.002511441	0.025910075	0.007985737
2020-08-26T17:55:00	0.1321	15.374	0.0	0.282476168	0.259951645	0.002588049	0.026700420	0.008229329
2020-08-26T18:00:00	0.1328	15.364	0.0	0.284067807	0.262802005	0.002626246	0.027094491	0.008350785
2020-08-26T18:05:00	0.1316	15.365	0.0	0.281548407	0.258297544	0.002565947	0.026472399	0.008159051
2020-08-26T18:10:00	0.1316	15.336	0.0	0.281495706	0.258203746	0.002564695	0.026459484	0.008155070
2020-08-26T18:15:00	0.1313	15.326	0.0	0.280826117	0.257013533	0.002548823	0.026295734	0.008104601
2020-08-26T18:20:00	0.1310	15.324	0.0	0.280362103	0.256190392	0.002537860	0.026182635	0.008069742
2020-08-26T18:25:00	0.1316	15.314	0.0	0.281543214	0.258288300	0.002565823	0.026471126	0.008158658
2020-08-26T18:30:00	0.1320	15.300	0.0	0.282312899	0.259660160	0.002584150	0.026660203	0.008216933
2020-08-26T18:35:00	0.1315	15.290	0.0	0.281232190	0.257735002	0.002558441	0.026394964	0.008135184
2020-08-26T18:40:00	0.1309	15.282	0.0	0.280151243	0.255816783	0.002532888	0.026131342	0.008053933
2020-08-26T18:45:00	0.1326	15.276	0.0	0.283593713	0.261951313	0.002614831	0.026976729	0.008314490
2020-08-26T18:50:00	0.1316	15.271	0.0	0.281485319	0.258185262	0.002564448	0.026456939	0.008154285
2020-08-26T18:55:00	0.1325	15.256	0.0	0.283282818	0.261394224	0.002607363	0.026899681	0.008290743
2020-08-26T19:00:00	0.1338	15.249	0.0	0.286106902	0.266477017	0.002675699	0.027604695	0.008508035
2020-08-26T19:05:00	0.1329	15.240	0.0	0.284205066	0.263048561	0.002629556	0.027128646	0.008361312
2020-08-26T19:10:00	0.1320	15.231	0.0	0.282302514	0.259641625	0.002583903	0.026657646	0.008216145
2020-08-26T19:15:00	0.1329	15.225	0.0	0.284099719	0.262859317	0.002627015	0.027102429	0.008353232
2020-08-26T19:20:00	0.1326	15.220	0.0	0.283636010	0.262027151	0.002615848	0.026987222	0.008317724
2020-08-26T19:25:00	0.1330	15.212	0.0	0.284405374	0.263408583	0.002634392	0.027178539	0.008376690
2020-08-26T19:30:00	0.1342	15.204	0.0	0.286818059	0.267764882	0.002693084	0.027784053	0.008563315
2020-08-26T19:35:00	0.1343	15.209	0.0	0.286970808	0.268041917	0.002696828	0.027822672	0.008575218
2020-08-26T19:40:00	0.1333	15.206	0.0	0.285069293	0.264603684	0.002650461	0.027344322	0.008427786
2020-08-26T19:45:00	0.1337	15.201	0.0	0.285838439	0.265991674	0.002669155	0.027537179	0.008487226
2020-08-26T19:50:00	0.1330	15.189	0.0	0.284347512	0.263304560	0.002632995	0.027164120	0.008372246
2020-08-26T19:55:00	0.1330	15.174	0.0	0.284294840	0.263209885	0.002631723	0.027151000	0.008368202
2020-08-26T20:00:00	0.1328	15.175	0.0	0.284036663	0.262746078	0.002625495	0.027086745	0.008348398
2020-08-26T20:05:00	0.1328	15.162	0.0	0.283983988	0.262651500	0.002624225	0.027073647	0.008344361
2020-08-26T20:10:00	0.1340	15.150	0.0	0.286396872	0.267001751	0.002682779	0.027677738	0.008530548
2020-08-26T20:15:00	0.1334	15.152	0.0	0.285111577	0.264679893	0.002651487	0.027354902	0.008431046
2020-08-26T20:20:00	0.1333	15.147	0.0	0.285058913	0.264584979	0.002650210	0.027341725	0.008426985
2020-08-26T20:25:00	0.1349	15.140	0.0	0.288292713	0.270445556	0.002729361	0.028158311	0.008678665
2020-08-26T20:30:00	0.1358	15.124	0.0	0.290087829	0.273727275	0.002773936	0.028618183	0.008820402
2020-08-26T20:35:00	0.1362	15.116	0.0	0.290856238	0.275138243	0.002793156	0.028816475	0.008881518
2020-08-26T20:40:00	0.1351	15.106	0.0	0.288750816	0.271281101	0.002740693	0.028275220	0.008714698
2020-08-26T20:45:00	0.1355	15.098	0.0	0.289519419	0.272685945	0.002759772	0.028472058	0.008775365
2020-08-26T20:50:00	0.1364	15.095	0.0	0.291314121	0.275980786	0.002804649	0.028935046	0.008918062
2020-08-26T20:55:00	0.1378	15.094	0.0	0.294133909	0.281198565	0.002876086	0.029672045	0.009145212
2020-08-26T21:00:00	0.1394	15.093	0.0	0.297567275	0.287619398	0.002964606	0.030585290	0.009426683
2020-08-26T21:05:00	0.1382	15.083	0.0	0.295054270	0.282912466	0.002899648	0.029915137	0.009220136
2020-08-26T21:10:00	0.1358	15.068	0.0	0.290077459	0.273708261	0.002773677	0.028615513	0.008819579
2020-08-26T21:15:00	0.1356	15.045	0.0	0.289819569	0.273235570	0.002767245	0.028549161	0.008799129
2020-08-26T21:20:00	0.1353	15.034	0.0	0.289151072	0.272012220	0.002750618	0.028377618	0.008746257
2020-08-26T21:25:00	0.1354	15.025	0.0	0.289303752	0.272291377	0.002754410	0.028416739	0.008758315
2020-08-26T21:30:00	0.1363	15.040	0.0	0.291098527	0.275583911	0.002799234	0.028879179	0.008900843
2020-08-26T21:35:00	0.1362	15.025	0.0	0.291045923	0.275487119	0.002797914	0.028865558	0.008896645
2020-08-26T21:40:00	0.1350	15.012	0.0	0.288529932	0.270878061	0.002735225	0.028218812	0.008697312
2020-08-26T21:45:00	0.1347	15.004	0.0	0.287861271	0.269659849	0.002718715	0.028048486	0.008644816
2020-08-26T21:50:00	0.1348	15.003	0.0	0.288013989	0.269937833	0.002722481	0.028087330	0.008656788
2020-08-26T21:55:00	0.1358	15.003	0.0	0.290219744	0.273969237	0.002777229	0.028652163	0.008830875
2020-08-26T22:00:00	0.1367	15.004	0.0	0.292014214	0.277271570	0.002822279	0.029116934	0.008974122
2020-08-26T22:05:00	0.1369	14.998	0.0	0.292372000	0.277932425	0.002831316	0.029210168	0.009002857
2020-08-26T22:10:00	0.1360	14.977	0.0	0.290472431	0.274433024	0.002783545	0.028717324	0.008850958
2020-08-26T22:15:00	0.1354	14.960	0.0	0.289393438	0.272455424	0.002756639	0.028439736	0.008765403
2020-08-26T22:20:00	0.1351	14.950	0.0	0.288724886	0.271233772	0.002740050	0.028268595	0.008712655
2020-08-26T22:25:00	0.1366	14.934	0.0	0.291751233	0.276786342	0.002815648	0.029048526	0.008953038
2020-08-26T22:30:00	0.1358	14.938	0.0	0.290056721	0.273670233	0.002773159	0.028610174	0.008817933
2020-08-26T22:35:00	0.1338	14.938	0.0	0.286102481	0.266469021	0.002675591	0.027603583	0.008507692
2020-08-26T22:40:00	0.1334	14.934	0.0	0.285228051	0.264889871	0.002654313	0.027384059	0.008440033
2020-08-26T22:45:00	0.1334	14.923	0.0	0.285175388	0.264794920	0.002653035	0.027370873	0.008435969
2020-08-26T22:50:00	0.1327	14.923	0.0	0.283684266	0.262113688	0.002617009	0.026999197	0.008321415
2020-08-26T22:55:00	0.1339	14.917	0.0	0.286302714	0.266831304	0.002680479	0.027654007	0.008523234
2020-08-26T23:00:00	0.1329	14.915	0.0	0.284195453	0.263031290	0.002629324	0.027126253	0.008360575
2020-08-26T23:05:00	0.1330	14.910	0.0	0.284348280	0.263305941	0.002633013	0.027164312	0.008372305
2020-08-26T23:10:00	0.1318	14.913	0.0	0.281829022	0.258797279	0.002572619	0.026541237	0.008180267
2020-08-26T23:15:00	0.1314	14.905	0.0	0.281159479	0.257605740	0.002556717	0.026377178	0.008129703
2020-08-26T23:20:00	0.1319	14.900	0.0	0.282134816	0.259342418	0.002579903	0.026616380	0.008203427
2020-08-26T23:25:00	0.1320	14.891	0.0	0.282287705	0.259615196	0.002583549	0.026654000	0.008215022
2020-08-26T23:30:00	0.1316	14.882	0.0	0.281412612	0.258055891	0.002562722	0.026439128	0.008148796
2020-08-26T23:35:00	0.1322	14.871	0.0	0.282799035	0.260528554	0.002595768	0.026780063	0.008253875
2020-08-26T23:40:00	0.1322	14.863	0.0	0.282746346	0.260434364	0.002594508	0.026767056	0.008249866
2020-08-26T23:45:00	0.1320	14.852	0.0	0.282282513	0.259605929	0.002583425	0.026652722	0.008214628
2020-08-26T23:50:00	0.1325	14.852	0.0	0.283257629	0.261349115	0.002606758	0.026893444	0.008288821
2020-08-26T23:55:00	0.1336	14.842	0.0	0.285670857	0.265688941	0.002665075	0.027495086	0.008474253
2020-08-27T00:00:00	0.1338	14.834	0.0	0.286029073	0.266336266	0.002673801	0.027585111	0.008501999
2020-08-27T00:05:00	0.1324	14.824	0.0	0.283099577	0.261066164	0.002602967	0.026854334	0.008276766
2020-08-27T00:10:00	0.1329	14.819	0.0	0.284074534	0.262814085	0.002626408	0.027096164	0.008351301
2020-08-27T00:15:00	0.1333	14.817	0.0	0.285049302	0.264567659	0.002649977	0.027339321	0.008426244
2020-08-27T00:20:00	0.1321	14.806	0.0	0.282530396	0.260048495	0.002589344	0.026713786	0.008233448
2020-08-27T00:25:00	0.1322	14.789	0.0	0.282683273	0.260321632	0.002592999	0.026751490	0.008245069
2020-08-27T00:30:00	0.1324	14.777	0.0	0.283041700	0.260962590	0.002601580	0.026840021	0.008272355
2020-08-27T00:35:00	0.1330	14.766	0.0	0.284427671	0.263448675	0.002634931	0.027184096	0.008378402
2020-08-27T00:40:00	0.1346	14.748	150.0	0.287661866	0.269297104	0.002713804	0.027997818	0.008629200
2020-08-27T00:45:00	0.1349	14.728	0.0	0.288225289	0.270322692	0.002727695	0.028141130	0.008673370
2020-08-27T00:50:00	0.1344	14.707	130.0	0.287351217	0.268732493	0.002706164	0.027919000	0.008604907
2020-08-27T00:55:00	0.1336	14.685	182.0	0.285655290	0.265660829	0.002664696	0.027491178	0.008473048
2020-08-27T01:00:00	0.1327	14.677	0.0	0.283753286	0.262237484	0.002618669	0.027016330	0.008326695
2020-08-27T01:05:00	0.1346	14.662	196.0	0.287604041	0.269191959	0.002712381	0.027983136	0.008624674
2020-08-27T01:10:00	0.1346	14.662	169.0	0.287756766	0.269469709	0.002716141	0.028021925	0.008636629
2020-08-27T01:15:00	0.1343	14.655	209.0	0.287088006	0.268254576	0.002699702	0.027852327	0.008584358
2020-08-27T01:20:00	0.1344	14.648	0.0	0.287240747	0.268531857	0.002703451	0.027891005	0.008596279
2020-08-27T01:25:00	0.1352	14.642	0.0	0.288830907	0.271427317	0.002742677	0.028295691	0.008721007
2020-08-27T01:30:00	0.1352	14.631	0.0	0.288983597	0.271706182	0.002746462	0.028334744	0.008733043
2020-08-27T01:35:00	0.1346	14.623	0.0	0.287698942	0.269364532	0.002714717	0.028007235	0.008632102
2020-08-27T01:40:00	0.1335	14.619	122.0	0.285386804	0.265176208	0.002658168	0.027423831	0.008452291
2020-08-27T01:45:00	0.1344	14.613	120.0	0.287182917	0.268426857	0.002702031	0.027876357	0.008591764
2020-08-27T01:50:00	0.1338	14.600	119.0	0.286103249	0.266470410	0.002675610	0.027603776	0.008507752
2020-08-27T01:55:00	0.1333	14.590	118.0	0.285023354	0.264520901	0.002649348	0.027332830	0.008424244
2020-08-27T02:00:00	0.1327	14.584	119.0	0.283737713	0.262209549	0.002618295	0.027012463	0.008325504
2020-08-27T02:05:00	0.1323	14.581	117.0	0.282862874	0.260642703	0.002597296	0.026795828	0.008258734
2020-08-27T02:10:00	0.1311	14.582	117.0	0.280548520	0.256520924	0.002542261	0.026228036	0.008083735
2020-08-27T02:15:00	0.1318	14.563	115.0	0.281935186	0.258986470	0.002575146	0.026567309	0.008188303
2020-08-27T02:20:00	0.1316	14.544	115.0	0.281471276	0.258160272	0.002564115	0.026453498	0.008153225
2020-08-27T02:25:00	0.1305	14.547	114.0	0.279156265	0.254057631	0.002509511	0.025890164	0.007979600
2020-08-27T02:30:00	0.1307	14.535	116.0	0.279720642	0.255054701	0.002522754	0.026026793	0.008021710
2020-08-27T02:35:00	0.1328	14.527	0.0	0.283985524	0.262654259	0.002624262	0.027074029	0.008344479
2020-08-27T02:40:00	0.1332	14.310	0.0	0.284754834	0.264037290	0.002642843	0.027265721	0.008403560
2020-08-27T02:45:00	0.1327	14.047	0.0	0.283674652	0.262096446	0.002616777	0.026996811	0.008320679
2020-08-27T02:50:00	0.1332	13.973	302.0	0.284854978	0.264217598	0.002645267	0.027290737	0.008411270
2020-08-27T02:55:00	0.1328	13.979	225.0	0.283980333	0.262644940	0.002624137	0.027072739	0.008344081
2020-08-27T03:00:00	0.1327	13.962	178.0	0.283722140	0.262181616	0.002617920	0.027008597	0.008324312
2020-08-27T03:05:00	0.1321	13.987	0.0	0.282436166	0.259880214	0.002587093	0.026690563	0.008226291
2020-08-27T03:10:00	0.1316	14.012	0.0	0.281561099	0.258320136	0.002566248	0.026475510	0.008160009
2020-08-27T03:15:00	0.1319	14.065	130.0	0.282125199	0.259325265	0.002579673	0.026614015	0.008202698
2020-08-27T03:20:00	0.1312	14.102	0.0	0.280633166	0.256671081	0.002544261	0.026248667	0.008090094
2020-08-27T03:25:00	0.1306	14.148	0.0	0.279346386	0.254393289	0.002513968	0.025936139	0.007993770
2020-08-27T03:30:00	0.1304	14.185	0.0	0.279087950	0.253937077	0.002507911	0.025873657	0.007974512
2020-08-27T03:35:00	0.1299	14.210	0.0	0.278006523	0.252032622	0.002482668	0.025613233	0.007894247
2020-08-27T03:40:00	0.1297	14.233	0.0	0.277542237	0.251217248	0.002471881	0.025501936	0.007859944
2020-08-27T03:45:00	0.1306	14.240	110.0	0.279341190	0.254384113	0.002513846	0.025934882	0.007993383
2020-08-27T03:50:00	0.1305	14.245	65.0	0.279288465	0.254291006	0.002512609	0.025922128	0.007989451
2020-08-27T03:55:00	0.1313	14.242	0.0	0.280881132	0.257111217	0.002550124	0.026309164	0.008108740
2020-08-27T04:00:00	0.1316	14.246	0.0	0.281445309	0.258114066	0.002563498	0.026447137	0.008151264
2020-08-27T04:05:00	0.1318	14.253	0.0	0.281947527	0.259008469	0.002575440	0.026570342	0.008189237
2020-08-27T04:10:00	0.1318	14.264	0.0	0.281832934	0.258804249	0.002572712	0.026542197	0.008180563
2020-08-27T04:15:00	0.1329	14.255	0.0	0.284184979	0.263012472	0.002629071	0.027123646	0.008359771
2020-08-27T04:20:00	0.1338	14.247	0.0	0.285919668	0.266138477	0.002671134	0.027557596	0.008493519
2020-08-27T04:25:00	0.1333	14.259	0.0	0.284983349	0.264448823	0.002648378	0.027322825	0.008421160
2020-08-27T04:30:00	0.1331	14.268	0.0	0.284663346	0.263872621	0.002640629	0.027242879	0.008396520
2020-08-27T04:35:00	0.1333	14.269	0.0	0.284959774	0.264406352	0.002647806	0.027316931	0.008419343
2020-08-27T04:40:00	0.1331	14.265	0.0	0.284639769	0.263830195	0.002640058	0.027236995	0.008394706
2020-08-27T04:45:00	0.1346	14.249	12.0	0.287606646	0.269196696	0.002712445	0.027983797	0.008624878
2020-08-27T04:50:00	0.1346	14.243	306.0	0.287697547	0.269361994	0.002714683	0.028006880	0.008631993
2020-08-27T04:55:00	0.1350	14.239	97.0	0.288404486	0.270649300	0.002732123	0.028186808	0.008687448
2020-08-27T05:00:00	0.1350	14.261	106.0	0.288495373	0.270815030	0.002734370	0.028209993	0.008694594
2020-08-27T05:05:00	0.1369	14.225	0.0	0.292486059	0.278143270	0.002834201	0.029239929	0.009012030
2020-08-27T05:10:00	0.1376	14.153	0.0	0.293807789	0.280592544	0.002867766	0.029586208	0.009118757
2020-08-27T05:15:00	0.1373	14.094	54.0	0.293283173	0.279619070	0.002854413	0.029448456	0.009076300
2020-08-27T05:20:00	0.1377	14.085	38.0	0.293989380	0.280929907	0.002872396	0.029633984	0.009133482
2020-08-27T05:25:00	0.1377	14.099	49.0	0.294080173	0.281098662	0.002874714	0.029657890	0.009140850
2020-08-27T05:30:00	0.1376	14.118	47.0	0.293760718	0.280505128	0.002866566	0.029573832	0.009114942
2020-08-27T05:35:00	0.1369	14.135	77.0	0.292415434	0.278012707	0.002832415	0.029221499	0.009006350
2020-08-27T05:40:00	0.1375	14.123	300.0	0.293532046	0.280080661	0.002860743	0.029513754	0.009096426
2020-08-27T05:45:00	0.1369	14.155	329.0	0.292391893	0.277969193	0.002831819	0.029215357	0.009004457
2020-08-27T05:50:00	0.1364	14.166	358.0	0.291456722	0.276243454	0.002808234	0.028972037	0.008929463
2020-08-27T05:55:00	0.1365	14.178	259.0	0.291547557	0.276410837	0.002810520	0.028995614	0.008936730
2020-08-27T06:00:00	0.1364	14.153	203.0	0.291433177	0.276200074	0.002807642	0.028965927	0.008927580
2020-08-27T06:05:00	0.1370	14.146	319.0	0.292549989	0.278261485	0.002835819	0.029256619	0.009017174
2020-08-27T06:10:00	0.1372	14.162	363.0	0.293051136	0.279189056	0.002848520	0.029387658	0.009057562
2020-08-27T06:15:00	0.1368	14.141	299.0	0.292116079	0.277459640	0.002824850	0.029143460	0.008982297
2020-08-27T06:20:00	0.1362	14.163	364.0	0.290975629	0.275357805	0.002796150	0.028847363	0.008891037
2020-08-27T06:25:00	0.1356	14.150	186.0	0.289629655	0.272887740	0.002762515	0.028500361	0.008784088
2020-08-27T06:30:00	0.1364	14.157	272.0	0.291362539	0.276069955	0.002805866	0.028947602	0.008921932
2020-08-27T06:35:00	0.1369	14.159	119.0	0.292479366	0.278130895	0.002834032	0.029238182	0.009011492
2020-08-27T06:40:00	0.1385	14.122	107.0	0.295646957	0.284018998	0.002914886	0.030072346	0.009268589
2020-08-27T06:45:00	0.1379	14.071	65.0	0.294507238	0.281893137	0.002885629	0.029770500	0.009175557
2020-08-27T06:50:00	0.1382	14.016	123.0	0.295008208	0.282826562	0.002898466	0.029902941	0.009216377
2020-08-27T06:55:00	0.1374	14.031	108.0	0.293458090	0.279943451	0.002858861	0.029494340	0.009090442
2020-08-27T07:00:00	0.1374	14.132	68.0	0.293343749	0.279731385	0.002855953	0.029464341	0.009081196
2020-08-27T07:05:00	0.1377	14.242	96.0	0.294049947	0.281042477	0.002873942	0.029649931	0.009138397
2020-08-27T07:10:00	0.1385	14.301	76.0	0.295576373	0.283887103	0.002913069	0.030053597	0.009262810
2020-08-27T07:15:00	0.1383	14.349	265.0	0.295257003	0.283290715	0.002904855	0.029968853	0.009236692
2020-08-27T07:20:00	0.1385	14.373	274.0	0.295757906	0.284226383	0.002917745	0.030101833	0.009277677
2020-08-27T07:25:00	0.1394	14.380	101.0	0.297488867	0.287471936	0.002962565	0.030564238	0.009420195
2020-08-27T07:30:00	0.1400	14.341	157.0	0.298809423	0.289960683	0.002997050	0.030920010	0.009529847
2020-08-27T07:35:00	0.1405	14.281	244.0	0.299719861	0.291682916	0.003020972	0.031166808	0.009605913
2020-08-27T07:40:00	0.1412	14.197	215.0	0.301244777	0.294579240	0.003061309	0.031582958	0.009734174
2020-08-27T07:45:00	0.1393	14.141	123.0	0.297236826	0.286998183	0.002956012	0.030496631	0.009399358
2020-08-27T07:50:00	0.1382	14.228	142.0	0.295072109	0.282945739	0.002900106	0.029919861	0.009221592
2020-08-27T07:55:00	0.1384	14.380	153.0	0.295367960	0.283497842	0.002907707	0.029998278	0.009245761
2020-08-27T08:00:00	0.1389	14.531	225.0	0.296483980	0.285585472	0.002936493	0.030295253	0.009337291
2020-08-27T08:05:00	0.1403	14.610	102.0	0.299444405	0.291161298	0.003013721	0.031092007	0.009582859
2020-08-27T08:10:00	0.1418	14.639	77.0	0.302403327	0.296789513	0.003092181	0.031901461	0.009832340
2020-08-27T08:15:00	0.1430	14.637	171.0	0.304951327	0.301680350	0.003160768	0.032609066	0.010050431
2020-08-27T08:20:00	0.1434	14.634	354.0	0.305656121	0.303040417	0.003179908	0.032806528	0.010111290
2020-08-27T08:25:00	0.1430	14.638	368.0	0.304927836	0.301635074	0.003160132	0.032602497	0.010048406
2020-08-27T08:30:00	0.1425	14.609	259.0	0.303789928	0.299445989	0.003129388	0.032285317	0.009950648
2020-08-27T08:35:00	0.1417	14.582	228.0	0.302242162	0.296481537	0.003087875	0.031857033	0.009818647
2020-08-27T08:40:00	0.1421	14.575	130.0	0.302947270	0.297830165	0.003106743	0.032051697	0.009878644
2020-08-27T08:45:00	0.1417	14.599	88.0	0.302218661	0.296436642	0.003087247	0.031850558	0.009816651
2020-08-27T08:50:00	0.1426	14.621	107.0	0.304152479	0.300142570	0.003139163	0.032386162	0.009981730
2020-08-27T08:55:00	0.1423	14.654	113.0	0.303424015	0.298743789	0.003119542	0.032183739	0.009919341
2020-08-27T09:00:00	0.1414	14.843	72.0	0.301671310	0.295391993	0.003072652	0.031699984	0.009770243
2020-08-27T09:05:00	0.1426	14.942	154.0	0.304014855	0.299878051	0.003135450	0.032347858	0.009969924
2020-08-27T09:10:00	0.1430	15.049	0.0	0.304924497	0.301628638	0.003160041	0.032601564	0.010048119
2020-08-27T09:15:00	0.1417	15.047	149.0	0.302148157	0.296301975	0.003085365	0.031831137	0.009810666
2020-08-27T09:20:00	0.1407	15.072	180.0	0.300190181	0.292574647	0.003033377	0.031294786	0.009645357
2020-08-27T09:25:00	0.1390	15.177	188.0	0.296591569	0.285787143	0.002939277	0.030323980	0.009346145
2020-08-27T09:30:00	0.1380	15.292	150.0	0.294631707	0.282124903	0.002888815	0.029803371	0.009185688
2020-08-27T09:35:00	0.1381	15.425	151.0	0.294927581	0.282676228	0.002896398	0.029881601	0.009209800
2020-08-27T09:40:00	0.1390	15.424	129.0	0.296658796	0.285913195	0.002941018	0.030341939	0.009351680
2020-08-27T09:45:00	0.1386	15.426	143.0	0.295929400	0.284547092	0.002922166	0.030147447	0.009291736
2020-08-27T09:50:00	0.1376	15.542	87.0	0.293764180	0.280511556	0.002866654	0.029574742	0.009115223
2020-08-27T09:55:00	0.1377	15.657	142.0	0.294060100	0.281061349	0.002874201	0.029652604	0.009139221
2020-08-27T10:00:00	0.1387	15.784	147.0	0.295996635	0.284672878	0.002923900	0.030165342	0.009297251
2020-08-27T10:05:00	0.1400	15.858	108.0	0.298746864	0.289842534	0.002995410	0.030903097	0.009524635
2020-08-27T10:10:00	0.1404	15.846	158.0	0.299651811	0.291554008	0.003019179	0.031148318	0.009600214
2020-08-27T10:15:00	0.1401	15.754	206.0	0.298917293	0.290164463	0.002999878	0.030949186	0.009538840
2020-08-27T10:20:00	0.1403	15.793	96.0	0.299412374	0.291100674	0.003012879	0.031083317	0.009580180
2020-08-27T10:25:00	0.1398	15.800	123.0	0.298267907	0.288938800	0.002982878	0.030773805	0.009484786
2020-08-27T10:30:00	0.1406	15.817	261.0	0.299992612	0.292199884	0.003028162	0.031240985	0.009628775
2020-08-27T10:35:00	0.1415	15.806	142.0	0.301716809	0.295478757	0.003073863	0.031712483	0.009774095
2020-08-27T10:40:00	0.1406	15.841	77.0	0.299958101	0.292134447	0.003027251	0.031231594	0.009625880
2020-08-27T10:45:00	0.1393	15.828	107.0	0.297378927	0.287265236	0.002959706	0.030534737	0.009411102
2020-08-27T10:50:00	0.1388	15.833	57.0	0.296234054	0.285117278	0.002930031	0.030228586	0.009316744
2020-08-27T10:55:00	0.1383	15.868	99.0	0.295294028	0.283359821	0.002905806	0.029978670	0.009239717
2020-08-27T11:00:00	0.1388	15.937	150.0	0.296199521	0.285052616	0.002929138	0.030219382	0.009313907
2020-08-27T11:05:00	0.1384	15.978	131.0	0.295464561	0.283678233	0.002910192	0.030023910	0.009253661
2020-08-27T11:10:00	0.1367	16.026	0.0	0.292062625	0.277360941	0.002823501	0.029129538	0.008978007
2020-08-27T11:15:00	0.1358	16.128	139.0	0.290095640	0.273741601	0.002774131	0.028620195	0.008821022
2020-08-27T11:20:00	0.1364	16.142	144.0	0.291412443	0.276161879	0.002807121	0.028960548	0.008925922
2020-08-27T11:25:00	0.1378	16.197	206.0	0.294164924	0.281256234	0.002876878	0.029680216	0.009147731
2020-08-27T11:30:00	0.1369	16.255	173.0	0.292403884	0.277991358	0.002832122	0.029218485	0.009005421
2020-08-27T11:35:00	0.1385	16.180	116.0	0.295566014	0.283867749	0.002912802	0.030050845	0.009261962
2020-08-27T11:40:00	0.1388	16.083	175.0	0.296266428	0.285177902	0.002930867	0.030237216	0.009319404
2020-08-27T11:45:00	0.1380	16.093	194.0	0.294711153	0.282272888	0.002890850	0.029824364	0.009192159
2020-08-27T11:50:00	0.1380	16.147	110.0	0.294591332	0.282049714	0.002887781	0.029792706	0.009182401
2020-08-27T11:55:00	0.1391	16.252	119.0	0.296932226	0.286426172	0.002948105	0.030415052	0.009374214
2020-08-27T12:00:00	0.1390	16.358	165.0	0.296607429	0.285816879	0.002939688	0.030328216	0.009347451
2020-08-27T12:05:00	0.1389	16.456	106.0	0.296487649	0.285592348	0.002936588	0.030296232	0.009337593
2020-08-27T12:10:00	0.1402	16.477	209.0	0.299237642	0.290770074	0.003008286	0.031035935	0.009565577
2020-08-27T12:15:00	0.1408	16.483	205.0	0.300347410	0.292873066	0.003037531	0.031337644	0.009658566
2020-08-27T12:20:00	0.1420	16.465	186.0	0.302890786	0.297722014	0.003105229	0.032036075	0.009873829
2020-08-27T12:25:00	0.1433	16.375	223.0	0.305433086	0.302609679	0.003173844	0.032743958	0.010092006
2020-08-27T12:30:00	0.1434	16.327	222.0	0.305722920	0.303169486	0.003181726	0.032825282	0.010117071
2020-08-27T12:35:00	0.1424	16.314	258.0	0.303760611	0.299389698	0.003128598	0.032277171	0.009948138
2020-08-27T12:40:00	0.1427	16.282	200.0	0.304255289	0.300340253	0.003141938	0.032414795	0.009990555
2020-08-27T12:45:00	0.1417	16.322	222.0	0.302292505	0.296577722	0.003089219	0.031870907	0.009822923
2020-08-27T12:50:00	0.1405	16.406	140.0	0.299714360	0.291672495	0.003020827	0.031165313	0.009605452
2020-08-27T12:55:00	0.1398	16.457	50.0	0.298364992	0.289121872	0.002985416	0.030799985	0.009492854
2020-08-27T13:00:00	0.1404	16.513	0.0	0.299474927	0.291219072	0.003014524	0.031100290	0.009585411
2020-08-27T13:05:00	0.1420	16.472	0.0	0.302837966	0.297620898	0.003103813	0.032021471	0.009869328
2020-08-27T13:10:00	0.1415	16.407	0.0	0.301899008	0.295826337	0.003078718	0.031762568	0.009789532
2020-08-27T13:15:00	0.1410	16.371	0.0	0.300755026	0.293647441	0.003048317	0.031448924	0.009692864
2020-08-27T13:20:00	0.1407	16.389	0.0	0.300225549	0.292641762	0.003034311	0.031304424	0.009648327
2020-08-27T13:25:00	0.1400	16.473	0.0	0.298671350	0.289699953	0.002993432	0.030882689	0.009518345
2020-08-27T13:30:00	0.1418	16.549	0.0	0.302444505	0.296868228	0.003093282	0.031912819	0.009835841
2020-08-27T13:35:00	0.1409	16.560	0.0	0.300686013	0.293516258	0.003046489	0.031430066	0.009687052
2020-08-27T13:40:00	0.1408	16.560	0.0	0.300361427	0.292899677	0.003037901	0.031341466	0.009659744
2020-08-27T13:45:00	0.1419	16.583	0.0	0.302699987	0.297356841	0.003100118	0.031983342	0.009857577
2020-08-27T13:50:00	0.1416	16.548	0.0	0.301965849	0.295953902	0.003080500	0.031780954	0.009795199
2020-08-27T13:55:00	0.1416	16.475	0.0	0.302051018	0.296116485	0.003082772	0.031804392	0.009802423
2020-08-27T14:00:00	0.1420	16.458	0.0	0.302750651	0.297453785	0.003101474	0.031997339	0.009861891
2020-08-27T14:05:00	0.1414	16.415	0.0	0.301606832	0.295269057	0.003070936	0.031682276	0.009764785
2020-08-27T14:10:00	0.1420	16.391	0.0	0.302920965	0.297779795	0.003106038	0.032044421	0.009876402
2020-08-27T14:15:00	0.1425	16.369	0.0	0.303825275	0.299513865	0.003130340	0.032295140	0.009953676
2020-08-27T14:20:00	0.1418	16.363	0.0	0.302476844	0.296930054	0.003094147	0.031921740	0.009838590
2020-08-27T14:25:00	0.1420	16.341	0.0	0.302766819	0.297484727	0.003101907	0.032001807	0.009863268
2020-08-27T14:30:00	0.1415	16.304	0.0	0.301827851	0.295690565	0.003076822	0.031743001	0.009783501
2020-08-27T14:35:00	0.1414	16.306	0.0	0.301708178	0.295462297	0.003073634	0.031710112	0.009773364
2020-08-27T14:40:00	0.1406	16.337	0.0	0.299949467	0.292118078	0.003027024	0.031229244	0.009625156
2020-08-27T14:45:00	0.1407	16.345	0.0	0.300239567	0.292668363	0.003034681	0.031308244	0.009649505
2020-08-27T14:50:00	0.1404	16.340	0.0	0.299505123	0.291276236	0.003015319	0.031108486	0.009587937
2020-08-27T14:55:00	0.1396	16.360	0.0	0.297950732	0.288341125	0.002974597	0.030688374	0.009458455
2020-08-27T15:00:00	0.1401	16.386	0.0	0.298855803	0.290048291	0.002998265	0.030932552	0.009533713
2020-08-27T15:05:00	0.1410	16.382	0.0	0.300785216	0.293704837	0.003049117	0.031457176	0.009695407
2020-08-27T15:10:00	0.1417	16.365	0.0	0.302304360	0.296600374	0.003089536	0.031874175	0.009823930
2020-08-27T15:15:00	0.1413	16.359	0.0	0.301365318	0.294808812	0.003064512	0.031616002	0.009744359
2020-08-27T15:20:00	0.1395	16.336	0.0	0.297761932	0.287985658	0.002969675	0.030637591	0.009442803
2020-08-27T15:25:00	0.1398	16.315	0.0	0.298257112	0.288918448	0.002982596	0.030770895	0.009483889
2020-08-27T15:30:00	0.1418	16.262	0.0	0.302440190	0.296859979	0.003093166	0.031911628	0.009835474
2020-08-27T15:35:00	0.1416	16.247	0.0	0.302115700	0.296239991	0.003084498	0.031822200	0.009807911
2020-08-27T15:40:00	0.1407	16.205	0.0	0.300152213	0.292502608	0.003032374	0.031284443	0.009642169
2020-08-27T15:45:00	0.1394	16.194	0.0	0.297573126	0.287630403	0.002964758	0.030586861	0.009427168
2020-08-27T15:50:00	0.1388	16.108	0.0	0.296223255	0.285097056	0.002929752	0.030225708	0.009315857
2020-08-27T15:55:00	0.1381	16.048	0.0	0.294873062	0.282574598	0.002895000	0.029867176	0.009205354
2020-08-27T16:00:00	0.1383	16.005	0.0	0.295163419	0.283116078	0.002902451	0.029944050	0.009229047
2020-08-27T16:05:00	0.1384	15.935	0.0	0.295539025	0.283817327	0.002912108	0.030043679	0.009259754
2020-08-27T16:10:00	0.1392	15.869	0.0	0.297144784	0.286825275	0.002953621	0.030471966	0.009391756
2020-08-27T16:15:00	0.1390	15.781	0.0	0.296700224	0.285990886	0.002942091	0.030353009	0.009355092
2020-08-27T16:20:00	0.1393	15.716	0.0	0.297280734	0.287080686	0.002957153	0.030508402	0.009402986
2020-08-27T16:25:00	0.1389	15.672	0.0	0.296426132	0.285477069	0.002934996	0.030279814	0.009332533
2020-08-27T16:30:00	0.1386	15.623	0.0	0.295776463	0.284261077	0.002918223	0.030106767	0.009279198
2020-08-27T16:35:00	0.1387	15.557	0.0	0.296152028	0.284963701	0.002927912	0.030206726	0.009310006
2020-08-27T16:40:00	0.1393	15.476	0.0	0.297347628	0.287206404	0.002958892	0.030526341	0.009408515
2020-08-27T16:45:00	0.1396	15.414	0.0	0.297928072	0.288298451	0.002974006	0.030682276	0.009456575
2020-08-27T16:50:00	0.1400	15.332	0.0	0.298713413	0.289779370	0.002994534	0.030894056	0.009521848
2020-08-27T16:55:00	0.1407	15.232	0.0	0.300113387	0.292428949	0.003031349	0.031273867	0.009638910
2020-08-27T17:00:00	0.1407	15.144	0.0	0.300078877	0.292363487	0.003030438	0.031264469	0.009636013
2020-08-27T17:05:00	0.1404	15.091	0.0	0.299634542	0.291521301	0.003018725	0.031143627	0.009598768
2020-08-27T17:10:00	0.1398	15.028	0.0	0.298370378	0.289132029	0.002985557	0.030801438	0.009493302
2020-08-27T17:15:00	0.1395	14.950	0.0	0.297720930	0.287908490	0.002968607	0.030626570	0.009439406
2020-08-27T17:20:00	0.1388	14.877	0.0	0.296251309	0.285149589	0.002930477	0.030233186	0.009318162
2020-08-27T17:25:00	0.1393	14.806	0.0	0.297241888	0.287007694	0.002956144	0.030497988	0.009399776
2020-08-27T17:30:00	0.1401	14.723	0.0	0.298847168	0.290031978	0.002998039	0.030930217	0.009532993
2020-08-27T17:35:00	0.1406	14.635	0.0	0.300042208	0.292293938	0.003029470	0.031254486	0.009632936
2020-08-27T17:40:00	0.1411	14.555	0.0	0.301032138	0.294174487	0.003055664	0.031524719	0.009716225
2020-08-27T17:45:00	0.1415	14.455	0.0	0.301817062	0.295669983	0.003076534	0.031740035	0.009782587
2020-08-27T17:50:00	0.1423	14.330	0.0	0.303421092	0.298738184	0.003119463	0.032182928	0.009919091
2020-08-27T17:55:00	0.1425	14.186	0.0	0.303796167	0.299457969	0.003129556	0.032287051	0.009951183
2020-08-27T18:00:00	0.1423	14.061	0.0	0.303352110	0.298605900	0.003117609	0.032163802	0.009913196
2020-08-27T18:05:00	0.1426	13.931	0.0	0.304136731	0.300112297	0.003138738	0.032381778	0.009980378
2020-08-27T18:10:00	0.1423	13.793	0.0	0.303487917	0.298866358	0.003121260	0.032201464	0.009924804
2020-08-27T18:15:00	0.1436	13.640	0.0	0.306115080	0.303927772	0.003192411	0.032935519	0.010151047
2020-08-27T18:20:00	0.1434	13.510	0.0	0.305671192	0.303069534	0.003180318	0.032810758	0.010112594
2020-08-27T18:25:00	0.1431	13.373	0.0	0.305022541	0.301817631	0.003162699	0.032628983	0.010056570
2020-08-27T18:30:00	0.1437	13.239	0.0	0.306421042	0.304520059	0.003200764	0.033021688	0.010177605
2020-08-27T18:35:00	0.1430	13.097	0.0	0.304953576	0.301684686	0.003160829	0.032609695	0.010050625
2020-08-27T18:40:00	0.1437	12.974	0.0	0.306352093	0.304386535	0.003198880	0.033002258	0.010171616
2020-08-27T18:45:00	0.1443	12.856	0.0	0.307545647	0.306702164	0.003231582	0.033339638	0.010275600
2020-08-27T18:50:00	0.1446	12.747	0.0	0.308125106	0.307829620	0.003247534	0.033504215	0.010326324
2020-08-27T18:55:00	0.1453	12.617	0.0	0.309522914	0.310558056	0.003286220	0.033903327	0.010449335
2020-08-27T19:00:00	0.1452	12.507	0.0	0.309488457	0.310490650	0.003285263	0.033893452	0.010446291
2020-08-27T19:05:00	0.1457	12.395	0.0	0.310476865	0.312427186	0.003312788	0.034177421	0.010533813
2020-08-27T19:10:00	0.1461	12.269	0.0	0.311260593	0.313967083	0.003334716	0.034403650	0.010603539
2020-08-27T19:15:00	0.1454	12.139	0.0	0.309794254	0.311089125	0.003293763	0.033981148	0.010473320
2020-08-27T19:20:00	0.1446	12.047	0.0	0.308122951	0.307825422	0.003247475	0.033503602	0.010326135
2020-08-27T19:25:00	0.1453	11.959	0.0	0.309520759	0.310553840	0.003286160	0.033902709	0.010449144
2020-08-27T19:30:00	0.1450	11.851	0.0	0.309077112	0.309686539	0.003273851	0.033775714	0.010410003
2020-08-27T19:35:00	0.1452	11.760	0.0	0.309451844	0.310419035	0.003284246	0.033882962	0.010443058
2020-08-27T19:40:00	0.1458	11.685	0.0	0.310644813	0.312756850	0.003317479	0.034225821	0.010548731
2020-08-27T19:45:00	0.1460	11.600	0.0	0.311019454	0.313492872	0.003327959	0.034333943	0.010582055
2020-08-27T19:50:00	0.1462	11.508	0.0	0.311394074	0.314229737	0.003338460	0.034442274	0.010615443
2020-08-27T19:55:00	0.1457	11.413	0.0	0.310336901	0.312152588	0.003308881	0.034137119	0.010521392
2020-08-27T20:00:00	0.1453	11.308	0.0	0.309688732	0.310882541	0.003290828	0.033950870	0.010463988
2020-08-27T20:05:00	0.1455	11.205	0.0	0.310063429	0.311616412	0.003301257	0.034058459	0.010497148
2020-08-27T20:10:00	0.1464	11.121	0.0	0.311869852	0.315166853	0.003351826	0.034580169	0.010657944
2020-08-27T20:15:00	0.1461	11.049	0.0	0.311221836	0.313890841	0.003333629	0.034392441	0.010600084
2020-08-27T20:20:00	0.1464	10.973	0.0	0.311800962	0.315031076	0.003349888	0.034560181	0.010651783
2020-08-27T20:25:00	0.1464	10.926	0.0	0.311766517	0.314963199	0.003348920	0.034550190	0.010648704
2020-08-27T20:30:00	0.1464	10.853	0.0	0.311936586	0.315298410	0.003353703	0.034599538	0.010663914
2020-08-27T20:35:00	0.1470	10.821	0.0	0.313129098	0.317654017	0.003387365	0.034946816	0.010770948
2020-08-27T20:40:00	0.1463	10.778	0.0	0.311663181	0.314759609	0.003346016	0.034520227	0.010639469
2020-08-27T20:45:00	0.1471	10.730	0.0	0.313264694	0.317922433	0.003391206	0.034986443	0.010783161
2020-08-27T20:50:00	0.1478	10.689	0.0	0.314661396	0.320693982	0.003430929	0.035396265	0.010909472
2020-08-27T20:55:00	0.1478	10.622	0.0	0.314626966	0.320625513	0.003429947	0.035386126	0.010906348
2020-08-27T21:00:00	0.1469	10.563	0.0	0.312956906	0.317313327	0.003382491	0.034896536	0.010755451
2020-08-27T21:05:00	0.1454	10.489	0.0	0.309854546	0.311207190	0.003295441	0.033998455	0.010478654
2020-08-27T21:10:00	0.1454	10.434	0.0	0.309820090	0.311139715	0.003294482	0.033988564	0.010475605
2020-08-27T21:15:00	0.1457	10.414	0.0	0.310399342	0.312275077	0.003310624	0.034155095	0.010526932
2020-08-27T21:20:00	0.1471	10.350	0.0	0.313228103	0.317849989	0.003390169	0.034975747	0.010779865
2020-08-27T21:25:00	0.1462	10.286	0.0	0.311353164	0.314149224	0.003337312	0.034430434	0.010611794
2020-08-27T21:30:00	0.1478	10.244	0.0	0.314794807	0.320959362	0.003434739	0.035435568	0.010921586
2020-08-27T21:35:00	0.1478	10.204	0.0	0.314760378	0.320890865	0.003433755	0.035425422	0.010918459
2020-08-27T21:40:00	0.1462	10.151	0.0	0.311454350	0.314348381	0.003340151	0.034459725	0.010620822
2020-08-27T21:45:00	0.1448	10.111	0.0	0.308555888	0.308669166	0.003259426	0.033626896	0.010364136
2020-08-27T21:50:00	0.1452	10.094	0.0	0.309339851	0.310200027	0.003281137	0.033850887	0.010433172
2020-08-27T21:55:00	0.1448	10.091	0.0	0.308486963	0.308534761	0.003257521	0.033607248	0.010358080
2020-08-27T22:00:00	0.1445	10.071	0.0	0.308043243	0.307670211	0.003245278	0.033480933	0.010319149
2020-08-27T22:05:00	0.1456	10.067	0.0	0.310223093	0.311929396	0.003305707	0.034104370	0.010511298
2020-08-27T22:10:00	0.1455	10.044	0.0	0.309947785	0.311389821	0.003298036	0.034025231	0.010486907
2020-08-27T22:15:00	0.1458	10.027	0.0	0.310695296	0.312855978	0.003318890	0.034240378	0.010553217
2020-08-27T22:20:00	0.1461	10.019	0.0	0.311238192	0.313923014	0.003334088	0.034397171	0.010601542
2020-08-27T22:25:00	0.1457	10.044	0.0	0.310349274	0.312176856	0.003309227	0.034140680	0.010522489
2020-08-27T22:30:00	0.1452	10.060	0.0	0.309460233	0.310435443	0.003284479	0.033885366	0.010443799
2020-08-27T22:35:00	0.1465	10.088	0.0	0.312048627	0.315519347	0.003356857	0.034632073	0.010673941
2020-08-27T22:40:00	0.1473	10.094	0.0	0.313613782	0.318613992	0.003401107	0.035088590	0.010814644
2020-08-27T22:45:00	0.1473	10.121	0.0	0.313747539	0.318879175	0.003404905	0.035127779	0.010826723
2020-08-27T22:50:00	0.1476	10.188	0.0	0.314290181	0.319956160	0.003420343	0.035287048	0.010875811
2020-08-27T22:55:00	0.1467	10.208	0.0	0.312379273	0.316171816	0.003366174	0.034728200	0.010703568
2020-08-27T23:00:00	0.1464	10.246	0.0	0.311899548	0.315225390	0.003352661	0.034588787	0.010660600
2020-08-27T23:05:00	0.1469	10.232	0.0	0.312851319	0.317104511	0.003379505	0.034865727	0.010745956
2020-08-27T23:10:00	0.1476	10.244	0.0	0.314211846	0.319800574	0.003418112	0.035264028	0.010868716
2020-08-27T23:15:00	0.1485	10.242	0.0	0.316185263	0.323731910	0.003474603	0.035846842	0.011048345
2020-08-27T23:20:00	0.1487	10.207	0.0	0.316523341	0.324407877	0.003484340	0.035947293	0.011079305
2020-08-27T23:25:00	0.1479	10.181	0.0	0.314817498	0.321004508	0.003435387	0.035442256	0.010923647
2020-08-27T23:30:00	0.1482	10.139	0.0	0.315564455	0.322492521	0.003456769	0.035662847	0.010991636
2020-08-27T23:35:00	0.1483	10.084	0.0	0.315698173	0.322759272	0.003460605	0.035702428	0.011003835
2020-08-27T23:40:00	0.1489	10.042	0.0	0.316853765	0.325069235	0.003493873	0.036045642	0.011109617
2020-08-27T23:45:00	0.1494	9.948	0.0	0.318476144	0.327385632	0.003530771	0.036426312	0.011226943
2020-08-27T23:50:00	0.1507	9.873	0.0	0.322200627	0.332584993	0.003614755	0.037292762	0.011493991
2020-08-27T23:55:00	0.1505	9.787	0.0	0.321805016	0.332031036	0.003605780	0.037200165	0.011465452
2020-08-28T00:00:00	0.1508	9.724	0.0	0.322585140	0.333123793	0.003623491	0.037382890	0.011521770
2020-08-28T00:05:00	0.1503	9.679	0.0	0.321013442	0.330923834	0.003587860	0.037015291	0.011408472
2020-08-28T00:10:00	0.1502	9.627	0.0	0.320911713	0.330781659	0.003585561	0.036991571	0.011401162
2020-08-28T00:15:00	0.1498	9.577	0.0	0.319632563	0.328996190	0.003556724	0.036694068	0.011309468
2020-08-28T00:20:00	0.1490	9.513	0.0	0.317172602	0.325574268	0.003501648	0.036125857	0.011134340
2020-08-28T00:25:00	0.1486	9.459	0.0	0.316422116	0.324205408	0.003481423	0.035917198	0.011070029
2020-08-28T00:30:00	0.1485	9.408	0.0	0.316147067	0.323655586	0.003473504	0.035835505	0.011044851
2020-08-28T00:35:00	0.1487	9.340	0.0	0.316485148	0.324331475	0.003483239	0.035935936	0.011075805
2020-08-28T00:40:00	0.1491	9.303	0.0	0.317649525	0.326236483	0.003512287	0.036235616	0.011168169
2020-08-28T00:45:00	0.1503	9.265	0.0	0.321082178	0.331019914	0.003589414	0.037031324	0.011413414
2020-08-28T00:50:00	0.1507	9.227	0.0	0.322156684	0.332523441	0.003613757	0.037282470	0.011490819
2020-08-28T00:55:00	0.1505	9.197	0.0	0.321761059	0.331969510	0.003604783	0.037189885	0.011462284
2020-08-28T01:00:00	0.1499	9.187	0.0	0.319894000	0.329360770	0.003562607	0.036754759	0.011328174
2020-08-28T01:05:00	0.1495	9.222	0.0	0.318613875	0.327577272	0.003533856	0.036458142	0.011236753
2020-08-28T01:10:00	0.1496	9.282	0.0	0.319101294	0.328255861	0.003544787	0.036570917	0.011271512
2020-08-28T01:15:00	0.1498	9.373	0.0	0.319588535	0.328934809	0.003555734	0.036683853	0.011306320
2020-08-28T01:20:00	0.1497	9.476	0.0	0.319192150	0.328382419	0.003546827	0.036591960	0.011277998
2020-08-28T01:25:00	0.1489	9.580	0.0	0.317026467	0.325371473	0.003498392	0.036092265	0.011123986
2020-08-28T01:30:00	0.1483	9.682	0.0	0.315707734	0.322778350	0.003460880	0.035705259	0.011004708
2020-08-28T01:35:00	0.1490	9.799	0.0	0.317117465	0.325497747	0.003500419	0.036113181	0.011130433
2020-08-28T01:40:00	0.1495	9.898	0.0	0.318784634	0.327814935	0.003537683	0.036497627	0.011248923
2020-08-28T01:45:00	0.1497	9.991	0.0	0.319271990	0.328493649	0.003548620	0.036610459	0.011283699
2020-08-28T01:50:00	0.1501	10.077	0.0	0.320347950	0.329994228	0.003572835	0.036860279	0.011360696
2020-08-28T01:55:00	0.1493	10.148	0.0	0.318184144	0.326979501	0.003524235	0.036358883	0.011206161
2020-08-28T02:00:00	0.1482	10.227	0.0	0.315488057	0.322340167	0.003454578	0.035640246	0.010984670
2020-08-28T02:05:00	0.1480	10.294	0.0	0.315212970	0.321791889	0.003446697	0.035558939	0.010959610
2020-08-28T02:10:00	0.1477	10.372	0.0	0.314529023	0.320430780	0.003427152	0.035357294	0.010897461
2020-08-28T02:15:00	0.1486	10.437	0.0	0.316297973	0.323957187	0.003477847	0.035880311	0.011058660
2020-08-28T02:20:00	0.1482	10.487	0.0	0.315614137	0.322591617	0.003458194	0.035677550	0.010996167
2020-08-28T02:25:00	0.1480	10.533	0.0	0.315134646	0.321635869	0.003444455	0.035535810	0.010952482
2020-08-28T02:30:00	0.1476	10.572	0.0	0.314246255	0.319868912	0.003419092	0.035274139	0.010871832
2020-08-28T02:35:00	0.1477	10.619	0.0	0.314584431	0.320540937	0.003428733	0.035373603	0.010902488
2020-08-28T02:40:00	0.1478	10.663	0.0	0.314718169	0.320806900	0.003432550	0.035412987	0.010914626
2020-08-28T02:45:00	0.1474	10.723	0.0	0.313829723	0.319042167	0.003407240	0.035151871	0.010834148
2020-08-28T02:50:00	0.1473	10.763	0.0	0.313759024	0.318901952	0.003405231	0.035131145	0.010827760
2020-08-28T02:55:00	0.1474	10.781	0.0	0.313892779	0.319167251	0.003409033	0.035170363	0.010839847
2020-08-28T03:00:00	0.1470	10.804	0.0	0.313004222	0.317406925	0.003383830	0.034910348	0.010759708
2020-08-28T03:05:00	0.1461	10.827	0.0	0.311297473	0.314039641	0.003335750	0.034414319	0.010606827
2020-08-28T03:10:00	0.1464	10.842	0.0	0.311840318	0.315108640	0.003350995	0.034571599	0.010655303
2020-08-28T03:15:00	0.1464	10.864	0.0	0.311769598	0.314969269	0.003349007	0.034551083	0.010648979
2020-08-28T03:20:00	0.1454	10.902	0.0	0.309857952	0.311213861	0.003295536	0.033999433	0.010478955
2020-08-28T03:25:00	0.1448	10.936	0.0	0.308559619	0.308676443	0.003259529	0.033627960	0.010364464
2020-08-28T03:30:00	0.1452	10.972	0.0	0.309307293	0.310136373	0.003280234	0.033841566	0.010430299
2020-08-28T03:35:00	0.1469	11.041	0.0	0.312918229	0.317236828	0.003381397	0.034885248	0.010751972
2020-08-28T03:40:00	0.1473	11.129	0.0	0.313665400	0.318716315	0.003402572	0.035103710	0.010819304
2020-08-28T03:45:00	0.1479	11.207	0.0	0.314821341	0.321012156	0.003435497	0.035443388	0.010923997
2020-08-28T03:50:00	0.1476	11.277	0.0	0.314341794	0.320058693	0.003421814	0.035302221	0.010880487
2020-08-28T03:55:00	0.1479	11.335	0.0	0.314884388	0.321137616	0.003437298	0.035461974	0.010929725
2020-08-28T04:00:00	0.1466	11.389	0.0	0.312155686	0.315730533	0.003359872	0.034663179	0.010683529
2020-08-28T04:05:00	0.1474	11.463	0.0	0.313930755	0.319242599	0.003410113	0.035181503	0.010843281
2020-08-28T04:10:00	0.1467	11.539	0.0	0.312434236	0.316280343	0.003367725	0.034744195	0.010708498
2020-08-28T04:15:00	0.1460	11.624	0.0	0.310937374	0.313331541	0.003325661	0.034310236	0.010574748
2020-08-28T04:20:00	0.1451	11.698	0.0	0.309235572	0.309996176	0.003278244	0.033821039	0.010423973
2020-08-28T04:25:00	0.1462	11.763	0.0	0.311420506	0.314281760	0.003339201	0.034449926	0.010617802
2020-08-28T04:30:00	0.1461	11.833	0.0	0.311150739	0.313751005	0.003331637	0.034371883	0.010593748
2020-08-28T04:35:00	0.1458	11.909	0.0	0.310676415	0.312818900	0.003318362	0.034234933	0.010551539
2020-08-28T04:40:00	0.1465	12.000	0.0	0.312042883	0.315508017	0.003356695	0.034630405	0.010673427
2020-08-28T04:45:00	0.1464	12.077	0.0	0.311773142	0.314976253	0.003349106	0.034552111	0.010649296
2020-08-28T04:50:00	0.1453	12.141	0.0	0.309662409	0.310831018	0.003290097	0.033943320	0.010461661
2020-08-28T04:55:00	0.1451	12.206	0.0	0.309187974	0.309903152	0.003276924	0.033807420	0.010419775
2020-08-28T05:00:00	0.1456	12.276	0.0	0.310145636	0.311777540	0.003303548	0.034082093	0.010504432
2020-08-28T05:05:00	0.1443	12.336	0.0	0.307625082	0.306856597	0.003233766	0.033362168	0.010282544
2020-08-28T05:10:00	0.1411	12.385	0.0	0.301007495	0.294127598	0.003055010	0.031517974	0.009714146
2020-08-28T05:15:00	0.1406	12.444	0.0	0.299917695	0.292057841	0.003026186	0.031220600	0.009622492
2020-08-28T05:20:00	0.1409	12.515	0.0	0.300671927	0.293489487	0.003046116	0.031426218	0.009685866
2020-08-28T05:25:00	0.1415	12.557	0.0	0.301835762	0.295705659	0.003077032	0.031745176	0.009784172
2020-08-28T05:30:00	0.1415	12.599	0.0	0.301770427	0.295581023	0.003075292	0.031727217	0.009778636
2020-08-28T05:35:00	0.1404	12.654	0.0	0.299656267	0.291562449	0.003019297	0.031149528	0.009600587
2020-08-28T05:40:00	0.1404	12.723	0.0	0.299590908	0.291438664	0.003017576	0.031131776	0.009595116
2020-08-28T05:45:00	0.1406	12.818	0.0	0.299935380	0.292091369	0.003026652	0.031225411	0.009623975
2020-08-28T05:50:00	0.1390	12.900	0.0	0.296590524	0.285785184	0.002939250	0.030323701	0.009346059
2020-08-28T05:55:00	0.1384	12.978	0.0	0.295499888	0.283744218	0.002911101	0.030033288	0.009256551
2020-08-28T06:00:00	0.1392	13.028	0.0	0.297074799	0.286693838	0.002951804	0.030453219	0.009385978
2020-08-28T06:05:00	0.1390	13.098	0.0	0.296599371	0.285801771	0.002939479	0.030326064	0.009346787
2020-08-28T06:10:00	0.1391	13.195	0.0	0.296944022	0.286448313	0.002948411	0.030418209	0.009375187
2020-08-28T06:15:00	0.1392	13.311	0.0	0.297083646	0.286710452	0.002952034	0.030455589	0.009386708
2020-08-28T06:20:00	0.1406	13.403	0.0	0.299887709	0.292000998	0.003025395	0.031212443	0.009619978
2020-08-28T06:25:00	0.1429	13.479	0.0	0.304738215	0.301269717	0.003154995	0.032549506	0.010032074
2020-08-28T06:30:00	0.1460	13.544	0.0	0.311016813	0.313487681	0.003327885	0.034333180	0.010581820
2020-08-28T06:35:00	0.1483	13.577	0.0	0.315654349	0.322671837	0.003459348	0.035689453	0.010999836
2020-08-28T06:40:00	0.1509	13.559	0.0	0.322936404	0.333616334	0.003631482	0.037465335	0.011547180
2020-08-28T06:45:00	0.1520	13.502	0.0	0.326070394	0.338024820	0.003703237	0.038205611	0.011775340
2020-08-28T06:50:00	0.1512	13.387	0.0	0.323630111	0.334589977	0.003647295	0.037628467	0.011597459
2020-08-28T06:55:00	0.1549	13.304	0.0	0.334648563	0.350220814	0.003903851	0.040275311	0.012413242
2020-08-28T07:00:00	0.1568	13.212	0.0	0.340078433	0.358039133	0.004034055	0.041618607	0.012827259
2020-08-28T07:05:00	0.1590	13.131	0.0	0.346353766	0.367170393	0.004187674	0.043203465	0.013315727
2020-08-28T07:10:00	0.1592	13.047	0.0	0.347127813	0.368303836	0.004206858	0.043401376	0.013376726
2020-08-28T07:15:00	0.1595	12.972	0.0	0.347901434	0.369438223	0.004226082	0.043599712	0.013437855
2020-08-28T07:20:00	0.1587	12.892	0.0	0.345499599	0.365921447	0.004166565	0.042985687	0.013248606
2020-08-28T07:25:00	0.1580	12.849	0.0	0.343672446	0.363256223	0.004121622	0.042522016	0.013105698
2020-08-28T07:30:00	0.1597	12.793	0.0	0.348490703	0.370303340	0.004240760	0.043751143	0.013484527
2020-08-28T07:35:00	0.1587	12.792	0.0	0.345512068	0.365939666	0.004166873	0.042988862	0.013249585
2020-08-28T07:40:00	0.1586	12.847	0.0	0.345419901	0.365805012	0.004164599	0.042965401	0.013242354
2020-08-28T07:45:00	0.1577	12.874	0.0	0.342724294	0.361876610	0.004098413	0.042282574	0.013031900
2020-08-28T07:50:00	0.1582	12.890	0.0	0.344078989	0.363848482	0.004131597	0.042624927	0.013137416
2020-08-28T07:55:00	0.1570	12.928	0.0	0.340511056	0.358665349	0.004044538	0.041726749	0.012860589
2020-08-28T08:00:00	0.1585	12.956	0.0	0.345051170	0.365266527	0.004155509	0.042871616	0.013213449
2020-08-28T08:05:00	0.1602	12.997	0.0	0.349864707	0.372324076	0.004275102	0.044105443	0.013593726
2020-08-28T08:10:00	0.1543	13.054	0.0	0.332671328	0.347392834	0.003857060	0.039792579	0.012264459
2020-08-28T08:15:00	0.1495	13.110	0.0	0.318799786	0.327836027	0.003538023	0.036501132	0.011250003
2020-08-28T08:20:00	0.1462	13.157	0.0	0.311422428	0.314285545	0.003339255	0.034450483	0.010617973
2020-08-28T08:25:00	0.1472	13.170	154.0	0.313402164	0.318194675	0.003395102	0.035026645	0.010795552
2020-08-28T08:30:00	0.1465	13.235	0.0	0.312110032	0.315640467	0.003358586	0.034649912	0.010679440
2020-08-28T08:35:00	0.1468	13.319	0.0	0.312658299	0.316722961	0.003374050	0.034809450	0.010728611
2020-08-28T08:40:00	0.1470	13.419	0.0	0.313002045	0.317402618	0.003383768	0.034909712	0.010759512
2020-08-28T08:45:00	0.1474	13.549	0.0	0.313959145	0.319298931	0.003410920	0.035189833	0.010845848
2020-08-28T08:50:00	0.1466	13.816	0.0	0.312258134	0.315932691	0.003362759	0.034692962	0.010692708
2020-08-28T08:55:00	0.1464	14.117	0.0	0.311783890	0.314997433	0.003349408	0.034555229	0.010650257
2020-08-28T09:00:00	0.1466	14.302	0.0	0.312332184	0.316078853	0.003364846	0.034714500	0.010699346
2020-08-28T09:05:00	0.1444	14.422	0.0	0.307766381	0.307131397	0.003237653	0.033402270	0.010294904
2020-08-28T09:10:00	0.1441	14.505	0.0	0.307087141	0.305811548	0.003218995	0.033209776	0.010235576
2020-08-28T09:15:00	0.1443	14.660	0.0	0.307635837	0.306877509	0.003234062	0.033365220	0.010283485
2020-08-28T09:20:00	0.1446	14.824	0.0	0.308184486	0.307945276	0.003249172	0.033521109	0.010331531
2020-08-28T09:25:00	0.1449	14.871	0.0	0.308733087	0.309014848	0.003264325	0.033677443	0.010379715
2020-08-28T09:30:00	0.1449	14.915	0.0	0.308872437	0.309286832	0.003268182	0.033717227	0.010391977
2020-08-28T09:35:00	0.1439	14.998	0.0	0.306760742	0.305178348	0.003210053	0.033117526	0.010207143
2020-08-28T09:40:00	0.1442	15.082	0.0	0.307309467	0.306243236	0.003225094	0.033272705	0.010254971
2020-08-28T09:45:00	0.1434	15.174	0.0	0.305606687	0.302944920	0.003178563	0.032792653	0.010107014
2020-08-28T09:50:00	0.1424	15.315	0.0	0.303698660	0.299270764	0.003126930	0.032259962	0.009942834
2020-08-28T09:55:00	0.1424	15.365	0.0	0.303633346	0.299145399	0.003125172	0.032241825	0.009937244
2020-08-28T10:00:00	0.1423	15.419	0.0	0.303363244	0.298627249	0.003117909	0.032166888	0.009914147
2020-08-28T10:05:00	0.1428	15.459	0.0	0.304441423	0.300698323	0.003146967	0.032466675	0.010006545
2020-08-28T10:10:00	0.1419	15.559	0.0	0.302652687	0.297266347	0.003098851	0.031970278	0.009853550
2020-08-28T10:15:00	0.1420	15.624	0.0	0.302911825	0.297762296	0.003105793	0.032041893	0.009875623
2020-08-28T10:20:00	0.1414	15.693	0.0	0.301532354	0.295127086	0.003068954	0.031661829	0.009758483
2020-08-28T10:25:00	0.1408	15.780	0.0	0.300357459	0.292892143	0.003037796	0.031340384	0.009659411
2020-08-28T10:30:00	0.1398	15.842	0.0	0.298362531	0.289117231	0.002985351	0.030799321	0.009492650
2020-08-28T10:35:00	0.1403	15.875	0.0	0.299441620	0.291156026	0.003013648	0.031091251	0.009582626
2020-08-28T10:40:00	0.1405	15.905	0.0	0.299700899	0.291646993	0.003020472	0.031161655	0.009604325
2020-08-28T10:45:00	0.1410	15.885	0.0	0.300779740	0.293694425	0.003048972	0.031455679	0.009694946
2020-08-28T10:50:00	0.1414	15.947	0.0	0.301653538	0.295358104	0.003072179	0.031695102	0.009768738
2020-08-28T10:55:00	0.1416	16.061	0.0	0.302117556	0.296243535	0.003084548	0.031822711	0.009808068
2020-08-28T11:00:00	0.1427	16.198	0.0	0.304219851	0.300272107	0.003140981	0.032404924	0.009987512
2020-08-28T11:05:00	0.1427	16.246	0.0	0.304274167	0.300376559	0.003142448	0.032420054	0.009992176
2020-08-28T11:10:00	0.1434	16.374	0.0	0.305761618	0.303244269	0.003182780	0.032836150	0.010120420
2020-08-28T11:15:00	0.1437	16.436	0.0	0.306225322	0.304141114	0.003195419	0.032966551	0.010160611
2020-08-28T11:20:00	0.1443	16.503	0.0	0.307507656	0.306628318	0.003230538	0.033328865	0.010272280
2020-08-28T11:25:00	0.1444	16.595	0.0	0.307766589	0.307131803	0.003237659	0.033402329	0.010294922
2020-08-28T11:30:00	0.1438	16.762	0.0	0.306592899	0.304853003	0.003205461	0.033070152	0.010192542
2020-08-28T11:35:00	0.1438	16.863	0.0	0.306442510	0.304561639	0.003201350	0.033027740	0.010179470
2020-08-28T11:40:00	0.1437	17.029	0.0	0.306292116	0.304270410	0.003197242	0.032985361	0.010166409
2020-08-28T11:45:00	0.1446	17.154	0.0	0.308188357	0.307952815	0.003249279	0.033522210	0.010331871
2020-08-28T11:50:00	0.1438	17.199	0.0	0.306605395	0.304877218	0.003205803	0.033073677	0.010193628
2020-08-28T11:55:00	0.1453	17.223	0.0	0.309524559	0.310561275	0.003286266	0.033903798	0.010449480
2020-08-28T12:00:00	0.1442	17.297	0.0	0.307327988	0.306279212	0.003225603	0.033277951	0.010256588
2020-08-28T12:05:00	0.1439	17.386	0.0	0.306768276	0.305192957	0.003210259	0.033119653	0.010207799
2020-08-28T12:10:00	0.1435	17.521	0.0	0.306003815	0.303712530	0.003189377	0.032904219	0.010141400
2020-08-28T12:15:00	0.1421	17.612	0.0	0.302986844	0.297905948	0.003107804	0.032062644	0.009882018
2020-08-28T12:20:00	0.1422	17.642	0.0	0.303245968	0.298402415	0.003114758	0.032134386	0.009904130
2020-08-28T12:25:00	0.1431	17.636	0.0	0.305143145	0.302050198	0.003165970	0.032662733	0.010066971
2020-08-28T12:30:00	0.1428	17.727	0.0	0.304378482	0.300577218	0.003145266	0.032449126	0.010001136
2020-08-28T12:35:00	0.1435	17.890	0.0	0.305865908	0.303445857	0.003185620	0.032865449	0.010129451
2020-08-28T12:40:00	0.1435	17.911	0.0	0.305920209	0.303550845	0.003187099	0.032880711	0.010134155
2020-08-28T12:45:00	0.1419	17.993	0.0	0.302698386	0.297353778	0.003100075	0.031982900	0.009857440
2020-08-28T12:50:00	0.1416	18.035	0.0	0.301933415	0.295891998	0.003079635	0.031772032	0.009792449
2020-08-28T12:55:00	0.1410	17.990	0.0	0.300758600	0.293654235	0.003048412	0.031449901	0.009693165
2020-08-28T13:00:00	0.1407	17.968	0.0	0.300198281	0.292590016	0.003033590	0.031296993	0.009646037
2020-08-28T13:05:00	0.1398	18.069	0.0	0.298408265	0.289203488	0.002986547	0.030811658	0.009496452
2020-08-28T13:10:00	0.1390	18.033	0.0	0.296617693	0.285836123	0.002939953	0.030330958	0.009348296
2020-08-28T13:15:00	0.1385	18.082	0.0	0.295646864	0.284018824	0.002914884	0.030072321	0.009268582
2020-08-28T13:20:00	0.1380	18.063	0.0	0.294675867	0.282207155	0.002889946	0.029815039	0.009189285
2020-08-28T13:25:00	0.1382	18.146	0.0	0.295140446	0.283073218	0.002901861	0.029937963	0.009227171
2020-08-28T13:30:00	0.1385	18.169	0.0	0.295604987	0.283940569	0.002913806	0.030061197	0.009265153
2020-08-28T13:35:00	0.1383	18.056	0.0	0.295249245	0.283276236	0.002904656	0.029966797	0.009236058
2020-08-28T13:40:00	0.1379	18.005	0.0	0.294483287	0.281848550	0.002885016	0.029764177	0.009173609
2020-08-28T13:45:00	0.1373	17.950	0.0	0.293306944	0.279663140	0.002855017	0.029454689	0.009078221
2020-08-28T13:50:00	0.1385	17.927	0.0	0.295617506	0.283963962	0.002914128	0.030064522	0.009266178
2020-08-28T13:55:00	0.1384	17.994	0.0	0.295466837	0.283682484	0.002910250	0.030024515	0.009253847
2020-08-28T14:00:00	0.1392	17.974	0.0	0.297161525	0.286856721	0.002954056	0.030476451	0.009393138
2020-08-28T14:05:00	0.1388	18.003	0.0	0.296190789	0.285036267	0.002928913	0.030217055	0.009313190
2020-08-28T14:10:00	0.1390	18.015	0.0	0.296655243	0.285906532	0.002940926	0.030340990	0.009351388
2020-08-28T14:15:00	0.1387	17.960	0.0	0.296094526	0.284856066	0.002926427	0.030191408	0.009305285
2020-08-28T14:20:00	0.1377	17.840	0.0	0.294098108	0.281132004	0.002875171	0.029662614	0.009142306
2020-08-28T14:25:00	0.1380	17.766	0.0	0.294562736	0.281996464	0.002887049	0.029785154	0.009180074
2020-08-28T14:30:00	0.1375	17.706	0.0	0.293591550	0.280191082	0.002862257	0.029529380	0.009101242
2020-08-28T14:35:00	0.1373	17.683	0.0	0.293235679	0.279531026	0.002853206	0.029436005	0.009072463
2020-08-28T14:40:00	0.1374	17.672	0.0	0.293495242	0.280012375	0.002859806	0.029504092	0.009093448
2020-08-28T14:45:00	0.1380	17.645	0.0	0.294575257	0.282019779	0.002887370	0.029788460	0.009181093
2020-08-28T14:50:00	0.1356	17.692	0.0	0.289705082	0.273025858	0.002764393	0.028519736	0.008790060
2020-08-28T14:55:00	0.1362	17.704	0.0	0.290991087	0.275386240	0.002796538	0.028851363	0.008892270
2020-08-28T15:00:00	0.1350	17.703	0.0	0.288582166	0.270973342	0.002736517	0.028232145	0.008701421
2020-08-28T15:05:00	0.1358	17.725	0.0	0.290073716	0.273701397	0.002773583	0.028614549	0.008819282
2020-08-28T15:10:00	0.1362	17.641	0.0	0.290949176	0.275309149	0.002795486	0.028840517	0.008888927
2020-08-28T15:15:00	0.1364	17.605	0.0	0.291414070	0.276164876	0.002807162	0.028960970	0.008926052
2020-08-28T15:20:00	0.1367	17.587	0.0	0.291878925	0.277021893	0.002818867	0.029081729	0.008963271
2020-08-28T15:25:00	0.1363	17.526	0.0	0.291112498	0.275609619	0.002799584	0.028882797	0.008901959
2020-08-28T15:30:00	0.1364	17.478	0.0	0.291372162	0.276087680	0.002806108	0.028950098	0.008922701
2020-08-28T15:35:00	0.1364	17.373	0.0	0.291426599	0.276187956	0.002807477	0.028964220	0.008927054
2020-08-28T15:40:00	0.1361	17.308	0.0	0.290660107	0.274777750	0.002788242	0.028765780	0.008865893
2020-08-28T15:45:00	0.1353	17.272	0.0	0.289072334	0.271868316	0.002748664	0.028357456	0.008740043
2020-08-28T15:50:00	0.1341	17.271	0.0	0.286662537	0.267482969	0.002689276	0.027744766	0.008551206
2020-08-28T15:55:00	0.1339	17.232	0.0	0.286306204	0.266837620	0.002680564	0.027654886	0.008523505
2020-08-28T16:00:00	0.1351	17.201	0.0	0.288619771	0.271041949	0.002737448	0.028241746	0.008704380
2020-08-28T16:05:00	0.1341	17.115	0.0	0.286595186	0.267360928	0.002687628	0.027727764	0.008545966
2020-08-28T16:10:00	0.1346	17.046	0.0	0.287651189	0.269277689	0.002713541	0.027995107	0.008628364
2020-08-28T16:15:00	0.1366	16.978	0.0	0.291785934	0.276850344	0.002816523	0.029057547	0.008955818
2020-08-28T16:20:00	0.1394	16.917	0.0	0.297557709	0.287601405	0.002964357	0.030582721	0.009425892
2020-08-28T16:25:00	0.1432	16.876	0.0	0.305371245	0.302490304	0.003172163	0.032726623	0.010086663
2020-08-28T16:30:00	0.1513	16.894	0.0	0.323873281	0.334931567	0.003652847	0.037685748	0.011615114
2020-08-28T16:35:00	0.1525	16.743	0.0	0.327432778	0.339949114	0.003734685	0.038530058	0.011875338
2020-08-28T16:40:00	0.1553	16.318	0.0	0.335647254	0.351653060	0.003927611	0.040520436	0.012488792
2020-08-28T16:45:00	0.1527	15.915	0.0	0.328101077	0.340894796	0.003750169	0.038689797	0.011924571
2020-08-28T16:50:00	0.1470	15.660	0.0	0.313086184	0.317569092	0.003386150	0.034934281	0.010767085
2020-08-28T16:55:00	0.1443	15.490	0.0	0.307591982	0.306792241	0.003232856	0.033352779	0.010279650
2020-08-28T17:00:00	0.1436	15.460	0.0	0.306188251	0.304069364	0.003194408	0.032956114	0.010157394
2020-08-28T17:05:00	0.1396	15.408	0.0	0.298023886	0.288478919	0.002976506	0.030708064	0.009464524
2020-08-28T17:10:00	0.1419	15.380	0.0	0.302560613	0.297090236	0.003096387	0.031944857	0.009845715
2020-08-28T17:15:00	0.1390	15.365	0.0	0.296646930	0.285890943	0.002940711	0.030338769	0.009350703
2020-08-28T17:20:00	0.1416	15.375	30.0	0.302004130	0.296026973	0.003081521	0.031791488	0.009798445
2020-08-28T17:25:00	0.1416	15.342	0.0	0.302033131	0.296082335	0.003082295	0.031799469	0.009800905
2020-08-28T17:30:00	0.1414	15.340	0.0	0.301652447	0.295356025	0.003072150	0.031694802	0.009768646
2020-08-28T17:35:00	0.1413	15.333	0.0	0.301476598	0.295020829	0.003067470	0.031646527	0.009753767
2020-08-28T17:40:00	0.1413	15.334	0.0	0.301505601	0.295076100	0.003068242	0.031654486	0.009756220
2020-08-28T17:45:00	0.1402	15.379	0.0	0.299075857	0.290464142	0.003004038	0.030992105	0.009552068
2020-08-28T17:50:00	0.1390	15.393	0.0	0.296645095	0.285887503	0.002940663	0.030338278	0.009350552
2020-08-28T17:55:00	0.1385	15.356	0.0	0.295648908	0.284022644	0.002914937	0.030072864	0.009268749
2020-08-28T18:00:00	0.1401	15.294	0.0	0.298957962	0.290241310	0.003000944	0.030960190	0.009542231
2020-08-28T18:05:00	0.1407	15.236	0.0	0.300216498	0.292624586	0.003034072	0.031301957	0.009647567
2020-08-28T18:10:00	0.1413	15.210	0.0	0.301474765	0.295017336	0.003067422	0.031646024	0.009753612
2020-08-28T18:15:00	0.1392	15.170	0.0	0.297200255	0.286929476	0.002955062	0.030486830	0.009396337
2020-08-28T18:20:00	0.1389	15.134	0.0	0.296409203	0.285445349	0.002934558	0.030275297	0.009331140
2020-08-28T18:25:00	0.1402	15.095	0.0	0.299103038	0.290515529	0.003004751	0.030999466	0.009554337
2020-08-28T18:30:00	0.1392	15.062	0.0	0.297082322	0.286707966	0.002951999	0.030455234	0.009386599
2020-08-28T18:35:00	0.1373	15.027	0.0	0.293214837	0.279492392	0.002852677	0.029430542	0.009070779
2020-08-28T18:40:00	0.1359	14.994	0.0	0.290371023	0.274246849	0.002781009	0.028691162	0.008842895
2020-08-28T18:45:00	0.1348	14.955	0.0	0.288141770	0.270170538	0.002725633	0.028119857	0.008666813
2020-08-28T18:50:00	0.1358	14.926	0.0	0.290223883	0.273976829	0.002777333	0.028653230	0.008831204
2020-08-28T18:55:00	0.1342	14.910	0.0	0.286762318	0.267663824	0.002691719	0.027769968	0.008558974
2020-08-28T19:00:00	0.1349	14.921	0.0	0.288228987	0.270329430	0.002727787	0.028142073	0.008673660
2020-08-28T19:05:00	0.1349	14.928	0.0	0.288258059	0.270382404	0.002728505	0.028149480	0.008675943
2020-08-28T19:10:00	0.1348	14.922	0.0	0.288081788	0.270061289	0.002724153	0.028104585	0.008662106
2020-08-28T19:15:00	0.1358	14.901	0.0	0.290163924	0.273866836	0.002775835	0.028637781	0.008826442
2020-08-28T19:20:00	0.1365	14.882	0.0	0.291629652	0.276562158	0.002812586	0.029016934	0.008943301
2020-08-28T19:25:00	0.1375	14.869	0.0	0.293710416	0.280411729	0.002865284	0.029560610	0.009110867
2020-08-28T19:30:00	0.1382	14.858	0.0	0.294970113	0.282755526	0.002897489	0.029892857	0.009213269
2020-08-28T19:35:00	0.1382	14.848	0.0	0.294999149	0.282809668	0.002898234	0.029900543	0.009215638
2020-08-28T19:40:00	0.1399	14.859	0.0	0.298513542	0.289402103	0.002989301	0.030840070	0.009505209
2020-08-28T19:45:00	0.1396	14.872	0.0	0.297927654	0.288297664	0.002973996	0.030682164	0.009456541
2020-08-28T19:50:00	0.1401	14.861	0.0	0.298981476	0.290285747	0.003001561	0.030966554	0.009544193
2020-08-28T19:55:00	0.1385	14.853	0.0	0.295730500	0.284175149	0.002917038	0.030094548	0.009275432
2020-08-28T20:00:00	0.1377	14.851	0.0	0.294118831	0.281170532	0.002875701	0.029668073	0.009143988
2020-08-28T20:05:00	0.1387	14.845	0.0	0.295993616	0.284667229	0.002923823	0.030164538	0.009297004
2020-08-28T20:10:00	0.1380	14.835	0.0	0.294587128	0.282041884	0.002887674	0.029791596	0.009182059
2020-08-28T20:15:00	0.1385	14.818	0.0	0.295641568	0.284008928	0.002914748	0.030070915	0.009268148
2020-08-28T20:20:00	0.1390	14.803	0.0	0.296695811	0.285982611	0.002941977	0.030351830	0.009354729
2020-08-28T20:25:00	0.1397	14.802	0.0	0.298159816	0.288735045	0.002980055	0.030744674	0.009475807
2020-08-28T20:30:00	0.1383	14.802	0.0	0.295318533	0.283405565	0.002906436	0.029985168	0.009241720
2020-08-28T20:35:00	0.1353	14.793	0.0	0.289191951	0.272086948	0.002751633	0.028388089	0.008749485
2020-08-28T20:40:00	0.1352	14.773	0.0	0.288810396	0.271389868	0.002742169	0.028290448	0.008719391
2020-08-28T20:45:00	0.1360	14.758	0.0	0.290481753	0.274450142	0.002783778	0.028719729	0.008851700
2020-08-28T20:50:00	0.1370	14.748	0.0	0.292562956	0.278285466	0.002836147	0.029260005	0.009018218
2020-08-28T20:55:00	0.1344	14.743	0.0	0.287254821	0.268557413	0.002703797	0.027894570	0.008597377
2020-08-28T21:00:00	0.1326	14.765	0.0	0.283585752	0.261937039	0.002614640	0.026974754	0.008313881
2020-08-28T21:05:00	0.1345	14.765	0.0	0.287518349	0.269036182	0.002710273	0.027961387	0.008617971
2020-08-28T21:10:00	0.1342	14.739	0.0	0.286931283	0.267970219	0.002695859	0.027812676	0.008572137
2020-08-28T21:15:00	0.1365	14.741	0.0	0.291477037	0.276280884	0.002808745	0.028977309	0.008931088
2020-08-28T21:20:00	0.1376	14.729	0.0	0.293762995	0.280509356	0.002866624	0.029574430	0.009115127
2020-08-28T21:25:00	0.1379	14.744	0.0	0.294407392	0.281707289	0.002883075	0.029744148	0.009167435
2020-08-28T21:30:00	0.1385	14.792	0.0	0.295666931	0.284056328	0.002915401	0.030077653	0.009270225
2020-08-28T21:35:00	0.1419	14.785	0.0	0.302663775	0.297287561	0.003099148	0.031973340	0.009854494
2020-08-28T21:40:00	0.1421	14.818	0.0	0.303102385	0.298127266	0.003110904	0.032094621	0.009891874
2020-08-28T21:45:00	0.1417	14.824	0.0	0.302312131	0.296615224	0.003089744	0.031876317	0.009824590
2020-08-28T21:50:00	0.1390	14.819	0.0	0.296603226	0.285808999	0.002939579	0.030327094	0.009347105
2020-08-28T21:55:00	0.1336	14.820	0.0	0.285549670	0.265470130	0.002662127	0.027464672	0.008464879
2020-08-28T22:00:00	0.1353	14.811	0.0	0.289070172	0.271864364	0.002748610	0.028356902	0.008739873
2020-08-28T22:05:00	0.1344	14.800	0.0	0.287196665	0.268451817	0.002702369	0.027879839	0.008592837
2020-08-28T22:10:00	0.1354	14.811	0.0	0.289224692	0.272146807	0.002752446	0.028396477	0.008752070
2020-08-28T22:15:00	0.1354	14.788	0.0	0.289404599	0.272475843	0.002756916	0.028442598	0.008766285
2020-08-28T22:20:00	0.1359	14.786	0.0	0.290405593	0.274310309	0.002781874	0.028700079	0.008845643
2020-08-28T22:25:00	0.1350	14.785	0.0	0.288532560	0.270882854	0.002735290	0.028219483	0.008697519
2020-08-28T22:30:00	0.1348	14.758	0.0	0.288096487	0.270088059	0.002724516	0.028108327	0.008663260
2020-08-28T22:35:00	0.1331	14.716	0.0	0.284579001	0.263720857	0.002638589	0.027221832	0.008390033
2020-08-28T22:40:00	0.1324	14.699	0.0	0.283114966	0.261093707	0.002603336	0.026858140	0.008277940
2020-08-28T22:45:00	0.1316	14.685	0.0	0.281444890	0.258113321	0.002563488	0.026447034	0.008151233
2020-08-28T22:50:00	0.1291	14.672	0.0	0.276276307	0.249000938	0.002442617	0.025200030	0.007766894
2020-08-28T22:55:00	0.1320	14.633	0.0	0.282422010	0.259854937	0.002586755	0.026687075	0.008225216
2020-08-28T23:00:00	0.1324	14.617	0.0	0.283218820	0.261279624	0.002605827	0.026883837	0.008285860
2020-08-28T23:05:00	0.1337	14.603	0.0	0.285864755	0.266039230	0.002669796	0.027543792	0.008489264
2020-08-28T23:10:00	0.1321	14.580	0.0	0.282551304	0.260085842	0.002589844	0.026718941	0.008235037
2020-08-28T23:15:00	0.1291	14.567	0.0	0.276354850	0.249138153	0.002444426	0.025218695	0.007772647
2020-08-28T23:20:00	0.1272	14.558	0.0	0.272416875	0.242306407	0.002354758	0.024293600	0.007487524
2020-08-28T23:25:00	0.1287	14.531	0.0	0.275480517	0.247612888	0.002424334	0.025011409	0.007708759
2020-08-28T23:30:00	0.1295	14.513	0.0	0.277101751	0.250444928	0.002461673	0.025396629	0.007827488
2020-08-28T23:35:00	0.1312	14.497	0.0	0.280779301	0.256930421	0.002547715	0.026284309	0.008101079
2020-08-28T23:40:00	0.1307	14.471	0.0	0.279725534	0.255063353	0.002522869	0.026027979	0.008022076
2020-08-28T23:45:00	0.1297	14.473	0.0	0.277642761	0.251393672	0.002474214	0.025526007	0.007867363
2020-08-28T23:50:00	0.1308	14.466	0.0	0.279880339	0.255337200	0.002526510	0.026065536	0.008033651
2020-08-28T23:55:00	0.1334	14.455	0.0	0.285199753	0.264838848	0.002653626	0.027376973	0.008437849
2020-08-29T00:00:00	0.1328	14.455	0.0	0.283941414	0.262575073	0.002623199	0.027063064	0.008341099
2020-08-29T00:05:00	0.1325	14.482	0.0	0.283299416	0.261423952	0.002607761	0.026903791	0.008292010
2020-08-29T00:10:00	0.1330	14.487	0.0	0.284301590	0.263222016	0.002631886	0.027152681	0.008368720
2020-08-29T00:15:00	0.1330	14.494	0.0	0.284276173	0.263176336	0.002631272	0.027146351	0.008366769
2020-08-29T00:20:00	0.1313	14.523	0.0	0.280961673	0.257254259	0.002552031	0.026328833	0.008114802
2020-08-29T00:25:00	0.1317	14.536	0.0	0.281758718	0.258672031	0.002570946	0.026523980	0.008174948
2020-08-29T00:30:00	0.1307	14.542	0.0	0.279676820	0.254977211	0.002521725	0.026016168	0.008018436
2020-08-29T00:35:00	0.1310	14.530	0.0	0.280268414	0.256024357	0.002535650	0.026159837	0.008062716
2020-08-29T00:40:00	0.1313	14.509	0.0	0.280859937	0.257073580	0.002549623	0.026303989	0.008107145
2020-08-29T00:45:00	0.1320	14.512	0.0	0.282273781	0.259590347	0.002583217	0.026650573	0.008213965
2020-08-29T00:50:00	0.1313	14.503	0.0	0.280809068	0.256983264	0.002548419	0.026291573	0.008103318
2020-08-29T00:55:00	0.1323	14.485	0.0	0.282839639	0.260601153	0.002596740	0.026790089	0.008256966
2020-08-29T01:00:00	0.1318	14.477	0.0	0.281991911	0.259087588	0.002576497	0.026581247	0.008192599
2020-08-29T01:05:00	0.1346	14.476	0.0	0.287719830	0.269402522	0.002715231	0.028012541	0.008633737
2020-08-29T01:10:00	0.1339	14.479	0.0	0.286256693	0.266748016	0.002679355	0.027642412	0.008519660
2020-08-29T01:15:00	0.1332	14.498	0.0	0.284793141	0.264106255	0.002643770	0.027275288	0.008406509
2020-08-29T01:20:00	0.1326	14.488	0.0	0.283534702	0.261845524	0.002613412	0.026962094	0.008309979
2020-08-29T01:25:00	0.1319	14.490	0.0	0.282070361	0.259227466	0.002578366	0.026600530	0.008198542
2020-08-29T01:30:00	0.1337	14.494	0.0	0.285744201	0.265821414	0.002666860	0.027513503	0.008479929
2020-08-29T01:35:00	0.1349	14.490	0.0	0.288183495	0.270246546	0.002726663	0.028130484	0.008670088
2020-08-29T01:40:00	0.1346	14.481	0.0	0.287747393	0.269452658	0.002715910	0.028019543	0.008635895
2020-08-29T01:45:00	0.1326	14.471	0.0	0.283613128	0.261986121	0.002615298	0.026981545	0.008315974
2020-08-29T01:50:00	0.1339	14.459	0.0	0.286258857	0.266751931	0.002679408	0.027642958	0.008519828
2020-08-29T01:55:00	0.1354	14.441	0.0	0.289313844	0.272309834	0.002754661	0.028419326	0.008759112
2020-08-29T02:00:00	0.1349	14.428	0.0	0.288261850	0.270389312	0.002728598	0.028150446	0.008676241
2020-08-29T02:05:00	0.1340	14.403	0.0	0.286388054	0.266985786	0.002682564	0.027675516	0.008529863
2020-08-29T02:10:00	0.1312	14.388	0.0	0.280607754	0.256625996	0.002543660	0.026242472	0.008088185
2020-08-29T02:15:00	0.1319	14.374	0.0	0.282021670	0.259140645	0.002577206	0.026588561	0.008194853
2020-08-29T02:20:00	0.1327	14.354	0.0	0.283846233	0.262404247	0.002620907	0.027039413	0.008333810
2020-08-29T02:25:00	0.1334	14.317	0.0	0.285259234	0.264946102	0.002655070	0.027391868	0.008442440
2020-08-29T02:30:00	0.1311	14.277	0.0	0.280506010	0.256445532	0.002541257	0.026217678	0.008080543
2020-08-29T02:35:00	0.1305	14.228	0.0	0.279246480	0.254216877	0.002511625	0.025911974	0.007986322
2020-08-29T02:40:00	0.1342	14.208	0.0	0.286826434	0.267780068	0.002693289	0.027786169	0.008563967
2020-08-29T02:45:00	0.1342	14.211	0.0	0.286801030	0.267734006	0.002692667	0.027779749	0.008561988
2020-08-29T02:50:00	0.1342	14.210	0.0	0.286775625	0.267687948	0.002692045	0.027773330	0.008560010
2020-08-29T02:55:00	0.1333	14.185	0.0	0.284901290	0.264301006	0.002646389	0.027302311	0.008414837
2020-08-29T03:00:00	0.1314	14.164	0.0	0.281175968	0.257635051	0.002557108	0.026381211	0.008130945
2020-08-29T03:05:00	0.1319	14.133	0.0	0.282178569	0.259420465	0.002580946	0.026627143	0.008206744
2020-08-29T03:10:00	0.1329	14.099	0.0	0.284208581	0.263054876	0.002629641	0.027129521	0.008361582
2020-08-29T03:15:00	0.1318	14.042	0.0	0.281922122	0.258963186	0.002574835	0.026564100	0.008187314
2020-08-29T03:20:00	0.1324	14.004	0.0	0.283130121	0.261120834	0.002603700	0.026861889	0.008279095
2020-08-29T03:25:00	0.1333	13.968	0.0	0.284954282	0.264396457	0.002647673	0.027315558	0.008418920
2020-08-29T03:30:00	0.1322	13.949	0.0	0.282668163	0.260294628	0.002592637	0.026747762	0.008243920
2020-08-29T03:35:00	0.1325	13.911	0.0	0.283259398	0.261352284	0.002606801	0.026893882	0.008288956
2020-08-29T03:40:00	0.1328	13.868	0.0	0.284056075	0.262780938	0.002625963	0.027091573	0.008349886
2020-08-29T03:45:00	0.1340	13.828	0.0	0.286496169	0.267181563	0.002685206	0.027702779	0.008538266
2020-08-29T03:50:00	0.1344	13.789	0.0	0.287292342	0.268625554	0.002704718	0.027904077	0.008600308
2020-08-29T03:55:00	0.1342	13.752	0.0	0.286856165	0.267833980	0.002694018	0.027793684	0.008566283
2020-08-29T04:00:00	0.1333	13.729	0.0	0.284981860	0.264446139	0.002648342	0.027322453	0.008421045
2020-08-29T04:05:00	0.1325	13.703	0.0	0.283254206	0.261342987	0.002606676	0.026892597	0.008288560
2020-08-29T04:10:00	0.1343	13.686	0.0	0.287074421	0.268229921	0.002699369	0.027848888	0.008583298
2020-08-29T04:15:00	0.1342	13.671	0.0	0.286785466	0.267705789	0.002692286	0.027775816	0.008560776
2020-08-29T04:20:00	0.1354	13.662	0.0	0.289371441	0.272415184	0.002756092	0.028434094	0.008763664
2020-08-29T04:25:00	0.1332	13.659	0.0	0.284769356	0.264063434	0.002643194	0.027269348	0.008404678
2020-08-29T04:30:00	0.1331	13.643	0.0	0.284480272	0.263543266	0.002636202	0.027197209	0.008382444
2020-08-29T04:35:00	0.1338	13.612	0.0	0.286040357	0.266356672	0.002674076	0.027587950	0.008502874
2020-08-29T04:40:00	0.1289	13.573	0.0	0.275880446	0.248309962	0.002433511	0.025106089	0.007737941
2020-08-29T04:45:00	0.1289	13.533	0.0	0.276002549	0.248522987	0.002436318	0.025135041	0.007746864
2020-08-29T04:50:00	0.1331	13.508	0.0	0.284556844	0.263680996	0.002638053	0.027216305	0.008388330
2020-08-29T04:55:00	0.1319	13.490	0.0	0.282212332	0.259480701	0.002581751	0.026635450	0.008209304
2020-08-29T05:00:00	0.1330	13.493	0.0	0.284389640	0.263380295	0.002634012	0.027174617	0.008375481
2020-08-29T05:05:00	0.1341	13.491	0.0	0.286566011	0.267308074	0.002686914	0.027720401	0.008543697
2020-08-29T05:10:00	0.1330	13.460	0.0	0.284427927	0.263449135	0.002634937	0.027184160	0.008378422
2020-08-29T05:15:00	0.1331	13.442	0.0	0.284549815	0.263668352	0.002637883	0.027214552	0.008387789
2020-08-29T05:20:00	0.1332	13.454	0.0	0.284877180	0.264257582	0.002645805	0.027296285	0.008412980
2020-08-29T05:25:00	0.1343	13.465	0.0	0.287053345	0.268191673	0.002698852	0.027843555	0.008581654
2020-08-29T05:30:00	0.1355	13.485	0.0	0.289433897	0.272529446	0.002757645	0.028450114	0.008768601
2020-08-29T05:35:00	0.1322	13.515	0.0	0.282776683	0.260488595	0.002595233	0.026774544	0.008252175
2020-08-29T05:40:00	0.1340	13.569	0.0	0.286391846	0.266992652	0.002682656	0.027676472	0.008530157
2020-08-29T05:45:00	0.1332	13.636	0.0	0.284870152	0.264244924	0.002645635	0.027294529	0.008412439
2020-08-29T05:50:00	0.1331	13.691	0.0	0.284581073	0.263724583	0.002638639	0.027222349	0.008390192
2020-08-29T05:55:00	0.1342	13.733	0.0	0.286757363	0.267654841	0.002691598	0.027768716	0.008558588
2020-08-29T06:00:00	0.1354	13.806	0.0	0.289343352	0.272363804	0.002755394	0.028426892	0.008761444
2020-08-29T06:05:00	0.1345	13.905	0.0	0.287411790	0.268842537	0.002707653	0.027934357	0.008609640
2020-08-29T06:10:00	0.1329	13.977	0.0	0.284246660	0.263123299	0.002630560	0.027139001	0.008364504
2020-08-29T06:15:00	0.1361	14.065	0.0	0.290734985	0.274915348	0.002790117	0.028785128	0.008871856
2020-08-29T06:20:00	0.1363	14.129	0.0	0.291061963	0.275516630	0.002798316	0.028869711	0.008897925
2020-08-29T06:25:00	0.1365	14.181	0.0	0.291594137	0.276496689	0.002811692	0.029007710	0.008940458
2020-08-29T06:30:00	0.1359	14.246	0.0	0.290279215	0.274078354	0.002778715	0.028667490	0.008835599
2020-08-29T06:35:00	0.1367	14.287	0.0	0.292042777	0.277324299	0.002823000	0.029124371	0.008976414
2020-08-29T06:40:00	0.1382	14.334	0.0	0.295036407	0.282879151	0.002899190	0.029910407	0.009218678
2020-08-29T06:45:00	0.1382	14.343	0.0	0.294952970	0.282723563	0.002897049	0.029888320	0.009211870
2020-08-29T06:50:00	0.1385	14.354	0.0	0.295689832	0.284099130	0.002915991	0.030083739	0.009272100
2020-08-29T06:55:00	0.1380	14.368	0.0	0.294580995	0.282030464	0.002887517	0.029789976	0.009181560
2020-08-29T07:00:00	0.1376	14.359	0.0	0.293882206	0.280730772	0.002869663	0.029605781	0.009124789
2020-08-29T07:05:00	0.1367	14.376	0.0	0.291952276	0.277157248	0.002820717	0.029100813	0.008969153
2020-08-29T07:10:00	0.1364	14.470	0.0	0.291458373	0.276246495	0.002808276	0.028972465	0.008929595
2020-08-29T07:15:00	0.1358	14.548	0.0	0.290143418	0.273829224	0.002775323	0.028632499	0.008824814
2020-08-29T07:20:00	0.1353	14.601	0.0	0.289033454	0.271797271	0.002747699	0.028347503	0.008736976
2020-08-29T07:25:00	0.1345	14.584	0.0	0.287512534	0.269025613	0.002710130	0.027959912	0.008617516
2020-08-29T07:30:00	0.1366	14.619	0.0	0.291740054	0.276765724	0.002815367	0.029045620	0.008952142
2020-08-29T07:35:00	0.1384	14.670	0.0	0.295554168	0.283845618	0.002912498	0.030047700	0.009260993
2020-08-29T07:40:00	0.1381	14.759	0.0	0.294855501	0.282541866	0.002894549	0.029862531	0.009203922
2020-08-29T07:45:00	0.1377	14.853	0.0	0.293951626	0.280859751	0.002871433	0.029624048	0.009130419
2020-08-29T07:50:00	0.1380	14.852	0.0	0.294688620	0.282230912	0.002890273	0.029818409	0.009190323
2020-08-29T07:55:00	0.1381	14.887	0.0	0.294810274	0.282457575	0.002893390	0.029850569	0.009200235
2020-08-29T08:00:00	0.1379	14.913	0.0	0.294521734	0.281920124	0.002886000	0.029774327	0.009176737
2020-08-29T08:05:00	0.1373	14.949	0.0	0.293207517	0.279478826	0.002852491	0.029428624	0.009070188
2020-08-29T08:10:00	0.1372	15.035	0.0	0.292918894	0.278944136	0.002845165	0.029353044	0.009046893
2020-08-29T08:15:00	0.1367	15.174	0.0	0.292014702	0.277272471	0.002822292	0.029117061	0.008974161
2020-08-29T08:20:00	0.1369	15.230	0.0	0.292341602	0.277876248	0.002830548	0.029202239	0.009000414
2020-08-29T08:25:00	0.1375	15.301	0.0	0.293694245	0.280381706	0.002864872	0.029556360	0.009109557
2020-08-29T08:30:00	0.1351	15.361	0.0	0.288685282	0.271161491	0.002739070	0.028258477	0.008709537
2020-08-29T08:35:00	0.1345	15.420	0.0	0.287369640	0.268765960	0.002706617	0.027923670	0.008606346
2020-08-29T08:40:00	0.1347	15.466	0.0	0.287902184	0.269734306	0.002719724	0.028058889	0.008648022
2020-08-29T08:45:00	0.1356	15.494	0.0	0.289666532	0.272955262	0.002763433	0.028509832	0.008787007
2020-08-29T08:50:00	0.1366	15.595	0.0	0.291840716	0.276951398	0.002817904	0.029071791	0.008960208
2020-08-29T08:55:00	0.1376	15.665	0.0	0.293808904	0.280594615	0.002867794	0.029586501	0.009118847
2020-08-29T09:00:00	0.1380	15.737	0.0	0.294545917	0.281965148	0.002886619	0.029780712	0.009178705
2020-08-29T09:05:00	0.1372	15.908	0.0	0.293026551	0.279143516	0.002847896	0.029381221	0.009055578
2020-08-29T09:10:00	0.1355	16.089	0.0	0.289454220	0.272566631	0.002758150	0.028455327	0.008770208
2020-08-29T09:15:00	0.1354	16.272	0.0	0.289370697	0.272413823	0.002756074	0.028433904	0.008763605
2020-08-29T09:20:00	0.1365	16.447	0.0	0.291545001	0.276406125	0.002810455	0.028994951	0.008936525
2020-08-29T09:25:00	0.1362	16.506	0.0	0.291051061	0.275496571	0.002798042	0.028866888	0.008897055
2020-08-29T09:30:00	0.1368	16.436	0.0	0.292198838	0.277612484	0.002826940	0.029165021	0.008988943
2020-08-29T09:35:00	0.1370	16.410	0.0	0.292525728	0.278216619	0.002835205	0.029250284	0.009015222
2020-08-29T09:40:00	0.1372	16.328	0.0	0.293057758	0.279201324	0.002848688	0.029389392	0.009058096
2020-08-29T09:45:00	0.1373	16.293	0.0	0.293179448	0.279426803	0.002851778	0.029421268	0.009067921
2020-08-29T09:50:00	0.1381	16.313	0.0	0.294942076	0.282703251	0.002896769	0.029885437	0.009210982
2020-08-29T09:55:00	0.1385	16.299	0.0	0.295678939	0.284078770	0.002915710	0.030080844	0.009271208
2020-08-29T10:00:00	0.1384	16.235	0.0	0.295390444	0.283539823	0.002908285	0.030004243	0.009247599
2020-08-29T10:05:00	0.1375	16.221	0.0	0.293635300	0.280272284	0.002863371	0.029540872	0.009104784
2020-08-29T10:10:00	0.1383	16.291	0.0	0.295161839	0.283113131	0.002902410	0.029943631	0.009228918
2020-08-29T10:15:00	0.1388	16.415	0.0	0.296277900	0.285199387	0.002931164	0.030240275	0.009320346
2020-08-29T10:20:00	0.1386	16.489	0.0	0.295958570	0.284601661	0.002922918	0.030155210	0.009294129
2020-08-29T10:25:00	0.1372	16.625	0.0	0.292972781	0.279043925	0.002846532	0.029367145	0.009051239
2020-08-29T10:30:00	0.1382	16.722	0.0	0.295114779	0.283025334	0.002901202	0.029931163	0.009225075
2020-08-29T10:35:00	0.1373	16.798	0.0	0.293154399	0.279380383	0.002851142	0.029414705	0.009065898
2020-08-29T10:40:00	0.1365	16.850	0.0	0.291603759	0.276514426	0.002811934	0.029010209	0.008941228
2020-08-29T10:45:00	0.1364	16.829	0.0	0.291284159	0.275925614	0.002803896	0.028927278	0.008915668
2020-08-29T10:50:00	0.1373	16.875	0.0	0.293221668	0.279505055	0.002852851	0.029432333	0.009071331
2020-08-29T10:55:00	0.1381	16.910	0.0	0.294748321	0.282342133	0.002891802	0.029834189	0.009195187
2020-08-29T11:00:00	0.1380	16.911	0.0	0.294634006	0.282129186	0.002888874	0.029803979	0.009185876
2020-08-29T11:05:00	0.1371	16.947	0.0	0.292878624	0.278869575	0.002844144	0.029342508	0.009043646
2020-08-29T11:10:00	0.1368	16.990	0.0	0.292148732	0.277519940	0.002825675	0.029151966	0.008984919
2020-08-29T11:15:00	0.1374	16.958	0.0	0.293470544	0.279966554	0.002859178	0.029497609	0.009091449
2020-08-29T11:20:00	0.1379	16.913	0.0	0.294381838	0.281659734	0.002882421	0.029737406	0.009165357
2020-08-29T11:25:00	0.1373	16.878	0.0	0.293241860	0.279542483	0.002853364	0.029437625	0.009072962
2020-08-29T11:30:00	0.1366	16.838	0.0	0.291691245	0.276675718	0.002814137	0.029032936	0.008948233
2020-08-29T11:35:00	0.1355	16.887	0.0	0.289524348	0.272694967	0.002759895	0.028473324	0.008775755
2020-08-29T11:40:00	0.1356	16.826	0.0	0.289615216	0.272861304	0.002762156	0.028496652	0.008782945
2020-08-29T11:45:00	0.1347	16.873	0.0	0.287858201	0.269654262	0.002718640	0.028047705	0.008644575
2020-08-29T11:50:00	0.1345	16.842	0.0	0.287538376	0.269072586	0.002710766	0.027966469	0.008619537
2020-08-29T11:55:00	0.1349	16.842	0.0	0.288245337	0.270359222	0.002728190	0.028146238	0.008674944
2020-08-29T12:00:00	0.1358	16.888	0.0	0.290183941	0.273903555	0.002776335	0.028642938	0.008828032
2020-08-29T12:05:00	0.1364	16.900	0.0	0.291301012	0.275956645	0.002804320	0.028931647	0.008917015
2020-08-29T12:10:00	0.1359	16.939	0.0	0.290365653	0.274236991	0.002780875	0.028689777	0.008842468
2020-08-29T12:15:00	0.1361	16.920	0.0	0.290661758	0.274780782	0.002788283	0.028766207	0.008866024
2020-08-29T12:20:00	0.1353	16.906	0.0	0.289110401	0.271937883	0.002749608	0.028367202	0.008743047
2020-08-29T12:25:00	0.1357	16.862	0.0	0.290022427	0.273607356	0.002772304	0.028601346	0.008815213
2020-08-29T12:30:00	0.1363	16.766	0.0	0.291139532	0.275659371	0.002800263	0.028889799	0.008904117
2020-08-29T12:35:00	0.1374	16.672	0.0	0.293487389	0.279997805	0.002859606	0.029502030	0.009092812
2020-08-29T12:40:00	0.1368	16.560	0.0	0.292142039	0.277507579	0.002825506	0.029150222	0.008984381
2020-08-29T12:45:00	0.1379	16.475	0.0	0.294489467	0.281860053	0.002885174	0.029765809	0.009174111
2020-08-29T12:50:00	0.1374	16.403	0.0	0.293349511	0.279742070	0.002856100	0.029465852	0.009081662
2020-08-29T12:55:00	0.1376	16.349	0.0	0.293850585	0.280672033	0.002868856	0.029597463	0.009122226
2020-08-29T13:00:00	0.1380	16.352	0.0	0.294556719	0.281985261	0.002886895	0.029783565	0.009179584
2020-08-29T13:05:00	0.1379	16.368	0.0	0.294442401	0.281772445	0.002883970	0.029753386	0.009170283
2020-08-29T13:10:00	0.1381	16.369	0.0	0.294943376	0.282705677	0.002896803	0.029885781	0.009211088
2020-08-29T13:15:00	0.1378	16.401	0.0	0.294213758	0.281347048	0.002878125	0.029693085	0.009151697
2020-08-29T13:20:00	0.1375	16.511	0.0	0.293689180	0.280372303	0.002864743	0.029555029	0.009109147
2020-08-29T13:25:00	0.1380	16.619	0.0	0.294600439	0.282066672	0.002888014	0.029795111	0.009183143
2020-08-29T13:30:00	0.1377	16.686	0.0	0.294075898	0.281090715	0.002874604	0.029656764	0.009140503
2020-08-29T13:35:00	0.1369	16.715	0.0	0.292320338	0.277836952	0.002830010	0.029196694	0.008998705
2020-08-29T13:40:00	0.1367	16.760	0.0	0.292000780	0.277246773	0.002821940	0.029113438	0.008973044
2020-08-29T13:45:00	0.1361	16.789	0.0	0.290655062	0.274768481	0.002788116	0.028764477	0.008865491
2020-08-29T13:50:00	0.1370	16.794	0.0	0.292592795	0.278340652	0.002836902	0.029267797	0.009020619
2020-08-29T13:55:00	0.1375	16.787	0.0	0.293709371	0.280409787	0.002865258	0.029560335	0.009110782
2020-08-29T14:00:00	0.1373	16.754	0.0	0.293184746	0.279436622	0.002851913	0.029422656	0.009068348
2020-08-29T14:05:00	0.1363	16.728	0.0	0.291223677	0.275814257	0.002802376	0.028911601	0.008910836
2020-08-29T14:10:00	0.1353	16.723	0.0	0.289056592	0.271839549	0.002748273	0.028353426	0.008738801
2020-08-29T14:15:00	0.1366	16.699	0.0	0.291815777	0.276905392	0.002817275	0.029065306	0.008958210
2020-08-29T14:20:00	0.1368	16.708	0.0	0.292111802	0.277451743	0.002824742	0.029142346	0.008981954
2020-08-29T14:25:00	0.1378	16.701	0.0	0.294254135	0.281422146	0.002879157	0.029703728	0.009154978
2020-08-29T14:30:00	0.1376	16.717	0.0	0.293729561	0.280447275	0.002865772	0.029565642	0.009112418
2020-08-29T14:35:00	0.1373	16.734	0.0	0.293204938	0.279474046	0.002852425	0.029427948	0.009069979
2020-08-29T14:40:00	0.1373	16.739	0.0	0.293295744	0.279642376	0.002854733	0.029451752	0.009077316
2020-08-29T14:45:00	0.1356	16.699	0.0	0.289692689	0.273003162	0.002764085	0.028516552	0.008789078
2020-08-29T14:50:00	0.1365	16.681	0.0	0.291630767	0.276564214	0.002812614	0.029017224	0.008943390
2020-08-29T14:55:00	0.1369	16.675	0.0	0.292337187	0.277868088	0.002830436	0.029201088	0.009000059
2020-08-29T15:00:00	0.1357	16.643	0.0	0.289965279	0.273502592	0.002770878	0.028586639	0.008810680
2020-08-29T15:05:00	0.1358	16.640	0.0	0.290056139	0.273669167	0.002773145	0.028610024	0.008817887
2020-08-29T15:10:00	0.1356	16.665	0.0	0.289736448	0.273083304	0.002765175	0.028527796	0.008792544
2020-08-29T15:15:00	0.1366	16.653	0.0	0.291674510	0.276644861	0.002813716	0.029028588	0.008946893
2020-08-29T15:20:00	0.1372	16.648	0.0	0.292996436	0.279087736	0.002847132	0.029373337	0.009053148
2020-08-29T15:25:00	0.1386	16.623	0.0	0.295958686	0.284601878	0.002922921	0.030155241	0.009294138
2020-08-29T15:30:00	0.1387	16.625	0.0	0.296049448	0.284771701	0.002925263	0.030179403	0.009301585
2020-08-29T15:35:00	0.1384	16.593	0.0	0.295525043	0.283791206	0.002911748	0.030039966	0.009258609
2020-08-29T15:40:00	0.1383	16.558	0.0	0.295205670	0.283194916	0.002903536	0.029955246	0.009232498
2020-08-29T15:45:00	0.1367	16.564	0.0	0.292014283	0.277271699	0.002822281	0.029116953	0.008974128
2020-08-29T15:50:00	0.1368	16.548	0.0	0.292105109	0.277439384	0.002824573	0.029140602	0.008981417
2020-08-29T15:55:00	0.1349	16.524	0.0	0.288295922	0.270451405	0.002729440	0.028159129	0.008678917
2020-08-29T16:00:00	0.1349	16.498	0.0	0.288181472	0.270242860	0.002726613	0.028129968	0.008669929
2020-08-29T16:05:00	0.1339	16.452	0.0	0.286187638	0.266623065	0.002677669	0.027625021	0.008514300
2020-08-29T16:10:00	0.1330	16.395	0.0	0.284398531	0.263396280	0.002634227	0.027176833	0.008376164
2020-08-29T16:15:00	0.1337	16.370	0.0	0.285896795	0.266097136	0.002670577	0.027551846	0.008491747
2020-08-29T16:20:00	0.1343	16.342	0.0	0.286983858	0.268065593	0.002697147	0.027825974	0.008576235
2020-08-29T16:25:00	0.1340	16.286	0.0	0.286427652	0.267057483	0.002683531	0.027685499	0.008532940
2020-08-29T16:30:00	0.1342	16.267	0.0	0.286898458	0.267910682	0.002695054	0.027804376	0.008569579
2020-08-29T16:35:00	0.1346	16.228	0.0	0.287574593	0.269138422	0.002711657	0.027975661	0.008622370
2020-08-29T16:40:00	0.1353	16.170	0.0	0.289071939	0.271867594	0.002748654	0.028357355	0.008740012
2020-08-29T16:45:00	0.1360	16.133	0.0	0.290568862	0.274610121	0.002785958	0.028742215	0.008858630
2020-08-29T16:50:00	0.1348	16.084	0.0	0.288165261	0.270213328	0.002726213	0.028125840	0.008668657
2020-08-29T16:55:00	0.1352	16.059	0.0	0.288841232	0.271446169	0.002742933	0.028298331	0.008721820
2020-08-29T17:00:00	0.1346	16.053	0.0	0.287669170	0.269310386	0.002713984	0.027999673	0.008629771
2020-08-29T17:05:00	0.1344	16.066	0.0	0.287318418	0.268672915	0.002705359	0.027910686	0.008602345
2020-08-29T17:10:00	0.1349	16.039	0.0	0.288199845	0.270276334	0.002727067	0.028134649	0.008671372
2020-08-29T17:15:00	0.1331	16.019	0.0	0.284562383	0.263690961	0.002638187	0.027217687	0.008388755
2020-08-29T17:20:00	0.1336	15.993	0.0	0.285649729	0.265650786	0.002664561	0.027489782	0.008472618
2020-08-29T17:25:00	0.1335	15.958	0.0	0.285504294	0.265388224	0.002661024	0.027453290	0.008461370
2020-08-29T17:30:00	0.1338	15.925	0.0	0.285975185	0.266238835	0.002672487	0.027571556	0.008497821
2020-08-29T17:35:00	0.1339	15.880	0.0	0.286240616	0.266718923	0.002678963	0.027638363	0.008518412
2020-08-29T17:40:00	0.1330	15.847	0.0	0.284451527	0.263491574	0.002635507	0.027190043	0.008380235
2020-08-29T17:45:00	0.1330	15.857	0.0	0.284306059	0.263230048	0.002631994	0.027153794	0.008369063
2020-08-29T17:50:00	0.1345	15.840	0.0	0.287447589	0.268907585	0.002708533	0.027943436	0.008612438
2020-08-29T17:55:00	0.1346	15.823	0.0	0.287712945	0.269390000	0.002715062	0.028010792	0.008633198
2020-08-29T18:00:00	0.1366	15.807	0.0	0.291673325	0.276642676	0.002813686	0.029028280	0.008946798
2020-08-29T18:05:00	0.1373	15.746	0.0	0.293169526	0.279408415	0.002851526	0.029418668	0.009067119
2020-08-29T18:10:00	0.1383	15.702	0.0	0.295280579	0.283334719	0.002905461	0.029975104	0.009238618
2020-08-29T18:15:00	0.1387	15.696	0.0	0.296160714	0.284979962	0.002928136	0.030209041	0.009310720
2020-08-29T18:20:00	0.1403	15.673	0.0	0.299295392	0.290879317	0.003009804	0.031051590	0.009570402
2020-08-29T18:25:00	0.1415	15.687	0.0	0.301813883	0.295663919	0.003076449	0.031739162	0.009782318
2020-08-29T18:30:00	0.1424	15.658	0.0	0.303717007	0.299305983	0.003127424	0.032265058	0.009944404
2020-08-29T18:35:00	0.1427	15.629	0.0	0.304186362	0.300207714	0.003140077	0.032395597	0.009984638
2020-08-29T18:40:00	0.1431	15.596	0.0	0.305065162	0.301899809	0.003163855	0.032640908	0.010060245
2020-08-29T18:45:00	0.1435	15.581	0.0	0.305943835	0.303596530	0.003187743	0.032887353	0.010136202
2020-08-29T18:50:00	0.1437	15.567	0.0	0.306413020	0.304504523	0.003200544	0.033019427	0.010176908
2020-08-29T18:55:00	0.1441	15.525	0.0	0.307086839	0.305810963	0.003218987	0.033209691	0.010235549
2020-08-29T19:00:00	0.1436	15.474	0.0	0.306123218	0.303943518	0.003192633	0.032937809	0.010151753
2020-08-29T19:05:00	0.1437	15.419	0.0	0.306387704	0.304455493	0.003199853	0.033012292	0.010174709
2020-08-29T19:10:00	0.1436	15.361	0.0	0.306038106	0.303778857	0.003190312	0.032913863	0.010144372
2020-08-29T19:15:00	0.1432	15.314	0.0	0.305279050	0.302312381	0.003169659	0.032700790	0.010078701
2020-08-29T19:20:00	0.1429	15.278	0.0	0.304724649	0.301243587	0.003154628	0.032545717	0.010030906
2020-08-29T19:25:00	0.1426	15.246	0.0	0.304170197	0.300176635	0.003139641	0.032391096	0.009983250
2020-08-29T19:30:00	0.1432	15.216	0.0	0.305253729	0.302263523	0.003168972	0.032693697	0.010076515
2020-08-29T19:35:00	0.1436	15.180	0.0	0.306132376	0.303961238	0.003192883	0.032940387	0.010152547
2020-08-29T19:40:00	0.1433	15.150	0.0	0.305578051	0.302889609	0.003177785	0.032784618	0.010104538
2020-08-29T19:45:00	0.1435	15.124	0.0	0.305842560	0.303400720	0.003184984	0.032858888	0.010127429
2020-08-29T19:50:00	0.1449	15.093	0.0	0.308767571	0.309082143	0.003265279	0.033687285	0.010382749
2020-08-29T19:55:00	0.1450	15.059	0.0	0.309031946	0.309598312	0.003272599	0.033762802	0.010406023
2020-08-29T20:00:00	0.1447	15.030	0.0	0.308273254	0.308118211	0.003251621	0.033546373	0.010339318
2020-08-29T20:05:00	0.1445	14.995	0.0	0.307923762	0.307437623	0.003241986	0.033446971	0.010308681
2020-08-29T20:10:00	0.1436	14.964	0.0	0.306141534	0.303978958	0.003193133	0.032942964	0.010153341
2020-08-29T20:15:00	0.1431	14.955	0.0	0.305177765	0.302116974	0.003166910	0.032672425	0.010069959
2020-08-29T20:20:00	0.1424	14.922	0.0	0.303599529	0.299080501	0.003124262	0.032232437	0.009934350
2020-08-29T20:25:00	0.1416	14.883	0.0	0.302020881	0.296058949	0.003081968	0.031796097	0.009799866
2020-08-29T20:30:00	0.1416	14.846	0.0	0.302080714	0.296173185	0.003083565	0.031812567	0.009804942
2020-08-29T20:35:00	0.1410	14.815	0.0	0.300706550	0.293555293	0.003047033	0.031435677	0.009688781
2020-08-29T20:40:00	0.1404	14.801	0.0	0.299536991	0.291336570	0.003016157	0.031117136	0.009590604
2020-08-29T20:45:00	0.1395	14.796	0.0	0.297752274	0.287967479	0.002969424	0.030634995	0.009442003
2020-08-29T20:50:00	0.1384	14.792	0.0	0.295556886	0.283850695	0.002912567	0.030048421	0.009261215
2020-08-29T20:55:00	0.1377	14.785	0.0	0.293976044	0.280905125	0.002872056	0.029630474	0.009132400
2020-08-29T21:00:00	0.1395	14.765	0.0	0.297726920	0.287919763	0.002968763	0.030628180	0.009439903
2020-08-29T21:05:00	0.1399	14.734	0.0	0.298606677	0.289577869	0.002991739	0.030865218	0.009512960
2020-08-29T21:10:00	0.1403	14.721	0.0	0.299281372	0.290852794	0.003009435	0.031047789	0.009569230
2020-08-29T21:15:00	0.1410	14.724	0.0	0.300775563	0.293686483	0.003048861	0.031454537	0.009694594
2020-08-29T21:20:00	0.1417	14.716	0.0	0.302269375	0.296533528	0.003088602	0.031864532	0.009820958
2020-08-29T21:25:00	0.1420	14.716	0.0	0.302738843	0.297431190	0.003101158	0.031994077	0.009860885
2020-08-29T21:30:00	0.1425	14.707	0.0	0.303822630	0.299508788	0.003130269	0.032294406	0.009953449
2020-08-29T21:35:00	0.1413	14.691	0.0	0.301424671	0.294921884	0.003066090	0.031632281	0.009749376
2020-08-29T21:40:00	0.1421	14.691	0.0	0.303123122	0.298166998	0.003111460	0.032100362	0.009893643
2020-08-29T21:45:00	0.1410	14.680	0.0	0.300724882	0.293590139	0.003047518	0.031440686	0.009690325
2020-08-29T21:50:00	0.1394	14.645	0.0	0.297505747	0.287503678	0.002963004	0.030568769	0.009421592
2020-08-29T21:55:00	0.1380	14.622	0.0	0.294695008	0.282242812	0.002890436	0.029820097	0.009190844
2020-08-29T22:00:00	0.1370	14.612	0.0	0.292498422	0.278166129	0.002834514	0.029243156	0.009013025
2020-08-29T22:05:00	0.1375	14.611	0.0	0.293582303	0.280173920	0.002862022	0.029526951	0.009100493
2020-08-29T22:10:00	0.1361	14.593	0.0	0.290767739	0.274975550	0.002790938	0.028793594	0.008874465
2020-08-29T22:15:00	0.1362	14.567	0.0	0.291031093	0.275459834	0.002797541	0.028861719	0.008895462
2020-08-29T22:20:00	0.1363	14.554	0.0	0.291089206	0.275566758	0.002799000	0.028876765	0.008900099
2020-08-29T22:25:00	0.1367	14.532	0.0	0.291968173	0.277186588	0.002821118	0.029104951	0.008970428
2020-08-29T22:30:00	0.1370	14.520	0.0	0.292641828	0.278431351	0.002838144	0.029280605	0.009024567
2020-08-29T22:35:00	0.1376	14.508	0.0	0.293725681	0.280440070	0.002865673	0.029564622	0.009112104
2020-08-29T22:40:00	0.1371	14.483	0.0	0.292758020	0.278646336	0.002841087	0.029310969	0.009033925
2020-08-29T22:45:00	0.1361	14.433	0.0	0.290764067	0.274968799	0.002790846	0.028792644	0.008874173
2020-08-29T22:50:00	0.1362	14.387	0.0	0.291027420	0.275453077	0.002797449	0.028860768	0.008895169
2020-08-29T22:55:00	0.1373	14.338	0.0	0.293137460	0.279348993	0.002850712	0.029410267	0.009064530
2020-08-29T23:00:00	0.1382	14.307	0.0	0.295041610	0.282888855	0.002899323	0.029911785	0.009219103
2020-08-29T23:05:00	0.1380	14.302	0.0	0.294689503	0.282232556	0.002890295	0.029818642	0.009190395
2020-08-29T23:10:00	0.1385	14.273	0.0	0.295567895	0.283871264	0.002912851	0.030051345	0.009262116
2020-08-29T23:15:00	0.1381	14.275	0.0	0.294805651	0.282448960	0.002893271	0.029849347	0.009199859
2020-08-29T23:20:00	0.1378	14.266	0.0	0.294248420	0.281411516	0.002879011	0.029702222	0.009154513
2020-08-29T23:25:00	0.1372	14.273	0.0	0.293075697	0.279234557	0.002849144	0.029394090	0.009059544
2020-08-29T23:30:00	0.1375	14.279	0.0	0.293544082	0.280102993	0.002861049	0.029516914	0.009097400
2020-08-29T23:35:00	0.1365	14.274	0.0	0.291550416	0.276416106	0.002810592	0.028996357	0.008936959
2020-08-29T23:40:00	0.1362	14.272	0.0	0.290992854	0.275389489	0.002796582	0.028851821	0.008892411
2020-08-29T23:45:00	0.1360	14.255	0.0	0.290640486	0.274741700	0.002787751	0.028760712	0.008864331
2020-08-29T23:50:00	0.1367	14.230	0.0	0.291929940	0.277116029	0.002820153	0.029095002	0.008967362
2020-08-29T23:55:00	0.1363	14.203	0.0	0.291167193	0.275710282	0.002800958	0.028896965	0.008906325
2020-08-30T00:00:00	0.1354	14.186	0.0	0.289377952	0.272427094	0.002756254	0.028435764	0.008764179
2020-08-30T00:05:00	0.1362	14.158	0.0	0.290872952	0.275168975	0.002793575	0.028820798	0.008882850
2020-08-30T00:10:00	0.1367	14.137	0.0	0.291957156	0.277166256	0.002820840	0.029102084	0.008969545
2020-08-30T00:15:00	0.1365	14.115	0.0	0.291604852	0.276516440	0.002811962	0.029010492	0.008941315
2020-08-30T00:20:00	0.1366	14.093	0.0	0.291868164	0.277002039	0.002818596	0.029078930	0.008962409
2020-08-30T00:25:00	0.1364	14.057	0.0	0.291310635	0.275974366	0.002804561	0.028934142	0.008917784
2020-08-30T00:30:00	0.1362	14.051	0.0	0.290958288	0.275325908	0.002795715	0.028842875	0.008889654
2020-08-30T00:35:00	0.1359	14.019	0.0	0.290400664	0.274301261	0.002781751	0.028698808	0.008845251
2020-08-30T00:40:00	0.1357	13.979	0.0	0.289842983	0.273278467	0.002767829	0.028555181	0.008800984
2020-08-30T00:45:00	0.1350	13.987	0.0	0.288463977	0.270757774	0.002733594	0.028201982	0.008692125
2020-08-30T00:50:00	0.1351	13.965	0.0	0.288727444	0.271238441	0.002740114	0.028269248	0.008712857
2020-08-30T00:55:00	0.1340	13.946	0.0	0.286526577	0.267236639	0.002685950	0.027710451	0.008540630
2020-08-30T01:00:00	0.1343	13.911	0.0	0.286995536	0.268086781	0.002697434	0.027828928	0.008577146
2020-08-30T01:05:00	0.1344	13.884	0.0	0.287259078	0.268565143	0.002703901	0.027895649	0.008597710
2020-08-30T01:10:00	0.1346	13.889	0.0	0.287727971	0.269417330	0.002715432	0.028014609	0.008634374
2020-08-30T01:15:00	0.1340	13.923	0.0	0.286348409	0.266914015	0.002681595	0.027665522	0.008526783
2020-08-30T01:20:00	0.1339	13.921	0.0	0.286201156	0.266647523	0.002677999	0.027628425	0.008515349
2020-08-30T01:25:00	0.1328	13.877	0.0	0.283999211	0.262678831	0.002624592	0.027077432	0.008345528
2020-08-30T01:30:00	0.1331	13.856	0.0	0.284673889	0.263891595	0.002640884	0.027245511	0.008397331
2020-08-30T01:35:00	0.1337	13.852	0.0	0.285759372	0.265848820	0.002667229	0.027517314	0.008481103
2020-08-30T01:40:00	0.1333	13.837	0.0	0.284995730	0.264471129	0.002648678	0.027325921	0.008422114
2020-08-30T01:45:00	0.1338	13.842	0.0	0.286081145	0.266430432	0.002675071	0.027598213	0.008506037
2020-08-30T01:50:00	0.1323	13.843	0.0	0.282851466	0.260622302	0.002597023	0.026793010	0.008257866
2020-08-30T01:55:00	0.1323	13.824	0.0	0.282909671	0.260726394	0.002598417	0.026807388	0.008262297
2020-08-30T02:00:00	0.1327	13.817	0.0	0.283790018	0.262303381	0.002619554	0.027025451	0.008329506
2020-08-30T02:05:00	0.1320	13.783	0.0	0.282409390	0.259832404	0.002586454	0.026683966	0.008224257
2020-08-30T02:10:00	0.1325	13.786	0.0	0.283289825	0.261406774	0.002607531	0.026901416	0.008291278
2020-08-30T02:15:00	0.1316	13.775	0.0	0.281497848	0.258207559	0.002564746	0.026460009	0.008155232
2020-08-30T02:20:00	0.1316	13.752	0.0	0.281556069	0.258311182	0.002566129	0.026474277	0.008159629
2020-08-30T02:25:00	0.1319	13.748	0.0	0.282025489	0.259147454	0.002577297	0.026589500	0.008195142
2020-08-30T02:30:00	0.1321	13.732	0.0	0.282494865	0.259985035	0.002588495	0.026705028	0.008230749
2020-08-30T02:35:00	0.1314	13.717	0.0	0.281113877	0.257524688	0.002555636	0.026366028	0.008126266
2020-08-30T02:40:00	0.1318	13.717	0.0	0.281994542	0.259092279	0.002576560	0.026581894	0.008192798
2020-08-30T02:45:00	0.1318	13.685	0.0	0.281847162	0.258829601	0.002573051	0.026545691	0.008181640
2020-08-30T02:50:00	0.1324	13.682	0.0	0.283138805	0.261136377	0.002603908	0.026864037	0.008279757
2020-08-30T02:55:00	0.1317	13.705	0.0	0.281757996	0.258670746	0.002570929	0.026523803	0.008174894
2020-08-30T03:00:00	0.1315	13.704	0.0	0.281199375	0.257676660	0.002557663	0.026386936	0.008132710
2020-08-30T03:05:00	0.1315	13.707	0.0	0.281257599	0.257780180	0.002559044	0.026401180	0.008137100
2020-08-30T03:10:00	0.1318	13.679	0.0	0.281932647	0.258981946	0.002575086	0.026566686	0.008188111
2020-08-30T03:15:00	0.1316	13.671	0.0	0.281579660	0.258353176	0.002566689	0.026480060	0.008161412
2020-08-30T03:20:00	0.1308	13.670	0.0	0.279787061	0.255172174	0.002524316	0.026042902	0.008026675
2020-08-30T03:25:00	0.1319	13.667	0.0	0.282107292	0.259293328	0.002579247	0.026609611	0.008201341
2020-08-30T03:30:00	0.1325	13.660	0.0	0.283398867	0.261602101	0.002610149	0.026928425	0.008299602
2020-08-30T03:35:00	0.1328	13.657	0.0	0.283868114	0.262443513	0.002621434	0.027044849	0.008335485
2020-08-30T03:40:00	0.1324	13.654	0.0	0.283104187	0.261074414	0.002603078	0.026855474	0.008277118
2020-08-30T03:45:00	0.1313	13.648	0.0	0.280900883	0.257146291	0.002550592	0.026313986	0.008110226
2020-08-30T03:50:00	0.1312	13.617	0.0	0.280753470	0.256884571	0.002547104	0.026278007	0.008099137
2020-08-30T03:55:00	0.1320	13.599	0.0	0.282250985	0.259549668	0.002582673	0.026644962	0.008212236
2020-08-30T04:00:00	0.1321	13.604	0.0	0.282514773	0.260020590	0.002588971	0.026709935	0.008232261
2020-08-30T04:05:00	0.1329	13.606	0.0	0.284157234	0.262962628	0.002628402	0.027116741	0.008357643
2020-08-30T04:10:00	0.1330	13.591	0.0	0.284360895	0.263328618	0.002633318	0.027167455	0.008373273
2020-08-30T04:15:00	0.1327	13.566	0.0	0.283742531	0.262218193	0.002618411	0.027013660	0.008325872
2020-08-30T04:20:00	0.1326	13.569	0.0	0.283535167	0.261846358	0.002613424	0.026962209	0.008310015
2020-08-30T04:25:00	0.1325	13.599	0.0	0.283327795	0.261474780	0.002608442	0.026910818	0.008294176
2020-08-30T04:30:00	0.1300	13.597	0.0	0.278184828	0.252346120	0.002486819	0.025656056	0.007907446
2020-08-30T04:35:00	0.1302	13.596	0.0	0.278594478	0.253067130	0.002496372	0.025754615	0.007937822
2020-08-30T04:40:00	0.1315	13.608	0.0	0.281266472	0.257795959	0.002559254	0.026403352	0.008137769
2020-08-30T04:45:00	0.1327	13.608	0.0	0.283731498	0.262198401	0.002618145	0.027010920	0.008325028
2020-08-30T04:50:00	0.1324	13.608	0.0	0.283113057	0.261090290	0.002603290	0.026857668	0.008277794
2020-08-30T04:55:00	0.1326	13.628	0.0	0.283522294	0.261823284	0.002613114	0.026959017	0.008309031
2020-08-30T05:00:00	0.1332	13.642	0.0	0.284753484	0.264034860	0.002642810	0.027265384	0.008403456
2020-08-30T05:05:00	0.1334	13.644	0.0	0.285162588	0.264771846	0.002652724	0.027367669	0.008434981
2020-08-30T05:10:00	0.1339	13.665	0.0	0.286187964	0.266623654	0.002677677	0.027625103	0.008514325
2020-08-30T05:15:00	0.1333	13.687	0.0	0.284953444	0.264394948	0.002647653	0.027315348	0.008418856
2020-08-30T05:20:00	0.1346	13.715	0.0	0.287622044	0.269224693	0.002712824	0.027987707	0.008626083
2020-08-30T05:25:00	0.1362	13.733	0.0	0.290905032	0.275227964	0.002794379	0.028829096	0.008885407
2020-08-30T05:30:00	0.1350	13.728	0.0	0.288439767	0.270713627	0.002732995	0.028195806	0.008690221
2020-08-30T05:35:00	0.1334	13.733	0.0	0.285151558	0.264751960	0.002652457	0.027364908	0.008434130
2020-08-30T05:40:00	0.1340	13.754	0.0	0.286382354	0.266975467	0.002682424	0.027674079	0.008529420
2020-08-30T05:45:00	0.1350	13.773	0.0	0.288434255	0.270703577	0.002732859	0.028194400	0.008689788
2020-08-30T05:50:00	0.1359	13.794	0.0	0.290280098	0.274079975	0.002778737	0.028667718	0.008835669
2020-08-30T05:55:00	0.1345	13.803	0.0	0.287403811	0.268828041	0.002707457	0.027932334	0.008609017
2020-08-30T06:00:00	0.1338	13.830	0.0	0.285964156	0.266218896	0.002672218	0.027568783	0.008496967
2020-08-30T06:05:00	0.1332	13.841	0.0	0.284729582	0.263991834	0.002642231	0.027259415	0.008401616
2020-08-30T06:10:00	0.1335	13.861	0.0	0.285344149	0.265099257	0.002657132	0.027413141	0.008448996
2020-08-30T06:15:00	0.1336	13.885	0.0	0.285547762	0.265466685	0.002662080	0.027464193	0.008464731
2020-08-30T06:20:00	0.1338	13.898	0.0	0.285956803	0.266205604	0.002672039	0.027566934	0.008496397
2020-08-30T06:25:00	0.1335	13.919	0.0	0.285338634	0.265089309	0.002656998	0.027411759	0.008448570
2020-08-30T06:30:00	0.1335	13.916	0.0	0.285336795	0.265085993	0.002656953	0.027411299	0.008448428
2020-08-30T06:35:00	0.1329	13.914	0.0	0.284102069	0.262863539	0.002627072	0.027103014	0.008353412
2020-08-30T06:40:00	0.1348	13.967	0.0	0.288003360	0.269918480	0.002722218	0.028084625	0.008655954
2020-08-30T06:45:00	0.1366	14.016	0.0	0.291696544	0.276685489	0.002814271	0.029034313	0.008948657
2020-08-30T06:50:00	0.1388	14.040	0.0	0.296207440	0.285067444	0.002929343	0.030221492	0.009314557
2020-08-30T06:55:00	0.1377	14.037	0.0	0.293949698	0.280856167	0.002871384	0.029623540	0.009130263
2020-08-30T07:00:00	0.1375	14.029	0.0	0.293537599	0.280090965	0.002860884	0.029515212	0.009096875
2020-08-30T07:05:00	0.1384	14.085	0.0	0.295381711	0.283523516	0.002908061	0.030001926	0.009246885
2020-08-30T07:10:00	0.1385	14.130	0.0	0.295584943	0.283903116	0.002913290	0.030055873	0.009263512
2020-08-30T07:15:00	0.1378	14.132	0.0	0.294147477	0.281223792	0.002876432	0.029675619	0.009146314
2020-08-30T07:20:00	0.1374	14.158	0.0	0.293325114	0.279696831	0.002855479	0.029459454	0.009079690
2020-08-30T07:25:00	0.1368	14.184	0.0	0.292092257	0.277415652	0.002824249	0.029137255	0.008980385
2020-08-30T07:30:00	0.1364	14.219	0.0	0.291269585	0.275898778	0.002803530	0.028923500	0.008914504
2020-08-30T07:35:00	0.1381	14.296	0.0	0.294755452	0.282355420	0.002891985	0.029836074	0.009195768
2020-08-30T07:40:00	0.1387	14.342	0.0	0.295984048	0.284649326	0.002923576	0.030161991	0.009296219
2020-08-30T07:45:00	0.1380	14.361	0.0	0.294546684	0.281966576	0.002886638	0.029780915	0.009178767
2020-08-30T07:50:00	0.1365	14.366	0.0	0.291467461	0.276263239	0.002808505	0.028974823	0.008930322
2020-08-30T07:55:00	0.1380	14.409	0.0	0.294543013	0.281959742	0.002886544	0.029779946	0.009178468
2020-08-30T08:00:00	0.1374	14.419	0.0	0.293310429	0.279669603	0.002855106	0.029455603	0.009078503
2020-08-30T08:05:00	0.1372	14.402	0.0	0.292898282	0.278905972	0.002844642	0.029347651	0.009045231
2020-08-30T08:10:00	0.1383	14.448	0.0	0.295357856	0.283478978	0.002907447	0.029995598	0.009244935
2020-08-30T08:15:00	0.1378	14.451	0.0	0.294330566	0.281564333	0.002881110	0.029723882	0.009161189
2020-08-30T08:20:00	0.1375	14.424	0.0	0.293713367	0.280417207	0.002865359	0.029561385	0.009111106
2020-08-30T08:25:00	0.1390	14.423	0.0	0.296787675	0.286154925	0.002944357	0.030376387	0.009362297
2020-08-30T08:30:00	0.1391	14.435	0.0	0.296990858	0.286536232	0.002949626	0.030430745	0.009379051
2020-08-30T08:35:00	0.1391	14.456	0.0	0.296989023	0.286532788	0.002949578	0.030430253	0.009378900
2020-08-30T08:40:00	0.1392	14.471	0.0	0.297192198	0.286914340	0.002954853	0.030484670	0.009395671
2020-08-30T08:45:00	0.1387	14.512	0.0	0.296165242	0.284988440	0.002928253	0.030210247	0.009311092
2020-08-30T08:50:00	0.1391	14.530	0.0	0.296983520	0.286522457	0.002949435	0.030428780	0.009378446
2020-08-30T08:55:00	0.1376	14.537	0.0	0.293905648	0.280774323	0.002870261	0.029611949	0.009126690
2020-08-30T09:00:00	0.1394	14.568	0.0	0.297594858	0.287671283	0.002965324	0.030592697	0.009428966
2020-08-30T09:05:00	0.1395	14.611	0.0	0.297798011	0.288053570	0.002970615	0.030647292	0.009445793
2020-08-30T09:10:00	0.1376	14.635	0.0	0.293900142	0.280764093	0.002870120	0.029610500	0.009126244
2020-08-30T09:15:00	0.1371	14.702	0.0	0.292872582	0.278858389	0.002843991	0.029340927	0.009043159
2020-08-30T09:20:00	0.1367	14.832	0.0	0.292050028	0.277337686	0.002823183	0.029126259	0.008976996
2020-08-30T09:25:00	0.1364	14.848	0.0	0.291432572	0.276198961	0.002807627	0.028965770	0.008927532
2020-08-30T09:30:00	0.1376	14.898	0.0	0.293892800	0.280750453	0.002869933	0.029608568	0.009125648
2020-08-30T09:35:00	0.1382	14.926	0.0	0.295121585	0.283038031	0.002901376	0.029932966	0.009225631
2020-08-30T09:40:00	0.1385	15.003	0.0	0.295734959	0.284183485	0.002917153	0.030095733	0.009275797
2020-08-30T09:45:00	0.1376	15.042	0.0	0.293887294	0.280740224	0.002869792	0.029607120	0.009125202
2020-08-30T09:50:00	0.1381	15.159	0.0	0.294910995	0.282645308	0.002895972	0.029877212	0.009208447
2020-08-30T09:55:00	0.1383	15.152	0.0	0.295319322	0.283407039	0.002906457	0.029985377	0.009241785
2020-08-30T10:00:00	0.1374	15.143	0.0	0.293471519	0.279968364	0.002859202	0.029497865	0.009091528
2020-08-30T10:05:00	0.1378	15.157	0.0	0.294141320	0.281212345	0.002876275	0.029673997	0.009145814
2020-08-30T10:10:00	0.1379	15.131	0.0	0.294400841	0.281695097	0.002882907	0.029742420	0.009166903
2020-08-30T10:15:00	0.1370	15.144	0.0	0.292608992	0.278370611	0.002837312	0.029272028	0.009021923
2020-08-30T10:20:00	0.1368	15.147	0.0	0.292253058	0.277712642	0.002828310	0.029179152	0.008993298
2020-08-30T10:25:00	0.1374	15.172	0.0	0.293333316	0.279712039	0.002855688	0.029461605	0.009080353
2020-08-30T10:30:00	0.1376	15.151	0.0	0.293798008	0.280574378	0.002867516	0.029583636	0.009117964
2020-08-30T10:35:00	0.1383	15.154	0.0	0.295288128	0.283348809	0.002905655	0.029977105	0.009239235
2020-08-30T10:40:00	0.1381	15.120	0.0	0.294932366	0.282685149	0.002896520	0.029882867	0.009210190
2020-08-30T10:45:00	0.1372	15.108	0.0	0.292935532	0.278974944	0.002845587	0.029357397	0.009048235
2020-08-30T10:50:00	0.1373	15.195	0.0	0.293195109	0.279455829	0.002852176	0.029425372	0.009069185
2020-08-30T10:55:00	0.1377	15.275	0.0	0.294070067	0.281079875	0.002874456	0.029655229	0.009140029
2020-08-30T11:00:00	0.1384	15.299	0.0	0.295560114	0.283856727	0.002912651	0.030049279	0.009261480
2020-08-30T11:05:00	0.1386	15.250	0.0	0.295819569	0.284341677	0.002919334	0.030118229	0.009282731
2020-08-30T11:10:00	0.1382	15.212	0.0	0.295053689	0.282911383	0.002899633	0.029914983	0.009220088
2020-08-30T11:15:00	0.1379	15.158	0.0	0.294492812	0.281866281	0.002885260	0.029766692	0.009174383
2020-08-30T11:20:00	0.1381	15.089	0.0	0.294752316	0.282349577	0.002891904	0.029835245	0.009195512
2020-08-30T11:25:00	0.1364	15.063	0.0	0.291319049	0.275989861	0.002804773	0.028936324	0.008918456
2020-08-30T11:30:00	0.1367	15.080	0.0	0.291989113	0.277225238	0.002821646	0.029110401	0.008972108
2020-08-30T11:35:00	0.1362	15.061	0.0	0.291017471	0.275434774	0.002797200	0.028858192	0.008894375
2020-08-30T11:40:00	0.1371	15.008	0.0	0.292713519	0.278563987	0.002839959	0.029299338	0.009030340
2020-08-30T11:45:00	0.1376	14.977	0.0	0.293793686	0.280566352	0.002867406	0.029582500	0.009117614
2020-08-30T11:50:00	0.1364	14.982	0.0	0.291386015	0.276113197	0.002806456	0.028953692	0.008923809
2020-08-30T11:55:00	0.1372	14.974	0.0	0.293081948	0.279246138	0.002849302	0.029395727	0.009060048
2020-08-30T12:00:00	0.1371	14.958	0.0	0.292726044	0.278587164	0.002840277	0.029302611	0.009031349
2020-08-30T12:05:00	0.1345	14.963	0.0	0.287443472	0.268900104	0.002708432	0.027942392	0.008612117
2020-08-30T12:10:00	0.1337	15.031	0.0	0.285854727	0.266021107	0.002669552	0.027541272	0.008488487
2020-08-30T12:15:00	0.1351	15.162	0.0	0.288784490	0.271342572	0.002741527	0.028283826	0.008717350
2020-08-30T12:20:00	0.1346	15.183	0.0	0.287606902	0.269197161	0.002712452	0.027983862	0.008624898
2020-08-30T12:25:00	0.1344	15.161	0.0	0.287250633	0.268549809	0.002703694	0.027893509	0.008597050
2020-08-30T12:30:00	0.1343	15.199	0.0	0.287099731	0.268275855	0.002699990	0.027855295	0.008585272
2020-08-30T12:35:00	0.1354	15.222	0.0	0.289207647	0.272115644	0.002752023	0.028392110	0.008750724
2020-08-30T12:40:00	0.1355	15.171	0.0	0.289467404	0.272590756	0.002758478	0.028458710	0.008771251
2020-08-30T12:45:00	0.1363	15.117	0.0	0.291163939	0.275704292	0.002800876	0.028896122	0.008906065
2020-08-30T12:50:00	0.1364	15.110	0.0	0.291423600	0.276182432	0.002807401	0.028963442	0.008926814
2020-08-30T12:55:00	0.1368	15.086	0.0	0.292093651	0.277418227	0.002824284	0.029137618	0.008980497
2020-08-30T13:00:00	0.1371	15.101	0.0	0.292763620	0.278656700	0.002841229	0.029312433	0.009034377
2020-08-30T13:05:00	0.1360	15.110	0.0	0.290560748	0.274595219	0.002785755	0.028740120	0.008857984
2020-08-30T13:10:00	0.1354	15.186	0.0	0.289383556	0.272437346	0.002756393	0.028437201	0.008764622
2020-08-30T13:15:00	0.1348	15.290	0.0	0.288000755	0.269913737	0.002722154	0.028083963	0.008655750
2020-08-30T13:20:00	0.1332	15.307	0.0	0.284768612	0.264062093	0.002643176	0.027269162	0.008404620
2020-08-30T13:25:00	0.1301	15.301	0.0	0.278449255	0.252811408	0.002492983	0.025719648	0.007927045
2020-08-30T13:30:00	0.1338	15.272	0.0	0.286110322	0.266483203	0.002675783	0.027605556	0.008508301
2020-08-30T13:35:00	0.1337	15.210	0.0	0.285753951	0.265839026	0.002667097	0.027515952	0.008480684
2020-08-30T13:40:00	0.1331	15.149	0.0	0.284575673	0.263714869	0.002638508	0.027221002	0.008389777
2020-08-30T13:45:00	0.1337	15.159	0.0	0.285862940	0.266035950	0.002669752	0.027543336	0.008489124
2020-08-30T13:50:00	0.1345	15.162	0.0	0.287560637	0.269113051	0.002711313	0.027972119	0.008621279
2020-08-30T13:55:00	0.1342	15.137	0.0	0.286793585	0.267720509	0.002692485	0.027777868	0.008561409
2020-08-30T14:00:00	0.1354	15.120	0.0	0.289312240	0.272306899	0.002754621	0.028418915	0.008758986
2020-08-30T14:05:00	0.1358	15.067	0.0	0.290187824	0.273910677	0.002776432	0.028643938	0.008828340
2020-08-30T14:10:00	0.1364	15.055	0.0	0.291268493	0.275896767	0.002803502	0.028923217	0.008914416
2020-08-30T14:15:00	0.1366	15.056	0.0	0.291733360	0.276753380	0.002815198	0.029043881	0.008951606
2020-08-30T14:20:00	0.1356	15.032	0.0	0.289735355	0.273081302	0.002765147	0.028527515	0.008792457
2020-08-30T14:25:00	0.1354	15.043	0.0	0.289379231	0.272429434	0.002756286	0.028436092	0.008764280
2020-08-30T14:30:00	0.1346	15.027	0.0	0.287585712	0.269158635	0.002711930	0.027978483	0.008623240
2020-08-30T14:35:00	0.1340	14.973	0.0	0.286407853	0.267021634	0.002683048	0.027680507	0.008531401
2020-08-30T14:40:00	0.1332	14.999	0.0	0.284818788	0.264152432	0.002644391	0.027281695	0.008408483
2020-08-30T14:45:00	0.1359	15.044	0.0	0.290418147	0.274333356	0.002782188	0.028703317	0.008846641
2020-08-30T14:50:00	0.1370	15.020	0.0	0.292524752	0.278214814	0.002835180	0.029250030	0.009015143
2020-08-30T14:55:00	0.1388	15.011	0.0	0.296271096	0.285186644	0.002930988	0.030238461	0.009319787
2020-08-30T15:00:00	0.1384	15.032	0.0	0.295505277	0.283754283	0.002911239	0.030034718	0.009256992
2020-08-30T15:05:00	0.1377	14.969	0.0	0.294124035	0.281180207	0.002875833	0.029669444	0.009144411
2020-08-30T15:10:00	0.1385	14.935	0.0	0.295614069	0.283957539	0.002914040	0.030063609	0.009265896
2020-08-30T15:15:00	0.1380	14.954	0.0	0.294643066	0.282146060	0.002889106	0.029806372	0.009186613
2020-08-30T15:20:00	0.1380	14.943	0.0	0.294697471	0.282247399	0.002890499	0.029820748	0.009191044
2020-08-30T15:25:00	0.1377	14.911	0.0	0.293931437	0.280822237	0.002870918	0.029618734	0.009128782
2020-08-30T15:30:00	0.1385	14.925	0.0	0.295626588	0.283980932	0.002914362	0.030066935	0.009266921
2020-08-30T15:35:00	0.1377	14.953	0.0	0.294040259	0.281024469	0.002873695	0.029647380	0.009137610
2020-08-30T15:40:00	0.1373	14.923	0.0	0.293274135	0.279602313	0.002854184	0.029446086	0.009075570
2020-08-30T15:45:00	0.1368	14.943	0.0	0.292097533	0.277425394	0.002824382	0.029138629	0.008980808
2020-08-30T15:50:00	0.1355	14.925	0.0	0.289483820	0.272620796	0.002758886	0.028462922	0.008772549
2020-08-30T15:55:00	0.1342	14.932	0.0	0.286868821	0.267856930	0.002694328	0.027796883	0.008567269
2020-08-30T16:00:00	0.1343	14.960	0.0	0.287128693	0.268328423	0.002700700	0.027862626	0.008587532
2020-08-30T16:05:00	0.1328	15.001	0.0	0.283965226	0.262617819	0.002623773	0.027068983	0.008342924
2020-08-30T16:10:00	0.1314	15.014	0.0	0.281005413	0.257331959	0.002553067	0.026339518	0.008118095
2020-08-30T16:15:00	0.1305	15.051	0.0	0.279278213	0.254272904	0.002512369	0.025919648	0.007988687
2020-08-30T16:20:00	0.1292	15.081	0.0	0.276521375	0.249429199	0.002448265	0.025258298	0.007784853
2020-08-30T16:25:00	0.1283	15.128	0.0	0.274792546	0.246416117	0.002408598	0.024849065	0.007658723
2020-08-30T16:30:00	0.1288	15.119	0.0	0.275740036	0.248065114	0.002430287	0.025072822	0.007727687
2020-08-30T16:35:00	0.1297	15.146	0.0	0.277510539	0.251161629	0.002471145	0.025494349	0.007857606
2020-08-30T16:40:00	0.1304	15.089	0.0	0.279074669	0.253913643	0.002507600	0.025870449	0.007973524
2020-08-30T16:45:00	0.1302	15.027	0.0	0.278581358	0.253044023	0.002496066	0.025751454	0.007936848
2020-08-30T16:50:00	0.1292	15.013	0.0	0.276647471	0.249649701	0.002451174	0.025288311	0.007794103
2020-08-30T16:55:00	0.1289	14.996	0.0	0.275948061	0.248427914	0.002435065	0.025122119	0.007742881
2020-08-30T17:00:00	0.1276	14.990	0.0	0.273189260	0.243638666	0.002372178	0.024473323	0.007542916
2020-08-30T17:05:00	0.1266	14.979	0.0	0.271253113	0.240306173	0.002328663	0.024024391	0.007404551
2020-08-30T17:10:00	0.1265	15.031	0.0	0.270965049	0.239812375	0.002322233	0.023958047	0.007384103
2020-08-30T17:15:00	0.1271	15.045	0.0	0.272325384	0.242148846	0.002352700	0.024272367	0.007480979
2020-08-30T17:20:00	0.1265	15.018	0.0	0.271007132	0.239884481	0.002323172	0.023967732	0.007387088
2020-08-30T17:25:00	0.1257	14.984	0.0	0.269276197	0.236927874	0.002284757	0.023571422	0.007264941
2020-08-30T17:30:00	0.1255	14.981	0.0	0.268988003	0.236437444	0.002278401	0.023505844	0.007244729
2020-08-30T17:35:00	0.1249	14.970	0.0	0.267668752	0.234199101	0.002249446	0.023207124	0.007152661
2020-08-30T17:40:00	0.1254	14.947	0.0	0.268823933	0.236158473	0.002274787	0.023468561	0.007233238
2020-08-30T17:45:00	0.1254	14.949	0.0	0.268741896	0.236019047	0.002272982	0.023449934	0.007227497
2020-08-30T17:50:00	0.1252	14.928	0.0	0.268247467	0.235179644	0.002262119	0.023337865	0.007192957
2020-08-30T17:55:00	0.1256	14.872	0.0	0.269196340	0.236791925	0.002282995	0.023553239	0.007259337
2020-08-30T18:00:00	0.1250	14.828	0.0	0.267877151	0.234551959	0.002254005	0.023254151	0.007167155
2020-08-30T18:05:00	0.1251	14.796	0.0	0.268207529	0.235111908	0.002261243	0.023328828	0.007190171
2020-08-30T18:10:00	0.1246	14.783	0.0	0.267094304	0.233227875	0.002236912	0.023077806	0.007112804
2020-08-30T18:15:00	0.1234	14.772	0.0	0.264536342	0.228928333	0.002181633	0.022507508	0.006937033
2020-08-30T18:20:00	0.1216	14.786	0.0	0.260944110	0.222959909	0.002105477	0.021721814	0.006694874
2020-08-30T18:25:00	0.1217	14.797	0.0	0.261068483	0.223165194	0.002108085	0.021748722	0.006703167
2020-08-30T18:30:00	0.1235	14.846	0.0	0.264909123	0.229552355	0.002189635	0.022590058	0.006962475
2020-08-30T18:35:00	0.1233	14.857	0.0	0.264414248	0.228724142	0.002179017	0.022480513	0.006928713
2020-08-30T18:40:00	0.1240	14.846	0.0	0.265776643	0.231007942	0.002208327	0.022782905	0.007021913
2020-08-30T18:45:00	0.1243	14.804	0.0	0.266519779	0.232258598	0.002224420	0.022948928	0.007073083
2020-08-30T18:50:00	0.1218	14.777	0.0	0.261277213	0.223509935	0.002112467	0.021793927	0.006717100
2020-08-30T18:55:00	0.1198	14.772	0.0	0.257268574	0.216937181	0.002029320	0.020936117	0.006452715
2020-08-30T19:00:00	0.1180	14.797	0.0	0.253462749	0.210790591	0.001952327	0.020141801	0.006207899
2020-08-30T19:05:00	0.1164	14.815	0.0	0.250067367	0.205383840	0.001885224	0.019449507	0.005994527
2020-08-30T19:10:00	0.1164	14.840	0.0	0.250192096	0.205581174	0.001887663	0.019474667	0.006002282
2020-08-30T19:15:00	0.1181	14.854	0.0	0.253629626	0.211058195	0.001955664	0.020176222	0.006218508
2020-08-30T19:20:00	0.1179	14.863	0.0	0.253340311	0.210594362	0.001949882	0.020116569	0.006200122
2020-08-30T19:25:00	0.1165	14.799	0.0	0.250359123	0.205845578	0.001890932	0.019508392	0.006012676
2020-08-30T19:30:00	0.1153	14.772	0.0	0.247790073	0.201798164	0.001841048	0.018993753	0.005854059
2020-08-30T19:35:00	0.1155	14.765	0.0	0.248329427	0.202644447	0.001851451	0.019101075	0.005887137
2020-08-30T19:40:00	0.1167	14.754	0.0	0.250733268	0.206438492	0.001898267	0.019584070	0.006036001
2020-08-30T19:45:00	0.1173	14.779	0.0	0.252100443	0.208612562	0.001925225	0.019862192	0.006121720
2020-08-30T19:50:00	0.1181	14.772	0.0	0.253674069	0.211129494	0.001956553	0.020185396	0.006221335
2020-08-30T19:55:00	0.1187	14.761	0.0	0.254833272	0.212993547	0.001979836	0.020425601	0.006295369
2020-08-30T20:00:00	0.1180	14.732	0.0	0.253509374	0.210865342	0.001953259	0.020151414	0.006210862
2020-08-30T20:05:00	0.1180	14.716	0.0	0.253427023	0.210733325	0.001951613	0.020134437	0.006205629
2020-08-30T20:10:00	0.1174	14.721	0.0	0.252309661	0.208946297	0.001929372	0.019904972	0.006134906
2020-08-30T20:15:00	0.1170	14.696	0.0	0.251399048	0.207495739	0.001911365	0.019719198	0.006077648
2020-08-30T20:20:00	0.1169	14.694	0.0	0.251109557	0.207035689	0.001905663	0.019660370	0.006059517
2020-08-30T20:25:00	0.1172	14.686	0.0	0.251855473	0.208222148	0.001920377	0.019812175	0.006106305
2020-08-30T20:30:00	0.1166	14.661	0.0	0.250530506	0.206117061	0.001894289	0.019543034	0.006023353
2020-08-30T20:35:00	0.1167	14.663	0.0	0.250655219	0.206314733	0.001896735	0.019568268	0.006031130
2020-08-30T20:40:00	0.1168	14.669	0.0	0.250987040	0.206841148	0.001903253	0.019635507	0.006051854
2020-08-30T20:45:00	0.1170	14.649	0.0	0.251318831	0.207368209	0.001909784	0.019702886	0.006072621
2020-08-30T20:50:00	0.1170	14.636	0.0	0.251443518	0.207566456	0.001912242	0.019728245	0.006080437
2020-08-30T20:55:00	0.1174	14.626	0.0	0.252189366	0.208754374	0.001926987	0.019880368	0.006127322
2020-08-30T21:00:00	0.1175	14.617	0.0	0.252314023	0.208953257	0.001929458	0.019905865	0.006135181
2020-08-30T21:05:00	0.1171	14.615	0.0	0.251610487	0.207832084	0.001915536	0.019762235	0.006090913
2020-08-30T21:10:00	0.1176	14.610	0.0	0.252563323	0.209351296	0.001934407	0.019956919	0.006150916
2020-08-30T21:15:00	0.1177	14.594	0.0	0.252894972	0.209881420	0.001941003	0.020024965	0.006171889
2020-08-30T21:20:00	0.1177	14.566	0.0	0.252812607	0.209749700	0.001939363	0.020008052	0.006166676
2020-08-30T21:25:00	0.1169	14.533	0.0	0.251073809	0.206978915	0.001904959	0.019653113	0.006057280
2020-08-30T21:30:00	0.1178	14.507	0.0	0.253061875	0.210148468	0.001944327	0.020059265	0.006182460
2020-08-30T21:35:00	0.1185	14.490	0.0	0.254428186	0.212341188	0.001971680	0.020341456	0.006269434
2020-08-30T21:40:00	0.1163	14.474	0.0	0.249998032	0.205274188	0.001883869	0.019435530	0.005990219
2020-08-30T21:45:00	0.1123	14.444	0.0	0.241619012	0.192245636	0.001724656	0.017792960	0.005483963
2020-08-30T21:50:00	0.1116	14.395	0.0	0.240082331	0.189904177	0.001696420	0.017501649	0.005394178
2020-08-30T21:55:00	0.1152	14.370	0.0	0.247678360	0.201623109	0.001838898	0.018971572	0.005847223
2020-08-30T22:00:00	0.1171	14.360	0.0	0.251532456	0.207707925	0.001913996	0.019746346	0.006086015
2020-08-30T22:05:00	0.1186	14.345	0.0	0.254681376	0.212748809	0.001976775	0.020394023	0.006285636
2020-08-30T22:10:00	0.1179	14.339	0.0	0.253276922	0.210492807	0.001948616	0.020103514	0.006196098
2020-08-30T22:15:00	0.1180	14.298	0.0	0.253528010	0.210895223	0.001953632	0.020155258	0.006212046
2020-08-30T22:20:00	0.1185	14.253	0.0	0.254399876	0.212295635	0.001971110	0.020335584	0.006267624
2020-08-30T22:25:00	0.1182	14.200	0.0	0.253823194	0.211368819	0.001959538	0.020216196	0.006230828
2020-08-30T22:30:00	0.1175	14.172	0.0	0.252418416	0.209119886	0.001931529	0.019927233	0.006141767
2020-08-30T22:35:00	0.1178	14.170	0.0	0.253083560	0.210183179	0.001944759	0.020063725	0.006183835
2020-08-30T22:40:00	0.1183	14.147	0.0	0.254162464	0.211913824	0.001966341	0.020286379	0.006252459
2020-08-30T22:45:00	0.1192	14.143	0.0	0.255861611	0.214654246	0.002000637	0.020640199	0.006361510
2020-08-30T22:50:00	0.1188	14.160	61.0	0.255078281	0.213388616	0.001984779	0.020476602	0.006311087
2020-08-30T22:55:00	0.1179	14.139	0.0	0.253260043	0.210465770	0.001948279	0.020100039	0.006195027
2020-08-30T23:00:00	0.1199	14.121	4.0	0.257441396	0.217218462	0.002032861	0.020972650	0.006463974
2020-08-30T23:05:00	0.1188	14.135	71.0	0.255003697	0.213268312	0.001983274	0.020461068	0.006306300
2020-08-30T23:10:00	0.1194	14.106	0.0	0.256288868	0.215346194	0.002009320	0.020729779	0.006389119
2020-08-30T23:15:00	0.1195	14.095	0.0	0.256539755	0.215753046	0.002014429	0.020782496	0.006405367
2020-08-30T23:20:00	0.1187	14.083	0.0	0.254929112	0.213148042	0.001981769	0.020445541	0.006301514
2020-08-30T23:25:00	0.1199	14.088	74.0	0.257455001	0.217240614	0.002033140	0.020975527	0.006464861
2020-08-30T23:30:00	0.1197	14.091	44.0	0.256878782	0.216303458	0.002021347	0.020853867	0.006427364
2020-08-30T23:35:00	0.1226	14.114	37.0	0.262914842	0.226224180	0.002147045	0.022150663	0.006827050
2020-08-30T23:40:00	0.1269	14.146	172.0	0.271827482	0.241292313	0.002341519	0.024157021	0.007445428
2020-08-30T23:45:00	0.1283	14.147	172.0	0.274754975	0.246350846	0.002407741	0.024840219	0.007655997
2020-08-30T23:50:00	0.1321	14.150	172.0	0.282616707	0.260202684	0.002591407	0.026735069	0.008240008
2020-08-30T23:55:00	0.1317	14.154	175.0	0.281632593	0.258447415	0.002567947	0.026493039	0.008165412
2020-08-31T00:00:00	0.1343	14.151	170.0	0.287019334	0.268129959	0.002698017	0.027834949	0.008579001
2020-08-31T00:05:00	0.1361	14.143	175.0	0.290758790	0.274959100	0.002790714	0.028791280	0.008873752
2020-08-31T00:10:00	0.1385	14.135	170.0	0.295726133	0.284166986	0.002916926	0.030093387	0.009275074
2020-08-31T00:15:00	0.1403	14.125	171.0	0.299254749	0.290802432	0.003008736	0.031040572	0.009567006
2020-08-31T00:20:00	0.1434	14.114	170.0	0.305647889	0.303024515	0.003179684	0.032804217	0.010110578
2020-08-31T00:25:00	0.1447	14.101	170.0	0.308352216	0.308272087	0.003253800	0.033568858	0.010346248
2020-08-31T00:30:00	0.1464	14.083	168.0	0.311873488	0.315174021	0.003351928	0.034581224	0.010658269
2020-08-31T00:35:00	0.1482	14.068	167.0	0.315597260	0.322557952	0.003457710	0.035672555	0.010994628
2020-08-31T00:40:00	0.1505	14.044	167.0	0.321541154	0.331661785	0.003599801	0.037138480	0.011446440
2020-08-31T00:45:00	0.1520	14.021	167.0	0.326007356	0.337935898	0.003701785	0.038190637	0.011770725
2020-08-31T00:50:00	0.1547	13.992	165.0	0.333959901	0.349234693	0.003887516	0.040106790	0.012361302
2020-08-31T00:55:00	0.1571	13.966	163.0	0.340997164	0.359369566	0.004056335	0.041848457	0.012898101
2020-08-31T01:00:00	0.1597	13.941	163.0	0.348575746	0.370428268	0.004242881	0.043773023	0.013491271
2020-08-31T01:05:00	0.1642	13.919	161.0	0.361267030	0.389284953	0.004566448	0.047111198	0.014520129
2020-08-31T01:10:00	0.1676	13.899	161.0	0.371011666	0.404052667	0.004824530	0.049773785	0.015340764
2020-08-31T01:15:00	0.1701	13.880	157.0	0.378151727	0.415033902	0.005019028	0.051780385	0.015959218
2020-08-31T01:20:00	0.1718	13.863	156.0	0.383006681	0.422578747	0.005153914	0.053171984	0.016388122
2020-08-31T01:25:00	0.1748	13.848	156.0	0.391490648	0.435915706	0.005394801	0.055657166	0.017154079
2020-08-31T01:30:00	0.1790	13.835	155.0	0.402988209	0.454301443	0.005731887	0.059134826	0.018225928
2020-08-31T01:35:00	0.1840	13.818	151.0	0.416883415	0.477003286	0.006155875	0.063509022	0.019574098
2020-08-31T01:40:00	0.1858	13.807	154.0	0.421893706	0.485319363	0.006313279	0.065132932	0.020074602
2020-08-31T01:45:00	0.1874	13.797	153.0	0.426340825	0.492758853	0.006455021	0.066595267	0.020525308
2020-08-31T01:50:00	0.1885	13.792	155.0	0.429136000	0.497462913	0.006545095	0.067524543	0.020811720
2020-08-31T01:55:00	0.1909	13.785	154.0	0.435743878	0.508669877	0.006761071	0.069752728	0.021498468
2020-08-31T02:00:00	0.1926	13.780	155.0	0.440425524	0.516683686	0.006916691	0.071358227	0.021993298
2020-08-31T02:05:00	0.1947	13.778	155.0	0.447643724	0.526598350	0.007126229	0.073519996	0.022659577
2020-08-31T02:10:00	0.1960	13.778	156.0	0.452249123	0.532784801	0.007259315	0.074893011	0.023082753
2020-08-31T02:15:00	0.1964	13.778	156.0	0.453368103	0.534290455	0.007291833	0.075228494	0.023186153
2020-08-31T02:20:00	0.1988	13.775	156.0	0.461788344	0.545652107	0.007538816	0.077776571	0.023971495
2020-08-31T02:25:00	0.2009	13.771	156.0	0.469148047	0.555628710	0.007758003	0.080037884	0.024668453
2020-08-31T02:30:00	0.2011	13.767	157.0	0.469914958	0.556670784	0.007781021	0.080275358	0.024741645
2020-08-31T02:35:00	0.2033	13.764	157.0	0.477602694	0.567142677	0.008013621	0.082675054	0.025481255
2020-08-31T02:40:00	0.2056	13.762	157.0	0.485273008	0.577637770	0.008249070	0.085104133	0.026229920
2020-08-31T02:45:00	0.2077	13.759	157.0	0.492581868	0.587682048	0.008476567	0.087451182	0.026953304
2020-08-31T02:50:00	0.2094	13.752	158.0	0.498501035	0.595847904	0.008663062	0.089375216	0.027546310
2020-08-31T02:55:00	0.2105	13.749	158.0	0.502351433	0.601174878	0.008785461	0.090637983	0.027935507
2020-08-31T03:00:00	0.2106	13.745	157.0	0.502424586	0.601276200	0.008787795	0.090662060	0.027942927
2020-08-31T03:05:00	0.2118	13.742	158.0	0.506613342	0.607085086	0.008921940	0.092046008	0.028369474
2020-08-31T03:10:00	0.2128	13.741	158.0	0.510112221	0.611948107	0.009034769	0.093210047	0.028728242
2020-08-31T03:15:00	0.2132	13.739	159.0	0.511554547	0.613955642	0.009081486	0.093692021	0.028876791
2020-08-31T03:20:00	0.2128	13.738	159.0	0.510258195	0.612151208	0.009039492	0.093258770	0.028743259
2020-08-31T03:25:00	0.2136	13.733	159.0	0.512727060	0.615588871	0.009119553	0.094084749	0.028997833
2020-08-31T03:30:00	0.2145	13.730	159.0	0.515877884	0.619983256	0.009222243	0.095144177	0.029324359
2020-08-31T03:35:00	0.2161	13.727	159.0	0.521415635	0.627726109	0.009404121	0.097020581	0.029902685
2020-08-31T03:40:00	0.2162	13.724	159.0	0.521829642	0.628305971	0.009417790	0.097161601	0.029946149
2020-08-31T03:45:00	0.2165	13.722	159.0	0.522925935	0.629842118	0.009454033	0.097535519	0.030061394
2020-08-31T03:50:00	0.2163	13.719	160.0	0.521975118	0.628509759	0.009422595	0.097211178	0.029961429
2020-08-31T03:55:00	0.2167	13.718	160.0	0.523412467	0.630524169	0.009470140	0.097701694	0.030112611
2020-08-31T04:00:00	0.2177	13.715	160.0	0.526894268	0.635410782	0.009585811	0.098895047	0.030480414
2020-08-31T04:05:00	0.2184	13.713	161.0	0.529342070	0.638852104	0.009667553	0.099738366	0.030740333
2020-08-31T04:10:00	0.2185	13.713	161.0	0.529745986	0.639420431	0.009681075	0.099877870	0.030783329
2020-08-31T04:15:00	0.2177	13.712	161.0	0.526743982	0.635199657	0.009580804	0.098843388	0.030464492
2020-08-31T04:20:00	0.2183	13.709	162.0	0.528851361	0.638161834	0.009651139	0.099569018	0.030688138
2020-08-31T04:25:00	0.2184	13.708	162.0	0.529255334	0.638730080	0.009664651	0.099708422	0.030731104
2020-08-31T04:30:00	0.2177	13.707	162.0	0.526934444	0.635467225	0.009587150	0.098908859	0.030484671
2020-08-31T04:35:00	0.2183	13.704	163.0	0.529041705	0.638429564	0.009657504	0.099634690	0.030708379
2020-08-31T04:40:00	0.2176	13.705	163.0	0.526379896	0.634688255	0.009568679	0.098718293	0.030425937
2020-08-31T04:45:00	0.2174	13.703	163.0	0.525761753	0.633820247	0.009548110	0.098506090	0.030360534
2020-08-31T04:50:00	0.2161	13.702	164.0	0.521391398	0.627692167	0.009403321	0.097012329	0.029900142
2020-08-31T04:55:00	0.2176	13.700	165.0	0.526570378	0.634955795	0.009575021	0.098783730	0.030446105
2020-08-31T05:00:00	0.2173	13.698	165.0	0.525611418	0.633609190	0.009543111	0.098454516	0.030344638
2020-08-31T05:05:00	0.2170	13.694	164.0	0.524311211	0.631784588	0.009499931	0.098009032	0.030207336
2020-08-31T05:10:00	0.2163	13.688	164.0	0.521986983	0.628526381	0.009422987	0.097215222	0.029962676
2020-08-31T05:15:00	0.2151	13.682	164.0	0.517953469	0.622882416	0.009290203	0.095845313	0.029540456
2020-08-31T05:20:00	0.2170	13.681	165.0	0.524501807	0.632051968	0.009506254	0.098074272	0.030227443
2020-08-31T05:25:00	0.2172	13.679	166.0	0.525247211	0.633097955	0.009531006	0.098329627	0.030306146
2020-08-31T05:30:00	0.2162	13.678	166.0	0.521900062	0.628404615	0.009420116	0.097185598	0.029953545
2020-08-31T05:35:00	0.2159	13.677	166.0	0.520598451	0.626581964	0.009377170	0.096742532	0.029816988
2020-08-31T05:40:00	0.2156	13.675	167.0	0.519637824	0.625237676	0.009345538	0.096416188	0.029716405
2020-08-31T05:45:00	0.2147	13.674	167.0	0.516626981	0.621029186	0.009246741	0.095396926	0.029402259
2020-08-31T05:50:00	0.2147	13.673	167.0	0.516690656	0.621118114	0.009248825	0.095418426	0.029408885
2020-08-31T05:55:00	0.2148	13.674	172.0	0.517096061	0.621684373	0.009262099	0.095555367	0.029451092
2020-08-31T06:00:00	0.2144	13.675	168.0	0.515450767	0.619387095	0.009208289	0.095000216	0.029279989
2020-08-31T06:05:00	0.2142	13.678	168.0	0.514830655	0.618521817	0.009188048	0.094791399	0.029215630
2020-08-31T06:10:00	0.2141	13.681	173.0	0.514552414	0.618133673	0.009178974	0.094697779	0.029186775
2020-08-31T06:15:00	0.2148	13.684	169.0	0.517009016	0.621562779	0.009259248	0.095525955	0.029442027
2020-08-31T06:20:00	0.2148	13.688	170.0	0.517072684	0.621651717	0.009261333	0.095547467	0.029448657
2020-08-31T06:25:00	0.2145	13.692	174.0	0.516111070	0.620308794	0.009229865	0.095222819	0.029348598
2020-08-31T06:30:00	0.2145	13.697	170.0	0.515832933	0.619920507	0.009220774	0.095129021	0.029319688
2020-08-31T06:35:00	0.2157	13.702	175.0	0.519996167	0.625739048	0.009357331	0.096537859	0.029753906
2020-08-31T06:40:00	0.2161	13.705	171.0	0.521425182	0.627739480	0.009404436	0.097023832	0.029903687
2020-08-31T06:45:00	0.2157	13.710	172.0	0.520123392	0.625917079	0.009361520	0.096581076	0.029767225
2020-08-31T06:50:00	0.2161	13.715	177.0	0.521552354	0.627917584	0.009408634	0.097067139	0.029917035
2020-08-31T06:55:00	0.2157	13.720	173.0	0.519909195	0.625617353	0.009354468	0.096508322	0.029744802
2020-08-31T07:00:00	0.2158	13.727	178.0	0.520314220	0.626184137	0.009367805	0.096645915	0.029787210
2020-08-31T07:05:00	0.2156	13.731	178.0	0.519694985	0.625317645	0.009347418	0.096435591	0.029722386
2020-08-31T07:10:00	0.2154	13.736	178.0	0.519075639	0.624451308	0.009327050	0.096225459	0.029657621
2020-08-31T07:15:00	0.2139	13.741	179.0	0.514012793	0.617381085	0.009161387	0.094516345	0.029130855
2020-08-31T07:20:00	0.2137	13.747	175.0	0.513050321	0.616039346	0.009130062	0.094193168	0.029031249
2020-08-31T07:25:00	0.2134	13.752	179.0	0.512087578	0.614697980	0.009098782	0.093870455	0.028931786
2020-08-31T07:30:00	0.2130	13.759	179.0	0.510782238	0.612880478	0.009056456	0.093433788	0.028797201
2020-08-31T07:35:00	0.2129	13.764	180.0	0.510503669	0.612492786	0.009047436	0.093340732	0.028768520
2020-08-31T07:40:00	0.2118	13.769	180.0	0.506799373	0.607343398	0.008927921	0.092107714	0.028388492
2020-08-31T07:45:00	0.2109	13.778	181.0	0.503777219	0.603150460	0.008831002	0.091107821	0.028080315
2020-08-31T07:50:00	0.2105	13.788	181.0	0.502125509	0.600861987	0.008778256	0.090563646	0.027912595
2020-08-31T07:55:00	0.2099	13.794	182.0	0.500129606	0.598099555	0.008714728	0.089908241	0.027710593
2020-08-31T08:00:00	0.2084	13.802	182.0	0.495038612	0.591067864	0.008553727	0.088247222	0.027198651
2020-08-31T08:05:00	0.2077	13.813	182.0	0.492694408	0.587837041	0.008480094	0.087487569	0.026964518
2020-08-31T08:10:00	0.2073	13.823	183.0	0.491381630	0.586029672	0.008438998	0.087063582	0.026833841
2020-08-31T08:15:00	0.2078	13.834	183.0	0.492822653	0.588013676	0.008484114	0.087529043	0.026977301
2020-08-31T08:20:00	0.2085	13.842	184.0	0.495294920	0.591421380	0.008561797	0.088330478	0.027224311
2020-08-31T08:25:00	0.2086	13.850	184.0	0.495702870	0.591984157	0.008574649	0.088463072	0.027265178
2020-08-31T08:30:00	0.2071	13.860	184.0	0.490605249	0.584961439	0.008414739	0.086813316	0.026756707
2020-08-31T08:35:00	0.2081	13.869	184.0	0.494111341	0.589789356	0.008524563	0.087946344	0.027105917
2020-08-31T08:40:00	0.2088	13.879	185.0	0.496238886	0.592723810	0.008591550	0.088637442	0.027318920
2020-08-31T08:45:00	0.2230	13.887	185.0	0.544777678	0.660665254	0.010191067	0.105139357	0.032404971
2020-08-31T08:50:00	0.2302	13.898	185.0	0.569161807	0.695522117	0.011046552	0.113965244	0.035125195
2020-08-31T08:55:00	0.2335	13.904	185.0	0.580315072	0.711629120	0.011449546	0.118122852	0.036406610
2020-08-31T09:00:00	0.2352	13.914	185.0	0.586077152	0.719990863	0.011660634	0.120300609	0.037077816
2020-08-31T09:05:00	0.2361	13.923	185.0	0.589153194	0.724466023	0.011774130	0.121471527	0.037438704
2020-08-31T09:10:00	0.2388	13.936	185.0	0.597906994	0.737244592	0.012100203	0.124835565	0.038475533
2020-08-31T09:15:00	0.2396	13.953	185.0	0.600639145	0.741246019	0.012202911	0.125895181	0.038802118
2020-08-31T09:20:00	0.2392	13.968	185.0	0.599366606	0.739381520	0.012155018	0.125401077	0.038649830
2020-08-31T09:25:00	0.2391	13.993	185.0	0.599095040	0.738983802	0.012144810	0.125295762	0.038617371
2020-08-31T09:30:00	0.2382	14.019	185.0	0.596152136	0.734677770	0.012034469	0.124157401	0.038266517
2020-08-31T09:35:00	0.2382	14.045	185.0	0.595880322	0.734280419	0.012024304	0.124052529	0.038234194
2020-08-31T09:40:00	0.2404	14.056	186.0	0.603284270	0.745125942	0.012302773	0.126925436	0.039119652
2020-08-31T09:45:00	0.2398	14.073	186.0	0.601345644	0.742281754	0.012229542	0.126169934	0.038886799
2020-08-31T09:50:00	0.2395	14.091	186.0	0.600407015	0.740905806	0.012194167	0.125804975	0.038774315
2020-08-31T09:55:00	0.2401	14.112	187.0	0.602470410	0.743931532	0.012272002	0.126607984	0.039021810
2020-08-31T10:00:00	0.2407	14.136	187.0	0.604199337	0.746469545	0.012337417	0.127282853	0.039229812
2020-08-31T10:05:00	0.2415	14.148	187.0	0.607009017	0.750599412	0.012444104	0.128383524	0.039569049
2020-08-31T10:10:00	0.2412	14.166	188.0	0.606154286	0.749342366	0.012411598	0.128048173	0.039465691
2020-08-31T10:15:00	0.2432	14.178	188.0	0.612621710	0.758869180	0.012658643	0.130596884	0.040251228
2020-08-31T10:20:00	0.2427	14.196	189.0	0.611103124	0.756629077	0.012600410	0.129996106	0.040066062
2020-08-31T10:25:00	0.2410	14.220	190.0	0.605255158	0.748020688	0.012377452	0.127695890	0.039357114
2020-08-31T10:30:00	0.2414	14.244	190.0	0.606732076	0.750192051	0.012433567	0.128274818	0.039535545
2020-08-31T10:35:00	0.2413	14.270	191.0	0.606210386	0.749424854	0.012413731	0.128070170	0.039472470
2020-08-31T10:40:00	0.2413	14.289	191.0	0.606354840	0.749637266	0.012419222	0.128126820	0.039489930
2020-08-31T10:45:00	0.2414	14.320	192.0	0.606832339	0.750339523	0.012437381	0.128314168	0.039547673
2020-08-31T10:50:00	0.2397	14.345	192.0	0.600977318	0.741741732	0.012215655	0.126026656	0.038842639
2020-08-31T10:55:00	0.2397	14.386	192.0	0.601121986	0.741953823	0.012221108	0.126082922	0.038859981
2020-08-31T11:00:00	0.2398	14.429	193.0	0.601266648	0.742165923	0.012226563	0.126139198	0.038877326
2020-08-31T11:05:00	0.2390	14.462	194.0	0.598741942	0.738466770	0.012131543	0.125158896	0.038575187
2020-08-31T11:10:00	0.2389	14.485	195.0	0.598219073	0.737701338	0.012111912	0.124956366	0.038512766
2020-08-31T11:15:00	0.2399	14.499	196.0	0.601700598	0.742802276	0.012242934	0.126308090	0.038929380
2020-08-31T11:20:00	0.2403	14.502	197.0	0.603178999	0.744971415	0.012298790	0.126884351	0.039106989
2020-08-31T11:25:00	0.2387	14.495	198.0	0.597651842	0.736871223	0.012090634	0.124736843	0.038445107
2020-08-31T11:30:00	0.2389	14.499	198.0	0.598464354	0.738060378	0.012121119	0.125051353	0.038542041
2020-08-31T11:35:00	0.2384	14.518	198.0	0.596605704	0.735340956	0.012051442	0.124332501	0.038320484
2020-08-31T11:40:00	0.2391	14.528	199.0	0.599087668	0.738973007	0.012144533	0.125292903	0.038616490
2020-08-31T11:45:00	0.2381	14.565	199.0	0.595559257	0.733811150	0.012012303	0.123928713	0.038196033
2020-08-31T11:50:00	0.2381	14.584	200.0	0.595704147	0.734022911	0.012017718	0.123984580	0.038213252
2020-08-31T11:55:00	0.2382	14.617	200.0	0.596183084	0.734723016	0.012035627	0.124169345	0.038270198
2020-08-31T12:00:00	0.2379	14.648	200.0	0.594991599	0.732981671	0.011991099	0.123709955	0.038128610
2020-08-31T12:05:00	0.2368	14.679	200.0	0.591459090	0.727825908	0.011859580	0.122353096	0.037710413
2020-08-31T12:10:00	0.2369	14.683	201.0	0.591604148	0.728037418	0.011864966	0.122408663	0.037727539
2020-08-31T12:15:00	0.2362	14.673	202.0	0.589407218	0.724835940	0.011783528	0.121568483	0.037468587
2020-08-31T12:20:00	0.2359	14.686	201.0	0.588213441	0.723097993	0.011739396	0.121113187	0.037328260
2020-08-31T12:25:00	0.2363	14.704	202.0	0.589697497	0.725258718	0.011794272	0.121679325	0.037502750
2020-08-31T12:30:00	0.2352	14.716	202.0	0.585824671	0.719623894	0.011651343	0.120204758	0.037048274
2020-08-31T12:35:00	0.2348	14.703	202.0	0.584629678	0.717887741	0.011607421	0.119751627	0.036908614
2020-08-31T12:40:00	0.2340	14.678	202.0	0.582093029	0.714206290	0.011514469	0.118792653	0.036613049
2020-08-31T12:45:00	0.2371	14.662	203.0	0.592284997	0.729030402	0.011890262	0.122669644	0.037807976
2020-08-31T12:50:00	0.2361	14.645	202.0	0.589084501	0.724366000	0.011771589	0.121445315	0.037430626
2020-08-31T12:55:00	0.2377	14.624	202.0	0.594246541	0.731893379	0.011963297	0.123423134	0.038040209
2020-08-31T13:00:00	0.2385	14.602	200.0	0.597064132	0.736011421	0.012068608	0.124509605	0.038375069
2020-08-31T13:05:00	0.2419	14.582	198.0	0.608211887	0.752369499	0.012489923	0.128856232	0.039714742
2020-08-31T13:10:00	0.2410	14.574	198.0	0.605358971	0.748173255	0.012381392	0.127736540	0.039369642
2020-08-31T13:15:00	0.2392	14.570	198.0	0.599501512	0.739579118	0.012160090	0.125453411	0.038665960
2020-08-31T13:20:00	0.2389	14.567	198.0	0.598311145	0.737836107	0.012115368	0.124992017	0.038523754
2020-08-31T13:25:00	0.2377	14.564	198.0	0.594447772	0.732187267	0.011970803	0.123500568	0.038064074
2020-08-31T13:30:00	0.2394	14.558	198.0	0.599935679	0.740215147	0.012176423	0.125621914	0.038717894
2020-08-31T13:35:00	0.2393	14.551	198.0	0.599746704	0.739938290	0.012169313	0.125548557	0.038695285
2020-08-31T13:40:00	0.2380	14.545	198.0	0.595216705	0.733310571	0.011999505	0.123796680	0.038155339
2020-08-31T13:45:00	0.2370	14.541	199.0	0.592018870	0.728642224	0.011880371	0.122567599	0.037776524
2020-08-31T13:50:00	0.2372	14.537	199.0	0.592832679	0.729829450	0.011910631	0.122879788	0.037872744
2020-08-31T13:55:00	0.2361	14.536	199.0	0.588963300	0.724189528	0.011767107	0.121399074	0.037416374
2020-08-31T14:00:00	0.2350	14.535	200.0	0.585424741	0.719042720	0.011636634	0.120053010	0.037001504
2020-08-31T14:05:00	0.2345	14.535	200.0	0.583559203	0.716333503	0.011568148	0.119346455	0.036783737
2020-08-31T14:10:00	0.2333	14.535	201.0	0.579679609	0.710708644	0.011426387	0.117883926	0.036332971
2020-08-31T14:15:00	0.2335	14.533	201.0	0.580160730	0.711405523	0.011443919	0.118064799	0.036388718
2020-08-31T14:20:00	0.2322	14.532	202.0	0.575941429	0.705300633	0.011290637	0.116483425	0.035901323
2020-08-31T14:25:00	0.2313	14.529	202.0	0.573062265	0.701143254	0.011186647	0.115410577	0.035570661
2020-08-31T14:30:00	0.2324	14.526	203.0	0.576568743	0.706207357	0.011313360	0.116717850	0.035973575
2020-08-31T14:35:00	0.2316	14.525	203.0	0.574026260	0.702534453	0.011221410	0.115769222	0.035681198
2020-08-31T14:40:00	0.2323	14.524	203.0	0.576188266	0.705657375	0.011299576	0.116575639	0.035929744
2020-08-31T14:45:00	0.2327	14.522	203.0	0.577677407	0.707810625	0.011353575	0.117132742	0.036101449
2020-08-31T14:50:00	0.2320	14.521	204.0	0.575135728	0.704136547	0.011261488	0.116182691	0.035808634
2020-08-31T14:55:00	0.2315	14.521	204.0	0.573600918	0.701920522	0.011206065	0.115610908	0.035632405
2020-08-31T15:00:00	0.2308	14.519	205.0	0.571056279	0.698250759	0.011114485	0.114666090	0.035341203
2020-08-31T15:05:00	0.2317	14.517	205.0	0.574228651	0.702826634	0.011228716	0.115844591	0.035704428
2020-08-31T15:10:00	0.2323	14.517	205.0	0.576390533	0.705949738	0.011306903	0.116651229	0.035953042
2020-08-31T15:15:00	0.2328	14.517	205.0	0.577879588	0.708103114	0.011360917	0.117208485	0.036124793
2020-08-31T15:20:00	0.2319	14.519	205.0	0.575002017	0.703943411	0.011256654	0.116132820	0.035793263
2020-08-31T15:25:00	0.2307	14.520	206.0	0.570776497	0.697847598	0.011104439	0.114562449	0.035309259
2020-08-31T15:30:00	0.2298	14.521	206.0	0.567893081	0.693696406	0.011001177	0.113497111	0.034980912
2020-08-31T15:35:00	0.2299	14.524	206.0	0.568039116	0.693906484	0.011006395	0.113550945	0.034997504
2020-08-31T15:40:00	0.2302	14.525	207.0	0.569195129	0.695570085	0.011047745	0.113977552	0.035128988
2020-08-31T15:45:00	0.2300	14.525	207.0	0.568667848	0.694811145	0.011028875	0.113782867	0.035068985
2020-08-31T15:50:00	0.2298	14.524	207.0	0.567803756	0.693567916	0.010997986	0.113464189	0.034970765
2020-08-31T15:55:00	0.2292	14.524	207.0	0.565928815	0.690872428	0.010931113	0.112774275	0.034758127
2020-08-31T16:00:00	0.2279	14.522	207.0	0.561354955	0.684309041	0.010768849	0.111100231	0.034242170
2020-08-31T16:05:00	0.2282	14.520	208.0	0.562462416	0.685896640	0.010808025	0.111504397	0.034366738
2020-08-31T16:10:00	0.2276	14.518	208.0	0.560533808	0.683132539	0.010739849	0.110801037	0.034149956
2020-08-31T16:15:00	0.2269	14.516	209.0	0.557928796	0.679403873	0.010648110	0.109854583	0.033858250
2020-08-31T16:20:00	0.2266	14.515	209.0	0.557011195	0.678091801	0.010615890	0.109522182	0.033755800
2020-08-31T16:25:00	0.2256	14.513	210.0	0.553727392	0.673401987	0.010500993	0.108336810	0.033390457
2020-08-31T16:30:00	0.2255	14.511	210.0	0.553485013	0.673056181	0.010492538	0.108249577	0.033363571
2020-08-31T16:35:00	0.2252	14.511	210.0	0.552228000	0.671263553	0.010448742	0.107797742	0.033224311
2020-08-31T16:40:00	0.2253	14.511	210.0	0.552662008	0.671882345	0.010463853	0.107953638	0.033272360
2020-08-31T16:45:00	0.2258	14.511	209.0	0.554448380	0.674430917	0.010526165	0.108596508	0.033470499
2020-08-31T16:50:00	0.2253	14.513	209.0	0.552515327	0.671673196	0.010458744	0.107900937	0.033256117
2020-08-31T16:55:00	0.2253	14.515	210.0	0.552611097	0.671809751	0.010462079	0.107935345	0.033266722
2020-08-31T17:00:00	0.2258	14.516	209.0	0.554397495	0.674358285	0.010524388	0.108578170	0.033464846
2020-08-31T17:05:00	0.2266	14.517	209.0	0.557196440	0.678356627	0.010622391	0.109589246	0.033776470
2020-08-31T17:10:00	0.2265	14.515	209.0	0.556616491	0.677527629	0.010602046	0.109379358	0.033711780
2020-08-31T17:15:00	0.2270	14.512	209.0	0.558400834	0.680079107	0.010664703	0.110025779	0.033911014
2020-08-31T17:20:00	0.2277	14.510	209.0	0.560859164	0.683598628	0.010751334	0.110919535	0.034186478
2020-08-31T17:25:00	0.2284	14.508	210.0	0.562978566	0.686636911	0.010826308	0.111693019	0.034424873
2020-08-31T17:30:00	0.2292	14.504	210.0	0.565770632	0.690645151	0.010925480	0.112716167	0.034740217
2020-08-31T17:35:00	0.2291	14.499	210.0	0.565529089	0.690298142	0.010916883	0.112627467	0.034712879
2020-08-31T17:40:00	0.2294	14.494	210.0	0.566635226	0.691887652	0.010956284	0.113033959	0.034838164
2020-08-31T17:45:00	0.2290	14.487	210.0	0.565045952	0.689604196	0.010899696	0.112450154	0.034658229
2020-08-31T17:50:00	0.2291	14.481	210.0	0.565478366	0.690225278	0.010915078	0.112608844	0.034707140
2020-08-31T17:55:00	0.2293	14.474	210.0	0.566247639	0.691330577	0.010942469	0.112891440	0.034794238
2020-08-31T18:00:00	0.2283	14.468	209.0	0.562635302	0.686144572	0.010814147	0.111567559	0.034386205
2020-08-31T18:05:00	0.2281	14.460	209.0	0.562056257	0.685314273	0.010793649	0.111356083	0.034321026
2020-08-31T18:10:00	0.2265	14.452	209.0	0.556750908	0.677719744	0.010606760	0.109427986	0.033726768
2020-08-31T18:15:00	0.2250	14.445	210.0	0.551775777	0.670618954	0.010433008	0.107635423	0.033174283
2020-08-31T18:20:00	0.2254	14.437	209.0	0.552886288	0.672202176	0.010471666	0.108034244	0.033297203
2020-08-31T18:25:00	0.2271	14.427	209.0	0.558726389	0.680544909	0.010676155	0.110143927	0.033947428
2020-08-31T18:30:00	0.2273	14.418	209.0	0.559497153	0.681648060	0.010703293	0.110423905	0.034033720
2020-08-31T18:35:00	0.2268	14.408	209.0	0.557566903	0.678886321	0.010635397	0.109723426	0.033817826
2020-08-31T18:40:00	0.2267	14.397	209.0	0.557324791	0.678540132	0.010626896	0.109635725	0.033790795
2020-08-31T18:45:00	0.2264	14.386	209.0	0.556407030	0.677228288	0.010594703	0.109303602	0.033688432
2020-08-31T18:50:00	0.2257	14.374	209.0	0.554137013	0.673986509	0.010515291	0.108484316	0.033435920
2020-08-31T18:55:00	0.2241	14.364	209.0	0.548480963	0.665927596	0.010318741	0.106456544	0.032810941
2020-08-31T19:00:00	0.2231	14.350	209.0	0.545189085	0.661249306	0.010205211	0.105285277	0.032449945
2020-08-31T19:05:00	0.2232	14.338	209.0	0.545623973	0.661866843	0.010220173	0.105439636	0.032497520
2020-08-31T19:10:00	0.2242	14.325	210.0	0.549107176	0.666818550	0.010340409	0.106680096	0.032879842
2020-08-31T19:15:00	0.2230	14.311	209.0	0.544799102	0.660695665	0.010191803	0.105146953	0.032407312
2020-08-31T19:20:00	0.2227	14.299	209.0	0.543878025	0.659388549	0.010160172	0.104820619	0.032306733
2020-08-31T19:25:00	0.2223	14.285	210.0	0.542617527	0.657600881	0.010116965	0.104374861	0.032169346
2020-08-31T19:30:00	0.2221	14.273	209.0	0.541695870	0.656294587	0.010085431	0.104049537	0.032069078
2020-08-31T19:35:00	0.2213	14.259	210.0	0.539076683	0.652586121	0.009996090	0.103127821	0.031784996
2020-08-31T19:40:00	0.2205	14.245	210.0	0.536455511	0.648880455	0.009907083	0.102209551	0.031501976
2020-08-31T19:45:00	0.2194	14.231	210.0	0.532812031	0.643738817	0.009784028	0.100940013	0.031110692
2020-08-31T19:50:00	0.2201	14.217	210.0	0.534948626	0.646752644	0.009856096	0.101683521	0.031339849
2020-08-31T19:55:00	0.2200	14.203	210.0	0.534704930	0.646408704	0.009847862	0.101598579	0.031313669
2020-08-31T20:00:00	0.2206	14.187	210.0	0.536840355	0.649424174	0.009920126	0.102344113	0.031543450
2020-08-31T20:05:00	0.2211	14.172	211.0	0.538295295	0.651480851	0.009969515	0.102853645	0.031700492
2020-08-31T20:10:00	0.2213	14.157	211.0	0.539070607	0.652577524	0.009995884	0.103125688	0.031784339
2020-08-31T20:15:00	0.2215	14.140	211.0	0.539845745	0.653674443	0.010022282	0.103398032	0.031868278
2020-08-31T20:20:00	0.2206	14.126	210.0	0.536885418	0.649487848	0.009921654	0.102359875	0.031548308
2020-08-31T20:25:00	0.2196	14.110	210.0	0.533242391	0.644345573	0.009798523	0.101089552	0.031156782
2020-08-31T20:30:00	0.2197	14.096	210.0	0.533678784	0.644960988	0.009813232	0.101241301	0.031203552
2020-08-31T20:35:00	0.2191	14.082	210.0	0.531734104	0.642219732	0.009747771	0.100565952	0.030995403
2020-08-31T20:40:00	0.2194	14.068	211.0	0.532510890	0.643314334	0.009773892	0.100835441	0.031078462
2020-08-31T20:45:00	0.2193	14.053	211.0	0.532267021	0.642970636	0.009765687	0.100750797	0.031052374
2020-08-31T20:50:00	0.2197	14.038	211.0	0.533723888	0.645024603	0.009814752	0.101256991	0.031208388
2020-08-31T20:55:00	0.2214	14.026	211.0	0.539596319	0.653321419	0.010013783	0.103310357	0.031841255
2020-08-31T21:00:00	0.2227	14.015	211.0	0.543763810	0.659226513	0.010156253	0.104780189	0.032294272
2020-08-31T21:05:00	0.2224	14.002	211.0	0.542842458	0.657919787	0.010124668	0.104454334	0.032193840
2020-08-31T21:10:00	0.2227	13.990	211.0	0.543955831	0.659498938	0.010162842	0.104848166	0.032315223
2020-08-31T21:15:00	0.2227	13.978	211.0	0.543712768	0.659154104	0.010154502	0.104762124	0.032288704
2020-08-31T21:20:00	0.2226	13.967	211.0	0.543469689	0.658809295	0.010146165	0.104676111	0.032262194
2020-08-31T21:25:00	0.2231	13.957	211.0	0.545260796	0.661351124	0.010207677	0.105310722	0.032457787
2020-08-31T21:30:00	0.2232	13.946	211.0	0.545695675	0.661968674	0.010222640	0.105465097	0.032505367
2020-08-31T21:35:00	0.2235	13.937	211.0	0.546469333	0.663067689	0.010249288	0.105740017	0.032590100
2020-08-31T21:40:00	0.2233	13.927	211.0	0.545887590	0.662241252	0.010229247	0.105533260	0.032526376
2020-08-31T21:45:00	0.2228	13.918	211.0	0.544288809	0.659971415	0.010174273	0.104966095	0.032351570
2020-08-31T21:50:00	0.2227	13.910	211.0	0.543706700	0.659145496	0.010154294	0.104759976	0.032288042
2020-08-31T21:55:00	0.2217	13.900	211.0	0.540410282	0.654473642	0.010041530	0.103596609	0.031929481
2020-08-31T22:00:00	0.2209	13.889	211.0	0.537790121	0.650766551	0.009952352	0.102676585	0.031645921
2020-08-31T22:05:00	0.2206	13.878	211.0	0.536623616	0.649117944	0.009912779	0.102268318	0.031520089
2020-08-31T22:10:00	0.2207	13.866	211.0	0.537155780	0.649869907	0.009930823	0.102454469	0.031577462
2020-08-31T22:15:00	0.2197	13.854	211.0	0.533609336	0.644863040	0.009810890	0.101217144	0.031196107
2020-08-31T22:20:00	0.2208	13.841	211.0	0.537540546	0.650413736	0.009943879	0.102589167	0.031618978
2020-08-31T22:25:00	0.2214	13.827	211.0	0.539430858	0.653087263	0.010008148	0.103252217	0.031823336
2020-08-31T22:30:00	0.2214	13.814	211.0	0.539283616	0.652878910	0.010003134	0.103200492	0.031807394
2020-08-31T22:35:00	0.2214	13.802	211.0	0.539475886	0.653150984	0.010009681	0.103268037	0.031828212
2020-08-31T22:40:00	0.2225	13.788	211.0	0.543061304	0.658230108	0.010132166	0.104531687	0.032217681
2020-08-31T22:45:00	0.2212	13.776	211.0	0.538841854	0.652253904	0.009988100	0.103045385	0.031759589
2020-08-31T22:50:00	0.2193	13.763	211.0	0.532236580	0.642927736	0.009764664	0.100740234	0.031049118
2020-08-31T22:55:00	0.2198	13.750	211.0	0.534129794	0.645597180	0.009828445	0.101398253	0.031251926
2020-08-31T23:00:00	0.2188	13.736	211.0	0.530580239	0.640594681	0.009709034	0.100166313	0.030872230
2020-08-31T23:05:00	0.2195	13.723	210.0	0.533154675	0.644221891	0.009795567	0.101059064	0.031147385
2020-08-31T23:10:00	0.2204	13.711	211.0	0.536067045	0.648331739	0.009893926	0.102073812	0.031460140
2020-08-31T23:15:00	0.2207	13.696	211.0	0.536939061	0.649563648	0.009923473	0.102378640	0.031554091
2020-08-31T23:20:00	0.2198	13.682	210.0	0.534072526	0.645516388	0.009826512	0.101378317	0.031245782
2020-08-31T23:25:00	0.2211	13.669	210.0	0.538342838	0.651548087	0.009971131	0.102870317	0.031705631
2020-08-31T23:30:00	0.2215	13.657	211.0	0.539893268	0.653741709	0.010023901	0.103414741	0.031873427
2020-08-31T23:35:00	0.2207	13.642	211.0	0.537029183	0.649691000	0.009926529	0.102410170	0.031563809
2020-08-31T23:40:00	0.2202	13.629	210.0	0.535522548	0.647562837	0.009875499	0.101883707	0.031401548
2020-08-31T23:45:00	0.2211	13.614	211.0	0.538432923	0.651675490	0.009974193	0.102901910	0.031715368
2020-08-31T23:50:00	0.2203	13.601	210.0	0.535567628	0.647626486	0.009877024	0.101899439	0.031406397
2020-08-31T23:55:00	0.2209	13.587	211.0	0.537798700	0.650778680	0.009952644	0.102679590	0.031646847
2020-09-01T00:00:00	0.2205	13.574	211.0	0.536292401	0.648650044	0.009901558	0.102152546	0.031484407
2020-09-01T00:05:00	0.2200	13.561	210.0	0.534785445	0.646522333	0.009850582	0.101626639	0.031322317
2020-09-01T00:10:00	0.2194	13.549	211.0	0.532597544	0.643436472	0.009776808	0.100865526	0.031087735
2020-09-01T00:15:00	0.2187	13.537	210.0	0.530408254	0.640352557	0.009703267	0.100106815	0.030853893
2020-09-01T00:20:00	0.2196	13.526	210.0	0.533322941	0.644459155	0.009801237	0.101117553	0.031165412
2020-09-01T00:25:00	0.2188	13.515	211.0	0.530453400	0.640416113	0.009704781	0.100122431	0.030858706
2020-09-01T00:30:00	0.2192	13.503	210.0	0.532007374	0.642604753	0.009756956	0.100660716	0.031024610
2020-09-01T00:35:00	0.2192	13.492	210.0	0.531859816	0.642396846	0.009751996	0.100609540	0.031008837
2020-09-01T00:40:00	0.2209	13.481	210.0	0.537831593	0.650825183	0.009953761	0.102691115	0.031650399
2020-09-01T00:45:00	0.2205	13.471	210.0	0.536325309	0.648696528	0.009902672	0.102164045	0.031487951
2020-09-01T00:50:00	0.2194	13.459	210.0	0.532778012	0.643690860	0.009782883	0.100928197	0.031107051
2020-09-01T00:55:00	0.2192	13.448	210.0	0.531950071	0.642524011	0.009755029	0.100640840	0.031018484
2020-09-01T01:00:00	0.2195	13.437	210.0	0.532823127	0.643754459	0.009784402	0.100943868	0.031111880
2020-09-01T01:05:00	0.2186	13.426	210.0	0.529953171	0.639712000	0.009688015	0.099949465	0.030805396
2020-09-01T01:10:00	0.2185	13.415	210.0	0.529465055	0.639025135	0.009671670	0.099780832	0.030753421
2020-09-01T01:15:00	0.2178	13.404	210.0	0.527273775	0.635944004	0.009598462	0.099025559	0.030520639
2020-09-01T01:20:00	0.2172	13.393	210.0	0.525081099	0.632864820	0.009525487	0.098272693	0.030288598
2020-09-01T01:25:00	0.2175	13.382	210.0	0.526296714	0.634571431	0.009565909	0.098689724	0.030417131
2020-09-01T01:30:00	0.2171	13.370	210.0	0.524785383	0.632449843	0.009515667	0.098171378	0.030257372
2020-09-01T01:35:00	0.2158	13.357	210.0	0.520543509	0.626505059	0.009375359	0.096723852	0.029811231
2020-09-01T01:40:00	0.2157	13.346	210.0	0.520054057	0.625820054	0.009359237	0.096557522	0.029759966
2020-09-01T01:45:00	0.2149	13.333	210.0	0.517173428	0.621792453	0.009264633	0.095581512	0.029459150
2020-09-01T01:50:00	0.2149	13.320	210.0	0.517366936	0.622062799	0.009270973	0.095646920	0.029479310
2020-09-01T01:55:00	0.2152	13.308	210.0	0.518243699	0.623288086	0.009299726	0.095943559	0.029570737
2020-09-01T02:00:00	0.2139	13.296	210.0	0.513993734	0.617354508	0.009160767	0.094509940	0.029128881
2020-09-01T02:05:00	0.2131	13.285	210.0	0.511108009	0.613333939	0.009067010	0.093542671	0.028830760
2020-09-01T02:10:00	0.2143	13.276	210.0	0.515406895	0.619325867	0.009206856	0.094985435	0.029275433
2020-09-01T02:15:00	0.2142	13.269	210.0	0.514916710	0.618641876	0.009190856	0.094820364	0.029224557
2020-09-01T02:20:00	0.2144	13.259	210.0	0.515452239	0.619389149	0.009208337	0.095000712	0.029280142
2020-09-01T02:25:00	0.2143	13.251	209.0	0.515303969	0.619182231	0.009203495	0.094950762	0.029264747
2020-09-01T02:30:00	0.2145	13.244	210.0	0.515839438	0.619929587	0.009220986	0.095131214	0.029320364
2020-09-01T02:35:00	0.2138	13.237	210.0	0.513639451	0.616860538	0.009149230	0.094390919	0.029092198
2020-09-01T02:40:00	0.2137	13.231	210.0	0.513149013	0.616176895	0.009133272	0.094226282	0.029041455
2020-09-01T02:45:00	0.2138	13.225	210.0	0.513684819	0.616923787	0.009150707	0.094406156	0.029096894
2020-09-01T02:50:00	0.2142	13.220	210.0	0.514904472	0.618624802	0.009190456	0.094816244	0.029223287
2020-09-01T02:55:00	0.2147	13.216	210.0	0.516465484	0.620803657	0.009241457	0.095342407	0.029385456
2020-09-01T03:00:00	0.2136	13.211	210.0	0.512897645	0.615826577	0.009125098	0.094141954	0.029015465
2020-09-01T03:05:00	0.2139	13.206	210.0	0.513775551	0.617050287	0.009153661	0.094436633	0.029106287
2020-09-01T03:10:00	0.2143	13.201	210.0	0.515337078	0.619228434	0.009204576	0.094961915	0.029268184
2020-09-01T03:15:00	0.2143	13.197	210.0	0.515188803	0.619021523	0.009199735	0.094911974	0.029252792
2020-09-01T03:20:00	0.2138	13.193	210.0	0.513672576	0.616906719	0.009150308	0.094402044	0.029095627
2020-09-01T03:25:00	0.2136	13.190	210.0	0.512840022	0.615746279	0.009123225	0.094122629	0.029009508
2020-09-01T03:30:00	0.2132	13.185	210.0	0.511665028	0.614109488	0.009085070	0.093728991	0.028888185
2020-09-01T03:35:00	0.2124	13.182	209.0	0.508777340	0.610091618	0.008991639	0.092765084	0.028591100
2020-09-01T03:40:00	0.2131	13.179	209.0	0.511025852	0.613219571	0.009064348	0.093515206	0.028822295
2020-09-01T03:45:00	0.2125	13.176	209.0	0.509165294	0.610631017	0.009004163	0.092894293	0.028630923
2020-09-01T03:50:00	0.2121	13.172	210.0	0.507646398	0.608519882	0.008955179	0.092388934	0.028475167
2020-09-01T03:55:00	0.2122	13.169	210.0	0.508183065	0.609265591	0.008972471	0.092567334	0.028530151
2020-09-01T04:00:00	0.2119	13.165	210.0	0.507006471	0.607630996	0.008934582	0.092176433	0.028409672
2020-09-01T04:05:00	0.2120	13.163	210.0	0.507349175	0.608106986	0.008945610	0.092290205	0.028444737
2020-09-01T04:10:00	0.2124	13.159	210.0	0.508719648	0.610011414	0.008989778	0.092745877	0.028585180
2020-09-01T04:15:00	0.2128	13.157	210.0	0.510089572	0.611916596	0.009034036	0.093202488	0.028725912
2020-09-01T04:20:00	0.2132	13.155	210.0	0.511458948	0.613822529	0.009078386	0.093660037	0.028866933
2020-09-01T04:25:00	0.2124	13.153	209.0	0.508719648	0.610011414	0.008989778	0.092745877	0.028585180
2020-09-01T04:30:00	0.2126	13.150	210.0	0.509404678	0.610963911	0.009011896	0.092974066	0.028655510
2020-09-01T04:35:00	0.2123	13.149	210.0	0.508377081	0.609535237	0.008978727	0.092631871	0.028550042
2020-09-01T04:40:00	0.2122	13.147	210.0	0.508034480	0.609059106	0.008967682	0.092517924	0.028514923
2020-09-01T04:45:00	0.2129	13.145	210.0	0.510431967	0.612393008	0.009045115	0.093316788	0.028761140
2020-09-01T04:50:00	0.2121	13.144	210.0	0.507691845	0.608583022	0.008956643	0.092404035	0.028479821
2020-09-01T04:55:00	0.2129	13.143	210.0	0.510431967	0.612393008	0.009045115	0.093316788	0.028761140
2020-09-01T05:00:00	0.2124	13.143	210.0	0.508719648	0.610011414	0.008989778	0.092745877	0.028585180
2020-09-01T05:05:00	0.2121	13.141	210.0	0.507691845	0.608583022	0.008956643	0.092404035	0.028479821
2020-09-01T05:10:00	0.2119	13.142	210.0	0.507006471	0.607630996	0.008934582	0.092176433	0.028409672
2020-09-01T05:15:00	0.2116	13.141	210.0	0.505978153	0.606203309	0.008901533	0.091835471	0.028304584
2020-09-01T05:20:00	0.2110	13.142	210.0	0.503920588	0.603349205	0.008835588	0.091155132	0.028094897
2020-09-01T05:25:00	0.2118	13.142	210.0	0.506663733	0.607155053	0.008923560	0.092062721	0.028374625
2020-09-01T05:30:00	0.2107	13.144	210.0	0.502891341	0.601922787	0.008802693	0.090815756	0.027990298
2020-09-01T05:35:00	0.2107	13.145	210.0	0.502891341	0.601922787	0.008802693	0.090815756	0.027990298
2020-09-01T05:40:00	0.2114	13.146	210.0	0.505292436	0.605251753	0.008879528	0.091608457	0.028234616
2020-09-01T05:45:00	0.2114	13.148	210.0	0.505292436	0.605251753	0.008879528	0.091608457	0.028234616
2020-09-01T05:50:00	0.2114	13.149	210.0	0.505292436	0.605251753	0.008879528	0.091608457	0.028234616
2020-09-01T05:55:00	0.2120	13.151	210.0	0.507349175	0.608106986	0.008945610	0.092290205	0.028444737
2020-09-01T06:00:00	0.2123	13.151	210.0	0.508377081	0.609535237	0.008978727	0.092631871	0.028550042
2020-09-01T06:05:00	0.2121	13.152	210.0	0.507691845	0.608583022	0.008956643	0.092404035	0.028479821
2020-09-01T06:10:00	0.2113	13.153	210.0	0.504949526	0.604776045	0.008868535	0.091495037	0.028199659
2020-09-01T06:15:00	0.2113	13.153	210.0	0.504949526	0.604776045	0.008868535	0.091495037	0.028199659
2020-09-01T06:20:00	0.2115	13.153	210.0	0.505635312	0.605727507	0.008890528	0.091721934	0.028269591
2020-09-01T06:25:00	0.2117	13.155	210.0	0.506320960	0.606679158	0.008912543	0.091949067	0.028339595
2020-09-01T06:30:00	0.2122	13.157	210.0	0.508034480	0.609059106	0.008967682	0.092517924	0.028514923
2020-09-01T06:35:00	0.2125	13.158	210.0	0.509062180	0.610487639	0.009000834	0.092859942	0.028620336
2020-09-01T06:40:00	0.2117	13.160	210.0	0.506320960	0.606679158	0.008912543	0.091949067	0.028339595
2020-09-01T06:45:00	0.2116	13.166	210.0	0.505978153	0.606203309	0.008901533	0.091835471	0.028304584
2020-09-01T06:50:00	0.2117	13.171	210.0	0.506320960	0.606679158	0.008912543	0.091949067	0.028339595
2020-09-01T06:55:00	0.2118	13.175	210.0	0.506663733	0.607155053	0.008923560	0.092062721	0.028374625
2020-09-01T07:00:00	0.2115	13.179	210.0	0.505635312	0.605727507	0.008890528	0.091721934	0.028269591
2020-09-01T07:05:00	0.2109	13.184	210.0	0.503577541	0.602873685	0.008824617	0.091041948	0.028060013
2020-09-01T07:10:00	0.2110	13.189	210.0	0.503920588	0.603349205	0.008835588	0.091155132	0.028094897
2020-09-01T07:15:00	0.2110	13.193	210.0	0.503920588	0.603349205	0.008835588	0.091155132	0.028094897
2020-09-01T07:20:00	0.2107	13.196	210.0	0.502891341	0.601922787	0.008802693	0.090815756	0.027990298
2020-09-01T07:25:00	0.2106	13.202	210.0	0.502548190	0.601447409	0.008791739	0.090702748	0.027955468
2020-09-01T07:30:00	0.2108	13.205	210.0	0.503234458	0.602398213	0.008813652	0.090928823	0.028025146
2020-09-01T07:35:00	0.2107	13.208	211.0	0.502891341	0.601922787	0.008802693	0.090815756	0.027990298
2020-09-01T07:40:00	0.2102	13.211	210.0	0.501175239	0.599546365	0.008747981	0.090251305	0.027816329
2020-09-01T07:45:00	0.2104	13.213	211.0	0.501861784	0.600496793	0.008769848	0.090476909	0.027885862
2020-09-01T07:50:00	0.2105	13.214	211.0	0.502205004	0.600972078	0.008780791	0.090589799	0.027920656
2020-09-01T07:55:00	0.2103	13.219	211.0	0.501518529	0.600021556	0.008758912	0.090364078	0.027851086
2020-09-01T08:00:00	0.2109	13.222	211.0	0.503577541	0.602873685	0.008824617	0.091041948	0.028060013
2020-09-01T08:05:00	0.2110	13.225	210.0	0.503920588	0.603349205	0.008835588	0.091155132	0.028094897
2020-09-01T08:10:00	0.2115	13.228	211.0	0.505635312	0.605727507	0.008890528	0.091721934	0.028269591
2020-09-01T08:15:00	0.2125	13.231	211.0	0.509062180	0.610487639	0.009000834	0.092859942	0.028620336
2020-09-01T08:20:00	0.2124	13.233	211.0	0.508719648	0.610011414	0.008989778	0.092745877	0.028585180
2020-09-01T08:25:00	0.2124	13.237	211.0	0.508719648	0.610011414	0.008989778	0.092745877	0.028585180
2020-09-01T08:30:00	0.2127	13.243	210.0	0.509747142	0.611440230	0.009022963	0.093088248	0.028690702
2020-09-01T08:35:00	0.2129	13.247	211.0	0.510431967	0.612393008	0.009045115	0.093316788	0.028761140
2020-09-01T08:40:00	0.2130	13.251	211.0	0.510774328	0.612869468	0.009056200	0.093431145	0.028796386
2020-09-01T08:45:00	0.2131	13.254	210.0	0.511116655	0.613345975	0.009067290	0.093545562	0.028831651
2020-09-01T08:50:00	0.2130	13.257	211.0	0.510774328	0.612869468	0.009056200	0.093431145	0.028796386
2020-09-01T08:55:00	0.2123	13.260	210.0	0.508377081	0.609535237	0.008978727	0.092631871	0.028550042
2020-09-01T09:00:00	0.2131	13.268	211.0	0.511116655	0.613345975	0.009067290	0.093545562	0.028831651
2020-09-01T09:05:00	0.2131	13.273	211.0	0.511116655	0.613345975	0.009067290	0.093545562	0.028831651
2020-09-01T09:10:00	0.2129	13.275	211.0	0.510431967	0.612393008	0.009045115	0.093316788	0.028761140
2020-09-01T09:15:00	0.2137	13.279	211.0	0.513169898	0.616206003	0.009133951	0.094233290	0.029043615
2020-09-01T09:20:00	0.2122	13.284	211.0	0.508034480	0.609059106	0.008967682	0.092517924	0.028514923
2020-09-01T09:25:00	0.2118	13.293	211.0	0.506663733	0.607155053	0.008923560	0.092062721	0.028374625
2020-09-01T09:30:00	0.2114	13.299	211.0	0.505292436	0.605251753	0.008879528	0.091608457	0.028234616
2020-09-01T09:35:00	0.2109	13.307	211.0	0.503577541	0.602873685	0.008824617	0.091041948	0.028060013
2020-09-01T09:40:00	0.2108	13.313	211.0	0.503234458	0.602398213	0.008813652	0.090928823	0.028025146
2020-09-01T09:45:00	0.2108	13.317	211.0	0.503234458	0.602398213	0.008813652	0.090928823	0.028025146
2020-09-01T09:50:00	0.2109	13.322	211.0	0.503577541	0.602873685	0.008824617	0.091041948	0.028060013
2020-09-01T09:55:00	0.2120	13.323	211.0	0.507349175	0.608106986	0.008945610	0.092290205	0.028444737
2020-09-01T10:00:00	0.2125	13.325	211.0	0.509062180	0.610487639	0.009000834	0.092859942	0.028620336
2020-09-01T10:05:00	0.2130	13.327	211.0	0.510968198	0.613139316	0.009062480	0.093495934	0.028816355
2020-09-01T10:10:00	0.2121	13.334	211.0	0.507737291	0.608646163	0.008958107	0.092419137	0.028484476
2020-09-01T10:15:00	0.2115	13.339	211.0	0.505532091	0.605584275	0.008887216	0.091687765	0.028259060
2020-09-01T10:20:00	0.2113	13.341	211.0	0.505040490	0.604902228	0.008871450	0.091525117	0.028208930
2020-09-01T10:25:00	0.2107	13.345	211.0	0.502833549	0.601842720	0.008800847	0.090796719	0.027984431
2020-09-01T10:30:00	0.2107	13.351	211.0	0.503027869	0.602111950	0.008807053	0.090860737	0.028004162
2020-09-01T10:35:00	0.2104	13.353	211.0	0.501849499	0.600479783	0.008769457	0.090472870	0.027884617
2020-09-01T10:40:00	0.2102	13.358	211.0	0.501357367	0.599798460	0.008753779	0.090311126	0.027834766
2020-09-01T10:45:00	0.2099	13.362	211.0	0.500178420	0.598167078	0.008716279	0.089924242	0.027715525
2020-09-01T10:50:00	0.2096	13.368	211.0	0.498999065	0.596536251	0.008678846	0.089538052	0.027596497
2020-09-01T10:55:00	0.2097	13.375	211.0	0.499537092	0.597280103	0.008695913	0.089714131	0.027650766
2020-09-01T11:00:00	0.2090	13.380	211.0	0.496982876	0.593750829	0.008615037	0.088879750	0.027393602
2020-09-01T11:05:00	0.2091	13.383	211.0	0.497521222	0.594494249	0.008632052	0.089055288	0.027447705
2020-09-01T11:10:00	0.2084	13.390	211.0	0.494965495	0.590967026	0.008551425	0.088223479	0.027191333
2020-09-01T11:15:00	0.2078	13.394	211.0	0.493096160	0.588390430	0.008492691	0.087617527	0.027004573
2020-09-01T11:20:00	0.2078	13.399	211.0	0.492946917	0.588184841	0.008488010	0.087569239	0.026989690
2020-09-01T11:25:00	0.2072	13.405	211.0	0.490732130	0.585135982	0.008418701	0.086854191	0.026769305
2020-09-01T11:30:00	0.2070	13.409	211.0	0.490238389	0.584456839	0.008403289	0.086695183	0.026720297
2020-09-01T11:35:00	0.2068	13.416	211.0	0.489400099	0.583304211	0.008377153	0.086425545	0.026637192
2020-09-01T11:40:00	0.2058	13.420	211.0	0.486148679	0.578838916	0.008276164	0.085383661	0.026316074
2020-09-01T11:45:00	0.2060	13.429	211.0	0.486688742	0.579580019	0.008292897	0.085556285	0.026369278
2020-09-01T11:50:00	0.2063	13.436	211.0	0.487918081	0.581267852	0.008331046	0.085949870	0.026490585
2020-09-01T11:55:00	0.2059	13.441	211.0	0.486389685	0.579169609	0.008283629	0.085460674	0.026339810
2020-09-01T12:00:00	0.2049	13.447	211.0	0.483135380	0.574708188	0.008183114	0.084423676	0.026020197
2020-09-01T12:05:00	0.2041	13.457	211.0	0.480223395	0.570723235	0.008093687	0.083501077	0.025735843
2020-09-01T12:10:00	0.2037	13.463	211.0	0.478691527	0.568629640	0.008046839	0.083017751	0.025586877
2020-09-01T12:15:00	0.2036	13.468	211.0	0.478541649	0.568424903	0.008042262	0.082970537	0.025572325
2020-09-01T12:20:00	0.2032	13.472	211.0	0.477009019	0.566332323	0.007995538	0.082488497	0.025423756
2020-09-01T12:25:00	0.2025	13.479	211.0	0.474783797	0.563297441	0.007927940	0.081791094	0.025208809
2020-09-01T12:30:00	0.2022	13.484	211.0	0.473595588	0.561678507	0.007891960	0.081419897	0.025094403
2020-09-01T12:35:00	0.2026	13.491	212.0	0.475175647	0.563831581	0.007939823	0.081913691	0.025246595
2020-09-01T12:40:00	0.2022	13.497	212.0	0.473641492	0.561741031	0.007893349	0.081434222	0.025098818
2020-09-01T12:45:00	0.2024	13.502	212.0	0.474183552	0.562479467	0.007909754	0.081603473	0.025150983
2020-09-01T12:50:00	0.2016	13.508	212.0	0.471610177	0.558975897	0.007832021	0.080801515	0.024903812
2020-09-01T12:55:00	0.2019	13.516	212.0	0.472498800	0.560185134	0.007858820	0.081078001	0.024989027
2020-09-01T13:00:00	0.2009	13.525	211.0	0.469231105	0.555741545	0.007760494	0.080063586	0.024676375
2020-09-01T13:05:00	0.2008	13.528	211.0	0.468734220	0.555066597	0.007745596	0.079909886	0.024629003
2020-09-01T13:10:00	0.2005	13.533	211.0	0.467890588	0.553921092	0.007720334	0.079649262	0.024548676
2020-09-01T13:15:00	0.2002	13.539	212.0	0.466699950	0.552305372	0.007684750	0.079282149	0.024435528
2020-09-01T13:20:00	0.2004	13.542	211.0	0.467243126	0.553042333	0.007700974	0.079449524	0.024487115
2020-09-01T13:25:00	0.2003	13.546	211.0	0.467092739	0.552838270	0.007696480	0.079403167	0.024472827
2020-09-01T13:30:00	0.1996	13.552	211.0	0.464513950	0.549341854	0.007619629	0.078610310	0.024228461
2020-09-01T13:35:00	0.2000	13.556	211.0	0.466098265	0.551489302	0.007666799	0.079096948	0.024378448
2020-09-01T13:40:00	0.1991	13.565	212.0	0.462824361	0.547053906	0.007569483	0.078092964	0.024069010
2020-09-01T13:45:00	0.1985	13.572	212.0	0.460937187	0.544501072	0.007513666	0.077517106	0.023891525
2020-09-01T13:50:00	0.1989	13.582	212.0	0.462175924	0.546176429	0.007550281	0.077894862	0.024007953
2020-09-01T13:55:00	0.1986	13.588	212.0	0.460983264	0.544563368	0.007515026	0.077531141	0.023895851
2020-09-01T14:00:00	0.1985	13.596	211.0	0.460832597	0.544359673	0.007510578	0.077485252	0.023881707
2020-09-01T14:05:00	0.1981	13.596	212.0	0.459291901	0.542277747	0.007465169	0.077016767	0.023737316
2020-09-01T14:10:00	0.1977	13.602	212.0	0.458098218	0.540666026	0.007430079	0.076654760	0.023625741
2020-09-01T14:15:00	0.1976	13.611	212.0	0.457599687	0.539993240	0.007415449	0.076503819	0.023579220
2020-09-01T14:20:00	0.1969	13.619	212.0	0.455361612	0.536975290	0.007349942	0.075827992	0.023370924
2020-09-01T14:25:00	0.1972	13.627	212.0	0.456254531	0.538178879	0.007376043	0.076097272	0.023453918
2020-09-01T14:30:00	0.1969	13.640	212.0	0.455407766	0.537037485	0.007351290	0.075841899	0.023375210
2020-09-01T14:35:00	0.1971	13.648	212.0	0.455952767	0.537772052	0.007367217	0.076006216	0.023425854
2020-09-01T14:40:00	0.1973	13.654	212.0	0.456497680	0.538506735	0.007383158	0.076170680	0.023476543
2020-09-01T14:45:00	0.1982	13.647	212.0	0.459823835	0.542996331	0.007480831	0.077178357	0.023787119
2020-09-01T14:50:00	0.1977	13.631	212.0	0.457934977	0.540445704	0.007425287	0.076605319	0.023610503
2020-09-01T14:55:00	0.1984	13.621	212.0	0.460564890	0.543997789	0.007502678	0.077403750	0.023856587
2020-09-01T15:00:00	0.1985	13.622	212.0	0.460761649	0.544263760	0.007508484	0.077463648	0.023875049
2020-09-01T15:05:00	0.1985	13.623	212.0	0.460958396	0.544529746	0.007514292	0.077523566	0.023893516
2020-09-01T15:10:00	0.1985	13.621	212.0	0.460807728	0.544326053	0.007509844	0.077477679	0.023879373
2020-09-01T15:15:00	0.1983	13.624	212.0	0.459962109	0.543183161	0.007484905	0.077220388	0.023800074
2020-09-01T15:20:00	0.1977	13.625	212.0	0.458073328	0.540632432	0.007429349	0.076647221	0.023623418
2020-09-01T15:25:00	0.1980	13.625	212.0	0.458965527	0.541836962	0.007455566	0.076917705	0.023706784
2020-09-01T15:30:00	0.1988	13.628	212.0	0.461941957	0.545859903	0.007543359	0.077823444	0.023985941
2020-09-01T15:35:00	0.1990	13.629	212.0	0.462485901	0.546595854	0.007559458	0.077989531	0.024037131
2020-09-01T15:40:00	0.1995	13.625	212.0	0.464418237	0.549212184	0.007616784	0.078580958	0.024219414
2020-09-01T15:45:00	0.1999	13.622	212.0	0.465655694	0.550889222	0.007653608	0.078960859	0.024336504
2020-09-01T15:50:00	0.1993	13.617	212.0	0.463422973	0.547864255	0.007587231	0.078276065	0.024125443
2020-09-01T15:55:00	0.1989	13.612	212.0	0.462230755	0.546250614	0.007551904	0.077911604	0.024013113
2020-09-01T16:00:00	0.1990	13.610	212.0	0.462427416	0.546516713	0.007557726	0.077971665	0.024031624
2020-09-01T16:05:00	0.1988	13.607	212.0	0.461981805	0.545913808	0.007544538	0.077835605	0.023989689
2020-09-01T16:10:00	0.1988	13.605	212.0	0.461883463	0.545780774	0.007541629	0.077805594	0.023980440
2020-09-01T16:15:00	0.1991	13.603	212.0	0.462826917	0.547057366	0.007569559	0.078093746	0.024069251
2020-09-01T16:20:00	0.1987	13.601	212.0	0.461339422	0.545044951	0.007525546	0.077639669	0.023929300
2020-09-01T16:25:00	0.1989	13.601	212.0	0.462283029	0.546321342	0.007553451	0.077927566	0.024018033
2020-09-01T16:30:00	0.1982	13.598	212.0	0.459752865	0.542900446	0.007478741	0.077156788	0.023780471
2020-09-01T16:35:00	0.1986	13.597	212.0	0.461044331	0.544645934	0.007516829	0.077549744	0.023901584
2020-09-01T16:40:00	0.1983	13.595	212.0	0.460251077	0.543573650	0.007493423	0.077308263	0.023827158
2020-09-01T16:45:00	0.1983	13.591	212.0	0.460152684	0.543440682	0.007490522	0.077278337	0.023817934
2020-09-01T16:50:00	0.1984	13.588	212.0	0.460401769	0.543777311	0.007497867	0.077354108	0.023841287
2020-09-01T16:55:00	0.1982	13.586	212.0	0.459608363	0.542705226	0.007474485	0.077112881	0.023766939
2020-09-01T17:00:00	0.1980	13.580	212.0	0.459162379	0.542102810	0.007461357	0.076977447	0.023725197
2020-09-01T17:05:00	0.1980	13.576	212.0	0.459063954	0.541969884	0.007458462	0.076947573	0.023715989
2020-09-01T17:10:00	0.1982	13.569	212.0	0.459660677	0.542775900	0.007476025	0.077128776	0.023771838
2020-09-01T17:15:00	0.1979	13.563	212.0	0.458867097	0.541704044	0.007452672	0.076887841	0.023697579
2020-09-01T17:20:00	0.1977	13.558	211.0	0.458073328	0.540632432	0.007429349	0.076647221	0.023623418
2020-09-01T17:25:00	0.1981	13.551	212.0	0.459365439	0.542377076	0.007467333	0.077039097	0.023744198
2020-09-01T17:30:00	0.1981	13.543	212.0	0.459267021	0.542244142	0.007464436	0.077009213	0.023734987
2020-09-01T17:35:00	0.1980	13.536	211.0	0.459168599	0.542111212	0.007461540	0.076979335	0.023725779
2020-09-01T17:40:00	0.1980	13.525	212.0	0.459070175	0.541978285	0.007458645	0.076949461	0.023716571
2020-09-01T17:45:00	0.1981	13.514	212.0	0.459319340	0.542314809	0.007465976	0.077025099	0.023739884
2020-09-01T17:50:00	0.1982	13.504	211.0	0.459916018	0.543120883	0.007483547	0.077206377	0.023795755
2020-09-01T17:55:00	0.1980	13.491	211.0	0.459122497	0.542048948	0.007460184	0.076965342	0.023721466
2020-09-01T18:00:00	0.1984	13.478	212.0	0.460414205	0.543794119	0.007498233	0.077357892	0.023842454
2020-09-01T18:05:00	0.1981	13.466	211.0	0.459273241	0.542252543	0.007464619	0.077011102	0.023735570
2020-09-01T18:10:00	0.1985	13.452	211.0	0.460912319	0.544467451	0.007512932	0.077509531	0.023889190
2020-09-01T18:15:00	0.1989	13.438	211.0	0.462203339	0.546213522	0.007551093	0.077903232	0.024010533
2020-09-01T18:20:00	0.1992	13.423	211.0	0.463146704	0.547490230	0.007579038	0.078191535	0.024099390
2020-09-01T18:25:00	0.1991	13.408	211.0	0.463048396	0.547357152	0.007576123	0.078161466	0.024090123
2020-09-01T18:30:00	0.1996	13.393	211.0	0.464685637	0.549574470	0.007624734	0.078662974	0.024244693
2020-09-01T18:35:00	0.2000	13.378	211.0	0.465975212	0.551322439	0.007663130	0.079059099	0.024366782
2020-09-01T18:40:00	0.2007	13.360	211.0	0.468304401	0.554482907	0.007732720	0.079777049	0.024588061
2020-09-01T18:45:00	0.2010	13.344	211.0	0.469592594	0.556232700	0.007771341	0.080175496	0.024710867
2020-09-01T18:50:00	0.2016	13.325	211.0	0.471572993	0.558925310	0.007830900	0.080789956	0.024900249
2020-09-01T18:55:00	0.2023	13.310	211.0	0.473898324	0.562090878	0.007901119	0.081514393	0.025123528
2020-09-01T19:00:00	0.2027	13.293	210.0	0.475530311	0.564315138	0.007950586	0.082024731	0.025280819
2020-09-01T19:05:00	0.2030	13.278	211.0	0.476469957	0.565596759	0.007979137	0.082319282	0.025371602
2020-09-01T19:10:00	0.2026	13.264	211.0	0.474988466	0.563576415	0.007934146	0.081855117	0.025228542
2020-09-01T19:15:00	0.2028	13.250	210.0	0.475582379	0.564386137	0.007952167	0.082041039	0.025285845
2020-09-01T19:20:00	0.2023	13.237	210.0	0.474100498	0.562366310	0.007907239	0.081577529	0.025142987
2020-09-01T19:25:00	0.2029	13.224	211.0	0.476078258	0.565062418	0.007967229	0.082196432	0.025333739
2020-09-01T19:30:00	0.2035	13.212	210.0	0.478054861	0.567760063	0.008027407	0.082817283	0.025525091
2020-09-01T19:35:00	0.2026	13.202	210.0	0.475190576	0.563851933	0.007940276	0.081918363	0.025248035
2020-09-01T19:40:00	0.2025	13.191	210.0	0.474746648	0.563246807	0.007926814	0.081779476	0.025205229
2020-09-01T19:45:00	0.2025	13.178	210.0	0.474648677	0.563113283	0.007923844	0.081748840	0.025195786
2020-09-01T19:50:00	0.2027	13.166	210.0	0.475242649	0.563922926	0.007941856	0.081934662	0.025253059
2020-09-01T19:55:00	0.2023	13.150	210.0	0.474106691	0.562374747	0.007907427	0.081579464	0.025143583
2020-09-01T20:00:00	0.2029	13.135	210.0	0.476084447	0.565070860	0.007967417	0.082198373	0.025334337
2020-09-01T20:05:00	0.2025	13.120	210.0	0.474602787	0.563050741	0.007922453	0.081734492	0.025191364
2020-09-01T20:10:00	0.2024	13.101	210.0	0.474158781	0.562445717	0.007909004	0.081595735	0.025148598
2020-09-01T20:15:00	0.2023	13.084	210.0	0.474060793	0.562312216	0.007906037	0.081565128	0.025139165
2020-09-01T20:20:00	0.2025	13.068	209.0	0.474654869	0.563121721	0.007924032	0.081750776	0.025196383
2020-09-01T20:25:00	0.2023	13.052	209.0	0.473864810	0.562045223	0.007900105	0.081503929	0.025120302
2020-09-01T20:30:00	0.2021	13.034	209.0	0.473420707	0.561440328	0.007886671	0.081365335	0.025077586
2020-09-01T20:35:00	0.2014	13.019	209.0	0.470898891	0.558008432	0.007810602	0.080580542	0.024835706
2020-09-01T20:40:00	0.2016	13.003	209.0	0.471493523	0.558817200	0.007828506	0.080765254	0.024892636
2020-09-01T20:45:00	0.2011	12.987	209.0	0.469663357	0.556328858	0.007773466	0.080197412	0.024717621
2020-09-01T20:50:00	0.2010	12.971	209.0	0.469565238	0.556195529	0.007770520	0.080167025	0.024708256
2020-09-01T20:55:00	0.2016	12.958	209.0	0.471545653	0.558888117	0.007830077	0.080781458	0.024897630
2020-09-01T21:00:00	0.2018	12.944	209.0	0.472140171	0.559697036	0.007847999	0.080966361	0.024954619
2020-09-01T21:05:00	0.2016	12.928	209.0	0.471695842	0.559092441	0.007834602	0.080828149	0.024912020
2020-09-01T21:10:00	0.2020	12.915	210.0	0.472982741	0.560843945	0.007873434	0.081228770	0.025035496
2020-09-01T21:15:00	0.2020	12.901	208.0	0.472884720	0.560710489	0.007870473	0.081198221	0.025026080
2020-09-01T21:20:00	0.2015	12.888	209.0	0.471055307	0.558221148	0.007815310	0.080629110	0.024850675
2020-09-01T21:25:00	0.2010	12.876	209.0	0.469571440	0.556203955	0.007770706	0.080168945	0.024708847
2020-09-01T21:30:00	0.2006	12.862	209.0	0.468086919	0.554187625	0.007726209	0.079709877	0.024567358
2020-09-01T21:35:00	0.2005	12.849	209.0	0.467642056	0.553583736	0.007712899	0.079572562	0.024525036
2020-09-01T21:40:00	0.2000	12.837	209.0	0.466156686	0.551568526	0.007668541	0.079114921	0.024383987
2020-09-01T21:45:00	0.1996	12.826	209.0	0.464670662	0.549554179	0.007624289	0.078658380	0.024243277
2020-09-01T21:50:00	0.1995	12.814	208.0	0.464225348	0.548950885	0.007611052	0.078521822	0.024201188
2020-09-01T21:55:00	0.1991	12.803	208.0	0.462738471	0.546937659	0.007566939	0.078066710	0.024060918
2020-09-01T22:00:00	0.1998	12.794	208.0	0.465416860	0.550565453	0.007646494	0.078887467	0.024313883
2020-09-01T22:05:00	0.1999	12.784	208.0	0.465616440	0.550836004	0.007652438	0.078948794	0.024332785
2020-09-01T22:10:00	0.1989	12.775	208.0	0.462345174	0.546405429	0.007555291	0.077946545	0.024023882
2020-09-01T22:15:00	0.1987	12.766	208.0	0.461503049	0.545266234	0.007530381	0.077689555	0.023944675
2020-09-01T22:20:00	0.1983	12.758	208.0	0.459965769	0.543188107	0.007485013	0.077221501	0.023800417
2020-09-01T22:25:00	0.1985	12.751	208.0	0.460860575	0.544397496	0.007511404	0.077493772	0.023884333
2020-09-01T22:30:00	0.1981	12.741	209.0	0.459323001	0.542319754	0.007466084	0.077026210	0.023740226
2020-09-01T22:35:00	0.1984	12.734	208.0	0.460565441	0.543998534	0.007502695	0.077403917	0.023856639
2020-09-01T22:40:00	0.1977	12.726	208.0	0.457984757	0.540512889	0.007426748	0.076620394	0.023615150
2020-09-01T22:45:00	0.1975	12.718	208.0	0.457489322	0.539844324	0.007412212	0.076470423	0.023568927
2020-09-01T22:50:00	0.1976	12.709	207.0	0.457689372	0.540114258	0.007418080	0.076530962	0.023587586
2020-09-01T22:55:00	0.1973	12.701	208.0	0.456498232	0.538507478	0.007383174	0.076170847	0.023476595
2020-09-01T23:00:00	0.1970	12.693	207.0	0.455654641	0.537370201	0.007358502	0.075916310	0.023398144
2020-09-01T23:05:00	0.1967	12.685	208.0	0.454462779	0.535764364	0.007323713	0.075557402	0.023287525
2020-09-01T23:10:00	0.1964	12.678	207.0	0.453618677	0.534627754	0.007299124	0.075303720	0.023209338
2020-09-01T23:15:00	0.1955	12.671	207.0	0.450335709	0.530212475	0.007203875	0.074321051	0.022906470
2020-09-01T23:20:00	0.1952	12.666	208.0	0.449490568	0.529077216	0.007179454	0.074069104	0.022828817
2020-09-01T23:25:00	0.1945	12.659	207.0	0.446901351	0.525602681	0.007104889	0.073299835	0.022591721
2020-09-01T23:30:00	0.1945	12.651	207.0	0.446753173	0.525403996	0.007100634	0.073255929	0.022578189
2020-09-01T23:35:00	0.1945	12.646	208.0	0.446953864	0.525673096	0.007106398	0.073315397	0.022596518
2020-09-01T23:40:00	0.1944	12.642	207.0	0.446456797	0.525006652	0.007092125	0.073168151	0.022551135
2020-09-01T23:45:00	0.1942	12.634	207.0	0.445959656	0.524340304	0.007077865	0.073021027	0.022505790
2020-09-01T23:50:00	0.1934	12.628	207.0	0.443018456	0.520402009	0.006993783	0.072153570	0.022238431
2020-09-01T23:55:00	0.1938	12.624	207.0	0.444266949	0.522072922	0.007029414	0.072521173	0.022351730
2020-09-02T00:00:00	0.1937	12.619	207.0	0.444118654	0.521874389	0.007025178	0.072477461	0.022338257
2020-09-02T00:05:00	0.1940	12.612	207.0	0.445017695	0.523078269	0.007050883	0.072742660	0.022419994
2020-09-02T00:10:00	0.1940	12.606	207.0	0.445218490	0.523347235	0.007056630	0.072801955	0.022438270
2020-09-02T00:15:00	0.1943	12.601	207.0	0.446117236	0.524551497	0.007082384	0.073067645	0.022520158
2020-09-02T00:20:00	0.1940	12.593	207.0	0.445271029	0.523417617	0.007058135	0.072817474	0.022443053
2020-09-02T00:25:00	0.1938	12.587	207.0	0.444424609	0.522284013	0.007033920	0.072567659	0.022366057
2020-09-02T00:30:00	0.1935	12.578	207.0	0.443228746	0.520683364	0.006999778	0.072215423	0.022257495
2020-09-02T00:35:00	0.1934	12.569	207.0	0.443080405	0.520484889	0.006995549	0.072171788	0.022244046
2020-09-02T00:40:00	0.1936	12.559	207.0	0.443630539	0.521221034	0.007011241	0.072333676	0.022293941
2020-09-02T00:45:00	0.1936	12.548	207.0	0.443831418	0.521489892	0.007016974	0.072392832	0.022312174
2020-09-02T00:50:00	0.1936	12.539	207.0	0.443683103	0.521291383	0.007012741	0.072349153	0.022298712
2020-09-02T00:55:00	0.1933	12.528	207.0	0.442836281	0.520158298	0.006988591	0.072100007	0.022221922
2020-09-02T01:00:00	0.1935	12.517	207.0	0.443386455	0.520894391	0.007004276	0.072261828	0.022271797
2020-09-02T01:05:00	0.1932	12.506	206.0	0.442190221	0.519294221	0.006970194	0.071910210	0.022163425
2020-09-02T01:10:00	0.1931	12.495	206.0	0.442041834	0.519095805	0.006965972	0.071866652	0.022150000
2020-09-02T01:15:00	0.1930	12.482	206.0	0.441544036	0.518430304	0.006951818	0.071720621	0.022104992
2020-09-02T01:20:00	0.1927	12.472	206.0	0.440782915	0.517297968	0.006928660	0.071481708	0.022031357
2020-09-02T01:25:00	0.1924	12.459	207.0	0.439852692	0.515699850	0.006897533	0.071160581	0.021932382
2020-09-02T01:30:00	0.1926	12.448	206.0	0.440552230	0.516901427	0.006920933	0.071401989	0.022006787
2020-09-02T01:35:00	0.1921	12.438	206.0	0.439078329	0.514371344	0.006871688	0.070893935	0.021850199
2020-09-02T01:40:00	0.1920	12.427	206.0	0.438691014	0.513707491	0.006858783	0.070760795	0.021809164
2020-09-02T01:45:00	0.1920	12.416	206.0	0.438847410	0.513975502	0.006863992	0.070814538	0.021825728
2020-09-02T01:50:00	0.1909	12.406	206.0	0.435738634	0.508660935	0.006760898	0.069750942	0.021497918
2020-09-02T01:55:00	0.1913	12.397	206.0	0.436984300	0.510787204	0.006802093	0.070175935	0.021628905
2020-09-02T02:00:00	0.1907	12.389	206.0	0.435234831	0.507802205	0.006744281	0.069579503	0.021445079
2020-09-02T02:05:00	0.1903	12.382	206.0	0.434301516	0.506213250	0.006713563	0.069262588	0.021347402
2020-09-02T02:10:00	0.1905	12.374	206.0	0.434730874	0.506943925	0.006727684	0.069408271	0.021392303
2020-09-02T02:15:00	0.1907	12.367	206.0	0.435160122	0.507674925	0.006741819	0.069554103	0.021437250
2020-09-02T02:20:00	0.1904	12.360	206.0	0.434499353	0.506549862	0.006720067	0.069329692	0.021368084
2020-09-02T02:25:00	0.1906	12.354	206.0	0.434928660	0.507280687	0.006734194	0.069475443	0.021413006
2020-09-02T02:30:00	0.1901	12.348	206.0	0.433722504	0.505228710	0.006694549	0.069066424	0.021286943
2020-09-02T02:35:00	0.1904	12.341	206.0	0.434424612	0.506422679	0.006717609	0.069304336	0.021360269
2020-09-02T02:40:00	0.1901	12.333	206.0	0.433763551	0.505298475	0.006695895	0.069080319	0.021291225
2020-09-02T02:45:00	0.1899	12.324	206.0	0.433102227	0.504175041	0.006674216	0.068856657	0.021222290
2020-09-02T02:50:00	0.1898	12.316	206.0	0.432713520	0.503515289	0.006661494	0.068725401	0.021181836
2020-09-02T02:55:00	0.1899	12.307	206.0	0.433143289	0.504244761	0.006675561	0.068870531	0.021226567
2020-09-02T03:00:00	0.1895	12.297	206.0	0.431935834	0.502196584	0.006636084	0.068463257	0.021101041
2020-09-02T03:05:00	0.1893	12.285	206.0	0.431546853	0.501537631	0.006623397	0.068332368	0.021060700
2020-09-02T03:10:00	0.1890	12.273	206.0	0.430611459	0.499954750	0.006592949	0.068018241	0.020963883
2020-09-02T03:15:00	0.1887	12.260	206.0	0.429675535	0.498373407	0.006562570	0.067704820	0.020867283
2020-09-02T03:20:00	0.1891	12.247	206.0	0.430925760	0.500486341	0.006603170	0.068123692	0.020996384
2020-09-02T03:25:00	0.1894	12.234	206.0	0.431629054	0.501676849	0.006626077	0.068360015	0.021069221
2020-09-02T03:30:00	0.1888	12.220	206.0	0.430147231	0.499170084	0.006577870	0.067862671	0.020915934
2020-09-02T03:35:00	0.1893	12.205	206.0	0.431397099	0.501284053	0.006618517	0.068282018	0.021045181
2020-09-02T03:40:00	0.1892	12.191	205.0	0.431281110	0.501087691	0.006614738	0.068243036	0.021033166
2020-09-02T03:45:00	0.1898	12.177	205.0	0.432802987	0.503667105	0.006664421	0.068755598	0.021191143
2020-09-02T03:50:00	0.1900	12.162	205.0	0.433232733	0.504396644	0.006678491	0.068900759	0.021235883
2020-09-02T03:55:00	0.1902	12.149	205.0	0.433935048	0.505590007	0.006701524	0.069138393	0.021309124
2020-09-02T04:00:00	0.1904	12.133	205.0	0.434364501	0.506320404	0.006715633	0.069283948	0.021353986
2020-09-02T04:05:00	0.1907	12.115	205.0	0.435143488	0.507646589	0.006741271	0.069548448	0.021435507
2020-09-02T04:10:00	0.1906	12.098	205.0	0.435104913	0.507580878	0.006740000	0.069535336	0.021431466
2020-09-02T04:15:00	0.1905	12.083	204.0	0.434793843	0.507051126	0.006729756	0.069429652	0.021398893
2020-09-02T04:20:00	0.1901	12.066	204.0	0.433664808	0.505130656	0.006692656	0.069046896	0.021280924
2020-09-02T04:25:00	0.1900	12.049	204.0	0.433353467	0.504601696	0.006682447	0.068941575	0.021248463
2020-09-02T04:30:00	0.1899	12.033	205.0	0.433042068	0.504072906	0.006672246	0.068836333	0.021216026
2020-09-02T04:35:00	0.1902	12.018	205.0	0.433821676	0.505397274	0.006697803	0.069099999	0.021297291
2020-09-02T04:40:00	0.1902	12.003	204.0	0.433783070	0.505331652	0.006696536	0.069086928	0.021293262
2020-09-02T04:45:00	0.1901	11.985	204.0	0.433744464	0.505266033	0.006695269	0.069073858	0.021289234
2020-09-02T04:50:00	0.1904	11.974	204.0	0.434523742	0.506591366	0.006720869	0.069337967	0.021370635
2020-09-02T04:55:00	0.1911	11.958	204.0	0.436392035	0.509775706	0.006782487	0.069973671	0.021566565
2020-09-02T05:00:00	0.1911	11.943	204.0	0.436353488	0.509709909	0.006781212	0.069960519	0.021562511
2020-09-02T05:05:00	0.1913	11.928	204.0	0.436859390	0.510573795	0.006797955	0.070133248	0.021615748
2020-09-02T05:10:00	0.1913	11.917	204.0	0.436820854	0.510507966	0.006796679	0.070120081	0.021611690
2020-09-02T05:15:00	0.1913	11.904	204.0	0.436782318	0.510442140	0.006795403	0.070106916	0.021607632
2020-09-02T05:20:00	0.1909	11.894	204.0	0.435926985	0.508982160	0.006767117	0.069815102	0.021517692
2020-09-02T05:25:00	0.1908	11.883	204.0	0.435616068	0.508451956	0.006756853	0.069709210	0.021485056
2020-09-02T05:30:00	0.1907	11.873	204.0	0.435305093	0.507921924	0.006746597	0.069603397	0.021452443
2020-09-02T05:35:00	0.1910	11.865	204.0	0.436083640	0.509249404	0.006772292	0.069868492	0.021534148
2020-09-02T05:40:00	0.1912	11.856	203.0	0.436589623	0.510113048	0.006789024	0.070041110	0.021587350
2020-09-02T05:45:00	0.1909	11.848	203.0	0.435734192	0.508653360	0.006760752	0.069749429	0.021497451
2020-09-02T05:50:00	0.1903	11.840	203.0	0.434060610	0.505803504	0.006705648	0.069180930	0.021322235
2020-09-02T05:55:00	0.1901	11.833	204.0	0.433749344	0.505274327	0.006695429	0.069075510	0.021289743
2020-09-02T06:00:00	0.1891	11.828	204.0	0.430981541	0.500580714	0.006604985	0.068142418	0.021002155
2020-09-02T06:05:00	0.1891	11.824	203.0	0.430942869	0.500515286	0.006603727	0.068129435	0.020998154
2020-09-02T06:10:00	0.1894	11.822	204.0	0.431723466	0.501836770	0.006629156	0.068391778	0.021079010
2020-09-02T06:15:00	0.1894	11.821	203.0	0.431684811	0.501771291	0.006627895	0.068378773	0.021075002
2020-09-02T06:20:00	0.1888	11.821	203.0	0.430007133	0.498933398	0.006573323	0.067815764	0.020901477
2020-09-02T06:25:00	0.1893	11.822	203.0	0.431334435	0.501177962	0.006616475	0.068260956	0.021038690
2020-09-02T06:30:00	0.1892	11.826	203.0	0.431295771	0.501112510	0.006615216	0.068247962	0.021034685
2020-09-02T06:35:00	0.1895	11.830	203.0	0.432076202	0.502434479	0.006640666	0.068510527	0.021115610
2020-09-02T06:40:00	0.1901	11.837	203.0	0.433674568	0.505147243	0.006692976	0.069050199	0.021281942
2020-09-02T06:45:00	0.1901	11.842	204.0	0.433635959	0.505081631	0.006691709	0.069037133	0.021277915
2020-09-02T06:50:00	0.1906	11.851	203.0	0.434960357	0.507334666	0.006735238	0.069486212	0.021416325
2020-09-02T06:55:00	0.1907	11.860	203.0	0.435194252	0.507733070	0.006742944	0.069565706	0.021440826
2020-09-02T07:00:00	0.1913	11.875	204.0	0.436789625	0.510454620	0.006795645	0.070109412	0.021608402
2020-09-02T07:05:00	0.1912	11.888	204.0	0.436751088	0.510388796	0.006794369	0.070096248	0.021604345
2020-09-02T07:10:00	0.1922	11.907	204.0	0.439432374	0.514978540	0.006883497	0.071015772	0.021887750
2020-09-02T07:15:00	0.1924	11.925	204.0	0.439937346	0.515845185	0.006900363	0.071189768	0.021941378
2020-09-02T07:20:00	0.1931	11.950	204.0	0.442005429	0.519047129	0.006964937	0.071855967	0.022146707
2020-09-02T07:25:00	0.1930	11.977	204.0	0.441606567	0.518513890	0.006953595	0.071738957	0.022110643
2020-09-02T07:30:00	0.1924	12.001	204.0	0.439821950	0.515647076	0.006896506	0.071149984	0.021929116
2020-09-02T07:35:00	0.1923	12.024	204.0	0.439511755	0.515114728	0.006886147	0.071043106	0.021896175
2020-09-02T07:40:00	0.1920	12.051	204.0	0.438929683	0.514116517	0.006866733	0.070842819	0.021834445
2020-09-02T07:45:00	0.1916	12.082	204.0	0.437803444	0.512187791	0.006829265	0.070456270	0.021715307
2020-09-02T07:50:00	0.1917	12.101	204.0	0.438036941	0.512587371	0.006837023	0.070536305	0.021739974
2020-09-02T07:55:00	0.1915	12.129	205.0	0.437454355	0.511590684	0.006817677	0.070336718	0.021678460
2020-09-02T08:00:00	0.1911	12.165	205.0	0.436327122	0.509664905	0.006780341	0.069951524	0.021559739
2020-09-02T08:05:00	0.1919	12.185	205.0	0.438465339	0.513320881	0.006851270	0.070683290	0.021785276
2020-09-02T08:10:00	0.1911	12.206	205.0	0.436250026	0.509533323	0.006777792	0.069925226	0.021551634
2020-09-02T08:15:00	0.1907	12.223	205.0	0.435394420	0.508074148	0.006749542	0.069633782	0.021461808
2020-09-02T08:20:00	0.1904	12.248	205.0	0.434538375	0.506616268	0.006721350	0.069342932	0.021372165
2020-09-02T08:25:00	0.1905	12.275	205.0	0.434772329	0.507014498	0.006729048	0.069422346	0.021396641
2020-09-02T08:30:00	0.1910	12.293	206.0	0.436095823	0.509270190	0.006772695	0.069872645	0.021535428
2020-09-02T08:35:00	0.1910	12.310	205.0	0.436057270	0.509204413	0.006771421	0.069859503	0.021531377
2020-09-02T08:40:00	0.1907	12.338	206.0	0.435201565	0.507745530	0.006743185	0.069568193	0.021441593
2020-09-02T08:45:00	0.1906	12.377	206.0	0.434890513	0.507215726	0.006732938	0.069462484	0.021409012
2020-09-02T08:50:00	0.1908	12.425	206.0	0.435669254	0.508542635	0.006758608	0.069727317	0.021490636
2020-09-02T08:55:00	0.1911	12.469	206.0	0.436447632	0.509870616	0.006784326	0.069992643	0.021572412
2020-09-02T09:00:00	0.1912	12.497	206.0	0.436681318	0.510269635	0.006792059	0.070072419	0.021597000
2020-09-02T09:05:00	0.1908	12.523	206.0	0.435553563	0.508345400	0.006754791	0.069687934	0.021478498
2020-09-02T09:10:00	0.1900	12.552	206.0	0.433334375	0.504569268	0.006681821	0.068935120	0.021246473
2020-09-02T09:15:00	0.1896	12.573	206.0	0.432204346	0.502651705	0.006644851	0.068553699	0.021128916
2020-09-02T09:20:00	0.1897	12.583	207.0	0.432438630	0.503048972	0.006652505	0.068632671	0.021153256
2020-09-02T09:25:00	0.1897	12.596	206.0	0.432672880	0.503446335	0.006660164	0.068711687	0.021177609
2020-09-02T09:30:00	0.1895	12.614	207.0	0.432088414	0.502455178	0.006641065	0.068514641	0.021116878
2020-09-02T09:35:00	0.1897	12.635	207.0	0.432595614	0.503315250	0.006657637	0.068685618	0.021169575
2020-09-02T09:40:00	0.1898	12.667	207.0	0.432829842	0.503712678	0.006665299	0.068764664	0.021193937
2020-09-02T09:45:00	0.1884	12.698	207.0	0.428966947	0.497177793	0.006539626	0.067468117	0.020794329
2020-09-02T09:50:00	0.1890	12.713	207.0	0.430568322	0.499881813	0.006591547	0.068003777	0.020959424
2020-09-02T09:55:00	0.1890	12.730	207.0	0.430529641	0.499816412	0.006590290	0.067990807	0.020955427
2020-09-02T10:00:00	0.1894	12.741	207.0	0.431583501	0.501599696	0.006624592	0.068344693	0.021064498
2020-09-02T10:05:00	0.1889	12.754	207.0	0.430377350	0.499558970	0.006585342	0.067939760	0.020939694
2020-09-02T10:10:00	0.1882	12.777	207.0	0.428349776	0.496137567	0.006519683	0.067262363	0.020730914
2020-09-02T10:15:00	0.1886	12.797	207.0	0.429603454	0.498251721	0.006560233	0.067680719	0.020859855
2020-09-02T10:20:00	0.1880	12.814	208.0	0.427848614	0.495293648	0.006503515	0.067095566	0.020679505
2020-09-02T10:25:00	0.1875	12.828	207.0	0.426639720	0.493260835	0.006464617	0.066694262	0.020555819
2020-09-02T10:30:00	0.1875	12.844	208.0	0.426525846	0.493069558	0.006460960	0.066656536	0.020544192
2020-09-02T10:35:00	0.1873	12.867	208.0	0.425864061	0.491958661	0.006439734	0.066437546	0.020476697
2020-09-02T10:40:00	0.1860	12.898	209.0	0.422458619	0.486261357	0.006331178	0.065317595	0.020131517
2020-09-02T10:45:00	0.1856	12.934	208.0	0.421245721	0.484239933	0.006292785	0.064921505	0.020009438
2020-09-02T10:50:00	0.1857	12.960	208.0	0.421680965	0.484964846	0.006306546	0.065063472	0.020053194
2020-09-02T10:55:00	0.1848	12.972	208.0	0.419092360	0.480661148	0.006224973	0.064221902	0.019793814
2020-09-02T11:00:00	0.1845	12.983	208.0	0.418152259	0.479102759	0.006195508	0.063917917	0.019700123
2020-09-02T11:05:00	0.1843	13.019	209.0	0.417762441	0.478457281	0.006183315	0.063792126	0.019661353
2020-09-02T11:10:00	0.1843	13.079	209.0	0.417647942	0.478267767	0.006179737	0.063755206	0.019649974
2020-09-02T11:15:00	0.1839	13.131	209.0	0.416706996	0.476711730	0.006150376	0.063452296	0.019556614
2020-09-02T11:20:00	0.1842	13.155	209.0	0.417418918	0.477888807	0.006172583	0.063681398	0.019627225
2020-09-02T11:25:00	0.1835	13.167	210.0	0.415650856	0.474968104	0.006117522	0.063113347	0.019452146
2020-09-02T11:30:00	0.1831	13.198	210.0	0.414432820	0.472961011	0.006079764	0.062723807	0.019332087
2020-09-02T11:35:00	0.1825	13.245	210.0	0.412661454	0.470049423	0.006025107	0.062159919	0.019158291
2020-09-02T11:40:00	0.1818	13.301	210.0	0.410888116	0.467143234	0.005970689	0.061598494	0.018985254
2020-09-02T11:45:00	0.1823	13.347	210.0	0.412155404	0.469219214	0.006009547	0.061999392	0.019108815
2020-09-02T11:50:00	0.1820	13.372	210.0	0.411487694	0.468124870	0.005989054	0.061787970	0.019043652
2020-09-02T11:55:00	0.1819	13.395	211.0	0.411096248	0.467483878	0.005977060	0.061664227	0.019005514
2020-09-02T12:00:00	0.1818	13.399	210.0	0.410704706	0.466843149	0.005965077	0.061540604	0.018967412
2020-09-02T12:05:00	0.1811	13.397	210.0	0.408929179	0.463942918	0.005910922	0.060981897	0.018795213
2020-09-02T12:10:00	0.1809	13.397	210.0	0.408260109	0.462852269	0.005890593	0.060772160	0.018730570
2020-09-02T12:15:00	0.1803	13.393	210.0	0.406759136	0.460410003	0.005845140	0.060303234	0.018586043
2020-09-02T12:20:00	0.1799	13.393	211.0	0.405534251	0.458421536	0.005808206	0.059922191	0.018468601
2020-09-02T12:25:00	0.1791	13.407	211.0	0.403475052	0.455087899	0.005746434	0.059284895	0.018272180
2020-09-02T12:30:00	0.1785	13.426	211.0	0.401691341	0.452209614	0.005693248	0.058736187	0.018103063
2020-09-02T12:35:00	0.1774	13.445	211.0	0.398512477	0.447101554	0.005599202	0.057765931	0.017804021
2020-09-02T12:40:00	0.1766	13.470	211.0	0.396443965	0.443792476	0.005538512	0.057139809	0.017611044
2020-09-02T12:45:00	0.1756	13.486	211.0	0.393533960	0.439156916	0.005453808	0.056265932	0.017341707
2020-09-02T12:50:00	0.1753	13.495	211.0	0.392858239	0.438083800	0.005434252	0.056064172	0.017279522
2020-09-02T12:55:00	0.1746	13.495	211.0	0.390782104	0.434794416	0.005374430	0.055446999	0.017089304
2020-09-02T13:00:00	0.1736	13.493	211.0	0.387861306	0.430186520	0.005290943	0.054585683	0.016823838
2020-09-02T13:05:00	0.1731	13.498	211.0	0.386621333	0.428237290	0.005255738	0.054222475	0.016711893
2020-09-02T13:10:00	0.1733	13.499	211.0	0.387066303	0.428936303	0.005268355	0.054352646	0.016752013
2020-09-02T13:15:00	0.1724	13.511	211.0	0.384700993	0.425226717	0.005201493	0.053662849	0.016539411
2020-09-02T13:20:00	0.1720	13.529	211.0	0.383458424	0.423284002	0.005166574	0.053302595	0.016428378
2020-09-02T13:25:00	0.1717	13.548	211.0	0.382778206	0.422222265	0.005147518	0.053105998	0.016367784
2020-09-02T13:30:00	0.1721	13.564	211.0	0.383787309	0.423797797	0.005175803	0.053397806	0.016457722
2020-09-02T13:35:00	0.1719	13.577	211.0	0.383107239	0.422735690	0.005156731	0.053201041	0.016397078
2020-09-02T13:40:00	0.1717	13.584	211.0	0.382708537	0.422113590	0.005145569	0.053085887	0.016361586
2020-09-02T13:45:00	0.1717	13.592	211.0	0.382591426	0.421930942	0.005142293	0.053052091	0.016351170
2020-09-02T13:50:00	0.1711	13.599	212.0	0.381065182	0.419553960	0.005099716	0.052612828	0.016215785
2020-09-02T13:55:00	0.1708	13.591	211.0	0.380101766	0.418056753	0.005072949	0.052336677	0.016130672
2020-09-02T14:00:00	0.1706	13.590	211.0	0.379420023	0.416998789	0.005054059	0.052141790	0.016070606
2020-09-02T14:05:00	0.1702	13.592	211.0	0.378455546	0.415504196	0.005027406	0.051866822	0.015985858
2020-09-02T14:10:00	0.1700	13.590	211.0	0.377773051	0.414448080	0.005008597	0.051672772	0.015926050
2020-09-02T14:15:00	0.1703	13.593	211.0	0.378785530	0.416015272	0.005036515	0.051960801	0.016014824
2020-09-02T14:20:00	0.1704	13.587	211.0	0.378950495	0.416270877	0.005041073	0.052007821	0.016029316
2020-09-02T14:25:00	0.1703	13.579	211.0	0.378833090	0.416088956	0.005037829	0.051974355	0.016019001
2020-09-02T14:30:00	0.1703	13.576	211.0	0.378715675	0.415907057	0.005034586	0.051940898	0.016008689
2020-09-02T14:35:00	0.1697	13.577	211.0	0.376902750	0.413103161	0.004984673	0.051425955	0.015849979
2020-09-02T14:40:00	0.1693	13.575	211.0	0.375936641	0.411612560	0.004958196	0.051152795	0.015765788
2020-09-02T14:45:00	0.1692	13.575	211.0	0.375536019	0.410995178	0.004947241	0.051039777	0.015730955
2020-09-02T14:50:00	0.1684	13.572	211.0	0.373435825	0.407765679	0.004890050	0.050449744	0.015549101
2020-09-02T14:55:00	0.1679	13.571	211.0	0.371900155	0.405411716	0.004848483	0.050020901	0.015416928
2020-09-02T15:00:00	0.1679	13.566	211.0	0.371782190	0.405231154	0.004845298	0.049988050	0.015406802
2020-09-02T15:05:00	0.1675	13.562	211.0	0.370812726	0.403748652	0.004819176	0.049718553	0.015323741
2020-09-02T15:10:00	0.1678	13.560	211.0	0.371546231	0.404870096	0.004838933	0.049922377	0.015386561
2020-09-02T15:15:00	0.1686	13.560	211.0	0.373980166	0.408601586	0.004904835	0.050602279	0.015596114
2020-09-02T15:20:00	0.1686	13.556	211.0	0.373862367	0.408420623	0.004901633	0.050569246	0.015585933
2020-09-02T15:25:00	0.1688	13.556	211.0	0.374594358	0.409545712	0.004921549	0.050774718	0.015649261
2020-09-02T15:30:00	0.1693	13.562	211.0	0.375891969	0.411543696	0.004956974	0.051140185	0.015761902
2020-09-02T15:35:00	0.1698	13.562	211.0	0.377188446	0.413544437	0.004992519	0.051506900	0.015874927
2020-09-02T15:40:00	0.1698	13.561	211.0	0.377353587	0.413799609	0.004997058	0.051553724	0.015889358
2020-09-02T15:45:00	0.1699	13.558	212.0	0.377518711	0.414054826	0.005001598	0.051600568	0.015903796
2020-09-02T15:50:00	0.1693	13.555	212.0	0.375987271	0.411690615	0.004959582	0.051167089	0.015770194
2020-09-02T15:55:00	0.1701	13.551	211.0	0.378131441	0.415002508	0.005018469	0.051774617	0.015957440
2020-09-02T16:00:00	0.1703	13.546	211.0	0.378578931	0.415695258	0.005030811	0.051901950	0.015996685
2020-09-02T16:05:00	0.1702	13.540	211.0	0.378299005	0.415261849	0.005023088	0.051822275	0.015972129
2020-09-02T16:10:00	0.1704	13.532	211.0	0.378866384	0.416140542	0.005038749	0.051983844	0.016021926
2020-09-02T16:15:00	0.1703	13.525	211.0	0.378586512	0.415706999	0.005031020	0.051904109	0.015997350
2020-09-02T16:20:00	0.1703	13.517	211.0	0.378589039	0.415710913	0.005031090	0.051904829	0.015997572
2020-09-02T16:25:00	0.1703	13.506	211.0	0.378591566	0.415714827	0.005031160	0.051905548	0.015997794
2020-09-02T16:30:00	0.1705	13.493	211.0	0.379158834	0.416593793	0.005046832	0.052067240	0.016047629
2020-09-02T16:35:00	0.1708	13.479	211.0	0.380008069	0.417911274	0.005070350	0.052309866	0.016122409
2020-09-02T16:40:00	0.1709	13.465	211.0	0.380292723	0.418353312	0.005078247	0.052391343	0.016147521
2020-09-02T16:45:00	0.1711	13.454	211.0	0.380859345	0.419233866	0.005093990	0.052553754	0.016197578
2020-09-02T16:50:00	0.1709	13.443	211.0	0.380297771	0.418361154	0.005078388	0.052392789	0.016147966
2020-09-02T16:55:00	0.1710	13.432	211.0	0.380582370	0.418803328	0.005086291	0.052474327	0.016173097
2020-09-02T17:00:00	0.1710	13.421	211.0	0.380584894	0.418807250	0.005086361	0.052475051	0.016173320
2020-09-02T17:05:00	0.1708	13.410	211.0	0.380023217	0.417934792	0.005070770	0.052314200	0.016123745
2020-09-02T17:10:00	0.1713	13.399	211.0	0.381435842	0.420130652	0.005110037	0.052719305	0.016248602
2020-09-02T17:15:00	0.1712	13.387	211.0	0.381156451	0.419695926	0.005102256	0.052639034	0.016223862
2020-09-02T17:20:00	0.1718	13.376	211.0	0.382849658	0.422333734	0.005149518	0.053126629	0.016374143
2020-09-02T17:25:00	0.1717	13.364	211.0	0.382570530	0.421898355	0.005141709	0.053046063	0.016349312
2020-09-02T17:30:00	0.1723	13.351	211.0	0.384262146	0.424540119	0.005189145	0.053535449	0.016500145
2020-09-02T17:35:00	0.1729	13.340	211.0	0.385951866	0.427186618	0.005236789	0.054026983	0.016651641
2020-09-02T17:40:00	0.1732	13.329	211.0	0.386797275	0.428513618	0.005260724	0.054273923	0.016727750
2020-09-02T17:45:00	0.1740	13.314	211.0	0.389045216	0.432051494	0.005324688	0.054933830	0.016931140
2020-09-02T17:50:00	0.1740	13.301	210.0	0.389047725	0.432055451	0.005324760	0.054934569	0.016931368
2020-09-02T17:55:00	0.1740	13.286	210.0	0.389050235	0.432059409	0.005324832	0.054935308	0.016931596
2020-09-02T18:00:00	0.1743	13.270	210.0	0.389893921	0.433390764	0.005348959	0.055184224	0.017008314
2020-09-02T18:05:00	0.1747	13.255	210.0	0.391017275	0.435166430	0.005381186	0.055516702	0.017110787
2020-09-02T18:10:00	0.1750	13.238	210.0	0.391859875	0.436500555	0.005405435	0.055766875	0.017187892
2020-09-02T18:15:00	0.1752	13.220	210.0	0.392422185	0.437391955	0.005421654	0.055934205	0.017239465
2020-09-02T18:20:00	0.1759	13.204	210.0	0.394382395	0.440506076	0.005478423	0.056519880	0.017419976
2020-09-02T18:25:00	0.1771	13.187	210.0	0.397735174	0.445856708	0.005576349	0.057530165	0.017731355
2020-09-02T18:30:00	0.1776	13.170	210.0	0.399131476	0.448094054	0.005617440	0.057954097	0.017862016
2020-09-02T18:35:00	0.1775	13.153	210.0	0.398855309	0.447651120	0.005609299	0.057870101	0.017836127
2020-09-02T18:40:00	0.1776	13.136	210.0	0.399136462	0.448102053	0.005617587	0.057955615	0.017862483
2020-09-02T18:45:00	0.1779	13.119	210.0	0.399974635	0.449447649	0.005642342	0.058211000	0.017941195
2020-09-02T18:50:00	0.1782	13.104	210.0	0.400812355	0.450794432	0.005667148	0.058466925	0.018020074
2020-09-02T18:55:00	0.1784	13.090	210.0	0.401371415	0.451694284	0.005683740	0.058638097	0.018072831
2020-09-02T19:00:00	0.1784	13.075	210.0	0.401373904	0.451698293	0.005683814	0.058638860	0.018073066
2020-09-02T19:05:00	0.1787	13.060	210.0	0.402210873	0.453047060	0.005708708	0.058895688	0.018152223
2020-09-02T19:10:00	0.1788	13.047	209.0	0.402491421	0.453499589	0.005717067	0.058981928	0.018178803
2020-09-02T19:15:00	0.1785	13.033	209.0	0.401659581	0.452158444	0.005692303	0.058726445	0.018100061
2020-09-02T19:20:00	0.1785	13.021	209.0	0.401662070	0.452162454	0.005692377	0.058727209	0.018100296
2020-09-02T19:25:00	0.1785	13.009	209.0	0.401664560	0.452166465	0.005692451	0.058727972	0.018100531
2020-09-02T19:30:00	0.1792	12.999	209.0	0.403613110	0.455311040	0.005750563	0.059327494	0.018285310
2020-09-02T19:35:00	0.1796	12.987	209.0	0.404726544	0.457112557	0.005783929	0.059671725	0.018391405
2020-09-02T19:40:00	0.1793	12.975	209.0	0.403895893	0.455768256	0.005759026	0.059414805	0.018312220
2020-09-02T19:45:00	0.1796	12.964	209.0	0.404731512	0.457120603	0.005784078	0.059673263	0.018391879
2020-09-02T19:50:00	0.1797	12.954	209.0	0.405011609	0.457574333	0.005792490	0.059760049	0.018418628
2020-09-02T19:55:00	0.1798	12.943	209.0	0.405291656	0.458028196	0.005800908	0.059846896	0.018445395
2020-09-02T20:00:00	0.1798	12.933	208.0	0.405294139	0.458032221	0.005800982	0.059847667	0.018445632
2020-09-02T20:05:00	0.1799	12.922	208.0	0.405574136	0.458486219	0.005809406	0.059934575	0.018472418
2020-09-02T20:10:00	0.1798	12.911	209.0	0.405299106	0.458040273	0.005801132	0.059849208	0.018446107
2020-09-02T20:15:00	0.1799	12.901	208.0	0.405579101	0.458494273	0.005809556	0.059936117	0.018472893
2020-09-02T20:20:00	0.1803	12.892	208.0	0.406691142	0.460299513	0.005843086	0.060282044	0.018579511
2020-09-02T20:25:00	0.1804	12.882	208.0	0.406970890	0.460754177	0.005851540	0.060369256	0.018606391
2020-09-02T20:30:00	0.1799	12.872	209.0	0.405586550	0.458506353	0.005809780	0.059938430	0.018473606
2020-09-02T20:35:00	0.1794	12.864	209.0	0.404200990	0.456261797	0.005768165	0.059509093	0.018341281
2020-09-02T20:40:00	0.1791	12.856	208.0	0.403370060	0.454918238	0.005743295	0.059252512	0.018262200
2020-09-02T20:45:00	0.1793	12.847	209.0	0.403928205	0.455820513	0.005759993	0.059424787	0.018315296
2020-09-02T20:50:00	0.1791	12.840	208.0	0.403375033	0.454926273	0.005743443	0.059254046	0.018262672
2020-09-02T20:55:00	0.1792	12.831	208.0	0.403655372	0.455379356	0.005751827	0.059340537	0.018289330
2020-09-02T21:00:00	0.1788	12.823	208.0	0.402546151	0.453587895	0.005718699	0.058998760	0.018183991
2020-09-02T21:05:00	0.1788	12.816	208.0	0.402548639	0.453591909	0.005718773	0.058999526	0.018184227
2020-09-02T21:10:00	0.1785	12.810	208.0	0.401716830	0.452250684	0.005694006	0.058744006	0.018105473
2020-09-02T21:15:00	0.1785	12.803	208.0	0.401719319	0.452254694	0.005694080	0.058744770	0.018105709
2020-09-02T21:20:00	0.1779	12.796	208.0	0.400051879	0.449571753	0.005644626	0.058234570	0.017948460
2020-09-02T21:25:00	0.1771	12.789	208.0	0.397825007	0.446000490	0.005578987	0.057557382	0.017739744
2020-09-02T21:30:00	0.1767	12.781	208.0	0.396711617	0.444219995	0.005546343	0.057220594	0.017635943
2020-09-02T21:35:00	0.1764	12.773	208.0	0.395876673	0.442886991	0.005521938	0.056968814	0.017558342
2020-09-02T21:40:00	0.1761	12.765	208.0	0.395041276	0.441555160	0.005497585	0.056717567	0.017480905
2020-09-02T21:45:00	0.1759	12.759	208.0	0.394484926	0.440669252	0.005481402	0.056550615	0.017429449
2020-09-02T21:50:00	0.1753	12.751	207.0	0.392809661	0.438006700	0.005432847	0.056049685	0.017275057
2020-09-02T21:55:00	0.1753	12.743	208.0	0.392812164	0.438010673	0.005432920	0.056050431	0.017275287
2020-09-02T22:00:00	0.1749	12.735	208.0	0.391695140	0.436239572	0.005400689	0.055717911	0.017172801
2020-09-02T22:05:00	0.1750	12.726	208.0	0.391858701	0.436498696	0.005405401	0.055766526	0.017187785
2020-09-02T22:10:00	0.1746	12.717	207.0	0.390902137	0.434984276	0.005377877	0.055482570	0.017100267
2020-09-02T22:15:00	0.1751	12.710	207.0	0.392185771	0.437017077	0.005414831	0.055863817	0.017217771
2020-09-02T22:20:00	0.1745	12.702	208.0	0.390388972	0.434172861	0.005363147	0.055330596	0.017053427
2020-09-02T22:25:00	0.1747	12.694	207.0	0.391112957	0.435317831	0.005383936	0.055545077	0.017119532
2020-09-02T22:30:00	0.1741	12.687	208.0	0.389314894	0.432476839	0.005332393	0.055013319	0.016955639
2020-09-02T22:35:00	0.1743	12.679	207.0	0.390039390	0.433620511	0.005353126	0.055227210	0.017021563
2020-09-02T22:40:00	0.1745	12.673	207.0	0.390483361	0.434322055	0.005365854	0.055358530	0.017062037
2020-09-02T22:45:00	0.1744	12.666	207.0	0.390366849	0.434137897	0.005362512	0.055324050	0.017051409
2020-09-02T22:50:00	0.1746	12.659	207.0	0.390810725	0.434839683	0.005375252	0.055455480	0.017091917
2020-09-02T22:55:00	0.1747	12.653	207.0	0.390974381	0.435098565	0.005379953	0.055503985	0.017106867
2020-09-02T23:00:00	0.1744	12.645	207.0	0.390297529	0.434028346	0.005360524	0.055303541	0.017045088
2020-09-02T23:05:00	0.1742	12.639	207.0	0.389620376	0.432958893	0.005341129	0.055103445	0.016983417
2020-09-02T23:10:00	0.1741	12.634	207.0	0.389503799	0.432774903	0.005337794	0.055069041	0.016972813
2020-09-02T23:15:00	0.1734	12.629	207.0	0.387423088	0.429497170	0.005278485	0.054457155	0.016784224
2020-09-02T23:20:00	0.1727	12.625	207.0	0.385339520	0.426226650	0.005219492	0.053848542	0.016596644
2020-09-02T23:25:00	0.1719	12.620	207.0	0.383253074	0.422963344	0.005160817	0.053243199	0.016410071
2020-09-02T23:30:00	0.1720	12.617	207.0	0.383417548	0.423220164	0.005165428	0.053290769	0.016424733
2020-09-02T23:35:00	0.1713	12.613	207.0	0.381610316	0.420402234	0.005114899	0.052769470	0.016264063
2020-09-02T23:40:00	0.1711	12.611	207.0	0.380929259	0.419342576	0.005095934	0.052573815	0.016203760
2020-09-02T23:45:00	0.1711	12.609	207.0	0.381093988	0.419598763	0.005100517	0.052621098	0.016218334
2020-09-02T23:50:00	0.1709	12.607	207.0	0.380412697	0.418539685	0.005081578	0.052425706	0.016158112
2020-09-02T23:55:00	0.1709	12.605	207.0	0.380295407	0.418357481	0.005078322	0.052392112	0.016147758
2020-09-03T00:00:00	0.1707	12.603	207.0	0.379895956	0.417737235	0.005067242	0.052277797	0.016112525
2020-09-03T00:05:00	0.1704	12.601	207.0	0.378931786	0.416241885	0.005040556	0.052002487	0.016027672
2020-09-03T00:10:00	0.1698	12.598	207.0	0.377401801	0.413874121	0.004998383	0.051567399	0.015893573
2020-09-03T00:15:00	0.1698	12.595	207.0	0.377284274	0.413692499	0.004995153	0.051534068	0.015883300
2020-09-03T00:20:00	0.1694	12.592	207.0	0.376035529	0.411765019	0.004960902	0.051180715	0.015774393
2020-09-03T00:25:00	0.1698	12.591	207.0	0.377331881	0.413766065	0.004996461	0.051547568	0.015887461
2020-09-03T00:30:00	0.1697	12.590	207.0	0.376931636	0.413147767	0.004985466	0.051434136	0.015852500
2020-09-03T00:35:00	0.1693	12.589	207.0	0.375965545	0.411657120	0.004958987	0.051160955	0.015768303
2020-09-03T00:40:00	0.1690	12.587	206.0	0.374998825	0.410168003	0.004932575	0.050888466	0.015684320
2020-09-03T00:45:00	0.1690	12.585	207.0	0.375164210	0.410422582	0.004937087	0.050935022	0.015698668
2020-09-03T00:50:00	0.1686	12.584	207.0	0.373913678	0.408499444	0.004903028	0.050583633	0.015590367
2020-09-03T00:55:00	0.1690	12.583	206.0	0.374928792	0.410060223	0.004930665	0.050868760	0.015678246
2020-09-03T01:00:00	0.1691	12.582	207.0	0.375377247	0.410750620	0.004942904	0.050995028	0.015717163
2020-09-03T01:05:00	0.1689	12.580	207.0	0.374693336	0.409697954	0.004924246	0.050802539	0.015657836
2020-09-03T01:10:00	0.1680	12.578	207.0	0.372308348	0.406036803	0.004859511	0.050134678	0.015451995
2020-09-03T01:15:00	0.1685	12.577	207.0	0.373607965	0.408029937	0.004894723	0.050497951	0.015563959
2020-09-03T01:20:00	0.1677	12.575	207.0	0.371221221	0.404373016	0.004830173	0.049832003	0.015358707
2020-09-03T01:25:00	0.1674	12.572	207.0	0.370535380	0.403324997	0.004811719	0.049641615	0.015300028
2020-09-03T01:30:00	0.1673	12.570	206.0	0.370133289	0.402711154	0.004800919	0.049530198	0.015265688
2020-09-03T01:35:00	0.1670	12.566	207.0	0.369446940	0.401664349	0.004782518	0.049340360	0.015207178
2020-09-03T01:40:00	0.1670	12.563	206.0	0.369328778	0.401484257	0.004779355	0.049307721	0.015197119
2020-09-03T01:45:00	0.1675	12.560	206.0	0.370631029	0.403471081	0.004814290	0.049668141	0.015308203
2020-09-03T01:50:00	0.1676	12.557	206.0	0.371080792	0.404158328	0.004826391	0.049792985	0.015346682
2020-09-03T01:55:00	0.1673	12.555	207.0	0.370110866	0.402676934	0.004800317	0.049523989	0.015263775
2020-09-03T02:00:00	0.1666	12.549	206.0	0.368287342	0.399898606	0.004751525	0.049020612	0.015108629
2020-09-03T02:05:00	0.1663	12.543	206.0	0.367315563	0.398421617	0.004725645	0.048753608	0.015026335
2020-09-03T02:10:00	0.1665	12.538	206.0	0.368050821	0.399538890	0.004745219	0.048955546	0.015088575
2020-09-03T02:15:00	0.1664	12.533	206.0	0.367648048	0.398926671	0.004734490	0.048844863	0.015054461
2020-09-03T02:20:00	0.1664	12.527	206.0	0.367529740	0.398746925	0.004731342	0.048812380	0.015044450
2020-09-03T02:25:00	0.1660	12.519	206.0	0.366557457	0.397271129	0.004705513	0.048545915	0.014962322
2020-09-03T02:30:00	0.1658	12.512	206.0	0.365869426	0.396228308	0.004687287	0.048357877	0.014904367
2020-09-03T02:35:00	0.1661	12.502	206.0	0.366890114	0.397775775	0.004714341	0.048636985	0.014990391
2020-09-03T02:40:00	0.1657	12.492	206.0	0.365632513	0.395869519	0.004681021	0.048293229	0.014884442
2020-09-03T02:45:00	0.1656	12.483	206.0	0.365229071	0.395258878	0.004670362	0.048183259	0.014850548
2020-09-03T02:50:00	0.1656	12.471	206.0	0.365395561	0.395510821	0.004674759	0.048228623	0.014864530
2020-09-03T02:55:00	0.1657	12.459	206.0	0.365562032	0.395762809	0.004679158	0.048274007	0.014878518
2020-09-03T03:00:00	0.1651	12.447	206.0	0.364018073	0.393428530	0.004638453	0.047854060	0.014749086
2020-09-03T03:05:00	0.1653	12.435	206.0	0.364469877	0.394110949	0.004650342	0.047976722	0.014786892
2020-09-03T03:10:00	0.1652	12.423	206.0	0.364351311	0.393931811	0.004647220	0.047944514	0.014776965
2020-09-03T03:15:00	0.1659	12.410	206.0	0.366227724	0.396771209	0.004696773	0.048455745	0.014934531
2020-09-03T03:20:00	0.1661	12.396	206.0	0.366678843	0.397455238	0.004708733	0.048579134	0.014972561
2020-09-03T03:25:00	0.1665	12.383	206.0	0.367983453	0.399436460	0.004743423	0.048937023	0.015082866
2020-09-03T03:30:00	0.1668	12.370	206.0	0.368718374	0.400554529	0.004763032	0.049139320	0.015145216
2020-09-03T03:35:00	0.1666	12.357	206.0	0.368315785	0.399941874	0.004752284	0.049028440	0.015111041
2020-09-03T03:40:00	0.1666	12.345	206.0	0.368197531	0.399761999	0.004749130	0.048995900	0.015101012
2020-09-03T03:45:00	0.1665	12.332	206.0	0.367794799	0.399149685	0.004738397	0.048885173	0.015066885
2020-09-03T03:50:00	0.1670	12.317	206.0	0.369382630	0.401566328	0.004780796	0.049322595	0.015201703
2020-09-03T03:55:00	0.1668	12.304	205.0	0.368695929	0.400520361	0.004762432	0.049133135	0.015143309
2020-09-03T04:00:00	0.1673	12.289	205.0	0.370282783	0.402939325	0.004804933	0.049571605	0.015278450
2020-09-03T04:05:00	0.1674	12.276	205.0	0.370368284	0.403069852	0.004807229	0.049595296	0.015285752
2020-09-03T04:10:00	0.1671	12.261	205.0	0.369601589	0.401900106	0.004786661	0.049383097	0.015220350
2020-09-03T04:15:00	0.1672	12.246	205.0	0.369971232	0.402463874	0.004796571	0.049485336	0.015251861
2020-09-03T04:20:00	0.1676	12.232	205.0	0.371192545	0.404329171	0.004829400	0.049824034	0.015356251
2020-09-03T04:25:00	0.1677	12.219	205.0	0.371277993	0.404459824	0.004831702	0.049847782	0.015363571
2020-09-03T04:30:00	0.1677	12.204	205.0	0.371363436	0.404590489	0.004834005	0.049871536	0.015370892
2020-09-03T04:35:00	0.1673	12.190	205.0	0.370313279	0.402985877	0.004805752	0.049580054	0.015281054
2020-09-03T04:40:00	0.1675	12.179	205.0	0.370682743	0.403550073	0.004815680	0.049682486	0.015312625
2020-09-03T04:45:00	0.1680	12.165	205.0	0.372187138	0.405851143	0.004856235	0.050100877	0.015441577
2020-09-03T04:50:00	0.1681	12.151	205.0	0.372556132	0.406416465	0.004866213	0.050203818	0.015473304
2020-09-03T04:55:00	0.1688	12.139	204.0	0.374341878	0.409157483	0.004914674	0.050703790	0.015627400
2020-09-03T05:00:00	0.1694	12.126	204.0	0.376125472	0.411903709	0.004963365	0.051206117	0.015782223
2020-09-03T05:05:00	0.1698	12.115	205.0	0.377341710	0.413781254	0.004996731	0.051550356	0.015888320
2020-09-03T05:10:00	0.1695	12.103	204.0	0.376578627	0.412602795	0.004975781	0.051334215	0.015821704
2020-09-03T05:15:00	0.1692	12.091	204.0	0.375532173	0.410989252	0.004947136	0.051038693	0.015730621
2020-09-03T05:20:00	0.1699	12.078	204.0	0.377596976	0.414175820	0.005003751	0.051622780	0.015910642
2020-09-03T05:25:00	0.1704	12.066	204.0	0.379094369	0.416493862	0.005045050	0.052048850	0.016041961
2020-09-03T05:30:00	0.1705	12.055	204.0	0.379179362	0.416625617	0.005047400	0.052073097	0.016049434
2020-09-03T05:35:00	0.1706	12.046	203.0	0.379546621	0.417195156	0.005057563	0.052177947	0.016081750
2020-09-03T05:40:00	0.1693	12.036	204.0	0.375958111	0.411645659	0.004958784	0.051158856	0.015767656
2020-09-03T05:45:00	0.1702	12.025	204.0	0.378304828	0.415270862	0.005023249	0.051823932	0.015972639
2020-09-03T05:50:00	0.1701	12.015	203.0	0.378107378	0.414965273	0.005017806	0.051767775	0.015955331
2020-09-03T05:55:00	0.1698	12.006	204.0	0.377344687	0.413785855	0.004996813	0.051551200	0.015888580
2020-09-03T06:00:00	0.1699	11.997	204.0	0.377429781	0.413917365	0.004999153	0.051575336	0.015896020
2020-09-03T06:05:00	0.1697	11.990	204.0	0.376949505	0.413175363	0.004985957	0.051439197	0.015854060
2020-09-03T06:10:00	0.1696	11.985	204.0	0.376751875	0.412870212	0.004980533	0.051383239	0.015836813
2020-09-03T06:15:00	0.1696	11.979	204.0	0.376837003	0.413001640	0.004982869	0.051407338	0.015844241
2020-09-03T06:20:00	0.1695	11.976	204.0	0.376356536	0.412260105	0.004969693	0.051271410	0.015802347
2020-09-03T06:25:00	0.1695	11.974	203.0	0.376441686	0.412391477	0.004972027	0.051295484	0.015809766
2020-09-03T06:30:00	0.1703	11.973	203.0	0.378787641	0.416018542	0.005036574	0.051961403	0.016015009
2020-09-03T06:35:00	0.1702	11.974	204.0	0.378307804	0.415275468	0.005023331	0.051824779	0.015972900
2020-09-03T06:40:00	0.1703	11.976	204.0	0.378675277	0.415844480	0.005033471	0.051929390	0.016005142
2020-09-03T06:45:00	0.1704	11.980	204.0	0.379042660	0.416413714	0.005043620	0.052034102	0.016037416
2020-09-03T06:50:00	0.1704	11.984	204.0	0.378845307	0.416107885	0.005038167	0.051977837	0.016020074
2020-09-03T06:55:00	0.1705	11.989	204.0	0.379212648	0.416677222	0.005048321	0.052082595	0.016052362
2020-09-03T07:00:00	0.1708	11.995	204.0	0.380144267	0.418122749	0.005074128	0.052348841	0.016134421
2020-09-03T07:05:00	0.1708	12.001	204.0	0.380229201	0.418254651	0.005076485	0.052373155	0.016141915
2020-09-03T07:10:00	0.1709	12.008	204.0	0.380314130	0.418386565	0.005078842	0.052397474	0.016149410
2020-09-03T07:15:00	0.1711	12.016	204.0	0.380963114	0.419395220	0.005096876	0.052583530	0.016206755
2020-09-03T07:20:00	0.1710	12.026	204.0	0.380766014	0.419088767	0.005091395	0.052526982	0.016189326
2020-09-03T07:25:00	0.1709	12.038	205.0	0.380286812	0.418344131	0.005078083	0.052389651	0.016146999
2020-09-03T07:30:00	0.1718	12.051	203.0	0.382908380	0.422425354	0.005151162	0.053143588	0.016379370
2020-09-03T07:35:00	0.1718	12.066	204.0	0.382993158	0.422557643	0.005153536	0.053168077	0.016386918
2020-09-03T07:40:00	0.1722	12.083	204.0	0.383922432	0.424008976	0.005179598	0.053436953	0.016469788
2020-09-03T07:45:00	0.1719	12.101	204.0	0.383162699	0.422822257	0.005158285	0.053217071	0.016402018
2020-09-03T07:50:00	0.1716	12.121	204.0	0.382402581	0.421636494	0.005137014	0.052997622	0.016334382
2020-09-03T07:55:00	0.1719	12.143	204.0	0.383332220	0.423086919	0.005163036	0.053266087	0.016417125
2020-09-03T08:00:00	0.1716	12.169	204.0	0.382290488	0.421461763	0.005133881	0.052965306	0.016324422
2020-09-03T08:05:00	0.1721	12.194	205.0	0.383783197	0.423791371	0.005175688	0.053396615	0.016457355
2020-09-03T08:10:00	0.1716	12.220	205.0	0.382460108	0.421726180	0.005138622	0.053014211	0.016339495
2020-09-03T08:15:00	0.1714	12.247	205.0	0.381699635	0.420541300	0.005117389	0.052795162	0.016271982
2020-09-03T08:20:00	0.1717	12.275	205.0	0.382629709	0.421990645	0.005143364	0.053063138	0.016354574
2020-09-03T08:25:00	0.1717	12.302	205.0	0.382714503	0.422122895	0.005145736	0.053087609	0.016362117
2020-09-03T08:30:00	0.1715	12.334	205.0	0.381954159	0.420937695	0.005124490	0.052868415	0.016294559
2020-09-03T08:35:00	0.1718	12.366	206.0	0.382884075	0.422387431	0.005150481	0.053136568	0.016377206
2020-09-03T08:40:00	0.1712	12.400	206.0	0.381278304	0.419885500	0.005105649	0.052674035	0.016234649
2020-09-03T08:45:00	0.1714	12.438	206.0	0.381926870	0.420895187	0.005123728	0.052860559	0.016292138
2020-09-03T08:50:00	0.1705	12.481	206.0	0.379191257	0.416644058	0.005047729	0.052076491	0.016050480
2020-09-03T08:55:00	0.1705	12.544	206.0	0.379276245	0.416775827	0.005050080	0.052100744	0.016057955
2020-09-03T09:00:00	0.1708	12.577	206.0	0.380207824	0.418221451	0.005075891	0.052367035	0.016140029
2020-09-03T09:05:00	0.1705	12.621	206.0	0.379163918	0.416601674	0.005046973	0.052068691	0.016048076
2020-09-03T09:10:00	0.1704	12.642	206.0	0.378966581	0.416295806	0.005041518	0.052012408	0.016030729
2020-09-03T09:15:00	0.1701	12.673	207.0	0.378204330	0.415115311	0.005020478	0.051795345	0.015963828
2020-09-03T09:20:00	0.1698	12.706	207.0	0.377159021	0.413498978	0.004991711	0.051498560	0.015872356
2020-09-03T09:25:00	0.1706	12.739	207.0	0.379503848	0.417128805	0.005056379	0.052165729	0.016077984
2020-09-03T09:30:00	0.1702	12.775	207.0	0.378459449	0.415510239	0.005027514	0.051867933	0.015986201
2020-09-03T09:35:00	0.1694	12.811	207.0	0.376283299	0.412147128	0.004967687	0.051250710	0.015795967
2020-09-03T09:40:00	0.1698	12.849	207.0	0.377216750	0.413588166	0.004993297	0.051514924	0.015877400
2020-09-03T09:45:00	0.1700	12.887	208.0	0.377867081	0.414593511	0.005011186	0.051699481	0.015934282
2020-09-03T09:50:00	0.1692	12.926	209.0	0.375690063	0.411232518	0.004951452	0.051083216	0.015744343
2020-09-03T09:55:00	0.1692	12.963	208.0	0.375492265	0.410927776	0.004946046	0.051027443	0.015727154
2020-09-03T10:00:00	0.1683	12.995	208.0	0.373028298	0.407140383	0.004878998	0.050335727	0.015513960
2020-09-03T10:05:00	0.1689	13.018	208.0	0.374808407	0.409874982	0.004927382	0.050834896	0.015667809
2020-09-03T10:10:00	0.1689	13.049	209.0	0.374605423	0.409562731	0.004921851	0.050777828	0.015650220
2020-09-03T10:15:00	0.1680	13.084	208.0	0.372134899	0.405771139	0.004854823	0.050086313	0.015437088
2020-09-03T10:20:00	0.1686	13.123	209.0	0.373916085	0.408503141	0.004903093	0.050584308	0.015590575
2020-09-03T10:25:00	0.1681	13.159	209.0	0.372579129	0.406451709	0.004866835	0.050210238	0.015475283
2020-09-03T10:30:00	0.1676	13.201	209.0	0.370957103	0.403969274	0.004823061	0.049758633	0.015336094
2020-09-03T10:35:00	0.1671	13.242	209.0	0.369617455	0.401924298	0.004787086	0.049387483	0.015221702
2020-09-03T10:40:00	0.1675	13.279	210.0	0.370833981	0.403781129	0.004819748	0.049724453	0.015325559
2020-09-03T10:45:00	0.1675	13.319	210.0	0.370630450	0.403470196	0.004814274	0.049667981	0.015308154
2020-09-03T10:50:00	0.1674	13.354	210.0	0.370426891	0.403159331	0.004808803	0.049611539	0.015290758
2020-09-03T10:55:00	0.1670	13.393	210.0	0.369370978	0.401548570	0.004780484	0.049319376	0.015200711
2020-09-03T11:00:00	0.1677	13.437	210.0	0.371439327	0.404706563	0.004836050	0.049892640	0.015377396
2020-09-03T11:05:00	0.1683	13.489	211.0	0.372937878	0.407001706	0.004876548	0.050310450	0.015506169
2020-09-03T11:10:00	0.1691	13.539	211.0	0.375284310	0.410607498	0.004940366	0.050968845	0.015709093
2020-09-03T11:15:00	0.1678	13.584	211.0	0.371680381	0.405075350	0.004842551	0.049959707	0.015398067
2020-09-03T11:20:00	0.1682	13.620	211.0	0.372895202	0.406936263	0.004875392	0.050298523	0.015502493
2020-09-03T11:25:00	0.1684	13.652	211.0	0.373258946	0.407494228	0.004885251	0.050400238	0.015533843
2020-09-03T11:30:00	0.1681	13.674	211.0	0.372488681	0.406313099	0.004864388	0.050184992	0.015467502
2020-09-03T11:35:00	0.1694	13.700	211.0	0.376250844	0.412097067	0.004966798	0.051241538	0.015793140
2020-09-03T11:40:00	0.1696	13.723	212.0	0.376613765	0.412657026	0.004976744	0.051344156	0.015824767
2020-09-03T11:45:00	0.1689	13.737	212.0	0.374713028	0.409728247	0.004924783	0.050808076	0.015659542
2020-09-03T11:50:00	0.1688	13.753	212.0	0.374510032	0.409416028	0.004919253	0.050751022	0.015641958
2020-09-03T11:55:00	0.1694	13.769	212.0	0.376288361	0.412154936	0.004967826	0.051252140	0.015796407
2020-09-03T12:00:00	0.1690	13.780	212.0	0.374953547	0.410098320	0.004931340	0.050875725	0.015680393
2020-09-03T12:05:00	0.1682	13.787	212.0	0.372767169	0.406739950	0.004871925	0.050262750	0.015491468
2020-09-03T12:10:00	0.1679	13.799	213.0	0.371996647	0.405559440	0.004851088	0.050047783	0.015425213
2020-09-03T12:15:00	0.1684	13.816	212.0	0.373211208	0.407420979	0.004883957	0.050386882	0.015529726
2020-09-03T12:20:00	0.1673	13.835	212.0	0.370170383	0.402767764	0.004801915	0.049540471	0.015268854
2020-09-03T12:25:00	0.1677	13.846	212.0	0.371386451	0.404625688	0.004834625	0.049877935	0.015372864
2020-09-03T12:30:00	0.1665	13.853	213.0	0.368057425	0.399548933	0.004745395	0.048957362	0.015089134
2020-09-03T12:35:00	0.1669	13.856	213.0	0.368991009	0.400969667	0.004770318	0.049214494	0.015168385
2020-09-03T12:40:00	0.1664	13.857	212.0	0.367649562	0.398928973	0.004734531	0.048845279	0.015054589
2020-09-03T12:45:00	0.1665	13.861	213.0	0.368014608	0.399483829	0.004744253	0.048945588	0.015085506
2020-09-03T12:50:00	0.1665	13.875	213.0	0.367810685	0.399173829	0.004738821	0.048889538	0.015068230
2020-09-03T12:55:00	0.1660	13.885	212.0	0.366468153	0.397135703	0.004703145	0.048521484	0.014954792
2020-09-03T13:00:00	0.1658	13.895	212.0	0.365979190	0.396394588	0.004690192	0.048387846	0.014913604
2020-09-03T13:05:00	0.1654	13.915	213.0	0.364920056	0.394791450	0.004662207	0.048099128	0.014824618
2020-09-03T13:10:00	0.1653	13.939	213.0	0.364430572	0.394051559	0.004649307	0.047966043	0.014783600
2020-09-03T13:15:00	0.1654	13.962	213.0	0.364796425	0.394604513	0.004658947	0.048065494	0.014814252
2020-09-03T13:20:00	0.1649	13.988	214.0	0.363451108	0.392572935	0.004623558	0.047700398	0.014701726
2020-09-03T13:25:00	0.1648	14.012	213.0	0.362961128	0.391834204	0.004610709	0.047567837	0.014660869
2020-09-03T13:30:00	0.1640	14.031	214.0	0.360756719	0.388518535	0.004553164	0.046974158	0.014477892
2020-09-03T13:35:00	0.1637	14.052	213.0	0.359979818	0.387353059	0.004532986	0.046765983	0.014413730
2020-09-03T13:40:00	0.1624	14.072	214.0	0.356337750	0.381910632	0.004439100	0.045797378	0.014115197
2020-09-03T13:45:00	0.1621	14.089	214.0	0.355271505	0.380323941	0.004411835	0.045516084	0.014028499
2020-09-03T13:50:00	0.1626	14.107	214.0	0.356786838	0.382579823	0.004450614	0.045916163	0.014151807
2020-09-03T13:55:00	0.1618	14.112	214.0	0.354572926	0.379286002	0.004394025	0.045332344	0.013971869
2020-09-03T14:00:00	0.1617	14.120	214.0	0.354079907	0.378554256	0.004381481	0.045202935	0.013931984
2020-09-03T14:05:00	0.1619	14.126	214.0	0.354735515	0.379527460	0.004398166	0.045375069	0.013985037
2020-09-03T14:10:00	0.1615	14.129	214.0	0.353668071	0.377943492	0.004371020	0.045095003	0.013898718
2020-09-03T14:15:00	0.1612	14.133	214.0	0.352887311	0.376786830	0.004351227	0.044890804	0.013835782
2020-09-03T14:20:00	0.1605	14.138	214.0	0.350667318	0.373506759	0.004295239	0.044313186	0.013657754
2020-09-03T14:25:00	0.1602	14.141	214.0	0.349884904	0.372353815	0.004275608	0.044110663	0.013595335
2020-09-03T14:30:00	0.1602	14.137	214.0	0.349966470	0.372473933	0.004277652	0.044131751	0.013601834
2020-09-03T14:35:00	0.1605	14.130	214.0	0.350623980	0.373442855	0.004294150	0.044301953	0.013654292
2020-09-03T14:40:00	0.1607	14.121	214.0	0.351281185	0.374412460	0.004310677	0.044472465	0.013706846
2020-09-03T14:45:00	0.1599	14.109	214.0	0.349058669	0.371138042	0.004254936	0.043897394	0.013529603
2020-09-03T14:50:00	0.1606	14.099	214.0	0.351156372	0.374228232	0.004307536	0.044440052	0.013696856
2020-09-03T14:55:00	0.1607	14.093	214.0	0.351237865	0.374348514	0.004309587	0.044461213	0.013703378
2020-09-03T15:00:00	0.1611	14.084	214.0	0.352469984	0.376169234	0.004340669	0.044781882	0.013802211
2020-09-03T15:05:00	0.1605	14.076	214.0	0.350825203	0.373739609	0.004299206	0.044354120	0.013670370
2020-09-03T15:10:00	0.1611	14.069	214.0	0.352345276	0.375984770	0.004337517	0.044749364	0.013792189
2020-09-03T15:15:00	0.1609	14.062	214.0	0.351851484	0.375254770	0.004325050	0.044620742	0.013752546
2020-09-03T15:20:00	0.1609	14.059	214.0	0.351932937	0.375375142	0.004327105	0.044641944	0.013759081
2020-09-03T15:25:00	0.1604	14.057	214.0	0.350575488	0.373371357	0.004292932	0.044289388	0.013650419
2020-09-03T15:30:00	0.1603	14.056	214.0	0.350081078	0.372642741	0.004280525	0.044161390	0.013610969
2020-09-03T15:35:00	0.1600	14.054	214.0	0.349298339	0.371490523	0.004260927	0.043959195	0.013548651
2020-09-03T15:40:00	0.1597	14.052	214.0	0.348515165	0.370339272	0.004241370	0.043757436	0.013486467
2020-09-03T15:45:00	0.1591	14.049	214.0	0.346865769	0.367919947	0.004200358	0.043334315	0.013356057
2020-09-03T15:50:00	0.1592	14.046	214.0	0.346947509	0.368039676	0.004202385	0.043355227	0.013362502
2020-09-03T15:55:00	0.1593	14.043	214.0	0.347317867	0.368582374	0.004211576	0.043450051	0.013391728
2020-09-03T16:00:00	0.1595	14.038	214.0	0.347976613	0.369548544	0.004227953	0.043619014	0.013443804
2020-09-03T16:05:00	0.1599	14.032	214.0	0.348966734	0.371002874	0.004252640	0.043873701	0.013522301
2020-09-03T16:10:00	0.1601	14.025	214.0	0.349668079	0.372034592	0.004270178	0.044054637	0.013578067
2020-09-03T16:15:00	0.1610	14.020	214.0	0.352095828	0.375615917	0.004331216	0.044684361	0.013772154
2020-09-03T16:20:00	0.1612	14.015	214.0	0.352795624	0.376651104	0.004348906	0.044866861	0.013828402
2020-09-03T16:25:00	0.1611	14.008	214.0	0.352345276	0.375984770	0.004337517	0.044749364	0.013792189
2020-09-03T16:30:00	0.1607	14.000	214.0	0.351319353	0.374468807	0.004311638	0.044482379	0.013709901
2020-09-03T16:35:00	0.1603	13.993	214.0	0.350292686	0.372954512	0.004285833	0.044216146	0.013627846
2020-09-03T16:40:00	0.1606	13.984	214.0	0.350993373	0.373987699	0.004303435	0.044397745	0.013683816
2020-09-03T16:45:00	0.1610	13.974	214.0	0.352268994	0.375871956	0.004335590	0.044729480	0.013786060
2020-09-03T16:50:00	0.1609	13.964	214.0	0.351818478	0.375205998	0.004324217	0.044612153	0.013749899
2020-09-03T16:55:00	0.1611	13.953	214.0	0.352518411	0.376240878	0.004341893	0.044794514	0.013806104
2020-09-03T17:00:00	0.1615	13.943	214.0	0.353505360	0.377702310	0.004366890	0.045052402	0.013885588
2020-09-03T17:05:00	0.1617	13.932	213.0	0.354204463	0.378739063	0.004384648	0.045235608	0.013942054
2020-09-03T17:10:00	0.1618	13.921	214.0	0.354616144	0.379350178	0.004395125	0.045343698	0.013975368
2020-09-03T17:15:00	0.1617	13.909	213.0	0.354166372	0.378682542	0.004383680	0.045225615	0.013938974
2020-09-03T17:20:00	0.1617	13.897	213.0	0.354290920	0.378867366	0.004386847	0.045258295	0.013949046
2020-09-03T17:25:00	0.1622	13.884	213.0	0.355563586	0.380758293	0.004419294	0.045593038	0.014052217
2020-09-03T17:30:00	0.1620	13.871	213.0	0.355114113	0.380089979	0.004407818	0.045474649	0.014015728
2020-09-03T17:35:00	0.1620	13.859	213.0	0.354951567	0.379848423	0.004403673	0.045431880	0.014002547
2020-09-03T17:40:00	0.1621	13.848	213.0	0.355363032	0.380460027	0.004414171	0.045540191	0.014035929
2020-09-03T17:45:00	0.1620	13.837	213.0	0.355200515	0.380218407	0.004410023	0.045497393	0.014022738
2020-09-03T17:50:00	0.1617	13.827	213.0	0.354176651	0.378697794	0.004383941	0.045228311	0.013939805
2020-09-03T17:55:00	0.1626	13.816	213.0	0.356883399	0.382723778	0.004453092	0.045941727	0.014159687
2020-09-03T18:00:00	0.1631	13.804	213.0	0.358153760	0.384619960	0.004485768	0.046278841	0.014263588
2020-09-03T18:05:00	0.1627	13.794	213.0	0.357132010	0.383094528	0.004459475	0.046007586	0.014179985
2020-09-03T18:10:00	0.1627	13.782	213.0	0.356969694	0.382852450	0.004455307	0.045964581	0.014166730
2020-09-03T18:15:00	0.1630	13.770	213.0	0.357953569	0.384320866	0.004480609	0.046225620	0.014247185
2020-09-03T18:20:00	0.1636	13.759	212.0	0.359795240	0.387076396	0.004528200	0.046716605	0.014398511
2020-09-03T18:25:00	0.1636	13.749	213.0	0.359633224	0.386833626	0.004524001	0.046673289	0.014385161
2020-09-03T18:30:00	0.1634	13.738	214.0	0.359185026	0.386162394	0.004512398	0.046553582	0.014348266
2020-09-03T18:35:00	0.1641	13.727	212.0	0.361025122	0.388921554	0.004560148	0.047046206	0.014500098
2020-09-03T18:40:00	0.1640	13.716	212.0	0.360863244	0.388678465	0.004555935	0.047002745	0.014486703
2020-09-03T18:45:00	0.1644	13.705	213.0	0.361844461	0.390153007	0.004581506	0.047266548	0.014568009
2020-09-03T18:50:00	0.1642	13.693	212.0	0.361396950	0.389480186	0.004569833	0.047146125	0.014530894
2020-09-03T18:55:00	0.1633	13.682	212.0	0.358660747	0.385377893	0.004498848	0.046413787	0.014305180
2020-09-03T19:00:00	0.1631	13.670	213.0	0.358212245	0.384707359	0.004487276	0.046294396	0.014268383
2020-09-03T19:05:00	0.1627	13.659	212.0	0.357190537	0.383181832	0.004460979	0.046023098	0.014184766
2020-09-03T19:10:00	0.1625	13.650	213.0	0.356454866	0.382085097	0.004442101	0.045828338	0.014124739
2020-09-03T19:15:00	0.1625	13.640	213.0	0.356579214	0.382270375	0.004445289	0.045861223	0.014134874
2020-09-03T19:20:00	0.1626	13.631	212.0	0.356703552	0.382455677	0.004448477	0.045894120	0.014145013
2020-09-03T19:25:00	0.1627	13.621	212.0	0.357114513	0.383068430	0.004459026	0.046002949	0.014178556
2020-09-03T19:30:00	0.1627	13.611	212.0	0.356952195	0.382826356	0.004454858	0.045959946	0.014165302
2020-09-03T19:35:00	0.1632	13.601	212.0	0.358508851	0.385150742	0.004494927	0.046373332	0.014292711
2020-09-03T19:40:00	0.1632	13.591	212.0	0.358633021	0.385336427	0.004498132	0.046406402	0.014302904
2020-09-03T19:45:00	0.1634	13.582	212.0	0.359043430	0.385950447	0.004508736	0.046515802	0.014336622
2020-09-03T19:50:00	0.1636	13.573	212.0	0.359739832	0.386993364	0.004526764	0.046701789	0.014393945
2020-09-03T19:55:00	0.1640	13.564	212.0	0.360721813	0.388466137	0.004552257	0.046964793	0.014475005
2020-09-03T20:00:00	0.1640	13.556	212.0	0.360845793	0.388652262	0.004555481	0.046998061	0.014485259
2020-09-03T20:05:00	0.1641	13.547	212.0	0.360969762	0.388838413	0.004558707	0.047031340	0.014495516
2020-09-03T20:10:00	0.1646	13.539	211.0	0.362522080	0.391172802	0.004599214	0.047449241	0.014624317
2020-09-03T20:15:00	0.1647	13.532	212.0	0.362931384	0.391789379	0.004609930	0.047559796	0.014658391
2020-09-03T20:20:00	0.1651	13.525	212.0	0.363911199	0.393267183	0.004635643	0.047825072	0.014740152
2020-09-03T20:25:00	0.1659	13.518	212.0	0.366314979	0.396903470	0.004699085	0.048479596	0.014941882
2020-09-03T20:30:00	0.1663	13.512	211.0	0.367292516	0.398386618	0.004725032	0.048747286	0.015024387
2020-09-03T20:35:00	0.1657	13.506	211.0	0.365707509	0.395983079	0.004683004	0.048313688	0.014890748
2020-09-03T20:40:00	0.1659	13.501	211.0	0.366115915	0.396601756	0.004693812	0.048425192	0.014925114
2020-09-03T20:45:00	0.1655	13.495	211.0	0.365099785	0.395063284	0.004666949	0.048148050	0.014839696
2020-09-03T20:50:00	0.1659	13.490	211.0	0.366362942	0.396976183	0.004700356	0.048492710	0.014945924
2020-09-03T20:55:00	0.1661	13.484	211.0	0.366771165	0.397595293	0.004711183	0.048604409	0.014980351
2020-09-03T21:00:00	0.1658	13.477	211.0	0.366040360	0.396487267	0.004691811	0.048404552	0.014918753
2020-09-03T21:05:00	0.1652	13.471	211.0	0.364168809	0.393656145	0.004642417	0.047894963	0.014761693
2020-09-03T21:10:00	0.1647	13.464	211.0	0.362865880	0.391690674	0.004608214	0.047542093	0.014652935
2020-09-03T21:15:00	0.1651	13.457	211.0	0.363845739	0.393168374	0.004633922	0.047807322	0.014734681
2020-09-03T21:20:00	0.1649	13.450	211.0	0.363398847	0.392494112	0.004622187	0.047686248	0.014697365
2020-09-03T21:25:00	0.1654	13.444	211.0	0.364663483	0.394403542	0.004655442	0.048029342	0.014803110
2020-09-03T21:30:00	0.1651	13.437	211.0	0.363931618	0.393298007	0.004636180	0.047830610	0.014741858
2020-09-03T21:35:00	0.1648	13.430	211.0	0.363199383	0.392193336	0.004616954	0.047632267	0.014680727
2020-09-03T21:40:00	0.1640	13.425	211.0	0.360752510	0.388512216	0.004553055	0.046973029	0.014477544
2020-09-03T21:45:00	0.1632	13.419	211.0	0.358587817	0.385268823	0.004496965	0.046394361	0.014299193
2020-09-03T21:50:00	0.1627	13.413	211.0	0.356993231	0.382887548	0.004455911	0.045970816	0.014168652
2020-09-03T21:55:00	0.1618	13.408	211.0	0.354535755	0.379230811	0.004393078	0.045322580	0.013968859
2020-09-03T22:00:00	0.1619	13.404	211.0	0.354660271	0.379415708	0.004396249	0.045355293	0.013978942
2020-09-03T22:05:00	0.1612	13.400	211.0	0.352895939	0.376799603	0.004351445	0.044893058	0.013836476
2020-09-03T22:10:00	0.1599	13.395	211.0	0.349113286	0.371218353	0.004256301	0.043911473	0.013533942
2020-09-03T22:15:00	0.1592	13.390	211.0	0.347053406	0.368194813	0.004205011	0.043382328	0.013370855
2020-09-03T22:20:00	0.1568	13.386	211.0	0.340067623	0.358023492	0.004033794	0.041615907	0.012826427
2020-09-03T22:25:00	0.1550	13.382	211.0	0.334794816	0.350430397	0.003907325	0.040311154	0.012424289
2020-09-03T22:30:00	0.1568	13.378	211.0	0.339985478	0.357904646	0.004031805	0.041595392	0.012820104
2020-09-03T22:35:00	0.1573	13.375	210.0	0.341394246	0.359945269	0.004065986	0.041948031	0.012928791
2020-09-03T22:40:00	0.1558	13.372	210.0	0.337289707	0.354014164	0.003966870	0.040925470	0.012613627
2020-09-03T22:45:00	0.1576	13.369	211.0	0.342471033	0.361508499	0.004092227	0.042218752	0.013012229
2020-09-03T22:50:00	0.1583	13.366	211.0	0.344455771	0.364397772	0.004140855	0.042720435	0.013166853
2020-09-03T22:55:00	0.1584	13.363	210.0	0.344703988	0.364759837	0.004146960	0.042783423	0.013186267
2020-09-03T23:00:00	0.1590	13.362	210.0	0.346396811	0.367233382	0.004188740	0.043214456	0.013319115
2020-09-03T23:05:00	0.1591	13.358	210.0	0.346644685	0.367596203	0.004194878	0.043277785	0.013338634
2020-09-03T23:10:00	0.1591	13.355	210.0	0.346603806	0.367536357	0.004193866	0.043267337	0.013335414
2020-09-03T23:15:00	0.1601	13.352	210.0	0.349735561	0.372133930	0.004271867	0.044072069	0.013583440
2020-09-03T23:20:00	0.1608	13.350	210.0	0.351710071	0.375045829	0.004321483	0.044583948	0.013741206
2020-09-03T23:25:00	0.1612	13.347	210.0	0.352819686	0.376686721	0.004349515	0.044873144	0.013830339
2020-09-03T23:30:00	0.1609	13.345	210.0	0.351916288	0.375350537	0.004326685	0.044637610	0.013757745
2020-09-03T23:35:00	0.1614	13.342	210.0	0.353313142	0.377417480	0.004362015	0.045002107	0.013870087
2020-09-03T23:40:00	0.1619	13.340	210.0	0.354708624	0.379487520	0.004397481	0.045368001	0.013982858
2020-09-03T23:45:00	0.1613	13.338	210.0	0.352944352	0.376871279	0.004352671	0.044905704	0.013840374
2020-09-03T23:50:00	0.1620	13.336	210.0	0.355201425	0.380219760	0.004410046	0.045497632	0.014022812
2020-09-03T23:55:00	0.1617	13.336	210.0	0.354299539	0.378880158	0.004387067	0.045260557	0.013949743
2020-09-04T00:00:00	0.1623	13.334	210.0	0.355980918	0.381379293	0.004429964	0.045703125	0.014086147
2020-09-04T00:05:00	0.1618	13.333	210.0	0.354505381	0.379185713	0.004392305	0.045314602	0.013966400
2020-09-04T00:10:00	0.1613	13.333	210.0	0.353028314	0.376995600	0.004354797	0.044927641	0.013847135
2020-09-04T00:15:00	0.1606	13.333	210.0	0.350974138	0.373959319	0.004302951	0.044392753	0.013682278
2020-09-04T00:20:00	0.1599	13.333	210.0	0.348916977	0.370929727	0.004251397	0.043860881	0.013518350
2020-09-04T00:25:00	0.1605	13.334	210.0	0.350892630	0.373839071	0.004300901	0.044371608	0.013675760
2020-09-04T00:30:00	0.1599	13.334	210.0	0.349123601	0.371233523	0.004256559	0.043914132	0.013534762
2020-09-04T00:35:00	0.1606	13.335	210.0	0.351098966	0.374143511	0.004306091	0.044425149	0.013692262
2020-09-04T00:40:00	0.1607	13.337	210.0	0.351346015	0.374508169	0.004312310	0.044489306	0.013712036
2020-09-04T00:45:00	0.1595	13.339	210.0	0.347847718	0.369359407	0.004224746	0.043585923	0.013433605
2020-09-04T00:50:00	0.1603	13.343	210.0	0.350112918	0.372689644	0.004281324	0.044169627	0.013613508
2020-09-04T00:55:00	0.1604	13.344	210.0	0.350360138	0.373053916	0.004287525	0.044233609	0.013633228
2020-09-04T01:00:00	0.1602	13.347	210.0	0.350031360	0.372569507	0.004279279	0.044148531	0.013607006
2020-09-04T01:05:00	0.1607	13.351	210.0	0.351430071	0.374632277	0.004314427	0.044511147	0.013718768
2020-09-04T01:10:00	0.1601	13.353	210.0	0.349661715	0.372025225	0.004270018	0.044052993	0.013577560
2020-09-04T01:15:00	0.1598	13.355	210.0	0.348756298	0.370693563	0.004247386	0.043819498	0.013505595
2020-09-04T01:20:00	0.1607	13.357	210.0	0.351307847	0.374451821	0.004311349	0.044479390	0.013708980
2020-09-04T01:25:00	0.1612	13.361	210.0	0.352705299	0.376517417	0.004346620	0.044843280	0.013821134
2020-09-04T01:30:00	0.1617	13.363	210.0	0.354101377	0.378586109	0.004382027	0.045208566	0.013933719
2020-09-04T01:35:00	0.1612	13.366	210.0	0.352911372	0.376822450	0.004351836	0.044897089	0.013837719
2020-09-04T01:40:00	0.1615	13.369	210.0	0.353732792	0.378039446	0.004372663	0.045111955	0.013903943
2020-09-04T01:45:00	0.1606	13.374	210.0	0.351104117	0.374151112	0.004306221	0.044426486	0.013692675
2020-09-04T01:50:00	0.1606	13.378	210.0	0.351063367	0.374090979	0.004305196	0.044415909	0.013689415
2020-09-04T01:55:00	0.1604	13.382	210.0	0.350446830	0.373181691	0.004289701	0.044256058	0.013640147
2020-09-04T02:00:00	0.1602	13.386	210.0	0.349830023	0.372273006	0.004274233	0.044096479	0.013590963
2020-09-04T02:05:00	0.1596	13.389	210.0	0.348059662	0.369670431	0.004230021	0.043640343	0.013450378
2020-09-04T02:10:00	0.1595	13.390	210.0	0.348018824	0.369610493	0.004229004	0.043629854	0.013447145
2020-09-04T02:15:00	0.1592	13.392	210.0	0.347112350	0.368281178	0.004206474	0.043397417	0.013375505
2020-09-04T02:20:00	0.1596	13.393	210.0	0.348225580	0.369913996	0.004234153	0.043682973	0.013463517
2020-09-04T02:25:00	0.1597	13.396	210.0	0.348473132	0.370277531	0.004240322	0.043746623	0.013483134
2020-09-04T02:30:00	0.1596	13.397	210.0	0.348143914	0.369794102	0.004232119	0.043661987	0.013457048
2020-09-04T02:35:00	0.1600	13.400	210.0	0.349256329	0.371428729	0.004259876	0.043948359	0.013545311
2020-09-04T02:40:00	0.1604	13.402	210.0	0.350367868	0.373065309	0.004287719	0.044235610	0.013633845
2020-09-04T02:45:00	0.1595	13.403	210.0	0.348021405	0.369614281	0.004229068	0.043630517	0.013447349
2020-09-04T02:50:00	0.1607	13.406	210.0	0.351437796	0.374643683	0.004314621	0.044513154	0.013719386
2020-09-04T02:55:00	0.1603	13.408	210.0	0.350245553	0.372885058	0.004284650	0.044203947	0.013624086
2020-09-04T03:00:00	0.1602	13.411	210.0	0.349916748	0.372400708	0.004276406	0.044118895	0.013597872
2020-09-04T03:05:00	0.1604	13.413	210.0	0.350451983	0.373189287	0.004289831	0.044257393	0.013640558
2020-09-04T03:10:00	0.1611	13.416	210.0	0.352425496	0.376103424	0.004339544	0.044770280	0.013798635
2020-09-04T03:15:00	0.1599	13.419	210.0	0.348929873	0.370948685	0.004251719	0.043864204	0.013519374
2020-09-04T03:20:00	0.1592	13.422	210.0	0.346869725	0.367925742	0.004200456	0.043335328	0.013356369
2020-09-04T03:25:00	0.1590	13.424	210.0	0.346540131	0.367443145	0.004192288	0.043251066	0.013330399
2020-09-04T03:30:00	0.1596	13.427	210.0	0.348230742	0.369921574	0.004234281	0.043684300	0.013463925
2020-09-04T03:35:00	0.1593	13.430	210.0	0.347324404	0.368591956	0.004211738	0.043451726	0.013392244
2020-09-04T03:40:00	0.1602	13.431	210.0	0.349878541	0.372344446	0.004275449	0.044109019	0.013594828
2020-09-04T03:45:00	0.1599	13.433	210.0	0.348973264	0.371012473	0.004252803	0.043875384	0.013522819
2020-09-04T03:50:00	0.1610	13.434	210.0	0.352099770	0.375621744	0.004331316	0.044685388	0.013772471
2020-09-04T03:55:00	0.1606	13.436	210.0	0.350908084	0.373861869	0.004301290	0.044375617	0.013676996
2020-09-04T04:00:00	0.1609	13.439	210.0	0.352018327	0.375501351	0.004329260	0.044664177	0.013765933
2020-09-04T04:05:00	0.1618	13.442	210.0	0.354607234	0.379336946	0.004394898	0.045341357	0.013974647
2020-09-04T04:10:00	0.1628	13.444	210.0	0.357478008	0.383610780	0.004468369	0.046099336	0.014208263
2020-09-04T04:15:00	0.1621	13.447	210.0	0.355473436	0.380624208	0.004416991	0.045569279	0.014044894
2020-09-04T04:20:00	0.1615	13.451	210.0	0.353753357	0.378069936	0.004373185	0.045117342	0.013905603
2020-09-04T04:25:00	0.1610	13.454	210.0	0.352318796	0.375945607	0.004336848	0.044742461	0.013790061
2020-09-04T04:30:00	0.1609	13.458	210.0	0.352033769	0.375524177	0.004329650	0.044668198	0.013767172
2020-09-04T04:35:00	0.1607	13.461	210.0	0.351460968	0.374677901	0.004315205	0.044519177	0.013721243
2020-09-04T04:40:00	0.1604	13.464	210.0	0.350600044	0.373407562	0.004293549	0.044295751	0.013652381
2020-09-04T04:45:00	0.1602	13.468	210.0	0.350026662	0.372562587	0.004279161	0.044147316	0.013606632
2020-09-04T04:50:00	0.1610	13.473	210.0	0.352331662	0.375964635	0.004337173	0.044745815	0.013791095
2020-09-04T04:55:00	0.1615	13.476	210.0	0.353771350	0.378096616	0.004373642	0.045122055	0.013907056
2020-09-04T05:00:00	0.1612	13.481	210.0	0.352911828	0.376823125	0.004351847	0.044897208	0.013837756
2020-09-04T05:05:00	0.1619	13.487	210.0	0.354925135	0.379809150	0.004402999	0.045424927	0.014000404
2020-09-04T05:10:00	0.1635	13.491	210.0	0.359513061	0.386653616	0.004520889	0.046641177	0.014375264
2020-09-04T05:15:00	0.1627	13.494	211.0	0.356938170	0.382805443	0.004454498	0.045956232	0.014164157
2020-09-04T05:20:00	0.1635	13.498	210.0	0.359232027	0.386232759	0.004513614	0.046566127	0.014352133
2020-09-04T05:25:00	0.1636	13.505	210.0	0.359520742	0.386665121	0.004521088	0.046643229	0.014375896
2020-09-04T05:30:00	0.1632	13.511	210.0	0.358378346	0.384955626	0.004491559	0.046338591	0.014282004
2020-09-04T05:35:00	0.1622	13.516	210.0	0.355514515	0.380685303	0.004418040	0.045580104	0.014048231
2020-09-04T05:40:00	0.1619	13.521	210.0	0.354656044	0.379409430	0.004396142	0.045354182	0.013978600
2020-09-04T05:45:00	0.1627	13.529	210.0	0.356953558	0.382828389	0.004454893	0.045960307	0.014165413
2020-09-04T05:50:00	0.1623	13.537	211.0	0.355809113	0.381123588	0.004425570	0.045657786	0.014072173
2020-09-04T05:55:00	0.1615	13.547	210.0	0.353514895	0.377716442	0.004367132	0.045054898	0.013886357
2020-09-04T06:00:00	0.1614	13.561	210.0	0.353230108	0.377294471	0.004359910	0.044980391	0.013863393
2020-09-04T06:05:00	0.1626	13.572	211.0	0.356677153	0.382416330	0.004447800	0.045887134	0.014142860
2020-09-04T06:10:00	0.1626	13.581	211.0	0.356679718	0.382420154	0.004447866	0.045887813	0.014143070
2020-09-04T06:15:00	0.1627	13.592	211.0	0.356968947	0.382851336	0.004455288	0.045964383	0.014166669
2020-09-04T06:20:00	0.1622	13.605	210.0	0.355537621	0.380719671	0.004418630	0.045586194	0.014050108
2020-09-04T06:25:00	0.1617	13.620	210.0	0.354104858	0.378591273	0.004382116	0.045209479	0.013934000
2020-09-04T06:30:00	0.1615	13.634	211.0	0.353532892	0.377743115	0.004367589	0.045059609	0.013887809
2020-09-04T06:35:00	0.1621	13.643	211.0	0.355258373	0.380304419	0.004411499	0.045512626	0.014027433
2020-09-04T06:40:00	0.1628	13.653	211.0	0.357268374	0.383297955	0.004462979	0.046043733	0.014191126
2020-09-04T06:45:00	0.1630	13.662	211.0	0.357843973	0.384157169	0.004477787	0.046196498	0.014238209
2020-09-04T06:50:00	0.1641	13.672	211.0	0.360994140	0.388875023	0.004559342	0.047037886	0.014497533
2020-09-04T06:55:00	0.1645	13.681	211.0	0.362139575	0.390596996	0.004589213	0.047346063	0.014592516
2020-09-04T07:00:00	0.1640	13.692	211.0	0.360713394	0.388453499	0.004552038	0.046962535	0.014474309
2020-09-04T07:05:00	0.1653	13.702	211.0	0.364427730	0.394047264	0.004649232	0.047965271	0.014783362
2020-09-04T07:10:00	0.1643	13.717	211.0	0.361575919	0.389749198	0.004574499	0.047194263	0.014545730
2020-09-04T07:15:00	0.1657	13.737	211.0	0.365573004	0.395779421	0.004679448	0.048276999	0.014879440
2020-09-04T07:20:00	0.1656	13.746	212.0	0.365290595	0.395351971	0.004671986	0.048200020	0.014855714
2020-09-04T07:25:00	0.1659	13.757	211.0	0.366147852	0.396650155	0.004694658	0.048433918	0.014927804
2020-09-04T07:30:00	0.1668	13.769	211.0	0.368711515	0.400544087	0.004762849	0.049137430	0.015144633
2020-09-04T07:35:00	0.1668	13.780	212.0	0.368714059	0.400547960	0.004762916	0.049138131	0.015144849
2020-09-04T07:40:00	0.1677	13.795	211.0	0.371273235	0.404452549	0.004831574	0.049846460	0.015363163
2020-09-04T07:45:00	0.1680	13.813	212.0	0.372126996	0.405759035	0.004854609	0.050084110	0.015436409
2020-09-04T07:50:00	0.1679	13.828	212.0	0.371845849	0.405328589	0.004847017	0.050005776	0.015412266
2020-09-04T07:55:00	0.1681	13.839	212.0	0.372415702	0.406201275	0.004862414	0.050164627	0.015461225
2020-09-04T08:00:00	0.1677	13.855	212.0	0.371283393	0.404468082	0.004831848	0.049849283	0.015364033
2020-09-04T08:05:00	0.1675	13.869	212.0	0.370718182	0.403604210	0.004816633	0.049692318	0.015315655
2020-09-04T08:10:00	0.1676	13.890	212.0	0.371004625	0.404041904	0.004824340	0.049771829	0.015340161
2020-09-04T08:15:00	0.1679	13.912	212.0	0.371858542	0.405348018	0.004847359	0.050009311	0.015413355
2020-09-04T08:20:00	0.1676	13.940	212.0	0.371009705	0.404049669	0.004824477	0.049773240	0.015340596
2020-09-04T08:25:00	0.1684	13.962	212.0	0.373281483	0.407528809	0.004885863	0.050406544	0.015535787
2020-09-04T08:30:00	0.1681	13.978	213.0	0.372433466	0.406228492	0.004862894	0.050169583	0.015462753
2020-09-04T08:35:00	0.1688	13.999	212.0	0.374419863	0.409277378	0.004916797	0.050725691	0.015634151
2020-09-04T08:40:00	0.1691	14.023	213.0	0.375271807	0.410588245	0.004940025	0.050965323	0.015708008
2020-09-04T08:45:00	0.1685	14.064	213.0	0.373575035	0.407979378	0.004893829	0.050488727	0.015561116
2020-09-04T08:50:00	0.1690	14.093	213.0	0.374993790	0.410160255	0.004932438	0.050887049	0.015683883
2020-09-04T08:55:00	0.1684	14.116	213.0	0.373296699	0.407552159	0.004886275	0.050410802	0.015537099
2020-09-04T09:00:00	0.1687	14.148	213.0	0.374149290	0.408861461	0.004909434	0.050649727	0.015610738
2020-09-04T09:05:00	0.1687	14.189	214.0	0.374151825	0.408865357	0.004909503	0.050650438	0.015610957
2020-09-04T09:10:00	0.1700	14.217	214.0	0.377832292	0.414539703	0.005010228	0.051689599	0.015931236
2020-09-04T09:15:00	0.1688	14.249	214.0	0.374440136	0.409308550	0.004917349	0.050731386	0.015635906
2020-09-04T09:20:00	0.1688	14.270	214.0	0.374442670	0.409312446	0.004917418	0.050732098	0.015636125
2020-09-04T09:25:00	0.1675	14.283	214.0	0.370758830	0.403666309	0.004817727	0.049703597	0.015319131
2020-09-04T09:30:00	0.1660	14.290	214.0	0.366496341	0.397178447	0.004703893	0.048529194	0.014957169
2020-09-04T09:35:00	0.1664	14.299	214.0	0.367637445	0.398910561	0.004734208	0.048841951	0.015053564
2020-09-04T09:40:00	0.1671	14.325	214.0	0.369630328	0.401943926	0.004787431	0.049391041	0.015222799
2020-09-04T09:45:00	0.1672	14.343	214.0	0.369916984	0.402381113	0.004795116	0.049470323	0.015247234
2020-09-04T09:50:00	0.1670	14.354	214.0	0.369351246	0.401518498	0.004779956	0.049313926	0.015199031
2020-09-04T09:55:00	0.1669	14.363	214.0	0.369069567	0.401089322	0.004772419	0.049236167	0.015175065
2020-09-04T10:00:00	0.1666	14.369	214.0	0.368219115	0.399794827	0.004749706	0.049001838	0.015102842
2020-09-04T10:05:00	0.1669	14.378	215.0	0.369107267	0.401146751	0.004773427	0.049246570	0.015178271
2020-09-04T10:10:00	0.1675	14.390	215.0	0.370846844	0.403800783	0.004820094	0.049728023	0.015326660
2020-09-04T10:15:00	0.1667	14.399	215.0	0.368609010	0.400388057	0.004760111	0.049109185	0.015135928
2020-09-04T10:20:00	0.1667	14.409	215.0	0.368359817	0.400008861	0.004753459	0.049040560	0.015114777
2020-09-04T10:25:00	0.1673	14.415	215.0	0.370100281	0.402660781	0.004800033	0.049521059	0.015262871
2020-09-04T10:30:00	0.1667	14.433	215.0	0.368430164	0.400115890	0.004755336	0.049059927	0.015120746
2020-09-04T10:35:00	0.1662	14.454	215.0	0.367042809	0.398007514	0.004718396	0.048678822	0.015003286
2020-09-04T10:40:00	0.1663	14.475	215.0	0.367362624	0.398493085	0.004726896	0.048766518	0.015030314
2020-09-04T10:45:00	0.1658	14.494	215.0	0.365974254	0.396387109	0.004690061	0.048386498	0.014913189
2020-09-04T10:50:00	0.1655	14.517	215.0	0.365154696	0.395146353	0.004668398	0.048163002	0.014844305
2020-09-04T10:55:00	0.1649	14.536	215.0	0.363478903	0.392614859	0.004624288	0.047707924	0.014704045
2020-09-04T11:00:00	0.1662	14.559	215.0	0.366934190	0.397842660	0.004715511	0.048649060	0.014994113
2020-09-04T11:05:00	0.1660	14.589	215.0	0.366399970	0.397032321	0.004701338	0.048502835	0.014949045
2020-09-04T11:10:00	0.1664	14.608	216.0	0.367573796	0.398813856	0.004732514	0.048824475	0.015048177
2020-09-04T11:15:00	0.1666	14.618	216.0	0.368177945	0.399732210	0.004748608	0.048990511	0.015099351
2020-09-04T11:20:00	0.1663	14.642	216.0	0.367359626	0.398488533	0.004726817	0.048765696	0.015030061
2020-09-04T11:25:00	0.1661	14.671	216.0	0.366825562	0.397677826	0.004712627	0.048619305	0.014984942
2020-09-04T11:30:00	0.1667	14.704	216.0	0.368567851	0.400325414	0.004759012	0.049097846	0.015132433
2020-09-04T11:35:00	0.1666	14.724	216.0	0.368318652	0.399946235	0.004752361	0.049029229	0.015111285
2020-09-04T11:40:00	0.1666	14.742	216.0	0.368353826	0.399999747	0.004753299	0.049038911	0.015114269
2020-09-04T11:45:00	0.1664	14.765	216.0	0.367535606	0.398755836	0.004731498	0.048813990	0.015044946
2020-09-04T11:50:00	0.1656	14.797	216.0	0.365292693	0.395355146	0.004672042	0.048200591	0.014855890
2020-09-04T11:55:00	0.1651	14.819	217.0	0.363902346	0.393253819	0.004635410	0.047822671	0.014739412
2020-09-04T12:00:00	0.1647	14.834	217.0	0.362796169	0.391585642	0.004606388	0.047523257	0.014647129
2020-09-04T12:05:00	0.1645	14.855	217.0	0.362260425	0.390778876	0.004592371	0.047378647	0.014602559
2020-09-04T12:10:00	0.1643	14.876	217.0	0.361724482	0.389972571	0.004578374	0.047234245	0.014558053
2020-09-04T12:15:00	0.1646	14.884	217.0	0.362616608	0.391315159	0.004601687	0.047474760	0.014632182
2020-09-04T12:20:00	0.1653	14.886	217.0	0.364649081	0.394381773	0.004655063	0.048025426	0.014801903
2020-09-04T12:25:00	0.1643	14.887	217.0	0.361544787	0.389702397	0.004573687	0.047185887	0.014543149
2020-09-04T12:30:00	0.1653	14.886	217.0	0.364434480	0.394057463	0.004649410	0.047967105	0.014783928
2020-09-04T12:35:00	0.1655	14.893	217.0	0.365039931	0.394972748	0.004665369	0.048131755	0.014834674
2020-09-04T12:40:00	0.1649	14.901	217.0	0.363364005	0.392441565	0.004621272	0.047676816	0.014694458
2020-09-04T12:45:00	0.1657	14.913	217.0	0.365680370	0.395941983	0.004682286	0.048306284	0.014888466
2020-09-04T12:50:00	0.1648	14.921	217.0	0.363149214	0.392117701	0.004615639	0.047618696	0.014676545
2020-09-04T12:55:00	0.1643	14.924	217.0	0.361756807	0.390021181	0.004579218	0.047242947	0.014560735
2020-09-04T13:00:00	0.1647	14.932	217.0	0.362934391	0.391793911	0.004610009	0.047560609	0.014658642
2020-09-04T13:05:00	0.1642	14.939	217.0	0.361256024	0.389268417	0.004566161	0.047108240	0.014519217
2020-09-04T13:10:00	0.1643	14.944	217.0	0.361577116	0.389750998	0.004574530	0.047194585	0.014545829
2020-09-04T13:15:00	0.1639	14.947	217.0	0.360469159	0.388086962	0.004545690	0.046897041	0.014454123
2020-09-04T13:20:00	0.1642	14.948	218.0	0.361362060	0.389427751	0.004568924	0.047136744	0.014528002
2020-09-04T13:25:00	0.1628	14.957	217.0	0.357391289	0.383481360	0.004466139	0.046076330	0.014201172
2020-09-04T13:30:00	0.1632	14.974	218.0	0.358572446	0.385245836	0.004496568	0.046390267	0.014297931
2020-09-04T13:35:00	0.1633	14.994	218.0	0.358894136	0.385727034	0.004504877	0.046475988	0.014324351
2020-09-04T13:40:00	0.1622	15.016	218.0	0.355777401	0.381076398	0.004424759	0.045649420	0.014069595
2020-09-04T13:45:00	0.1617	15.030	218.0	0.354090642	0.378570182	0.004381754	0.045205750	0.013932851
2020-09-04T13:50:00	0.1606	15.042	218.0	0.350963379	0.373943445	0.004302681	0.044389962	0.013681417
2020-09-04T13:55:00	0.1607	15.053	218.0	0.351286791	0.374420737	0.004310819	0.044473921	0.013707294
2020-09-04T14:00:00	0.1608	15.063	218.0	0.351610129	0.374898193	0.004318964	0.044557954	0.013733194
2020-09-04T14:05:00	0.1598	15.071	218.0	0.348765702	0.370707383	0.004247621	0.043821919	0.013506341
2020-09-04T14:10:00	0.1603	15.080	218.0	0.350242062	0.372879915	0.004284563	0.044203043	0.013623807
2020-09-04T14:15:00	0.1596	15.091	218.0	0.348260336	0.369965026	0.004235019	0.043691906	0.013466270
2020-09-04T14:20:00	0.1596	15.097	218.0	0.348296006	0.370017401	0.004235907	0.043701075	0.013469096
2020-09-04T14:25:00	0.1602	15.099	218.0	0.349772857	0.372188838	0.004272802	0.044081706	0.013586410
2020-09-04T14:30:00	0.1599	15.108	218.0	0.348943978	0.370969420	0.004252071	0.043867838	0.013520494
2020-09-04T14:35:00	0.1591	15.111	218.0	0.346671729	0.367635799	0.004195548	0.043284698	0.013340764
2020-09-04T14:40:00	0.1591	15.102	218.0	0.346707439	0.367688085	0.004196433	0.043293827	0.013343578
2020-09-04T14:45:00	0.1590	15.101	218.0	0.346454409	0.367317676	0.004190166	0.043229167	0.013323649
2020-09-04T14:50:00	0.1589	15.100	218.0	0.346201333	0.366947368	0.004183903	0.043164553	0.013303734
2020-09-04T14:55:00	0.1583	15.107	218.0	0.344503099	0.364466796	0.004142018	0.042732441	0.013170553
2020-09-04T15:00:00	0.1586	15.111	218.0	0.345406088	0.365784834	0.004164258	0.042961885	0.013241270
2020-09-04T15:05:00	0.1586	15.111	218.0	0.345152823	0.365414943	0.004158014	0.042897459	0.013221413
2020-09-04T15:10:00	0.1582	15.112	218.0	0.344031974	0.363779968	0.004130443	0.042613018	0.013133746
2020-09-04T15:15:00	0.1579	15.108	218.0	0.343199696	0.362568053	0.004110041	0.042402531	0.013068872
2020-09-04T15:20:00	0.1570	15.103	219.0	0.340628148	0.358834923	0.004047377	0.041756046	0.012869619
2020-09-04T15:25:00	0.1578	15.105	218.0	0.342981836	0.362251115	0.004104710	0.042347534	0.013051921
2020-09-04T15:30:00	0.1569	15.104	219.0	0.340409885	0.358518862	0.004042085	0.041701444	0.012852790
2020-09-04T15:35:00	0.1572	15.105	219.0	0.341315528	0.359831108	0.004064072	0.041928280	0.012922703
2020-09-04T15:40:00	0.1575	15.104	218.0	0.342220581	0.361144635	0.004086115	0.042155693	0.012992794
2020-09-04T15:45:00	0.1577	15.100	219.0	0.342546013	0.361617463	0.004094058	0.042237641	0.013018051
2020-09-04T15:50:00	0.1574	15.096	218.0	0.341712847	0.360407485	0.004073740	0.042028025	0.012953446
2020-09-04T15:55:00	0.1568	15.094	218.0	0.340009137	0.357938872	0.004032378	0.041601300	0.012821925
2020-09-04T16:00:00	0.1564	15.096	219.0	0.338884136	0.356312929	0.004005202	0.041320927	0.012735511
2020-09-04T16:05:00	0.1563	15.094	219.0	0.338670795	0.356004961	0.004000060	0.041267883	0.012719162
2020-09-04T16:10:00	0.1559	15.087	219.0	0.337585851	0.354440629	0.003973973	0.040998752	0.012636213
2020-09-04T16:15:00	0.1557	15.080	219.0	0.336790866	0.353296317	0.003954922	0.040802204	0.012575636
2020-09-04T16:20:00	0.1561	15.069	218.0	0.338030572	0.355081483	0.003984654	0.041108944	0.012670176
2020-09-04T16:25:00	0.1559	15.060	218.0	0.337526502	0.354355145	0.003972549	0.040984060	0.012631685
2020-09-04T16:30:00	0.1569	15.054	218.0	0.340216622	0.358239106	0.004037402	0.041653131	0.012837900
2020-09-04T16:35:00	0.1562	15.051	218.0	0.338261746	0.355414813	0.003990213	0.041166293	0.012687851
2020-09-04T16:40:00	0.1561	15.046	218.0	0.338048308	0.355107052	0.003985081	0.041113342	0.012671531
2020-09-04T16:45:00	0.1565	15.038	218.0	0.339286886	0.356894639	0.004014918	0.041421172	0.012766408
2020-09-04T16:50:00	0.1572	15.030	218.0	0.341104234	0.359524760	0.004058936	0.041875293	0.012906372
2020-09-04T16:55:00	0.1575	15.026	218.0	0.342050439	0.360897540	0.004081966	0.042112886	0.012979600
2020-09-04T17:00:00	0.1574	15.017	218.0	0.341837583	0.360588520	0.004076778	0.042059368	0.012963106
2020-09-04T17:05:00	0.1580	15.007	218.0	0.343651603	0.363225870	0.004121111	0.042516744	0.013104073
2020-09-04T17:10:00	0.1587	14.999	218.0	0.345463269	0.365868368	0.004165669	0.042976439	0.013245756
2020-09-04T17:15:00	0.1591	14.989	218.0	0.346695274	0.367670273	0.004196132	0.043290717	0.013342619
2020-09-04T17:20:00	0.1590	14.983	218.0	0.346483125	0.367359705	0.004190877	0.043236502	0.013325910
2020-09-04T17:25:00	0.1597	14.975	218.0	0.348579502	0.370433786	0.004242975	0.043773990	0.013491569
2020-09-04T17:30:00	0.1603	14.966	218.0	0.350096835	0.372665952	0.004280920	0.044165466	0.013612226
2020-09-04T17:35:00	0.1605	14.955	218.0	0.350749132	0.373627411	0.004297294	0.044334394	0.013664291
2020-09-04T17:40:00	0.1613	14.946	218.0	0.353126627	0.377141195	0.004357288	0.044953336	0.013855055
2020-09-04T17:45:00	0.1622	14.938	218.0	0.355787051	0.381090757	0.004425006	0.045651966	0.014070379
2020-09-04T17:50:00	0.1628	14.929	218.0	0.357296710	0.383340232	0.004463707	0.046051247	0.014193441
2020-09-04T17:55:00	0.1622	14.918	218.0	0.355652365	0.380890360	0.004421562	0.045616444	0.014059431
2020-09-04T18:00:00	0.1626	14.907	218.0	0.356875542	0.382712063	0.004452890	0.045939647	0.014159045
2020-09-04T18:05:00	0.1629	14.896	219.0	0.357524740	0.383680532	0.004469571	0.046111736	0.014212085
2020-09-04T18:10:00	0.1632	14.884	218.0	0.358460010	0.385077716	0.004493666	0.046360329	0.014288704
2020-09-04T18:15:00	0.1637	14.873	218.0	0.359966859	0.387333632	0.004532650	0.046762516	0.014412661
2020-09-04T18:20:00	0.1644	14.860	218.0	0.362043497	0.390452424	0.004586703	0.047320167	0.014584535
2020-09-04T18:25:00	0.1649	14.849	218.0	0.363261252	0.392286618	0.004618577	0.047649007	0.014685887
2020-09-04T18:30:00	0.1649	14.836	218.0	0.363336952	0.392400767	0.004620563	0.047669494	0.014692201
2020-09-04T18:35:00	0.1652	14.824	217.0	0.364268461	0.393806657	0.004645039	0.047922016	0.014770031
2020-09-04T18:40:00	0.1656	14.810	217.0	0.365484350	0.395645212	0.004677105	0.048252826	0.014871989
2020-09-04T18:45:00	0.1661	14.797	217.0	0.366699223	0.397486154	0.004709274	0.048584713	0.014974280
2020-09-04T18:50:00	0.1664	14.782	217.0	0.367628583	0.398897095	0.004733972	0.048839518	0.015052814
2020-09-04T18:55:00	0.1665	14.768	218.0	0.367988543	0.399444200	0.004743559	0.048938422	0.015083297
2020-09-04T19:00:00	0.1670	14.753	217.0	0.369485531	0.401723174	0.004783552	0.049351023	0.015210464
2020-09-04T19:05:00	0.1667	14.738	217.0	0.368423851	0.400106285	0.004755168	0.049058189	0.015120210
2020-09-04T19:10:00	0.1669	14.724	217.0	0.369067893	0.401086772	0.004772374	0.049235705	0.015174922
2020-09-04T19:15:00	0.1667	14.708	217.0	0.368574711	0.400335855	0.004759195	0.049099736	0.015133015
2020-09-04T19:20:00	0.1668	14.693	217.0	0.368650135	0.400450653	0.004761209	0.049120516	0.015139420
2020-09-04T19:25:00	0.1672	14.679	217.0	0.369862379	0.402297818	0.004793651	0.049455215	0.015242578
2020-09-04T19:30:00	0.1672	14.666	217.0	0.369937737	0.402412774	0.004795672	0.049476066	0.015249004
2020-09-04T19:35:00	0.1682	14.654	217.0	0.372851016	0.406868508	0.004874195	0.050286176	0.015498688
2020-09-04T19:40:00	0.1687	14.641	217.0	0.374059805	0.408723950	0.004907000	0.050624618	0.015602999
2020-09-04T19:45:00	0.1686	14.629	217.0	0.373851649	0.408404160	0.004901342	0.050566241	0.015585007
2020-09-04T19:50:00	0.1687	14.617	216.0	0.374210088	0.408954902	0.004911088	0.050666790	0.015615997
2020-09-04T19:55:00	0.1689	14.604	216.0	0.374851604	0.409941447	0.004928560	0.050847046	0.015671553
2020-09-04T20:00:00	0.1687	14.591	217.0	0.374077099	0.408750524	0.004907471	0.050629470	0.015604494
2020-09-04T20:05:00	0.1693	14.579	216.0	0.375850885	0.411480368	0.004955850	0.051128590	0.015758328
2020-09-04T20:10:00	0.1692	14.566	216.0	0.375642980	0.411159969	0.004950165	0.051069937	0.015740251
2020-09-04T20:15:00	0.1690	14.553	216.0	0.375151994	0.410403776	0.004936754	0.050931582	0.015697608
2020-09-04T20:20:00	0.1683	14.540	216.0	0.372960836	0.407036916	0.004877170	0.050316868	0.015508147
2020-09-04T20:25:00	0.1679	14.527	216.0	0.371901665	0.405414028	0.004848523	0.050021322	0.015417057
2020-09-04T20:30:00	0.1678	14.514	216.0	0.371693204	0.405094972	0.004842897	0.049963277	0.015399167
2020-09-04T20:35:00	0.1682	14.502	216.0	0.372619405	0.406513439	0.004867925	0.050221483	0.015478749
2020-09-04T20:40:00	0.1683	14.488	216.0	0.372978143	0.407063459	0.004877639	0.050321706	0.015509638
2020-09-04T20:45:00	0.1685	14.476	216.0	0.373620194	0.408048712	0.004895055	0.050501377	0.015565015
2020-09-04T20:50:00	0.1685	14.462	216.0	0.373695360	0.408164130	0.004897096	0.050522436	0.015571505
2020-09-04T20:55:00	0.1687	14.448	216.0	0.374053837	0.408714780	0.004906838	0.050622944	0.015602483
2020-09-04T21:00:00	0.1690	14.436	216.0	0.374978559	0.410136813	0.004932022	0.050882763	0.015682562
2020-09-04T21:05:00	0.1687	14.423	216.0	0.374204121	0.408945730	0.004910926	0.050665115	0.015615481
2020-09-04T21:10:00	0.1680	14.410	216.0	0.372295209	0.406016676	0.004859156	0.050131013	0.015450865
2020-09-04T21:15:00	0.1679	14.397	216.0	0.371803110	0.405263172	0.004845863	0.049993875	0.015408598
2020-09-04T21:20:00	0.1673	14.385	215.0	0.370175144	0.402775030	0.004802043	0.049541789	0.015269261
2020-09-04T21:25:00	0.1671	14.373	215.0	0.369682335	0.402023226	0.004788824	0.049405419	0.015227230
2020-09-04T21:30:00	0.1675	14.360	216.0	0.370893727	0.403872422	0.004821356	0.049741037	0.015330671
2020-09-04T21:35:00	0.1678	14.348	215.0	0.371536686	0.404855492	0.004838675	0.049919721	0.015385743
2020-09-04T21:40:00	0.1680	14.336	215.0	0.372179364	0.405839235	0.004856024	0.050098709	0.015440909
2020-09-04T21:45:00	0.1672	14.326	216.0	0.369983780	0.402483019	0.004796907	0.049488808	0.015252931
2020-09-04T21:50:00	0.1668	14.314	215.0	0.368922461	0.400865270	0.004768486	0.049195586	0.015162558
2020-09-04T21:55:00	0.1663	14.303	215.0	0.367291291	0.398384758	0.004725000	0.048746950	0.015024283
2020-09-04T22:00:00	0.1665	14.292	215.0	0.367935832	0.399364063	0.004742154	0.048923932	0.015078831
2020-09-04T22:05:00	0.1661	14.280	215.0	0.366784772	0.397615938	0.004711544	0.048608135	0.014981499
2020-09-04T22:10:00	0.1671	14.269	215.0	0.369616232	0.401922433	0.004787053	0.049387144	0.015221598
2020-09-04T22:15:00	0.1666	14.257	215.0	0.368182101	0.399738531	0.004748719	0.048991654	0.015099704
2020-09-04T22:20:00	0.1669	14.245	215.0	0.369022401	0.401017479	0.004771158	0.049223154	0.015171054
2020-09-04T22:25:00	0.1664	14.234	215.0	0.367587687	0.398834959	0.004732884	0.048828288	0.015049353
2020-09-04T22:30:00	0.1668	14.222	215.0	0.368712674	0.400545852	0.004762879	0.049137749	0.015144732
2020-09-04T22:35:00	0.1666	14.210	215.0	0.368131201	0.399661121	0.004747361	0.048977653	0.015095388
2020-09-04T22:40:00	0.1662	14.197	214.0	0.366980295	0.397912632	0.004716736	0.048661692	0.014998006
2020-09-04T22:45:00	0.1659	14.186	215.0	0.366113334	0.396597845	0.004693744	0.048424487	0.014924897
2020-09-04T22:50:00	0.1659	14.175	215.0	0.366100591	0.396578535	0.004693406	0.048421005	0.014923824
2020-09-04T22:55:00	0.1664	14.164	214.0	0.367511305	0.398718919	0.004730851	0.048807320	0.015042890
2020-09-04T23:00:00	0.1663	14.154	214.0	0.367498574	0.398699580	0.004730512	0.048803825	0.015041813
2020-09-04T23:05:00	0.1677	14.144	214.0	0.371464238	0.404744667	0.004836722	0.049899568	0.015379531
2020-09-04T23:10:00	0.1675	14.135	214.0	0.370883855	0.403857337	0.004821090	0.049738297	0.015329826
2020-09-04T23:15:00	0.1681	14.126	214.0	0.372573572	0.406443194	0.004866685	0.050208687	0.015474805
2020-09-04T23:20:00	0.1677	14.118	214.0	0.371426149	0.404686405	0.004835695	0.049888975	0.015376266
2020-09-04T23:25:00	0.1677	14.109	214.0	0.371413452	0.404666986	0.004835353	0.049885444	0.015375178
2020-09-04T23:30:00	0.1688	14.102	214.0	0.374519237	0.409430184	0.004919503	0.050753608	0.015642755
2020-09-04T23:35:00	0.1683	14.095	214.0	0.373089880	0.407234845	0.004880667	0.050352947	0.015519267
2020-09-04T23:40:00	0.1690	14.088	214.0	0.375060197	0.410262465	0.004934249	0.050905739	0.015689643
2020-09-04T23:45:00	0.1693	14.081	214.0	0.375896583	0.411550810	0.004957100	0.051141488	0.015762303
2020-09-04T23:50:00	0.1683	14.075	214.0	0.373051833	0.407176483	0.004879636	0.050342307	0.015515988
2020-09-04T23:55:00	0.1694	14.069	214.0	0.376154181	0.411947982	0.004964151	0.051214227	0.015784722
2020-09-05T00:00:00	0.1696	14.064	214.0	0.376707196	0.412801240	0.004979307	0.051370593	0.015832916
2020-09-05T00:05:00	0.1693	14.060	214.0	0.375845949	0.411472761	0.004955715	0.051127197	0.015757899
2020-09-05T00:10:00	0.1695	14.056	214.0	0.376399079	0.412325740	0.004970859	0.051283437	0.015806053
2020-09-05T00:15:00	0.1692	14.053	214.0	0.375537654	0.410997696	0.004947286	0.051040238	0.015731097
2020-09-05T00:20:00	0.1695	14.050	214.0	0.376373771	0.412286694	0.004970166	0.051276283	0.015803848
2020-09-05T00:25:00	0.1691	14.047	214.0	0.375229295	0.410522787	0.004938864	0.050953350	0.015704317
2020-09-05T00:30:00	0.1691	14.045	214.0	0.375216631	0.410503289	0.004938518	0.050949783	0.015703218
2020-09-05T00:35:00	0.1694	14.042	214.0	0.376052929	0.411791847	0.004961379	0.051185628	0.015775908
2020-09-05T00:40:00	0.1696	14.041	214.0	0.376605981	0.412645013	0.004976531	0.051341953	0.015824089
2020-09-05T00:45:00	0.1692	14.039	213.0	0.375461684	0.410880670	0.004945210	0.051018823	0.015724497
2020-09-05T00:50:00	0.1680	14.037	214.0	0.372048859	0.405639383	0.004852498	0.050062332	0.015429697
2020-09-05T00:55:00	0.1682	14.036	214.0	0.372886950	0.406923608	0.004875169	0.050296217	0.015501783
2020-09-05T01:00:00	0.1694	14.035	214.0	0.376272534	0.412130523	0.004967392	0.051247668	0.015795029
2020-09-05T01:05:00	0.1692	14.034	214.0	0.375694037	0.411238642	0.004951561	0.051084337	0.015744689
2020-09-05T01:10:00	0.1684	14.033	214.0	0.373415827	0.407734984	0.004889507	0.050444145	0.015547376
2020-09-05T01:15:00	0.1691	14.032	214.0	0.375385710	0.410763654	0.004943135	0.050997413	0.015717898
2020-09-05T01:20:00	0.1684	14.031	214.0	0.373390468	0.407696062	0.004888819	0.050437046	0.015545188
2020-09-05T01:25:00	0.1680	14.030	213.0	0.372243680	0.405937745	0.004857763	0.050116643	0.015446436
2020-09-05T01:30:00	0.1683	14.030	214.0	0.373081661	0.407222236	0.004880445	0.050350648	0.015518559
2020-09-05T01:35:00	0.1688	14.028	213.0	0.374485686	0.409378590	0.004918590	0.050744182	0.015639850
2020-09-05T01:40:00	0.1687	14.027	213.0	0.374189780	0.408923688	0.004910536	0.050661090	0.015614240
2020-09-05T01:45:00	0.1682	14.026	214.0	0.372760104	0.406729119	0.004871734	0.050260776	0.015490859
2020-09-05T01:50:00	0.1684	14.026	214.0	0.373314388	0.407579303	0.004886755	0.050415752	0.015538625
2020-09-05T01:55:00	0.1679	14.025	214.0	0.371883863	0.405386778	0.004848043	0.050016364	0.015415529
2020-09-05T02:00:00	0.1685	14.024	214.0	0.373572435	0.407975386	0.004893758	0.050487999	0.015560892
2020-09-05T02:05:00	0.1688	14.024	214.0	0.374409662	0.409261694	0.004916520	0.050722826	0.015633268
2020-09-05T02:10:00	0.1692	14.023	213.0	0.375529448	0.410985055	0.004947062	0.051037925	0.015730384
2020-09-05T02:15:00	0.1691	14.021	213.0	0.375233751	0.410529649	0.004938986	0.050954605	0.015704704
2020-09-05T02:20:00	0.1700	14.019	213.0	0.377766489	0.414437933	0.005008416	0.051670909	0.015925476
2020-09-05T02:25:00	0.1693	14.017	213.0	0.375774450	0.411362562	0.004953759	0.051107022	0.015751681
2020-09-05T02:30:00	0.1689	14.016	213.0	0.374629511	0.409599779	0.004922507	0.050784598	0.015652306
2020-09-05T02:35:00	0.1695	14.013	213.0	0.376314952	0.412195955	0.004968554	0.051259656	0.015798724
2020-09-05T02:40:00	0.1700	14.011	213.0	0.377715919	0.414359730	0.005007024	0.051656548	0.015921050
2020-09-05T02:45:00	0.1704	14.009	214.0	0.379115569	0.416526725	0.005045636	0.052054898	0.016043825
2020-09-05T02:50:00	0.1697	14.009	214.0	0.377125336	0.413446941	0.004990785	0.051489013	0.015869414
2020-09-05T02:55:00	0.1695	14.008	214.0	0.376547172	0.412554251	0.004974918	0.051325317	0.015818961
2020-09-05T03:00:00	0.1690	14.008	213.0	0.375119771	0.410354170	0.004935875	0.050922510	0.015694812
2020-09-05T03:05:00	0.1688	14.008	213.0	0.374540824	0.409463381	0.004920091	0.050759674	0.015644624
2020-09-05T03:10:00	0.1685	14.007	213.0	0.373678318	0.408137960	0.004896633	0.050517661	0.015570034
2020-09-05T03:15:00	0.1685	14.005	213.0	0.373665640	0.408118494	0.004896289	0.050514109	0.015568939
2020-09-05T03:20:00	0.1675	14.004	213.0	0.370816585	0.403754548	0.004819280	0.049719624	0.015324071
2020-09-05T03:25:00	0.1673	14.003	214.0	0.370235946	0.402867831	0.004803675	0.049558630	0.015274451
2020-09-05T03:30:00	0.1670	14.001	214.0	0.369370913	0.401548471	0.004780483	0.049319358	0.015200705
2020-09-05T03:35:00	0.1675	13.999	213.0	0.370778479	0.403696327	0.004818255	0.049709049	0.015320812
2020-09-05T03:40:00	0.1675	13.997	213.0	0.370765776	0.403676921	0.004817913	0.049705524	0.015319725
2020-09-05T03:45:00	0.1672	13.994	213.0	0.369901056	0.402356816	0.004794688	0.049465916	0.015245876
2020-09-05T03:50:00	0.1674	13.991	213.0	0.370456418	0.403204417	0.004809597	0.049619724	0.015293281
2020-09-05T03:55:00	0.1672	13.988	213.0	0.369875636	0.402318040	0.004794007	0.049458883	0.015243708
2020-09-05T04:00:00	0.1670	13.985	213.0	0.369294625	0.401432211	0.004778441	0.049298290	0.015194212
2020-09-05T04:05:00	0.1667	13.982	213.0	0.368605338	0.400382469	0.004760013	0.049108173	0.015135616
2020-09-05T04:10:00	0.1672	13.977	213.0	0.369905690	0.402363885	0.004794813	0.049467198	0.015246271
2020-09-05T04:15:00	0.1672	13.974	213.0	0.369785022	0.402179828	0.004791577	0.049433816	0.015235982
2020-09-05T04:20:00	0.1670	13.973	213.0	0.369380183	0.401562600	0.004780731	0.049321919	0.015201494
2020-09-05T04:25:00	0.1664	13.970	213.0	0.367553203	0.398782569	0.004731966	0.048818821	0.015046435
2020-09-05T04:30:00	0.1661	13.967	214.0	0.366863094	0.397734774	0.004713623	0.048629584	0.014988110
2020-09-05T04:35:00	0.1658	13.965	213.0	0.365887818	0.396256167	0.004687774	0.048362898	0.014905915
2020-09-05T04:40:00	0.1660	13.964	212.0	0.366621247	0.397367876	0.004707205	0.048563371	0.014967702
2020-09-05T04:45:00	0.1659	13.963	213.0	0.366215531	0.396752728	0.004696450	0.048452412	0.014933504
2020-09-05T04:50:00	0.1657	13.964	212.0	0.365524789	0.395706428	0.004678173	0.048263851	0.014875388
2020-09-05T04:55:00	0.1654	13.966	212.0	0.364833719	0.394660899	0.004659930	0.048075638	0.014817379
2020-09-05T05:00:00	0.1648	13.968	213.0	0.363001023	0.391894329	0.004611755	0.047578622	0.014664193
2020-09-05T05:05:00	0.1635	13.970	212.0	0.359450189	0.386559445	0.004519261	0.046624381	0.014370087
2020-09-05T05:10:00	0.1634	13.974	213.0	0.359042458	0.385948991	0.004508711	0.046515543	0.014336542
2020-09-05T05:15:00	0.1630	13.978	213.0	0.358061892	0.384482691	0.004483400	0.046254413	0.014256059
2020-09-05T05:20:00	0.1627	13.981	213.0	0.357080655	0.383017930	0.004458156	0.045993977	0.014175790
2020-09-05T05:25:00	0.1635	13.989	213.0	0.359250179	0.386259935	0.004514084	0.046570972	0.014353626
2020-09-05T05:30:00	0.1633	13.999	213.0	0.358842391	0.385649612	0.004503540	0.046462193	0.014320099
2020-09-05T05:35:00	0.1629	14.008	213.0	0.357575203	0.383755859	0.004470869	0.046125129	0.014216213
2020-09-05T05:40:00	0.1621	14.011	213.0	0.355446332	0.380583898	0.004416298	0.045562136	0.014042693
2020-09-05T05:45:00	0.1611	14.018	213.0	0.352451909	0.376142495	0.004340212	0.044777168	0.013800758
2020-09-05T05:50:00	0.1608	14.029	213.0	0.351754517	0.375111493	0.004322604	0.044595510	0.013744769
2020-09-05T05:55:00	0.1597	14.035	213.0	0.348463955	0.370264050	0.004240093	0.043744263	0.013482407
2020-09-05T06:00:00	0.1591	14.041	213.0	0.346610118	0.367545597	0.004194022	0.043268950	0.013335911
2020-09-05T06:05:00	0.1593	14.045	213.0	0.347353495	0.368634600	0.004212461	0.043459180	0.013394541
2020-09-05T06:10:00	0.1600	14.054	213.0	0.349249736	0.371419030	0.004259711	0.043946658	0.013544787
2020-09-05T06:15:00	0.1593	14.067	213.0	0.347396934	0.368698280	0.004213540	0.043470311	0.013397972
2020-09-05T06:20:00	0.1588	14.079	214.0	0.345830615	0.366405226	0.004174738	0.043070006	0.013274594
2020-09-05T06:25:00	0.1583	14.091	213.0	0.344551736	0.364537733	0.004143215	0.042744781	0.013174357
2020-09-05T06:30:00	0.1579	14.104	213.0	0.343271686	0.362672809	0.004111803	0.042420713	0.013074476
2020-09-05T06:35:00	0.1582	14.112	214.0	0.344016837	0.363757911	0.004130071	0.042609185	0.013132565
2020-09-05T06:40:00	0.1580	14.122	213.0	0.343604639	0.363157482	0.004119960	0.042504866	0.013100413
2020-09-05T06:45:00	0.1572	14.137	213.0	0.341164743	0.359612478	0.004060406	0.041890463	0.012911048
2020-09-05T06:50:00	0.1574	14.159	214.0	0.341911022	0.360695123	0.004078567	0.042077828	0.012968795
2020-09-05T06:55:00	0.1566	14.182	214.0	0.339468150	0.357156583	0.004019296	0.041466336	0.012780327
2020-09-05T07:00:00	0.1553	14.199	214.0	0.335566527	0.351537191	0.003925687	0.040500590	0.012482675
2020-09-05T07:05:00	0.1547	14.218	214.0	0.333986798	0.349273185	0.003888154	0.040113364	0.012363329
2020-09-05T07:10:00	0.1541	14.235	214.0	0.332113504	0.346596823	0.003843919	0.039657005	0.012222674
2020-09-05T07:15:00	0.1530	14.260	214.0	0.329068430	0.342265695	0.003772647	0.038921703	0.011996047
2020-09-05T07:20:00	0.1529	14.280	214.0	0.328651734	0.341674872	0.003762954	0.038821708	0.011965227
2020-09-05T07:25:00	0.1530	14.303	214.0	0.329112448	0.342328132	0.003773672	0.038932274	0.011999305
2020-09-05T07:30:00	0.1527	14.328	214.0	0.328110623	0.340908312	0.003750390	0.038692082	0.011925275
2020-09-05T07:35:00	0.1530	14.354	215.0	0.328864024	0.341975816	0.003767891	0.038872632	0.011980923
2020-09-05T07:40:00	0.1525	14.379	215.0	0.327569296	0.340142201	0.003737845	0.038562657	0.011885386
2020-09-05T07:45:00	0.1532	14.401	215.0	0.329492846	0.342867923	0.003782534	0.039023705	0.012027485
2020-09-05T07:50:00	0.1530	14.423	215.0	0.329076280	0.342276829	0.003772830	0.038923588	0.011996628
2020-09-05T07:55:00	0.1533	14.444	215.0	0.329829145	0.343345448	0.003790379	0.039104640	0.012052430
2020-09-05T08:00:00	0.1531	14.464	215.0	0.329412682	0.342754138	0.003780665	0.039004426	0.012021543
2020-09-05T08:05:00	0.1539	14.479	215.0	0.331625539	0.345901160	0.003832445	0.039538632	0.012186190
2020-09-05T08:10:00	0.1541	14.492	215.0	0.332085248	0.346556523	0.003843254	0.039650145	0.012220560
2020-09-05T08:15:00	0.1548	14.504	215.0	0.334293783	0.349712637	0.003895431	0.040188442	0.012386468
2020-09-05T08:20:00	0.1549	14.518	215.0	0.334461353	0.349952619	0.003899407	0.040229459	0.012399110
2020-09-05T08:25:00	0.1555	14.533	215.0	0.336375231	0.352698698	0.003944983	0.040699666	0.012544032
2020-09-05T08:30:00	0.1559	14.547	215.0	0.337414776	0.354194243	0.003969869	0.040956409	0.012623163
2020-09-05T08:35:00	0.1558	14.557	216.0	0.337291320	0.354016486	0.003966909	0.040925869	0.012613750
2020-09-05T08:40:00	0.1550	14.568	215.0	0.334840265	0.350495538	0.003908405	0.040322296	0.012427723
2020-09-05T08:45:00	0.1552	14.577	216.0	0.335298897	0.351153180	0.003919313	0.040434834	0.012462409
2020-09-05T08:50:00	0.1568	14.586	215.0	0.340115495	0.358092760	0.004034953	0.041627864	0.012830112
2020-09-05T08:55:00	0.1566	14.592	216.0	0.339411939	0.357075343	0.004017938	0.041452327	0.012776010
2020-09-05T09:00:00	0.1564	14.597	216.0	0.338998374	0.356477885	0.004007956	0.041349346	0.012744270
2020-09-05T09:05:00	0.1574	14.604	216.0	0.341775463	0.360498357	0.004075265	0.042043757	0.012958294
2020-09-05T09:10:00	0.1584	14.609	216.0	0.344836152	0.364952685	0.004150213	0.042816984	0.013196610
2020-09-05T09:15:00	0.1586	14.628	216.0	0.345291491	0.365617445	0.004161432	0.042932727	0.013232283
2020-09-05T09:20:00	0.1589	14.653	216.0	0.346035567	0.366704906	0.004179803	0.043122261	0.013290700
2020-09-05T09:25:00	0.1589	14.671	216.0	0.346201725	0.366947942	0.004183912	0.043164653	0.013303765
2020-09-05T09:30:00	0.1597	14.680	216.0	0.348387920	0.370152376	0.004238198	0.043724707	0.013476379
2020-09-05T09:35:00	0.1599	14.686	216.0	0.349130359	0.371243460	0.004256728	0.043915874	0.013535299
2020-09-05T09:40:00	0.1597	14.689	216.0	0.348431327	0.370216127	0.004239280	0.043735871	0.013479820
2020-09-05T09:45:00	0.1591	14.690	216.0	0.346866161	0.367920522	0.004200367	0.043334416	0.013356088
2020-09-05T09:50:00	0.1582	14.690	216.0	0.344142743	0.363941400	0.004133163	0.042641079	0.013142395
2020-09-05T09:55:00	0.1594	14.686	216.0	0.347486848	0.368830106	0.004215773	0.043493356	0.013405075
2020-09-05T10:00:00	0.1584	14.681	217.0	0.344764636	0.364848326	0.004148453	0.042798822	0.013191012
2020-09-05T10:05:00	0.1565	14.681	218.0	0.339060257	0.356567257	0.004009449	0.041364746	0.012749016
2020-09-05T10:10:00	0.1527	14.686	220.0	0.328074893	0.340857721	0.003749561	0.038683531	0.011922640
2020-09-05T10:15:00	0.1511	14.698	221.0	0.323475534	0.334372916	0.003643768	0.037592081	0.011586244
2020-09-05T10:20:00	0.1488	14.703	220.0	0.316845201	0.325052084	0.003493626	0.036043091	0.011108831
2020-09-05T10:25:00	0.1478	14.703	220.0	0.314660238	0.320691680	0.003430896	0.035395924	0.010909367
2020-09-05T10:30:00	0.1463	14.702	219.0	0.311656533	0.314746513	0.003345829	0.034518300	0.010638875
2020-09-05T10:35:00	0.1452	14.701	218.0	0.309469849	0.310454252	0.003284746	0.033888121	0.010444648
2020-09-05T10:40:00	0.1440	14.701	218.0	0.306873083	0.305396208	0.003213129	0.033149258	0.010216923
2020-09-05T10:45:00	0.1447	14.701	218.0	0.308369066	0.308304927	0.003254265	0.033573657	0.010347727
2020-09-05T10:50:00	0.1448	14.704	218.0	0.308637118	0.308827607	0.003261671	0.033650062	0.010371276
2020-09-05T10:55:00	0.1451	14.709	218.0	0.309109763	0.309750329	0.003274756	0.033785050	0.010412881
2020-09-05T11:00:00	0.1451	14.714	218.0	0.309173190	0.309874260	0.003276514	0.033803191	0.010418472
2020-09-05T11:05:00	0.1458	14.717	217.0	0.310668630	0.312803615	0.003318145	0.034232689	0.010550847
2020-09-05T11:10:00	0.1463	14.716	217.0	0.311550184	0.314537062	0.003342842	0.034487481	0.010629377
2020-09-05T11:15:00	0.1450	14.718	217.0	0.308954266	0.309446603	0.003270447	0.033740602	0.010399181
2020-09-05T11:20:00	0.1448	14.722	217.0	0.308608473	0.308771730	0.003260879	0.033641892	0.010368758
2020-09-05T11:25:00	0.1446	14.728	217.0	0.308262662	0.308097574	0.003251329	0.033543358	0.010338389
2020-09-05T11:30:00	0.1417	14.739	217.0	0.302184279	0.296370966	0.003086329	0.031841087	0.009813732
2020-09-05T11:35:00	0.1431	14.746	217.0	0.305114692	0.301995324	0.003165198	0.032654769	0.010064517
2020-09-05T11:40:00	0.1419	14.761	217.0	0.302720911	0.297396877	0.003100678	0.031989123	0.009859358
2020-09-05T11:45:00	0.1421	14.774	217.0	0.302989210	0.297910479	0.003107868	0.032063299	0.009882220
2020-09-05T11:50:00	0.1423	14.778	217.0	0.303462287	0.298817194	0.003120571	0.032194354	0.009922613
2020-09-05T11:55:00	0.1424	14.785	217.0	0.303730552	0.299331987	0.003127789	0.032268821	0.009945564
2020-09-05T12:00:00	0.1429	14.794	217.0	0.304613081	0.301028737	0.003151609	0.032514566	0.010021305
2020-09-05T12:05:00	0.1434	14.804	217.0	0.305700198	0.303125579	0.003181108	0.032818902	0.010115104
2020-09-05T12:10:00	0.1437	14.813	217.0	0.306377758	0.304436233	0.003199581	0.033009489	0.010173845
2020-09-05T12:15:00	0.1430	14.828	217.0	0.304803495	0.301395470	0.003156763	0.032567743	0.010037695
2020-09-05T12:20:00	0.1441	14.834	218.0	0.307118690	0.305872788	0.003219860	0.033218701	0.010238326
2020-09-05T12:25:00	0.1458	14.836	217.0	0.310660452	0.312787556	0.003317916	0.034230330	0.010550120
2020-09-05T12:30:00	0.1469	14.843	217.0	0.312769030	0.316941819	0.003377179	0.034841728	0.010738559
2020-09-05T12:35:00	0.1457	14.857	217.0	0.310378166	0.312233532	0.003310033	0.034148998	0.010525053
2020-09-05T12:40:00	0.1450	14.869	217.0	0.309009513	0.309554497	0.003271978	0.033756390	0.010404047
2020-09-05T12:45:00	0.1447	14.885	218.0	0.308459105	0.308480446	0.003256752	0.033599309	0.010355633
2020-09-05T12:50:00	0.1454	14.891	218.0	0.309750136	0.311002745	0.003292536	0.033968487	0.010469418
2020-09-05T12:55:00	0.1444	14.890	218.0	0.307767447	0.307133471	0.003237682	0.033402572	0.010294997
2020-09-05T13:00:00	0.1438	14.888	218.0	0.306602914	0.304872411	0.003205735	0.033072977	0.010193413
2020-09-05T13:05:00	0.1460	14.890	217.0	0.310963182	0.313382263	0.003326384	0.034317689	0.010577045
2020-09-05T13:10:00	0.1441	14.893	217.0	0.307139159	0.305912523	0.003220421	0.033224493	0.010240111
2020-09-05T13:15:00	0.1456	14.892	217.0	0.310271795	0.312024897	0.003307065	0.034118382	0.010515617
2020-09-05T13:20:00	0.1458	14.886	217.0	0.310539768	0.312550637	0.003314544	0.034195544	0.010539399
2020-09-05T13:25:00	0.1470	14.884	217.0	0.313057350	0.317512038	0.003385333	0.034925860	0.010764489
2020-09-05T13:30:00	0.1469	14.884	217.0	0.312916261	0.317232935	0.003381341	0.034884674	0.010751795
2020-09-05T13:35:00	0.1467	14.879	217.0	0.312366186	0.316145979	0.003365805	0.034724392	0.010702395
2020-09-05T13:40:00	0.1467	14.872	217.0	0.312429580	0.316271149	0.003367593	0.034742840	0.010708081
2020-09-05T13:45:00	0.1476	14.864	218.0	0.314333157	0.320041534	0.003421568	0.035299681	0.010879705
2020-09-05T13:50:00	0.1473	14.857	217.0	0.313783200	0.318949896	0.003405918	0.035138232	0.010829944
2020-09-05T13:55:00	0.1459	14.850	217.0	0.310779094	0.313020558	0.003321233	0.034264550	0.010560667
2020-09-05T14:00:00	0.1446	14.848	217.0	0.308182864	0.307942115	0.003249127	0.033520647	0.010331389
2020-09-05T14:05:00	0.1462	14.842	217.0	0.311519514	0.314476670	0.003341981	0.034478597	0.010626638
2020-09-05T14:10:00	0.1440	14.834	217.0	0.306877186	0.305404167	0.003213241	0.033150418	0.010217281
2020-09-05T14:15:00	0.1436	14.833	217.0	0.306121896	0.303940961	0.003192597	0.032937437	0.010151638
2020-09-05T14:20:00	0.1414	14.834	217.0	0.301680382	0.295409291	0.003072893	0.031702476	0.009771011
2020-09-05T14:25:00	0.1413	14.831	217.0	0.301334180	0.294749500	0.003063684	0.031607464	0.009741727
2020-09-05T14:30:00	0.1412	14.827	217.0	0.301192825	0.294480324	0.003059929	0.031568723	0.009729787
2020-09-05T14:35:00	0.1411	14.820	217.0	0.301051467	0.294211267	0.003056177	0.031530010	0.009717855
2020-09-05T14:40:00	0.1404	14.815	217.0	0.299475809	0.291220741	0.003014547	0.031100529	0.009585485
2020-09-05T14:45:00	0.1407	14.812	217.0	0.300154070	0.292506131	0.003032423	0.031284948	0.009642325
2020-09-05T14:50:00	0.1411	14.810	217.0	0.301037127	0.294183980	0.003055796	0.031526085	0.009716645
2020-09-05T14:55:00	0.1406	14.807	217.0	0.299871301	0.291969895	0.003024962	0.031207980	0.009618602
2020-09-05T15:00:00	0.1411	14.804	217.0	0.300959276	0.294035862	0.003053731	0.031504779	0.009710079
2020-09-05T15:05:00	0.1414	14.795	217.0	0.301637366	0.295327270	0.003071748	0.031690660	0.009767369
2020-09-05T15:10:00	0.1416	14.785	217.0	0.302110550	0.296230156	0.003084361	0.031820781	0.009807474
2020-09-05T15:15:00	0.1416	14.777	217.0	0.301969213	0.295960323	0.003080590	0.031781880	0.009795484
2020-09-05T15:20:00	0.1424	14.769	217.0	0.303671175	0.299218006	0.003126190	0.032252329	0.009940481
2020-09-05T15:25:00	0.1427	14.759	217.0	0.304348959	0.300520422	0.003144468	0.032440897	0.009998599
2020-09-05T15:30:00	0.1432	14.751	217.0	0.305231399	0.302220441	0.003168366	0.032687443	0.010074587
2020-09-05T15:35:00	0.1427	14.739	217.0	0.304271152	0.300370761	0.003142366	0.032419214	0.009991917
2020-09-05T15:40:00	0.1423	14.730	217.0	0.303515542	0.298919353	0.003122003	0.032209128	0.009927166
2020-09-05T15:45:00	0.1426	14.722	217.0	0.303988577	0.299827558	0.003134741	0.032340548	0.009967671
2020-09-05T15:50:00	0.1429	14.712	217.0	0.304666326	0.301131262	0.003153050	0.032529431	0.010025886
2020-09-05T15:55:00	0.1427	14.704	217.0	0.304320295	0.300465282	0.003143694	0.032432908	0.009996137
2020-09-05T16:00:00	0.1429	14.694	216.0	0.304588522	0.300981454	0.003150944	0.032507712	0.010019193
2020-09-05T16:05:00	0.1435	14.684	216.0	0.305936485	0.303582318	0.003187542	0.032885287	0.010135565
2020-09-05T16:10:00	0.1434	14.676	216.0	0.305646660	0.303022141	0.003179651	0.032803872	0.010110472
2020-09-05T16:15:00	0.1438	14.668	216.0	0.306585040	0.304837774	0.003205246	0.033067934	0.010191859
2020-09-05T16:20:00	0.1453	14.660	217.0	0.309569467	0.310649136	0.003287513	0.033916670	0.010453447
2020-09-05T16:25:00	0.1451	14.649	216.0	0.309279810	0.310082646	0.003279471	0.033833699	0.010427875
2020-09-05T16:30:00	0.1452	14.637	216.0	0.309399335	0.310316342	0.003282788	0.033867921	0.010438422
2020-09-05T16:35:00	0.1455	14.627	216.0	0.309928020	0.311351103	0.003297486	0.034019554	0.010485157
2020-09-05T16:40:00	0.1461	14.617	216.0	0.311274840	0.313995112	0.003335115	0.034407771	0.010604809
2020-09-05T16:45:00	0.1465	14.605	216.0	0.312007883	0.315438993	0.003355710	0.034620240	0.010670294
2020-09-05T16:50:00	0.1484	14.592	216.0	0.316011807	0.323385376	0.003469615	0.035795373	0.011032482
2020-09-05T16:55:00	0.1485	14.580	216.0	0.316131210	0.323623902	0.003473048	0.035830798	0.011043400
2020-09-05T17:00:00	0.1501	14.568	216.0	0.320359517	0.330010377	0.003573096	0.036862970	0.011361526
2020-09-05T17:05:00	0.1489	14.556	216.0	0.316995353	0.325328303	0.003497699	0.036085115	0.011121783
2020-09-05T17:10:00	0.1492	14.545	216.0	0.317757649	0.326386695	0.003514701	0.036260526	0.011175846
2020-09-05T17:15:00	0.1514	14.533	216.0	0.324401134	0.335673585	0.003664916	0.037810265	0.011653491
2020-09-05T17:20:00	0.1503	14.521	216.0	0.321047127	0.330970918	0.003588622	0.037023148	0.011410894
2020-09-05T17:25:00	0.1499	14.508	216.0	0.320041922	0.329567127	0.003565938	0.036789124	0.011338765
2020-09-05T17:30:00	0.1508	14.496	216.0	0.322566669	0.333097902	0.003623071	0.037378557	0.011520434
2020-09-05T17:35:00	0.1500	14.482	216.0	0.320091503	0.329636308	0.003567055	0.036800647	0.011342317
2020-09-05T17:40:00	0.1506	14.470	216.0	0.322028373	0.332343744	0.003610846	0.037252428	0.011481560
2020-09-05T17:45:00	0.1508	14.457	216.0	0.322493981	0.332996022	0.003621419	0.037361511	0.011515181
2020-09-05T17:50:00	0.1504	14.444	215.0	0.321489861	0.331590026	0.003598639	0.037126496	0.011442747
2020-09-05T17:55:00	0.1509	14.432	215.0	0.322837284	0.333477316	0.003629226	0.037442060	0.011540006
2020-09-05T18:00:00	0.1498	14.420	216.0	0.319479359	0.328782624	0.003553279	0.036658529	0.011298515
2020-09-05T18:05:00	0.1489	14.408	215.0	0.316998461	0.325332615	0.003497768	0.036085829	0.011122003
2020-09-05T18:10:00	0.1493	14.396	215.0	0.318055619	0.326800808	0.003521360	0.036329226	0.011197020
2020-09-05T18:15:00	0.1511	14.386	215.0	0.323523625	0.334440440	0.003644865	0.037603399	0.011589733
2020-09-05T18:20:00	0.1511	14.375	215.0	0.323401532	0.334269021	0.003642080	0.037574668	0.011580878
2020-09-05T18:25:00	0.1502	14.366	215.0	0.320927907	0.330804290	0.003585927	0.036995347	0.011402325
2020-09-05T18:30:00	0.1501	14.355	215.0	0.320511321	0.330222331	0.003576520	0.036898298	0.011372414
2020-09-05T18:35:00	0.1513	14.344	215.0	0.323916104	0.334991739	0.003653825	0.037695841	0.011618224
2020-09-05T18:40:00	0.1522	14.335	215.0	0.326726559	0.338951021	0.003718364	0.038361674	0.011823441
2020-09-05T18:45:00	0.1513	14.326	215.0	0.323965543	0.335061211	0.003654955	0.037707495	0.011621816
2020-09-05T18:50:00	0.1507	14.317	215.0	0.322374890	0.332829132	0.003618713	0.037333592	0.011506576
2020-09-05T18:55:00	0.1503	14.307	215.0	0.321076548	0.331012043	0.003589287	0.037030010	0.011413009
2020-09-05T19:00:00	0.1515	14.298	215.0	0.324479900	0.335784371	0.003666719	0.037828866	0.011659224
2020-09-05T19:05:00	0.1526	14.285	215.0	0.327874679	0.340574300	0.003744919	0.038635639	0.011907879
2020-09-05T19:10:00	0.1513	14.276	214.0	0.323942370	0.335028647	0.003654425	0.037702032	0.011620132
2020-09-05T19:15:00	0.1517	14.263	214.0	0.325287339	0.336920956	0.003685231	0.038019854	0.011718088
2020-09-05T19:20:00	0.1526	14.251	214.0	0.327802277	0.340471833	0.003743241	0.038618329	0.011902544
2020-09-05T19:25:00	0.1526	14.237	214.0	0.327973265	0.340713845	0.003747204	0.038659217	0.011915146
2020-09-05T19:30:00	0.1528	14.224	214.0	0.328436827	0.341370335	0.003757961	0.038770195	0.011949351
2020-09-05T19:35:00	0.1534	14.210	214.0	0.330069582	0.343687032	0.003795993	0.039162565	0.012070283
2020-09-05T19:40:00	0.1529	14.198	214.0	0.328778621	0.341854735	0.003765904	0.038852141	0.011974607
2020-09-05T19:45:00	0.1517	14.183	214.0	0.325142253	0.336716604	0.003681901	0.037985494	0.011707498
2020-09-05T19:50:00	0.1526	14.167	214.0	0.327950160	0.340681139	0.003746669	0.038653691	0.011913443
2020-09-05T19:55:00	0.1518	14.154	213.0	0.325484880	0.337199280	0.003689769	0.038066665	0.011732516
2020-09-05T20:00:00	0.1517	14.137	214.0	0.325069704	0.336614439	0.003680236	0.037968320	0.011702205
2020-09-05T20:05:00	0.1523	14.124	213.0	0.326999425	0.339336507	0.003724665	0.038426682	0.011843477
2020-09-05T20:10:00	0.1530	14.109	213.0	0.328926399	0.342064262	0.003769342	0.038887602	0.011985537
2020-09-05T20:15:00	0.1537	14.095	214.0	0.331142658	0.345213351	0.003821111	0.039421697	0.012150150
2020-09-05T20:20:00	0.1534	14.082	214.0	0.330144942	0.343794125	0.003797754	0.039180730	0.012075882
2020-09-05T20:25:00	0.1523	14.071	214.0	0.326805190	0.339062086	0.003720179	0.038380401	0.011829212
2020-09-05T20:30:00	0.1525	14.057	213.0	0.327561935	0.340131788	0.003737675	0.038560899	0.011884844
2020-09-05T20:35:00	0.1515	14.046	213.0	0.324509245	0.335825649	0.003667391	0.037835797	0.011661360
2020-09-05T20:40:00	0.1504	14.035	213.0	0.321449625	0.331533739	0.003597728	0.037117096	0.011439850
2020-09-05T20:45:00	0.1504	14.022	213.0	0.321327343	0.331362706	0.003594960	0.037088539	0.011431048
2020-09-05T20:50:00	0.1508	14.010	213.0	0.322674928	0.333249663	0.003625533	0.037403954	0.011528262
2020-09-05T20:55:00	0.1500	13.998	213.0	0.320199962	0.329787663	0.003569499	0.036825860	0.011350088
2020-09-05T21:00:00	0.1493	13.987	213.0	0.318015279	0.326744731	0.003520458	0.036319921	0.011194152
2020-09-05T21:05:00	0.1510	13.975	213.0	0.323189779	0.333971812	0.003637253	0.037524871	0.011565530
2020-09-05T21:10:00	0.1528	13.963	213.0	0.328344438	0.341239452	0.003755816	0.038748062	0.011942529
2020-09-05T21:15:00	0.1527	13.949	212.0	0.328222780	0.341067136	0.003752992	0.038718929	0.011933550
2020-09-05T21:20:00	0.1520	13.936	213.0	0.326051108	0.337997613	0.003702793	0.038201029	0.011773928
2020-09-05T21:25:00	0.1528	13.924	213.0	0.328272061	0.341136932	0.003754136	0.038730729	0.011937187
2020-09-05T21:30:00	0.1527	13.909	212.0	0.328150396	0.340964630	0.003751313	0.038701601	0.011928209
2020-09-05T21:35:00	0.1520	13.893	213.0	0.325978608	0.337895349	0.003701124	0.038183810	0.011768621
2020-09-05T21:40:00	0.1523	13.877	213.0	0.327028715	0.339377898	0.003725342	0.038433664	0.011845629
2020-09-05T21:45:00	0.1537	13.863	212.0	0.331001272	0.345012077	0.003817796	0.039387497	0.012139609
2020-09-05T21:50:00	0.1530	13.844	212.0	0.329126491	0.342348052	0.003773999	0.038935647	0.012000345
2020-09-05T21:55:00	0.1518	13.827	212.0	0.325491057	0.337207984	0.003689911	0.038068129	0.011732967
2020-09-05T22:00:00	0.1503	13.810	212.0	0.320963528	0.330854071	0.003586732	0.037003652	0.011404885
2020-09-05T22:05:00	0.1525	13.793	212.0	0.327505698	0.340052243	0.003736373	0.038547469	0.011880704
2020-09-05T22:10:00	0.1533	13.774	212.0	0.329931164	0.343490366	0.003792761	0.039129212	0.012060003
2020-09-05T22:15:00	0.1545	13.758	211.0	0.333518715	0.348603587	0.003877073	0.039999046	0.012328095
2020-09-05T22:20:00	0.1541	13.740	211.0	0.332145791	0.346642874	0.003844679	0.039664845	0.012225090
2020-09-05T22:25:00	0.1530	13.724	211.0	0.329017986	0.342194147	0.003771473	0.038909589	0.011992313
2020-09-05T22:30:00	0.1540	13.707	212.0	0.332024471	0.346469849	0.003841824	0.039635392	0.012216013
2020-09-05T22:35:00	0.1539	13.693	211.0	0.331526027	0.345759368	0.003830108	0.039514518	0.012178758
2020-09-05T22:40:00	0.1551	13.680	211.0	0.335109402	0.350881393	0.003914804	0.040388314	0.012448071
2020-09-05T22:45:00	0.1558	13.665	211.0	0.337230774	0.353929323	0.003965458	0.040910896	0.012609135
2020-09-05T22:50:00	0.1561	13.654	211.0	0.337896904	0.354888810	0.003981442	0.041075806	0.012659962
2020-09-05T22:55:00	0.1551	13.643	211.0	0.335073393	0.350829756	0.003913948	0.040379478	0.012445347
2020-09-05T23:00:00	0.1548	13.632	211.0	0.334284775	0.349699739	0.003895217	0.040186238	0.012385789
2020-09-05T23:05:00	0.1547	13.623	211.0	0.334078541	0.349404490	0.003890328	0.040135793	0.012370241
2020-09-05T23:10:00	0.1534	13.613	211.0	0.330078816	0.343700154	0.003796209	0.039164790	0.012070969
2020-09-05T23:15:00	0.1530	13.603	211.0	0.328994899	0.342161404	0.003770935	0.038904046	0.011990605
2020-09-05T23:20:00	0.1534	13.593	211.0	0.330249518	0.343942762	0.003800198	0.039205947	0.012083654
2020-09-05T23:25:00	0.1534	13.586	211.0	0.330042674	0.343648797	0.003795365	0.039156080	0.012068284
2020-09-05T23:30:00	0.1523	13.577	211.0	0.326910024	0.339210186	0.003722600	0.038405376	0.011836910
2020-09-05T23:35:00	0.1510	13.568	211.0	0.323182827	0.333962056	0.003637095	0.037523236	0.011565026
2020-09-05T23:40:00	0.1500	13.558	211.0	0.320328548	0.329967143	0.003572397	0.036855766	0.011359305
2020-09-05T23:45:00	0.1503	13.547	211.0	0.321003013	0.330909257	0.003587624	0.037012859	0.011407723
2020-09-05T23:50:00	0.1500	13.536	211.0	0.320206163	0.329796317	0.003569638	0.036827302	0.011350532
2020-09-05T23:55:00	0.1506	13.524	210.0	0.322057006	0.332383840	0.003611495	0.037259130	0.011483626
2020-09-06T00:00:00	0.1503	13.513	210.0	0.320966627	0.330858402	0.003586802	0.037004374	0.011405108
2020-09-06T00:05:00	0.1506	13.501	210.0	0.321934779	0.332212694	0.003608722	0.037230523	0.011474809
2020-09-06T00:10:00	0.1512	13.487	210.0	0.323783240	0.334805066	0.003650790	0.037664532	0.011608575
2020-09-06T00:15:00	0.1515	13.476	211.0	0.324749366	0.336163496	0.003672891	0.037892542	0.011678849
2020-09-06T00:20:00	0.1528	13.464	211.0	0.328350602	0.341248183	0.003755959	0.038749539	0.011942984
2020-09-06T00:25:00	0.1522	13.450	210.0	0.326679544	0.338884621	0.003717279	0.038350480	0.011819990
2020-09-06T00:30:00	0.1527	13.440	210.0	0.328228944	0.341075866	0.003753135	0.038720405	0.011934005
2020-09-06T00:35:00	0.1526	13.430	210.0	0.327729108	0.340368295	0.003741546	0.038600840	0.011897154
2020-09-06T00:40:00	0.1525	13.420	210.0	0.327521880	0.340075131	0.003736747	0.038551333	0.011881895
2020-09-06T00:45:00	0.1528	13.414	210.0	0.328485338	0.341439068	0.003759088	0.038781820	0.011952933
2020-09-06T00:50:00	0.1534	13.406	210.0	0.330032679	0.343634594	0.003795131	0.039153671	0.012067542
2020-09-06T00:55:00	0.1527	13.398	210.0	0.328071081	0.340852324	0.003749473	0.038682619	0.011922359
2020-09-06T01:00:00	0.1528	13.388	210.0	0.328449153	0.341387799	0.003758248	0.038773149	0.011950261
2020-09-06T01:05:00	0.1520	13.380	210.0	0.326192246	0.338196735	0.003706043	0.038234564	0.011784264
2020-09-06T01:10:00	0.1522	13.372	210.0	0.326570843	0.338731122	0.003714771	0.038324605	0.011812015
2020-09-06T01:15:00	0.1518	13.364	210.0	0.325484116	0.337198203	0.003689751	0.038066484	0.011732460
2020-09-06T01:20:00	0.1506	13.354	210.0	0.322046951	0.332369760	0.003611267	0.037256777	0.011482900
2020-09-06T01:25:00	0.1506	13.348	210.0	0.321838848	0.332078394	0.003606547	0.037208078	0.011467891
2020-09-06T01:30:00	0.1506	13.338	210.0	0.321924724	0.332198615	0.003608494	0.037228170	0.011474083
2020-09-06T01:35:00	0.1510	13.332	210.0	0.323185920	0.333966397	0.003637165	0.037523964	0.011565250
2020-09-06T01:40:00	0.1512	13.324	210.0	0.323858950	0.334911433	0.003652520	0.037682371	0.011614073
2020-09-06T01:45:00	0.1514	13.314	210.0	0.324238203	0.335444472	0.003661188	0.037771805	0.011641637
2020-09-06T01:50:00	0.1518	13.303	210.0	0.325497234	0.337216689	0.003690053	0.038069594	0.011733418
2020-09-06T01:55:00	0.1511	13.293	210.0	0.323529046	0.334448052	0.003644989	0.037604675	0.011590126
2020-09-06T02:00:00	0.1515	13.283	209.0	0.324495354	0.335806108	0.003667073	0.037832516	0.011660349
2020-09-06T02:05:00	0.1513	13.277	210.0	0.323994134	0.335101392	0.003655608	0.037714236	0.011623894
2020-09-06T02:10:00	0.1506	13.267	210.0	0.322023745	0.332337263	0.003610741	0.037251344	0.011481226
2020-09-06T02:15:00	0.1513	13.258	209.0	0.323872084	0.334929886	0.003652820	0.037685466	0.011615027
2020-09-06T02:20:00	0.1517	13.248	209.0	0.325131457	0.336701400	0.003681653	0.037982939	0.011706711
2020-09-06T02:25:00	0.1512	13.235	209.0	0.323750022	0.334758402	0.003650032	0.037656707	0.011606163
2020-09-06T02:30:00	0.1511	13.224	209.0	0.323542182	0.334466498	0.003645288	0.037607767	0.011591079
2020-09-06T02:35:00	0.1504	13.214	209.0	0.321277041	0.331292361	0.003593822	0.037076796	0.011427429
2020-09-06T02:40:00	0.1503	13.203	209.0	0.321068818	0.331001238	0.003589112	0.037028207	0.011412453
2020-09-06T02:45:00	0.1507	13.190	209.0	0.322330819	0.332767382	0.003617712	0.037323264	0.011503392
2020-09-06T02:50:00	0.1504	13.179	209.0	0.321240662	0.331241491	0.003592999	0.037068304	0.011424811
2020-09-06T02:55:00	0.1500	13.167	209.0	0.320149618	0.329717403	0.003568364	0.036814155	0.011346480
2020-09-06T03:00:00	0.1497	13.153	209.0	0.319352260	0.328605494	0.003550423	0.036629062	0.011289433
2020-09-06T03:05:00	0.1494	13.139	209.0	0.318554425	0.327494546	0.003532524	0.036444401	0.011232518
2020-09-06T03:10:00	0.1495	13.126	209.0	0.318640512	0.327614340	0.003534453	0.036464300	0.011238651
2020-09-06T03:15:00	0.1494	13.113	209.0	0.318431877	0.327324049	0.003529780	0.036416085	0.011223791
2020-09-06T03:20:00	0.1491	13.100	209.0	0.317633491	0.326214211	0.003511929	0.036231923	0.011167030
2020-09-06T03:25:00	0.1495	13.089	208.0	0.318604061	0.327563616	0.003533636	0.036455873	0.011236054
2020-09-06T03:30:00	0.1499	13.079	208.0	0.319868389	0.329325047	0.003562030	0.036748811	0.011326340
2020-09-06T03:35:00	0.1502	13.065	208.0	0.320837336	0.330677726	0.003583880	0.036974234	0.011395818
2020-09-06T03:40:00	0.1500	13.051	209.0	0.320334748	0.329975799	0.003572537	0.036857208	0.011359750
2020-09-06T03:45:00	0.1500	13.037	208.0	0.320126379	0.329684974	0.003567841	0.036808753	0.011344815
2020-09-06T03:50:00	0.1500	13.024	209.0	0.320212364	0.329804972	0.003569778	0.036828744	0.011350977
2020-09-06T03:55:00	0.1508	13.011	208.0	0.322650967	0.333216072	0.003624988	0.037398332	0.011526529
2020-09-06T04:00:00	0.1509	12.993	208.0	0.322736791	0.333336399	0.003626940	0.037418471	0.011532736
2020-09-06T04:05:00	0.1515	12.979	208.0	0.324750296	0.336164806	0.003672913	0.037892762	0.011678917
2020-09-06T04:10:00	0.1519	12.966	208.0	0.325881736	0.337758727	0.003698894	0.038160809	0.011761532
2020-09-06T04:15:00	0.1525	12.949	208.0	0.327597845	0.340182585	0.003738506	0.038569477	0.011887487
2020-09-06T04:20:00	0.1523	12.930	207.0	0.326970764	0.339296008	0.003724003	0.038419851	0.011841371
2020-09-06T04:25:00	0.1521	12.916	207.0	0.326343392	0.338410033	0.003709526	0.038270496	0.011795339
2020-09-06T04:30:00	0.1519	12.900	207.0	0.325715730	0.337524658	0.003695075	0.038121412	0.011749389
2020-09-06T04:35:00	0.1522	12.883	207.0	0.326553422	0.338706525	0.003714369	0.038320459	0.011810738
2020-09-06T04:40:00	0.1524	12.868	207.0	0.327097776	0.339475498	0.003726938	0.038450129	0.011850703
2020-09-06T04:45:00	0.1527	12.850	207.0	0.328227254	0.341073472	0.003753096	0.038720000	0.011933880
2020-09-06T04:50:00	0.1529	12.833	207.0	0.328770936	0.341843839	0.003765726	0.038850297	0.011974039
2020-09-06T04:55:00	0.1535	12.818	207.0	0.330483396	0.344275280	0.003805668	0.039262376	0.012101046
2020-09-06T05:00:00	0.1530	12.803	207.0	0.328980590	0.342141111	0.003770603	0.038900611	0.011989546
2020-09-06T05:05:00	0.1535	12.789	207.0	0.330400677	0.344157656	0.003803733	0.039242413	0.012094893
2020-09-06T05:10:00	0.1533	12.778	207.0	0.329774889	0.343268387	0.003789113	0.039091576	0.012048403
2020-09-06T05:15:00	0.1542	12.765	207.0	0.332361535	0.346950661	0.003849759	0.039717253	0.012241243
2020-09-06T05:20:00	0.1542	12.753	207.0	0.332611932	0.347308037	0.003855660	0.039778130	0.012260006
2020-09-06T05:25:00	0.1544	12.740	207.0	0.333153868	0.348082063	0.003868449	0.039910074	0.012300672
2020-09-06T05:30:00	0.1542	12.732	207.0	0.332529341	0.347190143	0.003853713	0.039758044	0.012253815
2020-09-06T05:35:00	0.1550	12.724	206.0	0.334819619	0.350465945	0.003907915	0.040317234	0.012426163
2020-09-06T05:40:00	0.1547	12.714	207.0	0.333904488	0.349155399	0.003886204	0.040093248	0.012357129
2020-09-06T05:45:00	0.1546	12.706	207.0	0.333571799	0.348679496	0.003878329	0.040012001	0.012332087
2020-09-06T05:50:00	0.1546	12.698	206.0	0.333530533	0.348620487	0.003877352	0.040001930	0.012328983
2020-09-06T05:55:00	0.1544	12.690	207.0	0.333197754	0.348144776	0.003869486	0.039920770	0.012303969
2020-09-06T06:00:00	0.1552	12.685	207.0	0.335486916	0.351422941	0.003923790	0.040481023	0.012476644
2020-09-06T06:05:00	0.1546	12.680	207.0	0.333698197	0.348860271	0.003881320	0.040042858	0.012341598
2020-09-06T06:10:00	0.1551	12.676	207.0	0.335113392	0.350887115	0.003914899	0.040389293	0.012448372
2020-09-06T06:15:00	0.1551	12.675	206.0	0.335072172	0.350828007	0.003913919	0.040379178	0.012445255
2020-09-06T06:20:00	0.1548	12.674	207.0	0.334157211	0.349517102	0.003892192	0.040155031	0.012376171
2020-09-06T06:25:00	0.1547	12.675	206.0	0.333824583	0.349041070	0.003884311	0.040073726	0.012351111
2020-09-06T06:30:00	0.1543	12.674	207.0	0.332908788	0.347731931	0.003862662	0.039850373	0.012282272
2020-09-06T06:35:00	0.1535	12.675	206.0	0.330532595	0.344345247	0.003806819	0.039274253	0.012104706
2020-09-06T06:40:00	0.1539	12.678	206.0	0.331659226	0.345949166	0.003833237	0.039546798	0.012188707
2020-09-06T06:45:00	0.1548	12.680	207.0	0.334242310	0.349638936	0.003894210	0.040175848	0.012382587
2020-09-06T06:50:00	0.1553	12.685	206.0	0.335656945	0.351666970	0.003927842	0.040522819	0.012489526
2020-09-06T06:55:00	0.1558	12.692	206.0	0.337070126	0.353698100	0.003961608	0.040871184	0.012596896
2020-09-06T07:00:00	0.1562	12.701	206.0	0.338191404	0.355313372	0.003988521	0.041148838	0.012682471
2020-09-06T07:05:00	0.1567	12.712	207.0	0.339892156	0.357769649	0.004029547	0.041572094	0.012812923
2020-09-06T07:10:00	0.1564	12.723	206.0	0.338980387	0.356451911	0.004007523	0.041344871	0.012742891
2020-09-06T07:15:00	0.1562	12.735	207.0	0.338358501	0.355554365	0.003992541	0.041190309	0.012695253
2020-09-06T07:20:00	0.1566	12.753	206.0	0.339478734	0.357171881	0.004019552	0.041468974	0.012781141
2020-09-06T07:25:00	0.1574	12.761	207.0	0.341757512	0.360472304	0.004074828	0.042039247	0.012956904
2020-09-06T07:30:00	0.1573	12.776	207.0	0.341426710	0.359992355	0.004066776	0.041956178	0.012931302
2020-09-06T07:35:00	0.1577	12.786	207.0	0.342544471	0.361615223	0.004094020	0.042237252	0.013017931
2020-09-06T07:40:00	0.1585	12.798	207.0	0.345107317	0.365348500	0.004156892	0.042885889	0.013217848
2020-09-06T07:45:00	0.1584	12.809	207.0	0.344777309	0.364866818	0.004148765	0.042802040	0.013192004
2020-09-06T07:50:00	0.1588	12.834	207.0	0.345892392	0.366495544	0.004176265	0.043085753	0.013279447
2020-09-06T07:55:00	0.1589	12.847	207.0	0.346140355	0.366858168	0.004182394	0.043148993	0.013298939
2020-09-06T08:00:00	0.1590	12.877	207.0	0.346388274	0.367220890	0.004188528	0.043212276	0.013318443
2020-09-06T08:05:00	0.1588	12.896	207.0	0.345769687	0.366316157	0.004173233	0.043054478	0.013269808
2020-09-06T08:10:00	0.1595	12.915	207.0	0.347749757	0.369215690	0.004222309	0.043560784	0.013425857
2020-09-06T08:15:00	0.1593	12.925	208.0	0.347420369	0.368732637	0.004214122	0.043476317	0.013399823
2020-09-06T08:20:00	0.1592	12.934	207.0	0.347090904	0.368249755	0.004205942	0.043391927	0.013373813
2020-09-06T08:25:00	0.1596	12.949	207.0	0.348204152	0.369882535	0.004233619	0.043677466	0.013461819
2020-09-06T08:30:00	0.1594	12.965	207.0	0.347586363	0.368976035	0.004218246	0.043518871	0.013412939
2020-09-06T08:35:00	0.1591	12.986	208.0	0.346679610	0.367647338	0.004195744	0.043286713	0.013341385
2020-09-06T08:40:00	0.1588	13.008	208.0	0.345772272	0.366319936	0.004173297	0.043055137	0.013270011
2020-09-06T08:45:00	0.1584	13.032	208.0	0.344575218	0.364571985	0.004143792	0.042750740	0.013176193
2020-09-06T08:50:00	0.1574	13.046	208.0	0.341929364	0.360721751	0.004079014	0.042082440	0.012970217
2020-09-06T08:55:00	0.1573	13.062	208.0	0.341598603	0.360241713	0.004070959	0.041999331	0.012944602
2020-09-06T09:00:00	0.1560	13.081	209.0	0.337785274	0.354727939	0.003978761	0.041048143	0.012651436
2020-09-06T09:05:00	0.1562	13.102	208.0	0.338325175	0.355506296	0.003991739	0.041182036	0.012692704
2020-09-06T09:10:00	0.1568	13.127	209.0	0.340025763	0.357962926	0.004032780	0.041605452	0.012823204
2020-09-06T09:15:00	0.1558	13.150	209.0	0.337080531	0.353713075	0.003961858	0.040873755	0.012597688
2020-09-06T09:20:00	0.1564	13.179	209.0	0.338782649	0.356166414	0.004002755	0.041295689	0.012727732
2020-09-06T09:25:00	0.1560	13.208	209.0	0.337870149	0.354850251	0.003980800	0.041069175	0.012657919
2020-09-06T09:30:00	0.1556	13.237	209.0	0.336666268	0.353117116	0.003951941	0.040771449	0.012566157
2020-09-06T09:35:00	0.1558	13.266	209.0	0.337206607	0.353894535	0.003964878	0.040904920	0.012607294
2020-09-06T09:40:00	0.1550	13.292	209.0	0.334837858	0.350492087	0.003908348	0.040321706	0.012427541
2020-09-06T09:45:00	0.1545	13.326	209.0	0.333339836	0.348347849	0.003872843	0.039955410	0.012314645
2020-09-06T09:50:00	0.1548	13.363	209.0	0.334172852	0.349539494	0.003892563	0.040158857	0.012377350
2020-09-06T09:55:00	0.1544	13.398	210.0	0.332965727	0.347813263	0.003864006	0.039864239	0.012286545
2020-09-06T10:00:00	0.1549	13.424	210.0	0.334672939	0.350255742	0.003904430	0.040281284	0.012415083
2020-09-06T10:05:00	0.1547	13.451	210.0	0.334049105	0.349362358	0.003889630	0.040128596	0.012368023
2020-09-06T10:10:00	0.1541	13.475	210.0	0.332258508	0.346803665	0.003847333	0.039692221	0.012233528
2020-09-06T10:15:00	0.1542	13.499	210.0	0.332508924	0.347161001	0.003853232	0.039753080	0.012252285
2020-09-06T10:20:00	0.1541	13.527	210.0	0.332175896	0.346685816	0.003845388	0.039672155	0.012227344
2020-09-06T10:25:00	0.1544	13.541	211.0	0.333009619	0.347875964	0.003865042	0.039874929	0.012289840
2020-09-06T10:30:00	0.1540	13.561	211.0	0.331801468	0.346151901	0.003836580	0.039581286	0.012199337
2020-09-06T10:35:00	0.1543	13.575	211.0	0.332927052	0.347758019	0.003863093	0.039854820	0.012283643
2020-09-06T10:40:00	0.1532	13.599	211.0	0.329674282	0.343125515	0.003786765	0.039067358	0.012040939
2020-09-06T10:45:00	0.1534	13.617	211.0	0.330217385	0.343897087	0.003799447	0.039198198	0.012081265
2020-09-06T10:50:00	0.1518	13.629	211.0	0.325492917	0.337210605	0.003689954	0.038068570	0.011733103
2020-09-06T10:55:00	0.1520	13.648	211.0	0.326037697	0.337978696	0.003702484	0.038197844	0.011772946
2020-09-06T11:00:00	0.1514	13.669	211.0	0.324236507	0.335442088	0.003661150	0.037771405	0.011641514
2020-09-06T11:05:00	0.1517	13.701	211.0	0.325075118	0.336622064	0.003680361	0.037969602	0.011702600
2020-09-06T11:10:00	0.1517	13.728	211.0	0.325326863	0.336976635	0.003686139	0.038029217	0.011720974
2020-09-06T11:15:00	0.1510	13.755	211.0	0.323231061	0.334029746	0.003638194	0.037534576	0.011568521
2020-09-06T11:20:00	0.1510	13.771	211.0	0.323189480	0.333971392	0.003637246	0.037524800	0.011565508
2020-09-06T11:25:00	0.1506	13.798	212.0	0.321972537	0.332265560	0.003609579	0.037239359	0.011477532
2020-09-06T11:30:00	0.1501	13.833	211.0	0.320460221	0.330150977	0.003575367	0.036886404	0.011368748
2020-09-06T11:35:00	0.1500	13.859	212.0	0.320124212	0.329681950	0.003567792	0.036808249	0.011344660
2020-09-06T11:40:00	0.1494	13.885	212.0	0.318315061	0.327161561	0.003527164	0.036389105	0.011215476
2020-09-06T11:45:00	0.1494	13.907	212.0	0.318568078	0.327513543	0.003532830	0.036447556	0.011233491
2020-09-06T11:50:00	0.1499	13.928	212.0	0.319999174	0.329507486	0.003564975	0.036779191	0.011335704
2020-09-06T11:55:00	0.1482	13.946	212.0	0.315562696	0.322489012	0.003456718	0.035662327	0.010991475
2020-09-06T12:00:00	0.1479	13.954	213.0	0.314920530	0.321209549	0.003438331	0.035472632	0.010933010
2020-09-06T12:05:00	0.1480	13.958	212.0	0.315096005	0.321558910	0.003443350	0.035524403	0.010948966
2020-09-06T12:10:00	0.1482	13.958	212.0	0.315475879	0.322315886	0.003454229	0.035636644	0.010983560
2020-09-06T12:15:00	0.1476	13.961	213.0	0.314220414	0.319817589	0.003418356	0.035266546	0.010869492
2020-09-06T12:20:00	0.1470	13.964	213.0	0.313169187	0.317733361	0.003388500	0.034958529	0.010774558
2020-09-06T12:25:00	0.1465	13.971	212.0	0.312117792	0.315655774	0.003358805	0.034652167	0.010680134
2020-09-06T12:30:00	0.1464	13.976	213.0	0.311884329	0.315195390	0.003352233	0.034584370	0.010659239
2020-09-06T12:35:00	0.1458	13.978	213.0	0.310628178	0.312724190	0.003317014	0.034221026	0.010547252
2020-09-06T12:40:00	0.1458	13.975	213.0	0.310599218	0.312667334	0.003316205	0.034212677	0.010544679
2020-09-06T12:45:00	0.1459	13.968	213.0	0.310774808	0.313012139	0.003321113	0.034263314	0.010560286
2020-09-06T12:50:00	0.1448	13.969	213.0	0.308495422	0.308551255	0.003257755	0.033609659	0.010358823
2020-09-06T12:55:00	0.1449	13.969	212.0	0.308875682	0.309293166	0.003268271	0.033718153	0.010392262
2020-09-06T13:00:00	0.1450	13.968	213.0	0.309051319	0.309636154	0.003273136	0.033768340	0.010407730
2020-09-06T13:05:00	0.1450	13.964	213.0	0.309022352	0.309579573	0.003272333	0.033760060	0.010405178
2020-09-06T13:10:00	0.1444	13.963	212.0	0.307765639	0.307129954	0.003237633	0.033402059	0.010294839
2020-09-06T13:15:00	0.1445	13.962	212.0	0.307941307	0.307471773	0.003242469	0.033451957	0.010310218
2020-09-06T13:20:00	0.1442	13.963	213.0	0.307298387	0.306221714	0.003224790	0.033269567	0.010254004
2020-09-06T13:25:00	0.1438	13.962	213.0	0.306450717	0.304577535	0.003201574	0.033030053	0.010180183
2020-09-06T13:30:00	0.1436	13.973	213.0	0.306217046	0.304125094	0.003195193	0.032964220	0.010159893
2020-09-06T13:35:00	0.1436	13.984	212.0	0.306188065	0.304069005	0.003194402	0.032956061	0.010157378
2020-09-06T13:40:00	0.1439	13.990	212.0	0.306773144	0.305202397	0.003210393	0.033121028	0.010208223
2020-09-06T13:45:00	0.1450	13.997	213.0	0.308995215	0.309526572	0.003271582	0.033752304	0.010402788
2020-09-06T13:50:00	0.1447	14.005	213.0	0.308352402	0.308272449	0.003253805	0.033568911	0.010346264
2020-09-06T13:55:00	0.1453	14.015	213.0	0.309551068	0.310613138	0.003287002	0.033911396	0.010451822
2020-09-06T14:00:00	0.1462	14.026	213.0	0.311363125	0.314168827	0.003337592	0.034433316	0.010612683
2020-09-06T14:05:00	0.1462	14.039	213.0	0.311334168	0.314111844	0.003336779	0.034424936	0.010610100
2020-09-06T14:10:00	0.1454	14.045	213.0	0.309873337	0.311243993	0.003295964	0.034003850	0.010480317
2020-09-06T14:15:00	0.1450	14.048	213.0	0.309026013	0.309586724	0.003272435	0.033761106	0.010405501
2020-09-06T14:20:00	0.1442	14.049	213.0	0.307360000	0.306341398	0.003226482	0.033287019	0.010259382
2020-09-06T14:25:00	0.1435	14.055	213.0	0.305898252	0.303508390	0.003186501	0.032874539	0.010132252
2020-09-06T14:30:00	0.1418	14.053	213.0	0.302388271	0.296760735	0.003091779	0.031897309	0.009831060
2020-09-06T14:35:00	0.1418	14.047	213.0	0.302359272	0.296705311	0.003091003	0.031889313	0.009828596
2020-09-06T14:40:00	0.1414	14.037	213.0	0.301510915	0.295086226	0.003068383	0.031655944	0.009756670
2020-09-06T14:45:00	0.1412	14.028	213.0	0.301277053	0.294640701	0.003062166	0.031591804	0.009736901
2020-09-06T14:50:00	0.1405	14.021	213.0	0.299813835	0.291860981	0.003023448	0.031192352	0.009613786
2020-09-06T14:55:00	0.1405	14.012	213.0	0.299784824	0.291806003	0.003022683	0.031184465	0.009611355
2020-09-06T15:00:00	0.1406	14.002	213.0	0.299960723	0.292139419	0.003027320	0.031232307	0.009626100
2020-09-06T15:05:00	0.1407	13.994	213.0	0.300136618	0.292473020	0.003031962	0.031280194	0.009640860
2020-09-06T15:10:00	0.1407	13.988	213.0	0.300107608	0.292417987	0.003031196	0.031272293	0.009638425
2020-09-06T15:15:00	0.1404	13.981	213.0	0.299463855	0.291198114	0.003014233	0.031097285	0.009584485
2020-09-06T15:20:00	0.1406	13.972	213.0	0.300049588	0.292307935	0.003029665	0.031256495	0.009633555
2020-09-06T15:25:00	0.1411	13.959	213.0	0.301045016	0.294198992	0.003056005	0.031528244	0.009717311
2020-09-06T15:30:00	0.1412	13.947	213.0	0.301220878	0.294533734	0.003060674	0.031576409	0.009732156
2020-09-06T15:35:00	0.1414	13.935	213.0	0.301601589	0.295259061	0.003070796	0.031680836	0.009764341
2020-09-06T15:40:00	0.1416	13.927	213.0	0.301982275	0.295985255	0.003080938	0.031785474	0.009796592
2020-09-06T15:45:00	0.1410	13.920	213.0	0.300724116	0.293588683	0.003047498	0.031440477	0.009690260
2020-09-06T15:50:00	0.1417	13.913	213.0	0.302129110	0.296265599	0.003084856	0.031825892	0.009809049
2020-09-06T15:55:00	0.1416	13.905	213.0	0.302100110	0.296210220	0.003084082	0.031817907	0.009806588
2020-09-06T16:00:00	0.1422	13.895	213.0	0.303299990	0.298505972	0.003116209	0.032149355	0.009908744
2020-09-06T16:05:00	0.1418	13.888	213.0	0.302426433	0.296833681	0.003092799	0.031907834	0.009834304
2020-09-06T16:10:00	0.1418	13.878	213.0	0.302372101	0.296729830	0.003091346	0.031892850	0.009829686
2020-09-06T16:15:00	0.1418	13.864	213.0	0.302522591	0.297017526	0.003095370	0.031934363	0.009842481
2020-09-06T16:20:00	0.1416	13.850	212.0	0.302058605	0.296130970	0.003082975	0.031806480	0.009803066
2020-09-06T16:25:00	0.1416	13.836	213.0	0.302004269	0.296027238	0.003081525	0.031791526	0.009798457
2020-09-06T16:30:00	0.1420	13.823	213.0	0.302769232	0.297489344	0.003101972	0.032002474	0.009863473
2020-09-06T16:35:00	0.1414	13.809	212.0	0.301690753	0.295429068	0.003073170	0.031705325	0.009771889
2020-09-06T16:40:00	0.1408	13.798	212.0	0.300407191	0.292986570	0.003039111	0.031353949	0.009663591
2020-09-06T16:45:00	0.1401	13.785	212.0	0.298918408	0.290166568	0.002999907	0.030949487	0.009538933
2020-09-06T16:50:00	0.1405	13.773	212.0	0.299683770	0.291614546	0.003020021	0.031157001	0.009602890
2020-09-06T16:55:00	0.1413	13.759	212.0	0.301473396	0.295014727	0.003067385	0.031645649	0.009753496
2020-09-06T17:00:00	0.1419	13.746	212.0	0.302648070	0.297257516	0.003098728	0.031969003	0.009853157
2020-09-06T17:05:00	0.1418	13.731	212.0	0.302388920	0.296761977	0.003091796	0.031897488	0.009831116
2020-09-06T17:10:00	0.1410	13.715	212.0	0.300695759	0.293534783	0.003046747	0.031432729	0.009687872
2020-09-06T17:15:00	0.1407	13.700	212.0	0.300231630	0.292653301	0.003034471	0.031306081	0.009648838
2020-09-06T17:20:00	0.1407	13.685	212.0	0.300177278	0.292550163	0.003033036	0.031291271	0.009644274
2020-09-06T17:25:00	0.1407	13.670	212.0	0.300122925	0.292447044	0.003031601	0.031276465	0.009639710
2020-09-06T17:30:00	0.1397	13.651	212.0	0.298224146	0.288856301	0.002981735	0.030762009	0.009481150
2020-09-06T17:35:00	0.1404	13.636	212.0	0.299604393	0.291464201	0.003017931	0.031135438	0.009596244
2020-09-06T17:40:00	0.1402	13.615	212.0	0.299140177	0.290585750	0.003005726	0.031009526	0.009557437
2020-09-06T17:45:00	0.1413	13.596	211.0	0.301339702	0.294760018	0.003063831	0.031608978	0.009742194
2020-09-06T17:50:00	0.1414	13.575	211.0	0.301695069	0.295437298	0.003073285	0.031706510	0.009772254
2020-09-06T17:55:00	0.1406	13.553	211.0	0.300001709	0.292217136	0.003028402	0.031243462	0.009629538
2020-09-06T18:00:00	0.1426	13.530	211.0	0.304044101	0.299934253	0.003136239	0.032355995	0.009972432
2020-09-06T18:05:00	0.1436	13.509	211.0	0.306037132	0.303776974	0.003190286	0.032913589	0.010144288
2020-09-06T18:10:00	0.1445	13.483	211.0	0.308029522	0.307643496	0.003244900	0.033477032	0.010317946
2020-09-06T18:15:00	0.1446	13.458	211.0	0.308179874	0.307936292	0.003249045	0.033519796	0.010331127
2020-09-06T18:20:00	0.1448	13.432	211.0	0.308534844	0.308628128	0.003258844	0.033620897	0.010362287
2020-09-06T18:25:00	0.1453	13.403	211.0	0.309503588	0.310520250	0.003285683	0.033897788	0.010447628
2020-09-06T18:30:00	0.1463	13.372	211.0	0.311699411	0.314830979	0.003347034	0.034530730	0.010642706
2020-09-06T18:35:00	0.1466	13.344	211.0	0.312258690	0.315933789	0.003362774	0.034693124	0.010692758
2020-09-06T18:40:00	0.1463	13.315	211.0	0.311590908	0.314617257	0.003343985	0.034499280	0.010633013
2020-09-06T18:45:00	0.1461	13.286	211.0	0.311332129	0.314107832	0.003336722	0.034424347	0.010609918
2020-09-06T18:50:00	0.1467	13.257	210.0	0.312504948	0.316419995	0.003369720	0.034764781	0.010714843
2020-09-06T18:55:00	0.1458	13.229	210.0	0.310609991	0.312688484	0.003316506	0.034215783	0.010545637
2020-09-06T19:00:00	0.1461	13.200	210.0	0.311169365	0.313787635	0.003332159	0.034377268	0.010595408
2020-09-06T19:05:00	0.1458	13.172	210.0	0.310706023	0.312877043	0.003319190	0.034243472	0.010554171
2020-09-06T19:10:00	0.1454	13.141	210.0	0.309833506	0.311165987	0.003294855	0.033992415	0.010476792
2020-09-06T19:15:00	0.1448	13.111	210.0	0.308551647	0.308660895	0.003259309	0.033625687	0.010363763
2020-09-06T19:20:00	0.1447	13.081	209.0	0.308292745	0.308156191	0.003252159	0.033551923	0.010341028
2020-09-06T19:25:00	0.1446	13.046	209.0	0.308238465	0.308050431	0.003250661	0.033536471	0.010336266
2020-09-06T19:30:00	0.1449	13.021	209.0	0.308798046	0.309141621	0.003266123	0.033695985	0.010385430
2020-09-06T19:35:00	0.1451	12.990	209.0	0.309152982	0.309834773	0.003275954	0.033797411	0.010416690
2020-09-06T19:40:00	0.1444	12.959	209.0	0.307666341	0.306936825	0.003234901	0.033373875	0.010286152
2020-09-06T19:45:00	0.1450	12.930	208.0	0.309044436	0.309622710	0.003272945	0.033766372	0.010407124
2020-09-06T19:50:00	0.1444	12.897	209.0	0.307762417	0.307123687	0.003237544	0.033401144	0.010294557
2020-09-06T19:55:00	0.1448	12.871	209.0	0.308526663	0.308612174	0.003258618	0.033618565	0.010361568
2020-09-06T20:00:00	0.1457	12.841	209.0	0.310313709	0.312107098	0.003308234	0.034130444	0.010519334
2020-09-06T20:05:00	0.1460	12.808	209.0	0.311077649	0.313607281	0.003329589	0.034350758	0.010587237
2020-09-06T20:10:00	0.1460	12.782	209.0	0.311023393	0.313500614	0.003328070	0.034335081	0.010582405
2020-09-06T20:15:00	0.1458	12.756	209.0	0.310560040	0.312590428	0.003315111	0.034201386	0.010541199
2020-09-06T20:20:00	0.1447	12.732	208.0	0.308459893	0.308481982	0.003256774	0.033599534	0.010355703
2020-09-06T20:25:00	0.1453	12.701	208.0	0.309633236	0.310773922	0.003289286	0.033934954	0.010459082
2020-09-06T20:30:00	0.1455	12.678	208.0	0.309988125	0.311468853	0.003299159	0.034036820	0.010490478
2020-09-06T20:35:00	0.1451	12.649	208.0	0.309115510	0.309761557	0.003274915	0.033786694	0.010413387
2020-09-06T20:40:00	0.1437	12.625	207.0	0.306400849	0.304480950	0.003200212	0.033015997	0.010175851
2020-09-06T20:45:00	0.1438	12.599	207.0	0.306551239	0.304772277	0.003204322	0.033058399	0.010188920
2020-09-06T20:50:00	0.1440	12.575	207.0	0.306906302	0.305460646	0.003214039	0.033158646	0.010219817
2020-09-06T20:55:00	0.1436	12.550	207.0	0.306033260	0.303769484	0.003190180	0.032912500	0.010143952
2020-09-06T21:00:00	0.1437	12.523	207.0	0.306388353	0.304456750	0.003199871	0.033012475	0.010174765
2020-09-06T21:05:00	0.1430	12.500	207.0	0.304901053	0.301583454	0.003159406	0.032595009	0.010046098
2020-09-06T21:10:00	0.1422	12.475	207.0	0.303208600	0.298330794	0.003113755	0.032124034	0.009900939
2020-09-06T21:15:00	0.1423	12.451	207.0	0.303359069	0.298619243	0.003117796	0.032165731	0.009913791
2020-09-06T21:20:00	0.1416	12.423	206.0	0.302075866	0.296163927	0.003083435	0.031811232	0.009804531
2020-09-06T21:25:00	0.1412	12.403	207.0	0.301202129	0.294498038	0.003060176	0.031571272	0.009730573
2020-09-06T21:30:00	0.1410	12.376	206.0	0.300738040	0.293615150	0.003047867	0.031444282	0.009691433
2020-09-06T21:35:00	0.1414	12.355	206.0	0.301708016	0.295461987	0.003073629	0.031710067	0.009773351
2020-09-06T21:40:00	0.1418	12.334	206.0	0.302473016	0.296922736	0.003094044	0.031920684	0.009838265
2020-09-06T21:45:00	0.1423	12.308	206.0	0.303442710	0.298779645	0.003120044	0.032188924	0.009920939
2020-09-06T21:50:00	0.1427	12.280	206.0	0.304207490	0.300248338	0.003140647	0.032401481	0.009986451
2020-09-06T21:55:00	0.1427	12.257	206.0	0.304357935	0.300537688	0.003144710	0.032443398	0.009999370
2020-09-06T22:00:00	0.1428	12.236	206.0	0.304508375	0.300827173	0.003148777	0.032485349	0.010012300
2020-09-06T22:05:00	0.1434	12.213	206.0	0.305682460	0.303091306	0.003180625	0.032813922	0.010113569
2020-09-06T22:10:00	0.1429	12.192	206.0	0.304604500	0.301012216	0.003151377	0.032512171	0.010020567
2020-09-06T22:15:00	0.1429	12.167	205.0	0.304754935	0.301301924	0.003155448	0.032554177	0.010033513
2020-09-06T22:20:00	0.1434	12.147	206.0	0.305724265	0.303172084	0.003181763	0.032825660	0.010117187
2020-09-06T22:25:00	0.1439	12.128	205.0	0.306693443	0.305047875	0.003208211	0.033098525	0.010201287
2020-09-06T22:30:00	0.1437	12.103	205.0	0.306229774	0.304149730	0.003195541	0.032967804	0.010160997
2020-09-06T22:35:00	0.1433	12.078	205.0	0.305561357	0.302857365	0.003177331	0.032779934	0.010103094
2020-09-06T22:40:00	0.1431	12.054	204.0	0.305097602	0.301962366	0.003164735	0.032649986	0.010063043
2020-09-06T22:45:00	0.1428	12.038	205.0	0.304429062	0.300674537	0.003146633	0.032463228	0.010005482
2020-09-06T22:50:00	0.1431	12.013	204.0	0.305193718	0.302147749	0.003167343	0.032676891	0.010071335
2020-09-06T22:55:00	0.1440	11.992	205.0	0.306981712	0.305606947	0.003216105	0.033179961	0.010226386
2020-09-06T23:00:00	0.1445	11.973	205.0	0.307950694	0.307490044	0.003242728	0.033454625	0.010311040
2020-09-06T23:05:00	0.1435	11.951	205.0	0.305849678	0.303414481	0.003185177	0.032860888	0.010128045
2020-09-06T23:10:00	0.1440	11.930	204.0	0.307023508	0.305688051	0.003217250	0.033191779	0.010230029
2020-09-06T23:15:00	0.1433	11.911	204.0	0.305536361	0.302809092	0.003176651	0.032772921	0.010100933
2020-09-06T23:20:00	0.1437	11.893	204.0	0.306300880	0.304287377	0.003197482	0.032987830	0.010167169
2020-09-06T23:25:00	0.1438	11.872	204.0	0.306451273	0.304578613	0.003201590	0.033030210	0.010180232
2020-09-06T23:30:00	0.1443	11.855	204.0	0.307624990	0.306856416	0.003233764	0.033362142	0.010282536
2020-09-06T23:35:00	0.1443	11.838	204.0	0.307570704	0.306750874	0.003232271	0.033346744	0.010277790
2020-09-06T23:40:00	0.1448	11.822	204.0	0.308539595	0.308637393	0.003258976	0.033622251	0.010362704
2020-09-06T23:45:00	0.1449	11.803	203.0	0.308689935	0.308930648	0.003263132	0.033665129	0.010375920
2020-09-06T23:50:00	0.1453	11.790	203.0	0.309658655	0.310823671	0.003289992	0.033942244	0.010461329
2020-09-06T23:55:00	0.1456	11.772	203.0	0.310218111	0.311919628	0.003305568	0.034102937	0.010510856
2020-09-07T00:00:00	0.1463	11.753	203.0	0.311595657	0.314626610	0.003344119	0.034500657	0.010633437
2020-09-07T00:05:00	0.1461	11.736	203.0	0.311132345	0.313714832	0.003331121	0.034366566	0.010592109
2020-09-07T00:10:00	0.1456	11.725	203.0	0.310259886	0.312001543	0.003306733	0.034114955	0.010514561
2020-09-07T00:15:00	0.1467	11.712	203.0	0.312455452	0.316322240	0.003368323	0.034750371	0.010710402
2020-09-07T00:20:00	0.1462	11.700	203.0	0.311378646	0.314199372	0.003338027	0.034437809	0.010614067
2020-09-07T00:25:00	0.1454	11.689	202.0	0.309892523	0.311281570	0.003296498	0.034009359	0.010482015
2020-09-07T00:30:00	0.1416	11.680	203.0	0.302059486	0.296132653	0.003082998	0.031806723	0.009803141
2020-09-07T00:35:00	0.1418	11.669	202.0	0.302414810	0.296811464	0.003092488	0.031904628	0.009833316
2020-09-07T00:40:00	0.1419	11.656	203.0	0.302565299	0.297099198	0.003096513	0.031946151	0.009846114
2020-09-07T00:45:00	0.1437	11.649	203.0	0.306401289	0.304481804	0.003200224	0.033016121	0.010175889
2020-09-07T00:50:00	0.1442	11.640	202.0	0.307370362	0.306361528	0.003226766	0.033289954	0.010260287
2020-09-07T00:55:00	0.1437	11.632	203.0	0.306292696	0.304271532	0.003197258	0.032985524	0.010166459
2020-09-07T01:00:00	0.1429	11.625	202.0	0.304600628	0.301004760	0.003151272	0.032511091	0.010020234
2020-09-07T01:05:00	0.1435	11.617	203.0	0.305979401	0.303665312	0.003188712	0.032897353	0.010139284
2020-09-07T01:10:00	0.1431	11.608	202.0	0.305106229	0.301979001	0.003164969	0.032652400	0.010063787
2020-09-07T01:15:00	0.1422	11.603	202.0	0.303209040	0.298331638	0.003113767	0.032124156	0.009900977
2020-09-07T01:20:00	0.1428	11.595	202.0	0.304383375	0.300586632	0.003145398	0.032450490	0.010001556
2020-09-07T01:25:00	0.1435	11.585	202.0	0.305966904	0.303641143	0.003188371	0.032893839	0.010138201
2020-09-07T01:30:00	0.1440	11.576	202.0	0.306936044	0.305518344	0.003214854	0.033167051	0.010222407
2020-09-07T01:35:00	0.1422	11.568	202.0	0.303196538	0.298307677	0.003113431	0.032120693	0.009899909
2020-09-07T01:40:00	0.1424	11.562	202.0	0.303756575	0.299381949	0.003128490	0.032276050	0.009947792
2020-09-07T01:45:00	0.1435	11.555	202.0	0.305954407	0.303616976	0.003188031	0.032890325	0.010137118
2020-09-07T01:50:00	0.1427	11.548	202.0	0.304262246	0.300353634	0.003142126	0.032416733	0.009991152
2020-09-07T01:55:00	0.1438	11.541	202.0	0.306459897	0.304595318	0.003201825	0.033032641	0.010180981
2020-09-07T02:00:00	0.1434	11.535	202.0	0.305791505	0.303302032	0.003183593	0.032844544	0.010123008
2020-09-07T02:05:00	0.1428	11.529	202.0	0.304508816	0.300828021	0.003148789	0.032485472	0.010012338
2020-09-07T02:10:00	0.1437	11.523	202.0	0.306297008	0.304279881	0.003197376	0.032986739	0.010166833
2020-09-07T02:15:00	0.1425	11.515	202.0	0.303785892	0.299438240	0.003129279	0.032284196	0.009950303
2020-09-07T02:20:00	0.1423	11.511	202.0	0.303526791	0.298940935	0.003122305	0.032212249	0.009928128
2020-09-07T02:25:00	0.1423	11.507	202.0	0.303472469	0.298836726	0.003120845	0.032197178	0.009923483
2020-09-07T02:30:00	0.1426	11.503	202.0	0.304032481	0.299911923	0.003135925	0.032352762	0.009971436
2020-09-07T02:35:00	0.1428	11.501	202.0	0.304387689	0.300594931	0.003145514	0.032451693	0.010001927
2020-09-07T02:40:00	0.1418	11.496	202.0	0.302490276	0.296955735	0.003094506	0.031925446	0.009839733
2020-09-07T02:45:00	0.1427	11.494	202.0	0.304279060	0.300385971	0.003142580	0.032421418	0.009992596
2020-09-07T02:50:00	0.1418	11.490	202.0	0.302381613	0.296748009	0.003091601	0.031895473	0.009830495
2020-09-07T02:55:00	0.1429	11.489	202.0	0.304784688	0.301359238	0.003156254	0.032562488	0.010036075
2020-09-07T03:00:00	0.1426	11.486	202.0	0.304116113	0.300072663	0.003138181	0.032376038	0.009978609
2020-09-07T03:05:00	0.1418	11.485	202.0	0.302423440	0.296827960	0.003092719	0.031907008	0.009834050
2020-09-07T03:10:00	0.1416	11.485	202.0	0.301959446	0.295941680	0.003080330	0.031779193	0.009794656
2020-09-07T03:15:00	0.1417	11.486	201.0	0.302314776	0.296620278	0.003089814	0.031877046	0.009824815
2020-09-07T03:20:00	0.1420	11.484	202.0	0.302874896	0.297691593	0.003104803	0.032031681	0.009872475
2020-09-07T03:25:00	0.1420	11.483	201.0	0.302820568	0.297587596	0.003103347	0.032016662	0.009867846
2020-09-07T03:30:00	0.1415	11.483	202.0	0.301742099	0.295526989	0.003074537	0.031719432	0.009776237
2020-09-07T03:35:00	0.1412	11.480	202.0	0.301278051	0.294642601	0.003062193	0.031592077	0.009736985
2020-09-07T03:40:00	0.1412	11.477	202.0	0.301223709	0.294539124	0.003060749	0.031577184	0.009732395
2020-09-07T03:45:00	0.1403	11.473	202.0	0.299325287	0.290935878	0.003010589	0.031059696	0.009572900
2020-09-07T03:50:00	0.1401	11.470	201.0	0.298861049	0.290058201	0.002998403	0.030933971	0.009534150
2020-09-07T03:55:00	0.1405	11.468	202.0	0.299831335	0.291894146	0.003023909	0.031197111	0.009615253
2020-09-07T04:00:00	0.1405	11.466	202.0	0.299776979	0.291791138	0.003022476	0.031182332	0.009610698
2020-09-07T04:05:00	0.1409	11.465	201.0	0.300600244	0.293353268	0.003044218	0.031406639	0.009679831
2020-09-07T04:10:00	0.1411	11.465	202.0	0.301013667	0.294139342	0.003055174	0.031519663	0.009714666
2020-09-07T04:15:00	0.1422	11.460	201.0	0.303270486	0.298449412	0.003115417	0.032141179	0.009906224
2020-09-07T04:20:00	0.1423	11.456	202.0	0.303478940	0.298849139	0.003121019	0.032198974	0.009924036
2020-09-07T04:25:00	0.1423	11.449	201.0	0.303482605	0.298856169	0.003121117	0.032199990	0.009924350
2020-09-07T04:30:00	0.1430	11.444	202.0	0.304919604	0.301619207	0.003159909	0.032600196	0.010047697
2020-09-07T04:35:00	0.1435	11.439	201.0	0.305946872	0.303602404	0.003187825	0.032888207	0.010136465
2020-09-07T04:40:00	0.1439	11.433	201.0	0.306769296	0.305194935	0.003210287	0.033119941	0.010207888
2020-09-07T04:45:00	0.1444	11.425	201.0	0.307796258	0.307189519	0.003238475	0.033410753	0.010297519
2020-09-07T04:50:00	0.1449	11.418	201.0	0.308823052	0.309190428	0.003266815	0.033703124	0.010387630
2020-09-07T04:55:00	0.1449	11.412	201.0	0.308826714	0.309197575	0.003266916	0.033704170	0.010387952
2020-09-07T05:00:00	0.1457	11.406	201.0	0.310467042	0.312407909	0.003312514	0.034174592	0.010532941
2020-09-07T05:05:00	0.1453	11.398	201.0	0.309652422	0.310811472	0.003289819	0.033940456	0.010460778
2020-09-07T05:10:00	0.1452	11.392	201.0	0.309451497	0.310418356	0.003284237	0.033882863	0.010443027
2020-09-07T05:15:00	0.1453	11.383	201.0	0.309659744	0.310825803	0.003290023	0.033942556	0.010461425
2020-09-07T05:20:00	0.1451	11.376	201.0	0.309254227	0.310032638	0.003278761	0.033826377	0.010425618
2020-09-07T05:25:00	0.1456	11.368	201.0	0.310280785	0.312042527	0.003307316	0.034120969	0.010516414
2020-09-07T05:30:00	0.1463	11.358	201.0	0.311716228	0.314864111	0.003347506	0.034535606	0.010644209
2020-09-07T05:35:00	0.1466	11.352	200.0	0.312333412	0.316081277	0.003364881	0.034714857	0.010699456
2020-09-07T05:40:00	0.1467	11.345	201.0	0.312541566	0.316492326	0.003370754	0.034775444	0.010718130
2020-09-07T05:45:00	0.1468	11.336	201.0	0.312749714	0.316903636	0.003376633	0.034836096	0.010736823
2020-09-07T05:50:00	0.1470	11.333	201.0	0.313162332	0.317719793	0.003388306	0.034956526	0.010773941
2020-09-07T05:55:00	0.1471	11.331	200.0	0.313370460	0.318131879	0.003394203	0.035017371	0.010792694
2020-09-07T06:00:00	0.1467	11.330	200.0	0.312556204	0.316521242	0.003371167	0.034779707	0.010719444
2020-09-07T06:05:00	0.1472	11.333	200.0	0.313582241	0.318551477	0.003400211	0.035079353	0.010811797
2020-09-07T06:10:00	0.1472	11.339	200.0	0.313381437	0.318153621	0.003394515	0.035020582	0.010793684
2020-09-07T06:15:00	0.1476	11.347	201.0	0.314202908	0.319782824	0.003417857	0.035261402	0.010867907
2020-09-07T06:20:00	0.1475	11.356	201.0	0.314002123	0.319384219	0.003412142	0.035202445	0.010849735
2020-09-07T06:25:00	0.1474	11.367	201.0	0.313801332	0.318985857	0.003406434	0.035143547	0.010831583
2020-09-07T06:30:00	0.1479	11.379	200.0	0.314827176	0.321023766	0.003435664	0.035445108	0.010924527
2020-09-07T06:35:00	0.1478	11.390	200.0	0.314626410	0.320624408	0.003429931	0.035385962	0.010906297
2020-09-07T06:40:00	0.1482	11.405	201.0	0.315447727	0.322259756	0.003453422	0.035628318	0.010980994
2020-09-07T06:45:00	0.1477	11.420	201.0	0.314429296	0.320232562	0.003424308	0.035327953	0.010888418
2020-09-07T06:50:00	0.1479	11.433	201.0	0.314841809	0.321052883	0.003436082	0.035449421	0.010925856
2020-09-07T06:55:00	0.1486	11.446	201.0	0.316276260	0.323913782	0.003477222	0.035873862	0.011056673
2020-09-07T07:00:00	0.1486	11.454	201.0	0.316279917	0.323921093	0.003477328	0.035874948	0.011057008
2020-09-07T07:05:00	0.1488	11.470	201.0	0.316692316	0.324746002	0.003489213	0.035997567	0.011094800
2020-09-07T07:10:00	0.1485	11.490	201.0	0.316082852	0.323527288	0.003471657	0.035816449	0.011038977
2020-09-07T07:15:00	0.1484	11.505	202.0	0.315882123	0.323126415	0.003465888	0.035756923	0.011020631
2020-09-07T07:20:00	0.1488	11.521	201.0	0.316703288	0.324767963	0.003489529	0.036000832	0.011095806
2020-09-07T07:25:00	0.1487	11.538	201.0	0.316502578	0.324366341	0.003483742	0.035941119	0.011077402
2020-09-07T07:30:00	0.1488	11.555	201.0	0.316710603	0.324782604	0.003489741	0.036003010	0.011096477
2020-09-07T07:35:00	0.1491	11.572	202.0	0.317492285	0.326018088	0.003508777	0.036199407	0.011157009
2020-09-07T07:40:00	0.1500	11.592	202.0	0.320149518	0.329717264	0.003568362	0.036814132	0.011346473
2020-09-07T07:45:00	0.1496	11.610	202.0	0.318976795	0.328082474	0.003541993	0.036542092	0.011262628
2020-09-07T07:50:00	0.1487	11.629	202.0	0.316520865	0.324402922	0.003484269	0.035946557	0.011079078
2020-09-07T07:55:00	0.1484	11.655	202.0	0.315911385	0.323184837	0.003466728	0.035765597	0.011023304
2020-09-07T08:00:00	0.1484	11.676	202.0	0.315915042	0.323192140	0.003466833	0.035766681	0.011023638
2020-09-07T08:05:00	0.1487	11.702	202.0	0.316531836	0.324424872	0.003484585	0.035949820	0.011080084
2020-09-07T08:10:00	0.1490	11.729	202.0	0.317234252	0.325659838	0.003503022	0.036140034	0.011138710
2020-09-07T08:15:00	0.1491	11.769	202.0	0.317534511	0.326076732	0.003509719	0.036209129	0.011160005
2020-09-07T08:20:00	0.1490	11.787	202.0	0.317244811	0.325674494	0.003503258	0.036142463	0.011139458
2020-09-07T08:25:00	0.1493	11.817	202.0	0.318134826	0.326910927	0.003523132	0.036347501	0.011202653
2020-09-07T08:30:00	0.1496	11.849	203.0	0.319024247	0.328148554	0.003543058	0.036553077	0.011266013
2020-09-07T08:35:00	0.1496	11.883	202.0	0.319029519	0.328155897	0.003543176	0.036554297	0.011266389
2020-09-07T08:40:00	0.1496	11.919	203.0	0.319034791	0.328163239	0.003543295	0.036555518	0.011266766
2020-09-07T08:45:00	0.1496	11.960	203.0	0.319040064	0.328170582	0.003543413	0.036556738	0.011267142
2020-09-07T08:50:00	0.1498	11.998	203.0	0.319634431	0.328998794	0.003556766	0.036694501	0.011309602
2020-09-07T08:55:00	0.1490	12.053	204.0	0.317281766	0.325725793	0.003504082	0.036150963	0.011142078
2020-09-07T09:00:00	0.1495	12.104	204.0	0.318761238	0.327782367	0.003537159	0.036492216	0.011247255
2020-09-07T09:05:00	0.1505	12.143	204.0	0.321710007	0.331898060	0.003603626	0.037177947	0.011458604
2020-09-07T09:10:00	0.1505	12.175	204.0	0.321715269	0.331905424	0.003603745	0.037179177	0.011458984
2020-09-07T09:15:00	0.1502	12.211	205.0	0.320838169	0.330678891	0.003583899	0.036974428	0.011395878
2020-09-07T09:20:00	0.1491	12.259	205.0	0.317603127	0.326172033	0.003511251	0.036224929	0.011164875
2020-09-07T09:25:00	0.1496	12.294	205.0	0.319082241	0.328229324	0.003544360	0.036566504	0.011270152
2020-09-07T09:30:00	0.1487	12.326	205.0	0.316594010	0.324549267	0.003486377	0.035968313	0.011085784
2020-09-07T09:35:00	0.1487	12.355	205.0	0.316597668	0.324556585	0.003486483	0.035969401	0.011086119
2020-09-07T09:40:00	0.1493	12.368	205.0	0.318213962	0.327020962	0.003524902	0.036365765	0.011208282
2020-09-07T09:45:00	0.1493	12.379	205.0	0.318219237	0.327028298	0.003525020	0.036366982	0.011208657
2020-09-07T09:50:00	0.1490	12.401	205.0	0.317339837	0.325806410	0.003505376	0.036164322	0.011146195
2020-09-07T09:55:00	0.1489	12.426	205.0	0.317050094	0.325404258	0.003498918	0.036097695	0.011125660
2020-09-07T10:00:00	0.1485	12.460	205.0	0.316207208	0.323775766	0.003475235	0.035853357	0.011050353
2020-09-07T10:05:00	0.1481	12.488	206.0	0.315273883	0.321913254	0.003448441	0.035576933	0.010965156
2020-09-07T10:10:00	0.1481	12.516	206.0	0.315362530	0.322089920	0.003450980	0.035603129	0.010973230
2020-09-07T10:15:00	0.1478	12.556	206.0	0.314633518	0.320638543	0.003430134	0.035388055	0.010906942
2020-09-07T10:20:00	0.1478	12.598	206.0	0.314722174	0.320814868	0.003432664	0.035414167	0.010914990
2020-09-07T10:25:00	0.1472	12.630	206.0	0.313379723	0.318150226	0.003394466	0.035020081	0.010793529
2020-09-07T10:30:00	0.1476	12.655	206.0	0.314286198	0.319948249	0.003420230	0.035285878	0.010875450
2020-09-07T10:35:00	0.1482	12.676	206.0	0.315601357	0.322566126	0.003457827	0.035673768	0.010995002
2020-09-07T10:40:00	0.1482	12.688	207.0	0.315485603	0.322335274	0.003454508	0.035639520	0.010984446
2020-09-07T10:45:00	0.1478	12.718	206.0	0.314756604	0.320883357	0.003433648	0.035424310	0.010918117
2020-09-07T10:50:00	0.1480	12.749	207.0	0.315049676	0.321466654	0.003442024	0.035510730	0.010944752
2020-09-07T10:55:00	0.1483	12.796	207.0	0.315751534	0.322865753	0.003462137	0.035718231	0.011008706
2020-09-07T11:00:00	0.1485	12.831	207.0	0.316044563	0.323450803	0.003470556	0.035805089	0.011035476
2020-09-07T11:05:00	0.1482	12.869	207.0	0.315520028	0.322403921	0.003455495	0.035649703	0.010987585
2020-09-07T11:10:00	0.1484	12.912	207.0	0.316017456	0.323396658	0.003469777	0.035797049	0.011032998
2020-09-07T11:15:00	0.1479	12.955	208.0	0.314879688	0.321128262	0.003437164	0.035460588	0.010929298
2020-09-07T11:20:00	0.1477	12.981	208.0	0.314559494	0.320491357	0.003428021	0.035366263	0.010900226
2020-09-07T11:25:00	0.1478	13.005	208.0	0.314648151	0.320667643	0.003430551	0.035392364	0.010908270
2020-09-07T11:30:00	0.1471	13.036	208.0	0.313305685	0.318003599	0.003392367	0.034998427	0.010786855
2020-09-07T11:35:00	0.1472	13.075	209.0	0.313394359	0.318179216	0.003394881	0.035024362	0.010794849
2020-09-07T11:40:00	0.1470	13.114	208.0	0.313074094	0.317545170	0.003385807	0.034930750	0.010765996
2020-09-07T11:45:00	0.1463	13.150	209.0	0.311731308	0.314893822	0.003347930	0.034539979	0.010645557
2020-09-07T11:50:00	0.1464	13.169	209.0	0.311820003	0.315068601	0.003350424	0.034565705	0.010653486
2020-09-07T11:55:00	0.1462	13.181	209.0	0.311499661	0.314437583	0.003341423	0.034472847	0.010624866
2020-09-07T12:00:00	0.1465	13.194	209.0	0.311997390	0.315418301	0.003355414	0.034617192	0.010669355
2020-09-07T12:05:00	0.1465	13.202	208.0	0.312086082	0.315593222	0.003357911	0.034642954	0.010677295
2020-09-07T12:10:00	0.1460	13.206	209.0	0.310947637	0.313351711	0.003325949	0.034313200	0.010575662
2020-09-07T12:15:00	0.1462	13.209	209.0	0.311445408	0.314330779	0.003339900	0.034457136	0.010620024
2020-09-07T12:20:00	0.1465	13.212	209.0	0.312147649	0.315714676	0.003359646	0.034660844	0.010682809
2020-09-07T12:25:00	0.1459	13.216	210.0	0.310804671	0.313070800	0.003321949	0.034271930	0.010562942
2020-09-07T12:30:00	0.1456	13.225	209.0	0.310279719	0.312040437	0.003307286	0.034120662	0.010516319
2020-09-07T12:35:00	0.1460	13.237	210.0	0.310982086	0.313419419	0.003326913	0.034323149	0.010578728
2020-09-07T12:40:00	0.1453	13.246	210.0	0.309638866	0.310784942	0.003289442	0.033936569	0.010459580
2020-09-07T12:45:00	0.1450	13.256	209.0	0.308909215	0.309358636	0.003269200	0.033727732	0.010395214
2020-09-07T12:50:00	0.1441	13.272	209.0	0.307156243	0.305945690	0.003220890	0.033229327	0.010241601
2020-09-07T12:55:00	0.1439	13.288	209.0	0.306630989	0.304926820	0.003206503	0.033080899	0.010195854
2020-09-07T13:00:00	0.1447	13.305	209.0	0.308356968	0.308281347	0.003253931	0.033570211	0.010346665
2020-09-07T13:05:00	0.1446	13.313	210.0	0.308241084	0.308055534	0.003250733	0.033537216	0.010336496
2020-09-07T13:10:00	0.1451	13.321	210.0	0.309148278	0.309825581	0.003275823	0.033796065	0.010416276
2020-09-07T13:15:00	0.1444	13.325	209.0	0.307804672	0.307205888	0.003238707	0.033413142	0.010298255
2020-09-07T13:20:00	0.1439	13.330	210.0	0.306665462	0.304993636	0.003207446	0.033090627	0.010198853
2020-09-07T13:25:00	0.1439	13.334	210.0	0.306754228	0.305165718	0.003209875	0.033115686	0.010206576
2020-09-07T13:30:00	0.1444	13.338	210.0	0.307661636	0.306927675	0.003234771	0.033372540	0.010285741
2020-09-07T13:35:00	0.1436	13.345	210.0	0.306113016	0.303923780	0.003192355	0.032934939	0.010150868
2020-09-07T13:40:00	0.1430	13.364	210.0	0.304973496	0.301723083	0.003161369	0.032615265	0.010052341
2020-09-07T13:45:00	0.1432	13.388	209.0	0.305267016	0.302289160	0.003169332	0.032697419	0.010077662
2020-09-07T13:50:00	0.1427	13.404	210.0	0.304332099	0.300487989	0.003144013	0.032436198	0.009997151
2020-09-07T13:55:00	0.1434	13.417	210.0	0.305649304	0.303027247	0.003179723	0.032804614	0.010110701
2020-09-07T14:00:00	0.1429	13.425	210.0	0.304714445	0.301223934	0.003154352	0.032542867	0.010030028
2020-09-07T14:05:00	0.1432	13.438	210.0	0.305212710	0.302184384	0.003167858	0.032682209	0.010072974
2020-09-07T14:10:00	0.1427	13.454	210.0	0.304277785	0.300383518	0.003142545	0.032421062	0.009992486
2020-09-07T14:15:00	0.1424	13.470	211.0	0.303752284	0.299373711	0.003128374	0.032274858	0.009947425
2020-09-07T14:20:00	0.1426	13.487	211.0	0.304045863	0.299937640	0.003136286	0.032356486	0.009972583
2020-09-07T14:25:00	0.1419	13.502	211.0	0.302701147	0.297359060	0.003100149	0.031983663	0.009857676
2020-09-07T14:30:00	0.1426	13.509	211.0	0.304018705	0.299885449	0.003135554	0.032348929	0.009970254
2020-09-07T14:35:00	0.1432	13.516	211.0	0.305335976	0.302422234	0.003171205	0.032716739	0.010083617
2020-09-07T14:40:00	0.1431	13.515	211.0	0.305015306	0.301803683	0.003162503	0.032626959	0.010055946
2020-09-07T14:45:00	0.1428	13.520	211.0	0.304489869	0.300791554	0.003148276	0.032480187	0.010010709
2020-09-07T14:50:00	0.1421	13.518	211.0	0.303145251	0.298209398	0.003112054	0.032106489	0.009895532
2020-09-07T14:55:00	0.1424	13.513	211.0	0.303643644	0.299165164	0.003125449	0.032244684	0.009938125
2020-09-07T15:00:00	0.1425	13.511	211.0	0.303937228	0.299728902	0.003133357	0.032326265	0.009963269
2020-09-07T15:05:00	0.1429	13.518	211.0	0.304640306	0.301081158	0.003152345	0.032522166	0.010023648
2020-09-07T15:10:00	0.1431	13.525	211.0	0.305138577	0.302041387	0.003165846	0.032661454	0.010066577
2020-09-07T15:15:00	0.1427	13.521	211.0	0.304203640	0.300240936	0.003140544	0.032400409	0.009986121
2020-09-07T15:20:00	0.1423	13.518	211.0	0.303473350	0.298838416	0.003120868	0.032197423	0.009923558
2020-09-07T15:25:00	0.1421	13.512	211.0	0.302947780	0.297831142	0.003106757	0.032051838	0.009878688
2020-09-07T15:30:00	0.1412	13.507	211.0	0.301193103	0.294480854	0.003059936	0.031568799	0.009729810
2020-09-07T15:35:00	0.1407	13.500	211.0	0.300257552	0.292702497	0.003035156	0.031313146	0.009651016
2020-09-07T15:40:00	0.1403	13.492	211.0	0.299321852	0.290929378	0.003010499	0.031058764	0.009572613
2020-09-07T15:45:00	0.1400	13.487	211.0	0.298795913	0.289935166	0.002996696	0.030916357	0.009528721
2020-09-07T15:50:00	0.1402	13.482	211.0	0.299089737	0.290490384	0.003004402	0.030995864	0.009553226
2020-09-07T15:55:00	0.1401	13.475	211.0	0.298973677	0.290271007	0.003001357	0.030964443	0.009543542
2020-09-07T16:00:00	0.1396	13.468	211.0	0.297832791	0.288119042	0.002971522	0.030656644	0.009448676
2020-09-07T16:05:00	0.1394	13.458	211.0	0.297602450	0.287685565	0.002965521	0.030594737	0.009429595
2020-09-07T16:10:00	0.1390	13.447	211.0	0.296757070	0.286097510	0.002943564	0.030368204	0.009359775
2020-09-07T16:15:00	0.1390	13.437	210.0	0.296731712	0.286049945	0.002942907	0.030361425	0.009357686
2020-09-07T16:20:00	0.1387	13.427	211.0	0.296091251	0.284849937	0.002926342	0.030190536	0.009305016
2020-09-07T16:25:00	0.1389	13.415	211.0	0.296475968	0.285570457	0.002936285	0.030293114	0.009336632
2020-09-07T16:30:00	0.1385	13.400	211.0	0.295630420	0.283988094	0.002914461	0.030067953	0.009267235
2020-09-07T16:35:00	0.1387	13.385	211.0	0.296015168	0.284707555	0.002924379	0.030170276	0.009298772
2020-09-07T16:40:00	0.1385	13.371	211.0	0.295579694	0.283893309	0.002913155	0.030054479	0.009263082
2020-09-07T16:45:00	0.1386	13.355	210.0	0.295964446	0.284612653	0.002923070	0.030156774	0.009294611
2020-09-07T16:50:00	0.1389	13.338	210.0	0.296554204	0.285717096	0.002938310	0.030314001	0.009343070
2020-09-07T16:55:00	0.1390	13.320	210.0	0.296733871	0.286053996	0.002942963	0.030362003	0.009357864
2020-09-07T17:00:00	0.1392	13.300	210.0	0.297118545	0.286775993	0.002952940	0.030464937	0.009389589
2020-09-07T17:05:00	0.1392	13.278	210.0	0.297093189	0.286728373	0.002952282	0.030458145	0.009387496
2020-09-07T17:10:00	0.1393	13.258	210.0	0.297272839	0.287065852	0.002956948	0.030506286	0.009402334
2020-09-07T17:15:00	0.1395	13.235	210.0	0.297657476	0.287789088	0.002966954	0.030609519	0.009434151
2020-09-07T17:20:00	0.1393	13.212	210.0	0.297222128	0.286970569	0.002955630	0.030492692	0.009398144
2020-09-07T17:25:00	0.1393	13.189	210.0	0.297401774	0.287308185	0.002960300	0.030540866	0.009412992
2020-09-07T17:30:00	0.1399	13.166	210.0	0.298606282	0.289577124	0.002991729	0.030865112	0.009512927
2020-09-07T17:35:00	0.1405	13.141	209.0	0.299810539	0.291854735	0.003023361	0.031191456	0.009613510
2020-09-07T17:40:00	0.1404	13.119	209.0	0.299580278	0.291418534	0.003017296	0.031128889	0.009594226
2020-09-07T17:45:00	0.1404	13.087	209.0	0.299554932	0.291370541	0.003016629	0.031122007	0.009592105
2020-09-07T17:50:00	0.1405	13.062	209.0	0.299734506	0.291710663	0.003021357	0.031170788	0.009607140
2020-09-07T17:55:00	0.1412	13.037	209.0	0.301143401	0.294386237	0.003058617	0.031555184	0.009725614
2020-09-07T18:00:00	0.1421	13.014	209.0	0.302961582	0.297857572	0.003107127	0.032055656	0.009879864
2020-09-07T18:05:00	0.1426	12.989	209.0	0.304164956	0.300166558	0.003139499	0.032389636	0.009982800
2020-09-07T18:10:00	0.1424	12.960	209.0	0.303730088	0.299331096	0.003127776	0.032268692	0.009945524
2020-09-07T18:15:00	0.1432	12.935	209.0	0.305342770	0.302435347	0.003171390	0.032718643	0.010084204
2020-09-07T18:20:00	0.1438	12.901	209.0	0.306545676	0.304761496	0.003204170	0.033056830	0.010188436
2020-09-07T18:25:00	0.1445	12.878	209.0	0.307952989	0.307494510	0.003242791	0.033455277	0.010311241
2020-09-07T18:30:00	0.1449	12.856	209.0	0.308746181	0.309040399	0.003264688	0.033681180	0.010380867
2020-09-07T18:35:00	0.1457	12.830	209.0	0.310357568	0.312193127	0.003309458	0.034143068	0.010523225
2020-09-07T18:40:00	0.1458	12.798	208.0	0.310536826	0.312544862	0.003314462	0.034194696	0.010539137
2020-09-07T18:45:00	0.1460	12.770	208.0	0.311125164	0.313700709	0.003330920	0.034364490	0.010591470
2020-09-07T18:50:00	0.1470	12.748	209.0	0.313144916	0.317685323	0.003387813	0.034951437	0.010772372
2020-09-07T18:55:00	0.1470	12.715	208.0	0.313119626	0.317635271	0.003387096	0.034944049	0.010770095
2020-09-07T19:00:00	0.1468	12.694	208.0	0.312685374	0.316776467	0.003374815	0.034817341	0.010731043
2020-09-07T19:05:00	0.1469	12.674	208.0	0.312864567	0.317130706	0.003379879	0.034869592	0.010747147
2020-09-07T19:10:00	0.1474	12.649	207.0	0.313861610	0.319105418	0.003408147	0.035161222	0.010837030
2020-09-07T19:15:00	0.1472	12.628	208.0	0.313427406	0.318244678	0.003395818	0.035034031	0.010797829
2020-09-07T19:20:00	0.1471	12.595	207.0	0.313197649	0.317789701	0.003389306	0.034966846	0.010777122
2020-09-07T19:25:00	0.1475	12.572	207.0	0.314194642	0.319766408	0.003417622	0.035258974	0.010867158
2020-09-07T19:30:00	0.1474	12.553	207.0	0.313964911	0.319310372	0.003411084	0.035191524	0.010846370
2020-09-07T19:35:00	0.1473	12.527	207.0	0.313735173	0.318854654	0.003404554	0.035124154	0.010825606
2020-09-07T19:40:00	0.1472	12.503	207.0	0.313505426	0.318399252	0.003398031	0.035056864	0.010804866
2020-09-07T19:45:00	0.1471	12.471	207.0	0.313275672	0.317944168	0.003391517	0.034989652	0.010784151
2020-09-07T19:50:00	0.1470	12.444	207.0	0.313045909	0.317489401	0.003385010	0.034922519	0.010763460
2020-09-07T19:55:00	0.1470	12.423	207.0	0.313020619	0.317439364	0.003384294	0.034915135	0.010761184
2020-09-07T20:00:00	0.1473	12.394	206.0	0.313608733	0.318603985	0.003400963	0.035087111	0.010814188
2020-09-07T20:05:00	0.1476	12.379	206.0	0.314196795	0.319770685	0.003417683	0.035259606	0.010867353
2020-09-07T20:10:00	0.1478	12.345	206.0	0.314784805	0.320939462	0.003434453	0.035432620	0.010920678
2020-09-07T20:15:00	0.1476	12.319	206.0	0.314350662	0.320076313	0.003422066	0.035304828	0.010881291
2020-09-07T20:20:00	0.1477	12.298	206.0	0.314529810	0.320432345	0.003427174	0.035357526	0.010897533
2020-09-07T20:25:00	0.1470	12.274	206.0	0.313073353	0.317543703	0.003385786	0.034930534	0.010765930
2020-09-07T20:30:00	0.1465	12.244	206.0	0.312025603	0.315473938	0.003356209	0.034625386	0.010671880
2020-09-07T20:35:00	0.1467	12.217	206.0	0.312409314	0.316231131	0.003367022	0.034736942	0.010706263
2020-09-07T20:40:00	0.1473	12.190	206.0	0.313610887	0.318608254	0.003401024	0.035087742	0.010814383
2020-09-07T20:45:00	0.1475	12.164	206.0	0.313994505	0.319369100	0.003411926	0.035200209	0.010849046
2020-09-07T20:50:00	0.1474	12.134	206.0	0.313969218	0.319318919	0.003411206	0.035192788	0.010846759
2020-09-07T20:55:00	0.1479	12.114	206.0	0.314966095	0.321300248	0.003439634	0.035486070	0.010937152
2020-09-07T21:00:00	0.1472	12.091	205.0	0.313509734	0.318407787	0.003398154	0.035058124	0.010805254
2020-09-07T21:05:00	0.1471	12.057	205.0	0.313279979	0.317952697	0.003391639	0.034990911	0.010784539
2020-09-07T21:10:00	0.1469	12.034	205.0	0.312845738	0.317093474	0.003379347	0.034864099	0.010745454
2020-09-07T21:15:00	0.1468	12.019	205.0	0.312615960	0.316639300	0.003372854	0.034797114	0.010724809
2020-09-07T21:20:00	0.1475	11.987	205.0	0.314021945	0.319423559	0.003412706	0.035208262	0.010851528
2020-09-07T21:25:00	0.1477	11.969	204.0	0.314405539	0.320185352	0.003423631	0.035320965	0.010886265
2020-09-07T21:30:00	0.1475	11.994	204.0	0.314175816	0.319729025	0.003417086	0.035253443	0.010865454
2020-09-07T21:35:00	0.1480	11.968	204.0	0.315172662	0.321711592	0.003445543	0.035547035	0.010955941
2020-09-07T21:40:00	0.1473	11.945	204.0	0.313716346	0.318817323	0.003404019	0.035118637	0.010823905
2020-09-07T21:45:00	0.1478	11.920	204.0	0.314713260	0.320797137	0.003432410	0.035411541	0.010914181
2020-09-07T21:50:00	0.1479	11.902	204.0	0.314892399	0.321153560	0.003437527	0.035464336	0.010930453
2020-09-07T21:55:00	0.1475	11.873	204.0	0.314049385	0.319478022	0.003413487	0.035216317	0.010854011
2020-09-07T22:00:00	0.1465	11.862	204.0	0.311979323	0.315382674	0.003354906	0.034611946	0.010667738
2020-09-07T22:05:00	0.1463	11.833	204.0	0.311687944	0.314808390	0.003346711	0.034527406	0.010641682
2020-09-07T22:10:00	0.1469	11.815	204.0	0.312828090	0.317058579	0.003378848	0.034858951	0.010743867
2020-09-07T22:15:00	0.1472	11.786	204.0	0.313559129	0.318505672	0.003399555	0.035072586	0.010809711
2020-09-07T22:20:00	0.1478	11.773	204.0	0.314698951	0.320768675	0.003432001	0.035407326	0.010912882
2020-09-07T22:25:00	0.1484	11.751	203.0	0.315838579	0.323039486	0.003464637	0.035744018	0.011016654
2020-09-07T22:30:00	0.1483	11.731	204.0	0.315751766	0.322866215	0.003462144	0.035718299	0.011008727
2020-09-07T22:35:00	0.1483	11.711	203.0	0.315664952	0.322692990	0.003459652	0.035692592	0.011000803
2020-09-07T22:40:00	0.1487	11.686	203.0	0.316600052	0.324561355	0.003486552	0.035970111	0.011086337
2020-09-07T22:45:00	0.1489	11.675	203.0	0.316921977	0.325205850	0.003495843	0.036065966	0.011115881
2020-09-07T22:50:00	0.1489	11.653	203.0	0.317076829	0.325441356	0.003499514	0.036103840	0.011127554
2020-09-07T22:55:00	0.1492	11.643	203.0	0.317836439	0.326496175	0.003516461	0.036278685	0.011181443
2020-09-07T23:00:00	0.1492	11.621	203.0	0.317711187	0.326322144	0.003513664	0.036249821	0.011172547
2020-09-07T23:05:00	0.1493	11.605	203.0	0.318175663	0.326967708	0.003524045	0.036356925	0.011205557
2020-09-07T23:10:00	0.1485	11.589	203.0	0.316079218	0.323520028	0.003471553	0.035815370	0.011038645
2020-09-07T23:15:00	0.1483	11.569	203.0	0.315788019	0.322938567	0.003463185	0.035729038	0.011012037
2020-09-07T23:20:00	0.1486	11.555	203.0	0.316314362	0.323989951	0.003478319	0.035885180	0.011060161
2020-09-07T23:25:00	0.1487	11.537	203.0	0.316636300	0.324633892	0.003487597	0.035980896	0.011089662
2020-09-07T23:30:00	0.1482	11.524	202.0	0.315527576	0.322418971	0.003455711	0.035651936	0.010988273
2020-09-07T23:35:00	0.1474	11.507	202.0	0.313805339	0.318993802	0.003406547	0.035144722	0.010831945
2020-09-07T23:40:00	0.1470	11.490	202.0	0.313105105	0.317606535	0.003386685	0.034939807	0.010768788
2020-09-07T23:45:00	0.1478	11.471	202.0	0.314653871	0.320679017	0.003430714	0.035394048	0.010908789
2020-09-07T23:50:00	0.1477	11.460	202.0	0.314567043	0.320506365	0.003428237	0.035368484	0.010900910
2020-09-07T23:55:00	0.1477	11.444	202.0	0.314480213	0.320333758	0.003425760	0.035342932	0.010893035
2020-09-08T00:00:00	0.1478	11.430	202.0	0.314802240	0.320974149	0.003434951	0.035437759	0.010922261
2020-09-08T00:05:00	0.1480	11.412	202.0	0.315124250	0.321615164	0.003444158	0.035532741	0.010951536
2020-09-08T00:10:00	0.1476	11.399	202.0	0.314219719	0.319816209	0.003418336	0.035266341	0.010869429
2020-09-08T00:15:00	0.1467	11.385	202.0	0.312497143	0.316404578	0.003369500	0.034762508	0.010714143
2020-09-08T00:20:00	0.1463	11.373	202.0	0.311592251	0.314619903	0.003344023	0.034499670	0.010633133
2020-09-08T00:25:00	0.1465	11.363	202.0	0.312118927	0.315658013	0.003358836	0.034652497	0.010680236
2020-09-08T00:30:00	0.1468	11.346	202.0	0.312645560	0.316697788	0.003373690	0.034805738	0.010727467
2020-09-08T00:35:00	0.1458	11.333	202.0	0.310718024	0.312900611	0.003319526	0.034246933	0.010555237
2020-09-08T00:40:00	0.1465	11.322	202.0	0.312062849	0.315547397	0.003357257	0.034636204	0.010675215
2020-09-08T00:45:00	0.1463	11.316	201.0	0.311566955	0.314570088	0.003343313	0.034492340	0.010630874
2020-09-08T00:50:00	0.1465	11.300	201.0	0.312093633	0.315608117	0.003358124	0.034645148	0.010677971
2020-09-08T00:55:00	0.1463	11.289	201.0	0.311597741	0.314630716	0.003344177	0.034501261	0.010633624
2020-09-08T01:00:00	0.1465	11.276	201.0	0.312124417	0.315668842	0.003358991	0.034654092	0.010680728
2020-09-08T01:05:00	0.1461	11.267	201.0	0.311219473	0.313886193	0.003333563	0.034391757	0.010599874
2020-09-08T01:10:00	0.1465	11.253	201.0	0.311950693	0.315326223	0.003354100	0.034603634	0.010665176
2020-09-08T01:15:00	0.1456	11.238	201.0	0.310227518	0.311938073	0.003305830	0.034105643	0.010511690
2020-09-08T01:20:00	0.1461	11.213	201.0	0.311163388	0.313775880	0.003331991	0.034375540	0.010594875
2020-09-08T01:25:00	0.1448	11.201	201.0	0.308621591	0.308797317	0.003261242	0.033645633	0.010369911
2020-09-08T01:30:00	0.1449	11.194	200.0	0.308739298	0.309026968	0.003264497	0.033679216	0.010380261
2020-09-08T01:35:00	0.1447	11.174	201.0	0.308447772	0.308458351	0.003256439	0.033596080	0.010354638
2020-09-08T01:40:00	0.1448	11.167	200.0	0.308565483	0.308687879	0.003259691	0.033629632	0.010364979
2020-09-08T01:45:00	0.1450	11.155	200.0	0.308887802	0.309316828	0.003268607	0.033721615	0.010393329
2020-09-08T01:50:00	0.1453	11.143	200.0	0.309619286	0.310746623	0.003288898	0.033930954	0.010457849
2020-09-08T01:55:00	0.1452	11.128	200.0	0.309327801	0.310176468	0.003280803	0.033847437	0.010432109
2020-09-08T02:00:00	0.1458	11.119	200.0	0.310672916	0.312812031	0.003318265	0.034233925	0.010551228
2020-09-08T02:05:00	0.1457	11.108	200.0	0.310381479	0.312240032	0.003310125	0.034149952	0.010525347
2020-09-08T02:10:00	0.1450	11.088	200.0	0.309067101	0.309666982	0.003273573	0.033772852	0.010409121
2020-09-08T02:15:00	0.1456	11.074	200.0	0.310207708	0.311899231	0.003305278	0.034099945	0.010509934
2020-09-08T02:20:00	0.1455	11.059	200.0	0.309916250	0.311328046	0.003297158	0.034016173	0.010484115
2020-09-08T02:25:00	0.1449	11.042	200.0	0.308806389	0.309157904	0.003266353	0.033698367	0.010386164
2020-09-08T02:30:00	0.1454	11.037	199.0	0.309742467	0.310987730	0.003292323	0.033966286	0.010468739
2020-09-08T02:35:00	0.1461	11.025	200.0	0.311292029	0.314028930	0.003335597	0.034412744	0.010606342
2020-09-08T02:40:00	0.1468	11.012	200.0	0.312636736	0.316680351	0.003373441	0.034803167	0.010726674
2020-09-08T02:45:00	0.1472	11.011	200.0	0.313572260	0.318531695	0.003399928	0.035076430	0.010810896
2020-09-08T02:50:00	0.1468	11.002	199.0	0.312667517	0.316741177	0.003374310	0.034812137	0.010729439
2020-09-08T02:55:00	0.1475	10.989	200.0	0.314011942	0.319403705	0.003412422	0.035205326	0.010850623
2020-09-08T03:00:00	0.1472	10.980	199.0	0.313516195	0.318420590	0.003398337	0.035060016	0.010805837
2020-09-08T03:05:00	0.1466	10.970	199.0	0.312202452	0.315822806	0.003361190	0.034676773	0.010687718
2020-09-08T03:10:00	0.1459	10.960	199.0	0.310888445	0.313235389	0.003324292	0.034296109	0.010570394
2020-09-08T03:15:00	0.1459	10.950	199.0	0.310801567	0.313064702	0.003321862	0.034271035	0.010562666
2020-09-08T03:20:00	0.1462	10.938	199.0	0.311532833	0.314502897	0.003342354	0.034482455	0.010627828
2020-09-08T03:25:00	0.1462	10.929	199.0	0.311445964	0.314331873	0.003339916	0.034457297	0.010620074
2020-09-08T03:30:00	0.1467	10.920	199.0	0.312381658	0.316176526	0.003366242	0.034728894	0.010703782
2020-09-08T03:35:00	0.1467	10.911	199.0	0.312499297	0.316408833	0.003369561	0.034763135	0.010714336
2020-09-08T03:40:00	0.1466	10.901	199.0	0.312207941	0.315833638	0.003361344	0.034678369	0.010688210
2020-09-08T03:45:00	0.1464	10.894	199.0	0.311916573	0.315258954	0.003353140	0.034593729	0.010662123
2020-09-08T03:50:00	0.1462	10.886	199.0	0.311420668	0.314282080	0.003339206	0.034449973	0.010617816
2020-09-08T03:55:00	0.1461	10.881	199.0	0.311129264	0.313708773	0.003331035	0.034365675	0.010591835
2020-09-08T04:00:00	0.1462	10.875	199.0	0.311451454	0.314342681	0.003340070	0.034458887	0.010620563
2020-09-08T04:05:00	0.1452	10.871	198.0	0.309404039	0.310325541	0.003282919	0.033869269	0.010438838
2020-09-08T04:10:00	0.1456	10.865	199.0	0.310220521	0.311924353	0.003305635	0.034103630	0.010511070
2020-09-08T04:15:00	0.1461	10.859	199.0	0.311241435	0.313929394	0.003334179	0.034398109	0.010601831
2020-09-08T04:20:00	0.1461	10.855	199.0	0.311239605	0.313925794	0.003334128	0.034397579	0.010601668
2020-09-08T04:25:00	0.1467	10.851	198.0	0.312464855	0.316340811	0.003368589	0.034753108	0.010711245
2020-09-08T04:30:00	0.1465	10.844	198.0	0.312054024	0.315529991	0.003357009	0.034633641	0.010674424
2020-09-08T04:35:00	0.1465	10.838	198.0	0.312052194	0.315526382	0.003356957	0.034633109	0.010674261
2020-09-08T04:40:00	0.1468	10.834	198.0	0.312663857	0.316733945	0.003374207	0.034811070	0.010729110
2020-09-08T04:45:00	0.1483	10.830	199.0	0.315728639	0.322820064	0.003461480	0.035711450	0.011006616
2020-09-08T04:50:00	0.1482	10.828	198.0	0.315522413	0.322408676	0.003455563	0.035650408	0.010987802
2020-09-08T04:55:00	0.1494	10.823	198.0	0.318423899	0.327312949	0.003529601	0.036414242	0.011223223
2020-09-08T05:00:00	0.1501	10.820	198.0	0.320482921	0.330182674	0.003575879	0.036891687	0.011370376
2020-09-08T05:05:00	0.1499	10.816	198.0	0.319891566	0.329357374	0.003562552	0.036754193	0.011327999
2020-09-08T05:10:00	0.1498	10.814	198.0	0.319594472	0.328943086	0.003555868	0.036685230	0.011306744
2020-09-08T05:15:00	0.1496	10.809	198.0	0.319002723	0.328118581	0.003542575	0.036548094	0.011264477
2020-09-08T05:20:00	0.1489	10.804	198.0	0.316942091	0.325246140	0.003496424	0.036071960	0.011117728
2020-09-08T05:25:00	0.1495	10.801	198.0	0.318702795	0.327701022	0.003535849	0.036478700	0.011243090
2020-09-08T05:30:00	0.1501	10.799	198.0	0.320467121	0.330160612	0.003575523	0.036888010	0.011369243
2020-09-08T05:35:00	0.1521	10.801	198.0	0.326337618	0.338401882	0.003709393	0.038269123	0.011794915
2020-09-08T05:40:00	0.1522	10.802	198.0	0.326627982	0.338811805	0.003716089	0.038338205	0.011816207
2020-09-08T05:45:00	0.1532	10.803	198.0	0.329551749	0.342951541	0.003783907	0.039037873	0.012031852
2020-09-08T05:50:00	0.1539	10.804	198.0	0.331593868	0.345856030	0.003831701	0.039530957	0.012183825
2020-09-08T05:55:00	0.1547	10.808	198.0	0.333924357	0.349183829	0.003886674	0.040098104	0.012358625
2020-09-08T06:00:00	0.1546	10.809	198.0	0.333630329	0.348763200	0.003879713	0.040026288	0.012336491
2020-09-08T06:05:00	0.1548	10.812	198.0	0.334210501	0.349593395	0.003893456	0.040168066	0.012380188
2020-09-08T06:10:00	0.1553	10.819	198.0	0.335663768	0.351676765	0.003928004	0.040524497	0.012490043
2020-09-08T06:15:00	0.1558	10.826	198.0	0.337115500	0.353763402	0.003962695	0.040882398	0.012600352
2020-09-08T06:20:00	0.1560	10.834	198.0	0.337694206	0.354596724	0.003976574	0.041025584	0.012644483
2020-09-08T06:25:00	0.1558	10.843	198.0	0.337110298	0.353755914	0.003962571	0.040881112	0.012599956
2020-09-08T06:30:00	0.1558	10.855	198.0	0.337107697	0.353752170	0.003962508	0.040880469	0.012599758
2020-09-08T06:35:00	0.1559	10.872	198.0	0.337395781	0.354166890	0.003969414	0.040951709	0.012621715
2020-09-08T06:40:00	0.1557	10.886	198.0	0.336811747	0.353326351	0.003955422	0.040807359	0.012577225
2020-09-08T06:45:00	0.1551	10.898	199.0	0.335063368	0.350815382	0.003913709	0.040377018	0.012444589
2020-09-08T06:50:00	0.1550	10.911	198.0	0.334769584	0.350394235	0.003906726	0.040304969	0.012422383
2020-09-08T06:55:00	0.1559	10.929	199.0	0.337385378	0.354151911	0.003969164	0.040949136	0.012620921
2020-09-08T07:00:00	0.1564	10.947	199.0	0.338835301	0.356242423	0.004004024	0.041308781	0.012731768
2020-09-08T07:05:00	0.1566	10.966	199.0	0.339413287	0.357077291	0.004017971	0.041452663	0.012776113
2020-09-08T07:10:00	0.1571	10.987	199.0	0.340861089	0.359172375	0.004053030	0.041814367	0.012887594
2020-09-08T07:15:00	0.1582	11.011	199.0	0.344044063	0.363797586	0.004130740	0.042616080	0.013134690
2020-09-08T07:20:00	0.1589	11.036	199.0	0.346064881	0.366747778	0.004180528	0.043129738	0.013293004
2020-09-08T07:25:00	0.1591	11.059	199.0	0.346639877	0.367589165	0.004194759	0.043276556	0.013338255
2020-09-08T07:30:00	0.1592	11.081	199.0	0.346925996	0.368008162	0.004201851	0.043349723	0.013360806
2020-09-08T07:35:00	0.1599	11.102	199.0	0.348942672	0.370967500	0.004252039	0.043867501	0.013520390
2020-09-08T07:40:00	0.1600	11.123	199.0	0.349228322	0.371387535	0.004259176	0.043941135	0.013543085
2020-09-08T07:45:00	0.1600	11.146	199.0	0.349225744	0.371383742	0.004259112	0.043940470	0.013542880
2020-09-08T07:50:00	0.1607	11.172	200.0	0.351239136	0.374350391	0.004309619	0.044461544	0.013703480
2020-09-08T07:55:00	0.1611	11.201	200.0	0.352387259	0.376046866	0.004338578	0.044760310	0.013795562
2020-09-08T08:00:00	0.1613	11.230	200.0	0.352959686	0.376893983	0.004353059	0.044909710	0.013841609
2020-09-08T08:05:00	0.1607	11.258	201.0	0.351231411	0.374338987	0.004309424	0.044459537	0.013702861
2020-09-08T08:10:00	0.1607	11.289	200.0	0.351228836	0.374335186	0.004309360	0.044458869	0.013702655
2020-09-08T08:15:00	0.1606	11.323	200.0	0.350938438	0.373906649	0.004302053	0.044383491	0.013679423
2020-09-08T08:20:00	0.1609	11.358	200.0	0.351799157	0.375177448	0.004323730	0.044607125	0.013748349
2020-09-08T08:25:00	0.1602	11.396	200.0	0.349781406	0.372201424	0.004273016	0.044083915	0.013587091
2020-09-08T08:30:00	0.1596	11.435	201.0	0.348049240	0.369655134	0.004229761	0.043637666	0.013449552
2020-09-08T08:35:00	0.1600	11.479	201.0	0.349199956	0.371345813	0.004258467	0.043933820	0.013540830
2020-09-08T08:40:00	0.1601	11.524	201.0	0.349485554	0.371765964	0.004265609	0.044007506	0.013563541
2020-09-08T08:45:00	0.1603	11.564	201.0	0.350059155	0.372610449	0.004279976	0.044155720	0.013609222
2020-09-08T08:50:00	0.1602	11.610	201.0	0.349768517	0.372182449	0.004272693	0.044080585	0.013586064
2020-09-08T08:55:00	0.1605	11.661	202.0	0.350629948	0.373451654	0.004294300	0.044303500	0.013654769
2020-09-08T09:00:00	0.1592	11.719	202.0	0.346879501	0.367940061	0.004200698	0.043337828	0.013357140
2020-09-08T09:05:00	0.1590	11.786	202.0	0.346299435	0.367090894	0.004186330	0.043189593	0.013311452
2020-09-08T09:10:00	0.1590	11.848	202.0	0.346296851	0.367087113	0.004186266	0.043188933	0.013311249
2020-09-08T09:15:00	0.1590	11.902	203.0	0.346294267	0.367083332	0.004186202	0.043188274	0.013311045
2020-09-08T09:20:00	0.1577	11.958	203.0	0.342532204	0.361597395	0.004093721	0.042234162	0.013016979
2020-09-08T09:25:00	0.1583	12.008	203.0	0.344555207	0.364542797	0.004143300	0.042745662	0.013174628
2020-09-08T09:30:00	0.1571	12.056	203.0	0.341078362	0.359487257	0.004058307	0.041868807	0.012904373
2020-09-08T09:35:00	0.1576	12.106	204.0	0.342524431	0.361586098	0.004093531	0.042232203	0.013016375
2020-09-08T09:40:00	0.1562	12.152	204.0	0.338461762	0.355703329	0.003995026	0.041215950	0.012703156
2020-09-08T09:45:00	0.1558	12.198	204.0	0.337296950	0.354024591	0.003967044	0.040927261	0.012614179
2020-09-08T09:50:00	0.1562	12.245	205.0	0.338456565	0.355695831	0.003994901	0.041214659	0.012702758
2020-09-08T09:55:00	0.1559	12.289	205.0	0.337582394	0.354435650	0.003973891	0.040997896	0.012635950
2020-09-08T10:00:00	0.1555	12.334	205.0	0.336416839	0.352758504	0.003945978	0.040709924	0.012547194
2020-09-08T10:05:00	0.1550	12.370	204.0	0.334876709	0.350547777	0.003909271	0.040331232	0.012430477
2020-09-08T10:10:00	0.1545	12.405	205.0	0.333334851	0.348340722	0.003872725	0.039954194	0.012314271
2020-09-08T10:15:00	0.1543	12.448	205.0	0.332666505	0.347385948	0.003856946	0.039791405	0.012264098
2020-09-08T10:20:00	0.1538	12.490	206.0	0.331414109	0.345599928	0.003827480	0.039487407	0.012170402
2020-09-08T10:25:00	0.1526	12.533	206.0	0.327821007	0.340498340	0.003743675	0.038622807	0.011903924
2020-09-08T10:30:00	0.1538	12.579	206.0	0.331243553	0.345357015	0.003823478	0.039446113	0.012157675
2020-09-08T10:35:00	0.1532	12.626	206.0	0.329697589	0.343158610	0.003787309	0.039072967	0.012042668
2020-09-08T10:40:00	0.1520	12.676	206.0	0.326099937	0.338066497	0.003703917	0.038212629	0.011777503
2020-09-08T10:45:00	0.1522	12.722	207.0	0.326600375	0.338772822	0.003715452	0.038331633	0.011814182
2020-09-08T10:50:00	0.1531	12.758	207.0	0.329149045	0.342380048	0.003774524	0.038941065	0.012002014
2020-09-08T10:55:00	0.1530	12.799	206.0	0.329063628	0.342258883	0.003772535	0.038920549	0.011995691
2020-09-08T11:00:00	0.1525	12.847	207.0	0.327515182	0.340065657	0.003736592	0.038549733	0.011881402
2020-09-08T11:05:00	0.1523	12.901	207.0	0.326843973	0.339116872	0.003721074	0.038389639	0.011832060
2020-09-08T11:10:00	0.1517	12.959	207.0	0.325292985	0.336928910	0.003685361	0.038021191	0.011718500
2020-09-08T11:15:00	0.1510	13.019	208.0	0.323152920	0.333920090	0.003636413	0.037516207	0.011562859
2020-09-08T11:20:00	0.1517	13.063	208.0	0.325121658	0.336687600	0.003681428	0.037980619	0.011705996
2020-09-08T11:25:00	0.1524	13.104	209.0	0.327380350	0.339874972	0.003733472	0.038517542	0.011871481
2020-09-08T11:30:00	0.1511	13.147	209.0	0.323482917	0.334383282	0.003643936	0.037593818	0.011586780
2020-09-08T11:35:00	0.1507	13.193	209.0	0.322222000	0.332614931	0.003615240	0.037297768	0.011495534
2020-09-08T11:40:00	0.1513	13.231	209.0	0.323898583	0.334967119	0.003653425	0.037691711	0.011616951
2020-09-08T11:45:00	0.1508	13.273	210.0	0.322638055	0.333197970	0.003624694	0.037395303	0.011525595
2020-09-08T11:50:00	0.1499	13.309	209.0	0.319905038	0.329376166	0.003562855	0.036757323	0.011328964
2020-09-08T11:55:00	0.1494	13.342	209.0	0.318346011	0.327204607	0.003527857	0.036396252	0.011217678
2020-09-08T12:00:00	0.1493	13.375	210.0	0.318259905	0.327084852	0.003525930	0.036376370	0.011211551
2020-09-08T12:05:00	0.1486	13.405	210.0	0.316369107	0.324099406	0.003479896	0.035901445	0.011065174
2020-09-08T12:10:00	0.1492	13.434	210.0	0.317792819	0.326435563	0.003515487	0.036268631	0.011178344
2020-09-08T12:15:00	0.1480	13.462	210.0	0.315023329	0.321414192	0.003441271	0.035502955	0.010942356
2020-09-08T12:20:00	0.1480	13.486	210.0	0.315168031	0.321702368	0.003445411	0.035545668	0.010955520
2020-09-08T12:25:00	0.1479	13.505	210.0	0.314903906	0.321176462	0.003437856	0.035467729	0.010931499
2020-09-08T12:30:00	0.1469	13.524	211.0	0.312799672	0.317002394	0.003378045	0.034850663	0.010741313
2020-09-08T12:35:00	0.1474	13.537	211.0	0.313966740	0.319314002	0.003411136	0.035192061	0.010846535
2020-09-08T12:40:00	0.1477	13.544	210.0	0.314520340	0.320413519	0.003426904	0.035354739	0.010896674
2020-09-08T12:45:00	0.1470	13.551	211.0	0.313029443	0.317456821	0.003384543	0.034917711	0.010761978
2020-09-08T12:50:00	0.1463	13.551	211.0	0.311538208	0.314513479	0.003342505	0.034484012	0.010628307
2020-09-08T12:55:00	0.1456	13.554	211.0	0.310251198	0.311984505	0.003306491	0.034112455	0.010513790
2020-09-08T13:00:00	0.1463	13.560	211.0	0.311623246	0.314680947	0.003344894	0.034508652	0.010635902
2020-09-08T13:05:00	0.1459	13.569	211.0	0.310745362	0.312954302	0.003320290	0.034254819	0.010557668
2020-09-08T13:10:00	0.1458	13.577	211.0	0.310685612	0.312836961	0.003318620	0.034237586	0.010552356
2020-09-08T13:15:00	0.1447	13.586	211.0	0.308375393	0.308317259	0.003254440	0.033575459	0.010348283
2020-09-08T13:20:00	0.1442	13.595	211.0	0.307292406	0.306210098	0.003224626	0.033267873	0.010253482
2020-09-08T13:25:00	0.1437	13.606	211.0	0.306413924	0.304506274	0.003200569	0.033019682	0.010176987
2020-09-08T13:30:00	0.1440	13.619	211.0	0.306968174	0.305580680	0.003215734	0.033176134	0.010225207
2020-09-08T13:35:00	0.1438	13.635	211.0	0.306499031	0.304671126	0.003202895	0.033043675	0.010184382
2020-09-08T13:40:00	0.1434	13.658	211.0	0.305620436	0.302971481	0.003178937	0.032796512	0.010108203
2020-09-08T13:45:00	0.1424	13.676	211.0	0.303717911	0.299307720	0.003127448	0.032265309	0.009944482
2020-09-08T13:50:00	0.1420	13.701	211.0	0.302838917	0.297622719	0.003103839	0.032021734	0.009869409
2020-09-08T13:55:00	0.1417	13.719	211.0	0.302164629	0.296333434	0.003085804	0.031835674	0.009812064
2020-09-08T14:00:00	0.1417	13.738	211.0	0.302309626	0.296610437	0.003089677	0.031875626	0.009824378
2020-09-08T14:05:00	0.1420	13.756	211.0	0.302864248	0.297671210	0.003104518	0.032028737	0.009871568
2020-09-08T14:10:00	0.1424	13.774	212.0	0.303623604	0.299126704	0.003124910	0.032239120	0.009936410
2020-09-08T14:15:00	0.1420	13.795	212.0	0.302744596	0.297442199	0.003101312	0.031995667	0.009861375
2020-09-08T14:20:00	0.1419	13.812	212.0	0.302684769	0.297327725	0.003099710	0.031979139	0.009856281
2020-09-08T14:25:00	0.1420	13.830	212.0	0.302829754	0.297605179	0.003103593	0.032019201	0.009868629
2020-09-08T14:30:00	0.1416	13.850	212.0	0.301950630	0.295924853	0.003080095	0.031776767	0.009793908
2020-09-08T14:35:00	0.1413	13.863	212.0	0.301481100	0.295029407	0.003067590	0.031647763	0.009754148
2020-09-08T14:40:00	0.1413	13.870	212.0	0.301421260	0.294915386	0.003065999	0.031631345	0.009749088
2020-09-08T14:45:00	0.1414	13.883	212.0	0.301566275	0.295191743	0.003069856	0.031671140	0.009761353
2020-09-08T14:50:00	0.1405	13.898	213.0	0.299867378	0.291962460	0.003024859	0.031206913	0.009618274
2020-09-08T14:55:00	0.1403	13.903	212.0	0.299397682	0.291072868	0.003012493	0.031079331	0.009578952
2020-09-08T15:00:00	0.1396	13.909	213.0	0.297903138	0.288251495	0.002973356	0.030675567	0.009454508
2020-09-08T15:05:00	0.1402	13.917	213.0	0.299073025	0.290458788	0.003003964	0.030991338	0.009551831
2020-09-08T15:10:00	0.1395	13.920	212.0	0.297783385	0.288026037	0.002970234	0.030643359	0.009444581
2020-09-08T15:15:00	0.1395	13.928	213.0	0.297723507	0.287913340	0.002968674	0.030627263	0.009439620
2020-09-08T15:20:00	0.1392	13.931	212.0	0.297048630	0.286644699	0.002951125	0.030446212	0.009383818
2020-09-08T15:25:00	0.1399	13.934	213.0	0.298628614	0.289619276	0.002992313	0.030871144	0.009514786
2020-09-08T15:30:00	0.1401	13.932	212.0	0.298978644	0.290280395	0.003001487	0.030965787	0.009543956
2020-09-08T15:35:00	0.1403	13.932	212.0	0.299328653	0.290942246	0.003010678	0.031060609	0.009573181
2020-09-08T15:40:00	0.1401	13.931	212.0	0.298858913	0.290054167	0.002998347	0.030933393	0.009533972
2020-09-08T15:45:00	0.1399	13.920	213.0	0.298594095	0.289554121	0.002991409	0.030861820	0.009511913
2020-09-08T15:50:00	0.1399	13.909	213.0	0.298534226	0.289441134	0.002989843	0.030845654	0.009506930
2020-09-08T15:55:00	0.1408	13.907	212.0	0.300318703	0.292818569	0.003036772	0.031329816	0.009656154
2020-09-08T16:00:00	0.1407	13.906	212.0	0.300258852	0.292704964	0.003035190	0.031313500	0.009651125
2020-09-08T16:05:00	0.1405	13.902	213.0	0.299732997	0.291707804	0.003021318	0.031170378	0.009607013
2020-09-08T16:10:00	0.1405	13.892	212.0	0.299821865	0.291876199	0.003023659	0.031194536	0.009614459
2020-09-08T16:15:00	0.1405	13.886	213.0	0.299705819	0.291656315	0.003020602	0.031162992	0.009604737
2020-09-08T16:20:00	0.1404	13.885	212.0	0.299589771	0.291436511	0.003017546	0.031131467	0.009595021
2020-09-08T16:25:00	0.1407	13.873	212.0	0.300088461	0.292381668	0.003030691	0.031267079	0.009636818
2020-09-08T16:30:00	0.1405	13.863	213.0	0.299767510	0.291773195	0.003022227	0.031179758	0.009609904
2020-09-08T16:35:00	0.1405	13.851	212.0	0.299856377	0.291941609	0.003024569	0.031203921	0.009617351
2020-09-08T16:40:00	0.1400	13.843	212.0	0.298715665	0.289783622	0.002994593	0.030894664	0.009522036
2020-09-08T16:45:00	0.1400	13.828	212.0	0.298804549	0.289951476	0.002996922	0.030918691	0.009529441
2020-09-08T16:50:00	0.1401	13.815	212.0	0.298893431	0.290119377	0.002999252	0.030942730	0.009536850
2020-09-08T16:55:00	0.1412	13.802	213.0	0.301236239	0.294562981	0.003061082	0.031580618	0.009733453
2020-09-08T17:00:00	0.1413	13.789	212.0	0.301325084	0.294732175	0.003063442	0.031604970	0.009740959
2020-09-08T17:05:00	0.1410	13.774	212.0	0.300799325	0.293731661	0.003049491	0.031461033	0.009696596
2020-09-08T17:10:00	0.1412	13.759	212.0	0.301297913	0.294680427	0.003062720	0.031597521	0.009738663
2020-09-08T17:15:00	0.1415	13.743	212.0	0.301796459	0.295630680	0.003075985	0.031734372	0.009780842
2020-09-08T17:20:00	0.1417	13.728	212.0	0.302294964	0.296582420	0.003089285	0.031871585	0.009823132
2020-09-08T17:25:00	0.1421	13.711	212.0	0.302998233	0.297927761	0.003108110	0.032065795	0.009882990
2020-09-08T17:30:00	0.1428	13.695	212.0	0.304520481	0.300850473	0.003149104	0.032488726	0.010013341
2020-09-08T17:35:00	0.1426	13.678	211.0	0.303995002	0.299839903	0.003134914	0.032342335	0.009968222
2020-09-08T17:40:00	0.1429	13.658	212.0	0.304698073	0.301192402	0.003153909	0.032538295	0.010028619
2020-09-08T17:45:00	0.1436	13.639	211.0	0.306015199	0.303734549	0.003189688	0.032907420	0.010142387
2020-09-08T17:50:00	0.1430	13.621	211.0	0.304875660	0.301534520	0.003158718	0.032587911	0.010043911
2020-09-08T17:55:00	0.1430	13.602	211.0	0.304964452	0.301705650	0.003161124	0.032612736	0.010051562
2020-09-08T18:00:00	0.1438	13.583	211.0	0.306486210	0.304646290	0.003202544	0.033040060	0.010183267
2020-09-08T18:05:00	0.1434	13.563	211.0	0.305756193	0.303233784	0.003182632	0.032834626	0.010119951
2020-09-08T18:10:00	0.1446	13.543	211.0	0.308096343	0.307773606	0.003246741	0.033496033	0.010323803
2020-09-08T18:15:00	0.1450	13.529	211.0	0.309003557	0.309542865	0.003271813	0.033754688	0.010403523
2020-09-08T18:20:00	0.1447	13.506	211.0	0.308273833	0.308119340	0.003251637	0.033546538	0.010339369
2020-09-08T18:25:00	0.1442	13.491	211.0	0.307339370	0.306301321	0.003225915	0.033281175	0.010257581
2020-09-08T18:30:00	0.1441	13.469	211.0	0.307223468	0.306076215	0.003222734	0.033248354	0.010247466
2020-09-08T18:35:00	0.1445	13.456	211.0	0.307926172	0.307442315	0.003242052	0.033447656	0.010308892
2020-09-08T18:40:00	0.1445	13.432	210.0	0.308014920	0.307615068	0.003244497	0.033472880	0.010316667
2020-09-08T18:45:00	0.1439	13.417	210.0	0.306671072	0.305004510	0.003207599	0.033092211	0.010199341
2020-09-08T18:50:00	0.1437	13.396	210.0	0.306350470	0.304383393	0.003198836	0.033001800	0.010171475
2020-09-08T18:55:00	0.1434	13.379	210.0	0.305620436	0.302971481	0.003178937	0.032796512	0.010108203
2020-09-08T19:00:00	0.1438	13.359	210.0	0.306528010	0.304727269	0.003203687	0.033051848	0.010186900
2020-09-08T19:05:00	0.1440	13.340	210.0	0.307026128	0.305693134	0.003217322	0.033192520	0.010230257
2020-09-08T19:10:00	0.1446	13.321	210.0	0.308138132	0.307854989	0.003247894	0.033507920	0.010327466
2020-09-08T19:15:00	0.1445	13.302	210.0	0.308022244	0.307629327	0.003244699	0.033474963	0.010317309
2020-09-08T19:20:00	0.1454	13.277	210.0	0.309747842	0.310998254	0.003292472	0.033967829	0.010469215
2020-09-08T19:25:00	0.1455	13.265	214.0	0.310041139	0.311572731	0.003300636	0.034052053	0.010495173
2020-09-08T19:30:00	0.1454	13.245	210.0	0.309720709	0.310945135	0.003291718	0.033960044	0.010466815
2020-09-08T19:35:00	0.1452	13.220	210.0	0.309400262	0.310318154	0.003282814	0.033868187	0.010438504
2020-09-08T19:40:00	0.1456	13.208	210.0	0.310307291	0.312094510	0.003308055	0.034128596	0.010518765
2020-09-08T19:45:00	0.1458	13.188	210.0	0.310600562	0.312669972	0.003316243	0.034213065	0.010544799
2020-09-08T19:50:00	0.1455	13.175	209.0	0.310075593	0.311640252	0.003301596	0.034061956	0.010498226
2020-09-08T19:55:00	0.1462	13.155	210.0	0.311391595	0.314224858	0.003338390	0.034441557	0.010615222
2020-09-08T20:00:00	0.1455	13.130	210.0	0.310048461	0.311587079	0.003300840	0.034054157	0.010495822
2020-09-08T20:05:00	0.1461	13.098	209.0	0.311159936	0.313769092	0.003331895	0.034374542	0.010594568
2020-09-08T20:10:00	0.1463	13.088	209.0	0.311657691	0.314748795	0.003345861	0.034518636	0.010638979
2020-09-08T20:15:00	0.1459	13.073	209.0	0.310723723	0.312911804	0.003319685	0.034248577	0.010555744
2020-09-08T20:20:00	0.1458	13.060	209.0	0.310607883	0.312684345	0.003316447	0.034215175	0.010545449
2020-09-08T20:25:00	0.1458	13.047	209.0	0.310696594	0.312858526	0.003318926	0.034240753	0.010553332
2020-09-08T20:30:00	0.1457	13.029	209.0	0.310376196	0.312229669	0.003309978	0.034148431	0.010524878
2020-09-08T20:35:00	0.1455	13.003	209.0	0.310055783	0.311601428	0.003301044	0.034056262	0.010496471
2020-09-08T20:40:00	0.1454	12.987	209.0	0.309735353	0.310973803	0.003292125	0.033964245	0.010468110
2020-09-08T20:45:00	0.1451	12.971	209.0	0.309210313	0.309946809	0.003277543	0.033813812	0.010421745
2020-09-08T20:50:00	0.1449	12.951	209.0	0.308685230	0.308921469	0.003263002	0.033663787	0.010375506
2020-09-08T20:55:00	0.1450	12.937	208.0	0.308978576	0.309494076	0.003271121	0.033747549	0.010401322
2020-09-08T21:00:00	0.1447	12.909	208.0	0.308453474	0.308469466	0.003256596	0.033597704	0.010355139
2020-09-08T21:05:00	0.1448	12.902	209.0	0.308542214	0.308642500	0.003259048	0.033622998	0.010362935
2020-09-08T21:10:00	0.1448	12.875	208.0	0.308630954	0.308815581	0.003261501	0.033648303	0.010370734
2020-09-08T21:15:00	0.1450	12.865	208.0	0.308924302	0.309388093	0.003269618	0.033732041	0.010396543
2020-09-08T21:20:00	0.1446	12.844	208.0	0.308194568	0.307964915	0.003249450	0.033523978	0.010332415
2020-09-08T21:25:00	0.1439	12.830	208.0	0.306646081	0.304956071	0.003206916	0.033085158	0.010197167
2020-09-08T21:30:00	0.1442	12.812	208.0	0.307348850	0.306319738	0.003226176	0.033283860	0.010258409
2020-09-08T21:35:00	0.1441	12.800	208.0	0.307232948	0.306094625	0.003222994	0.033251038	0.010248293
2020-09-08T21:40:00	0.1439	12.776	208.0	0.306707700	0.305075514	0.003208601	0.033102550	0.010202527
2020-09-08T21:45:00	0.1440	12.751	208.0	0.307001138	0.305644641	0.003216637	0.033185453	0.010228079
2020-09-08T21:50:00	0.1439	12.733	207.0	0.306680554	0.305022890	0.003207859	0.033094887	0.010200166
2020-09-08T21:55:00	0.1441	12.723	207.0	0.307178659	0.305989210	0.003221505	0.033235671	0.010243557
2020-09-08T22:00:00	0.1440	12.707	207.0	0.306858084	0.305367117	0.003212718	0.033145021	0.010215617
2020-09-08T22:05:00	0.1437	12.691	208.0	0.306356289	0.304394661	0.003198995	0.033003440	0.010171981
2020-09-08T22:10:00	0.1437	12.679	207.0	0.306263855	0.304215699	0.003196471	0.032977401	0.010163955
2020-09-08T22:15:00	0.1437	12.663	207.0	0.306376112	0.304433045	0.003199536	0.033009026	0.010173702
2020-09-08T22:20:00	0.1441	12.642	208.0	0.307102394	0.305841155	0.003219413	0.033214091	0.010236905
2020-09-08T22:25:00	0.1445	12.635	207.0	0.308033231	0.307650716	0.003245002	0.033478086	0.010318271
2020-09-08T22:30:00	0.1448	12.613	208.0	0.308554706	0.308666861	0.003259393	0.033626559	0.010364032
2020-09-08T22:35:00	0.1452	12.601	208.0	0.309485328	0.310484530	0.003285176	0.033892556	0.010446015
2020-09-08T22:40:00	0.1455	12.583	207.0	0.310006685	0.311505218	0.003299676	0.034042152	0.010492122
2020-09-08T22:45:00	0.1458	12.570	207.0	0.310527998	0.312527536	0.003314216	0.034192153	0.010538354
2020-09-08T22:50:00	0.1460	12.554	207.0	0.311049270	0.313551486	0.003328794	0.034342557	0.010584710
2020-09-08T22:55:00	0.1468	12.531	207.0	0.312593031	0.316593996	0.003372207	0.034790434	0.010722750
2020-09-08T23:00:00	0.1465	12.530	207.0	0.312091687	0.315604279	0.003358069	0.034644582	0.010677797
2020-09-08T23:05:00	0.1467	12.508	207.0	0.312408341	0.316229210	0.003366994	0.034736659	0.010706176
2020-09-08T23:10:00	0.1465	12.491	206.0	0.312111492	0.315643345	0.003358627	0.034650336	0.010679570
2020-09-08T23:15:00	0.1459	12.476	206.0	0.310791976	0.313045861	0.003321593	0.034268267	0.010561813
2020-09-08T23:20:00	0.1459	12.454	207.0	0.310904152	0.313266255	0.003324732	0.034300644	0.010571792
2020-09-08T23:25:00	0.1461	12.439	206.0	0.311220863	0.313888927	0.003333602	0.034392159	0.010599997
2020-09-08T23:30:00	0.1464	12.419	206.0	0.311946593	0.315318139	0.003353985	0.034602443	0.010664809
2020-09-08T23:35:00	0.1475	12.408	206.0	0.314103501	0.319585445	0.003415027	0.035232205	0.010858908
2020-09-08T23:40:00	0.1470	12.389	206.0	0.312988867	0.317376549	0.003383395	0.034905865	0.010758327
2020-09-08T23:45:00	0.1470	12.379	206.0	0.313101006	0.317598422	0.003386569	0.034938610	0.010768419
2020-09-08T23:50:00	0.1471	12.361	206.0	0.313213143	0.317820372	0.003389745	0.034971374	0.010778517
2020-09-08T23:55:00	0.1472	12.348	206.0	0.313529742	0.318447435	0.003398721	0.035063982	0.010807060
2020-09-09T00:00:00	0.1466	12.331	206.0	0.312210512	0.315838712	0.003361417	0.034679116	0.010688440
2020-09-09T00:05:00	0.1464	12.313	206.0	0.311913654	0.315253200	0.003353058	0.034592882	0.010661862
2020-09-09T00:10:00	0.1462	12.303	206.0	0.311412259	0.314265528	0.003338970	0.034447539	0.010617066
2020-09-09T00:15:00	0.1467	12.290	205.0	0.312546963	0.316502986	0.003370906	0.034777016	0.010718614
2020-09-09T00:20:00	0.1471	12.277	205.0	0.313272545	0.317937978	0.003391428	0.034988738	0.010783869
2020-09-09T00:25:00	0.1473	12.261	205.0	0.313589142	0.318565154	0.003400407	0.035081374	0.010812420
2020-09-09T00:30:00	0.1474	12.256	206.0	0.313905723	0.319192933	0.003409401	0.035174160	0.010841018
2020-09-09T00:35:00	0.1481	12.236	205.0	0.315244410	0.321854529	0.003447597	0.035568226	0.010962473
2020-09-09T00:40:00	0.1484	12.228	206.0	0.315969698	0.323301279	0.003468404	0.035782885	0.011028633
2020-09-09T00:45:00	0.1484	12.213	205.0	0.315877401	0.323116987	0.003465752	0.035755523	0.011020200
2020-09-09T00:50:00	0.1483	12.216	205.0	0.315785102	0.322932746	0.003463101	0.035728174	0.011011770
2020-09-09T00:55:00	0.1485	12.201	205.0	0.316101580	0.323564702	0.003472196	0.035822005	0.011040690
2020-09-09T01:00:00	0.1482	12.190	206.0	0.315600501	0.322564417	0.003457803	0.035673514	0.010994923
2020-09-09T01:05:00	0.1486	12.180	206.0	0.316325751	0.324012720	0.003478647	0.035888563	0.011061204
2020-09-09T01:10:00	0.1482	12.165	205.0	0.315620295	0.322603901	0.003458371	0.035679372	0.010996729
2020-09-09T01:15:00	0.1486	12.156	205.0	0.316345543	0.324052290	0.003479217	0.035894443	0.011063016
2020-09-09T01:20:00	0.1484	12.147	205.0	0.315844482	0.323051270	0.003464806	0.035745768	0.011017193
2020-09-09T01:25:00	0.1479	12.132	205.0	0.314934560	0.321237476	0.003438733	0.035476769	0.010934285
2020-09-09T01:30:00	0.1479	12.122	205.0	0.314842249	0.321053758	0.003436094	0.035449551	0.010925896
2020-09-09T01:35:00	0.1481	12.103	205.0	0.315363179	0.322091212	0.003450999	0.035603321	0.010973289
2020-09-09T01:40:00	0.1477	12.108	205.0	0.314453192	0.320280052	0.003424989	0.035334982	0.010890585
2020-09-09T01:45:00	0.1471	12.105	205.0	0.313338617	0.318068813	0.003393301	0.035008058	0.010789823
2020-09-09T01:50:00	0.1479	12.085	205.0	0.314881841	0.321132548	0.003437226	0.035461223	0.010929493
2020-09-09T01:55:00	0.1480	12.076	205.0	0.315198361	0.321762785	0.003446279	0.035554624	0.010958280
2020-09-09T02:00:00	0.1485	12.060	205.0	0.316128039	0.323617566	0.003472957	0.035829857	0.011043110
2020-09-09T02:05:00	0.1480	12.052	205.0	0.315218156	0.321802221	0.003446846	0.035560471	0.010960082
2020-09-09T02:10:00	0.1479	12.042	205.0	0.314921433	0.321211346	0.003438357	0.035472898	0.010933092
2020-09-09T02:15:00	0.1483	12.028	205.0	0.315646756	0.322656688	0.003459130	0.035687205	0.010999143
2020-09-09T02:20:00	0.1485	12.025	205.0	0.316167623	0.323696661	0.003474096	0.035841606	0.011046731
2020-09-09T02:25:00	0.1489	12.022	205.0	0.316892813	0.325147436	0.003495000	0.036057275	0.011113202
2020-09-09T02:30:00	0.1489	12.014	205.0	0.317026801	0.325371937	0.003498399	0.036092341	0.011124010
2020-09-09T02:35:00	0.1490	12.009	204.0	0.317188608	0.325596483	0.003502005	0.036129538	0.011135474
2020-09-09T02:40:00	0.1489	12.002	204.0	0.317055374	0.325411584	0.003499036	0.036098908	0.011126034
2020-09-09T02:45:00	0.1492	11.992	204.0	0.317807081	0.326455380	0.003515806	0.036271918	0.011179357
2020-09-09T02:50:00	0.1484	11.980	205.0	0.316022618	0.323406969	0.003469925	0.035798580	0.011033470
2020-09-09T02:55:00	0.1484	11.970	204.0	0.315930321	0.323222647	0.003467272	0.035771210	0.011025034
2020-09-09T03:00:00	0.1484	11.959	204.0	0.315838023	0.323038376	0.003464621	0.035743854	0.011016603
2020-09-09T03:05:00	0.1485	11.950	205.0	0.316154498	0.323670434	0.003473718	0.035837710	0.011045530
2020-09-09T03:10:00	0.1484	11.944	204.0	0.315857816	0.323077888	0.003465189	0.035749719	0.011018411
2020-09-09T03:15:00	0.1477	11.928	204.0	0.314539049	0.320450711	0.003427438	0.035360245	0.010898371
2020-09-09T03:20:00	0.1485	11.920	204.0	0.316081996	0.323525577	0.003471633	0.035816194	0.011038899
2020-09-09T03:25:00	0.1478	11.903	204.0	0.314763272	0.320896623	0.003433838	0.035426275	0.010918722
2020-09-09T03:30:00	0.1482	11.888	204.0	0.315488612	0.322341275	0.003454594	0.035640410	0.010984720
2020-09-09T03:35:00	0.1477	11.875	204.0	0.314578643	0.320529428	0.003428568	0.035371899	0.010901963
2020-09-09T03:40:00	0.1483	11.866	204.0	0.315712804	0.322788466	0.003461025	0.035706761	0.011005170
2020-09-09T03:45:00	0.1479	11.852	204.0	0.315007284	0.321382247	0.003440812	0.035498221	0.010940897
2020-09-09T03:50:00	0.1485	11.843	204.0	0.316141373	0.323644207	0.003473341	0.035833814	0.011044330
2020-09-09T03:55:00	0.1485	11.835	204.0	0.316049077	0.323459820	0.003470686	0.035806428	0.011035889
2020-09-09T04:00:00	0.1479	11.826	204.0	0.314934769	0.321237891	0.003438738	0.035476831	0.010934304
2020-09-09T04:05:00	0.1475	11.817	204.0	0.314109730	0.319597811	0.003415204	0.035234034	0.010859471
2020-09-09T04:10:00	0.1480	11.810	204.0	0.315124551	0.321615764	0.003444166	0.035532830	0.010951563
2020-09-09T04:15:00	0.1483	11.806	204.0	0.315730445	0.322823667	0.003461532	0.035711985	0.011006780
2020-09-09T04:20:00	0.1492	11.793	203.0	0.317831596	0.326489445	0.003516353	0.036277568	0.011181099
2020-09-09T04:25:00	0.1501	11.788	203.0	0.320472355	0.330167919	0.003575641	0.036889228	0.011369618
2020-09-09T04:30:00	0.1500	11.776	203.0	0.320167489	0.329742343	0.003568767	0.036818310	0.011347761
2020-09-09T04:35:00	0.1507	11.764	203.0	0.322215941	0.332606444	0.003615103	0.037296349	0.011495097
2020-09-09T04:40:00	0.1516	11.755	203.0	0.324848080	0.336302429	0.003675154	0.037915884	0.011686044
2020-09-09T04:45:00	0.1516	11.748	203.0	0.324837581	0.336287651	0.003674913	0.037913401	0.011685278
2020-09-09T04:50:00	0.1521	11.740	203.0	0.326293012	0.338338929	0.003708365	0.038258517	0.011791646
2020-09-09T04:55:00	0.1521	11.732	203.0	0.326282524	0.338324128	0.003708123	0.038256024	0.011790878
2020-09-09T05:00:00	0.1526	11.726	203.0	0.327736402	0.340378616	0.003741715	0.038602583	0.011897691
2020-09-09T05:05:00	0.1525	11.719	203.0	0.327433176	0.339949676	0.003734694	0.038530153	0.011875367
2020-09-09T05:10:00	0.1531	11.711	203.0	0.329178256	0.342421488	0.003775204	0.038948083	0.012004177
2020-09-09T05:15:00	0.1531	11.708	203.0	0.329167790	0.342406641	0.003774960	0.038945568	0.012003402
2020-09-09T05:20:00	0.1532	11.703	203.0	0.329449702	0.342806682	0.003781528	0.039013328	0.012024287
2020-09-09T05:25:00	0.1535	11.699	203.0	0.330316000	0.344037268	0.003801753	0.039221983	0.012088596
2020-09-09T05:30:00	0.1536	11.694	203.0	0.330889741	0.344853340	0.003815182	0.039360531	0.012131298
2020-09-09T05:35:00	0.1542	11.692	203.0	0.332630399	0.347334400	0.003856095	0.039782622	0.012261390
2020-09-09T05:40:00	0.1548	11.688	203.0	0.334368844	0.349820125	0.003897211	0.040206812	0.012392130
2020-09-09T05:45:00	0.1551	11.684	202.0	0.335232031	0.351057266	0.003917722	0.040418415	0.012457348
2020-09-09T05:50:00	0.1560	11.680	203.0	0.337839148	0.354805574	0.003980055	0.041061492	0.012655551
2020-09-09T05:55:00	0.1550	11.677	203.0	0.334920045	0.350609898	0.003910301	0.040341859	0.012433753
2020-09-09T06:00:00	0.1551	11.678	203.0	0.335200773	0.351012432	0.003916978	0.040410741	0.012454983
2020-09-09T06:05:00	0.1553	11.675	203.0	0.335772472	0.351832820	0.003930596	0.040551232	0.012498284
2020-09-09T06:10:00	0.1552	11.676	203.0	0.335471026	0.351400140	0.003923412	0.040477118	0.012475441
2020-09-09T06:15:00	0.1559	11.676	203.0	0.337496547	0.354312002	0.003971831	0.040976645	0.012629400
2020-09-09T06:20:00	0.1563	11.678	202.0	0.338648199	0.355972351	0.003999516	0.041262268	0.012717432
2020-09-09T06:25:00	0.1563	11.683	202.0	0.338637805	0.355957351	0.003999265	0.041259685	0.012716636
2020-09-09T06:30:00	0.1562	11.687	203.0	0.338336985	0.355523331	0.003992023	0.041184968	0.012693607
2020-09-09T06:35:00	0.1566	11.691	203.0	0.339487938	0.357185184	0.004019774	0.041471268	0.012781848
2020-09-09T06:40:00	0.1572	11.699	202.0	0.341217764	0.359689349	0.004061695	0.041903759	0.012915145
2020-09-09T06:45:00	0.1572	11.707	202.0	0.341207390	0.359674308	0.004061443	0.041901157	0.012914344
2020-09-09T06:50:00	0.1570	11.714	202.0	0.340617178	0.358819035	0.004047111	0.041753301	0.012868773
2020-09-09T06:55:00	0.1572	11.724	202.0	0.341186641	0.359644226	0.004060939	0.041895954	0.012912740
2020-09-09T07:00:00	0.1577	11.733	203.0	0.342624825	0.361732014	0.004095983	0.042257501	0.013024172
2020-09-09T07:05:00	0.1573	11.745	203.0	0.341455727	0.360034443	0.004067482	0.041963461	0.012933546
2020-09-09T07:10:00	0.1577	11.758	203.0	0.342604098	0.361701885	0.004095477	0.042252277	0.013022562
2020-09-09T07:15:00	0.1580	11.773	203.0	0.343462165	0.362950051	0.004116468	0.042468844	0.013089310
2020-09-09T07:20:00	0.1585	11.788	203.0	0.344898006	0.365042954	0.004151736	0.042832695	0.013201453
2020-09-09T07:25:00	0.1585	11.804	203.0	0.344887659	0.365027853	0.004151481	0.042830067	0.013200643
2020-09-09T07:30:00	0.1590	11.823	203.0	0.346322038	0.367123966	0.004186889	0.043195364	0.013313231
2020-09-09T07:35:00	0.1598	11.843	203.0	0.348620192	0.370493567	0.004243990	0.043784461	0.013494796
2020-09-09T07:40:00	0.1599	11.866	203.0	0.348898170	0.370902082	0.004250928	0.043856036	0.013516856
2020-09-09T07:45:00	0.1601	11.889	203.0	0.349464275	0.371734652	0.004265077	0.044002013	0.013561848
2020-09-09T07:50:00	0.1599	11.913	203.0	0.349165778	0.371295548	0.004257613	0.043925007	0.013538114
2020-09-09T07:55:00	0.1600	11.941	203.0	0.349443648	0.371704302	0.004264561	0.043996690	0.013560207
2020-09-09T08:00:00	0.1607	11.968	203.0	0.351449007	0.374660238	0.004314904	0.044516068	0.013720285
2020-09-09T08:05:00	0.1606	11.999	204.0	0.351150929	0.374220197	0.004307399	0.044438639	0.013696420
2020-09-09T08:10:00	0.1613	12.030	204.0	0.353153873	0.377181549	0.004357978	0.044960459	0.013857250
2020-09-09T08:15:00	0.1611	12.064	205.0	0.352568661	0.376315223	0.004343164	0.044807623	0.013810144
2020-09-09T08:20:00	0.1612	12.095	204.0	0.352845864	0.376725472	0.004350178	0.044879980	0.013832446
2020-09-09T08:25:00	0.1618	12.129	205.0	0.354559332	0.379265818	0.004393679	0.045328773	0.013970768
2020-09-09T08:30:00	0.1619	12.169	205.0	0.354836148	0.379676944	0.004400730	0.045401525	0.013993191
2020-09-09T08:35:00	0.1614	12.208	204.0	0.353389824	0.377531097	0.004363960	0.045022168	0.013876269
2020-09-09T08:40:00	0.1614	12.249	205.0	0.353379539	0.377515857	0.004363699	0.045019477	0.013875440
2020-09-09T08:45:00	0.1622	12.287	205.0	0.355666273	0.380911051	0.004421918	0.045620111	0.014060561
2020-09-09T08:50:00	0.1620	12.326	205.0	0.355082093	0.380042389	0.004407001	0.045466222	0.014013131
2020-09-09T08:55:00	0.1620	12.371	205.0	0.355071820	0.380027122	0.004406739	0.045463518	0.014012298
2020-09-09T09:00:00	0.1621	12.420	206.0	0.355348537	0.380438473	0.004413801	0.045536372	0.014034752
2020-09-09T09:05:00	0.1621	12.477	206.0	0.355338266	0.380423201	0.004413539	0.045533667	0.014033918
2020-09-09T09:10:00	0.1620	12.539	206.0	0.355041002	0.379981322	0.004405953	0.045455409	0.014009798
2020-09-09T09:15:00	0.1615	12.591	207.0	0.353594886	0.377835003	0.004369162	0.045075839	0.013892811
2020-09-09T09:20:00	0.1612	12.649	206.0	0.352722394	0.376542717	0.004347053	0.044847743	0.013822510
2020-09-09T09:25:00	0.1618	12.701	207.0	0.354436011	0.379082727	0.004390539	0.045296384	0.013960786
2020-09-09T09:30:00	0.1614	12.760	207.0	0.353276687	0.377363473	0.004361091	0.044992572	0.013867148
2020-09-09T09:35:00	0.1617	12.816	207.0	0.354128280	0.378626023	0.004382711	0.045215622	0.013935894
2020-09-09T09:40:00	0.1617	12.859	207.0	0.354118000	0.378610771	0.004382450	0.045212926	0.013935063
2020-09-09T09:45:00	0.1613	12.924	207.0	0.352958417	0.376892103	0.004353027	0.044909378	0.013841507
2020-09-09T09:50:00	0.1615	12.979	208.0	0.353522901	0.377728307	0.004367335	0.045056994	0.013887003
2020-09-09T09:55:00	0.1611	13.028	209.0	0.352362832	0.376010735	0.004337961	0.044753941	0.013793599
2020-09-09T10:00:00	0.1602	13.078	209.0	0.349762089	0.372172985	0.004272532	0.044078924	0.013585552
2020-09-09T10:05:00	0.1601	13.117	209.0	0.349626831	0.371973878	0.004269145	0.044043983	0.013574783
2020-09-09T10:10:00	0.1604	13.157	209.0	0.350355735	0.373047427	0.004287415	0.044232469	0.013632877
2020-09-09T10:15:00	0.1598	13.203	208.0	0.348779809	0.370728114	0.004247973	0.043825552	0.013507461
2020-09-09T10:20:00	0.1592	13.247	209.0	0.346913473	0.367989820	0.004201541	0.043346519	0.013359818
2020-09-09T10:25:00	0.1594	13.288	210.0	0.347643782	0.369060245	0.004219674	0.043533597	0.013417477
2020-09-09T10:30:00	0.1593	13.329	210.0	0.347219738	0.368438547	0.004209139	0.043424915	0.013383981
2020-09-09T10:35:00	0.1583	13.383	210.0	0.344484070	0.364439043	0.004141551	0.042727614	0.013169065
2020-09-09T10:40:00	0.1577	13.410	210.0	0.342612002	0.361713374	0.004095670	0.042254269	0.013023176
2020-09-09T10:45:00	0.1580	13.457	210.0	0.343633938	0.363200146	0.004120678	0.042512276	0.013102696
2020-09-09T10:50:00	0.1576	13.512	210.0	0.342340089	0.361318239	0.004089031	0.042185775	0.013002066
2020-09-09T10:55:00	0.1562	13.553	211.0	0.338433571	0.355662658	0.003994348	0.041208949	0.012700998
2020-09-09T11:00:00	0.1557	13.601	211.0	0.336844121	0.353372921	0.003956197	0.040815353	0.012579688
2020-09-09T11:05:00	0.1551	13.659	211.0	0.335252836	0.351087108	0.003918217	0.040423524	0.012458923
2020-09-09T11:10:00	0.1549	13.720	211.0	0.334533766	0.350056346	0.003901125	0.040247191	0.012404575
2020-09-09T11:15:00	0.1547	13.793	211.0	0.334105700	0.349443365	0.003890971	0.040142434	0.012372288
2020-09-09T11:20:00	0.1540	13.817	211.0	0.331927732	0.346331906	0.003839549	0.039611915	0.012208777
2020-09-09T11:25:00	0.1538	13.866	212.0	0.331206913	0.345304840	0.003822618	0.039437245	0.012154942
2020-09-09T11:30:00	0.1535	13.903	212.0	0.330485712	0.344278574	0.003805722	0.039262935	0.012101218
2020-09-09T11:35:00	0.1538	13.938	212.0	0.331224737	0.345330221	0.003823036	0.039441559	0.012156272
2020-09-09T11:40:00	0.1527	13.984	213.0	0.328164581	0.340984718	0.003751642	0.038704996	0.011929256
2020-09-09T11:45:00	0.1528	14.022	213.0	0.328319816	0.341204573	0.003755244	0.038742165	0.011940712
2020-09-09T11:50:00	0.1527	14.068	213.0	0.328182446	0.341010015	0.003752056	0.038709273	0.011930574
2020-09-09T11:55:00	0.1525	14.113	212.0	0.327459639	0.339987100	0.003735307	0.038536471	0.011877315
2020-09-09T12:00:00	0.1517	14.163	213.0	0.325270997	0.336897937	0.003684856	0.038015983	0.011716895
2020-09-09T12:05:00	0.1515	14.184	214.0	0.324546632	0.335878242	0.003668247	0.037844629	0.011664082
2020-09-09T12:10:00	0.1513	14.230	214.0	0.324115410	0.335271846	0.003658380	0.037742835	0.011632708
2020-09-09T12:15:00	0.1511	14.257	214.0	0.323390422	0.334253426	0.003641827	0.037572055	0.011580072
2020-09-09T12:20:00	0.1505	14.280	214.0	0.321783304	0.332000645	0.003605288	0.037195087	0.011463887
2020-09-09T12:25:00	0.1496	14.293	214.0	0.318996283	0.328109612	0.003542431	0.036546603	0.011264018
2020-09-09T12:30:00	0.1498	14.328	212.0	0.319741627	0.329148260	0.003559178	0.036719379	0.011317269
2020-09-09T12:35:00	0.1499	14.346	214.0	0.319897835	0.329366119	0.003562693	0.036755650	0.011328448
2020-09-09T12:40:00	0.1495	14.358	214.0	0.318581263	0.327531891	0.003533125	0.036450604	0.011234430
2020-09-09T12:45:00	0.1484	14.358	215.0	0.315942544	0.323247054	0.003467624	0.035774834	0.011026151
2020-09-09T12:50:00	0.1485	14.377	215.0	0.316050976	0.323463611	0.003470741	0.035806992	0.011036063
2020-09-09T12:55:00	0.1480	14.381	215.0	0.315137424	0.321641403	0.003444535	0.035536630	0.010952735
2020-09-09T13:00:00	0.1476	14.394	214.0	0.314223748	0.319824211	0.003418451	0.035267525	0.010869794
2020-09-09T13:05:00	0.1467	14.396	215.0	0.312492024	0.316394468	0.003369355	0.034761018	0.010713683
2020-09-09T13:10:00	0.1468	14.410	215.0	0.312600512	0.316608777	0.003372418	0.034792613	0.010723421
2020-09-09T13:15:00	0.1462	14.415	215.0	0.311481963	0.314402740	0.003340926	0.034467721	0.010623286
2020-09-09T13:20:00	0.1459	14.417	215.0	0.310772329	0.313007270	0.003321044	0.034262599	0.010560066
2020-09-09T13:25:00	0.1455	14.429	214.0	0.310062618	0.311614823	0.003301234	0.034058226	0.010497076
2020-09-09T13:30:00	0.1444	14.442	215.0	0.307715874	0.307033157	0.003236263	0.033387932	0.010290485
2020-09-09T13:35:00	0.1440	14.462	215.0	0.307005821	0.305653728	0.003216766	0.033186777	0.010228487
2020-09-09T13:40:00	0.1436	14.475	215.0	0.306090991	0.303881165	0.003191754	0.032928741	0.010148958
2020-09-09T13:45:00	0.1439	14.502	215.0	0.306813644	0.305280930	0.003211501	0.033132466	0.010211748
2020-09-09T13:50:00	0.1445	14.503	215.0	0.307945503	0.307479939	0.003242585	0.033453149	0.010310585
2020-09-09T13:55:00	0.1445	14.519	215.0	0.308054067	0.307691286	0.003245576	0.033484011	0.010320097
2020-09-09T14:00:00	0.1445	14.540	215.0	0.307957996	0.307504255	0.003242929	0.033456700	0.010311680
2020-09-09T14:05:00	0.1439	14.582	215.0	0.306633956	0.304932571	0.003206584	0.033081736	0.010196112
2020-09-09T14:10:00	0.1441	14.588	215.0	0.307151885	0.305937229	0.003220770	0.033228094	0.010241221
2020-09-09T14:15:00	0.1433	14.605	215.0	0.305418246	0.302581031	0.003173440	0.032739798	0.010090724
2020-09-09T14:20:00	0.1429	14.625	215.0	0.304707929	0.301211384	0.003154176	0.032541048	0.010029467
2020-09-09T14:25:00	0.1421	14.634	215.0	0.302973598	0.297880582	0.003107449	0.032058980	0.009880889
2020-09-09T14:30:00	0.1415	14.652	215.0	0.301853325	0.295739169	0.003077501	0.031750005	0.009785660
2020-09-09T14:35:00	0.1412	14.667	216.0	0.301142589	0.294384692	0.003058595	0.031554961	0.009725546
2020-09-09T14:40:00	0.1405	14.690	215.0	0.299817061	0.291867095	0.003023533	0.031193230	0.009614056
2020-09-09T14:45:00	0.1409	14.700	216.0	0.300540466	0.293239695	0.003042636	0.031390317	0.009674801
2020-09-09T14:50:00	0.1409	14.720	216.0	0.300649162	0.293446224	0.003045513	0.031419999	0.009683949
2020-09-09T14:55:00	0.1408	14.712	216.0	0.300348083	0.292874343	0.003037548	0.031337827	0.009658623
2020-09-09T15:00:00	0.1409	14.718	216.0	0.300661670	0.293469994	0.003045844	0.031423416	0.009685002
2020-09-09T15:05:00	0.1406	14.727	216.0	0.299950790	0.292120586	0.003027058	0.031229604	0.009625267
2020-09-09T15:10:00	0.1403	14.732	216.0	0.299444753	0.291161957	0.003013730	0.031092102	0.009582888
2020-09-09T15:15:00	0.1399	14.729	216.0	0.298528771	0.289430839	0.002989700	0.030844181	0.009506476
2020-09-09T15:20:00	0.1402	14.731	216.0	0.299252335	0.290797866	0.003008672	0.031039918	0.009566804
2020-09-09T15:25:00	0.1404	14.723	216.0	0.299565980	0.291391461	0.003016920	0.031125007	0.009593030
2020-09-09T15:30:00	0.1409	14.723	216.0	0.300494308	0.293152017	0.003041415	0.031377719	0.009670918
2020-09-09T15:35:00	0.1409	14.713	215.0	0.300603006	0.293358516	0.003044291	0.031407393	0.009680064
2020-09-09T15:40:00	0.1417	14.705	215.0	0.302145698	0.296297278	0.003085299	0.031830460	0.009810457
2020-09-09T15:45:00	0.1414	14.697	215.0	0.301639849	0.295332004	0.003071814	0.031691342	0.009767579
2020-09-09T15:50:00	0.1418	14.692	215.0	0.302363030	0.296712494	0.003091104	0.031890349	0.009828915
2020-09-09T15:55:00	0.1423	14.677	215.0	0.303495710	0.298881308	0.003121470	0.032203626	0.009925470
2020-09-09T16:00:00	0.1421	14.673	215.0	0.302989975	0.297911945	0.003107888	0.032063510	0.009882285
2020-09-09T16:05:00	0.1417	14.662	215.0	0.302201540	0.296403936	0.003086790	0.031845841	0.009815198
2020-09-09T16:10:00	0.1420	14.647	215.0	0.302846827	0.297637860	0.003104051	0.032023921	0.009870083
2020-09-09T16:15:00	0.1421	14.642	214.0	0.303082459	0.298089093	0.003110369	0.032089105	0.009890174
2020-09-09T16:20:00	0.1422	14.634	214.0	0.303318083	0.298540658	0.003116695	0.032154370	0.009910289
2020-09-09T16:25:00	0.1422	14.613	214.0	0.303348909	0.298599763	0.003117523	0.032162914	0.009912923
2020-09-09T16:30:00	0.1416	14.593	213.0	0.301946036	0.295916086	0.003079972	0.031775503	0.009793519
2020-09-09T16:35:00	0.1410	14.583	213.0	0.300747716	0.293633545	0.003048123	0.031446927	0.009692248
2020-09-09T16:40:00	0.1408	14.580	212.0	0.300368784	0.292913645	0.003038096	0.031343473	0.009660363
2020-09-09T16:45:00	0.1407	14.561	212.0	0.300194730	0.292583278	0.003033497	0.031296026	0.009645739
2020-09-09T16:50:00	0.1409	14.539	212.0	0.300635355	0.293419985	0.003045148	0.031416228	0.009682787
2020-09-09T16:55:00	0.1406	14.524	211.0	0.300051514	0.292311589	0.003029716	0.031257019	0.009633717
2020-09-09T17:00:00	0.1403	14.508	211.0	0.299262687	0.290817448	0.003008944	0.031042724	0.009567669
2020-09-09T17:05:00	0.1402	14.494	210.0	0.299088600	0.290488233	0.003004372	0.030995556	0.009553131
2020-09-09T17:10:00	0.1399	14.476	210.0	0.298504605	0.289385239	0.002989067	0.030837657	0.009504465
2020-09-09T17:15:00	0.1400	14.456	209.0	0.298740410	0.289830348	0.002995241	0.030901352	0.009524097
2020-09-09T17:20:00	0.1398	14.440	209.0	0.298361348	0.289114998	0.002985321	0.030799002	0.009492551
2020-09-09T17:25:00	0.1401	14.421	209.0	0.299007056	0.290334092	0.003002232	0.030973478	0.009546327
2020-09-09T17:30:00	0.1403	14.405	208.0	0.299447771	0.291167668	0.003013810	0.031092920	0.009583140
2020-09-09T17:35:00	0.1402	14.389	208.0	0.299068754	0.290450714	0.003003851	0.030990182	0.009551475
2020-09-09T17:40:00	0.1401	14.370	207.0	0.298894661	0.290121702	0.002999284	0.030943063	0.009536952
2020-09-09T17:45:00	0.1399	14.351	204.0	0.298515608	0.289406002	0.002989355	0.030840628	0.009505381
2020-09-09T17:50:00	0.1405	14.331	204.0	0.299776074	0.291789423	0.003022453	0.031182086	0.009610622
2020-09-09T17:55:00	0.1397	14.315	203.0	0.298167384	0.288749309	0.002980252	0.030746713	0.009476435
2020-09-09T18:00:00	0.1407	14.294	203.0	0.300247573	0.292683558	0.003034892	0.031310426	0.009650177
2020-09-09T18:05:00	0.1404	14.275	202.0	0.299663694	0.291576517	0.003019492	0.031151546	0.009601209
2020-09-09T18:10:00	0.1403	14.255	202.0	0.299284691	0.290859074	0.003009522	0.031048689	0.009569507
2020-09-09T18:15:00	0.1408	14.236	202.0	0.300340100	0.292859188	0.003037337	0.031335650	0.009657952
2020-09-09T18:20:00	0.1410	14.218	200.0	0.300780714	0.293696278	0.003048998	0.031455946	0.009695028
2020-09-09T18:25:00	0.1412	14.197	201.0	0.301221296	0.294534529	0.003060685	0.031576523	0.009732191
2020-09-09T18:30:00	0.1409	14.178	201.0	0.300637513	0.293424086	0.003045205	0.031416817	0.009682968
2020-09-09T18:35:00	0.1414	14.159	200.0	0.301692679	0.295432741	0.003073221	0.031705854	0.009772052
2020-09-09T18:40:00	0.1418	14.140	200.0	0.302338022	0.296664699	0.003090436	0.031883454	0.009826790
2020-09-09T18:45:00	0.1415	14.119	201.0	0.301754349	0.295550355	0.003074863	0.031722798	0.009777275
2020-09-09T18:50:00	0.1408	14.101	201.0	0.300351100	0.292880071	0.003037628	0.031338650	0.009658876
2020-09-09T18:55:00	0.1411	14.081	201.0	0.300996589	0.294106848	0.003054721	0.031514989	0.009713226
2020-09-09T19:00:00	0.1410	14.063	200.0	0.300822553	0.293775828	0.003050106	0.031467383	0.009698553
2020-09-09T19:05:00	0.1407	14.042	200.0	0.300238731	0.292666778	0.003034659	0.031308016	0.009649435
2020-09-09T19:10:00	0.1405	14.024	196.0	0.299859766	0.291948031	0.003024658	0.031204842	0.009617636
2020-09-09T19:15:00	0.1399	14.009	193.0	0.298456063	0.289293656	0.002987797	0.030824556	0.009500427
2020-09-09T19:20:00	0.1402	13.988	198.0	0.299101761	0.290513116	0.003004718	0.030999120	0.009554230
2020-09-09T19:25:00	0.1404	13.969	198.0	0.299542469	0.291346942	0.003016301	0.031118624	0.009591062
2020-09-09T19:30:00	0.1404	13.951	198.0	0.299573315	0.291405349	0.003017113	0.031126999	0.009593643
2020-09-09T19:35:00	0.1400	13.930	197.0	0.298784423	0.289913465	0.002996395	0.030913250	0.009527764
2020-09-09T19:40:00	0.1396	13.910	196.0	0.297995423	0.288425302	0.002975763	0.030700402	0.009462162
2020-09-09T19:45:00	0.1400	13.896	194.0	0.298641173	0.289642983	0.002992642	0.030874536	0.009515832
2020-09-09T19:50:00	0.1399	13.877	191.0	0.298467067	0.289314416	0.002988085	0.030827525	0.009501343
2020-09-09T19:55:00	0.1396	13.858	190.0	0.297883009	0.288213592	0.002972831	0.030670152	0.009452839
2020-09-09T20:00:00	0.1399	13.839	192.0	0.298528771	0.289430839	0.002989700	0.030844181	0.009506476
2020-09-09T20:05:00	0.1409	13.805	192.0	0.300608831	0.293369583	0.003044446	0.031408984	0.009680554
2020-09-09T20:10:00	0.1408	13.792	190.0	0.300434784	0.293038967	0.003039841	0.031361476	0.009665912
2020-09-09T20:15:00	0.1417	13.769	191.0	0.302309347	0.296609905	0.003089669	0.031875549	0.009824354
2020-09-09T20:20:00	0.1430	13.757	192.0	0.304797581	0.301384077	0.003156603	0.032566091	0.010037185
2020-09-09T20:25:00	0.1425	13.740	193.0	0.303804609	0.299474181	0.003129783	0.032289397	0.009951906
2020-09-09T20:30:00	0.1431	13.715	194.0	0.305063956	0.301897484	0.003163822	0.032640570	0.010060141
2020-09-09T20:35:00	0.1427	13.698	192.0	0.304275790	0.300379682	0.003142492	0.032420507	0.009992315
2020-09-09T20:40:00	0.1426	13.684	193.0	0.304101850	0.300045246	0.003137796	0.032372067	0.009977386
2020-09-09T20:45:00	0.1428	13.662	193.0	0.304542187	0.300892255	0.003149691	0.032494782	0.010015207
2020-09-09T20:50:00	0.1425	13.653	193.0	0.303958728	0.299770208	0.003133936	0.032332245	0.009965112
2020-09-09T20:55:00	0.1424	13.629	192.0	0.303579999	0.299043025	0.003123737	0.032227016	0.009932679
2020-09-09T21:00:00	0.1428	13.607	191.0	0.304429897	0.300676143	0.003146655	0.032463461	0.010005554
2020-09-09T21:05:00	0.1431	13.604	192.0	0.305074947	0.301918678	0.003164120	0.032643646	0.010061089
2020-09-09T21:10:00	0.1430	13.582	192.0	0.304901030	0.301583409	0.003159405	0.032595003	0.010046096
2020-09-09T21:15:00	0.1435	13.571	191.0	0.305955451	0.303618993	0.003188059	0.032890619	0.010137208
2020-09-09T21:20:00	0.1430	13.536	192.0	0.304962667	0.301702208	0.003161076	0.032612237	0.010051408
2020-09-09T21:25:00	0.1440	13.531	192.0	0.306835829	0.305323955	0.003212109	0.033138733	0.010213679
2020-09-09T21:30:00	0.1431	13.521	192.0	0.305024303	0.301821029	0.003162747	0.032629476	0.010056721
2020-09-09T21:35:00	0.1425	13.514	193.0	0.303826597	0.299516404	0.003130376	0.032295508	0.009953789
2020-09-09T21:40:00	0.1419	13.499	193.0	0.302628654	0.297220373	0.003098208	0.031963642	0.009851505
2020-09-09T21:45:00	0.1412	13.477	193.0	0.301225611	0.294542747	0.003060800	0.031577706	0.009732556
2020-09-09T21:50:00	0.1416	13.464	192.0	0.302075842	0.296163882	0.003083435	0.031811226	0.009804529
2020-09-09T21:55:00	0.1415	13.450	193.0	0.301901839	0.295831738	0.003078794	0.031763346	0.009789772
2020-09-09T22:00:00	0.1407	13.432	191.0	0.300088833	0.292382372	0.003030701	0.031267180	0.009636849
2020-09-09T22:05:00	0.1396	13.422	192.0	0.297872654	0.288194095	0.002972561	0.030667366	0.009451980
2020-09-09T22:10:00	0.1397	13.408	191.0	0.298115822	0.288652137	0.002978906	0.030732822	0.009472154
2020-09-09T22:15:00	0.1391	13.395	192.0	0.296924052	0.286410831	0.002947893	0.030412865	0.009373540
2020-09-09T22:20:00	0.1383	13.384	191.0	0.295321901	0.283411852	0.002906523	0.029986061	0.009241995
2020-09-09T22:25:00	0.1381	13.361	192.0	0.294744859	0.282335684	0.002891713	0.029833274	0.009194905
2020-09-09T22:30:00	0.1372	13.354	192.0	0.292936926	0.278977526	0.002845622	0.029357762	0.009048347
2020-09-09T22:35:00	0.1371	13.344	192.0	0.292769987	0.278668484	0.002841390	0.029314098	0.009034890
2020-09-09T22:40:00	0.1363	13.328	191.0	0.291166635	0.275709255	0.002800944	0.028896821	0.008906281
2020-09-09T22:45:00	0.1362	13.314	191.0	0.290999642	0.275401975	0.002796752	0.028853577	0.008892953
2020-09-09T22:50:00	0.1351	13.292	193.0	0.288779839	0.271334081	0.002741412	0.028282637	0.008716984
2020-09-09T22:55:00	0.1350	13.281	193.0	0.288407440	0.270654685	0.002732196	0.028187561	0.008687680
2020-09-09T23:00:00	0.1345	13.274	191.0	0.287418931	0.268855512	0.002707829	0.027936168	0.008610198
2020-09-09T23:05:00	0.1340	13.263	192.0	0.286430235	0.267062159	0.002683595	0.027686150	0.008533140
2020-09-09T23:10:00	0.1330	13.254	191.0	0.284413985	0.263424067	0.002634600	0.027180685	0.008377351
2020-09-09T23:15:00	0.1327	13.232	192.0	0.283835759	0.262385451	0.002620655	0.027036811	0.008333008
2020-09-09T23:20:00	0.1326	13.233	192.0	0.283463002	0.261717019	0.002611689	0.026944318	0.008304501
2020-09-09T23:25:00	0.1318	13.218	191.0	0.281856780	0.258846738	0.002573280	0.026548052	0.008182368
2020-09-09T23:30:00	0.1311	13.207	191.0	0.280455697	0.256356314	0.002540069	0.026205423	0.008076766
2020-09-09T23:35:00	0.1311	13.199	191.0	0.280494014	0.256424258	0.002540974	0.026214756	0.008079642
2020-09-09T23:40:00	0.1305	13.183	191.0	0.279298250	0.254308284	0.002512839	0.025924495	0.007990181
2020-09-09T23:45:00	0.1300	13.177	192.0	0.278307943	0.252562699	0.002489688	0.025685652	0.007916567
2020-09-09T23:50:00	0.1292	13.176	191.0	0.276494192	0.249381678	0.002447638	0.025251830	0.007782859
2020-09-09T23:55:00	0.1281	13.174	192.0	0.274267905	0.245505474	0.002396642	0.024725713	0.007620705
2020-09-10T00:00:00	0.1276	13.173	192.0	0.273276534	0.243789439	0.002374151	0.024493683	0.007549191
2020-09-10T00:05:00	0.1265	13.176	192.0	0.271048678	0.239955678	0.002324099	0.023977296	0.007390036
2020-09-10T00:10:00	0.1258	13.178	192.0	0.269644339	0.237555116	0.002292894	0.023655361	0.007290812
2020-09-10T00:15:00	0.1253	13.180	192.0	0.268445750	0.235516088	0.002266471	0.023382768	0.007206796
2020-09-10T00:20:00	0.1246	13.182	192.0	0.267040572	0.233137136	0.002235742	0.023065733	0.007109083
2020-09-10T00:25:00	0.1240	13.187	193.0	0.265841257	0.231116546	0.002209724	0.022797310	0.007026352
2020-09-10T00:30:00	0.1234	13.187	192.0	0.264641602	0.229104446	0.002183891	0.022530798	0.006944211
2020-09-10T00:35:00	0.1232	13.185	192.0	0.264267278	0.228478472	0.002175870	0.022448045	0.006918705
2020-09-10T00:40:00	0.1223	13.190	193.0	0.262241252	0.225105712	0.002132779	0.022003486	0.006781688
2020-09-10T00:45:00	0.1220	13.193	193.0	0.261660185	0.224143169	0.002120521	0.021877024	0.006742711
2020-09-10T00:50:00	0.1212	13.196	193.0	0.260046104	0.221480586	0.002086706	0.021528158	0.006635187
2020-09-10T00:55:00	0.1215	13.198	193.0	0.260704384	0.222564501	0.002100455	0.021670009	0.006678907
2020-09-10T01:00:00	0.1216	13.199	194.0	0.260949444	0.222968712	0.002105588	0.021722968	0.006695230
2020-09-10T01:05:00	0.1215	13.204	194.0	0.260781362	0.222691430	0.002102067	0.021686636	0.006684032
2020-09-10T01:10:00	0.1214	13.205	194.0	0.260406683	0.222073973	0.002094230	0.021605785	0.006659113
2020-09-10T01:15:00	0.1217	13.211	195.0	0.261064903	0.223159285	0.002108010	0.021747947	0.006702928
2020-09-10T01:20:00	0.1213	13.214	195.0	0.260277071	0.221860583	0.002091523	0.021577862	0.006650506
2020-09-10T01:25:00	0.1213	13.217	195.0	0.260315565	0.221923946	0.002092327	0.021586152	0.006653062
2020-09-10T01:30:00	0.1210	13.222	196.0	0.259734219	0.220967992	0.002080211	0.021461157	0.006614537
2020-09-10T01:35:00	0.1203	13.226	196.0	0.258119356	0.218323706	0.002046790	0.021116353	0.006508265
2020-09-10T01:40:00	0.1202	13.231	196.0	0.257951153	0.218049224	0.002043328	0.021080642	0.006497259
2020-09-10T01:45:00	0.1200	13.234	196.0	0.257576206	0.217438005	0.002035626	0.021001175	0.006472766
2020-09-10T01:50:00	0.1197	13.239	197.0	0.256994454	0.216491418	0.002023711	0.020878253	0.006434880
2020-09-10T01:55:00	0.1196	13.243	197.0	0.256826203	0.216218048	0.002020273	0.020842788	0.006423950
2020-09-10T02:00:00	0.1196	13.246	197.0	0.256657944	0.215944843	0.002016839	0.020807359	0.006413030
2020-09-10T02:05:00	0.1197	13.254	197.0	0.256903257	0.216343220	0.002021847	0.020859025	0.006428954
2020-09-10T02:10:00	0.1196	13.259	197.0	0.256735001	0.216069940	0.002018412	0.020823579	0.006418029
2020-09-10T02:15:00	0.1192	13.263	198.0	0.255946298	0.214791306	0.002002356	0.020657935	0.006366976
2020-09-10T02:20:00	0.1186	13.267	198.0	0.254743663	0.212849150	0.001978030	0.020406968	0.006289626
2020-09-10T02:25:00	0.1196	13.272	199.0	0.256850584	0.216257650	0.002020771	0.020847925	0.006425533
2020-09-10T02:30:00	0.1212	13.276	199.0	0.259989566	0.221387617	0.002085527	0.021516002	0.006631441
2020-09-10T02:35:00	0.1236	13.304	201.0	0.264983754	0.229677391	0.002191239	0.022606607	0.006967576
2020-09-10T02:40:00	0.1247	13.341	201.0	0.267291565	0.233561153	0.002241211	0.023122161	0.007126475
2020-09-10T02:45:00	0.1253	13.349	201.0	0.268567307	0.235722468	0.002269142	0.023410322	0.007215289
2020-09-10T02:50:00	0.1263	13.378	201.0	0.270667115	0.239302209	0.002315594	0.023889553	0.007362992
2020-09-10T02:55:00	0.1273	13.381	201.0	0.272559929	0.242552873	0.002357978	0.024326824	0.007497763
2020-09-10T03:00:00	0.1269	13.386	202.0	0.271774228	0.241200793	0.002340325	0.024144704	0.007441632
2020-09-10T03:05:00	0.1278	13.378	204.0	0.273666577	0.244463853	0.002382984	0.024584807	0.007577276
2020-09-10T03:10:00	0.1271	13.382	210.0	0.272263059	0.242041543	0.002351298	0.024257910	0.007476523
2020-09-10T03:15:00	0.1267	13.382	210.0	0.271477306	0.240690844	0.002333676	0.024076105	0.007420490
2020-09-10T03:20:00	0.1265	13.395	210.0	0.271103575	0.240049770	0.002325324	0.023989937	0.007393931
2020-09-10T03:25:00	0.1269	13.391	210.0	0.271760133	0.241176572	0.002340009	0.024141445	0.007440628
2020-09-10T03:30:00	0.1267	13.393	210.0	0.271386426	0.240534873	0.002331643	0.024055134	0.007414026
2020-09-10T03:35:00	0.1265	13.387	210.0	0.271012687	0.239894000	0.002323295	0.023969011	0.007387482
2020-09-10T03:40:00	0.1268	13.387	209.0	0.271669259	0.241020450	0.002337973	0.024120439	0.007434153
2020-09-10T03:45:00	0.1262	13.380	209.0	0.270471221	0.238967075	0.002311235	0.023844584	0.007349132
2020-09-10T03:50:00	0.1288	13.363	209.0	0.275659127	0.247924081	0.002428430	0.025053666	0.007721783
2020-09-10T03:55:00	0.1287	13.326	210.0	0.275491616	0.247632220	0.002424589	0.025014033	0.007709568
2020-09-10T04:00:00	0.1291	13.311	209.0	0.276353382	0.249135586	0.002444392	0.025218346	0.007772539
2020-09-10T04:05:00	0.1310	13.295	209.0	0.280351807	0.256172143	0.002537617	0.026180129	0.008068970
2020-09-10T04:10:00	0.1306	13.279	209.0	0.279412600	0.254510244	0.002515521	0.025952164	0.007998709
2020-09-10T04:15:00	0.1308	13.267	209.0	0.279913187	0.255395325	0.002527283	0.026073510	0.008036109
2020-09-10T04:20:00	0.1322	13.251	209.0	0.282675450	0.260307652	0.002592812	0.026749560	0.008244474
2020-09-10T04:25:00	0.1335	13.235	209.0	0.285436183	0.265265304	0.002659368	0.027436210	0.008456106
2020-09-10T04:30:00	0.1341	13.223	208.0	0.286552425	0.267283460	0.002686582	0.027716972	0.008542640
2020-09-10T04:35:00	0.1349	13.215	209.0	0.288284480	0.270430551	0.002729157	0.028156213	0.008678018
2020-09-10T04:40:00	0.1352	13.204	208.0	0.288989503	0.271716973	0.002746609	0.028336255	0.008733509
2020-09-10T04:45:00	0.1364	13.189	208.0	0.291336459	0.276021923	0.002805210	0.028940839	0.008919848
2020-09-10T04:50:00	0.1370	13.179	208.0	0.292656631	0.278458736	0.002838519	0.029284472	0.009025759
2020-09-10T04:55:00	0.1373	13.163	207.0	0.293155933	0.279383225	0.002851181	0.029415107	0.009066022
2020-09-10T05:00:00	0.1374	13.152	207.0	0.293450050	0.279928538	0.002858656	0.029492230	0.009089792
2020-09-10T05:05:00	0.1381	13.138	207.0	0.294769715	0.282381996	0.002892350	0.029839845	0.009196930
2020-09-10T05:10:00	0.1380	13.125	208.0	0.294653566	0.282165617	0.002889375	0.029809146	0.009187468
2020-09-10T05:15:00	0.1398	13.117	207.0	0.298433011	0.289250169	0.002987195	0.030818335	0.009498510
2020-09-10T05:20:00	0.1400	13.107	207.0	0.298726854	0.289804749	0.002994886	0.030897688	0.009522968
2020-09-10T05:25:00	0.1405	13.100	207.0	0.299840386	0.291911300	0.003024147	0.031199572	0.009616011
2020-09-10T05:30:00	0.1401	13.092	207.0	0.298904619	0.290140516	0.002999545	0.030945757	0.009537783
2020-09-10T05:35:00	0.1408	13.087	207.0	0.300427915	0.293025922	0.003039659	0.031359602	0.009665334
2020-09-10T05:40:00	0.1416	13.082	207.0	0.301950815	0.295925207	0.003080099	0.031776818	0.009793924
2020-09-10T05:45:00	0.1420	13.079	207.0	0.302858936	0.297661040	0.003104375	0.032027269	0.009871115
2020-09-10T05:50:00	0.1426	13.073	207.0	0.303971693	0.299795117	0.003134286	0.032335851	0.009966223
2020-09-10T05:55:00	0.1425	13.071	207.0	0.303855727	0.299572351	0.003131160	0.032303605	0.009956285
2020-09-10T06:00:00	0.1429	13.065	207.0	0.304763562	0.301318541	0.003155682	0.032556586	0.010034256
2020-09-10T06:05:00	0.1433	13.063	207.0	0.305466545	0.302674278	0.003174753	0.032753340	0.010094898
2020-09-10T06:10:00	0.1435	13.059	207.0	0.305964748	0.303636973	0.003188313	0.032893233	0.010138014
2020-09-10T06:15:00	0.1440	13.058	207.0	0.306872271	0.305394635	0.003213107	0.033149029	0.010216853
2020-09-10T06:20:00	0.1445	13.055	207.0	0.307984302	0.307555463	0.003243654	0.033464177	0.010313984
2020-09-10T06:25:00	0.1448	13.055	207.0	0.308482305	0.308525678	0.003257393	0.033605921	0.010357671
2020-09-10T06:30:00	0.1451	13.055	207.0	0.309184869	0.309897083	0.003276838	0.033806532	0.010419501
2020-09-10T06:35:00	0.1464	13.057	207.0	0.311932787	0.315290921	0.003353596	0.034598435	0.010663574
2020-09-10T06:40:00	0.1466	13.057	207.0	0.312225985	0.315869245	0.003361853	0.034683614	0.010689827
2020-09-10T06:45:00	0.1465	13.055	207.0	0.312110171	0.315640741	0.003358590	0.034649953	0.010679452
2020-09-10T06:50:00	0.1466	13.057	194.0	0.312198862	0.315815722	0.003361088	0.034675729	0.010687396
2020-09-10T06:55:00	0.1469	13.059	193.0	0.312901021	0.317202796	0.003380910	0.034880227	0.010750425
2020-09-10T07:00:00	0.1488	13.062	203.0	0.316669285	0.324699905	0.003488548	0.035990712	0.011092687
2020-09-10T07:05:00	0.1492	13.063	189.0	0.317850200	0.326515296	0.003516769	0.036281857	0.011182421
2020-09-10T07:10:00	0.1497	13.065	190.0	0.319451505	0.328743802	0.003552653	0.036652070	0.011296524
2020-09-10T07:15:00	0.1495	13.067	190.0	0.318695452	0.327690802	0.003535684	0.036477002	0.011242566
2020-09-10T07:20:00	0.1505	13.065	193.0	0.321766620	0.331977294	0.003604909	0.037191185	0.011462684
2020-09-10T07:25:00	0.1514	13.070	180.0	0.324243953	0.335452557	0.003661320	0.037773162	0.011642055
2020-09-10T07:30:00	0.1518	13.074	180.0	0.325544489	0.337283284	0.003691139	0.038080797	0.011736871
2020-09-10T07:35:00	0.1520	13.078	179.0	0.325964765	0.337875824	0.003700805	0.038180523	0.011767608
2020-09-10T07:40:00	0.1522	13.079	180.0	0.326677885	0.338882278	0.003717240	0.038350085	0.011819869
2020-09-10T07:45:00	0.1530	13.080	180.0	0.328853788	0.341961302	0.003767652	0.038870176	0.011980166
2020-09-10T07:50:00	0.1527	13.079	189.0	0.328103000	0.340897518	0.003750213	0.038690257	0.011924713
2020-09-10T07:55:00	0.1534	13.078	187.0	0.330276621	0.343981288	0.003800832	0.039212484	0.012085668
2020-09-10T08:00:00	0.1532	13.071	187.0	0.329526619	0.342915865	0.003783321	0.039031828	0.012029988
2020-09-10T08:05:00	0.1538	13.073	187.0	0.331406074	0.345588483	0.003827292	0.039485461	0.012169803
2020-09-10T08:10:00	0.1540	13.080	198.0	0.331824540	0.346184790	0.003837122	0.039586882	0.012201061
2020-09-10T08:15:00	0.1541	13.081	192.0	0.332242878	0.346781367	0.003846965	0.039688424	0.012232358
2020-09-10T08:20:00	0.1546	13.084	188.0	0.333535783	0.348627992	0.003877477	0.040003211	0.012329378
2020-09-10T08:25:00	0.1545	13.093	187.0	0.333370708	0.348391979	0.003873573	0.039962939	0.012316966
2020-09-10T08:30:00	0.1551	13.092	188.0	0.335244890	0.351075710	0.003918028	0.040421573	0.012458321
2020-09-10T08:35:00	0.1550	13.101	193.0	0.334788846	0.350421841	0.003907183	0.040309691	0.012423838
2020-09-10T08:40:00	0.1539	13.105	195.0	0.331708416	0.346019269	0.003834393	0.039558722	0.012192382
2020-09-10T08:45:00	0.1530	13.108	194.0	0.328913513	0.342045989	0.003769042	0.038884510	0.011984583
2020-09-10T08:50:00	0.1527	13.112	190.0	0.328162759	0.340982136	0.003751599	0.038704560	0.011929121
2020-09-10T08:55:00	0.1536	13.126	191.0	0.330628408	0.344481523	0.003809062	0.039297388	0.012111837
2020-09-10T09:00:00	0.1536	13.132	192.0	0.330755078	0.344661724	0.003812028	0.039327987	0.012121267
2020-09-10T09:05:00	0.1537	13.149	192.0	0.331173744	0.345257611	0.003821840	0.039429219	0.012152468
2020-09-10T09:10:00	0.1527	13.166	190.0	0.328085135	0.340872222	0.003749799	0.038685982	0.011923395
2020-09-10T09:15:00	0.1521	13.178	208.0	0.326455231	0.338567897	0.003712104	0.038297096	0.011803537
2020-09-10T09:20:00	0.1534	13.197	194.0	0.330093313	0.343720754	0.003796548	0.039168285	0.012072046
2020-09-10T09:25:00	0.1531	13.214	194.0	0.329343210	0.342655542	0.003779046	0.038987724	0.012016395
2020-09-10T09:30:00	0.1540	13.235	194.0	0.331806724	0.346159393	0.003836703	0.039582561	0.012199730
2020-09-10T09:35:00	0.1533	13.250	204.0	0.329889060	0.343430553	0.003791778	0.039119070	0.012056877
2020-09-10T09:40:00	0.1538	13.267	206.0	0.331476136	0.345688289	0.003828936	0.039502431	0.012175033
2020-09-10T09:45:00	0.1531	13.290	206.0	0.329265653	0.342545488	0.003777239	0.038969083	0.012010650
2020-09-10T09:50:00	0.1526	13.317	207.0	0.327929873	0.340652422	0.003746198	0.038648839	0.011911947
2020-09-10T09:55:00	0.1530	13.335	208.0	0.328934448	0.342075676	0.003769529	0.038889534	0.011986132
2020-09-10T10:00:00	0.1523	13.348	208.0	0.327012727	0.339355304	0.003724972	0.038429853	0.011844454
2020-09-10T10:05:00	0.1515	13.360	203.0	0.324704010	0.336099670	0.003671852	0.037881820	0.011675545
2020-09-10T10:10:00	0.1521	13.370	195.0	0.326499333	0.338630158	0.003713121	0.038307588	0.011806771
2020-09-10T10:15:00	0.1524	13.378	195.0	0.327121392	0.339508876	0.003727484	0.038455761	0.011852439
2020-09-10T10:20:00	0.1523	13.384	196.0	0.326864740	0.339146210	0.003721554	0.038394587	0.011833585
2020-09-10T10:25:00	0.1526	13.403	195.0	0.327779368	0.340439415	0.003742710	0.038612853	0.011900856
2020-09-10T10:30:00	0.1526	13.413	193.0	0.327815571	0.340490646	0.003743549	0.038621507	0.011903524
2020-09-10T10:35:00	0.1527	13.426	209.0	0.328144430	0.340956182	0.003751174	0.038700173	0.011927769
2020-09-10T10:40:00	0.1526	13.435	208.0	0.327887972	0.340593115	0.003745227	0.038638818	0.011908859
2020-09-10T10:45:00	0.1521	13.450	209.0	0.326460010	0.338574643	0.003712215	0.038298233	0.011803887
2020-09-10T10:50:00	0.1515	13.467	209.0	0.324737205	0.336146382	0.003672613	0.037889667	0.011677963
2020-09-10T10:55:00	0.1505	13.490	210.0	0.321542686	0.331663929	0.003599835	0.037138838	0.011446551
2020-09-10T11:00:00	0.1512	13.510	210.0	0.323635864	0.334598057	0.003647426	0.037629821	0.011597876
2020-09-10T11:05:00	0.1512	13.528	210.0	0.323672177	0.334649059	0.003648255	0.037638372	0.011600512
2020-09-10T11:10:00	0.1508	13.550	210.0	0.322533621	0.333051579	0.003622320	0.037370807	0.011518046
2020-09-10T11:15:00	0.1509	13.569	210.0	0.322863770	0.333514461	0.003629829	0.037448278	0.011541923
2020-09-10T11:20:00	0.1509	13.583	210.0	0.322900104	0.333565420	0.003630656	0.037456810	0.011544553
2020-09-10T11:25:00	0.1511	13.595	210.0	0.323523824	0.334440720	0.003644869	0.037603446	0.011589747
2020-09-10T11:30:00	0.1512	13.613	210.0	0.323853730	0.334904099	0.003652400	0.037681141	0.011613694
2020-09-10T11:35:00	0.1515	13.636	210.0	0.324477009	0.335780304	0.003666653	0.037828183	0.011659013
2020-09-10T11:40:00	0.1518	13.666	211.0	0.325393253	0.337070171	0.003687664	0.038044948	0.011725823
2020-09-10T11:45:00	0.1512	13.683	211.0	0.323669085	0.334644715	0.003648184	0.037637644	0.011600287
2020-09-10T11:50:00	0.1517	13.708	211.0	0.325172547	0.336759268	0.003682596	0.037992667	0.011709709
2020-09-10T11:55:00	0.1509	13.731	211.0	0.322860675	0.333510121	0.003629759	0.037447552	0.011541699
2020-09-10T12:00:00	0.1510	13.752	211.0	0.323190744	0.333973166	0.003637275	0.037525097	0.011565599
2020-09-10T12:05:00	0.1510	13.769	211.0	0.323227069	0.334024144	0.003638103	0.037533637	0.011568232
2020-09-10T12:10:00	0.1507	13.791	211.0	0.322382046	0.332839160	0.003618875	0.037335270	0.011507093
2020-09-10T12:15:00	0.1504	13.803	211.0	0.321242395	0.331243913	0.003593038	0.037068708	0.011424936
2020-09-10T12:20:00	0.1506	13.812	211.0	0.321866886	0.332117643	0.003607183	0.037214637	0.011469913
2020-09-10T12:25:00	0.1504	13.815	211.0	0.321315150	0.331345655	0.003594684	0.037085693	0.011430171
2020-09-10T12:30:00	0.1531	13.816	211.0	0.329269031	0.342550281	0.003777318	0.038969895	0.012010900
2020-09-10T12:35:00	0.1519	13.826	211.0	0.325792128	0.337632371	0.003696833	0.038139540	0.011754977
2020-09-10T12:40:00	0.1503	13.836	211.0	0.321130155	0.331086984	0.003590499	0.037042516	0.011416863
2020-09-10T12:45:00	0.1493	13.830	212.0	0.318221842	0.327031920	0.003525078	0.036367584	0.011208842
2020-09-10T12:50:00	0.1491	13.825	211.0	0.317668599	0.326262979	0.003512713	0.036240009	0.011169523
2020-09-10T12:55:00	0.1486	13.820	211.0	0.316248597	0.323858489	0.003476426	0.035865647	0.011054141
2020-09-10T13:00:00	0.1481	13.808	211.0	0.315251911	0.321869475	0.003447812	0.035570442	0.010963156
2020-09-10T13:05:00	0.1475	13.803	211.0	0.314050635	0.319480504	0.003413523	0.035216684	0.010854124
2020-09-10T13:10:00	0.1472	13.805	211.0	0.313462561	0.318314321	0.003396815	0.035044318	0.010800999
2020-09-10T13:15:00	0.1475	13.807	211.0	0.314101208	0.319580894	0.003414962	0.035231532	0.010858700
2020-09-10T13:20:00	0.1478	13.801	211.0	0.314739794	0.320849918	0.003433168	0.035419358	0.010916590
2020-09-10T13:25:00	0.1472	13.798	211.0	0.313538426	0.318464644	0.003398968	0.035066524	0.010807843
2020-09-10T13:30:00	0.1462	13.797	212.0	0.311518795	0.314475256	0.003341960	0.034478389	0.010626574
2020-09-10T13:35:00	0.1454	13.799	211.0	0.309703121	0.310910707	0.003291229	0.033954998	0.010465260
2020-09-10T13:40:00	0.1453	13.802	211.0	0.309523841	0.310559869	0.003286246	0.033903592	0.010449416
2020-09-10T13:45:00	0.1448	13.806	211.0	0.308526130	0.308611134	0.003258604	0.033618413	0.010361521
2020-09-10T13:50:00	0.1442	13.810	211.0	0.307323607	0.306270702	0.003225483	0.033276710	0.010256205
2020-09-10T13:55:00	0.1438	13.816	211.0	0.306530236	0.304731581	0.003203748	0.033052475	0.010187094
2020-09-10T14:00:00	0.1434	13.822	212.0	0.305736763	0.303196234	0.003182103	0.032829169	0.010118269
2020-09-10T14:05:00	0.1435	13.824	211.0	0.305966788	0.303640919	0.003188368	0.032893807	0.010138191
2020-09-10T14:10:00	0.1428	13.832	211.0	0.304559024	0.300924665	0.003150146	0.032499480	0.010016655
2020-09-10T14:15:00	0.1427	13.832	211.0	0.304174836	0.300185553	0.003139766	0.032392387	0.009983648
2020-09-10T14:20:00	0.1424	13.841	212.0	0.303585844	0.299054241	0.003123894	0.032228638	0.009933179
2020-09-10T14:25:00	0.1421	13.844	212.0	0.302996795	0.297925006	0.003108071	0.032065397	0.009882867
2020-09-10T14:30:00	0.1417	13.849	211.0	0.302202862	0.296406462	0.003086825	0.031846206	0.009815310
2020-09-10T14:35:00	0.1416	13.850	212.0	0.302023363	0.296063689	0.003082034	0.031796781	0.009800077
2020-09-10T14:40:00	0.1417	13.847	212.0	0.302253530	0.296503255	0.003088178	0.031860166	0.009819613
2020-09-10T14:45:00	0.1414	13.849	212.0	0.301664350	0.295378720	0.003072467	0.031698072	0.009769654
2020-09-10T14:50:00	0.1414	13.851	212.0	0.301689686	0.295427033	0.003073141	0.031705031	0.009771799
2020-09-10T14:55:00	0.1408	13.850	212.0	0.300280922	0.292746853	0.003035774	0.031319516	0.009652979
2020-09-10T15:00:00	0.1404	13.846	212.0	0.299486625	0.291241216	0.003014832	0.031103465	0.009586390
2020-09-10T15:05:00	0.1404	13.838	212.0	0.299511970	0.291289199	0.003015499	0.031110344	0.009588510
2020-09-10T15:10:00	0.1404	13.836	212.0	0.299537316	0.291337186	0.003016166	0.031117225	0.009590631
2020-09-10T15:15:00	0.1405	13.832	212.0	0.299767579	0.291773327	0.003022229	0.031179777	0.009609910
2020-09-10T15:20:00	0.1405	13.826	212.0	0.299792924	0.291821353	0.003022897	0.031186667	0.009612034
2020-09-10T15:25:00	0.1403	13.821	212.0	0.299408429	0.291093206	0.003012775	0.031082246	0.009579850
2020-09-10T15:30:00	0.1400	13.810	212.0	0.298818964	0.289978703	0.002997300	0.030922589	0.009530642
2020-09-10T15:35:00	0.1398	13.798	212.0	0.298434404	0.289252796	0.002987231	0.030818711	0.009498626
2020-09-10T15:40:00	0.1403	13.784	212.0	0.299279538	0.290849326	0.003009387	0.031047292	0.009569077
2020-09-10T15:45:00	0.1407	13.777	212.0	0.300124550	0.292450126	0.003031644	0.031276907	0.009639847
2020-09-10T15:50:00	0.1405	13.759	212.0	0.299740076	0.291721216	0.003021504	0.031172302	0.009607606
2020-09-10T15:55:00	0.1406	13.743	212.0	0.299970332	0.292157637	0.003027574	0.031234922	0.009626906
2020-09-10T16:00:00	0.1410	13.725	212.0	0.300815244	0.293761929	0.003049912	0.031465385	0.009697937
2020-09-10T16:05:00	0.1408	13.708	212.0	0.300345623	0.292869673	0.003037483	0.031337157	0.009658416
2020-09-10T16:10:00	0.1409	13.690	211.0	0.300490665	0.293145097	0.003041319	0.031376724	0.009670611
2020-09-10T16:15:00	0.1399	13.671	211.0	0.298586504	0.289539793	0.002991211	0.030859770	0.009511281
2020-09-10T16:20:00	0.1400	13.658	211.0	0.298731589	0.289813691	0.002995010	0.030898968	0.009523362
2020-09-10T16:25:00	0.1399	13.634	211.0	0.298466765	0.289313846	0.002988077	0.030827444	0.009501318
2020-09-10T16:30:00	0.1398	13.614	211.0	0.298406895	0.289200905	0.002986511	0.030811289	0.009496338
2020-09-10T16:35:00	0.1402	13.591	211.0	0.299166824	0.290636138	0.003006426	0.031016745	0.009559662
2020-09-10T16:40:00	0.1405	13.566	211.0	0.299721741	0.291686478	0.003021021	0.031167319	0.009606070
2020-09-10T16:45:00	0.1406	13.544	211.0	0.300071705	0.292349885	0.003030249	0.031262517	0.009635411
2020-09-10T16:50:00	0.1407	13.522	211.0	0.300216754	0.292625071	0.003034078	0.031302027	0.009647589
2020-09-10T16:55:00	0.1403	13.500	211.0	0.299337241	0.290958495	0.003010904	0.031062937	0.009573899
2020-09-10T17:00:00	0.1403	13.473	211.0	0.299277380	0.290845242	0.003009330	0.031046707	0.009568896
2020-09-10T17:05:00	0.1406	13.451	211.0	0.300037195	0.292284431	0.003029338	0.031253121	0.009632515
2020-09-10T17:10:00	0.1407	13.427	210.0	0.300182244	0.292559587	0.003033167	0.031292624	0.009644691
2020-09-10T17:15:00	0.1405	13.401	210.0	0.299712573	0.291669110	0.003020780	0.031164827	0.009605302
2020-09-10T17:20:00	0.1403	13.375	211.0	0.299447794	0.291167712	0.003013810	0.031092927	0.009583142
2020-09-10T17:25:00	0.1407	13.341	210.0	0.300207587	0.292607675	0.003033836	0.031299529	0.009646819
2020-09-10T17:30:00	0.1409	13.311	210.0	0.300557522	0.293272099	0.003043088	0.031394974	0.009676236
2020-09-10T17:35:00	0.1403	13.280	210.0	0.299268211	0.290827898	0.003009089	0.031044221	0.009568130
2020-09-10T17:40:00	0.1405	13.255	210.0	0.299823119	0.291878575	0.003023692	0.031194877	0.009614564
2020-09-10T17:45:00	0.1409	13.230	210.0	0.300582863	0.293320244	0.003043758	0.031401893	0.009678368
2020-09-10T17:50:00	0.1411	13.201	210.0	0.300932776	0.293985453	0.003053028	0.031497529	0.009707844
2020-09-10T17:55:00	0.1421	13.178	209.0	0.303126138	0.298172775	0.003111541	0.032101197	0.009893901
2020-09-10T18:00:00	0.1427	13.145	210.0	0.304294993	0.300416615	0.003143010	0.032425857	0.009993964
2020-09-10T18:05:00	0.1422	13.118	209.0	0.303211290	0.298335950	0.003113827	0.032124779	0.009901169
2020-09-10T18:10:00	0.1421	13.091	209.0	0.302946667	0.297829010	0.003106727	0.032051530	0.009878593
2020-09-10T18:15:00	0.1429	13.052	209.0	0.304729820	0.301253548	0.003154768	0.032547162	0.010031351
2020-09-10T18:20:00	0.1431	13.025	209.0	0.305079492	0.301927442	0.003164244	0.032644918	0.010061481
2020-09-10T18:25:00	0.1430	12.992	209.0	0.304814950	0.301417541	0.003157073	0.032570944	0.010038681
2020-09-10T18:30:00	0.1430	12.967	209.0	0.304959884	0.301696844	0.003161000	0.032611458	0.010051168
2020-09-10T18:35:00	0.1432	12.927	210.0	0.305309542	0.302371221	0.003170487	0.032709333	0.010081334
2020-09-10T18:40:00	0.1432	12.902	209.0	0.305249741	0.302255828	0.003168863	0.032692580	0.010076171
2020-09-10T18:45:00	0.1431	12.873	209.0	0.305189939	0.302140457	0.003167240	0.032675833	0.010071009
2020-09-10T18:50:00	0.1428	12.847	208.0	0.304515912	0.300841680	0.003148981	0.032487452	0.010012948
2020-09-10T18:55:00	0.1427	12.819	209.0	0.304251346	0.300332671	0.003141832	0.032413697	0.009990216
2020-09-10T19:00:00	0.1431	12.782	208.0	0.305010529	0.301794473	0.003162373	0.032625623	0.010055534
2020-09-10T19:05:00	0.1427	12.753	208.0	0.304336482	0.300496420	0.003144131	0.032437419	0.009997528
2020-09-10T19:10:00	0.1425	12.715	208.0	0.303867139	0.299594267	0.003131468	0.032306777	0.009957262
2020-09-10T19:15:00	0.1431	12.686	208.0	0.305035851	0.301843294	0.003163060	0.032632707	0.010057717
2020-09-10T19:20:00	0.1435	12.659	207.0	0.305999642	0.303704458	0.003189264	0.032903045	0.010141038
2020-09-10T19:25:00	0.1437	12.635	207.0	0.306349242	0.304381014	0.003198802	0.033001454	0.010171369
2020-09-10T19:30:00	0.1440	12.608	207.0	0.306903497	0.305455205	0.003213962	0.033157853	0.010219572
2020-09-10T19:35:00	0.1438	12.565	207.0	0.306434349	0.304545833	0.003201127	0.033025439	0.010178761
2020-09-10T19:40:00	0.1434	12.549	207.0	0.305760459	0.303242028	0.003182748	0.032835824	0.010120320
2020-09-10T19:45:00	0.1434	12.513	207.0	0.305700662	0.303126475	0.003181120	0.032819032	0.010115144
2020-09-10T19:50:00	0.1436	12.482	207.0	0.306050278	0.303802403	0.003190644	0.032917287	0.010145428
2020-09-10T19:55:00	0.1435	12.465	206.0	0.305990484	0.303686746	0.003189014	0.032900470	0.010140244
2020-09-10T20:00:00	0.1432	12.428	207.0	0.305316545	0.302384734	0.003170677	0.032711295	0.010081939
2020-09-10T20:05:00	0.1426	12.408	206.0	0.304028260	0.299903811	0.003135811	0.032351588	0.009971074
2020-09-10T20:10:00	0.1422	12.384	206.0	0.303149311	0.298217176	0.003112163	0.032107613	0.009895878
2020-09-10T20:15:00	0.1419	12.355	206.0	0.302679875	0.297318361	0.003099579	0.031977787	0.009855865
2020-09-10T20:20:00	0.1421	12.328	206.0	0.303029665	0.297987961	0.003108953	0.032074493	0.009885670
2020-09-10T20:25:00	0.1416	12.316	207.0	0.301945734	0.295915510	0.003079964	0.031775421	0.009793493
2020-09-10T20:30:00	0.1416	12.288	206.0	0.302090737	0.296192322	0.003083832	0.031815326	0.009805793
2020-09-10T20:35:00	0.1419	12.250	206.0	0.302645379	0.297252368	0.003098656	0.031968260	0.009852928
2020-09-10T20:40:00	0.1414	12.235	206.0	0.301561380	0.295182411	0.003069726	0.031669796	0.009760939
2020-09-10T20:45:00	0.1416	12.197	206.0	0.302116071	0.296240700	0.003084508	0.031822302	0.009807942
2020-09-10T20:50:00	0.1417	12.182	205.0	0.302261070	0.296517660	0.003088380	0.031862244	0.009820253
2020-09-10T20:55:00	0.1420	12.150	206.0	0.302815696	0.297578272	0.003103217	0.032015315	0.009867431
2020-09-10T21:00:00	0.1423	12.133	206.0	0.303370272	0.298640725	0.003118097	0.032168837	0.009914748
2020-09-10T21:05:00	0.1419	12.122	205.0	0.302696044	0.297349296	0.003100012	0.031982253	0.009857241
2020-09-10T21:10:00	0.1421	12.082	205.0	0.303045832	0.298018930	0.003109386	0.032078967	0.009887049
2020-09-10T21:15:00	0.1423	12.069	205.0	0.303395601	0.298689297	0.003118778	0.032175860	0.009916912
2020-09-10T21:20:00	0.1427	12.036	205.0	0.304359651	0.300540989	0.003144757	0.032443877	0.009999518
2020-09-10T21:25:00	0.1424	12.024	205.0	0.303685533	0.299245565	0.003126577	0.032256316	0.009941710
2020-09-10T21:30:00	0.1422	11.993	205.0	0.303216138	0.298345242	0.003113957	0.032126122	0.009901583
2020-09-10T21:35:00	0.1430	11.980	205.0	0.304794474	0.301378091	0.003156519	0.032565222	0.010036918
2020-09-10T21:40:00	0.1431	11.941	205.0	0.305144142	0.302052121	0.003165997	0.032663012	0.010067057
2020-09-10T21:45:00	0.1432	11.911	205.0	0.305289068	0.302331710	0.003169931	0.032703596	0.010079566
2020-09-10T21:50:00	0.1440	11.910	204.0	0.306866870	0.305384158	0.003212959	0.033147503	0.010216382
2020-09-10T21:55:00	0.1441	11.879	204.0	0.307216421	0.306062531	0.003222541	0.033246359	0.010246851
2020-09-10T22:00:00	0.1442	11.842	203.0	0.307361298	0.306343920	0.003226518	0.033287386	0.010259496
2020-09-10T22:05:00	0.1445	11.829	204.0	0.307971578	0.307530693	0.003243303	0.033460560	0.010312870
2020-09-10T22:10:00	0.1443	11.810	204.0	0.307558627	0.306727397	0.003231939	0.033343319	0.010276735
2020-09-10T22:15:00	0.1443	11.795	204.0	0.307554965	0.306720278	0.003231838	0.033342280	0.010276415
2020-09-10T22:20:00	0.1439	11.762	204.0	0.306732645	0.305123873	0.003209284	0.033109592	0.010204698
2020-09-10T22:25:00	0.1442	11.749	204.0	0.307342986	0.306308346	0.003226015	0.033282199	0.010257897
2020-09-10T22:30:00	0.1436	11.730	204.0	0.306111254	0.303920370	0.003192307	0.032934443	0.010150715
2020-09-10T22:35:00	0.1438	11.700	204.0	0.306516975	0.304705889	0.003203385	0.033048735	0.010185941
2020-09-10T22:40:00	0.1440	11.667	204.0	0.306922668	0.305492395	0.003214487	0.033163271	0.010221242
2020-09-10T22:45:00	0.1439	11.667	203.0	0.306714331	0.305088367	0.003208783	0.033104422	0.010203104
2020-09-10T22:50:00	0.1440	11.638	203.0	0.306915343	0.305478184	0.003214286	0.033161201	0.010220604
2020-09-10T22:55:00	0.1441	11.629	203.0	0.307116349	0.305868243	0.003219796	0.033218039	0.010238122
2020-09-10T23:00:00	0.1439	11.610	203.0	0.306703342	0.305067065	0.003208482	0.033101320	0.010202148
2020-09-10T23:05:00	0.1439	11.578	203.0	0.306699679	0.305059964	0.003208382	0.033100286	0.010201830
2020-09-10T23:10:00	0.1441	11.560	203.0	0.307105361	0.305846914	0.003219494	0.033214930	0.010237164
2020-09-10T23:15:00	0.1443	11.538	203.0	0.307511017	0.306634851	0.003230630	0.033329818	0.010272574
2020-09-10T23:20:00	0.1441	11.508	203.0	0.307098036	0.305832696	0.003219294	0.033212858	0.010236525
2020-09-10T23:25:00	0.1444	11.499	203.0	0.307708341	0.307018505	0.003236056	0.033385794	0.010289826
2020-09-10T23:30:00	0.1442	11.482	202.0	0.307295373	0.306215861	0.003224708	0.033268714	0.010253741
2020-09-10T23:35:00	0.1443	11.450	202.0	0.307496367	0.306606378	0.003230228	0.033325665	0.010271294
2020-09-10T23:40:00	0.1443	11.440	202.0	0.307492705	0.306599260	0.003230127	0.033324627	0.010270974
2020-09-10T23:45:00	0.1438	11.424	202.0	0.306465693	0.304606545	0.003201984	0.033034275	0.010181485
2020-09-10T23:50:00	0.1438	11.395	202.0	0.306462030	0.304599450	0.003201884	0.033033243	0.010181166
2020-09-10T23:55:00	0.1434	11.381	201.0	0.305639565	0.303008434	0.003179458	0.032801881	0.010109858
2020-09-11T00:00:00	0.1433	11.357	201.0	0.305431184	0.302606009	0.003173792	0.032743425	0.010091842
2020-09-11T00:05:00	0.1428	11.349	202.0	0.304403830	0.300625987	0.003145951	0.032456193	0.010003314
2020-09-11T00:10:00	0.1428	11.328	202.0	0.304400166	0.300618937	0.003145852	0.032455171	0.010002999
2020-09-11T00:15:00	0.1427	11.308	202.0	0.304191743	0.300218060	0.003140222	0.032397095	0.009985099
2020-09-11T00:20:00	0.1429	11.283	201.0	0.304597590	0.300998911	0.003151190	0.032510243	0.010019973
2020-09-11T00:25:00	0.1429	11.275	202.0	0.304593926	0.300991856	0.003151091	0.032509220	0.010019657
2020-09-11T00:30:00	0.1434	11.248	201.0	0.305613921	0.302958895	0.003178760	0.032794683	0.010107640
2020-09-11T00:35:00	0.1431	11.226	201.0	0.304996082	0.301766622	0.003161982	0.032621582	0.010054288
2020-09-11T00:40:00	0.1432	11.208	201.0	0.305197150	0.302154369	0.003167436	0.032677852	0.010071631
2020-09-11T00:45:00	0.1432	11.210	201.0	0.305398212	0.302542357	0.003172896	0.032734182	0.010088993
2020-09-11T00:50:00	0.1431	11.196	201.0	0.305189823	0.302140234	0.003167237	0.032675801	0.010070999
2020-09-11T00:55:00	0.1426	11.170	201.0	0.304162428	0.300161698	0.003139431	0.032388932	0.009982583
2020-09-11T01:00:00	0.1429	11.139	201.0	0.304773023	0.301336767	0.003155938	0.032559229	0.010035071
2020-09-11T01:05:00	0.1427	11.132	201.0	0.304359859	0.300541391	0.003144762	0.032443935	0.009999536
2020-09-11T01:10:00	0.1426	11.127	201.0	0.304151435	0.300140564	0.003139134	0.032385871	0.009981640
2020-09-11T01:15:00	0.1421	11.100	201.0	0.303123865	0.298168420	0.003111480	0.032100567	0.009893707
2020-09-11T01:20:00	0.1425	11.090	201.0	0.303939339	0.299732957	0.003133414	0.032326852	0.009963450
2020-09-11T01:25:00	0.1427	11.076	200.0	0.304345202	0.300513195	0.003144366	0.032439850	0.009998277
2020-09-11T01:30:00	0.1422	11.058	200.0	0.303317665	0.298539858	0.003116684	0.032154254	0.009910253
2020-09-11T01:35:00	0.1423	11.035	200.0	0.303518789	0.298925582	0.003122090	0.032210029	0.009927444
2020-09-11T01:40:00	0.1419	11.007	200.0	0.302695928	0.297349074	0.003100009	0.031982221	0.009857231
2020-09-11T01:45:00	0.1418	11.009	200.0	0.302487446	0.296950324	0.003094430	0.031924665	0.009839492
2020-09-11T01:50:00	0.1415	10.983	200.0	0.301869288	0.295769625	0.003077926	0.031754395	0.009787013
2020-09-11T01:55:00	0.1406	10.967	200.0	0.300021761	0.292255162	0.003028931	0.031248920	0.009631221
2020-09-11T02:00:00	0.1409	10.955	200.0	0.300632779	0.293415090	0.003045080	0.031415524	0.009682570
2020-09-11T02:05:00	0.1410	10.947	200.0	0.300833993	0.293797581	0.003050409	0.031470511	0.009699517
2020-09-11T02:10:00	0.1404	10.945	200.0	0.299600935	0.291457652	0.003017840	0.031134499	0.009595955
2020-09-11T02:15:00	0.1405	10.933	200.0	0.299802184	0.291838901	0.003023141	0.031189185	0.009612810
2020-09-11T02:20:00	0.1402	10.933	199.0	0.299183745	0.290668138	0.003006871	0.031021329	0.009561075
2020-09-11T02:25:00	0.1396	10.910	200.0	0.297950337	0.288340382	0.002974587	0.030688267	0.009458422
2020-09-11T02:30:00	0.1391	10.912	200.0	0.296921684	0.286406385	0.002947831	0.030412231	0.009373345
2020-09-11T02:35:00	0.1388	10.893	200.0	0.296302935	0.285246274	0.002931811	0.030246950	0.009322404
2020-09-11T02:40:00	0.1394	10.867	200.0	0.297529360	0.287548086	0.002963619	0.030575109	0.009423545
2020-09-11T02:45:00	0.1396	10.858	199.0	0.297935664	0.288312748	0.002974204	0.030684319	0.009457205
2020-09-11T02:50:00	0.1395	10.848	200.0	0.297727013	0.287919938	0.002968765	0.030628205	0.009439910
2020-09-11T02:55:00	0.1393	10.830	200.0	0.297313357	0.287141993	0.002958001	0.030517150	0.009405682
2020-09-11T03:00:00	0.1392	10.819	199.0	0.297104683	0.286749959	0.002952580	0.030461223	0.009388445
2020-09-11T03:05:00	0.1400	10.791	199.0	0.298740852	0.289831181	0.002995253	0.030901472	0.009524134
2020-09-11T03:10:00	0.1401	10.789	199.0	0.298942131	0.290211395	0.003000529	0.030955906	0.009540911
2020-09-11T03:15:00	0.1402	10.780	199.0	0.299143403	0.290591851	0.003005811	0.031010400	0.009557706
2020-09-11T03:20:00	0.1407	10.761	199.0	0.300164328	0.292525593	0.003032694	0.031287743	0.009643186
2020-09-11T03:25:00	0.1404	10.757	199.0	0.299545927	0.291353490	0.003016392	0.031119562	0.009591351
2020-09-11T03:30:00	0.1400	10.757	199.0	0.298722513	0.289796552	0.002994772	0.030896515	0.009522606
2020-09-11T03:35:00	0.1404	10.746	199.0	0.299538593	0.291339603	0.003016199	0.031117571	0.009590738
2020-09-11T03:40:00	0.1401	10.730	199.0	0.298920125	0.290169814	0.002999952	0.030949952	0.009539076
2020-09-11T03:45:00	0.1399	10.729	199.0	0.298506555	0.289388919	0.002989118	0.030838184	0.009504628
2020-09-11T03:50:00	0.1395	10.705	199.0	0.297682993	0.287837099	0.002967619	0.030616375	0.009436264
2020-09-11T03:55:00	0.1396	10.691	199.0	0.297884309	0.288216040	0.002972865	0.030670501	0.009452946
2020-09-11T04:00:00	0.1395	10.694	199.0	0.297675656	0.287823294	0.002967428	0.030614403	0.009435656
2020-09-11T04:05:00	0.1399	10.677	199.0	0.298435681	0.289255205	0.002987264	0.030819056	0.009498732
2020-09-11T04:10:00	0.1403	10.670	199.0	0.299400537	0.291078271	0.003012568	0.031080105	0.009579190
2020-09-11T04:15:00	0.1413	10.658	199.0	0.301389611	0.294855091	0.003065157	0.031622665	0.009746412
2020-09-11T04:20:00	0.1409	10.637	199.0	0.300510274	0.293182344	0.003041837	0.031382076	0.009672261
2020-09-11T04:25:00	0.1402	10.639	198.0	0.299220953	0.290738508	0.003007848	0.031031412	0.009564183
2020-09-11T04:30:00	0.1400	10.621	199.0	0.298751205	0.289850731	0.002995524	0.030904270	0.009524996
2020-09-11T04:35:00	0.1403	10.617	198.0	0.299306161	0.290899692	0.003010087	0.031054510	0.009571302
2020-09-11T04:40:00	0.1399	10.616	198.0	0.298631469	0.289624666	0.002992388	0.030871915	0.009515024
2020-09-11T04:45:00	0.1404	10.614	198.0	0.299596293	0.291448861	0.003017718	0.031133238	0.009595566
2020-09-11T04:50:00	0.1402	10.604	198.0	0.299126575	0.290560031	0.003005369	0.031005841	0.009556301
2020-09-11T04:55:00	0.1406	10.611	198.0	0.299886409	0.291998534	0.003025361	0.031212089	0.009619869
2020-09-11T05:00:00	0.1403	10.615	198.0	0.299416715	0.291108888	0.003012993	0.031084494	0.009580543
2020-09-11T05:05:00	0.1398	10.616	199.0	0.298332120	0.289059878	0.002984556	0.030791119	0.009490122
2020-09-11T05:10:00	0.1391	10.626	198.0	0.296837299	0.286248028	0.002945643	0.030389657	0.009366387
2020-09-11T05:15:00	0.1390	10.625	198.0	0.296777412	0.286135670	0.002944091	0.030373642	0.009361452
2020-09-11T05:20:00	0.1393	10.626	198.0	0.297332559	0.287178082	0.002958500	0.030522299	0.009407269
2020-09-11T05:25:00	0.1401	10.624	198.0	0.298912465	0.290155340	0.002999751	0.030947880	0.009538437
2020-09-11T05:30:00	0.1409	10.628	198.0	0.300491941	0.293147521	0.003041352	0.031377073	0.009670719
2020-09-11T05:35:00	0.1409	10.639	198.0	0.300636979	0.293423072	0.003045191	0.031416671	0.009682923
2020-09-11T05:40:00	0.1411	10.652	198.0	0.300986889	0.294088394	0.003054463	0.031512335	0.009712408
2020-09-11T05:45:00	0.1409	10.662	198.0	0.300517283	0.293195656	0.003042023	0.031383989	0.009672850
2020-09-11T05:50:00	0.1409	10.674	198.0	0.300662320	0.293471229	0.003045862	0.031423593	0.009685057
2020-09-11T05:55:00	0.1411	10.670	198.0	0.301012228	0.294136604	0.003055135	0.031519270	0.009714545
2020-09-11T06:00:00	0.1413	10.687	198.0	0.301362116	0.294802713	0.003064427	0.031615124	0.009744088
2020-09-11T06:05:00	0.1421	10.696	199.0	0.303145739	0.298210331	0.003112067	0.032106624	0.009895573
2020-09-11T06:10:00	0.1422	10.698	198.0	0.303290712	0.298488185	0.003115960	0.032146784	0.009907951
2020-09-11T06:15:00	0.1429	10.706	198.0	0.304664285	0.301127333	0.003152994	0.032528861	0.010025711
2020-09-11T06:20:00	0.1428	10.720	204.0	0.304399725	0.300618089	0.003145840	0.032455048	0.010002961
2020-09-11T06:25:00	0.1426	10.736	198.0	0.304135154	0.300109265	0.003138695	0.032381338	0.009980243
2020-09-11T06:30:00	0.1432	10.754	199.0	0.305303815	0.302360168	0.003170332	0.032707728	0.010080839
2020-09-11T06:35:00	0.1430	10.765	198.0	0.304834545	0.301455295	0.003157604	0.032576420	0.010040369
2020-09-11T06:40:00	0.1432	10.783	199.0	0.305388937	0.302524454	0.003172644	0.032731582	0.010088191
2020-09-11T06:45:00	0.1435	10.799	199.0	0.305943278	0.303595454	0.003187727	0.032887197	0.010136153
2020-09-11T06:50:00	0.1437	10.813	199.0	0.306292881	0.304271891	0.003197263	0.032985577	0.010166475
2020-09-11T06:55:00	0.1433	10.825	199.0	0.305414258	0.302573332	0.003173332	0.032738680	0.010090379
2020-09-11T07:00:00	0.1431	10.844	199.0	0.305149730	0.302062899	0.003166149	0.032664576	0.010067540
2020-09-11T07:05:00	0.1426	10.865	199.0	0.304066180	0.299976686	0.003136834	0.032362140	0.009974326
2020-09-11T07:10:00	0.1428	10.885	199.0	0.304415890	0.300649191	0.003146277	0.032459555	0.010004350
2020-09-11T07:15:00	0.1438	10.910	199.0	0.306607992	0.304882250	0.003205874	0.033074410	0.010193854
2020-09-11T07:20:00	0.1442	10.933	199.0	0.307366885	0.306354773	0.003226671	0.033288969	0.010259984
2020-09-11T07:25:00	0.1445	10.955	199.0	0.307921050	0.307432346	0.003241911	0.033446201	0.010308444
2020-09-11T07:30:00	0.1447	10.984	199.0	0.308270542	0.308112928	0.003251546	0.033545602	0.010339080
2020-09-11T07:35:00	0.1447	11.009	199.0	0.308415395	0.308395233	0.003255545	0.033586855	0.010351795
2020-09-11T07:40:00	0.1442	11.035	199.0	0.307332416	0.306287812	0.003225724	0.033279205	0.010256974
2020-09-11T07:45:00	0.1440	11.059	199.0	0.306863300	0.305377234	0.003212861	0.033146494	0.010216071
2020-09-11T07:50:00	0.1439	11.088	199.0	0.306803513	0.305261285	0.003211224	0.033129605	0.010210866
2020-09-11T07:55:00	0.1433	11.118	200.0	0.305515539	0.302768882	0.003176085	0.032767081	0.010099133
2020-09-11T08:00:00	0.1431	11.149	200.0	0.305046286	0.301863413	0.003163343	0.032635626	0.010058617
2020-09-11T08:05:00	0.1429	11.181	200.0	0.304781743	0.301353564	0.003156174	0.032561665	0.010035822
2020-09-11T08:10:00	0.1437	11.214	200.0	0.306359674	0.304401215	0.003199087	0.033004394	0.010172275
2020-09-11T08:15:00	0.1437	11.246	200.0	0.306299883	0.304285447	0.003197455	0.032987549	0.010167083
2020-09-11T08:20:00	0.1435	11.281	201.0	0.305830689	0.303377772	0.003184660	0.032855553	0.010126400
2020-09-11T08:25:00	0.1430	11.316	201.0	0.304952000	0.301681647	0.003160787	0.032609254	0.010050489
2020-09-11T08:30:00	0.1432	11.353	200.0	0.305301659	0.302356007	0.003170273	0.032707124	0.010080653
2020-09-11T08:35:00	0.1430	11.398	201.0	0.304832389	0.301451140	0.003157546	0.032575817	0.010040183
2020-09-11T08:40:00	0.1421	11.444	201.0	0.303134419	0.298188642	0.003111763	0.032103490	0.009894607
2020-09-11T08:45:00	0.1422	11.495	201.0	0.303279393	0.298466486	0.003115656	0.032143647	0.009906984
2020-09-11T08:50:00	0.1422	11.549	201.0	0.303219571	0.298351821	0.003114049	0.032127073	0.009901876
2020-09-11T08:55:00	0.1424	11.580	202.0	0.303569330	0.299022552	0.003123450	0.032224055	0.009931767
2020-09-11T09:00:00	0.1425	11.586	202.0	0.303919068	0.299694016	0.003132867	0.032321215	0.009961712
2020-09-11T09:05:00	0.1428	11.628	202.0	0.304473543	0.300760133	0.003147835	0.032475633	0.010009305
2020-09-11T09:10:00	0.1423	11.710	202.0	0.303389872	0.298678310	0.003118624	0.032174271	0.009916423
2020-09-11T09:15:00	0.1417	11.760	202.0	0.302306007	0.296603521	0.003089580	0.031874629	0.009824070
2020-09-11T09:20:00	0.1418	11.817	202.0	0.302451001	0.296880646	0.003093456	0.031914611	0.009836393
2020-09-11T09:25:00	0.1414	11.882	203.0	0.301571821	0.295202314	0.003070004	0.031672663	0.009761822
2020-09-11T09:30:00	0.1418	11.925	203.0	0.302331340	0.296651931	0.003090257	0.031881612	0.009826222
2020-09-11T09:35:00	0.1416	11.979	203.0	0.302066678	0.296146385	0.003083190	0.031808703	0.009803751
2020-09-11T09:40:00	0.1416	12.040	203.0	0.302006845	0.296032154	0.003081594	0.031792235	0.009798675
2020-09-11T09:45:00	0.1426	12.096	203.0	0.303995048	0.299839992	0.003134916	0.032342348	0.009968226
2020-09-11T09:50:00	0.1420	12.156	204.0	0.302911292	0.297761275	0.003105779	0.032041746	0.009875577
2020-09-11T09:55:00	0.1421	12.210	204.0	0.303056271	0.298038925	0.003109666	0.032081856	0.009887940
2020-09-11T10:00:00	0.1418	12.287	205.0	0.302382007	0.296748763	0.003091611	0.031895582	0.009830528
2020-09-11T10:05:00	0.1421	12.331	204.0	0.302994615	0.297920830	0.003108013	0.032064794	0.009882681
2020-09-11T10:10:00	0.1420	12.393	204.0	0.302787976	0.297525215	0.003102474	0.032007654	0.009865070
2020-09-11T10:15:00	0.1409	12.446	205.0	0.300532808	0.293225148	0.003042434	0.031388227	0.009674156
2020-09-11T10:20:00	0.1411	12.492	205.0	0.300940735	0.294000593	0.003053239	0.031499706	0.009708515
2020-09-11T10:25:00	0.1409	12.555	205.0	0.300529141	0.293218182	0.003042337	0.031387226	0.009673848
2020-09-11T10:30:00	0.1404	12.573	205.0	0.299502779	0.291271798	0.003015257	0.031107849	0.009587741
2020-09-11T10:35:00	0.1405	12.637	206.0	0.299705866	0.291656403	0.003020603	0.031163004	0.009604741
2020-09-11T10:40:00	0.1405	12.663	206.0	0.299704032	0.291652929	0.003020555	0.031162506	0.009604587
2020-09-11T10:45:00	0.1397	12.694	206.0	0.298062634	0.288551918	0.002977517	0.030718497	0.009467739
2020-09-11T10:50:00	0.1405	12.739	206.0	0.299700365	0.291645982	0.003020458	0.031161510	0.009604280
2020-09-11T10:55:00	0.1401	12.789	206.0	0.298878807	0.290091749	0.002998869	0.030938774	0.009535631
2020-09-11T11:00:00	0.1398	12.839	206.0	0.298262103	0.288927858	0.002982727	0.030772240	0.009484303
2020-09-11T11:05:00	0.1396	12.891	206.0	0.297850319	0.288152043	0.002971979	0.030661359	0.009450129
2020-09-11T11:10:00	0.1392	12.947	207.0	0.297028498	0.286606899	0.002950602	0.030440821	0.009382157
2020-09-11T11:15:00	0.1390	13.052	207.0	0.296616625	0.285834121	0.002939926	0.030330673	0.009348208
2020-09-11T11:20:00	0.1394	13.041	207.0	0.297434838	0.287370345	0.002961160	0.030549738	0.009415726
2020-09-11T11:25:00	0.1388	13.079	207.0	0.296202888	0.285058921	0.002929225	0.030220279	0.009314184
2020-09-11T11:30:00	0.1388	13.131	208.0	0.296201053	0.285055486	0.002929178	0.030219790	0.009314033
2020-09-11T11:35:00	0.1389	13.178	209.0	0.296404257	0.285436081	0.002934430	0.030273977	0.009330734
2020-09-11T11:40:00	0.1390	13.197	208.0	0.296607452	0.285816923	0.002939688	0.030328222	0.009347453
2020-09-11T11:45:00	0.1396	13.230	208.0	0.297835646	0.288124418	0.002971596	0.030657412	0.009448912
2020-09-11T11:50:00	0.1394	13.258	208.0	0.297423832	0.287349653	0.002960873	0.030546784	0.009414816
2020-09-11T11:55:00	0.1393	13.275	209.0	0.297216997	0.286960928	0.002955497	0.030491316	0.009397720
2020-09-11T12:00:00	0.1394	13.302	209.0	0.297420163	0.287342756	0.002960778	0.030545800	0.009414512
2020-09-11T12:05:00	0.1394	13.327	209.0	0.297418329	0.287339308	0.002960730	0.030545308	0.009414361
2020-09-11T12:10:00	0.1394	13.358	208.0	0.297416495	0.287335859	0.002960683	0.030544816	0.009414209
2020-09-11T12:15:00	0.1392	13.391	209.0	0.297004650	0.286562126	0.002949984	0.030434437	0.009380189
2020-09-11T12:20:00	0.1386	13.412	209.0	0.295772608	0.284253869	0.002918123	0.030105742	0.009278882
2020-09-11T12:25:00	0.1392	13.423	209.0	0.297000982	0.286555238	0.002949888	0.030433455	0.009379886
2020-09-11T12:30:00	0.1391	13.451	209.0	0.296999147	0.286551795	0.002949841	0.030432964	0.009379735
2020-09-11T12:35:00	0.1392	13.455	209.0	0.297202322	0.286933358	0.002955116	0.030487383	0.009396508
2020-09-11T12:40:00	0.1389	13.451	209.0	0.296585438	0.285775649	0.002939118	0.030322342	0.009345640
2020-09-11T12:45:00	0.1388	13.453	209.0	0.296378572	0.285387960	0.002933766	0.030267124	0.009328622
2020-09-11T12:50:00	0.1389	13.447	209.0	0.296581769	0.285768771	0.002939023	0.030321362	0.009345338
2020-09-11T12:55:00	0.1384	13.462	209.0	0.295554703	0.283846616	0.002912511	0.030047842	0.009261037
2020-09-11T13:00:00	0.1386	13.458	209.0	0.295962983	0.284609916	0.002923032	0.030156384	0.009294491
2020-09-11T13:05:00	0.1385	13.452	209.0	0.295756094	0.284222996	0.002917698	0.030101351	0.009277529
2020-09-11T13:10:00	0.1391	13.429	209.0	0.296984472	0.286524244	0.002949460	0.030429035	0.009378524
2020-09-11T13:15:00	0.1388	13.433	209.0	0.296367564	0.285367338	0.002933481	0.030264188	0.009327717
2020-09-11T13:20:00	0.1394	13.440	209.0	0.297595810	0.287673073	0.002965348	0.030592953	0.009429045
2020-09-11T13:25:00	0.1392	13.448	209.0	0.297183978	0.286898899	0.002954639	0.030482468	0.009394993
2020-09-11T13:30:00	0.1390	13.466	209.0	0.296772117	0.286125738	0.002943954	0.030372227	0.009361015
2020-09-11T13:35:00	0.1379	13.468	210.0	0.294514602	0.281906846	0.002885817	0.029772444	0.009176156
2020-09-11T13:40:00	0.1382	13.463	209.0	0.295128043	0.283050077	0.002901542	0.029934677	0.009226158
2020-09-11T13:45:00	0.1376	13.483	209.0	0.293895588	0.280755633	0.002870004	0.029609302	0.009125874
2020-09-11T13:50:00	0.1375	13.468	210.0	0.293688623	0.280371268	0.002864729	0.029554882	0.009109102
2020-09-11T13:55:00	0.1374	13.456	210.0	0.293481650	0.279987158	0.002859460	0.029500524	0.009092348
2020-09-11T14:00:00	0.1371	13.470	209.0	0.292864356	0.278843160	0.002843782	0.029338776	0.009042496
2020-09-11T14:05:00	0.1372	13.473	210.0	0.293067681	0.279219706	0.002848940	0.029391990	0.009058897
2020-09-11T14:10:00	0.1370	13.484	210.0	0.292655516	0.278456672	0.002838490	0.029284181	0.009025669
2020-09-11T14:15:00	0.1371	13.492	210.0	0.292858848	0.278832964	0.002843642	0.029337335	0.009042052
2020-09-11T14:20:00	0.1366	13.517	210.0	0.291831093	0.276933647	0.002817661	0.029069289	0.008959437
2020-09-11T14:25:00	0.1361	13.537	210.0	0.290803144	0.275040630	0.002791825	0.028802746	0.008877286
2020-09-11T14:30:00	0.1359	13.529	210.0	0.290390807	0.274283166	0.002781504	0.028696265	0.008844468
2020-09-11T14:35:00	0.1357	13.536	210.0	0.289978439	0.273526714	0.002771206	0.028590025	0.008811723
2020-09-11T14:40:00	0.1351	13.535	210.0	0.288744816	0.271270149	0.002740544	0.028273687	0.008714225
2020-09-11T14:45:00	0.1349	13.532	209.0	0.288332320	0.270517744	0.002730339	0.028168407	0.008681777
2020-09-11T14:50:00	0.1350	13.538	210.0	0.288535816	0.270888793	0.002735371	0.028220314	0.008697775
2020-09-11T14:55:00	0.1349	13.559	210.0	0.288328645	0.270511046	0.002730248	0.028167470	0.008681488
2020-09-11T15:00:00	0.1345	13.560	210.0	0.287505392	0.269012634	0.002709954	0.027958100	0.008616958
2020-09-11T15:05:00	0.1347	13.567	210.0	0.287914279	0.269756319	0.002720022	0.028061965	0.008648970
2020-09-11T15:10:00	0.1340	13.563	210.0	0.286474765	0.267142798	0.002684683	0.027697381	0.008536602
2020-09-11T15:15:00	0.1341	13.566	209.0	0.286678334	0.267511596	0.002689663	0.027748755	0.008552436
2020-09-11T15:20:00	0.1342	13.574	210.0	0.286881895	0.267880641	0.002694648	0.027800188	0.008568288
2020-09-11T15:25:00	0.1340	13.577	210.0	0.286469251	0.267132813	0.002684548	0.027695990	0.008536173
2020-09-11T15:30:00	0.1340	13.585	209.0	0.286467413	0.267129484	0.002684503	0.027695526	0.008536030
2020-09-11T15:35:00	0.1340	13.595	210.0	0.286465575	0.267126156	0.002684458	0.027695063	0.008535887
2020-09-11T15:40:00	0.1336	13.607	210.0	0.285642027	0.265636878	0.002664373	0.027487849	0.008472022
2020-09-11T15:45:00	0.1331	13.615	209.0	0.284612865	0.263781784	0.002639408	0.027230281	0.008392637
2020-09-11T15:50:00	0.1335	13.618	209.0	0.285432902	0.265259384	0.002659288	0.027435387	0.008455853
2020-09-11T15:55:00	0.1336	13.621	210.0	0.285636512	0.265626919	0.002664239	0.027486464	0.008471595
2020-09-11T16:00:00	0.1337	13.625	209.0	0.285840114	0.265994701	0.002669196	0.027537600	0.008487356
2020-09-11T16:05:00	0.1344	13.622	209.0	0.287308881	0.268655593	0.002705124	0.027908269	0.008601600
2020-09-11T16:10:00	0.1345	13.623	209.0	0.287545168	0.269084932	0.002710933	0.027968193	0.008620069
2020-09-11T16:15:00	0.1345	13.623	209.0	0.287370710	0.268767904	0.002706643	0.027923941	0.008606430
2020-09-11T16:20:00	0.1336	13.621	209.0	0.285552928	0.265476011	0.002662206	0.027465489	0.008465131
2020-09-11T16:25:00	0.1335	13.618	209.0	0.285378403	0.265161052	0.002657964	0.027421726	0.008451642
2020-09-11T16:30:00	0.1341	13.621	209.0	0.286641902	0.267445574	0.002688771	0.027739556	0.008549601
2020-09-11T16:35:00	0.1341	13.610	209.0	0.286672820	0.267501604	0.002689528	0.027747363	0.008552007
2020-09-11T16:40:00	0.1343	13.612	209.0	0.287114526	0.268302708	0.002700353	0.027859040	0.008586427
2020-09-11T16:45:00	0.1345	13.609	209.0	0.287556194	0.269104974	0.002711204	0.027970991	0.008620931
2020-09-11T16:50:00	0.1344	13.607	208.0	0.287176357	0.268414948	0.002701870	0.027874695	0.008591252
2020-09-11T16:55:00	0.1347	13.603	209.0	0.287823382	0.269590903	0.002717782	0.028038854	0.008641847
2020-09-11T17:00:00	0.1333	13.601	208.0	0.284978508	0.264440102	0.002648260	0.027321615	0.008420787
2020-09-11T17:05:00	0.1334	13.597	208.0	0.285214902	0.264866163	0.002653994	0.027380766	0.008439018
2020-09-11T17:10:00	0.1335	13.591	208.0	0.285451285	0.265292557	0.002659735	0.027439996	0.008457273
2020-09-11T17:15:00	0.1333	13.581	208.0	0.285071294	0.264607291	0.002650510	0.027344823	0.008427940
2020-09-11T17:20:00	0.1334	13.570	208.0	0.285102222	0.264663032	0.002651260	0.027352561	0.008430325
2020-09-11T17:25:00	0.1336	13.562	208.0	0.285544062	0.265460006	0.002661990	0.027463265	0.008464445
2020-09-11T17:30:00	0.1336	13.550	207.0	0.285574988	0.265515834	0.002662743	0.027471024	0.008466836
2020-09-11T17:35:00	0.1340	13.536	207.0	0.286427629	0.267057441	0.002683531	0.027685493	0.008532938
2020-09-11T17:40:00	0.1341	13.525	207.0	0.286663956	0.267485541	0.002689311	0.027745125	0.008551317
2020-09-11T17:45:00	0.1346	13.517	207.0	0.287721784	0.269406076	0.002715279	0.028013037	0.008633890
2020-09-11T17:50:00	0.1349	13.504	208.0	0.288368741	0.270584133	0.002731239	0.028177692	0.008684638
2020-09-11T17:55:00	0.1353	13.490	208.0	0.289015618	0.271764683	0.002747256	0.028342938	0.008735569
2020-09-11T18:00:00	0.1360	13.478	208.0	0.290483497	0.274453343	0.002783822	0.028720179	0.008851838
2020-09-11T18:05:00	0.1358	13.466	208.0	0.290103871	0.273756694	0.002774336	0.028622314	0.008821675
2020-09-11T18:10:00	0.1360	13.454	208.0	0.290545289	0.274566824	0.002785368	0.028736129	0.008856754
2020-09-11T18:15:00	0.1360	13.437	207.0	0.290576185	0.274623573	0.002786141	0.028744106	0.008859213
2020-09-11T18:20:00	0.1359	13.424	207.0	0.290401827	0.274303395	0.002781780	0.028699107	0.008845344
2020-09-11T18:25:00	0.1360	13.413	206.0	0.290637976	0.274737087	0.002787688	0.028760064	0.008864131
2020-09-11T18:30:00	0.1361	13.400	207.0	0.290668871	0.274793853	0.002788462	0.028768044	0.008866591
2020-09-11T18:35:00	0.1363	13.387	207.0	0.291110243	0.275605470	0.002799528	0.028882213	0.008901779
2020-09-11T18:40:00	0.1359	13.373	206.0	0.290320156	0.274153486	0.002779738	0.028678045	0.008838852
2020-09-11T18:45:00	0.1362	13.362	206.0	0.290966796	0.275341557	0.002795928	0.028845077	0.008890333
2020-09-11T18:50:00	0.1360	13.349	206.0	0.290587204	0.274643814	0.002786417	0.028746951	0.008860090
2020-09-11T18:55:00	0.1355	13.336	206.0	0.289591755	0.272818353	0.002761572	0.028490628	0.008781088
2020-09-11T19:00:00	0.1360	13.320	205.0	0.290443743	0.274380349	0.002782828	0.028709921	0.008848677
2020-09-11T19:05:00	0.1367	13.305	204.0	0.291911231	0.277081504	0.002819681	0.029090134	0.008965862
2020-09-11T19:10:00	0.1363	13.291	204.0	0.291121261	0.275625746	0.002799804	0.028885067	0.008902658
2020-09-11T19:15:00	0.1356	13.273	204.0	0.289715359	0.273044679	0.002764649	0.028522377	0.008790873
2020-09-11T19:20:00	0.1363	13.258	203.0	0.291183046	0.275739461	0.002801356	0.028901072	0.008907591
2020-09-11T19:25:00	0.1364	13.244	203.0	0.291419161	0.276174254	0.002807290	0.028962290	0.008926459
2020-09-11T19:30:00	0.1369	13.233	203.0	0.292476043	0.278124751	0.002833948	0.029237315	0.009011224
2020-09-11T19:35:00	0.1370	13.215	203.0	0.292506927	0.278181855	0.002834729	0.029245376	0.009013709
2020-09-11T19:40:00	0.1376	13.200	203.0	0.293768733	0.280520013	0.002866770	0.029575939	0.009115592
2020-09-11T19:45:00	0.1373	13.182	203.0	0.293184188	0.279435588	0.002851898	0.029422510	0.009068303
2020-09-11T19:50:00	0.1376	13.170	202.0	0.293830488	0.280634704	0.002868344	0.029592178	0.009120597
2020-09-11T19:55:00	0.1371	13.154	202.0	0.292835634	0.278789990	0.002843054	0.029331263	0.009040180
2020-09-11T20:00:00	0.1370	13.138	202.0	0.292661349	0.278467463	0.002838638	0.029285705	0.009026139
2020-09-11T20:05:00	0.1370	13.119	201.0	0.292692233	0.278524602	0.002839420	0.029293775	0.009028626
2020-09-11T20:10:00	0.1372	13.103	201.0	0.292928282	0.278961519	0.002845403	0.029355500	0.009047650
2020-09-11T20:15:00	0.1367	13.096	201.0	0.291933264	0.277122163	0.002820237	0.029095866	0.008967629
2020-09-11T20:20:00	0.1369	13.064	201.0	0.292374533	0.277937107	0.002831380	0.029210828	0.009003061
2020-09-11T20:25:00	0.1366	13.050	200.0	0.291789839	0.276857546	0.002816621	0.029058562	0.008956131
2020-09-11T20:30:00	0.1366	13.029	201.0	0.291820727	0.276914524	0.002817400	0.029066594	0.008958606
2020-09-11T20:35:00	0.1363	13.028	200.0	0.291235974	0.275836895	0.002802685	0.028914788	0.008911818
2020-09-11T20:40:00	0.1365	13.011	200.0	0.291472086	0.276271762	0.002808621	0.028976024	0.008930692
2020-09-11T20:45:00	0.1364	12.995	199.0	0.291297757	0.275950652	0.002804238	0.028930804	0.008916755
2020-09-11T20:50:00	0.1369	12.977	199.0	0.292354663	0.277900384	0.002830878	0.029205646	0.009001464
2020-09-11T20:55:00	0.1370	12.965	199.0	0.292590727	0.278336827	0.002836850	0.029267257	0.009020453
2020-09-11T21:00:00	0.1367	12.949	199.0	0.292006056	0.277256512	0.002822073	0.029114811	0.008973467
2020-09-11T21:05:00	0.1359	12.940	198.0	0.290395131	0.274291103	0.002781612	0.028697380	0.008844811
2020-09-11T21:10:00	0.1363	12.924	198.0	0.291246992	0.275857179	0.002802962	0.028917644	0.008912699
2020-09-11T21:15:00	0.1360	12.912	198.0	0.290456924	0.274404551	0.002783157	0.028713322	0.008849725
2020-09-11T21:20:00	0.1359	12.907	197.0	0.290282563	0.274084497	0.002778799	0.028668353	0.008835865
2020-09-11T21:25:00	0.1362	12.897	198.0	0.290929207	0.275272424	0.002794986	0.028835351	0.008887335
2020-09-11T21:30:00	0.1363	12.890	198.0	0.291165333	0.275706859	0.002800911	0.028896483	0.008906177
2020-09-11T21:35:00	0.1361	12.879	198.0	0.290785755	0.275008666	0.002791389	0.028798251	0.008875901
2020-09-11T21:40:00	0.1362	12.867	198.0	0.291021888	0.275442899	0.002797310	0.028859336	0.008894728
2020-09-11T21:45:00	0.1359	12.856	198.0	0.290231787	0.273991332	0.002777530	0.028655267	0.008831831
2020-09-11T21:50:00	0.1355	12.850	198.0	0.289441570	0.272543486	0.002757836	0.028452082	0.008769208
2020-09-11T21:55:00	0.1353	12.841	198.0	0.289061870	0.271849194	0.002748404	0.028354777	0.008739218
2020-09-11T22:00:00	0.1350	12.834	197.0	0.288476815	0.270781185	0.002733911	0.028205258	0.008693134
2020-09-11T22:05:00	0.1347	12.820	197.0	0.287804472	0.269556498	0.002717316	0.028034048	0.008640366
2020-09-11T22:10:00	0.1345	12.811	197.0	0.287542796	0.269080619	0.002710874	0.027967591	0.008619883
2020-09-11T22:15:00	0.1342	12.804	197.0	0.286870333	0.267859673	0.002694365	0.027797265	0.008567387
2020-09-11T22:20:00	0.1341	12.796	197.0	0.286608610	0.267385250	0.002687957	0.027731152	0.008547010
2020-09-11T22:25:00	0.1342	12.785	197.0	0.286757689	0.267655431	0.002691606	0.027768798	0.008558613
2020-09-11T22:30:00	0.1338	12.771	197.0	0.286085124	0.266437628	0.002675168	0.027599214	0.008506346
2020-09-11T22:35:00	0.1334	12.763	197.0	0.285207013	0.264851939	0.002653802	0.027378791	0.008438409
2020-09-11T22:40:00	0.1329	12.754	197.0	0.284123251	0.262901584	0.002627583	0.027108284	0.008355036
2020-09-11T22:45:00	0.1326	12.747	197.0	0.283655867	0.262062758	0.002616326	0.026992149	0.008319243
2020-09-11T22:50:00	0.1327	12.741	197.0	0.283805032	0.262330319	0.002619915	0.027029179	0.008330656
2020-09-11T22:55:00	0.1321	12.733	197.0	0.282515401	0.260021713	0.002588986	0.026710090	0.008232309
2020-09-11T23:00:00	0.1321	12.725	197.0	0.282459031	0.259921042	0.002587639	0.026696197	0.008228027
2020-09-11T23:05:00	0.1316	12.718	196.0	0.281580289	0.258354295	0.002566704	0.026480214	0.008161459
2020-09-11T23:10:00	0.1320	12.708	196.0	0.282346289	0.259719758	0.002584947	0.026668424	0.008219467
2020-09-11T23:15:00	0.1319	12.709	195.0	0.282084332	0.259252381	0.002578699	0.026603965	0.008199601
2020-09-11T23:20:00	0.1326	12.702	196.0	0.283466890	0.261723986	0.002611783	0.026945282	0.008304798
2020-09-11T23:25:00	0.1328	12.698	195.0	0.284027096	0.262728900	0.002625264	0.027084366	0.008347665
2020-09-11T23:30:00	0.1327	12.690	196.0	0.283765227	0.262258906	0.002618957	0.027019295	0.008327609
2020-09-11T23:35:00	0.1326	12.687	196.0	0.283503345	0.261789320	0.002612659	0.026954319	0.008307583
2020-09-11T23:40:00	0.1324	12.680	196.0	0.283241449	0.261320142	0.002606370	0.026889439	0.008287586
2020-09-11T23:45:00	0.1325	12.675	196.0	0.283390626	0.261587336	0.002609951	0.026926383	0.008298973
2020-09-11T23:50:00	0.1325	12.667	197.0	0.283334266	0.261486372	0.002608598	0.026912421	0.008294670
2020-09-11T23:55:00	0.1321	12.658	204.0	0.282455678	0.259915055	0.002587559	0.026695371	0.008227772
2020-09-12T00:00:00	0.1319	12.646	195.0	0.282193727	0.259447508	0.002581307	0.026630872	0.008207893
2020-09-12T00:05:00	0.1321	12.641	196.0	0.282548510	0.260080851	0.002589777	0.026718252	0.008234825
2020-09-12T00:10:00	0.1316	12.638	196.0	0.281464173	0.258147632	0.002563946	0.026451758	0.008152689
2020-09-12T00:15:00	0.1323	12.632	196.0	0.282846903	0.260614142	0.002596914	0.026791883	0.008257519
2020-09-12T00:20:00	0.1319	12.623	196.0	0.282173818	0.259411991	0.002580833	0.026625974	0.008206384
2020-09-12T00:25:00	0.1318	12.617	196.0	0.281911853	0.258944883	0.002574591	0.026561578	0.008186536
2020-09-12T00:30:00	0.1314	12.613	196.0	0.281033012	0.257380994	0.002553720	0.026346262	0.008120174
2020-09-12T00:35:00	0.1307	12.605	196.0	0.279742657	0.255093636	0.002523272	0.026032132	0.008023356
2020-09-12T00:40:00	0.1313	12.601	196.0	0.280920238	0.257180665	0.002551050	0.026318713	0.008111683
2020-09-12T00:45:00	0.1312	12.594	196.0	0.280658205	0.256715508	0.002544852	0.026254772	0.008091976
2020-09-12T00:50:00	0.1315	12.589	197.0	0.281218728	0.257711068	0.002558122	0.026391670	0.008134169
2020-09-12T00:55:00	0.1315	12.585	197.0	0.281367967	0.257976468	0.002561662	0.026428195	0.008145426
2020-09-12T01:00:00	0.1319	12.578	198.0	0.282134001	0.259340964	0.002579883	0.026616180	0.008203365
2020-09-12T01:05:00	0.1319	12.573	198.0	0.282077626	0.259240422	0.002578539	0.026602317	0.008199092
2020-09-12T01:10:00	0.1317	12.568	199.0	0.281610051	0.258407280	0.002567412	0.026487511	0.008163708
2020-09-12T01:15:00	0.1321	12.562	198.0	0.282581619	0.260139997	0.002590568	0.026726415	0.008237341
2020-09-12T01:20:00	0.1320	12.556	198.0	0.282319675	0.259672254	0.002584312	0.026661871	0.008217448
2020-09-12T01:25:00	0.1319	12.551	198.0	0.282057717	0.259204918	0.002578065	0.026597422	0.008197584
2020-09-12T01:30:00	0.1328	12.546	198.0	0.284056843	0.262782317	0.002625981	0.027091764	0.008349945
2020-09-12T01:35:00	0.1326	12.539	199.0	0.283589453	0.261943675	0.002614729	0.026975672	0.008314164
2020-09-12T01:40:00	0.1326	12.534	198.0	0.283533095	0.261842645	0.002613374	0.026961695	0.008309856
2020-09-12T01:45:00	0.1321	12.529	200.0	0.282448973	0.259903080	0.002587399	0.026693718	0.008227263
2020-09-12T01:50:00	0.1329	12.524	198.0	0.284242447	0.263115728	0.002630458	0.027137952	0.008364181
2020-09-12T01:55:00	0.1330	12.519	198.0	0.284391595	0.263383810	0.002634059	0.027175105	0.008375631
2020-09-12T02:00:00	0.1328	12.510	199.0	0.283924236	0.262544238	0.002622786	0.027058795	0.008339783
2020-09-12T02:05:00	0.1327	12.506	198.0	0.283662361	0.262074404	0.002616482	0.026993761	0.008319739
2020-09-12T02:10:00	0.1327	12.499	199.0	0.283811527	0.262341971	0.002620071	0.027030792	0.008331153
2020-09-12T02:15:00	0.1326	12.494	201.0	0.283549647	0.261872313	0.002613772	0.026965800	0.008311121
2020-09-12T02:20:00	0.1326	12.488	199.0	0.283493288	0.261771296	0.002612417	0.026951826	0.008306814
2020-09-12T02:25:00	0.1320	12.483	200.0	0.282409157	0.259831989	0.002586448	0.026683909	0.008224240
2020-09-12T02:30:00	0.1323	12.480	200.0	0.282969481	0.260833379	0.002599850	0.026822168	0.008266853
2020-09-12T02:35:00	0.1323	12.476	200.0	0.282913117	0.260732557	0.002598499	0.026808240	0.008262560
2020-09-12T02:40:00	0.1318	12.471	200.0	0.281828859	0.258796988	0.002572615	0.026541197	0.008180255
2020-09-12T02:45:00	0.1318	12.465	201.0	0.281978079	0.259062929	0.002576168	0.026577848	0.008191551
2020-09-12T02:50:00	0.1316	12.462	200.0	0.281510494	0.258230064	0.002565046	0.026463107	0.008156187
2020-09-12T02:55:00	0.1316	12.457	201.0	0.281454112	0.258129730	0.002563707	0.026449293	0.008151929
2020-09-12T03:00:00	0.1323	12.449	200.0	0.282836845	0.260596158	0.002596673	0.026789399	0.008256753
2020-09-12T03:05:00	0.1318	12.445	200.0	0.281958169	0.259027438	0.002575694	0.026572956	0.008190043
2020-09-12T03:10:00	0.1319	12.442	201.0	0.282107385	0.259293494	0.002579249	0.026609634	0.008201348
2020-09-12T03:15:00	0.1321	12.434	201.0	0.282462175	0.259926655	0.002587714	0.026696971	0.008228266
2020-09-12T03:20:00	0.1324	12.431	201.0	0.283228039	0.261296131	0.002606048	0.026886119	0.008286563
2020-09-12T03:25:00	0.1323	12.425	201.0	0.282966129	0.260827382	0.002599769	0.026821339	0.008266597
2020-09-12T03:30:00	0.1328	12.420	201.0	0.283937434	0.262567928	0.002623103	0.027062075	0.008340794
2020-09-12T03:35:00	0.1332	12.417	201.0	0.284703074	0.263944121	0.002641590	0.027252797	0.008399577
2020-09-12T03:40:00	0.1336	12.413	201.0	0.285674045	0.265694699	0.002665152	0.027495886	0.008474499
2020-09-12T03:45:00	0.1336	12.406	201.0	0.285617710	0.265592970	0.002663782	0.027481745	0.008470141
2020-09-12T03:50:00	0.1337	12.404	202.0	0.285766818	0.265862271	0.002667411	0.027519184	0.008481680
2020-09-12T03:55:00	0.1335	12.398	201.0	0.285505039	0.265389568	0.002661042	0.027453476	0.008461428
2020-09-12T04:00:00	0.1333	12.390	202.0	0.285037782	0.264546900	0.002649697	0.027336439	0.008425356
2020-09-12T04:05:00	0.1338	12.388	202.0	0.285977768	0.266243504	0.002672550	0.027572206	0.008498022
2020-09-12T04:10:00	0.1334	12.379	202.0	0.285274174	0.264973045	0.002655433	0.027395610	0.008443593
2020-09-12T04:15:00	0.1338	12.375	202.0	0.286008690	0.266299412	0.002673304	0.027579984	0.008500419
2020-09-12T04:20:00	0.1346	12.371	202.0	0.287564638	0.269120324	0.002711412	0.027973134	0.008621592
2020-09-12T04:25:00	0.1348	12.363	202.0	0.288093487	0.270082595	0.002724442	0.028107564	0.008663024
2020-09-12T04:30:00	0.1349	12.355	202.0	0.288211614	0.270297775	0.002727358	0.028137646	0.008672296
2020-09-12T04:35:00	0.1348	12.353	203.0	0.288124397	0.270138892	0.002725205	0.028115433	0.008665450
2020-09-12T04:40:00	0.1352	12.350	203.0	0.288858510	0.271477720	0.002743361	0.028302749	0.008723182
2020-09-12T04:45:00	0.1349	12.345	203.0	0.288360647	0.270569379	0.002731039	0.028175629	0.008684002
2020-09-12T04:50:00	0.1352	12.341	203.0	0.288889416	0.271534158	0.002744127	0.028310652	0.008725618
2020-09-12T04:55:00	0.1354	12.333	203.0	0.289212833	0.272125124	0.002752151	0.028393439	0.008751134
2020-09-12T05:00:00	0.1353	12.330	203.0	0.289125632	0.271965721	0.002749986	0.028371102	0.008744249
2020-09-12T05:05:00	0.1358	12.328	203.0	0.290064881	0.273685196	0.002773363	0.028612275	0.008818581
2020-09-12T05:10:00	0.1363	12.326	203.0	0.291209196	0.275787598	0.002802013	0.028907848	0.008909680
2020-09-12T05:15:00	0.1363	12.323	204.0	0.291122028	0.275627158	0.002799824	0.028885266	0.008902719
2020-09-12T05:20:00	0.1364	12.320	204.0	0.291445310	0.276222428	0.002807947	0.028969075	0.008928550
2020-09-12T05:25:00	0.1367	12.316	205.0	0.291973774	0.277196926	0.002821259	0.029106408	0.008970878
2020-09-12T05:30:00	0.1376	12.317	205.0	0.293733116	0.280453875	0.002865863	0.029566576	0.009112706
2020-09-12T05:35:00	0.1372	12.315	205.0	0.293030548	0.279150919	0.002847998	0.029382267	0.009055900
2020-09-12T05:40:00	0.1375	12.311	205.0	0.293558859	0.280130414	0.002861425	0.029520794	0.009098595
2020-09-12T05:45:00	0.1372	12.312	205.0	0.293061430	0.279208126	0.002848781	0.029390353	0.009058392
2020-09-12T05:50:00	0.1374	12.319	205.0	0.293384597	0.279807135	0.002856992	0.029475056	0.009084498
2020-09-12T05:55:00	0.1375	12.321	205.0	0.293707744	0.280406768	0.002865216	0.029559907	0.009110651
2020-09-12T06:00:00	0.1376	12.325	205.0	0.293825749	0.280625900	0.002868223	0.029590931	0.009120212
2020-09-12T06:05:00	0.1377	12.331	205.0	0.293943750	0.280845116	0.002871232	0.029621975	0.009129780
2020-09-12T06:10:00	0.1377	12.338	205.0	0.294061749	0.281064415	0.002874243	0.029653038	0.009139354
2020-09-12T06:15:00	0.1379	12.344	205.0	0.294384858	0.281665354	0.002882498	0.029738203	0.009165603
2020-09-12T06:20:00	0.1380	12.353	205.0	0.294707947	0.282266915	0.002890768	0.029823517	0.009191898
2020-09-12T06:25:00	0.1382	12.363	205.0	0.295031018	0.282869101	0.002899052	0.029908980	0.009218238
2020-09-12T06:30:00	0.1380	12.376	205.0	0.294738820	0.282324431	0.002891559	0.029831677	0.009194413
2020-09-12T06:35:00	0.1384	12.387	205.0	0.295472040	0.283692201	0.002910384	0.030025896	0.009254273
2020-09-12T06:40:00	0.1380	12.401	205.0	0.294564594	0.281999925	0.002887097	0.029785644	0.009180225
2020-09-12T06:45:00	0.1378	12.416	205.0	0.294272371	0.281456069	0.002879623	0.029708536	0.009156459
2020-09-12T06:50:00	0.1380	12.432	206.0	0.294595467	0.282057414	0.002887887	0.029793798	0.009182738
2020-09-12T06:55:00	0.1381	12.448	205.0	0.294918545	0.282659382	0.002896166	0.029879210	0.009209063
2020-09-12T07:00:00	0.1381	12.463	206.0	0.294831436	0.282497013	0.002893932	0.029856166	0.009201960
2020-09-12T07:05:00	0.1386	12.479	206.0	0.295769704	0.284248441	0.002918049	0.030104970	0.009278644
2020-09-12T07:10:00	0.1387	12.497	206.0	0.296092714	0.284852675	0.002926380	0.030190926	0.009305136
2020-09-12T07:15:00	0.1391	12.515	206.0	0.296825758	0.286226374	0.002945344	0.030386570	0.009365436
2020-09-12T07:20:00	0.1390	12.535	205.0	0.296738678	0.286063012	0.002943087	0.030363287	0.009358260
2020-09-12T07:25:00	0.1392	12.554	206.0	0.297061633	0.286669116	0.002951462	0.030449694	0.009384891
2020-09-12T07:30:00	0.1393	12.576	206.0	0.297384569	0.287275842	0.002959852	0.030536250	0.009411569
2020-09-12T07:35:00	0.1386	12.594	206.0	0.295862303	0.284421593	0.002920436	0.030129595	0.009286234
2020-09-12T07:40:00	0.1389	12.617	206.0	0.296390346	0.285410018	0.002934071	0.030270265	0.009329590
2020-09-12T07:45:00	0.1392	12.638	206.0	0.297123352	0.286785021	0.002953065	0.030466224	0.009389986
2020-09-12T07:50:00	0.1394	12.657	206.0	0.297446284	0.287391867	0.002961457	0.030552809	0.009416673
2020-09-12T07:55:00	0.1395	12.689	206.0	0.297769199	0.287999336	0.002969865	0.030639545	0.009443405
2020-09-12T08:00:00	0.1394	12.728	206.0	0.297477142	0.287449887	0.002962260	0.030561091	0.009419225
2020-09-12T08:05:00	0.1392	12.746	206.0	0.297185070	0.286900949	0.002954668	0.030482760	0.009395083
2020-09-12T08:10:00	0.1398	12.791	194.0	0.298327918	0.289051955	0.002984447	0.030789986	0.009489773
2020-09-12T08:15:00	0.1403	12.822	193.0	0.299265612	0.290822980	0.003009021	0.031043516	0.009567913
2020-09-12T08:20:00	0.1402	12.877	192.0	0.299178569	0.290658349	0.003006735	0.031019927	0.009560643
2020-09-12T08:25:00	0.1410	12.901	193.0	0.300730800	0.293601387	0.003047675	0.031442303	0.009690823
2020-09-12T08:30:00	0.1411	12.938	194.0	0.301053532	0.294215197	0.003056231	0.031530576	0.009718030
2020-09-12T08:35:00	0.1416	12.990	194.0	0.301990790	0.296001508	0.003081166	0.031787817	0.009797314
2020-09-12T08:40:00	0.1419	13.041	195.0	0.302723092	0.297401050	0.003100736	0.031989725	0.009859544
2020-09-12T08:45:00	0.1419	13.086	207.0	0.302636100	0.297234618	0.003098407	0.031965698	0.009852138
2020-09-12T08:50:00	0.1418	13.153	209.0	0.302344285	0.296676670	0.003090603	0.031885181	0.009827322
2020-09-12T08:55:00	0.1422	13.219	209.0	0.303281341	0.298470221	0.003115708	0.032144187	0.009907151
2020-09-12T09:00:00	0.1423	13.218	208.0	0.303399150	0.298696103	0.003118874	0.032176844	0.009917216
2020-09-12T09:05:00	0.1419	13.228	209.0	0.302697760	0.297352580	0.003100058	0.031982727	0.009857387
2020-09-12T09:10:00	0.1424	13.318	209.0	0.303634761	0.299148115	0.003125210	0.032242218	0.009937365
2020-09-12T09:15:00	0.1429	13.316	209.0	0.304776363	0.301343200	0.003156028	0.032560162	0.010035358
2020-09-12T09:20:00	0.1432	13.352	209.0	0.305303606	0.302359765	0.003170326	0.032707670	0.010080821
2020-09-12T09:25:00	0.1429	13.417	209.0	0.304602437	0.301008242	0.003151321	0.032511595	0.010020389
2020-09-12T09:30:00	0.1435	13.481	210.0	0.305948565	0.303605677	0.003187872	0.032888683	0.010136611
2020-09-12T09:35:00	0.1437	13.504	210.0	0.306271019	0.304229567	0.003196667	0.032979419	0.010164577
2020-09-12T09:40:00	0.1438	13.539	210.0	0.306593456	0.304854081	0.003205476	0.033070308	0.010192590
2020-09-12T09:45:00	0.1442	13.583	210.0	0.307325207	0.306273809	0.003225527	0.033277163	0.010256345
2020-09-12T09:50:00	0.1437	13.623	210.0	0.306419581	0.304517230	0.003200724	0.033021277	0.010177478
2020-09-12T09:55:00	0.1436	13.659	210.0	0.306127947	0.303952669	0.003192762	0.032939140	0.010152163
2020-09-12T10:00:00	0.1432	13.676	211.0	0.305222147	0.302202591	0.003168114	0.032684852	0.010073789
2020-09-12T10:05:00	0.1433	13.727	211.0	0.305486671	0.302713138	0.003175300	0.032758984	0.010096637
2020-09-12T10:10:00	0.1424	13.837	211.0	0.303703740	0.299280515	0.003127067	0.032261373	0.009943269
2020-09-12T10:15:00	0.1428	13.784	211.0	0.304377856	0.300576013	0.003145249	0.032448951	0.010001082
2020-09-12T10:20:00	0.1422	13.814	211.0	0.303209017	0.298331594	0.003113766	0.032124149	0.009900975
2020-09-12T10:25:00	0.1415	13.870	211.0	0.301835113	0.295704420	0.003077015	0.031744998	0.009784117
2020-09-12T10:30:00	0.1421	13.881	211.0	0.303123865	0.298168420	0.003111480	0.032100567	0.009893707
2020-09-12T10:35:00	0.1416	13.937	211.0	0.301954783	0.295932779	0.003080205	0.031777910	0.009794260
2020-09-12T10:40:00	0.1409	13.942	212.0	0.300580589	0.293315923	0.003043698	0.031401272	0.009678177
2020-09-12T10:45:00	0.1402	13.944	211.0	0.299206074	0.290710368	0.003007457	0.031027380	0.009562940
2020-09-12T10:50:00	0.1401	14.016	212.0	0.298856058	0.290048773	0.002998272	0.030932621	0.009533734
2020-09-12T10:55:00	0.1395	14.031	212.0	0.297686127	0.287842997	0.002967700	0.030617217	0.009436524
2020-09-12T11:00:00	0.1392	14.052	212.0	0.297131014	0.286799412	0.002953264	0.030468277	0.009390619
2020-09-12T11:05:00	0.1392	14.074	212.0	0.297190898	0.286911897	0.002954819	0.030484322	0.009395564
2020-09-12T11:10:00	0.1392	14.105	213.0	0.297045774	0.286639336	0.002951051	0.030445447	0.009383582
2020-09-12T11:15:00	0.1389	14.144	213.0	0.296490598	0.285597876	0.002936664	0.030297019	0.009337836
2020-09-12T11:20:00	0.1377	14.160	212.0	0.294089605	0.281116197	0.002874954	0.029660375	0.009141615
2020-09-12T11:25:00	0.1367	14.172	212.0	0.291892777	0.277047452	0.002819216	0.029085333	0.008964382
2020-09-12T11:30:00	0.1362	14.217	212.0	0.290926627	0.275267679	0.002794921	0.028834683	0.008887129
2020-09-12T11:35:00	0.1358	14.226	213.0	0.290165574	0.273869864	0.002775877	0.028638206	0.008826573
2020-09-12T11:40:00	0.1355	14.260	213.0	0.289609705	0.272851215	0.002762019	0.028495237	0.008782509
2020-09-12T11:45:00	0.1356	14.252	213.0	0.289669670	0.272961010	0.002763511	0.028510639	0.008787256
2020-09-12T11:50:00	0.1353	14.299	213.0	0.289113749	0.271944003	0.002749691	0.028368060	0.008743311
2020-09-12T11:55:00	0.1353	14.303	213.0	0.289173721	0.272053621	0.002751180	0.028383419	0.008748045
2020-09-12T12:00:00	0.1351	14.307	213.0	0.288617747	0.271038258	0.002737398	0.028241229	0.008704221
2020-09-12T12:05:00	0.1356	14.316	213.0	0.289704245	0.273024325	0.002764372	0.028519521	0.008789993
2020-09-12T12:10:00	0.1359	14.334	213.0	0.290380020	0.274263364	0.002781234	0.028693483	0.008843610
2020-09-12T12:15:00	0.1358	14.370	213.0	0.290029449	0.273620230	0.002772479	0.028603153	0.008815770
2020-09-12T12:20:00	0.1354	14.360	213.0	0.289268268	0.272226486	0.002753528	0.028407644	0.008755512
2020-09-12T12:25:00	0.1352	14.366	213.0	0.288917624	0.271585675	0.002744826	0.028317866	0.008727841
2020-09-12T12:30:00	0.1355	14.407	213.0	0.289593499	0.272821545	0.002761615	0.028491076	0.008781226
2020-09-12T12:35:00	0.1352	14.406	213.0	0.288832256	0.271429779	0.002742710	0.028296036	0.008721113
2020-09-12T12:40:00	0.1342	14.435	213.0	0.286838671	0.267802256	0.002693589	0.027789262	0.008564920
2020-09-12T12:45:00	0.1334	14.464	213.0	0.285255254	0.264938926	0.002654973	0.027390872	0.008442133
2020-09-12T12:50:00	0.1324	14.499	213.0	0.283054738	0.260985919	0.002601892	0.026843245	0.008273349
2020-09-12T12:55:00	0.1332	14.520	213.0	0.284758883	0.264044580	0.002642941	0.027266732	0.008403872
2020-09-12T13:00:00	0.1329	14.556	213.0	0.284202436	0.263043836	0.002629493	0.027127991	0.008361110
2020-09-12T13:05:00	0.1330	14.555	213.0	0.284467959	0.263521123	0.002635904	0.027194139	0.008381498
2020-09-12T13:10:00	0.1327	14.611	213.0	0.283705962	0.262152598	0.002617531	0.027004582	0.008323074
2020-09-12T13:15:00	0.1328	14.605	212.0	0.283971511	0.262629102	0.002623925	0.027070546	0.008343405
2020-09-12T13:20:00	0.1322	14.631	212.0	0.282798336	0.260527305	0.002595752	0.026779890	0.008253822
2020-09-12T13:25:00	0.1318	14.630	211.0	0.281830489	0.258799892	0.002572654	0.026541597	0.008180378
2020-09-12T13:30:00	0.1317	14.658	211.0	0.281684944	0.258540635	0.002569192	0.026505879	0.008169369
2020-09-12T13:35:00	0.1316	14.638	211.0	0.281539395	0.258281502	0.002565733	0.026470190	0.008158370
2020-09-12T13:40:00	0.1313	14.642	210.0	0.280982588	0.257291411	0.002552526	0.026333942	0.008116377
2020-09-12T13:45:00	0.1312	14.674	210.0	0.280631372	0.256667899	0.002544218	0.026248229	0.008089959
2020-09-12T13:50:00	0.1310	14.700	210.0	0.280280131	0.256045118	0.002535927	0.026162688	0.008063594
2020-09-12T13:55:00	0.1310	14.692	209.0	0.280340207	0.256151582	0.002537344	0.026177306	0.008068100
2020-09-12T14:00:00	0.1312	14.698	209.0	0.280605937	0.256622773	0.002543617	0.026242029	0.008088048
2020-09-12T14:05:00	0.1313	14.706	208.0	0.280871652	0.257094383	0.002549900	0.026306849	0.008108027
2020-09-12T14:10:00	0.1310	14.732	207.0	0.280314770	0.256106501	0.002536744	0.026171116	0.008066192
2020-09-12T14:15:00	0.1300	14.753	208.0	0.278112048	0.252218133	0.002485124	0.025638571	0.007902057
2020-09-12T14:20:00	0.1283	14.765	206.0	0.274673023	0.246208503	0.002405871	0.024820929	0.007650051
2020-09-12T14:25:00	0.1280	14.720	206.0	0.274115412	0.245241108	0.002393174	0.024689931	0.007609677
2020-09-12T14:30:00	0.1283	14.734	206.0	0.274793315	0.246417454	0.002408616	0.024849246	0.007658779
2020-09-12T14:35:00	0.1283	14.719	205.0	0.274647556	0.246164277	0.002405290	0.024814936	0.007648204
2020-09-12T14:40:00	0.1281	14.758	204.0	0.274295871	0.245553971	0.002397278	0.024732278	0.007622728
2020-09-12T14:45:00	0.1287	14.731	202.0	0.275591391	0.247806041	0.002426876	0.025037635	0.007716842
2020-09-12T14:50:00	0.1289	14.742	201.0	0.275857386	0.248269742	0.002432982	0.025100624	0.007736256
2020-09-12T14:55:00	0.1288	14.787	199.0	0.275711660	0.248015646	0.002429636	0.025066103	0.007725616
2020-09-12T15:00:00	0.1289	14.768	199.0	0.275977648	0.248479537	0.002435745	0.025129135	0.007745044
2020-09-12T15:05:00	0.1288	14.741	199.0	0.275831925	0.248225337	0.002432397	0.025094590	0.007734396
2020-09-12T15:10:00	0.1292	14.737	194.0	0.276509579	0.249408576	0.002447993	0.025255491	0.007783988
2020-09-12T15:15:00	0.1292	14.749	193.0	0.276569701	0.249513695	0.002449380	0.025269798	0.007788397
2020-09-12T15:20:00	0.1294	14.730	193.0	0.277041449	0.250339293	0.002460278	0.025382233	0.007823051
2020-09-12T15:25:00	0.1293	14.736	190.0	0.276689945	0.249723998	0.002452155	0.025298426	0.007797221
2020-09-12T15:30:00	0.1298	14.771	189.0	0.277779035	0.251632941	0.002477379	0.025558662	0.007877428
2020-09-12T15:35:00	0.1295	14.762	187.0	0.277221795	0.250655283	0.002464452	0.025425300	0.007836324
2020-09-12T15:40:00	0.1285	14.769	182.0	0.275223525	0.247165485	0.002418448	0.024950687	0.007690044
2020-09-12T15:45:00	0.1275	14.801	180.0	0.273018415	0.243343659	0.002368318	0.024433498	0.007530641
2020-09-12T15:50:00	0.1279	14.758	176.0	0.273902429	0.244872125	0.002388335	0.024640012	0.007594291
2020-09-12T15:55:00	0.1278	14.726	175.0	0.273756641	0.244619717	0.002385027	0.024605879	0.007583771
2020-09-12T16:00:00	0.1273	14.720	175.0	0.272580952	0.242589103	0.002358451	0.024331708	0.007499269
2020-09-12T16:05:00	0.1258	14.715	176.0	0.269530096	0.237360377	0.002290367	0.023629292	0.007282777
2020-09-12T16:10:00	0.1259	14.692	174.0	0.269776486	0.237780478	0.002295819	0.023685537	0.007300113
2020-09-12T16:15:00	0.1257	14.686	174.0	0.269404456	0.237146305	0.002287590	0.023600644	0.007273948
2020-09-12T16:20:00	0.1256	14.676	173.0	0.269238557	0.236863791	0.002283927	0.023562850	0.007262299
2020-09-12T16:25:00	0.1257	14.657	173.0	0.269278812	0.236932327	0.002284815	0.023572017	0.007265125
2020-09-12T16:30:00	0.1258	14.652	172.0	0.269525216	0.237352061	0.002290259	0.023628179	0.007282434
2020-09-12T16:35:00	0.1257	14.642	171.0	0.269359322	0.237069428	0.002286593	0.023590358	0.007270778
2020-09-12T16:40:00	0.1253	14.636	170.0	0.268574897	0.235735358	0.002269309	0.023412043	0.007215819
2020-09-12T16:45:00	0.1247	14.630	169.0	0.267377858	0.233707024	0.002243093	0.023141582	0.007132460
2020-09-12T16:50:00	0.1243	14.624	167.0	0.266386784	0.232034520	0.002221534	0.022919160	0.007063908
2020-09-12T16:55:00	0.1240	14.598	166.0	0.265808144	0.231060886	0.002209008	0.022789927	0.007024077
2020-09-12T17:00:00	0.1247	14.582	165.0	0.267292429	0.233562614	0.002241230	0.023122356	0.007126535
2020-09-12T17:05:00	0.1242	14.578	166.0	0.266301335	0.231890609	0.002219682	0.022900047	0.007058017
2020-09-12T17:10:00	0.1238	14.567	165.0	0.265516352	0.230570709	0.002202708	0.022724934	0.007004045
2020-09-12T17:15:00	0.1229	14.557	161.0	0.263492785	0.227186108	0.002159333	0.022277438	0.006866123
2020-09-12T17:20:00	0.1230	14.524	159.0	0.263739524	0.227597422	0.002164592	0.022331701	0.006882847
2020-09-12T17:25:00	0.1234	14.509	159.0	0.264605440	0.229043935	0.002183115	0.022522795	0.006941744
2020-09-12T17:30:00	0.1239	14.507	160.0	0.265677511	0.230841371	0.002206186	0.022760816	0.007015104
2020-09-12T17:35:00	0.1240	14.492	157.0	0.265924121	0.231255863	0.002211515	0.022815792	0.007032049
2020-09-12T17:40:00	0.1241	14.483	156.0	0.265964408	0.231323611	0.002212386	0.022824781	0.007034819
2020-09-12T17:45:00	0.1237	14.466	152.0	0.265179361	0.230005272	0.002195447	0.022650020	0.006980956
2020-09-12T17:50:00	0.1233	14.442	149.0	0.264394168	0.228690569	0.002178587	0.022476075	0.006927345
2020-09-12T17:55:00	0.1231	14.430	152.0	0.264021668	0.228068225	0.002170617	0.022393852	0.006902003
2020-09-12T18:00:00	0.1237	14.412	153.0	0.265300241	0.230208013	0.002198050	0.022676874	0.006989233
2020-09-12T18:05:00	0.1242	14.405	151.0	0.266165834	0.231662495	0.002216746	0.022869758	0.007048682
2020-09-12T18:10:00	0.1236	14.381	151.0	0.264968118	0.229651191	0.002190903	0.022603139	0.006966507
2020-09-12T18:15:00	0.1237	14.365	152.0	0.265214770	0.230064651	0.002196209	0.022657884	0.006983380
2020-09-12T18:20:00	0.1239	14.348	151.0	0.265667742	0.230824960	0.002205975	0.022758640	0.007014434
2020-09-12T18:25:00	0.1247	14.322	149.0	0.267358329	0.233674008	0.002242667	0.023137186	0.007131105
2020-09-12T18:30:00	0.1248	14.308	149.0	0.267398602	0.233742097	0.002243546	0.023146252	0.007133900
2020-09-12T18:35:00	0.1248	14.292	146.0	0.267438874	0.233810195	0.002244425	0.023155320	0.007136694
2020-09-12T18:40:00	0.1252	14.273	142.0	0.268304033	0.235275600	0.002263360	0.023350669	0.007196903
2020-09-12T18:45:00	0.1260	14.257	145.0	0.269993586	0.238150955	0.002300629	0.023735166	0.007315409
2020-09-12T18:50:00	0.1258	14.238	144.0	0.269621575	0.237516306	0.002292390	0.023650165	0.007289210
2020-09-12T18:55:00	0.1263	14.221	145.0	0.270486301	0.238992865	0.002311570	0.023848044	0.007350199
2020-09-12T19:00:00	0.1259	14.206	142.0	0.269702078	0.237653570	0.002294171	0.023668543	0.007294875
2020-09-12T19:05:00	0.1265	14.188	141.0	0.270978960	0.239836209	0.002322543	0.023961249	0.007385090
2020-09-12T19:10:00	0.1267	14.171	139.0	0.271431329	0.240611931	0.002332648	0.024065494	0.007417219
2020-09-12T19:15:00	0.1257	14.154	147.0	0.269410550	0.237156687	0.002287725	0.023602033	0.007274376
2020-09-12T19:20:00	0.1254	14.136	146.0	0.268832317	0.236172723	0.002274972	0.023470465	0.007233825
2020-09-12T19:25:00	0.1251	14.116	148.0	0.268047797	0.234841096	0.002257742	0.023292704	0.007179038
2020-09-12T19:30:00	0.1248	14.099	145.0	0.267469382	0.233861789	0.002245091	0.023162191	0.007138812
2020-09-12T19:35:00	0.1246	14.082	146.0	0.267097154	0.233232689	0.002236974	0.023078446	0.007113001
2020-09-12T19:40:00	0.1238	14.066	145.0	0.265487045	0.230521507	0.002202076	0.022718413	0.007002035
2020-09-12T19:45:00	0.1231	14.046	143.0	0.264082733	0.228170187	0.002171922	0.022407318	0.006906153
2020-09-12T19:50:00	0.1226	14.022	142.0	0.262884418	0.226173601	0.002146399	0.022144002	0.006824997
2020-09-12T19:55:00	0.1229	14.009	141.0	0.263544084	0.227271592	0.002160426	0.022288712	0.006869598
2020-09-12T20:00:00	0.1225	13.983	139.0	0.262758580	0.225964460	0.002143730	0.022116465	0.006816509
2020-09-12T20:05:00	0.1232	13.968	138.0	0.264243947	0.228439486	0.002175370	0.022442894	0.006917118
2020-09-12T20:10:00	0.1231	13.953	138.0	0.264077847	0.228162028	0.002171817	0.022406241	0.006905821
2020-09-12T20:15:00	0.1228	13.938	137.0	0.263292445	0.226852425	0.002155068	0.022233440	0.006852562
2020-09-12T20:20:00	0.1217	13.924	134.0	0.261061230	0.223153221	0.002107933	0.021747152	0.006702683
2020-09-12T20:25:00	0.1201	13.907	131.0	0.257795259	0.217794987	0.002040124	0.021047579	0.006487068
2020-09-12T20:30:00	0.1194	13.891	130.0	0.256388255	0.215507318	0.002011343	0.020750652	0.006395553
2020-09-12T20:35:00	0.1191	13.879	132.0	0.255808174	0.214567785	0.001999552	0.020629013	0.006358062
2020-09-12T20:40:00	0.1191	13.861	128.0	0.255641721	0.214298579	0.001996177	0.020594192	0.006347330
2020-09-12T20:45:00	0.1187	13.840	130.0	0.254854643	0.213027992	0.001980267	0.020430046	0.006296739
2020-09-12T20:50:00	0.1186	13.823	131.0	0.254688148	0.212759718	0.001976911	0.020395430	0.006286070
2020-09-12T20:55:00	0.1181	13.809	130.0	0.253693923	0.211161348	0.001956950	0.020189495	0.006222598
2020-09-12T21:00:00	0.1183	13.786	127.0	0.254148214	0.211890918	0.001966055	0.020283428	0.006251550
2020-09-12T21:05:00	0.1183	13.773	130.0	0.253981688	0.211623334	0.001962714	0.020248964	0.006240927
2020-09-12T21:10:00	0.1194	13.754	131.0	0.256297698	0.215360508	0.002009499	0.020731633	0.006389691
2020-09-12T21:15:00	0.1187	13.734	130.0	0.254890144	0.213085218	0.001980983	0.020437432	0.006299015
2020-09-12T21:20:00	0.1183	13.718	130.0	0.254102909	0.211818103	0.001965146	0.020274048	0.006248659
2020-09-12T21:25:00	0.1181	13.705	127.0	0.253729435	0.211218332	0.001957661	0.020196827	0.006224858
2020-09-12T21:30:00	0.1174	13.688	126.0	0.252113880	0.208633988	0.001925491	0.019864938	0.006122567
2020-09-12T21:35:00	0.1176	13.667	125.0	0.252568365	0.209359349	0.001934507	0.019957952	0.006151235
2020-09-12T21:40:00	0.1176	13.649	127.0	0.252608788	0.209423928	0.001935310	0.019966238	0.006153789
2020-09-12T21:45:00	0.1172	13.629	126.0	0.251821069	0.208167347	0.001919697	0.019805157	0.006104142
2020-09-12T21:50:00	0.1181	13.614	126.0	0.253724536	0.211210470	0.001957563	0.020195816	0.006224547
2020-09-12T21:55:00	0.1213	13.592	124.0	0.260174998	0.221692606	0.002089393	0.021555887	0.006643734
2020-09-12T22:00:00	0.1219	13.584	124.0	0.261454773	0.223803411	0.002116198	0.021832429	0.006728967
2020-09-12T22:05:00	0.1228	13.569	126.0	0.263466737	0.227142709	0.002158778	0.022271714	0.006864359
2020-09-12T22:10:00	0.1234	13.553	124.0	0.264652284	0.229122322	0.002184120	0.022533162	0.006944939
2020-09-12T22:15:00	0.1247	13.530	125.0	0.267281497	0.233544136	0.002240991	0.023119896	0.007125776
2020-09-12T22:20:00	0.1247	13.513	124.0	0.267228631	0.233454798	0.002239839	0.023108004	0.007122111
2020-09-12T22:25:00	0.1241	13.502	124.0	0.266144360	0.231626354	0.002216281	0.022864961	0.007047203
2020-09-12T22:30:00	0.1243	13.483	124.0	0.266504077	0.232232137	0.002224079	0.022945413	0.007071999
2020-09-12T22:35:00	0.1246	13.461	125.0	0.267070031	0.233186883	0.002236383	0.023072352	0.007111123
2020-09-12T22:40:00	0.1252	13.449	126.0	0.268254567	0.235191687	0.002262275	0.023339472	0.007193452
2020-09-12T22:45:00	0.1258	13.431	122.0	0.269644923	0.237556111	0.002292907	0.023655494	0.007290853
2020-09-12T22:50:00	0.1263	13.405	122.0	0.270622671	0.239226153	0.002314604	0.023879346	0.007359846
2020-09-12T22:55:00	0.1263	13.385	123.0	0.270569846	0.239135772	0.002313429	0.023867217	0.007356108
2020-09-12T23:00:00	0.1264	13.370	122.0	0.270723113	0.239398055	0.002316841	0.023902417	0.007366957
2020-09-12T23:05:00	0.1260	13.360	124.0	0.270051974	0.238250644	0.002301924	0.023748525	0.007319526
2020-09-12T23:10:00	0.1257	13.343	122.0	0.269380733	0.237105896	0.002287066	0.023595238	0.007272281
2020-09-12T23:15:00	0.1241	13.332	120.0	0.266028178	0.231430872	0.002213766	0.022839015	0.007039206
2020-09-12T23:20:00	0.1234	13.318	118.0	0.264530849	0.228919144	0.002181516	0.022506293	0.006936658
2020-09-12T23:25:00	0.1239	13.313	118.0	0.265716093	0.230906194	0.002207019	0.022769411	0.007017754
2020-09-12T23:30:00	0.1236	13.294	116.0	0.265044174	0.229778642	0.002192538	0.022620011	0.006971707
2020-09-12T23:35:00	0.1220	13.269	115.0	0.261688162	0.224189464	0.002121110	0.021883103	0.006744585
2020-09-12T23:40:00	0.1216	13.250	115.0	0.260809017	0.222737040	0.002102646	0.021692611	0.006685873
2020-09-12T23:45:00	0.1218	13.247	114.0	0.261375749	0.223672774	0.002114537	0.021815289	0.006723684
2020-09-12T23:50:00	0.1221	13.215	116.0	0.261942402	0.224610398	0.002126469	0.021938388	0.006761624
2020-09-12T23:55:00	0.1218	13.199	115.0	0.261269867	0.223497798	0.002112312	0.021792336	0.006716609
2020-09-13T00:00:00	0.1226	13.194	115.0	0.262869007	0.226147982	0.002146072	0.022140629	0.006823957
2020-09-13T00:05:00	0.1224	13.193	115.0	0.262609610	0.225717000	0.002140573	0.022083894	0.006806471
2020-09-13T00:10:00	0.1232	13.172	114.0	0.264208226	0.228379802	0.002174606	0.022435008	0.006914687
2020-09-13T00:15:00	0.1232	13.159	119.0	0.264155322	0.228291423	0.002173474	0.022423332	0.006911089
2020-09-13T00:20:00	0.1237	13.126	120.0	0.265134323	0.229929756	0.002194477	0.022640019	0.006977874
2020-09-13T00:25:00	0.1242	13.122	121.0	0.266319397	0.231921025	0.002220073	0.022904086	0.007059262
2020-09-13T00:30:00	0.1252	13.105	121.0	0.268329023	0.235317998	0.002263909	0.023356328	0.007198647
2020-09-13T00:35:00	0.1265	13.087	122.0	0.270955992	0.239796859	0.002322031	0.023955963	0.007383461
2020-09-13T00:40:00	0.1268	13.064	125.0	0.271521368	0.240766484	0.002334662	0.024086277	0.007423625
2020-09-13T00:45:00	0.1262	13.048	124.0	0.270438166	0.238910549	0.002310500	0.023837002	0.007346795
2020-09-13T00:50:00	0.1267	13.032	123.0	0.271415739	0.240585176	0.002332299	0.024061897	0.007416110
2020-09-13T00:55:00	0.1267	13.015	121.0	0.271362924	0.240494547	0.002331118	0.024049712	0.007412355
2020-09-13T01:00:00	0.1252	12.992	120.0	0.268424311	0.235479698	0.002266001	0.023377910	0.007205299
2020-09-13T01:05:00	0.1253	12.969	120.0	0.268577653	0.235740038	0.002269370	0.023412668	0.007216012
2020-09-13T01:10:00	0.1256	12.960	121.0	0.269143334	0.236701711	0.002281826	0.023541175	0.007255619
2020-09-13T01:15:00	0.1251	12.946	120.0	0.268059546	0.234861009	0.002257999	0.023295360	0.007179856
2020-09-13T01:20:00	0.1248	12.929	121.0	0.267594237	0.234073002	0.002247818	0.023190324	0.007147483
2020-09-13T01:25:00	0.1248	12.913	121.0	0.267541376	0.233983566	0.002246663	0.023178410	0.007143811
2020-09-13T01:30:00	0.1251	12.895	123.0	0.268107192	0.234941776	0.002259043	0.023306132	0.007183176
2020-09-13T01:35:00	0.1246	12.887	123.0	0.267023144	0.233107708	0.002235362	0.023061819	0.007107876
2020-09-13T01:40:00	0.1241	12.863	123.0	0.266145131	0.231627652	0.002216298	0.022865133	0.007047256
2020-09-13T01:45:00	0.1244	12.849	122.0	0.266711132	0.232581198	0.002228575	0.022991802	0.007086297
2020-09-13T01:50:00	0.1239	12.837	122.0	0.265626728	0.230756066	0.002205090	0.022749505	0.007011618
2020-09-13T01:55:00	0.1239	12.810	123.0	0.265573842	0.230667244	0.002203948	0.022737730	0.007007989
2020-09-13T02:00:00	0.1228	12.787	123.0	0.263457081	0.227126621	0.002158572	0.022269592	0.006863705
2020-09-13T02:05:00	0.1233	12.771	123.0	0.264436246	0.228760924	0.002179488	0.022485375	0.006930211
2020-09-13T02:10:00	0.1229	12.748	125.0	0.263557692	0.227294270	0.002160716	0.022291704	0.006870520
2020-09-13T02:15:00	0.1229	12.724	125.0	0.263504779	0.227206094	0.002159588	0.022280073	0.006866935
2020-09-13T02:20:00	0.1227	12.712	125.0	0.263245422	0.226774140	0.002154068	0.022223121	0.006849382
2020-09-13T02:25:00	0.1228	12.699	126.0	0.263398953	0.227029791	0.002157335	0.022256824	0.006859769
2020-09-13T02:30:00	0.1232	12.683	126.0	0.264171733	0.228318837	0.002173825	0.022426954	0.006912205
2020-09-13T02:35:00	0.1229	12.665	125.0	0.263499565	0.227197406	0.002159477	0.022278928	0.006866582
2020-09-13T02:40:00	0.1222	12.638	127.0	0.262207829	0.225050289	0.002132073	0.021996200	0.006779442
2020-09-13T02:45:00	0.1230	12.623	127.0	0.263806602	0.227709306	0.002166024	0.022346467	0.006887398
2020-09-13T02:50:00	0.1223	12.613	127.0	0.262308471	0.225217198	0.002134200	0.022018146	0.006786206
2020-09-13T02:55:00	0.1227	12.608	126.0	0.263081457	0.226501277	0.002150583	0.022187164	0.006838299
2020-09-13T03:00:00	0.1223	12.574	127.0	0.262409110	0.225384166	0.002136328	0.022040105	0.006792974
2020-09-13T03:05:00	0.1225	12.555	127.0	0.262769151	0.225982024	0.002143954	0.022118778	0.006817222
2020-09-13T03:10:00	0.1219	12.543	128.0	0.261477184	0.223840466	0.002116670	0.021837292	0.006730465
2020-09-13T03:15:00	0.1225	12.535	128.0	0.262663305	0.225806179	0.002141710	0.022095631	0.006810088
2020-09-13T03:20:00	0.1219	12.529	130.0	0.261577844	0.224006942	0.002118788	0.021859141	0.006737200
2020-09-13T03:25:00	0.1222	12.522	129.0	0.262144468	0.224945240	0.002130734	0.021982390	0.006775186
2020-09-13T03:30:00	0.1223	12.470	130.0	0.262298040	0.225199895	0.002133979	0.022015870	0.006785505
2020-09-13T03:35:00	0.1220	12.465	131.0	0.261625564	0.224085887	0.002119792	0.021869504	0.006740394
2020-09-13T03:40:00	0.1220	12.461	131.0	0.261779156	0.224340072	0.002123027	0.021902879	0.006750680
2020-09-13T03:45:00	0.1220	12.436	131.0	0.261726220	0.224252450	0.002121912	0.021891373	0.006747134
2020-09-13T03:50:00	0.1215	12.423	131.0	0.260640507	0.222459203	0.002099119	0.021656219	0.006674657
2020-09-13T03:55:00	0.1234	12.414	131.0	0.264510769	0.228885556	0.002181085	0.022501852	0.006935289
2020-09-13T04:00:00	0.1236	12.397	130.0	0.265076990	0.229833644	0.002193244	0.022627293	0.006973951
2020-09-13T04:05:00	0.1239	12.380	132.0	0.265727077	0.230924649	0.002207257	0.022771859	0.007018508
2020-09-13T04:10:00	0.1260	12.368	132.0	0.269882644	0.237961598	0.002298170	0.023709797	0.007307590
2020-09-13T04:15:00	0.1275	12.363	133.0	0.273004487	0.243319616	0.002368003	0.024430253	0.007529641
2020-09-13T04:20:00	0.1284	12.345	134.0	0.274888955	0.246583647	0.002410800	0.024871775	0.007665723
2020-09-13T04:25:00	0.1283	12.319	133.0	0.274714046	0.246279750	0.002406807	0.024830584	0.007653027
2020-09-13T04:30:00	0.1292	12.302	133.0	0.276597816	0.249562859	0.002450028	0.025276490	0.007790460
2020-09-13T04:35:00	0.1298	12.285	135.0	0.277863567	0.251781419	0.002479344	0.025578931	0.007883675
2020-09-13T04:40:00	0.1305	12.259	135.0	0.279334690	0.254372633	0.002513693	0.025933310	0.007992898
2020-09-13T04:45:00	0.1314	12.246	136.0	0.281011003	0.257341890	0.002553199	0.026340884	0.008118516
2020-09-13T04:50:00	0.1324	12.228	136.0	0.283097854	0.261063081	0.002602926	0.026853908	0.008276635
2020-09-13T04:55:00	0.1336	12.220	137.0	0.285594744	0.265551502	0.002663223	0.027475981	0.008468364
2020-09-13T05:00:00	0.1324	12.208	138.0	0.283159734	0.261173842	0.002604410	0.026869216	0.008281353
2020-09-13T05:05:00	0.1326	12.219	139.0	0.283601744	0.261965712	0.002615024	0.026978721	0.008315104
2020-09-13T05:10:00	0.1312	12.209	138.0	0.280754495	0.256886390	0.002547129	0.026278257	0.008099214
2020-09-13T05:15:00	0.1317	12.196	138.0	0.281607955	0.258403548	0.002567362	0.026486998	0.008163550
2020-09-13T05:20:00	0.1320	12.174	140.0	0.282255689	0.259558061	0.002582785	0.026646119	0.008212593
2020-09-13T05:25:00	0.1323	12.173	140.0	0.282903338	0.260715068	0.002598265	0.026805824	0.008261815
2020-09-13T05:30:00	0.1302	12.163	140.0	0.278615753	0.253104604	0.002496869	0.025759740	0.007939402
2020-09-13T05:35:00	0.1306	12.172	141.0	0.279469588	0.254610923	0.002516858	0.025965960	0.008002961
2020-09-13T05:40:00	0.1300	12.153	140.0	0.278266206	0.252489266	0.002488715	0.025675616	0.007913474
2020-09-13T05:45:00	0.1291	12.156	141.0	0.276445072	0.249295818	0.002446506	0.025240147	0.007779258
2020-09-13T05:50:00	0.1286	12.160	141.0	0.275240921	0.247195757	0.002418847	0.024954794	0.007691310
2020-09-13T05:55:00	0.1278	12.140	141.0	0.273624565	0.244391165	0.002382032	0.024574982	0.007574248
2020-09-13T06:00:00	0.1281	12.156	141.0	0.274273387	0.245514979	0.002396767	0.024726999	0.007621101
2020-09-13T06:05:00	0.1295	12.162	141.0	0.277186435	0.250593312	0.002463633	0.025416853	0.007833721
2020-09-13T06:10:00	0.1295	12.152	142.0	0.277217413	0.250647603	0.002464351	0.025424253	0.007836002
2020-09-13T06:15:00	0.1298	12.157	143.0	0.277865734	0.251785226	0.002479394	0.025579451	0.007883835
2020-09-13T06:20:00	0.1299	12.167	143.0	0.278102470	0.252201291	0.002484901	0.025636271	0.007901348
2020-09-13T06:25:00	0.1305	12.171	147.0	0.279162113	0.254067952	0.002509648	0.025891578	0.007980036
2020-09-13T06:30:00	0.1300	12.172	152.0	0.278164413	0.252310216	0.002486344	0.025651151	0.007905934
2020-09-13T06:35:00	0.1297	12.182	156.0	0.277578084	0.251280153	0.002472712	0.025510518	0.007862590
2020-09-13T06:40:00	0.1291	12.198	158.0	0.276374224	0.249172004	0.002444873	0.025223301	0.007774066
2020-09-13T06:45:00	0.1292	12.225	164.0	0.276611034	0.249585975	0.002450333	0.025279636	0.007791429
2020-09-13T06:50:00	0.1290	12.227	166.0	0.276230355	0.248920678	0.002441559	0.025189114	0.007763530
2020-09-13T06:55:00	0.1285	12.249	167.0	0.275026149	0.246822150	0.002413934	0.024904114	0.007675690
2020-09-13T07:00:00	0.1292	12.276	167.0	0.276498155	0.249388606	0.002447729	0.025252773	0.007783150
2020-09-13T07:05:00	0.1301	12.300	167.0	0.278381210	0.252691632	0.002491396	0.025703274	0.007921999
2020-09-13T07:10:00	0.1308	12.318	168.0	0.279852174	0.255287365	0.002525847	0.026058701	0.008031545
2020-09-13T07:15:00	0.1307	12.340	169.0	0.279677449	0.254978323	0.002521739	0.026016320	0.008018483
2020-09-13T07:20:00	0.1303	12.367	171.0	0.278885585	0.253580141	0.002503175	0.025824798	0.007959453
2020-09-13T07:25:00	0.1299	12.391	172.0	0.278093591	0.252185680	0.002484695	0.025634138	0.007900690
2020-09-13T07:30:00	0.1302	12.408	175.0	0.278536058	0.252964243	0.002495009	0.025740545	0.007933486
2020-09-13T07:35:00	0.1303	12.427	176.0	0.278772761	0.253381250	0.002500537	0.025797582	0.007951065
2020-09-13T07:40:00	0.1316	12.452	177.0	0.281477447	0.258171254	0.002564261	0.026455010	0.008153691
2020-09-13T07:45:00	0.1321	12.484	178.0	0.282536356	0.260059141	0.002589487	0.026715255	0.008233901
2020-09-13T07:50:00	0.1325	12.509	179.0	0.283389509	0.261585334	0.002609924	0.026926106	0.008298887
2020-09-13T07:55:00	0.1329	12.540	181.0	0.284242517	0.263115854	0.002630460	0.027137970	0.008364186
2020-09-13T08:00:00	0.1333	12.566	182.0	0.285095380	0.264650700	0.002651094	0.027350849	0.008429797
2020-09-13T08:05:00	0.1337	12.601	184.0	0.285742665	0.265818640	0.002666823	0.027513118	0.008479810
2020-09-13T08:10:00	0.1339	12.632	185.0	0.286184451	0.266617298	0.002677591	0.027624218	0.008514052
2020-09-13T08:15:00	0.1349	12.651	188.0	0.288269176	0.270402663	0.002728779	0.028152313	0.008676816
2020-09-13T08:20:00	0.1354	12.672	190.0	0.289326680	0.272333309	0.002754980	0.028422617	0.008760127
2020-09-13T08:25:00	0.1360	12.700	190.0	0.290589226	0.274647529	0.002786468	0.028747473	0.008860250
2020-09-13T08:30:00	0.1362	12.741	190.0	0.291030605	0.275458936	0.002797529	0.028861592	0.008895423
2020-09-13T08:35:00	0.1366	12.782	191.0	0.291677160	0.276649747	0.002813783	0.029029276	0.008947105
2020-09-13T08:40:00	0.1362	12.825	191.0	0.290887156	0.275195092	0.002793931	0.028824472	0.008883982
2020-09-13T08:45:00	0.1365	12.856	192.0	0.291533728	0.276385349	0.002810172	0.028992024	0.008935623
2020-09-13T08:50:00	0.1364	12.907	192.0	0.291359401	0.276064176	0.002805787	0.028946789	0.008921681
2020-09-13T08:55:00	0.1369	12.934	193.0	0.292416294	0.278014296	0.002832436	0.029221723	0.009006419
2020-09-13T09:00:00	0.1380	12.916	193.0	0.294703696	0.282258996	0.002890659	0.029822393	0.009191551
2020-09-13T09:05:00	0.1384	12.970	193.0	0.295554888	0.283846963	0.002912516	0.030047891	0.009261052
2020-09-13T09:10:00	0.1383	13.013	193.0	0.295175613	0.283138831	0.002902764	0.029947281	0.009230043
2020-09-13T09:15:00	0.1383	13.068	193.0	0.295206483	0.283196433	0.002903557	0.029955462	0.009232564
2020-09-13T09:20:00	0.1376	13.101	193.0	0.293801632	0.280581109	0.002867609	0.029584589	0.009118258
2020-09-13T09:25:00	0.1371	13.163	194.0	0.292806773	0.278736567	0.002842322	0.029323716	0.009037854
2020-09-13T09:30:00	0.1367	13.189	194.0	0.292016933	0.277276590	0.002822348	0.029117642	0.008974340
2020-09-13T09:35:00	0.1363	13.280	194.0	0.291226978	0.275820334	0.002802459	0.028912457	0.008911100
2020-09-13T09:40:00	0.1355	13.297	194.0	0.289410529	0.272486691	0.002757064	0.028444119	0.008766754
2020-09-13T09:45:00	0.1353	13.352	194.0	0.289030826	0.271792470	0.002747634	0.028346831	0.008736768
2020-09-13T09:50:00	0.1348	13.374	194.0	0.288035085	0.269976243	0.002723001	0.028092698	0.008658442
2020-09-13T09:55:00	0.1345	13.433	194.0	0.287449915	0.268911812	0.002708590	0.027944026	0.008612620
2020-09-13T10:00:00	0.1340	13.486	195.0	0.286453873	0.267104963	0.002684172	0.027692111	0.008534978
2020-09-13T10:05:00	0.1330	13.531	194.0	0.284428439	0.263450056	0.002634949	0.027184287	0.008378461
2020-09-13T10:10:00	0.1328	13.578	194.0	0.284046532	0.262763800	0.002625733	0.027089200	0.008349154
2020-09-13T10:15:00	0.1325	13.610	194.0	0.283253531	0.261341778	0.002606660	0.026892430	0.008288508
2020-09-13T10:20:00	0.1323	13.645	194.0	0.282871535	0.260658191	0.002597504	0.026797967	0.008259394
2020-09-13T10:25:00	0.1323	13.663	194.0	0.282900638	0.260710237	0.002598201	0.026805157	0.008261610
2020-09-13T10:30:00	0.1320	13.699	194.0	0.282313039	0.259660409	0.002584154	0.026660237	0.008216944
2020-09-13T10:35:00	0.1320	13.725	194.0	0.282342145	0.259712359	0.002584848	0.026667404	0.008219153
2020-09-13T10:40:00	0.1322	13.773	195.0	0.282782388	0.260498792	0.002595370	0.026775953	0.008252609
2020-09-13T10:45:00	0.1324	13.786	194.0	0.283222592	0.261286377	0.002605918	0.026884771	0.008286148
2020-09-13T10:50:00	0.1315	13.873	194.0	0.281195858	0.257670408	0.002557579	0.026386076	0.008132445
2020-09-13T10:55:00	0.1321	13.898	196.0	0.282458566	0.259920210	0.002587628	0.026696082	0.008227992
2020-09-13T11:00:00	0.1321	13.960	196.0	0.282487670	0.259972186	0.002588323	0.026703255	0.008230202
2020-09-13T11:05:00	0.1322	14.007	196.0	0.282722342	0.260391457	0.002593933	0.026761131	0.008248040
2020-09-13T11:10:00	0.1315	14.042	194.0	0.281312306	0.257877466	0.002560341	0.026414569	0.008141227
2020-09-13T11:15:00	0.1302	14.071	190.0	0.278667623	0.253195982	0.002498081	0.025772238	0.007943254
2020-09-13T11:20:00	0.1299	14.089	188.0	0.278079514	0.252160932	0.002484367	0.025630758	0.007899648
2020-09-13T11:25:00	0.1300	14.196	188.0	0.278108645	0.252212150	0.002485045	0.025637754	0.007901805
2020-09-13T11:30:00	0.1298	14.188	188.0	0.277726246	0.251540240	0.002476153	0.025546009	0.007873528
2020-09-13T11:35:00	0.1301	14.204	187.0	0.278372657	0.252676580	0.002491197	0.025701217	0.007921365
2020-09-13T11:40:00	0.1295	14.335	187.0	0.277167158	0.250559530	0.002463187	0.025412248	0.007832302
2020-09-13T11:45:00	0.1297	14.327	187.0	0.277607870	0.251332430	0.002473404	0.025517651	0.007864788
2020-09-13T11:50:00	0.1288	14.391	185.0	0.275784640	0.248142882	0.002431311	0.025083387	0.007730944
2020-09-13T11:55:00	0.1280	14.448	186.0	0.274166632	0.245329889	0.002394338	0.024701946	0.007613380
2020-09-13T12:00:00	0.1288	14.506	186.0	0.275637070	0.247885639	0.002427924	0.025048444	0.007720174
2020-09-13T12:05:00	0.1286	14.516	185.0	0.275254469	0.247219334	0.002419157	0.024957993	0.007692296
2020-09-13T12:10:00	0.1281	14.587	182.0	0.274254098	0.245481531	0.002396328	0.024722471	0.007619706
2020-09-13T12:15:00	0.1284	14.658	181.0	0.274900988	0.246604561	0.002411074	0.024874610	0.007666596
2020-09-13T12:20:00	0.1278	14.676	180.0	0.273694592	0.244512331	0.002383619	0.024591360	0.007579296
2020-09-13T12:25:00	0.1264	14.738	175.0	0.270839519	0.239597357	0.002319434	0.023929173	0.007375204
2020-09-13T12:30:00	0.1268	14.720	176.0	0.271692946	0.241061139	0.002338504	0.024125913	0.007435841
2020-09-13T12:35:00	0.1268	14.738	175.0	0.271722117	0.241111255	0.002339157	0.024132656	0.007437919
2020-09-13T12:40:00	0.1269	14.743	171.0	0.271751288	0.241161375	0.002339811	0.024139400	0.007439998
2020-09-13T12:45:00	0.1265	14.772	171.0	0.270956226	0.239797259	0.002322036	0.023956017	0.007383477
2020-09-13T12:50:00	0.1266	14.794	169.0	0.271191473	0.240200466	0.002327286	0.024010185	0.007400172
2020-09-13T12:55:00	0.1259	14.812	165.0	0.269777957	0.237782987	0.002295851	0.023685873	0.007300216
2020-09-13T13:00:00	0.1262	14.827	166.0	0.270425490	0.238888875	0.002310218	0.023834094	0.007345899
2020-09-13T13:05:00	0.1264	14.830	168.0	0.270866852	0.239644167	0.002320043	0.023935458	0.007377141
2020-09-13T13:10:00	0.1259	14.815	166.0	0.269865508	0.237932356	0.002297790	0.023705879	0.007306382
2020-09-13T13:15:00	0.1263	14.835	164.0	0.270513029	0.239038579	0.002312165	0.023854177	0.007352089
2020-09-13T13:20:00	0.1266	14.823	165.0	0.271160455	0.240147281	0.002326594	0.024003039	0.007397970
2020-09-13T13:25:00	0.1269	14.814	163.0	0.271807786	0.241258462	0.002341078	0.024152465	0.007444024
2020-09-13T13:30:00	0.1267	14.837	164.0	0.271424864	0.240600836	0.002332503	0.024064003	0.007416759
2020-09-13T13:35:00	0.1261	14.843	163.0	0.270217539	0.238533438	0.002305598	0.023786430	0.007331209
2020-09-13T13:40:00	0.1262	14.840	161.0	0.270452826	0.238935617	0.002310826	0.023840364	0.007347832
2020-09-13T13:45:00	0.1265	14.843	159.0	0.271100261	0.240044089	0.002325250	0.023989173	0.007393696
2020-09-13T13:50:00	0.1262	14.878	156.0	0.270305082	0.238683035	0.002307542	0.023806488	0.007337391
2020-09-13T13:55:00	0.1262	14.843	153.0	0.270334262	0.238732911	0.002308191	0.023813177	0.007339452
2020-09-13T14:00:00	0.1256	14.880	148.0	0.269126639	0.236673299	0.002281457	0.023537375	0.007254448
2020-09-13T14:05:00	0.1256	14.865	144.0	0.269155827	0.236722972	0.002282101	0.023544018	0.007256495
2020-09-13T14:10:00	0.1256	14.920	134.0	0.269185015	0.236772649	0.002282745	0.023550661	0.007258542
2020-09-13T14:15:00	0.1254	14.902	130.0	0.268801865	0.236120963	0.002274302	0.023463549	0.007231694
2020-09-13T14:20:00	0.1249	14.901	131.0	0.267800048	0.234421377	0.002252318	0.023236745	0.007161790
2020-09-13T14:25:00	0.1243	14.892	126.0	0.266385429	0.232032237	0.002221505	0.022918857	0.007063814
2020-09-13T14:30:00	0.1239	14.926	120.0	0.265589383	0.230693344	0.002204284	0.022741190	0.007009056
2020-09-13T14:35:00	0.1232	14.920	110.0	0.264174024	0.228322664	0.002173874	0.022427459	0.006912361
2020-09-13T14:40:00	0.1231	14.929	117.0	0.263996840	0.228026775	0.002170086	0.022388379	0.006900316
2020-09-13T14:45:00	0.1228	14.910	117.0	0.263406786	0.227042838	0.002157501	0.022258544	0.006860300
2020-09-13T14:50:00	0.1229	14.945	116.0	0.263642448	0.227435550	0.002162522	0.022310342	0.006876264
2020-09-13T14:55:00	0.1231	14.974	115.0	0.264084510	0.228173154	0.002171960	0.022407710	0.006906274
2020-09-13T15:00:00	0.1231	14.963	116.0	0.263907321	0.227877358	0.002168174	0.022368650	0.006894235
2020-09-13T15:05:00	0.1232	14.992	114.0	0.264142955	0.228270766	0.002173210	0.022420603	0.006910248
2020-09-13T15:10:00	0.1226	14.976	113.0	0.262933573	0.226255323	0.002147442	0.022154765	0.006828314
2020-09-13T15:15:00	0.1225	14.969	113.0	0.262756335	0.225960729	0.002143682	0.022115974	0.006816358
2020-09-13T15:20:00	0.1218	14.957	112.0	0.261340003	0.223613694	0.002113786	0.021807538	0.006721295
2020-09-13T15:25:00	0.1215	14.967	111.0	0.260749564	0.222638995	0.002101401	0.021679767	0.006681915
2020-09-13T15:30:00	0.1213	14.952	111.0	0.260365640	0.222006389	0.002093373	0.021596941	0.006656387
2020-09-13T15:35:00	0.1217	14.958	111.0	0.261014626	0.223076288	0.002106955	0.021737067	0.006699575
2020-09-13T15:40:00	0.1211	14.962	111.0	0.259804312	0.221083138	0.002081670	0.021476203	0.006619174
2020-09-13T15:45:00	0.1215	14.939	111.0	0.260659975	0.222491292	0.002099526	0.021660421	0.006675952
2020-09-13T15:50:00	0.1208	14.926	111.0	0.259242904	0.220161741	0.002070007	0.021355877	0.006582089
2020-09-13T15:55:00	0.1209	14.895	111.0	0.259478809	0.220548674	0.002074902	0.021406386	0.006597656
2020-09-13T16:00:00	0.1206	14.908	111.0	0.258888094	0.219580443	0.002062657	0.021280052	0.006558719
2020-09-13T16:05:00	0.1208	14.896	111.0	0.259334375	0.220311730	0.002071904	0.021375453	0.006588122
2020-09-13T16:10:00	0.1208	14.875	112.0	0.259160676	0.220026954	0.002068302	0.021338289	0.006576668
2020-09-13T16:15:00	0.1207	14.869	111.0	0.258986970	0.219742356	0.002064704	0.021301165	0.006565226
2020-09-13T16:20:00	0.1212	14.855	111.0	0.260053125	0.221492131	0.002086852	0.021529668	0.006635653
2020-09-13T16:25:00	0.1216	14.830	111.0	0.260912431	0.222907637	0.002104813	0.021714964	0.006692763
2020-09-13T16:30:00	0.1214	14.833	111.0	0.260532219	0.222280754	0.002096854	0.021632853	0.006667455
2020-09-13T16:35:00	0.1212	14.824	111.0	0.260151972	0.221654722	0.002088913	0.021550932	0.006642206
2020-09-13T16:40:00	0.1208	14.803	111.0	0.259151758	0.220012338	0.002068117	0.021336383	0.006576080
2020-09-13T16:45:00	0.1214	14.789	111.0	0.260424467	0.222103260	0.002094602	0.021609619	0.006660294
2020-09-13T16:50:00	0.1215	14.776	111.0	0.260663999	0.222497925	0.002099610	0.021661290	0.006676220
2020-09-13T16:55:00	0.1215	14.765	112.0	0.260696943	0.222552234	0.002100299	0.021668403	0.006678412
2020-09-13T17:00:00	0.1215	14.741	111.0	0.260729887	0.222606550	0.002100989	0.021675517	0.006680605
2020-09-13T17:05:00	0.1212	14.721	107.0	0.260143056	0.221640054	0.002088727	0.021549013	0.006641615
2020-09-13T17:10:00	0.1217	14.700	112.0	0.261002343	0.223056014	0.002106698	0.021734410	0.006698756
2020-09-13T17:15:00	0.1216	14.699	107.0	0.260828717	0.222769534	0.002103059	0.021696868	0.006687185
2020-09-13T17:20:00	0.1225	14.675	111.0	0.262720368	0.225900970	0.002142920	0.022108108	0.006813933
2020-09-13T17:25:00	0.1224	14.663	111.0	0.262546816	0.225612734	0.002139243	0.022070174	0.006802242
2020-09-13T17:30:00	0.1221	14.643	111.0	0.261960249	0.224639962	0.002126845	0.021942272	0.006762821
2020-09-13T17:35:00	0.1219	14.639	111.0	0.261580136	0.224010734	0.002118836	0.021859639	0.006737353
2020-09-13T17:40:00	0.1222	14.622	112.0	0.262232622	0.225091399	0.002132596	0.022001605	0.006781108
2020-09-13T17:45:00	0.1226	14.602	112.0	0.262885003	0.226174572	0.002146411	0.022144130	0.006825036
2020-09-13T17:50:00	0.1232	14.585	111.0	0.264156538	0.228293453	0.002173500	0.022423600	0.006911171
2020-09-13T17:55:00	0.1231	14.567	112.0	0.263983046	0.228003748	0.002169791	0.022385338	0.006899379
2020-09-13T18:00:00	0.1239	14.547	108.0	0.265666924	0.230823586	0.002205958	0.022758457	0.007014378
2020-09-13T18:05:00	0.1246	14.530	112.0	0.267143877	0.233311607	0.002237992	0.023088948	0.007116238
2020-09-13T18:10:00	0.1244	14.513	112.0	0.266764237	0.232670768	0.002229730	0.023003710	0.007089967
2020-09-13T18:15:00	0.1248	14.498	112.0	0.267415912	0.233771365	0.002243924	0.023150149	0.007135101
2020-09-13T18:20:00	0.1253	14.479	112.0	0.268479894	0.235574048	0.002267221	0.023390505	0.007209181
2020-09-13T18:25:00	0.1253	14.461	112.0	0.268512776	0.235629874	0.002267944	0.023397958	0.007211478
2020-09-13T18:30:00	0.1254	14.444	112.0	0.268751844	0.236035952	0.002273201	0.023452192	0.007228193
2020-09-13T18:35:00	0.1261	14.427	113.0	0.270227741	0.238550869	0.002305825	0.023788767	0.007331929
2020-09-13T18:40:00	0.1260	14.407	112.0	0.270054496	0.238254949	0.002301980	0.023749102	0.007319704
2020-09-13T18:45:00	0.1258	14.389	112.0	0.269468969	0.237256214	0.002289016	0.023615352	0.007278481
2020-09-13T18:50:00	0.1260	14.374	108.0	0.269914116	0.238015306	0.002298867	0.023716991	0.007309807
2020-09-13T18:55:00	0.1266	14.355	113.0	0.271183561	0.240186899	0.002327110	0.024008362	0.007399610
2020-09-13T19:00:00	0.1270	14.336	113.0	0.272040609	0.241658760	0.002346301	0.024206352	0.007460633
2020-09-13T19:05:00	0.1277	14.319	108.0	0.273515416	0.244202370	0.002379559	0.024549467	0.007566384
2020-09-13T19:10:00	0.1280	14.302	108.0	0.274166096	0.245328959	0.002394326	0.024701820	0.007613341
2020-09-13T19:15:00	0.1288	14.281	113.0	0.275640217	0.247891124	0.002427996	0.025049190	0.007720403
2020-09-13T19:20:00	0.1284	14.259	112.0	0.274849519	0.246515112	0.002409899	0.024862484	0.007662859
2020-09-13T19:25:00	0.1289	14.238	112.0	0.275911735	0.248364542	0.002434230	0.025113506	0.007740227
2020-09-13T19:30:00	0.1289	14.216	112.0	0.275944564	0.248421812	0.002434985	0.025121290	0.007742625
2020-09-13T19:35:00	0.1290	14.190	108.0	0.276183237	0.248838396	0.002440474	0.025177924	0.007760081
2020-09-13T19:40:00	0.1295	14.168	113.0	0.277245150	0.250696221	0.002464993	0.025430881	0.007838044
2020-09-13T19:45:00	0.1294	14.144	108.0	0.277072171	0.250393108	0.002460989	0.025389567	0.007825311
2020-09-13T19:50:00	0.1298	14.122	113.0	0.277722354	0.251533406	0.002476062	0.025545077	0.007873241
2020-09-13T19:55:00	0.1298	14.096	112.0	0.277755170	0.251591029	0.002476824	0.025552941	0.007875665
2020-09-13T20:00:00	0.1299	14.068	113.0	0.277993752	0.252010175	0.002482371	0.025610167	0.007893302
2020-09-13T20:05:00	0.1302	14.041	113.0	0.278643808	0.253154026	0.002497524	0.025766499	0.007941485
2020-09-13T20:10:00	0.1303	14.018	112.0	0.278882346	0.253574430	0.002503100	0.025824016	0.007959213
2020-09-13T20:15:00	0.1303	13.994	112.0	0.278915154	0.253632279	0.002503867	0.025831933	0.007961653
2020-09-13T20:20:00	0.1306	13.967	113.0	0.279359386	0.254416250	0.002514272	0.025939285	0.007994740
2020-09-13T20:25:00	0.1304	13.945	108.0	0.278980769	0.253747996	0.002505402	0.025847772	0.007966534
2020-09-13T20:30:00	0.1302	13.917	108.0	0.278602121	0.253080592	0.002496551	0.025756456	0.007938390
2020-09-13T20:35:00	0.1302	13.895	108.0	0.278634930	0.253138386	0.002497317	0.025764360	0.007940826
2020-09-13T20:40:00	0.1302	13.870	108.0	0.278667740	0.253196187	0.002498083	0.025772266	0.007943263
2020-09-13T20:45:00	0.1300	13.849	108.0	0.278289067	0.252529487	0.002489248	0.025681113	0.007915168
2020-09-13T20:50:00	0.1297	13.834	108.0	0.277498815	0.251141060	0.002470873	0.025491543	0.007856741
2020-09-13T20:55:00	0.1294	13.808	108.0	0.276914245	0.250116537	0.002457336	0.025351885	0.007813697
2020-09-13T21:00:00	0.1295	13.784	108.0	0.277152869	0.250534492	0.002462856	0.025408835	0.007831250
2020-09-13T21:05:00	0.1298	13.757	108.0	0.277803041	0.251675101	0.002477937	0.025564417	0.007879202
2020-09-13T21:10:00	0.1295	13.737	108.0	0.277218508	0.250649523	0.002464376	0.025424515	0.007836082
2020-09-13T21:15:00	0.1296	13.710	109.0	0.277457117	0.251067909	0.002469906	0.025481565	0.007853666
2020-09-13T21:20:00	0.1295	13.688	108.0	0.277078348	0.250403929	0.002461132	0.025391041	0.007825766
2020-09-13T21:25:00	0.1295	13.662	108.0	0.277111168	0.250461427	0.002461891	0.025398877	0.007828181
2020-09-13T21:30:00	0.1297	13.638	108.0	0.277555569	0.251240642	0.002472190	0.025505128	0.007860928
2020-09-13T21:35:00	0.1291	13.615	108.0	0.276353545	0.249135872	0.002444396	0.025218385	0.007772551
2020-09-13T21:40:00	0.1289	13.595	108.0	0.275974687	0.248474370	0.002435677	0.025128433	0.007744827
2020-09-13T21:45:00	0.1290	13.568	108.0	0.276213359	0.248890997	0.002441168	0.025185077	0.007762285
2020-09-13T21:50:00	0.1291	13.545	113.0	0.276452019	0.249307961	0.002446666	0.025241799	0.007779768
2020-09-13T21:55:00	0.1298	13.528	113.0	0.277719650	0.251528659	0.002475999	0.025544429	0.007873041
2020-09-13T22:00:00	0.1292	13.501	109.0	0.276517668	0.249422718	0.002448179	0.025257416	0.007784581
2020-09-13T22:05:00	0.1295	13.486	109.0	0.277135107	0.250503370	0.002462445	0.025404593	0.007829942
2020-09-13T22:10:00	0.1290	13.459	108.0	0.276105997	0.248703540	0.002438697	0.025159587	0.007754429
2020-09-13T22:15:00	0.1291	13.446	113.0	0.276311837	0.249063004	0.002443435	0.025208472	0.007769496
2020-09-13T22:20:00	0.1287	13.424	108.0	0.275488422	0.247626656	0.002424515	0.025013278	0.007709335
2020-09-13T22:25:00	0.1282	13.410	108.0	0.274458947	0.245836873	0.002400991	0.024770585	0.007634535
2020-09-13T22:30:00	0.1282	13.389	109.0	0.274458947	0.245836873	0.002400991	0.024770585	0.007634535
2020-09-13T22:35:00	0.1282	13.374	109.0	0.274458947	0.245836873	0.002400991	0.024770585	0.007634535
2020-09-13T22:40:00	0.1287	13.350	108.0	0.275488422	0.247626656	0.002424515	0.025013278	0.007709335
2020-09-13T22:45:00	0.1284	13.334	108.0	0.274870765	0.246552033	0.002410384	0.024867489	0.007664402
2020-09-13T22:50:00	0.1287	13.309	108.0	0.275488422	0.247626656	0.002424515	0.025013278	0.007709335
2020-09-13T22:55:00	0.1287	13.293	108.0	0.275488422	0.247626656	0.002424515	0.025013278	0.007709335
2020-09-13T23:00:00	0.1290	13.286	108.0	0.276105997	0.248703540	0.002438697	0.025159587	0.007754429
2020-09-13T23:05:00	0.1292	13.260	108.0	0.276517668	0.249422718	0.002448179	0.025257416	0.007784581
2020-09-13T23:10:00	0.1292	13.243	108.0	0.276517668	0.249422718	0.002448179	0.025257416	0.007784581
2020-09-13T23:15:00	0.1298	13.230	108.0	0.277752466	0.251586281	0.002476762	0.025552293	0.007875465
2020-09-13T23:20:00	0.1295	13.218	108.0	0.277135107	0.250503370	0.002462445	0.025404593	0.007829942
2020-09-13T23:25:00	0.1298	13.205	107.0	0.277752466	0.251586281	0.002476762	0.025552293	0.007875465
2020-09-13T23:30:00	0.1294	13.194	108.0	0.276929303	0.250142901	0.002457684	0.025355476	0.007814804
2020-09-13T23:35:00	0.1295	13.181	108.0	0.277135107	0.250503370	0.002462445	0.025404593	0.007829942
2020-09-13T23:40:00	0.1294	13.169	107.0	0.276929303	0.250142901	0.002457684	0.025355476	0.007814804
2020-09-13T23:45:00	0.1293	13.151	108.0	0.276723490	0.249782684	0.002452929	0.025306417	0.007799683
2020-09-13T23:50:00	0.1298	13.146	107.0	0.277752466	0.251586281	0.002476762	0.025552293	0.007875465
2020-09-13T23:55:00	0.1301	13.133	108.0	0.278369744	0.252671454	0.002491129	0.025700516	0.007921149
2020-09-14T00:00:00	0.1296	13.125	108.0	0.277340903	0.250864089	0.002467212	0.025453769	0.007845099
2020-09-14T00:05:00	0.1298	13.118	107.0	0.277752466	0.251586281	0.002476762	0.025552293	0.007875465
2020-09-14T00:10:00	0.1302	13.103	108.0	0.278575486	0.253033680	0.002495929	0.025750040	0.007936412
2020-09-14T00:15:00	0.1302	13.095	107.0	0.278575486	0.253033680	0.002495929	0.025750040	0.007936412
2020-09-14T00:20:00	0.1299	13.085	108.0	0.277958234	0.251947754	0.002481545	0.025601643	0.007890675
2020-09-14T00:25:00	0.1296	13.071	107.0	0.277340903	0.250864089	0.002467212	0.025453769	0.007845099
2020-09-14T00:30:00	0.1293	13.059	108.0	0.276723490	0.249782684	0.002452929	0.025306417	0.007799683
2020-09-14T00:35:00	0.1291	13.056	107.0	0.276311837	0.249063004	0.002443435	0.025208472	0.007769496
2020-09-14T00:40:00	0.1294	13.035	108.0	0.276929303	0.250142901	0.002457684	0.025355476	0.007814804
2020-09-14T00:45:00	0.1288	13.022	107.0	0.275694289	0.247985366	0.002429237	0.025061990	0.007724349
2020-09-14T00:50:00	0.1287	13.012	107.0	0.275488422	0.247626656	0.002424515	0.025013278	0.007709335
2020-09-14T00:55:00	0.1286	12.997	107.0	0.275282545	0.247268197	0.002419799	0.024964624	0.007694339
2020-09-14T01:00:00	0.1283	12.991	107.0	0.274664861	0.246194327	0.002405685	0.024819008	0.007649459
2020-09-14T01:05:00	0.1284	12.973	107.0	0.274870765	0.246552033	0.002410384	0.024867489	0.007664402
2020-09-14T01:10:00	0.1284	12.954	107.0	0.274870765	0.246552033	0.002410384	0.024867489	0.007664402
2020-09-14T01:15:00	0.1284	12.945	107.0	0.274870765	0.246552033	0.002410384	0.024867489	0.007664402
2020-09-14T01:20:00	0.1279	12.931	107.0	0.273841152	0.244766017	0.002386944	0.024625662	0.007589868
2020-09-14T01:25:00	0.1282	12.921	108.0	0.274458947	0.245836873	0.002400991	0.024770585	0.007634535
2020-09-14T01:30:00	0.1280	12.908	108.0	0.274047093	0.245122718	0.002391621	0.024673912	0.007604739
2020-09-14T01:35:00	0.1283	12.902	107.0	0.274664861	0.246194327	0.002405685	0.024819008	0.007649459
2020-09-14T01:40:00	0.1280	12.891	108.0	0.274047093	0.245122718	0.002391621	0.024673912	0.007604739
2020-09-14T01:45:00	0.1276	12.885	108.0	0.273223274	0.243697422	0.002372947	0.024481257	0.007545361
2020-09-14T01:50:00	0.1268	12.872	108.0	0.271575185	0.240858886	0.002335867	0.024098705	0.007427455
2020-09-14T01:55:00	0.1269	12.880	108.0	0.271781229	0.241212824	0.002340482	0.024146323	0.007442131
2020-09-14T02:00:00	0.1268	12.864	109.0	0.271575185	0.240858886	0.002335867	0.024098705	0.007427455
2020-09-14T02:05:00	0.1257	12.869	109.0	0.269308069	0.236982145	0.002285461	0.023578681	0.007267179
2020-09-14T02:10:00	0.1260	12.861	108.0	0.269926489	0.238036424	0.002299142	0.023719821	0.007310679
2020-09-14T02:15:00	0.1260	12.841	108.0	0.269926489	0.238036424	0.002299142	0.023719821	0.007310679
2020-09-14T02:20:00	0.1257	12.817	108.0	0.269308069	0.236982145	0.002285461	0.023578681	0.007267179
2020-09-14T02:25:00	0.1257	12.831	108.0	0.269308069	0.236982145	0.002285461	0.023578681	0.007267179
2020-09-14T02:30:00	0.1258	12.829	108.0	0.269514219	0.237333320	0.002290016	0.023625671	0.007281661
2020-09-14T02:35:00	0.1262	12.818	108.0	0.270338721	0.238740532	0.002308290	0.023814199	0.007339767
2020-09-14T02:40:00	0.1263	12.821	108.0	0.270544822	0.239092963	0.002312872	0.023861473	0.007354338
2020-09-14T02:45:00	0.1261	12.816	108.0	0.270132610	0.238388352	0.002303713	0.023766981	0.007325214
2020-09-14T02:50:00	0.1260	12.802	108.0	0.269926489	0.238036424	0.002299142	0.023719821	0.007310679
2020-09-14T02:55:00	0.1253	12.795	108.0	0.268483373	0.235579956	0.002267298	0.023391294	0.007209424
2020-09-14T03:00:00	0.1255	12.789	108.0	0.268895741	0.236280548	0.002276368	0.023484874	0.007238266
2020-09-14T03:05:00	0.1258	12.780	108.0	0.269514219	0.237333320	0.002290016	0.023625671	0.007281661
2020-09-14T03:10:00	0.1256	12.775	108.0	0.269101910	0.236631221	0.002280912	0.023531749	0.007252714
2020-09-14T03:15:00	0.1255	12.766	108.0	0.268895741	0.236280548	0.002276368	0.023484874	0.007238266
2020-09-14T03:20:00	0.1259	12.761	108.0	0.269720359	0.237684746	0.002294576	0.023672717	0.007296161
2020-09-14T03:25:00	0.1260	12.754	108.0	0.269926489	0.238036424	0.002299142	0.023719821	0.007310679
2020-09-14T03:30:00	0.1262	12.747	108.0	0.270338721	0.238740532	0.002308290	0.023814199	0.007339767
2020-09-14T03:35:00	0.1257	12.739	108.0	0.269308069	0.236982145	0.002285461	0.023578681	0.007267179
2020-09-14T03:40:00	0.1259	12.724	108.0	0.269720359	0.237684746	0.002294576	0.023672717	0.007296161
2020-09-14T03:45:00	0.1256	12.717	108.0	0.269101910	0.236631221	0.002280912	0.023531749	0.007252714
2020-09-14T03:50:00	0.1251	12.711	108.0	0.268070967	0.234880368	0.002258249	0.023297942	0.007180652
2020-09-14T03:55:00	0.1252	12.701	108.0	0.268277175	0.235230036	0.002262771	0.023344589	0.007195029
2020-09-14T04:00:00	0.1247	12.692	108.0	0.267246035	0.233484207	0.002240218	0.023111919	0.007123318
2020-09-14T04:05:00	0.1246	12.695	108.0	0.267039777	0.233135795	0.002235724	0.023065555	0.007109028
2020-09-14T04:10:00	0.1245	12.686	107.0	0.266833510	0.232787633	0.002231236	0.023019248	0.007094756
2020-09-14T04:15:00	0.1247	12.676	107.0	0.267246035	0.233484207	0.002240218	0.023111919	0.007123318
2020-09-14T04:20:00	0.1248	12.670	106.0	0.267452283	0.233832871	0.002244718	0.023158339	0.007137625
2020-09-14T04:25:00	0.1254	12.665	106.0	0.268689562	0.235930126	0.002271830	0.023438055	0.007223836
2020-09-14T04:30:00	0.1256	12.669	106.0	0.269101910	0.236631221	0.002280912	0.023531749	0.007252714
2020-09-14T04:35:00	0.1253	12.669	106.0	0.268483373	0.235579956	0.002267298	0.023391294	0.007209424
2020-09-14T04:40:00	0.1260	12.666	111.0	0.269926489	0.238036424	0.002299142	0.023719821	0.007310679
2020-09-14T04:45:00	0.1262	12.661	106.0	0.270338721	0.238740532	0.002308290	0.023814199	0.007339767
2020-09-14T04:50:00	0.1260	12.660	106.0	0.269926489	0.238036424	0.002299142	0.023719821	0.007310679
2020-09-14T04:55:00	0.1262	12.662	106.0	0.270338721	0.238740532	0.002308290	0.023814199	0.007339767
2020-09-14T05:00:00	0.1260	12.658	106.0	0.269926489	0.238036424	0.002299142	0.023719821	0.007310679
2020-09-14T05:05:00	0.1258	12.651	105.0	0.269514219	0.237333320	0.002290016	0.023625671	0.007281661
2020-09-14T05:10:00	0.1256	12.658	106.0	0.269101910	0.236631221	0.002280912	0.023531749	0.007252714
2020-09-14T05:15:00	0.1256	12.657	105.0	0.269101910	0.236631221	0.002280912	0.023531749	0.007252714
2020-09-14T05:20:00	0.1257	12.657	105.0	0.269308069	0.236982145	0.002285461	0.023578681	0.007267179
2020-09-14T05:25:00	0.1264	12.672	110.0	0.270750914	0.239445645	0.002317460	0.023908805	0.007368926
2020-09-14T05:30:00	0.1270	12.670	105.0	0.271987264	0.241567013	0.002345103	0.024193999	0.007456825
2020-09-14T05:35:00	0.1269	12.671	105.0	0.271781229	0.241212824	0.002340482	0.024146323	0.007442131
2020-09-14T05:40:00	0.1268	12.688	109.0	0.271575185	0.240858886	0.002335867	0.024098705	0.007427455
2020-09-14T05:45:00	0.1269	12.690	105.0	0.271781229	0.241212824	0.002340482	0.024146323	0.007442131
2020-09-14T05:50:00	0.1275	12.695	105.0	0.273017295	0.243341726	0.002368292	0.024433237	0.007530561
2020-09-14T05:55:00	0.1277	12.703	105.0	0.273429242	0.244053369	0.002377607	0.024529334	0.007560179
2020-09-14T06:00:00	0.1279	12.710	110.0	0.273841152	0.244766017	0.002386944	0.024625662	0.007589868
2020-09-14T06:05:00	0.1281	12.723	105.0	0.274253025	0.245479670	0.002396303	0.024722220	0.007619628
2020-09-14T06:10:00	0.1282	12.724	109.0	0.274458947	0.245836873	0.002400991	0.024770585	0.007634535
2020-09-14T06:15:00	0.1286	12.737	109.0	0.275282545	0.247268197	0.002419799	0.024964624	0.007694339
2020-09-14T06:20:00	0.1288	12.749	109.0	0.275694289	0.247985366	0.002429237	0.025061990	0.007724349
2020-09-14T06:25:00	0.1293	12.756	109.0	0.276723490	0.249782684	0.002452929	0.025306417	0.007799683
2020-09-14T06:30:00	0.1294	12.770	102.0	0.276929303	0.250142901	0.002457684	0.025355476	0.007814804
2020-09-14T06:35:00	0.1295	12.788	109.0	0.277135107	0.250503370	0.002462445	0.025404593	0.007829942
2020-09-14T06:40:00	0.1298	12.804	107.0	0.277752466	0.251586281	0.002476762	0.025552293	0.007875465
2020-09-14T06:45:00	0.1296	12.824	108.0	0.277340903	0.250864089	0.002467212	0.025453769	0.007845099
2020-09-14T06:50:00	0.1299	12.846	108.0	0.277958234	0.251947754	0.002481545	0.025601643	0.007890675
2020-09-14T06:55:00	0.1305	12.869	107.0	0.279192658	0.254121866	0.002510364	0.025898961	0.007982311
2020-09-14T07:00:00	0.1303	12.891	105.0	0.278781219	0.253396158	0.002500735	0.025799622	0.007951694
2020-09-14T07:05:00	0.1303	12.911	103.0	0.278781219	0.253396158	0.002500735	0.025799622	0.007951694
2020-09-14T07:10:00	0.1302	12.938	104.0	0.278575486	0.253033680	0.002495929	0.025750040	0.007936412
2020-09-14T07:15:00	0.1306	12.964	108.0	0.279398365	0.254485097	0.002515187	0.025948718	0.007997647
2020-09-14T07:20:00	0.1309	12.991	107.0	0.280015432	0.255576298	0.002529689	0.026098339	0.008043761
2020-09-14T07:25:00	0.1309	13.021	107.0	0.280015432	0.255576298	0.002529689	0.026098339	0.008043761
2020-09-14T07:30:00	0.1312	13.043	108.0	0.280632420	0.256669758	0.002544243	0.026248485	0.008090038
2020-09-14T07:35:00	0.1313	13.079	106.0	0.280838066	0.257034747	0.002549105	0.026298651	0.008105500
2020-09-14T07:40:00	0.1312	13.107	108.0	0.280632420	0.256669758	0.002544243	0.026248485	0.008090038
2020-09-14T07:45:00	0.1322	13.133	108.0	0.282688489	0.260330953	0.002593123	0.026752777	0.008245466
2020-09-14T07:50:00	0.1325	13.162	108.0	0.283305143	0.261434209	0.002607899	0.026905209	0.008292447
2020-09-14T07:55:00	0.1324	13.199	108.0	0.283099600	0.261066206	0.002602968	0.026854339	0.008276768
2020-09-14T08:00:00	0.1322	13.246	107.0	0.282688489	0.260330953	0.002593123	0.026752777	0.008245466
2020-09-14T08:05:00	0.1322	13.281	108.0	0.282688489	0.260330953	0.002593123	0.026752777	0.008245466
2020-09-14T08:10:00	0.1321	13.316	107.0	0.282482920	0.259963703	0.002588210	0.026702084	0.008229842
2020-09-14T08:15:00	0.1322	13.380	107.0	0.282688489	0.260330953	0.002593123	0.026752777	0.008245466
2020-09-14T08:20:00	0.1325	13.392	107.0	0.283305143	0.261434209	0.002607899	0.026905209	0.008292447
2020-09-14T08:25:00	0.1324	13.426	108.0	0.283099600	0.261066206	0.002602968	0.026854339	0.008276768
2020-09-14T08:30:00	0.1322	13.465	108.0	0.282688489	0.260330953	0.002593123	0.026752777	0.008245466
2020-09-14T08:35:00	0.1326	13.599	107.0	0.283510678	0.261802463	0.002612835	0.026956137	0.008308143
2020-09-14T08:40:00	0.1331	13.580	107.0	0.284538225	0.263647502	0.002637603	0.027211661	0.008386898
2020-09-14T08:45:00	0.1340	13.698	108.0	0.286387286	0.266984396	0.002682545	0.027675322	0.008529803
2020-09-14T08:50:00	0.1339	13.654	108.0	0.286181868	0.266612626	0.002677528	0.027623568	0.008513852
2020-09-14T08:55:00	0.1340	13.729	108.0	0.286387286	0.266984396	0.002682545	0.027675322	0.008529803
2020-09-14T09:00:00	0.1336	13.725	108.0	0.285565564	0.265498821	0.002662513	0.027468659	0.008466108
2020-09-14T09:05:00	0.1339	13.797	108.0	0.286181868	0.266612626	0.002677528	0.027623568	0.008513852
2020-09-14T09:10:00	0.1335	13.844	108.0	0.285360112	0.265128055	0.002657520	0.027417142	0.008450229
2020-09-14T09:15:00	0.1335	13.913	109.0	0.285360112	0.265128055	0.002657520	0.027417142	0.008450229
2020-09-14T09:20:00	0.1332	13.975	108.0	0.284743709	0.264017264	0.002642573	0.027262943	0.008402704
2020-09-14T09:25:00	0.1335	14.008	108.0	0.285360112	0.265128055	0.002657520	0.027417142	0.008450229
2020-09-14T09:30:00	0.1333	14.073	109.0	0.284949185	0.264387276	0.002647550	0.027314283	0.008418527
2020-09-14T09:35:00	0.1335	14.135	109.0	0.285360112	0.265128055	0.002657520	0.027417142	0.008450229
2020-09-14T09:40:00	0.1337	14.223	109.0	0.285771007	0.265869838	0.002667513	0.027520236	0.008482004
2020-09-14T09:45:00	0.1334	14.258	109.0	0.285154653	0.264757540	0.002652532	0.027365683	0.008434369
2020-09-14T09:50:00	0.1337	14.301	109.0	0.285771007	0.265869838	0.002667513	0.027520236	0.008482004
2020-09-14T09:55:00	0.1333	14.451	108.0	0.284949185	0.264387276	0.002647550	0.027314283	0.008418527
2020-09-14T10:00:00	0.1332	14.455	108.0	0.284743709	0.264017264	0.002642573	0.027262943	0.008402704
2020-09-14T10:05:00	0.1330	14.540	109.0	0.284327216	0.263268077	0.002632505	0.027159064	0.008370687
2020-09-14T10:10:00	0.1330	14.576	110.0	0.284321700	0.263258162	0.002632371	0.027157690	0.008370264
2020-09-14T10:15:00	0.1343	14.687	109.0	0.286986952	0.268071207	0.002697223	0.027826756	0.008576477
2020-09-14T10:20:00	0.1342	14.646	110.0	0.286776044	0.267688707	0.002692055	0.027773436	0.008560043
2020-09-14T10:25:00	0.1347	14.652	109.0	0.287797424	0.269543675	0.002717142	0.028032257	0.008639814
2020-09-14T10:30:00	0.1351	14.710	109.0	0.288613282	0.271030111	0.002737287	0.028240089	0.008703870
2020-09-14T10:35:00	0.1350	14.782	109.0	0.288402440	0.270645569	0.002732072	0.028186286	0.008687287
2020-09-14T10:40:00	0.1352	14.809	113.0	0.288807582	0.271384730	0.002742099	0.028289729	0.008719169
2020-09-14T10:45:00	0.1353	14.863	113.0	0.289007386	0.271749643	0.002747052	0.028340832	0.008734920
2020-09-14T10:50:00	0.1354	14.851	113.0	0.289207182	0.272114794	0.002752011	0.028391991	0.008750687
2020-09-14T10:55:00	0.1349	14.873	114.0	0.288380392	0.270605374	0.002731527	0.028180664	0.008685554
2020-09-14T11:00:00	0.1352	14.954	114.0	0.288990852	0.271719437	0.002746642	0.028336601	0.008733615
2020-09-14T11:05:00	0.1357	15.051	113.0	0.290011802	0.273587877	0.002772039	0.028598611	0.008814370
2020-09-14T11:10:00	0.1355	15.052	113.0	0.289595731	0.272825632	0.002761671	0.028491649	0.008781403
2020-09-14T11:15:00	0.1361	15.033	112.0	0.290821811	0.275074947	0.002792293	0.028807573	0.008878774
2020-09-14T11:20:00	0.1363	15.084	112.0	0.291226769	0.275819949	0.002802454	0.028912402	0.008911083
2020-09-14T11:25:00	0.1368	15.098	112.0	0.292247294	0.277701994	0.002828164	0.029177650	0.008992835
2020-09-14T11:30:00	0.1367	15.203	112.0	0.292036595	0.277312886	0.002822844	0.029122761	0.008975918
2020-09-14T11:35:00	0.1361	15.190	112.0	0.290799773	0.275034434	0.002791741	0.028801875	0.008877018
2020-09-14T11:40:00	0.1357	15.213	111.0	0.289973231	0.273517168	0.002771076	0.028588685	0.008811310
2020-09-14T11:45:00	0.1357	15.315	112.0	0.289967720	0.273507067	0.002770939	0.028587267	0.008810873
2020-09-14T11:50:00	0.1352	15.285	112.0	0.288935739	0.271618762	0.002745275	0.028322500	0.008729270
2020-09-14T11:55:00	0.1357	15.350	112.0	0.289956700	0.273486866	0.002770664	0.028584431	0.008809999
2020-09-14T12:00:00	0.1353	15.396	112.0	0.289130027	0.271973754	0.002750095	0.028372228	0.008744596
2020-09-14T12:05:00	0.1357	15.450	112.0	0.289945679	0.273466666	0.002770389	0.028581596	0.008809125
2020-09-14T12:10:00	0.1359	15.458	112.0	0.290350704	0.274209553	0.002780502	0.028685922	0.008841280
2020-09-14T12:15:00	0.1351	15.440	112.0	0.288702863	0.271193577	0.002739505	0.028262968	0.008710921
2020-09-14T12:20:00	0.1346	15.480	112.0	0.287670635	0.269313051	0.002714020	0.028000045	0.008629886
2020-09-14T12:25:00	0.1351	15.551	112.0	0.288691840	0.271173460	0.002739232	0.028260152	0.008710053
2020-09-14T12:30:00	0.1358	15.536	111.0	0.290123400	0.273792510	0.002774824	0.028627343	0.008823225
2020-09-14T12:35:00	0.1350	15.578	111.0	0.288475489	0.270778767	0.002733878	0.028204919	0.008693030
2020-09-14T12:40:00	0.1355	15.606	112.0	0.289496539	0.272644072	0.002759203	0.028466186	0.008773555
2020-09-14T12:45:00	0.1352	15.630	112.0	0.288875114	0.271508040	0.002743772	0.028306994	0.008724491
2020-09-14T12:50:00	0.1348	15.642	112.0	0.288048272	0.270000256	0.002723326	0.028096055	0.008659477
2020-09-14T12:55:00	0.1350	15.670	112.0	0.288453442	0.270738563	0.002733333	0.028199295	0.008691297
2020-09-14T13:00:00	0.1343	15.635	109.0	0.287010401	0.268113751	0.002697798	0.027832688	0.008578305
2020-09-14T13:05:00	0.1344	15.730	113.0	0.287210274	0.268476525	0.002702703	0.027883285	0.008593899
2020-09-14T13:10:00	0.1337	15.701	113.0	0.285766888	0.265862397	0.002667412	0.027519202	0.008481685
2020-09-14T13:15:00	0.1345	15.767	114.0	0.287404626	0.268829520	0.002707477	0.027932541	0.008609080
2020-09-14T13:20:00	0.1338	15.731	114.0	0.285961294	0.266213723	0.002672148	0.027568063	0.008496745
2020-09-14T13:25:00	0.1343	15.687	114.0	0.286982835	0.268063736	0.002697122	0.027825715	0.008576155
2020-09-14T13:30:00	0.1342	15.691	113.0	0.286771926	0.267681242	0.002691954	0.027772395	0.008559722
2020-09-14T13:35:00	0.1346	15.718	115.0	0.287587945	0.269162695	0.002711985	0.027979050	0.008623415
2020-09-14T13:40:00	0.1340	15.718	115.0	0.286350084	0.266917047	0.002681636	0.027665944	0.008526913
2020-09-14T13:45:00	0.1343	15.726	114.0	0.286960781	0.268023728	0.002696582	0.027820136	0.008574436
2020-09-14T13:50:00	0.1335	15.699	110.0	0.285311872	0.265041037	0.002656348	0.027405054	0.008446504
2020-09-14T13:55:00	0.1330	15.721	115.0	0.284278966	0.263181356	0.002631340	0.027147046	0.008366983
2020-09-14T14:00:00	0.1329	15.721	115.0	0.284273450	0.263171442	0.002631207	0.027145673	0.008366560
2020-09-14T14:05:00	0.1329	15.734	111.0	0.284267933	0.263161529	0.002631073	0.027144299	0.008366137
2020-09-14T14:10:00	0.1325	15.734	112.0	0.283440351	0.261676430	0.002611145	0.026938704	0.008302770
2020-09-14T14:15:00	0.1323	15.743	111.0	0.283023750	0.260930472	0.002601150	0.026835583	0.008270987
2020-09-14T14:20:00	0.1325	15.799	112.0	0.283429317	0.261656658	0.002610880	0.026935970	0.008301927
2020-09-14T14:25:00	0.1322	15.823	112.0	0.282807160	0.260543081	0.002595963	0.026782069	0.008254494
2020-09-14T14:30:00	0.1317	15.820	113.0	0.281773738	0.258698788	0.002571304	0.026527666	0.008176084
2020-09-14T14:35:00	0.1316	15.824	113.0	0.281562613	0.258322831	0.002566284	0.026475881	0.008160124
2020-09-14T14:40:00	0.1319	15.830	113.0	0.282173888	0.259412116	0.002580834	0.026625991	0.008206389
2020-09-14T14:45:00	0.1319	15.792	113.0	0.282168370	0.259402271	0.002580703	0.026624634	0.008205971
2020-09-14T14:50:00	0.1317	15.780	113.0	0.281751662	0.258659463	0.002570779	0.026522249	0.008174415
2020-09-14T14:55:00	0.1310	15.788	114.0	0.280306710	0.256092217	0.002536553	0.026169154	0.008065588
2020-09-14T15:00:00	0.1309	15.821	114.0	0.280095521	0.255718101	0.002531576	0.026117798	0.008049759
2020-09-14T15:05:00	0.1300	15.785	115.0	0.278238591	0.252440685	0.002488072	0.025668978	0.007911428
2020-09-14T15:10:00	0.1299	15.792	115.0	0.278027311	0.252069161	0.002483152	0.025618223	0.007895785
2020-09-14T15:15:00	0.1297	15.800	115.0	0.277610248	0.251336603	0.002473459	0.025518220	0.007864963
2020-09-14T15:20:00	0.1292	15.776	115.0	0.276575716	0.249524212	0.002449518	0.025271229	0.007788838
2020-09-14T15:25:00	0.1288	15.764	115.0	0.275746821	0.248076943	0.002430443	0.025074429	0.007728183
2020-09-14T15:30:00	0.1286	15.753	116.0	0.275329555	0.247350025	0.002420876	0.024975728	0.007697762
2020-09-14T15:35:00	0.1291	15.742	115.0	0.276353312	0.249135464	0.002444391	0.025218329	0.007772534
2020-09-14T15:40:00	0.1285	15.743	115.0	0.275112618	0.246972533	0.002415911	0.024924511	0.007681976
2020-09-14T15:45:00	0.1284	15.732	116.0	0.274901198	0.246604926	0.002411079	0.024874660	0.007666612
2020-09-14T15:50:00	0.1285	15.715	116.0	0.275101565	0.246953307	0.002415658	0.024921903	0.007681172
2020-09-14T15:55:00	0.1276	15.682	116.0	0.273242660	0.243730914	0.002373385	0.024485779	0.007546755
2020-09-14T16:00:00	0.1278	15.680	116.0	0.273649058	0.244433541	0.002382587	0.024580710	0.007576013
2020-09-14T16:05:00	0.1277	15.682	117.0	0.273382936	0.243973321	0.002376559	0.024518520	0.007556846
2020-09-14T16:10:00	0.1272	15.649	117.0	0.272498821	0.242447574	0.002356602	0.024312628	0.007493388
2020-09-14T16:15:00	0.1273	15.631	116.0	0.272644649	0.242698896	0.002359886	0.024346513	0.007503832
2020-09-14T16:20:00	0.1276	15.621	118.0	0.273202441	0.243661434	0.002372476	0.024476397	0.007543863
2020-09-14T16:25:00	0.1274	15.609	117.0	0.272936292	0.243201917	0.002366464	0.024414369	0.007524746
2020-09-14T16:30:00	0.1273	15.602	118.0	0.272670128	0.242742820	0.002360461	0.024352436	0.007505657
2020-09-14T16:35:00	0.1271	15.589	118.0	0.272197933	0.241929445	0.002349834	0.024242808	0.007471869
2020-09-14T16:40:00	0.1271	15.579	118.0	0.272137753	0.241825883	0.002348482	0.024228859	0.007467570
2020-09-14T16:45:00	0.1263	15.559	118.0	0.270635159	0.239247523	0.002314882	0.023882213	0.007360730
2020-09-14T16:50:00	0.1263	15.558	118.0	0.270574958	0.239144518	0.002313542	0.023868391	0.007356470
2020-09-14T16:55:00	0.1259	15.539	118.0	0.269690287	0.237633463	0.002293910	0.023665850	0.007294045
2020-09-14T17:00:00	0.1253	15.527	111.0	0.268599255	0.235776725	0.002269845	0.023417567	0.007217522
2020-09-14T17:05:00	0.1254	15.507	111.0	0.268745212	0.236024682	0.002273055	0.023450686	0.007227729
2020-09-14T17:10:00	0.1255	15.488	111.0	0.268891164	0.236272766	0.002276268	0.023483834	0.007237946
2020-09-14T17:15:00	0.1251	15.473	118.0	0.268212364	0.235120107	0.002261349	0.023329922	0.007190508
2020-09-14T17:20:00	0.1253	15.456	118.0	0.268564528	0.235717749	0.002269081	0.023409692	0.007215094
2020-09-14T17:25:00	0.1257	15.442	118.0	0.269328991	0.237017772	0.002285923	0.023583448	0.007268648
2020-09-14T17:30:00	0.1258	15.415	118.0	0.269474923	0.237266359	0.002289147	0.023616709	0.007278899
2020-09-14T17:35:00	0.1257	15.387	118.0	0.269414706	0.237163767	0.002287816	0.023602981	0.007274668
2020-09-14T17:40:00	0.1259	15.370	118.0	0.269766774	0.237763910	0.002295604	0.023683318	0.007299429
2020-09-14T17:45:00	0.1255	15.346	111.0	0.268881940	0.236257083	0.002276065	0.023481738	0.007237300
2020-09-14T17:50:00	0.1259	15.320	112.0	0.269852481	0.237910127	0.002297502	0.023702902	0.007305465
2020-09-14T17:55:00	0.1261	15.291	119.0	0.270204513	0.238511182	0.002305309	0.023783446	0.007330289
2020-09-14T18:00:00	0.1259	15.261	112.0	0.269732056	0.237704695	0.002294835	0.023675389	0.007296985
2020-09-14T18:05:00	0.1259	15.240	112.0	0.269671843	0.237602012	0.002293502	0.023661639	0.007292747
2020-09-14T18:10:00	0.1263	15.217	119.0	0.270642209	0.239259586	0.002315039	0.023883832	0.007361229
2020-09-14T18:15:00	0.1264	15.188	120.0	0.270788098	0.239509306	0.002318288	0.023917351	0.007371560
2020-09-14T18:20:00	0.1266	15.163	112.0	0.271140055	0.240112308	0.002326138	0.023998339	0.007396521
2020-09-14T18:25:00	0.1264	15.133	112.0	0.270873785	0.239656040	0.002320198	0.023937053	0.007377632
2020-09-14T18:30:00	0.1264	15.100	113.0	0.270813587	0.239552950	0.002318856	0.023923211	0.007373366
2020-09-14T18:35:00	0.1265	15.072	113.0	0.270959470	0.239802817	0.002322108	0.023956764	0.007383707
2020-09-14T18:40:00	0.1263	15.048	113.0	0.270487094	0.238994222	0.002311588	0.023848226	0.007350255
2020-09-14T18:45:00	0.1263	15.029	113.0	0.270632988	0.239243808	0.002314834	0.023881715	0.007360576
2020-09-14T18:50:00	0.1265	15.003	113.0	0.270984958	0.239846487	0.002322677	0.023962629	0.007385515
2020-09-14T18:55:00	0.1266	14.975	112.0	0.271130836	0.240096503	0.002325932	0.023996216	0.007395867
2020-09-14T19:00:00	0.1263	14.947	113.0	0.270658478	0.239287429	0.002315401	0.023887569	0.007362381
2020-09-14T19:05:00	0.1261	14.919	112.0	0.270186070	0.238479674	0.002304899	0.023779223	0.007328987
2020-09-14T19:10:00	0.1264	14.893	113.0	0.270744168	0.239434097	0.002317310	0.023907255	0.007368448
2020-09-14T19:15:00	0.1262	14.870	112.0	0.270477874	0.238978452	0.002311383	0.023846110	0.007349603
2020-09-14T19:20:00	0.1266	14.849	111.0	0.271242003	0.240287119	0.002328415	0.024021830	0.007403761
2020-09-14T19:25:00	0.1264	14.820	114.0	0.270769658	0.239477734	0.002317877	0.023913113	0.007370254
2020-09-14T19:30:00	0.1268	14.795	113.0	0.271533737	0.240787719	0.002334939	0.024089133	0.007424505
2020-09-14T19:35:00	0.1265	14.770	112.0	0.271061422	0.239977520	0.002324383	0.023980230	0.007390940
2020-09-14T19:40:00	0.1265	14.743	114.0	0.271001227	0.239874363	0.002323040	0.023966373	0.007386669
2020-09-14T19:45:00	0.1267	14.718	114.0	0.271353168	0.240477808	0.002330900	0.024047462	0.007411661
2020-09-14T19:50:00	0.1272	14.683	113.0	0.272529177	0.242499879	0.002357285	0.024319679	0.007495561
2020-09-14T19:55:00	0.1271	14.660	112.0	0.272262989	0.242041423	0.002351297	0.024257893	0.007476518
2020-09-14T20:00:00	0.1275	14.621	112.0	0.273026814	0.243358158	0.002368507	0.024435455	0.007531244
2020-09-14T20:05:00	0.1275	14.598	111.0	0.272966645	0.243254301	0.002367149	0.024421438	0.007526924
2020-09-14T20:10:00	0.1277	14.573	113.0	0.273524397	0.244217902	0.002379762	0.024551565	0.007567031
2020-09-14T20:15:00	0.1273	14.552	114.0	0.272640310	0.242691415	0.002359789	0.024345504	0.007503521
2020-09-14T20:20:00	0.1271	14.514	114.0	0.272168111	0.241878123	0.002349164	0.024235895	0.007469738
2020-09-14T20:25:00	0.1269	14.489	114.0	0.271901902	0.241420236	0.002343188	0.024174239	0.007450735
2020-09-14T20:30:00	0.1265	14.462	114.0	0.271017495	0.239902240	0.002323403	0.023970118	0.007387823
2020-09-14T20:35:00	0.1265	14.429	114.0	0.270957299	0.239799098	0.002322060	0.023956264	0.007383553
2020-09-14T20:40:00	0.1262	14.393	112.0	0.270484923	0.238990509	0.002311540	0.023847728	0.007350101
2020-09-14T20:45:00	0.1268	14.350	112.0	0.271661161	0.241006540	0.002337792	0.024118567	0.007433577
2020-09-14T20:50:00	0.1272	14.327	113.0	0.272425088	0.242320554	0.002354942	0.024295507	0.007488111
2020-09-14T20:55:00	0.1275	14.303	114.0	0.272982907	0.243282367	0.002367516	0.024425225	0.007528092
2020-09-14T21:00:00	0.1270	14.276	115.0	0.272098713	0.241758714	0.002347605	0.024219812	0.007464781
2020-09-14T21:05:00	0.1263	14.247	114.0	0.270596107	0.239180701	0.002314013	0.023873246	0.007357966
2020-09-14T21:10:00	0.1261	14.221	114.0	0.270123692	0.238373120	0.002303515	0.023764939	0.007324585
2020-09-14T21:15:00	0.1260	14.200	114.0	0.270063484	0.238270297	0.002302179	0.023751158	0.007320338
2020-09-14T21:20:00	0.1255	14.183	112.0	0.268972545	0.236411152	0.002278060	0.023502329	0.007243646
2020-09-14T21:25:00	0.1255	14.130	113.0	0.268912321	0.236308738	0.002276734	0.023488641	0.007239427
2020-09-14T21:30:00	0.1247	14.105	114.0	0.267202373	0.233410431	0.002239266	0.023102099	0.007120291
2020-09-14T21:35:00	0.1249	14.067	114.0	0.267760853	0.234355012	0.002251460	0.023227900	0.007159064
2020-09-14T21:40:00	0.1249	14.029	115.0	0.267700613	0.234253030	0.002250143	0.023214310	0.007154876
2020-09-14T21:45:00	0.1245	14.003	116.0	0.266815356	0.232757005	0.002230841	0.023015175	0.007093501
2020-09-14T21:50:00	0.1242	13.974	106.0	0.266342529	0.231959981	0.002220575	0.022909260	0.007060856
2020-09-14T21:55:00	0.1241	13.941	114.0	0.266075964	0.231511265	0.002214800	0.022849684	0.007042495
2020-09-14T22:00:00	0.1242	13.931	115.0	0.266222007	0.231757047	0.002217963	0.022882312	0.007052551
2020-09-14T22:05:00	0.1237	13.920	106.0	0.265303536	0.230213542	0.002198121	0.022677606	0.006989458
2020-09-14T22:10:00	0.1237	13.900	106.0	0.265210353	0.230057243	0.002196114	0.022656903	0.006983077
2020-09-14T22:15:00	0.1233	13.857	106.0	0.264498052	0.228864286	0.002180812	0.022499040	0.006934423
2020-09-14T22:20:00	0.1235	13.848	115.0	0.264817614	0.229399091	0.002187669	0.022569776	0.006956224
2020-09-14T22:25:00	0.1229	13.804	116.0	0.263485981	0.227174771	0.002159188	0.022275942	0.006865662
2020-09-14T22:30:00	0.1227	13.799	107.0	0.263186309	0.226675748	0.002152811	0.022210154	0.006845385
2020-09-14T22:35:00	0.1226	13.769	108.0	0.262886616	0.226177255	0.002146446	0.022144484	0.006825145
2020-09-14T22:40:00	0.1227	13.741	115.0	0.263206302	0.226709023	0.002153236	0.022214539	0.006846737
2020-09-14T22:45:00	0.1221	13.710	107.0	0.261874148	0.224497353	0.002125029	0.021923537	0.006757047
2020-09-14T22:50:00	0.1223	13.697	107.0	0.262400410	0.225369729	0.002136144	0.022038206	0.006792389
2020-09-14T22:55:00	0.1221	13.698	116.0	0.261894147	0.224530473	0.002125451	0.021927888	0.006758388
2020-09-14T23:00:00	0.1222	13.677	116.0	0.262213910	0.225060372	0.002132201	0.021997525	0.006779851
2020-09-14T23:05:00	0.1225	13.667	115.0	0.262740129	0.225933802	0.002143339	0.022112430	0.006815266
2020-09-14T23:10:00	0.1223	13.624	115.0	0.262440403	0.225436096	0.002136990	0.022046936	0.006795080
2020-09-14T23:15:00	0.1228	13.581	104.0	0.263379499	0.226997389	0.002156921	0.022252552	0.006858453
2020-09-14T23:20:00	0.1234	13.574	114.0	0.264524771	0.228908977	0.002181385	0.022504949	0.006936244
2020-09-14T23:25:00	0.1234	13.559	114.0	0.264637955	0.229098343	0.002183812	0.022529991	0.006943962
2020-09-14T23:30:00	0.1236	13.553	114.0	0.264957506	0.229633411	0.002190675	0.022600786	0.006965782
2020-09-14T23:35:00	0.1233	13.533	114.0	0.264451557	0.228786528	0.002179816	0.022488760	0.006931254
2020-09-14T23:40:00	0.1236	13.527	114.0	0.264977490	0.229666895	0.002191104	0.022605218	0.006967148
2020-09-14T23:45:00	0.1237	13.516	114.0	0.265297015	0.230202603	0.002197980	0.022676157	0.006989012
2020-09-14T23:50:00	0.1235	13.499	114.0	0.264791107	0.229354706	0.002187100	0.022563903	0.006954414
2020-09-14T23:55:00	0.1231	13.492	106.0	0.264078735	0.228163511	0.002171836	0.022406436	0.006905881
2020-09-15T00:00:00	0.1228	13.481	106.0	0.263366241	0.226975308	0.002156638	0.022249640	0.006857555
2020-09-15T00:05:00	0.1224	13.475	105.0	0.262447139	0.225447275	0.002137133	0.022048406	0.006795533
2020-09-15T00:10:00	0.1232	13.494	105.0	0.264211920	0.228385973	0.002174685	0.022435823	0.006914939
2020-09-15T00:15:00	0.1229	13.521	106.0	0.263499448	0.227197211	0.002159475	0.022278902	0.006866574
2020-09-15T00:20:00	0.1234	13.512	115.0	0.264644687	0.229109609	0.002183957	0.022531481	0.006944421
2020-09-15T00:25:00	0.1235	13.529	107.0	0.264757869	0.229299055	0.002186386	0.022556541	0.006952145
2020-09-15T00:30:00	0.1230	13.527	114.0	0.263839076	0.227763483	0.002166717	0.022353618	0.006889602
2020-09-15T00:35:00	0.1230	13.536	114.0	0.263745860	0.227607989	0.002164728	0.022333095	0.006883277
2020-09-15T00:40:00	0.1227	13.546	103.0	0.263239763	0.226764720	0.002153948	0.022221880	0.006848999
2020-09-15T00:45:00	0.1223	13.559	115.0	0.262320633	0.225237372	0.002134457	0.022020799	0.006787024
2020-09-15T00:50:00	0.1228	13.555	114.0	0.263466200	0.227141813	0.002158766	0.022271596	0.006864322
2020-09-15T00:55:00	0.1230	13.553	114.0	0.263785840	0.227674673	0.002165581	0.022341896	0.006885989
2020-09-15T01:00:00	0.1228	13.526	114.0	0.263279748	0.226831285	0.002154798	0.022230654	0.006851703
2020-09-15T01:05:00	0.1227	13.545	114.0	0.263186520	0.226676098	0.002152815	0.022210200	0.006845399
2020-09-15T01:10:00	0.1224	13.518	106.0	0.262473871	0.225491642	0.002137699	0.022054243	0.006797332
2020-09-15T01:15:00	0.1228	13.525	114.0	0.263412959	0.227053120	0.002157633	0.022259900	0.006860717
2020-09-15T01:20:00	0.1231	13.519	115.0	0.263939024	0.227930267	0.002168851	0.022375636	0.006896388
2020-09-15T01:25:00	0.1224	13.503	106.0	0.262607107	0.225712845	0.002140520	0.022083347	0.006806302
2020-09-15T01:30:00	0.1224	13.492	102.0	0.262513863	0.225558027	0.002138545	0.022062976	0.006800024
2020-09-15T01:35:00	0.1218	13.511	103.0	0.261388031	0.223693075	0.002114795	0.021817952	0.006724505
2020-09-15T01:40:00	0.1222	13.512	106.0	0.262120868	0.224906119	0.002130236	0.021977248	0.006773601
2020-09-15T01:45:00	0.1218	13.510	113.0	0.261408033	0.223726138	0.002115216	0.021822290	0.006725842
2020-09-15T01:50:00	0.1217	13.488	115.0	0.261108208	0.223230784	0.002108918	0.021757321	0.006705818
2020-09-15T01:55:00	0.1220	13.468	115.0	0.261634570	0.224100787	0.002119982	0.021871460	0.006740996
2020-09-15T02:00:00	0.1222	13.444	113.0	0.262160864	0.224972421	0.002131080	0.021985963	0.006776287
2020-09-15T02:05:00	0.1220	13.443	123.0	0.261654571	0.224133879	0.002120403	0.021875805	0.006742335
2020-09-15T02:10:00	0.1223	13.428	113.0	0.262387360	0.225348074	0.002135868	0.022035358	0.006791511
2020-09-15T02:15:00	0.1222	13.427	112.0	0.262087608	0.224850992	0.002129533	0.021970003	0.006771368
2020-09-15T02:20:00	0.1222	13.423	105.0	0.262200859	0.225038732	0.002131925	0.021994680	0.006778974
2020-09-15T02:25:00	0.1223	13.423	108.0	0.262314108	0.225226547	0.002134319	0.022019375	0.006786585
2020-09-15T02:30:00	0.1224	13.407	109.0	0.262633838	0.225757237	0.002141086	0.022089190	0.006808103
2020-09-15T02:35:00	0.1221	13.408	104.0	0.261921093	0.224575102	0.002126019	0.021933751	0.006760195
2020-09-15T02:40:00	0.1216	13.406	109.0	0.260795096	0.222714080	0.002102354	0.021689603	0.006684946
2020-09-15T02:45:00	0.1212	13.413	108.0	0.260082026	0.221539663	0.002087455	0.021535884	0.006637568
2020-09-15T02:50:00	0.1212	13.415	106.0	0.259988723	0.221386232	0.002085510	0.021515821	0.006631385
2020-09-15T02:55:00	0.1209	13.421	106.0	0.259482156	0.220554166	0.002074972	0.021407103	0.006597877
2020-09-15T03:00:00	0.1211	13.413	107.0	0.259802112	0.221079524	0.002081624	0.021475731	0.006619029
2020-09-15T03:05:00	0.1210	13.400	107.0	0.259708803	0.220926247	0.002079683	0.021455703	0.006612856
2020-09-15T03:10:00	0.1216	13.394	104.0	0.260855109	0.222813068	0.002103611	0.021702572	0.006688943
2020-09-15T03:15:00	0.1214	13.377	107.0	0.260555244	0.222318690	0.002097335	0.021637820	0.006668986
2020-09-15T03:20:00	0.1218	13.348	106.0	0.261288232	0.223528142	0.002112698	0.021796316	0.006717836
2020-09-15T03:25:00	0.1224	13.346	105.0	0.262640574	0.225768424	0.002141229	0.022090662	0.006808556
2020-09-15T03:30:00	0.1225	13.349	107.0	0.262753810	0.225956533	0.002143629	0.022115422	0.006816188
2020-09-15T03:35:00	0.1222	13.357	102.0	0.262041085	0.224773894	0.002128551	0.021959870	0.006768245
2020-09-15T03:40:00	0.1222	13.346	101.0	0.262154338	0.224961603	0.002130943	0.021984541	0.006775849
2020-09-15T03:45:00	0.1220	13.343	102.0	0.261648044	0.224123080	0.002120265	0.021874387	0.006741898
2020-09-15T03:50:00	0.1221	13.327	103.0	0.261967827	0.224652516	0.002127005	0.021943921	0.006763330
2020-09-15T03:55:00	0.1222	13.308	103.0	0.262081082	0.224840176	0.002129396	0.021968581	0.006770930
2020-09-15T04:00:00	0.1226	13.308	102.0	0.263020260	0.226399481	0.002149283	0.022173753	0.006834166
2020-09-15T04:05:00	0.1229	13.304	116.0	0.263606675	0.227375915	0.002161759	0.022302474	0.006873839
2020-09-15T04:10:00	0.1227	13.308	106.0	0.263160868	0.226633409	0.002152270	0.022204574	0.006843665
2020-09-15T04:15:00	0.1229	13.294	113.0	0.263540834	0.227266175	0.002160356	0.022287998	0.006869377
2020-09-15T04:20:00	0.1229	13.295	113.0	0.263507913	0.227211315	0.002159655	0.022280762	0.006867147
2020-09-15T04:25:00	0.1226	13.270	108.0	0.262855631	0.226125748	0.002145788	0.022137701	0.006823054
2020-09-15T04:30:00	0.1226	13.282	114.0	0.263029170	0.226414300	0.002149472	0.022175705	0.006834768
2020-09-15T04:35:00	0.1228	13.288	102.0	0.263409147	0.227046772	0.002157552	0.022259063	0.006860459
2020-09-15T04:40:00	0.1236	13.280	99.0	0.265027439	0.229750595	0.002192178	0.022616298	0.006970563
2020-09-15T04:45:00	0.1229	13.285	110.0	0.263549742	0.227281021	0.002160546	0.022289956	0.006869981
2020-09-15T04:50:00	0.1232	13.266	111.0	0.264136082	0.228259286	0.002173063	0.022419087	0.006909780
2020-09-15T04:55:00	0.1234	13.253	111.0	0.264515958	0.228894236	0.002181196	0.022503000	0.006935643
2020-09-15T05:00:00	0.1229	13.261	98.0	0.263657412	0.227460498	0.002162841	0.022313633	0.006877278
2020-09-15T05:05:00	0.1229	13.269	102.0	0.263624492	0.227405615	0.002162139	0.022306392	0.006875047
2020-09-15T05:10:00	0.1230	13.267	112.0	0.263797998	0.227694954	0.002165840	0.022344572	0.006886814
2020-09-15T05:15:00	0.1232	13.258	112.0	0.264177905	0.228329147	0.002173957	0.022428316	0.006912625
2020-09-15T05:20:00	0.1232	13.268	114.0	0.264144989	0.228274163	0.002173253	0.022421052	0.006910386
2020-09-15T05:25:00	0.1232	13.266	113.0	0.264112073	0.228219185	0.002172549	0.022413790	0.006908148
2020-09-15T05:30:00	0.1229	13.257	113.0	0.263666320	0.227475350	0.002163031	0.022315593	0.006877882
2020-09-15T05:35:00	0.1231	13.267	111.0	0.264046239	0.228109249	0.002171142	0.022399270	0.006903673
2020-09-15T05:40:00	0.1233	13.265	111.0	0.264426124	0.228743998	0.002179271	0.022483138	0.006929521
2020-09-15T05:45:00	0.1230	13.262	111.0	0.263773987	0.227654901	0.002165328	0.022339286	0.006885185
2020-09-15T05:50:00	0.1226	13.266	112.0	0.262915286	0.226224919	0.002147054	0.022150761	0.006827080
2020-09-15T05:55:00	0.1232	13.258	110.0	0.264120980	0.228234061	0.002172740	0.022415755	0.006908753
2020-09-15T06:00:00	0.1230	13.259	109.0	0.263881651	0.227834520	0.002167626	0.022362995	0.006892492
2020-09-15T06:05:00	0.1236	13.265	110.0	0.265087063	0.229850530	0.002193461	0.022629529	0.006974641
2020-09-15T06:10:00	0.1238	13.278	112.0	0.265466853	0.230487610	0.002201641	0.022713920	0.007000651
2020-09-15T06:15:00	0.1240	13.275	112.0	0.265846609	0.231125542	0.002209839	0.022798503	0.007026720
2020-09-15T06:20:00	0.1235	13.290	112.0	0.264781968	0.229339403	0.002186903	0.022561879	0.006953790
2020-09-15T06:25:00	0.1238	13.296	112.0	0.265368134	0.230321927	0.002199513	0.022691965	0.006993884
2020-09-15T06:30:00	0.1240	13.305	113.0	0.265747899	0.230959637	0.002207706	0.022776499	0.007019938
2020-09-15T06:35:00	0.1241	13.312	113.0	0.266127629	0.231598198	0.002215919	0.022861223	0.007046051
2020-09-15T06:40:00	0.1242	13.328	113.0	0.266301032	0.231890098	0.002219675	0.022899979	0.007057996
2020-09-15T06:45:00	0.1243	13.348	111.0	0.266474427	0.232182174	0.002223436	0.022938774	0.007069953
2020-09-15T06:50:00	0.1242	13.372	112.0	0.266235232	0.231779312	0.002218249	0.022885268	0.007053462
2020-09-15T06:55:00	0.1246	13.398	113.0	0.267027466	0.233115006	0.002235456	0.023062789	0.007108176
2020-09-15T07:00:00	0.1250	13.426	111.0	0.267819552	0.234454405	0.002252744	0.023241147	0.007163147
2020-09-15T07:05:00	0.1255	13.454	112.0	0.269023848	0.236498413	0.002279191	0.023513994	0.007247241
2020-09-15T07:10:00	0.1260	13.492	112.0	0.270021695	0.238198944	0.002301252	0.023741596	0.007317391
2020-09-15T07:15:00	0.1266	13.525	111.0	0.271225386	0.240258620	0.002328044	0.024018000	0.007402581
2020-09-15T07:20:00	0.1276	13.565	110.0	0.273252715	0.243748285	0.002373613	0.024488125	0.007547478
2020-09-15T07:25:00	0.1278	13.608	109.0	0.273631796	0.244403675	0.002382196	0.024576673	0.007574769
2020-09-15T07:30:00	0.1284	13.648	109.0	0.274834524	0.246489055	0.002409557	0.024858952	0.007661770
2020-09-15T07:35:00	0.1292	13.697	110.0	0.276654441	0.249661893	0.002451335	0.025289971	0.007794615
2020-09-15T07:40:00	0.1294	13.754	110.0	0.277033244	0.250324921	0.002460088	0.025380275	0.007822447
2020-09-15T07:45:00	0.1293	13.859	111.0	0.276794613	0.249907135	0.002454572	0.025323364	0.007804907
2020-09-15T07:50:00	0.1301	13.896	109.0	0.278408032	0.252738842	0.002492022	0.025709728	0.007923988
2020-09-15T07:55:00	0.1298	13.983	109.0	0.277757943	0.251595899	0.002476889	0.025553606	0.007875870
2020-09-15T08:00:00	0.1293	14.047	111.0	0.276696146	0.249734846	0.002452298	0.025299903	0.007797676
2020-09-15T08:05:00	0.1298	14.156	117.0	0.277898083	0.251842058	0.002480146	0.025587210	0.007886227
2020-09-15T08:10:00	0.1306	14.189	110.0	0.279511128	0.254684325	0.002517833	0.025976019	0.008006061
2020-09-15T08:15:00	0.1313	14.214	111.0	0.280918002	0.257176693	0.002550997	0.026318167	0.008111515
2020-09-15T08:20:00	0.1320	14.293	110.0	0.282324472	0.259680815	0.002584427	0.026663052	0.008217812
2020-09-15T08:25:00	0.1313	14.330	110.0	0.280852414	0.257060222	0.002549445	0.026302153	0.008106579
2020-09-15T08:30:00	0.1309	14.426	110.0	0.279996982	0.255543636	0.002529255	0.026093857	0.008042380
2020-09-15T08:35:00	0.1317	14.465	117.0	0.281609329	0.258405995	0.002567394	0.026487334	0.008163654
2020-09-15T08:40:00	0.1317	14.521	110.0	0.281782145	0.258713763	0.002571504	0.026529730	0.008176720
2020-09-15T08:45:00	0.1326	14.695	117.0	0.283599440	0.261961580	0.002614969	0.026978150	0.008314928
2020-09-15T08:50:00	0.1333	14.658	116.0	0.285005155	0.264488110	0.002648906	0.027328279	0.008422841
2020-09-15T08:55:00	0.1334	14.736	116.0	0.285177855	0.264799367	0.002653095	0.027371491	0.008436159
2020-09-15T09:00:00	0.1335	14.804	116.0	0.285350548	0.265110801	0.002657287	0.027414745	0.008449491
2020-09-15T09:05:00	0.1343	14.796	116.0	0.286961177	0.268024445	0.002696591	0.027820236	0.008574467
2020-09-15T09:10:00	0.1337	14.882	116.0	0.285901356	0.266105379	0.002670688	0.027552993	0.008492100
2020-09-15T09:15:00	0.1334	14.981	117.0	0.285252252	0.264933513	0.002654901	0.027390120	0.008441901
2020-09-15T09:20:00	0.1339	14.980	117.0	0.286246689	0.266729911	0.002679111	0.027639892	0.008518883
2020-09-15T09:25:00	0.1330	14.996	117.0	0.284364805	0.263335648	0.002633412	0.027168429	0.008373574
2020-09-15T09:30:00	0.1335	15.079	117.0	0.285359414	0.265126795	0.002657503	0.027416967	0.008450175
2020-09-15T09:35:00	0.1330	15.074	117.0	0.284299262	0.263217833	0.002631830	0.027152101	0.008368541
2020-09-15T09:40:00	0.1328	15.230	117.0	0.284060987	0.262789757	0.002626081	0.027092795	0.008350262
2020-09-15T09:45:00	0.1333	15.190	117.0	0.285055655	0.264579108	0.002650131	0.027340910	0.008426734
2020-09-15T09:50:00	0.1324	15.229	117.0	0.283173330	0.261198181	0.002604736	0.026872580	0.008282390
2020-09-15T09:55:00	0.1315	15.297	116.0	0.281290297	0.257838326	0.002559819	0.026409182	0.008139566
2020-09-15T10:00:00	0.1320	15.351	117.0	0.282285517	0.259611290	0.002583497	0.026653461	0.008214856
2020-09-15T10:05:00	0.1322	15.420	117.0	0.282631096	0.260228394	0.002591751	0.026738618	0.008241102
2020-09-15T10:10:00	0.1317	15.449	117.0	0.281743186	0.258644364	0.002570577	0.026520168	0.008173773
2020-09-15T10:15:00	0.1320	15.487	117.0	0.282294388	0.259627122	0.002583709	0.026655645	0.008215529
2020-09-15T10:20:00	0.1315	15.601	117.0	0.281200795	0.257679186	0.002557697	0.026387283	0.008132817
2020-09-15T10:25:00	0.1317	15.555	117.0	0.281752058	0.258660168	0.002570788	0.026522346	0.008174445
2020-09-15T10:30:00	0.1318	15.634	117.0	0.281892082	0.258909648	0.002574120	0.026556722	0.008185040
2020-09-15T10:35:00	0.1319	15.741	118.0	0.282032102	0.259159245	0.002577455	0.026591125	0.008195643
2020-09-15T10:40:00	0.1321	15.764	117.0	0.282583273	0.260142950	0.002590608	0.026726823	0.008237466
2020-09-15T10:45:00	0.1324	15.769	118.0	0.283134382	0.261128460	0.002603802	0.026862943	0.008279420
2020-09-15T10:50:00	0.1320	15.785	117.0	0.282246561	0.259541774	0.002582568	0.026643873	0.008211900
2020-09-15T10:55:00	0.1316	15.762	117.0	0.281564196	0.258325650	0.002566322	0.026476270	0.008160243
2020-09-15T11:00:00	0.1318	15.827	117.0	0.281909827	0.258941272	0.002574542	0.026561080	0.008186383
2020-09-15T11:05:00	0.1320	15.890	117.0	0.282255433	0.259557604	0.002582779	0.026646056	0.008212573
2020-09-15T11:10:00	0.1324	15.986	118.0	0.283217680	0.261277582	0.002605800	0.026883555	0.008285773
2020-09-15T11:15:00	0.1316	15.905	117.0	0.281507490	0.258224717	0.002564975	0.026462371	0.008155960
2020-09-15T11:20:00	0.1322	15.947	118.0	0.282675450	0.260307652	0.002592812	0.026749560	0.008244474
2020-09-15T11:25:00	0.1323	16.009	118.0	0.283021003	0.260925556	0.002601084	0.026834904	0.008270778
2020-09-15T11:30:00	0.1324	16.045	118.0	0.283160992	0.261176093	0.002604440	0.026869527	0.008281449
2020-09-15T11:35:00	0.1323	15.997	118.0	0.282889881	0.260691000	0.002597943	0.026802499	0.008260791
2020-09-15T11:40:00	0.1324	16.092	118.0	0.283235419	0.261309346	0.002606225	0.026887946	0.008287126
2020-09-15T11:45:00	0.1325	16.148	119.0	0.283375402	0.261560060	0.002609585	0.026922611	0.008297810
2020-09-15T11:50:00	0.1329	16.129	118.0	0.284131933	0.262917179	0.002627792	0.027110445	0.008355702
2020-09-15T11:55:00	0.1322	16.149	119.0	0.282833190	0.260589622	0.002596586	0.026788497	0.008256475
2020-09-15T12:00:00	0.1325	16.168	119.0	0.283384271	0.261575950	0.002609798	0.026924808	0.008298487
2020-09-15T12:05:00	0.1324	16.150	115.0	0.283113173	0.261090498	0.002603293	0.026857697	0.008277803
2020-09-15T12:10:00	0.1325	16.156	115.0	0.283253159	0.261341111	0.002606651	0.026892337	0.008288480
2020-09-15T12:15:00	0.1323	16.266	115.0	0.282982053	0.260855870	0.002600151	0.026825275	0.008267810
2020-09-15T12:20:00	0.1320	16.284	116.0	0.282299790	0.259636763	0.002583838	0.026656975	0.008215939
2020-09-15T12:25:00	0.1318	16.369	117.0	0.281823037	0.258786615	0.002572477	0.026539768	0.008179814
2020-09-15T12:30:00	0.1317	16.355	117.0	0.281757461	0.258669791	0.002570916	0.026523672	0.008174853
2020-09-15T12:35:00	0.1311	16.353	118.0	0.280458096	0.256360568	0.002540126	0.026206007	0.008076946
2020-09-15T12:40:00	0.1305	16.448	118.0	0.279158385	0.254061373	0.002509561	0.025890677	0.007979758
2020-09-15T12:45:00	0.1307	16.479	118.0	0.279709879	0.255035668	0.002522502	0.026024183	0.008020906
2020-09-15T12:50:00	0.1301	16.543	119.0	0.278409966	0.252742246	0.002492067	0.025710193	0.007924131
2020-09-15T12:55:00	0.1306	16.506	119.0	0.279372970	0.254440240	0.002514591	0.025942572	0.007995753
2020-09-15T13:00:00	0.1301	16.565	119.0	0.278484466	0.252873398	0.002493805	0.025728123	0.007929657
2020-09-15T13:05:00	0.1296	16.511	119.0	0.277390013	0.250950210	0.002468350	0.025465513	0.007848718
2020-09-15T13:10:00	0.1291	16.494	120.0	0.276295308	0.249034128	0.002443055	0.025204544	0.007768285
2020-09-15T13:15:00	0.1289	16.599	121.0	0.276023812	0.248560093	0.002436807	0.025140085	0.007748418
2020-09-15T13:20:00	0.1289	16.588	115.0	0.275958156	0.248445528	0.002435297	0.025124513	0.007743619
2020-09-15T13:25:00	0.1285	16.520	122.0	0.275069011	0.246896687	0.002414914	0.024914223	0.007678806
2020-09-15T13:30:00	0.1285	16.517	123.0	0.275209230	0.247140611	0.002418121	0.024947312	0.007689004
2020-09-15T13:35:00	0.1283	16.600	116.0	0.274731770	0.246310537	0.002407211	0.024834756	0.007654313
2020-09-15T13:40:00	0.1282	16.581	117.0	0.274460183	0.245839018	0.002401020	0.024770876	0.007634624
2020-09-15T13:45:00	0.1272	16.507	116.0	0.272540843	0.242519982	0.002357548	0.024322389	0.007496397
2020-09-15T13:50:00	0.1267	16.536	117.0	0.271444982	0.240635363	0.002332953	0.024068645	0.007418190
2020-09-15T13:55:00	0.1264	16.544	119.0	0.270761044	0.239462988	0.002317685	0.023911133	0.007369644
2020-09-15T14:00:00	0.1259	16.511	119.0	0.269664745	0.237589909	0.002293345	0.023660019	0.007292248
2020-09-15T14:05:00	0.1253	16.484	118.0	0.268568171	0.235723936	0.002269161	0.023410518	0.007215349
2020-09-15T14:10:00	0.1253	16.514	121.0	0.268502407	0.235612269	0.002267716	0.023395608	0.007210754
2020-09-15T14:15:00	0.1249	16.564	122.0	0.267611780	0.234102685	0.002248201	0.023194278	0.007148702
2020-09-15T14:20:00	0.1245	16.653	122.0	0.266927241	0.232945811	0.002233275	0.023040283	0.007101239
2020-09-15T14:25:00	0.1247	16.548	122.0	0.267273974	0.233531423	0.002240827	0.023118204	0.007125255
2020-09-15T14:30:00	0.1243	16.559	122.0	0.266383092	0.232028301	0.002221454	0.022918334	0.007063653
2020-09-15T14:35:00	0.1411	16.599	125.0	0.301053973	0.294216036	0.003056243	0.031530696	0.009718067
2020-09-15T14:40:00	0.1411	16.515	116.0	0.300988629	0.294091705	0.003054509	0.031512811	0.009712554
2020-09-15T14:45:00	0.1406	16.495	117.0	0.299898826	0.292022071	0.003025688	0.031215467	0.009620910
2020-09-15T14:50:00	0.1404	16.507	0.0	0.299628554	0.291509960	0.003018567	0.031142001	0.009598267
2020-09-15T14:55:00	0.1402	16.562	0.0	0.299153338	0.290610636	0.003006072	0.031013091	0.009558536
2020-09-15T15:00:00	0.1402	16.575	0.0	0.299087973	0.290487049	0.003004356	0.030995386	0.009553079
2020-09-15T15:05:00	0.1404	16.577	0.0	0.299637397	0.291526708	0.003018800	0.031144403	0.009599007
2020-09-15T15:10:00	0.1396	16.512	0.0	0.297932437	0.288306670	0.002974120	0.030683450	0.009456937
2020-09-15T15:15:00	0.1392	16.461	0.0	0.297047074	0.286641778	0.002951085	0.030445795	0.009383690
2020-09-15T15:20:00	0.1380	16.455	0.0	0.294726090	0.282300715	0.002891232	0.029828312	0.009193375
2020-09-15T15:25:00	0.1380	16.497	0.0	0.294660674	0.282178857	0.002889557	0.029811024	0.009188047
2020-09-15T15:30:00	0.1381	16.480	0.0	0.294800355	0.282439090	0.002893136	0.029847946	0.009199427
2020-09-15T15:35:00	0.1382	16.430	0.0	0.295145115	0.283081928	0.002901981	0.029939200	0.009227552
2020-09-15T15:40:00	0.1382	16.417	0.0	0.295079705	0.282959907	0.002900301	0.029921873	0.009222212
2020-09-15T15:45:00	0.1387	16.400	0.0	0.296039624	0.284753317	0.002925010	0.030176787	0.009300779
2020-09-15T15:50:00	0.1384	16.378	0.0	0.295564109	0.283864190	0.002912753	0.030050340	0.009261807
2020-09-15T15:55:00	0.1388	16.343	0.0	0.296318912	0.285276201	0.002932224	0.030251211	0.009323717
2020-09-15T16:00:00	0.1385	16.330	0.0	0.295638363	0.284002938	0.002914665	0.030070063	0.009267885
2020-09-15T16:05:00	0.1386	16.365	0.0	0.295870618	0.284437143	0.002920650	0.030131807	0.009286916
2020-09-15T16:10:00	0.1382	16.321	0.0	0.295077545	0.282955877	0.002900246	0.029921301	0.009222036
2020-09-15T16:15:00	0.1385	16.265	0.0	0.295719955	0.284155437	0.002916767	0.030091745	0.009274568
2020-09-15T16:20:00	0.1387	16.260	0.0	0.296157254	0.284973484	0.002928047	0.030208119	0.009310436
2020-09-15T16:25:00	0.1391	16.246	35.0	0.296799541	0.286177186	0.002944664	0.030379559	0.009363275
2020-09-15T16:30:00	0.1390	16.204	0.0	0.296621711	0.285843656	0.002940057	0.030332031	0.009348627
2020-09-15T16:35:00	0.1389	16.180	0.0	0.296443875	0.285510315	0.002935455	0.030284548	0.009333992
2020-09-15T16:40:00	0.1390	16.174	0.0	0.296676096	0.285945637	0.002941466	0.030346562	0.009353105
2020-09-15T16:45:00	0.1387	16.157	0.0	0.296088185	0.284844199	0.002926263	0.030189719	0.009304765
2020-09-15T16:50:00	0.1382	16.172	0.0	0.295090065	0.282979231	0.002900567	0.029924617	0.009223058
2020-09-15T16:55:00	0.1380	16.159	0.0	0.294707088	0.282265314	0.002890746	0.029823290	0.009191828
2020-09-15T17:00:00	0.1378	16.151	0.0	0.294324085	0.281552273	0.002880944	0.029722173	0.009160662
2020-09-15T17:05:00	0.1377	16.117	0.0	0.293941055	0.280840108	0.002871164	0.029621266	0.009129562
2020-09-15T17:10:00	0.1376	16.076	0.0	0.293763134	0.280509615	0.002866627	0.029574467	0.009115138
2020-09-15T17:15:00	0.1378	16.041	0.0	0.294200585	0.281322550	0.002877789	0.029689614	0.009150627
2020-09-15T17:20:00	0.1382	16.022	0.0	0.295048184	0.282901115	0.002899492	0.029913526	0.009219639
2020-09-15T17:25:00	0.1387	15.987	0.0	0.296100703	0.284867628	0.002926587	0.030193054	0.009305792
2020-09-15T17:30:00	0.1394	15.980	0.0	0.297563026	0.287611406	0.002964495	0.030584149	0.009426332
2020-09-15T17:35:00	0.1400	15.948	0.0	0.298820032	0.289980720	0.002997328	0.030922878	0.009530731
2020-09-15T17:40:00	0.1400	15.917	0.0	0.298642264	0.289645043	0.002992671	0.030874831	0.009515923
2020-09-15T17:45:00	0.1401	15.903	0.0	0.298874396	0.290083416	0.002998753	0.030937581	0.009535263
2020-09-15T17:50:00	0.1399	15.868	0.0	0.298491674	0.289360842	0.002988729	0.030834167	0.009503390
2020-09-15T17:55:00	0.1399	15.846	0.0	0.298518858	0.289412135	0.002989440	0.030841505	0.009505651
2020-09-15T18:00:00	0.1395	15.813	0.0	0.297726154	0.287918321	0.002968743	0.030627974	0.009439839
2020-09-15T18:05:00	0.1396	15.825	0.0	0.297958323	0.288355423	0.002974795	0.030690417	0.009459084
2020-09-15T18:10:00	0.1406	15.795	0.0	0.300034920	0.292280117	0.003029278	0.031252502	0.009632325
2020-09-15T18:15:00	0.1403	15.758	0.0	0.299447353	0.291166877	0.003013799	0.031092807	0.009583105
2020-09-15T18:20:00	0.1406	15.722	0.0	0.299884367	0.291994663	0.003025307	0.031211534	0.009619698
2020-09-15T18:25:00	0.1412	15.680	0.0	0.301140872	0.294381423	0.003058549	0.031554491	0.009725401
2020-09-15T18:30:00	0.1414	15.718	0.0	0.301577760	0.295213636	0.003070162	0.031674293	0.009762325
2020-09-15T18:35:00	0.1416	15.684	0.0	0.302014617	0.296046991	0.003081801	0.031794374	0.009799335
2020-09-15T18:40:00	0.1416	15.691	0.0	0.302041784	0.296098856	0.003082526	0.031801851	0.009801639
2020-09-15T18:45:00	0.1424	15.649	0.0	0.303707404	0.299287550	0.003127166	0.032262391	0.009943582
2020-09-15T18:50:00	0.1419	15.611	0.0	0.302710589	0.297377125	0.003100402	0.031986271	0.009858479
2020-09-15T18:55:00	0.1422	15.599	0.0	0.303147362	0.298213443	0.003112111	0.032107074	0.009895712
2020-09-15T19:00:00	0.1422	15.559	12.0	0.303174525	0.298265492	0.003112840	0.032114596	0.009898030
2020-09-15T19:05:00	0.1422	15.537	0.0	0.303201687	0.298317546	0.003113569	0.032122119	0.009900349
2020-09-15T19:10:00	0.1428	15.510	11.0	0.304457494	0.300729249	0.003147401	0.032471157	0.010007926
2020-09-15T19:15:00	0.1431	15.501	11.0	0.305098878	0.301964825	0.003164769	0.032650343	0.010063153
2020-09-15T19:20:00	0.1436	15.444	0.0	0.306149602	0.303994571	0.003193353	0.032945235	0.010154041
2020-09-15T19:25:00	0.1439	15.429	108.0	0.306790809	0.305236650	0.003210876	0.033126017	0.010209760
2020-09-15T19:30:00	0.1445	15.401	52.0	0.308045886	0.307675356	0.003245351	0.033481684	0.010319380
2020-09-15T19:35:00	0.1449	15.383	0.0	0.308686899	0.308924725	0.003263048	0.033664263	0.010375653
2020-09-15T19:40:00	0.1453	15.356	0.0	0.309532438	0.310576688	0.003286485	0.033906056	0.010450176
2020-09-15T19:45:00	0.1453	15.315	0.0	0.309559572	0.310629777	0.003287239	0.033913834	0.010452573
2020-09-15T19:50:00	0.1454	15.297	0.0	0.309791289	0.311083317	0.003293681	0.033980297	0.010473057
2020-09-15T19:55:00	0.1454	15.269	0.0	0.309818422	0.311136448	0.003294436	0.033988085	0.010475458
2020-09-15T20:00:00	0.1451	15.246	0.0	0.309231795	0.309988794	0.003278139	0.033819958	0.010423640
2020-09-15T20:05:00	0.1451	15.220	0.0	0.309258931	0.310041833	0.003278892	0.033827724	0.010426033
2020-09-15T20:10:00	0.1453	15.205	0.0	0.309695243	0.310895286	0.003291009	0.033952738	0.010464564
2020-09-15T20:15:00	0.1454	15.188	0.0	0.309722377	0.310948401	0.003291764	0.033960522	0.010466963
2020-09-15T20:20:00	0.1450	15.165	21.0	0.308931138	0.309401441	0.003269807	0.033733994	0.010397145
2020-09-15T20:25:00	0.1448	15.146	0.0	0.308549051	0.308655833	0.003259237	0.033624947	0.010363535
2020-09-15T20:30:00	0.1449	15.127	0.0	0.308780804	0.309107969	0.003265646	0.033691063	0.010383913
2020-09-15T20:35:00	0.1443	15.109	0.0	0.307580161	0.306769259	0.003232531	0.033349426	0.010278617
2020-09-15T20:40:00	0.1445	15.091	0.0	0.308016589	0.307618317	0.003244543	0.033473355	0.010316813
2020-09-15T20:45:00	0.1445	15.079	0.0	0.308043730	0.307671159	0.003245291	0.033481071	0.010319191
2020-09-15T20:50:00	0.1443	15.064	0.0	0.307456939	0.306529751	0.003229144	0.033314488	0.010267849
2020-09-15T20:55:00	0.1444	15.050	0.0	0.307688732	0.306980368	0.003235517	0.033380229	0.010288111
2020-09-15T21:00:00	0.1449	15.039	0.0	0.308739020	0.309026425	0.003264489	0.033679136	0.010380237
2020-09-15T21:05:00	0.1446	15.021	0.0	0.308152293	0.307882570	0.003248284	0.033511949	0.010328708
2020-09-15T21:10:00	0.1445	15.009	0.0	0.307974800	0.307536965	0.003243392	0.033461476	0.010313152
2020-09-15T21:15:00	0.1448	14.998	0.0	0.308615820	0.308786060	0.003261082	0.033643987	0.010369404
2020-09-15T21:20:00	0.1452	14.985	0.0	0.309461368	0.310437663	0.003284511	0.033885691	0.010443899
2020-09-15T21:25:00	0.1448	14.974	0.0	0.308670097	0.308891943	0.003262583	0.033659469	0.010374175
2020-09-15T21:30:00	0.1452	14.961	0.0	0.309311047	0.310143712	0.003280338	0.033842641	0.010430631
2020-09-15T21:35:00	0.1452	14.951	0.0	0.309338182	0.310196765	0.003281091	0.033850410	0.010433025
2020-09-15T21:40:00	0.1456	14.937	0.0	0.310183635	0.311852033	0.003304607	0.034093020	0.010507800
2020-09-15T21:45:00	0.1453	14.930	0.0	0.309597041	0.310703092	0.003288280	0.033924576	0.010455884
2020-09-15T21:50:00	0.1452	14.921	0.0	0.309419588	0.310355949	0.003283351	0.033873722	0.010440210
2020-09-15T21:55:00	0.1456	14.921	0.0	0.310265030	0.312011630	0.003306876	0.034116435	0.010515017
2020-09-15T22:00:00	0.1454	14.907	0.0	0.309883023	0.311262963	0.003296233	0.034006632	0.010481174
2020-09-15T22:05:00	0.1454	14.898	0.0	0.309881192	0.311259378	0.003296182	0.034006106	0.010481012
2020-09-15T22:10:00	0.1456	14.889	0.0	0.310288501	0.312057658	0.003307531	0.034123189	0.010517098
2020-09-15T22:15:00	0.1453	14.876	0.0	0.309672952	0.310851654	0.003290390	0.033946344	0.010462593
2020-09-15T22:20:00	0.1452	14.878	0.0	0.309466536	0.310447771	0.003284654	0.033887171	0.010444355
2020-09-15T22:25:00	0.1455	14.855	0.0	0.310078443	0.311645837	0.003301675	0.034062775	0.010498478
2020-09-15T22:30:00	0.1449	14.847	0.0	0.308849077	0.309241229	0.003267535	0.033710555	0.010389921
2020-09-15T22:35:00	0.1452	14.847	0.0	0.309461044	0.310437029	0.003284502	0.033885598	0.010443870
2020-09-15T22:40:00	0.1451	14.837	0.0	0.309254621	0.310033408	0.003278772	0.033826490	0.010425653
2020-09-15T22:45:00	0.1451	14.818	0.0	0.309252790	0.310029830	0.003278722	0.033825966	0.010425491
2020-09-15T22:50:00	0.1445	14.814	0.0	0.308023264	0.307631313	0.003244727	0.033475253	0.010317398
2020-09-15T22:55:00	0.1446	14.805	0.0	0.308226066	0.308026274	0.003250319	0.033532941	0.010335178
2020-09-15T23:00:00	0.1444	14.811	0.0	0.307814963	0.307225910	0.003238990	0.033416065	0.010299156
2020-09-15T23:05:00	0.1440	14.813	0.0	0.306994508	0.305631777	0.003216456	0.033183579	0.010227501
2020-09-15T23:10:00	0.1444	14.793	0.0	0.307811301	0.307218785	0.003238889	0.033415025	0.010298835
2020-09-15T23:15:00	0.1445	14.791	0.0	0.308014109	0.307613489	0.003244475	0.033472650	0.010316596
2020-09-15T23:20:00	0.1434	14.780	0.0	0.305760876	0.303242835	0.003182759	0.032835941	0.010120356
2020-09-15T23:25:00	0.1434	14.761	0.0	0.305759045	0.303239295	0.003182709	0.032835427	0.010120197
2020-09-15T23:30:00	0.1430	14.754	0.0	0.304938318	0.301655276	0.003160416	0.032605428	0.010049310
2020-09-15T23:35:00	0.1429	14.752	0.0	0.304731745	0.301257255	0.003154820	0.032547699	0.010031517
2020-09-15T23:40:00	0.1422	14.744	0.0	0.303296534	0.298499347	0.003116116	0.032148397	0.009908448
2020-09-15T23:45:00	0.1424	14.735	0.0	0.303704273	0.299281539	0.003127081	0.032261521	0.009943314
2020-09-15T23:50:00	0.1418	14.725	0.0	0.302473642	0.296923933	0.003094061	0.031920857	0.009838318
2020-09-15T23:55:00	0.1418	14.718	0.0	0.302471810	0.296920429	0.003094012	0.031920351	0.009838162
2020-09-16T00:00:00	0.1415	14.707	0.0	0.301855483	0.295743286	0.003077558	0.031750599	0.009785843
2020-09-16T00:05:00	0.1413	14.699	0.0	0.301443952	0.294958622	0.003066602	0.031637570	0.009751006
2020-09-16T00:10:00	0.1410	14.697	0.0	0.300827519	0.293785270	0.003050238	0.031468741	0.009698972
2020-09-16T00:15:00	0.1410	14.690	0.0	0.300825686	0.293781785	0.003050189	0.031468240	0.009698817
2020-09-16T00:20:00	0.1400	14.685	0.0	0.298774720	0.289895139	0.002996140	0.030910627	0.009526955
2020-09-16T00:25:00	0.1397	14.674	0.0	0.298158005	0.288731633	0.002980007	0.030744186	0.009475657
2020-09-16T00:30:00	0.1396	14.660	0.0	0.297951196	0.288341999	0.002974610	0.030688498	0.009458493
2020-09-16T00:35:00	0.1394	14.662	0.0	0.297539390	0.287566950	0.002963880	0.030577802	0.009424376
2020-09-16T00:40:00	0.1393	14.659	0.0	0.297332559	0.287178082	0.002958500	0.030522299	0.009407269
2020-09-16T00:45:00	0.1391	14.652	0.0	0.296920708	0.286404555	0.002947806	0.030411970	0.009373265
2020-09-16T00:50:00	0.1392	14.634	0.0	0.297123886	0.286786024	0.002953079	0.030466367	0.009390030
2020-09-16T00:55:00	0.1395	14.624	0.0	0.297737043	0.287938814	0.002969027	0.030630901	0.009440741
2020-09-16T01:00:00	0.1394	14.615	0.0	0.297530219	0.287549701	0.002963641	0.030575339	0.009423617
2020-09-16T01:05:00	0.1389	14.610	0.0	0.296503324	0.285621727	0.002936993	0.030300416	0.009338883
2020-09-16T01:10:00	0.1390	14.600	0.0	0.296706517	0.286002689	0.002942254	0.030354691	0.009355611
2020-09-16T01:15:00	0.1384	14.591	0.0	0.295474409	0.283696626	0.002910445	0.030026524	0.009254466
2020-09-16T01:20:00	0.1383	14.581	0.0	0.295267502	0.283310310	0.002905125	0.029971637	0.009237549
2020-09-16T01:25:00	0.1380	14.574	0.0	0.294650407	0.282159732	0.002889294	0.029808312	0.009187211
2020-09-16T01:30:00	0.1377	14.566	0.0	0.294033243	0.281011428	0.002873516	0.029645532	0.009137041
2020-09-16T01:35:00	0.1377	14.556	0.0	0.294031408	0.281008017	0.002873469	0.029645049	0.009136892
2020-09-16T01:40:00	0.1375	14.545	11.0	0.293619315	0.280242613	0.002862964	0.029536672	0.009103489
2020-09-16T01:45:00	0.1371	14.531	23.0	0.292796873	0.278718244	0.002842071	0.029321128	0.009037056
2020-09-16T01:50:00	0.1369	14.527	0.0	0.292384688	0.277955877	0.002831637	0.029213477	0.009003877
2020-09-16T01:55:00	0.1369	14.522	0.0	0.292382853	0.277952484	0.002831591	0.029212999	0.009003730
2020-09-16T02:00:00	0.1372	14.509	0.0	0.292996529	0.279087908	0.002847134	0.029373361	0.009053155
2020-09-16T02:05:00	0.1367	14.498	58.0	0.291968800	0.277187746	0.002821133	0.029105114	0.008970479
2020-09-16T02:10:00	0.1362	14.494	55.0	0.290940877	0.275293886	0.002795278	0.028838370	0.008888266
2020-09-16T02:15:00	0.1358	14.481	0.0	0.290118030	0.273782661	0.002774690	0.028625960	0.008822799
2020-09-16T02:20:00	0.1353	14.468	31.0	0.289089752	0.271900145	0.002749096	0.028361915	0.008741418
2020-09-16T02:25:00	0.1355	14.460	0.0	0.289498515	0.272647689	0.002759252	0.028466694	0.008773711
2020-09-16T02:30:00	0.1356	14.447	0.0	0.289701966	0.273020152	0.002764316	0.028518936	0.008789813
2020-09-16T02:35:00	0.1354	14.442	0.0	0.289289545	0.272265394	0.002754057	0.028413098	0.008757193
2020-09-16T02:40:00	0.1357	14.428	0.0	0.289903573	0.273389496	0.002769339	0.028570764	0.008805787
2020-09-16T02:45:00	0.1350	14.418	0.0	0.288464605	0.270758919	0.002733609	0.028202143	0.008692174
2020-09-16T02:50:00	0.1349	14.406	0.0	0.288257431	0.270381260	0.002728489	0.028149320	0.008675894
2020-09-16T02:55:00	0.1347	14.396	0.0	0.287844897	0.269630052	0.002718312	0.028044323	0.008643533
2020-09-16T03:00:00	0.1346	14.385	0.0	0.287637699	0.269253157	0.002713209	0.027991681	0.008627308
2020-09-16T03:05:00	0.1344	14.374	0.0	0.287225115	0.268503472	0.002703067	0.027887045	0.008595058
2020-09-16T03:10:00	0.1339	14.362	23.0	0.286196270	0.266638682	0.002677880	0.027627194	0.008514970
2020-09-16T03:15:00	0.1341	14.347	84.0	0.286605259	0.267379180	0.002687875	0.027730306	0.008546750
2020-09-16T03:20:00	0.1341	14.337	0.0	0.286603422	0.267375850	0.002687830	0.027729843	0.008546607
2020-09-16T03:25:00	0.1339	14.327	0.0	0.286190756	0.266628706	0.002677745	0.027625806	0.008514542
2020-09-16T03:30:00	0.1340	14.315	0.0	0.286394336	0.266997160	0.002682717	0.027677099	0.008530351
2020-09-16T03:35:00	0.1333	14.304	32.0	0.284954398	0.264396667	0.002647676	0.027315587	0.008418929
2020-09-16T03:40:00	0.1335	14.295	0.0	0.285363487	0.265134142	0.002657602	0.027417987	0.008450490
2020-09-16T03:45:00	0.1339	14.287	0.0	0.286183404	0.266615404	0.002677566	0.027623954	0.008513971
2020-09-16T03:50:00	0.1335	14.279	0.0	0.285359810	0.265127509	0.002657512	0.027417066	0.008450206
2020-09-16T03:55:00	0.1332	14.271	0.0	0.284741568	0.264013409	0.002642522	0.027262408	0.008402539
2020-09-16T04:00:00	0.1332	14.263	0.0	0.284739729	0.264010100	0.002642477	0.027261949	0.008402397
2020-09-16T04:05:00	0.1327	14.253	0.0	0.283857709	0.262424841	0.002621183	0.027042264	0.008334688
2020-09-16T04:10:00	0.1330	14.242	0.0	0.284414195	0.263424444	0.002634605	0.027180737	0.008377367
2020-09-16T04:15:00	0.1331	14.233	0.0	0.284559660	0.263686062	0.002638121	0.027217008	0.008388546
2020-09-16T04:20:00	0.1335	14.218	0.0	0.285321530	0.265058457	0.002656583	0.027407474	0.008447250
2020-09-16T04:25:00	0.1335	14.205	0.0	0.285466969	0.265320860	0.002660116	0.027443929	0.008458485
2020-09-16T04:30:00	0.1333	14.191	0.0	0.284996032	0.264471674	0.002648685	0.027325997	0.008422138
2020-09-16T04:35:00	0.1333	14.177	0.0	0.284936013	0.264363548	0.002647231	0.027310990	0.008417512
2020-09-16T04:40:00	0.1333	14.161	0.0	0.285081464	0.264625619	0.002650757	0.027347367	0.008428724
2020-09-16T04:45:00	0.1340	14.134	0.0	0.286459526	0.267115201	0.002684311	0.027693537	0.008535417
2020-09-16T04:50:00	0.1344	14.120	0.0	0.287221114	0.268496207	0.002702969	0.027886031	0.008594746
2020-09-16T04:55:00	0.1344	14.116	37.0	0.287161121	0.268387287	0.002701496	0.027870837	0.008590063
2020-09-16T05:00:00	0.1348	14.105	0.0	0.288127955	0.270145374	0.002725292	0.028116339	0.008665729
2020-09-16T05:05:00	0.1350	14.098	0.0	0.288478652	0.270784535	0.002733957	0.028205726	0.008693279
2020-09-16T05:10:00	0.1352	14.087	0.0	0.288829326	0.271424429	0.002742638	0.028295287	0.008720882
2020-09-16T05:15:00	0.1366	14.084	0.0	0.291848269	0.276965333	0.002818094	0.029073756	0.008960814
2020-09-16T05:20:00	0.1366	14.068	0.0	0.291788328	0.276854759	0.002816583	0.029058169	0.008956010
2020-09-16T05:25:00	0.1372	14.052	0.0	0.292959489	0.279019310	0.002846195	0.029363667	0.009050167
2020-09-16T05:30:00	0.1370	14.049	0.0	0.292489219	0.278149113	0.002834281	0.029240754	0.009012284
2020-09-16T05:35:00	0.1374	14.039	0.0	0.293455092	0.279937891	0.002858785	0.029493553	0.009090200
2020-09-16T05:40:00	0.1375	14.033	0.0	0.293600309	0.280207339	0.002862480	0.029531680	0.009101951
2020-09-16T05:45:00	0.1381	14.040	0.0	0.294771086	0.282384550	0.002892385	0.029840207	0.009197042
2020-09-16T05:50:00	0.1384	14.035	0.0	0.295531500	0.283803268	0.002911914	0.030041680	0.009259138
2020-09-16T05:55:00	0.1387	14.036	0.0	0.296086769	0.284841547	0.002926227	0.030189342	0.009304648
2020-09-16T06:00:00	0.1390	14.041	23.0	0.296641983	0.285881668	0.002940582	0.030337447	0.009350296
2020-09-16T06:05:00	0.1388	14.042	0.0	0.296377063	0.285385132	0.002933727	0.030266722	0.009328498
2020-09-16T06:10:00	0.1387	14.046	0.0	0.296112129	0.284889015	0.002926882	0.030196097	0.009306730
2020-09-16T06:15:00	0.1395	14.052	0.0	0.297692373	0.287854750	0.002967863	0.030618895	0.009437041
2020-09-16T06:20:00	0.1404	14.056	0.0	0.299477109	0.291223202	0.003014582	0.031100882	0.009585594
2020-09-16T06:25:00	0.1402	14.063	0.0	0.299212318	0.290722177	0.003007621	0.031029072	0.009563461
2020-09-16T06:30:00	0.1409	14.074	0.0	0.300586831	0.293327783	0.003043863	0.031402976	0.009678702
2020-09-16T06:35:00	0.1411	14.087	0.0	0.300936744	0.293993001	0.003053133	0.031498614	0.009708179
2020-09-16T06:40:00	0.1411	14.105	0.0	0.301081771	0.294268937	0.003056981	0.031538307	0.009720412
2020-09-16T06:45:00	0.1416	14.127	0.0	0.302046192	0.296107272	0.003082643	0.031803064	0.009802013
2020-09-16T06:50:00	0.1411	14.148	0.0	0.300962084	0.294041203	0.003053805	0.031505547	0.009710316
2020-09-16T06:55:00	0.1409	14.169	0.0	0.300492475	0.293148535	0.003041367	0.031377218	0.009670763
2020-09-16T07:00:00	0.1408	14.191	0.0	0.300432625	0.293034868	0.003039784	0.031360887	0.009665730
2020-09-16T07:05:00	0.1406	14.225	0.0	0.299962975	0.292143688	0.003027380	0.031232920	0.009626289
2020-09-16T07:10:00	0.1405	14.242	0.0	0.299698207	0.291641893	0.003020401	0.031160923	0.009604099
2020-09-16T07:15:00	0.1406	14.267	0.0	0.300048172	0.292305250	0.003029628	0.031256109	0.009633436
2020-09-16T07:20:00	0.1410	14.294	0.0	0.300807888	0.293747942	0.003049718	0.031463374	0.009697317
2020-09-16T07:25:00	0.1412	14.335	0.0	0.301157787	0.294413623	0.003058999	0.031559124	0.009726829
2020-09-16T07:30:00	0.1407	14.369	0.0	0.300278416	0.292742096	0.003035707	0.031318833	0.009652768
2020-09-16T07:35:00	0.1408	14.396	0.0	0.300423459	0.293017461	0.003039541	0.031358386	0.009664959
2020-09-16T07:40:00	0.1405	14.422	0.0	0.299748896	0.291737927	0.003021737	0.031174699	0.009608345
2020-09-16T07:45:00	0.1402	14.453	0.0	0.299074255	0.290461114	0.003003996	0.030991671	0.009551934
2020-09-16T07:50:00	0.1399	14.496	0.0	0.298604495	0.289573750	0.002991682	0.030864629	0.009512778
2020-09-16T07:55:00	0.1395	14.535	0.0	0.297724738	0.287915656	0.002968706	0.030627593	0.009439722
2020-09-16T08:00:00	0.1392	14.578	0.0	0.297049860	0.286647010	0.002951157	0.030446541	0.009383920
2020-09-16T08:05:00	0.1392	14.623	0.0	0.297194984	0.286919574	0.002954925	0.030485417	0.009395902
2020-09-16T08:10:00	0.1390	14.672	0.0	0.296725071	0.286037488	0.002942735	0.030359650	0.009357139
2020-09-16T08:15:00	0.1392	14.714	0.0	0.297075217	0.286694623	0.002951815	0.030453331	0.009386012
2020-09-16T08:20:00	0.1396	14.780	0.0	0.297835321	0.288123806	0.002971588	0.030657325	0.009448885
2020-09-16T08:25:00	0.1396	14.902	0.0	0.297980426	0.288397052	0.002975372	0.030696365	0.009460918
2020-09-16T08:30:00	0.1396	14.944	0.0	0.297920550	0.288284285	0.002973810	0.030680252	0.009455952
2020-09-16T08:35:00	0.1395	15.115	0.0	0.297655689	0.287785724	0.002966908	0.030609038	0.009434003
2020-09-16T08:40:00	0.1395	15.177	0.0	0.297800798	0.288058814	0.002970688	0.030648041	0.009446024
2020-09-16T08:45:00	0.1401	15.166	0.0	0.298970705	0.290265392	0.003001279	0.030963639	0.009543294
2020-09-16T08:50:00	0.1396	15.231	0.0	0.297886027	0.288219275	0.002972910	0.030670964	0.009453089
2020-09-16T08:55:00	0.1404	15.312	0.0	0.299465782	0.291201761	0.003014284	0.031097808	0.009584646
2020-09-16T09:00:00	0.1406	15.429	0.0	0.300020671	0.292253093	0.003028902	0.031248623	0.009631129
2020-09-16T09:05:00	0.1406	15.425	0.0	0.299960816	0.292139595	0.003027323	0.031232333	0.009626108
2020-09-16T09:10:00	0.1407	15.533	0.0	0.300105867	0.292414685	0.003031150	0.031271819	0.009638278
2020-09-16T09:15:00	0.1406	15.489	0.0	0.300046014	0.292301157	0.003029571	0.031255522	0.009633255
2020-09-16T09:20:00	0.1402	15.484	0.0	0.299166476	0.290635480	0.003006417	0.031016650	0.009559633
2020-09-16T09:25:00	0.1404	15.471	0.0	0.299516473	0.291297724	0.003015617	0.031111566	0.009588887
2020-09-16T09:30:00	0.1404	15.560	0.0	0.299661535	0.291572428	0.003019436	0.031150960	0.009601028
2020-09-16T09:35:00	0.1396	15.653	0.0	0.297962085	0.288362507	0.002974894	0.030691429	0.009459396
2020-09-16T09:40:00	0.1388	15.870	0.0	0.296262131	0.285169856	0.002930756	0.030236071	0.009319051
2020-09-16T09:45:00	0.1398	15.897	0.0	0.298252283	0.288909344	0.002982470	0.030769593	0.009483487
2020-09-16T09:50:00	0.1396	15.975	0.0	0.297987437	0.288410259	0.002975555	0.030698252	0.009461500
2020-09-16T09:55:00	0.1406	16.005	0.0	0.299976993	0.292170267	0.003027750	0.031236735	0.009627465
2020-09-16T10:00:00	0.1394	16.086	0.0	0.297457708	0.287413345	0.002961754	0.030555875	0.009417617
2020-09-16T10:05:00	0.1397	16.050	0.0	0.298188742	0.288789566	0.002980810	0.030752468	0.009478209
2020-09-16T10:10:00	0.1392	16.076	0.0	0.297074892	0.286694013	0.002951807	0.030453244	0.009385986
2020-09-16T10:15:00	0.1393	16.144	0.0	0.297395993	0.287297317	0.002960149	0.030539315	0.009412513
2020-09-16T10:20:00	0.1391	16.132	0.0	0.296897070	0.286360190	0.002947193	0.030405646	0.009371315
2020-09-16T10:25:00	0.1398	16.164	0.0	0.298243113	0.288892057	0.002982230	0.030767121	0.009482726
2020-09-16T10:30:00	0.1395	16.170	0.0	0.297744264	0.287952404	0.002969215	0.030632842	0.009441339
2020-09-16T10:35:00	0.1387	16.264	0.0	0.296015215	0.284707642	0.002924380	0.030170288	0.009298776
2020-09-16T10:40:00	0.1385	16.288	0.0	0.295721233	0.284157825	0.002916800	0.030092084	0.009274673
2020-09-16T10:45:00	0.1387	16.225	0.0	0.296042411	0.284758532	0.002925082	0.030177529	0.009301008
2020-09-16T10:50:00	0.1385	16.314	0.0	0.295748430	0.284208668	0.002917500	0.030099314	0.009276901
2020-09-16T10:55:00	0.1381	16.343	0.0	0.294839194	0.282511473	0.002894131	0.029858218	0.009202593
2020-09-16T11:00:00	0.1384	16.382	0.0	0.295365498	0.283493245	0.002907644	0.029997625	0.009245559
2020-09-16T11:05:00	0.1382	16.429	0.0	0.295071482	0.282944569	0.002900090	0.029919695	0.009221541
2020-09-16T11:10:00	0.1375	16.376	0.0	0.293546754	0.280107951	0.002861117	0.029517615	0.009097616
2020-09-16T11:15:00	0.1367	16.418	0.0	0.292021604	0.277285213	0.002822466	0.029118858	0.008974715
2020-09-16T11:20:00	0.1369	16.444	0.0	0.292342996	0.277878824	0.002830583	0.029202603	0.009000526
2020-09-16T11:25:00	0.1376	16.502	0.0	0.293895263	0.280755029	0.002869996	0.029609216	0.009125848
2020-09-16T11:30:00	0.1381	16.410	0.0	0.294831854	0.282497792	0.002893943	0.029856276	0.009201994
2020-09-16T11:35:00	0.1376	16.431	0.0	0.293922469	0.280805574	0.002870690	0.029616375	0.009128054
2020-09-16T11:40:00	0.1381	16.485	0.0	0.294859055	0.282548490	0.002894640	0.029863471	0.009204212
2020-09-16T11:45:00	0.1376	16.530	0.0	0.293744547	0.280475100	0.002866154	0.029569581	0.009113632
2020-09-16T11:50:00	0.1375	16.530	0.0	0.293655584	0.280309934	0.002863888	0.029546201	0.009106426
2020-09-16T11:55:00	0.1365	16.570	0.0	0.291514854	0.276350568	0.002809697	0.028987124	0.008934113
2020-09-16T12:00:00	0.1370	16.513	0.0	0.292657026	0.278459467	0.002838529	0.029284576	0.009025791
2020-09-16T12:05:00	0.1371	16.591	0.0	0.292773217	0.278674462	0.002841472	0.029314942	0.009035150
2020-09-16T12:10:00	0.1370	16.555	68.0	0.292684239	0.278509811	0.002839218	0.029291686	0.009027982
2020-09-16T12:15:00	0.1374	16.595	0.0	0.293415895	0.279865183	0.002857788	0.029483267	0.009087029
2020-09-16T12:20:00	0.1368	16.598	0.0	0.292095906	0.277422390	0.002824341	0.029138205	0.008980678
2020-09-16T12:25:00	0.1363	16.596	0.0	0.291186068	0.275745024	0.002801432	0.028901855	0.008907833
2020-09-16T12:30:00	0.1357	16.735	0.0	0.289865536	0.273319791	0.002768391	0.028560981	0.008802772
2020-09-16T12:35:00	0.1356	16.847	0.0	0.289776509	0.273156684	0.002766172	0.028538092	0.008795717
2020-09-16T12:40:00	0.1353	16.809	0.0	0.289071590	0.271866957	0.002748645	0.028357265	0.008739985
2020-09-16T12:45:00	0.1353	16.834	0.0	0.289187859	0.272079467	0.002751531	0.028387040	0.008749162
2020-09-16T12:50:00	0.1352	16.897	0.0	0.288893509	0.271541632	0.002744228	0.028311699	0.008725940
2020-09-16T12:55:00	0.1348	16.969	0.0	0.287983125	0.269881640	0.002721719	0.028079477	0.008654367
2020-09-16T13:00:00	0.1342	16.918	0.0	0.286867192	0.267853977	0.002694288	0.027796471	0.008567142
2020-09-16T13:05:00	0.1344	16.970	0.0	0.287188896	0.268437711	0.002702178	0.027877871	0.008592231
2020-09-16T13:10:00	0.1349	17.053	0.0	0.288331994	0.270517150	0.002730331	0.028168324	0.008681751
2020-09-16T13:15:00	0.1352	17.042	0.0	0.288858929	0.271478484	0.002743371	0.028302856	0.008723215
2020-09-16T13:20:00	0.1351	16.976	33.0	0.288769885	0.271315911	0.002741165	0.028280094	0.008716199
2020-09-16T13:25:00	0.1356	17.115	29.0	0.289707361	0.273030031	0.002764450	0.028520322	0.008790240
2020-09-16T13:30:00	0.1349	17.138	0.0	0.288181123	0.270242224	0.002726605	0.028129880	0.008669902
2020-09-16T13:35:00	0.1353	17.094	0.0	0.289118703	0.271953056	0.002749814	0.028369328	0.008743702
2020-09-16T13:40:00	0.1348	17.114	0.0	0.288003011	0.269917845	0.002722210	0.028084537	0.008655927
2020-09-16T13:45:00	0.1354	17.033	0.0	0.289351234	0.272378222	0.002755590	0.028428913	0.008762067
2020-09-16T13:50:00	0.1352	17.046	0.0	0.288851580	0.271465065	0.002743189	0.028300977	0.008722636
2020-09-16T13:55:00	0.1352	17.025	0.0	0.288967854	0.271677423	0.002746072	0.028330716	0.008731802
2020-09-16T14:00:00	0.1349	16.983	11.0	0.288262827	0.270391092	0.002728622	0.028150695	0.008676318
2020-09-16T14:05:00	0.1347	17.013	0.0	0.287968426	0.269854880	0.002721357	0.028075737	0.008653215
2020-09-16T14:10:00	0.1350	16.974	0.0	0.288495397	0.270815072	0.002734371	0.028209999	0.008694596
2020-09-16T14:15:00	0.1347	16.999	0.0	0.287790307	0.269530726	0.002716967	0.028030448	0.008639256
2020-09-16T14:20:00	0.1350	17.076	0.0	0.288522630	0.270864742	0.002735044	0.028216948	0.008696738
2020-09-16T14:25:00	0.1353	17.006	0.0	0.289049546	0.271826674	0.002748098	0.028351622	0.008738245
2020-09-16T14:30:00	0.1349	16.998	0.0	0.288344530	0.270540000	0.002730641	0.028171520	0.008682736
2020-09-16T14:35:00	0.1353	16.924	0.0	0.289076776	0.271876433	0.002748774	0.028358593	0.008740394
2020-09-16T14:40:00	0.1350	16.919	0.0	0.288577096	0.270964093	0.002736392	0.028230850	0.008701022
2020-09-16T14:45:00	0.1354	16.926	0.0	0.289309310	0.272301541	0.002754548	0.028418164	0.008758754
2020-09-16T14:50:00	0.1358	16.904	0.0	0.290041422	0.273642183	0.002772778	0.028606235	0.008816720
2020-09-16T14:55:00	0.1356	16.813	96.0	0.289747120	0.273102851	0.002765440	0.028530538	0.008793389
2020-09-16T15:00:00	0.1362	16.754	0.0	0.290889666	0.275199708	0.002793994	0.028825121	0.008884182
2020-09-16T15:05:00	0.1369	16.698	0.0	0.292442346	0.278062454	0.002833095	0.029228521	0.009008514
2020-09-16T15:10:00	0.1365	16.644	0.0	0.291532566	0.276383208	0.002810143	0.028991722	0.008935530
2020-09-16T15:15:00	0.1363	16.605	0.0	0.291238345	0.275841260	0.002802745	0.028915403	0.008912008
2020-09-16T15:20:00	0.1364	16.578	0.0	0.291354566	0.276055271	0.002805666	0.028945535	0.008921295
2020-09-16T15:25:00	0.1363	16.544	0.0	0.291060335	0.275513636	0.002798275	0.028869289	0.008897795
2020-09-16T15:30:00	0.1362	16.525	256.0	0.290971329	0.275349895	0.002796042	0.028846250	0.008890694
2020-09-16T15:35:00	0.1365	16.500	14.0	0.291498003	0.276319515	0.002809273	0.028982750	0.008932765
2020-09-16T15:40:00	0.1364	16.483	0.0	0.291409003	0.276155542	0.002807034	0.028959655	0.008925647
2020-09-16T15:45:00	0.1361	16.432	0.0	0.290704299	0.274858955	0.002789349	0.028777198	0.008869412
2020-09-16T15:50:00	0.1362	16.389	0.0	0.291025770	0.275450041	0.002797408	0.028860341	0.008895037
2020-09-16T15:55:00	0.1363	16.374	0.0	0.291141995	0.275663905	0.002800325	0.028890438	0.008904313
2020-09-16T16:00:00	0.1361	16.330	0.0	0.290642509	0.274745416	0.002787802	0.028761234	0.008864492
2020-09-16T16:05:00	0.1358	16.325	0.0	0.290183058	0.273901934	0.002776313	0.028642710	0.008827962
2020-09-16T16:10:00	0.1355	16.291	0.0	0.289518279	0.272683860	0.002759744	0.028471766	0.008775275
2020-09-16T16:15:00	0.1351	16.263	0.0	0.288648096	0.271093633	0.002738149	0.028248979	0.008706610
2020-09-16T16:20:00	0.1346	16.241	0.0	0.287572407	0.269134447	0.002711603	0.027975106	0.008622199
2020-09-16T16:25:00	0.1344	16.225	0.0	0.287318070	0.268672282	0.002705350	0.027910598	0.008602317
2020-09-16T16:30:00	0.1335	16.223	0.0	0.285420359	0.265236752	0.002658983	0.027432243	0.008454884
2020-09-16T16:35:00	0.1336	16.196	124.0	0.285576826	0.265519153	0.002662787	0.027471485	0.008466979
2020-09-16T16:40:00	0.1334	16.179	146.0	0.285116930	0.264689541	0.002651617	0.027356242	0.008431459
2020-09-16T16:45:00	0.1329	16.152	168.0	0.284246008	0.263122128	0.002630544	0.027138839	0.008364454
2020-09-16T16:50:00	0.1321	16.127	180.0	0.282552725	0.260088379	0.002589878	0.026719291	0.008235145
2020-09-16T16:55:00	0.1320	16.089	216.0	0.282298137	0.259633813	0.002583798	0.026656568	0.008215813
2020-09-16T17:00:00	0.1314	16.055	83.0	0.281015475	0.257349835	0.002553305	0.026341977	0.008118853
2020-09-16T17:05:00	0.1304	16.037	89.0	0.279115374	0.253985468	0.002508553	0.025880283	0.007976555
2020-09-16T17:10:00	0.1297	16.011	158.0	0.277626097	0.251364421	0.002473827	0.025522016	0.007866133
2020-09-16T17:15:00	0.1289	15.974	200.0	0.275930504	0.248397284	0.002434662	0.025117956	0.007741598
2020-09-16T17:20:00	0.1288	15.938	209.0	0.275675566	0.247952731	0.002428807	0.025057557	0.007722982
2020-09-16T17:25:00	0.1287	15.917	182.0	0.275626484	0.247867191	0.002427681	0.025045939	0.007719402
2020-09-16T17:30:00	0.1288	15.890	202.0	0.275783265	0.248140483	0.002431279	0.025083061	0.007730843
2020-09-16T17:35:00	0.1284	15.859	157.0	0.274910666	0.246621383	0.002411295	0.024876891	0.007667299
2020-09-16T17:40:00	0.1287	15.826	193.0	0.275479234	0.247610654	0.002424305	0.025011105	0.007708666
2020-09-16T17:45:00	0.1290	15.796	167.0	0.276047733	0.248601841	0.002437357	0.025145761	0.007750168
2020-09-16T17:50:00	0.1288	15.775	129.0	0.275792801	0.248157111	0.002431498	0.025085320	0.007731539
2020-09-16T17:55:00	0.1286	15.740	151.0	0.275331981	0.247354247	0.002420931	0.024976301	0.007697939
2020-09-16T18:00:00	0.1286	15.701	102.0	0.275282895	0.247268806	0.002419807	0.024964706	0.007694365
2020-09-16T18:05:00	0.1291	15.667	127.0	0.276263111	0.248977889	0.002442313	0.025196895	0.007765928
2020-09-16T18:10:00	0.1287	15.637	121.0	0.275596475	0.247814898	0.002426993	0.025038838	0.007717213
2020-09-16T18:15:00	0.1286	15.611	155.0	0.275341518	0.247370849	0.002421150	0.024978554	0.007698633
2020-09-16T18:20:00	0.1282	15.589	109.0	0.274468836	0.245854034	0.002401217	0.024772909	0.007635251
2020-09-16T18:25:00	0.1282	15.557	105.0	0.274419741	0.245768844	0.002400098	0.024761372	0.007631695
2020-09-16T18:30:00	0.1281	15.531	80.0	0.274370646	0.245683669	0.002398980	0.024749838	0.007628141
2020-09-16T18:35:00	0.1274	15.511	89.0	0.272879855	0.243104533	0.002365190	0.024401228	0.007520696
2020-09-16T18:40:00	0.1270	15.490	53.0	0.272006702	0.241600443	0.002345540	0.024198500	0.007458213
2020-09-16T18:45:00	0.1264	15.469	89.0	0.270721223	0.239394819	0.002316798	0.023901983	0.007366823
2020-09-16T18:50:00	0.1265	15.447	22.0	0.271084249	0.240016644	0.002324892	0.023985486	0.007392560
2020-09-16T18:55:00	0.1265	15.427	122.0	0.271035118	0.239932438	0.002323796	0.023974174	0.007389073
2020-09-16T19:00:00	0.1266	15.400	109.0	0.271192057	0.240201467	0.002327299	0.024010320	0.007400214
2020-09-16T19:05:00	0.1270	15.371	61.0	0.271967125	0.241532381	0.002344651	0.024189336	0.007455388
2020-09-16T19:10:00	0.1263	15.353	122.0	0.270681634	0.239327058	0.002315917	0.023892888	0.007364020
2020-09-16T19:15:00	0.1264	15.330	127.0	0.270838586	0.239595758	0.002319413	0.023928958	0.007375137
2020-09-16T19:20:00	0.1262	15.303	95.0	0.270377262	0.238806417	0.002309146	0.023823035	0.007342491
2020-09-16T19:25:00	0.1259	15.278	88.0	0.269709759	0.237666669	0.002294341	0.023670297	0.007295415
2020-09-16T19:30:00	0.1253	15.267	12.0	0.268629801	0.235828607	0.002270516	0.023424496	0.007219657
2020-09-16T19:35:00	0.1248	15.240	91.0	0.267549575	0.233997437	0.002246842	0.023180257	0.007144380
2020-09-16T19:40:00	0.1240	15.214	95.0	0.265850161	0.231131513	0.002209916	0.022799295	0.007026964
2020-09-16T19:45:00	0.1236	15.201	89.0	0.264975597	0.229663723	0.002191063	0.022604798	0.006967018
2020-09-16T19:50:00	0.1233	15.180	141.0	0.264307253	0.228545279	0.002176725	0.022456873	0.006921426
2020-09-16T19:55:00	0.1233	15.152	88.0	0.264464437	0.228808067	0.002180092	0.022491608	0.006932132
2020-09-16T20:00:00	0.1232	15.128	132.0	0.264208834	0.228380818	0.002174619	0.022435142	0.006914729
2020-09-16T20:05:00	0.1229	15.112	94.0	0.263540366	0.227265396	0.002160346	0.022287895	0.006869346
2020-09-16T20:10:00	0.1225	15.097	139.0	0.262665316	0.225809520	0.002141753	0.022096070	0.006810224
2020-09-16T20:15:00	0.1221	15.070	126.0	0.261996597	0.224700180	0.002127612	0.021950184	0.006765260
2020-09-16T20:20:00	0.1213	15.044	96.0	0.260294902	0.221889933	0.002091896	0.021581702	0.006651690
2020-09-16T20:25:00	0.1215	15.033	130.0	0.260658828	0.222489402	0.002099502	0.021660174	0.006675876
2020-09-16T20:30:00	0.1216	15.042	183.0	0.260816153	0.222748810	0.002102795	0.021694153	0.006686349
2020-09-16T20:35:00	0.1213	15.023	174.0	0.260353730	0.221986779	0.002093124	0.021594374	0.006655596
2020-09-16T20:40:00	0.1208	15.020	113.0	0.259271342	0.220208368	0.002070596	0.021361962	0.006583964
2020-09-16T20:45:00	0.1205	15.017	141.0	0.258602056	0.219112392	0.002056744	0.021219048	0.006539917
2020-09-16T20:50:00	0.1206	15.005	125.0	0.258759463	0.219369896	0.002059997	0.021252605	0.006550259
2020-09-16T20:55:00	0.1203	14.987	94.0	0.258296799	0.218613461	0.002050445	0.021154068	0.006519889
2020-09-16T21:00:00	0.1202	14.970	108.0	0.258040804	0.218195499	0.002045173	0.021099671	0.006503124
2020-09-16T21:05:00	0.1205	14.950	161.0	0.258611631	0.219128051	0.002056942	0.021221088	0.006540546
2020-09-16T21:10:00	0.1200	14.942	45.0	0.257528764	0.217360732	0.002034652	0.020991134	0.006469671
2020-09-16T21:15:00	0.1200	14.926	126.0	0.257686214	0.217617243	0.002037884	0.021024471	0.006479946
2020-09-16T21:20:00	0.1193	14.914	122.0	0.256189478	0.215185128	0.002007298	0.020708919	0.006382690
2020-09-16T21:25:00	0.1201	14.899	102.0	0.257794369	0.217793536	0.002040105	0.021047390	0.006487010
2020-09-16T21:30:00	0.1201	14.897	119.0	0.257745081	0.217713186	0.002039093	0.021036943	0.006483790
2020-09-16T21:35:00	0.1208	14.892	154.0	0.259142676	0.219997455	0.002067929	0.021334441	0.006575482
2020-09-16T21:40:00	0.1212	14.872	121.0	0.260126582	0.221612953	0.002088384	0.021545468	0.006640523
2020-09-16T21:45:00	0.1216	14.869	83.0	0.260903681	0.222893199	0.002104629	0.021713072	0.006692180
2020-09-16T21:50:00	0.1219	14.845	108.0	0.261474096	0.223835360	0.002116605	0.021836622	0.006730259
2020-09-16T21:55:00	0.1217	14.841	123.0	0.261011748	0.223071538	0.002106895	0.021736445	0.006699383
2020-09-16T22:00:00	0.1213	14.827	100.0	0.260342755	0.221968710	0.002092895	0.021592010	0.006654867
2020-09-16T22:05:00	0.1215	14.813	132.0	0.260706677	0.222568281	0.002100503	0.021670504	0.006679060
2020-09-16T22:10:00	0.1214	14.812	11.0	0.260450838	0.222146692	0.002095153	0.021615303	0.006662046
2020-09-16T22:15:00	0.1217	14.810	116.0	0.261021317	0.223087333	0.002107095	0.021738515	0.006700021
2020-09-16T22:20:00	0.1225	14.807	95.0	0.262830725	0.226084351	0.002145260	0.022132250	0.006821374
2020-09-16T22:25:00	0.1227	14.812	102.0	0.263194423	0.226689252	0.002152983	0.022211933	0.006845934
2020-09-16T22:30:00	0.1227	14.815	106.0	0.263145201	0.226607337	0.002151937	0.022201139	0.006842607
2020-09-16T22:35:00	0.1230	14.821	158.0	0.263715302	0.227557027	0.002164076	0.022326370	0.006881204
2020-09-16T22:40:00	0.1237	14.824	51.0	0.265317185	0.230236440	0.002198415	0.022680639	0.006990393
2020-09-16T22:45:00	0.1246	14.823	61.0	0.267124720	0.233279249	0.002237574	0.023084642	0.007114911
2020-09-16T22:50:00	0.1246	14.820	99.0	0.267075544	0.233196193	0.002236503	0.023073591	0.007111505
2020-09-16T22:55:00	0.1242	14.814	46.0	0.266201234	0.231722080	0.002217513	0.022877669	0.007051120
2020-09-16T23:00:00	0.1245	14.799	89.0	0.266977190	0.233030125	0.002234362	0.023051498	0.007104696
2020-09-16T23:05:00	0.1242	14.788	0.0	0.266309163	0.231903790	0.002219851	0.022901797	0.007058556
2020-09-16T23:10:00	0.1244	14.784	139.0	0.266672558	0.232516148	0.002227737	0.022983155	0.007083632
2020-09-16T23:15:00	0.1239	14.787	175.0	0.265591837	0.230697465	0.002204337	0.022741736	0.007009224
2020-09-16T23:20:00	0.1234	14.788	101.0	0.264510839	0.228885673	0.002181087	0.022501868	0.006935294
2020-09-16T23:25:00	0.1234	14.798	92.0	0.264668016	0.229148650	0.002184457	0.022536645	0.006946013
2020-09-16T23:30:00	0.1228	14.795	110.0	0.263380340	0.226998791	0.002156938	0.022252737	0.006858510
2020-09-16T23:35:00	0.1229	14.795	175.0	0.263537560	0.227260720	0.002160287	0.022287278	0.006869156
2020-09-16T23:40:00	0.1229	14.812	258.0	0.263488342	0.227178705	0.002159238	0.022276461	0.006865822
2020-09-16T23:45:00	0.1219	14.824	265.0	0.261580744	0.224011740	0.002118849	0.021859771	0.006737394
2020-09-16T23:50:00	0.1216	14.858	240.0	0.260911846	0.222906672	0.002104800	0.021714837	0.006692724
2020-09-16T23:55:00	0.1218	14.855	232.0	0.261275716	0.223507461	0.002112435	0.021793603	0.006717000
2020-09-17T00:00:00	0.1218	14.869	248.0	0.261226470	0.223426103	0.002111401	0.021782932	0.006713711
2020-09-17T00:05:00	0.1214	14.859	150.0	0.260557513	0.222322430	0.002097383	0.021638309	0.006669137
2020-09-17T00:10:00	0.1205	14.858	216.0	0.258648525	0.219188395	0.002057704	0.021228951	0.006542969
2020-09-17T00:15:00	0.1201	14.840	163.0	0.257772406	0.217757730	0.002039654	0.021042735	0.006485575
2020-09-17T00:20:00	0.1200	14.837	164.0	0.257516377	0.217340557	0.002034398	0.020988512	0.006468863
2020-09-17T00:25:00	0.1199	14.864	166.0	0.257467084	0.217260288	0.002033387	0.020978083	0.006465649
2020-09-17T00:30:00	0.1200	14.894	179.0	0.257624537	0.217516742	0.002036618	0.021011408	0.006475920
2020-09-17T00:35:00	0.1199	14.885	175.0	0.257368498	0.217099792	0.002031367	0.020957235	0.006459223
2020-09-17T00:40:00	0.1189	14.918	115.0	0.255251085	0.213667484	0.001988271	0.020512620	0.006322189
2020-09-17T00:45:00	0.1186	14.905	109.0	0.254787999	0.212920588	0.001978923	0.020416186	0.006292467
2020-09-17T00:50:00	0.1181	14.924	122.0	0.253704049	0.211177596	0.001957153	0.020191585	0.006223243
2020-09-17T00:55:00	0.1175	14.887	117.0	0.252412765	0.209110864	0.001931417	0.019926076	0.006141410
2020-09-17T01:00:00	0.1171	14.924	105.0	0.251535200	0.207712291	0.001914050	0.019746904	0.006086188
2020-09-17T01:05:00	0.1173	14.942	114.0	0.251899961	0.208293021	0.001921257	0.019821253	0.006109103
2020-09-17T01:10:00	0.1174	14.924	119.0	0.252264686	0.208874531	0.001928480	0.019895771	0.006132070
2020-09-17T01:15:00	0.1179	14.945	122.0	0.253250361	0.210450261	0.001948086	0.020098046	0.006194413
2020-09-17T01:20:00	0.1180	14.922	116.0	0.253407989	0.210702817	0.001951233	0.020130514	0.006204420
2020-09-17T01:25:00	0.1184	14.927	114.0	0.254186440	0.211952367	0.001966822	0.020291345	0.006253990
2020-09-17T01:30:00	0.1191	14.921	113.0	0.255792174	0.214541899	0.001999228	0.020625664	0.006357030
2020-09-17T01:35:00	0.1193	14.895	98.0	0.256156519	0.215131731	0.002006627	0.020702004	0.006380559
2020-09-17T01:40:00	0.1202	14.854	99.0	0.257968152	0.218076955	0.002043678	0.021084250	0.006498370
2020-09-17T01:45:00	0.1200	14.851	107.0	0.257505394	0.217322672	0.002034173	0.020986188	0.006468147
2020-09-17T01:50:00	0.1202	14.825	102.0	0.258076299	0.218253427	0.002045903	0.021107208	0.006505447
2020-09-17T01:55:00	0.1200	14.795	112.0	0.257613555	0.217498850	0.002036392	0.021009082	0.006475203
2020-09-17T02:00:00	0.1194	14.737	90.0	0.256323605	0.215402503	0.002010027	0.020737073	0.006391367
2020-09-17T02:05:00	0.1186	14.714	141.0	0.254619439	0.212649057	0.001975528	0.020381156	0.006281670
2020-09-17T02:10:00	0.1185	14.699	122.0	0.254570109	0.212569627	0.001974535	0.020370911	0.006278513
2020-09-17T02:15:00	0.1191	14.680	85.0	0.255762023	0.214493126	0.001998616	0.020619354	0.006355085
2020-09-17T02:20:00	0.1192	14.661	115.0	0.255919545	0.214748003	0.002001813	0.020652331	0.006365249
2020-09-17T02:25:00	0.1193	14.649	162.0	0.256077061	0.215003026	0.002005012	0.020685340	0.006375423
2020-09-17T02:30:00	0.1190	14.627	156.0	0.255614076	0.214253885	0.001995617	0.020588413	0.006345549
2020-09-17T02:35:00	0.1186	14.614	164.0	0.254737266	0.212838843	0.001977901	0.020405639	0.006289216
2020-09-17T02:40:00	0.1182	14.588	167.0	0.253860251	0.211428313	0.001960281	0.020223854	0.006233188
2020-09-17T02:45:00	0.1180	14.543	158.0	0.253396994	0.210685196	0.001951014	0.020128248	0.006203721
2020-09-17T02:50:00	0.1178	14.548	186.0	0.252933679	0.209943338	0.001941773	0.020032917	0.006174339
2020-09-17T02:55:00	0.1175	14.534	234.0	0.252470307	0.209202738	0.001932560	0.019937860	0.006145042
2020-09-17T03:00:00	0.1178	14.510	202.0	0.253041970	0.210116612	0.001943931	0.020055173	0.006181199
2020-09-17T03:05:00	0.1173	14.467	114.0	0.251957511	0.208384722	0.001922395	0.019832999	0.006112723
2020-09-17T03:10:00	0.1163	14.434	121.0	0.249837019	0.205019665	0.001880725	0.019403096	0.005980223
2020-09-17T03:15:00	0.1161	14.420	66.0	0.249580443	0.204614420	0.001875722	0.019351483	0.005964315
2020-09-17T03:20:00	0.1157	14.435	128.0	0.248702190	0.203230405	0.001858662	0.019175472	0.005910067
2020-09-17T03:25:00	0.1148	14.422	58.0	0.246787114	0.200229323	0.001821803	0.018795201	0.005792864
2020-09-17T03:30:00	0.1148	14.445	99.0	0.246737677	0.200152156	0.001820857	0.018785448	0.005789858
2020-09-17T03:35:00	0.1146	14.436	41.0	0.246480876	0.199751562	0.001815952	0.018734840	0.005774260
2020-09-17T03:40:00	0.1152	14.405	0.0	0.247675449	0.201618547	0.001838842	0.018970995	0.005847045
2020-09-17T03:45:00	0.1146	14.394	0.0	0.246381992	0.199597421	0.001814065	0.018715376	0.005768261
2020-09-17T03:50:00	0.1143	14.381	0.0	0.245710357	0.198552090	0.001801284	0.018583510	0.005727618
2020-09-17T03:55:00	0.1139	14.361	0.0	0.245038590	0.197509394	0.001788557	0.018452210	0.005687150
2020-09-17T04:00:00	0.1140	14.347	0.0	0.245196582	0.197754369	0.001791545	0.018483037	0.005696652
2020-09-17T04:05:00	0.1146	14.296	0.0	0.246387888	0.199606609	0.001814178	0.018716536	0.005768618
2020-09-17T04:10:00	0.1143	14.270	0.0	0.245712542	0.198555486	0.001801325	0.018583938	0.005727750
2020-09-17T04:15:00	0.1142	14.250	18.0	0.245659378	0.198472862	0.001800316	0.018573525	0.005724541
2020-09-17T04:20:00	0.1148	14.231	0.0	0.246850524	0.200328321	0.001823016	0.018807715	0.005796720
2020-09-17T04:25:00	0.1160	14.236	0.0	0.249284704	0.204147831	0.001869967	0.019292100	0.005946013
2020-09-17T04:30:00	0.1171	14.189	0.0	0.251510151	0.207672442	0.001913556	0.019741805	0.006084616
2020-09-17T04:35:00	0.1176	14.094	0.0	0.252699339	0.209568627	0.001937110	0.019984808	0.006159512
2020-09-17T04:40:00	0.1180	13.999	0.0	0.253474235	0.210809005	0.001952557	0.020144169	0.006208628
2020-09-17T04:45:00	0.1189	13.964	0.0	0.255283442	0.213719722	0.001988925	0.020519369	0.006324269
2020-09-17T04:50:00	0.1193	13.936	0.0	0.256057805	0.214971842	0.002004621	0.020681303	0.006374179
2020-09-17T04:55:00	0.1199	13.925	0.0	0.257452308	0.217236229	0.002033084	0.020974958	0.006464686
2020-09-17T05:00:00	0.1206	13.892	0.0	0.258846310	0.219512038	0.002061793	0.021271134	0.006555970
2020-09-17T05:05:00	0.1218	13.862	0.0	0.261272698	0.223502475	0.002112372	0.021792949	0.006716799
2020-09-17T05:10:00	0.1223	13.799	0.0	0.262252385	0.225124174	0.002133014	0.022005914	0.006782436
2020-09-17T05:15:00	0.1227	13.792	0.0	0.263231837	0.226751525	0.002153779	0.022220141	0.006848463
2020-09-17T05:20:00	0.1227	13.821	0.0	0.263178920	0.226663451	0.002152654	0.022208533	0.006844886
2020-09-17T05:25:00	0.1232	13.821	0.0	0.264158151	0.228296148	0.002173535	0.022423956	0.006911281
2020-09-17T05:30:00	0.1237	13.781	0.0	0.265137151	0.229934497	0.002194538	0.022640647	0.006978067
2020-09-17T05:35:00	0.1245	13.741	0.0	0.266941072	0.232969155	0.002233576	0.023043388	0.007102196
2020-09-17T05:40:00	0.1236	13.731	0.0	0.265031366	0.229757176	0.002192263	0.022617169	0.006970831
2020-09-17T05:45:00	0.1235	13.772	0.0	0.264772104	0.229322888	0.002186692	0.022559694	0.006953117
2020-09-17T05:50:00	0.1241	13.760	0.0	0.265957280	0.231311625	0.002212232	0.022823191	0.007034329
2020-09-17T05:55:00	0.1242	13.772	0.0	0.266317014	0.231917011	0.002220022	0.022903553	0.007059097
2020-09-17T06:00:00	0.1245	13.750	0.0	0.266882992	0.232871131	0.002232312	0.023030351	0.007098178
2020-09-17T06:05:00	0.1236	13.689	0.0	0.264973260	0.229659806	0.002191013	0.022604280	0.006966859
2020-09-17T06:10:00	0.1234	13.701	0.0	0.264507613	0.228880278	0.002181017	0.022501154	0.006935074
2020-09-17T06:15:00	0.1236	13.705	0.0	0.265073834	0.229828355	0.002193176	0.022626593	0.006973736
2020-09-17T06:20:00	0.1242	13.674	116.0	0.266258926	0.231819201	0.002218763	0.022890564	0.007055094
2020-09-17T06:25:00	0.1242	13.652	243.0	0.266206048	0.231730182	0.002217617	0.022878745	0.007051451
2020-09-17T06:30:00	0.1244	13.670	197.0	0.266772041	0.232683932	0.002229899	0.023005460	0.007090506
2020-09-17T06:35:00	0.1255	13.650	118.0	0.268987630	0.236436808	0.002278393	0.023505759	0.007244703
2020-09-17T06:40:00	0.1266	13.591	112.0	0.271202093	0.240218676	0.002327524	0.024012632	0.007400927
2020-09-17T06:45:00	0.1269	13.591	78.0	0.271767437	0.241189124	0.002340173	0.024143134	0.007441148
2020-09-17T06:50:00	0.1281	13.558	103.0	0.274392383	0.245721379	0.002399475	0.024754944	0.007629714
2020-09-17T06:55:00	0.1284	13.556	120.0	0.274957331	0.246702499	0.002412362	0.024887889	0.007670689
2020-09-17T07:00:00	0.1286	13.572	88.0	0.275316334	0.247327010	0.002420573	0.024972605	0.007696799
2020-09-17T07:05:00	0.1291	13.564	138.0	0.276292860	0.249029852	0.002442998	0.025203963	0.007768106
2020-09-17T07:10:00	0.1300	13.519	100.0	0.278298039	0.252545273	0.002489457	0.025683270	0.007915833
2020-09-17T07:15:00	0.1304	13.534	112.0	0.279068238	0.253902297	0.002507450	0.025868895	0.007973045
2020-09-17T07:20:00	0.1317	13.497	108.0	0.281689112	0.258548058	0.002569291	0.026506902	0.008169685
2020-09-17T07:25:00	0.1319	13.482	90.0	0.282047611	0.259186898	0.002577824	0.026594937	0.008196818
2020-09-17T07:30:00	0.1329	13.437	90.0	0.284255923	0.263139946	0.002630783	0.027141308	0.008365215
2020-09-17T07:35:00	0.1328	13.380	137.0	0.283997744	0.262676199	0.002624557	0.027077068	0.008345415
2020-09-17T07:40:00	0.1328	13.387	241.0	0.283945069	0.262581633	0.002623287	0.027063973	0.008341379
2020-09-17T07:45:00	0.1327	13.457	157.0	0.283686873	0.262118363	0.002617071	0.026999844	0.008321614
2020-09-17T07:50:00	0.1335	13.496	54.0	0.285483584	0.265350845	0.002660520	0.027448095	0.008459770
2020-09-17T07:55:00	0.1333	13.518	74.0	0.285020003	0.264514863	0.002649266	0.027331992	0.008423985
2020-09-17T08:00:00	0.1335	13.541	96.0	0.285378263	0.265160800	0.002657961	0.027421691	0.008451631
2020-09-17T08:05:00	0.1331	13.661	97.0	0.284503709	0.263585419	0.002636768	0.027203053	0.008384245
2020-09-17T08:10:00	0.1336	13.722	120.0	0.285683842	0.265712391	0.002665391	0.027498346	0.008475257
2020-09-17T08:15:00	0.1331	13.623	90.0	0.284603858	0.263765578	0.002639190	0.027228034	0.008391945
2020-09-17T08:20:00	0.1332	13.696	96.0	0.284756672	0.264040600	0.002642887	0.027266180	0.008403701
2020-09-17T08:25:00	0.1335	13.739	91.0	0.285320413	0.265056442	0.002656556	0.027407194	0.008447163
2020-09-17T08:30:00	0.1338	13.670	94.0	0.286089521	0.266445581	0.002675275	0.027600321	0.008506687
2020-09-17T08:35:00	0.1339	13.650	48.0	0.286242291	0.266721954	0.002679003	0.027638785	0.008518542
2020-09-17T08:40:00	0.1340	13.595	143.0	0.286395057	0.266998465	0.002682735	0.027677281	0.008530407
2020-09-17T08:45:00	0.1333	13.623	111.0	0.284904293	0.264306413	0.002646462	0.027303061	0.008415069
2020-09-17T08:50:00	0.1328	13.521	125.0	0.284029656	0.262733497	0.002625326	0.027085003	0.008347861
2020-09-17T08:55:00	0.1320	13.514	104.0	0.282332621	0.259695361	0.002584621	0.026665059	0.008218430
2020-09-17T09:00:00	0.1316	13.729	182.0	0.281457536	0.258135822	0.002563788	0.026450132	0.008152188
2020-09-17T09:05:00	0.1321	13.758	145.0	0.282432813	0.259874227	0.002587013	0.026689737	0.008226036
2020-09-17T09:10:00	0.1320	13.656	67.0	0.282380121	0.259780152	0.002585755	0.026676757	0.008222035
2020-09-17T09:15:00	0.1308	13.730	98.0	0.279859862	0.255300967	0.002526028	0.026060566	0.008032120
2020-09-17T09:20:00	0.1313	13.820	0.0	0.280835457	0.257030116	0.002549044	0.026298014	0.008105303
2020-09-17T09:25:00	0.1307	13.745	0.0	0.279548731	0.254750778	0.002518716	0.025985127	0.008008869
2020-09-17T09:30:00	0.1297	13.781	0.0	0.277644369	0.251396495	0.002474251	0.025526393	0.007867482
2020-09-17T09:35:00	0.1290	13.947	96.0	0.276150947	0.248782015	0.002439731	0.025170257	0.007757718
2020-09-17T09:40:00	0.1308	13.844	32.0	0.279801947	0.255198507	0.002524666	0.026046513	0.008027788
2020-09-17T09:45:00	0.1301	13.674	0.0	0.278514946	0.252927066	0.002494516	0.025735461	0.007931919
2020-09-17T09:50:00	0.1300	13.648	0.0	0.278256465	0.252472129	0.002488488	0.025673274	0.007912753
2020-09-17T09:55:00	0.1301	13.720	0.0	0.278409477	0.252741385	0.002492055	0.025710075	0.007924095
2020-09-17T10:00:00	0.1303	13.778	0.0	0.278768217	0.253373241	0.002500431	0.025796487	0.007950728
2020-09-17T10:05:00	0.1301	13.825	0.0	0.278447810	0.252808864	0.002492949	0.025719300	0.007926938
2020-09-17T10:10:00	0.1309	13.875	0.0	0.279978835	0.255511513	0.002528828	0.026089450	0.008041022
2020-09-17T10:15:00	0.1309	13.929	0.0	0.280069873	0.255672685	0.002530971	0.026111565	0.008047838
2020-09-17T10:20:00	0.1307	14.001	0.0	0.279749553	0.255105832	0.002523434	0.026033804	0.008023871
2020-09-17T10:25:00	0.1302	14.023	0.0	0.278606339	0.253088021	0.002496649	0.025757472	0.007938703
2020-09-17T10:30:00	0.1292	14.051	0.0	0.276639638	0.249636001	0.002450993	0.025286446	0.007793528
2020-09-17T10:35:00	0.1294	14.011	0.0	0.276936553	0.250155595	0.002457852	0.025357205	0.007815337
2020-09-17T10:40:00	0.1302	13.953	0.0	0.278673798	0.253206861	0.002498225	0.025773726	0.007943713
2020-09-17T10:45:00	0.1300	13.926	0.0	0.278147634	0.252280708	0.002485953	0.025647120	0.007904691
2020-09-17T10:50:00	0.1289	14.080	0.0	0.275974897	0.248474736	0.002435682	0.025128483	0.007744842
2020-09-17T10:55:00	0.1299	14.029	0.0	0.277918265	0.251877520	0.002480615	0.025592052	0.007887719
2020-09-17T11:00:00	0.1306	14.023	0.0	0.279449458	0.254575358	0.002516386	0.025961086	0.008001459
2020-09-17T11:05:00	0.1308	13.952	0.0	0.279951881	0.255463806	0.002528193	0.026082904	0.008039004
2020-09-17T11:10:00	0.1297	14.024	0.0	0.277574191	0.251273323	0.002472622	0.025509586	0.007862302
2020-09-17T11:15:00	0.1297	14.060	0.0	0.277665276	0.251433195	0.002474737	0.025531401	0.007869026
2020-09-17T11:20:00	0.1298	14.067	0.0	0.277756358	0.251593116	0.002476852	0.025553226	0.007875752
2020-09-17T11:25:00	0.1296	14.065	0.0	0.277435884	0.251030663	0.002469414	0.025476485	0.007852100
2020-09-17T11:30:00	0.1298	14.045	0.0	0.277732749	0.251551658	0.002476304	0.025547568	0.007874008
2020-09-17T11:35:00	0.1296	13.942	0.0	0.277412273	0.250989249	0.002468866	0.025470837	0.007850359
2020-09-17T11:40:00	0.1279	13.946	0.0	0.273797789	0.244690944	0.002385960	0.024615510	0.007586739
2020-09-17T11:45:00	0.1277	13.953	0.0	0.273477042	0.244136012	0.002378689	0.024540500	0.007563620
2020-09-17T11:50:00	0.1273	13.975	0.0	0.272744300	0.242870712	0.002362132	0.024369685	0.007510974
2020-09-17T11:55:00	0.1263	14.070	0.0	0.270569006	0.239134334	0.002313410	0.023867024	0.007356049
2020-09-17T12:00:00	0.1269	14.131	0.0	0.271896604	0.241411129	0.002343069	0.024173013	0.007450357
2020-09-17T12:05:00	0.1275	14.044	0.0	0.273017832	0.243342652	0.002368305	0.024433362	0.007530599
2020-09-17T12:10:00	0.1271	13.944	0.0	0.272285016	0.242079344	0.002351792	0.024263002	0.007478093
2020-09-17T12:15:00	0.1268	14.019	0.0	0.271552081	0.240819214	0.002335349	0.024093369	0.007425810
2020-09-17T12:20:00	0.1270	14.047	0.0	0.272055357	0.241684128	0.002346632	0.024209768	0.007461686
2020-09-17T12:25:00	0.1272	14.036	0.0	0.272352568	0.242195655	0.002353311	0.024278675	0.007482923
2020-09-17T12:30:00	0.1281	13.989	0.0	0.274297457	0.245556721	0.002397314	0.024732650	0.007622843
2020-09-17T12:35:00	0.1262	14.018	0.0	0.270474419	0.238972544	0.002311306	0.023845318	0.007349359
2020-09-17T12:40:00	0.1284	14.033	0.0	0.274891567	0.246588186	0.002410859	0.024872390	0.007665912
2020-09-17T12:45:00	0.1282	13.972	6.0	0.274570896	0.246031177	0.002403542	0.024796904	0.007642647
2020-09-17T12:50:00	0.1268	13.982	58.0	0.271572361	0.240854037	0.002335803	0.024098053	0.007427254
2020-09-17T12:55:00	0.1266	14.044	96.0	0.271251456	0.240303331	0.002328626	0.024024009	0.007404433
2020-09-17T13:00:00	0.1266	14.084	113.0	0.271136601	0.240106386	0.002326061	0.023997544	0.007396276
2020-09-17T13:05:00	0.1274	14.037	118.0	0.272876029	0.243097932	0.002365104	0.024400337	0.007520421
2020-09-17T13:10:00	0.1271	14.008	106.0	0.272143190	0.241835239	0.002348604	0.024230119	0.007467958
2020-09-17T13:15:00	0.1262	14.083	110.0	0.270379830	0.238810807	0.002309203	0.023823623	0.007342672
2020-09-17T13:20:00	0.1275	14.056	189.0	0.273149553	0.243570085	0.002371280	0.024464063	0.007540062
2020-09-17T13:25:00	0.1264	13.985	224.0	0.270768374	0.239475536	0.002317849	0.023912818	0.007370163
2020-09-17T13:30:00	0.1252	13.974	0.0	0.268385916	0.235414536	0.002265157	0.023369212	0.007202618
2020-09-17T13:35:00	0.1248	13.983	0.0	0.267446092	0.233822402	0.002244583	0.023156945	0.007137195
2020-09-17T13:40:00	0.1241	13.995	95.0	0.266093466	0.231540713	0.002215179	0.022853593	0.007043699
2020-09-17T13:45:00	0.1239	14.057	78.0	0.265565826	0.230653783	0.002203775	0.022735946	0.007007439
2020-09-17T13:50:00	0.1246	14.064	156.0	0.267101219	0.233239554	0.002237062	0.023079360	0.007113283
2020-09-17T13:55:00	0.1238	14.071	0.0	0.265335812	0.230267692	0.002198816	0.022684780	0.006991669
2020-09-17T14:00:00	0.1250	14.019	0.0	0.267902518	0.234594927	0.002254560	0.023259879	0.007168921
2020-09-17T14:05:00	0.1252	13.985	0.0	0.268406211	0.235448979	0.002265603	0.023373809	0.007204035
2020-09-17T14:10:00	0.1247	13.950	28.0	0.267260145	0.233508051	0.002240526	0.023115093	0.007124296
2020-09-17T14:15:00	0.1242	13.956	5.0	0.266320075	0.231922166	0.002220088	0.022904238	0.007059308
2020-09-17T14:20:00	0.1234	13.939	0.0	0.264554341	0.228958443	0.002182019	0.022511490	0.006938260
2020-09-17T14:25:00	0.1236	13.940	285.0	0.265058432	0.229802538	0.002192845	0.022623175	0.006972682
2020-09-17T14:30:00	0.1235	13.913	261.0	0.264737042	0.229264189	0.002185939	0.022551928	0.006950723
2020-09-17T14:35:00	0.1230	13.915	0.0	0.263796408	0.227692301	0.002165806	0.022344222	0.006886706
2020-09-17T14:40:00	0.1242	13.889	178.0	0.266157749	0.231648887	0.002216571	0.022867952	0.007048125
2020-09-17T14:45:00	0.1243	13.869	0.0	0.266455361	0.232150049	0.002223022	0.022934507	0.007068638
2020-09-17T14:50:00	0.1232	13.864	246.0	0.264276909	0.228494567	0.002176076	0.022450172	0.006919361
2020-09-17T14:55:00	0.1231	13.852	231.0	0.263955459	0.227957699	0.002169202	0.022379258	0.006897505
2020-09-17T15:00:00	0.1230	13.851	235.0	0.263840409	0.227765707	0.002166745	0.022353911	0.006889693
2020-09-17T15:05:00	0.1226	13.843	234.0	0.262899571	0.226198792	0.002146721	0.022147320	0.006826019
2020-09-17T15:10:00	0.1225	13.837	258.0	0.262784492	0.226007516	0.002144279	0.022122134	0.006818257
2020-09-17T15:15:00	0.1226	13.814	235.0	0.262875882	0.226159411	0.002146218	0.022142134	0.006824421
2020-09-17T15:20:00	0.1237	13.798	0.0	0.265237745	0.230103182	0.002196704	0.022662987	0.006984953
2020-09-17T15:25:00	0.1233	13.787	0.0	0.264503616	0.228873592	0.002180932	0.022500271	0.006934802
2020-09-17T15:30:00	0.1239	13.772	0.0	0.265626752	0.230756105	0.002205090	0.022749510	0.007011620
2020-09-17T15:35:00	0.1236	13.774	0.0	0.265099053	0.229870629	0.002193719	0.022632190	0.006975461
2020-09-17T15:40:00	0.1239	13.754	0.0	0.265603078	0.230716344	0.002204579	0.022744239	0.007009995
2020-09-17T15:45:00	0.1248	13.765	0.0	0.267550953	0.233999768	0.002246872	0.023180568	0.007144476
2020-09-17T15:50:00	0.1254	13.744	0.0	0.268673285	0.235902473	0.002271472	0.023434362	0.007222698
2020-09-17T15:55:00	0.1255	13.709	0.0	0.268970723	0.236408054	0.002278020	0.023501915	0.007243519
2020-09-17T16:00:00	0.1259	13.705	0.0	0.269680435	0.237616662	0.002293692	0.023663601	0.007293352
2020-09-17T16:05:00	0.1252	13.671	283.0	0.268239082	0.235165422	0.002261935	0.023335968	0.007192372
2020-09-17T16:10:00	0.1245	13.697	241.0	0.266797250	0.232726458	0.002230447	0.023011114	0.007092249
2020-09-17T16:15:00	0.1249	13.684	221.0	0.267624113	0.234123556	0.002248471	0.023197059	0.007149559
2020-09-17T16:20:00	0.1251	13.632	144.0	0.268038408	0.234825182	0.002257536	0.023290582	0.007178383
2020-09-17T16:25:00	0.1250	13.575	0.0	0.267834033	0.234478930	0.002253061	0.023244416	0.007164155
2020-09-17T16:30:00	0.1252	13.537	256.0	0.268248308	0.235181070	0.002262137	0.023338055	0.007193015
2020-09-17T16:35:00	0.1264	13.449	0.0	0.270723907	0.239399414	0.002316858	0.023902599	0.007367013
2020-09-17T16:40:00	0.1276	13.393	0.0	0.273198125	0.243653979	0.002372378	0.024475390	0.007543553
2020-09-17T16:45:00	0.1287	13.386	10.0	0.275465127	0.247586084	0.002423981	0.025007770	0.007707637
2020-09-17T16:50:00	0.1282	13.317	234.0	0.274437490	0.245799640	0.002400503	0.024765543	0.007632981
2020-09-17T16:55:00	0.1294	13.259	0.0	0.276909699	0.250108578	0.002457231	0.025350801	0.007813363
2020-09-17T17:00:00	0.1281	13.211	41.0	0.274235252	0.245448853	0.002395899	0.024718048	0.007618342
2020-09-17T17:05:00	0.1280	13.160	30.0	0.274031162	0.245095115	0.002391259	0.024670177	0.007603588
2020-09-17T17:10:00	0.1281	13.148	18.0	0.274238937	0.245455243	0.002395983	0.024718913	0.007618609
2020-09-17T17:15:00	0.1284	13.091	0.0	0.274858521	0.246530756	0.002410105	0.024864605	0.007663513
2020-09-17T17:20:00	0.1294	13.043	0.0	0.276918907	0.250124699	0.002457444	0.025352997	0.007814040
2020-09-17T17:25:00	0.1300	12.975	0.0	0.278155441	0.252294437	0.002486135	0.025648995	0.007905269
2020-09-17T17:30:00	0.1310	12.958	0.0	0.280214395	0.255928648	0.002534377	0.026146697	0.008058666
2020-09-17T17:35:00	0.1311	12.859	0.0	0.280421898	0.256296389	0.002539271	0.026197192	0.008074229
2020-09-17T17:40:00	0.1315	12.822	0.0	0.281246303	0.257760096	0.002558776	0.026398417	0.008136248
2020-09-17T17:45:00	0.1313	12.769	0.0	0.280836878	0.257032638	0.002549077	0.026298361	0.008105410
2020-09-17T17:50:00	0.1319	12.711	0.0	0.282072410	0.259231120	0.002578415	0.026601034	0.008198697
2020-09-17T17:55:00	0.1315	12.644	0.0	0.281251823	0.257769910	0.002558907	0.026399767	0.008136665
2020-09-17T18:00:00	0.1321	12.575	0.0	0.282487251	0.259971437	0.002588313	0.026703151	0.008230171
2020-09-17T18:05:00	0.1322	12.532	0.0	0.282694659	0.260341980	0.002593271	0.026754299	0.008245935
2020-09-17T18:10:00	0.1311	12.496	0.0	0.280434779	0.256319227	0.002539575	0.026200329	0.008075196
2020-09-17T18:15:00	0.1310	12.475	15.0	0.280230957	0.255957990	0.002534767	0.026150726	0.008059908
2020-09-17T18:20:00	0.1300	12.399	104.0	0.278175693	0.252330053	0.002486607	0.025653861	0.007906769
2020-09-17T18:25:00	0.1320	12.358	137.0	0.282290872	0.259620847	0.002583625	0.026654780	0.008215262
2020-09-17T18:30:00	0.1321	12.276	101.0	0.282498288	0.259991148	0.002588577	0.026705871	0.008231009
2020-09-17T18:35:00	0.1327	12.206	171.0	0.283733406	0.262201825	0.002618191	0.027011394	0.008325174
2020-09-17T18:40:00	0.1335	12.135	172.0	0.285379148	0.265162395	0.002657982	0.027421912	0.008451700
2020-09-17T18:45:00	0.1334	12.046	0.0	0.285175527	0.264795172	0.002653038	0.027370908	0.008435980
2020-09-17T18:50:00	0.1348	11.973	154.0	0.288053040	0.270008938	0.002723444	0.028097268	0.008659851
2020-09-17T18:55:00	0.1338	11.919	149.0	0.286000989	0.266285487	0.002673116	0.027578046	0.008499822
2020-09-17T19:00:00	0.1348	11.892	148.0	0.288056715	0.270015630	0.002723535	0.028098203	0.008660139
2020-09-17T19:05:00	0.1354	11.838	145.0	0.289290498	0.272267138	0.002754081	0.028413342	0.008757268
2020-09-17T19:10:00	0.1351	11.790	134.0	0.288676399	0.271145279	0.002738850	0.028256208	0.008708838
2020-09-17T19:15:00	0.1352	11.732	137.0	0.288883556	0.271523456	0.002743982	0.028309153	0.008725156
2020-09-17T19:20:00	0.1358	11.668	96.0	0.290117146	0.273781040	0.002774667	0.028625733	0.008822729
2020-09-17T19:25:00	0.1368	11.648	0.0	0.292171275	0.277561574	0.002826244	0.029157839	0.008986729
2020-09-17T19:30:00	0.1373	11.576	0.0	0.293198966	0.279462977	0.002852274	0.029426383	0.009069497
2020-09-17T19:35:00	0.1376	11.555	0.0	0.293816223	0.280608208	0.002867980	0.029588426	0.009119440
2020-09-17T19:40:00	0.1383	11.500	0.0	0.295253775	0.283284689	0.002904772	0.029967997	0.009236428
2020-09-17T19:45:00	0.1381	11.474	0.0	0.294845443	0.282523119	0.002894291	0.029859870	0.009203102
2020-09-17T19:50:00	0.1392	11.479	0.0	0.297102825	0.286746470	0.002952532	0.030460726	0.009388292
2020-09-17T19:55:00	0.1395	11.410	0.0	0.297719653	0.287906087	0.002968574	0.030626227	0.009439301
2020-09-17T20:00:00	0.1391	11.328	0.0	0.296901481	0.286368470	0.002947307	0.030406826	0.009371679
2020-09-17T20:05:00	0.1393	11.323	0.0	0.297313333	0.287141949	0.002958000	0.030517144	0.009405680
2020-09-17T20:10:00	0.1394	11.245	0.0	0.297520165	0.287530794	0.002963380	0.030572640	0.009422785
2020-09-17T20:15:00	0.1398	11.210	0.0	0.298341917	0.289078353	0.002984813	0.030793761	0.009490936
2020-09-17T20:20:00	0.1395	11.150	93.0	0.297728824	0.287923346	0.002968813	0.030628692	0.009440060
2020-09-17T20:25:00	0.1400	11.094	121.0	0.298755499	0.289858841	0.002995637	0.030905431	0.009525354
2020-09-17T20:30:00	0.1397	11.018	0.0	0.298142450	0.288702318	0.002979601	0.030739995	0.009474365
2020-09-17T20:35:00	0.1398	11.021	0.0	0.298349253	0.289092188	0.002985004	0.030795739	0.009491546
2020-09-17T20:40:00	0.1406	10.950	0.0	0.299990569	0.292196011	0.003028108	0.031240430	0.009628604
2020-09-17T20:45:00	0.1408	10.950	0.0	0.300402202	0.292977096	0.003038979	0.031352588	0.009663172
2020-09-17T20:50:00	0.1406	10.890	0.0	0.299994236	0.292202965	0.003028204	0.031241428	0.009628911
2020-09-17T20:55:00	0.1414	10.865	0.0	0.301635092	0.295322935	0.003071688	0.031690036	0.009767177
2020-09-17T21:00:00	0.1407	10.786	0.0	0.300202806	0.292598603	0.003033710	0.031298226	0.009646417
2020-09-17T21:05:00	0.1402	10.723	0.0	0.299180054	0.290661158	0.003006774	0.031020329	0.009560767
2020-09-17T21:10:00	0.1395	10.705	0.0	0.297747166	0.287957866	0.002969290	0.030633622	0.009441580
2020-09-17T21:15:00	0.1396	10.638	0.0	0.297953982	0.288347246	0.002974682	0.030689248	0.009458724
2020-09-17T21:20:00	0.1385	10.664	0.0	0.295700608	0.284119273	0.002916268	0.030086603	0.009272983
2020-09-17T21:25:00	0.1379	10.659	86.0	0.294471951	0.281827447	0.002884726	0.029761185	0.009172686
2020-09-17T21:30:00	0.1385	10.577	241.0	0.295704278	0.284126133	0.002916363	0.030087578	0.009273284
2020-09-17T21:35:00	0.1385	10.515	201.0	0.295706113	0.284129562	0.002916410	0.030088066	0.009273434
2020-09-17T21:40:00	0.1387	10.534	225.0	0.296118052	0.284900100	0.002927034	0.030197675	0.009307217
2020-09-17T21:45:00	0.1382	10.436	76.0	0.295094571	0.282987637	0.002900683	0.029925810	0.009223425
2020-09-17T21:50:00	0.1387	10.366	106.0	0.296121721	0.284906968	0.002927129	0.030198652	0.009307518
2020-09-17T21:55:00	0.1390	10.376	42.0	0.296738655	0.286062969	0.002943087	0.030363281	0.009358258
2020-09-17T22:00:00	0.1403	10.299	44.0	0.299405156	0.291087012	0.003012689	0.031081358	0.009579576
2020-09-17T22:05:00	0.1407	10.158	54.0	0.300166788	0.292530260	0.003032759	0.031288413	0.009643393
2020-09-17T22:10:00	0.1404	10.040	69.0	0.299494029	0.291255233	0.003015027	0.031105474	0.009587009
2020-09-17T22:15:00	0.1396	10.029	87.0	0.298001343	0.288436454	0.002975918	0.030701996	0.009462653
2020-09-17T22:20:00	0.1390	10.195	215.0	0.296713297	0.286015406	0.002942430	0.030356503	0.009356169
2020-09-17T22:25:00	0.1384	10.163	118.0	0.295424959	0.283604274	0.002909173	0.030013401	0.009250422
2020-09-17T22:30:00	0.1756	11.364	206.0	0.393463737	0.439045338	0.005451774	0.056244944	0.017335238
2020-09-17T22:35:00	0.1764	11.482	205.0	0.395899570	0.442923521	0.005522606	0.056975709	0.017560467
2020-09-17T22:40:00	0.1764	11.461	205.0	0.395820505	0.442797385	0.005520298	0.056951900	0.017553129
2020-09-17T22:45:00	0.1759	11.433	205.0	0.394344565	0.440445879	0.005477324	0.056508542	0.017416481
2020-09-17T22:50:00	0.1762	11.404	205.0	0.395383075	0.442099844	0.005507541	0.056820283	0.017512563
2020-09-17T22:55:00	0.1762	11.376	205.0	0.395303984	0.441973777	0.005505236	0.056796505	0.017505234
2020-09-17T23:00:00	0.1767	11.346	205.0	0.396620961	0.444075169	0.005543690	0.057193224	0.017627507
2020-09-17T23:05:00	0.1762	11.318	204.0	0.395145789	0.441721675	0.005500628	0.056748963	0.017490581
2020-09-17T23:10:00	0.1763	11.294	204.0	0.395625323	0.442486077	0.005514604	0.056893150	0.017535021
2020-09-17T23:15:00	0.1764	11.270	205.0	0.395825502	0.442805357	0.005520444	0.056953405	0.017553592
2020-09-17T23:20:00	0.1759	11.241	204.0	0.394349567	0.440453838	0.005477469	0.056510041	0.017416943
2020-09-17T23:25:00	0.1761	11.216	203.0	0.395108737	0.441662639	0.005499549	0.056737831	0.017487151
2020-09-17T23:30:00	0.1747	11.190	204.0	0.391113370	0.435318484	0.005383948	0.055545199	0.017119570
2020-09-17T23:35:00	0.1747	11.165	203.0	0.391034058	0.435192984	0.005381668	0.055521679	0.017112321
2020-09-17T23:40:00	0.1745	11.139	203.0	0.390394399	0.434181439	0.005363302	0.055332202	0.017053922
2020-09-17T23:45:00	0.1743	11.115	203.0	0.390034786	0.433613240	0.005352994	0.055225850	0.017021143
2020-09-17T23:50:00	0.1747	11.092	203.0	0.391076221	0.435259699	0.005382880	0.055534182	0.017116174
2020-09-17T23:55:00	0.1752	11.066	203.0	0.392396827	0.437351739	0.005420922	0.055926653	0.017237138
2020-09-18T00:00:00	0.1757	11.041	203.0	0.393995885	0.439891216	0.005467201	0.056404107	0.017384294
2020-09-18T00:05:00	0.1757	11.017	203.0	0.393916722	0.439765334	0.005464905	0.056380412	0.017376991
2020-09-18T00:10:00	0.1749	10.989	202.0	0.391599177	0.436087575	0.005397925	0.055689400	0.017164014
2020-09-18T00:15:00	0.1738	10.967	202.0	0.388436597	0.431092283	0.005307325	0.054754690	0.016875927
2020-09-18T00:20:00	0.1736	10.944	202.0	0.388076521	0.430525259	0.005297068	0.054648871	0.016843313
2020-09-18T00:25:00	0.1745	10.920	202.0	0.390520937	0.434381455	0.005366932	0.055369653	0.017065465
2020-09-18T00:30:00	0.1742	10.900	202.0	0.389600720	0.432927867	0.005340567	0.055097643	0.016981629
2020-09-18T00:35:00	0.1737	10.874	202.0	0.388399382	0.431033664	0.005306264	0.054743747	0.016872555
2020-09-18T00:40:00	0.1730	10.853	201.0	0.386354422	0.427818251	0.005248178	0.054144483	0.016687856
2020-09-18T00:45:00	0.1734	10.828	202.0	0.387398379	0.429458316	0.005277783	0.054449914	0.016781992
2020-09-18T00:50:00	0.1731	10.801	202.0	0.386476269	0.428009522	0.005251628	0.054180079	0.016698826
2020-09-18T00:55:00	0.1721	10.783	202.0	0.383865949	0.423920695	0.005178011	0.053420587	0.016464744
2020-09-18T01:00:00	0.1721	10.761	202.0	0.383786257	0.423796154	0.005175774	0.053397501	0.016457629
2020-09-18T01:05:00	0.1724	10.738	201.0	0.384550710	0.424991533	0.005197263	0.053619201	0.016525958
2020-09-18T01:10:00	0.1728	10.718	201.0	0.385876996	0.427069190	0.005234672	0.054005146	0.016644911
2020-09-18T01:15:00	0.1725	10.699	201.0	0.384953958	0.425622729	0.005208620	0.053736369	0.016562071
2020-09-18T01:20:00	0.1730	10.679	201.0	0.386279890	0.427701273	0.005246068	0.054122717	0.016681147
2020-09-18T01:25:00	0.1736	10.653	201.0	0.387885372	0.430224393	0.005291628	0.054592746	0.016826015
2020-09-18T01:30:00	0.1730	10.630	201.0	0.386401743	0.427892528	0.005249518	0.054158305	0.016692116
2020-09-18T01:35:00	0.1729	10.611	201.0	0.386041184	0.427326725	0.005239314	0.054053040	0.016659672
2020-09-18T01:40:00	0.1724	10.589	201.0	0.384555744	0.424999411	0.005197404	0.053620662	0.016526409
2020-09-18T01:45:00	0.1724	10.567	201.0	0.384757381	0.425314976	0.005203081	0.053679232	0.016544461
2020-09-18T01:50:00	0.1731	10.546	200.0	0.386645419	0.428275114	0.005256420	0.054229516	0.016714064
2020-09-18T01:55:00	0.1725	10.525	200.0	0.384879357	0.425505924	0.005206517	0.053714681	0.016555386
2020-09-18T02:00:00	0.1729	10.501	200.0	0.385924331	0.427143430	0.005236010	0.054018951	0.016649165
2020-09-18T02:05:00	0.1724	10.476	200.0	0.384720076	0.425256585	0.005202031	0.053668393	0.016541120
2020-09-18T02:10:00	0.1723	10.459	199.0	0.384359116	0.424691788	0.005191872	0.053563584	0.016508817
2020-09-18T02:15:00	0.1721	10.441	200.0	0.383716635	0.423687363	0.005173819	0.053377338	0.016451414
2020-09-18T02:20:00	0.1712	10.422	200.0	0.381101524	0.419610486	0.005100727	0.052623262	0.016219001
2020-09-18T02:25:00	0.1708	10.399	200.0	0.380175551	0.418171330	0.005074996	0.052357796	0.016137181
2020-09-18T02:30:00	0.1712	10.380	200.0	0.381223797	0.419800695	0.005104131	0.052658377	0.016229823
2020-09-18T02:35:00	0.1709	10.360	200.0	0.380297899	0.418361352	0.005078391	0.052392826	0.016147978
2020-09-18T02:40:00	0.1714	10.343	199.0	0.381909762	0.420868540	0.005123251	0.052855633	0.016290620
2020-09-18T02:45:00	0.1709	10.321	199.0	0.380420237	0.418551399	0.005081788	0.052427867	0.016158778
2020-09-18T02:50:00	0.1708	10.298	199.0	0.380058242	0.417989172	0.005071741	0.052324222	0.016126833
2020-09-18T02:55:00	0.1711	10.275	199.0	0.380824594	0.419179837	0.005093024	0.052543785	0.016194505
2020-09-18T03:00:00	0.1707	10.253	199.0	0.379898449	0.417741104	0.005067311	0.052278510	0.016112745
2020-09-18T03:05:00	0.1707	10.234	199.0	0.379818546	0.417617086	0.005065096	0.052255661	0.016105702
2020-09-18T03:10:00	0.1706	10.214	199.0	0.379456405	0.417055217	0.005055066	0.052152180	0.016073808
2020-09-18T03:15:00	0.1707	10.197	198.0	0.379940924	0.417807036	0.005068488	0.052290659	0.016116489
2020-09-18T03:20:00	0.1710	10.178	199.0	0.380707336	0.418997554	0.005089764	0.052510155	0.016184140
2020-09-18T03:25:00	0.1704	10.158	199.0	0.378934281	0.416245751	0.005040625	0.052003198	0.016027891
2020-09-18T03:30:00	0.1699	10.137	198.0	0.377441786	0.413935920	0.004999483	0.051578742	0.015897069
2020-09-18T03:35:00	0.1705	10.121	198.0	0.379339040	0.416873198	0.005051817	0.052118669	0.016063480
2020-09-18T03:40:00	0.1707	10.099	198.0	0.379823596	0.417624924	0.005065236	0.052257105	0.016106147
2020-09-18T03:45:00	0.1712	10.079	198.0	0.381154056	0.419692200	0.005102189	0.052638347	0.016223650
2020-09-18T03:50:00	0.1711	10.054	198.0	0.381074220	0.419568016	0.005099967	0.052615423	0.016216584
2020-09-18T03:55:00	0.1711	10.032	198.0	0.380994380	0.419443844	0.005097746	0.052592504	0.016209521
2020-09-18T04:00:00	0.1713	10.016	198.0	0.381478401	0.420196890	0.005111222	0.052731539	0.016252373
2020-09-18T04:05:00	0.1713	9.999	197.0	0.381638025	0.420445374	0.005115671	0.052777440	0.016266519
2020-09-18T04:10:00	0.1708	9.984	198.0	0.380105761	0.418062955	0.005073060	0.052337820	0.016131025
2020-09-18T04:15:00	0.1708	9.965	198.0	0.379983397	0.417872972	0.005069666	0.052302808	0.016120233
2020-09-18T04:20:00	0.1708	9.946	197.0	0.380143181	0.418121062	0.005074098	0.052348530	0.016134325
2020-09-18T04:25:00	0.1716	9.929	198.0	0.382276352	0.421439730	0.005133486	0.052961232	0.016323166
2020-09-18T04:30:00	0.1719	9.910	198.0	0.383280754	0.423006559	0.005161593	0.053251203	0.016412538
2020-09-18T04:35:00	0.1720	9.895	197.0	0.383440186	0.423255518	0.005166063	0.053297319	0.016426751
2020-09-18T04:40:00	0.1726	9.880	197.0	0.385287548	0.426145222	0.005218026	0.053833413	0.016591981
2020-09-18T04:45:00	0.1729	9.866	197.0	0.386008940	0.427276143	0.005238402	0.054043632	0.016656772
2020-09-18T04:50:00	0.1734	9.849	197.0	0.387291681	0.429290558	0.005274753	0.054418650	0.016772356
2020-09-18T04:55:00	0.1741	9.834	197.0	0.389414780	0.432634433	0.005335249	0.055042778	0.016964719
2020-09-18T05:00:00	0.1742	9.820	197.0	0.389573568	0.432885014	0.005339790	0.055089630	0.016979159
2020-09-18T05:05:00	0.1749	9.805	197.0	0.391693491	0.436236960	0.005400641	0.055717421	0.017172650
2020-09-18T05:10:00	0.1752	9.789	197.0	0.392411851	0.437375567	0.005421356	0.055931127	0.017238517
2020-09-18T05:15:00	0.1747	9.774	197.0	0.391170567	0.435409001	0.005385593	0.055562165	0.017124799
2020-09-18T05:20:00	0.1760	9.764	197.0	0.394686108	0.440989507	0.005487251	0.056610952	0.017448045
2020-09-18T05:25:00	0.1758	9.750	197.0	0.394285428	0.440351784	0.005475606	0.056490821	0.017411020
2020-09-18T05:30:00	0.1765	9.737	197.0	0.396119697	0.443274787	0.005529034	0.057042029	0.017580907
2020-09-18T05:35:00	0.1764	9.725	196.0	0.395719390	0.442636098	0.005517348	0.056921460	0.017543747
2020-09-18T05:40:00	0.1767	9.713	197.0	0.396714968	0.444225348	0.005546441	0.057221606	0.017636255
2020-09-18T05:45:00	0.1765	9.703	196.0	0.396035647	0.443140649	0.005526579	0.057016701	0.017573101
2020-09-18T05:50:00	0.1762	9.693	196.0	0.395356027	0.442056728	0.005506752	0.056812150	0.017510056
2020-09-18T05:55:00	0.1762	9.681	196.0	0.395234886	0.441863654	0.005503223	0.056775736	0.017498833
2020-09-18T06:00:00	0.1760	9.672	195.0	0.394834350	0.441225561	0.005491562	0.056655437	0.017461756
2020-09-18T06:05:00	0.1760	9.664	196.0	0.394713168	0.441032593	0.005488038	0.056619071	0.017450548
2020-09-18T06:10:00	0.1766	9.657	197.0	0.396267801	0.443511198	0.005533362	0.057086676	0.017594668
2020-09-18T06:15:00	0.1762	9.651	196.0	0.395308983	0.441981745	0.005505382	0.056798007	0.017505697
2020-09-18T06:20:00	0.1768	9.645	195.0	0.396863015	0.444461907	0.005550775	0.057266320	0.017650036
2020-09-18T06:25:00	0.1771	9.641	196.0	0.397857856	0.446053072	0.005579952	0.057567337	0.017742812
2020-09-18T06:30:00	0.1769	9.640	196.0	0.397179037	0.444967066	0.005560033	0.057361838	0.017679476
2020-09-18T06:35:00	0.1773	9.644	197.0	0.398452458	0.447005375	0.005597435	0.057747705	0.017798404
2020-09-18T06:40:00	0.1781	9.648	196.0	0.400560197	0.450388843	0.005659675	0.058389819	0.017996309
2020-09-18T06:45:00	0.1785	9.654	196.0	0.401552671	0.451986214	0.005689125	0.058693658	0.018089956
2020-09-18T06:50:00	0.1782	9.660	196.0	0.400875467	0.450895973	0.005669020	0.058486234	0.018026025
2020-09-18T06:55:00	0.1787	9.670	196.0	0.402145862	0.452942227	0.005706772	0.058875715	0.018146067
2020-09-18T07:00:00	0.1785	9.681	196.0	0.401747108	0.452299471	0.005694906	0.058753295	0.018108336
2020-09-18T07:05:00	0.1789	9.694	196.0	0.402738827	0.453898837	0.005724445	0.059058043	0.018202262
2020-09-18T07:10:00	0.1785	9.710	196.0	0.401784001	0.452358922	0.005696003	0.058764615	0.018111825
2020-09-18T07:15:00	0.1788	9.724	196.0	0.402497688	0.453509700	0.005717254	0.058983855	0.018179397
2020-09-18T07:20:00	0.1796	9.740	197.0	0.404599968	0.456907588	0.005780130	0.059632531	0.018379325
2020-09-18T07:25:00	0.1803	9.761	196.0	0.406699433	0.460312986	0.005843337	0.060284628	0.018580308
2020-09-18T07:30:00	0.1807	9.784	197.0	0.407688027	0.461920694	0.005873244	0.060593174	0.018675405
2020-09-18T07:35:00	0.1809	9.807	195.0	0.408399035	0.463078630	0.005894811	0.060815674	0.018743981
2020-09-18T07:40:00	0.1810	9.832	196.0	0.408555891	0.463334271	0.005899575	0.060864827	0.018759131
2020-09-18T07:45:00	0.1813	9.858	197.0	0.409543324	0.464945113	0.005929620	0.061174801	0.018854668
2020-09-18T07:50:00	0.1814	9.888	197.0	0.409700067	0.465201061	0.005934398	0.061224094	0.018869860
2020-09-18T07:55:00	0.1818	9.920	197.0	0.410963354	0.467266360	0.005972991	0.061622251	0.018992576
2020-09-18T08:00:00	0.1815	9.956	197.0	0.410013507	0.465713084	0.005943960	0.061322737	0.018900263
2020-09-18T08:05:00	0.1821	9.993	197.0	0.411553009	0.468231864	0.005991057	0.061808632	0.019050021
2020-09-18T08:10:00	0.1825	10.030	197.0	0.412814824	0.470301175	0.006029828	0.062208620	0.019173301
2020-09-18T08:15:00	0.1830	10.070	198.0	0.414075640	0.472373221	0.006068719	0.062609856	0.019296966
2020-09-18T08:20:00	0.1833	10.109	198.0	0.415059653	0.473993402	0.006099178	0.062924091	0.019393816
2020-09-18T08:25:00	0.1844	10.151	198.0	0.417971551	0.478803483	0.006189854	0.063859585	0.019682144
2020-09-18T08:30:00	0.1843	10.190	198.0	0.417852139	0.478605769	0.006186120	0.063821057	0.019670270
2020-09-18T08:35:00	0.1847	10.233	198.0	0.418833839	0.480232358	0.006216862	0.064138221	0.019768022
2020-09-18T08:40:00	0.1843	10.274	198.0	0.417613288	0.478210417	0.006178654	0.063744035	0.019646531
2020-09-18T08:45:00	0.1842	10.319	199.0	0.417493849	0.478012777	0.006174923	0.063705541	0.019634666
2020-09-18T08:50:00	0.1837	10.367	199.0	0.415996631	0.475538620	0.006128267	0.063224196	0.019486311
2020-09-18T08:55:00	0.1841	10.414	199.0	0.417254944	0.477617572	0.006167464	0.063628586	0.019610948
2020-09-18T09:00:00	0.1842	10.469	199.0	0.417410932	0.477875595	0.006172333	0.063678825	0.019626432
2020-09-18T09:05:00	0.1839	10.519	199.0	0.416740484	0.476767066	0.006151420	0.063463062	0.019559932
2020-09-18T09:10:00	0.1836	10.563	200.0	0.415794072	0.475204364	0.006121971	0.063159245	0.019466293
2020-09-18T09:15:00	0.1829	10.612	200.0	0.413743239	0.471826523	0.006058451	0.062503922	0.019264316
2020-09-18T09:20:00	0.1829	10.656	200.0	0.413899569	0.472083599	0.006063279	0.062553729	0.019279667
2020-09-18T09:25:00	0.1830	10.703	201.0	0.414055883	0.472340718	0.006068108	0.062603556	0.019295024
2020-09-18T09:30:00	0.1825	10.756	201.0	0.412831687	0.470328859	0.006030347	0.062213976	0.019174952
2020-09-18T09:35:00	0.1827	10.807	200.0	0.413264274	0.471039307	0.006043674	0.062351471	0.019217329
2020-09-18T09:40:00	0.1825	10.860	201.0	0.412868322	0.470389005	0.006031475	0.062225613	0.019178538
2020-09-18T09:45:00	0.1817	10.916	201.0	0.410537128	0.466569049	0.005959953	0.061487740	0.018951119
2020-09-18T09:50:00	0.1817	10.973	202.0	0.410693773	0.466825264	0.005964743	0.061537154	0.018966349
2020-09-18T09:55:00	0.1809	11.032	202.0	0.408359379	0.463014011	0.005893606	0.060803251	0.018740153
2020-09-18T10:00:00	0.1806	11.094	202.0	0.407407967	0.461464972	0.005864762	0.060505669	0.018648435
2020-09-18T10:05:00	0.1800	11.156	203.0	0.405974807	0.459136257	0.005821474	0.060059073	0.018510790
2020-09-18T10:10:00	0.1797	11.217	202.0	0.405095584	0.457710406	0.005795013	0.059786084	0.018426652
2020-09-18T10:15:00	0.1800	11.279	202.0	0.405881358	0.458984608	0.005818658	0.060030022	0.018501836
2020-09-18T10:20:00	0.1797	11.346	203.0	0.405002083	0.457558897	0.005792204	0.059757096	0.018417717
2020-09-18T10:25:00	0.1792	11.401	207.0	0.403566725	0.455236062	0.005749175	0.059313179	0.018280898
2020-09-18T10:30:00	0.1804	11.450	203.0	0.406850618	0.460558678	0.005847904	0.060331752	0.018594832
2020-09-18T10:35:00	0.1798	11.488	204.0	0.405416950	0.458231326	0.005804676	0.059885777	0.018457378
2020-09-18T10:40:00	0.1798	11.525	204.0	0.405370210	0.458155544	0.005803270	0.059871271	0.018452907
2020-09-18T10:45:00	0.1792	11.558	204.0	0.403657386	0.455382612	0.005751887	0.059341159	0.018289522
2020-09-18T10:50:00	0.1790	11.598	189.0	0.403054822	0.454409012	0.005733876	0.059155346	0.018232252
2020-09-18T10:55:00	0.1787	11.621	182.0	0.402173958	0.452987532	0.005707609	0.058884346	0.018148727
2020-09-18T11:00:00	0.1787	11.656	182.0	0.402127120	0.452912008	0.005706214	0.058869958	0.018144293
2020-09-18T11:05:00	0.1782	11.721	183.0	0.400967451	0.451043986	0.005671748	0.058514382	0.018034701
2020-09-18T11:10:00	0.1777	11.722	182.0	0.399528377	0.448730991	0.005629154	0.058074944	0.017899262
2020-09-18T11:15:00	0.1779	11.747	184.0	0.400038506	0.449550266	0.005644231	0.058230489	0.017947202
2020-09-18T11:20:00	0.1780	11.774	183.0	0.400270061	0.449922380	0.005651082	0.058301176	0.017968989
2020-09-18T11:25:00	0.1785	11.802	184.0	0.401614745	0.452086210	0.005690970	0.058712693	0.018095822
2020-09-18T11:30:00	0.1775	11.831	183.0	0.398783402	0.447535826	0.005607180	0.057848242	0.017829390
2020-09-18T11:35:00	0.1772	11.862	191.0	0.398178948	0.446567208	0.005589389	0.057664696	0.017772819
2020-09-18T11:40:00	0.1770	11.892	190.0	0.397574258	0.445599208	0.005571625	0.057481430	0.017716335
2020-09-18T11:45:00	0.1774	11.920	189.0	0.398642579	0.447310072	0.005603032	0.057805449	0.017816201
2020-09-18T11:50:00	0.1767	11.950	190.0	0.396643278	0.444110819	0.005544343	0.057199961	0.017629583
2020-09-18T11:55:00	0.1761	11.982	185.0	0.394920807	0.441363259	0.005494078	0.056681391	0.017469755
2020-09-18T12:00:00	0.1756	12.016	185.0	0.393476091	0.439064965	0.005452132	0.056248636	0.017336376
2020-09-18T12:05:00	0.1750	12.049	185.0	0.392030013	0.436770176	0.005410339	0.055817472	0.017203487
2020-09-18T12:10:00	0.1744	12.082	185.0	0.390302353	0.434035970	0.005360663	0.055304968	0.017045528
2020-09-18T12:15:00	0.1742	12.114	185.0	0.389694554	0.433075985	0.005343252	0.055125343	0.016990166
2020-09-18T12:20:00	0.1735	12.144	189.0	0.387683548	0.429906830	0.005285887	0.054533525	0.016807762
2020-09-18T12:25:00	0.1731	12.171	187.0	0.386512926	0.428067073	0.005252666	0.054190790	0.016702128
2020-09-18T12:30:00	0.1737	12.200	191.0	0.388150361	0.430641509	0.005299170	0.054670561	0.016849998
2020-09-18T12:35:00	0.1733	12.227	207.0	0.387260927	0.429242209	0.005273879	0.054409640	0.016769580
2020-09-18T12:40:00	0.1730	12.252	208.0	0.386370970	0.427844225	0.005248646	0.054149316	0.016689345
2020-09-18T12:45:00	0.1730	12.276	207.0	0.386323649	0.427769950	0.005247307	0.054135495	0.016685085
2020-09-18T12:50:00	0.1739	12.298	207.0	0.388803068	0.431669739	0.005317776	0.054862514	0.016909160
2020-09-18T12:55:00	0.1733	12.322	207.0	0.387071743	0.428944851	0.005268509	0.054354239	0.016752504
2020-09-18T13:00:00	0.1736	12.347	207.0	0.387866742	0.430195075	0.005291098	0.054587278	0.016824329
2020-09-18T13:05:00	0.1732	12.372	207.0	0.386977142	0.428796194	0.005265825	0.054326548	0.016743970
2020-09-18T13:10:00	0.1731	12.392	207.0	0.386648951	0.428280660	0.005256520	0.054230549	0.016714382
2020-09-18T13:15:00	0.1722	12.410	207.0	0.384071216	0.424241561	0.005183778	0.053480078	0.016483079
2020-09-18T13:20:00	0.1721	12.427	207.0	0.383742393	0.423727611	0.005174542	0.053384797	0.016453713
2020-09-18T13:25:00	0.1720	12.442	207.0	0.383413499	0.423213840	0.005165314	0.053289597	0.016424371
2020-09-18T13:30:00	0.1724	12.457	207.0	0.384491766	0.424899305	0.005195604	0.053602086	0.016520684
2020-09-18T13:35:00	0.1720	12.472	207.0	0.383600176	0.423505416	0.005170551	0.053343619	0.016441022
2020-09-18T13:40:00	0.1721	12.484	208.0	0.383834232	0.423871126	0.005177121	0.053411398	0.016461912
2020-09-18T13:45:00	0.1723	12.492	207.0	0.384349620	0.424676934	0.005191605	0.053560829	0.016507968
2020-09-18T13:50:00	0.1723	12.500	208.0	0.384302235	0.424602818	0.005190272	0.053547080	0.016503730
2020-09-18T13:55:00	0.1719	12.506	208.0	0.383128990	0.422769639	0.005157340	0.053207328	0.016399015
2020-09-18T14:00:00	0.1717	12.512	207.0	0.382518303	0.421816917	0.005140248	0.053030996	0.016344668
2020-09-18T14:05:00	0.1710	12.520	208.0	0.380779749	0.419110119	0.005091777	0.052530922	0.016190540
2020-09-18T14:10:00	0.1716	12.524	208.0	0.382423416	0.421668975	0.005137596	0.053003630	0.016336233
2020-09-18T14:15:00	0.1714	12.530	208.0	0.381812443	0.420716965	0.005120536	0.052827621	0.016281986
2020-09-18T14:20:00	0.1708	12.537	209.0	0.380073070	0.418012195	0.005072153	0.052328465	0.016128141
2020-09-18T14:25:00	0.1707	12.543	209.0	0.379743370	0.417500419	0.005063013	0.052234170	0.016099078
2020-09-18T14:30:00	0.1708	12.547	209.0	0.379978028	0.417864637	0.005069517	0.052301272	0.016119760
2020-09-18T14:35:00	0.1705	12.553	219.0	0.379366056	0.416915094	0.005052565	0.052126381	0.016065857
2020-09-18T14:40:00	0.1703	12.557	210.0	0.378753834	0.415966168	0.005035640	0.051951770	0.016012040
2020-09-18T14:45:00	0.1713	12.564	209.0	0.381527631	0.420273518	0.005112594	0.052745693	0.016256735
2020-09-18T14:50:00	0.1714	12.568	218.0	0.381762009	0.420638425	0.005119129	0.052813108	0.016277513
2020-09-18T14:55:00	0.1719	12.572	210.0	0.383123058	0.422760380	0.005157174	0.053205613	0.016398487
2020-09-18T15:00:00	0.1718	12.575	209.0	0.382794028	0.422246946	0.005147961	0.053110566	0.016369192
2020-09-18T15:05:00	0.1717	12.579	209.0	0.382746594	0.422172952	0.005146634	0.053096872	0.016364972
2020-09-18T15:10:00	0.1718	12.582	209.0	0.382980783	0.422538331	0.005153189	0.053164502	0.016385816
2020-09-18T15:15:00	0.1720	12.587	209.0	0.383496462	0.423343411	0.005167641	0.053313602	0.016431770
2020-09-18T15:20:00	0.1717	12.590	209.0	0.382604283	0.421950992	0.005142653	0.053055801	0.016352313
2020-09-18T15:25:00	0.1717	12.591	209.0	0.382556843	0.421877013	0.005141326	0.053042114	0.016348095
2020-09-18T15:30:00	0.1715	12.591	210.0	0.381945924	0.420924868	0.005124260	0.052866044	0.016293828
2020-09-18T15:35:00	0.1713	12.593	209.0	0.381616636	0.420412075	0.005115075	0.052771288	0.016264623
2020-09-18T15:40:00	0.1716	12.593	209.0	0.382414514	0.421655097	0.005137347	0.053001063	0.016335442
2020-09-18T15:45:00	0.1716	12.592	209.0	0.382367069	0.421581133	0.005136021	0.052987382	0.016331226
2020-09-18T15:50:00	0.1718	12.588	209.0	0.382882959	0.422385689	0.005150450	0.053136246	0.016377107
2020-09-18T15:55:00	0.1720	12.583	210.0	0.383398672	0.423190685	0.005164899	0.053285308	0.016423049
2020-09-18T16:00:00	0.1722	12.577	210.0	0.384195605	0.424436058	0.005187274	0.053516148	0.016494197
2020-09-18T16:05:00	0.1725	12.571	210.0	0.384875184	0.425499391	0.005206400	0.053713468	0.016555013
2020-09-18T16:10:00	0.1724	12.563	210.0	0.384710869	0.425242174	0.005201772	0.053665718	0.016540296
2020-09-18T16:15:00	0.1726	12.554	209.0	0.385109042	0.425865595	0.005212991	0.053781471	0.016575972
2020-09-18T16:20:00	0.1729	12.545	209.0	0.386069258	0.427370766	0.005240108	0.054061232	0.016662197
2020-09-18T16:25:00	0.1728	12.534	209.0	0.385623994	0.426672491	0.005227523	0.053931395	0.016622180
2020-09-18T16:30:00	0.1725	12.521	209.0	0.384897386	0.425534152	0.005207025	0.053719922	0.016557002
2020-09-18T16:35:00	0.1731	12.509	209.0	0.386700685	0.428361906	0.005257986	0.054245675	0.016719044
2020-09-18T16:40:00	0.1737	12.494	209.0	0.388221242	0.430753114	0.005301189	0.054691387	0.016856416
2020-09-18T16:45:00	0.1739	12.478	208.0	0.388899017	0.431820987	0.005320514	0.054890766	0.016917867
2020-09-18T16:50:00	0.1746	12.462	209.0	0.390697571	0.434660731	0.005372002	0.055421957	0.017081585
2020-09-18T16:55:00	0.1746	12.443	209.0	0.390814057	0.434844953	0.005375347	0.055456467	0.017092222
2020-09-18T17:00:00	0.1747	12.422	209.0	0.391210632	0.435472411	0.005386745	0.055574051	0.017128462
2020-09-18T17:05:00	0.1744	12.406	208.0	0.390206461	0.433884448	0.005357913	0.055276606	0.017036787
2020-09-18T17:10:00	0.1755	12.386	208.0	0.393402476	0.438948009	0.005449999	0.056226639	0.017329596
2020-09-18T17:15:00	0.1759	12.366	208.0	0.394357481	0.440466431	0.005477699	0.056512413	0.017417674
2020-09-18T17:20:00	0.1760	12.344	208.0	0.394753141	0.441096241	0.005489200	0.056631065	0.017454244
2020-09-18T17:25:00	0.1761	12.324	208.0	0.394869319	0.441281253	0.005492580	0.056665934	0.017464991
2020-09-18T17:30:00	0.1763	12.303	208.0	0.395544156	0.442356649	0.005512237	0.056868729	0.017527495
2020-09-18T17:35:00	0.1766	12.280	208.0	0.396497834	0.443878505	0.005540088	0.057156063	0.017616054
2020-09-18T17:40:00	0.1764	12.258	207.0	0.395776385	0.442727006	0.005519011	0.056938617	0.017549035
2020-09-18T17:45:00	0.1763	12.237	207.0	0.395613240	0.442466809	0.005514251	0.056889514	0.017533901
2020-09-18T17:50:00	0.1767	12.217	207.0	0.396566875	0.443988775	0.005542107	0.057176898	0.017622475
2020-09-18T17:55:00	0.1773	12.198	207.0	0.398356473	0.446851583	0.005594611	0.057718566	0.017789423
2020-09-18T18:00:00	0.1779	12.174	207.0	0.400144006	0.449719789	0.005647352	0.058262689	0.017957126
2020-09-18T18:05:00	0.1787	12.151	207.0	0.402207597	0.453041778	0.005708610	0.058894682	0.018151913
2020-09-18T18:10:00	0.1788	12.126	207.0	0.402601258	0.453676817	0.005720342	0.059015712	0.018189216
2020-09-18T18:15:00	0.1795	12.102	207.0	0.404383931	0.456557855	0.005773649	0.059565674	0.018358719
2020-09-18T18:20:00	0.1799	12.082	207.0	0.405609713	0.458543921	0.005810477	0.059945624	0.018475823
2020-09-18T18:25:00	0.1798	12.060	207.0	0.405170061	0.457831105	0.005797252	0.059809179	0.018433770
2020-09-18T18:30:00	0.1803	12.035	207.0	0.406672549	0.460269302	0.005842525	0.060276250	0.018577726
2020-09-18T18:35:00	0.1806	12.010	207.0	0.407619445	0.461809075	0.005871166	0.060571738	0.018668798
2020-09-18T18:40:00	0.1810	11.986	207.0	0.408565773	0.463350378	0.005899875	0.060867924	0.018760085
2020-09-18T18:45:00	0.1816	11.958	207.0	0.410341707	0.466249505	0.005953981	0.061426127	0.018932129
2020-09-18T18:50:00	0.1820	11.929	206.0	0.411286409	0.467795213	0.005982885	0.061724322	0.019024035
2020-09-18T18:55:00	0.1819	11.907	206.0	0.411124874	0.467530739	0.005977937	0.061673271	0.019008301
2020-09-18T19:00:00	0.1822	11.885	206.0	0.412069111	0.469077715	0.006006897	0.061972044	0.019100386
2020-09-18T19:05:00	0.1824	11.858	206.0	0.412460318	0.469719361	0.006018920	0.062096085	0.019138617
2020-09-18T19:10:00	0.1823	11.829	207.0	0.412298902	0.469454560	0.006013957	0.062044886	0.019122837
2020-09-18T19:15:00	0.1824	11.803	205.0	0.412413785	0.469643017	0.006017489	0.062081323	0.019134067
2020-09-18T19:20:00	0.1829	11.781	205.0	0.413909417	0.472099797	0.006063583	0.062556868	0.019280634
2020-09-18T19:25:00	0.1833	11.758	205.0	0.414852006	0.473651289	0.006092743	0.062857702	0.019373354
2020-09-18T19:30:00	0.1832	11.736	208.0	0.414690832	0.473385825	0.006087751	0.062806200	0.019357481
2020-09-18T19:35:00	0.1830	11.711	205.0	0.414253693	0.472666188	0.006074224	0.062666645	0.019314468
2020-09-18T19:40:00	0.1830	11.683	206.0	0.414092459	0.472400890	0.006069239	0.062615219	0.019298618
2020-09-18T19:45:00	0.1828	11.656	204.0	0.413655156	0.471681704	0.006055732	0.062475869	0.019255670
2020-09-18T19:50:00	0.1831	11.629	204.0	0.414321958	0.472778534	0.006076335	0.062688426	0.019321182
2020-09-18T19:55:00	0.1826	11.602	205.0	0.413056394	0.470697837	0.006037267	0.062285375	0.019196957
2020-09-18T20:00:00	0.1823	11.577	205.0	0.412342528	0.469526121	0.006015298	0.062058721	0.019127101
2020-09-18T20:05:00	0.1820	11.550	204.0	0.411351889	0.467902442	0.005984892	0.061745023	0.019030416
2020-09-18T20:10:00	0.1818	11.521	204.0	0.410913833	0.467185317	0.005971476	0.061606614	0.018987757
2020-09-18T20:15:00	0.1820	11.494	205.0	0.411305324	0.467826186	0.005983465	0.061730301	0.019025878
2020-09-18T20:20:00	0.1818	11.468	204.0	0.410867255	0.467109097	0.005970050	0.061591908	0.018983224
2020-09-18T20:25:00	0.1820	11.441	203.0	0.411258757	0.467749935	0.005982038	0.061715581	0.019021341
2020-09-18T20:30:00	0.1810	11.414	204.0	0.408606584	0.463416904	0.005901115	0.060880717	0.018764028
2020-09-18T20:35:00	0.1809	11.386	204.0	0.408444776	0.463153171	0.005896200	0.060830005	0.018748398
2020-09-18T20:40:00	0.1810	11.360	204.0	0.408559938	0.463340867	0.005899698	0.060866095	0.018759522
2020-09-18T20:45:00	0.1801	11.332	204.0	0.406180634	0.459470356	0.005827679	0.060123089	0.018530520
2020-09-18T20:50:00	0.1805	11.305	203.0	0.407127826	0.461009334	0.005856285	0.060418215	0.018621481
2020-09-18T20:55:00	0.1807	11.279	202.0	0.407797376	0.462098687	0.005876558	0.060627361	0.018685941
2020-09-18T21:00:00	0.1805	11.252	203.0	0.407358334	0.461384231	0.005863260	0.060490169	0.018643658
2020-09-18T21:05:00	0.1802	11.222	202.0	0.406364570	0.459769019	0.005833227	0.060180331	0.018548163
2020-09-18T21:10:00	0.1802	11.197	202.0	0.406479885	0.459956307	0.005836707	0.060216235	0.018559228
2020-09-18T21:15:00	0.1804	11.171	202.0	0.406872475	0.460594203	0.005848565	0.060338566	0.018596932
2020-09-18T21:20:00	0.1802	11.148	202.0	0.406433176	0.459880440	0.005835298	0.060201690	0.018554746
2020-09-18T21:25:00	0.1804	11.129	202.0	0.406825777	0.460518305	0.005847154	0.060324007	0.018592445
2020-09-18T21:30:00	0.1802	11.105	202.0	0.406386465	0.459804577	0.005833888	0.060187147	0.018550263
2020-09-18T21:35:00	0.1798	11.082	202.0	0.405392087	0.458191014	0.005803929	0.059878060	0.018455000
2020-09-18T21:40:00	0.1796	11.058	202.0	0.404674751	0.457028682	0.005782374	0.059655685	0.018386462
2020-09-18T21:45:00	0.1800	11.034	202.0	0.405900306	0.459015355	0.005819229	0.060035912	0.018503651
2020-09-18T21:50:00	0.1800	11.009	202.0	0.405738219	0.458752370	0.005814346	0.059985541	0.018488126
2020-09-18T21:55:00	0.1800	10.986	206.0	0.405853579	0.458939534	0.005817821	0.060021388	0.018499175
2020-09-18T22:00:00	0.1792	10.964	203.0	0.403748010	0.455529125	0.005754599	0.059369135	0.018298144
2020-09-18T22:05:00	0.1793	10.942	202.0	0.403979015	0.455902694	0.005761515	0.059440485	0.018320135
2020-09-18T22:10:00	0.1791	10.919	202.0	0.403376575	0.454928765	0.005743489	0.059254521	0.018262819
2020-09-18T22:15:00	0.1798	10.900	203.0	0.405273769	0.457999201	0.005800370	0.059841347	0.018443684
2020-09-18T22:20:00	0.1801	10.881	201.0	0.406059454	0.459273641	0.005824025	0.060085395	0.018518902
2020-09-18T22:25:00	0.1796	10.861	201.0	0.404625064	0.456948223	0.005780883	0.059640301	0.018381720
2020-09-18T22:30:00	0.1797	10.842	203.0	0.405133530	0.457771901	0.005796154	0.059797850	0.018430278
2020-09-18T22:35:00	0.1799	10.820	200.0	0.405641833	0.458596018	0.005811444	0.059955599	0.018478898
2020-09-18T22:40:00	0.1804	10.796	201.0	0.406981912	0.460772095	0.005851873	0.060372694	0.018607451
2020-09-18T22:45:00	0.1803	10.777	201.0	0.406657944	0.460245573	0.005842084	0.060271700	0.018576323
2020-09-18T22:50:00	0.1807	10.757	200.0	0.407720073	0.461972853	0.005874215	0.060603192	0.018678492
2020-09-18T22:55:00	0.1801	10.737	201.0	0.406009810	0.459193066	0.005822529	0.060069957	0.018514144
2020-09-18T23:00:00	0.1805	10.717	200.0	0.407349576	0.461369983	0.005862995	0.060487434	0.018642815
2020-09-18T23:05:00	0.1798	10.696	200.0	0.405361408	0.458141275	0.005803006	0.059868540	0.018452065
2020-09-18T23:10:00	0.1796	10.676	201.0	0.404759499	0.457165930	0.005784918	0.059681931	0.018394551
2020-09-18T23:15:00	0.1800	10.659	201.0	0.405822910	0.458889771	0.005816897	0.060011857	0.018496237
2020-09-18T23:20:00	0.1796	10.639	200.0	0.404665977	0.457014474	0.005782111	0.059652969	0.018385624
2020-09-18T23:25:00	0.1795	10.619	201.0	0.404341532	0.456489231	0.005772378	0.059552557	0.018354677
2020-09-18T23:30:00	0.1799	10.594	200.0	0.405682720	0.458662340	0.005812675	0.059968299	0.018482812
2020-09-18T23:35:00	0.1802	10.573	200.0	0.406468200	0.459937327	0.005836355	0.060212596	0.018558107
2020-09-18T23:40:00	0.1798	10.557	199.0	0.405311743	0.458060758	0.005801512	0.059853129	0.018447316
2020-09-18T23:45:00	0.1806	10.535	200.0	0.407483778	0.461588313	0.005867057	0.060529349	0.018655733
2020-09-18T23:50:00	0.1811	10.516	199.0	0.408822293	0.463768600	0.005907672	0.060948361	0.018784877
2020-09-18T23:55:00	0.1816	10.497	199.0	0.410159675	0.465951949	0.005948422	0.061368770	0.018914451
2020-09-19T00:00:00	0.1813	10.475	198.0	0.409559595	0.464971678	0.005930116	0.061179917	0.018856245
2020-09-19T00:05:00	0.1817	10.456	199.0	0.410619775	0.466704223	0.005962480	0.061513809	0.018959153
2020-09-19T00:10:00	0.1812	10.439	199.0	0.409189528	0.464367644	0.005918845	0.061063628	0.018820403
2020-09-19T00:15:00	0.1804	10.421	200.0	0.406926456	0.460681947	0.005850196	0.060355399	0.018602120
2020-09-19T00:20:00	0.1811	10.399	199.0	0.408819376	0.463763843	0.005907583	0.060947446	0.018784595
2020-09-19T00:25:00	0.1816	10.379	199.0	0.410156760	0.465947185	0.005948333	0.061367852	0.018914168
2020-09-19T00:30:00	0.1815	10.358	199.0	0.410110160	0.465871025	0.005946910	0.061353173	0.018909644
2020-09-19T00:35:00	0.1810	10.336	199.0	0.408679452	0.463535695	0.005903330	0.060903562	0.018771069
2020-09-19T00:40:00	0.1815	10.321	198.0	0.410016955	0.465718717	0.005944065	0.061323822	0.018900598
2020-09-19T00:45:00	0.1821	10.303	199.0	0.411629781	0.468357641	0.005993412	0.061832923	0.019057508
2020-09-19T00:50:00	0.1826	10.284	198.0	0.412964801	0.470547420	0.006034446	0.062256266	0.019187986
2020-09-19T00:55:00	0.1827	10.263	198.0	0.413194462	0.470924619	0.006041522	0.062329269	0.019210486
2020-09-19T01:00:00	0.1822	10.246	198.0	0.412042912	0.469034760	0.006006092	0.061963742	0.019097827
2020-09-19T01:05:00	0.1818	10.231	198.0	0.410890528	0.467147181	0.005970762	0.061599256	0.018985489
2020-09-19T01:10:00	0.1821	10.211	198.0	0.411673425	0.468429151	0.005994750	0.061846736	0.019061765
2020-09-19T01:15:00	0.1818	10.191	198.0	0.410797369	0.466994748	0.005967912	0.061569847	0.018976425
2020-09-19T01:20:00	0.1814	10.174	198.0	0.409644080	0.465109632	0.005932691	0.061206484	0.018864433
2020-09-19T01:25:00	0.1811	10.152	198.0	0.408766902	0.463678277	0.005905988	0.060930987	0.018779522
2020-09-19T01:30:00	0.1808	10.134	198.0	0.408166293	0.462699438	0.005887746	0.060742786	0.018721517
2020-09-19T01:35:00	0.1800	10.116	198.0	0.405901751	0.459017700	0.005819272	0.060036361	0.018503790
2020-09-19T01:40:00	0.1799	10.095	198.0	0.405577561	0.458491775	0.005809510	0.059935639	0.018472746
2020-09-19T01:45:00	0.1798	10.076	197.0	0.405253305	0.457966029	0.005799755	0.059834999	0.018441728
2020-09-19T01:50:00	0.1801	10.058	198.0	0.406038999	0.459240442	0.005823409	0.060079033	0.018516942
2020-09-19T01:55:00	0.1802	10.044	197.0	0.406269668	0.459614911	0.005830364	0.060150793	0.018539058
2020-09-19T02:00:00	0.1798	10.026	198.0	0.405390610	0.458188618	0.005803884	0.059877602	0.018454858
2020-09-19T02:05:00	0.1798	10.007	197.0	0.405343868	0.458112838	0.005802478	0.059863097	0.018450388
2020-09-19T02:10:00	0.1801	9.991	197.0	0.406129518	0.459387372	0.005826138	0.060107187	0.018525619
2020-09-19T02:15:00	0.1789	9.972	197.0	0.402750477	0.453917641	0.005724792	0.059061628	0.018203367
2020-09-19T02:20:00	0.1785	9.956	197.0	0.401591271	0.452048393	0.005690273	0.058705495	0.018093604
2020-09-19T02:25:00	0.1784	9.940	197.0	0.401266187	0.451524846	0.005680615	0.058605855	0.018062894
2020-09-19T02:30:00	0.1783	9.920	197.0	0.401219322	0.451449394	0.005679223	0.058591499	0.018058469
2020-09-19T02:35:00	0.1791	9.904	196.0	0.403397032	0.454961821	0.005744101	0.059260830	0.018264763
2020-09-19T02:40:00	0.1794	9.889	197.0	0.404183657	0.456233752	0.005767645	0.059503734	0.018339629
2020-09-19T02:45:00	0.1793	9.872	196.0	0.403859112	0.455708775	0.005757924	0.059403444	0.018308718
2020-09-19T02:50:00	0.1796	9.851	196.0	0.404645505	0.456981323	0.005781496	0.059646630	0.018383671
2020-09-19T02:55:00	0.1787	9.833	196.0	0.402375876	0.453313186	0.005713623	0.058946400	0.018167853
2020-09-19T03:00:00	0.1786	9.810	196.0	0.402050955	0.452789207	0.005703946	0.058846564	0.018137083
2020-09-19T03:05:00	0.1786	9.795	197.0	0.402004114	0.452713692	0.005702552	0.058832180	0.018132649
2020-09-19T03:10:00	0.1777	9.781	196.0	0.399452084	0.448608526	0.005626901	0.058051703	0.017892099
2020-09-19T03:15:00	0.1774	9.766	196.0	0.398569179	0.447192426	0.005600871	0.057783152	0.017809329
2020-09-19T03:20:00	0.1777	9.750	196.0	0.399358244	0.448457913	0.005624131	0.058023124	0.017883290
2020-09-19T03:25:00	0.1776	9.733	196.0	0.399311321	0.448382613	0.005622746	0.058008837	0.017878887
2020-09-19T03:30:00	0.1778	9.719	196.0	0.399821522	0.449201700	0.005637815	0.058164297	0.017926801
2020-09-19T03:35:00	0.1777	9.702	196.0	0.399496068	0.448679127	0.005628200	0.058065101	0.017896228
2020-09-19T03:40:00	0.1781	9.689	195.0	0.400563066	0.450393457	0.005659760	0.058390696	0.017996580
2020-09-19T03:45:00	0.1780	9.672	182.0	0.400237768	0.449870476	0.005650127	0.058291315	0.017965949
2020-09-19T03:50:00	0.1779	9.654	196.0	0.399912401	0.449347674	0.005640502	0.058192014	0.017935344
2020-09-19T03:55:00	0.1785	9.640	196.0	0.401813805	0.452406951	0.005696890	0.058773761	0.018114644
2020-09-19T04:00:00	0.1791	9.627	196.0	0.403435051	0.455023257	0.005745238	0.059272556	0.018268378
2020-09-19T04:05:00	0.1786	9.609	195.0	0.402000743	0.452708259	0.005702452	0.058831145	0.018132330
2020-09-19T04:10:00	0.1778	9.591	195.0	0.399729754	0.449054322	0.005635103	0.058136316	0.017918177
2020-09-19T04:15:00	0.1785	9.579	195.0	0.401633871	0.452117022	0.005691539	0.058718559	0.018097630
2020-09-19T04:20:00	0.1789	9.563	195.0	0.402701893	0.453839226	0.005723343	0.059046676	0.018198759
2020-09-19T04:25:00	0.1784	9.547	195.0	0.401266912	0.451526013	0.005680636	0.058606077	0.018062962
2020-09-19T04:30:00	0.1783	9.527	195.0	0.401222537	0.451454569	0.005679319	0.058592484	0.018058773
2020-09-19T04:35:00	0.1785	9.512	195.0	0.401734600	0.452279316	0.005694534	0.058749458	0.018107154
2020-09-19T04:40:00	0.1781	9.498	205.0	0.400577129	0.450416071	0.005660176	0.058394995	0.017997904
2020-09-19T04:45:00	0.1786	9.483	195.0	0.401924036	0.452584611	0.005700169	0.058807594	0.018125072
2020-09-19T04:50:00	0.1785	9.463	195.0	0.401601511	0.452064890	0.005690577	0.058708635	0.018094571
2020-09-19T04:55:00	0.1790	9.446	195.0	0.402947535	0.454235767	0.005730673	0.059122298	0.018222067
2020-09-19T05:00:00	0.1789	9.431	195.0	0.402903208	0.454164197	0.005729350	0.059108648	0.018217859
2020-09-19T05:05:00	0.1785	9.414	195.0	0.401746604	0.452298659	0.005694891	0.058753141	0.018108289
2020-09-19T05:10:00	0.1786	9.401	194.0	0.401980394	0.452675454	0.005701846	0.058824897	0.018130404
2020-09-19T05:15:00	0.1787	9.390	197.0	0.402214148	0.453052342	0.005708806	0.058896694	0.018152533
2020-09-19T05:20:00	0.1793	9.377	194.0	0.403837465	0.455673769	0.005757276	0.059396759	0.018306658
2020-09-19T05:25:00	0.1793	9.363	194.0	0.403793163	0.455602132	0.005755950	0.059383077	0.018302441
2020-09-19T05:30:00	0.1786	9.350	194.0	0.402081100	0.452837808	0.005704844	0.058855822	0.018139936
2020-09-19T05:35:00	0.1782	9.336	194.0	0.400923887	0.450973883	0.005670456	0.058501050	0.018030592
2020-09-19T05:40:00	0.1783	9.327	194.0	0.401157800	0.451350353	0.005677397	0.058572657	0.018052662
2020-09-19T05:45:00	0.1777	9.316	195.0	0.399442839	0.448593687	0.005626628	0.058048887	0.017891231
2020-09-19T05:50:00	0.1775	9.308	194.0	0.398841136	0.447628394	0.005608881	0.057865792	0.017834799
2020-09-19T05:55:00	0.1777	9.301	194.0	0.399353984	0.448451077	0.005624005	0.058021827	0.017882890
2020-09-19T06:00:00	0.1779	9.295	194.0	0.400145142	0.449721614	0.005647385	0.058263035	0.017957233
2020-09-19T06:05:00	0.1784	9.289	194.0	0.401492423	0.451889168	0.005687335	0.058675187	0.018084262
2020-09-19T06:10:00	0.1785	9.291	194.0	0.401726251	0.452265863	0.005694286	0.058746896	0.018106364
2020-09-19T06:15:00	0.1780	9.289	194.0	0.400290370	0.449955025	0.005651684	0.058307378	0.017970900
2020-09-19T06:20:00	0.1783	9.287	194.0	0.401081051	0.451226814	0.005675119	0.058549156	0.018045419
2020-09-19T06:25:00	0.1781	9.291	194.0	0.400479982	0.450259855	0.005657298	0.058365304	0.017988753
2020-09-19T06:30:00	0.1778	9.297	194.0	0.399600154	0.448846224	0.005631274	0.058096814	0.017906002
2020-09-19T06:35:00	0.1776	9.305	194.0	0.399277146	0.448327773	0.005621738	0.057998433	0.017875680
2020-09-19T06:40:00	0.1775	9.313	194.0	0.398954072	0.447809498	0.005612210	0.057900131	0.017845383
2020-09-19T06:45:00	0.1772	9.326	194.0	0.398073378	0.446398137	0.005586285	0.057632675	0.017762950
2020-09-19T06:50:00	0.1766	9.339	194.0	0.396355000	0.443650417	0.005535911	0.057112973	0.017602773
2020-09-19T06:55:00	0.1771	9.356	194.0	0.397705576	0.445809340	0.005575480	0.057521199	0.017728592
2020-09-19T07:00:00	0.1775	9.374	194.0	0.398776300	0.447524439	0.005606971	0.057846084	0.017828725
2020-09-19T07:05:00	0.1774	9.393	194.0	0.398731854	0.447453182	0.005605661	0.057832576	0.017824561
2020-09-19T07:10:00	0.1773	9.414	194.0	0.398408666	0.446935205	0.005596146	0.057734410	0.017794306
2020-09-19T07:15:00	0.1773	9.435	194.0	0.398364209	0.446863977	0.005594838	0.057720914	0.017790146
2020-09-19T07:20:00	0.1776	9.458	195.0	0.399155871	0.448133190	0.005618160	0.057961521	0.017864304
2020-09-19T07:25:00	0.1785	9.483	195.0	0.401617171	0.452090118	0.005691043	0.058713438	0.018096052
2020-09-19T07:30:00	0.1794	9.510	195.0	0.404074592	0.456057297	0.005764377	0.059470020	0.018329238
2020-09-19T07:35:00	0.1793	9.540	195.0	0.404030296	0.455985643	0.005763051	0.059456330	0.018325018
2020-09-19T07:40:00	0.1793	9.567	195.0	0.403986000	0.455913991	0.005761724	0.059442643	0.018320800
2020-09-19T07:45:00	0.1795	9.599	195.0	0.404497158	0.456741138	0.005777045	0.059600709	0.018369517
2020-09-19T07:50:00	0.1792	9.630	195.0	0.403619593	0.455321518	0.005750756	0.059329494	0.018285926
2020-09-19T07:55:00	0.1795	9.663	195.0	0.404408590	0.456597768	0.005774389	0.059573303	0.018361070
2020-09-19T08:00:00	0.1797	9.697	195.0	0.404919612	0.457425282	0.005789726	0.059731536	0.018409840
2020-09-19T08:05:00	0.1798	9.732	195.0	0.405430466	0.458253241	0.005805083	0.059889972	0.018458671
2020-09-19T08:10:00	0.1797	9.769	196.0	0.405108663	0.457731600	0.005795406	0.059790139	0.018427901
2020-09-19T08:15:00	0.1797	9.810	196.0	0.405064397	0.457659868	0.005794076	0.059776414	0.018423671
2020-09-19T08:20:00	0.1793	9.852	197.0	0.403909390	0.455790085	0.005759430	0.059418974	0.018313505
2020-09-19T08:25:00	0.1799	9.894	196.0	0.405530951	0.458416184	0.005808107	0.059921166	0.018468285
2020-09-19T08:30:00	0.1799	9.934	196.0	0.405486697	0.458344420	0.005806775	0.059907427	0.018464051
2020-09-19T08:35:00	0.1801	9.979	196.0	0.405997367	0.459172871	0.005822154	0.060066088	0.018512952
2020-09-19T08:40:00	0.1808	10.025	199.0	0.408170937	0.462707003	0.005887887	0.060744240	0.018721965
2020-09-19T08:45:00	0.1808	10.071	197.0	0.408126757	0.462635039	0.005886546	0.060730410	0.018717702
2020-09-19T08:50:00	0.1805	10.120	198.0	0.407251216	0.461209996	0.005860018	0.060456725	0.018633350
2020-09-19T08:55:00	0.1805	10.170	197.0	0.407207010	0.461138102	0.005858680	0.060442926	0.018629097
2020-09-19T09:00:00	0.1803	10.218	199.0	0.406608288	0.460164895	0.005840584	0.060256229	0.018571555
2020-09-19T09:05:00	0.1807	10.262	198.0	0.407672930	0.461896122	0.005872786	0.060588455	0.018673950
2020-09-19T09:10:00	0.1817	10.310	198.0	0.410674193	0.466793235	0.005964144	0.061530976	0.018964445
2020-09-19T09:15:00	0.1819	10.358	198.0	0.411183189	0.467626207	0.005979723	0.061691698	0.019013980
2020-09-19T09:20:00	0.1823	10.408	198.0	0.412244759	0.469365756	0.006012293	0.062027719	0.019117545
2020-09-19T09:25:00	0.1819	10.453	199.0	0.411094996	0.467481827	0.005977022	0.061663831	0.019005392
2020-09-19T09:30:00	0.1821	10.498	200.0	0.411603857	0.468315167	0.005992617	0.061824720	0.019054979
2020-09-19T09:35:00	0.1827	10.544	200.0	0.413217546	0.470962539	0.006042234	0.062336610	0.019212749
2020-09-19T09:40:00	0.1822	10.590	199.0	0.412068485	0.469076689	0.006006877	0.061971846	0.019100325
2020-09-19T09:45:00	0.1822	10.637	199.0	0.412024414	0.469004431	0.006005524	0.061957881	0.019096021
2020-09-19T09:50:00	0.1814	10.684	203.0	0.409767870	0.465311797	0.005936466	0.061245424	0.018876434
2020-09-19T09:55:00	0.1816	10.734	200.0	0.410277157	0.466143979	0.005952009	0.061405784	0.018925859
2020-09-19T10:00:00	0.1818	10.786	200.0	0.410786280	0.466976604	0.005967573	0.061566347	0.018975346
2020-09-19T10:05:00	0.1810	10.838	200.0	0.408564706	0.463348640	0.005899843	0.060867589	0.018759982
2020-09-19T10:10:00	0.1813	10.893	202.0	0.409387945	0.464691459	0.005924886	0.061125961	0.018839615
2020-09-19T10:15:00	0.1811	10.950	201.0	0.408826778	0.463775914	0.005907808	0.060949768	0.018785310
2020-09-19T10:20:00	0.1807	11.007	201.0	0.407711285	0.461958549	0.005873949	0.060600444	0.018677645
2020-09-19T10:25:00	0.1805	11.060	202.0	0.407149522	0.461044614	0.005856941	0.060424985	0.018623567
2020-09-19T10:30:00	0.1805	11.108	202.0	0.407142080	0.461032513	0.005856716	0.060422663	0.018622851
2020-09-19T10:35:00	0.1813	11.150	202.0	0.409350790	0.464630815	0.005923755	0.061114286	0.018836017
2020-09-19T10:40:00	0.1811	11.190	202.0	0.408789610	0.463715306	0.005906678	0.060938109	0.018781717
2020-09-19T10:45:00	0.1810	11.227	201.0	0.408505228	0.463251695	0.005898036	0.060848948	0.018754237
2020-09-19T10:50:00	0.1813	11.268	202.0	0.409328498	0.464594430	0.005923076	0.061107282	0.018833858
2020-09-19T10:55:00	0.1808	11.300	203.0	0.407936310	0.462324887	0.005880769	0.060670815	0.018699334
2020-09-19T11:00:00	0.1813	11.337	202.0	0.409313635	0.464570174	0.005922623	0.061102612	0.018832419
2020-09-19T11:05:00	0.1806	11.379	203.0	0.407644336	0.461849584	0.005871920	0.060579518	0.018671196
2020-09-19T11:10:00	0.1801	11.407	203.0	0.406250661	0.459584050	0.005829791	0.060144878	0.018537235
2020-09-19T11:15:00	0.1803	11.438	203.0	0.406797859	0.460472931	0.005846310	0.060315304	0.018589763
2020-09-19T11:20:00	0.1803	11.469	203.0	0.406790416	0.460460835	0.005846085	0.060312984	0.018589047
2020-09-19T11:25:00	0.1805	11.497	203.0	0.407337426	0.461350220	0.005862627	0.060483640	0.018641645
2020-09-19T11:30:00	0.1803	11.528	203.0	0.406775530	0.460436644	0.005845636	0.060308344	0.018587617
2020-09-19T11:35:00	0.1792	11.559	204.0	0.403715065	0.455475860	0.005753613	0.059358964	0.018295009
2020-09-19T11:40:00	0.1790	11.588	203.0	0.403151871	0.454565754	0.005736775	0.059185249	0.018241469
2020-09-19T11:45:00	0.1786	11.617	204.0	0.402032339	0.452759194	0.005703392	0.058840847	0.018135320
2020-09-19T11:50:00	0.1779	11.645	204.0	0.400076827	0.449611840	0.005645364	0.058242184	0.017950807
2020-09-19T11:55:00	0.1773	11.672	204.0	0.398397646	0.446917550	0.005595822	0.057731064	0.017793275
2020-09-19T12:00:00	0.1770	11.699	204.0	0.397553629	0.445566202	0.005571020	0.057475184	0.017714410
2020-09-19T12:05:00	0.1763	11.726	205.0	0.395592458	0.442433669	0.005513645	0.056883261	0.017531973
2020-09-19T12:10:00	0.1758	11.751	205.0	0.394187949	0.440196701	0.005472776	0.056461619	0.017402019
2020-09-19T12:15:00	0.1753	11.777	205.0	0.392782155	0.437963047	0.005432052	0.056041482	0.017272529
2020-09-19T12:20:00	0.1748	11.801	205.0	0.391375070	0.435732708	0.005391475	0.055622851	0.017143503
2020-09-19T12:25:00	0.1747	11.824	205.0	0.391087483	0.435277520	0.005383204	0.055537521	0.017117203
2020-09-19T12:30:00	0.1749	11.849	204.0	0.391640056	0.436152320	0.005399102	0.055701544	0.017167757
2020-09-19T12:35:00	0.1746	11.873	205.0	0.390792321	0.434810576	0.005374723	0.055450027	0.017090237
2020-09-19T12:40:00	0.1742	11.896	205.0	0.389663785	0.433027412	0.005342371	0.055116259	0.016987366
2020-09-19T12:45:00	0.1744	11.918	205.0	0.390216873	0.433900898	0.005358212	0.055279685	0.017037736
2020-09-19T12:50:00	0.1741	11.940	205.0	0.389368347	0.432561171	0.005333921	0.055029083	0.016960498
2020-09-19T12:55:00	0.1735	11.964	206.0	0.387677411	0.429897176	0.005285713	0.054531725	0.016807207
2020-09-19T13:00:00	0.1731	11.988	206.0	0.386546560	0.428119879	0.005253619	0.054200619	0.016705157
2020-09-19T13:05:00	0.1722	12.010	206.0	0.384008491	0.424143500	0.005182015	0.053461895	0.016477475
2020-09-19T13:10:00	0.1712	12.029	206.0	0.381184233	0.419739144	0.005103029	0.052647013	0.016226321
2020-09-19T13:15:00	0.1714	12.046	206.0	0.381740431	0.420604824	0.005118527	0.052806899	0.016275599
2020-09-19T13:20:00	0.1711	12.061	206.0	0.380887132	0.419277071	0.005094763	0.052561727	0.016200035
2020-09-19T13:25:00	0.1707	12.077	207.0	0.379751169	0.417512522	0.005063229	0.052236399	0.016099765
2020-09-19T13:30:00	0.1707	12.092	206.0	0.379743594	0.417500767	0.005063019	0.052234234	0.016099098
2020-09-19T13:35:00	0.1710	12.108	206.0	0.380582402	0.418803378	0.005086292	0.052474337	0.016173100
2020-09-19T13:40:00	0.1697	12.127	207.0	0.376903679	0.413104595	0.004984699	0.051426218	0.015850060
2020-09-19T13:45:00	0.1693	12.144	206.0	0.375764675	0.411347498	0.004953492	0.051104264	0.015750831
2020-09-19T13:50:00	0.1690	12.165	207.0	0.374907948	0.410028147	0.004930096	0.050862896	0.015676438
2020-09-19T13:55:00	0.1688	12.185	207.0	0.374333987	0.409145351	0.004914460	0.050701574	0.015626717
2020-09-19T14:00:00	0.1681	12.203	207.0	0.372342399	0.406088967	0.004860432	0.050144176	0.015454922
2020-09-19T14:05:00	0.1685	12.220	207.0	0.373468823	0.407816329	0.004890945	0.050458983	0.015551949
2020-09-19T14:10:00	0.1686	12.238	207.0	0.374027911	0.408674944	0.004906133	0.050615671	0.015600241
2020-09-19T14:15:00	0.1686	12.257	207.0	0.374020307	0.408663260	0.004905926	0.050613538	0.015599584
2020-09-19T14:20:00	0.1681	12.272	207.0	0.372595541	0.406476864	0.004867279	0.050214820	0.015476695
2020-09-19T14:25:00	0.1687	12.290	207.0	0.374288368	0.409075224	0.004913218	0.050688765	0.015622770
2020-09-19T14:30:00	0.1687	12.306	207.0	0.374280765	0.409063537	0.004913011	0.050686630	0.015622112
2020-09-19T14:35:00	0.1693	12.320	207.0	0.375971666	0.411666556	0.004959154	0.051162683	0.015768836
2020-09-19T14:40:00	0.1683	12.334	207.0	0.373132133	0.407299661	0.004881813	0.050364763	0.015522909
2020-09-19T14:45:00	0.1679	12.347	207.0	0.371990221	0.405549601	0.004850915	0.050045992	0.015424661
2020-09-19T14:50:00	0.1679	12.360	207.0	0.371982606	0.405537942	0.004850709	0.050043871	0.015424007
2020-09-19T14:55:00	0.1672	12.369	208.0	0.369987834	0.402489204	0.004797016	0.049489930	0.015253277
2020-09-19T15:00:00	0.1671	12.379	208.0	0.369696108	0.402044230	0.004789194	0.049409228	0.015228404
2020-09-19T15:05:00	0.1669	12.388	207.0	0.369120112	0.401166319	0.004773771	0.049250115	0.015179364
2020-09-19T15:10:00	0.1667	12.395	208.0	0.368543889	0.400288948	0.004758372	0.049091246	0.015130399
2020-09-19T15:15:00	0.1664	12.401	208.0	0.367682948	0.398979704	0.004735419	0.048854448	0.015057415
2020-09-19T15:20:00	0.1666	12.409	208.0	0.368244241	0.399833045	0.004750376	0.049008752	0.015104973
2020-09-19T15:25:00	0.1663	12.414	208.0	0.367383124	0.398524219	0.004727441	0.048772142	0.015032048
2020-09-19T15:30:00	0.1666	12.417	208.0	0.368228972	0.399809820	0.004749969	0.049004550	0.015103678
2020-09-19T15:35:00	0.1666	12.419	208.0	0.368221338	0.399798208	0.004749765	0.049002449	0.015103031
2020-09-19T15:40:00	0.1671	12.420	208.0	0.369635091	0.401951188	0.004787558	0.049392358	0.015223204
2020-09-19T15:45:00	0.1674	12.420	208.0	0.370479641	0.403239878	0.004810221	0.049626161	0.015295265
2020-09-19T15:50:00	0.1677	12.419	208.0	0.371323704	0.404529727	0.004832934	0.049860489	0.015367487
2020-09-19T15:55:00	0.1682	12.419	207.0	0.372734476	0.406689830	0.004871040	0.050253618	0.015488653
2020-09-19T16:00:00	0.1684	12.418	208.0	0.373293842	0.407547775	0.004886198	0.050410003	0.015536852
2020-09-19T16:05:00	0.1684	12.417	208.0	0.373331434	0.407605462	0.004887218	0.050420523	0.015540095
2020-09-19T16:10:00	0.1684	12.415	208.0	0.373369025	0.407663152	0.004888237	0.050431044	0.015543338
2020-09-19T16:15:00	0.1691	12.415	208.0	0.375389173	0.410768986	0.004943230	0.050998388	0.015718199
2020-09-19T16:20:00	0.1686	12.413	208.0	0.374010905	0.408648815	0.004905671	0.050610901	0.015598771
2020-09-19T16:25:00	0.1682	12.410	208.0	0.372631352	0.406531751	0.004868248	0.050224819	0.015479777
2020-09-19T16:30:00	0.1683	12.407	208.0	0.372952488	0.407024112	0.004876944	0.050314534	0.015507428
2020-09-19T16:35:00	0.1687	12.403	208.0	0.374123623	0.408822016	0.004908736	0.050642524	0.015608518
2020-09-19T16:40:00	0.1687	12.398	208.0	0.374161194	0.408879754	0.004909758	0.050653067	0.015611767
2020-09-19T16:45:00	0.1687	12.391	208.0	0.374198763	0.408937495	0.004910780	0.050663611	0.015615017
2020-09-19T16:50:00	0.1687	12.384	208.0	0.374236332	0.408995238	0.004911802	0.050674157	0.015618267
2020-09-19T16:55:00	0.1688	12.378	208.0	0.374557119	0.409488440	0.004920535	0.050764252	0.015646036
2020-09-19T17:00:00	0.1691	12.371	208.0	0.375443989	0.410853415	0.004944727	0.051013836	0.015722960
2020-09-19T17:05:00	0.1694	12.362	208.0	0.376047449	0.411783398	0.004961229	0.051184081	0.015775431
2020-09-19T17:10:00	0.1699	12.352	208.0	0.377498800	0.414024047	0.005001051	0.051594918	0.015902055
2020-09-19T17:15:00	0.1702	12.341	208.0	0.378383916	0.415393294	0.005025430	0.051846436	0.015979575
2020-09-19T17:20:00	0.1712	12.329	208.0	0.381243275	0.419831000	0.005104673	0.052663972	0.016231548
2020-09-19T17:25:00	0.1711	12.317	208.0	0.380998724	0.419450598	0.005097867	0.052593751	0.016209905
2020-09-19T17:30:00	0.1710	12.304	208.0	0.380754132	0.419070295	0.005091065	0.052523574	0.016188276
2020-09-19T17:35:00	0.1716	12.289	208.0	0.382482634	0.421761300	0.005139251	0.053020708	0.016341497
2020-09-19T17:40:00	0.1722	12.273	207.0	0.383927755	0.424017296	0.005179747	0.053438496	0.016470263
2020-09-19T17:45:00	0.1731	12.255	208.0	0.386495680	0.428039995	0.005252178	0.054185750	0.016700575
2020-09-19T17:50:00	0.1733	12.237	207.0	0.387094708	0.428980943	0.005269161	0.054360962	0.016754576
2020-09-19T17:55:00	0.1731	12.220	207.0	0.386570201	0.428157000	0.005254289	0.054207529	0.016707287
2020-09-19T18:00:00	0.1726	12.198	207.0	0.385202199	0.426011513	0.005215618	0.053808575	0.016584325
2020-09-19T18:05:00	0.1733	12.177	207.0	0.387206445	0.429156565	0.005272332	0.054393682	0.016764661
2020-09-19T18:10:00	0.1735	12.155	207.0	0.387805193	0.430098220	0.005289347	0.054569215	0.016818762
2020-09-19T18:15:00	0.1741	12.133	207.0	0.389525648	0.432809384	0.005338419	0.055075488	0.016974800
2020-09-19T18:20:00	0.1748	12.109	207.0	0.391244162	0.435525481	0.005387709	0.055584000	0.017131529
2020-09-19T18:25:00	0.1754	12.088	207.0	0.392960746	0.438246512	0.005437216	0.056094751	0.017288947
2020-09-19T18:30:00	0.1762	12.066	206.0	0.395234190	0.441862545	0.005503203	0.056775527	0.017498769
2020-09-19T18:35:00	0.1756	12.044	207.0	0.393594329	0.439252849	0.005455557	0.056283978	0.017347269
2020-09-19T18:40:00	0.1762	12.020	207.0	0.395308287	0.441980635	0.005505361	0.056797798	0.017505633
2020-09-19T18:45:00	0.1768	12.000	207.0	0.397020339	0.444713354	0.005555383	0.057313859	0.017664688
2020-09-19T18:50:00	0.1769	11.979	207.0	0.397336329	0.445218598	0.005564645	0.057409416	0.017694139
2020-09-19T18:55:00	0.1770	11.958	207.0	0.397373327	0.445277773	0.005565730	0.057420610	0.017697590
2020-09-19T19:00:00	0.1762	11.935	207.0	0.395177144	0.441771639	0.005501541	0.056758384	0.017493485
2020-09-19T19:05:00	0.1761	11.911	206.0	0.394934826	0.441385588	0.005494486	0.056685600	0.017471052
2020-09-19T19:10:00	0.1758	11.888	206.0	0.394133492	0.440110075	0.005471195	0.056445308	0.017396992
2020-09-19T19:15:00	0.1757	11.866	206.0	0.393891009	0.439724450	0.005464159	0.056372718	0.017374619
2020-09-19T19:20:00	0.1762	11.839	206.0	0.395325339	0.442007814	0.005505858	0.056802924	0.017507213
2020-09-19T19:25:00	0.1760	11.816	206.0	0.394803652	0.441176674	0.005490669	0.056646224	0.017458916
2020-09-19T19:30:00	0.1765	11.790	206.0	0.396237132	0.443462237	0.005532466	0.057077429	0.017591818
2020-09-19T19:35:00	0.1764	11.768	206.0	0.395715753	0.442630297	0.005517242	0.056920365	0.017543409
2020-09-19T19:40:00	0.1759	11.746	205.0	0.394355930	0.440463963	0.005477654	0.056511948	0.017417531
2020-09-19T19:45:00	0.1757	11.722	205.0	0.393833914	0.439633672	0.005462503	0.056355633	0.017369353
2020-09-19T19:50:00	0.1757	11.697	204.0	0.393870996	0.439692629	0.005463578	0.056366729	0.017372773
2020-09-19T19:55:00	0.1755	11.672	205.0	0.393348815	0.438862763	0.005448445	0.056210607	0.017324655
2020-09-19T20:00:00	0.1757	11.649	205.0	0.393945158	0.439810550	0.005465729	0.056388923	0.017379614
2020-09-19T20:05:00	0.1760	11.626	205.0	0.394820710	0.441203839	0.005491166	0.056651343	0.017460494
2020-09-19T20:10:00	0.1765	11.601	204.0	0.395974994	0.443043864	0.005524808	0.056998428	0.017567469
2020-09-19T20:15:00	0.1770	11.579	205.0	0.397407386	0.445332250	0.005566729	0.057430917	0.017700766
2020-09-19T20:20:00	0.1771	11.556	205.0	0.397723297	0.445837700	0.005576000	0.057526567	0.017730247
2020-09-19T20:25:00	0.1769	11.531	205.0	0.397202420	0.445004455	0.005560719	0.057368910	0.017681655
2020-09-19T20:30:00	0.1766	11.507	204.0	0.396402265	0.443725887	0.005537293	0.057127230	0.017607167
2020-09-19T20:35:00	0.1774	11.480	205.0	0.398670644	0.447355058	0.005603859	0.057813976	0.017818829
2020-09-19T20:40:00	0.1773	11.459	204.0	0.398428873	0.446967583	0.005596741	0.057740544	0.017796197
2020-09-19T20:45:00	0.1772	11.435	204.0	0.398187064	0.446580207	0.005589628	0.057667158	0.017773578
2020-09-19T20:50:00	0.1772	11.412	204.0	0.397945218	0.446192929	0.005582519	0.057593816	0.017750973
2020-09-19T20:55:00	0.1776	11.385	204.0	0.399097171	0.448039022	0.005616429	0.057943659	0.017858799
2020-09-19T21:00:00	0.1773	11.361	203.0	0.398297995	0.446757898	0.005592890	0.057700817	0.017783952
2020-09-19T21:05:00	0.1771	11.336	203.0	0.397777312	0.445924148	0.005577586	0.057542931	0.017735290
2020-09-19T21:10:00	0.1773	11.312	204.0	0.398371945	0.446876371	0.005595066	0.057723262	0.017790870
2020-09-19T21:15:00	0.1776	11.289	203.0	0.399244990	0.448276175	0.005620789	0.057988644	0.017872663
2020-09-19T21:20:00	0.1766	11.270	203.0	0.396493345	0.443871336	0.005539956	0.057154708	0.017615636
2020-09-19T21:25:00	0.1772	11.245	203.0	0.397925257	0.446160972	0.005581932	0.057587765	0.017749109
2020-09-19T21:30:00	0.1769	11.225	203.0	0.397125476	0.444881430	0.005558463	0.057345642	0.017674484
2020-09-19T21:35:00	0.1768	11.201	203.0	0.396883464	0.444494585	0.005551374	0.057272498	0.017651940
2020-09-19T21:40:00	0.1772	11.177	203.0	0.398036207	0.446338615	0.005585193	0.057621403	0.017759476
2020-09-19T21:45:00	0.1770	11.156	203.0	0.397515435	0.445505095	0.005569899	0.057463620	0.017710846
2020-09-19T21:50:00	0.1774	11.134	203.0	0.398667708	0.447350352	0.005603772	0.057813084	0.017818554
2020-09-19T21:55:00	0.1776	11.112	202.0	0.399261999	0.448303468	0.005621291	0.057993822	0.017874259
2020-09-19T22:00:00	0.1774	11.090	203.0	0.398741640	0.447468871	0.005605950	0.057835550	0.017825478
2020-09-19T22:05:00	0.1764	11.068	202.0	0.395712369	0.442624899	0.005517143	0.056919346	0.017543095
2020-09-19T22:10:00	0.1763	11.051	202.0	0.395472634	0.442242615	0.005510151	0.056847215	0.017520864
2020-09-19T22:15:00	0.1764	11.030	202.0	0.395791439	0.442751020	0.005519450	0.056943149	0.017550432
2020-09-19T22:20:00	0.1756	11.002	202.0	0.393595501	0.439254712	0.005455591	0.056284329	0.017347377
2020-09-19T22:25:00	0.1749	10.977	202.0	0.391676430	0.436209935	0.005400150	0.055712352	0.017171088
2020-09-19T22:30:00	0.1750	10.955	207.0	0.391996025	0.436716308	0.005409359	0.055807362	0.017200371
2020-09-19T22:35:00	0.1745	10.934	202.0	0.390635405	0.434562432	0.005370218	0.055403546	0.017075911
2020-09-19T22:40:00	0.1750	10.909	202.0	0.391795346	0.436398317	0.005403575	0.055747692	0.017181980
2020-09-19T22:45:00	0.1744	10.888	202.0	0.390154307	0.433802047	0.005356419	0.055261183	0.017032033
2020-09-19T22:50:00	0.1743	10.864	202.0	0.389913701	0.433422000	0.005349525	0.055190068	0.017010115
2020-09-19T22:55:00	0.1738	10.840	201.0	0.388551222	0.431272861	0.005310592	0.054788401	0.016886317
2020-09-19T23:00:00	0.1733	10.819	201.0	0.387187520	0.429126818	0.005271795	0.054388139	0.016762953
2020-09-19T23:05:00	0.1731	10.796	201.0	0.386665559	0.428306742	0.005256991	0.054235404	0.016715878
2020-09-19T23:10:00	0.1728	10.775	200.0	0.385862384	0.427046275	0.005234259	0.054000885	0.016643597
2020-09-19T23:15:00	0.1726	10.752	201.0	0.385058782	0.425786880	0.005211574	0.053766852	0.016571466
2020-09-19T23:20:00	0.1722	10.729	201.0	0.383973367	0.424088593	0.005181028	0.053451714	0.016474337
2020-09-19T23:25:00	0.1718	10.707	201.0	0.382887169	0.422392258	0.005150568	0.053137462	0.016377482
2020-09-19T23:30:00	0.1714	10.687	201.0	0.381800186	0.420697877	0.005120194	0.052824094	0.016280899
2020-09-19T23:35:00	0.1712	10.664	201.0	0.381276356	0.419882469	0.005105594	0.052673475	0.016234477
2020-09-19T23:40:00	0.1702	10.644	200.0	0.378494511	0.415564528	0.005028481	0.051877914	0.015989277
2020-09-19T23:45:00	0.1704	10.626	200.0	0.379099261	0.416501446	0.005045185	0.052050246	0.016042391
2020-09-19T23:50:00	0.1704	10.606	201.0	0.378856885	0.416125824	0.005038486	0.051981136	0.016021091
2020-09-19T23:55:00	0.1704	10.589	200.0	0.378896863	0.416187768	0.005039591	0.051992532	0.016024603
2020-09-20T00:00:00	0.1707	10.570	200.0	0.379783675	0.417562968	0.005064130	0.052245692	0.016102630
2020-09-20T00:05:00	0.1697	10.552	200.0	0.376999045	0.413251870	0.004987317	0.051453230	0.015858385
2020-09-20T00:10:00	0.1689	10.530	200.0	0.374775599	0.409824506	0.004926488	0.050825669	0.015664965
2020-09-20T00:15:00	0.1683	10.511	200.0	0.373115855	0.407274690	0.004881372	0.050360210	0.015521506
2020-09-20T00:20:00	0.1686	10.491	200.0	0.374006124	0.408641469	0.004905541	0.050609560	0.015598358
2020-09-20T00:25:00	0.1683	10.472	199.0	0.372912639	0.406963001	0.004875865	0.050303396	0.015503995
2020-09-20T00:30:00	0.1677	10.455	200.0	0.371250796	0.404418238	0.004830970	0.049840223	0.015361241
2020-09-20T00:35:00	0.1678	10.438	200.0	0.371574772	0.404913760	0.004839702	0.049930318	0.015389009
2020-09-20T00:40:00	0.1678	10.422	199.0	0.371614947	0.404975227	0.004840786	0.049941496	0.015392454
2020-09-20T00:45:00	0.1681	10.409	199.0	0.372506122	0.406339825	0.004864860	0.050189859	0.015469002
2020-09-20T00:50:00	0.1675	10.393	199.0	0.370843821	0.403796164	0.004820013	0.049727184	0.015326401
2020-09-20T00:55:00	0.1676	10.379	199.0	0.371167886	0.404291472	0.004828736	0.049817182	0.015354139
2020-09-20T01:00:00	0.1681	10.360	199.0	0.372342977	0.406089853	0.004860447	0.050144337	0.015454972
2020-09-20T01:05:00	0.1686	10.344	199.0	0.373800496	0.408325591	0.004899952	0.050551901	0.015580587
2020-09-20T01:10:00	0.1686	10.326	199.0	0.373840610	0.408387204	0.004901042	0.050563146	0.015584053
2020-09-20T01:15:00	0.1693	10.311	199.0	0.375862646	0.411498497	0.004956172	0.051131909	0.015759351
2020-09-20T01:20:00	0.1690	10.294	199.0	0.375053656	0.410252397	0.004934071	0.050903898	0.015689076
2020-09-20T01:25:00	0.1692	10.278	199.0	0.375659807	0.411185896	0.004950625	0.051074683	0.015741713
2020-09-20T01:30:00	0.1689	10.263	200.0	0.374850706	0.409940065	0.004928536	0.050846793	0.015671475
2020-09-20T01:35:00	0.1685	10.249	199.0	0.373474473	0.407825001	0.004891099	0.050460565	0.015552436
2020-09-20T01:40:00	0.1685	10.234	199.0	0.373514596	0.407886592	0.004892188	0.050471800	0.015555899
2020-09-20T01:45:00	0.1685	10.217	198.0	0.373554717	0.407948186	0.004893277	0.050483036	0.015559362
2020-09-20T01:50:00	0.1687	10.202	198.0	0.374161482	0.408880198	0.004909766	0.050653148	0.015611792
2020-09-20T01:55:00	0.1692	10.187	198.0	0.375617210	0.411120263	0.004949460	0.051062670	0.015738011
2020-09-20T02:00:00	0.1688	10.175	198.0	0.374524915	0.409438915	0.004919658	0.050755203	0.015643247
2020-09-20T02:05:00	0.1682	10.161	198.0	0.372864889	0.406889779	0.004874571	0.050290052	0.015499882
2020-09-20T02:10:00	0.1685	10.150	198.0	0.373471937	0.407821108	0.004891030	0.050459855	0.015552217
2020-09-20T02:15:00	0.1687	10.139	198.0	0.374078736	0.408753039	0.004907515	0.050629929	0.015604636
2020-09-20T02:20:00	0.1692	10.132	198.0	0.375534545	0.410992907	0.004947201	0.051039362	0.015730827
2020-09-20T02:25:00	0.1695	10.122	198.0	0.376423362	0.412363205	0.004971525	0.051290303	0.015808170
2020-09-20T02:30:00	0.1697	10.106	198.0	0.377028954	0.413298064	0.004988138	0.051461703	0.015860997
2020-09-20T02:35:00	0.1692	10.098	198.0	0.375654743	0.411178093	0.004950486	0.051073254	0.015741273
2020-09-20T02:40:00	0.1695	10.087	198.0	0.376543488	0.412548566	0.004974817	0.051324275	0.015818640
2020-09-20T02:45:00	0.1694	10.077	198.0	0.376017809	0.411737698	0.004960417	0.051175711	0.015772851
2020-09-20T02:50:00	0.1693	10.065	198.0	0.375774931	0.411363303	0.004953772	0.051107158	0.015751722
2020-09-20T02:55:00	0.1691	10.056	198.0	0.375248980	0.410553097	0.004939401	0.050958894	0.015706026
2020-09-20T03:00:00	0.1699	10.048	198.0	0.377551746	0.414105894	0.005002507	0.051609943	0.015906686
2020-09-20T03:05:00	0.1702	10.039	198.0	0.378439359	0.415479132	0.005026960	0.051862215	0.015984438
2020-09-20T03:10:00	0.1701	10.030	198.0	0.378196875	0.415103773	0.005020272	0.051793225	0.015963175
2020-09-20T03:15:00	0.1702	10.022	197.0	0.378519335	0.415602969	0.005029166	0.051884981	0.015991455
2020-09-20T03:20:00	0.1703	10.018	198.0	0.378559322	0.415664891	0.005030270	0.051896366	0.015994964
2020-09-20T03:25:00	0.1710	10.009	198.0	0.380574958	0.418791810	0.005086085	0.052472203	0.016172443
2020-09-20T03:30:00	0.1708	10.001	198.0	0.380050700	0.417977462	0.005071532	0.052322064	0.016126168
2020-09-20T03:35:00	0.1706	9.992	198.0	0.379526258	0.417163567	0.005056999	0.052172130	0.016079957
2020-09-20T03:40:00	0.1699	9.984	198.0	0.377589230	0.414163844	0.005003538	0.051620582	0.015909965
2020-09-20T03:45:00	0.1701	9.977	198.0	0.378194347	0.415099861	0.005020203	0.051792506	0.015962953
2020-09-20T03:50:00	0.1701	9.969	198.0	0.378234343	0.415161762	0.005021305	0.051803881	0.015966459
2020-09-20T03:55:00	0.1690	9.962	198.0	0.375163761	0.410421891	0.004937075	0.050934895	0.015698629
2020-09-20T04:00:00	0.1698	9.954	198.0	0.377183995	0.413537561	0.004992397	0.051505639	0.015874538
2020-09-20T04:05:00	0.1702	9.943	197.0	0.378471766	0.415529309	0.005027854	0.051871439	0.015987281
2020-09-20T04:10:00	0.1698	9.933	198.0	0.377216430	0.413587672	0.004993288	0.051514833	0.015877372
2020-09-20T04:15:00	0.1695	9.925	197.0	0.376525774	0.412521230	0.004974332	0.051319264	0.015817096
2020-09-20T04:20:00	0.1698	9.911	197.0	0.377248863	0.413637784	0.004994179	0.051524028	0.015880206
2020-09-20T04:25:00	0.1695	9.905	197.0	0.376558223	0.412571306	0.004975221	0.051328443	0.015819925
2020-09-20T04:30:00	0.1696	9.900	197.0	0.376715843	0.412814589	0.004979544	0.051373041	0.015833670
2020-09-20T04:35:00	0.1692	9.894	197.0	0.375459024	0.410876572	0.004945138	0.051018074	0.015724266
2020-09-20T04:40:00	0.1694	9.882	196.0	0.376182632	0.411991861	0.004964930	0.051222265	0.015787199
2020-09-20T04:45:00	0.1694	9.877	196.0	0.376057415	0.411798764	0.004961501	0.051186895	0.015776298
2020-09-20T04:50:00	0.1693	9.870	196.0	0.375932186	0.411605693	0.004958074	0.051151537	0.015765401
2020-09-20T04:55:00	0.1698	9.863	196.0	0.377221040	0.413594795	0.004993415	0.051516140	0.015877775
2020-09-20T05:00:00	0.1701	9.857	197.0	0.378226312	0.415149332	0.005021084	0.051801597	0.015965755
2020-09-20T05:05:00	0.1705	9.848	196.0	0.379230906	0.416705529	0.005048826	0.052087805	0.016053967
2020-09-20T05:10:00	0.1707	9.838	196.0	0.379952685	0.417825294	0.005068814	0.052294023	0.016117526
2020-09-20T05:15:00	0.1708	9.828	197.0	0.380109947	0.418069456	0.005073176	0.052339018	0.016131394
2020-09-20T05:20:00	0.1722	9.819	197.0	0.383930114	0.424020983	0.005179813	0.053439179	0.016470474
2020-09-20T05:25:00	0.1730	9.811	196.0	0.386336410	0.427789979	0.005247668	0.054139222	0.016686234
2020-09-20T05:30:00	0.1736	9.802	196.0	0.387897071	0.430242804	0.005291960	0.054596181	0.016827073
2020-09-20T05:35:00	0.1730	9.793	196.0	0.386368647	0.427840579	0.005248581	0.054148638	0.016689136
2020-09-20T05:40:00	0.1729	9.787	197.0	0.385963262	0.427204493	0.005237111	0.054030307	0.016652665
2020-09-20T05:45:00	0.1736	9.780	197.0	0.388085708	0.430539721	0.005297329	0.054651569	0.016844144
2020-09-20T05:50:00	0.1740	9.771	196.0	0.389083749	0.432112257	0.005325789	0.054945183	0.016934639
2020-09-20T05:55:00	0.1737	9.764	196.0	0.388398524	0.431032312	0.005306240	0.054743495	0.016872477
2020-09-20T06:00:00	0.1746	9.756	196.0	0.390797747	0.434819158	0.005374879	0.055451634	0.017090732
2020-09-20T06:05:00	0.1743	9.751	196.0	0.389832993	0.433294553	0.005347214	0.055166225	0.017002766
2020-09-20T06:10:00	0.1743	9.749	196.0	0.389989230	0.433541284	0.005351689	0.055212386	0.017016994
2020-09-20T06:15:00	0.1747	9.749	197.0	0.390986025	0.435116987	0.005380288	0.055507437	0.017107931
2020-09-20T06:20:00	0.1753	9.748	196.0	0.392821734	0.438025861	0.005433196	0.056053285	0.017276167
2020-09-20T06:25:00	0.1759	9.746	196.0	0.394375779	0.440495548	0.005478231	0.056517897	0.017419365
2020-09-20T06:30:00	0.1771	9.747	196.0	0.397881513	0.446090943	0.005580647	0.057574507	0.017745022
2020-09-20T06:35:00	0.1776	9.750	196.0	0.399151863	0.448126760	0.005618042	0.057960301	0.017863928
2020-09-20T06:40:00	0.1772	9.755	197.0	0.398192338	0.446588654	0.005589783	0.057668758	0.017774071
2020-09-20T06:45:00	0.1771	9.761	197.0	0.397790073	0.445944573	0.005577961	0.057546797	0.017736482
2020-09-20T06:50:00	0.1768	9.768	196.0	0.396829702	0.444408673	0.005549799	0.057256257	0.017646934
2020-09-20T06:55:00	0.1763	9.776	196.0	0.395589485	0.442428928	0.005513558	0.056882366	0.017531698
2020-09-20T07:00:00	0.1759	9.783	197.0	0.394348269	0.440451772	0.005477432	0.056509652	0.017416824
2020-09-20T07:05:00	0.1758	9.793	196.0	0.394224548	0.440254924	0.005473838	0.056472582	0.017405398
2020-09-20T07:10:00	0.1761	9.805	196.0	0.394939225	0.441392594	0.005494614	0.056686921	0.017471460
2020-09-20T07:15:00	0.1767	9.819	197.0	0.396770219	0.444313624	0.005548058	0.057238290	0.017641397
2020-09-20T07:20:00	0.1769	9.834	196.0	0.397204759	0.445008194	0.005560787	0.057369617	0.017681873
2020-09-20T07:25:00	0.1773	9.850	196.0	0.398475664	0.447042561	0.005598118	0.057754752	0.017800575
2020-09-20T07:30:00	0.1781	9.867	197.0	0.400580881	0.450422105	0.005660287	0.058396142	0.017998258
2020-09-20T07:35:00	0.1778	9.886	196.0	0.399622238	0.448881681	0.005631926	0.058103545	0.017908077
2020-09-20T07:40:00	0.1772	9.907	196.0	0.398105463	0.446449519	0.005587228	0.057642406	0.017765949
2020-09-20T07:45:00	0.1775	9.932	196.0	0.398818346	0.447591852	0.005608210	0.057858864	0.017832664
2020-09-20T07:50:00	0.1783	9.955	197.0	0.401201389	0.451420523	0.005678691	0.058586007	0.018056776
2020-09-20T07:55:00	0.1779	9.981	197.0	0.399964667	0.449431636	0.005642047	0.058207959	0.017940258
2020-09-20T08:00:00	0.1778	10.007	198.0	0.399841395	0.449233620	0.005638402	0.058170357	0.017928669
2020-09-20T08:05:00	0.1778	10.036	198.0	0.399718113	0.449035629	0.005634759	0.058132768	0.017917084
2020-09-20T08:10:00	0.1778	10.068	198.0	0.399594822	0.448837663	0.005631116	0.058095189	0.017905502
2020-09-20T08:15:00	0.1774	10.101	198.0	0.398635571	0.447298838	0.005602826	0.057803320	0.017815545
2020-09-20T08:20:00	0.1774	10.134	198.0	0.398512193	0.447101099	0.005599193	0.057765844	0.017803994
2020-09-20T08:25:00	0.1760	10.169	198.0	0.394760547	0.441108034	0.005489415	0.056633288	0.017454929
2020-09-20T08:30:00	0.1761	10.205	198.0	0.394916282	0.441356051	0.005493946	0.056680032	0.017469336
2020-09-20T08:35:00	0.1763	10.242	198.0	0.395630637	0.442494552	0.005514759	0.056894749	0.017535514
2020-09-20T08:40:00	0.1766	10.282	199.0	0.396344662	0.443633910	0.005535609	0.057109855	0.017601812
2020-09-20T08:45:00	0.1760	10.320	199.0	0.394824666	0.441210139	0.005491281	0.056652530	0.017460860
2020-09-20T08:50:00	0.1760	10.368	199.0	0.394700983	0.441013192	0.005487683	0.056615415	0.017449421
2020-09-20T08:55:00	0.1762	10.405	199.0	0.395136107	0.441706248	0.005500346	0.056746054	0.017489685
2020-09-20T09:00:00	0.1758	10.452	199.0	0.394174082	0.440174641	0.005472373	0.056457465	0.017400739
2020-09-20T09:05:00	0.1756	10.494	199.0	0.393491136	0.439088871	0.005452567	0.056253132	0.017337762
2020-09-20T09:10:00	0.1759	10.544	199.0	0.394485654	0.440670410	0.005481423	0.056550834	0.017429516
2020-09-20T09:15:00	0.1756	10.592	200.0	0.393523222	0.439139854	0.005453497	0.056262722	0.017340717
2020-09-20T09:20:00	0.1757	10.645	200.0	0.393958679	0.439832050	0.005466122	0.056392970	0.017380861
2020-09-20T09:25:00	0.1755	10.694	200.0	0.393275638	0.438746527	0.005446327	0.056188749	0.017317918
2020-09-20T09:30:00	0.1756	10.744	201.0	0.393711165	0.439438542	0.005458944	0.056318915	0.017358036
2020-09-20T09:35:00	0.1754	10.801	201.0	0.393028013	0.438353302	0.005439161	0.056114823	0.017295133
2020-09-20T09:40:00	0.1753	10.857	201.0	0.392624397	0.437712721	0.005427494	0.055994453	0.017258034
2020-09-20T09:45:00	0.1753	10.917	201.0	0.392780349	0.437960181	0.005432000	0.056040944	0.017272363
2020-09-20T09:50:00	0.1748	10.965	201.0	0.391256819	0.435545515	0.005388073	0.055587755	0.017132686
2020-09-20T09:55:00	0.1745	11.027	202.0	0.390572571	0.434463085	0.005368414	0.055384940	0.017070176
2020-09-20T10:00:00	0.1744	11.091	202.0	0.390168306	0.433824164	0.005356820	0.055265323	0.017033309
2020-09-20T10:05:00	0.1742	11.149	202.0	0.389726752	0.433126814	0.005344173	0.055134850	0.016993096
2020-09-20T10:10:00	0.1736	11.215	203.0	0.387882288	0.430219540	0.005291540	0.054591841	0.016825736
2020-09-20T10:15:00	0.1732	11.286	203.0	0.386878431	0.428641105	0.005263025	0.054297663	0.016735067
2020-09-20T10:20:00	0.1734	11.358	203.0	0.387559318	0.429711413	0.005282356	0.054497091	0.016796533
2020-09-20T10:25:00	0.1735	11.421	204.0	0.387678556	0.429898977	0.005285745	0.054532061	0.016807311
2020-09-20T10:30:00	0.1728	11.486	204.0	0.385831601	0.426997999	0.005233389	0.053991909	0.016640831
2020-09-20T10:35:00	0.1728	11.539	204.0	0.385669905	0.426744465	0.005228820	0.053944774	0.016626303
2020-09-20T10:40:00	0.1726	11.586	204.0	0.385227040	0.426050427	0.005216319	0.053815803	0.016586553
2020-09-20T10:45:00	0.1722	11.628	205.0	0.383940027	0.424036477	0.005180092	0.053442052	0.016471359
2020-09-20T10:50:00	0.1729	11.673	205.0	0.386028038	0.427306102	0.005238943	0.054049205	0.016658490
2020-09-20T10:55:00	0.1716	11.707	205.0	0.382489876	0.421772592	0.005139454	0.053022797	0.016342141
2020-09-20T11:00:00	0.1708	11.753	205.0	0.380072367	0.418011103	0.005072133	0.052328264	0.016128079
2020-09-20T11:05:00	0.1703	11.787	205.0	0.378780925	0.416008136	0.005036388	0.051959489	0.016014419
2020-09-20T11:10:00	0.1703	11.820	205.0	0.378618468	0.415756491	0.005031902	0.051913210	0.016000155
2020-09-20T11:15:00	0.1702	11.854	206.0	0.378455994	0.415504889	0.005027418	0.051866950	0.015985898
2020-09-20T11:20:00	0.1699	11.883	206.0	0.377445819	0.413942155	0.004999594	0.051579886	0.015897422
2020-09-20T11:25:00	0.1703	11.913	206.0	0.378695908	0.415876437	0.005034040	0.051935267	0.016006954
2020-09-20T11:30:00	0.1695	11.943	206.0	0.376555083	0.412566461	0.004975135	0.051327555	0.015819651
2020-09-20T11:35:00	0.1692	11.973	206.0	0.375543616	0.411006881	0.004947449	0.051041919	0.015731615
2020-09-20T11:40:00	0.1690	12.000	206.0	0.375097744	0.410320261	0.004935274	0.050916309	0.015692901
2020-09-20T11:45:00	0.1685	12.029	207.0	0.373518608	0.407892751	0.004892297	0.050472924	0.015556245
2020-09-20T11:50:00	0.1673	12.059	206.0	0.370234627	0.402865817	0.004803640	0.049558264	0.015274338
2020-09-20T11:55:00	0.1672	12.087	207.0	0.369787146	0.402183067	0.004791634	0.049434404	0.015236163
2020-09-20T12:00:00	0.1668	12.115	207.0	0.368771025	0.400634684	0.004764438	0.049153832	0.015149688
2020-09-20T12:05:00	0.1662	12.143	207.0	0.367185076	0.398223483	0.004722176	0.048717821	0.015015306
2020-09-20T12:10:00	0.1666	12.168	207.0	0.368159486	0.399704137	0.004748116	0.048985433	0.015097786
2020-09-20T12:15:00	0.1662	12.193	207.0	0.367142233	0.398158439	0.004721038	0.048706075	0.015011685
2020-09-20T12:20:00	0.1665	12.218	207.0	0.367832209	0.399206545	0.004739394	0.048895452	0.015070053
2020-09-20T12:25:00	0.1663	12.243	207.0	0.367383994	0.398525541	0.004727465	0.048772381	0.015032122
2020-09-20T12:30:00	0.1659	12.267	207.0	0.366081396	0.396549448	0.004692898	0.048415762	0.014922208
2020-09-20T12:35:00	0.1657	12.292	207.0	0.365632642	0.395869715	0.004681024	0.048293265	0.014884453
2020-09-20T12:40:00	0.1657	12.316	207.0	0.365753653	0.396052958	0.004684224	0.048326279	0.014894628
2020-09-20T12:45:00	0.1652	12.340	208.0	0.364164415	0.393649510	0.004642302	0.047893771	0.014761325
2020-09-20T12:50:00	0.1646	12.364	208.0	0.362573436	0.391250140	0.004600558	0.047463104	0.014628590
2020-09-20T12:55:00	0.1644	12.387	208.0	0.361837957	0.390143226	0.004581336	0.047264797	0.014567469
2020-09-20T13:00:00	0.1638	12.408	208.0	0.360244414	0.387749815	0.004539853	0.046836822	0.014435563
2020-09-20T13:05:00	0.1638	12.429	208.0	0.360365876	0.387932008	0.004543007	0.046869361	0.014445592
2020-09-20T13:10:00	0.1642	12.450	208.0	0.361344873	0.389401924	0.004568476	0.047132123	0.014526578
2020-09-20T13:15:00	0.1641	12.469	209.0	0.361180474	0.389154910	0.004564193	0.047087938	0.014512960
2020-09-20T13:20:00	0.1640	12.488	209.0	0.360730200	0.388478726	0.004552475	0.046967043	0.014475699
2020-09-20T13:25:00	0.1635	12.505	209.0	0.359421604	0.386516633	0.004518521	0.046616746	0.014367734
2020-09-20T13:30:00	0.1636	12.521	209.0	0.359543135	0.386698665	0.004521668	0.046649213	0.014377740
2020-09-20T13:35:00	0.1632	12.538	209.0	0.358519813	0.385167132	0.004495210	0.046376251	0.014293611
2020-09-20T13:40:00	0.1628	12.552	209.0	0.357495760	0.383637276	0.004468825	0.046104046	0.014209715
2020-09-20T13:45:00	0.1625	12.565	209.0	0.356470974	0.382109096	0.004442514	0.045832597	0.014126052
2020-09-20T13:50:00	0.1620	12.577	209.0	0.355158485	0.380155931	0.004408950	0.045486328	0.014019328
2020-09-20T13:55:00	0.1608	12.588	209.0	0.351544822	0.374801736	0.004317318	0.044540974	0.013727961
2020-09-20T14:00:00	0.1600	12.597	209.0	0.349363521	0.371586412	0.004262557	0.043976012	0.013553834
2020-09-20T14:05:00	0.1600	12.607	209.0	0.349197736	0.371342549	0.004258412	0.043933247	0.013540654
2020-09-20T14:10:00	0.1594	12.616	209.0	0.347589991	0.368981355	0.004218337	0.043519802	0.013413226
2020-09-20T14:15:00	0.1599	12.625	209.0	0.349154352	0.371278745	0.004257327	0.043922061	0.013537206
2020-09-20T14:20:00	0.1606	12.631	210.0	0.351004849	0.374004631	0.004303724	0.044400722	0.013684734
2020-09-20T14:25:00	0.1605	12.638	210.0	0.350839256	0.373760338	0.004299560	0.044357764	0.013671494
2020-09-20T14:30:00	0.1604	12.645	209.0	0.350385709	0.373091603	0.004288167	0.044240230	0.013635269
2020-09-20T14:35:00	0.1603	12.649	209.0	0.350220044	0.372847472	0.004284010	0.044197345	0.013622051
2020-09-20T14:40:00	0.1600	12.653	210.0	0.349190000	0.371331170	0.004258218	0.043931252	0.013540039
2020-09-20T14:45:00	0.1598	12.655	209.0	0.348735922	0.370663619	0.004246877	0.043814252	0.013503978
2020-09-20T14:50:00	0.1595	12.659	210.0	0.347993275	0.369572997	0.004228368	0.043623293	0.013445123
2020-09-20T14:55:00	0.1597	12.664	209.0	0.348404185	0.370176265	0.004238603	0.043728890	0.013477669
2020-09-20T15:00:00	0.1595	12.664	209.0	0.347949855	0.369509276	0.004227287	0.043612143	0.013441686
2020-09-20T15:05:00	0.1590	12.663	209.0	0.346340682	0.367151248	0.004187351	0.043200124	0.013314698
2020-09-20T15:10:00	0.1591	12.664	209.0	0.346752075	0.367753445	0.004197539	0.043305239	0.013347095
2020-09-20T15:15:00	0.1588	12.663	209.0	0.345719489	0.366242783	0.004171994	0.043041688	0.013265866
2020-09-20T15:20:00	0.1594	12.662	208.0	0.347574500	0.368958638	0.004217952	0.043515829	0.013412001
2020-09-20T15:25:00	0.1590	12.660	209.0	0.346542518	0.367446640	0.004192347	0.043251676	0.013330587
2020-09-20T15:30:00	0.1590	12.657	210.0	0.346376401	0.367203515	0.004188235	0.043209244	0.013317509
2020-09-20T15:35:00	0.1592	12.655	209.0	0.347076454	0.368228583	0.004205583	0.043388228	0.013372673
2020-09-20T15:40:00	0.1595	12.651	210.0	0.347776159	0.369254422	0.004222966	0.043567558	0.013427945
2020-09-20T15:45:00	0.1588	12.648	210.0	0.345877930	0.366474399	0.004175907	0.043082066	0.013278311
2020-09-20T15:50:00	0.1590	12.644	210.0	0.346578232	0.367498918	0.004193232	0.043260802	0.013333399
2020-09-20T15:55:00	0.1593	12.640	209.0	0.347278185	0.368524209	0.004210590	0.043439885	0.013388595
2020-09-20T16:00:00	0.1593	12.634	210.0	0.347400758	0.368703886	0.004213635	0.043471291	0.013398274
2020-09-20T16:05:00	0.1585	12.629	209.0	0.344885629	0.365024890	0.004151431	0.042829551	0.013200484
2020-09-20T16:10:00	0.1591	12.622	209.0	0.346703450	0.367682243	0.004196334	0.043292807	0.013343264
2020-09-20T16:15:00	0.1593	12.616	209.0	0.347365066	0.368651562	0.004212748	0.043462144	0.013395455
2020-09-20T16:20:00	0.1590	12.609	209.0	0.346294627	0.367083859	0.004186211	0.043188366	0.013311074
2020-09-20T16:25:00	0.1591	12.601	209.0	0.346667740	0.367629958	0.004195449	0.043283678	0.013340450
2020-09-20T16:30:00	0.1593	12.594	210.0	0.347329373	0.368599239	0.004211862	0.043452999	0.013392636
2020-09-20T16:35:00	0.1595	12.584	209.0	0.347990694	0.369569209	0.004228304	0.043622630	0.013444918
2020-09-20T16:40:00	0.1600	12.575	209.0	0.349228224	0.371387391	0.004259174	0.043941110	0.013543077
2020-09-20T16:45:00	0.1603	12.564	209.0	0.350176692	0.372783599	0.004282923	0.044186127	0.013618593
2020-09-20T16:50:00	0.1611	12.555	209.0	0.352562864	0.376306646	0.004343017	0.044806110	0.013809678
2020-09-20T16:55:00	0.1608	12.543	209.0	0.351496361	0.374730167	0.004316097	0.044528376	0.013724078
2020-09-20T17:00:00	0.1616	12.531	209.0	0.353880316	0.378258201	0.004376409	0.045150608	0.013915856
2020-09-20T17:05:00	0.1626	12.519	209.0	0.356833723	0.382649717	0.004451817	0.045928575	0.014155633
2020-09-20T17:10:00	0.1627	12.505	209.0	0.357204073	0.383202024	0.004461327	0.046026686	0.014185872
2020-09-20T17:15:00	0.1629	12.490	207.0	0.357574327	0.383754551	0.004470846	0.046124896	0.014216141
2020-09-20T17:20:00	0.1635	12.472	208.0	0.359375971	0.386448292	0.004517339	0.046604558	0.014363977
2020-09-20T17:25:00	0.1633	12.457	209.0	0.358887166	0.385716604	0.004504697	0.046474130	0.014323778
2020-09-20T17:30:00	0.1640	12.440	210.0	0.360687166	0.388414129	0.004551356	0.046955499	0.014472141
2020-09-20T17:35:00	0.1647	12.421	210.0	0.362770431	0.391546867	0.004605714	0.047516304	0.014644986
2020-09-20T17:40:00	0.1654	12.404	209.0	0.364850702	0.394686579	0.004660378	0.048080259	0.014818803
2020-09-20T17:45:00	0.1660	12.387	209.0	0.366643305	0.397401333	0.004707791	0.048569407	0.014969563
2020-09-20T17:50:00	0.1662	12.368	209.0	0.367011150	0.397959460	0.004717555	0.048670146	0.015000612
2020-09-20T17:55:00	0.1664	12.349	208.0	0.367663452	0.398950078	0.004734900	0.048849093	0.015055765
2020-09-20T18:00:00	0.1669	12.329	208.0	0.369168402	0.401239887	0.004775063	0.049263443	0.015183472
2020-09-20T18:05:00	0.1673	12.311	208.0	0.370103820	0.402666182	0.004800128	0.049522039	0.015263173
2020-09-20T18:10:00	0.1675	12.291	208.0	0.370754746	0.403660069	0.004817617	0.049702464	0.015318782
2020-09-20T18:15:00	0.1681	12.271	208.0	0.372540137	0.406391952	0.004865780	0.050199353	0.015471928
2020-09-20T18:20:00	0.1694	12.251	208.0	0.376021815	0.411743873	0.004960527	0.051176842	0.015773200
2020-09-20T18:25:00	0.1697	12.230	208.0	0.376952900	0.413180605	0.004986050	0.051440159	0.015854356
2020-09-20T18:30:00	0.1702	12.208	207.0	0.378448412	0.415493150	0.005027209	0.051864792	0.015985233
2020-09-20T18:35:00	0.1702	12.188	208.0	0.378530915	0.415620901	0.005029486	0.051888278	0.015992471
2020-09-20T18:40:00	0.1703	12.168	207.0	0.378613414	0.415748663	0.005031763	0.051911770	0.015999712
2020-09-20T18:45:00	0.1708	12.147	207.0	0.380107263	0.418065287	0.005073101	0.052338250	0.016131157
2020-09-20T18:50:00	0.1704	12.127	207.0	0.379060760	0.416441768	0.005044121	0.052039264	0.016039007
2020-09-20T18:55:00	0.1704	12.104	207.0	0.378860883	0.416132018	0.005038597	0.051982276	0.016021442
2020-09-20T19:00:00	0.1702	12.082	207.0	0.378378541	0.415384973	0.005025282	0.051844906	0.015979104
2020-09-20T19:05:00	0.1698	12.059	207.0	0.377330825	0.413764432	0.004996432	0.051547269	0.015887369
2020-09-20T19:10:00	0.1694	12.038	207.0	0.376282370	0.412145695	0.004967661	0.051250447	0.015795886
2020-09-20T19:15:00	0.1690	12.016	207.0	0.374950084	0.410092990	0.004931246	0.050874751	0.015680092
2020-09-20T19:20:00	0.1684	11.993	207.0	0.373333200	0.407608172	0.004887265	0.050421017	0.015540247
2020-09-20T19:25:00	0.1684	11.971	207.0	0.373415988	0.407735230	0.004889512	0.050444190	0.015547389
2020-09-20T19:30:00	0.1692	11.950	207.0	0.375481206	0.410910741	0.004945744	0.051024326	0.015726193
2020-09-20T19:35:00	0.1699	11.929	207.0	0.377543551	0.414093226	0.005002282	0.051607617	0.015905969
2020-09-20T19:40:00	0.1695	11.911	207.0	0.376495246	0.412474122	0.004973495	0.051310630	0.015814435
2020-09-20T19:45:00	0.1688	11.889	207.0	0.374596891	0.409549609	0.004921618	0.050775430	0.015649481
2020-09-20T19:50:00	0.1686	11.869	207.0	0.373829859	0.408370691	0.004900750	0.050560132	0.015583124
2020-09-20T19:55:00	0.1681	11.849	206.0	0.372495362	0.406323337	0.004864568	0.050186856	0.015468076
2020-09-20T20:00:00	0.1679	11.828	206.0	0.372010945	0.405581331	0.004851474	0.050051767	0.015426441
2020-09-20T20:05:00	0.1679	11.808	206.0	0.371810115	0.405273894	0.004846052	0.049995825	0.015409199
2020-09-20T20:10:00	0.1678	11.787	206.0	0.371609258	0.404966523	0.004840633	0.049939913	0.015391966
2020-09-20T20:15:00	0.1678	11.763	206.0	0.371692143	0.405093349	0.004842868	0.049962981	0.015399076
2020-09-20T20:20:00	0.1680	11.745	206.0	0.372058722	0.405654486	0.004852765	0.050065081	0.015430544
2020-09-20T20:25:00	0.1681	11.727	206.0	0.372425210	0.406215843	0.004862671	0.050167280	0.015462043
2020-09-20T20:30:00	0.1669	11.710	205.0	0.369101086	0.401137335	0.004773262	0.049244864	0.015177745
2020-09-20T20:35:00	0.1674	11.697	205.0	0.370604560	0.403430653	0.004813578	0.049660800	0.015305941
2020-09-20T20:40:00	0.1674	11.679	205.0	0.370403539	0.403123676	0.004808176	0.049605066	0.015288763
2020-09-20T20:45:00	0.1672	11.659	205.0	0.369918432	0.402383322	0.004795154	0.049470724	0.015247358
2020-09-20T20:50:00	0.1670	11.640	205.0	0.369433164	0.401643351	0.004782149	0.049336554	0.015206005
2020-09-20T20:55:00	0.1674	11.618	205.0	0.370368413	0.403070048	0.004807233	0.049595332	0.015285763
2020-09-20T21:00:00	0.1684	11.597	204.0	0.373288449	0.407539499	0.004886052	0.050408494	0.015536387
2020-09-20T21:05:00	0.1682	11.579	205.0	0.372804292	0.406796867	0.004872930	0.050273121	0.015494664
2020-09-20T21:10:00	0.1681	11.563	204.0	0.372603571	0.406489170	0.004867496	0.050217062	0.015477386
2020-09-20T21:15:00	0.1681	11.542	205.0	0.372402822	0.406181539	0.004862065	0.050161033	0.015460117
2020-09-20T21:20:00	0.1673	11.526	205.0	0.370215196	0.402836160	0.004803118	0.049552882	0.015272680
2020-09-20T21:25:00	0.1681	11.510	205.0	0.372568498	0.406435416	0.004866547	0.050207270	0.015474368
2020-09-20T21:30:00	0.1673	11.494	205.0	0.370097096	0.402655921	0.004799948	0.049520177	0.015262599
2020-09-20T21:35:00	0.1679	11.478	205.0	0.371883285	0.405385892	0.004848027	0.050016203	0.015415479
2020-09-20T21:40:00	0.1678	11.458	205.0	0.371682437	0.405078497	0.004842607	0.049960280	0.015398243
2020-09-20T21:45:00	0.1680	11.443	205.0	0.372049019	0.405639629	0.004852503	0.050062377	0.015429711
2020-09-20T21:50:00	0.1680	11.426	204.0	0.372131879	0.405766514	0.004854741	0.050085472	0.015436829
2020-09-20T21:55:00	0.1674	11.406	205.0	0.370511901	0.403289141	0.004811088	0.049635105	0.015298022
2020-09-20T22:00:00	0.1677	11.390	204.0	0.371446463	0.404717478	0.004836243	0.049894624	0.015378008
2020-09-20T22:05:00	0.1677	11.372	204.0	0.371243017	0.404406342	0.004830760	0.049838060	0.015360574
2020-09-20T22:10:00	0.1677	11.357	204.0	0.371323383	0.404529235	0.004832925	0.049860400	0.015367459
2020-09-20T22:15:00	0.1681	11.341	204.0	0.372538499	0.406389441	0.004865736	0.050198896	0.015471787
2020-09-20T22:20:00	0.1679	11.323	203.0	0.371767857	0.405209218	0.004844912	0.049984059	0.015405572
2020-09-20T22:25:00	0.1679	11.308	204.0	0.371848195	0.405332179	0.004847080	0.050006430	0.015412467
2020-09-20T22:30:00	0.1676	11.291	204.0	0.371077191	0.404152823	0.004826294	0.049791985	0.015346373
2020-09-20T22:35:00	0.1673	11.274	203.0	0.370305784	0.402974436	0.004805550	0.049577977	0.015280414
2020-09-20T22:40:00	0.1676	11.257	203.0	0.370954080	0.403964655	0.004822980	0.049757794	0.015335835
2020-09-20T22:45:00	0.1672	11.242	203.0	0.369898546	0.402352988	0.004794621	0.049465222	0.015245662
2020-09-20T22:50:00	0.1672	11.227	203.0	0.369978986	0.402475704	0.004796779	0.049487482	0.015252522
2020-09-20T22:55:00	0.1677	11.212	203.0	0.371479024	0.404767283	0.004837121	0.049903681	0.015380799
2020-09-20T23:00:00	0.1674	11.199	203.0	0.370423867	0.403154715	0.004808722	0.049610701	0.015290500
2020-09-20T23:05:00	0.1680	11.185	203.0	0.372207121	0.405881748	0.004856775	0.050106448	0.015443294
2020-09-20T23:10:00	0.1676	11.167	203.0	0.371152487	0.404267929	0.004828322	0.049812903	0.015352820
2020-09-20T23:15:00	0.1680	11.149	203.0	0.372084104	0.405693353	0.004853451	0.050072155	0.015432724
2020-09-20T23:20:00	0.1684	11.135	203.0	0.373298594	0.407555066	0.004886327	0.050411332	0.015537262
2020-09-20T23:25:00	0.1681	11.120	202.0	0.372528349	0.406373887	0.004865461	0.050196063	0.015470914
2020-09-20T23:30:00	0.1680	11.104	203.0	0.372325052	0.406062393	0.004859962	0.050139337	0.015453431
2020-09-20T23:35:00	0.1679	11.090	203.0	0.371838040	0.405316636	0.004846806	0.050003602	0.015411596
2020-09-20T23:40:00	0.1677	11.074	202.0	0.371350867	0.404571267	0.004833666	0.049868041	0.015369815
2020-09-20T23:45:00	0.1676	11.055	202.0	0.371147407	0.404260163	0.004828185	0.049811492	0.015352385
2020-09-20T23:50:00	0.1676	11.038	202.0	0.370943920	0.403949126	0.004822706	0.049754972	0.015334966
2020-09-20T23:55:00	0.1680	11.020	202.0	0.372159349	0.405808582	0.004855484	0.050093129	0.015439189
2020-09-21T00:00:00	0.1678	11.007	202.0	0.371672282	0.405062957	0.004842333	0.049957453	0.015397372
2020-09-21T00:05:00	0.1683	10.990	202.0	0.373170595	0.407358669	0.004882856	0.050375521	0.015526225
2020-09-21T00:10:00	0.1686	10.974	202.0	0.373817632	0.408351912	0.004900418	0.050556705	0.015582067
2020-09-21T00:15:00	0.1690	10.960	202.0	0.375030698	0.410217060	0.004933444	0.050897436	0.015687084
2020-09-21T00:20:00	0.1694	10.947	202.0	0.376242770	0.412084614	0.004966577	0.051239257	0.015792437
2020-09-21T00:25:00	0.1694	10.936	202.0	0.376039983	0.411771887	0.004961024	0.051181973	0.015774781
2020-09-21T00:30:00	0.1690	10.923	202.0	0.374988083	0.410151470	0.004932282	0.050885443	0.015683388
2020-09-21T00:35:00	0.1685	10.907	202.0	0.373652096	0.408097697	0.004895921	0.050510314	0.015567769
2020-09-21T00:40:00	0.1683	10.897	202.0	0.373165523	0.407350886	0.004882718	0.050374102	0.015525788
2020-09-21T00:45:00	0.1678	10.885	202.0	0.371544142	0.404866900	0.004838876	0.049921795	0.015386382
2020-09-21T00:50:00	0.1672	10.874	202.0	0.369920974	0.402387200	0.004795223	0.049471427	0.015247574
2020-09-21T00:55:00	0.1671	10.862	202.0	0.369717316	0.402076570	0.004789762	0.049415092	0.015230211
2020-09-21T01:00:00	0.1666	10.846	202.0	0.368092123	0.399601695	0.004746320	0.048966904	0.015092075
2020-09-21T01:05:00	0.1664	10.829	201.0	0.367603704	0.398859294	0.004733310	0.048832686	0.015050708
2020-09-21T01:10:00	0.1660	10.819	201.0	0.366545750	0.397253375	0.004705203	0.048542712	0.014961335
2020-09-21T01:15:00	0.1658	10.809	201.0	0.366056813	0.396512198	0.004692247	0.048409046	0.014920138
2020-09-21T01:20:00	0.1662	10.797	201.0	0.366991676	0.397929905	0.004717038	0.048664810	0.014998967
2020-09-21T01:25:00	0.1668	10.784	201.0	0.368779107	0.400646989	0.004764654	0.049156060	0.015150375
2020-09-21T01:30:00	0.1672	10.773	201.0	0.369996328	0.402502164	0.004797244	0.049492281	0.015254002
2020-09-21T01:35:00	0.1666	10.764	201.0	0.368087033	0.399593954	0.004746184	0.048965504	0.015091644
2020-09-21T01:40:00	0.1664	10.752	201.0	0.367598612	0.398851558	0.004733174	0.048831288	0.015050277
2020-09-21T01:45:00	0.1660	10.740	201.0	0.366540655	0.397245647	0.004705068	0.048541318	0.014960905
2020-09-21T01:50:00	0.1657	10.728	201.0	0.365766850	0.396072946	0.004684573	0.048329880	0.014895738
2020-09-21T01:55:00	0.1658	10.715	201.0	0.365847518	0.396195123	0.004686707	0.048351896	0.014902524
2020-09-21T02:00:00	0.1663	10.701	201.0	0.367351794	0.398476638	0.004726608	0.048763547	0.015029399
2020-09-21T02:05:00	0.1666	10.687	200.0	0.368285828	0.399896303	0.004751485	0.049020196	0.015108500
2020-09-21T02:10:00	0.1667	10.676	200.0	0.368366356	0.400018809	0.004753633	0.049042360	0.015115332
2020-09-21T02:15:00	0.1661	10.665	200.0	0.366739661	0.397547498	0.004710347	0.048595784	0.014977692
2020-09-21T02:20:00	0.1665	10.654	200.0	0.367958579	0.399398645	0.004742760	0.048930185	0.015080758
2020-09-21T02:25:00	0.1660	10.642	201.0	0.366616184	0.397360197	0.004707071	0.048561985	0.014967275
2020-09-21T02:30:00	0.1657	10.630	200.0	0.365557513	0.395755969	0.004679038	0.048272775	0.014878138
2020-09-21T02:35:00	0.1651	10.619	201.0	0.363927676	0.393292057	0.004636076	0.047829541	0.014741529
2020-09-21T02:40:00	0.1652	10.604	201.0	0.364293656	0.393844714	0.004645703	0.047928857	0.014772139
2020-09-21T02:45:00	0.1653	10.594	200.0	0.364374405	0.393966699	0.004647828	0.047950786	0.014778898
2020-09-21T02:50:00	0.1655	10.581	201.0	0.365025339	0.394950677	0.004664984	0.048127782	0.014833450
2020-09-21T02:55:00	0.1657	10.569	200.0	0.365675981	0.395935338	0.004682170	0.048305087	0.014888097
2020-09-21T03:00:00	0.1658	10.557	201.0	0.366041521	0.396489027	0.004691842	0.048404869	0.014918851
2020-09-21T03:05:00	0.1661	10.547	200.0	0.366691709	0.397474756	0.004709075	0.048582656	0.014973647
2020-09-21T03:10:00	0.1665	10.538	201.0	0.367910668	0.399325808	0.004741484	0.048917015	0.015076699
2020-09-21T03:15:00	0.1654	10.530	199.0	0.364858807	0.394698833	0.004660592	0.048082463	0.014819482
2020-09-21T03:20:00	0.1652	10.521	200.0	0.364084107	0.393528235	0.004640189	0.047871976	0.014754608
2020-09-21T03:25:00	0.1652	10.505	200.0	0.364164868	0.393650193	0.004642314	0.047893894	0.014761363
2020-09-21T03:30:00	0.1648	10.496	200.0	0.363104409	0.392050159	0.004614464	0.047606578	0.014672810
2020-09-21T03:35:00	0.1648	10.483	200.0	0.363185224	0.392171990	0.004616583	0.047628437	0.014679547
2020-09-21T03:40:00	0.1640	10.476	200.0	0.360695293	0.388426329	0.004551567	0.046957679	0.014472813
2020-09-21T03:45:00	0.1642	10.466	200.0	0.361347883	0.389406447	0.004568554	0.047132932	0.014526827
2020-09-21T03:50:00	0.1645	10.456	199.0	0.362285784	0.390817046	0.004593034	0.047385486	0.014604667
2020-09-21T03:55:00	0.1644	10.447	200.0	0.362081055	0.390508936	0.004587684	0.047330289	0.014587655
2020-09-21T04:00:00	0.1651	10.436	199.0	0.363874527	0.393211827	0.004634679	0.047815128	0.014737087
2020-09-21T04:05:00	0.1646	10.429	199.0	0.362485374	0.391117529	0.004598254	0.047439334	0.014621263
2020-09-21T04:10:00	0.1639	10.418	199.0	0.360523145	0.388167969	0.004547092	0.046911513	0.014458584
2020-09-21T04:15:00	0.1644	10.408	199.0	0.361989955	0.390371869	0.004585304	0.047305740	0.014580088
2020-09-21T04:20:00	0.1642	10.399	200.0	0.361456469	0.389569640	0.004571384	0.047162131	0.014535827
2020-09-21T04:25:00	0.1643	10.391	199.0	0.361780072	0.390056168	0.004579825	0.047249210	0.014562666
2020-09-21T04:30:00	0.1649	10.379	199.0	0.363245607	0.392263028	0.004618167	0.047644774	0.014684582
2020-09-21T04:35:00	0.1645	10.371	199.0	0.362141484	0.390599868	0.004589263	0.047346577	0.014592675
2020-09-21T04:40:00	0.1642	10.361	199.0	0.361322314	0.389368023	0.004567888	0.047126058	0.014524709
2020-09-21T04:45:00	0.1646	10.348	199.0	0.362502806	0.391143777	0.004598710	0.047444039	0.014622714
2020-09-21T04:50:00	0.1649	10.338	199.0	0.363397004	0.392491333	0.004622138	0.047685749	0.014697211
2020-09-21T04:55:00	0.1657	10.326	199.0	0.365715866	0.395995735	0.004683225	0.048315968	0.014891451
2020-09-21T05:00:00	0.1661	10.320	199.0	0.366892790	0.397779836	0.004714412	0.048637719	0.014990617
2020-09-21T05:05:00	0.1664	10.313	201.0	0.367784294	0.399133719	0.004738118	0.048882287	0.015065996
2020-09-21T05:10:00	0.1670	10.304	199.0	0.369243796	0.401354758	0.004777080	0.049284255	0.015189886
2020-09-21T05:15:00	0.1674	10.300	199.0	0.370417884	0.403145580	0.004808562	0.049609043	0.015289989
2020-09-21T05:20:00	0.1677	10.293	199.0	0.371307246	0.404504557	0.004832491	0.049855914	0.015366077
2020-09-21T05:25:00	0.1680	10.285	199.0	0.372196070	0.405864822	0.004856476	0.050103367	0.015442344
2020-09-21T05:30:00	0.1680	10.278	199.0	0.372233689	0.405922442	0.004857493	0.050113857	0.015445577
2020-09-21T05:35:00	0.1680	10.274	199.0	0.372271308	0.405980064	0.004858510	0.050124347	0.015448811
2020-09-21T05:40:00	0.1679	10.270	199.0	0.372025275	0.405603272	0.004851861	0.050055760	0.015427671
2020-09-21T05:45:00	0.1681	10.267	199.0	0.372346543	0.406095316	0.004860544	0.050145332	0.015455278
2020-09-21T05:50:00	0.1683	10.261	198.0	0.372951267	0.407022241	0.004876911	0.050314193	0.015507323
2020-09-21T05:55:00	0.1684	10.259	199.0	0.373272333	0.407514769	0.004885614	0.050403984	0.015534997
2020-09-21T06:00:00	0.1689	10.256	199.0	0.374726402	0.409748820	0.004925147	0.050811836	0.015660701
2020-09-21T06:05:00	0.1692	10.257	199.0	0.375613171	0.411114041	0.004949350	0.051061531	0.015737660
2020-09-21T06:10:00	0.1698	10.254	199.0	0.377347633	0.413790407	0.004996894	0.051552035	0.015888838
2020-09-21T06:15:00	0.1698	10.251	198.0	0.377385122	0.413848343	0.004997925	0.051562668	0.015892115
2020-09-21T06:20:00	0.1703	10.249	198.0	0.378835169	0.416092177	0.005037887	0.051974947	0.016019183
2020-09-21T06:25:00	0.1708	10.250	199.0	0.380001677	0.417901351	0.005070173	0.052308038	0.016121845
2020-09-21T06:30:00	0.1714	10.254	199.0	0.381731046	0.420590210	0.005118265	0.052804199	0.016274767
2020-09-21T06:35:00	0.1714	10.258	199.0	0.381768425	0.420648417	0.005119308	0.052814954	0.016278082
2020-09-21T06:40:00	0.1721	10.265	199.0	0.383777236	0.423782056	0.005175520	0.053394888	0.016456823
2020-09-21T06:45:00	0.1724	10.272	199.0	0.384658653	0.425160451	0.005200301	0.053650550	0.016535620
2020-09-21T06:50:00	0.1723	10.281	199.0	0.384414656	0.424778669	0.005193434	0.053579703	0.016513785
2020-09-21T06:55:00	0.1722	10.291	199.0	0.384170620	0.424396987	0.005186571	0.053508902	0.016491963
2020-09-21T07:00:00	0.1725	10.301	199.0	0.384770570	0.425335621	0.005203453	0.053683064	0.016545642
2020-09-21T07:05:00	0.1727	10.312	199.0	0.385370282	0.426274851	0.005220361	0.053857498	0.016599404
2020-09-21T07:10:00	0.1731	10.326	199.0	0.386531732	0.428096598	0.005253199	0.054196286	0.016703822
2020-09-21T07:15:00	0.1734	10.338	199.0	0.387411545	0.429479018	0.005278157	0.054453772	0.016783181
2020-09-21T07:20:00	0.1735	10.352	199.0	0.387729523	0.429979161	0.005287195	0.054547012	0.016811919
2020-09-21T07:25:00	0.1733	10.368	199.0	0.387205236	0.429154665	0.005272298	0.054393328	0.016764552
2020-09-21T07:30:00	0.1734	10.387	199.0	0.387523258	0.429654699	0.005281331	0.054486519	0.016793274
2020-09-21T07:35:00	0.1735	10.406	199.0	0.387841213	0.430154901	0.005290371	0.054579786	0.016822020
2020-09-21T07:40:00	0.1732	10.424	199.0	0.386755280	0.428447654	0.005259534	0.054261640	0.016723964
2020-09-21T07:45:00	0.1730	10.444	199.0	0.386230656	0.427624008	0.005244675	0.054108341	0.016676716
2020-09-21T07:50:00	0.1736	10.466	199.0	0.387952895	0.430330662	0.005293549	0.054612568	0.016832124
2020-09-21T07:55:00	0.1739	10.490	199.0	0.388831885	0.431715161	0.005318598	0.054870998	0.016911775
2020-09-21T08:00:00	0.1735	10.514	200.0	0.387746661	0.430006123	0.005287682	0.054552040	0.016813469
2020-09-21T08:05:00	0.1737	10.541	200.0	0.388345195	0.430948317	0.005304720	0.054727817	0.016867645
2020-09-21T08:10:00	0.1737	10.570	200.0	0.388382411	0.431006933	0.005305780	0.054738758	0.016871017
2020-09-21T08:15:00	0.1739	10.599	201.0	0.388700187	0.431507590	0.005314841	0.054832231	0.016899826
2020-09-21T08:20:00	0.1739	10.631	200.0	0.388737394	0.431566228	0.005315902	0.054843182	0.016903201
2020-09-21T08:25:00	0.1738	10.665	200.0	0.388494053	0.431182794	0.005308962	0.054771586	0.016881135
2020-09-21T08:30:00	0.1733	10.700	201.0	0.387127788	0.429032932	0.005270100	0.054370648	0.016757562
2020-09-21T08:35:00	0.1731	10.736	201.0	0.386603292	0.428208961	0.005255226	0.054217201	0.016710268
2020-09-21T08:40:00	0.1727	10.777	200.0	0.385516471	0.426503950	0.005224487	0.053900070	0.016612525
2020-09-21T08:45:00	0.1725	10.815	200.0	0.384991417	0.425681384	0.005209675	0.053747261	0.016565428
2020-09-21T08:50:00	0.1724	10.871	200.0	0.384747474	0.425299468	0.005202802	0.053676353	0.016543573
2020-09-21T08:55:00	0.1728	10.901	202.0	0.385628324	0.426679279	0.005227646	0.053932657	0.016622569
2020-09-21T09:00:00	0.1723	10.936	202.0	0.384259469	0.424535932	0.005189069	0.053534673	0.016499906
2020-09-21T09:05:00	0.1723	10.981	202.0	0.384296785	0.424594295	0.005190119	0.053545499	0.016503243
2020-09-21T09:10:00	0.1728	11.029	202.0	0.385740170	0.426854629	0.005230805	0.053965253	0.016632615
2020-09-21T09:15:00	0.1720	11.080	202.0	0.383527166	0.423391368	0.005168502	0.053322487	0.016434508
2020-09-21T09:20:00	0.1718	11.126	202.0	0.383001418	0.422570534	0.005153767	0.053170463	0.016387653
2020-09-21T09:25:00	0.1713	11.172	202.0	0.381630172	0.420433148	0.005115453	0.052775181	0.016265823
2020-09-21T09:30:00	0.1713	11.219	203.0	0.381385683	0.420052590	0.005108639	0.052704889	0.016244159
2020-09-21T09:35:00	0.1713	11.267	203.0	0.381423071	0.420110776	0.005109681	0.052715635	0.016247471
2020-09-21T09:40:00	0.1705	11.326	203.0	0.379203695	0.416663342	0.005048073	0.052080040	0.016051574
2020-09-21T09:45:00	0.1712	11.378	203.0	0.381215942	0.419788474	0.005103912	0.052656120	0.016229128
2020-09-21T09:50:00	0.1708	11.421	203.0	0.380125222	0.418093174	0.005073599	0.052343390	0.016132741
2020-09-21T09:55:00	0.1710	11.474	204.0	0.380726789	0.419027792	0.005090304	0.052515733	0.016185859
2020-09-21T10:00:00	0.1704	11.531	204.0	0.379071153	0.416457877	0.005044408	0.052042228	0.016039920
2020-09-21T10:05:00	0.1700	11.591	204.0	0.377936335	0.414700638	0.005013093	0.051719158	0.015940347
2020-09-21T10:10:00	0.1702	11.646	205.0	0.378496270	0.415567253	0.005028530	0.051878415	0.015989431
2020-09-21T10:15:00	0.1699	11.706	205.0	0.377643646	0.414247975	0.005005035	0.051636028	0.015914725
2020-09-21T10:20:00	0.1694	11.775	205.0	0.376224893	0.412057039	0.004966087	0.051234205	0.015790880
2020-09-21T10:25:00	0.1698	11.833	206.0	0.377350898	0.413795453	0.004996984	0.051552961	0.015889123
2020-09-21T10:30:00	0.1700	11.897	206.0	0.377911053	0.414661529	0.005012397	0.051711974	0.015938133
2020-09-21T10:35:00	0.1697	11.948	206.0	0.377058093	0.413343072	0.004988938	0.051469959	0.015863541
2020-09-21T10:40:00	0.1696	11.987	206.0	0.376770291	0.412898643	0.004981038	0.051388452	0.015838420
2020-09-21T10:45:00	0.1693	12.028	207.0	0.375916676	0.411581783	0.004957650	0.051147159	0.015764051
2020-09-21T10:50:00	0.1694	12.069	207.0	0.376194519	0.412010194	0.004965255	0.051225623	0.015788235
2020-09-21T10:55:00	0.1693	12.105	207.0	0.375906550	0.411566173	0.004957373	0.051144301	0.015763170
2020-09-21T11:00:00	0.1697	12.143	207.0	0.377032796	0.413303999	0.004988244	0.051462791	0.015861332
2020-09-21T11:05:00	0.1694	12.177	207.0	0.376179332	0.411986771	0.004964839	0.051221332	0.015786912
2020-09-21T11:10:00	0.1691	12.206	207.0	0.375325377	0.410670738	0.004941487	0.050980414	0.015712659
2020-09-21T11:15:00	0.1695	12.241	207.0	0.376452065	0.412407492	0.004972311	0.051298419	0.015810671
2020-09-21T11:20:00	0.1699	12.274	207.0	0.377577898	0.414146325	0.005003226	0.051617365	0.015908973
2020-09-21T11:25:00	0.1698	12.310	208.0	0.377290197	0.413701651	0.004995315	0.051535748	0.015883818
2020-09-21T11:30:00	0.1690	12.341	208.0	0.375022040	0.410203734	0.004933208	0.050895000	0.015686333
2020-09-21T11:35:00	0.1688	12.370	208.0	0.374450657	0.409324728	0.004917636	0.050734341	0.015636817
2020-09-21T11:40:00	0.1688	12.403	208.0	0.374445589	0.409316935	0.004917498	0.050732917	0.015636378
2020-09-21T11:45:00	0.1690	12.430	208.0	0.375006841	0.410180341	0.004932794	0.050890722	0.015685015
2020-09-21T11:50:00	0.1686	12.457	208.0	0.373868913	0.408430679	0.004901811	0.050571081	0.015586498
2020-09-21T11:55:00	0.1683	12.482	208.0	0.373013624	0.407117877	0.004878601	0.050331624	0.015512695
2020-09-21T12:00:00	0.1684	12.509	209.0	0.373292013	0.407544967	0.004886148	0.050409491	0.015536695
2020-09-21T12:05:00	0.1678	12.539	209.0	0.371585346	0.404929938	0.004839988	0.049933260	0.015389916
2020-09-21T12:10:00	0.1672	12.567	210.0	0.369876698	0.402319660	0.004794035	0.049459177	0.015243799
2020-09-21T12:15:00	0.1673	12.592	209.0	0.370155681	0.402745326	0.004801520	0.049536399	0.015267599
2020-09-21T12:20:00	0.1677	12.617	209.0	0.371286319	0.404472556	0.004831927	0.049850096	0.015364284
2020-09-21T12:25:00	0.1677	12.648	209.0	0.371281239	0.404464789	0.004831790	0.049848684	0.015363849
2020-09-21T12:30:00	0.1671	12.674	210.0	0.369572238	0.401855356	0.004785874	0.049374984	0.015217850
2020-09-21T12:35:00	0.1669	12.701	209.0	0.368998736	0.400981436	0.004770525	0.049216625	0.015169042
2020-09-21T12:40:00	0.1659	12.731	209.0	0.366148239	0.396650742	0.004694668	0.048434024	0.014927836
2020-09-21T12:45:00	0.1652	12.761	210.0	0.364148037	0.393624776	0.004641871	0.047889326	0.014759955
2020-09-21T12:50:00	0.1658	12.785	210.0	0.365853197	0.396203725	0.004686858	0.048353447	0.014903002
2020-09-21T12:55:00	0.1652	12.811	210.0	0.364137829	0.393609361	0.004641602	0.047886555	0.014759101
2020-09-21T13:00:00	0.1645	12.835	210.0	0.362134853	0.390589888	0.004589089	0.047344790	0.014592124
2020-09-21T13:05:00	0.1646	12.853	211.0	0.362415322	0.391012053	0.004596421	0.047420430	0.014615437
2020-09-21T13:10:00	0.1639	12.873	211.0	0.360409956	0.387998137	0.004544151	0.046881173	0.014449233
2020-09-21T13:15:00	0.1642	12.895	211.0	0.361262433	0.389278047	0.004566328	0.047109963	0.014519748
2020-09-21T13:20:00	0.1640	12.912	211.0	0.360685644	0.388411845	0.004551316	0.046955091	0.014472015
2020-09-21T13:25:00	0.1648	12.931	211.0	0.362965881	0.391841366	0.004610834	0.047569121	0.014661265
2020-09-21T13:30:00	0.1645	12.952	211.0	0.362104186	0.390543741	0.004588288	0.047336523	0.014589576
2020-09-21T13:35:00	0.1644	12.969	211.0	0.361813432	0.390106339	0.004580696	0.047258193	0.014565434
2020-09-21T13:40:00	0.1639	12.985	211.0	0.360379252	0.387952074	0.004543354	0.046872945	0.014446697
2020-09-21T13:45:00	0.1636	13.010	211.0	0.359516011	0.386658033	0.004520965	0.046641965	0.014375507
2020-09-21T13:50:00	0.1633	13.026	211.0	0.358938521	0.385793448	0.004506024	0.046487823	0.014327998
2020-09-21T13:55:00	0.1635	13.042	211.0	0.359505770	0.386642694	0.004520700	0.046639229	0.014374663
2020-09-21T14:00:00	0.1631	13.051	211.0	0.358355675	0.384921736	0.004490975	0.046332557	0.014280144
2020-09-21T14:05:00	0.1632	13.065	211.0	0.358636880	0.385342198	0.004498232	0.046407430	0.014303221
2020-09-21T14:10:00	0.1630	13.078	212.0	0.358059037	0.384478426	0.004483327	0.046253654	0.014255825
2020-09-21T14:15:00	0.1631	13.089	211.0	0.358340301	0.384898755	0.004490578	0.046328466	0.014278883
2020-09-21T14:20:00	0.1630	13.097	211.0	0.358048786	0.384463110	0.004483062	0.046250929	0.014254985
2020-09-21T14:25:00	0.1624	13.109	212.0	0.356324108	0.381890313	0.004438751	0.045793773	0.014114086
2020-09-21T14:30:00	0.1622	13.117	212.0	0.355745331	0.381028677	0.004423939	0.045640961	0.014066987
2020-09-21T14:35:00	0.1620	13.123	212.0	0.355166319	0.380167575	0.004409150	0.045488390	0.014019964
2020-09-21T14:40:00	0.1622	13.131	211.0	0.355735063	0.381013399	0.004423676	0.045638253	0.014066153
2020-09-21T14:45:00	0.1631	13.136	212.0	0.358309553	0.384852794	0.004489785	0.046320284	0.014276361
2020-09-21T14:50:00	0.1627	13.141	212.0	0.357158498	0.383134039	0.004460156	0.046014606	0.014182149
2020-09-21T14:55:00	0.1624	13.146	212.0	0.356293317	0.381844452	0.004437962	0.045785636	0.014111578
2020-09-21T15:00:00	0.1631	13.148	212.0	0.358294179	0.384829815	0.004489388	0.046316193	0.014275101
2020-09-21T15:05:00	0.1632	13.151	212.0	0.358575397	0.385250249	0.004496645	0.046391053	0.014298173
2020-09-21T15:10:00	0.1639	13.151	212.0	0.360573082	0.388242906	0.004548390	0.046924902	0.014462711
2020-09-21T15:15:00	0.1636	13.150	212.0	0.359709957	0.386948597	0.004525990	0.046693801	0.014391483
2020-09-21T15:20:00	0.1639	13.152	212.0	0.360562849	0.388227549	0.004548124	0.046922158	0.014461865
2020-09-21T15:25:00	0.1637	13.155	212.0	0.359985779	0.387361995	0.004533141	0.046767579	0.014414222
2020-09-21T15:30:00	0.1636	13.156	212.0	0.359694598	0.386925583	0.004525592	0.046689695	0.014390217
2020-09-21T15:35:00	0.1642	13.156	212.0	0.361405009	0.389492297	0.004570043	0.047148292	0.014531561
2020-09-21T15:40:00	0.1639	13.155	212.0	0.360542382	0.388196836	0.004547592	0.046916671	0.014460174
2020-09-21T15:45:00	0.1640	13.156	212.0	0.360823161	0.388618283	0.004554893	0.046991987	0.014483387
2020-09-21T15:50:00	0.1644	13.152	212.0	0.361961064	0.390328405	0.004584550	0.047297956	0.014577689
2020-09-21T15:55:00	0.1639	13.149	212.0	0.360527032	0.388173801	0.004547193	0.046912555	0.014458905
2020-09-21T16:00:00	0.1640	13.147	212.0	0.360807813	0.388595241	0.004554493	0.046987869	0.014482117
2020-09-21T16:05:00	0.1642	13.143	212.0	0.361498250	0.389632441	0.004572474	0.047173368	0.014539290
2020-09-21T16:10:00	0.1643	13.139	212.0	0.361617050	0.389811034	0.004575572	0.047205330	0.014549141
2020-09-21T16:15:00	0.1638	13.134	212.0	0.360306701	0.387843241	0.004541470	0.046853506	0.014440706
2020-09-21T16:20:00	0.1640	13.130	212.0	0.360711516	0.388450680	0.004551989	0.046962031	0.014474154
2020-09-21T16:25:00	0.1636	13.124	212.0	0.359686464	0.386913396	0.004525381	0.046687520	0.014389547
2020-09-21T16:30:00	0.1636	13.118	212.0	0.359519316	0.386662985	0.004521051	0.046642848	0.014375779
2020-09-21T16:35:00	0.1639	13.112	212.0	0.360496330	0.388127733	0.004546396	0.046904325	0.014456368
2020-09-21T16:40:00	0.1642	13.107	212.0	0.361472683	0.389594011	0.004571807	0.047166492	0.014537171
2020-09-21T16:45:00	0.1650	13.101	212.0	0.363590107	0.392782617	0.004627207	0.047738043	0.014713328
2020-09-21T16:50:00	0.1649	13.095	212.0	0.363423410	0.392531159	0.004622831	0.047692898	0.014699414
2020-09-21T16:55:00	0.1653	13.087	212.0	0.364397789	0.394002028	0.004648444	0.047957138	0.014780856
2020-09-21T17:00:00	0.1659	13.079	212.0	0.366226176	0.396768862	0.004696732	0.048455322	0.014934401
2020-09-21T17:05:00	0.1663	13.073	212.0	0.367483265	0.398676325	0.004730105	0.048799623	0.015040518
2020-09-21T17:10:00	0.1665	13.065	212.0	0.367886084	0.399288437	0.004740829	0.048910258	0.015074616
2020-09-21T17:15:00	0.1666	13.056	212.0	0.368288791	0.399900811	0.004751564	0.049021011	0.015108752
2020-09-21T17:20:00	0.1668	13.045	212.0	0.368691388	0.400513449	0.004762311	0.049131883	0.015142924
2020-09-21T17:25:00	0.1664	13.035	211.0	0.367671959	0.398963005	0.004735127	0.048851430	0.015056485
2020-09-21T17:30:00	0.1668	13.024	211.0	0.368643501	0.400440555	0.004761032	0.049118688	0.015138857
2020-09-21T17:35:00	0.1664	13.012	212.0	0.367624039	0.398890191	0.004733851	0.048838270	0.015052429
2020-09-21T17:40:00	0.1658	13.000	211.0	0.366034294	0.396478077	0.004691651	0.048402895	0.014918242
2020-09-21T17:45:00	0.1661	12.987	211.0	0.366722247	0.397521081	0.004709885	0.048591016	0.014976223
2020-09-21T17:50:00	0.1663	12.974	211.0	0.367409876	0.398564851	0.004728153	0.048779483	0.015034310
2020-09-21T17:55:00	0.1662	12.960	211.0	0.366958984	0.397880288	0.004716170	0.048655852	0.014996206
2020-09-21T18:00:00	0.1664	12.948	211.0	0.367646501	0.398924321	0.004734449	0.048844438	0.015054330
2020-09-21T18:05:00	0.1666	12.934	211.0	0.368333694	0.399969119	0.004752762	0.049033370	0.015112561
2020-09-21T18:10:00	0.1670	12.920	211.0	0.369304797	0.401447712	0.004778713	0.049301099	0.015195077
2020-09-21T18:15:00	0.1674	12.905	211.0	0.370559244	0.403361442	0.004812360	0.049648233	0.015302068
2020-09-21T18:20:00	0.1684	12.891	211.0	0.373230535	0.407450633	0.004884481	0.050392289	0.015531393
2020-09-21T18:25:00	0.1681	12.875	211.0	0.372497868	0.406327176	0.004864636	0.050187555	0.015468292
2020-09-21T18:30:00	0.1689	12.860	211.0	0.374599393	0.409553457	0.004921687	0.050776133	0.015649697
2020-09-21T18:35:00	0.1690	12.844	211.0	0.375000268	0.410170224	0.004932614	0.050888872	0.015684445
2020-09-21T18:40:00	0.1693	12.827	211.0	0.375966987	0.411659343	0.004959026	0.051161362	0.015768429
2020-09-21T18:45:00	0.1700	12.811	211.0	0.377781052	0.414460455	0.005008817	0.051675044	0.015926751
2020-09-21T18:50:00	0.1699	12.793	211.0	0.377615958	0.414205167	0.005004274	0.051628168	0.015912303
2020-09-21T18:55:00	0.1703	12.775	211.0	0.378580978	0.415698429	0.005030868	0.051902533	0.015996865
2020-09-21T19:00:00	0.1704	12.757	211.0	0.378980780	0.416317811	0.005041910	0.052016456	0.016031977
2020-09-21T19:05:00	0.1702	12.741	211.0	0.378533411	0.415624765	0.005029555	0.051888989	0.015992690
2020-09-21T19:10:00	0.1703	12.722	211.0	0.378650839	0.415806628	0.005032796	0.051922429	0.016002997
2020-09-21T19:15:00	0.1707	12.702	211.0	0.379897394	0.417739467	0.005067281	0.052278209	0.016112652
2020-09-21T19:20:00	0.1708	12.685	210.0	0.380014716	0.417921594	0.005070534	0.052311768	0.016122995
2020-09-21T19:25:00	0.1707	12.666	210.0	0.379849869	0.417665700	0.005065964	0.052264618	0.016108463
2020-09-21T19:30:00	0.1706	12.646	210.0	0.379685003	0.417409850	0.005061396	0.052217487	0.016093937
2020-09-21T19:35:00	0.1709	12.628	211.0	0.380366625	0.418468111	0.005080299	0.052412509	0.016154044
2020-09-21T19:40:00	0.1707	12.608	211.0	0.379919671	0.417774045	0.005067899	0.052284580	0.016114615
2020-09-21T19:45:00	0.1704	12.590	210.0	0.378907960	0.416204964	0.005039898	0.051995695	0.016025578
2020-09-21T19:50:00	0.1703	12.571	210.0	0.378742991	0.415949371	0.005035341	0.051948680	0.016011088
2020-09-21T19:55:00	0.1709	12.552	210.0	0.380271602	0.418320507	0.005077661	0.052385295	0.016145657
2020-09-21T20:00:00	0.1708	12.533	209.0	0.380106783	0.418064543	0.005073088	0.052338113	0.016131115
2020-09-21T20:05:00	0.1707	12.512	210.0	0.379941946	0.417808624	0.005068517	0.052290951	0.016116579
2020-09-21T20:10:00	0.1712	12.492	209.0	0.381187426	0.419744112	0.005103118	0.052647930	0.016226603
2020-09-21T20:15:00	0.1714	12.473	209.0	0.381868365	0.420804060	0.005122096	0.052843717	0.016286947
2020-09-21T20:20:00	0.1716	12.452	209.0	0.382267290	0.421425606	0.005133233	0.052958620	0.016322361
2020-09-21T20:25:00	0.1714	12.433	209.0	0.381820902	0.420730139	0.005120772	0.052830056	0.016282736
2020-09-21T20:30:00	0.1717	12.412	209.0	0.382783214	0.422230077	0.005147659	0.053107444	0.016368230
2020-09-21T20:35:00	0.1721	12.392	209.0	0.383744911	0.423731546	0.005174613	0.053385526	0.016453938
2020-09-21T20:40:00	0.1723	12.374	209.0	0.384424693	0.424794371	0.005193717	0.053582616	0.016514683
2020-09-21T20:45:00	0.1711	12.354	209.0	0.380880233	0.419266344	0.005094571	0.052559747	0.016199425
2020-09-21T20:50:00	0.1712	12.333	209.0	0.381279421	0.419887239	0.005105680	0.052674356	0.016234748
2020-09-21T20:55:00	0.1716	12.317	208.0	0.382242081	0.421386316	0.005132529	0.052951354	0.016320122
2020-09-21T21:00:00	0.1713	12.299	209.0	0.381513839	0.420252050	0.005112210	0.052741727	0.016255513
2020-09-21T21:05:00	0.1713	12.279	209.0	0.381631034	0.420434490	0.005115477	0.052775429	0.016265900
2020-09-21T21:10:00	0.1711	12.261	208.0	0.380902495	0.419300958	0.005095190	0.052566135	0.016201393
2020-09-21T21:15:00	0.1716	12.244	211.0	0.382428904	0.421677531	0.005137749	0.053005212	0.016336721
2020-09-21T21:20:00	0.1716	12.226	208.0	0.382264322	0.421420981	0.005133150	0.052957764	0.016322097
2020-09-21T21:25:00	0.1713	12.207	208.0	0.381536091	0.420286687	0.005112830	0.052748125	0.016257485
2020-09-21T21:30:00	0.1713	12.187	208.0	0.381653284	0.420469131	0.005116097	0.052781829	0.016267872
2020-09-21T21:35:00	0.1716	12.172	208.0	0.382334012	0.421529604	0.005135097	0.052977852	0.016328289
2020-09-21T21:40:00	0.1713	12.157	208.0	0.381605814	0.420395227	0.005114774	0.052768175	0.016263664
2020-09-21T21:45:00	0.1716	12.142	208.0	0.382286563	0.421455646	0.005133772	0.052964175	0.016324073
2020-09-21T21:50:00	0.1715	12.128	208.0	0.382121966	0.421199134	0.005129174	0.052916744	0.016309455
2020-09-21T21:55:00	0.1713	12.110	207.0	0.381393665	0.420065012	0.005108862	0.052707183	0.016244866
2020-09-21T22:00:00	0.1713	12.093	207.0	0.381510870	0.420247428	0.005112127	0.052740874	0.016255250
2020-09-21T22:05:00	0.1712	12.074	207.0	0.381144093	0.419676701	0.005101912	0.052635486	0.016222768
2020-09-21T22:10:00	0.1711	12.057	208.0	0.381059211	0.419544671	0.005099550	0.052611114	0.016215256
2020-09-21T22:15:00	0.1719	12.040	208.0	0.383228424	0.422924860	0.005160126	0.053236072	0.016407874
2020-09-21T22:20:00	0.1721	12.028	207.0	0.383706689	0.423671822	0.005173540	0.053374457	0.016450526
2020-09-21T22:25:00	0.1717	12.011	207.0	0.382777281	0.422220822	0.005147493	0.053105731	0.016367702
2020-09-21T22:30:00	0.1713	11.995	207.0	0.381565462	0.420332408	0.005113649	0.052756571	0.016260088
2020-09-21T22:35:00	0.1709	11.981	207.0	0.380352663	0.418446421	0.005079911	0.052408510	0.016152812
2020-09-21T22:40:00	0.1716	11.969	207.0	0.382241188	0.421384924	0.005132504	0.052951097	0.016320042
2020-09-21T22:45:00	0.1714	11.958	206.0	0.381874589	0.420813754	0.005122269	0.052845508	0.016287499
2020-09-21T22:50:00	0.1719	11.944	207.0	0.383198193	0.422877665	0.005159279	0.053227332	0.016405181
2020-09-21T22:55:00	0.1715	11.930	207.0	0.381986713	0.420988408	0.005125398	0.052877789	0.016297448
2020-09-21T23:00:00	0.1714	11.917	207.0	0.381901879	0.420856260	0.005123031	0.052853364	0.016289920
2020-09-21T23:05:00	0.1712	11.906	206.0	0.381253302	0.419846599	0.005104952	0.052666852	0.016232435
2020-09-21T23:10:00	0.1716	11.894	206.0	0.382295753	0.421469969	0.005134028	0.052966824	0.016324889
2020-09-21T23:15:00	0.1715	11.878	207.0	0.382210936	0.421337778	0.005131659	0.052942379	0.016317355
2020-09-21T23:20:00	0.1713	11.867	207.0	0.381562493	0.420327786	0.005113566	0.052755717	0.016259824
2020-09-21T23:25:00	0.1714	11.853	206.0	0.381759488	0.420634499	0.005119058	0.052812383	0.016277289
2020-09-21T23:30:00	0.1718	11.839	207.0	0.382801588	0.422258740	0.005148173	0.053112749	0.016369865
2020-09-21T23:35:00	0.1713	11.823	206.0	0.381589788	0.420370278	0.005114327	0.052763566	0.016262244
2020-09-21T23:40:00	0.1708	11.812	206.0	0.380094896	0.418046085	0.005072758	0.052334711	0.016130066
2020-09-21T23:45:00	0.1703	11.796	206.0	0.378598508	0.415725577	0.005031351	0.051907525	0.015998403
2020-09-21T23:50:00	0.1708	11.781	206.0	0.380207153	0.418220409	0.005075873	0.052366843	0.016139969
2020-09-21T23:55:00	0.1713	11.766	206.0	0.381532228	0.420280674	0.005112722	0.052747015	0.016257142
2020-09-22T00:00:00	0.1709	11.748	206.0	0.380319402	0.418394754	0.005078988	0.052398984	0.016149876
2020-09-22T00:05:00	0.1703	11.737	206.0	0.378823239	0.416073693	0.005037557	0.051971547	0.016018136
2020-09-22T00:10:00	0.1699	11.721	206.0	0.377608212	0.414193190	0.005004060	0.051625969	0.015911625
2020-09-22T00:15:00	0.1692	11.707	206.0	0.375543424	0.411006585	0.004947444	0.051041865	0.015731598
2020-09-22T00:20:00	0.1690	11.692	206.0	0.374892074	0.410003720	0.004929664	0.050858430	0.015675062
2020-09-22T00:25:00	0.1689	11.679	206.0	0.374806835	0.409872564	0.004927340	0.050834454	0.015667672
2020-09-22T00:30:00	0.1693	11.665	206.0	0.375853801	0.411484863	0.004955930	0.051129413	0.015758582
2020-09-22T00:35:00	0.1691	11.651	206.0	0.375202588	0.410481668	0.004938135	0.050945828	0.015701999
2020-09-22T00:40:00	0.1681	11.636	206.0	0.372567406	0.406433742	0.004866518	0.050206965	0.015474274
2020-09-22T00:45:00	0.1679	11.622	206.0	0.371914743	0.405434048	0.004848876	0.050024965	0.015418180
2020-09-22T00:50:00	0.1674	11.612	206.0	0.370410068	0.403133646	0.004808352	0.049606876	0.015289321
2020-09-22T00:55:00	0.1667	11.598	205.0	0.368619541	0.400404086	0.004760392	0.049112086	0.015136822
2020-09-22T01:00:00	0.1667	11.585	205.0	0.368533938	0.400273803	0.004758106	0.049088505	0.015129554
2020-09-22T01:05:00	0.1666	11.570	205.0	0.368163932	0.399710898	0.004748234	0.048986656	0.015098163
2020-09-22T01:10:00	0.1666	11.558	205.0	0.368078302	0.399580678	0.004745951	0.048963103	0.015090904
2020-09-22T01:15:00	0.1667	11.544	205.0	0.368561474	0.400315709	0.004758841	0.049096090	0.015131892
2020-09-22T01:20:00	0.1666	11.533	205.0	0.368191475	0.399752788	0.004748969	0.048994233	0.015100499
2020-09-22T01:25:00	0.1660	11.519	205.0	0.366398228	0.397029680	0.004701292	0.048502359	0.014948898
2020-09-22T01:30:00	0.1656	11.511	205.0	0.365457885	0.395605152	0.004676405	0.048245611	0.014869766
2020-09-22T01:35:00	0.1654	11.497	204.0	0.364802043	0.394613007	0.004659095	0.048067022	0.014814723
2020-09-22T01:40:00	0.1657	11.488	205.0	0.365571262	0.395776782	0.004679402	0.048276524	0.014879293
2020-09-22T01:45:00	0.1658	11.474	205.0	0.366055264	0.396509852	0.004692206	0.048408623	0.014920008
2020-09-22T01:50:00	0.1659	11.467	205.0	0.366254337	0.396811546	0.004697478	0.048463019	0.014936773
2020-09-22T01:55:00	0.1658	11.454	204.0	0.365883752	0.396250009	0.004687666	0.048361788	0.014905573
2020-09-22T02:00:00	0.1661	11.440	204.0	0.366652399	0.397415127	0.004708032	0.048571896	0.014970330
2020-09-22T02:05:00	0.1660	11.426	204.0	0.366566681	0.397285117	0.004705758	0.048548439	0.014963100
2020-09-22T02:10:00	0.1654	11.414	204.0	0.364771433	0.394566728	0.004658288	0.048058696	0.014812157
2020-09-22T02:15:00	0.1648	11.400	204.0	0.362973963	0.391853547	0.004611045	0.047571306	0.014661939
2020-09-22T02:20:00	0.1646	11.386	204.0	0.362602540	0.391293973	0.004601319	0.047470962	0.014631011
2020-09-22T02:25:00	0.1645	11.371	204.0	0.362231022	0.390734620	0.004591603	0.047370718	0.014600115
2020-09-22T02:30:00	0.1645	11.359	204.0	0.362145042	0.390605223	0.004589356	0.047347536	0.014592971
2020-09-22T02:35:00	0.1652	11.343	204.0	0.364342235	0.393918099	0.004646981	0.047942049	0.014776205
2020-09-22T02:40:00	0.1652	11.330	204.0	0.364256381	0.393788409	0.004644722	0.047918736	0.014769020
2020-09-22T02:45:00	0.1656	11.320	204.0	0.365310898	0.395382694	0.004672522	0.048205551	0.014857419
2020-09-22T02:50:00	0.1652	11.307	204.0	0.364084656	0.393529065	0.004640204	0.047872125	0.014754654
2020-09-22T02:55:00	0.1653	11.294	204.0	0.364569154	0.394260972	0.004652957	0.048003700	0.014795207
2020-09-22T03:00:00	0.1657	11.278	204.0	0.365623445	0.395855789	0.004680781	0.048290756	0.014883680
2020-09-22T03:05:00	0.1657	11.267	204.0	0.365537666	0.395725921	0.004678514	0.048267362	0.014876470
2020-09-22T03:10:00	0.1655	11.254	204.0	0.365166899	0.395164813	0.004668720	0.048166325	0.014845329
2020-09-22T03:15:00	0.1656	11.239	204.0	0.365366092	0.395466222	0.004673980	0.048220592	0.014862055
2020-09-22T03:20:00	0.1659	11.226	203.0	0.366135013	0.396630698	0.004694318	0.048430410	0.014926723
2020-09-22T03:25:00	0.1658	11.215	203.0	0.366049264	0.396500759	0.004692047	0.048406984	0.014919503
2020-09-22T03:30:00	0.1656	11.204	203.0	0.365393689	0.395507988	0.004674709	0.048228113	0.014864373
2020-09-22T03:35:00	0.1651	11.196	203.0	0.363882282	0.393223532	0.004634883	0.047817230	0.014737735
2020-09-22T03:40:00	0.1653	11.183	203.0	0.364651987	0.394386166	0.004655140	0.048026216	0.014802146
2020-09-22T03:45:00	0.1658	11.172	203.0	0.365991095	0.396412625	0.004690507	0.048391097	0.014914606
2020-09-22T03:50:00	0.1659	11.166	203.0	0.366190176	0.396714299	0.004695779	0.048445483	0.014931368
2020-09-22T03:55:00	0.1657	11.156	203.0	0.365534664	0.395721378	0.004678434	0.048266544	0.014876218
2020-09-22T04:00:00	0.1653	11.147	203.0	0.364593762	0.394298163	0.004653605	0.048010389	0.014797268
2020-09-22T04:05:00	0.1655	11.140	203.0	0.364954473	0.394843498	0.004663115	0.048108494	0.014827505
2020-09-22T04:10:00	0.1665	11.131	203.0	0.367877674	0.399275653	0.004740605	0.048907947	0.015073904
2020-09-22T04:15:00	0.1668	11.123	203.0	0.368806285	0.400688368	0.004765381	0.049163552	0.015152684
2020-09-22T04:20:00	0.1669	11.113	203.0	0.369165956	0.401236159	0.004774997	0.049262767	0.015183263
2020-09-22T04:25:00	0.1676	11.105	203.0	0.370945656	0.403951780	0.004822753	0.049755455	0.015335114
2020-09-22T04:30:00	0.1670	11.097	203.0	0.369316739	0.401465911	0.004779032	0.049304397	0.015196094
2020-09-22T04:35:00	0.1670	11.091	203.0	0.369392125	0.401580800	0.004781051	0.049325217	0.015202511
2020-09-22T04:40:00	0.1671	11.083	203.0	0.369751652	0.402128934	0.004790682	0.049424587	0.015233138
2020-09-22T04:45:00	0.1674	11.080	203.0	0.370395111	0.403110809	0.004807950	0.049602731	0.015288043
2020-09-22T04:50:00	0.1675	11.076	203.0	0.370754392	0.403659529	0.004817607	0.049702365	0.015318752
2020-09-22T04:55:00	0.1681	11.066	203.0	0.372532171	0.406379744	0.004865564	0.050197130	0.015471243
2020-09-22T05:00:00	0.1688	11.064	203.0	0.374591022	0.409540582	0.004921458	0.050773780	0.015648972
2020-09-22T05:05:00	0.1685	11.060	203.0	0.373533020	0.407914875	0.004892688	0.050476960	0.015557489
2020-09-22T05:10:00	0.1684	11.057	202.0	0.373324789	0.407595264	0.004887037	0.050418663	0.015539522
2020-09-22T05:15:00	0.1694	11.052	202.0	0.376231397	0.412067071	0.004966265	0.051236043	0.015791446
2020-09-22T05:20:00	0.1695	11.047	202.0	0.376306430	0.412182809	0.004968321	0.051257247	0.015797981
2020-09-22T05:25:00	0.1702	11.043	202.0	0.378360049	0.415356346	0.005024772	0.051839644	0.015977482
2020-09-22T05:30:00	0.1711	11.039	202.0	0.380974898	0.419413547	0.005097204	0.052586913	0.016207797
2020-09-22T05:35:00	0.1714	11.037	203.0	0.381895336	0.420846068	0.005122848	0.052851480	0.016289340
2020-09-22T05:40:00	0.1713	11.034	202.0	0.381406405	0.420084838	0.005109216	0.052710844	0.016245994
2020-09-22T05:45:00	0.1717	11.033	202.0	0.382608271	0.421957211	0.005142764	0.053056952	0.016352668
2020-09-22T05:50:00	0.1723	11.030	202.0	0.384371957	0.424711875	0.005192233	0.053567311	0.016509966
2020-09-22T05:55:00	0.1730	11.032	202.0	0.386414567	0.427912659	0.005249881	0.054162052	0.016693270
2020-09-22T06:00:00	0.1730	11.033	202.0	0.386208123	0.427588648	0.005244037	0.054101763	0.016674689
2020-09-22T06:05:00	0.1734	11.035	202.0	0.387406170	0.429470567	0.005278004	0.054452197	0.016782696
2020-09-22T06:10:00	0.1733	11.037	202.0	0.387199861	0.429146216	0.005272146	0.054391754	0.016764067
2020-09-22T06:15:00	0.1736	11.041	202.0	0.388116509	0.430588212	0.005298206	0.054660617	0.016846933
2020-09-22T06:20:00	0.1739	11.047	202.0	0.388752105	0.431589413	0.005316322	0.054847512	0.016904536
2020-09-22T06:25:00	0.1737	11.052	202.0	0.388265389	0.430822633	0.005302446	0.054704360	0.016860415
2020-09-22T06:30:00	0.1736	11.061	203.0	0.388059197	0.430497987	0.005296575	0.054643783	0.016841745
2020-09-22T06:35:00	0.1737	11.069	203.0	0.388133642	0.430615186	0.005298694	0.054665649	0.016848484
2020-09-22T06:40:00	0.1747	11.079	203.0	0.391011755	0.435157696	0.005381027	0.055515065	0.017110282
2020-09-22T06:45:00	0.1744	11.089	203.0	0.390245536	0.433946188	0.005359034	0.055288162	0.017040348
2020-09-22T06:50:00	0.1749	11.102	203.0	0.391720414	0.436279609	0.005401417	0.055725422	0.017175116
2020-09-22T06:55:00	0.1752	11.114	203.0	0.392354510	0.437284630	0.005419700	0.055914051	0.017233254
2020-09-22T07:00:00	0.1751	11.130	203.0	0.392148870	0.436958577	0.005413767	0.055852836	0.017214386
2020-09-22T07:05:00	0.1750	11.143	203.0	0.391943202	0.436632596	0.005407837	0.055791652	0.017195529
2020-09-22T07:10:00	0.1748	11.159	203.0	0.391457504	0.435863225	0.005393847	0.055647324	0.017151046
2020-09-22T07:15:00	0.1750	11.176	203.0	0.391811772	0.436424340	0.005404049	0.055752575	0.017183485
2020-09-22T07:20:00	0.1748	11.194	203.0	0.391326032	0.435655076	0.005390064	0.055608296	0.017139017
2020-09-22T07:25:00	0.1750	11.213	203.0	0.391960292	0.436659679	0.005408329	0.055796735	0.017197096
2020-09-22T07:30:00	0.1753	11.233	203.0	0.392874083	0.438108947	0.005434710	0.056068898	0.017280979
2020-09-22T07:35:00	0.1750	11.253	203.0	0.391828863	0.436451419	0.005404541	0.055757656	0.017185051
2020-09-22T07:40:00	0.1754	11.275	203.0	0.393022500	0.438344550	0.005439002	0.056113178	0.017294626
2020-09-22T07:45:00	0.1754	11.297	203.0	0.393096703	0.438462365	0.005441148	0.056135324	0.017301452
2020-09-22T07:50:00	0.1753	11.321	204.0	0.392891163	0.438136057	0.005435204	0.056073993	0.017282549
2020-09-22T07:55:00	0.1754	11.346	204.0	0.392965372	0.438253855	0.005437349	0.056096131	0.017289373
2020-09-22T08:00:00	0.1758	11.370	204.0	0.394158125	0.440149258	0.005471910	0.056452686	0.017399266
2020-09-22T08:05:00	0.1758	11.397	204.0	0.394232273	0.440267214	0.005474063	0.056474896	0.017406111
2020-09-22T08:10:00	0.1757	11.422	205.0	0.393747300	0.439495981	0.005459991	0.056329723	0.017361368
2020-09-22T08:15:00	0.1754	11.449	204.0	0.392982450	0.438280968	0.005437843	0.056101227	0.017290943
2020-09-22T08:20:00	0.1752	11.476	205.0	0.392497082	0.437510751	0.005423817	0.055956516	0.017246342
2020-09-22T08:25:00	0.1746	11.503	205.0	0.390891445	0.434967362	0.005377570	0.055479400	0.017099290
2020-09-22T08:30:00	0.1747	11.532	205.0	0.390965751	0.435084912	0.005379705	0.055501426	0.017106079
2020-09-22T08:35:00	0.1749	11.561	205.0	0.391600160	0.436089132	0.005397954	0.055689692	0.017164104
2020-09-22T08:40:00	0.1746	11.589	205.0	0.390834237	0.434876872	0.005375927	0.055462447	0.017094065
2020-09-22T08:45:00	0.1746	11.623	205.0	0.390908546	0.434994415	0.005378062	0.055484469	0.017100852
2020-09-22T08:50:00	0.1746	11.673	205.0	0.390702711	0.434668860	0.005372150	0.055423480	0.017082055
2020-09-22T08:55:00	0.1749	11.687	206.0	0.391617254	0.436116206	0.005398446	0.055694770	0.017165669
2020-09-22T09:00:00	0.1741	11.714	205.0	0.389450001	0.432690008	0.005336256	0.055053168	0.016967921
2020-09-22T09:05:00	0.1740	11.747	206.0	0.389243969	0.432364955	0.005330366	0.054992407	0.016949194
2020-09-22T09:10:00	0.1740	11.780	205.0	0.389037909	0.432039973	0.005324480	0.054931677	0.016930476
2020-09-22T09:15:00	0.1735	11.815	206.0	0.387709366	0.429947447	0.005286621	0.054541099	0.016810096
2020-09-22T09:20:00	0.1731	11.848	206.0	0.386660596	0.428298947	0.005256850	0.054233953	0.016715431
2020-09-22T09:25:00	0.1727	11.882	206.0	0.385329967	0.426211682	0.005219223	0.053845761	0.016595786
2020-09-22T09:30:00	0.1722	11.919	206.0	0.383998164	0.424127356	0.005181725	0.053458901	0.016476553
2020-09-22T09:35:00	0.1713	11.953	207.0	0.381538134	0.420289868	0.005112887	0.052748713	0.016257666
2020-09-22T09:40:00	0.1716	11.994	207.0	0.382458226	0.421723245	0.005138569	0.053013668	0.016339327
2020-09-22T09:45:00	0.1715	12.032	207.0	0.381969478	0.420961560	0.005124917	0.052872826	0.016295919
2020-09-22T09:50:00	0.1713	12.069	207.0	0.381480572	0.420200269	0.005111283	0.052732163	0.016252565
2020-09-22T09:55:00	0.1712	12.116	207.0	0.381273450	0.419877948	0.005105513	0.052672640	0.016234219
2020-09-22T10:00:00	0.1715	12.163	208.0	0.382193704	0.421310923	0.005131178	0.052937413	0.016315825
2020-09-22T10:05:00	0.1714	12.216	207.0	0.381702349	0.420545525	0.005117465	0.052795943	0.016272222
2020-09-22T10:10:00	0.1713	12.271	208.0	0.381492736	0.420219202	0.005111622	0.052735660	0.016253643
2020-09-22T10:15:00	0.1711	12.328	208.0	0.381001151	0.419454373	0.005097934	0.052594447	0.016210119
2020-09-22T10:20:00	0.1712	12.402	209.0	0.381355351	0.420005388	0.005107794	0.052696172	0.016241472
2020-09-22T10:25:00	0.1709	12.465	209.0	0.380299624	0.418364032	0.005078439	0.052393320	0.016148130
2020-09-22T10:30:00	0.1717	12.549	209.0	0.382626934	0.421986316	0.005143286	0.053062337	0.016354328
2020-09-22T10:35:00	0.1717	12.590	210.0	0.382699127	0.422098912	0.005145306	0.053083171	0.016360749
2020-09-22T10:40:00	0.1719	12.621	209.0	0.383334484	0.423090454	0.005163099	0.053266742	0.016417327
2020-09-22T10:45:00	0.1719	12.661	210.0	0.383125099	0.422763566	0.005157231	0.053206203	0.016398668
2020-09-22T10:50:00	0.1721	12.707	210.0	0.383760277	0.423755556	0.005175044	0.053389976	0.016455309
2020-09-22T10:55:00	0.1717	12.750	211.0	0.382706240	0.422110008	0.005145505	0.053085224	0.016361382
2020-09-22T11:00:00	0.1718	12.795	211.0	0.383060039	0.422662019	0.005155409	0.053187401	0.016392873
2020-09-22T11:05:00	0.1724	12.833	211.0	0.384539400	0.424973835	0.005196944	0.053615916	0.016524946
2020-09-22T11:10:00	0.1726	12.865	211.0	0.385173982	0.425967312	0.005214823	0.053800364	0.016581795
2020-09-22T11:15:00	0.1724	12.900	211.0	0.384683598	0.425199492	0.005201004	0.053657796	0.016537854
2020-09-22T11:20:00	0.1721	12.931	211.0	0.383911658	0.423992136	0.005179295	0.053433831	0.016468826
2020-09-22T11:25:00	0.1724	12.968	211.0	0.384546505	0.424984953	0.005197144	0.053617979	0.016525582
2020-09-22T11:30:00	0.1718	12.996	211.0	0.382929910	0.422458947	0.005151765	0.053149806	0.016381286
2020-09-22T11:35:00	0.1715	13.026	211.0	0.382157070	0.421253834	0.005130154	0.052926858	0.016312572
2020-09-22T11:40:00	0.1709	13.056	211.0	0.380255818	0.418295991	0.005077223	0.052380776	0.016144264
2020-09-22T11:45:00	0.1706	13.081	212.0	0.379481597	0.417094292	0.005055763	0.052159374	0.016076026
2020-09-22T11:50:00	0.1708	13.108	212.0	0.380118319	0.418082456	0.005073408	0.052341415	0.016132132
2020-09-22T11:55:00	0.1701	13.136	212.0	0.378214473	0.415131009	0.005020758	0.051798230	0.015964717
2020-09-22T12:00:00	0.1701	13.158	212.0	0.378004371	0.414805892	0.005014967	0.051738493	0.015946306
2020-09-22T12:05:00	0.1690	13.181	212.0	0.374965797	0.410117172	0.004931674	0.050879172	0.015681455
2020-09-22T12:10:00	0.1693	13.207	212.0	0.375887418	0.411536682	0.004956849	0.051138901	0.015761506
2020-09-22T12:15:00	0.1687	13.234	213.0	0.374261420	0.409033800	0.004912485	0.050681199	0.015620438
2020-09-22T12:20:00	0.1689	13.263	213.0	0.374617226	0.409580885	0.004922172	0.050781145	0.015651242
2020-09-22T12:25:00	0.1690	13.288	213.0	0.374972948	0.410128177	0.004931869	0.050881184	0.015682075
2020-09-22T12:30:00	0.1690	13.310	213.0	0.375045512	0.410239861	0.004933849	0.050901606	0.015688369
2020-09-22T12:35:00	0.1690	13.333	213.0	0.375118072	0.410351554	0.004935828	0.050922031	0.015694665
2020-09-22T12:40:00	0.1696	13.357	213.0	0.376605309	0.412643975	0.004976513	0.051341763	0.015824030
2020-09-22T12:45:00	0.1691	13.377	213.0	0.375263182	0.410574966	0.004939789	0.050962894	0.015707259
2020-09-22T12:50:00	0.1693	13.395	213.0	0.375901711	0.411558713	0.004957240	0.051142935	0.015762749
2020-09-22T12:55:00	0.1699	13.413	214.0	0.377670789	0.414289944	0.005005782	0.051643734	0.015917100
2020-09-22T13:00:00	0.1699	13.431	213.0	0.377460609	0.413965015	0.005000000	0.051584082	0.015898715
2020-09-22T13:05:00	0.1699	13.452	214.0	0.377533052	0.414076995	0.005001993	0.051604638	0.015905051
2020-09-22T13:10:00	0.1709	13.473	214.0	0.380428927	0.418564901	0.005082029	0.052430356	0.016159545
2020-09-22T13:15:00	0.1704	13.494	214.0	0.379090243	0.416487468	0.005044936	0.052047674	0.016041598
2020-09-22T13:20:00	0.1701	13.511	214.0	0.378032915	0.414850055	0.005015754	0.051746607	0.015948807
2020-09-22T13:25:00	0.1710	13.530	214.0	0.380645813	0.418901927	0.005088054	0.052492514	0.016178703
2020-09-22T13:30:00	0.1703	13.550	214.0	0.378742639	0.415948826	0.005035331	0.051948580	0.016011057
2020-09-22T13:35:00	0.1703	13.564	214.0	0.378815019	0.416060958	0.005037330	0.051969205	0.016017414
2020-09-22T13:40:00	0.1699	13.581	215.0	0.377474887	0.413987084	0.005000393	0.051588133	0.015899964
2020-09-22T13:45:00	0.1695	13.596	215.0	0.376416410	0.412352479	0.004971334	0.051288337	0.015807564
2020-09-22T13:50:00	0.1698	13.606	215.0	0.377337132	0.413774179	0.004996605	0.051549057	0.015887920
2020-09-22T13:55:00	0.1701	13.622	215.0	0.378257284	0.415197269	0.005021938	0.051810407	0.015968470
2020-09-22T14:00:00	0.1699	13.631	215.0	0.377482025	0.413998118	0.005000589	0.051590159	0.015900588
2020-09-22T14:05:00	0.1702	13.641	215.0	0.378402088	0.415421428	0.005025931	0.051851607	0.015981169
2020-09-22T14:10:00	0.1698	13.648	215.0	0.377344271	0.413785212	0.004996802	0.051551082	0.015888544
2020-09-22T14:15:00	0.1695	13.662	215.0	0.376568537	0.412587223	0.004975504	0.051331360	0.015820824
2020-09-22T14:20:00	0.1695	13.672	215.0	0.376358202	0.412262675	0.004969739	0.051271881	0.015802492
2020-09-22T14:25:00	0.1689	13.677	215.0	0.374732720	0.409758540	0.004925319	0.050813612	0.015661249
2020-09-22T14:30:00	0.1684	13.683	215.0	0.373388895	0.407693648	0.004888777	0.050436606	0.015545052
2020-09-22T14:35:00	0.1684	13.688	215.0	0.373461537	0.407805144	0.004890748	0.050456943	0.015551320
2020-09-22T14:40:00	0.1681	13.691	215.0	0.372400188	0.406177503	0.004861994	0.050160298	0.015459891
2020-09-22T14:45:00	0.1673	13.694	215.0	0.370202393	0.402816618	0.004802774	0.049549336	0.015271587
2020-09-22T14:50:00	0.1675	13.700	215.0	0.370843114	0.403795083	0.004819994	0.049726988	0.015326341
2020-09-22T14:55:00	0.1675	13.704	215.0	0.370631962	0.403472505	0.004814315	0.049668400	0.015308283
2020-09-22T15:00:00	0.1671	13.707	215.0	0.369568569	0.401849762	0.004785776	0.049373970	0.015217537
2020-09-22T15:05:00	0.1669	13.709	215.0	0.369073012	0.401094570	0.004772511	0.049237118	0.015175358
2020-09-22T15:10:00	0.1666	13.707	215.0	0.368292915	0.399907083	0.004751674	0.049022146	0.015109101
2020-09-22T15:15:00	0.1666	13.707	215.0	0.368081395	0.399585381	0.004746034	0.048963954	0.015091166
2020-09-22T15:20:00	0.1663	13.705	215.0	0.367300768	0.398399149	0.004725252	0.048749549	0.015025085
2020-09-22T15:25:00	0.1663	13.703	215.0	0.367373712	0.398509925	0.004727191	0.048769560	0.015031252
2020-09-22T15:30:00	0.1662	13.702	215.0	0.367162059	0.398188538	0.004721565	0.048711511	0.015013361
2020-09-22T15:35:00	0.1659	13.699	215.0	0.366096139	0.396571789	0.004693288	0.048419789	0.014923449
2020-09-22T15:40:00	0.1660	13.698	215.0	0.366453930	0.397114136	0.004702768	0.048517593	0.014953593
2020-09-22T15:45:00	0.1656	13.694	215.0	0.365387492	0.395498609	0.004674545	0.048226424	0.014863852
2020-09-22T15:50:00	0.1657	13.691	215.0	0.365745457	0.396040546	0.004684008	0.048324042	0.014893939
2020-09-22T15:55:00	0.1655	13.689	215.0	0.364963578	0.394857268	0.004663355	0.048110972	0.014828269
2020-09-22T16:00:00	0.1659	13.685	215.0	0.366176337	0.396693325	0.004695412	0.048441701	0.014930203
2020-09-22T16:05:00	0.1655	13.679	215.0	0.365031537	0.394960052	0.004665148	0.048129470	0.014833970
2020-09-22T16:10:00	0.1650	13.676	215.0	0.363600545	0.392798365	0.004627481	0.047740871	0.014714200
2020-09-22T16:15:00	0.1653	13.671	215.0	0.364451145	0.394082644	0.004649849	0.047971633	0.014785323
2020-09-22T16:20:00	0.1646	13.666	215.0	0.362448602	0.391062160	0.004597292	0.047429410	0.014618205
2020-09-22T16:25:00	0.1642	13.658	215.0	0.361300854	0.389335777	0.004567329	0.047120290	0.014522931
2020-09-22T16:30:00	0.1639	13.651	215.0	0.360438165	0.388040460	0.004544884	0.046888733	0.014451563
2020-09-22T16:35:00	0.1640	13.645	215.0	0.360718964	0.388461860	0.004552183	0.046964029	0.014474770
2020-09-22T16:40:00	0.1642	13.637	215.0	0.361285512	0.389312724	0.004566929	0.047116166	0.014521660
2020-09-22T16:45:00	0.1641	13.629	215.0	0.360994593	0.388875704	0.004559353	0.047038008	0.014497571
2020-09-22T16:50:00	0.1644	13.622	215.0	0.361846725	0.390156414	0.004581565	0.047267158	0.014568197
2020-09-22T16:55:00	0.1646	13.615	215.0	0.362412831	0.391008304	0.004596356	0.047419758	0.014615230
2020-09-22T17:00:00	0.1649	13.605	215.0	0.363264128	0.392290955	0.004618652	0.047649786	0.014686127
2020-09-22T17:05:00	0.1646	13.596	215.0	0.362402611	0.390992916	0.004596089	0.047417001	0.014614380
2020-09-22T17:10:00	0.1652	13.588	215.0	0.364109821	0.393567066	0.004640866	0.047878954	0.014756759
2020-09-22T17:15:00	0.1657	13.579	215.0	0.365530114	0.395714489	0.004678314	0.048265303	0.014875835
2020-09-22T17:20:00	0.1656	13.571	215.0	0.365240046	0.395275483	0.004670651	0.048186249	0.014851470
2020-09-22T17:25:00	0.1660	13.560	215.0	0.366374489	0.396993689	0.004700662	0.048495867	0.014946897
2020-09-22T17:30:00	0.1664	13.551	215.0	0.367508050	0.398713974	0.004730765	0.048806426	0.015042615
2020-09-22T17:35:00	0.1669	13.541	215.0	0.368925037	0.400869193	0.004768554	0.049196297	0.015162776
2020-09-22T17:40:00	0.1670	13.530	215.0	0.369488396	0.401727541	0.004783629	0.049351814	0.015210708
2020-09-22T17:45:00	0.1670	13.519	214.0	0.369483311	0.401719789	0.004783492	0.049350409	0.015210275
2020-09-22T17:50:00	0.1669	13.508	214.0	0.369194027	0.401278929	0.004775748	0.049270516	0.015185652
2020-09-22T17:55:00	0.1671	13.497	215.0	0.369757284	0.402137522	0.004790833	0.049426145	0.015233618
2020-09-22T18:00:00	0.1675	13.487	214.0	0.370888228	0.403864020	0.004821208	0.049739511	0.015330200
2020-09-22T18:05:00	0.1675	13.474	214.0	0.370883147	0.403856256	0.004821071	0.049738100	0.015329766
2020-09-22T18:10:00	0.1674	13.463	214.0	0.370594140	0.403414738	0.004813298	0.049657910	0.015305050
2020-09-22T18:15:00	0.1680	13.451	213.0	0.372291804	0.406011460	0.004859064	0.050130063	0.015450572
2020-09-22T18:20:00	0.1683	13.439	213.0	0.373137366	0.407307690	0.004881955	0.050366227	0.015523360
2020-09-22T18:25:00	0.1683	13.427	213.0	0.373132293	0.407299908	0.004881817	0.050364808	0.015522923
2020-09-22T18:30:00	0.1689	13.415	214.0	0.374827039	0.409903650	0.004927890	0.050840136	0.015669424
2020-09-22T18:35:00	0.1690	13.403	214.0	0.375105086	0.410331564	0.004935474	0.050918376	0.015693538
2020-09-22T18:40:00	0.1685	13.391	213.0	0.373683902	0.408146535	0.004896785	0.050519226	0.015570516
2020-09-22T18:45:00	0.1685	13.379	214.0	0.373678831	0.408138749	0.004896647	0.050517805	0.015570078
2020-09-22T18:50:00	0.1686	13.368	214.0	0.373957094	0.408566141	0.004904208	0.050595808	0.015594119
2020-09-22T18:55:00	0.1684	13.357	214.0	0.373385300	0.407688130	0.004888679	0.050435600	0.015544742
2020-09-22T19:00:00	0.1686	13.345	214.0	0.373946954	0.408550563	0.004903932	0.050592964	0.015593243
2020-09-22T19:05:00	0.1686	13.334	214.0	0.373941884	0.408542775	0.004903794	0.050591543	0.015592805
2020-09-22T19:10:00	0.1687	13.322	214.0	0.374220098	0.408970287	0.004911360	0.050669600	0.015616863
2020-09-22T19:15:00	0.1689	13.310	213.0	0.374781436	0.409833486	0.004926647	0.050827311	0.015665471
2020-09-22T19:20:00	0.1693	13.299	213.0	0.375908536	0.411569235	0.004957427	0.051144862	0.015763343
2020-09-22T19:25:00	0.1696	13.287	215.0	0.376752035	0.412870460	0.004980537	0.051383284	0.015836827
2020-09-22T19:30:00	0.1703	13.276	213.0	0.378725079	0.415921624	0.005034846	0.051943577	0.016009515
2020-09-22T19:35:00	0.1697	13.265	213.0	0.377024663	0.413291436	0.004988020	0.051460487	0.015860622
2020-09-22T19:40:00	0.1699	13.254	213.0	0.377584941	0.414157212	0.005003420	0.051619364	0.015909589
2020-09-22T19:45:00	0.1699	13.242	214.0	0.377579883	0.414149393	0.005003281	0.051617929	0.015909147
2020-09-22T19:50:00	0.1701	13.232	213.0	0.378139952	0.415015680	0.005018703	0.051777037	0.015958186
2020-09-22T19:55:00	0.1705	13.221	213.0	0.379264511	0.416757632	0.005049755	0.052097395	0.016056923
2020-09-22T20:00:00	0.1700	13.210	213.0	0.377847302	0.414562919	0.005010641	0.051693862	0.015932550
2020-09-22T20:05:00	0.1705	13.200	214.0	0.379254407	0.416741966	0.005049476	0.052094512	0.016056034
2020-09-22T20:10:00	0.1707	13.189	213.0	0.379813848	0.417609794	0.005064966	0.052254318	0.016105288
2020-09-22T20:15:00	0.1710	13.179	213.0	0.380655140	0.418916424	0.005088313	0.052495188	0.016179527
2020-09-22T20:20:00	0.1705	13.169	213.0	0.379239251	0.416718468	0.005049057	0.052090187	0.016054701
2020-09-22T20:25:00	0.1708	13.158	213.0	0.380080867	0.418024302	0.005072369	0.052330696	0.016128829
2020-09-22T20:30:00	0.1706	13.148	212.0	0.379511424	0.417140557	0.005056589	0.052167893	0.016078651
2020-09-22T20:35:00	0.1704	13.138	212.0	0.378941764	0.416257347	0.005040832	0.052005332	0.016028548
2020-09-22T20:40:00	0.1705	13.128	212.0	0.379219043	0.416687137	0.005048498	0.052084420	0.016052924
2020-09-22T20:45:00	0.1706	13.119	212.0	0.379496271	0.417117052	0.005056169	0.052163565	0.016077317
2020-09-22T20:50:00	0.1700	13.107	213.0	0.377796735	0.414484709	0.005009249	0.051679499	0.015928123
2020-09-22T20:55:00	0.1700	13.097	213.0	0.377791678	0.414476888	0.005009110	0.051678062	0.015927681
2020-09-22T21:00:00	0.1698	13.087	213.0	0.377221360	0.413595290	0.004993424	0.051516231	0.015877803
2020-09-22T21:05:00	0.1690	13.075	213.0	0.374953098	0.410097629	0.004931328	0.050875599	0.015680354
2020-09-22T21:10:00	0.1689	13.065	212.0	0.374664888	0.409654194	0.004923471	0.050794542	0.015655371
2020-09-22T21:15:00	0.1686	13.054	212.0	0.373810059	0.408340279	0.004900212	0.050554582	0.015581413
2020-09-22T21:20:00	0.1694	13.044	212.0	0.376069943	0.411818082	0.004961844	0.051190433	0.015777389
2020-09-22T21:25:00	0.1698	13.034	213.0	0.377196066	0.413556210	0.004992729	0.051509060	0.015875593
2020-09-22T21:30:00	0.1700	13.023	213.0	0.377756280	0.414422144	0.005008135	0.051668009	0.015924582
2020-09-22T21:35:00	0.1707	13.014	212.0	0.379727995	0.417476561	0.005062587	0.052229775	0.016097724
2020-09-22T21:40:00	0.1705	13.006	212.0	0.379158418	0.416593148	0.005046821	0.052067122	0.016047593
2020-09-22T21:45:00	0.1711	12.996	212.0	0.380846314	0.419213605	0.005093627	0.052550016	0.016196425
2020-09-22T21:50:00	0.1705	12.987	212.0	0.379148314	0.416577484	0.005046542	0.052064239	0.016046704
2020-09-22T21:55:00	0.1703	12.978	212.0	0.378578515	0.415694614	0.005030800	0.051901832	0.015996649
2020-09-22T22:00:00	0.1703	12.969	212.0	0.378573461	0.415686787	0.005030660	0.051900393	0.015996205
2020-09-22T22:05:00	0.1704	12.959	212.0	0.378973265	0.416306164	0.005041702	0.052014313	0.016031316
2020-09-22T22:10:00	0.1701	12.950	212.0	0.378243430	0.415175826	0.005021556	0.051806466	0.015967256
2020-09-22T22:15:00	0.1702	12.940	212.0	0.378360881	0.415357634	0.005024795	0.051839881	0.015977555
2020-09-22T22:20:00	0.1705	12.931	212.0	0.379325420	0.416852077	0.005051441	0.052114781	0.016062282
2020-09-22T22:25:00	0.1701	12.921	212.0	0.378030803	0.414846788	0.005015696	0.051746006	0.015948622
2020-09-22T22:30:00	0.1696	12.911	212.0	0.376735060	0.412844255	0.004980072	0.051378480	0.015835346
2020-09-22T22:35:00	0.1695	12.900	212.0	0.376569850	0.412589250	0.004975540	0.051331732	0.015820938
2020-09-22T22:40:00	0.1700	12.890	211.0	0.377818146	0.414517824	0.005009839	0.051685580	0.015929998
2020-09-22T22:45:00	0.1695	12.878	211.0	0.376522218	0.412515743	0.004974234	0.051318259	0.015816786
2020-09-22T22:50:00	0.1694	12.867	211.0	0.376074109	0.411824505	0.004961958	0.051191610	0.015777751
2020-09-22T22:55:00	0.1691	12.856	211.0	0.375342849	0.410697645	0.004941964	0.050985336	0.015714176
2020-09-22T23:00:00	0.1687	12.845	211.0	0.374044757	0.408700827	0.004906591	0.050620397	0.015601698
2020-09-22T23:05:00	0.1682	12.834	211.0	0.372745524	0.406706766	0.004871339	0.050256704	0.015489604
2020-09-22T23:10:00	0.1683	12.821	211.0	0.373146901	0.407322318	0.004882213	0.050368894	0.015524182
2020-09-22T23:15:00	0.1682	12.809	211.0	0.372697769	0.406633558	0.004870046	0.050243366	0.015485493
2020-09-22T23:20:00	0.1682	12.796	211.0	0.372815660	0.406814297	0.004873238	0.050276297	0.015495643
2020-09-22T23:25:00	0.1676	12.784	210.0	0.370947682	0.403954876	0.004822808	0.049756017	0.015335288
2020-09-22T23:30:00	0.1677	12.773	210.0	0.371349549	0.404569251	0.004833630	0.049867675	0.015369702
2020-09-22T23:35:00	0.1672	12.759	211.0	0.370047936	0.402580906	0.004798629	0.049506567	0.015258405
2020-09-22T23:40:00	0.1672	12.745	209.0	0.369881975	0.402327709	0.004794177	0.049460637	0.015244249
2020-09-22T23:45:00	0.1671	12.733	210.0	0.369715996	0.402074558	0.004789727	0.049414727	0.015230099
2020-09-22T23:50:00	0.1672	12.721	210.0	0.369834127	0.402254724	0.004792894	0.049447399	0.015240169
2020-09-22T23:55:00	0.1672	12.709	210.0	0.369952249	0.402434912	0.004796061	0.049480082	0.015250242
2020-09-23T00:00:00	0.1667	12.699	210.0	0.368365036	0.400016800	0.004753598	0.049041997	0.015115220
2020-09-23T00:05:00	0.1662	12.686	210.0	0.367060767	0.398034771	0.004718873	0.048683744	0.015004803
2020-09-23T00:10:00	0.1657	12.677	211.0	0.365755331	0.396055500	0.004684269	0.048326737	0.014894770
2020-09-23T00:15:00	0.1657	12.665	210.0	0.365588882	0.395803459	0.004679867	0.048281329	0.014880775
2020-09-23T00:20:00	0.1656	12.654	211.0	0.365422414	0.395551464	0.004675468	0.048235942	0.014866786
2020-09-23T00:25:00	0.1650	12.644	210.0	0.363544961	0.392714507	0.004626022	0.047725814	0.014709559
2020-09-23T00:30:00	0.1652	12.633	211.0	0.364234092	0.393754744	0.004644135	0.047912685	0.014767155
2020-09-23T00:35:00	0.1651	12.622	211.0	0.364067469	0.393503113	0.004639752	0.047867462	0.014753217
2020-09-23T00:40:00	0.1645	12.610	211.0	0.362188259	0.390670261	0.004590485	0.047359188	0.014596562
2020-09-23T00:45:00	0.1639	12.598	211.0	0.360592545	0.388272114	0.004548896	0.046930121	0.014464319
2020-09-23T00:50:00	0.1638	12.588	210.0	0.360139527	0.387592518	0.004537130	0.046808733	0.014426906
2020-09-23T00:55:00	0.1639	12.578	210.0	0.360544390	0.388199849	0.004547644	0.046917209	0.014460339
2020-09-23T01:00:00	0.1631	12.568	210.0	0.358087876	0.384521515	0.004484070	0.046261322	0.014258189
2020-09-23T01:05:00	0.1634	12.559	210.0	0.359065863	0.385984022	0.004509316	0.046521787	0.014338466
2020-09-23T01:10:00	0.1629	12.551	210.0	0.357753188	0.384021593	0.004475449	0.046172384	0.014230777
2020-09-23T01:15:00	0.1630	12.542	210.0	0.357872297	0.384199472	0.004478516	0.046204024	0.014240529
2020-09-23T01:20:00	0.1625	12.536	210.0	0.356558528	0.382239550	0.004444758	0.045855752	0.014133188
2020-09-23T01:25:00	0.1624	12.528	210.0	0.356104236	0.381562881	0.004433120	0.045735685	0.014096182
2020-09-23T01:30:00	0.1629	12.521	210.0	0.357656686	0.383877504	0.004472965	0.046146759	0.014222879
2020-09-23T01:35:00	0.1630	12.515	210.0	0.358062249	0.384483224	0.004483409	0.046254508	0.014256089
2020-09-23T01:40:00	0.1628	12.510	210.0	0.357321897	0.383377813	0.004464355	0.046057926	0.014195500
2020-09-23T01:45:00	0.1622	12.504	210.0	0.355720766	0.380992127	0.004423311	0.045634482	0.014064991
2020-09-23T01:50:00	0.1629	12.499	210.0	0.357560178	0.383733430	0.004470482	0.046121141	0.014214984
2020-09-23T01:55:00	0.1630	12.494	210.0	0.357965768	0.384339088	0.004480923	0.046228862	0.014248184
2020-09-23T02:00:00	0.1632	12.489	209.0	0.358371243	0.384945008	0.004491376	0.046336701	0.014281421
2020-09-23T02:05:00	0.1635	12.484	210.0	0.359349037	0.386407959	0.004516642	0.046597366	0.014361761
2020-09-23T02:10:00	0.1628	12.478	209.0	0.357463663	0.383589370	0.004468000	0.046095530	0.014207090
2020-09-23T02:15:00	0.1626	12.474	210.0	0.356723002	0.382484668	0.004448976	0.045899267	0.014146600
2020-09-23T02:20:00	0.1626	12.467	210.0	0.356842197	0.382662351	0.004452034	0.045930818	0.014156324
2020-09-23T02:25:00	0.1623	12.461	209.0	0.355814377	0.381131421	0.004425704	0.045659175	0.014072601
2020-09-23T02:30:00	0.1625	12.455	209.0	0.356507218	0.382163095	0.004443443	0.045842181	0.014129006
2020-09-23T02:35:00	0.1625	12.449	209.0	0.356626431	0.382340737	0.004446499	0.045873714	0.014138724
2020-09-23T02:40:00	0.1630	12.442	209.0	0.357891894	0.384228741	0.004479021	0.046209230	0.014242134
2020-09-23T02:45:00	0.1632	12.436	209.0	0.358583731	0.385262713	0.004496860	0.046393273	0.014298857
2020-09-23T02:50:00	0.1635	12.431	209.0	0.359275234	0.386297449	0.004514732	0.046577661	0.014355687
2020-09-23T02:55:00	0.1638	12.425	210.0	0.360252414	0.387761815	0.004540060	0.046838964	0.014436224
2020-09-23T03:00:00	0.1637	12.421	210.0	0.360085332	0.387511252	0.004535724	0.046794224	0.014422434
2020-09-23T03:05:00	0.1635	12.416	210.0	0.359346023	0.386403445	0.004516564	0.046596561	0.014361513
2020-09-23T03:10:00	0.1632	12.411	210.0	0.358606333	0.385296514	0.004497443	0.046399293	0.014300713
2020-09-23T03:15:00	0.1625	12.407	210.0	0.356433269	0.382052921	0.004441548	0.045822628	0.014122979
2020-09-23T03:20:00	0.1623	12.403	210.0	0.355978936	0.381376343	0.004429914	0.045702602	0.014085986
2020-09-23T03:25:00	0.1623	12.399	210.0	0.355811355	0.381126924	0.004425627	0.045658378	0.014072355
2020-09-23T03:30:00	0.1626	12.395	210.0	0.356790897	0.382585873	0.004450718	0.045917237	0.014152139
2020-09-23T03:35:00	0.1628	12.392	209.0	0.357483265	0.383618627	0.004468504	0.046100731	0.014208693
2020-09-23T03:40:00	0.1630	12.389	210.0	0.357888877	0.384224235	0.004478943	0.046208429	0.014241886
2020-09-23T03:45:00	0.1628	12.386	209.0	0.357435006	0.383546601	0.004467263	0.046087927	0.014204747
2020-09-23T03:50:00	0.1633	12.385	210.0	0.358699756	0.385436239	0.004499856	0.046424180	0.014308383
2020-09-23T03:55:00	0.1632	12.383	210.0	0.358532493	0.385186092	0.004495537	0.046379628	0.014294652
2020-09-23T04:00:00	0.1636	12.381	209.0	0.359796277	0.387077950	0.004528227	0.046716882	0.014398597
2020-09-23T04:05:00	0.1633	12.380	210.0	0.358811102	0.385602802	0.004502732	0.046453853	0.014317529
2020-09-23T04:10:00	0.1637	12.379	209.0	0.359829099	0.387127140	0.004529078	0.046725661	0.014401302
2020-09-23T04:15:00	0.1635	12.377	209.0	0.359416354	0.386508770	0.004518385	0.046615343	0.014367302
2020-09-23T04:20:00	0.1637	12.375	209.0	0.359861920	0.387176332	0.004529929	0.046734440	0.014404008
2020-09-23T04:25:00	0.1642	12.373	209.0	0.361450772	0.389561078	0.004571236	0.047160599	0.014535355
2020-09-23T04:30:00	0.1651	12.371	209.0	0.363893913	0.393241090	0.004635188	0.047820385	0.014738707
2020-09-23T04:35:00	0.1650	12.369	209.0	0.363767642	0.393050505	0.004631870	0.047786151	0.014728156
2020-09-23T04:40:00	0.1651	12.368	209.0	0.363926642	0.393290496	0.004636049	0.047829260	0.014741443
2020-09-23T04:45:00	0.1656	12.366	209.0	0.365226069	0.395254335	0.004670282	0.048182441	0.014850296
2020-09-23T04:50:00	0.1661	12.365	209.0	0.366809053	0.397652777	0.004712189	0.048614784	0.014983549
2020-09-23T04:55:00	0.1666	12.364	209.0	0.368105911	0.399622662	0.004746687	0.048970697	0.015093244
2020-09-23T05:00:00	0.1669	12.364	209.0	0.369117408	0.401162200	0.004773699	0.049249369	0.015179134
2020-09-23T05:05:00	0.1667	12.363	209.0	0.368422949	0.400104913	0.004755144	0.049057941	0.015120134
2020-09-23T05:10:00	0.1666	12.363	209.0	0.368297070	0.399913404	0.004751785	0.049023289	0.015109454
2020-09-23T05:15:00	0.1673	12.362	209.0	0.370160796	0.402753132	0.004801658	0.049537816	0.015268036
2020-09-23T05:20:00	0.1672	12.363	209.0	0.370035066	0.402561269	0.004798283	0.049503004	0.015257307
2020-09-23T05:25:00	0.1670	12.363	209.0	0.369341042	0.401502947	0.004779683	0.049311108	0.015198162
2020-09-23T05:30:00	0.1664	12.364	209.0	0.367508920	0.398715296	0.004730788	0.048806665	0.015042688
2020-09-23T05:35:00	0.1664	12.365	209.0	0.367667512	0.398956248	0.004735008	0.048850208	0.015056109
2020-09-23T05:40:00	0.1660	12.366	209.0	0.366402937	0.397036820	0.004701416	0.048503647	0.014949295
2020-09-23T05:45:00	0.1663	12.367	209.0	0.367415613	0.398573565	0.004728306	0.048781057	0.015034796
2020-09-23T05:50:00	0.1672	12.368	209.0	0.369848768	0.402277056	0.004793286	0.049451450	0.015241417
2020-09-23T05:55:00	0.1667	12.372	209.0	0.368586079	0.400353157	0.004759498	0.049102868	0.015133981
2020-09-23T06:00:00	0.1663	12.375	209.0	0.367322300	0.398431848	0.004725824	0.048755456	0.015026905
2020-09-23T06:05:00	0.1664	12.378	209.0	0.367765443	0.399105069	0.004737616	0.048877108	0.015064399
2020-09-23T06:10:00	0.1669	12.382	209.0	0.369061454	0.401076964	0.004772202	0.049233928	0.015174375
2020-09-23T06:15:00	0.1672	12.386	209.0	0.369788208	0.402184686	0.004791662	0.049434698	0.015236254
2020-09-23T06:20:00	0.1674	12.389	209.0	0.370514603	0.403293267	0.004811160	0.049635854	0.015298252
2020-09-23T06:25:00	0.1675	12.393	209.0	0.370672870	0.403534991	0.004815415	0.049679747	0.015311781
2020-09-23T06:30:00	0.1680	12.397	209.0	0.372249977	0.405947390	0.004857933	0.050118399	0.015446977
2020-09-23T06:35:00	0.1676	12.401	209.0	0.370989352	0.404018562	0.004823929	0.049767588	0.015338854
2020-09-23T06:40:00	0.1671	12.406	210.0	0.369727646	0.402092323	0.004790039	0.049417948	0.015231092
2020-09-23T06:45:00	0.1674	12.412	210.0	0.370454070	0.403200832	0.004809534	0.049619073	0.015293080
2020-09-23T06:50:00	0.1678	12.420	210.0	0.371747708	0.405178381	0.004844368	0.049978449	0.015403843
2020-09-23T06:55:00	0.1676	12.425	210.0	0.371054493	0.404118127	0.004825683	0.049785680	0.015344430
2020-09-23T07:00:00	0.1676	12.429	210.0	0.370928839	0.403926080	0.004822301	0.049750785	0.015333675
2020-09-23T07:05:00	0.1675	12.439	210.0	0.370803175	0.403734060	0.004818919	0.049715903	0.015322924
2020-09-23T07:10:00	0.1675	12.450	210.0	0.370677501	0.403542065	0.004815539	0.049681032	0.015312177
2020-09-23T07:15:00	0.1676	12.462	210.0	0.371119630	0.404217698	0.004827437	0.049803774	0.015350007
2020-09-23T07:20:00	0.1674	12.475	210.0	0.370426119	0.403158153	0.004808783	0.049611325	0.015290692
2020-09-23T07:25:00	0.1675	12.487	210.0	0.370868324	0.403833605	0.004820672	0.049733985	0.015328497
2020-09-23T07:30:00	0.1678	12.501	210.0	0.371594185	0.404943461	0.004840226	0.049935719	0.015390674
2020-09-23T07:35:00	0.1674	12.517	210.0	0.370616975	0.403449614	0.004813912	0.049664243	0.015307002
2020-09-23T07:40:00	0.1680	12.532	210.0	0.372194142	0.405861869	0.004856424	0.050102829	0.015442179
2020-09-23T07:45:00	0.1682	12.552	210.0	0.372635816	0.406538594	0.004868369	0.050226065	0.015480161
2020-09-23T07:50:00	0.1681	12.570	210.0	0.372510298	0.406346224	0.004864973	0.050191025	0.015469361
2020-09-23T07:55:00	0.1686	12.587	210.0	0.373802132	0.408328105	0.004899996	0.050552360	0.015580728
2020-09-23T08:00:00	0.1686	12.612	210.0	0.373960046	0.408570677	0.004904288	0.050596636	0.015594375
2020-09-23T08:05:00	0.1682	12.638	211.0	0.372700884	0.406638333	0.004870130	0.050244236	0.015485761
2020-09-23T08:10:00	0.1682	12.655	211.0	0.372858916	0.406880621	0.004874409	0.050288383	0.015499368
2020-09-23T08:15:00	0.1684	12.673	211.0	0.373300391	0.407557824	0.004886376	0.050411836	0.015537417
2020-09-23T08:20:00	0.1682	12.697	211.0	0.372891445	0.406930501	0.004875290	0.050297473	0.015502170
2020-09-23T08:25:00	0.1680	12.720	211.0	0.372198768	0.405868955	0.004856549	0.050104119	0.015442576
2020-09-23T08:30:00	0.1679	12.741	211.0	0.371789517	0.405242367	0.004845496	0.049990090	0.015407431
2020-09-23T08:35:00	0.1682	12.764	211.0	0.372798480	0.406787955	0.004872773	0.050271497	0.015494164
2020-09-23T08:40:00	0.1681	12.795	211.0	0.372389395	0.406160967	0.004861702	0.050157286	0.015458963
2020-09-23T08:45:00	0.1678	12.820	211.0	0.371696482	0.405099988	0.004842986	0.049964189	0.015399448
2020-09-23T08:50:00	0.1676	12.845	211.0	0.371003242	0.404039791	0.004824303	0.049771445	0.015340043
2020-09-23T08:55:00	0.1677	12.867	211.0	0.371445274	0.404715659	0.004836211	0.049894294	0.015377906
2020-09-23T09:00:00	0.1678	12.887	211.0	0.371603441	0.404957623	0.004840476	0.049938295	0.015391467
2020-09-23T09:05:00	0.1675	12.918	211.0	0.370910158	0.403897531	0.004821798	0.049745599	0.015332077
2020-09-23T09:10:00	0.1673	12.935	211.0	0.370216547	0.402838222	0.004803154	0.049553256	0.015272795
2020-09-23T09:15:00	0.1674	12.962	211.0	0.370374846	0.403079870	0.004807405	0.049597115	0.015286312
2020-09-23T09:20:00	0.1675	12.980	211.0	0.370817067	0.403755285	0.004819293	0.049719758	0.015324112
2020-09-23T09:25:00	0.1677	13.008	211.0	0.371259155	0.404431018	0.004831195	0.049842546	0.015361957
2020-09-23T09:30:00	0.1680	13.023	212.0	0.372268481	0.405975734	0.004858433	0.050123559	0.015448568
2020-09-23T09:35:00	0.1682	13.051	212.0	0.372710133	0.406652512	0.004870381	0.050246819	0.015486558
2020-09-23T09:40:00	0.1677	13.084	212.0	0.371449902	0.404722738	0.004836335	0.049895581	0.015378303
2020-09-23T09:45:00	0.1673	13.110	212.0	0.370188591	0.402795554	0.004802404	0.049545513	0.015270408
2020-09-23T09:50:00	0.1667	13.140	212.0	0.368357531	0.400005382	0.004753398	0.049039931	0.015114583
2020-09-23T09:55:00	0.1662	13.173	213.0	0.367093554	0.398084541	0.004719744	0.048692731	0.015007572
2020-09-23T10:00:00	0.1661	13.214	213.0	0.366682874	0.397461353	0.004708840	0.048580238	0.014972901
2020-09-23T10:05:00	0.1659	13.252	213.0	0.366153659	0.396658955	0.004694811	0.048435505	0.014928293
2020-09-23T10:10:00	0.1657	13.289	213.0	0.365624252	0.395857011	0.004680802	0.048290976	0.014883748
2020-09-23T10:15:00	0.1654	13.335	214.0	0.364809599	0.394624431	0.004659294	0.048069077	0.014815356
2020-09-23T10:20:00	0.1653	13.381	214.0	0.364564859	0.394254480	0.004652844	0.048002533	0.014794847
2020-09-23T10:25:00	0.1651	13.423	214.0	0.364034873	0.393453895	0.004638894	0.047858618	0.014750491
2020-09-23T10:30:00	0.1649	13.457	214.0	0.363504693	0.392653762	0.004624965	0.047714908	0.014706198
2020-09-23T10:35:00	0.1653	13.486	214.0	0.364400825	0.394006615	0.004648524	0.047957963	0.014781110
2020-09-23T10:40:00	0.1653	13.514	214.0	0.364441198	0.394067614	0.004649587	0.047968930	0.014784490
2020-09-23T10:45:00	0.1652	13.543	215.0	0.364196395	0.393697809	0.004643143	0.047902451	0.014764001
2020-09-23T10:50:00	0.1644	13.572	215.0	0.361953429	0.390316919	0.004584351	0.047295899	0.014577055
2020-09-23T10:55:00	0.1646	13.598	215.0	0.362565027	0.391237477	0.004600338	0.047460834	0.014627890
2020-09-23T11:00:00	0.1645	13.622	215.0	0.362319908	0.390868412	0.004593926	0.047394690	0.014607504
2020-09-23T11:05:00	0.1640	13.647	215.0	0.360931818	0.388781432	0.004557720	0.047021153	0.014492376
2020-09-23T11:10:00	0.1636	13.679	215.0	0.359542390	0.386697548	0.004521648	0.046649014	0.014377679
2020-09-23T11:15:00	0.1634	13.712	215.0	0.359010558	0.385901249	0.004507887	0.046507034	0.014333920
2020-09-23T11:20:00	0.1616	13.743	215.0	0.353889849	0.378272339	0.004376651	0.045153106	0.013916626
2020-09-23T11:25:00	0.1624	13.780	216.0	0.356226633	0.381745138	0.004436254	0.045768016	0.014106147
2020-09-23T11:30:00	0.1627	13.796	216.0	0.357127303	0.383087507	0.004459355	0.046006339	0.014179600
2020-09-23T11:35:00	0.1630	13.815	216.0	0.358027407	0.384431171	0.004482512	0.046245245	0.014253234
2020-09-23T11:40:00	0.1628	13.835	216.0	0.357495013	0.383636161	0.004468806	0.046103848	0.014209654
2020-09-23T11:45:00	0.1624	13.851	216.0	0.356102254	0.381559930	0.004433070	0.045735162	0.014096021
2020-09-23T11:50:00	0.1629	13.867	216.0	0.357576144	0.383757264	0.004470893	0.046125379	0.014216290
2020-09-23T11:55:00	0.1629	13.877	216.0	0.357616708	0.383817818	0.004471937	0.046136146	0.014219608
2020-09-23T12:00:00	0.1626	13.882	216.0	0.356797520	0.382595747	0.004450888	0.045918991	0.014152679
2020-09-23T12:05:00	0.1633	13.888	216.0	0.358843331	0.385651019	0.004503564	0.046462444	0.014320176
2020-09-23T12:10:00	0.1651	13.892	216.0	0.364027216	0.393442334	0.004638693	0.047856541	0.014749851
2020-09-23T12:15:00	0.1666	13.887	217.0	0.368339718	0.399978283	0.004752923	0.049035028	0.015113072
2020-09-23T12:20:00	0.1674	13.887	216.0	0.370369314	0.403071423	0.004807257	0.049595581	0.015285840
2020-09-23T12:25:00	0.1678	13.882	216.0	0.371545042	0.404868277	0.004838901	0.049922046	0.015386459
2020-09-23T12:30:00	0.1764	13.988	209.0	0.395791724	0.442751474	0.005519458	0.056943235	0.017550458
2020-09-23T12:35:00	0.1836	14.083	200.0	0.415807593	0.475226673	0.006122391	0.063163579	0.019467629
2020-09-23T12:40:00	0.1873	14.175	188.0	0.426015343	0.492212503	0.006444582	0.066487568	0.020492114
2020-09-23T12:45:00	0.1875	14.204	183.0	0.426601970	0.493197421	0.006463405	0.066681754	0.020551964
2020-09-23T12:50:00	0.1868	14.200	181.0	0.424722551	0.490045335	0.006403220	0.066060844	0.020360594
2020-09-23T12:55:00	0.1864	14.183	177.0	0.423389882	0.487816169	0.006360752	0.065622709	0.020225556
2020-09-23T13:00:00	0.1852	14.158	184.0	0.420132510	0.482388229	0.006257673	0.064559259	0.019897791
2020-09-23T13:05:00	0.1842	14.142	186.0	0.417419511	0.477889788	0.006172601	0.063681589	0.019627284
2020-09-23T13:10:00	0.1821	14.133	187.0	0.411664189	0.468414018	0.005994467	0.061843812	0.019060864
2020-09-23T13:15:00	0.1801	14.131	189.0	0.406165365	0.459445567	0.005827218	0.060118338	0.018529056
2020-09-23T13:20:00	0.1802	14.124	190.0	0.406481989	0.459959725	0.005836771	0.060216890	0.018559430
2020-09-23T13:25:00	0.1811	14.120	191.0	0.409015173	0.464083184	0.005913538	0.061008885	0.018803531
2020-09-23T13:30:00	0.1799	14.119	193.0	0.405450865	0.458286317	0.005805697	0.059896304	0.018460623
2020-09-23T13:35:00	0.1809	14.117	196.0	0.408262745	0.462856563	0.005890673	0.060772986	0.018730824
2020-09-23T13:40:00	0.1804	14.111	196.0	0.406916313	0.460665459	0.005849890	0.060352236	0.018601145
2020-09-23T13:45:00	0.1803	14.106	197.0	0.406678296	0.460278641	0.005842698	0.060278041	0.018578278
2020-09-23T13:50:00	0.1793	14.103	198.0	0.403942237	0.455843208	0.005760413	0.059429122	0.018316632
2020-09-23T13:55:00	0.1811	14.106	201.0	0.408973494	0.464015198	0.005912270	0.060995804	0.018799499
2020-09-23T14:00:00	0.1861	14.130	200.0	0.422797186	0.486826342	0.006341920	0.065428421	0.020165675
2020-09-23T14:05:00	0.1950	14.157	190.0	0.448468873	0.527705548	0.007149986	0.073765084	0.022735115
2020-09-23T14:10:00	0.1990	14.193	179.0	0.462437131	0.546529859	0.007558014	0.077974633	0.024032539
2020-09-23T14:15:00	0.1991	14.178	173.0	0.462833524	0.547066308	0.007569755	0.078095765	0.024069873
2020-09-23T14:20:00	0.1982	14.149	180.0	0.459756369	0.542905179	0.007478844	0.077157853	0.023780800
2020-09-23T14:25:00	0.1972	14.121	184.0	0.456328530	0.538278651	0.007378208	0.076119609	0.023460803
2020-09-23T14:30:00	0.1958	14.103	186.0	0.451503941	0.531782662	0.007237699	0.074670005	0.023014021
2020-09-23T14:35:00	0.1948	14.090	188.0	0.448067661	0.527167128	0.007138430	0.073645865	0.022698371
2020-09-23T14:40:00	0.1931	14.078	189.0	0.441833883	0.518817774	0.006960058	0.071805631	0.022131193
2020-09-23T14:45:00	0.1919	14.068	189.0	0.438444888	0.513285854	0.006850589	0.070676269	0.021783113
2020-09-23T14:50:00	0.1907	14.057	177.0	0.435217211	0.507772185	0.006743700	0.069573512	0.021443232
2020-09-23T14:55:00	0.1895	14.045	191.0	0.431983263	0.502276962	0.006637632	0.068479227	0.021105963
2020-09-23T15:00:00	0.1901	14.034	192.0	0.433658939	0.505120683	0.006692463	0.069044910	0.021280312
2020-09-23T15:05:00	0.1900	14.025	195.0	0.433424828	0.504722912	0.006684786	0.068965707	0.021255901
2020-09-23T15:10:00	0.1904	14.011	197.0	0.434554026	0.506642905	0.006721865	0.069348243	0.021373802
2020-09-23T15:15:00	0.1897	13.996	198.0	0.432410780	0.503001739	0.006651595	0.068623280	0.021150361
2020-09-23T15:20:00	0.1892	13.982	199.0	0.431084342	0.500754662	0.006608331	0.068176936	0.021012794
2020-09-23T15:25:00	0.1882	13.971	201.0	0.428389532	0.496204542	0.006520966	0.067275605	0.020734995
2020-09-23T15:30:00	0.1877	13.965	201.0	0.427059851	0.493966844	0.006478119	0.066833562	0.020598753
2020-09-23T15:35:00	0.1875	13.958	202.0	0.426550942	0.493111709	0.006461766	0.066664849	0.020546754
2020-09-23T15:40:00	0.1878	13.952	203.0	0.427411137	0.494557542	0.006489422	0.066950172	0.020634693
2020-09-23T15:45:00	0.1892	13.946	204.0	0.431277676	0.501081879	0.006614626	0.068241882	0.021032811
2020-09-23T15:50:00	0.1883	13.942	205.0	0.428583183	0.496530844	0.006527221	0.067340132	0.020754883
2020-09-23T15:55:00	0.1881	13.940	205.0	0.428074746	0.495674351	0.006510807	0.067170796	0.020702692
2020-09-23T16:00:00	0.1877	13.933	205.0	0.427018636	0.493897564	0.006476794	0.066819889	0.020594539
2020-09-23T16:05:00	0.1871	13.926	206.0	0.425374989	0.491138467	0.006424074	0.066275991	0.020426904
2020-09-23T16:10:00	0.1872	13.919	206.0	0.425649045	0.491597989	0.006432846	0.066366490	0.020454797
2020-09-23T16:15:00	0.1864	13.911	205.0	0.423455306	0.487925489	0.006362833	0.065644177	0.020232173
2020-09-23T16:20:00	0.1859	13.903	205.0	0.422082716	0.485634440	0.006319264	0.065194682	0.020093634
2020-09-23T16:25:00	0.1857	13.896	205.0	0.421533355	0.484718939	0.006301877	0.065015304	0.020038348
2020-09-23T16:30:00	0.1856	13.886	206.0	0.421258605	0.484261385	0.006293192	0.064925705	0.020010733
2020-09-23T16:35:00	0.1851	13.878	206.0	0.419884154	0.481975583	0.006249856	0.064478611	0.019872934
2020-09-23T16:40:00	0.1844	13.868	206.0	0.417957954	0.478780968	0.006189429	0.063855198	0.019680792
2020-09-23T16:45:00	0.1849	13.860	206.0	0.419334046	0.481062180	0.006232562	0.064300193	0.019817944
2020-09-23T16:50:00	0.1850	13.851	207.0	0.419609123	0.481518816	0.006241206	0.064389372	0.019845430
2020-09-23T16:55:00	0.1850	13.843	207.0	0.419609123	0.481518816	0.006241206	0.064389372	0.019845430
2020-09-23T17:00:00	0.1849	13.835	207.0	0.419334046	0.481062180	0.006232562	0.064300193	0.019817944
2020-09-23T17:05:00	0.1845	13.825	207.0	0.418233267	0.479236948	0.006198044	0.063944077	0.019708186
2020-09-23T17:10:00	0.1842	13.817	207.0	0.417407188	0.477869402	0.006172216	0.063677619	0.019626061
2020-09-23T17:15:00	0.1842	13.810	207.0	0.417407188	0.477869402	0.006172216	0.063677619	0.019626061
2020-09-23T17:20:00	0.1840	13.804	208.0	0.416856234	0.476958360	0.006155027	0.063500281	0.019571403
2020-09-23T17:25:00	0.1839	13.799	207.0	0.416580685	0.476503036	0.006146441	0.063411701	0.019544102
2020-09-23T17:30:00	0.1831	13.794	208.0	0.414374593	0.472865166	0.006077963	0.062705223	0.019326359
2020-09-23T17:35:00	0.1830	13.789	208.0	0.414098617	0.472411022	0.006069429	0.062617182	0.019299224
2020-09-23T17:40:00	0.1826	13.785	208.0	0.412994238	0.470595759	0.006035353	0.062265620	0.019190869
2020-09-23T17:45:00	0.1828	13.780	208.0	0.413546523	0.471503128	0.006052379	0.062441281	0.019245009
2020-09-23T17:50:00	0.1829	13.775	208.0	0.413822594	0.471957010	0.006060901	0.062529202	0.019272107
2020-09-23T17:55:00	0.1822	13.768	208.0	0.411889092	0.468782595	0.006001369	0.061915015	0.019082809
2020-09-23T18:00:00	0.1817	13.761	208.0	0.410506580	0.466519092	0.005959020	0.061478106	0.018948149
2020-09-23T18:05:00	0.1816	13.754	208.0	0.410229933	0.466066785	0.005950567	0.061390904	0.018921273
2020-09-23T18:10:00	0.1813	13.747	208.0	0.409399702	0.464710650	0.005925245	0.061129656	0.018840754
2020-09-23T18:15:00	0.1811	13.740	208.0	0.408845973	0.463807216	0.005908392	0.060955790	0.018787166
2020-09-23T18:20:00	0.1813	13.732	208.0	0.409399702	0.464710650	0.005925245	0.061129656	0.018840754
2020-09-23T18:25:00	0.1816	13.725	208.0	0.410229933	0.466066785	0.005950567	0.061390904	0.018921273
2020-09-23T18:30:00	0.1812	13.718	208.0	0.409122862	0.464258868	0.005916815	0.061042693	0.018813951
2020-09-23T18:35:00	0.1813	13.712	208.0	0.409399702	0.464710650	0.005925245	0.061129656	0.018840754
2020-09-23T18:40:00	0.1816	13.706	208.0	0.410229933	0.466066785	0.005950567	0.061390904	0.018921273
2020-09-23T18:45:00	0.1817	13.703	208.0	0.410506580	0.466519092	0.005959020	0.061478106	0.018948149
2020-09-23T18:50:00	0.1812	13.700	208.0	0.409122862	0.464258868	0.005916815	0.061042693	0.018813951
2020-09-23T18:55:00	0.1814	13.697	209.0	0.409676494	0.465162564	0.005933680	0.061216679	0.018867575
2020-09-23T19:00:00	0.1809	13.692	208.0	0.408292049	0.462904307	0.005891562	0.060782163	0.018733653
2020-09-23T19:05:00	0.1812	13.685	209.0	0.409122862	0.464258868	0.005916815	0.061042693	0.018813951
2020-09-23T19:10:00	0.1812	13.679	208.0	0.409122862	0.464258868	0.005916815	0.061042693	0.018813951
2020-09-23T19:15:00	0.1808	13.672	209.0	0.408015015	0.462453049	0.005883156	0.060695439	0.018706924
2020-09-23T19:20:00	0.1810	13.666	209.0	0.408569035	0.463355696	0.005899974	0.060868946	0.018760400
2020-09-23T19:25:00	0.1810	13.659	209.0	0.408569035	0.463355696	0.005899974	0.060868946	0.018760400
2020-09-23T19:30:00	0.1809	13.652	209.0	0.408292049	0.462904307	0.005891562	0.060782163	0.018733653
2020-09-23T19:35:00	0.1802	13.645	209.0	0.406351785	0.459748257	0.005832842	0.060176351	0.018546936
2020-09-23T19:40:00	0.1801	13.641	209.0	0.406074409	0.459297917	0.005824476	0.060090046	0.018520336
2020-09-23T19:45:00	0.1802	13.636	209.0	0.406351785	0.459748257	0.005832842	0.060176351	0.018546936
2020-09-23T19:50:00	0.1800	13.632	209.0	0.405796984	0.458847708	0.005816116	0.060003800	0.018493754
2020-09-23T19:55:00	0.1805	13.627	210.0	0.407183619	0.461100063	0.005857973	0.060435626	0.018626847
2020-09-23T20:00:00	0.1803	13.623	210.0	0.406629112	0.460198727	0.005841213	0.060262716	0.018573554
2020-09-23T20:05:00	0.1804	13.617	210.0	0.406906390	0.460649329	0.005849590	0.060349141	0.018600191
2020-09-23T20:10:00	0.1804	13.608	209.0	0.406906390	0.460649329	0.005849590	0.060349141	0.018600191
2020-09-23T20:15:00	0.1799	13.599	209.0	0.405519511	0.458397631	0.005807762	0.059917614	0.018467191
2020-09-23T20:20:00	0.1793	13.590	209.0	0.403853637	0.455699922	0.005757760	0.059401753	0.018308197
2020-09-23T20:25:00	0.1792	13.582	210.0	0.403575820	0.455250762	0.005749447	0.059315986	0.018281763
2020-09-23T20:30:00	0.1788	13.574	209.0	0.402464055	0.453455438	0.005716251	0.058973512	0.018176209
2020-09-23T20:35:00	0.1798	13.567	209.0	0.405241988	0.457947685	0.005799414	0.059831488	0.018440646
2020-09-23T20:40:00	0.1799	13.558	210.0	0.405519511	0.458397631	0.005807762	0.059917614	0.018467191
2020-09-23T20:45:00	0.1803	13.549	209.0	0.406629112	0.460198727	0.005841213	0.060262716	0.018573554
2020-09-23T20:50:00	0.1803	13.543	209.0	0.406629112	0.460198727	0.005841213	0.060262716	0.018573554
2020-09-23T20:55:00	0.1801	13.535	210.0	0.406074409	0.459297917	0.005824476	0.060090046	0.018520336
2020-09-23T21:00:00	0.1800	13.527	210.0	0.405796984	0.458847708	0.005816116	0.060003800	0.018493754
2020-09-23T21:05:00	0.1800	13.518	210.0	0.405796984	0.458847708	0.005816116	0.060003800	0.018493754
2020-09-23T21:10:00	0.1798	13.508	210.0	0.405241988	0.457947685	0.005799414	0.059831488	0.018440646
2020-09-23T21:15:00	0.1798	13.499	210.0	0.405241988	0.457947685	0.005799414	0.059831488	0.018440646
2020-09-23T21:20:00	0.1796	13.490	210.0	0.404686795	0.457048186	0.005782735	0.059659415	0.018387611
2020-09-23T21:25:00	0.1793	13.480	210.0	0.403853637	0.455699922	0.005757760	0.059401753	0.018308197
2020-09-23T21:30:00	0.1791	13.470	210.0	0.403297953	0.454801734	0.005741139	0.059230278	0.018255347
2020-09-23T21:35:00	0.1790	13.460	210.0	0.403020036	0.454352838	0.005732838	0.059144629	0.018228949
2020-09-23T21:40:00	0.1788	13.449	210.0	0.402464055	0.453455438	0.005716251	0.058973512	0.018176209
2020-09-23T21:45:00	0.1784	13.439	210.0	0.401351498	0.451662211	0.005683148	0.058631994	0.018070950
2020-09-23T21:50:00	0.1785	13.428	210.0	0.401629712	0.452110321	0.005691415	0.058717284	0.018097237
2020-09-23T21:55:00	0.1787	13.417	210.0	0.402185990	0.453006934	0.005707967	0.058888043	0.018149867
2020-09-23T22:00:00	0.1785	13.407	210.0	0.401629712	0.452110321	0.005691415	0.058717284	0.018097237
2020-09-23T22:05:00	0.1793	13.398	210.0	0.403811822	0.455632303	0.005756509	0.059388839	0.018304217
2020-09-23T22:10:00	0.1792	13.389	210.0	0.403492172	0.455115567	0.005746945	0.059290177	0.018273808
2020-09-23T22:15:00	0.1787	13.380	210.0	0.402338492	0.453252886	0.005712510	0.058934908	0.018164311
2020-09-23T22:20:00	0.1789	13.371	210.0	0.402852677	0.454082617	0.005727842	0.059093089	0.018213064
2020-09-23T22:25:00	0.1790	13.362	211.0	0.403088788	0.454463868	0.005734891	0.059165810	0.018235477
2020-09-23T22:30:00	0.1788	13.352	211.0	0.402490980	0.453498878	0.005717054	0.058981792	0.018178761
2020-09-23T22:35:00	0.1789	13.344	211.0	0.402727146	0.453879983	0.005724096	0.059054448	0.018201154
2020-09-23T22:40:00	0.1789	13.336	211.0	0.402685300	0.453812444	0.005722848	0.059041570	0.018197185
2020-09-23T22:45:00	0.1790	13.329	210.0	0.403199370	0.454642478	0.005738194	0.059199888	0.018245980
2020-09-23T22:50:00	0.1782	13.322	210.0	0.400932618	0.450987934	0.005670715	0.058503722	0.018031415
2020-09-23T22:55:00	0.1776	13.316	211.0	0.399219902	0.448235921	0.005620049	0.057981008	0.017870310
2020-09-23T23:00:00	0.1772	13.310	211.0	0.398063051	0.446381600	0.005585982	0.057629543	0.017761985
2020-09-23T23:05:00	0.1771	13.305	211.0	0.397742218	0.445867982	0.005576556	0.057532299	0.017732013
2020-09-23T23:10:00	0.1768	13.299	211.0	0.396863331	0.444462412	0.005550784	0.057266415	0.017650065
2020-09-23T23:15:00	0.1765	13.295	211.0	0.395983943	0.443058144	0.005525070	0.057001124	0.017568300
2020-09-23T23:20:00	0.1756	13.291	211.0	0.393706604	0.439431293	0.005458811	0.056317551	0.017357616
2020-09-23T23:25:00	0.1750	13.286	211.0	0.391985847	0.436700178	0.005409066	0.055804335	0.017199438
2020-09-23T23:30:00	0.1753	13.282	211.0	0.392783296	0.437964858	0.005432085	0.056041822	0.017272634
2020-09-23T23:35:00	0.1758	13.276	211.0	0.394139508	0.440119644	0.005471369	0.056447110	0.017397548
2020-09-23T23:40:00	0.1758	13.270	211.0	0.394097429	0.440052714	0.005470148	0.056434509	0.017393664
2020-09-23T23:45:00	0.1757	13.263	211.0	0.393775771	0.439541239	0.005460817	0.056338239	0.017363992
2020-09-23T23:50:00	0.1758	13.256	211.0	0.394013269	0.439918861	0.005467706	0.056409311	0.017385897
2020-09-23T23:55:00	0.1756	13.249	211.0	0.393691592	0.439407432	0.005458376	0.056313061	0.017356232
2020-09-24T00:00:00	0.1755	13.241	211.0	0.393369849	0.438896177	0.005449054	0.056216891	0.017326592
2020-09-24T00:05:00	0.1748	13.233	211.0	0.391368695	0.435722614	0.005391291	0.055620959	0.017142920
2020-09-24T00:10:00	0.1747	13.223	211.0	0.391046463	0.435212612	0.005382025	0.055525357	0.017113454
2020-09-24T00:15:00	0.1749	13.214	211.0	0.391564418	0.436032527	0.005396924	0.055679075	0.017160832
2020-09-24T00:20:00	0.1745	13.203	211.0	0.390401794	0.434193127	0.005363514	0.055334390	0.017054596
2020-09-24T00:25:00	0.1740	13.193	211.0	0.389238283	0.432355987	0.005330204	0.054990730	0.016948677
2020-09-24T00:30:00	0.1742	13.181	211.0	0.389756853	0.433174337	0.005345035	0.055143738	0.016995836
2020-09-24T00:35:00	0.1735	13.169	211.0	0.387750953	0.430012877	0.005287804	0.054553299	0.016813857
2020-09-24T00:40:00	0.1740	13.157	211.0	0.389111639	0.432156241	0.005326586	0.054953402	0.016937172
2020-09-24T00:45:00	0.1737	13.144	211.0	0.388227789	0.430763424	0.005301375	0.054693311	0.016857009
2020-09-24T00:50:00	0.1733	13.131	211.0	0.387062613	0.428930504	0.005268250	0.054351566	0.016751680
2020-09-24T00:55:00	0.1730	13.117	211.0	0.386177569	0.427540705	0.005243172	0.054092843	0.016671940
2020-09-24T01:00:00	0.1732	13.103	211.0	0.386978064	0.428797644	0.005265851	0.054326818	0.016744053
2020-09-24T01:05:00	0.1732	13.090	211.0	0.386935788	0.428731218	0.005264652	0.054314446	0.016740240
2020-09-24T01:10:00	0.1738	13.075	211.0	0.388577787	0.431314717	0.005311350	0.054796216	0.016888726
2020-09-24T01:15:00	0.1740	13.060	210.0	0.389096582	0.432132496	0.005326156	0.054948965	0.016935805
2020-09-24T01:20:00	0.1743	13.045	211.0	0.389895540	0.433393321	0.005349005	0.055184702	0.017008461
2020-09-24T01:25:00	0.1741	13.030	211.0	0.389292597	0.432441664	0.005331756	0.055006744	0.016953613
2020-09-24T01:30:00	0.1743	13.015	210.0	0.390091453	0.433702751	0.005354617	0.055242600	0.017026306
2020-09-24T01:35:00	0.1743	13.000	210.0	0.390049263	0.433636106	0.005353409	0.055230129	0.017022462
2020-09-24T01:40:00	0.1742	12.983	210.0	0.389726752	0.433126814	0.005344173	0.055134850	0.016993096
2020-09-24T01:45:00	0.1747	12.967	210.0	0.391085675	0.435274658	0.005383152	0.055536985	0.017117038
2020-09-24T01:50:00	0.1750	12.953	210.0	0.391883592	0.436538136	0.005406118	0.055773927	0.017190066
2020-09-24T01:55:00	0.1756	12.936	210.0	0.393520277	0.439135174	0.005453412	0.056261842	0.017340446
2020-09-24T02:00:00	0.1761	12.919	210.0	0.394875838	0.441291636	0.005492770	0.056667891	0.017465594
2020-09-24T02:05:00	0.1761	12.905	210.0	0.395113167	0.441669697	0.005499678	0.056739162	0.017487561
2020-09-24T02:10:00	0.1762	12.887	210.0	0.395350459	0.442047853	0.005506590	0.056810476	0.017509540
2020-09-24T02:15:00	0.1765	12.870	210.0	0.396146163	0.443317030	0.005529808	0.057050006	0.017583366
2020-09-24T02:20:00	0.1763	12.852	210.0	0.395545675	0.442359070	0.005512281	0.056869186	0.017527635
2020-09-24T02:25:00	0.1768	12.834	209.0	0.396899456	0.444520143	0.005551842	0.057277329	0.017653429
2020-09-24T02:30:00	0.1776	12.818	210.0	0.399088208	0.448024644	0.005616164	0.057940932	0.017857958
2020-09-24T02:35:00	0.1772	12.800	210.0	0.397931258	0.446170580	0.005582109	0.057589584	0.017749669
2020-09-24T02:40:00	0.1775	12.784	210.0	0.399004319	0.447890086	0.005613691	0.057915413	0.017850093
2020-09-24T02:45:00	0.1775	12.766	209.0	0.398962373	0.447822811	0.005612454	0.057902656	0.017846161
2020-09-24T02:50:00	0.1775	12.751	209.0	0.398920425	0.447755539	0.005611218	0.057889899	0.017842229
2020-09-24T02:55:00	0.1780	12.734	210.0	0.400271259	0.449924307	0.005651118	0.058301542	0.017969101
2020-09-24T03:00:00	0.1783	12.719	209.0	0.401064441	0.451200079	0.005674626	0.058544071	0.018043851
2020-09-24T03:05:00	0.1784	12.703	209.0	0.401300822	0.451580613	0.005681643	0.058616466	0.018066164
2020-09-24T03:10:00	0.1780	12.689	210.0	0.400423949	0.450169764	0.005655639	0.058348182	0.017983476
2020-09-24T03:15:00	0.1784	12.674	209.0	0.401495290	0.451893787	0.005687420	0.058676066	0.018084533
2020-09-24T03:20:00	0.1788	12.660	210.0	0.402565896	0.453619754	0.005719287	0.059004834	0.018185863
2020-09-24T03:25:00	0.1785	12.646	209.0	0.401689734	0.452207025	0.005693200	0.058735694	0.018102911
2020-09-24T03:30:00	0.1782	12.632	209.0	0.400813080	0.450795599	0.005667170	0.058467147	0.018020143
2020-09-24T03:35:00	0.1783	12.620	209.0	0.401049500	0.451176032	0.005674183	0.058539497	0.018042441
2020-09-24T03:40:00	0.1780	12.607	209.0	0.400172485	0.449765556	0.005648195	0.058271382	0.017959806
2020-09-24T03:45:00	0.1777	12.594	208.0	0.399573557	0.448803523	0.005630488	0.058088710	0.017903504
2020-09-24T03:50:00	0.1774	12.581	208.0	0.398695709	0.447395238	0.005604597	0.057821592	0.017821176
2020-09-24T03:55:00	0.1778	12.571	209.0	0.399768241	0.449116129	0.005636240	0.058148050	0.017921794
2020-09-24T04:00:00	0.1775	12.557	208.0	0.398890503	0.447707555	0.005610336	0.057880801	0.017839425
2020-09-24T04:05:00	0.1769	12.547	208.0	0.397343501	0.445230069	0.005564855	0.057411586	0.017694808
2020-09-24T04:10:00	0.1771	12.537	208.0	0.397748378	0.445877840	0.005576737	0.057534165	0.017732588
2020-09-24T04:15:00	0.1765	12.527	209.0	0.396200233	0.443403335	0.005531387	0.057066305	0.017588389
2020-09-24T04:20:00	0.1758	12.514	208.0	0.394091540	0.440043347	0.005469977	0.056432745	0.017393120
2020-09-24T04:25:00	0.1755	12.502	208.0	0.393378972	0.438910669	0.005449319	0.056219616	0.017327432
2020-09-24T04:30:00	0.1757	12.490	208.0	0.393784891	0.439555738	0.005461081	0.056340967	0.017364833
2020-09-24T04:35:00	0.1759	12.478	208.0	0.394470207	0.440645825	0.005480974	0.056546202	0.017428089
2020-09-24T04:40:00	0.1760	12.465	208.0	0.394596409	0.440846704	0.005484643	0.056584046	0.017439752
2020-09-24T04:45:00	0.1758	12.451	208.0	0.394163634	0.440158021	0.005472070	0.056454336	0.017399775
2020-09-24T04:50:00	0.1752	12.436	208.0	0.392611878	0.437692860	0.005427132	0.055990722	0.017256884
2020-09-24T04:55:00	0.1739	12.421	208.0	0.388816095	0.431690271	0.005318148	0.054866349	0.016910342
2020-09-24T05:00:00	0.1733	12.407	206.0	0.387258891	0.429239009	0.005273821	0.054409044	0.016769396
2020-09-24T05:05:00	0.1723	12.393	207.0	0.384293981	0.424589909	0.005190040	0.053544685	0.016502992
2020-09-24T05:10:00	0.1715	12.382	207.0	0.382168717	0.421271985	0.005130480	0.052930214	0.016313606
2020-09-24T05:15:00	0.1716	12.368	208.0	0.382295945	0.421470268	0.005134034	0.052966879	0.016324906
2020-09-24T05:20:00	0.1713	12.357	208.0	0.381577817	0.420351641	0.005113993	0.052760124	0.016261183
2020-09-24T05:25:00	0.1714	12.345	207.0	0.381705094	0.420549800	0.005117542	0.052796733	0.016272466
2020-09-24T05:30:00	0.1713	12.332	207.0	0.381550521	0.420309150	0.005113232	0.052752275	0.016258763
2020-09-24T05:35:00	0.1710	12.320	207.0	0.380550009	0.418753038	0.005085392	0.052465052	0.016170239
2020-09-24T05:40:00	0.1706	12.309	207.0	0.379548827	0.417198578	0.005057624	0.052178577	0.016081944
2020-09-24T05:45:00	0.1693	12.298	207.0	0.376002909	0.411714724	0.004960010	0.051171504	0.015771554
2020-09-24T05:50:00	0.1682	12.287	207.0	0.372732068	0.406686138	0.004870974	0.050252945	0.015488446
2020-09-24T05:55:00	0.1679	12.277	207.0	0.372009306	0.405578822	0.004851430	0.050051310	0.015426300
2020-09-24T06:00:00	0.1674	12.268	207.0	0.370434482	0.403170922	0.004809007	0.049613643	0.015291407
2020-09-24T06:05:00	0.1673	12.258	207.0	0.370278730	0.402933138	0.004804824	0.049570482	0.015278104
2020-09-24T06:10:00	0.1667	12.251	212.0	0.368417699	0.400096925	0.004755004	0.049056495	0.015119688
2020-09-24T06:15:00	0.1657	12.244	212.0	0.365699828	0.395971449	0.004682801	0.048311593	0.014890102
2020-09-24T06:20:00	0.1662	12.240	209.0	0.366967560	0.397893304	0.004716397	0.048658202	0.014996930
2020-09-24T06:25:00	0.1666	12.238	209.0	0.368234191	0.399817758	0.004750108	0.049005986	0.015104121
2020-09-24T06:30:00	0.1662	12.238	208.0	0.366939993	0.397851468	0.004715665	0.048650649	0.014994603
2020-09-24T06:35:00	0.1662	12.240	208.0	0.367068536	0.398046565	0.004719080	0.048685873	0.015005459
2020-09-24T06:40:00	0.1663	12.247	208.0	0.367481654	0.398673877	0.004730062	0.048799181	0.015040382
2020-09-24T06:45:00	0.1664	12.255	214.0	0.367610149	0.398869087	0.004733481	0.048834456	0.015051254
2020-09-24T06:50:00	0.1662	12.267	207.0	0.367169506	0.398199843	0.004721762	0.048713552	0.015013990
2020-09-24T06:55:00	0.1662	12.280	208.0	0.367013406	0.397962886	0.004717615	0.048670765	0.015000802
2020-09-24T07:00:00	0.1656	12.294	207.0	0.365433194	0.395567780	0.004675753	0.048238880	0.014867691
2020-09-24T07:05:00	0.1661	12.305	208.0	0.366701158	0.397489089	0.004709325	0.048585243	0.014974444
2020-09-24T07:10:00	0.1664	12.318	212.0	0.367683528	0.398980585	0.004735435	0.048854607	0.015057464
2020-09-24T07:15:00	0.1665	12.331	212.0	0.367812006	0.399175837	0.004738856	0.048889901	0.015068342
2020-09-24T07:20:00	0.1659	12.346	213.0	0.366232660	0.396778690	0.004696904	0.048457094	0.014934947
2020-09-24T07:25:00	0.1662	12.361	206.0	0.367215346	0.398269441	0.004722981	0.048726122	0.015017864
2020-09-24T07:30:00	0.1654	12.377	207.0	0.364780345	0.394580202	0.004658523	0.048061120	0.014812904
2020-09-24T07:35:00	0.1657	12.396	207.0	0.365764011	0.396068645	0.004684498	0.048329105	0.014895500
2020-09-24T07:40:00	0.1656	12.414	208.0	0.365322809	0.395400718	0.004672837	0.048208797	0.014858419
2020-09-24T07:45:00	0.1654	12.435	208.0	0.364881473	0.394733106	0.004661189	0.048088630	0.014821383
2020-09-24T07:50:00	0.1651	12.452	208.0	0.363869584	0.393204366	0.004634549	0.047813787	0.014736674
2020-09-24T07:55:00	0.1653	12.474	208.0	0.364568766	0.394260386	0.004652947	0.048003595	0.014795174
2020-09-24T08:00:00	0.1651	12.497	208.0	0.363841958	0.393162668	0.004633823	0.047806297	0.014734365
2020-09-24T08:05:00	0.1652	12.522	208.0	0.364255993	0.393787824	0.004644711	0.047918631	0.014768987
2020-09-24T08:10:00	0.1649	12.554	208.0	0.363243667	0.392260104	0.004618116	0.047644249	0.014684420
2020-09-24T08:15:00	0.1660	12.591	208.0	0.366508146	0.397196347	0.004704206	0.048532424	0.014958164
2020-09-24T08:20:00	0.1658	12.626	209.0	0.366067169	0.396527890	0.004692521	0.048411875	0.014921010
2020-09-24T08:25:00	0.1663	12.661	209.0	0.367334581	0.398450498	0.004726151	0.048758825	0.015027943
2020-09-24T08:30:00	0.1674	12.694	213.0	0.370589927	0.403408303	0.004813185	0.049656742	0.015304690
2020-09-24T08:35:00	0.1677	12.726	209.0	0.371285901	0.404471916	0.004831915	0.049849980	0.015364248
2020-09-24T08:40:00	0.1678	12.751	209.0	0.371697831	0.405102053	0.004843022	0.049964565	0.015399564
2020-09-24T08:45:00	0.1676	12.777	209.0	0.370974562	0.403995957	0.004823531	0.049763481	0.015337588
2020-09-24T08:50:00	0.1676	12.804	210.0	0.371102751	0.404191895	0.004826982	0.049799085	0.015348562
2020-09-24T08:55:00	0.1669	12.840	209.0	0.368958522	0.400920189	0.004769450	0.049205532	0.015165623
2020-09-24T09:00:00	0.1671	12.874	209.0	0.369655270	0.401981956	0.004788099	0.049397936	0.015224924
2020-09-24T09:05:00	0.1669	12.906	210.0	0.368930993	0.400878264	0.004768714	0.049197940	0.015163283
2020-09-24T09:10:00	0.1667	12.936	210.0	0.368490748	0.400208077	0.004756953	0.049076610	0.015125888
2020-09-24T09:15:00	0.1664	12.969	210.0	0.367765894	0.399105755	0.004737628	0.048877232	0.015064438
2020-09-24T09:20:00	0.1666	12.998	210.0	0.368178815	0.399733533	0.004748631	0.048990750	0.015099425
2020-09-24T09:25:00	0.1661	13.022	211.0	0.366884568	0.397767359	0.004714194	0.048635466	0.014989923
2020-09-24T09:30:00	0.1659	13.061	211.0	0.366158917	0.396666924	0.004694951	0.048436941	0.014928736
2020-09-24T09:35:00	0.1660	13.094	211.0	0.366572292	0.397293628	0.004705907	0.048549974	0.014963573
2020-09-24T09:40:00	0.1668	13.125	211.0	0.368692483	0.400515115	0.004762340	0.049132185	0.015143017
2020-09-24T09:45:00	0.1671	13.150	211.0	0.369673517	0.402009780	0.004788588	0.049402981	0.015226479
2020-09-24T09:50:00	0.1682	13.172	211.0	0.372640152	0.406545240	0.004868486	0.050227276	0.015480534
2020-09-24T09:55:00	0.1677	13.200	211.0	0.371349838	0.404569694	0.004833638	0.049867755	0.015369726
2020-09-24T10:00:00	0.1679	13.228	212.0	0.372045453	0.405634168	0.004852406	0.050061383	0.015429404
2020-09-24T10:05:00	0.1695	13.259	212.0	0.376331964	0.412222198	0.004969020	0.051264464	0.015800206
2020-09-24T10:10:00	0.1706	13.283	212.0	0.379477537	0.417087994	0.005055651	0.052158215	0.016075668
2020-09-24T10:15:00	0.1711	13.326	212.0	0.380925555	0.419336815	0.005095831	0.052572752	0.016203433
2020-09-24T10:20:00	0.1706	13.368	212.0	0.379552407	0.417204132	0.005057723	0.052179600	0.016082260
2020-09-24T10:25:00	0.1712	13.402	212.0	0.381282295	0.419891710	0.005105760	0.052675181	0.016235002
2020-09-24T10:30:00	0.1712	13.430	212.0	0.381319686	0.419949889	0.005106801	0.052685924	0.016238313
2020-09-24T10:35:00	0.1719	13.462	212.0	0.383329095	0.423082039	0.005162948	0.053265183	0.016416847
2020-09-24T10:40:00	0.1719	13.499	212.0	0.383084883	0.422700795	0.005156105	0.053194580	0.016395086
2020-09-24T10:45:00	0.1720	13.527	213.0	0.383403773	0.423198652	0.005165042	0.053286784	0.016423504
2020-09-24T10:50:00	0.1722	13.549	213.0	0.384004029	0.424136524	0.005181890	0.053460601	0.016477077
2020-09-24T10:55:00	0.1726	13.564	213.0	0.385166529	0.425955638	0.005214612	0.053798196	0.016581126
2020-09-24T11:00:00	0.1732	13.583	213.0	0.386889979	0.428659247	0.005263353	0.054301042	0.016736108
2020-09-24T11:05:00	0.1734	13.610	213.0	0.387488851	0.429600587	0.005280353	0.054476432	0.016790165
2020-09-24T11:10:00	0.1729	13.632	213.0	0.386121680	0.427453012	0.005241591	0.054076530	0.016666912
2020-09-24T11:15:00	0.1730	13.650	214.0	0.386439929	0.427952472	0.005250599	0.054169461	0.016695554
2020-09-24T11:20:00	0.1737	13.661	214.0	0.388161931	0.430659726	0.005299500	0.054673960	0.016851045
2020-09-24T11:25:00	0.1737	13.673	213.0	0.388199152	0.430718330	0.005300560	0.054684896	0.016854416
2020-09-24T11:30:00	0.1740	13.692	214.0	0.389077999	0.432103190	0.005325625	0.054943489	0.016934117
2020-09-24T11:35:00	0.1743	13.713	213.0	0.389956339	0.433489337	0.005350747	0.055202666	0.017013998
2020-09-24T11:40:00	0.1746	13.734	213.0	0.390834173	0.434876771	0.005375925	0.055462428	0.017094059
2020-09-24T11:45:00	0.1750	13.754	214.0	0.391991459	0.436709072	0.005409228	0.055806004	0.017199953
2020-09-24T11:50:00	0.1754	13.771	215.0	0.393147870	0.438543613	0.005442629	0.056150598	0.017306160
2020-09-24T11:55:00	0.1755	13.788	214.0	0.393184969	0.438602527	0.005443702	0.056161674	0.017309573
2020-09-24T12:00:00	0.1749	13.816	214.0	0.391542915	0.435998474	0.005396305	0.055672689	0.017158863
2020-09-24T12:05:00	0.1754	13.837	214.0	0.392979440	0.438276189	0.005437756	0.056100329	0.017290666
2020-09-24T12:10:00	0.1755	13.855	214.0	0.393296261	0.438779284	0.005446924	0.056194909	0.017319817
2020-09-24T12:15:00	0.1765	13.871	215.0	0.396127665	0.443287505	0.005529267	0.057044431	0.017581648
2020-09-24T12:20:00	0.1765	13.881	215.0	0.396164692	0.443346605	0.005530349	0.057055591	0.017585087
2020-09-24T12:25:00	0.1761	13.898	215.0	0.395084658	0.441624275	0.005498848	0.056730598	0.017484921
2020-09-24T12:30:00	0.1769	13.908	215.0	0.397354970	0.445248412	0.005565192	0.057415056	0.017695878
2020-09-24T12:35:00	0.1776	13.919	215.0	0.399064759	0.447987029	0.005615473	0.057933798	0.017855759
2020-09-24T12:40:00	0.1773	13.928	215.0	0.398265566	0.446705949	0.005591936	0.057690976	0.017780919
2020-09-24T12:45:00	0.1769	13.930	215.0	0.397187000	0.444979799	0.005560267	0.057364246	0.017680218
2020-09-24T12:50:00	0.1768	13.934	215.0	0.396944997	0.444592929	0.005553176	0.057291090	0.017657670
2020-09-24T12:55:00	0.1778	13.945	215.0	0.399769724	0.449118510	0.005636284	0.058148502	0.017921933
2020-09-24T13:00:00	0.1780	13.957	215.0	0.400363594	0.450072732	0.005653851	0.058329743	0.017977793
2020-09-24T13:05:00	0.1773	13.970	215.0	0.398450437	0.447002137	0.005597376	0.057747092	0.017798214
2020-09-24T13:10:00	0.1769	13.979	215.0	0.397093022	0.444829545	0.005557512	0.057335831	0.017671460
2020-09-24T13:15:00	0.1764	13.987	215.0	0.395734414	0.442660061	0.005517786	0.056925982	0.017545141
2020-09-24T13:20:00	0.1763	13.991	215.0	0.395492183	0.442273783	0.005510721	0.056853095	0.017522676
2020-09-24T13:25:00	0.1768	13.997	215.0	0.396925024	0.444561006	0.005552591	0.057285055	0.017655810
2020-09-24T13:30:00	0.1771	14.004	215.0	0.397798885	0.445958679	0.005578220	0.057549467	0.017737305
2020-09-24T13:35:00	0.1763	14.015	215.0	0.395603308	0.442450970	0.005513962	0.056886525	0.017532980
2020-09-24T13:40:00	0.1761	14.027	215.0	0.395081715	0.441619586	0.005498762	0.056729714	0.017484649
2020-09-24T13:45:00	0.1753	14.039	215.0	0.392882258	0.438121923	0.005434946	0.056071337	0.017281731
2020-09-24T13:50:00	0.1757	14.047	215.0	0.393758416	0.439513651	0.005460313	0.056333048	0.017362392
2020-09-24T13:55:00	0.1756	14.059	215.0	0.393515874	0.439128178	0.005453284	0.056260526	0.017340041
2020-09-24T14:00:00	0.1755	14.063	216.0	0.393273293	0.438742804	0.005446259	0.056188049	0.017317702
2020-09-24T14:05:00	0.1754	14.064	216.0	0.393030675	0.438357528	0.005439238	0.056115617	0.017295378
2020-09-24T14:10:00	0.1756	14.062	216.0	0.393627141	0.439304996	0.005456508	0.056293789	0.017350292
2020-09-24T14:15:00	0.1752	14.059	216.0	0.392545322	0.437587273	0.005425210	0.055970888	0.017250771
2020-09-24T14:20:00	0.1752	14.058	216.0	0.392582435	0.437646149	0.005426282	0.055981947	0.017254180
2020-09-24T14:25:00	0.1744	14.055	216.0	0.390099135	0.433714887	0.005354837	0.055244871	0.017027006
2020-09-24T14:30:00	0.1739	14.055	216.0	0.388734312	0.431561370	0.005315814	0.054842275	0.016902922
2020-09-24T14:35:00	0.1740	14.052	216.0	0.389052014	0.432062214	0.005324883	0.054935833	0.016931757
2020-09-24T14:40:00	0.1736	14.050	215.0	0.387966946	0.430352778	0.005293949	0.054616694	0.016833395
2020-09-24T14:45:00	0.1729	14.048	216.0	0.386038255	0.427322131	0.005239232	0.054052186	0.016659409
2020-09-24T14:50:00	0.1732	14.046	216.0	0.386918355	0.428703829	0.005264158	0.054309345	0.016738667
2020-09-24T14:55:00	0.1727	14.047	216.0	0.385550668	0.426557550	0.005225453	0.053910031	0.016615595
2020-09-24T15:00:00	0.1721	14.045	216.0	0.383900343	0.423974450	0.005178977	0.053430552	0.016467815
2020-09-24T15:05:00	0.1730	14.043	216.0	0.386187340	0.427556037	0.005243449	0.054095696	0.016672819
2020-09-24T15:10:00	0.1733	14.044	216.0	0.387067353	0.428937952	0.005268385	0.054352953	0.016752108
2020-09-24T15:15:00	0.1734	14.042	216.0	0.387385404	0.429437914	0.005277414	0.054446111	0.016780820
2020-09-24T15:20:00	0.1728	14.040	216.0	0.385737081	0.426849787	0.005230718	0.053964353	0.016632338
2020-09-24T15:25:00	0.1725	14.037	216.0	0.384930896	0.425586619	0.005207970	0.053729664	0.016560004
2020-09-24T15:30:00	0.1719	14.034	216.0	0.383279893	0.423005215	0.005161569	0.053250954	0.016412461
2020-09-24T15:35:00	0.1717	14.029	216.0	0.382754058	0.422184596	0.005146843	0.053099027	0.016365636
2020-09-24T15:40:00	0.1718	14.023	216.0	0.382791412	0.422242866	0.005147888	0.053109811	0.016368960
2020-09-24T15:45:00	0.1705	14.017	215.0	0.379163150	0.416600485	0.005046952	0.052068472	0.016048009
2020-09-24T15:50:00	0.1707	14.012	216.0	0.379765105	0.417534149	0.005063615	0.052240383	0.016100993
2020-09-24T15:55:00	0.1713	14.004	216.0	0.381494747	0.420222333	0.005111678	0.052736239	0.016253821
2020-09-24T16:00:00	0.1714	13.996	216.0	0.381813975	0.420719352	0.005120578	0.052828062	0.016282122
2020-09-24T16:05:00	0.1721	13.988	216.0	0.383645702	0.423576539	0.005171828	0.053356799	0.016445084
2020-09-24T16:10:00	0.1731	13.980	215.0	0.386599315	0.428202716	0.005255114	0.054216039	0.016709910
2020-09-24T16:15:00	0.1735	13.971	215.0	0.387583261	0.429749074	0.005283036	0.054504112	0.016798697
2020-09-24T16:20:00	0.1739	13.962	215.0	0.388847104	0.431739150	0.005319033	0.054875479	0.016913156
2020-09-24T16:25:00	0.1753	13.953	215.0	0.392630292	0.437722074	0.005427664	0.055996209	0.017258576
2020-09-24T16:30:00	0.1756	13.945	215.0	0.393610355	0.439278318	0.005456022	0.056288770	0.017348746
2020-09-24T16:35:00	0.1771	13.936	215.0	0.397660752	0.445737607	0.005574164	0.057507622	0.017724408
2020-09-24T16:40:00	0.1778	13.926	215.0	0.399752121	0.449090241	0.005635764	0.058143135	0.017920279
2020-09-24T16:45:00	0.1781	13.917	215.0	0.400449302	0.450210525	0.005656390	0.058355928	0.017985864
2020-09-24T16:50:00	0.1787	13.905	215.0	0.402258873	0.453124470	0.005710138	0.058910438	0.018156769
2020-09-24T16:55:00	0.1797	13.892	215.0	0.404899394	0.457392530	0.005789119	0.059725271	0.018407909
2020-09-24T17:00:00	0.1805	13.880	215.0	0.407258311	0.461221536	0.005860233	0.060458940	0.018634032
2020-09-24T17:05:00	0.1815	13.867	215.0	0.409890458	0.465512044	0.005940205	0.061284000	0.018888324
2020-09-24T17:10:00	0.1824	13.853	215.0	0.412518239	0.469814398	0.006020701	0.062114463	0.019144281
2020-09-24T17:15:00	0.1831	13.839	215.0	0.414314019	0.472765468	0.006076089	0.062685892	0.019320401
2020-09-24T17:20:00	0.1835	13.824	215.0	0.415556382	0.474812282	0.006114588	0.063083081	0.019442818
2020-09-24T17:25:00	0.1847	13.810	215.0	0.418725369	0.480052503	0.006213461	0.064103130	0.019757207
2020-09-24T17:30:00	0.1863	13.795	215.0	0.423260891	0.487600666	0.006356651	0.065580395	0.020212515
2020-09-24T17:35:00	0.1869	13.779	215.0	0.424770593	0.490125787	0.006404755	0.066076672	0.020365472
2020-09-24T17:40:00	0.1868	13.764	214.0	0.424634506	0.489897910	0.006400409	0.066031843	0.020351655
2020-09-24T17:45:00	0.1869	13.747	214.0	0.424772611	0.490129167	0.006404819	0.066077337	0.020365677
2020-09-24T17:50:00	0.1872	13.731	214.0	0.425732969	0.491738750	0.006435534	0.066394219	0.020463343
2020-09-24T17:55:00	0.1874	13.714	214.0	0.426144954	0.492430031	0.006448738	0.066530442	0.020505328
2020-09-24T18:00:00	0.1879	13.696	214.0	0.427651993	0.494962745	0.006497179	0.067030196	0.020659357
2020-09-24T18:05:00	0.1871	13.678	214.0	0.425324915	0.491054530	0.006422472	0.066259464	0.020421810
2020-09-24T18:10:00	0.1873	13.659	214.0	0.426010999	0.492205212	0.006444443	0.066486131	0.020491671
2020-09-24T18:15:00	0.1893	13.641	213.0	0.431345787	0.501197180	0.006616845	0.068264771	0.021039865
2020-09-24T18:20:00	0.1889	13.621	213.0	0.430390720	0.499581568	0.006585776	0.067944241	0.020941075
2020-09-24T18:25:00	0.1884	13.602	213.0	0.428888206	0.497045019	0.006537080	0.067441845	0.020786232
2020-09-24T18:30:00	0.1897	13.582	214.0	0.432577224	0.503284054	0.006657036	0.068679414	0.021167662
2020-09-24T18:35:00	0.1898	13.562	213.0	0.432714664	0.503517230	0.006661531	0.068725787	0.021181955
2020-09-24T18:40:00	0.1905	13.540	213.0	0.434760846	0.506994950	0.006728670	0.069418447	0.021395440
2020-09-24T18:45:00	0.1904	13.519	213.0	0.434353016	0.506300863	0.006715255	0.069280052	0.021352785
2020-09-24T18:50:00	0.1905	13.499	213.0	0.434762853	0.506998366	0.006728736	0.069419129	0.021395650
2020-09-24T18:55:00	0.1905	13.478	213.0	0.434627589	0.506768109	0.006724285	0.069373209	0.021381497
2020-09-24T19:00:00	0.1900	13.455	213.0	0.433401690	0.504683608	0.006684028	0.068957882	0.021253489
2020-09-24T19:05:00	0.1898	13.432	213.0	0.432720690	0.503527455	0.006661728	0.068727821	0.021182582
2020-09-24T19:10:00	0.1901	13.410	213.0	0.433676421	0.505150392	0.006693037	0.069050826	0.021282135
2020-09-24T19:15:00	0.1907	13.389	213.0	0.435176601	0.507702999	0.006742362	0.069559705	0.021438977
2020-09-24T19:20:00	0.1910	13.368	213.0	0.436130921	0.509330075	0.006773855	0.069884611	0.021539116
2020-09-24T19:25:00	0.1918	13.345	213.0	0.438172914	0.512820131	0.006841543	0.070582938	0.021754347
2020-09-24T19:30:00	0.1912	13.324	212.0	0.436677433	0.510263001	0.006791930	0.070071093	0.021596591
2020-09-24T19:35:00	0.1915	13.301	212.0	0.437358820	0.511427332	0.006814508	0.070304022	0.021668382
2020-09-24T19:40:00	0.1927	13.279	212.0	0.440757602	0.517254450	0.006927812	0.071472958	0.022028660
2020-09-24T19:45:00	0.1937	13.255	212.0	0.443984115	0.521694286	0.007021335	0.072437816	0.022326038
2020-09-24T19:50:00	0.1933	13.234	212.0	0.442763092	0.520060394	0.006986506	0.072078493	0.022215292
2020-09-24T19:55:00	0.1948	13.213	212.0	0.447825322	0.526841975	0.007131454	0.073573900	0.022676191
2020-09-24T20:00:00	0.1950	13.191	212.0	0.448698409	0.528013638	0.007156601	0.073833333	0.022756150
2020-09-24T20:05:00	0.1948	13.168	212.0	0.447827890	0.526845420	0.007131528	0.073574663	0.022676426
2020-09-24T20:10:00	0.1948	13.146	212.0	0.448003552	0.527081107	0.007136584	0.073626824	0.022692502
2020-09-24T20:15:00	0.1950	13.122	212.0	0.448527918	0.527784795	0.007151687	0.073782637	0.022740525
2020-09-24T20:20:00	0.1948	13.100	212.0	0.448006120	0.527084552	0.007136658	0.073627586	0.022692737
2020-09-24T20:25:00	0.1950	13.077	211.0	0.448530485	0.527788241	0.007151761	0.073783400	0.022740761
2020-09-24T20:30:00	0.1940	13.053	211.0	0.445217541	0.523345964	0.007056603	0.072801675	0.022438183
2020-09-24T20:35:00	0.1933	13.031	211.0	0.442600012	0.519842261	0.006981861	0.072030569	0.022200521
2020-09-24T20:40:00	0.1931	13.012	211.0	0.442077289	0.519143213	0.006966981	0.071877058	0.022153207
2020-09-24T20:45:00	0.1931	12.989	211.0	0.441903888	0.518911366	0.006962048	0.071826170	0.022137523
2020-09-24T20:50:00	0.1928	12.965	211.0	0.441043120	0.517745433	0.006937382	0.071571693	0.022059091
2020-09-24T20:55:00	0.1927	12.941	211.0	0.440636818	0.517046814	0.006923766	0.071431214	0.022015794
2020-09-24T21:00:00	0.1931	12.917	210.0	0.442082434	0.519150091	0.006967127	0.071878568	0.022153673
2020-09-24T21:05:00	0.1924	12.895	210.0	0.439823919	0.515650457	0.006896572	0.071150662	0.021929325
2020-09-24T21:10:00	0.1929	12.875	210.0	0.441386201	0.518219336	0.006947333	0.071674349	0.022090731
2020-09-24T21:15:00	0.1929	12.855	210.0	0.441212763	0.517987535	0.006942406	0.071623521	0.022075065
2020-09-24T21:20:00	0.1915	12.835	210.0	0.437515895	0.511695922	0.006819719	0.070357785	0.021684953
2020-09-24T21:25:00	0.1912	12.813	210.0	0.436564371	0.510069929	0.006788188	0.070032489	0.021584693
2020-09-24T21:30:00	0.1902	12.794	210.0	0.433977202	0.505661677	0.006702909	0.069152672	0.021313525
2020-09-24T21:35:00	0.1903	12.777	210.0	0.434114525	0.505895192	0.006707419	0.069199200	0.021327866
2020-09-24T21:40:00	0.1896	12.760	210.0	0.432342497	0.502885944	0.006649364	0.068600260	0.021143266
2020-09-24T21:45:00	0.1893	12.739	210.0	0.431388006	0.501268658	0.006618221	0.068278962	0.021044239
2020-09-24T21:50:00	0.1891	12.721	210.0	0.430979344	0.500576998	0.006604914	0.068141680	0.021001928
2020-09-24T21:55:00	0.1897	12.701	210.0	0.432481965	0.503122470	0.006653922	0.068647284	0.021157760
2020-09-24T22:00:00	0.1897	12.682	209.0	0.432619412	0.503355623	0.006658416	0.068693647	0.021172049
2020-09-24T22:05:00	0.1903	12.665	209.0	0.434089266	0.505852236	0.006706589	0.069190640	0.021325227
2020-09-24T22:10:00	0.1908	12.650	209.0	0.435557820	0.508352658	0.006754932	0.069689383	0.021478945
2020-09-24T22:15:00	0.1895	12.633	209.0	0.432119113	0.502507216	0.006642067	0.068524982	0.021120065
2020-09-24T22:20:00	0.1890	12.617	209.0	0.430586827	0.499913101	0.006592149	0.068009982	0.020961337
2020-09-24T22:25:00	0.1887	12.601	209.0	0.429873307	0.498707361	0.006568982	0.067770976	0.020887673
2020-09-24T22:30:00	0.1895	12.586	209.0	0.431891680	0.502121765	0.006634643	0.068448392	0.021096459
2020-09-24T22:35:00	0.1878	12.569	209.0	0.427350709	0.494455905	0.006487477	0.066930104	0.020628508
2020-09-24T22:40:00	0.1870	12.553	209.0	0.425265869	0.490955559	0.006420584	0.066239978	0.020415805
2020-09-24T22:45:00	0.1869	12.538	209.0	0.424824223	0.490215605	0.006406467	0.066094343	0.020370919
2020-09-24T22:50:00	0.1865	12.523	209.0	0.423833874	0.488558292	0.006374882	0.065768481	0.020270484
2020-09-24T22:55:00	0.1863	12.512	209.0	0.423117404	0.487360999	0.006352090	0.065533346	0.020198014
2020-09-24T23:00:00	0.1861	12.498	210.0	0.422675176	0.486622700	0.006338048	0.065388469	0.020153361
2020-09-24T23:05:00	0.1862	12.484	209.0	0.423056443	0.487259193	0.006350154	0.065513363	0.020191855
2020-09-24T23:10:00	0.1863	12.472	209.0	0.423163193	0.487437475	0.006353546	0.065548358	0.020202641
2020-09-24T23:15:00	0.1848	12.463	209.0	0.419148204	0.480753796	0.006226726	0.064239986	0.019799388
2020-09-24T23:20:00	0.1830	12.456	209.0	0.414019526	0.472280909	0.006066985	0.062591965	0.019291451
2020-09-24T23:25:00	0.1813	12.452	209.0	0.409428045	0.464756915	0.005926108	0.061138564	0.018843499
2020-09-24T23:30:00	0.1810	12.448	209.0	0.408705110	0.463577527	0.005904109	0.060911608	0.018773549
2020-09-24T23:35:00	0.1802	12.445	209.0	0.406318580	0.459694335	0.005831840	0.060166016	0.018543750
2020-09-24T23:40:00	0.1799	12.441	209.0	0.405594219	0.458518791	0.005810011	0.059940812	0.018474340
2020-09-24T23:45:00	0.1790	12.437	208.0	0.403202958	0.454648274	0.005738301	0.059200994	0.018246321
2020-09-24T23:50:00	0.1783	12.433	209.0	0.401086347	0.451235337	0.005675276	0.058550778	0.018045918
2020-09-24T23:55:00	0.1778	12.428	209.0	0.399802626	0.449171352	0.005637256	0.058158535	0.017925025
2020-09-25T00:00:00	0.1772	12.424	209.0	0.397960251	0.446216999	0.005582960	0.057598374	0.017752378
2020-09-25T00:05:00	0.1765	12.421	208.0	0.396115681	0.443268378	0.005528917	0.057040819	0.017580534
2020-09-25T00:10:00	0.1754	12.418	209.0	0.393150436	0.438547688	0.005442703	0.056151364	0.017306396
2020-09-25T00:15:00	0.1745	12.415	208.0	0.390459684	0.434284629	0.005365175	0.055351522	0.017059877
2020-09-25T00:20:00	0.1735	12.414	208.0	0.387764179	0.430033687	0.005288180	0.054557180	0.016815053
2020-09-25T00:25:00	0.1715	12.413	208.0	0.381967404	0.420958328	0.005124859	0.052872229	0.016295734
2020-09-25T00:30:00	0.1703	12.413	209.0	0.378691974	0.415870343	0.005033932	0.051934146	0.016006608
2020-09-25T00:35:00	0.1700	12.412	208.0	0.377954417	0.414728610	0.005013591	0.051724296	0.015941930
2020-09-25T00:40:00	0.1694	12.413	209.0	0.376085324	0.411841798	0.004962265	0.051194777	0.015778728
2020-09-25T00:45:00	0.1696	12.414	208.0	0.376761003	0.412884304	0.004980783	0.051385823	0.015837610
2020-09-25T00:50:00	0.1690	12.417	209.0	0.374890407	0.410001154	0.004929618	0.050857961	0.015674917
2020-09-25T00:55:00	0.1690	12.422	209.0	0.375000524	0.410170619	0.004932621	0.050888944	0.015684467
2020-09-25T01:00:00	0.1681	12.426	209.0	0.372560661	0.406423405	0.004866335	0.050205083	0.015473694
2020-09-25T01:05:00	0.1681	12.429	209.0	0.372387371	0.406157867	0.004861648	0.050156722	0.015458789
2020-09-25T01:10:00	0.1672	12.433	209.0	0.369943175	0.402421070	0.004795818	0.049477571	0.015249468
2020-09-25T01:15:00	0.1668	12.437	209.0	0.368916987	0.400856935	0.004768339	0.049194077	0.015162092
2020-09-25T01:20:00	0.1657	12.440	209.0	0.365612473	0.395839176	0.004680491	0.048287763	0.014882758
2020-09-25T01:25:00	0.1657	12.444	209.0	0.365723288	0.396006974	0.004683421	0.048317993	0.014892075
2020-09-25T01:30:00	0.1646	12.447	208.0	0.362411505	0.391006307	0.004596321	0.047419401	0.014615120
2020-09-25T01:35:00	0.1634	12.450	209.0	0.359092122	0.386023324	0.004509995	0.046528792	0.014340626
2020-09-25T01:40:00	0.1637	12.454	209.0	0.360061748	0.387475892	0.004535112	0.046787911	0.014420489
2020-09-25T01:45:00	0.1628	12.456	209.0	0.357310180	0.383360330	0.004464054	0.046054819	0.014194542
2020-09-25T01:50:00	0.1627	12.459	209.0	0.357135061	0.383099079	0.004459554	0.046008395	0.014180234
2020-09-25T01:55:00	0.1640	12.463	209.0	0.360681370	0.388405429	0.004551205	0.046953944	0.014471662
2020-09-25T02:00:00	0.1657	12.465	209.0	0.365644259	0.395887305	0.004681331	0.048296433	0.014885430
2020-09-25T02:05:00	0.1678	12.468	209.0	0.371725662	0.405144643	0.004843773	0.049972312	0.015401952
2020-09-25T02:10:00	0.1690	12.470	210.0	0.374953579	0.410098369	0.004931341	0.050875734	0.015680395
2020-09-25T02:15:00	0.1686	12.472	209.0	0.373930878	0.408525866	0.004903495	0.050588456	0.015591853
2020-09-25T02:20:00	0.1695	12.474	209.0	0.376305661	0.412181623	0.004968299	0.051257030	0.015797914
2020-09-25T02:25:00	0.1704	12.476	209.0	0.378959034	0.416284109	0.005041309	0.052010256	0.016030066
2020-09-25T02:30:00	0.1712	12.478	210.0	0.381325816	0.419959429	0.005106972	0.052687685	0.016238856
2020-09-25T02:35:00	0.1714	12.480	210.0	0.381717320	0.420568837	0.005117882	0.052800250	0.016273550
2020-09-25T02:40:00	0.1710	12.482	209.0	0.380699254	0.418984992	0.005089539	0.052507837	0.016183425
2020-09-25T02:45:00	0.1712	12.485	209.0	0.381372848	0.420032616	0.005108282	0.052701200	0.016243022
2020-09-25T02:50:00	0.1712	12.489	209.0	0.381200582	0.419764579	0.005103485	0.052651709	0.016227768
2020-09-25T02:55:00	0.1717	12.492	209.0	0.382719128	0.422130110	0.005145865	0.053088944	0.016362528
2020-09-25T03:00:00	0.1713	12.495	209.0	0.381419878	0.420105807	0.005109592	0.052714717	0.016247188
2020-09-25T03:05:00	0.1709	12.499	209.0	0.380401611	0.418522461	0.005081270	0.052422530	0.016157133
2020-09-25T03:10:00	0.1715	12.502	208.0	0.382202735	0.421324997	0.005131430	0.052940016	0.016316627
2020-09-25T03:15:00	0.1716	12.505	209.0	0.382312314	0.421495782	0.005134491	0.052971597	0.016326361
2020-09-25T03:20:00	0.1721	12.509	209.0	0.383829738	0.423864102	0.005176994	0.053410096	0.016461510
2020-09-25T03:25:00	0.1718	12.513	209.0	0.382813103	0.422276704	0.005148495	0.053116074	0.016370890
2020-09-25T03:30:00	0.1722	12.517	209.0	0.384048650	0.424206282	0.005183143	0.053473536	0.016481063
2020-09-25T03:35:00	0.1723	12.521	209.0	0.384439446	0.424817451	0.005194132	0.053586899	0.016516003
2020-09-25T03:40:00	0.1720	12.527	209.0	0.383423224	0.423229027	0.005165587	0.053292411	0.016425239
2020-09-25T03:45:00	0.1723	12.532	210.0	0.384376960	0.424719701	0.005192374	0.053568763	0.016510413
2020-09-25T03:50:00	0.1728	12.537	209.0	0.385611227	0.426652477	0.005227163	0.053927675	0.016621033
2020-09-25T03:55:00	0.1735	12.544	210.0	0.387686886	0.429912082	0.005285982	0.054534504	0.016808064
2020-09-25T04:00:00	0.1738	12.550	209.0	0.388637940	0.431409498	0.005313065	0.054813914	0.016894181
2020-09-25T04:05:00	0.1741	12.557	209.0	0.389399949	0.432611031	0.005334825	0.055038403	0.016963370
2020-09-25T04:10:00	0.1745	12.564	209.0	0.390441816	0.434256385	0.005364662	0.055346234	0.017058247
2020-09-25T04:15:00	0.1749	12.570	209.0	0.391762970	0.436347024	0.005402643	0.055738069	0.017179014
2020-09-25T04:20:00	0.1750	12.576	209.0	0.391963653	0.436665005	0.005408426	0.055797734	0.017197404
2020-09-25T04:25:00	0.1743	12.582	209.0	0.389923479	0.433437442	0.005349805	0.055192957	0.017011005
2020-09-25T04:30:00	0.1741	12.587	209.0	0.389283354	0.432427084	0.005331492	0.055004019	0.016952773
2020-09-25T04:35:00	0.1730	12.592	209.0	0.386396938	0.427884985	0.005249382	0.054156902	0.016691683
2020-09-25T04:40:00	0.1729	12.597	209.0	0.386036377	0.427319185	0.005239178	0.054051638	0.016659240
2020-09-25T04:45:00	0.1724	12.602	209.0	0.384550933	0.424991882	0.005197269	0.053619265	0.016525978
2020-09-25T04:50:00	0.1715	12.607	209.0	0.382219042	0.421350410	0.005131885	0.052944715	0.016318075
2020-09-25T04:55:00	0.1712	12.611	209.0	0.381293758	0.419909546	0.005106079	0.052678475	0.016236017
2020-09-25T05:00:00	0.1702	12.614	209.0	0.378391978	0.415405776	0.005025652	0.051848730	0.015980282
2020-09-25T05:05:00	0.1710	12.618	209.0	0.380570103	0.418784264	0.005085950	0.052470811	0.016172014
2020-09-25T05:10:00	0.1686	12.622	208.0	0.373988573	0.408614503	0.004905064	0.050604637	0.015596840
2020-09-25T05:15:00	0.1697	12.626	208.0	0.377021557	0.413286639	0.004987935	0.051459607	0.015860351
2020-09-25T05:20:00	0.1698	12.629	209.0	0.377224210	0.413599692	0.004993502	0.051517039	0.015878052
2020-09-25T05:25:00	0.1693	12.632	208.0	0.376012939	0.411730188	0.004960284	0.051174336	0.015772427
2020-09-25T05:30:00	0.1683	12.636	208.0	0.373100829	0.407251640	0.004880964	0.050356008	0.015520211
2020-09-25T05:35:00	0.1670	12.640	208.0	0.369330613	0.401487053	0.004779404	0.049308228	0.015197275
2020-09-25T05:40:00	0.1671	12.642	208.0	0.369534324	0.401797556	0.004784859	0.049364506	0.015214620
2020-09-25T05:45:00	0.1684	12.644	208.0	0.373426934	0.407752031	0.004889809	0.050447255	0.015548334
2020-09-25T05:50:00	0.1686	12.647	207.0	0.373913422	0.408499049	0.004903021	0.050583561	0.015590345
2020-09-25T05:55:00	0.1708	12.650	207.0	0.380053416	0.417981680	0.005071608	0.052322841	0.016126408
2020-09-25T06:00:00	0.1700	12.653	206.0	0.377714511	0.414357552	0.005006986	0.051656148	0.015920926
2020-09-25T06:05:00	0.1700	12.657	206.0	0.377917070	0.414670836	0.005012563	0.051713684	0.015938660
2020-09-25T06:10:00	0.1719	12.659	205.0	0.383196215	0.422874578	0.005159224	0.053226760	0.016405004
2020-09-25T06:15:00	0.1716	12.663	205.0	0.382271534	0.421432221	0.005133352	0.052959843	0.016322738
2020-09-25T06:20:00	0.1717	12.666	206.0	0.382755143	0.422186288	0.005146873	0.053099340	0.016365732
2020-09-25T06:25:00	0.1720	12.669	205.0	0.383520120	0.423380362	0.005168305	0.053320448	0.016433880
2020-09-25T06:30:00	0.1731	12.673	204.0	0.386533864	0.428099945	0.005253259	0.054196909	0.016704014
2020-09-25T06:35:00	0.1737	12.675	204.0	0.388139077	0.430623743	0.005298849	0.054667246	0.016848976
2020-09-25T06:40:00	0.1740	12.678	204.0	0.389181808	0.432266907	0.005328590	0.054974082	0.016943546
2020-09-25T06:45:00	0.1741	12.680	204.0	0.389382830	0.432584021	0.005334335	0.055033354	0.016961814
2020-09-25T06:50:00	0.1745	12.683	203.0	0.390424709	0.434229346	0.005364172	0.055341171	0.017056686
2020-09-25T06:55:00	0.1742	12.686	204.0	0.389784795	0.433218452	0.005345835	0.055151990	0.016998379
2020-09-25T07:00:00	0.1750	12.689	203.0	0.391946563	0.436637922	0.005407933	0.055792652	0.017195837
2020-09-25T07:05:00	0.1752	12.693	204.0	0.392427098	0.437399747	0.005421796	0.055935668	0.017239916
2020-09-25T07:10:00	0.1753	12.697	204.0	0.392627693	0.437717951	0.005427589	0.055995435	0.017258337
2020-09-25T07:15:00	0.1762	12.700	203.0	0.395344194	0.442037868	0.005506408	0.056808593	0.017508960
2020-09-25T07:20:00	0.1760	12.703	203.0	0.394706332	0.441021708	0.005487839	0.056617020	0.017449915
2020-09-25T07:25:00	0.1766	12.708	204.0	0.396302991	0.443567379	0.005534391	0.057097288	0.017597939
2020-09-25T07:30:00	0.1769	12.710	204.0	0.397340184	0.445224763	0.005564758	0.057410582	0.017694499
2020-09-25T07:35:00	0.1768	12.714	204.0	0.396982194	0.444652383	0.005554265	0.057302331	0.017661135
2020-09-25T07:40:00	0.1770	12.718	204.0	0.397461159	0.445418266	0.005568306	0.057447191	0.017705782
2020-09-25T07:45:00	0.1773	12.723	204.0	0.398218800	0.446631039	0.005590561	0.057676786	0.017776546
2020-09-25T07:50:00	0.1773	12.726	204.0	0.398418643	0.446951192	0.005596440	0.057737439	0.017795239
2020-09-25T07:55:00	0.1778	12.729	204.0	0.399732972	0.449059489	0.005635198	0.058137297	0.017918480
2020-09-25T08:00:00	0.1779	12.733	204.0	0.399932620	0.449380153	0.005641099	0.058198182	0.017937245
2020-09-25T08:05:00	0.1771	12.737	204.0	0.397902990	0.446125325	0.005581278	0.057581016	0.017747028
2020-09-25T08:10:00	0.1772	12.740	205.0	0.398102874	0.446445372	0.005587152	0.057641620	0.017765707
2020-09-25T08:15:00	0.1768	12.744	204.0	0.396908178	0.444534084	0.005552097	0.057279965	0.017654241
2020-09-25T08:20:00	0.1769	12.749	204.0	0.397108191	0.444853795	0.005557957	0.057340416	0.017672873
2020-09-25T08:25:00	0.1777	12.752	205.0	0.399538284	0.448746895	0.005629447	0.058077962	0.017900192
2020-09-25T08:30:00	0.1780	12.756	204.0	0.400294911	0.449962324	0.005651818	0.058308765	0.017971328
2020-09-25T08:35:00	0.1779	12.758	205.0	0.399937604	0.449388160	0.005641247	0.058199702	0.017937714
2020-09-25T08:40:00	0.1782	12.760	204.0	0.400972368	0.451051899	0.005671894	0.058515887	0.018035165
2020-09-25T08:45:00	0.1778	12.762	204.0	0.399779882	0.449134823	0.005636584	0.058151599	0.017922888
2020-09-25T08:50:00	0.1783	12.765	207.0	0.401093060	0.451246144	0.005675475	0.058552833	0.018046552
2020-09-25T08:55:00	0.1785	12.769	206.0	0.401570758	0.452015349	0.005689663	0.058699204	0.018091665
2020-09-25T09:00:00	0.1781	12.773	205.0	0.400657118	0.450544717	0.005662547	0.058419449	0.018005441
2020-09-25T09:05:00	0.1775	12.777	205.0	0.398907137	0.447734230	0.005610826	0.057885859	0.017840984
2020-09-25T09:10:00	0.1774	12.781	206.0	0.398549510	0.447160904	0.005600292	0.057777178	0.017807487
2020-09-25T09:15:00	0.1774	12.786	206.0	0.398749310	0.447481168	0.005606176	0.057837881	0.017826197
2020-09-25T09:20:00	0.1773	12.788	205.0	0.398391647	0.446907938	0.005595645	0.057729243	0.017792713
2020-09-25T09:25:00	0.1765	12.791	206.0	0.396080835	0.443212764	0.005527899	0.057030318	0.017577298
2020-09-25T09:30:00	0.1765	12.793	205.0	0.396001779	0.443086604	0.005525590	0.057006497	0.017569956
2020-09-25T09:35:00	0.1764	12.797	205.0	0.395922719	0.442960455	0.005523282	0.056982682	0.017562616
2020-09-25T09:40:00	0.1762	12.800	205.0	0.395285096	0.441943674	0.005504686	0.056790827	0.017503484
2020-09-25T09:45:00	0.1766	12.805	205.0	0.396322973	0.443599281	0.005534975	0.057103314	0.017599796
2020-09-25T09:50:00	0.1768	12.813	205.0	0.397081172	0.444810600	0.005557165	0.057332248	0.017670356
2020-09-25T09:55:00	0.1752	12.826	205.0	0.392531376	0.437565150	0.005424807	0.055966733	0.017249491
2020-09-25T10:00:00	0.1749	12.841	206.0	0.391612370	0.436108470	0.005398305	0.055693319	0.017165222
2020-09-25T10:05:00	0.1741	12.859	206.0	0.389492334	0.432756811	0.005337467	0.055065658	0.016971771
2020-09-25T10:10:00	0.1757	12.873	206.0	0.393813646	0.439601451	0.005461915	0.056349570	0.017367485
2020-09-25T10:15:00	0.1761	12.883	206.0	0.395052794	0.441573510	0.005497920	0.056721027	0.017481971
2020-09-25T10:20:00	0.1760	12.894	206.0	0.394615146	0.440876533	0.005485187	0.056589666	0.017441485
2020-09-25T10:25:00	0.1751	12.908	206.0	0.392219406	0.437070403	0.005415802	0.055873828	0.017220857
2020-09-25T10:30:00	0.1753	12.925	206.0	0.392620626	0.437706738	0.005427385	0.055993328	0.017257688
2020-09-25T10:35:00	0.1752	12.944	206.0	0.392462154	0.437455349	0.005422808	0.055946110	0.017243135
2020-09-25T10:40:00	0.1733	12.959	207.0	0.387257619	0.429237009	0.005273785	0.054408671	0.016769281
2020-09-25T10:45:00	0.1742	12.966	206.0	0.389623964	0.432964557	0.005341232	0.055104504	0.016983743
2020-09-25T10:50:00	0.1757	12.969	207.0	0.393944905	0.439810147	0.005465722	0.056388847	0.017379590
2020-09-25T10:55:00	0.1772	12.977	207.0	0.397974906	0.446240461	0.005583391	0.057602816	0.017753747
2020-09-25T11:00:00	0.1764	12.982	207.0	0.395863643	0.442866203	0.005521557	0.056964890	0.017557132
2020-09-25T11:05:00	0.1772	12.994	206.0	0.397937922	0.446181249	0.005582304	0.057591605	0.017750292
2020-09-25T11:10:00	0.1773	13.001	206.0	0.398337654	0.446821433	0.005594057	0.057712854	0.017787662
2020-09-25T11:15:00	0.1778	13.011	206.0	0.399851710	0.449250187	0.005638707	0.058173503	0.017929639
2020-09-25T11:20:00	0.1774	13.019	206.0	0.398579439	0.447208871	0.005601173	0.057786268	0.017810289
2020-09-25T11:25:00	0.1774	13.028	206.0	0.398700318	0.447402627	0.005604733	0.057822992	0.017821608
2020-09-25T11:30:00	0.1778	13.034	206.0	0.399657037	0.448937554	0.005632954	0.058114150	0.017911345
2020-09-25T11:35:00	0.1777	13.037	206.0	0.399499286	0.448684293	0.005628295	0.058066081	0.017896530
2020-09-25T11:40:00	0.1780	13.038	207.0	0.400177090	0.449772956	0.005648331	0.058272788	0.017960239
2020-09-25T11:45:00	0.1779	13.037	206.0	0.400019392	0.449519556	0.005643665	0.058224656	0.017945405
2020-09-25T11:50:00	0.1779	13.028	207.0	0.400140158	0.449713606	0.005647238	0.058261514	0.017956764
2020-09-25T11:55:00	0.1779	13.022	207.0	0.399982457	0.449460216	0.005642573	0.058213386	0.017941931
2020-09-25T12:00:00	0.1781	13.019	206.0	0.400660050	0.450549433	0.005662633	0.058420345	0.018005718
2020-09-25T12:05:00	0.1780	13.016	207.0	0.400223986	0.449848325	0.005649719	0.058287106	0.017964652
2020-09-25T12:10:00	0.1777	13.018	207.0	0.399509257	0.448700298	0.005628589	0.058069119	0.017897466
2020-09-25T12:15:00	0.1787	13.010	207.0	0.402134963	0.452924654	0.005706447	0.058872367	0.018145035
2020-09-25T12:20:00	0.1790	13.002	207.0	0.403089575	0.454465139	0.005734914	0.059166053	0.018235552
2020-09-25T12:25:00	0.1790	12.991	207.0	0.403210104	0.454659816	0.005738515	0.059203196	0.018247000
2020-09-25T12:30:00	0.1791	12.985	207.0	0.403330623	0.454854519	0.005742116	0.059240351	0.018258452
2020-09-25T12:35:00	0.1785	12.981	207.0	0.401783056	0.452357398	0.005695975	0.058764325	0.018111736
2020-09-25T12:40:00	0.1772	12.980	207.0	0.398004846	0.446288399	0.005584271	0.057611894	0.017756545
2020-09-25T12:45:00	0.1782	12.978	207.0	0.400911435	0.450953847	0.005670087	0.058497239	0.018029417
2020-09-25T12:50:00	0.1778	12.975	207.0	0.399640032	0.448910251	0.005632452	0.058108967	0.017909748
2020-09-25T12:55:00	0.1779	12.973	207.0	0.400039326	0.449551584	0.005644255	0.058230739	0.017947279
2020-09-25T13:00:00	0.1783	12.966	207.0	0.400995221	0.451088676	0.005672572	0.058522882	0.018037320
2020-09-25T13:05:00	0.1780	12.955	207.0	0.400280846	0.449939716	0.005651402	0.058304470	0.017970004
2020-09-25T13:10:00	0.1777	12.945	207.0	0.399566143	0.448791620	0.005630269	0.058086451	0.017902808
2020-09-25T13:15:00	0.1773	12.933	207.0	0.398293638	0.446750918	0.005592762	0.057699495	0.017783545
2020-09-25T13:20:00	0.1765	12.924	207.0	0.396182811	0.443375525	0.005530878	0.057061053	0.017586771
2020-09-25T13:25:00	0.1749	12.915	207.0	0.391551066	0.436011382	0.005396540	0.055675109	0.017159609
2020-09-25T13:30:00	0.1757	12.910	207.0	0.393910769	0.439755868	0.005464732	0.056378631	0.017376442
2020-09-25T13:35:00	0.1760	12.904	207.0	0.394591028	0.440838138	0.005484486	0.056582432	0.017439255
2020-09-25T13:40:00	0.1760	12.900	207.0	0.394712219	0.441031081	0.005488010	0.056618786	0.017450460
2020-09-25T13:45:00	0.1752	12.894	207.0	0.392596476	0.437668424	0.005426687	0.055986131	0.017255469
2020-09-25T13:50:00	0.1764	12.888	207.0	0.395792515	0.442752736	0.005519481	0.056943473	0.017550531
2020-09-25T13:55:00	0.1769	12.880	207.0	0.397309062	0.445174989	0.005563845	0.057401166	0.017691597
2020-09-25T14:00:00	0.1765	12.874	207.0	0.396034698	0.443139136	0.005526552	0.057016415	0.017573013
2020-09-25T14:05:00	0.1765	12.865	207.0	0.396155776	0.443332373	0.005530088	0.057052904	0.017584259
2020-09-25T14:10:00	0.1762	12.857	207.0	0.395159837	0.441744060	0.005501037	0.056753184	0.017491882
2020-09-25T14:15:00	0.1770	12.850	207.0	0.397514013	0.445502821	0.005569857	0.057463190	0.017710713
2020-09-25T14:20:00	0.1775	12.842	207.0	0.399028874	0.447929470	0.005614415	0.057922882	0.017852395
2020-09-25T14:25:00	0.1787	12.835	207.0	0.402211660	0.453048330	0.005708731	0.058895930	0.018152298
2020-09-25T14:30:00	0.1795	12.828	207.0	0.404555184	0.456835079	0.005778786	0.059618668	0.018375053
2020-09-25T14:35:00	0.1797	12.822	207.0	0.404953223	0.457479735	0.005790736	0.059741953	0.018413050
2020-09-25T14:40:00	0.1797	12.815	207.0	0.405073608	0.457674795	0.005794353	0.059779270	0.018424552
2020-09-25T14:45:00	0.1793	12.810	207.0	0.403805592	0.455622229	0.005756322	0.059386915	0.018303624
2020-09-25T14:50:00	0.1791	12.804	207.0	0.403370406	0.454918798	0.005743305	0.059252619	0.018262233
2020-09-25T14:55:00	0.1787	12.800	207.0	0.402101008	0.452869905	0.005705437	0.058861937	0.018141821
2020-09-25T15:00:00	0.1789	12.794	207.0	0.402777681	0.453961552	0.005725604	0.059070001	0.018205948
2020-09-25T15:05:00	0.1786	12.788	207.0	0.402064122	0.452810435	0.005704338	0.058850608	0.018138329
2020-09-25T15:10:00	0.1782	12.781	207.0	0.400793661	0.450764357	0.005666594	0.058461207	0.018018312
2020-09-25T15:15:00	0.1781	12.775	207.0	0.400636025	0.450510792	0.005661921	0.058413000	0.018003454
2020-09-25T15:20:00	0.1781	12.768	207.0	0.400478374	0.450257270	0.005657251	0.058364812	0.017988602
2020-09-25T15:25:00	0.1771	12.761	207.0	0.397812878	0.445981076	0.005578631	0.057553707	0.017738611
2020-09-25T15:30:00	0.1763	12.754	207.0	0.395422113	0.442162075	0.005508679	0.056832021	0.017516181
2020-09-25T15:35:00	0.1771	12.748	207.0	0.397775890	0.445921873	0.005577545	0.057542500	0.017735157
2020-09-25T15:40:00	0.1754	12.742	207.0	0.393148947	0.438545324	0.005442660	0.056150920	0.017306259
2020-09-25T15:45:00	0.1741	12.736	207.0	0.389349482	0.432531406	0.005333382	0.055023519	0.016958783
2020-09-25T15:50:00	0.1725	12.729	207.0	0.384978166	0.425660635	0.005209302	0.053743408	0.016564240
2020-09-25T15:55:00	0.1733	12.723	207.0	0.387067258	0.428937803	0.005268382	0.054352926	0.016752100
2020-09-25T16:00:00	0.1740	12.715	207.0	0.389153474	0.432222219	0.005327781	0.054965731	0.016940972
2020-09-25T16:05:00	0.1744	12.707	207.0	0.390272358	0.433988571	0.005359803	0.055296095	0.017042794
2020-09-25T16:10:00	0.1742	12.698	207.0	0.389709256	0.433099193	0.005343672	0.055129684	0.016991504
2020-09-25T16:15:00	0.1735	12.689	207.0	0.387743036	0.430000421	0.005287579	0.054550977	0.016813141
2020-09-25T16:20:00	0.1731	12.680	207.0	0.386617261	0.428230895	0.005255622	0.054221284	0.016711526
2020-09-25T16:25:00	0.1732	12.671	207.0	0.386895641	0.428668143	0.005263514	0.054302699	0.016736619
2020-09-25T16:30:00	0.1738	12.662	207.0	0.388577406	0.431314116	0.005311339	0.054796104	0.016888691
2020-09-25T16:35:00	0.1742	12.653	207.0	0.389696713	0.433079393	0.005343314	0.055125980	0.016990363
2020-09-25T16:40:00	0.1746	12.642	207.0	0.390815199	0.434846760	0.005375380	0.055456805	0.017092326
2020-09-25T16:45:00	0.1752	12.631	207.0	0.392492645	0.437503713	0.005423688	0.055955194	0.017245934
2020-09-25T16:50:00	0.1765	12.620	207.0	0.396123744	0.443281247	0.005529153	0.057043249	0.017581283
2020-09-25T16:55:00	0.1775	12.610	207.0	0.398910515	0.447739646	0.005610926	0.057886886	0.017841300
2020-09-25T17:00:00	0.1781	12.601	207.0	0.400579178	0.450419367	0.005660237	0.058395621	0.017998098
2020-09-25T17:05:00	0.1794	12.593	207.0	0.404191395	0.456246273	0.005767877	0.059506127	0.018340366
2020-09-25T17:10:00	0.1798	12.584	207.0	0.405299452	0.458040833	0.005801142	0.059849315	0.018446140
2020-09-25T17:15:00	0.1803	12.576	207.0	0.406684044	0.460287980	0.005842872	0.060279832	0.018578830
2020-09-25T17:20:00	0.1810	12.568	207.0	0.408621421	0.463441091	0.005901566	0.060885368	0.018765462
2020-09-25T17:25:00	0.1812	12.557	207.0	0.409172752	0.464340270	0.005918334	0.061058360	0.018818779
2020-09-25T17:30:00	0.1825	12.546	207.0	0.412765329	0.470219924	0.006028304	0.062192901	0.019168456
2020-09-25T17:35:00	0.1828	12.533	207.0	0.413591334	0.471576787	0.006053762	0.062455547	0.019249406
2020-09-25T17:40:00	0.1835	12.521	206.0	0.415520309	0.474752790	0.006113468	0.063071526	0.019439257
2020-09-25T17:45:00	0.1841	12.511	205.0	0.417171516	0.477479599	0.006164860	0.063601725	0.019602669
2020-09-25T17:50:00	0.1838	12.502	205.0	0.416342426	0.476109497	0.006139023	0.063335169	0.019520514
2020-09-25T17:55:00	0.1843	12.492	205.0	0.417717435	0.478382784	0.006181909	0.063777612	0.019656879
2020-09-25T18:00:00	0.1836	12.483	205.0	0.415786171	0.475191329	0.006121725	0.063156712	0.019465512
2020-09-25T18:05:00	0.1846	12.474	205.0	0.418538428	0.479742610	0.006207601	0.064042680	0.019738576
2020-09-25T18:10:00	0.1843	12.465	205.0	0.417710043	0.478370549	0.006181678	0.063775229	0.019656145
2020-09-25T18:15:00	0.1841	12.457	204.0	0.417156727	0.477455143	0.006164399	0.063596965	0.019601202
2020-09-25T18:20:00	0.1839	12.449	205.0	0.416603220	0.476540266	0.006147143	0.063418943	0.019546334
2020-09-25T18:25:00	0.1855	12.439	205.0	0.421003823	0.483837271	0.006285145	0.064842685	0.019985145
2020-09-25T18:30:00	0.1871	12.424	204.0	0.425392497	0.491167818	0.006424635	0.066281770	0.020428685
2020-09-25T18:35:00	0.1873	12.405	204.0	0.425938105	0.492082895	0.006442107	0.066462026	0.020484242
2020-09-25T18:40:00	0.1887	12.385	204.0	0.429766962	0.498527776	0.006565533	0.067735399	0.020876708
2020-09-25T18:45:00	0.1884	12.366	204.0	0.428944273	0.497139558	0.006538893	0.067460551	0.020791997
2020-09-25T18:50:00	0.1857	12.348	204.0	0.421541072	0.484731793	0.006302121	0.065017822	0.020039124
2020-09-25T18:55:00	0.1862	12.331	204.0	0.422911664	0.487017448	0.006345555	0.065465920	0.020177232
2020-09-25T19:00:00	0.1871	12.316	204.0	0.425377782	0.491143151	0.006424164	0.066276913	0.020427188
2020-09-25T19:05:00	0.1878	12.299	204.0	0.427292758	0.494358446	0.006485612	0.066910862	0.020622578
2020-09-25T19:10:00	0.1885	12.284	204.0	0.429205499	0.497580152	0.006547345	0.067547749	0.020818872
2020-09-25T19:15:00	0.1892	12.269	204.0	0.431116020	0.500808269	0.006609363	0.068187575	0.021016073
2020-09-25T19:20:00	0.1891	12.256	204.0	0.430840430	0.500341992	0.006600395	0.068095054	0.020987557
2020-09-25T19:25:00	0.1880	12.240	204.0	0.427830388	0.495262970	0.006502928	0.067089505	0.020677637
2020-09-25T19:30:00	0.1877	12.225	204.0	0.427006728	0.493877547	0.006476411	0.066815938	0.020593321
2020-09-25T19:35:00	0.1884	12.208	204.0	0.428919802	0.497098295	0.006538101	0.067452386	0.020789480
2020-09-25T19:40:00	0.1885	12.190	204.0	0.429190819	0.497555387	0.006546870	0.067542847	0.020817361
2020-09-25T19:45:00	0.1891	12.173	204.0	0.430828209	0.500321319	0.006599997	0.068090952	0.020986293
2020-09-25T19:50:00	0.1893	12.157	204.0	0.431372015	0.501241585	0.006617700	0.068273587	0.021042582
2020-09-25T19:55:00	0.1878	12.140	203.0	0.427268263	0.494317253	0.006484824	0.066902730	0.020620071
2020-09-25T20:00:00	0.1871	12.121	204.0	0.425348353	0.491093818	0.006423222	0.066267199	0.020424194
2020-09-25T20:05:00	0.1883	12.103	203.0	0.428631607	0.496612455	0.006528785	0.067356273	0.020759857
2020-09-25T20:10:00	0.1869	12.087	203.0	0.424795188	0.490166977	0.006405540	0.066084776	0.020367970
2020-09-25T20:15:00	0.1867	12.073	203.0	0.424244289	0.489244776	0.006387960	0.065903404	0.020312069
2020-09-25T20:20:00	0.1871	12.058	203.0	0.425338544	0.491077374	0.006422908	0.066263962	0.020423197
2020-09-25T20:25:00	0.1867	12.043	203.0	0.424239380	0.489236563	0.006387803	0.065901789	0.020311571
2020-09-25T20:30:00	0.1869	12.029	203.0	0.424785375	0.490150542	0.006405227	0.066081542	0.020366973
2020-09-25T20:35:00	0.1872	12.013	203.0	0.425605250	0.491524542	0.006431444	0.066352023	0.020450338
2020-09-25T20:40:00	0.1874	11.998	203.0	0.426150787	0.492439822	0.006448925	0.066532372	0.020505923
2020-09-25T20:45:00	0.1880	11.986	203.0	0.427791208	0.495197025	0.006501665	0.067076477	0.020673622
2020-09-25T20:50:00	0.1878	11.971	203.0	0.427241317	0.494271942	0.006483957	0.066893785	0.020617314
2020-09-25T20:55:00	0.1879	11.958	203.0	0.427512612	0.494728237	0.006492689	0.066983880	0.020645082
2020-09-25T21:00:00	0.1877	11.945	202.0	0.426962628	0.493803423	0.006474993	0.066801311	0.020588813
2020-09-25T21:05:00	0.1869	11.934	203.0	0.424768202	0.490121783	0.006404678	0.066075884	0.020365229
2020-09-25T21:10:00	0.1866	11.924	202.0	0.423942997	0.488740771	0.006378357	0.065804338	0.020281536
2020-09-25T21:15:00	0.1864	11.913	203.0	0.423391809	0.487819389	0.006360814	0.065623341	0.020225751
2020-09-25T21:20:00	0.1866	11.900	203.0	0.423938087	0.488732561	0.006378201	0.065802725	0.020281039
2020-09-25T21:25:00	0.1867	11.889	202.0	0.424209931	0.489187289	0.006386864	0.065892102	0.020308586
2020-09-25T21:30:00	0.1857	11.879	202.0	0.421462408	0.484600768	0.006299634	0.064992160	0.020031215
2020-09-25T21:35:00	0.1852	11.868	202.0	0.420085670	0.482310390	0.006256198	0.064544044	0.019893101
2020-09-25T21:40:00	0.1857	11.854	202.0	0.421457492	0.484592579	0.006299478	0.064990557	0.020030721
2020-09-25T21:45:00	0.1855	11.841	202.0	0.420905460	0.483673583	0.006282040	0.064810651	0.019975272
2020-09-25T21:50:00	0.1856	11.829	203.0	0.421177811	0.484126875	0.006290640	0.064899372	0.020002617
2020-09-25T21:55:00	0.1856	11.815	202.0	0.421175352	0.484122782	0.006290562	0.064898570	0.020002370
2020-09-25T22:00:00	0.1849	11.801	202.0	0.419248232	0.480919770	0.006229867	0.064272388	0.019809374
2020-09-25T22:05:00	0.1852	11.786	202.0	0.420302015	0.482669960	0.006263012	0.064614338	0.019914766
2020-09-25T22:10:00	0.1863	11.770	202.0	0.423277272	0.487628031	0.006357172	0.065585768	0.020214171
2020-09-25T22:15:00	0.1861	11.756	202.0	0.422682079	0.486634221	0.006338267	0.065390729	0.020154058
2020-09-25T22:20:00	0.1866	11.742	202.0	0.424007963	0.488849427	0.006380427	0.065825692	0.020288117
2020-09-25T22:25:00	0.1869	11.726	202.0	0.424784505	0.490149086	0.006405199	0.066081256	0.020366885
2020-09-25T22:30:00	0.1873	11.709	201.0	0.426108681	0.492369149	0.006447575	0.066518442	0.020501630
2020-09-25T22:35:00	0.1879	11.690	201.0	0.427705498	0.495052781	0.006498903	0.067047981	0.020664839
2020-09-25T22:40:00	0.1884	11.672	201.0	0.429027316	0.497279601	0.006541579	0.067488263	0.020800538
2020-09-25T22:45:00	0.1891	11.655	200.0	0.430894481	0.500433426	0.006602153	0.068113194	0.020993148
2020-09-25T22:50:00	0.1894	11.638	200.0	0.431667772	0.501742429	0.006627340	0.068373040	0.021073235
2020-09-25T22:55:00	0.1899	11.623	200.0	0.432986419	0.503978436	0.006670424	0.068817536	0.021210233
2020-09-25T23:00:00	0.1894	11.609	199.0	0.431848824	0.502049149	0.006633245	0.068433966	0.021092013
2020-09-25T23:05:00	0.1894	11.593	199.0	0.431802844	0.501971246	0.006631745	0.068418490	0.021087243
2020-09-25T23:10:00	0.1891	11.579	199.0	0.430937609	0.500506388	0.006603556	0.068127670	0.020997610
2020-09-25T23:15:00	0.1891	11.564	199.0	0.430891604	0.500428558	0.006602059	0.068112228	0.020992850
2020-09-25T23:20:00	0.1893	11.548	198.0	0.431391841	0.501275151	0.006618346	0.068280251	0.021044636
2020-09-25T23:25:00	0.1895	11.531	198.0	0.431891927	0.502122184	0.006634651	0.068448475	0.021096485
2020-09-25T23:30:00	0.1898	11.513	198.0	0.432937596	0.503895562	0.006668826	0.068801047	0.021205151
2020-09-25T23:35:00	0.1895	11.496	196.0	0.432072955	0.502428976	0.006640560	0.068509434	0.021115273
2020-09-25T23:40:00	0.1902	11.478	197.0	0.433936685	0.505592790	0.006701578	0.069138947	0.021309295
2020-09-25T23:45:00	0.1911	11.460	196.0	0.436342942	0.509691907	0.006780864	0.069956921	0.021561402
2020-09-25T23:50:00	0.1913	11.443	196.0	0.436841540	0.510543303	0.006797364	0.070127149	0.021613868
2020-09-25T23:55:00	0.1911	11.428	195.0	0.436251229	0.509535375	0.006777831	0.069925637	0.021551760
2020-09-26T00:00:00	0.1920	11.413	195.0	0.438926019	0.514110236	0.006866611	0.070841560	0.021834057
2020-09-26T00:05:00	0.1918	11.400	194.0	0.438336443	0.513100129	0.006846981	0.070639045	0.021771640
2020-09-26T00:10:00	0.1931	11.386	194.0	0.442034553	0.519086070	0.006965765	0.071864515	0.022149341
2020-09-26T00:15:00	0.1941	11.376	194.0	0.445467659	0.523681041	0.007063766	0.072875568	0.022460958
2020-09-26T00:20:00	0.1964	11.363	193.0	0.453426706	0.534369336	0.007293538	0.075246084	0.023191574
2020-09-26T00:25:00	0.1963	11.344	193.0	0.453019854	0.533821760	0.007281705	0.075124007	0.023153948
2020-09-26T00:30:00	0.1967	11.329	192.0	0.454701919	0.536086475	0.007330687	0.075629348	0.023309699
2020-09-26T00:35:00	0.1958	11.317	192.0	0.451509308	0.531789878	0.007237854	0.074671610	0.023014515
2020-09-26T00:40:00	0.1964	11.306	192.0	0.453540320	0.534522272	0.007296844	0.075280192	0.023202086
2020-09-26T00:45:00	0.1969	11.294	192.0	0.455222124	0.536787326	0.007345868	0.075785969	0.023357972
2020-09-26T00:50:00	0.1975	11.284	191.0	0.457250893	0.539522645	0.007405221	0.076398300	0.023546698
2020-09-26T00:55:00	0.1979	11.272	191.0	0.458583208	0.541320728	0.007444326	0.076801741	0.023671043
2020-09-26T01:00:00	0.1982	11.258	191.0	0.459914995	0.543119501	0.007483517	0.077206066	0.023795659
2020-09-26T01:05:00	0.1993	11.241	190.0	0.463677006	0.548208229	0.007594769	0.078353831	0.024149412
2020-09-26T01:10:00	0.1985	11.224	190.0	0.460840349	0.544370153	0.007510807	0.077487613	0.023882435
2020-09-26T01:15:00	0.1993	11.212	190.0	0.463560077	0.548049895	0.007591299	0.078318031	0.024138378
2020-09-26T01:20:00	0.2002	11.197	190.0	0.466624451	0.552202956	0.007682496	0.079258899	0.024428362
2020-09-26T01:25:00	0.2012	11.182	190.0	0.470032530	0.556830582	0.007784553	0.080311795	0.024752875
2020-09-26T01:30:00	0.2016	11.167	189.0	0.471706118	0.559106423	0.007834912	0.080831344	0.024913005
2020-09-26T01:35:00	0.2017	11.155	189.0	0.471994081	0.559498235	0.007843593	0.080920906	0.024940609
2020-09-26T01:40:00	0.2028	11.142	189.0	0.475742652	0.564604697	0.007957034	0.082091248	0.025301320
2020-09-26T01:45:00	0.2046	11.129	188.0	0.481904737	0.573023269	0.008145261	0.084033161	0.025899836
2020-09-26T01:50:00	0.2046	11.120	188.0	0.481846587	0.572943684	0.008143475	0.084014731	0.025894156
2020-09-26T01:55:00	0.2057	11.112	189.0	0.485584273	0.578064657	0.008258696	0.085203442	0.026260528
2020-09-26T02:00:00	0.2057	11.106	189.0	0.485871058	0.578458040	0.008267570	0.085294991	0.026288745
2020-09-26T02:05:00	0.2058	11.097	189.0	0.486157818	0.578851456	0.008276447	0.085386581	0.026316974
2020-09-26T02:10:00	0.2065	11.087	188.0	0.488512699	0.582084672	0.008349530	0.086140565	0.026549359
2020-09-26T02:15:00	0.2063	11.077	188.0	0.487765409	0.581058174	0.008326304	0.085900942	0.026475505
2020-09-26T02:20:00	0.2059	11.065	188.0	0.486328410	0.579085527	0.008281731	0.085441091	0.026333774
2020-09-26T02:25:00	0.2068	11.054	188.0	0.489372239	0.583265915	0.008376285	0.086416591	0.026634433
2020-09-26T02:30:00	0.2076	11.041	188.0	0.492413344	0.587449970	0.008471287	0.087396708	0.026936514
2020-09-26T02:35:00	0.2060	11.027	187.0	0.486843766	0.579792794	0.008297703	0.085605868	0.026384560
2020-09-26T02:40:00	0.2053	11.019	187.0	0.484371516	0.576401846	0.008221223	0.084816837	0.026141373
2020-09-26T02:45:00	0.2037	11.009	187.0	0.478788715	0.568762411	0.008049807	0.083048374	0.025596316
2020-09-26T02:50:00	0.2045	10.999	186.0	0.481494032	0.572461227	0.008132648	0.083903033	0.025859730
2020-09-26T02:55:00	0.2046	10.987	187.0	0.481781163	0.572854146	0.008141465	0.083993997	0.025887766
2020-09-26T03:00:00	0.2045	10.978	186.0	0.481723012	0.572774564	0.008139679	0.083975571	0.025882086
2020-09-26T03:05:00	0.2047	10.967	186.0	0.482355352	0.573640083	0.008159111	0.084176049	0.025943876
2020-09-26T03:10:00	0.2045	10.960	186.0	0.481606705	0.572615404	0.008136108	0.083938723	0.025870730
2020-09-26T03:15:00	0.2049	10.950	186.0	0.482929444	0.574426149	0.008176773	0.084358265	0.026000036
2020-09-26T03:20:00	0.2058	10.942	186.0	0.485976321	0.578602446	0.008270828	0.085328606	0.026299105
2020-09-26T03:25:00	0.2066	10.937	185.0	0.488675913	0.582308928	0.008354607	0.086192944	0.026565503
2020-09-26T03:30:00	0.2072	10.932	185.0	0.491029049	0.585544492	0.008427977	0.086949883	0.026798798
2020-09-26T03:35:00	0.2074	10.928	186.0	0.491659659	0.586412334	0.008447693	0.087153291	0.026861491
2020-09-26T03:40:00	0.2073	10.923	186.0	0.491257387	0.585858691	0.008435113	0.087023508	0.026821490
2020-09-26T03:45:00	0.2074	10.920	186.0	0.491543693	0.586252718	0.008444066	0.087115868	0.026849956
2020-09-26T03:50:00	0.2073	10.916	186.0	0.491141406	0.585699094	0.008431488	0.086986107	0.026809963
2020-09-26T03:55:00	0.2066	10.913	186.0	0.488672284	0.582303941	0.008354494	0.086191779	0.026565143
2020-09-26T04:00:00	0.2072	10.905	186.0	0.491025422	0.585539501	0.008427863	0.086948714	0.026798438
2020-09-26T04:05:00	0.2076	10.892	185.0	0.492149568	0.587086764	0.008463026	0.087311478	0.026910245
2020-09-26T04:10:00	0.2090	10.878	185.0	0.497056379	0.593852318	0.008617359	0.088903707	0.027400986
2020-09-26T04:15:00	0.2092	10.866	185.0	0.497834909	0.594927539	0.008641974	0.089157651	0.027479254
2020-09-26T04:20:00	0.2104	10.855	184.0	0.502047179	0.600753513	0.008775758	0.090537880	0.027904654
2020-09-26T04:25:00	0.2105	10.846	184.0	0.502138221	0.600879590	0.008778661	0.090567828	0.027913884
2020-09-26T04:30:00	0.2095	10.841	184.0	0.498795527	0.596254909	0.008672394	0.089471485	0.027575981
2020-09-26T04:35:00	0.2099	10.832	184.0	0.500260527	0.598280658	0.008718888	0.089951159	0.027723821
2020-09-26T04:40:00	0.2103	10.822	184.0	0.501724898	0.600307263	0.008765486	0.090431905	0.027871991
2020-09-26T04:45:00	0.2115	10.808	184.0	0.505589527	0.605663974	0.008889058	0.091706778	0.028264919
2020-09-26T04:50:00	0.2121	10.793	183.0	0.507736980	0.608645732	0.008958097	0.092419034	0.028484444
2020-09-26T04:55:00	0.2112	10.782	183.0	0.504742730	0.604489210	0.008861908	0.091426672	0.028178588
2020-09-26T05:00:00	0.2128	10.773	183.0	0.509973920	0.611755697	0.009030296	0.093163897	0.028714018
2020-09-26T05:05:00	0.2133	10.766	183.0	0.511776398	0.614264580	0.009088683	0.093766266	0.028899674
2020-09-26T05:10:00	0.2125	10.760	183.0	0.509128208	0.610579448	0.009002966	0.092881938	0.028627115
2020-09-26T05:15:00	0.2123	10.755	183.0	0.508533993	0.609753337	0.008983788	0.092684083	0.028566135
2020-09-26T05:20:00	0.2132	10.745	183.0	0.511364238	0.613690661	0.009075315	0.093628355	0.028857168
2020-09-26T05:25:00	0.2135	10.737	183.0	0.512481706	0.615247019	0.009111581	0.094002501	0.028972484
2020-09-26T05:30:00	0.2130	10.731	183.0	0.510861222	0.612990412	0.009059014	0.093460181	0.028805336
2020-09-26T05:35:00	0.2140	10.723	183.0	0.514373583	0.617884238	0.009173144	0.094637632	0.029168237
2020-09-26T05:40:00	0.2141	10.715	182.0	0.514464297	0.618010764	0.009176101	0.094668140	0.029177640
2020-09-26T05:45:00	0.2145	10.709	182.0	0.515922602	0.620045681	0.009223704	0.095159255	0.029329007
2020-09-26T05:50:00	0.2147	10.703	182.0	0.516696850	0.621126764	0.009249028	0.095420517	0.029409530
2020-09-26T05:55:00	0.2143	10.695	181.0	0.515420254	0.619344511	0.009207292	0.094989935	0.029276821
2020-09-26T06:00:00	0.2153	10.691	181.0	0.518586403	0.623767188	0.009310977	0.096059633	0.029606512
2020-09-26T06:05:00	0.2147	10.685	181.0	0.516627058	0.621029294	0.009246744	0.095396952	0.029402267
2020-09-26T06:10:00	0.2152	10.681	180.0	0.518426043	0.623542992	0.009305711	0.096005310	0.029589769
2020-09-26T06:15:00	0.2151	10.675	176.0	0.517833438	0.622714664	0.009286266	0.095804696	0.029527938
2020-09-26T06:20:00	0.2153	10.674	176.0	0.518607255	0.623796343	0.009311662	0.096066698	0.029608689
2020-09-26T06:25:00	0.2156	10.670	176.0	0.519722366	0.625355953	0.009348319	0.096444886	0.029725251
2020-09-26T06:30:00	0.2168	10.666	177.0	0.523907815	0.631218776	0.009486554	0.097871025	0.030164801
2020-09-26T06:35:00	0.2175	10.659	176.0	0.526043836	0.634216314	0.009557493	0.098602898	0.030390371
2020-09-26T06:40:00	0.2170	10.651	176.0	0.524429741	0.631950866	0.009503863	0.098049602	0.030219839
2020-09-26T06:45:00	0.2175	10.647	176.0	0.526224647	0.634470222	0.009563511	0.098664976	0.030409504
2020-09-26T06:50:00	0.2179	10.646	179.0	0.527677972	0.636512047	0.009611944	0.099164658	0.030563511
2020-09-26T06:55:00	0.2204	10.641	179.0	0.535934364	0.648144354	0.009889434	0.102027472	0.031445858
2020-09-26T07:00:00	0.2207	10.635	179.0	0.537043882	0.649711772	0.009927028	0.102415313	0.031565394
2020-09-26T07:05:00	0.2204	10.632	179.0	0.536114657	0.648398987	0.009895538	0.102090444	0.031465266
2020-09-26T07:10:00	0.2204	10.628	179.0	0.536204801	0.648526308	0.009898591	0.102121937	0.031474973
2020-09-26T07:15:00	0.2219	10.624	179.0	0.541049062	0.655378260	0.010063331	0.103821534	0.031998805
2020-09-26T07:20:00	0.2229	10.623	179.0	0.544530795	0.660314834	0.010182584	0.105051840	0.032377997
2020-09-26T07:25:00	0.2241	10.614	178.0	0.548686300	0.666219707	0.010325843	0.106529821	0.032833526
2020-09-26T07:30:00	0.2255	10.607	178.0	0.553175016	0.672613972	0.010481728	0.108138059	0.033329200
2020-09-26T07:35:00	0.2274	10.597	177.0	0.559683719	0.681915156	0.010709868	0.110491729	0.034054624
2020-09-26T07:40:00	0.2285	10.588	176.0	0.563484023	0.687362060	0.010844227	0.111877892	0.034481853
2020-09-26T07:45:00	0.2296	10.576	171.0	0.567280194	0.692814931	0.010979291	0.113271321	0.034911321
2020-09-26T07:50:00	0.2304	10.567	175.0	0.569726258	0.696334795	0.011066770	0.114173829	0.035189483
2020-09-26T07:55:00	0.2319	10.559	175.0	0.574860193	0.703738573	0.011251528	0.116079936	0.035776964
2020-09-26T08:00:00	0.2344	10.550	174.0	0.583340793	0.716016507	0.011560144	0.119263874	0.036758284
2020-09-26T08:05:00	0.2345	10.543	174.0	0.583764956	0.716632165	0.011575692	0.119424277	0.036807722
2020-09-26T08:10:00	0.2356	10.543	174.0	0.587204365	0.721629868	0.011702159	0.120729016	0.037209855
2020-09-26T08:15:00	0.2357	10.539	174.0	0.587628062	0.722246211	0.011717787	0.120890248	0.037259549
2020-09-26T08:20:00	0.2365	10.531	173.0	0.590394592	0.726274294	0.011820093	0.121945721	0.037584856
2020-09-26T08:25:00	0.2372	10.524	169.0	0.592824612	0.729817680	0.011910331	0.122876691	0.037871790
2020-09-26T08:30:00	0.2372	10.518	168.0	0.592578940	0.729459223	0.011901192	0.122782406	0.037842730
2020-09-26T08:35:00	0.2384	10.510	173.0	0.596677807	0.735446397	0.012054141	0.124360347	0.038329067
2020-09-26T08:40:00	0.2409	10.502	172.0	0.605106130	0.747801690	0.012371797	0.127637549	0.039339132
2020-09-26T08:45:00	0.2417	10.499	172.0	0.607859018	0.751850108	0.012476473	0.128717468	0.039671974
2020-09-26T08:50:00	0.2429	10.494	171.0	0.611607671	0.757373132	0.012619742	0.130195555	0.040127534
2020-09-26T08:55:00	0.2438	10.490	167.0	0.614687838	0.761920087	0.012738095	0.131416576	0.040503865
2020-09-26T09:00:00	0.2443	10.485	166.0	0.616437047	0.764505829	0.012805561	0.132112608	0.040718389
2020-09-26T09:05:00	0.2451	10.478	166.0	0.618849279	0.768075901	0.012898901	0.133075583	0.041015187
2020-09-26T09:10:00	0.2456	10.472	170.0	0.620596445	0.770664744	0.012966726	0.133775318	0.041230852
2020-09-26T09:15:00	0.2465	10.465	165.0	0.623668849	0.775223488	0.013086442	0.135010414	0.041611521
2020-09-26T09:20:00	0.2479	10.458	165.0	0.628394113	0.782250250	0.013271676	0.136921431	0.042200515
2020-09-26T09:25:00	0.2495	10.455	163.0	0.633443711	0.789780188	0.013471116	0.138979016	0.042834683
2020-09-26T09:30:00	0.2504	10.456	164.0	0.636505100	0.794355832	0.013592781	0.140234217	0.043221547
2020-09-26T09:35:00	0.2510	10.455	164.0	0.638573761	0.797452216	0.013675316	0.141085710	0.043483986
2020-09-26T09:40:00	0.2513	10.451	164.0	0.639651411	0.799066688	0.013718414	0.141530350	0.043621028
2020-09-26T09:45:00	0.2526	10.452	163.0	0.643696489	0.805135584	0.013880819	0.143205850	0.044137434
2020-09-26T09:50:00	0.2530	10.454	163.0	0.645102104	0.807247709	0.013937486	0.143790471	0.044317620
2020-09-26T09:55:00	0.2536	10.456	163.0	0.647165823	0.810351770	0.014020902	0.144651058	0.044582861
2020-09-26T10:00:00	0.2541	10.458	163.0	0.648899237	0.812961818	0.014091167	0.145375974	0.044806287
2020-09-26T10:05:00	0.2546	10.456	163.0	0.650224380	0.814958848	0.014145007	0.145931425	0.044977483
2020-09-26T10:10:00	0.2544	10.456	163.0	0.649575120	0.813980206	0.014118614	0.145659141	0.044893562
2020-09-26T10:15:00	0.2539	10.456	163.0	0.647938201	0.811514444	0.014052188	0.144973834	0.044682344
2020-09-26T10:20:00	0.2544	10.454	163.0	0.649592787	0.814006831	0.014119332	0.145666547	0.044895844
2020-09-26T10:25:00	0.2526	10.456	163.0	0.643673417	0.805100930	0.013879890	0.143196265	0.044134479
2020-09-26T10:30:00	0.2511	10.457	162.0	0.638734631	0.797693159	0.013681745	0.141152039	0.043504429
2020-09-26T10:35:00	0.2509	10.458	162.0	0.638083293	0.796717752	0.013655724	0.140883583	0.043421689
2020-09-26T10:40:00	0.2510	10.459	162.0	0.638422269	0.797225337	0.013669263	0.141023262	0.043464739
2020-09-26T10:45:00	0.2512	10.459	162.0	0.639091264	0.798227384	0.013696003	0.141299141	0.043549768
2020-09-26T10:50:00	0.2510	10.458	162.0	0.638439990	0.797251877	0.013669971	0.141030567	0.043466990
2020-09-26T10:55:00	0.2512	10.457	162.0	0.639108982	0.798253929	0.013696712	0.141306452	0.043552021
2020-09-26T11:00:00	0.2515	10.454	162.0	0.640107808	0.799750731	0.013736688	0.141718879	0.043679135
2020-09-26T11:05:00	0.2516	10.454	162.0	0.640446592	0.800258612	0.013750261	0.141858909	0.043722293
2020-09-26T11:10:00	0.2509	10.453	162.0	0.638145325	0.796810632	0.013658201	0.140909139	0.043429565
2020-09-26T11:15:00	0.2515	10.452	162.0	0.640134378	0.799790560	0.013737752	0.141729858	0.043682519
2020-09-26T11:20:00	0.2520	10.448	162.0	0.641792556	0.802277351	0.013804254	0.142415949	0.043893979
2020-09-26T11:25:00	0.2530	10.444	162.0	0.645097775	0.807241202	0.013937311	0.143788668	0.044317064
2020-09-26T11:30:00	0.2535	10.439	162.0	0.646753666	0.809731551	0.014004221	0.144478971	0.044529822
2020-09-26T11:35:00	0.2530	10.436	162.0	0.645115464	0.807267793	0.013938025	0.143796033	0.044319334
2020-09-26T11:40:00	0.2537	10.430	161.0	0.647429952	0.810749310	0.014031597	0.144761394	0.044616868
2020-09-26T11:45:00	0.2538	10.428	161.0	0.647768047	0.811258264	0.014045293	0.144902694	0.044660418
2020-09-26T11:50:00	0.2540	10.427	161.0	0.648435305	0.812263012	0.014072343	0.145181772	0.044746432
2020-09-26T11:55:00	0.2537	10.424	161.0	0.647456468	0.810789223	0.014032670	0.144772474	0.044620282
2020-09-26T12:00:00	0.2527	10.418	160.0	0.644171110	0.805848579	0.013899940	0.143403115	0.044198233
2020-09-26T12:05:00	0.2526	10.415	161.0	0.643850372	0.805366733	0.013887017	0.143269793	0.044157142
2020-09-26T12:10:00	0.2515	10.413	161.0	0.640231801	0.799936601	0.013741655	0.141770120	0.043694928
2020-09-26T12:15:00	0.2516	10.408	160.0	0.640570573	0.800444500	0.013755230	0.141910172	0.043738093
2020-09-26T12:20:00	0.2526	10.406	160.0	0.643876915	0.805406605	0.013888086	0.143280823	0.044160541
2020-09-26T12:25:00	0.2513	10.403	160.0	0.639598450	0.798987321	0.013716294	0.141508481	0.043614288
2020-09-26T12:30:00	0.2516	10.404	160.0	0.640597140	0.800484335	0.013756295	0.141921158	0.043741479
2020-09-26T12:35:00	0.2541	10.403	160.0	0.648843989	0.812878590	0.014088925	0.145352840	0.044799157
2020-09-26T12:40:00	0.2541	10.399	160.0	0.648852825	0.812891900	0.014089283	0.145356539	0.044800297
2020-09-26T12:45:00	0.2551	10.399	161.0	0.652151571	0.817865854	0.014223498	0.146741206	0.045227065
2020-09-26T12:50:00	0.2556	10.399	160.0	0.653804225	0.820361268	0.014290989	0.147437494	0.045441668
2020-09-26T12:55:00	0.2552	10.399	161.0	0.652498050	0.818388824	0.014237634	0.146887041	0.045272012
2020-09-26T13:00:00	0.2563	10.395	160.0	0.656121961	0.823864846	0.014385921	0.148416892	0.045743528
2020-09-26T13:05:00	0.2566	10.393	160.0	0.657116081	0.825369001	0.014426740	0.148838013	0.045873321
2020-09-26T13:10:00	0.2560	10.389	161.0	0.655154028	0.822401122	0.014346235	0.148007464	0.045617338
2020-09-26T13:15:00	0.2579	10.384	161.0	0.661072218	0.831363217	0.014589779	0.150520062	0.046391745
2020-09-26T13:20:00	0.2581	10.381	161.0	0.661737023	0.832371824	0.014617271	0.150803691	0.046479162
2020-09-26T13:25:00	0.2571	10.376	161.0	0.658464647	0.827410803	0.014482209	0.149410278	0.046049699
2020-09-26T13:30:00	0.2548	10.373	161.0	0.650915440	0.816000889	0.014173126	0.146221531	0.045066896
2020-09-26T13:35:00	0.2563	10.371	161.0	0.655855194	0.823461357	0.014374977	0.148303993	0.045708731
2020-09-26T13:40:00	0.2568	10.368	161.0	0.657506155	0.825959434	0.014442773	0.149003423	0.045924302
2020-09-26T13:45:00	0.2582	10.364	161.0	0.662108993	0.832936322	0.014632665	0.150962508	0.046528111
2020-09-26T13:50:00	0.2591	10.361	161.0	0.665068014	0.837431125	0.014755427	0.152229020	0.046918462
2020-09-26T13:55:00	0.2586	10.361	160.0	0.663438100	0.834954330	0.014687740	0.151530703	0.046703234
2020-09-26T14:00:00	0.2596	10.354	161.0	0.666723571	0.839949217	0.014824346	0.152940045	0.047137607
2020-09-26T14:05:00	0.2606	10.346	161.0	0.670006069	0.844948831	0.014961491	0.154354945	0.047573693
2020-09-26T14:10:00	0.2616	10.344	162.0	0.673285603	0.849953172	0.015099174	0.155775396	0.048011490
2020-09-26T14:15:00	0.2623	10.344	162.0	0.675582150	0.853463047	0.015195983	0.156774158	0.048319318
2020-09-26T14:20:00	0.2631	10.340	162.0	0.678203750	0.857475258	0.015306892	0.157918388	0.048671981
2020-09-26T14:25:00	0.2631	10.333	162.0	0.678212514	0.857488681	0.015307264	0.157922220	0.048673162
2020-09-26T14:30:00	0.2616	10.331	163.0	0.673320707	0.850006787	0.015100651	0.155790637	0.048016187
2020-09-26T14:35:00	0.2622	10.329	163.0	0.675290498	0.853017056	0.015183671	0.156647134	0.048280168
2020-09-26T14:40:00	0.2626	10.327	163.0	0.676606023	0.855029322	0.015239249	0.157220519	0.048456891
2020-09-26T14:45:00	0.2628	10.324	163.0	0.677267990	0.856042451	0.015267256	0.157509462	0.048545946
2020-09-26T14:50:00	0.2636	10.317	164.0	0.679888377	0.860056610	0.015378386	0.158655973	0.048899312
2020-09-26T14:55:00	0.2651	10.311	164.0	0.684788880	0.867579555	0.015587355	0.160811865	0.049563778
2020-09-26T15:00:00	0.2659	10.306	164.0	0.687403875	0.871602415	0.015699472	0.161968560	0.049920283
2020-09-26T15:05:00	0.2660	10.304	164.0	0.687738266	0.872117262	0.015713840	0.162116787	0.049965968
2020-09-26T15:10:00	0.2660	10.304	164.0	0.687747007	0.872130722	0.015714215	0.162120663	0.049967163
2020-09-26T15:15:00	0.2666	10.301	164.0	0.689709027	0.875153519	0.015798657	0.162991828	0.050235664
2020-09-26T15:20:00	0.2674	10.297	164.0	0.692320509	0.879182080	0.015911420	0.164155185	0.050594222
2020-09-26T15:25:00	0.2688	10.293	164.0	0.696879588	0.886229230	0.016109295	0.166196629	0.051223415
2020-09-26T15:30:00	0.2695	10.292	165.0	0.699161363	0.889763026	0.016208815	0.167223361	0.051539864
2020-09-26T15:35:00	0.2706	10.290	165.0	0.702739173	0.895313099	0.016365515	0.168840006	0.052038130
2020-09-26T15:40:00	0.2702	10.286	165.0	0.701450429	0.893312656	0.016308979	0.168256734	0.051858360
2020-09-26T15:45:00	0.2693	10.285	165.0	0.698538208	0.888797495	0.016181604	0.166942627	0.051453339
2020-09-26T15:50:00	0.2716	10.283	169.0	0.706006897	0.900391873	0.016509332	0.170323736	0.052495430
2020-09-26T15:55:00	0.2737	10.280	164.0	0.712813687	0.911000996	0.016811050	0.173436507	0.053454816
2020-09-26T16:00:00	0.2742	10.276	165.0	0.714439114	0.913540376	0.016883528	0.174184246	0.053685276
2020-09-26T16:05:00	0.2744	10.271	164.0	0.714959896	0.914354474	0.016906785	0.174424182	0.053759227
2020-09-26T16:10:00	0.2746	10.267	169.0	0.715480605	0.915168694	0.016930055	0.174664258	0.053833221
2020-09-26T16:15:00	0.2739	10.265	165.0	0.713415202	0.911940466	0.016837853	0.173713021	0.053540040
2020-09-26T16:20:00	0.2736	10.262	165.0	0.712319163	0.910228867	0.016789032	0.173209351	0.053384804
2020-09-26T16:25:00	0.2718	10.262	165.0	0.706690174	0.901455013	0.016539488	0.170634852	0.052591318
2020-09-26T16:30:00	0.2703	10.259	166.0	0.701701424	0.893702148	0.016319982	0.168370248	0.051893346
2020-09-26T16:35:00	0.2685	10.256	166.0	0.695731250	0.884452501	0.016059333	0.165681176	0.051064547
2020-09-26T16:40:00	0.2686	10.252	166.0	0.696254685	0.885262227	0.016082096	0.165916024	0.051136930
2020-09-26T16:45:00	0.2675	10.248	170.0	0.692552791	0.879540693	0.015921470	0.164258873	0.050626180
2020-09-26T16:50:00	0.2671	10.245	167.0	0.691125197	0.877337419	0.015859754	0.163622158	0.050429938
2020-09-26T16:55:00	0.2670	10.241	166.0	0.690998658	0.877142210	0.015854290	0.163565784	0.050412563
2020-09-26T17:00:00	0.2662	10.239	171.0	0.688268339	0.872933590	0.015736629	0.162351901	0.050038433
2020-09-26T17:05:00	0.2677	10.236	167.0	0.693347581	0.880768095	0.015955885	0.164613920	0.050735609
2020-09-26T17:10:00	0.2664	10.232	167.0	0.688991759	0.874048070	0.015767759	0.162673065	0.050137418
2020-09-26T17:15:00	0.2653	10.229	167.0	0.685282510	0.868338495	0.015608487	0.161029879	0.049630972
2020-09-26T17:20:00	0.2651	10.227	171.0	0.684829889	0.867642598	0.015589110	0.160829971	0.049569359
2020-09-26T17:25:00	0.2661	10.222	171.0	0.687960734	0.872459840	0.015723402	0.162215441	0.049996374
2020-09-26T17:30:00	0.2673	10.218	172.0	0.692064782	0.878787327	0.015900359	0.164041071	0.050559051
2020-09-26T17:35:00	0.2682	10.211	172.0	0.694864460	0.883112145	0.016021674	0.165292660	0.050944803
2020-09-26T17:40:00	0.2672	10.206	172.0	0.691486477	0.877894833	0.015875360	0.163783167	0.050479563
2020-09-26T17:45:00	0.2668	10.202	168.0	0.690383882	0.876194008	0.015827756	0.163292042	0.050328193
2020-09-26T17:50:00	0.2647	10.195	168.0	0.683417297	0.865471899	0.015528718	0.160206916	0.049377328
2020-09-26T17:55:00	0.2638	10.190	172.0	0.680681306	0.861272460	0.015412098	0.159003770	0.049006506
2020-09-26T18:00:00	0.2638	10.184	173.0	0.680554405	0.861077838	0.015406700	0.158948081	0.048989342
2020-09-26T18:05:00	0.2623	10.177	174.0	0.675529898	0.853383138	0.015193777	0.156751397	0.048312303
2020-09-26T18:10:00	0.2628	10.170	169.0	0.677362716	0.856187458	0.015271266	0.157550831	0.048558696
2020-09-26T18:15:00	0.2631	10.163	169.0	0.678215287	0.857492929	0.015307381	0.157923433	0.048673536
2020-09-26T18:20:00	0.2632	10.156	169.0	0.678414782	0.857798489	0.015315839	0.158010685	0.048700428
2020-09-26T18:25:00	0.2634	10.150	170.0	0.679267107	0.859104354	0.015352000	0.158383750	0.048815410
2020-09-26T18:30:00	0.2630	10.142	174.0	0.677834312	0.856909496	0.015291237	0.157756877	0.048622202
2020-09-26T18:35:00	0.2636	10.135	174.0	0.679992312	0.860215950	0.015382803	0.158701539	0.048913356
2020-09-26T18:40:00	0.2629	10.127	175.0	0.677580306	0.856520577	0.015280479	0.157645882	0.048587992
2020-09-26T18:45:00	0.2618	10.120	175.0	0.673859432	0.850829744	0.015123333	0.156024638	0.048088309
2020-09-26T18:50:00	0.2619	10.110	175.0	0.674386009	0.851634386	0.015145520	0.156253541	0.048158859
2020-09-26T18:55:00	0.2611	10.102	175.0	0.671643224	0.847445860	0.015030140	0.155063185	0.047791980
2020-09-26T19:00:00	0.2613	10.093	175.0	0.672497136	0.848749182	0.015066012	0.155433266	0.047906042
2020-09-26T19:05:00	0.2609	10.086	175.0	0.671061673	0.846558600	0.015005736	0.154811408	0.047714380
2020-09-26T19:10:00	0.2603	10.079	175.0	0.668971068	0.843371409	0.014918176	0.153908076	0.047435964
2020-09-26T19:15:00	0.2597	10.071	175.0	0.667206749	0.840684571	0.014844492	0.153147887	0.047201666
2020-09-26T19:20:00	0.2579	10.064	171.0	0.661179813	0.831526430	0.014594227	0.150565947	0.046405887
2020-09-26T19:25:00	0.2571	10.056	176.0	0.658755275	0.827851033	0.014494177	0.149533757	0.046087756
2020-09-26T19:30:00	0.2559	10.050	171.0	0.654686433	0.821694306	0.014327084	0.147809887	0.045556443
2020-09-26T19:35:00	0.2560	10.044	171.0	0.654887226	0.821997802	0.014335306	0.147894713	0.045582587
2020-09-26T19:40:00	0.2562	10.038	172.0	0.655745096	0.823294849	0.014370462	0.148257411	0.045694374
2020-09-26T19:45:00	0.2561	10.032	176.0	0.655288779	0.822604848	0.014351757	0.148064427	0.045634894
2020-09-26T19:50:00	0.2560	10.025	176.0	0.654832405	0.821914937	0.014333061	0.147871551	0.045575448
2020-09-26T19:55:00	0.2556	10.015	172.0	0.653718636	0.820231975	0.014287489	0.147401392	0.045430541
2020-09-26T20:00:00	0.2549	10.007	176.0	0.651289084	0.816564473	0.014188342	0.146378511	0.045115279
2020-09-26T20:05:00	0.2548	9.998	177.0	0.651161150	0.816371491	0.014183131	0.146324752	0.045098710
2020-09-26T20:10:00	0.2546	9.988	177.0	0.650375265	0.815186331	0.014151144	0.145994741	0.044996997
2020-09-26T20:15:00	0.2537	9.977	177.0	0.647284948	0.810531058	0.014025725	0.144700815	0.044598197
2020-09-26T20:20:00	0.2528	9.967	173.0	0.644521530	0.806375116	0.013914066	0.143548849	0.044243150
2020-09-26T20:25:00	0.2523	9.956	177.0	0.642745227	0.803707141	0.013842538	0.142810908	0.044015709
2020-09-26T20:30:00	0.2517	9.944	177.0	0.640968046	0.801040530	0.013771166	0.142074583	0.043788766
2020-09-26T20:35:00	0.2509	9.930	177.0	0.638199766	0.796892149	0.013660375	0.140931569	0.043436478
2020-09-26T20:40:00	0.2494	9.916	178.0	0.633115985	0.789290829	0.013458125	0.138844992	0.042793375
2020-09-26T20:45:00	0.2488	9.901	178.0	0.631334025	0.786631609	0.013387603	0.138117434	0.042569135
2020-09-26T20:50:00	0.2495	9.886	178.0	0.633519976	0.789894078	0.013474140	0.139010214	0.042844298
2020-09-26T20:55:00	0.2495	9.874	178.0	0.633721954	0.790195730	0.013482150	0.139092856	0.042869769
2020-09-26T21:00:00	0.2489	9.860	178.0	0.631609585	0.787042651	0.013398496	0.138229813	0.042603771
2020-09-26T21:05:00	0.2504	9.844	178.0	0.636438588	0.794256337	0.013590132	0.140206884	0.043213123
2020-09-26T21:10:00	0.2499	9.829	178.0	0.634988711	0.792088397	0.013532446	0.139611749	0.043029697
2020-09-26T21:15:00	0.2502	9.813	178.0	0.635851337	0.793378031	0.013566752	0.139965675	0.043138780
2020-09-26T21:20:00	0.2496	9.799	178.0	0.633740223	0.790223016	0.013482875	0.139100333	0.042872073
2020-09-26T21:25:00	0.2494	9.783	178.0	0.633281106	0.789537375	0.013464669	0.138912510	0.042814185
2020-09-26T21:30:00	0.2490	9.767	178.0	0.631829950	0.787371407	0.013407210	0.138319717	0.042631480
2020-09-26T21:35:00	0.2486	9.750	178.0	0.630709030	0.785699564	0.013362914	0.137862725	0.042490631
2020-09-26T21:40:00	0.2478	9.733	178.0	0.627932810	0.781563432	0.013253533	0.136734254	0.042142825
2020-09-26T21:45:00	0.2481	9.716	178.0	0.628797138	0.782850446	0.013287537	0.137085068	0.042250949
2020-09-26T21:50:00	0.2480	9.698	178.0	0.628668400	0.782658711	0.013282469	0.137032787	0.042234836
2020-09-26T21:55:00	0.2483	9.680	179.0	0.629532550	0.783945998	0.013316505	0.137383925	0.042343060
2020-09-26T22:00:00	0.2486	9.662	178.0	0.630727315	0.785726827	0.013363636	0.137870173	0.042492926
2020-09-26T22:05:00	0.2487	9.646	178.0	0.630973323	0.786093660	0.013373352	0.137970405	0.042523819
2020-09-26T22:10:00	0.2492	9.628	179.0	0.632542120	0.788434156	0.013435393	0.138610472	0.042721094
2020-09-26T22:15:00	0.2496	9.611	179.0	0.633779719	0.790282007	0.013484441	0.139116496	0.042877055
2020-09-26T22:20:00	0.2498	9.595	179.0	0.634686463	0.791636685	0.013520436	0.139487850	0.042991510
2020-09-26T22:25:00	0.2502	9.577	179.0	0.635923322	0.793485678	0.013569616	0.139995230	0.043147890
2020-09-26T22:30:00	0.2505	9.561	178.0	0.636829525	0.794841193	0.013605708	0.140367578	0.043262651
2020-09-26T22:35:00	0.2518	9.546	178.0	0.641035595	0.801141837	0.013773875	0.142102533	0.043797381
2020-09-26T22:40:00	0.2524	9.531	179.0	0.643259366	0.804479092	0.013863221	0.143024296	0.044081477
2020-09-26T22:45:00	0.2514	9.517	179.0	0.639876739	0.799404385	0.013727435	0.141623412	0.043649711
2020-09-26T22:50:00	0.2527	9.504	179.0	0.644079245	0.805710560	0.013896238	0.143364922	0.044186461
2020-09-26T22:55:00	0.2538	9.485	179.0	0.647618395	0.811032973	0.014039229	0.144840142	0.044641138
2020-09-26T23:00:00	0.2583	9.468	179.0	0.662648382	0.833755104	0.014655003	0.151192963	0.046599140
2020-09-26T23:05:00	0.2622	9.451	179.0	0.675329764	0.853077096	0.015185328	0.156664232	0.048285438
2020-09-26T23:10:00	0.2648	9.434	179.0	0.683731672	0.865954843	0.015542147	0.160345468	0.049420031
2020-09-26T23:15:00	0.2671	9.414	178.0	0.691138426	0.877357828	0.015860325	0.163628052	0.050431755
2020-09-26T23:20:00	0.2674	9.398	179.0	0.692356166	0.879237127	0.015912962	0.164171100	0.050599127
2020-09-26T23:25:00	0.2671	9.380	178.0	0.691296980	0.877602447	0.015867174	0.163698705	0.050453531
2020-09-26T23:30:00	0.2677	9.364	178.0	0.693165030	0.880486132	0.015947977	0.164532335	0.050710464
2020-09-26T23:35:00	0.2675	9.349	178.0	0.692431310	0.879353138	0.015916214	0.164204641	0.050609465
2020-09-26T23:40:00	0.2677	9.335	178.0	0.693323497	0.880730894	0.015954841	0.164603155	0.050732291
2020-09-26T23:45:00	0.2684	9.324	179.0	0.695515474	0.884118775	0.016049954	0.165584414	0.051034725
2020-09-26T23:50:00	0.2679	9.308	178.0	0.693807067	0.881477933	0.015975798	0.164819365	0.050798929
2020-09-26T23:55:00	0.2684	9.291	178.0	0.695348894	0.883861167	0.016042715	0.165509735	0.051011708
2020-09-27T00:00:00	0.2695	9.274	178.0	0.699163128	0.889765761	0.016208893	0.167224156	0.051540109
2020-09-27T00:05:00	0.2691	9.257	178.0	0.697781176	0.887624984	0.016148579	0.166601918	0.051348329
2020-09-27T00:10:00	0.2689	9.239	178.0	0.697048379	0.886490483	0.016116646	0.166272466	0.051246789
2020-09-27T00:15:00	0.2682	9.224	179.0	0.695015712	0.883345986	0.016028242	0.165360420	0.050965687
2020-09-27T00:20:00	0.2686	9.209	178.0	0.696232165	0.885227385	0.016081117	0.165905917	0.051133815
2020-09-27T00:25:00	0.2686	9.191	178.0	0.696148893	0.885098553	0.016077494	0.165868545	0.051122296
2020-09-27T00:30:00	0.2689	9.176	179.0	0.697040175	0.886477784	0.016116289	0.166268779	0.051245653
2020-09-27T00:35:00	0.2687	9.159	178.0	0.696632090	0.885846200	0.016098520	0.166085463	0.051189153
2020-09-27T00:40:00	0.2703	9.145	175.0	0.701742795	0.893766353	0.016321796	0.168388963	0.051899114
2020-09-27T00:45:00	0.2702	9.132	178.0	0.701335232	0.893133913	0.016303931	0.168204650	0.051842307
2020-09-27T00:50:00	0.2704	9.118	179.0	0.701900892	0.894011720	0.016328729	0.168460488	0.051921158
2020-09-27T00:55:00	0.2705	9.104	175.0	0.702466465	0.894889670	0.016353543	0.168716492	0.052000062
2020-09-27T01:00:00	0.2698	9.090	179.0	0.700112272	0.891237038	0.016250385	0.167652229	0.051672045
2020-09-27T01:05:00	0.2706	9.076	179.0	0.702624531	0.895135089	0.016360482	0.168788077	0.052022125
2020-09-27T01:10:00	0.2688	9.063	179.0	0.696698942	0.885949656	0.016101430	0.166115487	0.051198406
2020-09-27T01:15:00	0.2677	9.048	179.0	0.693365773	0.880796196	0.015956673	0.164622051	0.050738115
2020-09-27T01:20:00	0.2685	9.035	179.0	0.695882651	0.884686685	0.016065915	0.165749086	0.051085478
2020-09-27T01:25:00	0.2676	9.023	179.0	0.692873932	0.880036568	0.015935371	0.164402284	0.050670380
2020-09-27T01:30:00	0.2668	9.012	179.0	0.690188172	0.875892223	0.015819314	0.163204949	0.050301350
2020-09-27T01:35:00	0.2679	9.001	179.0	0.694007774	0.881788054	0.015984501	0.164909148	0.050826601
2020-09-27T01:40:00	0.2671	8.991	179.0	0.691322846	0.877642355	0.015868291	0.163710233	0.050457084
2020-09-27T01:45:00	0.2658	8.978	179.0	0.687007811	0.870992737	0.015682464	0.161793087	0.049866201
2020-09-27T01:50:00	0.2660	8.963	180.0	0.687575685	0.871866931	0.015706853	0.162044710	0.049943753
2020-09-27T01:55:00	0.2653	8.949	179.0	0.685537752	0.868731002	0.015619419	0.161142668	0.049665735
2020-09-27T02:00:00	0.2653	8.935	180.0	0.685454236	0.868602566	0.015615842	0.161105758	0.049654359
2020-09-27T02:05:00	0.2657	8.921	180.0	0.686673869	0.870478793	0.015668131	0.161645215	0.049820625
2020-09-27T02:10:00	0.2667	8.907	180.0	0.689846301	0.875365136	0.015804573	0.163052871	0.050254478
2020-09-27T02:15:00	0.2668	8.892	180.0	0.690413735	0.876240044	0.015829044	0.163305329	0.050332288
2020-09-27T02:20:00	0.2673	8.879	180.0	0.691956990	0.878620951	0.015895698	0.163992984	0.050544230
2020-09-27T02:25:00	0.2684	8.867	180.0	0.695449814	0.884017233	0.016047100	0.165554977	0.051025652
2020-09-27T02:30:00	0.2682	8.858	180.0	0.694716552	0.882883493	0.016015253	0.165226412	0.050924385
2020-09-27T02:35:00	0.2691	8.849	180.0	0.697882030	0.887781160	0.016152977	0.166647287	0.051362312
2020-09-27T02:40:00	0.2688	8.840	180.0	0.696824439	0.886143876	0.016106894	0.166171855	0.051215780
2020-09-27T02:45:00	0.2691	8.831	180.0	0.697715558	0.887523375	0.016145719	0.166572403	0.051339232
2020-09-27T02:50:00	0.2693	8.822	180.0	0.698281775	0.888400268	0.016170414	0.166827176	0.051417756
2020-09-27T02:55:00	0.2694	8.813	180.0	0.698847905	0.889277304	0.016195125	0.167082116	0.051496331
2020-09-27T03:00:00	0.2690	8.804	181.0	0.697465835	0.887136722	0.016134834	0.166460104	0.051304621
2020-09-27T03:05:00	0.2690	8.797	181.0	0.697382591	0.887007844	0.016131206	0.166422678	0.051293086
2020-09-27T03:10:00	0.2698	8.790	181.0	0.699896716	0.890902834	0.016240957	0.167554960	0.051642066
2020-09-27T03:15:00	0.2693	8.785	182.0	0.698515041	0.888761605	0.016180593	0.166932195	0.051450124
2020-09-27T03:20:00	0.2699	8.780	182.0	0.700379420	0.891651288	0.016262074	0.167772820	0.051709213
2020-09-27T03:25:00	0.2697	8.778	181.0	0.699647142	0.890515937	0.016230045	0.167442379	0.051607367
2020-09-27T03:30:00	0.2668	8.774	181.0	0.690464263	0.876317966	0.015831224	0.163327820	0.050339220
2020-09-27T03:35:00	0.2672	8.769	182.0	0.691682228	0.878196901	0.015883820	0.163870441	0.050506462
2020-09-27T03:40:00	0.2668	8.765	182.0	0.690297454	0.876060732	0.015824028	0.163253577	0.050316338
2020-09-27T03:45:00	0.2668	8.762	182.0	0.690214046	0.875932119	0.015820430	0.163216462	0.050304899
2020-09-27T03:50:00	0.2665	8.758	182.0	0.689479735	0.874800087	0.015788776	0.162889891	0.050204246
2020-09-27T03:55:00	0.2676	8.754	182.0	0.692974920	0.880192524	0.015939743	0.164447395	0.050684284
2020-09-27T04:00:00	0.2676	8.750	182.0	0.692891574	0.880063812	0.015936135	0.164410164	0.050672809
2020-09-27T04:05:00	0.2668	8.746	182.0	0.690303793	0.876070507	0.015824301	0.163256399	0.050317208
2020-09-27T04:10:00	0.2665	8.742	183.0	0.689342005	0.874587812	0.015782843	0.162828677	0.050185380
2020-09-27T04:15:00	0.2660	8.741	182.0	0.687728751	0.872102610	0.015713431	0.162112568	0.049964668
2020-09-27T04:20:00	0.2659	8.741	183.0	0.687417670	0.871623653	0.015700065	0.161974674	0.049922167
2020-09-27T04:25:00	0.2664	8.739	183.0	0.689060188	0.874153514	0.015770705	0.162703461	0.050146787
2020-09-27T04:30:00	0.2672	8.740	183.0	0.691677954	0.878190306	0.015883635	0.163868536	0.050505874
2020-09-27T04:35:00	0.2669	8.740	183.0	0.690716527	0.876707024	0.015842110	0.163440129	0.050373835
2020-09-27T04:40:00	0.2670	8.743	183.0	0.691056438	0.877231344	0.015856785	0.163591524	0.050420496
2020-09-27T04:45:00	0.2662	8.744	183.0	0.688467359	0.873240149	0.015745190	0.162440223	0.050065654
2020-09-27T04:50:00	0.2660	8.745	183.0	0.687830729	0.872259641	0.015717814	0.162157786	0.049978605
2020-09-27T04:55:00	0.2655	8.745	184.0	0.686216808	0.869775521	0.015648524	0.161442941	0.049758282
2020-09-27T05:00:00	0.2659	8.742	183.0	0.687534227	0.871803101	0.015705072	0.162026333	0.049938089
2020-09-27T05:05:00	0.2670	8.741	184.0	0.690803866	0.876841737	0.015845880	0.163479022	0.050385822
2020-09-27T05:10:00	0.2667	8.739	184.0	0.689842209	0.875358828	0.015804397	0.163051052	0.050253918
2020-09-27T05:15:00	0.2657	8.740	184.0	0.686600857	0.870366438	0.015664998	0.161612894	0.049810664
2020-09-27T05:20:00	0.2655	8.738	184.0	0.685963902	0.869386456	0.015637681	0.161331073	0.049723804
2020-09-27T05:25:00	0.2644	8.740	184.0	0.682393009	0.863898976	0.015485004	0.159755929	0.049238329
2020-09-27T05:30:00	0.2647	8.741	184.0	0.683385799	0.865423517	0.015527372	0.160193038	0.049373050
2020-09-27T05:35:00	0.2650	8.744	184.0	0.684378320	0.866948493	0.015569790	0.160630657	0.049507929
2020-09-27T05:40:00	0.2643	8.746	184.0	0.682110656	0.863465547	0.015472965	0.159631728	0.049200049
2020-09-27T05:45:00	0.2646	8.751	184.0	0.683103523	0.864989963	0.015515320	0.160068692	0.049334726
2020-09-27T05:50:00	0.2652	8.755	184.0	0.685073868	0.868017689	0.015599553	0.160937712	0.049602566
2020-09-27T05:55:00	0.2656	8.760	185.0	0.686391699	0.870044602	0.015656025	0.161520324	0.049782133
2020-09-27T06:00:00	0.2658	8.765	185.0	0.687057722	0.871069561	0.015684607	0.161815195	0.049873015
2020-09-27T06:05:00	0.2663	8.770	185.0	0.688700402	0.873599160	0.015755218	0.162543676	0.050097540
2020-09-27T06:10:00	0.2658	8.776	185.0	0.687086865	0.871114417	0.015685858	0.161828103	0.049876993
2020-09-27T06:15:00	0.2664	8.783	185.0	0.689055064	0.874145617	0.015770485	0.162701185	0.050146085
2020-09-27T06:20:00	0.2671	8.792	185.0	0.691347533	0.877680445	0.015869357	0.163721235	0.050460475
2020-09-27T06:25:00	0.2674	8.802	185.0	0.692337895	0.879208921	0.015912172	0.164162945	0.050596614
2020-09-27T06:30:00	0.2685	8.814	185.0	0.695928173	0.884757102	0.016067895	0.165769508	0.051091772
2020-09-27T06:35:00	0.2682	8.829	186.0	0.694967860	0.883272003	0.016026164	0.165338981	0.050959080
2020-09-27T06:40:00	0.2672	8.844	186.0	0.691731044	0.878272236	0.015885930	0.163892210	0.050513171
2020-09-27T06:45:00	0.2664	8.860	186.0	0.689142443	0.874280266	0.015774247	0.162740003	0.050158049
2020-09-27T06:50:00	0.2663	8.876	186.0	0.688831482	0.873801113	0.015760859	0.162601881	0.050115479
2020-09-27T06:55:00	0.2677	8.891	186.0	0.693075575	0.880347971	0.015944102	0.164492364	0.050698144
2020-09-27T07:00:00	0.2692	8.906	186.0	0.697964270	0.887908519	0.016156563	0.166684287	0.051373716
2020-09-27T07:05:00	0.2686	8.922	186.0	0.696029923	0.884914503	0.016072320	0.165815159	0.051105842
2020-09-27T07:10:00	0.2684	8.935	186.0	0.695394607	0.883931857	0.016044701	0.165530227	0.051018024
2020-09-27T07:15:00	0.2687	8.951	186.0	0.696383876	0.885462115	0.016087717	0.165974016	0.051154804
2020-09-27T07:20:00	0.2700	8.968	187.0	0.700619242	0.892023217	0.016272571	0.167881115	0.051742590
2020-09-27T07:25:00	0.2692	8.985	187.0	0.698036909	0.888021014	0.016159732	0.166716972	0.051383790
2020-09-27T07:30:00	0.2685	9.006	187.0	0.695777694	0.884524338	0.016061352	0.165702006	0.051070968
2020-09-27T07:35:00	0.2681	9.026	187.0	0.694492322	0.882536891	0.016005521	0.165126007	0.050893439
2020-09-27T07:40:00	0.2688	9.044	187.0	0.696781393	0.886077256	0.016105020	0.166152519	0.051209820
2020-09-27T07:45:00	0.2705	9.062	187.0	0.702313903	0.894652818	0.016346848	0.168647416	0.051978771
2020-09-27T07:50:00	0.2701	9.082	187.0	0.701030817	0.892661627	0.016290594	0.168067053	0.051799898
2020-09-27T07:55:00	0.2695	9.100	187.0	0.699098085	0.889664966	0.016206051	0.167194842	0.051531074
2020-09-27T08:00:00	0.2692	9.118	187.0	0.698138601	0.888178511	0.016164167	0.166762735	0.051397894
2020-09-27T08:05:00	0.2686	9.135	188.0	0.696204347	0.885184346	0.016079907	0.165893432	0.051129967
2020-09-27T08:10:00	0.2689	9.154	187.0	0.697193398	0.886714961	0.016122963	0.166337636	0.051266875
2020-09-27T08:15:00	0.2683	9.176	188.0	0.695258645	0.883721610	0.016038794	0.165469283	0.050999240
2020-09-27T08:20:00	0.2682	9.199	188.0	0.694948204	0.883241613	0.016025311	0.165330175	0.050956366
2020-09-27T08:25:00	0.2672	9.224	188.0	0.691711370	0.878241874	0.015885079	0.163883436	0.050510467
2020-09-27T08:30:00	0.2664	9.250	188.0	0.689122755	0.874249927	0.015773400	0.162731256	0.050155354
2020-09-27T08:35:00	0.2669	9.279	188.0	0.690764508	0.876781030	0.015844181	0.163461495	0.050380420
2020-09-27T08:40:00	0.2662	9.309	189.0	0.688500805	0.873291670	0.015746629	0.162455068	0.050070230
2020-09-27T08:45:00	0.2670	9.336	189.0	0.691118970	0.877327812	0.015859485	0.163619383	0.050429083
2020-09-27T08:50:00	0.2671	9.362	189.0	0.691133525	0.877350267	0.015860114	0.163625868	0.050431082
2020-09-27T08:55:00	0.2667	9.388	189.0	0.689846522	0.875365476	0.015804583	0.163052970	0.050254509
2020-09-27T09:00:00	0.2665	9.412	190.0	0.689210132	0.874384578	0.015777163	0.162770077	0.050167319
2020-09-27T09:05:00	0.2656	9.435	189.0	0.686293997	0.869894278	0.015651835	0.161477092	0.049768808
2020-09-27T09:10:00	0.2649	9.460	189.0	0.684027524	0.866409409	0.015554791	0.160475914	0.049460235
2020-09-27T09:15:00	0.2649	9.484	189.0	0.684042107	0.866431818	0.015555415	0.160482345	0.049462217
2020-09-27T09:20:00	0.2645	9.509	190.0	0.682752605	0.864451077	0.015500343	0.159914180	0.049287103
2020-09-27T09:25:00	0.2638	9.537	190.0	0.680483931	0.860969761	0.015403703	0.158917159	0.048979812
2020-09-27T09:30:00	0.2633	9.566	190.0	0.678866758	0.858490892	0.015335009	0.158208459	0.048761383
2020-09-27T09:35:00	0.2632	9.595	190.0	0.678554921	0.858013156	0.015321781	0.158071993	0.048719323
2020-09-27T09:40:00	0.2625	9.624	190.0	0.676283633	0.854536047	0.015225619	0.157079901	0.048413551
2020-09-27T09:45:00	0.2621	9.649	191.0	0.674991383	0.852559728	0.015171049	0.156516915	0.048240033
2020-09-27T09:50:00	0.2618	9.679	190.0	0.674025550	0.851083558	0.015130331	0.156096831	0.048110559
2020-09-27T09:55:00	0.2620	9.707	191.0	0.674693835	0.852104873	0.015158499	0.156387435	0.048200126
2020-09-27T10:00:00	0.2612	9.729	191.0	0.672093115	0.848132448	0.015049034	0.155258108	0.047852057
2020-09-27T10:05:00	0.2609	9.750	191.0	0.671077271	0.846582394	0.015006390	0.154818159	0.047716460
2020-09-27T10:10:00	0.2606	9.776	191.0	0.670061143	0.845032794	0.014963798	0.154378742	0.047581028
2020-09-27T10:15:00	0.2608	9.799	191.0	0.670680911	0.845977838	0.014989768	0.154646678	0.047663608
2020-09-27T10:20:00	0.2599	9.820	191.0	0.667700618	0.841436403	0.014865098	0.153360481	0.047267190
2020-09-27T10:25:00	0.2600	9.844	192.0	0.667993399	0.841882211	0.014877322	0.153486586	0.047306056
2020-09-27T10:30:00	0.2596	9.866	192.0	0.666648896	0.839835587	0.014821234	0.152907937	0.047127711
2020-09-27T10:35:00	0.2587	9.889	191.0	0.663993069	0.835797397	0.014710768	0.151768284	0.046776459
2020-09-27T10:40:00	0.2588	9.915	192.0	0.664286149	0.836242730	0.014722937	0.151893830	0.046815153
2020-09-27T10:45:00	0.2580	9.941	192.0	0.661628589	0.832207288	0.014612785	0.150757410	0.046464898
2020-09-27T10:50:00	0.2587	9.962	192.0	0.663889047	0.835639354	0.014706450	0.151723737	0.046762729
2020-09-27T10:55:00	0.2584	9.982	192.0	0.662870903	0.834092959	0.014664223	0.151288089	0.046628458
2020-09-27T11:00:00	0.2590	10.006	192.0	0.664802908	0.837028118	0.014744406	0.152115324	0.046883420
2020-09-27T11:05:00	0.2595	10.028	193.0	0.666406351	0.839466545	0.014811127	0.152803672	0.047095576
2020-09-27T11:10:00	0.2592	10.048	193.0	0.665388914	0.837919028	0.014768773	0.152366704	0.046960898
2020-09-27T11:15:00	0.2601	10.066	193.0	0.668301841	0.842351945	0.014890205	0.153619495	0.047347020
2020-09-27T11:20:00	0.2598	10.082	193.0	0.667612390	0.841302075	0.014861416	0.153322490	0.047255480
2020-09-27T11:25:00	0.2596	10.098	192.0	0.666922807	0.840252413	0.014832651	0.153025730	0.047164016
2020-09-27T11:30:00	0.2596	10.113	193.0	0.666888162	0.840199687	0.014831207	0.153010828	0.047159423
2020-09-27T11:35:00	0.2596	10.128	193.0	0.666853515	0.840146961	0.014829763	0.152995927	0.047154831
2020-09-27T11:40:00	0.2598	10.144	193.0	0.667473831	0.841091132	0.014855634	0.153262837	0.047237095
2020-09-27T11:45:00	0.2599	10.156	193.0	0.667766630	0.841536911	0.014867854	0.153388908	0.047275951
2020-09-27T11:50:00	0.2586	10.170	193.0	0.663472927	0.835007229	0.014689184	0.151545607	0.046707828
2020-09-27T11:55:00	0.2591	10.185	193.0	0.665076958	0.837444722	0.014755799	0.152232857	0.046919645
2020-09-27T12:00:00	0.2598	10.203	193.0	0.667335267	0.840880198	0.014849853	0.153203195	0.047218713
2020-09-27T12:05:00	0.2602	10.219	193.0	0.668610257	0.842821722	0.014903092	0.153752454	0.047387999
2020-09-27T12:10:00	0.2595	10.234	194.0	0.666610983	0.839777897	0.014819654	0.152891636	0.047122687
2020-09-27T12:15:00	0.2598	10.250	194.0	0.667558799	0.841220486	0.014859180	0.153299417	0.047248369
2020-09-27T12:20:00	0.2596	10.267	193.0	0.666869206	0.840170840	0.014830417	0.153002676	0.047156911
2020-09-27T12:25:00	0.2588	10.286	194.0	0.664213540	0.836132394	0.014719922	0.151862721	0.046805566
2020-09-27T12:30:00	0.2572	10.305	194.0	0.658931083	0.828117375	0.014501420	0.149608478	0.046110786
2020-09-27T12:35:00	0.2583	10.326	194.0	0.662505065	0.833537527	0.014649066	0.151131713	0.046580262
2020-09-27T12:40:00	0.2582	10.341	194.0	0.662142458	0.832987115	0.014634051	0.150976801	0.046532516
2020-09-27T12:45:00	0.2584	10.354	194.0	0.662763581	0.833930005	0.014659776	0.151242206	0.046614317
2020-09-27T12:50:00	0.2579	10.365	194.0	0.661089122	0.831388860	0.014590478	0.150527271	0.046393967
2020-09-27T12:55:00	0.2582	10.377	194.0	0.662366311	0.833326895	0.014643319	0.151072425	0.046561989
2020-09-27T13:00:00	0.2582	10.388	194.0	0.662331621	0.833274238	0.014641883	0.151057605	0.046557421
2020-09-27T13:05:00	0.2575	10.398	195.0	0.660000768	0.829738468	0.014545528	0.150063532	0.046251038
2020-09-27T13:10:00	0.2575	10.408	194.0	0.659966056	0.829685847	0.014544096	0.150048754	0.046246483
2020-09-27T13:15:00	0.2579	10.419	195.0	0.661243641	0.831623255	0.014596865	0.150593170	0.046414278
2020-09-27T13:20:00	0.2590	10.427	195.0	0.664815342	0.837047018	0.014744923	0.152120655	0.046885063
2020-09-27T13:25:00	0.2599	10.434	195.0	0.667728729	0.841479203	0.014866272	0.153372586	0.047270921
2020-09-27T13:30:00	0.2595	10.442	195.0	0.666384128	0.839432735	0.014810202	0.152794121	0.047092632
2020-09-27T13:35:00	0.2594	10.448	195.0	0.666021910	0.838881707	0.014795116	0.152638485	0.047044663
2020-09-27T13:40:00	0.2592	10.453	195.0	0.665332025	0.837832526	0.014766406	0.152342290	0.046953373
2020-09-27T13:45:00	0.2584	10.459	195.0	0.663003102	0.834293698	0.014669703	0.151344618	0.046645881
2020-09-27T13:50:00	0.2586	10.467	195.0	0.663624077	0.835236823	0.014695455	0.151610298	0.046727766
2020-09-27T13:55:00	0.2582	10.476	195.0	0.662277953	0.833192773	0.014639660	0.151034677	0.046550354
2020-09-27T14:00:00	0.2570	10.486	195.0	0.658306031	0.827170569	0.014475679	0.149342910	0.046028935
2020-09-27T14:05:00	0.2564	10.495	195.0	0.656301060	0.824135769	0.014393270	0.148492714	0.045766897
2020-09-27T14:10:00	0.2561	10.505	195.0	0.655280778	0.822592751	0.014351429	0.148061045	0.045633852
2020-09-27T14:15:00	0.2560	10.515	195.0	0.654917447	0.822043483	0.014336544	0.147907482	0.045586522
2020-09-27T14:20:00	0.2555	10.525	195.0	0.653239350	0.819508076	0.014267902	0.147199310	0.045368257
2020-09-27T14:25:00	0.2552	10.535	195.0	0.652218203	0.817966419	0.014226216	0.146769246	0.045235707
2020-09-27T14:30:00	0.2548	10.543	196.0	0.651196766	0.816425215	0.014184582	0.146339717	0.045103322
2020-09-27T14:35:00	0.2541	10.551	195.0	0.648858715	0.812900773	0.014089522	0.145359006	0.044801057
2020-09-27T14:40:00	0.2531	10.559	195.0	0.645530943	0.807892432	0.013954798	0.143969080	0.044372669
2020-09-27T14:45:00	0.2523	10.567	195.0	0.642859532	0.803878744	0.013847135	0.142858335	0.044030326
2020-09-27T14:50:00	0.2527	10.573	196.0	0.644143189	0.805806629	0.013898814	0.143391506	0.044194655
2020-09-27T14:55:00	0.2536	10.578	195.0	0.647073288	0.810212509	0.014017156	0.144612412	0.044570950
2020-09-27T15:00:00	0.2531	10.584	195.0	0.645391535	0.807682827	0.013949169	0.143911004	0.044354769
2020-09-27T15:05:00	0.2524	10.588	196.0	0.643049709	0.804164276	0.013854785	0.142937260	0.044054652
2020-09-27T15:10:00	0.2524	10.592	195.0	0.643014834	0.804111912	0.013853382	0.142922785	0.044050190
2020-09-27T15:15:00	0.2525	10.595	196.0	0.643309622	0.804554561	0.013865244	0.143045163	0.044087909
2020-09-27T15:20:00	0.2520	10.599	195.0	0.641955897	0.802522441	0.013810814	0.142483626	0.043914837
2020-09-27T15:25:00	0.2522	10.602	196.0	0.642580504	0.803459864	0.013835914	0.142742576	0.043994648
2020-09-27T15:30:00	0.2512	10.605	196.0	0.639246915	0.798460579	0.013702229	0.141363368	0.043569563
2020-09-27T15:35:00	0.2506	10.609	196.0	0.637231302	0.795442401	0.013621725	0.140532827	0.043313582
2020-09-27T15:40:00	0.2504	10.614	196.0	0.636535887	0.794401887	0.013594007	0.140246869	0.043225447
2020-09-27T15:45:00	0.2505	10.620	196.0	0.636831208	0.794843711	0.013605775	0.140368270	0.043262864
2020-09-27T15:50:00	0.2504	10.626	195.0	0.636466009	0.794297355	0.013591224	0.140218152	0.043216596
2020-09-27T15:55:00	0.2506	10.631	196.0	0.637091571	0.795233297	0.013616153	0.140475345	0.043295866
2020-09-27T16:00:00	0.2505	10.635	196.0	0.636726399	0.794686900	0.013601598	0.140325179	0.043249583
2020-09-27T16:05:00	0.2509	10.637	196.0	0.638289726	0.797026855	0.013663968	0.140968638	0.043447903
2020-09-27T16:10:00	0.2517	10.639	196.0	0.640842136	0.800851707	0.013766117	0.142022490	0.043772711
2020-09-27T16:15:00	0.2518	10.642	196.0	0.641084500	0.801215184	0.013775837	0.142122771	0.043803618
2020-09-27T16:20:00	0.2522	10.643	196.0	0.642645931	0.803558078	0.013838545	0.142769715	0.044003013
2020-09-27T16:25:00	0.2529	10.644	196.0	0.644865758	0.806892451	0.013927949	0.143692084	0.044287296
2020-09-27T16:30:00	0.2529	10.645	195.0	0.644778351	0.806761079	0.013924423	0.143655706	0.044276084
2020-09-27T16:35:00	0.2527	10.645	195.0	0.644031836	0.805639337	0.013894327	0.143345215	0.044180387
2020-09-27T16:40:00	0.2529	10.644	196.0	0.644933047	0.806993590	0.013930664	0.143720091	0.044295928
2020-09-27T16:45:00	0.2539	10.643	196.0	0.648139221	0.811817126	0.014060337	0.145057901	0.044708254
2020-09-27T16:50:00	0.2541	10.642	196.0	0.648710264	0.812677152	0.014083498	0.145296853	0.044781901
2020-09-27T16:55:00	0.2536	10.642	196.0	0.646976759	0.810067246	0.014013249	0.144572105	0.044558527
2020-09-27T17:00:00	0.2541	10.640	197.0	0.648864791	0.812909927	0.014089769	0.145361550	0.044801841
2020-09-27T17:05:00	0.2545	10.637	196.0	0.650093837	0.814762049	0.014139698	0.145876657	0.044960603
2020-09-27T17:10:00	0.2550	10.635	196.0	0.651651366	0.817111031	0.014203104	0.146530802	0.045162216
2020-09-27T17:15:00	0.2554	10.631	196.0	0.652879462	0.818964641	0.014253203	0.147047666	0.045321519
2020-09-27T17:20:00	0.2559	10.629	196.0	0.654764407	0.821812158	0.014330277	0.147842824	0.045566594
2020-09-27T17:25:00	0.2565	10.628	196.0	0.656648368	0.824661222	0.014407528	0.148639807	0.045812232
2020-09-27T17:30:00	0.2574	10.626	196.0	0.659515996	0.829003681	0.014525530	0.149857216	0.046187449
2020-09-27T17:35:00	0.2573	10.624	196.0	0.659100749	0.828374436	0.014508412	0.149680607	0.046133017
2020-09-27T17:40:00	0.2573	10.623	196.0	0.659341889	0.828739830	0.014518351	0.149783153	0.046164623
2020-09-27T17:45:00	0.2572	10.620	196.0	0.658926622	0.828110616	0.014501236	0.149606582	0.046110202
2020-09-27T17:50:00	0.2572	10.617	195.0	0.658839556	0.827978711	0.014497649	0.149569575	0.046098796
2020-09-27T17:55:00	0.2570	10.614	195.0	0.658424231	0.827349589	0.014480545	0.149393111	0.046044408
2020-09-27T18:00:00	0.2579	10.611	195.0	0.661290452	0.831694269	0.014598801	0.150613138	0.046420432
2020-09-27T18:05:00	0.2581	10.609	196.0	0.661859420	0.832557559	0.014622336	0.150855940	0.046495266
2020-09-27T18:10:00	0.2590	10.605	196.0	0.664722923	0.836906539	0.014741082	0.152081030	0.046872850
2020-09-27T18:15:00	0.2592	10.603	196.0	0.665618986	0.838268888	0.014778345	0.152465457	0.046991335
2020-09-27T18:20:00	0.2598	10.601	196.0	0.667497308	0.841126872	0.014856614	0.153272944	0.047240210
2020-09-27T18:25:00	0.2600	10.599	195.0	0.668065302	0.841991707	0.014880324	0.153517564	0.047315604
2020-09-27T18:30:00	0.2605	10.597	196.0	0.669615115	0.844352878	0.014945122	0.154186068	0.047521644
2020-09-27T18:35:00	0.2620	10.594	196.0	0.674760794	0.852207225	0.015161322	0.156416567	0.048209105
2020-09-27T18:40:00	0.2629	10.591	196.0	0.677614148	0.856572390	0.015281912	0.157660667	0.048592549
2020-09-27T18:45:00	0.2634	10.588	196.0	0.679159898	0.858940063	0.015347449	0.158336799	0.048800939
2020-09-27T18:50:00	0.2644	10.585	196.0	0.682335942	0.863811369	0.015482570	0.159730822	0.049230591
2020-09-27T18:55:00	0.2652	10.582	196.0	0.685183376	0.868186063	0.015604242	0.160986083	0.049617474
2020-09-27T19:00:00	0.2668	10.580	196.0	0.690307147	0.876075679	0.015824446	0.163257891	0.050317668
2020-09-27T19:05:00	0.2673	10.575	195.0	0.691847537	0.878452020	0.015890966	0.163944163	0.050529183
2020-09-27T19:10:00	0.2671	10.573	196.0	0.691435963	0.877816888	0.015873178	0.163760650	0.050472623
2020-09-27T19:15:00	0.2680	10.569	195.0	0.694276325	0.882203057	0.015996149	0.165029319	0.050863639
2020-09-27T19:20:00	0.2678	10.567	196.0	0.693539918	0.881065206	0.015964219	0.164699901	0.050762109
2020-09-27T19:25:00	0.2675	10.564	196.0	0.692478164	0.879425475	0.015918241	0.164225557	0.050615912
2020-09-27T19:30:00	0.2659	10.559	195.0	0.687510326	0.871766302	0.015704045	0.162015739	0.049934824
2020-09-27T19:35:00	0.2655	10.556	196.0	0.686121057	0.869628213	0.015644419	0.161400583	0.049745227
2020-09-27T19:40:00	0.2651	10.552	196.0	0.684731260	0.867490980	0.015584889	0.160786427	0.049555938
2020-09-27T19:45:00	0.2655	10.548	195.0	0.685948219	0.869362332	0.015637009	0.161324138	0.049721666
2020-09-27T19:50:00	0.2663	10.543	195.0	0.688792841	0.873741577	0.015759196	0.162584721	0.050110190
2020-09-27T19:55:00	0.2673	10.536	196.0	0.691960527	0.878626409	0.015895851	0.163994561	0.050544716
2020-09-27T20:00:00	0.2670	10.529	195.0	0.690898315	0.876987424	0.015849957	0.163521088	0.050398787
2020-09-27T20:05:00	0.2661	10.519	196.0	0.687882584	0.872339492	0.015720043	0.162180782	0.049985692
2020-09-27T20:10:00	0.2652	10.511	195.0	0.685190241	0.868196618	0.015604535	0.160989116	0.049618409
2020-09-27T20:15:00	0.2656	10.501	195.0	0.686407048	0.870068218	0.015656683	0.161527116	0.049784226
2020-09-27T20:20:00	0.2657	10.491	196.0	0.686646383	0.870436496	0.015666951	0.161633048	0.049816875
2020-09-27T20:25:00	0.2652	10.480	195.0	0.685256786	0.868298939	0.015607385	0.161018513	0.049627470
2020-09-27T20:30:00	0.2652	10.468	195.0	0.685170348	0.868166030	0.015603684	0.160980328	0.049615700
2020-09-27T20:35:00	0.2656	10.457	195.0	0.686387161	0.870037619	0.015655830	0.161518316	0.049781514
2020-09-27T20:40:00	0.2662	10.447	195.0	0.688254805	0.872912744	0.015736047	0.162345896	0.050036582
2020-09-27T20:45:00	0.2664	10.434	195.0	0.689145097	0.874284356	0.015774362	0.162741182	0.050158413
2020-09-27T20:50:00	0.2663	10.421	195.0	0.688733219	0.873649718	0.015756630	0.162558247	0.050102030
2020-09-27T20:55:00	0.2664	10.407	195.0	0.688972402	0.874018243	0.015766926	0.162664467	0.050134768
2020-09-27T21:00:00	0.2672	10.393	195.0	0.691489388	0.877899324	0.015875486	0.163784465	0.050479963
2020-09-27T21:05:00	0.2666	10.380	195.0	0.689776190	0.875257053	0.015801551	0.163021692	0.050244869
2020-09-27T21:10:00	0.2659	10.366	195.0	0.687410920	0.871613261	0.015699775	0.161971682	0.049921245
2020-09-27T21:15:00	0.2657	10.352	195.0	0.686673131	0.870477657	0.015668099	0.161644889	0.049820525
2020-09-27T21:20:00	0.2659	10.336	195.0	0.687238143	0.871347281	0.015692354	0.161895122	0.049897649
2020-09-27T21:25:00	0.2642	10.319	195.0	0.681937038	0.863199065	0.015465565	0.159555382	0.049176518
2020-09-27T21:30:00	0.2634	10.302	195.0	0.679240305	0.859063281	0.015350862	0.158372012	0.048811792
2020-09-27T21:35:00	0.2632	10.286	194.0	0.678500863	0.857930347	0.015319489	0.158048342	0.048712034
2020-09-27T21:40:00	0.2626	10.271	194.0	0.676454931	0.854798133	0.015232860	0.157154609	0.048436577
2020-09-27T21:45:00	0.2622	10.257	194.0	0.675388199	0.853166451	0.015187795	0.156689680	0.048293281
2020-09-27T21:50:00	0.2613	10.239	194.0	0.672359616	0.848539242	0.015060232	0.155373634	0.047887663
2020-09-27T21:55:00	0.2604	10.222	194.0	0.669328507	0.843916070	0.014933128	0.154062326	0.047483505
2020-09-27T22:00:00	0.2598	10.205	194.0	0.667604861	0.841290613	0.014861102	0.153319249	0.047254481
2020-09-27T22:05:00	0.2600	10.187	194.0	0.668216260	0.842221604	0.014886629	0.153582612	0.047335653
2020-09-27T22:10:00	0.2590	10.170	194.0	0.664897477	0.837171872	0.014748337	0.152155877	0.046895919
2020-09-27T22:15:00	0.2589	10.155	194.0	0.664526313	0.836607710	0.014732913	0.151996748	0.046846874
2020-09-27T22:20:00	0.2586	10.140	194.0	0.663499549	0.835047665	0.014690289	0.151557000	0.046711339
2020-09-27T22:25:00	0.2583	10.124	194.0	0.662472494	0.833488082	0.014647717	0.151117795	0.046575972
2020-09-27T22:30:00	0.2580	10.110	194.0	0.661445148	0.831928960	0.014605198	0.150679133	0.046440772
2020-09-27T22:35:00	0.2586	10.093	194.0	0.663369113	0.834849548	0.014684878	0.151501184	0.046694136
2020-09-27T22:40:00	0.2586	10.078	194.0	0.663653445	0.835281434	0.014696673	0.151622869	0.046731641
2020-09-27T22:45:00	0.2589	10.058	194.0	0.664593236	0.836709424	0.014735694	0.152025434	0.046855715
2020-09-27T22:50:00	0.2598	10.042	193.0	0.667498012	0.841127945	0.014856643	0.153273247	0.047240303
2020-09-27T22:55:00	0.2601	10.024	193.0	0.668436809	0.842557517	0.014895844	0.153677672	0.047364951
2020-09-27T23:00:00	0.2596	10.004	194.0	0.666756178	0.839998836	0.014825705	0.152954067	0.047141929
2020-09-27T23:05:00	0.2594	9.988	193.0	0.666057640	0.838936057	0.014796604	0.152653834	0.047049394
2020-09-27T23:10:00	0.2594	9.970	193.0	0.666014192	0.838869968	0.014794795	0.152635170	0.047043642
2020-09-27T23:15:00	0.2598	9.949	193.0	0.667608310	0.841295864	0.014861246	0.153320734	0.047254939
2020-09-27T23:20:00	0.2590	9.930	193.0	0.664944389	0.837243186	0.014750287	0.152175995	0.046902120
2020-09-27T23:25:00	0.2588	9.913	193.0	0.664245502	0.836180962	0.014721249	0.151876414	0.046809786
2020-09-27T23:30:00	0.2582	9.895	193.0	0.662235017	0.833127602	0.014637883	0.151016336	0.046544701
2020-09-27T23:35:00	0.2576	9.876	193.0	0.660223415	0.830076010	0.014554718	0.150158339	0.046280259
2020-09-27T23:40:00	0.2573	9.856	193.0	0.659195430	0.828517898	0.014512314	0.149720867	0.046145425
2020-09-27T23:45:00	0.2574	9.837	193.0	0.659480090	0.828949265	0.014524049	0.149841940	0.046182741
2020-09-27T23:50:00	0.2570	9.818	193.0	0.658123611	0.826894309	0.014468171	0.149265451	0.046005062
2020-09-27T23:55:00	0.2578	9.802	192.0	0.661033577	0.831304606	0.014588182	0.150503585	0.046386667
2020-09-28T00:00:00	0.2579	9.784	192.0	0.661318093	0.831736202	0.014599944	0.150624928	0.046424066
2020-09-28T00:05:00	0.2580	9.766	192.0	0.661602585	0.832167832	0.014611709	0.150746313	0.046461478
2020-09-28T00:10:00	0.2581	9.749	192.0	0.661887056	0.832599498	0.014623479	0.150867739	0.046498902
2020-09-28T00:15:00	0.2579	9.733	192.0	0.661187578	0.831538209	0.014594548	0.150569259	0.046406908
2020-09-28T00:20:00	0.2569	9.718	192.0	0.657862346	0.826498695	0.014457421	0.149154549	0.045970881
2020-09-28T00:25:00	0.2562	9.701	192.0	0.655519791	0.822954142	0.014361225	0.148162110	0.045665001
2020-09-28T00:30:00	0.2560	9.685	192.0	0.655147664	0.822391502	0.014345974	0.148004774	0.045616509
2020-09-28T00:35:00	0.2562	9.668	192.0	0.655761170	0.823319158	0.014371121	0.148264211	0.045696470
2020-09-28T00:40:00	0.2566	9.650	192.0	0.657031425	0.825240880	0.014423261	0.148802127	0.045862261
2020-09-28T00:45:00	0.2560	9.632	192.0	0.655016926	0.822193861	0.014340619	0.147949519	0.045599479
2020-09-28T00:50:00	0.2556	9.615	192.0	0.653658770	0.820141546	0.014285042	0.147376143	0.045422759
2020-09-28T00:55:00	0.2558	9.598	192.0	0.654272529	0.821068804	0.014310143	0.147635111	0.045502575
2020-09-28T01:00:00	0.2547	9.583	192.0	0.650611958	0.815543222	0.014160774	0.146094093	0.045027618
2020-09-28T01:05:00	0.2545	9.567	192.0	0.649910293	0.814485374	0.014132236	0.145799672	0.044936875
2020-09-28T01:10:00	0.2542	9.552	192.0	0.649208492	0.813427740	0.014103722	0.145505503	0.044846209
2020-09-28T01:15:00	0.2547	9.536	191.0	0.650810034	0.815841923	0.014168835	0.146177262	0.045053252
2020-09-28T01:20:00	0.2542	9.520	192.0	0.649121191	0.813296204	0.014100177	0.145468931	0.044834937
2020-09-28T01:25:00	0.2541	9.505	191.0	0.648748403	0.812734601	0.014085046	0.145312819	0.044786822
2020-09-28T01:30:00	0.2538	9.488	191.0	0.647717144	0.811181632	0.014043230	0.144881416	0.044653859
2020-09-28T01:35:00	0.2536	9.472	191.0	0.647014916	0.810124666	0.014014793	0.144588037	0.044563437
2020-09-28T01:40:00	0.2539	9.456	191.0	0.647959046	0.811545829	0.014053033	0.144982550	0.044685030
2020-09-28T01:45:00	0.2530	9.441	191.0	0.645280594	0.807516035	0.013944690	0.143864797	0.044340528
2020-09-28T01:50:00	0.2525	9.427	191.0	0.643589154	0.804974369	0.013876497	0.143161259	0.044123690
2020-09-28T01:55:00	0.2512	9.413	191.0	0.639257717	0.798476764	0.013702661	0.141367827	0.043570937
2020-09-28T02:00:00	0.2514	9.401	191.0	0.639873936	0.799400184	0.013727322	0.141622254	0.043649354
2020-09-28T02:05:00	0.2513	9.387	191.0	0.639500188	0.798840075	0.013712362	0.141467911	0.043601784
2020-09-28T02:10:00	0.2505	9.373	191.0	0.636815423	0.794820094	0.013605146	0.140361779	0.043260864
2020-09-28T02:15:00	0.2504	9.360	191.0	0.636441357	0.794260478	0.013590242	0.140208021	0.043213474
2020-09-28T02:20:00	0.2503	9.349	191.0	0.636067251	0.793700923	0.013575345	0.140054335	0.043166106
2020-09-28T02:25:00	0.2503	9.335	191.0	0.636353745	0.794129425	0.013586753	0.140172021	0.043202378
2020-09-28T02:30:00	0.2499	9.325	190.0	0.634988523	0.792088118	0.013532438	0.139611672	0.043029673
2020-09-28T02:35:00	0.2506	9.313	190.0	0.637256884	0.795480686	0.013622745	0.140543352	0.043316826
2020-09-28T02:40:00	0.2505	9.303	190.0	0.636882863	0.794920999	0.013607833	0.140389510	0.043269410
2020-09-28T02:45:00	0.2507	9.293	190.0	0.637499490	0.795843787	0.013632422	0.140643188	0.043347597
2020-09-28T02:50:00	0.2509	9.282	190.0	0.638116011	0.796766739	0.013657030	0.140897062	0.043425843
2020-09-28T02:55:00	0.2513	9.274	190.0	0.639392504	0.798678718	0.013708053	0.141423458	0.043588083
2020-09-28T03:00:00	0.2512	9.265	190.0	0.639348735	0.798613136	0.013706302	0.141405391	0.043582515
2020-09-28T03:05:00	0.2513	9.255	190.0	0.639634966	0.799042043	0.013717756	0.141523559	0.043618935
2020-09-28T03:10:00	0.2513	9.248	190.0	0.639591200	0.798976456	0.013716004	0.141505487	0.043613365
2020-09-28T03:15:00	0.2520	9.240	190.0	0.641856653	0.802373525	0.013806828	0.142442504	0.043902163
2020-09-28T03:20:00	0.2519	9.233	190.0	0.641483112	0.801813095	0.013791831	0.142287782	0.043854476
2020-09-28T03:25:00	0.2520	9.224	190.0	0.641769173	0.802242267	0.013803316	0.142406262	0.043890993
2020-09-28T03:30:00	0.2520	9.215	190.0	0.641725433	0.802176639	0.013801559	0.142388142	0.043885408
2020-09-28T03:35:00	0.2524	9.208	190.0	0.643000644	0.804090607	0.013852811	0.142916895	0.044048375
2020-09-28T03:40:00	0.2531	9.201	190.0	0.645593406	0.807986353	0.013957321	0.143995105	0.044380690
2020-09-28T03:45:00	0.2532	9.193	190.0	0.645879141	0.808416033	0.013968863	0.144114187	0.044417392
2020-09-28T03:50:00	0.2533	9.185	190.0	0.646164853	0.808845748	0.013980410	0.144233311	0.044454107
2020-09-28T03:55:00	0.2531	9.178	190.0	0.645462322	0.807789255	0.013952027	0.143940492	0.044363857
2020-09-28T04:00:00	0.2526	9.172	190.0	0.643770967	0.805247457	0.013883819	0.143236796	0.044146972
2020-09-28T04:05:00	0.2525	9.164	190.0	0.643633918	0.805041603	0.013878299	0.143179855	0.044129422
2020-09-28T04:10:00	0.2528	9.158	190.0	0.644485624	0.806321159	0.013912618	0.143533913	0.044238546
2020-09-28T04:15:00	0.2524	9.150	190.0	0.643030143	0.804134898	0.013853998	0.142929139	0.044052149
2020-09-28T04:20:00	0.2516	9.145	190.0	0.640584510	0.800465398	0.013755789	0.141915935	0.043739870
2020-09-28T04:25:00	0.2524	9.140	190.0	0.643085667	0.804218267	0.013856231	0.142952185	0.044059252
2020-09-28T04:30:00	0.2521	9.137	190.0	0.642289166	0.803022577	0.013824204	0.142621762	0.043957412
2020-09-28T04:35:00	0.2519	9.135	190.0	0.641492488	0.801827161	0.013792208	0.142291664	0.043855673
2020-09-28T04:40:00	0.2516	9.130	190.0	0.640365729	0.800137379	0.013747021	0.141825479	0.043711990
2020-09-28T04:45:00	0.2510	9.125	190.0	0.638578509	0.797459327	0.013675505	0.141087667	0.043484589
2020-09-28T04:50:00	0.2511	9.121	190.0	0.638771343	0.797748147	0.013683212	0.141167178	0.043509095
2020-09-28T04:55:00	0.2509	9.115	190.0	0.638304009	0.797048242	0.013664538	0.140974523	0.043449717
2020-09-28T05:00:00	0.2513	9.111	190.0	0.639486994	0.798820304	0.013711834	0.141462464	0.043600105
2020-09-28T05:05:00	0.2513	9.105	190.0	0.639679779	0.799109200	0.013719550	0.141542064	0.043624639
2020-09-28T05:10:00	0.2521	9.097	189.0	0.642181566	0.802861091	0.013819880	0.142577156	0.043943664
2020-09-28T05:15:00	0.2511	9.094	190.0	0.638745286	0.797709118	0.013682171	0.141156432	0.043505783
2020-09-28T05:20:00	0.2506	9.088	189.0	0.637287477	0.795526471	0.013623965	0.140555940	0.043320706
2020-09-28T05:25:00	0.2507	9.084	190.0	0.637480380	0.795815184	0.013631660	0.140635323	0.043345172
2020-09-28T05:30:00	0.2507	9.080	189.0	0.637673272	0.796103912	0.013639356	0.140714725	0.043369645
2020-09-28T05:35:00	0.2506	9.074	190.0	0.637205795	0.795404229	0.013620708	0.140522333	0.043310348
2020-09-28T05:40:00	0.2500	9.070	190.0	0.635086610	0.792234726	0.013536337	0.139651892	0.043042069
2020-09-28T05:45:00	0.2508	9.069	189.0	0.637921758	0.796475902	0.013649274	0.140817046	0.043401181
2020-09-28T05:50:00	0.2500	9.072	189.0	0.635142257	0.792317904	0.013538549	0.139674713	0.043049103
2020-09-28T05:55:00	0.2498	9.071	189.0	0.634674449	0.791618731	0.013519959	0.139482926	0.042989993
2020-09-28T06:00:00	0.2501	9.071	189.0	0.635528283	0.792894989	0.013553899	0.139833075	0.043097912
2020-09-28T06:05:00	0.2499	9.069	189.0	0.634730103	0.791701900	0.013522170	0.139505735	0.042997023
2020-09-28T06:10:00	0.2501	9.067	190.0	0.635583924	0.792978178	0.013556112	0.139855908	0.043104949
2020-09-28T06:15:00	0.2498	9.064	189.0	0.634455307	0.791291271	0.013511255	0.139393132	0.042962317
2020-09-28T06:20:00	0.2503	9.063	189.0	0.636300211	0.794049351	0.013584621	0.140150027	0.043195599
2020-09-28T06:25:00	0.2503	9.062	189.0	0.636162876	0.793843939	0.013579152	0.140093610	0.043178211
2020-09-28T06:30:00	0.2498	9.061	189.0	0.634704017	0.791662916	0.013521134	0.139495044	0.042993727
2020-09-28T06:35:00	0.2494	9.060	189.0	0.633244563	0.789482810	0.013463221	0.138897566	0.042809579
2020-09-28T06:40:00	0.2498	9.061	189.0	0.634429219	0.791252290	0.013510220	0.139382444	0.042959023
2020-09-28T06:45:00	0.2500	9.063	189.0	0.635283111	0.792528458	0.013544149	0.139732486	0.043066909
2020-09-28T06:50:00	0.2499	9.067	189.0	0.634815322	0.791829256	0.013525556	0.139540665	0.043007788
2020-09-28T06:55:00	0.2503	9.073	190.0	0.636329765	0.794093556	0.013585798	0.140162169	0.043199342
2020-09-28T07:00:00	0.2502	9.077	189.0	0.635862112	0.793394144	0.013567180	0.139970099	0.043140144
2020-09-28T07:05:00	0.2508	9.083	189.0	0.637706293	0.796153342	0.013640674	0.140728320	0.043373835
2020-09-28T07:10:00	0.2510	9.090	190.0	0.638559405	0.797430715	0.013674742	0.141079791	0.043482162
2020-09-28T07:15:00	0.2510	9.097	190.0	0.638422156	0.797225169	0.013669258	0.141023216	0.043464725
2020-09-28T07:20:00	0.2506	9.105	189.0	0.637294433	0.795536882	0.013624243	0.140558802	0.043321588
2020-09-28T07:25:00	0.2513	9.113	189.0	0.639467895	0.798791684	0.013711070	0.141454579	0.043597675
2020-09-28T07:30:00	0.2512	9.119	189.0	0.639330681	0.798586085	0.013705580	0.141397940	0.043580218
2020-09-28T07:35:00	0.2511	9.128	189.0	0.638863419	0.797886067	0.013686893	0.141205152	0.043520799
2020-09-28T07:40:00	0.2516	9.136	189.0	0.640376155	0.800153010	0.013747439	0.141829789	0.043713318
2020-09-28T07:45:00	0.2514	9.145	190.0	0.639909029	0.799452781	0.013728727	0.141636751	0.043653822
2020-09-28T07:50:00	0.2516	9.158	190.0	0.640431720	0.800236315	0.013749665	0.141852760	0.043720398
2020-09-28T07:55:00	0.2515	9.169	190.0	0.640294543	0.800030659	0.013744169	0.141796053	0.043702921
2020-09-28T08:00:00	0.2513	9.185	190.0	0.639497423	0.798835930	0.013712251	0.141466769	0.043601432
2020-09-28T08:05:00	0.2513	9.204	190.0	0.639360210	0.798630329	0.013706761	0.141410128	0.043583975
2020-09-28T08:10:00	0.2508	9.225	190.0	0.637902651	0.796447296	0.013648511	0.140809176	0.043398756
2020-09-28T08:15:00	0.2506	9.247	190.0	0.637104999	0.795253390	0.013616689	0.140480868	0.043297568
2020-09-28T08:20:00	0.2505	9.269	190.0	0.636967694	0.795047931	0.013611215	0.140424395	0.043280162
2020-09-28T08:25:00	0.2502	9.293	190.0	0.635839514	0.793360351	0.013566281	0.139960821	0.043137284
2020-09-28T08:30:00	0.2496	9.316	190.0	0.634050037	0.790685789	0.013495167	0.139227150	0.042911160
2020-09-28T08:35:00	0.2499	9.342	190.0	0.634904020	0.791961818	0.013529080	0.139577026	0.043018995
2020-09-28T08:40:00	0.2494	9.370	191.0	0.633114075	0.789287977	0.013458049	0.138844212	0.042793134
2020-09-28T08:45:00	0.2496	9.400	191.0	0.633968281	0.790563662	0.013491923	0.139193679	0.042900844
2020-09-28T08:50:00	0.2497	9.426	191.0	0.634161363	0.790852098	0.013499585	0.139272734	0.042925209
2020-09-28T08:55:00	0.2498	9.449	191.0	0.634684892	0.791634336	0.013520374	0.139487206	0.042991312
2020-09-28T09:00:00	0.2497	9.479	191.0	0.634217024	0.790935255	0.013501795	0.139295529	0.042932235
2020-09-28T09:05:00	0.2497	9.515	191.0	0.634079609	0.790729966	0.013496341	0.139239258	0.042914892
2020-09-28T09:10:00	0.2496	9.545	191.0	0.633942189	0.790524686	0.013490887	0.139182998	0.042897552
2020-09-28T09:15:00	0.2495	9.566	191.0	0.633474225	0.789825755	0.013472325	0.138991498	0.042838530
2020-09-28T09:20:00	0.2489	9.587	191.0	0.631683566	0.787153016	0.013401421	0.138259992	0.042613072
2020-09-28T09:25:00	0.2487	9.611	191.0	0.630884528	0.785961248	0.013369845	0.137934222	0.042512667
2020-09-28T09:30:00	0.2486	9.639	192.0	0.630746985	0.785756157	0.013364413	0.137878186	0.042495396
2020-09-28T09:35:00	0.2486	9.670	191.0	0.630609437	0.785551074	0.013358982	0.137822159	0.042478128
2020-09-28T09:40:00	0.2486	9.703	192.0	0.630471884	0.785345999	0.013353553	0.137766142	0.042460863
2020-09-28T09:45:00	0.2484	9.733	192.0	0.630003466	0.784647766	0.013335071	0.137575473	0.042402097
2020-09-28T09:50:00	0.2482	9.762	192.0	0.629204053	0.783456575	0.013303561	0.137250389	0.042301903
2020-09-28T09:55:00	0.2475	9.791	192.0	0.627080125	0.780294374	0.013220031	0.136388623	0.042036298
2020-09-28T10:00:00	0.2473	9.823	192.0	0.626280057	0.779104186	0.013188637	0.136064732	0.041936472
2020-09-28T10:05:00	0.2473	9.854	193.0	0.626142337	0.778899366	0.013183236	0.136009019	0.041919301
2020-09-28T10:10:00	0.2473	9.887	193.0	0.626335842	0.779187153	0.013190824	0.136087302	0.041943428
2020-09-28T10:15:00	0.2470	9.921	193.0	0.625204304	0.777504736	0.013146485	0.135629865	0.041802441
2020-09-28T10:20:00	0.2459	9.957	193.0	0.621751682	0.772377917	0.013011673	0.134239030	0.041373773
2020-09-28T10:25:00	0.2457	9.992	193.0	0.620950419	0.771189555	0.012980489	0.133917315	0.041274617
2020-09-28T10:30:00	0.2451	10.027	193.0	0.619153470	0.768526447	0.012910696	0.133197274	0.041052693
2020-09-28T10:35:00	0.2444	10.065	194.0	0.616691453	0.764882116	0.012815388	0.132213998	0.040749638
2020-09-28T10:40:00	0.2451	10.103	194.0	0.618877474	0.768117657	0.012899994	0.133086860	0.041018663
2020-09-28T10:45:00	0.2443	10.144	194.0	0.616415266	0.764473616	0.012804719	0.132103930	0.040715714
2020-09-28T10:50:00	0.2443	10.184	194.0	0.616277164	0.764269378	0.012799386	0.132048910	0.040698757
2020-09-28T10:55:00	0.2440	10.221	194.0	0.615474669	0.763082890	0.012768420	0.131729431	0.040600290
2020-09-28T11:00:00	0.2437	10.259	194.0	0.614339677	0.761405731	0.012724689	0.131278266	0.040461236
2020-09-28T11:05:00	0.2433	10.296	195.0	0.612871870	0.759238384	0.012668249	0.130695989	0.040281773
2020-09-28T11:10:00	0.2432	10.331	195.0	0.612733631	0.759034354	0.012662940	0.130641219	0.040264892
2020-09-28T11:15:00	0.2439	10.360	195.0	0.614922084	0.762266209	0.012747119	0.131509676	0.040532559
2020-09-28T11:20:00	0.2441	10.392	195.0	0.615780653	0.763535224	0.012780222	0.131851199	0.040637820
2020-09-28T11:25:00	0.2443	10.428	195.0	0.616306884	0.764313329	0.012800534	0.132060750	0.040702406
2020-09-28T11:30:00	0.2438	10.465	195.0	0.614839889	0.762144752	0.012743952	0.131477004	0.040522490
2020-09-28T11:35:00	0.2442	10.499	196.0	0.616030667	0.763904874	0.012789870	0.131950735	0.040668498
2020-09-28T11:40:00	0.2437	10.527	196.0	0.614231232	0.761245540	0.012720514	0.131235200	0.040447963
2020-09-28T11:45:00	0.2427	10.552	196.0	0.611100599	0.756625355	0.012600313	0.129995108	0.040065755
2020-09-28T11:50:00	0.2427	10.574	196.0	0.610962291	0.756421430	0.012595016	0.129940462	0.040048912
2020-09-28T11:55:00	0.2420	10.591	196.0	0.608827456	0.753275813	0.012513405	0.129098488	0.039789408
2020-09-28T12:00:00	0.2416	10.608	196.0	0.607357369	0.751111906	0.012457364	0.128520329	0.039611214
2020-09-28T12:05:00	0.2414	10.623	196.0	0.606552857	0.749928465	0.012426751	0.128204495	0.039513870
2020-09-28T12:10:00	0.2405	10.638	196.0	0.603748780	0.745807899	0.012320352	0.127106805	0.039175552
2020-09-28T12:15:00	0.2400	10.654	196.0	0.601943106	0.743157964	0.012252087	0.126402524	0.038958485
2020-09-28T12:20:00	0.2392	10.672	196.0	0.599469119	0.739531669	0.012158872	0.125440844	0.038662086
2020-09-28T12:25:00	0.2385	10.693	196.0	0.596993399	0.735907961	0.012065959	0.124482270	0.038366645
2020-09-28T12:30:00	0.2383	10.714	197.0	0.596520549	0.735216432	0.012048254	0.124299617	0.038310349
2020-09-28T12:35:00	0.2376	10.734	197.0	0.594042762	0.731595803	0.011955699	0.123344746	0.038016049
2020-09-28T12:40:00	0.2372	10.754	197.0	0.592566518	0.729441099	0.011900730	0.122777640	0.037841261
2020-09-28T12:45:00	0.2366	10.775	197.0	0.590755119	0.726799693	0.011833459	0.122083614	0.037627355
2020-09-28T12:50:00	0.2363	10.795	197.0	0.589612174	0.725134443	0.011791113	0.121646740	0.037492707
2020-09-28T12:55:00	0.2361	10.814	197.0	0.589138334	0.724444384	0.011773580	0.121465857	0.037436957
2020-09-28T13:00:00	0.2365	10.828	197.0	0.590337785	0.726191519	0.011817988	0.121924001	0.037578161
2020-09-28T13:05:00	0.2361	10.838	197.0	0.588859989	0.724039116	0.011763287	0.121359666	0.037404228
2020-09-28T13:10:00	0.2356	10.849	197.0	0.587381572	0.721887629	0.011708694	0.120796437	0.037230635
2020-09-28T13:15:00	0.2356	10.859	197.0	0.587242333	0.721685093	0.011703559	0.120743460	0.037214307
2020-09-28T13:20:00	0.2357	10.869	197.0	0.587772823	0.722456825	0.011723129	0.120945360	0.037276535
2020-09-28T13:25:00	0.2349	10.878	197.0	0.584953790	0.718358512	0.011619326	0.119874441	0.036946467
2020-09-28T13:30:00	0.2356	10.889	197.0	0.587159493	0.721564602	0.011700504	0.120711947	0.037204595
2020-09-28T13:35:00	0.2357	10.896	197.0	0.587689995	0.722336315	0.011720072	0.120913825	0.037266815
2020-09-28T13:40:00	0.2356	10.903	197.0	0.587215896	0.721646639	0.011702584	0.120733403	0.037211207
2020-09-28T13:45:00	0.2359	10.908	197.0	0.588416002	0.723392806	0.011746879	0.121190380	0.037352052
2020-09-28T13:50:00	0.2362	10.913	198.0	0.589281023	0.724652165	0.011778859	0.121520312	0.037453740
2020-09-28T13:55:00	0.2354	10.920	197.0	0.586798142	0.721039085	0.011687185	0.120574538	0.037162244
2020-09-28T14:00:00	0.2350	10.924	198.0	0.585318859	0.718888877	0.011632742	0.120012851	0.036989126
2020-09-28T14:05:00	0.2351	10.930	198.0	0.585514605	0.719173298	0.011639938	0.120087099	0.037012010
2020-09-28T14:10:00	0.2354	10.935	198.0	0.586715291	0.720918609	0.011684133	0.120543044	0.037152537
2020-09-28T14:15:00	0.2351	10.941	198.0	0.585571034	0.719255297	0.011642014	0.120108508	0.037018609
2020-09-28T14:20:00	0.2348	10.945	198.0	0.584761543	0.718079264	0.011612264	0.119801586	0.036924012
2020-09-28T14:25:00	0.2343	10.949	198.0	0.582946124	0.715443795	0.011545687	0.119114723	0.036712315
2020-09-28T14:30:00	0.2339	10.953	198.0	0.581465220	0.713295973	0.011491523	0.118555920	0.036540086
2020-09-28T14:35:00	0.2339	10.955	198.0	0.581661180	0.713580078	0.011498682	0.118629787	0.036562852
2020-09-28T14:40:00	0.2341	10.957	198.0	0.582192513	0.714350570	0.011518107	0.118830188	0.036624618
2020-09-28T14:45:00	0.2335	10.958	198.0	0.580375766	0.711717052	0.011451759	0.118145685	0.036413647
2020-09-28T14:50:00	0.2339	10.959	198.0	0.581578208	0.713459781	0.011495651	0.118598508	0.036553212
2020-09-28T14:55:00	0.2347	10.960	198.0	0.584456394	0.717636083	0.011601059	0.119685991	0.036888385
2020-09-28T15:00:00	0.2346	10.960	198.0	0.583981859	0.716947049	0.011583646	0.119506345	0.036833016
2020-09-28T15:05:00	0.2347	10.959	198.0	0.584177679	0.717231361	0.011590830	0.119580461	0.036855859
2020-09-28T15:10:00	0.2352	10.961	198.0	0.586048884	0.719949775	0.011659593	0.120289875	0.037074508
2020-09-28T15:15:00	0.2345	10.961	198.0	0.583563721	0.716340061	0.011568314	0.119348164	0.036784263
2020-09-28T15:20:00	0.2333	10.963	198.0	0.579734650	0.710788358	0.011428392	0.117904611	0.036339346
2020-09-28T15:25:00	0.2333	10.964	198.0	0.579595107	0.710586268	0.011423309	0.117852174	0.036323184
2020-09-28T15:30:00	0.2332	10.964	198.0	0.579119915	0.709898199	0.011406009	0.117673694	0.036268175
2020-09-28T15:35:00	0.2335	10.963	198.0	0.580322787	0.711640297	0.011449827	0.118125754	0.036407505
2020-09-28T15:40:00	0.2336	10.964	198.0	0.580518811	0.711924309	0.011456976	0.118199507	0.036430236
2020-09-28T15:45:00	0.2330	10.964	198.0	0.578701198	0.709292061	0.011390776	0.117516541	0.036219739
2020-09-28T15:50:00	0.2342	10.963	198.0	0.582587873	0.714924040	0.011532572	0.118979418	0.036670612
2020-09-28T15:55:00	0.2344	10.962	198.0	0.583454328	0.716181285	0.011564305	0.119306798	0.036771514
2020-09-28T16:00:00	0.2346	10.961	198.0	0.583985390	0.716952175	0.011583776	0.119507681	0.036833428
2020-09-28T16:05:00	0.2351	10.961	198.0	0.585761833	0.719532569	0.011649031	0.120180908	0.037040923
2020-09-28T16:10:00	0.2352	10.958	198.0	0.585862693	0.719679153	0.011652742	0.120219190	0.037052722
2020-09-28T16:15:00	0.2347	10.954	198.0	0.584288112	0.717391713	0.011594883	0.119622269	0.036868745
2020-09-28T16:20:00	0.2349	10.948	198.0	0.585059265	0.718511732	0.011623201	0.119914422	0.036958789
2020-09-28T16:25:00	0.2352	10.944	198.0	0.585830249	0.719632001	0.011651548	0.120206875	0.037048926
2020-09-28T16:30:00	0.2355	10.942	198.0	0.586935995	0.721239554	0.011692266	0.120626949	0.037178397
2020-09-28T16:35:00	0.2360	10.940	198.0	0.588710951	0.723822143	0.011757778	0.121302826	0.037386709
2020-09-28T16:40:00	0.2366	10.937	198.0	0.590819574	0.726893635	0.011835849	0.122108275	0.037634956
2020-09-28T16:45:00	0.2367	10.932	198.0	0.590920288	0.727040432	0.011839585	0.122146814	0.037646834
2020-09-28T16:50:00	0.2369	10.926	198.0	0.591689991	0.728162594	0.011868154	0.122441552	0.037737675
2020-09-28T16:55:00	0.2377	10.919	198.0	0.594465298	0.732212865	0.011971457	0.123507313	0.038066153
2020-09-28T17:00:00	0.2381	10.914	197.0	0.595568339	0.733824423	0.012012642	0.123932214	0.038197112
2020-09-28T17:05:00	0.2389	10.908	197.0	0.598340600	0.737879222	0.012116474	0.125003424	0.038527269
2020-09-28T17:10:00	0.2390	10.902	197.0	0.598774909	0.738515039	0.012132782	0.125171671	0.038579125
2020-09-28T17:15:00	0.2395	10.896	197.0	0.600210280	0.740617503	0.012186759	0.125728549	0.038750760
2020-09-28T17:20:00	0.2398	10.890	197.0	0.601311530	0.742231732	0.012228256	0.126156660	0.038882708
2020-09-28T17:25:00	0.2392	10.885	197.0	0.599410114	0.739445244	0.012156654	0.125417954	0.038655031
2020-09-28T17:30:00	0.2388	10.880	197.0	0.598175437	0.737637470	0.012110275	0.124939472	0.038507559
2020-09-28T17:35:00	0.2388	10.875	197.0	0.597942087	0.737295948	0.012101519	0.124849146	0.038479719
2020-09-28T17:40:00	0.2383	10.871	197.0	0.596372893	0.735000529	0.012042728	0.124242608	0.038292779
2020-09-28T17:45:00	0.2392	10.866	197.0	0.599478266	0.739545068	0.012159216	0.125444392	0.038663180
2020-09-28T17:50:00	0.2401	10.862	197.0	0.602247465	0.743604437	0.012263580	0.126521094	0.038995030
2020-09-28T17:55:00	0.2405	10.858	197.0	0.603681427	0.745709006	0.012317803	0.127080499	0.039167444
2020-09-28T18:00:00	0.2408	10.853	197.0	0.604781599	0.747324850	0.012359487	0.127510549	0.039299989
2020-09-28T18:05:00	0.2412	10.848	197.0	0.605881428	0.748941207	0.012401231	0.127941213	0.039432725
2020-09-28T18:10:00	0.2407	10.844	197.0	0.604315752	0.746640528	0.012341828	0.127328361	0.039243837
2020-09-28T18:15:00	0.2406	10.839	197.0	0.604082806	0.746298401	0.012333002	0.127237308	0.039215774
2020-09-28T18:20:00	0.2411	10.835	197.0	0.605849168	0.748893782	0.012400005	0.127928571	0.039428828
2020-09-28T18:25:00	0.2413	10.830	197.0	0.606282557	0.749530976	0.012416474	0.128098471	0.039481193
2020-09-28T18:30:00	0.2414	10.826	197.0	0.606715894	0.750168249	0.012432951	0.128268467	0.039533587
2020-09-28T18:35:00	0.2415	10.822	197.0	0.607149177	0.750805602	0.012449438	0.128438559	0.039586011
2020-09-28T18:40:00	0.2411	10.819	197.0	0.605584061	0.748504083	0.012389937	0.127824698	0.039396813
2020-09-28T18:45:00	0.2418	10.815	197.0	0.608015585	0.752080547	0.012482440	0.128779028	0.039690947
2020-09-28T18:50:00	0.2435	10.809	196.0	0.613770841	0.760565578	0.012702800	0.131052451	0.040391638
2020-09-28T18:55:00	0.2433	10.804	196.0	0.612873640	0.759240996	0.012668317	0.130696691	0.040281989
2020-09-28T19:00:00	0.2424	10.800	196.0	0.609980340	0.754974078	0.012557444	0.129552832	0.039929441
2020-09-28T19:05:00	0.2428	10.796	195.0	0.611411180	0.757083342	0.012612212	0.130117862	0.040103589
2020-09-28T19:10:00	0.2433	10.793	196.0	0.613173900	0.759684208	0.012679852	0.130815694	0.040318668
2020-09-28T19:15:00	0.2433	10.790	195.0	0.612941534	0.759341207	0.012670925	0.130723594	0.040290281
2020-09-28T19:20:00	0.2435	10.786	195.0	0.613706464	0.760470513	0.012700325	0.131026907	0.040383765
2020-09-28T19:25:00	0.2433	10.784	196.0	0.613141706	0.759636684	0.012678615	0.130802932	0.040314734
2020-09-28T19:30:00	0.2432	10.780	195.0	0.612576858	0.758802990	0.012656921	0.130579120	0.040245753
2020-09-28T19:35:00	0.2434	10.777	196.0	0.613341866	0.759932177	0.012686307	0.130882290	0.040339193
2020-09-28T19:40:00	0.2434	10.774	195.0	0.613441943	0.760079931	0.012690154	0.130921977	0.040351425
2020-09-28T19:45:00	0.2437	10.772	196.0	0.614206765	0.761209400	0.012719572	0.131225484	0.040444969
2020-09-28T19:50:00	0.2431	10.767	196.0	0.612312252	0.758412534	0.012646765	0.130474342	0.040213459
2020-09-28T19:55:00	0.2428	10.765	196.0	0.611414683	0.757088509	0.012612346	0.130119247	0.040104016
2020-09-28T20:00:00	0.2436	10.763	195.0	0.614174581	0.761161861	0.012718334	0.131212705	0.040441030
2020-09-28T20:05:00	0.2440	10.761	196.0	0.615271505	0.762782598	0.012760586	0.131648614	0.040575381
2020-09-28T20:10:00	0.2446	10.758	196.0	0.617364377	0.765877685	0.012841402	0.132482375	0.040832355
2020-09-28T20:15:00	0.2450	10.756	196.0	0.618792250	0.767991441	0.012896690	0.133052775	0.041008157
2020-09-28T20:20:00	0.2452	10.754	196.0	0.619224063	0.768631016	0.012913434	0.133225523	0.041061400
2020-09-28T20:25:00	0.2444	10.752	196.0	0.616668056	0.764847507	0.012814484	0.132204672	0.040746764
2020-09-28T20:30:00	0.2443	10.750	196.0	0.616435918	0.764504160	0.012805517	0.132112159	0.040718250
2020-09-28T20:35:00	0.2442	10.748	195.0	0.615871593	0.763669675	0.012783731	0.131887400	0.040648977
2020-09-28T20:40:00	0.2443	10.747	195.0	0.616303761	0.764308711	0.012800413	0.132059506	0.040702022
2020-09-28T20:45:00	0.2443	10.744	195.0	0.616403754	0.764456591	0.012804275	0.132099343	0.040714300
2020-09-28T20:50:00	0.2441	10.743	196.0	0.615839424	0.763622113	0.012782490	0.131874593	0.040645030
2020-09-28T20:55:00	0.2436	10.741	196.0	0.613945782	0.760823931	0.012709530	0.131121877	0.040413036
2020-09-28T21:00:00	0.2441	10.739	196.0	0.615707245	0.763426698	0.012777390	0.131821980	0.040628815
2020-09-28T21:05:00	0.2437	10.738	196.0	0.614478230	0.761610411	0.012730023	0.131333298	0.040478198
2020-09-28T21:10:00	0.2441	10.736	196.0	0.615575061	0.763231290	0.012772291	0.131769376	0.040612601
2020-09-28T21:15:00	0.2440	10.734	196.0	0.615342853	0.762888051	0.012763337	0.131676992	0.040584128
2020-09-28T21:20:00	0.2437	10.733	196.0	0.614446049	0.761562868	0.012728784	0.131320515	0.040474258
2020-09-28T21:25:00	0.2439	10.732	196.0	0.614878390	0.762201643	0.012745435	0.131492307	0.040527206
2020-09-28T21:30:00	0.2442	10.731	196.0	0.615975097	0.763822709	0.012787726	0.131928608	0.040661678
2020-09-28T21:35:00	0.2448	10.730	196.0	0.618067555	0.766918424	0.012868614	0.132763119	0.040918883
2020-09-28T21:40:00	0.2446	10.728	196.0	0.617171438	0.765592200	0.012833940	0.132405398	0.040808630
2020-09-28T21:45:00	0.2451	10.727	196.0	0.618931306	0.768197386	0.012902081	0.133108392	0.041025299
2020-09-28T21:50:00	0.2445	10.726	196.0	0.617039308	0.765396709	0.012828832	0.132352695	0.040792386
2020-09-28T21:55:00	0.2444	10.725	196.0	0.616807195	0.765053326	0.012819861	0.132260139	0.040763859
2020-09-28T22:00:00	0.2443	10.724	195.0	0.616242929	0.764218751	0.012798065	0.132035273	0.040694553
2020-09-28T22:05:00	0.2436	10.723	196.0	0.614017156	0.760929344	0.012712276	0.131150207	0.040421768
2020-09-28T22:10:00	0.2427	10.723	195.0	0.611124787	0.756661020	0.012601240	0.130004666	0.040068701
2020-09-28T22:15:00	0.2423	10.722	196.0	0.609561424	0.754356861	0.012541432	0.129387644	0.039878529
2020-09-28T22:20:00	0.2421	10.722	195.0	0.608996006	0.753524027	0.012519838	0.129164861	0.039809864
2020-09-28T22:25:00	0.2418	10.721	196.0	0.608097598	0.752201266	0.012485566	0.128811280	0.039700888
2020-09-28T22:30:00	0.2411	10.721	196.0	0.605533572	0.748429873	0.012388020	0.127804921	0.039390718
2020-09-28T22:35:00	0.2405	10.720	195.0	0.603634423	0.745639992	0.012316023	0.127062142	0.039161786
2020-09-28T22:40:00	0.2403	10.718	195.0	0.603068060	0.744808580	0.012294594	0.126841062	0.039093647
2020-09-28T22:45:00	0.2403	10.718	195.0	0.603168426	0.744955896	0.012298390	0.126880225	0.039105718
2020-09-28T22:50:00	0.2398	10.717	196.0	0.601268008	0.742167917	0.012226614	0.126139727	0.038877489
2020-09-28T22:55:00	0.2398	10.717	196.0	0.601368425	0.742315157	0.012230402	0.126178799	0.038889531
2020-09-28T23:00:00	0.2387	10.717	195.0	0.597798007	0.737085103	0.012096115	0.124793392	0.038462535
2020-09-28T23:05:00	0.2381	10.716	195.0	0.595560619	0.733813141	0.012012354	0.123929238	0.038196195
2020-09-28T23:10:00	0.2382	10.716	196.0	0.595995270	0.734448449	0.012028602	0.124096873	0.038247862
2020-09-28T23:15:00	0.2378	10.716	196.0	0.594759400	0.732642453	0.011982431	0.123620530	0.038101048
2020-09-28T23:20:00	0.2375	10.716	196.0	0.593523097	0.730837100	0.011936334	0.123144962	0.037954473
2020-09-28T23:25:00	0.2379	10.716	196.0	0.594960602	0.732936385	0.011989941	0.123698016	0.038124930
2020-09-28T23:30:00	0.2383	10.715	196.0	0.596397522	0.735036540	0.012043650	0.124252116	0.038295709
2020-09-28T23:35:00	0.2380	10.715	195.0	0.595495911	0.733718574	0.012009936	0.123904291	0.038188506
2020-09-28T23:40:00	0.2377	10.714	196.0	0.594259866	0.731912838	0.011963794	0.123428261	0.038041789
2020-09-28T23:45:00	0.2379	10.713	195.0	0.595028840	0.733036081	0.011992489	0.123724301	0.038133031
2020-09-28T23:50:00	0.2377	10.713	196.0	0.594461096	0.732206728	0.011971300	0.123505696	0.038065655
2020-09-28T23:55:00	0.2377	10.713	196.0	0.594227500	0.731865572	0.011962587	0.123415809	0.038037951
2020-09-29T00:00:00	0.2375	10.712	196.0	0.593659627	0.731036411	0.011941421	0.123197434	0.037970646
2020-09-29T00:05:00	0.2371	10.713	195.0	0.592422938	0.729231630	0.011895391	0.122722555	0.037824283
2020-09-29T00:10:00	0.2378	10.712	195.0	0.594529344	0.732306409	0.011973846	0.123531963	0.038073751
2020-09-29T00:15:00	0.2379	10.712	195.0	0.594964122	0.732941528	0.011990073	0.123699371	0.038125348
2020-09-29T00:20:00	0.2379	10.713	196.0	0.595064718	0.733088500	0.011993829	0.123738122	0.038137291
2020-09-29T00:25:00	0.2369	10.713	196.0	0.591822387	0.728355667	0.011873071	0.122492287	0.037753312
2020-09-29T00:30:00	0.2364	10.712	196.0	0.589915854	0.725576792	0.011802357	0.121762739	0.037528459
2020-09-29T00:35:00	0.2363	10.712	195.0	0.589681956	0.725236083	0.011793696	0.121673390	0.037500920
2020-09-29T00:40:00	0.2356	10.712	196.0	0.587439413	0.721971768	0.011710827	0.120818447	0.037237419
2020-09-29T00:45:00	0.2355	10.712	196.0	0.586870446	0.721144228	0.011689850	0.120602026	0.037170716
2020-09-29T00:50:00	0.2350	10.711	196.0	0.585296316	0.718856124	0.011631913	0.120004302	0.036986491
2020-09-29T00:55:00	0.2349	10.711	196.0	0.585062112	0.718515868	0.011623306	0.119915501	0.036959122
2020-09-29T01:00:00	0.2351	10.711	195.0	0.585498059	0.719149256	0.011639330	0.120080822	0.037010076
2020-09-29T01:05:00	0.2348	10.711	196.0	0.584593656	0.717835424	0.011606099	0.119737981	0.036904409
2020-09-29T01:10:00	0.2345	10.711	196.0	0.583689020	0.716521935	0.011572907	0.119395553	0.036798869
2020-09-29T01:15:00	0.2352	10.711	196.0	0.586135659	0.720075909	0.011662787	0.120322826	0.037084663
2020-09-29T01:20:00	0.2354	10.710	196.0	0.586571473	0.720709493	0.011678835	0.120488384	0.037135690
2020-09-29T01:25:00	0.2350	10.709	196.0	0.585332294	0.718908397	0.011633236	0.120017947	0.036990697
2020-09-29T01:30:00	0.2351	10.709	195.0	0.585768208	0.719541834	0.011649266	0.120183328	0.037041669
2020-09-29T01:35:00	0.2353	10.708	195.0	0.586204068	0.720175351	0.011665305	0.120348805	0.037092671
2020-09-29T01:40:00	0.2350	10.708	196.0	0.585299846	0.718861252	0.011632043	0.120005641	0.036986904
2020-09-29T01:45:00	0.2349	10.708	196.0	0.585065642	0.718520995	0.011623435	0.119916839	0.036959534
2020-09-29T01:50:00	0.2347	10.707	197.0	0.584161127	0.717207327	0.011590223	0.119574195	0.036853928
2020-09-29T01:55:00	0.2345	10.708	196.0	0.583591629	0.716380569	0.011569337	0.119358718	0.036787516
2020-09-29T02:00:00	0.2343	10.708	196.0	0.583022039	0.715553946	0.011548467	0.119143405	0.036721155
2020-09-29T02:05:00	0.2343	10.708	196.0	0.583122977	0.715700413	0.011552164	0.119181546	0.036732910
2020-09-29T02:10:00	0.2342	10.709	196.0	0.582553311	0.714873902	0.011531307	0.118966368	0.036666590
2020-09-29T02:15:00	0.2346	10.708	196.0	0.583995299	0.716966561	0.011584139	0.119511431	0.036834584
2020-09-29T02:20:00	0.2344	10.708	196.0	0.583425774	0.716139842	0.011563258	0.119296002	0.036768186
2020-09-29T02:25:00	0.2347	10.709	196.0	0.584197116	0.717259583	0.011591544	0.119587819	0.036858127
2020-09-29T02:30:00	0.2346	10.709	197.0	0.583962838	0.716919435	0.011582949	0.119499147	0.036830798
2020-09-29T02:35:00	0.2336	10.709	196.0	0.580710264	0.712201729	0.011463960	0.118271563	0.036452444
2020-09-29T02:40:00	0.2340	10.709	196.0	0.581817621	0.713806911	0.011504400	0.118688773	0.036581033
2020-09-29T02:45:00	0.2346	10.708	196.0	0.583930377	0.716872308	0.011581758	0.119486864	0.036827012
2020-09-29T02:50:00	0.2344	10.708	196.0	0.583360842	0.716045605	0.011560879	0.119271453	0.036760620
2020-09-29T02:55:00	0.2344	10.708	196.0	0.583461771	0.716192087	0.011564577	0.119309612	0.036772381
2020-09-29T03:00:00	0.2348	10.708	197.0	0.584568261	0.717798543	0.011605166	0.119728362	0.036901444
2020-09-29T03:05:00	0.2352	10.708	196.0	0.586009423	0.719892418	0.011658141	0.120274893	0.037069890
2020-09-29T03:10:00	0.2349	10.708	196.0	0.585105151	0.718578392	0.011624887	0.119931817	0.036964151
2020-09-29T03:15:00	0.2351	10.708	196.0	0.585541093	0.719211788	0.011640912	0.120097148	0.037015107
2020-09-29T03:20:00	0.2342	10.708	196.0	0.582625322	0.714978366	0.011533942	0.118993558	0.036674970
2020-09-29T03:25:00	0.2340	10.708	196.0	0.582055575	0.714151973	0.011513099	0.118778523	0.036608694
2020-09-29T03:30:00	0.2336	10.708	196.0	0.580479288	0.711867043	0.011455534	0.118184635	0.036425652
2020-09-29T03:35:00	0.2335	10.707	196.0	0.580244762	0.711527258	0.011446982	0.118096404	0.036398459
2020-09-29T03:40:00	0.2334	10.708	196.0	0.580010221	0.711187497	0.011438433	0.118008201	0.036371274
2020-09-29T03:45:00	0.2327	10.706	196.0	0.577761498	0.707932274	0.011356628	0.117164242	0.036111157
2020-09-29T03:50:00	0.2327	10.706	197.0	0.577526791	0.707592755	0.011348108	0.117076334	0.036084063
2020-09-29T03:55:00	0.2327	10.705	197.0	0.577627887	0.707738991	0.011351777	0.117114195	0.036095732
2020-09-29T04:00:00	0.2332	10.705	196.0	0.579407547	0.710314662	0.011416479	0.117781710	0.036301467
2020-09-29T04:05:00	0.2332	10.704	197.0	0.579413553	0.710323360	0.011416698	0.117783967	0.036302162
2020-09-29T04:10:00	0.2336	10.703	197.0	0.580761831	0.712276455	0.011465842	0.118290975	0.036458427
2020-09-29T04:15:00	0.2330	10.702	197.0	0.578754239	0.709368836	0.011392705	0.117536442	0.036225873
2020-09-29T04:20:00	0.2336	10.702	196.0	0.580773839	0.712293856	0.011466280	0.118295495	0.036459821
2020-09-29T04:25:00	0.2341	10.702	197.0	0.582456952	0.714734125	0.011527781	0.118929991	0.036655378
2020-09-29T04:30:00	0.2340	10.700	196.0	0.582127596	0.714256421	0.011515733	0.118805695	0.036617069
2020-09-29T04:35:00	0.2345	10.699	197.0	0.583474833	0.716211045	0.011565056	0.119314551	0.036773903
2020-09-29T04:40:00	0.2345	10.698	196.0	0.583480832	0.716219752	0.011565276	0.119316820	0.036774603
2020-09-29T04:45:00	0.2346	10.698	197.0	0.583822059	0.716715059	0.011577786	0.119445880	0.036814380
2020-09-29T04:50:00	0.2347	10.697	196.0	0.584163253	0.717210414	0.011590301	0.119575000	0.036854176
2020-09-29T04:55:00	0.2347	10.697	196.0	0.584169251	0.717219123	0.011590521	0.119577270	0.036854876
2020-09-29T05:00:00	0.2355	10.695	196.0	0.586855651	0.721122714	0.011689305	0.120596401	0.037168982
2020-09-29T05:05:00	0.2351	10.694	196.0	0.585521701	0.719183610	0.011640199	0.120089791	0.037012840
2020-09-29T05:10:00	0.2348	10.694	196.0	0.584522406	0.717731949	0.011603483	0.119710993	0.036896091
2020-09-29T05:15:00	0.2350	10.693	197.0	0.585198629	0.718714196	0.011628322	0.119967259	0.036975074
2020-09-29T05:20:00	0.2351	10.692	197.0	0.585539689	0.719209748	0.011640861	0.120096616	0.037014943
2020-09-29T05:25:00	0.2352	10.691	196.0	0.585880716	0.719705348	0.011653405	0.120226031	0.037054830
2020-09-29T05:30:00	0.2352	10.690	197.0	0.585886712	0.719714062	0.011653626	0.120228307	0.037055532
2020-09-29T05:35:00	0.2352	10.689	196.0	0.585892707	0.719722776	0.011653846	0.120230583	0.037056233
2020-09-29T05:40:00	0.2356	10.689	197.0	0.587238502	0.721679521	0.011703418	0.120742003	0.037213858
2020-09-29T05:45:00	0.2358	10.688	197.0	0.587914203	0.722662538	0.011728347	0.120999197	0.037293128
2020-09-29T05:50:00	0.2363	10.688	197.0	0.589593904	0.725107832	0.011790437	0.121639763	0.037490556
2020-09-29T05:55:00	0.2358	10.687	196.0	0.587926187	0.722679975	0.011728790	0.121003761	0.037294534
2020-09-29T06:00:00	0.2361	10.687	197.0	0.588936496	0.724150503	0.011766116	0.121388849	0.037413222
2020-09-29T06:05:00	0.2366	10.688	196.0	0.590615710	0.726596519	0.011828290	0.122030284	0.037610919
2020-09-29T06:10:00	0.2360	10.688	196.0	0.588613737	0.723680627	0.011754185	0.121265759	0.037375284
2020-09-29T06:15:00	0.2364	10.687	196.0	0.589958493	0.725638907	0.011803936	0.121779030	0.037533480
2020-09-29T06:20:00	0.2366	10.688	196.0	0.590633672	0.726622695	0.011828956	0.122037154	0.037613036
2020-09-29T06:25:00	0.2365	10.688	197.0	0.590305080	0.726143864	0.011816776	0.121911497	0.037574307
2020-09-29T06:30:00	0.2371	10.689	196.0	0.592318062	0.729078637	0.011891492	0.122682326	0.037811884
2020-09-29T06:35:00	0.2372	10.690	197.0	0.592658434	0.729575206	0.011904149	0.122812911	0.037852132
2020-09-29T06:40:00	0.2374	10.691	197.0	0.593333097	0.730559760	0.011929258	0.123071958	0.037931973
2020-09-29T06:45:00	0.2378	10.693	197.0	0.594676054	0.732520705	0.011979320	0.123588440	0.038091158
2020-09-29T06:50:00	0.2379	10.693	197.0	0.595016199	0.733017612	0.011992017	0.123719431	0.038131530
2020-09-29T06:55:00	0.2382	10.694	197.0	0.596024480	0.734491148	0.012029695	0.124108143	0.038251335
2020-09-29T07:00:00	0.2388	10.696	197.0	0.598034204	0.737430761	0.012104975	0.124884799	0.038490708
2020-09-29T07:05:00	0.2392	10.697	196.0	0.599375376	0.739394365	0.012155347	0.125404478	0.038650878
2020-09-29T07:10:00	0.2394	10.698	196.0	0.600048757	0.740380826	0.012180679	0.125665820	0.038731426
2020-09-29T07:15:00	0.2396	10.700	197.0	0.600722010	0.741367478	0.012206033	0.125927391	0.038812045
2020-09-29T07:20:00	0.2401	10.702	196.0	0.602395631	0.743821814	0.012269177	0.126578836	0.039012827
2020-09-29T07:25:00	0.2407	10.704	197.0	0.604401739	0.746766828	0.012345086	0.127361980	0.039254199
2020-09-29T07:30:00	0.2407	10.705	197.0	0.604407703	0.746775588	0.012345312	0.127364311	0.039254918
2020-09-29T07:35:00	0.2412	10.707	197.0	0.606079584	0.749232532	0.012408760	0.128018885	0.039456664
2020-09-29T07:40:00	0.2417	10.709	196.0	0.607750676	0.751690660	0.012472344	0.128674879	0.039658847
2020-09-29T07:45:00	0.2420	10.710	196.0	0.608755337	0.753169614	0.012510652	0.129070093	0.039780656
2020-09-29T07:50:00	0.2424	10.713	196.0	0.610092457	0.755139293	0.012561731	0.129597061	0.039943073
2020-09-29T07:55:00	0.2427	10.715	196.0	0.611096455	0.756619245	0.012600154	0.129993471	0.040065250
2020-09-29T08:00:00	0.2423	10.720	197.0	0.609771623	0.754666543	0.012549465	0.129470517	0.039904071
2020-09-29T08:05:00	0.2428	10.726	196.0	0.611440978	0.757127287	0.012613354	0.130129643	0.040107220
2020-09-29T08:10:00	0.2429	10.733	196.0	0.611779517	0.757626601	0.012626330	0.130263522	0.040148482
2020-09-29T08:15:00	0.2430	10.741	196.0	0.612118022	0.758125964	0.012639313	0.130397458	0.040189763
2020-09-29T08:20:00	0.2436	10.748	197.0	0.614118643	0.761079239	0.012716181	0.131190496	0.040434185
2020-09-29T08:25:00	0.2436	10.755	197.0	0.614124591	0.761088024	0.012716410	0.131192858	0.040434913
2020-09-29T08:30:00	0.2438	10.761	196.0	0.614795178	0.762078686	0.012742230	0.131459234	0.040517012
2020-09-29T08:35:00	0.2442	10.769	197.0	0.616130028	0.764051796	0.012793706	0.131990304	0.040680694
2020-09-29T08:40:00	0.2450	10.775	197.0	0.618792287	0.767991497	0.012896692	0.133052790	0.041008162
2020-09-29T08:45:00	0.2453	10.781	197.0	0.619793833	0.769475163	0.012935546	0.133453639	0.041131707
2020-09-29T08:50:00	0.2453	10.787	197.0	0.619799771	0.769483963	0.012935776	0.133456017	0.041132441
2020-09-29T08:55:00	0.2445	10.792	197.0	0.617150150	0.765560702	0.012833117	0.132396906	0.040806012
2020-09-29T09:00:00	0.2440	10.798	197.0	0.615495365	0.763113482	0.012769218	0.131737665	0.040602828
2020-09-29T09:05:00	0.2444	10.804	197.0	0.616829952	0.765086990	0.012820740	0.132269212	0.040766656
2020-09-29T09:10:00	0.2445	10.810	196.0	0.617167978	0.765587080	0.012833807	0.132404018	0.040808204
2020-09-29T09:15:00	0.2445	10.816	196.0	0.616841838	0.765104573	0.012821199	0.132273951	0.040768116
2020-09-29T09:20:00	0.2444	10.823	196.0	0.616515669	0.764622112	0.012808597	0.132143938	0.040728045
2020-09-29T09:25:00	0.2441	10.829	196.0	0.615525091	0.763157423	0.012770364	0.131749493	0.040606473
2020-09-29T09:30:00	0.2444	10.833	197.0	0.616527556	0.764639693	0.012809057	0.132148675	0.040729505
2020-09-29T09:35:00	0.2442	10.836	196.0	0.615869185	0.763666114	0.012783638	0.131886441	0.040648682
2020-09-29T09:40:00	0.2443	10.840	197.0	0.616207302	0.764166066	0.012796689	0.132021082	0.040690180
2020-09-29T09:45:00	0.2438	10.846	196.0	0.614552078	0.761719510	0.012732866	0.131362635	0.040487240
2020-09-29T09:50:00	0.2438	10.852	197.0	0.614558025	0.761728296	0.012733095	0.131364998	0.040487968
2020-09-29T09:55:00	0.2432	10.857	197.0	0.612569552	0.758792208	0.012656640	0.130576226	0.040244861
2020-09-29T10:00:00	0.2436	10.862	197.0	0.613905238	0.760764054	0.012707970	0.131105785	0.040408076
2020-09-29T10:05:00	0.2430	10.867	197.0	0.611913424	0.757824129	0.012631465	0.130316496	0.040164810
2020-09-29T10:10:00	0.2432	10.873	197.0	0.612581452	0.758809770	0.012657097	0.130580939	0.040246314
2020-09-29T10:15:00	0.2423	10.880	197.0	0.609590710	0.754400005	0.012542551	0.129399189	0.039882087
2020-09-29T10:20:00	0.2415	10.888	197.0	0.606930486	0.750483892	0.012441115	0.128352694	0.039559547
2020-09-29T10:25:00	0.2413	10.899	197.0	0.606267354	0.749508620	0.012415896	0.128092509	0.039479355
2020-09-29T10:30:00	0.2410	10.913	197.0	0.605270932	0.748043870	0.012378051	0.127702067	0.039359017
2020-09-29T10:35:00	0.2410	10.929	197.0	0.605273913	0.748048251	0.012378164	0.127703234	0.039359377
2020-09-29T10:40:00	0.2413	10.940	197.0	0.606276295	0.749521767	0.012416236	0.128096015	0.039480436
2020-09-29T10:45:00	0.2407	10.951	197.0	0.604280194	0.746588301	0.012340480	0.127314460	0.039239553
2020-09-29T10:50:00	0.2402	10.965	197.0	0.602616414	0.744145764	0.012277519	0.126664904	0.039039353
2020-09-29T10:55:00	0.2399	10.979	197.0	0.601618965	0.742682555	0.012239853	0.126276309	0.038919585
2020-09-29T11:00:00	0.2398	10.988	197.0	0.601288409	0.742197830	0.012227384	0.126147664	0.038879935
2020-09-29T11:05:00	0.2400	10.996	197.0	0.601958442	0.743180458	0.012252666	0.126408497	0.038960326
2020-09-29T11:10:00	0.2394	11.006	197.0	0.599959905	0.740250641	0.012177335	0.125631320	0.038720793
2020-09-29T11:15:00	0.2391	11.017	197.0	0.598961706	0.738788552	0.012139799	0.125244071	0.038601439
2020-09-29T11:20:00	0.2386	11.030	197.0	0.597295423	0.736349758	0.012077274	0.124599008	0.038402624
2020-09-29T11:25:00	0.2381	11.042	197.0	0.595628354	0.733912135	0.012014885	0.123955354	0.038204244
2020-09-29T11:30:00	0.2383	11.058	198.0	0.596299460	0.734893161	0.012039981	0.124214262	0.038284042
2020-09-29T11:35:00	0.2383	11.073	198.0	0.596302449	0.734897531	0.012040093	0.124215415	0.038284397
2020-09-29T11:40:00	0.2383	11.085	198.0	0.596305438	0.734901901	0.012040204	0.124216569	0.038284753
2020-09-29T11:45:00	0.2387	11.094	197.0	0.597644278	0.736860155	0.012090351	0.124733918	0.038444205
2020-09-29T11:50:00	0.2391	11.104	198.0	0.598982612	0.738819165	0.012140585	0.125252175	0.038603937
2020-09-29T11:55:00	0.2380	11.116	198.0	0.595312185	0.733450089	0.012003071	0.123833475	0.038166680
2020-09-29T12:00:00	0.2370	11.126	198.0	0.591972392	0.728574436	0.011878644	0.122549782	0.037771033
2020-09-29T12:05:00	0.2357	11.140	198.0	0.587625028	0.722241797	0.011717675	0.120889093	0.037259193
2020-09-29T12:10:00	0.2342	11.159	198.0	0.582601698	0.714944095	0.011533078	0.118984638	0.036672221
2020-09-29T12:15:00	0.2349	11.178	198.0	0.584951209	0.718354763	0.011619231	0.119873462	0.036946165
2020-09-29T12:20:00	0.2342	11.193	198.0	0.582607699	0.714952801	0.011533297	0.118986904	0.036672919
2020-09-29T12:25:00	0.2343	11.207	198.0	0.582946011	0.715443629	0.011545683	0.119114680	0.036712301
2020-09-29T12:30:00	0.2341	11.217	198.0	0.582278357	0.714475076	0.011521247	0.118862582	0.036634602
2020-09-29T12:35:00	0.2346	11.226	198.0	0.583957751	0.716912049	0.011582762	0.119497222	0.036830204
2020-09-29T12:40:00	0.2338	11.237	198.0	0.581278139	0.713024772	0.011484689	0.118485423	0.036518358
2020-09-29T12:45:00	0.2332	11.251	198.0	0.579267840	0.710112371	0.011411393	0.117729239	0.036285295
2020-09-29T12:50:00	0.2331	11.265	198.0	0.578935181	0.709630759	0.011399287	0.117604346	0.036246802
2020-09-29T12:55:00	0.2326	11.279	198.0	0.577259393	0.707206005	0.011338404	0.116976222	0.036053208
2020-09-29T13:00:00	0.2322	11.294	198.0	0.575918787	0.705267913	0.011289818	0.116474969	0.035898717
2020-09-29T13:05:00	0.2318	11.311	198.0	0.574577669	0.703330571	0.011241320	0.115974623	0.035744505
2020-09-29T13:10:00	0.2321	11.331	199.0	0.575588817	0.704791109	0.011277875	0.116351761	0.035860743
2020-09-29T13:15:00	0.2321	11.347	199.0	0.575591824	0.704795453	0.011277984	0.116352883	0.035861089
2020-09-29T13:20:00	0.2323	11.359	199.0	0.576266762	0.705770831	0.011302419	0.116604971	0.035938784
2020-09-29T13:25:00	0.2320	11.373	199.0	0.575261823	0.704318694	0.011266047	0.116229730	0.035823132
2020-09-29T13:30:00	0.2322	11.390	199.0	0.575936824	0.705293979	0.011290471	0.116481705	0.035900793
2020-09-29T13:35:00	0.2316	11.403	199.0	0.573923461	0.702386061	0.011217701	0.115730949	0.035669402
2020-09-29T13:40:00	0.2309	11.413	199.0	0.571572571	0.698994899	0.011133035	0.114857468	0.035400187
2020-09-29T13:45:00	0.2306	11.417	199.0	0.570566284	0.697544726	0.011096894	0.114484610	0.035285269
2020-09-29T13:50:00	0.2307	11.423	199.0	0.570905759	0.698033854	0.011109080	0.114610326	0.035324016
2020-09-29T13:55:00	0.2307	11.435	200.0	0.570908770	0.698038192	0.011109188	0.114611441	0.035324359
2020-09-29T14:00:00	0.2303	11.442	200.0	0.569565731	0.696103646	0.011061018	0.114114489	0.035171194
2020-09-29T14:05:00	0.2307	11.449	200.0	0.570914791	0.698046868	0.011109404	0.114613671	0.035325047
2020-09-29T14:10:00	0.2296	11.453	200.0	0.567214924	0.692721076	0.010976962	0.113247289	0.034903914
2020-09-29T14:15:00	0.2294	11.458	199.0	0.566544267	0.691756905	0.010953041	0.113000504	0.034827853
2020-09-29T14:20:00	0.2291	11.461	199.0	0.565536531	0.690308833	0.010917148	0.112630199	0.034713721
2020-09-29T14:25:00	0.2294	11.463	200.0	0.566550295	0.691765570	0.010953256	0.113002721	0.034828536
2020-09-29T14:30:00	0.2293	11.467	200.0	0.566216426	0.691285720	0.010941357	0.112879967	0.034790702
2020-09-29T14:35:00	0.2293	11.468	200.0	0.566219440	0.691290052	0.010941465	0.112881075	0.034791044
2020-09-29T14:40:00	0.2303	11.468	199.0	0.569589824	0.696138337	0.011061882	0.114123394	0.035173938
2020-09-29T14:45:00	0.2306	11.468	200.0	0.570602413	0.697596777	0.011098191	0.114497986	0.035289391
2020-09-29T14:50:00	0.2314	11.468	199.0	0.573296206	0.701480797	0.011195078	0.115497560	0.035597470
2020-09-29T14:55:00	0.2318	11.468	200.0	0.574643829	0.703426109	0.011243710	0.115999280	0.035752105
2020-09-29T15:00:00	0.2315	11.468	199.0	0.573638424	0.701974652	0.011207418	0.115624863	0.035636706
2020-09-29T15:05:00	0.2319	11.465	199.0	0.574985916	0.703920156	0.011256072	0.116126816	0.035791412
2020-09-29T15:10:00	0.2318	11.462	200.0	0.574652851	0.703439138	0.011244036	0.116002643	0.035753141
2020-09-29T15:15:00	0.2319	11.459	200.0	0.574991930	0.703928842	0.011256289	0.116129059	0.035792104
2020-09-29T15:20:00	0.2323	11.455	199.0	0.576338902	0.705875106	0.011305032	0.116631931	0.035947094
2020-09-29T15:25:00	0.2334	11.451	199.0	0.580035154	0.711223614	0.011439341	0.118017576	0.036374163
2020-09-29T15:30:00	0.2330	11.446	199.0	0.578695609	0.709283971	0.011390573	0.117514444	0.036219093
2020-09-29T15:35:00	0.2325	11.443	199.0	0.577019707	0.706859385	0.011329709	0.116886522	0.036025561
2020-09-29T15:40:00	0.2327	11.438	199.0	0.577694370	0.707835164	0.011354191	0.117139096	0.036103407
2020-09-29T15:45:00	0.2336	11.431	199.0	0.580718244	0.712213293	0.011464251	0.118274567	0.036453370
2020-09-29T15:50:00	0.2340	11.425	199.0	0.582063020	0.714162770	0.011513372	0.118781332	0.036609560
2020-09-29T15:55:00	0.2347	11.421	200.0	0.584412891	0.717572908	0.011599463	0.119669517	0.036883307
2020-09-29T16:00:00	0.2352	11.415	199.0	0.586091266	0.720011380	0.011661153	0.120305968	0.037079468
2020-09-29T16:05:00	0.2357	11.409	200.0	0.587623625	0.722239755	0.011717623	0.120888559	0.037259028
2020-09-29T16:10:00	0.2368	11.401	200.0	0.591497467	0.727881864	0.011861004	0.122367796	0.037714943
2020-09-29T16:15:00	0.2375	11.394	200.0	0.593696087	0.731089639	0.011942779	0.123211449	0.037974965
2020-09-29T16:20:00	0.2373	11.385	199.0	0.592885469	0.729906482	0.011912596	0.122900053	0.037878990
2020-09-29T16:25:00	0.2379	11.376	200.0	0.595083225	0.733115540	0.011994520	0.123745251	0.038139488
2020-09-29T16:30:00	0.2381	11.367	200.0	0.595609547	0.733884649	0.012014182	0.123948102	0.038202009
2020-09-29T16:35:00	0.2380	11.357	199.0	0.595467643	0.733677263	0.012008879	0.123893394	0.038185147
2020-09-29T16:40:00	0.2379	11.346	200.0	0.594991599	0.732981671	0.011991099	0.123709955	0.038128610
2020-09-29T16:45:00	0.2378	11.333	200.0	0.594849670	0.732774322	0.011985800	0.123655291	0.038111762
2020-09-29T16:50:00	0.2376	11.320	199.0	0.594039317	0.731590773	0.011955571	0.123343421	0.038015640
2020-09-29T16:55:00	0.2382	11.306	199.0	0.595902306	0.734312554	0.012025126	0.124061009	0.038236808
2020-09-29T17:00:00	0.2379	11.292	199.0	0.595092194	0.733128645	0.011994855	0.123748707	0.038140553
2020-09-29T17:05:00	0.2376	11.278	199.0	0.593947663	0.731456944	0.011952154	0.123308173	0.038004777
2020-09-29T17:10:00	0.2378	11.263	199.0	0.594808339	0.732713944	0.011984257	0.123639375	0.038106856
2020-09-29T17:15:00	0.2378	11.248	199.0	0.594666403	0.732506606	0.011978960	0.123584724	0.038090012
2020-09-29T17:20:00	0.2384	11.233	198.0	0.596529061	0.735228879	0.012048573	0.124302904	0.038311362
2020-09-29T17:25:00	0.2390	11.216	199.0	0.598724551	0.738441307	0.012130890	0.125152157	0.038573110
2020-09-29T17:30:00	0.2394	11.199	199.0	0.599917764	0.740188900	0.012175749	0.125614959	0.038715750
2020-09-29T17:35:00	0.2400	11.184	199.0	0.602111152	0.743404466	0.012258432	0.126467983	0.038978661
2020-09-29T17:40:00	0.2410	11.168	199.0	0.605302857	0.748090788	0.012379262	0.127714567	0.039362870
2020-09-29T17:45:00	0.2411	11.150	199.0	0.605827662	0.748862165	0.012399189	0.127920142	0.039426230
2020-09-29T17:50:00	0.2413	11.132	199.0	0.606352388	0.749633660	0.012419128	0.128125858	0.039489634
2020-09-29T17:55:00	0.2416	11.115	199.0	0.607210052	0.750895161	0.012451755	0.128462465	0.039593379
2020-09-29T18:00:00	0.2416	11.097	199.0	0.607401609	0.751176998	0.012459049	0.128537708	0.039616570
2020-09-29T18:05:00	0.2423	11.081	198.0	0.609590371	0.754399505	0.012542538	0.129399055	0.039882046
2020-09-29T18:10:00	0.2422	11.066	199.0	0.609449026	0.754191282	0.012537138	0.129343342	0.039864874
2020-09-29T18:15:00	0.2418	11.051	198.0	0.607976217	0.752022604	0.012480939	0.128763548	0.039686176
2020-09-29T18:20:00	0.2421	11.036	199.0	0.609166319	0.753774862	0.012526341	0.129231946	0.039830541
2020-09-29T18:25:00	0.2425	11.022	198.0	0.610356022	0.755527721	0.012571812	0.129701064	0.039975128
2020-09-29T18:30:00	0.2430	11.007	199.0	0.611877904	0.757771732	0.012630103	0.130302443	0.040160478
2020-09-29T18:35:00	0.2420	10.991	198.0	0.608742217	0.753150295	0.012510152	0.129064928	0.039779064
2020-09-29T18:40:00	0.2425	10.976	198.0	0.610264790	0.755393262	0.012568322	0.129665059	0.039964030
2020-09-29T18:45:00	0.2420	10.962	198.0	0.608792321	0.753224073	0.012512064	0.129084654	0.039785144
2020-09-29T18:50:00	0.2423	10.947	198.0	0.609649395	0.754486462	0.012544794	0.129422324	0.039889217
2020-09-29T18:55:00	0.2418	10.930	198.0	0.608176669	0.752317658	0.012488580	0.128842380	0.039710473
2020-09-29T19:00:00	0.2419	10.914	197.0	0.608368174	0.752599573	0.012495883	0.128917716	0.039733692
2020-09-29T19:05:00	0.2420	10.897	197.0	0.608559668	0.752881505	0.012503187	0.128993072	0.039756917
2020-09-29T19:10:00	0.2418	10.880	197.0	0.608085381	0.752183283	0.012485100	0.128806476	0.039699407
2020-09-29T19:15:00	0.2424	10.864	198.0	0.609940994	0.754916102	0.012555939	0.129537313	0.039924658
2020-09-29T19:20:00	0.2425	10.847	197.0	0.610465113	0.755688511	0.012575985	0.129744124	0.039988399
2020-09-29T19:25:00	0.2425	10.829	197.0	0.610323803	0.755480235	0.012570579	0.129688348	0.039971208
2020-09-29T19:30:00	0.2434	10.811	197.0	0.613508131	0.760177657	0.012692698	0.130948229	0.040359516
2020-09-29T19:35:00	0.2436	10.794	198.0	0.614031724	0.760950861	0.012712836	0.131155990	0.040423550
2020-09-29T19:40:00	0.2426	10.775	198.0	0.610565270	0.755836142	0.012579818	0.129783664	0.040000586
2020-09-29T19:45:00	0.2422	10.757	198.0	0.609425732	0.754156968	0.012536248	0.129334161	0.039862045
2020-09-29T19:50:00	0.2425	10.741	196.0	0.610282653	0.755419587	0.012569005	0.129672108	0.039966203
2020-09-29T19:55:00	0.2431	10.725	197.0	0.612469640	0.758644770	0.012652805	0.130536658	0.040232666
2020-09-29T20:00:00	0.2428	10.706	196.0	0.611330712	0.756964675	0.012609128	0.130086052	0.040093785
2020-09-29T20:05:00	0.2425	10.690	196.0	0.610191419	0.755285131	0.012565515	0.129636106	0.039955107
2020-09-29T20:10:00	0.2425	10.674	197.0	0.610382815	0.755567210	0.012572837	0.129711639	0.039978387
2020-09-29T20:15:00	0.2428	10.657	196.0	0.611239505	0.756830178	0.012605634	0.130050002	0.040082674
2020-09-29T20:20:00	0.2428	10.638	196.0	0.611430845	0.757112342	0.012612965	0.130125637	0.040105985
2020-09-29T20:25:00	0.2425	10.620	196.0	0.610291584	0.755432750	0.012569347	0.129675632	0.039967289
2020-09-29T20:30:00	0.2431	10.603	195.0	0.612478565	0.758657941	0.012653148	0.130540193	0.040233755
2020-09-29T20:35:00	0.2423	10.584	196.0	0.609676192	0.754525943	0.012545818	0.129432889	0.039892474
2020-09-29T20:40:00	0.2427	10.567	196.0	0.610865725	0.756279060	0.012591319	0.129902316	0.040037155
2020-09-29T20:45:00	0.2431	10.552	195.0	0.612387388	0.758523399	0.012649648	0.130504089	0.040222628
2020-09-29T20:50:00	0.2434	10.535	195.0	0.613243595	0.759787097	0.012682530	0.130843325	0.040327184
2020-09-29T20:55:00	0.2438	10.517	195.0	0.614764241	0.762032975	0.012741038	0.131446938	0.040513223
2020-09-29T21:00:00	0.2439	10.500	196.0	0.614955391	0.762315426	0.012748402	0.131522916	0.040536640
2020-09-29T21:05:00	0.2434	10.485	195.0	0.613484864	0.760143302	0.012691804	0.130939000	0.040356671
2020-09-29T21:10:00	0.2435	10.469	195.0	0.613676082	0.760425650	0.012699156	0.131014853	0.040380050
2020-09-29T21:15:00	0.2439	10.453	195.0	0.614864277	0.762180789	0.012744892	0.131486698	0.040525477
2020-09-29T21:20:00	0.2439	10.434	195.0	0.615055421	0.762463248	0.012752257	0.131562685	0.040548897
2020-09-29T21:25:00	0.2427	10.417	195.0	0.610924727	0.756366048	0.012593578	0.129925623	0.040044339
2020-09-29T21:30:00	0.2422	10.402	195.0	0.609452531	0.754196446	0.012537272	0.129344724	0.039865300
2020-09-29T21:35:00	0.2414	10.387	195.0	0.606647768	0.750068051	0.012430360	0.128241734	0.039525348
2020-09-29T21:40:00	0.2407	10.370	195.0	0.604507352	0.746921964	0.012349089	0.127403277	0.039266927
2020-09-29T21:45:00	0.2404	10.356	195.0	0.603365865	0.745245720	0.012305860	0.126957285	0.039129468
2020-09-29T21:50:00	0.2400	10.342	195.0	0.601890526	0.743080840	0.012250102	0.126382046	0.038952174
2020-09-29T21:55:00	0.2409	10.327	195.0	0.605082430	0.747766864	0.012370898	0.127628272	0.039336273
2020-09-29T22:00:00	0.2402	10.311	195.0	0.602607653	0.744132908	0.012277188	0.126661488	0.039038301
2020-09-29T22:05:00	0.2403	10.295	195.0	0.603082673	0.744830029	0.012295147	0.126846763	0.039095404
2020-09-29T22:10:00	0.2406	10.280	194.0	0.603890956	0.746016667	0.012325736	0.127162344	0.039192670
2020-09-29T22:15:00	0.2405	10.264	194.0	0.603699209	0.745735115	0.012318476	0.127087444	0.039169584
2020-09-29T22:20:00	0.2408	10.250	194.0	0.604840589	0.747411520	0.012361724	0.127533629	0.039307103
2020-09-29T22:25:00	0.2405	10.235	194.0	0.603649034	0.745661445	0.012316576	0.127067848	0.039163545
2020-09-29T22:30:00	0.2405	10.219	194.0	0.603790610	0.745869320	0.012321936	0.127123144	0.039180588
2020-09-29T22:35:00	0.2398	10.204	194.0	0.601264721	0.742163098	0.012226490	0.126138448	0.038877095
2020-09-29T22:40:00	0.2409	10.188	194.0	0.605073486	0.747753721	0.012370558	0.127624771	0.039335194
2020-09-29T22:45:00	0.2404	10.172	194.0	0.603215323	0.745024734	0.012300164	0.126898527	0.039111358
2020-09-29T22:50:00	0.2400	10.154	194.0	0.602023221	0.743275479	0.012255112	0.126433729	0.038968103
2020-09-29T22:55:00	0.2411	10.138	194.0	0.605831171	0.748867324	0.012399322	0.127921517	0.039426654
2020-09-29T23:00:00	0.2410	10.123	194.0	0.605306367	0.748095945	0.012379395	0.127715941	0.039363293
2020-09-29T23:05:00	0.2406	10.110	194.0	0.604114968	0.746345635	0.012334220	0.127249878	0.039219648
2020-09-29T23:10:00	0.2410	10.095	194.0	0.605256214	0.748022241	0.012377492	0.127696304	0.039357241
2020-09-29T23:15:00	0.2406	10.082	194.0	0.604064799	0.746271957	0.012332320	0.127230271	0.039213605
2020-09-29T23:20:00	0.2403	10.067	193.0	0.602872983	0.744522273	0.012287218	0.126764959	0.039070192
2020-09-29T23:25:00	0.2409	10.051	194.0	0.605014386	0.747666879	0.012368316	0.127601640	0.039328065
2020-09-29T23:30:00	0.2407	10.035	193.0	0.604489461	0.746895682	0.012348411	0.127396281	0.039264771
2020-09-29T23:35:00	0.2408	10.019	194.0	0.604631003	0.747103608	0.012353777	0.127451638	0.039281833
2020-09-29T23:40:00	0.2406	10.005	193.0	0.604106022	0.746332496	0.012333881	0.127246381	0.039218571
2020-09-29T23:45:00	0.2403	9.992	193.0	0.602914220	0.744582792	0.012288777	0.126781044	0.039075149
2020-09-29T23:50:00	0.2406	9.978	193.0	0.604055852	0.746258818	0.012331981	0.127226775	0.039212528
2020-09-29T23:55:00	0.2402	9.964	193.0	0.602530610	0.744019861	0.012274277	0.126631451	0.039029043
2020-09-30T00:00:00	0.2400	9.949	193.0	0.602005317	0.743249216	0.012254436	0.126426755	0.038965954
2020-09-30T00:05:00	0.2400	9.935	193.0	0.602146959	0.743456993	0.012259784	0.126481933	0.038982960
2020-09-30T00:10:00	0.2400	9.922	193.0	0.601955118	0.743175582	0.012252541	0.126407202	0.038959927
2020-09-30T00:15:00	0.2398	9.909	193.0	0.601429739	0.742405065	0.012232714	0.126202659	0.038896885
2020-09-30T00:20:00	0.2397	9.894	193.0	0.600904283	0.741634665	0.012212902	0.125998256	0.038833886
2020-09-30T00:25:00	0.2398	9.882	193.0	0.601379532	0.742331444	0.012230821	0.126183121	0.038890863
2020-09-30T00:30:00	0.2406	9.870	193.0	0.604188466	0.746453578	0.012337005	0.127278604	0.039228502
2020-09-30T00:35:00	0.2407	9.858	192.0	0.604330020	0.746661485	0.012342368	0.127333939	0.039245557
2020-09-30T00:40:00	0.2405	9.846	192.0	0.603804994	0.745890440	0.012322481	0.127128763	0.039182319
2020-09-30T00:45:00	0.2405	9.835	193.0	0.603613243	0.745608895	0.012315222	0.127053870	0.039159237
2020-09-30T00:50:00	0.2408	9.826	193.0	0.604754650	0.747285259	0.012358465	0.127500006	0.039296740
2020-09-30T00:55:00	0.2398	9.815	193.0	0.601228905	0.742110584	0.012225140	0.126124514	0.038872800
2020-09-30T01:00:00	0.2400	9.804	192.0	0.602037612	0.743296589	0.012255655	0.126439335	0.038969831
2020-09-30T01:05:00	0.2398	9.793	192.0	0.601512246	0.742526053	0.012235827	0.126234769	0.038906782
2020-09-30T01:10:00	0.2393	9.783	192.0	0.599652212	0.739799867	0.012165758	0.125511886	0.038683982
2020-09-30T01:15:00	0.2394	9.771	192.0	0.600127630	0.740496394	0.012183648	0.125696449	0.038740866
2020-09-30T01:20:00	0.2387	9.757	192.0	0.597599123	0.736794084	0.012088657	0.124716451	0.038438821
2020-09-30T01:25:00	0.2392	9.744	192.0	0.599410000	0.739445078	0.012156649	0.125417910	0.038655018
2020-09-30T01:30:00	0.2386	9.731	192.0	0.597214936	0.736232015	0.012074258	0.124567893	0.038393034
2020-09-30T01:35:00	0.2381	9.718	192.0	0.595686741	0.733997470	0.012017067	0.123977868	0.038211183
2020-09-30T01:40:00	0.2374	9.706	192.0	0.593489361	0.730787854	0.011935078	0.123131998	0.037950477
2020-09-30T01:45:00	0.2374	9.695	192.0	0.593297049	0.730507145	0.011927916	0.123058110	0.037927704
2020-09-30T01:50:00	0.2379	9.684	192.0	0.595110133	0.733154855	0.011995525	0.123755618	0.038142683
2020-09-30T01:55:00	0.2376	9.671	192.0	0.593915295	0.731409682	0.011950948	0.123295726	0.038000940
2020-09-30T02:00:00	0.2376	9.662	192.0	0.594057261	0.731616975	0.011956240	0.123350323	0.038017768
2020-09-30T02:05:00	0.2376	9.650	192.0	0.593864980	0.731336220	0.011949073	0.123276380	0.037994977
2020-09-30T02:10:00	0.2376	9.639	191.0	0.594006949	0.731543509	0.011954364	0.123330973	0.038011804
2020-09-30T02:15:00	0.2374	9.626	191.0	0.593480387	0.730774755	0.011934744	0.123128549	0.037949415
2020-09-30T02:20:00	0.2376	9.613	192.0	0.593956636	0.731470045	0.011952489	0.123311624	0.038005840
2020-09-30T02:25:00	0.2372	9.601	192.0	0.592761407	0.729725452	0.011907980	0.122852431	0.037864312
2020-09-30T02:30:00	0.2369	9.590	191.0	0.591565772	0.727981460	0.011863541	0.122393961	0.037723007
2020-09-30T02:35:00	0.2370	9.578	192.0	0.592042279	0.728676366	0.011881241	0.122576574	0.037779290
2020-09-30T02:40:00	0.2378	9.567	192.0	0.594524461	0.732299277	0.011973664	0.123530084	0.038073172
2020-09-30T02:45:00	0.2371	9.558	191.0	0.592326357	0.729090737	0.011891800	0.122685508	0.037812865
2020-09-30T02:50:00	0.2376	9.546	192.0	0.594139940	0.731737706	0.011959322	0.123382125	0.038027569
2020-09-30T02:55:00	0.2374	9.535	191.0	0.593279101	0.730480948	0.011927248	0.123051215	0.037925579
2020-09-30T03:00:00	0.2373	9.523	191.0	0.593086778	0.730200256	0.011920088	0.122977347	0.037902813
2020-09-30T03:05:00	0.2372	9.512	191.0	0.592560079	0.729431706	0.011900491	0.122775169	0.037840500
2020-09-30T03:10:00	0.2371	9.501	191.0	0.592367717	0.729151072	0.011893338	0.122701372	0.037817754
2020-09-30T03:15:00	0.2374	9.491	191.0	0.593512760	0.730822012	0.011935949	0.123140989	0.037953249
2020-09-30T03:20:00	0.2368	9.479	191.0	0.591314026	0.727614407	0.011854195	0.122297540	0.037693290
2020-09-30T03:25:00	0.2364	9.469	190.0	0.590117901	0.725871143	0.011809840	0.121839947	0.037552255
2020-09-30T03:30:00	0.2362	9.459	191.0	0.589256080	0.724615841	0.011777936	0.121510792	0.037450806
2020-09-30T03:35:00	0.2361	9.451	191.0	0.589063537	0.724335474	0.011770814	0.121437316	0.037428160
2020-09-30T03:40:00	0.2360	9.441	191.0	0.588536237	0.723567815	0.011751321	0.121236212	0.037366178
2020-09-30T03:45:00	0.2357	9.432	191.0	0.587674029	0.722313086	0.011719483	0.120907747	0.037264942
2020-09-30T03:50:00	0.2349	9.421	190.0	0.585136576	0.718624046	0.011626042	0.119943731	0.036967823
2020-09-30T03:55:00	0.2351	9.412	190.0	0.585613954	0.719317665	0.011643592	0.120124792	0.037023628
2020-09-30T04:00:00	0.2349	9.403	191.0	0.585086136	0.718550769	0.011624188	0.119924608	0.036961929
2020-09-30T04:05:00	0.2344	9.394	191.0	0.583356817	0.716039763	0.011560731	0.119269932	0.036760151
2020-09-30T04:10:00	0.2347	9.384	191.0	0.584308991	0.717422031	0.011595649	0.119630174	0.036871181
2020-09-30T04:15:00	0.2352	9.375	190.0	0.585930993	0.719778422	0.011655255	0.120245117	0.037060713
2020-09-30T04:20:00	0.2353	9.365	191.0	0.586212567	0.720187706	0.011665618	0.120352033	0.037093665
2020-09-30T04:25:00	0.2361	9.356	191.0	0.588838037	0.724007157	0.011762476	0.121351293	0.037401647
2020-09-30T04:30:00	0.2359	9.349	190.0	0.588449900	0.723442146	0.011748131	0.121203301	0.037356034
2020-09-30T04:35:00	0.2366	9.341	190.0	0.590739166	0.726776443	0.011832867	0.122077511	0.037625474
2020-09-30T04:40:00	0.2371	9.331	190.0	0.592358210	0.729137203	0.011892984	0.122697725	0.037816631
2020-09-30T04:45:00	0.2375	9.325	191.0	0.593642249	0.731011040	0.011940773	0.123190755	0.037968587
2020-09-30T04:50:00	0.2374	9.316	191.0	0.593254640	0.730445246	0.011926337	0.123041819	0.037922683
2020-09-30T04:55:00	0.2379	9.309	190.0	0.594872530	0.732807719	0.011986654	0.123664095	0.038114475
2020-09-30T05:00:00	0.2382	9.301	190.0	0.596155654	0.734682914	0.012034601	0.124158759	0.038266935
2020-09-30T05:05:00	0.2386	9.295	190.0	0.597438313	0.736558802	0.012082629	0.124654257	0.038419653
2020-09-30T05:10:00	0.2395	9.287	190.0	0.600389103	0.740879555	0.012193493	0.125798015	0.038772170
2020-09-30T05:15:00	0.2399	9.280	190.0	0.601670226	0.742757734	0.012241788	0.126296265	0.038925736
2020-09-30T05:20:00	0.2403	9.273	190.0	0.602950887	0.744636605	0.012290163	0.126795348	0.039079558
2020-09-30T05:25:00	0.2406	9.267	190.0	0.603897789	0.746026701	0.012325995	0.127165014	0.039193492
2020-09-30T05:30:00	0.2407	9.260	191.0	0.604511202	0.746927619	0.012349235	0.127404783	0.039267391
2020-09-30T05:35:00	0.2413	9.255	190.0	0.606457038	0.749787551	0.012423107	0.128166905	0.039502285
2020-09-30T05:40:00	0.2416	9.249	190.0	0.607403004	0.751179052	0.012459102	0.128538256	0.039616739
2020-09-30T05:45:00	0.2416	9.244	190.0	0.607349902	0.751100919	0.012457080	0.128517396	0.039610309
2020-09-30T05:50:00	0.2422	9.240	190.0	0.609294181	0.753963191	0.012531223	0.129282322	0.039846067
2020-09-30T05:55:00	0.2424	9.236	190.0	0.609906661	0.754865511	0.012554627	0.129523771	0.039920484
2020-09-30T06:00:00	0.2424	9.232	190.0	0.610186331	0.755277633	0.012565321	0.129634099	0.039954488
2020-09-30T06:05:00	0.2428	9.230	190.0	0.611463920	0.757161121	0.012614233	0.130138713	0.040110015
2020-09-30T06:10:00	0.2433	9.228	190.0	0.613073515	0.759536022	0.012675995	0.130775902	0.040306403
2020-09-30T06:15:00	0.2440	9.225	190.0	0.615346917	0.762894058	0.012763493	0.131678609	0.040584626
2020-09-30T06:20:00	0.2449	9.224	190.0	0.618282855	0.767237160	0.012876952	0.132849139	0.040945395
2020-09-30T06:25:00	0.2450	9.223	190.0	0.618561867	0.767650278	0.012887761	0.132960657	0.040979766
2020-09-30T06:30:00	0.2450	9.223	189.0	0.618508931	0.767571894	0.012885710	0.132939495	0.040973244
2020-09-30T06:35:00	0.2451	9.225	189.0	0.619119827	0.768476614	0.012909392	0.133183812	0.041048544
2020-09-30T06:40:00	0.2455	9.227	190.0	0.620394212	0.770364956	0.012958866	0.133694227	0.041205859
2020-09-30T06:45:00	0.2462	9.230	190.0	0.622662946	0.773730082	0.013047185	0.134605398	0.041486691
2020-09-30T06:50:00	0.2455	9.233	190.0	0.620288394	0.770208106	0.012954754	0.133651807	0.041192785
2020-09-30T06:55:00	0.2454	9.237	190.0	0.619903687	0.769637950	0.012939811	0.133497643	0.041145270
2020-09-30T07:00:00	0.2453	9.243	190.0	0.619518939	0.769067857	0.012924875	0.133343555	0.041097779
2020-09-30T07:05:00	0.2451	9.248	190.0	0.619134149	0.768497828	0.012909947	0.133189543	0.041050311
2020-09-30T07:10:00	0.2464	9.255	190.0	0.623393165	0.774814110	0.013075677	0.134899350	0.041577290
2020-09-30T07:15:00	0.2467	9.262	190.0	0.624334639	0.776212418	0.013112460	0.135278834	0.041694251
2020-09-30T07:20:00	0.2473	9.271	190.0	0.626269666	0.779088731	0.013188229	0.136060528	0.041935176
2020-09-30T07:25:00	0.2472	9.281	190.0	0.625885603	0.778517591	0.013173173	0.135905193	0.041887300
2020-09-30T07:30:00	0.2465	9.293	190.0	0.623513195	0.774992342	0.013080364	0.134947701	0.041592192
2020-09-30T07:35:00	0.2460	9.305	191.0	0.622134161	0.772945367	0.013026572	0.134392740	0.041421148
2020-09-30T07:40:00	0.2457	9.318	191.0	0.621086311	0.771391060	0.012985775	0.133971849	0.041291425
2020-09-30T07:45:00	0.2448	9.332	191.0	0.618046799	0.766887698	0.012867810	0.132754828	0.040916327
2020-09-30T07:50:00	0.2452	9.347	190.0	0.619321568	0.768775457	0.012917217	0.133264546	0.041073427
2020-09-30T07:55:00	0.2453	9.362	190.0	0.619600500	0.769188698	0.012928041	0.133376212	0.041107844
2020-09-30T08:00:00	0.2454	9.378	190.0	0.619879409	0.769601973	0.012938868	0.133487918	0.041142273
2020-09-30T08:05:00	0.2455	9.396	190.0	0.620158296	0.770015281	0.012949699	0.133599663	0.041176714
2020-09-30T08:10:00	0.2453	9.415	190.0	0.619773575	0.769445146	0.012934759	0.133445525	0.041129207
2020-09-30T08:15:00	0.2456	9.435	190.0	0.620716006	0.770841996	0.012971374	0.133823271	0.041245632
2020-09-30T08:20:00	0.2450	9.457	191.0	0.618672098	0.767813508	0.012892033	0.133004728	0.040993349
2020-09-30T08:25:00	0.2442	9.481	191.0	0.615962719	0.763804407	0.012787248	0.131923680	0.040660159
2020-09-30T08:30:00	0.2442	9.508	191.0	0.615909745	0.763726081	0.012785204	0.131902588	0.040653659
2020-09-30T08:35:00	0.2443	9.540	191.0	0.616188943	0.764138917	0.012795980	0.132013769	0.040687926
2020-09-30T08:40:00	0.2439	9.576	192.0	0.615139342	0.762587271	0.012755491	0.131596054	0.040559182
2020-09-30T08:45:00	0.2434	9.617	192.0	0.613424661	0.760054415	0.012689489	0.130915123	0.040349312
2020-09-30T08:50:00	0.2441	9.653	192.0	0.615697839	0.763412791	0.012777027	0.131818237	0.040627661
2020-09-30T08:55:00	0.2435	9.692	192.0	0.613651046	0.760388681	0.012698193	0.131004921	0.040376989
2020-09-30T09:00:00	0.2431	9.729	192.0	0.612268187	0.758347517	0.012645074	0.130456897	0.040208083
2020-09-30T09:05:00	0.2432	9.760	192.0	0.612547672	0.758759920	0.012655800	0.130567560	0.040242190
2020-09-30T09:10:00	0.2430	9.789	192.0	0.612162127	0.758191034	0.012641005	0.130414915	0.040195143
2020-09-30T09:15:00	0.2434	9.812	192.0	0.613439006	0.760075595	0.012690041	0.130920812	0.040351066
2020-09-30T09:20:00	0.2431	9.832	192.0	0.612388593	0.758525178	0.012649695	0.130504566	0.040222775
2020-09-30T09:25:00	0.2430	9.851	193.0	0.612003031	0.757956318	0.012634902	0.130351952	0.040175738
2020-09-30T09:30:00	0.2433	9.873	193.0	0.612947521	0.759350045	0.012671155	0.130725967	0.040291013
2020-09-30T09:35:00	0.2436	9.895	193.0	0.613891761	0.760744150	0.012707452	0.131100436	0.040406428
2020-09-30T09:40:00	0.2438	9.919	193.0	0.614835749	0.762138635	0.012743793	0.131475359	0.040521982
2020-09-30T09:45:00	0.2435	9.942	193.0	0.613785749	0.760587594	0.012703374	0.131058366	0.040393461
2020-09-30T09:50:00	0.2434	9.968	193.0	0.613400339	0.760018505	0.012688554	0.130905478	0.040346340
2020-09-30T09:55:00	0.2431	9.994	193.0	0.612349914	0.758468106	0.012648210	0.130489252	0.040218055
2020-09-30T10:00:00	0.2430	10.018	193.0	0.611964348	0.757899253	0.012633418	0.130336645	0.040171020
2020-09-30T10:05:00	0.2430	10.045	193.0	0.612052561	0.758029388	0.012636802	0.130371552	0.040181778
2020-09-30T10:10:00	0.2433	10.078	194.0	0.613138242	0.759631570	0.012678482	0.130801559	0.040314311
2020-09-30T10:15:00	0.2436	10.110	194.0	0.613891233	0.760743372	0.012707431	0.131100227	0.040406363
2020-09-30T10:20:00	0.2431	10.148	194.0	0.612317186	0.758419814	0.012646954	0.130476295	0.040214061
2020-09-30T10:25:00	0.2431	10.185	194.0	0.612405390	0.758549963	0.012650339	0.130511217	0.040224825
2020-09-30T10:30:00	0.2432	10.219	194.0	0.612826080	0.759170799	0.012666490	0.130677846	0.040276181
2020-09-30T10:35:00	0.2427	10.259	194.0	0.610918925	0.756357493	0.012593356	0.129923331	0.040043632
2020-09-30T10:40:00	0.2424	10.306	195.0	0.610009095	0.755016450	0.012558543	0.129564175	0.039932937
2020-09-30T10:45:00	0.2419	10.351	195.0	0.608433326	0.752695492	0.012498367	0.128943352	0.039741593
2020-09-30T10:50:00	0.2417	10.392	195.0	0.607855812	0.751845391	0.012476350	0.128716208	0.039671585
2020-09-30T10:55:00	0.2421	10.433	195.0	0.608942777	0.753445636	0.012517806	0.129143898	0.039803403
2020-09-30T11:00:00	0.2421	10.465	195.0	0.609031065	0.753575658	0.012521176	0.129178669	0.039814120
2020-09-30T11:05:00	0.2408	10.497	195.0	0.604790053	0.747337271	0.012359808	0.127513856	0.039301009
2020-09-30T11:10:00	0.2418	10.529	196.0	0.607876138	0.751875305	0.012477125	0.128724199	0.039674048
2020-09-30T11:15:00	0.2423	10.560	196.0	0.609628702	0.754455977	0.012544003	0.129414167	0.039886703
2020-09-30T11:20:00	0.2421	10.590	196.0	0.609051383	0.753605583	0.012521952	0.129186671	0.039816587
2020-09-30T11:25:00	0.2414	10.626	196.0	0.606809178	0.750305456	0.012436500	0.128305078	0.039544871
2020-09-30T11:30:00	0.2408	10.668	197.0	0.604565555	0.747007462	0.012351296	0.127426040	0.039273943
2020-09-30T11:35:00	0.2409	10.696	196.0	0.604987175	0.747626897	0.012367284	0.127590990	0.039324782
2020-09-30T11:40:00	0.2400	10.718	197.0	0.602075497	0.743352162	0.012257086	0.126454093	0.038974379
2020-09-30T11:45:00	0.2404	10.750	197.0	0.603497598	0.745439111	0.012310845	0.127008714	0.039145319
2020-09-30T11:50:00	0.2397	10.784	197.0	0.600918301	0.741655214	0.012213430	0.126003706	0.038835566
2020-09-30T11:55:00	0.2397	10.808	197.0	0.601006788	0.741784936	0.012216765	0.126038117	0.038846172
2020-09-30T12:00:00	0.2394	10.827	197.0	0.600094410	0.740447719	0.012182397	0.125683548	0.038736890
2020-09-30T12:05:00	0.2384	10.851	197.0	0.596844742	0.735690534	0.012060391	0.124424832	0.038348941
2020-09-30T12:10:00	0.2381	10.886	198.0	0.595597211	0.733866620	0.012013721	0.123943346	0.038200543
2020-09-30T12:15:00	0.2379	10.912	197.0	0.595017599	0.733019658	0.011992070	0.123719971	0.038131696
2020-09-30T12:20:00	0.2375	10.932	199.0	0.593769423	0.731196704	0.011945512	0.123239641	0.037983654
2020-09-30T12:25:00	0.2371	10.950	198.0	0.592186404	0.728886586	0.011886597	0.122631834	0.037796322
2020-09-30T12:30:00	0.2379	10.970	197.0	0.594949361	0.732919963	0.011989522	0.123693686	0.038123595
2020-09-30T12:35:00	0.2375	10.990	198.0	0.593701160	0.731097045	0.011942968	0.123213399	0.037975566
2020-09-30T12:40:00	0.2377	11.008	198.0	0.594458295	0.732202637	0.011971196	0.123504617	0.038065323
2020-09-30T12:45:00	0.2366	11.028	198.0	0.590534351	0.726477953	0.011825273	0.121999166	0.037601328
2020-09-30T12:50:00	0.2363	11.051	198.0	0.589619263	0.725144767	0.011791375	0.121649447	0.037493541
2020-09-30T12:55:00	0.2355	11.077	198.0	0.587029804	0.721375981	0.011695723	0.120662622	0.037189392
2020-09-30T13:00:00	0.2350	11.106	198.0	0.585443754	0.719070347	0.011637333	0.120060222	0.037003726
2020-09-30T13:05:00	0.2345	11.135	198.0	0.583521764	0.716279162	0.011566776	0.119332297	0.036779373
2020-09-30T13:10:00	0.2348	11.166	199.0	0.584616241	0.717868226	0.011606928	0.119746536	0.036907045
2020-09-30T13:15:00	0.2346	11.193	198.0	0.584034820	0.717023941	0.011585589	0.119526388	0.036839194
2020-09-30T13:20:00	0.2348	11.220	199.0	0.584794034	0.718126456	0.011613457	0.119813897	0.036927807
2020-09-30T13:25:00	0.2341	11.243	199.0	0.582201021	0.714362911	0.011518418	0.118833399	0.036625608
2020-09-30T13:30:00	0.2338	11.266	199.0	0.581283763	0.713032923	0.011484895	0.118487542	0.036519011
2020-09-30T13:35:00	0.2344	11.284	199.0	0.583384840	0.716080434	0.011561758	0.119280526	0.036763417
2020-09-30T13:40:00	0.2351	11.293	199.0	0.585484663	0.719129790	0.011638837	0.120075741	0.037008509
2020-09-30T13:45:00	0.2351	11.299	199.0	0.585573539	0.719258936	0.011642106	0.120109458	0.037018901
2020-09-30T13:50:00	0.2349	11.304	199.0	0.584992276	0.718414418	0.011620740	0.119889028	0.036950963
2020-09-30T13:55:00	0.2352	11.310	199.0	0.586086296	0.720004155	0.011660970	0.120304081	0.037078886
2020-09-30T14:00:00	0.2352	11.313	199.0	0.585840153	0.719646394	0.011651913	0.120210634	0.037050085
2020-09-30T14:05:00	0.2352	11.317	199.0	0.585929020	0.719775554	0.011655182	0.120244368	0.037060482
2020-09-30T14:10:00	0.2345	11.317	199.0	0.583672086	0.716497354	0.011572287	0.119389148	0.036796895
2020-09-30T14:15:00	0.2336	11.321	200.0	0.580742755	0.712248811	0.011465146	0.118283794	0.036456214
2020-09-30T14:20:00	0.2335	11.328	199.0	0.580160692	0.711405468	0.011443917	0.118064784	0.036388713
2020-09-30T14:25:00	0.2337	11.333	199.0	0.580920744	0.712506754	0.011471641	0.118350806	0.036476868
2020-09-30T14:30:00	0.2333	11.337	200.0	0.579667559	0.710691193	0.011425948	0.117879398	0.036331575
2020-09-30T14:35:00	0.2336	11.341	200.0	0.580763237	0.712278492	0.011465893	0.118291504	0.036458590
2020-09-30T14:40:00	0.2334	11.344	199.0	0.579845603	0.710949056	0.011432434	0.117946314	0.036352199
2020-09-30T14:45:00	0.2332	11.347	199.0	0.579263392	0.710105931	0.011411231	0.117727568	0.036284780
2020-09-30T14:50:00	0.2324	11.352	199.0	0.576666291	0.706348382	0.011316896	0.116754325	0.035984817
2020-09-30T14:55:00	0.2319	11.353	199.0	0.575075553	0.704049627	0.011259312	0.116160246	0.035801716
2020-09-30T15:00:00	0.2321	11.354	200.0	0.575500716	0.704663819	0.011274688	0.116318876	0.035850607
2020-09-30T15:05:00	0.2318	11.359	199.0	0.574581704	0.703336398	0.011241465	0.115976127	0.035744969
2020-09-30T15:10:00	0.2322	11.364	199.0	0.576014945	0.705406878	0.011293299	0.116510885	0.035909786
2020-09-30T15:15:00	0.2318	11.368	199.0	0.574423912	0.703108553	0.011235766	0.115917329	0.035726847
2020-09-30T15:20:00	0.2318	11.370	200.0	0.574513068	0.703237288	0.011238986	0.115950549	0.035737085
2020-09-30T15:25:00	0.2318	11.371	199.0	0.574602222	0.703366027	0.011242207	0.115983773	0.035747325
2020-09-30T15:30:00	0.2320	11.373	200.0	0.575363479	0.704465549	0.011269724	0.116267660	0.035834822
2020-09-30T15:35:00	0.2320	11.373	199.0	0.575116583	0.704108893	0.011260795	0.116175549	0.035806433
2020-09-30T15:40:00	0.2323	11.375	200.0	0.576213683	0.705694112	0.011300496	0.116585136	0.035932671
2020-09-30T15:45:00	0.2323	11.375	200.0	0.576302794	0.705822913	0.011303724	0.116618437	0.035942935
2020-09-30T15:50:00	0.2323	11.374	200.0	0.576391902	0.705951718	0.011306952	0.116651741	0.035953200
2020-09-30T15:55:00	0.2320	11.373	200.0	0.575137098	0.704138526	0.011261537	0.116183202	0.035808791
2020-09-30T16:00:00	0.2323	11.372	200.0	0.576234192	0.705723754	0.011301239	0.116592800	0.035935033
2020-09-30T16:05:00	0.2324	11.371	200.0	0.576513538	0.706127551	0.011311359	0.116697211	0.035967214
2020-09-30T16:10:00	0.2330	11.370	200.0	0.578471877	0.708960156	0.011382438	0.117430517	0.036193226
2020-09-30T16:15:00	0.2326	11.369	199.0	0.577408005	0.707420942	0.011343796	0.117031856	0.036070355
2020-09-30T16:20:00	0.2330	11.368	200.0	0.578694506	0.709282375	0.011390533	0.117514030	0.036218965
2020-09-30T16:25:00	0.2326	11.366	200.0	0.577294882	0.707257331	0.011339691	0.116989506	0.036057302
2020-09-30T16:30:00	0.2322	11.366	200.0	0.575894700	0.705233104	0.011288946	0.116465972	0.035895944
2020-09-30T16:35:00	0.2320	11.363	200.0	0.575166101	0.704180420	0.011262586	0.116194020	0.035812126
2020-09-30T16:40:00	0.2326	11.359	199.0	0.577125192	0.707011925	0.011333535	0.116925995	0.036037727
2020-09-30T16:45:00	0.2329	11.354	200.0	0.578411797	0.708873207	0.011380254	0.117407985	0.036186281
2020-09-30T16:50:00	0.2334	11.349	200.0	0.580033520	0.711221247	0.011439282	0.118016961	0.036373974
2020-09-30T16:55:00	0.2334	11.344	199.0	0.579977001	0.711139379	0.011437222	0.117995711	0.036367424
2020-09-30T17:00:00	0.2339	11.337	199.0	0.581598001	0.713488478	0.011496374	0.118605969	0.036555512
2020-09-30T17:05:00	0.2347	11.328	199.0	0.584223918	0.717298500	0.011592527	0.119597965	0.036861254
2020-09-30T17:10:00	0.2348	11.319	199.0	0.584502629	0.717703227	0.011602757	0.119703502	0.036893782
2020-09-30T17:15:00	0.2343	11.307	199.0	0.583105319	0.715674790	0.011551517	0.119174873	0.036730853
2020-09-30T17:20:00	0.2342	11.295	200.0	0.582713548	0.715106359	0.011537172	0.119026874	0.036685239
2020-09-30T17:25:00	0.2347	11.283	199.0	0.584333287	0.717457311	0.011596541	0.119639373	0.036874017
2020-09-30T17:30:00	0.2360	11.269	200.0	0.588631329	0.723706237	0.011754835	0.121272466	0.037377352
2020-09-30T17:35:00	0.2361	11.256	199.0	0.588909692	0.724111479	0.011765125	0.121378625	0.037410071
2020-09-30T17:40:00	0.2370	11.243	200.0	0.591864624	0.728417264	0.011874640	0.122508474	0.037758302
2020-09-30T17:45:00	0.2372	11.231	199.0	0.592811509	0.729798560	0.011909844	0.122871662	0.037870239
2020-09-30T17:50:00	0.2374	11.220	200.0	0.593423857	0.730692238	0.011932638	0.123106828	0.037942720
2020-09-30T17:55:00	0.2379	11.209	200.0	0.595038680	0.733050457	0.011992857	0.123728091	0.038134199
2020-09-30T18:00:00	0.2378	11.198	199.0	0.594648234	0.732480068	0.011978282	0.123577730	0.038087856
2020-09-30T18:05:00	0.2382	11.190	199.0	0.595928451	0.734350772	0.012026104	0.124071095	0.038239916
2020-09-30T18:10:00	0.2385	11.182	199.0	0.596874247	0.735733687	0.012061496	0.124436231	0.038352455
2020-09-30T18:15:00	0.2385	11.175	199.0	0.597151960	0.736139893	0.012071898	0.124543550	0.038385532
2020-09-30T18:20:00	0.2387	11.169	199.0	0.597763556	0.737034689	0.012094823	0.124780062	0.038458427
2020-09-30T18:25:00	0.2390	11.164	199.0	0.598708861	0.738418335	0.012130301	0.125146077	0.038571236
2020-09-30T18:30:00	0.2386	11.160	199.0	0.597317171	0.736381573	0.012078089	0.124607416	0.038405216
2020-09-30T18:35:00	0.2390	11.156	200.0	0.598596421	0.738253717	0.012126078	0.125102512	0.038557809
2020-09-30T18:40:00	0.2383	11.152	199.0	0.596202720	0.734751723	0.012036362	0.124176923	0.038272534
2020-09-30T18:45:00	0.2385	11.149	199.0	0.597148443	0.736134747	0.012071767	0.124542190	0.038385113
2020-09-30T18:50:00	0.2394	11.147	199.0	0.600096489	0.740450764	0.012182476	0.125684355	0.038737139
2020-09-30T18:55:00	0.2393	11.145	199.0	0.599706602	0.739879543	0.012167804	0.125532993	0.038690488
2020-09-30T19:00:00	0.2398	11.142	199.0	0.601318557	0.742242035	0.012228521	0.126159394	0.038883551
2020-09-30T19:05:00	0.2399	11.139	199.0	0.601595921	0.742648762	0.012238984	0.126267339	0.038916820
2020-09-30T19:10:00	0.2408	11.137	199.0	0.604540266	0.746970313	0.012350337	0.127416149	0.039270895
2020-09-30T19:15:00	0.2412	11.133	199.0	0.606150022	0.749336098	0.012411436	0.128046501	0.039465175
2020-09-30T19:20:00	0.2414	11.129	199.0	0.606760066	0.750233218	0.012434632	0.128285802	0.039538930
2020-09-30T19:25:00	0.2417	11.124	200.0	0.607702972	0.751620456	0.012470527	0.128656128	0.039653068
2020-09-30T19:30:00	0.2419	11.119	199.0	0.608312748	0.752517978	0.012493769	0.128895910	0.039726971
2020-09-30T19:35:00	0.2421	11.114	198.0	0.608922420	0.753415657	0.012517029	0.129135881	0.039800933
2020-09-30T19:40:00	0.2424	11.109	199.0	0.609864752	0.754803760	0.012553025	0.129507242	0.039915390
2020-09-30T19:45:00	0.2418	11.105	199.0	0.608144543	0.752270368	0.012487355	0.128829744	0.039706578
2020-09-30T19:50:00	0.2419	11.100	199.0	0.608421374	0.752677895	0.012497912	0.128938649	0.039740144
2020-09-30T19:55:00	0.2426	11.095	199.0	0.610694777	0.756027046	0.012584775	0.129834800	0.040016346
2020-09-30T20:00:00	0.2432	11.090	198.0	0.612634251	0.758887687	0.012659124	0.130601852	0.040252759
2020-09-30T20:05:00	0.2431	11.085	198.0	0.612245740	0.758314397	0.012644213	0.130448011	0.040205344
2020-09-30T20:10:00	0.2433	11.081	199.0	0.612854737	0.759213095	0.012667591	0.130689200	0.040279681
2020-09-30T20:15:00	0.2435	11.077	198.0	0.613796026	0.760602771	0.012703769	0.131062444	0.040394718
2020-09-30T20:20:00	0.2439	11.072	199.0	0.615069346	0.762483826	0.012752794	0.131568221	0.040550604
2020-09-30T20:25:00	0.2435	11.067	198.0	0.613684064	0.760437435	0.012699463	0.131018020	0.040381026
2020-09-30T20:30:00	0.2431	11.062	199.0	0.612298242	0.758391862	0.012646227	0.130468795	0.040211750
2020-09-30T20:35:00	0.2429	11.058	198.0	0.611577121	0.757328074	0.012618571	0.130183473	0.040123811
2020-09-30T20:40:00	0.2431	11.054	198.0	0.612186232	0.758226598	0.012641929	0.130424456	0.040198084
2020-09-30T20:45:00	0.2436	11.051	199.0	0.614124892	0.761088468	0.012716422	0.131192977	0.040434950
2020-09-30T20:50:00	0.2436	11.047	199.0	0.614068916	0.761005792	0.012714268	0.131170755	0.040428101
2020-09-30T20:55:00	0.2436	11.043	198.0	0.614012940	0.760923117	0.012712114	0.131148534	0.040421252
2020-09-30T21:00:00	0.2436	11.038	199.0	0.613956962	0.760840444	0.012709960	0.131126314	0.040414404
2020-09-30T21:05:00	0.2439	11.032	199.0	0.614897960	0.762230561	0.012746189	0.131500086	0.040529604
2020-09-30T21:10:00	0.2439	11.026	198.0	0.615174265	0.762638883	0.012756838	0.131609941	0.040563462
2020-09-30T21:15:00	0.2432	11.020	198.0	0.612791737	0.759120111	0.012665171	0.130664239	0.040271987
2020-09-30T21:20:00	0.2433	11.012	198.0	0.613068205	0.759528185	0.012675791	0.130773798	0.040305754
2020-09-30T21:25:00	0.2430	11.003	198.0	0.612014708	0.757973544	0.012635350	0.130356572	0.040177162
2020-09-30T21:30:00	0.2430	10.994	198.0	0.611958699	0.757890918	0.012633201	0.130334410	0.040170331
2020-09-30T21:35:00	0.2421	10.984	198.0	0.608908396	0.753395005	0.012516494	0.129130359	0.039799231
2020-09-30T21:40:00	0.2422	10.972	198.0	0.609517965	0.754292839	0.012539772	0.129370514	0.039873249
2020-09-30T21:45:00	0.2418	10.960	198.0	0.608130516	0.752249720	0.012486821	0.128824227	0.039704878
2020-09-30T21:50:00	0.2415	10.947	198.0	0.607075552	0.750697291	0.012446636	0.128409648	0.039577101
2020-09-30T21:55:00	0.2418	10.936	198.0	0.608018375	0.752084655	0.012482546	0.128780125	0.039691285
2020-09-30T22:00:00	0.2412	10.922	198.0	0.605964170	0.749062849	0.012404374	0.127973643	0.039442720
2020-09-30T22:05:00	0.2411	10.908	198.0	0.605666282	0.748624938	0.012393059	0.127856909	0.039406741
2020-09-30T22:10:00	0.2410	10.895	197.0	0.605368368	0.748187065	0.012381749	0.127740219	0.039370776
2020-09-30T22:15:00	0.2412	10.881	198.0	0.606069888	0.749218276	0.012408391	0.128015084	0.039455492
2020-09-30T22:20:00	0.2414	10.868	197.0	0.606771269	0.750249696	0.012435058	0.128290199	0.039540285
2020-09-30T22:25:00	0.2412	10.853	198.0	0.606140364	0.749321897	0.012411069	0.128042715	0.039464008
2020-09-30T22:30:00	0.2416	10.838	198.0	0.607507736	0.751333156	0.012463090	0.128579404	0.039629421
2020-09-30T22:35:00	0.2419	10.825	197.0	0.608208832	0.752365003	0.012489806	0.128855031	0.039714372
2020-09-30T22:40:00	0.2410	10.810	197.0	0.605246667	0.748008210	0.012377130	0.127692566	0.039356089
2020-09-30T22:45:00	0.2413	10.795	197.0	0.606281313	0.749529145	0.012416426	0.128097983	0.039481042
2020-09-30T22:50:00	0.2411	10.781	197.0	0.605650321	0.748601477	0.012392453	0.127850656	0.039404814
2020-09-30T22:55:00	0.2405	10.766	197.0	0.603686147	0.745715935	0.012317981	0.127082342	0.039168012
2020-09-30T23:00:00	0.2407	10.751	197.0	0.604388000	0.746746647	0.012344566	0.127356607	0.039252543
2020-09-30T23:05:00	0.2405	10.735	197.0	0.603756670	0.745819485	0.012320651	0.127109887	0.039176502
2020-09-30T23:10:00	0.2409	10.718	197.0	0.605124962	0.747829362	0.012372512	0.127644920	0.039341404
2020-09-30T23:15:00	0.2406	10.704	197.0	0.604160494	0.746412496	0.012335945	0.127267671	0.039225132
2020-09-30T23:20:00	0.2403	10.687	197.0	0.603195764	0.744996024	0.012299424	0.126890894	0.039109006
2020-09-30T23:25:00	0.2405	10.673	197.0	0.603564388	0.745537167	0.012313372	0.127034793	0.039153357
2020-09-30T23:30:00	0.2402	10.657	197.0	0.602599495	0.744120938	0.012276880	0.126658307	0.039037320
2020-09-30T23:35:00	0.2403	10.642	197.0	0.602968181	0.744661988	0.012290817	0.126802095	0.039081637
2020-09-30T23:40:00	0.2404	10.628	196.0	0.603336829	0.745203096	0.012304761	0.126945951	0.039125975
2020-09-30T23:45:00	0.2406	10.615	197.0	0.604038752	0.746233704	0.012331333	0.127220092	0.039210468
2020-09-30T23:50:00	0.2411	10.601	196.0	0.605740086	0.748733428	0.012395862	0.127885826	0.039415654
2020-09-30T23:55:00	0.2411	10.586	196.0	0.605775328	0.748785233	0.012397201	0.127899635	0.039419910
2020-10-01T00:00:00	0.2409	10.572	196.0	0.605144246	0.747857700	0.012373243	0.127652469	0.039343731
2020-10-01T00:05:00	0.2409	10.557	196.0	0.605179494	0.747909497	0.012374581	0.127666268	0.039347984
2020-10-01T00:10:00	0.2415	10.542	197.0	0.606880281	0.750410042	0.012439205	0.128332986	0.039553473
2020-10-01T00:15:00	0.2418	10.525	196.0	0.607914450	0.751931693	0.012478585	0.128739262	0.039678691
2020-10-01T00:20:00	0.2417	10.509	196.0	0.607616725	0.751493536	0.012467241	0.128622232	0.039642621
2020-10-01T00:25:00	0.2412	10.492	196.0	0.605986771	0.749096075	0.012405233	0.127982502	0.039445450
2020-10-01T00:30:00	0.2408	10.476	196.0	0.604689317	0.747189276	0.012355988	0.127474448	0.039288863
2020-10-01T00:35:00	0.2405	10.459	196.0	0.603724731	0.745772588	0.012319442	0.127097412	0.039172657
2020-10-01T00:40:00	0.2400	10.445	196.0	0.602092985	0.743377815	0.012257746	0.126460905	0.038976479
2020-10-01T00:45:00	0.2389	10.430	195.0	0.598458115	0.738051245	0.012120885	0.125048937	0.038541297
2020-10-01T00:50:00	0.2383	10.413	195.0	0.596489944	0.735171680	0.012047109	0.124287799	0.038306707
2020-10-01T00:55:00	0.2379	10.399	195.0	0.594854855	0.732781897	0.011985994	0.123657288	0.038112377
2020-10-01T01:00:00	0.2374	10.382	195.0	0.593219008	0.730393241	0.011925010	0.123028132	0.037918465
2020-10-01T01:05:00	0.2372	10.366	195.0	0.592585681	0.729469059	0.011901443	0.122784993	0.037843527
2020-10-01T01:10:00	0.2376	10.350	195.0	0.593958302	0.731472477	0.011952551	0.123312264	0.038006037
2020-10-01T01:15:00	0.2376	10.335	195.0	0.593993661	0.731524107	0.011953869	0.123325862	0.038010229
2020-10-01T01:20:00	0.2375	10.317	195.0	0.593694762	0.731087704	0.011942730	0.123210940	0.037974808
2020-10-01T01:25:00	0.2372	10.302	195.0	0.592727171	0.729675499	0.011906706	0.122839291	0.037860262
2020-10-01T01:30:00	0.2369	10.286	195.0	0.591759315	0.728263687	0.011870728	0.122468116	0.037745863
2020-10-01T01:35:00	0.2366	10.270	195.0	0.590791193	0.726852269	0.011834797	0.122097415	0.037631609
2020-10-01T01:40:00	0.2367	10.254	195.0	0.591161113	0.727391481	0.011848520	0.122238992	0.037675245
2020-10-01T01:45:00	0.2371	10.239	195.0	0.592199888	0.728906255	0.011887099	0.122637005	0.037797916
2020-10-01T01:50:00	0.2368	10.223	195.0	0.591231887	0.727494658	0.011851146	0.122266089	0.037683596
2020-10-01T01:55:00	0.2367	10.207	195.0	0.590932754	0.727058602	0.011840047	0.122151584	0.037648305
2020-10-01T02:00:00	0.2359	10.192	194.0	0.588290872	0.723210684	0.011742256	0.121142692	0.037337354
2020-10-01T02:05:00	0.2351	10.175	194.0	0.585647006	0.719365697	0.011644808	0.120137333	0.037027493
2020-10-01T02:10:00	0.2348	10.158	194.0	0.584677202	0.717956764	0.011609166	0.119769631	0.036914163
2020-10-01T02:15:00	0.2355	10.142	194.0	0.587057760	0.721416639	0.011696754	0.120673254	0.037192669
2020-10-01T02:20:00	0.2352	10.127	194.0	0.586088345	0.720007133	0.011661046	0.120304859	0.037079126
2020-10-01T02:25:00	0.2352	10.112	194.0	0.586123783	0.720058646	0.011662350	0.120318316	0.037083273
2020-10-01T02:30:00	0.2361	10.097	194.0	0.588838113	0.724007267	0.011762478	0.121351322	0.037401656
2020-10-01T02:35:00	0.2363	10.081	194.0	0.589542922	0.725033578	0.011788550	0.121620295	0.037484556
2020-10-01T02:40:00	0.2369	10.064	193.0	0.591585737	0.728010572	0.011864282	0.122401609	0.037725365
2020-10-01T02:45:00	0.2366	10.050	194.0	0.590617567	0.726599225	0.011828358	0.122030994	0.037611138
2020-10-01T02:50:00	0.2375	10.036	194.0	0.593662732	0.731040943	0.011941536	0.123198628	0.037971014
2020-10-01T02:55:00	0.2378	10.020	194.0	0.594700771	0.732556809	0.011980243	0.123597956	0.038094090
2020-10-01T03:00:00	0.2382	10.005	194.0	0.596072569	0.734561449	0.012031493	0.124126698	0.038257054
2020-10-01T03:05:00	0.2390	9.990	194.0	0.598779257	0.738521404	0.012132945	0.125173356	0.038579644
2020-10-01T03:10:00	0.2391	9.975	194.0	0.599148342	0.739061859	0.012146813	0.125316429	0.038623740
2020-10-01T03:15:00	0.2395	9.962	193.0	0.600518415	0.741069070	0.012198363	0.125848261	0.038787656
2020-10-01T03:20:00	0.2395	9.947	193.0	0.600220068	0.740631846	0.012187128	0.125732351	0.038751932
2020-10-01T03:25:00	0.2398	9.931	193.0	0.601256183	0.742150579	0.012226168	0.126135126	0.038876071
2020-10-01T03:30:00	0.2396	9.917	193.0	0.600624295	0.741224253	0.012202351	0.125889410	0.038800339
2020-10-01T03:35:00	0.2391	9.902	193.0	0.598991118	0.738831621	0.012140904	0.125255472	0.038604953
2020-10-01T03:40:00	0.2387	9.889	193.0	0.597691097	0.736928662	0.012092106	0.124752029	0.038449787
2020-10-01T03:45:00	0.2392	9.875	193.0	0.599395485	0.739423818	0.012156104	0.125412279	0.038653282
2020-10-01T03:50:00	0.2398	9.860	193.0	0.601432610	0.742409275	0.012232823	0.126203776	0.038897229
2020-10-01T03:55:00	0.2398	9.846	193.0	0.601467895	0.742461016	0.012234154	0.126217508	0.038901462
2020-10-01T04:00:00	0.2397	9.832	193.0	0.601169628	0.742023673	0.012222905	0.126101454	0.038865693
2020-10-01T04:05:00	0.2395	9.818	193.0	0.600345796	0.740816090	0.012191862	0.125781190	0.038766984
2020-10-01T04:10:00	0.2398	9.804	193.0	0.601523541	0.742542617	0.012236253	0.126239166	0.038908137
2020-10-01T04:15:00	0.2394	9.790	193.0	0.600032506	0.740357015	0.012180067	0.125659509	0.038729481
2020-10-01T04:20:00	0.2391	9.776	193.0	0.598874641	0.738661066	0.012136528	0.125210323	0.038591038
2020-10-01T04:25:00	0.2389	9.762	193.0	0.598384120	0.737942927	0.012118107	0.125020278	0.038532464
2020-10-01T04:30:00	0.2388	9.748	193.0	0.597893531	0.737224891	0.012099698	0.124830355	0.038473928
2020-10-01T04:35:00	0.2387	9.735	193.0	0.597736781	0.736995510	0.012093819	0.124769703	0.038455234
2020-10-01T04:40:00	0.2392	9.722	192.0	0.599249159	0.739209508	0.012150602	0.125355525	0.038635790
2020-10-01T04:45:00	0.2393	9.708	193.0	0.599759932	0.739957669	0.012169811	0.125553692	0.038696867
2020-10-01T04:50:00	0.2401	9.695	192.0	0.602271977	0.743640398	0.012264506	0.126530646	0.038997974
2020-10-01T04:55:00	0.2406	9.684	192.0	0.604115723	0.746346744	0.012334249	0.127250173	0.039219739
2020-10-01T05:00:00	0.2406	9.672	192.0	0.603959249	0.746116952	0.012328322	0.127189027	0.039200893
2020-10-01T05:05:00	0.2406	9.660	192.0	0.604136070	0.746376626	0.012335020	0.127258125	0.039222190
2020-10-01T05:10:00	0.2411	9.648	192.0	0.605645717	0.748594710	0.012392278	0.127848852	0.039404258
2020-10-01T05:15:00	0.2415	9.636	192.0	0.607154721	0.750813759	0.012449649	0.128440736	0.039586682
2020-10-01T05:20:00	0.2419	9.623	192.0	0.608330206	0.752543678	0.012494435	0.128902778	0.039729088
2020-10-01T05:25:00	0.2417	9.609	192.0	0.607840993	0.751823579	0.012475786	0.128710382	0.039669790
2020-10-01T05:30:00	0.2415	9.598	192.0	0.607018711	0.750613672	0.012444473	0.128387330	0.039570222
2020-10-01T05:35:00	0.2413	9.585	192.0	0.606196239	0.749404052	0.012413193	0.128064623	0.039470760
2020-10-01T05:40:00	0.2418	9.574	192.0	0.608037945	0.752113460	0.012483292	0.128787821	0.039693657
2020-10-01T05:45:00	0.2424	9.563	192.0	0.609878697	0.754824307	0.012553558	0.129512742	0.039917085
2020-10-01T05:50:00	0.2432	9.552	191.0	0.612716083	0.759008455	0.012662266	0.130634267	0.040262750
2020-10-01T05:55:00	0.2432	9.542	191.0	0.612559986	0.758778092	0.012656273	0.130572438	0.040243693
2020-10-01T06:00:00	0.2432	9.534	192.0	0.612736380	0.759038411	0.012663046	0.130642308	0.040265228
2020-10-01T06:05:00	0.2432	9.524	191.0	0.612580285	0.758808047	0.012657052	0.130580477	0.040246171
2020-10-01T06:10:00	0.2441	9.515	192.0	0.615747731	0.763486551	0.012778952	0.131838094	0.040633781
2020-10-01T06:15:00	0.2441	9.506	191.0	0.615591768	0.763255987	0.012772936	0.131776024	0.040614650
2020-10-01T06:20:00	0.2440	9.497	192.0	0.615435798	0.763025433	0.012766921	0.131713967	0.040595524
2020-10-01T06:25:00	0.2441	9.492	191.0	0.615612049	0.763285968	0.012773718	0.131784095	0.040617138
2020-10-01T06:30:00	0.2439	9.486	191.0	0.615123838	0.762564357	0.012754894	0.131589889	0.040557282
2020-10-01T06:35:00	0.2444	9.481	191.0	0.616628822	0.764789474	0.012812968	0.132189034	0.040741944
2020-10-01T06:40:00	0.2443	9.477	191.0	0.616472897	0.764558852	0.012806945	0.132126894	0.040722792
2020-10-01T06:45:00	0.2450	9.474	191.0	0.618641232	0.767767801	0.012890837	0.132992387	0.040989545
2020-10-01T06:50:00	0.2451	9.472	191.0	0.619149222	0.768520155	0.012910532	0.133195574	0.041052170
2020-10-01T06:55:00	0.2450	9.472	191.0	0.618661496	0.767797808	0.012891622	0.133000489	0.040992042
2020-10-01T07:00:00	0.2446	9.470	191.0	0.617177644	0.765601382	0.012834180	0.132407874	0.040809393
2020-10-01T07:05:00	0.2441	9.471	191.0	0.615693173	0.763405894	0.012776847	0.131816380	0.040627088
2020-10-01T07:10:00	0.2432	9.472	191.0	0.612545977	0.758757419	0.012655735	0.130566889	0.040241983
2020-10-01T07:15:00	0.2427	9.474	191.0	0.611059571	0.756564860	0.012598742	0.129978896	0.040060758
2020-10-01T07:20:00	0.2420	9.477	191.0	0.608574070	0.752902710	0.012503736	0.128998740	0.039758665
2020-10-01T07:25:00	0.2427	9.481	191.0	0.611079878	0.756594802	0.012599520	0.129986920	0.040063231
2020-10-01T07:30:00	0.2427	9.488	192.0	0.610923710	0.756364548	0.012593539	0.129925221	0.040044215
2020-10-01T07:35:00	0.2423	9.493	191.0	0.609769399	0.754663267	0.012549380	0.129469640	0.039903800
2020-10-01T07:40:00	0.2426	9.500	191.0	0.610611354	0.755904071	0.012581582	0.129801859	0.040006194
2020-10-01T07:45:00	0.2422	9.509	191.0	0.609456941	0.754202943	0.012537440	0.129346462	0.039865836
2020-10-01T07:50:00	0.2430	9.519	191.0	0.611962126	0.757895974	0.012633333	0.130335766	0.040170749
2020-10-01T07:55:00	0.2431	9.530	191.0	0.612471071	0.758646882	0.012652860	0.130537225	0.040232841
2020-10-01T08:00:00	0.2431	9.542	192.0	0.612314964	0.758416536	0.012646869	0.130475415	0.040213790
2020-10-01T08:05:00	0.2429	9.556	192.0	0.611826300	0.757695610	0.012628124	0.130282028	0.040154186
2020-10-01T08:10:00	0.2428	9.572	192.0	0.611337568	0.756974786	0.012609391	0.130088763	0.040094620
2020-10-01T08:15:00	0.2429	9.592	192.0	0.611846603	0.757725558	0.012628903	0.130290060	0.040156662
2020-10-01T08:20:00	0.2432	9.611	192.0	0.612688065	0.758967106	0.012661190	0.130623168	0.040259329
2020-10-01T08:25:00	0.2433	9.632	191.0	0.612864452	0.759227434	0.012667964	0.130693050	0.040280867
2020-10-01T08:30:00	0.2432	9.657	192.0	0.612708363	0.758997062	0.012661970	0.130631209	0.040261807
2020-10-01T08:35:00	0.2437	9.686	192.0	0.614214369	0.761220631	0.012719865	0.131228504	0.040445899
2020-10-01T08:40:00	0.2433	9.719	191.0	0.613061126	0.759517735	0.012675519	0.130770992	0.040304890
2020-10-01T08:45:00	0.2434	9.754	192.0	0.613237495	0.759778092	0.012682296	0.130840907	0.040326438
2020-10-01T08:50:00	0.2429	9.791	192.0	0.611751378	0.757585096	0.012625251	0.130252391	0.040145052
2020-10-01T08:55:00	0.2429	9.826	193.0	0.611595240	0.757354798	0.012619266	0.130190639	0.040126019
2020-10-01T09:00:00	0.2422	9.861	193.0	0.609442920	0.754182287	0.012536905	0.129340935	0.039864132
2020-10-01T09:05:00	0.2422	9.896	193.0	0.609286680	0.753952142	0.012530937	0.129279366	0.039845156
2020-10-01T09:10:00	0.2425	9.931	193.0	0.610461458	0.755683123	0.012575846	0.129742681	0.039987954
2020-10-01T09:15:00	0.2427	9.965	193.0	0.610970618	0.756433707	0.012595335	0.129943752	0.040049926
2020-10-01T09:20:00	0.2426	9.998	193.0	0.610814445	0.756203460	0.012589356	0.129882061	0.040030913
2020-10-01T09:25:00	0.2424	10.032	193.0	0.609992852	0.754992515	0.012557922	0.129557767	0.039930962
2020-10-01T09:30:00	0.2419	10.070	194.0	0.608505377	0.752801570	0.012501116	0.128971705	0.039750332
2020-10-01T09:35:00	0.2422	10.106	194.0	0.609347631	0.754041922	0.012533265	0.129303383	0.039852559
2020-10-01T09:40:00	0.2421	10.143	195.0	0.609191387	0.753811783	0.012527298	0.129241821	0.039833585
2020-10-01T09:45:00	0.2425	10.179	195.0	0.610366197	0.755542717	0.012572201	0.129705080	0.039976365
2020-10-01T09:50:00	0.2428	10.211	195.0	0.611208010	0.756783735	0.012604427	0.130037554	0.040078837
2020-10-01T09:55:00	0.2420	10.238	194.0	0.608722613	0.753121428	0.012509404	0.129057210	0.039776686
2020-10-01T10:00:00	0.2413	10.263	195.0	0.606235475	0.749461744	0.012414684	0.128080008	0.039475502
2020-10-01T10:05:00		10.286	195.0					
2020-10-01T10:10:00		10.309	196.0					
2020-10-01T10:15:00		10.335	195.0					
2020-10-01T10:20:00		10.364	195.0					
2020-10-01T10:25:00		10.395	195.0					
2020-10-01T10:30:00		10.426	196.0					
2020-10-01T10:35:00		10.490	196.0					
2020-10-01T10:40:00		10.495	196.0					
